﻿<?xml version="1.0" encoding="utf-8"?><gpx creator="Garmin Desktop App" version="1.1" xsi:schemaLocation="http://www.topografix.com/GPX/1/1 http://www.topografix.com/GPX/1/1/gpx.xsd http://www.garmin.com/xmlschemas/WaypointExtension/v1 http://www8.garmin.com/xmlschemas/WaypointExtensionv1.xsd http://www.garmin.com/xmlschemas/TrackPointExtension/v1 http://www.garmin.com/xmlschemas/TrackPointExtensionv1.xsd http://www.garmin.com/xmlschemas/GpxExtensions/v3 http://www8.garmin.com/xmlschemas/GpxExtensionsv3.xsd http://www.garmin.com/xmlschemas/ActivityExtension/v1 http://www8.garmin.com/xmlschemas/ActivityExtensionv1.xsd http://www.garmin.com/xmlschemas/AdventuresExtensions/v1 http://www8.garmin.com/xmlschemas/AdventuresExtensionv1.xsd http://www.garmin.com/xmlschemas/PressureExtension/v1 http://www.garmin.com/xmlschemas/PressureExtensionv1.xsd http://www.garmin.com/xmlschemas/TripExtensions/v1 http://www.garmin.com/xmlschemas/TripExtensionsv1.xsd http://www.garmin.com/xmlschemas/TripMetaDataExtensions/v1 http://www.garmin.com/xmlschemas/TripMetaDataExtensionsv1.xsd http://www.garmin.com/xmlschemas/ViaPointTransportationModeExtensions/v1 http://www.garmin.com/xmlschemas/ViaPointTransportationModeExtensionsv1.xsd http://www.garmin.com/xmlschemas/CreationTimeExtension/v1 http://www.garmin.com/xmlschemas/CreationTimeExtensionsv1.xsd http://www.garmin.com/xmlschemas/AccelerationExtension/v1 http://www.garmin.com/xmlschemas/AccelerationExtensionv1.xsd http://www.garmin.com/xmlschemas/PowerExtension/v1 http://www.garmin.com/xmlschemas/PowerExtensionv1.xsd http://www.garmin.com/xmlschemas/VideoExtension/v1 http://www.garmin.com/xmlschemas/VideoExtensionv1.xsd" xmlns="http://www.topografix.com/GPX/1/1" xmlns:xsi="http://www.w3.org/2001/XMLSchema-instance" xmlns:wptx1="http://www.garmin.com/xmlschemas/WaypointExtension/v1" xmlns:gpxtrx="http://www.garmin.com/xmlschemas/GpxExtensions/v3" xmlns:gpxtpx="http://www.garmin.com/xmlschemas/TrackPointExtension/v1" xmlns:gpxx="http://www.garmin.com/xmlschemas/GpxExtensions/v3" xmlns:trp="http://www.garmin.com/xmlschemas/TripExtensions/v1" xmlns:adv="http://www.garmin.com/xmlschemas/AdventuresExtensions/v1" xmlns:prs="http://www.garmin.com/xmlschemas/PressureExtension/v1" xmlns:tmd="http://www.garmin.com/xmlschemas/TripMetaDataExtensions/v1" xmlns:vptm="http://www.garmin.com/xmlschemas/ViaPointTransportationModeExtensions/v1" xmlns:ctx="http://www.garmin.com/xmlschemas/CreationTimeExtension/v1" xmlns:gpxacc="http://www.garmin.com/xmlschemas/AccelerationExtension/v1" xmlns:gpxpx="http://www.garmin.com/xmlschemas/PowerExtension/v1" xmlns:vidx1="http://www.garmin.com/xmlschemas/VideoExtension/v1">

  <metadata>
    <link href="http://www.garmin.com">
      <text>Garmin International</text>
    </link>
    <time>2025-05-26T12:49:23Z</time>
    <bounds maxlat="50.082687009125948" maxlon="10.265917964279652" minlat="42.576162982732058" minlon="-9.267526008188725" />
  </metadata>

  <trk>
    <name>Track 008</name>
    <extensions>
      <gpxx:TrackExtension>
        <gpxx:DisplayColor>DarkGray</gpxx:DisplayColor>
      </gpxx:TrackExtension>
    </extensions>
    <trkseg>
      <trkpt lat="50.068845972418785" lon="8.480042014271021">
        <ele>106.36</ele>
        <time>2025-04-23T05:00:51Z</time>
      </trkpt>
      <trkpt lat="50.069504035636783" lon="8.481355961412191">
        <ele>107.81</ele>
        <time>2025-04-23T05:01:02Z</time>
      </trkpt>
      <trkpt lat="50.070095965638757" lon="8.482508976012468">
        <ele>107.31999999999999</ele>
        <time>2025-04-23T05:01:10Z</time>
      </trkpt>
      <trkpt lat="50.070232003927231" lon="8.482766970992088">
        <ele>107.31999999999999</ele>
        <time>2025-04-23T05:01:12Z</time>
      </trkpt>
      <trkpt lat="50.070297969505191" lon="8.482896974310279">
        <ele>107.31999999999999</ele>
        <time>2025-04-23T05:01:13Z</time>
      </trkpt>
      <trkpt lat="50.070698959752917" lon="8.483630977571011">
        <ele>107.31999999999999</ele>
        <time>2025-04-23T05:01:18Z</time>
      </trkpt>
      <trkpt lat="50.070912027731538" lon="8.483944963663817">
        <ele>106.36</ele>
        <time>2025-04-23T05:01:22Z</time>
      </trkpt>
      <trkpt lat="50.070947986096144" lon="8.483999026939273">
        <ele>105.88</ele>
        <time>2025-04-23T05:01:23Z</time>
      </trkpt>
      <trkpt lat="50.070975981652737" lon="8.484040014445782">
        <ele>105.40000000000001</ele>
        <time>2025-04-23T05:01:24Z</time>
      </trkpt>
      <trkpt lat="50.071030966937542" lon="8.484050994738936">
        <ele>104.92</ele>
        <time>2025-04-23T05:01:25Z</time>
      </trkpt>
      <trkpt lat="50.071073966100812" lon="8.483989974483848">
        <ele>104.92</ele>
        <time>2025-04-23T05:01:26Z</time>
      </trkpt>
      <trkpt lat="50.071131968870759" lon="8.483909005299211">
        <ele>104.44</ele>
        <time>2025-04-23T05:01:27Z</time>
      </trkpt>
      <trkpt lat="50.071189971640706" lon="8.483828036114574">
        <ele>104.44</ele>
        <time>2025-04-23T05:01:28Z</time>
      </trkpt>
      <trkpt lat="50.071249986067414" lon="8.483743965625763">
        <ele>103.95999999999999</ele>
        <time>2025-04-23T05:01:29Z</time>
      </trkpt>
      <trkpt lat="50.071313017979264" lon="8.483656961470842">
        <ele>103.95999999999999</ele>
        <time>2025-04-23T05:01:30Z</time>
      </trkpt>
      <trkpt lat="50.071376971900463" lon="8.483567023649812">
        <ele>103.48</ele>
        <time>2025-04-23T05:01:31Z</time>
      </trkpt>
      <trkpt lat="50.071444027125835" lon="8.483474990352988">
        <ele>103.48</ele>
        <time>2025-04-23T05:01:32Z</time>
      </trkpt>
      <trkpt lat="50.071509992703795" lon="8.483382035046816">
        <ele>103.48</ele>
        <time>2025-04-23T05:01:33Z</time>
      </trkpt>
      <trkpt lat="50.071578975766897" lon="8.48328597843647">
        <ele>103.48</ele>
        <time>2025-04-23T05:01:34Z</time>
      </trkpt>
      <trkpt lat="50.071647958829999" lon="8.483188999816775">
        <ele>103.48</ele>
        <time>2025-04-23T05:01:35Z</time>
      </trkpt>
      <trkpt lat="50.071716019883752" lon="8.483094032853842">
        <ele>103.48</ele>
        <time>2025-04-23T05:01:36Z</time>
      </trkpt>
      <trkpt lat="50.071786008775234" lon="8.482995964586735">
        <ele>103.95999999999999</ele>
        <time>2025-04-23T05:01:37Z</time>
      </trkpt>
      <trkpt lat="50.071858009323478" lon="8.482895968481898">
        <ele>104.44</ele>
        <time>2025-04-23T05:01:38Z</time>
      </trkpt>
      <trkpt lat="50.07199396379292" lon="8.482706034556031">
        <ele>104.92</ele>
        <time>2025-04-23T05:01:40Z</time>
      </trkpt>
      <trkpt lat="50.072061019018292" lon="8.482615007087588">
        <ele>104.92</ele>
        <time>2025-04-23T05:01:41Z</time>
      </trkpt>
      <trkpt lat="50.072130002081394" lon="8.482525991275907">
        <ele>105.40000000000001</ele>
        <time>2025-04-23T05:01:42Z</time>
      </trkpt>
      <trkpt lat="50.072199990972877" lon="8.482434963807464">
        <ele>105.88</ele>
        <time>2025-04-23T05:01:43Z</time>
      </trkpt>
      <trkpt lat="50.07227199152112" lon="8.48233999684453">
        <ele>105.88</ele>
        <time>2025-04-23T05:01:44Z</time>
      </trkpt>
      <trkpt lat="50.072982022538781" lon="8.481417987495661">
        <ele>107.31999999999999</ele>
        <time>2025-04-23T05:01:55Z</time>
      </trkpt>
      <trkpt lat="50.073102973401546" lon="8.481259988620877">
        <ele>107.31999999999999</ele>
        <time>2025-04-23T05:01:57Z</time>
      </trkpt>
      <trkpt lat="50.073237000033259" lon="8.480852963402867">
        <ele>107.81</ele>
        <time>2025-04-23T05:02:01Z</time>
      </trkpt>
      <trkpt lat="50.073325010016561" lon="8.48057703115046">
        <ele>107.81</ele>
        <time>2025-04-23T05:02:08Z</time>
      </trkpt>
      <trkpt lat="50.073325010016561" lon="8.48057703115046">
        <ele>107.81</ele>
        <time>2025-04-23T05:02:22Z</time>
      </trkpt>
      <trkpt lat="50.073325010016561" lon="8.48057703115046">
        <ele>107.81</ele>
        <time>2025-04-23T05:03:03Z</time>
      </trkpt>
      <trkpt lat="50.073369015008211" lon="8.480671998113394">
        <ele>103.95999999999999</ele>
        <time>2025-04-23T05:08:13Z</time>
      </trkpt>
      <trkpt lat="50.073368009179831" lon="8.480648025870323">
        <ele>113.09</ele>
        <time>2025-04-23T05:08:52Z</time>
      </trkpt>
      <trkpt lat="50.073394998908043" lon="8.480611983686686">
        <ele>112.13</ele>
        <time>2025-04-23T05:09:36Z</time>
      </trkpt>
      <trkpt lat="50.073385024443269" lon="8.48062195815146">
        <ele>110.20999999999999</ele>
        <time>2025-04-23T05:10:14Z</time>
      </trkpt>
      <trkpt lat="50.073386030271649" lon="8.48061902448535">
        <ele>110.69</ele>
        <time>2025-04-23T05:10:49Z</time>
      </trkpt>
      <trkpt lat="50.073351999744773" lon="8.48049103282392">
        <ele>109.73</ele>
        <time>2025-04-23T05:10:57Z</time>
      </trkpt>
      <trkpt lat="50.073375971987844" lon="8.480417020618916">
        <ele>109.25</ele>
        <time>2025-04-23T05:10:58Z</time>
      </trkpt>
      <trkpt lat="50.073431041091681" lon="8.480244018137455">
        <ele>108.77</ele>
        <time>2025-04-23T05:11:00Z</time>
      </trkpt>
      <trkpt lat="50.073474040254951" lon="8.480159025639296">
        <ele>108.77</ele>
        <time>2025-04-23T05:11:01Z</time>
      </trkpt>
      <trkpt lat="50.073505975306034" lon="8.480093982070684">
        <ele>108.77</ele>
        <time>2025-04-23T05:11:02Z</time>
      </trkpt>
      <trkpt lat="50.073534976691008" lon="8.480036985129118">
        <ele>108.77</ele>
        <time>2025-04-23T05:11:03Z</time>
      </trkpt>
      <trkpt lat="50.073560038581491" lon="8.479986023157835">
        <ele>108.29000000000001</ele>
        <time>2025-04-23T05:11:04Z</time>
      </trkpt>
      <trkpt lat="50.073579987511039" lon="8.479946963489056">
        <ele>108.29000000000001</ele>
        <time>2025-04-23T05:11:05Z</time>
      </trkpt>
      <trkpt lat="50.073591973632574" lon="8.479887032881379">
        <ele>107.81</ele>
        <time>2025-04-23T05:11:06Z</time>
      </trkpt>
      <trkpt lat="50.073527013882995" lon="8.479810003191233">
        <ele>107.31999999999999</ele>
        <time>2025-04-23T05:11:08Z</time>
      </trkpt>
      <trkpt lat="50.0734300352633" lon="8.479693997651339">
        <ele>107.31999999999999</ele>
        <time>2025-04-23T05:11:10Z</time>
      </trkpt>
      <trkpt lat="50.073363985866308" lon="8.479615962132812">
        <ele>106.84</ele>
        <time>2025-04-23T05:11:11Z</time>
      </trkpt>
      <trkpt lat="50.073290979489684" lon="8.479529041796923">
        <ele>106.84</ele>
        <time>2025-04-23T05:11:12Z</time>
      </trkpt>
      <trkpt lat="50.073229037225246" lon="8.479454023763537">
        <ele>106.36</ele>
        <time>2025-04-23T05:11:13Z</time>
      </trkpt>
      <trkpt lat="50.073175979778171" lon="8.479391997680068">
        <ele>106.36</ele>
        <time>2025-04-23T05:11:14Z</time>
      </trkpt>
      <trkpt lat="50.073138009756804" lon="8.479345981031656">
        <ele>105.88</ele>
        <time>2025-04-23T05:11:15Z</time>
      </trkpt>
      <trkpt lat="50.073110014200211" lon="8.479313040152192">
        <ele>105.40000000000001</ele>
        <time>2025-04-23T05:11:16Z</time>
      </trkpt>
      <trkpt lat="50.073014041408896" lon="8.479295019060373">
        <ele>104.44</ele>
        <time>2025-04-23T05:11:17Z</time>
      </trkpt>
      <trkpt lat="50.072982022538781" lon="8.479355033487082">
        <ele>103.95999999999999</ele>
        <time>2025-04-23T05:11:18Z</time>
      </trkpt>
      <trkpt lat="50.072943968698382" lon="8.479427034035325">
        <ele>103.48</ele>
        <time>2025-04-23T05:11:19Z</time>
      </trkpt>
      <trkpt lat="50.072902981191874" lon="8.47950397990644">
        <ele>103</ele>
        <time>2025-04-23T05:11:20Z</time>
      </trkpt>
      <trkpt lat="50.072726039215922" lon="8.479839004576206">
        <ele>101.56</ele>
        <time>2025-04-23T05:11:24Z</time>
      </trkpt>
      <trkpt lat="50.072682034224272" lon="8.479921985417604">
        <ele>101.08</ele>
        <time>2025-04-23T05:11:25Z</time>
      </trkpt>
      <trkpt lat="50.072639035061002" lon="8.480003960430622">
        <ele>100.59999999999999</ele>
        <time>2025-04-23T05:11:26Z</time>
      </trkpt>
      <trkpt lat="50.071933027356863" lon="8.481341963633895">
        <ele>99.150000000000006</ele>
        <time>2025-04-23T05:11:40Z</time>
      </trkpt>
      <trkpt lat="50.07162700407207" lon="8.481924002990127">
        <ele>100.59999999999999</ele>
        <time>2025-04-23T05:11:46Z</time>
      </trkpt>
      <trkpt lat="50.071400022134185" lon="8.48227302543819">
        <ele>102.04000000000001</ele>
        <time>2025-04-23T05:11:50Z</time>
      </trkpt>
      <trkpt lat="50.071279993280768" lon="8.482454996556044">
        <ele>101.56</ele>
        <time>2025-04-23T05:11:52Z</time>
      </trkpt>
      <trkpt lat="50.071164993569255" lon="8.482629004865885">
        <ele>101.08</ele>
        <time>2025-04-23T05:11:54Z</time>
      </trkpt>
      <trkpt lat="50.071107996627688" lon="8.482715003192425">
        <ele>100.59999999999999</ele>
        <time>2025-04-23T05:11:55Z</time>
      </trkpt>
      <trkpt lat="50.071048988029361" lon="8.482803013175726">
        <ele>100.59999999999999</ele>
        <time>2025-04-23T05:11:56Z</time>
      </trkpt>
      <trkpt lat="50.070828963071108" lon="8.483135020360351">
        <ele>100.11</ele>
        <time>2025-04-23T05:11:59Z</time>
      </trkpt>
      <trkpt lat="50.070654032751918" lon="8.483399972319603">
        <ele>99.150000000000006</ele>
        <time>2025-04-23T05:12:02Z</time>
      </trkpt>
      <trkpt lat="50.070628970861435" lon="8.483437020331621">
        <ele>99.150000000000006</ele>
        <time>2025-04-23T05:12:03Z</time>
      </trkpt>
      <trkpt lat="50.070566022768617" lon="8.483418999239802">
        <ele>99.150000000000006</ele>
        <time>2025-04-23T05:12:04Z</time>
      </trkpt>
      <trkpt lat="50.070393020287156" lon="8.483082968741655">
        <ele>98.670000000000002</ele>
        <time>2025-04-23T05:12:09Z</time>
      </trkpt>
      <trkpt lat="50.070365024730563" lon="8.48302798345685">
        <ele>99.150000000000006</ele>
        <time>2025-04-23T05:12:10Z</time>
      </trkpt>
      <trkpt lat="50.070340968668461" lon="8.482981966808438">
        <ele>99.150000000000006</ele>
        <time>2025-04-23T05:12:11Z</time>
      </trkpt>
      <trkpt lat="50.070318002253771" lon="8.482937039807439">
        <ele>99.150000000000006</ele>
        <time>2025-04-23T05:12:12Z</time>
      </trkpt>
      <trkpt lat="50.070299981161952" lon="8.482899991795421">
        <ele>99.150000000000006</ele>
        <time>2025-04-23T05:12:21Z</time>
      </trkpt>
      <trkpt lat="50.070191016420722" lon="8.482688013464212">
        <ele>106.36</ele>
        <time>2025-04-23T05:12:56Z</time>
      </trkpt>
      <trkpt lat="50.070162015035748" lon="8.482631016522646">
        <ele>107.31999999999999</ele>
        <time>2025-04-23T05:12:57Z</time>
      </trkpt>
      <trkpt lat="50.070136031135917" lon="8.482580976560712">
        <ele>107.31999999999999</ele>
        <time>2025-04-23T05:12:58Z</time>
      </trkpt>
      <trkpt lat="50.070192022249103" lon="8.48253102041781">
        <ele>107.81</ele>
        <time>2025-04-23T05:12:59Z</time>
      </trkpt>
      <trkpt lat="50.070241978392005" lon="8.482448039576411">
        <ele>108.29000000000001</ele>
        <time>2025-04-23T05:13:00Z</time>
      </trkpt>
      <trkpt lat="50.070284977555275" lon="8.482376039028168">
        <ele>108.29000000000001</ele>
        <time>2025-04-23T05:13:01Z</time>
      </trkpt>
      <trkpt lat="50.070372987538576" lon="8.482227008789778">
        <ele>108.77</ele>
        <time>2025-04-23T05:13:03Z</time>
      </trkpt>
      <trkpt lat="50.070419004186988" lon="8.48214796744287">
        <ele>109.25</ele>
        <time>2025-04-23T05:13:04Z</time>
      </trkpt>
      <trkpt lat="50.070678004994988" lon="8.481672964990139">
        <ele>109.73</ele>
        <time>2025-04-23T05:13:10Z</time>
      </trkpt>
      <trkpt lat="50.070714969187975" lon="8.481599036604166">
        <ele>109.73</ele>
        <time>2025-04-23T05:13:11Z</time>
      </trkpt>
      <trkpt lat="50.070743970572948" lon="8.4815420396626">
        <ele>109.73</ele>
        <time>2025-04-23T05:13:12Z</time>
      </trkpt>
      <trkpt lat="50.070783030241728" lon="8.481464004144073">
        <ele>109.73</ele>
        <time>2025-04-23T05:13:14Z</time>
      </trkpt>
      <trkpt lat="50.070801973342896" lon="8.481426034122706">
        <ele>109.25</ele>
        <time>2025-04-23T05:13:15Z</time>
      </trkpt>
      <trkpt lat="50.070819994434714" lon="8.481387980282307">
        <ele>109.25</ele>
        <time>2025-04-23T05:13:16Z</time>
      </trkpt>
      <trkpt lat="50.070842960849404" lon="8.481342969462276">
        <ele>108.77</ele>
        <time>2025-04-23T05:13:17Z</time>
      </trkpt>
      <trkpt lat="50.070861987769604" lon="8.481303993612528">
        <ele>108.29000000000001</ele>
        <time>2025-04-23T05:13:18Z</time>
      </trkpt>
      <trkpt lat="50.070879003033042" lon="8.481270968914032">
        <ele>108.29000000000001</ele>
        <time>2025-04-23T05:13:19Z</time>
      </trkpt>
      <trkpt lat="50.0708950124681" lon="8.481240039691329">
        <ele>108.29000000000001</ele>
        <time>2025-04-23T05:13:20Z</time>
      </trkpt>
      <trkpt lat="50.0708950124681" lon="8.481240039691329">
        <ele>107.81</ele>
        <time>2025-04-23T05:13:34Z</time>
      </trkpt>
      <trkpt lat="50.0708950124681" lon="8.481240039691329">
        <ele>108.77</ele>
        <time>2025-04-23T05:14:24Z</time>
      </trkpt>
      <trkpt lat="50.0708950124681" lon="8.481240039691329">
        <ele>108.77</ele>
        <time>2025-04-23T05:15:14Z</time>
      </trkpt>
      <trkpt lat="50.070935999974608" lon="8.481156975030899">
        <ele>111.65000000000001</ele>
        <time>2025-04-23T05:15:47Z</time>
      </trkpt>
      <trkpt lat="50.070969024673104" lon="8.48109201528132">
        <ele>111.65000000000001</ele>
        <time>2025-04-23T05:15:48Z</time>
      </trkpt>
      <trkpt lat="50.071146972477436" lon="8.480745004490018">
        <ele>113.09</ele>
        <time>2025-04-23T05:15:52Z</time>
      </trkpt>
      <trkpt lat="50.071187037974596" lon="8.48066596314311">
        <ele>113.09</ele>
        <time>2025-04-23T05:15:53Z</time>
      </trkpt>
      <trkpt lat="50.071225007995963" lon="8.480593040585518">
        <ele>113.09</ele>
        <time>2025-04-23T05:15:54Z</time>
      </trkpt>
      <trkpt lat="50.071534970775247" lon="8.479988034814596">
        <ele>113.56999999999999</ele>
        <time>2025-04-23T05:16:01Z</time>
      </trkpt>
      <trkpt lat="50.071580987423658" lon="8.479898013174534">
        <ele>113.09</ele>
        <time>2025-04-23T05:16:02Z</time>
      </trkpt>
      <trkpt lat="50.072258999571204" lon="8.478603009134531">
        <ele>112.61</ele>
        <time>2025-04-23T05:16:16Z</time>
      </trkpt>
      <trkpt lat="50.072396965697408" lon="8.478330010548234">
        <ele>112.13</ele>
        <time>2025-04-23T05:16:19Z</time>
      </trkpt>
      <trkpt lat="50.072476007044315" lon="8.478145021945238">
        <ele>112.61</ele>
        <time>2025-04-23T05:16:21Z</time>
      </trkpt>
      <trkpt lat="50.072558987885714" lon="8.477955004200339">
        <ele>113.09</ele>
        <time>2025-04-23T05:16:23Z</time>
      </trkpt>
      <trkpt lat="50.072591006755829" lon="8.477883003652096">
        <ele>113.09</ele>
        <time>2025-04-23T05:16:24Z</time>
      </trkpt>
      <trkpt lat="50.072622019797564" lon="8.477814020588994">
        <ele>113.09</ele>
        <time>2025-04-23T05:16:25Z</time>
      </trkpt>
      <trkpt lat="50.072649009525776" lon="8.477751994505525">
        <ele>113.56999999999999</ele>
        <time>2025-04-23T05:16:26Z</time>
      </trkpt>
      <trkpt lat="50.072686979547143" lon="8.477664990350604">
        <ele>114.05</ele>
        <time>2025-04-23T05:16:33Z</time>
      </trkpt>
      <trkpt lat="50.072786975651979" lon="8.477442031726241">
        <ele>119.34</ele>
        <time>2025-04-23T05:16:55Z</time>
      </trkpt>
      <trkpt lat="50.072929970920086" lon="8.477111030369997">
        <ele>120.3</ele>
        <time>2025-04-23T05:16:59Z</time>
      </trkpt>
      <trkpt lat="50.072966013103724" lon="8.477025032043457">
        <ele>120.3</ele>
        <time>2025-04-23T05:17:00Z</time>
      </trkpt>
      <trkpt lat="50.072998031973839" lon="8.476948002353311">
        <ele>120.78</ele>
        <time>2025-04-23T05:17:01Z</time>
      </trkpt>
      <trkpt lat="50.072942962870002" lon="8.476865021511912">
        <ele>120.78</ele>
        <time>2025-04-23T05:17:02Z</time>
      </trkpt>
      <trkpt lat="50.072884960100055" lon="8.476791009306908">
        <ele>120.3</ele>
        <time>2025-04-23T05:17:03Z</time>
      </trkpt>
      <trkpt lat="50.072821006178856" lon="8.47670903429389">
        <ele>119.81999999999999</ele>
        <time>2025-04-23T05:17:04Z</time>
      </trkpt>
      <trkpt lat="50.072742970660329" lon="8.476621024310589">
        <ele>119.81999999999999</ele>
        <time>2025-04-23T05:17:05Z</time>
      </trkpt>
      <trkpt lat="50.072648003697395" lon="8.476547012105584">
        <ele>119.34</ele>
        <time>2025-04-23T05:17:06Z</time>
      </trkpt>
      <trkpt lat="50.07257298566401" lon="8.476489009335637">
        <ele>118.86</ele>
        <time>2025-04-23T05:17:07Z</time>
      </trkpt>
      <trkpt lat="50.072491010650992" lon="8.47632396966219">
        <ele>118.38</ele>
        <time>2025-04-23T05:17:08Z</time>
      </trkpt>
      <trkpt lat="50.072426972910762" lon="8.476196983829141">
        <ele>117.90000000000001</ele>
        <time>2025-04-23T05:17:09Z</time>
      </trkpt>
      <trkpt lat="50.072366036474705" lon="8.476074021309614">
        <ele>117.90000000000001</ele>
        <time>2025-04-23T05:17:10Z</time>
      </trkpt>
      <trkpt lat="50.072328988462687" lon="8.47593697719276">
        <ele>117.42</ele>
        <time>2025-04-23T05:17:11Z</time>
      </trkpt>
      <trkpt lat="50.072295041754842" lon="8.475791970267892">
        <ele>117.42</ele>
        <time>2025-04-23T05:17:12Z</time>
      </trkpt>
      <trkpt lat="50.072291018441319" lon="8.475626008585095">
        <ele>116.94</ele>
        <time>2025-04-23T05:17:13Z</time>
      </trkpt>
      <trkpt lat="50.072329994291067" lon="8.475479995831847">
        <ele>116.45999999999999</ele>
        <time>2025-04-23T05:17:14Z</time>
      </trkpt>
      <trkpt lat="50.07235798984766" lon="8.475372958928347">
        <ele>115.98</ele>
        <time>2025-04-23T05:17:15Z</time>
      </trkpt>
      <trkpt lat="50.072462009266019" lon="8.475240021944046">
        <ele>115.01000000000001</ele>
        <time>2025-04-23T05:17:16Z</time>
      </trkpt>
      <trkpt lat="50.072556976228952" lon="8.475175984203816">
        <ele>114.53</ele>
        <time>2025-04-23T05:17:17Z</time>
      </trkpt>
      <trkpt lat="50.072659989818931" lon="8.475168021395803">
        <ele>114.05</ele>
        <time>2025-04-23T05:17:18Z</time>
      </trkpt>
      <trkpt lat="50.072786975651979" lon="8.475157963111997">
        <ele>113.56999999999999</ele>
        <time>2025-04-23T05:17:19Z</time>
      </trkpt>
      <trkpt lat="50.072869034484029" lon="8.475234992802143">
        <ele>113.09</ele>
        <time>2025-04-23T05:17:20Z</time>
      </trkpt>
      <trkpt lat="50.072970958426595" lon="8.475330965593457">
        <ele>113.09</ele>
        <time>2025-04-23T05:17:21Z</time>
      </trkpt>
      <trkpt lat="50.073330961167812" lon="8.475668001919985">
        <ele>112.61</ele>
        <time>2025-04-23T05:17:24Z</time>
      </trkpt>
      <trkpt lat="50.073474040254951" lon="8.475802028551698">
        <ele>112.61</ele>
        <time>2025-04-23T05:17:25Z</time>
      </trkpt>
      <trkpt lat="50.074987979605794" lon="8.477819971740246">
        <ele>112.61</ele>
        <time>2025-04-23T05:17:35Z</time>
      </trkpt>
      <trkpt lat="50.076960995793343" lon="8.480437975376844">
        <ele>112.61</ele>
        <time>2025-04-23T05:17:47Z</time>
      </trkpt>
      <trkpt lat="50.079049011692405" lon="8.483253959566355">
        <ele>114.05</ele>
        <time>2025-04-23T05:17:59Z</time>
      </trkpt>
      <trkpt lat="50.08144598454237" lon="8.486613007262349">
        <ele>118.38</ele>
        <time>2025-04-23T05:18:13Z</time>
      </trkpt>
      <trkpt lat="50.082066999748349" lon="8.487621014937758">
        <ele>117.42</ele>
        <time>2025-04-23T05:18:17Z</time>
      </trkpt>
      <trkpt lat="50.082193985581398" lon="8.487922009080648">
        <ele>116.94</ele>
        <time>2025-04-23T05:18:18Z</time>
      </trkpt>
      <trkpt lat="50.082376040518284" lon="8.488590968772769">
        <ele>115.5</ele>
        <time>2025-04-23T05:18:20Z</time>
      </trkpt>
      <trkpt lat="50.082458015531301" lon="8.488943008705974">
        <ele>115.01000000000001</ele>
        <time>2025-04-23T05:18:21Z</time>
      </trkpt>
      <trkpt lat="50.082508977502584" lon="8.489308962598443">
        <ele>114.53</ele>
        <time>2025-04-23T05:18:22Z</time>
      </trkpt>
      <trkpt lat="50.08254200220108" lon="8.489679023623467">
        <ele>114.53</ele>
        <time>2025-04-23T05:18:23Z</time>
      </trkpt>
      <trkpt lat="50.082568991929293" lon="8.490049000829458">
        <ele>114.05</ele>
        <time>2025-04-23T05:18:24Z</time>
      </trkpt>
      <trkpt lat="50.082545019686222" lon="8.490417972207069">
        <ele>114.05</ele>
        <time>2025-04-23T05:18:25Z</time>
      </trkpt>
      <trkpt lat="50.08252096362412" lon="8.490789961069822">
        <ele>113.56999999999999</ele>
        <time>2025-04-23T05:18:26Z</time>
      </trkpt>
      <trkpt lat="50.081975972279906" lon="8.494073990732431">
        <ele>110.20999999999999</ele>
        <time>2025-04-23T05:18:35Z</time>
      </trkpt>
      <trkpt lat="50.08116896264255" lon="8.49680095911026">
        <ele>104.92</ele>
        <time>2025-04-23T05:18:43Z</time>
      </trkpt>
      <trkpt lat="50.079730041325092" lon="8.499758010730147">
        <ele>99.629999999999995</ele>
        <time>2025-04-23T05:18:53Z</time>
      </trkpt>
      <trkpt lat="50.078248037025332" lon="8.502257997170091">
        <ele>93.870000000000005</ele>
        <time>2025-04-23T05:19:03Z</time>
      </trkpt>
      <trkpt lat="50.076958984136581" lon="8.504242999479175">
        <ele>90.5</ele>
        <time>2025-04-23T05:19:10Z</time>
      </trkpt>
      <trkpt lat="50.075574964284897" lon="8.50670401006937">
        <ele>92.420000000000002</ele>
        <time>2025-04-23T05:19:19Z</time>
      </trkpt>
      <trkpt lat="50.074324971064925" lon="8.509976975619793">
        <ele>95.310000000000002</ele>
        <time>2025-04-23T05:19:28Z</time>
      </trkpt>
      <trkpt lat="50.073752989992499" lon="8.513481030240655">
        <ele>97.230000000000004</ele>
        <time>2025-04-23T05:19:36Z</time>
      </trkpt>
      <trkpt lat="50.073763970285654" lon="8.516228031367064">
        <ele>97.709999999999994</ele>
        <time>2025-04-23T05:19:43Z</time>
      </trkpt>
      <trkpt lat="50.07416102103889" lon="8.518910994753242">
        <ele>100.59999999999999</ele>
        <time>2025-04-23T05:19:50Z</time>
      </trkpt>
      <trkpt lat="50.075079007074237" lon="8.522074995562434">
        <ele>103.95999999999999</ele>
        <time>2025-04-23T05:19:59Z</time>
      </trkpt>
      <trkpt lat="50.076220035552979" lon="8.525927988812327">
        <ele>102.52</ele>
        <time>2025-04-23T05:20:10Z</time>
      </trkpt>
      <trkpt lat="50.076876003295183" lon="8.529384015128017">
        <ele>97.230000000000004</ele>
        <time>2025-04-23T05:20:19Z</time>
      </trkpt>
      <trkpt lat="50.076881032437086" lon="8.532663015648723">
        <ele>94.829999999999998</ele>
        <time>2025-04-23T05:20:28Z</time>
      </trkpt>
      <trkpt lat="50.076505020260811" lon="8.535980992019177">
        <ele>93.390000000000001</ele>
        <time>2025-04-23T05:20:37Z</time>
      </trkpt>
      <trkpt lat="50.076029011979699" lon="8.53873603977263">
        <ele>95.310000000000002</ele>
        <time>2025-04-23T05:20:45Z</time>
      </trkpt>
      <trkpt lat="50.07570999674499" lon="8.539842031896114">
        <ele>95.790000000000006</ele>
        <time>2025-04-23T05:20:50Z</time>
      </trkpt>
      <trkpt lat="50.074707018211484" lon="8.54168001562357">
        <ele>95.790000000000006</ele>
        <time>2025-04-23T05:20:58Z</time>
      </trkpt>
      <trkpt lat="50.073686018586159" lon="8.542585009709001">
        <ele>95.790000000000006</ele>
        <time>2025-04-23T05:21:04Z</time>
      </trkpt>
      <trkpt lat="50.071945013478398" lon="8.543346002697945">
        <ele>95.790000000000006</ele>
        <time>2025-04-23T05:21:13Z</time>
      </trkpt>
      <trkpt lat="50.070751011371613" lon="8.544364990666509">
        <ele>95.790000000000006</ele>
        <time>2025-04-23T05:21:20Z</time>
      </trkpt>
      <trkpt lat="50.069318041205406" lon="8.546531964093447">
        <ele>98.670000000000002</ele>
        <time>2025-04-23T05:21:30Z</time>
      </trkpt>
      <trkpt lat="50.067969979718328" lon="8.548308005556464">
        <ele>100.11</ele>
        <time>2025-04-23T05:21:39Z</time>
      </trkpt>
      <trkpt lat="50.066485963761806" lon="8.549417015165091">
        <ele>101.56</ele>
        <time>2025-04-23T05:21:47Z</time>
      </trkpt>
      <trkpt lat="50.06604197435081" lon="8.549632010981441">
        <ele>101.56</ele>
        <time>2025-04-23T05:21:49Z</time>
      </trkpt>
      <trkpt lat="50.064288983121514" lon="8.549916995689273">
        <ele>103</ele>
        <time>2025-04-23T05:21:56Z</time>
      </trkpt>
      <trkpt lat="50.062471032142639" lon="8.549606027081609">
        <ele>103.48</ele>
        <time>2025-04-23T05:22:03Z</time>
      </trkpt>
      <trkpt lat="50.061994018033147" lon="8.549465965479612">
        <ele>103.95999999999999</ele>
        <time>2025-04-23T05:22:04Z</time>
      </trkpt>
      <trkpt lat="50.061736023053527" lon="8.549379967153072">
        <ele>104.44</ele>
        <time>2025-04-23T05:22:05Z</time>
      </trkpt>
      <trkpt lat="50.059303008019924" lon="8.548993980512023">
        <ele>105.88</ele>
        <time>2025-04-23T05:22:15Z</time>
      </trkpt>
      <trkpt lat="50.056878961622715" lon="8.549103029072285">
        <ele>106.36</ele>
        <time>2025-04-23T05:22:25Z</time>
      </trkpt>
      <trkpt lat="50.05458801984787" lon="8.549699988216162">
        <ele>107.81</ele>
        <time>2025-04-23T05:22:35Z</time>
      </trkpt>
      <trkpt lat="50.052726985886693" lon="8.550623003393412">
        <ele>110.69</ele>
        <time>2025-04-23T05:22:46Z</time>
      </trkpt>
      <trkpt lat="50.051547987386584" lon="8.551364969462156">
        <ele>113.09</ele>
        <time>2025-04-23T05:22:53Z</time>
      </trkpt>
      <trkpt lat="50.051414966583252" lon="8.551471000537276">
        <ele>113.09</ele>
        <time>2025-04-23T05:22:54Z</time>
      </trkpt>
      <trkpt lat="50.05125897936523" lon="8.551419032737613">
        <ele>113.09</ele>
        <time>2025-04-23T05:22:55Z</time>
      </trkpt>
      <trkpt lat="50.051094023510814" lon="8.551462031900883">
        <ele>113.09</ele>
        <time>2025-04-23T05:22:56Z</time>
      </trkpt>
      <trkpt lat="50.050999978557229" lon="8.551409980282188">
        <ele>113.09</ele>
        <time>2025-04-23T05:22:57Z</time>
      </trkpt>
      <trkpt lat="50.050789006054401" lon="8.551173023879528">
        <ele>113.09</ele>
        <time>2025-04-23T05:22:59Z</time>
      </trkpt>
      <trkpt lat="50.050454987213016" lon="8.550356961786747">
        <ele>111.65000000000001</ele>
        <time>2025-04-23T05:23:03Z</time>
      </trkpt>
      <trkpt lat="50.050234962254763" lon="8.550002994015813">
        <ele>109.25</ele>
        <time>2025-04-23T05:23:05Z</time>
      </trkpt>
      <trkpt lat="50.050108982250094" lon="8.54995496571064">
        <ele>108.29000000000001</ele>
        <time>2025-04-23T05:23:06Z</time>
      </trkpt>
      <trkpt lat="50.049967998638749" lon="8.549934010952711">
        <ele>106.84</ele>
        <time>2025-04-23T05:23:07Z</time>
      </trkpt>
      <trkpt lat="50.049818968400359" lon="8.549926970154047">
        <ele>105.88</ele>
        <time>2025-04-23T05:23:08Z</time>
      </trkpt>
      <trkpt lat="50.04966801032424" lon="8.549919007346034">
        <ele>105.40000000000001</ele>
        <time>2025-04-23T05:23:09Z</time>
      </trkpt>
      <trkpt lat="50.049520991742611" lon="8.549844995141029">
        <ele>104.92</ele>
        <time>2025-04-23T05:23:10Z</time>
      </trkpt>
      <trkpt lat="50.049384031444788" lon="8.549712980166078">
        <ele>104.44</ele>
        <time>2025-04-23T05:23:11Z</time>
      </trkpt>
      <trkpt lat="50.049270037561655" lon="8.549541989341378">
        <ele>104.44</ele>
        <time>2025-04-23T05:23:12Z</time>
      </trkpt>
      <trkpt lat="50.048796040937304" lon="8.548355028033257">
        <ele>103.95999999999999</ele>
        <time>2025-04-23T05:23:17Z</time>
      </trkpt>
      <trkpt lat="50.048475014045835" lon="8.547239983454347">
        <ele>103.95999999999999</ele>
        <time>2025-04-23T05:23:21Z</time>
      </trkpt>
      <trkpt lat="50.048396978527308" lon="8.546962961554527">
        <ele>103.95999999999999</ele>
        <time>2025-04-23T05:23:22Z</time>
      </trkpt>
      <trkpt lat="50.047447979450226" lon="8.545151967555285">
        <ele>105.40000000000001</ele>
        <time>2025-04-23T05:23:30Z</time>
      </trkpt>
      <trkpt lat="50.046478025615215" lon="8.543214993551374">
        <ele>105.88</ele>
        <time>2025-04-23T05:23:38Z</time>
      </trkpt>
      <trkpt lat="50.045195007696748" lon="8.539966000244021">
        <ele>105.88</ele>
        <time>2025-04-23T05:23:49Z</time>
      </trkpt>
      <trkpt lat="50.044539961963892" lon="8.53835198096931">
        <ele>106.36</ele>
        <time>2025-04-23T05:23:54Z</time>
      </trkpt>
      <trkpt lat="50.042425040155649" lon="8.533079009503126">
        <ele>106.84</ele>
        <time>2025-04-23T05:24:10Z</time>
      </trkpt>
      <trkpt lat="50.040877992287278" lon="8.529199026525021">
        <ele>105.88</ele>
        <time>2025-04-23T05:24:21Z</time>
      </trkpt>
      <trkpt lat="50.038558971136808" lon="8.523401012644172">
        <ele>103</ele>
        <time>2025-04-23T05:24:36Z</time>
      </trkpt>
      <trkpt lat="50.036517977714539" lon="8.518285034224391">
        <ele>101.08</ele>
        <time>2025-04-23T05:24:49Z</time>
      </trkpt>
      <trkpt lat="50.035884976387024" lon="8.516712002456188">
        <ele>99.150000000000006</ele>
        <time>2025-04-23T05:24:53Z</time>
      </trkpt>
      <trkpt lat="50.034963972866535" lon="8.514347970485687">
        <ele>90.980000000000004</ele>
        <time>2025-04-23T05:24:59Z</time>
      </trkpt>
      <trkpt lat="50.033456990495324" lon="8.510621963068843">
        <ele>90.5</ele>
        <time>2025-04-23T05:25:08Z</time>
      </trkpt>
      <trkpt lat="50.032162992283702" lon="8.507385961711407">
        <ele>90.980000000000004</ele>
        <time>2025-04-23T05:25:19Z</time>
      </trkpt>
      <trkpt lat="50.0311079621315" lon="8.504785979166627">
        <ele>91.939999999999998</ele>
        <time>2025-04-23T05:25:27Z</time>
      </trkpt>
      <trkpt lat="50.02968798391521" lon="8.500540964305401">
        <ele>95.310000000000002</ele>
        <time>2025-04-23T05:25:38Z</time>
      </trkpt>
      <trkpt lat="50.028534969314933" lon="8.496716972440481">
        <ele>99.150000000000006</ele>
        <time>2025-04-23T05:25:49Z</time>
      </trkpt>
      <trkpt lat="50.028407983481884" lon="8.496375996619463">
        <ele>100.11</ele>
        <time>2025-04-23T05:25:50Z</time>
      </trkpt>
      <trkpt lat="50.027949996292591" lon="8.495442001149058">
        <ele>101.08</ele>
        <time>2025-04-23T05:25:52Z</time>
      </trkpt>
      <trkpt lat="50.027949996292591" lon="8.495442001149058">
        <ele>102.04000000000001</ele>
        <time>2025-04-23T05:25:53Z</time>
      </trkpt>
      <trkpt lat="50.02775302156806" lon="8.495191968977451">
        <ele>103</ele>
        <time>2025-04-23T05:25:54Z</time>
      </trkpt>
      <trkpt lat="50.027554035186768" lon="8.494939003139734">
        <ele>103.95999999999999</ele>
        <time>2025-04-23T05:25:55Z</time>
      </trkpt>
      <trkpt lat="50.027343984693289" lon="8.494691988453269">
        <ele>104.44</ele>
        <time>2025-04-23T05:25:56Z</time>
      </trkpt>
      <trkpt lat="50.027124965563416" lon="8.494486967101693">
        <ele>104.92</ele>
        <time>2025-04-23T05:25:57Z</time>
      </trkpt>
      <trkpt lat="50.026888009160757" lon="8.494312036782503">
        <ele>105.40000000000001</ele>
        <time>2025-04-23T05:25:58Z</time>
      </trkpt>
      <trkpt lat="50.026643006131053" lon="8.494185972958803">
        <ele>105.88</ele>
        <time>2025-04-23T05:25:59Z</time>
      </trkpt>
      <trkpt lat="50.026391968131065" lon="8.494080025702715">
        <ele>105.88</ele>
        <time>2025-04-23T05:26:00Z</time>
      </trkpt>
      <trkpt lat="50.026141013950109" lon="8.493993021547794">
        <ele>105.88</ele>
        <time>2025-04-23T05:26:01Z</time>
      </trkpt>
      <trkpt lat="50.025877989828587" lon="8.493953961879015">
        <ele>105.88</ele>
        <time>2025-04-23T05:26:02Z</time>
      </trkpt>
      <trkpt lat="50.025613037869334" lon="8.493947004899383">
        <ele>105.40000000000001</ele>
        <time>2025-04-23T05:26:03Z</time>
      </trkpt>
      <trkpt lat="50.025356970727444" lon="8.493992015719414">
        <ele>105.40000000000001</ele>
        <time>2025-04-23T05:26:04Z</time>
      </trkpt>
      <trkpt lat="50.025096964091063" lon="8.494037026539445">
        <ele>104.92</ele>
        <time>2025-04-23T05:26:05Z</time>
      </trkpt>
      <trkpt lat="50.024824971333146" lon="8.494086982682347">
        <ele>104.44</ele>
        <time>2025-04-23T05:26:06Z</time>
      </trkpt>
      <trkpt lat="50.024569993838668" lon="8.494226960465312">
        <ele>103.48</ele>
        <time>2025-04-23T05:26:07Z</time>
      </trkpt>
      <trkpt lat="50.024309987202287" lon="8.49437003955245">
        <ele>103</ele>
        <time>2025-04-23T05:26:08Z</time>
      </trkpt>
      <trkpt lat="50.02405802719295" lon="8.494567014276981">
        <ele>102.04000000000001</ele>
        <time>2025-04-23T05:26:09Z</time>
      </trkpt>
      <trkpt lat="50.023816963657737" lon="8.494791984558106">
        <ele>101.08</ele>
        <time>2025-04-23T05:26:10Z</time>
      </trkpt>
      <trkpt lat="50.022221971303225" lon="8.496072990819812">
        <ele>96.269999999999996</ele>
        <time>2025-04-23T05:26:17Z</time>
      </trkpt>
      <trkpt lat="50.020607030019164" lon="8.496704986318946">
        <ele>93.390000000000001</ele>
        <time>2025-04-23T05:26:24Z</time>
      </trkpt>
      <trkpt lat="50.018125986680388" lon="8.496732981875539">
        <ele>91.459999999999994</ele>
        <time>2025-04-23T05:26:32Z</time>
      </trkpt>
      <trkpt lat="50.015549976378679" lon="8.496037032455206">
        <ele>90.980000000000004</ele>
        <time>2025-04-23T05:26:42Z</time>
      </trkpt>
      <trkpt lat="50.013859011232853" lon="8.495216025039554">
        <ele>90.980000000000004</ele>
        <time>2025-04-23T05:26:48Z</time>
      </trkpt>
      <trkpt lat="50.011721039190888" lon="8.493733014911413">
        <ele>91.939999999999998</ele>
        <time>2025-04-23T05:26:57Z</time>
      </trkpt>
      <trkpt lat="50.009374022483826" lon="8.491394966840744">
        <ele>93.390000000000001</ele>
        <time>2025-04-23T05:27:07Z</time>
      </trkpt>
      <trkpt lat="50.007073022425175" lon="8.488129964098334">
        <ele>95.790000000000006</ele>
        <time>2025-04-23T05:27:18Z</time>
      </trkpt>
      <trkpt lat="50.005145017057657" lon="8.485000999644399">
        <ele>99.150000000000006</ele>
        <time>2025-04-23T05:27:28Z</time>
      </trkpt>
      <trkpt lat="50.002965973690152" lon="8.481382029131055">
        <ele>99.150000000000006</ele>
        <time>2025-04-23T05:27:40Z</time>
      </trkpt>
      <trkpt lat="50.000938978046179" lon="8.478192966431379">
        <ele>97.230000000000004</ele>
        <time>2025-04-23T05:27:52Z</time>
      </trkpt>
      <trkpt lat="49.998199017718434" lon="8.4747330006212">
        <ele>96.269999999999996</ele>
        <time>2025-04-23T05:28:04Z</time>
      </trkpt>
      <trkpt lat="49.995724009349942" lon="8.472137041389942">
        <ele>95.790000000000006</ele>
        <time>2025-04-23T05:28:14Z</time>
      </trkpt>
      <trkpt lat="49.992839964106679" lon="8.469781978055835">
        <ele>95.310000000000002</ele>
        <time>2025-04-23T05:28:25Z</time>
      </trkpt>
      <trkpt lat="49.990899972617626" lon="8.468454033136368">
        <ele>94.349999999999994</ele>
        <time>2025-04-23T05:28:34Z</time>
      </trkpt>
      <trkpt lat="49.987665982916951" lon="8.466754015535116">
        <ele>97.230000000000004</ele>
        <time>2025-04-23T05:28:46Z</time>
      </trkpt>
      <trkpt lat="49.985648039728403" lon="8.46598899923265">
        <ele>95.310000000000002</ele>
        <time>2025-04-23T05:28:56Z</time>
      </trkpt>
      <trkpt lat="49.983439994975924" lon="8.465372007340193">
        <ele>92.420000000000002</ele>
        <time>2025-04-23T05:29:06Z</time>
      </trkpt>
      <trkpt lat="49.98059400357306" lon="8.464963976293802">
        <ele>92.900000000000006</ele>
        <time>2025-04-23T05:29:19Z</time>
      </trkpt>
      <trkpt lat="49.978224020451307" lon="8.464922988787293">
        <ele>91.939999999999998</ele>
        <time>2025-04-23T05:29:31Z</time>
      </trkpt>
      <trkpt lat="49.977634018287063" lon="8.464960958808661">
        <ele>90.5</ele>
        <time>2025-04-23T05:29:34Z</time>
      </trkpt>
      <trkpt lat="49.974968992173672" lon="8.465291960164905">
        <ele>90.5</ele>
        <time>2025-04-23T05:29:48Z</time>
      </trkpt>
      <trkpt lat="49.972908971831203" lon="8.465824965387583">
        <ele>91.459999999999994</ele>
        <time>2025-04-23T05:29:58Z</time>
      </trkpt>
      <trkpt lat="49.971088003367186" lon="8.466402981430292">
        <ele>90.980000000000004</ele>
        <time>2025-04-23T05:30:05Z</time>
      </trkpt>
      <trkpt lat="49.967676987871528" lon="8.468049019575119">
        <ele>90.980000000000004</ele>
        <time>2025-04-23T05:30:17Z</time>
      </trkpt>
      <trkpt lat="49.964360017329454" lon="8.470153966918588">
        <ele>90.980000000000004</ele>
        <time>2025-04-23T05:30:29Z</time>
      </trkpt>
      <trkpt lat="49.961099959909916" lon="8.472421020269394">
        <ele>91.459999999999994</ele>
        <time>2025-04-23T05:30:41Z</time>
      </trkpt>
      <trkpt lat="49.958913959562778" lon="8.473872011527419">
        <ele>91.459999999999994</ele>
        <time>2025-04-23T05:30:49Z</time>
      </trkpt>
      <trkpt lat="49.95528400875628" lon="8.475884003564715">
        <ele>91.459999999999994</ele>
        <time>2025-04-23T05:31:02Z</time>
      </trkpt>
      <trkpt lat="49.952667010948062" lon="8.476810036227107">
        <ele>89.060000000000002</ele>
        <time>2025-04-23T05:31:10Z</time>
      </trkpt>
      <trkpt lat="49.950615037232637" lon="8.477277997881174">
        <ele>86.659999999999997</ele>
        <time>2025-04-23T05:31:18Z</time>
      </trkpt>
      <trkpt lat="49.947650022804737" lon="8.477501962333918">
        <ele>87.140000000000001</ele>
        <time>2025-04-23T05:31:28Z</time>
      </trkpt>
      <trkpt lat="49.944382002577186" lon="8.477586032822728">
        <ele>87.620000000000005</ele>
        <time>2025-04-23T05:31:39Z</time>
      </trkpt>
      <trkpt lat="49.941424028947949" lon="8.478197995573282">
        <ele>89.540000000000006</ele>
        <time>2025-04-23T05:31:49Z</time>
      </trkpt>
      <trkpt lat="49.938579965382814" lon="8.47956701181829">
        <ele>89.540000000000006</ele>
        <time>2025-04-23T05:31:59Z</time>
      </trkpt>
      <trkpt lat="49.935938995331526" lon="8.481677994132042">
        <ele>88.099999999999994</ele>
        <time>2025-04-23T05:32:08Z</time>
      </trkpt>
      <trkpt lat="49.933741008862853" lon="8.484038002789021">
        <ele>87.620000000000005</ele>
        <time>2025-04-23T05:32:18Z</time>
      </trkpt>
      <trkpt lat="49.931445959955454" lon="8.487642975524068">
        <ele>88.099999999999994</ele>
        <time>2025-04-23T05:32:28Z</time>
      </trkpt>
      <trkpt lat="49.929730016738176" lon="8.491392033174634">
        <ele>87.620000000000005</ele>
        <time>2025-04-23T05:32:38Z</time>
      </trkpt>
      <trkpt lat="49.927595984190702" lon="8.496944960206747">
        <ele>88.579999999999998</ele>
        <time>2025-04-23T05:32:52Z</time>
      </trkpt>
      <trkpt lat="49.926198972389102" lon="8.499948028475046">
        <ele>89.540000000000006</ele>
        <time>2025-04-23T05:33:00Z</time>
      </trkpt>
      <trkpt lat="49.924566010013223" lon="8.502584975212812">
        <ele>89.060000000000002</ele>
        <time>2025-04-23T05:33:08Z</time>
      </trkpt>
      <trkpt lat="49.922731965780258" lon="8.504887986928225">
        <ele>94.829999999999998</ele>
        <time>2025-04-23T05:33:17Z</time>
      </trkpt>
      <trkpt lat="49.919892009347677" lon="8.50743499584496">
        <ele>96.75</ele>
        <time>2025-04-23T05:33:27Z</time>
      </trkpt>
      <trkpt lat="49.917093040421605" lon="8.509021019563079">
        <ele>96.75</ele>
        <time>2025-04-23T05:33:37Z</time>
      </trkpt>
      <trkpt lat="49.914201032370329" lon="8.510061968117952">
        <ele>92.420000000000002</ele>
        <time>2025-04-23T05:33:47Z</time>
      </trkpt>
      <trkpt lat="49.910762021318078" lon="8.511503990739584">
        <ele>89.540000000000006</ele>
        <time>2025-04-23T05:33:59Z</time>
      </trkpt>
      <trkpt lat="49.908322971314192" lon="8.513196967542172">
        <ele>90.5</ele>
        <time>2025-04-23T05:34:09Z</time>
      </trkpt>
      <trkpt lat="49.905815022066236" lon="8.515631994232535">
        <ele>90.5</ele>
        <time>2025-04-23T05:34:18Z</time>
      </trkpt>
      <trkpt lat="49.904460003599524" lon="8.517419015988708">
        <ele>92.420000000000002</ele>
        <time>2025-04-23T05:34:25Z</time>
      </trkpt>
      <trkpt lat="49.902639035135508" lon="8.520468017086387">
        <ele>91.939999999999998</ele>
        <time>2025-04-23T05:34:34Z</time>
      </trkpt>
      <trkpt lat="49.901154013350606" lon="8.523906022310257">
        <ele>93.390000000000001</ele>
        <time>2025-04-23T05:34:43Z</time>
      </trkpt>
      <trkpt lat="49.899361040443182" lon="8.528687981888652">
        <ele>92.900000000000006</ele>
        <time>2025-04-23T05:34:55Z</time>
      </trkpt>
      <trkpt lat="49.897601008415222" lon="8.533392995595932">
        <ele>92.900000000000006</ele>
        <time>2025-04-23T05:35:07Z</time>
      </trkpt>
      <trkpt lat="49.895623968914151" lon="8.538632020354271">
        <ele>93.870000000000005</ele>
        <time>2025-04-23T05:35:22Z</time>
      </trkpt>
      <trkpt lat="49.89385899156332" lon="8.542807968333364">
        <ele>95.310000000000002</ele>
        <time>2025-04-23T05:35:34Z</time>
      </trkpt>
      <trkpt lat="49.891951018944383" lon="8.54655803181231">
        <ele>96.269999999999996</ele>
        <time>2025-04-23T05:35:45Z</time>
      </trkpt>
      <trkpt lat="49.889305019751191" lon="8.550907988101244">
        <ele>97.230000000000004</ele>
        <time>2025-04-23T05:35:57Z</time>
      </trkpt>
      <trkpt lat="49.886989016085863" lon="8.554493011906743">
        <ele>99.150000000000006</ele>
        <time>2025-04-23T05:36:09Z</time>
      </trkpt>
      <trkpt lat="49.884044034406543" lon="8.559056958183646">
        <ele>100.11</ele>
        <time>2025-04-23T05:36:23Z</time>
      </trkpt>
      <trkpt lat="49.881387976929545" lon="8.563408004119992">
        <ele>99.629999999999995</ele>
        <time>2025-04-23T05:36:36Z</time>
      </trkpt>
      <trkpt lat="49.879380008205771" lon="8.566788006573916">
        <ele>102.52</ele>
        <time>2025-04-23T05:36:45Z</time>
      </trkpt>
      <trkpt lat="49.877003990113735" lon="8.570893965661526">
        <ele>106.84</ele>
        <time>2025-04-23T05:36:58Z</time>
      </trkpt>
      <trkpt lat="49.875056035816669" lon="8.574313027784228">
        <ele>108.77</ele>
        <time>2025-04-23T05:37:07Z</time>
      </trkpt>
      <trkpt lat="49.873059969395399" lon="8.577887993305922">
        <ele>110.20999999999999</ele>
        <time>2025-04-23T05:37:19Z</time>
      </trkpt>
      <trkpt lat="49.871434969827533" lon="8.58095501549542">
        <ele>109.73</ele>
        <time>2025-04-23T05:37:30Z</time>
      </trkpt>
      <trkpt lat="49.869813993573189" lon="8.584237033501267">
        <ele>108.29000000000001</ele>
        <time>2025-04-23T05:37:42Z</time>
      </trkpt>
      <trkpt lat="49.868925008922815" lon="8.58606998808682">
        <ele>106.36</ele>
        <time>2025-04-23T05:37:49Z</time>
      </trkpt>
      <trkpt lat="49.867263967171311" lon="8.589079007506371">
        <ele>106.36</ele>
        <time>2025-04-23T05:37:58Z</time>
      </trkpt>
      <trkpt lat="49.865566967055202" lon="8.59144002199173">
        <ele>108.77</ele>
        <time>2025-04-23T05:38:07Z</time>
      </trkpt>
      <trkpt lat="49.863850018009543" lon="8.59328999184072">
        <ele>112.61</ele>
        <time>2025-04-23T05:38:15Z</time>
      </trkpt>
      <trkpt lat="49.862450994551182" lon="8.594463039189577">
        <ele>115.01000000000001</ele>
        <time>2025-04-23T05:38:22Z</time>
      </trkpt>
      <trkpt lat="49.859737018123269" lon="8.596698995679617">
        <ele>117.42</ele>
        <time>2025-04-23T05:38:37Z</time>
      </trkpt>
      <trkpt lat="49.856999991461635" lon="8.59932697378099">
        <ele>116.94</ele>
        <time>2025-04-23T05:38:52Z</time>
      </trkpt>
      <trkpt lat="49.854394979774952" lon="8.602287964895368">
        <ele>115.98</ele>
        <time>2025-04-23T05:39:06Z</time>
      </trkpt>
      <trkpt lat="49.852739972993731" lon="8.60443901270628">
        <ele>114.53</ele>
        <time>2025-04-23T05:39:14Z</time>
      </trkpt>
      <trkpt lat="49.850178966298699" lon="8.608270967379212">
        <ele>113.56999999999999</ele>
        <time>2025-04-23T05:39:26Z</time>
      </trkpt>
      <trkpt lat="49.847661964595318" lon="8.612809013575316">
        <ele>111.17</ele>
        <time>2025-04-23T05:39:39Z</time>
      </trkpt>
      <trkpt lat="49.846765017136931" lon="8.614642973989248">
        <ele>110.20999999999999</ele>
        <time>2025-04-23T05:39:45Z</time>
      </trkpt>
      <trkpt lat="49.846427980810404" lon="8.615359961986542">
        <ele>111.65000000000001</ele>
        <time>2025-04-23T05:39:46Z</time>
      </trkpt>
      <trkpt lat="49.844611035659909" lon="8.619606988504529">
        <ele>116.45999999999999</ele>
        <time>2025-04-23T05:39:57Z</time>
      </trkpt>
      <trkpt lat="49.842988969758153" lon="8.623441038653255">
        <ele>118.38</ele>
        <time>2025-04-23T05:40:07Z</time>
      </trkpt>
      <trkpt lat="49.84141300432384" lon="8.626778963953257">
        <ele>121.73999999999999</ele>
        <time>2025-04-23T05:40:17Z</time>
      </trkpt>
      <trkpt lat="49.839730001986027" lon="8.629401996731758">
        <ele>124.15000000000001</ele>
        <time>2025-04-23T05:40:25Z</time>
      </trkpt>
      <trkpt lat="49.837764026597142" lon="8.631495963782072">
        <ele>127.98999999999999</ele>
        <time>2025-04-23T05:40:33Z</time>
      </trkpt>
      <trkpt lat="49.835322964936495" lon="8.63316597416997">
        <ele>132.80000000000001</ele>
        <time>2025-04-23T05:40:42Z</time>
      </trkpt>
      <trkpt lat="49.832412013784051" lon="8.634056970477104">
        <ele>136.16</ele>
        <time>2025-04-23T05:40:51Z</time>
      </trkpt>
      <trkpt lat="49.830327015370131" lon="8.634120002388954">
        <ele>136.63999999999999</ele>
        <time>2025-04-23T05:40:59Z</time>
      </trkpt>
      <trkpt lat="49.827400976791978" lon="8.633334031328559">
        <ele>131.36000000000001</ele>
        <time>2025-04-23T05:41:08Z</time>
      </trkpt>
      <trkpt lat="49.824887998402119" lon="8.631927967071533">
        <ele>125.11</ele>
        <time>2025-04-23T05:41:17Z</time>
      </trkpt>
      <trkpt lat="49.821007009595633" lon="8.629649011418223">
        <ele>118.86</ele>
        <time>2025-04-23T05:41:31Z</time>
      </trkpt>
      <trkpt lat="49.81838003732264" lon="8.628794979304075">
        <ele>118.86</ele>
        <time>2025-04-23T05:41:41Z</time>
      </trkpt>
      <trkpt lat="49.815110005438328" lon="8.628516029566526">
        <ele>120.3</ele>
        <time>2025-04-23T05:41:51Z</time>
      </trkpt>
      <trkpt lat="49.811235973611474" lon="8.628673022612929">
        <ele>119.34</ele>
        <time>2025-04-23T05:42:04Z</time>
      </trkpt>
      <trkpt lat="49.808573964983225" lon="8.628314025700092">
        <ele>116.94</ele>
        <time>2025-04-23T05:42:14Z</time>
      </trkpt>
      <trkpt lat="49.80542303994298" lon="8.627012986689806">
        <ele>115.5</ele>
        <time>2025-04-23T05:42:24Z</time>
      </trkpt>
      <trkpt lat="49.802952976897359" lon="8.625453030690551">
        <ele>114.05</ele>
        <time>2025-04-23T05:42:33Z</time>
      </trkpt>
      <trkpt lat="49.798616012558341" lon="8.622406963258982">
        <ele>113.09</ele>
        <time>2025-04-23T05:42:49Z</time>
      </trkpt>
      <trkpt lat="49.795588972046971" lon="8.620470995083451">
        <ele>111.17</ele>
        <time>2025-04-23T05:43:00Z</time>
      </trkpt>
      <trkpt lat="49.792425977066159" lon="8.61922100186348">
        <ele>108.77</ele>
        <time>2025-04-23T05:43:11Z</time>
      </trkpt>
      <trkpt lat="49.789189975708723" lon="8.618473000824451">
        <ele>109.25</ele>
        <time>2025-04-23T05:43:22Z</time>
      </trkpt>
      <trkpt lat="49.785931007936597" lon="8.617947036400437">
        <ele>110.69</ele>
        <time>2025-04-23T05:43:33Z</time>
      </trkpt>
      <trkpt lat="49.782664999365807" lon="8.617327027022839">
        <ele>109.73</ele>
        <time>2025-04-23T05:43:45Z</time>
      </trkpt>
      <trkpt lat="49.779187012463808" lon="8.616126989945769">
        <ele>110.20999999999999</ele>
        <time>2025-04-23T05:43:56Z</time>
      </trkpt>
      <trkpt lat="49.776980979368091" lon="8.614810025319457">
        <ele>110.69</ele>
        <time>2025-04-23T05:44:04Z</time>
      </trkpt>
      <trkpt lat="49.774655001237988" lon="8.612847989425063">
        <ele>109.25</ele>
        <time>2025-04-23T05:44:14Z</time>
      </trkpt>
      <trkpt lat="49.77210396900773" lon="8.609680971130729">
        <ele>109.73</ele>
        <time>2025-04-23T05:44:24Z</time>
      </trkpt>
      <trkpt lat="49.769079023972154" lon="8.605249039828777">
        <ele>107.81</ele>
        <time>2025-04-23T05:44:38Z</time>
      </trkpt>
      <trkpt lat="49.76698899641633" lon="8.602645033970475">
        <ele>102.52</ele>
        <time>2025-04-23T05:44:47Z</time>
      </trkpt>
      <trkpt lat="49.764504013583064" lon="8.600082015618682">
        <ele>98.670000000000002</ele>
        <time>2025-04-23T05:44:57Z</time>
      </trkpt>
      <trkpt lat="49.761854996904731" lon="8.597941026091576">
        <ele>96.75</ele>
        <time>2025-04-23T05:45:07Z</time>
      </trkpt>
      <trkpt lat="49.758801972493529" lon="8.596098013222218">
        <ele>95.310000000000002</ele>
        <time>2025-04-23T05:45:18Z</time>
      </trkpt>
      <trkpt lat="49.756506001576781" lon="8.595041977241635">
        <ele>95.310000000000002</ele>
        <time>2025-04-23T05:45:26Z</time>
      </trkpt>
      <trkpt lat="49.753036983311176" lon="8.593855015933514">
        <ele>94.829999999999998</ele>
        <time>2025-04-23T05:45:38Z</time>
      </trkpt>
      <trkpt lat="49.750986015424132" lon="8.593300972133875">
        <ele>92.900000000000006</ele>
        <time>2025-04-23T05:45:45Z</time>
      </trkpt>
      <trkpt lat="49.74833901040256" lon="8.59266797080636">
        <ele>93.390000000000001</ele>
        <time>2025-04-23T05:45:54Z</time>
      </trkpt>
      <trkpt lat="49.744200026616454" lon="8.591989958658814">
        <ele>91.939999999999998</ele>
        <time>2025-04-23T05:46:08Z</time>
      </trkpt>
      <trkpt lat="49.740935023874044" lon="8.59169902279973">
        <ele>92.900000000000006</ele>
        <time>2025-04-23T05:46:19Z</time>
      </trkpt>
      <trkpt lat="49.73648096434772" lon="8.59161302447319">
        <ele>88.579999999999998</ele>
        <time>2025-04-23T05:46:34Z</time>
      </trkpt>
      <trkpt lat="49.733210010454059" lon="8.591796001419425">
        <ele>88.579999999999998</ele>
        <time>2025-04-23T05:46:45Z</time>
      </trkpt>
      <trkpt lat="49.72964895889163" lon="8.592213001102209">
        <ele>89.060000000000002</ele>
        <time>2025-04-23T05:46:57Z</time>
      </trkpt>
      <trkpt lat="49.726682016626" lon="8.592742988839746">
        <ele>90.019999999999996</ele>
        <time>2025-04-23T05:47:07Z</time>
      </trkpt>
      <trkpt lat="49.723432017490268" lon="8.593498030677438">
        <ele>91.939999999999998</ele>
        <time>2025-04-23T05:47:18Z</time>
      </trkpt>
      <trkpt lat="49.720510002225637" lon="8.594281990081072">
        <ele>93.390000000000001</ele>
        <time>2025-04-23T05:47:29Z</time>
      </trkpt>
      <trkpt lat="49.716404965147376" lon="8.595510022714734">
        <ele>93.390000000000001</ele>
        <time>2025-04-23T05:47:42Z</time>
      </trkpt>
      <trkpt lat="49.7129119746387" lon="8.596667982637882">
        <ele>94.349999999999994</ele>
        <time>2025-04-23T05:47:54Z</time>
      </trkpt>
      <trkpt lat="49.709441028535366" lon="8.597927028313279">
        <ele>94.829999999999998</ele>
        <time>2025-04-23T05:48:06Z</time>
      </trkpt>
      <trkpt lat="49.706772984936833" lon="8.598981974646449">
        <ele>94.829999999999998</ele>
        <time>2025-04-23T05:48:16Z</time>
      </trkpt>
      <trkpt lat="49.704089015722275" lon="8.600084027275443">
        <ele>90.980000000000004</ele>
        <time>2025-04-23T05:48:26Z</time>
      </trkpt>
      <trkpt lat="49.701145039871335" lon="8.601319016888738">
        <ele>90.5</ele>
        <time>2025-04-23T05:48:38Z</time>
      </trkpt>
      <trkpt lat="49.698551008477807" lon="8.602287964895368">
        <ele>93.390000000000001</ele>
        <time>2025-04-23T05:48:49Z</time>
      </trkpt>
      <trkpt lat="49.695324981585145" lon="8.602953990921378">
        <ele>94.349999999999994</ele>
        <time>2025-04-23T05:49:01Z</time>
      </trkpt>
      <trkpt lat="49.692319985479116" lon="8.602942004799843">
        <ele>94.349999999999994</ele>
        <time>2025-04-23T05:49:11Z</time>
      </trkpt>
      <trkpt lat="49.689419008791447" lon="8.602395001798868">
        <ele>93.870000000000005</ele>
        <time>2025-04-23T05:49:21Z</time>
      </trkpt>
      <trkpt lat="49.685656959190965" lon="8.601013999432325">
        <ele>94.349999999999994</ele>
        <time>2025-04-23T05:49:34Z</time>
      </trkpt>
      <trkpt lat="49.682469991967082" lon="8.5998859629035">
        <ele>92.900000000000006</ele>
        <time>2025-04-23T05:49:45Z</time>
      </trkpt>
      <trkpt lat="49.67982399277389" lon="8.599337032064796">
        <ele>93.870000000000005</ele>
        <time>2025-04-23T05:49:54Z</time>
      </trkpt>
      <trkpt lat="49.676844980567694" lon="8.599272994324565">
        <ele>95.310000000000002</ele>
        <time>2025-04-23T05:50:04Z</time>
      </trkpt>
      <trkpt lat="49.673273032531142" lon="8.59990700148046">
        <ele>98.189999999999998</ele>
        <time>2025-04-23T05:50:16Z</time>
      </trkpt>
      <trkpt lat="49.670094028115273" lon="8.601034032180905">
        <ele>100.11</ele>
        <time>2025-04-23T05:50:27Z</time>
      </trkpt>
      <trkpt lat="49.66671603731811" lon="8.602804038673639">
        <ele>100.11</ele>
        <time>2025-04-23T05:50:39Z</time>
      </trkpt>
      <trkpt lat="49.663150040432811" lon="8.605089029297233">
        <ele>97.709999999999994</ele>
        <time>2025-04-23T05:50:52Z</time>
      </trkpt>
      <trkpt lat="49.660128029063344" lon="8.60701703466475">
        <ele>97.230000000000004</ele>
        <time>2025-04-23T05:51:03Z</time>
      </trkpt>
      <trkpt lat="49.657018007710576" lon="8.608568022027612">
        <ele>98.189999999999998</ele>
        <time>2025-04-23T05:51:14Z</time>
      </trkpt>
      <trkpt lat="49.654079983010888" lon="8.60940202139318">
        <ele>99.150000000000006</ele>
        <time>2025-04-23T05:51:24Z</time>
      </trkpt>
      <trkpt lat="49.651122009381652" lon="8.609629003331065">
        <ele>98.189999999999998</ele>
        <time>2025-04-23T05:51:34Z</time>
      </trkpt>
      <trkpt lat="49.646375002339482" lon="8.609425993636251">
        <ele>97.709999999999994</ele>
        <time>2025-04-23T05:51:51Z</time>
      </trkpt>
      <trkpt lat="49.64310597628355" lon="8.609269000589848">
        <ele>97.709999999999994</ele>
        <time>2025-04-23T05:52:01Z</time>
      </trkpt>
      <trkpt lat="49.639236973598599" lon="8.60951098613441">
        <ele>98.670000000000002</ele>
        <time>2025-04-23T05:52:15Z</time>
      </trkpt>
      <trkpt lat="49.635696038603783" lon="8.610350014641881">
        <ele>97.709999999999994</ele>
        <time>2025-04-23T05:52:27Z</time>
      </trkpt>
      <trkpt lat="49.631969025358558" lon="8.61189597286284">
        <ele>98.189999999999998</ele>
        <time>2025-04-23T05:52:40Z</time>
      </trkpt>
      <trkpt lat="49.628914995118976" lon="8.61367997713387">
        <ele>99.150000000000006</ele>
        <time>2025-04-23T05:52:50Z</time>
      </trkpt>
      <trkpt lat="49.625720987096429" lon="8.616162026301026">
        <ele>98.189999999999998</ele>
        <time>2025-04-23T05:53:02Z</time>
      </trkpt>
      <trkpt lat="49.623161992058158" lon="8.618480041623116">
        <ele>99.629999999999995</ele>
        <time>2025-04-23T05:53:12Z</time>
      </trkpt>
      <trkpt lat="49.620399987325072" lon="8.621189994737506">
        <ele>102.52</ele>
        <time>2025-04-23T05:53:23Z</time>
      </trkpt>
      <trkpt lat="49.617055021226406" lon="8.624170012772083">
        <ele>103</ele>
        <time>2025-04-23T05:53:36Z</time>
      </trkpt>
      <trkpt lat="49.613558007404208" lon="8.626682991161943">
        <ele>103.48</ele>
        <time>2025-04-23T05:53:50Z</time>
      </trkpt>
      <trkpt lat="49.610170964151621" lon="8.628437994047999">
        <ele>103.95999999999999</ele>
        <time>2025-04-23T05:54:01Z</time>
      </trkpt>
      <trkpt lat="49.606983996927738" lon="8.629631996154785">
        <ele>104.92</ele>
        <time>2025-04-23T05:54:12Z</time>
      </trkpt>
      <trkpt lat="49.603158999234438" lon="8.630519974976778">
        <ele>103</ele>
        <time>2025-04-23T05:54:25Z</time>
      </trkpt>
      <trkpt lat="49.599297037348151" lon="8.630739999935031">
        <ele>99.629999999999995</ele>
        <time>2025-04-23T05:54:38Z</time>
      </trkpt>
      <trkpt lat="49.594841971993446" lon="8.631169991567731">
        <ele>96.269999999999996</ele>
        <time>2025-04-23T05:54:54Z</time>
      </trkpt>
      <trkpt lat="49.591912999749184" lon="8.631863007321954">
        <ele>94.349999999999994</ele>
        <time>2025-04-23T05:55:03Z</time>
      </trkpt>
      <trkpt lat="49.58812496624887" lon="8.633121969178319">
        <ele>94.829999999999998</ele>
        <time>2025-04-23T05:55:16Z</time>
      </trkpt>
      <trkpt lat="49.584332993254066" lon="8.634319994598627">
        <ele>97.709999999999994</ele>
        <time>2025-04-23T05:55:30Z</time>
      </trkpt>
      <trkpt lat="49.58049600943923" lon="8.635072018951178">
        <ele>98.670000000000002</ele>
        <time>2025-04-23T05:55:42Z</time>
      </trkpt>
      <trkpt lat="49.57723100669682" lon="8.635189030319452">
        <ele>99.150000000000006</ele>
        <time>2025-04-23T05:55:53Z</time>
      </trkpt>
      <trkpt lat="49.573673978447914" lon="8.634785022586584">
        <ele>102.52</ele>
        <time>2025-04-23T05:56:05Z</time>
      </trkpt>
      <trkpt lat="49.570157015696168" lon="8.633824959397316">
        <ele>103</ele>
        <time>2025-04-23T05:56:17Z</time>
      </trkpt>
      <trkpt lat="49.56833797506988" lon="8.633145019412041">
        <ele>103</ele>
        <time>2025-04-23T05:56:24Z</time>
      </trkpt>
      <trkpt lat="49.565074983984232" lon="8.631586991250515">
        <ele>102.52</ele>
        <time>2025-04-23T05:56:39Z</time>
      </trkpt>
      <trkpt lat="49.562321025878191" lon="8.630233984440565">
        <ele>100.59999999999999</ele>
        <time>2025-04-23T05:56:52Z</time>
      </trkpt>
      <trkpt lat="49.559804024174809" lon="8.629155987873673">
        <ele>100.59999999999999</ele>
        <time>2025-04-23T05:57:05Z</time>
      </trkpt>
      <trkpt lat="49.557235976681113" lon="8.628296004608274">
        <ele>101.56</ele>
        <time>2025-04-23T05:57:18Z</time>
      </trkpt>
      <trkpt lat="49.555061962455511" lon="8.627809016034007">
        <ele>101.08</ele>
        <time>2025-04-23T05:57:29Z</time>
      </trkpt>
      <trkpt lat="49.553748015314341" lon="8.627594020217657">
        <ele>100.11</ele>
        <time>2025-04-23T05:57:38Z</time>
      </trkpt>
      <trkpt lat="49.551721019670367" lon="8.627456976100802">
        <ele>101.56</ele>
        <time>2025-04-23T05:57:47Z</time>
      </trkpt>
      <trkpt lat="49.549379032105207" lon="8.627497041597962">
        <ele>104.92</ele>
        <time>2025-04-23T05:57:59Z</time>
      </trkpt>
      <trkpt lat="49.547266960144043" lon="8.627742966637015">
        <ele>106.36</ele>
        <time>2025-04-23T05:58:10Z</time>
      </trkpt>
      <trkpt lat="49.545751009136438" lon="8.627991992980242">
        <ele>106.36</ele>
        <time>2025-04-23T05:58:18Z</time>
      </trkpt>
      <trkpt lat="49.543359987437725" lon="8.628562968224287">
        <ele>105.88</ele>
        <time>2025-04-23T05:58:29Z</time>
      </trkpt>
      <trkpt lat="49.54019196331501" lon="8.629590002819896">
        <ele>104.92</ele>
        <time>2025-04-23T05:58:43Z</time>
      </trkpt>
      <trkpt lat="49.537238012999296" lon="8.630723990499973">
        <ele>103</ele>
        <time>2025-04-23T05:58:56Z</time>
      </trkpt>
      <trkpt lat="49.535187967121601" lon="8.631593026220799">
        <ele>101.56</ele>
        <time>2025-04-23T05:59:05Z</time>
      </trkpt>
      <trkpt lat="49.529722966253757" lon="8.633978012949228">
        <ele>101.08</ele>
        <time>2025-04-23T05:59:24Z</time>
      </trkpt>
      <trkpt lat="49.52570996247232" lon="8.635609969496727">
        <ele>105.88</ele>
        <time>2025-04-23T05:59:38Z</time>
      </trkpt>
      <trkpt lat="49.520765980705619" lon="8.637262964621186">
        <ele>110.20999999999999</ele>
        <time>2025-04-23T05:59:54Z</time>
      </trkpt>
      <trkpt lat="49.516070019453764" lon="8.638435006141663">
        <ele>112.13</ele>
        <time>2025-04-23T06:00:11Z</time>
      </trkpt>
      <trkpt lat="49.511032998561859" lon="8.639279985800386">
        <ele>108.77</ele>
        <time>2025-04-23T06:00:28Z</time>
      </trkpt>
      <trkpt lat="49.507176987826824" lon="8.639600006863475">
        <ele>103.95999999999999</ele>
        <time>2025-04-23T06:00:40Z</time>
      </trkpt>
      <trkpt lat="49.503604033961892" lon="8.639688016846776">
        <ele>101.56</ele>
        <time>2025-04-23T06:00:53Z</time>
      </trkpt>
      <trkpt lat="49.499430013820529" lon="8.639506967738271">
        <ele>103.48</ele>
        <time>2025-04-23T06:01:07Z</time>
      </trkpt>
      <trkpt lat="49.496243968605995" lon="8.639208991080523">
        <ele>106.36</ele>
        <time>2025-04-23T06:01:18Z</time>
      </trkpt>
      <trkpt lat="49.493782036006451" lon="8.638977985829115">
        <ele>107.31999999999999</ele>
        <time>2025-04-23T06:01:27Z</time>
      </trkpt>
      <trkpt lat="49.489655960351229" lon="8.638701969757676">
        <ele>108.77</ele>
        <time>2025-04-23T06:01:40Z</time>
      </trkpt>
      <trkpt lat="49.487328976392746" lon="8.63864497281611">
        <ele>110.20999999999999</ele>
        <time>2025-04-23T06:01:49Z</time>
      </trkpt>
      <trkpt lat="49.484368991106749" lon="8.638788973912597">
        <ele>108.29000000000001</ele>
        <time>2025-04-23T06:01:59Z</time>
      </trkpt>
      <trkpt lat="49.480816991999745" lon="8.63931099884212">
        <ele>109.73</ele>
        <time>2025-04-23T06:02:10Z</time>
      </trkpt>
      <trkpt lat="49.477901011705399" lon="8.640037039294839">
        <ele>109.25</ele>
        <time>2025-04-23T06:02:21Z</time>
      </trkpt>
      <trkpt lat="49.475893964990973" lon="8.640670040622354">
        <ele>109.73</ele>
        <time>2025-04-23T06:02:29Z</time>
      </trkpt>
      <trkpt lat="49.472957029938698" lon="8.641717024147511">
        <ele>105.88</ele>
        <time>2025-04-23T06:02:39Z</time>
      </trkpt>
      <trkpt lat="49.470533989369869" lon="8.642620006576181">
        <ele>104.44</ele>
        <time>2025-04-23T06:02:49Z</time>
      </trkpt>
      <trkpt lat="49.467652039602399" lon="8.643670007586479">
        <ele>103.95999999999999</ele>
        <time>2025-04-23T06:03:02Z</time>
      </trkpt>
      <trkpt lat="49.46576502174139" lon="8.644310971722007">
        <ele>103.48</ele>
        <time>2025-04-23T06:03:11Z</time>
      </trkpt>
      <trkpt lat="49.463673988357186" lon="8.644994013011456">
        <ele>104.92</ele>
        <time>2025-04-23T06:03:21Z</time>
      </trkpt>
      <trkpt lat="49.461629977449775" lon="8.645577980205417">
        <ele>106.36</ele>
        <time>2025-04-23T06:03:32Z</time>
      </trkpt>
      <trkpt lat="49.459919985383749" lon="8.64599296823144">
        <ele>106.36</ele>
        <time>2025-04-23T06:03:43Z</time>
      </trkpt>
      <trkpt lat="49.45663302205503" lon="8.646493032574654">
        <ele>106.36</ele>
        <time>2025-04-23T06:03:59Z</time>
      </trkpt>
      <trkpt lat="49.453659038990736" lon="8.646640973165631">
        <ele>105.40000000000001</ele>
        <time>2025-04-23T06:04:13Z</time>
      </trkpt>
      <trkpt lat="49.450986972078681" lon="8.646519016474485">
        <ele>106.36</ele>
        <time>2025-04-23T06:04:25Z</time>
      </trkpt>
      <trkpt lat="49.447908969596028" lon="8.645976958796382">
        <ele>108.29000000000001</ele>
        <time>2025-04-23T06:04:37Z</time>
      </trkpt>
      <trkpt lat="49.444484962150455" lon="8.64498202688992">
        <ele>112.61</ele>
        <time>2025-04-23T06:04:50Z</time>
      </trkpt>
      <trkpt lat="49.44170200265944" lon="8.643803028389812">
        <ele>114.53</ele>
        <time>2025-04-23T06:05:00Z</time>
      </trkpt>
      <trkpt lat="49.438763977959752" lon="8.642185991629958">
        <ele>115.98</ele>
        <time>2025-04-23T06:05:13Z</time>
      </trkpt>
      <trkpt lat="49.436605973169208" lon="8.640770958736539">
        <ele>116.45999999999999</ele>
        <time>2025-04-23T06:05:24Z</time>
      </trkpt>
      <trkpt lat="49.433647999539971" lon="8.638738011941314">
        <ele>112.13</ele>
        <time>2025-04-23T06:05:38Z</time>
      </trkpt>
      <trkpt lat="49.43149896338582" lon="8.637336976826191">
        <ele>110.69</ele>
        <time>2025-04-23T06:05:49Z</time>
      </trkpt>
      <trkpt lat="49.428957989439368" lon="8.635924961417913">
        <ele>105.40000000000001</ele>
        <time>2025-04-23T06:06:02Z</time>
      </trkpt>
      <trkpt lat="49.426049971953034" lon="8.634684020653367">
        <ele>104.44</ele>
        <time>2025-04-23T06:06:15Z</time>
      </trkpt>
      <trkpt lat="49.423586027696729" lon="8.634009025990963">
        <ele>106.36</ele>
        <time>2025-04-23T06:06:25Z</time>
      </trkpt>
      <trkpt lat="49.42066996358335" lon="8.6335529666394">
        <ele>109.73</ele>
        <time>2025-04-23T06:06:36Z</time>
      </trkpt>
      <trkpt lat="49.417372019961476" lon="8.633527988567948">
        <ele>114.05</ele>
        <time>2025-04-23T06:06:50Z</time>
      </trkpt>
      <trkpt lat="49.413994029164314" lon="8.634042972698808">
        <ele>115.5</ele>
        <time>2025-04-23T06:07:03Z</time>
      </trkpt>
      <trkpt lat="49.4104840233922" lon="8.635138990357518">
        <ele>110.69</ele>
        <time>2025-04-23T06:07:16Z</time>
      </trkpt>
      <trkpt lat="49.407168980687857" lon="8.636403987184167">
        <ele>105.40000000000001</ele>
        <time>2025-04-23T06:07:31Z</time>
      </trkpt>
      <trkpt lat="49.405726036056876" lon="8.636781005188823">
        <ele>105.88</ele>
        <time>2025-04-23T06:07:37Z</time>
      </trkpt>
      <trkpt lat="49.402303034439683" lon="8.63727000541985">
        <ele>106.36</ele>
        <time>2025-04-23T06:07:50Z</time>
      </trkpt>
      <trkpt lat="49.398664031177759" lon="8.637746013700962">
        <ele>110.20999999999999</ele>
        <time>2025-04-23T06:08:05Z</time>
      </trkpt>
      <trkpt lat="49.395031984895468" lon="8.638230990618467">
        <ele>111.17</ele>
        <time>2025-04-23T06:08:20Z</time>
      </trkpt>
      <trkpt lat="49.39301697537303" lon="8.638489991426468">
        <ele>104.44</ele>
        <time>2025-04-23T06:08:28Z</time>
      </trkpt>
      <trkpt lat="49.389931010082364" lon="8.638772964477539">
        <ele>103.95999999999999</ele>
        <time>2025-04-23T06:08:40Z</time>
      </trkpt>
      <trkpt lat="49.387253997847438" lon="8.638464007526636">
        <ele>107.31999999999999</ele>
        <time>2025-04-23T06:08:51Z</time>
      </trkpt>
      <trkpt lat="49.384497022256255" lon="8.637521965429187">
        <ele>108.29000000000001</ele>
        <time>2025-04-23T06:09:03Z</time>
      </trkpt>
      <trkpt lat="49.382191998884082" lon="8.636243976652622">
        <ele>107.81</ele>
        <time>2025-04-23T06:09:13Z</time>
      </trkpt>
      <trkpt lat="49.379664016887546" lon="8.634799020364881">
        <ele>107.81</ele>
        <time>2025-04-23T06:09:24Z</time>
      </trkpt>
      <trkpt lat="49.377063028514385" lon="8.633426986634731">
        <ele>111.65000000000001</ele>
        <time>2025-04-23T06:09:35Z</time>
      </trkpt>
      <trkpt lat="49.374283002689481" lon="8.632605979219079">
        <ele>115.98</ele>
        <time>2025-04-23T06:09:46Z</time>
      </trkpt>
      <trkpt lat="49.371238024905324" lon="8.632312025874853">
        <ele>114.05</ele>
        <time>2025-04-23T06:09:59Z</time>
      </trkpt>
      <trkpt lat="49.37073603272438" lon="8.63228403031826">
        <ele>113.09</ele>
        <time>2025-04-23T06:10:01Z</time>
      </trkpt>
      <trkpt lat="49.370498992502689" lon="8.632271038368344">
        <ele>112.61</ele>
        <time>2025-04-23T06:10:02Z</time>
      </trkpt>
      <trkpt lat="49.365952983498573" lon="8.63200600259006">
        <ele>110.69</ele>
        <time>2025-04-23T06:10:20Z</time>
      </trkpt>
      <trkpt lat="49.361865967512131" lon="8.631800981238484">
        <ele>108.77</ele>
        <time>2025-04-23T06:10:36Z</time>
      </trkpt>
      <trkpt lat="49.358024960383773" lon="8.631595959886909">
        <ele>108.77</ele>
        <time>2025-04-23T06:10:49Z</time>
      </trkpt>
      <trkpt lat="49.355047037824988" lon="8.631437039002776">
        <ele>108.77</ele>
        <time>2025-04-23T06:10:59Z</time>
      </trkpt>
      <trkpt lat="49.352163998410106" lon="8.631279962137342">
        <ele>106.36</ele>
        <time>2025-04-23T06:11:09Z</time>
      </trkpt>
      <trkpt lat="49.346817014738917" lon="8.630993971601129">
        <ele>111.65000000000001</ele>
        <time>2025-04-23T06:11:28Z</time>
      </trkpt>
      <trkpt lat="49.341741017997265" lon="8.630723990499973">
        <ele>109.25</ele>
        <time>2025-04-23T06:11:44Z</time>
      </trkpt>
      <trkpt lat="49.337876038625836" lon="8.630526009947062">
        <ele>105.40000000000001</ele>
        <time>2025-04-23T06:11:57Z</time>
      </trkpt>
      <trkpt lat="49.335189973935485" lon="8.63037496805191">
        <ele>102.52</ele>
        <time>2025-04-23T06:12:06Z</time>
      </trkpt>
      <trkpt lat="49.330740021541715" lon="8.630152009427548">
        <ele>104.92</ele>
        <time>2025-04-23T06:12:21Z</time>
      </trkpt>
      <trkpt lat="49.326577987521887" lon="8.629942964762449">
        <ele>106.84</ele>
        <time>2025-04-23T06:12:35Z</time>
      </trkpt>
      <trkpt lat="49.321824023500085" lon="8.629667032510042">
        <ele>106.84</ele>
        <time>2025-04-23T06:12:58Z</time>
      </trkpt>
      <trkpt lat="49.31438097730279" lon="8.629261013120413">
        <ele>105.88</ele>
        <time>2025-04-23T06:13:16Z</time>
      </trkpt>
      <trkpt lat="49.311126032844186" lon="8.628820963203907">
        <ele>106.36</ele>
        <time>2025-04-23T06:13:27Z</time>
      </trkpt>
      <trkpt lat="49.307982986792922" lon="8.628119984641671">
        <ele>106.36</ele>
        <time>2025-04-23T06:13:38Z</time>
      </trkpt>
      <trkpt lat="49.305159039795399" lon="8.627445995807648">
        <ele>105.40000000000001</ele>
        <time>2025-04-23T06:13:50Z</time>
      </trkpt>
      <trkpt lat="49.301706030964851" lon="8.626638986170292">
        <ele>106.84</ele>
        <time>2025-04-23T06:14:02Z</time>
      </trkpt>
      <trkpt lat="49.298812011256814" lon="8.625956028699875">
        <ele>109.25</ele>
        <time>2025-04-23T06:14:13Z</time>
      </trkpt>
      <trkpt lat="49.294446967542171" lon="8.624911978840828">
        <ele>109.73</ele>
        <time>2025-04-23T06:14:29Z</time>
      </trkpt>
      <trkpt lat="49.291502991691232" lon="8.624189961701632">
        <ele>105.88</ele>
        <time>2025-04-23T06:14:46Z</time>
      </trkpt>
      <trkpt lat="49.286228008568287" lon="8.622726984322071">
        <ele>110.20999999999999</ele>
        <time>2025-04-23T06:15:05Z</time>
      </trkpt>
      <trkpt lat="49.279389968141913" lon="8.619635989889503">
        <ele>113.56999999999999</ele>
        <time>2025-04-23T06:15:21Z</time>
      </trkpt>
      <trkpt lat="49.276082972064614" lon="8.617591978982091">
        <ele>113.09</ele>
        <time>2025-04-23T06:15:33Z</time>
      </trkpt>
      <trkpt lat="49.273144025355577" lon="8.61541997641325">
        <ele>111.65000000000001</ele>
        <time>2025-04-23T06:15:52Z</time>
      </trkpt>
      <trkpt lat="49.264751980081201" lon="8.608481017872691">
        <ele>115.98</ele>
        <time>2025-04-23T06:16:16Z</time>
      </trkpt>
      <trkpt lat="49.262401023879647" lon="8.606517976149917">
        <ele>114.05</ele>
        <time>2025-04-23T06:16:25Z</time>
      </trkpt>
      <trkpt lat="49.259511027485132" lon="8.604123014956713">
        <ele>115.01000000000001</ele>
        <time>2025-04-23T06:16:37Z</time>
      </trkpt>
      <trkpt lat="49.25899101421237" lon="8.603700986132026">
        <ele>115.01000000000001</ele>
        <time>2025-04-23T06:16:39Z</time>
      </trkpt>
      <trkpt lat="49.25544798374176" lon="8.601385988295078">
        <ele>114.53</ele>
        <time>2025-04-23T06:16:51Z</time>
      </trkpt>
      <trkpt lat="49.252838026732206" lon="8.600474959239364">
        <ele>114.05</ele>
        <time>2025-04-23T06:17:00Z</time>
      </trkpt>
      <trkpt lat="49.249858008697629" lon="8.600172037258744">
        <ele>116.45999999999999</ele>
        <time>2025-04-23T06:17:11Z</time>
      </trkpt>
      <trkpt lat="49.246585965156555" lon="8.600517958402634">
        <ele>114.05</ele>
        <time>2025-04-23T06:17:21Z</time>
      </trkpt>
      <trkpt lat="49.243324985727668" lon="8.600966976955533">
        <ele>112.61</ele>
        <time>2025-04-23T06:17:32Z</time>
      </trkpt>
      <trkpt lat="49.238575967028737" lon="8.601593021303415">
        <ele>112.61</ele>
        <time>2025-04-23T06:17:48Z</time>
      </trkpt>
      <trkpt lat="49.232948021963239" lon="8.602339010685682">
        <ele>111.17</ele>
        <time>2025-04-23T06:18:07Z</time>
      </trkpt>
      <trkpt lat="49.230058025568724" lon="8.602729020640254">
        <ele>110.20999999999999</ele>
        <time>2025-04-23T06:18:17Z</time>
      </trkpt>
      <trkpt lat="49.227127963677049" lon="8.603098997846246">
        <ele>110.69</ele>
        <time>2025-04-23T06:18:29Z</time>
      </trkpt>
      <trkpt lat="49.22569097019732" lon="8.603298990055919">
        <ele>110.20999999999999</ele>
        <time>2025-04-23T06:18:35Z</time>
      </trkpt>
      <trkpt lat="49.222922008484602" lon="8.603667039424181">
        <ele>109.73</ele>
        <time>2025-04-23T06:18:46Z</time>
      </trkpt>
      <trkpt lat="49.219755996018648" lon="8.603714983910322">
        <ele>108.77</ele>
        <time>2025-04-23T06:18:58Z</time>
      </trkpt>
      <trkpt lat="49.217220973223448" lon="8.603174015879631">
        <ele>108.29000000000001</ele>
        <time>2025-04-23T06:19:07Z</time>
      </trkpt>
      <trkpt lat="49.214654015377164" lon="8.602001974359155">
        <ele>107.81</ele>
        <time>2025-04-23T06:19:16Z</time>
      </trkpt>
      <trkpt lat="49.211910031735897" lon="8.600231967866421">
        <ele>107.81</ele>
        <time>2025-04-23T06:19:26Z</time>
      </trkpt>
      <trkpt lat="49.208633964881301" lon="8.598127020522952">
        <ele>112.13</ele>
        <time>2025-04-23T06:19:38Z</time>
      </trkpt>
      <trkpt lat="49.20424503274262" lon="8.59526501968503">
        <ele>114.05</ele>
        <time>2025-04-23T06:19:54Z</time>
      </trkpt>
      <trkpt lat="49.20068196952343" lon="8.592894030734897">
        <ele>111.65000000000001</ele>
        <time>2025-04-23T06:20:07Z</time>
      </trkpt>
      <trkpt lat="49.197701029479504" lon="8.590858988463879">
        <ele>110.20999999999999</ele>
        <time>2025-04-23T06:20:18Z</time>
      </trkpt>
      <trkpt lat="49.194439966231585" lon="8.588651027530432">
        <ele>113.09</ele>
        <time>2025-04-23T06:20:30Z</time>
      </trkpt>
      <trkpt lat="49.191191978752613" lon="8.586426973342896">
        <ele>117.42</ele>
        <time>2025-04-23T06:20:42Z</time>
      </trkpt>
      <trkpt lat="49.188201986253262" lon="8.584381034597755">
        <ele>116.45999999999999</ele>
        <time>2025-04-23T06:20:54Z</time>
      </trkpt>
      <trkpt lat="49.184656022116542" lon="8.581961011514068">
        <ele>114.05</ele>
        <time>2025-04-23T06:21:06Z</time>
      </trkpt>
      <trkpt lat="49.181651026010513" lon="8.579944996163249">
        <ele>111.65000000000001</ele>
        <time>2025-04-23T06:21:17Z</time>
      </trkpt>
      <trkpt lat="49.178897989913821" lon="8.578258976340294">
        <ele>113.56999999999999</ele>
        <time>2025-04-23T06:21:28Z</time>
      </trkpt>
      <trkpt lat="49.175829039886594" lon="8.57655200175941">
        <ele>111.65000000000001</ele>
        <time>2025-04-23T06:21:38Z</time>
      </trkpt>
      <trkpt lat="49.17274902574718" lon="8.57485399581492">
        <ele>112.13</ele>
        <time>2025-04-23T06:21:49Z</time>
      </trkpt>
      <trkpt lat="49.169382015243173" lon="8.57300796546042">
        <ele>113.56999999999999</ele>
        <time>2025-04-23T06:22:01Z</time>
      </trkpt>
      <trkpt lat="49.165736977010965" lon="8.570999996736646">
        <ele>112.13</ele>
        <time>2025-04-23T06:22:14Z</time>
      </trkpt>
      <trkpt lat="49.162956029176712" lon="8.569445991888642">
        <ele>114.05</ele>
        <time>2025-04-23T06:22:24Z</time>
      </trkpt>
      <trkpt lat="49.159925971180201" lon="8.567586969584227">
        <ele>114.05</ele>
        <time>2025-04-23T06:22:35Z</time>
      </trkpt>
      <trkpt lat="49.156634984537959" lon="8.565467018634081">
        <ele>114.53</ele>
        <time>2025-04-23T06:22:47Z</time>
      </trkpt>
      <trkpt lat="49.152238005772233" lon="8.562617003917694">
        <ele>114.53</ele>
        <time>2025-04-23T06:23:04Z</time>
      </trkpt>
      <trkpt lat="49.148415019735694" lon="8.560139983892441">
        <ele>113.56999999999999</ele>
        <time>2025-04-23T06:23:17Z</time>
      </trkpt>
      <trkpt lat="49.147367030382156" lon="8.559461971744895">
        <ele>114.05</ele>
        <time>2025-04-23T06:23:21Z</time>
      </trkpt>
      <trkpt lat="49.144305037334561" lon="8.557613007724285">
        <ele>119.34</ele>
        <time>2025-04-23T06:23:33Z</time>
      </trkpt>
      <trkpt lat="49.139582002535462" lon="8.55472200550139">
        <ele>119.81999999999999</ele>
        <time>2025-04-23T06:23:50Z</time>
      </trkpt>
      <trkpt lat="49.135701013728976" lon="8.552455035969615">
        <ele>119.81999999999999</ele>
        <time>2025-04-23T06:24:03Z</time>
      </trkpt>
      <trkpt lat="49.133099019527435" lon="8.551406962797046">
        <ele>121.26000000000001</ele>
        <time>2025-04-23T06:24:12Z</time>
      </trkpt>
      <trkpt lat="49.129855977371335" lon="8.550761975347996">
        <ele>119.81999999999999</ele>
        <time>2025-04-23T06:24:23Z</time>
      </trkpt>
      <trkpt lat="49.126870008185506" lon="8.550798017531633">
        <ele>119.34</ele>
        <time>2025-04-23T06:24:33Z</time>
      </trkpt>
      <trkpt lat="49.122415026649833" lon="8.551311995834112">
        <ele>119.34</ele>
        <time>2025-04-23T06:24:48Z</time>
      </trkpt>
      <trkpt lat="49.118851041421294" lon="8.551387013867497">
        <ele>115.98</ele>
        <time>2025-04-23T06:25:00Z</time>
      </trkpt>
      <trkpt lat="49.115939000621438" lon="8.550671031698585">
        <ele>117.42</ele>
        <time>2025-04-23T06:25:10Z</time>
      </trkpt>
      <trkpt lat="49.113897001370788" lon="8.549679033458233">
        <ele>118.38</ele>
        <time>2025-04-23T06:25:18Z</time>
      </trkpt>
      <trkpt lat="49.111729022115469" lon="8.548194011673331">
        <ele>118.86</ele>
        <time>2025-04-23T06:25:26Z</time>
      </trkpt>
      <trkpt lat="49.10777703858912" lon="8.545061023905873">
        <ele>117.42</ele>
        <time>2025-04-23T06:25:41Z</time>
      </trkpt>
      <trkpt lat="49.106719996780157" lon="8.54421797208488">
        <ele>116.94</ele>
        <time>2025-04-23T06:25:46Z</time>
      </trkpt>
      <trkpt lat="49.106206018477678" lon="8.543801978230476">
        <ele>117.42</ele>
        <time>2025-04-23T06:25:47Z</time>
      </trkpt>
      <trkpt lat="49.10251303575933" lon="8.540874011814594">
        <ele>117.90000000000001</ele>
        <time>2025-04-23T06:26:02Z</time>
      </trkpt>
      <trkpt lat="49.09907796420157" lon="8.538161963224411">
        <ele>115.98</ele>
        <time>2025-04-23T06:26:14Z</time>
      </trkpt>
      <trkpt lat="49.096162989735603" lon="8.535841014236212">
        <ele>117.42</ele>
        <time>2025-04-23T06:26:25Z</time>
      </trkpt>
      <trkpt lat="49.093269975855947" lon="8.533549988642335">
        <ele>117.42</ele>
        <time>2025-04-23T06:26:36Z</time>
      </trkpt>
      <trkpt lat="49.091173997148871" lon="8.531812001019716">
        <ele>117.42</ele>
        <time>2025-04-23T06:26:45Z</time>
      </trkpt>
      <trkpt lat="49.088379973545671" lon="8.529193997383118">
        <ele>116.94</ele>
        <time>2025-04-23T06:26:55Z</time>
      </trkpt>
      <trkpt lat="49.085503974929452" lon="8.525977022945881">
        <ele>115.98</ele>
        <time>2025-04-23T06:27:07Z</time>
      </trkpt>
      <trkpt lat="49.083430962637067" lon="8.523399000987411">
        <ele>114.53</ele>
        <time>2025-04-23T06:27:16Z</time>
      </trkpt>
      <trkpt lat="49.080918990075588" lon="8.520208010450006">
        <ele>114.05</ele>
        <time>2025-04-23T06:27:27Z</time>
      </trkpt>
      <trkpt lat="49.077729005366564" lon="8.516155024990439">
        <ele>114.05</ele>
        <time>2025-04-23T06:27:41Z</time>
      </trkpt>
      <trkpt lat="49.074967000633478" lon="8.51267502643168">
        <ele>115.98</ele>
        <time>2025-04-23T06:27:53Z</time>
      </trkpt>
      <trkpt lat="49.073420958593488" lon="8.511005016043782">
        <ele>117.90000000000001</ele>
        <time>2025-04-23T06:28:01Z</time>
      </trkpt>
      <trkpt lat="49.072024030610919" lon="8.509826017543674">
        <ele>117.90000000000001</ele>
        <time>2025-04-23T06:28:08Z</time>
      </trkpt>
      <trkpt lat="49.070837991312146" lon="8.50891700014472">
        <ele>116.94</ele>
        <time>2025-04-23T06:28:18Z</time>
      </trkpt>
      <trkpt lat="49.069972978904843" lon="8.508296990767121">
        <ele>116.45999999999999</ele>
        <time>2025-04-23T06:28:25Z</time>
      </trkpt>
      <trkpt lat="49.069596966728568" lon="8.508024998009205">
        <ele>115.98</ele>
        <time>2025-04-23T06:28:33Z</time>
      </trkpt>
      <trkpt lat="49.069060022011399" lon="8.507641023024917">
        <ele>116.94</ele>
        <time>2025-04-23T06:28:43Z</time>
      </trkpt>
      <trkpt lat="49.067915976047516" lon="8.50683300755918">
        <ele>118.86</ele>
        <time>2025-04-23T06:28:54Z</time>
      </trkpt>
      <trkpt lat="49.067121036350727" lon="8.506266977638006">
        <ele>118.86</ele>
        <time>2025-04-23T06:29:04Z</time>
      </trkpt>
      <trkpt lat="49.06596701592207" lon="8.505440019071102">
        <ele>117.90000000000001</ele>
        <time>2025-04-23T06:29:12Z</time>
      </trkpt>
      <trkpt lat="49.064311003312469" lon="8.504260014742613">
        <ele>117.90000000000001</ele>
        <time>2025-04-23T06:29:22Z</time>
      </trkpt>
      <trkpt lat="49.062086027115583" lon="8.502668961882591">
        <ele>116.45999999999999</ele>
        <time>2025-04-23T06:29:33Z</time>
      </trkpt>
      <trkpt lat="49.05941303819418" lon="8.500756965950131">
        <ele>115.5</ele>
        <time>2025-04-23T06:29:45Z</time>
      </trkpt>
      <trkpt lat="49.057312030345201" lon="8.499236991629005">
        <ele>115.01000000000001</ele>
        <time>2025-04-23T06:29:54Z</time>
      </trkpt>
      <trkpt lat="49.053498012945056" lon="8.496521003544331">
        <ele>115.5</ele>
        <time>2025-04-23T06:30:10Z</time>
      </trkpt>
      <trkpt lat="49.049599003046751" lon="8.49372697994113">
        <ele>115.98</ele>
        <time>2025-04-23T06:30:25Z</time>
      </trkpt>
      <trkpt lat="49.045783979818225" lon="8.491025995463133">
        <ele>115.98</ele>
        <time>2025-04-23T06:30:39Z</time>
      </trkpt>
      <trkpt lat="49.041697969660163" lon="8.488322999328375">
        <ele>115.5</ele>
        <time>2025-04-23T06:30:54Z</time>
      </trkpt>
      <trkpt lat="49.037053976207972" lon="8.485215995460749">
        <ele>114.05</ele>
        <time>2025-04-23T06:31:11Z</time>
      </trkpt>
      <trkpt lat="49.031604984775186" lon="8.481562994420528">
        <ele>114.05</ele>
        <time>2025-04-23T06:31:30Z</time>
      </trkpt>
      <trkpt lat="49.028685986995697" lon="8.479347992688417">
        <ele>116.94</ele>
        <time>2025-04-23T06:31:42Z</time>
      </trkpt>
      <trkpt lat="49.025130970403552" lon="8.476047031581402">
        <ele>117.42</ele>
        <time>2025-04-23T06:31:56Z</time>
      </trkpt>
      <trkpt lat="49.022178025916219" lon="8.472975986078382">
        <ele>112.61</ele>
        <time>2025-04-23T06:32:07Z</time>
      </trkpt>
      <trkpt lat="49.019073033705354" lon="8.469731016084552">
        <ele>113.56999999999999</ele>
        <time>2025-04-23T06:32:20Z</time>
      </trkpt>
      <trkpt lat="49.016645969823003" lon="8.467189958319068">
        <ele>115.01000000000001</ele>
        <time>2025-04-23T06:32:31Z</time>
      </trkpt>
      <trkpt lat="49.014184037223458" lon="8.464620988816023">
        <ele>122.22</ele>
        <time>2025-04-23T06:32:42Z</time>
      </trkpt>
      <trkpt lat="49.01027899235487" lon="8.460475970059633">
        <ele>123.19</ele>
        <time>2025-04-23T06:32:58Z</time>
      </trkpt>
      <trkpt lat="49.0072709787637" lon="8.456841995939612">
        <ele>120.78</ele>
        <time>2025-04-23T06:33:11Z</time>
      </trkpt>
      <trkpt lat="49.005023036152124" lon="8.453594008460641">
        <ele>120.78</ele>
        <time>2025-04-23T06:33:23Z</time>
      </trkpt>
      <trkpt lat="49.001573966816068" lon="8.448254987597466">
        <ele>124.63</ele>
        <time>2025-04-23T06:33:42Z</time>
      </trkpt>
      <trkpt lat="48.998725963756442" lon="8.443771004676819">
        <ele>134.72</ele>
        <time>2025-04-23T06:33:58Z</time>
      </trkpt>
      <trkpt lat="48.996480032801628" lon="8.440280025824904">
        <ele>131.84</ele>
        <time>2025-04-23T06:34:08Z</time>
      </trkpt>
      <trkpt lat="48.994671972468495" lon="8.437967039644718">
        <ele>130.40000000000001</ele>
        <time>2025-04-23T06:34:16Z</time>
      </trkpt>
      <trkpt lat="48.99304898455739" lon="8.436816036701202">
        <ele>131.84</ele>
        <time>2025-04-23T06:34:23Z</time>
      </trkpt>
      <trkpt lat="48.991022994741797" lon="8.436091002076864">
        <ele>130.88</ele>
        <time>2025-04-23T06:34:30Z</time>
      </trkpt>
      <trkpt lat="48.988646976649761" lon="8.436098964884877">
        <ele>129.91999999999999</ele>
        <time>2025-04-23T06:34:38Z</time>
      </trkpt>
      <trkpt lat="48.98419501259923" lon="8.436463996767998">
        <ele>127.03</ele>
        <time>2025-04-23T06:34:53Z</time>
      </trkpt>
      <trkpt lat="48.979438031092286" lon="8.436882002279162">
        <ele>125.59</ele>
        <time>2025-04-23T06:35:09Z</time>
      </trkpt>
      <trkpt lat="48.975857030600309" lon="8.437115019187331">
        <ele>121.73999999999999</ele>
        <time>2025-04-23T06:35:27Z</time>
      </trkpt>
      <trkpt lat="48.973257970064878" lon="8.436255035921931">
        <ele>121.73999999999999</ele>
        <time>2025-04-23T06:35:36Z</time>
      </trkpt>
      <trkpt lat="48.970862003043294" lon="8.433682965114713">
        <ele>121.73999999999999</ele>
        <time>2025-04-23T06:35:46Z</time>
      </trkpt>
      <trkpt lat="48.968140985816717" lon="8.427688982337713">
        <ele>120.3</ele>
        <time>2025-04-23T06:35:55Z</time>
      </trkpt>
      <trkpt lat="48.965646028518677" lon="8.421540018171072">
        <ele>120.3</ele>
        <time>2025-04-23T06:36:18Z</time>
      </trkpt>
      <trkpt lat="48.96238898858428" lon="8.412885032594204">
        <ele>121.26000000000001</ele>
        <time>2025-04-23T06:36:34Z</time>
      </trkpt>
      <trkpt lat="48.961296994239092" lon="8.409167993813753">
        <ele>121.26000000000001</ele>
        <time>2025-04-23T06:36:43Z</time>
      </trkpt>
      <trkpt lat="48.960749991238117" lon="8.406121004372835">
        <ele>119.34</ele>
        <time>2025-04-23T06:36:50Z</time>
      </trkpt>
      <trkpt lat="48.960658041760325" lon="8.405635021626949">
        <ele>119.34</ele>
        <time>2025-04-23T06:36:51Z</time>
      </trkpt>
      <trkpt lat="48.959837034344673" lon="8.400417035445571">
        <ele>119.34</ele>
        <time>2025-04-23T06:37:03Z</time>
      </trkpt>
      <trkpt lat="48.958818968385458" lon="8.39382098056376">
        <ele>125.59</ele>
        <time>2025-04-23T06:37:18Z</time>
      </trkpt>
      <trkpt lat="48.957686992362142" lon="8.386782025918365">
        <ele>130.40000000000001</ele>
        <time>2025-04-23T06:37:34Z</time>
      </trkpt>
      <trkpt lat="48.95652299746871" lon="8.382624015212059">
        <ele>130.88</ele>
        <time>2025-04-23T06:37:43Z</time>
      </trkpt>
      <trkpt lat="48.955181976780295" lon="8.37964097969234">
        <ele>125.59</ele>
        <time>2025-04-23T06:37:52Z</time>
      </trkpt>
      <trkpt lat="48.953263023868203" lon="8.376806974411011">
        <ele>120.78</ele>
        <time>2025-04-23T06:38:01Z</time>
      </trkpt>
      <trkpt lat="48.950387025251985" lon="8.373599974438548">
        <ele>123.19</ele>
        <time>2025-04-23T06:38:13Z</time>
      </trkpt>
      <trkpt lat="48.9477130305022" lon="8.370687011629343">
        <ele>124.63</ele>
        <time>2025-04-23T06:38:24Z</time>
      </trkpt>
      <trkpt lat="48.94504901021719" lon="8.367793997749686">
        <ele>122.70999999999999</ele>
        <time>2025-04-23T06:38:35Z</time>
      </trkpt>
      <trkpt lat="48.942336039617658" lon="8.365045990794897">
        <ele>122.70999999999999</ele>
        <time>2025-04-23T06:38:46Z</time>
      </trkpt>
      <trkpt lat="48.939950969070196" lon="8.363219993188977">
        <ele>122.70999999999999</ele>
        <time>2025-04-23T06:38:55Z</time>
      </trkpt>
      <trkpt lat="48.938363017514348" lon="8.362336037680507">
        <ele>122.22</ele>
        <time>2025-04-23T06:39:01Z</time>
      </trkpt>
      <trkpt lat="48.937194999307394" lon="8.361802026629448">
        <ele>122.22</ele>
        <time>2025-04-23T06:39:08Z</time>
      </trkpt>
      <trkpt lat="48.936118008568883" lon="8.361310008913279">
        <ele>121.73999999999999</ele>
        <time>2025-04-23T06:39:17Z</time>
      </trkpt>
      <trkpt lat="48.935219971463084" lon="8.360898960381746">
        <ele>119.34</ele>
        <time>2025-04-23T06:39:27Z</time>
      </trkpt>
      <trkpt lat="48.934258986264467" lon="8.360460000112653">
        <ele>120.3</ele>
        <time>2025-04-23T06:39:41Z</time>
      </trkpt>
      <trkpt lat="48.933863025158644" lon="8.360279034823179">
        <ele>120.3</ele>
        <time>2025-04-23T06:39:51Z</time>
      </trkpt>
      <trkpt lat="48.933693962171674" lon="8.360202005133033">
        <ele>120.78</ele>
        <time>2025-04-23T06:40:04Z</time>
      </trkpt>
      <trkpt lat="48.933521965518594" lon="8.360122963786125">
        <ele>123.67</ele>
        <time>2025-04-23T06:40:17Z</time>
      </trkpt>
      <trkpt lat="48.933200016617775" lon="8.359975023195148">
        <ele>122.22</ele>
        <time>2025-04-23T06:40:34Z</time>
      </trkpt>
      <trkpt lat="48.932934980839491" lon="8.359853988513351">
        <ele>120.78</ele>
        <time>2025-04-23T06:40:47Z</time>
      </trkpt>
      <trkpt lat="48.932431982830167" lon="8.359623989090323">
        <ele>119.34</ele>
        <time>2025-04-23T06:41:04Z</time>
      </trkpt>
      <trkpt lat="48.931811973452568" lon="8.359350990504026">
        <ele>118.86</ele>
        <time>2025-04-23T06:41:17Z</time>
      </trkpt>
      <trkpt lat="48.931000018492341" lon="8.35899299941957">
        <ele>120.78</ele>
        <time>2025-04-23T06:41:27Z</time>
      </trkpt>
      <trkpt lat="48.929821019992232" lon="8.358474997803569">
        <ele>120.78</ele>
        <time>2025-04-23T06:41:38Z</time>
      </trkpt>
      <trkpt lat="48.92917200922966" lon="8.358188001438975">
        <ele>121.26000000000001</ele>
        <time>2025-04-23T06:41:45Z</time>
      </trkpt>
      <trkpt lat="48.928713016211987" lon="8.357980968430638">
        <ele>120.78</ele>
        <time>2025-04-23T06:41:50Z</time>
      </trkpt>
      <trkpt lat="48.928650990128517" lon="8.357952972874045">
        <ele>120.3</ele>
        <time>2025-04-23T06:41:51Z</time>
      </trkpt>
      <trkpt lat="48.927781032398343" lon="8.357561035081744">
        <ele>121.26000000000001</ele>
        <time>2025-04-23T06:42:05Z</time>
      </trkpt>
      <trkpt lat="48.926597004756331" lon="8.357026018202305">
        <ele>122.22</ele>
        <time>2025-04-23T06:42:20Z</time>
      </trkpt>
      <trkpt lat="48.925612969323993" lon="8.356582028791308">
        <ele>123.67</ele>
        <time>2025-04-23T06:42:33Z</time>
      </trkpt>
      <trkpt lat="48.92500402405858" lon="8.35630701854825">
        <ele>123.67</ele>
        <time>2025-04-23T06:42:45Z</time>
      </trkpt>
      <trkpt lat="48.924842001870275" lon="8.356235018000007">
        <ele>123.19</ele>
        <time>2025-04-23T06:42:56Z</time>
      </trkpt>
      <trkpt lat="48.924800008535385" lon="8.356215991079807">
        <ele>124.15000000000001</ele>
        <time>2025-04-23T06:43:21Z</time>
      </trkpt>
      <trkpt lat="48.924522986635566" lon="8.35609101690352">
        <ele>123.67</ele>
        <time>2025-04-23T06:43:36Z</time>
      </trkpt>
      <trkpt lat="48.924393989145756" lon="8.356032008305192">
        <ele>123.19</ele>
        <time>2025-04-23T06:43:54Z</time>
      </trkpt>
      <trkpt lat="48.924235990270972" lon="8.355961013585329">
        <ele>122.70999999999999</ele>
        <time>2025-04-23T06:44:13Z</time>
      </trkpt>
      <trkpt lat="48.923944970592856" lon="8.355830004438758">
        <ele>122.70999999999999</ele>
        <time>2025-04-23T06:44:29Z</time>
      </trkpt>
      <trkpt lat="48.923429986461997" lon="8.355596987530589">
        <ele>123.19</ele>
        <time>2025-04-23T06:44:44Z</time>
      </trkpt>
      <trkpt lat="48.923133015632629" lon="8.355462960898876">
        <ele>125.11</ele>
        <time>2025-04-23T06:45:02Z</time>
      </trkpt>
      <trkpt lat="48.922877032309771" lon="8.355347961187363">
        <ele>126.06999999999999</ele>
        <time>2025-04-23T06:45:19Z</time>
      </trkpt>
      <trkpt lat="48.922590035945177" lon="8.355218041688204">
        <ele>126.06999999999999</ele>
        <time>2025-04-23T06:45:32Z</time>
      </trkpt>
      <trkpt lat="48.922005984932184" lon="8.354955017566681">
        <ele>128.47</ele>
        <time>2025-04-23T06:45:47Z</time>
      </trkpt>
      <trkpt lat="48.921091016381979" lon="8.354542041197419">
        <ele>129.43000000000001</ele>
        <time>2025-04-23T06:46:00Z</time>
      </trkpt>
      <trkpt lat="48.920055013149977" lon="8.354075001552701">
        <ele>130.88</ele>
        <time>2025-04-23T06:46:11Z</time>
      </trkpt>
      <trkpt lat="48.91879697330296" lon="8.353515006601811">
        <ele>129.91999999999999</ele>
        <time>2025-04-23T06:46:22Z</time>
      </trkpt>
      <trkpt lat="48.917374983429909" lon="8.352879993617535">
        <ele>127.51000000000001</ele>
        <time>2025-04-23T06:46:33Z</time>
      </trkpt>
      <trkpt lat="48.915297025814652" lon="8.351933006197214">
        <ele>123.67</ele>
        <time>2025-04-23T06:46:48Z</time>
      </trkpt>
      <trkpt lat="48.913436997681856" lon="8.351096995174885">
        <ele>122.22</ele>
        <time>2025-04-23T06:47:01Z</time>
      </trkpt>
      <trkpt lat="48.911470016464591" lon="8.350212033838034">
        <ele>119.81999999999999</ele>
        <time>2025-04-23T06:47:14Z</time>
      </trkpt>
      <trkpt lat="48.908423027023673" lon="8.348758025094867">
        <ele>120.3</ele>
        <time>2025-04-23T06:47:30Z</time>
      </trkpt>
      <trkpt lat="48.906971029937267" lon="8.347721016034484">
        <ele>121.26000000000001</ele>
        <time>2025-04-23T06:47:40Z</time>
      </trkpt>
      <trkpt lat="48.905380982905626" lon="8.345988979563117">
        <ele>121.73999999999999</ele>
        <time>2025-04-23T06:47:51Z</time>
      </trkpt>
      <trkpt lat="48.904058989137411" lon="8.34401898086071">
        <ele>121.73999999999999</ele>
        <time>2025-04-23T06:48:02Z</time>
      </trkpt>
      <trkpt lat="48.902776977047324" lon="8.341084979474545">
        <ele>122.22</ele>
        <time>2025-04-23T06:48:14Z</time>
      </trkpt>
      <trkpt lat="48.902342040091753" lon="8.339671958237886">
        <ele>120.3</ele>
        <time>2025-04-23T06:48:22Z</time>
      </trkpt>
      <trkpt lat="48.901882041245699" lon="8.337988033890724">
        <ele>121.26000000000001</ele>
        <time>2025-04-23T06:48:33Z</time>
      </trkpt>
      <trkpt lat="48.901595966890454" lon="8.336942978203297">
        <ele>122.22</ele>
        <time>2025-04-23T06:48:41Z</time>
      </trkpt>
      <trkpt lat="48.901569982990623" lon="8.336849017068744">
        <ele>122.70999999999999</ele>
        <time>2025-04-23T06:48:48Z</time>
      </trkpt>
      <trkpt lat="48.901468981057405" lon="8.336479039862752">
        <ele>123.19</ele>
        <time>2025-04-23T06:48:57Z</time>
      </trkpt>
      <trkpt lat="48.90130796469748" lon="8.335890965536237">
        <ele>122.70999999999999</ele>
        <time>2025-04-23T06:49:05Z</time>
      </trkpt>
      <trkpt lat="48.901282986626029" lon="8.335798010230064">
        <ele>122.70999999999999</ele>
        <time>2025-04-23T06:49:06Z</time>
      </trkpt>
      <trkpt lat="48.901282986626029" lon="8.335798010230064">
        <ele>122.70999999999999</ele>
        <time>2025-04-23T06:49:07Z</time>
      </trkpt>
      <trkpt lat="48.900966988876462" lon="8.334615994244814">
        <ele>124.63</ele>
        <time>2025-04-23T06:49:15Z</time>
      </trkpt>
      <trkpt lat="48.90033801086247" lon="8.332262020558119">
        <ele>123.67</ele>
        <time>2025-04-23T06:49:29Z</time>
      </trkpt>
      <trkpt lat="48.899720013141632" lon="8.329952973872423">
        <ele>122.22</ele>
        <time>2025-04-23T06:49:41Z</time>
      </trkpt>
      <trkpt lat="48.898895988240838" lon="8.32687103189528">
        <ele>122.22</ele>
        <time>2025-04-23T06:49:53Z</time>
      </trkpt>
      <trkpt lat="48.897897033020854" lon="8.323152987286449">
        <ele>122.70999999999999</ele>
        <time>2025-04-23T06:50:06Z</time>
      </trkpt>
      <trkpt lat="48.896770002320409" lon="8.318977039307356">
        <ele>122.70999999999999</ele>
        <time>2025-04-23T06:50:17Z</time>
      </trkpt>
      <trkpt lat="48.89563299715519" lon="8.314766976982355">
        <ele>121.73999999999999</ele>
        <time>2025-04-23T06:50:29Z</time>
      </trkpt>
      <trkpt lat="48.894355008378625" lon="8.309977976605296">
        <ele>123.19</ele>
        <time>2025-04-23T06:50:42Z</time>
      </trkpt>
      <trkpt lat="48.892801003530622" lon="8.304136041551828">
        <ele>124.15000000000001</ele>
        <time>2025-04-23T06:50:57Z</time>
      </trkpt>
      <trkpt lat="48.891426958143711" lon="8.298982009291649">
        <ele>125.59</ele>
        <time>2025-04-23T06:51:12Z</time>
      </trkpt>
      <trkpt lat="48.890552977100015" lon="8.29567601904273">
        <ele>124.63</ele>
        <time>2025-04-23T06:51:22Z</time>
      </trkpt>
      <trkpt lat="48.889571959152818" lon="8.291932996362448">
        <ele>123.19</ele>
        <time>2025-04-23T06:51:33Z</time>
      </trkpt>
      <trkpt lat="48.889357969164848" lon="8.290662970393896">
        <ele>122.70999999999999</ele>
        <time>2025-04-23T06:51:39Z</time>
      </trkpt>
      <trkpt lat="48.88929502107203" lon="8.289956040680409">
        <ele>122.22</ele>
        <time>2025-04-23T06:51:45Z</time>
      </trkpt>
      <trkpt lat="48.889194019138813" lon="8.289246009662747">
        <ele>119.81999999999999</ele>
        <time>2025-04-23T06:51:57Z</time>
      </trkpt>
      <trkpt lat="48.889127969741821" lon="8.289002012461424">
        <ele>119.34</ele>
        <time>2025-04-23T06:52:01Z</time>
      </trkpt>
      <trkpt lat="48.889110032469034" lon="8.288940992206335">
        <ele>118.86</ele>
        <time>2025-04-23T06:52:02Z</time>
      </trkpt>
      <trkpt lat="48.889001989737153" lon="8.288575960323215">
        <ele>117.42</ele>
        <time>2025-04-23T06:52:09Z</time>
      </trkpt>
      <trkpt lat="48.888945998623967" lon="8.288384014740586">
        <ele>117.42</ele>
        <time>2025-04-23T06:52:17Z</time>
      </trkpt>
      <trkpt lat="48.888866035267711" lon="8.288362976163626">
        <ele>122.70999999999999</ele>
        <time>2025-04-23T07:03:28Z</time>
      </trkpt>
      <trkpt lat="48.88890702277422" lon="8.28837001696229">
        <ele>120.3</ele>
        <time>2025-04-23T07:04:05Z</time>
      </trkpt>
      <trkpt lat="48.888976005837321" lon="8.288258034735918">
        <ele>119.34</ele>
        <time>2025-04-23T07:04:40Z</time>
      </trkpt>
      <trkpt lat="48.888927977532148" lon="8.288236996158958">
        <ele>125.59</ele>
        <time>2025-04-23T07:04:59Z</time>
      </trkpt>
      <trkpt lat="48.888902999460697" lon="8.28824101947248">
        <ele>127.51000000000001</ele>
        <time>2025-04-23T07:05:13Z</time>
      </trkpt>
      <trkpt lat="48.888877015560865" lon="8.288187040016055">
        <ele>127.51000000000001</ele>
        <time>2025-04-23T07:05:14Z</time>
      </trkpt>
      <trkpt lat="48.88884399086237" lon="8.288116967305541">
        <ele>127.03</ele>
        <time>2025-04-23T07:05:15Z</time>
      </trkpt>
      <trkpt lat="48.888795040547848" lon="8.288014959543943">
        <ele>127.03</ele>
        <time>2025-04-23T07:05:16Z</time>
      </trkpt>
      <trkpt lat="48.88873795978725" lon="8.28789702616632">
        <ele>126.55</ele>
        <time>2025-04-23T07:05:17Z</time>
      </trkpt>
      <trkpt lat="48.888452975079417" lon="8.287306018173695">
        <ele>125.59</ele>
        <time>2025-04-23T07:05:21Z</time>
      </trkpt>
      <trkpt lat="48.888172013685107" lon="8.286750968545675">
        <ele>123.19</ele>
        <time>2025-04-23T07:05:31Z</time>
      </trkpt>
      <trkpt lat="48.886485993862152" lon="8.281627027317882">
        <ele>121.73999999999999</ele>
        <time>2025-04-23T07:05:44Z</time>
      </trkpt>
      <trkpt lat="48.885487038642168" lon="8.278863010928035">
        <ele>119.81999999999999</ele>
        <time>2025-04-23T07:05:53Z</time>
      </trkpt>
      <trkpt lat="48.884411975741386" lon="8.276036968454719">
        <ele>118.38</ele>
        <time>2025-04-23T07:06:02Z</time>
      </trkpt>
      <trkpt lat="48.882716987282038" lon="8.271587016060948">
        <ele>120.3</ele>
        <time>2025-04-23T07:06:15Z</time>
      </trkpt>
      <trkpt lat="48.881055023521185" lon="8.267365973442793">
        <ele>118.38</ele>
        <time>2025-04-23T07:06:26Z</time>
      </trkpt>
      <trkpt lat="48.879297003149986" lon="8.263195976614952">
        <ele>118.86</ele>
        <time>2025-04-23T07:06:37Z</time>
      </trkpt>
      <trkpt lat="48.877209993079305" lon="8.259394029155374">
        <ele>117.42</ele>
        <time>2025-04-23T07:06:48Z</time>
      </trkpt>
      <trkpt lat="48.875181991606951" lon="8.256754986941814">
        <ele>119.81999999999999</ele>
        <time>2025-04-23T07:06:57Z</time>
      </trkpt>
      <trkpt lat="48.872406994923949" lon="8.254109993577004">
        <ele>125.11</ele>
        <time>2025-04-23T07:07:08Z</time>
      </trkpt>
      <trkpt lat="48.868234986439347" lon="8.250606022775173">
        <ele>129.91999999999999</ele>
        <time>2025-04-23T07:07:24Z</time>
      </trkpt>
      <trkpt lat="48.864839980378747" lon="8.247748967260122">
        <ele>126.55</ele>
        <time>2025-04-23T07:07:37Z</time>
      </trkpt>
      <trkpt lat="48.862258018925786" lon="8.245582999661565">
        <ele>126.06999999999999</ele>
        <time>2025-04-23T07:07:54Z</time>
      </trkpt>
      <trkpt lat="48.857832960784435" lon="8.241856992244721">
        <ele>127.51000000000001</ele>
        <time>2025-04-23T07:08:04Z</time>
      </trkpt>
      <trkpt lat="48.855733964592218" lon="8.240100983530283">
        <ele>128.47</ele>
        <time>2025-04-23T07:08:12Z</time>
      </trkpt>
      <trkpt lat="48.851823974400759" lon="8.236831035465002">
        <ele>126.06999999999999</ele>
        <time>2025-04-23T07:08:27Z</time>
      </trkpt>
      <trkpt lat="48.847404029220343" lon="8.233119025826454">
        <ele>133.28</ele>
        <time>2025-04-23T07:08:44Z</time>
      </trkpt>
      <trkpt lat="48.84295298717916" lon="8.229406010359526">
        <ele>139.53</ele>
        <time>2025-04-23T07:09:01Z</time>
      </trkpt>
      <trkpt lat="48.839036040008068" lon="8.226124998182058">
        <ele>142.41</ele>
        <time>2025-04-23T07:09:16Z</time>
      </trkpt>
      <trkpt lat="48.836962021887302" lon="8.224363960325718">
        <ele>136.63999999999999</ele>
        <time>2025-04-23T07:09:24Z</time>
      </trkpt>
      <trkpt lat="48.833922995254397" lon="8.221549987792969">
        <ele>131.84</ele>
        <time>2025-04-23T07:09:36Z</time>
      </trkpt>
      <trkpt lat="48.831305997446179" lon="8.218574998900294">
        <ele>134.24000000000001</ele>
        <time>2025-04-23T07:09:47Z</time>
      </trkpt>
      <trkpt lat="48.829300962388515" lon="8.215874014422298">
        <ele>138.09</ele>
        <time>2025-04-23T07:09:56Z</time>
      </trkpt>
      <trkpt lat="48.827024018391967" lon="8.212301982566714">
        <ele>137.61000000000001</ele>
        <time>2025-04-23T07:10:07Z</time>
      </trkpt>
      <trkpt lat="48.824908006936312" lon="8.208521995693445">
        <ele>131.84</ele>
        <time>2025-04-23T07:10:19Z</time>
      </trkpt>
      <trkpt lat="48.820476997643709" lon="8.200794970616698">
        <ele>124.15000000000001</ele>
        <time>2025-04-23T07:10:41Z</time>
      </trkpt>
      <trkpt lat="48.818355035036802" lon="8.19723199121654">
        <ele>124.63</ele>
        <time>2025-04-23T07:10:53Z</time>
      </trkpt>
      <trkpt lat="48.817043015733361" lon="8.19510399363935">
        <ele>124.15000000000001</ele>
        <time>2025-04-23T07:11:00Z</time>
      </trkpt>
      <trkpt lat="48.813984962180257" lon="8.190340977162123">
        <ele>126.06999999999999</ele>
        <time>2025-04-23T07:11:15Z</time>
      </trkpt>
      <trkpt lat="48.81188596598804" lon="8.187235984951258">
        <ele>127.98999999999999</ele>
        <time>2025-04-23T07:11:25Z</time>
      </trkpt>
      <trkpt lat="48.809510031715035" lon="8.18377903662622">
        <ele>131.36000000000001</ele>
        <time>2025-04-23T07:11:36Z</time>
      </trkpt>
      <trkpt lat="48.805763991549611" lon="8.178565995767713">
        <ele>130.88</ele>
        <time>2025-04-23T07:11:53Z</time>
      </trkpt>
      <trkpt lat="48.803114974871278" lon="8.174949958920479">
        <ele>133.28</ele>
        <time>2025-04-23T07:12:05Z</time>
      </trkpt>
      <trkpt lat="48.80066704005003" lon="8.17161999642849">
        <ele>136.63999999999999</ele>
        <time>2025-04-23T07:12:16Z</time>
      </trkpt>
      <trkpt lat="48.797997990623116" lon="8.16798803396523">
        <ele>137.13</ele>
        <time>2025-04-23T07:12:28Z</time>
      </trkpt>
      <trkpt lat="48.796237036585808" lon="8.165571028366685">
        <ele>134.24000000000001</ele>
        <time>2025-04-23T07:12:37Z</time>
      </trkpt>
      <trkpt lat="48.792905984446406" lon="8.161059971898794">
        <ele>126.55</ele>
        <time>2025-04-23T07:12:51Z</time>
      </trkpt>
      <trkpt lat="48.789796968922019" lon="8.156900033354759">
        <ele>124.63</ele>
        <time>2025-04-23T07:13:05Z</time>
      </trkpt>
      <trkpt lat="48.786801025271416" lon="8.153234962373972">
        <ele>126.55</ele>
        <time>2025-04-23T07:13:25Z</time>
      </trkpt>
      <trkpt lat="48.783033024519682" lon="8.149592019617558">
        <ele>123.19</ele>
        <time>2025-04-23T07:13:40Z</time>
      </trkpt>
      <trkpt lat="48.778201024979353" lon="8.146150996908546">
        <ele>123.19</ele>
        <time>2025-04-23T07:13:51Z</time>
      </trkpt>
      <trkpt lat="48.774334033951163" lon="8.143756035715342">
        <ele>121.26000000000001</ele>
        <time>2025-04-23T07:14:05Z</time>
      </trkpt>
      <trkpt lat="48.77026503905654" lon="8.141287984326482">
        <ele>121.73999999999999</ele>
        <time>2025-04-23T07:14:20Z</time>
      </trkpt>
      <trkpt lat="48.768041990697384" lon="8.13992902636528">
        <ele>121.73999999999999</ele>
        <time>2025-04-23T07:14:30Z</time>
      </trkpt>
      <trkpt lat="48.765646023675799" lon="8.138461019843817">
        <ele>119.81999999999999</ele>
        <time>2025-04-23T07:14:41Z</time>
      </trkpt>
      <trkpt lat="48.762624012306333" lon="8.136608032509685">
        <ele>121.73999999999999</ele>
        <time>2025-04-23T07:14:55Z</time>
      </trkpt>
      <trkpt lat="48.76062199473381" lon="8.135361978784204">
        <ele>123.19</ele>
        <time>2025-04-23T07:15:03Z</time>
      </trkpt>
      <trkpt lat="48.757356991991401" lon="8.133126022294164">
        <ele>123.19</ele>
        <time>2025-04-23T07:15:15Z</time>
      </trkpt>
      <trkpt lat="48.75445500947535" lon="8.130874978378415">
        <ele>123.19</ele>
        <time>2025-04-23T07:15:26Z</time>
      </trkpt>
      <trkpt lat="48.751130998134613" lon="8.127881968393922">
        <ele>123.19</ele>
        <time>2025-04-23T07:15:39Z</time>
      </trkpt>
      <trkpt lat="48.749154964461923" lon="8.125889003276825">
        <ele>126.55</ele>
        <time>2025-04-23T07:15:47Z</time>
      </trkpt>
      <trkpt lat="48.746427996084094" lon="8.123043011873961">
        <ele>128.47</ele>
        <time>2025-04-23T07:15:58Z</time>
      </trkpt>
      <trkpt lat="48.743980983272195" lon="8.120497008785605">
        <ele>129.91999999999999</ele>
        <time>2025-04-23T07:16:08Z</time>
      </trkpt>
      <trkpt lat="48.740435019135475" lon="8.117180038243532">
        <ele>128.47</ele>
        <time>2025-04-23T07:16:22Z</time>
      </trkpt>
      <trkpt lat="48.736570039764047" lon="8.113821996375918">
        <ele>127.03</ele>
        <time>2025-04-23T07:16:37Z</time>
      </trkpt>
      <trkpt lat="48.732811007648706" lon="8.110180981457233">
        <ele>126.55</ele>
        <time>2025-04-23T07:16:52Z</time>
      </trkpt>
      <trkpt lat="48.729457994922996" lon="8.106423960998654">
        <ele>127.98999999999999</ele>
        <time>2025-04-23T07:17:06Z</time>
      </trkpt>
      <trkpt lat="48.726264992728829" lon="8.102301992475987">
        <ele>130.88</ele>
        <time>2025-04-23T07:17:20Z</time>
      </trkpt>
      <trkpt lat="48.724307985976338" lon="8.099533030763269">
        <ele>131.36000000000001</ele>
        <time>2025-04-23T07:17:29Z</time>
      </trkpt>
      <trkpt lat="48.721493007615209" lon="8.095583980903029">
        <ele>127.51000000000001</ele>
        <time>2025-04-23T07:17:42Z</time>
      </trkpt>
      <trkpt lat="48.717677984386683" lon="8.090554000809789">
        <ele>130.40000000000001</ele>
        <time>2025-04-23T07:17:59Z</time>
      </trkpt>
      <trkpt lat="48.713919958099723" lon="8.08615199290216">
        <ele>133.28</ele>
        <time>2025-04-23T07:18:15Z</time>
      </trkpt>
      <trkpt lat="48.710263017565012" lon="8.082269998267293">
        <ele>134.72</ele>
        <time>2025-04-23T07:18:30Z</time>
      </trkpt>
      <trkpt lat="48.706223024055362" lon="8.078447012230754">
        <ele>136.16</ele>
        <time>2025-04-23T07:18:46Z</time>
      </trkpt>
      <trkpt lat="48.702860036864877" lon="8.075646031647921">
        <ele>133.75999999999999</ele>
        <time>2025-04-23T07:18:59Z</time>
      </trkpt>
      <trkpt lat="48.699594028294086" lon="8.073441004380584">
        <ele>130.88</ele>
        <time>2025-04-23T07:19:11Z</time>
      </trkpt>
      <trkpt lat="48.695998024195433" lon="8.071293979883194">
        <ele>132.31999999999999</ele>
        <time>2025-04-23T07:19:24Z</time>
      </trkpt>
      <trkpt lat="48.692387016490102" lon="8.069189032539725">
        <ele>134.24000000000001</ele>
        <time>2025-04-23T07:19:37Z</time>
      </trkpt>
      <trkpt lat="48.68935402482748" lon="8.067250968888402">
        <ele>138.09</ele>
        <time>2025-04-23T07:19:48Z</time>
      </trkpt>
      <trkpt lat="48.686127997934818" lon="8.064957009628415">
        <ele>140.97</ele>
        <time>2025-04-23T07:20:00Z</time>
      </trkpt>
      <trkpt lat="48.683748040348291" lon="8.063089018687606">
        <ele>141.93000000000001</ele>
        <time>2025-04-23T07:20:09Z</time>
      </trkpt>
      <trkpt lat="48.680387986823916" lon="8.060186030343175">
        <ele>139.53</ele>
        <time>2025-04-23T07:20:22Z</time>
      </trkpt>
      <trkpt lat="48.676624009385705" lon="8.056563036516309">
        <ele>140.97</ele>
        <time>2025-04-23T07:20:37Z</time>
      </trkpt>
      <trkpt lat="48.673687996342778" lon="8.053424013778567">
        <ele>140.97</ele>
        <time>2025-04-23T07:20:49Z</time>
      </trkpt>
      <trkpt lat="48.670123005285859" lon="8.049331968650222">
        <ele>141.44999999999999</ele>
        <time>2025-04-23T07:21:04Z</time>
      </trkpt>
      <trkpt lat="48.666631020605564" lon="8.045125007629395">
        <ele>144.34</ele>
        <time>2025-04-23T07:21:19Z</time>
      </trkpt>
      <trkpt lat="48.663540026172996" lon="8.04159396328032">
        <ele>144.34</ele>
        <time>2025-04-23T07:21:32Z</time>
      </trkpt>
      <trkpt lat="48.660291032865644" lon="8.038467010483146">
        <ele>142.88999999999999</ele>
        <time>2025-04-23T07:21:45Z</time>
      </trkpt>
      <trkpt lat="48.657408999279141" lon="8.036187971010804">
        <ele>140.97</ele>
        <time>2025-04-23T07:21:56Z</time>
      </trkpt>
      <trkpt lat="48.653325000777841" lon="8.033540965989232">
        <ele>138.56999999999999</ele>
        <time>2025-04-23T07:22:11Z</time>
      </trkpt>
      <trkpt lat="48.649943992495537" lon="8.031811024993658">
        <ele>138.09</ele>
        <time>2025-04-23T07:22:23Z</time>
      </trkpt>
      <trkpt lat="48.646271964535117" lon="8.030056022107601">
        <ele>140.97</ele>
        <time>2025-04-23T07:22:36Z</time>
      </trkpt>
      <trkpt lat="48.641991997137666" lon="8.028031038120389">
        <ele>144.34</ele>
        <time>2025-04-23T07:22:51Z</time>
      </trkpt>
      <trkpt lat="48.637470966205001" lon="8.025739006698132">
        <ele>143.37</ele>
        <time>2025-04-23T07:23:07Z</time>
      </trkpt>
      <trkpt lat="48.634126000106335" lon="8.023797003552318">
        <ele>141.93000000000001</ele>
        <time>2025-04-23T07:23:19Z</time>
      </trkpt>
      <trkpt lat="48.63007502630353" lon="8.020983031019568">
        <ele>143.37</ele>
        <time>2025-04-23T07:23:34Z</time>
      </trkpt>
      <trkpt lat="48.625868987292051" lon="8.017605040222406">
        <ele>143.37</ele>
        <time>2025-04-23T07:23:50Z</time>
      </trkpt>
      <trkpt lat="48.623933019116521" lon="8.015824975445867">
        <ele>143.84999999999999</ele>
        <time>2025-04-23T07:23:58Z</time>
      </trkpt>
      <trkpt lat="48.622134011238813" lon="8.014094028621912">
        <ele>143.37</ele>
        <time>2025-04-23T07:24:05Z</time>
      </trkpt>
      <trkpt lat="48.618717966601253" lon="8.01046097651124">
        <ele>143.84999999999999</ele>
        <time>2025-04-23T07:24:19Z</time>
      </trkpt>
      <trkpt lat="48.616150002926588" lon="8.007403006777167">
        <ele>143.84999999999999</ele>
        <time>2025-04-23T07:24:30Z</time>
      </trkpt>
      <trkpt lat="48.612547963857651" lon="8.00272598862648">
        <ele>143.84999999999999</ele>
        <time>2025-04-23T07:24:46Z</time>
      </trkpt>
      <trkpt lat="48.608261039480567" lon="7.997140036895871">
        <ele>145.30000000000001</ele>
        <time>2025-04-23T07:25:05Z</time>
      </trkpt>
      <trkpt lat="48.605457963421941" lon="7.993778977543116">
        <ele>145.30000000000001</ele>
        <time>2025-04-23T07:25:17Z</time>
      </trkpt>
      <trkpt lat="48.602118026465178" lon="7.990002008154988">
        <ele>146.74000000000001</ele>
        <time>2025-04-23T07:25:31Z</time>
      </trkpt>
      <trkpt lat="48.598017012700438" lon="7.985532023012638">
        <ele>146.25999999999999</ele>
        <time>2025-04-23T07:25:48Z</time>
      </trkpt>
      <trkpt lat="48.595346035435796" lon="7.982753003016114">
        <ele>146.74000000000001</ele>
        <time>2025-04-23T07:25:59Z</time>
      </trkpt>
      <trkpt lat="48.59108199365437" lon="7.978589963167906">
        <ele>149.62</ele>
        <time>2025-04-23T07:26:16Z</time>
      </trkpt>
      <trkpt lat="48.586499020457268" lon="7.974378978833556">
        <ele>145.30000000000001</ele>
        <time>2025-04-23T07:26:34Z</time>
      </trkpt>
      <trkpt lat="48.583145001903176" lon="7.971484959125519">
        <ele>142.88999999999999</ele>
        <time>2025-04-23T07:26:47Z</time>
      </trkpt>
      <trkpt lat="48.579490995034575" lon="7.968461019918323">
        <ele>142.88999999999999</ele>
        <time>2025-04-23T07:27:01Z</time>
      </trkpt>
      <trkpt lat="48.576060030609369" lon="7.965773027390242">
        <ele>146.25999999999999</ele>
        <time>2025-04-23T07:27:14Z</time>
      </trkpt>
      <trkpt lat="48.572585983201861" lon="7.963225012645125">
        <ele>146.25999999999999</ele>
        <time>2025-04-23T07:27:27Z</time>
      </trkpt>
      <trkpt lat="48.568798033520579" lon="7.96057197265327">
        <ele>144.34</ele>
        <time>2025-04-23T07:27:41Z</time>
      </trkpt>
      <trkpt lat="48.564982004463673" lon="7.958124037832022">
        <ele>143.37</ele>
        <time>2025-04-23T07:27:55Z</time>
      </trkpt>
      <trkpt lat="48.561657993122935" lon="7.956162001937628">
        <ele>143.37</ele>
        <time>2025-04-23T07:28:07Z</time>
      </trkpt>
      <trkpt lat="48.558865981176496" lon="7.95459802262485">
        <ele>141.44999999999999</ele>
        <time>2025-04-23T07:28:17Z</time>
      </trkpt>
      <trkpt lat="48.555495031177998" lon="7.95288098976016">
        <ele>142.88999999999999</ele>
        <time>2025-04-23T07:28:29Z</time>
      </trkpt>
      <trkpt lat="48.550981963053346" lon="7.9505580291152">
        <ele>147.69999999999999</ele>
        <time>2025-04-23T07:28:45Z</time>
      </trkpt>
      <trkpt lat="48.548245020210743" lon="7.948811994865537">
        <ele>149.62</ele>
        <time>2025-04-23T07:28:55Z</time>
      </trkpt>
      <trkpt lat="48.545629028230906" lon="7.946659019216895">
        <ele>149.13999999999999</ele>
        <time>2025-04-23T07:29:05Z</time>
      </trkpt>
      <trkpt lat="48.542654039338231" lon="7.943663997575641">
        <ele>147.22</ele>
        <time>2025-04-23T07:29:17Z</time>
      </trkpt>
      <trkpt lat="48.539807964116335" lon="7.940390026196837">
        <ele>145.30000000000001</ele>
        <time>2025-04-23T07:29:29Z</time>
      </trkpt>
      <trkpt lat="48.536762986332178" lon="7.936854036524892">
        <ele>143.37</ele>
        <time>2025-04-23T07:29:42Z</time>
      </trkpt>
      <trkpt lat="48.533942978829145" lon="7.933561960235238">
        <ele>140.49000000000001</ele>
        <time>2025-04-23T07:29:54Z</time>
      </trkpt>
      <trkpt lat="48.530868999660015" lon="7.930003004148603">
        <ele>141.44999999999999</ele>
        <time>2025-04-23T07:30:07Z</time>
      </trkpt>
      <trkpt lat="48.528006998822093" lon="7.92677597142756">
        <ele>142.41</ele>
        <time>2025-04-23T07:30:19Z</time>
      </trkpt>
      <trkpt lat="48.525104010477662" lon="7.923603001981974">
        <ele>144.81999999999999</ele>
        <time>2025-04-23T07:30:31Z</time>
      </trkpt>
      <trkpt lat="48.521435000002384" lon="7.919764006510377">
        <ele>148.66</ele>
        <time>2025-04-23T07:30:46Z</time>
      </trkpt>
      <trkpt lat="48.519059987738729" lon="7.917368039488792">
        <ele>152.03</ele>
        <time>2025-04-23T07:30:56Z</time>
      </trkpt>
      <trkpt lat="48.516511972993612" lon="7.915009036660194">
        <ele>156.34999999999999</ele>
        <time>2025-04-23T07:31:07Z</time>
      </trkpt>
      <trkpt lat="48.512512966990471" lon="7.911716960370541">
        <ele>155.38999999999999</ele>
        <time>2025-04-23T07:31:23Z</time>
      </trkpt>
      <trkpt lat="48.509606039151549" lon="7.909615030512214">
        <ele>151.53999999999999</ele>
        <time>2025-04-23T07:31:34Z</time>
      </trkpt>
      <trkpt lat="48.507881965488195" lon="7.908497974276543">
        <ele>150.58000000000001</ele>
        <time>2025-04-23T07:31:41Z</time>
      </trkpt>
      <trkpt lat="48.504632972180843" lon="7.906561000272632">
        <ele>150.58000000000001</ele>
        <time>2025-04-23T07:31:54Z</time>
      </trkpt>
      <trkpt lat="48.502539005130529" lon="7.905463976785541">
        <ele>151.53999999999999</ele>
        <time>2025-04-23T07:32:03Z</time>
      </trkpt>
      <trkpt lat="48.499803990125656" lon="7.904147012159228">
        <ele>151.06</ele>
        <time>2025-04-23T07:32:16Z</time>
      </trkpt>
      <trkpt lat="48.497813958674669" lon="7.903372021391988">
        <ele>151.06</ele>
        <time>2025-04-23T07:32:25Z</time>
      </trkpt>
      <trkpt lat="48.495878996327519" lon="7.902717981487513">
        <ele>150.58000000000001</ele>
        <time>2025-04-23T07:32:32Z</time>
      </trkpt>
      <trkpt lat="48.492065984755754" lon="7.90176697075367">
        <ele>152.03</ele>
        <time>2025-04-23T07:32:45Z</time>
      </trkpt>
      <trkpt lat="48.489394001662731" lon="7.901407973840833">
        <ele>152.03</ele>
        <time>2025-04-23T07:32:54Z</time>
      </trkpt>
      <trkpt lat="48.486131010577083" lon="7.901260033249855">
        <ele>153.47</ele>
        <time>2025-04-23T07:33:05Z</time>
      </trkpt>
      <trkpt lat="48.482569037005305" lon="7.901518028229475">
        <ele>152.03</ele>
        <time>2025-04-23T07:33:17Z</time>
      </trkpt>
      <trkpt lat="48.479032963514328" lon="7.902223030105233">
        <ele>152.50999999999999</ele>
        <time>2025-04-23T07:33:29Z</time>
      </trkpt>
      <trkpt lat="48.47463296726346" lon="7.903303960338235">
        <ele>152.99000000000001</ele>
        <time>2025-04-23T07:33:44Z</time>
      </trkpt>
      <trkpt lat="48.470499012619257" lon="7.904287995770574">
        <ele>153.47</ele>
        <time>2025-04-23T07:33:58Z</time>
      </trkpt>
      <trkpt lat="48.46724197268486" lon="7.904844973236322">
        <ele>153.94999999999999</ele>
        <time>2025-04-23T07:34:10Z</time>
      </trkpt>
      <trkpt lat="48.464295985177159" lon="7.905024010688067">
        <ele>155.87</ele>
        <time>2025-04-23T07:34:19Z</time>
      </trkpt>
      <trkpt lat="48.461616961285472" lon="7.904942035675049">
        <ele>156.83000000000001</ele>
        <time>2025-04-23T07:34:28Z</time>
      </trkpt>
      <trkpt lat="48.458356987684965" lon="7.904510032385588">
        <ele>155.87</ele>
        <time>2025-04-23T07:34:39Z</time>
      </trkpt>
      <trkpt lat="48.454536013305187" lon="7.903558015823364">
        <ele>154.43000000000001</ele>
        <time>2025-04-23T07:34:52Z</time>
      </trkpt>
      <trkpt lat="48.451923038810492" lon="7.902677999809384">
        <ele>153.94999999999999</ele>
        <time>2025-04-23T07:35:01Z</time>
      </trkpt>
      <trkpt lat="48.448459971696138" lon="7.90131401270628">
        <ele>153.94999999999999</ele>
        <time>2025-04-23T07:35:13Z</time>
      </trkpt>
      <trkpt lat="48.445038981735706" lon="7.899776017293334">
        <ele>150.58000000000001</ele>
        <time>2025-04-23T07:35:25Z</time>
      </trkpt>
      <trkpt lat="48.443056996911764" lon="7.898769015446305">
        <ele>149.62</ele>
        <time>2025-04-23T07:35:32Z</time>
      </trkpt>
      <trkpt lat="48.440263979136944" lon="7.897217022255063">
        <ele>150.09999999999999</ele>
        <time>2025-04-23T07:35:42Z</time>
      </trkpt>
      <trkpt lat="48.435860965400934" lon="7.894427021965385">
        <ele>149.62</ele>
        <time>2025-04-23T07:35:58Z</time>
      </trkpt>
      <trkpt lat="48.43292998149991" lon="7.892370019108057">
        <ele>150.58000000000001</ele>
        <time>2025-04-23T07:36:09Z</time>
      </trkpt>
      <trkpt lat="48.429946023970842" lon="7.890029037371278">
        <ele>151.06</ele>
        <time>2025-04-23T07:36:21Z</time>
      </trkpt>
      <trkpt lat="48.426663000136614" lon="7.887252029031515">
        <ele>150.58000000000001</ele>
        <time>2025-04-23T07:36:34Z</time>
      </trkpt>
      <trkpt lat="48.423735033720732" lon="7.88449396379292">
        <ele>151.53999999999999</ele>
        <time>2025-04-23T07:36:46Z</time>
      </trkpt>
      <trkpt lat="48.421692028641701" lon="7.882431009784341">
        <ele>150.09999999999999</ele>
        <time>2025-04-23T07:36:55Z</time>
      </trkpt>
      <trkpt lat="48.419416006654501" lon="7.880000006407499">
        <ele>152.99000000000001</ele>
        <time>2025-04-23T07:37:07Z</time>
      </trkpt>
      <trkpt lat="48.417499987408519" lon="7.877780981361866">
        <ele>153.94999999999999</ele>
        <time>2025-04-23T07:37:17Z</time>
      </trkpt>
      <trkpt lat="48.415532000362873" lon="7.875428013503552">
        <ele>153.94999999999999</ele>
        <time>2025-04-23T07:37:28Z</time>
      </trkpt>
      <trkpt lat="48.415356986224651" lon="7.875205976888537">
        <ele>154.43000000000001</ele>
        <time>2025-04-23T07:37:29Z</time>
      </trkpt>
      <trkpt lat="48.415180966258049" lon="7.874980000779033">
        <ele>154.43000000000001</ele>
        <time>2025-04-23T07:37:30Z</time>
      </trkpt>
      <trkpt lat="48.412729008123279" lon="7.871817005798221">
        <ele>153.47</ele>
        <time>2025-04-23T07:37:43Z</time>
      </trkpt>
      <trkpt lat="48.410978028550744" lon="7.869380973279476">
        <ele>152.99000000000001</ele>
        <time>2025-04-23T07:37:52Z</time>
      </trkpt>
      <trkpt lat="48.409019010141492" lon="7.866495000198484">
        <ele>152.50999999999999</ele>
        <time>2025-04-23T07:38:03Z</time>
      </trkpt>
      <trkpt lat="48.407383030280471" lon="7.863964000716806">
        <ele>152.03</ele>
        <time>2025-04-23T07:38:13Z</time>
      </trkpt>
      <trkpt lat="48.406060030683875" lon="7.861789986491203">
        <ele>150.09999999999999</ele>
        <time>2025-04-23T07:38:22Z</time>
      </trkpt>
      <trkpt lat="48.404599986970425" lon="7.859311960637569">
        <ele>151.06</ele>
        <time>2025-04-23T07:38:30Z</time>
      </trkpt>
      <trkpt lat="48.402868034318089" lon="7.85621602088213">
        <ele>152.50999999999999</ele>
        <time>2025-04-23T07:38:39Z</time>
      </trkpt>
      <trkpt lat="48.401040025055408" lon="7.852734010666609">
        <ele>152.99000000000001</ele>
        <time>2025-04-23T07:38:49Z</time>
      </trkpt>
      <trkpt lat="48.39947797358036" lon="7.849760027602315">
        <ele>152.99000000000001</ele>
        <time>2025-04-23T07:38:58Z</time>
      </trkpt>
      <trkpt lat="48.397694975137711" lon="7.846444984897971">
        <ele>152.99000000000001</ele>
        <time>2025-04-23T07:39:09Z</time>
      </trkpt>
      <trkpt lat="48.395999986678362" lon="7.843319959938526">
        <ele>152.99000000000001</ele>
        <time>2025-04-23T07:39:20Z</time>
      </trkpt>
      <trkpt lat="48.394665000960231" lon="7.840940002351999">
        <ele>151.06</ele>
        <time>2025-04-23T07:39:28Z</time>
      </trkpt>
      <trkpt lat="48.393003959208727" lon="7.838124018162489">
        <ele>152.03</ele>
        <time>2025-04-23T07:39:37Z</time>
      </trkpt>
      <trkpt lat="48.391303019598126" lon="7.835303004831076">
        <ele>152.50999999999999</ele>
        <time>2025-04-23T07:39:45Z</time>
      </trkpt>
      <trkpt lat="48.388703959062696" lon="7.831162009388208">
        <ele>152.50999999999999</ele>
        <time>2025-04-23T07:39:57Z</time>
      </trkpt>
      <trkpt lat="48.386620972305536" lon="7.828040001913905">
        <ele>151.53999999999999</ele>
        <time>2025-04-23T07:40:07Z</time>
      </trkpt>
      <trkpt lat="48.384661031886935" lon="7.825219994410873">
        <ele>152.50999999999999</ele>
        <time>2025-04-23T07:40:17Z</time>
      </trkpt>
      <trkpt lat="48.382563041523099" lon="7.822310971096158">
        <ele>153.94999999999999</ele>
        <time>2025-04-23T07:40:28Z</time>
      </trkpt>
      <trkpt lat="48.380129020661116" lon="7.819055020809174">
        <ele>153.94999999999999</ele>
        <time>2025-04-23T07:40:39Z</time>
      </trkpt>
      <trkpt lat="48.376988992094994" lon="7.81492399983108">
        <ele>155.87</ele>
        <time>2025-04-23T07:40:53Z</time>
      </trkpt>
      <trkpt lat="48.37403797544539" lon="7.811174020171166">
        <ele>155.87</ele>
        <time>2025-04-23T07:41:06Z</time>
      </trkpt>
      <trkpt lat="48.372372994199395" lon="7.809116011485457">
        <ele>155.87</ele>
        <time>2025-04-23T07:41:14Z</time>
      </trkpt>
      <trkpt lat="48.369453996419907" lon="7.805552026256919">
        <ele>156.83000000000001</ele>
        <time>2025-04-23T07:41:28Z</time>
      </trkpt>
      <trkpt lat="48.36707797832787" lon="7.802772000432015">
        <ele>156.34999999999999</ele>
        <time>2025-04-23T07:41:39Z</time>
      </trkpt>
      <trkpt lat="48.36424196138978" lon="7.799757029861212">
        <ele>157.78999999999999</ele>
        <time>2025-04-23T07:41:51Z</time>
      </trkpt>
      <trkpt lat="48.360665990039706" lon="7.79655103571713">
        <ele>158.27000000000001</ele>
        <time>2025-04-23T07:42:05Z</time>
      </trkpt>
      <trkpt lat="48.357193032279611" lon="7.794010983780026">
        <ele>158.27000000000001</ele>
        <time>2025-04-23T07:42:18Z</time>
      </trkpt>
      <trkpt lat="48.35386399179697" lon="7.79208499006927">
        <ele>160.19999999999999</ele>
        <time>2025-04-23T07:42:30Z</time>
      </trkpt>
      <trkpt lat="48.350727986544371" lon="7.790686972439289">
        <ele>161.63999999999999</ele>
        <time>2025-04-23T07:42:41Z</time>
      </trkpt>
      <trkpt lat="48.3478909637779" lon="7.789714001119137">
        <ele>160.68000000000001</ele>
        <time>2025-04-23T07:42:51Z</time>
      </trkpt>
      <trkpt lat="48.345529027283192" lon="7.789127016440034">
        <ele>160.19999999999999</ele>
        <time>2025-04-23T07:43:01Z</time>
      </trkpt>
      <trkpt lat="48.342944970354438" lon="7.788697024807334">
        <ele>159.72</ele>
        <time>2025-04-23T07:43:11Z</time>
      </trkpt>
      <trkpt lat="48.340311041101813" lon="7.788527039811015">
        <ele>158.27000000000001</ele>
        <time>2025-04-23T07:43:21Z</time>
      </trkpt>
      <trkpt lat="48.337289029732347" lon="7.788568027317524">
        <ele>158.75</ele>
        <time>2025-04-23T07:43:33Z</time>
      </trkpt>
      <trkpt lat="48.334157969802618" lon="7.788852006196976">
        <ele>157.31</ele>
        <time>2025-04-23T07:43:46Z</time>
      </trkpt>
      <trkpt lat="48.330892967060208" lon="7.789274035021663">
        <ele>157.31</ele>
        <time>2025-04-23T07:43:59Z</time>
      </trkpt>
      <trkpt lat="48.328278986737132" lon="7.789591960608959">
        <ele>156.83000000000001</ele>
        <time>2025-04-23T07:44:09Z</time>
      </trkpt>
      <trkpt lat="48.325010966509581" lon="7.789931008592248">
        <ele>154.91</ele>
        <time>2025-04-23T07:44:22Z</time>
      </trkpt>
      <trkpt lat="48.322047963738441" lon="7.790185986086726">
        <ele>156.83000000000001</ele>
        <time>2025-04-23T07:44:33Z</time>
      </trkpt>
      <trkpt lat="48.319491986185312" lon="7.790308026596904">
        <ele>158.27000000000001</ele>
        <time>2025-04-23T07:44:42Z</time>
      </trkpt>
      <trkpt lat="48.316425969824195" lon="7.790413973852992">
        <ele>159.24000000000001</ele>
        <time>2025-04-23T07:44:53Z</time>
      </trkpt>
      <trkpt lat="48.312905989587307" lon="7.790443981066346">
        <ele>160.19999999999999</ele>
        <time>2025-04-23T07:45:05Z</time>
      </trkpt>
      <trkpt lat="48.310479009523988" lon="7.790396036580205">
        <ele>159.72</ele>
        <time>2025-04-23T07:45:14Z</time>
      </trkpt>
      <trkpt lat="48.307661013677716" lon="7.790280031040311">
        <ele>159.24000000000001</ele>
        <time>2025-04-23T07:45:24Z</time>
      </trkpt>
      <trkpt lat="48.303828975185752" lon="7.789973001927137">
        <ele>158.27000000000001</ele>
        <time>2025-04-23T07:45:38Z</time>
      </trkpt>
      <trkpt lat="48.299728967249393" lon="7.789392974227667">
        <ele>159.72</ele>
        <time>2025-04-23T07:45:53Z</time>
      </trkpt>
      <trkpt lat="48.296169005334377" lon="7.788642961531878">
        <ele>157.78999999999999</ele>
        <time>2025-04-23T07:46:06Z</time>
      </trkpt>
      <trkpt lat="48.292514998465776" lon="7.787582986056805">
        <ele>159.72</ele>
        <time>2025-04-23T07:46:19Z</time>
      </trkpt>
      <trkpt lat="48.289005998522043" lon="7.786330981180072">
        <ele>159.72</ele>
        <time>2025-04-23T07:46:31Z</time>
      </trkpt>
      <trkpt lat="48.285272028297186" lon="7.784728026017547">
        <ele>157.78999999999999</ele>
        <time>2025-04-23T07:46:44Z</time>
      </trkpt>
      <trkpt lat="48.280220003798604" lon="7.78209300711751">
        <ele>159.24000000000001</ele>
        <time>2025-04-23T07:47:02Z</time>
      </trkpt>
      <trkpt lat="48.27608797699213" lon="7.779525965452194">
        <ele>162.59999999999999</ele>
        <time>2025-04-23T07:47:17Z</time>
      </trkpt>
      <trkpt lat="48.271286990493536" lon="7.77596902102232">
        <ele>165.47999999999999</ele>
        <time>2025-04-23T07:47:35Z</time>
      </trkpt>
      <trkpt lat="48.266622964292765" lon="7.771990969777107">
        <ele>166.93000000000001</ele>
        <time>2025-04-23T07:47:53Z</time>
      </trkpt>
      <trkpt lat="48.264322970062494" lon="7.770031029358506">
        <ele>166.93000000000001</ele>
        <time>2025-04-23T07:48:03Z</time>
      </trkpt>
      <trkpt lat="48.261222001165152" lon="7.767468011006713">
        <ele>168.37</ele>
        <time>2025-04-23T07:48:16Z</time>
      </trkpt>
      <trkpt lat="48.25769598595798" lon="7.764783035963774">
        <ele>166.93000000000001</ele>
        <time>2025-04-23T07:48:30Z</time>
      </trkpt>
      <trkpt lat="48.254455961287022" lon="7.76247700676322">
        <ele>166.93000000000001</ele>
        <time>2025-04-23T07:48:44Z</time>
      </trkpt>
      <trkpt lat="48.251094985753298" lon="7.760296035557985">
        <ele>165</ele>
        <time>2025-04-23T07:48:57Z</time>
      </trkpt>
      <trkpt lat="48.246967988088727" lon="7.757844999432564">
        <ele>162.59999999999999</ele>
        <time>2025-04-23T07:49:12Z</time>
      </trkpt>
      <trkpt lat="48.242993038147688" lon="7.755680959671736">
        <ele>160.19999999999999</ele>
        <time>2025-04-23T07:49:28Z</time>
      </trkpt>
      <trkpt lat="48.239962980151176" lon="7.754193004220724">
        <ele>160.68000000000001</ele>
        <time>2025-04-23T07:49:39Z</time>
      </trkpt>
      <trkpt lat="48.235667003318667" lon="7.752311015501618">
        <ele>163.56</ele>
        <time>2025-04-23T07:49:54Z</time>
      </trkpt>
      <trkpt lat="48.231085035949945" lon="7.750565987080336">
        <ele>165.47999999999999</ele>
        <time>2025-04-23T07:50:10Z</time>
      </trkpt>
      <trkpt lat="48.22832596488297" lon="7.749640038236976">
        <ele>166.93000000000001</ele>
        <time>2025-04-23T07:50:21Z</time>
      </trkpt>
      <trkpt lat="48.225904013961554" lon="7.74891902692616">
        <ele>169.81</ele>
        <time>2025-04-23T07:50:31Z</time>
      </trkpt>
      <trkpt lat="48.222296023741364" lon="7.747960975393653">
        <ele>172.21000000000001</ele>
        <time>2025-04-23T07:50:46Z</time>
      </trkpt>
      <trkpt lat="48.219724958762527" lon="7.747405003756285">
        <ele>173.16999999999999</ele>
        <time>2025-04-23T07:50:57Z</time>
      </trkpt>
      <trkpt lat="48.2160359993577" lon="7.746682986617088">
        <ele>174.62</ele>
        <time>2025-04-23T07:51:12Z</time>
      </trkpt>
      <trkpt lat="48.213138962164521" lon="7.746302029117942">
        <ele>177.02000000000001</ele>
        <time>2025-04-23T07:51:24Z</time>
      </trkpt>
      <trkpt lat="48.209425024688244" lon="7.745898021385074">
        <ele>180.38</ele>
        <time>2025-04-23T07:51:39Z</time>
      </trkpt>
      <trkpt lat="48.206908022984862" lon="7.745716972276568">
        <ele>178.94</ele>
        <time>2025-04-23T07:51:49Z</time>
      </trkpt>
      <trkpt lat="48.203547969460487" lon="7.745614964514971">
        <ele>177.02000000000001</ele>
        <time>2025-04-23T07:52:01Z</time>
      </trkpt>
      <trkpt lat="48.200664008036256" lon="7.745623011142016">
        <ele>175.58000000000001</ele>
        <time>2025-04-23T07:52:11Z</time>
      </trkpt>
      <trkpt lat="48.197695976123214" lon="7.745729964226484">
        <ele>174.62</ele>
        <time>2025-04-23T07:52:21Z</time>
      </trkpt>
      <trkpt lat="48.193898973986506" lon="7.7460209839046">
        <ele>174.62</ele>
        <time>2025-04-23T07:52:34Z</time>
      </trkpt>
      <trkpt lat="48.191274013370275" lon="7.746349973604083">
        <ele>175.58000000000001</ele>
        <time>2025-04-23T07:52:43Z</time>
      </trkpt>
      <trkpt lat="48.188345041126013" lon="7.746778959408402">
        <ele>176.53999999999999</ele>
        <time>2025-04-23T07:52:53Z</time>
      </trkpt>
      <trkpt lat="48.185885958373547" lon="7.747220015153289">
        <ele>177.5</ele>
        <time>2025-04-23T07:53:02Z</time>
      </trkpt>
      <trkpt lat="48.182189958170056" lon="7.748060971498489">
        <ele>176.53999999999999</ele>
        <time>2025-04-23T07:53:17Z</time>
      </trkpt>
      <trkpt lat="48.17916501313448" lon="7.748823976144195">
        <ele>177.5</ele>
        <time>2025-04-23T07:53:30Z</time>
      </trkpt>
      <trkpt lat="48.176468973979354" lon="7.749626040458679">
        <ele>177.97999999999999</ele>
        <time>2025-04-23T07:53:41Z</time>
      </trkpt>
      <trkpt lat="48.173119984567165" lon="7.75074502453208">
        <ele>176.53999999999999</ele>
        <time>2025-04-23T07:53:54Z</time>
      </trkpt>
      <trkpt lat="48.170430986210704" lon="7.751765018329024">
        <ele>177.5</ele>
        <time>2025-04-23T07:54:05Z</time>
      </trkpt>
      <trkpt lat="48.168010963127017" lon="7.75274301879108">
        <ele>177.02000000000001</ele>
        <time>2025-04-23T07:54:16Z</time>
      </trkpt>
      <trkpt lat="48.165339985862374" lon="7.753931991755962">
        <ele>178.46000000000001</ele>
        <time>2025-04-23T07:54:28Z</time>
      </trkpt>
      <trkpt lat="48.162879981100559" lon="7.755106966942549">
        <ele>175.09999999999999</ele>
        <time>2025-04-23T07:54:38Z</time>
      </trkpt>
      <trkpt lat="48.159363018348813" lon="7.756932964548469">
        <ele>174.13999999999999</ele>
        <time>2025-04-23T07:54:52Z</time>
      </trkpt>
      <trkpt lat="48.157151034101844" lon="7.75818002410233">
        <ele>176.53999999999999</ele>
        <time>2025-04-23T07:55:02Z</time>
      </trkpt>
      <trkpt lat="48.154793959110975" lon="7.759689018130302">
        <ele>179.90000000000001</ele>
        <time>2025-04-23T07:55:12Z</time>
      </trkpt>
      <trkpt lat="48.152349963784218" lon="7.761461958289146">
        <ele>184.22999999999999</ele>
        <time>2025-04-23T07:55:22Z</time>
      </trkpt>
      <trkpt lat="48.149607991799712" lon="7.763777039945126">
        <ele>184.22999999999999</ele>
        <time>2025-04-23T07:55:33Z</time>
      </trkpt>
      <trkpt lat="48.14607996493578" lon="7.76709602214396">
        <ele>184.71000000000001</ele>
        <time>2025-04-23T07:55:47Z</time>
      </trkpt>
      <trkpt lat="48.142283968627453" lon="7.77061901986599">
        <ele>185.19</ele>
        <time>2025-04-23T07:56:02Z</time>
      </trkpt>
      <trkpt lat="48.13866600394249" lon="7.773636002093554">
        <ele>184.22999999999999</ele>
        <time>2025-04-23T07:56:16Z</time>
      </trkpt>
      <trkpt lat="48.136529959738255" lon="7.77534699998796">
        <ele>183.75</ele>
        <time>2025-04-23T07:56:25Z</time>
      </trkpt>
      <trkpt lat="48.133777007460594" lon="7.777392016723752">
        <ele>182.31</ele>
        <time>2025-04-23T07:56:36Z</time>
      </trkpt>
      <trkpt lat="48.130907965824008" lon="7.779365032911301">
        <ele>183.27000000000001</ele>
        <time>2025-04-23T07:56:48Z</time>
      </trkpt>
      <trkpt lat="48.128518033772707" lon="7.780882995575666">
        <ele>182.78999999999999</ele>
        <time>2025-04-23T07:56:59Z</time>
      </trkpt>
      <trkpt lat="48.126165987923741" lon="7.782267015427351">
        <ele>182.78999999999999</ele>
        <time>2025-04-23T07:57:09Z</time>
      </trkpt>
      <trkpt lat="48.12317700125277" lon="7.78393903747201">
        <ele>182.31</ele>
        <time>2025-04-23T07:57:21Z</time>
      </trkpt>
      <trkpt lat="48.119983999058604" lon="7.785502010956407">
        <ele>182.31</ele>
        <time>2025-04-23T07:57:33Z</time>
      </trkpt>
      <trkpt lat="48.116847993806005" lon="7.786916960030794">
        <ele>184.71000000000001</ele>
        <time>2025-04-23T07:57:44Z</time>
      </trkpt>
      <trkpt lat="48.11397903598845" lon="7.788084978237748">
        <ele>181.83000000000001</ele>
        <time>2025-04-23T07:57:54Z</time>
      </trkpt>
      <trkpt lat="48.109338982030749" lon="7.789666978642345">
        <ele>182.78999999999999</ele>
        <time>2025-04-23T07:58:10Z</time>
      </trkpt>
      <trkpt lat="48.105532005429268" lon="7.790771964937449">
        <ele>184.71000000000001</ele>
        <time>2025-04-23T07:58:23Z</time>
      </trkpt>
      <trkpt lat="48.10027102008462" lon="7.792254975065589">
        <ele>186.63</ele>
        <time>2025-04-23T07:58:41Z</time>
      </trkpt>
      <trkpt lat="48.096928987652063" lon="7.793459035456181">
        <ele>186.15000000000001</ele>
        <time>2025-04-23T07:58:53Z</time>
      </trkpt>
      <trkpt lat="48.094267984852195" lon="7.794626969844103">
        <ele>188.56</ele>
        <time>2025-04-23T07:59:04Z</time>
      </trkpt>
      <trkpt lat="48.091298025101423" lon="7.796121966093779">
        <ele>189.03999999999999</ele>
        <time>2025-04-23T07:59:15Z</time>
      </trkpt>
      <trkpt lat="48.087981976568699" lon="7.798016024753451">
        <ele>189.52000000000001</ele>
        <time>2025-04-23T07:59:27Z</time>
      </trkpt>
      <trkpt lat="48.083646018058062" lon="7.80095798894763">
        <ele>193.36000000000001</ele>
        <time>2025-04-23T07:59:43Z</time>
      </trkpt>
      <trkpt lat="48.080212958157063" lon="7.803656039759517">
        <ele>195.77000000000001</ele>
        <time>2025-04-23T07:59:56Z</time>
      </trkpt>
      <trkpt lat="48.076249994337559" lon="7.806733036413789">
        <ele>197.69</ele>
        <time>2025-04-23T08:00:11Z</time>
      </trkpt>
      <trkpt lat="48.074540002271533" lon="7.807905999943614">
        <ele>198.16999999999999</ele>
        <time>2025-04-23T08:00:18Z</time>
      </trkpt>
      <trkpt lat="48.072056025266647" lon="7.809324972331524">
        <ele>196.72999999999999</ele>
        <time>2025-04-23T08:00:28Z</time>
      </trkpt>
      <trkpt lat="48.069286979734898" lon="7.810571026057005">
        <ele>197.21000000000001</ele>
        <time>2025-04-23T08:00:38Z</time>
      </trkpt>
      <trkpt lat="48.064921014010906" lon="7.811985975131393">
        <ele>198.16999999999999</ele>
        <time>2025-04-23T08:00:53Z</time>
      </trkpt>
      <trkpt lat="48.061081012710929" lon="7.812607996165752">
        <ele>201.05000000000001</ele>
        <time>2025-04-23T08:01:06Z</time>
      </trkpt>
      <trkpt lat="48.05691503919661" lon="7.812630962580442">
        <ele>207.30000000000001</ele>
        <time>2025-04-23T08:01:20Z</time>
      </trkpt>
      <trkpt lat="48.052760967984796" lon="7.812039032578468">
        <ele>214.99000000000001</ele>
        <time>2025-04-23T08:01:34Z</time>
      </trkpt>
      <trkpt lat="48.048961032181978" lon="7.810931028798223">
        <ele>217.40000000000001</ele>
        <time>2025-04-23T08:01:47Z</time>
      </trkpt>
      <trkpt lat="48.046679981052876" lon="7.809928972274065">
        <ele>213.06999999999999</ele>
        <time>2025-04-23T08:01:55Z</time>
      </trkpt>
      <trkpt lat="48.043314982205629" lon="7.808144968003035">
        <ele>210.66999999999999</ele>
        <time>2025-04-23T08:02:07Z</time>
      </trkpt>
      <trkpt lat="48.040089961141348" lon="7.805885039269924">
        <ele>212.59</ele>
        <time>2025-04-23T08:02:19Z</time>
      </trkpt>
      <trkpt lat="48.037243969738483" lon="7.803488988429308">
        <ele>217.88</ele>
        <time>2025-04-23T08:02:30Z</time>
      </trkpt>
      <trkpt lat="48.034305023029447" lon="7.800452979281545">
        <ele>221.24000000000001</ele>
        <time>2025-04-23T08:02:42Z</time>
      </trkpt>
      <trkpt lat="48.031103974208236" lon="7.796455984935165">
        <ele>223.63999999999999</ele>
        <time>2025-04-23T08:02:56Z</time>
      </trkpt>
      <trkpt lat="48.028979999944568" lon="7.793348981067538">
        <ele>223.16</ele>
        <time>2025-04-23T08:03:06Z</time>
      </trkpt>
      <trkpt lat="48.026200979948044" lon="7.788725020363927">
        <ele>223.16</ele>
        <time>2025-04-23T08:03:20Z</time>
      </trkpt>
      <trkpt lat="48.023637961596251" lon="7.783843986690044">
        <ele>222.68000000000001</ele>
        <time>2025-04-23T08:03:34Z</time>
      </trkpt>
      <trkpt lat="48.021965017542243" lon="7.780751986429095">
        <ele>221.72</ele>
        <time>2025-04-23T08:03:43Z</time>
      </trkpt>
      <trkpt lat="48.0195979680866" lon="7.776783993467689">
        <ele>221.72</ele>
        <time>2025-04-23T08:03:55Z</time>
      </trkpt>
      <trkpt lat="48.01768203265965" lon="7.773976977914572">
        <ele>222.19999999999999</ele>
        <time>2025-04-23T08:04:04Z</time>
      </trkpt>
      <trkpt lat="48.015457978472114" lon="7.771037025377154">
        <ele>221.24000000000001</ele>
        <time>2025-04-23T08:04:14Z</time>
      </trkpt>
      <trkpt lat="48.012396991252899" lon="7.767497012391686">
        <ele>219.80000000000001</ele>
        <time>2025-04-23T08:04:27Z</time>
      </trkpt>
      <trkpt lat="48.009134000167251" lon="7.76438900269568">
        <ele>218.84</ele>
        <time>2025-04-23T08:04:40Z</time>
      </trkpt>
      <trkpt lat="48.006026996299624" lon="7.761720959097147">
        <ele>217.88</ele>
        <time>2025-04-23T08:04:52Z</time>
      </trkpt>
      <trkpt lat="48.002138966694474" lon="7.758440030738711">
        <ele>217.40000000000001</ele>
        <time>2025-04-23T08:05:07Z</time>
      </trkpt>
      <trkpt lat="47.998334001749754" lon="7.754969000816345">
        <ele>215.47</ele>
        <time>2025-04-23T08:05:22Z</time>
      </trkpt>
      <trkpt lat="47.996846968308091" lon="7.753522032871842">
        <ele>215.47</ele>
        <time>2025-04-23T08:05:28Z</time>
      </trkpt>
      <trkpt lat="47.992190988734365" lon="7.748715011402965">
        <ele>215.47</ele>
        <time>2025-04-23T08:05:47Z</time>
      </trkpt>
      <trkpt lat="47.988854991272092" lon="7.7450090367347">
        <ele>215.94999999999999</ele>
        <time>2025-04-23T08:06:01Z</time>
      </trkpt>
      <trkpt lat="47.985594011843204" lon="7.741137016564608">
        <ele>215.47</ele>
        <time>2025-04-23T08:06:15Z</time>
      </trkpt>
      <trkpt lat="47.982417019084096" lon="7.73712401278317">
        <ele>214.50999999999999</ele>
        <time>2025-04-23T08:06:29Z</time>
      </trkpt>
      <trkpt lat="47.97978300601244" lon="7.733508981764317">
        <ele>213.55000000000001</ele>
        <time>2025-04-23T08:06:42Z</time>
      </trkpt>
      <trkpt lat="47.977229962125421" lon="7.729825973510742">
        <ele>214.50999999999999</ele>
        <time>2025-04-23T08:06:53Z</time>
      </trkpt>
      <trkpt lat="47.973920032382011" lon="7.724736984819174">
        <ele>221.24000000000001</ele>
        <time>2025-04-23T08:07:09Z</time>
      </trkpt>
      <trkpt lat="47.971333041787148" lon="7.720461040735245">
        <ele>228.93000000000001</ele>
        <time>2025-04-23T08:07:22Z</time>
      </trkpt>
      <trkpt lat="47.968634990975261" lon="7.715737000107765">
        <ele>234.69999999999999</ele>
        <time>2025-04-23T08:07:36Z</time>
      </trkpt>
      <trkpt lat="47.966417977586389" lon="7.71153699606657">
        <ele>235.18000000000001</ele>
        <time>2025-04-23T08:07:48Z</time>
      </trkpt>
      <trkpt lat="47.96407800167799" lon="7.70691404119134">
        <ele>231.33000000000001</ele>
        <time>2025-04-23T08:08:01Z</time>
      </trkpt>
      <trkpt lat="47.962184026837349" lon="7.702933978289366">
        <ele>224.61000000000001</ele>
        <time>2025-04-23T08:08:12Z</time>
      </trkpt>
      <trkpt lat="47.959925020113587" lon="7.697894023731351">
        <ele>216.43000000000001</ele>
        <time>2025-04-23T08:08:26Z</time>
      </trkpt>
      <trkpt lat="47.958122994750738" lon="7.69353199750185">
        <ele>211.15000000000001</ele>
        <time>2025-04-23T08:08:38Z</time>
      </trkpt>
      <trkpt lat="47.956195995211601" lon="7.688472010195255">
        <ele>208.74000000000001</ele>
        <time>2025-04-23T08:08:52Z</time>
      </trkpt>
      <trkpt lat="47.954857992008328" lon="7.68437803722918">
        <ele>207.30000000000001</ele>
        <time>2025-04-23T08:09:04Z</time>
      </trkpt>
      <trkpt lat="47.953837998211384" lon="7.680822014808655">
        <ele>209.22</ele>
        <time>2025-04-23T08:09:14Z</time>
      </trkpt>
      <trkpt lat="47.952724965289235" lon="7.676276005804539">
        <ele>212.11000000000001</ele>
        <time>2025-04-23T08:09:26Z</time>
      </trkpt>
      <trkpt lat="47.951785018667579" lon="7.671512989327312">
        <ele>214.99000000000001</ele>
        <time>2025-04-23T08:09:38Z</time>
      </trkpt>
      <trkpt lat="47.950926041230559" lon="7.666175980120897">
        <ele>214.03</ele>
        <time>2025-04-23T08:09:51Z</time>
      </trkpt>
      <trkpt lat="47.950163036584854" lon="7.660969980061054">
        <ele>211.15000000000001</ele>
        <time>2025-04-23T08:10:03Z</time>
      </trkpt>
      <trkpt lat="47.948897033929825" lon="7.653678981587291">
        <ele>209.69999999999999</ele>
        <time>2025-04-23T08:10:20Z</time>
      </trkpt>
      <trkpt lat="47.947451993823051" lon="7.646925011649728">
        <ele>209.69999999999999</ele>
        <time>2025-04-23T08:10:36Z</time>
      </trkpt>
      <trkpt lat="47.946428982540965" lon="7.642776975408196">
        <ele>208.74000000000001</ele>
        <time>2025-04-23T08:10:46Z</time>
      </trkpt>
      <trkpt lat="47.944614971056581" lon="7.636227020993829">
        <ele>207.78</ele>
        <time>2025-04-23T08:11:02Z</time>
      </trkpt>
      <trkpt lat="47.942965999245644" lon="7.631039964035153">
        <ele>206.34</ele>
        <time>2025-04-23T08:11:15Z</time>
      </trkpt>
      <trkpt lat="47.941568987444043" lon="7.627117987722158">
        <ele>205.38</ele>
        <time>2025-04-23T08:11:25Z</time>
      </trkpt>
      <trkpt lat="47.939659003168344" lon="7.622098987922072">
        <ele>203.94</ele>
        <time>2025-04-23T08:11:38Z</time>
      </trkpt>
      <trkpt lat="47.937562018632889" lon="7.617264976724982">
        <ele>204.41999999999999</ele>
        <time>2025-04-23T08:11:51Z</time>
      </trkpt>
      <trkpt lat="47.935379035770893" lon="7.613077964633703">
        <ele>203.94</ele>
        <time>2025-04-23T08:12:03Z</time>
      </trkpt>
      <trkpt lat="47.932986002415419" lon="7.609149031341076">
        <ele>204.90000000000001</ele>
        <time>2025-04-23T08:12:15Z</time>
      </trkpt>
      <trkpt lat="47.92993800714612" lon="7.60492798872292">
        <ele>205.86000000000001</ele>
        <time>2025-04-23T08:12:29Z</time>
      </trkpt>
      <trkpt lat="47.926391959190369" lon="7.600932000204921">
        <ele>206.34</ele>
        <time>2025-04-23T08:12:44Z</time>
      </trkpt>
      <trkpt lat="47.923647975549102" lon="7.59828700684011">
        <ele>206.81999999999999</ele>
        <time>2025-04-23T08:12:55Z</time>
      </trkpt>
      <trkpt lat="47.920240983366966" lon="7.595556015148759">
        <ele>207.30000000000001</ele>
        <time>2025-04-23T08:13:08Z</time>
      </trkpt>
      <trkpt lat="47.91616402566433" lon="7.592866010963917">
        <ele>206.34</ele>
        <time>2025-04-23T08:13:23Z</time>
      </trkpt>
      <trkpt lat="47.912525022402406" lon="7.590890983119607">
        <ele>204.90000000000001</ele>
        <time>2025-04-23T08:13:36Z</time>
      </trkpt>
      <trkpt lat="47.907968033105135" lon="7.588843032717705">
        <ele>205.86000000000001</ele>
        <time>2025-04-23T08:13:52Z</time>
      </trkpt>
      <trkpt lat="47.90391999296844" lon="7.587450966238976">
        <ele>205.38</ele>
        <time>2025-04-23T08:14:06Z</time>
      </trkpt>
      <trkpt lat="47.898981962352991" lon="7.58580501191318">
        <ele>204.41999999999999</ele>
        <time>2025-04-23T08:14:23Z</time>
      </trkpt>
      <trkpt lat="47.895836988463998" lon="7.584457034245133">
        <ele>204.41999999999999</ele>
        <time>2025-04-23T08:14:34Z</time>
      </trkpt>
      <trkpt lat="47.892185999080539" lon="7.582547971978784">
        <ele>204.90000000000001</ele>
        <time>2025-04-23T08:14:47Z</time>
      </trkpt>
      <trkpt lat="47.889725994318724" lon="7.580967983230948">
        <ele>205.38</ele>
        <time>2025-04-23T08:14:56Z</time>
      </trkpt>
      <trkpt lat="47.887060968205333" lon="7.579013993963599">
        <ele>205.86000000000001</ele>
        <time>2025-04-23T08:15:06Z</time>
      </trkpt>
      <trkpt lat="47.883409978821874" lon="7.576013021171093">
        <ele>206.81999999999999</ele>
        <time>2025-04-23T08:15:20Z</time>
      </trkpt>
      <trkpt lat="47.880553007125854" lon="7.57364597171545">
        <ele>206.81999999999999</ele>
        <time>2025-04-23T08:15:31Z</time>
      </trkpt>
      <trkpt lat="47.877329997718334" lon="7.571386964991689">
        <ele>206.81999999999999</ele>
        <time>2025-04-23T08:15:44Z</time>
      </trkpt>
      <trkpt lat="47.873440040275455" lon="7.569230971857905">
        <ele>207.78</ele>
        <time>2025-04-23T08:15:57Z</time>
      </trkpt>
      <trkpt lat="47.86971696652472" lon="7.567685013636947">
        <ele>209.22</ele>
        <time>2025-04-23T08:16:10Z</time>
      </trkpt>
      <trkpt lat="47.866206038743258" lon="7.566707013174892">
        <ele>209.22</ele>
        <time>2025-04-23T08:16:22Z</time>
      </trkpt>
      <trkpt lat="47.86176597699523" lon="7.566068982705474">
        <ele>209.22</ele>
        <time>2025-04-23T08:16:37Z</time>
      </trkpt>
      <trkpt lat="47.858204003423452" lon="7.566035035997629">
        <ele>208.25999999999999</ele>
        <time>2025-04-23T08:16:49Z</time>
      </trkpt>
      <trkpt lat="47.853432018309832" lon="7.566496040672064">
        <ele>210.19</ele>
        <time>2025-04-23T08:17:05Z</time>
      </trkpt>
      <trkpt lat="47.849565027281642" lon="7.566908011212945">
        <ele>213.06999999999999</ele>
        <time>2025-04-23T08:17:18Z</time>
      </trkpt>
      <trkpt lat="47.844803016632795" lon="7.566852020099759">
        <ele>214.50999999999999</ele>
        <time>2025-04-23T08:17:34Z</time>
      </trkpt>
      <trkpt lat="47.841857029125094" lon="7.566519007086754">
        <ele>214.50999999999999</ele>
        <time>2025-04-23T08:17:44Z</time>
      </trkpt>
      <trkpt lat="47.838607029989362" lon="7.565863961353898">
        <ele>214.50999999999999</ele>
        <time>2025-04-23T08:17:55Z</time>
      </trkpt>
      <trkpt lat="47.834234023466706" lon="7.564594019204378">
        <ele>214.03</ele>
        <time>2025-04-23T08:18:10Z</time>
      </trkpt>
      <trkpt lat="47.830492006614804" lon="7.563139004632831">
        <ele>214.50999999999999</ele>
        <time>2025-04-23T08:18:23Z</time>
      </trkpt>
      <trkpt lat="47.826817966997623" lon="7.56135399453342">
        <ele>216.43000000000001</ele>
        <time>2025-04-23T08:18:36Z</time>
      </trkpt>
      <trkpt lat="47.822676971554756" lon="7.558940006420016">
        <ele>218.36000000000001</ele>
        <time>2025-04-23T08:18:51Z</time>
      </trkpt>
      <trkpt lat="47.820865977555513" lon="7.557761007919908">
        <ele>217.40000000000001</ele>
        <time>2025-04-23T08:18:59Z</time>
      </trkpt>
      <trkpt lat="47.818721970543265" lon="7.556254025548697">
        <ele>218.36000000000001</ele>
        <time>2025-04-23T08:19:10Z</time>
      </trkpt>
      <trkpt lat="47.816414013504982" lon="7.554596001282334">
        <ele>218.36000000000001</ele>
        <time>2025-04-23T08:19:22Z</time>
      </trkpt>
      <trkpt lat="47.815741030499339" lon="7.553958976641297">
        <ele>218.36000000000001</ele>
        <time>2025-04-23T08:19:27Z</time>
      </trkpt>
      <trkpt lat="47.815633993595839" lon="7.553763007745147">
        <ele>217.88</ele>
        <time>2025-04-23T08:19:28Z</time>
      </trkpt>
      <trkpt lat="47.815533997491002" lon="7.553579024970532">
        <ele>217.88</ele>
        <time>2025-04-23T08:19:29Z</time>
      </trkpt>
      <trkpt lat="47.815454034134746" lon="7.55338498391211">
        <ele>217.88</ele>
        <time>2025-04-23T08:19:30Z</time>
      </trkpt>
      <trkpt lat="47.815395025536418" lon="7.553166970610619">
        <ele>217.88</ele>
        <time>2025-04-23T08:19:31Z</time>
      </trkpt>
      <trkpt lat="47.815362000837922" lon="7.552928002551198">
        <ele>217.88</ele>
        <time>2025-04-23T08:19:32Z</time>
      </trkpt>
      <trkpt lat="47.815327970311046" lon="7.552685011178255">
        <ele>217.88</ele>
        <time>2025-04-23T08:19:33Z</time>
      </trkpt>
      <trkpt lat="47.815139964222908" lon="7.551776999607682">
        <ele>219.31999999999999</ele>
        <time>2025-04-23T08:19:37Z</time>
      </trkpt>
      <trkpt lat="47.815067963674664" lon="7.551598967984319">
        <ele>219.80000000000001</ele>
        <time>2025-04-23T08:19:38Z</time>
      </trkpt>
      <trkpt lat="47.814993029460311" lon="7.551439963281155">
        <ele>220.28</ele>
        <time>2025-04-23T08:19:39Z</time>
      </trkpt>
      <trkpt lat="47.814912982285023" lon="7.551295962184668">
        <ele>220.75999999999999</ele>
        <time>2025-04-23T08:19:40Z</time>
      </trkpt>
      <trkpt lat="47.814824972301722" lon="7.551179034635425">
        <ele>221.24000000000001</ele>
        <time>2025-04-23T08:19:41Z</time>
      </trkpt>
      <trkpt lat="47.814741991460323" lon="7.551067974418402">
        <ele>221.72</ele>
        <time>2025-04-23T08:19:42Z</time>
      </trkpt>
      <trkpt lat="47.814664961770177" lon="7.550977030768991">
        <ele>222.19999999999999</ele>
        <time>2025-04-23T08:19:43Z</time>
      </trkpt>
      <trkpt lat="47.814582986757159" lon="7.550906036049128">
        <ele>223.16</ele>
        <time>2025-04-23T08:19:44Z</time>
      </trkpt>
      <trkpt lat="47.814403027296066" lon="7.550748959183693">
        <ele>224.61000000000001</ele>
        <time>2025-04-23T08:19:47Z</time>
      </trkpt>
      <trkpt lat="47.814366985112429" lon="7.550719035789371">
        <ele>224.61000000000001</ele>
        <time>2025-04-23T08:19:48Z</time>
      </trkpt>
      <trkpt lat="47.814337983727455" lon="7.550631025806069">
        <ele>225.09</ele>
        <time>2025-04-23T08:19:49Z</time>
      </trkpt>
      <trkpt lat="47.814272018149495" lon="7.550509991124272">
        <ele>226.05000000000001</ele>
        <time>2025-04-23T08:19:51Z</time>
      </trkpt>
      <trkpt lat="47.814218960702419" lon="7.550484007224441">
        <ele>226.05000000000001</ele>
        <time>2025-04-23T08:19:52Z</time>
      </trkpt>
      <trkpt lat="47.81417403370142" lon="7.550461040809751">
        <ele>226.53</ele>
        <time>2025-04-23T08:19:53Z</time>
      </trkpt>
      <trkpt lat="47.814108990132809" lon="7.550527006387711">
        <ele>227.00999999999999</ele>
        <time>2025-04-23T08:19:54Z</time>
      </trkpt>
      <trkpt lat="47.814050987362862" lon="7.550585009157658">
        <ele>227.00999999999999</ele>
        <time>2025-04-23T08:19:55Z</time>
      </trkpt>
      <trkpt lat="47.814030032604933" lon="7.550666984170675">
        <ele>227.49000000000001</ele>
        <time>2025-04-23T08:19:56Z</time>
      </trkpt>
      <trkpt lat="47.814023997634649" lon="7.550696991384029">
        <ele>227.49000000000001</ele>
        <time>2025-04-23T08:19:57Z</time>
      </trkpt>
      <trkpt lat="47.814107984304428" lon="7.550922967493534">
        <ele>227.49000000000001</ele>
        <time>2025-04-23T08:19:58Z</time>
      </trkpt>
      <trkpt lat="47.81408803537488" lon="7.551022041589022">
        <ele>227.49000000000001</ele>
        <time>2025-04-23T08:19:59Z</time>
      </trkpt>
      <trkpt lat="47.814072025939822" lon="7.55114802159369">
        <ele>227.49000000000001</ele>
        <time>2025-04-23T08:20:00Z</time>
      </trkpt>
      <trkpt lat="47.814056016504765" lon="7.551275007426739">
        <ele>227.00999999999999</ele>
        <time>2025-04-23T08:20:01Z</time>
      </trkpt>
      <trkpt lat="47.813942022621632" lon="7.552714012563229">
        <ele>225.56999999999999</ele>
        <time>2025-04-23T08:20:10Z</time>
      </trkpt>
      <trkpt lat="47.813985021784902" lon="7.553996024653316">
        <ele>222.68000000000001</ele>
        <time>2025-04-23T08:20:18Z</time>
      </trkpt>
      <trkpt lat="47.814017962664366" lon="7.554346974939108">
        <ele>220.75999999999999</ele>
        <time>2025-04-23T08:20:25Z</time>
      </trkpt>
      <trkpt lat="47.814049981534481" lon="7.55454202182591">
        <ele>219.80000000000001</ele>
        <time>2025-04-23T08:20:32Z</time>
      </trkpt>
      <trkpt lat="47.813988961279392" lon="7.554922979325056">
        <ele>219.31999999999999</ele>
        <time>2025-04-23T08:20:39Z</time>
      </trkpt>
      <trkpt lat="47.814007988199592" lon="7.555026998743415">
        <ele>219.31999999999999</ele>
        <time>2025-04-23T08:20:40Z</time>
      </trkpt>
      <trkpt lat="47.814023997634649" lon="7.555075027048588">
        <ele>219.31999999999999</ele>
        <time>2025-04-23T08:20:41Z</time>
      </trkpt>
      <trkpt lat="47.814099015668035" lon="7.555129006505013">
        <ele>219.31999999999999</ele>
        <time>2025-04-23T08:20:42Z</time>
      </trkpt>
      <trkpt lat="47.814179984852672" lon="7.555237971246243">
        <ele>219.31999999999999</ele>
        <time>2025-04-23T08:20:43Z</time>
      </trkpt>
      <trkpt lat="47.814189959317446" lon="7.555326987057924">
        <ele>219.31999999999999</ele>
        <time>2025-04-23T08:20:44Z</time>
      </trkpt>
      <trkpt lat="47.814199011772871" lon="7.555414997041225">
        <ele>219.31999999999999</ele>
        <time>2025-04-23T08:20:45Z</time>
      </trkpt>
      <trkpt lat="47.814208986237645" lon="7.55551197566092">
        <ele>219.31999999999999</ele>
        <time>2025-04-23T08:20:46Z</time>
      </trkpt>
      <trkpt lat="47.814228013157845" lon="7.555627981200814">
        <ele>219.31999999999999</ele>
        <time>2025-04-23T08:20:47Z</time>
      </trkpt>
      <trkpt lat="47.814523978158832" lon="7.556595001369715">
        <ele>219.80000000000001</ele>
        <time>2025-04-23T08:20:53Z</time>
      </trkpt>
      <trkpt lat="47.814569994807243" lon="7.557042008265853">
        <ele>220.28</ele>
        <time>2025-04-23T08:20:56Z</time>
      </trkpt>
      <trkpt lat="47.814579969272017" lon="7.557169999927282">
        <ele>220.28</ele>
        <time>2025-04-23T08:20:57Z</time>
      </trkpt>
      <trkpt lat="47.814572006464005" lon="7.557220039889216">
        <ele>219.80000000000001</ele>
        <time>2025-04-23T08:20:58Z</time>
      </trkpt>
      <trkpt lat="47.814601007848978" lon="7.557399999350309">
        <ele>219.80000000000001</ele>
        <time>2025-04-23T08:20:59Z</time>
      </trkpt>
      <trkpt lat="47.81454099342227" lon="7.557488009333611">
        <ele>219.31999999999999</ele>
        <time>2025-04-23T08:21:00Z</time>
      </trkpt>
      <trkpt lat="47.814477039501071" lon="7.557580964639783">
        <ele>219.31999999999999</ele>
        <time>2025-04-23T08:21:01Z</time>
      </trkpt>
      <trkpt lat="47.814285010099411" lon="7.557855974882841">
        <ele>220.75999999999999</ele>
        <time>2025-04-23T08:21:04Z</time>
      </trkpt>
      <trkpt lat="47.814242010936141" lon="7.557966029271483">
        <ele>221.72</ele>
        <time>2025-04-23T08:21:05Z</time>
      </trkpt>
      <trkpt lat="47.814200017601252" lon="7.558074994012713">
        <ele>222.68000000000001</ele>
        <time>2025-04-23T08:21:06Z</time>
      </trkpt>
      <trkpt lat="47.814035983756185" lon="7.558817965909839">
        <ele>229.88999999999999</ele>
        <time>2025-04-23T08:21:15Z</time>
      </trkpt>
      <trkpt lat="47.814028020948172" lon="7.55886398255825">
        <ele>230.37</ele>
        <time>2025-04-23T08:21:18Z</time>
      </trkpt>
      <trkpt lat="47.814019974321127" lon="7.558903964236379">
        <ele>231.33000000000001</ele>
        <time>2025-04-23T08:21:19Z</time>
      </trkpt>
      <trkpt lat="47.814002959057689" lon="7.559002032503486">
        <ele>231.33000000000001</ele>
        <time>2025-04-23T08:21:20Z</time>
      </trkpt>
      <trkpt lat="47.814002959057689" lon="7.559002032503486">
        <ele>231.81</ele>
        <time>2025-04-23T08:21:21Z</time>
      </trkpt>
      <trkpt lat="47.813911009579897" lon="7.559051988646388">
        <ele>231.81</ele>
        <time>2025-04-23T08:21:22Z</time>
      </trkpt>
      <trkpt lat="47.813850995153189" lon="7.559037990868092">
        <ele>232.30000000000001</ele>
        <time>2025-04-23T08:21:23Z</time>
      </trkpt>
      <trkpt lat="47.813795004040003" lon="7.559021981433034">
        <ele>232.30000000000001</ele>
        <time>2025-04-23T08:21:24Z</time>
      </trkpt>
      <trkpt lat="47.81374798156321" lon="7.559008989483118">
        <ele>232.30000000000001</ele>
        <time>2025-04-23T08:21:25Z</time>
      </trkpt>
      <trkpt lat="47.813656032085419" lon="7.558988034725189">
        <ele>233.25999999999999</ele>
        <time>2025-04-23T08:21:34Z</time>
      </trkpt>
      <trkpt lat="47.813558969646692" lon="7.558749988675118">
        <ele>233.25999999999999</ele>
        <time>2025-04-23T08:21:39Z</time>
      </trkpt>
      <trkpt lat="47.813503984361887" lon="7.558756023645401">
        <ele>233.25999999999999</ele>
        <time>2025-04-23T08:21:40Z</time>
      </trkpt>
      <trkpt lat="47.813428966328502" lon="7.558763986453414">
        <ele>232.78</ele>
        <time>2025-04-23T08:21:41Z</time>
      </trkpt>
      <trkpt lat="47.812593961134553" lon="7.558856019750238">
        <ele>227.00999999999999</ele>
        <time>2025-04-23T08:21:51Z</time>
      </trkpt>
      <trkpt lat="47.812216021120548" lon="7.558897007256746">
        <ele>225.09</ele>
        <time>2025-04-23T08:21:56Z</time>
      </trkpt>
      <trkpt lat="47.812152989208698" lon="7.558903964236379">
        <ele>225.09</ele>
        <time>2025-04-23T08:21:57Z</time>
      </trkpt>
      <trkpt lat="47.812102027237415" lon="7.558909999206662">
        <ele>225.09</ele>
        <time>2025-04-23T08:21:58Z</time>
      </trkpt>
      <trkpt lat="47.812024997547269" lon="7.558832969516516">
        <ele>225.09</ele>
        <time>2025-04-23T08:21:59Z</time>
      </trkpt>
      <trkpt lat="47.812004964798689" lon="7.558769015595317">
        <ele>225.09</ele>
        <time>2025-04-23T08:22:00Z</time>
      </trkpt>
      <trkpt lat="47.811988033354282" lon="7.55871101282537">
        <ele>224.61000000000001</ele>
        <time>2025-04-23T08:22:01Z</time>
      </trkpt>
      <trkpt lat="47.811970012262464" lon="7.558653010055423">
        <ele>224.61000000000001</ele>
        <time>2025-04-23T08:22:02Z</time>
      </trkpt>
      <trkpt lat="47.811951991170645" lon="7.558594001457095">
        <ele>224.61000000000001</ele>
        <time>2025-04-23T08:22:03Z</time>
      </trkpt>
      <trkpt lat="47.811931036412716" lon="7.558524012565613">
        <ele>224.12</ele>
        <time>2025-04-23T08:22:04Z</time>
      </trkpt>
      <trkpt lat="47.811655020341277" lon="7.557750027626753">
        <ele>223.16</ele>
        <time>2025-04-23T08:22:13Z</time>
      </trkpt>
      <trkpt lat="47.811578996479511" lon="7.557540982961655">
        <ele>222.19999999999999</ele>
        <time>2025-04-23T08:22:20Z</time>
      </trkpt>
      <trkpt lat="47.8115329798311" lon="7.557418020442128">
        <ele>221.72</ele>
        <time>2025-04-23T08:22:23Z</time>
      </trkpt>
      <trkpt lat="47.811256041750312" lon="7.556688040494919">
        <ele>221.24000000000001</ele>
        <time>2025-04-23T08:22:29Z</time>
      </trkpt>
      <trkpt lat="47.810955969616771" lon="7.555847000330687">
        <ele>219.80000000000001</ele>
        <time>2025-04-23T08:22:35Z</time>
      </trkpt>
      <trkpt lat="47.810945995151997" lon="7.555784974247217">
        <ele>219.80000000000001</ele>
        <time>2025-04-23T08:22:36Z</time>
      </trkpt>
      <trkpt lat="47.810939960181713" lon="7.555739963427186">
        <ele>220.28</ele>
        <time>2025-04-23T08:22:37Z</time>
      </trkpt>
      <trkpt lat="47.810935014858842" lon="7.555708028376102">
        <ele>220.75999999999999</ele>
        <time>2025-04-23T08:22:38Z</time>
      </trkpt>
      <trkpt lat="47.811043979600072" lon="7.555452967062593">
        <ele>220.75999999999999</ele>
        <time>2025-04-23T08:22:39Z</time>
      </trkpt>
      <trkpt lat="47.811067029833794" lon="7.555459002032876">
        <ele>220.75999999999999</ele>
        <time>2025-04-23T08:22:40Z</time>
      </trkpt>
      <trkpt lat="47.811087984591722" lon="7.555463025346398">
        <ele>220.75999999999999</ele>
        <time>2025-04-23T08:22:41Z</time>
      </trkpt>
      <trkpt lat="47.811112040653825" lon="7.55546897649765">
        <ele>220.75999999999999</ele>
        <time>2025-04-23T08:22:42Z</time>
      </trkpt>
      <trkpt lat="47.81114699319005" lon="7.555477023124695">
        <ele>221.24000000000001</ele>
        <time>2025-04-23T08:22:43Z</time>
      </trkpt>
      <trkpt lat="47.811206001788378" lon="7.555492026731372">
        <ele>221.24000000000001</ele>
        <time>2025-04-23T08:22:44Z</time>
      </trkpt>
      <trkpt lat="47.811288982629776" lon="7.555512981489301">
        <ele>221.24000000000001</ele>
        <time>2025-04-23T08:22:45Z</time>
      </trkpt>
      <trkpt lat="47.811395013704896" lon="7.555540977045894">
        <ele>221.24000000000001</ele>
        <time>2025-04-23T08:22:46Z</time>
      </trkpt>
      <trkpt lat="47.812412995845079" lon="7.555668968707323">
        <ele>220.28</ele>
        <time>2025-04-23T08:22:53Z</time>
      </trkpt>
      <trkpt lat="47.812861008569598" lon="7.555676009505987">
        <ele>220.28</ele>
        <time>2025-04-23T08:22:56Z</time>
      </trkpt>
      <trkpt lat="47.813001992180943" lon="7.555676009505987">
        <ele>220.28</ele>
        <time>2025-04-23T08:22:57Z</time>
      </trkpt>
      <trkpt lat="47.813489986583591" lon="7.555676009505987">
        <ele>220.75999999999999</ele>
        <time>2025-04-23T08:23:02Z</time>
      </trkpt>
      <trkpt lat="47.81355201266706" lon="7.555911960080266">
        <ele>220.75999999999999</ele>
        <time>2025-04-23T08:23:03Z</time>
      </trkpt>
      <trkpt lat="47.81355201266706" lon="7.555911960080266">
        <ele>220.28</ele>
        <time>2025-04-23T08:23:04Z</time>
      </trkpt>
      <trkpt lat="47.81363901682198" lon="7.555911960080266">
        <ele>219.80000000000001</ele>
        <time>2025-04-23T08:23:08Z</time>
      </trkpt>
      <trkpt lat="47.813696013763547" lon="7.555911960080266">
        <ele>219.80000000000001</ele>
        <time>2025-04-23T08:23:20Z</time>
      </trkpt>
      <trkpt lat="47.813696013763547" lon="7.555911960080266">
        <ele>219.31999999999999</ele>
        <time>2025-04-23T08:24:01Z</time>
      </trkpt>
      <trkpt lat="47.813815036788583" lon="7.555782040581107">
        <ele>242.87</ele>
        <time>2025-04-23T08:31:16Z</time>
      </trkpt>
      <trkpt lat="47.813798021525145" lon="7.555756978690624">
        <ele>243.34999999999999</ele>
        <time>2025-04-23T08:31:57Z</time>
      </trkpt>
      <trkpt lat="47.813801039010286" lon="7.555758990347385">
        <ele>243.34999999999999</ele>
        <time>2025-04-23T08:32:34Z</time>
      </trkpt>
      <trkpt lat="47.813676986843348" lon="7.555696964263916">
        <ele>237.58000000000001</ele>
        <time>2025-04-23T08:32:52Z</time>
      </trkpt>
      <trkpt lat="47.813676986843348" lon="7.555696964263916">
        <ele>237.58000000000001</ele>
        <time>2025-04-23T08:33:22Z</time>
      </trkpt>
      <trkpt lat="47.813670029863715" lon="7.555710040032864">
        <ele>237.09999999999999</ele>
        <time>2025-04-23T08:34:00Z</time>
      </trkpt>
      <trkpt lat="47.813627030700445" lon="7.555664023384452">
        <ele>230.84999999999999</ele>
        <time>2025-04-23T08:34:09Z</time>
      </trkpt>
      <trkpt lat="47.813653014600277" lon="7.55566100589931">
        <ele>230.37</ele>
        <time>2025-04-23T08:34:10Z</time>
      </trkpt>
      <trkpt lat="47.813690984621644" lon="7.555654970929027">
        <ele>229.88999999999999</ele>
        <time>2025-04-23T08:34:11Z</time>
      </trkpt>
      <trkpt lat="47.813753010705113" lon="7.555644996464253">
        <ele>229.88999999999999</ele>
        <time>2025-04-23T08:34:12Z</time>
      </trkpt>
      <trkpt lat="47.813827022910118" lon="7.555634016171098">
        <ele>229.41</ele>
        <time>2025-04-23T08:34:13Z</time>
      </trkpt>
      <trkpt lat="47.814077977091074" lon="7.555603003129363">
        <ele>227.97</ele>
        <time>2025-04-23T08:34:16Z</time>
      </trkpt>
      <trkpt lat="47.81426003202796" lon="7.555567966774106">
        <ele>227.97</ele>
        <time>2025-04-23T08:34:17Z</time>
      </trkpt>
      <trkpt lat="47.81520701944828" lon="7.555564027279615">
        <ele>226.05000000000001</ele>
        <time>2025-04-23T08:34:27Z</time>
      </trkpt>
      <trkpt lat="47.815359989181161" lon="7.555630998685956">
        <ele>226.05000000000001</ele>
        <time>2025-04-23T08:34:29Z</time>
      </trkpt>
      <trkpt lat="47.815426038578153" lon="7.55566000007093">
        <ele>225.56999999999999</ele>
        <time>2025-04-23T08:34:30Z</time>
      </trkpt>
      <trkpt lat="47.815475994721055" lon="7.555777011439204">
        <ele>225.56999999999999</ele>
        <time>2025-04-23T08:34:31Z</time>
      </trkpt>
      <trkpt lat="47.815483035519719" lon="7.555825961753726">
        <ele>226.05000000000001</ele>
        <time>2025-04-23T08:34:32Z</time>
      </trkpt>
      <trkpt lat="47.815471971407533" lon="7.556002987548709">
        <ele>226.05000000000001</ele>
        <time>2025-04-23T08:34:33Z</time>
      </trkpt>
      <trkpt lat="47.81546400859952" lon="7.556129973381758">
        <ele>226.53</ele>
        <time>2025-04-23T08:34:34Z</time>
      </trkpt>
      <trkpt lat="47.815429978072643" lon="7.556228041648865">
        <ele>227.00999999999999</ele>
        <time>2025-04-23T08:34:35Z</time>
      </trkpt>
      <trkpt lat="47.815373986959457" lon="7.556333988904953">
        <ele>227.49000000000001</ele>
        <time>2025-04-23T08:34:36Z</time>
      </trkpt>
      <trkpt lat="47.81531497836113" lon="7.556443037465215">
        <ele>227.49000000000001</ele>
        <time>2025-04-23T08:34:37Z</time>
      </trkpt>
      <trkpt lat="47.815256975591183" lon="7.556553008034825">
        <ele>227.97</ele>
        <time>2025-04-23T08:34:38Z</time>
      </trkpt>
      <trkpt lat="47.815139964222908" lon="7.556772027164698">
        <ele>228.93000000000001</ele>
        <time>2025-04-23T08:34:40Z</time>
      </trkpt>
      <trkpt lat="47.815021025016904" lon="7.556819971650839">
        <ele>228.93000000000001</ele>
        <time>2025-04-23T08:34:41Z</time>
      </trkpt>
      <trkpt lat="47.814932009205222" lon="7.556826006621122">
        <ele>229.41</ele>
        <time>2025-04-23T08:34:42Z</time>
      </trkpt>
      <trkpt lat="47.81484198756516" lon="7.556832041591406">
        <ele>229.41</ele>
        <time>2025-04-23T08:34:43Z</time>
      </trkpt>
      <trkpt lat="47.814750960096717" lon="7.556788036599755">
        <ele>229.41</ele>
        <time>2025-04-23T08:34:44Z</time>
      </trkpt>
      <trkpt lat="47.814664039760828" lon="7.556728022173047">
        <ele>228.93000000000001</ele>
        <time>2025-04-23T08:34:45Z</time>
      </trkpt>
      <trkpt lat="47.814578963443637" lon="7.556669013574719">
        <ele>228.93000000000001</ele>
        <time>2025-04-23T08:34:46Z</time>
      </trkpt>
      <trkpt lat="47.814500005915761" lon="7.556525012478232">
        <ele>228.44999999999999</ele>
        <time>2025-04-23T08:34:47Z</time>
      </trkpt>
      <trkpt lat="47.814461030066013" lon="7.556404983624816">
        <ele>228.44999999999999</ele>
        <time>2025-04-23T08:34:48Z</time>
      </trkpt>
      <trkpt lat="47.814423982053995" lon="7.55628202110529">
        <ele>227.97</ele>
        <time>2025-04-23T08:34:49Z</time>
      </trkpt>
      <trkpt lat="47.814209992066026" lon="7.555523961782455">
        <ele>227.97</ele>
        <time>2025-04-23T08:34:55Z</time>
      </trkpt>
      <trkpt lat="47.814199011772871" lon="7.555419020354748">
        <ele>227.97</ele>
        <time>2025-04-23T08:34:56Z</time>
      </trkpt>
      <trkpt lat="47.814189959317446" lon="7.555326987057924">
        <ele>227.97</ele>
        <time>2025-04-23T08:34:57Z</time>
      </trkpt>
      <trkpt lat="47.81426003202796" lon="7.555138980969787">
        <ele>227.97</ele>
        <time>2025-04-23T08:34:58Z</time>
      </trkpt>
      <trkpt lat="47.814265983179212" lon="7.555125989019871">
        <ele>227.49000000000001</ele>
        <time>2025-04-23T08:34:59Z</time>
      </trkpt>
      <trkpt lat="47.81430403701961" lon="7.55503797903657">
        <ele>227.49000000000001</ele>
        <time>2025-04-23T08:35:00Z</time>
      </trkpt>
      <trkpt lat="47.814307976514101" lon="7.55493002012372">
        <ele>227.00999999999999</ele>
        <time>2025-04-23T08:35:01Z</time>
      </trkpt>
      <trkpt lat="47.81428299844265" lon="7.554834969341755">
        <ele>226.53</ele>
        <time>2025-04-23T08:35:02Z</time>
      </trkpt>
      <trkpt lat="47.81426003202796" lon="7.554752994328737">
        <ele>225.56999999999999</ele>
        <time>2025-04-23T08:35:03Z</time>
      </trkpt>
      <trkpt lat="47.81417696736753" lon="7.554741008207202">
        <ele>225.09</ele>
        <time>2025-04-23T08:35:04Z</time>
      </trkpt>
      <trkpt lat="47.814070014283061" lon="7.554632965475321">
        <ele>224.61000000000001</ele>
        <time>2025-04-23T08:35:05Z</time>
      </trkpt>
      <trkpt lat="47.814040007069707" lon="7.554487958550453">
        <ele>224.61000000000001</ele>
        <time>2025-04-23T08:35:06Z</time>
      </trkpt>
      <trkpt lat="47.814017040655017" lon="7.554331971332431">
        <ele>224.61000000000001</ele>
        <time>2025-04-23T08:35:07Z</time>
      </trkpt>
      <trkpt lat="47.814001031219959" lon="7.554168021306396">
        <ele>224.61000000000001</ele>
        <time>2025-04-23T08:35:08Z</time>
      </trkpt>
      <trkpt lat="47.813984015956521" lon="7.553994012996554">
        <ele>225.09</ele>
        <time>2025-04-23T08:35:09Z</time>
      </trkpt>
      <trkpt lat="47.813970018178225" lon="7.5538120418787">
        <ele>225.09</ele>
        <time>2025-04-23T08:35:10Z</time>
      </trkpt>
      <trkpt lat="47.813975969329476" lon="7.551995012909174">
        <ele>228.44999999999999</ele>
        <time>2025-04-23T08:35:21Z</time>
      </trkpt>
      <trkpt lat="47.814060961827636" lon="7.551241982728243">
        <ele>228.93000000000001</ele>
        <time>2025-04-23T08:35:27Z</time>
      </trkpt>
      <trkpt lat="47.814073031768203" lon="7.551139974966645">
        <ele>228.44999999999999</ele>
        <time>2025-04-23T08:35:28Z</time>
      </trkpt>
      <trkpt lat="47.81408803537488" lon="7.55101902410388">
        <ele>228.44999999999999</ele>
        <time>2025-04-23T08:35:29Z</time>
      </trkpt>
      <trkpt lat="47.814092980697751" lon="7.550997985526919">
        <ele>228.44999999999999</ele>
        <time>2025-04-23T08:35:30Z</time>
      </trkpt>
      <trkpt lat="47.814170010387897" lon="7.550911987200379">
        <ele>227.97</ele>
        <time>2025-04-23T08:35:31Z</time>
      </trkpt>
      <trkpt lat="47.81421703286469" lon="7.550911987200379">
        <ele>227.97</ele>
        <time>2025-04-23T08:35:32Z</time>
      </trkpt>
      <trkpt lat="47.81428299844265" lon="7.550907963886857">
        <ele>227.97</ele>
        <time>2025-04-23T08:35:33Z</time>
      </trkpt>
      <trkpt lat="47.814318034797907" lon="7.550830012187362">
        <ele>227.97</ele>
        <time>2025-04-23T08:35:34Z</time>
      </trkpt>
      <trkpt lat="47.814352987334132" lon="7.550750970840454">
        <ele>227.97</ele>
        <time>2025-04-23T08:35:35Z</time>
      </trkpt>
      <trkpt lat="47.814343012869358" lon="7.550644017755985">
        <ele>227.97</ele>
        <time>2025-04-23T08:35:36Z</time>
      </trkpt>
      <trkpt lat="47.814317028969526" lon="7.550567993894219">
        <ele>227.97</ele>
        <time>2025-04-23T08:35:37Z</time>
      </trkpt>
      <trkpt lat="47.814279980957508" lon="7.550514014437795">
        <ele>227.97</ele>
        <time>2025-04-23T08:35:38Z</time>
      </trkpt>
      <trkpt lat="47.814232036471367" lon="7.550489958375692">
        <ele>227.97</ele>
        <time>2025-04-23T08:35:39Z</time>
      </trkpt>
      <trkpt lat="47.814181996509433" lon="7.550464980304241">
        <ele>227.49000000000001</ele>
        <time>2025-04-23T08:35:40Z</time>
      </trkpt>
      <trkpt lat="47.814148971810937" lon="7.550487024709582">
        <ele>227.49000000000001</ele>
        <time>2025-04-23T08:35:41Z</time>
      </trkpt>
      <trkpt lat="47.814105972647667" lon="7.550530023872852">
        <ele>227.00999999999999</ele>
        <time>2025-04-23T08:35:42Z</time>
      </trkpt>
      <trkpt lat="47.814045958220959" lon="7.550590038299561">
        <ele>227.00999999999999</ele>
        <time>2025-04-23T08:35:43Z</time>
      </trkpt>
      <trkpt lat="47.814040007069707" lon="7.550617028027773">
        <ele>227.00999999999999</ele>
        <time>2025-04-23T08:35:44Z</time>
      </trkpt>
      <trkpt lat="47.814023997634649" lon="7.550694979727268">
        <ele>226.53</ele>
        <time>2025-04-23T08:35:45Z</time>
      </trkpt>
      <trkpt lat="47.814052999019623" lon="7.550769997760654">
        <ele>226.53</ele>
        <time>2025-04-23T08:35:46Z</time>
      </trkpt>
      <trkpt lat="47.814079988747835" lon="7.550836969166994">
        <ele>226.53</ele>
        <time>2025-04-23T08:35:47Z</time>
      </trkpt>
      <trkpt lat="47.814113013446331" lon="7.550911987200379">
        <ele>226.05000000000001</ele>
        <time>2025-04-23T08:35:48Z</time>
      </trkpt>
      <trkpt lat="47.814161963760853" lon="7.550911987200379">
        <ele>225.56999999999999</ele>
        <time>2025-04-23T08:35:49Z</time>
      </trkpt>
      <trkpt lat="47.8142199665308" lon="7.550911987200379">
        <ele>226.05000000000001</ele>
        <time>2025-04-23T08:35:50Z</time>
      </trkpt>
      <trkpt lat="47.814271012321115" lon="7.550911987200379">
        <ele>225.56999999999999</ele>
        <time>2025-04-23T08:35:51Z</time>
      </trkpt>
      <trkpt lat="47.814281992614269" lon="7.550911987200379">
        <ele>226.05000000000001</ele>
        <time>2025-04-23T08:35:52Z</time>
      </trkpt>
      <trkpt lat="47.814281992614269" lon="7.550911987200379">
        <ele>226.05000000000001</ele>
        <time>2025-04-23T08:35:53Z</time>
      </trkpt>
      <trkpt lat="47.814466981217265" lon="7.550805034115911">
        <ele>226.05000000000001</ele>
        <time>2025-04-23T08:35:54Z</time>
      </trkpt>
      <trkpt lat="47.814534958451986" lon="7.550863958895207">
        <ele>225.56999999999999</ele>
        <time>2025-04-23T08:35:55Z</time>
      </trkpt>
      <trkpt lat="47.814618023112416" lon="7.55093595944345">
        <ele>225.56999999999999</ele>
        <time>2025-04-23T08:35:56Z</time>
      </trkpt>
      <trkpt lat="47.814707038924098" lon="7.551022041589022">
        <ele>225.09</ele>
        <time>2025-04-23T08:35:57Z</time>
      </trkpt>
      <trkpt lat="47.814793959259987" lon="7.551137041300535">
        <ele>224.12</ele>
        <time>2025-04-23T08:35:59Z</time>
      </trkpt>
      <trkpt lat="47.815055977553129" lon="7.551573989912868">
        <ele>223.63999999999999</ele>
        <time>2025-04-23T08:36:01Z</time>
      </trkpt>
      <trkpt lat="47.815130995586514" lon="7.551749004051089">
        <ele>223.16</ele>
        <time>2025-04-23T08:36:02Z</time>
      </trkpt>
      <trkpt lat="47.815187992528081" lon="7.551937010139227">
        <ele>222.68000000000001</ele>
        <time>2025-04-23T08:36:03Z</time>
      </trkpt>
      <trkpt lat="47.815244989469647" lon="7.552127027884126">
        <ele>222.19999999999999</ele>
        <time>2025-04-23T08:36:04Z</time>
      </trkpt>
      <trkpt lat="47.815276002511382" lon="7.552326014265418">
        <ele>221.72</ele>
        <time>2025-04-23T08:36:05Z</time>
      </trkpt>
      <trkpt lat="47.815302992239594" lon="7.552507985383272">
        <ele>220.75999999999999</ele>
        <time>2025-04-23T08:36:06Z</time>
      </trkpt>
      <trkpt lat="47.815297041088343" lon="7.552690962329507">
        <ele>220.28</ele>
        <time>2025-04-23T08:36:07Z</time>
      </trkpt>
      <trkpt lat="47.815277008339763" lon="7.552858013659716">
        <ele>218.84</ele>
        <time>2025-04-23T08:36:09Z</time>
      </trkpt>
      <trkpt lat="47.815140970051289" lon="7.553120031952858">
        <ele>218.36000000000001</ele>
        <time>2025-04-23T08:36:10Z</time>
      </trkpt>
      <trkpt lat="47.815044997259974" lon="7.553208963945508">
        <ele>217.88</ele>
        <time>2025-04-23T08:36:11Z</time>
      </trkpt>
      <trkpt lat="47.814929997548461" lon="7.553261015564203">
        <ele>216.91</ele>
        <time>2025-04-23T08:36:12Z</time>
      </trkpt>
      <trkpt lat="47.814808962866664" lon="7.553256992250681">
        <ele>216.43000000000001</ele>
        <time>2025-04-23T08:36:13Z</time>
      </trkpt>
      <trkpt lat="47.814693041145802" lon="7.553236959502101">
        <ele>216.43000000000001</ele>
        <time>2025-04-23T08:36:14Z</time>
      </trkpt>
      <trkpt lat="47.814568988978863" lon="7.553217010572553">
        <ele>215.94999999999999</ele>
        <time>2025-04-23T08:36:15Z</time>
      </trkpt>
      <trkpt lat="47.814421970397234" lon="7.553140986710787">
        <ele>215.47</ele>
        <time>2025-04-23T08:36:16Z</time>
      </trkpt>
      <trkpt lat="47.81383397988975" lon="7.552734967321158">
        <ele>215.47</ele>
        <time>2025-04-23T08:36:20Z</time>
      </trkpt>
      <trkpt lat="47.813657037913799" lon="7.552624996751547">
        <ele>215.94999999999999</ele>
        <time>2025-04-23T08:36:21Z</time>
      </trkpt>
      <trkpt lat="47.812177967280149" lon="7.551498971879482">
        <ele>214.99000000000001</ele>
        <time>2025-04-23T08:36:29Z</time>
      </trkpt>
      <trkpt lat="47.809602040797472" lon="7.549656964838505">
        <ele>214.03</ele>
        <time>2025-04-23T08:36:41Z</time>
      </trkpt>
      <trkpt lat="47.807240020483732" lon="7.547996006906033">
        <ele>211.63</ele>
        <time>2025-04-23T08:36:52Z</time>
      </trkpt>
      <trkpt lat="47.804329991340637" lon="7.546074958518148">
        <ele>212.11000000000001</ele>
        <time>2025-04-23T08:37:05Z</time>
      </trkpt>
      <trkpt lat="47.800240041688085" lon="7.54350196570158">
        <ele>213.06999999999999</ele>
        <time>2025-04-23T08:37:23Z</time>
      </trkpt>
      <trkpt lat="47.796727018430829" lon="7.541538001969457">
        <ele>214.03</ele>
        <time>2025-04-23T08:37:38Z</time>
      </trkpt>
      <trkpt lat="47.793760998174548" lon="7.539990032091737">
        <ele>216.43000000000001</ele>
        <time>2025-04-23T08:37:51Z</time>
      </trkpt>
      <trkpt lat="47.790489038452506" lon="7.538448013365269">
        <ele>216.91</ele>
        <time>2025-04-23T08:38:06Z</time>
      </trkpt>
      <trkpt lat="47.7894670329988" lon="7.538010980933905">
        <ele>216.43000000000001</ele>
        <time>2025-04-23T08:38:13Z</time>
      </trkpt>
      <trkpt lat="47.789160003885627" lon="7.537881983444095">
        <ele>216.43000000000001</ele>
        <time>2025-04-23T08:38:19Z</time>
      </trkpt>
      <trkpt lat="47.789160003885627" lon="7.537881983444095">
        <ele>216.43000000000001</ele>
        <time>2025-04-23T08:38:52Z</time>
      </trkpt>
      <trkpt lat="47.789160003885627" lon="7.537881983444095">
        <ele>217.40000000000001</ele>
        <time>2025-04-23T08:39:42Z</time>
      </trkpt>
      <trkpt lat="47.788907960057259" lon="7.537776036188006">
        <ele>217.88</ele>
        <time>2025-04-23T08:39:57Z</time>
      </trkpt>
      <trkpt lat="47.788130035623908" lon="7.537492979317904">
        <ele>218.36000000000001</ele>
        <time>2025-04-23T08:40:04Z</time>
      </trkpt>
      <trkpt lat="47.787996008992195" lon="7.537446962669492">
        <ele>218.36000000000001</ele>
        <time>2025-04-23T08:40:05Z</time>
      </trkpt>
      <trkpt lat="47.787857037037611" lon="7.537400024011731">
        <ele>218.36000000000001</ele>
        <time>2025-04-23T08:40:06Z</time>
      </trkpt>
      <trkpt lat="47.786507969722152" lon="7.536959974095225">
        <ele>218.84</ele>
        <time>2025-04-23T08:40:14Z</time>
      </trkpt>
      <trkpt lat="47.784334039315581" lon="7.536380030214787">
        <ele>220.28</ele>
        <time>2025-04-23T08:40:24Z</time>
      </trkpt>
      <trkpt lat="47.781402971595526" lon="7.535896981135011">
        <ele>217.88</ele>
        <time>2025-04-23T08:40:36Z</time>
      </trkpt>
      <trkpt lat="47.779142037034035" lon="7.535738982260227">
        <ele>217.40000000000001</ele>
        <time>2025-04-23T08:40:46Z</time>
      </trkpt>
      <trkpt lat="47.778391018509865" lon="7.535621970891953">
        <ele>216.91</ele>
        <time>2025-04-23T08:40:51Z</time>
      </trkpt>
      <trkpt lat="47.777649974450469" lon="7.535275965929031">
        <ele>216.91</ele>
        <time>2025-04-23T08:40:54Z</time>
      </trkpt>
      <trkpt lat="47.777461968362331" lon="7.535147974267602">
        <ele>216.91</ele>
        <time>2025-04-23T08:40:55Z</time>
      </trkpt>
      <trkpt lat="47.777270022779703" lon="7.53501595929265">
        <ele>217.40000000000001</ele>
        <time>2025-04-23T08:40:56Z</time>
      </trkpt>
      <trkpt lat="47.777098026126623" lon="7.53484396263957">
        <ele>217.88</ele>
        <time>2025-04-23T08:40:57Z</time>
      </trkpt>
      <trkpt lat="47.776932986453176" lon="7.534645982086659">
        <ele>218.36000000000001</ele>
        <time>2025-04-23T08:40:58Z</time>
      </trkpt>
      <trkpt lat="47.776784040033817" lon="7.53443400375545">
        <ele>218.84</ele>
        <time>2025-04-23T08:40:59Z</time>
      </trkpt>
      <trkpt lat="47.776637021452188" lon="7.534209033474326">
        <ele>219.80000000000001</ele>
        <time>2025-04-23T08:41:00Z</time>
      </trkpt>
      <trkpt lat="47.776506012305617" lon="7.533977022394538">
        <ele>220.75999999999999</ele>
        <time>2025-04-23T08:41:01Z</time>
      </trkpt>
      <trkpt lat="47.776382965967059" lon="7.533717015758157">
        <ele>221.72</ele>
        <time>2025-04-23T08:41:02Z</time>
      </trkpt>
      <trkpt lat="47.776260003447533" lon="7.533456003293395">
        <ele>222.68000000000001</ele>
        <time>2025-04-23T08:41:03Z</time>
      </trkpt>
      <trkpt lat="47.775779971852899" lon="7.531636962667108">
        <ele>226.05000000000001</ele>
        <time>2025-04-23T08:41:09Z</time>
      </trkpt>
      <trkpt lat="47.775638988241553" lon="7.528371037915349">
        <ele>230.37</ele>
        <time>2025-04-23T08:41:19Z</time>
      </trkpt>
      <trkpt lat="47.775728004053235" lon="7.524799006059766">
        <ele>233.25999999999999</ele>
        <time>2025-04-23T08:41:30Z</time>
      </trkpt>
      <trkpt lat="47.775882985442877" lon="7.520845010876656">
        <ele>234.22</ele>
        <time>2025-04-23T08:41:42Z</time>
      </trkpt>
      <trkpt lat="47.77616897597909" lon="7.516953041777015">
        <ele>231.33000000000001</ele>
        <time>2025-04-23T08:41:53Z</time>
      </trkpt>
      <trkpt lat="47.776783034205437" lon="7.512314999476075">
        <ele>227.97</ele>
        <time>2025-04-23T08:42:05Z</time>
      </trkpt>
      <trkpt lat="47.777488958090544" lon="7.508717989549041">
        <ele>227.49000000000001</ele>
        <time>2025-04-23T08:42:15Z</time>
      </trkpt>
      <trkpt lat="47.778428988531232" lon="7.504432993009687">
        <ele>227.97</ele>
        <time>2025-04-23T08:42:29Z</time>
      </trkpt>
      <trkpt lat="47.779241027310491" lon="7.50067999586463">
        <ele>230.84999999999999</ele>
        <time>2025-04-23T08:42:41Z</time>
      </trkpt>
      <trkpt lat="47.780123976990581" lon="7.496603960171342">
        <ele>231.81</ele>
        <time>2025-04-23T08:42:53Z</time>
      </trkpt>
      <trkpt lat="47.780955964699388" lon="7.492724983021617">
        <ele>233.25999999999999</ele>
        <time>2025-04-23T08:43:04Z</time>
      </trkpt>
      <trkpt lat="47.782047959044576" lon="7.487759040668607">
        <ele>232.30000000000001</ele>
        <time>2025-04-23T08:43:17Z</time>
      </trkpt>
      <trkpt lat="47.783203991129994" lon="7.482491014525294">
        <ele>229.88999999999999</ele>
        <time>2025-04-23T08:43:31Z</time>
      </trkpt>
      <trkpt lat="47.784227002412081" lon="7.477740989997983">
        <ele>229.88999999999999</ele>
        <time>2025-04-23T08:43:43Z</time>
      </trkpt>
      <trkpt lat="47.785264011472464" lon="7.472932040691376">
        <ele>229.88999999999999</ele>
        <time>2025-04-23T08:43:55Z</time>
      </trkpt>
      <trkpt lat="47.786630010232329" lon="7.466115960851312">
        <ele>229.88999999999999</ele>
        <time>2025-04-23T08:44:12Z</time>
      </trkpt>
      <trkpt lat="47.787311961874366" lon="7.462494978681207">
        <ele>229.41</ele>
        <time>2025-04-23T08:44:21Z</time>
      </trkpt>
      <trkpt lat="47.78809298761189" lon="7.458022981882095">
        <ele>230.84999999999999</ele>
        <time>2025-04-23T08:44:32Z</time>
      </trkpt>
      <trkpt lat="47.788614006713033" lon="7.454759990796447">
        <ele>231.33000000000001</ele>
        <time>2025-04-23T08:44:40Z</time>
      </trkpt>
      <trkpt lat="47.78951003216207" lon="7.448611026629806">
        <ele>230.37</ele>
        <time>2025-04-23T08:44:55Z</time>
      </trkpt>
      <trkpt lat="47.789966007694602" lon="7.444049008190632">
        <ele>227.49000000000001</ele>
        <time>2025-04-23T08:45:06Z</time>
      </trkpt>
      <trkpt lat="47.790142027661204" lon="7.440274972468615">
        <ele>224.12</ele>
        <time>2025-04-23T08:45:15Z</time>
      </trkpt>
      <trkpt lat="47.79004798270762" lon="7.436077985912561">
        <ele>225.09</ele>
        <time>2025-04-23T08:45:25Z</time>
      </trkpt>
      <trkpt lat="47.78959502466023" lon="7.431515967473388">
        <ele>224.61000000000001</ele>
        <time>2025-04-23T08:45:36Z</time>
      </trkpt>
      <trkpt lat="47.788724983111024" lon="7.426666030660272">
        <ele>225.09</ele>
        <time>2025-04-23T08:45:48Z</time>
      </trkpt>
      <trkpt lat="47.787360996007919" lon="7.42163697257638">
        <ele>225.09</ele>
        <time>2025-04-23T08:46:01Z</time>
      </trkpt>
      <trkpt lat="47.786496989428997" lon="7.419002037495375">
        <ele>225.56999999999999</ele>
        <time>2025-04-23T08:46:15Z</time>
      </trkpt>
      <trkpt lat="47.783597018569708" lon="7.410835968330503">
        <ele>226.05000000000001</ele>
        <time>2025-04-23T08:46:30Z</time>
      </trkpt>
      <trkpt lat="47.781492993235588" lon="7.404927983880043">
        <ele>227.00999999999999</ele>
        <time>2025-04-23T08:46:46Z</time>
      </trkpt>
      <trkpt lat="47.780575007200241" lon="7.402387009933591">
        <ele>229.41</ele>
        <time>2025-04-23T08:46:53Z</time>
      </trkpt>
      <trkpt lat="47.780336039140821" lon="7.401696005836129">
        <ele>229.88999999999999</ele>
        <time>2025-04-23T08:46:55Z</time>
      </trkpt>
      <trkpt lat="47.780219027772546" lon="7.401357041671872">
        <ele>230.37</ele>
        <time>2025-04-23T08:46:56Z</time>
      </trkpt>
      <trkpt lat="47.778816986829042" lon="7.397496001794934">
        <ele>231.81</ele>
        <time>2025-04-23T08:47:07Z</time>
      </trkpt>
      <trkpt lat="47.776796026155353" lon="7.391873002052307">
        <ele>232.78</ele>
        <time>2025-04-23T08:47:23Z</time>
      </trkpt>
      <trkpt lat="47.77507496997714" lon="7.386937988922">
        <ele>235.66</ele>
        <time>2025-04-23T08:47:37Z</time>
      </trkpt>
      <trkpt lat="47.773683993145823" lon="7.382212020456791">
        <ele>235.66</ele>
        <time>2025-04-23T08:47:50Z</time>
      </trkpt>
      <trkpt lat="47.773229023441672" lon="7.379946978762746">
        <ele>236.62</ele>
        <time>2025-04-23T08:48:03Z</time>
      </trkpt>
      <trkpt lat="47.772810012102127" lon="7.376835029572249">
        <ele>236.62</ele>
        <time>2025-04-23T08:48:11Z</time>
      </trkpt>
      <trkpt lat="47.772705992683768" lon="7.369695995002985">
        <ele>237.09999999999999</ele>
        <time>2025-04-23T08:48:22Z</time>
      </trkpt>
      <trkpt lat="47.773203961551189" lon="7.365373028442264">
        <ele>239.50999999999999</ele>
        <time>2025-04-23T08:48:33Z</time>
      </trkpt>
      <trkpt lat="47.774136029183865" lon="7.359575014561415">
        <ele>241.43000000000001</ele>
        <time>2025-04-23T08:48:48Z</time>
      </trkpt>
      <trkpt lat="47.774298973381519" lon="7.355639962479472">
        <ele>239.02000000000001</ele>
        <time>2025-04-23T08:48:58Z</time>
      </trkpt>
      <trkpt lat="47.774024968966842" lon="7.352100033313036">
        <ele>238.53999999999999</ele>
        <time>2025-04-23T08:49:07Z</time>
      </trkpt>
      <trkpt lat="47.773200022056699" lon="7.347919978201389">
        <ele>239.02000000000001</ele>
        <time>2025-04-23T08:49:18Z</time>
      </trkpt>
      <trkpt lat="47.772071985527873" lon="7.344749020412564">
        <ele>239.50999999999999</ele>
        <time>2025-04-23T08:49:27Z</time>
      </trkpt>
      <trkpt lat="47.770448997616768" lon="7.341597005724907">
        <ele>239.02000000000001</ele>
        <time>2025-04-23T08:49:37Z</time>
      </trkpt>
      <trkpt lat="47.768790973350406" lon="7.339028958231211">
        <ele>238.53999999999999</ele>
        <time>2025-04-23T08:49:46Z</time>
      </trkpt>
      <trkpt lat="47.766563985496759" lon="7.335045961663127">
        <ele>239.02000000000001</ele>
        <time>2025-04-23T08:49:59Z</time>
      </trkpt>
      <trkpt lat="47.765336036682129" lon="7.331524975597858">
        <ele>238.06</ele>
        <time>2025-04-23T08:50:09Z</time>
      </trkpt>
      <trkpt lat="47.765244003385305" lon="7.331150975078344">
        <ele>238.06</ele>
        <time>2025-04-23T08:50:17Z</time>
      </trkpt>
      <trkpt lat="47.764697000384331" lon="7.328502964228392">
        <ele>237.09999999999999</ele>
        <time>2025-04-23T08:50:24Z</time>
      </trkpt>
      <trkpt lat="47.7637729793787" lon="7.320694969967008">
        <ele>236.62</ele>
        <time>2025-04-23T08:50:37Z</time>
      </trkpt>
      <trkpt lat="47.762863961979747" lon="7.317387973889709">
        <ele>237.58000000000001</ele>
        <time>2025-04-23T08:50:46Z</time>
      </trkpt>
      <trkpt lat="47.761291014030576" lon="7.313673030585051">
        <ele>236.13999999999999</ele>
        <time>2025-04-23T08:50:57Z</time>
      </trkpt>
      <trkpt lat="47.75943199172616" lon="7.309771003201604">
        <ele>236.62</ele>
        <time>2025-04-23T08:51:09Z</time>
      </trkpt>
      <trkpt lat="47.758025005459785" lon="7.305946005508304">
        <ele>239.02000000000001</ele>
        <time>2025-04-23T08:51:20Z</time>
      </trkpt>
      <trkpt lat="47.756885988637805" lon="7.301502004265785">
        <ele>241.43000000000001</ele>
        <time>2025-04-23T08:51:32Z</time>
      </trkpt>
      <trkpt lat="47.755835987627506" lon="7.297448012977839">
        <ele>245.75</ele>
        <time>2025-04-23T08:51:43Z</time>
      </trkpt>
      <trkpt lat="47.754357000812888" lon="7.293661991134286">
        <ele>250.56</ele>
        <time>2025-04-23T08:51:54Z</time>
      </trkpt>
      <trkpt lat="47.752596968784928" lon="7.289664996787906">
        <ele>253.93000000000001</ele>
        <time>2025-04-23T08:52:06Z</time>
      </trkpt>
      <trkpt lat="47.750203013420105" lon="7.283914005383849">
        <ele>252</ele>
        <time>2025-04-23T08:52:23Z</time>
      </trkpt>
      <trkpt lat="47.748522022739053" lon="7.279390962794423">
        <ele>252.47999999999999</ele>
        <time>2025-04-23T08:52:36Z</time>
      </trkpt>
      <trkpt lat="47.747157029807568" lon="7.275090040639043">
        <ele>255.37</ele>
        <time>2025-04-23T08:52:48Z</time>
      </trkpt>
      <trkpt lat="47.745999991893768" lon="7.27074502967298">
        <ele>258.25</ele>
        <time>2025-04-23T08:53:00Z</time>
      </trkpt>
      <trkpt lat="47.745265988633037" lon="7.267568036913872">
        <ele>259.69</ele>
        <time>2025-04-23T08:53:09Z</time>
      </trkpt>
      <trkpt lat="47.745189964771271" lon="7.267180038616061">
        <ele>259.20999999999998</ele>
        <time>2025-04-23T08:53:10Z</time>
      </trkpt>
      <trkpt lat="47.744334004819393" lon="7.262666970491409">
        <ele>259.69</ele>
        <time>2025-04-23T08:53:22Z</time>
      </trkpt>
      <trkpt lat="47.743407972157001" lon="7.256066976115108">
        <ele>262.10000000000002</ele>
        <time>2025-04-23T08:53:39Z</time>
      </trkpt>
      <trkpt lat="47.742773965001106" lon="7.250195033848286">
        <ele>264.98000000000002</ele>
        <time>2025-04-23T08:53:54Z</time>
      </trkpt>
      <trkpt lat="47.742181029170752" lon="7.244699019938707">
        <ele>265.45999999999998</ele>
        <time>2025-04-23T08:54:08Z</time>
      </trkpt>
      <trkpt lat="47.741632014513016" lon="7.239611959084868">
        <ele>266.89999999999998</ele>
        <time>2025-04-23T08:54:21Z</time>
      </trkpt>
      <trkpt lat="47.741207974031568" lon="7.236092984676361">
        <ele>265.45999999999998</ele>
        <time>2025-04-23T08:54:30Z</time>
      </trkpt>
      <trkpt lat="47.740638004615903" lon="7.231800025328994">
        <ele>264.98000000000002</ele>
        <time>2025-04-23T08:54:41Z</time>
      </trkpt>
      <trkpt lat="47.739794030785561" lon="7.226792005822063">
        <ele>267.38</ele>
        <time>2025-04-23T08:54:54Z</time>
      </trkpt>
      <trkpt lat="47.738531967625022" lon="7.220735996961594">
        <ele>273.63</ele>
        <time>2025-04-23T08:55:10Z</time>
      </trkpt>
      <trkpt lat="47.737347017973661" lon="7.215888993814588">
        <ele>276.51999999999998</ele>
        <time>2025-04-23T08:55:23Z</time>
      </trkpt>
      <trkpt lat="47.735903989523649" lon="7.21075901761651">
        <ele>279.39999999999998</ele>
        <time>2025-04-23T08:55:37Z</time>
      </trkpt>
      <trkpt lat="47.734436988830566" lon="7.205648990347982">
        <ele>280.36000000000001</ele>
        <time>2025-04-23T08:55:51Z</time>
      </trkpt>
      <trkpt lat="47.733368966728449" lon="7.201833967119455">
        <ele>279.88</ele>
        <time>2025-04-23T08:56:02Z</time>
      </trkpt>
      <trkpt lat="47.732716016471386" lon="7.199309002608061">
        <ele>280.36000000000001</ele>
        <time>2025-04-23T08:56:09Z</time>
      </trkpt>
      <trkpt lat="47.731809010729194" lon="7.19537696801126">
        <ele>281.80000000000001</ele>
        <time>2025-04-23T08:56:20Z</time>
      </trkpt>
      <trkpt lat="47.730784993618727" lon="7.189990002661943">
        <ele>284.20999999999998</ele>
        <time>2025-04-23T08:56:35Z</time>
      </trkpt>
      <trkpt lat="47.730263974517584" lon="7.186876963824034">
        <ele>283.73000000000002</ele>
        <time>2025-04-23T08:56:44Z</time>
      </trkpt>
      <trkpt lat="47.729425029829144" lon="7.182046975940466">
        <ele>287.56999999999999</ele>
        <time>2025-04-23T08:56:58Z</time>
      </trkpt>
      <trkpt lat="47.728453986346722" lon="7.177231991663575">
        <ele>290.45999999999998</ele>
        <time>2025-04-23T08:57:12Z</time>
      </trkpt>
      <trkpt lat="47.72754798643291" lon="7.173070041462779">
        <ele>293.33999999999997</ele>
        <time>2025-04-23T08:57:25Z</time>
      </trkpt>
      <trkpt lat="47.726411987096071" lon="7.167913997545838">
        <ele>294.77999999999997</ele>
        <time>2025-04-23T08:57:41Z</time>
      </trkpt>
      <trkpt lat="47.726328000426292" lon="7.167560029774904">
        <ele>294.77999999999997</ele>
        <time>2025-04-23T08:57:42Z</time>
      </trkpt>
      <trkpt lat="47.72522795945406" lon="7.163278972730041">
        <ele>298.63</ele>
        <time>2025-04-23T08:57:55Z</time>
      </trkpt>
      <trkpt lat="47.723935972899199" lon="7.159071005880833">
        <ele>304.88</ele>
        <time>2025-04-23T08:58:09Z</time>
      </trkpt>
      <trkpt lat="47.722491016611457" lon="7.15498298406601">
        <ele>304.88</ele>
        <time>2025-04-23T08:58:23Z</time>
      </trkpt>
      <trkpt lat="47.721184026449919" lon="7.151441965252161">
        <ele>308.24000000000001</ele>
        <time>2025-04-23T08:58:36Z</time>
      </trkpt>
      <trkpt lat="47.719526002183557" lon="7.146657994017005">
        <ele>314.00999999999999</ele>
        <time>2025-04-23T08:58:53Z</time>
      </trkpt>
      <trkpt lat="47.718253964558244" lon="7.142827967181802">
        <ele>317.85000000000002</ele>
        <time>2025-04-23T08:59:06Z</time>
      </trkpt>
      <trkpt lat="47.717714002355933" lon="7.141174972057343">
        <ele>319.30000000000001</ele>
        <time>2025-04-23T08:59:13Z</time>
      </trkpt>
      <trkpt lat="47.717221984639764" lon="7.139616021886468">
        <ele>322.18000000000001</ele>
        <time>2025-04-23T08:59:23Z</time>
      </trkpt>
      <trkpt lat="47.717194994911551" lon="7.139528011903167">
        <ele>322.18000000000001</ele>
        <time>2025-04-23T08:59:24Z</time>
      </trkpt>
      <trkpt lat="47.717271018773317" lon="7.139331959187985">
        <ele>322.18000000000001</ele>
        <time>2025-04-23T08:59:25Z</time>
      </trkpt>
      <trkpt lat="47.717678966000676" lon="7.138496031984687">
        <ele>323.62</ele>
        <time>2025-04-23T08:59:35Z</time>
      </trkpt>
      <trkpt lat="47.717736968770623" lon="7.138214986771345">
        <ele>324.57999999999998</ele>
        <time>2025-04-23T08:59:39Z</time>
      </trkpt>
      <trkpt lat="47.717801006510854" lon="7.137822965160012">
        <ele>325.54000000000002</ele>
        <time>2025-04-23T08:59:46Z</time>
      </trkpt>
      <trkpt lat="47.717801006510854" lon="7.137822965160012">
        <ele>325.54000000000002</ele>
        <time>2025-04-23T09:00:20Z</time>
      </trkpt>
      <trkpt lat="47.717801006510854" lon="7.137822965160012">
        <ele>327.47000000000003</ele>
        <time>2025-04-23T09:01:13Z</time>
      </trkpt>
      <trkpt lat="47.717604031786323" lon="7.137680975720286">
        <ele>330.35000000000002</ele>
        <time>2025-04-23T09:02:54Z</time>
      </trkpt>
      <trkpt lat="47.717671003192663" lon="7.137813996523619">
        <ele>351.01999999999998</ele>
        <time>2025-04-23T09:03:01Z</time>
      </trkpt>
      <trkpt lat="47.717789020389318" lon="7.137729004025459">
        <ele>347.17000000000002</ele>
        <time>2025-04-23T09:03:03Z</time>
      </trkpt>
      <trkpt lat="47.717782985419035" lon="7.137684999033809">
        <ele>345.73000000000002</ele>
        <time>2025-04-23T09:03:04Z</time>
      </trkpt>
      <trkpt lat="47.717778040096164" lon="7.137650968506932">
        <ele>344.29000000000002</ele>
        <time>2025-04-23T09:03:05Z</time>
      </trkpt>
      <trkpt lat="47.717774016782641" lon="7.137616015970707">
        <ele>343.32999999999998</ele>
        <time>2025-04-23T09:03:06Z</time>
      </trkpt>
      <trkpt lat="47.717767981812358" lon="7.137576034292579">
        <ele>341.88999999999999</ele>
        <time>2025-04-23T09:03:07Z</time>
      </trkpt>
      <trkpt lat="47.717764964327216" lon="7.137550972402096">
        <ele>341.41000000000003</ele>
        <time>2025-04-23T09:03:08Z</time>
      </trkpt>
      <trkpt lat="47.717764964327216" lon="7.137550972402096">
        <ele>340.44</ele>
        <time>2025-04-23T09:03:09Z</time>
      </trkpt>
      <trkpt lat="47.717560026794672" lon="7.137120980769396">
        <ele>336.60000000000002</ele>
        <time>2025-04-23T09:03:15Z</time>
      </trkpt>
      <trkpt lat="47.717527002096176" lon="7.137048980221152">
        <ele>335.63999999999999</ele>
        <time>2025-04-23T09:03:16Z</time>
      </trkpt>
      <trkpt lat="47.7174929715693" lon="7.136977985501289">
        <ele>335.16000000000003</ele>
        <time>2025-04-23T09:03:17Z</time>
      </trkpt>
      <trkpt lat="47.717457013204694" lon="7.136903973296285">
        <ele>334.19999999999999</ele>
        <time>2025-04-23T09:03:18Z</time>
      </trkpt>
      <trkpt lat="47.717422982677817" lon="7.136830966919661">
        <ele>333.70999999999998</ele>
        <time>2025-04-23T09:03:19Z</time>
      </trkpt>
      <trkpt lat="47.717386018484831" lon="7.136755026876926">
        <ele>333.70999999999998</ele>
        <time>2025-04-23T09:03:20Z</time>
      </trkpt>
      <trkpt lat="47.717357017099857" lon="7.136693000793457">
        <ele>332.75</ele>
        <time>2025-04-23T09:03:22Z</time>
      </trkpt>
      <trkpt lat="47.717357017099857" lon="7.136693000793457">
        <ele>332.75</ele>
        <time>2025-04-23T09:03:23Z</time>
      </trkpt>
      <trkpt lat="47.716982010751963" lon="7.135533029213548">
        <ele>326.01999999999998</ele>
        <time>2025-04-23T09:03:32Z</time>
      </trkpt>
      <trkpt lat="47.716897018253803" lon="7.135251984000206">
        <ele>322.66000000000003</ele>
        <time>2025-04-23T09:03:35Z</time>
      </trkpt>
      <trkpt lat="47.716842032968998" lon="7.134869014844298">
        <ele>321.22000000000003</ele>
        <time>2025-04-23T09:03:37Z</time>
      </trkpt>
      <trkpt lat="47.716842032968998" lon="7.134869014844298">
        <ele>321.22000000000003</ele>
        <time>2025-04-23T09:03:38Z</time>
      </trkpt>
      <trkpt lat="47.716853013262153" lon="7.134847976267338">
        <ele>320.74000000000001</ele>
        <time>2025-04-23T09:03:39Z</time>
      </trkpt>
      <trkpt lat="47.7168919891119" lon="7.134770024567843">
        <ele>320.25999999999999</ele>
        <time>2025-04-23T09:03:40Z</time>
      </trkpt>
      <trkpt lat="47.716928031295538" lon="7.134698024019599">
        <ele>319.30000000000001</ele>
        <time>2025-04-23T09:03:41Z</time>
      </trkpt>
      <trkpt lat="47.716928031295538" lon="7.134610014036298">
        <ele>318.81</ele>
        <time>2025-04-23T09:03:42Z</time>
      </trkpt>
      <trkpt lat="47.716928031295538" lon="7.134440029039979">
        <ele>318.32999999999998</ele>
        <time>2025-04-23T09:03:43Z</time>
      </trkpt>
      <trkpt lat="47.716921996325254" lon="7.134415972977877">
        <ele>317.85000000000002</ele>
        <time>2025-04-23T09:03:44Z</time>
      </trkpt>
      <trkpt lat="47.716838009655476" lon="7.134380014613271">
        <ele>316.88999999999999</ele>
        <time>2025-04-23T09:03:45Z</time>
      </trkpt>
      <trkpt lat="47.716781012713909" lon="7.134341960772872">
        <ele>316.88999999999999</ele>
        <time>2025-04-23T09:03:46Z</time>
      </trkpt>
      <trkpt lat="47.716723009943962" lon="7.13431497104466">
        <ele>316.41000000000003</ele>
        <time>2025-04-23T09:03:47Z</time>
      </trkpt>
      <trkpt lat="47.716655032709241" lon="7.13433500379324">
        <ele>316.41000000000003</ele>
        <time>2025-04-23T09:03:48Z</time>
      </trkpt>
      <trkpt lat="47.716584037989378" lon="7.134355958551168">
        <ele>315.93000000000001</ele>
        <time>2025-04-23T09:03:49Z</time>
      </trkpt>
      <trkpt lat="47.716516982764006" lon="7.13437800295651">
        <ele>315.93000000000001</ele>
        <time>2025-04-23T09:03:50Z</time>
      </trkpt>
      <trkpt lat="47.716350015252829" lon="7.13452803902328">
        <ele>315.44999999999999</ele>
        <time>2025-04-23T09:03:54Z</time>
      </trkpt>
      <trkpt lat="47.716317996382713" lon="7.134600039571524">
        <ele>314.97000000000003</ele>
        <time>2025-04-23T09:03:55Z</time>
      </trkpt>
      <trkpt lat="47.716257981956005" lon="7.134686959907413">
        <ele>314.97000000000003</ele>
        <time>2025-04-23T09:03:56Z</time>
      </trkpt>
      <trkpt lat="47.716199979186058" lon="7.134712021797895">
        <ele>314.49000000000001</ele>
        <time>2025-04-23T09:03:57Z</time>
      </trkpt>
      <trkpt lat="47.71609403192997" lon="7.134674973785877">
        <ele>314.00999999999999</ele>
        <time>2025-04-23T09:03:58Z</time>
      </trkpt>
      <trkpt lat="47.716050026938319" lon="7.134604984894395">
        <ele>314.00999999999999</ele>
        <time>2025-04-23T09:03:59Z</time>
      </trkpt>
      <trkpt lat="47.715994035825133" lon="7.134514041244984">
        <ele>314.00999999999999</ele>
        <time>2025-04-23T09:04:00Z</time>
      </trkpt>
      <trkpt lat="47.715926980599761" lon="7.134404992684722">
        <ele>313.52999999999997</ele>
        <time>2025-04-23T09:04:01Z</time>
      </trkpt>
      <trkpt lat="47.715854980051517" lon="7.134289992973208">
        <ele>313.05000000000001</ele>
        <time>2025-04-23T09:04:02Z</time>
      </trkpt>
      <trkpt lat="47.715811980888247" lon="7.13414297439158">
        <ele>313.52999999999997</ele>
        <time>2025-04-23T09:04:03Z</time>
      </trkpt>
      <trkpt lat="47.715764036402106" lon="7.133983969688416">
        <ele>313.52999999999997</ele>
        <time>2025-04-23T09:04:04Z</time>
      </trkpt>
      <trkpt lat="47.715713996440172" lon="7.133818008005619">
        <ele>313.52999999999997</ele>
        <time>2025-04-23T09:04:05Z</time>
      </trkpt>
      <trkpt lat="47.715663034468889" lon="7.133646011352539">
        <ele>314.00999999999999</ele>
        <time>2025-04-23T09:04:06Z</time>
      </trkpt>
      <trkpt lat="47.715052999556065" lon="7.131796041503549">
        <ele>312.08999999999997</ele>
        <time>2025-04-23T09:04:16Z</time>
      </trkpt>
      <trkpt lat="47.714432990178466" lon="7.129921009764075">
        <ele>308.24000000000001</ele>
        <time>2025-04-23T09:04:24Z</time>
      </trkpt>
      <trkpt lat="47.713761013001204" lon="7.127151964232326">
        <ele>305.83999999999997</ele>
        <time>2025-04-23T09:04:33Z</time>
      </trkpt>
      <trkpt lat="47.712897006422281" lon="7.123052962124348">
        <ele>304.38999999999999</ele>
        <time>2025-04-23T09:04:45Z</time>
      </trkpt>
      <trkpt lat="47.712255958467722" lon="7.119701039046049">
        <ele>303.43000000000001</ele>
        <time>2025-04-23T09:04:55Z</time>
      </trkpt>
      <trkpt lat="47.711732005700469" lon="7.116423966363072">
        <ele>302.47000000000003</ele>
        <time>2025-04-23T09:05:04Z</time>
      </trkpt>
      <trkpt lat="47.710947040468454" lon="7.110569039359689">
        <ele>305.83999999999997</ele>
        <time>2025-04-23T09:05:19Z</time>
      </trkpt>
      <trkpt lat="47.710440019145608" lon="7.105564959347248">
        <ele>310.63999999999999</ele>
        <time>2025-04-23T09:05:32Z</time>
      </trkpt>
      <trkpt lat="47.710118992254138" lon="7.100338004529476">
        <ele>316.88999999999999</ele>
        <time>2025-04-23T09:05:46Z</time>
      </trkpt>
      <trkpt lat="47.709961999207735" lon="7.095743967220187">
        <ele>320.74000000000001</ele>
        <time>2025-04-23T09:05:58Z</time>
      </trkpt>
      <trkpt lat="47.710004998371005" lon="7.089992975816131">
        <ele>328.91000000000003</ele>
        <time>2025-04-23T09:06:13Z</time>
      </trkpt>
      <trkpt lat="47.710214965045452" lon="7.085411008447409">
        <ele>339.95999999999998</ele>
        <time>2025-04-23T09:06:25Z</time>
      </trkpt>
      <trkpt lat="47.710646968334913" lon="7.080084979534149">
        <ele>354.86000000000001</ele>
        <time>2025-04-23T09:06:39Z</time>
      </trkpt>
      <trkpt lat="47.7110880240798" lon="7.075891010463238">
        <ele>365.92000000000002</ele>
        <time>2025-04-23T09:06:50Z</time>
      </trkpt>
      <trkpt lat="47.711608959361911" lon="7.070936970412731">
        <ele>374.08999999999997</ele>
        <time>2025-04-23T09:07:03Z</time>
      </trkpt>
      <trkpt lat="47.712108017876744" lon="7.066393978893757">
        <ele>383.22000000000003</ele>
        <time>2025-04-23T09:07:15Z</time>
      </trkpt>
      <trkpt lat="47.712471038103104" lon="7.062570992857218">
        <ele>396.19999999999999</ele>
        <time>2025-04-23T09:07:25Z</time>
      </trkpt>
      <trkpt lat="47.712652003392577" lon="7.058332012966275">
        <ele>399.56999999999999</ele>
        <time>2025-04-23T09:07:36Z</time>
      </trkpt>
      <trkpt lat="47.7123779989779" lon="7.053722972050309">
        <ele>399.56999999999999</ele>
        <time>2025-04-23T09:07:48Z</time>
      </trkpt>
      <trkpt lat="47.711870977655053" lon="7.050355039536953">
        <ele>397.16000000000003</ele>
        <time>2025-04-23T09:07:57Z</time>
      </trkpt>
      <trkpt lat="47.710786024108529" lon="7.046059984713793">
        <ele>397.16000000000003</ele>
        <time>2025-04-23T09:08:09Z</time>
      </trkpt>
      <trkpt lat="47.709383983165026" lon="7.042350992560387">
        <ele>396.19999999999999</ele>
        <time>2025-04-23T09:08:20Z</time>
      </trkpt>
      <trkpt lat="47.707337960600853" lon="7.037892993539572">
        <ele>395.24000000000001</ele>
        <time>2025-04-23T09:08:34Z</time>
      </trkpt>
      <trkpt lat="47.705478016287088" lon="7.034186013042927">
        <ele>394.75999999999999</ele>
        <time>2025-04-23T09:08:46Z</time>
      </trkpt>
      <trkpt lat="47.703510029241443" lon="7.030750019475818">
        <ele>392.83999999999997</ele>
        <time>2025-04-23T09:08:58Z</time>
      </trkpt>
      <trkpt lat="47.701481021940708" lon="7.027686014771462">
        <ele>388.50999999999999</ele>
        <time>2025-04-23T09:09:11Z</time>
      </trkpt>
      <trkpt lat="47.699010036885738" lon="7.024611029773951">
        <ele>382.25999999999999</ele>
        <time>2025-04-23T09:09:26Z</time>
      </trkpt>
      <trkpt lat="47.697244975715876" lon="7.022669026628137">
        <ele>376.49000000000001</ele>
        <time>2025-04-23T09:09:37Z</time>
      </trkpt>
      <trkpt lat="47.696634018793702" lon="7.022034013643861">
        <ele>374.56999999999999</ele>
        <time>2025-04-23T09:09:43Z</time>
      </trkpt>
      <trkpt lat="47.69658800214529" lon="7.021607039496303">
        <ele>374.08999999999997</ele>
        <time>2025-04-23T09:09:46Z</time>
      </trkpt>
      <trkpt lat="47.696563024073839" lon="7.021564962342382">
        <ele>374.08999999999997</ele>
        <time>2025-04-23T09:09:47Z</time>
      </trkpt>
      <trkpt lat="47.696538968011737" lon="7.021447028964758">
        <ele>373.61000000000001</ele>
        <time>2025-04-23T09:09:48Z</time>
      </trkpt>
      <trkpt lat="47.696511978283525" lon="7.021318031474948">
        <ele>373.61000000000001</ele>
        <time>2025-04-23T09:09:49Z</time>
      </trkpt>
      <trkpt lat="47.696483982726932" lon="7.021181993186474">
        <ele>373.13</ele>
        <time>2025-04-23T09:09:50Z</time>
      </trkpt>
      <trkpt lat="47.696369988843799" lon="7.020779997110367">
        <ele>372.64999999999998</ele>
        <time>2025-04-23T09:09:53Z</time>
      </trkpt>
      <trkpt lat="47.69632900133729" lon="7.020671032369137">
        <ele>372.17000000000002</ele>
        <time>2025-04-23T09:09:54Z</time>
      </trkpt>
      <trkpt lat="47.696235040202737" lon="7.020571958273649">
        <ele>372.17000000000002</ele>
        <time>2025-04-23T09:09:55Z</time>
      </trkpt>
      <trkpt lat="47.696161027997732" lon="7.020495012402535">
        <ele>371.69</ele>
        <time>2025-04-23T09:09:56Z</time>
      </trkpt>
      <trkpt lat="47.696085004135966" lon="7.020413959398866">
        <ele>371.20999999999998</ele>
        <time>2025-04-23T09:09:57Z</time>
      </trkpt>
      <trkpt lat="47.696009986102581" lon="7.020333996042609">
        <ele>371.20999999999998</ele>
        <time>2025-04-23T09:09:58Z</time>
      </trkpt>
      <trkpt lat="47.695936979725957" lon="7.020257972180843">
        <ele>370.73000000000002</ele>
        <time>2025-04-23T09:09:59Z</time>
      </trkpt>
      <trkpt lat="47.695176992565393" lon="7.019466971978545">
        <ele>366.88</ele>
        <time>2025-04-23T09:10:10Z</time>
      </trkpt>
      <trkpt lat="47.695090994238853" lon="7.019450040534139">
        <ele>366.39999999999998</ele>
        <time>2025-04-23T09:10:11Z</time>
      </trkpt>
      <trkpt lat="47.695007007569075" lon="7.019433025270701">
        <ele>366.39999999999998</ele>
        <time>2025-04-23T09:10:12Z</time>
      </trkpt>
      <trkpt lat="47.694945987313986" lon="7.019421039149165">
        <ele>365.92000000000002</ele>
        <time>2025-04-23T09:10:13Z</time>
      </trkpt>
      <trkpt lat="47.69491002894938" lon="7.019413998350501">
        <ele>365.92000000000002</ele>
        <time>2025-04-23T09:10:14Z</time>
      </trkpt>
      <trkpt lat="47.694885972887278" lon="7.019408969208598">
        <ele>365.44</ele>
        <time>2025-04-23T09:10:15Z</time>
      </trkpt>
      <trkpt lat="47.694885972887278" lon="7.019408969208598">
        <ele>365.92000000000002</ele>
        <time>2025-04-23T09:10:26Z</time>
      </trkpt>
      <trkpt lat="47.694885972887278" lon="7.019408969208598">
        <ele>365.92000000000002</ele>
        <time>2025-04-23T09:10:32Z</time>
      </trkpt>
      <trkpt lat="47.694885972887278" lon="7.019408969208598">
        <ele>366.39999999999998</ele>
        <time>2025-04-23T09:10:33Z</time>
      </trkpt>
      <trkpt lat="47.695074984803796" lon="7.019461020827293">
        <ele>365.92000000000002</ele>
        <time>2025-04-23T09:10:42Z</time>
      </trkpt>
      <trkpt lat="47.695306995883584" lon="7.019619019702077">
        <ele>364.48000000000002</ele>
        <time>2025-04-23T09:10:48Z</time>
      </trkpt>
      <trkpt lat="47.695321999490261" lon="7.019681967794895">
        <ele>364.48000000000002</ele>
        <time>2025-04-23T09:10:51Z</time>
      </trkpt>
      <trkpt lat="47.695325016975403" lon="7.019628994166851">
        <ele>364.95999999999998</ele>
        <time>2025-04-23T09:11:00Z</time>
      </trkpt>
      <trkpt lat="47.695309007540345" lon="7.019634023308754">
        <ele>364.95999999999998</ele>
        <time>2025-04-23T09:11:01Z</time>
      </trkpt>
      <trkpt lat="47.695257961750031" lon="7.019668975844979">
        <ele>365.44</ele>
        <time>2025-04-23T09:11:16Z</time>
      </trkpt>
      <trkpt lat="47.695261985063553" lon="7.019666964188218">
        <ele>366.39999999999998</ele>
        <time>2025-04-23T09:12:11Z</time>
      </trkpt>
      <trkpt lat="47.695265002548695" lon="7.019664030522108">
        <ele>367.83999999999997</ele>
        <time>2025-04-23T09:13:11Z</time>
      </trkpt>
      <trkpt lat="47.695266008377075" lon="7.019665958359838">
        <ele>368.80000000000001</ele>
        <time>2025-04-23T09:14:06Z</time>
      </trkpt>
      <trkpt lat="47.695228038355708" lon="7.019622037187219">
        <ele>381.30000000000001</ele>
        <time>2025-04-23T09:17:36Z</time>
      </trkpt>
      <trkpt lat="47.69523398950696" lon="7.019609967246652">
        <ele>377.94</ele>
        <time>2025-04-23T09:18:24Z</time>
      </trkpt>
      <trkpt lat="47.69523499533534" lon="7.019617008045316">
        <ele>377.94</ele>
        <time>2025-04-23T09:19:15Z</time>
      </trkpt>
      <trkpt lat="47.695236001163721" lon="7.019627988338471">
        <ele>377.44999999999999</ele>
        <time>2025-04-23T09:20:08Z</time>
      </trkpt>
      <trkpt lat="47.695242958143353" lon="7.019624970853329">
        <ele>377.94</ele>
        <time>2025-04-23T09:20:57Z</time>
      </trkpt>
      <trkpt lat="47.695239018648863" lon="7.019634023308754">
        <ele>377.94</ele>
        <time>2025-04-23T09:21:50Z</time>
      </trkpt>
      <trkpt lat="47.695242036134005" lon="7.019637040793896">
        <ele>378.42000000000002</ele>
        <time>2025-04-23T09:22:40Z</time>
      </trkpt>
      <trkpt lat="47.695242958143353" lon="7.019637962803245">
        <ele>377.94</ele>
        <time>2025-04-23T09:23:31Z</time>
      </trkpt>
      <trkpt lat="47.695247987285256" lon="7.019643997773528">
        <ele>377.94</ele>
        <time>2025-04-23T09:24:22Z</time>
      </trkpt>
      <trkpt lat="47.695246981456876" lon="7.01964701525867">
        <ele>377.94</ele>
        <time>2025-04-23T09:25:08Z</time>
      </trkpt>
      <trkpt lat="47.695249998942018" lon="7.019652966409922">
        <ele>377.94</ele>
        <time>2025-04-23T09:25:59Z</time>
      </trkpt>
      <trkpt lat="47.695251004770398" lon="7.019654978066683">
        <ele>377.94</ele>
        <time>2025-04-23T09:26:46Z</time>
      </trkpt>
      <trkpt lat="47.695242036134005" lon="7.019655983895063">
        <ele>378.42000000000002</ele>
        <time>2025-04-23T09:27:33Z</time>
      </trkpt>
      <trkpt lat="47.695242036134005" lon="7.019653972238302">
        <ele>378.42000000000002</ele>
        <time>2025-04-23T09:28:26Z</time>
      </trkpt>
      <trkpt lat="47.695237006992102" lon="7.019667970016599">
        <ele>377.94</ele>
        <time>2025-04-23T09:29:13Z</time>
      </trkpt>
      <trkpt lat="47.695226026698947" lon="7.019665958359838">
        <ele>377.94</ele>
        <time>2025-04-23T09:30:05Z</time>
      </trkpt>
      <trkpt lat="47.695230972021818" lon="7.01966998167336">
        <ele>378.42000000000002</ele>
        <time>2025-04-23T09:31:00Z</time>
      </trkpt>
      <trkpt lat="47.695230972021818" lon="7.019671993330121">
        <ele>378.42000000000002</ele>
        <time>2025-04-23T09:31:44Z</time>
      </trkpt>
      <trkpt lat="47.695239018648863" lon="7.019674004986882">
        <ele>378.42000000000002</ele>
        <time>2025-04-23T09:32:27Z</time>
      </trkpt>
      <trkpt lat="47.695242036134005" lon="7.019674004986882">
        <ele>378.42000000000002</ele>
        <time>2025-04-23T09:32:48Z</time>
      </trkpt>
      <trkpt lat="47.695213034749031" lon="7.019493039697409">
        <ele>377.44999999999999</ele>
        <time>2025-04-23T09:33:02Z</time>
      </trkpt>
      <trkpt lat="47.695131981745362" lon="7.019458003342152">
        <ele>377.44999999999999</ele>
        <time>2025-04-23T09:33:03Z</time>
      </trkpt>
      <trkpt lat="47.695058975368738" lon="7.019444005563855">
        <ele>376.97000000000003</ele>
        <time>2025-04-23T09:33:05Z</time>
      </trkpt>
      <trkpt lat="47.694298988208175" lon="7.019319031387568">
        <ele>375.52999999999997</ele>
        <time>2025-04-23T09:33:11Z</time>
      </trkpt>
      <trkpt lat="47.694162027910352" lon="7.019297992810607">
        <ele>376.00999999999999</ele>
        <time>2025-04-23T09:33:12Z</time>
      </trkpt>
      <trkpt lat="47.694031018763781" lon="7.019193973392248">
        <ele>376.00999999999999</ele>
        <time>2025-04-23T09:33:13Z</time>
      </trkpt>
      <trkpt lat="47.693897997960448" lon="7.019089031964541">
        <ele>376.00999999999999</ele>
        <time>2025-04-23T09:33:14Z</time>
      </trkpt>
      <trkpt lat="47.693756008520722" lon="7.018975960090756">
        <ele>376.00999999999999</ele>
        <time>2025-04-23T09:33:15Z</time>
      </trkpt>
      <trkpt lat="47.693604966625571" lon="7.018855009227991">
        <ele>376.49000000000001</ele>
        <time>2025-04-23T09:33:16Z</time>
      </trkpt>
      <trkpt lat="47.692253971472383" lon="7.017552964389324">
        <ele>376.00999999999999</ele>
        <time>2025-04-23T09:33:24Z</time>
      </trkpt>
      <trkpt lat="47.690092027187347" lon="7.015211982652545">
        <ele>374.08999999999997</ele>
        <time>2025-04-23T09:33:35Z</time>
      </trkpt>
      <trkpt lat="47.688484964892268" lon="7.013260005041957">
        <ele>371.20999999999998</ele>
        <time>2025-04-23T09:33:43Z</time>
      </trkpt>
      <trkpt lat="47.68605899065733" lon="7.009590994566679">
        <ele>369.75999999999999</ele>
        <time>2025-04-23T09:33:56Z</time>
      </trkpt>
      <trkpt lat="47.684261994436383" lon="7.006178973242641">
        <ele>370.73000000000002</ele>
        <time>2025-04-23T09:34:07Z</time>
      </trkpt>
      <trkpt lat="47.682993980124593" lon="7.003185041248798">
        <ele>372.64999999999998</ele>
        <time>2025-04-23T09:34:16Z</time>
      </trkpt>
      <trkpt lat="47.682216977700591" lon="7.00112602673471">
        <ele>376.49000000000001</ele>
        <time>2025-04-23T09:34:23Z</time>
      </trkpt>
      <trkpt lat="47.681505018845201" lon="6.999057959765196">
        <ele>378.42000000000002</ele>
        <time>2025-04-23T09:34:31Z</time>
      </trkpt>
      <trkpt lat="47.68113998696208" lon="6.997997984290123">
        <ele>379.38</ele>
        <time>2025-04-23T09:34:37Z</time>
      </trkpt>
      <trkpt lat="47.680688034743071" lon="6.996684959158301">
        <ele>382.25999999999999</ele>
        <time>2025-04-23T09:34:46Z</time>
      </trkpt>
      <trkpt lat="47.680189982056618" lon="6.995204966515303">
        <ele>380.81999999999999</ele>
        <time>2025-04-23T09:34:56Z</time>
      </trkpt>
      <trkpt lat="47.679600985720754" lon="6.993417022749782">
        <ele>377.44999999999999</ele>
        <time>2025-04-23T09:35:08Z</time>
      </trkpt>
      <trkpt lat="47.679130006581545" lon="6.991991009563208">
        <ele>372.17000000000002</ele>
        <time>2025-04-23T09:35:18Z</time>
      </trkpt>
      <trkpt lat="47.678508991375566" lon="6.99010499753058">
        <ele>368.80000000000001</ele>
        <time>2025-04-23T09:35:29Z</time>
      </trkpt>
      <trkpt lat="47.67825803719461" lon="6.989303017035127">
        <ele>365.44</ele>
        <time>2025-04-23T09:35:35Z</time>
      </trkpt>
      <trkpt lat="47.677902979776263" lon="6.988158971071243">
        <ele>370.24000000000001</ele>
        <time>2025-04-23T09:35:46Z</time>
      </trkpt>
      <trkpt lat="47.677576001733541" lon="6.987073011696339">
        <ele>372.17000000000002</ele>
        <time>2025-04-23T09:35:58Z</time>
      </trkpt>
      <trkpt lat="47.677438035607338" lon="6.986617036163807">
        <ele>373.61000000000001</ele>
        <time>2025-04-23T09:36:08Z</time>
      </trkpt>
      <trkpt lat="47.677346002310514" lon="6.986315036192536">
        <ele>375.05000000000001</ele>
        <time>2025-04-23T09:36:14Z</time>
      </trkpt>
      <trkpt lat="47.677304008975625" lon="6.986159970983863">
        <ele>375.52999999999997</ele>
        <time>2025-04-23T09:36:16Z</time>
      </trkpt>
      <trkpt lat="47.677283976227045" lon="6.986089982092381">
        <ele>375.52999999999997</ele>
        <time>2025-04-23T09:36:17Z</time>
      </trkpt>
      <trkpt lat="47.677087001502514" lon="6.985336029902101">
        <ele>376.49000000000001</ele>
        <time>2025-04-23T09:36:28Z</time>
      </trkpt>
      <trkpt lat="47.676941994577646" lon="6.984775029122829">
        <ele>375.05000000000001</ele>
        <time>2025-04-23T09:36:40Z</time>
      </trkpt>
      <trkpt lat="47.676867982372642" lon="6.984490966424346">
        <ele>375.05000000000001</ele>
        <time>2025-04-23T09:36:51Z</time>
      </trkpt>
      <trkpt lat="47.676867982372642" lon="6.984490966424346">
        <ele>375.05000000000001</ele>
        <time>2025-04-23T09:37:07Z</time>
      </trkpt>
      <trkpt lat="47.676867982372642" lon="6.984490966424346">
        <ele>375.05000000000001</ele>
        <time>2025-04-23T09:37:13Z</time>
      </trkpt>
      <trkpt lat="47.676820959895849" lon="6.984310001134872">
        <ele>376.49000000000001</ele>
        <time>2025-04-23T09:37:20Z</time>
      </trkpt>
      <trkpt lat="47.67680000513792" lon="6.984225008636713">
        <ele>376.00999999999999</ele>
        <time>2025-04-23T09:37:21Z</time>
      </trkpt>
      <trkpt lat="47.676777960732579" lon="6.98413297533989">
        <ele>375.52999999999997</ele>
        <time>2025-04-23T09:37:22Z</time>
      </trkpt>
      <trkpt lat="47.676754994317889" lon="6.984029961749911">
        <ele>375.52999999999997</ele>
        <time>2025-04-23T09:37:23Z</time>
      </trkpt>
      <trkpt lat="47.676728004589677" lon="6.983915967866778">
        <ele>375.52999999999997</ele>
        <time>2025-04-23T09:37:24Z</time>
      </trkpt>
      <trkpt lat="47.676500016823411" lon="6.98290703818202">
        <ele>375.52999999999997</ele>
        <time>2025-04-23T09:37:34Z</time>
      </trkpt>
      <trkpt lat="47.676301030442119" lon="6.982056023553014">
        <ele>376.49000000000001</ele>
        <time>2025-04-23T09:37:45Z</time>
      </trkpt>
      <trkpt lat="47.676229029893875" lon="6.981809008866549">
        <ele>376.97000000000003</ele>
        <time>2025-04-23T09:37:52Z</time>
      </trkpt>
      <trkpt lat="47.676229029893875" lon="6.981809008866549">
        <ele>376.97000000000003</ele>
        <time>2025-04-23T09:37:53Z</time>
      </trkpt>
      <trkpt lat="47.676229029893875" lon="6.981809008866549">
        <ele>375.05000000000001</ele>
        <time>2025-04-23T09:38:07Z</time>
      </trkpt>
      <trkpt lat="47.676229029893875" lon="6.981809008866549">
        <ele>375.05000000000001</ele>
        <time>2025-04-23T09:38:33Z</time>
      </trkpt>
      <trkpt lat="47.676229029893875" lon="6.981809008866549">
        <ele>374.56999999999999</ele>
        <time>2025-04-23T09:38:59Z</time>
      </trkpt>
      <trkpt lat="47.676229029893875" lon="6.981809008866549">
        <ele>375.05000000000001</ele>
        <time>2025-04-23T09:39:31Z</time>
      </trkpt>
      <trkpt lat="47.676229029893875" lon="6.981809008866549">
        <ele>374.56999999999999</ele>
        <time>2025-04-23T09:39:56Z</time>
      </trkpt>
      <trkpt lat="47.676229029893875" lon="6.981809008866549">
        <ele>374.56999999999999</ele>
        <time>2025-04-23T09:40:22Z</time>
      </trkpt>
      <trkpt lat="47.676179995760322" lon="6.98164002969861">
        <ele>374.56999999999999</ele>
        <time>2025-04-23T09:40:38Z</time>
      </trkpt>
      <trkpt lat="47.676171027123928" lon="6.981612034142017">
        <ele>372.64999999999998</ele>
        <time>2025-04-23T09:40:40Z</time>
      </trkpt>
      <trkpt lat="47.676117969676852" lon="6.981454035267234">
        <ele>372.17000000000002</ele>
        <time>2025-04-23T09:40:41Z</time>
      </trkpt>
      <trkpt lat="47.676087962463498" lon="6.981365019455552">
        <ele>371.69</ele>
        <time>2025-04-23T09:40:42Z</time>
      </trkpt>
      <trkpt lat="47.676046974956989" lon="6.980678960680962">
        <ele>369.75999999999999</ele>
        <time>2025-04-23T09:40:48Z</time>
      </trkpt>
      <trkpt lat="47.676044041290879" lon="6.980608971789479">
        <ele>369.75999999999999</ele>
        <time>2025-04-23T09:40:49Z</time>
      </trkpt>
      <trkpt lat="47.676042029634118" lon="6.980552980676293">
        <ele>369.27999999999997</ele>
        <time>2025-04-23T09:40:50Z</time>
      </trkpt>
      <trkpt lat="47.676042029634118" lon="6.980552980676293">
        <ele>369.27999999999997</ele>
        <time>2025-04-23T09:40:58Z</time>
      </trkpt>
      <trkpt lat="47.676042029634118" lon="6.980552980676293">
        <ele>369.75999999999999</ele>
        <time>2025-04-23T09:41:38Z</time>
      </trkpt>
      <trkpt lat="47.676038006320596" lon="6.980460025370121">
        <ele>369.75999999999999</ele>
        <time>2025-04-23T09:41:50Z</time>
      </trkpt>
      <trkpt lat="47.676035994663835" lon="6.980397999286652">
        <ele>369.75999999999999</ele>
        <time>2025-04-23T09:41:51Z</time>
      </trkpt>
      <trkpt lat="47.676033983007073" lon="6.980337984859943">
        <ele>370.24000000000001</ele>
        <time>2025-04-23T09:41:52Z</time>
      </trkpt>
      <trkpt lat="47.676030965521932" lon="6.980266990140081">
        <ele>370.73000000000002</ele>
        <time>2025-04-23T09:41:53Z</time>
      </trkpt>
      <trkpt lat="47.676015039905906" lon="6.980172023177147">
        <ele>370.73000000000002</ele>
        <time>2025-04-23T09:41:54Z</time>
      </trkpt>
      <trkpt lat="47.675964999943972" lon="6.979922996833921">
        <ele>370.73000000000002</ele>
        <time>2025-04-23T09:41:57Z</time>
      </trkpt>
      <trkpt lat="47.675930969417095" lon="6.979836998507381">
        <ele>370.73000000000002</ele>
        <time>2025-04-23T09:41:58Z</time>
      </trkpt>
      <trkpt lat="47.675900040194392" lon="6.979759968817234">
        <ele>370.24000000000001</ele>
        <time>2025-04-23T09:41:59Z</time>
      </trkpt>
      <trkpt lat="47.675865003839135" lon="6.979678999632597">
        <ele>370.24000000000001</ele>
        <time>2025-04-23T09:42:00Z</time>
      </trkpt>
      <trkpt lat="47.675823010504246" lon="6.979590989649296">
        <ele>369.75999999999999</ele>
        <time>2025-04-23T09:42:02Z</time>
      </trkpt>
      <trkpt lat="47.675356976687908" lon="6.978824967518449">
        <ele>368.80000000000001</ele>
        <time>2025-04-23T09:42:10Z</time>
      </trkpt>
      <trkpt lat="47.675221022218466" lon="6.978633021935821">
        <ele>368.80000000000001</ele>
        <time>2025-04-23T09:42:12Z</time>
      </trkpt>
      <trkpt lat="47.674674019217491" lon="6.977485958486795">
        <ele>370.24000000000001</ele>
        <time>2025-04-23T09:42:21Z</time>
      </trkpt>
      <trkpt lat="47.67404998652637" lon="6.975673958659172">
        <ele>373.13</ele>
        <time>2025-04-23T09:42:31Z</time>
      </trkpt>
      <trkpt lat="47.673610020428896" lon="6.973631959408522">
        <ele>376.00999999999999</ele>
        <time>2025-04-23T09:42:41Z</time>
      </trkpt>
      <trkpt lat="47.673412039875984" lon="6.972090024501085">
        <ele>378.89999999999998</ele>
        <time>2025-04-23T09:42:49Z</time>
      </trkpt>
      <trkpt lat="47.673343978822231" lon="6.971957003697753">
        <ele>379.38</ele>
        <time>2025-04-23T09:42:50Z</time>
      </trkpt>
      <trkpt lat="47.673259992152452" lon="6.971909981220961">
        <ele>379.38</ele>
        <time>2025-04-23T09:42:51Z</time>
      </trkpt>
      <trkpt lat="47.67316997051239" lon="6.971918027848005">
        <ele>379.86000000000001</ele>
        <time>2025-04-23T09:42:52Z</time>
      </trkpt>
      <trkpt lat="47.673090007156134" lon="6.971940994262695">
        <ele>379.86000000000001</ele>
        <time>2025-04-23T09:42:53Z</time>
      </trkpt>
      <trkpt lat="47.672989005222917" lon="6.971982987597585">
        <ele>379.86000000000001</ele>
        <time>2025-04-23T09:42:54Z</time>
      </trkpt>
      <trkpt lat="47.672896971926093" lon="6.972049959003925">
        <ele>379.38</ele>
        <time>2025-04-23T09:42:55Z</time>
      </trkpt>
      <trkpt lat="47.672810973599553" lon="6.972112990915775">
        <ele>379.38</ele>
        <time>2025-04-23T09:42:56Z</time>
      </trkpt>
      <trkpt lat="47.672410989180207" lon="6.972420020028949">
        <ele>378.89999999999998</ele>
        <time>2025-04-23T09:43:01Z</time>
      </trkpt>
      <trkpt lat="47.672322979196906" lon="6.972464025020599">
        <ele>378.89999999999998</ele>
        <time>2025-04-23T09:43:02Z</time>
      </trkpt>
      <trkpt lat="47.672216026112437" lon="6.972483973950148">
        <ele>378.42000000000002</ele>
        <time>2025-04-23T09:43:03Z</time>
      </trkpt>
      <trkpt lat="47.672101026400924" lon="6.972492020577192">
        <ele>378.42000000000002</ele>
        <time>2025-04-23T09:43:04Z</time>
      </trkpt>
      <trkpt lat="47.671978985890746" lon="6.972500989213586">
        <ele>378.42000000000002</ele>
        <time>2025-04-23T09:43:05Z</time>
      </trkpt>
      <trkpt lat="47.671852000057697" lon="6.97250803001225">
        <ele>378.42000000000002</ele>
        <time>2025-04-23T09:43:06Z</time>
      </trkpt>
      <trkpt lat="47.671174993738532" lon="6.972569972276688">
        <ele>377.44999999999999</ele>
        <time>2025-04-23T09:43:11Z</time>
      </trkpt>
      <trkpt lat="47.671034010127187" lon="6.972613977268338">
        <ele>377.44999999999999</ele>
        <time>2025-04-23T09:43:12Z</time>
      </trkpt>
      <trkpt lat="47.670897971838713" lon="6.972668040543795">
        <ele>376.97000000000003</ele>
        <time>2025-04-23T09:43:13Z</time>
      </trkpt>
      <trkpt lat="47.670768974348903" lon="6.972768036648631">
        <ele>376.49000000000001</ele>
        <time>2025-04-23T09:43:14Z</time>
      </trkpt>
      <trkpt lat="47.670641988515854" lon="6.972866021096706">
        <ele>376.00999999999999</ele>
        <time>2025-04-23T09:43:15Z</time>
      </trkpt>
      <trkpt lat="47.670524977147579" lon="6.972996024414897">
        <ele>375.52999999999997</ele>
        <time>2025-04-23T09:43:16Z</time>
      </trkpt>
      <trkpt lat="47.670419029891491" lon="6.97313298471272">
        <ele>375.05000000000001</ele>
        <time>2025-04-23T09:43:17Z</time>
      </trkpt>
      <trkpt lat="47.670322973281145" lon="6.973301041871309">
        <ele>375.05000000000001</ele>
        <time>2025-04-23T09:43:18Z</time>
      </trkpt>
      <trkpt lat="47.67024502158165" lon="6.973471026867628">
        <ele>374.56999999999999</ele>
        <time>2025-04-23T09:43:19Z</time>
      </trkpt>
      <trkpt lat="47.670175032690167" lon="6.973657021299005">
        <ele>374.08999999999997</ele>
        <time>2025-04-23T09:43:20Z</time>
      </trkpt>
      <trkpt lat="47.670123986899853" lon="6.973843015730381">
        <ele>373.61000000000001</ele>
        <time>2025-04-23T09:43:21Z</time>
      </trkpt>
      <trkpt lat="47.670080987736583" lon="6.974043007940054">
        <ele>373.13</ele>
        <time>2025-04-23T09:43:22Z</time>
      </trkpt>
      <trkpt lat="47.670036982744932" lon="6.974244005978108">
        <ele>373.13</ele>
        <time>2025-04-23T09:43:23Z</time>
      </trkpt>
      <trkpt lat="47.669994989410043" lon="6.974440980702639">
        <ele>372.64999999999998</ele>
        <time>2025-04-23T09:43:24Z</time>
      </trkpt>
      <trkpt lat="47.669971017166972" lon="6.97463602758944">
        <ele>372.64999999999998</ele>
        <time>2025-04-23T09:43:25Z</time>
      </trkpt>
      <trkpt lat="47.669958025217056" lon="6.97485001757741">
        <ele>372.17000000000002</ele>
        <time>2025-04-23T09:43:26Z</time>
      </trkpt>
      <trkpt lat="47.669934974983335" lon="6.976727982982993">
        <ele>369.75999999999999</ele>
        <time>2025-04-23T09:43:34Z</time>
      </trkpt>
      <trkpt lat="47.670167991891503" lon="6.979130990803242">
        <ele>369.75999999999999</ele>
        <time>2025-04-23T09:43:44Z</time>
      </trkpt>
      <trkpt lat="47.670157011598349" lon="6.979331988841295">
        <ele>369.75999999999999</ele>
        <time>2025-04-23T09:43:45Z</time>
      </trkpt>
      <trkpt lat="47.670134967193007" lon="6.979516977444291">
        <ele>369.27999999999997</ele>
        <time>2025-04-23T09:43:46Z</time>
      </trkpt>
      <trkpt lat="47.669992977753282" lon="6.980156013742089">
        <ele>368.80000000000001</ele>
        <time>2025-04-23T09:43:50Z</time>
      </trkpt>
      <trkpt lat="47.669940004125237" lon="6.980281993746758">
        <ele>368.31999999999999</ele>
        <time>2025-04-23T09:43:51Z</time>
      </trkpt>
      <trkpt lat="47.669849982485175" lon="6.980377966538072">
        <ele>368.31999999999999</ele>
        <time>2025-04-23T09:43:52Z</time>
      </trkpt>
      <trkpt lat="47.669730959460139" lon="6.980449967086315">
        <ele>368.31999999999999</ele>
        <time>2025-04-23T09:43:53Z</time>
      </trkpt>
      <trkpt lat="47.669598022475839" lon="6.980529008433223">
        <ele>368.31999999999999</ele>
        <time>2025-04-23T09:43:54Z</time>
      </trkpt>
      <trkpt lat="47.668457999825478" lon="6.980924969539046">
        <ele>368.31999999999999</ele>
        <time>2025-04-23T09:44:01Z</time>
      </trkpt>
      <trkpt lat="47.668137978762388" lon="6.981173995882273">
        <ele>367.83999999999997</ele>
        <time>2025-04-23T09:44:03Z</time>
      </trkpt>
      <trkpt lat="47.667573960497975" lon="6.981880003586412">
        <ele>367.36000000000001</ele>
        <time>2025-04-23T09:44:07Z</time>
      </trkpt>
      <trkpt lat="47.667457032948732" lon="6.982093993574381">
        <ele>367.36000000000001</ele>
        <time>2025-04-23T09:44:08Z</time>
      </trkpt>
      <trkpt lat="47.667349996045232" lon="6.982320975512266">
        <ele>367.36000000000001</ele>
        <time>2025-04-23T09:44:09Z</time>
      </trkpt>
      <trkpt lat="47.666983958333731" lon="6.984264990314841">
        <ele>368.31999999999999</ele>
        <time>2025-04-23T09:44:16Z</time>
      </trkpt>
      <trkpt lat="47.66704497858882" lon="6.987457992509008">
        <ele>368.80000000000001</ele>
        <time>2025-04-23T09:44:26Z</time>
      </trkpt>
      <trkpt lat="47.667596004903316" lon="6.990705979987979">
        <ele>365.44</ele>
        <time>2025-04-23T09:44:36Z</time>
      </trkpt>
      <trkpt lat="47.668240992352366" lon="6.994498036801815">
        <ele>361.11000000000001</ele>
        <time>2025-04-23T09:44:49Z</time>
      </trkpt>
      <trkpt lat="47.668705014511943" lon="6.997226011008024">
        <ele>360.14999999999998</ele>
        <time>2025-04-23T09:45:00Z</time>
      </trkpt>
      <trkpt lat="47.669295016676188" lon="6.999509995803237">
        <ele>361.58999999999997</ele>
        <time>2025-04-23T09:45:10Z</time>
      </trkpt>
      <trkpt lat="47.66992500051856" lon="7.001673029735684">
        <ele>362.55000000000001</ele>
        <time>2025-04-23T09:45:20Z</time>
      </trkpt>
      <trkpt lat="47.670002030208707" lon="7.003255030140281">
        <ele>366.39999999999998</ele>
        <time>2025-04-23T09:45:28Z</time>
      </trkpt>
      <trkpt lat="47.669984009116888" lon="7.003358965739608">
        <ele>366.88</ele>
        <time>2025-04-23T09:45:29Z</time>
      </trkpt>
      <trkpt lat="47.669969005510211" lon="7.003440018743277">
        <ele>367.36000000000001</ele>
        <time>2025-04-23T09:45:30Z</time>
      </trkpt>
      <trkpt lat="47.669958025217056" lon="7.003506990149617">
        <ele>367.36000000000001</ele>
        <time>2025-04-23T09:45:31Z</time>
      </trkpt>
      <trkpt lat="47.66994796693325" lon="7.003561975434423">
        <ele>367.36000000000001</ele>
        <time>2025-04-23T09:45:32Z</time>
      </trkpt>
      <trkpt lat="47.669935980811715" lon="7.003633975982666">
        <ele>367.83999999999997</ele>
        <time>2025-04-23T09:45:33Z</time>
      </trkpt>
      <trkpt lat="47.669911002740264" lon="7.003671023994684">
        <ele>367.83999999999997</ele>
        <time>2025-04-23T09:45:34Z</time>
      </trkpt>
      <trkpt lat="47.669885018840432" lon="7.00374998152256">
        <ele>367.83999999999997</ele>
        <time>2025-04-23T09:45:36Z</time>
      </trkpt>
      <trkpt lat="47.669871021062136" lon="7.003848971799016">
        <ele>367.83999999999997</ele>
        <time>2025-04-23T09:45:37Z</time>
      </trkpt>
      <trkpt lat="47.669883007183671" lon="7.003917032852769">
        <ele>367.83999999999997</ele>
        <time>2025-04-23T09:45:38Z</time>
      </trkpt>
      <trkpt lat="47.669914020225406" lon="7.004019962623715">
        <ele>367.83999999999997</ele>
        <time>2025-04-23T09:45:39Z</time>
      </trkpt>
      <trkpt lat="47.66994696110487" lon="7.004160024225712">
        <ele>367.83999999999997</ele>
        <time>2025-04-23T09:45:40Z</time>
      </trkpt>
      <trkpt lat="47.669978979974985" lon="7.004303019493818">
        <ele>368.31999999999999</ele>
        <time>2025-04-23T09:45:41Z</time>
      </trkpt>
      <trkpt lat="47.670012004673481" lon="7.004445008933544">
        <ele>368.31999999999999</ele>
        <time>2025-04-23T09:45:42Z</time>
      </trkpt>
      <trkpt lat="47.670044023543596" lon="7.004602001979947">
        <ele>368.80000000000001</ele>
        <time>2025-04-23T09:45:43Z</time>
      </trkpt>
      <trkpt lat="47.670047041028738" lon="7.00475899502635">
        <ele>368.80000000000001</ele>
        <time>2025-04-23T09:45:44Z</time>
      </trkpt>
      <trkpt lat="47.670056009665132" lon="7.005678992718458">
        <ele>370.24000000000001</ele>
        <time>2025-04-23T09:45:51Z</time>
      </trkpt>
      <trkpt lat="47.669873032718897" lon="7.007452016696334">
        <ele>372.64999999999998</ele>
        <time>2025-04-23T09:46:00Z</time>
      </trkpt>
      <trkpt lat="47.669832967221737" lon="7.007656032219529">
        <ele>372.64999999999998</ele>
        <time>2025-04-23T09:46:01Z</time>
      </trkpt>
      <trkpt lat="47.669769013300538" lon="7.007845966145396">
        <ele>372.64999999999998</ele>
        <time>2025-04-23T09:46:02Z</time>
      </trkpt>
      <trkpt lat="47.669442035257816" lon="7.008548034355044">
        <ele>372.64999999999998</ele>
        <time>2025-04-23T09:46:06Z</time>
      </trkpt>
      <trkpt lat="47.669330975040793" lon="7.008682982996106">
        <ele>372.64999999999998</ele>
        <time>2025-04-23T09:46:07Z</time>
      </trkpt>
      <trkpt lat="47.66921597532928" lon="7.008822038769722">
        <ele>372.64999999999998</ele>
        <time>2025-04-23T09:46:08Z</time>
      </trkpt>
      <trkpt lat="47.669100975617766" lon="7.008961010724306">
        <ele>372.64999999999998</ele>
        <time>2025-04-23T09:46:09Z</time>
      </trkpt>
      <trkpt lat="47.668986981734633" lon="7.00909998267889">
        <ele>372.64999999999998</ele>
        <time>2025-04-23T09:46:10Z</time>
      </trkpt>
      <trkpt lat="47.668872987851501" lon="7.009238032624126">
        <ele>372.17000000000002</ele>
        <time>2025-04-23T09:46:11Z</time>
      </trkpt>
      <trkpt lat="47.66876301728189" lon="7.009370969608426">
        <ele>372.64999999999998</ele>
        <time>2025-04-23T09:46:13Z</time>
      </trkpt>
      <trkpt lat="47.667412022128701" lon="7.009736001491547">
        <ele>372.64999999999998</ele>
        <time>2025-04-23T09:46:21Z</time>
      </trkpt>
      <trkpt lat="47.666413988918066" lon="7.00944003649056">
        <ele>371.69</ele>
        <time>2025-04-23T09:46:29Z</time>
      </trkpt>
      <trkpt lat="47.666338970884681" lon="7.009384967386723">
        <ele>370.73000000000002</ele>
        <time>2025-04-23T09:46:30Z</time>
      </trkpt>
      <trkpt lat="47.666308963671327" lon="7.009363006800413">
        <ele>370.24000000000001</ele>
        <time>2025-04-23T09:46:31Z</time>
      </trkpt>
      <trkpt lat="47.666234029456973" lon="7.009210037067533">
        <ele>369.75999999999999</ele>
        <time>2025-04-23T09:46:32Z</time>
      </trkpt>
      <trkpt lat="47.666123975068331" lon="7.009188998490572">
        <ele>369.27999999999997</ele>
        <time>2025-04-23T09:46:33Z</time>
      </trkpt>
      <trkpt lat="47.66605599783361" lon="7.009210959076881">
        <ele>369.27999999999997</ele>
        <time>2025-04-23T09:46:34Z</time>
      </trkpt>
      <trkpt lat="47.665988020598888" lon="7.009298969060183">
        <ele>369.27999999999997</ele>
        <time>2025-04-23T09:46:35Z</time>
      </trkpt>
      <trkpt lat="47.66573497094214" lon="7.009316990152001">
        <ele>369.27999999999997</ele>
        <time>2025-04-23T09:46:38Z</time>
      </trkpt>
      <trkpt lat="47.665636986494064" lon="7.009308021515608">
        <ele>369.27999999999997</ele>
        <time>2025-04-23T09:46:39Z</time>
      </trkpt>
      <trkpt lat="47.664478020742536" lon="7.009073998779059">
        <ele>372.64999999999998</ele>
        <time>2025-04-23T09:46:49Z</time>
      </trkpt>
      <trkpt lat="47.662858972325921" lon="7.009268961846829">
        <ele>380.33999999999997</ele>
        <time>2025-04-23T09:47:00Z</time>
      </trkpt>
      <trkpt lat="47.661536978557706" lon="7.009590994566679">
        <ele>380.33999999999997</ele>
        <time>2025-04-23T09:47:10Z</time>
      </trkpt>
      <trkpt lat="47.661198014393449" lon="7.00956903398037">
        <ele>380.33999999999997</ele>
        <time>2025-04-23T09:47:15Z</time>
      </trkpt>
      <trkpt lat="47.661137999966741" lon="7.009555036202073">
        <ele>380.33999999999997</ele>
        <time>2025-04-23T09:47:16Z</time>
      </trkpt>
      <trkpt lat="47.661086032167077" lon="7.009542966261506">
        <ele>380.81999999999999</ele>
        <time>2025-04-23T09:47:17Z</time>
      </trkpt>
      <trkpt lat="47.661046972498298" lon="7.009530980139971">
        <ele>380.81999999999999</ele>
        <time>2025-04-23T09:47:18Z</time>
      </trkpt>
      <trkpt lat="47.66100799664855" lon="7.009496027603746">
        <ele>380.81999999999999</ele>
        <time>2025-04-23T09:47:19Z</time>
      </trkpt>
      <trkpt lat="47.660972038283944" lon="7.009465014562011">
        <ele>380.33999999999997</ele>
        <time>2025-04-23T09:47:20Z</time>
      </trkpt>
      <trkpt lat="47.660935996100307" lon="7.009432995691896">
        <ele>380.81999999999999</ele>
        <time>2025-04-23T09:47:21Z</time>
      </trkpt>
      <trkpt lat="47.660903977230191" lon="7.009405000135303">
        <ele>380.81999999999999</ele>
        <time>2025-04-23T09:47:22Z</time>
      </trkpt>
      <trkpt lat="47.660868018865585" lon="7.009386979043484">
        <ele>380.81999999999999</ele>
        <time>2025-04-23T09:47:23Z</time>
      </trkpt>
      <trkpt lat="47.660816973075271" lon="7.009395025670528">
        <ele>380.33999999999997</ele>
        <time>2025-04-23T09:47:24Z</time>
      </trkpt>
      <trkpt lat="47.660761987790465" lon="7.009403994306922">
        <ele>380.33999999999997</ele>
        <time>2025-04-23T09:47:25Z</time>
      </trkpt>
      <trkpt lat="47.660721000283957" lon="7.00944397598505">
        <ele>380.33999999999997</ele>
        <time>2025-04-23T09:47:26Z</time>
      </trkpt>
      <trkpt lat="47.660673977807164" lon="7.009499967098236">
        <ele>379.86000000000001</ele>
        <time>2025-04-23T09:47:27Z</time>
      </trkpt>
      <trkpt lat="47.660644976422191" lon="7.009535003453493">
        <ele>379.86000000000001</ele>
        <time>2025-04-23T09:47:28Z</time>
      </trkpt>
      <trkpt lat="47.660526037216187" lon="7.009502984583378">
        <ele>379.86000000000001</ele>
        <time>2025-04-23T09:47:29Z</time>
      </trkpt>
      <trkpt lat="47.660445990040898" lon="7.009481023997068">
        <ele>379.86000000000001</ele>
        <time>2025-04-23T09:47:30Z</time>
      </trkpt>
      <trkpt lat="47.660353034734726" lon="7.009455962106586">
        <ele>379.86000000000001</ele>
        <time>2025-04-23T09:47:31Z</time>
      </trkpt>
      <trkpt lat="47.659514006227255" lon="7.008932009339333">
        <ele>377.94</ele>
        <time>2025-04-23T09:47:39Z</time>
      </trkpt>
      <trkpt lat="47.657907027751207" lon="7.007254036143422">
        <ele>374.56999999999999</ele>
        <time>2025-04-23T09:47:53Z</time>
      </trkpt>
      <trkpt lat="47.656111037358642" lon="7.005391996353865">
        <ele>371.69</ele>
        <time>2025-04-23T09:48:07Z</time>
      </trkpt>
      <trkpt lat="47.654536999762058" lon="7.003838997334242">
        <ele>370.24000000000001</ele>
        <time>2025-04-23T09:48:19Z</time>
      </trkpt>
      <trkpt lat="47.654389981180429" lon="7.003760961815715">
        <ele>370.24000000000001</ele>
        <time>2025-04-23T09:48:20Z</time>
      </trkpt>
      <trkpt lat="47.654240028932691" lon="7.003690972924233">
        <ele>369.75999999999999</ele>
        <time>2025-04-23T09:48:21Z</time>
      </trkpt>
      <trkpt lat="47.654084963724017" lon="7.003655014559627">
        <ele>369.75999999999999</ele>
        <time>2025-04-23T09:48:22Z</time>
      </trkpt>
      <trkpt lat="47.653927970677614" lon="7.003630958497524">
        <ele>369.27999999999997</ele>
        <time>2025-04-23T09:48:23Z</time>
      </trkpt>
      <trkpt lat="47.653771983459592" lon="7.003622995689511">
        <ele>369.27999999999997</ele>
        <time>2025-04-23T09:48:24Z</time>
      </trkpt>
      <trkpt lat="47.653613984584808" lon="7.003615032881498">
        <ele>368.80000000000001</ele>
        <time>2025-04-23T09:48:25Z</time>
      </trkpt>
      <trkpt lat="47.653019037097692" lon="7.003535991534591">
        <ele>367.36000000000001</ele>
        <time>2025-04-23T09:48:29Z</time>
      </trkpt>
      <trkpt lat="47.652904959395528" lon="7.003481006249785">
        <ele>366.88</ele>
        <time>2025-04-23T09:48:30Z</time>
      </trkpt>
      <trkpt lat="47.652808986604214" lon="7.003433983772993">
        <ele>366.88</ele>
        <time>2025-04-23T09:48:31Z</time>
      </trkpt>
      <trkpt lat="47.652726005762815" lon="7.003395007923245">
        <ele>366.39999999999998</ele>
        <time>2025-04-23T09:48:32Z</time>
      </trkpt>
      <trkpt lat="47.652642019093037" lon="7.003354020416737">
        <ele>366.39999999999998</ele>
        <time>2025-04-23T09:48:33Z</time>
      </trkpt>
      <trkpt lat="47.652555014938116" lon="7.003312027081847">
        <ele>366.39999999999998</ele>
        <time>2025-04-23T09:48:34Z</time>
      </trkpt>
      <trkpt lat="47.652444038540125" lon="7.003204990178347">
        <ele>366.39999999999998</ele>
        <time>2025-04-23T09:48:35Z</time>
      </trkpt>
      <trkpt lat="47.652358040213585" lon="7.003121003508568">
        <ele>366.39999999999998</ele>
        <time>2025-04-23T09:48:36Z</time>
      </trkpt>
      <trkpt lat="47.652255026623607" lon="7.003022013232112">
        <ele>366.39999999999998</ele>
        <time>2025-04-23T09:48:37Z</time>
      </trkpt>
      <trkpt lat="47.652137009426951" lon="7.002907013520598">
        <ele>366.39999999999998</ele>
        <time>2025-04-23T09:48:38Z</time>
      </trkpt>
      <trkpt lat="47.652007006108761" lon="7.002782039344311">
        <ele>366.88</ele>
        <time>2025-04-23T09:48:39Z</time>
      </trkpt>
      <trkpt lat="47.65065299347043" lon="7.001347979530692">
        <ele>369.27999999999997</ele>
        <time>2025-04-23T09:48:48Z</time>
      </trkpt>
      <trkpt lat="47.649145005270839" lon="6.999778971076012">
        <ele>368.31999999999999</ele>
        <time>2025-04-23T09:48:57Z</time>
      </trkpt>
      <trkpt lat="47.647581025958061" lon="6.99824801646173">
        <ele>364.48000000000002</ele>
        <time>2025-04-23T09:49:06Z</time>
      </trkpt>
      <trkpt lat="47.646474028006196" lon="6.997640999034047">
        <ele>361.11000000000001</ele>
        <time>2025-04-23T09:49:12Z</time>
      </trkpt>
      <trkpt lat="47.646148977801204" lon="6.997422985732555">
        <ele>360.63</ele>
        <time>2025-04-23T09:49:14Z</time>
      </trkpt>
      <trkpt lat="47.64601000584662" lon="6.997326007112861">
        <ele>360.14999999999998</ele>
        <time>2025-04-23T09:49:15Z</time>
      </trkpt>
      <trkpt lat="47.645872961729765" lon="6.997142024338245">
        <ele>360.14999999999998</ele>
        <time>2025-04-23T09:49:16Z</time>
      </trkpt>
      <trkpt lat="47.645771037787199" lon="6.997005986049771">
        <ele>359.67000000000002</ele>
        <time>2025-04-23T09:49:17Z</time>
      </trkpt>
      <trkpt lat="47.64568897895515" lon="6.996896015480161">
        <ele>359.67000000000002</ele>
        <time>2025-04-23T09:49:18Z</time>
      </trkpt>
      <trkpt lat="47.645650003105402" lon="6.996748996898532">
        <ele>359.67000000000002</ele>
        <time>2025-04-23T09:49:19Z</time>
      </trkpt>
      <trkpt lat="47.645614966750145" lon="6.996617987751961">
        <ele>359.19</ele>
        <time>2025-04-23T09:49:20Z</time>
      </trkpt>
      <trkpt lat="47.6455810200423" lon="6.996488990262151">
        <ele>359.19</ele>
        <time>2025-04-23T09:49:21Z</time>
      </trkpt>
      <trkpt lat="47.645596023648977" lon="6.996413972228766">
        <ele>358.23000000000002</ele>
        <time>2025-04-23T09:49:22Z</time>
      </trkpt>
      <trkpt lat="47.645643968135118" lon="6.996342977508903">
        <ele>357.75</ele>
        <time>2025-04-23T09:49:23Z</time>
      </trkpt>
      <trkpt lat="47.645720997825265" lon="6.996270976960659">
        <ele>357.75</ele>
        <time>2025-04-23T09:49:24Z</time>
      </trkpt>
      <trkpt lat="47.645814036950469" lon="6.996183972805738">
        <ele>357.75</ele>
        <time>2025-04-23T09:49:25Z</time>
      </trkpt>
      <trkpt lat="47.64592501334846" lon="6.99608095921576">
        <ele>357.26999999999998</ele>
        <time>2025-04-23T09:49:26Z</time>
      </trkpt>
      <trkpt lat="47.646050993353128" lon="6.996032008901238">
        <ele>356.79000000000002</ele>
        <time>2025-04-23T09:49:27Z</time>
      </trkpt>
      <trkpt lat="47.646193988621235" lon="6.995976017788053">
        <ele>356.79000000000002</ele>
        <time>2025-04-23T09:49:28Z</time>
      </trkpt>
      <trkpt lat="47.646347964182496" lon="6.995925977826119">
        <ele>356.31</ele>
        <time>2025-04-23T09:49:29Z</time>
      </trkpt>
      <trkpt lat="47.647577002644539" lon="6.995924971997738">
        <ele>355.33999999999997</ele>
        <time>2025-04-23T09:49:36Z</time>
      </trkpt>
      <trkpt lat="47.648950964212418" lon="6.996705997735262">
        <ele>358.23000000000002</ele>
        <time>2025-04-23T09:49:44Z</time>
      </trkpt>
      <trkpt lat="47.650474961847067" lon="6.998277017846704">
        <ele>363.51999999999998</ele>
        <time>2025-04-23T09:49:55Z</time>
      </trkpt>
      <trkpt lat="47.651697965338826" lon="6.999458028003573">
        <ele>364.95999999999998</ele>
        <time>2025-04-23T09:50:05Z</time>
      </trkpt>
      <trkpt lat="47.651951014995575" lon="6.999609991908073">
        <ele>365.44</ele>
        <time>2025-04-23T09:50:08Z</time>
      </trkpt>
      <trkpt lat="47.652033995836973" lon="6.999620972201228">
        <ele>365.44</ele>
        <time>2025-04-23T09:50:09Z</time>
      </trkpt>
      <trkpt lat="47.65211395919323" lon="6.999620972201228">
        <ele>365.44</ele>
        <time>2025-04-23T09:50:10Z</time>
      </trkpt>
      <trkpt lat="47.652194006368518" lon="6.999606974422932">
        <ele>365.44</ele>
        <time>2025-04-23T09:50:11Z</time>
      </trkpt>
      <trkpt lat="47.652271036058664" lon="6.999562969431281">
        <ele>365.44</ele>
        <time>2025-04-23T09:50:12Z</time>
      </trkpt>
      <trkpt lat="47.652345970273018" lon="6.999509995803237">
        <ele>365.44</ele>
        <time>2025-04-23T09:50:13Z</time>
      </trkpt>
      <trkpt lat="47.65320997685194" lon="6.998695023357868">
        <ele>364.95999999999998</ele>
        <time>2025-04-23T09:50:24Z</time>
      </trkpt>
      <trkpt lat="47.65337803401053" lon="6.998536018654704">
        <ele>364</ele>
        <time>2025-04-23T09:50:26Z</time>
      </trkpt>
      <trkpt lat="47.653460009023547" lon="6.998457983136177">
        <ele>364</ele>
        <time>2025-04-23T09:50:27Z</time>
      </trkpt>
      <trkpt lat="47.653862005099654" lon="6.998077025637031">
        <ele>362.06999999999999</ele>
        <time>2025-04-23T09:50:32Z</time>
      </trkpt>
      <trkpt lat="47.653946997597814" lon="6.998003013432026">
        <ele>361.58999999999997</ele>
        <time>2025-04-23T09:50:33Z</time>
      </trkpt>
      <trkpt lat="47.654035007581115" lon="6.997929001227021">
        <ele>360.63</ele>
        <time>2025-04-23T09:50:34Z</time>
      </trkpt>
      <trkpt lat="47.654127040877938" lon="6.997851971536875">
        <ele>360.14999999999998</ele>
        <time>2025-04-23T09:50:35Z</time>
      </trkpt>
      <trkpt lat="47.65421899035573" lon="6.997773014008999">
        <ele>359.67000000000002</ele>
        <time>2025-04-23T09:50:36Z</time>
      </trkpt>
      <trkpt lat="47.654311023652554" lon="6.997695984318852">
        <ele>358.70999999999998</ele>
        <time>2025-04-23T09:50:37Z</time>
      </trkpt>
      <trkpt lat="47.654572036117315" lon="6.9974759593606">
        <ele>357.26999999999998</ele>
        <time>2025-04-23T09:50:40Z</time>
      </trkpt>
      <trkpt lat="47.654644958674908" lon="6.997354002669454">
        <ele>357.26999999999998</ele>
        <time>2025-04-23T09:50:41Z</time>
      </trkpt>
      <trkpt lat="47.654713019728661" lon="6.997241014614701">
        <ele>356.79000000000002</ele>
        <time>2025-04-23T09:50:42Z</time>
      </trkpt>
      <trkpt lat="47.654778985306621" lon="6.997130960226059">
        <ele>356.31</ele>
        <time>2025-04-23T09:50:43Z</time>
      </trkpt>
      <trkpt lat="47.654842017218471" lon="6.997025012969971">
        <ele>355.82999999999998</ele>
        <time>2025-04-23T09:50:44Z</time>
      </trkpt>
      <trkpt lat="47.655044021084905" lon="6.996688982471824">
        <ele>354.86000000000001</ele>
        <time>2025-04-23T09:50:50Z</time>
      </trkpt>
      <trkpt lat="47.655057013034821" lon="6.996668027713895">
        <ele>354.86000000000001</ele>
        <time>2025-04-23T09:50:52Z</time>
      </trkpt>
      <trkpt lat="47.655045026913285" lon="6.996584041044116">
        <ele>354.86000000000001</ele>
        <time>2025-04-23T09:50:53Z</time>
      </trkpt>
      <trkpt lat="47.655003033578396" lon="6.99655001051724">
        <ele>354.86000000000001</ele>
        <time>2025-04-23T09:50:54Z</time>
      </trkpt>
      <trkpt lat="47.654942013323307" lon="6.996500976383686">
        <ele>354.86000000000001</ele>
        <time>2025-04-23T09:50:55Z</time>
      </trkpt>
      <trkpt lat="47.654869006946683" lon="6.996442973613739">
        <ele>354.86000000000001</ele>
        <time>2025-04-23T09:50:56Z</time>
      </trkpt>
      <trkpt lat="47.654790971428156" lon="6.996380025520921">
        <ele>355.33999999999997</ele>
        <time>2025-04-23T09:50:57Z</time>
      </trkpt>
      <trkpt lat="47.654730034992099" lon="6.996240969747305">
        <ele>355.33999999999997</ele>
        <time>2025-04-23T09:50:58Z</time>
      </trkpt>
      <trkpt lat="47.654688963666558" lon="6.996103003621101">
        <ele>354.86000000000001</ele>
        <time>2025-04-23T09:50:59Z</time>
      </trkpt>
      <trkpt lat="47.654649987816811" lon="6.99597098864615">
        <ele>354.86000000000001</ele>
        <time>2025-04-23T09:51:00Z</time>
      </trkpt>
      <trkpt lat="47.654612017795444" lon="6.995844002813101">
        <ele>354.38</ele>
        <time>2025-04-23T09:51:01Z</time>
      </trkpt>
      <trkpt lat="47.654573963955045" lon="6.995723973959684">
        <ele>353.89999999999998</ele>
        <time>2025-04-23T09:51:02Z</time>
      </trkpt>
      <trkpt lat="47.654457036405802" lon="6.995388027280569">
        <ele>353.42000000000002</ele>
        <time>2025-04-23T09:51:05Z</time>
      </trkpt>
      <trkpt lat="47.654420994222164" lon="6.99528400786221">
        <ele>353.42000000000002</ele>
        <time>2025-04-23T09:51:06Z</time>
      </trkpt>
      <trkpt lat="47.653675004839897" lon="6.994048012420535">
        <ele>353.42000000000002</ele>
        <time>2025-04-23T09:51:19Z</time>
      </trkpt>
      <trkpt lat="47.652675965800881" lon="6.992439022287726">
        <ele>352.94</ele>
        <time>2025-04-23T09:51:32Z</time>
      </trkpt>
      <trkpt lat="47.652395004406571" lon="6.991916997358203">
        <ele>353.89999999999998</ele>
        <time>2025-04-23T09:51:36Z</time>
      </trkpt>
      <trkpt lat="47.652136003598571" lon="6.991333030164242">
        <ele>354.38</ele>
        <time>2025-04-23T09:51:38Z</time>
      </trkpt>
      <trkpt lat="47.652038019150496" lon="6.991154998540878">
        <ele>354.38</ele>
        <time>2025-04-23T09:51:39Z</time>
      </trkpt>
      <trkpt lat="47.651917990297079" lon="6.99100898578763">
        <ele>354.38</ele>
        <time>2025-04-23T09:51:40Z</time>
      </trkpt>
      <trkpt lat="47.651781029999256" lon="6.990890968590975">
        <ele>354.38</ele>
        <time>2025-04-23T09:51:41Z</time>
      </trkpt>
      <trkpt lat="47.651637028902769" lon="6.990780998021364">
        <ele>354.38</ele>
        <time>2025-04-23T09:51:42Z</time>
      </trkpt>
      <trkpt lat="47.651494033634663" lon="6.990671027451754">
        <ele>354.38</ele>
        <time>2025-04-23T09:51:43Z</time>
      </trkpt>
      <trkpt lat="47.651351038366556" lon="6.990561978891492">
        <ele>353.89999999999998</ele>
        <time>2025-04-23T09:51:44Z</time>
      </trkpt>
      <trkpt lat="47.650100961327553" lon="6.989636030048132">
        <ele>352.94</ele>
        <time>2025-04-23T09:51:53Z</time>
      </trkpt>
      <trkpt lat="47.649196973070502" lon="6.989000011235476">
        <ele>355.33999999999997</ele>
        <time>2025-04-23T09:52:02Z</time>
      </trkpt>
      <trkpt lat="47.648679977282882" lon="6.988685019314289">
        <ele>355.82999999999998</ele>
        <time>2025-04-23T09:52:10Z</time>
      </trkpt>
      <trkpt lat="47.648608982563019" lon="6.988641014322639">
        <ele>356.31</ele>
        <time>2025-04-23T09:52:11Z</time>
      </trkpt>
      <trkpt lat="47.648541005328298" lon="6.98860396631062">
        <ele>356.31</ele>
        <time>2025-04-23T09:52:12Z</time>
      </trkpt>
      <trkpt lat="47.648466993123293" lon="6.988572031259537">
        <ele>356.31</ele>
        <time>2025-04-23T09:52:13Z</time>
      </trkpt>
      <trkpt lat="47.648391975089908" lon="6.988539006561041">
        <ele>356.79000000000002</ele>
        <time>2025-04-23T09:52:14Z</time>
      </trkpt>
      <trkpt lat="47.648316035047174" lon="6.988504976034164">
        <ele>356.79000000000002</ele>
        <time>2025-04-23T09:52:15Z</time>
      </trkpt>
      <trkpt lat="47.648220984265208" lon="6.988462982699275">
        <ele>356.79000000000002</ele>
        <time>2025-04-23T09:52:16Z</time>
      </trkpt>
      <trkpt lat="47.648157030344009" lon="6.988462982699275">
        <ele>356.79000000000002</ele>
        <time>2025-04-23T09:52:17Z</time>
      </trkpt>
      <trkpt lat="47.648069020360708" lon="6.988462982699275">
        <ele>356.79000000000002</ele>
        <time>2025-04-23T09:52:18Z</time>
      </trkpt>
      <trkpt lat="47.647535009309649" lon="6.988411014899612">
        <ele>355.33999999999997</ele>
        <time>2025-04-23T09:52:24Z</time>
      </trkpt>
      <trkpt lat="47.647454040125012" lon="6.988363992422819">
        <ele>354.86000000000001</ele>
        <time>2025-04-23T09:52:25Z</time>
      </trkpt>
      <trkpt lat="47.647380027920008" lon="6.988292997702956">
        <ele>354.86000000000001</ele>
        <time>2025-04-23T09:52:26Z</time>
      </trkpt>
      <trkpt lat="47.646500011906028" lon="6.987492023035884">
        <ele>355.33999999999997</ele>
        <time>2025-04-23T09:52:37Z</time>
      </trkpt>
      <trkpt lat="47.646166998893023" lon="6.987209971994162">
        <ele>355.33999999999997</ele>
        <time>2025-04-23T09:52:41Z</time>
      </trkpt>
      <trkpt lat="47.646103966981173" lon="6.98716102167964">
        <ele>355.33999999999997</ele>
        <time>2025-04-23T09:52:42Z</time>
      </trkpt>
      <trkpt lat="47.646050993353128" lon="6.98711902834475">
        <ele>355.82999999999998</ele>
        <time>2025-04-23T09:52:43Z</time>
      </trkpt>
      <trkpt lat="47.646074965596199" lon="6.986767994239926">
        <ele>355.82999999999998</ele>
        <time>2025-04-23T09:52:44Z</time>
      </trkpt>
      <trkpt lat="47.646074965596199" lon="6.986767994239926">
        <ele>355.82999999999998</ele>
        <time>2025-04-23T09:52:45Z</time>
      </trkpt>
      <trkpt lat="47.646086029708385" lon="6.986709991469979">
        <ele>355.82999999999998</ele>
        <time>2025-04-23T09:52:46Z</time>
      </trkpt>
      <trkpt lat="47.646340001374483" lon="6.985339969396591">
        <ele>356.31</ele>
        <time>2025-04-23T09:52:56Z</time>
      </trkpt>
      <trkpt lat="47.646706039085984" lon="6.983364019542933">
        <ele>359.67000000000002</ele>
        <time>2025-04-23T09:53:08Z</time>
      </trkpt>
      <trkpt lat="47.646733028814197" lon="6.983136031776667">
        <ele>360.14999999999998</ele>
        <time>2025-04-23T09:53:10Z</time>
      </trkpt>
      <trkpt lat="47.646746020764112" lon="6.983025977388024">
        <ele>360.14999999999998</ele>
        <time>2025-04-23T09:53:11Z</time>
      </trkpt>
      <trkpt lat="47.64676102437079" lon="6.982904020696878">
        <ele>360.63</ele>
        <time>2025-04-23T09:53:12Z</time>
      </trkpt>
      <trkpt lat="47.646628003567457" lon="6.98155403137207">
        <ele>364.95999999999998</ele>
        <time>2025-04-23T09:53:20Z</time>
      </trkpt>
      <trkpt lat="47.646425999701023" lon="6.980854980647564">
        <ele>366.39999999999998</ele>
        <time>2025-04-23T09:53:23Z</time>
      </trkpt>
      <trkpt lat="47.646338995546103" lon="6.980624981224537">
        <ele>366.88</ele>
        <time>2025-04-23T09:53:24Z</time>
      </trkpt>
      <trkpt lat="47.645610021427274" lon="6.978513998910785">
        <ele>369.75999999999999</ele>
        <time>2025-04-23T09:53:33Z</time>
      </trkpt>
      <trkpt lat="47.645530980080366" lon="6.978003960102797">
        <ele>370.24000000000001</ele>
        <time>2025-04-23T09:53:35Z</time>
      </trkpt>
      <trkpt lat="47.645522011443973" lon="6.97775099426508">
        <ele>370.24000000000001</ele>
        <time>2025-04-23T09:53:36Z</time>
      </trkpt>
      <trkpt lat="47.645512958988547" lon="6.977499034255743">
        <ele>370.24000000000001</ele>
        <time>2025-04-23T09:53:37Z</time>
      </trkpt>
      <trkpt lat="47.645504996180534" lon="6.977250007912517">
        <ele>370.73000000000002</ele>
        <time>2025-04-23T09:53:38Z</time>
      </trkpt>
      <trkpt lat="47.64549502171576" lon="6.976983966305852">
        <ele>370.73000000000002</ele>
        <time>2025-04-23T09:53:39Z</time>
      </trkpt>
      <trkpt lat="47.645862987264991" lon="6.974561009556055">
        <ele>373.13</ele>
        <time>2025-04-23T09:53:49Z</time>
      </trkpt>
      <trkpt lat="47.646144032478333" lon="6.973142959177494">
        <ele>376.00999999999999</ele>
        <time>2025-04-23T09:53:55Z</time>
      </trkpt>
      <trkpt lat="47.646230030804873" lon="6.972950007766485">
        <ele>376.97000000000003</ele>
        <time>2025-04-23T09:53:56Z</time>
      </trkpt>
      <trkpt lat="47.646336983889341" lon="6.972760995849967">
        <ele>377.44999999999999</ele>
        <time>2025-04-23T09:53:57Z</time>
      </trkpt>
      <trkpt lat="47.647514976561069" lon="6.971255019307137">
        <ele>379.86000000000001</ele>
        <time>2025-04-23T09:54:06Z</time>
      </trkpt>
      <trkpt lat="47.647626958787441" lon="6.971058966591954">
        <ele>379.86000000000001</ele>
        <time>2025-04-23T09:54:07Z</time>
      </trkpt>
      <trkpt lat="47.647726032882929" lon="6.970851011574268">
        <ele>379.38</ele>
        <time>2025-04-23T09:54:08Z</time>
      </trkpt>
      <trkpt lat="47.648549973964691" lon="6.968913031741977">
        <ele>378.42000000000002</ele>
        <time>2025-04-23T09:54:17Z</time>
      </trkpt>
      <trkpt lat="47.649305015802383" lon="6.967097008600831">
        <ele>376.49000000000001</ele>
        <time>2025-04-23T09:54:25Z</time>
      </trkpt>
      <trkpt lat="47.650301959365606" lon="6.964699029922485">
        <ele>367.83999999999997</ele>
        <time>2025-04-23T09:54:35Z</time>
      </trkpt>
      <trkpt lat="47.651126990094781" lon="6.962504982948303">
        <ele>361.58999999999997</ele>
        <time>2025-04-23T09:54:44Z</time>
      </trkpt>
      <trkpt lat="47.651821011677384" lon="6.960510006174445">
        <ele>356.79000000000002</ele>
        <time>2025-04-23T09:54:52Z</time>
      </trkpt>
      <trkpt lat="47.652357034385204" lon="6.958735976368189">
        <ele>355.33999999999997</ele>
        <time>2025-04-23T09:54:59Z</time>
      </trkpt>
      <trkpt lat="47.652468010783195" lon="6.957610035315156">
        <ele>355.33999999999997</ele>
        <time>2025-04-23T09:55:03Z</time>
      </trkpt>
      <trkpt lat="47.652458036318421" lon="6.957323960959911">
        <ele>354.86000000000001</ele>
        <time>2025-04-23T09:55:04Z</time>
      </trkpt>
      <trkpt lat="47.652254020795226" lon="6.954787010326982">
        <ele>355.82999999999998</ele>
        <time>2025-04-23T09:55:13Z</time>
      </trkpt>
      <trkpt lat="47.652056962251663" lon="6.951957028359175">
        <ele>357.26999999999998</ele>
        <time>2025-04-23T09:55:23Z</time>
      </trkpt>
      <trkpt lat="47.65187599696219" lon="6.949458969756961">
        <ele>354.38</ele>
        <time>2025-04-23T09:55:32Z</time>
      </trkpt>
      <trkpt lat="47.651760997250676" lon="6.948079979047179">
        <ele>353.42000000000002</ele>
        <time>2025-04-23T09:55:37Z</time>
      </trkpt>
      <trkpt lat="47.65168396756053" lon="6.947834976017475">
        <ele>353.89999999999998</ele>
        <time>2025-04-23T09:55:38Z</time>
      </trkpt>
      <trkpt lat="47.651606015861034" lon="6.947590978816152">
        <ele>354.86000000000001</ele>
        <time>2025-04-23T09:55:39Z</time>
      </trkpt>
      <trkpt lat="47.650858014822006" lon="6.945281010121107">
        <ele>363.04000000000002</ele>
        <time>2025-04-23T09:55:49Z</time>
      </trkpt>
      <trkpt lat="47.650028960779309" lon="6.943308999761939">
        <ele>360.14999999999998</ele>
        <time>2025-04-23T09:55:58Z</time>
      </trkpt>
      <trkpt lat="47.648863960057497" lon="6.94081898778677">
        <ele>351.98000000000002</ele>
        <time>2025-04-23T09:56:09Z</time>
      </trkpt>
      <trkpt lat="47.648748038336635" lon="6.940660988911986">
        <ele>351.01999999999998</ele>
        <time>2025-04-23T09:56:10Z</time>
      </trkpt>
      <trkpt lat="47.648635972291231" lon="6.94051799364388">
        <ele>350.06</ele>
        <time>2025-04-23T09:56:11Z</time>
      </trkpt>
      <trkpt lat="47.648503035306931" lon="6.940428977832198">
        <ele>349.57999999999998</ele>
        <time>2025-04-23T09:56:12Z</time>
      </trkpt>
      <trkpt lat="47.648368002846837" lon="6.940339040011168">
        <ele>349.10000000000002</ele>
        <time>2025-04-23T09:56:13Z</time>
      </trkpt>
      <trkpt lat="47.648235987871885" lon="6.940243989229202">
        <ele>348.62</ele>
        <time>2025-04-23T09:56:14Z</time>
      </trkpt>
      <trkpt lat="47.64811503700912" lon="6.940132007002831">
        <ele>348.13</ele>
        <time>2025-04-23T09:56:15Z</time>
      </trkpt>
      <trkpt lat="47.648001965135336" lon="6.940026981756091">
        <ele>347.64999999999998</ele>
        <time>2025-04-23T09:56:16Z</time>
      </trkpt>
      <trkpt lat="47.647914960980415" lon="6.939898990094662">
        <ele>347.17000000000002</ele>
        <time>2025-04-23T09:56:17Z</time>
      </trkpt>
      <trkpt lat="47.647846983745694" lon="6.939772004261613">
        <ele>346.20999999999998</ele>
        <time>2025-04-23T09:56:18Z</time>
      </trkpt>
      <trkpt lat="47.647770037874579" lon="6.939625991508365">
        <ele>345.73000000000002</ele>
        <time>2025-04-23T09:56:19Z</time>
      </trkpt>
      <trkpt lat="47.6477309782058" lon="6.939491964876652">
        <ele>345.25</ele>
        <time>2025-04-23T09:56:20Z</time>
      </trkpt>
      <trkpt lat="47.647684961557388" lon="6.93933698348701">
        <ele>345.25</ele>
        <time>2025-04-23T09:56:21Z</time>
      </trkpt>
      <trkpt lat="47.647637017071247" lon="6.939174961298704">
        <ele>344.76999999999998</ele>
        <time>2025-04-23T09:56:22Z</time>
      </trkpt>
      <trkpt lat="47.647297969087958" lon="6.937845004722476">
        <ele>345.25</ele>
        <time>2025-04-23T09:56:30Z</time>
      </trkpt>
      <trkpt lat="47.646950036287308" lon="6.936553018167615">
        <ele>347.64999999999998</ele>
        <time>2025-04-23T09:56:41Z</time>
      </trkpt>
      <trkpt lat="47.646878035739064" lon="6.936283959075809">
        <ele>348.13</ele>
        <time>2025-04-23T09:56:43Z</time>
      </trkpt>
      <trkpt lat="47.646610988304019" lon="6.935280980542302">
        <ele>350.06</ele>
        <time>2025-04-23T09:56:50Z</time>
      </trkpt>
      <trkpt lat="47.646574024111032" lon="6.935129016637802">
        <ele>350.54000000000002</ele>
        <time>2025-04-23T09:56:51Z</time>
      </trkpt>
      <trkpt lat="47.646327009424567" lon="6.933968961238861">
        <ele>357.26999999999998</ele>
        <time>2025-04-23T09:56:59Z</time>
      </trkpt>
      <trkpt lat="47.646314017474651" lon="6.933818003162742">
        <ele>358.23000000000002</ele>
        <time>2025-04-23T09:57:00Z</time>
      </trkpt>
      <trkpt lat="47.646275041624904" lon="6.933367978781462">
        <ele>360.63</ele>
        <time>2025-04-23T09:57:03Z</time>
      </trkpt>
      <trkpt lat="47.646261965855956" lon="6.933220038190484">
        <ele>361.58999999999997</ele>
        <time>2025-04-23T09:57:04Z</time>
      </trkpt>
      <trkpt lat="47.64624897390604" lon="6.933072013780475">
        <ele>362.55000000000001</ele>
        <time>2025-04-23T09:57:05Z</time>
      </trkpt>
      <trkpt lat="47.646206980571151" lon="6.932939998805523">
        <ele>364</ele>
        <time>2025-04-23T09:57:06Z</time>
      </trkpt>
      <trkpt lat="47.646121988072991" lon="6.932872021570802">
        <ele>364.95999999999998</ele>
        <time>2025-04-23T09:57:07Z</time>
      </trkpt>
      <trkpt lat="47.646031966432929" lon="6.93280597217381">
        <ele>365.92000000000002</ele>
        <time>2025-04-23T09:57:08Z</time>
      </trkpt>
      <trkpt lat="47.645948985591531" lon="6.932757021859288">
        <ele>366.88</ele>
        <time>2025-04-23T09:57:09Z</time>
      </trkpt>
      <trkpt lat="47.645846977829933" lon="6.932742018252611">
        <ele>367.36000000000001</ele>
        <time>2025-04-23T09:57:10Z</time>
      </trkpt>
      <trkpt lat="47.64545101672411" lon="6.932658031582832">
        <ele>368.80000000000001</ele>
        <time>2025-04-23T09:57:14Z</time>
      </trkpt>
      <trkpt lat="47.645375998690724" lon="6.932615032419562">
        <ele>368.80000000000001</ele>
        <time>2025-04-23T09:57:15Z</time>
      </trkpt>
      <trkpt lat="47.64534498564899" lon="6.932565998286009">
        <ele>368.31999999999999</ele>
        <time>2025-04-23T09:57:16Z</time>
      </trkpt>
      <trkpt lat="47.64534498564899" lon="6.932446975260973">
        <ele>367.83999999999997</ele>
        <time>2025-04-23T09:57:17Z</time>
      </trkpt>
      <trkpt lat="47.645360995084047" lon="6.932325018569827">
        <ele>367.83999999999997</ele>
        <time>2025-04-23T09:57:18Z</time>
      </trkpt>
      <trkpt lat="47.645386978983879" lon="6.932177999988198">
        <ele>367.36000000000001</ele>
        <time>2025-04-23T09:57:19Z</time>
      </trkpt>
      <trkpt lat="47.645413968712091" lon="6.932022012770176">
        <ele>366.88</ele>
        <time>2025-04-23T09:57:20Z</time>
      </trkpt>
      <trkpt lat="47.645440958440304" lon="6.931863008067012">
        <ele>366.88</ele>
        <time>2025-04-23T09:57:21Z</time>
      </trkpt>
      <trkpt lat="47.645720997825265" lon="6.930644027888775">
        <ele>364.48000000000002</ele>
        <time>2025-04-23T09:57:29Z</time>
      </trkpt>
      <trkpt lat="47.645636005327106" lon="6.929200999438763">
        <ele>363.51999999999998</ele>
        <time>2025-04-23T09:57:38Z</time>
      </trkpt>
      <trkpt lat="47.645463002845645" lon="6.92749603651464">
        <ele>365.44</ele>
        <time>2025-04-23T09:57:49Z</time>
      </trkpt>
      <trkpt lat="47.645453028380871" lon="6.927140979096293">
        <ele>366.39999999999998</ele>
        <time>2025-04-23T09:57:52Z</time>
      </trkpt>
      <trkpt lat="47.645389996469021" lon="6.925847986713052">
        <ele>368.80000000000001</ele>
        <time>2025-04-23T09:58:01Z</time>
      </trkpt>
      <trkpt lat="47.645328976213932" lon="6.92543501034379">
        <ele>369.27999999999997</ele>
        <time>2025-04-23T09:58:04Z</time>
      </trkpt>
      <trkpt lat="47.644847016781569" lon="6.923904977738857">
        <ele>372.64999999999998</ele>
        <time>2025-04-23T09:58:15Z</time>
      </trkpt>
      <trkpt lat="47.644627997651696" lon="6.922526992857456">
        <ele>376.00999999999999</ele>
        <time>2025-04-23T09:58:24Z</time>
      </trkpt>
      <trkpt lat="47.644607964903116" lon="6.922369999811053">
        <ele>376.00999999999999</ele>
        <time>2025-04-23T09:58:25Z</time>
      </trkpt>
      <trkpt lat="47.644492965191603" lon="6.921758959069848">
        <ele>376.00999999999999</ele>
        <time>2025-04-23T09:58:29Z</time>
      </trkpt>
      <trkpt lat="47.644575024023652" lon="6.921605989336968">
        <ele>375.52999999999997</ele>
        <time>2025-04-23T09:58:30Z</time>
      </trkpt>
      <trkpt lat="47.644588015973568" lon="6.921444972977042">
        <ele>375.05000000000001</ele>
        <time>2025-04-23T09:58:31Z</time>
      </trkpt>
      <trkpt lat="47.644559014588594" lon="6.921312035992742">
        <ele>375.05000000000001</ele>
        <time>2025-04-23T09:58:32Z</time>
      </trkpt>
      <trkpt lat="47.64455096796155" lon="6.921280017122626">
        <ele>374.08999999999997</ele>
        <time>2025-04-23T09:58:33Z</time>
      </trkpt>
      <trkpt lat="47.644439991563559" lon="6.921041971072555">
        <ele>374.08999999999997</ele>
        <time>2025-04-23T09:58:34Z</time>
      </trkpt>
      <trkpt lat="47.644456000998616" lon="6.920906016603112">
        <ele>373.61000000000001</ele>
        <time>2025-04-23T09:58:35Z</time>
      </trkpt>
      <trkpt lat="47.644429011270404" lon="6.920608039945364">
        <ele>373.13</ele>
        <time>2025-04-23T09:58:37Z</time>
      </trkpt>
      <trkpt lat="47.644403027370572" lon="6.920453980565071">
        <ele>372.64999999999998</ele>
        <time>2025-04-23T09:58:38Z</time>
      </trkpt>
      <trkpt lat="47.644354999065399" lon="6.920308973640204">
        <ele>372.64999999999998</ele>
        <time>2025-04-23T09:58:39Z</time>
      </trkpt>
      <trkpt lat="47.643715040758252" lon="6.91845003515482">
        <ele>371.69</ele>
        <time>2025-04-23T09:58:50Z</time>
      </trkpt>
      <trkpt lat="47.64291800558567" lon="6.916083991527557">
        <ele>373.13</ele>
        <time>2025-04-23T09:59:02Z</time>
      </trkpt>
      <trkpt lat="47.642261032015085" lon="6.914117010310292">
        <ele>378.42000000000002</ele>
        <time>2025-04-23T09:59:13Z</time>
      </trkpt>
      <trkpt lat="47.642104960978031" lon="6.913580987602472">
        <ele>379.38</ele>
        <time>2025-04-23T09:59:18Z</time>
      </trkpt>
      <trkpt lat="47.642104960978031" lon="6.913469005376101">
        <ele>379.38</ele>
        <time>2025-04-23T09:59:20Z</time>
      </trkpt>
      <trkpt lat="47.642104960978031" lon="6.913227019831538">
        <ele>379.38</ele>
        <time>2025-04-23T09:59:21Z</time>
      </trkpt>
      <trkpt lat="47.642042012885213" lon="6.91312400624156">
        <ele>379.38</ele>
        <time>2025-04-23T09:59:22Z</time>
      </trkpt>
      <trkpt lat="47.641998007893562" lon="6.91306097432971">
        <ele>378.89999999999998</ele>
        <time>2025-04-23T09:59:23Z</time>
      </trkpt>
      <trkpt lat="47.641900023445487" lon="6.913046976551414">
        <ele>378.89999999999998</ele>
        <time>2025-04-23T09:59:24Z</time>
      </trkpt>
      <trkpt lat="47.641847971826792" lon="6.913040019571781">
        <ele>378.42000000000002</ele>
        <time>2025-04-23T09:59:25Z</time>
      </trkpt>
      <trkpt lat="47.641727020964026" lon="6.912912027910352">
        <ele>378.42000000000002</ele>
        <time>2025-04-23T09:59:26Z</time>
      </trkpt>
      <trkpt lat="47.641645967960358" lon="6.912826029583812">
        <ele>378.42000000000002</ele>
        <time>2025-04-23T09:59:27Z</time>
      </trkpt>
      <trkpt lat="47.641559969633818" lon="6.912736007943749">
        <ele>378.42000000000002</ele>
        <time>2025-04-23T09:59:28Z</time>
      </trkpt>
      <trkpt lat="47.641460979357362" lon="6.912631988525391">
        <ele>378.42000000000002</ele>
        <time>2025-04-23T09:59:29Z</time>
      </trkpt>
      <trkpt lat="47.641401970759034" lon="6.912494022399187">
        <ele>378.42000000000002</ele>
        <time>2025-04-23T09:59:30Z</time>
      </trkpt>
      <trkpt lat="47.640742985531688" lon="6.910755028948188">
        <ele>380.33999999999997</ele>
        <time>2025-04-23T09:59:40Z</time>
      </trkpt>
      <trkpt lat="47.640057010576129" lon="6.9085250236094">
        <ele>384.66000000000003</ele>
        <time>2025-04-23T09:59:50Z</time>
      </trkpt>
      <trkpt lat="47.639357037842274" lon="6.906058983877301">
        <ele>382.25999999999999</ele>
        <time>2025-04-23T10:00:00Z</time>
      </trkpt>
      <trkpt lat="47.638876000419259" lon="6.903716996312141">
        <ele>376.97000000000003</ele>
        <time>2025-04-23T10:00:09Z</time>
      </trkpt>
      <trkpt lat="47.638610964640975" lon="6.901766024529934">
        <ele>374.56999999999999</ele>
        <time>2025-04-23T10:00:16Z</time>
      </trkpt>
      <trkpt lat="47.638542987406254" lon="6.901493025943637">
        <ele>374.08999999999997</ele>
        <time>2025-04-23T10:00:17Z</time>
      </trkpt>
      <trkpt lat="47.638351963832974" lon="6.900989022105932">
        <ele>374.56999999999999</ele>
        <time>2025-04-23T10:00:19Z</time>
      </trkpt>
      <trkpt lat="47.63741796836257" lon="6.899111978709698">
        <ele>379.86000000000001</ele>
        <time>2025-04-23T10:00:28Z</time>
      </trkpt>
      <trkpt lat="47.637317972257733" lon="6.898934030905366">
        <ele>380.81999999999999</ele>
        <time>2025-04-23T10:00:29Z</time>
      </trkpt>
      <trkpt lat="47.63720297254622" lon="6.898790029808879">
        <ele>381.30000000000001</ele>
        <time>2025-04-23T10:00:30Z</time>
      </trkpt>
      <trkpt lat="47.637091996148229" lon="6.898650974035263">
        <ele>381.77999999999997</ele>
        <time>2025-04-23T10:00:31Z</time>
      </trkpt>
      <trkpt lat="47.636811034753919" lon="6.898253001272678">
        <ele>382.74000000000001</ele>
        <time>2025-04-23T10:00:34Z</time>
      </trkpt>
      <trkpt lat="47.636738028377295" lon="6.898124003782868">
        <ele>382.74000000000001</ele>
        <time>2025-04-23T10:00:35Z</time>
      </trkpt>
      <trkpt lat="47.636722018942237" lon="6.897958964109421">
        <ele>382.74000000000001</ele>
        <time>2025-04-23T10:00:36Z</time>
      </trkpt>
      <trkpt lat="47.636706009507179" lon="6.897798031568527">
        <ele>382.74000000000001</ele>
        <time>2025-04-23T10:00:37Z</time>
      </trkpt>
      <trkpt lat="47.636706009507179" lon="6.897644978016615">
        <ele>382.74000000000001</ele>
        <time>2025-04-23T10:00:38Z</time>
      </trkpt>
      <trkpt lat="47.636727970093489" lon="6.897496031597257">
        <ele>382.74000000000001</ele>
        <time>2025-04-23T10:00:39Z</time>
      </trkpt>
      <trkpt lat="47.636765018105507" lon="6.897357981652021">
        <ele>382.74000000000001</ele>
        <time>2025-04-23T10:00:40Z</time>
      </trkpt>
      <trkpt lat="47.636801982298493" lon="6.89722403883934">
        <ele>383.22000000000003</ele>
        <time>2025-04-23T10:00:41Z</time>
      </trkpt>
      <trkpt lat="47.637047991156578" lon="6.895877989009023">
        <ele>383.22000000000003</ele>
        <time>2025-04-23T10:00:52Z</time>
      </trkpt>
      <trkpt lat="47.637054026126862" lon="6.895773969590664">
        <ele>383.69999999999999</ele>
        <time>2025-04-23T10:00:53Z</time>
      </trkpt>
      <trkpt lat="47.637059977278113" lon="6.895680008456111">
        <ele>384.18000000000001</ele>
        <time>2025-04-23T10:00:54Z</time>
      </trkpt>
      <trkpt lat="47.637056959792972" lon="6.895596021786332">
        <ele>384.66000000000003</ele>
        <time>2025-04-23T10:00:55Z</time>
      </trkpt>
      <trkpt lat="47.637042040005326" lon="6.895496025681496">
        <ele>385.14999999999998</ele>
        <time>2025-04-23T10:00:56Z</time>
      </trkpt>
      <trkpt lat="47.637000968679786" lon="6.895426036790013">
        <ele>385.63</ele>
        <time>2025-04-23T10:00:57Z</time>
      </trkpt>
      <trkpt lat="47.63694598339498" lon="6.895341966301203">
        <ele>385.63</ele>
        <time>2025-04-23T10:00:58Z</time>
      </trkpt>
      <trkpt lat="47.636888986453414" lon="6.895254962146282">
        <ele>386.11000000000001</ele>
        <time>2025-04-23T10:00:59Z</time>
      </trkpt>
      <trkpt lat="47.636826960369945" lon="6.895159995183349">
        <ele>386.11000000000001</ele>
        <time>2025-04-23T10:01:00Z</time>
      </trkpt>
      <trkpt lat="47.636422030627728" lon="6.894454993307591">
        <ele>384.66000000000003</ele>
        <time>2025-04-23T10:01:07Z</time>
      </trkpt>
      <trkpt lat="47.636384982615709" lon="6.894338987767696">
        <ele>384.18000000000001</ele>
        <time>2025-04-23T10:01:08Z</time>
      </trkpt>
      <trkpt lat="47.636354975402355" lon="6.894243014976382">
        <ele>384.18000000000001</ele>
        <time>2025-04-23T10:01:09Z</time>
      </trkpt>
      <trkpt lat="47.636371990665793" lon="6.894088033586741">
        <ele>383.69999999999999</ele>
        <time>2025-04-23T10:01:10Z</time>
      </trkpt>
      <trkpt lat="47.636388000100851" lon="6.893943026661873">
        <ele>383.69999999999999</ele>
        <time>2025-04-23T10:01:11Z</time>
      </trkpt>
      <trkpt lat="47.636415995657444" lon="6.893807994201779">
        <ele>383.22000000000003</ele>
        <time>2025-04-23T10:01:12Z</time>
      </trkpt>
      <trkpt lat="47.636467041447759" lon="6.893676985055208">
        <ele>382.74000000000001</ele>
        <time>2025-04-23T10:01:13Z</time>
      </trkpt>
      <trkpt lat="47.636846993118525" lon="6.892752964049578">
        <ele>381.77999999999997</ele>
        <time>2025-04-23T10:01:23Z</time>
      </trkpt>
      <trkpt lat="47.636906001716852" lon="6.892536962404847">
        <ele>382.74000000000001</ele>
        <time>2025-04-23T10:01:30Z</time>
      </trkpt>
      <trkpt lat="47.636961992830038" lon="6.89228299073875">
        <ele>383.22000000000003</ele>
        <time>2025-04-23T10:01:33Z</time>
      </trkpt>
      <trkpt lat="47.636955035850406" lon="6.89120901748538">
        <ele>383.69999999999999</ele>
        <time>2025-04-23T10:01:43Z</time>
      </trkpt>
      <trkpt lat="47.636979008093476" lon="6.890958985313773">
        <ele>383.22000000000003</ele>
        <time>2025-04-23T10:01:45Z</time>
      </trkpt>
      <trkpt lat="47.636998035013676" lon="6.890830993652344">
        <ele>383.22000000000003</ele>
        <time>2025-04-23T10:01:46Z</time>
      </trkpt>
      <trkpt lat="47.637059977278113" lon="6.890704007819295">
        <ele>382.74000000000001</ele>
        <time>2025-04-23T10:01:47Z</time>
      </trkpt>
      <trkpt lat="47.637118985876441" lon="6.890582973137498">
        <ele>382.25999999999999</ele>
        <time>2025-04-23T10:01:48Z</time>
      </trkpt>
      <trkpt lat="47.637176988646388" lon="6.890462022274733">
        <ele>382.25999999999999</ele>
        <time>2025-04-23T10:01:49Z</time>
      </trkpt>
      <trkpt lat="47.637238008901477" lon="6.890336964279413">
        <ele>381.77999999999997</ele>
        <time>2025-04-23T10:01:50Z</time>
      </trkpt>
      <trkpt lat="47.637300034984946" lon="6.890208972617984">
        <ele>381.77999999999997</ele>
        <time>2025-04-23T10:01:51Z</time>
      </trkpt>
      <trkpt lat="47.63735300861299" lon="6.890065977349877">
        <ele>382.25999999999999</ele>
        <time>2025-04-23T10:01:52Z</time>
      </trkpt>
      <trkpt lat="47.637383015826344" lon="6.889914013445377">
        <ele>382.25999999999999</ele>
        <time>2025-04-23T10:01:53Z</time>
      </trkpt>
      <trkpt lat="47.637414028868079" lon="6.889761965721846">
        <ele>382.74000000000001</ele>
        <time>2025-04-23T10:01:54Z</time>
      </trkpt>
      <trkpt lat="47.637427020817995" lon="6.889601033180952">
        <ele>383.22000000000003</ele>
        <time>2025-04-23T10:01:55Z</time>
      </trkpt>
      <trkpt lat="47.637428026646376" lon="6.889445967972279">
        <ele>383.69999999999999</ele>
        <time>2025-04-23T10:01:56Z</time>
      </trkpt>
      <trkpt lat="47.63741604052484" lon="6.888682041317225">
        <ele>387.55000000000001</ele>
        <time>2025-04-23T10:02:01Z</time>
      </trkpt>
      <trkpt lat="47.637393996119499" lon="6.888535022735596">
        <ele>388.50999999999999</ele>
        <time>2025-04-23T10:02:02Z</time>
      </trkpt>
      <trkpt lat="47.637360971421003" lon="6.888400996103883">
        <ele>388.99000000000001</ele>
        <time>2025-04-23T10:02:03Z</time>
      </trkpt>
      <trkpt lat="47.637316966429353" lon="6.888269986957312">
        <ele>389.94999999999999</ele>
        <time>2025-04-23T10:02:04Z</time>
      </trkpt>
      <trkpt lat="47.637256029993296" lon="6.888149036094546">
        <ele>390.43000000000001</ele>
        <time>2025-04-23T10:02:05Z</time>
      </trkpt>
      <trkpt lat="47.637195009738207" lon="6.888028001412749">
        <ele>390.91000000000003</ele>
        <time>2025-04-23T10:02:06Z</time>
      </trkpt>
      <trkpt lat="47.636849004775286" lon="6.887460965663195">
        <ele>391.87</ele>
        <time>2025-04-23T10:02:11Z</time>
      </trkpt>
      <trkpt lat="47.636779015883803" lon="6.88734102062881">
        <ele>391.87</ele>
        <time>2025-04-23T10:02:12Z</time>
      </trkpt>
      <trkpt lat="47.636724030598998" lon="6.887196013703942">
        <ele>391.87</ele>
        <time>2025-04-23T10:02:13Z</time>
      </trkpt>
      <trkpt lat="47.636217009276152" lon="6.885446039959788">
        <ele>394.75999999999999</ele>
        <time>2025-04-23T10:02:24Z</time>
      </trkpt>
      <trkpt lat="47.635781988501549" lon="6.883716015145183">
        <ele>400.52999999999997</ele>
        <time>2025-04-23T10:02:34Z</time>
      </trkpt>
      <trkpt lat="47.635750975459814" lon="6.883605038747191">
        <ele>401.00999999999999</ele>
        <time>2025-04-23T10:02:35Z</time>
      </trkpt>
      <trkpt lat="47.635775031521916" lon="6.883471012115479">
        <ele>401.00999999999999</ele>
        <time>2025-04-23T10:02:36Z</time>
      </trkpt>
      <trkpt lat="47.635775031521916" lon="6.883287029340863">
        <ele>401.49000000000001</ele>
        <time>2025-04-23T10:02:38Z</time>
      </trkpt>
      <trkpt lat="47.635756004601717" lon="6.883180998265743">
        <ele>401.97000000000003</ele>
        <time>2025-04-23T10:02:39Z</time>
      </trkpt>
      <trkpt lat="47.635722979903221" lon="6.883126012980938">
        <ele>402.44999999999999</ele>
        <time>2025-04-23T10:02:40Z</time>
      </trkpt>
      <trkpt lat="47.635710993781686" lon="6.883082007989287">
        <ele>402.93000000000001</ele>
        <time>2025-04-23T10:02:41Z</time>
      </trkpt>
      <trkpt lat="47.635710993781686" lon="6.883020987734199">
        <ele>403.41000000000003</ele>
        <time>2025-04-23T10:02:42Z</time>
      </trkpt>
      <trkpt lat="47.635710993781686" lon="6.88293700106442">
        <ele>403.88999999999999</ele>
        <time>2025-04-23T10:02:43Z</time>
      </trkpt>
      <trkpt lat="47.635710993781686" lon="6.88269903883338">
        <ele>404.37</ele>
        <time>2025-04-23T10:02:45Z</time>
      </trkpt>
      <trkpt lat="47.63574100099504" lon="6.882578004151583">
        <ele>404.37</ele>
        <time>2025-04-23T10:02:46Z</time>
      </trkpt>
      <trkpt lat="47.635776037350297" lon="6.882438026368618">
        <ele>404.85000000000002</ele>
        <time>2025-04-23T10:02:47Z</time>
      </trkpt>
      <trkpt lat="47.635815013200045" lon="6.882301988080144">
        <ele>404.37</ele>
        <time>2025-04-23T10:02:48Z</time>
      </trkpt>
      <trkpt lat="47.635863963514566" lon="6.882165027782321">
        <ele>404.37</ele>
        <time>2025-04-23T10:02:49Z</time>
      </trkpt>
      <trkpt lat="47.635924983769655" lon="6.88199101947248">
        <ele>403.88999999999999</ele>
        <time>2025-04-23T10:02:50Z</time>
      </trkpt>
      <trkpt lat="47.63619395904243" lon="6.881505958735943">
        <ele>402.93000000000001</ele>
        <time>2025-04-23T10:02:54Z</time>
      </trkpt>
      <trkpt lat="47.637319983914495" lon="6.879981039091945">
        <ele>400.52999999999997</ele>
        <time>2025-04-23T10:03:07Z</time>
      </trkpt>
      <trkpt lat="47.638234030455351" lon="6.879158020019531">
        <ele>396.68000000000001</ele>
        <time>2025-04-23T10:03:17Z</time>
      </trkpt>
      <trkpt lat="47.638320028781891" lon="6.879075961187482">
        <ele>396.19999999999999</ele>
        <time>2025-04-23T10:03:18Z</time>
      </trkpt>
      <trkpt lat="47.638402003794909" lon="6.878999015316367">
        <ele>395.24000000000001</ele>
        <time>2025-04-23T10:03:19Z</time>
      </trkpt>
      <trkpt lat="47.638640971854329" lon="6.878716964274645">
        <ele>392.83999999999997</ele>
        <time>2025-04-23T10:03:23Z</time>
      </trkpt>
      <trkpt lat="47.638669973239303" lon="6.878676982596517">
        <ele>392.36000000000001</ele>
        <time>2025-04-23T10:03:24Z</time>
      </trkpt>
      <trkpt lat="47.638694029301405" lon="6.878642030060291">
        <ele>391.87</ele>
        <time>2025-04-23T10:03:25Z</time>
      </trkpt>
      <trkpt lat="47.638712972402573" lon="6.878615962341428">
        <ele>391.38999999999999</ele>
        <time>2025-04-23T10:03:26Z</time>
      </trkpt>
      <trkpt lat="47.638726970180869" lon="6.878595007583499">
        <ele>390.91000000000003</ele>
        <time>2025-04-23T10:03:27Z</time>
      </trkpt>
      <trkpt lat="47.638726970180869" lon="6.878595007583499">
        <ele>390.43000000000001</ele>
        <time>2025-04-23T10:03:41Z</time>
      </trkpt>
      <trkpt lat="47.638837024569511" lon="6.878438014537096">
        <ele>388.99000000000001</ele>
        <time>2025-04-23T10:04:14Z</time>
      </trkpt>
      <trkpt lat="47.639164002612233" lon="6.877769976854324">
        <ele>388.02999999999997</ele>
        <time>2025-04-23T10:04:21Z</time>
      </trkpt>
      <trkpt lat="47.639214964583516" lon="6.87765397131443">
        <ele>388.02999999999997</ele>
        <time>2025-04-23T10:04:22Z</time>
      </trkpt>
      <trkpt lat="47.639266010373831" lon="6.877530002966523">
        <ele>388.02999999999997</ele>
        <time>2025-04-23T10:04:23Z</time>
      </trkpt>
      <trkpt lat="47.639419985935092" lon="6.87672802247107">
        <ele>388.50999999999999</ele>
        <time>2025-04-23T10:04:28Z</time>
      </trkpt>
      <trkpt lat="47.639583013951778" lon="6.875125989317894">
        <ele>390.91000000000003</ele>
        <time>2025-04-23T10:04:37Z</time>
      </trkpt>
      <trkpt lat="47.639562981203198" lon="6.873831991106272">
        <ele>392.83999999999997</ele>
        <time>2025-04-23T10:04:44Z</time>
      </trkpt>
      <trkpt lat="47.639210019260645" lon="6.872073970735073">
        <ele>391.38999999999999</ele>
        <time>2025-04-23T10:04:54Z</time>
      </trkpt>
      <trkpt lat="47.639143969863653" lon="6.871347008273006">
        <ele>389.94999999999999</ele>
        <time>2025-04-23T10:04:58Z</time>
      </trkpt>
      <trkpt lat="47.639152016490698" lon="6.870999997481704">
        <ele>389.47000000000003</ele>
        <time>2025-04-23T10:05:00Z</time>
      </trkpt>
      <trkpt lat="47.639181017875671" lon="6.87084099277854">
        <ele>388.99000000000001</ele>
        <time>2025-04-23T10:05:01Z</time>
      </trkpt>
      <trkpt lat="47.639210019260645" lon="6.870683999732137">
        <ele>388.99000000000001</ele>
        <time>2025-04-23T10:05:02Z</time>
      </trkpt>
      <trkpt lat="47.639334993436933" lon="6.870216960087419">
        <ele>388.50999999999999</ele>
        <time>2025-04-23T10:05:05Z</time>
      </trkpt>
      <trkpt lat="47.639384027570486" lon="6.87006801366806">
        <ele>388.02999999999997</ele>
        <time>2025-04-23T10:05:06Z</time>
      </trkpt>
      <trkpt lat="47.639712011441588" lon="6.86907802708447">
        <ele>386.11000000000001</ele>
        <time>2025-04-23T10:05:14Z</time>
      </trkpt>
      <trkpt lat="47.63973799534142" lon="6.868997979909182">
        <ele>385.63</ele>
        <time>2025-04-23T10:05:15Z</time>
      </trkpt>
      <trkpt lat="47.639760039746761" lon="6.86893000267446">
        <ele>385.14999999999998</ele>
        <time>2025-04-23T10:05:16Z</time>
      </trkpt>
      <trkpt lat="47.639817958697677" lon="6.868747025728226">
        <ele>383.22000000000003</ele>
        <time>2025-04-23T10:05:25Z</time>
      </trkpt>
      <trkpt lat="47.639915021136403" lon="6.868509985506535">
        <ele>380.33999999999997</ele>
        <time>2025-04-23T10:05:47Z</time>
      </trkpt>
      <trkpt lat="47.639947040006518" lon="6.86843303963542">
        <ele>379.38</ele>
        <time>2025-04-23T10:05:48Z</time>
      </trkpt>
      <trkpt lat="47.640491025522351" lon="6.867476999759674">
        <ele>370.73000000000002</ele>
        <time>2025-04-23T10:05:59Z</time>
      </trkpt>
      <trkpt lat="47.640832001343369" lon="6.866945000365377">
        <ele>369.27999999999997</ele>
        <time>2025-04-23T10:06:04Z</time>
      </trkpt>
      <trkpt lat="47.640905007719994" lon="6.866833018139005">
        <ele>369.75999999999999</ele>
        <time>2025-04-23T10:06:05Z</time>
      </trkpt>
      <trkpt lat="47.641660971567035" lon="6.865738006308675">
        <ele>373.13</ele>
        <time>2025-04-23T10:06:15Z</time>
      </trkpt>
      <trkpt lat="47.64229497872293" lon="6.864647017791867">
        <ele>375.05000000000001</ele>
        <time>2025-04-23T10:06:25Z</time>
      </trkpt>
      <trkpt lat="47.642320040613413" lon="6.864527994766831">
        <ele>375.05000000000001</ele>
        <time>2025-04-23T10:06:26Z</time>
      </trkpt>
      <trkpt lat="47.642320040613413" lon="6.864263964816928">
        <ele>374.56999999999999</ele>
        <time>2025-04-23T10:06:28Z</time>
      </trkpt>
      <trkpt lat="47.642320040613413" lon="6.864135973155499">
        <ele>374.08999999999997</ele>
        <time>2025-04-23T10:06:29Z</time>
      </trkpt>
      <trkpt lat="47.642320040613413" lon="6.86400898732245">
        <ele>373.61000000000001</ele>
        <time>2025-04-23T10:06:30Z</time>
      </trkpt>
      <trkpt lat="47.642334960401058" lon="6.863868003711104">
        <ele>373.13</ele>
        <time>2025-04-23T10:06:31Z</time>
      </trkpt>
      <trkpt lat="47.642348958179355" lon="6.863742023706436">
        <ele>372.17000000000002</ele>
        <time>2025-04-23T10:06:32Z</time>
      </trkpt>
      <trkpt lat="47.642363039776683" lon="6.8636230006814">
        <ele>371.69</ele>
        <time>2025-04-23T10:06:33Z</time>
      </trkpt>
      <trkpt lat="47.642406038939953" lon="6.863502971827984">
        <ele>371.20999999999998</ele>
        <time>2025-04-23T10:06:34Z</time>
      </trkpt>
      <trkpt lat="47.64244400896132" lon="6.863399036228657">
        <ele>370.73000000000002</ele>
        <time>2025-04-23T10:06:35Z</time>
      </trkpt>
      <trkpt lat="47.642481978982687" lon="6.863294010981917">
        <ele>370.24000000000001</ele>
        <time>2025-04-23T10:06:36Z</time>
      </trkpt>
      <trkpt lat="47.642521038651466" lon="6.863185968250036">
        <ele>369.75999999999999</ele>
        <time>2025-04-23T10:06:37Z</time>
      </trkpt>
      <trkpt lat="47.642562026157975" lon="6.863073986023665">
        <ele>369.27999999999997</ele>
        <time>2025-04-23T10:06:38Z</time>
      </trkpt>
      <trkpt lat="47.642602007836103" lon="6.862964015454054">
        <ele>368.80000000000001</ele>
        <time>2025-04-23T10:06:39Z</time>
      </trkpt>
      <trkpt lat="47.642637966200709" lon="6.862856978550553">
        <ele>368.80000000000001</ele>
        <time>2025-04-23T10:06:40Z</time>
      </trkpt>
      <trkpt lat="47.642776016145945" lon="6.862463029101491">
        <ele>366.88</ele>
        <time>2025-04-23T10:06:45Z</time>
      </trkpt>
      <trkpt lat="47.642835024744272" lon="6.861971011385322">
        <ele>365.92000000000002</ele>
        <time>2025-04-23T10:06:49Z</time>
      </trkpt>
      <trkpt lat="47.64278800226748" lon="6.861901022493839">
        <ele>366.39999999999998</ele>
        <time>2025-04-23T10:06:50Z</time>
      </trkpt>
      <trkpt lat="47.642749026417732" lon="6.861842013895512">
        <ele>366.39999999999998</ele>
        <time>2025-04-23T10:06:51Z</time>
      </trkpt>
      <trkpt lat="47.642749026417732" lon="6.861842013895512">
        <ele>366.39999999999998</ele>
        <time>2025-04-23T10:06:52Z</time>
      </trkpt>
      <trkpt lat="47.642630003392696" lon="6.861768001690507">
        <ele>366.39999999999998</ele>
        <time>2025-04-23T10:06:53Z</time>
      </trkpt>
      <trkpt lat="47.642583986744285" lon="6.861696001142263">
        <ele>366.88</ele>
        <time>2025-04-23T10:06:54Z</time>
      </trkpt>
      <trkpt lat="47.642538975924253" lon="6.861625006422401">
        <ele>366.88</ele>
        <time>2025-04-23T10:06:55Z</time>
      </trkpt>
      <trkpt lat="47.642495976760983" lon="6.86155803501606">
        <ele>366.88</ele>
        <time>2025-04-23T10:06:56Z</time>
      </trkpt>
      <trkpt lat="47.642457000911236" lon="6.861496008932591">
        <ele>367.36000000000001</ele>
        <time>2025-04-23T10:06:57Z</time>
      </trkpt>
      <trkpt lat="47.642424982041121" lon="6.861444963142276">
        <ele>367.83999999999997</ele>
        <time>2025-04-23T10:06:58Z</time>
      </trkpt>
      <trkpt lat="47.642402015626431" lon="6.86140900477767">
        <ele>367.83999999999997</ele>
        <time>2025-04-23T10:06:59Z</time>
      </trkpt>
      <trkpt lat="47.642288021743298" lon="6.861229967325926">
        <ele>367.83999999999997</ele>
        <time>2025-04-23T10:07:07Z</time>
      </trkpt>
      <trkpt lat="47.642095992341638" lon="6.860929979011416">
        <ele>366.88</ele>
        <time>2025-04-23T10:07:13Z</time>
      </trkpt>
      <trkpt lat="47.641733977943659" lon="6.860606018453836">
        <ele>366.39999999999998</ele>
        <time>2025-04-23T10:07:19Z</time>
      </trkpt>
      <trkpt lat="47.641624007374048" lon="6.860524965450168">
        <ele>366.39999999999998</ele>
        <time>2025-04-23T10:07:21Z</time>
      </trkpt>
      <trkpt lat="47.641573967412114" lon="6.860488001257181">
        <ele>366.39999999999998</ele>
        <time>2025-04-23T10:07:22Z</time>
      </trkpt>
      <trkpt lat="47.641539014875889" lon="6.860462017357349">
        <ele>366.39999999999998</ele>
        <time>2025-04-23T10:07:23Z</time>
      </trkpt>
      <trkpt lat="47.641302980482578" lon="6.860287003219128">
        <ele>366.39999999999998</ele>
        <time>2025-04-23T10:07:33Z</time>
      </trkpt>
      <trkpt lat="47.641251012682915" lon="6.860224977135658">
        <ele>366.39999999999998</ele>
        <time>2025-04-23T10:08:08Z</time>
      </trkpt>
      <trkpt lat="47.641084967181087" lon="6.860025990754366">
        <ele>366.39999999999998</ele>
        <time>2025-04-23T10:08:12Z</time>
      </trkpt>
      <trkpt lat="47.641036016866565" lon="6.859965976327658">
        <ele>365.92000000000002</ele>
        <time>2025-04-23T10:08:13Z</time>
      </trkpt>
      <trkpt lat="47.640991006046534" lon="6.859913002699614">
        <ele>365.92000000000002</ele>
        <time>2025-04-23T10:08:14Z</time>
      </trkpt>
      <trkpt lat="47.640755977481604" lon="6.859621983021498">
        <ele>364.95999999999998</ele>
        <time>2025-04-23T10:08:21Z</time>
      </trkpt>
      <trkpt lat="47.640732005238533" lon="6.85958200134337">
        <ele>364.48000000000002</ele>
        <time>2025-04-23T10:08:22Z</time>
      </trkpt>
      <trkpt lat="47.640795959159732" lon="6.859459960833192">
        <ele>364.48000000000002</ele>
        <time>2025-04-23T10:08:23Z</time>
      </trkpt>
      <trkpt lat="47.640815991908312" lon="6.859429031610489">
        <ele>364</ele>
        <time>2025-04-23T10:08:24Z</time>
      </trkpt>
      <trkpt lat="47.640851028263569" lon="6.859373962506652">
        <ele>364</ele>
        <time>2025-04-23T10:08:25Z</time>
      </trkpt>
      <trkpt lat="47.640890004113317" lon="6.859313026070595">
        <ele>363.51999999999998</ele>
        <time>2025-04-23T10:08:26Z</time>
      </trkpt>
      <trkpt lat="47.641350002959371" lon="6.858523031696677">
        <ele>362.06999999999999</ele>
        <time>2025-04-23T10:08:36Z</time>
      </trkpt>
      <trkpt lat="47.641546977683902" lon="6.857690960168839">
        <ele>362.55000000000001</ele>
        <time>2025-04-23T10:08:45Z</time>
      </trkpt>
      <trkpt lat="47.641546977683902" lon="6.857690960168839">
        <ele>363.04000000000002</ele>
        <time>2025-04-23T10:08:59Z</time>
      </trkpt>
      <trkpt lat="47.641546977683902" lon="6.857680985704064">
        <ele>363.04000000000002</ele>
        <time>2025-04-23T10:09:33Z</time>
      </trkpt>
      <trkpt lat="47.641546977683902" lon="6.857492979615927">
        <ele>363.51999999999998</ele>
        <time>2025-04-23T10:09:36Z</time>
      </trkpt>
      <trkpt lat="47.641538009047508" lon="6.856483966112137">
        <ele>362.55000000000001</ele>
        <time>2025-04-23T10:09:43Z</time>
      </trkpt>
      <trkpt lat="47.641484029591084" lon="6.855084020644426">
        <ele>361.58999999999997</ele>
        <time>2025-04-23T10:09:51Z</time>
      </trkpt>
      <trkpt lat="47.641404988244176" lon="6.854152036830783">
        <ele>361.58999999999997</ele>
        <time>2025-04-23T10:09:58Z</time>
      </trkpt>
      <trkpt lat="47.641404988244176" lon="6.854152036830783">
        <ele>362.06999999999999</ele>
        <time>2025-04-23T10:10:08Z</time>
      </trkpt>
      <trkpt lat="47.641383027657866" lon="6.853945003822446">
        <ele>362.06999999999999</ele>
        <time>2025-04-23T10:10:36Z</time>
      </trkpt>
      <trkpt lat="47.641221005469561" lon="6.852653017267585">
        <ele>361.58999999999997</ele>
        <time>2025-04-23T10:10:44Z</time>
      </trkpt>
      <trkpt lat="47.641078010201454" lon="6.850654017180204">
        <ele>367.83999999999997</ele>
        <time>2025-04-23T10:10:55Z</time>
      </trkpt>
      <trkpt lat="47.640968039631844" lon="6.848168028518558">
        <ele>370.73000000000002</ele>
        <time>2025-04-23T10:11:09Z</time>
      </trkpt>
      <trkpt lat="47.640826972201467" lon="6.845878008753061">
        <ele>374.56999999999999</ele>
        <time>2025-04-23T10:11:22Z</time>
      </trkpt>
      <trkpt lat="47.640758994966745" lon="6.844773022457957">
        <ele>376.97000000000003</ele>
        <time>2025-04-23T10:11:30Z</time>
      </trkpt>
      <trkpt lat="47.640748014673591" lon="6.84462902136147">
        <ele>376.49000000000001</ele>
        <time>2025-04-23T10:11:38Z</time>
      </trkpt>
      <trkpt lat="47.640712978318334" lon="6.844145972281694">
        <ele>376.00999999999999</ele>
        <time>2025-04-23T10:11:45Z</time>
      </trkpt>
      <trkpt lat="47.640692023560405" lon="6.843841960653663">
        <ele>376.00999999999999</ele>
        <time>2025-04-23T10:11:49Z</time>
      </trkpt>
      <trkpt lat="47.640686994418502" lon="6.843777000904083">
        <ele>375.52999999999997</ele>
        <time>2025-04-23T10:11:50Z</time>
      </trkpt>
      <trkpt lat="47.640681965276599" lon="6.843711035326123">
        <ele>375.52999999999997</ele>
        <time>2025-04-23T10:11:51Z</time>
      </trkpt>
      <trkpt lat="47.640677019953728" lon="6.84363903477788">
        <ele>375.52999999999997</ele>
        <time>2025-04-23T10:11:52Z</time>
      </trkpt>
      <trkpt lat="47.640671990811825" lon="6.843568962067366">
        <ele>375.52999999999997</ele>
        <time>2025-04-23T10:11:53Z</time>
      </trkpt>
      <trkpt lat="47.640666961669922" lon="6.843499979004264">
        <ele>375.05000000000001</ele>
        <time>2025-04-23T10:11:54Z</time>
      </trkpt>
      <trkpt lat="47.640662016347051" lon="6.843429990112782">
        <ele>375.05000000000001</ele>
        <time>2025-04-23T10:11:55Z</time>
      </trkpt>
      <trkpt lat="47.640638966113329" lon="6.843109969049692">
        <ele>374.08999999999997</ele>
        <time>2025-04-23T10:12:05Z</time>
      </trkpt>
      <trkpt lat="47.640633014962077" lon="6.843023970723152">
        <ele>374.08999999999997</ele>
        <time>2025-04-23T10:12:29Z</time>
      </trkpt>
      <trkpt lat="47.640621028840542" lon="6.842858009040356">
        <ele>373.13</ele>
        <time>2025-04-23T10:12:31Z</time>
      </trkpt>
      <trkpt lat="47.640537964180112" lon="6.841733995825052">
        <ele>371.69</ele>
        <time>2025-04-23T10:12:42Z</time>
      </trkpt>
      <trkpt lat="47.640519021078944" lon="6.841611033305526">
        <ele>371.69</ele>
        <time>2025-04-23T10:12:43Z</time>
      </trkpt>
      <trkpt lat="47.6403590105474" lon="6.840821038931608">
        <ele>372.17000000000002</ele>
        <time>2025-04-23T10:12:49Z</time>
      </trkpt>
      <trkpt lat="47.640319028869271" lon="6.840685000643134">
        <ele>372.17000000000002</ele>
        <time>2025-04-23T10:12:50Z</time>
      </trkpt>
      <trkpt lat="47.639791974797845" lon="6.83942997828126">
        <ele>374.56999999999999</ele>
        <time>2025-04-23T10:12:59Z</time>
      </trkpt>
      <trkpt lat="47.63945996761322" lon="6.839026976376772">
        <ele>375.52999999999997</ele>
        <time>2025-04-23T10:13:03Z</time>
      </trkpt>
      <trkpt lat="47.639377992600203" lon="6.838943995535374">
        <ele>376.00999999999999</ele>
        <time>2025-04-23T10:13:04Z</time>
      </trkpt>
      <trkpt lat="47.639296017587185" lon="6.838863026350737">
        <ele>376.00999999999999</ele>
        <time>2025-04-23T10:13:05Z</time>
      </trkpt>
      <trkpt lat="47.63842798769474" lon="6.83850696310401">
        <ele>376.97000000000003</ele>
        <time>2025-04-23T10:13:14Z</time>
      </trkpt>
      <trkpt lat="47.637399025261402" lon="6.838271012529731">
        <ele>376.97000000000003</ele>
        <time>2025-04-23T10:13:24Z</time>
      </trkpt>
      <trkpt lat="47.636670973151922" lon="6.838154001161456">
        <ele>376.49000000000001</ele>
        <time>2025-04-23T10:13:33Z</time>
      </trkpt>
      <trkpt lat="47.636642977595329" lon="6.838150983676314">
        <ele>376.00999999999999</ele>
        <time>2025-04-23T10:13:41Z</time>
      </trkpt>
      <trkpt lat="47.636541975662112" lon="6.838135980069637">
        <ele>375.52999999999997</ele>
        <time>2025-04-23T10:14:06Z</time>
      </trkpt>
      <trkpt lat="47.636483972892165" lon="6.838128017261624">
        <ele>375.52999999999997</ele>
        <time>2025-04-23T10:14:07Z</time>
      </trkpt>
      <trkpt lat="47.636346006765962" lon="6.837996002286673">
        <ele>375.52999999999997</ele>
        <time>2025-04-23T10:14:08Z</time>
      </trkpt>
      <trkpt lat="47.636337960138917" lon="6.837890977039933">
        <ele>375.05000000000001</ele>
        <time>2025-04-23T10:14:09Z</time>
      </trkpt>
      <trkpt lat="47.636328991502523" lon="6.837761979550123">
        <ele>375.05000000000001</ele>
        <time>2025-04-23T10:14:10Z</time>
      </trkpt>
      <trkpt lat="47.636318011209369" lon="6.837622001767159">
        <ele>374.56999999999999</ele>
        <time>2025-04-23T10:14:11Z</time>
      </trkpt>
      <trkpt lat="47.636137967929244" lon="6.836107978597283">
        <ele>375.05000000000001</ele>
        <time>2025-04-23T10:14:21Z</time>
      </trkpt>
      <trkpt lat="47.635708982124925" lon="6.833642022684217">
        <ele>381.30000000000001</ele>
        <time>2025-04-23T10:14:34Z</time>
      </trkpt>
      <trkpt lat="47.635181006044149" lon="6.831614021211863">
        <ele>380.81999999999999</ele>
        <time>2025-04-23T10:14:46Z</time>
      </trkpt>
      <trkpt lat="47.634659986943007" lon="6.829608986154199">
        <ele>377.44999999999999</ele>
        <time>2025-04-23T10:14:59Z</time>
      </trkpt>
      <trkpt lat="47.634635008871555" lon="6.829514019191265">
        <ele>377.44999999999999</ele>
        <time>2025-04-23T10:15:00Z</time>
      </trkpt>
      <trkpt lat="47.634681025519967" lon="6.829398013651371">
        <ele>377.44999999999999</ele>
        <time>2025-04-23T10:15:01Z</time>
      </trkpt>
      <trkpt lat="47.634681025519967" lon="6.829329030588269">
        <ele>377.44999999999999</ele>
        <time>2025-04-23T10:15:02Z</time>
      </trkpt>
      <trkpt lat="47.634681025519967" lon="6.829239008948207">
        <ele>376.97000000000003</ele>
        <time>2025-04-23T10:15:03Z</time>
      </trkpt>
      <trkpt lat="47.634646994993091" lon="6.829128032550216">
        <ele>376.97000000000003</ele>
        <time>2025-04-23T10:15:04Z</time>
      </trkpt>
      <trkpt lat="47.634595027193427" lon="6.829075980931521">
        <ele>376.97000000000003</ele>
        <time>2025-04-23T10:15:05Z</time>
      </trkpt>
      <trkpt lat="47.634486984461546" lon="6.829034993425012">
        <ele>376.97000000000003</ele>
        <time>2025-04-23T10:15:06Z</time>
      </trkpt>
      <trkpt lat="47.634448008611798" lon="6.828929968178272">
        <ele>376.97000000000003</ele>
        <time>2025-04-23T10:15:07Z</time>
      </trkpt>
      <trkpt lat="47.634413978084922" lon="6.828808011487126">
        <ele>376.97000000000003</ele>
        <time>2025-04-23T10:15:08Z</time>
      </trkpt>
      <trkpt lat="47.634392017498612" lon="6.828681025654078">
        <ele>376.97000000000003</ele>
        <time>2025-04-23T10:15:09Z</time>
      </trkpt>
      <trkpt lat="47.634368967264891" lon="6.828551022335887">
        <ele>376.97000000000003</ele>
        <time>2025-04-23T10:15:10Z</time>
      </trkpt>
      <trkpt lat="47.634146008640528" lon="6.827189968898892">
        <ele>378.89999999999998</ele>
        <time>2025-04-23T10:15:21Z</time>
      </trkpt>
      <trkpt lat="47.633917015045881" lon="6.825780970975757">
        <ele>383.69999999999999</ele>
        <time>2025-04-23T10:15:32Z</time>
      </trkpt>
      <trkpt lat="47.63385197147727" lon="6.824730969965458">
        <ele>383.22000000000003</ele>
        <time>2025-04-23T10:15:41Z</time>
      </trkpt>
      <trkpt lat="47.633864963427186" lon="6.824291003867984">
        <ele>381.30000000000001</ele>
        <time>2025-04-23T10:15:45Z</time>
      </trkpt>
      <trkpt lat="47.633891031146049" lon="6.823818013072014">
        <ele>378.89999999999998</ele>
        <time>2025-04-23T10:15:49Z</time>
      </trkpt>
      <trkpt lat="47.634007036685944" lon="6.823046039789915">
        <ele>376.00999999999999</ele>
        <time>2025-04-23T10:15:55Z</time>
      </trkpt>
      <trkpt lat="47.634232006967068" lon="6.821389021351934">
        <ele>370.24000000000001</ele>
        <time>2025-04-23T10:16:07Z</time>
      </trkpt>
      <trkpt lat="47.634266037493944" lon="6.819569980725646">
        <ele>366.39999999999998</ele>
        <time>2025-04-23T10:16:19Z</time>
      </trkpt>
      <trkpt lat="47.634255979210138" lon="6.818168023601174">
        <ele>368.31999999999999</ele>
        <time>2025-04-23T10:16:29Z</time>
      </trkpt>
      <trkpt lat="47.634207028895617" lon="6.817212989553809">
        <ele>372.17000000000002</ele>
        <time>2025-04-23T10:16:36Z</time>
      </trkpt>
      <trkpt lat="47.634198982268572" lon="6.816802024841309">
        <ele>373.61000000000001</ele>
        <time>2025-04-23T10:16:39Z</time>
      </trkpt>
      <trkpt lat="47.634228989481926" lon="6.816690964624286">
        <ele>374.08999999999997</ele>
        <time>2025-04-23T10:16:40Z</time>
      </trkpt>
      <trkpt lat="47.634252039715648" lon="6.816608989611268">
        <ele>374.56999999999999</ele>
        <time>2025-04-23T10:16:41Z</time>
      </trkpt>
      <trkpt lat="47.634266959503293" lon="6.816515028476715">
        <ele>375.05000000000001</ele>
        <time>2025-04-23T10:16:42Z</time>
      </trkpt>
      <trkpt lat="47.634272994473577" lon="6.816479992121458">
        <ele>375.52999999999997</ele>
        <time>2025-04-23T10:16:43Z</time>
      </trkpt>
      <trkpt lat="47.634295038878918" lon="6.816309001296759">
        <ele>376.00999999999999</ele>
        <time>2025-04-23T10:16:44Z</time>
      </trkpt>
      <trkpt lat="47.634315993636847" lon="6.816157959401608">
        <ele>376.97000000000003</ele>
        <time>2025-04-23T10:16:45Z</time>
      </trkpt>
      <trkpt lat="47.634315993636847" lon="6.81614002212882">
        <ele>377.44999999999999</ele>
        <time>2025-04-23T10:16:46Z</time>
      </trkpt>
      <trkpt lat="47.634315993636847" lon="6.816026028245688">
        <ele>377.94</ele>
        <time>2025-04-23T10:16:47Z</time>
      </trkpt>
      <trkpt lat="47.634315993636847" lon="6.815879009664059">
        <ele>377.94</ele>
        <time>2025-04-23T10:16:48Z</time>
      </trkpt>
      <trkpt lat="47.634306019172072" lon="6.815784964710474">
        <ele>378.42000000000002</ele>
        <time>2025-04-23T10:16:49Z</time>
      </trkpt>
      <trkpt lat="47.63419303111732" lon="6.814972003921866">
        <ele>378.42000000000002</ele>
        <time>2025-04-23T10:16:55Z</time>
      </trkpt>
      <trkpt lat="47.634164029732347" lon="6.814832026138902">
        <ele>377.94</ele>
        <time>2025-04-23T10:16:56Z</time>
      </trkpt>
      <trkpt lat="47.634106026962399" lon="6.814551986753941">
        <ele>377.44999999999999</ele>
        <time>2025-04-23T10:16:58Z</time>
      </trkpt>
      <trkpt lat="47.63410896062851" lon="6.814416032284498">
        <ele>377.44999999999999</ele>
        <time>2025-04-23T10:16:59Z</time>
      </trkpt>
      <trkpt lat="47.634118013083935" lon="6.814265996217728">
        <ele>376.97000000000003</ele>
        <time>2025-04-23T10:17:00Z</time>
      </trkpt>
      <trkpt lat="47.634127987548709" lon="6.814114032313228">
        <ele>376.49000000000001</ele>
        <time>2025-04-23T10:17:01Z</time>
      </trkpt>
      <trkpt lat="47.634137962013483" lon="6.813959972932935">
        <ele>376.00999999999999</ele>
        <time>2025-04-23T10:17:02Z</time>
      </trkpt>
      <trkpt lat="47.634401991963387" lon="6.81276798248291">
        <ele>371.69</ele>
        <time>2025-04-23T10:17:10Z</time>
      </trkpt>
      <trkpt lat="47.634712038561702" lon="6.811917973682284">
        <ele>368.31999999999999</ele>
        <time>2025-04-23T10:17:16Z</time>
      </trkpt>
      <trkpt lat="47.634765012189746" lon="6.811772966757417">
        <ele>367.83999999999997</ele>
        <time>2025-04-23T10:17:17Z</time>
      </trkpt>
      <trkpt lat="47.634810023009777" lon="6.811613040044904">
        <ele>367.83999999999997</ele>
        <time>2025-04-23T10:17:18Z</time>
      </trkpt>
      <trkpt lat="47.634810023009777" lon="6.811443977057934">
        <ele>367.36000000000001</ele>
        <time>2025-04-23T10:17:19Z</time>
      </trkpt>
      <trkpt lat="47.6347950194031" lon="6.811268962919712">
        <ele>366.88</ele>
        <time>2025-04-23T10:17:20Z</time>
      </trkpt>
      <trkpt lat="47.634771969169378" lon="6.811100989580154">
        <ele>366.88</ele>
        <time>2025-04-23T10:17:21Z</time>
      </trkpt>
      <trkpt lat="47.634750008583069" lon="6.810934022068977">
        <ele>366.39999999999998</ele>
        <time>2025-04-23T10:17:22Z</time>
      </trkpt>
      <trkpt lat="47.634681025519967" lon="6.810140004381537">
        <ele>366.39999999999998</ele>
        <time>2025-04-23T10:17:27Z</time>
      </trkpt>
      <trkpt lat="47.634681025519967" lon="6.809982005506754">
        <ele>365.92000000000002</ele>
        <time>2025-04-23T10:17:28Z</time>
      </trkpt>
      <trkpt lat="47.634706003591418" lon="6.80984596721828">
        <ele>365.92000000000002</ele>
        <time>2025-04-23T10:17:29Z</time>
      </trkpt>
      <trkpt lat="47.634746991097927" lon="6.809700960293412">
        <ele>366.39999999999998</ele>
        <time>2025-04-23T10:17:30Z</time>
      </trkpt>
      <trkpt lat="47.634787978604436" lon="6.809553019702435">
        <ele>366.39999999999998</ele>
        <time>2025-04-23T10:17:31Z</time>
      </trkpt>
      <trkpt lat="47.634830977767706" lon="6.809398960322142">
        <ele>366.39999999999998</ele>
        <time>2025-04-23T10:17:32Z</time>
      </trkpt>
      <trkpt lat="47.635202966630459" lon="6.808591028675437">
        <ele>368.31999999999999</ele>
        <time>2025-04-23T10:17:40Z</time>
      </trkpt>
      <trkpt lat="47.635599011555314" lon="6.807842021808028">
        <ele>368.31999999999999</ele>
        <time>2025-04-23T10:17:49Z</time>
      </trkpt>
      <trkpt lat="47.636380037292838" lon="6.806511981412768">
        <ele>368.80000000000001</ele>
        <time>2025-04-23T10:18:02Z</time>
      </trkpt>
      <trkpt lat="47.637091996148229" lon="6.804949007928371">
        <ele>369.75999999999999</ele>
        <time>2025-04-23T10:18:13Z</time>
      </trkpt>
      <trkpt lat="47.637183023616672" lon="6.804828979074955">
        <ele>369.75999999999999</ele>
        <time>2025-04-23T10:18:14Z</time>
      </trkpt>
      <trkpt lat="47.638148032128811" lon="6.803790964186192">
        <ele>369.75999999999999</ele>
        <time>2025-04-23T10:18:24Z</time>
      </trkpt>
      <trkpt lat="47.638321034610271" lon="6.803574040532112">
        <ele>370.24000000000001</ele>
        <time>2025-04-23T10:18:26Z</time>
      </trkpt>
      <trkpt lat="47.63840502128005" lon="6.803447976708412">
        <ele>370.24000000000001</ele>
        <time>2025-04-23T10:18:27Z</time>
      </trkpt>
      <trkpt lat="47.639233991503716" lon="6.801829012110829">
        <ele>370.24000000000001</ele>
        <time>2025-04-23T10:18:39Z</time>
      </trkpt>
      <trkpt lat="47.639546971768141" lon="6.801095008850098">
        <ele>369.27999999999997</ele>
        <time>2025-04-23T10:18:44Z</time>
      </trkpt>
      <trkpt lat="47.63960799202323" lon="6.800952013581991">
        <ele>368.80000000000001</ele>
        <time>2025-04-23T10:18:45Z</time>
      </trkpt>
      <trkpt lat="47.640185002237558" lon="6.799561958760023">
        <ele>367.83999999999997</ele>
        <time>2025-04-23T10:18:55Z</time>
      </trkpt>
      <trkpt lat="47.640976002439857" lon="6.797608975321055">
        <ele>372.17000000000002</ele>
        <time>2025-04-23T10:19:08Z</time>
      </trkpt>
      <trkpt lat="47.641600035130978" lon="6.795589020475745">
        <ele>372.17000000000002</ele>
        <time>2025-04-23T10:19:19Z</time>
      </trkpt>
      <trkpt lat="47.641970012336969" lon="6.793996039777994">
        <ele>372.64999999999998</ele>
        <time>2025-04-23T10:19:28Z</time>
      </trkpt>
      <trkpt lat="47.642170004546642" lon="6.793090961873531">
        <ele>375.05000000000001</ele>
        <time>2025-04-23T10:19:36Z</time>
      </trkpt>
      <trkpt lat="47.64270200394094" lon="6.791071007028222">
        <ele>386.58999999999997</ele>
        <time>2025-04-23T10:19:50Z</time>
      </trkpt>
      <trkpt lat="47.643188992515206" lon="6.789336958900094">
        <ele>396.68000000000001</ele>
        <time>2025-04-23T10:20:01Z</time>
      </trkpt>
      <trkpt lat="47.643419997766614" lon="6.788276983425021">
        <ele>401.97000000000003</ele>
        <time>2025-04-23T10:20:07Z</time>
      </trkpt>
      <trkpt lat="47.643739013001323" lon="6.787098990753293">
        <ele>407.25999999999999</ele>
        <time>2025-04-23T10:20:14Z</time>
      </trkpt>
      <trkpt lat="47.643787041306496" lon="6.786933029070497">
        <ele>407.25999999999999</ele>
        <time>2025-04-23T10:20:15Z</time>
      </trkpt>
      <trkpt lat="47.644423982128501" lon="6.784790027886629">
        <ele>411.57999999999998</ele>
        <time>2025-04-23T10:20:28Z</time>
      </trkpt>
      <trkpt lat="47.645234009250998" lon="6.782100023701787">
        <ele>419.26999999999998</ele>
        <time>2025-04-23T10:20:43Z</time>
      </trkpt>
      <trkpt lat="47.645876985043287" lon="6.779998010024428">
        <ele>421.19</ele>
        <time>2025-04-23T10:20:53Z</time>
      </trkpt>
      <trkpt lat="47.646722970530391" lon="6.776791010051966">
        <ele>423.60000000000002</ele>
        <time>2025-04-23T10:21:05Z</time>
      </trkpt>
      <trkpt lat="47.647080039605498" lon="6.773054022341967">
        <ele>431.29000000000002</ele>
        <time>2025-04-23T10:21:17Z</time>
      </trkpt>
      <trkpt lat="47.647478012368083" lon="6.771510997787118">
        <ele>431.76999999999998</ele>
        <time>2025-04-23T10:21:22Z</time>
      </trkpt>
      <trkpt lat="47.647593012079597" lon="6.771215032786131">
        <ele>431.76999999999998</ele>
        <time>2025-04-23T10:21:23Z</time>
      </trkpt>
      <trkpt lat="47.648949958384037" lon="6.768609015271068">
        <ele>427.44</ele>
        <time>2025-04-23T10:21:33Z</time>
      </trkpt>
      <trkpt lat="47.649975987151265" lon="6.766156973317266">
        <ele>425.04000000000002</ele>
        <time>2025-04-23T10:21:42Z</time>
      </trkpt>
      <trkpt lat="47.65052399598062" lon="6.763137979432941">
        <ele>422.63999999999999</ele>
        <time>2025-04-23T10:21:52Z</time>
      </trkpt>
      <trkpt lat="47.651160014793277" lon="6.761106960475445">
        <ele>417.35000000000002</ele>
        <time>2025-04-23T10:21:59Z</time>
      </trkpt>
      <trkpt lat="47.651289012283087" lon="6.760867992416024">
        <ele>416.38999999999999</ele>
        <time>2025-04-23T10:22:00Z</time>
      </trkpt>
      <trkpt lat="47.651436030864716" lon="6.760659031569958">
        <ele>415.43000000000001</ele>
        <time>2025-04-23T10:22:01Z</time>
      </trkpt>
      <trkpt lat="47.651606015861034" lon="6.760461973026395">
        <ele>414.94999999999999</ele>
        <time>2025-04-23T10:22:02Z</time>
      </trkpt>
      <trkpt lat="47.651771977543831" lon="6.760269021615386">
        <ele>413.98000000000002</ele>
        <time>2025-04-23T10:22:03Z</time>
      </trkpt>
      <trkpt lat="47.651937017217278" lon="6.76008302718401">
        <ele>413.5</ele>
        <time>2025-04-23T10:22:04Z</time>
      </trkpt>
      <trkpt lat="47.653087014332414" lon="6.758862035349011">
        <ele>408.69999999999999</ele>
        <time>2025-04-23T10:22:12Z</time>
      </trkpt>
      <trkpt lat="47.654055962339044" lon="6.757548004388809">
        <ele>404.85000000000002</ele>
        <time>2025-04-23T10:22:21Z</time>
      </trkpt>
      <trkpt lat="47.654478996992111" lon="6.755916969850659">
        <ele>401.00999999999999</ele>
        <time>2025-04-23T10:22:29Z</time>
      </trkpt>
      <trkpt lat="47.654593996703625" lon="6.754108993336558">
        <ele>392.36000000000001</ele>
        <time>2025-04-23T10:22:39Z</time>
      </trkpt>
      <trkpt lat="47.654636995866895" lon="6.753009958192706">
        <ele>386.11000000000001</ele>
        <time>2025-04-23T10:22:45Z</time>
      </trkpt>
      <trkpt lat="47.65466901473701" lon="6.752834022045136">
        <ele>384.66000000000003</ele>
        <time>2025-04-23T10:22:46Z</time>
      </trkpt>
      <trkpt lat="47.654714025557041" lon="6.752654984593391">
        <ele>384.18000000000001</ele>
        <time>2025-04-23T10:22:47Z</time>
      </trkpt>
      <trkpt lat="47.654783008620143" lon="6.752506038174033">
        <ele>383.22000000000003</ele>
        <time>2025-04-23T10:22:48Z</time>
      </trkpt>
      <trkpt lat="47.654860038310289" lon="6.752360025420785">
        <ele>382.74000000000001</ele>
        <time>2025-04-23T10:22:49Z</time>
      </trkpt>
      <trkpt lat="47.654935978353024" lon="6.752214012667537">
        <ele>382.25999999999999</ele>
        <time>2025-04-23T10:22:50Z</time>
      </trkpt>
      <trkpt lat="47.655022982507944" lon="6.752099012956023">
        <ele>381.77999999999997</ele>
        <time>2025-04-23T10:22:51Z</time>
      </trkpt>
      <trkpt lat="47.655130019411445" lon="6.751977978274226">
        <ele>381.77999999999997</ele>
        <time>2025-04-23T10:22:52Z</time>
      </trkpt>
      <trkpt lat="47.655236972495914" lon="6.751892985776067">
        <ele>381.30000000000001</ele>
        <time>2025-04-23T10:22:53Z</time>
      </trkpt>
      <trkpt lat="47.655333029106259" lon="6.751830959692597">
        <ele>381.30000000000001</ele>
        <time>2025-04-23T10:22:54Z</time>
      </trkpt>
      <trkpt lat="47.65576402656734" lon="6.751524014398456">
        <ele>381.30000000000001</ele>
        <time>2025-04-23T10:22:58Z</time>
      </trkpt>
      <trkpt lat="47.656159987673163" lon="6.751140961423516">
        <ele>382.25999999999999</ele>
        <time>2025-04-23T10:23:02Z</time>
      </trkpt>
      <trkpt lat="47.656263001263142" lon="6.75103803165257">
        <ele>382.74000000000001</ele>
        <time>2025-04-23T10:23:03Z</time>
      </trkpt>
      <trkpt lat="47.657040003687143" lon="6.750110993161798">
        <ele>379.86000000000001</ele>
        <time>2025-04-23T10:23:12Z</time>
      </trkpt>
      <trkpt lat="47.657754980027676" lon="6.749437004327774">
        <ele>370.73000000000002</ele>
        <time>2025-04-23T10:23:22Z</time>
      </trkpt>
      <trkpt lat="47.6578279864043" lon="6.749367015436292">
        <ele>370.24000000000001</ele>
        <time>2025-04-23T10:23:23Z</time>
      </trkpt>
      <trkpt lat="47.657981039956212" lon="6.749223014339805">
        <ele>368.80000000000001</ele>
        <time>2025-04-23T10:23:25Z</time>
      </trkpt>
      <trkpt lat="47.65806301496923" lon="6.749144978821278">
        <ele>368.31999999999999</ele>
        <time>2025-04-23T10:23:26Z</time>
      </trkpt>
      <trkpt lat="47.658741027116776" lon="6.748175024986267">
        <ele>364</ele>
        <time>2025-04-23T10:23:35Z</time>
      </trkpt>
      <trkpt lat="47.659320970997214" lon="6.747091999277473">
        <ele>364</ele>
        <time>2025-04-23T10:23:44Z</time>
      </trkpt>
      <trkpt lat="47.660205010324717" lon="6.745736980810762">
        <ele>367.36000000000001</ele>
        <time>2025-04-23T10:23:56Z</time>
      </trkpt>
      <trkpt lat="47.661085026338696" lon="6.744614979252219">
        <ele>375.52999999999997</ele>
        <time>2025-04-23T10:24:06Z</time>
      </trkpt>
      <trkpt lat="47.661158032715321" lon="6.744506014510989">
        <ele>376.00999999999999</ele>
        <time>2025-04-23T10:24:07Z</time>
      </trkpt>
      <trkpt lat="47.661231961101294" lon="6.74438196234405">
        <ele>376.49000000000001</ele>
        <time>2025-04-23T10:24:08Z</time>
      </trkpt>
      <trkpt lat="47.661994965746999" lon="6.742841033264995">
        <ele>378.42000000000002</ele>
        <time>2025-04-23T10:24:19Z</time>
      </trkpt>
      <trkpt lat="47.662033019587398" lon="6.742682028561831">
        <ele>377.94</ele>
        <time>2025-04-23T10:24:20Z</time>
      </trkpt>
      <trkpt lat="47.662296965718269" lon="6.74098301678896">
        <ele>372.17000000000002</ele>
        <time>2025-04-23T10:24:30Z</time>
      </trkpt>
      <trkpt lat="47.662520008161664" lon="6.738957026973367">
        <ele>366.39999999999998</ele>
        <time>2025-04-23T10:24:42Z</time>
      </trkpt>
      <trkpt lat="47.662607012316585" lon="6.737692030146718">
        <ele>364.95999999999998</ele>
        <time>2025-04-23T10:24:51Z</time>
      </trkpt>
      <trkpt lat="47.662607012316585" lon="6.737692030146718">
        <ele>364.95999999999998</ele>
        <time>2025-04-23T10:25:00Z</time>
      </trkpt>
      <trkpt lat="47.662623021751642" lon="6.737617012113333">
        <ele>364.95999999999998</ele>
        <time>2025-04-23T10:25:11Z</time>
      </trkpt>
      <trkpt lat="47.662643976509571" lon="6.73752699047327">
        <ele>364.95999999999998</ele>
        <time>2025-04-23T10:25:12Z</time>
      </trkpt>
      <trkpt lat="47.663043038919568" lon="6.736581008881331">
        <ele>368.80000000000001</ele>
        <time>2025-04-23T10:25:20Z</time>
      </trkpt>
      <trkpt lat="47.663713004440069" lon="6.735189026221633">
        <ele>378.89999999999998</ele>
        <time>2025-04-23T10:25:30Z</time>
      </trkpt>
      <trkpt lat="47.664375007152557" lon="6.73355296254158">
        <ele>388.02999999999997</ele>
        <time>2025-04-23T10:25:40Z</time>
      </trkpt>
      <trkpt lat="47.665086966007948" lon="6.731536025181413">
        <ele>395.24000000000001</ele>
        <time>2025-04-23T10:25:49Z</time>
      </trkpt>
      <trkpt lat="47.666127998381853" lon="6.730129038915038">
        <ele>401.97000000000003</ele>
        <time>2025-04-23T10:25:56Z</time>
      </trkpt>
      <trkpt lat="47.666297983378172" lon="6.729930974543095">
        <ele>402.93000000000001</ele>
        <time>2025-04-23T10:25:57Z</time>
      </trkpt>
      <trkpt lat="47.667900016531348" lon="6.727868020534515">
        <ele>412.06</ele>
        <time>2025-04-23T10:26:06Z</time>
      </trkpt>
      <trkpt lat="47.668928978964686" lon="6.72592299990356">
        <ele>415.43000000000001</ele>
        <time>2025-04-23T10:26:13Z</time>
      </trkpt>
      <trkpt lat="47.670944994315505" lon="6.722223982214928">
        <ele>426</ele>
        <time>2025-04-23T10:26:28Z</time>
      </trkpt>
      <trkpt lat="47.672043023630977" lon="6.72108898870647">
        <ele>428.88999999999999</ele>
        <time>2025-04-23T10:26:34Z</time>
      </trkpt>
      <trkpt lat="47.673503989353776" lon="6.720365965738893">
        <ele>435.13</ele>
        <time>2025-04-23T10:26:41Z</time>
      </trkpt>
      <trkpt lat="47.674391968175769" lon="6.720125991851091">
        <ele>438.5</ele>
        <time>2025-04-23T10:26:45Z</time>
      </trkpt>
      <trkpt lat="47.674599001184106" lon="6.719990959390998">
        <ele>438.98000000000002</ele>
        <time>2025-04-23T10:26:46Z</time>
      </trkpt>
      <trkpt lat="47.674804022535682" lon="6.719856010749936">
        <ele>439.45999999999998</ele>
        <time>2025-04-23T10:26:47Z</time>
      </trkpt>
      <trkpt lat="47.675005020573735" lon="6.71971402131021">
        <ele>439.94</ele>
        <time>2025-04-23T10:26:48Z</time>
      </trkpt>
      <trkpt lat="47.675198977813125" lon="6.719540013000369">
        <ele>440.42000000000002</ele>
        <time>2025-04-23T10:26:49Z</time>
      </trkpt>
      <trkpt lat="47.675361000001431" lon="6.719316970556974">
        <ele>440.89999999999998</ele>
        <time>2025-04-23T10:26:50Z</time>
      </trkpt>
      <trkpt lat="47.675690995529294" lon="6.718865018337965">
        <ele>441.86000000000001</ele>
        <time>2025-04-23T10:26:52Z</time>
      </trkpt>
      <trkpt lat="47.676816014572978" lon="6.716737020760775">
        <ele>447.63</ele>
        <time>2025-04-23T10:27:01Z</time>
      </trkpt>
      <trkpt lat="47.67733502201736" lon="6.71573999337852">
        <ele>450.02999999999997</ele>
        <time>2025-04-23T10:27:06Z</time>
      </trkpt>
      <trkpt lat="47.677439041435719" lon="6.715540001168847">
        <ele>450.51999999999998</ele>
        <time>2025-04-23T10:27:07Z</time>
      </trkpt>
      <trkpt lat="47.677539959549904" lon="6.715345038101077">
        <ele>450.51999999999998</ele>
        <time>2025-04-23T10:27:08Z</time>
      </trkpt>
      <trkpt lat="47.678716024383903" lon="6.713851969689131">
        <ele>451</ele>
        <time>2025-04-23T10:27:17Z</time>
      </trkpt>
      <trkpt lat="47.68004497513175" lon="6.7123459931463">
        <ele>452.92000000000002</ele>
        <time>2025-04-23T10:27:26Z</time>
      </trkpt>
      <trkpt lat="47.680660961195827" lon="6.711477041244507">
        <ele>457.72000000000003</ele>
        <time>2025-04-23T10:27:33Z</time>
      </trkpt>
      <trkpt lat="47.681751027703285" lon="6.710004005581141">
        <ele>457.24000000000001</ele>
        <time>2025-04-23T10:27:46Z</time>
      </trkpt>
      <trkpt lat="47.682357961311936" lon="6.708759041503072">
        <ele>459.64999999999998</ele>
        <time>2025-04-23T10:27:55Z</time>
      </trkpt>
      <trkpt lat="47.682898007333279" lon="6.706852996721864">
        <ele>467.33999999999997</ele>
        <time>2025-04-23T10:28:07Z</time>
      </trkpt>
      <trkpt lat="47.683242000639439" lon="6.705941967666149">
        <ele>469.74000000000001</ele>
        <time>2025-04-23T10:28:13Z</time>
      </trkpt>
      <trkpt lat="47.683302015066147" lon="6.705802995711565">
        <ele>469.25999999999999</ele>
        <time>2025-04-23T10:28:14Z</time>
      </trkpt>
      <trkpt lat="47.684195023030043" lon="6.703754039481282">
        <ele>464.44999999999999</ele>
        <time>2025-04-23T10:28:28Z</time>
      </trkpt>
      <trkpt lat="47.685001026839018" lon="6.701683960855007">
        <ele>468.30000000000001</ele>
        <time>2025-04-23T10:28:42Z</time>
      </trkpt>
      <trkpt lat="47.685127006843686" lon="6.700664972886443">
        <ele>471.18000000000001</ele>
        <time>2025-04-23T10:28:48Z</time>
      </trkpt>
      <trkpt lat="47.685107979923487" lon="6.700495993718505">
        <ele>471.18000000000001</ele>
        <time>2025-04-23T10:28:49Z</time>
      </trkpt>
      <trkpt lat="47.685089036822319" lon="6.700325002893806">
        <ele>471.66000000000003</ele>
        <time>2025-04-23T10:28:50Z</time>
      </trkpt>
      <trkpt lat="47.684927014634013" lon="6.699493015184999">
        <ele>471.66000000000003</ele>
        <time>2025-04-23T10:28:55Z</time>
      </trkpt>
      <trkpt lat="47.684423010796309" lon="6.697979997843504">
        <ele>468.30000000000001</ele>
        <time>2025-04-23T10:29:04Z</time>
      </trkpt>
      <trkpt lat="47.684372970834374" lon="6.697752010077238">
        <ele>467.81999999999999</ele>
        <time>2025-04-23T10:29:05Z</time>
      </trkpt>
      <trkpt lat="47.684089997783303" lon="6.695592999458313">
        <ele>466.38</ele>
        <time>2025-04-23T10:29:13Z</time>
      </trkpt>
      <trkpt lat="47.683873996138573" lon="6.692895032465458">
        <ele>460.61000000000001</ele>
        <time>2025-04-23T10:29:22Z</time>
      </trkpt>
      <trkpt lat="47.683902997523546" lon="6.692604012787342">
        <ele>458.69</ele>
        <time>2025-04-23T10:29:24Z</time>
      </trkpt>
      <trkpt lat="47.68451102077961" lon="6.690521026030183">
        <ele>451.48000000000002</ele>
        <time>2025-04-23T10:29:31Z</time>
      </trkpt>
      <trkpt lat="47.68517998047173" lon="6.68883802369237">
        <ele>449.06999999999999</ele>
        <time>2025-04-23T10:29:39Z</time>
      </trkpt>
      <trkpt lat="47.685497989878058" lon="6.68821700848639">
        <ele>450.02999999999997</ele>
        <time>2025-04-23T10:29:42Z</time>
      </trkpt>
      <trkpt lat="47.685604020953178" lon="6.688000001013279">
        <ele>450.51999999999998</ele>
        <time>2025-04-23T10:29:43Z</time>
      </trkpt>
      <trkpt lat="47.68625102005899" lon="6.686194958165288">
        <ele>452.44</ele>
        <time>2025-04-23T10:29:51Z</time>
      </trkpt>
      <trkpt lat="47.686355961486697" lon="6.685985997319222">
        <ele>451.95999999999998</ele>
        <time>2025-04-23T10:29:52Z</time>
      </trkpt>
      <trkpt lat="47.686482025310397" lon="6.685782987624407">
        <ele>451.48000000000002</ele>
        <time>2025-04-23T10:29:53Z</time>
      </trkpt>
      <trkpt lat="47.686870023608208" lon="6.685194997116923">
        <ele>449.55000000000001</ele>
        <time>2025-04-23T10:29:56Z</time>
      </trkpt>
      <trkpt lat="47.686969013884664" lon="6.684976983815432">
        <ele>449.06999999999999</ele>
        <time>2025-04-23T10:29:57Z</time>
      </trkpt>
      <trkpt lat="47.687047971412539" lon="6.684731980785728">
        <ele>448.11000000000001</ele>
        <time>2025-04-23T10:29:58Z</time>
      </trkpt>
      <trkpt lat="47.687130030244589" lon="6.68447901494801">
        <ele>447.63</ele>
        <time>2025-04-23T10:29:59Z</time>
      </trkpt>
      <trkpt lat="47.687201024964452" lon="6.68422001414001">
        <ele>447.14999999999998</ele>
        <time>2025-04-23T10:30:00Z</time>
      </trkpt>
      <trkpt lat="47.687246035784483" lon="6.683951960876584">
        <ele>446.19</ele>
        <time>2025-04-23T10:30:01Z</time>
      </trkpt>
      <trkpt lat="47.687680972740054" lon="6.681621037423611">
        <ele>445.23000000000002</ele>
        <time>2025-04-23T10:30:11Z</time>
      </trkpt>
      <trkpt lat="47.687725983560085" lon="6.68140796944499">
        <ele>445.70999999999998</ele>
        <time>2025-04-23T10:30:12Z</time>
      </trkpt>
      <trkpt lat="47.687811981886625" lon="6.681229015812278">
        <ele>445.70999999999998</ele>
        <time>2025-04-23T10:30:13Z</time>
      </trkpt>
      <trkpt lat="47.687925975769758" lon="6.681074034422636">
        <ele>446.19</ele>
        <time>2025-04-23T10:30:14Z</time>
      </trkpt>
      <trkpt lat="47.688266029581428" lon="6.680612023919821">
        <ele>448.58999999999997</ele>
        <time>2025-04-23T10:30:17Z</time>
      </trkpt>
      <trkpt lat="47.688367031514645" lon="6.680430974811316">
        <ele>449.55000000000001</ele>
        <time>2025-04-23T10:30:18Z</time>
      </trkpt>
      <trkpt lat="47.688432997092605" lon="6.680199969559908">
        <ele>450.02999999999997</ele>
        <time>2025-04-23T10:30:19Z</time>
      </trkpt>
      <trkpt lat="47.688495023176074" lon="6.679940968751907">
        <ele>451</ele>
        <time>2025-04-23T10:30:20Z</time>
      </trkpt>
      <trkpt lat="47.688545985147357" lon="6.679648021236062">
        <ele>451.48000000000002</ele>
        <time>2025-04-23T10:30:21Z</time>
      </trkpt>
      <trkpt lat="47.688593007624149" lon="6.679335962980986">
        <ele>451.48000000000002</ele>
        <time>2025-04-23T10:30:22Z</time>
      </trkpt>
      <trkpt lat="47.688818983733654" lon="6.677447017282248">
        <ele>446.67000000000002</ele>
        <time>2025-04-23T10:30:28Z</time>
      </trkpt>
      <trkpt lat="47.688804985955358" lon="6.677138982340694">
        <ele>445.23000000000002</ele>
        <time>2025-04-23T10:30:29Z</time>
      </trkpt>
      <trkpt lat="47.688763998448849" lon="6.676826002076268">
        <ele>443.79000000000002</ele>
        <time>2025-04-23T10:30:30Z</time>
      </trkpt>
      <trkpt lat="47.688668025657535" lon="6.67588597163558">
        <ele>438.98000000000002</ele>
        <time>2025-04-23T10:30:33Z</time>
      </trkpt>
      <trkpt lat="47.688668025657535" lon="6.674940995872021">
        <ele>434.17000000000002</ele>
        <time>2025-04-23T10:30:36Z</time>
      </trkpt>
      <trkpt lat="47.688719993457198" lon="6.674656011164188">
        <ele>432.25</ele>
        <time>2025-04-23T10:30:37Z</time>
      </trkpt>
      <trkpt lat="47.688773972913623" lon="6.674374965950847">
        <ele>430.32999999999998</ele>
        <time>2025-04-23T10:30:38Z</time>
      </trkpt>
      <trkpt lat="47.688894001767039" lon="6.674140021204948">
        <ele>428.88999999999999</ele>
        <time>2025-04-23T10:30:39Z</time>
      </trkpt>
      <trkpt lat="47.689026016741991" lon="6.673916978761554">
        <ele>427.44</ele>
        <time>2025-04-23T10:30:40Z</time>
      </trkpt>
      <trkpt lat="47.689188038930297" lon="6.673726039007306">
        <ele>426</ele>
        <time>2025-04-23T10:30:41Z</time>
      </trkpt>
      <trkpt lat="47.689349977299571" lon="6.673534009605646">
        <ele>424.56</ele>
        <time>2025-04-23T10:30:42Z</time>
      </trkpt>
      <trkpt lat="47.689783992245793" lon="6.672909976914525">
        <ele>422.16000000000003</ele>
        <time>2025-04-23T10:30:45Z</time>
      </trkpt>
      <trkpt lat="47.689893040806055" lon="6.672674026340246">
        <ele>421.68000000000001</ele>
        <time>2025-04-23T10:30:46Z</time>
      </trkpt>
      <trkpt lat="47.68994802609086" lon="6.672398010268807">
        <ele>421.19</ele>
        <time>2025-04-23T10:30:47Z</time>
      </trkpt>
      <trkpt lat="47.689981972798705" lon="6.672096010297537">
        <ele>420.23000000000002</ele>
        <time>2025-04-23T10:30:48Z</time>
      </trkpt>
      <trkpt lat="47.690016003325582" lon="6.671776995062828">
        <ele>419.26999999999998</ele>
        <time>2025-04-23T10:30:49Z</time>
      </trkpt>
      <trkpt lat="47.690278021618724" lon="6.669173995032907">
        <ele>411.10000000000002</ele>
        <time>2025-04-23T10:30:57Z</time>
      </trkpt>
      <trkpt lat="47.690321020781994" lon="6.667144987732172">
        <ele>400.52999999999997</ele>
        <time>2025-04-23T10:31:04Z</time>
      </trkpt>
      <trkpt lat="47.690359996631742" lon="6.666718013584614">
        <ele>397.16000000000003</ele>
        <time>2025-04-23T10:31:06Z</time>
      </trkpt>
      <trkpt lat="47.690401989966631" lon="6.666527995839715">
        <ele>395.72000000000003</ele>
        <time>2025-04-23T10:31:07Z</time>
      </trkpt>
      <trkpt lat="47.690455969423056" lon="6.666346024721861">
        <ele>394.27999999999997</ele>
        <time>2025-04-23T10:31:08Z</time>
      </trkpt>
      <trkpt lat="47.691243030130863" lon="6.664136974141002">
        <ele>379.86000000000001</ele>
        <time>2025-04-23T10:31:21Z</time>
      </trkpt>
      <trkpt lat="47.692104019224644" lon="6.661698007956147">
        <ele>371.69</ele>
        <time>2025-04-23T10:31:33Z</time>
      </trkpt>
      <trkpt lat="47.693053018301725" lon="6.65878102183342">
        <ele>366.88</ele>
        <time>2025-04-23T10:31:46Z</time>
      </trkpt>
      <trkpt lat="47.694053985178471" lon="6.655269004404545">
        <ele>361.58999999999997</ele>
        <time>2025-04-23T10:32:02Z</time>
      </trkpt>
      <trkpt lat="47.694320026785135" lon="6.654181033372879">
        <ele>359.67000000000002</ele>
        <time>2025-04-23T10:32:10Z</time>
      </trkpt>
      <trkpt lat="47.694464027881622" lon="6.653627995401621">
        <ele>359.67000000000002</ele>
        <time>2025-04-23T10:32:19Z</time>
      </trkpt>
      <trkpt lat="47.694472996518016" lon="6.653592959046364">
        <ele>359.67000000000002</ele>
        <time>2025-04-23T10:32:28Z</time>
      </trkpt>
      <trkpt lat="47.694472996518016" lon="6.653592959046364">
        <ele>359.19</ele>
        <time>2025-04-23T10:33:20Z</time>
      </trkpt>
      <trkpt lat="47.694539967924356" lon="6.653304034844041">
        <ele>359.67000000000002</ele>
        <time>2025-04-23T10:33:29Z</time>
      </trkpt>
      <trkpt lat="47.694816989824176" lon="6.652196031063795">
        <ele>358.70999999999998</ele>
        <time>2025-04-23T10:33:36Z</time>
      </trkpt>
      <trkpt lat="47.695327028632164" lon="6.649922020733357">
        <ele>356.31</ele>
        <time>2025-04-23T10:33:48Z</time>
      </trkpt>
      <trkpt lat="47.695703040808439" lon="6.648237006738782">
        <ele>351.98000000000002</ele>
        <time>2025-04-23T10:33:58Z</time>
      </trkpt>
      <trkpt lat="47.696202015504241" lon="6.645942041650415">
        <ele>350.54000000000002</ele>
        <time>2025-04-23T10:34:10Z</time>
      </trkpt>
      <trkpt lat="47.696561012417078" lon="6.644323999062181">
        <ele>350.06</ele>
        <time>2025-04-23T10:34:20Z</time>
      </trkpt>
      <trkpt lat="47.697083037346601" lon="6.641848990693688">
        <ele>348.13</ele>
        <time>2025-04-23T10:34:35Z</time>
      </trkpt>
      <trkpt lat="47.697609001770616" lon="6.63938001729548">
        <ele>346.20999999999998</ele>
        <time>2025-04-23T10:34:50Z</time>
      </trkpt>
      <trkpt lat="47.698102025315166" lon="6.637070970609784">
        <ele>344.76999999999998</ele>
        <time>2025-04-23T10:35:04Z</time>
      </trkpt>
      <trkpt lat="47.698569986969233" lon="6.634924029931426">
        <ele>342.85000000000002</ele>
        <time>2025-04-23T10:35:17Z</time>
      </trkpt>
      <trkpt lat="47.698924038559198" lon="6.633487036451697">
        <ele>342.37</ele>
        <time>2025-04-23T10:35:26Z</time>
      </trkpt>
      <trkpt lat="47.699011964723468" lon="6.633387040346861">
        <ele>342.37</ele>
        <time>2025-04-23T10:35:27Z</time>
      </trkpt>
      <trkpt lat="47.699106009677052" lon="6.633292995393276">
        <ele>342.37</ele>
        <time>2025-04-23T10:35:28Z</time>
      </trkpt>
      <trkpt lat="47.699209023267031" lon="6.633200962096453">
        <ele>342.85000000000002</ele>
        <time>2025-04-23T10:35:29Z</time>
      </trkpt>
      <trkpt lat="47.699313964694738" lon="6.633136002346873">
        <ele>343.32999999999998</ele>
        <time>2025-04-23T10:35:30Z</time>
      </trkpt>
      <trkpt lat="47.699425024911761" lon="6.633083028718829">
        <ele>343.32999999999998</ele>
        <time>2025-04-23T10:35:31Z</time>
      </trkpt>
      <trkpt lat="47.699529966339469" lon="6.633032988756895">
        <ele>343.32999999999998</ele>
        <time>2025-04-23T10:35:32Z</time>
      </trkpt>
      <trkpt lat="47.699705986306071" lon="6.632955959066749">
        <ele>343.32999999999998</ele>
        <time>2025-04-23T10:35:34Z</time>
      </trkpt>
      <trkpt lat="47.700298000127077" lon="6.632745992392302">
        <ele>342.85000000000002</ele>
        <time>2025-04-23T10:35:42Z</time>
      </trkpt>
      <trkpt lat="47.700362959876657" lon="6.632716991007328">
        <ele>343.32999999999998</ele>
        <time>2025-04-23T10:35:43Z</time>
      </trkpt>
      <trkpt lat="47.700387015938759" lon="6.63265697658062">
        <ele>343.81</ele>
        <time>2025-04-23T10:35:44Z</time>
      </trkpt>
      <trkpt lat="47.700402019545436" lon="6.632565027102828">
        <ele>344.29000000000002</ele>
        <time>2025-04-23T10:35:45Z</time>
      </trkpt>
      <trkpt lat="47.70039196126163" lon="6.632452961057425">
        <ele>344.76999999999998</ele>
        <time>2025-04-23T10:35:46Z</time>
      </trkpt>
      <trkpt lat="47.700378969311714" lon="6.632336033508182">
        <ele>345.25</ele>
        <time>2025-04-23T10:35:47Z</time>
      </trkpt>
      <trkpt lat="47.700362037867308" lon="6.632210975512862">
        <ele>345.25</ele>
        <time>2025-04-23T10:35:48Z</time>
      </trkpt>
      <trkpt lat="47.700345022603869" lon="6.632082983851433">
        <ele>346.20999999999998</ele>
        <time>2025-04-23T10:35:49Z</time>
      </trkpt>
      <trkpt lat="47.700255000963807" lon="6.631016973406076">
        <ele>346.69</ele>
        <time>2025-04-23T10:35:58Z</time>
      </trkpt>
      <trkpt lat="47.700236979871988" lon="6.630539037287235">
        <ele>346.69</ele>
        <time>2025-04-23T10:36:02Z</time>
      </trkpt>
      <trkpt lat="47.700191969051957" lon="6.630324041470885">
        <ele>347.17000000000002</ele>
        <time>2025-04-23T10:36:04Z</time>
      </trkpt>
      <trkpt lat="47.699844958260655" lon="6.628987966105342">
        <ele>345.73000000000002</ele>
        <time>2025-04-23T10:36:14Z</time>
      </trkpt>
      <trkpt lat="47.699418989941478" lon="6.627180995419622">
        <ele>346.20999999999998</ele>
        <time>2025-04-23T10:36:25Z</time>
      </trkpt>
      <trkpt lat="47.698838962242007" lon="6.624916037544608">
        <ele>345.25</ele>
        <time>2025-04-23T10:36:39Z</time>
      </trkpt>
      <trkpt lat="47.698335964232683" lon="6.622860040515661">
        <ele>344.76999999999998</ele>
        <time>2025-04-23T10:36:50Z</time>
      </trkpt>
      <trkpt lat="47.697689970955253" lon="6.620245976373553">
        <ele>343.32999999999998</ele>
        <time>2025-04-23T10:37:01Z</time>
      </trkpt>
      <trkpt lat="47.697650995105505" lon="6.620017988607287">
        <ele>343.32999999999998</ele>
        <time>2025-04-23T10:37:02Z</time>
      </trkpt>
      <trkpt lat="47.6975769829005" lon="6.619539968669415">
        <ele>342.85000000000002</ele>
        <time>2025-04-23T10:37:04Z</time>
      </trkpt>
      <trkpt lat="47.697540018707514" lon="6.619303012266755">
        <ele>342.85000000000002</ele>
        <time>2025-04-23T10:37:05Z</time>
      </trkpt>
      <trkpt lat="47.697539012879133" lon="6.619075024500489">
        <ele>342.37</ele>
        <time>2025-04-23T10:37:06Z</time>
      </trkpt>
      <trkpt lat="47.697708997875452" lon="6.616963036358357">
        <ele>341.41000000000003</ele>
        <time>2025-04-23T10:37:15Z</time>
      </trkpt>
      <trkpt lat="47.697927011176944" lon="6.614613002166152">
        <ele>339.95999999999998</ele>
        <time>2025-04-23T10:37:25Z</time>
      </trkpt>
      <trkpt lat="47.698058020323515" lon="6.613196963444352">
        <ele>337.56</ele>
        <time>2025-04-23T10:37:33Z</time>
      </trkpt>
      <trkpt lat="47.69826496951282" lon="6.610952038317919">
        <ele>336.60000000000002</ele>
        <time>2025-04-23T10:37:46Z</time>
      </trkpt>
      <trkpt lat="47.698470996692777" lon="6.60943097434938">
        <ele>336.12</ele>
        <time>2025-04-23T10:37:55Z</time>
      </trkpt>
      <trkpt lat="47.699011964723468" lon="6.607441026717424">
        <ele>336.12</ele>
        <time>2025-04-23T10:38:07Z</time>
      </trkpt>
      <trkpt lat="47.699582017958164" lon="6.605519978329539">
        <ele>332.75</ele>
        <time>2025-04-23T10:38:17Z</time>
      </trkpt>
      <trkpt lat="47.699890974909067" lon="6.603451995179057">
        <ele>331.31</ele>
        <time>2025-04-23T10:38:25Z</time>
      </trkpt>
      <trkpt lat="47.699838001281023" lon="6.60294002853334">
        <ele>331.31</ele>
        <time>2025-04-23T10:38:27Z</time>
      </trkpt>
      <trkpt lat="47.69933600910008" lon="6.600205013528466">
        <ele>329.87</ele>
        <time>2025-04-23T10:38:38Z</time>
      </trkpt>
      <trkpt lat="47.699048006907105" lon="6.597879035398364">
        <ele>329.38999999999999</ele>
        <time>2025-04-23T10:38:47Z</time>
      </trkpt>
      <trkpt lat="47.699188990518451" lon="6.595452977344394">
        <ele>328.43000000000001</ele>
        <time>2025-04-23T10:38:56Z</time>
      </trkpt>
      <trkpt lat="47.699169963598251" lon="6.59486498683691">
        <ele>328.43000000000001</ele>
        <time>2025-04-23T10:38:58Z</time>
      </trkpt>
      <trkpt lat="47.699142973870039" lon="6.594574972987175">
        <ele>328.43000000000001</ele>
        <time>2025-04-23T10:38:59Z</time>
      </trkpt>
      <trkpt lat="47.699063010513783" lon="6.594295017421246">
        <ele>328.43000000000001</ele>
        <time>2025-04-23T10:39:00Z</time>
      </trkpt>
      <trkpt lat="47.698976006358862" lon="6.594014978036284">
        <ele>328.43000000000001</ele>
        <time>2025-04-23T10:39:01Z</time>
      </trkpt>
      <trkpt lat="47.698865029960871" lon="6.593738039955497">
        <ele>328.43000000000001</ele>
        <time>2025-04-23T10:39:02Z</time>
      </trkpt>
      <trkpt lat="47.697700029239058" lon="6.590836979448795">
        <ele>325.06</ele>
        <time>2025-04-23T10:39:12Z</time>
      </trkpt>
      <trkpt lat="47.697599027305841" lon="6.590521987527609">
        <ele>324.57999999999998</ele>
        <time>2025-04-23T10:39:13Z</time>
      </trkpt>
      <trkpt lat="47.697457959875464" lon="6.590237002819777">
        <ele>324.57999999999998</ele>
        <time>2025-04-23T10:39:14Z</time>
      </trkpt>
      <trkpt lat="47.697314964607358" lon="6.589949000626802">
        <ele>324.10000000000002</ele>
        <time>2025-04-23T10:39:15Z</time>
      </trkpt>
      <trkpt lat="47.696916991844773" lon="6.589098991826177">
        <ele>322.18000000000001</ele>
        <time>2025-04-23T10:39:18Z</time>
      </trkpt>
      <trkpt lat="47.69684599712491" lon="6.588781988248229">
        <ele>321.69999999999999</ele>
        <time>2025-04-23T10:39:19Z</time>
      </trkpt>
      <trkpt lat="47.696783971041441" lon="6.588458027690649">
        <ele>321.22000000000003</ele>
        <time>2025-04-23T10:39:20Z</time>
      </trkpt>
      <trkpt lat="47.696246020495892" lon="6.584859006106854">
        <ele>318.32999999999998</ele>
        <time>2025-04-23T10:39:31Z</time>
      </trkpt>
      <trkpt lat="47.696128003299236" lon="6.584275960922241">
        <ele>317.85000000000002</ele>
        <time>2025-04-23T10:39:33Z</time>
      </trkpt>
      <trkpt lat="47.696042004972696" lon="6.583999022841454">
        <ele>317.85000000000002</ele>
        <time>2025-04-23T10:39:34Z</time>
      </trkpt>
      <trkpt lat="47.695951983332634" lon="6.583724012598395">
        <ele>317.85000000000002</ele>
        <time>2025-04-23T10:39:35Z</time>
      </trkpt>
      <trkpt lat="47.694607023149729" lon="6.580757992342114">
        <ele>316.41000000000003</ele>
        <time>2025-04-23T10:39:46Z</time>
      </trkpt>
      <trkpt lat="47.693347977474332" lon="6.577965980395675">
        <ele>315.44999999999999</ele>
        <time>2025-04-23T10:39:57Z</time>
      </trkpt>
      <trkpt lat="47.692237962037325" lon="6.575406985357404">
        <ele>315.93000000000001</ele>
        <time>2025-04-23T10:40:09Z</time>
      </trkpt>
      <trkpt lat="47.691282005980611" lon="6.573021998628974">
        <ele>316.88999999999999</ele>
        <time>2025-04-23T10:40:21Z</time>
      </trkpt>
      <trkpt lat="47.69072100520134" lon="6.57131502404809">
        <ele>317.37</ele>
        <time>2025-04-23T10:40:32Z</time>
      </trkpt>
      <trkpt lat="47.690039975568652" lon="6.569518027827144">
        <ele>317.85000000000002</ele>
        <time>2025-04-23T10:40:44Z</time>
      </trkpt>
      <trkpt lat="47.689075972884893" lon="6.567541994154453">
        <ele>316.88999999999999</ele>
        <time>2025-04-23T10:40:58Z</time>
      </trkpt>
      <trkpt lat="47.688196040689945" lon="6.565675009042025">
        <ele>315.44999999999999</ele>
        <time>2025-04-23T10:41:10Z</time>
      </trkpt>
      <trkpt lat="47.687479974702001" lon="6.564176995307207">
        <ele>314.49000000000001</ele>
        <time>2025-04-23T10:41:18Z</time>
      </trkpt>
      <trkpt lat="47.686245990917087" lon="6.561599979177117">
        <ele>314.00999999999999</ele>
        <time>2025-04-23T10:41:28Z</time>
      </trkpt>
      <trkpt lat="47.684331983327866" lon="6.557571971789002">
        <ele>312.08999999999997</ele>
        <time>2025-04-23T10:41:43Z</time>
      </trkpt>
      <trkpt lat="47.682572035118937" lon="6.553671034052968">
        <ele>309.19999999999999</ele>
        <time>2025-04-23T10:41:57Z</time>
      </trkpt>
      <trkpt lat="47.680241027846932" lon="6.548463022336364">
        <ele>309.19999999999999</ele>
        <time>2025-04-23T10:42:16Z</time>
      </trkpt>
      <trkpt lat="47.679288005456328" lon="6.546200998127461">
        <ele>310.63999999999999</ele>
        <time>2025-04-23T10:42:25Z</time>
      </trkpt>
      <trkpt lat="47.678962033241987" lon="6.544928960502148">
        <ele>309.68000000000001</ele>
        <time>2025-04-23T10:42:32Z</time>
      </trkpt>
      <trkpt lat="47.678404971957207" lon="6.542106019333005">
        <ele>309.19999999999999</ele>
        <time>2025-04-23T10:42:49Z</time>
      </trkpt>
      <trkpt lat="47.67800398170948" lon="6.539396988227963">
        <ele>305.83999999999997</ele>
        <time>2025-04-23T10:43:05Z</time>
      </trkpt>
      <trkpt lat="47.677687983959913" lon="6.53738901950419">
        <ele>304.88</ele>
        <time>2025-04-23T10:43:17Z</time>
      </trkpt>
      <trkpt lat="47.677285987883806" lon="6.534518972039223">
        <ele>304.38999999999999</ele>
        <time>2025-04-23T10:43:34Z</time>
      </trkpt>
      <trkpt lat="47.676860019564629" lon="6.531639033928514">
        <ele>302.94999999999999</ele>
        <time>2025-04-23T10:43:51Z</time>
      </trkpt>
      <trkpt lat="47.676484007388353" lon="6.529108034446836">
        <ele>303.91000000000003</ele>
        <time>2025-04-23T10:44:06Z</time>
      </trkpt>
      <trkpt lat="47.675964999943972" lon="6.525560980662704">
        <ele>301.99000000000001</ele>
        <time>2025-04-23T10:44:27Z</time>
      </trkpt>
      <trkpt lat="47.675882019102573" lon="6.524693034589291">
        <ele>301.50999999999999</ele>
        <time>2025-04-23T10:44:32Z</time>
      </trkpt>
      <trkpt lat="47.675900962203741" lon="6.524526989087462">
        <ele>301.50999999999999</ele>
        <time>2025-04-23T10:44:33Z</time>
      </trkpt>
      <trkpt lat="47.675930969417095" lon="6.524363039061427">
        <ele>301.50999999999999</ele>
        <time>2025-04-23T10:44:34Z</time>
      </trkpt>
      <trkpt lat="47.67596198245883" lon="6.524195987731218">
        <ele>301.50999999999999</ele>
        <time>2025-04-23T10:44:35Z</time>
      </trkpt>
      <trkpt lat="47.675992995500565" lon="6.524028014391661">
        <ele>301.50999999999999</ele>
        <time>2025-04-23T10:44:36Z</time>
      </trkpt>
      <trkpt lat="47.676050998270512" lon="6.523712016642094">
        <ele>301.50999999999999</ele>
        <time>2025-04-23T10:44:38Z</time>
      </trkpt>
      <trkpt lat="47.676050998270512" lon="6.523529039695859">
        <ele>301.50999999999999</ele>
        <time>2025-04-23T10:44:39Z</time>
      </trkpt>
      <trkpt lat="47.676050998270512" lon="6.523357965052128">
        <ele>301.50999999999999</ele>
        <time>2025-04-23T10:44:40Z</time>
      </trkpt>
      <trkpt lat="47.676066001877189" lon="6.52293199673295">
        <ele>301.50999999999999</ele>
        <time>2025-04-23T10:44:43Z</time>
      </trkpt>
      <trkpt lat="47.676072958856821" lon="6.522789001464844">
        <ele>301.50999999999999</ele>
        <time>2025-04-23T10:44:44Z</time>
      </trkpt>
      <trkpt lat="47.676098020747304" lon="6.522738039493561">
        <ele>301.50999999999999</ele>
        <time>2025-04-23T10:44:45Z</time>
      </trkpt>
      <trkpt lat="47.676142025738955" lon="6.522642988711596">
        <ele>301.50999999999999</ele>
        <time>2025-04-23T10:44:46Z</time>
      </trkpt>
      <trkpt lat="47.676173960790038" lon="6.522533018141985">
        <ele>301.50999999999999</ele>
        <time>2025-04-23T10:44:47Z</time>
      </trkpt>
      <trkpt lat="47.676153006032109" lon="6.522388011217117">
        <ele>301.99000000000001</ele>
        <time>2025-04-23T10:44:48Z</time>
      </trkpt>
      <trkpt lat="47.676126016303897" lon="6.522273011505604">
        <ele>301.99000000000001</ele>
        <time>2025-04-23T10:44:49Z</time>
      </trkpt>
      <trkpt lat="47.676058961078525" lon="6.522174021229148">
        <ele>301.99000000000001</ele>
        <time>2025-04-23T10:44:50Z</time>
      </trkpt>
      <trkpt lat="47.675976986065507" lon="6.522113000974059">
        <ele>301.99000000000001</ele>
        <time>2025-04-23T10:44:51Z</time>
      </trkpt>
      <trkpt lat="47.675890987738967" lon="6.522085005417466">
        <ele>301.99000000000001</ele>
        <time>2025-04-23T10:44:52Z</time>
      </trkpt>
      <trkpt lat="47.675812030211091" lon="6.522140996530652">
        <ele>302.47000000000003</ele>
        <time>2025-04-23T10:44:53Z</time>
      </trkpt>
      <trkpt lat="47.675644978880882" lon="6.522188019007444">
        <ele>302.47000000000003</ele>
        <time>2025-04-23T10:44:54Z</time>
      </trkpt>
      <trkpt lat="47.675588987767696" lon="6.522102020680904">
        <ele>301.99000000000001</ele>
        <time>2025-04-23T10:44:55Z</time>
      </trkpt>
      <trkpt lat="47.675524028018117" lon="6.522002024576068">
        <ele>301.99000000000001</ele>
        <time>2025-04-23T10:44:56Z</time>
      </trkpt>
      <trkpt lat="47.675460996106267" lon="6.521904962137342">
        <ele>301.99000000000001</ele>
        <time>2025-04-23T10:44:57Z</time>
      </trkpt>
      <trkpt lat="47.675421014428139" lon="6.521789040416479">
        <ele>301.99000000000001</ele>
        <time>2025-04-23T10:44:58Z</time>
      </trkpt>
      <trkpt lat="47.675384972244501" lon="6.521669011563063">
        <ele>301.99000000000001</ele>
        <time>2025-04-23T10:44:59Z</time>
      </trkpt>
      <trkpt lat="47.675365023314953" lon="6.521565997973084">
        <ele>301.99000000000001</ele>
        <time>2025-04-23T10:45:00Z</time>
      </trkpt>
      <trkpt lat="47.675348008051515" lon="6.521403975784779">
        <ele>301.99000000000001</ele>
        <time>2025-04-23T10:45:01Z</time>
      </trkpt>
      <trkpt lat="47.675329986959696" lon="6.521256035193801">
        <ele>301.50999999999999</ele>
        <time>2025-04-23T10:45:02Z</time>
      </trkpt>
      <trkpt lat="47.675082972273231" lon="6.51955702342093">
        <ele>301.02999999999997</ele>
        <time>2025-04-23T10:45:12Z</time>
      </trkpt>
      <trkpt lat="47.674760017544031" lon="6.517354007810354">
        <ele>299.11000000000001</ele>
        <time>2025-04-23T10:45:25Z</time>
      </trkpt>
      <trkpt lat="47.674341006204486" lon="6.514489995315671">
        <ele>299.58999999999997</ele>
        <time>2025-04-23T10:45:42Z</time>
      </trkpt>
      <trkpt lat="47.674002964049578" lon="6.512139961123467">
        <ele>305.83999999999997</ele>
        <time>2025-04-23T10:45:56Z</time>
      </trkpt>
      <trkpt lat="47.673671040683985" lon="6.509878020733595">
        <ele>308.72000000000003</ele>
        <time>2025-04-23T10:46:10Z</time>
      </trkpt>
      <trkpt lat="47.673647990450263" lon="6.509721027687192">
        <ele>308.24000000000001</ele>
        <time>2025-04-23T10:46:11Z</time>
      </trkpt>
      <trkpt lat="47.673647990450263" lon="6.509656989946961">
        <ele>308.24000000000001</ele>
        <time>2025-04-23T10:46:12Z</time>
      </trkpt>
      <trkpt lat="47.673647990450263" lon="6.509656989946961">
        <ele>308.24000000000001</ele>
        <time>2025-04-23T10:46:13Z</time>
      </trkpt>
      <trkpt lat="47.673696018755436" lon="6.50937401689589">
        <ele>307.75999999999999</ele>
        <time>2025-04-23T10:46:14Z</time>
      </trkpt>
      <trkpt lat="47.673765001818538" lon="6.509271003305912">
        <ele>307.75999999999999</ele>
        <time>2025-04-23T10:46:15Z</time>
      </trkpt>
      <trkpt lat="47.673837002366781" lon="6.509165978059173">
        <ele>307.27999999999997</ele>
        <time>2025-04-23T10:46:16Z</time>
      </trkpt>
      <trkpt lat="47.673911014571786" lon="6.509056007489562">
        <ele>306.80000000000001</ele>
        <time>2025-04-23T10:46:17Z</time>
      </trkpt>
      <trkpt lat="47.674276968464255" lon="6.508518978953362">
        <ele>305.36000000000001</ele>
        <time>2025-04-23T10:46:22Z</time>
      </trkpt>
      <trkpt lat="47.674712995067239" lon="6.507942974567413">
        <ele>302.47000000000003</ele>
        <time>2025-04-23T10:46:30Z</time>
      </trkpt>
      <trkpt lat="47.674750965088606" lon="6.507790004834533">
        <ele>300.55000000000001</ele>
        <time>2025-04-23T10:46:37Z</time>
      </trkpt>
      <trkpt lat="47.674735961481929" lon="6.507696965709329">
        <ele>300.55000000000001</ele>
        <time>2025-04-23T10:46:38Z</time>
      </trkpt>
      <trkpt lat="47.674719030037522" lon="6.507588000968099">
        <ele>300.06999999999999</ele>
        <time>2025-04-23T10:46:39Z</time>
      </trkpt>
      <trkpt lat="47.674601012840867" lon="6.506815021857619">
        <ele>298.14999999999998</ele>
        <time>2025-04-23T10:46:44Z</time>
      </trkpt>
      <trkpt lat="47.674591960385442" lon="6.506645958870649">
        <ele>298.14999999999998</ele>
        <time>2025-04-23T10:46:45Z</time>
      </trkpt>
      <trkpt lat="47.674591960385442" lon="6.506468011066318">
        <ele>297.67000000000002</ele>
        <time>2025-04-23T10:46:46Z</time>
      </trkpt>
      <trkpt lat="47.674591960385442" lon="6.506296014413238">
        <ele>297.67000000000002</ele>
        <time>2025-04-23T10:46:47Z</time>
      </trkpt>
      <trkpt lat="47.674597995355725" lon="6.506129968911409">
        <ele>297.67000000000002</ele>
        <time>2025-04-23T10:46:48Z</time>
      </trkpt>
      <trkpt lat="47.674790024757385" lon="6.503890994936228">
        <ele>295.25999999999999</ele>
        <time>2025-04-23T10:47:01Z</time>
      </trkpt>
      <trkpt lat="47.674859007820487" lon="6.502522984519601">
        <ele>295.74000000000001</ele>
        <time>2025-04-23T10:47:09Z</time>
      </trkpt>
      <trkpt lat="47.674831012263894" lon="6.502360040321946">
        <ele>295.74000000000001</ele>
        <time>2025-04-23T10:47:10Z</time>
      </trkpt>
      <trkpt lat="47.674799999222159" lon="6.502202963456512">
        <ele>296.22000000000003</ele>
        <time>2025-04-23T10:47:11Z</time>
      </trkpt>
      <trkpt lat="47.674714000895619" lon="6.502097016200423">
        <ele>296.69999999999999</ele>
        <time>2025-04-23T10:47:12Z</time>
      </trkpt>
      <trkpt lat="47.674624985083938" lon="6.501986039802432">
        <ele>296.69999999999999</ele>
        <time>2025-04-23T10:47:13Z</time>
      </trkpt>
      <trkpt lat="47.674534041434526" lon="6.501874979585409">
        <ele>296.69999999999999</ele>
        <time>2025-04-23T10:47:14Z</time>
      </trkpt>
      <trkpt lat="47.673327969387174" lon="6.500386018306017">
        <ele>296.69999999999999</ele>
        <time>2025-04-23T10:47:27Z</time>
      </trkpt>
      <trkpt lat="47.672486007213593" lon="6.499332999810576">
        <ele>297.18000000000001</ele>
        <time>2025-04-23T10:47:33Z</time>
      </trkpt>
      <trkpt lat="47.670776015147567" lon="6.497581014409661">
        <ele>297.67000000000002</ele>
        <time>2025-04-23T10:47:43Z</time>
      </trkpt>
      <trkpt lat="47.667841007933021" lon="6.494814986363053">
        <ele>298.63</ele>
        <time>2025-04-23T10:48:00Z</time>
      </trkpt>
      <trkpt lat="47.666673995554447" lon="6.493606986477971">
        <ele>299.58999999999997</ele>
        <time>2025-04-23T10:48:07Z</time>
      </trkpt>
      <trkpt lat="47.665770007297397" lon="6.492064967751503">
        <ele>299.11000000000001</ele>
        <time>2025-04-23T10:48:14Z</time>
      </trkpt>
      <trkpt lat="47.664351034909487" lon="6.489614015445113">
        <ele>296.22000000000003</ele>
        <time>2025-04-23T10:48:27Z</time>
      </trkpt>
      <trkpt lat="47.662917980924249" lon="6.487103970721364">
        <ele>294.30000000000001</ele>
        <time>2025-04-23T10:48:40Z</time>
      </trkpt>
      <trkpt lat="47.661000033840537" lon="6.483705025166273">
        <ele>293.81999999999999</ele>
        <time>2025-04-23T10:48:57Z</time>
      </trkpt>
      <trkpt lat="47.659851964563131" lon="6.481232028454542">
        <ele>293.81999999999999</ele>
        <time>2025-04-23T10:49:09Z</time>
      </trkpt>
      <trkpt lat="47.659811982885003" lon="6.481049973517656">
        <ele>293.33999999999997</ele>
        <time>2025-04-23T10:49:10Z</time>
      </trkpt>
      <trkpt lat="47.659791028127074" lon="6.480897003784776">
        <ele>293.33999999999997</ele>
        <time>2025-04-23T10:49:11Z</time>
      </trkpt>
      <trkpt lat="47.659721961244941" lon="6.480774963274598">
        <ele>293.33999999999997</ele>
        <time>2025-04-23T10:49:12Z</time>
      </trkpt>
      <trkpt lat="47.65963202342391" lon="6.480705980211496">
        <ele>293.33999999999997</ele>
        <time>2025-04-23T10:49:13Z</time>
      </trkpt>
      <trkpt lat="47.659543007612228" lon="6.480616964399815">
        <ele>292.86000000000001</ele>
        <time>2025-04-23T10:49:15Z</time>
      </trkpt>
      <trkpt lat="47.658742032945156" lon="6.478995988145471">
        <ele>292.38</ele>
        <time>2025-04-23T10:49:23Z</time>
      </trkpt>
      <trkpt lat="47.657860005274415" lon="6.477119028568268">
        <ele>290.94</ele>
        <time>2025-04-23T10:49:34Z</time>
      </trkpt>
      <trkpt lat="47.656725011765957" lon="6.47474099881947">
        <ele>291.42000000000002</ele>
        <time>2025-04-23T10:49:48Z</time>
      </trkpt>
      <trkpt lat="47.655814988538623" lon="6.472824979573488">
        <ele>291.42000000000002</ele>
        <time>2025-04-23T10:49:59Z</time>
      </trkpt>
      <trkpt lat="47.654844028875232" lon="6.470759008079767">
        <ele>290.45999999999998</ele>
        <time>2025-04-23T10:50:08Z</time>
      </trkpt>
      <trkpt lat="47.654238017275929" lon="6.46883100271225">
        <ele>289.97000000000003</ele>
        <time>2025-04-23T10:50:15Z</time>
      </trkpt>
      <trkpt lat="47.654109019786119" lon="6.4666180126369">
        <ele>289.97000000000003</ele>
        <time>2025-04-23T10:50:22Z</time>
      </trkpt>
      <trkpt lat="47.654152018949389" lon="6.463080011308193">
        <ele>296.22000000000003</ele>
        <time>2025-04-23T10:50:33Z</time>
      </trkpt>
      <trkpt lat="47.653743987902999" lon="6.461417963728309">
        <ele>300.06999999999999</ele>
        <time>2025-04-23T10:50:39Z</time>
      </trkpt>
      <trkpt lat="47.653264962136745" lon="6.460237959399819">
        <ele>301.50999999999999</ele>
        <time>2025-04-23T10:50:46Z</time>
      </trkpt>
      <trkpt lat="47.652415037155151" lon="6.458403998985887">
        <ele>303.43000000000001</ele>
        <time>2025-04-23T10:50:59Z</time>
      </trkpt>
      <trkpt lat="47.651429995894432" lon="6.456247000023723">
        <ele>308.72000000000003</ele>
        <time>2025-04-23T10:51:14Z</time>
      </trkpt>
      <trkpt lat="47.650579987093806" lon="6.454400969669223">
        <ele>308.24000000000001</ele>
        <time>2025-04-23T10:51:27Z</time>
      </trkpt>
      <trkpt lat="47.649854030460119" lon="6.452837996184826">
        <ele>307.75999999999999</ele>
        <time>2025-04-23T10:51:38Z</time>
      </trkpt>
      <trkpt lat="47.648969991132617" lon="6.450948966667056">
        <ele>306.80000000000001</ele>
        <time>2025-04-23T10:51:51Z</time>
      </trkpt>
      <trkpt lat="47.648214027285576" lon="6.449307035654783">
        <ele>308.24000000000001</ele>
        <time>2025-04-23T10:52:02Z</time>
      </trkpt>
      <trkpt lat="47.647624025121331" lon="6.44811999052763">
        <ele>301.99000000000001</ele>
        <time>2025-04-23T10:52:11Z</time>
      </trkpt>
      <trkpt lat="47.647272991016507" lon="6.447371989488602">
        <ele>297.67000000000002</ele>
        <time>2025-04-23T10:52:19Z</time>
      </trkpt>
      <trkpt lat="47.647226974368095" lon="6.447283979505301">
        <ele>297.18000000000001</ele>
        <time>2025-04-23T10:52:20Z</time>
      </trkpt>
      <trkpt lat="47.647181041538715" lon="6.447197981178761">
        <ele>296.69999999999999</ele>
        <time>2025-04-23T10:52:21Z</time>
      </trkpt>
      <trkpt lat="47.646687012165785" lon="6.446299022063613">
        <ele>295.25999999999999</ele>
        <time>2025-04-23T10:52:31Z</time>
      </trkpt>
      <trkpt lat="47.646160963922739" lon="6.44541297107935">
        <ele>295.25999999999999</ele>
        <time>2025-04-23T10:52:40Z</time>
      </trkpt>
      <trkpt lat="47.646108996123075" lon="6.445342982187867">
        <ele>295.25999999999999</ele>
        <time>2025-04-23T10:52:41Z</time>
      </trkpt>
      <trkpt lat="47.645490998402238" lon="6.444605961441994">
        <ele>295.74000000000001</ele>
        <time>2025-04-23T10:52:49Z</time>
      </trkpt>
      <trkpt lat="47.645407011732459" lon="6.444515017792583">
        <ele>295.74000000000001</ele>
        <time>2025-04-23T10:52:50Z</time>
      </trkpt>
      <trkpt lat="47.645325036719441" lon="6.444426001980901">
        <ele>295.74000000000001</ele>
        <time>2025-04-23T10:52:51Z</time>
      </trkpt>
      <trkpt lat="47.645240966230631" lon="6.444334974512458">
        <ele>295.25999999999999</ele>
        <time>2025-04-23T10:52:52Z</time>
      </trkpt>
      <trkpt lat="47.645152034237981" lon="6.444239001721144">
        <ele>295.25999999999999</ele>
        <time>2025-04-23T10:52:53Z</time>
      </trkpt>
      <trkpt lat="47.64424704015255" lon="6.443351022899151">
        <ele>292.86000000000001</ele>
        <time>2025-04-23T10:53:02Z</time>
      </trkpt>
      <trkpt lat="47.643836997449398" lon="6.44298498518765">
        <ele>293.81999999999999</ele>
        <time>2025-04-23T10:53:06Z</time>
      </trkpt>
      <trkpt lat="47.643724009394646" lon="6.442927988246083">
        <ele>294.30000000000001</ele>
        <time>2025-04-23T10:53:07Z</time>
      </trkpt>
      <trkpt lat="47.643612027168274" lon="6.442871997132897">
        <ele>294.77999999999997</ele>
        <time>2025-04-23T10:53:08Z</time>
      </trkpt>
      <trkpt lat="47.643499039113522" lon="6.442816006019712">
        <ele>295.74000000000001</ele>
        <time>2025-04-23T10:53:09Z</time>
      </trkpt>
      <trkpt lat="47.643382027745247" lon="6.442776024341583">
        <ele>296.69999999999999</ele>
        <time>2025-04-23T10:53:10Z</time>
      </trkpt>
      <trkpt lat="47.641942016780376" lon="6.442434964701533">
        <ele>307.75999999999999</ele>
        <time>2025-04-23T10:53:22Z</time>
      </trkpt>
      <trkpt lat="47.640641983598471" lon="6.442189961671829">
        <ele>308.24000000000001</ele>
        <time>2025-04-23T10:53:32Z</time>
      </trkpt>
      <trkpt lat="47.639018995687366" lon="6.441925009712577">
        <ele>301.02999999999997</ele>
        <time>2025-04-23T10:53:40Z</time>
      </trkpt>
      <trkpt lat="47.635731026530266" lon="6.441386975347996">
        <ele>284.20999999999998</ele>
        <time>2025-04-23T10:53:54Z</time>
      </trkpt>
      <trkpt lat="47.633170019835234" lon="6.440880037844181">
        <ele>277.95999999999998</ele>
        <time>2025-04-23T10:54:06Z</time>
      </trkpt>
      <trkpt lat="47.631089966744184" lon="6.440522968769074">
        <ele>274.11000000000001</ele>
        <time>2025-04-23T10:54:16Z</time>
      </trkpt>
      <trkpt lat="47.628109026700258" lon="6.440072022378445">
        <ele>277.48000000000002</ele>
        <time>2025-04-23T10:54:30Z</time>
      </trkpt>
      <trkpt lat="47.624828014522791" lon="6.439575981348753">
        <ele>276.04000000000002</ele>
        <time>2025-04-23T10:54:45Z</time>
      </trkpt>
      <trkpt lat="47.624013964086771" lon="6.439453018829227">
        <ele>274.11000000000001</ele>
        <time>2025-04-23T10:54:51Z</time>
      </trkpt>
      <trkpt lat="47.623529992997646" lon="6.439346987754107">
        <ele>274.58999999999997</ele>
        <time>2025-04-23T10:54:55Z</time>
      </trkpt>
      <trkpt lat="47.623370988294482" lon="6.439292002469301">
        <ele>275.06999999999999</ele>
        <time>2025-04-23T10:54:56Z</time>
      </trkpt>
      <trkpt lat="47.621814971789718" lon="6.438422966748476">
        <ele>279.39999999999998</ele>
        <time>2025-04-23T10:55:05Z</time>
      </trkpt>
      <trkpt lat="47.620198018848896" lon="6.437018997967243">
        <ele>279.88</ele>
        <time>2025-04-23T10:55:14Z</time>
      </trkpt>
      <trkpt lat="47.618843000382185" lon="6.435951981693506">
        <ele>278.92000000000002</ele>
        <time>2025-04-23T10:55:22Z</time>
      </trkpt>
      <trkpt lat="47.616932010278106" lon="6.434856969863176">
        <ele>279.88</ele>
        <time>2025-04-23T10:55:31Z</time>
      </trkpt>
      <trkpt lat="47.615342969074845" lon="6.43370496109128">
        <ele>283.25</ele>
        <time>2025-04-23T10:55:39Z</time>
      </trkpt>
      <trkpt lat="47.613398032262921" lon="6.432399982586503">
        <ele>280.83999999999997</ele>
        <time>2025-04-23T10:55:48Z</time>
      </trkpt>
      <trkpt lat="47.610913971439004" lon="6.430856036022306">
        <ele>281.31999999999999</ele>
        <time>2025-04-23T10:56:00Z</time>
      </trkpt>
      <trkpt lat="47.608113996684551" lon="6.429092986509204">
        <ele>279.39999999999998</ele>
        <time>2025-04-23T10:56:13Z</time>
      </trkpt>
      <trkpt lat="47.606363017112017" lon="6.428794004023075">
        <ele>279.39999999999998</ele>
        <time>2025-04-23T10:56:20Z</time>
      </trkpt>
      <trkpt lat="47.604901967570186" lon="6.428957032039762">
        <ele>279.39999999999998</ele>
        <time>2025-04-23T10:56:26Z</time>
      </trkpt>
      <trkpt lat="47.603349974378943" lon="6.428659977391362">
        <ele>278.92000000000002</ele>
        <time>2025-04-23T10:56:33Z</time>
      </trkpt>
      <trkpt lat="47.60250398889184" lon="6.428598035126925">
        <ele>278.92000000000002</ele>
        <time>2025-04-23T10:56:37Z</time>
      </trkpt>
      <trkpt lat="47.602300979197025" lon="6.428672969341278">
        <ele>278.92000000000002</ele>
        <time>2025-04-23T10:56:38Z</time>
      </trkpt>
      <trkpt lat="47.602091012522578" lon="6.428802972659469">
        <ele>278.92000000000002</ele>
        <time>2025-04-23T10:56:39Z</time>
      </trkpt>
      <trkpt lat="47.60097797960043" lon="6.429437985643745">
        <ele>279.39999999999998</ele>
        <time>2025-04-23T10:56:44Z</time>
      </trkpt>
      <trkpt lat="47.60074102319777" lon="6.429491965100169">
        <ele>279.88</ele>
        <time>2025-04-23T10:56:45Z</time>
      </trkpt>
      <trkpt lat="47.60050599463284" lon="6.42951300367713">
        <ele>280.36000000000001</ele>
        <time>2025-04-23T10:56:46Z</time>
      </trkpt>
      <trkpt lat="47.600269038230181" lon="6.429484002292156">
        <ele>280.36000000000001</ele>
        <time>2025-04-23T10:56:47Z</time>
      </trkpt>
      <trkpt lat="47.600026968866587" lon="6.429416025057435">
        <ele>280.83999999999997</ele>
        <time>2025-04-23T10:56:48Z</time>
      </trkpt>
      <trkpt lat="47.599788000807166" lon="6.429344024509192">
        <ele>280.83999999999997</ele>
        <time>2025-04-23T10:56:49Z</time>
      </trkpt>
      <trkpt lat="47.597321961075068" lon="6.428339034318924">
        <ele>283.73000000000002</ele>
        <time>2025-04-23T10:57:00Z</time>
      </trkpt>
      <trkpt lat="47.595722023397684" lon="6.428095959126949">
        <ele>285.64999999999998</ele>
        <time>2025-04-23T10:57:07Z</time>
      </trkpt>
      <trkpt lat="47.593494029715657" lon="6.428499966859818">
        <ele>284.20999999999998</ele>
        <time>2025-04-23T10:57:17Z</time>
      </trkpt>
      <trkpt lat="47.592163989320397" lon="6.42899801954627">
        <ele>282.76999999999998</ele>
        <time>2025-04-23T10:57:23Z</time>
      </trkpt>
      <trkpt lat="47.591934995725751" lon="6.429007994011045">
        <ele>282.27999999999997</ele>
        <time>2025-04-23T10:57:24Z</time>
      </trkpt>
      <trkpt lat="47.591702984645963" lon="6.428993996232748">
        <ele>282.27999999999997</ele>
        <time>2025-04-23T10:57:25Z</time>
      </trkpt>
      <trkpt lat="47.591468039900064" lon="6.428978992626071">
        <ele>282.27999999999997</ele>
        <time>2025-04-23T10:57:26Z</time>
      </trkpt>
      <trkpt lat="47.591233011335135" lon="6.428929958492518">
        <ele>281.80000000000001</ele>
        <time>2025-04-23T10:57:27Z</time>
      </trkpt>
      <trkpt lat="47.589416988193989" lon="6.428892994299531">
        <ele>280.36000000000001</ele>
        <time>2025-04-23T10:57:35Z</time>
      </trkpt>
      <trkpt lat="47.58731103502214" lon="6.429375037550926">
        <ele>278.92000000000002</ele>
        <time>2025-04-23T10:57:45Z</time>
      </trkpt>
      <trkpt lat="47.586114015430212" lon="6.429044958204031">
        <ele>278.92000000000002</ele>
        <time>2025-04-23T10:57:51Z</time>
      </trkpt>
      <trkpt lat="47.585335001349449" lon="6.428780006244779">
        <ele>279.39999999999998</ele>
        <time>2025-04-23T10:57:55Z</time>
      </trkpt>
      <trkpt lat="47.585140960291028" lon="6.428741030395031">
        <ele>279.39999999999998</ele>
        <time>2025-04-23T10:57:56Z</time>
      </trkpt>
      <trkpt lat="47.584942979738116" lon="6.428800038993359">
        <ele>279.39999999999998</ele>
        <time>2025-04-23T10:57:57Z</time>
      </trkpt>
      <trkpt lat="47.584754973649979" lon="6.428873967379332">
        <ele>279.88</ele>
        <time>2025-04-23T10:57:58Z</time>
      </trkpt>
      <trkpt lat="47.584569985046983" lon="6.429005982354283">
        <ele>280.36000000000001</ele>
        <time>2025-04-23T10:57:59Z</time>
      </trkpt>
      <trkpt lat="47.584381978958845" lon="6.429140008985996">
        <ele>280.83999999999997</ele>
        <time>2025-04-23T10:58:00Z</time>
      </trkpt>
      <trkpt lat="47.584232026711106" lon="6.42934201285243">
        <ele>280.83999999999997</ele>
        <time>2025-04-23T10:58:01Z</time>
      </trkpt>
      <trkpt lat="47.584082996472716" lon="6.429575029760599">
        <ele>281.31999999999999</ele>
        <time>2025-04-23T10:58:02Z</time>
      </trkpt>
      <trkpt lat="47.583932960405946" lon="6.429811986163259">
        <ele>281.80000000000001</ele>
        <time>2025-04-23T10:58:03Z</time>
      </trkpt>
      <trkpt lat="47.583097033202648" lon="6.430942034348846">
        <ele>285.17000000000002</ele>
        <time>2025-04-23T10:58:08Z</time>
      </trkpt>
      <trkpt lat="47.582898968830705" lon="6.431107996031642">
        <ele>285.64999999999998</ele>
        <time>2025-04-23T10:58:09Z</time>
      </trkpt>
      <trkpt lat="47.582710040733218" lon="6.431229030713439">
        <ele>285.64999999999998</ele>
        <time>2025-04-23T10:58:10Z</time>
      </trkpt>
      <trkpt lat="47.582463026046753" lon="6.431323997676373">
        <ele>286.13</ele>
        <time>2025-04-23T10:58:11Z</time>
      </trkpt>
      <trkpt lat="47.582236966118217" lon="6.431409996002913">
        <ele>286.61000000000001</ele>
        <time>2025-04-23T10:58:12Z</time>
      </trkpt>
      <trkpt lat="47.580242995172739" lon="6.432194961234927">
        <ele>290.94</ele>
        <time>2025-04-23T10:58:21Z</time>
      </trkpt>
      <trkpt lat="47.578293029218912" lon="6.432977998629212">
        <ele>295.25999999999999</ele>
        <time>2025-04-23T10:58:30Z</time>
      </trkpt>
      <trkpt lat="47.575841993093491" lon="6.433963039889932">
        <ele>295.25999999999999</ele>
        <time>2025-04-23T10:58:41Z</time>
      </trkpt>
      <trkpt lat="47.573463963344693" lon="6.434918995946646">
        <ele>290.94</ele>
        <time>2025-04-23T10:58:52Z</time>
      </trkpt>
      <trkpt lat="47.572342967614532" lon="6.434925030916929">
        <ele>288.52999999999997</ele>
        <time>2025-04-23T10:58:57Z</time>
      </trkpt>
      <trkpt lat="47.569870976731181" lon="6.434100000187755">
        <ele>282.76999999999998</ele>
        <time>2025-04-23T10:59:08Z</time>
      </trkpt>
      <trkpt lat="47.568473964929581" lon="6.433019991964102">
        <ele>279.88</ele>
        <time>2025-04-23T10:59:15Z</time>
      </trkpt>
      <trkpt lat="47.56544197909534" lon="6.430384973064065">
        <ele>273.63</ele>
        <time>2025-04-23T10:59:31Z</time>
      </trkpt>
      <trkpt lat="47.563664009794593" lon="6.428483035415411">
        <ele>273.63</ele>
        <time>2025-04-23T10:59:41Z</time>
      </trkpt>
      <trkpt lat="47.561394022777677" lon="6.425728993490338">
        <ele>271.70999999999998</ele>
        <time>2025-04-23T10:59:54Z</time>
      </trkpt>
      <trkpt lat="47.560020983219147" lon="6.42409703694284">
        <ele>270.75</ele>
        <time>2025-04-23T11:00:03Z</time>
      </trkpt>
      <trkpt lat="47.558967964723706" lon="6.423207968473434">
        <ele>269.31</ele>
        <time>2025-04-23T11:00:11Z</time>
      </trkpt>
      <trkpt lat="47.55843797698617" lon="6.422789040952921">
        <ele>269.79000000000002</ele>
        <time>2025-04-23T11:00:16Z</time>
      </trkpt>
      <trkpt lat="47.558434037491679" lon="6.422584019601345">
        <ele>269.79000000000002</ele>
        <time>2025-04-23T11:00:17Z</time>
      </trkpt>
      <trkpt lat="47.558378968387842" lon="6.422386039048433">
        <ele>270.26999999999998</ele>
        <time>2025-04-23T11:00:18Z</time>
      </trkpt>
      <trkpt lat="47.558297999203205" lon="6.422291994094849">
        <ele>270.75</ele>
        <time>2025-04-23T11:00:19Z</time>
      </trkpt>
      <trkpt lat="47.55815701559186" lon="6.422245977446437">
        <ele>270.75</ele>
        <time>2025-04-23T11:00:20Z</time>
      </trkpt>
      <trkpt lat="47.558098006993532" lon="6.422238014638424">
        <ele>270.75</ele>
        <time>2025-04-23T11:00:21Z</time>
      </trkpt>
      <trkpt lat="47.557896003127098" lon="6.42216601409018">
        <ele>270.75</ele>
        <time>2025-04-23T11:00:22Z</time>
      </trkpt>
      <trkpt lat="47.5578130222857" lon="6.421988988295198">
        <ele>270.75</ele>
        <time>2025-04-23T11:00:23Z</time>
      </trkpt>
      <trkpt lat="47.557719983160496" lon="6.421792013570666">
        <ele>270.75</ele>
        <time>2025-04-23T11:00:25Z</time>
      </trkpt>
      <trkpt lat="47.556520029902458" lon="6.419339971616864">
        <ele>271.23000000000002</ele>
        <time>2025-04-23T11:00:34Z</time>
      </trkpt>
      <trkpt lat="47.554896958172321" lon="6.416284013539553">
        <ele>269.31</ele>
        <time>2025-04-23T11:00:46Z</time>
      </trkpt>
      <trkpt lat="47.553338008001447" lon="6.414504032582045">
        <ele>269.31</ele>
        <time>2025-04-23T11:00:55Z</time>
      </trkpt>
      <trkpt lat="47.551534976810217" lon="6.41331396996975">
        <ele>270.75</ele>
        <time>2025-04-23T11:01:04Z</time>
      </trkpt>
      <trkpt lat="47.549572018906474" lon="6.412827987223864">
        <ele>271.23000000000002</ele>
        <time>2025-04-23T11:01:13Z</time>
      </trkpt>
      <trkpt lat="47.547572012990713" lon="6.413070978596807">
        <ele>270.75</ele>
        <time>2025-04-23T11:01:22Z</time>
      </trkpt>
      <trkpt lat="47.545218961313367" lon="6.414003968238831">
        <ele>270.75</ele>
        <time>2025-04-23T11:01:33Z</time>
      </trkpt>
      <trkpt lat="47.542089996859431" lon="6.415239963680506">
        <ele>269.31</ele>
        <time>2025-04-23T11:01:47Z</time>
      </trkpt>
      <trkpt lat="47.539689000695944" lon="6.416188040748239">
        <ele>266.89999999999998</ele>
        <time>2025-04-23T11:01:58Z</time>
      </trkpt>
      <trkpt lat="47.536590965464711" lon="6.41743702813983">
        <ele>268.82999999999998</ele>
        <time>2025-04-23T11:02:13Z</time>
      </trkpt>
      <trkpt lat="47.534429021179676" lon="6.418303968384862">
        <ele>270.26999999999998</ele>
        <time>2025-04-23T11:02:24Z</time>
      </trkpt>
      <trkpt lat="47.5325489602983" lon="6.418795986101031">
        <ele>274.11000000000001</ele>
        <time>2025-04-23T11:02:33Z</time>
      </trkpt>
      <trkpt lat="47.530573010444641" lon="6.418800009414554">
        <ele>284.20999999999998</ele>
        <time>2025-04-23T11:02:42Z</time>
      </trkpt>
      <trkpt lat="47.527919970452785" lon="6.41872700303793">
        <ele>278.44</ele>
        <time>2025-04-23T11:02:54Z</time>
      </trkpt>
      <trkpt lat="47.525076996535063" lon="6.418613009154797">
        <ele>269.79000000000002</ele>
        <time>2025-04-23T11:03:07Z</time>
      </trkpt>
      <trkpt lat="47.522208960726857" lon="6.418485017493367">
        <ele>272.19</ele>
        <time>2025-04-23T11:03:20Z</time>
      </trkpt>
      <trkpt lat="47.520145000889897" lon="6.41836398281157">
        <ele>273.14999999999998</ele>
        <time>2025-04-23T11:03:30Z</time>
      </trkpt>
      <trkpt lat="47.517273025587201" lon="6.418244959786534">
        <ele>277.95999999999998</ele>
        <time>2025-04-23T11:03:43Z</time>
      </trkpt>
      <trkpt lat="47.515106974169612" lon="6.418183017522097">
        <ele>283.25</ele>
        <time>2025-04-23T11:03:53Z</time>
      </trkpt>
      <trkpt lat="47.512923991307616" lon="6.418374041095376">
        <ele>290.45999999999998</ele>
        <time>2025-04-23T11:04:03Z</time>
      </trkpt>
      <trkpt lat="47.510406989604235" lon="6.419004024937749">
        <ele>303.91000000000003</ele>
        <time>2025-04-23T11:04:15Z</time>
      </trkpt>
      <trkpt lat="47.50846398063004" lon="6.419205022975802">
        <ele>315.93000000000001</ele>
        <time>2025-04-23T11:04:24Z</time>
      </trkpt>
      <trkpt lat="47.507816981524229" lon="6.419017016887665">
        <ele>320.25999999999999</ele>
        <time>2025-04-23T11:04:27Z</time>
      </trkpt>
      <trkpt lat="47.505238959565759" lon="6.417876994237304">
        <ele>335.16000000000003</ele>
        <time>2025-04-23T11:04:39Z</time>
      </trkpt>
      <trkpt lat="47.503488985821605" lon="6.417109966278076">
        <ele>337.56</ele>
        <time>2025-04-23T11:04:47Z</time>
      </trkpt>
      <trkpt lat="47.502117035910487" lon="6.416083015501499">
        <ele>330.35000000000002</ele>
        <time>2025-04-23T11:04:54Z</time>
      </trkpt>
      <trkpt lat="47.501226961612701" lon="6.414629006758332">
        <ele>324.57999999999998</ele>
        <time>2025-04-23T11:05:00Z</time>
      </trkpt>
      <trkpt lat="47.500924039632082" lon="6.414134977385402">
        <ele>322.18000000000001</ele>
        <time>2025-04-23T11:05:02Z</time>
      </trkpt>
      <trkpt lat="47.500754976645112" lon="6.413924004882574">
        <ele>321.22000000000003</ele>
        <time>2025-04-23T11:05:03Z</time>
      </trkpt>
      <trkpt lat="47.499434994533658" lon="6.412645010277629">
        <ele>312.08999999999997</ele>
        <time>2025-04-23T11:05:10Z</time>
      </trkpt>
      <trkpt lat="47.498030019924045" lon="6.411162000149488">
        <ele>301.99000000000001</ele>
        <time>2025-04-23T11:05:19Z</time>
      </trkpt>
      <trkpt lat="47.497285958379507" lon="6.410278966650367">
        <ele>301.02999999999997</ele>
        <time>2025-04-23T11:05:26Z</time>
      </trkpt>
      <trkpt lat="47.496985970064998" lon="6.409759959205985">
        <ele>300.06999999999999</ele>
        <time>2025-04-23T11:05:30Z</time>
      </trkpt>
      <trkpt lat="47.496423041447997" lon="6.408722028136253">
        <ele>295.74000000000001</ele>
        <time>2025-04-23T11:05:38Z</time>
      </trkpt>
      <trkpt lat="47.495956001803279" lon="6.407923987135291">
        <ele>290.45999999999998</ele>
        <time>2025-04-23T11:05:48Z</time>
      </trkpt>
      <trkpt lat="47.495909985154867" lon="6.407832959666848">
        <ele>290.45999999999998</ele>
        <time>2025-04-23T11:05:49Z</time>
      </trkpt>
      <trkpt lat="47.495860029011965" lon="6.407736986875534">
        <ele>289.97000000000003</ele>
        <time>2025-04-23T11:05:50Z</time>
      </trkpt>
      <trkpt lat="47.495804037898779" lon="6.407651994377375">
        <ele>289.97000000000003</ele>
        <time>2025-04-23T11:05:51Z</time>
      </trkpt>
      <trkpt lat="47.495695995166898" lon="6.407487038522959">
        <ele>289.49000000000001</ele>
        <time>2025-04-23T11:05:53Z</time>
      </trkpt>
      <trkpt lat="47.495583007112145" lon="6.407313030213118">
        <ele>288.52999999999997</ele>
        <time>2025-04-23T11:05:55Z</time>
      </trkpt>
      <trkpt lat="47.494838023558259" lon="6.406386997550726">
        <ele>285.64999999999998</ele>
        <time>2025-04-23T11:06:06Z</time>
      </trkpt>
      <trkpt lat="47.494101002812386" lon="6.405765982344747">
        <ele>289.49000000000001</ele>
        <time>2025-04-23T11:06:16Z</time>
      </trkpt>
      <trkpt lat="47.494013998657465" lon="6.4057079795748">
        <ele>290.94</ele>
        <time>2025-04-23T11:06:17Z</time>
      </trkpt>
      <trkpt lat="47.493918025866151" lon="6.405657017603517">
        <ele>291.89999999999998</ele>
        <time>2025-04-23T11:06:18Z</time>
      </trkpt>
      <trkpt lat="47.492967015132308" lon="6.405304977670312">
        <ele>298.63</ele>
        <time>2025-04-23T11:06:25Z</time>
      </trkpt>
      <trkpt lat="47.491853982210159" lon="6.404792005196214">
        <ele>302.94999999999999</ele>
        <time>2025-04-23T11:06:31Z</time>
      </trkpt>
      <trkpt lat="47.490269970148802" lon="6.403361968696117">
        <ele>303.91000000000003</ele>
        <time>2025-04-23T11:06:39Z</time>
      </trkpt>
      <trkpt lat="47.488408014178276" lon="6.401601014658809">
        <ele>312.56999999999999</ele>
        <time>2025-04-23T11:06:49Z</time>
      </trkpt>
      <trkpt lat="47.486969009041786" lon="6.39966999180615">
        <ele>315.93000000000001</ele>
        <time>2025-04-23T11:06:58Z</time>
      </trkpt>
      <trkpt lat="47.485838960856199" lon="6.397171011194587">
        <ele>314.49000000000001</ele>
        <time>2025-04-23T11:07:07Z</time>
      </trkpt>
      <trkpt lat="47.484897002577782" lon="6.394586032256484">
        <ele>315.44999999999999</ele>
        <time>2025-04-23T11:07:16Z</time>
      </trkpt>
      <trkpt lat="47.484164005145431" lon="6.391916982829571">
        <ele>311.60000000000002</ele>
        <time>2025-04-23T11:07:25Z</time>
      </trkpt>
      <trkpt lat="47.483236966654658" lon="6.387956030666828">
        <ele>291.42000000000002</ele>
        <time>2025-04-23T11:07:38Z</time>
      </trkpt>
      <trkpt lat="47.482828013598919" lon="6.386238997802138">
        <ele>285.17000000000002</ele>
        <time>2025-04-23T11:07:45Z</time>
      </trkpt>
      <trkpt lat="47.482326021417975" lon="6.384262964129448">
        <ele>278.92000000000002</ele>
        <time>2025-04-23T11:07:55Z</time>
      </trkpt>
      <trkpt lat="47.481835009530187" lon="6.383125958964229">
        <ele>275.06999999999999</ele>
        <time>2025-04-23T11:08:04Z</time>
      </trkpt>
      <trkpt lat="47.48169201426208" lon="6.38278498314321">
        <ele>274.58999999999997</ele>
        <time>2025-04-23T11:08:07Z</time>
      </trkpt>
      <trkpt lat="47.481659995391965" lon="6.382665038108826">
        <ele>274.58999999999997</ele>
        <time>2025-04-23T11:08:08Z</time>
      </trkpt>
      <trkpt lat="47.481631999835372" lon="6.382541991770268">
        <ele>274.58999999999997</ele>
        <time>2025-04-23T11:08:09Z</time>
      </trkpt>
      <trkpt lat="47.481623031198978" lon="6.38239799067378">
        <ele>274.58999999999997</ele>
        <time>2025-04-23T11:08:10Z</time>
      </trkpt>
      <trkpt lat="47.481623031198978" lon="6.382232028990984">
        <ele>274.58999999999997</ele>
        <time>2025-04-23T11:08:11Z</time>
      </trkpt>
      <trkpt lat="47.481623031198978" lon="6.382090961560607">
        <ele>274.11000000000001</ele>
        <time>2025-04-23T11:08:12Z</time>
      </trkpt>
      <trkpt lat="47.481596963480115" lon="6.381889963522553">
        <ele>273.63</ele>
        <time>2025-04-23T11:08:13Z</time>
      </trkpt>
      <trkpt lat="47.481565028429031" lon="6.381716961041093">
        <ele>273.63</ele>
        <time>2025-04-23T11:08:14Z</time>
      </trkpt>
      <trkpt lat="47.481515994295478" lon="6.381554016843438">
        <ele>273.63</ele>
        <time>2025-04-23T11:08:15Z</time>
      </trkpt>
      <trkpt lat="47.481466038152575" lon="6.381388977169991">
        <ele>273.63</ele>
        <time>2025-04-23T11:08:16Z</time>
      </trkpt>
      <trkpt lat="47.481431001797318" lon="6.381214968860149">
        <ele>273.63</ele>
        <time>2025-04-23T11:08:17Z</time>
      </trkpt>
      <trkpt lat="47.481386996805668" lon="6.380954040214419">
        <ele>273.14999999999998</ele>
        <time>2025-04-23T11:08:18Z</time>
      </trkpt>
      <trkpt lat="47.481376016512513" lon="6.380851026624441">
        <ele>273.14999999999998</ele>
        <time>2025-04-23T11:08:19Z</time>
      </trkpt>
      <trkpt lat="47.481367969885468" lon="6.380661008879542">
        <ele>273.14999999999998</ele>
        <time>2025-04-23T11:08:20Z</time>
      </trkpt>
      <trkpt lat="47.481374004855752" lon="6.380461016669869">
        <ele>273.63</ele>
        <time>2025-04-23T11:08:21Z</time>
      </trkpt>
      <trkpt lat="47.481379033997655" lon="6.380251972004771">
        <ele>274.11000000000001</ele>
        <time>2025-04-23T11:08:22Z</time>
      </trkpt>
      <trkpt lat="47.481444999575615" lon="6.377761960029602">
        <ele>275.56</ele>
        <time>2025-04-23T11:08:32Z</time>
      </trkpt>
      <trkpt lat="47.481409041211009" lon="6.376965008676052">
        <ele>274.58999999999997</ele>
        <time>2025-04-23T11:08:35Z</time>
      </trkpt>
      <trkpt lat="47.481332011520863" lon="6.376712964847684">
        <ele>273.63</ele>
        <time>2025-04-23T11:08:36Z</time>
      </trkpt>
      <trkpt lat="47.481250958517194" lon="6.376450024545193">
        <ele>273.14999999999998</ele>
        <time>2025-04-23T11:08:37Z</time>
      </trkpt>
      <trkpt lat="47.480178996920586" lon="6.373668992891908">
        <ele>267.38</ele>
        <time>2025-04-23T11:08:47Z</time>
      </trkpt>
      <trkpt lat="47.479044003412127" lon="6.370802968740463">
        <ele>264.98000000000002</ele>
        <time>2025-04-23T11:08:57Z</time>
      </trkpt>
      <trkpt lat="47.478887010365725" lon="6.370232999324799">
        <ele>264.5</ele>
        <time>2025-04-23T11:08:59Z</time>
      </trkpt>
      <trkpt lat="47.478826995939016" lon="6.369940973818302">
        <ele>264.5</ele>
        <time>2025-04-23T11:09:00Z</time>
      </trkpt>
      <trkpt lat="47.478821966797113" lon="6.369648026302457">
        <ele>264.5</ele>
        <time>2025-04-23T11:09:01Z</time>
      </trkpt>
      <trkpt lat="47.478848034515977" lon="6.369368992745876">
        <ele>264.5</ele>
        <time>2025-04-23T11:09:02Z</time>
      </trkpt>
      <trkpt lat="47.478874018415809" lon="6.369093982502818">
        <ele>264.5</ele>
        <time>2025-04-23T11:09:03Z</time>
      </trkpt>
      <trkpt lat="47.478954987600446" lon="6.368837999179959">
        <ele>264.5</ele>
        <time>2025-04-23T11:09:04Z</time>
      </trkpt>
      <trkpt lat="47.479047020897269" lon="6.368568018078804">
        <ele>264.5</ele>
        <time>2025-04-23T11:09:05Z</time>
      </trkpt>
      <trkpt lat="47.479140982031822" lon="6.368294013664126">
        <ele>264.5</ele>
        <time>2025-04-23T11:09:06Z</time>
      </trkpt>
      <trkpt lat="47.479585977271199" lon="6.366659039631486">
        <ele>262.57999999999998</ele>
        <time>2025-04-23T11:09:12Z</time>
      </trkpt>
      <trkpt lat="47.479793010279536" lon="6.365499990060926">
        <ele>260.64999999999998</ele>
        <time>2025-04-23T11:09:16Z</time>
      </trkpt>
      <trkpt lat="47.47982301749289" lon="6.365213999524713">
        <ele>260.17000000000002</ele>
        <time>2025-04-23T11:09:17Z</time>
      </trkpt>
      <trkpt lat="47.479939023032784" lon="6.363480035215616">
        <ele>257.76999999999998</ele>
        <time>2025-04-23T11:09:24Z</time>
      </trkpt>
      <trkpt lat="47.479997025802732" lon="6.361849000677466">
        <ele>256.81</ele>
        <time>2025-04-23T11:09:33Z</time>
      </trkpt>
      <trkpt lat="47.480022003874183" lon="6.359349014237523">
        <ele>257.29000000000002</ele>
        <time>2025-04-23T11:09:47Z</time>
      </trkpt>
      <trkpt lat="47.479988979175687" lon="6.359180035069585">
        <ele>257.29000000000002</ele>
        <time>2025-04-23T11:09:48Z</time>
      </trkpt>
      <trkpt lat="47.479946985840797" lon="6.359013989567757">
        <ele>257.29000000000002</ele>
        <time>2025-04-23T11:09:49Z</time>
      </trkpt>
      <trkpt lat="47.479897029697895" lon="6.358852973207831">
        <ele>257.76999999999998</ele>
        <time>2025-04-23T11:09:50Z</time>
      </trkpt>
      <trkpt lat="47.479841038584709" lon="6.35869799181819">
        <ele>257.76999999999998</ele>
        <time>2025-04-23T11:09:51Z</time>
      </trkpt>
      <trkpt lat="47.479553958401084" lon="6.357812024652958">
        <ele>258.73000000000002</ele>
        <time>2025-04-23T11:09:58Z</time>
      </trkpt>
      <trkpt lat="47.479548007249832" lon="6.357728959992528">
        <ele>258.73000000000002</ele>
        <time>2025-04-23T11:09:59Z</time>
      </trkpt>
      <trkpt lat="47.479541972279549" lon="6.357651008293033">
        <ele>258.73000000000002</ele>
        <time>2025-04-23T11:10:00Z</time>
      </trkpt>
      <trkpt lat="47.479601986706257" lon="6.357510024681687">
        <ele>258.73000000000002</ele>
        <time>2025-04-23T11:10:01Z</time>
      </trkpt>
      <trkpt lat="47.479563010856509" lon="6.357393013313413">
        <ele>258.73000000000002</ele>
        <time>2025-04-23T11:10:02Z</time>
      </trkpt>
      <trkpt lat="47.479668958112597" lon="6.357447998598218">
        <ele>258.73000000000002</ele>
        <time>2025-04-23T11:10:03Z</time>
      </trkpt>
      <trkpt lat="47.479726038873196" lon="6.357381027191877">
        <ele>258.73000000000002</ele>
        <time>2025-04-23T11:10:04Z</time>
      </trkpt>
      <trkpt lat="47.479970036074519" lon="6.357095036655664">
        <ele>259.20999999999998</ele>
        <time>2025-04-23T11:10:08Z</time>
      </trkpt>
      <trkpt lat="47.480003982782364" lon="6.3569809589535">
        <ele>259.20999999999998</ele>
        <time>2025-04-23T11:10:09Z</time>
      </trkpt>
      <trkpt lat="47.480033989995718" lon="6.356878029182553">
        <ele>258.73000000000002</ele>
        <time>2025-04-23T11:10:10Z</time>
      </trkpt>
      <trkpt lat="47.480077994987369" lon="6.356727993115783">
        <ele>258.73000000000002</ele>
        <time>2025-04-23T11:10:11Z</time>
      </trkpt>
      <trkpt lat="47.480084029957652" lon="6.356664961203933">
        <ele>258.25</ele>
        <time>2025-04-23T11:10:12Z</time>
      </trkpt>
      <trkpt lat="47.480158964172006" lon="6.355908997356892">
        <ele>257.29000000000002</ele>
        <time>2025-04-23T11:10:19Z</time>
      </trkpt>
      <trkpt lat="47.48016701079905" lon="6.355820987373591">
        <ele>256.81</ele>
        <time>2025-04-23T11:10:20Z</time>
      </trkpt>
      <trkpt lat="47.480174973607063" lon="6.355744041502476">
        <ele>256.81</ele>
        <time>2025-04-23T11:10:21Z</time>
      </trkpt>
      <trkpt lat="47.480181008577347" lon="6.355587970465422">
        <ele>256.32999999999998</ele>
        <time>2025-04-23T11:10:23Z</time>
      </trkpt>
      <trkpt lat="47.480126023292542" lon="6.35498003102839">
        <ele>254.88999999999999</ele>
        <time>2025-04-23T11:10:34Z</time>
      </trkpt>
      <trkpt lat="47.480067014694214" lon="6.354800993576646">
        <ele>255.37</ele>
        <time>2025-04-23T11:10:39Z</time>
      </trkpt>
      <trkpt lat="47.480036001652479" lon="6.354750031605363">
        <ele>255.37</ele>
        <time>2025-04-23T11:10:40Z</time>
      </trkpt>
      <trkpt lat="47.480004988610744" lon="6.354698985815048">
        <ele>255.37</ele>
        <time>2025-04-23T11:10:41Z</time>
      </trkpt>
      <trkpt lat="47.479969030246139" lon="6.354640983045101">
        <ele>255.37</ele>
        <time>2025-04-23T11:10:42Z</time>
      </trkpt>
      <trkpt lat="47.479907004162669" lon="6.354538975283504">
        <ele>254.88999999999999</ele>
        <time>2025-04-23T11:10:43Z</time>
      </trkpt>
      <trkpt lat="47.479894012212753" lon="6.354533024132252">
        <ele>254.88999999999999</ele>
        <time>2025-04-23T11:10:44Z</time>
      </trkpt>
      <trkpt lat="47.479843972250819" lon="6.354507962241769">
        <ele>254.88999999999999</ele>
        <time>2025-04-23T11:10:45Z</time>
      </trkpt>
      <trkpt lat="47.479453962296247" lon="6.354312999173999">
        <ele>256.32999999999998</ele>
        <time>2025-04-23T11:10:53Z</time>
      </trkpt>
      <trkpt lat="47.479400988668203" lon="6.354287015274167">
        <ele>256.32999999999998</ele>
        <time>2025-04-23T11:10:54Z</time>
      </trkpt>
      <trkpt lat="47.47909102588892" lon="6.354132033884525">
        <ele>257.29000000000002</ele>
        <time>2025-04-23T11:11:00Z</time>
      </trkpt>
      <trkpt lat="47.479034028947353" lon="6.354106971994042">
        <ele>257.76999999999998</ele>
        <time>2025-04-23T11:11:01Z</time>
      </trkpt>
      <trkpt lat="47.478974014520645" lon="6.354081993922591">
        <ele>257.76999999999998</ele>
        <time>2025-04-23T11:11:02Z</time>
      </trkpt>
      <trkpt lat="47.478911988437176" lon="6.354055004194379">
        <ele>257.76999999999998</ele>
        <time>2025-04-23T11:11:03Z</time>
      </trkpt>
      <trkpt lat="47.478851974010468" lon="6.354029020294547">
        <ele>258.25</ele>
        <time>2025-04-23T11:11:04Z</time>
      </trkpt>
      <trkpt lat="47.478791959583759" lon="6.354003036394715">
        <ele>258.25</ele>
        <time>2025-04-23T11:11:05Z</time>
      </trkpt>
      <trkpt lat="47.478729011490941" lon="6.353976968675852">
        <ele>258.73000000000002</ele>
        <time>2025-04-23T11:11:06Z</time>
      </trkpt>
      <trkpt lat="47.47866497375071" lon="6.353948973119259">
        <ele>258.73000000000002</ele>
        <time>2025-04-23T11:11:07Z</time>
      </trkpt>
      <trkpt lat="47.478269012644887" lon="6.353747975081205">
        <ele>260.64999999999998</ele>
        <time>2025-04-23T11:11:13Z</time>
      </trkpt>
      <trkpt lat="47.478207992389798" lon="6.353695001453161">
        <ele>260.17000000000002</ele>
        <time>2025-04-23T11:11:14Z</time>
      </trkpt>
      <trkpt lat="47.478145966306329" lon="6.353642027825117">
        <ele>260.64999999999998</ele>
        <time>2025-04-23T11:11:15Z</time>
      </trkpt>
      <trkpt lat="47.477900963276625" lon="6.353414040058851">
        <ele>261.13999999999999</ele>
        <time>2025-04-23T11:11:19Z</time>
      </trkpt>
      <trkpt lat="47.47788998298347" lon="6.353401970118284">
        <ele>261.13999999999999</ele>
        <time>2025-04-23T11:11:20Z</time>
      </trkpt>
      <trkpt lat="47.477827034890652" lon="6.353266015648842">
        <ele>261.62</ele>
        <time>2025-04-23T11:11:21Z</time>
      </trkpt>
      <trkpt lat="47.477789986878633" lon="6.353185968473554">
        <ele>262.10000000000002</ele>
        <time>2025-04-23T11:11:22Z</time>
      </trkpt>
      <trkpt lat="47.477756040170789" lon="6.353103993460536">
        <ele>262.10000000000002</ele>
        <time>2025-04-23T11:11:23Z</time>
      </trkpt>
      <trkpt lat="47.477732989937067" lon="6.353011038154364">
        <ele>262.57999999999998</ele>
        <time>2025-04-23T11:11:24Z</time>
      </trkpt>
      <trkpt lat="47.477711029350758" lon="6.352910036221147">
        <ele>262.57999999999998</ele>
        <time>2025-04-23T11:11:25Z</time>
      </trkpt>
      <trkpt lat="47.477477006614208" lon="6.351700024679303">
        <ele>263.06</ele>
        <time>2025-04-23T11:11:34Z</time>
      </trkpt>
      <trkpt lat="47.477426966652274" lon="6.351540014147759">
        <ele>263.06</ele>
        <time>2025-04-23T11:11:35Z</time>
      </trkpt>
      <trkpt lat="47.476791031658649" lon="6.349991038441658">
        <ele>261.13999999999999</ele>
        <time>2025-04-23T11:11:45Z</time>
      </trkpt>
      <trkpt lat="47.476547034457326" lon="6.349440012127161">
        <ele>259.69</ele>
        <time>2025-04-23T11:11:49Z</time>
      </trkpt>
      <trkpt lat="47.476506968960166" lon="6.349342027679086">
        <ele>259.69</ele>
        <time>2025-04-23T11:11:50Z</time>
      </trkpt>
      <trkpt lat="47.475993996486068" lon="6.348121035844088">
        <ele>259.69</ele>
        <time>2025-04-23T11:12:01Z</time>
      </trkpt>
      <trkpt lat="47.475513964891434" lon="6.346985958516598">
        <ele>258.25</ele>
        <time>2025-04-23T11:12:09Z</time>
      </trkpt>
      <trkpt lat="47.474792031571269" lon="6.3451830111444">
        <ele>255.37</ele>
        <time>2025-04-23T11:12:20Z</time>
      </trkpt>
      <trkpt lat="47.473925007507205" lon="6.343033974990249">
        <ele>251.52000000000001</ele>
        <time>2025-04-23T11:12:29Z</time>
      </trkpt>
      <trkpt lat="47.472610976547003" lon="6.339754974469543">
        <ele>252.96000000000001</ele>
        <time>2025-04-23T11:12:41Z</time>
      </trkpt>
      <trkpt lat="47.471112962812185" lon="6.336099039763212">
        <ele>260.64999999999998</ele>
        <time>2025-04-23T11:12:55Z</time>
      </trkpt>
      <trkpt lat="47.469641016796231" lon="6.332494989037514">
        <ele>273.14999999999998</ele>
        <time>2025-04-23T11:13:08Z</time>
      </trkpt>
      <trkpt lat="47.468154989182949" lon="6.328798988834024">
        <ele>276.51999999999998</ele>
        <time>2025-04-23T11:13:21Z</time>
      </trkpt>
      <trkpt lat="47.466614982113242" lon="6.324968039989471">
        <ele>276.51999999999998</ele>
        <time>2025-04-23T11:13:35Z</time>
      </trkpt>
      <trkpt lat="47.465480994433165" lon="6.322269989177585">
        <ele>276.04000000000002</ele>
        <time>2025-04-23T11:13:45Z</time>
      </trkpt>
      <trkpt lat="47.465347973629832" lon="6.322029009461403">
        <ele>276.51999999999998</ele>
        <time>2025-04-23T11:13:46Z</time>
      </trkpt>
      <trkpt lat="47.465189974755049" lon="6.321825999766588">
        <ele>277</ele>
        <time>2025-04-23T11:13:47Z</time>
      </trkpt>
      <trkpt lat="47.465032981708646" lon="6.321630030870438">
        <ele>277</ele>
        <time>2025-04-23T11:13:48Z</time>
      </trkpt>
      <trkpt lat="47.464872971177101" lon="6.321430038660765">
        <ele>277.48000000000002</ele>
        <time>2025-04-23T11:13:49Z</time>
      </trkpt>
      <trkpt lat="47.463635969907045" lon="6.320130005478859">
        <ele>279.39999999999998</ele>
        <time>2025-04-23T11:13:56Z</time>
      </trkpt>
      <trkpt lat="47.46342902071774" lon="6.320027997717261">
        <ele>279.88</ele>
        <time>2025-04-23T11:13:57Z</time>
      </trkpt>
      <trkpt lat="47.463211007416248" lon="6.319936970248818">
        <ele>279.88</ele>
        <time>2025-04-23T11:13:58Z</time>
      </trkpt>
      <trkpt lat="47.462982013821602" lon="6.31989598274231">
        <ele>279.39999999999998</ele>
        <time>2025-04-23T11:13:59Z</time>
      </trkpt>
      <trkpt lat="47.46274396777153" lon="6.319859018549323">
        <ele>279.39999999999998</ele>
        <time>2025-04-23T11:14:00Z</time>
      </trkpt>
      <trkpt lat="47.461628001183271" lon="6.319586019963026">
        <ele>279.39999999999998</ele>
        <time>2025-04-23T11:14:05Z</time>
      </trkpt>
      <trkpt lat="47.461435971781611" lon="6.319430032745004">
        <ele>279.39999999999998</ele>
        <time>2025-04-23T11:14:06Z</time>
      </trkpt>
      <trkpt lat="47.461244026198983" lon="6.319273039698601">
        <ele>279.39999999999998</ele>
        <time>2025-04-23T11:14:07Z</time>
      </trkpt>
      <trkpt lat="47.461072029545903" lon="6.31908000446856">
        <ele>280.36000000000001</ele>
        <time>2025-04-23T11:14:08Z</time>
      </trkpt>
      <trkpt lat="47.46091403067112" lon="6.318846987560391">
        <ele>280.83999999999997</ele>
        <time>2025-04-23T11:14:09Z</time>
      </trkpt>
      <trkpt lat="47.460763994604349" lon="6.318605002015829">
        <ele>281.31999999999999</ele>
        <time>2025-04-23T11:14:10Z</time>
      </trkpt>
      <trkpt lat="47.460644971579313" lon="6.318323034793139">
        <ele>281.80000000000001</ele>
        <time>2025-04-23T11:14:11Z</time>
      </trkpt>
      <trkpt lat="47.460567019879818" lon="6.318024974316359">
        <ele>281.80000000000001</ele>
        <time>2025-04-23T11:14:12Z</time>
      </trkpt>
      <trkpt lat="47.460498958826065" lon="6.317714005708695">
        <ele>282.27999999999997</ele>
        <time>2025-04-23T11:14:13Z</time>
      </trkpt>
      <trkpt lat="47.460003001615405" lon="6.315515013411641">
        <ele>285.17000000000002</ele>
        <time>2025-04-23T11:14:20Z</time>
      </trkpt>
      <trkpt lat="47.459908034652472" lon="6.315228017047048">
        <ele>285.17000000000002</ele>
        <time>2025-04-23T11:14:21Z</time>
      </trkpt>
      <trkpt lat="47.459812983870506" lon="6.314942026510835">
        <ele>285.64999999999998</ele>
        <time>2025-04-23T11:14:22Z</time>
      </trkpt>
      <trkpt lat="47.459697984158993" lon="6.314688976854086">
        <ele>285.64999999999998</ele>
        <time>2025-04-23T11:14:23Z</time>
      </trkpt>
      <trkpt lat="47.459548031911254" lon="6.314464006572962">
        <ele>286.13</ele>
        <time>2025-04-23T11:14:24Z</time>
      </trkpt>
      <trkpt lat="47.459391038864851" lon="6.314239036291838">
        <ele>286.13</ele>
        <time>2025-04-23T11:14:25Z</time>
      </trkpt>
      <trkpt lat="47.459210995584726" lon="6.31405002437532">
        <ele>286.61000000000001</ele>
        <time>2025-04-23T11:14:26Z</time>
      </trkpt>
      <trkpt lat="47.457722034305334" lon="6.312494007870555">
        <ele>285.17000000000002</ele>
        <time>2025-04-23T11:14:34Z</time>
      </trkpt>
      <trkpt lat="47.456357963383198" lon="6.311122979968786">
        <ele>280.83999999999997</ele>
        <time>2025-04-23T11:14:42Z</time>
      </trkpt>
      <trkpt lat="47.456182027235627" lon="6.310981996357441">
        <ele>281.31999999999999</ele>
        <time>2025-04-23T11:14:43Z</time>
      </trkpt>
      <trkpt lat="47.455983962863684" lon="6.310897003859282">
        <ele>281.31999999999999</ele>
        <time>2025-04-23T11:14:44Z</time>
      </trkpt>
      <trkpt lat="47.455781036987901" lon="6.310821985825896">
        <ele>281.80000000000001</ele>
        <time>2025-04-23T11:14:45Z</time>
      </trkpt>
      <trkpt lat="47.45449298992753" lon="6.310575976967812">
        <ele>284.20999999999998</ele>
        <time>2025-04-23T11:14:51Z</time>
      </trkpt>
      <trkpt lat="47.454304983839393" lon="6.310456031933427">
        <ele>284.69</ele>
        <time>2025-04-23T11:14:52Z</time>
      </trkpt>
      <trkpt lat="47.454121001064777" lon="6.310324016958475">
        <ele>285.17000000000002</ele>
        <time>2025-04-23T11:14:53Z</time>
      </trkpt>
      <trkpt lat="47.453379034996033" lon="6.309804003685713">
        <ele>287.56999999999999</ele>
        <time>2025-04-23T11:14:57Z</time>
      </trkpt>
      <trkpt lat="47.453177031129599" lon="6.30973300896585">
        <ele>288.05000000000001</ele>
        <time>2025-04-23T11:14:58Z</time>
      </trkpt>
      <trkpt lat="47.45296698063612" lon="6.309685986489058">
        <ele>289.00999999999999</ele>
        <time>2025-04-23T11:14:59Z</time>
      </trkpt>
      <trkpt lat="47.452762965112925" lon="6.309670982882381">
        <ele>289.49000000000001</ele>
        <time>2025-04-23T11:15:00Z</time>
      </trkpt>
      <trkpt lat="47.452532965689898" lon="6.309720017015934">
        <ele>289.97000000000003</ele>
        <time>2025-04-23T11:15:01Z</time>
      </trkpt>
      <trkpt lat="47.452305983752012" lon="6.309775002300739">
        <ele>290.45999999999998</ele>
        <time>2025-04-23T11:15:02Z</time>
      </trkpt>
      <trkpt lat="47.452076990157366" lon="6.309854965656996">
        <ele>290.94</ele>
        <time>2025-04-23T11:15:03Z</time>
      </trkpt>
      <trkpt lat="47.4507109913975" lon="6.31014397367835">
        <ele>292.86000000000001</ele>
        <time>2025-04-23T11:15:09Z</time>
      </trkpt>
      <trkpt lat="47.449581027030945" lon="6.310178004205227">
        <ele>294.30000000000001</ele>
        <time>2025-04-23T11:15:14Z</time>
      </trkpt>
      <trkpt lat="47.449358990415931" lon="6.310245981439948">
        <ele>294.77999999999997</ele>
        <time>2025-04-23T11:15:15Z</time>
      </trkpt>
      <trkpt lat="47.44761697947979" lon="6.310672033578157">
        <ele>306.31999999999999</ele>
        <time>2025-04-23T11:15:23Z</time>
      </trkpt>
      <trkpt lat="47.446619030088186" lon="6.310783009976149">
        <ele>312.08999999999997</ele>
        <time>2025-04-23T11:15:28Z</time>
      </trkpt>
      <trkpt lat="47.446421971544623" lon="6.310749985277653">
        <ele>313.05000000000001</ele>
        <time>2025-04-23T11:15:29Z</time>
      </trkpt>
      <trkpt lat="47.446223990991712" lon="6.310677984729409">
        <ele>313.52999999999997</ele>
        <time>2025-04-23T11:15:30Z</time>
      </trkpt>
      <trkpt lat="47.446031039580703" lon="6.310590980574489">
        <ele>314.49000000000001</ele>
        <time>2025-04-23T11:15:31Z</time>
      </trkpt>
      <trkpt lat="47.445843033492565" lon="6.310467012226582">
        <ele>315.44999999999999</ele>
        <time>2025-04-23T11:15:32Z</time>
      </trkpt>
      <trkpt lat="47.445658966898918" lon="6.310344971716404">
        <ele>316.41000000000003</ele>
        <time>2025-04-23T11:15:33Z</time>
      </trkpt>
      <trkpt lat="47.442581970244646" lon="6.308243963867426">
        <ele>312.56999999999999</ele>
        <time>2025-04-23T11:15:49Z</time>
      </trkpt>
      <trkpt lat="47.441441025584936" lon="6.307379035279155">
        <ele>305.83999999999997</ele>
        <time>2025-04-23T11:15:55Z</time>
      </trkpt>
      <trkpt lat="47.441275985911489" lon="6.307178037241101">
        <ele>304.38999999999999</ele>
        <time>2025-04-23T11:15:56Z</time>
      </trkpt>
      <trkpt lat="47.441133996471763" lon="6.306930016726255">
        <ele>303.43000000000001</ele>
        <time>2025-04-23T11:15:57Z</time>
      </trkpt>
      <trkpt lat="47.440992007032037" lon="6.306672021746635">
        <ele>301.99000000000001</ele>
        <time>2025-04-23T11:15:58Z</time>
      </trkpt>
      <trkpt lat="47.44087197817862" lon="6.306388964876533">
        <ele>301.02999999999997</ele>
        <time>2025-04-23T11:15:59Z</time>
      </trkpt>
      <trkpt lat="47.440697969868779" lon="6.305766021832824">
        <ele>298.63</ele>
        <time>2025-04-23T11:16:01Z</time>
      </trkpt>
      <trkpt lat="47.440639967098832" lon="6.30543502047658">
        <ele>297.18000000000001</ele>
        <time>2025-04-23T11:16:02Z</time>
      </trkpt>
      <trkpt lat="47.440594034269452" lon="6.30511399358511">
        <ele>296.22000000000003</ele>
        <time>2025-04-23T11:16:03Z</time>
      </trkpt>
      <trkpt lat="47.440585987642407" lon="6.30479397252202">
        <ele>295.25999999999999</ele>
        <time>2025-04-23T11:16:04Z</time>
      </trkpt>
      <trkpt lat="47.440577019006014" lon="6.304479986429215">
        <ele>294.77999999999997</ele>
        <time>2025-04-23T11:16:05Z</time>
      </trkpt>
      <trkpt lat="47.440597973763943" lon="6.304179998114705">
        <ele>294.77999999999997</ele>
        <time>2025-04-23T11:16:06Z</time>
      </trkpt>
      <trkpt lat="47.440629992634058" lon="6.303879003971815">
        <ele>295.25999999999999</ele>
        <time>2025-04-23T11:16:07Z</time>
      </trkpt>
      <trkpt lat="47.440671985968947" lon="6.303591001778841">
        <ele>295.74000000000001</ele>
        <time>2025-04-23T11:16:08Z</time>
      </trkpt>
      <trkpt lat="47.441179007291794" lon="6.300417026504874">
        <ele>301.50999999999999</ele>
        <time>2025-04-23T11:16:19Z</time>
      </trkpt>
      <trkpt lat="47.441294007003307" lon="6.299471966922283">
        <ele>301.50999999999999</ele>
        <time>2025-04-23T11:16:22Z</time>
      </trkpt>
      <trkpt lat="47.441369025036693" lon="6.299160998314619">
        <ele>301.99000000000001</ele>
        <time>2025-04-23T11:16:23Z</time>
      </trkpt>
      <trkpt lat="47.441761968657374" lon="6.297457041218877">
        <ele>305.83999999999997</ele>
        <time>2025-04-23T11:16:29Z</time>
      </trkpt>
      <trkpt lat="47.441798010841012" lon="6.297196028754115">
        <ele>305.83999999999997</ele>
        <time>2025-04-23T11:16:30Z</time>
      </trkpt>
      <trkpt lat="47.441818965598941" lon="6.29690601490438">
        <ele>305.36000000000001</ele>
        <time>2025-04-23T11:16:31Z</time>
      </trkpt>
      <trkpt lat="47.441820977255702" lon="6.295072976499796">
        <ele>301.99000000000001</ele>
        <time>2025-04-23T11:16:37Z</time>
      </trkpt>
      <trkpt lat="47.441785018891096" lon="6.294784974306822">
        <ele>301.02999999999997</ele>
        <time>2025-04-23T11:16:38Z</time>
      </trkpt>
      <trkpt lat="47.441717963665724" lon="6.294497977942228">
        <ele>300.55000000000001</ele>
        <time>2025-04-23T11:16:39Z</time>
      </trkpt>
      <trkpt lat="47.441647974774241" lon="6.29420000128448">
        <ele>300.06999999999999</ele>
        <time>2025-04-23T11:16:40Z</time>
      </trkpt>
      <trkpt lat="47.441531969234347" lon="6.293960027396679">
        <ele>299.58999999999997</ele>
        <time>2025-04-23T11:16:41Z</time>
      </trkpt>
      <trkpt lat="47.44140800088644" lon="6.29370303824544">
        <ele>299.11000000000001</ele>
        <time>2025-04-23T11:16:42Z</time>
      </trkpt>
      <trkpt lat="47.441256958991289" lon="6.293486030772328">
        <ele>298.63</ele>
        <time>2025-04-23T11:16:43Z</time>
      </trkpt>
      <trkpt lat="47.441087979823351" lon="6.293282015249133">
        <ele>297.67000000000002</ele>
        <time>2025-04-23T11:16:44Z</time>
      </trkpt>
      <trkpt lat="47.440911959856749" lon="6.293098032474518">
        <ele>296.69999999999999</ele>
        <time>2025-04-23T11:16:45Z</time>
      </trkpt>
      <trkpt lat="47.440704004839063" lon="6.292972974479199">
        <ele>296.22000000000003</ele>
        <time>2025-04-23T11:16:46Z</time>
      </trkpt>
      <trkpt lat="47.440491020679474" lon="6.29284598864615">
        <ele>295.74000000000001</ele>
        <time>2025-04-23T11:16:47Z</time>
      </trkpt>
      <trkpt lat="47.440267978236079" lon="6.29278002306819">
        <ele>295.74000000000001</ele>
        <time>2025-04-23T11:16:48Z</time>
      </trkpt>
      <trkpt lat="47.440037978813052" lon="6.29274096339941">
        <ele>295.74000000000001</ele>
        <time>2025-04-23T11:16:49Z</time>
      </trkpt>
      <trkpt lat="47.439799010753632" lon="6.2927380297333">
        <ele>295.74000000000001</ele>
        <time>2025-04-23T11:16:50Z</time>
      </trkpt>
      <trkpt lat="47.436760989949107" lon="6.292680026963353">
        <ele>291.89999999999998</ele>
        <time>2025-04-23T11:17:04Z</time>
      </trkpt>
      <trkpt lat="47.436362011358142" lon="6.292626969516277">
        <ele>290.94</ele>
        <time>2025-04-23T11:17:05Z</time>
      </trkpt>
      <trkpt lat="47.436180040240288" lon="6.292547006160021">
        <ele>289.97000000000003</ele>
        <time>2025-04-23T11:17:06Z</time>
      </trkpt>
      <trkpt lat="47.435995973646641" lon="6.292466036975384">
        <ele>289.49000000000001</ele>
        <time>2025-04-23T11:17:07Z</time>
      </trkpt>
      <trkpt lat="47.4352209828794" lon="6.29213503561914">
        <ele>288.52999999999997</ele>
        <time>2025-04-23T11:17:11Z</time>
      </trkpt>
      <trkpt lat="47.435030965134501" lon="6.292102010920644">
        <ele>288.52999999999997</ele>
        <time>2025-04-23T11:17:12Z</time>
      </trkpt>
      <trkpt lat="47.434848994016647" lon="6.292069992050529">
        <ele>288.52999999999997</ele>
        <time>2025-04-23T11:17:13Z</time>
      </trkpt>
      <trkpt lat="47.43468496017158" lon="6.292068986222148">
        <ele>288.52999999999997</ele>
        <time>2025-04-23T11:17:14Z</time>
      </trkpt>
      <trkpt lat="47.434537019580603" lon="6.292096981778741">
        <ele>289.00999999999999</ele>
        <time>2025-04-23T11:17:15Z</time>
      </trkpt>
      <trkpt lat="47.434407016262412" lon="6.292121959850192">
        <ele>289.00999999999999</ele>
        <time>2025-04-23T11:17:16Z</time>
      </trkpt>
      <trkpt lat="47.434196965768933" lon="6.292164037004113">
        <ele>289.97000000000003</ele>
        <time>2025-04-23T11:17:18Z</time>
      </trkpt>
      <trkpt lat="47.433805027976632" lon="6.292327987030149">
        <ele>289.97000000000003</ele>
        <time>2025-04-23T11:17:22Z</time>
      </trkpt>
      <trkpt lat="47.43360998108983" lon="6.292390013113618">
        <ele>289.97000000000003</ele>
        <time>2025-04-23T11:17:24Z</time>
      </trkpt>
      <trkpt lat="47.43352297693491" lon="6.292378026992083">
        <ele>289.49000000000001</ele>
        <time>2025-04-23T11:17:25Z</time>
      </trkpt>
      <trkpt lat="47.433459023013711" lon="6.29230703227222">
        <ele>289.00999999999999</ele>
        <time>2025-04-23T11:17:26Z</time>
      </trkpt>
      <trkpt lat="47.433420969173312" lon="6.29222497344017">
        <ele>288.52999999999997</ele>
        <time>2025-04-23T11:17:27Z</time>
      </trkpt>
      <trkpt lat="47.43339498527348" lon="6.29209597595036">
        <ele>288.05000000000001</ele>
        <time>2025-04-23T11:17:28Z</time>
      </trkpt>
      <trkpt lat="47.433398002758622" lon="6.291978964582086">
        <ele>287.56999999999999</ele>
        <time>2025-04-23T11:17:29Z</time>
      </trkpt>
      <trkpt lat="47.433420969173312" lon="6.291820965707302">
        <ele>286.61000000000001</ele>
        <time>2025-04-23T11:17:30Z</time>
      </trkpt>
      <trkpt lat="47.433444019407034" lon="6.291667995974422">
        <ele>286.13</ele>
        <time>2025-04-23T11:17:31Z</time>
      </trkpt>
      <trkpt lat="47.433532029390335" lon="6.291076987981796">
        <ele>284.69</ele>
        <time>2025-04-23T11:17:35Z</time>
      </trkpt>
      <trkpt lat="47.433536974713206" lon="6.290939021855593">
        <ele>284.20999999999998</ele>
        <time>2025-04-23T11:17:36Z</time>
      </trkpt>
      <trkpt lat="47.433528006076813" lon="6.290766019374132">
        <ele>283.73000000000002</ele>
        <time>2025-04-23T11:17:37Z</time>
      </trkpt>
      <trkpt lat="47.433506967499852" lon="6.290598968043923">
        <ele>283.25</ele>
        <time>2025-04-23T11:17:38Z</time>
      </trkpt>
      <trkpt lat="47.433485006913543" lon="6.290428983047605">
        <ele>282.76999999999998</ele>
        <time>2025-04-23T11:17:39Z</time>
      </trkpt>
      <trkpt lat="47.4333939794451" lon="6.289711995050311">
        <ele>280.83999999999997</ele>
        <time>2025-04-23T11:17:43Z</time>
      </trkpt>
      <trkpt lat="47.433347962796688" lon="6.289549972862005">
        <ele>280.36000000000001</ele>
        <time>2025-04-23T11:17:44Z</time>
      </trkpt>
      <trkpt lat="47.433278979733586" lon="6.289372025057674">
        <ele>279.39999999999998</ele>
        <time>2025-04-23T11:17:45Z</time>
      </trkpt>
      <trkpt lat="47.433171020820737" lon="6.289231963455677">
        <ele>278.44</ele>
        <time>2025-04-23T11:17:46Z</time>
      </trkpt>
      <trkpt lat="47.433059038594365" lon="6.289086034521461">
        <ele>277.95999999999998</ele>
        <time>2025-04-23T11:17:47Z</time>
      </trkpt>
      <trkpt lat="47.432943033054471" lon="6.288933986797929">
        <ele>277.48000000000002</ele>
        <time>2025-04-23T11:17:48Z</time>
      </trkpt>
      <trkpt lat="47.431703014299273" lon="6.287297001108527">
        <ele>270.75</ele>
        <time>2025-04-23T11:17:57Z</time>
      </trkpt>
      <trkpt lat="47.430925006046891" lon="6.286134012043476">
        <ele>267.86000000000001</ele>
        <time>2025-04-23T11:18:02Z</time>
      </trkpt>
      <trkpt lat="47.430798020213842" lon="6.285856990143657">
        <ele>267.38</ele>
        <time>2025-04-23T11:18:03Z</time>
      </trkpt>
      <trkpt lat="47.430706992745399" lon="6.285560019314289">
        <ele>266.89999999999998</ele>
        <time>2025-04-23T11:18:04Z</time>
      </trkpt>
      <trkpt lat="47.430635998025537" lon="6.285235974937677">
        <ele>267.38</ele>
        <time>2025-04-23T11:18:05Z</time>
      </trkpt>
      <trkpt lat="47.430563997477293" lon="6.284904973581433">
        <ele>267.38</ele>
        <time>2025-04-23T11:18:06Z</time>
      </trkpt>
      <trkpt lat="47.429835023358464" lon="6.281551038846374">
        <ele>263.54000000000002</ele>
        <time>2025-04-23T11:18:16Z</time>
      </trkpt>
      <trkpt lat="47.429067995399237" lon="6.27799803391099">
        <ele>260.17000000000002</ele>
        <time>2025-04-23T11:18:27Z</time>
      </trkpt>
      <trkpt lat="47.428133999928832" lon="6.273602982982993">
        <ele>256.81</ele>
        <time>2025-04-23T11:18:41Z</time>
      </trkpt>
      <trkpt lat="47.427873993292451" lon="6.272270008921623">
        <ele>258.73000000000002</ele>
        <time>2025-04-23T11:18:47Z</time>
      </trkpt>
      <trkpt lat="47.42782898247242" lon="6.272034980356693">
        <ele>259.20999999999998</ele>
        <time>2025-04-23T11:18:48Z</time>
      </trkpt>
      <trkpt lat="47.427839962765574" lon="6.271873963996768">
        <ele>259.69</ele>
        <time>2025-04-23T11:18:49Z</time>
      </trkpt>
      <trkpt lat="47.427854966372252" lon="6.271654022857547">
        <ele>260.17000000000002</ele>
        <time>2025-04-23T11:18:50Z</time>
      </trkpt>
      <trkpt lat="47.427883967757225" lon="6.271225037053227">
        <ele>261.13999999999999</ele>
        <time>2025-04-23T11:18:52Z</time>
      </trkpt>
      <trkpt lat="47.427897965535522" lon="6.271015992388129">
        <ele>261.62</ele>
        <time>2025-04-23T11:18:53Z</time>
      </trkpt>
      <trkpt lat="47.42791498079896" lon="6.270768977701664">
        <ele>262.10000000000002</ele>
        <time>2025-04-23T11:18:54Z</time>
      </trkpt>
      <trkpt lat="47.427723035216331" lon="6.269403984770179">
        <ele>260.64999999999998</ele>
        <time>2025-04-23T11:19:02Z</time>
      </trkpt>
      <trkpt lat="47.427477026358247" lon="6.267749983817339">
        <ele>257.76999999999998</ele>
        <time>2025-04-23T11:19:12Z</time>
      </trkpt>
      <trkpt lat="47.427393039688468" lon="6.267285039648414">
        <ele>257.29000000000002</ele>
        <time>2025-04-23T11:19:15Z</time>
      </trkpt>
      <trkpt lat="47.427366971969604" lon="6.267143972218037">
        <ele>256.81</ele>
        <time>2025-04-23T11:19:16Z</time>
      </trkpt>
      <trkpt lat="47.427335036918521" lon="6.266970969736576">
        <ele>256.81</ele>
        <time>2025-04-23T11:19:17Z</time>
      </trkpt>
      <trkpt lat="47.427295977249742" lon="6.266883965581656">
        <ele>256.81</ele>
        <time>2025-04-23T11:19:18Z</time>
      </trkpt>
      <trkpt lat="47.427243003621697" lon="6.266767038032413">
        <ele>256.81</ele>
        <time>2025-04-23T11:19:19Z</time>
      </trkpt>
      <trkpt lat="47.427176032215357" lon="6.266684979200363">
        <ele>256.81</ele>
        <time>2025-04-23T11:19:20Z</time>
      </trkpt>
      <trkpt lat="47.427107971161604" lon="6.266620019450784">
        <ele>256.32999999999998</ele>
        <time>2025-04-23T11:19:21Z</time>
      </trkpt>
      <trkpt lat="47.427039993926883" lon="6.266554975882173">
        <ele>256.32999999999998</ele>
        <time>2025-04-23T11:19:22Z</time>
      </trkpt>
      <trkpt lat="47.426976040005684" lon="6.266494039446116">
        <ele>256.32999999999998</ele>
        <time>2025-04-23T11:19:23Z</time>
      </trkpt>
      <trkpt lat="47.426918037235737" lon="6.266437964513898">
        <ele>256.32999999999998</ele>
        <time>2025-04-23T11:19:24Z</time>
      </trkpt>
      <trkpt lat="47.42658301256597" lon="6.266231015324593">
        <ele>255.37</ele>
        <time>2025-04-23T11:19:29Z</time>
      </trkpt>
      <trkpt lat="47.42647698149085" lon="6.266197990626097">
        <ele>254.88999999999999</ele>
        <time>2025-04-23T11:19:30Z</time>
      </trkpt>
      <trkpt lat="47.426434988155961" lon="6.266193967312574">
        <ele>253.93000000000001</ele>
        <time>2025-04-23T11:19:31Z</time>
      </trkpt>
      <trkpt lat="47.426357958465815" lon="6.266186004504561">
        <ele>252.96000000000001</ele>
        <time>2025-04-23T11:19:32Z</time>
      </trkpt>
      <trkpt lat="47.426277995109558" lon="6.266178041696549">
        <ele>252</ele>
        <time>2025-04-23T11:19:33Z</time>
      </trkpt>
      <trkpt lat="47.426208006218076" lon="6.266128001734614">
        <ele>251.52000000000001</ele>
        <time>2025-04-23T11:19:34Z</time>
      </trkpt>
      <trkpt lat="47.426142040640116" lon="6.266067987307906">
        <ele>251.03999999999999</ele>
        <time>2025-04-23T11:19:35Z</time>
      </trkpt>
      <trkpt lat="47.426074985414743" lon="6.266006967052817">
        <ele>250.08000000000001</ele>
        <time>2025-04-23T11:19:36Z</time>
      </trkpt>
      <trkpt lat="47.426001979038119" lon="6.265941001474857">
        <ele>249.59999999999999</ele>
        <time>2025-04-23T11:19:37Z</time>
      </trkpt>
      <trkpt lat="47.425931990146637" lon="6.265877969563007">
        <ele>249.59999999999999</ele>
        <time>2025-04-23T11:19:38Z</time>
      </trkpt>
      <trkpt lat="47.425863007083535" lon="6.26581602729857">
        <ele>249.59999999999999</ele>
        <time>2025-04-23T11:19:39Z</time>
      </trkpt>
      <trkpt lat="47.425794024020433" lon="6.265746960416436">
        <ele>249.59999999999999</ele>
        <time>2025-04-23T11:19:40Z</time>
      </trkpt>
      <trkpt lat="47.425044011324644" lon="6.264826040714979">
        <ele>247.19999999999999</ele>
        <time>2025-04-23T11:19:51Z</time>
      </trkpt>
      <trkpt lat="47.424919037148356" lon="6.264629987999797">
        <ele>246.22999999999999</ele>
        <time>2025-04-23T11:19:53Z</time>
      </trkpt>
      <trkpt lat="47.424872014671564" lon="6.264513982459903">
        <ele>245.75</ele>
        <time>2025-04-23T11:19:54Z</time>
      </trkpt>
      <trkpt lat="47.424844019114971" lon="6.264379033818841">
        <ele>245.27000000000001</ele>
        <time>2025-04-23T11:19:55Z</time>
      </trkpt>
      <trkpt lat="47.424815017729998" lon="6.26422799192369">
        <ele>244.31</ele>
        <time>2025-04-23T11:19:56Z</time>
      </trkpt>
      <trkpt lat="47.424781993031502" lon="6.264051971957088">
        <ele>243.83000000000001</ele>
        <time>2025-04-23T11:19:57Z</time>
      </trkpt>
      <trkpt lat="47.42477604188025" lon="6.263911994174123">
        <ele>243.34999999999999</ele>
        <time>2025-04-23T11:19:58Z</time>
      </trkpt>
      <trkpt lat="47.424714015796781" lon="6.262329993769527">
        <ele>241.91</ele>
        <time>2025-04-23T11:20:07Z</time>
      </trkpt>
      <trkpt lat="47.424632040783763" lon="6.261113025248051">
        <ele>243.34999999999999</ele>
        <time>2025-04-23T11:20:13Z</time>
      </trkpt>
      <trkpt lat="47.424589041620493" lon="6.260898029431701">
        <ele>243.83000000000001</ele>
        <time>2025-04-23T11:20:14Z</time>
      </trkpt>
      <trkpt lat="47.424525003880262" lon="6.260690996423364">
        <ele>244.31</ele>
        <time>2025-04-23T11:20:15Z</time>
      </trkpt>
      <trkpt lat="47.424441017210484" lon="6.260495027527213">
        <ele>245.27000000000001</ele>
        <time>2025-04-23T11:20:16Z</time>
      </trkpt>
      <trkpt lat="47.424315037205815" lon="6.260353038087487">
        <ele>246.22999999999999</ele>
        <time>2025-04-23T11:20:17Z</time>
      </trkpt>
      <trkpt lat="47.424169024452567" lon="6.260238038375974">
        <ele>246.72</ele>
        <time>2025-04-23T11:20:18Z</time>
      </trkpt>
      <trkpt lat="47.424001973122358" lon="6.260153967887163">
        <ele>247.68000000000001</ele>
        <time>2025-04-23T11:20:19Z</time>
      </trkpt>
      <trkpt lat="47.423823019489646" lon="6.260065035894513">
        <ele>248.63999999999999</ele>
        <time>2025-04-23T11:20:20Z</time>
      </trkpt>
      <trkpt lat="47.423645993694663" lon="6.259954981505871">
        <ele>249.59999999999999</ele>
        <time>2025-04-23T11:20:21Z</time>
      </trkpt>
      <trkpt lat="47.423481959849596" lon="6.259792037308216">
        <ele>251.03999999999999</ele>
        <time>2025-04-23T11:20:22Z</time>
      </trkpt>
      <trkpt lat="47.423343993723392" lon="6.259581986814737">
        <ele>252</ele>
        <time>2025-04-23T11:20:23Z</time>
      </trkpt>
      <trkpt lat="47.423200998455286" lon="6.259343018755317">
        <ele>252.96000000000001</ele>
        <time>2025-04-23T11:20:24Z</time>
      </trkpt>
      <trkpt lat="47.423053979873657" lon="6.259099021553993">
        <ele>253.93000000000001</ele>
        <time>2025-04-23T11:20:25Z</time>
      </trkpt>
      <trkpt lat="47.422905033454299" lon="6.258851001039147">
        <ele>255.37</ele>
        <time>2025-04-23T11:20:26Z</time>
      </trkpt>
      <trkpt lat="47.421895014122128" lon="6.257457006722689">
        <ele>262.57999999999998</ele>
        <time>2025-04-23T11:20:32Z</time>
      </trkpt>
      <trkpt lat="47.421090016141534" lon="6.255900990217924">
        <ele>269.31</ele>
        <time>2025-04-23T11:20:38Z</time>
      </trkpt>
      <trkpt lat="47.420709980651736" lon="6.253922022879124">
        <ele>271.70999999999998</ele>
        <time>2025-04-23T11:20:44Z</time>
      </trkpt>
      <trkpt lat="47.420516023412347" lon="6.250317972153425">
        <ele>268.35000000000002</ele>
        <time>2025-04-23T11:20:54Z</time>
      </trkpt>
      <trkpt lat="47.420455003157258" lon="6.249697962775827">
        <ele>267.38</ele>
        <time>2025-04-23T11:20:56Z</time>
      </trkpt>
      <trkpt lat="47.420392977073789" lon="6.249380959197879">
        <ele>267.38</ele>
        <time>2025-04-23T11:20:57Z</time>
      </trkpt>
      <trkpt lat="47.420297004282475" lon="6.249055992811918">
        <ele>266.89999999999998</ele>
        <time>2025-04-23T11:20:58Z</time>
      </trkpt>
      <trkpt lat="47.419430986046791" lon="6.246232967823744">
        <ele>260.17000000000002</ele>
        <time>2025-04-23T11:21:07Z</time>
      </trkpt>
      <trkpt lat="47.41932101547718" lon="6.246047979220748">
        <ele>259.69</ele>
        <time>2025-04-23T11:21:08Z</time>
      </trkpt>
      <trkpt lat="47.419196963310242" lon="6.245868019759655">
        <ele>258.73000000000002</ele>
        <time>2025-04-23T11:21:09Z</time>
      </trkpt>
      <trkpt lat="47.419049022719264" lon="6.245719995349646">
        <ele>258.25</ele>
        <time>2025-04-23T11:21:10Z</time>
      </trkpt>
      <trkpt lat="47.418888006359339" lon="6.245584962889552">
        <ele>257.29000000000002</ele>
        <time>2025-04-23T11:21:11Z</time>
      </trkpt>
      <trkpt lat="47.418566979467869" lon="6.245369967073202">
        <ele>255.37</ele>
        <time>2025-04-23T11:21:13Z</time>
      </trkpt>
      <trkpt lat="47.418411998078227" lon="6.245311964303255">
        <ele>254.88999999999999</ele>
        <time>2025-04-23T11:21:14Z</time>
      </trkpt>
      <trkpt lat="47.418251987546682" lon="6.245292015373707">
        <ele>253.93000000000001</ele>
        <time>2025-04-23T11:21:15Z</time>
      </trkpt>
      <trkpt lat="47.417534999549389" lon="6.245267037302256">
        <ele>249.12</ele>
        <time>2025-04-23T11:21:21Z</time>
      </trkpt>
      <trkpt lat="47.417197041213512" lon="6.245258990675211">
        <ele>245.27000000000001</ele>
        <time>2025-04-23T11:21:27Z</time>
      </trkpt>
      <trkpt lat="47.417148007079959" lon="6.24525798484683">
        <ele>242.38999999999999</ele>
        <time>2025-04-23T11:21:33Z</time>
      </trkpt>
      <trkpt lat="47.417113976553082" lon="6.24525798484683">
        <ele>242.38999999999999</ele>
        <time>2025-04-23T11:21:34Z</time>
      </trkpt>
      <trkpt lat="47.417056979611516" lon="6.245193025097251">
        <ele>241.91</ele>
        <time>2025-04-23T11:21:35Z</time>
      </trkpt>
      <trkpt lat="47.416904009878635" lon="6.245263013988733">
        <ele>241.43000000000001</ele>
        <time>2025-04-23T11:21:37Z</time>
      </trkpt>
      <trkpt lat="47.416811976581812" lon="6.245268965139985">
        <ele>240.94999999999999</ele>
        <time>2025-04-23T11:21:38Z</time>
      </trkpt>
      <trkpt lat="47.416616007685661" lon="6.245282962918282">
        <ele>241.43000000000001</ele>
        <time>2025-04-23T11:21:40Z</time>
      </trkpt>
      <trkpt lat="47.415703972801566" lon="6.245350018143654">
        <ele>241.91</ele>
        <time>2025-04-23T11:21:47Z</time>
      </trkpt>
      <trkpt lat="47.414041003212333" lon="6.245502987876535">
        <ele>239.50999999999999</ele>
        <time>2025-04-23T11:21:55Z</time>
      </trkpt>
      <trkpt lat="47.413401966914535" lon="6.245483038946986">
        <ele>238.53999999999999</ele>
        <time>2025-04-23T11:21:58Z</time>
      </trkpt>
      <trkpt lat="47.4119290150702" lon="6.24474098905921">
        <ele>238.06</ele>
        <time>2025-04-23T11:22:05Z</time>
      </trkpt>
      <trkpt lat="47.41049000993371" lon="6.243051029741764">
        <ele>237.58000000000001</ele>
        <time>2025-04-23T11:22:13Z</time>
      </trkpt>
      <trkpt lat="47.409632038325071" lon="6.241872031241655">
        <ele>235.18000000000001</ele>
        <time>2025-04-23T11:22:19Z</time>
      </trkpt>
      <trkpt lat="47.409518966451287" lon="6.241727024316788">
        <ele>235.18000000000001</ele>
        <time>2025-04-23T11:22:20Z</time>
      </trkpt>
      <trkpt lat="47.409416036680341" lon="6.241595009341836">
        <ele>234.69999999999999</ele>
        <time>2025-04-23T11:22:21Z</time>
      </trkpt>
      <trkpt lat="47.409292990341783" lon="6.241522002965212">
        <ele>234.22</ele>
        <time>2025-04-23T11:22:22Z</time>
      </trkpt>
      <trkpt lat="47.409153012558818" lon="6.241484032943845">
        <ele>233.25999999999999</ele>
        <time>2025-04-23T11:22:23Z</time>
      </trkpt>
      <trkpt lat="47.409003982320428" lon="6.241457965224981">
        <ele>233.25999999999999</ele>
        <time>2025-04-23T11:22:24Z</time>
      </trkpt>
      <trkpt lat="47.408852018415928" lon="6.241465006023645">
        <ele>233.25999999999999</ele>
        <time>2025-04-23T11:22:25Z</time>
      </trkpt>
      <trkpt lat="47.407873012125492" lon="6.241641025990248">
        <ele>232.78</ele>
        <time>2025-04-23T11:22:33Z</time>
      </trkpt>
      <trkpt lat="47.406948991119862" lon="6.241808999329805">
        <ele>232.30000000000001</ele>
        <time>2025-04-23T11:22:44Z</time>
      </trkpt>
      <trkpt lat="47.406305009499192" lon="6.241868007928133">
        <ele>231.81</ele>
        <time>2025-04-23T11:22:52Z</time>
      </trkpt>
      <trkpt lat="47.406216999515891" lon="6.24181897379458">
        <ele>232.30000000000001</ele>
        <time>2025-04-23T11:22:53Z</time>
      </trkpt>
      <trkpt lat="47.406133012846112" lon="6.241762982681394">
        <ele>232.78</ele>
        <time>2025-04-23T11:22:54Z</time>
      </trkpt>
      <trkpt lat="47.406051037833095" lon="6.241706991568208">
        <ele>233.25999999999999</ele>
        <time>2025-04-23T11:22:55Z</time>
      </trkpt>
      <trkpt lat="47.405971996486187" lon="6.241654017940164">
        <ele>234.22</ele>
        <time>2025-04-23T11:22:56Z</time>
      </trkpt>
      <trkpt lat="47.405424993485212" lon="6.241284962743521">
        <ele>239.50999999999999</ele>
        <time>2025-04-23T11:23:03Z</time>
      </trkpt>
      <trkpt lat="47.404471971094608" lon="6.240548025816679">
        <ele>248.16</ele>
        <time>2025-04-23T11:23:11Z</time>
      </trkpt>
      <trkpt lat="47.403478967025876" lon="6.239737998694181">
        <ele>255.37</ele>
        <time>2025-04-23T11:23:17Z</time>
      </trkpt>
      <trkpt lat="47.401559008285403" lon="6.238401001319289">
        <ele>267.38</ele>
        <time>2025-04-23T11:23:26Z</time>
      </trkpt>
      <trkpt lat="47.399891009554267" lon="6.237487960606813">
        <ele>275.06999999999999</ele>
        <time>2025-04-23T11:23:34Z</time>
      </trkpt>
      <trkpt lat="47.399119958281517" lon="6.237183026969433">
        <ele>279.88</ele>
        <time>2025-04-23T11:23:38Z</time>
      </trkpt>
      <trkpt lat="47.398939998820424" lon="6.237111026421189">
        <ele>281.31999999999999</ele>
        <time>2025-04-23T11:23:39Z</time>
      </trkpt>
      <trkpt lat="47.397980019450188" lon="6.236730990931392">
        <ele>288.05000000000001</ele>
        <time>2025-04-23T11:23:46Z</time>
      </trkpt>
      <trkpt lat="47.397865019738674" lon="6.23668497428298">
        <ele>289.49000000000001</ele>
        <time>2025-04-23T11:23:48Z</time>
      </trkpt>
      <trkpt lat="47.397828977555037" lon="6.236670976504684">
        <ele>290.45999999999998</ele>
        <time>2025-04-23T11:23:49Z</time>
      </trkpt>
      <trkpt lat="47.397803999483585" lon="6.236661002039909">
        <ele>291.42000000000002</ele>
        <time>2025-04-23T11:23:50Z</time>
      </trkpt>
      <trkpt lat="47.397782038897276" lon="6.236653039231896">
        <ele>291.89999999999998</ele>
        <time>2025-04-23T11:23:51Z</time>
      </trkpt>
      <trkpt lat="47.397758988663554" lon="6.236643986776471">
        <ele>292.86000000000001</ele>
        <time>2025-04-23T11:23:52Z</time>
      </trkpt>
      <trkpt lat="47.397691011428833" lon="6.236612973734736">
        <ele>293.81999999999999</ele>
        <time>2025-04-23T11:23:56Z</time>
      </trkpt>
      <trkpt lat="47.397691011428833" lon="6.236612973734736">
        <ele>294.77999999999997</ele>
        <time>2025-04-23T11:24:07Z</time>
      </trkpt>
      <trkpt lat="47.39764197729528" lon="6.236541979014874">
        <ele>301.02999999999997</ele>
        <time>2025-04-23T11:28:08Z</time>
      </trkpt>
      <trkpt lat="47.397711966186762" lon="6.236610040068626">
        <ele>293.81999999999999</ele>
        <time>2025-04-23T11:28:35Z</time>
      </trkpt>
      <trkpt lat="47.397630997002125" lon="6.236583972349763">
        <ele>297.67000000000002</ele>
        <time>2025-04-23T11:28:39Z</time>
      </trkpt>
      <trkpt lat="47.397586992010474" lon="6.236563017591834">
        <ele>297.67000000000002</ele>
        <time>2025-04-23T11:28:40Z</time>
      </trkpt>
      <trkpt lat="47.397436033934355" lon="6.236487999558449">
        <ele>296.22000000000003</ele>
        <time>2025-04-23T11:28:41Z</time>
      </trkpt>
      <trkpt lat="47.397326985374093" lon="6.236435025930405">
        <ele>295.74000000000001</ele>
        <time>2025-04-23T11:28:42Z</time>
      </trkpt>
      <trkpt lat="47.396413022652268" lon="6.235985001549125">
        <ele>294.30000000000001</ele>
        <time>2025-04-23T11:28:48Z</time>
      </trkpt>
      <trkpt lat="47.394593982025981" lon="6.234841039404273">
        <ele>294.30000000000001</ele>
        <time>2025-04-23T11:28:59Z</time>
      </trkpt>
      <trkpt lat="47.393456976860762" lon="6.233303966000676">
        <ele>292.38</ele>
        <time>2025-04-23T11:29:07Z</time>
      </trkpt>
      <trkpt lat="47.39196902140975" lon="6.231149984523654">
        <ele>283.25</ele>
        <time>2025-04-23T11:29:16Z</time>
      </trkpt>
      <trkpt lat="47.390538984909654" lon="6.228975970298052">
        <ele>273.63</ele>
        <time>2025-04-23T11:29:25Z</time>
      </trkpt>
      <trkpt lat="47.38939099945128" lon="6.22695199213922">
        <ele>279.88</ele>
        <time>2025-04-23T11:29:34Z</time>
      </trkpt>
      <trkpt lat="47.389140967279673" lon="6.226394008845091">
        <ele>284.20999999999998</ele>
        <time>2025-04-23T11:29:39Z</time>
      </trkpt>
      <trkpt lat="47.389020016416907" lon="6.225857986137271">
        <ele>289.00999999999999</ele>
        <time>2025-04-23T11:29:47Z</time>
      </trkpt>
      <trkpt lat="47.388990009203553" lon="6.225728988647461">
        <ele>289.49000000000001</ele>
        <time>2025-04-23T11:29:48Z</time>
      </trkpt>
      <trkpt lat="47.388950027525425" lon="6.225510975345969">
        <ele>289.97000000000003</ele>
        <time>2025-04-23T11:29:50Z</time>
      </trkpt>
      <trkpt lat="47.38891800865531" lon="6.225393963977695">
        <ele>290.45999999999998</ele>
        <time>2025-04-23T11:29:51Z</time>
      </trkpt>
      <trkpt lat="47.388886995613575" lon="6.225281981751323">
        <ele>290.45999999999998</ele>
        <time>2025-04-23T11:29:52Z</time>
      </trkpt>
      <trkpt lat="47.388595975935459" lon="6.224673958495259">
        <ele>290.45999999999998</ele>
        <time>2025-04-23T11:29:58Z</time>
      </trkpt>
      <trkpt lat="47.388541996479034" lon="6.224568011239171">
        <ele>289.97000000000003</ele>
        <time>2025-04-23T11:29:59Z</time>
      </trkpt>
      <trkpt lat="47.387980995699763" lon="6.223535025492311">
        <ele>289.97000000000003</ele>
        <time>2025-04-23T11:30:08Z</time>
      </trkpt>
      <trkpt lat="47.387489983811975" lon="6.222629025578499">
        <ele>288.05000000000001</ele>
        <time>2025-04-23T11:30:16Z</time>
      </trkpt>
      <trkpt lat="47.387281022965908" lon="6.222058972343803">
        <ele>286.13</ele>
        <time>2025-04-23T11:30:22Z</time>
      </trkpt>
      <trkpt lat="47.387254033237696" lon="6.221958976238966">
        <ele>285.64999999999998</ele>
        <time>2025-04-23T11:30:23Z</time>
      </trkpt>
      <trkpt lat="47.387240035459399" lon="6.221851017326117">
        <ele>285.17000000000002</ele>
        <time>2025-04-23T11:30:24Z</time>
      </trkpt>
      <trkpt lat="47.387226959690452" lon="6.22175102122128">
        <ele>284.69</ele>
        <time>2025-04-23T11:30:25Z</time>
      </trkpt>
      <trkpt lat="47.387212961912155" lon="6.221639038994908">
        <ele>284.20999999999998</ele>
        <time>2025-04-23T11:30:26Z</time>
      </trkpt>
      <trkpt lat="47.38692102022469" lon="6.220018984749913">
        <ele>283.73000000000002</ele>
        <time>2025-04-23T11:30:38Z</time>
      </trkpt>
      <trkpt lat="47.386707030236721" lon="6.21829298324883">
        <ele>286.13</ele>
        <time>2025-04-23T11:30:47Z</time>
      </trkpt>
      <trkpt lat="47.386870980262756" lon="6.216513002291322">
        <ele>286.61000000000001</ele>
        <time>2025-04-23T11:30:53Z</time>
      </trkpt>
      <trkpt lat="47.387068960815668" lon="6.212908029556274">
        <ele>281.31999999999999</ele>
        <time>2025-04-23T11:31:04Z</time>
      </trkpt>
      <trkpt lat="47.387275993824005" lon="6.208655973896384">
        <ele>271.23000000000002</ele>
        <time>2025-04-23T11:31:17Z</time>
      </trkpt>
      <trkpt lat="47.387246992439032" lon="6.205692971125245">
        <ele>267.38</ele>
        <time>2025-04-23T11:31:26Z</time>
      </trkpt>
      <trkpt lat="47.387271970510483" lon="6.203387025743723">
        <ele>262.10000000000002</ele>
        <time>2025-04-23T11:31:33Z</time>
      </trkpt>
      <trkpt lat="47.387804975733161" lon="6.201283000409603">
        <ele>257.29000000000002</ele>
        <time>2025-04-23T11:31:40Z</time>
      </trkpt>
      <trkpt lat="47.388549037277699" lon="6.19852895848453">
        <ele>255.37</ele>
        <time>2025-04-23T11:31:49Z</time>
      </trkpt>
      <trkpt lat="47.388837961480021" lon="6.197345014661551">
        <ele>252</ele>
        <time>2025-04-23T11:31:54Z</time>
      </trkpt>
      <trkpt lat="47.388949021697044" lon="6.196687035262585">
        <ele>250.08000000000001</ele>
        <time>2025-04-23T11:31:58Z</time>
      </trkpt>
      <trkpt lat="47.388955978676677" lon="6.196523001417518">
        <ele>249.59999999999999</ele>
        <time>2025-04-23T11:31:59Z</time>
      </trkpt>
      <trkpt lat="47.38896201364696" lon="6.196358967572451">
        <ele>249.12</ele>
        <time>2025-04-23T11:32:00Z</time>
      </trkpt>
      <trkpt lat="47.388938963413239" lon="6.195679027587175">
        <ele>247.68000000000001</ele>
        <time>2025-04-23T11:32:04Z</time>
      </trkpt>
      <trkpt lat="47.388925971463323" lon="6.1954740062356">
        <ele>247.68000000000001</ele>
        <time>2025-04-23T11:32:05Z</time>
      </trkpt>
      <trkpt lat="47.388831004500389" lon="6.19461502879858">
        <ele>248.63999999999999</ele>
        <time>2025-04-23T11:32:10Z</time>
      </trkpt>
      <trkpt lat="47.388819018378854" lon="6.194438003003597">
        <ele>248.63999999999999</ele>
        <time>2025-04-23T11:32:11Z</time>
      </trkpt>
      <trkpt lat="47.388823041692376" lon="6.194262988865376">
        <ele>249.12</ele>
        <time>2025-04-23T11:32:12Z</time>
      </trkpt>
      <trkpt lat="47.38885598257184" lon="6.193554969504476">
        <ele>251.03999999999999</ele>
        <time>2025-04-23T11:32:16Z</time>
      </trkpt>
      <trkpt lat="47.388807032257318" lon="6.191408028826118">
        <ele>258.73000000000002</ele>
        <time>2025-04-23T11:32:28Z</time>
      </trkpt>
      <trkpt lat="47.388762021437287" lon="6.189871961250901">
        <ele>260.17000000000002</ele>
        <time>2025-04-23T11:32:35Z</time>
      </trkpt>
      <trkpt lat="47.388782976195216" lon="6.187905985862017">
        <ele>261.13999999999999</ele>
        <time>2025-04-23T11:32:41Z</time>
      </trkpt>
      <trkpt lat="47.388839973136783" lon="6.187533996999264">
        <ele>261.62</ele>
        <time>2025-04-23T11:32:42Z</time>
      </trkpt>
      <trkpt lat="47.388969976454973" lon="6.186592038720846">
        <ele>263.06</ele>
        <time>2025-04-23T11:32:45Z</time>
      </trkpt>
      <trkpt lat="47.388950027525425" lon="6.184331020340323">
        <ele>262.10000000000002</ele>
        <time>2025-04-23T11:32:52Z</time>
      </trkpt>
      <trkpt lat="47.388886995613575" lon="6.183779994025827">
        <ele>260.17000000000002</ele>
        <time>2025-04-23T11:32:54Z</time>
      </trkpt>
      <trkpt lat="47.388809965923429" lon="6.183537002652884">
        <ele>259.69</ele>
        <time>2025-04-23T11:32:55Z</time>
      </trkpt>
      <trkpt lat="47.388702007010579" lon="6.183284958824515">
        <ele>258.73000000000002</ele>
        <time>2025-04-23T11:32:56Z</time>
      </trkpt>
      <trkpt lat="47.388418028131127" lon="6.182706020772457">
        <ele>256.32999999999998</ele>
        <time>2025-04-23T11:32:58Z</time>
      </trkpt>
      <trkpt lat="47.388276038691401" lon="6.182415001094341">
        <ele>255.37</ele>
        <time>2025-04-23T11:32:59Z</time>
      </trkpt>
      <trkpt lat="47.387199969962239" lon="6.179698007181287">
        <ele>256.81</ele>
        <time>2025-04-23T11:33:08Z</time>
      </trkpt>
      <trkpt lat="47.386277038604021" lon="6.178578017279506">
        <ele>261.13999999999999</ele>
        <time>2025-04-23T11:33:13Z</time>
      </trkpt>
      <trkpt lat="47.38606003113091" lon="6.178463017567992">
        <ele>262.10000000000002</ele>
        <time>2025-04-23T11:33:14Z</time>
      </trkpt>
      <trkpt lat="47.384227998554707" lon="6.177801014855504">
        <ele>269.79000000000002</ele>
        <time>2025-04-23T11:33:22Z</time>
      </trkpt>
      <trkpt lat="47.384036974981427" lon="6.177823981270194">
        <ele>270.75</ele>
        <time>2025-04-23T11:33:23Z</time>
      </trkpt>
      <trkpt lat="47.383886016905308" lon="6.177878966554999">
        <ele>271.23000000000002</ele>
        <time>2025-04-23T11:33:24Z</time>
      </trkpt>
      <trkpt lat="47.383717959746718" lon="6.178000001236796">
        <ele>272.19</ele>
        <time>2025-04-23T11:33:25Z</time>
      </trkpt>
      <trkpt lat="47.383561972528696" lon="6.178136039525271">
        <ele>272.19</ele>
        <time>2025-04-23T11:33:26Z</time>
      </trkpt>
      <trkpt lat="47.383416965603828" lon="6.178335025906563">
        <ele>273.14999999999998</ele>
        <time>2025-04-23T11:33:27Z</time>
      </trkpt>
      <trkpt lat="47.383257960900664" lon="6.178553039208055">
        <ele>273.63</ele>
        <time>2025-04-23T11:33:28Z</time>
      </trkpt>
      <trkpt lat="47.38191501237452" lon="6.180197987705469">
        <ele>278.44</ele>
        <time>2025-04-23T11:33:36Z</time>
      </trkpt>
      <trkpt lat="47.381704961881042" lon="6.180334025993943">
        <ele>278.92000000000002</ele>
        <time>2025-04-23T11:33:37Z</time>
      </trkpt>
      <trkpt lat="47.381489966064692" lon="6.180438967421651">
        <ele>279.39999999999998</ele>
        <time>2025-04-23T11:33:38Z</time>
      </trkpt>
      <trkpt lat="47.38126901909709" lon="6.180503005161881">
        <ele>279.88</ele>
        <time>2025-04-23T11:33:39Z</time>
      </trkpt>
      <trkpt lat="47.381072966381907" lon="6.180561007931829">
        <ele>280.36000000000001</ele>
        <time>2025-04-23T11:33:40Z</time>
      </trkpt>
      <trkpt lat="47.38088303245604" lon="6.180494036525488">
        <ele>280.36000000000001</ele>
        <time>2025-04-23T11:33:41Z</time>
      </trkpt>
      <trkpt lat="47.380708018317819" lon="6.180432010442019">
        <ele>279.88</ele>
        <time>2025-04-23T11:33:42Z</time>
      </trkpt>
      <trkpt lat="47.380545996129513" lon="6.180298989638686">
        <ele>279.88</ele>
        <time>2025-04-23T11:33:43Z</time>
      </trkpt>
      <trkpt lat="47.380395038053393" lon="6.180116012692452">
        <ele>279.39999999999998</ele>
        <time>2025-04-23T11:33:44Z</time>
      </trkpt>
      <trkpt lat="47.380249025300145" lon="6.179881989955902">
        <ele>279.39999999999998</ele>
        <time>2025-04-23T11:33:45Z</time>
      </trkpt>
      <trkpt lat="47.380102006718516" lon="6.179646961390972">
        <ele>278.92000000000002</ele>
        <time>2025-04-23T11:33:46Z</time>
      </trkpt>
      <trkpt lat="47.379631027579308" lon="6.178930979222059">
        <ele>277.48000000000002</ele>
        <time>2025-04-23T11:33:49Z</time>
      </trkpt>
      <trkpt lat="47.379451990127563" lon="6.178703997284174">
        <ele>277</ele>
        <time>2025-04-23T11:33:50Z</time>
      </trkpt>
      <trkpt lat="47.379251997917891" lon="6.178521020337939">
        <ele>276.51999999999998</ele>
        <time>2025-04-23T11:33:51Z</time>
      </trkpt>
      <trkpt lat="47.379034990444779" lon="6.178387999534607">
        <ele>276.04000000000002</ele>
        <time>2025-04-23T11:33:52Z</time>
      </trkpt>
      <trkpt lat="47.378809014335275" lon="6.178283980116248">
        <ele>275.56</ele>
        <time>2025-04-23T11:33:53Z</time>
      </trkpt>
      <trkpt lat="47.378574991598725" lon="6.178234023973346">
        <ele>275.06999999999999</ele>
        <time>2025-04-23T11:33:54Z</time>
      </trkpt>
      <trkpt lat="47.378324037417769" lon="6.178240980952978">
        <ele>275.06999999999999</ele>
        <time>2025-04-23T11:33:55Z</time>
      </trkpt>
      <trkpt lat="47.378074005246162" lon="6.178268976509571">
        <ele>274.11000000000001</ele>
        <time>2025-04-23T11:33:56Z</time>
      </trkpt>
      <trkpt lat="47.377825984731317" lon="6.178337037563324">
        <ele>274.11000000000001</ele>
        <time>2025-04-23T11:33:57Z</time>
      </trkpt>
      <trkpt lat="47.376353032886982" lon="6.178972972556949">
        <ele>273.14999999999998</ele>
        <time>2025-04-23T11:34:03Z</time>
      </trkpt>
      <trkpt lat="47.375656999647617" lon="6.179192997515202">
        <ele>272.67000000000002</ele>
        <time>2025-04-23T11:34:06Z</time>
      </trkpt>
      <trkpt lat="47.373800994828343" lon="6.179460966959596">
        <ele>274.11000000000001</ele>
        <time>2025-04-23T11:34:14Z</time>
      </trkpt>
      <trkpt lat="47.373391035944223" lon="6.179562974721193">
        <ele>274.58999999999997</ele>
        <time>2025-04-23T11:34:16Z</time>
      </trkpt>
      <trkpt lat="47.372413035482168" lon="6.18009296245873">
        <ele>274.11000000000001</ele>
        <time>2025-04-23T11:34:21Z</time>
      </trkpt>
      <trkpt lat="47.370756017044187" lon="6.18114204145968">
        <ele>272.19</ele>
        <time>2025-04-23T11:34:29Z</time>
      </trkpt>
      <trkpt lat="47.369210980832577" lon="6.181784011423588">
        <ele>271.70999999999998</ele>
        <time>2025-04-23T11:34:36Z</time>
      </trkpt>
      <trkpt lat="47.368983998894691" lon="6.181858023628593">
        <ele>271.70999999999998</ele>
        <time>2025-04-23T11:34:37Z</time>
      </trkpt>
      <trkpt lat="47.368068024516106" lon="6.181955002248287">
        <ele>271.70999999999998</ele>
        <time>2025-04-23T11:34:41Z</time>
      </trkpt>
      <trkpt lat="47.366741001605988" lon="6.182163041085005">
        <ele>269.79000000000002</ele>
        <time>2025-04-23T11:34:47Z</time>
      </trkpt>
      <trkpt lat="47.366584008559585" lon="6.182311987504363">
        <ele>269.31</ele>
        <time>2025-04-23T11:34:48Z</time>
      </trkpt>
      <trkpt lat="47.366422992199659" lon="6.182483984157443">
        <ele>268.82999999999998</ele>
        <time>2025-04-23T11:34:49Z</time>
      </trkpt>
      <trkpt lat="47.366285026073456" lon="6.182709038257599">
        <ele>267.86000000000001</ele>
        <time>2025-04-23T11:34:50Z</time>
      </trkpt>
      <trkpt lat="47.366138007491827" lon="6.182969966903329">
        <ele>267.38</ele>
        <time>2025-04-23T11:34:51Z</time>
      </trkpt>
      <trkpt lat="47.365983026102185" lon="6.183236008509994">
        <ele>266.42000000000002</ele>
        <time>2025-04-23T11:34:52Z</time>
      </trkpt>
      <trkpt lat="47.365631991997361" lon="6.18370296433568">
        <ele>265.45999999999998</ele>
        <time>2025-04-23T11:34:54Z</time>
      </trkpt>
      <trkpt lat="47.365424958989024" lon="6.183888036757708">
        <ele>264.98000000000002</ele>
        <time>2025-04-23T11:34:55Z</time>
      </trkpt>
      <trkpt lat="47.365207029506564" lon="6.184063972905278">
        <ele>264.01999999999998</ele>
        <time>2025-04-23T11:34:56Z</time>
      </trkpt>
      <trkpt lat="47.364303041249514" lon="6.184590021148324">
        <ele>262.57999999999998</ele>
        <time>2025-04-23T11:35:00Z</time>
      </trkpt>
      <trkpt lat="47.364100031554699" lon="6.184766041114926">
        <ele>262.10000000000002</ele>
        <time>2025-04-23T11:35:01Z</time>
      </trkpt>
      <trkpt lat="47.363901967182755" lon="6.184938037768006">
        <ele>262.10000000000002</ele>
        <time>2025-04-23T11:35:02Z</time>
      </trkpt>
      <trkpt lat="47.36369501799345" lon="6.18509603664279">
        <ele>261.62</ele>
        <time>2025-04-23T11:35:03Z</time>
      </trkpt>
      <trkpt lat="47.363469041883945" lon="6.185228973627091">
        <ele>261.62</ele>
        <time>2025-04-23T11:35:04Z</time>
      </trkpt>
      <trkpt lat="47.363229990005493" lon="6.185321006923914">
        <ele>261.13999999999999</ele>
        <time>2025-04-23T11:35:05Z</time>
      </trkpt>
      <trkpt lat="47.362988004460931" lon="6.185413962230086">
        <ele>261.13999999999999</ele>
        <time>2025-04-23T11:35:06Z</time>
      </trkpt>
      <trkpt lat="47.361513040959835" lon="6.186143020167947">
        <ele>258.25</ele>
        <time>2025-04-23T11:35:13Z</time>
      </trkpt>
      <trkpt lat="47.361364010721445" lon="6.186233963817358">
        <ele>258.25</ele>
        <time>2025-04-23T11:35:14Z</time>
      </trkpt>
      <trkpt lat="47.361227972432971" lon="6.186317028477788">
        <ele>257.76999999999998</ele>
        <time>2025-04-23T11:35:15Z</time>
      </trkpt>
      <trkpt lat="47.360714999958873" lon="6.18655800819397">
        <ele>256.32999999999998</ele>
        <time>2025-04-23T11:35:20Z</time>
      </trkpt>
      <trkpt lat="47.360618021339178" lon="6.186582986265421">
        <ele>255.84999999999999</ele>
        <time>2025-04-23T11:35:21Z</time>
      </trkpt>
      <trkpt lat="47.359645972028375" lon="6.18647301569581">
        <ele>252.47999999999999</ele>
        <time>2025-04-23T11:35:30Z</time>
      </trkpt>
      <trkpt lat="47.358737038448453" lon="6.186132961884141">
        <ele>252</ele>
        <time>2025-04-23T11:35:38Z</time>
      </trkpt>
      <trkpt lat="47.358277961611748" lon="6.18593699298799">
        <ele>251.03999999999999</ele>
        <time>2025-04-23T11:35:42Z</time>
      </trkpt>
      <trkpt lat="47.358172014355659" lon="6.185896005481482">
        <ele>250.56</ele>
        <time>2025-04-23T11:35:43Z</time>
      </trkpt>
      <trkpt lat="47.358050979673862" lon="6.18584998883307">
        <ele>250.56</ele>
        <time>2025-04-23T11:35:44Z</time>
      </trkpt>
      <trkpt lat="47.357008019462228" lon="6.185447992756963">
        <ele>249.12</ele>
        <time>2025-04-23T11:35:50Z</time>
      </trkpt>
      <trkpt lat="47.355161989107728" lon="6.18520500138402">
        <ele>247.68000000000001</ele>
        <time>2025-04-23T11:35:58Z</time>
      </trkpt>
      <trkpt lat="47.353492984548211" lon="6.185112968087196">
        <ele>247.68000000000001</ele>
        <time>2025-04-23T11:36:05Z</time>
      </trkpt>
      <trkpt lat="47.353259967640042" lon="6.185010960325599">
        <ele>247.19999999999999</ele>
        <time>2025-04-23T11:36:06Z</time>
      </trkpt>
      <trkpt lat="47.353028962388635" lon="6.184910964220762">
        <ele>247.19999999999999</ele>
        <time>2025-04-23T11:36:07Z</time>
      </trkpt>
      <trkpt lat="47.352808015421033" lon="6.184752965345979">
        <ele>247.19999999999999</ele>
        <time>2025-04-23T11:36:08Z</time>
      </trkpt>
      <trkpt lat="47.352603999897838" lon="6.184567976742983">
        <ele>247.19999999999999</ele>
        <time>2025-04-23T11:36:09Z</time>
      </trkpt>
      <trkpt lat="47.350358990952373" lon="6.182502005249262">
        <ele>247.68000000000001</ele>
        <time>2025-04-23T11:36:21Z</time>
      </trkpt>
      <trkpt lat="47.350190011784434" lon="6.182378036901355">
        <ele>247.68000000000001</ele>
        <time>2025-04-23T11:36:22Z</time>
      </trkpt>
      <trkpt lat="47.350002005696297" lon="6.182280974462628">
        <ele>248.16</ele>
        <time>2025-04-23T11:36:23Z</time>
      </trkpt>
      <trkpt lat="47.349797990173101" lon="6.182221965864301">
        <ele>248.16</ele>
        <time>2025-04-23T11:36:24Z</time>
      </trkpt>
      <trkpt lat="47.34958098269999" lon="6.182223977521062">
        <ele>248.16</ele>
        <time>2025-04-23T11:36:25Z</time>
      </trkpt>
      <trkpt lat="47.349349977448583" lon="6.182254990562797">
        <ele>248.63999999999999</ele>
        <time>2025-04-23T11:36:26Z</time>
      </trkpt>
      <trkpt lat="47.349114026874304" lon="6.182323973625898">
        <ele>249.12</ele>
        <time>2025-04-23T11:36:27Z</time>
      </trkpt>
      <trkpt lat="47.348881009966135" lon="6.182391028851271">
        <ele>249.59999999999999</ele>
        <time>2025-04-23T11:36:28Z</time>
      </trkpt>
      <trkpt lat="47.348651010543108" lon="6.182456994429231">
        <ele>249.59999999999999</ele>
        <time>2025-04-23T11:36:29Z</time>
      </trkpt>
      <trkpt lat="47.348411958664656" lon="6.182439979165793">
        <ele>250.08000000000001</ele>
        <time>2025-04-23T11:36:30Z</time>
      </trkpt>
      <trkpt lat="47.34818497672677" lon="6.182406032457948">
        <ele>251.03999999999999</ele>
        <time>2025-04-23T11:36:31Z</time>
      </trkpt>
      <trkpt lat="47.34796897508204" lon="6.182315004989505">
        <ele>252</ele>
        <time>2025-04-23T11:36:32Z</time>
      </trkpt>
      <trkpt lat="47.347777029499412" lon="6.182148959487677">
        <ele>253.44</ele>
        <time>2025-04-23T11:36:33Z</time>
      </trkpt>
      <trkpt lat="47.347580976784229" lon="6.181979980319738">
        <ele>254.88999999999999</ele>
        <time>2025-04-23T11:36:34Z</time>
      </trkpt>
      <trkpt lat="47.347419038414955" lon="6.18172500282526">
        <ele>256.32999999999998</ele>
        <time>2025-04-23T11:36:35Z</time>
      </trkpt>
      <trkpt lat="47.34726196154952" lon="6.181476982310414">
        <ele>257.76999999999998</ele>
        <time>2025-04-23T11:36:36Z</time>
      </trkpt>
      <trkpt lat="47.346561988815665" lon="6.180291026830673">
        <ele>264.01999999999998</ele>
        <time>2025-04-23T11:36:41Z</time>
      </trkpt>
      <trkpt lat="47.346451012417674" lon="6.179980980232358">
        <ele>265.45999999999998</ele>
        <time>2025-04-23T11:36:42Z</time>
      </trkpt>
      <trkpt lat="47.346300976350904" lon="6.179341021925211">
        <ele>268.35000000000002</ele>
        <time>2025-04-23T11:36:44Z</time>
      </trkpt>
      <trkpt lat="47.345663029700518" lon="6.176290009170771">
        <ele>274.11000000000001</ele>
        <time>2025-04-23T11:36:53Z</time>
      </trkpt>
      <trkpt lat="47.344830958172679" lon="6.174228982999921">
        <ele>271.70999999999998</ele>
        <time>2025-04-23T11:37:00Z</time>
      </trkpt>
      <trkpt lat="47.343827979639173" lon="6.172712026163936">
        <ele>272.19</ele>
        <time>2025-04-23T11:37:06Z</time>
      </trkpt>
      <trkpt lat="47.342933965846896" lon="6.171360025182366">
        <ele>275.06999999999999</ele>
        <time>2025-04-23T11:37:12Z</time>
      </trkpt>
      <trkpt lat="47.342068031430244" lon="6.169654978439212">
        <ele>278.44</ele>
        <time>2025-04-23T11:37:19Z</time>
      </trkpt>
      <trkpt lat="47.341617001220584" lon="6.167456991970539">
        <ele>280.83999999999997</ele>
        <time>2025-04-23T11:37:26Z</time>
      </trkpt>
      <trkpt lat="47.341152979061007" lon="6.165411975234747">
        <ele>286.13</ele>
        <time>2025-04-23T11:37:34Z</time>
      </trkpt>
      <trkpt lat="47.340818038210273" lon="6.164621980860829">
        <ele>289.49000000000001</ele>
        <time>2025-04-23T11:37:39Z</time>
      </trkpt>
      <trkpt lat="47.340342029929161" lon="6.163197979331017">
        <ele>291.42000000000002</ele>
        <time>2025-04-23T11:37:49Z</time>
      </trkpt>
      <trkpt lat="47.340261982753873" lon="6.162760024890304">
        <ele>291.42000000000002</ele>
        <time>2025-04-23T11:37:53Z</time>
      </trkpt>
      <trkpt lat="47.340241027995944" lon="6.162501024082303">
        <ele>291.89999999999998</ele>
        <time>2025-04-23T11:37:55Z</time>
      </trkpt>
      <trkpt lat="47.340248990803957" lon="6.162354005500674">
        <ele>291.89999999999998</ele>
        <time>2025-04-23T11:37:56Z</time>
      </trkpt>
      <trkpt lat="47.340259971097112" lon="6.16146300919354">
        <ele>291.42000000000002</ele>
        <time>2025-04-23T11:38:04Z</time>
      </trkpt>
      <trkpt lat="47.340203979983926" lon="6.160851968452334">
        <ele>290.45999999999998</ele>
        <time>2025-04-23T11:38:11Z</time>
      </trkpt>
      <trkpt lat="47.340182019397616" lon="6.160763958469033">
        <ele>289.97000000000003</ele>
        <time>2025-04-23T11:38:12Z</time>
      </trkpt>
      <trkpt lat="47.340161986649036" lon="6.160682989284396">
        <ele>289.97000000000003</ele>
        <time>2025-04-23T11:38:13Z</time>
      </trkpt>
      <trkpt lat="47.340111024677753" lon="6.160521972924471">
        <ele>289.49000000000001</ele>
        <time>2025-04-23T11:38:15Z</time>
      </trkpt>
      <trkpt lat="47.340077999979258" lon="6.160423988476396">
        <ele>289.49000000000001</ele>
        <time>2025-04-23T11:38:16Z</time>
      </trkpt>
      <trkpt lat="47.339959982782602" lon="6.160071026533842">
        <ele>289.97000000000003</ele>
        <time>2025-04-23T11:38:19Z</time>
      </trkpt>
      <trkpt lat="47.339912038296461" lon="6.159927025437355">
        <ele>290.45999999999998</ele>
        <time>2025-04-23T11:38:20Z</time>
      </trkpt>
      <trkpt lat="47.339349025860429" lon="6.15830403752625">
        <ele>296.69999999999999</ele>
        <time>2025-04-23T11:38:29Z</time>
      </trkpt>
      <trkpt lat="47.338569005951285" lon="6.156074032187462">
        <ele>305.83999999999997</ele>
        <time>2025-04-23T11:38:39Z</time>
      </trkpt>
      <trkpt lat="47.337485980242491" lon="6.153377993032336">
        <ele>310.63999999999999</ele>
        <time>2025-04-23T11:38:50Z</time>
      </trkpt>
      <trkpt lat="47.336352998390794" lon="6.151943011209369">
        <ele>313.05000000000001</ele>
        <time>2025-04-23T11:38:58Z</time>
      </trkpt>
      <trkpt lat="47.33458399772644" lon="6.150007965043187">
        <ele>310.63999999999999</ele>
        <time>2025-04-23T11:39:10Z</time>
      </trkpt>
      <trkpt lat="47.333142980933189" lon="6.148490002378821">
        <ele>308.24000000000001</ele>
        <time>2025-04-23T11:39:20Z</time>
      </trkpt>
      <trkpt lat="47.332175960764289" lon="6.147421980276704">
        <ele>304.88</ele>
        <time>2025-04-23T11:39:29Z</time>
      </trkpt>
      <trkpt lat="47.332101026549935" lon="6.147313015535474">
        <ele>304.88</ele>
        <time>2025-04-23T11:39:30Z</time>
      </trkpt>
      <trkpt lat="47.332035982981324" lon="6.147183012217283">
        <ele>304.38999999999999</ele>
        <time>2025-04-23T11:39:31Z</time>
      </trkpt>
      <trkpt lat="47.331984015181661" lon="6.147036999464035">
        <ele>304.38999999999999</ele>
        <time>2025-04-23T11:39:32Z</time>
      </trkpt>
      <trkpt lat="47.331956019625068" lon="6.146889980882406">
        <ele>304.38999999999999</ele>
        <time>2025-04-23T11:39:33Z</time>
      </trkpt>
      <trkpt lat="47.331933975219727" lon="6.146726030856371">
        <ele>304.38999999999999</ele>
        <time>2025-04-23T11:39:34Z</time>
      </trkpt>
      <trkpt lat="47.331870021298528" lon="6.146614970639348">
        <ele>304.38999999999999</ele>
        <time>2025-04-23T11:39:35Z</time>
      </trkpt>
      <trkpt lat="47.331887958571315" lon="6.146464012563229">
        <ele>304.88</ele>
        <time>2025-04-23T11:39:36Z</time>
      </trkpt>
      <trkpt lat="47.331905979663134" lon="6.146299978718162">
        <ele>304.88</ele>
        <time>2025-04-23T11:39:37Z</time>
      </trkpt>
      <trkpt lat="47.331929029896855" lon="6.146105015650392">
        <ele>304.88</ele>
        <time>2025-04-23T11:39:38Z</time>
      </trkpt>
      <trkpt lat="47.332023996859789" lon="6.145213013514876">
        <ele>305.83999999999997</ele>
        <time>2025-04-23T11:39:42Z</time>
      </trkpt>
      <trkpt lat="47.332034977152944" lon="6.144991982728243">
        <ele>305.83999999999997</ele>
        <time>2025-04-23T11:39:43Z</time>
      </trkpt>
      <trkpt lat="47.331740017980337" lon="6.143299005925655">
        <ele>308.72000000000003</ele>
        <time>2025-04-23T11:39:51Z</time>
      </trkpt>
      <trkpt lat="47.3311220202595" lon="6.14096799865365">
        <ele>311.60000000000002</ele>
        <time>2025-04-23T11:40:01Z</time>
      </trkpt>
      <trkpt lat="47.330468986183405" lon="6.138636991381645">
        <ele>313.05000000000001</ele>
        <time>2025-04-23T11:40:09Z</time>
      </trkpt>
      <trkpt lat="47.329843025654554" lon="6.136472029611468">
        <ele>312.56999999999999</ele>
        <time>2025-04-23T11:40:15Z</time>
      </trkpt>
      <trkpt lat="47.328681964427233" lon="6.133193029090762">
        <ele>309.19999999999999</ele>
        <time>2025-04-23T11:40:26Z</time>
      </trkpt>
      <trkpt lat="47.327033998444676" lon="6.129389991983771">
        <ele>312.08999999999997</ele>
        <time>2025-04-23T11:40:40Z</time>
      </trkpt>
      <trkpt lat="47.325976034626365" lon="6.12635700032115">
        <ele>313.52999999999997</ele>
        <time>2025-04-23T11:40:50Z</time>
      </trkpt>
      <trkpt lat="47.325358958914876" lon="6.123487958684564">
        <ele>314.97000000000003</ele>
        <time>2025-04-23T11:40:59Z</time>
      </trkpt>
      <trkpt lat="47.324745990335941" lon="6.120382966473699">
        <ele>317.85000000000002</ele>
        <time>2025-04-23T11:41:09Z</time>
      </trkpt>
      <trkpt lat="47.323787016794086" lon="6.117802010849118">
        <ele>317.85000000000002</ele>
        <time>2025-04-23T11:41:18Z</time>
      </trkpt>
      <trkpt lat="47.322437027469277" lon="6.11550897359848">
        <ele>319.30000000000001</ele>
        <time>2025-04-23T11:41:27Z</time>
      </trkpt>
      <trkpt lat="47.321104975417256" lon="6.113349962979555">
        <ele>320.74000000000001</ele>
        <time>2025-04-23T11:41:36Z</time>
      </trkpt>
      <trkpt lat="47.319959001615644" lon="6.11067496240139">
        <ele>324.10000000000002</ele>
        <time>2025-04-23T11:41:46Z</time>
      </trkpt>
      <trkpt lat="47.318248003721237" lon="6.10631201416254">
        <ele>329.87</ele>
        <time>2025-04-23T11:42:01Z</time>
      </trkpt>
      <trkpt lat="47.316978983581066" lon="6.104221986606717">
        <ele>336.12</ele>
        <time>2025-04-23T11:42:09Z</time>
      </trkpt>
      <trkpt lat="47.315390026196837" lon="6.102770995348692">
        <ele>344.29000000000002</ele>
        <time>2025-04-23T11:42:17Z</time>
      </trkpt>
      <trkpt lat="47.313638040795922" lon="6.101252026855946">
        <ele>349.57999999999998</ele>
        <time>2025-04-23T11:42:26Z</time>
      </trkpt>
      <trkpt lat="47.312114965170622" lon="6.099287979304791">
        <ele>351.5</ele>
        <time>2025-04-23T11:42:35Z</time>
      </trkpt>
      <trkpt lat="47.31069004163146" lon="6.097103990614414">
        <ele>352.94</ele>
        <time>2025-04-23T11:42:45Z</time>
      </trkpt>
      <trkpt lat="47.309936005622149" lon="6.095541017130017">
        <ele>356.79000000000002</ele>
        <time>2025-04-23T11:42:54Z</time>
      </trkpt>
      <trkpt lat="47.30938296765089" lon="6.094021964818239">
        <ele>359.67000000000002</ele>
        <time>2025-04-23T11:43:03Z</time>
      </trkpt>
      <trkpt lat="47.308699004352093" lon="6.092099994421005">
        <ele>359.19</ele>
        <time>2025-04-23T11:43:15Z</time>
      </trkpt>
      <trkpt lat="47.30800699442625" lon="6.090206019580364">
        <ele>354.38</ele>
        <time>2025-04-23T11:43:27Z</time>
      </trkpt>
      <trkpt lat="47.307929964736104" lon="6.090043997392058">
        <ele>354.38</ele>
        <time>2025-04-23T11:43:28Z</time>
      </trkpt>
      <trkpt lat="47.307822005823255" lon="6.089904019609094">
        <ele>353.89999999999998</ele>
        <time>2025-04-23T11:43:29Z</time>
      </trkpt>
      <trkpt lat="47.307708011940122" lon="6.089772004634142">
        <ele>353.89999999999998</ele>
        <time>2025-04-23T11:43:30Z</time>
      </trkpt>
      <trkpt lat="47.307582031935453" lon="6.089637978002429">
        <ele>353.42000000000002</ele>
        <time>2025-04-23T11:43:31Z</time>
      </trkpt>
      <trkpt lat="47.307454040274024" lon="6.089500011876226">
        <ele>353.42000000000002</ele>
        <time>2025-04-23T11:43:32Z</time>
      </trkpt>
      <trkpt lat="47.307310039177537" lon="6.089371014386416">
        <ele>353.42000000000002</ele>
        <time>2025-04-23T11:43:33Z</time>
      </trkpt>
      <trkpt lat="47.305868016555905" lon="6.088302992284298">
        <ele>353.42000000000002</ele>
        <time>2025-04-23T11:43:41Z</time>
      </trkpt>
      <trkpt lat="47.3042450286448" lon="6.086862981319428">
        <ele>355.33999999999997</ele>
        <time>2025-04-23T11:43:50Z</time>
      </trkpt>
      <trkpt lat="47.303145993500948" lon="6.085618017241359">
        <ele>352.94</ele>
        <time>2025-04-23T11:43:56Z</time>
      </trkpt>
      <trkpt lat="47.302946001291275" lon="6.085419030860066">
        <ele>352.45999999999998</ele>
        <time>2025-04-23T11:43:57Z</time>
      </trkpt>
      <trkpt lat="47.302157012745738" lon="6.084759961813688">
        <ele>349.57999999999998</ele>
        <time>2025-04-23T11:44:01Z</time>
      </trkpt>
      <trkpt lat="47.301980992779136" lon="6.08454798348248">
        <ele>349.10000000000002</ele>
        <time>2025-04-23T11:44:02Z</time>
      </trkpt>
      <trkpt lat="47.301822993904352" lon="6.084298035129905">
        <ele>348.13</ele>
        <time>2025-04-23T11:44:03Z</time>
      </trkpt>
      <trkpt lat="47.300306037068367" lon="6.081770975142717">
        <ele>338.04000000000002</ele>
        <time>2025-04-23T11:44:13Z</time>
      </trkpt>
      <trkpt lat="47.298696963116527" lon="6.079022968187928">
        <ele>326.99000000000001</ele>
        <time>2025-04-23T11:44:24Z</time>
      </trkpt>
      <trkpt lat="47.298469981178641" lon="6.078441012650728">
        <ele>325.54000000000002</ele>
        <time>2025-04-23T11:44:26Z</time>
      </trkpt>
      <trkpt lat="47.298390017822385" lon="6.078130966052413">
        <ele>325.06</ele>
        <time>2025-04-23T11:44:27Z</time>
      </trkpt>
      <trkpt lat="47.298317011445761" lon="6.077817985787988">
        <ele>324.57999999999998</ele>
        <time>2025-04-23T11:44:28Z</time>
      </trkpt>
      <trkpt lat="47.298264959827065" lon="6.077497964724898">
        <ele>324.57999999999998</ele>
        <time>2025-04-23T11:44:29Z</time>
      </trkpt>
      <trkpt lat="47.298212992027402" lon="6.077179033309221">
        <ele>324.57999999999998</ele>
        <time>2025-04-23T11:44:30Z</time>
      </trkpt>
      <trkpt lat="47.297749975696206" lon="6.075080959126353">
        <ele>324.10000000000002</ele>
        <time>2025-04-23T11:44:37Z</time>
      </trkpt>
      <trkpt lat="47.297433977946639" lon="6.074248971417546">
        <ele>324.10000000000002</ele>
        <time>2025-04-23T11:44:40Z</time>
      </trkpt>
      <trkpt lat="47.297286037355661" lon="6.074016960337758">
        <ele>324.57999999999998</ele>
        <time>2025-04-23T11:44:41Z</time>
      </trkpt>
      <trkpt lat="47.297127032652497" lon="6.073786038905382">
        <ele>324.57999999999998</ele>
        <time>2025-04-23T11:44:42Z</time>
      </trkpt>
      <trkpt lat="47.296966016292572" lon="6.073560984805226">
        <ele>324.57999999999998</ele>
        <time>2025-04-23T11:44:43Z</time>
      </trkpt>
      <trkpt lat="47.296772981062531" lon="6.073402985930443">
        <ele>324.57999999999998</ele>
        <time>2025-04-23T11:44:44Z</time>
      </trkpt>
      <trkpt lat="47.296580029651523" lon="6.073243981227279">
        <ele>325.06</ele>
        <time>2025-04-23T11:44:45Z</time>
      </trkpt>
      <trkpt lat="47.295018984004855" lon="6.071961969137192">
        <ele>328.43000000000001</ele>
        <time>2025-04-23T11:44:53Z</time>
      </trkpt>
      <trkpt lat="47.292867014184594" lon="6.0701949801296">
        <ele>329.87</ele>
        <time>2025-04-23T11:45:04Z</time>
      </trkpt>
      <trkpt lat="47.291099019348621" lon="6.068741977214813">
        <ele>327.47000000000003</ele>
        <time>2025-04-23T11:45:13Z</time>
      </trkpt>
      <trkpt lat="47.290128981694579" lon="6.067944020032883">
        <ele>324.57999999999998</ele>
        <time>2025-04-23T11:45:18Z</time>
      </trkpt>
      <trkpt lat="47.28920697234571" lon="6.066681034862995">
        <ele>320.74000000000001</ele>
        <time>2025-04-23T11:45:24Z</time>
      </trkpt>
      <trkpt lat="47.288097040727735" lon="6.065381001681089">
        <ele>317.37</ele>
        <time>2025-04-23T11:45:31Z</time>
      </trkpt>
      <trkpt lat="47.286657029762864" lon="6.064590001478791">
        <ele>311.60000000000002</ele>
        <time>2025-04-23T11:45:38Z</time>
      </trkpt>
      <trkpt lat="47.284467006102204" lon="6.063344031572342">
        <ele>306.80000000000001</ele>
        <time>2025-04-23T11:45:48Z</time>
      </trkpt>
      <trkpt lat="47.28385797701776" lon="6.062885960564017">
        <ele>307.27999999999997</ele>
        <time>2025-04-23T11:45:51Z</time>
      </trkpt>
      <trkpt lat="47.282486027106643" lon="6.061639990657568">
        <ele>309.68000000000001</ele>
        <time>2025-04-23T11:45:58Z</time>
      </trkpt>
      <trkpt lat="47.280538994818926" lon="6.06056802906096">
        <ele>312.08999999999997</ele>
        <time>2025-04-23T11:46:07Z</time>
      </trkpt>
      <trkpt lat="47.277971031144261" lon="6.05960201472044">
        <ele>318.32999999999998</ele>
        <time>2025-04-23T11:46:19Z</time>
      </trkpt>
      <trkpt lat="47.276012012735009" lon="6.059166993945837">
        <ele>322.18000000000001</ele>
        <time>2025-04-23T11:46:28Z</time>
      </trkpt>
      <trkpt lat="47.273899018764496" lon="6.058380017057061">
        <ele>327.47000000000003</ele>
        <time>2025-04-23T11:46:38Z</time>
      </trkpt>
      <trkpt lat="47.272522961720824" lon="6.057655988261104">
        <ele>329.87</ele>
        <time>2025-04-23T11:46:46Z</time>
      </trkpt>
      <trkpt lat="47.271616961807013" lon="6.057189032435417">
        <ele>334.19999999999999</ele>
        <time>2025-04-23T11:46:55Z</time>
      </trkpt>
      <trkpt lat="47.270598979666829" lon="6.05663800612092">
        <ele>337.07999999999998</ele>
        <time>2025-04-23T11:47:07Z</time>
      </trkpt>
      <trkpt lat="47.269016979262233" lon="6.055801995098591">
        <ele>332.26999999999998</ele>
        <time>2025-04-23T11:47:21Z</time>
      </trkpt>
      <trkpt lat="47.268105028197169" lon="6.055321963503957">
        <ele>327.47000000000003</ele>
        <time>2025-04-23T11:47:29Z</time>
      </trkpt>
      <trkpt lat="47.267989022657275" lon="6.0552610270679">
        <ele>326.99000000000001</ele>
        <time>2025-04-23T11:47:30Z</time>
      </trkpt>
      <trkpt lat="47.266394030302763" lon="6.054405989125371">
        <ele>322.66000000000003</ele>
        <time>2025-04-23T11:47:44Z</time>
      </trkpt>
      <trkpt lat="47.265028031542897" lon="6.053652036935091">
        <ele>319.30000000000001</ele>
        <time>2025-04-23T11:47:56Z</time>
      </trkpt>
      <trkpt lat="47.264049025252461" lon="6.052626008167863">
        <ele>317.85000000000002</ele>
        <time>2025-04-23T11:48:06Z</time>
      </trkpt>
      <trkpt lat="47.263579973950982" lon="6.052075987681747">
        <ele>314.97000000000003</ele>
        <time>2025-04-23T11:48:13Z</time>
      </trkpt>
      <trkpt lat="47.263351986184716" lon="6.05191295966506">
        <ele>312.08999999999997</ele>
        <time>2025-04-23T11:48:22Z</time>
      </trkpt>
      <trkpt lat="47.26323296315968" lon="6.051843976601958">
        <ele>311.60000000000002</ele>
        <time>2025-04-23T11:48:35Z</time>
      </trkpt>
      <trkpt lat="47.263098014518619" lon="6.05148003436625">
        <ele>311.12</ele>
        <time>2025-04-23T11:48:45Z</time>
      </trkpt>
      <trkpt lat="47.263061972334981" lon="6.051457989960909">
        <ele>311.60000000000002</ele>
        <time>2025-04-23T11:48:46Z</time>
      </trkpt>
      <trkpt lat="47.263012016192079" lon="6.051427982747555">
        <ele>311.60000000000002</ele>
        <time>2025-04-23T11:48:48Z</time>
      </trkpt>
      <trkpt lat="47.262878995388746" lon="6.051354976370931">
        <ele>311.60000000000002</ele>
        <time>2025-04-23T11:48:49Z</time>
      </trkpt>
      <trkpt lat="47.262861980125308" lon="6.051291022449732">
        <ele>311.60000000000002</ele>
        <time>2025-04-23T11:48:50Z</time>
      </trkpt>
      <trkpt lat="47.262785034254193" lon="6.05100997723639">
        <ele>312.08999999999997</ele>
        <time>2025-04-23T11:48:54Z</time>
      </trkpt>
      <trkpt lat="47.262742035090923" lon="6.050849966704845">
        <ele>313.52999999999997</ele>
        <time>2025-04-23T11:49:02Z</time>
      </trkpt>
      <trkpt lat="47.262631980702281" lon="6.050571016967297">
        <ele>314.49000000000001</ele>
        <time>2025-04-23T11:49:12Z</time>
      </trkpt>
      <trkpt lat="47.262499965727329" lon="6.050287038087845">
        <ele>315.93000000000001</ele>
        <time>2025-04-23T11:49:16Z</time>
      </trkpt>
      <trkpt lat="47.262430982664227" lon="6.050139013677836">
        <ele>316.41000000000003</ele>
        <time>2025-04-23T11:49:18Z</time>
      </trkpt>
      <trkpt lat="47.26241203956306" lon="6.050098026171327">
        <ele>316.88999999999999</ele>
        <time>2025-04-23T11:49:19Z</time>
      </trkpt>
      <trkpt lat="47.262380020692945" lon="6.050046980381012">
        <ele>316.88999999999999</ele>
        <time>2025-04-23T11:49:20Z</time>
      </trkpt>
      <trkpt lat="47.262355964630842" lon="6.050008004531264">
        <ele>316.88999999999999</ele>
        <time>2025-04-23T11:49:21Z</time>
      </trkpt>
      <trkpt lat="47.262336015701294" lon="6.049974979832768">
        <ele>317.37</ele>
        <time>2025-04-23T11:49:22Z</time>
      </trkpt>
      <trkpt lat="47.262312965467572" lon="6.049937009811401">
        <ele>317.37</ele>
        <time>2025-04-23T11:49:23Z</time>
      </trkpt>
      <trkpt lat="47.262239959090948" lon="6.049818992614746">
        <ele>317.37</ele>
        <time>2025-04-23T11:49:24Z</time>
      </trkpt>
      <trkpt lat="47.262239959090948" lon="6.049743974581361">
        <ele>317.85000000000002</ele>
        <time>2025-04-23T11:49:25Z</time>
      </trkpt>
      <trkpt lat="47.262239959090948" lon="6.049648001790047">
        <ele>317.85000000000002</ele>
        <time>2025-04-23T11:49:26Z</time>
      </trkpt>
      <trkpt lat="47.262239959090948" lon="6.049562003463507">
        <ele>318.32999999999998</ele>
        <time>2025-04-23T11:49:27Z</time>
      </trkpt>
      <trkpt lat="47.262206012383103" lon="6.04950500652194">
        <ele>318.32999999999998</ele>
        <time>2025-04-23T11:49:28Z</time>
      </trkpt>
      <trkpt lat="47.262128982692957" lon="6.049473993480206">
        <ele>318.32999999999998</ele>
        <time>2025-04-23T11:49:29Z</time>
      </trkpt>
      <trkpt lat="47.262068968266249" lon="6.049499977380037">
        <ele>318.32999999999998</ele>
        <time>2025-04-23T11:49:30Z</time>
      </trkpt>
      <trkpt lat="47.262024963274598" lon="6.049519004300237">
        <ele>318.32999999999998</ele>
        <time>2025-04-23T11:49:31Z</time>
      </trkpt>
      <trkpt lat="47.261999985203147" lon="6.049594022333622">
        <ele>318.32999999999998</ele>
        <time>2025-04-23T11:49:32Z</time>
      </trkpt>
      <trkpt lat="47.261976012960076" lon="6.049666022881866">
        <ele>318.32999999999998</ele>
        <time>2025-04-23T11:49:33Z</time>
      </trkpt>
      <trkpt lat="47.261961009353399" lon="6.049712039530277">
        <ele>318.32999999999998</ele>
        <time>2025-04-23T11:49:34Z</time>
      </trkpt>
      <trkpt lat="47.261892026290298" lon="6.049767024815083">
        <ele>318.81</ele>
        <time>2025-04-23T11:49:35Z</time>
      </trkpt>
      <trkpt lat="47.26185698993504" lon="6.049795020371676">
        <ele>318.81</ele>
        <time>2025-04-23T11:49:36Z</time>
      </trkpt>
      <trkpt lat="47.261816002428532" lon="6.04982796125114">
        <ele>318.81</ele>
        <time>2025-04-23T11:49:37Z</time>
      </trkpt>
      <trkpt lat="47.261767974123359" lon="6.049866015091538">
        <ele>319.30000000000001</ele>
        <time>2025-04-23T11:49:38Z</time>
      </trkpt>
      <trkpt lat="47.261680969968438" lon="6.049974979832768">
        <ele>319.77999999999997</ele>
        <time>2025-04-23T11:49:40Z</time>
      </trkpt>
      <trkpt lat="47.261595977470279" lon="6.050076987594366">
        <ele>319.77999999999997</ele>
        <time>2025-04-23T11:49:41Z</time>
      </trkpt>
      <trkpt lat="47.261578962206841" lon="6.05010699480772">
        <ele>320.25999999999999</ele>
        <time>2025-04-23T11:49:42Z</time>
      </trkpt>
      <trkpt lat="47.261454993858933" lon="6.050328025594354">
        <ele>320.25999999999999</ele>
        <time>2025-04-23T11:49:45Z</time>
      </trkpt>
      <trkpt lat="47.261423980817199" lon="6.050382005050778">
        <ele>320.25999999999999</ele>
        <time>2025-04-23T11:49:46Z</time>
      </trkpt>
      <trkpt lat="47.261338988319039" lon="6.050356021150947">
        <ele>320.25999999999999</ele>
        <time>2025-04-23T11:49:47Z</time>
      </trkpt>
      <trkpt lat="47.260758960619569" lon="6.050270022824407">
        <ele>320.25999999999999</ele>
        <time>2025-04-23T11:49:54Z</time>
      </trkpt>
      <trkpt lat="47.25985798984766" lon="6.050313021987677">
        <ele>317.85000000000002</ele>
        <time>2025-04-23T11:50:03Z</time>
      </trkpt>
      <trkpt lat="47.259784983471036" lon="6.050230963155627">
        <ele>317.37</ele>
        <time>2025-04-23T11:50:04Z</time>
      </trkpt>
      <trkpt lat="47.25975195877254" lon="6.05019299313426">
        <ele>317.37</ele>
        <time>2025-04-23T11:50:05Z</time>
      </trkpt>
      <trkpt lat="47.259725974872708" lon="6.050163991749287">
        <ele>316.88999999999999</ele>
        <time>2025-04-23T11:50:06Z</time>
      </trkpt>
      <trkpt lat="47.259676018729806" lon="6.050124010071158">
        <ele>316.41000000000003</ele>
        <time>2025-04-23T11:50:07Z</time>
      </trkpt>
      <trkpt lat="47.259632013738155" lon="6.050141025334597">
        <ele>316.41000000000003</ele>
        <time>2025-04-23T11:50:08Z</time>
      </trkpt>
      <trkpt lat="47.259581973776221" lon="6.050160974264145">
        <ele>315.44999999999999</ele>
        <time>2025-04-23T11:50:09Z</time>
      </trkpt>
      <trkpt lat="47.259524976834655" lon="6.050184024497867">
        <ele>314.97000000000003</ele>
        <time>2025-04-23T11:50:10Z</time>
      </trkpt>
      <trkpt lat="47.259459011256695" lon="6.050210008397698">
        <ele>314.00999999999999</ele>
        <time>2025-04-23T11:50:11Z</time>
      </trkpt>
      <trkpt lat="47.258721990510821" lon="6.050419975072146">
        <ele>310.63999999999999</ele>
        <time>2025-04-23T11:50:19Z</time>
      </trkpt>
      <trkpt lat="47.257661009207368" lon="6.050305981189013">
        <ele>306.31999999999999</ele>
        <time>2025-04-23T11:50:30Z</time>
      </trkpt>
      <trkpt lat="47.257461016997695" lon="6.050246972590685">
        <ele>304.38999999999999</ele>
        <time>2025-04-23T11:50:33Z</time>
      </trkpt>
      <trkpt lat="47.257405025884509" lon="6.050230963155627">
        <ele>303.91000000000003</ele>
        <time>2025-04-23T11:50:34Z</time>
      </trkpt>
      <trkpt lat="47.257333025336266" lon="6.050281003117561">
        <ele>303.43000000000001</ele>
        <time>2025-04-23T11:50:35Z</time>
      </trkpt>
      <trkpt lat="47.257266975939274" lon="6.05034101754427">
        <ele>302.94999999999999</ele>
        <time>2025-04-23T11:50:36Z</time>
      </trkpt>
      <trkpt lat="47.25719396956265" lon="6.050408994778991">
        <ele>302.94999999999999</ele>
        <time>2025-04-23T11:50:37Z</time>
      </trkpt>
      <trkpt lat="47.257110988721251" lon="6.050486024469137">
        <ele>302.47000000000003</ele>
        <time>2025-04-23T11:50:38Z</time>
      </trkpt>
      <trkpt lat="47.256659036502242" lon="6.05085700750351">
        <ele>301.99000000000001</ele>
        <time>2025-04-23T11:50:43Z</time>
      </trkpt>
      <trkpt lat="47.256488967686892" lon="6.050980975851417">
        <ele>301.99000000000001</ele>
        <time>2025-04-23T11:50:45Z</time>
      </trkpt>
      <trkpt lat="47.256399029865861" lon="6.050994973629713">
        <ele>302.47000000000003</ele>
        <time>2025-04-23T11:50:46Z</time>
      </trkpt>
      <trkpt lat="47.256310014054179" lon="6.051007965579629">
        <ele>302.94999999999999</ele>
        <time>2025-04-23T11:50:47Z</time>
      </trkpt>
      <trkpt lat="47.256232984364033" lon="6.051020035520196">
        <ele>302.94999999999999</ele>
        <time>2025-04-23T11:50:48Z</time>
      </trkpt>
      <trkpt lat="47.256166012957692" lon="6.051086001098156">
        <ele>302.94999999999999</ele>
        <time>2025-04-23T11:50:49Z</time>
      </trkpt>
      <trkpt lat="47.256126031279564" lon="6.051191026344895">
        <ele>302.47000000000003</ele>
        <time>2025-04-23T11:50:50Z</time>
      </trkpt>
      <trkpt lat="47.256098035722971" lon="6.051306026056409">
        <ele>302.47000000000003</ele>
        <time>2025-04-23T11:50:51Z</time>
      </trkpt>
      <trkpt lat="47.256066016852856" lon="6.051438041031361">
        <ele>301.99000000000001</ele>
        <time>2025-04-23T11:50:52Z</time>
      </trkpt>
      <trkpt lat="47.25588396191597" lon="6.052194004878402">
        <ele>302.47000000000003</ele>
        <time>2025-04-23T11:50:57Z</time>
      </trkpt>
      <trkpt lat="47.255867030471563" lon="6.052264999598265">
        <ele>302.47000000000003</ele>
        <time>2025-04-23T11:50:58Z</time>
      </trkpt>
      <trkpt lat="47.255811039358377" lon="6.05234001763165">
        <ele>302.94999999999999</ele>
        <time>2025-04-23T11:50:59Z</time>
      </trkpt>
      <trkpt lat="47.255802992731333" lon="6.052350997924805">
        <ele>302.94999999999999</ele>
        <time>2025-04-23T11:51:00Z</time>
      </trkpt>
      <trkpt lat="47.255802992731333" lon="6.052350997924805">
        <ele>302.94999999999999</ele>
        <time>2025-04-23T11:51:01Z</time>
      </trkpt>
      <trkpt lat="47.255759993568063" lon="6.052375975996256">
        <ele>302.94999999999999</ele>
        <time>2025-04-23T11:51:02Z</time>
      </trkpt>
      <trkpt lat="47.255653040483594" lon="6.052436996251345">
        <ele>303.43000000000001</ele>
        <time>2025-04-23T11:51:03Z</time>
      </trkpt>
      <trkpt lat="47.255653040483594" lon="6.052436996251345">
        <ele>303.43000000000001</ele>
        <time>2025-04-23T11:51:04Z</time>
      </trkpt>
      <trkpt lat="47.255651028826833" lon="6.052435990422964">
        <ele>303.91000000000003</ele>
        <time>2025-04-23T11:51:05Z</time>
      </trkpt>
      <trkpt lat="47.255578022450209" lon="6.052403971552849">
        <ele>303.91000000000003</ele>
        <time>2025-04-23T11:51:06Z</time>
      </trkpt>
      <trkpt lat="47.254778975620866" lon="6.052157962694764">
        <ele>300.55000000000001</ele>
        <time>2025-04-23T11:51:14Z</time>
      </trkpt>
      <trkpt lat="47.253743978217244" lon="6.052129967138171">
        <ele>297.18000000000001</ele>
        <time>2025-04-23T11:51:24Z</time>
      </trkpt>
      <trkpt lat="47.252779975533485" lon="6.052118986845017">
        <ele>292.86000000000001</ele>
        <time>2025-04-23T11:51:34Z</time>
      </trkpt>
      <trkpt lat="47.252693977206945" lon="6.052094008773565">
        <ele>292.38</ele>
        <time>2025-04-23T11:51:35Z</time>
      </trkpt>
      <trkpt lat="47.252612002193928" lon="6.052070958539844">
        <ele>291.89999999999998</ele>
        <time>2025-04-23T11:51:36Z</time>
      </trkpt>
      <trkpt lat="47.251762999221683" lon="6.051817992702127">
        <ele>284.20999999999998</ele>
        <time>2025-04-23T11:51:46Z</time>
      </trkpt>
      <trkpt lat="47.251203004270792" lon="6.051639039069414">
        <ele>279.88</ele>
        <time>2025-04-23T11:51:52Z</time>
      </trkpt>
      <trkpt lat="47.250845013186336" lon="6.05146000161767">
        <ele>277.95999999999998</ele>
        <time>2025-04-23T11:51:56Z</time>
      </trkpt>
      <trkpt lat="47.250765971839428" lon="6.051388001069427">
        <ele>277.48000000000002</ele>
        <time>2025-04-23T11:51:57Z</time>
      </trkpt>
      <trkpt lat="47.25070402957499" lon="6.051290016621351">
        <ele>277.48000000000002</ele>
        <time>2025-04-23T11:51:58Z</time>
      </trkpt>
      <trkpt lat="47.250646026805043" lon="6.051164036616683">
        <ele>277</ele>
        <time>2025-04-23T11:51:59Z</time>
      </trkpt>
      <trkpt lat="47.250595986843109" lon="6.051038978621364">
        <ele>276.51999999999998</ele>
        <time>2025-04-23T11:52:00Z</time>
      </trkpt>
      <trkpt lat="47.250557010993361" lon="6.050917021930218">
        <ele>276.51999999999998</ele>
        <time>2025-04-23T11:52:01Z</time>
      </trkpt>
      <trkpt lat="47.250466989353299" lon="6.05060001835227">
        <ele>276.51999999999998</ele>
        <time>2025-04-23T11:52:04Z</time>
      </trkpt>
      <trkpt lat="47.250337991863489" lon="6.049755960702896">
        <ele>277.48000000000002</ele>
        <time>2025-04-23T11:52:11Z</time>
      </trkpt>
      <trkpt lat="47.25031703710556" lon="6.049400987103581">
        <ele>276.51999999999998</ele>
        <time>2025-04-23T11:52:14Z</time>
      </trkpt>
      <trkpt lat="47.250299016013741" lon="6.04909404180944">
        <ele>275.56</ele>
        <time>2025-04-23T11:52:17Z</time>
      </trkpt>
      <trkpt lat="47.250292981043458" lon="6.049005025997758">
        <ele>275.56</ele>
        <time>2025-04-23T11:52:18Z</time>
      </trkpt>
      <trkpt lat="47.250288035720587" lon="6.048918021842837">
        <ele>275.06999999999999</ele>
        <time>2025-04-23T11:52:19Z</time>
      </trkpt>
      <trkpt lat="47.250246964395046" lon="6.048835963010788">
        <ele>275.06999999999999</ele>
        <time>2025-04-23T11:52:20Z</time>
      </trkpt>
      <trkpt lat="47.250202037394047" lon="6.048745019361377">
        <ele>274.58999999999997</ele>
        <time>2025-04-23T11:52:21Z</time>
      </trkpt>
      <trkpt lat="47.250165995210409" lon="6.048647034913302">
        <ele>274.58999999999997</ele>
        <time>2025-04-23T11:52:22Z</time>
      </trkpt>
      <trkpt lat="47.250131964683533" lon="6.048526000231504">
        <ele>274.58999999999997</ele>
        <time>2025-04-23T11:52:23Z</time>
      </trkpt>
      <trkpt lat="47.249842034652829" lon="6.047370973974466">
        <ele>271.23000000000002</ele>
        <time>2025-04-23T11:52:32Z</time>
      </trkpt>
      <trkpt lat="47.249816972762346" lon="6.047220015898347">
        <ele>270.75</ele>
        <time>2025-04-23T11:52:33Z</time>
      </trkpt>
      <trkpt lat="47.249837005510926" lon="6.045297961682081">
        <ele>268.35000000000002</ele>
        <time>2025-04-23T11:52:47Z</time>
      </trkpt>
      <trkpt lat="47.249837005510926" lon="6.044872999191284">
        <ele>268.35000000000002</ele>
        <time>2025-04-23T11:52:50Z</time>
      </trkpt>
      <trkpt lat="47.249847985804081" lon="6.0447340272367">
        <ele>267.86000000000001</ele>
        <time>2025-04-23T11:52:51Z</time>
      </trkpt>
      <trkpt lat="47.249923003837466" lon="6.04428299702704">
        <ele>266.89999999999998</ele>
        <time>2025-04-23T11:52:54Z</time>
      </trkpt>
      <trkpt lat="47.250127019360662" lon="6.043486967682838">
        <ele>264.5</ele>
        <time>2025-04-23T11:53:00Z</time>
      </trkpt>
      <trkpt lat="47.250153003260493" lon="6.043383032083511">
        <ele>264.5</ele>
        <time>2025-04-23T11:53:01Z</time>
      </trkpt>
      <trkpt lat="47.250329023227096" lon="6.043180022388697">
        <ele>264.98000000000002</ele>
        <time>2025-04-23T11:53:08Z</time>
      </trkpt>
      <trkpt lat="47.250389037653804" lon="6.0431660246104">
        <ele>266.42000000000002</ele>
        <time>2025-04-23T11:53:16Z</time>
      </trkpt>
      <trkpt lat="47.250389037653804" lon="6.0431660246104">
        <ele>267.86000000000001</ele>
        <time>2025-04-23T11:53:28Z</time>
      </trkpt>
      <trkpt lat="47.250324999913573" lon="6.043041972443461">
        <ele>267.38</ele>
        <time>2025-04-23T11:53:29Z</time>
      </trkpt>
      <trkpt lat="47.250294992700219" lon="6.043022023513913">
        <ele>266.89999999999998</ele>
        <time>2025-04-23T11:53:30Z</time>
      </trkpt>
      <trkpt lat="47.250001039355993" lon="6.04278196580708">
        <ele>266.42000000000002</ele>
        <time>2025-04-23T11:53:35Z</time>
      </trkpt>
      <trkpt lat="47.249933984130621" lon="6.042741984128952">
        <ele>265.94</ele>
        <time>2025-04-23T11:53:36Z</time>
      </trkpt>
      <trkpt lat="47.249865001067519" lon="6.042702002450824">
        <ele>265.45999999999998</ele>
        <time>2025-04-23T11:53:37Z</time>
      </trkpt>
      <trkpt lat="47.249815966933966" lon="6.042674006894231">
        <ele>264.98000000000002</ele>
        <time>2025-04-23T11:53:38Z</time>
      </trkpt>
      <trkpt lat="47.249750001356006" lon="6.042621033266187">
        <ele>264.5</ele>
        <time>2025-04-23T11:53:39Z</time>
      </trkpt>
      <trkpt lat="47.249709013849497" lon="6.042588008567691">
        <ele>264.01999999999998</ele>
        <time>2025-04-23T11:53:40Z</time>
      </trkpt>
      <trkpt lat="47.249670960009098" lon="6.042511984705925">
        <ele>263.54000000000002</ele>
        <time>2025-04-23T11:53:41Z</time>
      </trkpt>
      <trkpt lat="47.249645981937647" lon="6.042463034391403">
        <ele>263.06</ele>
        <time>2025-04-23T11:53:42Z</time>
      </trkpt>
      <trkpt lat="47.249624021351337" lon="6.042419029399753">
        <ele>262.57999999999998</ele>
        <time>2025-04-23T11:53:43Z</time>
      </trkpt>
      <trkpt lat="47.249542968347669" lon="6.042395979166031">
        <ele>262.57999999999998</ele>
        <time>2025-04-23T11:53:44Z</time>
      </trkpt>
      <trkpt lat="47.249484965577722" lon="6.042421041056514">
        <ele>262.10000000000002</ele>
        <time>2025-04-23T11:53:45Z</time>
      </trkpt>
      <trkpt lat="47.249420005828142" lon="6.042449958622456">
        <ele>261.62</ele>
        <time>2025-04-23T11:53:46Z</time>
      </trkpt>
      <trkpt lat="47.248548036441207" lon="6.042811973020434">
        <ele>259.69</ele>
        <time>2025-04-23T11:53:57Z</time>
      </trkpt>
      <trkpt lat="47.248261040076613" lon="6.042936025187373">
        <ele>261.13999999999999</ele>
        <time>2025-04-23T11:54:02Z</time>
      </trkpt>
      <trkpt lat="47.248218040913343" lon="6.042915992438793">
        <ele>261.62</ele>
        <time>2025-04-23T11:54:03Z</time>
      </trkpt>
      <trkpt lat="47.248203959316015" lon="6.04286503046751">
        <ele>262.10000000000002</ele>
        <time>2025-04-23T11:54:04Z</time>
      </trkpt>
      <trkpt lat="47.248186022043228" lon="6.042796969413757">
        <ele>262.57999999999998</ele>
        <time>2025-04-23T11:54:05Z</time>
      </trkpt>
      <trkpt lat="47.248163977637887" lon="6.042717006057501">
        <ele>262.57999999999998</ele>
        <time>2025-04-23T11:54:06Z</time>
      </trkpt>
      <trkpt lat="47.248042020946741" lon="6.042109988629818">
        <ele>263.54000000000002</ele>
        <time>2025-04-23T11:54:12Z</time>
      </trkpt>
      <trkpt lat="47.248034980148077" lon="6.04200404137373">
        <ele>264.01999999999998</ele>
        <time>2025-04-23T11:54:13Z</time>
      </trkpt>
      <trkpt lat="47.248014025390148" lon="6.041664993390441">
        <ele>263.54000000000002</ele>
        <time>2025-04-23T11:54:16Z</time>
      </trkpt>
      <trkpt lat="47.248002961277962" lon="6.041573965921998">
        <ele>264.01999999999998</ele>
        <time>2025-04-23T11:54:17Z</time>
      </trkpt>
      <trkpt lat="47.247990975156426" lon="6.041458966210485">
        <ele>264.98000000000002</ele>
        <time>2025-04-23T11:54:18Z</time>
      </trkpt>
      <trkpt lat="47.247977983206511" lon="6.04134296067059">
        <ele>265.45999999999998</ele>
        <time>2025-04-23T11:54:19Z</time>
      </trkpt>
      <trkpt lat="47.247963985428214" lon="6.041223015636206">
        <ele>265.45999999999998</ele>
        <time>2025-04-23T11:54:20Z</time>
      </trkpt>
      <trkpt lat="47.247948981821537" lon="6.041085971519351">
        <ele>265.45999999999998</ele>
        <time>2025-04-23T11:54:21Z</time>
      </trkpt>
      <trkpt lat="47.247900031507015" lon="6.040857983753085">
        <ele>266.42000000000002</ele>
        <time>2025-04-23T11:54:23Z</time>
      </trkpt>
      <trkpt lat="47.247801963239908" lon="6.04048197157681">
        <ele>267.38</ele>
        <time>2025-04-23T11:54:26Z</time>
      </trkpt>
      <trkpt lat="47.247716970741749" lon="6.040249038487673">
        <ele>268.82999999999998</ele>
        <time>2025-04-23T11:54:28Z</time>
      </trkpt>
      <trkpt lat="47.247426034882665" lon="6.039444962516427">
        <ele>268.82999999999998</ele>
        <time>2025-04-23T11:54:34Z</time>
      </trkpt>
      <trkpt lat="47.247364008799195" lon="6.039202976971865">
        <ele>268.35000000000002</ele>
        <time>2025-04-23T11:54:36Z</time>
      </trkpt>
      <trkpt lat="47.24735202267766" lon="6.039086971431971">
        <ele>267.86000000000001</ele>
        <time>2025-04-23T11:54:37Z</time>
      </trkpt>
      <trkpt lat="47.247373983263969" lon="6.038978006690741">
        <ele>267.86000000000001</ele>
        <time>2025-04-23T11:54:38Z</time>
      </trkpt>
      <trkpt lat="47.247410025447607" lon="6.038878010585904">
        <ele>267.86000000000001</ele>
        <time>2025-04-23T11:54:39Z</time>
      </trkpt>
      <trkpt lat="47.247450007125735" lon="6.038787988945842">
        <ele>267.86000000000001</ele>
        <time>2025-04-23T11:54:40Z</time>
      </trkpt>
      <trkpt lat="47.247509015724063" lon="6.03869897313416">
        <ele>267.86000000000001</ele>
        <time>2025-04-23T11:54:41Z</time>
      </trkpt>
      <trkpt lat="47.247572969645262" lon="6.038603000342846">
        <ele>267.86000000000001</ele>
        <time>2025-04-23T11:54:42Z</time>
      </trkpt>
      <trkpt lat="47.247634995728731" lon="6.038509961217642">
        <ele>267.38</ele>
        <time>2025-04-23T11:54:43Z</time>
      </trkpt>
      <trkpt lat="47.247637007385492" lon="6.038343999534845">
        <ele>266.89999999999998</ele>
        <time>2025-04-23T11:54:44Z</time>
      </trkpt>
      <trkpt lat="47.247618986293674" lon="6.038207039237022">
        <ele>265.94</ele>
        <time>2025-04-23T11:54:45Z</time>
      </trkpt>
      <trkpt lat="47.247580010443926" lon="6.038089022040367">
        <ele>264.98000000000002</ele>
        <time>2025-04-23T11:54:46Z</time>
      </trkpt>
      <trkpt lat="47.247542040422559" lon="6.037972010672092">
        <ele>264.5</ele>
        <time>2025-04-23T11:54:47Z</time>
      </trkpt>
      <trkpt lat="47.247508009895682" lon="6.037863967940211">
        <ele>264.01999999999998</ele>
        <time>2025-04-23T11:54:48Z</time>
      </trkpt>
      <trkpt lat="47.247476996853948" lon="6.037767995148897">
        <ele>263.54000000000002</ele>
        <time>2025-04-23T11:54:49Z</time>
      </trkpt>
      <trkpt lat="47.247451012954116" lon="6.037683002650738">
        <ele>263.54000000000002</ele>
        <time>2025-04-23T11:54:50Z</time>
      </trkpt>
      <trkpt lat="47.247427040711045" lon="6.037604967132211">
        <ele>263.06</ele>
        <time>2025-04-23T11:54:51Z</time>
      </trkpt>
      <trkpt lat="47.247408013790846" lon="6.037531960755587">
        <ele>263.06</ele>
        <time>2025-04-23T11:54:52Z</time>
      </trkpt>
      <trkpt lat="47.247384963557124" lon="6.037443028762937">
        <ele>262.57999999999998</ele>
        <time>2025-04-23T11:54:59Z</time>
      </trkpt>
      <trkpt lat="47.247337019070983" lon="6.037258040159941">
        <ele>262.10000000000002</ele>
        <time>2025-04-23T11:55:34Z</time>
      </trkpt>
      <trkpt lat="47.247289996594191" lon="6.037077996879816">
        <ele>262.10000000000002</ele>
        <time>2025-04-23T11:55:36Z</time>
      </trkpt>
      <trkpt lat="47.247273987159133" lon="6.036993004381657">
        <ele>261.62</ele>
        <time>2025-04-23T11:55:37Z</time>
      </trkpt>
      <trkpt lat="47.247263006865978" lon="6.036925027146936">
        <ele>261.62</ele>
        <time>2025-04-23T11:55:38Z</time>
      </trkpt>
      <trkpt lat="47.247244985774159" lon="6.03687196969986">
        <ele>261.62</ele>
        <time>2025-04-23T11:55:39Z</time>
      </trkpt>
      <trkpt lat="47.247216990217566" lon="6.036813966929913">
        <ele>261.13999999999999</ele>
        <time>2025-04-23T11:55:40Z</time>
      </trkpt>
      <trkpt lat="47.247172985225916" lon="6.036736015230417">
        <ele>261.13999999999999</ele>
        <time>2025-04-23T11:55:41Z</time>
      </trkpt>
      <trkpt lat="47.247127974405885" lon="6.036654962226749">
        <ele>261.62</ele>
        <time>2025-04-23T11:55:42Z</time>
      </trkpt>
      <trkpt lat="47.247081035748124" lon="6.036569969728589">
        <ele>262.10000000000002</ele>
        <time>2025-04-23T11:55:43Z</time>
      </trkpt>
      <trkpt lat="47.247026972472668" lon="6.036471985280514">
        <ele>262.10000000000002</ele>
        <time>2025-04-23T11:55:44Z</time>
      </trkpt>
      <trkpt lat="47.246400006115437" lon="6.035728007555008">
        <ele>261.13999999999999</ele>
        <time>2025-04-23T11:55:54Z</time>
      </trkpt>
      <trkpt lat="47.246340997517109" lon="6.035651983693242">
        <ele>260.64999999999998</ele>
        <time>2025-04-23T11:55:55Z</time>
      </trkpt>
      <trkpt lat="47.245901031419635" lon="6.035331040620804">
        <ele>253.93000000000001</ele>
        <time>2025-04-23T11:56:04Z</time>
      </trkpt>
      <trkpt lat="47.245725011453032" lon="6.035242024809122">
        <ele>251.03999999999999</ele>
        <time>2025-04-23T11:56:12Z</time>
      </trkpt>
      <trkpt lat="47.2455919906497" lon="6.035212017595768">
        <ele>250.08000000000001</ele>
        <time>2025-04-23T11:56:14Z</time>
      </trkpt>
      <trkpt lat="47.245514038950205" lon="6.035200031474233">
        <ele>249.59999999999999</ele>
        <time>2025-04-23T11:56:15Z</time>
      </trkpt>
      <trkpt lat="47.245432985946536" lon="6.035187039524317">
        <ele>249.12</ele>
        <time>2025-04-23T11:56:16Z</time>
      </trkpt>
      <trkpt lat="47.245347993448377" lon="6.035168012604117">
        <ele>248.63999999999999</ele>
        <time>2025-04-23T11:56:17Z</time>
      </trkpt>
      <trkpt lat="47.245258977636695" lon="6.035144962370396">
        <ele>248.16</ele>
        <time>2025-04-23T11:56:18Z</time>
      </trkpt>
      <trkpt lat="47.244078973308206" lon="6.034640958532691">
        <ele>247.68000000000001</ele>
        <time>2025-04-23T11:56:31Z</time>
      </trkpt>
      <trkpt lat="47.24378895945847" lon="6.034490000456572">
        <ele>249.12</ele>
        <time>2025-04-23T11:56:34Z</time>
      </trkpt>
      <trkpt lat="47.242762008681893" lon="6.033848030492663">
        <ele>250.56</ele>
        <time>2025-04-23T11:56:45Z</time>
      </trkpt>
      <trkpt lat="47.242693025618792" lon="6.033796984702349">
        <ele>250.56</ele>
        <time>2025-04-23T11:56:46Z</time>
      </trkpt>
      <trkpt lat="47.242630999535322" lon="6.033749962225556">
        <ele>250.56</ele>
        <time>2025-04-23T11:56:47Z</time>
      </trkpt>
      <trkpt lat="47.242577020078897" lon="6.033708974719048">
        <ele>250.56</ele>
        <time>2025-04-23T11:56:48Z</time>
      </trkpt>
      <trkpt lat="47.2424559853971" lon="6.033618031069636">
        <ele>250.56</ele>
        <time>2025-04-23T11:56:55Z</time>
      </trkpt>
      <trkpt lat="47.242241995409131" lon="6.033443016931415">
        <ele>251.03999999999999</ele>
        <time>2025-04-23T11:57:07Z</time>
      </trkpt>
      <trkpt lat="47.242118027061224" lon="6.033345032483339">
        <ele>251.52000000000001</ele>
        <time>2025-04-23T11:57:09Z</time>
      </trkpt>
      <trkpt lat="47.241669008508325" lon="6.032877992838621">
        <ele>251.52000000000001</ele>
        <time>2025-04-23T11:57:17Z</time>
      </trkpt>
      <trkpt lat="47.241633972153068" lon="6.032840022817254">
        <ele>251.52000000000001</ele>
        <time>2025-04-23T11:57:18Z</time>
      </trkpt>
      <trkpt lat="47.241605976596475" lon="6.032808003947139">
        <ele>252</ele>
        <time>2025-04-23T11:57:19Z</time>
      </trkpt>
      <trkpt lat="47.241589967161417" lon="6.032788977026939">
        <ele>251.52000000000001</ele>
        <time>2025-04-23T11:57:20Z</time>
      </trkpt>
      <trkpt lat="47.241589967161417" lon="6.032788977026939">
        <ele>252</ele>
        <time>2025-04-23T11:57:33Z</time>
      </trkpt>
      <trkpt lat="47.241524001583457" lon="6.032694010064006">
        <ele>254.41</ele>
        <time>2025-04-23T11:57:51Z</time>
      </trkpt>
      <trkpt lat="47.241598013788462" lon="6.032481025904417">
        <ele>254.88999999999999</ele>
        <time>2025-04-23T11:57:52Z</time>
      </trkpt>
      <trkpt lat="47.241617040708661" lon="6.032442972064018">
        <ele>255.37</ele>
        <time>2025-04-23T11:57:53Z</time>
      </trkpt>
      <trkpt lat="47.241741009056568" lon="6.032195035368204">
        <ele>255.37</ele>
        <time>2025-04-23T11:57:56Z</time>
      </trkpt>
      <trkpt lat="47.242116015404463" lon="6.031333040446043">
        <ele>254.41</ele>
        <time>2025-04-23T11:58:05Z</time>
      </trkpt>
      <trkpt lat="47.242221962660551" lon="6.031016958877444">
        <ele>253.93000000000001</ele>
        <time>2025-04-23T11:58:08Z</time>
      </trkpt>
      <trkpt lat="47.242286000400782" lon="6.030813027173281">
        <ele>253.44</ele>
        <time>2025-04-23T11:58:10Z</time>
      </trkpt>
      <trkpt lat="47.242316007614136" lon="6.030714958906174">
        <ele>253.44</ele>
        <time>2025-04-23T11:58:11Z</time>
      </trkpt>
      <trkpt lat="47.242345008999109" lon="6.030612029135227">
        <ele>253.44</ele>
        <time>2025-04-23T11:58:12Z</time>
      </trkpt>
      <trkpt lat="47.242421032860875" lon="6.030217995867133">
        <ele>254.41</ele>
        <time>2025-04-23T11:58:16Z</time>
      </trkpt>
      <trkpt lat="47.242477023974061" lon="6.029778029769659">
        <ele>254.88999999999999</ele>
        <time>2025-04-23T11:58:24Z</time>
      </trkpt>
      <trkpt lat="47.242477023974061" lon="6.029778029769659">
        <ele>254.88999999999999</ele>
        <time>2025-04-23T11:58:46Z</time>
      </trkpt>
      <trkpt lat="47.242508959025145" lon="6.029328005388379">
        <ele>256.32999999999998</ele>
        <time>2025-04-23T11:58:52Z</time>
      </trkpt>
      <trkpt lat="47.242512982338667" lon="6.029236977919936">
        <ele>256.32999999999998</ele>
        <time>2025-04-23T11:58:53Z</time>
      </trkpt>
      <trkpt lat="47.242537038400769" lon="6.02877102792263">
        <ele>256.81</ele>
        <time>2025-04-23T11:58:58Z</time>
      </trkpt>
      <trkpt lat="47.242542989552021" lon="6.02866499684751">
        <ele>256.81</ele>
        <time>2025-04-23T11:58:59Z</time>
      </trkpt>
      <trkpt lat="47.242548018693924" lon="6.028562989085913">
        <ele>256.81</ele>
        <time>2025-04-23T11:59:00Z</time>
      </trkpt>
      <trkpt lat="47.242630999535322" lon="6.027309978380799">
        <ele>254.41</ele>
        <time>2025-04-23T11:59:10Z</time>
      </trkpt>
      <trkpt lat="47.242661006748676" lon="6.026960033923388">
        <ele>253.44</ele>
        <time>2025-04-23T11:59:13Z</time>
      </trkpt>
      <trkpt lat="47.24266997538507" lon="6.02685802616179">
        <ele>253.44</ele>
        <time>2025-04-23T11:59:14Z</time>
      </trkpt>
      <trkpt lat="47.24271004088223" lon="6.026356033980846">
        <ele>251.03999999999999</ele>
        <time>2025-04-23T11:59:19Z</time>
      </trkpt>
      <trkpt lat="47.242719009518623" lon="6.026186970993877">
        <ele>250.08000000000001</ele>
        <time>2025-04-23T11:59:25Z</time>
      </trkpt>
      <trkpt lat="47.242720015347004" lon="6.026159981265664">
        <ele>250.08000000000001</ele>
        <time>2025-04-23T11:59:54Z</time>
      </trkpt>
      <trkpt lat="47.242916990071535" lon="6.025991002097726">
        <ele>250.08000000000001</ele>
        <time>2025-04-23T11:59:55Z</time>
      </trkpt>
      <trkpt lat="47.242959989234805" lon="6.026028972119093">
        <ele>249.59999999999999</ele>
        <time>2025-04-23T11:59:56Z</time>
      </trkpt>
      <trkpt lat="47.243018997833133" lon="6.026082029566169">
        <ele>248.63999999999999</ele>
        <time>2025-04-23T11:59:57Z</time>
      </trkpt>
      <trkpt lat="47.243085969239473" lon="6.026141038164496">
        <ele>248.16</ele>
        <time>2025-04-23T11:59:58Z</time>
      </trkpt>
      <trkpt lat="47.243909994140267" lon="6.026874035596848">
        <ele>243.83000000000001</ele>
        <time>2025-04-23T12:00:09Z</time>
      </trkpt>
      <trkpt lat="47.24398098886013" lon="6.026936983689666">
        <ele>243.83000000000001</ele>
        <time>2025-04-23T12:00:10Z</time>
      </trkpt>
      <trkpt lat="47.244118032976985" lon="6.027061035856605">
        <ele>243.83000000000001</ele>
        <time>2025-04-23T12:00:12Z</time>
      </trkpt>
      <trkpt lat="47.244189027696848" lon="6.027131024748087">
        <ele>244.31</ele>
        <time>2025-04-23T12:00:13Z</time>
      </trkpt>
      <trkpt lat="47.244261028245091" lon="6.027201013639569">
        <ele>244.31</ele>
        <time>2025-04-23T12:00:14Z</time>
      </trkpt>
      <trkpt lat="47.244330011308193" lon="6.027268990874291">
        <ele>244.78999999999999</ele>
        <time>2025-04-23T12:00:15Z</time>
      </trkpt>
      <trkpt lat="47.244402011856437" lon="6.027337973937392">
        <ele>245.27000000000001</ele>
        <time>2025-04-23T12:00:16Z</time>
      </trkpt>
      <trkpt lat="47.2444730065763" lon="6.027407962828875">
        <ele>246.22999999999999</ele>
        <time>2025-04-23T12:00:17Z</time>
      </trkpt>
      <trkpt lat="47.244824040681124" lon="6.027750028297305">
        <ele>248.16</ele>
        <time>2025-04-23T12:00:22Z</time>
      </trkpt>
      <trkpt lat="47.244884977117181" lon="6.027809958904982">
        <ele>248.63999999999999</ele>
        <time>2025-04-23T12:00:23Z</time>
      </trkpt>
      <trkpt lat="47.244943985715508" lon="6.027867961674929">
        <ele>249.12</ele>
        <time>2025-04-23T12:00:24Z</time>
      </trkpt>
      <trkpt lat="47.24500902928412" lon="6.027925964444876">
        <ele>249.12</ele>
        <time>2025-04-23T12:00:25Z</time>
      </trkpt>
      <trkpt lat="47.245073989033699" lon="6.027974998578429">
        <ele>249.59999999999999</ele>
        <time>2025-04-23T12:00:26Z</time>
      </trkpt>
      <trkpt lat="47.245120005682111" lon="6.028014980256558">
        <ele>249.59999999999999</ele>
        <time>2025-04-23T12:00:27Z</time>
      </trkpt>
      <trkpt lat="47.245169039815664" lon="6.028056973591447">
        <ele>250.08000000000001</ele>
        <time>2025-04-23T12:00:28Z</time>
      </trkpt>
      <trkpt lat="47.245213966816664" lon="6.028095027431846">
        <ele>250.08000000000001</ele>
        <time>2025-04-23T12:00:29Z</time>
      </trkpt>
      <trkpt lat="47.24527096375823" lon="6.028185971081257">
        <ele>251.03999999999999</ele>
        <time>2025-04-23T12:00:36Z</time>
      </trkpt>
      <trkpt lat="47.24535402841866" lon="6.028331983834505">
        <ele>252.96000000000001</ele>
        <time>2025-04-23T12:00:57Z</time>
      </trkpt>
      <trkpt lat="47.245384035632014" lon="6.02838302962482">
        <ele>253.44</ele>
        <time>2025-04-23T12:00:58Z</time>
      </trkpt>
      <trkpt lat="47.245446983724833" lon="6.028397027403116">
        <ele>253.93000000000001</ele>
        <time>2025-04-23T12:00:59Z</time>
      </trkpt>
      <trkpt lat="47.24548202008009" lon="6.028391998261213">
        <ele>253.93000000000001</ele>
        <time>2025-04-23T12:01:00Z</time>
      </trkpt>
      <trkpt lat="47.245522001758218" lon="6.02838596329093">
        <ele>253.93000000000001</ele>
        <time>2025-04-23T12:01:01Z</time>
      </trkpt>
      <trkpt lat="47.245557960122824" lon="6.028375988826156">
        <ele>253.93000000000001</ele>
        <time>2025-04-23T12:01:02Z</time>
      </trkpt>
      <trkpt lat="47.245596013963223" lon="6.028353022411466">
        <ele>253.93000000000001</ele>
        <time>2025-04-23T12:01:03Z</time>
      </trkpt>
      <trkpt lat="47.24563398398459" lon="6.028329972177744">
        <ele>253.93000000000001</ele>
        <time>2025-04-23T12:01:04Z</time>
      </trkpt>
      <trkpt lat="47.245671031996608" lon="6.028308011591435">
        <ele>253.93000000000001</ele>
        <time>2025-04-23T12:01:05Z</time>
      </trkpt>
      <trkpt lat="47.24595601670444" lon="6.028165016323328">
        <ele>254.88999999999999</ele>
        <time>2025-04-23T12:01:11Z</time>
      </trkpt>
      <trkpt lat="47.246767971664667" lon="6.02808203548193">
        <ele>255.37</ele>
        <time>2025-04-23T12:01:21Z</time>
      </trkpt>
      <trkpt lat="47.247065026313066" lon="6.028166022151709">
        <ele>255.37</ele>
        <time>2025-04-23T12:01:25Z</time>
      </trkpt>
      <trkpt lat="47.247129986062646" lon="6.028198041021824">
        <ele>255.37</ele>
        <time>2025-04-23T12:01:26Z</time>
      </trkpt>
      <trkpt lat="47.247194023802876" lon="6.028229976072907">
        <ele>254.88999999999999</ele>
        <time>2025-04-23T12:01:27Z</time>
      </trkpt>
      <trkpt lat="47.247489988803864" lon="6.028354028239846">
        <ele>254.41</ele>
        <time>2025-04-23T12:01:36Z</time>
      </trkpt>
      <trkpt lat="47.247513039037585" lon="6.028348999097943">
        <ele>254.88999999999999</ele>
        <time>2025-04-23T12:01:47Z</time>
      </trkpt>
      <trkpt lat="47.247544974088669" lon="6.028341958299279">
        <ele>255.84999999999999</ele>
        <time>2025-04-23T12:01:48Z</time>
      </trkpt>
      <trkpt lat="47.247584033757448" lon="6.028332989662886">
        <ele>257.29000000000002</ele>
        <time>2025-04-23T12:01:49Z</time>
      </trkpt>
      <trkpt lat="47.247603982686996" lon="6.028220001608133">
        <ele>258.25</ele>
        <time>2025-04-23T12:01:50Z</time>
      </trkpt>
      <trkpt lat="47.247586967423558" lon="6.028183959424496">
        <ele>259.20999999999998</ele>
        <time>2025-04-23T12:01:51Z</time>
      </trkpt>
      <trkpt lat="47.247564001008868" lon="6.028132997453213">
        <ele>259.69</ele>
        <time>2025-04-23T12:01:52Z</time>
      </trkpt>
      <trkpt lat="47.247539022937417" lon="6.028080023825169">
        <ele>259.69</ele>
        <time>2025-04-23T12:01:53Z</time>
      </trkpt>
      <trkpt lat="47.247514966875315" lon="6.028026966378093">
        <ele>259.69</ele>
        <time>2025-04-23T12:01:54Z</time>
      </trkpt>
      <trkpt lat="47.247493006289005" lon="6.027979021891952">
        <ele>259.69</ele>
        <time>2025-04-23T12:01:55Z</time>
      </trkpt>
      <trkpt lat="47.247423017397523" lon="6.027825968340039">
        <ele>259.20999999999998</ele>
        <time>2025-04-23T12:02:05Z</time>
      </trkpt>
      <trkpt lat="47.247423017397523" lon="6.027825968340039">
        <ele>259.20999999999998</ele>
        <time>2025-04-23T12:02:46Z</time>
      </trkpt>
      <trkpt lat="47.247423017397523" lon="6.027825968340039">
        <ele>259.20999999999998</ele>
        <time>2025-04-23T12:03:28Z</time>
      </trkpt>
      <trkpt lat="47.247423017397523" lon="6.027825968340039">
        <ele>259.69</ele>
        <time>2025-04-23T12:04:03Z</time>
      </trkpt>
      <trkpt lat="47.247423017397523" lon="6.027825968340039">
        <ele>260.17000000000002</ele>
        <time>2025-04-23T12:04:48Z</time>
      </trkpt>
      <trkpt lat="47.247423017397523" lon="6.027825968340039">
        <ele>261.62</ele>
        <time>2025-04-23T12:05:30Z</time>
      </trkpt>
      <trkpt lat="47.247423017397523" lon="6.027825968340039">
        <ele>262.10000000000002</ele>
        <time>2025-04-23T12:06:05Z</time>
      </trkpt>
      <trkpt lat="47.247397033497691" lon="6.027768971398473">
        <ele>262.57999999999998</ele>
        <time>2025-04-23T12:06:42Z</time>
      </trkpt>
      <trkpt lat="47.247293014079332" lon="6.027544001117349">
        <ele>264.5</ele>
        <time>2025-04-23T12:06:47Z</time>
      </trkpt>
      <trkpt lat="47.247172985225916" lon="6.027283994480968">
        <ele>264.5</ele>
        <time>2025-04-23T12:06:51Z</time>
      </trkpt>
      <trkpt lat="47.247140966355801" lon="6.027215011417866">
        <ele>264.01999999999998</ele>
        <time>2025-04-23T12:06:52Z</time>
      </trkpt>
      <trkpt lat="47.247108025476336" lon="6.027142005041242">
        <ele>264.01999999999998</ele>
        <time>2025-04-23T12:06:53Z</time>
      </trkpt>
      <trkpt lat="47.24707399494946" lon="6.027068998664618">
        <ele>263.54000000000002</ele>
        <time>2025-04-23T12:06:54Z</time>
      </trkpt>
      <trkpt lat="47.247037030756474" lon="6.026988029479981">
        <ele>263.54000000000002</ele>
        <time>2025-04-23T12:06:55Z</time>
      </trkpt>
      <trkpt lat="47.246910966932774" lon="6.026714025065303">
        <ele>262.10000000000002</ele>
        <time>2025-04-23T12:06:58Z</time>
      </trkpt>
      <trkpt lat="47.246723966673017" lon="6.026341030374169">
        <ele>260.64999999999998</ele>
        <time>2025-04-23T12:07:02Z</time>
      </trkpt>
      <trkpt lat="47.246367987245321" lon="6.025694031268358">
        <ele>259.69</ele>
        <time>2025-04-23T12:07:10Z</time>
      </trkpt>
      <trkpt lat="47.245902959257364" lon="6.024680994451046">
        <ele>264.5</ele>
        <time>2025-04-23T12:07:21Z</time>
      </trkpt>
      <trkpt lat="47.245815033093095" lon="6.024468010291457">
        <ele>266.42000000000002</ele>
        <time>2025-04-23T12:07:24Z</time>
      </trkpt>
      <trkpt lat="47.245789971202612" lon="6.024335995316505">
        <ele>267.86000000000001</ele>
        <time>2025-04-23T12:07:30Z</time>
      </trkpt>
      <trkpt lat="47.245768010616302" lon="6.024218983948231">
        <ele>268.82999999999998</ele>
        <time>2025-04-23T12:07:33Z</time>
      </trkpt>
      <trkpt lat="47.245760969817638" lon="6.024176990613341">
        <ele>268.82999999999998</ele>
        <time>2025-04-23T12:07:34Z</time>
      </trkpt>
      <trkpt lat="47.245696010068059" lon="6.024027038365603">
        <ele>269.31</ele>
        <time>2025-04-23T12:07:35Z</time>
      </trkpt>
      <trkpt lat="47.245696010068059" lon="6.023855041712523">
        <ele>269.79000000000002</ele>
        <time>2025-04-23T12:07:36Z</time>
      </trkpt>
      <trkpt lat="47.245671031996608" lon="6.023789998143911">
        <ele>270.26999999999998</ele>
        <time>2025-04-23T12:07:37Z</time>
      </trkpt>
      <trkpt lat="47.245599031448364" lon="6.023771977052093">
        <ele>270.26999999999998</ele>
        <time>2025-04-23T12:07:38Z</time>
      </trkpt>
      <trkpt lat="47.245588973164558" lon="6.023768959566951">
        <ele>270.26999999999998</ele>
        <time>2025-04-23T12:07:39Z</time>
      </trkpt>
      <trkpt lat="47.24541999399662" lon="6.023883959278464">
        <ele>269.79000000000002</ele>
        <time>2025-04-23T12:07:40Z</time>
      </trkpt>
      <trkpt lat="47.245340030640364" lon="6.023839032277465">
        <ele>269.79000000000002</ele>
        <time>2025-04-23T12:07:41Z</time>
      </trkpt>
      <trkpt lat="47.245256965979934" lon="6.02374498732388">
        <ele>269.31</ele>
        <time>2025-04-23T12:07:42Z</time>
      </trkpt>
      <trkpt lat="47.2451810259372" lon="6.023653037846088">
        <ele>269.31</ele>
        <time>2025-04-23T12:07:43Z</time>
      </trkpt>
      <trkpt lat="47.245101984590292" lon="6.023515993729234">
        <ele>269.31</ele>
        <time>2025-04-23T12:07:44Z</time>
      </trkpt>
      <trkpt lat="47.245066026225686" lon="6.023374004289508">
        <ele>268.82999999999998</ele>
        <time>2025-04-23T12:07:45Z</time>
      </trkpt>
      <trkpt lat="47.245029984042048" lon="6.023234026506543">
        <ele>268.35000000000002</ele>
        <time>2025-04-23T12:07:46Z</time>
      </trkpt>
      <trkpt lat="47.244657995179296" lon="6.021870039403439">
        <ele>263.54000000000002</ele>
        <time>2025-04-23T12:07:57Z</time>
      </trkpt>
      <trkpt lat="47.244631005451083" lon="6.021763002499938">
        <ele>263.06</ele>
        <time>2025-04-23T12:07:59Z</time>
      </trkpt>
      <trkpt lat="47.244613990187645" lon="6.021697958931327">
        <ele>263.06</ele>
        <time>2025-04-23T12:08:00Z</time>
      </trkpt>
      <trkpt lat="47.24453997798264" lon="6.021741963922977">
        <ele>262.57999999999998</ele>
        <time>2025-04-23T12:08:01Z</time>
      </trkpt>
      <trkpt lat="47.244490021839738" lon="6.021749004721642">
        <ele>262.57999999999998</ele>
        <time>2025-04-23T12:08:02Z</time>
      </trkpt>
      <trkpt lat="47.244446016848087" lon="6.021754033863545">
        <ele>262.57999999999998</ele>
        <time>2025-04-23T12:08:03Z</time>
      </trkpt>
      <trkpt lat="47.244417015463114" lon="6.021757973358035">
        <ele>262.10000000000002</ele>
        <time>2025-04-23T12:08:04Z</time>
      </trkpt>
      <trkpt lat="47.244396982714534" lon="6.021760990843177">
        <ele>262.10000000000002</ele>
        <time>2025-04-23T12:08:05Z</time>
      </trkpt>
      <trkpt lat="47.244382984936237" lon="6.021763002499938">
        <ele>261.62</ele>
        <time>2025-04-23T12:08:07Z</time>
      </trkpt>
      <trkpt lat="47.244382984936237" lon="6.021763002499938">
        <ele>262.10000000000002</ele>
        <time>2025-04-23T12:08:25Z</time>
      </trkpt>
      <trkpt lat="47.244236972182989" lon="6.021730983629823">
        <ele>265.45999999999998</ele>
        <time>2025-04-23T12:08:42Z</time>
      </trkpt>
      <trkpt lat="47.24430100992322" lon="6.021881019696593">
        <ele>265.94</ele>
        <time>2025-04-23T12:08:43Z</time>
      </trkpt>
      <trkpt lat="47.24430100992322" lon="6.021773982793093">
        <ele>265.94</ele>
        <time>2025-04-23T12:08:44Z</time>
      </trkpt>
      <trkpt lat="47.24430100992322" lon="6.021773982793093">
        <ele>266.42000000000002</ele>
        <time>2025-04-23T12:08:45Z</time>
      </trkpt>
      <trkpt lat="47.24430100992322" lon="6.021773982793093">
        <ele>266.42000000000002</ele>
        <time>2025-04-23T12:08:59Z</time>
      </trkpt>
      <trkpt lat="47.24436697550118" lon="6.021765014156699">
        <ele>266.89999999999998</ele>
        <time>2025-04-23T12:09:28Z</time>
      </trkpt>
      <trkpt lat="47.244439981877804" lon="6.021755039691925">
        <ele>266.89999999999998</ele>
        <time>2025-04-23T12:09:30Z</time>
      </trkpt>
      <trkpt lat="47.244493961334229" lon="6.021747998893261">
        <ele>266.89999999999998</ele>
        <time>2025-04-23T12:09:31Z</time>
      </trkpt>
      <trkpt lat="47.244494967162609" lon="6.021967018023133">
        <ele>266.89999999999998</ele>
        <time>2025-04-23T12:09:32Z</time>
      </trkpt>
      <trkpt lat="47.244666963815689" lon="6.021903986111283">
        <ele>267.38</ele>
        <time>2025-04-23T12:09:33Z</time>
      </trkpt>
      <trkpt lat="47.24466604180634" lon="6.021902980282903">
        <ele>267.38</ele>
        <time>2025-04-23T12:09:34Z</time>
      </trkpt>
      <trkpt lat="47.244725972414017" lon="6.022126022726297">
        <ele>267.38</ele>
        <time>2025-04-23T12:09:35Z</time>
      </trkpt>
      <trkpt lat="47.244766959920526" lon="6.022258037701249">
        <ele>267.86000000000001</ele>
        <time>2025-04-23T12:09:36Z</time>
      </trkpt>
      <trkpt lat="47.244809959083796" lon="6.022393992170692">
        <ele>267.86000000000001</ele>
        <time>2025-04-23T12:09:37Z</time>
      </trkpt>
      <trkpt lat="47.24501196295023" lon="6.02316596545279">
        <ele>268.35000000000002</ele>
        <time>2025-04-23T12:09:45Z</time>
      </trkpt>
      <trkpt lat="47.245019003748894" lon="6.023191027343273">
        <ele>267.86000000000001</ele>
        <time>2025-04-23T12:09:56Z</time>
      </trkpt>
      <trkpt lat="47.245050016790628" lon="6.023339973762631">
        <ele>267.86000000000001</ele>
        <time>2025-04-23T12:10:06Z</time>
      </trkpt>
      <trkpt lat="47.245014980435371" lon="6.023514987900853">
        <ele>268.35000000000002</ele>
        <time>2025-04-23T12:10:07Z</time>
      </trkpt>
      <trkpt lat="47.244964018464088" lon="6.023591011762619">
        <ele>267.86000000000001</ele>
        <time>2025-04-23T12:10:08Z</time>
      </trkpt>
      <trkpt lat="47.244835020974278" lon="6.02363602258265">
        <ele>267.86000000000001</ele>
        <time>2025-04-23T12:10:09Z</time>
      </trkpt>
      <trkpt lat="47.244737958535552" lon="6.023650020360947">
        <ele>267.38</ele>
        <time>2025-04-23T12:10:10Z</time>
      </trkpt>
      <trkpt lat="47.244626982137561" lon="6.023667035624385">
        <ele>267.38</ele>
        <time>2025-04-23T12:10:11Z</time>
      </trkpt>
      <trkpt lat="47.243488971143961" lon="6.023883037269115">
        <ele>263.54000000000002</ele>
        <time>2025-04-23T12:10:20Z</time>
      </trkpt>
      <trkpt lat="47.243392998352647" lon="6.023920001462102">
        <ele>262.57999999999998</ele>
        <time>2025-04-23T12:10:21Z</time>
      </trkpt>
      <trkpt lat="47.243295013904572" lon="6.023993007838726">
        <ele>262.10000000000002</ele>
        <time>2025-04-23T12:10:22Z</time>
      </trkpt>
      <trkpt lat="47.24320599809289" lon="6.024074982851744">
        <ele>260.64999999999998</ele>
        <time>2025-04-23T12:10:23Z</time>
      </trkpt>
      <trkpt lat="47.243124023079872" lon="6.024167016148567">
        <ele>258.73000000000002</ele>
        <time>2025-04-23T12:10:24Z</time>
      </trkpt>
      <trkpt lat="47.243050010874867" lon="6.024258965626359">
        <ele>257.29000000000002</ele>
        <time>2025-04-23T12:10:25Z</time>
      </trkpt>
      <trkpt lat="47.243006005883217" lon="6.024372959509492">
        <ele>255.37</ele>
        <time>2025-04-23T12:10:26Z</time>
      </trkpt>
      <trkpt lat="47.24297096952796" lon="6.024463986977935">
        <ele>254.41</ele>
        <time>2025-04-23T12:10:27Z</time>
      </trkpt>
      <trkpt lat="47.242950014770031" lon="6.024519978091121">
        <ele>252.96000000000001</ele>
        <time>2025-04-23T12:10:28Z</time>
      </trkpt>
      <trkpt lat="47.242882959544659" lon="6.024763975292444">
        <ele>246.22999999999999</ele>
        <time>2025-04-23T12:10:36Z</time>
      </trkpt>
      <trkpt lat="47.242882959544659" lon="6.024763975292444">
        <ele>245.27000000000001</ele>
        <time>2025-04-23T12:11:21Z</time>
      </trkpt>
      <trkpt lat="47.242868039757013" lon="6.02481996640563">
        <ele>244.78999999999999</ele>
        <time>2025-04-23T12:11:34Z</time>
      </trkpt>
      <trkpt lat="47.242785980924964" lon="6.02533302269876">
        <ele>242.87</ele>
        <time>2025-04-23T12:11:41Z</time>
      </trkpt>
      <trkpt lat="47.242769971489906" lon="6.02548398077488">
        <ele>242.38999999999999</ele>
        <time>2025-04-23T12:11:43Z</time>
      </trkpt>
      <trkpt lat="47.242762008681893" lon="6.025565033778548">
        <ele>242.87</ele>
        <time>2025-04-23T12:11:44Z</time>
      </trkpt>
      <trkpt lat="47.242753962054849" lon="6.025640973821282">
        <ele>243.34999999999999</ele>
        <time>2025-04-23T12:11:45Z</time>
      </trkpt>
      <trkpt lat="47.242619013413787" lon="6.025780029594898">
        <ele>243.83000000000001</ele>
        <time>2025-04-23T12:11:46Z</time>
      </trkpt>
      <trkpt lat="47.24256201647222" lon="6.025755973532796">
        <ele>244.31</ele>
        <time>2025-04-23T12:11:47Z</time>
      </trkpt>
      <trkpt lat="47.242477023974061" lon="6.025722026824951">
        <ele>244.78999999999999</ele>
        <time>2025-04-23T12:11:48Z</time>
      </trkpt>
      <trkpt lat="47.242430001497269" lon="6.025710040703416">
        <ele>245.27000000000001</ele>
        <time>2025-04-23T12:11:49Z</time>
      </trkpt>
      <trkpt lat="47.241813009604812" lon="6.025554975494742">
        <ele>249.59999999999999</ele>
        <time>2025-04-23T12:11:59Z</time>
      </trkpt>
      <trkpt lat="47.241761041805148" lon="6.025550030171871">
        <ele>249.59999999999999</ele>
        <time>2025-04-23T12:12:00Z</time>
      </trkpt>
      <trkpt lat="47.241713013499975" lon="6.025547012686729">
        <ele>249.59999999999999</ele>
        <time>2025-04-23T12:12:01Z</time>
      </trkpt>
      <trkpt lat="47.241623997688293" lon="6.02552697993815">
        <ele>250.08000000000001</ele>
        <time>2025-04-23T12:12:09Z</time>
      </trkpt>
      <trkpt lat="47.241513021290302" lon="6.025509964674711">
        <ele>250.56</ele>
        <time>2025-04-23T12:12:15Z</time>
      </trkpt>
      <trkpt lat="47.241460969671607" lon="6.025502001866698">
        <ele>251.03999999999999</ele>
        <time>2025-04-23T12:12:16Z</time>
      </trkpt>
      <trkpt lat="47.241272963583469" lon="6.025474006310105">
        <ele>250.56</ele>
        <time>2025-04-23T12:12:22Z</time>
      </trkpt>
      <trkpt lat="47.241234993562102" lon="6.025335034355521">
        <ele>250.08000000000001</ele>
        <time>2025-04-23T12:12:23Z</time>
      </trkpt>
      <trkpt lat="47.241240022704005" lon="6.025307038798928">
        <ele>249.59999999999999</ele>
        <time>2025-04-23T12:12:24Z</time>
      </trkpt>
      <trkpt lat="47.241246979683638" lon="6.025272002443671">
        <ele>249.12</ele>
        <time>2025-04-23T12:12:25Z</time>
      </trkpt>
      <trkpt lat="47.241256032139063" lon="6.025219028815627">
        <ele>248.16</ele>
        <time>2025-04-23T12:12:26Z</time>
      </trkpt>
      <trkpt lat="47.241267012432218" lon="6.025159014388919">
        <ele>247.68000000000001</ele>
        <time>2025-04-23T12:12:27Z</time>
      </trkpt>
      <trkpt lat="47.241286039352417" lon="6.025056000798941">
        <ele>245.75</ele>
        <time>2025-04-23T12:12:36Z</time>
      </trkpt>
      <trkpt lat="47.241343958303332" lon="6.024712007492781">
        <ele>243.34999999999999</ele>
        <time>2025-04-23T12:12:51Z</time>
      </trkpt>
      <trkpt lat="47.241355022415519" lon="6.024576975032687">
        <ele>242.38999999999999</ele>
        <time>2025-04-23T12:12:57Z</time>
      </trkpt>
      <trkpt lat="47.241355022415519" lon="6.024576975032687">
        <ele>242.38999999999999</ele>
        <time>2025-04-23T12:13:37Z</time>
      </trkpt>
      <trkpt lat="47.241355022415519" lon="6.024576975032687">
        <ele>241.91</ele>
        <time>2025-04-23T12:14:34Z</time>
      </trkpt>
      <trkpt lat="47.241355022415519" lon="6.024576975032687">
        <ele>242.38999999999999</ele>
        <time>2025-04-23T12:15:39Z</time>
      </trkpt>
      <trkpt lat="47.241355022415519" lon="6.024576975032687">
        <ele>242.38999999999999</ele>
        <time>2025-04-23T12:16:06Z</time>
      </trkpt>
      <trkpt lat="47.241355022415519" lon="6.024576975032687">
        <ele>242.38999999999999</ele>
        <time>2025-04-23T12:16:07Z</time>
      </trkpt>
      <trkpt lat="47.241355022415519" lon="6.024576975032687">
        <ele>242.38999999999999</ele>
        <time>2025-04-23T12:16:08Z</time>
      </trkpt>
      <trkpt lat="47.241356028243899" lon="6.024572029709816">
        <ele>242.87</ele>
        <time>2025-04-23T12:16:10Z</time>
      </trkpt>
      <trkpt lat="47.241352004930377" lon="6.024612011387944">
        <ele>243.34999999999999</ele>
        <time>2025-04-23T12:16:11Z</time>
      </trkpt>
      <trkpt lat="47.241274975240231" lon="6.02511702105403">
        <ele>247.19999999999999</ele>
        <time>2025-04-23T12:16:21Z</time>
      </trkpt>
      <trkpt lat="47.241274975240231" lon="6.02511702105403">
        <ele>247.68000000000001</ele>
        <time>2025-04-23T12:16:32Z</time>
      </trkpt>
      <trkpt lat="47.241274975240231" lon="6.02511702105403">
        <ele>248.16</ele>
        <time>2025-04-23T12:16:47Z</time>
      </trkpt>
      <trkpt lat="47.241257037967443" lon="6.025215005502105">
        <ele>249.12</ele>
        <time>2025-04-23T12:17:05Z</time>
      </trkpt>
      <trkpt lat="47.241161987185478" lon="6.02578598074615">
        <ele>249.59999999999999</ele>
        <time>2025-04-23T12:17:13Z</time>
      </trkpt>
      <trkpt lat="47.241119993850589" lon="6.026055961847305">
        <ele>248.63999999999999</ele>
        <time>2025-04-23T12:17:16Z</time>
      </trkpt>
      <trkpt lat="47.241009017452598" lon="6.026744032278657">
        <ele>245.75</ele>
        <time>2025-04-23T12:17:24Z</time>
      </trkpt>
      <trkpt lat="47.240998037159443" lon="6.026809997856617">
        <ele>245.75</ele>
        <time>2025-04-23T12:17:25Z</time>
      </trkpt>
      <trkpt lat="47.240941962227225" lon="6.027082996442914">
        <ele>245.75</ele>
        <time>2025-04-23T12:17:33Z</time>
      </trkpt>
      <trkpt lat="47.240908015519381" lon="6.027249963954091">
        <ele>246.72</ele>
        <time>2025-04-23T12:18:06Z</time>
      </trkpt>
      <trkpt lat="47.240797039121389" lon="6.027736030519009">
        <ele>248.63999999999999</ele>
        <time>2025-04-23T12:18:15Z</time>
      </trkpt>
      <trkpt lat="47.240779018029571" lon="6.027801996096969">
        <ele>248.63999999999999</ele>
        <time>2025-04-23T12:18:16Z</time>
      </trkpt>
      <trkpt lat="47.240766026079655" lon="6.027853041887283">
        <ele>248.63999999999999</ele>
        <time>2025-04-23T12:18:17Z</time>
      </trkpt>
      <trkpt lat="47.240739036351442" lon="6.027953960001469">
        <ele>248.63999999999999</ele>
        <time>2025-04-23T12:18:18Z</time>
      </trkpt>
      <trkpt lat="47.240730989724398" lon="6.027972986921668">
        <ele>249.12</ele>
        <time>2025-04-23T12:18:19Z</time>
      </trkpt>
      <trkpt lat="47.240664018318057" lon="6.028129979968071">
        <ele>249.12</ele>
        <time>2025-04-23T12:18:21Z</time>
      </trkpt>
      <trkpt lat="47.240623030811548" lon="6.028224024921656">
        <ele>249.12</ele>
        <time>2025-04-23T12:18:22Z</time>
      </trkpt>
      <trkpt lat="47.240577014163136" lon="6.028332989662886">
        <ele>249.59999999999999</ele>
        <time>2025-04-23T12:18:23Z</time>
      </trkpt>
      <trkpt lat="47.240526974201202" lon="6.028451006859541">
        <ele>249.59999999999999</ele>
        <time>2025-04-23T12:18:24Z</time>
      </trkpt>
      <trkpt lat="47.240472994744778" lon="6.028573969379067">
        <ele>249.59999999999999</ele>
        <time>2025-04-23T12:18:25Z</time>
      </trkpt>
      <trkpt lat="47.239794982597232" lon="6.029967963695526">
        <ele>253.44</ele>
        <time>2025-04-23T12:18:36Z</time>
      </trkpt>
      <trkpt lat="47.239540005102754" lon="6.03031899780035">
        <ele>254.88999999999999</ele>
        <time>2025-04-23T12:18:41Z</time>
      </trkpt>
      <trkpt lat="47.239518966525793" lon="6.030346993356943">
        <ele>255.37</ele>
        <time>2025-04-23T12:18:42Z</time>
      </trkpt>
      <trkpt lat="47.239503040909767" lon="6.030369959771633">
        <ele>255.37</ele>
        <time>2025-04-23T12:18:43Z</time>
      </trkpt>
      <trkpt lat="47.239503040909767" lon="6.030369959771633">
        <ele>255.84999999999999</ele>
        <time>2025-04-23T12:18:52Z</time>
      </trkpt>
      <trkpt lat="47.239250997081399" lon="6.030689980834723">
        <ele>257.76999999999998</ele>
        <time>2025-04-23T12:18:59Z</time>
      </trkpt>
      <trkpt lat="47.238441975787282" lon="6.031531020998955">
        <ele>259.69</ele>
        <time>2025-04-23T12:19:09Z</time>
      </trkpt>
      <trkpt lat="47.238375004380941" lon="6.031600004062057">
        <ele>259.69</ele>
        <time>2025-04-23T12:19:10Z</time>
      </trkpt>
      <trkpt lat="47.23807199858129" lon="6.031905021518469">
        <ele>259.69</ele>
        <time>2025-04-23T12:19:16Z</time>
      </trkpt>
      <trkpt lat="47.238040985539556" lon="6.031932011246681">
        <ele>259.20999999999998</ele>
        <time>2025-04-23T12:19:17Z</time>
      </trkpt>
      <trkpt lat="47.238012989982963" lon="6.031955983489752">
        <ele>259.20999999999998</ele>
        <time>2025-04-23T12:19:18Z</time>
      </trkpt>
      <trkpt lat="47.237994968891144" lon="6.03197199292481">
        <ele>259.20999999999998</ele>
        <time>2025-04-23T12:19:19Z</time>
      </trkpt>
      <trkpt lat="47.237994968891144" lon="6.03197199292481">
        <ele>258.73000000000002</ele>
        <time>2025-04-23T12:19:33Z</time>
      </trkpt>
      <trkpt lat="47.237889021635056" lon="6.032065032050014">
        <ele>256.32999999999998</ele>
        <time>2025-04-23T12:19:42Z</time>
      </trkpt>
      <trkpt lat="47.237844010815024" lon="6.032104007899761">
        <ele>255.84999999999999</ele>
        <time>2025-04-23T12:19:43Z</time>
      </trkpt>
      <trkpt lat="47.237796988338232" lon="6.032146001234651">
        <ele>254.88999999999999</ele>
        <time>2025-04-23T12:19:44Z</time>
      </trkpt>
      <trkpt lat="47.237649969756603" lon="6.032193023711443">
        <ele>253.93000000000001</ele>
        <time>2025-04-23T12:19:46Z</time>
      </trkpt>
      <trkpt lat="47.237563971430063" lon="6.032201992347837">
        <ele>253.93000000000001</ele>
        <time>2025-04-23T12:19:47Z</time>
      </trkpt>
      <trkpt lat="47.23669602535665" lon="6.032854020595551">
        <ele>251.52000000000001</ele>
        <time>2025-04-23T12:19:58Z</time>
      </trkpt>
      <trkpt lat="47.235910976305604" lon="6.033317958936095">
        <ele>252.96000000000001</ele>
        <time>2025-04-23T12:20:07Z</time>
      </trkpt>
      <trkpt lat="47.235474027693272" lon="6.033587018027902">
        <ele>252.96000000000001</ele>
        <time>2025-04-23T12:20:13Z</time>
      </trkpt>
      <trkpt lat="47.235389035195112" lon="6.033638985827565">
        <ele>252.96000000000001</ele>
        <time>2025-04-23T12:20:14Z</time>
      </trkpt>
      <trkpt lat="47.235306976363063" lon="6.03369003161788">
        <ele>252.96000000000001</ele>
        <time>2025-04-23T12:20:15Z</time>
      </trkpt>
      <trkpt lat="47.235226007178426" lon="6.033739987760782">
        <ele>252.96000000000001</ele>
        <time>2025-04-23T12:20:16Z</time>
      </trkpt>
      <trkpt lat="47.235145037993789" lon="6.033789021894336">
        <ele>253.44</ele>
        <time>2025-04-23T12:20:17Z</time>
      </trkpt>
      <trkpt lat="47.234604991972446" lon="6.034113988280296">
        <ele>252.47999999999999</ele>
        <time>2025-04-23T12:20:24Z</time>
      </trkpt>
      <trkpt lat="47.234528968110681" lon="6.034158999100328">
        <ele>252.47999999999999</ele>
        <time>2025-04-23T12:20:25Z</time>
      </trkpt>
      <trkpt lat="47.234182041138411" lon="6.034367959946394">
        <ele>252.47999999999999</ele>
        <time>2025-04-23T12:20:30Z</time>
      </trkpt>
      <trkpt lat="47.234130995348096" lon="6.034399978816509">
        <ele>252.47999999999999</ele>
        <time>2025-04-23T12:20:31Z</time>
      </trkpt>
      <trkpt lat="47.2340979706496" lon="6.03442101739347">
        <ele>252.47999999999999</ele>
        <time>2025-04-23T12:20:32Z</time>
      </trkpt>
      <trkpt lat="47.234076010063291" lon="6.034435015171766">
        <ele>252.47999999999999</ele>
        <time>2025-04-23T12:20:33Z</time>
      </trkpt>
      <trkpt lat="47.234057988971472" lon="6.034447001293302">
        <ele>252.96000000000001</ele>
        <time>2025-04-23T12:20:34Z</time>
      </trkpt>
      <trkpt lat="47.234001997858286" lon="6.034348011016846">
        <ele>252.96000000000001</ele>
        <time>2025-04-23T12:20:35Z</time>
      </trkpt>
      <trkpt lat="47.233983976766467" lon="6.034303000196815">
        <ele>252.96000000000001</ele>
        <time>2025-04-23T12:20:36Z</time>
      </trkpt>
      <trkpt lat="47.233847016468644" lon="6.033910978585482">
        <ele>252</ele>
        <time>2025-04-23T12:20:46Z</time>
      </trkpt>
      <trkpt lat="47.233826983720064" lon="6.033869991078973">
        <ele>252</ele>
        <time>2025-04-23T12:20:50Z</time>
      </trkpt>
      <trkpt lat="47.233809968456626" lon="6.033835960552096">
        <ele>251.52000000000001</ele>
        <time>2025-04-23T12:20:51Z</time>
      </trkpt>
      <trkpt lat="47.233809968456626" lon="6.033835960552096">
        <ele>251.03999999999999</ele>
        <time>2025-04-23T12:21:03Z</time>
      </trkpt>
      <trkpt lat="47.233788007870317" lon="6.033792039379478">
        <ele>250.56</ele>
        <time>2025-04-23T12:21:05Z</time>
      </trkpt>
      <trkpt lat="47.233789013698697" lon="6.033794973045588">
        <ele>250.08000000000001</ele>
        <time>2025-04-23T12:21:06Z</time>
      </trkpt>
      <trkpt lat="47.233851961791515" lon="6.033639991655946">
        <ele>249.59999999999999</ele>
        <time>2025-04-23T12:21:07Z</time>
      </trkpt>
      <trkpt lat="47.233890015631914" lon="6.033613001927733">
        <ele>249.12</ele>
        <time>2025-04-23T12:21:08Z</time>
      </trkpt>
      <trkpt lat="47.233952041715384" lon="6.033568996936083">
        <ele>248.16</ele>
        <time>2025-04-23T12:21:09Z</time>
      </trkpt>
      <trkpt lat="47.23409503698349" lon="6.033467995002866">
        <ele>247.19999999999999</ele>
        <time>2025-04-23T12:21:11Z</time>
      </trkpt>
      <trkpt lat="47.234215987846255" lon="6.033381996676326">
        <ele>246.22999999999999</ele>
        <time>2025-04-23T12:21:12Z</time>
      </trkpt>
      <trkpt lat="47.2343759983778" lon="6.033239001408219">
        <ele>244.78999999999999</ele>
        <time>2025-04-23T12:21:15Z</time>
      </trkpt>
      <trkpt lat="47.234502984210849" lon="6.033106986433268">
        <ele>243.83000000000001</ele>
        <time>2025-04-23T12:21:17Z</time>
      </trkpt>
      <trkpt lat="47.234554030001163" lon="6.033048983663321">
        <ele>243.83000000000001</ele>
        <time>2025-04-23T12:21:18Z</time>
      </trkpt>
      <trkpt lat="47.234599040821195" lon="6.032972959801555">
        <ele>243.34999999999999</ele>
        <time>2025-04-23T12:21:19Z</time>
      </trkpt>
      <trkpt lat="47.234624018892646" lon="6.032910011708736">
        <ele>242.87</ele>
        <time>2025-04-23T12:21:20Z</time>
      </trkpt>
      <trkpt lat="47.234651008620858" lon="6.032843040302396">
        <ele>242.38999999999999</ele>
        <time>2025-04-23T12:21:21Z</time>
      </trkpt>
      <trkpt lat="47.234683027490973" lon="6.032763998955488">
        <ele>242.38999999999999</ele>
        <time>2025-04-23T12:21:22Z</time>
      </trkpt>
      <trkpt lat="47.234751004725695" lon="6.032584961503744">
        <ele>242.38999999999999</ele>
        <time>2025-04-23T12:21:24Z</time>
      </trkpt>
      <trkpt lat="47.235117964446545" lon="6.031814999878407">
        <ele>239.50999999999999</ele>
        <time>2025-04-23T12:21:34Z</time>
      </trkpt>
      <trkpt lat="47.235153000801802" lon="6.031763032078743">
        <ele>239.50999999999999</ele>
        <time>2025-04-23T12:21:35Z</time>
      </trkpt>
      <trkpt lat="47.235184013843536" lon="6.031716009601951">
        <ele>239.02000000000001</ele>
        <time>2025-04-23T12:21:36Z</time>
      </trkpt>
      <trkpt lat="47.235211003571749" lon="6.031676027923822">
        <ele>238.53999999999999</ele>
        <time>2025-04-23T12:21:37Z</time>
      </trkpt>
      <trkpt lat="47.2352359816432" lon="6.031637974083424">
        <ele>238.06</ele>
        <time>2025-04-23T12:21:38Z</time>
      </trkpt>
      <trkpt lat="47.235260959714651" lon="6.031600004062057">
        <ele>237.58000000000001</ele>
        <time>2025-04-23T12:21:39Z</time>
      </trkpt>
      <trkpt lat="47.235290966928005" lon="6.031557004898787">
        <ele>237.09999999999999</ele>
        <time>2025-04-23T12:21:40Z</time>
      </trkpt>
      <trkpt lat="47.235289039090276" lon="6.031559016555548">
        <ele>237.09999999999999</ele>
        <time>2025-04-23T12:21:41Z</time>
      </trkpt>
      <trkpt lat="47.235289039090276" lon="6.031450973823667">
        <ele>236.62</ele>
        <time>2025-04-23T12:21:42Z</time>
      </trkpt>
      <trkpt lat="47.235284009948373" lon="6.031434964388609">
        <ele>236.13999999999999</ele>
        <time>2025-04-23T12:21:43Z</time>
      </trkpt>
      <trkpt lat="47.23525601439178" lon="6.031342009082437">
        <ele>235.66</ele>
        <time>2025-04-23T12:21:44Z</time>
      </trkpt>
      <trkpt lat="47.235227013006806" lon="6.031246036291122">
        <ele>235.18000000000001</ele>
        <time>2025-04-23T12:21:45Z</time>
      </trkpt>
      <trkpt lat="47.235199017450213" lon="6.031154002994299">
        <ele>234.69999999999999</ele>
        <time>2025-04-23T12:21:46Z</time>
      </trkpt>
      <trkpt lat="47.235143026337028" lon="6.030969014391303">
        <ele>234.69999999999999</ele>
        <time>2025-04-23T12:21:48Z</time>
      </trkpt>
      <trkpt lat="47.235114024952054" lon="6.030874969437718">
        <ele>234.22</ele>
        <time>2025-04-23T12:21:49Z</time>
      </trkpt>
      <trkpt lat="47.235074965283275" lon="6.030743038281798">
        <ele>233.74000000000001</ele>
        <time>2025-04-23T12:21:50Z</time>
      </trkpt>
      <trkpt lat="47.235070019960403" lon="6.030676988884807">
        <ele>233.74000000000001</ele>
        <time>2025-04-23T12:21:51Z</time>
      </trkpt>
      <trkpt lat="47.23506398499012" lon="6.030590990558267">
        <ele>233.25999999999999</ele>
        <time>2025-04-23T12:21:52Z</time>
      </trkpt>
      <trkpt lat="47.235059039667249" lon="6.030514966696501">
        <ele>233.25999999999999</ele>
        <time>2025-04-23T12:21:53Z</time>
      </trkpt>
      <trkpt lat="47.235055016353726" lon="6.030445983633399">
        <ele>232.78</ele>
        <time>2025-04-23T12:21:54Z</time>
      </trkpt>
      <trkpt lat="47.235050993040204" lon="6.030390998348594">
        <ele>232.30000000000001</ele>
        <time>2025-04-23T12:21:55Z</time>
      </trkpt>
      <trkpt lat="47.235047975555062" lon="6.030344981700182">
        <ele>232.30000000000001</ele>
        <time>2025-04-23T12:21:56Z</time>
      </trkpt>
      <trkpt lat="47.235045963898301" lon="6.030314974486828">
        <ele>231.81</ele>
        <time>2025-04-23T12:21:57Z</time>
      </trkpt>
      <trkpt lat="47.234931970015168" lon="6.030184971168637">
        <ele>231.81</ele>
        <time>2025-04-23T12:21:58Z</time>
      </trkpt>
      <trkpt lat="47.234881008043885" lon="6.030227970331907">
        <ele>231.81</ele>
        <time>2025-04-23T12:21:59Z</time>
      </trkpt>
      <trkpt lat="47.234846977517009" lon="6.030262000858784">
        <ele>231.81</ele>
        <time>2025-04-23T12:22:00Z</time>
      </trkpt>
      <trkpt lat="47.2348059900105" lon="6.030303994193673">
        <ele>231.81</ele>
        <time>2025-04-23T12:22:01Z</time>
      </trkpt>
      <trkpt lat="47.23476299084723" lon="6.030346993356943">
        <ele>231.33000000000001</ele>
        <time>2025-04-23T12:22:02Z</time>
      </trkpt>
      <trkpt lat="47.234717980027199" lon="6.030392004176974">
        <ele>231.33000000000001</ele>
        <time>2025-04-23T12:22:03Z</time>
      </trkpt>
      <trkpt lat="47.234710017219186" lon="6.030399966984987">
        <ele>231.33000000000001</ele>
        <time>2025-04-23T12:22:04Z</time>
      </trkpt>
      <trkpt lat="47.234634999185801" lon="6.030399966984987">
        <ele>231.33000000000001</ele>
        <time>2025-04-23T12:22:05Z</time>
      </trkpt>
      <trkpt lat="47.234602980315685" lon="6.030399966984987">
        <ele>231.33000000000001</ele>
        <time>2025-04-23T12:22:06Z</time>
      </trkpt>
      <trkpt lat="47.234572973102331" lon="6.03036199696362">
        <ele>230.84999999999999</ele>
        <time>2025-04-23T12:22:07Z</time>
      </trkpt>
      <trkpt lat="47.234532991424203" lon="6.030312962830067">
        <ele>230.84999999999999</ele>
        <time>2025-04-23T12:22:08Z</time>
      </trkpt>
      <trkpt lat="47.234516981989145" lon="6.030293013900518">
        <ele>230.37</ele>
        <time>2025-04-23T12:22:10Z</time>
      </trkpt>
      <trkpt lat="47.234412040561438" lon="6.030053040012717">
        <ele>230.84999999999999</ele>
        <time>2025-04-23T12:22:14Z</time>
      </trkpt>
      <trkpt lat="47.234366023913026" lon="6.029949020594358">
        <ele>230.84999999999999</ele>
        <time>2025-04-23T12:22:15Z</time>
      </trkpt>
      <trkpt lat="47.234366023913026" lon="6.029949020594358">
        <ele>231.81</ele>
        <time>2025-04-23T12:22:16Z</time>
      </trkpt>
      <trkpt lat="47.23443903028965" lon="6.029839972034097">
        <ele>232.30000000000001</ele>
        <time>2025-04-23T12:22:18Z</time>
      </trkpt>
      <trkpt lat="47.234479011967778" lon="6.02978004142642">
        <ele>232.78</ele>
        <time>2025-04-23T12:22:19Z</time>
      </trkpt>
      <trkpt lat="47.234642039984465" lon="6.02950100786984">
        <ele>233.25999999999999</ele>
        <time>2025-04-23T12:22:28Z</time>
      </trkpt>
      <trkpt lat="47.234667018055916" lon="6.029455997049809">
        <ele>233.25999999999999</ele>
        <time>2025-04-23T12:22:36Z</time>
      </trkpt>
      <trkpt lat="47.234843038022518" lon="6.02960703894496">
        <ele>231.81</ele>
        <time>2025-04-23T12:22:40Z</time>
      </trkpt>
      <trkpt lat="47.235031966120005" lon="6.02990903891623">
        <ele>232.30000000000001</ele>
        <time>2025-04-23T12:22:52Z</time>
      </trkpt>
      <trkpt lat="47.235031966120005" lon="6.02990903891623">
        <ele>232.30000000000001</ele>
        <time>2025-04-23T12:23:11Z</time>
      </trkpt>
      <trkpt lat="47.235031966120005" lon="6.029942985624075">
        <ele>232.30000000000001</ele>
        <time>2025-04-23T12:23:20Z</time>
      </trkpt>
      <trkpt lat="47.234933981671929" lon="6.030182959511876">
        <ele>232.30000000000001</ele>
        <time>2025-04-23T12:23:25Z</time>
      </trkpt>
      <trkpt lat="47.234790986403823" lon="6.03031899780035">
        <ele>232.78</ele>
        <time>2025-04-23T12:23:28Z</time>
      </trkpt>
      <trkpt lat="47.234710017219186" lon="6.030399966984987">
        <ele>232.78</ele>
        <time>2025-04-23T12:23:29Z</time>
      </trkpt>
      <trkpt lat="47.234642961993814" lon="6.030399966984987">
        <ele>232.78</ele>
        <time>2025-04-23T12:23:30Z</time>
      </trkpt>
      <trkpt lat="47.234543971717358" lon="6.030326960608363">
        <ele>232.78</ele>
        <time>2025-04-23T12:23:31Z</time>
      </trkpt>
      <trkpt lat="47.234516981989145" lon="6.030293013900518">
        <ele>232.30000000000001</ele>
        <time>2025-04-23T12:23:32Z</time>
      </trkpt>
      <trkpt lat="47.234469959512353" lon="6.030184971168637">
        <ele>232.30000000000001</ele>
        <time>2025-04-23T12:23:33Z</time>
      </trkpt>
      <trkpt lat="47.23444196395576" lon="6.030121017247438">
        <ele>231.33000000000001</ele>
        <time>2025-04-23T12:23:39Z</time>
      </trkpt>
      <trkpt lat="47.234424026682973" lon="6.03008103556931">
        <ele>232.78</ele>
        <time>2025-04-23T12:23:45Z</time>
      </trkpt>
      <trkpt lat="47.234408017247915" lon="6.030042981728911">
        <ele>233.74000000000001</ele>
        <time>2025-04-23T12:23:46Z</time>
      </trkpt>
      <trkpt lat="47.234367029741406" lon="6.029948014765978">
        <ele>234.22</ele>
        <time>2025-04-23T12:23:47Z</time>
      </trkpt>
      <trkpt lat="47.234619995579123" lon="6.029541995376349">
        <ele>236.13999999999999</ele>
        <time>2025-04-23T12:24:01Z</time>
      </trkpt>
      <trkpt lat="47.234667018055916" lon="6.029455997049809">
        <ele>238.53999999999999</ele>
        <time>2025-04-23T12:24:15Z</time>
      </trkpt>
      <trkpt lat="47.234667018055916" lon="6.029455997049809">
        <ele>238.53999999999999</ele>
        <time>2025-04-23T12:24:32Z</time>
      </trkpt>
      <trkpt lat="47.234915038570762" lon="6.029469994828105">
        <ele>261.13999999999999</ele>
        <time>2025-04-23T13:11:33Z</time>
      </trkpt>
      <trkpt lat="47.234911015257239" lon="6.029476029798389">
        <ele>261.13999999999999</ele>
        <time>2025-04-23T13:12:31Z</time>
      </trkpt>
      <trkpt lat="47.234911015257239" lon="6.029464965686202">
        <ele>262.10000000000002</ele>
        <time>2025-04-23T13:13:23Z</time>
      </trkpt>
      <trkpt lat="47.234920989722013" lon="6.029454991221428">
        <ele>262.57999999999998</ele>
        <time>2025-04-23T13:14:02Z</time>
      </trkpt>
      <trkpt lat="47.234910009428859" lon="6.029457002878189">
        <ele>263.54000000000002</ele>
        <time>2025-04-23T13:14:52Z</time>
      </trkpt>
      <trkpt lat="47.234913026914001" lon="6.029451973736286">
        <ele>264.01999999999998</ele>
        <time>2025-04-23T13:15:46Z</time>
      </trkpt>
      <trkpt lat="47.234918978065252" lon="6.02945901453495">
        <ele>264.01999999999998</ele>
        <time>2025-04-23T13:16:30Z</time>
      </trkpt>
      <trkpt lat="47.23491202108562" lon="6.029460020363331">
        <ele>264.98000000000002</ele>
        <time>2025-04-23T13:17:58Z</time>
      </trkpt>
      <trkpt lat="47.23491202108562" lon="6.029460020363331">
        <ele>264.98000000000002</ele>
        <time>2025-04-23T13:18:33Z</time>
      </trkpt>
      <trkpt lat="47.234893999993801" lon="6.029536966234446">
        <ele>265.45999999999998</ele>
        <time>2025-04-23T13:18:36Z</time>
      </trkpt>
      <trkpt lat="47.234917972236872" lon="6.029578959569335">
        <ele>265.45999999999998</ele>
        <time>2025-04-23T13:18:37Z</time>
      </trkpt>
      <trkpt lat="47.234945967793465" lon="6.029627993702889">
        <ele>265.45999999999998</ele>
        <time>2025-04-23T13:18:38Z</time>
      </trkpt>
      <trkpt lat="47.234975975006819" lon="6.029679961502552">
        <ele>265.45999999999998</ele>
        <time>2025-04-23T13:18:39Z</time>
      </trkpt>
      <trkpt lat="47.235005982220173" lon="6.029732013121247">
        <ele>265.45999999999998</ele>
        <time>2025-04-23T13:18:40Z</time>
      </trkpt>
      <trkpt lat="47.235031966120005" lon="6.029778029769659">
        <ele>265.45999999999998</ele>
        <time>2025-04-23T13:18:42Z</time>
      </trkpt>
      <trkpt lat="47.235031966120005" lon="6.029884982854128">
        <ele>265.94</ele>
        <time>2025-04-23T13:18:43Z</time>
      </trkpt>
      <trkpt lat="47.235031966120005" lon="6.029958995059133">
        <ele>265.45999999999998</ele>
        <time>2025-04-23T13:18:44Z</time>
      </trkpt>
      <trkpt lat="47.235031966120005" lon="6.030024960637093">
        <ele>265.45999999999998</ele>
        <time>2025-04-23T13:18:45Z</time>
      </trkpt>
      <trkpt lat="47.235031966120005" lon="6.030071983113885">
        <ele>265.45999999999998</ele>
        <time>2025-04-23T13:18:46Z</time>
      </trkpt>
      <trkpt lat="47.23512701690197" lon="6.03008002974093">
        <ele>265.45999999999998</ele>
        <time>2025-04-23T13:18:47Z</time>
      </trkpt>
      <trkpt lat="47.235139003023505" lon="6.030078018084168">
        <ele>264.98000000000002</ele>
        <time>2025-04-23T13:18:48Z</time>
      </trkpt>
      <trkpt lat="47.235179990530014" lon="6.030047005042434">
        <ele>264.98000000000002</ele>
        <time>2025-04-23T13:18:49Z</time>
      </trkpt>
      <trkpt lat="47.235229024663568" lon="6.030009035021067">
        <ele>264.98000000000002</ele>
        <time>2025-04-23T13:18:50Z</time>
      </trkpt>
      <trkpt lat="47.235280992463231" lon="6.029968969523907">
        <ele>264.5</ele>
        <time>2025-04-23T13:18:51Z</time>
      </trkpt>
      <trkpt lat="47.235330026596785" lon="6.02993200533092">
        <ele>264.5</ele>
        <time>2025-04-23T13:18:52Z</time>
      </trkpt>
      <trkpt lat="47.235377971082926" lon="6.029895963147283">
        <ele>264.5</ele>
        <time>2025-04-23T13:18:53Z</time>
      </trkpt>
      <trkpt lat="47.235503029078245" lon="6.029799990355969">
        <ele>263.54000000000002</ele>
        <time>2025-04-23T13:18:56Z</time>
      </trkpt>
      <trkpt lat="47.235551979392767" lon="6.029749028384686">
        <ele>263.06</ele>
        <time>2025-04-23T13:18:57Z</time>
      </trkpt>
      <trkpt lat="47.235603025183082" lon="6.02969697676599">
        <ele>262.57999999999998</ele>
        <time>2025-04-23T13:18:58Z</time>
      </trkpt>
      <trkpt lat="47.235768986865878" lon="6.02952397428453">
        <ele>261.13999999999999</ele>
        <time>2025-04-23T13:19:01Z</time>
      </trkpt>
      <trkpt lat="47.236046008765697" lon="6.029236977919936">
        <ele>259.20999999999998</ele>
        <time>2025-04-23T13:19:06Z</time>
      </trkpt>
      <trkpt lat="47.236082972958684" lon="6.029198002070189">
        <ele>259.20999999999998</ele>
        <time>2025-04-23T13:19:07Z</time>
      </trkpt>
      <trkpt lat="47.236123038455844" lon="6.02922398597002">
        <ele>259.20999999999998</ele>
        <time>2025-04-23T13:19:08Z</time>
      </trkpt>
      <trkpt lat="47.23615899682045" lon="6.029248964041472">
        <ele>259.20999999999998</ele>
        <time>2025-04-23T13:19:09Z</time>
      </trkpt>
      <trkpt lat="47.236192021518946" lon="6.029271008446813">
        <ele>259.20999999999998</ele>
        <time>2025-04-23T13:19:10Z</time>
      </trkpt>
      <trkpt lat="47.236206019297242" lon="6.029313001781702">
        <ele>259.20999999999998</ele>
        <time>2025-04-23T13:19:11Z</time>
      </trkpt>
      <trkpt lat="47.236193027347326" lon="6.029371004551649">
        <ele>259.20999999999998</ele>
        <time>2025-04-23T13:19:12Z</time>
      </trkpt>
      <trkpt lat="47.23617902956903" lon="6.029435964301229">
        <ele>258.73000000000002</ele>
        <time>2025-04-23T13:19:13Z</time>
      </trkpt>
      <trkpt lat="47.236164025962353" lon="6.029506959021092">
        <ele>258.73000000000002</ele>
        <time>2025-04-23T13:19:14Z</time>
      </trkpt>
      <trkpt lat="47.236148016527295" lon="6.029581977054477">
        <ele>258.73000000000002</ele>
        <time>2025-04-23T13:19:15Z</time>
      </trkpt>
      <trkpt lat="47.23611599765718" lon="6.029733018949628">
        <ele>258.73000000000002</ele>
        <time>2025-04-23T13:19:17Z</time>
      </trkpt>
      <trkpt lat="47.236099988222122" lon="6.029807031154633">
        <ele>259.20999999999998</ele>
        <time>2025-04-23T13:19:18Z</time>
      </trkpt>
      <trkpt lat="47.236081967130303" lon="6.02988800033927">
        <ele>259.20999999999998</ele>
        <time>2025-04-23T13:19:19Z</time>
      </trkpt>
      <trkpt lat="47.235993035137653" lon="6.030228976160288">
        <ele>259.20999999999998</ele>
        <time>2025-04-23T13:19:23Z</time>
      </trkpt>
      <trkpt lat="47.235970990732312" lon="6.030309023335576">
        <ele>259.20999999999998</ele>
        <time>2025-04-23T13:19:24Z</time>
      </trkpt>
      <trkpt lat="47.23590100184083" lon="6.03057598695159">
        <ele>259.69</ele>
        <time>2025-04-23T13:19:27Z</time>
      </trkpt>
      <trkpt lat="47.235847022384405" lon="6.03074798360467">
        <ele>260.17000000000002</ele>
        <time>2025-04-23T13:19:29Z</time>
      </trkpt>
      <trkpt lat="47.235807962715626" lon="6.03083498775959">
        <ele>260.17000000000002</ele>
        <time>2025-04-23T13:19:30Z</time>
      </trkpt>
      <trkpt lat="47.235770998522639" lon="6.030916040763259">
        <ele>260.17000000000002</ele>
        <time>2025-04-23T13:19:31Z</time>
      </trkpt>
      <trkpt lat="47.235734034329653" lon="6.030999021604657">
        <ele>260.17000000000002</ele>
        <time>2025-04-23T13:19:32Z</time>
      </trkpt>
      <trkpt lat="47.235696986317635" lon="6.031082002446055">
        <ele>259.69</ele>
        <time>2025-04-23T13:19:33Z</time>
      </trkpt>
      <trkpt lat="47.23564401268959" lon="6.031164983287454">
        <ele>259.69</ele>
        <time>2025-04-23T13:19:34Z</time>
      </trkpt>
      <trkpt lat="47.235289039090276" lon="6.031559016555548">
        <ele>258.25</ele>
        <time>2025-04-23T13:19:40Z</time>
      </trkpt>
      <trkpt lat="47.235289039090276" lon="6.031559016555548">
        <ele>258.25</ele>
        <time>2025-04-23T13:19:41Z</time>
      </trkpt>
      <trkpt lat="47.235269006341696" lon="6.031589023768902">
        <ele>258.25</ele>
        <time>2025-04-23T13:19:42Z</time>
      </trkpt>
      <trkpt lat="47.235248973593116" lon="6.031619030982256">
        <ele>258.25</ele>
        <time>2025-04-23T13:19:43Z</time>
      </trkpt>
      <trkpt lat="47.235222989693284" lon="6.031658006832004">
        <ele>258.25</ele>
        <time>2025-04-23T13:19:44Z</time>
      </trkpt>
      <trkpt lat="47.235183008015156" lon="6.031718021258712">
        <ele>259.20999999999998</ele>
        <time>2025-04-23T13:19:45Z</time>
      </trkpt>
      <trkpt lat="47.235136991366744" lon="6.031787004321814">
        <ele>259.69</ele>
        <time>2025-04-23T13:19:46Z</time>
      </trkpt>
      <trkpt lat="47.234773971140385" lon="6.032524025067687">
        <ele>261.13999999999999</ele>
        <time>2025-04-23T13:19:57Z</time>
      </trkpt>
      <trkpt lat="47.234670035541058" lon="6.032794006168842">
        <ele>261.13999999999999</ele>
        <time>2025-04-23T13:20:01Z</time>
      </trkpt>
      <trkpt lat="47.234638016670942" lon="6.032874975353479">
        <ele>261.13999999999999</ele>
        <time>2025-04-23T13:20:02Z</time>
      </trkpt>
      <trkpt lat="47.234607003629208" lon="6.032952005043626">
        <ele>261.13999999999999</ele>
        <time>2025-04-23T13:20:03Z</time>
      </trkpt>
      <trkpt lat="47.234502984210849" lon="6.033106986433268">
        <ele>259.20999999999998</ele>
        <time>2025-04-23T13:20:05Z</time>
      </trkpt>
      <trkpt lat="47.234469959512353" lon="6.033145040273666">
        <ele>258.25</ele>
        <time>2025-04-23T13:20:06Z</time>
      </trkpt>
      <trkpt lat="47.23435596562922" lon="6.033257022500038">
        <ele>256.81</ele>
        <time>2025-04-23T13:20:10Z</time>
      </trkpt>
      <trkpt lat="47.234317995607853" lon="6.033290969207883">
        <ele>256.32999999999998</ele>
        <time>2025-04-23T13:20:11Z</time>
      </trkpt>
      <trkpt lat="47.234080033376813" lon="6.033478975296021">
        <ele>254.88999999999999</ele>
        <time>2025-04-23T13:20:16Z</time>
      </trkpt>
      <trkpt lat="47.233752971515059" lon="6.033699000254273">
        <ele>252</ele>
        <time>2025-04-23T13:20:25Z</time>
      </trkpt>
      <trkpt lat="47.233744002878666" lon="6.033704029396176">
        <ele>249.12</ele>
        <time>2025-04-23T13:20:29Z</time>
      </trkpt>
      <trkpt lat="47.233744002878666" lon="6.033704029396176">
        <ele>247.68000000000001</ele>
        <time>2025-04-23T13:20:42Z</time>
      </trkpt>
      <trkpt lat="47.233744002878666" lon="6.033704029396176">
        <ele>249.12</ele>
        <time>2025-04-23T13:21:33Z</time>
      </trkpt>
      <trkpt lat="47.233744002878666" lon="6.033704029396176">
        <ele>248.16</ele>
        <time>2025-04-23T13:22:05Z</time>
      </trkpt>
      <trkpt lat="47.233851961791515" lon="6.033919025212526">
        <ele>245.75</ele>
        <time>2025-04-23T13:22:10Z</time>
      </trkpt>
      <trkpt lat="47.233850033953786" lon="6.033915001899004">
        <ele>246.22999999999999</ele>
        <time>2025-04-23T13:22:11Z</time>
      </trkpt>
      <trkpt lat="47.233870988711715" lon="6.033982979133725">
        <ele>246.22999999999999</ele>
        <time>2025-04-23T13:22:12Z</time>
      </trkpt>
      <trkpt lat="47.233949024230242" lon="6.034217001870275">
        <ele>246.72</ele>
        <time>2025-04-23T13:22:15Z</time>
      </trkpt>
      <trkpt lat="47.233991017565131" lon="6.034322027117014">
        <ele>246.72</ele>
        <time>2025-04-23T13:22:17Z</time>
      </trkpt>
      <trkpt lat="47.233984982594848" lon="6.034496035426855">
        <ele>246.72</ele>
        <time>2025-04-23T13:22:18Z</time>
      </trkpt>
      <trkpt lat="47.233834024518728" lon="6.034599971026182">
        <ele>246.72</ele>
        <time>2025-04-23T13:22:27Z</time>
      </trkpt>
      <trkpt lat="47.233701003715396" lon="6.034690998494625">
        <ele>246.72</ele>
        <time>2025-04-23T13:22:29Z</time>
      </trkpt>
      <trkpt lat="47.233607964590192" lon="6.034729974344373">
        <ele>246.72</ele>
        <time>2025-04-23T13:22:30Z</time>
      </trkpt>
      <trkpt lat="47.233528001233935" lon="6.034764004871249">
        <ele>246.72</ele>
        <time>2025-04-23T13:22:31Z</time>
      </trkpt>
      <trkpt lat="47.233444014564157" lon="6.034799041226506">
        <ele>246.72</ele>
        <time>2025-04-23T13:22:32Z</time>
      </trkpt>
      <trkpt lat="47.233373019844294" lon="6.034833993762732">
        <ele>246.72</ele>
        <time>2025-04-23T13:22:33Z</time>
      </trkpt>
      <trkpt lat="47.232985021546483" lon="6.034953016787767">
        <ele>246.22999999999999</ele>
        <time>2025-04-23T13:22:38Z</time>
      </trkpt>
      <trkpt lat="47.232929030433297" lon="6.035077990964055">
        <ele>246.22999999999999</ele>
        <time>2025-04-23T13:22:39Z</time>
      </trkpt>
      <trkpt lat="47.232887959107757" lon="6.035125013440847">
        <ele>246.22999999999999</ele>
        <time>2025-04-23T13:22:40Z</time>
      </trkpt>
      <trkpt lat="47.232830040156841" lon="6.035191984847188">
        <ele>246.72</ele>
        <time>2025-04-23T13:22:41Z</time>
      </trkpt>
      <trkpt lat="47.23276399075985" lon="6.035268008708954">
        <ele>246.22999999999999</ele>
        <time>2025-04-23T13:22:42Z</time>
      </trkpt>
      <trkpt lat="47.232688972726464" lon="6.035354007035494">
        <ele>246.22999999999999</ele>
        <time>2025-04-23T13:22:43Z</time>
      </trkpt>
      <trkpt lat="47.232597023248672" lon="6.035434976220131">
        <ele>246.22999999999999</ele>
        <time>2025-04-23T13:22:44Z</time>
      </trkpt>
      <trkpt lat="47.232312960550189" lon="6.035618958994746">
        <ele>246.22999999999999</ele>
        <time>2025-04-23T13:22:47Z</time>
      </trkpt>
      <trkpt lat="47.232196033000946" lon="6.035675033926964">
        <ele>246.22999999999999</ele>
        <time>2025-04-23T13:22:48Z</time>
      </trkpt>
      <trkpt lat="47.232092013582587" lon="6.035658018663526">
        <ele>246.22999999999999</ele>
        <time>2025-04-23T13:22:49Z</time>
      </trkpt>
      <trkpt lat="47.231992017477751" lon="6.035642009228468">
        <ele>246.22999999999999</ele>
        <time>2025-04-23T13:22:50Z</time>
      </trkpt>
      <trkpt lat="47.231897972524166" lon="6.035627005621791">
        <ele>246.22999999999999</ele>
        <time>2025-04-23T13:22:51Z</time>
      </trkpt>
      <trkpt lat="47.231812980026007" lon="6.035614013671875">
        <ele>246.72</ele>
        <time>2025-04-23T13:22:52Z</time>
      </trkpt>
      <trkpt lat="47.231728993356228" lon="6.035614013671875">
        <ele>246.72</ele>
        <time>2025-04-23T13:22:53Z</time>
      </trkpt>
      <trkpt lat="47.231653975322843" lon="6.035643015056849">
        <ele>247.19999999999999</ele>
        <time>2025-04-23T13:22:54Z</time>
      </trkpt>
      <trkpt lat="47.231572000309825" lon="6.035686014220119">
        <ele>247.19999999999999</ele>
        <time>2025-04-23T13:22:55Z</time>
      </trkpt>
      <trkpt lat="47.231483990326524" lon="6.035737982019782">
        <ele>247.19999999999999</ele>
        <time>2025-04-23T13:22:56Z</time>
      </trkpt>
      <trkpt lat="47.231401009485126" lon="6.035790033638477">
        <ele>247.19999999999999</ele>
        <time>2025-04-23T13:22:57Z</time>
      </trkpt>
      <trkpt lat="47.230898011475801" lon="6.03624701499939">
        <ele>247.19999999999999</ele>
        <time>2025-04-23T13:23:03Z</time>
      </trkpt>
      <trkpt lat="47.230441030114889" lon="6.03663400746882">
        <ele>247.19999999999999</ele>
        <time>2025-04-23T13:23:08Z</time>
      </trkpt>
      <trkpt lat="47.230351008474827" lon="6.036707013845444">
        <ele>247.19999999999999</ele>
        <time>2025-04-23T13:23:09Z</time>
      </trkpt>
      <trkpt lat="47.230265010148287" lon="6.036779014393687">
        <ele>247.19999999999999</ele>
        <time>2025-04-23T13:23:10Z</time>
      </trkpt>
      <trkpt lat="47.230174988508224" lon="6.036859983578324">
        <ele>247.19999999999999</ele>
        <time>2025-04-23T13:23:11Z</time>
      </trkpt>
      <trkpt lat="47.230085972696543" lon="6.036941036581993">
        <ele>247.19999999999999</ele>
        <time>2025-04-23T13:23:12Z</time>
      </trkpt>
      <trkpt lat="47.229997962713242" lon="6.03702200576663">
        <ele>246.72</ele>
        <time>2025-04-23T13:23:13Z</time>
      </trkpt>
      <trkpt lat="47.229909030720592" lon="6.037104986608028">
        <ele>246.72</ele>
        <time>2025-04-23T13:23:14Z</time>
      </trkpt>
      <trkpt lat="47.228891970589757" lon="6.03801098652184">
        <ele>248.16</ele>
        <time>2025-04-23T13:23:25Z</time>
      </trkpt>
      <trkpt lat="47.228711005300283" lon="6.03813897818327">
        <ele>249.59999999999999</ele>
        <time>2025-04-23T13:23:27Z</time>
      </trkpt>
      <trkpt lat="47.22857303917408" lon="6.038232017308474">
        <ele>251.52000000000001</ele>
        <time>2025-04-23T13:23:29Z</time>
      </trkpt>
      <trkpt lat="47.228433983400464" lon="6.038266969844699">
        <ele>252</ele>
        <time>2025-04-23T13:23:30Z</time>
      </trkpt>
      <trkpt lat="47.228325018659234" lon="6.038293959572911">
        <ele>252.96000000000001</ele>
        <time>2025-04-23T13:23:31Z</time>
      </trkpt>
      <trkpt lat="47.227815985679626" lon="6.038409965112805">
        <ele>255.84999999999999</ele>
        <time>2025-04-23T13:23:36Z</time>
      </trkpt>
      <trkpt lat="47.227747002616525" lon="6.038489006459713">
        <ele>256.32999999999998</ele>
        <time>2025-04-23T13:23:37Z</time>
      </trkpt>
      <trkpt lat="47.227682964876294" lon="6.038563018664718">
        <ele>256.81</ele>
        <time>2025-04-23T13:23:38Z</time>
      </trkpt>
      <trkpt lat="47.227624040096998" lon="6.038629990071058">
        <ele>257.29000000000002</ele>
        <time>2025-04-23T13:23:39Z</time>
      </trkpt>
      <trkpt lat="47.227575005963445" lon="6.038685981184244">
        <ele>258.25</ele>
        <time>2025-04-23T13:23:40Z</time>
      </trkpt>
      <trkpt lat="47.227541981264949" lon="6.038723029196262">
        <ele>258.73000000000002</ele>
        <time>2025-04-23T13:23:41Z</time>
      </trkpt>
      <trkpt lat="47.22752102650702" lon="6.038747001439333">
        <ele>259.20999999999998</ele>
        <time>2025-04-23T13:23:42Z</time>
      </trkpt>
      <trkpt lat="47.22752102650702" lon="6.038747001439333">
        <ele>260.17000000000002</ele>
        <time>2025-04-23T13:23:44Z</time>
      </trkpt>
      <trkpt lat="47.227479033172131" lon="6.038653962314129">
        <ele>260.64999999999998</ele>
        <time>2025-04-23T13:23:45Z</time>
      </trkpt>
      <trkpt lat="47.227463023737073" lon="6.038621021434665">
        <ele>260.64999999999998</ele>
        <time>2025-04-23T13:23:46Z</time>
      </trkpt>
      <trkpt lat="47.227393034845591" lon="6.038467967882752">
        <ele>261.13999999999999</ele>
        <time>2025-04-23T13:23:47Z</time>
      </trkpt>
      <trkpt lat="47.227393034845591" lon="6.038466040045023">
        <ele>261.62</ele>
        <time>2025-04-23T13:23:48Z</time>
      </trkpt>
      <trkpt lat="47.227409966289997" lon="6.038381969556212">
        <ele>262.10000000000002</ele>
        <time>2025-04-23T13:23:49Z</time>
      </trkpt>
      <trkpt lat="47.227542987093329" lon="6.038279039785266">
        <ele>262.57999999999998</ele>
        <time>2025-04-23T13:23:50Z</time>
      </trkpt>
      <trkpt lat="47.227600989863276" lon="6.038242997601628">
        <ele>263.06</ele>
        <time>2025-04-23T13:23:51Z</time>
      </trkpt>
      <trkpt lat="47.227768963202834" lon="6.038136966526508">
        <ele>264.98000000000002</ele>
        <time>2025-04-23T13:23:54Z</time>
      </trkpt>
      <trkpt lat="47.227815985679626" lon="6.038106959313154">
        <ele>265.45999999999998</ele>
        <time>2025-04-23T13:23:55Z</time>
      </trkpt>
      <trkpt lat="47.227842975407839" lon="6.038038982078433">
        <ele>266.42000000000002</ele>
        <time>2025-04-23T13:23:56Z</time>
      </trkpt>
      <trkpt lat="47.227828977629542" lon="6.037936974316835">
        <ele>267.38</ele>
        <time>2025-04-23T13:23:57Z</time>
      </trkpt>
      <trkpt lat="47.22782202064991" lon="6.037889029830694">
        <ele>268.35000000000002</ele>
        <time>2025-04-23T13:23:58Z</time>
      </trkpt>
      <trkpt lat="47.22782202064991" lon="6.037889029830694">
        <ele>269.31</ele>
        <time>2025-04-23T13:23:59Z</time>
      </trkpt>
      <trkpt lat="47.22782202064991" lon="6.037889029830694">
        <ele>270.75</ele>
        <time>2025-04-23T13:24:01Z</time>
      </trkpt>
      <trkpt lat="47.227786984294653" lon="6.03785902261734">
        <ele>271.70999999999998</ele>
        <time>2025-04-23T13:24:02Z</time>
      </trkpt>
      <trkpt lat="47.227749014273286" lon="6.037828009575605">
        <ele>272.19</ele>
        <time>2025-04-23T13:24:03Z</time>
      </trkpt>
      <trkpt lat="47.22767299041152" lon="6.037790039554238">
        <ele>273.14999999999998</ele>
        <time>2025-04-23T13:24:04Z</time>
      </trkpt>
      <trkpt lat="47.227610964328051" lon="6.037817029282451">
        <ele>274.11000000000001</ele>
        <time>2025-04-23T13:24:05Z</time>
      </trkpt>
      <trkpt lat="47.227485990151763" lon="6.037870002910495">
        <ele>276.04000000000002</ele>
        <time>2025-04-23T13:24:08Z</time>
      </trkpt>
      <trkpt lat="47.227390017360449" lon="6.037892969325185">
        <ele>276.51999999999998</ele>
        <time>2025-04-23T13:24:09Z</time>
      </trkpt>
      <trkpt lat="47.227379959076643" lon="6.037834966555238">
        <ele>277.48000000000002</ele>
        <time>2025-04-23T13:24:10Z</time>
      </trkpt>
      <trkpt lat="47.227370990440249" lon="6.037780987098813">
        <ele>277.95999999999998</ele>
        <time>2025-04-23T13:24:11Z</time>
      </trkpt>
      <trkpt lat="47.227417007088661" lon="6.037734970450401">
        <ele>278.92000000000002</ele>
        <time>2025-04-23T13:24:12Z</time>
      </trkpt>
      <trkpt lat="47.227455982938409" lon="6.037697000429034">
        <ele>279.39999999999998</ele>
        <time>2025-04-23T13:24:13Z</time>
      </trkpt>
      <trkpt lat="47.227506022900343" lon="6.037646038457751">
        <ele>279.88</ele>
        <time>2025-04-23T13:24:14Z</time>
      </trkpt>
      <trkpt lat="47.227552961558104" lon="6.03760002180934">
        <ele>280.36000000000001</ele>
        <time>2025-04-23T13:24:15Z</time>
      </trkpt>
      <trkpt lat="47.227593027055264" lon="6.037559034302831">
        <ele>281.31999999999999</ele>
        <time>2025-04-23T13:24:16Z</time>
      </trkpt>
      <trkpt lat="47.227630997076631" lon="6.037521986290813">
        <ele>281.80000000000001</ele>
        <time>2025-04-23T13:24:17Z</time>
      </trkpt>
      <trkpt lat="47.22765002399683" lon="6.037502037361264">
        <ele>282.27999999999997</ele>
        <time>2025-04-23T13:24:18Z</time>
      </trkpt>
      <trkpt lat="47.227615993469954" lon="6.037433976307511">
        <ele>283.25</ele>
        <time>2025-04-23T13:24:19Z</time>
      </trkpt>
      <trkpt lat="47.227598978206515" lon="6.037400029599667">
        <ele>283.73000000000002</ele>
        <time>2025-04-23T13:24:20Z</time>
      </trkpt>
      <trkpt lat="47.227581962943077" lon="6.037374967709184">
        <ele>284.69</ele>
        <time>2025-04-23T13:24:21Z</time>
      </trkpt>
      <trkpt lat="47.227523038163781" lon="6.03738896548748">
        <ele>285.17000000000002</ele>
        <time>2025-04-23T13:24:22Z</time>
      </trkpt>
      <trkpt lat="47.227463023737073" lon="6.037403969094157">
        <ele>286.13</ele>
        <time>2025-04-23T13:24:23Z</time>
      </trkpt>
      <trkpt lat="47.227408038452268" lon="6.037417966872454">
        <ele>286.61000000000001</ele>
        <time>2025-04-23T13:24:24Z</time>
      </trkpt>
      <trkpt lat="47.227327991276979" lon="6.037437999621034">
        <ele>288.52999999999997</ele>
        <time>2025-04-23T13:24:27Z</time>
      </trkpt>
      <trkpt lat="47.227283986285329" lon="6.037392988801003">
        <ele>289.00999999999999</ele>
        <time>2025-04-23T13:24:28Z</time>
      </trkpt>
      <trkpt lat="47.227240987122059" lon="6.037350995466113">
        <ele>289.49000000000001</ele>
        <time>2025-04-23T13:24:29Z</time>
      </trkpt>
      <trkpt lat="47.22719999961555" lon="6.037309002131224">
        <ele>289.97000000000003</ele>
        <time>2025-04-23T13:24:30Z</time>
      </trkpt>
      <trkpt lat="47.22719999961555" lon="6.037309002131224">
        <ele>289.49000000000001</ele>
        <time>2025-04-23T13:24:31Z</time>
      </trkpt>
      <trkpt lat="47.22719999961555" lon="6.037309002131224">
        <ele>288.52999999999997</ele>
        <time>2025-04-23T13:24:32Z</time>
      </trkpt>
      <trkpt lat="47.22719999961555" lon="6.037309002131224">
        <ele>288.05000000000001</ele>
        <time>2025-04-23T13:24:33Z</time>
      </trkpt>
      <trkpt lat="47.227248027920723" lon="6.037247981876135">
        <ele>288.05000000000001</ele>
        <time>2025-04-23T13:24:34Z</time>
      </trkpt>
      <trkpt lat="47.22730603069067" lon="6.037175981327891">
        <ele>287.56999999999999</ele>
        <time>2025-04-23T13:24:35Z</time>
      </trkpt>
      <trkpt lat="47.227356992661953" lon="6.037113033235073">
        <ele>288.05000000000001</ele>
        <time>2025-04-23T13:24:36Z</time>
      </trkpt>
      <trkpt lat="47.227456988766789" lon="6.036866018548608">
        <ele>288.05000000000001</ele>
        <time>2025-04-23T13:24:37Z</time>
      </trkpt>
      <trkpt lat="47.227374007925391" lon="6.036626966670156">
        <ele>288.05000000000001</ele>
        <time>2025-04-23T13:24:40Z</time>
      </trkpt>
      <trkpt lat="47.227370990440249" lon="6.036623027175665">
        <ele>288.05000000000001</ele>
        <time>2025-04-23T13:24:41Z</time>
      </trkpt>
      <trkpt lat="47.227370990440249" lon="6.036623027175665">
        <ele>288.05000000000001</ele>
        <time>2025-04-23T13:24:42Z</time>
      </trkpt>
      <trkpt lat="47.227131016552448" lon="6.03654901497066">
        <ele>288.05000000000001</ele>
        <time>2025-04-23T13:24:45Z</time>
      </trkpt>
      <trkpt lat="47.227092040702701" lon="6.036537028849125">
        <ele>288.05000000000001</ele>
        <time>2025-04-23T13:24:46Z</time>
      </trkpt>
      <trkpt lat="47.226963965222239" lon="6.036408031359315">
        <ele>288.05000000000001</ele>
        <time>2025-04-23T13:24:47Z</time>
      </trkpt>
      <trkpt lat="47.226884001865983" lon="6.036367965862155">
        <ele>288.52999999999997</ele>
        <time>2025-04-23T13:24:49Z</time>
      </trkpt>
      <trkpt lat="47.226812001317739" lon="6.036315998062491">
        <ele>289.00999999999999</ele>
        <time>2025-04-23T13:24:50Z</time>
      </trkpt>
      <trkpt lat="47.226559035480022" lon="6.036016009747982">
        <ele>290.94</ele>
        <time>2025-04-23T13:24:54Z</time>
      </trkpt>
      <trkpt lat="47.226499021053314" lon="6.035944009199739">
        <ele>291.89999999999998</ele>
        <time>2025-04-23T13:24:55Z</time>
      </trkpt>
      <trkpt lat="47.226384021341801" lon="6.035806965082884">
        <ele>292.38</ele>
        <time>2025-04-23T13:24:56Z</time>
      </trkpt>
      <trkpt lat="47.226342028006911" lon="6.035799002274871">
        <ele>293.33999999999997</ele>
        <time>2025-04-23T13:24:57Z</time>
      </trkpt>
      <trkpt lat="47.226257035508752" lon="6.035782992839813">
        <ele>293.81999999999999</ele>
        <time>2025-04-23T13:24:58Z</time>
      </trkpt>
      <trkpt lat="47.226163996383548" lon="6.035764971747994">
        <ele>294.30000000000001</ele>
        <time>2025-04-23T13:24:59Z</time>
      </trkpt>
      <trkpt lat="47.225617999210954" lon="6.035631028935313">
        <ele>302.94999999999999</ele>
        <time>2025-04-23T13:25:05Z</time>
      </trkpt>
      <trkpt lat="47.225542981177568" lon="6.035609990358353">
        <ele>303.91000000000003</ele>
        <time>2025-04-23T13:25:06Z</time>
      </trkpt>
      <trkpt lat="47.225450025871396" lon="6.035608984529972">
        <ele>305.36000000000001</ele>
        <time>2025-04-23T13:25:07Z</time>
      </trkpt>
      <trkpt lat="47.22535396926105" lon="6.035657012835145">
        <ele>306.31999999999999</ele>
        <time>2025-04-23T13:25:08Z</time>
      </trkpt>
      <trkpt lat="47.225297978147864" lon="6.035716021433473">
        <ele>307.75999999999999</ele>
        <time>2025-04-23T13:25:09Z</time>
      </trkpt>
      <trkpt lat="47.225226983428001" lon="6.035790033638477">
        <ele>309.19999999999999</ele>
        <time>2025-04-23T13:25:10Z</time>
      </trkpt>
      <trkpt lat="47.225148025900126" lon="6.035871002823114">
        <ele>310.16000000000003</ele>
        <time>2025-04-23T13:25:11Z</time>
      </trkpt>
      <trkpt lat="47.22507300786674" lon="6.03594996035099">
        <ele>311.60000000000002</ele>
        <time>2025-04-23T13:25:12Z</time>
      </trkpt>
      <trkpt lat="47.224997989833355" lon="6.036027995869517">
        <ele>312.56999999999999</ele>
        <time>2025-04-23T13:25:13Z</time>
      </trkpt>
      <trkpt lat="47.224925989285111" lon="6.036103013902903">
        <ele>314.00999999999999</ele>
        <time>2025-04-23T13:25:14Z</time>
      </trkpt>
      <trkpt lat="47.224838985130191" lon="6.036193035542965">
        <ele>314.97000000000003</ele>
        <time>2025-04-23T13:25:15Z</time>
      </trkpt>
      <trkpt lat="47.224768996238708" lon="6.036217007786036">
        <ele>315.93000000000001</ele>
        <time>2025-04-23T13:25:16Z</time>
      </trkpt>
      <trkpt lat="47.224677968770266" lon="6.036229999735951">
        <ele>316.88999999999999</ele>
        <time>2025-04-23T13:25:17Z</time>
      </trkpt>
      <trkpt lat="47.224587025120854" lon="6.036211978644133">
        <ele>318.32999999999998</ele>
        <time>2025-04-23T13:25:18Z</time>
      </trkpt>
      <trkpt lat="47.224503960460424" lon="6.036194963380694">
        <ele>319.30000000000001</ele>
        <time>2025-04-23T13:25:19Z</time>
      </trkpt>
      <trkpt lat="47.22442701458931" lon="6.036179959774017">
        <ele>320.25999999999999</ele>
        <time>2025-04-23T13:25:20Z</time>
      </trkpt>
      <trkpt lat="47.224356019869447" lon="6.036165039986372">
        <ele>321.22000000000003</ele>
        <time>2025-04-23T13:25:21Z</time>
      </trkpt>
      <trkpt lat="47.224281001836061" lon="6.036150958389044">
        <ele>321.69999999999999</ele>
        <time>2025-04-23T13:25:22Z</time>
      </trkpt>
      <trkpt lat="47.224229034036398" lon="6.036174008622766">
        <ele>322.66000000000003</ele>
        <time>2025-04-23T13:25:23Z</time>
      </trkpt>
      <trkpt lat="47.224160972982645" lon="6.03620401583612">
        <ele>323.13999999999999</ele>
        <time>2025-04-23T13:25:24Z</time>
      </trkpt>
      <trkpt lat="47.224077992141247" lon="6.036261012777686">
        <ele>323.62</ele>
        <time>2025-04-23T13:25:25Z</time>
      </trkpt>
      <trkpt lat="47.224038010463119" lon="6.03635597974062">
        <ele>323.62</ele>
        <time>2025-04-23T13:25:26Z</time>
      </trkpt>
      <trkpt lat="47.223981013521552" lon="6.036496963351965">
        <ele>324.10000000000002</ele>
        <time>2025-04-23T13:25:27Z</time>
      </trkpt>
      <trkpt lat="47.223981013521552" lon="6.036616992205381">
        <ele>324.57999999999998</ele>
        <time>2025-04-23T13:25:28Z</time>
      </trkpt>
      <trkpt lat="47.223981013521552" lon="6.036686981096864">
        <ele>325.54000000000002</ele>
        <time>2025-04-23T13:25:29Z</time>
      </trkpt>
      <trkpt lat="47.223952012136579" lon="6.036804998293519">
        <ele>326.01999999999998</ele>
        <time>2025-04-23T13:25:30Z</time>
      </trkpt>
      <trkpt lat="47.223928961902857" lon="6.03689300827682">
        <ele>326.99000000000001</ele>
        <time>2025-04-23T13:25:31Z</time>
      </trkpt>
      <trkpt lat="47.223913036286831" lon="6.03695897385478">
        <ele>327.47000000000003</ele>
        <time>2025-04-23T13:25:32Z</time>
      </trkpt>
      <trkpt lat="47.223895015195012" lon="6.037029968574643">
        <ele>328.43000000000001</ele>
        <time>2025-04-23T13:25:33Z</time>
      </trkpt>
      <trkpt lat="47.223856961354613" lon="6.037085959687829">
        <ele>328.43000000000001</ele>
        <time>2025-04-23T13:25:34Z</time>
      </trkpt>
      <trkpt lat="47.223793007433414" lon="6.037180004641414">
        <ele>328.43000000000001</ele>
        <time>2025-04-23T13:25:35Z</time>
      </trkpt>
      <trkpt lat="47.22371899522841" lon="6.037287963554263">
        <ele>328.91000000000003</ele>
        <time>2025-04-23T13:25:36Z</time>
      </trkpt>
      <trkpt lat="47.223404003307223" lon="6.037827003747225">
        <ele>328.43000000000001</ele>
        <time>2025-04-23T13:25:41Z</time>
      </trkpt>
      <trkpt lat="47.22335496917367" lon="6.037921970710158">
        <ele>327.94999999999999</ele>
        <time>2025-04-23T13:25:42Z</time>
      </trkpt>
      <trkpt lat="47.223293026909232" lon="6.038063960149884">
        <ele>327.94999999999999</ele>
        <time>2025-04-23T13:25:43Z</time>
      </trkpt>
      <trkpt lat="47.223287997767329" lon="6.038172002881765">
        <ele>327.47000000000003</ele>
        <time>2025-04-23T13:25:44Z</time>
      </trkpt>
      <trkpt lat="47.223282968625426" lon="6.03828901425004">
        <ele>326.99000000000001</ele>
        <time>2025-04-23T13:25:45Z</time>
      </trkpt>
      <trkpt lat="47.223278023302555" lon="6.038408959284425">
        <ele>326.99000000000001</ele>
        <time>2025-04-23T13:25:46Z</time>
      </trkpt>
      <trkpt lat="47.223279029130936" lon="6.038554972037673">
        <ele>326.99000000000001</ele>
        <time>2025-04-23T13:25:47Z</time>
      </trkpt>
      <trkpt lat="47.223392017185688" lon="6.039434988051653">
        <ele>326.99000000000001</ele>
        <time>2025-04-23T13:25:53Z</time>
      </trkpt>
      <trkpt lat="47.223362009972334" lon="6.039573960006237">
        <ele>327.47000000000003</ele>
        <time>2025-04-23T13:25:54Z</time>
      </trkpt>
      <trkpt lat="47.223326973617077" lon="6.039712009951472">
        <ele>327.47000000000003</ele>
        <time>2025-04-23T13:25:55Z</time>
      </trkpt>
      <trkpt lat="47.223266959190369" lon="6.039831032976508">
        <ele>327.47000000000003</ele>
        <time>2025-04-23T13:25:56Z</time>
      </trkpt>
      <trkpt lat="47.223207028582692" lon="6.039951983839274">
        <ele>327.94999999999999</ele>
        <time>2025-04-23T13:25:57Z</time>
      </trkpt>
      <trkpt lat="47.223151959478855" lon="6.040081987157464">
        <ele>328.43000000000001</ele>
        <time>2025-04-23T13:25:58Z</time>
      </trkpt>
      <trkpt lat="47.223080964758992" lon="6.040399996563792">
        <ele>330.35000000000002</ele>
        <time>2025-04-23T13:26:00Z</time>
      </trkpt>
      <trkpt lat="47.223084988072515" lon="6.040564030408859">
        <ele>331.31</ele>
        <time>2025-04-23T13:26:01Z</time>
      </trkpt>
      <trkpt lat="47.223088005557656" lon="6.040728986263275">
        <ele>332.26999999999998</ele>
        <time>2025-04-23T13:26:02Z</time>
      </trkpt>
      <trkpt lat="47.223094962537289" lon="6.041053030639887">
        <ele>334.19999999999999</ele>
        <time>2025-04-23T13:26:04Z</time>
      </trkpt>
      <trkpt lat="47.223098985850811" lon="6.041215974837542">
        <ele>335.16000000000003</ele>
        <time>2025-04-23T13:26:05Z</time>
      </trkpt>
      <trkpt lat="47.223092028871179" lon="6.041372967883945">
        <ele>336.60000000000002</ele>
        <time>2025-04-23T13:26:06Z</time>
      </trkpt>
      <trkpt lat="47.223065039142966" lon="6.041530966758728">
        <ele>337.56</ele>
        <time>2025-04-23T13:26:07Z</time>
      </trkpt>
      <trkpt lat="47.223037965595722" lon="6.041685026139021">
        <ele>338.51999999999998</ele>
        <time>2025-04-23T13:26:08Z</time>
      </trkpt>
      <trkpt lat="47.223009970039129" lon="6.041830033063889">
        <ele>339.48000000000002</ele>
        <time>2025-04-23T13:26:09Z</time>
      </trkpt>
      <trkpt lat="47.222959008067846" lon="6.041960036382079">
        <ele>340.44</ele>
        <time>2025-04-23T13:26:10Z</time>
      </trkpt>
      <trkpt lat="47.222590036690235" lon="6.042850026860833">
        <ele>353.89999999999998</ele>
        <time>2025-04-23T13:26:17Z</time>
      </trkpt>
      <trkpt lat="47.222523987293243" lon="6.042967960238457">
        <ele>355.33999999999997</ele>
        <time>2025-04-23T13:26:18Z</time>
      </trkpt>
      <trkpt lat="47.222464978694916" lon="6.043012971058488">
        <ele>357.26999999999998</ele>
        <time>2025-04-23T13:26:19Z</time>
      </trkpt>
      <trkpt lat="47.222417034208775" lon="6.043051024898887">
        <ele>358.70999999999998</ele>
        <time>2025-04-23T13:26:20Z</time>
      </trkpt>
      <trkpt lat="47.222287030890584" lon="6.042982041835785">
        <ele>360.14999999999998</ele>
        <time>2025-04-23T13:26:21Z</time>
      </trkpt>
      <trkpt lat="47.222239002585411" lon="6.042892020195723">
        <ele>361.58999999999997</ele>
        <time>2025-04-23T13:26:22Z</time>
      </trkpt>
      <trkpt lat="47.222187034785748" lon="6.042792024090886">
        <ele>363.04000000000002</ele>
        <time>2025-04-23T13:26:23Z</time>
      </trkpt>
      <trkpt lat="47.2221290320158" lon="6.042685993015766">
        <ele>364</ele>
        <time>2025-04-23T13:26:24Z</time>
      </trkpt>
      <trkpt lat="47.221990982070565" lon="6.042481977492571">
        <ele>366.88</ele>
        <time>2025-04-23T13:26:26Z</time>
      </trkpt>
      <trkpt lat="47.221771962940693" lon="6.042159022763372">
        <ele>375.05000000000001</ele>
        <time>2025-04-23T13:26:32Z</time>
      </trkpt>
      <trkpt lat="47.221728041768074" lon="6.04209397919476">
        <ele>376.00999999999999</ele>
        <time>2025-04-23T13:26:33Z</time>
      </trkpt>
      <trkpt lat="47.221681019291282" lon="6.04207101278007">
        <ele>377.44999999999999</ele>
        <time>2025-04-23T13:26:34Z</time>
      </trkpt>
      <trkpt lat="47.221535006538033" lon="6.041998006403446">
        <ele>379.38</ele>
        <time>2025-04-23T13:26:36Z</time>
      </trkpt>
      <trkpt lat="47.221450014039874" lon="6.041955007240176">
        <ele>380.33999999999997</ele>
        <time>2025-04-23T13:26:37Z</time>
      </trkpt>
      <trkpt lat="47.22135697491467" lon="6.041908990591765">
        <ele>381.30000000000001</ele>
        <time>2025-04-23T13:26:38Z</time>
      </trkpt>
      <trkpt lat="47.221258990466595" lon="6.041872026398778">
        <ele>382.25999999999999</ele>
        <time>2025-04-23T13:26:39Z</time>
      </trkpt>
      <trkpt lat="47.221148014068604" lon="6.041831960901618">
        <ele>383.22000000000003</ele>
        <time>2025-04-23T13:26:40Z</time>
      </trkpt>
      <trkpt lat="47.221035026013851" lon="6.041789967566729">
        <ele>384.18000000000001</ele>
        <time>2025-04-23T13:26:41Z</time>
      </trkpt>
      <trkpt lat="47.220935029909015" lon="6.041736993938685">
        <ele>385.14999999999998</ele>
        <time>2025-04-23T13:26:42Z</time>
      </trkpt>
      <trkpt lat="47.220726991072297" lon="6.041626017540693">
        <ele>387.55000000000001</ele>
        <time>2025-04-23T13:26:44Z</time>
      </trkpt>
      <trkpt lat="47.220621965825558" lon="6.041570026427507">
        <ele>388.99000000000001</ele>
        <time>2025-04-23T13:26:45Z</time>
      </trkpt>
      <trkpt lat="47.220004973933101" lon="6.041416972875595">
        <ele>396.19999999999999</ele>
        <time>2025-04-23T13:26:51Z</time>
      </trkpt>
      <trkpt lat="47.219903971999884" lon="6.041408004239202">
        <ele>396.68000000000001</ele>
        <time>2025-04-23T13:26:52Z</time>
      </trkpt>
      <trkpt lat="47.219806993380189" lon="6.041473969817162">
        <ele>397.16000000000003</ele>
        <time>2025-04-23T13:26:53Z</time>
      </trkpt>
      <trkpt lat="47.219711020588875" lon="6.041540019214153">
        <ele>397.16000000000003</ele>
        <time>2025-04-23T13:26:54Z</time>
      </trkpt>
      <trkpt lat="47.219617981463671" lon="6.041602967306972">
        <ele>397.63999999999999</ele>
        <time>2025-04-23T13:26:55Z</time>
      </trkpt>
      <trkpt lat="47.219521002843976" lon="6.041670022532344">
        <ele>398.60000000000002</ele>
        <time>2025-04-23T13:26:56Z</time>
      </trkpt>
      <trkpt lat="47.21942100673914" lon="6.041737999767065">
        <ele>399.07999999999998</ele>
        <time>2025-04-23T13:26:57Z</time>
      </trkpt>
      <trkpt lat="47.219326039776206" lon="6.041802959516645">
        <ele>399.56999999999999</ele>
        <time>2025-04-23T13:26:58Z</time>
      </trkpt>
      <trkpt lat="47.21899101510644" lon="6.041969005018473">
        <ele>403.41000000000003</ele>
        <time>2025-04-23T13:27:02Z</time>
      </trkpt>
      <trkpt lat="47.218894036486745" lon="6.041972022503614">
        <ele>403.88999999999999</ele>
        <time>2025-04-23T13:27:03Z</time>
      </trkpt>
      <trkpt lat="47.218682980164886" lon="6.041977973654866">
        <ele>404.37</ele>
        <time>2025-04-23T13:27:05Z</time>
      </trkpt>
      <trkpt lat="47.218575021252036" lon="6.041981996968389">
        <ele>404.85000000000002</ele>
        <time>2025-04-23T13:27:06Z</time>
      </trkpt>
      <trkpt lat="47.218422973528504" lon="6.041987026110292">
        <ele>404.85000000000002</ele>
        <time>2025-04-23T13:27:08Z</time>
      </trkpt>
      <trkpt lat="47.218316020444036" lon="6.041937991976738">
        <ele>404.85000000000002</ele>
        <time>2025-04-23T13:27:09Z</time>
      </trkpt>
      <trkpt lat="47.218233961611986" lon="6.041901027783752">
        <ele>404.37</ele>
        <time>2025-04-23T13:27:10Z</time>
      </trkpt>
      <trkpt lat="47.218187022954226" lon="6.041879989206791">
        <ele>403.88999999999999</ele>
        <time>2025-04-23T13:27:11Z</time>
      </trkpt>
      <trkpt lat="47.218187022954226" lon="6.041879989206791">
        <ele>403.41000000000003</ele>
        <time>2025-04-23T13:27:12Z</time>
      </trkpt>
      <trkpt lat="47.218103036284447" lon="6.0417499858886">
        <ele>402.93000000000001</ele>
        <time>2025-04-23T13:27:13Z</time>
      </trkpt>
      <trkpt lat="47.218056013807654" lon="6.041676979511976">
        <ele>401.97000000000003</ele>
        <time>2025-04-23T13:27:14Z</time>
      </trkpt>
      <trkpt lat="47.218016032129526" lon="6.041615037247539">
        <ele>401.49000000000001</ele>
        <time>2025-04-23T13:27:15Z</time>
      </trkpt>
      <trkpt lat="47.217973032966256" lon="6.041548987850547">
        <ele>401.00999999999999</ele>
        <time>2025-04-23T13:27:16Z</time>
      </trkpt>
      <trkpt lat="47.217930033802986" lon="6.041484028100967">
        <ele>400.05000000000001</ele>
        <time>2025-04-23T13:27:17Z</time>
      </trkpt>
      <trkpt lat="47.217907989397645" lon="6.041451003402472">
        <ele>399.07999999999998</ele>
        <time>2025-04-23T13:27:18Z</time>
      </trkpt>
      <trkpt lat="47.217822996899486" lon="6.041451003402472">
        <ele>397.63999999999999</ele>
        <time>2025-04-23T13:27:19Z</time>
      </trkpt>
      <trkpt lat="47.217822996899486" lon="6.041451003402472">
        <ele>396.68000000000001</ele>
        <time>2025-04-23T13:27:20Z</time>
      </trkpt>
      <trkpt lat="47.217822996899486" lon="6.041451003402472">
        <ele>395.72000000000003</ele>
        <time>2025-04-23T13:27:21Z</time>
      </trkpt>
      <trkpt lat="47.217822996899486" lon="6.041451003402472">
        <ele>394.27999999999997</ele>
        <time>2025-04-23T13:27:22Z</time>
      </trkpt>
      <trkpt lat="47.217824002727866" lon="6.041462989524007">
        <ele>393.80000000000001</ele>
        <time>2025-04-23T13:27:23Z</time>
      </trkpt>
      <trkpt lat="47.217829031869769" lon="6.04153499007225">
        <ele>393.80000000000001</ele>
        <time>2025-04-23T13:27:24Z</time>
      </trkpt>
      <trkpt lat="47.217836994677782" lon="6.041630962863565">
        <ele>393.80000000000001</ele>
        <time>2025-04-23T13:27:25Z</time>
      </trkpt>
      <trkpt lat="47.217879993841052" lon="6.042170003056526">
        <ele>394.27999999999997</ele>
        <time>2025-04-23T13:27:29Z</time>
      </trkpt>
      <trkpt lat="47.217931039631367" lon="6.04280099272728">
        <ele>395.24000000000001</ele>
        <time>2025-04-23T13:27:33Z</time>
      </trkpt>
      <trkpt lat="47.217943025752902" lon="6.04295396246016">
        <ele>395.72000000000003</ele>
        <time>2025-04-23T13:27:34Z</time>
      </trkpt>
      <trkpt lat="47.217955011874437" lon="6.04310198687017">
        <ele>395.72000000000003</ele>
        <time>2025-04-23T13:27:35Z</time>
      </trkpt>
      <trkpt lat="47.217978984117508" lon="6.043393006548286">
        <ele>396.19999999999999</ele>
        <time>2025-04-23T13:27:37Z</time>
      </trkpt>
      <trkpt lat="47.218001028522849" lon="6.043670028448105">
        <ele>396.68000000000001</ele>
        <time>2025-04-23T13:27:39Z</time>
      </trkpt>
      <trkpt lat="47.218012008816004" lon="6.043812017887831">
        <ele>397.16000000000003</ele>
        <time>2025-04-23T13:27:40Z</time>
      </trkpt>
      <trkpt lat="47.218034975230694" lon="6.043945960700512">
        <ele>397.63999999999999</ele>
        <time>2025-04-23T13:27:41Z</time>
      </trkpt>
      <trkpt lat="47.218100018799305" lon="6.044246032834053">
        <ele>399.07999999999998</ele>
        <time>2025-04-23T13:27:43Z</time>
      </trkpt>
      <trkpt lat="47.218142012134194" lon="6.044566975906491">
        <ele>401.00999999999999</ele>
        <time>2025-04-23T13:27:45Z</time>
      </trkpt>
      <trkpt lat="47.218135977163911" lon="6.045488985255361">
        <ele>406.76999999999998</ele>
        <time>2025-04-23T13:27:51Z</time>
      </trkpt>
      <trkpt lat="47.218143017962575" lon="6.04561697691679">
        <ele>407.74000000000001</ele>
        <time>2025-04-23T13:27:52Z</time>
      </trkpt>
      <trkpt lat="47.218144023790956" lon="6.045733988285065">
        <ele>408.69999999999999</ele>
        <time>2025-04-23T13:27:53Z</time>
      </trkpt>
      <trkpt lat="47.218144023790956" lon="6.04591503739357">
        <ele>411.57999999999998</ele>
        <time>2025-04-23T13:27:55Z</time>
      </trkpt>
      <trkpt lat="47.218144023790956" lon="6.045990977436304">
        <ele>412.54000000000002</ele>
        <time>2025-04-23T13:27:56Z</time>
      </trkpt>
      <trkpt lat="47.218144023790956" lon="6.046059038490057">
        <ele>413.5</ele>
        <time>2025-04-23T13:27:57Z</time>
      </trkpt>
      <trkpt lat="47.218144023790956" lon="6.046127015724778">
        <ele>414.47000000000003</ele>
        <time>2025-04-23T13:27:58Z</time>
      </trkpt>
      <trkpt lat="47.218142012134194" lon="6.046202033758164">
        <ele>415.43000000000001</ele>
        <time>2025-04-23T13:27:59Z</time>
      </trkpt>
      <trkpt lat="47.218138994649053" lon="6.046274034306407">
        <ele>416.38999999999999</ele>
        <time>2025-04-23T13:28:00Z</time>
      </trkpt>
      <trkpt lat="47.21813497133553" lon="6.046343017369509">
        <ele>416.87</ele>
        <time>2025-04-23T13:28:01Z</time>
      </trkpt>
      <trkpt lat="47.21813203766942" lon="6.046404037624598">
        <ele>417.35000000000002</ele>
        <time>2025-04-23T13:28:02Z</time>
      </trkpt>
      <trkpt lat="47.218129020184278" lon="6.046471009030938">
        <ele>418.31</ele>
        <time>2025-04-23T13:28:03Z</time>
      </trkpt>
      <trkpt lat="47.218124996870756" lon="6.046548960730434">
        <ele>418.79000000000002</ele>
        <time>2025-04-23T13:28:04Z</time>
      </trkpt>
      <trkpt lat="47.218117034062743" lon="6.046792035922408">
        <ele>421.19</ele>
        <time>2025-04-23T13:28:07Z</time>
      </trkpt>
      <trkpt lat="47.218115022405982" lon="6.046847021207213">
        <ele>422.63999999999999</ele>
        <time>2025-04-23T13:28:08Z</time>
      </trkpt>
      <trkpt lat="47.218113010749221" lon="6.046898989006877">
        <ele>425.51999999999998</ele>
        <time>2025-04-23T13:28:09Z</time>
      </trkpt>
      <trkpt lat="47.21811099909246" lon="6.046973001211882">
        <ele>426.95999999999998</ele>
        <time>2025-04-23T13:28:10Z</time>
      </trkpt>
      <trkpt lat="47.218107981607318" lon="6.047069979831576">
        <ele>428.88999999999999</ele>
        <time>2025-04-23T13:28:11Z</time>
      </trkpt>
      <trkpt lat="47.218103958293796" lon="6.047181962057948">
        <ele>429.85000000000002</ele>
        <time>2025-04-23T13:28:12Z</time>
      </trkpt>
      <trkpt lat="47.218101024627686" lon="6.04729101061821">
        <ele>430.81</ele>
        <time>2025-04-23T13:28:13Z</time>
      </trkpt>
      <trkpt lat="47.218097001314163" lon="6.04739997535944">
        <ele>431.76999999999998</ele>
        <time>2025-04-23T13:28:14Z</time>
      </trkpt>
      <trkpt lat="47.218093983829021" lon="6.048345034942031">
        <ele>435.13</ele>
        <time>2025-04-23T13:28:22Z</time>
      </trkpt>
      <trkpt lat="47.218102030456066" lon="6.048575034365058">
        <ele>436.10000000000002</ele>
        <time>2025-04-23T13:28:25Z</time>
      </trkpt>
      <trkpt lat="47.218059031292796" lon="6.048682993277907">
        <ele>436.57999999999998</ele>
        <time>2025-04-23T13:28:26Z</time>
      </trkpt>
      <trkpt lat="47.218019971624017" lon="6.048785001039505">
        <ele>437.06</ele>
        <time>2025-04-23T13:28:27Z</time>
      </trkpt>
      <trkpt lat="47.217873958870769" lon="6.049133017659187">
        <ele>438.01999999999998</ele>
        <time>2025-04-23T13:28:30Z</time>
      </trkpt>
      <trkpt lat="47.217541029676795" lon="6.049683960154653">
        <ele>440.42000000000002</ele>
        <time>2025-04-23T13:28:35Z</time>
      </trkpt>
      <trkpt lat="47.217471962794662" lon="6.049786973744631">
        <ele>440.42000000000002</ele>
        <time>2025-04-23T13:28:36Z</time>
      </trkpt>
      <trkpt lat="47.217351011931896" lon="6.049969028681517">
        <ele>440.42000000000002</ele>
        <time>2025-04-23T13:28:37Z</time>
      </trkpt>
      <trkpt lat="47.217351011931896" lon="6.050029965117574">
        <ele>440.89999999999998</ele>
        <time>2025-04-23T13:28:38Z</time>
      </trkpt>
      <trkpt lat="47.217351011931896" lon="6.050181007012725">
        <ele>441.38</ele>
        <time>2025-04-23T13:28:39Z</time>
      </trkpt>
      <trkpt lat="47.217366015538573" lon="6.050362978130579">
        <ele>442.81999999999999</ele>
        <time>2025-04-23T13:28:40Z</time>
      </trkpt>
      <trkpt lat="47.217410020530224" lon="6.050503961741924">
        <ele>443.79000000000002</ele>
        <time>2025-04-23T13:28:41Z</time>
      </trkpt>
      <trkpt lat="47.217626022174954" lon="6.051263026893139">
        <ele>447.63</ele>
        <time>2025-04-23T13:28:46Z</time>
      </trkpt>
      <trkpt lat="47.217667009681463" lon="6.051429994404316">
        <ele>448.11000000000001</ele>
        <time>2025-04-23T13:28:47Z</time>
      </trkpt>
      <trkpt lat="47.217667009681463" lon="6.051594028249383">
        <ele>448.58999999999997</ele>
        <time>2025-04-23T13:28:48Z</time>
      </trkpt>
      <trkpt lat="47.21766097471118" lon="6.051765019074082">
        <ele>448.58999999999997</ele>
        <time>2025-04-23T13:28:49Z</time>
      </trkpt>
      <trkpt lat="47.217655023559928" lon="6.051939027383924">
        <ele>448.58999999999997</ele>
        <time>2025-04-23T13:28:50Z</time>
      </trkpt>
      <trkpt lat="47.217634990811348" lon="6.052103983238339">
        <ele>448.58999999999997</ele>
        <time>2025-04-23T13:28:51Z</time>
      </trkpt>
      <trkpt lat="47.217583023011684" lon="6.052277991548181">
        <ele>448.58999999999997</ele>
        <time>2025-04-23T13:28:52Z</time>
      </trkpt>
      <trkpt lat="47.217529965564609" lon="6.052454011514783">
        <ele>448.58999999999997</ele>
        <time>2025-04-23T13:28:53Z</time>
      </trkpt>
      <trkpt lat="47.217479003593326" lon="6.052623996511102">
        <ele>448.11000000000001</ele>
        <time>2025-04-23T13:28:54Z</time>
      </trkpt>
      <trkpt lat="47.217414965853095" lon="6.052767997607589">
        <ele>448.11000000000001</ele>
        <time>2025-04-23T13:28:55Z</time>
      </trkpt>
      <trkpt lat="47.217333996668458" lon="6.052905963733792">
        <ele>447.63</ele>
        <time>2025-04-23T13:28:56Z</time>
      </trkpt>
      <trkpt lat="47.21723198890686" lon="6.053000008687377">
        <ele>447.63</ele>
        <time>2025-04-23T13:28:57Z</time>
      </trkpt>
      <trkpt lat="47.217117995023727" lon="6.053072009235621">
        <ele>447.14999999999998</ele>
        <time>2025-04-23T13:28:58Z</time>
      </trkpt>
      <trkpt lat="47.217005006968975" lon="6.053106039762497">
        <ele>446.67000000000002</ele>
        <time>2025-04-23T13:28:59Z</time>
      </trkpt>
      <trkpt lat="47.216883972287178" lon="6.05311400257051">
        <ele>446.19</ele>
        <time>2025-04-23T13:29:00Z</time>
      </trkpt>
      <trkpt lat="47.216770984232426" lon="6.053121965378523">
        <ele>446.19</ele>
        <time>2025-04-23T13:29:01Z</time>
      </trkpt>
      <trkpt lat="47.21667199395597" lon="6.053206035867333">
        <ele>445.23000000000002</ele>
        <time>2025-04-23T13:29:02Z</time>
      </trkpt>
      <trkpt lat="47.21658700145781" lon="6.053294967859983">
        <ele>444.75</ele>
        <time>2025-04-23T13:29:03Z</time>
      </trkpt>
      <trkpt lat="47.216494968160987" lon="6.053393036127091">
        <ele>444.26999999999998</ele>
        <time>2025-04-23T13:29:04Z</time>
      </trkpt>
      <trkpt lat="47.216384997591376" lon="6.053509963676333">
        <ele>443.79000000000002</ele>
        <time>2025-04-23T13:29:05Z</time>
      </trkpt>
      <trkpt lat="47.216324983164668" lon="6.053619012236595">
        <ele>443.31</ele>
        <time>2025-04-23T13:29:06Z</time>
      </trkpt>
      <trkpt lat="47.216249965131283" lon="6.053755972534418">
        <ele>442.81999999999999</ele>
        <time>2025-04-23T13:29:07Z</time>
      </trkpt>
      <trkpt lat="47.216174025088549" lon="6.053897039964795">
        <ele>442.33999999999997</ele>
        <time>2025-04-23T13:29:08Z</time>
      </trkpt>
      <trkpt lat="47.216095989570022" lon="6.054040035232902">
        <ele>442.33999999999997</ele>
        <time>2025-04-23T13:29:09Z</time>
      </trkpt>
      <trkpt lat="47.215629033744335" lon="6.05489800684154">
        <ele>440.42000000000002</ele>
        <time>2025-04-23T13:29:15Z</time>
      </trkpt>
      <trkpt lat="47.215561978518963" lon="6.055061034858227">
        <ele>440.42000000000002</ele>
        <time>2025-04-23T13:29:16Z</time>
      </trkpt>
      <trkpt lat="47.215256961062551" lon="6.05637900531292">
        <ele>443.79000000000002</ele>
        <time>2025-04-23T13:29:24Z</time>
      </trkpt>
      <trkpt lat="47.215257966890931" lon="6.056670024991036">
        <ele>446.19</ele>
        <time>2025-04-23T13:29:27Z</time>
      </trkpt>
      <trkpt lat="47.215261990204453" lon="6.05674596503377">
        <ele>447.14999999999998</ele>
        <time>2025-04-23T13:29:28Z</time>
      </trkpt>
      <trkpt lat="47.215265007689595" lon="6.05680899694562">
        <ele>447.63</ele>
        <time>2025-04-23T13:29:29Z</time>
      </trkpt>
      <trkpt lat="47.215123018249869" lon="6.056971019133925">
        <ele>448.11000000000001</ele>
        <time>2025-04-23T13:29:30Z</time>
      </trkpt>
      <trkpt lat="47.215069960802794" lon="6.056965989992023">
        <ele>449.06999999999999</ele>
        <time>2025-04-23T13:29:31Z</time>
      </trkpt>
      <trkpt lat="47.215008018538356" lon="6.056960038840771">
        <ele>449.55000000000001</ele>
        <time>2025-04-23T13:29:32Z</time>
      </trkpt>
      <trkpt lat="47.21493199467659" lon="6.056951992213726">
        <ele>450.02999999999997</ele>
        <time>2025-04-23T13:29:33Z</time>
      </trkpt>
      <trkpt lat="47.214837027713656" lon="6.056942017748952">
        <ele>450.02999999999997</ele>
        <time>2025-04-23T13:29:34Z</time>
      </trkpt>
      <trkpt lat="47.213792977854609" lon="6.056563993915916">
        <ele>446.67000000000002</ele>
        <time>2025-04-23T13:29:43Z</time>
      </trkpt>
      <trkpt lat="47.213564990088344" lon="6.056388979777694">
        <ele>445.70999999999998</ele>
        <time>2025-04-23T13:29:45Z</time>
      </trkpt>
      <trkpt lat="47.213450996205211" lon="6.056284960359335">
        <ele>445.70999999999998</ele>
        <time>2025-04-23T13:29:46Z</time>
      </trkpt>
      <trkpt lat="47.212438965216279" lon="6.055188020691276">
        <ele>446.67000000000002</ele>
        <time>2025-04-23T13:29:56Z</time>
      </trkpt>
      <trkpt lat="47.212337963283062" lon="6.055064974352717">
        <ele>446.67000000000002</ele>
        <time>2025-04-23T13:29:57Z</time>
      </trkpt>
      <trkpt lat="47.211969997733831" lon="6.054698014631867">
        <ele>449.06999999999999</ele>
        <time>2025-04-23T13:30:02Z</time>
      </trkpt>
      <trkpt lat="47.211922975257039" lon="6.054689968004823">
        <ele>449.55000000000001</ele>
        <time>2025-04-23T13:30:03Z</time>
      </trkpt>
      <trkpt lat="47.211879976093769" lon="6.054719975218177">
        <ele>450.02999999999997</ele>
        <time>2025-04-23T13:30:04Z</time>
      </trkpt>
      <trkpt lat="47.211819039657712" lon="6.054762974381447">
        <ele>450.51999999999998</ele>
        <time>2025-04-23T13:30:05Z</time>
      </trkpt>
      <trkpt lat="47.211749972775578" lon="6.054817959666252">
        <ele>451</ele>
        <time>2025-04-23T13:30:06Z</time>
      </trkpt>
      <trkpt lat="47.21168601885438" lon="6.054881997406483">
        <ele>451</ele>
        <time>2025-04-23T13:30:07Z</time>
      </trkpt>
      <trkpt lat="47.21162399277091" lon="6.054930025711656">
        <ele>451.48000000000002</ele>
        <time>2025-04-23T13:30:08Z</time>
      </trkpt>
      <trkpt lat="47.211560038849711" lon="6.054942011833191">
        <ele>451.48000000000002</ele>
        <time>2025-04-23T13:30:09Z</time>
      </trkpt>
      <trkpt lat="47.211535982787609" lon="6.054947040975094">
        <ele>451.95999999999998</ele>
        <time>2025-04-23T13:30:10Z</time>
      </trkpt>
      <trkpt lat="47.211447972804308" lon="6.054904041811824">
        <ele>452.44</ele>
        <time>2025-04-23T13:30:11Z</time>
      </trkpt>
      <trkpt lat="47.211369015276432" lon="6.054863976314664">
        <ele>452.44</ele>
        <time>2025-04-23T13:30:12Z</time>
      </trkpt>
      <trkpt lat="47.21127899363637" lon="6.054818965494633">
        <ele>452.44</ele>
        <time>2025-04-23T13:30:13Z</time>
      </trkpt>
      <trkpt lat="47.211186038330197" lon="6.05476800352335">
        <ele>452.44</ele>
        <time>2025-04-23T13:30:14Z</time>
      </trkpt>
      <trkpt lat="47.211101967841387" lon="6.05465903878212">
        <ele>451.95999999999998</ele>
        <time>2025-04-23T13:30:15Z</time>
      </trkpt>
      <trkpt lat="47.210924020037055" lon="6.054428033530712">
        <ele>451</ele>
        <time>2025-04-23T13:30:17Z</time>
      </trkpt>
      <trkpt lat="47.210102006793022" lon="6.053362023085356">
        <ele>443.31</ele>
        <time>2025-04-23T13:30:25Z</time>
      </trkpt>
      <trkpt lat="47.209746027365327" lon="6.052843015640974">
        <ele>439.45999999999998</ele>
        <time>2025-04-23T13:30:29Z</time>
      </trkpt>
      <trkpt lat="47.209679977968335" lon="6.052704965695739">
        <ele>438.5</ele>
        <time>2025-04-23T13:30:30Z</time>
      </trkpt>
      <trkpt lat="47.209620969370008" lon="6.052580997347832">
        <ele>437.06</ele>
        <time>2025-04-23T13:30:31Z</time>
      </trkpt>
      <trkpt lat="47.209569001570344" lon="6.052473038434982">
        <ele>436.10000000000002</ele>
        <time>2025-04-23T13:30:32Z</time>
      </trkpt>
      <trkpt lat="47.20951896160841" lon="6.052373964339495">
        <ele>435.13</ele>
        <time>2025-04-23T13:30:33Z</time>
      </trkpt>
      <trkpt lat="47.2094970010221" lon="6.052329959347844">
        <ele>434.17000000000002</ele>
        <time>2025-04-23T13:30:34Z</time>
      </trkpt>
      <trkpt lat="47.209440004080534" lon="6.052284026518464">
        <ele>432.73000000000002</ele>
        <time>2025-04-23T13:30:35Z</time>
      </trkpt>
      <trkpt lat="47.2093899641186" lon="6.052243961021304">
        <ele>431.76999999999998</ele>
        <time>2025-04-23T13:30:36Z</time>
      </trkpt>
      <trkpt lat="47.209342019632459" lon="6.052272040396929">
        <ele>431.29000000000002</ele>
        <time>2025-04-23T13:30:37Z</time>
      </trkpt>
      <trkpt lat="47.20928200520575" lon="6.052307998761535">
        <ele>430.32999999999998</ele>
        <time>2025-04-23T13:30:38Z</time>
      </trkpt>
      <trkpt lat="47.209272030740976" lon="6.052378993481398">
        <ele>429.85000000000002</ele>
        <time>2025-04-23T13:30:39Z</time>
      </trkpt>
      <trkpt lat="47.20926197245717" lon="6.052460968494415">
        <ele>428.88999999999999</ele>
        <time>2025-04-23T13:30:40Z</time>
      </trkpt>
      <trkpt lat="47.209284016862512" lon="6.052540009841323">
        <ele>428.39999999999998</ele>
        <time>2025-04-23T13:30:41Z</time>
      </trkpt>
      <trkpt lat="47.209320981055498" lon="6.052632965147495">
        <ele>427.44</ele>
        <time>2025-04-23T13:30:42Z</time>
      </trkpt>
      <trkpt lat="47.209377977997065" lon="6.052713012322784">
        <ele>426.48000000000002</ele>
        <time>2025-04-23T13:30:43Z</time>
      </trkpt>
      <trkpt lat="47.209435980767012" lon="6.052794987335801">
        <ele>425.51999999999998</ele>
        <time>2025-04-23T13:30:44Z</time>
      </trkpt>
      <trkpt lat="47.209492977708578" lon="6.052875034511089">
        <ele>424.56</ele>
        <time>2025-04-23T13:30:45Z</time>
      </trkpt>
      <trkpt lat="47.209647037088871" lon="6.053092963993549">
        <ele>422.63999999999999</ele>
        <time>2025-04-23T13:30:48Z</time>
      </trkpt>
      <trkpt lat="47.209672015160322" lon="6.053159013390541">
        <ele>422.16000000000003</ele>
        <time>2025-04-23T13:30:49Z</time>
      </trkpt>
      <trkpt lat="47.209678972139955" lon="6.053232019767165">
        <ele>421.68000000000001</ele>
        <time>2025-04-23T13:30:50Z</time>
      </trkpt>
      <trkpt lat="47.209690036252141" lon="6.053360011428595">
        <ele>421.19</ele>
        <time>2025-04-23T13:30:51Z</time>
      </trkpt>
      <trkpt lat="47.209643013775349" lon="6.0534149967134">
        <ele>420.70999999999998</ele>
        <time>2025-04-23T13:30:52Z</time>
      </trkpt>
      <trkpt lat="47.209561038762331" lon="6.053509963676333">
        <ele>419.75</ele>
        <time>2025-04-23T13:30:53Z</time>
      </trkpt>
      <trkpt lat="47.209512004628778" lon="6.053538965061307">
        <ele>419.26999999999998</ele>
        <time>2025-04-23T13:30:54Z</time>
      </trkpt>
      <trkpt lat="47.209168011322618" lon="6.053690006956458">
        <ele>416.38999999999999</ele>
        <time>2025-04-23T13:30:58Z</time>
      </trkpt>
      <trkpt lat="47.209083018824458" lon="6.05369595810771">
        <ele>415.91000000000003</ele>
        <time>2025-04-23T13:30:59Z</time>
      </trkpt>
      <trkpt lat="47.209003977477551" lon="6.053675003349781">
        <ele>415.91000000000003</ele>
        <time>2025-04-23T13:31:00Z</time>
      </trkpt>
      <trkpt lat="47.208868023008108" lon="6.053638039156795">
        <ele>416.38999999999999</ele>
        <time>2025-04-23T13:31:02Z</time>
      </trkpt>
      <trkpt lat="47.208813959732652" lon="6.053624041378498">
        <ele>416.38999999999999</ele>
        <time>2025-04-23T13:31:03Z</time>
      </trkpt>
      <trkpt lat="47.208781018853188" lon="6.053622029721737">
        <ele>416.38999999999999</ele>
        <time>2025-04-23T13:31:04Z</time>
      </trkpt>
      <trkpt lat="47.208750005811453" lon="6.053639966994524">
        <ele>416.87</ele>
        <time>2025-04-23T13:31:05Z</time>
      </trkpt>
      <trkpt lat="47.208750005811453" lon="6.053639966994524">
        <ele>417.35000000000002</ele>
        <time>2025-04-23T13:31:15Z</time>
      </trkpt>
      <trkpt lat="47.208607010543346" lon="6.053725965321064">
        <ele>418.79000000000002</ele>
        <time>2025-04-23T13:31:27Z</time>
      </trkpt>
      <trkpt lat="47.208526963368058" lon="6.053734011948109">
        <ele>418.79000000000002</ele>
        <time>2025-04-23T13:31:28Z</time>
      </trkpt>
      <trkpt lat="47.208440965041518" lon="6.053712973371148">
        <ele>419.26999999999998</ele>
        <time>2025-04-23T13:31:29Z</time>
      </trkpt>
      <trkpt lat="47.208341974765062" lon="6.053661005571485">
        <ele>419.75</ele>
        <time>2025-04-23T13:31:30Z</time>
      </trkpt>
      <trkpt lat="47.208237033337355" lon="6.053589005023241">
        <ele>420.23000000000002</ele>
        <time>2025-04-23T13:31:31Z</time>
      </trkpt>
      <trkpt lat="47.207082007080317" lon="6.052715023979545">
        <ele>425.51999999999998</ele>
        <time>2025-04-23T13:31:40Z</time>
      </trkpt>
      <trkpt lat="47.20680900849402" lon="6.052536992356181">
        <ele>425.51999999999998</ele>
        <time>2025-04-23T13:31:42Z</time>
      </trkpt>
      <trkpt lat="47.206679005175829" lon="6.052505979314446">
        <ele>425.51999999999998</ele>
        <time>2025-04-23T13:31:43Z</time>
      </trkpt>
      <trkpt lat="47.206568028777838" lon="6.052516959607601">
        <ele>425.04000000000002</ele>
        <time>2025-04-23T13:31:44Z</time>
      </trkpt>
      <trkpt lat="47.206470966339111" lon="6.052565993741155">
        <ele>425.04000000000002</ele>
        <time>2025-04-23T13:31:45Z</time>
      </trkpt>
      <trkpt lat="47.206383040174842" lon="6.052654003724456">
        <ele>425.04000000000002</ele>
        <time>2025-04-23T13:31:46Z</time>
      </trkpt>
      <trkpt lat="47.206299975514412" lon="6.052775960415602">
        <ele>424.56</ele>
        <time>2025-04-23T13:31:47Z</time>
      </trkpt>
      <trkpt lat="47.206242978572845" lon="6.052941000089049">
        <ele>424.07999999999998</ele>
        <time>2025-04-23T13:31:48Z</time>
      </trkpt>
      <trkpt lat="47.206179024651647" lon="6.053122971206904">
        <ele>423.60000000000002</ele>
        <time>2025-04-23T13:31:49Z</time>
      </trkpt>
      <trkpt lat="47.206145999953151" lon="6.053336039185524">
        <ele>423.12</ele>
        <time>2025-04-23T13:31:50Z</time>
      </trkpt>
      <trkpt lat="47.206116998568177" lon="6.053553968667984">
        <ele>422.63999999999999</ele>
        <time>2025-04-23T13:31:51Z</time>
      </trkpt>
      <trkpt lat="47.206084979698062" lon="6.053788997232914">
        <ele>422.16000000000003</ele>
        <time>2025-04-23T13:31:52Z</time>
      </trkpt>
      <trkpt lat="47.206066036596894" lon="6.054601036012173">
        <ele>420.23000000000002</ele>
        <time>2025-04-23T13:31:56Z</time>
      </trkpt>
      <trkpt lat="47.206047009676695" lon="6.054764986038208">
        <ele>419.26999999999998</ele>
        <time>2025-04-23T13:31:57Z</time>
      </trkpt>
      <trkpt lat="47.206021025776863" lon="6.054883003234863">
        <ele>418.79000000000002</ele>
        <time>2025-04-23T13:31:58Z</time>
      </trkpt>
      <trkpt lat="47.205927986651659" lon="6.054993979632855">
        <ele>417.82999999999998</ele>
        <time>2025-04-23T13:31:59Z</time>
      </trkpt>
      <trkpt lat="47.205861015245318" lon="6.055076038464904">
        <ele>417.35000000000002</ele>
        <time>2025-04-23T13:32:00Z</time>
      </trkpt>
      <trkpt lat="47.205806029960513" lon="6.055140998214483">
        <ele>416.87</ele>
        <time>2025-04-23T13:32:01Z</time>
      </trkpt>
      <trkpt lat="47.205695975571871" lon="6.055159019306302">
        <ele>415.91000000000003</ele>
        <time>2025-04-23T13:32:02Z</time>
      </trkpt>
      <trkpt lat="47.205600002780557" lon="6.05517502874136">
        <ele>415.43000000000001</ele>
        <time>2025-04-23T13:32:03Z</time>
      </trkpt>
      <trkpt lat="47.205506963655353" lon="6.05515499599278">
        <ele>414.94999999999999</ele>
        <time>2025-04-23T13:32:04Z</time>
      </trkpt>
      <trkpt lat="47.2054130025208" lon="6.05508903041482">
        <ele>414.94999999999999</ele>
        <time>2025-04-23T13:32:05Z</time>
      </trkpt>
      <trkpt lat="47.205313006415963" lon="6.055019963532686">
        <ele>414.47000000000003</ele>
        <time>2025-04-23T13:32:06Z</time>
      </trkpt>
      <trkpt lat="47.205195995047688" lon="6.054938994348049">
        <ele>413.98000000000002</ele>
        <time>2025-04-23T13:32:07Z</time>
      </trkpt>
      <trkpt lat="47.205060962587595" lon="6.054845033213496">
        <ele>413.01999999999998</ele>
        <time>2025-04-23T13:32:08Z</time>
      </trkpt>
      <trkpt lat="47.20492098480463" lon="6.054746964946389">
        <ele>412.06</ele>
        <time>2025-04-23T13:32:09Z</time>
      </trkpt>
      <trkpt lat="47.204766003414989" lon="6.054645963013172">
        <ele>411.57999999999998</ele>
        <time>2025-04-23T13:32:10Z</time>
      </trkpt>
      <trkpt lat="47.204609010368586" lon="6.054626014083624">
        <ele>410.62</ele>
        <time>2025-04-23T13:32:11Z</time>
      </trkpt>
      <trkpt lat="47.204448999837041" lon="6.054604975506663">
        <ele>409.66000000000003</ele>
        <time>2025-04-23T13:32:12Z</time>
      </trkpt>
      <trkpt lat="47.204287983477116" lon="6.054585026577115">
        <ele>408.69999999999999</ele>
        <time>2025-04-23T13:32:13Z</time>
      </trkpt>
      <trkpt lat="47.203818010166287" lon="6.054487964138389">
        <ele>406.29000000000002</ele>
        <time>2025-04-23T13:32:16Z</time>
      </trkpt>
      <trkpt lat="47.203667974099517" lon="6.05442401021719">
        <ele>405.32999999999998</ele>
        <time>2025-04-23T13:32:17Z</time>
      </trkpt>
      <trkpt lat="47.202486963942647" lon="6.05347802862525">
        <ele>397.16000000000003</ele>
        <time>2025-04-23T13:32:26Z</time>
      </trkpt>
      <trkpt lat="47.202292000874877" lon="6.053260015323758">
        <ele>395.24000000000001</ele>
        <time>2025-04-23T13:32:28Z</time>
      </trkpt>
      <trkpt lat="47.202173983678222" lon="6.053166976198554">
        <ele>394.75999999999999</ele>
        <time>2025-04-23T13:32:29Z</time>
      </trkpt>
      <trkpt lat="47.202052026987076" lon="6.053082989528775">
        <ele>393.80000000000001</ele>
        <time>2025-04-23T13:32:30Z</time>
      </trkpt>
      <trkpt lat="47.201928980648518" lon="6.052997997030616">
        <ele>393.31999999999999</ele>
        <time>2025-04-23T13:32:31Z</time>
      </trkpt>
      <trkpt lat="47.201812975108624" lon="6.052917027845979">
        <ele>392.83999999999997</ele>
        <time>2025-04-23T13:32:32Z</time>
      </trkpt>
      <trkpt lat="47.201695963740349" lon="6.052824994549155">
        <ele>392.36000000000001</ele>
        <time>2025-04-23T13:32:33Z</time>
      </trkpt>
      <trkpt lat="47.201610971242189" lon="6.052687028422952">
        <ele>391.38999999999999</ele>
        <time>2025-04-23T13:32:34Z</time>
      </trkpt>
      <trkpt lat="47.201522961258888" lon="6.052532969042659">
        <ele>391.38999999999999</ele>
        <time>2025-04-23T13:32:35Z</time>
      </trkpt>
      <trkpt lat="47.201450960710645" lon="6.052359966561198">
        <ele>390.91000000000003</ele>
        <time>2025-04-23T13:32:36Z</time>
      </trkpt>
      <trkpt lat="47.201378038153052" lon="6.052185036242008">
        <ele>390.43000000000001</ele>
        <time>2025-04-23T13:32:37Z</time>
      </trkpt>
      <trkpt lat="47.201305031776428" lon="6.052013039588928">
        <ele>389.94999999999999</ele>
        <time>2025-04-23T13:32:38Z</time>
      </trkpt>
      <trkpt lat="47.201087018474936" lon="6.05152202770114">
        <ele>389.47000000000003</ele>
        <time>2025-04-23T13:32:41Z</time>
      </trkpt>
      <trkpt lat="47.200927007943392" lon="6.051217010244727">
        <ele>388.99000000000001</ele>
        <time>2025-04-23T13:32:43Z</time>
      </trkpt>
      <trkpt lat="47.200823994353414" lon="6.051091030240059">
        <ele>388.50999999999999</ele>
        <time>2025-04-23T13:32:44Z</time>
      </trkpt>
      <trkpt lat="47.200437001883984" lon="6.050677970051765">
        <ele>385.14999999999998</ele>
        <time>2025-04-23T13:32:48Z</time>
      </trkpt>
      <trkpt lat="47.200359972193837" lon="6.050616027787328">
        <ele>384.18000000000001</ele>
        <time>2025-04-23T13:32:49Z</time>
      </trkpt>
      <trkpt lat="47.200288977473974" lon="6.050628013908863">
        <ele>383.69999999999999</ele>
        <time>2025-04-23T13:32:50Z</time>
      </trkpt>
      <trkpt lat="47.200213959440589" lon="6.050644023343921">
        <ele>383.69999999999999</ele>
        <time>2025-04-23T13:32:51Z</time>
      </trkpt>
      <trkpt lat="47.200140031054616" lon="6.050693979486823">
        <ele>383.22000000000003</ele>
        <time>2025-04-23T13:32:52Z</time>
      </trkpt>
      <trkpt lat="47.200073981657624" lon="6.050805039703846">
        <ele>382.74000000000001</ele>
        <time>2025-04-23T13:32:53Z</time>
      </trkpt>
      <trkpt lat="47.19999804161489" lon="6.050931019708514">
        <ele>382.25999999999999</ele>
        <time>2025-04-23T13:32:54Z</time>
      </trkpt>
      <trkpt lat="47.199842976406217" lon="6.051188008859754">
        <ele>381.77999999999997</ele>
        <time>2025-04-23T13:32:56Z</time>
      </trkpt>
      <trkpt lat="47.199755972251296" lon="6.0512650385499">
        <ele>381.30000000000001</ele>
        <time>2025-04-23T13:32:57Z</time>
      </trkpt>
      <trkpt lat="47.199668968096375" lon="6.051321029663086">
        <ele>381.30000000000001</ele>
        <time>2025-04-23T13:32:58Z</time>
      </trkpt>
      <trkpt lat="47.19956997781992" lon="6.051321029663086">
        <ele>381.30000000000001</ele>
        <time>2025-04-23T13:32:59Z</time>
      </trkpt>
      <trkpt lat="47.199457995593548" lon="6.051321029663086">
        <ele>380.81999999999999</ele>
        <time>2025-04-23T13:33:00Z</time>
      </trkpt>
      <trkpt lat="47.199342995882034" lon="6.051289010792971">
        <ele>380.81999999999999</ele>
        <time>2025-04-23T13:33:01Z</time>
      </trkpt>
      <trkpt lat="47.199221961200237" lon="6.051247017458081">
        <ele>380.81999999999999</ele>
        <time>2025-04-23T13:33:02Z</time>
      </trkpt>
      <trkpt lat="47.199095981195569" lon="6.05120200663805">
        <ele>380.81999999999999</ele>
        <time>2025-04-23T13:33:03Z</time>
      </trkpt>
      <trkpt lat="47.198978969827294" lon="6.051121959462762">
        <ele>380.81999999999999</ele>
        <time>2025-04-23T13:33:04Z</time>
      </trkpt>
      <trkpt lat="47.1988629642874" lon="6.05103000998497">
        <ele>380.81999999999999</ele>
        <time>2025-04-23T13:33:05Z</time>
      </trkpt>
      <trkpt lat="47.198057966306806" lon="6.050547966733575">
        <ele>385.14999999999998</ele>
        <time>2025-04-23T13:33:12Z</time>
      </trkpt>
      <trkpt lat="47.19793600961566" lon="6.050530029460788">
        <ele>386.11000000000001</ele>
        <time>2025-04-23T13:33:13Z</time>
      </trkpt>
      <trkpt lat="47.197809023782611" lon="6.050509996712208">
        <ele>386.58999999999997</ele>
        <time>2025-04-23T13:33:14Z</time>
      </trkpt>
      <trkpt lat="47.196951974183321" lon="6.050572022795677">
        <ele>387.06999999999999</ele>
        <time>2025-04-23T13:33:20Z</time>
      </trkpt>
      <trkpt lat="47.196805039420724" lon="6.050563976168633">
        <ele>387.06999999999999</ele>
        <time>2025-04-23T13:33:21Z</time>
      </trkpt>
      <trkpt lat="47.196662966161966" lon="6.05055601336062">
        <ele>387.06999999999999</ele>
        <time>2025-04-23T13:33:22Z</time>
      </trkpt>
      <trkpt lat="47.196531035006046" lon="6.050550984218717">
        <ele>387.55000000000001</ele>
        <time>2025-04-23T13:33:23Z</time>
      </trkpt>
      <trkpt lat="47.196402959525585" lon="6.050603035837412">
        <ele>387.55000000000001</ele>
        <time>2025-04-23T13:33:24Z</time>
      </trkpt>
      <trkpt lat="47.196267005056143" lon="6.050658021122217">
        <ele>387.55000000000001</ele>
        <time>2025-04-23T13:33:25Z</time>
      </trkpt>
      <trkpt lat="47.196124009788036" lon="6.050716023892164">
        <ele>387.06999999999999</ele>
        <time>2025-04-23T13:33:26Z</time>
      </trkpt>
      <trkpt lat="47.195534007623792" lon="6.050926996394992">
        <ele>384.66000000000003</ele>
        <time>2025-04-23T13:33:30Z</time>
      </trkpt>
      <trkpt lat="47.195391012355685" lon="6.050946023315191">
        <ele>384.18000000000001</ele>
        <time>2025-04-23T13:33:31Z</time>
      </trkpt>
      <trkpt lat="47.195255979895592" lon="6.050934959203005">
        <ele>384.18000000000001</ele>
        <time>2025-04-23T13:33:32Z</time>
      </trkpt>
      <trkpt lat="47.195117007941008" lon="6.050882991403341">
        <ele>384.18000000000001</ele>
        <time>2025-04-23T13:33:33Z</time>
      </trkpt>
      <trkpt lat="47.194977030158043" lon="6.050831023603678">
        <ele>384.18000000000001</ele>
        <time>2025-04-23T13:33:34Z</time>
      </trkpt>
      <trkpt lat="47.19422098249197" lon="6.050548972561956">
        <ele>383.22000000000003</ele>
        <time>2025-04-23T13:33:39Z</time>
      </trkpt>
      <trkpt lat="47.194078993052244" lon="6.050461968407035">
        <ele>383.22000000000003</ele>
        <time>2025-04-23T13:33:40Z</time>
      </trkpt>
      <trkpt lat="47.193372985348105" lon="6.050027031451464">
        <ele>381.30000000000001</ele>
        <time>2025-04-23T13:33:45Z</time>
      </trkpt>
      <trkpt lat="47.193238036707044" lon="6.049943966791034">
        <ele>380.81999999999999</ele>
        <time>2025-04-23T13:33:46Z</time>
      </trkpt>
      <trkpt lat="47.193095963448286" lon="6.049917982891202">
        <ele>380.81999999999999</ele>
        <time>2025-04-23T13:33:47Z</time>
      </trkpt>
      <trkpt lat="47.192956991493702" lon="6.049907002598047">
        <ele>380.33999999999997</ele>
        <time>2025-04-23T13:33:48Z</time>
      </trkpt>
      <trkpt lat="47.19282497651875" lon="6.049967017024756">
        <ele>380.33999999999997</ele>
        <time>2025-04-23T13:33:49Z</time>
      </trkpt>
      <trkpt lat="47.192700002342463" lon="6.05004002340138">
        <ele>379.86000000000001</ele>
        <time>2025-04-23T13:33:50Z</time>
      </trkpt>
      <trkpt lat="47.192572010681033" lon="6.050115041434765">
        <ele>379.86000000000001</ele>
        <time>2025-04-23T13:33:51Z</time>
      </trkpt>
      <trkpt lat="47.192447036504745" lon="6.050187963992357">
        <ele>379.38</ele>
        <time>2025-04-23T13:33:52Z</time>
      </trkpt>
      <trkpt lat="47.192317033186555" lon="6.05021202005446">
        <ele>379.38</ele>
        <time>2025-04-23T13:33:53Z</time>
      </trkpt>
      <trkpt lat="47.192186024039984" lon="6.050221994519234">
        <ele>379.38</ele>
        <time>2025-04-23T13:33:54Z</time>
      </trkpt>
      <trkpt lat="47.192060966044664" lon="6.05019198730588">
        <ele>378.89999999999998</ele>
        <time>2025-04-23T13:33:55Z</time>
      </trkpt>
      <trkpt lat="47.191932974383235" lon="6.050112023949623">
        <ele>378.89999999999998</ele>
        <time>2025-04-23T13:33:56Z</time>
      </trkpt>
      <trkpt lat="47.191798025742173" lon="6.050028037279844">
        <ele>378.42000000000002</ele>
        <time>2025-04-23T13:33:57Z</time>
      </trkpt>
      <trkpt lat="47.191658969968557" lon="6.049941033124924">
        <ele>377.94</ele>
        <time>2025-04-23T13:33:58Z</time>
      </trkpt>
      <trkpt lat="47.19140499830246" lon="6.049685971811414">
        <ele>376.97000000000003</ele>
        <time>2025-04-23T13:34:00Z</time>
      </trkpt>
      <trkpt lat="47.191283041611314" lon="6.049549011513591">
        <ele>376.97000000000003</ele>
        <time>2025-04-23T13:34:01Z</time>
      </trkpt>
      <trkpt lat="47.191163012757897" lon="6.049415990710259">
        <ele>376.49000000000001</ele>
        <time>2025-04-23T13:34:02Z</time>
      </trkpt>
      <trkpt lat="47.191043989732862" lon="6.049282969906926">
        <ele>376.00999999999999</ele>
        <time>2025-04-23T13:34:03Z</time>
      </trkpt>
      <trkpt lat="47.190902000293136" lon="6.049188002943993">
        <ele>376.00999999999999</ele>
        <time>2025-04-23T13:34:04Z</time>
      </trkpt>
      <trkpt lat="47.190751964226365" lon="6.049098987132311">
        <ele>376.00999999999999</ele>
        <time>2025-04-23T13:34:05Z</time>
      </trkpt>
      <trkpt lat="47.190593965351582" lon="6.049044001847506">
        <ele>375.52999999999997</ele>
        <time>2025-04-23T13:34:06Z</time>
      </trkpt>
      <trkpt lat="47.190434960648417" lon="6.0489890165627">
        <ele>375.05000000000001</ele>
        <time>2025-04-23T13:34:07Z</time>
      </trkpt>
      <trkpt lat="47.189102992415428" lon="6.048751976341009">
        <ele>373.13</ele>
        <time>2025-04-23T13:34:16Z</time>
      </trkpt>
      <trkpt lat="47.188779031857848" lon="6.048717023804784">
        <ele>372.64999999999998</ele>
        <time>2025-04-23T13:34:20Z</time>
      </trkpt>
      <trkpt lat="47.188738966360688" lon="6.048705037683249">
        <ele>372.64999999999998</ele>
        <time>2025-04-23T13:34:21Z</time>
      </trkpt>
      <trkpt lat="47.188706025481224" lon="6.048694979399443">
        <ele>372.17000000000002</ele>
        <time>2025-04-23T13:34:22Z</time>
      </trkpt>
      <trkpt lat="47.188677024096251" lon="6.048610992729664">
        <ele>372.17000000000002</ele>
        <time>2025-04-23T13:34:23Z</time>
      </trkpt>
      <trkpt lat="47.188694039359689" lon="6.048535974696279">
        <ele>371.69</ele>
        <time>2025-04-23T13:34:24Z</time>
      </trkpt>
      <trkpt lat="47.188717005774379" lon="6.048433966934681">
        <ele>371.69</ele>
        <time>2025-04-23T13:34:25Z</time>
      </trkpt>
      <trkpt lat="47.188747012987733" lon="6.048296000808477">
        <ele>371.20999999999998</ele>
        <time>2025-04-23T13:34:26Z</time>
      </trkpt>
      <trkpt lat="47.188770985230803" lon="6.048175971955061">
        <ele>371.20999999999998</ele>
        <time>2025-04-23T13:34:27Z</time>
      </trkpt>
      <trkpt lat="47.189060999080539" lon="6.047099987044931">
        <ele>369.75999999999999</ele>
        <time>2025-04-23T13:34:35Z</time>
      </trkpt>
      <trkpt lat="47.189121013507247" lon="6.046994961798191">
        <ele>369.75999999999999</ele>
        <time>2025-04-23T13:34:36Z</time>
      </trkpt>
      <trkpt lat="47.189457966014743" lon="6.046415017917752">
        <ele>368.31999999999999</ele>
        <time>2025-04-23T13:34:41Z</time>
      </trkpt>
      <trkpt lat="47.18953600153327" lon="6.046280991286039">
        <ele>367.83999999999997</ele>
        <time>2025-04-23T13:34:42Z</time>
      </trkpt>
      <trkpt lat="47.189770024269819" lon="6.045858962461352">
        <ele>367.36000000000001</ele>
        <time>2025-04-23T13:34:45Z</time>
      </trkpt>
      <trkpt lat="47.190089039504528" lon="6.044888002797961">
        <ele>365.44</ele>
        <time>2025-04-23T13:34:51Z</time>
      </trkpt>
      <trkpt lat="47.190141007304192" lon="6.044723968952894">
        <ele>364.95999999999998</ele>
        <time>2025-04-23T13:34:52Z</time>
      </trkpt>
      <trkpt lat="47.190258018672466" lon="6.044406965374947">
        <ele>364.95999999999998</ele>
        <time>2025-04-23T13:34:54Z</time>
      </trkpt>
      <trkpt lat="47.190318033099174" lon="6.04426103644073">
        <ele>364.48000000000002</ele>
        <time>2025-04-23T13:34:55Z</time>
      </trkpt>
      <trkpt lat="47.190436972305179" lon="6.043972028419375">
        <ele>363.51999999999998</ele>
        <time>2025-04-23T13:34:57Z</time>
      </trkpt>
      <trkpt lat="47.190492963418365" lon="6.043822998180986">
        <ele>363.04000000000002</ele>
        <time>2025-04-23T13:34:58Z</time>
      </trkpt>
      <trkpt lat="47.190535040572286" lon="6.043651001527906">
        <ele>362.55000000000001</ele>
        <time>2025-04-23T13:34:59Z</time>
      </trkpt>
      <trkpt lat="47.190578039735556" lon="6.043476993218064">
        <ele>362.06999999999999</ele>
        <time>2025-04-23T13:35:00Z</time>
      </trkpt>
      <trkpt lat="47.190621038898826" lon="6.043300973251462">
        <ele>361.58999999999997</ele>
        <time>2025-04-23T13:35:01Z</time>
      </trkpt>
      <trkpt lat="47.190701002255082" lon="6.042967038229108">
        <ele>361.11000000000001</ele>
        <time>2025-04-23T13:35:03Z</time>
      </trkpt>
      <trkpt lat="47.190713994204998" lon="6.042785989120603">
        <ele>360.63</ele>
        <time>2025-04-23T13:35:04Z</time>
      </trkpt>
      <trkpt lat="47.190755987539887" lon="6.042210990563035">
        <ele>359.67000000000002</ele>
        <time>2025-04-23T13:35:07Z</time>
      </trkpt>
      <trkpt lat="47.190792029723525" lon="6.042021978646517">
        <ele>359.67000000000002</ele>
        <time>2025-04-23T13:35:08Z</time>
      </trkpt>
      <trkpt lat="47.190856989473104" lon="6.04185601696372">
        <ele>359.19</ele>
        <time>2025-04-23T13:35:09Z</time>
      </trkpt>
      <trkpt lat="47.190923960879445" lon="6.041685026139021">
        <ele>358.70999999999998</ele>
        <time>2025-04-23T13:35:10Z</time>
      </trkpt>
      <trkpt lat="47.190994033589959" lon="6.041505988687277">
        <ele>358.70999999999998</ele>
        <time>2025-04-23T13:35:11Z</time>
      </trkpt>
      <trkpt lat="47.191291004419327" lon="6.040644999593496">
        <ele>357.75</ele>
        <time>2025-04-23T13:35:16Z</time>
      </trkpt>
      <trkpt lat="47.191323023289442" lon="6.040469985455275">
        <ele>357.75</ele>
        <time>2025-04-23T13:35:17Z</time>
      </trkpt>
      <trkpt lat="47.191351018846035" lon="6.040301006287336">
        <ele>357.75</ele>
        <time>2025-04-23T13:35:18Z</time>
      </trkpt>
      <trkpt lat="47.191367028281093" lon="6.040139989927411">
        <ele>358.23000000000002</ele>
        <time>2025-04-23T13:35:19Z</time>
      </trkpt>
      <trkpt lat="47.191373985260725" lon="6.039990037679672">
        <ele>358.23000000000002</ele>
        <time>2025-04-23T13:35:20Z</time>
      </trkpt>
      <trkpt lat="47.191383959725499" lon="6.03975098580122">
        <ele>358.70999999999998</ele>
        <time>2025-04-23T13:35:22Z</time>
      </trkpt>
      <trkpt lat="47.191386977210641" lon="6.039690971374512">
        <ele>358.70999999999998</ele>
        <time>2025-04-23T13:35:23Z</time>
      </trkpt>
      <trkpt lat="47.191446991637349" lon="6.039671022444964">
        <ele>359.19</ele>
        <time>2025-04-23T13:35:24Z</time>
      </trkpt>
      <trkpt lat="47.191502982750535" lon="6.039651995524764">
        <ele>359.19</ele>
        <time>2025-04-23T13:35:25Z</time>
      </trkpt>
      <trkpt lat="47.191540030762553" lon="6.039677979424596">
        <ele>359.67000000000002</ele>
        <time>2025-04-23T13:35:26Z</time>
      </trkpt>
      <trkpt lat="47.1915980335325" lon="6.03975098580122">
        <ele>360.14999999999998</ele>
        <time>2025-04-23T13:35:27Z</time>
      </trkpt>
      <trkpt lat="47.191670034080744" lon="6.039833966642618">
        <ele>360.14999999999998</ele>
        <time>2025-04-23T13:35:28Z</time>
      </trkpt>
      <trkpt lat="47.191752009093761" lon="6.039927005767822">
        <ele>360.63</ele>
        <time>2025-04-23T13:35:29Z</time>
      </trkpt>
      <trkpt lat="47.191828032955527" lon="6.040014009922743">
        <ele>360.63</ele>
        <time>2025-04-23T13:35:30Z</time>
      </trkpt>
      <trkpt lat="47.191909002140164" lon="6.040093973278999">
        <ele>361.11000000000001</ele>
        <time>2025-04-23T13:35:31Z</time>
      </trkpt>
      <trkpt lat="47.191953007131815" lon="6.040067989379168">
        <ele>360.63</ele>
        <time>2025-04-23T13:35:32Z</time>
      </trkpt>
      <trkpt lat="47.191989971324801" lon="6.040046028792858">
        <ele>360.63</ele>
        <time>2025-04-23T13:35:33Z</time>
      </trkpt>
      <trkpt lat="47.191990977153182" lon="6.039931029081345">
        <ele>360.63</ele>
        <time>2025-04-23T13:35:34Z</time>
      </trkpt>
      <trkpt lat="47.191975973546505" lon="6.039846036583185">
        <ele>360.63</ele>
        <time>2025-04-23T13:35:35Z</time>
      </trkpt>
      <trkpt lat="47.191958958283067" lon="6.039744028821588">
        <ele>360.63</ele>
        <time>2025-04-23T13:35:36Z</time>
      </trkpt>
      <trkpt lat="47.191939009353518" lon="6.039631040766835">
        <ele>361.11000000000001</ele>
        <time>2025-04-23T13:35:37Z</time>
      </trkpt>
      <trkpt lat="47.191947977989912" lon="6.039471030235291">
        <ele>361.58999999999997</ele>
        <time>2025-04-23T13:35:38Z</time>
      </trkpt>
      <trkpt lat="47.191989971324801" lon="6.039352007210255">
        <ele>362.55000000000001</ele>
        <time>2025-04-23T13:35:39Z</time>
      </trkpt>
      <trkpt lat="47.192035987973213" lon="6.039224015548825">
        <ele>363.51999999999998</ele>
        <time>2025-04-23T13:35:40Z</time>
      </trkpt>
      <trkpt lat="47.192083010450006" lon="6.039092000573874">
        <ele>364.95999999999998</ele>
        <time>2025-04-23T13:35:41Z</time>
      </trkpt>
      <trkpt lat="47.192127015441656" lon="6.038969038054347">
        <ele>365.92000000000002</ele>
        <time>2025-04-23T13:35:42Z</time>
      </trkpt>
      <trkpt lat="47.192150987684727" lon="6.038839034736157">
        <ele>366.88</ele>
        <time>2025-04-23T13:35:43Z</time>
      </trkpt>
      <trkpt lat="47.192169008776546" lon="6.038701990619302">
        <ele>367.83999999999997</ele>
        <time>2025-04-23T13:35:44Z</time>
      </trkpt>
      <trkpt lat="47.192174959927797" lon="6.038567963987589">
        <ele>368.80000000000001</ele>
        <time>2025-04-23T13:35:45Z</time>
      </trkpt>
      <trkpt lat="47.192158028483391" lon="6.038425974547863">
        <ele>369.75999999999999</ele>
        <time>2025-04-23T13:35:46Z</time>
      </trkpt>
      <trkpt lat="47.192141013219953" lon="6.038281973451376">
        <ele>371.20999999999998</ele>
        <time>2025-04-23T13:35:47Z</time>
      </trkpt>
      <trkpt lat="47.192147970199585" lon="6.038141995668411">
        <ele>372.64999999999998</ele>
        <time>2025-04-23T13:35:48Z</time>
      </trkpt>
      <trkpt lat="47.192162973806262" lon="6.038006963208318">
        <ele>374.08999999999997</ele>
        <time>2025-04-23T13:35:49Z</time>
      </trkpt>
      <trkpt lat="47.192207984626293" lon="6.037891963496804">
        <ele>375.05000000000001</ele>
        <time>2025-04-23T13:35:50Z</time>
      </trkpt>
      <trkpt lat="47.192254001274705" lon="6.037771012634039">
        <ele>376.00999999999999</ele>
        <time>2025-04-23T13:35:51Z</time>
      </trkpt>
      <trkpt lat="47.192301023751497" lon="6.037647966295481">
        <ele>376.97000000000003</ele>
        <time>2025-04-23T13:35:52Z</time>
      </trkpt>
      <trkpt lat="47.192347040399909" lon="6.037529027089477">
        <ele>377.44999999999999</ele>
        <time>2025-04-23T13:35:53Z</time>
      </trkpt>
      <trkpt lat="47.192407976835966" lon="6.037306990474463">
        <ele>378.42000000000002</ele>
        <time>2025-04-23T13:35:55Z</time>
      </trkpt>
      <trkpt lat="47.192677035927773" lon="6.036416999995709">
        <ele>381.77999999999997</ele>
        <time>2025-04-23T13:36:02Z</time>
      </trkpt>
      <trkpt lat="47.192747024819255" lon="6.036268975585699">
        <ele>382.25999999999999</ele>
        <time>2025-04-23T13:36:03Z</time>
      </trkpt>
      <trkpt lat="47.19282397069037" lon="6.036107959225774">
        <ele>382.74000000000001</ele>
        <time>2025-04-23T13:36:04Z</time>
      </trkpt>
      <trkpt lat="47.193276006728411" lon="6.03545299731195">
        <ele>385.14999999999998</ele>
        <time>2025-04-23T13:36:09Z</time>
      </trkpt>
      <trkpt lat="47.193910013884306" lon="6.034522019326687">
        <ele>385.63</ele>
        <time>2025-04-23T13:36:15Z</time>
      </trkpt>
      <trkpt lat="47.193985031917691" lon="6.034354967996478">
        <ele>385.63</ele>
        <time>2025-04-23T13:36:16Z</time>
      </trkpt>
      <trkpt lat="47.194043034687638" lon="6.034178026020527">
        <ele>386.11000000000001</ele>
        <time>2025-04-23T13:36:17Z</time>
      </trkpt>
      <trkpt lat="47.194083016365767" lon="6.033979039639235">
        <ele>386.58999999999997</ele>
        <time>2025-04-23T13:36:18Z</time>
      </trkpt>
      <trkpt lat="47.19411201775074" lon="6.033766977488995">
        <ele>387.06999999999999</ele>
        <time>2025-04-23T13:36:19Z</time>
      </trkpt>
      <trkpt lat="47.19411201775074" lon="6.033549970015883">
        <ele>387.06999999999999</ele>
        <time>2025-04-23T13:36:20Z</time>
      </trkpt>
      <trkpt lat="47.19411201775074" lon="6.033342014998198">
        <ele>388.02999999999997</ele>
        <time>2025-04-23T13:36:21Z</time>
      </trkpt>
      <trkpt lat="47.19411201775074" lon="6.03315400891006">
        <ele>388.50999999999999</ele>
        <time>2025-04-23T13:36:22Z</time>
      </trkpt>
      <trkpt lat="47.19411201775074" lon="6.032991986721754">
        <ele>388.99000000000001</ele>
        <time>2025-04-23T13:36:23Z</time>
      </trkpt>
      <trkpt lat="47.194157028570771" lon="6.032838011160493">
        <ele>389.94999999999999</ele>
        <time>2025-04-23T13:36:24Z</time>
      </trkpt>
      <trkpt lat="47.194221988320351" lon="6.032700967043638">
        <ele>390.43000000000001</ele>
        <time>2025-04-23T13:36:25Z</time>
      </trkpt>
      <trkpt lat="47.194288959726691" lon="6.032558977603912">
        <ele>391.38999999999999</ele>
        <time>2025-04-23T13:36:26Z</time>
      </trkpt>
      <trkpt lat="47.194375041872263" lon="6.032428974285722">
        <ele>392.36000000000001</ele>
        <time>2025-04-23T13:36:27Z</time>
      </trkpt>
      <trkpt lat="47.194471014663577" lon="6.032325038686395">
        <ele>393.31999999999999</ele>
        <time>2025-04-23T13:36:28Z</time>
      </trkpt>
      <trkpt lat="47.194565981626511" lon="6.032221019268036">
        <ele>393.80000000000001</ele>
        <time>2025-04-23T13:36:29Z</time>
      </trkpt>
      <trkpt lat="47.194662038236856" lon="6.032118005678058">
        <ele>394.27999999999997</ele>
        <time>2025-04-23T13:36:30Z</time>
      </trkpt>
      <trkpt lat="47.194759016856551" lon="6.032011974602938">
        <ele>394.75999999999999</ele>
        <time>2025-04-23T13:36:31Z</time>
      </trkpt>
      <trkpt lat="47.194840991869569" lon="6.031922958791256">
        <ele>395.24000000000001</ele>
        <time>2025-04-23T13:36:32Z</time>
      </trkpt>
      <trkpt lat="47.194925984367728" lon="6.031790021806955">
        <ele>395.72000000000003</ele>
        <time>2025-04-23T13:36:33Z</time>
      </trkpt>
      <trkpt lat="47.19499203376472" lon="6.031687008216977">
        <ele>396.68000000000001</ele>
        <time>2025-04-23T13:36:34Z</time>
      </trkpt>
      <trkpt lat="47.19499203376472" lon="6.031532026827335">
        <ele>397.16000000000003</ele>
        <time>2025-04-23T13:36:35Z</time>
      </trkpt>
      <trkpt lat="47.19499203376472" lon="6.031384002417326">
        <ele>397.16000000000003</ele>
        <time>2025-04-23T13:36:36Z</time>
      </trkpt>
      <trkpt lat="47.194991027936339" lon="6.031235978007317">
        <ele>398.12</ele>
        <time>2025-04-23T13:36:37Z</time>
      </trkpt>
      <trkpt lat="47.194935958832502" lon="6.031074039638042">
        <ele>398.60000000000002</ele>
        <time>2025-04-23T13:36:38Z</time>
      </trkpt>
      <trkpt lat="47.194875022396445" lon="6.030895002186298">
        <ele>399.07999999999998</ele>
        <time>2025-04-23T13:36:39Z</time>
      </trkpt>
      <trkpt lat="47.194809978827834" lon="6.030703978613019">
        <ele>399.56999999999999</ele>
        <time>2025-04-23T13:36:40Z</time>
      </trkpt>
      <trkpt lat="47.194744013249874" lon="6.030513038858771">
        <ele>400.05000000000001</ele>
        <time>2025-04-23T13:36:41Z</time>
      </trkpt>
      <trkpt lat="47.19460504129529" lon="6.030013980343938">
        <ele>400.52999999999997</ele>
        <time>2025-04-23T13:36:44Z</time>
      </trkpt>
      <trkpt lat="47.194590959697962" lon="6.029774006456137">
        <ele>401.00999999999999</ele>
        <time>2025-04-23T13:36:45Z</time>
      </trkpt>
      <trkpt lat="47.194596994668245" lon="6.029636040329933">
        <ele>401.49000000000001</ele>
        <time>2025-04-23T13:36:46Z</time>
      </trkpt>
      <trkpt lat="47.194640999659896" lon="6.029522968456149">
        <ele>401.97000000000003</ele>
        <time>2025-04-23T13:36:47Z</time>
      </trkpt>
      <trkpt lat="47.194685004651546" lon="6.029407968744636">
        <ele>401.97000000000003</ele>
        <time>2025-04-23T13:36:48Z</time>
      </trkpt>
      <trkpt lat="47.194763040170074" lon="6.029343008995056">
        <ele>402.44999999999999</ele>
        <time>2025-04-23T13:36:49Z</time>
      </trkpt>
      <trkpt lat="47.194859012961388" lon="6.029279977083206">
        <ele>402.93000000000001</ele>
        <time>2025-04-23T13:36:50Z</time>
      </trkpt>
      <trkpt lat="47.194963032379746" lon="6.029209988191724">
        <ele>402.93000000000001</ele>
        <time>2025-04-23T13:36:51Z</time>
      </trkpt>
      <trkpt lat="47.195592010393739" lon="6.028875969350338">
        <ele>401.97000000000003</ele>
        <time>2025-04-23T13:36:57Z</time>
      </trkpt>
      <trkpt lat="47.195630986243486" lon="6.028745966032147">
        <ele>401.49000000000001</ele>
        <time>2025-04-23T13:36:58Z</time>
      </trkpt>
      <trkpt lat="47.195656970143318" lon="6.028661979362369">
        <ele>401.00999999999999</ele>
        <time>2025-04-23T13:36:59Z</time>
      </trkpt>
      <trkpt lat="47.195630986243486" lon="6.028588972985745">
        <ele>400.52999999999997</ele>
        <time>2025-04-23T13:37:00Z</time>
      </trkpt>
      <trkpt lat="47.195591004565358" lon="6.028479002416134">
        <ele>399.56999999999999</ele>
        <time>2025-04-23T13:37:01Z</time>
      </trkpt>
      <trkpt lat="47.195546999573708" lon="6.028357967734337">
        <ele>398.60000000000002</ele>
        <time>2025-04-23T13:37:02Z</time>
      </trkpt>
      <trkpt lat="47.195469969883561" lon="6.028251014649868">
        <ele>397.63999999999999</ele>
        <time>2025-04-23T13:37:03Z</time>
      </trkpt>
      <trkpt lat="47.195396963506937" lon="6.028151018545032">
        <ele>396.68000000000001</ele>
        <time>2025-04-23T13:37:04Z</time>
      </trkpt>
      <trkpt lat="47.195330997928977" lon="6.028058985248208">
        <ele>395.72000000000003</ele>
        <time>2025-04-23T13:37:05Z</time>
      </trkpt>
      <trkpt lat="47.195275006815791" lon="6.027981033548713">
        <ele>394.27999999999997</ele>
        <time>2025-04-23T13:37:06Z</time>
      </trkpt>
      <trkpt lat="47.195258997380733" lon="6.027893023565412">
        <ele>393.31999999999999</ele>
        <time>2025-04-23T13:37:07Z</time>
      </trkpt>
      <trkpt lat="47.19525002874434" lon="6.027822028845549">
        <ele>392.36000000000001</ele>
        <time>2025-04-23T13:37:08Z</time>
      </trkpt>
      <trkpt lat="47.19527299515903" lon="6.027765031903982">
        <ele>391.38999999999999</ele>
        <time>2025-04-23T13:37:09Z</time>
      </trkpt>
      <trkpt lat="47.195314988493919" lon="6.02769797667861">
        <ele>390.43000000000001</ele>
        <time>2025-04-23T13:37:10Z</time>
      </trkpt>
      <trkpt lat="47.195382965728641" lon="6.027639973908663">
        <ele>389.47000000000003</ele>
        <time>2025-04-23T13:37:11Z</time>
      </trkpt>
      <trkpt lat="47.195466030389071" lon="6.027567973360419">
        <ele>388.50999999999999</ele>
        <time>2025-04-23T13:37:12Z</time>
      </trkpt>
      <trkpt lat="47.195557979866862" lon="6.027490021660924">
        <ele>387.55000000000001</ele>
        <time>2025-04-23T13:37:13Z</time>
      </trkpt>
      <trkpt lat="47.195635009557009" lon="6.027379967272282">
        <ele>387.06999999999999</ele>
        <time>2025-04-23T13:37:14Z</time>
      </trkpt>
      <trkpt lat="47.195701980963349" lon="6.027253987267613">
        <ele>386.58999999999997</ele>
        <time>2025-04-23T13:37:15Z</time>
      </trkpt>
      <trkpt lat="47.195769958198071" lon="6.027119038626552">
        <ele>385.63</ele>
        <time>2025-04-23T13:37:16Z</time>
      </trkpt>
      <trkpt lat="47.195818992331624" lon="6.026969002559781">
        <ele>385.14999999999998</ele>
        <time>2025-04-23T13:37:17Z</time>
      </trkpt>
      <trkpt lat="47.196017978712916" lon="6.026382017880678">
        <ele>383.69999999999999</ele>
        <time>2025-04-23T13:37:21Z</time>
      </trkpt>
      <trkpt lat="47.196088973432779" lon="6.026275986805558">
        <ele>383.69999999999999</ele>
        <time>2025-04-23T13:37:22Z</time>
      </trkpt>
      <trkpt lat="47.196158040314913" lon="6.02617297321558">
        <ele>383.22000000000003</ele>
        <time>2025-04-23T13:37:23Z</time>
      </trkpt>
      <trkpt lat="47.196244960650802" lon="6.026114970445633">
        <ele>383.22000000000003</ele>
        <time>2025-04-23T13:37:24Z</time>
      </trkpt>
      <trkpt lat="47.196332970634103" lon="6.026070965453982">
        <ele>383.22000000000003</ele>
        <time>2025-04-23T13:37:25Z</time>
      </trkpt>
      <trkpt lat="47.196420980617404" lon="6.026052022352815">
        <ele>383.69999999999999</ele>
        <time>2025-04-23T13:37:26Z</time>
      </trkpt>
      <trkpt lat="47.196501027792692" lon="6.026070965453982">
        <ele>384.18000000000001</ele>
        <time>2025-04-23T13:37:27Z</time>
      </trkpt>
      <trkpt lat="47.196570010855794" lon="6.026087980717421">
        <ele>385.14999999999998</ele>
        <time>2025-04-23T13:37:28Z</time>
      </trkpt>
      <trkpt lat="47.196676963940263" lon="6.026112958788872">
        <ele>386.11000000000001</ele>
        <time>2025-04-23T13:37:30Z</time>
      </trkpt>
      <trkpt lat="47.196715017780662" lon="6.026122011244297">
        <ele>386.58999999999997</ele>
        <time>2025-04-23T13:37:31Z</time>
      </trkpt>
      <trkpt lat="47.196744019165635" lon="6.026128968223929">
        <ele>387.06999999999999</ele>
        <time>2025-04-23T13:37:32Z</time>
      </trkpt>
      <trkpt lat="47.196765979751945" lon="6.026133997365832">
        <ele>387.55000000000001</ele>
        <time>2025-04-23T13:37:33Z</time>
      </trkpt>
      <trkpt lat="47.196816019713879" lon="6.026104995980859">
        <ele>388.50999999999999</ele>
        <time>2025-04-23T13:37:40Z</time>
      </trkpt>
      <trkpt lat="47.196762962266803" lon="6.025986978784204">
        <ele>389.47000000000003</ele>
        <time>2025-04-23T13:37:43Z</time>
      </trkpt>
      <trkpt lat="47.196731027215719" lon="6.02591497823596">
        <ele>389.94999999999999</ele>
        <time>2025-04-23T13:37:44Z</time>
      </trkpt>
      <trkpt lat="47.196380998939276" lon="6.02501199580729">
        <ele>391.38999999999999</ele>
        <time>2025-04-23T13:37:51Z</time>
      </trkpt>
      <trkpt lat="47.195856040343642" lon="6.023522028699517">
        <ele>392.83999999999997</ele>
        <time>2025-04-23T13:37:59Z</time>
      </trkpt>
      <trkpt lat="47.194835962727666" lon="6.021286994218826">
        <ele>395.24000000000001</ele>
        <time>2025-04-23T13:38:10Z</time>
      </trkpt>
      <trkpt lat="47.193711027503014" lon="6.019861986860633">
        <ele>396.19999999999999</ele>
        <time>2025-04-23T13:38:18Z</time>
      </trkpt>
      <trkpt lat="47.193472981452942" lon="6.019425960257649">
        <ele>396.68000000000001</ele>
        <time>2025-04-23T13:38:20Z</time>
      </trkpt>
      <trkpt lat="47.192494980990887" lon="6.018100026994944">
        <ele>398.12</ele>
        <time>2025-04-23T13:38:27Z</time>
      </trkpt>
      <trkpt lat="47.190548032522202" lon="6.016217032447457">
        <ele>391.38999999999999</ele>
        <time>2025-04-23T13:38:38Z</time>
      </trkpt>
      <trkpt lat="47.188669983297586" lon="6.014147959649563">
        <ele>384.66000000000003</ele>
        <time>2025-04-23T13:38:49Z</time>
      </trkpt>
      <trkpt lat="47.187202982604504" lon="6.012350041419268">
        <ele>381.77999999999997</ele>
        <time>2025-04-23T13:38:58Z</time>
      </trkpt>
      <trkpt lat="47.185934968292713" lon="6.010527983307838">
        <ele>384.66000000000003</ele>
        <time>2025-04-23T13:39:08Z</time>
      </trkpt>
      <trkpt lat="47.185849975794554" lon="6.010308964177966">
        <ele>385.14999999999998</ele>
        <time>2025-04-23T13:39:09Z</time>
      </trkpt>
      <trkpt lat="47.185462983325124" lon="6.009190985932946">
        <ele>387.55000000000001</ele>
        <time>2025-04-23T13:39:14Z</time>
      </trkpt>
      <trkpt lat="47.185377990826964" lon="6.008989987894893">
        <ele>388.02999999999997</ele>
        <time>2025-04-23T13:39:15Z</time>
      </trkpt>
      <trkpt lat="47.185271037742496" lon="6.00881296209991">
        <ele>388.02999999999997</ele>
        <time>2025-04-23T13:39:16Z</time>
      </trkpt>
      <trkpt lat="47.185142040252686" lon="6.008672984316945">
        <ele>388.02999999999997</ele>
        <time>2025-04-23T13:39:17Z</time>
      </trkpt>
      <trkpt lat="47.185013964772224" lon="6.008535018190742">
        <ele>388.02999999999997</ele>
        <time>2025-04-23T13:39:18Z</time>
      </trkpt>
      <trkpt lat="47.184865018352866" lon="6.008454971015453">
        <ele>387.55000000000001</ele>
        <time>2025-04-23T13:39:19Z</time>
      </trkpt>
      <trkpt lat="47.184714982286096" lon="6.008376013487577">
        <ele>387.55000000000001</ele>
        <time>2025-04-23T13:39:20Z</time>
      </trkpt>
      <trkpt lat="47.184567963704467" lon="6.00829797796905">
        <ele>387.55000000000001</ele>
        <time>2025-04-23T13:39:21Z</time>
      </trkpt>
      <trkpt lat="47.184158004820347" lon="6.007988015189767">
        <ele>387.55000000000001</ele>
        <time>2025-04-23T13:39:24Z</time>
      </trkpt>
      <trkpt lat="47.184031018987298" lon="6.007836973294616">
        <ele>387.06999999999999</ele>
        <time>2025-04-23T13:39:25Z</time>
      </trkpt>
      <trkpt lat="47.18298202380538" lon="6.006185989826918">
        <ele>388.02999999999997</ele>
        <time>2025-04-23T13:39:34Z</time>
      </trkpt>
      <trkpt lat="47.181779975071549" lon="6.004782021045685">
        <ele>384.18000000000001</ele>
        <time>2025-04-23T13:39:42Z</time>
      </trkpt>
      <trkpt lat="47.180497040972114" lon="6.0031199734658">
        <ele>375.05000000000001</ele>
        <time>2025-04-23T13:39:51Z</time>
      </trkpt>
      <trkpt lat="47.179834032431245" lon="6.001393971964717">
        <ele>370.73000000000002</ele>
        <time>2025-04-23T13:39:58Z</time>
      </trkpt>
      <trkpt lat="47.178926020860672" lon="5.997666958719492">
        <ele>370.24000000000001</ele>
        <time>2025-04-23T13:40:12Z</time>
      </trkpt>
      <trkpt lat="47.178271980956197" lon="5.995279038324952">
        <ele>375.05000000000001</ele>
        <time>2025-04-23T13:40:23Z</time>
      </trkpt>
      <trkpt lat="47.177725983783603" lon="5.992752984166145">
        <ele>377.94</ele>
        <time>2025-04-23T13:40:34Z</time>
      </trkpt>
      <trkpt lat="47.177163977175951" lon="5.990369003266096">
        <ele>381.30000000000001</ele>
        <time>2025-04-23T13:40:44Z</time>
      </trkpt>
      <trkpt lat="47.176598031073809" lon="5.986615000292659">
        <ele>381.77999999999997</ele>
        <time>2025-04-23T13:40:58Z</time>
      </trkpt>
      <trkpt lat="47.176445983350277" lon="5.984685989096761">
        <ele>380.81999999999999</ele>
        <time>2025-04-23T13:41:06Z</time>
      </trkpt>
      <trkpt lat="47.176417987793684" lon="5.984186008572578">
        <ele>381.30000000000001</ele>
        <time>2025-04-23T13:41:08Z</time>
      </trkpt>
      <trkpt lat="47.176396027207375" lon="5.98393396474421">
        <ele>381.30000000000001</ele>
        <time>2025-04-23T13:41:09Z</time>
      </trkpt>
      <trkpt lat="47.176347998902202" lon="5.98369600251317">
        <ele>381.77999999999997</ele>
        <time>2025-04-23T13:41:10Z</time>
      </trkpt>
      <trkpt lat="47.17628002166748" lon="5.983453011140227">
        <ele>381.77999999999997</ele>
        <time>2025-04-23T13:41:11Z</time>
      </trkpt>
      <trkpt lat="47.176211038604379" lon="5.983208008110523">
        <ele>381.77999999999997</ele>
        <time>2025-04-23T13:41:12Z</time>
      </trkpt>
      <trkpt lat="47.175458008423448" lon="5.981122003868222">
        <ele>381.30000000000001</ele>
        <time>2025-04-23T13:41:21Z</time>
      </trkpt>
      <trkpt lat="47.174383029341698" lon="5.978025980293751">
        <ele>387.55000000000001</ele>
        <time>2025-04-23T13:41:34Z</time>
      </trkpt>
      <trkpt lat="47.173551041632891" lon="5.975578967481852">
        <ele>389.94999999999999</ele>
        <time>2025-04-23T13:41:45Z</time>
      </trkpt>
      <trkpt lat="47.17353000305593" lon="5.975394984707236">
        <ele>389.94999999999999</ele>
        <time>2025-04-23T13:41:46Z</time>
      </trkpt>
      <trkpt lat="47.17350896447897" lon="5.975217958912253">
        <ele>390.43000000000001</ele>
        <time>2025-04-23T13:41:47Z</time>
      </trkpt>
      <trkpt lat="47.173491027206182" lon="5.97506096586585">
        <ele>390.43000000000001</ele>
        <time>2025-04-23T13:41:48Z</time>
      </trkpt>
      <trkpt lat="47.173510976135731" lon="5.974877988919616">
        <ele>390.43000000000001</ele>
        <time>2025-04-23T13:41:49Z</time>
      </trkpt>
      <trkpt lat="47.17352899722755" lon="5.974705992266536">
        <ele>390.43000000000001</ele>
        <time>2025-04-23T13:41:50Z</time>
      </trkpt>
      <trkpt lat="47.173547018319368" lon="5.974540030583739">
        <ele>389.94999999999999</ele>
        <time>2025-04-23T13:41:51Z</time>
      </trkpt>
      <trkpt lat="47.173594040796161" lon="5.974382031708956">
        <ele>389.94999999999999</ele>
        <time>2025-04-23T13:41:52Z</time>
      </trkpt>
      <trkpt lat="47.173663023859262" lon="5.974244987592101">
        <ele>389.94999999999999</ele>
        <time>2025-04-23T13:41:53Z</time>
      </trkpt>
      <trkpt lat="47.173751033842564" lon="5.974123030900955">
        <ele>389.94999999999999</ele>
        <time>2025-04-23T13:41:54Z</time>
      </trkpt>
      <trkpt lat="47.173859998583794" lon="5.974037032574415">
        <ele>389.47000000000003</ele>
        <time>2025-04-23T13:41:55Z</time>
      </trkpt>
      <trkpt lat="47.173965023830533" lon="5.973953967913985">
        <ele>388.99000000000001</ele>
        <time>2025-04-23T13:41:56Z</time>
      </trkpt>
      <trkpt lat="47.174806986004114" lon="5.973471002653241">
        <ele>384.18000000000001</ele>
        <time>2025-04-23T13:42:03Z</time>
      </trkpt>
      <trkpt lat="47.175460020080209" lon="5.973098007962108">
        <ele>379.38</ele>
        <time>2025-04-23T13:42:08Z</time>
      </trkpt>
      <trkpt lat="47.17559102922678" lon="5.97297496162355">
        <ele>378.42000000000002</ele>
        <time>2025-04-23T13:42:09Z</time>
      </trkpt>
      <trkpt lat="47.17572002671659" lon="5.972842024639249">
        <ele>377.44999999999999</ele>
        <time>2025-04-23T13:42:10Z</time>
      </trkpt>
      <trkpt lat="47.175833014771342" lon="5.972667010501027">
        <ele>376.49000000000001</ele>
        <time>2025-04-23T13:42:11Z</time>
      </trkpt>
      <trkpt lat="47.175926975905895" lon="5.972483027726412">
        <ele>375.05000000000001</ele>
        <time>2025-04-23T13:42:12Z</time>
      </trkpt>
      <trkpt lat="47.176001993939281" lon="5.972273983061314">
        <ele>374.08999999999997</ele>
        <time>2025-04-23T13:42:13Z</time>
      </trkpt>
      <trkpt lat="47.176073994487524" lon="5.972065022215247">
        <ele>372.64999999999998</ele>
        <time>2025-04-23T13:42:14Z</time>
      </trkpt>
      <trkpt lat="47.176131997257471" lon="5.971825970336795">
        <ele>372.17000000000002</ele>
        <time>2025-04-23T13:42:15Z</time>
      </trkpt>
      <trkpt lat="47.176801040768623" lon="5.968972016125917">
        <ele>369.75999999999999</ele>
        <time>2025-04-23T13:42:27Z</time>
      </trkpt>
      <trkpt lat="47.177031962200999" lon="5.966321993619204">
        <ele>364.48000000000002</ele>
        <time>2025-04-23T13:42:38Z</time>
      </trkpt>
      <trkpt lat="47.177031962200999" lon="5.966112026944757">
        <ele>364</ele>
        <time>2025-04-23T13:42:39Z</time>
      </trkpt>
      <trkpt lat="47.177031962200999" lon="5.965910023078322">
        <ele>363.51999999999998</ele>
        <time>2025-04-23T13:42:40Z</time>
      </trkpt>
      <trkpt lat="47.17701100744307" lon="5.965723022818565">
        <ele>363.04000000000002</ele>
        <time>2025-04-23T13:42:41Z</time>
      </trkpt>
      <trkpt lat="47.176959961652756" lon="5.965557983145118">
        <ele>362.55000000000001</ele>
        <time>2025-04-23T13:42:42Z</time>
      </trkpt>
      <trkpt lat="47.176896007731557" lon="5.965420017018914">
        <ele>362.06999999999999</ele>
        <time>2025-04-23T13:42:43Z</time>
      </trkpt>
      <trkpt lat="47.176829958334565" lon="5.965297976508737">
        <ele>361.58999999999997</ele>
        <time>2025-04-23T13:42:44Z</time>
      </trkpt>
      <trkpt lat="47.176758041605353" lon="5.965194962918758">
        <ele>361.11000000000001</ele>
        <time>2025-04-23T13:42:45Z</time>
      </trkpt>
      <trkpt lat="47.176672965288162" lon="5.965109970420599">
        <ele>360.63</ele>
        <time>2025-04-23T13:42:46Z</time>
      </trkpt>
      <trkpt lat="47.176585961133242" lon="5.965022966265678">
        <ele>360.14999999999998</ele>
        <time>2025-04-23T13:42:47Z</time>
      </trkpt>
      <trkpt lat="47.176499040797353" lon="5.964935962110758">
        <ele>359.67000000000002</ele>
        <time>2025-04-23T13:42:48Z</time>
      </trkpt>
      <trkpt lat="47.176205003634095" lon="5.964604960754514">
        <ele>358.23000000000002</ele>
        <time>2025-04-23T13:42:52Z</time>
      </trkpt>
      <trkpt lat="47.176156975328922" lon="5.96453296020627">
        <ele>357.75</ele>
        <time>2025-04-23T13:42:53Z</time>
      </trkpt>
      <trkpt lat="47.176152030006051" lon="5.964492978528142">
        <ele>357.26999999999998</ele>
        <time>2025-04-23T13:42:54Z</time>
      </trkpt>
      <trkpt lat="47.176152030006051" lon="5.964440004900098">
        <ele>357.26999999999998</ele>
        <time>2025-04-23T13:42:55Z</time>
      </trkpt>
      <trkpt lat="47.176152030006051" lon="5.964398011565208">
        <ele>356.79000000000002</ele>
        <time>2025-04-23T13:42:56Z</time>
      </trkpt>
      <trkpt lat="47.176152030006051" lon="5.964374961331487">
        <ele>356.79000000000002</ele>
        <time>2025-04-23T13:42:57Z</time>
      </trkpt>
      <trkpt lat="47.176157981157303" lon="5.964362975209951">
        <ele>356.31</ele>
        <time>2025-04-23T13:42:58Z</time>
      </trkpt>
      <trkpt lat="47.176157981157303" lon="5.964362975209951">
        <ele>356.31</ele>
        <time>2025-04-23T13:42:59Z</time>
      </trkpt>
      <trkpt lat="47.17628002166748" lon="5.964160971343517">
        <ele>355.82999999999998</ele>
        <time>2025-04-23T13:43:08Z</time>
      </trkpt>
      <trkpt lat="47.17630198225379" lon="5.964054018259049">
        <ele>355.82999999999998</ele>
        <time>2025-04-23T13:43:09Z</time>
      </trkpt>
      <trkpt lat="47.176278010010719" lon="5.963979000225663">
        <ele>355.82999999999998</ele>
        <time>2025-04-23T13:43:10Z</time>
      </trkpt>
      <trkpt lat="47.176255965605378" lon="5.963914962485433">
        <ele>355.82999999999998</ele>
        <time>2025-04-23T13:43:11Z</time>
      </trkpt>
      <trkpt lat="47.176222018897533" lon="5.963859977200627">
        <ele>355.82999999999998</ele>
        <time>2025-04-23T13:43:12Z</time>
      </trkpt>
      <trkpt lat="47.176152030006051" lon="5.963859977200627">
        <ele>355.82999999999998</ele>
        <time>2025-04-23T13:43:13Z</time>
      </trkpt>
      <trkpt lat="47.176077011972666" lon="5.963859977200627">
        <ele>355.82999999999998</ele>
        <time>2025-04-23T13:43:14Z</time>
      </trkpt>
      <trkpt lat="47.175996964797378" lon="5.963985035195947">
        <ele>355.82999999999998</ele>
        <time>2025-04-23T13:43:15Z</time>
      </trkpt>
      <trkpt lat="47.175920018926263" lon="5.96397397108376">
        <ele>356.31</ele>
        <time>2025-04-23T13:43:16Z</time>
      </trkpt>
      <trkpt lat="47.175836032256484" lon="5.963961984962225">
        <ele>356.31</ele>
        <time>2025-04-23T13:43:17Z</time>
      </trkpt>
      <trkpt lat="47.175740981474519" lon="5.963947987183929">
        <ele>356.79000000000002</ele>
        <time>2025-04-23T13:43:18Z</time>
      </trkpt>
      <trkpt lat="47.174531975761056" lon="5.963751012459397">
        <ele>362.55000000000001</ele>
        <time>2025-04-23T13:43:28Z</time>
      </trkpt>
      <trkpt lat="47.17286397702992" lon="5.963511960580945">
        <ele>369.27999999999997</ele>
        <time>2025-04-23T13:43:38Z</time>
      </trkpt>
      <trkpt lat="47.170974025502801" lon="5.96306998282671">
        <ele>372.17000000000002</ele>
        <time>2025-04-23T13:43:48Z</time>
      </trkpt>
      <trkpt lat="47.169725960120559" lon="5.962153002619743">
        <ele>373.13</ele>
        <time>2025-04-23T13:43:55Z</time>
      </trkpt>
      <trkpt lat="47.168827001005411" lon="5.96085699275136">
        <ele>374.08999999999997</ele>
        <time>2025-04-23T13:44:01Z</time>
      </trkpt>
      <trkpt lat="47.167971041053534" lon="5.959187988191843">
        <ele>374.08999999999997</ele>
        <time>2025-04-23T13:44:08Z</time>
      </trkpt>
      <trkpt lat="47.167031010612845" lon="5.957243973389268">
        <ele>374.56999999999999</ele>
        <time>2025-04-23T13:44:17Z</time>
      </trkpt>
      <trkpt lat="47.165956031531096" lon="5.956221967935562">
        <ele>374.56999999999999</ele>
        <time>2025-04-23T13:44:24Z</time>
      </trkpt>
      <trkpt lat="47.164447959512472" lon="5.955229969695211">
        <ele>375.05000000000001</ele>
        <time>2025-04-23T13:44:33Z</time>
      </trkpt>
      <trkpt lat="47.16310802847147" lon="5.95438901335001">
        <ele>374.08999999999997</ele>
        <time>2025-04-23T13:44:41Z</time>
      </trkpt>
      <trkpt lat="47.161744963377714" lon="5.953008010983467">
        <ele>371.69</ele>
        <time>2025-04-23T13:44:50Z</time>
      </trkpt>
      <trkpt lat="47.159872027114034" lon="5.951217971742153">
        <ele>369.27999999999997</ele>
        <time>2025-04-23T13:45:02Z</time>
      </trkpt>
      <trkpt lat="47.15932896360755" lon="5.950420014560223">
        <ele>369.75999999999999</ele>
        <time>2025-04-23T13:45:06Z</time>
      </trkpt>
      <trkpt lat="47.158353980630636" lon="5.948561998084188">
        <ele>368.80000000000001</ele>
        <time>2025-04-23T13:45:15Z</time>
      </trkpt>
      <trkpt lat="47.157312026247382" lon="5.946886958554387">
        <ele>368.31999999999999</ele>
        <time>2025-04-23T13:45:24Z</time>
      </trkpt>
      <trkpt lat="47.156180972233415" lon="5.945372013375163">
        <ele>366.88</ele>
        <time>2025-04-23T13:45:33Z</time>
      </trkpt>
      <trkpt lat="47.155502960085869" lon="5.944625018164516">
        <ele>364.48000000000002</ele>
        <time>2025-04-23T13:45:38Z</time>
      </trkpt>
      <trkpt lat="47.155368011444807" lon="5.944475987926126">
        <ele>364</ele>
        <time>2025-04-23T13:45:39Z</time>
      </trkpt>
      <trkpt lat="47.153987009078264" lon="5.942553011700511">
        <ele>361.58999999999997</ele>
        <time>2025-04-23T13:45:50Z</time>
      </trkpt>
      <trkpt lat="47.153343027457595" lon="5.941479960456491">
        <ele>361.11000000000001</ele>
        <time>2025-04-23T13:45:56Z</time>
      </trkpt>
      <trkpt lat="47.153260968625546" lon="5.941274017095566">
        <ele>361.11000000000001</ele>
        <time>2025-04-23T13:45:57Z</time>
      </trkpt>
      <trkpt lat="47.153178993612528" lon="5.941066984087229">
        <ele>361.11000000000001</ele>
        <time>2025-04-23T13:45:58Z</time>
      </trkpt>
      <trkpt lat="47.152847992256284" lon="5.940233990550041">
        <ele>359.67000000000002</ele>
        <time>2025-04-23T13:46:02Z</time>
      </trkpt>
      <trkpt lat="47.152762999758124" lon="5.940020000562072">
        <ele>359.19</ele>
        <time>2025-04-23T13:46:03Z</time>
      </trkpt>
      <trkpt lat="47.15264699421823" lon="5.939825037494302">
        <ele>359.19</ele>
        <time>2025-04-23T13:46:04Z</time>
      </trkpt>
      <trkpt lat="47.152531994506717" lon="5.939630996435881">
        <ele>358.70999999999998</ele>
        <time>2025-04-23T13:46:05Z</time>
      </trkpt>
      <trkpt lat="47.152414983138442" lon="5.93943502753973">
        <ele>358.23000000000002</ele>
        <time>2025-04-23T13:46:06Z</time>
      </trkpt>
      <trkpt lat="47.152273999527097" lon="5.93928499147296">
        <ele>357.75</ele>
        <time>2025-04-23T13:46:07Z</time>
      </trkpt>
      <trkpt lat="47.150310035794973" lon="5.937294038012624">
        <ele>354.38</ele>
        <time>2025-04-23T13:46:21Z</time>
      </trkpt>
      <trkpt lat="47.148343976587057" lon="5.935819996520877">
        <ele>351.98000000000002</ele>
        <time>2025-04-23T13:46:33Z</time>
      </trkpt>
      <trkpt lat="47.145953960716724" lon="5.934427008032799">
        <ele>348.62</ele>
        <time>2025-04-23T13:46:47Z</time>
      </trkpt>
      <trkpt lat="47.143466966226697" lon="5.93275398015976">
        <ele>346.20999999999998</ele>
        <time>2025-04-23T13:47:02Z</time>
      </trkpt>
      <trkpt lat="47.141973981633782" lon="5.93157397583127">
        <ele>344.76999999999998</ele>
        <time>2025-04-23T13:47:11Z</time>
      </trkpt>
      <trkpt lat="47.1399250254035" lon="5.930109992623329">
        <ele>341.88999999999999</ele>
        <time>2025-04-23T13:47:23Z</time>
      </trkpt>
      <trkpt lat="47.13853295892477" lon="5.929114976897836">
        <ele>340.92000000000002</ele>
        <time>2025-04-23T13:47:31Z</time>
      </trkpt>
      <trkpt lat="47.136636972427368" lon="5.927633978426457">
        <ele>338.51999999999998</ele>
        <time>2025-04-23T13:47:42Z</time>
      </trkpt>
      <trkpt lat="47.135068969801068" lon="5.925661968067288">
        <ele>337.07999999999998</ele>
        <time>2025-04-23T13:47:52Z</time>
      </trkpt>
      <trkpt lat="47.133891982957721" lon="5.923649976029992">
        <ele>333.70999999999998</ele>
        <time>2025-04-23T13:48:01Z</time>
      </trkpt>
      <trkpt lat="47.133209025487304" lon="5.92257097363472">
        <ele>332.75</ele>
        <time>2025-04-23T13:48:06Z</time>
      </trkpt>
      <trkpt lat="47.131717968732119" lon="5.921071032062173">
        <ele>331.31</ele>
        <time>2025-04-23T13:48:15Z</time>
      </trkpt>
      <trkpt lat="47.130757989361882" lon="5.920235021039844">
        <ele>330.82999999999998</ele>
        <time>2025-04-23T13:48:21Z</time>
      </trkpt>
      <trkpt lat="47.129595000296831" lon="5.918947979807854">
        <ele>329.87</ele>
        <time>2025-04-23T13:48:28Z</time>
      </trkpt>
      <trkpt lat="47.128077037632465" lon="5.917718019336462">
        <ele>328.43000000000001</ele>
        <time>2025-04-23T13:48:34Z</time>
      </trkpt>
      <trkpt lat="47.126279035583138" lon="5.916439024731517">
        <ele>326.5</ele>
        <time>2025-04-23T13:48:42Z</time>
      </trkpt>
      <trkpt lat="47.124749002978206" lon="5.915202023461461">
        <ele>323.13999999999999</ele>
        <time>2025-04-23T13:48:50Z</time>
      </trkpt>
      <trkpt lat="47.123296000063419" lon="5.913816997781396">
        <ele>322.18000000000001</ele>
        <time>2025-04-23T13:48:58Z</time>
      </trkpt>
      <trkpt lat="47.121593970805407" lon="5.912554012611508">
        <ele>320.74000000000001</ele>
        <time>2025-04-23T13:49:07Z</time>
      </trkpt>
      <trkpt lat="47.119506960734725" lon="5.911291027441621">
        <ele>317.85000000000002</ele>
        <time>2025-04-23T13:49:18Z</time>
      </trkpt>
      <trkpt lat="47.118187984451652" lon="5.910347979515791">
        <ele>313.05000000000001</ele>
        <time>2025-04-23T13:49:25Z</time>
      </trkpt>
      <trkpt lat="47.116058981046081" lon="5.908752987161279">
        <ele>306.80000000000001</ele>
        <time>2025-04-23T13:49:36Z</time>
      </trkpt>
      <trkpt lat="47.114104991778731" lon="5.907797031104565">
        <ele>301.02999999999997</ele>
        <time>2025-04-23T13:49:46Z</time>
      </trkpt>
      <trkpt lat="47.111529987305403" lon="5.90630597434938">
        <ele>295.25999999999999</ele>
        <time>2025-04-23T13:50:00Z</time>
      </trkpt>
      <trkpt lat="47.110495995730162" lon="5.905247004702687">
        <ele>291.89999999999998</ele>
        <time>2025-04-23T13:50:07Z</time>
      </trkpt>
      <trkpt lat="47.109204009175301" lon="5.904191974550486">
        <ele>287.08999999999997</ele>
        <time>2025-04-23T13:50:15Z</time>
      </trkpt>
      <trkpt lat="47.10763399489224" lon="5.90364002622664">
        <ele>285.64999999999998</ele>
        <time>2025-04-23T13:50:23Z</time>
      </trkpt>
      <trkpt lat="47.105052033439279" lon="5.902888001874089">
        <ele>290.45999999999998</ele>
        <time>2025-04-23T13:50:36Z</time>
      </trkpt>
      <trkpt lat="47.104222979396582" lon="5.902487011626363">
        <ele>292.38</ele>
        <time>2025-04-23T13:50:40Z</time>
      </trkpt>
      <trkpt lat="47.102970974519849" lon="5.901302983984351">
        <ele>297.18000000000001</ele>
        <time>2025-04-23T13:50:47Z</time>
      </trkpt>
      <trkpt lat="47.102321041747928" lon="5.900092972442508">
        <ele>300.06999999999999</ele>
        <time>2025-04-23T13:50:52Z</time>
      </trkpt>
      <trkpt lat="47.101402971893549" lon="5.897692982107401">
        <ele>307.27999999999997</ele>
        <time>2025-04-23T13:51:01Z</time>
      </trkpt>
      <trkpt lat="47.100292034447193" lon="5.896216006949544">
        <ele>309.68000000000001</ele>
        <time>2025-04-23T13:51:08Z</time>
      </trkpt>
      <trkpt lat="47.098797960206866" lon="5.895361974835396">
        <ele>308.72000000000003</ele>
        <time>2025-04-23T13:51:15Z</time>
      </trkpt>
      <trkpt lat="47.096867021173239" lon="5.894678011536598">
        <ele>302.47000000000003</ele>
        <time>2025-04-23T13:51:24Z</time>
      </trkpt>
      <trkpt lat="47.09499903023243" lon="5.893972003832459">
        <ele>294.30000000000001</ele>
        <time>2025-04-23T13:51:33Z</time>
      </trkpt>
      <trkpt lat="47.09326003678143" lon="5.892741037532687">
        <ele>284.69</ele>
        <time>2025-04-23T13:51:42Z</time>
      </trkpt>
      <trkpt lat="47.091936031356454" lon="5.891145039349794">
        <ele>278.44</ele>
        <time>2025-04-23T13:51:50Z</time>
      </trkpt>
      <trkpt lat="47.090571038424969" lon="5.888948980718851">
        <ele>276.04000000000002</ele>
        <time>2025-04-23T13:51:59Z</time>
      </trkpt>
      <trkpt lat="47.089375024661422" lon="5.88699096813798">
        <ele>275.56</ele>
        <time>2025-04-23T13:52:07Z</time>
      </trkpt>
      <trkpt lat="47.088111033663154" lon="5.885265972465277">
        <ele>278.92000000000002</ele>
        <time>2025-04-23T13:52:15Z</time>
      </trkpt>
      <trkpt lat="47.086608996614814" lon="5.884060990065336">
        <ele>285.17000000000002</ele>
        <time>2025-04-23T13:52:23Z</time>
      </trkpt>
      <trkpt lat="47.084936974570155" lon="5.883512981235981">
        <ele>296.69999999999999</ele>
        <time>2025-04-23T13:52:31Z</time>
      </trkpt>
      <trkpt lat="47.082875026389956" lon="5.88331600651145">
        <ele>307.75999999999999</ele>
        <time>2025-04-23T13:52:41Z</time>
      </trkpt>
      <trkpt lat="47.08024000748992" lon="5.8830819837749">
        <ele>313.52999999999997</ele>
        <time>2025-04-23T13:52:54Z</time>
      </trkpt>
      <trkpt lat="47.077965997159481" lon="5.882871011272073">
        <ele>314.49000000000001</ele>
        <time>2025-04-23T13:53:05Z</time>
      </trkpt>
      <trkpt lat="47.076250975951552" lon="5.882553001865745">
        <ele>316.41000000000003</ele>
        <time>2025-04-23T13:53:14Z</time>
      </trkpt>
      <trkpt lat="47.073960034176707" lon="5.882393997162581">
        <ele>324.57999999999998</ele>
        <time>2025-04-23T13:53:26Z</time>
      </trkpt>
      <trkpt lat="47.072303015738726" lon="5.882144970819354">
        <ele>327.47000000000003</ele>
        <time>2025-04-23T13:53:35Z</time>
      </trkpt>
      <trkpt lat="47.071065008640289" lon="5.881793014705181">
        <ele>323.13999999999999</ele>
        <time>2025-04-23T13:53:44Z</time>
      </trkpt>
      <trkpt lat="47.070167977362871" lon="5.881553962826729">
        <ele>318.81</ele>
        <time>2025-04-23T13:53:51Z</time>
      </trkpt>
      <trkpt lat="47.070045014843345" lon="5.881524039432406">
        <ele>317.37</ele>
        <time>2025-04-23T13:53:52Z</time>
      </trkpt>
      <trkpt lat="47.069916017353535" lon="5.881516998633742">
        <ele>316.41000000000003</ele>
        <time>2025-04-23T13:53:53Z</time>
      </trkpt>
      <trkpt lat="47.068632999435067" lon="5.881483973935247">
        <ele>307.75999999999999</ele>
        <time>2025-04-23T13:54:02Z</time>
      </trkpt>
      <trkpt lat="47.067147977650166" lon="5.881575001403689">
        <ele>302.94999999999999</ele>
        <time>2025-04-23T13:54:11Z</time>
      </trkpt>
      <trkpt lat="47.064975975081325" lon="5.881950007751584">
        <ele>302.47000000000003</ele>
        <time>2025-04-23T13:54:22Z</time>
      </trkpt>
      <trkpt lat="47.061683982610703" lon="5.88265098631382">
        <ele>298.14999999999998</ele>
        <time>2025-04-23T13:54:38Z</time>
      </trkpt>
      <trkpt lat="47.059772992506623" lon="5.882553001865745">
        <ele>294.30000000000001</ele>
        <time>2025-04-23T13:54:47Z</time>
      </trkpt>
      <trkpt lat="47.057954035699368" lon="5.881800977513194">
        <ele>296.69999999999999</ele>
        <time>2025-04-23T13:54:56Z</time>
      </trkpt>
      <trkpt lat="47.056094007566571" lon="5.880791964009404">
        <ele>307.27999999999997</ele>
        <time>2025-04-23T13:55:06Z</time>
      </trkpt>
      <trkpt lat="47.054880978539586" lon="5.880133984610438">
        <ele>311.60000000000002</ele>
        <time>2025-04-23T13:55:14Z</time>
      </trkpt>
      <trkpt lat="47.054287036880851" lon="5.879755960777402">
        <ele>310.16000000000003</ele>
        <time>2025-04-23T13:55:21Z</time>
      </trkpt>
      <trkpt lat="47.053419006988406" lon="5.879317000508308">
        <ele>308.24000000000001</ele>
        <time>2025-04-23T13:55:30Z</time>
      </trkpt>
      <trkpt lat="47.053033020347357" lon="5.879198983311653">
        <ele>309.19999999999999</ele>
        <time>2025-04-23T13:55:34Z</time>
      </trkpt>
      <trkpt lat="47.051901966333389" lon="5.878733033314347">
        <ele>316.41000000000003</ele>
        <time>2025-04-23T13:55:45Z</time>
      </trkpt>
      <trkpt lat="47.050448963418603" lon="5.878255013376474">
        <ele>319.30000000000001</ele>
        <time>2025-04-23T13:55:56Z</time>
      </trkpt>
      <trkpt lat="47.048812983557582" lon="5.87751698680222">
        <ele>314.49000000000001</ele>
        <time>2025-04-23T13:56:06Z</time>
      </trkpt>
      <trkpt lat="47.046795040369034" lon="5.87674199603498">
        <ele>303.91000000000003</ele>
        <time>2025-04-23T13:56:17Z</time>
      </trkpt>
      <trkpt lat="47.044765027239919" lon="5.875855023041368">
        <ele>307.27999999999997</ele>
        <time>2025-04-23T13:56:28Z</time>
      </trkpt>
      <trkpt lat="47.042150963097811" lon="5.875036027282476">
        <ele>298.63</ele>
        <time>2025-04-23T13:56:42Z</time>
      </trkpt>
      <trkpt lat="47.039542011916637" lon="5.874242009595037">
        <ele>297.67000000000002</ele>
        <time>2025-04-23T13:56:56Z</time>
      </trkpt>
      <trkpt lat="47.037533037364483" lon="5.873859040439129">
        <ele>293.33999999999997</ele>
        <time>2025-04-23T13:57:06Z</time>
      </trkpt>
      <trkpt lat="47.034931965172291" lon="5.873242970556021">
        <ele>296.22000000000003</ele>
        <time>2025-04-23T13:57:19Z</time>
      </trkpt>
      <trkpt lat="47.032639011740685" lon="5.872566970065236">
        <ele>302.47000000000003</ele>
        <time>2025-04-23T13:57:31Z</time>
      </trkpt>
      <trkpt lat="47.030125027522445" lon="5.871312031522393">
        <ele>306.80000000000001</ele>
        <time>2025-04-23T13:57:45Z</time>
      </trkpt>
      <trkpt lat="47.028364995494485" lon="5.870568975806236">
        <ele>303.43000000000001</ele>
        <time>2025-04-23T13:57:54Z</time>
      </trkpt>
      <trkpt lat="47.025997024029493" lon="5.869607990607619">
        <ele>299.58999999999997</ele>
        <time>2025-04-23T13:58:06Z</time>
      </trkpt>
      <trkpt lat="47.022568993270397" lon="5.868049040436745">
        <ele>295.74000000000001</ele>
        <time>2025-04-23T13:58:23Z</time>
      </trkpt>
      <trkpt lat="47.021081959828734" lon="5.86707103997469">
        <ele>292.38</ele>
        <time>2025-04-23T13:58:31Z</time>
      </trkpt>
      <trkpt lat="47.019707998260856" lon="5.865098023787141">
        <ele>287.08999999999997</ele>
        <time>2025-04-23T13:58:40Z</time>
      </trkpt>
      <trkpt lat="47.018285002559423" lon="5.863000033423305">
        <ele>280.36000000000001</ele>
        <time>2025-04-23T13:58:50Z</time>
      </trkpt>
      <trkpt lat="47.01649596914649" lon="5.8603909984231">
        <ele>270.26999999999998</ele>
        <time>2025-04-23T13:59:03Z</time>
      </trkpt>
      <trkpt lat="47.014523958787322" lon="5.857501002028585">
        <ele>258.25</ele>
        <time>2025-04-23T13:59:17Z</time>
      </trkpt>
      <trkpt lat="47.012721011415124" lon="5.854910993948579">
        <ele>254.88999999999999</ele>
        <time>2025-04-23T13:59:30Z</time>
      </trkpt>
      <trkpt lat="47.012020032852888" lon="5.854046987369657">
        <ele>254.88999999999999</ele>
        <time>2025-04-23T13:59:36Z</time>
      </trkpt>
      <trkpt lat="47.010933989658952" lon="5.853127995505929">
        <ele>257.29000000000002</ele>
        <time>2025-04-23T13:59:47Z</time>
      </trkpt>
      <trkpt lat="47.009920030832291" lon="5.852015968412161">
        <ele>255.84999999999999</ele>
        <time>2025-04-23T13:59:56Z</time>
      </trkpt>
      <trkpt lat="47.008290002122521" lon="5.849900040775538">
        <ele>249.12</ele>
        <time>2025-04-23T14:00:08Z</time>
      </trkpt>
      <trkpt lat="47.007968975231051" lon="5.84919897839427">
        <ele>249.12</ele>
        <time>2025-04-23T14:00:11Z</time>
      </trkpt>
      <trkpt lat="47.007891023531556" lon="5.848934026435018">
        <ele>248.63999999999999</ele>
        <time>2025-04-23T14:00:12Z</time>
      </trkpt>
      <trkpt lat="47.007812988013029" lon="5.848665973171592">
        <ele>248.63999999999999</ele>
        <time>2025-04-23T14:00:13Z</time>
      </trkpt>
      <trkpt lat="47.007265985012054" lon="5.846424987539649">
        <ele>250.08000000000001</ele>
        <time>2025-04-23T14:00:21Z</time>
      </trkpt>
      <trkpt lat="47.007173029705882" lon="5.846165986731648">
        <ele>250.56</ele>
        <time>2025-04-23T14:00:22Z</time>
      </trkpt>
      <trkpt lat="47.006899025291204" lon="5.845732977613807">
        <ele>251.03999999999999</ele>
        <time>2025-04-23T14:00:24Z</time>
      </trkpt>
      <trkpt lat="47.00676298700273" lon="5.845517981797457">
        <ele>251.52000000000001</ele>
        <time>2025-04-23T14:00:25Z</time>
      </trkpt>
      <trkpt lat="47.006614962592721" lon="5.845284964889288">
        <ele>251.52000000000001</ele>
        <time>2025-04-23T14:00:26Z</time>
      </trkpt>
      <trkpt lat="47.006453024223447" lon="5.84513601846993">
        <ele>251.52000000000001</ele>
        <time>2025-04-23T14:00:27Z</time>
      </trkpt>
      <trkpt lat="47.006274992600083" lon="5.844982964918017">
        <ele>252</ele>
        <time>2025-04-23T14:00:28Z</time>
      </trkpt>
      <trkpt lat="47.00609696097672" lon="5.844828989356756">
        <ele>252.96000000000001</ele>
        <time>2025-04-23T14:00:29Z</time>
      </trkpt>
      <trkpt lat="47.004615962505341" lon="5.843860963359475">
        <ele>255.84999999999999</ele>
        <time>2025-04-23T14:00:38Z</time>
      </trkpt>
      <trkpt lat="47.002903036773205" lon="5.84285999648273">
        <ele>256.81</ele>
        <time>2025-04-23T14:00:50Z</time>
      </trkpt>
      <trkpt lat="47.001238977536559" lon="5.841942010447383">
        <ele>258.25</ele>
        <time>2025-04-23T14:01:02Z</time>
      </trkpt>
      <trkpt lat="46.999799972400069" lon="5.840986976400018">
        <ele>257.29000000000002</ele>
        <time>2025-04-23T14:01:12Z</time>
      </trkpt>
      <trkpt lat="46.997724026441574" lon="5.839545959606767">
        <ele>252.96000000000001</ele>
        <time>2025-04-23T14:01:25Z</time>
      </trkpt>
      <trkpt lat="46.99593398720026" lon="5.837926995009184">
        <ele>252.47999999999999</ele>
        <time>2025-04-23T14:01:36Z</time>
      </trkpt>
      <trkpt lat="46.995066963136196" lon="5.836253967136145">
        <ele>252</ele>
        <time>2025-04-23T14:01:43Z</time>
      </trkpt>
      <trkpt lat="46.994333965703845" lon="5.834622010588646">
        <ele>251.52000000000001</ele>
        <time>2025-04-23T14:01:50Z</time>
      </trkpt>
      <trkpt lat="46.993244988843799" lon="5.83259099163115">
        <ele>250.08000000000001</ele>
        <time>2025-04-23T14:01:59Z</time>
      </trkpt>
      <trkpt lat="46.991750998422503" lon="5.830126963555813">
        <ele>250.56</ele>
        <time>2025-04-23T14:02:11Z</time>
      </trkpt>
      <trkpt lat="46.990451971068978" lon="5.827917996793985">
        <ele>250.56</ele>
        <time>2025-04-23T14:02:22Z</time>
      </trkpt>
      <trkpt lat="46.988724041730165" lon="5.8250040281564">
        <ele>255.84999999999999</ele>
        <time>2025-04-23T14:02:37Z</time>
      </trkpt>
      <trkpt lat="46.987105999141932" lon="5.822278987616301">
        <ele>256.81</ele>
        <time>2025-04-23T14:02:51Z</time>
      </trkpt>
      <trkpt lat="46.98544898070395" lon="5.819481024518609">
        <ele>261.62</ele>
        <time>2025-04-23T14:03:05Z</time>
      </trkpt>
      <trkpt lat="46.984326979145408" lon="5.817576991394162">
        <ele>265.45999999999998</ele>
        <time>2025-04-23T14:03:14Z</time>
      </trkpt>
      <trkpt lat="46.982788983732462" lon="5.814979020506144">
        <ele>269.79000000000002</ele>
        <time>2025-04-23T14:03:27Z</time>
      </trkpt>
      <trkpt lat="46.981478976085782" lon="5.813002986833453">
        <ele>270.75</ele>
        <time>2025-04-23T14:03:36Z</time>
      </trkpt>
      <trkpt lat="46.980014992877841" lon="5.81157797947526">
        <ele>270.75</ele>
        <time>2025-04-23T14:03:44Z</time>
      </trkpt>
      <trkpt lat="46.978049017488956" lon="5.809911992400885">
        <ele>277.48000000000002</ele>
        <time>2025-04-23T14:03:54Z</time>
      </trkpt>
      <trkpt lat="46.976647982373834" lon="5.808192025870085">
        <ele>285.64999999999998</ele>
        <time>2025-04-23T14:04:02Z</time>
      </trkpt>
      <trkpt lat="46.975491028279066" lon="5.806071991100907">
        <ele>294.77999999999997</ele>
        <time>2025-04-23T14:04:10Z</time>
      </trkpt>
      <trkpt lat="46.974429041147232" lon="5.804252028465271">
        <ele>300.55000000000001</ele>
        <time>2025-04-23T14:04:17Z</time>
      </trkpt>
      <trkpt lat="46.972784008830786" lon="5.802892986685038">
        <ele>304.38999999999999</ele>
        <time>2025-04-23T14:04:25Z</time>
      </trkpt>
      <trkpt lat="46.971120033413172" lon="5.801815995946527">
        <ele>304.38999999999999</ele>
        <time>2025-04-23T14:04:33Z</time>
      </trkpt>
      <trkpt lat="46.969260005280375" lon="5.800634985789657">
        <ele>302.47000000000003</ele>
        <time>2025-04-23T14:04:42Z</time>
      </trkpt>
      <trkpt lat="46.967799961566925" lon="5.799569981172681">
        <ele>299.58999999999997</ele>
        <time>2025-04-23T14:04:50Z</time>
      </trkpt>
      <trkpt lat="46.966510992497206" lon="5.797958979383111">
        <ele>296.69999999999999</ele>
        <time>2025-04-23T14:04:59Z</time>
      </trkpt>
      <trkpt lat="46.965452022850513" lon="5.796166006475687">
        <ele>297.67000000000002</ele>
        <time>2025-04-23T14:05:08Z</time>
      </trkpt>
      <trkpt lat="46.964389029890299" lon="5.794779974967241">
        <ele>300.06999999999999</ele>
        <time>2025-04-23T14:05:16Z</time>
      </trkpt>
      <trkpt lat="46.963042980059981" lon="5.793523024767637">
        <ele>300.55000000000001</ele>
        <time>2025-04-23T14:05:25Z</time>
      </trkpt>
      <trkpt lat="46.961458967998624" lon="5.792099023237824">
        <ele>300.06999999999999</ele>
        <time>2025-04-23T14:05:35Z</time>
      </trkpt>
      <trkpt lat="46.959929019212723" lon="5.79108196310699">
        <ele>298.63</ele>
        <time>2025-04-23T14:05:44Z</time>
      </trkpt>
      <trkpt lat="46.95833302102983" lon="5.790310995653272">
        <ele>296.22000000000003</ele>
        <time>2025-04-23T14:05:53Z</time>
      </trkpt>
      <trkpt lat="46.957262987270951" lon="5.789827024564147">
        <ele>293.33999999999997</ele>
        <time>2025-04-23T14:05:59Z</time>
      </trkpt>
      <trkpt lat="46.955698002129793" lon="5.788872996345162">
        <ele>287.08999999999997</ele>
        <time>2025-04-23T14:06:08Z</time>
      </trkpt>
      <trkpt lat="46.954191019758582" lon="5.787204997614026">
        <ele>282.76999999999998</ele>
        <time>2025-04-23T14:06:18Z</time>
      </trkpt>
      <trkpt lat="46.953255012631416" lon="5.785955004394054">
        <ele>282.76999999999998</ele>
        <time>2025-04-23T14:06:25Z</time>
      </trkpt>
      <trkpt lat="46.952372984960675" lon="5.784911038354039">
        <ele>284.69</ele>
        <time>2025-04-23T14:06:31Z</time>
      </trkpt>
      <trkpt lat="46.950877988710999" lon="5.783678982406855">
        <ele>287.56999999999999</ele>
        <time>2025-04-23T14:06:41Z</time>
      </trkpt>
      <trkpt lat="46.948908995836973" lon="5.782640967518091">
        <ele>292.86000000000001</ele>
        <time>2025-04-23T14:06:53Z</time>
      </trkpt>
      <trkpt lat="46.947320038452744" lon="5.781845021992922">
        <ele>299.58999999999997</ele>
        <time>2025-04-23T14:07:04Z</time>
      </trkpt>
      <trkpt lat="46.945540979504585" lon="5.780975986272097">
        <ele>297.67000000000002</ele>
        <time>2025-04-23T14:07:16Z</time>
      </trkpt>
      <trkpt lat="46.94344500079751" lon="5.779947023838759">
        <ele>301.99000000000001</ele>
        <time>2025-04-23T14:07:29Z</time>
      </trkpt>
      <trkpt lat="46.941663008183241" lon="5.779074970632792">
        <ele>306.80000000000001</ele>
        <time>2025-04-23T14:07:40Z</time>
      </trkpt>
      <trkpt lat="46.940043037757277" lon="5.77849100343883">
        <ele>310.16000000000003</ele>
        <time>2025-04-23T14:07:50Z</time>
      </trkpt>
      <trkpt lat="46.937894001603127" lon="5.777765968814492">
        <ele>310.16000000000003</ele>
        <time>2025-04-23T14:08:03Z</time>
      </trkpt>
      <trkpt lat="46.93642096593976" lon="5.777263976633549">
        <ele>312.56999999999999</ele>
        <time>2025-04-23T14:08:11Z</time>
      </trkpt>
      <trkpt lat="46.934194983914495" lon="5.776476999744773">
        <ele>323.13999999999999</ele>
        <time>2025-04-23T14:08:24Z</time>
      </trkpt>
      <trkpt lat="46.932965023443103" lon="5.776111967861652">
        <ele>331.79000000000002</ele>
        <time>2025-04-23T14:08:32Z</time>
      </trkpt>
      <trkpt lat="46.932223979383707" lon="5.776032004505396">
        <ele>339.95999999999998</ele>
        <time>2025-04-23T14:08:40Z</time>
      </trkpt>
      <trkpt lat="46.930949008092284" lon="5.775915998965502">
        <ele>351.98000000000002</ele>
        <time>2025-04-23T14:08:53Z</time>
      </trkpt>
      <trkpt lat="46.929496005177498" lon="5.775805022567511">
        <ele>353.89999999999998</ele>
        <time>2025-04-23T14:09:06Z</time>
      </trkpt>
      <trkpt lat="46.927978964522481" lon="5.775645012035966">
        <ele>350.06</ele>
        <time>2025-04-23T14:09:17Z</time>
      </trkpt>
      <trkpt lat="46.92617098800838" lon="5.775076970458031">
        <ele>339.48000000000002</ele>
        <time>2025-04-23T14:09:29Z</time>
      </trkpt>
      <trkpt lat="46.924223033711314" lon="5.774266021326184">
        <ele>321.69999999999999</ele>
        <time>2025-04-23T14:09:43Z</time>
      </trkpt>
      <trkpt lat="46.922337021678686" lon="5.773265976458788">
        <ele>303.43000000000001</ele>
        <time>2025-04-23T14:09:56Z</time>
      </trkpt>
      <trkpt lat="46.920559974387288" lon="5.77264797873795">
        <ele>296.69999999999999</ele>
        <time>2025-04-23T14:10:08Z</time>
      </trkpt>
      <trkpt lat="46.918763983994722" lon="5.772215975448489">
        <ele>289.97000000000003</ele>
        <time>2025-04-23T14:10:22Z</time>
      </trkpt>
      <trkpt lat="46.917257001623511" lon="5.771713983267546">
        <ele>290.45999999999998</ele>
        <time>2025-04-23T14:10:36Z</time>
      </trkpt>
      <trkpt lat="46.915955040603876" lon="5.771239986643195">
        <ele>291.89999999999998</ele>
        <time>2025-04-23T14:10:47Z</time>
      </trkpt>
      <trkpt lat="46.91551499068737" lon="5.771072013303638">
        <ele>291.89999999999998</ele>
        <time>2025-04-23T14:10:51Z</time>
      </trkpt>
      <trkpt lat="46.915421029552817" lon="5.771033959463239">
        <ele>291.89999999999998</ele>
        <time>2025-04-23T14:10:52Z</time>
      </trkpt>
      <trkpt lat="46.915016015991569" lon="5.770866991952062">
        <ele>291.89999999999998</ele>
        <time>2025-04-23T14:10:56Z</time>
      </trkpt>
      <trkpt lat="46.914909984916449" lon="5.770808989182115">
        <ele>291.89999999999998</ele>
        <time>2025-04-23T14:10:57Z</time>
      </trkpt>
      <trkpt lat="46.913682036101818" lon="5.769823025912046">
        <ele>286.61000000000001</ele>
        <time>2025-04-23T14:11:09Z</time>
      </trkpt>
      <trkpt lat="46.912419972941279" lon="5.768385026603937">
        <ele>278.44</ele>
        <time>2025-04-23T14:11:21Z</time>
      </trkpt>
      <trkpt lat="46.910835960879922" lon="5.766987008973956">
        <ele>278.44</ele>
        <time>2025-04-23T14:11:33Z</time>
      </trkpt>
      <trkpt lat="46.909278016537428" lon="5.765929967164993">
        <ele>286.61000000000001</ele>
        <time>2025-04-23T14:11:44Z</time>
      </trkpt>
      <trkpt lat="46.908108992502093" lon="5.765566024929285">
        <ele>292.86000000000001</ele>
        <time>2025-04-23T14:11:52Z</time>
      </trkpt>
      <trkpt lat="46.906158020719886" lon="5.765329990535975">
        <ele>302.94999999999999</ele>
        <time>2025-04-23T14:12:02Z</time>
      </trkpt>
      <trkpt lat="46.904583983123302" lon="5.764821041375399">
        <ele>305.83999999999997</ele>
        <time>2025-04-23T14:12:10Z</time>
      </trkpt>
      <trkpt lat="46.903285961598158" lon="5.763658974319696">
        <ele>308.72000000000003</ele>
        <time>2025-04-23T14:12:17Z</time>
      </trkpt>
      <trkpt lat="46.902457997202873" lon="5.762178981676698">
        <ele>314.00999999999999</ele>
        <time>2025-04-23T14:12:23Z</time>
      </trkpt>
      <trkpt lat="46.901873024180532" lon="5.759974038228393">
        <ele>322.66000000000003</ele>
        <time>2025-04-23T14:12:30Z</time>
      </trkpt>
      <trkpt lat="46.901389975100756" lon="5.756968036293984">
        <ele>329.87</ele>
        <time>2025-04-23T14:12:39Z</time>
      </trkpt>
      <trkpt lat="46.90081799402833" lon="5.753790959715843">
        <ele>330.82999999999998</ele>
        <time>2025-04-23T14:12:50Z</time>
      </trkpt>
      <trkpt lat="46.900043003261089" lon="5.750273996964097">
        <ele>327.94999999999999</ele>
        <time>2025-04-23T14:13:03Z</time>
      </trkpt>
      <trkpt lat="46.89918402582407" lon="5.746902963146567">
        <ele>319.30000000000001</ele>
        <time>2025-04-23T14:13:15Z</time>
      </trkpt>
      <trkpt lat="46.898387996479869" lon="5.74385697953403">
        <ele>309.68000000000001</ele>
        <time>2025-04-23T14:13:26Z</time>
      </trkpt>
      <trkpt lat="46.897383006289601" lon="5.740060983225703">
        <ele>303.91000000000003</ele>
        <time>2025-04-23T14:13:40Z</time>
      </trkpt>
      <trkpt lat="46.896484969183803" lon="5.737442979589105">
        <ele>298.14999999999998</ele>
        <time>2025-04-23T14:13:50Z</time>
      </trkpt>
      <trkpt lat="46.894411034882069" lon="5.733014987781644">
        <ele>286.61000000000001</ele>
        <time>2025-04-23T14:14:08Z</time>
      </trkpt>
      <trkpt lat="46.893418030813336" lon="5.731528960168362">
        <ele>286.61000000000001</ele>
        <time>2025-04-23T14:14:15Z</time>
      </trkpt>
      <trkpt lat="46.892182035371661" lon="5.730723962187767">
        <ele>288.52999999999997</ele>
        <time>2025-04-23T14:14:22Z</time>
      </trkpt>
      <trkpt lat="46.890385961160064" lon="5.729985013604164">
        <ele>293.33999999999997</ele>
        <time>2025-04-23T14:14:33Z</time>
      </trkpt>
      <trkpt lat="46.888236002996564" lon="5.729106003418565">
        <ele>298.63</ele>
        <time>2025-04-23T14:14:46Z</time>
      </trkpt>
      <trkpt lat="46.886022007092834" lon="5.727930022403598">
        <ele>307.75999999999999</ele>
        <time>2025-04-23T14:14:59Z</time>
      </trkpt>
      <trkpt lat="46.884908974170685" lon="5.727002983912826">
        <ele>314.97000000000003</ele>
        <time>2025-04-23T14:15:07Z</time>
      </trkpt>
      <trkpt lat="46.884796991944313" lon="5.726835010573268">
        <ele>315.93000000000001</ele>
        <time>2025-04-23T14:15:08Z</time>
      </trkpt>
      <trkpt lat="46.884692972525954" lon="5.726655973121524">
        <ele>317.37</ele>
        <time>2025-04-23T14:15:09Z</time>
      </trkpt>
      <trkpt lat="46.884608985856175" lon="5.726448018103838">
        <ele>318.32999999999998</ele>
        <time>2025-04-23T14:15:10Z</time>
      </trkpt>
      <trkpt lat="46.8845300283283" lon="5.726236961781979">
        <ele>319.30000000000001</ele>
        <time>2025-04-23T14:15:11Z</time>
      </trkpt>
      <trkpt lat="46.884469008073211" lon="5.726006962358952">
        <ele>319.77999999999997</ele>
        <time>2025-04-23T14:15:12Z</time>
      </trkpt>
      <trkpt lat="46.884406981989741" lon="5.725777968764305">
        <ele>320.74000000000001</ele>
        <time>2025-04-23T14:15:13Z</time>
      </trkpt>
      <trkpt lat="46.884346967563033" lon="5.725554004311562">
        <ele>321.69999999999999</ele>
        <time>2025-04-23T14:15:14Z</time>
      </trkpt>
      <trkpt lat="46.884276978671551" lon="5.725338002666831">
        <ele>322.18000000000001</ele>
        <time>2025-04-23T14:15:15Z</time>
      </trkpt>
      <trkpt lat="46.884183017536998" lon="5.725134992972016">
        <ele>322.66000000000003</ele>
        <time>2025-04-23T14:15:16Z</time>
      </trkpt>
      <trkpt lat="46.884061982855201" lon="5.724977999925613">
        <ele>323.13999999999999</ele>
        <time>2025-04-23T14:15:17Z</time>
      </trkpt>
      <trkpt lat="46.883937008678913" lon="5.724821006879211">
        <ele>323.62</ele>
        <time>2025-04-23T14:15:18Z</time>
      </trkpt>
      <trkpt lat="46.883787978440523" lon="5.724721010774374">
        <ele>324.57999999999998</ele>
        <time>2025-04-23T14:15:19Z</time>
      </trkpt>
      <trkpt lat="46.883635008707643" lon="5.724628977477551">
        <ele>325.06</ele>
        <time>2025-04-23T14:15:20Z</time>
      </trkpt>
      <trkpt lat="46.88332898542285" lon="5.724444994702935">
        <ele>326.99000000000001</ele>
        <time>2025-04-23T14:15:22Z</time>
      </trkpt>
      <trkpt lat="46.883183978497982" lon="5.724339969456196">
        <ele>328.43000000000001</ele>
        <time>2025-04-23T14:15:23Z</time>
      </trkpt>
      <trkpt lat="46.883040983229876" lon="5.724225975573063">
        <ele>329.38999999999999</ele>
        <time>2025-04-23T14:15:24Z</time>
      </trkpt>
      <trkpt lat="46.882892036810517" lon="5.724106030538678">
        <ele>330.35000000000002</ele>
        <time>2025-04-23T14:15:25Z</time>
      </trkpt>
      <trkpt lat="46.882773013785481" lon="5.723940990865231">
        <ele>331.31</ele>
        <time>2025-04-23T14:15:26Z</time>
      </trkpt>
      <trkpt lat="46.882658014073968" lon="5.723743010312319">
        <ele>331.79000000000002</ele>
        <time>2025-04-23T14:15:27Z</time>
      </trkpt>
      <trkpt lat="46.882542008534074" lon="5.723542012274265">
        <ele>332.75</ele>
        <time>2025-04-23T14:15:28Z</time>
      </trkpt>
      <trkpt lat="46.882424997165799" lon="5.723340008407831">
        <ele>333.23000000000002</ele>
        <time>2025-04-23T14:15:29Z</time>
      </trkpt>
      <trkpt lat="46.882138000801206" lon="5.722709018737078">
        <ele>335.63999999999999</ele>
        <time>2025-04-23T14:15:32Z</time>
      </trkpt>
      <trkpt lat="46.882054014131427" lon="5.722489999607205">
        <ele>336.12</ele>
        <time>2025-04-23T14:15:33Z</time>
      </trkpt>
      <trkpt lat="46.881993999704719" lon="5.722252959385514">
        <ele>336.60000000000002</ele>
        <time>2025-04-23T14:15:34Z</time>
      </trkpt>
      <trkpt lat="46.881958963349462" lon="5.721993958577514">
        <ele>337.07999999999998</ele>
        <time>2025-04-23T14:15:35Z</time>
      </trkpt>
      <trkpt lat="46.881923004984856" lon="5.721730012446642">
        <ele>337.56</ele>
        <time>2025-04-23T14:15:36Z</time>
      </trkpt>
      <trkpt lat="46.881483038887382" lon="5.719956988468766">
        <ele>340.44</ele>
        <time>2025-04-23T14:15:43Z</time>
      </trkpt>
      <trkpt lat="46.881242981180549" lon="5.719352988526225">
        <ele>341.41000000000003</ele>
        <time>2025-04-23T14:15:46Z</time>
      </trkpt>
      <trkpt lat="46.881143990904093" lon="5.7191919721663">
        <ele>341.88999999999999</ele>
        <time>2025-04-23T14:15:47Z</time>
      </trkpt>
      <trkpt lat="46.881032008677721" lon="5.719064986333251">
        <ele>342.37</ele>
        <time>2025-04-23T14:15:48Z</time>
      </trkpt>
      <trkpt lat="46.880905022844672" lon="5.718948980793357">
        <ele>342.85000000000002</ele>
        <time>2025-04-23T14:15:49Z</time>
      </trkpt>
      <trkpt lat="46.880763033404946" lon="5.718862982466817">
        <ele>342.85000000000002</ele>
        <time>2025-04-23T14:15:50Z</time>
      </trkpt>
      <trkpt lat="46.880610985681415" lon="5.71878301911056">
        <ele>343.32999999999998</ele>
        <time>2025-04-23T14:15:51Z</time>
      </trkpt>
      <trkpt lat="46.879465011879802" lon="5.71835202164948">
        <ele>345.73000000000002</ele>
        <time>2025-04-23T14:15:58Z</time>
      </trkpt>
      <trkpt lat="46.87931003049016" lon="5.71824599057436">
        <ele>346.20999999999998</ele>
        <time>2025-04-23T14:15:59Z</time>
      </trkpt>
      <trkpt lat="46.879159994423389" lon="5.718133002519608">
        <ele>347.17000000000002</ele>
        <time>2025-04-23T14:16:00Z</time>
      </trkpt>
      <trkpt lat="46.87901197001338" lon="5.718021020293236">
        <ele>347.64999999999998</ele>
        <time>2025-04-23T14:16:01Z</time>
      </trkpt>
      <trkpt lat="46.878865035250783" lon="5.717909960076213">
        <ele>348.62</ele>
        <time>2025-04-23T14:16:02Z</time>
      </trkpt>
      <trkpt lat="46.878719022497535" lon="5.717798983678222">
        <ele>349.57999999999998</ele>
        <time>2025-04-23T14:16:03Z</time>
      </trkpt>
      <trkpt lat="46.878566974774003" lon="5.717722959816456">
        <ele>350.06</ele>
        <time>2025-04-23T14:16:04Z</time>
      </trkpt>
      <trkpt lat="46.8784099817276" lon="5.717684989795089">
        <ele>351.01999999999998</ele>
        <time>2025-04-23T14:16:05Z</time>
      </trkpt>
      <trkpt lat="46.878250977024436" lon="5.717647019773722">
        <ele>351.5</ele>
        <time>2025-04-23T14:16:06Z</time>
      </trkpt>
      <trkpt lat="46.877947971224785" lon="5.717518022283912">
        <ele>352.94</ele>
        <time>2025-04-23T14:16:08Z</time>
      </trkpt>
      <trkpt lat="46.877783015370369" lon="5.717439986765385">
        <ele>353.89999999999998</ele>
        <time>2025-04-23T14:16:09Z</time>
      </trkpt>
      <trkpt lat="46.87765896320343" lon="5.717326998710632">
        <ele>354.86000000000001</ele>
        <time>2025-04-23T14:16:10Z</time>
      </trkpt>
      <trkpt lat="46.877516973763704" lon="5.717196995392442">
        <ele>355.33999999999997</ele>
        <time>2025-04-23T14:16:11Z</time>
      </trkpt>
      <trkpt lat="46.877371966838837" lon="5.717062968760729">
        <ele>356.31</ele>
        <time>2025-04-23T14:16:12Z</time>
      </trkpt>
      <trkpt lat="46.876172013580799" lon="5.716142971068621">
        <ele>362.06999999999999</ele>
        <time>2025-04-23T14:16:20Z</time>
      </trkpt>
      <trkpt lat="46.876006973907351" lon="5.716102989390492">
        <ele>362.55000000000001</ele>
        <time>2025-04-23T14:16:21Z</time>
      </trkpt>
      <trkpt lat="46.875841012224555" lon="5.716070970520377">
        <ele>363.04000000000002</ele>
        <time>2025-04-23T14:16:22Z</time>
      </trkpt>
      <trkpt lat="46.875669015571475" lon="5.716050015762448">
        <ele>363.51999999999998</ele>
        <time>2025-04-23T14:16:23Z</time>
      </trkpt>
      <trkpt lat="46.875494001433253" lon="5.716078011319041">
        <ele>364.48000000000002</ele>
        <time>2025-04-23T14:16:24Z</time>
      </trkpt>
      <trkpt lat="46.87531596980989" lon="5.716106006875634">
        <ele>365.44</ele>
        <time>2025-04-23T14:16:25Z</time>
      </trkpt>
      <trkpt lat="46.875138022005558" lon="5.716145988553762">
        <ele>365.92000000000002</ele>
        <time>2025-04-23T14:16:26Z</time>
      </trkpt>
      <trkpt lat="46.873382013291121" lon="5.716345980763435">
        <ele>373.61000000000001</ele>
        <time>2025-04-23T14:16:36Z</time>
      </trkpt>
      <trkpt lat="46.87110498547554" lon="5.71639996021986">
        <ele>378.42000000000002</ele>
        <time>2025-04-23T14:16:49Z</time>
      </trkpt>
      <trkpt lat="46.869564978405833" lon="5.716430973261595">
        <ele>380.33999999999997</ele>
        <time>2025-04-23T14:17:00Z</time>
      </trkpt>
      <trkpt lat="46.868337029591203" lon="5.716430973261595">
        <ele>380.33999999999997</ele>
        <time>2025-04-23T14:17:11Z</time>
      </trkpt>
      <trkpt lat="46.868129996582866" lon="5.716404989361763">
        <ele>379.38</ele>
        <time>2025-04-23T14:17:13Z</time>
      </trkpt>
      <trkpt lat="46.868033017963171" lon="5.716387974098325">
        <ele>379.38</ele>
        <time>2025-04-23T14:17:14Z</time>
      </trkpt>
      <trkpt lat="46.866955021396279" lon="5.716082034632564">
        <ele>375.05000000000001</ele>
        <time>2025-04-23T14:17:23Z</time>
      </trkpt>
      <trkpt lat="46.865351982414722" lon="5.715167988091707">
        <ele>369.27999999999997</ele>
        <time>2025-04-23T14:17:34Z</time>
      </trkpt>
      <trkpt lat="46.86489500105381" lon="5.714883003383875">
        <ele>367.83999999999997</ele>
        <time>2025-04-23T14:17:37Z</time>
      </trkpt>
      <trkpt lat="46.864727027714252" lon="5.71482902392745">
        <ele>366.88</ele>
        <time>2025-04-23T14:17:38Z</time>
      </trkpt>
      <trkpt lat="46.864557964727283" lon="5.714774960651994">
        <ele>366.39999999999998</ele>
        <time>2025-04-23T14:17:39Z</time>
      </trkpt>
      <trkpt lat="46.864048009738326" lon="5.714611010625958">
        <ele>364.48000000000002</ele>
        <time>2025-04-23T14:17:42Z</time>
      </trkpt>
      <trkpt lat="46.862404989078641" lon="5.713839959353209">
        <ele>357.26999999999998</ele>
        <time>2025-04-23T14:17:51Z</time>
      </trkpt>
      <trkpt lat="46.860087979584932" lon="5.712688034400344">
        <ele>348.13</ele>
        <time>2025-04-23T14:18:03Z</time>
      </trkpt>
      <trkpt lat="46.858229963108897" lon="5.712203979492188">
        <ele>339.48000000000002</ele>
        <time>2025-04-23T14:18:12Z</time>
      </trkpt>
      <trkpt lat="46.856712000444531" lon="5.712429033592343">
        <ele>332.75</ele>
        <time>2025-04-23T14:18:19Z</time>
      </trkpt>
      <trkpt lat="46.855228990316391" lon="5.712334988638759">
        <ele>326.5</ele>
        <time>2025-04-23T14:18:26Z</time>
      </trkpt>
      <trkpt lat="46.853680014610291" lon="5.711607020348311">
        <ele>320.25999999999999</ele>
        <time>2025-04-23T14:18:34Z</time>
      </trkpt>
      <trkpt lat="46.852061972022057" lon="5.710722981020808">
        <ele>313.05000000000001</ele>
        <time>2025-04-23T14:18:44Z</time>
      </trkpt>
      <trkpt lat="46.851383959874511" lon="5.710348980501294">
        <ele>309.68000000000001</ele>
        <time>2025-04-23T14:18:49Z</time>
      </trkpt>
      <trkpt lat="46.851090006530285" lon="5.710080005228519">
        <ele>307.75999999999999</ele>
        <time>2025-04-23T14:18:52Z</time>
      </trkpt>
      <trkpt lat="46.851010965183377" lon="5.709958970546722">
        <ele>307.75999999999999</ele>
        <time>2025-04-23T14:18:53Z</time>
      </trkpt>
      <trkpt lat="46.850078981369734" lon="5.708514014258981">
        <ele>305.36000000000001</ele>
        <time>2025-04-23T14:19:03Z</time>
      </trkpt>
      <trkpt lat="46.84942502528429" lon="5.707445992156863">
        <ele>307.27999999999997</ele>
        <time>2025-04-23T14:19:09Z</time>
      </trkpt>
      <trkpt lat="46.848642993718386" lon="5.706207985058427">
        <ele>308.72000000000003</ele>
        <time>2025-04-23T14:19:16Z</time>
      </trkpt>
      <trkpt lat="46.847156966105103" lon="5.704262964427471">
        <ele>308.24000000000001</ele>
        <time>2025-04-23T14:19:28Z</time>
      </trkpt>
      <trkpt lat="46.846279967576265" lon="5.703581012785435">
        <ele>310.16000000000003</ele>
        <time>2025-04-23T14:19:34Z</time>
      </trkpt>
      <trkpt lat="46.844507027417421" lon="5.702222976833582">
        <ele>314.00999999999999</ele>
        <time>2025-04-23T14:19:46Z</time>
      </trkpt>
      <trkpt lat="46.842490006238222" lon="5.700535029172897">
        <ele>309.68000000000001</ele>
        <time>2025-04-23T14:19:59Z</time>
      </trkpt>
      <trkpt lat="46.840933989733458" lon="5.69938201457262">
        <ele>310.16000000000003</ele>
        <time>2025-04-23T14:20:08Z</time>
      </trkpt>
      <trkpt lat="46.838794006034732" lon="5.697742011398077">
        <ele>310.16000000000003</ele>
        <time>2025-04-23T14:20:20Z</time>
      </trkpt>
      <trkpt lat="46.837696982547641" lon="5.696455975994468">
        <ele>306.80000000000001</ele>
        <time>2025-04-23T14:20:27Z</time>
      </trkpt>
      <trkpt lat="46.836928026750684" lon="5.694480026140809">
        <ele>303.43000000000001</ele>
        <time>2025-04-23T14:20:35Z</time>
      </trkpt>
      <trkpt lat="46.836714036762714" lon="5.692354962229729">
        <ele>296.69999999999999</ele>
        <time>2025-04-23T14:20:43Z</time>
      </trkpt>
      <trkpt lat="46.836924003437161" lon="5.690408013761044">
        <ele>292.38</ele>
        <time>2025-04-23T14:20:51Z</time>
      </trkpt>
      <trkpt lat="46.837015030905604" lon="5.689708963036537">
        <ele>291.89999999999998</ele>
        <time>2025-04-23T14:20:55Z</time>
      </trkpt>
      <trkpt lat="46.837036991491914" lon="5.68960796110332">
        <ele>291.89999999999998</ele>
        <time>2025-04-23T14:20:56Z</time>
      </trkpt>
      <trkpt lat="46.837056018412113" lon="5.689524980261922">
        <ele>291.89999999999998</ele>
        <time>2025-04-23T14:20:57Z</time>
      </trkpt>
      <trkpt lat="46.837064987048507" lon="5.68945599719882">
        <ele>292.38</ele>
        <time>2025-04-23T14:20:58Z</time>
      </trkpt>
      <trkpt lat="46.837074039503932" lon="5.689377961680293">
        <ele>291.89999999999998</ele>
        <time>2025-04-23T14:20:59Z</time>
      </trkpt>
      <trkpt lat="46.837228015065193" lon="5.689308978617191">
        <ele>292.38</ele>
        <time>2025-04-23T14:21:00Z</time>
      </trkpt>
      <trkpt lat="46.837260033935308" lon="5.689178975299001">
        <ele>292.38</ele>
        <time>2025-04-23T14:21:02Z</time>
      </trkpt>
      <trkpt lat="46.837284006178379" lon="5.689083002507687">
        <ele>292.38</ele>
        <time>2025-04-23T14:21:03Z</time>
      </trkpt>
      <trkpt lat="46.83726598508656" lon="5.688971020281315">
        <ele>291.89999999999998</ele>
        <time>2025-04-23T14:21:04Z</time>
      </trkpt>
      <trkpt lat="46.837231032550335" lon="5.688868006691337">
        <ele>291.89999999999998</ele>
        <time>2025-04-23T14:21:05Z</time>
      </trkpt>
      <trkpt lat="46.837228015065193" lon="5.688858032226563">
        <ele>292.38</ele>
        <time>2025-04-23T14:21:06Z</time>
      </trkpt>
      <trkpt lat="46.837120978161693" lon="5.68863901309669">
        <ele>292.38</ele>
        <time>2025-04-23T14:21:07Z</time>
      </trkpt>
      <trkpt lat="46.837120978161693" lon="5.688500963151455">
        <ele>292.38</ele>
        <time>2025-04-23T14:21:08Z</time>
      </trkpt>
      <trkpt lat="46.837123995646834" lon="5.688346987590194">
        <ele>292.38</ele>
        <time>2025-04-23T14:21:09Z</time>
      </trkpt>
      <trkpt lat="46.837177975103259" lon="5.686700027436018">
        <ele>290.94</ele>
        <time>2025-04-23T14:21:17Z</time>
      </trkpt>
      <trkpt lat="46.837248969823122" lon="5.683803996071219">
        <ele>292.86000000000001</ele>
        <time>2025-04-23T14:21:28Z</time>
      </trkpt>
      <trkpt lat="46.837289035320282" lon="5.680791959166527">
        <ele>295.74000000000001</ele>
        <time>2025-04-23T14:21:39Z</time>
      </trkpt>
      <trkpt lat="46.837721038609743" lon="5.678450977429748">
        <ele>294.30000000000001</ele>
        <time>2025-04-23T14:21:47Z</time>
      </trkpt>
      <trkpt lat="46.838542968034744" lon="5.67650000564754">
        <ele>292.86000000000001</ele>
        <time>2025-04-23T14:21:54Z</time>
      </trkpt>
      <trkpt lat="46.839938974007964" lon="5.673732971772552">
        <ele>296.69999999999999</ele>
        <time>2025-04-23T14:22:05Z</time>
      </trkpt>
      <trkpt lat="46.840630983933806" lon="5.671316972002387">
        <ele>301.50999999999999</ele>
        <time>2025-04-23T14:22:13Z</time>
      </trkpt>
      <trkpt lat="46.841208999976516" lon="5.667895982041955">
        <ele>300.06999999999999</ele>
        <time>2025-04-23T14:22:23Z</time>
      </trkpt>
      <trkpt lat="46.842187000438571" lon="5.662024961784482">
        <ele>288.52999999999997</ele>
        <time>2025-04-23T14:22:40Z</time>
      </trkpt>
      <trkpt lat="46.84278798289597" lon="5.658283028751612">
        <ele>287.08999999999997</ele>
        <time>2025-04-23T14:22:51Z</time>
      </trkpt>
      <trkpt lat="46.843369016423821" lon="5.655020959675312">
        <ele>282.27999999999997</ele>
        <time>2025-04-23T14:23:02Z</time>
      </trkpt>
      <trkpt lat="46.844230005517602" lon="5.651578009128571">
        <ele>270.75</ele>
        <time>2025-04-23T14:23:14Z</time>
      </trkpt>
      <trkpt lat="46.844893014058471" lon="5.648304959759116">
        <ele>262.57999999999998</ele>
        <time>2025-04-23T14:23:25Z</time>
      </trkpt>
      <trkpt lat="46.845095017924905" lon="5.645144982263446">
        <ele>257.76999999999998</ele>
        <time>2025-04-23T14:23:35Z</time>
      </trkpt>
      <trkpt lat="46.845263997092843" lon="5.639675036072731">
        <ele>253.44</ele>
        <time>2025-04-23T14:23:52Z</time>
      </trkpt>
      <trkpt lat="46.845411015674472" lon="5.635761022567749">
        <ele>246.22999999999999</ele>
        <time>2025-04-23T14:24:05Z</time>
      </trkpt>
      <trkpt lat="46.8454509973526" lon="5.632966998964548">
        <ele>241.91</ele>
        <time>2025-04-23T14:24:14Z</time>
      </trkpt>
      <trkpt lat="46.845444962382317" lon="5.632652007043362">
        <ele>241.43000000000001</ele>
        <time>2025-04-23T14:24:15Z</time>
      </trkpt>
      <trkpt lat="46.845098035410047" lon="5.630045989528298">
        <ele>239.02000000000001</ele>
        <time>2025-04-23T14:24:24Z</time>
      </trkpt>
      <trkpt lat="46.844529993832111" lon="5.626574959605932">
        <ele>248.63999999999999</ele>
        <time>2025-04-23T14:24:36Z</time>
      </trkpt>
      <trkpt lat="46.844450030475855" lon="5.626313025131822">
        <ele>249.59999999999999</ele>
        <time>2025-04-23T14:24:37Z</time>
      </trkpt>
      <trkpt lat="46.843550987541676" lon="5.624267002567649">
        <ele>259.69</ele>
        <time>2025-04-23T14:24:46Z</time>
      </trkpt>
      <trkpt lat="46.842544991523027" lon="5.622603027150035">
        <ele>266.89999999999998</ele>
        <time>2025-04-23T14:24:54Z</time>
      </trkpt>
      <trkpt lat="46.8417779635638" lon="5.621750000864267">
        <ele>268.35000000000002</ele>
        <time>2025-04-23T14:25:01Z</time>
      </trkpt>
      <trkpt lat="46.841558022424579" lon="5.621440038084984">
        <ele>268.35000000000002</ele>
        <time>2025-04-23T14:25:04Z</time>
      </trkpt>
      <trkpt lat="46.841490967199206" lon="5.621331995353103">
        <ele>268.35000000000002</ele>
        <time>2025-04-23T14:25:05Z</time>
      </trkpt>
      <trkpt lat="46.841414021328092" lon="5.621083974838257">
        <ele>268.35000000000002</ele>
        <time>2025-04-23T14:25:07Z</time>
      </trkpt>
      <trkpt lat="46.841331962496042" lon="5.621000993996859">
        <ele>268.35000000000002</ele>
        <time>2025-04-23T14:25:08Z</time>
      </trkpt>
      <trkpt lat="46.84126197360456" lon="5.620966041460633">
        <ele>268.35000000000002</ele>
        <time>2025-04-23T14:25:09Z</time>
      </trkpt>
      <trkpt lat="46.841144040226936" lon="5.621005017310381">
        <ele>267.86000000000001</ele>
        <time>2025-04-23T14:25:10Z</time>
      </trkpt>
      <trkpt lat="46.841034991666675" lon="5.620962018147111">
        <ele>267.86000000000001</ele>
        <time>2025-04-23T14:25:11Z</time>
      </trkpt>
      <trkpt lat="46.840920997783542" lon="5.620908038690686">
        <ele>267.86000000000001</ele>
        <time>2025-04-23T14:25:12Z</time>
      </trkpt>
      <trkpt lat="46.840795017778873" lon="5.620848024263978">
        <ele>267.86000000000001</ele>
        <time>2025-04-23T14:25:13Z</time>
      </trkpt>
      <trkpt lat="46.84065998531878" lon="5.620777029544115">
        <ele>267.38</ele>
        <time>2025-04-23T14:25:14Z</time>
      </trkpt>
      <trkpt lat="46.840520007535815" lon="5.620668986812234">
        <ele>267.38</ele>
        <time>2025-04-23T14:25:15Z</time>
      </trkpt>
      <trkpt lat="46.839265991002321" lon="5.619593001902103">
        <ele>264.98000000000002</ele>
        <time>2025-04-23T14:25:23Z</time>
      </trkpt>
      <trkpt lat="46.839121989905834" lon="5.619355039671063">
        <ele>264.5</ele>
        <time>2025-04-23T14:25:24Z</time>
      </trkpt>
      <trkpt lat="46.838987041264772" lon="5.619131997227669">
        <ele>264.5</ele>
        <time>2025-04-23T14:25:25Z</time>
      </trkpt>
      <trkpt lat="46.837466983124614" lon="5.616603009402752">
        <ele>259.69</ele>
        <time>2025-04-23T14:25:36Z</time>
      </trkpt>
      <trkpt lat="46.835714997723699" lon="5.613702032715082">
        <ele>257.76999999999998</ele>
        <time>2025-04-23T14:25:48Z</time>
      </trkpt>
      <trkpt lat="46.833713985979557" lon="5.610440969467163">
        <ele>261.62</ele>
        <time>2025-04-23T14:26:02Z</time>
      </trkpt>
      <trkpt lat="46.832489976659417" lon="5.608316995203495">
        <ele>267.38</ele>
        <time>2025-04-23T14:26:11Z</time>
      </trkpt>
      <trkpt lat="46.832399033010006" lon="5.608046008273959">
        <ele>268.35000000000002</ele>
        <time>2025-04-23T14:26:12Z</time>
      </trkpt>
      <trkpt lat="46.832329966127872" lon="5.60776999220252">
        <ele>268.82999999999998</ele>
        <time>2025-04-23T14:26:13Z</time>
      </trkpt>
      <trkpt lat="46.831821016967297" lon="5.605980958789587">
        <ele>273.14999999999998</ele>
        <time>2025-04-23T14:26:20Z</time>
      </trkpt>
      <trkpt lat="46.831723032519221" lon="5.605752971023321">
        <ele>273.63</ele>
        <time>2025-04-23T14:26:21Z</time>
      </trkpt>
      <trkpt lat="46.830530958250165" lon="5.603524977341294">
        <ele>272.67000000000002</ele>
        <time>2025-04-23T14:26:31Z</time>
      </trkpt>
      <trkpt lat="46.829870967194438" lon="5.601364960893989">
        <ele>267.38</ele>
        <time>2025-04-23T14:26:39Z</time>
      </trkpt>
      <trkpt lat="46.828815015032887" lon="5.599524965509772">
        <ele>263.54000000000002</ele>
        <time>2025-04-23T14:26:47Z</time>
      </trkpt>
      <trkpt lat="46.827135030180216" lon="5.597783960402012">
        <ele>261.62</ele>
        <time>2025-04-23T14:26:57Z</time>
      </trkpt>
      <trkpt lat="46.824455000460148" lon="5.595296965911984">
        <ele>259.69</ele>
        <time>2025-04-23T14:27:12Z</time>
      </trkpt>
      <trkpt lat="46.822643000632524" lon="5.594627000391483">
        <ele>258.73000000000002</ele>
        <time>2025-04-23T14:27:21Z</time>
      </trkpt>
      <trkpt lat="46.819547982886434" lon="5.593599965795875">
        <ele>254.88999999999999</ele>
        <time>2025-04-23T14:27:36Z</time>
      </trkpt>
      <trkpt lat="46.81739098392427" lon="5.592836039140821">
        <ele>251.03999999999999</ele>
        <time>2025-04-23T14:27:47Z</time>
      </trkpt>
      <trkpt lat="46.817075992003083" lon="5.592592963948846">
        <ele>250.56</ele>
        <time>2025-04-23T14:27:49Z</time>
      </trkpt>
      <trkpt lat="46.816921010613441" lon="5.592453991994262">
        <ele>250.08000000000001</ele>
        <time>2025-04-23T14:27:50Z</time>
      </trkpt>
      <trkpt lat="46.81676996871829" lon="5.592292975634337">
        <ele>249.59999999999999</ele>
        <time>2025-04-23T14:27:51Z</time>
      </trkpt>
      <trkpt lat="46.815434983000159" lon="5.590607039630413">
        <ele>246.22999999999999</ele>
        <time>2025-04-23T14:28:00Z</time>
      </trkpt>
      <trkpt lat="46.813785005360842" lon="5.58853997848928">
        <ele>239.50999999999999</ele>
        <time>2025-04-23T14:28:11Z</time>
      </trkpt>
      <trkpt lat="46.812152964994311" lon="5.586603004485369">
        <ele>239.02000000000001</ele>
        <time>2025-04-23T14:28:22Z</time>
      </trkpt>
      <trkpt lat="46.811391972005367" lon="5.585843017324805">
        <ele>240.94999999999999</ele>
        <time>2025-04-23T14:28:30Z</time>
      </trkpt>
      <trkpt lat="46.811343021690845" lon="5.585756013169885">
        <ele>241.43000000000001</ele>
        <time>2025-04-23T14:28:31Z</time>
      </trkpt>
      <trkpt lat="46.811293987557292" lon="5.585669009014964">
        <ele>241.91</ele>
        <time>2025-04-23T14:28:32Z</time>
      </trkpt>
      <trkpt lat="46.8112469650805" lon="5.585585022345185">
        <ele>241.91</ele>
        <time>2025-04-23T14:28:33Z</time>
      </trkpt>
      <trkpt lat="46.811220981180668" lon="5.585474967956543">
        <ele>241.91</ele>
        <time>2025-04-23T14:28:34Z</time>
      </trkpt>
      <trkpt lat="46.811194997280836" lon="5.585380000993609">
        <ele>241.91</ele>
        <time>2025-04-23T14:28:35Z</time>
      </trkpt>
      <trkpt lat="46.811157027259469" lon="5.585239017382264">
        <ele>241.91</ele>
        <time>2025-04-23T14:28:36Z</time>
      </trkpt>
      <trkpt lat="46.811100030317903" lon="5.585182020440698">
        <ele>241.91</ele>
        <time>2025-04-23T14:28:37Z</time>
      </trkpt>
      <trkpt lat="46.811004979535937" lon="5.58514497242868">
        <ele>241.91</ele>
        <time>2025-04-23T14:28:38Z</time>
      </trkpt>
      <trkpt lat="46.81092300452292" lon="5.585170034319162">
        <ele>242.38999999999999</ele>
        <time>2025-04-23T14:28:39Z</time>
      </trkpt>
      <trkpt lat="46.810836000367999" lon="5.585196018218994">
        <ele>242.38999999999999</ele>
        <time>2025-04-23T14:28:40Z</time>
      </trkpt>
      <trkpt lat="46.810744972899556" lon="5.585105996578932">
        <ele>242.38999999999999</ele>
        <time>2025-04-23T14:28:41Z</time>
      </trkpt>
      <trkpt lat="46.810668027028441" lon="5.585028966888785">
        <ele>242.38999999999999</ele>
        <time>2025-04-23T14:28:42Z</time>
      </trkpt>
      <trkpt lat="46.81057901121676" lon="5.584940034896135">
        <ele>242.38999999999999</ele>
        <time>2025-04-23T14:28:43Z</time>
      </trkpt>
      <trkpt lat="46.809466984122992" lon="5.583805963397026">
        <ele>241.91</ele>
        <time>2025-04-23T14:28:53Z</time>
      </trkpt>
      <trkpt lat="46.807778030633926" lon="5.58194300159812">
        <ele>240.94999999999999</ele>
        <time>2025-04-23T14:29:06Z</time>
      </trkpt>
      <trkpt lat="46.807319037616253" lon="5.581253003329039">
        <ele>242.38999999999999</ele>
        <time>2025-04-23T14:29:10Z</time>
      </trkpt>
      <trkpt lat="46.806251015514135" lon="5.579332038760185">
        <ele>244.78999999999999</ele>
        <time>2025-04-23T14:29:20Z</time>
      </trkpt>
      <trkpt lat="46.805132031440735" lon="5.578210037201643">
        <ele>248.63999999999999</ele>
        <time>2025-04-23T14:29:27Z</time>
      </trkpt>
      <trkpt lat="46.803843984380364" lon="5.577456001192331">
        <ele>254.41</ele>
        <time>2025-04-23T14:29:34Z</time>
      </trkpt>
      <trkpt lat="46.802405985072255" lon="5.576160997152329">
        <ele>263.06</ele>
        <time>2025-04-23T14:29:42Z</time>
      </trkpt>
      <trkpt lat="46.800919035449624" lon="5.574214970692992">
        <ele>273.14999999999998</ele>
        <time>2025-04-23T14:29:51Z</time>
      </trkpt>
      <trkpt lat="46.799473995342851" lon="5.572031987830997">
        <ele>282.27999999999997</ele>
        <time>2025-04-23T14:30:00Z</time>
      </trkpt>
      <trkpt lat="46.7981400154531" lon="5.571077959612012">
        <ele>289.97000000000003</ele>
        <time>2025-04-23T14:30:07Z</time>
      </trkpt>
      <trkpt lat="46.796215027570724" lon="5.570533974096179">
        <ele>300.55000000000001</ele>
        <time>2025-04-23T14:30:16Z</time>
      </trkpt>
      <trkpt lat="46.79498003795743" lon="5.569832995533943">
        <ele>306.80000000000001</ele>
        <time>2025-04-23T14:30:22Z</time>
      </trkpt>
      <trkpt lat="46.793686961755157" lon="5.568562969565392">
        <ele>313.05000000000001</ele>
        <time>2025-04-23T14:30:29Z</time>
      </trkpt>
      <trkpt lat="46.791871022433043" lon="5.567497964948416">
        <ele>315.93000000000001</ele>
        <time>2025-04-23T14:30:38Z</time>
      </trkpt>
      <trkpt lat="46.789510007947683" lon="5.566541003063321">
        <ele>310.63999999999999</ele>
        <time>2025-04-23T14:30:49Z</time>
      </trkpt>
      <trkpt lat="46.787536991760135" lon="5.565567025914788">
        <ele>306.80000000000001</ele>
        <time>2025-04-23T14:30:59Z</time>
      </trkpt>
      <trkpt lat="46.786642977967858" lon="5.56497098878026">
        <ele>305.83999999999997</ele>
        <time>2025-04-23T14:31:04Z</time>
      </trkpt>
      <trkpt lat="46.786497971042991" lon="5.564802009612322">
        <ele>305.36000000000001</ele>
        <time>2025-04-23T14:31:05Z</time>
      </trkpt>
      <trkpt lat="46.786352964118123" lon="5.564628001302481">
        <ele>304.88</ele>
        <time>2025-04-23T14:31:06Z</time>
      </trkpt>
      <trkpt lat="46.78621499799192" lon="5.564444018527865">
        <ele>304.88</ele>
        <time>2025-04-23T14:31:07Z</time>
      </trkpt>
      <trkpt lat="46.786081977188587" lon="5.564251989126205">
        <ele>304.88</ele>
        <time>2025-04-23T14:31:08Z</time>
      </trkpt>
      <trkpt lat="46.785965971648693" lon="5.564028024673462">
        <ele>303.91000000000003</ele>
        <time>2025-04-23T14:31:09Z</time>
      </trkpt>
      <trkpt lat="46.78585197776556" lon="5.56381001137197">
        <ele>303.43000000000001</ele>
        <time>2025-04-23T14:31:10Z</time>
      </trkpt>
      <trkpt lat="46.784995011985302" lon="5.561921987682581">
        <ele>301.02999999999997</ele>
        <time>2025-04-23T14:31:18Z</time>
      </trkpt>
      <trkpt lat="46.784853022545576" lon="5.561732975766063">
        <ele>300.55000000000001</ele>
        <time>2025-04-23T14:31:19Z</time>
      </trkpt>
      <trkpt lat="46.784701980650425" lon="5.561558967456222">
        <ele>300.55000000000001</ele>
        <time>2025-04-23T14:31:20Z</time>
      </trkpt>
      <trkpt lat="46.784524032846093" lon="5.561440028250217">
        <ele>300.06999999999999</ele>
        <time>2025-04-23T14:31:21Z</time>
      </trkpt>
      <trkpt lat="46.784339966252446" lon="5.56133802048862">
        <ele>299.11000000000001</ele>
        <time>2025-04-23T14:31:22Z</time>
      </trkpt>
      <trkpt lat="46.784147014841437" lon="5.561241041868925">
        <ele>298.63</ele>
        <time>2025-04-23T14:31:23Z</time>
      </trkpt>
      <trkpt lat="46.783948028460145" lon="5.561141967773438">
        <ele>298.14999999999998</ele>
        <time>2025-04-23T14:31:24Z</time>
      </trkpt>
      <trkpt lat="46.783746024593711" lon="5.56112595833838">
        <ele>297.67000000000002</ele>
        <time>2025-04-23T14:31:25Z</time>
      </trkpt>
      <trkpt lat="46.783531028777361" lon="5.561108021065593">
        <ele>296.69999999999999</ele>
        <time>2025-04-23T14:31:26Z</time>
      </trkpt>
      <trkpt lat="46.780905984342098" lon="5.560838961973786">
        <ele>287.56999999999999</ele>
        <time>2025-04-23T14:31:38Z</time>
      </trkpt>
      <trkpt lat="46.779142012819648" lon="5.560291958972812">
        <ele>281.31999999999999</ele>
        <time>2025-04-23T14:31:46Z</time>
      </trkpt>
      <trkpt lat="46.77676398307085" lon="5.559120001271367">
        <ele>270.26999999999998</ele>
        <time>2025-04-23T14:31:56Z</time>
      </trkpt>
      <trkpt lat="46.774421995505691" lon="5.557847041636705">
        <ele>257.76999999999998</ele>
        <time>2025-04-23T14:32:06Z</time>
      </trkpt>
      <trkpt lat="46.772259967401624" lon="5.557022010907531">
        <ele>248.16</ele>
        <time>2025-04-23T14:32:15Z</time>
      </trkpt>
      <trkpt lat="46.770388036966324" lon="5.556374005973339">
        <ele>239.99000000000001</ele>
        <time>2025-04-23T14:32:23Z</time>
      </trkpt>
      <trkpt lat="46.767878998070955" lon="5.555272037163377">
        <ele>233.74000000000001</ele>
        <time>2025-04-23T14:32:34Z</time>
      </trkpt>
      <trkpt lat="46.765945963561535" lon="5.555127030238509">
        <ele>232.78</ele>
        <time>2025-04-23T14:32:42Z</time>
      </trkpt>
      <trkpt lat="46.763765998184681" lon="5.555617958307266">
        <ele>234.22</ele>
        <time>2025-04-23T14:32:51Z</time>
      </trkpt>
      <trkpt lat="46.761770015582442" lon="5.556120034307241">
        <ele>235.18000000000001</ele>
        <time>2025-04-23T14:33:01Z</time>
      </trkpt>
      <trkpt lat="46.759484019130468" lon="5.556357996538281">
        <ele>241.43000000000001</ele>
        <time>2025-04-23T14:33:12Z</time>
      </trkpt>
      <trkpt lat="46.75740203820169" lon="5.556595036759973">
        <ele>249.59999999999999</ele>
        <time>2025-04-23T14:33:22Z</time>
      </trkpt>
      <trkpt lat="46.75519198179245" lon="5.557338008657098">
        <ele>259.69</ele>
        <time>2025-04-23T14:33:32Z</time>
      </trkpt>
      <trkpt lat="46.752778999507427" lon="5.558093972504139">
        <ele>268.82999999999998</ele>
        <time>2025-04-23T14:33:42Z</time>
      </trkpt>
      <trkpt lat="46.751143019646406" lon="5.557918958365917">
        <ele>280.36000000000001</ele>
        <time>2025-04-23T14:33:49Z</time>
      </trkpt>
      <trkpt lat="46.749334037303925" lon="5.557205993682146">
        <ele>289.49000000000001</ele>
        <time>2025-04-23T14:33:57Z</time>
      </trkpt>
      <trkpt lat="46.746429037302732" lon="5.556047027930617">
        <ele>291.42000000000002</ele>
        <time>2025-04-23T14:34:10Z</time>
      </trkpt>
      <trkpt lat="46.743639037013054" lon="5.555632039904594">
        <ele>288.05000000000001</ele>
        <time>2025-04-23T14:34:22Z</time>
      </trkpt>
      <trkpt lat="46.740979962050915" lon="5.555456019937992">
        <ele>290.94</ele>
        <time>2025-04-23T14:34:33Z</time>
      </trkpt>
      <trkpt lat="46.738545019179583" lon="5.556024983525276">
        <ele>299.58999999999997</ele>
        <time>2025-04-23T14:34:43Z</time>
      </trkpt>
      <trkpt lat="46.735927015542984" lon="5.557354018092156">
        <ele>303.91000000000003</ele>
        <time>2025-04-23T14:34:54Z</time>
      </trkpt>
      <trkpt lat="46.734055001288652" lon="5.558093972504139">
        <ele>300.06999999999999</ele>
        <time>2025-04-23T14:35:02Z</time>
      </trkpt>
      <trkpt lat="46.73233000561595" lon="5.55841701105237">
        <ele>297.18000000000001</ele>
        <time>2025-04-23T14:35:10Z</time>
      </trkpt>
      <trkpt lat="46.72990595921874" lon="5.558225987479091">
        <ele>295.25999999999999</ele>
        <time>2025-04-23T14:35:21Z</time>
      </trkpt>
      <trkpt lat="46.727034989744425" lon="5.557749979197979">
        <ele>301.02999999999997</ele>
        <time>2025-04-23T14:35:34Z</time>
      </trkpt>
      <trkpt lat="46.723936032503843" lon="5.557473041117191">
        <ele>311.12</ele>
        <time>2025-04-23T14:35:48Z</time>
      </trkpt>
      <trkpt lat="46.721575018018484" lon="5.557405985891819">
        <ele>319.77999999999997</ele>
        <time>2025-04-23T14:35:58Z</time>
      </trkpt>
      <trkpt lat="46.71984700486064" lon="5.556993009522557">
        <ele>325.54000000000002</ele>
        <time>2025-04-23T14:36:06Z</time>
      </trkpt>
      <trkpt lat="46.717546004801989" lon="5.556180970743299">
        <ele>328.43000000000001</ele>
        <time>2025-04-23T14:36:17Z</time>
      </trkpt>
      <trkpt lat="46.715628979727626" lon="5.555184027180076">
        <ele>324.57999999999998</ele>
        <time>2025-04-23T14:36:26Z</time>
      </trkpt>
      <trkpt lat="46.713535012677312" lon="5.55360596626997">
        <ele>315.93000000000001</ele>
        <time>2025-04-23T14:36:37Z</time>
      </trkpt>
      <trkpt lat="46.711564008146524" lon="5.552095966413617">
        <ele>308.24000000000001</ele>
        <time>2025-04-23T14:36:47Z</time>
      </trkpt>
      <trkpt lat="46.709718983620405" lon="5.550804985687137">
        <ele>301.50999999999999</ele>
        <time>2025-04-23T14:36:56Z</time>
      </trkpt>
      <trkpt lat="46.708279978483915" lon="5.549753978848457">
        <ele>296.69999999999999</ele>
        <time>2025-04-23T14:37:04Z</time>
      </trkpt>
      <trkpt lat="46.707840012386441" lon="5.5494340416044">
        <ele>293.81999999999999</ele>
        <time>2025-04-23T14:37:09Z</time>
      </trkpt>
      <trkpt lat="46.70772903598845" lon="5.549353994429112">
        <ele>290.94</ele>
        <time>2025-04-23T14:37:17Z</time>
      </trkpt>
      <trkpt lat="46.70760196633637" lon="5.549253998324275">
        <ele>288.05000000000001</ele>
        <time>2025-04-23T14:37:26Z</time>
      </trkpt>
      <trkpt lat="46.707510016858578" lon="5.548877986148">
        <ele>286.61000000000001</ele>
        <time>2025-04-23T14:37:31Z</time>
      </trkpt>
      <trkpt lat="46.707495013251901" lon="5.548846973106265">
        <ele>286.61000000000001</ele>
        <time>2025-04-23T14:37:32Z</time>
      </trkpt>
      <trkpt lat="46.707401974126697" lon="5.548830041661859">
        <ele>286.13</ele>
        <time>2025-04-23T14:37:33Z</time>
      </trkpt>
      <trkpt lat="46.707345983013511" lon="5.548819983378053">
        <ele>286.13</ele>
        <time>2025-04-23T14:37:34Z</time>
      </trkpt>
      <trkpt lat="46.707283034920692" lon="5.548807997256517">
        <ele>286.13</ele>
        <time>2025-04-23T14:37:35Z</time>
      </trkpt>
      <trkpt lat="46.707209022715688" lon="5.54872996173799">
        <ele>286.13</ele>
        <time>2025-04-23T14:37:36Z</time>
      </trkpt>
      <trkpt lat="46.707164011895657" lon="5.548661984503269">
        <ele>286.13</ele>
        <time>2025-04-23T14:37:37Z</time>
      </trkpt>
      <trkpt lat="46.707112966105342" lon="5.548585038632155">
        <ele>285.64999999999998</ele>
        <time>2025-04-23T14:37:38Z</time>
      </trkpt>
      <trkpt lat="46.707055969163775" lon="5.548499040305615">
        <ele>285.64999999999998</ele>
        <time>2025-04-23T14:37:39Z</time>
      </trkpt>
      <trkpt lat="46.706995032727718" lon="5.548408012837172">
        <ele>285.64999999999998</ele>
        <time>2025-04-23T14:37:40Z</time>
      </trkpt>
      <trkpt lat="46.70693501830101" lon="5.548301981762052">
        <ele>286.13</ele>
        <time>2025-04-23T14:37:41Z</time>
      </trkpt>
      <trkpt lat="46.706349961459637" lon="5.547023992985487">
        <ele>286.61000000000001</ele>
        <time>2025-04-23T14:37:51Z</time>
      </trkpt>
      <trkpt lat="46.705634985119104" lon="5.545507958158851">
        <ele>285.17000000000002</ele>
        <time>2025-04-23T14:38:00Z</time>
      </trkpt>
      <trkpt lat="46.704969964921474" lon="5.543511975556612">
        <ele>278.44</ele>
        <time>2025-04-23T14:38:10Z</time>
      </trkpt>
      <trkpt lat="46.70442002825439" lon="5.540526006370783">
        <ele>276.04000000000002</ele>
        <time>2025-04-23T14:38:22Z</time>
      </trkpt>
      <trkpt lat="46.703578988090158" lon="5.538375964388251">
        <ele>274.11000000000001</ele>
        <time>2025-04-23T14:38:31Z</time>
      </trkpt>
      <trkpt lat="46.702423039823771" lon="5.536623978987336">
        <ele>274.11000000000001</ele>
        <time>2025-04-23T14:38:39Z</time>
      </trkpt>
      <trkpt lat="46.699762959033251" lon="5.533947972580791">
        <ele>263.06</ele>
        <time>2025-04-23T14:38:53Z</time>
      </trkpt>
      <trkpt lat="46.697435975074768" lon="5.531613025814295">
        <ele>269.31</ele>
        <time>2025-04-23T14:39:05Z</time>
      </trkpt>
      <trkpt lat="46.695818016305566" lon="5.53012004122138">
        <ele>276.51999999999998</ele>
        <time>2025-04-23T14:39:12Z</time>
      </trkpt>
      <trkpt lat="46.693843994289637" lon="5.528485989198089">
        <ele>282.27999999999997</ele>
        <time>2025-04-23T14:39:21Z</time>
      </trkpt>
      <trkpt lat="46.691835019737482" lon="5.526931984350085">
        <ele>278.92000000000002</ele>
        <time>2025-04-23T14:39:31Z</time>
      </trkpt>
      <trkpt lat="46.689741974696517" lon="5.524829970672727">
        <ele>267.38</ele>
        <time>2025-04-23T14:39:42Z</time>
      </trkpt>
      <trkpt lat="46.688032988458872" lon="5.522158993408084">
        <ele>256.32999999999998</ele>
        <time>2025-04-23T14:39:52Z</time>
      </trkpt>
      <trkpt lat="46.686578979715705" lon="5.519796973094344">
        <ele>255.37</ele>
        <time>2025-04-23T14:40:01Z</time>
      </trkpt>
      <trkpt lat="46.685706004500389" lon="5.51836702041328">
        <ele>258.73000000000002</ele>
        <time>2025-04-23T14:40:08Z</time>
      </trkpt>
      <trkpt lat="46.684639994055033" lon="5.516602965071797">
        <ele>261.62</ele>
        <time>2025-04-23T14:40:19Z</time>
      </trkpt>
      <trkpt lat="46.683419002220035" lon="5.514625003561378">
        <ele>256.81</ele>
        <time>2025-04-23T14:40:33Z</time>
      </trkpt>
      <trkpt lat="46.683189002797008" lon="5.514241028577089">
        <ele>255.37</ele>
        <time>2025-04-23T14:40:39Z</time>
      </trkpt>
      <trkpt lat="46.68297803029418" lon="5.513887982815504">
        <ele>253.44</ele>
        <time>2025-04-23T14:40:49Z</time>
      </trkpt>
      <trkpt lat="46.682882979512215" lon="5.513695031404495">
        <ele>252.96000000000001</ele>
        <time>2025-04-23T14:40:51Z</time>
      </trkpt>
      <trkpt lat="46.682798992842436" lon="5.513424966484308">
        <ele>252.47999999999999</ele>
        <time>2025-04-23T14:40:53Z</time>
      </trkpt>
      <trkpt lat="46.682756999507546" lon="5.513149034231901">
        <ele>252</ele>
        <time>2025-04-23T14:40:55Z</time>
      </trkpt>
      <trkpt lat="46.682707965373993" lon="5.513080973178148">
        <ele>252</ele>
        <time>2025-04-23T14:40:56Z</time>
      </trkpt>
      <trkpt lat="46.682648034766316" lon="5.513068987056613">
        <ele>252</ele>
        <time>2025-04-23T14:40:57Z</time>
      </trkpt>
      <trkpt lat="46.682590031996369" lon="5.513089019805193">
        <ele>252</ele>
        <time>2025-04-23T14:40:58Z</time>
      </trkpt>
      <trkpt lat="46.682525994256139" lon="5.513109974563122">
        <ele>251.52000000000001</ele>
        <time>2025-04-23T14:40:59Z</time>
      </trkpt>
      <trkpt lat="46.682496992871165" lon="5.513120032846928">
        <ele>251.52000000000001</ele>
        <time>2025-04-23T14:41:00Z</time>
      </trkpt>
      <trkpt lat="46.682393979281187" lon="5.513095976784825">
        <ele>251.52000000000001</ele>
        <time>2025-04-23T14:41:01Z</time>
      </trkpt>
      <trkpt lat="46.682324996218085" lon="5.513079967349768">
        <ele>251.52000000000001</ele>
        <time>2025-04-23T14:41:02Z</time>
      </trkpt>
      <trkpt lat="46.682241009548306" lon="5.5130610242486">
        <ele>251.03999999999999</ele>
        <time>2025-04-23T14:41:03Z</time>
      </trkpt>
      <trkpt lat="46.682147970423102" lon="5.513010984286666">
        <ele>250.56</ele>
        <time>2025-04-23T14:41:04Z</time>
      </trkpt>
      <trkpt lat="46.681039966642857" lon="5.512317968532443">
        <ele>248.16</ele>
        <time>2025-04-23T14:41:14Z</time>
      </trkpt>
      <trkpt lat="46.679386971518397" lon="5.511306021362543">
        <ele>241.43000000000001</ele>
        <time>2025-04-23T14:41:28Z</time>
      </trkpt>
      <trkpt lat="46.678476026281714" lon="5.510734962299466">
        <ele>236.62</ele>
        <time>2025-04-23T14:41:38Z</time>
      </trkpt>
      <trkpt lat="46.677965987473726" lon="5.510432040318847">
        <ele>235.18000000000001</ele>
        <time>2025-04-23T14:41:45Z</time>
      </trkpt>
      <trkpt lat="46.677947966381907" lon="5.51015904173255">
        <ele>235.18000000000001</ele>
        <time>2025-04-23T14:41:46Z</time>
      </trkpt>
      <trkpt lat="46.67788602411747" lon="5.510035995393992">
        <ele>235.18000000000001</ele>
        <time>2025-04-23T14:41:48Z</time>
      </trkpt>
      <trkpt lat="46.677804971113801" lon="5.509929964318872">
        <ele>235.18000000000001</ele>
        <time>2025-04-23T14:41:49Z</time>
      </trkpt>
      <trkpt lat="46.677735988050699" lon="5.509901968762279">
        <ele>235.18000000000001</ele>
        <time>2025-04-23T14:41:50Z</time>
      </trkpt>
      <trkpt lat="46.677646972239017" lon="5.509913032874465">
        <ele>235.18000000000001</ele>
        <time>2025-04-23T14:41:51Z</time>
      </trkpt>
      <trkpt lat="46.677583018317819" lon="5.509923007339239">
        <ele>235.18000000000001</ele>
        <time>2025-04-23T14:41:52Z</time>
      </trkpt>
      <trkpt lat="46.677509006112814" lon="5.510071031749249">
        <ele>235.66</ele>
        <time>2025-04-23T14:41:53Z</time>
      </trkpt>
      <trkpt lat="46.677497019991279" lon="5.510093998163939">
        <ele>235.66</ele>
        <time>2025-04-23T14:41:54Z</time>
      </trkpt>
      <trkpt lat="46.677368022501469" lon="5.510330032557249">
        <ele>235.66</ele>
        <time>2025-04-23T14:41:55Z</time>
      </trkpt>
      <trkpt lat="46.677260985597968" lon="5.510351993143559">
        <ele>235.66</ele>
        <time>2025-04-23T14:41:56Z</time>
      </trkpt>
      <trkpt lat="46.67715503834188" lon="5.510384012013674">
        <ele>235.66</ele>
        <time>2025-04-23T14:41:57Z</time>
      </trkpt>
      <trkpt lat="46.67702897451818" lon="5.510422987863421">
        <ele>235.66</ele>
        <time>2025-04-23T14:41:58Z</time>
      </trkpt>
      <trkpt lat="46.675727013498545" lon="5.510795982554555">
        <ele>237.09999999999999</ele>
        <time>2025-04-23T14:42:06Z</time>
      </trkpt>
      <trkpt lat="46.67410402558744" lon="5.5112149938941">
        <ele>243.83000000000001</ele>
        <time>2025-04-23T14:42:14Z</time>
      </trkpt>
      <trkpt lat="46.672740038484335" lon="5.511038973927498">
        <ele>250.56</ele>
        <time>2025-04-23T14:42:20Z</time>
      </trkpt>
      <trkpt lat="46.67148401029408" lon="5.510210003703833">
        <ele>257.76999999999998</ele>
        <time>2025-04-23T14:42:26Z</time>
      </trkpt>
      <trkpt lat="46.669789021834731" lon="5.508207986131311">
        <ele>262.57999999999998</ele>
        <time>2025-04-23T14:42:35Z</time>
      </trkpt>
      <trkpt lat="46.667586006224155" lon="5.505570033565164">
        <ele>263.54000000000002</ele>
        <time>2025-04-23T14:42:47Z</time>
      </trkpt>
      <trkpt lat="46.66611397638917" lon="5.504398997873068">
        <ele>264.5</ele>
        <time>2025-04-23T14:42:54Z</time>
      </trkpt>
      <trkpt lat="46.664647981524467" lon="5.504225995391607">
        <ele>261.62</ele>
        <time>2025-04-23T14:43:00Z</time>
      </trkpt>
      <trkpt lat="46.663368986919522" lon="5.504825972020626">
        <ele>257.29000000000002</ele>
        <time>2025-04-23T14:43:06Z</time>
      </trkpt>
      <trkpt lat="46.661895029246807" lon="5.506275035440922">
        <ele>248.63999999999999</ele>
        <time>2025-04-23T14:43:15Z</time>
      </trkpt>
      <trkpt lat="46.661335034295917" lon="5.506836958229542">
        <ele>244.78999999999999</ele>
        <time>2025-04-23T14:43:20Z</time>
      </trkpt>
      <trkpt lat="46.661282982677221" lon="5.506889009848237">
        <ele>243.83000000000001</ele>
        <time>2025-04-23T14:43:21Z</time>
      </trkpt>
      <trkpt lat="46.660959022119641" lon="5.506954975426197">
        <ele>241.91</ele>
        <time>2025-04-23T14:43:25Z</time>
      </trkpt>
      <trkpt lat="46.660932032391429" lon="5.50698297098279">
        <ele>241.43000000000001</ele>
        <time>2025-04-23T14:43:26Z</time>
      </trkpt>
      <trkpt lat="46.660692980512977" lon="5.507253035902977">
        <ele>240.94999999999999</ele>
        <time>2025-04-23T14:43:28Z</time>
      </trkpt>
      <trkpt lat="46.660559037700295" lon="5.507299974560738">
        <ele>240.47</ele>
        <time>2025-04-23T14:43:29Z</time>
      </trkpt>
      <trkpt lat="46.660407995805144" lon="5.507350014522672">
        <ele>239.99000000000001</ele>
        <time>2025-04-23T14:43:30Z</time>
      </trkpt>
      <trkpt lat="46.658954992890358" lon="5.507851000875235">
        <ele>235.66</ele>
        <time>2025-04-23T14:43:38Z</time>
      </trkpt>
      <trkpt lat="46.658192994073033" lon="5.508042024448514">
        <ele>234.22</ele>
        <time>2025-04-23T14:43:42Z</time>
      </trkpt>
      <trkpt lat="46.657996019348502" lon="5.508070020005107">
        <ele>234.22</ele>
        <time>2025-04-23T14:43:43Z</time>
      </trkpt>
      <trkpt lat="46.6578009724617" lon="5.508067002519965">
        <ele>234.22</ele>
        <time>2025-04-23T14:43:44Z</time>
      </trkpt>
      <trkpt lat="46.657607015222311" lon="5.508020985871553">
        <ele>234.22</ele>
        <time>2025-04-23T14:43:45Z</time>
      </trkpt>
      <trkpt lat="46.657414985820651" lon="5.507975975051522">
        <ele>234.22</ele>
        <time>2025-04-23T14:43:46Z</time>
      </trkpt>
      <trkpt lat="46.657225973904133" lon="5.507884025573731">
        <ele>234.69999999999999</ele>
        <time>2025-04-23T14:43:47Z</time>
      </trkpt>
      <trkpt lat="46.657039979472756" lon="5.507786041125655">
        <ele>235.18000000000001</ele>
        <time>2025-04-23T14:43:48Z</time>
      </trkpt>
      <trkpt lat="46.656249985098839" lon="5.507450010627508">
        <ele>238.06</ele>
        <time>2025-04-23T14:43:52Z</time>
      </trkpt>
      <trkpt lat="46.65603700093925" lon="5.507449004799128">
        <ele>239.02000000000001</ele>
        <time>2025-04-23T14:43:53Z</time>
      </trkpt>
      <trkpt lat="46.655825022608042" lon="5.507469959557056">
        <ele>239.99000000000001</ele>
        <time>2025-04-23T14:43:54Z</time>
      </trkpt>
      <trkpt lat="46.655609020963311" lon="5.507490998134017">
        <ele>240.94999999999999</ele>
        <time>2025-04-23T14:43:55Z</time>
      </trkpt>
      <trkpt lat="46.6553920134902" lon="5.507564004510641">
        <ele>241.91</ele>
        <time>2025-04-23T14:43:56Z</time>
      </trkpt>
      <trkpt lat="46.655181040987372" lon="5.507656037807465">
        <ele>242.87</ele>
        <time>2025-04-23T14:43:57Z</time>
      </trkpt>
      <trkpt lat="46.654974007979035" lon="5.507768020033836">
        <ele>244.31</ele>
        <time>2025-04-23T14:43:58Z</time>
      </trkpt>
      <trkpt lat="46.654775021597743" lon="5.507912021130323">
        <ele>245.27000000000001</ele>
        <time>2025-04-23T14:43:59Z</time>
      </trkpt>
      <trkpt lat="46.654576035216451" lon="5.50805501639843">
        <ele>246.22999999999999</ele>
        <time>2025-04-23T14:44:00Z</time>
      </trkpt>
      <trkpt lat="46.65322101674974" lon="5.509027987718582">
        <ele>252.96000000000001</ele>
        <time>2025-04-23T14:44:08Z</time>
      </trkpt>
      <trkpt lat="46.65294298902154" lon="5.50919696688652">
        <ele>254.88999999999999</ele>
        <time>2025-04-23T14:44:11Z</time>
      </trkpt>
      <trkpt lat="46.652871994301677" lon="5.509243989363313">
        <ele>255.37</ele>
        <time>2025-04-23T14:44:12Z</time>
      </trkpt>
      <trkpt lat="46.652755988761783" lon="5.509224040433765">
        <ele>255.37</ele>
        <time>2025-04-23T14:44:13Z</time>
      </trkpt>
      <trkpt lat="46.652669990435243" lon="5.50915002822876">
        <ele>255.37</ele>
        <time>2025-04-23T14:44:14Z</time>
      </trkpt>
      <trkpt lat="46.65257602930069" lon="5.50917400047183">
        <ele>255.84999999999999</ele>
        <time>2025-04-23T14:44:15Z</time>
      </trkpt>
      <trkpt lat="46.652498999610543" lon="5.50919302739203">
        <ele>256.32999999999998</ele>
        <time>2025-04-23T14:44:16Z</time>
      </trkpt>
      <trkpt lat="46.652337983250618" lon="5.509291011840105">
        <ele>256.32999999999998</ele>
        <time>2025-04-23T14:44:17Z</time>
      </trkpt>
      <trkpt lat="46.652233963832259" lon="5.509218005463481">
        <ele>256.32999999999998</ele>
        <time>2025-04-23T14:44:18Z</time>
      </trkpt>
      <trkpt lat="46.652111001312733" lon="5.509138964116573">
        <ele>256.81</ele>
        <time>2025-04-23T14:44:19Z</time>
      </trkpt>
      <trkpt lat="46.650967039167881" lon="5.508431028574705">
        <ele>256.81</ele>
        <time>2025-04-23T14:44:26Z</time>
      </trkpt>
      <trkpt lat="46.64922796189785" lon="5.50732403062284">
        <ele>261.62</ele>
        <time>2025-04-23T14:44:37Z</time>
      </trkpt>
      <trkpt lat="46.647477988153696" lon="5.506017040461302">
        <ele>263.54000000000002</ele>
        <time>2025-04-23T14:44:49Z</time>
      </trkpt>
      <trkpt lat="46.645966982468963" lon="5.504837036132813">
        <ele>260.64999999999998</ele>
        <time>2025-04-23T14:45:01Z</time>
      </trkpt>
      <trkpt lat="46.644753031432629" lon="5.503883007913828">
        <ele>257.29000000000002</ele>
        <time>2025-04-23T14:45:13Z</time>
      </trkpt>
      <trkpt lat="46.644473997876048" lon="5.503663988783956">
        <ele>256.81</ele>
        <time>2025-04-23T14:45:16Z</time>
      </trkpt>
      <trkpt lat="46.644430998712778" lon="5.503377998247743">
        <ele>256.81</ele>
        <time>2025-04-23T14:45:17Z</time>
      </trkpt>
      <trkpt lat="46.644401997327805" lon="5.503339022397995">
        <ele>256.32999999999998</ele>
        <time>2025-04-23T14:45:18Z</time>
      </trkpt>
      <trkpt lat="46.644315999001265" lon="5.503278002142906">
        <ele>256.32999999999998</ele>
        <time>2025-04-23T14:45:19Z</time>
      </trkpt>
      <trkpt lat="46.644234023988247" lon="5.503254029899836">
        <ele>256.81</ele>
        <time>2025-04-23T14:45:20Z</time>
      </trkpt>
      <trkpt lat="46.644216002896428" lon="5.503249000757933">
        <ele>256.32999999999998</ele>
        <time>2025-04-23T14:45:21Z</time>
      </trkpt>
      <trkpt lat="46.644019028171897" lon="5.503302980214357">
        <ele>256.32999999999998</ele>
        <time>2025-04-23T14:45:22Z</time>
      </trkpt>
      <trkpt lat="46.643932024016976" lon="5.503229973837733">
        <ele>256.32999999999998</ele>
        <time>2025-04-23T14:45:23Z</time>
      </trkpt>
      <trkpt lat="46.643839990720153" lon="5.503153027966619">
        <ele>256.32999999999998</ele>
        <time>2025-04-23T14:45:24Z</time>
      </trkpt>
      <trkpt lat="46.643745023757219" lon="5.50306904129684">
        <ele>256.32999999999998</ele>
        <time>2025-04-23T14:45:25Z</time>
      </trkpt>
      <trkpt lat="46.643651984632015" lon="5.50298698246479">
        <ele>256.32999999999998</ele>
        <time>2025-04-23T14:45:26Z</time>
      </trkpt>
      <trkpt lat="46.642741039395332" lon="5.502266976982355">
        <ele>256.32999999999998</ele>
        <time>2025-04-23T14:45:37Z</time>
      </trkpt>
      <trkpt lat="46.641519963741302" lon="5.501302974298596">
        <ele>257.76999999999998</ele>
        <time>2025-04-23T14:45:52Z</time>
      </trkpt>
      <trkpt lat="46.641433965414762" lon="5.501233991235495">
        <ele>257.76999999999998</ele>
        <time>2025-04-23T14:45:53Z</time>
      </trkpt>
      <trkpt lat="46.640263013541698" lon="5.500262025743723">
        <ele>257.29000000000002</ele>
        <time>2025-04-23T14:46:06Z</time>
      </trkpt>
      <trkpt lat="46.639989009127021" lon="5.499988021329045">
        <ele>257.29000000000002</ele>
        <time>2025-04-23T14:46:09Z</time>
      </trkpt>
      <trkpt lat="46.639908039942384" lon="5.499906968325377">
        <ele>257.76999999999998</ele>
        <time>2025-04-23T14:46:10Z</time>
      </trkpt>
      <trkpt lat="46.638918975368142" lon="5.498868031427264">
        <ele>257.29000000000002</ele>
        <time>2025-04-23T14:46:20Z</time>
      </trkpt>
      <trkpt lat="46.637705024331808" lon="5.497596999630332">
        <ele>255.37</ele>
        <time>2025-04-23T14:46:28Z</time>
      </trkpt>
      <trkpt lat="46.636493001133204" lon="5.496371984481812">
        <ele>255.84999999999999</ele>
        <time>2025-04-23T14:46:36Z</time>
      </trkpt>
      <trkpt lat="46.634993981570005" lon="5.494786966592073">
        <ele>257.76999999999998</ele>
        <time>2025-04-23T14:46:46Z</time>
      </trkpt>
      <trkpt lat="46.633494039997458" lon="5.493016038089991">
        <ele>257.29000000000002</ele>
        <time>2025-04-23T14:46:56Z</time>
      </trkpt>
      <trkpt lat="46.632387964054942" lon="5.492110960185528">
        <ele>258.73000000000002</ele>
        <time>2025-04-23T14:47:03Z</time>
      </trkpt>
      <trkpt lat="46.630430035293102" lon="5.490943025797606">
        <ele>254.41</ele>
        <time>2025-04-23T14:47:14Z</time>
      </trkpt>
      <trkpt lat="46.628670003265142" lon="5.489942980930209">
        <ele>253.44</ele>
        <time>2025-04-23T14:47:24Z</time>
      </trkpt>
      <trkpt lat="46.626518033444881" lon="5.488717965781689">
        <ele>254.41</ele>
        <time>2025-04-23T14:47:38Z</time>
      </trkpt>
      <trkpt lat="46.624578963965178" lon="5.487524969503284">
        <ele>253.44</ele>
        <time>2025-04-23T14:47:50Z</time>
      </trkpt>
      <trkpt lat="46.622987994924188" lon="5.486172968521714">
        <ele>247.19999999999999</ele>
        <time>2025-04-23T14:47:59Z</time>
      </trkpt>
      <trkpt lat="46.620915988460183" lon="5.484176985919476">
        <ele>236.62</ele>
        <time>2025-04-23T14:48:12Z</time>
      </trkpt>
      <trkpt lat="46.619429038837552" lon="5.482717026025057">
        <ele>233.74000000000001</ele>
        <time>2025-04-23T14:48:21Z</time>
      </trkpt>
      <trkpt lat="46.617054026573896" lon="5.480377972126007">
        <ele>231.33000000000001</ele>
        <time>2025-04-23T14:48:35Z</time>
      </trkpt>
      <trkpt lat="46.615153010934591" lon="5.478520961478353">
        <ele>230.37</ele>
        <time>2025-04-23T14:48:48Z</time>
      </trkpt>
      <trkpt lat="46.613270016387105" lon="5.476871989667416">
        <ele>231.33000000000001</ele>
        <time>2025-04-23T14:49:01Z</time>
      </trkpt>
      <trkpt lat="46.611588019877672" lon="5.47550699673593">
        <ele>228.93000000000001</ele>
        <time>2025-04-23T14:49:12Z</time>
      </trkpt>
      <trkpt lat="46.610527960583568" lon="5.474283993244171">
        <ele>228.44999999999999</ele>
        <time>2025-04-23T14:49:21Z</time>
      </trkpt>
      <trkpt lat="46.609276039525867" lon="5.472828978672624">
        <ele>225.56999999999999</ele>
        <time>2025-04-23T14:49:32Z</time>
      </trkpt>
      <trkpt lat="46.607754975557327" lon="5.470947995781899">
        <ele>218.36000000000001</ele>
        <time>2025-04-23T14:49:42Z</time>
      </trkpt>
      <trkpt lat="46.60638302564621" lon="5.469133984297514">
        <ele>212.59</ele>
        <time>2025-04-23T14:49:51Z</time>
      </trkpt>
      <trkpt lat="46.604630034416914" lon="5.466961981728673">
        <ele>207.78</ele>
        <time>2025-04-23T14:50:03Z</time>
      </trkpt>
      <trkpt lat="46.602854998782277" lon="5.464760977774859">
        <ele>208.74000000000001</ele>
        <time>2025-04-23T14:50:15Z</time>
      </trkpt>
      <trkpt lat="46.601181970909238" lon="5.462644966319203">
        <ele>207.78</ele>
        <time>2025-04-23T14:50:27Z</time>
      </trkpt>
      <trkpt lat="46.599941030144691" lon="5.461081992834806">
        <ele>210.66999999999999</ele>
        <time>2025-04-23T14:50:37Z</time>
      </trkpt>
      <trkpt lat="46.599335018545389" lon="5.460345977917314">
        <ele>212.59</ele>
        <time>2025-04-23T14:50:45Z</time>
      </trkpt>
      <trkpt lat="46.598289040848613" lon="5.459294971078634">
        <ele>213.06999999999999</ele>
        <time>2025-04-23T14:50:59Z</time>
      </trkpt>
      <trkpt lat="46.597351022064686" lon="5.458276988938451">
        <ele>212.59</ele>
        <time>2025-04-23T14:51:10Z</time>
      </trkpt>
      <trkpt lat="46.596277970820665" lon="5.457084998488426">
        <ele>213.55000000000001</ele>
        <time>2025-04-23T14:51:21Z</time>
      </trkpt>
      <trkpt lat="46.594808958470821" lon="5.455292025581002">
        <ele>214.99000000000001</ele>
        <time>2025-04-23T14:51:33Z</time>
      </trkpt>
      <trkpt lat="46.592986984178424" lon="5.453028995543718">
        <ele>211.15000000000001</ele>
        <time>2025-04-23T14:51:47Z</time>
      </trkpt>
      <trkpt lat="46.591017991304398" lon="5.450548036023974">
        <ele>213.06999999999999</ele>
        <time>2025-04-23T14:52:00Z</time>
      </trkpt>
      <trkpt lat="46.588752027601004" lon="5.447686035186052">
        <ele>220.75999999999999</ele>
        <time>2025-04-23T14:52:14Z</time>
      </trkpt>
      <trkpt lat="46.587484013289213" lon="5.446380972862244">
        <ele>220.28</ele>
        <time>2025-04-23T14:52:22Z</time>
      </trkpt>
      <trkpt lat="46.584615977481008" lon="5.444483980536461">
        <ele>220.75999999999999</ele>
        <time>2025-04-23T14:52:39Z</time>
      </trkpt>
      <trkpt lat="46.583097008988261" lon="5.44349298812449">
        <ele>220.75999999999999</ele>
        <time>2025-04-23T14:52:49Z</time>
      </trkpt>
      <trkpt lat="46.58088200725615" lon="5.442061023786664">
        <ele>223.63999999999999</ele>
        <time>2025-04-23T14:53:03Z</time>
      </trkpt>
      <trkpt lat="46.579132033511996" lon="5.440952014178038">
        <ele>231.33000000000001</ele>
        <time>2025-04-23T14:53:14Z</time>
      </trkpt>
      <trkpt lat="46.578171970322728" lon="5.440328987315297">
        <ele>236.13999999999999</ele>
        <time>2025-04-23T14:53:21Z</time>
      </trkpt>
      <trkpt lat="46.576887024566531" lon="5.439417958259583">
        <ele>239.99000000000001</ele>
        <time>2025-04-23T14:53:32Z</time>
      </trkpt>
      <trkpt lat="46.576317977160215" lon="5.438709016889334">
        <ele>243.34999999999999</ele>
        <time>2025-04-23T14:53:40Z</time>
      </trkpt>
      <trkpt lat="46.576042966917157" lon="5.43831598944962">
        <ele>247.19999999999999</ele>
        <time>2025-04-23T14:53:46Z</time>
      </trkpt>
      <trkpt lat="46.5758749935776" lon="5.438050031661987">
        <ele>248.63999999999999</ele>
        <time>2025-04-23T14:53:50Z</time>
      </trkpt>
      <trkpt lat="46.575830988585949" lon="5.437976019456983">
        <ele>249.12</ele>
        <time>2025-04-23T14:53:51Z</time>
      </trkpt>
      <trkpt lat="46.575626973062754" lon="5.437704026699066">
        <ele>250.56</ele>
        <time>2025-04-23T14:53:55Z</time>
      </trkpt>
      <trkpt lat="46.575522031635046" lon="5.43754200451076">
        <ele>250.56</ele>
        <time>2025-04-23T14:53:57Z</time>
      </trkpt>
      <trkpt lat="46.575151970610023" lon="5.436892993748188">
        <ele>250.56</ele>
        <time>2025-04-23T14:54:06Z</time>
      </trkpt>
      <trkpt lat="46.575074018910527" lon="5.436769025400281">
        <ele>251.03999999999999</ele>
        <time>2025-04-23T14:54:08Z</time>
      </trkpt>
      <trkpt lat="46.574880983680487" lon="5.436441963538528">
        <ele>251.52000000000001</ele>
        <time>2025-04-23T14:54:13Z</time>
      </trkpt>
      <trkpt lat="46.574838990345597" lon="5.436375997960568">
        <ele>251.52000000000001</ele>
        <time>2025-04-23T14:54:14Z</time>
      </trkpt>
      <trkpt lat="46.5744140278548" lon="5.435658004134893">
        <ele>251.52000000000001</ele>
        <time>2025-04-23T14:54:24Z</time>
      </trkpt>
      <trkpt lat="46.574369017034769" lon="5.435566976666451">
        <ele>252</ele>
        <time>2025-04-23T14:54:25Z</time>
      </trkpt>
      <trkpt lat="46.574324006214738" lon="5.435478966683149">
        <ele>252</ele>
        <time>2025-04-23T14:54:26Z</time>
      </trkpt>
      <trkpt lat="46.574280001223087" lon="5.43539397418499">
        <ele>252</ele>
        <time>2025-04-23T14:54:27Z</time>
      </trkpt>
      <trkpt lat="46.574232978746295" lon="5.435305964201689">
        <ele>252</ele>
        <time>2025-04-23T14:54:28Z</time>
      </trkpt>
      <trkpt lat="46.574140023440123" lon="5.435127010568976">
        <ele>253.44</ele>
        <time>2025-04-23T14:54:30Z</time>
      </trkpt>
      <trkpt lat="46.573954029008746" lon="5.434771031141281">
        <ele>254.88999999999999</ele>
        <time>2025-04-23T14:54:34Z</time>
      </trkpt>
      <trkpt lat="46.573731992393732" lon="5.434299968183041">
        <ele>252.96000000000001</ele>
        <time>2025-04-23T14:54:42Z</time>
      </trkpt>
      <trkpt lat="46.573695028200746" lon="5.434215981513262">
        <ele>252.47999999999999</ele>
        <time>2025-04-23T14:54:46Z</time>
      </trkpt>
      <trkpt lat="46.573692010715604" lon="5.434209024533629">
        <ele>252.47999999999999</ele>
        <time>2025-04-23T14:54:47Z</time>
      </trkpt>
      <trkpt lat="46.573676001280546" lon="5.434171976521611">
        <ele>252</ele>
        <time>2025-04-23T14:54:50Z</time>
      </trkpt>
      <trkpt lat="46.573676001280546" lon="5.434171976521611">
        <ele>249.59999999999999</ele>
        <time>2025-04-23T14:55:00Z</time>
      </trkpt>
      <trkpt lat="46.573676001280546" lon="5.434171976521611">
        <ele>247.19999999999999</ele>
        <time>2025-04-23T14:55:15Z</time>
      </trkpt>
      <trkpt lat="46.573676001280546" lon="5.434171976521611">
        <ele>246.72</ele>
        <time>2025-04-23T14:55:34Z</time>
      </trkpt>
      <trkpt lat="46.573644988238811" lon="5.434099975973368">
        <ele>245.75</ele>
        <time>2025-04-23T14:55:39Z</time>
      </trkpt>
      <trkpt lat="46.573639959096909" lon="5.434088995680213">
        <ele>245.75</ele>
        <time>2025-04-23T14:55:40Z</time>
      </trkpt>
      <trkpt lat="46.573639959096909" lon="5.434088995680213">
        <ele>245.75</ele>
        <time>2025-04-23T14:55:42Z</time>
      </trkpt>
      <trkpt lat="46.573639959096909" lon="5.434088995680213">
        <ele>245.27000000000001</ele>
        <time>2025-04-23T14:55:43Z</time>
      </trkpt>
      <trkpt lat="46.573639959096909" lon="5.434088995680213">
        <ele>244.31</ele>
        <time>2025-04-23T14:55:56Z</time>
      </trkpt>
      <trkpt lat="46.573612969368696" lon="5.434027975425124">
        <ele>244.31</ele>
        <time>2025-04-23T14:56:00Z</time>
      </trkpt>
      <trkpt lat="46.573601989075541" lon="5.434004003182054">
        <ele>244.31</ele>
        <time>2025-04-23T14:56:01Z</time>
      </trkpt>
      <trkpt lat="46.573588997125626" lon="5.4339739959687">
        <ele>243.83000000000001</ele>
        <time>2025-04-23T14:56:02Z</time>
      </trkpt>
      <trkpt lat="46.57357701100409" lon="5.433946000412107">
        <ele>243.83000000000001</ele>
        <time>2025-04-23T14:56:03Z</time>
      </trkpt>
      <trkpt lat="46.57357701100409" lon="5.433946000412107">
        <ele>243.34999999999999</ele>
        <time>2025-04-23T14:56:04Z</time>
      </trkpt>
      <trkpt lat="46.57355597242713" lon="5.433897972106934">
        <ele>242.87</ele>
        <time>2025-04-23T14:56:16Z</time>
      </trkpt>
      <trkpt lat="46.573521019890904" lon="5.433814991265535">
        <ele>242.38999999999999</ele>
        <time>2025-04-23T14:56:21Z</time>
      </trkpt>
      <trkpt lat="46.573502998799086" lon="5.433774003759027">
        <ele>242.87</ele>
        <time>2025-04-23T14:56:22Z</time>
      </trkpt>
      <trkpt lat="46.573473997414112" lon="5.433710971847177">
        <ele>242.87</ele>
        <time>2025-04-23T14:56:23Z</time>
      </trkpt>
      <trkpt lat="46.573055991902947" lon="5.432840008288622">
        <ele>242.87</ele>
        <time>2025-04-23T14:56:30Z</time>
      </trkpt>
      <trkpt lat="46.572378985583782" lon="5.431130016222596">
        <ele>242.87</ele>
        <time>2025-04-23T14:56:38Z</time>
      </trkpt>
      <trkpt lat="46.571405008435249" lon="5.428478987887502">
        <ele>246.22999999999999</ele>
        <time>2025-04-23T14:56:48Z</time>
      </trkpt>
      <trkpt lat="46.569848991930485" lon="5.424508983269334">
        <ele>252.96000000000001</ele>
        <time>2025-04-23T14:57:02Z</time>
      </trkpt>
      <trkpt lat="46.568631017580628" lon="5.42179299518466">
        <ele>256.32999999999998</ele>
        <time>2025-04-23T14:57:12Z</time>
      </trkpt>
      <trkpt lat="46.566319037228823" lon="5.417386963963509">
        <ele>241.43000000000001</ele>
        <time>2025-04-23T14:57:29Z</time>
      </trkpt>
      <trkpt lat="46.564738964661956" lon="5.414369981735945">
        <ele>235.18000000000001</ele>
        <time>2025-04-23T14:57:41Z</time>
      </trkpt>
      <trkpt lat="46.563425017520785" lon="5.412558987736702">
        <ele>237.09999999999999</ele>
        <time>2025-04-23T14:57:49Z</time>
      </trkpt>
      <trkpt lat="46.563213961198926" lon="5.412396965548396">
        <ele>237.09999999999999</ele>
        <time>2025-04-23T14:57:50Z</time>
      </trkpt>
      <trkpt lat="46.561340019106865" lon="5.411058040335774">
        <ele>237.58000000000001</ele>
        <time>2025-04-23T14:57:59Z</time>
      </trkpt>
      <trkpt lat="46.559148989617825" lon="5.409292979165912">
        <ele>241.43000000000001</ele>
        <time>2025-04-23T14:58:11Z</time>
      </trkpt>
      <trkpt lat="46.557089975103736" lon="5.407867971807718">
        <ele>242.87</ele>
        <time>2025-04-23T14:58:22Z</time>
      </trkpt>
      <trkpt lat="46.555577963590622" lon="5.406787963584065">
        <ele>239.02000000000001</ele>
        <time>2025-04-23T14:58:30Z</time>
      </trkpt>
      <trkpt lat="46.554115992039442" lon="5.405149972066283">
        <ele>232.78</ele>
        <time>2025-04-23T14:58:38Z</time>
      </trkpt>
      <trkpt lat="46.552577996626496" lon="5.403936021029949">
        <ele>237.09999999999999</ele>
        <time>2025-04-23T14:58:45Z</time>
      </trkpt>
      <trkpt lat="46.550379004329443" lon="5.403048964217305">
        <ele>252.47999999999999</ele>
        <time>2025-04-23T14:58:54Z</time>
      </trkpt>
      <trkpt lat="46.548170959576964" lon="5.401673996821046">
        <ele>264.01999999999998</ele>
        <time>2025-04-23T14:59:03Z</time>
      </trkpt>
      <trkpt lat="46.546260975301266" lon="5.400286037474871">
        <ele>267.86000000000001</ele>
        <time>2025-04-23T14:59:11Z</time>
      </trkpt>
      <trkpt lat="46.543552028015256" lon="5.398598005995154">
        <ele>265.94</ele>
        <time>2025-04-23T14:59:23Z</time>
      </trkpt>
      <trkpt lat="46.541395029053092" lon="5.397737016901374">
        <ele>261.62</ele>
        <time>2025-04-23T14:59:33Z</time>
      </trkpt>
      <trkpt lat="46.538631012663245" lon="5.397239970043302">
        <ele>258.25</ele>
        <time>2025-04-23T14:59:46Z</time>
      </trkpt>
      <trkpt lat="46.534393038600683" lon="5.396722974255681">
        <ele>252</ele>
        <time>2025-04-23T15:00:05Z</time>
      </trkpt>
      <trkpt lat="46.531180003657937" lon="5.396300023421645">
        <ele>245.75</ele>
        <time>2025-04-23T15:00:19Z</time>
      </trkpt>
      <trkpt lat="46.528770038858056" lon="5.395842958241701">
        <ele>243.34999999999999</ele>
        <time>2025-04-23T15:00:30Z</time>
      </trkpt>
      <trkpt lat="46.527107991278172" lon="5.394866969436407">
        <ele>241.43000000000001</ele>
        <time>2025-04-23T15:00:38Z</time>
      </trkpt>
      <trkpt lat="46.525704022496939" lon="5.393233001232147">
        <ele>241.91</ele>
        <time>2025-04-23T15:00:46Z</time>
      </trkpt>
      <trkpt lat="46.523695969954133" lon="5.390491029247642">
        <ele>247.19999999999999</ele>
        <time>2025-04-23T15:00:58Z</time>
      </trkpt>
      <trkpt lat="46.52205403894186" lon="5.389228966087103">
        <ele>249.12</ele>
        <time>2025-04-23T15:01:06Z</time>
      </trkpt>
      <trkpt lat="46.520234998315573" lon="5.388730997219682">
        <ele>251.52000000000001</ele>
        <time>2025-04-23T15:01:14Z</time>
      </trkpt>
      <trkpt lat="46.517471987754107" lon="5.388600993901491">
        <ele>254.41</ele>
        <time>2025-04-23T15:01:26Z</time>
      </trkpt>
      <trkpt lat="46.515191020444036" lon="5.388431008905172">
        <ele>258.73000000000002</ele>
        <time>2025-04-23T15:01:36Z</time>
      </trkpt>
      <trkpt lat="46.511824009940028" lon="5.388233028352261">
        <ele>260.64999999999998</ele>
        <time>2025-04-23T15:01:51Z</time>
      </trkpt>
      <trkpt lat="46.508848015218973" lon="5.387633973732591">
        <ele>257.29000000000002</ele>
        <time>2025-04-23T15:02:04Z</time>
      </trkpt>
      <trkpt lat="46.505819968879223" lon="5.386928971856833">
        <ele>258.25</ele>
        <time>2025-04-23T15:02:18Z</time>
      </trkpt>
      <trkpt lat="46.50379297323525" lon="5.385972009971738">
        <ele>258.73000000000002</ele>
        <time>2025-04-23T15:02:28Z</time>
      </trkpt>
      <trkpt lat="46.501850970089436" lon="5.384509032592177">
        <ele>259.69</ele>
        <time>2025-04-23T15:02:38Z</time>
      </trkpt>
      <trkpt lat="46.500378018245101" lon="5.382821001112461">
        <ele>262.10000000000002</ele>
        <time>2025-04-23T15:02:46Z</time>
      </trkpt>
      <trkpt lat="46.498454958200455" lon="5.380618991330266">
        <ele>261.62</ele>
        <time>2025-04-23T15:02:56Z</time>
      </trkpt>
      <trkpt lat="46.496587973088026" lon="5.379108991473913">
        <ele>260.17000000000002</ele>
        <time>2025-04-23T15:03:04Z</time>
      </trkpt>
      <trkpt lat="46.494609005749226" lon="5.378099977970123">
        <ele>257.29000000000002</ele>
        <time>2025-04-23T15:03:12Z</time>
      </trkpt>
      <trkpt lat="46.492431974038482" lon="5.37736002355814">
        <ele>252.47999999999999</ele>
        <time>2025-04-23T15:03:21Z</time>
      </trkpt>
      <trkpt lat="46.490117982029915" lon="5.376111036166549">
        <ele>248.16</ele>
        <time>2025-04-23T15:03:31Z</time>
      </trkpt>
      <trkpt lat="46.488192994147539" lon="5.374342035502195">
        <ele>246.22999999999999</ele>
        <time>2025-04-23T15:03:40Z</time>
      </trkpt>
      <trkpt lat="46.486508985981345" lon="5.372430961579084">
        <ele>249.59999999999999</ele>
        <time>2025-04-23T15:03:49Z</time>
      </trkpt>
      <trkpt lat="46.484726993367076" lon="5.370209002867341">
        <ele>255.37</ele>
        <time>2025-04-23T15:04:00Z</time>
      </trkpt>
      <trkpt lat="46.482923962175846" lon="5.368019985035062">
        <ele>258.73000000000002</ele>
        <time>2025-04-23T15:04:11Z</time>
      </trkpt>
      <trkpt lat="46.479779994115233" lon="5.364360027015209">
        <ele>252.47999999999999</ele>
        <time>2025-04-23T15:04:29Z</time>
      </trkpt>
      <trkpt lat="46.478393962606788" lon="5.363239031285048">
        <ele>253.93000000000001</ele>
        <time>2025-04-23T15:04:36Z</time>
      </trkpt>
      <trkpt lat="46.476791007444263" lon="5.36266696639359">
        <ele>258.25</ele>
        <time>2025-04-23T15:04:43Z</time>
      </trkpt>
      <trkpt lat="46.474417001008987" lon="5.36180698312819">
        <ele>265.45999999999998</ele>
        <time>2025-04-23T15:04:54Z</time>
      </trkpt>
      <trkpt lat="46.471922965720296" lon="5.360717000439763">
        <ele>266.42000000000002</ele>
        <time>2025-04-23T15:05:06Z</time>
      </trkpt>
      <trkpt lat="46.470385976135731" lon="5.360045023262501">
        <ele>264.98000000000002</ele>
        <time>2025-04-23T15:05:15Z</time>
      </trkpt>
      <trkpt lat="46.470064027234912" lon="5.359900016337633">
        <ele>265.45999999999998</ele>
        <time>2025-04-23T15:05:18Z</time>
      </trkpt>
      <trkpt lat="46.469981968402863" lon="5.359859028831124">
        <ele>265.45999999999998</ele>
        <time>2025-04-23T15:05:19Z</time>
      </trkpt>
      <trkpt lat="46.469893958419561" lon="5.359654007479549">
        <ele>265.94</ele>
        <time>2025-04-23T15:05:20Z</time>
      </trkpt>
      <trkpt lat="46.46980301477015" lon="5.359576977789402">
        <ele>265.94</ele>
        <time>2025-04-23T15:05:22Z</time>
      </trkpt>
      <trkpt lat="46.469722967594862" lon="5.359530039131641">
        <ele>265.94</ele>
        <time>2025-04-23T15:05:23Z</time>
      </trkpt>
      <trkpt lat="46.469641998410225" lon="5.359545964747667">
        <ele>266.42000000000002</ele>
        <time>2025-04-23T15:05:24Z</time>
      </trkpt>
      <trkpt lat="46.469421973451972" lon="5.359612014144659">
        <ele>265.94</ele>
        <time>2025-04-23T15:05:26Z</time>
      </trkpt>
      <trkpt lat="46.469312002882361" lon="5.359579995274544">
        <ele>265.45999999999998</ele>
        <time>2025-04-23T15:05:27Z</time>
      </trkpt>
      <trkpt lat="46.468296032398939" lon="5.359135000035167">
        <ele>264.01999999999998</ele>
        <time>2025-04-23T15:05:36Z</time>
      </trkpt>
      <trkpt lat="46.467027012258768" lon="5.358589002862573">
        <ele>258.25</ele>
        <time>2025-04-23T15:05:47Z</time>
      </trkpt>
      <trkpt lat="46.466036019846797" lon="5.35815498791635">
        <ele>253.93000000000001</ele>
        <time>2025-04-23T15:05:55Z</time>
      </trkpt>
      <trkpt lat="46.464681001380086" lon="5.357695994898677">
        <ele>256.32999999999998</ele>
        <time>2025-04-23T15:06:03Z</time>
      </trkpt>
      <trkpt lat="46.46249801851809" lon="5.357445040717721">
        <ele>254.41</ele>
        <time>2025-04-23T15:06:13Z</time>
      </trkpt>
      <trkpt lat="46.461232015863061" lon="5.356719000265002">
        <ele>252</ele>
        <time>2025-04-23T15:06:19Z</time>
      </trkpt>
      <trkpt lat="46.459595030173659" lon="5.355507982894778">
        <ele>253.93000000000001</ele>
        <time>2025-04-23T15:06:28Z</time>
      </trkpt>
      <trkpt lat="46.458672014996409" lon="5.354817984625697">
        <ele>254.88999999999999</ele>
        <time>2025-04-23T15:06:35Z</time>
      </trkpt>
      <trkpt lat="46.457723015919328" lon="5.354053974151611">
        <ele>249.59999999999999</ele>
        <time>2025-04-23T15:06:44Z</time>
      </trkpt>
      <trkpt lat="46.456681983545423" lon="5.353027023375034">
        <ele>246.22999999999999</ele>
        <time>2025-04-23T15:06:53Z</time>
      </trkpt>
      <trkpt lat="46.455483036115766" lon="5.351478969678283">
        <ele>238.53999999999999</ele>
        <time>2025-04-23T15:07:03Z</time>
      </trkpt>
      <trkpt lat="46.454405039548874" lon="5.349981039762497">
        <ele>233.74000000000001</ele>
        <time>2025-04-23T15:07:13Z</time>
      </trkpt>
      <trkpt lat="46.454059034585953" lon="5.349613996222615">
        <ele>233.25999999999999</ele>
        <time>2025-04-23T15:07:17Z</time>
      </trkpt>
      <trkpt lat="46.454047970473766" lon="5.349453985691071">
        <ele>232.78</ele>
        <time>2025-04-23T15:07:18Z</time>
      </trkpt>
      <trkpt lat="46.454039001837373" lon="5.349310990422964">
        <ele>232.78</ele>
        <time>2025-04-23T15:07:19Z</time>
      </trkpt>
      <trkpt lat="46.453983010724187" lon="5.349246030673385">
        <ele>232.78</ele>
        <time>2025-04-23T15:07:20Z</time>
      </trkpt>
      <trkpt lat="46.453929031267762" lon="5.349182998761535">
        <ele>232.30000000000001</ele>
        <time>2025-04-23T15:07:21Z</time>
      </trkpt>
      <trkpt lat="46.453817971050739" lon="5.349238989874721">
        <ele>232.30000000000001</ele>
        <time>2025-04-23T15:07:22Z</time>
      </trkpt>
      <trkpt lat="46.453801039606333" lon="5.349247958511114">
        <ele>232.78</ele>
        <time>2025-04-23T15:07:23Z</time>
      </trkpt>
      <trkpt lat="46.45362501963973" lon="5.349356001242995">
        <ele>232.78</ele>
        <time>2025-04-23T15:07:24Z</time>
      </trkpt>
      <trkpt lat="46.453532986342907" lon="5.349314007908106">
        <ele>232.30000000000001</ele>
        <time>2025-04-23T15:07:25Z</time>
      </trkpt>
      <trkpt lat="46.453423015773296" lon="5.349263967946172">
        <ele>232.30000000000001</ele>
        <time>2025-04-23T15:07:26Z</time>
      </trkpt>
      <trkpt lat="46.45330298691988" lon="5.349207976832986">
        <ele>232.30000000000001</ele>
        <time>2025-04-23T15:07:27Z</time>
      </trkpt>
      <trkpt lat="46.452477034181356" lon="5.348856020718813">
        <ele>231.33000000000001</ele>
        <time>2025-04-23T15:07:34Z</time>
      </trkpt>
      <trkpt lat="46.452402016147971" lon="5.348826013505459">
        <ele>230.84999999999999</ele>
        <time>2025-04-23T15:07:35Z</time>
      </trkpt>
      <trkpt lat="46.452232031151652" lon="5.348761975765228">
        <ele>230.37</ele>
        <time>2025-04-23T15:07:39Z</time>
      </trkpt>
      <trkpt lat="46.452208980917931" lon="5.348755018785596">
        <ele>230.37</ele>
        <time>2025-04-23T15:07:40Z</time>
      </trkpt>
      <trkpt lat="46.452190037816763" lon="5.348748983815312">
        <ele>230.84999999999999</ele>
        <time>2025-04-23T15:07:41Z</time>
      </trkpt>
      <trkpt lat="46.452198000624776" lon="5.348752001300454">
        <ele>230.84999999999999</ele>
        <time>2025-04-23T15:07:43Z</time>
      </trkpt>
      <trkpt lat="46.452276958152652" lon="5.348774967715144">
        <ele>231.33000000000001</ele>
        <time>2025-04-23T15:07:44Z</time>
      </trkpt>
      <trkpt lat="46.452276958152652" lon="5.348774967715144">
        <ele>231.81</ele>
        <time>2025-04-23T15:07:45Z</time>
      </trkpt>
      <trkpt lat="46.452331021428108" lon="5.348797012120485">
        <ele>231.81</ele>
        <time>2025-04-23T15:07:46Z</time>
      </trkpt>
      <trkpt lat="46.452404027804732" lon="5.348826013505459">
        <ele>232.30000000000001</ele>
        <time>2025-04-23T15:07:47Z</time>
      </trkpt>
      <trkpt lat="46.452488014474511" lon="5.348859960213304">
        <ele>232.30000000000001</ele>
        <time>2025-04-23T15:07:48Z</time>
      </trkpt>
      <trkpt lat="46.453047003597021" lon="5.349090965464711">
        <ele>233.74000000000001</ele>
        <time>2025-04-23T15:07:53Z</time>
      </trkpt>
      <trkpt lat="46.453563999384642" lon="5.349328005686402">
        <ele>234.22</ele>
        <time>2025-04-23T15:07:59Z</time>
      </trkpt>
      <trkpt lat="46.453642034903169" lon="5.349363964051008">
        <ele>234.22</ele>
        <time>2025-04-23T15:08:00Z</time>
      </trkpt>
      <trkpt lat="46.453762985765934" lon="5.349574014544487">
        <ele>234.69999999999999</ele>
        <time>2025-04-23T15:08:02Z</time>
      </trkpt>
      <trkpt lat="46.4538199827075" lon="5.349631011486054">
        <ele>235.18000000000001</ele>
        <time>2025-04-23T15:08:03Z</time>
      </trkpt>
      <trkpt lat="46.453902963548899" lon="5.349658001214266">
        <ele>235.66</ele>
        <time>2025-04-23T15:08:04Z</time>
      </trkpt>
      <trkpt lat="46.45396800711751" lon="5.34962497651577">
        <ele>236.62</ele>
        <time>2025-04-23T15:08:05Z</time>
      </trkpt>
      <trkpt lat="46.454045036807656" lon="5.34949597902596">
        <ele>236.62</ele>
        <time>2025-04-23T15:08:06Z</time>
      </trkpt>
      <trkpt lat="46.454052999615669" lon="5.349395982921124">
        <ele>237.09999999999999</ele>
        <time>2025-04-23T15:08:07Z</time>
      </trkpt>
      <trkpt lat="46.454001031816006" lon="5.349266985431314">
        <ele>237.09999999999999</ele>
        <time>2025-04-23T15:08:08Z</time>
      </trkpt>
      <trkpt lat="46.453931964933872" lon="5.349147040396929">
        <ele>237.58000000000001</ele>
        <time>2025-04-23T15:08:09Z</time>
      </trkpt>
      <trkpt lat="46.453940011560917" lon="5.349014019593597">
        <ele>237.58000000000001</ele>
        <time>2025-04-23T15:08:10Z</time>
      </trkpt>
      <trkpt lat="46.45394898019731" lon="5.348868006840348">
        <ele>237.58000000000001</ele>
        <time>2025-04-23T15:08:11Z</time>
      </trkpt>
      <trkpt lat="46.453917967155576" lon="5.348724005743861">
        <ele>237.09999999999999</ele>
        <time>2025-04-23T15:08:12Z</time>
      </trkpt>
      <trkpt lat="46.453874967992306" lon="5.348573969677091">
        <ele>237.09999999999999</ele>
        <time>2025-04-23T15:08:13Z</time>
      </trkpt>
      <trkpt lat="46.453810008242726" lon="5.348437009379268">
        <ele>236.62</ele>
        <time>2025-04-23T15:08:14Z</time>
      </trkpt>
      <trkpt lat="46.452930998057127" lon="5.347257005050778">
        <ele>236.13999999999999</ele>
        <time>2025-04-23T15:08:24Z</time>
      </trkpt>
      <trkpt lat="46.452061040326953" lon="5.346539011225104">
        <ele>236.62</ele>
        <time>2025-04-23T15:08:33Z</time>
      </trkpt>
      <trkpt lat="46.450781961902976" lon="5.345753040164709">
        <ele>239.02000000000001</ele>
        <time>2025-04-23T15:08:44Z</time>
      </trkpt>
      <trkpt lat="46.449248995631933" lon="5.344813009724021">
        <ele>239.50999999999999</ele>
        <time>2025-04-23T15:08:55Z</time>
      </trkpt>
      <trkpt lat="46.447793981060386" lon="5.343864010646939">
        <ele>237.09999999999999</ele>
        <time>2025-04-23T15:09:06Z</time>
      </trkpt>
      <trkpt lat="46.446611965075135" lon="5.343089019879699">
        <ele>234.22</ele>
        <time>2025-04-23T15:09:15Z</time>
      </trkpt>
      <trkpt lat="46.445774026215076" lon="5.342551991343498">
        <ele>232.30000000000001</ele>
        <time>2025-04-23T15:09:23Z</time>
      </trkpt>
      <trkpt lat="46.445536985993385" lon="5.342473033815622">
        <ele>231.33000000000001</ele>
        <time>2025-04-23T15:09:26Z</time>
      </trkpt>
      <trkpt lat="46.445448976010084" lon="5.342343030497432">
        <ele>230.84999999999999</ele>
        <time>2025-04-23T15:09:27Z</time>
      </trkpt>
      <trkpt lat="46.445445036515594" lon="5.342246973887086">
        <ele>230.37</ele>
        <time>2025-04-23T15:09:28Z</time>
      </trkpt>
      <trkpt lat="46.44543900154531" lon="5.342126023024321">
        <ele>230.37</ele>
        <time>2025-04-23T15:09:29Z</time>
      </trkpt>
      <trkpt lat="46.445431960746646" lon="5.341972969472408">
        <ele>229.88999999999999</ele>
        <time>2025-04-23T15:09:30Z</time>
      </trkpt>
      <trkpt lat="46.445425003767014" lon="5.341841038316488">
        <ele>229.88999999999999</ele>
        <time>2025-04-23T15:09:31Z</time>
      </trkpt>
      <trkpt lat="46.445387033745646" lon="5.341504001989961">
        <ele>228.44999999999999</ele>
        <time>2025-04-23T15:09:33Z</time>
      </trkpt>
      <trkpt lat="46.445340011268854" lon="5.341338040307164">
        <ele>227.97</ele>
        <time>2025-04-23T15:09:34Z</time>
      </trkpt>
      <trkpt lat="46.44528997130692" lon="5.341164031997323">
        <ele>227.49000000000001</ele>
        <time>2025-04-23T15:09:35Z</time>
      </trkpt>
      <trkpt lat="46.444986965507269" lon="5.340312011539936">
        <ele>225.56999999999999</ele>
        <time>2025-04-23T15:09:40Z</time>
      </trkpt>
      <trkpt lat="46.444829972460866" lon="5.340035995468497">
        <ele>225.09</ele>
        <time>2025-04-23T15:09:42Z</time>
      </trkpt>
      <trkpt lat="46.444741040468216" lon="5.339930970221758">
        <ele>224.61000000000001</ele>
        <time>2025-04-23T15:09:43Z</time>
      </trkpt>
      <trkpt lat="46.444654958322644" lon="5.33982896246016">
        <ele>224.61000000000001</ele>
        <time>2025-04-23T15:09:44Z</time>
      </trkpt>
      <trkpt lat="46.443930007517338" lon="5.339205013588071">
        <ele>224.12</ele>
        <time>2025-04-23T15:09:52Z</time>
      </trkpt>
      <trkpt lat="46.44309701398015" lon="5.338170016184449">
        <ele>223.63999999999999</ele>
        <time>2025-04-23T15:10:02Z</time>
      </trkpt>
      <trkpt lat="46.442747991532087" lon="5.337857035920024">
        <ele>223.63999999999999</ele>
        <time>2025-04-23T15:10:07Z</time>
      </trkpt>
      <trkpt lat="46.442711027339101" lon="5.337685039266944">
        <ele>223.63999999999999</ele>
        <time>2025-04-23T15:10:08Z</time>
      </trkpt>
      <trkpt lat="46.442742040380836" lon="5.33761496655643">
        <ele>223.63999999999999</ele>
        <time>2025-04-23T15:10:09Z</time>
      </trkpt>
      <trkpt lat="46.442788979038596" lon="5.337512036785483">
        <ele>223.63999999999999</ele>
        <time>2025-04-23T15:10:10Z</time>
      </trkpt>
      <trkpt lat="46.442842958495021" lon="5.337391002103686">
        <ele>223.63999999999999</ele>
        <time>2025-04-23T15:10:11Z</time>
      </trkpt>
      <trkpt lat="46.44290397875011" lon="5.337253035977483">
        <ele>223.63999999999999</ele>
        <time>2025-04-23T15:10:12Z</time>
      </trkpt>
      <trkpt lat="46.442976985126734" lon="5.337107023224235">
        <ele>223.16</ele>
        <time>2025-04-23T15:10:13Z</time>
      </trkpt>
      <trkpt lat="46.443301029503345" lon="5.336467986926436">
        <ele>223.16</ele>
        <time>2025-04-23T15:10:17Z</time>
      </trkpt>
      <trkpt lat="46.443358026444912" lon="5.336277969181538">
        <ele>223.63999999999999</ele>
        <time>2025-04-23T15:10:18Z</time>
      </trkpt>
      <trkpt lat="46.443399013951421" lon="5.336080994457007">
        <ele>224.12</ele>
        <time>2025-04-23T15:10:19Z</time>
      </trkpt>
      <trkpt lat="46.443414017558098" lon="5.335869016125798">
        <ele>224.12</ele>
        <time>2025-04-23T15:10:20Z</time>
      </trkpt>
      <trkpt lat="46.443429021164775" lon="5.335651002824307">
        <ele>224.61000000000001</ele>
        <time>2025-04-23T15:10:21Z</time>
      </trkpt>
      <trkpt lat="46.443409994244576" lon="5.335428966209292">
        <ele>225.09</ele>
        <time>2025-04-23T15:10:22Z</time>
      </trkpt>
      <trkpt lat="46.443357020616531" lon="5.335215982049704">
        <ele>225.56999999999999</ele>
        <time>2025-04-23T15:10:23Z</time>
      </trkpt>
      <trkpt lat="46.443285020068288" lon="5.335023030638695">
        <ele>226.05000000000001</ele>
        <time>2025-04-23T15:10:24Z</time>
      </trkpt>
      <trkpt lat="46.44320597872138" lon="5.334823038429022">
        <ele>226.53</ele>
        <time>2025-04-23T15:10:25Z</time>
      </trkpt>
      <trkpt lat="46.443114029243588" lon="5.334636038169265">
        <ele>226.53</ele>
        <time>2025-04-23T15:10:26Z</time>
      </trkpt>
      <trkpt lat="46.442994000390172" lon="5.334463035687804">
        <ele>227.00999999999999</ele>
        <time>2025-04-23T15:10:27Z</time>
      </trkpt>
      <trkpt lat="46.442873971536756" lon="5.334289027377963">
        <ele>227.49000000000001</ele>
        <time>2025-04-23T15:10:28Z</time>
      </trkpt>
      <trkpt lat="46.442204006016254" lon="5.333499033004046">
        <ele>231.81</ele>
        <time>2025-04-23T15:10:33Z</time>
      </trkpt>
      <trkpt lat="46.441725986078382" lon="5.333044985309243">
        <ele>233.74000000000001</ele>
        <time>2025-04-23T15:10:37Z</time>
      </trkpt>
      <trkpt lat="46.441635964438319" lon="5.332910036668181">
        <ele>233.74000000000001</ele>
        <time>2025-04-23T15:10:38Z</time>
      </trkpt>
      <trkpt lat="46.441547032445669" lon="5.332776010036469">
        <ele>234.22</ele>
        <time>2025-04-23T15:10:39Z</time>
      </trkpt>
      <trkpt lat="46.441488023847342" lon="5.332619016990066">
        <ele>234.69999999999999</ele>
        <time>2025-04-23T15:10:40Z</time>
      </trkpt>
      <trkpt lat="46.441438989713788" lon="5.332460012286902">
        <ele>234.69999999999999</ele>
        <time>2025-04-23T15:10:41Z</time>
      </trkpt>
      <trkpt lat="46.441389033570886" lon="5.33230503089726">
        <ele>234.69999999999999</ele>
        <time>2025-04-23T15:10:42Z</time>
      </trkpt>
      <trkpt lat="46.441303035244346" lon="5.332038989290595">
        <ele>234.22</ele>
        <time>2025-04-23T15:10:44Z</time>
      </trkpt>
      <trkpt lat="46.441273028030992" lon="5.331945028156042">
        <ele>234.22</ele>
        <time>2025-04-23T15:10:45Z</time>
      </trkpt>
      <trkpt lat="46.44116397947073" lon="5.33191803842783">
        <ele>234.22</ele>
        <time>2025-04-23T15:10:46Z</time>
      </trkpt>
      <trkpt lat="46.441088961437345" lon="5.331962965428829">
        <ele>234.22</ele>
        <time>2025-04-23T15:10:47Z</time>
      </trkpt>
      <trkpt lat="46.440997011959553" lon="5.332018034532666">
        <ele>234.22</ele>
        <time>2025-04-23T15:10:48Z</time>
      </trkpt>
      <trkpt lat="46.440891986712813" lon="5.332081988453865">
        <ele>234.69999999999999</ele>
        <time>2025-04-23T15:10:49Z</time>
      </trkpt>
      <trkpt lat="46.440065028145909" lon="5.332518015056849">
        <ele>235.18000000000001</ele>
        <time>2025-04-23T15:10:56Z</time>
      </trkpt>
      <trkpt lat="46.439922032877803" lon="5.33254399895668">
        <ele>235.18000000000001</ele>
        <time>2025-04-23T15:10:57Z</time>
      </trkpt>
      <trkpt lat="46.439768979325891" lon="5.332539975643158">
        <ele>235.18000000000001</ele>
        <time>2025-04-23T15:10:58Z</time>
      </trkpt>
      <trkpt lat="46.438356041908264" lon="5.33241500146687">
        <ele>235.18000000000001</ele>
        <time>2025-04-23T15:11:07Z</time>
      </trkpt>
      <trkpt lat="46.43770300783217" lon="5.332461018115282">
        <ele>235.18000000000001</ele>
        <time>2025-04-23T15:11:13Z</time>
      </trkpt>
      <trkpt lat="46.437622038647532" lon="5.332467975094914">
        <ele>235.18000000000001</ele>
        <time>2025-04-23T15:11:14Z</time>
      </trkpt>
      <trkpt lat="46.437536962330341" lon="5.332489013671875">
        <ele>235.18000000000001</ele>
        <time>2025-04-23T15:11:15Z</time>
      </trkpt>
      <trkpt lat="46.437452975660563" lon="5.332559002563357">
        <ele>234.69999999999999</ele>
        <time>2025-04-23T15:11:16Z</time>
      </trkpt>
      <trkpt lat="46.437355997040868" lon="5.332638965919614">
        <ele>234.69999999999999</ele>
        <time>2025-04-23T15:11:17Z</time>
      </trkpt>
      <trkpt lat="46.43725298345089" lon="5.332726975902915">
        <ele>234.69999999999999</ele>
        <time>2025-04-23T15:11:18Z</time>
      </trkpt>
      <trkpt lat="46.436772029846907" lon="5.333100976422429">
        <ele>233.25999999999999</ele>
        <time>2025-04-23T15:11:22Z</time>
      </trkpt>
      <trkpt lat="46.436627022922039" lon="5.333180017769337">
        <ele>232.78</ele>
        <time>2025-04-23T15:11:23Z</time>
      </trkpt>
      <trkpt lat="46.436485033482313" lon="5.333256963640451">
        <ele>232.30000000000001</ele>
        <time>2025-04-23T15:11:24Z</time>
      </trkpt>
      <trkpt lat="46.436237012967467" lon="5.333271967247129">
        <ele>230.84999999999999</ele>
        <time>2025-04-23T15:11:26Z</time>
      </trkpt>
      <trkpt lat="46.436139028519392" lon="5.33325201831758">
        <ele>230.37</ele>
        <time>2025-04-23T15:11:27Z</time>
      </trkpt>
      <trkpt lat="46.436039032414556" lon="5.33316501416266">
        <ele>229.88999999999999</ele>
        <time>2025-04-23T15:11:28Z</time>
      </trkpt>
      <trkpt lat="46.43598304130137" lon="5.333053031936288">
        <ele>229.41</ele>
        <time>2025-04-23T15:11:29Z</time>
      </trkpt>
      <trkpt lat="46.435938030481339" lon="5.332914981991053">
        <ele>228.93000000000001</ele>
        <time>2025-04-23T15:11:30Z</time>
      </trkpt>
      <trkpt lat="46.435912968590856" lon="5.332752037793398">
        <ele>228.44999999999999</ele>
        <time>2025-04-23T15:11:31Z</time>
      </trkpt>
      <trkpt lat="46.43592000938952" lon="5.332569982856512">
        <ele>228.44999999999999</ele>
        <time>2025-04-23T15:11:32Z</time>
      </trkpt>
      <trkpt lat="46.43594297580421" lon="5.332378037273884">
        <ele>228.44999999999999</ele>
        <time>2025-04-23T15:11:33Z</time>
      </trkpt>
      <trkpt lat="46.436012964695692" lon="5.331322001293302">
        <ele>229.41</ele>
        <time>2025-04-23T15:11:38Z</time>
      </trkpt>
      <trkpt lat="46.435998966917396" lon="5.331135001033545">
        <ele>229.41</ele>
        <time>2025-04-23T15:11:39Z</time>
      </trkpt>
      <trkpt lat="46.435969965532422" lon="5.330945989117026">
        <ele>229.41</ele>
        <time>2025-04-23T15:11:40Z</time>
      </trkpt>
      <trkpt lat="46.435924032703042" lon="5.330762006342411">
        <ele>229.88999999999999</ele>
        <time>2025-04-23T15:11:41Z</time>
      </trkpt>
      <trkpt lat="46.435863012447953" lon="5.330570982769132">
        <ele>230.37</ele>
        <time>2025-04-23T15:11:42Z</time>
      </trkpt>
      <trkpt lat="46.435793023556471" lon="5.330379037186503">
        <ele>230.37</ele>
        <time>2025-04-23T15:11:43Z</time>
      </trkpt>
      <trkpt lat="46.435377029702067" lon="5.329037010669708">
        <ele>230.84999999999999</ele>
        <time>2025-04-23T15:11:50Z</time>
      </trkpt>
      <trkpt lat="46.435327995568514" lon="5.328835006803274">
        <ele>229.88999999999999</ele>
        <time>2025-04-23T15:11:51Z</time>
      </trkpt>
      <trkpt lat="46.435283990576863" lon="5.328627973794937">
        <ele>229.41</ele>
        <time>2025-04-23T15:11:52Z</time>
      </trkpt>
      <trkpt lat="46.434834972023964" lon="5.326395034790039">
        <ele>224.12</ele>
        <time>2025-04-23T15:12:02Z</time>
      </trkpt>
      <trkpt lat="46.434784010052681" lon="5.326136033982039">
        <ele>223.63999999999999</ele>
        <time>2025-04-23T15:12:03Z</time>
      </trkpt>
      <trkpt lat="46.434731036424637" lon="5.325869992375374">
        <ele>223.16</ele>
        <time>2025-04-23T15:12:04Z</time>
      </trkpt>
      <trkpt lat="46.434643026441336" lon="5.324240969493985">
        <ele>222.19999999999999</ele>
        <time>2025-04-23T15:12:10Z</time>
      </trkpt>
      <trkpt lat="46.434677978977561" lon="5.323980962857604">
        <ele>222.19999999999999</ele>
        <time>2025-04-23T15:12:11Z</time>
      </trkpt>
      <trkpt lat="46.434746040031314" lon="5.323723973706365">
        <ele>222.19999999999999</ele>
        <time>2025-04-23T15:12:12Z</time>
      </trkpt>
      <trkpt lat="46.435437966138124" lon="5.321301016956568">
        <ele>214.99000000000001</ele>
        <time>2025-04-23T15:12:21Z</time>
      </trkpt>
      <trkpt lat="46.436014976352453" lon="5.317894024774432">
        <ele>204.90000000000001</ele>
        <time>2025-04-23T15:12:33Z</time>
      </trkpt>
      <trkpt lat="46.436122013255954" lon="5.316517967730761">
        <ele>205.86000000000001</ele>
        <time>2025-04-23T15:12:40Z</time>
      </trkpt>
      <trkpt lat="46.436446979641914" lon="5.315524963662028">
        <ele>209.22</ele>
        <time>2025-04-23T15:12:45Z</time>
      </trkpt>
      <trkpt lat="46.437131026759744" lon="5.313860988244414">
        <ele>214.50999999999999</ele>
        <time>2025-04-23T15:12:52Z</time>
      </trkpt>
      <trkpt lat="46.438294015824795" lon="5.311324037611485">
        <ele>217.40000000000001</ele>
        <time>2025-04-23T15:13:02Z</time>
      </trkpt>
      <trkpt lat="46.438421001657844" lon="5.311094960197806">
        <ele>218.36000000000001</ele>
        <time>2025-04-23T15:13:03Z</time>
      </trkpt>
      <trkpt lat="46.438562991097569" lon="5.310878036543727">
        <ele>219.31999999999999</ele>
        <time>2025-04-23T15:13:04Z</time>
      </trkpt>
      <trkpt lat="46.439710976555943" lon="5.309182964265347">
        <ele>222.68000000000001</ele>
        <time>2025-04-23T15:13:12Z</time>
      </trkpt>
      <trkpt lat="46.439814995974302" lon="5.309004010632634">
        <ele>223.16</ele>
        <time>2025-04-23T15:13:13Z</time>
      </trkpt>
      <trkpt lat="46.439897976815701" lon="5.30884400010109">
        <ele>223.16</ele>
        <time>2025-04-23T15:13:14Z</time>
      </trkpt>
      <trkpt lat="46.439914992079139" lon="5.308665968477726">
        <ele>223.63999999999999</ele>
        <time>2025-04-23T15:13:15Z</time>
      </trkpt>
      <trkpt lat="46.439932007342577" lon="5.308486009016633">
        <ele>224.12</ele>
        <time>2025-04-23T15:13:16Z</time>
      </trkpt>
      <trkpt lat="46.439923038706183" lon="5.30826598405838">
        <ele>224.12</ele>
        <time>2025-04-23T15:13:17Z</time>
      </trkpt>
      <trkpt lat="46.439814995974302" lon="5.307251019403338">
        <ele>224.61000000000001</ele>
        <time>2025-04-23T15:13:21Z</time>
      </trkpt>
      <trkpt lat="46.439822036772966" lon="5.30697600916028">
        <ele>225.09</ele>
        <time>2025-04-23T15:13:22Z</time>
      </trkpt>
      <trkpt lat="46.439840979874134" lon="5.306689012795687">
        <ele>225.56999999999999</ele>
        <time>2025-04-23T15:13:23Z</time>
      </trkpt>
      <trkpt lat="46.439929995685816" lon="5.305804973468185">
        <ele>226.05000000000001</ele>
        <time>2025-04-23T15:13:26Z</time>
      </trkpt>
      <trkpt lat="46.439918009564281" lon="5.305504985153675">
        <ele>226.05000000000001</ele>
        <time>2025-04-23T15:13:27Z</time>
      </trkpt>
      <trkpt lat="46.439692033454776" lon="5.30342903919518">
        <ele>225.56999999999999</ele>
        <time>2025-04-23T15:13:35Z</time>
      </trkpt>
      <trkpt lat="46.439527999609709" lon="5.302523961290717">
        <ele>224.12</ele>
        <time>2025-04-23T15:13:39Z</time>
      </trkpt>
      <trkpt lat="46.438953001052141" lon="5.300687989220023">
        <ele>222.19999999999999</ele>
        <time>2025-04-23T15:13:47Z</time>
      </trkpt>
      <trkpt lat="46.438874965533614" lon="5.300503000617027">
        <ele>221.72</ele>
        <time>2025-04-23T15:13:48Z</time>
      </trkpt>
      <trkpt lat="46.438766000792384" lon="5.300352964550257">
        <ele>221.72</ele>
        <time>2025-04-23T15:13:49Z</time>
      </trkpt>
      <trkpt lat="46.438642032444477" lon="5.300227990373969">
        <ele>221.24000000000001</ele>
        <time>2025-04-23T15:13:50Z</time>
      </trkpt>
      <trkpt lat="46.438505994156003" lon="5.300103016197681">
        <ele>221.24000000000001</ele>
        <time>2025-04-23T15:13:51Z</time>
      </trkpt>
      <trkpt lat="46.438352018594742" lon="5.299990028142929">
        <ele>220.75999999999999</ele>
        <time>2025-04-23T15:13:52Z</time>
      </trkpt>
      <trkpt lat="46.436961041763425" lon="5.298847993835807">
        <ele>221.24000000000001</ele>
        <time>2025-04-23T15:14:01Z</time>
      </trkpt>
      <trkpt lat="46.436722995713353" lon="5.298565020784736">
        <ele>220.28</ele>
        <time>2025-04-23T15:14:03Z</time>
      </trkpt>
      <trkpt lat="46.436624005436897" lon="5.298435017466545">
        <ele>220.28</ele>
        <time>2025-04-23T15:14:04Z</time>
      </trkpt>
      <trkpt lat="46.436572959646583" lon="5.298292022198439">
        <ele>219.80000000000001</ele>
        <time>2025-04-23T15:14:05Z</time>
      </trkpt>
      <trkpt lat="46.436541024595499" lon="5.298123965039849">
        <ele>219.80000000000001</ele>
        <time>2025-04-23T15:14:06Z</time>
      </trkpt>
      <trkpt lat="46.436539012938738" lon="5.297951968386769">
        <ele>219.80000000000001</ele>
        <time>2025-04-23T15:14:07Z</time>
      </trkpt>
      <trkpt lat="46.436563991010189" lon="5.297753987833858">
        <ele>219.80000000000001</ele>
        <time>2025-04-23T15:14:08Z</time>
      </trkpt>
      <trkpt lat="46.436602966859937" lon="5.297556007280946">
        <ele>220.28</ele>
        <time>2025-04-23T15:14:09Z</time>
      </trkpt>
      <trkpt lat="46.436647977679968" lon="5.297346040606499">
        <ele>219.80000000000001</ele>
        <time>2025-04-23T15:14:10Z</time>
      </trkpt>
      <trkpt lat="46.437085010111332" lon="5.295381993055344">
        <ele>223.16</ele>
        <time>2025-04-23T15:14:20Z</time>
      </trkpt>
      <trkpt lat="46.437363959848881" lon="5.293751964345574">
        <ele>221.72</ele>
        <time>2025-04-23T15:14:29Z</time>
      </trkpt>
      <trkpt lat="46.437363959848881" lon="5.293543003499508">
        <ele>221.72</ele>
        <time>2025-04-23T15:14:30Z</time>
      </trkpt>
      <trkpt lat="46.437341999262571" lon="5.293330019339919">
        <ele>221.72</ele>
        <time>2025-04-23T15:14:31Z</time>
      </trkpt>
      <trkpt lat="46.436834977939725" lon="5.291015021502972">
        <ele>219.80000000000001</ele>
        <time>2025-04-23T15:14:41Z</time>
      </trkpt>
      <trkpt lat="46.436678990721703" lon="5.290379002690315">
        <ele>218.84</ele>
        <time>2025-04-23T15:14:44Z</time>
      </trkpt>
      <trkpt lat="46.43662802875042" lon="5.290171969681978">
        <ele>218.36000000000001</ele>
        <time>2025-04-23T15:14:45Z</time>
      </trkpt>
      <trkpt lat="46.436605984345078" lon="5.289951022714376">
        <ele>218.36000000000001</ele>
        <time>2025-04-23T15:14:46Z</time>
      </trkpt>
      <trkpt lat="46.436593998223543" lon="5.289709037169814">
        <ele>217.88</ele>
        <time>2025-04-23T15:14:47Z</time>
      </trkpt>
      <trkpt lat="46.436604978516698" lon="5.289456993341446">
        <ele>217.40000000000001</ele>
        <time>2025-04-23T15:14:48Z</time>
      </trkpt>
      <trkpt lat="46.436622999608517" lon="5.289192041382194">
        <ele>216.43000000000001</ele>
        <time>2025-04-23T15:14:49Z</time>
      </trkpt>
      <trkpt lat="46.436648983508348" lon="5.288921976462007">
        <ele>215.47</ele>
        <time>2025-04-23T15:14:50Z</time>
      </trkpt>
      <trkpt lat="46.437006974592805" lon="5.287249032407999">
        <ele>212.59</ele>
        <time>2025-04-23T15:14:57Z</time>
      </trkpt>
      <trkpt lat="46.437057014554739" lon="5.287090027704835">
        <ele>212.11000000000001</ele>
        <time>2025-04-23T15:14:58Z</time>
      </trkpt>
      <trkpt lat="46.43714502453804" lon="5.286774029955268">
        <ele>211.63</ele>
        <time>2025-04-23T15:15:00Z</time>
      </trkpt>
      <trkpt lat="46.43718701787293" lon="5.286601027473807">
        <ele>211.15000000000001</ele>
        <time>2025-04-23T15:15:01Z</time>
      </trkpt>
      <trkpt lat="46.437232028692961" lon="5.286415033042431">
        <ele>210.66999999999999</ele>
        <time>2025-04-23T15:15:02Z</time>
      </trkpt>
      <trkpt lat="46.437495974823833" lon="5.284643014892936">
        <ele>202.49000000000001</ele>
        <time>2025-04-23T15:15:09Z</time>
      </trkpt>
      <trkpt lat="46.437595970928669" lon="5.284139011055231">
        <ele>200.09</ele>
        <time>2025-04-23T15:15:11Z</time>
      </trkpt>
      <trkpt lat="46.437671994790435" lon="5.28390197083354">
        <ele>199.61000000000001</ele>
        <time>2025-04-23T15:15:12Z</time>
      </trkpt>
      <trkpt lat="46.437782971188426" lon="5.283711031079292">
        <ele>198.65000000000001</ele>
        <time>2025-04-23T15:15:13Z</time>
      </trkpt>
      <trkpt lat="46.437896965071559" lon="5.283513972535729">
        <ele>198.16999999999999</ele>
        <time>2025-04-23T15:15:14Z</time>
      </trkpt>
      <trkpt lat="46.438013976439834" lon="5.283312974497676">
        <ele>197.69</ele>
        <time>2025-04-23T15:15:15Z</time>
      </trkpt>
      <trkpt lat="46.438125958666205" lon="5.283118011429906">
        <ele>197.21000000000001</ele>
        <time>2025-04-23T15:15:16Z</time>
      </trkpt>
      <trkpt lat="46.438302984461188" lon="5.282735964283347">
        <ele>196.25</ele>
        <time>2025-04-23T15:15:18Z</time>
      </trkpt>
      <trkpt lat="46.438374985009432" lon="5.282562039792538">
        <ele>196.25</ele>
        <time>2025-04-23T15:15:19Z</time>
      </trkpt>
      <trkpt lat="46.438401974737644" lon="5.282378979027271">
        <ele>195.77000000000001</ele>
        <time>2025-04-23T15:15:20Z</time>
      </trkpt>
      <trkpt lat="46.438413960859179" lon="5.282183010131121">
        <ele>194.80000000000001</ele>
        <time>2025-04-23T15:15:21Z</time>
      </trkpt>
      <trkpt lat="46.438395017758012" lon="5.281963991001248">
        <ele>194.31999999999999</ele>
        <time>2025-04-23T15:15:22Z</time>
      </trkpt>
      <trkpt lat="46.438367022201419" lon="5.281722005456686">
        <ele>193.84</ele>
        <time>2025-04-23T15:15:23Z</time>
      </trkpt>
      <trkpt lat="46.438015988096595" lon="5.279735997319222">
        <ele>190.96000000000001</ele>
        <time>2025-04-23T15:15:30Z</time>
      </trkpt>
      <trkpt lat="46.437505027279258" lon="5.27582198381424">
        <ele>190.47999999999999</ele>
        <time>2025-04-23T15:15:44Z</time>
      </trkpt>
      <trkpt lat="46.437507038936019" lon="5.275528030470014">
        <ele>190.96000000000001</ele>
        <time>2025-04-23T15:15:45Z</time>
      </trkpt>
      <trkpt lat="46.437533022835851" lon="5.275230975821614">
        <ele>190.96000000000001</ele>
        <time>2025-04-23T15:15:46Z</time>
      </trkpt>
      <trkpt lat="46.437585996463895" lon="5.27494196780026">
        <ele>190.96000000000001</ele>
        <time>2025-04-23T15:15:47Z</time>
      </trkpt>
      <trkpt lat="46.437641987577081" lon="5.274652959778905">
        <ele>191.44</ele>
        <time>2025-04-23T15:15:48Z</time>
      </trkpt>
      <trkpt lat="46.438458971679211" lon="5.271053016185761">
        <ele>201.05000000000001</ele>
        <time>2025-04-23T15:16:01Z</time>
      </trkpt>
      <trkpt lat="46.439037993550301" lon="5.26890498585999">
        <ele>199.61000000000001</ele>
        <time>2025-04-23T15:16:11Z</time>
      </trkpt>
      <trkpt lat="46.439146958291531" lon="5.268636010587215">
        <ele>199.13</ele>
        <time>2025-04-23T15:16:13Z</time>
      </trkpt>
      <trkpt lat="46.439209990203381" lon="5.26853802613914">
        <ele>199.13</ele>
        <time>2025-04-23T15:16:14Z</time>
      </trkpt>
      <trkpt lat="46.439268998801708" lon="5.268446998670697">
        <ele>198.65000000000001</ele>
        <time>2025-04-23T15:16:15Z</time>
      </trkpt>
      <trkpt lat="46.439317027106881" lon="5.268373992294073">
        <ele>198.16999999999999</ele>
        <time>2025-04-23T15:16:16Z</time>
      </trkpt>
      <trkpt lat="46.439362037926912" lon="5.268351025879383">
        <ele>198.16999999999999</ele>
        <time>2025-04-23T15:16:17Z</time>
      </trkpt>
      <trkpt lat="46.439394978806376" lon="5.268334010615945">
        <ele>197.69</ele>
        <time>2025-04-23T15:16:18Z</time>
      </trkpt>
      <trkpt lat="46.439437977969646" lon="5.26828296482563">
        <ele>197.69</ele>
        <time>2025-04-23T15:16:19Z</time>
      </trkpt>
      <trkpt lat="46.439483994618058" lon="5.268222028389573">
        <ele>197.21000000000001</ele>
        <time>2025-04-23T15:16:20Z</time>
      </trkpt>
      <trkpt lat="46.439537974074483" lon="5.26810803450644">
        <ele>197.69</ele>
        <time>2025-04-23T15:16:21Z</time>
      </trkpt>
      <trkpt lat="46.439551971852779" lon="5.267975013703108">
        <ele>197.69</ele>
        <time>2025-04-23T15:16:22Z</time>
      </trkpt>
      <trkpt lat="46.439539985731244" lon="5.267846016213298">
        <ele>197.69</ele>
        <time>2025-04-23T15:16:23Z</time>
      </trkpt>
      <trkpt lat="46.439488017931581" lon="5.267707966268063">
        <ele>197.69</ele>
        <time>2025-04-23T15:16:24Z</time>
      </trkpt>
      <trkpt lat="46.439446024596691" lon="5.267536975443363">
        <ele>197.21000000000001</ele>
        <time>2025-04-23T15:16:25Z</time>
      </trkpt>
      <trkpt lat="46.439455999061465" lon="5.267423987388611">
        <ele>197.21000000000001</ele>
        <time>2025-04-23T15:16:26Z</time>
      </trkpt>
      <trkpt lat="46.439477959647775" lon="5.267260037362576">
        <ele>197.21000000000001</ele>
        <time>2025-04-23T15:16:27Z</time>
      </trkpt>
      <trkpt lat="46.439915997907519" lon="5.265690023079515">
        <ele>196.72999999999999</ele>
        <time>2025-04-23T15:16:35Z</time>
      </trkpt>
      <trkpt lat="46.440502982586622" lon="5.263682976365089">
        <ele>201.53</ele>
        <time>2025-04-23T15:16:43Z</time>
      </trkpt>
      <trkpt lat="46.441338993608952" lon="5.261634020134807">
        <ele>210.19</ele>
        <time>2025-04-23T15:16:52Z</time>
      </trkpt>
      <trkpt lat="46.441936958581209" lon="5.260232985019684">
        <ele>212.59</ele>
        <time>2025-04-23T15:16:58Z</time>
      </trkpt>
      <trkpt lat="46.442133011296391" lon="5.259416000917554">
        <ele>211.15000000000001</ele>
        <time>2025-04-23T15:17:01Z</time>
      </trkpt>
      <trkpt lat="46.442483961582184" lon="5.256634969264269">
        <ele>202.97999999999999</ele>
        <time>2025-04-23T15:17:10Z</time>
      </trkpt>
      <trkpt lat="46.442727958783507" lon="5.254498003050685">
        <ele>205.86000000000001</ele>
        <time>2025-04-23T15:17:18Z</time>
      </trkpt>
      <trkpt lat="46.442825021222234" lon="5.251743039116263">
        <ele>213.06999999999999</ele>
        <time>2025-04-23T15:17:29Z</time>
      </trkpt>
      <trkpt lat="46.442374996840954" lon="5.24900701828301">
        <ele>208.74000000000001</ele>
        <time>2025-04-23T15:17:38Z</time>
      </trkpt>
      <trkpt lat="46.44240802153945" lon="5.246834009885788">
        <ele>204.41999999999999</ele>
        <time>2025-04-23T15:17:45Z</time>
      </trkpt>
      <trkpt lat="46.442971033975482" lon="5.244756974279881">
        <ele>195.28</ele>
        <time>2025-04-23T15:17:52Z</time>
      </trkpt>
      <trkpt lat="46.443422986194491" lon="5.242524035274983">
        <ele>188.56</ele>
        <time>2025-04-23T15:18:00Z</time>
      </trkpt>
      <trkpt lat="46.443909974768758" lon="5.241090981289744">
        <ele>187.59</ele>
        <time>2025-04-23T15:18:07Z</time>
      </trkpt>
      <trkpt lat="46.44453601911664" lon="5.239521972835064">
        <ele>188.08000000000001</ele>
        <time>2025-04-23T15:18:15Z</time>
      </trkpt>
      <trkpt lat="46.445033987984061" lon="5.237275036051869">
        <ele>187.11000000000001</ele>
        <time>2025-04-23T15:18:25Z</time>
      </trkpt>
      <trkpt lat="46.445581996813416" lon="5.235689012333751">
        <ele>187.11000000000001</ele>
        <time>2025-04-23T15:18:32Z</time>
      </trkpt>
      <trkpt lat="46.446451032534242" lon="5.233769975602627">
        <ele>192.40000000000001</ele>
        <time>2025-04-23T15:18:42Z</time>
      </trkpt>
      <trkpt lat="46.44662101753056" lon="5.233188020065427">
        <ele>195.28</ele>
        <time>2025-04-23T15:18:47Z</time>
      </trkpt>
      <trkpt lat="46.446634009480476" lon="5.233139991760254">
        <ele>195.28</ele>
        <time>2025-04-23T15:18:48Z</time>
      </trkpt>
      <trkpt lat="46.446783961728215" lon="5.233076037839055">
        <ele>195.77000000000001</ele>
        <time>2025-04-23T15:18:49Z</time>
      </trkpt>
      <trkpt lat="46.446801982820034" lon="5.232995990663767">
        <ele>196.25</ele>
        <time>2025-04-23T15:18:50Z</time>
      </trkpt>
      <trkpt lat="46.446806006133556" lon="5.232840003445745">
        <ele>196.72999999999999</ele>
        <time>2025-04-23T15:18:51Z</time>
      </trkpt>
      <trkpt lat="46.446785973384976" lon="5.23278996348381">
        <ele>196.72999999999999</ele>
        <time>2025-04-23T15:18:52Z</time>
      </trkpt>
      <trkpt lat="46.446763006970286" lon="5.232731960713863">
        <ele>197.21000000000001</ele>
        <time>2025-04-23T15:18:53Z</time>
      </trkpt>
      <trkpt lat="46.446708021685481" lon="5.232602041214705">
        <ele>197.21000000000001</ele>
        <time>2025-04-23T15:18:54Z</time>
      </trkpt>
      <trkpt lat="46.446725036948919" lon="5.232462985441089">
        <ele>197.69</ele>
        <time>2025-04-23T15:18:55Z</time>
      </trkpt>
      <trkpt lat="46.446742974221706" lon="5.232310015708208">
        <ele>198.16999999999999</ele>
        <time>2025-04-23T15:18:56Z</time>
      </trkpt>
      <trkpt lat="46.446847999468446" lon="5.230678981170058">
        <ele>204.41999999999999</ele>
        <time>2025-04-23T15:19:04Z</time>
      </trkpt>
      <trkpt lat="46.446826960891485" lon="5.228633964434266">
        <ele>212.59</ele>
        <time>2025-04-23T15:19:13Z</time>
      </trkpt>
      <trkpt lat="46.446755966171622" lon="5.226699002087116">
        <ele>214.03</ele>
        <time>2025-04-23T15:19:21Z</time>
      </trkpt>
      <trkpt lat="46.446634009480476" lon="5.223321011289954">
        <ele>210.19</ele>
        <time>2025-04-23T15:19:33Z</time>
      </trkpt>
      <trkpt lat="46.446653958410025" lon="5.218958985060453">
        <ele>212.11000000000001</ele>
        <time>2025-04-23T15:19:47Z</time>
      </trkpt>
      <trkpt lat="46.446757977828383" lon="5.215458031743765">
        <ele>200.56999999999999</ele>
        <time>2025-04-23T15:19:58Z</time>
      </trkpt>
      <trkpt lat="46.44685504026711" lon="5.212150029838085">
        <ele>206.81999999999999</ele>
        <time>2025-04-23T15:20:10Z</time>
      </trkpt>
      <trkpt lat="46.446947995573282" lon="5.20930202677846">
        <ele>213.55000000000001</ele>
        <time>2025-04-23T15:20:21Z</time>
      </trkpt>
      <trkpt lat="46.447128038853407" lon="5.206706989556551">
        <ele>204.90000000000001</ele>
        <time>2025-04-23T15:20:31Z</time>
      </trkpt>
      <trkpt lat="46.447170032188296" lon="5.206450000405312">
        <ele>203.94</ele>
        <time>2025-04-23T15:20:32Z</time>
      </trkpt>
      <trkpt lat="46.447229040786624" lon="5.206202985718846">
        <ele>203.46000000000001</ele>
        <time>2025-04-23T15:20:33Z</time>
      </trkpt>
      <trkpt lat="46.448030015453696" lon="5.203779023140669">
        <ele>208.25999999999999</ele>
        <time>2025-04-23T15:20:44Z</time>
      </trkpt>
      <trkpt lat="46.449012961238623" lon="5.200851978734136">
        <ele>207.30000000000001</ele>
        <time>2025-04-23T15:20:57Z</time>
      </trkpt>
      <trkpt lat="46.450020968914032" lon="5.19757297821343">
        <ele>203.46000000000001</ele>
        <time>2025-04-23T15:21:10Z</time>
      </trkpt>
      <trkpt lat="46.451013972982764" lon="5.194319039583206">
        <ele>203.94</ele>
        <time>2025-04-23T15:21:22Z</time>
      </trkpt>
      <trkpt lat="46.451843027025461" lon="5.191547982394695">
        <ele>209.22</ele>
        <time>2025-04-23T15:21:34Z</time>
      </trkpt>
      <trkpt lat="46.452419031411409" lon="5.189564991742373">
        <ele>205.86000000000001</ele>
        <time>2025-04-23T15:21:44Z</time>
      </trkpt>
      <trkpt lat="46.453111041337252" lon="5.187173970043659">
        <ele>198.65000000000001</ele>
        <time>2025-04-23T15:21:55Z</time>
      </trkpt>
      <trkpt lat="46.453413041308522" lon="5.186095973476768">
        <ele>199.61000000000001</ele>
        <time>2025-04-23T15:22:00Z</time>
      </trkpt>
      <trkpt lat="46.453906986862421" lon="5.183862028643489">
        <ele>197.21000000000001</ele>
        <time>2025-04-23T15:22:09Z</time>
      </trkpt>
      <trkpt lat="46.454530013725162" lon="5.180948982015252">
        <ele>197.69</ele>
        <time>2025-04-23T15:22:20Z</time>
      </trkpt>
      <trkpt lat="46.455213977023959" lon="5.177794033661485">
        <ele>202.00999999999999</ele>
        <time>2025-04-23T15:22:31Z</time>
      </trkpt>
      <trkpt lat="46.456034984439611" lon="5.174074983224273">
        <ele>204.41999999999999</ele>
        <time>2025-04-23T15:22:44Z</time>
      </trkpt>
      <trkpt lat="46.456221984699368" lon="5.173216005787253">
        <ele>205.38</ele>
        <time>2025-04-23T15:22:47Z</time>
      </trkpt>
      <trkpt lat="46.456285016611218" lon="5.172926997765899">
        <ele>205.38</ele>
        <time>2025-04-23T15:22:48Z</time>
      </trkpt>
      <trkpt lat="46.456349976360798" lon="5.172624997794628">
        <ele>205.86000000000001</ele>
        <time>2025-04-23T15:22:49Z</time>
      </trkpt>
      <trkpt lat="46.456965962424874" lon="5.169797027483583">
        <ele>202.97999999999999</ele>
        <time>2025-04-23T15:22:59Z</time>
      </trkpt>
      <trkpt lat="46.457675993442535" lon="5.16654996201396">
        <ele>207.30000000000001</ele>
        <time>2025-04-23T15:23:11Z</time>
      </trkpt>
      <trkpt lat="46.458275970071554" lon="5.163359977304936">
        <ele>207.30000000000001</ele>
        <time>2025-04-23T15:23:22Z</time>
      </trkpt>
      <trkpt lat="46.458710990846157" lon="5.16094003804028">
        <ele>209.69999999999999</ele>
        <time>2025-04-23T15:23:31Z</time>
      </trkpt>
      <trkpt lat="46.459164032712579" lon="5.157777965068817">
        <ele>207.30000000000001</ele>
        <time>2025-04-23T15:23:43Z</time>
      </trkpt>
      <trkpt lat="46.459364024922252" lon="5.156670967116952">
        <ele>204.41999999999999</ele>
        <time>2025-04-23T15:23:48Z</time>
      </trkpt>
      <trkpt lat="46.459723021835089" lon="5.154552021995187">
        <ele>197.69</ele>
        <time>2025-04-23T15:23:58Z</time>
      </trkpt>
      <trkpt lat="46.45994103513658" lon="5.153342010453343">
        <ele>199.13</ele>
        <time>2025-04-23T15:24:06Z</time>
      </trkpt>
      <trkpt lat="46.459970036521554" lon="5.153125002980232">
        <ele>199.61000000000001</ele>
        <time>2025-04-23T15:24:08Z</time>
      </trkpt>
      <trkpt lat="46.459981016814709" lon="5.152996005490422">
        <ele>200.56999999999999</ele>
        <time>2025-04-23T15:24:09Z</time>
      </trkpt>
      <trkpt lat="46.460000965744257" lon="5.152890980243683">
        <ele>201.05000000000001</ele>
        <time>2025-04-23T15:24:10Z</time>
      </trkpt>
      <trkpt lat="46.460151001811028" lon="5.151983974501491">
        <ele>204.41999999999999</ele>
        <time>2025-04-23T15:24:17Z</time>
      </trkpt>
      <trkpt lat="46.460167011246085" lon="5.151875009760261">
        <ele>205.38</ele>
        <time>2025-04-23T15:24:18Z</time>
      </trkpt>
      <trkpt lat="46.460216967388988" lon="5.151300011202693">
        <ele>208.74000000000001</ele>
        <time>2025-04-23T15:24:22Z</time>
      </trkpt>
      <trkpt lat="46.460152007639408" lon="5.150548992678523">
        <ele>212.59</ele>
        <time>2025-04-23T15:24:32Z</time>
      </trkpt>
      <trkpt lat="46.46017899736762" lon="5.150399040430784">
        <ele>212.59</ele>
        <time>2025-04-23T15:24:33Z</time>
      </trkpt>
      <trkpt lat="46.460192995145917" lon="5.150288986042142">
        <ele>213.06999999999999</ele>
        <time>2025-04-23T15:24:34Z</time>
      </trkpt>
      <trkpt lat="46.460224008187652" lon="5.150191001594067">
        <ele>213.06999999999999</ele>
        <time>2025-04-23T15:24:35Z</time>
      </trkpt>
      <trkpt lat="46.460260972380638" lon="5.15008999966085">
        <ele>213.55000000000001</ele>
        <time>2025-04-23T15:24:36Z</time>
      </trkpt>
      <trkpt lat="46.460295002907515" lon="5.149988997727633">
        <ele>213.55000000000001</ele>
        <time>2025-04-23T15:24:37Z</time>
      </trkpt>
      <trkpt lat="46.46032702177763" lon="5.149886989966035">
        <ele>213.55000000000001</ele>
        <time>2025-04-23T15:24:38Z</time>
      </trkpt>
      <trkpt lat="46.460358034819365" lon="5.149787999689579">
        <ele>213.55000000000001</ele>
        <time>2025-04-23T15:24:39Z</time>
      </trkpt>
      <trkpt lat="46.460389969870448" lon="5.149686997756362">
        <ele>213.55000000000001</ele>
        <time>2025-04-23T15:24:40Z</time>
      </trkpt>
      <trkpt lat="46.460788026452065" lon="5.148442033678293">
        <ele>210.66999999999999</ele>
        <time>2025-04-23T15:24:50Z</time>
      </trkpt>
      <trkpt lat="46.461460003629327" lon="5.146798007190228">
        <ele>209.69999999999999</ele>
        <time>2025-04-23T15:25:01Z</time>
      </trkpt>
      <trkpt lat="46.462381007149816" lon="5.144796995446086">
        <ele>203.46000000000001</ele>
        <time>2025-04-23T15:25:11Z</time>
      </trkpt>
      <trkpt lat="46.463482975959778" lon="5.142403962090612">
        <ele>196.25</ele>
        <time>2025-04-23T15:25:22Z</time>
      </trkpt>
      <trkpt lat="46.464099967852235" lon="5.140389036387205">
        <ele>192.40000000000001</ele>
        <time>2025-04-23T15:25:30Z</time>
      </trkpt>
      <trkpt lat="46.464672032743692" lon="5.136904008686543">
        <ele>199.13</ele>
        <time>2025-04-23T15:25:42Z</time>
      </trkpt>
      <trkpt lat="46.464932039380074" lon="5.133792981505394">
        <ele>192.88</ele>
        <time>2025-04-23T15:25:52Z</time>
      </trkpt>
      <trkpt lat="46.465027006343007" lon="5.1309899892658">
        <ele>195.28</ele>
        <time>2025-04-23T15:26:02Z</time>
      </trkpt>
      <trkpt lat="46.46507503464818" lon="5.13053996488452">
        <ele>196.72999999999999</ele>
        <time>2025-04-23T15:26:04Z</time>
      </trkpt>
      <trkpt lat="46.46511803381145" lon="5.130320023745298">
        <ele>197.21000000000001</ele>
        <time>2025-04-23T15:26:05Z</time>
      </trkpt>
      <trkpt lat="46.465709963813424" lon="5.128597961738706">
        <ele>196.72999999999999</ele>
        <time>2025-04-23T15:26:12Z</time>
      </trkpt>
      <trkpt lat="46.46707302890718" lon="5.124668022617698">
        <ele>195.77000000000001</ele>
        <time>2025-04-23T15:26:26Z</time>
      </trkpt>
      <trkpt lat="46.468360992148519" lon="5.120934974402189">
        <ele>197.69</ele>
        <time>2025-04-23T15:26:41Z</time>
      </trkpt>
      <trkpt lat="46.468547992408276" lon="5.120433988049626">
        <ele>199.61000000000001</ele>
        <time>2025-04-23T15:26:44Z</time>
      </trkpt>
      <trkpt lat="46.468607001006603" lon="5.120337009429932">
        <ele>200.09</ele>
        <time>2025-04-23T15:26:45Z</time>
      </trkpt>
      <trkpt lat="46.468659974634647" lon="5.120217986404896">
        <ele>201.05000000000001</ele>
        <time>2025-04-23T15:26:46Z</time>
      </trkpt>
      <trkpt lat="46.468840017914772" lon="5.120155038312078">
        <ele>201.53</ele>
        <time>2025-04-23T15:26:48Z</time>
      </trkpt>
      <trkpt lat="46.468901038169861" lon="5.120021011680365">
        <ele>202.00999999999999</ele>
        <time>2025-04-23T15:26:49Z</time>
      </trkpt>
      <trkpt lat="46.468892991542816" lon="5.119914980605245">
        <ele>202.97999999999999</ele>
        <time>2025-04-23T15:26:50Z</time>
      </trkpt>
      <trkpt lat="46.468887040391564" lon="5.119789000600576">
        <ele>203.46000000000001</ele>
        <time>2025-04-23T15:26:51Z</time>
      </trkpt>
      <trkpt lat="46.468892991542816" lon="5.119639970362186">
        <ele>203.46000000000001</ele>
        <time>2025-04-23T15:26:52Z</time>
      </trkpt>
      <trkpt lat="46.468906989321113" lon="5.119289020076394">
        <ele>204.41999999999999</ele>
        <time>2025-04-23T15:26:54Z</time>
      </trkpt>
      <trkpt lat="46.468869019299746" lon="5.11908701620996">
        <ele>204.90000000000001</ele>
        <time>2025-04-23T15:26:55Z</time>
      </trkpt>
      <trkpt lat="46.468445984646678" lon="5.116710998117924">
        <ele>207.30000000000001</ele>
        <time>2025-04-23T15:27:05Z</time>
      </trkpt>
      <trkpt lat="46.467821029946208" lon="5.113238962367177">
        <ele>205.38</ele>
        <time>2025-04-23T15:27:17Z</time>
      </trkpt>
      <trkpt lat="46.467212000861764" lon="5.109249008819461">
        <ele>207.78</ele>
        <time>2025-04-23T15:27:30Z</time>
      </trkpt>
      <trkpt lat="46.466921987012029" lon="5.106916995719075">
        <ele>208.74000000000001</ele>
        <time>2025-04-23T15:27:38Z</time>
      </trkpt>
      <trkpt lat="46.466641025617719" lon="5.104684978723526">
        <ele>208.74000000000001</ele>
        <time>2025-04-23T15:27:47Z</time>
      </trkpt>
      <trkpt lat="46.466390993446112" lon="5.102711962535977">
        <ele>207.78</ele>
        <time>2025-04-23T15:27:57Z</time>
      </trkpt>
      <trkpt lat="46.466239029541612" lon="5.101840998977423">
        <ele>209.69999999999999</ele>
        <time>2025-04-23T15:28:01Z</time>
      </trkpt>
      <trkpt lat="46.465537967160344" lon="5.099516026675701">
        <ele>209.22</ele>
        <time>2025-04-23T15:28:11Z</time>
      </trkpt>
      <trkpt lat="46.464642025530338" lon="5.09678503498435">
        <ele>210.66999999999999</ele>
        <time>2025-04-23T15:28:22Z</time>
      </trkpt>
      <trkpt lat="46.463467972353101" lon="5.093125998973846">
        <ele>208.25999999999999</ele>
        <time>2025-04-23T15:28:35Z</time>
      </trkpt>
      <trkpt lat="46.462431969121099" lon="5.089939031749964">
        <ele>211.63</ele>
        <time>2025-04-23T15:28:47Z</time>
      </trkpt>
      <trkpt lat="46.461954033002257" lon="5.088458033278585">
        <ele>212.59</ele>
        <time>2025-04-23T15:28:54Z</time>
      </trkpt>
      <trkpt lat="46.461408035829663" lon="5.086791040375829">
        <ele>211.63</ele>
        <time>2025-04-23T15:29:04Z</time>
      </trkpt>
      <trkpt lat="46.460853992030025" lon="5.085052968934178">
        <ele>209.69999999999999</ele>
        <time>2025-04-23T15:29:15Z</time>
      </trkpt>
      <trkpt lat="46.460633967071772" lon="5.084357019513845">
        <ele>208.74000000000001</ele>
        <time>2025-04-23T15:29:20Z</time>
      </trkpt>
      <trkpt lat="46.460407990962267" lon="5.08372200652957">
        <ele>206.81999999999999</ele>
        <time>2025-04-23T15:29:26Z</time>
      </trkpt>
      <trkpt lat="46.460385024547577" lon="5.08363600820303">
        <ele>206.34</ele>
        <time>2025-04-23T15:29:27Z</time>
      </trkpt>
      <trkpt lat="46.460365997627378" lon="5.083564007654786">
        <ele>205.86000000000001</ele>
        <time>2025-04-23T15:29:28Z</time>
      </trkpt>
      <trkpt lat="46.4603509940207" lon="5.083511034026742">
        <ele>205.38</ele>
        <time>2025-04-23T15:29:29Z</time>
      </trkpt>
      <trkpt lat="46.460340013727546" lon="5.083468034863472">
        <ele>204.90000000000001</ele>
        <time>2025-04-23T15:29:30Z</time>
      </trkpt>
      <trkpt lat="46.460335990414023" lon="5.083387987688184">
        <ele>204.41999999999999</ele>
        <time>2025-04-23T15:29:31Z</time>
      </trkpt>
      <trkpt lat="46.460347976535559" lon="5.083367032930255">
        <ele>203.94</ele>
        <time>2025-04-23T15:29:32Z</time>
      </trkpt>
      <trkpt lat="46.460410002619028" lon="5.083257984369993">
        <ele>203.46000000000001</ele>
        <time>2025-04-23T15:29:34Z</time>
      </trkpt>
      <trkpt lat="46.460396004840732" lon="5.083201993256807">
        <ele>203.46000000000001</ele>
        <time>2025-04-23T15:29:35Z</time>
      </trkpt>
      <trkpt lat="46.460354011505842" lon="5.083128986880183">
        <ele>203.46000000000001</ele>
        <time>2025-04-23T15:29:36Z</time>
      </trkpt>
      <trkpt lat="46.460316041484475" lon="5.083081964403391">
        <ele>202.97999999999999</ele>
        <time>2025-04-23T15:29:37Z</time>
      </trkpt>
      <trkpt lat="46.460301959887147" lon="5.083065032958984">
        <ele>202.97999999999999</ele>
        <time>2025-04-23T15:29:38Z</time>
      </trkpt>
      <trkpt lat="46.460184026509523" lon="5.083065032958984">
        <ele>202.97999999999999</ele>
        <time>2025-04-23T15:29:39Z</time>
      </trkpt>
      <trkpt lat="46.460152007639408" lon="5.083000995218754">
        <ele>202.49000000000001</ele>
        <time>2025-04-23T15:29:40Z</time>
      </trkpt>
      <trkpt lat="46.460130969062448" lon="5.082893036305904">
        <ele>202.49000000000001</ele>
        <time>2025-04-23T15:29:41Z</time>
      </trkpt>
      <trkpt lat="46.460079001262784" lon="5.08284199051559">
        <ele>202.49000000000001</ele>
        <time>2025-04-23T15:29:42Z</time>
      </trkpt>
      <trkpt lat="46.46002896130085" lon="5.082792034372687">
        <ele>202.00999999999999</ele>
        <time>2025-04-23T15:29:43Z</time>
      </trkpt>
      <trkpt lat="46.459981016814709" lon="5.082744006067514">
        <ele>201.53</ele>
        <time>2025-04-23T15:29:44Z</time>
      </trkpt>
      <trkpt lat="46.459924019873142" lon="5.082706036046147">
        <ele>201.53</ele>
        <time>2025-04-23T15:29:45Z</time>
      </trkpt>
      <trkpt lat="46.459873979911208" lon="5.082682985812426">
        <ele>201.53</ele>
        <time>2025-04-23T15:29:46Z</time>
      </trkpt>
      <trkpt lat="46.459824023768306" lon="5.082660019397736">
        <ele>201.05000000000001</ele>
        <time>2025-04-23T15:29:47Z</time>
      </trkpt>
      <trkpt lat="46.459769960492849" lon="5.082635963335633">
        <ele>201.05000000000001</ele>
        <time>2025-04-23T15:29:48Z</time>
      </trkpt>
      <trkpt lat="46.459715981036425" lon="5.082610985264182">
        <ele>201.05000000000001</ele>
        <time>2025-04-23T15:29:49Z</time>
      </trkpt>
      <trkpt lat="46.459481036290526" lon="5.082479976117611">
        <ele>201.05000000000001</ele>
        <time>2025-04-23T15:29:54Z</time>
      </trkpt>
      <trkpt lat="46.459456980228424" lon="5.082463966682553">
        <ele>201.05000000000001</ele>
        <time>2025-04-23T15:29:55Z</time>
      </trkpt>
      <trkpt lat="46.459438037127256" lon="5.082451980561018">
        <ele>201.05000000000001</ele>
        <time>2025-04-23T15:29:56Z</time>
      </trkpt>
      <trkpt lat="46.459423033520579" lon="5.082443011924624">
        <ele>201.05000000000001</ele>
        <time>2025-04-23T15:29:57Z</time>
      </trkpt>
      <trkpt lat="46.459401994943619" lon="5.082459021359682">
        <ele>201.05000000000001</ele>
        <time>2025-04-23T15:29:58Z</time>
      </trkpt>
      <trkpt lat="46.459373999387026" lon="5.082479976117611">
        <ele>201.05000000000001</ele>
        <time>2025-04-23T15:29:59Z</time>
      </trkpt>
      <trkpt lat="46.459337035194039" lon="5.082508977502585">
        <ele>201.05000000000001</ele>
        <time>2025-04-23T15:30:00Z</time>
      </trkpt>
      <trkpt lat="46.459285989403725" lon="5.082548037171364">
        <ele>200.56999999999999</ele>
        <time>2025-04-23T15:30:01Z</time>
      </trkpt>
      <trkpt lat="46.459228992462158" lon="5.082591958343983">
        <ele>200.56999999999999</ele>
        <time>2025-04-23T15:30:02Z</time>
      </trkpt>
      <trkpt lat="46.459015002474189" lon="5.082721961662173">
        <ele>200.56999999999999</ele>
        <time>2025-04-23T15:30:05Z</time>
      </trkpt>
      <trkpt lat="46.458940990269184" lon="5.082763032987714">
        <ele>200.56999999999999</ele>
        <time>2025-04-23T15:30:06Z</time>
      </trkpt>
      <trkpt lat="46.458026021718979" lon="5.083237029612064">
        <ele>200.09</ele>
        <time>2025-04-23T15:30:17Z</time>
      </trkpt>
      <trkpt lat="46.457760985940695" lon="5.083369966596365">
        <ele>201.53</ele>
        <time>2025-04-23T15:30:21Z</time>
      </trkpt>
      <trkpt lat="46.457646992057562" lon="5.083423024043441">
        <ele>202.00999999999999</ele>
        <time>2025-04-23T15:30:24Z</time>
      </trkpt>
      <trkpt lat="46.457641962915659" lon="5.083537017926574">
        <ele>202.49000000000001</ele>
        <time>2025-04-23T15:30:25Z</time>
      </trkpt>
      <trkpt lat="46.457612961530685" lon="5.083498964086175">
        <ele>202.97999999999999</ele>
        <time>2025-04-23T15:30:26Z</time>
      </trkpt>
      <trkpt lat="46.457646992057562" lon="5.083424029871821">
        <ele>203.46000000000001</ele>
        <time>2025-04-23T15:30:27Z</time>
      </trkpt>
      <trkpt lat="46.457654032856226" lon="5.08342101238668">
        <ele>203.94</ele>
        <time>2025-04-23T15:30:28Z</time>
      </trkpt>
      <trkpt lat="46.457664007321" lon="5.083416989073157">
        <ele>204.41999999999999</ele>
        <time>2025-04-23T15:30:29Z</time>
      </trkpt>
      <trkpt lat="46.457684962078929" lon="5.083408020436764">
        <ele>204.90000000000001</ele>
        <time>2025-04-23T15:30:30Z</time>
      </trkpt>
      <trkpt lat="46.457696026191115" lon="5.08340198546648">
        <ele>204.90000000000001</ele>
        <time>2025-04-23T15:30:31Z</time>
      </trkpt>
      <trkpt lat="46.457726033404469" lon="5.083387987688184">
        <ele>204.90000000000001</ele>
        <time>2025-04-23T15:30:32Z</time>
      </trkpt>
      <trkpt lat="46.457766015082598" lon="5.083368038758636">
        <ele>204.90000000000001</ele>
        <time>2025-04-23T15:30:33Z</time>
      </trkpt>
      <trkpt lat="46.45781496539712" lon="5.083342976868153">
        <ele>204.41999999999999</ele>
        <time>2025-04-23T15:30:34Z</time>
      </trkpt>
      <trkpt lat="46.457866011187434" lon="5.083317998796701">
        <ele>204.90000000000001</ele>
        <time>2025-04-23T15:30:35Z</time>
      </trkpt>
      <trkpt lat="46.457926025614142" lon="5.083287991583347">
        <ele>204.90000000000001</ele>
        <time>2025-04-23T15:30:36Z</time>
      </trkpt>
      <trkpt lat="46.457989979535341" lon="5.083255972713232">
        <ele>204.90000000000001</ele>
        <time>2025-04-23T15:30:37Z</time>
      </trkpt>
      <trkpt lat="46.45865298807621" lon="5.082922959700227">
        <ele>205.86000000000001</ele>
        <time>2025-04-23T15:30:46Z</time>
      </trkpt>
      <trkpt lat="46.459143999963999" lon="5.082657001912594">
        <ele>205.38</ele>
        <time>2025-04-23T15:30:53Z</time>
      </trkpt>
      <trkpt lat="46.459223963320255" lon="5.082595981657505">
        <ele>205.86000000000001</ele>
        <time>2025-04-23T15:30:55Z</time>
      </trkpt>
      <trkpt lat="46.459367964416742" lon="5.082485005259514">
        <ele>206.81999999999999</ele>
        <time>2025-04-23T15:31:00Z</time>
      </trkpt>
      <trkpt lat="46.459423033520579" lon="5.082437982782722">
        <ele>207.30000000000001</ele>
        <time>2025-04-23T15:31:01Z</time>
      </trkpt>
      <trkpt lat="46.45942403934896" lon="5.082403030246496">
        <ele>207.78</ele>
        <time>2025-04-23T15:31:02Z</time>
      </trkpt>
      <trkpt lat="46.459424961358309" lon="5.082362964749336">
        <ele>207.78</ele>
        <time>2025-04-23T15:31:03Z</time>
      </trkpt>
      <trkpt lat="46.45942697301507" lon="5.082322983071208">
        <ele>207.78</ele>
        <time>2025-04-23T15:31:04Z</time>
      </trkpt>
      <trkpt lat="46.459442982450128" lon="5.081837000325322">
        <ele>206.81999999999999</ele>
        <time>2025-04-23T15:31:14Z</time>
      </trkpt>
      <trkpt lat="46.459450023248792" lon="5.081723006442189">
        <ele>207.30000000000001</ele>
        <time>2025-04-23T15:31:16Z</time>
      </trkpt>
      <trkpt lat="46.459459997713566" lon="5.081593003123999">
        <ele>207.30000000000001</ele>
        <time>2025-04-23T15:31:18Z</time>
      </trkpt>
      <trkpt lat="46.459465026855469" lon="5.081527959555388">
        <ele>207.30000000000001</ele>
        <time>2025-04-23T15:31:19Z</time>
      </trkpt>
      <trkpt lat="46.459470978006721" lon="5.081454031169415">
        <ele>207.30000000000001</ele>
        <time>2025-04-23T15:31:20Z</time>
      </trkpt>
      <trkpt lat="46.459483969956636" lon="5.081292008981109">
        <ele>207.78</ele>
        <time>2025-04-23T15:31:22Z</time>
      </trkpt>
      <trkpt lat="46.459491010755301" lon="5.081203998997808">
        <ele>207.78</ele>
        <time>2025-04-23T15:31:23Z</time>
      </trkpt>
      <trkpt lat="46.459515988826752" lon="5.080881966277957">
        <ele>207.78</ele>
        <time>2025-04-23T15:31:27Z</time>
      </trkpt>
      <trkpt lat="46.459529986605048" lon="5.080705024302006">
        <ele>207.78</ele>
        <time>2025-04-23T15:31:28Z</time>
      </trkpt>
      <trkpt lat="46.459544990211725" lon="5.080642998218536">
        <ele>207.78</ele>
        <time>2025-04-23T15:31:30Z</time>
      </trkpt>
      <trkpt lat="46.459617996588349" lon="5.079975966364145">
        <ele>207.78</ele>
        <time>2025-04-23T15:31:37Z</time>
      </trkpt>
      <trkpt lat="46.459628976881504" lon="5.079872030764818">
        <ele>207.78</ele>
        <time>2025-04-23T15:31:38Z</time>
      </trkpt>
      <trkpt lat="46.459674993529916" lon="5.079396022483707">
        <ele>208.74000000000001</ele>
        <time>2025-04-23T15:31:43Z</time>
      </trkpt>
      <trkpt lat="46.459694020450115" lon="5.079192006960511">
        <ele>207.78</ele>
        <time>2025-04-23T15:31:46Z</time>
      </trkpt>
      <trkpt lat="46.459700977429748" lon="5.079126041382551">
        <ele>207.78</ele>
        <time>2025-04-23T15:31:47Z</time>
      </trkpt>
      <trkpt lat="46.459744982421398" lon="5.079010035842657">
        <ele>207.78</ele>
        <time>2025-04-23T15:31:48Z</time>
      </trkpt>
      <trkpt lat="46.459732996299863" lon="5.078985979780555">
        <ele>207.78</ele>
        <time>2025-04-23T15:31:49Z</time>
      </trkpt>
      <trkpt lat="46.459701983258128" lon="5.078924037516117">
        <ele>207.78</ele>
        <time>2025-04-23T15:31:50Z</time>
      </trkpt>
      <trkpt lat="46.459599975496531" lon="5.078900987282395">
        <ele>207.78</ele>
        <time>2025-04-23T15:31:51Z</time>
      </trkpt>
      <trkpt lat="46.459569968283176" lon="5.078815994784236">
        <ele>207.78</ele>
        <time>2025-04-23T15:31:52Z</time>
      </trkpt>
      <trkpt lat="46.459538033232093" lon="5.078723039478064">
        <ele>207.78</ele>
        <time>2025-04-23T15:31:53Z</time>
      </trkpt>
      <trkpt lat="46.459504002705216" lon="5.078626982867718">
        <ele>207.78</ele>
        <time>2025-04-23T15:31:54Z</time>
      </trkpt>
      <trkpt lat="46.459449017420411" lon="5.078421039506793">
        <ele>207.78</ele>
        <time>2025-04-23T15:31:56Z</time>
      </trkpt>
      <trkpt lat="46.459429990500212" lon="5.078306961804628">
        <ele>207.78</ele>
        <time>2025-04-23T15:31:57Z</time>
      </trkpt>
      <trkpt lat="46.459136959165335" lon="5.076618008315563">
        <ele>205.86000000000001</ele>
        <time>2025-04-23T15:32:10Z</time>
      </trkpt>
      <trkpt lat="46.458909977227449" lon="5.075300959870219">
        <ele>206.34</ele>
        <time>2025-04-23T15:32:19Z</time>
      </trkpt>
      <trkpt lat="46.458877036347985" lon="5.0751309748739">
        <ele>206.34</ele>
        <time>2025-04-23T15:32:20Z</time>
      </trkpt>
      <trkpt lat="46.458559026941657" lon="5.073256026953459">
        <ele>206.34</ele>
        <time>2025-04-23T15:32:30Z</time>
      </trkpt>
      <trkpt lat="46.458176979795098" lon="5.071128029376268">
        <ele>206.34</ele>
        <time>2025-04-23T15:32:41Z</time>
      </trkpt>
      <trkpt lat="46.457876991480589" lon="5.069381995126605">
        <ele>206.34</ele>
        <time>2025-04-23T15:32:50Z</time>
      </trkpt>
      <trkpt lat="46.45774899981916" lon="5.068634999915958">
        <ele>207.30000000000001</ele>
        <time>2025-04-23T15:32:55Z</time>
      </trkpt>
      <trkpt lat="46.457731984555721" lon="5.068541038781405">
        <ele>207.30000000000001</ele>
        <time>2025-04-23T15:32:56Z</time>
      </trkpt>
      <trkpt lat="46.457774983718991" lon="5.068355966359377">
        <ele>207.78</ele>
        <time>2025-04-23T15:32:57Z</time>
      </trkpt>
      <trkpt lat="46.457827035337687" lon="5.068331994116306">
        <ele>207.78</ele>
        <time>2025-04-23T15:32:58Z</time>
      </trkpt>
      <trkpt lat="46.457887971773744" lon="5.068302992731333">
        <ele>208.25999999999999</ele>
        <time>2025-04-23T15:32:59Z</time>
      </trkpt>
      <trkpt lat="46.457951003685594" lon="5.068273991346359">
        <ele>208.25999999999999</ele>
        <time>2025-04-23T15:33:00Z</time>
      </trkpt>
      <trkpt lat="46.458009006455541" lon="5.068248007446528">
        <ele>207.78</ele>
        <time>2025-04-23T15:33:01Z</time>
      </trkpt>
      <trkpt lat="46.458059968426824" lon="5.068224035203457">
        <ele>207.78</ele>
        <time>2025-04-23T15:33:02Z</time>
      </trkpt>
      <trkpt lat="46.458101961761713" lon="5.068204002454877">
        <ele>208.25999999999999</ele>
        <time>2025-04-23T15:33:03Z</time>
      </trkpt>
      <trkpt lat="46.458178991451859" lon="5.068167960271239">
        <ele>208.25999999999999</ele>
        <time>2025-04-23T15:33:05Z</time>
      </trkpt>
      <trkpt lat="46.458216961473227" lon="5.068151028826833">
        <ele>208.74000000000001</ele>
        <time>2025-04-23T15:33:06Z</time>
      </trkpt>
      <trkpt lat="46.458316035568714" lon="5.068149017170072">
        <ele>209.22</ele>
        <time>2025-04-23T15:33:07Z</time>
      </trkpt>
      <trkpt lat="46.45832902751863" lon="5.068206014111638">
        <ele>209.69999999999999</ele>
        <time>2025-04-23T15:33:08Z</time>
      </trkpt>
      <trkpt lat="46.458345958963037" lon="5.068277008831501">
        <ele>209.69999999999999</ele>
        <time>2025-04-23T15:33:09Z</time>
      </trkpt>
      <trkpt lat="46.458363980054855" lon="5.068354038521648">
        <ele>210.19</ele>
        <time>2025-04-23T15:33:10Z</time>
      </trkpt>
      <trkpt lat="46.458379989489913" lon="5.068423021584749">
        <ele>210.66999999999999</ele>
        <time>2025-04-23T15:33:11Z</time>
      </trkpt>
      <trkpt lat="46.458393987268209" lon="5.068482030183077">
        <ele>210.66999999999999</ele>
        <time>2025-04-23T15:33:12Z</time>
      </trkpt>
      <trkpt lat="46.458405973389745" lon="5.068535003811121">
        <ele>211.15000000000001</ele>
        <time>2025-04-23T15:33:13Z</time>
      </trkpt>
      <trkpt lat="46.458416031673551" lon="5.068578002974391">
        <ele>211.15000000000001</ele>
        <time>2025-04-23T15:33:14Z</time>
      </trkpt>
      <trkpt lat="46.458330033347011" lon="5.068657966330648">
        <ele>211.15000000000001</ele>
        <time>2025-04-23T15:33:15Z</time>
      </trkpt>
      <trkpt lat="46.458201035857201" lon="5.0688970182091">
        <ele>211.15000000000001</ele>
        <time>2025-04-23T15:33:23Z</time>
      </trkpt>
      <trkpt lat="46.458210004493594" lon="5.068969018757343">
        <ele>211.15000000000001</ele>
        <time>2025-04-23T15:33:38Z</time>
      </trkpt>
      <trkpt lat="46.458203969523311" lon="5.068977987393737">
        <ele>211.15000000000001</ele>
        <time>2025-04-23T15:34:20Z</time>
      </trkpt>
      <trkpt lat="46.458173962309957" lon="5.068956026807427">
        <ele>208.74000000000001</ele>
        <time>2025-04-23T15:40:58Z</time>
      </trkpt>
      <trkpt lat="46.458204975351691" lon="5.06896298378706">
        <ele>219.80000000000001</ele>
        <time>2025-04-23T15:41:14Z</time>
      </trkpt>
      <trkpt lat="46.458332967013121" lon="5.069045964628458">
        <ele>219.31999999999999</ele>
        <time>2025-04-23T15:41:53Z</time>
      </trkpt>
      <trkpt lat="46.458379989489913" lon="5.06902601569891">
        <ele>228.44999999999999</ele>
        <time>2025-04-23T15:42:39Z</time>
      </trkpt>
      <trkpt lat="46.458379989489913" lon="5.069029033184052">
        <ele>228.44999999999999</ele>
        <time>2025-04-23T15:43:22Z</time>
      </trkpt>
      <trkpt lat="46.458379989489913" lon="5.069029033184052">
        <ele>228.44999999999999</ele>
        <time>2025-04-23T15:43:52Z</time>
      </trkpt>
      <trkpt lat="46.458328021690249" lon="5.069117965176702">
        <ele>227.97</ele>
        <time>2025-04-23T15:43:58Z</time>
      </trkpt>
      <trkpt lat="46.458520973101258" lon="5.069031966850162">
        <ele>221.24000000000001</ele>
        <time>2025-04-23T15:44:06Z</time>
      </trkpt>
      <trkpt lat="46.458520973101258" lon="5.069028027355671">
        <ele>220.28</ele>
        <time>2025-04-23T15:44:07Z</time>
      </trkpt>
      <trkpt lat="46.458506975322962" lon="5.068968012928963">
        <ele>218.84</ele>
        <time>2025-04-23T15:44:08Z</time>
      </trkpt>
      <trkpt lat="46.458491971716285" lon="5.068904981017113">
        <ele>217.88</ele>
        <time>2025-04-23T15:44:09Z</time>
      </trkpt>
      <trkpt lat="46.458476968109608" lon="5.068842032924295">
        <ele>216.91</ele>
        <time>2025-04-23T15:44:10Z</time>
      </trkpt>
      <trkpt lat="46.458462970331311" lon="5.068779001012445">
        <ele>216.43000000000001</ele>
        <time>2025-04-23T15:44:11Z</time>
      </trkpt>
      <trkpt lat="46.458369009196758" lon="5.068377004936338">
        <ele>214.99000000000001</ele>
        <time>2025-04-23T15:44:17Z</time>
      </trkpt>
      <trkpt lat="46.458359034731984" lon="5.068330988287926">
        <ele>214.99000000000001</ele>
        <time>2025-04-23T15:44:18Z</time>
      </trkpt>
      <trkpt lat="46.458306983113289" lon="5.068109035491943">
        <ele>214.50999999999999</ele>
        <time>2025-04-23T15:44:19Z</time>
      </trkpt>
      <trkpt lat="46.458306983113289" lon="5.068109035491943">
        <ele>214.03</ele>
        <time>2025-04-23T15:44:20Z</time>
      </trkpt>
      <trkpt lat="46.458303965628147" lon="5.068110963329673">
        <ele>213.55000000000001</ele>
        <time>2025-04-23T15:44:21Z</time>
      </trkpt>
      <trkpt lat="46.458330033347011" lon="5.068208025768399">
        <ele>213.55000000000001</ele>
        <time>2025-04-23T15:44:22Z</time>
      </trkpt>
      <trkpt lat="46.458247974514961" lon="5.068136025220156">
        <ele>213.06999999999999</ele>
        <time>2025-04-23T15:44:23Z</time>
      </trkpt>
      <trkpt lat="46.458211010321975" lon="5.068153040483594">
        <ele>212.59</ele>
        <time>2025-04-23T15:44:24Z</time>
      </trkpt>
      <trkpt lat="46.458162982016802" lon="5.068176006898284">
        <ele>212.59</ele>
        <time>2025-04-23T15:44:25Z</time>
      </trkpt>
      <trkpt lat="46.458102967590094" lon="5.068204002454877">
        <ele>212.11000000000001</ele>
        <time>2025-04-23T15:44:26Z</time>
      </trkpt>
      <trkpt lat="46.457789987325668" lon="5.068349009379745">
        <ele>213.55000000000001</ele>
        <time>2025-04-23T15:44:31Z</time>
      </trkpt>
      <trkpt lat="46.457752017304301" lon="5.068366024643183">
        <ele>213.55000000000001</ele>
        <time>2025-04-23T15:44:32Z</time>
      </trkpt>
      <trkpt lat="46.457680016756058" lon="5.068239960819483">
        <ele>214.03</ele>
        <time>2025-04-23T15:44:33Z</time>
      </trkpt>
      <trkpt lat="46.457666018977761" lon="5.068162009119988">
        <ele>214.50999999999999</ele>
        <time>2025-04-23T15:44:34Z</time>
      </trkpt>
      <trkpt lat="46.457626037299633" lon="5.067938966676593">
        <ele>214.50999999999999</ele>
        <time>2025-04-23T15:44:36Z</time>
      </trkpt>
      <trkpt lat="46.45759996958077" lon="5.067794965580106">
        <ele>214.99000000000001</ele>
        <time>2025-04-23T15:44:37Z</time>
      </trkpt>
      <trkpt lat="46.457286989316344" lon="5.066082961857319">
        <ele>214.99000000000001</ele>
        <time>2025-04-23T15:44:46Z</time>
      </trkpt>
      <trkpt lat="46.456903014332056" lon="5.063856979832053">
        <ele>213.55000000000001</ele>
        <time>2025-04-23T15:44:55Z</time>
      </trkpt>
      <trkpt lat="46.456191977486014" lon="5.059801982715726">
        <ele>210.66999999999999</ele>
        <time>2025-04-23T15:45:09Z</time>
      </trkpt>
      <trkpt lat="46.455565011128783" lon="5.056254006922245">
        <ele>210.66999999999999</ele>
        <time>2025-04-23T15:45:21Z</time>
      </trkpt>
      <trkpt lat="46.45474299788475" lon="5.051519991829991">
        <ele>210.66999999999999</ele>
        <time>2025-04-23T15:45:37Z</time>
      </trkpt>
      <trkpt lat="46.454025004059076" lon="5.047540012747049">
        <ele>210.19</ele>
        <time>2025-04-23T15:45:50Z</time>
      </trkpt>
      <trkpt lat="46.453292006626725" lon="5.043302038684487">
        <ele>208.74000000000001</ele>
        <time>2025-04-23T15:46:04Z</time>
      </trkpt>
      <trkpt lat="46.452580969780684" lon="5.039265984669328">
        <ele>206.81999999999999</ele>
        <time>2025-04-23T15:46:18Z</time>
      </trkpt>
      <trkpt lat="46.452003959566355" lon="5.03600399941206">
        <ele>206.81999999999999</ele>
        <time>2025-04-23T15:46:29Z</time>
      </trkpt>
      <trkpt lat="46.451535997912288" lon="5.033307038247585">
        <ele>213.06999999999999</ele>
        <time>2025-04-23T15:46:38Z</time>
      </trkpt>
      <trkpt lat="46.450842982158065" lon="5.029332004487515">
        <ele>213.06999999999999</ele>
        <time>2025-04-23T15:46:51Z</time>
      </trkpt>
      <trkpt lat="46.450206963345408" lon="5.025787968188524">
        <ele>214.03</ele>
        <time>2025-04-23T15:47:03Z</time>
      </trkpt>
      <trkpt lat="46.449492992833257" lon="5.021646972745657">
        <ele>215.94999999999999</ele>
        <time>2025-04-23T15:47:18Z</time>
      </trkpt>
      <trkpt lat="46.448767958208919" lon="5.017539002001286">
        <ele>214.99000000000001</ele>
        <time>2025-04-23T15:47:32Z</time>
      </trkpt>
      <trkpt lat="46.448117019608617" lon="5.013836966827512">
        <ele>214.99000000000001</ele>
        <time>2025-04-23T15:47:44Z</time>
      </trkpt>
      <trkpt lat="46.44737396389246" lon="5.009652972221375">
        <ele>213.06999999999999</ele>
        <time>2025-04-23T15:47:58Z</time>
      </trkpt>
      <trkpt lat="46.446773987263441" lon="5.006166016682982">
        <ele>213.06999999999999</ele>
        <time>2025-04-23T15:48:10Z</time>
      </trkpt>
      <trkpt lat="46.446092035621405" lon="5.00231402926147">
        <ele>214.99000000000001</ele>
        <time>2025-04-23T15:48:23Z</time>
      </trkpt>
      <trkpt lat="46.445314027369022" lon="4.997816970571876">
        <ele>214.50999999999999</ele>
        <time>2025-04-23T15:48:38Z</time>
      </trkpt>
      <trkpt lat="46.444583963602781" lon="4.99367798678577">
        <ele>213.06999999999999</ele>
        <time>2025-04-23T15:48:53Z</time>
      </trkpt>
      <trkpt lat="46.443903017789125" lon="4.989858018234372">
        <ele>208.74000000000001</ele>
        <time>2025-04-23T15:49:05Z</time>
      </trkpt>
      <trkpt lat="46.443485012277961" lon="4.987444030120969">
        <ele>207.30000000000001</ele>
        <time>2025-04-23T15:49:14Z</time>
      </trkpt>
      <trkpt lat="46.44296801649034" lon="4.984479015693069">
        <ele>207.78</ele>
        <time>2025-04-23T15:49:25Z</time>
      </trkpt>
      <trkpt lat="46.442472981289029" lon="4.981763027608395">
        <ele>211.63</ele>
        <time>2025-04-23T15:49:35Z</time>
      </trkpt>
      <trkpt lat="46.441848026588559" lon="4.978259978815913">
        <ele>214.50999999999999</ele>
        <time>2025-04-23T15:49:48Z</time>
      </trkpt>
      <trkpt lat="46.441395990550518" lon="4.975693020969629">
        <ele>215.94999999999999</ele>
        <time>2025-04-23T15:49:58Z</time>
      </trkpt>
      <trkpt lat="46.441048979759216" lon="4.973778007552028">
        <ele>214.99000000000001</ele>
        <time>2025-04-23T15:50:08Z</time>
      </trkpt>
      <trkpt lat="46.440644972026348" lon="4.971501985564828">
        <ele>213.06999999999999</ele>
        <time>2025-04-23T15:50:18Z</time>
      </trkpt>
      <trkpt lat="46.440280023962259" lon="4.96942101046443">
        <ele>212.11000000000001</ele>
        <time>2025-04-23T15:50:27Z</time>
      </trkpt>
      <trkpt lat="46.440069973468781" lon="4.968234971165657">
        <ele>212.11000000000001</ele>
        <time>2025-04-23T15:50:35Z</time>
      </trkpt>
      <trkpt lat="46.439822036772966" lon="4.96690702624619">
        <ele>213.06999999999999</ele>
        <time>2025-04-23T15:50:46Z</time>
      </trkpt>
      <trkpt lat="46.439549038186669" lon="4.965390991419554">
        <ele>210.19</ele>
        <time>2025-04-23T15:50:56Z</time>
      </trkpt>
      <trkpt lat="46.439277967438102" lon="4.963895995169878">
        <ele>210.19</ele>
        <time>2025-04-23T15:51:04Z</time>
      </trkpt>
      <trkpt lat="46.438873959705234" lon="4.961598012596369">
        <ele>211.63</ele>
        <time>2025-04-23T15:51:15Z</time>
      </trkpt>
      <trkpt lat="46.438484033569694" lon="4.959320984780788">
        <ele>207.30000000000001</ele>
        <time>2025-04-23T15:51:24Z</time>
      </trkpt>
      <trkpt lat="46.438031997531652" lon="4.956741034984589">
        <ele>204.90000000000001</ele>
        <time>2025-04-23T15:51:34Z</time>
      </trkpt>
      <trkpt lat="46.437525982037187" lon="4.953885991126299">
        <ele>205.38</ele>
        <time>2025-04-23T15:51:46Z</time>
      </trkpt>
      <trkpt lat="46.437439983710647" lon="4.953301018103957">
        <ele>204.90000000000001</ele>
        <time>2025-04-23T15:51:51Z</time>
      </trkpt>
      <trkpt lat="46.437493041157722" lon="4.953138995915651">
        <ele>204.41999999999999</ele>
        <time>2025-04-23T15:51:52Z</time>
      </trkpt>
      <trkpt lat="46.437495974823833" lon="4.953111000359058">
        <ele>204.41999999999999</ele>
        <time>2025-04-23T15:51:53Z</time>
      </trkpt>
      <trkpt lat="46.437504021450877" lon="4.953034976497293">
        <ele>203.94</ele>
        <time>2025-04-23T15:51:54Z</time>
      </trkpt>
      <trkpt lat="46.437472002580762" lon="4.952916037291288">
        <ele>203.46000000000001</ele>
        <time>2025-04-23T15:51:55Z</time>
      </trkpt>
      <trkpt lat="46.437423974275589" lon="4.952881000936031">
        <ele>203.46000000000001</ele>
        <time>2025-04-23T15:51:56Z</time>
      </trkpt>
      <trkpt lat="46.437357002869248" lon="4.952799025923014">
        <ele>203.46000000000001</ele>
        <time>2025-04-23T15:51:57Z</time>
      </trkpt>
      <trkpt lat="46.437334036454558" lon="4.9526840262115">
        <ele>203.46000000000001</ele>
        <time>2025-04-23T15:51:58Z</time>
      </trkpt>
      <trkpt lat="46.437308974564075" lon="4.952552011236548">
        <ele>203.46000000000001</ele>
        <time>2025-04-23T15:51:59Z</time>
      </trkpt>
      <trkpt lat="46.437280979007483" lon="4.952408010140061">
        <ele>203.94</ele>
        <time>2025-04-23T15:52:00Z</time>
      </trkpt>
      <trkpt lat="46.437251977622509" lon="4.952258979901671">
        <ele>203.94</ele>
        <time>2025-04-23T15:52:01Z</time>
      </trkpt>
      <trkpt lat="46.436928017064929" lon="4.950368022546172">
        <ele>202.00999999999999</ele>
        <time>2025-04-23T15:52:12Z</time>
      </trkpt>
      <trkpt lat="46.436555022373796" lon="4.948241030797362">
        <ele>197.69</ele>
        <time>2025-04-23T15:52:23Z</time>
      </trkpt>
      <trkpt lat="46.436262996867299" lon="4.946614019572735">
        <ele>192.40000000000001</ele>
        <time>2025-04-23T15:52:32Z</time>
      </trkpt>
      <trkpt lat="46.435926966369152" lon="4.944657012820244">
        <ele>185.66999999999999</ele>
        <time>2025-04-23T15:52:44Z</time>
      </trkpt>
      <trkpt lat="46.435562018305063" lon="4.942487021908164">
        <ele>183.27000000000001</ele>
        <time>2025-04-23T15:52:57Z</time>
      </trkpt>
      <trkpt lat="46.4352320227772" lon="4.940659012645483">
        <ele>178.94</ele>
        <time>2025-04-23T15:53:08Z</time>
      </trkpt>
      <trkpt lat="46.435142001137137" lon="4.940076973289251">
        <ele>176.06</ele>
        <time>2025-04-23T15:53:14Z</time>
      </trkpt>
      <trkpt lat="46.435134038329124" lon="4.940023999661207">
        <ele>175.09999999999999</ele>
        <time>2025-04-23T15:53:15Z</time>
      </trkpt>
      <trkpt lat="46.435129009187222" lon="4.939987035468221">
        <ele>174.62</ele>
        <time>2025-04-23T15:53:16Z</time>
      </trkpt>
      <trkpt lat="46.435122974216938" lon="4.939944036304951">
        <ele>174.13999999999999</ele>
        <time>2025-04-23T15:53:17Z</time>
      </trkpt>
      <trkpt lat="46.435218024998903" lon="4.939834987744689">
        <ele>173.66</ele>
        <time>2025-04-23T15:53:18Z</time>
      </trkpt>
      <trkpt lat="46.435220958665013" lon="4.939807998016477">
        <ele>173.16999999999999</ele>
        <time>2025-04-23T15:53:19Z</time>
      </trkpt>
      <trkpt lat="46.435229005292058" lon="4.939743038266897">
        <ele>173.16999999999999</ele>
        <time>2025-04-23T15:53:20Z</time>
      </trkpt>
      <trkpt lat="46.435177959501743" lon="4.939606999978423">
        <ele>173.16999999999999</ele>
        <time>2025-04-23T15:53:21Z</time>
      </trkpt>
      <trkpt lat="46.435124985873699" lon="4.93957799859345">
        <ele>173.16999999999999</ele>
        <time>2025-04-23T15:53:22Z</time>
      </trkpt>
      <trkpt lat="46.435047034174204" lon="4.93953499943018">
        <ele>173.16999999999999</ele>
        <time>2025-04-23T15:53:23Z</time>
      </trkpt>
      <trkpt lat="46.435000011697412" lon="4.939499963074923">
        <ele>173.16999999999999</ele>
        <time>2025-04-23T15:53:24Z</time>
      </trkpt>
      <trkpt lat="46.434196019545197" lon="4.938938040286303">
        <ele>173.66</ele>
        <time>2025-04-23T15:53:36Z</time>
      </trkpt>
      <trkpt lat="46.433413987979293" lon="4.938346026465297">
        <ele>170.77000000000001</ele>
        <time>2025-04-23T15:53:48Z</time>
      </trkpt>
      <trkpt lat="46.433324972167611" lon="4.93824795819819">
        <ele>170.77000000000001</ele>
        <time>2025-04-23T15:53:50Z</time>
      </trkpt>
      <trkpt lat="46.433285996317863" lon="4.93820495903492">
        <ele>170.77000000000001</ele>
        <time>2025-04-23T15:53:51Z</time>
      </trkpt>
      <trkpt lat="46.433265963569283" lon="4.938122984021902">
        <ele>170.77000000000001</ele>
        <time>2025-04-23T15:53:52Z</time>
      </trkpt>
      <trkpt lat="46.433265963569283" lon="4.938067998737097">
        <ele>170.77000000000001</ele>
        <time>2025-04-23T15:53:53Z</time>
      </trkpt>
      <trkpt lat="46.433265963569283" lon="4.938003960996866">
        <ele>170.28999999999999</ele>
        <time>2025-04-23T15:53:54Z</time>
      </trkpt>
      <trkpt lat="46.433265963569283" lon="4.937917040660977">
        <ele>170.28999999999999</ele>
        <time>2025-04-23T15:53:55Z</time>
      </trkpt>
      <trkpt lat="46.433276021853089" lon="4.937799023464322">
        <ele>169.81</ele>
        <time>2025-04-23T15:53:56Z</time>
      </trkpt>
      <trkpt lat="46.433508032932878" lon="4.937316980212927">
        <ele>168.37</ele>
        <time>2025-04-23T15:54:01Z</time>
      </trkpt>
      <trkpt lat="46.433553965762258" lon="4.937212960794568">
        <ele>167.88999999999999</ele>
        <time>2025-04-23T15:54:02Z</time>
      </trkpt>
      <trkpt lat="46.433602999895811" lon="4.937102990224958">
        <ele>167.88999999999999</ele>
        <time>2025-04-23T15:54:03Z</time>
      </trkpt>
      <trkpt lat="46.433914974331856" lon="4.936323976144195">
        <ele>165.47999999999999</ele>
        <time>2025-04-23T15:54:10Z</time>
      </trkpt>
      <trkpt lat="46.433964008465409" lon="4.936201013624668">
        <ele>164.52000000000001</ele>
        <time>2025-04-23T15:54:11Z</time>
      </trkpt>
      <trkpt lat="46.433974988758564" lon="4.935886021703482">
        <ele>162.12</ele>
        <time>2025-04-23T15:54:13Z</time>
      </trkpt>
      <trkpt lat="46.43448201008141" lon="4.934978010132909">
        <ele>156.83000000000001</ele>
        <time>2025-04-23T15:54:19Z</time>
      </trkpt>
      <trkpt lat="46.435159016400576" lon="4.933573035523295">
        <ele>154.91</ele>
        <time>2025-04-23T15:54:29Z</time>
      </trkpt>
      <trkpt lat="46.435816995799541" lon="4.932748004794121">
        <ele>158.75</ele>
        <time>2025-04-23T15:54:39Z</time>
      </trkpt>
      <trkpt lat="46.436762977391481" lon="4.931954992935062">
        <ele>162.59999999999999</ele>
        <time>2025-04-23T15:54:48Z</time>
      </trkpt>
      <trkpt lat="46.437842985615134" lon="4.93115502409637">
        <ele>164.03999999999999</ele>
        <time>2025-04-23T15:54:54Z</time>
      </trkpt>
      <trkpt lat="46.439574016258121" lon="4.929849039763212">
        <ele>164.52000000000001</ele>
        <time>2025-04-23T15:55:03Z</time>
      </trkpt>
      <trkpt lat="46.441087033599615" lon="4.928564010187984">
        <ele>166.44999999999999</ele>
        <time>2025-04-23T15:55:12Z</time>
      </trkpt>
      <trkpt lat="46.441505961120129" lon="4.928057994693518">
        <ele>166.44999999999999</ele>
        <time>2025-04-23T15:55:15Z</time>
      </trkpt>
      <trkpt lat="46.442694012075663" lon="4.926120014861226">
        <ele>166.93000000000001</ele>
        <time>2025-04-23T15:55:25Z</time>
      </trkpt>
      <trkpt lat="46.443427009508014" lon="4.924320001155138">
        <ele>167.41</ele>
        <time>2025-04-23T15:55:33Z</time>
      </trkpt>
      <trkpt lat="46.443792963400483" lon="4.922511018812656">
        <ele>165.47999999999999</ele>
        <time>2025-04-23T15:55:39Z</time>
      </trkpt>
      <trkpt lat="46.444159001111984" lon="4.920088984072208">
        <ele>164.03999999999999</ele>
        <time>2025-04-23T15:55:46Z</time>
      </trkpt>
      <trkpt lat="46.444572983309627" lon="4.917343994602561">
        <ele>168.37</ele>
        <time>2025-04-23T15:55:55Z</time>
      </trkpt>
      <trkpt lat="46.445002974942327" lon="4.914493979886174">
        <ele>168.37</ele>
        <time>2025-04-23T15:56:05Z</time>
      </trkpt>
      <trkpt lat="46.445595994591713" lon="4.910540990531445">
        <ele>168.37</ele>
        <time>2025-04-23T15:56:19Z</time>
      </trkpt>
      <trkpt lat="46.445925990119576" lon="4.908337974920869">
        <ele>169.33000000000001</ele>
        <time>2025-04-23T15:56:27Z</time>
      </trkpt>
      <trkpt lat="46.446295967325568" lon="4.905870007351041">
        <ele>169.81</ele>
        <time>2025-04-23T15:56:36Z</time>
      </trkpt>
      <trkpt lat="46.446737023070455" lon="4.902929970994592">
        <ele>169.33000000000001</ele>
        <time>2025-04-23T15:56:47Z</time>
      </trkpt>
      <trkpt lat="46.447077998891473" lon="4.900655960664153">
        <ele>165.47999999999999</ele>
        <time>2025-04-23T15:56:56Z</time>
      </trkpt>
      <trkpt lat="46.447238009423018" lon="4.899542005732656">
        <ele>163.08000000000001</ele>
        <time>2025-04-23T15:57:02Z</time>
      </trkpt>
      <trkpt lat="46.447291988879442" lon="4.899226007983089">
        <ele>162.12</ele>
        <time>2025-04-23T15:57:05Z</time>
      </trkpt>
      <trkpt lat="46.447382010519505" lon="4.898549001663923">
        <ele>161.16</ele>
        <time>2025-04-23T15:57:15Z</time>
      </trkpt>
      <trkpt lat="46.447455016896129" lon="4.89811297506094">
        <ele>161.63999999999999</ele>
        <time>2025-04-23T15:57:24Z</time>
      </trkpt>
      <trkpt lat="46.447476977482438" lon="4.897966040298343">
        <ele>162.59999999999999</ele>
        <time>2025-04-23T15:57:51Z</time>
      </trkpt>
      <trkpt lat="46.447634976357222" lon="4.896950991824269">
        <ele>166.44999999999999</ele>
        <time>2025-04-23T15:58:02Z</time>
      </trkpt>
      <trkpt lat="46.447831029072404" lon="4.895673003047705">
        <ele>169.81</ele>
        <time>2025-04-23T15:58:10Z</time>
      </trkpt>
      <trkpt lat="46.44808198325336" lon="4.894041968509555">
        <ele>170.28999999999999</ele>
        <time>2025-04-23T15:58:19Z</time>
      </trkpt>
      <trkpt lat="46.448424970731139" lon="4.891792014241219">
        <ele>168.37</ele>
        <time>2025-04-23T15:58:29Z</time>
      </trkpt>
      <trkpt lat="46.448827972635627" lon="4.889210974797607">
        <ele>165</ele>
        <time>2025-04-23T15:58:40Z</time>
      </trkpt>
      <trkpt lat="46.449065012857318" lon="4.887683959677815">
        <ele>165.96000000000001</ele>
        <time>2025-04-23T15:58:48Z</time>
      </trkpt>
      <trkpt lat="46.449187975376844" lon="4.886869993060827">
        <ele>166.93000000000001</ele>
        <time>2025-04-23T15:58:54Z</time>
      </trkpt>
      <trkpt lat="46.449338011443615" lon="4.88670595921576">
        <ele>166.93000000000001</ele>
        <time>2025-04-23T15:58:55Z</time>
      </trkpt>
      <trkpt lat="46.449426021426916" lon="4.886618033051491">
        <ele>167.41</ele>
        <time>2025-04-23T15:58:57Z</time>
      </trkpt>
      <trkpt lat="46.44945896230638" lon="4.886504039168358">
        <ele>167.41</ele>
        <time>2025-04-23T15:58:58Z</time>
      </trkpt>
      <trkpt lat="46.449476983398199" lon="4.886391973122954">
        <ele>167.88999999999999</ele>
        <time>2025-04-23T15:58:59Z</time>
      </trkpt>
      <trkpt lat="46.44945896230638" lon="4.886271022260189">
        <ele>168.37</ele>
        <time>2025-04-23T15:59:00Z</time>
      </trkpt>
      <trkpt lat="46.449410011991858" lon="4.88618602976203">
        <ele>168.84999999999999</ele>
        <time>2025-04-23T15:59:01Z</time>
      </trkpt>
      <trkpt lat="46.449338011443615" lon="4.886061977595091">
        <ele>169.33000000000001</ele>
        <time>2025-04-23T15:59:02Z</time>
      </trkpt>
      <trkpt lat="46.449267016723752" lon="4.886047979816794">
        <ele>169.33000000000001</ele>
        <time>2025-04-23T15:59:03Z</time>
      </trkpt>
      <trkpt lat="46.449170960113406" lon="4.886063989251852">
        <ele>169.81</ele>
        <time>2025-04-23T15:59:04Z</time>
      </trkpt>
      <trkpt lat="46.449075993150473" lon="4.886087961494923">
        <ele>170.28999999999999</ele>
        <time>2025-04-23T15:59:05Z</time>
      </trkpt>
      <trkpt lat="46.448970967903733" lon="4.886099025607109">
        <ele>170.77000000000001</ele>
        <time>2025-04-23T15:59:06Z</time>
      </trkpt>
      <trkpt lat="46.448859991505742" lon="4.886082010343671">
        <ele>171.25</ele>
        <time>2025-04-23T15:59:07Z</time>
      </trkpt>
      <trkpt lat="46.448736023157835" lon="4.886023001745343">
        <ele>171.72999999999999</ele>
        <time>2025-04-23T15:59:08Z</time>
      </trkpt>
      <trkpt lat="46.447208002209663" lon="4.885320011526346">
        <ele>174.13999999999999</ele>
        <time>2025-04-23T15:59:18Z</time>
      </trkpt>
      <trkpt lat="46.445008004084229" lon="4.884302029386163">
        <ele>175.58000000000001</ele>
        <time>2025-04-23T15:59:31Z</time>
      </trkpt>
      <trkpt lat="46.444033021107316" lon="4.883820991963148">
        <ele>175.58000000000001</ele>
        <time>2025-04-23T15:59:38Z</time>
      </trkpt>
      <trkpt lat="46.443844009190798" lon="4.883701968938112">
        <ele>175.58000000000001</ele>
        <time>2025-04-23T15:59:40Z</time>
      </trkpt>
      <trkpt lat="46.44378500059247" lon="4.883632985875011">
        <ele>175.09999999999999</ele>
        <time>2025-04-23T15:59:41Z</time>
      </trkpt>
      <trkpt lat="46.443704031407833" lon="4.883556040003896">
        <ele>175.09999999999999</ele>
        <time>2025-04-23T15:59:42Z</time>
      </trkpt>
      <trkpt lat="46.44361300393939" lon="4.883585963398218">
        <ele>175.58000000000001</ele>
        <time>2025-04-23T15:59:43Z</time>
      </trkpt>
      <trkpt lat="46.44350697286427" lon="4.883579006418586">
        <ele>175.58000000000001</ele>
        <time>2025-04-23T15:59:44Z</time>
      </trkpt>
      <trkpt lat="46.443392978981137" lon="4.883556040003896">
        <ele>176.06</ele>
        <time>2025-04-23T15:59:45Z</time>
      </trkpt>
      <trkpt lat="46.443275967612863" lon="4.883496025577188">
        <ele>176.06</ele>
        <time>2025-04-23T15:59:46Z</time>
      </trkpt>
      <trkpt lat="46.443148981779814" lon="4.883423019200563">
        <ele>176.53999999999999</ele>
        <time>2025-04-23T15:59:47Z</time>
      </trkpt>
      <trkpt lat="46.442062016576529" lon="4.882952962070704">
        <ele>177.5</ele>
        <time>2025-04-23T15:59:53Z</time>
      </trkpt>
      <trkpt lat="46.439741989597678" lon="4.881821991875768">
        <ele>177.5</ele>
        <time>2025-04-23T16:00:03Z</time>
      </trkpt>
      <trkpt lat="46.438145991414785" lon="4.881069967523217">
        <ele>178.94</ele>
        <time>2025-04-23T16:00:09Z</time>
      </trkpt>
      <trkpt lat="46.435056002810597" lon="4.879600033164024">
        <ele>178.94</ele>
        <time>2025-04-23T16:00:23Z</time>
      </trkpt>
      <trkpt lat="46.432382008060813" lon="4.878350039944053">
        <ele>179.41999999999999</ele>
        <time>2025-04-23T16:00:36Z</time>
      </trkpt>
      <trkpt lat="46.431267969310284" lon="4.877832038328052">
        <ele>179.90000000000001</ele>
        <time>2025-04-23T16:00:43Z</time>
      </trkpt>
      <trkpt lat="46.431162022054195" lon="4.877778980880976">
        <ele>179.90000000000001</ele>
        <time>2025-04-23T16:00:44Z</time>
      </trkpt>
      <trkpt lat="46.431144000962377" lon="4.877510005608201">
        <ele>179.90000000000001</ele>
        <time>2025-04-23T16:00:45Z</time>
      </trkpt>
      <trkpt lat="46.431034030392766" lon="4.877349995076656">
        <ele>179.41999999999999</ele>
        <time>2025-04-23T16:00:46Z</time>
      </trkpt>
      <trkpt lat="46.43102103844285" lon="4.877276988700032">
        <ele>179.41999999999999</ele>
        <time>2025-04-23T16:00:47Z</time>
      </trkpt>
      <trkpt lat="46.430991031229496" lon="4.877113960683346">
        <ele>179.41999999999999</ele>
        <time>2025-04-23T16:00:48Z</time>
      </trkpt>
      <trkpt lat="46.430596997961402" lon="4.875373039394617">
        <ele>181.83000000000001</ele>
        <time>2025-04-23T16:00:56Z</time>
      </trkpt>
      <trkpt lat="46.430201958864927" lon="4.873610995709896">
        <ele>188.56</ele>
        <time>2025-04-23T16:01:04Z</time>
      </trkpt>
      <trkpt lat="46.430175974965096" lon="4.873080002143979">
        <ele>189.03999999999999</ele>
        <time>2025-04-23T16:01:07Z</time>
      </trkpt>
      <trkpt lat="46.430175974965096" lon="4.872920997440815">
        <ele>189.03999999999999</ele>
        <time>2025-04-23T16:01:08Z</time>
      </trkpt>
      <trkpt lat="46.430175974965096" lon="4.872765010222793">
        <ele>188.56</ele>
        <time>2025-04-23T16:01:09Z</time>
      </trkpt>
      <trkpt lat="46.430211011320353" lon="4.872597036883235">
        <ele>188.08000000000001</ele>
        <time>2025-04-23T16:01:10Z</time>
      </trkpt>
      <trkpt lat="46.430273959413171" lon="4.872433003038168">
        <ele>187.11000000000001</ele>
        <time>2025-04-23T16:01:11Z</time>
      </trkpt>
      <trkpt lat="46.430354006588459" lon="4.872273998335004">
        <ele>186.63</ele>
        <time>2025-04-23T16:01:12Z</time>
      </trkpt>
      <trkpt lat="46.430462971329689" lon="4.872127985581756">
        <ele>185.66999999999999</ele>
        <time>2025-04-23T16:01:13Z</time>
      </trkpt>
      <trkpt lat="46.430590962991118" lon="4.871991025283933">
        <ele>184.71000000000001</ele>
        <time>2025-04-23T16:01:14Z</time>
      </trkpt>
      <trkpt lat="46.430736975744367" lon="4.871906032785773">
        <ele>184.22999999999999</ele>
        <time>2025-04-23T16:01:15Z</time>
      </trkpt>
      <trkpt lat="46.430887011811137" lon="4.871819028630853">
        <ele>183.27000000000001</ele>
        <time>2025-04-23T16:01:16Z</time>
      </trkpt>
      <trkpt lat="46.431047022342682" lon="4.871743004769087">
        <ele>182.78999999999999</ele>
        <time>2025-04-23T16:01:17Z</time>
      </trkpt>
      <trkpt lat="46.432837983593345" lon="4.871104974299669">
        <ele>180.38</ele>
        <time>2025-04-23T16:01:28Z</time>
      </trkpt>
      <trkpt lat="46.433547008782625" lon="4.870789982378483">
        <ele>181.34999999999999</ele>
        <time>2025-04-23T16:01:33Z</time>
      </trkpt>
      <trkpt lat="46.433685980737209" lon="4.870708007365465">
        <ele>181.83000000000001</ele>
        <time>2025-04-23T16:01:34Z</time>
      </trkpt>
      <trkpt lat="46.433807015419006" lon="4.870578004047275">
        <ele>181.83000000000001</ele>
        <time>2025-04-23T16:01:35Z</time>
      </trkpt>
      <trkpt lat="46.433909023180604" lon="4.870412964373827">
        <ele>182.78999999999999</ele>
        <time>2025-04-23T16:01:36Z</time>
      </trkpt>
      <trkpt lat="46.433992004022002" lon="4.870222024619579">
        <ele>183.27000000000001</ele>
        <time>2025-04-23T16:01:37Z</time>
      </trkpt>
      <trkpt lat="46.43456700257957" lon="4.868854014202952">
        <ele>185.66999999999999</ele>
        <time>2025-04-23T16:01:44Z</time>
      </trkpt>
      <trkpt lat="46.435421034693718" lon="4.867272013798356">
        <ele>185.66999999999999</ele>
        <time>2025-04-23T16:01:52Z</time>
      </trkpt>
      <trkpt lat="46.435701996088028" lon="4.866768009960651">
        <ele>186.15000000000001</ele>
        <time>2025-04-23T16:01:55Z</time>
      </trkpt>
      <trkpt lat="46.435754969716072" lon="4.866580003872514">
        <ele>186.63</ele>
        <time>2025-04-23T16:01:56Z</time>
      </trkpt>
      <trkpt lat="46.435798974707723" lon="4.866381017491221">
        <ele>187.11000000000001</ele>
        <time>2025-04-23T16:01:57Z</time>
      </trkpt>
      <trkpt lat="46.435808027163148" lon="4.86616401001811">
        <ele>188.08000000000001</ele>
        <time>2025-04-23T16:01:58Z</time>
      </trkpt>
      <trkpt lat="46.435818001627922" lon="4.865947002544999">
        <ele>189.03999999999999</ele>
        <time>2025-04-23T16:01:59Z</time>
      </trkpt>
      <trkpt lat="46.435826970264316" lon="4.865729995071888">
        <ele>189.52000000000001</ele>
        <time>2025-04-23T16:02:00Z</time>
      </trkpt>
      <trkpt lat="46.435858989134431" lon="4.865294974297285">
        <ele>190.47999999999999</ele>
        <time>2025-04-23T16:02:02Z</time>
      </trkpt>
      <trkpt lat="46.435888996347785" lon="4.865084001794457">
        <ele>190.47999999999999</ele>
        <time>2025-04-23T16:02:03Z</time>
      </trkpt>
      <trkpt lat="46.435938030481339" lon="4.864879986271262">
        <ele>190.96000000000001</ele>
        <time>2025-04-23T16:02:04Z</time>
      </trkpt>
      <trkpt lat="46.436384031549096" lon="4.863653965294361">
        <ele>192.40000000000001</ele>
        <time>2025-04-23T16:02:11Z</time>
      </trkpt>
      <trkpt lat="46.43686599098146" lon="4.86240497790277">
        <ele>193.36000000000001</ele>
        <time>2025-04-23T16:02:18Z</time>
      </trkpt>
      <trkpt lat="46.436974033713341" lon="4.862272040918469">
        <ele>193.36000000000001</ele>
        <time>2025-04-23T16:02:19Z</time>
      </trkpt>
      <trkpt lat="46.43708098679781" lon="4.86214597709477">
        <ele>193.84</ele>
        <time>2025-04-23T16:02:20Z</time>
      </trkpt>
      <trkpt lat="46.437197998166084" lon="4.862029971554875">
        <ele>193.84</ele>
        <time>2025-04-23T16:02:21Z</time>
      </trkpt>
      <trkpt lat="46.437324983999133" lon="4.861912038177252">
        <ele>193.84</ele>
        <time>2025-04-23T16:02:22Z</time>
      </trkpt>
      <trkpt lat="46.437464961782098" lon="4.861781029030681">
        <ele>194.31999999999999</ele>
        <time>2025-04-23T16:02:23Z</time>
      </trkpt>
      <trkpt lat="46.438354030251503" lon="4.861024981364608">
        <ele>195.28</ele>
        <time>2025-04-23T16:02:28Z</time>
      </trkpt>
      <trkpt lat="46.439475025981665" lon="4.86029801890254">
        <ele>196.72999999999999</ele>
        <time>2025-04-23T16:02:34Z</time>
      </trkpt>
      <trkpt lat="46.439668983221054" lon="4.860226018354297">
        <ele>197.21000000000001</ele>
        <time>2025-04-23T16:02:35Z</time>
      </trkpt>
      <trkpt lat="46.439868975430727" lon="4.860189976170659">
        <ele>197.69</ele>
        <time>2025-04-23T16:02:36Z</time>
      </trkpt>
      <trkpt lat="46.440817974507809" lon="4.860056033357978">
        <ele>199.13</ele>
        <time>2025-04-23T16:02:41Z</time>
      </trkpt>
      <trkpt lat="46.440961975604296" lon="4.859984032809734">
        <ele>199.13</ele>
        <time>2025-04-23T16:02:42Z</time>
      </trkpt>
      <trkpt lat="46.441079992800951" lon="4.859856963157654">
        <ele>198.65000000000001</ele>
        <time>2025-04-23T16:02:43Z</time>
      </trkpt>
      <trkpt lat="46.441201027482748" lon="4.859704999253154">
        <ele>198.65000000000001</ele>
        <time>2025-04-23T16:02:44Z</time>
      </trkpt>
      <trkpt lat="46.441315021365881" lon="4.859560998156667">
        <ele>198.65000000000001</ele>
        <time>2025-04-23T16:02:45Z</time>
      </trkpt>
      <trkpt lat="46.44142298027873" lon="4.859424037858844">
        <ele>198.65000000000001</ele>
        <time>2025-04-23T16:02:46Z</time>
      </trkpt>
      <trkpt lat="46.441538985818624" lon="4.859301997348666">
        <ele>198.65000000000001</ele>
        <time>2025-04-23T16:02:47Z</time>
      </trkpt>
      <trkpt lat="46.441681981086731" lon="4.859217004850507">
        <ele>198.16999999999999</ele>
        <time>2025-04-23T16:02:48Z</time>
      </trkpt>
      <trkpt lat="46.441844003275037" lon="4.859163025394082">
        <ele>198.65000000000001</ele>
        <time>2025-04-23T16:02:49Z</time>
      </trkpt>
      <trkpt lat="46.4420220348984" lon="4.859108040109277">
        <ele>198.65000000000001</ele>
        <time>2025-04-23T16:02:50Z</time>
      </trkpt>
      <trkpt lat="46.442214986309409" lon="4.859081972390413">
        <ele>198.65000000000001</ele>
        <time>2025-04-23T16:02:51Z</time>
      </trkpt>
      <trkpt lat="46.443125009536743" lon="4.858956998214126">
        <ele>199.13</ele>
        <time>2025-04-23T16:02:56Z</time>
      </trkpt>
      <trkpt lat="46.443274961784482" lon="4.858887009322643">
        <ele>199.61000000000001</ele>
        <time>2025-04-23T16:02:57Z</time>
      </trkpt>
      <trkpt lat="46.443409994244576" lon="4.85881601460278">
        <ele>200.09</ele>
        <time>2025-04-23T16:02:58Z</time>
      </trkpt>
      <trkpt lat="46.443509990349412" lon="4.858716018497944">
        <ele>200.09</ele>
        <time>2025-04-23T16:02:59Z</time>
      </trkpt>
      <trkpt lat="46.443599006161094" lon="4.858627002686262">
        <ele>200.56999999999999</ele>
        <time>2025-04-23T16:03:00Z</time>
      </trkpt>
      <trkpt lat="46.443686010316014" lon="4.858528012409806">
        <ele>200.56999999999999</ele>
        <time>2025-04-23T16:03:01Z</time>
      </trkpt>
      <trkpt lat="46.443760022521019" lon="4.858393985778093">
        <ele>201.05000000000001</ele>
        <time>2025-04-23T16:03:02Z</time>
      </trkpt>
      <trkpt lat="46.443836968392134" lon="4.858255013823509">
        <ele>201.05000000000001</ele>
        <time>2025-04-23T16:03:03Z</time>
      </trkpt>
      <trkpt lat="46.4446019846946" lon="4.857008038088679">
        <ele>195.77000000000001</ele>
        <time>2025-04-23T16:03:11Z</time>
      </trkpt>
      <trkpt lat="46.444702986627817" lon="4.856858002021909">
        <ele>195.28</ele>
        <time>2025-04-23T16:03:12Z</time>
      </trkpt>
      <trkpt lat="46.444780016317964" lon="4.856682987883687">
        <ele>194.31999999999999</ele>
        <time>2025-04-23T16:03:13Z</time>
      </trkpt>
      <trkpt lat="46.444934997707605" lon="4.856334971264005">
        <ele>192.88</ele>
        <time>2025-04-23T16:03:15Z</time>
      </trkpt>
      <trkpt lat="46.445001969113946" lon="4.85615199431777">
        <ele>192.40000000000001</ele>
        <time>2025-04-23T16:03:16Z</time>
      </trkpt>
      <trkpt lat="46.445062989369035" lon="4.855971029028297">
        <ele>191.91999999999999</ele>
        <time>2025-04-23T16:03:17Z</time>
      </trkpt>
      <trkpt lat="46.445118980482221" lon="4.855800960212946">
        <ele>191.44</ele>
        <time>2025-04-23T16:03:18Z</time>
      </trkpt>
      <trkpt lat="46.445173965767026" lon="4.855637010186911">
        <ele>191.44</ele>
        <time>2025-04-23T16:03:19Z</time>
      </trkpt>
      <trkpt lat="46.445401031523943" lon="4.85490401275456">
        <ele>189.52000000000001</ele>
        <time>2025-04-23T16:03:24Z</time>
      </trkpt>
      <trkpt lat="46.445451993495226" lon="4.854802004992962">
        <ele>189.03999999999999</ele>
        <time>2025-04-23T16:03:25Z</time>
      </trkpt>
      <trkpt lat="46.445516031235456" lon="4.854725981131196">
        <ele>189.52000000000001</ele>
        <time>2025-04-23T16:03:26Z</time>
      </trkpt>
      <trkpt lat="46.4455880317837" lon="4.854675019159913">
        <ele>189.52000000000001</ele>
        <time>2025-04-23T16:03:27Z</time>
      </trkpt>
      <trkpt lat="46.445682998746634" lon="4.854651968926191">
        <ele>189.52000000000001</ele>
        <time>2025-04-23T16:03:28Z</time>
      </trkpt>
      <trkpt lat="46.445784000679851" lon="4.854659009724855">
        <ele>190</ele>
        <time>2025-04-23T16:03:29Z</time>
      </trkpt>
      <trkpt lat="46.445893971249461" lon="4.854665966704488">
        <ele>190</ele>
        <time>2025-04-23T16:03:30Z</time>
      </trkpt>
      <trkpt lat="46.446009976789355" lon="4.854677030816674">
        <ele>190.47999999999999</ele>
        <time>2025-04-23T16:03:31Z</time>
      </trkpt>
      <trkpt lat="46.446475004777312" lon="4.854805022478104">
        <ele>191.44</ele>
        <time>2025-04-23T16:03:35Z</time>
      </trkpt>
      <trkpt lat="46.446573995053768" lon="4.85488498583436">
        <ele>192.40000000000001</ele>
        <time>2025-04-23T16:03:36Z</time>
      </trkpt>
      <trkpt lat="46.446670973673463" lon="4.854964027181268">
        <ele>192.88</ele>
        <time>2025-04-23T16:03:37Z</time>
      </trkpt>
      <trkpt lat="46.446783961728215" lon="4.85505597665906">
        <ele>192.88</ele>
        <time>2025-04-23T16:03:38Z</time>
      </trkpt>
      <trkpt lat="46.44685797393322" lon="4.855150021612644">
        <ele>192.88</ele>
        <time>2025-04-23T16:03:39Z</time>
      </trkpt>
      <trkpt lat="46.446942966431379" lon="4.855257980525494">
        <ele>192.40000000000001</ele>
        <time>2025-04-23T16:03:40Z</time>
      </trkpt>
      <trkpt lat="46.447018990293145" lon="4.85535403713584">
        <ele>191.91999999999999</ele>
        <time>2025-04-23T16:03:41Z</time>
      </trkpt>
      <trkpt lat="46.447081016376615" lon="4.855434000492096">
        <ele>191.44</ele>
        <time>2025-04-23T16:03:42Z</time>
      </trkpt>
      <trkpt lat="46.447138013318181" lon="4.85550600104034">
        <ele>190.96000000000001</ele>
        <time>2025-04-23T16:03:43Z</time>
      </trkpt>
      <trkpt lat="46.447184029966593" lon="4.855565009638667">
        <ele>190.96000000000001</ele>
        <time>2025-04-23T16:03:44Z</time>
      </trkpt>
      <trkpt lat="46.447214959189296" lon="4.855603985488415">
        <ele>190.47999999999999</ele>
        <time>2025-04-23T16:03:45Z</time>
      </trkpt>
      <trkpt lat="46.447256030514836" lon="4.855656959116459">
        <ele>190.47999999999999</ele>
        <time>2025-04-23T16:03:46Z</time>
      </trkpt>
      <trkpt lat="46.447256030514836" lon="4.855656959116459">
        <ele>190</ele>
        <time>2025-04-23T16:03:47Z</time>
      </trkpt>
      <trkpt lat="46.447256030514836" lon="4.855656959116459">
        <ele>190</ele>
        <time>2025-04-23T16:03:48Z</time>
      </trkpt>
      <trkpt lat="46.447256030514836" lon="4.855656959116459">
        <ele>190</ele>
        <time>2025-04-23T16:03:49Z</time>
      </trkpt>
      <trkpt lat="46.44735099747777" lon="4.855553023517132">
        <ele>190</ele>
        <time>2025-04-23T16:03:50Z</time>
      </trkpt>
      <trkpt lat="46.447368012741208" lon="4.855458978563547">
        <ele>190</ele>
        <time>2025-04-23T16:03:51Z</time>
      </trkpt>
      <trkpt lat="46.447387039661407" lon="4.855353031307459">
        <ele>189.52000000000001</ele>
        <time>2025-04-23T16:03:52Z</time>
      </trkpt>
      <trkpt lat="46.447590971365571" lon="4.854223988950253">
        <ele>192.88</ele>
        <time>2025-04-23T16:03:59Z</time>
      </trkpt>
      <trkpt lat="46.447872016578913" lon="4.852506034076214">
        <ele>200.09</ele>
        <time>2025-04-23T16:04:09Z</time>
      </trkpt>
      <trkpt lat="46.448015011847019" lon="4.851932041347027">
        <ele>202.97999999999999</ele>
        <time>2025-04-23T16:04:13Z</time>
      </trkpt>
      <trkpt lat="46.448064967989922" lon="4.851787034422159">
        <ele>203.46000000000001</ele>
        <time>2025-04-23T16:04:14Z</time>
      </trkpt>
      <trkpt lat="46.4482750184834" lon="4.851350001990795">
        <ele>204.90000000000001</ele>
        <time>2025-04-23T16:04:17Z</time>
      </trkpt>
      <trkpt lat="46.44851197488606" lon="4.850917998701334">
        <ele>205.38</ele>
        <time>2025-04-23T16:04:20Z</time>
      </trkpt>
      <trkpt lat="46.448589004576206" lon="4.850776009261608">
        <ele>204.90000000000001</ele>
        <time>2025-04-23T16:04:21Z</time>
      </trkpt>
      <trkpt lat="46.448854962363839" lon="4.850172009319067">
        <ele>203.46000000000001</ele>
        <time>2025-04-23T16:04:25Z</time>
      </trkpt>
      <trkpt lat="46.448892010375857" lon="4.850011998787522">
        <ele>202.97999999999999</ele>
        <time>2025-04-23T16:04:26Z</time>
      </trkpt>
      <trkpt lat="46.448924029245973" lon="4.849848970770836">
        <ele>202.97999999999999</ele>
        <time>2025-04-23T16:04:27Z</time>
      </trkpt>
      <trkpt lat="46.448953030630946" lon="4.849687032401562">
        <ele>202.49000000000001</ele>
        <time>2025-04-23T16:04:28Z</time>
      </trkpt>
      <trkpt lat="46.44896199926734" lon="4.849515035748482">
        <ele>202.00999999999999</ele>
        <time>2025-04-23T16:04:29Z</time>
      </trkpt>
      <trkpt lat="46.448970967903733" lon="4.849345972761512">
        <ele>202.00999999999999</ele>
        <time>2025-04-23T16:04:30Z</time>
      </trkpt>
      <trkpt lat="46.448937021195889" lon="4.849180011078715">
        <ele>201.53</ele>
        <time>2025-04-23T16:04:31Z</time>
      </trkpt>
      <trkpt lat="46.448886981233954" lon="4.849004996940494">
        <ele>201.53</ele>
        <time>2025-04-23T16:04:32Z</time>
      </trkpt>
      <trkpt lat="46.448826966807246" lon="4.848883962258697">
        <ele>201.53</ele>
        <time>2025-04-23T16:04:33Z</time>
      </trkpt>
      <trkpt lat="46.448758989572525" lon="4.848748007789254">
        <ele>201.53</ele>
        <time>2025-04-23T16:04:34Z</time>
      </trkpt>
      <trkpt lat="46.448411978781223" lon="4.848054992035031">
        <ele>202.00999999999999</ele>
        <time>2025-04-23T16:04:39Z</time>
      </trkpt>
      <trkpt lat="46.448333021253347" lon="4.847916020080447">
        <ele>202.00999999999999</ele>
        <time>2025-04-23T16:04:40Z</time>
      </trkpt>
      <trkpt lat="46.448236964643002" lon="4.847823986783624">
        <ele>202.00999999999999</ele>
        <time>2025-04-23T16:04:41Z</time>
      </trkpt>
      <trkpt lat="46.448141997680068" lon="4.847733965143561">
        <ele>202.49000000000001</ele>
        <time>2025-04-23T16:04:42Z</time>
      </trkpt>
      <trkpt lat="46.448043007403612" lon="4.847640004009008">
        <ele>202.49000000000001</ele>
        <time>2025-04-23T16:04:43Z</time>
      </trkpt>
      <trkpt lat="46.447454011067748" lon="4.847066011279821">
        <ele>206.34</ele>
        <time>2025-04-23T16:04:49Z</time>
      </trkpt>
      <trkpt lat="46.447362983599305" lon="4.846943970769644">
        <ele>206.81999999999999</ele>
        <time>2025-04-23T16:04:50Z</time>
      </trkpt>
      <trkpt lat="46.44730900414288" lon="4.846792006865144">
        <ele>207.30000000000001</ele>
        <time>2025-04-23T16:04:51Z</time>
      </trkpt>
      <trkpt lat="46.447256030514836" lon="4.846643982455134">
        <ele>207.78</ele>
        <time>2025-04-23T16:04:52Z</time>
      </trkpt>
      <trkpt lat="46.447247983887792" lon="4.846454970538616">
        <ele>208.25999999999999</ele>
        <time>2025-04-23T16:04:53Z</time>
      </trkpt>
      <trkpt lat="46.447241026908159" lon="4.846283979713917">
        <ele>208.25999999999999</ele>
        <time>2025-04-23T16:04:54Z</time>
      </trkpt>
      <trkpt lat="46.447243960574269" lon="4.846101002767682">
        <ele>208.74000000000001</ele>
        <time>2025-04-23T16:04:55Z</time>
      </trkpt>
      <trkpt lat="46.447291988879442" lon="4.84594602137804">
        <ele>208.74000000000001</ele>
        <time>2025-04-23T16:04:56Z</time>
      </trkpt>
      <trkpt lat="46.447340017184615" lon="4.845789028331637">
        <ele>209.22</ele>
        <time>2025-04-23T16:04:57Z</time>
      </trkpt>
      <trkpt lat="46.447980981320143" lon="4.843708975240588">
        <ele>214.99000000000001</ele>
        <time>2025-04-23T16:05:10Z</time>
      </trkpt>
      <trkpt lat="46.448029009625316" lon="4.843554999679327">
        <ele>214.50999999999999</ele>
        <time>2025-04-23T16:05:11Z</time>
      </trkpt>
      <trkpt lat="46.448029009625316" lon="4.843391971662641">
        <ele>214.50999999999999</ele>
        <time>2025-04-23T16:05:12Z</time>
      </trkpt>
      <trkpt lat="46.448029009625316" lon="4.843233972787857">
        <ele>214.03</ele>
        <time>2025-04-23T16:05:13Z</time>
      </trkpt>
      <trkpt lat="46.447990033775568" lon="4.843108998611569">
        <ele>213.55000000000001</ele>
        <time>2025-04-23T16:05:14Z</time>
      </trkpt>
      <trkpt lat="46.447934964671731" lon="4.842992993071675">
        <ele>213.55000000000001</ele>
        <time>2025-04-23T16:05:15Z</time>
      </trkpt>
      <trkpt lat="46.447861958295107" lon="4.842875981703401">
        <ele>213.06999999999999</ele>
        <time>2025-04-23T16:05:16Z</time>
      </trkpt>
      <trkpt lat="46.447784006595612" lon="4.842751007527113">
        <ele>213.55000000000001</ele>
        <time>2025-04-23T16:05:17Z</time>
      </trkpt>
      <trkpt lat="46.447702031582594" lon="4.842621004208922">
        <ele>213.55000000000001</ele>
        <time>2025-04-23T16:05:18Z</time>
      </trkpt>
      <trkpt lat="46.447626007720828" lon="4.842463005334139">
        <ele>214.03</ele>
        <time>2025-04-23T16:05:19Z</time>
      </trkpt>
      <trkpt lat="46.447582002729177" lon="4.84229201450944">
        <ele>214.50999999999999</ele>
        <time>2025-04-23T16:05:20Z</time>
      </trkpt>
      <trkpt lat="46.447205990552902" lon="4.840844962745905">
        <ele>219.80000000000001</ele>
        <time>2025-04-23T16:05:29Z</time>
      </trkpt>
      <trkpt lat="46.446641972288489" lon="4.838758036494255">
        <ele>229.41</ele>
        <time>2025-04-23T16:05:42Z</time>
      </trkpt>
      <trkpt lat="46.445839991793036" lon="4.837272008880973">
        <ele>235.66</ele>
        <time>2025-04-23T16:05:53Z</time>
      </trkpt>
      <trkpt lat="46.445145970210433" lon="4.836588967591524">
        <ele>238.53999999999999</ele>
        <time>2025-04-23T16:06:00Z</time>
      </trkpt>
      <trkpt lat="46.443921038880944" lon="4.835981028154492">
        <ele>245.27000000000001</ele>
        <time>2025-04-23T16:06:11Z</time>
      </trkpt>
      <trkpt lat="46.442773975431919" lon="4.835474006831646">
        <ele>248.16</ele>
        <time>2025-04-23T16:06:22Z</time>
      </trkpt>
      <trkpt lat="46.442004013806581" lon="4.835058012977243">
        <ele>249.12</ele>
        <time>2025-04-23T16:06:31Z</time>
      </trkpt>
      <trkpt lat="46.441911980509758" lon="4.834991041570902">
        <ele>249.12</ele>
        <time>2025-04-23T16:06:32Z</time>
      </trkpt>
      <trkpt lat="46.441821958869696" lon="4.834918035194278">
        <ele>249.12</ele>
        <time>2025-04-23T16:06:33Z</time>
      </trkpt>
      <trkpt lat="46.441692039370537" lon="4.834679989144206">
        <ele>249.12</ele>
        <time>2025-04-23T16:06:35Z</time>
      </trkpt>
      <trkpt lat="46.441441001370549" lon="4.834219990298152">
        <ele>249.59999999999999</ele>
        <time>2025-04-23T16:06:39Z</time>
      </trkpt>
      <trkpt lat="46.441332036629319" lon="4.83413097448647">
        <ele>249.59999999999999</ele>
        <time>2025-04-23T16:06:40Z</time>
      </trkpt>
      <trkpt lat="46.441233968362212" lon="4.834050005301833">
        <ele>249.59999999999999</ele>
        <time>2025-04-23T16:06:41Z</time>
      </trkpt>
      <trkpt lat="46.441134978085756" lon="4.833969036117196">
        <ele>249.59999999999999</ele>
        <time>2025-04-23T16:06:42Z</time>
      </trkpt>
      <trkpt lat="46.441030036658049" lon="4.833909021690488">
        <ele>250.08000000000001</ele>
        <time>2025-04-23T16:06:43Z</time>
      </trkpt>
      <trkpt lat="46.440904978662729" lon="4.833877002820373">
        <ele>250.08000000000001</ele>
        <time>2025-04-23T16:06:44Z</time>
      </trkpt>
      <trkpt lat="46.440801965072751" lon="4.833861999213696">
        <ele>250.56</ele>
        <time>2025-04-23T16:06:45Z</time>
      </trkpt>
      <trkpt lat="46.440685959532857" lon="4.833879014477134">
        <ele>251.03999999999999</ele>
        <time>2025-04-23T16:06:46Z</time>
      </trkpt>
      <trkpt lat="46.440572971478105" lon="4.833918996155262">
        <ele>251.03999999999999</ele>
        <time>2025-04-23T16:06:47Z</time>
      </trkpt>
      <trkpt lat="46.44045696593821" lon="4.83395897783339">
        <ele>251.03999999999999</ele>
        <time>2025-04-23T16:06:48Z</time>
      </trkpt>
      <trkpt lat="46.440342972055078" lon="4.833998959511519">
        <ele>251.03999999999999</ele>
        <time>2025-04-23T16:06:49Z</time>
      </trkpt>
      <trkpt lat="46.439652973785996" lon="4.834177996963263">
        <ele>252.47999999999999</ele>
        <time>2025-04-23T16:06:55Z</time>
      </trkpt>
      <trkpt lat="46.439537974074483" lon="4.834137009456754">
        <ele>252.47999999999999</ele>
        <time>2025-04-23T16:06:56Z</time>
      </trkpt>
      <trkpt lat="46.439436972141266" lon="4.834067020565271">
        <ele>252.96000000000001</ele>
        <time>2025-04-23T16:06:57Z</time>
      </trkpt>
      <trkpt lat="46.43933798186481" lon="4.833941040560603">
        <ele>253.44</ele>
        <time>2025-04-23T16:06:58Z</time>
      </trkpt>
      <trkpt lat="46.439276961609721" lon="4.833774995058775">
        <ele>253.93000000000001</ele>
        <time>2025-04-23T16:06:59Z</time>
      </trkpt>
      <trkpt lat="46.439236979931593" lon="4.833602998405695">
        <ele>254.41</ele>
        <time>2025-04-23T16:07:00Z</time>
      </trkpt>
      <trkpt lat="46.439231028780341" lon="4.83339998871088">
        <ele>255.37</ele>
        <time>2025-04-23T16:07:01Z</time>
      </trkpt>
      <trkpt lat="46.439231028780341" lon="4.83320795930922">
        <ele>256.32999999999998</ele>
        <time>2025-04-23T16:07:02Z</time>
      </trkpt>
      <trkpt lat="46.439217031002045" lon="4.832799006253481">
        <ele>257.76999999999998</ele>
        <time>2025-04-23T16:07:04Z</time>
      </trkpt>
      <trkpt lat="46.43918601796031" lon="4.832590967416763">
        <ele>258.73000000000002</ele>
        <time>2025-04-23T16:07:05Z</time>
      </trkpt>
      <trkpt lat="46.439146958291531" lon="4.832382006570697">
        <ele>259.20999999999998</ele>
        <time>2025-04-23T16:07:06Z</time>
      </trkpt>
      <trkpt lat="46.438657036051154" lon="4.830378983169794">
        <ele>267.38</ele>
        <time>2025-04-23T16:07:15Z</time>
      </trkpt>
      <trkpt lat="46.438547987490892" lon="4.830164993181825">
        <ele>268.35000000000002</ele>
        <time>2025-04-23T16:07:16Z</time>
      </trkpt>
      <trkpt lat="46.438407003879547" lon="4.829991990700364">
        <ele>268.82999999999998</ele>
        <time>2025-04-23T16:07:17Z</time>
      </trkpt>
      <trkpt lat="46.43824003636837" lon="4.829839020967484">
        <ele>269.79000000000002</ele>
        <time>2025-04-23T16:07:18Z</time>
      </trkpt>
      <trkpt lat="46.438064016401768" lon="4.829676998779178">
        <ele>270.75</ele>
        <time>2025-04-23T16:07:19Z</time>
      </trkpt>
      <trkpt lat="46.43649903126061" lon="4.828601013869047">
        <ele>278.44</ele>
        <time>2025-04-23T16:07:27Z</time>
      </trkpt>
      <trkpt lat="46.434978973120451" lon="4.827757040038705">
        <ele>288.52999999999997</ele>
        <time>2025-04-23T16:07:35Z</time>
      </trkpt>
      <trkpt lat="46.434851987287402" lon="4.827566016465426">
        <ele>289.97000000000003</ele>
        <time>2025-04-23T16:07:36Z</time>
      </trkpt>
      <trkpt lat="46.434722989797592" lon="4.827359989285469">
        <ele>290.94</ele>
        <time>2025-04-23T16:07:37Z</time>
      </trkpt>
      <trkpt lat="46.434185961261392" lon="4.826457006856799">
        <ele>296.69999999999999</ele>
        <time>2025-04-23T16:07:42Z</time>
      </trkpt>
      <trkpt lat="46.434134999290109" lon="4.826303031295538">
        <ele>297.67000000000002</ele>
        <time>2025-04-23T16:07:43Z</time>
      </trkpt>
      <trkpt lat="46.434151008725166" lon="4.826128017157316">
        <ele>298.63</ele>
        <time>2025-04-23T16:07:44Z</time>
      </trkpt>
      <trkpt lat="46.434210017323494" lon="4.825937999412417">
        <ele>299.58999999999997</ele>
        <time>2025-04-23T16:07:45Z</time>
      </trkpt>
      <trkpt lat="46.434294003993273" lon="4.8258369974792">
        <ele>300.06999999999999</ele>
        <time>2025-04-23T16:07:46Z</time>
      </trkpt>
      <trkpt lat="46.434399029240012" lon="4.825711017474532">
        <ele>300.55000000000001</ele>
        <time>2025-04-23T16:07:47Z</time>
      </trkpt>
      <trkpt lat="46.434531966224313" lon="4.825552012771368">
        <ele>301.50999999999999</ele>
        <time>2025-04-23T16:07:48Z</time>
      </trkpt>
      <trkpt lat="46.434604972600937" lon="4.825372975319624">
        <ele>302.47000000000003</ele>
        <time>2025-04-23T16:07:49Z</time>
      </trkpt>
      <trkpt lat="46.434945026412606" lon="4.824564959853888">
        <ele>306.31999999999999</ele>
        <time>2025-04-23T16:07:53Z</time>
      </trkpt>
      <trkpt lat="46.435038987547159" lon="4.82441701926291">
        <ele>307.27999999999997</ele>
        <time>2025-04-23T16:07:54Z</time>
      </trkpt>
      <trkpt lat="46.435162033885717" lon="4.824293972924352">
        <ele>308.24000000000001</ele>
        <time>2025-04-23T16:07:55Z</time>
      </trkpt>
      <trkpt lat="46.435304023325443" lon="4.824177967384458">
        <ele>309.19999999999999</ele>
        <time>2025-04-23T16:07:56Z</time>
      </trkpt>
      <trkpt lat="46.435465961694717" lon="4.824131028726697">
        <ele>309.68000000000001</ele>
        <time>2025-04-23T16:07:57Z</time>
      </trkpt>
      <trkpt lat="46.435646004974842" lon="4.824077971279621">
        <ele>310.16000000000003</ele>
        <time>2025-04-23T16:07:58Z</time>
      </trkpt>
      <trkpt lat="46.435837028548121" lon="4.824064979329705">
        <ele>310.63999999999999</ele>
        <time>2025-04-23T16:07:59Z</time>
      </trkpt>
      <trkpt lat="46.436186973005533" lon="4.824051987379789">
        <ele>310.63999999999999</ele>
        <time>2025-04-23T16:08:01Z</time>
      </trkpt>
      <trkpt lat="46.436339020729065" lon="4.824123987928033">
        <ele>310.63999999999999</ele>
        <time>2025-04-23T16:08:02Z</time>
      </trkpt>
      <trkpt lat="46.436474975198507" lon="4.824236975982785">
        <ele>310.63999999999999</ele>
        <time>2025-04-23T16:08:03Z</time>
      </trkpt>
      <trkpt lat="46.436614030972123" lon="4.824351975694299">
        <ele>311.12</ele>
        <time>2025-04-23T16:08:04Z</time>
      </trkpt>
      <trkpt lat="46.436747973784804" lon="4.824463035911322">
        <ele>311.12</ele>
        <time>2025-04-23T16:08:05Z</time>
      </trkpt>
      <trkpt lat="46.43686699680984" lon="4.824561020359397">
        <ele>310.63999999999999</ele>
        <time>2025-04-23T16:08:06Z</time>
      </trkpt>
      <trkpt lat="46.436997000128031" lon="4.824535036459565">
        <ele>310.16000000000003</ele>
        <time>2025-04-23T16:08:07Z</time>
      </trkpt>
      <trkpt lat="46.437125997617841" lon="4.824506035074592">
        <ele>309.19999999999999</ele>
        <time>2025-04-23T16:08:08Z</time>
      </trkpt>
      <trkpt lat="46.437210990116" lon="4.824386006221175">
        <ele>307.75999999999999</ele>
        <time>2025-04-23T16:08:09Z</time>
      </trkpt>
      <trkpt lat="46.437285002321005" lon="4.824248962104321">
        <ele>306.80000000000001</ele>
        <time>2025-04-23T16:08:10Z</time>
      </trkpt>
      <trkpt lat="46.437288019806147" lon="4.824067996814847">
        <ele>305.83999999999997</ele>
        <time>2025-04-23T16:08:11Z</time>
      </trkpt>
      <trkpt lat="46.437250971794128" lon="4.823896000161767">
        <ele>304.88</ele>
        <time>2025-04-23T16:08:12Z</time>
      </trkpt>
      <trkpt lat="46.437162039801478" lon="4.823744036257267">
        <ele>303.91000000000003</ele>
        <time>2025-04-23T16:08:13Z</time>
      </trkpt>
      <trkpt lat="46.43705802038312" lon="4.823564998805523">
        <ele>302.94999999999999</ele>
        <time>2025-04-23T16:08:14Z</time>
      </trkpt>
      <trkpt lat="46.436534989625216" lon="4.822710966691375">
        <ele>299.58999999999997</ele>
        <time>2025-04-23T16:08:18Z</time>
      </trkpt>
      <trkpt lat="46.43637397326529" lon="4.822522960603237">
        <ele>298.63</ele>
        <time>2025-04-23T16:08:19Z</time>
      </trkpt>
      <trkpt lat="46.436034003272653" lon="4.8221829906106">
        <ele>296.22000000000003</ele>
        <time>2025-04-23T16:08:21Z</time>
      </trkpt>
      <trkpt lat="46.43590098246932" lon="4.821935975924134">
        <ele>294.77999999999997</ele>
        <time>2025-04-23T16:08:22Z</time>
      </trkpt>
      <trkpt lat="46.43564198166132" lon="4.82145200483501">
        <ele>291.89999999999998</ele>
        <time>2025-04-23T16:08:24Z</time>
      </trkpt>
      <trkpt lat="46.435401001945138" lon="4.820995023474097">
        <ele>289.49000000000001</ele>
        <time>2025-04-23T16:08:26Z</time>
      </trkpt>
      <trkpt lat="46.435310980305076" lon="4.820750020444393">
        <ele>288.05000000000001</ele>
        <time>2025-04-23T16:08:27Z</time>
      </trkpt>
      <trkpt lat="46.435248032212257" lon="4.820479033514857">
        <ele>286.61000000000001</ele>
        <time>2025-04-23T16:08:28Z</time>
      </trkpt>
      <trkpt lat="46.435220036655664" lon="4.820178961381316">
        <ele>285.17000000000002</ele>
        <time>2025-04-23T16:08:29Z</time>
      </trkpt>
      <trkpt lat="46.435191035270691" lon="4.8198620416224">
        <ele>283.25</ele>
        <time>2025-04-23T16:08:30Z</time>
      </trkpt>
      <trkpt lat="46.435161028057337" lon="4.819544032216072">
        <ele>281.80000000000001</ele>
        <time>2025-04-23T16:08:31Z</time>
      </trkpt>
      <trkpt lat="46.434843018651009" lon="4.817144963890314">
        <ele>270.75</ele>
        <time>2025-04-23T16:08:39Z</time>
      </trkpt>
      <trkpt lat="46.43461000174284" lon="4.815484005957842">
        <ele>264.01999999999998</ele>
        <time>2025-04-23T16:08:46Z</time>
      </trkpt>
      <trkpt lat="46.434520985931158" lon="4.813605034723878">
        <ele>257.76999999999998</ele>
        <time>2025-04-23T16:08:54Z</time>
      </trkpt>
      <trkpt lat="46.43480597063899" lon="4.811736959964037">
        <ele>255.37</ele>
        <time>2025-04-23T16:09:02Z</time>
      </trkpt>
      <trkpt lat="46.434875037521124" lon="4.811068000271916">
        <ele>257.29000000000002</ele>
        <time>2025-04-23T16:09:05Z</time>
      </trkpt>
      <trkpt lat="46.43493396230042" lon="4.809920014813542">
        <ele>262.10000000000002</ele>
        <time>2025-04-23T16:09:12Z</time>
      </trkpt>
      <trkpt lat="46.434953995049" lon="4.809752963483334">
        <ele>262.57999999999998</ele>
        <time>2025-04-23T16:09:13Z</time>
      </trkpt>
      <trkpt lat="46.434988025575876" lon="4.809591025114059">
        <ele>263.06</ele>
        <time>2025-04-23T16:09:14Z</time>
      </trkpt>
      <trkpt lat="46.435021972283721" lon="4.809432020410895">
        <ele>263.54000000000002</ele>
        <time>2025-04-23T16:09:15Z</time>
      </trkpt>
      <trkpt lat="46.435095984488726" lon="4.80929397046566">
        <ele>264.01999999999998</ele>
        <time>2025-04-23T16:09:16Z</time>
      </trkpt>
      <trkpt lat="46.435153987258673" lon="4.809157010167837">
        <ele>264.01999999999998</ele>
        <time>2025-04-23T16:09:17Z</time>
      </trkpt>
      <trkpt lat="46.435460010543466" lon="4.808443961665034">
        <ele>263.06</ele>
        <time>2025-04-23T16:09:23Z</time>
      </trkpt>
      <trkpt lat="46.435499992221594" lon="4.808351006358862">
        <ele>262.57999999999998</ele>
        <time>2025-04-23T16:09:24Z</time>
      </trkpt>
      <trkpt lat="46.435624966397882" lon="4.808055963367224">
        <ele>262.10000000000002</ele>
        <time>2025-04-23T16:09:28Z</time>
      </trkpt>
      <trkpt lat="46.435654973611236" lon="4.80798396281898">
        <ele>262.10000000000002</ele>
        <time>2025-04-23T16:09:29Z</time>
      </trkpt>
      <trkpt lat="46.435752036049962" lon="4.807757986709476">
        <ele>261.13999999999999</ele>
        <time>2025-04-23T16:09:34Z</time>
      </trkpt>
      <trkpt lat="46.435755975544453" lon="4.807748012244701">
        <ele>261.62</ele>
        <time>2025-04-23T16:09:35Z</time>
      </trkpt>
      <trkpt lat="46.435740971937776" lon="4.807780031114817">
        <ele>263.54000000000002</ele>
        <time>2025-04-23T16:09:44Z</time>
      </trkpt>
      <trkpt lat="46.435740971937776" lon="4.807780031114817">
        <ele>263.54000000000002</ele>
        <time>2025-04-23T16:09:55Z</time>
      </trkpt>
      <trkpt lat="46.435720017179847" lon="4.807833004742861">
        <ele>264.5</ele>
        <time>2025-04-23T16:09:57Z</time>
      </trkpt>
      <trkpt lat="46.435697972774506" lon="4.807883966714144">
        <ele>264.98000000000002</ele>
        <time>2025-04-23T16:09:58Z</time>
      </trkpt>
      <trkpt lat="46.435524970293045" lon="4.808290991932154">
        <ele>265.94</ele>
        <time>2025-04-23T16:10:03Z</time>
      </trkpt>
      <trkpt lat="46.435500998049974" lon="4.808348994702101">
        <ele>266.42000000000002</ele>
        <time>2025-04-23T16:10:04Z</time>
      </trkpt>
      <trkpt lat="46.435442995280027" lon="4.808391993865371">
        <ele>266.42000000000002</ele>
        <time>2025-04-23T16:10:05Z</time>
      </trkpt>
      <trkpt lat="46.435394966974854" lon="4.808371039107442">
        <ele>266.89999999999998</ele>
        <time>2025-04-23T16:10:06Z</time>
      </trkpt>
      <trkpt lat="46.435336964204907" lon="4.808343965560198">
        <ele>266.89999999999998</ele>
        <time>2025-04-23T16:10:07Z</time>
      </trkpt>
      <trkpt lat="46.435262029990554" lon="4.808311024680734">
        <ele>266.89999999999998</ele>
        <time>2025-04-23T16:10:08Z</time>
      </trkpt>
      <trkpt lat="46.43516999669373" lon="4.808269031345844">
        <ele>266.89999999999998</ele>
        <time>2025-04-23T16:10:09Z</time>
      </trkpt>
      <trkpt lat="46.435064971446991" lon="4.808222008869052">
        <ele>266.89999999999998</ele>
        <time>2025-04-23T16:10:10Z</time>
      </trkpt>
      <trkpt lat="46.434029974043369" lon="4.807642986997962">
        <ele>263.06</ele>
        <time>2025-04-23T16:10:18Z</time>
      </trkpt>
      <trkpt lat="46.432703034952283" lon="4.806506987661123">
        <ele>255.37</ele>
        <time>2025-04-23T16:10:27Z</time>
      </trkpt>
      <trkpt lat="46.432554004713893" lon="4.806439010426402">
        <ele>254.41</ele>
        <time>2025-04-23T16:10:28Z</time>
      </trkpt>
      <trkpt lat="46.432393994182348" lon="4.806389976292849">
        <ele>253.44</ele>
        <time>2025-04-23T16:10:29Z</time>
      </trkpt>
      <trkpt lat="46.43222501501441" lon="4.806354017928243">
        <ele>252.47999999999999</ele>
        <time>2025-04-23T16:10:30Z</time>
      </trkpt>
      <trkpt lat="46.43205301836133" lon="4.806316969916225">
        <ele>251.52000000000001</ele>
        <time>2025-04-23T16:10:31Z</time>
      </trkpt>
      <trkpt lat="46.430486021563411" lon="4.806097028777003">
        <ele>240.94999999999999</ele>
        <time>2025-04-23T16:10:40Z</time>
      </trkpt>
      <trkpt lat="46.430135993286967" lon="4.806132987141609">
        <ele>237.58000000000001</ele>
        <time>2025-04-23T16:10:44Z</time>
      </trkpt>
      <trkpt lat="46.430101040750742" lon="4.806137010455132">
        <ele>236.62</ele>
        <time>2025-04-23T16:10:45Z</time>
      </trkpt>
      <trkpt lat="46.429970031604171" lon="4.806013964116573">
        <ele>235.66</ele>
        <time>2025-04-23T16:10:46Z</time>
      </trkpt>
      <trkpt lat="46.429979000240564" lon="4.805975994095206">
        <ele>235.18000000000001</ele>
        <time>2025-04-23T16:10:47Z</time>
      </trkpt>
      <trkpt lat="46.430082013830543" lon="4.80596300214529">
        <ele>234.22</ele>
        <time>2025-04-23T16:10:48Z</time>
      </trkpt>
      <trkpt lat="46.430127024650574" lon="4.805901981890202">
        <ele>233.74000000000001</ele>
        <time>2025-04-23T16:10:49Z</time>
      </trkpt>
      <trkpt lat="46.430187039077282" lon="4.805822018533945">
        <ele>233.25999999999999</ele>
        <time>2025-04-23T16:10:50Z</time>
      </trkpt>
      <trkpt lat="46.430260967463255" lon="4.80572403408587">
        <ele>232.78</ele>
        <time>2025-04-23T16:10:51Z</time>
      </trkpt>
      <trkpt lat="46.430349983274937" lon="4.805604005232453">
        <ele>232.78</ele>
        <time>2025-04-23T16:10:52Z</time>
      </trkpt>
      <trkpt lat="46.431141989305615" lon="4.804630028083921">
        <ele>233.25999999999999</ele>
        <time>2025-04-23T16:10:58Z</time>
      </trkpt>
      <trkpt lat="46.431292025372386" lon="4.80447999201715">
        <ele>233.25999999999999</ele>
        <time>2025-04-23T16:10:59Z</time>
      </trkpt>
      <trkpt lat="46.431483970955014" lon="4.804399022832513">
        <ele>233.74000000000001</ele>
        <time>2025-04-23T16:11:00Z</time>
      </trkpt>
      <trkpt lat="46.431667031720281" lon="4.804321993142366">
        <ele>233.74000000000001</ele>
        <time>2025-04-23T16:11:01Z</time>
      </trkpt>
      <trkpt lat="46.431866018101573" lon="4.804292991757393">
        <ele>234.69999999999999</ele>
        <time>2025-04-23T16:11:02Z</time>
      </trkpt>
      <trkpt lat="46.432068021968007" lon="4.804274970665574">
        <ele>235.18000000000001</ele>
        <time>2025-04-23T16:11:03Z</time>
      </trkpt>
      <trkpt lat="46.433030012995005" lon="4.804186038672924">
        <ele>239.02000000000001</ele>
        <time>2025-04-23T16:11:08Z</time>
      </trkpt>
      <trkpt lat="46.433188011869788" lon="4.804116971790791">
        <ele>239.50999999999999</ele>
        <time>2025-04-23T16:11:09Z</time>
      </trkpt>
      <trkpt lat="46.433351039886475" lon="4.804009012877941">
        <ele>239.99000000000001</ele>
        <time>2025-04-23T16:11:10Z</time>
      </trkpt>
      <trkpt lat="46.433509960770607" lon="4.803870962932706">
        <ele>240.94999999999999</ele>
        <time>2025-04-23T16:11:11Z</time>
      </trkpt>
      <trkpt lat="46.433672988787293" lon="4.803709024563432">
        <ele>241.43000000000001</ele>
        <time>2025-04-23T16:11:12Z</time>
      </trkpt>
      <trkpt lat="46.434144973754883" lon="4.803249025717378">
        <ele>242.87</ele>
        <time>2025-04-23T16:11:15Z</time>
      </trkpt>
      <trkpt lat="46.434320993721485" lon="4.803180964663625">
        <ele>243.34999999999999</ele>
        <time>2025-04-23T16:11:16Z</time>
      </trkpt>
      <trkpt lat="46.434499025344849" lon="4.803110975772142">
        <ele>243.83000000000001</ele>
        <time>2025-04-23T16:11:17Z</time>
      </trkpt>
      <trkpt lat="46.436279006302357" lon="4.802634967491031">
        <ele>246.22999999999999</ele>
        <time>2025-04-23T16:11:27Z</time>
      </trkpt>
      <trkpt lat="46.436998005956411" lon="4.80245802551508">
        <ele>249.59999999999999</ele>
        <time>2025-04-23T16:11:34Z</time>
      </trkpt>
      <trkpt lat="46.437073023989797" lon="4.80243899859488">
        <ele>251.03999999999999</ele>
        <time>2025-04-23T16:11:37Z</time>
      </trkpt>
      <trkpt lat="46.437076963484287" lon="4.802340008318424">
        <ele>251.52000000000001</ele>
        <time>2025-04-23T16:11:38Z</time>
      </trkpt>
      <trkpt lat="46.437090961262584" lon="4.802232971414924">
        <ele>251.52000000000001</ele>
        <time>2025-04-23T16:11:39Z</time>
      </trkpt>
      <trkpt lat="46.437243008986115" lon="4.801088003441691">
        <ele>249.59999999999999</ele>
        <time>2025-04-23T16:11:46Z</time>
      </trkpt>
      <trkpt lat="46.437558000907302" lon="4.7984420042485">
        <ele>243.34999999999999</ele>
        <time>2025-04-23T16:11:59Z</time>
      </trkpt>
      <trkpt lat="46.43779001198709" lon="4.796748021617532">
        <ele>237.09999999999999</ele>
        <time>2025-04-23T16:12:09Z</time>
      </trkpt>
      <trkpt lat="46.437801998108625" lon="4.796665040776134">
        <ele>236.13999999999999</ele>
        <time>2025-04-23T16:12:10Z</time>
      </trkpt>
      <trkpt lat="46.437808033078909" lon="4.796555992215872">
        <ele>235.66</ele>
        <time>2025-04-23T16:12:11Z</time>
      </trkpt>
      <trkpt lat="46.437611980363727" lon="4.795463997870684">
        <ele>234.69999999999999</ele>
        <time>2025-04-23T16:12:17Z</time>
      </trkpt>
      <trkpt lat="46.437463033944368" lon="4.79464097879827">
        <ele>235.18000000000001</ele>
        <time>2025-04-23T16:12:21Z</time>
      </trkpt>
      <trkpt lat="46.437387010082603" lon="4.794464036822319">
        <ele>235.66</ele>
        <time>2025-04-23T16:12:22Z</time>
      </trkpt>
      <trkpt lat="46.437277961522341" lon="4.794286005198956">
        <ele>236.13999999999999</ele>
        <time>2025-04-23T16:12:23Z</time>
      </trkpt>
      <trkpt lat="46.436247993260622" lon="4.792618006467819">
        <ele>244.31</ele>
        <time>2025-04-23T16:12:31Z</time>
      </trkpt>
      <trkpt lat="46.4352320227772" lon="4.791064001619816">
        <ele>250.08000000000001</ele>
        <time>2025-04-23T16:12:39Z</time>
      </trkpt>
      <trkpt lat="46.434629028663039" lon="4.790496965870261">
        <ele>249.12</ele>
        <time>2025-04-23T16:12:43Z</time>
      </trkpt>
      <trkpt lat="46.434484021738172" lon="4.790417002514005">
        <ele>249.12</ele>
        <time>2025-04-23T16:12:44Z</time>
      </trkpt>
      <trkpt lat="46.434315964579582" lon="4.790394958108664">
        <ele>248.63999999999999</ele>
        <time>2025-04-23T16:12:45Z</time>
      </trkpt>
      <trkpt lat="46.434133993461728" lon="4.790371991693974">
        <ele>248.16</ele>
        <time>2025-04-23T16:12:46Z</time>
      </trkpt>
      <trkpt lat="46.433955039829016" lon="4.790349025279284">
        <ele>248.16</ele>
        <time>2025-04-23T16:12:47Z</time>
      </trkpt>
      <trkpt lat="46.433116011321545" lon="4.790189014747739">
        <ele>248.16</ele>
        <time>2025-04-23T16:12:53Z</time>
      </trkpt>
      <trkpt lat="46.43201001919806" lon="4.789678975939751">
        <ele>250.56</ele>
        <time>2025-04-23T16:13:03Z</time>
      </trkpt>
      <trkpt lat="46.431962996721268" lon="4.789608987048268">
        <ele>251.03999999999999</ele>
        <time>2025-04-23T16:13:04Z</time>
      </trkpt>
      <trkpt lat="46.431935001164675" lon="4.789551990106702">
        <ele>251.03999999999999</ele>
        <time>2025-04-23T16:13:05Z</time>
      </trkpt>
      <trkpt lat="46.431935001164675" lon="4.789431039243937">
        <ele>251.52000000000001</ele>
        <time>2025-04-23T16:13:06Z</time>
      </trkpt>
      <trkpt lat="46.43194698728621" lon="4.789276979863644">
        <ele>252</ele>
        <time>2025-04-23T16:13:07Z</time>
      </trkpt>
      <trkpt lat="46.432090988382697" lon="4.78802396915853">
        <ele>254.41</ele>
        <time>2025-04-23T16:13:14Z</time>
      </trkpt>
      <trkpt lat="46.432119989767671" lon="4.787776032462716">
        <ele>255.37</ele>
        <time>2025-04-23T16:13:16Z</time>
      </trkpt>
      <trkpt lat="46.432113032788038" lon="4.787685004994273">
        <ele>255.84999999999999</ele>
        <time>2025-04-23T16:13:17Z</time>
      </trkpt>
      <trkpt lat="46.432048995047808" lon="4.787619961425662">
        <ele>255.84999999999999</ele>
        <time>2025-04-23T16:13:18Z</time>
      </trkpt>
      <trkpt lat="46.431956961750984" lon="4.787529017776251">
        <ele>255.84999999999999</ele>
        <time>2025-04-23T16:13:19Z</time>
      </trkpt>
      <trkpt lat="46.431880015879869" lon="4.787493981420994">
        <ele>255.37</ele>
        <time>2025-04-23T16:13:20Z</time>
      </trkpt>
      <trkpt lat="46.431766021996737" lon="4.78744201362133">
        <ele>254.88999999999999</ele>
        <time>2025-04-23T16:13:21Z</time>
      </trkpt>
      <trkpt lat="46.430693976581097" lon="4.786848993971944">
        <ele>248.63999999999999</ele>
        <time>2025-04-23T16:13:28Z</time>
      </trkpt>
      <trkpt lat="46.430175974965096" lon="4.786520004272461">
        <ele>246.22999999999999</ele>
        <time>2025-04-23T16:13:32Z</time>
      </trkpt>
      <trkpt lat="46.430015964433551" lon="4.786525033414364">
        <ele>245.75</ele>
        <time>2025-04-23T16:13:33Z</time>
      </trkpt>
      <trkpt lat="46.429871963337064" lon="4.786529978737235">
        <ele>245.27000000000001</ele>
        <time>2025-04-23T16:13:34Z</time>
      </trkpt>
      <trkpt lat="46.429559988901019" lon="4.786540037021041">
        <ele>244.31</ele>
        <time>2025-04-23T16:13:36Z</time>
      </trkpt>
      <trkpt lat="46.429401990026236" lon="4.786515980958939">
        <ele>244.31</ele>
        <time>2025-04-23T16:13:37Z</time>
      </trkpt>
      <trkpt lat="46.42923996783793" lon="4.78645496070385">
        <ele>244.31</ele>
        <time>2025-04-23T16:13:38Z</time>
      </trkpt>
      <trkpt lat="46.429081968963146" lon="4.786365022882819">
        <ele>244.31</ele>
        <time>2025-04-23T16:13:39Z</time>
      </trkpt>
      <trkpt lat="46.428926987573504" lon="4.786278018727899">
        <ele>244.31</ele>
        <time>2025-04-23T16:13:40Z</time>
      </trkpt>
      <trkpt lat="46.428231038153172" lon="4.785849032923579">
        <ele>246.72</ele>
        <time>2025-04-23T16:13:45Z</time>
      </trkpt>
      <trkpt lat="46.42812299542129" lon="4.785749036818743">
        <ele>246.72</ele>
        <time>2025-04-23T16:13:46Z</time>
      </trkpt>
      <trkpt lat="46.42803699709475" lon="4.785639988258481">
        <ele>246.72</ele>
        <time>2025-04-23T16:13:47Z</time>
      </trkpt>
      <trkpt lat="46.427987040951848" lon="4.785491041839123">
        <ele>247.19999999999999</ele>
        <time>2025-04-23T16:13:48Z</time>
      </trkpt>
      <trkpt lat="46.427944041788578" lon="4.785361038520932">
        <ele>247.19999999999999</ele>
        <time>2025-04-23T16:13:49Z</time>
      </trkpt>
      <trkpt lat="46.427953010424972" lon="4.785194993019104">
        <ele>247.68000000000001</ele>
        <time>2025-04-23T16:13:50Z</time>
      </trkpt>
      <trkpt lat="46.427960973232985" lon="4.785030037164688">
        <ele>247.68000000000001</ele>
        <time>2025-04-23T16:13:51Z</time>
      </trkpt>
      <trkpt lat="46.427969019860029" lon="4.784861980006099">
        <ele>248.16</ele>
        <time>2025-04-23T16:13:52Z</time>
      </trkpt>
      <trkpt lat="46.427983017638326" lon="4.784586969763041">
        <ele>249.12</ele>
        <time>2025-04-23T16:13:54Z</time>
      </trkpt>
      <trkpt lat="46.427987040951848" lon="4.784502983093262">
        <ele>249.59999999999999</ele>
        <time>2025-04-23T16:13:55Z</time>
      </trkpt>
      <trkpt lat="46.4279739651829" lon="4.78447699919343">
        <ele>250.08000000000001</ele>
        <time>2025-04-23T16:13:56Z</time>
      </trkpt>
      <trkpt lat="46.427959967404604" lon="4.784447997808456">
        <ele>251.03999999999999</ele>
        <time>2025-04-23T16:13:57Z</time>
      </trkpt>
      <trkpt lat="46.427959967404604" lon="4.784447997808456">
        <ele>252</ele>
        <time>2025-04-23T16:13:58Z</time>
      </trkpt>
      <trkpt lat="46.427959967404604" lon="4.784447997808456">
        <ele>252.47999999999999</ele>
        <time>2025-04-23T16:14:15Z</time>
      </trkpt>
      <trkpt lat="46.427959967404604" lon="4.784447997808456">
        <ele>253.44</ele>
        <time>2025-04-23T16:15:05Z</time>
      </trkpt>
      <trkpt lat="46.427959967404604" lon="4.784447997808456">
        <ele>253.93000000000001</ele>
        <time>2025-04-23T16:15:49Z</time>
      </trkpt>
      <trkpt lat="46.427944041788578" lon="4.784416984766722">
        <ele>253.93000000000001</ele>
        <time>2025-04-23T16:16:10Z</time>
      </trkpt>
      <trkpt lat="46.42792803235352" lon="4.784408016130328">
        <ele>253.44</ele>
        <time>2025-04-23T16:16:11Z</time>
      </trkpt>
      <trkpt lat="46.427637012675405" lon="4.784310031682253">
        <ele>250.56</ele>
        <time>2025-04-23T16:16:17Z</time>
      </trkpt>
      <trkpt lat="46.427578004077077" lon="4.784310031682253">
        <ele>249.59999999999999</ele>
        <time>2025-04-23T16:16:18Z</time>
      </trkpt>
      <trkpt lat="46.427317997440696" lon="4.784300979226828">
        <ele>246.22999999999999</ele>
        <time>2025-04-23T16:16:22Z</time>
      </trkpt>
      <trkpt lat="46.427257983013988" lon="4.784287987276912">
        <ele>245.75</ele>
        <time>2025-04-23T16:16:23Z</time>
      </trkpt>
      <trkpt lat="46.427188999950886" lon="4.784231996163726">
        <ele>244.78999999999999</ele>
        <time>2025-04-23T16:16:24Z</time>
      </trkpt>
      <trkpt lat="46.426974004134536" lon="4.784053964540362">
        <ele>242.87</ele>
        <time>2025-04-23T16:16:27Z</time>
      </trkpt>
      <trkpt lat="46.426896974444389" lon="4.783990010619164">
        <ele>242.87</ele>
        <time>2025-04-23T16:16:28Z</time>
      </trkpt>
      <trkpt lat="46.426043026149273" lon="4.78342498652637">
        <ele>239.99000000000001</ele>
        <time>2025-04-23T16:16:38Z</time>
      </trkpt>
      <trkpt lat="46.425970019772649" lon="4.783387016505003">
        <ele>240.47</ele>
        <time>2025-04-23T16:16:39Z</time>
      </trkpt>
      <trkpt lat="46.42588603310287" lon="4.783399002626538">
        <ele>240.94999999999999</ele>
        <time>2025-04-23T16:16:40Z</time>
      </trkpt>
      <trkpt lat="46.425810009241104" lon="4.78342498652637">
        <ele>240.94999999999999</ele>
        <time>2025-04-23T16:16:41Z</time>
      </trkpt>
      <trkpt lat="46.42575996927917" lon="4.783503022044897">
        <ele>241.43000000000001</ele>
        <time>2025-04-23T16:16:42Z</time>
      </trkpt>
      <trkpt lat="46.425704983994365" lon="4.783589020371437">
        <ele>241.43000000000001</ele>
        <time>2025-04-23T16:16:43Z</time>
      </trkpt>
      <trkpt lat="46.425639018416405" lon="4.783673007041216">
        <ele>240.94999999999999</ele>
        <time>2025-04-23T16:16:44Z</time>
      </trkpt>
      <trkpt lat="46.425554025918245" lon="4.783750958740711">
        <ele>240.94999999999999</ele>
        <time>2025-04-23T16:16:45Z</time>
      </trkpt>
      <trkpt lat="46.425168039277196" lon="4.784105010330677">
        <ele>239.02000000000001</ele>
        <time>2025-04-23T16:16:49Z</time>
      </trkpt>
      <trkpt lat="46.425064019858837" lon="4.784142980352044">
        <ele>238.53999999999999</ele>
        <time>2025-04-23T16:16:50Z</time>
      </trkpt>
      <trkpt lat="46.424953965470195" lon="4.78417600505054">
        <ele>238.06</ele>
        <time>2025-04-23T16:16:51Z</time>
      </trkpt>
      <trkpt lat="46.424838965758681" lon="4.784210035577416">
        <ele>237.58000000000001</ele>
        <time>2025-04-23T16:16:52Z</time>
      </trkpt>
      <trkpt lat="46.424716003239155" lon="4.784224033355713">
        <ele>237.58000000000001</ele>
        <time>2025-04-23T16:16:53Z</time>
      </trkpt>
      <trkpt lat="46.423527030274272" lon="4.784298967570067">
        <ele>236.62</ele>
        <time>2025-04-23T16:17:01Z</time>
      </trkpt>
      <trkpt lat="46.421679994091392" lon="4.784610019996762">
        <ele>233.74000000000001</ele>
        <time>2025-04-23T16:17:11Z</time>
      </trkpt>
      <trkpt lat="46.421562982723117" lon="4.784684032201767">
        <ele>233.25999999999999</ele>
        <time>2025-04-23T16:17:12Z</time>
      </trkpt>
      <trkpt lat="46.421456029638648" lon="4.784752009436488">
        <ele>233.25999999999999</ele>
        <time>2025-04-23T16:17:13Z</time>
      </trkpt>
      <trkpt lat="46.421380005776882" lon="4.784886036068201">
        <ele>233.25999999999999</ele>
        <time>2025-04-23T16:17:14Z</time>
      </trkpt>
      <trkpt lat="46.421303981915116" lon="4.785036994144321">
        <ele>233.74000000000001</ele>
        <time>2025-04-23T16:17:15Z</time>
      </trkpt>
      <trkpt lat="46.421226030215621" lon="4.785193987190723">
        <ele>233.25999999999999</ele>
        <time>2025-04-23T16:17:16Z</time>
      </trkpt>
      <trkpt lat="46.421135002747178" lon="4.785331031307578">
        <ele>233.25999999999999</ele>
        <time>2025-04-23T16:17:17Z</time>
      </trkpt>
      <trkpt lat="46.421038024127483" lon="4.785441001877189">
        <ele>233.25999999999999</ele>
        <time>2025-04-23T16:17:18Z</time>
      </trkpt>
      <trkpt lat="46.420927969738841" lon="4.785475032404065">
        <ele>232.78</ele>
        <time>2025-04-23T16:17:19Z</time>
      </trkpt>
      <trkpt lat="46.420810958370566" lon="4.785484001040459">
        <ele>232.30000000000001</ele>
        <time>2025-04-23T16:17:20Z</time>
      </trkpt>
      <trkpt lat="46.420683972537518" lon="4.785478971898556">
        <ele>231.81</ele>
        <time>2025-04-23T16:17:21Z</time>
      </trkpt>
      <trkpt lat="46.420543994754553" lon="4.785447036847472">
        <ele>231.81</ele>
        <time>2025-04-23T16:17:22Z</time>
      </trkpt>
      <trkpt lat="46.419128961861134" lon="4.785128021612763">
        <ele>227.49000000000001</ele>
        <time>2025-04-23T16:17:30Z</time>
      </trkpt>
      <trkpt lat="46.417879974469543" lon="4.784845970571041">
        <ele>224.12</ele>
        <time>2025-04-23T16:17:38Z</time>
      </trkpt>
      <trkpt lat="46.417448977008462" lon="4.784771036356688">
        <ele>222.68000000000001</ele>
        <time>2025-04-23T16:17:42Z</time>
      </trkpt>
      <trkpt lat="46.417341018095613" lon="4.784794002771378">
        <ele>222.68000000000001</ele>
        <time>2025-04-23T16:17:44Z</time>
      </trkpt>
      <trkpt lat="46.417301036417484" lon="4.784802971407771">
        <ele>222.19999999999999</ele>
        <time>2025-04-23T16:17:45Z</time>
      </trkpt>
      <trkpt lat="46.417277986183763" lon="4.784825015813112">
        <ele>222.19999999999999</ele>
        <time>2025-04-23T16:17:46Z</time>
      </trkpt>
      <trkpt lat="46.417246973142028" lon="4.784855023026466">
        <ele>222.19999999999999</ele>
        <time>2025-04-23T16:17:47Z</time>
      </trkpt>
      <trkpt lat="46.417212020605803" lon="4.784887041896582">
        <ele>222.19999999999999</ele>
        <time>2025-04-23T16:17:48Z</time>
      </trkpt>
      <trkpt lat="46.417113030329347" lon="4.784981003031135">
        <ele>221.72</ele>
        <time>2025-04-23T16:17:50Z</time>
      </trkpt>
      <trkpt lat="46.416804995387793" lon="4.785233968868852">
        <ele>220.75999999999999</ele>
        <time>2025-04-23T16:17:54Z</time>
      </trkpt>
      <trkpt lat="46.41671103425324" lon="4.785290965810418">
        <ele>220.75999999999999</ele>
        <time>2025-04-23T16:17:55Z</time>
      </trkpt>
      <trkpt lat="46.41660500317812" lon="4.785302029922605">
        <ele>220.28</ele>
        <time>2025-04-23T16:17:56Z</time>
      </trkpt>
      <trkpt lat="46.41649603843689" lon="4.785306975245476">
        <ele>220.28</ele>
        <time>2025-04-23T16:17:57Z</time>
      </trkpt>
      <trkpt lat="46.416382966563106" lon="4.785313010215759">
        <ele>219.80000000000001</ele>
        <time>2025-04-23T16:17:58Z</time>
      </trkpt>
      <trkpt lat="46.415243027731776" lon="4.785366989672184">
        <ele>216.43000000000001</ele>
        <time>2025-04-23T16:18:08Z</time>
      </trkpt>
      <trkpt lat="46.413997979834676" lon="4.785404037684202">
        <ele>215.94999999999999</ele>
        <time>2025-04-23T16:18:19Z</time>
      </trkpt>
      <trkpt lat="46.413794970139861" lon="4.785404037684202">
        <ele>215.94999999999999</ele>
        <time>2025-04-23T16:18:21Z</time>
      </trkpt>
      <trkpt lat="46.41355499625206" lon="4.78535701520741">
        <ele>215.94999999999999</ele>
        <time>2025-04-23T16:18:24Z</time>
      </trkpt>
      <trkpt lat="46.413502022624016" lon="4.785338994115591">
        <ele>216.43000000000001</ele>
        <time>2025-04-23T16:18:25Z</time>
      </trkpt>
      <trkpt lat="46.413351986557245" lon="4.785292977467179">
        <ele>216.91</ele>
        <time>2025-04-23T16:18:31Z</time>
      </trkpt>
      <trkpt lat="46.413284009322524" lon="4.785281997174025">
        <ele>217.40000000000001</ele>
        <time>2025-04-23T16:18:32Z</time>
      </trkpt>
      <trkpt lat="46.412451015785336" lon="4.785146964713931">
        <ele>216.43000000000001</ele>
        <time>2025-04-23T16:18:42Z</time>
      </trkpt>
      <trkpt lat="46.412280024960637" lon="4.785125004127622">
        <ele>215.94999999999999</ele>
        <time>2025-04-23T16:18:44Z</time>
      </trkpt>
      <trkpt lat="46.412148009985685" lon="4.785223994404078">
        <ele>214.99000000000001</ele>
        <time>2025-04-23T16:18:46Z</time>
      </trkpt>
      <trkpt lat="46.412026975303888" lon="4.785162974148989">
        <ele>214.03</ele>
        <time>2025-04-23T16:18:47Z</time>
      </trkpt>
      <trkpt lat="46.411961009725928" lon="4.785088961943984">
        <ele>213.55000000000001</ele>
        <time>2025-04-23T16:18:48Z</time>
      </trkpt>
      <trkpt lat="46.411889009177685" lon="4.785008998587728">
        <ele>212.59</ele>
        <time>2025-04-23T16:18:50Z</time>
      </trkpt>
      <trkpt lat="46.411079987883568" lon="4.784101992845535">
        <ele>209.22</ele>
        <time>2025-04-23T16:18:59Z</time>
      </trkpt>
      <trkpt lat="46.410971023142338" lon="4.784033009782434">
        <ele>209.22</ele>
        <time>2025-04-23T16:19:00Z</time>
      </trkpt>
      <trkpt lat="46.410859962925315" lon="4.783997973427177">
        <ele>208.74000000000001</ele>
        <time>2025-04-23T16:19:01Z</time>
      </trkpt>
      <trkpt lat="46.41074001789093" lon="4.783965032547712">
        <ele>208.25999999999999</ele>
        <time>2025-04-23T16:19:02Z</time>
      </trkpt>
      <trkpt lat="46.41061102040112" lon="4.783948017284274">
        <ele>208.25999999999999</ele>
        <time>2025-04-23T16:19:03Z</time>
      </trkpt>
      <trkpt lat="46.409449959173799" lon="4.783678958192468">
        <ele>209.69999999999999</ele>
        <time>2025-04-23T16:19:12Z</time>
      </trkpt>
      <trkpt lat="46.409338982775807" lon="4.783637970685959">
        <ele>210.19</ele>
        <time>2025-04-23T16:19:13Z</time>
      </trkpt>
      <trkpt lat="46.409196993336082" lon="4.783685998991132">
        <ele>210.19</ele>
        <time>2025-04-23T16:19:14Z</time>
      </trkpt>
      <trkpt lat="46.408588970080018" lon="4.783816002309322">
        <ele>211.15000000000001</ele>
        <time>2025-04-23T16:19:19Z</time>
      </trkpt>
      <trkpt lat="46.408481011167169" lon="4.783798987045884">
        <ele>211.63</ele>
        <time>2025-04-23T16:19:20Z</time>
      </trkpt>
      <trkpt lat="46.408084966242313" lon="4.783735033124685">
        <ele>213.06999999999999</ele>
        <time>2025-04-23T16:19:23Z</time>
      </trkpt>
      <trkpt lat="46.40796703286469" lon="4.783716006204486">
        <ele>214.03</ele>
        <time>2025-04-23T16:19:24Z</time>
      </trkpt>
      <trkpt lat="46.407842980697751" lon="4.783748025074601">
        <ele>214.99000000000001</ele>
        <time>2025-04-23T16:19:25Z</time>
      </trkpt>
      <trkpt lat="46.407575011253357" lon="4.78387501090765">
        <ele>217.40000000000001</ele>
        <time>2025-04-23T16:19:27Z</time>
      </trkpt>
      <trkpt lat="46.407435033470392" lon="4.78394097648561">
        <ele>218.36000000000001</ele>
        <time>2025-04-23T16:19:28Z</time>
      </trkpt>
      <trkpt lat="46.407002024352551" lon="4.784108027815819">
        <ele>221.72</ele>
        <time>2025-04-23T16:19:31Z</time>
      </trkpt>
      <trkpt lat="46.406847964972258" lon="4.784126970916987">
        <ele>222.68000000000001</ele>
        <time>2025-04-23T16:19:32Z</time>
      </trkpt>
      <trkpt lat="46.406538002192974" lon="4.784164018929005">
        <ele>225.56999999999999</ele>
        <time>2025-04-23T16:19:34Z</time>
      </trkpt>
      <trkpt lat="46.405440978705883" lon="4.784406004473567">
        <ele>232.78</ele>
        <time>2025-04-23T16:19:41Z</time>
      </trkpt>
      <trkpt lat="46.4052829798311" lon="4.784384965896606">
        <ele>233.74000000000001</ele>
        <time>2025-04-23T16:19:42Z</time>
      </trkpt>
      <trkpt lat="46.405129004269838" lon="4.784317994490266">
        <ele>234.69999999999999</ele>
        <time>2025-04-23T16:19:43Z</time>
      </trkpt>
      <trkpt lat="46.403594026342034" lon="4.783712988719344">
        <ele>240.47</ele>
        <time>2025-04-23T16:19:52Z</time>
      </trkpt>
      <trkpt lat="46.40343401581049" lon="4.783689016476274">
        <ele>240.94999999999999</ele>
        <time>2025-04-23T16:19:53Z</time>
      </trkpt>
      <trkpt lat="46.403283979743719" lon="4.783736038953066">
        <ele>241.43000000000001</ele>
        <time>2025-04-23T16:19:54Z</time>
      </trkpt>
      <trkpt lat="46.402326012030244" lon="4.784038038924336">
        <ele>241.91</ele>
        <time>2025-04-23T16:20:00Z</time>
      </trkpt>
      <trkpt lat="46.402182010933757" lon="4.78413300588727">
        <ele>240.94999999999999</ele>
        <time>2025-04-23T16:20:01Z</time>
      </trkpt>
      <trkpt lat="46.401918986812234" lon="4.784346995875239">
        <ele>239.50999999999999</ele>
        <time>2025-04-23T16:20:03Z</time>
      </trkpt>
      <trkpt lat="46.401794012635946" lon="4.784447997808456">
        <ele>239.02000000000001</ele>
        <time>2025-04-23T16:20:04Z</time>
      </trkpt>
      <trkpt lat="46.40167498961091" lon="4.784543970599771">
        <ele>238.06</ele>
        <time>2025-04-23T16:20:05Z</time>
      </trkpt>
      <trkpt lat="46.401540040969849" lon="4.784595016390085">
        <ele>237.09999999999999</ele>
        <time>2025-04-23T16:20:06Z</time>
      </trkpt>
      <trkpt lat="46.40141598880291" lon="4.784558974206448">
        <ele>236.13999999999999</ele>
        <time>2025-04-23T16:20:07Z</time>
      </trkpt>
      <trkpt lat="46.401281962171197" lon="4.784521004185081">
        <ele>235.66</ele>
        <time>2025-04-23T16:20:08Z</time>
      </trkpt>
      <trkpt lat="46.400992032140493" lon="4.784439029172063">
        <ele>234.22</ele>
        <time>2025-04-23T16:20:10Z</time>
      </trkpt>
      <trkpt lat="46.400846019387245" lon="4.784466018900275">
        <ele>233.74000000000001</ele>
        <time>2025-04-23T16:20:11Z</time>
      </trkpt>
      <trkpt lat="46.400420973077416" lon="4.784545982256532">
        <ele>232.78</ele>
        <time>2025-04-23T16:20:14Z</time>
      </trkpt>
      <trkpt lat="46.400274960324168" lon="4.784550005570054">
        <ele>232.30000000000001</ele>
        <time>2025-04-23T16:20:15Z</time>
      </trkpt>
      <trkpt lat="46.400133976712823" lon="4.784472975879908">
        <ele>231.81</ele>
        <time>2025-04-23T16:20:16Z</time>
      </trkpt>
      <trkpt lat="46.399990981444716" lon="4.7843680344522">
        <ele>231.81</ele>
        <time>2025-04-23T16:20:17Z</time>
      </trkpt>
      <trkpt lat="46.399861983954906" lon="4.784254962578416">
        <ele>231.33000000000001</ele>
        <time>2025-04-23T16:20:18Z</time>
      </trkpt>
      <trkpt lat="46.399283967912197" lon="4.783763028681278">
        <ele>230.84999999999999</ele>
        <time>2025-04-23T16:20:24Z</time>
      </trkpt>
      <trkpt lat="46.398245031014085" lon="4.782953001558781">
        <ele>226.05000000000001</ele>
        <time>2025-04-23T16:20:35Z</time>
      </trkpt>
      <trkpt lat="46.398164983838797" lon="4.782936992123723">
        <ele>225.56999999999999</ele>
        <time>2025-04-23T16:20:36Z</time>
      </trkpt>
      <trkpt lat="46.398054007440805" lon="4.782915031537414">
        <ele>225.56999999999999</ele>
        <time>2025-04-23T16:20:37Z</time>
      </trkpt>
      <trkpt lat="46.397965997457504" lon="4.782968005165458">
        <ele>225.09</ele>
        <time>2025-04-23T16:20:38Z</time>
      </trkpt>
      <trkpt lat="46.397857032716274" lon="4.783032964915037">
        <ele>224.61000000000001</ele>
        <time>2025-04-23T16:20:39Z</time>
      </trkpt>
      <trkpt lat="46.397751001641154" lon="4.783129021525383">
        <ele>224.12</ele>
        <time>2025-04-23T16:20:40Z</time>
      </trkpt>
      <trkpt lat="46.397643964737654" lon="4.783232035115361">
        <ele>223.63999999999999</ele>
        <time>2025-04-23T16:20:41Z</time>
      </trkpt>
      <trkpt lat="46.396828992292285" lon="4.784015994518995">
        <ele>220.75999999999999</ele>
        <time>2025-04-23T16:20:48Z</time>
      </trkpt>
      <trkpt lat="46.396713992580771" lon="4.784125965088606">
        <ele>220.75999999999999</ele>
        <time>2025-04-23T16:20:49Z</time>
      </trkpt>
      <trkpt lat="46.395917041227221" lon="4.784567020833492">
        <ele>223.63999999999999</ele>
        <time>2025-04-23T16:20:55Z</time>
      </trkpt>
      <trkpt lat="46.395793994888663" lon="4.784567020833492">
        <ele>224.61000000000001</ele>
        <time>2025-04-23T16:20:56Z</time>
      </trkpt>
      <trkpt lat="46.395677989348769" lon="4.784556040540338">
        <ele>225.56999999999999</ele>
        <time>2025-04-23T16:20:57Z</time>
      </trkpt>
      <trkpt lat="46.3955710362643" lon="4.784475993365049">
        <ele>226.53</ele>
        <time>2025-04-23T16:20:58Z</time>
      </trkpt>
      <trkpt lat="46.395473973825574" lon="4.784361999481916">
        <ele>227.49000000000001</ele>
        <time>2025-04-23T16:20:59Z</time>
      </trkpt>
      <trkpt lat="46.395390992984176" lon="4.784228978678584">
        <ele>228.93000000000001</ele>
        <time>2025-04-23T16:21:00Z</time>
      </trkpt>
      <trkpt lat="46.395310023799539" lon="4.784098975360394">
        <ele>230.37</ele>
        <time>2025-04-23T16:21:01Z</time>
      </trkpt>
      <trkpt lat="46.395236011594534" lon="4.783979030326009">
        <ele>231.81</ele>
        <time>2025-04-23T16:21:02Z</time>
      </trkpt>
      <trkpt lat="46.395097961649299" lon="4.783756993710995">
        <ele>236.13999999999999</ele>
        <time>2025-04-23T16:21:05Z</time>
      </trkpt>
      <trkpt lat="46.394954966381192" lon="4.783597989007831">
        <ele>239.02000000000001</ele>
        <time>2025-04-23T16:21:07Z</time>
      </trkpt>
      <trkpt lat="46.394795039668679" lon="4.783495981246233">
        <ele>240.47</ele>
        <time>2025-04-23T16:21:08Z</time>
      </trkpt>
      <trkpt lat="46.394711975008249" lon="4.783443007618189">
        <ele>242.38999999999999</ele>
        <time>2025-04-23T16:21:09Z</time>
      </trkpt>
      <trkpt lat="46.393745038658381" lon="4.782948978245258">
        <ele>249.59999999999999</ele>
        <time>2025-04-23T16:21:18Z</time>
      </trkpt>
      <trkpt lat="46.39262898825109" lon="4.782384959980846">
        <ele>252.47999999999999</ele>
        <time>2025-04-23T16:21:26Z</time>
      </trkpt>
      <trkpt lat="46.39067399315536" lon="4.781395979225636">
        <ele>255.84999999999999</ele>
        <time>2025-04-23T16:21:37Z</time>
      </trkpt>
      <trkpt lat="46.389402961358428" lon="4.780857022851706">
        <ele>263.06</ele>
        <time>2025-04-23T16:21:45Z</time>
      </trkpt>
      <trkpt lat="46.388334017246962" lon="4.78037497960031">
        <ele>265.94</ele>
        <time>2025-04-23T16:21:52Z</time>
      </trkpt>
      <trkpt lat="46.386507013812661" lon="4.779380969703198">
        <ele>258.73000000000002</ele>
        <time>2025-04-23T16:22:02Z</time>
      </trkpt>
      <trkpt lat="46.386128989979625" lon="4.779222970828414">
        <ele>257.76999999999998</ele>
        <time>2025-04-23T16:22:04Z</time>
      </trkpt>
      <trkpt lat="46.384761985391378" lon="4.778648978099227">
        <ele>256.32999999999998</ele>
        <time>2025-04-23T16:22:12Z</time>
      </trkpt>
      <trkpt lat="46.384387984871864" lon="4.778407998383045">
        <ele>255.84999999999999</ele>
        <time>2025-04-23T16:22:15Z</time>
      </trkpt>
      <trkpt lat="46.384302992373705" lon="4.778304984793067">
        <ele>255.37</ele>
        <time>2025-04-23T16:22:16Z</time>
      </trkpt>
      <trkpt lat="46.384215988218784" lon="4.778185961768031">
        <ele>254.88999999999999</ele>
        <time>2025-04-23T16:22:17Z</time>
      </trkpt>
      <trkpt lat="46.384121021255851" lon="4.778055958449841">
        <ele>254.41</ele>
        <time>2025-04-23T16:22:18Z</time>
      </trkpt>
      <trkpt lat="46.384030999615788" lon="4.777932995930314">
        <ele>253.44</ele>
        <time>2025-04-23T16:22:19Z</time>
      </trkpt>
      <trkpt lat="46.383942989632487" lon="4.777803998440504">
        <ele>252.96000000000001</ele>
        <time>2025-04-23T16:22:20Z</time>
      </trkpt>
      <trkpt lat="46.383849028497934" lon="4.777614986523986">
        <ele>252</ele>
        <time>2025-04-23T16:22:21Z</time>
      </trkpt>
      <trkpt lat="46.383791025727987" lon="4.777431003749371">
        <ele>251.52000000000001</ele>
        <time>2025-04-23T16:22:22Z</time>
      </trkpt>
      <trkpt lat="46.383728999644518" lon="4.777221037074924">
        <ele>250.56</ele>
        <time>2025-04-23T16:22:23Z</time>
      </trkpt>
      <trkpt lat="46.383678037673235" lon="4.777016015723348">
        <ele>249.59999999999999</ele>
        <time>2025-04-23T16:22:24Z</time>
      </trkpt>
      <trkpt lat="46.383624980226159" lon="4.776805965229869">
        <ele>248.63999999999999</ele>
        <time>2025-04-23T16:22:25Z</time>
      </trkpt>
      <trkpt lat="46.383507968857884" lon="4.776335991919041">
        <ele>246.22999999999999</ele>
        <time>2025-04-23T16:22:27Z</time>
      </trkpt>
      <trkpt lat="46.383450971916318" lon="4.776111021637917">
        <ele>244.78999999999999</ele>
        <time>2025-04-23T16:22:28Z</time>
      </trkpt>
      <trkpt lat="46.383396992459893" lon="4.775893008336425">
        <ele>243.34999999999999</ele>
        <time>2025-04-23T16:22:29Z</time>
      </trkpt>
      <trkpt lat="46.38334603048861" lon="4.77568999864161">
        <ele>241.91</ele>
        <time>2025-04-23T16:22:30Z</time>
      </trkpt>
      <trkpt lat="46.383290961384773" lon="4.775468967854977">
        <ele>239.99000000000001</ele>
        <time>2025-04-23T16:22:31Z</time>
      </trkpt>
      <trkpt lat="46.383193982765079" lon="4.775315998122096">
        <ele>238.06</ele>
        <time>2025-04-23T16:22:32Z</time>
      </trkpt>
      <trkpt lat="46.383086023852229" lon="4.775144001469016">
        <ele>235.66</ele>
        <time>2025-04-23T16:22:33Z</time>
      </trkpt>
      <trkpt lat="46.382985021919012" lon="4.77498197928071">
        <ele>234.22</ele>
        <time>2025-04-23T16:22:34Z</time>
      </trkpt>
      <trkpt lat="46.382892988622189" lon="4.774836972355843">
        <ele>231.81</ele>
        <time>2025-04-23T16:22:35Z</time>
      </trkpt>
      <trkpt lat="46.38281000778079" lon="4.774689031764865">
        <ele>229.88999999999999</ele>
        <time>2025-04-23T16:22:36Z</time>
      </trkpt>
      <trkpt lat="46.382759967818856" lon="4.774515023455024">
        <ele>227.49000000000001</ele>
        <time>2025-04-23T16:22:37Z</time>
      </trkpt>
      <trkpt lat="46.382708000019193" lon="4.774334980174899">
        <ele>225.09</ele>
        <time>2025-04-23T16:22:38Z</time>
      </trkpt>
      <trkpt lat="46.382658965885639" lon="4.774166001006961">
        <ele>222.19999999999999</ele>
        <time>2025-04-23T16:22:39Z</time>
      </trkpt>
      <trkpt lat="46.382615966722369" lon="4.77401596494019">
        <ele>219.80000000000001</ele>
        <time>2025-04-23T16:22:40Z</time>
      </trkpt>
      <trkpt lat="46.382572967559099" lon="4.773867018520832">
        <ele>217.88</ele>
        <time>2025-04-23T16:22:41Z</time>
      </trkpt>
      <trkpt lat="46.382520999759436" lon="4.77371203713119">
        <ele>216.43000000000001</ele>
        <time>2025-04-23T16:22:42Z</time>
      </trkpt>
      <trkpt lat="46.382456040009856" lon="4.773572981357575">
        <ele>215.94999999999999</ele>
        <time>2025-04-23T16:22:43Z</time>
      </trkpt>
      <trkpt lat="46.382347997277975" lon="4.773396961390972">
        <ele>215.47</ele>
        <time>2025-04-23T16:22:44Z</time>
      </trkpt>
      <trkpt lat="46.382087990641594" lon="4.77315598167479">
        <ele>214.99000000000001</ele>
        <time>2025-04-23T16:22:47Z</time>
      </trkpt>
      <trkpt lat="46.382024036720395" lon="4.773076018318534">
        <ele>214.99000000000001</ele>
        <time>2025-04-23T16:22:48Z</time>
      </trkpt>
      <trkpt lat="46.38160896487534" lon="4.772327011451125">
        <ele>217.40000000000001</ele>
        <time>2025-04-23T16:22:57Z</time>
      </trkpt>
      <trkpt lat="46.381580969318748" lon="4.772269008681178">
        <ele>218.84</ele>
        <time>2025-04-23T16:23:06Z</time>
      </trkpt>
      <trkpt lat="46.381429005414248" lon="4.772178987041116">
        <ele>219.31999999999999</ele>
        <time>2025-04-23T16:23:07Z</time>
      </trkpt>
      <trkpt lat="46.38139296323061" lon="4.772241013124585">
        <ele>219.31999999999999</ele>
        <time>2025-04-23T16:23:08Z</time>
      </trkpt>
      <trkpt lat="46.381343007087708" lon="4.772323993965983">
        <ele>219.31999999999999</ele>
        <time>2025-04-23T16:23:09Z</time>
      </trkpt>
      <trkpt lat="46.38128399848938" lon="4.77242399007082">
        <ele>219.31999999999999</ele>
        <time>2025-04-23T16:23:10Z</time>
      </trkpt>
      <trkpt lat="46.381129017099738" lon="4.772706041112542">
        <ele>218.84</ele>
        <time>2025-04-23T16:23:13Z</time>
      </trkpt>
      <trkpt lat="46.380677986890078" lon="4.774143034592271">
        <ele>220.75999999999999</ele>
        <time>2025-04-23T16:23:20Z</time>
      </trkpt>
      <trkpt lat="46.380629036575556" lon="4.774279994890094">
        <ele>221.24000000000001</ele>
        <time>2025-04-23T16:23:21Z</time>
      </trkpt>
      <trkpt lat="46.380581008270383" lon="4.774414021521807">
        <ele>222.19999999999999</ele>
        <time>2025-04-23T16:23:22Z</time>
      </trkpt>
      <trkpt lat="46.380539014935493" lon="4.774542013183236">
        <ele>223.16</ele>
        <time>2025-04-23T16:23:23Z</time>
      </trkpt>
      <trkpt lat="46.379840970039368" lon="4.776103980839253">
        <ele>233.25999999999999</ele>
        <time>2025-04-23T16:23:36Z</time>
      </trkpt>
      <trkpt lat="46.379513991996646" lon="4.776714015752077">
        <ele>235.66</ele>
        <time>2025-04-23T16:23:41Z</time>
      </trkpt>
      <trkpt lat="46.379451965913177" lon="4.776776041835547">
        <ele>236.13999999999999</ele>
        <time>2025-04-23T16:23:42Z</time>
      </trkpt>
      <trkpt lat="46.379159018397331" lon="4.777077035978437">
        <ele>237.09999999999999</ele>
        <time>2025-04-23T16:23:45Z</time>
      </trkpt>
      <trkpt lat="46.379073020070791" lon="4.777210978791118">
        <ele>238.06</ele>
        <time>2025-04-23T16:23:46Z</time>
      </trkpt>
      <trkpt lat="46.378996996209025" lon="4.77736403234303">
        <ele>238.53999999999999</ele>
        <time>2025-04-23T16:23:47Z</time>
      </trkpt>
      <trkpt lat="46.378936981782317" lon="4.777546003460884">
        <ele>238.53999999999999</ele>
        <time>2025-04-23T16:23:48Z</time>
      </trkpt>
      <trkpt lat="46.378913009539247" lon="4.777777008712292">
        <ele>239.50999999999999</ele>
        <time>2025-04-23T16:23:49Z</time>
      </trkpt>
      <trkpt lat="46.378922984004021" lon="4.778008013963699">
        <ele>240.94999999999999</ele>
        <time>2025-04-23T16:23:50Z</time>
      </trkpt>
      <trkpt lat="46.378947040066123" lon="4.778252011165023">
        <ele>241.91</ele>
        <time>2025-04-23T16:23:51Z</time>
      </trkpt>
      <trkpt lat="46.379008982330561" lon="4.780484028160572">
        <ele>249.12</ele>
        <time>2025-04-23T16:23:59Z</time>
      </trkpt>
      <trkpt lat="46.378923989832401" lon="4.784599039703608">
        <ele>256.81</ele>
        <time>2025-04-23T16:24:12Z</time>
      </trkpt>
      <trkpt lat="46.378887025639415" lon="4.784860974177718">
        <ele>256.81</ele>
        <time>2025-04-23T16:24:13Z</time>
      </trkpt>
      <trkpt lat="46.378807984292507" lon="4.785119974985719">
        <ele>257.29000000000002</ele>
        <time>2025-04-23T16:24:14Z</time>
      </trkpt>
      <trkpt lat="46.378696002066135" lon="4.785341005772352">
        <ele>257.29000000000002</ele>
        <time>2025-04-23T16:24:15Z</time>
      </trkpt>
      <trkpt lat="46.378564992919564" lon="4.785533035174012">
        <ele>257.29000000000002</ele>
        <time>2025-04-23T16:24:16Z</time>
      </trkpt>
      <trkpt lat="46.378427026793361" lon="4.785733027383685">
        <ele>257.76999999999998</ele>
        <time>2025-04-23T16:24:17Z</time>
      </trkpt>
      <trkpt lat="46.378285037353635" lon="4.78593997657299">
        <ele>257.76999999999998</ele>
        <time>2025-04-23T16:24:18Z</time>
      </trkpt>
      <trkpt lat="46.377659998834133" lon="4.786719996482134">
        <ele>257.76999999999998</ele>
        <time>2025-04-23T16:24:22Z</time>
      </trkpt>
      <trkpt lat="46.377090029418468" lon="4.787397002801299">
        <ele>258.25</ele>
        <time>2025-04-23T16:24:26Z</time>
      </trkpt>
      <trkpt lat="46.376917026937008" lon="4.787495993077755">
        <ele>258.25</ele>
        <time>2025-04-23T16:24:27Z</time>
      </trkpt>
      <trkpt lat="46.376745030283928" lon="4.787562964484096">
        <ele>258.25</ele>
        <time>2025-04-23T16:24:28Z</time>
      </trkpt>
      <trkpt lat="46.376210013404489" lon="4.787670001387596">
        <ele>255.84999999999999</ele>
        <time>2025-04-23T16:24:31Z</time>
      </trkpt>
      <trkpt lat="46.376017984002829" lon="4.787658015266061">
        <ele>254.88999999999999</ele>
        <time>2025-04-23T16:24:32Z</time>
      </trkpt>
      <trkpt lat="46.375815980136395" lon="4.787630019709468">
        <ele>253.93000000000001</ele>
        <time>2025-04-23T16:24:33Z</time>
      </trkpt>
      <trkpt lat="46.374759022146463" lon="4.787529017776251">
        <ele>249.12</ele>
        <time>2025-04-23T16:24:38Z</time>
      </trkpt>
      <trkpt lat="46.374541008844972" lon="4.787529017776251">
        <ele>248.16</ele>
        <time>2025-04-23T16:24:39Z</time>
      </trkpt>
      <trkpt lat="46.374336993321776" lon="4.787536980584264">
        <ele>246.72</ele>
        <time>2025-04-23T16:24:40Z</time>
      </trkpt>
      <trkpt lat="46.374132977798581" lon="4.787600012496114">
        <ele>245.75</ele>
        <time>2025-04-23T16:24:41Z</time>
      </trkpt>
      <trkpt lat="46.373948995023966" lon="4.787705037742853">
        <ele>244.78999999999999</ele>
        <time>2025-04-23T16:24:42Z</time>
      </trkpt>
      <trkpt lat="46.373757971450686" lon="4.787833029404283">
        <ele>243.83000000000001</ele>
        <time>2025-04-23T16:24:43Z</time>
      </trkpt>
      <trkpt lat="46.373569965362549" lon="4.78795800358057">
        <ele>242.87</ele>
        <time>2025-04-23T16:24:44Z</time>
      </trkpt>
      <trkpt lat="46.371580017730594" lon="4.789100037887693">
        <ele>248.16</ele>
        <time>2025-04-23T16:24:54Z</time>
      </trkpt>
      <trkpt lat="46.369120012968779" lon="4.790122965350747">
        <ele>260.64999999999998</ele>
        <time>2025-04-23T16:25:06Z</time>
      </trkpt>
      <trkpt lat="46.368911974132061" lon="4.790165964514017">
        <ele>262.10000000000002</ele>
        <time>2025-04-23T16:25:07Z</time>
      </trkpt>
      <trkpt lat="46.368699995800853" lon="4.790193038061261">
        <ele>263.06</ele>
        <time>2025-04-23T16:25:08Z</time>
      </trkpt>
      <trkpt lat="46.368103958666325" lon="4.790268978103995">
        <ele>266.89999999999998</ele>
        <time>2025-04-23T16:25:11Z</time>
      </trkpt>
      <trkpt lat="46.367915030568838" lon="4.790340978652239">
        <ele>267.86000000000001</ele>
        <time>2025-04-23T16:25:12Z</time>
      </trkpt>
      <trkpt lat="46.36772601865232" lon="4.790429994463921">
        <ele>268.82999999999998</ele>
        <time>2025-04-23T16:25:13Z</time>
      </trkpt>
      <trkpt lat="46.367548992857337" lon="4.79055798612535">
        <ele>269.79000000000002</ele>
        <time>2025-04-23T16:25:14Z</time>
      </trkpt>
      <trkpt lat="46.367390993982553" lon="4.790682960301638">
        <ele>270.75</ele>
        <time>2025-04-23T16:25:15Z</time>
      </trkpt>
      <trkpt lat="46.367225032299757" lon="4.790869960561395">
        <ele>271.70999999999998</ele>
        <time>2025-04-23T16:25:16Z</time>
      </trkpt>
      <trkpt lat="46.367067033424973" lon="4.7910510096699">
        <ele>272.67000000000002</ele>
        <time>2025-04-23T16:25:17Z</time>
      </trkpt>
      <trkpt lat="46.366919009014964" lon="4.791263993829489">
        <ele>274.11000000000001</ele>
        <time>2025-04-23T16:25:18Z</time>
      </trkpt>
      <trkpt lat="46.366768972948194" lon="4.791482007130981">
        <ele>275.06999999999999</ele>
        <time>2025-04-23T16:25:19Z</time>
      </trkpt>
      <trkpt lat="46.365439016371965" lon="4.79305000975728">
        <ele>284.20999999999998</ele>
        <time>2025-04-23T16:25:27Z</time>
      </trkpt>
      <trkpt lat="46.365248998627067" lon="4.793175989761949">
        <ele>285.17000000000002</ele>
        <time>2025-04-23T16:25:28Z</time>
      </trkpt>
      <trkpt lat="46.364879021421075" lon="4.79341596364975">
        <ele>286.61000000000001</ele>
        <time>2025-04-23T16:25:30Z</time>
      </trkpt>
      <trkpt lat="46.364721022546291" lon="4.79358502663672">
        <ele>287.56999999999999</ele>
        <time>2025-04-23T16:25:31Z</time>
      </trkpt>
      <trkpt lat="46.364565035328269" lon="4.793761968612671">
        <ele>288.52999999999997</ele>
        <time>2025-04-23T16:25:32Z</time>
      </trkpt>
      <trkpt lat="46.364262029528618" lon="4.794105039909482">
        <ele>290.45999999999998</ele>
        <time>2025-04-23T16:25:34Z</time>
      </trkpt>
      <trkpt lat="46.364090032875538" lon="4.794250968843699">
        <ele>291.42000000000002</ele>
        <time>2025-04-23T16:25:35Z</time>
      </trkpt>
      <trkpt lat="46.363914012908936" lon="4.794380972161889">
        <ele>292.38</ele>
        <time>2025-04-23T16:25:36Z</time>
      </trkpt>
      <trkpt lat="46.363722989335656" lon="4.794479962438345">
        <ele>293.33999999999997</ele>
        <time>2025-04-23T16:25:37Z</time>
      </trkpt>
      <trkpt lat="46.363522997125983" lon="4.794530002400279">
        <ele>294.30000000000001</ele>
        <time>2025-04-23T16:25:38Z</time>
      </trkpt>
      <trkpt lat="46.363317975774407" lon="4.794581970199943">
        <ele>295.25999999999999</ele>
        <time>2025-04-23T16:25:39Z</time>
      </trkpt>
      <trkpt lat="46.362706013023853" lon="4.79476603679359">
        <ele>298.14999999999998</ele>
        <time>2025-04-23T16:25:42Z</time>
      </trkpt>
      <trkpt lat="46.362303011119366" lon="4.79491800069809">
        <ele>299.11000000000001</ele>
        <time>2025-04-23T16:25:44Z</time>
      </trkpt>
      <trkpt lat="46.36209798976779" lon="4.794985977932811">
        <ele>300.06999999999999</ele>
        <time>2025-04-23T16:25:45Z</time>
      </trkpt>
      <trkpt lat="46.359571013599634" lon="4.795443965122104">
        <ele>308.72000000000003</ele>
        <time>2025-04-23T16:25:57Z</time>
      </trkpt>
      <trkpt lat="46.359021998941898" lon="4.795496016740799">
        <ele>310.63999999999999</ele>
        <time>2025-04-23T16:26:00Z</time>
      </trkpt>
      <trkpt lat="46.358856959268451" lon="4.795601963996887">
        <ele>311.12</ele>
        <time>2025-04-23T16:26:01Z</time>
      </trkpt>
      <trkpt lat="46.358697032555938" lon="4.795704977586865">
        <ele>312.08999999999997</ele>
        <time>2025-04-23T16:26:02Z</time>
      </trkpt>
      <trkpt lat="46.358161009848118" lon="4.796049976721406">
        <ele>314.00999999999999</ele>
        <time>2025-04-23T16:26:07Z</time>
      </trkpt>
      <trkpt lat="46.358099989593029" lon="4.796110996976495">
        <ele>314.00999999999999</ele>
        <time>2025-04-23T16:26:08Z</time>
      </trkpt>
      <trkpt lat="46.358099989593029" lon="4.796189032495022">
        <ele>314.00999999999999</ele>
        <time>2025-04-23T16:26:09Z</time>
      </trkpt>
      <trkpt lat="46.358099989593029" lon="4.796286011114717">
        <ele>314.00999999999999</ele>
        <time>2025-04-23T16:26:10Z</time>
      </trkpt>
      <trkpt lat="46.358099989593029" lon="4.79640000499785">
        <ele>314.00999999999999</ele>
        <time>2025-04-23T16:26:11Z</time>
      </trkpt>
      <trkpt lat="46.358099989593029" lon="4.796850029379129">
        <ele>314.00999999999999</ele>
        <time>2025-04-23T16:26:17Z</time>
      </trkpt>
      <trkpt lat="46.358099989593029" lon="4.796909959986806">
        <ele>314.49000000000001</ele>
        <time>2025-04-23T16:26:20Z</time>
      </trkpt>
      <trkpt lat="46.358098983764648" lon="4.796994030475617">
        <ele>314.49000000000001</ele>
        <time>2025-04-23T16:26:21Z</time>
      </trkpt>
      <trkpt lat="46.358076017349958" lon="4.798074960708618">
        <ele>314.00999999999999</ele>
        <time>2025-04-23T16:26:28Z</time>
      </trkpt>
      <trkpt lat="46.35805900208652" lon="4.798859003931284">
        <ele>312.56999999999999</ele>
        <time>2025-04-23T16:26:35Z</time>
      </trkpt>
      <trkpt lat="46.35805900208652" lon="4.798879036679864">
        <ele>312.08999999999997</ele>
        <time>2025-04-23T16:26:38Z</time>
      </trkpt>
      <trkpt lat="46.35801600292325" lon="4.79895900003612">
        <ele>312.08999999999997</ele>
        <time>2025-04-23T16:26:40Z</time>
      </trkpt>
      <trkpt lat="46.357815004885197" lon="4.798924969509244">
        <ele>312.08999999999997</ele>
        <time>2025-04-23T16:26:43Z</time>
      </trkpt>
      <trkpt lat="46.357626998797059" lon="4.798945002257824">
        <ele>312.08999999999997</ele>
        <time>2025-04-23T16:26:44Z</time>
      </trkpt>
      <trkpt lat="46.3575420062989" lon="4.799029994755983">
        <ele>311.60000000000002</ele>
        <time>2025-04-23T16:26:45Z</time>
      </trkpt>
      <trkpt lat="46.35743304155767" lon="4.799156980589032">
        <ele>311.60000000000002</ele>
        <time>2025-04-23T16:26:46Z</time>
      </trkpt>
      <trkpt lat="46.35664002969861" lon="4.800082007423043">
        <ele>311.12</ele>
        <time>2025-04-23T16:26:52Z</time>
      </trkpt>
      <trkpt lat="46.355807958170772" lon="4.800974009558559">
        <ele>310.16000000000003</ele>
        <time>2025-04-23T16:26:58Z</time>
      </trkpt>
      <trkpt lat="46.35567300952971" lon="4.801071994006634">
        <ele>310.16000000000003</ele>
        <time>2025-04-23T16:26:59Z</time>
      </trkpt>
      <trkpt lat="46.355521967634559" lon="4.801147012040019">
        <ele>310.16000000000003</ele>
        <time>2025-04-23T16:27:00Z</time>
      </trkpt>
      <trkpt lat="46.355355000123382" lon="4.801175007596612">
        <ele>310.16000000000003</ele>
        <time>2025-04-23T16:27:01Z</time>
      </trkpt>
      <trkpt lat="46.355185015127063" lon="4.801169978454709">
        <ele>310.16000000000003</ele>
        <time>2025-04-23T16:27:02Z</time>
      </trkpt>
      <trkpt lat="46.353462031111121" lon="4.801119016483426">
        <ele>302.47000000000003</ele>
        <time>2025-04-23T16:27:11Z</time>
      </trkpt>
      <trkpt lat="46.351947002112865" lon="4.801567029207945">
        <ele>295.74000000000001</ele>
        <time>2025-04-23T16:27:19Z</time>
      </trkpt>
      <trkpt lat="46.350454017519951" lon="4.802053011953831">
        <ele>289.49000000000001</ele>
        <time>2025-04-23T16:27:27Z</time>
      </trkpt>
      <trkpt lat="46.350274980068207" lon="4.802155019715428">
        <ele>288.52999999999997</ele>
        <time>2025-04-23T16:27:28Z</time>
      </trkpt>
      <trkpt lat="46.350099965929985" lon="4.802307989448309">
        <ele>288.05000000000001</ele>
        <time>2025-04-23T16:27:29Z</time>
      </trkpt>
      <trkpt lat="46.348765986040235" lon="4.80372603982687">
        <ele>280.36000000000001</ele>
        <time>2025-04-23T16:27:37Z</time>
      </trkpt>
      <trkpt lat="46.347729982808232" lon="4.805087009444833">
        <ele>276.04000000000002</ele>
        <time>2025-04-23T16:27:45Z</time>
      </trkpt>
      <trkpt lat="46.347366040572524" lon="4.805628983303905">
        <ele>275.06999999999999</ele>
        <time>2025-04-23T16:27:48Z</time>
      </trkpt>
      <trkpt lat="46.346418969333172" lon="4.807383986189961">
        <ele>275.06999999999999</ele>
        <time>2025-04-23T16:27:57Z</time>
      </trkpt>
      <trkpt lat="46.346340011805296" lon="4.807532010599971">
        <ele>275.56</ele>
        <time>2025-04-23T16:27:58Z</time>
      </trkpt>
      <trkpt lat="46.346244039013982" lon="4.807653967291117">
        <ele>276.04000000000002</ele>
        <time>2025-04-23T16:27:59Z</time>
      </trkpt>
      <trkpt lat="46.346126021817327" lon="4.807784976437688">
        <ele>276.51999999999998</ele>
        <time>2025-04-23T16:28:00Z</time>
      </trkpt>
      <trkpt lat="46.346000041812658" lon="4.80780802667141">
        <ele>277</ele>
        <time>2025-04-23T16:28:01Z</time>
      </trkpt>
      <trkpt lat="46.34585696272552" lon="4.807835016399622">
        <ele>277</ele>
        <time>2025-04-23T16:28:02Z</time>
      </trkpt>
      <trkpt lat="46.344487024471164" lon="4.807841973379254">
        <ele>271.23000000000002</ele>
        <time>2025-04-23T16:28:10Z</time>
      </trkpt>
      <trkpt lat="46.34172803722322" lon="4.807825963944197">
        <ele>273.63</ele>
        <time>2025-04-23T16:28:25Z</time>
      </trkpt>
      <trkpt lat="46.339972028508782" lon="4.807823030278087">
        <ele>269.31</ele>
        <time>2025-04-23T16:28:35Z</time>
      </trkpt>
      <trkpt lat="46.338681969791651" lon="4.807827975600958">
        <ele>265.94</ele>
        <time>2025-04-23T16:28:43Z</time>
      </trkpt>
      <trkpt lat="46.338535035029054" lon="4.807820012792945">
        <ele>264.98000000000002</ele>
        <time>2025-04-23T16:28:46Z</time>
      </trkpt>
      <trkpt lat="46.338524976745248" lon="4.807815989479423">
        <ele>264.5</ele>
        <time>2025-04-23T16:28:47Z</time>
      </trkpt>
      <trkpt lat="46.338535035029054" lon="4.807694032788277">
        <ele>263.54000000000002</ele>
        <time>2025-04-23T16:28:49Z</time>
      </trkpt>
      <trkpt lat="46.338596977293491" lon="4.807677017524838">
        <ele>263.06</ele>
        <time>2025-04-23T16:28:50Z</time>
      </trkpt>
      <trkpt lat="46.338651040568948" lon="4.807663019746542">
        <ele>263.06</ele>
        <time>2025-04-23T16:28:51Z</time>
      </trkpt>
      <trkpt lat="46.338723041117191" lon="4.807643992826343">
        <ele>262.57999999999998</ele>
        <time>2025-04-23T16:28:52Z</time>
      </trkpt>
      <trkpt lat="46.338811973109841" lon="4.807619014754891">
        <ele>262.10000000000002</ele>
        <time>2025-04-23T16:28:53Z</time>
      </trkpt>
      <trkpt lat="46.338913980871439" lon="4.807592025026679">
        <ele>261.62</ele>
        <time>2025-04-23T16:28:54Z</time>
      </trkpt>
      <trkpt lat="46.339583024382591" lon="4.807410975918174">
        <ele>259.69</ele>
        <time>2025-04-23T16:28:59Z</time>
      </trkpt>
      <trkpt lat="46.339716967195272" lon="4.807369988411665">
        <ele>259.69</ele>
        <time>2025-04-23T16:29:00Z</time>
      </trkpt>
      <trkpt lat="46.339830039069057" lon="4.807244008406997">
        <ele>259.69</ele>
        <time>2025-04-23T16:29:01Z</time>
      </trkpt>
      <trkpt lat="46.339939003810287" lon="4.807086009532213">
        <ele>259.20999999999998</ele>
        <time>2025-04-23T16:29:02Z</time>
      </trkpt>
      <trkpt lat="46.340027013793588" lon="4.806894985958934">
        <ele>258.73000000000002</ele>
        <time>2025-04-23T16:29:03Z</time>
      </trkpt>
      <trkpt lat="46.340120974928141" lon="4.806691976264119">
        <ele>257.76999999999998</ele>
        <time>2025-04-23T16:29:04Z</time>
      </trkpt>
      <trkpt lat="46.340666972100735" lon="4.805435026064515">
        <ele>257.29000000000002</ele>
        <time>2025-04-23T16:29:11Z</time>
      </trkpt>
      <trkpt lat="46.341350013390183" lon="4.803847996518016">
        <ele>261.13999999999999</ele>
        <time>2025-04-23T16:29:22Z</time>
      </trkpt>
      <trkpt lat="46.341784028336406" lon="4.802829008549452">
        <ele>264.5</ele>
        <time>2025-04-23T16:29:29Z</time>
      </trkpt>
      <trkpt lat="46.341845970600843" lon="4.802681989967823">
        <ele>264.98000000000002</ele>
        <time>2025-04-23T16:29:30Z</time>
      </trkpt>
      <trkpt lat="46.342435972765088" lon="4.801296964287758">
        <ele>273.63</ele>
        <time>2025-04-23T16:29:41Z</time>
      </trkpt>
      <trkpt lat="46.34282698854804" lon="4.800743004307151">
        <ele>277.95999999999998</ele>
        <time>2025-04-23T16:29:49Z</time>
      </trkpt>
      <trkpt lat="46.342893037945032" lon="4.800693970173597">
        <ele>277.95999999999998</ele>
        <time>2025-04-23T16:29:50Z</time>
      </trkpt>
      <trkpt lat="46.343781016767025" lon="4.800191977992654">
        <ele>282.76999999999998</ele>
        <time>2025-04-23T16:30:01Z</time>
      </trkpt>
      <trkpt lat="46.344538992270827" lon="4.799791993573308">
        <ele>284.69</ele>
        <time>2025-04-23T16:30:11Z</time>
      </trkpt>
      <trkpt lat="46.344605041667819" lon="4.799767015501857">
        <ele>285.17000000000002</ele>
        <time>2025-04-23T16:30:13Z</time>
      </trkpt>
      <trkpt lat="46.344623984768987" lon="4.799738014116883">
        <ele>285.64999999999998</ele>
        <time>2025-04-23T16:30:14Z</time>
      </trkpt>
      <trkpt lat="46.34460998699069" lon="4.799696020781994">
        <ele>285.64999999999998</ele>
        <time>2025-04-23T16:30:15Z</time>
      </trkpt>
      <trkpt lat="46.344603030011058" lon="4.799673976376653">
        <ele>286.13</ele>
        <time>2025-04-23T16:30:16Z</time>
      </trkpt>
      <trkpt lat="46.344533041119576" lon="4.7995800152421">
        <ele>286.13</ele>
        <time>2025-04-23T16:30:17Z</time>
      </trkpt>
      <trkpt lat="46.344512002542615" lon="4.799486976116896">
        <ele>286.13</ele>
        <time>2025-04-23T16:30:18Z</time>
      </trkpt>
      <trkpt lat="46.344489036127925" lon="4.799383962526918">
        <ele>286.61000000000001</ele>
        <time>2025-04-23T16:30:19Z</time>
      </trkpt>
      <trkpt lat="46.344461962580681" lon="4.799267034977675">
        <ele>286.61000000000001</ele>
        <time>2025-04-23T16:30:20Z</time>
      </trkpt>
      <trkpt lat="46.344433967024088" lon="4.799140971153975">
        <ele>286.61000000000001</ele>
        <time>2025-04-23T16:30:21Z</time>
      </trkpt>
      <trkpt lat="46.344403037801385" lon="4.799008034169674">
        <ele>286.61000000000001</ele>
        <time>2025-04-23T16:30:22Z</time>
      </trkpt>
      <trkpt lat="46.344190975651145" lon="4.797528041526675">
        <ele>283.73000000000002</ele>
        <time>2025-04-23T16:30:31Z</time>
      </trkpt>
      <trkpt lat="46.344220982864499" lon="4.796012006700039">
        <ele>282.76999999999998</ele>
        <time>2025-04-23T16:30:40Z</time>
      </trkpt>
      <trkpt lat="46.344261970371008" lon="4.795079017058015">
        <ele>283.25</ele>
        <time>2025-04-23T16:30:46Z</time>
      </trkpt>
      <trkpt lat="46.344360960647464" lon="4.794352976605296">
        <ele>283.73000000000002</ele>
        <time>2025-04-23T16:30:51Z</time>
      </trkpt>
      <trkpt lat="46.344390967860818" lon="4.79423101991415">
        <ele>283.73000000000002</ele>
        <time>2025-04-23T16:30:52Z</time>
      </trkpt>
      <trkpt lat="46.344423992559314" lon="4.794122977182269">
        <ele>283.73000000000002</ele>
        <time>2025-04-23T16:30:53Z</time>
      </trkpt>
      <trkpt lat="46.344451988115907" lon="4.794030021876097">
        <ele>283.73000000000002</ele>
        <time>2025-04-23T16:30:54Z</time>
      </trkpt>
      <trkpt lat="46.344464980065823" lon="4.793902030214667">
        <ele>284.20999999999998</ele>
        <time>2025-04-23T16:30:55Z</time>
      </trkpt>
      <trkpt lat="46.344470009207726" lon="4.793789964169264">
        <ele>284.69</ele>
        <time>2025-04-23T16:30:56Z</time>
      </trkpt>
      <trkpt lat="46.344453999772668" lon="4.793669013306499">
        <ele>284.69</ele>
        <time>2025-04-23T16:30:57Z</time>
      </trkpt>
      <trkpt lat="46.34443799033761" lon="4.793548984453082">
        <ele>285.17000000000002</ele>
        <time>2025-04-23T16:30:58Z</time>
      </trkpt>
      <trkpt lat="46.344407983124256" lon="4.793311022222042">
        <ele>286.61000000000001</ele>
        <time>2025-04-23T16:31:00Z</time>
      </trkpt>
      <trkpt lat="46.344402031973004" lon="4.793190993368626">
        <ele>287.56999999999999</ele>
        <time>2025-04-23T16:31:01Z</time>
      </trkpt>
      <trkpt lat="46.344521977007389" lon="4.792348025366664">
        <ele>292.38</ele>
        <time>2025-04-23T16:31:08Z</time>
      </trkpt>
      <trkpt lat="46.344574028626084" lon="4.792251968756318">
        <ele>292.38</ele>
        <time>2025-04-23T16:31:09Z</time>
      </trkpt>
      <trkpt lat="46.344788018614054" lon="4.791860030964017">
        <ele>292.86000000000001</ele>
        <time>2025-04-23T16:31:13Z</time>
      </trkpt>
      <trkpt lat="46.344830011948943" lon="4.79178199544549">
        <ele>293.33999999999997</ele>
        <time>2025-04-23T16:31:14Z</time>
      </trkpt>
      <trkpt lat="46.344984993338585" lon="4.791498016566038">
        <ele>293.81999999999999</ele>
        <time>2025-04-23T16:31:20Z</time>
      </trkpt>
      <trkpt lat="46.344991028308868" lon="4.791487036272883">
        <ele>294.30000000000001</ele>
        <time>2025-04-23T16:31:21Z</time>
      </trkpt>
      <trkpt lat="46.34495297446847" lon="4.791432972997427">
        <ele>294.30000000000001</ele>
        <time>2025-04-23T16:31:22Z</time>
      </trkpt>
      <trkpt lat="46.344926990568638" lon="4.791440013796091">
        <ele>294.77999999999997</ele>
        <time>2025-04-23T16:31:23Z</time>
      </trkpt>
      <trkpt lat="46.344878962263465" lon="4.791453005746007">
        <ele>294.77999999999997</ele>
        <time>2025-04-23T16:31:24Z</time>
      </trkpt>
      <trkpt lat="46.344822971150279" lon="4.791468009352684">
        <ele>294.77999999999997</ele>
        <time>2025-04-23T16:31:25Z</time>
      </trkpt>
      <trkpt lat="46.344764968380332" lon="4.791483012959361">
        <ele>295.25999999999999</ele>
        <time>2025-04-23T16:31:26Z</time>
      </trkpt>
      <trkpt lat="46.344709983095527" lon="4.791498016566038">
        <ele>295.25999999999999</ele>
        <time>2025-04-23T16:31:27Z</time>
      </trkpt>
      <trkpt lat="46.344579979777336" lon="4.791588960215449">
        <ele>295.74000000000001</ele>
        <time>2025-04-23T16:31:29Z</time>
      </trkpt>
      <trkpt lat="46.344503033906221" lon="4.791643023490906">
        <ele>295.74000000000001</ele>
        <time>2025-04-23T16:31:30Z</time>
      </trkpt>
      <trkpt lat="46.343739023432136" lon="4.792133029550314">
        <ele>298.14999999999998</ele>
        <time>2025-04-23T16:31:38Z</time>
      </trkpt>
      <trkpt lat="46.343630980700254" lon="4.79214602150023">
        <ele>298.14999999999998</ele>
        <time>2025-04-23T16:31:39Z</time>
      </trkpt>
      <trkpt lat="46.343524027615786" lon="4.792158007621765">
        <ele>298.14999999999998</ele>
        <time>2025-04-23T16:31:40Z</time>
      </trkpt>
      <trkpt lat="46.343417996540666" lon="4.7921699937433">
        <ele>297.67000000000002</ele>
        <time>2025-04-23T16:31:41Z</time>
      </trkpt>
      <trkpt lat="46.343313977122307" lon="4.792181979864836">
        <ele>297.67000000000002</ele>
        <time>2025-04-23T16:31:42Z</time>
      </trkpt>
      <trkpt lat="46.34321297518909" lon="4.792178040370345">
        <ele>297.18000000000001</ele>
        <time>2025-04-23T16:31:43Z</time>
      </trkpt>
      <trkpt lat="46.342582991346717" lon="4.792107967659831">
        <ele>294.30000000000001</ele>
        <time>2025-04-23T16:31:52Z</time>
      </trkpt>
      <trkpt lat="46.342500010505319" lon="4.792098999023438">
        <ele>294.30000000000001</ele>
        <time>2025-04-23T16:32:01Z</time>
      </trkpt>
      <trkpt lat="46.342484001070261" lon="4.792098999023438">
        <ele>294.30000000000001</ele>
        <time>2025-04-23T16:32:02Z</time>
      </trkpt>
      <trkpt lat="46.342508979141712" lon="4.792223973199725">
        <ele>293.33999999999997</ele>
        <time>2025-04-23T16:32:17Z</time>
      </trkpt>
      <trkpt lat="46.342543009668589" lon="4.792656982317567">
        <ele>290.94</ele>
        <time>2025-04-23T16:32:22Z</time>
      </trkpt>
      <trkpt lat="46.342596989125013" lon="4.792711967602372">
        <ele>289.97000000000003</ele>
        <time>2025-04-23T16:32:23Z</time>
      </trkpt>
      <trkpt lat="46.342629007995129" lon="4.792742980644107">
        <ele>289.49000000000001</ele>
        <time>2025-04-23T16:32:24Z</time>
      </trkpt>
      <trkpt lat="46.342730009928346" lon="4.792753038927913">
        <ele>286.13</ele>
        <time>2025-04-23T16:32:33Z</time>
      </trkpt>
      <trkpt lat="46.342730009928346" lon="4.792753038927913">
        <ele>285.17000000000002</ele>
        <time>2025-04-23T16:32:47Z</time>
      </trkpt>
      <trkpt lat="46.342730009928346" lon="4.792753038927913">
        <ele>284.69</ele>
        <time>2025-04-23T16:33:00Z</time>
      </trkpt>
      <trkpt lat="46.342730009928346" lon="4.792753038927913">
        <ele>284.69</ele>
        <time>2025-04-23T16:33:19Z</time>
      </trkpt>
      <trkpt lat="46.342730009928346" lon="4.792753038927913">
        <ele>284.20999999999998</ele>
        <time>2025-04-23T16:33:37Z</time>
      </trkpt>
      <trkpt lat="46.342722969129682" lon="4.792484985664487">
        <ele>294.30000000000001</ele>
        <time>2025-04-24T06:38:05Z</time>
      </trkpt>
      <trkpt lat="46.342709977179766" lon="4.792751027271152">
        <ele>270.26999999999998</ele>
        <time>2025-04-24T06:38:27Z</time>
      </trkpt>
      <trkpt lat="46.342668989673257" lon="4.792747003957629">
        <ele>269.79000000000002</ele>
        <time>2025-04-24T06:38:28Z</time>
      </trkpt>
      <trkpt lat="46.342629007995129" lon="4.792742980644107">
        <ele>269.79000000000002</ele>
        <time>2025-04-24T06:38:29Z</time>
      </trkpt>
      <trkpt lat="46.342599000781775" lon="4.792713979259133">
        <ele>269.31</ele>
        <time>2025-04-24T06:38:30Z</time>
      </trkpt>
      <trkpt lat="46.342543009668589" lon="4.792655976489186">
        <ele>268.82999999999998</ele>
        <time>2025-04-24T06:38:31Z</time>
      </trkpt>
      <trkpt lat="46.342537980526686" lon="4.792594034224749">
        <ele>268.35000000000002</ele>
        <time>2025-04-24T06:38:32Z</time>
      </trkpt>
      <trkpt lat="46.342533035203815" lon="4.792531002312899">
        <ele>268.35000000000002</ele>
        <time>2025-04-24T06:38:33Z</time>
      </trkpt>
      <trkpt lat="46.342505039647222" lon="4.79216898791492">
        <ele>265.94</ele>
        <time>2025-04-24T06:38:42Z</time>
      </trkpt>
      <trkpt lat="46.342454999685287" lon="4.792098999023438">
        <ele>264.98000000000002</ele>
        <time>2025-04-24T06:38:43Z</time>
      </trkpt>
      <trkpt lat="46.342398002743721" lon="4.792098999023438">
        <ele>264.01999999999998</ele>
        <time>2025-04-24T06:38:44Z</time>
      </trkpt>
      <trkpt lat="46.342317033559084" lon="4.792102016508579">
        <ele>263.06</ele>
        <time>2025-04-24T06:38:45Z</time>
      </trkpt>
      <trkpt lat="46.342234974727035" lon="4.792121965438128">
        <ele>263.06</ele>
        <time>2025-04-24T06:38:46Z</time>
      </trkpt>
      <trkpt lat="46.341325035318732" lon="4.792443998157978">
        <ele>261.62</ele>
        <time>2025-04-24T06:38:54Z</time>
      </trkpt>
      <trkpt lat="46.341023035347462" lon="4.792494960129261">
        <ele>266.89999999999998</ele>
        <time>2025-04-24T06:38:56Z</time>
      </trkpt>
      <trkpt lat="46.340854978188872" lon="4.792503006756306">
        <ele>269.31</ele>
        <time>2025-04-24T06:38:57Z</time>
      </trkpt>
      <trkpt lat="46.340685999020934" lon="4.792484985664487">
        <ele>270.75</ele>
        <time>2025-04-24T06:38:58Z</time>
      </trkpt>
      <trkpt lat="46.339964987710118" lon="4.792346013709903">
        <ele>275.06999999999999</ele>
        <time>2025-04-24T06:39:02Z</time>
      </trkpt>
      <trkpt lat="46.339790979400277" lon="4.792373003438115">
        <ele>275.56</ele>
        <time>2025-04-24T06:39:03Z</time>
      </trkpt>
      <trkpt lat="46.339790979400277" lon="4.792373003438115">
        <ele>275.56</ele>
        <time>2025-04-24T06:39:04Z</time>
      </trkpt>
      <trkpt lat="46.338737960904837" lon="4.792692018672824">
        <ele>279.88</ele>
        <time>2025-04-24T06:39:10Z</time>
      </trkpt>
      <trkpt lat="46.338610975071788" lon="4.792779022827745">
        <ele>281.80000000000001</ele>
        <time>2025-04-24T06:39:11Z</time>
      </trkpt>
      <trkpt lat="46.338481977581978" lon="4.792902991175652">
        <ele>280.83999999999997</ele>
        <time>2025-04-24T06:39:12Z</time>
      </trkpt>
      <trkpt lat="46.338349040597677" lon="4.793043974786997">
        <ele>278.92000000000002</ele>
        <time>2025-04-24T06:39:13Z</time>
      </trkpt>
      <trkpt lat="46.338219959288836" lon="4.793185964226723">
        <ele>277</ele>
        <time>2025-04-24T06:39:14Z</time>
      </trkpt>
      <trkpt lat="46.337126037105918" lon="4.794664029031992">
        <ele>265.94</ele>
        <time>2025-04-24T06:39:23Z</time>
      </trkpt>
      <trkpt lat="46.335830027237535" lon="4.795398032292724">
        <ele>260.64999999999998</ele>
        <time>2025-04-24T06:39:32Z</time>
      </trkpt>
      <trkpt lat="46.334514990448952" lon="4.796241000294685">
        <ele>256.32999999999998</ele>
        <time>2025-04-24T06:39:41Z</time>
      </trkpt>
      <trkpt lat="46.333206994459033" lon="4.796969974413514">
        <ele>252.47999999999999</ele>
        <time>2025-04-24T06:39:50Z</time>
      </trkpt>
      <trkpt lat="46.332052974030375" lon="4.797245990484953">
        <ele>248.16</ele>
        <time>2025-04-24T06:39:59Z</time>
      </trkpt>
      <trkpt lat="46.331925988197327" lon="4.797289995476604">
        <ele>248.16</ele>
        <time>2025-04-24T06:40:00Z</time>
      </trkpt>
      <trkpt lat="46.331801014021039" lon="4.797357972711325">
        <ele>247.68000000000001</ele>
        <time>2025-04-24T06:40:01Z</time>
      </trkpt>
      <trkpt lat="46.331575037911534" lon="4.797577997669578">
        <ele>247.68000000000001</ele>
        <time>2025-04-24T06:40:03Z</time>
      </trkpt>
      <trkpt lat="46.331475041806698" lon="4.797720992937684">
        <ele>247.68000000000001</ele>
        <time>2025-04-24T06:40:04Z</time>
      </trkpt>
      <trkpt lat="46.33137596771121" lon="4.797869017347693">
        <ele>247.68000000000001</ele>
        <time>2025-04-24T06:40:05Z</time>
      </trkpt>
      <trkpt lat="46.331296004354954" lon="4.798042019829154">
        <ele>247.68000000000001</ele>
        <time>2025-04-24T06:40:06Z</time>
      </trkpt>
      <trkpt lat="46.331216040998697" lon="4.798216028138995">
        <ele>248.16</ele>
        <time>2025-04-24T06:40:07Z</time>
      </trkpt>
      <trkpt lat="46.330677000805736" lon="4.799214983358979">
        <ele>249.59999999999999</ele>
        <time>2025-04-24T06:40:13Z</time>
      </trkpt>
      <trkpt lat="46.32965499535203" lon="4.800617024302483">
        <ele>250.56</ele>
        <time>2025-04-24T06:40:23Z</time>
      </trkpt>
      <trkpt lat="46.328856032341719" lon="4.802447967231274">
        <ele>248.63999999999999</ele>
        <time>2025-04-24T06:40:33Z</time>
      </trkpt>
      <trkpt lat="46.328295031562448" lon="4.8035569768399">
        <ele>246.22999999999999</ele>
        <time>2025-04-24T06:40:39Z</time>
      </trkpt>
      <trkpt lat="46.326834987848997" lon="4.805438965559006">
        <ele>239.50999999999999</ele>
        <time>2025-04-24T06:40:51Z</time>
      </trkpt>
      <trkpt lat="46.325640985742211" lon="4.807129008695483">
        <ele>234.22</ele>
        <time>2025-04-24T06:41:01Z</time>
      </trkpt>
      <trkpt lat="46.325526991859078" lon="4.807334030047059">
        <ele>233.74000000000001</ele>
        <time>2025-04-24T06:41:02Z</time>
      </trkpt>
      <trkpt lat="46.325419032946229" lon="4.807506026700139">
        <ele>233.25999999999999</ele>
        <time>2025-04-24T06:41:03Z</time>
      </trkpt>
      <trkpt lat="46.325343009084463" lon="4.80763996951282">
        <ele>233.25999999999999</ele>
        <time>2025-04-24T06:41:04Z</time>
      </trkpt>
      <trkpt lat="46.325257010757923" lon="4.807793023064733">
        <ele>232.78</ele>
        <time>2025-04-24T06:41:05Z</time>
      </trkpt>
      <trkpt lat="46.324702966958284" lon="4.808650994673371">
        <ele>231.81</ele>
        <time>2025-04-24T06:41:13Z</time>
      </trkpt>
      <trkpt lat="46.32426300086081" lon="4.809378040954471">
        <ele>232.30000000000001</ele>
        <time>2025-04-24T06:41:22Z</time>
      </trkpt>
      <trkpt lat="46.323668975383043" lon="4.810423012822866">
        <ele>233.25999999999999</ele>
        <time>2025-04-24T06:41:35Z</time>
      </trkpt>
      <trkpt lat="46.323125995695591" lon="4.811515007168055">
        <ele>231.33000000000001</ele>
        <time>2025-04-24T06:41:46Z</time>
      </trkpt>
      <trkpt lat="46.322729028761387" lon="4.81238798238337">
        <ele>229.41</ele>
        <time>2025-04-24T06:41:55Z</time>
      </trkpt>
      <trkpt lat="46.322081023827195" lon="4.813350979238749">
        <ele>225.56999999999999</ele>
        <time>2025-04-24T06:42:07Z</time>
      </trkpt>
      <trkpt lat="46.321621024981141" lon="4.814179027453065">
        <ele>223.16</ele>
        <time>2025-04-24T06:42:17Z</time>
      </trkpt>
      <trkpt lat="46.321563022211194" lon="4.8143620043993">
        <ele>222.19999999999999</ele>
        <time>2025-04-24T06:42:19Z</time>
      </trkpt>
      <trkpt lat="46.321537960320711" lon="4.814437022432685">
        <ele>221.72</ele>
        <time>2025-04-24T06:42:20Z</time>
      </trkpt>
      <trkpt lat="46.321511976420879" lon="4.814517991617322">
        <ele>221.72</ele>
        <time>2025-04-24T06:42:21Z</time>
      </trkpt>
      <trkpt lat="46.321459002792835" lon="4.81468303129077">
        <ele>220.75999999999999</ele>
        <time>2025-04-24T06:42:23Z</time>
      </trkpt>
      <trkpt lat="46.321433018893003" lon="4.814764000475407">
        <ele>220.75999999999999</ele>
        <time>2025-04-24T06:42:24Z</time>
      </trkpt>
      <trkpt lat="46.321407034993172" lon="4.814843963831663">
        <ele>220.28</ele>
        <time>2025-04-24T06:42:25Z</time>
      </trkpt>
      <trkpt lat="46.320959022268653" lon="4.81586404144764">
        <ele>218.36000000000001</ele>
        <time>2025-04-24T06:42:36Z</time>
      </trkpt>
      <trkpt lat="46.320856008678675" lon="4.816161012277007">
        <ele>217.88</ele>
        <time>2025-04-24T06:42:39Z</time>
      </trkpt>
      <trkpt lat="46.320792976766825" lon="4.816357987001538">
        <ele>217.40000000000001</ele>
        <time>2025-04-24T06:42:41Z</time>
      </trkpt>
      <trkpt lat="46.320592984557152" lon="4.817407988011837">
        <ele>217.40000000000001</ele>
        <time>2025-04-24T06:42:52Z</time>
      </trkpt>
      <trkpt lat="46.320486031472683" lon="4.817799003794789">
        <ele>217.40000000000001</ele>
        <time>2025-04-24T06:42:56Z</time>
      </trkpt>
      <trkpt lat="46.320228036493063" lon="4.818435022607446">
        <ele>215.94999999999999</ele>
        <time>2025-04-24T06:43:03Z</time>
      </trkpt>
      <trkpt lat="46.319738030433655" lon="4.819058971479535">
        <ele>218.84</ele>
        <time>2025-04-24T06:43:12Z</time>
      </trkpt>
      <trkpt lat="46.319683967158198" lon="4.819124015048146">
        <ele>218.84</ele>
        <time>2025-04-24T06:43:13Z</time>
      </trkpt>
      <trkpt lat="46.319629987701774" lon="4.819190986454487">
        <ele>219.31999999999999</ele>
        <time>2025-04-24T06:43:14Z</time>
      </trkpt>
      <trkpt lat="46.318942001089454" lon="4.820093968883157">
        <ele>219.31999999999999</ele>
        <time>2025-04-24T06:43:25Z</time>
      </trkpt>
      <trkpt lat="46.317905997857451" lon="4.821415962651372">
        <ele>218.36000000000001</ele>
        <time>2025-04-24T06:43:37Z</time>
      </trkpt>
      <trkpt lat="46.316780978813767" lon="4.822582975029945">
        <ele>217.40000000000001</ele>
        <time>2025-04-24T06:43:49Z</time>
      </trkpt>
      <trkpt lat="46.316194999963045" lon="4.823199966922402">
        <ele>217.88</ele>
        <time>2025-04-24T06:43:57Z</time>
      </trkpt>
      <trkpt lat="46.315751010552049" lon="4.823654014617205">
        <ele>218.84</ele>
        <time>2025-04-24T06:44:04Z</time>
      </trkpt>
      <trkpt lat="46.31571002304554" lon="4.823695002123714">
        <ele>218.84</ele>
        <time>2025-04-24T06:44:05Z</time>
      </trkpt>
      <trkpt lat="46.315679010003805" lon="4.823726015165448">
        <ele>218.84</ele>
        <time>2025-04-24T06:44:06Z</time>
      </trkpt>
      <trkpt lat="46.315549006685615" lon="4.823834979906678">
        <ele>219.31999999999999</ele>
        <time>2025-04-24T06:44:12Z</time>
      </trkpt>
      <trkpt lat="46.315462002530694" lon="4.823816958814859">
        <ele>219.31999999999999</ele>
        <time>2025-04-24T06:44:13Z</time>
      </trkpt>
      <trkpt lat="46.31543300114572" lon="4.823888037353754">
        <ele>219.31999999999999</ele>
        <time>2025-04-24T06:44:14Z</time>
      </trkpt>
      <trkpt lat="46.315420009195805" lon="4.823920978233218">
        <ele>219.31999999999999</ele>
        <time>2025-04-24T06:44:15Z</time>
      </trkpt>
      <trkpt lat="46.315436018630862" lon="4.824125999584794">
        <ele>219.31999999999999</ele>
        <time>2025-04-24T06:44:16Z</time>
      </trkpt>
      <trkpt lat="46.315392013639212" lon="4.824221972376108">
        <ele>218.36000000000001</ele>
        <time>2025-04-24T06:44:17Z</time>
      </trkpt>
      <trkpt lat="46.315344991162419" lon="4.824332026764751">
        <ele>217.88</ele>
        <time>2025-04-24T06:44:18Z</time>
      </trkpt>
      <trkpt lat="46.314759012311697" lon="4.825910003855825">
        <ele>214.03</ele>
        <time>2025-04-24T06:44:30Z</time>
      </trkpt>
      <trkpt lat="46.314412001520395" lon="4.826666973531246">
        <ele>212.59</ele>
        <time>2025-04-24T06:44:37Z</time>
      </trkpt>
      <trkpt lat="46.314446032047272" lon="4.826842993497849">
        <ele>212.11000000000001</ele>
        <time>2025-04-24T06:44:38Z</time>
      </trkpt>
      <trkpt lat="46.314404038712382" lon="4.826968973502517">
        <ele>212.11000000000001</ele>
        <time>2025-04-24T06:44:39Z</time>
      </trkpt>
      <trkpt lat="46.314031966030598" lon="4.828028026968241">
        <ele>209.69999999999999</ele>
        <time>2025-04-24T06:44:50Z</time>
      </trkpt>
      <trkpt lat="46.314001958817244" lon="4.828110001981258">
        <ele>209.69999999999999</ele>
        <time>2025-04-24T06:44:51Z</time>
      </trkpt>
      <trkpt lat="46.313972035422921" lon="4.828193988651037">
        <ele>209.22</ele>
        <time>2025-04-24T06:44:52Z</time>
      </trkpt>
      <trkpt lat="46.31380096077919" lon="4.82867200858891">
        <ele>205.86000000000001</ele>
        <time>2025-04-24T06:45:01Z</time>
      </trkpt>
      <trkpt lat="46.31380096077919" lon="4.82867200858891">
        <ele>205.86000000000001</ele>
        <time>2025-04-24T06:45:39Z</time>
      </trkpt>
      <trkpt lat="46.313776988536119" lon="4.828743003308773">
        <ele>206.34</ele>
        <time>2025-04-24T06:46:32Z</time>
      </trkpt>
      <trkpt lat="46.313613038510084" lon="4.829168971627951">
        <ele>204.41999999999999</ele>
        <time>2025-04-24T06:46:38Z</time>
      </trkpt>
      <trkpt lat="46.313589988276362" lon="4.829235021024942">
        <ele>204.41999999999999</ele>
        <time>2025-04-24T06:46:39Z</time>
      </trkpt>
      <trkpt lat="46.313414974138141" lon="4.829750005155802">
        <ele>201.05000000000001</ele>
        <time>2025-04-24T06:46:45Z</time>
      </trkpt>
      <trkpt lat="46.313382033258677" lon="4.829847989603877">
        <ele>200.56999999999999</ele>
        <time>2025-04-24T06:46:46Z</time>
      </trkpt>
      <trkpt lat="46.313195032998919" lon="4.830379988998175">
        <ele>197.69</ele>
        <time>2025-04-24T06:46:51Z</time>
      </trkpt>
      <trkpt lat="46.31315597333014" lon="4.830488031730056">
        <ele>197.21000000000001</ele>
        <time>2025-04-24T06:46:52Z</time>
      </trkpt>
      <trkpt lat="46.313092019408941" lon="4.830665979534388">
        <ele>193.84</ele>
        <time>2025-04-24T06:46:58Z</time>
      </trkpt>
      <trkpt lat="46.312987999990582" lon="4.830949036404491">
        <ele>191.44</ele>
        <time>2025-04-24T06:47:05Z</time>
      </trkpt>
      <trkpt lat="46.312889009714127" lon="4.831208037212491">
        <ele>190.96000000000001</ele>
        <time>2025-04-24T06:47:08Z</time>
      </trkpt>
      <trkpt lat="46.31285497918725" lon="4.831297975033522">
        <ele>190.96000000000001</ele>
        <time>2025-04-24T06:47:09Z</time>
      </trkpt>
      <trkpt lat="46.312571000307798" lon="4.831979004666209">
        <ele>190.47999999999999</ele>
        <time>2025-04-24T06:47:18Z</time>
      </trkpt>
      <trkpt lat="46.312521966174245" lon="4.832076989114285">
        <ele>190</ele>
        <time>2025-04-24T06:47:28Z</time>
      </trkpt>
      <trkpt lat="46.312405960634351" lon="4.832298019900918">
        <ele>190.96000000000001</ele>
        <time>2025-04-24T06:48:00Z</time>
      </trkpt>
      <trkpt lat="46.312318034470081" lon="4.832455012947321">
        <ele>190.96000000000001</ele>
        <time>2025-04-24T06:48:02Z</time>
      </trkpt>
      <trkpt lat="46.31216699257493" lon="4.832638995721936">
        <ele>190</ele>
        <time>2025-04-24T06:48:05Z</time>
      </trkpt>
      <trkpt lat="46.312129022553563" lon="4.832681994885206">
        <ele>189.52000000000001</ele>
        <time>2025-04-24T06:48:06Z</time>
      </trkpt>
      <trkpt lat="46.312090968713164" lon="4.832709990441799">
        <ele>189.52000000000001</ele>
        <time>2025-04-24T06:48:07Z</time>
      </trkpt>
      <trkpt lat="46.312050987035036" lon="4.832739997655153">
        <ele>189.03999999999999</ele>
        <time>2025-04-24T06:48:08Z</time>
      </trkpt>
      <trkpt lat="46.312009999528527" lon="4.832771010696888">
        <ele>188.56</ele>
        <time>2025-04-24T06:48:09Z</time>
      </trkpt>
      <trkpt lat="46.311969012022018" lon="4.832802023738623">
        <ele>188.56</ele>
        <time>2025-04-24T06:48:10Z</time>
      </trkpt>
      <trkpt lat="46.311926012858748" lon="4.832833958789706">
        <ele>188.08000000000001</ele>
        <time>2025-04-24T06:48:11Z</time>
      </trkpt>
      <trkpt lat="46.311879996210337" lon="4.832868995144963">
        <ele>187.59</ele>
        <time>2025-04-24T06:48:13Z</time>
      </trkpt>
      <trkpt lat="46.311742030084133" lon="4.832871006801724">
        <ele>187.11000000000001</ele>
        <time>2025-04-24T06:48:14Z</time>
      </trkpt>
      <trkpt lat="46.311729038134217" lon="4.832933032885194">
        <ele>187.11000000000001</ele>
        <time>2025-04-24T06:48:15Z</time>
      </trkpt>
      <trkpt lat="46.311719985678792" lon="4.833069993183017">
        <ele>187.11000000000001</ele>
        <time>2025-04-24T06:48:16Z</time>
      </trkpt>
      <trkpt lat="46.311675980687141" lon="4.833144005388022">
        <ele>186.63</ele>
        <time>2025-04-24T06:48:17Z</time>
      </trkpt>
      <trkpt lat="46.31163096986711" lon="4.833219023421407">
        <ele>185.66999999999999</ele>
        <time>2025-04-24T06:48:18Z</time>
      </trkpt>
      <trkpt lat="46.311572967097163" lon="4.83329001814127">
        <ele>185.19</ele>
        <time>2025-04-24T06:48:19Z</time>
      </trkpt>
      <trkpt lat="46.311511024832726" lon="4.833361012861133">
        <ele>184.71000000000001</ele>
        <time>2025-04-24T06:48:20Z</time>
      </trkpt>
      <trkpt lat="46.311452016234398" lon="4.833429995924234">
        <ele>183.75</ele>
        <time>2025-04-24T06:48:21Z</time>
      </trkpt>
      <trkpt lat="46.310844998806715" lon="4.83412703499198">
        <ele>179.90000000000001</ele>
        <time>2025-04-24T06:48:30Z</time>
      </trkpt>
      <trkpt lat="46.310421964153647" lon="4.834618968889117">
        <ele>177.5</ele>
        <time>2025-04-24T06:48:39Z</time>
      </trkpt>
      <trkpt lat="46.310336971655488" lon="4.834723994135857">
        <ele>176.53999999999999</ele>
        <time>2025-04-24T06:48:42Z</time>
      </trkpt>
      <trkpt lat="46.310301013290882" lon="4.834766993299127">
        <ele>176.53999999999999</ele>
        <time>2025-04-24T06:48:43Z</time>
      </trkpt>
      <trkpt lat="46.310291960835457" lon="4.834777973592281">
        <ele>176.53999999999999</ele>
        <time>2025-04-24T06:48:44Z</time>
      </trkpt>
      <trkpt lat="46.310162963345647" lon="4.834835976362228">
        <ele>176.06</ele>
        <time>2025-04-24T06:48:45Z</time>
      </trkpt>
      <trkpt lat="46.310162963345647" lon="4.834907976910472">
        <ele>176.06</ele>
        <time>2025-04-24T06:48:46Z</time>
      </trkpt>
      <trkpt lat="46.310162963345647" lon="4.83498802408576">
        <ele>176.06</ele>
        <time>2025-04-24T06:48:47Z</time>
      </trkpt>
      <trkpt lat="46.310162963345647" lon="4.834992969408631">
        <ele>175.58000000000001</ele>
        <time>2025-04-24T06:48:48Z</time>
      </trkpt>
      <trkpt lat="46.310264971107244" lon="4.835149962455034">
        <ele>175.09999999999999</ele>
        <time>2025-04-24T06:48:49Z</time>
      </trkpt>
      <trkpt lat="46.310260025784373" lon="4.835220035165548">
        <ele>174.62</ele>
        <time>2025-04-24T06:48:50Z</time>
      </trkpt>
      <trkpt lat="46.31025399081409" lon="4.835295975208283">
        <ele>174.13999999999999</ele>
        <time>2025-04-24T06:48:51Z</time>
      </trkpt>
      <trkpt lat="46.310248961672187" lon="4.835358001291752">
        <ele>173.66</ele>
        <time>2025-04-24T06:48:52Z</time>
      </trkpt>
      <trkpt lat="46.310155000537634" lon="4.835656983777881">
        <ele>170.77000000000001</ele>
        <time>2025-04-24T06:49:00Z</time>
      </trkpt>
      <trkpt lat="46.310115018859506" lon="4.835763014853001">
        <ele>170.28999999999999</ele>
        <time>2025-04-24T06:49:03Z</time>
      </trkpt>
      <trkpt lat="46.310091968625784" lon="4.835820011794567">
        <ele>169.81</ele>
        <time>2025-04-24T06:49:04Z</time>
      </trkpt>
      <trkpt lat="46.310065984725952" lon="4.835882037878037">
        <ele>169.33000000000001</ele>
        <time>2025-04-24T06:49:05Z</time>
      </trkpt>
      <trkpt lat="46.309749986976385" lon="4.836631966754794">
        <ele>166.44999999999999</ele>
        <time>2025-04-24T06:49:14Z</time>
      </trkpt>
      <trkpt lat="46.309705981984735" lon="4.836736992001534">
        <ele>166.44999999999999</ele>
        <time>2025-04-24T06:49:15Z</time>
      </trkpt>
      <trkpt lat="46.30948101170361" lon="4.837368987500668">
        <ele>168.37</ele>
        <time>2025-04-24T06:49:23Z</time>
      </trkpt>
      <trkpt lat="46.309442035853863" lon="4.837491028010845">
        <ele>168.84999999999999</ele>
        <time>2025-04-24T06:49:24Z</time>
      </trkpt>
      <trkpt lat="46.309383027255535" lon="4.837530003860593">
        <ele>168.84999999999999</ele>
        <time>2025-04-24T06:49:25Z</time>
      </trkpt>
      <trkpt lat="46.309273978695273" lon="4.837550958618522">
        <ele>168.84999999999999</ele>
        <time>2025-04-24T06:49:26Z</time>
      </trkpt>
      <trkpt lat="46.309203989803791" lon="4.837526986375451">
        <ele>169.33000000000001</ele>
        <time>2025-04-24T06:49:27Z</time>
      </trkpt>
      <trkpt lat="46.309131989255548" lon="4.837503014132381">
        <ele>169.33000000000001</ele>
        <time>2025-04-24T06:49:28Z</time>
      </trkpt>
      <trkpt lat="46.308908024802804" lon="4.837426990270615">
        <ele>169.81</ele>
        <time>2025-04-24T06:49:31Z</time>
      </trkpt>
      <trkpt lat="46.308819008991122" lon="4.83739597722888">
        <ele>169.81</ele>
        <time>2025-04-24T06:49:32Z</time>
      </trkpt>
      <trkpt lat="46.308722030371428" lon="4.837362030521035">
        <ele>170.28999999999999</ele>
        <time>2025-04-24T06:49:33Z</time>
      </trkpt>
      <trkpt lat="46.30862102843821" lon="4.837325988337398">
        <ele>170.77000000000001</ele>
        <time>2025-04-24T06:49:34Z</time>
      </trkpt>
      <trkpt lat="46.308522960171103" lon="4.837291035801172">
        <ele>171.72999999999999</ele>
        <time>2025-04-24T06:49:35Z</time>
      </trkpt>
      <trkpt lat="46.307832039892673" lon="4.837050978094339">
        <ele>173.66</ele>
        <time>2025-04-24T06:49:42Z</time>
      </trkpt>
      <trkpt lat="46.307729026302695" lon="4.837014013901353">
        <ele>173.66</ele>
        <time>2025-04-24T06:49:43Z</time>
      </trkpt>
      <trkpt lat="46.307334993034601" lon="4.836894990876317">
        <ele>174.13999999999999</ele>
        <time>2025-04-24T06:49:47Z</time>
      </trkpt>
      <trkpt lat="46.30612900480628" lon="4.836452007293701">
        <ele>172.21000000000001</ele>
        <time>2025-04-24T06:49:58Z</time>
      </trkpt>
      <trkpt lat="46.306037977337837" lon="4.83640699647367">
        <ele>172.69</ele>
        <time>2025-04-24T06:49:59Z</time>
      </trkpt>
      <trkpt lat="46.305944016203284" lon="4.836336001753807">
        <ele>172.69</ele>
        <time>2025-04-24T06:50:00Z</time>
      </trkpt>
      <trkpt lat="46.305864974856377" lon="4.836264001205564">
        <ele>173.16999999999999</ele>
        <time>2025-04-24T06:50:01Z</time>
      </trkpt>
      <trkpt lat="46.305794985964894" lon="4.836200969293714">
        <ele>173.66</ele>
        <time>2025-04-24T06:50:02Z</time>
      </trkpt>
      <trkpt lat="46.305516036227345" lon="4.835946997627616">
        <ele>177.02000000000001</ele>
        <time>2025-04-24T06:50:10Z</time>
      </trkpt>
      <trkpt lat="46.305516036227345" lon="4.835946997627616">
        <ele>177.02000000000001</ele>
        <time>2025-04-24T06:50:42Z</time>
      </trkpt>
      <trkpt lat="46.305447975173593" lon="4.835878014564514">
        <ele>178.46000000000001</ele>
        <time>2025-04-24T06:51:09Z</time>
      </trkpt>
      <trkpt lat="46.305406987667084" lon="4.835837027058005">
        <ele>179.41999999999999</ele>
        <time>2025-04-24T06:51:10Z</time>
      </trkpt>
      <trkpt lat="46.305316966027021" lon="4.835820011794567">
        <ele>179.41999999999999</ele>
        <time>2025-04-24T06:51:11Z</time>
      </trkpt>
      <trkpt lat="46.305300034582615" lon="4.835871979594231">
        <ele>179.90000000000001</ele>
        <time>2025-04-24T06:51:12Z</time>
      </trkpt>
      <trkpt lat="46.305271033197641" lon="4.835958983749151">
        <ele>179.90000000000001</ele>
        <time>2025-04-24T06:51:13Z</time>
      </trkpt>
      <trkpt lat="46.305255023762584" lon="4.836007012054324">
        <ele>180.38</ele>
        <time>2025-04-24T06:51:14Z</time>
      </trkpt>
      <trkpt lat="46.30522602237761" lon="4.836092004552484">
        <ele>179.90000000000001</ele>
        <time>2025-04-24T06:51:15Z</time>
      </trkpt>
      <trkpt lat="46.305196015164256" lon="4.836186971515417">
        <ele>179.90000000000001</ele>
        <time>2025-04-24T06:51:16Z</time>
      </trkpt>
      <trkpt lat="46.305128037929535" lon="4.836398027837277">
        <ele>179.90000000000001</ele>
        <time>2025-04-24T06:51:18Z</time>
      </trkpt>
      <trkpt lat="46.304784966632724" lon="4.837680039927363">
        <ele>181.34999999999999</ele>
        <time>2025-04-24T06:51:29Z</time>
      </trkpt>
      <trkpt lat="46.304652029648423" lon="4.838529964908958">
        <ele>179.41999999999999</ele>
        <time>2025-04-24T06:51:36Z</time>
      </trkpt>
      <trkpt lat="46.304658986628056" lon="4.83864102512598">
        <ele>179.41999999999999</ele>
        <time>2025-04-24T06:51:37Z</time>
      </trkpt>
      <trkpt lat="46.304680025205016" lon="4.838764993473887">
        <ele>178.94</ele>
        <time>2025-04-24T06:51:38Z</time>
      </trkpt>
      <trkpt lat="46.304701985791326" lon="4.838897008448839">
        <ele>178.46000000000001</ele>
        <time>2025-04-24T06:51:39Z</time>
      </trkpt>
      <trkpt lat="46.304727969691157" lon="4.839017959311605">
        <ele>178.46000000000001</ele>
        <time>2025-04-24T06:51:40Z</time>
      </trkpt>
      <trkpt lat="46.304782032966614" lon="4.839277965947986">
        <ele>177.97999999999999</ele>
        <time>2025-04-24T06:51:42Z</time>
      </trkpt>
      <trkpt lat="46.30479603074491" lon="4.839521963149309">
        <ele>177.5</ele>
        <time>2025-04-24T06:51:44Z</time>
      </trkpt>
      <trkpt lat="46.304794019088149" lon="4.839619025588036">
        <ele>177.5</ele>
        <time>2025-04-24T06:51:45Z</time>
      </trkpt>
      <trkpt lat="46.304785972461104" lon="4.839709969237447">
        <ele>177.5</ele>
        <time>2025-04-24T06:51:46Z</time>
      </trkpt>
      <trkpt lat="46.304779015481472" lon="4.839795967563987">
        <ele>177.5</ele>
        <time>2025-04-24T06:51:47Z</time>
      </trkpt>
      <trkpt lat="46.304771974682808" lon="4.839889006689191">
        <ele>177.5</ele>
        <time>2025-04-24T06:51:48Z</time>
      </trkpt>
      <trkpt lat="46.304764011874795" lon="4.839987996965647">
        <ele>177.5</ele>
        <time>2025-04-24T06:51:49Z</time>
      </trkpt>
      <trkpt lat="46.304707014933228" lon="4.840677995234728">
        <ele>176.06</ele>
        <time>2025-04-24T06:51:56Z</time>
      </trkpt>
      <trkpt lat="46.304698968306184" lon="4.840777991339564">
        <ele>176.06</ele>
        <time>2025-04-24T06:51:57Z</time>
      </trkpt>
      <trkpt lat="46.304691005498171" lon="4.840873964130878">
        <ele>176.06</ele>
        <time>2025-04-24T06:51:58Z</time>
      </trkpt>
      <trkpt lat="46.304681031033397" lon="4.840956022962928">
        <ele>176.06</ele>
        <time>2025-04-24T06:51:59Z</time>
      </trkpt>
      <trkpt lat="46.304671978577971" lon="4.841031040996313">
        <ele>176.06</ele>
        <time>2025-04-24T06:52:00Z</time>
      </trkpt>
      <trkpt lat="46.304606013000011" lon="4.841104969382286">
        <ele>175.58000000000001</ele>
        <time>2025-04-24T06:52:01Z</time>
      </trkpt>
      <trkpt lat="46.304648006334901" lon="4.841193985193968">
        <ele>175.09999999999999</ele>
        <time>2025-04-24T06:52:02Z</time>
      </trkpt>
      <trkpt lat="46.304619004949927" lon="4.841487016528845">
        <ele>175.09999999999999</ele>
        <time>2025-04-24T06:52:06Z</time>
      </trkpt>
      <trkpt lat="46.304610036313534" lon="4.841577960178256">
        <ele>175.09999999999999</ele>
        <time>2025-04-24T06:52:07Z</time>
      </trkpt>
      <trkpt lat="46.304569970816374" lon="4.841980040073395">
        <ele>174.13999999999999</ele>
        <time>2025-04-24T06:52:11Z</time>
      </trkpt>
      <trkpt lat="46.3045599963516" lon="4.84208095818758">
        <ele>174.13999999999999</ele>
        <time>2025-04-24T06:52:12Z</time>
      </trkpt>
      <trkpt lat="46.304456982761621" lon="4.843231961131096">
        <ele>173.66</ele>
        <time>2025-04-24T06:52:23Z</time>
      </trkpt>
      <trkpt lat="46.304399985820055" lon="4.843920031562448">
        <ele>174.13999999999999</ele>
        <time>2025-04-24T06:52:29Z</time>
      </trkpt>
      <trkpt lat="46.304251961410046" lon="4.845287036150694">
        <ele>173.66</ele>
        <time>2025-04-24T06:52:40Z</time>
      </trkpt>
      <trkpt lat="46.3042370416224" lon="4.8454300314188">
        <ele>174.13999999999999</ele>
        <time>2025-04-24T06:52:41Z</time>
      </trkpt>
      <trkpt lat="46.304111983627081" lon="4.845635974779725">
        <ele>174.62</ele>
        <time>2025-04-24T06:52:42Z</time>
      </trkpt>
      <trkpt lat="46.304041994735599" lon="4.845776036381722">
        <ele>175.58000000000001</ele>
        <time>2025-04-24T06:52:44Z</time>
      </trkpt>
      <trkpt lat="46.304013999179006" lon="4.845926994457841">
        <ele>176.06</ele>
        <time>2025-04-24T06:52:45Z</time>
      </trkpt>
      <trkpt lat="46.304025985300541" lon="4.846021961420775">
        <ele>176.06</ele>
        <time>2025-04-24T06:52:46Z</time>
      </trkpt>
      <trkpt lat="46.304168980568647" lon="4.846353968605399">
        <ele>176.53999999999999</ele>
        <time>2025-04-24T06:52:48Z</time>
      </trkpt>
      <trkpt lat="46.30415003746748" lon="4.846506016328931">
        <ele>177.02000000000001</ele>
        <time>2025-04-24T06:52:49Z</time>
      </trkpt>
      <trkpt lat="46.304136039689183" lon="4.846679018810391">
        <ele>177.5</ele>
        <time>2025-04-24T06:52:50Z</time>
      </trkpt>
      <trkpt lat="46.303977034986019" lon="4.848371995612979">
        <ele>181.83000000000001</ele>
        <time>2025-04-24T06:52:58Z</time>
      </trkpt>
      <trkpt lat="46.303693978115916" lon="4.85146801918745">
        <ele>183.27000000000001</ele>
        <time>2025-04-24T06:53:11Z</time>
      </trkpt>
      <trkpt lat="46.30344201810658" lon="4.854012010619044">
        <ele>178.46000000000001</ele>
        <time>2025-04-24T06:53:20Z</time>
      </trkpt>
      <trkpt lat="46.303172037005424" lon="4.856879962608218">
        <ele>176.06</ele>
        <time>2025-04-24T06:53:30Z</time>
      </trkpt>
      <trkpt lat="46.302934996783733" lon="4.859360000118613">
        <ele>175.09999999999999</ele>
        <time>2025-04-24T06:53:39Z</time>
      </trkpt>
      <trkpt lat="46.302698962390423" lon="4.861836014315486">
        <ele>175.09999999999999</ele>
        <time>2025-04-24T06:53:49Z</time>
      </trkpt>
      <trkpt lat="46.302652023732662" lon="4.862329037860036">
        <ele>175.09999999999999</ele>
        <time>2025-04-24T06:53:51Z</time>
      </trkpt>
      <trkpt lat="46.30262796767056" lon="4.862579992040992">
        <ele>175.09999999999999</ele>
        <time>2025-04-24T06:53:52Z</time>
      </trkpt>
      <trkpt lat="46.302352035418153" lon="4.865393964573741">
        <ele>176.53999999999999</ele>
        <time>2025-04-24T06:54:03Z</time>
      </trkpt>
      <trkpt lat="46.302273999899626" lon="4.86635603941977">
        <ele>176.53999999999999</ele>
        <time>2025-04-24T06:54:09Z</time>
      </trkpt>
      <trkpt lat="46.302185989916325" lon="4.867837959900498">
        <ele>176.06</ele>
        <time>2025-04-24T06:54:18Z</time>
      </trkpt>
      <trkpt lat="46.302141984924674" lon="4.869055012241006">
        <ele>175.09999999999999</ele>
        <time>2025-04-24T06:54:26Z</time>
      </trkpt>
      <trkpt lat="46.302112983539701" lon="4.869470000267029">
        <ele>175.58000000000001</ele>
        <time>2025-04-24T06:54:34Z</time>
      </trkpt>
      <trkpt lat="46.302105020731688" lon="4.869608972221613">
        <ele>177.5</ele>
        <time>2025-04-24T06:55:00Z</time>
      </trkpt>
      <trkpt lat="46.302041988819838" lon="4.87011699937284">
        <ele>179.41999999999999</ele>
        <time>2025-04-24T06:55:07Z</time>
      </trkpt>
      <trkpt lat="46.301902011036873" lon="4.870590995997191">
        <ele>180.87</ele>
        <time>2025-04-24T06:55:12Z</time>
      </trkpt>
      <trkpt lat="46.301864041015506" lon="4.870741032063961">
        <ele>181.34999999999999</ele>
        <time>2025-04-24T06:55:13Z</time>
      </trkpt>
      <trkpt lat="46.301434971392155" lon="4.872215995565057">
        <ele>183.27000000000001</ele>
        <time>2025-04-24T06:55:27Z</time>
      </trkpt>
      <trkpt lat="46.301271021366119" lon="4.87278001382947">
        <ele>183.27000000000001</ele>
        <time>2025-04-24T06:55:32Z</time>
      </trkpt>
      <trkpt lat="46.30092803388834" lon="4.874013997614384">
        <ele>183.27000000000001</ele>
        <time>2025-04-24T06:55:43Z</time>
      </trkpt>
      <trkpt lat="46.300666015595198" lon="4.874980011954904">
        <ele>184.22999999999999</ele>
        <time>2025-04-24T06:55:53Z</time>
      </trkpt>
      <trkpt lat="46.300294026732445" lon="4.876247020438314">
        <ele>184.22999999999999</ele>
        <time>2025-04-24T06:56:04Z</time>
      </trkpt>
      <trkpt lat="46.299801003187895" lon="4.877994982525706">
        <ele>184.71000000000001</ele>
        <time>2025-04-24T06:56:15Z</time>
      </trkpt>
      <trkpt lat="46.299335975199938" lon="4.87957295961678">
        <ele>186.15000000000001</ele>
        <time>2025-04-24T06:56:26Z</time>
      </trkpt>
      <trkpt lat="46.298863990232348" lon="4.88122302107513">
        <ele>186.63</ele>
        <time>2025-04-24T06:56:37Z</time>
      </trkpt>
      <trkpt lat="46.298282034695148" lon="4.883322017267346">
        <ele>188.56</ele>
        <time>2025-04-24T06:56:50Z</time>
      </trkpt>
      <trkpt lat="46.298241969197989" lon="4.883466018363833">
        <ele>189.03999999999999</ele>
        <time>2025-04-24T06:56:51Z</time>
      </trkpt>
      <trkpt lat="46.298202993348241" lon="4.88360901363194">
        <ele>189.52000000000001</ele>
        <time>2025-04-24T06:56:52Z</time>
      </trkpt>
      <trkpt lat="46.297958996146917" lon="4.884538985788822">
        <ele>190.96000000000001</ele>
        <time>2025-04-24T06:57:00Z</time>
      </trkpt>
      <trkpt lat="46.297867968678474" lon="4.884581984952092">
        <ele>191.44</ele>
        <time>2025-04-24T06:57:01Z</time>
      </trkpt>
      <trkpt lat="46.297808038070798" lon="4.884738977998495">
        <ele>191.44</ele>
        <time>2025-04-24T06:57:02Z</time>
      </trkpt>
      <trkpt lat="46.297845002263784" lon="4.884992027655244">
        <ele>191.91999999999999</ele>
        <time>2025-04-24T06:57:04Z</time>
      </trkpt>
      <trkpt lat="46.297445017844439" lon="4.886225005611777">
        <ele>193.84</ele>
        <time>2025-04-24T06:57:11Z</time>
      </trkpt>
      <trkpt lat="46.29693397320807" lon="4.8880560323596">
        <ele>196.72999999999999</ele>
        <time>2025-04-24T06:57:20Z</time>
      </trkpt>
      <trkpt lat="46.29637598991394" lon="4.889974985271692">
        <ele>203.94</ele>
        <time>2025-04-24T06:57:31Z</time>
      </trkpt>
      <trkpt lat="46.29570996388793" lon="4.891575006768107">
        <ele>204.41999999999999</ele>
        <time>2025-04-24T06:57:41Z</time>
      </trkpt>
      <trkpt lat="46.295092971995473" lon="4.892845032736659">
        <ele>205.38</ele>
        <time>2025-04-24T06:57:50Z</time>
      </trkpt>
      <trkpt lat="46.295034969225526" lon="4.892946034669876">
        <ele>205.38</ele>
        <time>2025-04-24T06:57:51Z</time>
      </trkpt>
      <trkpt lat="46.294981995597482" lon="4.89304200746119">
        <ele>205.38</ele>
        <time>2025-04-24T06:57:52Z</time>
      </trkpt>
      <trkpt lat="46.294863978400826" lon="4.893057011067867">
        <ele>205.38</ele>
        <time>2025-04-24T06:57:53Z</time>
      </trkpt>
      <trkpt lat="46.294808993116021" lon="4.893089029937983">
        <ele>205.38</ele>
        <time>2025-04-24T06:57:54Z</time>
      </trkpt>
      <trkpt lat="46.294703967869282" lon="4.893177961930633">
        <ele>205.38</ele>
        <time>2025-04-24T06:57:55Z</time>
      </trkpt>
      <trkpt lat="46.294674966484308" lon="4.893283993005753">
        <ele>205.38</ele>
        <time>2025-04-24T06:57:56Z</time>
      </trkpt>
      <trkpt lat="46.294648982584476" lon="4.893378959968686">
        <ele>205.38</ele>
        <time>2025-04-24T06:57:57Z</time>
      </trkpt>
      <trkpt lat="46.294689970090985" lon="4.893541987985373">
        <ele>205.38</ele>
        <time>2025-04-24T06:57:58Z</time>
      </trkpt>
      <trkpt lat="46.294719977304339" lon="4.893760001286864">
        <ele>205.38</ele>
        <time>2025-04-24T06:57:59Z</time>
      </trkpt>
      <trkpt lat="46.29465501755476" lon="4.893872989341617">
        <ele>205.38</ele>
        <time>2025-04-24T06:58:00Z</time>
      </trkpt>
      <trkpt lat="46.294586034491658" lon="4.894005004316568">
        <ele>205.38</ele>
        <time>2025-04-24T06:58:01Z</time>
      </trkpt>
      <trkpt lat="46.294518979266286" lon="4.894160991534591">
        <ele>205.38</ele>
        <time>2025-04-24T06:58:02Z</time>
      </trkpt>
      <trkpt lat="46.293895030394197" lon="4.895694041624665">
        <ele>203.94</ele>
        <time>2025-04-24T06:58:12Z</time>
      </trkpt>
      <trkpt lat="46.293748011812568" lon="4.895761013031006">
        <ele>203.94</ele>
        <time>2025-04-24T06:58:13Z</time>
      </trkpt>
      <trkpt lat="46.293598981574178" lon="4.895855979993939">
        <ele>203.46000000000001</ele>
        <time>2025-04-24T06:58:15Z</time>
      </trkpt>
      <trkpt lat="46.293529998511076" lon="4.896010961383581">
        <ele>203.46000000000001</ele>
        <time>2025-04-24T06:58:16Z</time>
      </trkpt>
      <trkpt lat="46.293511977419257" lon="4.896082961931825">
        <ele>203.46000000000001</ele>
        <time>2025-04-24T06:58:17Z</time>
      </trkpt>
      <trkpt lat="46.293554976582527" lon="4.896254958584905">
        <ele>203.46000000000001</ele>
        <time>2025-04-24T06:58:18Z</time>
      </trkpt>
      <trkpt lat="46.293590012937784" lon="4.896494010463357">
        <ele>202.97999999999999</ele>
        <time>2025-04-24T06:58:19Z</time>
      </trkpt>
      <trkpt lat="46.293534021824598" lon="4.896618984639645">
        <ele>202.97999999999999</ele>
        <time>2025-04-24T06:58:20Z</time>
      </trkpt>
      <trkpt lat="46.293470989912748" lon="4.896755022928119">
        <ele>202.97999999999999</ele>
        <time>2025-04-24T06:58:21Z</time>
      </trkpt>
      <trkpt lat="46.293404018506408" lon="4.896902963519096">
        <ele>202.97999999999999</ele>
        <time>2025-04-24T06:58:22Z</time>
      </trkpt>
      <trkpt lat="46.292674960568547" lon="4.8985640052706">
        <ele>204.90000000000001</ele>
        <time>2025-04-24T06:58:31Z</time>
      </trkpt>
      <trkpt lat="46.291953027248383" lon="4.900180958211422">
        <ele>208.25999999999999</ele>
        <time>2025-04-24T06:58:38Z</time>
      </trkpt>
      <trkpt lat="46.291844984516501" lon="4.900422021746635">
        <ele>208.74000000000001</ele>
        <time>2025-04-24T06:58:39Z</time>
      </trkpt>
      <trkpt lat="46.291028000414371" lon="4.902271991595626">
        <ele>211.15000000000001</ele>
        <time>2025-04-24T06:58:47Z</time>
      </trkpt>
      <trkpt lat="46.290934961289167" lon="4.902504002675414">
        <ele>211.15000000000001</ele>
        <time>2025-04-24T06:58:48Z</time>
      </trkpt>
      <trkpt lat="46.290730023756623" lon="4.90294698625803">
        <ele>210.66999999999999</ele>
        <time>2025-04-24T06:58:50Z</time>
      </trkpt>
      <trkpt lat="46.290629021823406" lon="4.903167011216283">
        <ele>210.66999999999999</ele>
        <time>2025-04-24T06:58:51Z</time>
      </trkpt>
      <trkpt lat="46.289940029382706" lon="4.905345970764756">
        <ele>208.25999999999999</ele>
        <time>2025-04-24T06:59:00Z</time>
      </trkpt>
      <trkpt lat="46.289682034403086" lon="4.907771022990346">
        <ele>209.22</ele>
        <time>2025-04-24T06:59:09Z</time>
      </trkpt>
      <trkpt lat="46.289486987516284" lon="4.909802963957191">
        <ele>208.25999999999999</ele>
        <time>2025-04-24T06:59:17Z</time>
      </trkpt>
      <trkpt lat="46.28932798281312" lon="4.911382030695677">
        <ele>210.19</ele>
        <time>2025-04-24T06:59:25Z</time>
      </trkpt>
      <trkpt lat="46.289317002519965" lon="4.911503987386823">
        <ele>210.66999999999999</ele>
        <time>2025-04-24T06:59:26Z</time>
      </trkpt>
      <trkpt lat="46.289304010570049" lon="4.911639019846916">
        <ele>211.15000000000001</ele>
        <time>2025-04-24T06:59:27Z</time>
      </trkpt>
      <trkpt lat="46.289267968386412" lon="4.91201201453805">
        <ele>211.63</ele>
        <time>2025-04-24T06:59:32Z</time>
      </trkpt>
      <trkpt lat="46.289135031402111" lon="4.912179987877607">
        <ele>212.11000000000001</ele>
        <time>2025-04-24T06:59:34Z</time>
      </trkpt>
      <trkpt lat="46.289135031402111" lon="4.912289036437869">
        <ele>212.11000000000001</ele>
        <time>2025-04-24T06:59:35Z</time>
      </trkpt>
      <trkpt lat="46.289135031402111" lon="4.912326000630856">
        <ele>212.59</ele>
        <time>2025-04-24T06:59:36Z</time>
      </trkpt>
      <trkpt lat="46.289212983101606" lon="4.91254803724587">
        <ele>212.59</ele>
        <time>2025-04-24T06:59:37Z</time>
      </trkpt>
      <trkpt lat="46.289203008636832" lon="4.912692960351706">
        <ele>213.06999999999999</ele>
        <time>2025-04-24T06:59:38Z</time>
      </trkpt>
      <trkpt lat="46.289194040000439" lon="4.912846013903618">
        <ele>213.06999999999999</ele>
        <time>2025-04-24T06:59:39Z</time>
      </trkpt>
      <trkpt lat="46.289039980620146" lon="4.91444100625813">
        <ele>213.06999999999999</ele>
        <time>2025-04-24T06:59:48Z</time>
      </trkpt>
      <trkpt lat="46.288914000615478" lon="4.915772974491119">
        <ele>212.59</ele>
        <time>2025-04-24T06:59:55Z</time>
      </trkpt>
      <trkpt lat="46.288763964548707" lon="4.916836973279715">
        <ele>212.11000000000001</ele>
        <time>2025-04-24T07:00:00Z</time>
      </trkpt>
      <trkpt lat="46.288072960451245" lon="4.919323967769742">
        <ele>205.38</ele>
        <time>2025-04-24T07:00:13Z</time>
      </trkpt>
      <trkpt lat="46.287941029295325" lon="4.9197699688375">
        <ele>204.90000000000001</ele>
        <time>2025-04-24T07:00:16Z</time>
      </trkpt>
      <trkpt lat="46.287803985178471" lon="4.919857978820801">
        <ele>204.90000000000001</ele>
        <time>2025-04-24T07:00:17Z</time>
      </trkpt>
      <trkpt lat="46.287745982408524" lon="4.919935008510947">
        <ele>204.90000000000001</ele>
        <time>2025-04-24T07:00:18Z</time>
      </trkpt>
      <trkpt lat="46.287724021822214" lon="4.920083032920957">
        <ele>204.90000000000001</ele>
        <time>2025-04-24T07:00:19Z</time>
      </trkpt>
      <trkpt lat="46.287717986851931" lon="4.920137012377381">
        <ele>205.38</ele>
        <time>2025-04-24T07:00:20Z</time>
      </trkpt>
      <trkpt lat="46.287733996286988" lon="4.920398024842143">
        <ele>205.86000000000001</ele>
        <time>2025-04-24T07:00:21Z</time>
      </trkpt>
      <trkpt lat="46.28769401460886" lon="4.920557029545307">
        <ele>206.34</ele>
        <time>2025-04-24T07:00:22Z</time>
      </trkpt>
      <trkpt lat="46.287647997960448" lon="4.92073598317802">
        <ele>206.34</ele>
        <time>2025-04-24T07:00:23Z</time>
      </trkpt>
      <trkpt lat="46.287599969655275" lon="4.920923989266157">
        <ele>206.81999999999999</ele>
        <time>2025-04-24T07:00:24Z</time>
      </trkpt>
      <trkpt lat="46.286988006904721" lon="4.923158017918468">
        <ele>210.66999999999999</ele>
        <time>2025-04-24T07:00:34Z</time>
      </trkpt>
      <trkpt lat="46.285972958430648" lon="4.926715968176723">
        <ele>214.03</ele>
        <time>2025-04-24T07:00:49Z</time>
      </trkpt>
      <trkpt lat="46.285580014809966" lon="4.928113985806704">
        <ele>213.06999999999999</ele>
        <time>2025-04-24T07:00:56Z</time>
      </trkpt>
      <trkpt lat="46.285536009818316" lon="4.928267961367965">
        <ele>213.06999999999999</ele>
        <time>2025-04-24T07:00:57Z</time>
      </trkpt>
      <trkpt lat="46.285493010655046" lon="4.928419003263116">
        <ele>213.06999999999999</ele>
        <time>2025-04-24T07:00:58Z</time>
      </trkpt>
      <trkpt lat="46.285449005663395" lon="4.928573984652758">
        <ele>213.06999999999999</ele>
        <time>2025-04-24T07:00:59Z</time>
      </trkpt>
      <trkpt lat="46.285406006500125" lon="4.928743969649077">
        <ele>212.59</ele>
        <time>2025-04-24T07:01:00Z</time>
      </trkpt>
      <trkpt lat="46.285356972366571" lon="4.92892200127244">
        <ele>212.59</ele>
        <time>2025-04-24T07:01:01Z</time>
      </trkpt>
      <trkpt lat="46.285305004566908" lon="4.929104978218675">
        <ele>212.59</ele>
        <time>2025-04-24T07:01:02Z</time>
      </trkpt>
      <trkpt lat="46.285251025110483" lon="4.929299019277096">
        <ele>213.06999999999999</ele>
        <time>2025-04-24T07:01:03Z</time>
      </trkpt>
      <trkpt lat="46.284584999084473" lon="4.93156498298049">
        <ele>212.59</ele>
        <time>2025-04-24T07:01:13Z</time>
      </trkpt>
      <trkpt lat="46.283844038844109" lon="4.934180974960327">
        <ele>209.69999999999999</ele>
        <time>2025-04-24T07:01:24Z</time>
      </trkpt>
      <trkpt lat="46.283146999776363" lon="4.936690013855696">
        <ele>209.69999999999999</ele>
        <time>2025-04-24T07:01:35Z</time>
      </trkpt>
      <trkpt lat="46.282406961545348" lon="4.939245991408825">
        <ele>213.55000000000001</ele>
        <time>2025-04-24T07:01:47Z</time>
      </trkpt>
      <trkpt lat="46.281703971326351" lon="4.941702978685498">
        <ele>213.06999999999999</ele>
        <time>2025-04-24T07:02:00Z</time>
      </trkpt>
      <trkpt lat="46.280838036909699" lon="4.944731025025249">
        <ele>212.59</ele>
        <time>2025-04-24T07:02:15Z</time>
      </trkpt>
      <trkpt lat="46.280201012268662" lon="4.946922976523638">
        <ele>214.03</ele>
        <time>2025-04-24T07:02:25Z</time>
      </trkpt>
      <trkpt lat="46.279385033994913" lon="4.949793023988605">
        <ele>208.25999999999999</ele>
        <time>2025-04-24T07:02:37Z</time>
      </trkpt>
      <trkpt lat="46.2785429880023" lon="4.952753009274602">
        <ele>214.03</ele>
        <time>2025-04-24T07:02:50Z</time>
      </trkpt>
      <trkpt lat="46.277970001101494" lon="4.954710016027093">
        <ele>216.43000000000001</ele>
        <time>2025-04-24T07:03:00Z</time>
      </trkpt>
      <trkpt lat="46.277646962553263" lon="4.956727037206292">
        <ele>218.36000000000001</ele>
        <time>2025-04-24T07:03:09Z</time>
      </trkpt>
      <trkpt lat="46.277326019480824" lon="4.960667034611106">
        <ele>218.36000000000001</ele>
        <time>2025-04-24T07:03:26Z</time>
      </trkpt>
      <trkpt lat="46.277084033936262" lon="4.963687034323812">
        <ele>218.84</ele>
        <time>2025-04-24T07:03:39Z</time>
      </trkpt>
      <trkpt lat="46.276863003149629" lon="4.966487009078264">
        <ele>211.63</ele>
        <time>2025-04-24T07:03:51Z</time>
      </trkpt>
      <trkpt lat="46.276578018441796" lon="4.969756035134196">
        <ele>203.46000000000001</ele>
        <time>2025-04-24T07:04:04Z</time>
      </trkpt>
      <trkpt lat="46.276483973488212" lon="4.970876025035977">
        <ele>203.94</ele>
        <time>2025-04-24T07:04:11Z</time>
      </trkpt>
      <trkpt lat="46.276412978768349" lon="4.971838016062975">
        <ele>206.81999999999999</ele>
        <time>2025-04-24T07:04:20Z</time>
      </trkpt>
      <trkpt lat="46.276227990165353" lon="4.972831020131707">
        <ele>209.69999999999999</ele>
        <time>2025-04-24T07:04:31Z</time>
      </trkpt>
      <trkpt lat="46.27613696269691" lon="4.973240979015827">
        <ele>211.15000000000001</ele>
        <time>2025-04-24T07:04:36Z</time>
      </trkpt>
      <trkpt lat="46.275896988809109" lon="4.974071038886905">
        <ele>214.03</ele>
        <time>2025-04-24T07:04:48Z</time>
      </trkpt>
      <trkpt lat="46.275816019624472" lon="4.974377984181047">
        <ele>214.50999999999999</ele>
        <time>2025-04-24T07:04:52Z</time>
      </trkpt>
      <trkpt lat="46.275470014661551" lon="4.975653039291501">
        <ele>211.15000000000001</ele>
        <time>2025-04-24T07:05:04Z</time>
      </trkpt>
      <trkpt lat="46.275071036070585" lon="4.977105036377907">
        <ele>205.38</ele>
        <time>2025-04-24T07:05:15Z</time>
      </trkpt>
      <trkpt lat="46.274937009438872" lon="4.977621026337147">
        <ele>202.97999999999999</ele>
        <time>2025-04-24T07:05:24Z</time>
      </trkpt>
      <trkpt lat="46.274918988347054" lon="4.977690009400249">
        <ele>202.97999999999999</ele>
        <time>2025-04-24T07:05:25Z</time>
      </trkpt>
      <trkpt lat="46.274864003062248" lon="4.977871980518103">
        <ele>202.49000000000001</ele>
        <time>2025-04-24T07:05:28Z</time>
      </trkpt>
      <trkpt lat="46.274630986154079" lon="4.978708997368813">
        <ele>200.56999999999999</ele>
        <time>2025-04-24T07:05:37Z</time>
      </trkpt>
      <trkpt lat="46.274246005341411" lon="4.980123024433851">
        <ele>198.16999999999999</ele>
        <time>2025-04-24T07:05:46Z</time>
      </trkpt>
      <trkpt lat="46.273693973198533" lon="4.982190001755953">
        <ele>193.36000000000001</ele>
        <time>2025-04-24T07:05:55Z</time>
      </trkpt>
      <trkpt lat="46.272851005196571" lon="4.985279990360141">
        <ele>191.44</ele>
        <time>2025-04-24T07:06:08Z</time>
      </trkpt>
      <trkpt lat="46.272181961685419" lon="4.987752987071872">
        <ele>190.96000000000001</ele>
        <time>2025-04-24T07:06:18Z</time>
      </trkpt>
      <trkpt lat="46.271320972591639" lon="4.990940038114786">
        <ele>190.96000000000001</ele>
        <time>2025-04-24T07:06:30Z</time>
      </trkpt>
      <trkpt lat="46.270639020949602" lon="4.993457039818168">
        <ele>189.52000000000001</ele>
        <time>2025-04-24T07:06:40Z</time>
      </trkpt>
      <trkpt lat="46.26988397911191" lon="4.996229019016028">
        <ele>189.03999999999999</ele>
        <time>2025-04-24T07:06:51Z</time>
      </trkpt>
      <trkpt lat="46.269086021929979" lon="4.999181963503361">
        <ele>188.56</ele>
        <time>2025-04-24T07:07:03Z</time>
      </trkpt>
      <trkpt lat="46.268090000376105" lon="5.002824990078807">
        <ele>191.91999999999999</ele>
        <time>2025-04-24T07:07:18Z</time>
      </trkpt>
      <trkpt lat="46.267622960731387" lon="5.004532970488071">
        <ele>191.91999999999999</ele>
        <time>2025-04-24T07:07:27Z</time>
      </trkpt>
      <trkpt lat="46.267359014600515" lon="5.005505019798875">
        <ele>191.91999999999999</ele>
        <time>2025-04-24T07:07:35Z</time>
      </trkpt>
      <trkpt lat="46.267269998788834" lon="5.005820011720061">
        <ele>192.40000000000001</ele>
        <time>2025-04-24T07:07:41Z</time>
      </trkpt>
      <trkpt lat="46.267258012667298" lon="5.005863010883331">
        <ele>192.40000000000001</ele>
        <time>2025-04-24T07:07:42Z</time>
      </trkpt>
      <trkpt lat="46.267341999337077" lon="5.005963006988168">
        <ele>192.40000000000001</ele>
        <time>2025-04-24T07:07:43Z</time>
      </trkpt>
      <trkpt lat="46.267395978793502" lon="5.005960995331407">
        <ele>191.91999999999999</ele>
        <time>2025-04-24T07:07:44Z</time>
      </trkpt>
      <trkpt lat="46.267461022362113" lon="5.005957977846265">
        <ele>192.40000000000001</ele>
        <time>2025-04-24T07:07:45Z</time>
      </trkpt>
      <trkpt lat="46.267524976283312" lon="5.005955966189504">
        <ele>192.40000000000001</ele>
        <time>2025-04-24T07:07:46Z</time>
      </trkpt>
      <trkpt lat="46.267595971003175" lon="5.005953032523394">
        <ele>192.40000000000001</ele>
        <time>2025-04-24T07:07:47Z</time>
      </trkpt>
      <trkpt lat="46.268349001184106" lon="5.005974993109703">
        <ele>195.28</ele>
        <time>2025-04-24T07:07:54Z</time>
      </trkpt>
      <trkpt lat="46.269621038809419" lon="5.00603199005127">
        <ele>200.56999999999999</ele>
        <time>2025-04-24T07:08:04Z</time>
      </trkpt>
      <trkpt lat="46.269735032692552" lon="5.005986979231238">
        <ele>201.05000000000001</ele>
        <time>2025-04-24T07:08:05Z</time>
      </trkpt>
      <trkpt lat="46.269854977726936" lon="5.005940040573478">
        <ele>201.05000000000001</ele>
        <time>2025-04-24T07:08:06Z</time>
      </trkpt>
      <trkpt lat="46.269974000751972" lon="5.005893018096685">
        <ele>201.53</ele>
        <time>2025-04-24T07:08:07Z</time>
      </trkpt>
      <trkpt lat="46.270428970456123" lon="5.005638040602207">
        <ele>201.53</ele>
        <time>2025-04-24T07:08:11Z</time>
      </trkpt>
      <trkpt lat="46.270547993481159" lon="5.005618007853627">
        <ele>201.53</ele>
        <time>2025-04-24T07:08:12Z</time>
      </trkpt>
      <trkpt lat="46.270667016506195" lon="5.005597975105047">
        <ele>201.53</ele>
        <time>2025-04-24T07:08:13Z</time>
      </trkpt>
      <trkpt lat="46.271917009726167" lon="5.00584096647799">
        <ele>202.00999999999999</ele>
        <time>2025-04-24T07:08:23Z</time>
      </trkpt>
      <trkpt lat="46.273076981306076" lon="5.006067026406527">
        <ele>203.46000000000001</ele>
        <time>2025-04-24T07:08:31Z</time>
      </trkpt>
      <trkpt lat="46.274601984769106" lon="5.006668008863926">
        <ele>209.22</ele>
        <time>2025-04-24T07:08:41Z</time>
      </trkpt>
      <trkpt lat="46.275865975767374" lon="5.006788959726691">
        <ele>214.99000000000001</ele>
        <time>2025-04-24T07:08:49Z</time>
      </trkpt>
      <trkpt lat="46.276021040976048" lon="5.006803963333368">
        <ele>214.99000000000001</ele>
        <time>2025-04-24T07:08:50Z</time>
      </trkpt>
      <trkpt lat="46.276169987395406" lon="5.006818966940045">
        <ele>215.47</ele>
        <time>2025-04-24T07:08:51Z</time>
      </trkpt>
      <trkpt lat="46.27630895934999" lon="5.006865989416838">
        <ele>215.47</ele>
        <time>2025-04-24T07:08:52Z</time>
      </trkpt>
      <trkpt lat="46.276433011516929" lon="5.006940001621842">
        <ele>215.47</ele>
        <time>2025-04-24T07:08:53Z</time>
      </trkpt>
      <trkpt lat="46.27654398791492" lon="5.007009990513325">
        <ele>215.94999999999999</ele>
        <time>2025-04-24T07:08:54Z</time>
      </trkpt>
      <trkpt lat="46.276647001504898" lon="5.007075034081936">
        <ele>215.94999999999999</ele>
        <time>2025-04-24T07:08:55Z</time>
      </trkpt>
      <trkpt lat="46.27746700309217" lon="5.00757803209126">
        <ele>215.94999999999999</ele>
        <time>2025-04-24T07:09:03Z</time>
      </trkpt>
      <trkpt lat="46.277873022481799" lon="5.007780035957694">
        <ele>215.47</ele>
        <time>2025-04-24T07:09:07Z</time>
      </trkpt>
      <trkpt lat="46.277990033850074" lon="5.007807025685906">
        <ele>215.47</ele>
        <time>2025-04-24T07:09:08Z</time>
      </trkpt>
      <trkpt lat="46.278105033561587" lon="5.007834015414119">
        <ele>214.99000000000001</ele>
        <time>2025-04-24T07:09:09Z</time>
      </trkpt>
      <trkpt lat="46.279542027041316" lon="5.007877014577389">
        <ele>208.74000000000001</ele>
        <time>2025-04-24T07:09:21Z</time>
      </trkpt>
      <trkpt lat="46.280151978135109" lon="5.007877014577389">
        <ele>205.86000000000001</ele>
        <time>2025-04-24T07:09:27Z</time>
      </trkpt>
      <trkpt lat="46.280988994985819" lon="5.007855976000428">
        <ele>204.90000000000001</ele>
        <time>2025-04-24T07:09:35Z</time>
      </trkpt>
      <trkpt lat="46.281481012701988" lon="5.00783602707088">
        <ele>205.38</ele>
        <time>2025-04-24T07:09:39Z</time>
      </trkpt>
      <trkpt lat="46.281602969393134" lon="5.007813982665539">
        <ele>205.38</ele>
        <time>2025-04-24T07:09:40Z</time>
      </trkpt>
      <trkpt lat="46.281731966882944" lon="5.007792022079229">
        <ele>204.90000000000001</ele>
        <time>2025-04-24T07:09:41Z</time>
      </trkpt>
      <trkpt lat="46.281831040978432" lon="5.007742987945676">
        <ele>205.38</ele>
        <time>2025-04-24T07:09:42Z</time>
      </trkpt>
      <trkpt lat="46.281938999891281" lon="5.007694959640503">
        <ele>205.38</ele>
        <time>2025-04-24T07:09:43Z</time>
      </trkpt>
      <trkpt lat="46.28234401345253" lon="5.007583983242512">
        <ele>204.90000000000001</ele>
        <time>2025-04-24T07:09:47Z</time>
      </trkpt>
      <trkpt lat="46.282461024820805" lon="5.007555987685919">
        <ele>204.41999999999999</ele>
        <time>2025-04-24T07:09:48Z</time>
      </trkpt>
      <trkpt lat="46.282531013712287" lon="5.007565040141344">
        <ele>203.94</ele>
        <time>2025-04-24T07:09:49Z</time>
      </trkpt>
      <trkpt lat="46.282610977068543" lon="5.007577026262879">
        <ele>203.46000000000001</ele>
        <time>2025-04-24T07:09:50Z</time>
      </trkpt>
      <trkpt lat="46.282728994265199" lon="5.007577026262879">
        <ele>202.97999999999999</ele>
        <time>2025-04-24T07:09:51Z</time>
      </trkpt>
      <trkpt lat="46.282834019511938" lon="5.007577026262879">
        <ele>202.49000000000001</ele>
        <time>2025-04-24T07:09:52Z</time>
      </trkpt>
      <trkpt lat="46.282943990081549" lon="5.007574008777738">
        <ele>202.00999999999999</ele>
        <time>2025-04-24T07:09:53Z</time>
      </trkpt>
      <trkpt lat="46.283050021156669" lon="5.007545007392764">
        <ele>201.05000000000001</ele>
        <time>2025-04-24T07:09:54Z</time>
      </trkpt>
      <trkpt lat="46.284581981599331" lon="5.007136976346374">
        <ele>194.31999999999999</ele>
        <time>2025-04-24T07:10:06Z</time>
      </trkpt>
      <trkpt lat="46.286342013627291" lon="5.006675971671939">
        <ele>202.49000000000001</ele>
        <time>2025-04-24T07:10:17Z</time>
      </trkpt>
      <trkpt lat="46.286494983360171" lon="5.00665401108563">
        <ele>203.46000000000001</ele>
        <time>2025-04-24T07:10:18Z</time>
      </trkpt>
      <trkpt lat="46.286624986678362" lon="5.006681000813842">
        <ele>204.90000000000001</ele>
        <time>2025-04-24T07:10:19Z</time>
      </trkpt>
      <trkpt lat="46.288112020120025" lon="5.006975959986448">
        <ele>212.59</ele>
        <time>2025-04-24T07:10:29Z</time>
      </trkpt>
      <trkpt lat="46.289427978917956" lon="5.0072340387851">
        <ele>214.99000000000001</ele>
        <time>2025-04-24T07:10:38Z</time>
      </trkpt>
      <trkpt lat="46.290888022631407" lon="5.007527992129326">
        <ele>215.47</ele>
        <time>2025-04-24T07:10:47Z</time>
      </trkpt>
      <trkpt lat="46.291687991470098" lon="5.007713986560702">
        <ele>214.99000000000001</ele>
        <time>2025-04-24T07:10:52Z</time>
      </trkpt>
      <trkpt lat="46.29184297285974" lon="5.007785987108946">
        <ele>214.50999999999999</ele>
        <time>2025-04-24T07:10:53Z</time>
      </trkpt>
      <trkpt lat="46.291996026411653" lon="5.007890006527305">
        <ele>214.03</ele>
        <time>2025-04-24T07:10:54Z</time>
      </trkpt>
      <trkpt lat="46.292947959154844" lon="5.008677989244461">
        <ele>211.63</ele>
        <time>2025-04-24T07:11:02Z</time>
      </trkpt>
      <trkpt lat="46.2941849604249" lon="5.009703012183309">
        <ele>210.19</ele>
        <time>2025-04-24T07:11:12Z</time>
      </trkpt>
      <trkpt lat="46.295104958117008" lon="5.010412037372589">
        <ele>214.50999999999999</ele>
        <time>2025-04-24T07:11:21Z</time>
      </trkpt>
      <trkpt lat="46.29596502520144" lon="5.010711019858718">
        <ele>214.99000000000001</ele>
        <time>2025-04-24T07:11:26Z</time>
      </trkpt>
      <trkpt lat="46.297486005350947" lon="5.01114402897656">
        <ele>215.94999999999999</ele>
        <time>2025-04-24T07:11:34Z</time>
      </trkpt>
      <trkpt lat="46.298612030223012" lon="5.011719027534127">
        <ele>217.40000000000001</ele>
        <time>2025-04-24T07:11:41Z</time>
      </trkpt>
      <trkpt lat="46.3000269792974" lon="5.012751007452607">
        <ele>219.31999999999999</ele>
        <time>2025-04-24T07:11:52Z</time>
      </trkpt>
      <trkpt lat="46.300334008410573" lon="5.012978995218873">
        <ele>219.31999999999999</ele>
        <time>2025-04-24T07:11:57Z</time>
      </trkpt>
      <trkpt lat="46.300391005352139" lon="5.01307999715209">
        <ele>219.31999999999999</ele>
        <time>2025-04-24T07:11:58Z</time>
      </trkpt>
      <trkpt lat="46.300378013402224" lon="5.013159960508347">
        <ele>218.84</ele>
        <time>2025-04-24T07:11:59Z</time>
      </trkpt>
      <trkpt lat="46.300360998138785" lon="5.013266997411847">
        <ele>218.84</ele>
        <time>2025-04-24T07:12:00Z</time>
      </trkpt>
      <trkpt lat="46.300339959561825" lon="5.013395994901657">
        <ele>218.84</ele>
        <time>2025-04-24T07:12:01Z</time>
      </trkpt>
      <trkpt lat="46.300244992598891" lon="5.014697033911943">
        <ele>217.88</ele>
        <time>2025-04-24T07:12:08Z</time>
      </trkpt>
      <trkpt lat="46.300335014238954" lon="5.016932990401983">
        <ele>218.84</ele>
        <time>2025-04-24T07:12:18Z</time>
      </trkpt>
      <trkpt lat="46.300400979816914" lon="5.017128037288785">
        <ele>219.31999999999999</ele>
        <time>2025-04-24T07:12:19Z</time>
      </trkpt>
      <trkpt lat="46.301150992512703" lon="5.019615031778812">
        <ele>223.63999999999999</ele>
        <time>2025-04-24T07:12:30Z</time>
      </trkpt>
      <trkpt lat="46.301458021625876" lon="5.021433988586068">
        <ele>224.12</ele>
        <time>2025-04-24T07:12:38Z</time>
      </trkpt>
      <trkpt lat="46.301772007718682" lon="5.023610014468432">
        <ele>222.19999999999999</ele>
        <time>2025-04-24T07:12:48Z</time>
      </trkpt>
      <trkpt lat="46.301733031868935" lon="5.024857996031642">
        <ele>222.19999999999999</ele>
        <time>2025-04-24T07:12:54Z</time>
      </trkpt>
      <trkpt lat="46.301703024655581" lon="5.025073997676373">
        <ele>222.19999999999999</ele>
        <time>2025-04-24T07:12:55Z</time>
      </trkpt>
      <trkpt lat="46.301556006073952" lon="5.02715103328228">
        <ele>217.40000000000001</ele>
        <time>2025-04-24T07:13:04Z</time>
      </trkpt>
      <trkpt lat="46.301364982500672" lon="5.03016198053956">
        <ele>209.69999999999999</ele>
        <time>2025-04-24T07:13:16Z</time>
      </trkpt>
      <trkpt lat="46.301345033571124" lon="5.032643023878336">
        <ele>209.22</ele>
        <time>2025-04-24T07:13:26Z</time>
      </trkpt>
      <trkpt lat="46.301260963082314" lon="5.034888032823801">
        <ele>215.94999999999999</ele>
        <time>2025-04-24T07:13:36Z</time>
      </trkpt>
      <trkpt lat="46.300919987261295" lon="5.036714030429721">
        <ele>212.11000000000001</ele>
        <time>2025-04-24T07:13:43Z</time>
      </trkpt>
      <trkpt lat="46.300829965621233" lon="5.036939000710845">
        <ele>211.15000000000001</ele>
        <time>2025-04-24T07:13:44Z</time>
      </trkpt>
      <trkpt lat="46.300601977854967" lon="5.037609972059727">
        <ele>209.22</ele>
        <time>2025-04-24T07:13:47Z</time>
      </trkpt>
      <trkpt lat="46.300563002005219" lon="5.037841983139515">
        <ele>208.74000000000001</ele>
        <time>2025-04-24T07:13:48Z</time>
      </trkpt>
      <trkpt lat="46.300544980913401" lon="5.038100983947516">
        <ele>208.74000000000001</ele>
        <time>2025-04-24T07:13:49Z</time>
      </trkpt>
      <trkpt lat="46.300386982038617" lon="5.040828036144376">
        <ele>208.25999999999999</ele>
        <time>2025-04-24T07:13:59Z</time>
      </trkpt>
      <trkpt lat="46.300359992310405" lon="5.042075011879206">
        <ele>208.74000000000001</ele>
        <time>2025-04-24T07:14:04Z</time>
      </trkpt>
      <trkpt lat="46.300339037552476" lon="5.042308028787375">
        <ele>208.74000000000001</ele>
        <time>2025-04-24T07:14:05Z</time>
      </trkpt>
      <trkpt lat="46.3002859801054" lon="5.042532999068499">
        <ele>208.74000000000001</ele>
        <time>2025-04-24T07:14:06Z</time>
      </trkpt>
      <trkpt lat="46.300214985385537" lon="5.042756963521242">
        <ele>208.74000000000001</ele>
        <time>2025-04-24T07:14:07Z</time>
      </trkpt>
      <trkpt lat="46.3001340162009" lon="5.042992997914553">
        <ele>209.22</ele>
        <time>2025-04-24T07:14:08Z</time>
      </trkpt>
      <trkpt lat="46.299853976815939" lon="5.043936967849731">
        <ele>212.11000000000001</ele>
        <time>2025-04-24T07:14:12Z</time>
      </trkpt>
      <trkpt lat="46.299821035936475" lon="5.044182976707816">
        <ele>213.06999999999999</ele>
        <time>2025-04-24T07:14:13Z</time>
      </trkpt>
      <trkpt lat="46.299649961292744" lon="5.046300999820232">
        <ele>219.80000000000001</ele>
        <time>2025-04-24T07:14:21Z</time>
      </trkpt>
      <trkpt lat="46.299826987087727" lon="5.048606023192406">
        <ele>221.72</ele>
        <time>2025-04-24T07:14:30Z</time>
      </trkpt>
      <trkpt lat="46.29972598515451" lon="5.050997966900468">
        <ele>219.31999999999999</ele>
        <time>2025-04-24T07:14:40Z</time>
      </trkpt>
      <trkpt lat="46.299707964062691" lon="5.051202988252044">
        <ele>218.84</ele>
        <time>2025-04-24T07:14:41Z</time>
      </trkpt>
      <trkpt lat="46.299691032618284" lon="5.051395017653704">
        <ele>218.84</ele>
        <time>2025-04-24T07:14:42Z</time>
      </trkpt>
      <trkpt lat="46.299675023183227" lon="5.051572965458036">
        <ele>218.36000000000001</ele>
        <time>2025-04-24T07:14:43Z</time>
      </trkpt>
      <trkpt lat="46.299630012363195" lon="5.051735993474722">
        <ele>217.88</ele>
        <time>2025-04-24T07:14:44Z</time>
      </trkpt>
      <trkpt lat="46.299585001543164" lon="5.051857028156519">
        <ele>217.40000000000001</ele>
        <time>2025-04-24T07:14:45Z</time>
      </trkpt>
      <trkpt lat="46.299540996551514" lon="5.051974039524794">
        <ele>216.91</ele>
        <time>2025-04-24T07:14:46Z</time>
      </trkpt>
      <trkpt lat="46.299494979903102" lon="5.052040005102754">
        <ele>216.43000000000001</ele>
        <time>2025-04-24T07:14:47Z</time>
      </trkpt>
      <trkpt lat="46.299458015710115" lon="5.052093984559178">
        <ele>215.94999999999999</ele>
        <time>2025-04-24T07:14:48Z</time>
      </trkpt>
      <trkpt lat="46.299348967149854" lon="5.052250977605581">
        <ele>212.59</ele>
        <time>2025-04-24T07:14:55Z</time>
      </trkpt>
      <trkpt lat="46.299090972170234" lon="5.052831005305052">
        <ele>211.15000000000001</ele>
        <time>2025-04-24T07:15:01Z</time>
      </trkpt>
      <trkpt lat="46.298772962763906" lon="5.054229022935033">
        <ele>205.86000000000001</ele>
        <time>2025-04-24T07:15:09Z</time>
      </trkpt>
      <trkpt lat="46.298513961955905" lon="5.054927989840508">
        <ele>202.97999999999999</ele>
        <time>2025-04-24T07:15:14Z</time>
      </trkpt>
      <trkpt lat="46.298489989712834" lon="5.055192019790411">
        <ele>202.00999999999999</ele>
        <time>2025-04-24T07:15:16Z</time>
      </trkpt>
      <trkpt lat="46.29850298166275" lon="5.055325040593743">
        <ele>201.53</ele>
        <time>2025-04-24T07:15:17Z</time>
      </trkpt>
      <trkpt lat="46.298516979441047" lon="5.055467030033469">
        <ele>201.53</ele>
        <time>2025-04-24T07:15:18Z</time>
      </trkpt>
      <trkpt lat="46.298591997474432" lon="5.056249983608723">
        <ele>202.49000000000001</ele>
        <time>2025-04-24T07:15:23Z</time>
      </trkpt>
      <trkpt lat="46.298590991646051" lon="5.056403037160635">
        <ele>202.49000000000001</ele>
        <time>2025-04-24T07:15:24Z</time>
      </trkpt>
      <trkpt lat="46.298580011352897" lon="5.056571010500193">
        <ele>202.97999999999999</ele>
        <time>2025-04-24T07:15:25Z</time>
      </trkpt>
      <trkpt lat="46.29852301441133" lon="5.057438034564257">
        <ele>204.41999999999999</ele>
        <time>2025-04-24T07:15:30Z</time>
      </trkpt>
      <trkpt lat="46.298513039946556" lon="5.057600978761911">
        <ele>205.38</ele>
        <time>2025-04-24T07:15:31Z</time>
      </trkpt>
      <trkpt lat="46.298540029674768" lon="5.05776803009212">
        <ele>205.86000000000001</ele>
        <time>2025-04-24T07:15:32Z</time>
      </trkpt>
      <trkpt lat="46.298569031059742" lon="5.057922005653381">
        <ele>206.34</ele>
        <time>2025-04-24T07:15:33Z</time>
      </trkpt>
      <trkpt lat="46.298599038273096" lon="5.058085033670068">
        <ele>207.30000000000001</ele>
        <time>2025-04-24T07:15:34Z</time>
      </trkpt>
      <trkpt lat="46.29863097332418" lon="5.058254012838006">
        <ele>207.78</ele>
        <time>2025-04-24T07:15:35Z</time>
      </trkpt>
      <trkpt lat="46.298724012449384" lon="5.058748964220285">
        <ele>210.66999999999999</ele>
        <time>2025-04-24T07:15:38Z</time>
      </trkpt>
      <trkpt lat="46.298755025491118" lon="5.058914003893733">
        <ele>211.15000000000001</ele>
        <time>2025-04-24T07:15:39Z</time>
      </trkpt>
      <trkpt lat="46.298763994127512" lon="5.05907703191042">
        <ele>211.63</ele>
        <time>2025-04-24T07:15:40Z</time>
      </trkpt>
      <trkpt lat="46.298718983307481" lon="5.059840036556125">
        <ele>213.55000000000001</ele>
        <time>2025-04-24T07:15:45Z</time>
      </trkpt>
      <trkpt lat="46.298712026327848" lon="5.059968028217554">
        <ele>213.55000000000001</ele>
        <time>2025-04-24T07:15:46Z</time>
      </trkpt>
      <trkpt lat="46.298715965822339" lon="5.060128038749099">
        <ele>214.03</ele>
        <time>2025-04-24T07:15:47Z</time>
      </trkpt>
      <trkpt lat="46.298901960253716" lon="5.061124982312322">
        <ele>215.47</ele>
        <time>2025-04-24T07:15:54Z</time>
      </trkpt>
      <trkpt lat="46.298961974680424" lon="5.061693023890257">
        <ele>216.43000000000001</ele>
        <time>2025-04-24T07:15:59Z</time>
      </trkpt>
      <trkpt lat="46.299005979672074" lon="5.06182998418808">
        <ele>216.91</ele>
        <time>2025-04-24T07:16:00Z</time>
      </trkpt>
      <trkpt lat="46.299043027684093" lon="5.061950013041496">
        <ele>216.91</ele>
        <time>2025-04-24T07:16:01Z</time>
      </trkpt>
      <trkpt lat="46.299214018508792" lon="5.062488969415426">
        <ele>217.40000000000001</ele>
        <time>2025-04-24T07:16:05Z</time>
      </trkpt>
      <trkpt lat="46.299376040697098" lon="5.063324980437756">
        <ele>218.36000000000001</ele>
        <time>2025-04-24T07:16:11Z</time>
      </trkpt>
      <trkpt lat="46.299389032647014" lon="5.06342195905745">
        <ele>218.36000000000001</ele>
        <time>2025-04-24T07:16:12Z</time>
      </trkpt>
      <trkpt lat="46.299376040697098" lon="5.0634849909693">
        <ele>218.36000000000001</ele>
        <time>2025-04-24T07:16:13Z</time>
      </trkpt>
      <trkpt lat="46.299332035705447" lon="5.06354802288115">
        <ele>218.84</ele>
        <time>2025-04-24T07:16:14Z</time>
      </trkpt>
      <trkpt lat="46.299288030713797" lon="5.063583981245756">
        <ele>218.84</ele>
        <time>2025-04-24T07:16:15Z</time>
      </trkpt>
      <trkpt lat="46.299223992973566" lon="5.063636032864451">
        <ele>219.31999999999999</ele>
        <time>2025-04-24T07:16:16Z</time>
      </trkpt>
      <trkpt lat="46.299161966890097" lon="5.063686994835734">
        <ele>219.31999999999999</ele>
        <time>2025-04-24T07:16:17Z</time>
      </trkpt>
      <trkpt lat="46.299129026010633" lon="5.063765030354261">
        <ele>219.31999999999999</ele>
        <time>2025-04-24T07:16:18Z</time>
      </trkpt>
      <trkpt lat="46.299120979383588" lon="5.063856979832053">
        <ele>219.31999999999999</ele>
        <time>2025-04-24T07:16:19Z</time>
      </trkpt>
      <trkpt lat="46.299114022403955" lon="5.063950018957257">
        <ele>219.80000000000001</ele>
        <time>2025-04-24T07:16:20Z</time>
      </trkpt>
      <trkpt lat="46.299154004082084" lon="5.064041968435049">
        <ele>219.31999999999999</ele>
        <time>2025-04-24T07:16:21Z</time>
      </trkpt>
      <trkpt lat="46.299202032387257" lon="5.064154034480453">
        <ele>219.31999999999999</ele>
        <time>2025-04-24T07:16:22Z</time>
      </trkpt>
      <trkpt lat="46.299755992367864" lon="5.065436968579888">
        <ele>220.75999999999999</ele>
        <time>2025-04-24T07:16:31Z</time>
      </trkpt>
      <trkpt lat="46.3002859801054" lon="5.066468026489019">
        <ele>224.61000000000001</ele>
        <time>2025-04-24T07:16:40Z</time>
      </trkpt>
      <trkpt lat="46.300367033109069" lon="5.066530974581838">
        <ele>225.09</ele>
        <time>2025-04-24T07:16:41Z</time>
      </trkpt>
      <trkpt lat="46.301215030252934" lon="5.067186020314694">
        <ele>224.12</ele>
        <time>2025-04-24T07:16:52Z</time>
      </trkpt>
      <trkpt lat="46.301215030252934" lon="5.067186020314694">
        <ele>223.63999999999999</ele>
        <time>2025-04-24T07:16:53Z</time>
      </trkpt>
      <trkpt lat="46.301295999437571" lon="5.067213010042906">
        <ele>223.63999999999999</ele>
        <time>2025-04-24T07:16:54Z</time>
      </trkpt>
      <trkpt lat="46.301333969458938" lon="5.067362040281296">
        <ele>223.16</ele>
        <time>2025-04-24T07:16:55Z</time>
      </trkpt>
      <trkpt lat="46.301311003044248" lon="5.067395986989141">
        <ele>223.16</ele>
        <time>2025-04-24T07:16:56Z</time>
      </trkpt>
      <trkpt lat="46.301278984174132" lon="5.067445021122694">
        <ele>222.68000000000001</ele>
        <time>2025-04-24T07:16:57Z</time>
      </trkpt>
      <trkpt lat="46.301240008324385" lon="5.067504029721022">
        <ele>222.68000000000001</ele>
        <time>2025-04-24T07:16:58Z</time>
      </trkpt>
      <trkpt lat="46.301191980019212" lon="5.067578963935375">
        <ele>222.68000000000001</ele>
        <time>2025-04-24T07:16:59Z</time>
      </trkpt>
      <trkpt lat="46.301168007776141" lon="5.067674014717341">
        <ele>222.19999999999999</ele>
        <time>2025-04-24T07:17:00Z</time>
      </trkpt>
      <trkpt lat="46.301142023876309" lon="5.067780967801809">
        <ele>222.19999999999999</ele>
        <time>2025-04-24T07:17:01Z</time>
      </trkpt>
      <trkpt lat="46.301119979470968" lon="5.067900996655226">
        <ele>222.19999999999999</ele>
        <time>2025-04-24T07:17:02Z</time>
      </trkpt>
      <trkpt lat="46.301101958379149" lon="5.068033011630178">
        <ele>222.19999999999999</ele>
        <time>2025-04-24T07:17:03Z</time>
      </trkpt>
      <trkpt lat="46.301087960600853" lon="5.068176006898284">
        <ele>221.72</ele>
        <time>2025-04-24T07:17:04Z</time>
      </trkpt>
      <trkpt lat="46.301095001399517" lon="5.068325959146023">
        <ele>221.24000000000001</ele>
        <time>2025-04-24T07:17:05Z</time>
      </trkpt>
      <trkpt lat="46.301118973642588" lon="5.068809008225799">
        <ele>220.75999999999999</ele>
        <time>2025-04-24T07:17:08Z</time>
      </trkpt>
      <trkpt lat="46.301129031926394" lon="5.069010006263852">
        <ele>220.75999999999999</ele>
        <time>2025-04-24T07:17:09Z</time>
      </trkpt>
      <trkpt lat="46.301106987521052" lon="5.069146966561675">
        <ele>221.24000000000001</ele>
        <time>2025-04-24T07:17:10Z</time>
      </trkpt>
      <trkpt lat="46.300870031118393" lon="5.070291012525559">
        <ele>221.72</ele>
        <time>2025-04-24T07:17:17Z</time>
      </trkpt>
      <trkpt lat="46.300244992598891" lon="5.072039980441332">
        <ele>222.19999999999999</ele>
        <time>2025-04-24T07:17:28Z</time>
      </trkpt>
      <trkpt lat="46.300003007054329" lon="5.072948997840285">
        <ele>222.19999999999999</ele>
        <time>2025-04-24T07:17:33Z</time>
      </trkpt>
      <trkpt lat="46.299980962648988" lon="5.073151001706719">
        <ele>222.68000000000001</ele>
        <time>2025-04-24T07:17:34Z</time>
      </trkpt>
      <trkpt lat="46.299937963485718" lon="5.073742009699345">
        <ele>222.68000000000001</ele>
        <time>2025-04-24T07:17:37Z</time>
      </trkpt>
      <trkpt lat="46.299911979585886" lon="5.073918029665947">
        <ele>222.68000000000001</ele>
        <time>2025-04-24T07:17:38Z</time>
      </trkpt>
      <trkpt lat="46.299846014007926" lon="5.07407502271235">
        <ele>222.19999999999999</ele>
        <time>2025-04-24T07:17:39Z</time>
      </trkpt>
      <trkpt lat="46.299776025116444" lon="5.074239978566766">
        <ele>221.72</ele>
        <time>2025-04-24T07:17:40Z</time>
      </trkpt>
      <trkpt lat="46.299705030396581" lon="5.074408035725355">
        <ele>221.72</ele>
        <time>2025-04-24T07:17:41Z</time>
      </trkpt>
      <trkpt lat="46.299505960196257" lon="5.074670976027846">
        <ele>221.24000000000001</ele>
        <time>2025-04-24T07:17:43Z</time>
      </trkpt>
      <trkpt lat="46.299411999061704" lon="5.074788993224502">
        <ele>221.24000000000001</ele>
        <time>2025-04-24T07:17:44Z</time>
      </trkpt>
      <trkpt lat="46.299290964379907" lon="5.074880020692945">
        <ele>221.24000000000001</ele>
        <time>2025-04-24T07:17:45Z</time>
      </trkpt>
      <trkpt lat="46.299161966890097" lon="5.074904998764396">
        <ele>220.75999999999999</ele>
        <time>2025-04-24T07:17:46Z</time>
      </trkpt>
      <trkpt lat="46.299026012420654" lon="5.074932994320989">
        <ele>220.75999999999999</ele>
        <time>2025-04-24T07:17:47Z</time>
      </trkpt>
      <trkpt lat="46.29888603463769" lon="5.074960989877582">
        <ele>220.75999999999999</ele>
        <time>2025-04-24T07:17:48Z</time>
      </trkpt>
      <trkpt lat="46.298604989424348" lon="5.075016980990768">
        <ele>220.28</ele>
        <time>2025-04-24T07:17:50Z</time>
      </trkpt>
      <trkpt lat="46.298472974449396" lon="5.075048999860883">
        <ele>220.28</ele>
        <time>2025-04-24T07:17:51Z</time>
      </trkpt>
      <trkpt lat="46.298341965302825" lon="5.075118988752365">
        <ele>219.80000000000001</ele>
        <time>2025-04-24T07:17:52Z</time>
      </trkpt>
      <trkpt lat="46.298211961984634" lon="5.075187971815467">
        <ele>219.80000000000001</ele>
        <time>2025-04-24T07:17:53Z</time>
      </trkpt>
      <trkpt lat="46.29809302277863" lon="5.075298026204109">
        <ele>219.80000000000001</ele>
        <time>2025-04-24T07:17:54Z</time>
      </trkpt>
      <trkpt lat="46.297978023067117" lon="5.07542903535068">
        <ele>219.31999999999999</ele>
        <time>2025-04-24T07:17:55Z</time>
      </trkpt>
      <trkpt lat="46.296698022633791" lon="5.076943980529904">
        <ele>219.31999999999999</ele>
        <time>2025-04-24T07:18:06Z</time>
      </trkpt>
      <trkpt lat="46.295489016920328" lon="5.07824401371181">
        <ele>219.80000000000001</ele>
        <time>2025-04-24T07:18:16Z</time>
      </trkpt>
      <trkpt lat="46.295332023873925" lon="5.078304028138518">
        <ele>219.80000000000001</ele>
        <time>2025-04-24T07:18:17Z</time>
      </trkpt>
      <trkpt lat="46.295170001685619" lon="5.078365970402956">
        <ele>219.80000000000001</ele>
        <time>2025-04-24T07:18:18Z</time>
      </trkpt>
      <trkpt lat="46.295006973668933" lon="5.078409975394607">
        <ele>219.80000000000001</ele>
        <time>2025-04-24T07:18:19Z</time>
      </trkpt>
      <trkpt lat="46.294837994500995" lon="5.078413998708129">
        <ele>219.80000000000001</ele>
        <time>2025-04-24T07:18:20Z</time>
      </trkpt>
      <trkpt lat="46.294674966484308" lon="5.078419027850032">
        <ele>219.80000000000001</ele>
        <time>2025-04-24T07:18:21Z</time>
      </trkpt>
      <trkpt lat="46.294524008408189" lon="5.078422967344523">
        <ele>219.80000000000001</ele>
        <time>2025-04-24T07:18:22Z</time>
      </trkpt>
      <trkpt lat="46.294097034260631" lon="5.07847803644836">
        <ele>220.75999999999999</ele>
        <time>2025-04-24T07:18:25Z</time>
      </trkpt>
      <trkpt lat="46.293975999578834" lon="5.07852103561163">
        <ele>221.24000000000001</ele>
        <time>2025-04-24T07:18:26Z</time>
      </trkpt>
      <trkpt lat="46.293869968503714" lon="5.078592030331492">
        <ele>221.24000000000001</ele>
        <time>2025-04-24T07:18:27Z</time>
      </trkpt>
      <trkpt lat="46.293800985440612" lon="5.078729996457696">
        <ele>221.72</ele>
        <time>2025-04-24T07:18:28Z</time>
      </trkpt>
      <trkpt lat="46.293735019862652" lon="5.078882966190577">
        <ele>222.19999999999999</ele>
        <time>2025-04-24T07:18:29Z</time>
      </trkpt>
      <trkpt lat="46.293675005435944" lon="5.07906099781394">
        <ele>222.19999999999999</ele>
        <time>2025-04-24T07:18:30Z</time>
      </trkpt>
      <trkpt lat="46.293613985180855" lon="5.079254033043981">
        <ele>222.68000000000001</ele>
        <time>2025-04-24T07:18:31Z</time>
      </trkpt>
      <trkpt lat="46.293206959962845" lon="5.080521963536739">
        <ele>223.63999999999999</ele>
        <time>2025-04-24T07:18:37Z</time>
      </trkpt>
      <trkpt lat="46.293125990778208" lon="5.080720027908683">
        <ele>223.63999999999999</ele>
        <time>2025-04-24T07:18:38Z</time>
      </trkpt>
      <trkpt lat="46.293030017986894" lon="5.080896969884634">
        <ele>223.63999999999999</ele>
        <time>2025-04-24T07:18:39Z</time>
      </trkpt>
      <trkpt lat="46.292052017524838" lon="5.082620037719607">
        <ele>223.63999999999999</ele>
        <time>2025-04-24T07:18:49Z</time>
      </trkpt>
      <trkpt lat="46.291924025863409" lon="5.082741994410753">
        <ele>223.63999999999999</ele>
        <time>2025-04-24T07:18:50Z</time>
      </trkpt>
      <trkpt lat="46.291784970089793" lon="5.082807037979364">
        <ele>223.16</ele>
        <time>2025-04-24T07:18:51Z</time>
      </trkpt>
      <trkpt lat="46.291644992306828" lon="5.082871997728944">
        <ele>222.68000000000001</ele>
        <time>2025-04-24T07:18:52Z</time>
      </trkpt>
      <trkpt lat="46.291481964290142" lon="5.082893958315253">
        <ele>222.19999999999999</ele>
        <time>2025-04-24T07:18:53Z</time>
      </trkpt>
      <trkpt lat="46.291317008435726" lon="5.082916002720594">
        <ele>221.72</ele>
        <time>2025-04-24T07:18:54Z</time>
      </trkpt>
      <trkpt lat="46.29115398041904" lon="5.082937041297555">
        <ele>221.24000000000001</ele>
        <time>2025-04-24T07:18:55Z</time>
      </trkpt>
      <trkpt lat="46.289853025227785" lon="5.083080036565661">
        <ele>221.24000000000001</ele>
        <time>2025-04-24T07:19:03Z</time>
      </trkpt>
      <trkpt lat="46.289261011406779" lon="5.083061009645462">
        <ele>222.19999999999999</ele>
        <time>2025-04-24T07:19:07Z</time>
      </trkpt>
      <trkpt lat="46.289122039452195" lon="5.083110965788364">
        <ele>222.68000000000001</ele>
        <time>2025-04-24T07:19:08Z</time>
      </trkpt>
      <trkpt lat="46.288981977850199" lon="5.083168968558312">
        <ele>222.68000000000001</ele>
        <time>2025-04-24T07:19:09Z</time>
      </trkpt>
      <trkpt lat="46.287709018215537" lon="5.083587979897857">
        <ele>224.12</ele>
        <time>2025-04-24T07:19:17Z</time>
      </trkpt>
      <trkpt lat="46.287563005462289" lon="5.083705997094512">
        <ele>224.12</ele>
        <time>2025-04-24T07:19:18Z</time>
      </trkpt>
      <trkpt lat="46.287411963567138" lon="5.08382803760469">
        <ele>224.61000000000001</ele>
        <time>2025-04-24T07:19:19Z</time>
      </trkpt>
      <trkpt lat="46.287115998566151" lon="5.08404403924942">
        <ele>224.61000000000001</ele>
        <time>2025-04-24T07:19:21Z</time>
      </trkpt>
      <trkpt lat="46.286969985812902" lon="5.084087960422039">
        <ele>224.61000000000001</ele>
        <time>2025-04-24T07:19:22Z</time>
      </trkpt>
      <trkpt lat="46.286826990544796" lon="5.08413196541369">
        <ele>224.61000000000001</ele>
        <time>2025-04-24T07:19:23Z</time>
      </trkpt>
      <trkpt lat="46.285901963710785" lon="5.084429020062089">
        <ele>226.05000000000001</ele>
        <time>2025-04-24T07:19:30Z</time>
      </trkpt>
      <trkpt lat="46.285454034805298" lon="5.084525998681784">
        <ele>225.56999999999999</ele>
        <time>2025-04-24T07:19:34Z</time>
      </trkpt>
      <trkpt lat="46.285368958488107" lon="5.0845389906317">
        <ele>225.56999999999999</ele>
        <time>2025-04-24T07:19:35Z</time>
      </trkpt>
      <trkpt lat="46.285299975425005" lon="5.084549970924854">
        <ele>226.05000000000001</ele>
        <time>2025-04-24T07:19:36Z</time>
      </trkpt>
      <trkpt lat="46.285248007625341" lon="5.084558017551899">
        <ele>226.53</ele>
        <time>2025-04-24T07:19:37Z</time>
      </trkpt>
      <trkpt lat="46.285212971270084" lon="5.08456296287477">
        <ele>226.53</ele>
        <time>2025-04-24T07:19:38Z</time>
      </trkpt>
      <trkpt lat="46.285195033997297" lon="5.084636975079775">
        <ele>226.53</ele>
        <time>2025-04-24T07:19:39Z</time>
      </trkpt>
      <trkpt lat="46.285207020118833" lon="5.084722973406315">
        <ele>226.53</ele>
        <time>2025-04-24T07:19:40Z</time>
      </trkpt>
      <trkpt lat="46.285220012068748" lon="5.084823975339532">
        <ele>226.53</ele>
        <time>2025-04-24T07:19:41Z</time>
      </trkpt>
      <trkpt lat="46.285236021503806" lon="5.084944004192948">
        <ele>226.53</ele>
        <time>2025-04-24T07:19:42Z</time>
      </trkpt>
      <trkpt lat="46.285277009010315" lon="5.085256984457374">
        <ele>226.53</ele>
        <time>2025-04-24T07:19:44Z</time>
      </trkpt>
      <trkpt lat="46.285230992361903" lon="5.086792968213558">
        <ele>227.49000000000001</ele>
        <time>2025-04-24T07:19:52Z</time>
      </trkpt>
      <trkpt lat="46.285258987918496" lon="5.086991032585502">
        <ele>227.49000000000001</ele>
        <time>2025-04-24T07:19:53Z</time>
      </trkpt>
      <trkpt lat="46.285396032035351" lon="5.087780021131039">
        <ele>227.49000000000001</ele>
        <time>2025-04-24T07:19:57Z</time>
      </trkpt>
      <trkpt lat="46.285396032035351" lon="5.087980013340712">
        <ele>227.49000000000001</ele>
        <time>2025-04-24T07:19:58Z</time>
      </trkpt>
      <trkpt lat="46.285358984023333" lon="5.089604007080197">
        <ele>228.44999999999999</ele>
        <time>2025-04-24T07:20:06Z</time>
      </trkpt>
      <trkpt lat="46.285392008721828" lon="5.089788995683193">
        <ele>227.97</ele>
        <time>2025-04-24T07:20:07Z</time>
      </trkpt>
      <trkpt lat="46.285443976521492" lon="5.08999602869153">
        <ele>227.97</ele>
        <time>2025-04-24T07:20:08Z</time>
      </trkpt>
      <trkpt lat="46.285885032266378" lon="5.091085005551577">
        <ele>227.97</ele>
        <time>2025-04-24T07:20:14Z</time>
      </trkpt>
      <trkpt lat="46.285901963710785" lon="5.091301007196307">
        <ele>228.44999999999999</ele>
        <time>2025-04-24T07:20:15Z</time>
      </trkpt>
      <trkpt lat="46.28591001033783" lon="5.091518014669418">
        <ele>228.44999999999999</ele>
        <time>2025-04-24T07:20:16Z</time>
      </trkpt>
      <trkpt lat="46.285937000066042" lon="5.092206001281738">
        <ele>228.44999999999999</ele>
        <time>2025-04-24T07:20:19Z</time>
      </trkpt>
      <trkpt lat="46.285978993400931" lon="5.092428959906101">
        <ele>228.44999999999999</ele>
        <time>2025-04-24T07:20:20Z</time>
      </trkpt>
      <trkpt lat="46.286020986735821" lon="5.092657031491399">
        <ele>228.44999999999999</ele>
        <time>2025-04-24T07:20:21Z</time>
      </trkpt>
      <trkpt lat="46.286323992535472" lon="5.094559974968433">
        <ele>225.09</ele>
        <time>2025-04-24T07:20:29Z</time>
      </trkpt>
      <trkpt lat="46.28629800863564" lon="5.09476700797677">
        <ele>225.09</ele>
        <time>2025-04-24T07:20:30Z</time>
      </trkpt>
      <trkpt lat="46.286259032785892" lon="5.094974040985107">
        <ele>224.61000000000001</ele>
        <time>2025-04-24T07:20:31Z</time>
      </trkpt>
      <trkpt lat="46.286178985610604" lon="5.095192976295948">
        <ele>224.12</ele>
        <time>2025-04-24T07:20:32Z</time>
      </trkpt>
      <trkpt lat="46.286097010597587" lon="5.095416018739343">
        <ele>223.63999999999999</ele>
        <time>2025-04-24T07:20:33Z</time>
      </trkpt>
      <trkpt lat="46.286013023927808" lon="5.09564702399075">
        <ele>223.16</ele>
        <time>2025-04-24T07:20:34Z</time>
      </trkpt>
      <trkpt lat="46.28530902788043" lon="5.097303036600351">
        <ele>218.84</ele>
        <time>2025-04-24T07:20:41Z</time>
      </trkpt>
      <trkpt lat="46.284483997151256" lon="5.098995007574558">
        <ele>223.16</ele>
        <time>2025-04-24T07:20:49Z</time>
      </trkpt>
      <trkpt lat="46.284419037401676" lon="5.099194999784231">
        <ele>223.63999999999999</ele>
        <time>2025-04-24T07:20:50Z</time>
      </trkpt>
      <trkpt lat="46.284367991611362" lon="5.099393986165524">
        <ele>224.12</ele>
        <time>2025-04-24T07:20:51Z</time>
      </trkpt>
      <trkpt lat="46.284318035468459" lon="5.099587021395564">
        <ele>224.61000000000001</ele>
        <time>2025-04-24T07:20:52Z</time>
      </trkpt>
      <trkpt lat="46.284317029640079" lon="5.099777039140463">
        <ele>225.09</ele>
        <time>2025-04-24T07:20:53Z</time>
      </trkpt>
      <trkpt lat="46.284332033246756" lon="5.099993962794542">
        <ele>224.61000000000001</ele>
        <time>2025-04-24T07:20:54Z</time>
      </trkpt>
      <trkpt lat="46.284349970519543" lon="5.100231003016233">
        <ele>224.12</ele>
        <time>2025-04-24T07:20:55Z</time>
      </trkpt>
      <trkpt lat="46.284387018531561" lon="5.100464019924402">
        <ele>223.63999999999999</ele>
        <time>2025-04-24T07:20:56Z</time>
      </trkpt>
      <trkpt lat="46.284577958285809" lon="5.101519972085953">
        <ele>222.68000000000001</ele>
        <time>2025-04-24T07:21:00Z</time>
      </trkpt>
      <trkpt lat="46.284647025167942" lon="5.101777967065573">
        <ele>222.68000000000001</ele>
        <time>2025-04-24T07:21:01Z</time>
      </trkpt>
      <trkpt lat="46.284812986850739" lon="5.102509036660194">
        <ele>222.19999999999999</ele>
        <time>2025-04-24T07:21:04Z</time>
      </trkpt>
      <trkpt lat="46.28483503125608" lon="5.102754961699247">
        <ele>222.19999999999999</ele>
        <time>2025-04-24T07:21:05Z</time>
      </trkpt>
      <trkpt lat="46.28483603708446" lon="5.103013962507248">
        <ele>222.68000000000001</ele>
        <time>2025-04-24T07:21:06Z</time>
      </trkpt>
      <trkpt lat="46.284776022657752" lon="5.104319024831057">
        <ele>224.61000000000001</ele>
        <time>2025-04-24T07:21:11Z</time>
      </trkpt>
      <trkpt lat="46.284711984917521" lon="5.104553969576955">
        <ele>225.09</ele>
        <time>2025-04-24T07:21:12Z</time>
      </trkpt>
      <trkpt lat="46.284586004912853" lon="5.10501598007977">
        <ele>224.61000000000001</ele>
        <time>2025-04-24T07:21:14Z</time>
      </trkpt>
      <trkpt lat="46.284545017406344" lon="5.105277998372912">
        <ele>224.61000000000001</ele>
        <time>2025-04-24T07:21:15Z</time>
      </trkpt>
      <trkpt lat="46.284506963565946" lon="5.105528030544519">
        <ele>224.61000000000001</ele>
        <time>2025-04-24T07:21:16Z</time>
      </trkpt>
      <trkpt lat="46.284505035728216" lon="5.105784013867378">
        <ele>224.12</ele>
        <time>2025-04-24T07:21:17Z</time>
      </trkpt>
      <trkpt lat="46.284511992707849" lon="5.106043014675379">
        <ele>224.12</ele>
        <time>2025-04-24T07:21:18Z</time>
      </trkpt>
      <trkpt lat="46.284393975511193" lon="5.108052995055914">
        <ele>218.84</ele>
        <time>2025-04-24T07:21:26Z</time>
      </trkpt>
      <trkpt lat="46.284334966912866" lon="5.108266985043883">
        <ele>217.88</ele>
        <time>2025-04-24T07:21:27Z</time>
      </trkpt>
      <trkpt lat="46.284273024648428" lon="5.108490027487278">
        <ele>216.91</ele>
        <time>2025-04-24T07:21:28Z</time>
      </trkpt>
      <trkpt lat="46.284185014665127" lon="5.108705023303628">
        <ele>215.94999999999999</ele>
        <time>2025-04-24T07:21:29Z</time>
      </trkpt>
      <trkpt lat="46.284071020781994" lon="5.108910966664553">
        <ele>214.99000000000001</ele>
        <time>2025-04-24T07:21:30Z</time>
      </trkpt>
      <trkpt lat="46.283954009413719" lon="5.109125962480903">
        <ele>214.99000000000001</ele>
        <time>2025-04-24T07:21:31Z</time>
      </trkpt>
      <trkpt lat="46.283470038324594" lon="5.110122989863157">
        <ele>214.99000000000001</ele>
        <time>2025-04-24T07:21:36Z</time>
      </trkpt>
      <trkpt lat="46.283360989764333" lon="5.11025601066649">
        <ele>214.99000000000001</ele>
        <time>2025-04-24T07:21:37Z</time>
      </trkpt>
      <trkpt lat="46.283254958689213" lon="5.110379979014397">
        <ele>215.47</ele>
        <time>2025-04-24T07:21:38Z</time>
      </trkpt>
      <trkpt lat="46.283136019483209" lon="5.110490033403039">
        <ele>215.47</ele>
        <time>2025-04-24T07:21:39Z</time>
      </trkpt>
      <trkpt lat="46.283015990629792" lon="5.110602015629411">
        <ele>215.94999999999999</ele>
        <time>2025-04-24T07:21:40Z</time>
      </trkpt>
      <trkpt lat="46.282761013135314" lon="5.11083897203207">
        <ele>217.40000000000001</ele>
        <time>2025-04-24T07:21:42Z</time>
      </trkpt>
      <trkpt lat="46.282632015645504" lon="5.110974004492164">
        <ele>218.36000000000001</ele>
        <time>2025-04-24T07:21:43Z</time>
      </trkpt>
      <trkpt lat="46.282083000987768" lon="5.111832981929183">
        <ele>222.19999999999999</ele>
        <time>2025-04-24T07:21:48Z</time>
      </trkpt>
      <trkpt lat="46.281989961862564" lon="5.111967008560896">
        <ele>223.16</ele>
        <time>2025-04-24T07:21:49Z</time>
      </trkpt>
      <trkpt lat="46.281879991292953" lon="5.112073039636016">
        <ele>223.63999999999999</ele>
        <time>2025-04-24T07:21:50Z</time>
      </trkpt>
      <trkpt lat="46.281769014894962" lon="5.112178986892104">
        <ele>224.12</ele>
        <time>2025-04-24T07:21:51Z</time>
      </trkpt>
      <trkpt lat="46.281662983819842" lon="5.112280994653702">
        <ele>224.12</ele>
        <time>2025-04-24T07:21:52Z</time>
      </trkpt>
      <trkpt lat="46.281252019107342" lon="5.112712997943163">
        <ele>225.56999999999999</ele>
        <time>2025-04-24T07:21:57Z</time>
      </trkpt>
      <trkpt lat="46.281202984973788" lon="5.112774018198252">
        <ele>226.05000000000001</ele>
        <time>2025-04-24T07:21:58Z</time>
      </trkpt>
      <trkpt lat="46.281192004680634" lon="5.112835960462689">
        <ele>226.05000000000001</ele>
        <time>2025-04-24T07:21:59Z</time>
      </trkpt>
      <trkpt lat="46.281186975538731" lon="5.112934028729796">
        <ele>226.05000000000001</ele>
        <time>2025-04-24T07:22:00Z</time>
      </trkpt>
      <trkpt lat="46.281181024387479" lon="5.113042993471026">
        <ele>226.05000000000001</ele>
        <time>2025-04-24T07:22:01Z</time>
      </trkpt>
      <trkpt lat="46.281173983588815" lon="5.113169979304075">
        <ele>226.05000000000001</ele>
        <time>2025-04-24T07:22:02Z</time>
      </trkpt>
      <trkpt lat="46.281196027994156" lon="5.113276010379195">
        <ele>226.53</ele>
        <time>2025-04-24T07:22:03Z</time>
      </trkpt>
      <trkpt lat="46.281222011893988" lon="5.113399978727102">
        <ele>226.53</ele>
        <time>2025-04-24T07:22:04Z</time>
      </trkpt>
      <trkpt lat="46.28142099827528" lon="5.114506976678968">
        <ele>226.53</ele>
        <time>2025-04-24T07:22:12Z</time>
      </trkpt>
      <trkpt lat="46.281409012153745" lon="5.114647038280964">
        <ele>226.53</ele>
        <time>2025-04-24T07:22:13Z</time>
      </trkpt>
      <trkpt lat="46.28135503269732" lon="5.115266963839531">
        <ele>226.05000000000001</ele>
        <time>2025-04-24T07:22:18Z</time>
      </trkpt>
      <trkpt lat="46.281344974413514" lon="5.115380035713315">
        <ele>226.05000000000001</ele>
        <time>2025-04-24T07:22:19Z</time>
      </trkpt>
      <trkpt lat="46.281384034082294" lon="5.11545698158443">
        <ele>226.05000000000001</ele>
        <time>2025-04-24T07:22:20Z</time>
      </trkpt>
      <trkpt lat="46.281423009932041" lon="5.115552032366395">
        <ele>226.05000000000001</ele>
        <time>2025-04-24T07:22:21Z</time>
      </trkpt>
      <trkpt lat="46.281460979953408" lon="5.115646999329329">
        <ele>225.56999999999999</ele>
        <time>2025-04-24T07:22:22Z</time>
      </trkpt>
      <trkpt lat="46.281698020175099" lon="5.116281006485224">
        <ele>223.16</ele>
        <time>2025-04-24T07:22:29Z</time>
      </trkpt>
      <trkpt lat="46.281710006296635" lon="5.11635803617537">
        <ele>222.68000000000001</ele>
        <time>2025-04-24T07:22:30Z</time>
      </trkpt>
      <trkpt lat="46.281731966882944" lon="5.116496002301574">
        <ele>221.72</ele>
        <time>2025-04-24T07:22:32Z</time>
      </trkpt>
      <trkpt lat="46.281731966882944" lon="5.116599015891552">
        <ele>221.24000000000001</ele>
        <time>2025-04-24T07:22:33Z</time>
      </trkpt>
      <trkpt lat="46.281731966882944" lon="5.116786016151309">
        <ele>220.28</ele>
        <time>2025-04-24T07:22:35Z</time>
      </trkpt>
      <trkpt lat="46.281731966882944" lon="5.117063038051128">
        <ele>219.31999999999999</ele>
        <time>2025-04-24T07:22:38Z</time>
      </trkpt>
      <trkpt lat="46.281731966882944" lon="5.117159010842443">
        <ele>218.84</ele>
        <time>2025-04-24T07:22:39Z</time>
      </trkpt>
      <trkpt lat="46.281740013509989" lon="5.117792012169957">
        <ele>216.91</ele>
        <time>2025-04-24T07:22:45Z</time>
      </trkpt>
      <trkpt lat="46.281751999631524" lon="5.117898965254426">
        <ele>216.91</ele>
        <time>2025-04-24T07:22:46Z</time>
      </trkpt>
      <trkpt lat="46.281770020723343" lon="5.11801497079432">
        <ele>216.91</ele>
        <time>2025-04-24T07:22:47Z</time>
      </trkpt>
      <trkpt lat="46.281811008229852" lon="5.118261985480785">
        <ele>216.91</ele>
        <time>2025-04-24T07:22:49Z</time>
      </trkpt>
      <trkpt lat="46.281832968816161" lon="5.118376985192299">
        <ele>216.91</ele>
        <time>2025-04-24T07:22:50Z</time>
      </trkpt>
      <trkpt lat="46.28202298656106" lon="5.119478031992912">
        <ele>214.50999999999999</ele>
        <time>2025-04-24T07:22:58Z</time>
      </trkpt>
      <trkpt lat="46.282023992389441" lon="5.119698978960514">
        <ele>214.03</ele>
        <time>2025-04-24T07:22:59Z</time>
      </trkpt>
      <trkpt lat="46.282013012096286" lon="5.119925038889051">
        <ele>213.55000000000001</ele>
        <time>2025-04-24T07:23:00Z</time>
      </trkpt>
      <trkpt lat="46.281989039853215" lon="5.120632974430919">
        <ele>214.03</ele>
        <time>2025-04-24T07:23:03Z</time>
      </trkpt>
      <trkpt lat="46.281989039853215" lon="5.120879989117384">
        <ele>214.50999999999999</ele>
        <time>2025-04-24T07:23:04Z</time>
      </trkpt>
      <trkpt lat="46.281956015154719" lon="5.121617009863257">
        <ele>216.43000000000001</ele>
        <time>2025-04-24T07:23:07Z</time>
      </trkpt>
      <trkpt lat="46.281918967142701" lon="5.12183602899313">
        <ele>216.91</ele>
        <time>2025-04-24T07:23:08Z</time>
      </trkpt>
      <trkpt lat="46.281866999343038" lon="5.122039038687944">
        <ele>217.88</ele>
        <time>2025-04-24T07:23:09Z</time>
      </trkpt>
      <trkpt lat="46.281713023781776" lon="5.122627029195428">
        <ele>220.28</ele>
        <time>2025-04-24T07:23:12Z</time>
      </trkpt>
      <trkpt lat="46.281664995476604" lon="5.122834984213114">
        <ele>221.24000000000001</ele>
        <time>2025-04-24T07:23:13Z</time>
      </trkpt>
      <trkpt lat="46.281650997698307" lon="5.123051991686225">
        <ele>222.19999999999999</ele>
        <time>2025-04-24T07:23:14Z</time>
      </trkpt>
      <trkpt lat="46.281625013798475" lon="5.123463040217757">
        <ele>224.12</ele>
        <time>2025-04-24T07:23:16Z</time>
      </trkpt>
      <trkpt lat="46.28157296217978" lon="5.12362296693027">
        <ele>225.09</ele>
        <time>2025-04-24T07:23:17Z</time>
      </trkpt>
      <trkpt lat="46.281524011865258" lon="5.123769985511899">
        <ele>225.56999999999999</ele>
        <time>2025-04-24T07:23:18Z</time>
      </trkpt>
      <trkpt lat="46.281444970518351" lon="5.123910969123244">
        <ele>226.53</ele>
        <time>2025-04-24T07:23:19Z</time>
      </trkpt>
      <trkpt lat="46.281338017433882" lon="5.12402999214828">
        <ele>226.53</ele>
        <time>2025-04-24T07:23:20Z</time>
      </trkpt>
      <trkpt lat="46.28122896887362" lon="5.124149015173316">
        <ele>227.00999999999999</ele>
        <time>2025-04-24T07:23:21Z</time>
      </trkpt>
      <trkpt lat="46.28112000413239" lon="5.124268960207701">
        <ele>227.49000000000001</ele>
        <time>2025-04-24T07:23:22Z</time>
      </trkpt>
      <trkpt lat="46.280988994985819" lon="5.124341966584325">
        <ele>227.49000000000001</ele>
        <time>2025-04-24T07:23:23Z</time>
      </trkpt>
      <trkpt lat="46.280863014981151" lon="5.124363005161285">
        <ele>227.97</ele>
        <time>2025-04-24T07:23:24Z</time>
      </trkpt>
      <trkpt lat="46.28073301166296" lon="5.124385971575975">
        <ele>227.97</ele>
        <time>2025-04-24T07:23:25Z</time>
      </trkpt>
      <trkpt lat="46.280596973374486" lon="5.124410027638078">
        <ele>228.44999999999999</ele>
        <time>2025-04-24T07:23:26Z</time>
      </trkpt>
      <trkpt lat="46.27965996041894" lon="5.124704986810684">
        <ele>227.49000000000001</ele>
        <time>2025-04-24T07:23:33Z</time>
      </trkpt>
      <trkpt lat="46.279585026204586" lon="5.12478000484407">
        <ele>227.49000000000001</ele>
        <time>2025-04-24T07:23:34Z</time>
      </trkpt>
      <trkpt lat="46.279520988464355" lon="5.124847982078791">
        <ele>227.49000000000001</ele>
        <time>2025-04-24T07:23:35Z</time>
      </trkpt>
      <trkpt lat="46.279492992907763" lon="5.124986032024026">
        <ele>227.00999999999999</ele>
        <time>2025-04-24T07:23:36Z</time>
      </trkpt>
      <trkpt lat="46.279473965987563" lon="5.125143025070429">
        <ele>226.53</ele>
        <time>2025-04-24T07:23:37Z</time>
      </trkpt>
      <trkpt lat="46.279463991522789" lon="5.125324996188283">
        <ele>225.56999999999999</ele>
        <time>2025-04-24T07:23:38Z</time>
      </trkpt>
      <trkpt lat="46.279461979866028" lon="5.125519959256053">
        <ele>224.61000000000001</ele>
        <time>2025-04-24T07:23:39Z</time>
      </trkpt>
      <trkpt lat="46.279612015932798" lon="5.127701014280319">
        <ele>220.75999999999999</ele>
        <time>2025-04-24T07:23:48Z</time>
      </trkpt>
      <trkpt lat="46.279919967055321" lon="5.13002104125917">
        <ele>218.36000000000001</ele>
        <time>2025-04-24T07:23:57Z</time>
      </trkpt>
      <trkpt lat="46.280229007825255" lon="5.131906969472766">
        <ele>221.72</ele>
        <time>2025-04-24T07:24:05Z</time>
      </trkpt>
      <trkpt lat="46.280244011431932" lon="5.132155995815992">
        <ele>222.68000000000001</ele>
        <time>2025-04-24T07:24:06Z</time>
      </trkpt>
      <trkpt lat="46.280246023088694" lon="5.132379960268736">
        <ele>224.12</ele>
        <time>2025-04-24T07:24:07Z</time>
      </trkpt>
      <trkpt lat="46.280231019482017" lon="5.132739963009954">
        <ele>224.61000000000001</ele>
        <time>2025-04-24T07:24:09Z</time>
      </trkpt>
      <trkpt lat="46.280182991176844" lon="5.132854040712118">
        <ele>225.09</ele>
        <time>2025-04-24T07:24:10Z</time>
      </trkpt>
      <trkpt lat="46.280127000063658" lon="5.132967028766871">
        <ele>225.09</ele>
        <time>2025-04-24T07:24:11Z</time>
      </trkpt>
      <trkpt lat="46.280037984251976" lon="5.133045986294746">
        <ele>225.09</ele>
        <time>2025-04-24T07:24:12Z</time>
      </trkpt>
      <trkpt lat="46.279926002025604" lon="5.133139025419951">
        <ele>225.09</ele>
        <time>2025-04-24T07:24:13Z</time>
      </trkpt>
      <trkpt lat="46.279794992879033" lon="5.133215971291065">
        <ele>224.61000000000001</ele>
        <time>2025-04-24T07:24:14Z</time>
      </trkpt>
      <trkpt lat="46.279649985954165" lon="5.133269028738141">
        <ele>224.61000000000001</ele>
        <time>2025-04-24T07:24:15Z</time>
      </trkpt>
      <trkpt lat="46.278697969391942" lon="5.133619979023933">
        <ele>225.56999999999999</ele>
        <time>2025-04-24T07:24:22Z</time>
      </trkpt>
      <trkpt lat="46.278564026579261" lon="5.133670018985868">
        <ele>226.05000000000001</ele>
        <time>2025-04-24T07:24:23Z</time>
      </trkpt>
      <trkpt lat="46.278446009382606" lon="5.133723998442292">
        <ele>226.05000000000001</ele>
        <time>2025-04-24T07:24:24Z</time>
      </trkpt>
      <trkpt lat="46.278353976085782" lon="5.133794993162155">
        <ele>225.56999999999999</ele>
        <time>2025-04-24T07:24:25Z</time>
      </trkpt>
      <trkpt lat="46.278269989416003" lon="5.133875962346792">
        <ele>225.56999999999999</ele>
        <time>2025-04-24T07:24:26Z</time>
      </trkpt>
      <trkpt lat="46.278226990252733" lon="5.134016023948789">
        <ele>225.56999999999999</ele>
        <time>2025-04-24T07:24:27Z</time>
      </trkpt>
      <trkpt lat="46.278179967775941" lon="5.134163964539766">
        <ele>225.56999999999999</ele>
        <time>2025-04-24T07:24:28Z</time>
      </trkpt>
      <trkpt lat="46.27813302911818" lon="5.134316012263298">
        <ele>225.56999999999999</ele>
        <time>2025-04-24T07:24:29Z</time>
      </trkpt>
      <trkpt lat="46.278087012469769" lon="5.134464958682656">
        <ele>226.05000000000001</ele>
        <time>2025-04-24T07:24:30Z</time>
      </trkpt>
      <trkpt lat="46.27802599221468" lon="5.13459999114275">
        <ele>226.53</ele>
        <time>2025-04-24T07:24:31Z</time>
      </trkpt>
      <trkpt lat="46.277944017201662" lon="5.134727982804179">
        <ele>227.00999999999999</ele>
        <time>2025-04-24T07:24:32Z</time>
      </trkpt>
      <trkpt lat="46.277857013046741" lon="5.134864021092653">
        <ele>227.49000000000001</ele>
        <time>2025-04-24T07:24:33Z</time>
      </trkpt>
      <trkpt lat="46.27688898704946" lon="5.136332027614117">
        <ele>228.93000000000001</ele>
        <time>2025-04-24T07:24:42Z</time>
      </trkpt>
      <trkpt lat="46.275526005774736" lon="5.138675021007657">
        <ele>227.00999999999999</ele>
        <time>2025-04-24T07:24:55Z</time>
      </trkpt>
      <trkpt lat="46.274936003610492" lon="5.139659978449345">
        <ele>227.00999999999999</ele>
        <time>2025-04-24T07:25:00Z</time>
      </trkpt>
      <trkpt lat="46.274798037484288" lon="5.139784030616283">
        <ele>227.00999999999999</ele>
        <time>2025-04-24T07:25:01Z</time>
      </trkpt>
      <trkpt lat="46.274657975882292" lon="5.139909004792571">
        <ele>226.53</ele>
        <time>2025-04-24T07:25:02Z</time>
      </trkpt>
      <trkpt lat="46.274199988692999" lon="5.140318041667342">
        <ele>226.05000000000001</ele>
        <time>2025-04-24T07:25:05Z</time>
      </trkpt>
      <trkpt lat="46.274060010910034" lon="5.140477968379855">
        <ele>226.53</ele>
        <time>2025-04-24T07:25:06Z</time>
      </trkpt>
      <trkpt lat="46.27392296679318" lon="5.140649965032935">
        <ele>227.00999999999999</ele>
        <time>2025-04-24T07:25:07Z</time>
      </trkpt>
      <trkpt lat="46.273792963474989" lon="5.14083101414144">
        <ele>227.00999999999999</ele>
        <time>2025-04-24T07:25:08Z</time>
      </trkpt>
      <trkpt lat="46.273692967370152" lon="5.141038969159126">
        <ele>227.49000000000001</ele>
        <time>2025-04-24T07:25:09Z</time>
      </trkpt>
      <trkpt lat="46.2735990062356" lon="5.14123703353107">
        <ele>227.49000000000001</ele>
        <time>2025-04-24T07:25:10Z</time>
      </trkpt>
      <trkpt lat="46.27351401373744" lon="5.141483964398503">
        <ele>227.49000000000001</ele>
        <time>2025-04-24T07:25:11Z</time>
      </trkpt>
      <trkpt lat="46.273432038724422" lon="5.141718992963433">
        <ele>227.49000000000001</ele>
        <time>2025-04-24T07:25:12Z</time>
      </trkpt>
      <trkpt lat="46.272935997694731" lon="5.143656972795725">
        <ele>226.05000000000001</ele>
        <time>2025-04-24T07:25:20Z</time>
      </trkpt>
      <trkpt lat="46.272746985778213" lon="5.144352000206709">
        <ele>226.05000000000001</ele>
        <time>2025-04-24T07:25:23Z</time>
      </trkpt>
      <trkpt lat="46.272669034078717" lon="5.144575964659452">
        <ele>226.05000000000001</ele>
        <time>2025-04-24T07:25:24Z</time>
      </trkpt>
      <trkpt lat="46.272550011053681" lon="5.144765982404351">
        <ele>226.05000000000001</ele>
        <time>2025-04-24T07:25:25Z</time>
      </trkpt>
      <trkpt lat="46.272431993857026" lon="5.144952982664108">
        <ele>226.05000000000001</ele>
        <time>2025-04-24T07:25:26Z</time>
      </trkpt>
      <trkpt lat="46.272315988317132" lon="5.145139982923865">
        <ele>226.05000000000001</ele>
        <time>2025-04-24T07:25:27Z</time>
      </trkpt>
      <trkpt lat="46.272197971120477" lon="5.145327989012003">
        <ele>225.56999999999999</ele>
        <time>2025-04-24T07:25:28Z</time>
      </trkpt>
      <trkpt lat="46.27209504134953" lon="5.145528987050057">
        <ele>225.56999999999999</ele>
        <time>2025-04-24T07:25:29Z</time>
      </trkpt>
      <trkpt lat="46.2720119766891" lon="5.14572998508811">
        <ele>225.56999999999999</ele>
        <time>2025-04-24T07:25:30Z</time>
      </trkpt>
      <trkpt lat="46.271931007504463" lon="5.14592201448977">
        <ele>225.09</ele>
        <time>2025-04-24T07:25:31Z</time>
      </trkpt>
      <trkpt lat="46.271851966157556" lon="5.146112032234669">
        <ele>225.09</ele>
        <time>2025-04-24T07:25:32Z</time>
      </trkpt>
      <trkpt lat="46.27177401445806" lon="5.146298026666045">
        <ele>225.09</ele>
        <time>2025-04-24T07:25:33Z</time>
      </trkpt>
      <trkpt lat="46.271680975332856" lon="5.146484021097422">
        <ele>225.09</ele>
        <time>2025-04-24T07:25:34Z</time>
      </trkpt>
      <trkpt lat="46.271563963964581" lon="5.146614024415612">
        <ele>225.09</ele>
        <time>2025-04-24T07:25:35Z</time>
      </trkpt>
      <trkpt lat="46.271191975101829" lon="5.147028006613255">
        <ele>225.56999999999999</ele>
        <time>2025-04-24T07:25:38Z</time>
      </trkpt>
      <trkpt lat="46.271096002310514" lon="5.14719296246767">
        <ele>225.56999999999999</ele>
        <time>2025-04-24T07:25:39Z</time>
      </trkpt>
      <trkpt lat="46.271026013419032" lon="5.147389015182853">
        <ele>226.05000000000001</ele>
        <time>2025-04-24T07:25:40Z</time>
      </trkpt>
      <trkpt lat="46.270888969302177" lon="5.147769972681999">
        <ele>226.05000000000001</ele>
        <time>2025-04-24T07:25:42Z</time>
      </trkpt>
      <trkpt lat="46.270805988460779" lon="5.147958984598517">
        <ele>226.05000000000001</ele>
        <time>2025-04-24T07:25:43Z</time>
      </trkpt>
      <trkpt lat="46.270681014284492" lon="5.148098040372133">
        <ele>226.53</ele>
        <time>2025-04-24T07:25:44Z</time>
      </trkpt>
      <trkpt lat="46.269774008542299" lon="5.149218030273914">
        <ele>227.97</ele>
        <time>2025-04-24T07:25:51Z</time>
      </trkpt>
      <trkpt lat="46.26968901604414" lon="5.149397989735007">
        <ele>227.97</ele>
        <time>2025-04-24T07:25:52Z</time>
      </trkpt>
      <trkpt lat="46.26960402354598" lon="5.149595970287919">
        <ele>228.44999999999999</ele>
        <time>2025-04-24T07:25:53Z</time>
      </trkpt>
      <trkpt lat="46.269206972792745" lon="5.151073029264808">
        <ele>230.84999999999999</ele>
        <time>2025-04-24T07:26:00Z</time>
      </trkpt>
      <trkpt lat="46.269171014428139" lon="5.152986031025648">
        <ele>231.81</ele>
        <time>2025-04-24T07:26:08Z</time>
      </trkpt>
      <trkpt lat="46.26917595975101" lon="5.153157021850348">
        <ele>231.81</ele>
        <time>2025-04-24T07:26:09Z</time>
      </trkpt>
      <trkpt lat="46.269163973629475" lon="5.153284007683396">
        <ele>231.81</ele>
        <time>2025-04-24T07:26:10Z</time>
      </trkpt>
      <trkpt lat="46.269111000001431" lon="5.153405964374542">
        <ele>231.81</ele>
        <time>2025-04-24T07:26:11Z</time>
      </trkpt>
      <trkpt lat="46.269027013331652" lon="5.153459021821618">
        <ele>231.81</ele>
        <time>2025-04-24T07:26:12Z</time>
      </trkpt>
      <trkpt lat="46.268932968378067" lon="5.15348601154983">
        <ele>231.81</ele>
        <time>2025-04-24T07:26:13Z</time>
      </trkpt>
      <trkpt lat="46.268818974494934" lon="5.153448963537812">
        <ele>231.81</ele>
        <time>2025-04-24T07:26:14Z</time>
      </trkpt>
      <trkpt lat="46.268696011975408" lon="5.153402024880052">
        <ele>231.81</ele>
        <time>2025-04-24T07:26:15Z</time>
      </trkpt>
      <trkpt lat="46.268559973686934" lon="5.153348967432976">
        <ele>231.81</ele>
        <time>2025-04-24T07:26:16Z</time>
      </trkpt>
      <trkpt lat="46.268108021467924" lon="5.153194991871715">
        <ele>231.81</ele>
        <time>2025-04-24T07:26:19Z</time>
      </trkpt>
      <trkpt lat="46.267956979572773" lon="5.153216030448675">
        <ele>231.81</ele>
        <time>2025-04-24T07:26:20Z</time>
      </trkpt>
      <trkpt lat="46.267811972647905" lon="5.153236985206604">
        <ele>231.81</ele>
        <time>2025-04-24T07:26:21Z</time>
      </trkpt>
      <trkpt lat="46.267697978764772" lon="5.153252994641662">
        <ele>232.30000000000001</ele>
        <time>2025-04-24T07:26:22Z</time>
      </trkpt>
      <trkpt lat="46.267591025680304" lon="5.153369000181556">
        <ele>232.30000000000001</ele>
        <time>2025-04-24T07:26:23Z</time>
      </trkpt>
      <trkpt lat="46.267492035403848" lon="5.153476037085056">
        <ele>232.30000000000001</ele>
        <time>2025-04-24T07:26:24Z</time>
      </trkpt>
      <trkpt lat="46.267397990450263" lon="5.153612997382879">
        <ele>231.81</ele>
        <time>2025-04-24T07:26:25Z</time>
      </trkpt>
      <trkpt lat="46.267307968810201" lon="5.153784994035959">
        <ele>231.81</ele>
        <time>2025-04-24T07:26:26Z</time>
      </trkpt>
      <trkpt lat="46.267012003809214" lon="5.154347000643611">
        <ele>229.88999999999999</ele>
        <time>2025-04-24T07:26:29Z</time>
      </trkpt>
      <trkpt lat="46.266879988834262" lon="5.154464012011886">
        <ele>228.93000000000001</ele>
        <time>2025-04-24T07:26:30Z</time>
      </trkpt>
      <trkpt lat="46.266718972474337" lon="5.154564008116722">
        <ele>227.97</ele>
        <time>2025-04-24T07:26:31Z</time>
      </trkpt>
      <trkpt lat="46.265855971723795" lon="5.154991988092661">
        <ele>223.63999999999999</ele>
        <time>2025-04-24T07:26:36Z</time>
      </trkpt>
      <trkpt lat="46.265703001990914" lon="5.15511997975409">
        <ele>223.16</ele>
        <time>2025-04-24T07:26:37Z</time>
      </trkpt>
      <trkpt lat="46.265581967309117" lon="5.155301028862596">
        <ele>223.16</ele>
        <time>2025-04-24T07:26:38Z</time>
      </trkpt>
      <trkpt lat="46.265465039759874" lon="5.155519964173436">
        <ele>223.63999999999999</ele>
        <time>2025-04-24T07:26:39Z</time>
      </trkpt>
      <trkpt lat="46.265354985371232" lon="5.155755998566747">
        <ele>224.12</ele>
        <time>2025-04-24T07:26:40Z</time>
      </trkpt>
      <trkpt lat="46.264171963557601" lon="5.158404009416699">
        <ele>229.88999999999999</ele>
        <time>2025-04-24T07:26:51Z</time>
      </trkpt>
      <trkpt lat="46.263925032690167" lon="5.159083027392626">
        <ele>229.88999999999999</ele>
        <time>2025-04-24T07:26:54Z</time>
      </trkpt>
      <trkpt lat="46.263623032718897" lon="5.160583974793553">
        <ele>230.37</ele>
        <time>2025-04-24T07:27:00Z</time>
      </trkpt>
      <trkpt lat="46.263597970828414" lon="5.160846998915076">
        <ele>230.84999999999999</ele>
        <time>2025-04-24T07:27:01Z</time>
      </trkpt>
      <trkpt lat="46.263538040220737" lon="5.161334993317723">
        <ele>231.33000000000001</ele>
        <time>2025-04-24T07:27:03Z</time>
      </trkpt>
      <trkpt lat="46.263471990823746" lon="5.161532973870635">
        <ele>232.30000000000001</ele>
        <time>2025-04-24T07:27:04Z</time>
      </trkpt>
      <trkpt lat="46.263389009982347" lon="5.161725003272295">
        <ele>232.78</ele>
        <time>2025-04-24T07:27:05Z</time>
      </trkpt>
      <trkpt lat="46.263294965028763" lon="5.161920972168446">
        <ele>233.25999999999999</ele>
        <time>2025-04-24T07:27:06Z</time>
      </trkpt>
      <trkpt lat="46.263198992237449" lon="5.162118030712009">
        <ele>233.25999999999999</ele>
        <time>2025-04-24T07:27:07Z</time>
      </trkpt>
      <trkpt lat="46.263110982254148" lon="5.162321040406823">
        <ele>232.78</ele>
        <time>2025-04-24T07:27:08Z</time>
      </trkpt>
      <trkpt lat="46.263041999191046" lon="5.162543999031186">
        <ele>232.78</ele>
        <time>2025-04-24T07:27:09Z</time>
      </trkpt>
      <trkpt lat="46.263028001412749" lon="5.162790007889271">
        <ele>232.78</ele>
        <time>2025-04-24T07:27:10Z</time>
      </trkpt>
      <trkpt lat="46.263015009462833" lon="5.163037022575736">
        <ele>232.78</ele>
        <time>2025-04-24T07:27:11Z</time>
      </trkpt>
      <trkpt lat="46.262999000027776" lon="5.163316978141666">
        <ele>232.78</ele>
        <time>2025-04-24T07:27:12Z</time>
      </trkpt>
      <trkpt lat="46.263014003634453" lon="5.163533985614777">
        <ele>232.78</ele>
        <time>2025-04-24T07:27:13Z</time>
      </trkpt>
      <trkpt lat="46.263062031939626" lon="5.164810968562961">
        <ele>234.22</ele>
        <time>2025-04-24T07:27:18Z</time>
      </trkpt>
      <trkpt lat="46.263028001412749" lon="5.165047002956271">
        <ele>234.69999999999999</ele>
        <time>2025-04-24T07:27:19Z</time>
      </trkpt>
      <trkpt lat="46.262989025563002" lon="5.165279014036059">
        <ele>234.69999999999999</ele>
        <time>2025-04-24T07:27:20Z</time>
      </trkpt>
      <trkpt lat="46.262921970337629" lon="5.165493004024029">
        <ele>234.69999999999999</ele>
        <time>2025-04-24T07:27:21Z</time>
      </trkpt>
      <trkpt lat="46.262847036123276" lon="5.165706994011998">
        <ele>234.69999999999999</ele>
        <time>2025-04-24T07:27:22Z</time>
      </trkpt>
      <trkpt lat="46.262755002826452" lon="5.165905980393291">
        <ele>234.69999999999999</ele>
        <time>2025-04-24T07:27:23Z</time>
      </trkpt>
      <trkpt lat="46.262114038690925" lon="5.167607003822923">
        <ele>235.66</ele>
        <time>2025-04-24T07:27:31Z</time>
      </trkpt>
      <trkpt lat="46.261969031766057" lon="5.168660022318363">
        <ele>236.13999999999999</ele>
        <time>2025-04-24T07:27:35Z</time>
      </trkpt>
      <trkpt lat="46.262042038142681" lon="5.170924980193377">
        <ele>236.62</ele>
        <time>2025-04-24T07:27:44Z</time>
      </trkpt>
      <trkpt lat="46.262212023139" lon="5.173479029908776">
        <ele>234.69999999999999</ele>
        <time>2025-04-24T07:27:55Z</time>
      </trkpt>
      <trkpt lat="46.262269020080566" lon="5.173644991591573">
        <ele>234.69999999999999</ele>
        <time>2025-04-24T07:27:56Z</time>
      </trkpt>
      <trkpt lat="46.262338003143668" lon="5.17378999851644">
        <ele>234.69999999999999</ele>
        <time>2025-04-24T07:27:57Z</time>
      </trkpt>
      <trkpt lat="46.262412015348673" lon="5.173926958814263">
        <ele>234.22</ele>
        <time>2025-04-24T07:27:58Z</time>
      </trkpt>
      <trkpt lat="46.262480998411775" lon="5.174056040123105">
        <ele>233.74000000000001</ele>
        <time>2025-04-24T07:27:59Z</time>
      </trkpt>
      <trkpt lat="46.262545036152005" lon="5.174173973500729">
        <ele>233.74000000000001</ele>
        <time>2025-04-24T07:28:00Z</time>
      </trkpt>
      <trkpt lat="46.262644026428461" lon="5.174404978752136">
        <ele>232.78</ele>
        <time>2025-04-24T07:28:02Z</time>
      </trkpt>
      <trkpt lat="46.262681996449828" lon="5.174511009827256">
        <ele>232.78</ele>
        <time>2025-04-24T07:28:03Z</time>
      </trkpt>
      <trkpt lat="46.262714015319943" lon="5.174601031467319">
        <ele>232.78</ele>
        <time>2025-04-24T07:28:04Z</time>
      </trkpt>
      <trkpt lat="46.262741005048156" lon="5.174674959853292">
        <ele>232.78</ele>
        <time>2025-04-24T07:28:05Z</time>
      </trkpt>
      <trkpt lat="46.262718038633466" lon="5.174838993698359">
        <ele>232.78</ele>
        <time>2025-04-24T07:28:06Z</time>
      </trkpt>
      <trkpt lat="46.262675039470196" lon="5.174865983426571">
        <ele>232.30000000000001</ele>
        <time>2025-04-24T07:28:07Z</time>
      </trkpt>
      <trkpt lat="46.262618964537978" lon="5.174902025610209">
        <ele>232.30000000000001</ele>
        <time>2025-04-24T07:28:08Z</time>
      </trkpt>
      <trkpt lat="46.262547969818115" lon="5.17494703643024">
        <ele>231.81</ele>
        <time>2025-04-24T07:28:09Z</time>
      </trkpt>
      <trkpt lat="46.261777002364397" lon="5.17542103305459">
        <ele>232.30000000000001</ele>
        <time>2025-04-24T07:28:16Z</time>
      </trkpt>
      <trkpt lat="46.260177986696362" lon="5.176352011039853">
        <ele>233.74000000000001</ele>
        <time>2025-04-24T07:28:27Z</time>
      </trkpt>
      <trkpt lat="46.259780013933778" lon="5.176555020734668">
        <ele>234.22</ele>
        <time>2025-04-24T07:28:31Z</time>
      </trkpt>
      <trkpt lat="46.259718993678689" lon="5.176586033776403">
        <ele>234.22</ele>
        <time>2025-04-24T07:28:32Z</time>
      </trkpt>
      <trkpt lat="46.259550014510751" lon="5.176483020186424">
        <ele>234.69999999999999</ele>
        <time>2025-04-24T07:28:34Z</time>
      </trkpt>
      <trkpt lat="46.259465022012591" lon="5.176501041278243">
        <ele>235.18000000000001</ele>
        <time>2025-04-24T07:28:35Z</time>
      </trkpt>
      <trkpt lat="46.25939603894949" lon="5.17655803821981">
        <ele>235.18000000000001</ele>
        <time>2025-04-24T07:28:36Z</time>
      </trkpt>
      <trkpt lat="46.259372988715768" lon="5.176791977137327">
        <ele>235.18000000000001</ele>
        <time>2025-04-24T07:28:37Z</time>
      </trkpt>
      <trkpt lat="46.259300988167524" lon="5.176863977685571">
        <ele>235.18000000000001</ele>
        <time>2025-04-24T07:28:38Z</time>
      </trkpt>
      <trkpt lat="46.259206021204591" lon="5.176959028467536">
        <ele>235.18000000000001</ele>
        <time>2025-04-24T07:28:39Z</time>
      </trkpt>
      <trkpt lat="46.25909898430109" lon="5.177064975723624">
        <ele>235.18000000000001</ele>
        <time>2025-04-24T07:28:40Z</time>
      </trkpt>
      <trkpt lat="46.258225003257394" lon="5.177865028381348">
        <ele>235.66</ele>
        <time>2025-04-24T07:28:46Z</time>
      </trkpt>
      <trkpt lat="46.256547030061483" lon="5.179348038509488">
        <ele>235.66</ele>
        <time>2025-04-24T07:28:55Z</time>
      </trkpt>
      <trkpt lat="46.253826012834907" lon="5.181668987497687">
        <ele>235.66</ele>
        <time>2025-04-24T07:29:11Z</time>
      </trkpt>
      <trkpt lat="46.251895995810628" lon="5.183291975408793">
        <ele>235.66</ele>
        <time>2025-04-24T07:29:23Z</time>
      </trkpt>
      <trkpt lat="46.250801989808679" lon="5.184260001406074">
        <ele>235.66</ele>
        <time>2025-04-24T07:29:31Z</time>
      </trkpt>
      <trkpt lat="46.249743020161986" lon="5.185136999934912">
        <ele>232.30000000000001</ele>
        <time>2025-04-24T07:29:39Z</time>
      </trkpt>
      <trkpt lat="46.249101972207427" lon="5.185679979622364">
        <ele>230.84999999999999</ele>
        <time>2025-04-24T07:29:46Z</time>
      </trkpt>
      <trkpt lat="46.248768037185073" lon="5.185955995693803">
        <ele>230.84999999999999</ele>
        <time>2025-04-24T07:29:51Z</time>
      </trkpt>
      <trkpt lat="46.248702993616462" lon="5.186010980978608">
        <ele>230.84999999999999</ele>
        <time>2025-04-24T07:29:52Z</time>
      </trkpt>
      <trkpt lat="46.248639039695263" lon="5.186065966263413">
        <ele>230.84999999999999</ele>
        <time>2025-04-24T07:29:53Z</time>
      </trkpt>
      <trkpt lat="46.24857097864151" lon="5.186123969033361">
        <ele>230.84999999999999</ele>
        <time>2025-04-24T07:29:54Z</time>
      </trkpt>
      <trkpt lat="46.248495960608125" lon="5.186187000945211">
        <ele>230.84999999999999</ele>
        <time>2025-04-24T07:29:55Z</time>
      </trkpt>
      <trkpt lat="46.248417003080249" lon="5.186253972351551">
        <ele>230.84999999999999</ele>
        <time>2025-04-24T07:29:56Z</time>
      </trkpt>
      <trkpt lat="46.248336033895612" lon="5.186323039233685">
        <ele>231.33000000000001</ele>
        <time>2025-04-24T07:29:57Z</time>
      </trkpt>
      <trkpt lat="46.247420981526375" lon="5.187134994193912">
        <ele>231.81</ele>
        <time>2025-04-24T07:30:06Z</time>
      </trkpt>
      <trkpt lat="46.24614299274981" lon="5.188279040157795">
        <ele>232.30000000000001</ele>
        <time>2025-04-24T07:30:16Z</time>
      </trkpt>
      <trkpt lat="46.244138041511178" lon="5.18999096006155">
        <ele>230.37</ele>
        <time>2025-04-24T07:30:29Z</time>
      </trkpt>
      <trkpt lat="46.242291005328298" lon="5.191573966294527">
        <ele>231.33000000000001</ele>
        <time>2025-04-24T07:30:41Z</time>
      </trkpt>
      <trkpt lat="46.23969404026866" lon="5.193816963583231">
        <ele>232.30000000000001</ele>
        <time>2025-04-24T07:30:57Z</time>
      </trkpt>
      <trkpt lat="46.237432016059756" lon="5.195743963122368">
        <ele>230.37</ele>
        <time>2025-04-24T07:31:11Z</time>
      </trkpt>
      <trkpt lat="46.235974989831448" lon="5.197092024609447">
        <ele>227.49000000000001</ele>
        <time>2025-04-24T07:31:21Z</time>
      </trkpt>
      <trkpt lat="46.234823986887932" lon="5.198232969269157">
        <ele>222.19999999999999</ele>
        <time>2025-04-24T07:31:31Z</time>
      </trkpt>
      <trkpt lat="46.233855960890651" lon="5.199249023571611">
        <ele>221.72</ele>
        <time>2025-04-24T07:31:40Z</time>
      </trkpt>
      <trkpt lat="46.23355396091938" lon="5.1995500177145">
        <ele>223.63999999999999</ele>
        <time>2025-04-24T07:31:46Z</time>
      </trkpt>
      <trkpt lat="46.233470980077982" lon="5.199624029919505">
        <ele>224.61000000000001</ele>
        <time>2025-04-24T07:31:53Z</time>
      </trkpt>
      <trkpt lat="46.233417000621557" lon="5.199634004384279">
        <ele>225.09</ele>
        <time>2025-04-24T07:31:54Z</time>
      </trkpt>
      <trkpt lat="46.233364026993513" lon="5.199644984677434">
        <ele>225.56999999999999</ele>
        <time>2025-04-24T07:31:55Z</time>
      </trkpt>
      <trkpt lat="46.233311975374818" lon="5.199654959142208">
        <ele>226.05000000000001</ele>
        <time>2025-04-24T07:31:56Z</time>
      </trkpt>
      <trkpt lat="46.233237041160464" lon="5.19965797662735">
        <ele>226.05000000000001</ele>
        <time>2025-04-24T07:31:57Z</time>
      </trkpt>
      <trkpt lat="46.233169985935092" lon="5.199634004384279">
        <ele>226.05000000000001</ele>
        <time>2025-04-24T07:31:58Z</time>
      </trkpt>
      <trkpt lat="46.233098991215229" lon="5.199608020484448">
        <ele>226.53</ele>
        <time>2025-04-24T07:31:59Z</time>
      </trkpt>
      <trkpt lat="46.233022967353463" lon="5.199580024927855">
        <ele>226.53</ele>
        <time>2025-04-24T07:32:00Z</time>
      </trkpt>
      <trkpt lat="46.232961025089025" lon="5.199617994949222">
        <ele>227.00999999999999</ele>
        <time>2025-04-24T07:32:01Z</time>
      </trkpt>
      <trkpt lat="46.232881983742118" lon="5.199668034911156">
        <ele>227.00999999999999</ele>
        <time>2025-04-24T07:32:02Z</time>
      </trkpt>
      <trkpt lat="46.232828004285693" lon="5.199756966903806">
        <ele>227.49000000000001</ele>
        <time>2025-04-24T07:32:03Z</time>
      </trkpt>
      <trkpt lat="46.232787016779184" lon="5.199879007413983">
        <ele>227.49000000000001</ele>
        <time>2025-04-24T07:32:04Z</time>
      </trkpt>
      <trkpt lat="46.232773019000888" lon="5.199999958276749">
        <ele>227.97</ele>
        <time>2025-04-24T07:32:05Z</time>
      </trkpt>
      <trkpt lat="46.232720967382193" lon="5.200138008221984">
        <ele>228.44999999999999</ele>
        <time>2025-04-24T07:32:06Z</time>
      </trkpt>
      <trkpt lat="46.232658019289374" lon="5.200228029862046">
        <ele>228.44999999999999</ele>
        <time>2025-04-24T07:32:07Z</time>
      </trkpt>
      <trkpt lat="46.232590964064002" lon="5.200326014310122">
        <ele>228.93000000000001</ele>
        <time>2025-04-24T07:32:08Z</time>
      </trkpt>
      <trkpt lat="46.232490967959166" lon="5.200392985716462">
        <ele>228.93000000000001</ele>
        <time>2025-04-24T07:32:09Z</time>
      </trkpt>
      <trkpt lat="46.232368005439639" lon="5.200454005971551">
        <ele>229.41</ele>
        <time>2025-04-24T07:32:10Z</time>
      </trkpt>
      <trkpt lat="46.232230039313436" lon="5.200521983206272">
        <ele>228.93000000000001</ele>
        <time>2025-04-24T07:32:11Z</time>
      </trkpt>
      <trkpt lat="46.231034025549889" lon="5.201218016445637">
        <ele>231.81</ele>
        <time>2025-04-24T07:32:18Z</time>
      </trkpt>
      <trkpt lat="46.229440039023757" lon="5.202603964135051">
        <ele>234.22</ele>
        <time>2025-04-24T07:32:27Z</time>
      </trkpt>
      <trkpt lat="46.227551009505987" lon="5.204236004501581">
        <ele>233.74000000000001</ele>
        <time>2025-04-24T07:32:40Z</time>
      </trkpt>
      <trkpt lat="46.225791983306408" lon="5.205760002136231">
        <ele>234.22</ele>
        <time>2025-04-24T07:32:52Z</time>
      </trkpt>
      <trkpt lat="46.225100979208946" lon="5.206270962953568">
        <ele>235.18000000000001</ele>
        <time>2025-04-24T07:32:58Z</time>
      </trkpt>
      <trkpt lat="46.225026967003942" lon="5.206310022622347">
        <ele>235.18000000000001</ele>
        <time>2025-04-24T07:32:59Z</time>
      </trkpt>
      <trkpt lat="46.224961001425982" lon="5.206345980986953">
        <ele>235.18000000000001</ele>
        <time>2025-04-24T07:33:00Z</time>
      </trkpt>
      <trkpt lat="46.224869973957539" lon="5.20631798543036">
        <ele>235.18000000000001</ele>
        <time>2025-04-24T07:33:01Z</time>
      </trkpt>
      <trkpt lat="46.224792022258043" lon="5.206326032057405">
        <ele>235.18000000000001</ele>
        <time>2025-04-24T07:33:02Z</time>
      </trkpt>
      <trkpt lat="46.224651960656047" lon="5.206311028450728">
        <ele>235.18000000000001</ele>
        <time>2025-04-24T07:33:03Z</time>
      </trkpt>
      <trkpt lat="46.224577026441693" lon="5.206221006810665">
        <ele>235.66</ele>
        <time>2025-04-24T07:33:04Z</time>
      </trkpt>
      <trkpt lat="46.224504020065069" lon="5.206132996827364">
        <ele>235.66</ele>
        <time>2025-04-24T07:33:05Z</time>
      </trkpt>
      <trkpt lat="46.224432019516826" lon="5.206083962693811">
        <ele>235.66</ele>
        <time>2025-04-24T07:33:06Z</time>
      </trkpt>
      <trkpt lat="46.22433696873486" lon="5.206091003492475">
        <ele>235.66</ele>
        <time>2025-04-24T07:33:07Z</time>
      </trkpt>
      <trkpt lat="46.224235966801643" lon="5.206097960472107">
        <ele>236.13999999999999</ele>
        <time>2025-04-24T07:33:08Z</time>
      </trkpt>
      <trkpt lat="46.22414099983871" lon="5.206110030412674">
        <ele>236.62</ele>
        <time>2025-04-24T07:33:09Z</time>
      </trkpt>
      <trkpt lat="46.224046032875776" lon="5.206141965463758">
        <ele>236.62</ele>
        <time>2025-04-24T07:33:10Z</time>
      </trkpt>
      <trkpt lat="46.223667003214359" lon="5.206113969907165">
        <ele>237.09999999999999</ele>
        <time>2025-04-24T07:33:14Z</time>
      </trkpt>
      <trkpt lat="46.223521996289492" lon="5.206100977957249">
        <ele>237.09999999999999</ele>
        <time>2025-04-24T07:33:16Z</time>
      </trkpt>
      <trkpt lat="46.223468016833067" lon="5.206069964915514">
        <ele>236.62</ele>
        <time>2025-04-24T07:33:17Z</time>
      </trkpt>
      <trkpt lat="46.223431974649429" lon="5.206007016822696">
        <ele>236.13999999999999</ele>
        <time>2025-04-24T07:33:18Z</time>
      </trkpt>
      <trkpt lat="46.22336701489985" lon="5.205888999626041">
        <ele>236.13999999999999</ele>
        <time>2025-04-24T07:33:19Z</time>
      </trkpt>
      <trkpt lat="46.223363997414708" lon="5.205825967714191">
        <ele>236.13999999999999</ele>
        <time>2025-04-24T07:33:20Z</time>
      </trkpt>
      <trkpt lat="46.223357962444425" lon="5.205719014629722">
        <ele>235.66</ele>
        <time>2025-04-24T07:33:21Z</time>
      </trkpt>
      <trkpt lat="46.22323801741004" lon="5.204472960904241">
        <ele>234.69999999999999</ele>
        <time>2025-04-24T07:33:31Z</time>
      </trkpt>
      <trkpt lat="46.22315302491188" lon="5.203733006492257">
        <ele>234.69999999999999</ele>
        <time>2025-04-24T07:33:38Z</time>
      </trkpt>
      <trkpt lat="46.223143972456455" lon="5.203664023429155">
        <ele>234.69999999999999</ele>
        <time>2025-04-24T07:33:39Z</time>
      </trkpt>
      <trkpt lat="46.223071971908212" lon="5.20361197181046">
        <ele>234.69999999999999</ele>
        <time>2025-04-24T07:33:40Z</time>
      </trkpt>
      <trkpt lat="46.223039031028748" lon="5.203646002337337">
        <ele>234.22</ele>
        <time>2025-04-24T07:33:41Z</time>
      </trkpt>
      <trkpt lat="46.222995026037097" lon="5.203693024814129">
        <ele>234.22</ele>
        <time>2025-04-24T07:33:42Z</time>
      </trkpt>
      <trkpt lat="46.222942974418402" lon="5.203747004270554">
        <ele>233.74000000000001</ele>
        <time>2025-04-24T07:33:43Z</time>
      </trkpt>
      <trkpt lat="46.222885977476835" lon="5.203807018697262">
        <ele>234.22</ele>
        <time>2025-04-24T07:33:44Z</time>
      </trkpt>
      <trkpt lat="46.222250964492559" lon="5.204493999481201">
        <ele>235.66</ele>
        <time>2025-04-24T07:33:52Z</time>
      </trkpt>
      <trkpt lat="46.221706978976727" lon="5.205109985545278">
        <ele>237.58000000000001</ele>
        <time>2025-04-24T07:33:58Z</time>
      </trkpt>
      <trkpt lat="46.221608994528651" lon="5.20517704077065">
        <ele>237.09999999999999</ele>
        <time>2025-04-24T07:33:59Z</time>
      </trkpt>
      <trkpt lat="46.221530037000775" lon="5.205159019678831">
        <ele>237.09999999999999</ele>
        <time>2025-04-24T07:34:00Z</time>
      </trkpt>
      <trkpt lat="46.221435992047191" lon="5.205137981101871">
        <ele>237.09999999999999</ele>
        <time>2025-04-24T07:34:01Z</time>
      </trkpt>
      <trkpt lat="46.221356028690934" lon="5.205113003030419">
        <ele>237.09999999999999</ele>
        <time>2025-04-24T07:34:02Z</time>
      </trkpt>
      <trkpt lat="46.221158970147371" lon="5.205049971118569">
        <ele>237.09999999999999</ele>
        <time>2025-04-24T07:34:04Z</time>
      </trkpt>
      <trkpt lat="46.2210279610008" lon="5.205008983612061">
        <ele>236.62</ele>
        <time>2025-04-24T07:34:05Z</time>
      </trkpt>
      <trkpt lat="46.220963001251221" lon="5.205008983612061">
        <ele>236.62</ele>
        <time>2025-04-24T07:34:06Z</time>
      </trkpt>
      <trkpt lat="46.220860993489623" lon="5.205046031624079">
        <ele>236.62</ele>
        <time>2025-04-24T07:34:07Z</time>
      </trkpt>
      <trkpt lat="46.22076703235507" lon="5.205137981101871">
        <ele>236.13999999999999</ele>
        <time>2025-04-24T07:34:08Z</time>
      </trkpt>
      <trkpt lat="46.220667036250234" lon="5.205234037712216">
        <ele>236.13999999999999</ele>
        <time>2025-04-24T07:34:09Z</time>
      </trkpt>
      <trkpt lat="46.219632960855961" lon="5.20627498626709">
        <ele>234.69999999999999</ele>
        <time>2025-04-24T07:34:19Z</time>
      </trkpt>
      <trkpt lat="46.218927036970854" lon="5.207100016996265">
        <ele>234.22</ele>
        <time>2025-04-24T07:34:27Z</time>
      </trkpt>
      <trkpt lat="46.218875991180539" lon="5.207191966474056">
        <ele>234.22</ele>
        <time>2025-04-24T07:34:28Z</time>
      </trkpt>
      <trkpt lat="46.218861993402243" lon="5.20726103335619">
        <ele>234.22</ele>
        <time>2025-04-24T07:34:29Z</time>
      </trkpt>
      <trkpt lat="46.218867022544146" lon="5.207375027239323">
        <ele>234.22</ele>
        <time>2025-04-24T07:34:30Z</time>
      </trkpt>
      <trkpt lat="46.218871967867017" lon="5.207486003637314">
        <ele>234.22</ele>
        <time>2025-04-24T07:34:31Z</time>
      </trkpt>
      <trkpt lat="46.21887699700892" lon="5.20760502666235">
        <ele>234.22</ele>
        <time>2025-04-24T07:34:32Z</time>
      </trkpt>
      <trkpt lat="46.218968024477363" lon="5.20872401073575">
        <ele>236.13999999999999</ele>
        <time>2025-04-24T07:34:41Z</time>
      </trkpt>
      <trkpt lat="46.219122000038624" lon="5.2095209620893">
        <ele>238.06</ele>
        <time>2025-04-24T07:34:50Z</time>
      </trkpt>
      <trkpt lat="46.21913599781692" lon="5.209581982344389">
        <ele>238.06</ele>
        <time>2025-04-24T07:34:51Z</time>
      </trkpt>
      <trkpt lat="46.219174973666668" lon="5.20958399400115">
        <ele>238.06</ele>
        <time>2025-04-24T07:34:52Z</time>
      </trkpt>
      <trkpt lat="46.219215039163828" lon="5.209564967080951">
        <ele>238.06</ele>
        <time>2025-04-24T07:34:53Z</time>
      </trkpt>
      <trkpt lat="46.219266001135111" lon="5.20954099483788">
        <ele>238.06</ele>
        <time>2025-04-24T07:34:54Z</time>
      </trkpt>
      <trkpt lat="46.219321992248297" lon="5.209515010938048">
        <ele>238.06</ele>
        <time>2025-04-24T07:34:55Z</time>
      </trkpt>
      <trkpt lat="46.219377983361483" lon="5.209488021209836">
        <ele>238.06</ele>
        <time>2025-04-24T07:34:56Z</time>
      </trkpt>
      <trkpt lat="46.219546962529421" lon="5.209621964022517">
        <ele>237.58000000000001</ele>
        <time>2025-04-24T07:35:01Z</time>
      </trkpt>
      <trkpt lat="46.219546962529421" lon="5.209621964022517">
        <ele>237.09999999999999</ele>
        <time>2025-04-24T07:35:02Z</time>
      </trkpt>
      <trkpt lat="46.219546962529421" lon="5.209621964022517">
        <ele>237.09999999999999</ele>
        <time>2025-04-24T07:35:03Z</time>
      </trkpt>
      <trkpt lat="46.219546962529421" lon="5.209621964022517">
        <ele>237.09999999999999</ele>
        <time>2025-04-24T07:35:04Z</time>
      </trkpt>
      <trkpt lat="46.219552997499704" lon="5.209637973457575">
        <ele>236.62</ele>
        <time>2025-04-24T07:35:05Z</time>
      </trkpt>
      <trkpt lat="46.219559032469988" lon="5.209655994549394">
        <ele>236.62</ele>
        <time>2025-04-24T07:35:06Z</time>
      </trkpt>
      <trkpt lat="46.219559032469988" lon="5.209655994549394">
        <ele>236.13999999999999</ele>
        <time>2025-04-24T07:35:21Z</time>
      </trkpt>
      <trkpt lat="46.219580993056297" lon="5.209724977612495">
        <ele>236.62</ele>
        <time>2025-04-24T07:35:30Z</time>
      </trkpt>
      <trkpt lat="46.219580993056297" lon="5.209724977612495">
        <ele>236.62</ele>
        <time>2025-04-24T07:35:41Z</time>
      </trkpt>
      <trkpt lat="46.219580993056297" lon="5.209724977612495">
        <ele>235.66</ele>
        <time>2025-04-24T07:35:53Z</time>
      </trkpt>
      <trkpt lat="46.219589961692691" lon="5.209750961512327">
        <ele>234.69999999999999</ele>
        <time>2025-04-24T07:35:54Z</time>
      </trkpt>
      <trkpt lat="46.219589961692691" lon="5.209750961512327">
        <ele>234.22</ele>
        <time>2025-04-24T07:35:55Z</time>
      </trkpt>
      <trkpt lat="46.219594990834594" lon="5.209750961512327">
        <ele>233.74000000000001</ele>
        <time>2025-04-24T07:35:56Z</time>
      </trkpt>
      <trkpt lat="46.219594990834594" lon="5.209750961512327">
        <ele>232.78</ele>
        <time>2025-04-24T07:36:11Z</time>
      </trkpt>
      <trkpt lat="46.219492983072996" lon="5.209645014256239">
        <ele>236.13999999999999</ele>
        <time>2025-04-24T07:45:59Z</time>
      </trkpt>
      <trkpt lat="46.219515027478337" lon="5.209491960704327">
        <ele>255.37</ele>
        <time>2025-04-24T07:46:14Z</time>
      </trkpt>
      <trkpt lat="46.219551991671324" lon="5.209707040339708">
        <ele>245.27000000000001</ele>
        <time>2025-04-24T07:46:30Z</time>
      </trkpt>
      <trkpt lat="46.219545034691691" lon="5.209688013419509">
        <ele>243.34999999999999</ele>
        <time>2025-04-24T07:46:46Z</time>
      </trkpt>
      <trkpt lat="46.219551991671324" lon="5.209635961800814">
        <ele>243.34999999999999</ele>
        <time>2025-04-24T07:46:48Z</time>
      </trkpt>
      <trkpt lat="46.219546962529421" lon="5.209621964022517">
        <ele>242.87</ele>
        <time>2025-04-24T07:46:49Z</time>
      </trkpt>
      <trkpt lat="46.219546962529421" lon="5.20958298817277">
        <ele>242.38999999999999</ele>
        <time>2025-04-24T07:46:50Z</time>
      </trkpt>
      <trkpt lat="46.219546962529421" lon="5.209549041464925">
        <ele>242.38999999999999</ele>
        <time>2025-04-24T07:46:51Z</time>
      </trkpt>
      <trkpt lat="46.219546962529421" lon="5.209520040079951">
        <ele>241.91</ele>
        <time>2025-04-24T07:46:52Z</time>
      </trkpt>
      <trkpt lat="46.219546962529421" lon="5.209463965147734">
        <ele>241.43000000000001</ele>
        <time>2025-04-24T07:46:55Z</time>
      </trkpt>
      <trkpt lat="46.219546962529421" lon="5.209407974034548">
        <ele>240.94999999999999</ele>
        <time>2025-04-24T07:46:56Z</time>
      </trkpt>
      <trkpt lat="46.219575041905046" lon="5.209376038983464">
        <ele>240.94999999999999</ele>
        <time>2025-04-24T07:46:57Z</time>
      </trkpt>
      <trkpt lat="46.219623992219567" lon="5.209320969879627">
        <ele>240.94999999999999</ele>
        <time>2025-04-24T07:46:58Z</time>
      </trkpt>
      <trkpt lat="46.219680989161134" lon="5.209255004301667">
        <ele>240.47</ele>
        <time>2025-04-24T07:46:59Z</time>
      </trkpt>
      <trkpt lat="46.220340980216861" lon="5.208634994924069">
        <ele>239.02000000000001</ele>
        <time>2025-04-24T07:47:07Z</time>
      </trkpt>
      <trkpt lat="46.220463020727038" lon="5.20859501324594">
        <ele>238.53999999999999</ele>
        <time>2025-04-24T07:47:08Z</time>
      </trkpt>
      <trkpt lat="46.220567040145397" lon="5.208559976890683">
        <ele>238.53999999999999</ele>
        <time>2025-04-24T07:47:09Z</time>
      </trkpt>
      <trkpt lat="46.220674999058247" lon="5.208527036011219">
        <ele>238.53999999999999</ele>
        <time>2025-04-24T07:47:10Z</time>
      </trkpt>
      <trkpt lat="46.221685018390417" lon="5.208519995212555">
        <ele>237.58000000000001</ele>
        <time>2025-04-24T07:47:19Z</time>
      </trkpt>
      <trkpt lat="46.221715025603771" lon="5.208550002425909">
        <ele>238.06</ele>
        <time>2025-04-24T07:47:20Z</time>
      </trkpt>
      <trkpt lat="46.221830025315285" lon="5.20861697383225">
        <ele>238.53999999999999</ele>
        <time>2025-04-24T07:47:21Z</time>
      </trkpt>
      <trkpt lat="46.222001016139984" lon="5.208844039589167">
        <ele>239.99000000000001</ele>
        <time>2025-04-24T07:47:27Z</time>
      </trkpt>
      <trkpt lat="46.222001016139984" lon="5.208844039589167">
        <ele>240.94999999999999</ele>
        <time>2025-04-24T07:48:05Z</time>
      </trkpt>
      <trkpt lat="46.222094977274537" lon="5.208910005167127">
        <ele>240.94999999999999</ele>
        <time>2025-04-24T07:48:14Z</time>
      </trkpt>
      <trkpt lat="46.222146023064852" lon="5.208959961310029">
        <ele>240.94999999999999</ele>
        <time>2025-04-24T07:48:15Z</time>
      </trkpt>
      <trkpt lat="46.22224903665483" lon="5.2089580334723">
        <ele>240.47</ele>
        <time>2025-04-24T07:48:16Z</time>
      </trkpt>
      <trkpt lat="46.222336040809751" lon="5.208886032924056">
        <ele>240.47</ele>
        <time>2025-04-24T07:48:17Z</time>
      </trkpt>
      <trkpt lat="46.222432013601065" lon="5.208804979920387">
        <ele>239.99000000000001</ele>
        <time>2025-04-24T07:48:18Z</time>
      </trkpt>
      <trkpt lat="46.222536033019423" lon="5.208716969937086">
        <ele>239.99000000000001</ele>
        <time>2025-04-24T07:48:19Z</time>
      </trkpt>
      <trkpt lat="46.223796000704169" lon="5.207626987248659">
        <ele>239.99000000000001</ele>
        <time>2025-04-24T07:48:30Z</time>
      </trkpt>
      <trkpt lat="46.224496979266405" lon="5.207080990076065">
        <ele>241.91</ele>
        <time>2025-04-24T07:48:38Z</time>
      </trkpt>
      <trkpt lat="46.224567973986268" lon="5.207041008397937">
        <ele>242.38999999999999</ele>
        <time>2025-04-24T07:48:39Z</time>
      </trkpt>
      <trkpt lat="46.224660007283092" lon="5.207013012841344">
        <ele>242.87</ele>
        <time>2025-04-24T07:48:40Z</time>
      </trkpt>
      <trkpt lat="46.224833009764552" lon="5.207064980641007">
        <ele>243.83000000000001</ele>
        <time>2025-04-24T07:48:42Z</time>
      </trkpt>
      <trkpt lat="46.224907021969557" lon="5.207019969820976">
        <ele>243.83000000000001</ele>
        <time>2025-04-24T07:48:43Z</time>
      </trkpt>
      <trkpt lat="46.224968964233994" lon="5.206950986757875">
        <ele>244.31</ele>
        <time>2025-04-24T07:48:44Z</time>
      </trkpt>
      <trkpt lat="46.225019004195929" lon="5.206875968724489">
        <ele>244.31</ele>
        <time>2025-04-24T07:48:45Z</time>
      </trkpt>
      <trkpt lat="46.225033001974225" lon="5.206741020083427">
        <ele>244.31</ele>
        <time>2025-04-24T07:48:46Z</time>
      </trkpt>
      <trkpt lat="46.225037025287747" lon="5.206630965694785">
        <ele>244.31</ele>
        <time>2025-04-24T07:48:47Z</time>
      </trkpt>
      <trkpt lat="46.225019004195929" lon="5.20648998208344">
        <ele>244.78999999999999</ele>
        <time>2025-04-24T07:48:48Z</time>
      </trkpt>
      <trkpt lat="46.224976005032659" lon="5.20642401650548">
        <ele>244.78999999999999</ele>
        <time>2025-04-24T07:48:49Z</time>
      </trkpt>
      <trkpt lat="46.224908027797937" lon="5.206343969330192">
        <ele>244.78999999999999</ele>
        <time>2025-04-24T07:48:50Z</time>
      </trkpt>
      <trkpt lat="46.224868968129158" lon="5.20631798543036">
        <ele>244.31</ele>
        <time>2025-04-24T07:48:51Z</time>
      </trkpt>
      <trkpt lat="46.224670987576246" lon="5.206333994865418">
        <ele>244.31</ele>
        <time>2025-04-24T07:48:52Z</time>
      </trkpt>
      <trkpt lat="46.224519023671746" lon="5.206152023747563">
        <ele>244.78999999999999</ele>
        <time>2025-04-24T07:48:54Z</time>
      </trkpt>
      <trkpt lat="46.224451968446374" lon="5.206083040684462">
        <ele>244.31</ele>
        <time>2025-04-24T07:48:55Z</time>
      </trkpt>
      <trkpt lat="46.224344009533525" lon="5.206089997664094">
        <ele>244.31</ele>
        <time>2025-04-24T07:48:56Z</time>
      </trkpt>
      <trkpt lat="46.224231021478772" lon="5.206097960472107">
        <ele>243.83000000000001</ele>
        <time>2025-04-24T07:48:57Z</time>
      </trkpt>
      <trkpt lat="46.224119961261749" lon="5.206116987392306">
        <ele>243.83000000000001</ele>
        <time>2025-04-24T07:48:58Z</time>
      </trkpt>
      <trkpt lat="46.224002027884126" lon="5.206155963242054">
        <ele>243.34999999999999</ele>
        <time>2025-04-24T07:48:59Z</time>
      </trkpt>
      <trkpt lat="46.222756979987025" lon="5.206249002367258">
        <ele>241.43000000000001</ele>
        <time>2025-04-24T07:49:08Z</time>
      </trkpt>
      <trkpt lat="46.221035001799464" lon="5.206514960154891">
        <ele>241.43000000000001</ele>
        <time>2025-04-24T07:49:19Z</time>
      </trkpt>
      <trkpt lat="46.22027300298214" lon="5.206563994288445">
        <ele>243.34999999999999</ele>
        <time>2025-04-24T07:49:24Z</time>
      </trkpt>
      <trkpt lat="46.220127996057272" lon="5.206512026488781">
        <ele>244.31</ele>
        <time>2025-04-24T07:49:25Z</time>
      </trkpt>
      <trkpt lat="46.219983994960785" lon="5.206458969041705">
        <ele>245.27000000000001</ele>
        <time>2025-04-24T07:49:26Z</time>
      </trkpt>
      <trkpt lat="46.218559993430972" lon="5.205760002136231">
        <ele>246.72</ele>
        <time>2025-04-24T07:49:36Z</time>
      </trkpt>
      <trkpt lat="46.217066003009677" lon="5.205421959981322">
        <ele>240.47</ele>
        <time>2025-04-24T07:49:46Z</time>
      </trkpt>
      <trkpt lat="46.216119015589356" lon="5.205191038548946">
        <ele>240.47</ele>
        <time>2025-04-24T07:49:55Z</time>
      </trkpt>
      <trkpt lat="46.215746020898223" lon="5.205068998038769">
        <ele>239.50999999999999</ele>
        <time>2025-04-24T07:49:59Z</time>
      </trkpt>
      <trkpt lat="46.215666979551315" lon="5.205044019967318">
        <ele>239.50999999999999</ele>
        <time>2025-04-24T07:50:00Z</time>
      </trkpt>
      <trkpt lat="46.215300019830465" lon="5.204903958365321">
        <ele>239.50999999999999</ele>
        <time>2025-04-24T07:50:05Z</time>
      </trkpt>
      <trkpt lat="46.215077983215451" lon="5.204760963097215">
        <ele>239.99000000000001</ele>
        <time>2025-04-24T07:50:09Z</time>
      </trkpt>
      <trkpt lat="46.214927025139332" lon="5.204660966992378">
        <ele>239.99000000000001</ele>
        <time>2025-04-24T07:50:14Z</time>
      </trkpt>
      <trkpt lat="46.214892994612455" lon="5.204639006406069">
        <ele>239.99000000000001</ele>
        <time>2025-04-24T07:50:15Z</time>
      </trkpt>
      <trkpt lat="46.214804984629154" lon="5.204579997807741">
        <ele>239.50999999999999</ele>
        <time>2025-04-24T07:50:16Z</time>
      </trkpt>
      <trkpt lat="46.214790986850858" lon="5.204538004472852">
        <ele>239.02000000000001</ele>
        <time>2025-04-24T07:50:17Z</time>
      </trkpt>
      <trkpt lat="46.214762991294265" lon="5.204452006146312">
        <ele>238.53999999999999</ele>
        <time>2025-04-24T07:50:18Z</time>
      </trkpt>
      <trkpt lat="46.214719992130995" lon="5.204374976456165">
        <ele>238.06</ele>
        <time>2025-04-24T07:50:19Z</time>
      </trkpt>
      <trkpt lat="46.214642040431499" lon="5.204329965636134">
        <ele>237.58000000000001</ele>
        <time>2025-04-24T07:50:20Z</time>
      </trkpt>
      <trkpt lat="46.214538021013141" lon="5.204332983121276">
        <ele>237.09999999999999</ele>
        <time>2025-04-24T07:50:21Z</time>
      </trkpt>
      <trkpt lat="46.21445001102984" lon="5.204385034739971">
        <ele>236.62</ele>
        <time>2025-04-24T07:50:22Z</time>
      </trkpt>
      <trkpt lat="46.214375998824835" lon="5.204429961740971">
        <ele>236.13999999999999</ele>
        <time>2025-04-24T07:50:23Z</time>
      </trkpt>
      <trkpt lat="46.214271979406476" lon="5.204418981447816">
        <ele>236.13999999999999</ele>
        <time>2025-04-24T07:50:24Z</time>
      </trkpt>
      <trkpt lat="46.214170977473259" lon="5.204409006983042">
        <ele>236.62</ele>
        <time>2025-04-24T07:50:25Z</time>
      </trkpt>
      <trkpt lat="46.21406301856041" lon="5.204397020861507">
        <ele>236.62</ele>
        <time>2025-04-24T07:50:26Z</time>
      </trkpt>
      <trkpt lat="46.213006982579827" lon="5.20408202894032">
        <ele>238.06</ele>
        <time>2025-04-24T07:50:34Z</time>
      </trkpt>
      <trkpt lat="46.211544005200267" lon="5.203679027035832">
        <ele>239.99000000000001</ele>
        <time>2025-04-24T07:50:44Z</time>
      </trkpt>
      <trkpt lat="46.21140100993216" lon="5.2037169970572">
        <ele>240.47</ele>
        <time>2025-04-24T07:50:45Z</time>
      </trkpt>
      <trkpt lat="46.21125197969377" lon="5.203755972906947">
        <ele>240.47</ele>
        <time>2025-04-24T07:50:46Z</time>
      </trkpt>
      <trkpt lat="46.210081027820706" lon="5.204250002279878">
        <ele>240.94999999999999</ele>
        <time>2025-04-24T07:50:55Z</time>
      </trkpt>
      <trkpt lat="46.209164969623089" lon="5.204014973714948">
        <ele>241.43000000000001</ele>
        <time>2025-04-24T07:51:03Z</time>
      </trkpt>
      <trkpt lat="46.209067991003394" lon="5.203924030065537">
        <ele>241.43000000000001</ele>
        <time>2025-04-24T07:51:04Z</time>
      </trkpt>
      <trkpt lat="46.208970006555319" lon="5.203821016475558">
        <ele>241.91</ele>
        <time>2025-04-24T07:51:05Z</time>
      </trkpt>
      <trkpt lat="46.208421997725964" lon="5.203037979081273">
        <ele>242.87</ele>
        <time>2025-04-24T07:51:11Z</time>
      </trkpt>
      <trkpt lat="46.208348991349339" lon="5.202871011570096">
        <ele>242.87</ele>
        <time>2025-04-24T07:51:12Z</time>
      </trkpt>
      <trkpt lat="46.208274979144335" lon="5.202703960239887">
        <ele>243.34999999999999</ele>
        <time>2025-04-24T07:51:13Z</time>
      </trkpt>
      <trkpt lat="46.208232985809445" lon="5.202505979686976">
        <ele>243.34999999999999</ele>
        <time>2025-04-24T07:51:14Z</time>
      </trkpt>
      <trkpt lat="46.20819996111095" lon="5.202310010790825">
        <ele>243.34999999999999</ele>
        <time>2025-04-24T07:51:15Z</time>
      </trkpt>
      <trkpt lat="46.207768963649869" lon="5.199704999104142">
        <ele>244.31</ele>
        <time>2025-04-24T07:51:29Z</time>
      </trkpt>
      <trkpt lat="46.207475010305643" lon="5.198644017800689">
        <ele>243.83000000000001</ele>
        <time>2025-04-24T07:51:37Z</time>
      </trkpt>
      <trkpt lat="46.207438968122005" lon="5.198558019474149">
        <ele>243.83000000000001</ele>
        <time>2025-04-24T07:51:38Z</time>
      </trkpt>
      <trkpt lat="46.207402003929019" lon="5.198472021147609">
        <ele>243.83000000000001</ele>
        <time>2025-04-24T07:51:39Z</time>
      </trkpt>
      <trkpt lat="46.207395968958735" lon="5.198234980925918">
        <ele>244.31</ele>
        <time>2025-04-24T07:51:41Z</time>
      </trkpt>
      <trkpt lat="46.207295972853899" lon="5.198131967335939">
        <ele>244.31</ele>
        <time>2025-04-24T07:51:42Z</time>
      </trkpt>
      <trkpt lat="46.20723101310432" lon="5.198120987042785">
        <ele>244.31</ele>
        <time>2025-04-24T07:51:43Z</time>
      </trkpt>
      <trkpt lat="46.207012999802828" lon="5.198143031448126">
        <ele>243.83000000000001</ele>
        <time>2025-04-24T07:51:45Z</time>
      </trkpt>
      <trkpt lat="46.206818036735058" lon="5.198029037564993">
        <ele>243.34999999999999</ele>
        <time>2025-04-24T07:51:47Z</time>
      </trkpt>
      <trkpt lat="46.20671502314508" lon="5.197971034795046">
        <ele>243.34999999999999</ele>
        <time>2025-04-24T07:51:48Z</time>
      </trkpt>
      <trkpt lat="46.206594994291663" lon="5.197951002046466">
        <ele>242.87</ele>
        <time>2025-04-24T07:51:49Z</time>
      </trkpt>
      <trkpt lat="46.206472031772137" lon="5.197929963469505">
        <ele>242.87</ele>
        <time>2025-04-24T07:51:50Z</time>
      </trkpt>
      <trkpt lat="46.206347979605198" lon="5.197910014539957">
        <ele>242.38999999999999</ele>
        <time>2025-04-24T07:51:51Z</time>
      </trkpt>
      <trkpt lat="46.205179039388895" lon="5.197937004268169">
        <ele>239.99000000000001</ele>
        <time>2025-04-24T07:52:02Z</time>
      </trkpt>
      <trkpt lat="46.204922972247005" lon="5.197966005653143">
        <ele>239.50999999999999</ele>
        <time>2025-04-24T07:52:05Z</time>
      </trkpt>
      <trkpt lat="46.204848960042" lon="5.197842037305236">
        <ele>239.02000000000001</ele>
        <time>2025-04-24T07:52:06Z</time>
      </trkpt>
      <trkpt lat="46.204797998070717" lon="5.197803983464837">
        <ele>239.02000000000001</ele>
        <time>2025-04-24T07:52:07Z</time>
      </trkpt>
      <trkpt lat="46.204687021672726" lon="5.197790991514921">
        <ele>239.02000000000001</ele>
        <time>2025-04-24T07:52:08Z</time>
      </trkpt>
      <trkpt lat="46.20459096506238" lon="5.197863997891545">
        <ele>239.02000000000001</ele>
        <time>2025-04-24T07:52:09Z</time>
      </trkpt>
      <trkpt lat="46.204536985605955" lon="5.197885036468506">
        <ele>239.02000000000001</ele>
        <time>2025-04-24T07:52:10Z</time>
      </trkpt>
      <trkpt lat="46.204450987279415" lon="5.197911020368338">
        <ele>238.53999999999999</ele>
        <time>2025-04-24T07:52:11Z</time>
      </trkpt>
      <trkpt lat="46.204347973689437" lon="5.197923006489873">
        <ele>238.53999999999999</ele>
        <time>2025-04-24T07:52:12Z</time>
      </trkpt>
      <trkpt lat="46.204242026433349" lon="5.197928035631776">
        <ele>239.02000000000001</ele>
        <time>2025-04-24T07:52:13Z</time>
      </trkpt>
      <trkpt lat="46.203656969591975" lon="5.197871038690209">
        <ele>239.99000000000001</ele>
        <time>2025-04-24T07:52:18Z</time>
      </trkpt>
      <trkpt lat="46.202163984999061" lon="5.197649002075195">
        <ele>239.99000000000001</ele>
        <time>2025-04-24T07:52:31Z</time>
      </trkpt>
      <trkpt lat="46.201647995039821" lon="5.197675991803408">
        <ele>239.99000000000001</ele>
        <time>2025-04-24T07:52:36Z</time>
      </trkpt>
      <trkpt lat="46.201547998934984" lon="5.197708010673523">
        <ele>239.99000000000001</ele>
        <time>2025-04-24T07:52:37Z</time>
      </trkpt>
      <trkpt lat="46.201360998675227" lon="5.197770036756992">
        <ele>240.47</ele>
        <time>2025-04-24T07:52:39Z</time>
      </trkpt>
      <trkpt lat="46.201284974813461" lon="5.197801971808076">
        <ele>240.47</ele>
        <time>2025-04-24T07:52:40Z</time>
      </trkpt>
      <trkpt lat="46.201226972043514" lon="5.197826027870178">
        <ele>240.94999999999999</ele>
        <time>2025-04-24T07:52:41Z</time>
      </trkpt>
      <trkpt lat="46.201099986210465" lon="5.197867015376687">
        <ele>242.38999999999999</ele>
        <time>2025-04-24T07:52:49Z</time>
      </trkpt>
      <trkpt lat="46.200965959578753" lon="5.197879001498222">
        <ele>243.34999999999999</ele>
        <time>2025-04-24T07:52:55Z</time>
      </trkpt>
      <trkpt lat="46.200902005657554" lon="5.197885036468506">
        <ele>243.34999999999999</ele>
        <time>2025-04-24T07:52:56Z</time>
      </trkpt>
      <trkpt lat="46.200815001502633" lon="5.197820998728275">
        <ele>243.34999999999999</ele>
        <time>2025-04-24T07:52:57Z</time>
      </trkpt>
      <trkpt lat="46.200747024267912" lon="5.19780901260674">
        <ele>243.83000000000001</ele>
        <time>2025-04-24T07:52:58Z</time>
      </trkpt>
      <trkpt lat="46.200653985142708" lon="5.197805995121598">
        <ele>244.31</ele>
        <time>2025-04-24T07:52:59Z</time>
      </trkpt>
      <trkpt lat="46.200578967109323" lon="5.197820998728275">
        <ele>244.31</ele>
        <time>2025-04-24T07:53:00Z</time>
      </trkpt>
      <trkpt lat="46.200476959347725" lon="5.19793801009655">
        <ele>244.78999999999999</ele>
        <time>2025-04-24T07:53:01Z</time>
      </trkpt>
      <trkpt lat="46.200381992384791" lon="5.198001964017749">
        <ele>244.78999999999999</ele>
        <time>2025-04-24T07:53:02Z</time>
      </trkpt>
      <trkpt lat="46.200273027643561" lon="5.198049992322922">
        <ele>244.31</ele>
        <time>2025-04-24T07:53:03Z</time>
      </trkpt>
      <trkpt lat="46.200160039588809" lon="5.198095003142953">
        <ele>244.31</ele>
        <time>2025-04-24T07:53:04Z</time>
      </trkpt>
      <trkpt lat="46.200030036270618" lon="5.198113024234772">
        <ele>244.78999999999999</ele>
        <time>2025-04-24T07:53:05Z</time>
      </trkpt>
      <trkpt lat="46.199896009638906" lon="5.198120987042785">
        <ele>244.78999999999999</ele>
        <time>2025-04-24T07:53:06Z</time>
      </trkpt>
      <trkpt lat="46.198594970628619" lon="5.198200028389692">
        <ele>245.75</ele>
        <time>2025-04-24T07:53:14Z</time>
      </trkpt>
      <trkpt lat="46.196592031046748" lon="5.19841100089252">
        <ele>245.75</ele>
        <time>2025-04-24T07:53:24Z</time>
      </trkpt>
      <trkpt lat="46.194896036759019" lon="5.198104977607727">
        <ele>242.87</ele>
        <time>2025-04-24T07:53:33Z</time>
      </trkpt>
      <trkpt lat="46.192934000864625" lon="5.197150027379394">
        <ele>242.87</ele>
        <time>2025-04-24T07:53:44Z</time>
      </trkpt>
      <trkpt lat="46.191647965461016" lon="5.196848027408123">
        <ele>242.38999999999999</ele>
        <time>2025-04-24T07:53:52Z</time>
      </trkpt>
      <trkpt lat="46.191137004643679" lon="5.19669103436172">
        <ele>241.43000000000001</ele>
        <time>2025-04-24T07:53:56Z</time>
      </trkpt>
      <trkpt lat="46.191040026023984" lon="5.196652980521321">
        <ele>241.43000000000001</ele>
        <time>2025-04-24T07:53:57Z</time>
      </trkpt>
      <trkpt lat="46.190970037132502" lon="5.196573017165065">
        <ele>240.94999999999999</ele>
        <time>2025-04-24T07:53:58Z</time>
      </trkpt>
      <trkpt lat="46.190823018550873" lon="5.196490036323667">
        <ele>240.94999999999999</ele>
        <time>2025-04-24T07:54:00Z</time>
      </trkpt>
      <trkpt lat="46.190749006345868" lon="5.196492969989777">
        <ele>241.43000000000001</ele>
        <time>2025-04-24T07:54:01Z</time>
      </trkpt>
      <trkpt lat="46.190700978040695" lon="5.196557007730007">
        <ele>241.91</ele>
        <time>2025-04-24T07:54:02Z</time>
      </trkpt>
      <trkpt lat="46.190686980262399" lon="5.196663960814476">
        <ele>242.38999999999999</ele>
        <time>2025-04-24T07:54:03Z</time>
      </trkpt>
      <trkpt lat="46.190686980262399" lon="5.196768986061215">
        <ele>242.87</ele>
        <time>2025-04-24T07:54:04Z</time>
      </trkpt>
      <trkpt lat="46.190736014395952" lon="5.196837969124317">
        <ele>242.87</ele>
        <time>2025-04-24T07:54:05Z</time>
      </trkpt>
      <trkpt lat="46.190783036872745" lon="5.197021029889584">
        <ele>243.34999999999999</ele>
        <time>2025-04-24T07:54:06Z</time>
      </trkpt>
      <trkpt lat="46.190769961103797" lon="5.197149021551013">
        <ele>243.83000000000001</ele>
        <time>2025-04-24T07:54:07Z</time>
      </trkpt>
      <trkpt lat="46.190755041316152" lon="5.197287993505597">
        <ele>244.31</ele>
        <time>2025-04-24T07:54:08Z</time>
      </trkpt>
      <trkpt lat="46.190759986639023" lon="5.198518037796021">
        <ele>246.22999999999999</ele>
        <time>2025-04-24T07:54:18Z</time>
      </trkpt>
      <trkpt lat="46.190816983580589" lon="5.199652025476098">
        <ele>246.22999999999999</ele>
        <time>2025-04-24T07:54:29Z</time>
      </trkpt>
      <trkpt lat="46.190822012722492" lon="5.19974498078227">
        <ele>246.22999999999999</ele>
        <time>2025-04-24T07:54:30Z</time>
      </trkpt>
      <trkpt lat="46.190849002450705" lon="5.200825994834304">
        <ele>247.19999999999999</ele>
        <time>2025-04-24T07:54:41Z</time>
      </trkpt>
      <trkpt lat="46.190857971087098" lon="5.202099960297346">
        <ele>247.19999999999999</ele>
        <time>2025-04-24T07:54:52Z</time>
      </trkpt>
      <trkpt lat="46.190999038517475" lon="5.203354982659221">
        <ele>245.75</ele>
        <time>2025-04-24T07:55:03Z</time>
      </trkpt>
      <trkpt lat="46.191240018233657" lon="5.204702038317919">
        <ele>245.75</ele>
        <time>2025-04-24T07:55:15Z</time>
      </trkpt>
      <trkpt lat="46.191324004903436" lon="5.205186009407044">
        <ele>247.19999999999999</ele>
        <time>2025-04-24T07:55:19Z</time>
      </trkpt>
      <trkpt lat="46.191400028765202" lon="5.206057978793979">
        <ele>249.12</ele>
        <time>2025-04-24T07:55:26Z</time>
      </trkpt>
      <trkpt lat="46.191405979916453" lon="5.206411024555564">
        <ele>249.59999999999999</ele>
        <time>2025-04-24T07:55:29Z</time>
      </trkpt>
      <trkpt lat="46.191407991573215" lon="5.206523006781936">
        <ele>250.08000000000001</ele>
        <time>2025-04-24T07:55:30Z</time>
      </trkpt>
      <trkpt lat="46.191411009058356" lon="5.206722998991609">
        <ele>251.03999999999999</ele>
        <time>2025-04-24T07:55:32Z</time>
      </trkpt>
      <trkpt lat="46.191413020715117" lon="5.206806985661387">
        <ele>251.03999999999999</ele>
        <time>2025-04-24T07:55:33Z</time>
      </trkpt>
      <trkpt lat="46.191414026543498" lon="5.206878986209631">
        <ele>251.52000000000001</ele>
        <time>2025-04-24T07:55:34Z</time>
      </trkpt>
      <trkpt lat="46.191415032371879" lon="5.206943023949862">
        <ele>252</ele>
        <time>2025-04-24T07:55:35Z</time>
      </trkpt>
      <trkpt lat="46.191325010731816" lon="5.206997003406286">
        <ele>252</ele>
        <time>2025-04-24T07:55:36Z</time>
      </trkpt>
      <trkpt lat="46.191276982426643" lon="5.206980993971229">
        <ele>251.52000000000001</ele>
        <time>2025-04-24T07:55:37Z</time>
      </trkpt>
      <trkpt lat="46.191214034333825" lon="5.206960961222649">
        <ele>251.52000000000001</ele>
        <time>2025-04-24T07:55:38Z</time>
      </trkpt>
      <trkpt lat="46.191143039613962" lon="5.206936988979578">
        <ele>251.52000000000001</ele>
        <time>2025-04-24T07:55:39Z</time>
      </trkpt>
      <trkpt lat="46.190477013587952" lon="5.20672501064837">
        <ele>250.08000000000001</ele>
        <time>2025-04-24T07:55:48Z</time>
      </trkpt>
      <trkpt lat="46.190343992784619" lon="5.206685028970242">
        <ele>249.12</ele>
        <time>2025-04-24T07:55:50Z</time>
      </trkpt>
      <trkpt lat="46.190202003344893" lon="5.206642029806972">
        <ele>248.16</ele>
        <time>2025-04-24T07:55:52Z</time>
      </trkpt>
      <trkpt lat="46.189487027004361" lon="5.206427033990622">
        <ele>244.78999999999999</ele>
        <time>2025-04-24T07:56:02Z</time>
      </trkpt>
      <trkpt lat="46.189340008422732" lon="5.206352015957236">
        <ele>244.31</ele>
        <time>2025-04-24T07:56:04Z</time>
      </trkpt>
      <trkpt lat="46.189260967075825" lon="5.206310022622347">
        <ele>243.83000000000001</ele>
        <time>2025-04-24T07:56:05Z</time>
      </trkpt>
      <trkpt lat="46.188358990475535" lon="5.205815993249416">
        <ele>239.99000000000001</ele>
        <time>2025-04-24T07:56:15Z</time>
      </trkpt>
      <trkpt lat="46.188222030177712" lon="5.205739969387651">
        <ele>239.02000000000001</ele>
        <time>2025-04-24T07:56:17Z</time>
      </trkpt>
      <trkpt lat="46.188165033236146" lon="5.205709040164948">
        <ele>238.53999999999999</ele>
        <time>2025-04-24T07:56:18Z</time>
      </trkpt>
      <trkpt lat="46.188013991340995" lon="5.205645002424717">
        <ele>238.06</ele>
        <time>2025-04-24T07:56:19Z</time>
      </trkpt>
      <trkpt lat="46.187955988571048" lon="5.205710968002677">
        <ele>237.58000000000001</ele>
        <time>2025-04-24T07:56:20Z</time>
      </trkpt>
      <trkpt lat="46.18789597414434" lon="5.205781040713191">
        <ele>237.09999999999999</ele>
        <time>2025-04-24T07:56:21Z</time>
      </trkpt>
      <trkpt lat="46.187835959717631" lon="5.205850023776293">
        <ele>236.13999999999999</ele>
        <time>2025-04-24T07:56:22Z</time>
      </trkpt>
      <trkpt lat="46.187778962776065" lon="5.205914983525872">
        <ele>235.66</ele>
        <time>2025-04-24T07:56:23Z</time>
      </trkpt>
      <trkpt lat="46.187720037996769" lon="5.205982038751245">
        <ele>235.18000000000001</ele>
        <time>2025-04-24T07:56:24Z</time>
      </trkpt>
      <trkpt lat="46.187447039410472" lon="5.206297030672431">
        <ele>232.78</ele>
        <time>2025-04-24T07:56:28Z</time>
      </trkpt>
      <trkpt lat="46.187392976135015" lon="5.206456035375595">
        <ele>232.30000000000001</ele>
        <time>2025-04-24T07:56:29Z</time>
      </trkpt>
      <trkpt lat="46.187348971143365" lon="5.206586038693786">
        <ele>232.30000000000001</ele>
        <time>2025-04-24T07:56:30Z</time>
      </trkpt>
      <trkpt lat="46.187114026397467" lon="5.207277964800596">
        <ele>234.69999999999999</ele>
        <time>2025-04-24T07:56:36Z</time>
      </trkpt>
      <trkpt lat="46.187092987820506" lon="5.207337979227305">
        <ele>235.18000000000001</ele>
        <time>2025-04-24T07:56:37Z</time>
      </trkpt>
      <trkpt lat="46.187082007527351" lon="5.207373015582562">
        <ele>235.18000000000001</ele>
        <time>2025-04-24T07:56:38Z</time>
      </trkpt>
      <trkpt lat="46.187025010585785" lon="5.207488015294075">
        <ele>236.13999999999999</ele>
        <time>2025-04-24T07:56:39Z</time>
      </trkpt>
      <trkpt lat="46.187039008364081" lon="5.207497989758849">
        <ele>236.13999999999999</ele>
        <time>2025-04-24T07:56:40Z</time>
      </trkpt>
      <trkpt lat="46.187039008364081" lon="5.207497989758849">
        <ele>236.62</ele>
        <time>2025-04-24T07:56:41Z</time>
      </trkpt>
      <trkpt lat="46.187039008364081" lon="5.207497989758849">
        <ele>236.62</ele>
        <time>2025-04-24T07:56:42Z</time>
      </trkpt>
      <trkpt lat="46.187039008364081" lon="5.207497989758849">
        <ele>237.09999999999999</ele>
        <time>2025-04-24T07:56:43Z</time>
      </trkpt>
      <trkpt lat="46.187073038890958" lon="5.207396987825632">
        <ele>237.09999999999999</ele>
        <time>2025-04-24T07:56:44Z</time>
      </trkpt>
      <trkpt lat="46.18707999587059" lon="5.207378966733813">
        <ele>237.58000000000001</ele>
        <time>2025-04-24T07:56:45Z</time>
      </trkpt>
      <trkpt lat="46.187087036669254" lon="5.207357006147504">
        <ele>238.06</ele>
        <time>2025-04-24T07:56:46Z</time>
      </trkpt>
      <trkpt lat="46.187092987820506" lon="5.207339990884066">
        <ele>240.47</ele>
        <time>2025-04-24T07:56:58Z</time>
      </trkpt>
      <trkpt lat="46.187281999737024" lon="5.207410985603929">
        <ele>242.38999999999999</ele>
        <time>2025-04-24T08:16:36Z</time>
      </trkpt>
      <trkpt lat="46.187297003343701" lon="5.207267990335822">
        <ele>254.41</ele>
        <time>2025-04-24T08:17:30Z</time>
      </trkpt>
      <trkpt lat="46.187322987243533" lon="5.20728399977088">
        <ele>251.52000000000001</ele>
        <time>2025-04-24T08:17:45Z</time>
      </trkpt>
      <trkpt lat="46.187175968661904" lon="5.20713597536087">
        <ele>249.59999999999999</ele>
        <time>2025-04-24T08:17:55Z</time>
      </trkpt>
      <trkpt lat="46.187145039439201" lon="5.207147039473057">
        <ele>248.16</ele>
        <time>2025-04-24T08:18:02Z</time>
      </trkpt>
      <trkpt lat="46.187159959226847" lon="5.207142010331154">
        <ele>247.68000000000001</ele>
        <time>2025-04-24T08:18:04Z</time>
      </trkpt>
      <trkpt lat="46.187171023339033" lon="5.207109991461039">
        <ele>247.68000000000001</ele>
        <time>2025-04-24T08:18:05Z</time>
      </trkpt>
      <trkpt lat="46.18718896061182" lon="5.207056012004614">
        <ele>247.19999999999999</ele>
        <time>2025-04-24T08:18:06Z</time>
      </trkpt>
      <trkpt lat="46.187216034159064" lon="5.206975964829326">
        <ele>246.72</ele>
        <time>2025-04-24T08:18:07Z</time>
      </trkpt>
      <trkpt lat="46.187246963381767" lon="5.206884015351534">
        <ele>246.22999999999999</ele>
        <time>2025-04-24T08:18:08Z</time>
      </trkpt>
      <trkpt lat="46.187281999737024" lon="5.206782007589936">
        <ele>246.22999999999999</ele>
        <time>2025-04-24T08:18:09Z</time>
      </trkpt>
      <trkpt lat="46.187403034418821" lon="5.20642502233386">
        <ele>244.31</ele>
        <time>2025-04-24T08:18:12Z</time>
      </trkpt>
      <trkpt lat="46.187461037188768" lon="5.206280015408993">
        <ele>243.83000000000001</ele>
        <time>2025-04-24T08:18:13Z</time>
      </trkpt>
      <trkpt lat="46.187618030235171" lon="5.206098966300488">
        <ele>242.87</ele>
        <time>2025-04-24T08:18:15Z</time>
      </trkpt>
      <trkpt lat="46.18796001188457" lon="5.205707028508186">
        <ele>242.38999999999999</ele>
        <time>2025-04-24T08:18:20Z</time>
      </trkpt>
      <trkpt lat="46.188004016876221" lon="5.205656988546252">
        <ele>242.38999999999999</ele>
        <time>2025-04-24T08:18:21Z</time>
      </trkpt>
      <trkpt lat="46.188139971345663" lon="5.205694036558271">
        <ele>241.91</ele>
        <time>2025-04-24T08:18:23Z</time>
      </trkpt>
      <trkpt lat="46.188186993822455" lon="5.205721026286483">
        <ele>242.38999999999999</ele>
        <time>2025-04-24T08:18:24Z</time>
      </trkpt>
      <trkpt lat="46.188247008249164" lon="5.205753967165947">
        <ele>242.38999999999999</ele>
        <time>2025-04-24T08:18:25Z</time>
      </trkpt>
      <trkpt lat="46.189042031764984" lon="5.206194017082453">
        <ele>243.34999999999999</ele>
        <time>2025-04-24T08:18:35Z</time>
      </trkpt>
      <trkpt lat="46.189833031967282" lon="5.206530969589949">
        <ele>249.12</ele>
        <time>2025-04-24T08:18:45Z</time>
      </trkpt>
      <trkpt lat="46.190783958882093" lon="5.206820983439684">
        <ele>250.08000000000001</ele>
        <time>2025-04-24T08:18:58Z</time>
      </trkpt>
      <trkpt lat="46.191314030438662" lon="5.206992980092764">
        <ele>251.03999999999999</ele>
        <time>2025-04-24T08:19:06Z</time>
      </trkpt>
      <trkpt lat="46.191359963268042" lon="5.207007983699441">
        <ele>251.03999999999999</ele>
        <time>2025-04-24T08:19:07Z</time>
      </trkpt>
      <trkpt lat="46.191421989351511" lon="5.207061963155866">
        <ele>251.03999999999999</ele>
        <time>2025-04-24T08:19:08Z</time>
      </trkpt>
      <trkpt lat="46.191431963816285" lon="5.207127006724477">
        <ele>251.03999999999999</ele>
        <time>2025-04-24T08:19:09Z</time>
      </trkpt>
      <trkpt lat="46.191443027928472" lon="5.207201018929482">
        <ele>251.52000000000001</ele>
        <time>2025-04-24T08:19:10Z</time>
      </trkpt>
      <trkpt lat="46.191457025706768" lon="5.207286011427641">
        <ele>251.52000000000001</ele>
        <time>2025-04-24T08:19:11Z</time>
      </trkpt>
      <trkpt lat="46.191525002941489" lon="5.207728995010257">
        <ele>252.47999999999999</ele>
        <time>2025-04-24T08:19:15Z</time>
      </trkpt>
      <trkpt lat="46.191543024033308" lon="5.207846006378532">
        <ele>252.96000000000001</ele>
        <time>2025-04-24T08:19:16Z</time>
      </trkpt>
      <trkpt lat="46.191667998209596" lon="5.208798022940755">
        <ele>252.47999999999999</ele>
        <time>2025-04-24T08:19:25Z</time>
      </trkpt>
      <trkpt lat="46.191683001816273" lon="5.208897013217211">
        <ele>252.47999999999999</ele>
        <time>2025-04-24T08:19:26Z</time>
      </trkpt>
      <trkpt lat="46.191868996247649" lon="5.210038963705301">
        <ele>253.44</ele>
        <time>2025-04-24T08:19:37Z</time>
      </trkpt>
      <trkpt lat="46.19193596765399" lon="5.210288995876908">
        <ele>253.93000000000001</ele>
        <time>2025-04-24T08:19:40Z</time>
      </trkpt>
      <trkpt lat="46.191952982917428" lon="5.210492005571723">
        <ele>254.41</ele>
        <time>2025-04-24T08:19:42Z</time>
      </trkpt>
      <trkpt lat="46.191952982917428" lon="5.21070197224617">
        <ele>254.88999999999999</ele>
        <time>2025-04-24T08:19:44Z</time>
      </trkpt>
      <trkpt lat="46.191952982917428" lon="5.210812026634812">
        <ele>255.37</ele>
        <time>2025-04-24T08:19:45Z</time>
      </trkpt>
      <trkpt lat="46.191952982917428" lon="5.210923003032804">
        <ele>255.37</ele>
        <time>2025-04-24T08:19:46Z</time>
      </trkpt>
      <trkpt lat="46.191937979310751" lon="5.21209797821939">
        <ele>258.25</ele>
        <time>2025-04-24T08:19:57Z</time>
      </trkpt>
      <trkpt lat="46.191930016502738" lon="5.212133014574647">
        <ele>258.73000000000002</ele>
        <time>2025-04-24T08:20:04Z</time>
      </trkpt>
      <trkpt lat="46.191906966269016" lon="5.212242985144258">
        <ele>257.76999999999998</ele>
        <time>2025-04-24T08:20:48Z</time>
      </trkpt>
      <trkpt lat="46.191889028996229" lon="5.212327977642417">
        <ele>257.29000000000002</ele>
        <time>2025-04-24T08:20:49Z</time>
      </trkpt>
      <trkpt lat="46.191862039268017" lon="5.212442977353931">
        <ele>257.76999999999998</ele>
        <time>2025-04-24T08:20:50Z</time>
      </trkpt>
      <trkpt lat="46.191774029284716" lon="5.212622014805675">
        <ele>257.29000000000002</ele>
        <time>2025-04-24T08:20:52Z</time>
      </trkpt>
      <trkpt lat="46.191752990707755" lon="5.212739026173949">
        <ele>256.81</ele>
        <time>2025-04-24T08:20:53Z</time>
      </trkpt>
      <trkpt lat="46.191638996824622" lon="5.213742004707456">
        <ele>254.88999999999999</ele>
        <time>2025-04-24T08:21:01Z</time>
      </trkpt>
      <trkpt lat="46.191735975444317" lon="5.21512602455914">
        <ele>253.93000000000001</ele>
        <time>2025-04-24T08:21:12Z</time>
      </trkpt>
      <trkpt lat="46.191950971260667" lon="5.2165009919554">
        <ele>249.12</ele>
        <time>2025-04-24T08:21:23Z</time>
      </trkpt>
      <trkpt lat="46.192078962922096" lon="5.217412021011114">
        <ele>250.56</ele>
        <time>2025-04-24T08:21:31Z</time>
      </trkpt>
      <trkpt lat="46.192156998440623" lon="5.218632007017732">
        <ele>251.03999999999999</ele>
        <time>2025-04-24T08:21:39Z</time>
      </trkpt>
      <trkpt lat="46.192287001758814" lon="5.220328001305461">
        <ele>252.47999999999999</ele>
        <time>2025-04-24T08:21:50Z</time>
      </trkpt>
      <trkpt lat="46.192336035892367" lon="5.220636036247015">
        <ele>252</ele>
        <time>2025-04-24T08:21:56Z</time>
      </trkpt>
      <trkpt lat="46.192355984821916" lon="5.220703007653356">
        <ele>251.52000000000001</ele>
        <time>2025-04-24T08:22:02Z</time>
      </trkpt>
      <trkpt lat="46.192381968721747" lon="5.220780037343502">
        <ele>251.03999999999999</ele>
        <time>2025-04-24T08:22:03Z</time>
      </trkpt>
      <trkpt lat="46.192417005077004" lon="5.220804009586573">
        <ele>251.03999999999999</ele>
        <time>2025-04-24T08:22:04Z</time>
      </trkpt>
      <trkpt lat="46.192510966211557" lon="5.220866035670042">
        <ele>250.56</ele>
        <time>2025-04-24T08:22:06Z</time>
      </trkpt>
      <trkpt lat="46.192510966211557" lon="5.220866035670042">
        <ele>250.56</ele>
        <time>2025-04-24T08:22:07Z</time>
      </trkpt>
      <trkpt lat="46.192553965374827" lon="5.221059992909432">
        <ele>250.08000000000001</ele>
        <time>2025-04-24T08:22:08Z</time>
      </trkpt>
      <trkpt lat="46.192533010616899" lon="5.221132999286056">
        <ele>249.59999999999999</ele>
        <time>2025-04-24T08:22:09Z</time>
      </trkpt>
      <trkpt lat="46.192510966211557" lon="5.221210028976202">
        <ele>249.12</ele>
        <time>2025-04-24T08:22:10Z</time>
      </trkpt>
      <trkpt lat="46.192510966211557" lon="5.221323017030954">
        <ele>248.63999999999999</ele>
        <time>2025-04-24T08:22:11Z</time>
      </trkpt>
      <trkpt lat="46.192525969818234" lon="5.221424018964171">
        <ele>248.16</ele>
        <time>2025-04-24T08:22:12Z</time>
      </trkpt>
      <trkpt lat="46.192552959546447" lon="5.221531977877021">
        <ele>248.16</ele>
        <time>2025-04-24T08:22:13Z</time>
      </trkpt>
      <trkpt lat="46.19257902726531" lon="5.221642032265663">
        <ele>247.68000000000001</ele>
        <time>2025-04-24T08:22:14Z</time>
      </trkpt>
      <trkpt lat="46.19266502559185" lon="5.221994994208217">
        <ele>246.22999999999999</ele>
        <time>2025-04-24T08:22:17Z</time>
      </trkpt>
      <trkpt lat="46.192999966442585" lon="5.223374990746379">
        <ele>238.53999999999999</ele>
        <time>2025-04-24T08:22:30Z</time>
      </trkpt>
      <trkpt lat="46.193392993882298" lon="5.224539991468191">
        <ele>235.66</ele>
        <time>2025-04-24T08:22:42Z</time>
      </trkpt>
      <trkpt lat="46.193541018292308" lon="5.224856995046139">
        <ele>235.18000000000001</ele>
        <time>2025-04-24T08:22:48Z</time>
      </trkpt>
      <trkpt lat="46.193550992757082" lon="5.225055981427431">
        <ele>235.66</ele>
        <time>2025-04-24T08:22:49Z</time>
      </trkpt>
      <trkpt lat="46.193604972213507" lon="5.225082971155644">
        <ele>235.66</ele>
        <time>2025-04-24T08:22:50Z</time>
      </trkpt>
      <trkpt lat="46.193690970540047" lon="5.224985992535949">
        <ele>235.66</ele>
        <time>2025-04-24T08:22:51Z</time>
      </trkpt>
      <trkpt lat="46.193751990795135" lon="5.224994961172342">
        <ele>235.66</ele>
        <time>2025-04-24T08:22:52Z</time>
      </trkpt>
      <trkpt lat="46.19423596188426" lon="5.225066039711237">
        <ele>234.69999999999999</ele>
        <time>2025-04-24T08:22:58Z</time>
      </trkpt>
      <trkpt lat="46.194401001557708" lon="5.225090011954308">
        <ele>233.74000000000001</ele>
        <time>2025-04-24T08:23:00Z</time>
      </trkpt>
      <trkpt lat="46.195182027295232" lon="5.225206017494202">
        <ele>235.66</ele>
        <time>2025-04-24T08:23:08Z</time>
      </trkpt>
      <trkpt lat="46.195250004529953" lon="5.225219009444118">
        <ele>236.13999999999999</ele>
        <time>2025-04-24T08:23:09Z</time>
      </trkpt>
      <trkpt lat="46.195297027006745" lon="5.225226972252131">
        <ele>236.62</ele>
        <time>2025-04-24T08:23:10Z</time>
      </trkpt>
      <trkpt lat="46.195379002019763" lon="5.225328980013728">
        <ele>237.09999999999999</ele>
        <time>2025-04-24T08:23:11Z</time>
      </trkpt>
      <trkpt lat="46.19537397287786" lon="5.22539502941072">
        <ele>237.09999999999999</ele>
        <time>2025-04-24T08:23:12Z</time>
      </trkpt>
      <trkpt lat="46.195368021726608" lon="5.22548102773726">
        <ele>237.58000000000001</ele>
        <time>2025-04-24T08:23:13Z</time>
      </trkpt>
      <trkpt lat="46.195365004241467" lon="5.225573983043432">
        <ele>237.58000000000001</ele>
        <time>2025-04-24T08:23:14Z</time>
      </trkpt>
      <trkpt lat="46.195365004241467" lon="5.225685965269804">
        <ele>238.06</ele>
        <time>2025-04-24T08:23:15Z</time>
      </trkpt>
      <trkpt lat="46.195322005078197" lon="5.227024974301457">
        <ele>236.62</ele>
        <time>2025-04-24T08:23:24Z</time>
      </trkpt>
      <trkpt lat="46.195272970944643" lon="5.228356020525098">
        <ele>235.18000000000001</ele>
        <time>2025-04-24T08:23:33Z</time>
      </trkpt>
      <trkpt lat="46.195259978994727" lon="5.228803027421236">
        <ele>234.22</ele>
        <time>2025-04-24T08:23:37Z</time>
      </trkpt>
      <trkpt lat="46.195107009261847" lon="5.229624034836888">
        <ele>233.74000000000001</ele>
        <time>2025-04-24T08:23:45Z</time>
      </trkpt>
      <trkpt lat="46.195147996768355" lon="5.229740040376782">
        <ele>233.74000000000001</ele>
        <time>2025-04-24T08:23:46Z</time>
      </trkpt>
      <trkpt lat="46.195197030901909" lon="5.229787984862924">
        <ele>233.74000000000001</ele>
        <time>2025-04-24T08:23:47Z</time>
      </trkpt>
      <trkpt lat="46.195269031450152" lon="5.229792008176446">
        <ele>234.22</ele>
        <time>2025-04-24T08:23:48Z</time>
      </trkpt>
      <trkpt lat="46.195299960672855" lon="5.229770969599485">
        <ele>234.22</ele>
        <time>2025-04-24T08:23:49Z</time>
      </trkpt>
      <trkpt lat="46.195311024785042" lon="5.229681031778455">
        <ele>234.69999999999999</ele>
        <time>2025-04-24T08:23:50Z</time>
      </trkpt>
      <trkpt lat="46.195322005078197" lon="5.229599978774786">
        <ele>234.69999999999999</ele>
        <time>2025-04-24T08:23:51Z</time>
      </trkpt>
      <trkpt lat="46.195322005078197" lon="5.229553962126374">
        <ele>234.69999999999999</ele>
        <time>2025-04-24T08:23:52Z</time>
      </trkpt>
      <trkpt lat="46.195322005078197" lon="5.229535019025207">
        <ele>234.69999999999999</ele>
        <time>2025-04-24T08:23:53Z</time>
      </trkpt>
      <trkpt lat="46.195236006751657" lon="5.229366039857268">
        <ele>235.18000000000001</ele>
        <time>2025-04-24T08:23:55Z</time>
      </trkpt>
      <trkpt lat="46.195236006751657" lon="5.229298984631896">
        <ele>235.66</ele>
        <time>2025-04-24T08:23:56Z</time>
      </trkpt>
      <trkpt lat="46.195236006751657" lon="5.22922296077013">
        <ele>235.66</ele>
        <time>2025-04-24T08:23:57Z</time>
      </trkpt>
      <trkpt lat="46.195236006751657" lon="5.229142997413874">
        <ele>236.13999999999999</ele>
        <time>2025-04-24T08:23:58Z</time>
      </trkpt>
      <trkpt lat="46.195242963731289" lon="5.229061022400856">
        <ele>236.13999999999999</ele>
        <time>2025-04-24T08:23:59Z</time>
      </trkpt>
      <trkpt lat="46.195273976773024" lon="5.22829600609839">
        <ele>237.09999999999999</ele>
        <time>2025-04-24T08:24:09Z</time>
      </trkpt>
      <trkpt lat="46.195279005914927" lon="5.228140018880367">
        <ele>237.58000000000001</ele>
        <time>2025-04-24T08:24:13Z</time>
      </trkpt>
      <trkpt lat="46.195279005914927" lon="5.228135995566845">
        <ele>237.58000000000001</ele>
        <time>2025-04-24T08:24:14Z</time>
      </trkpt>
      <trkpt lat="46.195278000086546" lon="5.228164996951819">
        <ele>237.09999999999999</ele>
        <time>2025-04-24T08:24:17Z</time>
      </trkpt>
      <trkpt lat="46.195276994258165" lon="5.228200033307076">
        <ele>236.62</ele>
        <time>2025-04-24T08:24:18Z</time>
      </trkpt>
      <trkpt lat="46.195275988429785" lon="5.22823297418654">
        <ele>236.62</ele>
        <time>2025-04-24T08:24:19Z</time>
      </trkpt>
      <trkpt lat="46.195274982601404" lon="5.228263987228274">
        <ele>236.13999999999999</ele>
        <time>2025-04-24T08:24:20Z</time>
      </trkpt>
      <trkpt lat="46.195273976773024" lon="5.228290976956487">
        <ele>235.66</ele>
        <time>2025-04-24T08:24:21Z</time>
      </trkpt>
      <trkpt lat="46.195273976773024" lon="5.228314027190208">
        <ele>235.66</ele>
        <time>2025-04-24T08:24:22Z</time>
      </trkpt>
      <trkpt lat="46.195272970944643" lon="5.228330958634615">
        <ele>235.66</ele>
        <time>2025-04-24T08:24:23Z</time>
      </trkpt>
      <trkpt lat="46.195272970944643" lon="5.228349985554814">
        <ele>235.66</ele>
        <time>2025-04-24T08:24:24Z</time>
      </trkpt>
      <trkpt lat="46.195515040308237" lon="5.228441013023257">
        <ele>235.66</ele>
        <time>2025-04-24T08:24:25Z</time>
      </trkpt>
      <trkpt lat="46.195515040308237" lon="5.228441013023257">
        <ele>235.66</ele>
        <time>2025-04-24T08:24:26Z</time>
      </trkpt>
      <trkpt lat="46.195515040308237" lon="5.228441013023257">
        <ele>235.66</ele>
        <time>2025-04-24T08:24:27Z</time>
      </trkpt>
      <trkpt lat="46.195528032258153" lon="5.228441013023257">
        <ele>235.18000000000001</ele>
        <time>2025-04-24T08:24:28Z</time>
      </trkpt>
      <trkpt lat="46.195562984794378" lon="5.228444030508399">
        <ele>235.18000000000001</ele>
        <time>2025-04-24T08:24:29Z</time>
      </trkpt>
      <trkpt lat="46.195587962865829" lon="5.22844503633678">
        <ele>235.18000000000001</ele>
        <time>2025-04-24T08:24:30Z</time>
      </trkpt>
      <trkpt lat="46.195607995614409" lon="5.228446964174509">
        <ele>235.18000000000001</ele>
        <time>2025-04-24T08:24:31Z</time>
      </trkpt>
      <trkpt lat="46.195624005049467" lon="5.22844797000289">
        <ele>235.18000000000001</ele>
        <time>2025-04-24T08:24:32Z</time>
      </trkpt>
      <trkpt lat="46.195636996999383" lon="5.22844897583127">
        <ele>235.18000000000001</ele>
        <time>2025-04-24T08:24:33Z</time>
      </trkpt>
      <trkpt lat="46.195636996999383" lon="5.22844897583127">
        <ele>235.18000000000001</ele>
        <time>2025-04-24T08:24:47Z</time>
      </trkpt>
      <trkpt lat="46.195636996999383" lon="5.22844897583127">
        <ele>235.18000000000001</ele>
        <time>2025-04-24T08:24:58Z</time>
      </trkpt>
      <trkpt lat="46.19576096534729" lon="5.228456016629934">
        <ele>237.09999999999999</ele>
        <time>2025-04-24T08:25:02Z</time>
      </trkpt>
      <trkpt lat="46.195794995874166" lon="5.228459034115076">
        <ele>237.58000000000001</ele>
        <time>2025-04-24T08:25:03Z</time>
      </trkpt>
      <trkpt lat="46.196095990017056" lon="5.228477977216244">
        <ele>238.53999999999999</ele>
        <time>2025-04-24T08:25:15Z</time>
      </trkpt>
      <trkpt lat="46.196269998326898" lon="5.22848904132843">
        <ele>237.58000000000001</ele>
        <time>2025-04-24T08:25:24Z</time>
      </trkpt>
      <trkpt lat="46.196269998326898" lon="5.22848904132843">
        <ele>237.58000000000001</ele>
        <time>2025-04-24T08:25:25Z</time>
      </trkpt>
      <trkpt lat="46.196269998326898" lon="5.22848904132843">
        <ele>237.09999999999999</ele>
        <time>2025-04-24T08:25:40Z</time>
      </trkpt>
      <trkpt lat="46.196269998326898" lon="5.22848904132843">
        <ele>237.09999999999999</ele>
        <time>2025-04-24T08:25:57Z</time>
      </trkpt>
      <trkpt lat="46.196272009983659" lon="5.22848904132843">
        <ele>237.09999999999999</ele>
        <time>2025-04-24T08:26:04Z</time>
      </trkpt>
      <trkpt lat="46.196019966155291" lon="5.228543020784855">
        <ele>220.28</ele>
        <time>2025-04-24T09:04:25Z</time>
      </trkpt>
      <trkpt lat="46.196285001933575" lon="5.228473031893373">
        <ele>241.43000000000001</ele>
        <time>2025-04-24T09:04:56Z</time>
      </trkpt>
      <trkpt lat="46.196283996105194" lon="5.228454004973173">
        <ele>241.43000000000001</ele>
        <time>2025-04-24T09:05:37Z</time>
      </trkpt>
      <trkpt lat="46.196326995268464" lon="5.228509996086359">
        <ele>245.75</ele>
        <time>2025-04-24T09:06:07Z</time>
      </trkpt>
      <trkpt lat="46.196233034133911" lon="5.228483006358147">
        <ele>247.19999999999999</ele>
        <time>2025-04-24T09:06:20Z</time>
      </trkpt>
      <trkpt lat="46.195916030555964" lon="5.228465991094708">
        <ele>246.22999999999999</ele>
        <time>2025-04-24T09:06:29Z</time>
      </trkpt>
      <trkpt lat="46.195515040308237" lon="5.228441013023257">
        <ele>244.31</ele>
        <time>2025-04-24T09:06:39Z</time>
      </trkpt>
      <trkpt lat="46.195472963154316" lon="5.228349985554814">
        <ele>244.31</ele>
        <time>2025-04-24T09:06:40Z</time>
      </trkpt>
      <trkpt lat="46.195447985082865" lon="5.22829600609839">
        <ele>244.31</ele>
        <time>2025-04-24T09:06:41Z</time>
      </trkpt>
      <trkpt lat="46.195425018668175" lon="5.228245966136456">
        <ele>243.83000000000001</ele>
        <time>2025-04-24T09:06:42Z</time>
      </trkpt>
      <trkpt lat="46.195402974262834" lon="5.228199027478695">
        <ele>243.83000000000001</ele>
        <time>2025-04-24T09:06:43Z</time>
      </trkpt>
      <trkpt lat="46.195380007848144" lon="5.228160973638296">
        <ele>243.83000000000001</ele>
        <time>2025-04-24T09:06:44Z</time>
      </trkpt>
      <trkpt lat="46.195353018119931" lon="5.228155022487044">
        <ele>243.34999999999999</ele>
        <time>2025-04-24T09:06:45Z</time>
      </trkpt>
      <trkpt lat="46.195286968722939" lon="5.228055026382208">
        <ele>242.87</ele>
        <time>2025-04-24T09:06:47Z</time>
      </trkpt>
      <trkpt lat="46.195299960672855" lon="5.227926028892398">
        <ele>243.34999999999999</ele>
        <time>2025-04-24T09:06:48Z</time>
      </trkpt>
      <trkpt lat="46.195299960672855" lon="5.227870959788561">
        <ele>243.34999999999999</ele>
        <time>2025-04-24T09:06:49Z</time>
      </trkpt>
      <trkpt lat="46.195325022563338" lon="5.22664200514555">
        <ele>245.27000000000001</ele>
        <time>2025-04-24T09:06:58Z</time>
      </trkpt>
      <trkpt lat="46.195406997576356" lon="5.224962020292878">
        <ele>248.16</ele>
        <time>2025-04-24T09:07:09Z</time>
      </trkpt>
      <trkpt lat="46.195563990622759" lon="5.223142979666591">
        <ele>252.47999999999999</ele>
        <time>2025-04-24T09:07:20Z</time>
      </trkpt>
      <trkpt lat="46.195725006982684" lon="5.221167029812932">
        <ele>253.93000000000001</ele>
        <time>2025-04-24T09:07:32Z</time>
      </trkpt>
      <trkpt lat="46.195890968665481" lon="5.219500958919525">
        <ele>255.84999999999999</ele>
        <time>2025-04-24T09:07:44Z</time>
      </trkpt>
      <trkpt lat="46.195901026949286" lon="5.218569980934262">
        <ele>257.76999999999998</ele>
        <time>2025-04-24T09:07:50Z</time>
      </trkpt>
      <trkpt lat="46.195875965058804" lon="5.218445006757975">
        <ele>258.25</ele>
        <time>2025-04-24T09:07:51Z</time>
      </trkpt>
      <trkpt lat="46.195847969502211" lon="5.218334030359983">
        <ele>258.25</ele>
        <time>2025-04-24T09:07:52Z</time>
      </trkpt>
      <trkpt lat="46.195769011974335" lon="5.218108976259828">
        <ele>258.73000000000002</ele>
        <time>2025-04-24T09:07:54Z</time>
      </trkpt>
      <trkpt lat="46.195762977004051" lon="5.217999005690217">
        <ele>258.73000000000002</ele>
        <time>2025-04-24T09:07:55Z</time>
      </trkpt>
      <trkpt lat="46.195757025852799" lon="5.217899009585381">
        <ele>258.73000000000002</ele>
        <time>2025-04-24T09:07:56Z</time>
      </trkpt>
      <trkpt lat="46.195750990882516" lon="5.217798007652164">
        <ele>258.25</ele>
        <time>2025-04-24T09:07:57Z</time>
      </trkpt>
      <trkpt lat="46.195750990882516" lon="5.217711003497243">
        <ele>258.25</ele>
        <time>2025-04-24T09:07:58Z</time>
      </trkpt>
      <trkpt lat="46.195750990882516" lon="5.2176199760288">
        <ele>258.25</ele>
        <time>2025-04-24T09:07:59Z</time>
      </trkpt>
      <trkpt lat="46.195757025852799" lon="5.217522997409105">
        <ele>258.25</ele>
        <time>2025-04-24T09:08:00Z</time>
      </trkpt>
      <trkpt lat="46.195869008079171" lon="5.216795029118657">
        <ele>258.25</ele>
        <time>2025-04-24T09:08:08Z</time>
      </trkpt>
      <trkpt lat="46.195879988372326" lon="5.216725040227175">
        <ele>258.73000000000002</ele>
        <time>2025-04-24T09:08:09Z</time>
      </trkpt>
      <trkpt lat="46.195879988372326" lon="5.216725040227175">
        <ele>258.73000000000002</ele>
        <time>2025-04-24T09:08:10Z</time>
      </trkpt>
      <trkpt lat="46.195949977263808" lon="5.216528987511993">
        <ele>258.73000000000002</ele>
        <time>2025-04-24T09:08:11Z</time>
      </trkpt>
      <trkpt lat="46.195944026112556" lon="5.216509960591793">
        <ele>258.25</ele>
        <time>2025-04-24T09:08:12Z</time>
      </trkpt>
      <trkpt lat="46.195836989209056" lon="5.216412981972098">
        <ele>258.25</ele>
        <time>2025-04-24T09:08:13Z</time>
      </trkpt>
      <trkpt lat="46.195797007530928" lon="5.21630996838212">
        <ele>258.73000000000002</ele>
        <time>2025-04-24T09:08:14Z</time>
      </trkpt>
      <trkpt lat="46.195750990882516" lon="5.216193040832877">
        <ele>258.25</ele>
        <time>2025-04-24T09:08:15Z</time>
      </trkpt>
      <trkpt lat="46.195700028911233" lon="5.216063959524036">
        <ele>258.25</ele>
        <time>2025-04-24T09:08:16Z</time>
      </trkpt>
      <trkpt lat="46.195647977292538" lon="5.215931022539735">
        <ele>258.25</ele>
        <time>2025-04-24T09:08:17Z</time>
      </trkpt>
      <trkpt lat="46.195164006203413" lon="5.215004989877343">
        <ele>257.76999999999998</ele>
        <time>2025-04-24T09:08:25Z</time>
      </trkpt>
      <trkpt lat="46.195089993998408" lon="5.214912034571171">
        <ele>257.76999999999998</ele>
        <time>2025-04-24T09:08:26Z</time>
      </trkpt>
      <trkpt lat="46.195017993450165" lon="5.214822012931109">
        <ele>257.76999999999998</ele>
        <time>2025-04-24T09:08:27Z</time>
      </trkpt>
      <trkpt lat="46.194032030180097" lon="5.214058002457023">
        <ele>257.29000000000002</ele>
        <time>2025-04-24T09:08:38Z</time>
      </trkpt>
      <trkpt lat="46.192969037219882" lon="5.213251998648047">
        <ele>255.84999999999999</ele>
        <time>2025-04-24T09:08:50Z</time>
      </trkpt>
      <trkpt lat="46.192078040912747" lon="5.212573986500502">
        <ele>252.96000000000001</ele>
        <time>2025-04-24T09:09:02Z</time>
      </trkpt>
      <trkpt lat="46.191961029544473" lon="5.212496034801006">
        <ele>252.47999999999999</ele>
        <time>2025-04-24T09:09:04Z</time>
      </trkpt>
      <trkpt lat="46.191907972097397" lon="5.212460998445749">
        <ele>252</ele>
        <time>2025-04-24T09:09:05Z</time>
      </trkpt>
      <trkpt lat="46.19189003482461" lon="5.212325965985656">
        <ele>251.52000000000001</ele>
        <time>2025-04-24T09:09:06Z</time>
      </trkpt>
      <trkpt lat="46.191906966269016" lon="5.212242985144258">
        <ele>251.03999999999999</ele>
        <time>2025-04-24T09:09:07Z</time>
      </trkpt>
      <trkpt lat="46.191928004845977" lon="5.212145000696182">
        <ele>251.03999999999999</ele>
        <time>2025-04-24T09:09:08Z</time>
      </trkpt>
      <trkpt lat="46.191952982917428" lon="5.211752979084849">
        <ele>250.08000000000001</ele>
        <time>2025-04-24T09:09:11Z</time>
      </trkpt>
      <trkpt lat="46.191952982917428" lon="5.210478007793427">
        <ele>247.19999999999999</ele>
        <time>2025-04-24T09:09:21Z</time>
      </trkpt>
      <trkpt lat="46.191952982917428" lon="5.210395026952028">
        <ele>246.72</ele>
        <time>2025-04-24T09:09:22Z</time>
      </trkpt>
      <trkpt lat="46.191937979310751" lon="5.210297964513302">
        <ele>246.22999999999999</ele>
        <time>2025-04-24T09:09:23Z</time>
      </trkpt>
      <trkpt lat="46.191780986264348" lon="5.209621964022517">
        <ele>244.78999999999999</ele>
        <time>2025-04-24T09:09:30Z</time>
      </trkpt>
      <trkpt lat="46.19169901125133" lon="5.208975970745087">
        <ele>244.31</ele>
        <time>2025-04-24T09:09:37Z</time>
      </trkpt>
      <trkpt lat="46.19167897850275" lon="5.20887597464025">
        <ele>244.31</ele>
        <time>2025-04-24T09:09:38Z</time>
      </trkpt>
      <trkpt lat="46.19163203984499" lon="5.208476996049285">
        <ele>245.75</ele>
        <time>2025-04-24T09:09:42Z</time>
      </trkpt>
      <trkpt lat="46.191539000719786" lon="5.207817004993558">
        <ele>247.68000000000001</ele>
        <time>2025-04-24T09:09:49Z</time>
      </trkpt>
      <trkpt lat="46.191523997113109" lon="5.207720026373863">
        <ele>248.16</ele>
        <time>2025-04-24T09:09:50Z</time>
      </trkpt>
      <trkpt lat="46.191473035141826" lon="5.207389025017619">
        <ele>248.63999999999999</ele>
        <time>2025-04-24T09:09:54Z</time>
      </trkpt>
      <trkpt lat="46.1914639826864" lon="5.207332028076053">
        <ele>249.12</ele>
        <time>2025-04-24T09:09:55Z</time>
      </trkpt>
      <trkpt lat="46.191457025706768" lon="5.207286011427641">
        <ele>249.12</ele>
        <time>2025-04-24T09:09:56Z</time>
      </trkpt>
      <trkpt lat="46.191450990736485" lon="5.207248963415623">
        <ele>249.59999999999999</ele>
        <time>2025-04-24T09:09:57Z</time>
      </trkpt>
      <trkpt lat="46.191450990736485" lon="5.207248963415623">
        <ele>249.59999999999999</ele>
        <time>2025-04-24T09:10:07Z</time>
      </trkpt>
      <trkpt lat="46.191416038200259" lon="5.20702600479126">
        <ele>250.56</ele>
        <time>2025-04-24T09:10:19Z</time>
      </trkpt>
      <trkpt lat="46.191400028765202" lon="5.206050015985966">
        <ele>250.56</ele>
        <time>2025-04-24T09:10:27Z</time>
      </trkpt>
      <trkpt lat="46.191242029890418" lon="5.204715030267835">
        <ele>250.56</ele>
        <time>2025-04-24T09:10:36Z</time>
      </trkpt>
      <trkpt lat="46.191014964133501" lon="5.20345900207758">
        <ele>247.68000000000001</ele>
        <time>2025-04-24T09:10:47Z</time>
      </trkpt>
      <trkpt lat="46.190857971087098" lon="5.20210599526763">
        <ele>248.63999999999999</ele>
        <time>2025-04-24T09:11:00Z</time>
      </trkpt>
      <trkpt lat="46.190844979137182" lon="5.200751982629299">
        <ele>247.68000000000001</ele>
        <time>2025-04-24T09:11:12Z</time>
      </trkpt>
      <trkpt lat="46.19081899523735" lon="5.199697036296129">
        <ele>248.16</ele>
        <time>2025-04-24T09:11:23Z</time>
      </trkpt>
      <trkpt lat="46.190801979973912" lon="5.199392018839717">
        <ele>248.16</ele>
        <time>2025-04-24T09:11:26Z</time>
      </trkpt>
      <trkpt lat="46.19079602882266" lon="5.199283976107836">
        <ele>247.68000000000001</ele>
        <time>2025-04-24T09:11:27Z</time>
      </trkpt>
      <trkpt lat="46.190789993852377" lon="5.199174005538225">
        <ele>248.16</ele>
        <time>2025-04-24T09:11:28Z</time>
      </trkpt>
      <trkpt lat="46.190783958882093" lon="5.199065040796995">
        <ele>248.16</ele>
        <time>2025-04-24T09:11:29Z</time>
      </trkpt>
      <trkpt lat="46.190777001902461" lon="5.198953980579972">
        <ele>248.16</ele>
        <time>2025-04-24T09:11:30Z</time>
      </trkpt>
      <trkpt lat="46.190751018002629" lon="5.197563003748655">
        <ele>247.19999999999999</ele>
        <time>2025-04-24T09:11:42Z</time>
      </trkpt>
      <trkpt lat="46.190765015780926" lon="5.197194032371044">
        <ele>246.72</ele>
        <time>2025-04-24T09:11:45Z</time>
      </trkpt>
      <trkpt lat="46.190779013559222" lon="5.197066040709615">
        <ele>246.22999999999999</ele>
        <time>2025-04-24T09:11:46Z</time>
      </trkpt>
      <trkpt lat="46.190790999680758" lon="5.196944000199437">
        <ele>246.72</ele>
        <time>2025-04-24T09:11:47Z</time>
      </trkpt>
      <trkpt lat="46.190923014655709" lon="5.196897983551025">
        <ele>246.22999999999999</ele>
        <time>2025-04-24T09:11:48Z</time>
      </trkpt>
      <trkpt lat="46.190993003547192" lon="5.196767980232835">
        <ele>246.22999999999999</ele>
        <time>2025-04-24T09:11:49Z</time>
      </trkpt>
      <trkpt lat="46.191005995497108" lon="5.196664966642857">
        <ele>246.22999999999999</ele>
        <time>2025-04-24T09:11:50Z</time>
      </trkpt>
      <trkpt lat="46.190938018262386" lon="5.19651803188026">
        <ele>245.75</ele>
        <time>2025-04-24T09:11:51Z</time>
      </trkpt>
      <trkpt lat="46.190851014107466" lon="5.196490036323667">
        <ele>245.27000000000001</ele>
        <time>2025-04-24T09:11:52Z</time>
      </trkpt>
      <trkpt lat="46.19077599607408" lon="5.196490036323667">
        <ele>244.78999999999999</ele>
        <time>2025-04-24T09:11:53Z</time>
      </trkpt>
      <trkpt lat="46.190721010789275" lon="5.196530018001795">
        <ele>244.31</ele>
        <time>2025-04-24T09:11:54Z</time>
      </trkpt>
      <trkpt lat="46.190614979714155" lon="5.196565976366401">
        <ele>244.31</ele>
        <time>2025-04-24T09:11:55Z</time>
      </trkpt>
      <trkpt lat="46.190522024407983" lon="5.196552984416485">
        <ele>243.83000000000001</ele>
        <time>2025-04-24T09:11:56Z</time>
      </trkpt>
      <trkpt lat="46.19041096419096" lon="5.196536974981427">
        <ele>243.34999999999999</ele>
        <time>2025-04-24T09:11:57Z</time>
      </trkpt>
      <trkpt lat="46.190292024984956" lon="5.196462962776423">
        <ele>243.34999999999999</ele>
        <time>2025-04-24T09:11:58Z</time>
      </trkpt>
      <trkpt lat="46.190169984474778" lon="5.196373024955392">
        <ele>242.87</ele>
        <time>2025-04-24T09:11:59Z</time>
      </trkpt>
      <trkpt lat="46.190038975328207" lon="5.196276968345046">
        <ele>242.38999999999999</ele>
        <time>2025-04-24T09:12:00Z</time>
      </trkpt>
      <trkpt lat="46.189892962574959" lon="5.196168003603816">
        <ele>241.91</ele>
        <time>2025-04-24T09:12:01Z</time>
      </trkpt>
      <trkpt lat="46.189768994227052" lon="5.196019979193807">
        <ele>241.43000000000001</ele>
        <time>2025-04-24T09:12:02Z</time>
      </trkpt>
      <trkpt lat="46.189638990908861" lon="5.195847982540727">
        <ele>241.43000000000001</ele>
        <time>2025-04-24T09:12:03Z</time>
      </trkpt>
      <trkpt lat="46.189517034217715" lon="5.195652013644576">
        <ele>240.94999999999999</ele>
        <time>2025-04-24T09:12:04Z</time>
      </trkpt>
      <trkpt lat="46.189395999535918" lon="5.195446992293">
        <ele>239.99000000000001</ele>
        <time>2025-04-24T09:12:05Z</time>
      </trkpt>
      <trkpt lat="46.188869029283524" lon="5.194621961563826">
        <ele>236.62</ele>
        <time>2025-04-24T09:12:09Z</time>
      </trkpt>
      <trkpt lat="46.188725028187037" lon="5.194448037073016">
        <ele>235.66</ele>
        <time>2025-04-24T09:12:10Z</time>
      </trkpt>
      <trkpt lat="46.188565017655492" lon="5.194299006834626">
        <ele>234.69999999999999</ele>
        <time>2025-04-24T09:12:11Z</time>
      </trkpt>
      <trkpt lat="46.188407018780708" lon="5.194152994081378">
        <ele>234.22</ele>
        <time>2025-04-24T09:12:12Z</time>
      </trkpt>
      <trkpt lat="46.188252037391067" lon="5.194008992984891">
        <ele>233.25999999999999</ele>
        <time>2025-04-24T09:12:13Z</time>
      </trkpt>
      <trkpt lat="46.188094960525632" lon="5.193902039900422">
        <ele>232.78</ele>
        <time>2025-04-24T09:12:14Z</time>
      </trkpt>
      <trkpt lat="46.187928998842835" lon="5.193793997168541">
        <ele>232.30000000000001</ele>
        <time>2025-04-24T09:12:15Z</time>
      </trkpt>
      <trkpt lat="46.18776798248291" lon="5.193740017712116">
        <ele>231.33000000000001</ele>
        <time>2025-04-24T09:12:16Z</time>
      </trkpt>
      <trkpt lat="46.187597997486591" lon="5.193707998842001">
        <ele>230.84999999999999</ele>
        <time>2025-04-24T09:12:17Z</time>
      </trkpt>
      <trkpt lat="46.18742398917675" lon="5.193675979971886">
        <ele>230.37</ele>
        <time>2025-04-24T09:12:18Z</time>
      </trkpt>
      <trkpt lat="46.187252998352051" lon="5.19364396110177">
        <ele>230.37</ele>
        <time>2025-04-24T09:12:19Z</time>
      </trkpt>
      <trkpt lat="46.187087036669254" lon="5.193645972758532">
        <ele>229.88999999999999</ele>
        <time>2025-04-24T09:12:20Z</time>
      </trkpt>
      <trkpt lat="46.185764037072659" lon="5.194064984098077">
        <ele>227.49000000000001</ele>
        <time>2025-04-24T09:12:28Z</time>
      </trkpt>
      <trkpt lat="46.184012973681092" lon="5.194793958216906">
        <ele>225.09</ele>
        <time>2025-04-24T09:12:38Z</time>
      </trkpt>
      <trkpt lat="46.182615961879492" lon="5.194925973191857">
        <ele>224.61000000000001</ele>
        <time>2025-04-24T09:12:45Z</time>
      </trkpt>
      <trkpt lat="46.180171966552734" lon="5.194746013730764">
        <ele>228.93000000000001</ele>
        <time>2025-04-24T09:12:57Z</time>
      </trkpt>
      <trkpt lat="46.179404016584158" lon="5.194708965718746">
        <ele>229.88999999999999</ele>
        <time>2025-04-24T09:13:01Z</time>
      </trkpt>
      <trkpt lat="46.179219027981162" lon="5.194677030667663">
        <ele>230.37</ele>
        <time>2025-04-24T09:13:02Z</time>
      </trkpt>
      <trkpt lat="46.179034961387515" lon="5.194645011797547">
        <ele>230.84999999999999</ele>
        <time>2025-04-24T09:13:03Z</time>
      </trkpt>
      <trkpt lat="46.178857013583183" lon="5.194573011249304">
        <ele>231.33000000000001</ele>
        <time>2025-04-24T09:13:04Z</time>
      </trkpt>
      <trkpt lat="46.178675964474678" lon="5.19450000487268">
        <ele>231.81</ele>
        <time>2025-04-24T09:13:05Z</time>
      </trkpt>
      <trkpt lat="46.176117975264788" lon="5.193411028012633">
        <ele>243.34999999999999</ele>
        <time>2025-04-24T09:13:19Z</time>
      </trkpt>
      <trkpt lat="46.173536013811827" lon="5.192289026454091">
        <ele>244.78999999999999</ele>
        <time>2025-04-24T09:13:33Z</time>
      </trkpt>
      <trkpt lat="46.170568987727165" lon="5.190996034070849">
        <ele>247.68000000000001</ele>
        <time>2025-04-24T09:13:50Z</time>
      </trkpt>
      <trkpt lat="46.169965993613005" lon="5.190777014940977">
        <ele>248.63999999999999</ele>
        <time>2025-04-24T09:13:55Z</time>
      </trkpt>
      <trkpt lat="46.169897010549903" lon="5.190759999677539">
        <ele>249.12</ele>
        <time>2025-04-24T09:13:56Z</time>
      </trkpt>
      <trkpt lat="46.169819980859756" lon="5.190557995811105">
        <ele>249.12</ele>
        <time>2025-04-24T09:13:57Z</time>
      </trkpt>
      <trkpt lat="46.169830039143562" lon="5.190395973622799">
        <ele>249.12</ele>
        <time>2025-04-24T09:13:58Z</time>
      </trkpt>
      <trkpt lat="46.169833978638053" lon="5.190275022760034">
        <ele>249.12</ele>
        <time>2025-04-24T09:13:59Z</time>
      </trkpt>
      <trkpt lat="46.169865997508168" lon="5.188701990991831">
        <ele>246.72</ele>
        <time>2025-04-24T09:14:06Z</time>
      </trkpt>
      <trkpt lat="46.169891981408" lon="5.18573303706944">
        <ele>243.34999999999999</ele>
        <time>2025-04-24T09:14:17Z</time>
      </trkpt>
      <trkpt lat="46.169859040528536" lon="5.185509994626045">
        <ele>242.38999999999999</ele>
        <time>2025-04-24T09:14:18Z</time>
      </trkpt>
      <trkpt lat="46.169782010838389" lon="5.185310002416372">
        <ele>241.91</ele>
        <time>2025-04-24T09:14:19Z</time>
      </trkpt>
      <trkpt lat="46.169683020561934" lon="5.185129037126899">
        <ele>241.43000000000001</ele>
        <time>2025-04-24T09:14:20Z</time>
      </trkpt>
      <trkpt lat="46.169562991708517" lon="5.184965003281832">
        <ele>240.94999999999999</ele>
        <time>2025-04-24T09:14:21Z</time>
      </trkpt>
      <trkpt lat="46.169436005875468" lon="5.184792000800371">
        <ele>239.99000000000001</ele>
        <time>2025-04-24T09:14:22Z</time>
      </trkpt>
      <trkpt lat="46.169300973415375" lon="5.184609023854137">
        <ele>239.02000000000001</ele>
        <time>2025-04-24T09:14:23Z</time>
      </trkpt>
      <trkpt lat="46.169173987582326" lon="5.184419006109238">
        <ele>238.06</ele>
        <time>2025-04-24T09:14:24Z</time>
      </trkpt>
      <trkpt lat="46.169087989255786" lon="5.184179032221437">
        <ele>236.62</ele>
        <time>2025-04-24T09:14:25Z</time>
      </trkpt>
      <trkpt lat="46.168993022292852" lon="5.183916008099914">
        <ele>235.66</ele>
        <time>2025-04-24T09:14:26Z</time>
      </trkpt>
      <trkpt lat="46.168980030342937" lon="5.183663964271545">
        <ele>234.69999999999999</ele>
        <time>2025-04-24T09:14:27Z</time>
      </trkpt>
      <trkpt lat="46.168981036171317" lon="5.183389959856868">
        <ele>233.74000000000001</ele>
        <time>2025-04-24T09:14:28Z</time>
      </trkpt>
      <trkpt lat="46.169007020071149" lon="5.183119978755713">
        <ele>232.78</ele>
        <time>2025-04-24T09:14:29Z</time>
      </trkpt>
      <trkpt lat="46.1690319981426" lon="5.182858966290951">
        <ele>231.81</ele>
        <time>2025-04-24T09:14:30Z</time>
      </trkpt>
      <trkpt lat="46.169106010347605" lon="5.1820810418576">
        <ele>229.41</ele>
        <time>2025-04-24T09:14:33Z</time>
      </trkpt>
      <trkpt lat="46.169113973155618" lon="5.181847019121051">
        <ele>228.93000000000001</ele>
        <time>2025-04-24T09:14:34Z</time>
      </trkpt>
      <trkpt lat="46.169088995084167" lon="5.181620959192514">
        <ele>227.97</ele>
        <time>2025-04-24T09:14:35Z</time>
      </trkpt>
      <trkpt lat="46.169064017012715" lon="5.181398000568152">
        <ele>227.49000000000001</ele>
        <time>2025-04-24T09:14:36Z</time>
      </trkpt>
      <trkpt lat="46.168993022292852" lon="5.181189961731434">
        <ele>227.49000000000001</ele>
        <time>2025-04-24T09:14:37Z</time>
      </trkpt>
      <trkpt lat="46.168895959854126" lon="5.180989969521761">
        <ele>227.49000000000001</ele>
        <time>2025-04-24T09:14:38Z</time>
      </trkpt>
      <trkpt lat="46.168775008991361" lon="5.180804980918765">
        <ele>227.00999999999999</ele>
        <time>2025-04-24T09:14:39Z</time>
      </trkpt>
      <trkpt lat="46.167454021051526" lon="5.178755018860102">
        <ele>232.78</ele>
        <time>2025-04-24T09:14:49Z</time>
      </trkpt>
      <trkpt lat="46.167198959738016" lon="5.178315974771977">
        <ele>234.69999999999999</ele>
        <time>2025-04-24T09:14:51Z</time>
      </trkpt>
      <trkpt lat="46.16673200391233" lon="5.177374016493559">
        <ele>237.58000000000001</ele>
        <time>2025-04-24T09:14:55Z</time>
      </trkpt>
      <trkpt lat="46.166592026129365" lon="5.177170000970364">
        <ele>238.53999999999999</ele>
        <time>2025-04-24T09:14:56Z</time>
      </trkpt>
      <trkpt lat="46.166437966749072" lon="5.176990041509271">
        <ele>239.02000000000001</ele>
        <time>2025-04-24T09:14:57Z</time>
      </trkpt>
      <trkpt lat="46.166269993409514" lon="5.176841011270881">
        <ele>239.50999999999999</ele>
        <time>2025-04-24T09:14:58Z</time>
      </trkpt>
      <trkpt lat="46.166097996756434" lon="5.176702961325645">
        <ele>240.47</ele>
        <time>2025-04-24T09:14:59Z</time>
      </trkpt>
      <trkpt lat="46.165914013981819" lon="5.176606988534331">
        <ele>240.94999999999999</ele>
        <time>2025-04-24T09:15:00Z</time>
      </trkpt>
      <trkpt lat="46.165726007893682" lon="5.176515961065888">
        <ele>241.91</ele>
        <time>2025-04-24T09:15:01Z</time>
      </trkpt>
      <trkpt lat="46.165534984320402" lon="5.176423005759716">
        <ele>242.87</ele>
        <time>2025-04-24T09:15:02Z</time>
      </trkpt>
      <trkpt lat="46.164365960285068" lon="5.17606501467526">
        <ele>248.63999999999999</ele>
        <time>2025-04-24T09:15:08Z</time>
      </trkpt>
      <trkpt lat="46.164180971682072" lon="5.175939034670591">
        <ele>248.63999999999999</ele>
        <time>2025-04-24T09:15:09Z</time>
      </trkpt>
      <trkpt lat="46.162381041795015" lon="5.174603965133429">
        <ele>248.16</ele>
        <time>2025-04-24T09:15:19Z</time>
      </trkpt>
      <trkpt lat="46.161086037755013" lon="5.173480035737157">
        <ele>251.52000000000001</ele>
        <time>2025-04-24T09:15:27Z</time>
      </trkpt>
      <trkpt lat="46.160957040265203" lon="5.173294963315129">
        <ele>252</ele>
        <time>2025-04-24T09:15:28Z</time>
      </trkpt>
      <trkpt lat="46.160855032503605" lon="5.173089019954205">
        <ele>252.96000000000001</ele>
        <time>2025-04-24T09:15:29Z</time>
      </trkpt>
      <trkpt lat="46.160774985328317" lon="5.172862038016319">
        <ele>252.96000000000001</ele>
        <time>2025-04-24T09:15:30Z</time>
      </trkpt>
      <trkpt lat="46.160707008093596" lon="5.172615023329854">
        <ele>253.44</ele>
        <time>2025-04-24T09:15:31Z</time>
      </trkpt>
      <trkpt lat="46.160185988992453" lon="5.170042030513287">
        <ele>251.52000000000001</ele>
        <time>2025-04-24T09:15:40Z</time>
      </trkpt>
      <trkpt lat="46.16000896319747" lon="5.167585965245962">
        <ele>248.16</ele>
        <time>2025-04-24T09:15:48Z</time>
      </trkpt>
      <trkpt lat="46.15983797237277" lon="5.166430016979575">
        <ele>245.75</ele>
        <time>2025-04-24T09:15:52Z</time>
      </trkpt>
      <trkpt lat="46.159747028723359" lon="5.166171016171575">
        <ele>245.27000000000001</ele>
        <time>2025-04-24T09:15:53Z</time>
      </trkpt>
      <trkpt lat="46.159637980163097" lon="5.165926013141871">
        <ele>244.78999999999999</ele>
        <time>2025-04-24T09:15:54Z</time>
      </trkpt>
      <trkpt lat="46.1589540168643" lon="5.164219960570335">
        <ele>242.38999999999999</ele>
        <time>2025-04-24T09:16:01Z</time>
      </trkpt>
      <trkpt lat="46.158038964495063" lon="5.162085006013513">
        <ele>241.43000000000001</ele>
        <time>2025-04-24T09:16:10Z</time>
      </trkpt>
      <trkpt lat="46.157910972833633" lon="5.161876967176795">
        <ele>242.38999999999999</ele>
        <time>2025-04-24T09:16:11Z</time>
      </trkpt>
      <trkpt lat="46.157567985355854" lon="5.161266010254622">
        <ele>245.27000000000001</ele>
        <time>2025-04-24T09:16:14Z</time>
      </trkpt>
      <trkpt lat="46.157491961494088" lon="5.161064006388187">
        <ele>246.22999999999999</ele>
        <time>2025-04-24T09:16:15Z</time>
      </trkpt>
      <trkpt lat="46.157463965937495" lon="5.160817997530103">
        <ele>246.72</ele>
        <time>2025-04-24T09:16:16Z</time>
      </trkpt>
      <trkpt lat="46.157433958724141" lon="5.16055497340858">
        <ele>247.68000000000001</ele>
        <time>2025-04-24T09:16:17Z</time>
      </trkpt>
      <trkpt lat="46.157401017844677" lon="5.160270994529128">
        <ele>248.16</ele>
        <time>2025-04-24T09:16:18Z</time>
      </trkpt>
      <trkpt lat="46.157368998974562" lon="5.159987015649676">
        <ele>248.63999999999999</ele>
        <time>2025-04-24T09:16:19Z</time>
      </trkpt>
      <trkpt lat="46.157333040609956" lon="5.158224971964955">
        <ele>250.56</ele>
        <time>2025-04-24T09:16:25Z</time>
      </trkpt>
      <trkpt lat="46.157434964552522" lon="5.155940987169743">
        <ele>253.44</ele>
        <time>2025-04-24T09:16:33Z</time>
      </trkpt>
      <trkpt lat="46.157200019806623" lon="5.153146041557193">
        <ele>255.37</ele>
        <time>2025-04-24T09:16:43Z</time>
      </trkpt>
      <trkpt lat="46.156902965158224" lon="5.151644004508853">
        <ele>256.81</ele>
        <time>2025-04-24T09:16:49Z</time>
      </trkpt>
      <trkpt lat="46.156816966831684" lon="5.151443006470799">
        <ele>256.81</ele>
        <time>2025-04-24T09:16:50Z</time>
      </trkpt>
      <trkpt lat="46.156725017353892" lon="5.151305962353945">
        <ele>256.81</ele>
        <time>2025-04-24T09:16:51Z</time>
      </trkpt>
      <trkpt lat="46.156622003763914" lon="5.151219964027405">
        <ele>257.29000000000002</ele>
        <time>2025-04-24T09:16:52Z</time>
      </trkpt>
      <trkpt lat="46.156510021537542" lon="5.151163972914219">
        <ele>257.29000000000002</ele>
        <time>2025-04-24T09:16:53Z</time>
      </trkpt>
      <trkpt lat="46.156401978805661" lon="5.151108987629414">
        <ele>257.76999999999998</ele>
        <time>2025-04-24T09:16:54Z</time>
      </trkpt>
      <trkpt lat="46.156225958839059" lon="5.151021983474493">
        <ele>258.25</ele>
        <time>2025-04-24T09:16:56Z</time>
      </trkpt>
      <trkpt lat="46.15613903850317" lon="5.150905977934599">
        <ele>258.25</ele>
        <time>2025-04-24T09:16:57Z</time>
      </trkpt>
      <trkpt lat="46.156096961349249" lon="5.150849986821413">
        <ele>258.25</ele>
        <time>2025-04-24T09:16:58Z</time>
      </trkpt>
      <trkpt lat="46.156107019633055" lon="5.150700034573674">
        <ele>258.73000000000002</ele>
        <time>2025-04-24T09:16:59Z</time>
      </trkpt>
      <trkpt lat="46.156115988269448" lon="5.150568019598723">
        <ele>258.73000000000002</ele>
        <time>2025-04-24T09:17:00Z</time>
      </trkpt>
      <trkpt lat="46.156125962734222" lon="5.150410020723939">
        <ele>258.73000000000002</ele>
        <time>2025-04-24T09:17:01Z</time>
      </trkpt>
      <trkpt lat="46.156138032674789" lon="5.150241041556001">
        <ele>258.73000000000002</ele>
        <time>2025-04-24T09:17:02Z</time>
      </trkpt>
      <trkpt lat="46.15627096965909" lon="5.148663986474276">
        <ele>257.76999999999998</ele>
        <time>2025-04-24T09:17:12Z</time>
      </trkpt>
      <trkpt lat="46.156413964927197" lon="5.147675005719066">
        <ele>257.29000000000002</ele>
        <time>2025-04-24T09:17:19Z</time>
      </trkpt>
      <trkpt lat="46.156437015160918" lon="5.147525975480676">
        <ele>256.81</ele>
        <time>2025-04-24T09:17:20Z</time>
      </trkpt>
      <trkpt lat="46.156602976843715" lon="5.145945986732841">
        <ele>255.84999999999999</ele>
        <time>2025-04-24T09:17:32Z</time>
      </trkpt>
      <trkpt lat="46.156608005985618" lon="5.145801985636354">
        <ele>256.32999999999998</ele>
        <time>2025-04-24T09:17:38Z</time>
      </trkpt>
      <trkpt lat="46.156609011813998" lon="5.145754963159561">
        <ele>256.32999999999998</ele>
        <time>2025-04-24T09:17:39Z</time>
      </trkpt>
      <trkpt lat="46.156628038734198" lon="5.145680028945208">
        <ele>256.32999999999998</ele>
        <time>2025-04-24T09:17:40Z</time>
      </trkpt>
      <trkpt lat="46.156590990722179" lon="5.145679023116827">
        <ele>256.32999999999998</ele>
        <time>2025-04-24T09:17:41Z</time>
      </trkpt>
      <trkpt lat="46.156536005437374" lon="5.145679023116827">
        <ele>256.32999999999998</ele>
        <time>2025-04-24T09:17:42Z</time>
      </trkpt>
      <trkpt lat="46.156466016545892" lon="5.145679023116827">
        <ele>256.32999999999998</ele>
        <time>2025-04-24T09:17:43Z</time>
      </trkpt>
      <trkpt lat="46.156216990202665" lon="5.145672988146544">
        <ele>255.84999999999999</ele>
        <time>2025-04-24T09:17:46Z</time>
      </trkpt>
      <trkpt lat="46.156120011582971" lon="5.145641975104809">
        <ele>255.84999999999999</ele>
        <time>2025-04-24T09:17:47Z</time>
      </trkpt>
      <trkpt lat="46.156035019084811" lon="5.145576009526849">
        <ele>255.84999999999999</ele>
        <time>2025-04-24T09:17:48Z</time>
      </trkpt>
      <trkpt lat="46.155943991616368" lon="5.145506020635366">
        <ele>255.37</ele>
        <time>2025-04-24T09:17:49Z</time>
      </trkpt>
      <trkpt lat="46.155848018825054" lon="5.145427985116839">
        <ele>254.88999999999999</ele>
        <time>2025-04-24T09:17:50Z</time>
      </trkpt>
      <trkpt lat="46.155762020498514" lon="5.145333018153906">
        <ele>254.88999999999999</ele>
        <time>2025-04-24T09:17:51Z</time>
      </trkpt>
      <trkpt lat="46.155675016343594" lon="5.145237967371941">
        <ele>254.88999999999999</ele>
        <time>2025-04-24T09:17:52Z</time>
      </trkpt>
      <trkpt lat="46.155596980825067" lon="5.14510796405375">
        <ele>254.41</ele>
        <time>2025-04-24T09:17:53Z</time>
      </trkpt>
      <trkpt lat="46.155530009418726" lon="5.144974021241069">
        <ele>254.41</ele>
        <time>2025-04-24T09:17:54Z</time>
      </trkpt>
      <trkpt lat="46.15525801666081" lon="5.144480997696519">
        <ele>253.44</ele>
        <time>2025-04-24T09:17:58Z</time>
      </trkpt>
      <trkpt lat="46.155163971707225" lon="5.144374966621399">
        <ele>252.96000000000001</ele>
        <time>2025-04-24T09:17:59Z</time>
      </trkpt>
      <trkpt lat="46.155050983652472" lon="5.144299026578665">
        <ele>252.47999999999999</ele>
        <time>2025-04-24T09:18:00Z</time>
      </trkpt>
      <trkpt lat="46.154918968677521" lon="5.144249992445111">
        <ele>252.96000000000001</ele>
        <time>2025-04-24T09:18:01Z</time>
      </trkpt>
      <trkpt lat="46.154783014208078" lon="5.144186960533261">
        <ele>252.47999999999999</ele>
        <time>2025-04-24T09:18:02Z</time>
      </trkpt>
      <trkpt lat="46.15463599562645" lon="5.144126024097204">
        <ele>252.47999999999999</ele>
        <time>2025-04-24T09:18:03Z</time>
      </trkpt>
      <trkpt lat="46.154481014236808" lon="5.144030973315239">
        <ele>252.47999999999999</ele>
        <time>2025-04-24T09:18:04Z</time>
      </trkpt>
      <trkpt lat="46.153176035732031" lon="5.142918024212122">
        <ele>253.44</ele>
        <time>2025-04-24T09:18:12Z</time>
      </trkpt>
      <trkpt lat="46.153014013543725" lon="5.142823979258537">
        <ele>253.44</ele>
        <time>2025-04-24T09:18:13Z</time>
      </trkpt>
      <trkpt lat="46.152840005233884" lon="5.142774023115635">
        <ele>253.93000000000001</ele>
        <time>2025-04-24T09:18:14Z</time>
      </trkpt>
      <trkpt lat="46.152675971388817" lon="5.142727000638843">
        <ele>254.41</ele>
        <time>2025-04-24T09:18:15Z</time>
      </trkpt>
      <trkpt lat="46.15252903662622" lon="5.142706967890263">
        <ele>254.41</ele>
        <time>2025-04-24T09:18:16Z</time>
      </trkpt>
      <trkpt lat="46.152146989479661" lon="5.142629016190767">
        <ele>254.88999999999999</ele>
        <time>2025-04-24T09:18:19Z</time>
      </trkpt>
      <trkpt lat="46.152042970061302" lon="5.142526002600789">
        <ele>254.88999999999999</ele>
        <time>2025-04-24T09:18:20Z</time>
      </trkpt>
      <trkpt lat="46.15192998200655" lon="5.142413014546037">
        <ele>254.88999999999999</ele>
        <time>2025-04-24T09:18:21Z</time>
      </trkpt>
      <trkpt lat="46.151432013139129" lon="5.14188596047461">
        <ele>256.32999999999998</ele>
        <time>2025-04-24T09:18:27Z</time>
      </trkpt>
      <trkpt lat="46.150905964896083" lon="5.141315991058946">
        <ele>254.41</ele>
        <time>2025-04-24T09:18:33Z</time>
      </trkpt>
      <trkpt lat="46.150358961895108" lon="5.140880970284343">
        <ele>253.44</ele>
        <time>2025-04-24T09:18:37Z</time>
      </trkpt>
      <trkpt lat="46.148244962096214" lon="5.139899030327797">
        <ele>245.27000000000001</ele>
        <time>2025-04-24T09:18:49Z</time>
      </trkpt>
      <trkpt lat="46.146527007222176" lon="5.139263011515141">
        <ele>245.27000000000001</ele>
        <time>2025-04-24T09:19:00Z</time>
      </trkpt>
      <trkpt lat="46.146287033334374" lon="5.139142982661724">
        <ele>245.75</ele>
        <time>2025-04-24T09:19:03Z</time>
      </trkpt>
      <trkpt lat="46.146239005029202" lon="5.139119010418654">
        <ele>245.75</ele>
        <time>2025-04-24T09:19:04Z</time>
      </trkpt>
      <trkpt lat="46.146196005865932" lon="5.139096966013312">
        <ele>245.75</ele>
        <time>2025-04-24T09:19:05Z</time>
      </trkpt>
      <trkpt lat="46.146199023351073" lon="5.13900401070714">
        <ele>245.75</ele>
        <time>2025-04-24T09:19:06Z</time>
      </trkpt>
      <trkpt lat="46.14621302112937" lon="5.138927986845374">
        <ele>245.75</ele>
        <time>2025-04-24T09:19:07Z</time>
      </trkpt>
      <trkpt lat="46.146231964230537" lon="5.138821033760905">
        <ele>246.22999999999999</ele>
        <time>2025-04-24T09:19:08Z</time>
      </trkpt>
      <trkpt lat="46.146259037777781" lon="5.138669991865754">
        <ele>245.75</ele>
        <time>2025-04-24T09:19:09Z</time>
      </trkpt>
      <trkpt lat="46.146280998364091" lon="5.138443009927869">
        <ele>244.78999999999999</ele>
        <time>2025-04-24T09:19:10Z</time>
      </trkpt>
      <trkpt lat="46.146248979493976" lon="5.138279981911182">
        <ele>243.83000000000001</ele>
        <time>2025-04-24T09:19:11Z</time>
      </trkpt>
      <trkpt lat="46.146204974502325" lon="5.13806096278131">
        <ele>243.34999999999999</ele>
        <time>2025-04-24T09:19:12Z</time>
      </trkpt>
      <trkpt lat="46.146138003095984" lon="5.13792802579701">
        <ele>243.34999999999999</ele>
        <time>2025-04-24T09:19:13Z</time>
      </trkpt>
      <trkpt lat="46.146067008376122" lon="5.137785030528903">
        <ele>242.87</ele>
        <time>2025-04-24T09:19:14Z</time>
      </trkpt>
      <trkpt lat="46.145970029756427" lon="5.137590989470482">
        <ele>242.38999999999999</ele>
        <time>2025-04-24T09:19:16Z</time>
      </trkpt>
      <trkpt lat="46.145933987572789" lon="5.137518988922238">
        <ele>241.91</ele>
        <time>2025-04-24T09:19:17Z</time>
      </trkpt>
      <trkpt lat="46.145900962874293" lon="5.137454029172659">
        <ele>241.91</ele>
        <time>2025-04-24T09:19:18Z</time>
      </trkpt>
      <trkpt lat="46.145871039479971" lon="5.137394014745951">
        <ele>241.43000000000001</ele>
        <time>2025-04-24T09:19:19Z</time>
      </trkpt>
      <trkpt lat="46.145839020609856" lon="5.137327965348959">
        <ele>241.43000000000001</ele>
        <time>2025-04-24T09:19:20Z</time>
      </trkpt>
      <trkpt lat="46.145796021446586" lon="5.1372429728508">
        <ele>240.94999999999999</ele>
        <time>2025-04-24T09:19:21Z</time>
      </trkpt>
      <trkpt lat="46.145746987313032" lon="5.137139959260821">
        <ele>240.94999999999999</ele>
        <time>2025-04-24T09:19:22Z</time>
      </trkpt>
      <trkpt lat="46.145689990371466" lon="5.136996963992715">
        <ele>240.94999999999999</ele>
        <time>2025-04-24T09:19:23Z</time>
      </trkpt>
      <trkpt lat="46.145556969568133" lon="5.136659005656838">
        <ele>240.94999999999999</ele>
        <time>2025-04-24T09:19:25Z</time>
      </trkpt>
      <trkpt lat="46.145146004855633" lon="5.13500701636076">
        <ele>240.94999999999999</ele>
        <time>2025-04-24T09:19:32Z</time>
      </trkpt>
      <trkpt lat="46.144894966855645" lon="5.133910998702049">
        <ele>240.47</ele>
        <time>2025-04-24T09:19:36Z</time>
      </trkpt>
      <trkpt lat="46.14466798491776" lon="5.131777971982956">
        <ele>250.56</ele>
        <time>2025-04-24T09:19:44Z</time>
      </trkpt>
      <trkpt lat="46.144544016569853" lon="5.1296809874475">
        <ele>258.73000000000002</ele>
        <time>2025-04-24T09:19:53Z</time>
      </trkpt>
      <trkpt lat="46.144468998536468" lon="5.128617994487286">
        <ele>260.64999999999998</ele>
        <time>2025-04-24T09:19:57Z</time>
      </trkpt>
      <trkpt lat="46.144415019080043" lon="5.128381960093975">
        <ele>261.13999999999999</ele>
        <time>2025-04-24T09:19:58Z</time>
      </trkpt>
      <trkpt lat="46.144353998824954" lon="5.128148021176457">
        <ele>261.13999999999999</ele>
        <time>2025-04-24T09:19:59Z</time>
      </trkpt>
      <trkpt lat="46.143683027476072" lon="5.125999990850687">
        <ele>262.10000000000002</ele>
        <time>2025-04-24T09:20:08Z</time>
      </trkpt>
      <trkpt lat="46.143288994207978" lon="5.12469501234591">
        <ele>260.17000000000002</ele>
        <time>2025-04-24T09:20:14Z</time>
      </trkpt>
      <trkpt lat="46.142849028110504" lon="5.123230023309588">
        <ele>261.13999999999999</ele>
        <time>2025-04-24T09:20:22Z</time>
      </trkpt>
      <trkpt lat="46.14226296544075" lon="5.121292965486646">
        <ele>258.73000000000002</ele>
        <time>2025-04-24T09:20:32Z</time>
      </trkpt>
      <trkpt lat="46.142234969884157" lon="5.121199004352093">
        <ele>258.73000000000002</ele>
        <time>2025-04-24T09:20:33Z</time>
      </trkpt>
      <trkpt lat="46.142200017347932" lon="5.121120968833566">
        <ele>258.73000000000002</ele>
        <time>2025-04-24T09:20:34Z</time>
      </trkpt>
      <trkpt lat="46.142138997092843" lon="5.121074030175805">
        <ele>258.73000000000002</ele>
        <time>2025-04-24T09:20:35Z</time>
      </trkpt>
      <trkpt lat="46.142061967402697" lon="5.121015021577478">
        <ele>258.73000000000002</ele>
        <time>2025-04-24T09:20:36Z</time>
      </trkpt>
      <trkpt lat="46.141968006268144" lon="5.120943021029234">
        <ele>258.73000000000002</ele>
        <time>2025-04-24T09:20:37Z</time>
      </trkpt>
      <trkpt lat="46.141098970547318" lon="5.120280012488365">
        <ele>258.73000000000002</ele>
        <time>2025-04-24T09:20:44Z</time>
      </trkpt>
      <trkpt lat="46.139530967921019" lon="5.119059020653367">
        <ele>260.64999999999998</ele>
        <time>2025-04-24T09:20:55Z</time>
      </trkpt>
      <trkpt lat="46.138652041554451" lon="5.118276989087462">
        <ele>262.57999999999998</ele>
        <time>2025-04-24T09:21:02Z</time>
      </trkpt>
      <trkpt lat="46.138513991609216" lon="5.118217980489135">
        <ele>263.06</ele>
        <time>2025-04-24T09:21:03Z</time>
      </trkpt>
      <trkpt lat="46.138385999947786" lon="5.11816299520433">
        <ele>263.06</ele>
        <time>2025-04-24T09:21:04Z</time>
      </trkpt>
      <trkpt lat="46.138245016336441" lon="5.118142040446401">
        <ele>263.06</ele>
        <time>2025-04-24T09:21:05Z</time>
      </trkpt>
      <trkpt lat="46.138083999976516" lon="5.118131982162595">
        <ele>263.06</ele>
        <time>2025-04-24T09:21:06Z</time>
      </trkpt>
      <trkpt lat="46.137914014980197" lon="5.118136005476117">
        <ele>263.06</ele>
        <time>2025-04-24T09:21:07Z</time>
      </trkpt>
      <trkpt lat="46.136290021240711" lon="5.118303978815675">
        <ele>263.54000000000002</ele>
        <time>2025-04-24T09:21:15Z</time>
      </trkpt>
      <trkpt lat="46.134794019162655" lon="5.118501959368587">
        <ele>265.45999999999998</ele>
        <time>2025-04-24T09:21:22Z</time>
      </trkpt>
      <trkpt lat="46.132672978565097" lon="5.118781998753548">
        <ele>266.42000000000002</ele>
        <time>2025-04-24T09:21:33Z</time>
      </trkpt>
      <trkpt lat="46.132218008860946" lon="5.118842013180256">
        <ele>266.42000000000002</ele>
        <time>2025-04-24T09:21:38Z</time>
      </trkpt>
      <trkpt lat="46.132148019969463" lon="5.118850981816649">
        <ele>266.42000000000002</ele>
        <time>2025-04-24T09:21:40Z</time>
      </trkpt>
      <trkpt lat="46.132090017199516" lon="5.118790967389941">
        <ele>266.42000000000002</ele>
        <time>2025-04-24T09:21:41Z</time>
      </trkpt>
      <trkpt lat="46.132066966965795" lon="5.118704969063401">
        <ele>266.42000000000002</ele>
        <time>2025-04-24T09:21:42Z</time>
      </trkpt>
      <trkpt lat="46.132037965580821" lon="5.11859298683703">
        <ele>266.42000000000002</ele>
        <time>2025-04-24T09:21:43Z</time>
      </trkpt>
      <trkpt lat="46.132002007216215" lon="5.118456026539207">
        <ele>266.42000000000002</ele>
        <time>2025-04-24T09:21:44Z</time>
      </trkpt>
      <trkpt lat="46.131959008052945" lon="5.118294004350901">
        <ele>266.42000000000002</ele>
        <time>2025-04-24T09:21:45Z</time>
      </trkpt>
      <trkpt lat="46.131593976169825" lon="5.117081981152296">
        <ele>267.86000000000001</ele>
        <time>2025-04-24T09:21:51Z</time>
      </trkpt>
      <trkpt lat="46.131504038348794" lon="5.116887018084526">
        <ele>267.86000000000001</ele>
        <time>2025-04-24T09:21:52Z</time>
      </trkpt>
      <trkpt lat="46.130411960184574" lon="5.114590963348746">
        <ele>266.89999999999998</ele>
        <time>2025-04-24T09:22:03Z</time>
      </trkpt>
      <trkpt lat="46.129766972735524" lon="5.113085992634296">
        <ele>264.5</ele>
        <time>2025-04-24T09:22:10Z</time>
      </trkpt>
      <trkpt lat="46.129707964137197" lon="5.112870996817946">
        <ele>264.5</ele>
        <time>2025-04-24T09:22:11Z</time>
      </trkpt>
      <trkpt lat="46.129547031596303" lon="5.11227797716856">
        <ele>263.06</ele>
        <time>2025-04-24T09:22:14Z</time>
      </trkpt>
      <trkpt lat="46.129458015784621" lon="5.112106986343861">
        <ele>262.57999999999998</ele>
        <time>2025-04-24T09:22:15Z</time>
      </trkpt>
      <trkpt lat="46.128869019448757" lon="5.11126896366477">
        <ele>260.17000000000002</ele>
        <time>2025-04-24T09:22:20Z</time>
      </trkpt>
      <trkpt lat="46.12872501835227" lon="5.111176008358598">
        <ele>260.17000000000002</ele>
        <time>2025-04-24T09:22:21Z</time>
      </trkpt>
      <trkpt lat="46.128577999770641" lon="5.111080035567284">
        <ele>259.69</ele>
        <time>2025-04-24T09:22:22Z</time>
      </trkpt>
      <trkpt lat="46.128425030037761" lon="5.110990013927221">
        <ele>259.69</ele>
        <time>2025-04-24T09:22:23Z</time>
      </trkpt>
      <trkpt lat="46.128258984535933" lon="5.110926982015371">
        <ele>259.69</ele>
        <time>2025-04-24T09:22:24Z</time>
      </trkpt>
      <trkpt lat="46.127943992614746" lon="5.110807958990336">
        <ele>259.69</ele>
        <time>2025-04-24T09:22:26Z</time>
      </trkpt>
      <trkpt lat="46.127803009003401" lon="5.110721960663796">
        <ele>259.69</ele>
        <time>2025-04-24T09:22:27Z</time>
      </trkpt>
      <trkpt lat="46.127683985978365" lon="5.110563039779663">
        <ele>259.69</ele>
        <time>2025-04-24T09:22:28Z</time>
      </trkpt>
      <trkpt lat="46.127559011802077" lon="5.110395988449454">
        <ele>259.69</ele>
        <time>2025-04-24T09:22:29Z</time>
      </trkpt>
      <trkpt lat="46.127433031797409" lon="5.110227009281516">
        <ele>260.17000000000002</ele>
        <time>2025-04-24T09:22:30Z</time>
      </trkpt>
      <trkpt lat="46.127105969935656" lon="5.109636001288891">
        <ele>260.17000000000002</ele>
        <time>2025-04-24T09:22:33Z</time>
      </trkpt>
      <trkpt lat="46.126308012753725" lon="5.107488976791501">
        <ele>262.10000000000002</ele>
        <time>2025-04-24T09:22:42Z</time>
      </trkpt>
      <trkpt lat="46.12625696696341" lon="5.107217989861965">
        <ele>262.10000000000002</ele>
        <time>2025-04-24T09:22:43Z</time>
      </trkpt>
      <trkpt lat="46.12593200057745" lon="5.104469982907176">
        <ele>265.45999999999998</ele>
        <time>2025-04-24T09:22:53Z</time>
      </trkpt>
      <trkpt lat="46.12537401728332" lon="5.100582959130406">
        <ele>266.89999999999998</ele>
        <time>2025-04-24T09:23:07Z</time>
      </trkpt>
      <trkpt lat="46.125294975936413" lon="5.100111979991198">
        <ele>266.89999999999998</ele>
        <time>2025-04-24T09:23:09Z</time>
      </trkpt>
      <trkpt lat="46.125225992873311" lon="5.09988097473979">
        <ele>267.38</ele>
        <time>2025-04-24T09:23:10Z</time>
      </trkpt>
      <trkpt lat="46.124242963269353" lon="5.097324997186661">
        <ele>269.31</ele>
        <time>2025-04-24T09:23:21Z</time>
      </trkpt>
      <trkpt lat="46.12311702221632" lon="5.09450901299715">
        <ele>269.31</ele>
        <time>2025-04-24T09:23:32Z</time>
      </trkpt>
      <trkpt lat="46.121343998238444" lon="5.090209012851119">
        <ele>271.70999999999998</ele>
        <time>2025-04-24T09:23:49Z</time>
      </trkpt>
      <trkpt lat="46.120271030813456" lon="5.087580028921366">
        <ele>272.67000000000002</ele>
        <time>2025-04-24T09:24:00Z</time>
      </trkpt>
      <trkpt lat="46.119139976799488" lon="5.084558017551899">
        <ele>272.19</ele>
        <time>2025-04-24T09:24:12Z</time>
      </trkpt>
      <trkpt lat="46.117761991918087" lon="5.080880038440228">
        <ele>272.19</ele>
        <time>2025-04-24T09:24:27Z</time>
      </trkpt>
      <trkpt lat="46.117363013327122" lon="5.079548992216587">
        <ele>272.67000000000002</ele>
        <time>2025-04-24T09:24:34Z</time>
      </trkpt>
      <trkpt lat="46.117215994745493" lon="5.079073989763856">
        <ele>271.70999999999998</ele>
        <time>2025-04-24T09:24:39Z</time>
      </trkpt>
      <trkpt lat="46.117139970883727" lon="5.07880300283432">
        <ele>270.75</ele>
        <time>2025-04-24T09:24:42Z</time>
      </trkpt>
      <trkpt lat="46.117097977548838" lon="5.078651960939169">
        <ele>268.82999999999998</ele>
        <time>2025-04-24T09:24:48Z</time>
      </trkpt>
      <trkpt lat="46.117066964507103" lon="5.078534027561545">
        <ele>268.35000000000002</ele>
        <time>2025-04-24T09:24:50Z</time>
      </trkpt>
      <trkpt lat="46.117093032225966" lon="5.078476024791598">
        <ele>268.35000000000002</ele>
        <time>2025-04-24T09:24:51Z</time>
      </trkpt>
      <trkpt lat="46.117127984762192" lon="5.078398995101452">
        <ele>268.35000000000002</ele>
        <time>2025-04-24T09:24:52Z</time>
      </trkpt>
      <trkpt lat="46.117172995582223" lon="5.078301010653377">
        <ele>267.86000000000001</ele>
        <time>2025-04-24T09:24:53Z</time>
      </trkpt>
      <trkpt lat="46.117199985310435" lon="5.078251976519823">
        <ele>267.86000000000001</ele>
        <time>2025-04-24T09:24:54Z</time>
      </trkpt>
      <trkpt lat="46.117221023887396" lon="5.078211994841695">
        <ele>267.86000000000001</ele>
        <time>2025-04-24T09:24:55Z</time>
      </trkpt>
      <trkpt lat="46.117258993908763" lon="5.078022982925177">
        <ele>267.38</ele>
        <time>2025-04-24T09:25:02Z</time>
      </trkpt>
      <trkpt lat="46.117211971431971" lon="5.077975960448384">
        <ele>267.38</ele>
        <time>2025-04-24T09:25:03Z</time>
      </trkpt>
      <trkpt lat="46.117151034995914" lon="5.077915024012327">
        <ele>267.38</ele>
        <time>2025-04-24T09:25:04Z</time>
      </trkpt>
      <trkpt lat="46.117076016962528" lon="5.077840005978942">
        <ele>267.38</ele>
        <time>2025-04-24T09:25:05Z</time>
      </trkpt>
      <trkpt lat="46.116996975615621" lon="5.077760964632034">
        <ele>267.38</ele>
        <time>2025-04-24T09:25:06Z</time>
      </trkpt>
      <trkpt lat="46.116252997890115" lon="5.077081024646759">
        <ele>266.42000000000002</ele>
        <time>2025-04-24T09:25:14Z</time>
      </trkpt>
      <trkpt lat="46.11609298735857" lon="5.076989997178316">
        <ele>266.42000000000002</ele>
        <time>2025-04-24T09:25:16Z</time>
      </trkpt>
      <trkpt lat="46.11533903516829" lon="5.076648015528917">
        <ele>273.63</ele>
        <time>2025-04-24T09:25:24Z</time>
      </trkpt>
      <trkpt lat="46.113887960091233" lon="5.075999004766345">
        <ele>277.48000000000002</ele>
        <time>2025-04-24T09:25:35Z</time>
      </trkpt>
      <trkpt lat="46.113332994282246" lon="5.075711002573371">
        <ele>276.04000000000002</ele>
        <time>2025-04-24T09:25:39Z</time>
      </trkpt>
      <trkpt lat="46.111811008304358" lon="5.074485987424851">
        <ele>271.70999999999998</ele>
        <time>2025-04-24T09:25:49Z</time>
      </trkpt>
      <trkpt lat="46.110904002562165" lon="5.07375399582088">
        <ele>271.23000000000002</ele>
        <time>2025-04-24T09:25:55Z</time>
      </trkpt>
      <trkpt lat="46.110755978152156" lon="5.073702028021216">
        <ele>271.23000000000002</ele>
        <time>2025-04-24T09:25:56Z</time>
      </trkpt>
      <trkpt lat="46.110594039782882" lon="5.073692975565791">
        <ele>271.23000000000002</ele>
        <time>2025-04-24T09:25:57Z</time>
      </trkpt>
      <trkpt lat="46.110425982624292" lon="5.073717031627893">
        <ele>271.70999999999998</ele>
        <time>2025-04-24T09:25:58Z</time>
      </trkpt>
      <trkpt lat="46.110249040648341" lon="5.073742009699345">
        <ele>271.70999999999998</ele>
        <time>2025-04-24T09:25:59Z</time>
      </trkpt>
      <trkpt lat="46.10863502137363" lon="5.073985001072288">
        <ele>272.19</ele>
        <time>2025-04-24T09:26:07Z</time>
      </trkpt>
      <trkpt lat="46.10670299269259" lon="5.074180969968438">
        <ele>276.51999999999998</ele>
        <time>2025-04-24T09:26:16Z</time>
      </trkpt>
      <trkpt lat="46.104317000135779" lon="5.073690041899681">
        <ele>277.95999999999998</ele>
        <time>2025-04-24T09:26:27Z</time>
      </trkpt>
      <trkpt lat="46.102218003943563" lon="5.073243035003543">
        <ele>280.83999999999997</ele>
        <time>2025-04-24T09:26:37Z</time>
      </trkpt>
      <trkpt lat="46.099981963634491" lon="5.072786975651979">
        <ele>282.27999999999997</ele>
        <time>2025-04-24T09:26:48Z</time>
      </trkpt>
      <trkpt lat="46.098340032622218" lon="5.072429990395904">
        <ele>279.39999999999998</ele>
        <time>2025-04-24T09:26:56Z</time>
      </trkpt>
      <trkpt lat="46.096774963662028" lon="5.072105024009943">
        <ele>275.56</ele>
        <time>2025-04-24T09:27:04Z</time>
      </trkpt>
      <trkpt lat="46.094960030168295" lon="5.071728006005287">
        <ele>270.26999999999998</ele>
        <time>2025-04-24T09:27:13Z</time>
      </trkpt>
      <trkpt lat="46.093550026416779" lon="5.071425000205636">
        <ele>268.82999999999998</ele>
        <time>2025-04-24T09:27:21Z</time>
      </trkpt>
      <trkpt lat="46.093003023415804" lon="5.07130203768611">
        <ele>270.26999999999998</ele>
        <time>2025-04-24T09:27:27Z</time>
      </trkpt>
      <trkpt lat="46.092961030080914" lon="5.071292985230684">
        <ele>270.75</ele>
        <time>2025-04-24T09:27:28Z</time>
      </trkpt>
      <trkpt lat="46.092935968190432" lon="5.071225007995963">
        <ele>270.75</ele>
        <time>2025-04-24T09:27:29Z</time>
      </trkpt>
      <trkpt lat="46.092947032302618" lon="5.071158958598971">
        <ele>271.23000000000002</ele>
        <time>2025-04-24T09:27:30Z</time>
      </trkpt>
      <trkpt lat="46.092968992888927" lon="5.071027027443051">
        <ele>271.70999999999998</ele>
        <time>2025-04-24T09:27:31Z</time>
      </trkpt>
      <trkpt lat="46.092978967353702" lon="5.070942034944892">
        <ele>272.19</ele>
        <time>2025-04-24T09:27:32Z</time>
      </trkpt>
      <trkpt lat="46.092997994273901" lon="5.070795016363263">
        <ele>272.67000000000002</ele>
        <time>2025-04-24T09:27:33Z</time>
      </trkpt>
      <trkpt lat="46.093037975952029" lon="5.07046896032989">
        <ele>273.14999999999998</ele>
        <time>2025-04-24T09:27:35Z</time>
      </trkpt>
      <trkpt lat="46.093052979558706" lon="5.070351026952267">
        <ele>273.14999999999998</ele>
        <time>2025-04-24T09:27:36Z</time>
      </trkpt>
      <trkpt lat="46.093053985387087" lon="5.070257987827063">
        <ele>273.14999999999998</ele>
        <time>2025-04-24T09:27:37Z</time>
      </trkpt>
      <trkpt lat="46.093053985387087" lon="5.069858003407717">
        <ele>274.11000000000001</ele>
        <time>2025-04-24T09:27:47Z</time>
      </trkpt>
      <trkpt lat="46.093053985387087" lon="5.069836964830756">
        <ele>274.11000000000001</ele>
        <time>2025-04-24T09:27:48Z</time>
      </trkpt>
      <trkpt lat="46.093053985387087" lon="5.069817015901208">
        <ele>274.58999999999997</ele>
        <time>2025-04-24T09:27:49Z</time>
      </trkpt>
      <trkpt lat="46.093053985387087" lon="5.069817015901208">
        <ele>274.58999999999997</ele>
        <time>2025-04-24T09:27:50Z</time>
      </trkpt>
      <trkpt lat="46.093053985387087" lon="5.069817015901208">
        <ele>275.06999999999999</ele>
        <time>2025-04-24T09:27:54Z</time>
      </trkpt>
      <trkpt lat="46.093053985387087" lon="5.070226974785328">
        <ele>275.06999999999999</ele>
        <time>2025-04-24T09:28:01Z</time>
      </trkpt>
      <trkpt lat="46.093047028407454" lon="5.07040299475193">
        <ele>275.56</ele>
        <time>2025-04-24T09:28:06Z</time>
      </trkpt>
      <trkpt lat="46.093006040900946" lon="5.070727961137891">
        <ele>276.04000000000002</ele>
        <time>2025-04-24T09:28:29Z</time>
      </trkpt>
      <trkpt lat="46.092950971797109" lon="5.071134986355901">
        <ele>276.51999999999998</ele>
        <time>2025-04-24T09:28:33Z</time>
      </trkpt>
      <trkpt lat="46.092942003160715" lon="5.071187037974596">
        <ele>276.51999999999998</ele>
        <time>2025-04-24T09:28:34Z</time>
      </trkpt>
      <trkpt lat="46.092882994562387" lon="5.071275969967246">
        <ele>276.51999999999998</ele>
        <time>2025-04-24T09:28:35Z</time>
      </trkpt>
      <trkpt lat="46.092842007055879" lon="5.071267001330853">
        <ele>276.04000000000002</ele>
        <time>2025-04-24T09:28:36Z</time>
      </trkpt>
      <trkpt lat="46.092777969315648" lon="5.071253003552556">
        <ele>276.04000000000002</ele>
        <time>2025-04-24T09:28:37Z</time>
      </trkpt>
      <trkpt lat="46.092692976817489" lon="5.071233976632357">
        <ele>276.04000000000002</ele>
        <time>2025-04-24T09:28:38Z</time>
      </trkpt>
      <trkpt lat="46.0925870295614" lon="5.071211010217667">
        <ele>275.56</ele>
        <time>2025-04-24T09:28:39Z</time>
      </trkpt>
      <trkpt lat="46.091591008007526" lon="5.070995008572936">
        <ele>274.58999999999997</ele>
        <time>2025-04-24T09:28:46Z</time>
      </trkpt>
      <trkpt lat="46.089971959590912" lon="5.070642968639731">
        <ele>275.56</ele>
        <time>2025-04-24T09:28:56Z</time>
      </trkpt>
      <trkpt lat="46.087472978979349" lon="5.070099988952279">
        <ele>277.95999999999998</ele>
        <time>2025-04-24T09:29:09Z</time>
      </trkpt>
      <trkpt lat="46.086497996002436" lon="5.069892033934593">
        <ele>281.80000000000001</ele>
        <time>2025-04-24T09:29:14Z</time>
      </trkpt>
      <trkpt lat="46.086307978257537" lon="5.069915000349283">
        <ele>282.76999999999998</ele>
        <time>2025-04-24T09:29:15Z</time>
      </trkpt>
      <trkpt lat="46.084136981517076" lon="5.070189004763961">
        <ele>287.08999999999997</ele>
        <time>2025-04-24T09:29:26Z</time>
      </trkpt>
      <trkpt lat="46.082158014178276" lon="5.070439036935568">
        <ele>288.52999999999997</ele>
        <time>2025-04-24T09:29:37Z</time>
      </trkpt>
      <trkpt lat="46.081874035298824" lon="5.070474995300174">
        <ele>287.56999999999999</ele>
        <time>2025-04-24T09:29:40Z</time>
      </trkpt>
      <trkpt lat="46.08182298950851" lon="5.070481030270457">
        <ele>287.08999999999997</ele>
        <time>2025-04-24T09:29:41Z</time>
      </trkpt>
      <trkpt lat="46.08175702393055" lon="5.07038002833724">
        <ele>286.61000000000001</ele>
        <time>2025-04-24T09:29:42Z</time>
      </trkpt>
      <trkpt lat="46.081762975081801" lon="5.070314984768629">
        <ele>286.13</ele>
        <time>2025-04-24T09:29:43Z</time>
      </trkpt>
      <trkpt lat="46.081771021708846" lon="5.070235021412373">
        <ele>286.13</ele>
        <time>2025-04-24T09:29:44Z</time>
      </trkpt>
      <trkpt lat="46.08177999034524" lon="5.07014399394393">
        <ele>286.13</ele>
        <time>2025-04-24T09:29:45Z</time>
      </trkpt>
      <trkpt lat="46.081789964810014" lon="5.070034023374319">
        <ele>285.64999999999998</ele>
        <time>2025-04-24T09:29:46Z</time>
      </trkpt>
      <trkpt lat="46.081799017265439" lon="5.06896298378706">
        <ele>283.73000000000002</ele>
        <time>2025-04-24T09:29:52Z</time>
      </trkpt>
      <trkpt lat="46.081617968156934" lon="5.066930959001184">
        <ele>283.73000000000002</ele>
        <time>2025-04-24T09:30:01Z</time>
      </trkpt>
      <trkpt lat="46.081596007570624" lon="5.066416980698705">
        <ele>283.73000000000002</ele>
        <time>2025-04-24T09:30:03Z</time>
      </trkpt>
      <trkpt lat="46.081570023670793" lon="5.065136980265379">
        <ele>281.80000000000001</ele>
        <time>2025-04-24T09:30:08Z</time>
      </trkpt>
      <trkpt lat="46.081540016457438" lon="5.064877979457378">
        <ele>281.31999999999999</ele>
        <time>2025-04-24T09:30:09Z</time>
      </trkpt>
      <trkpt lat="46.081486959010363" lon="5.064620990306139">
        <ele>280.83999999999997</ele>
        <time>2025-04-24T09:30:10Z</time>
      </trkpt>
      <trkpt lat="46.081426022574306" lon="5.0643640011549">
        <ele>280.36000000000001</ele>
        <time>2025-04-24T09:30:11Z</time>
      </trkpt>
      <trkpt lat="46.081333989277482" lon="5.064126960933209">
        <ele>279.88</ele>
        <time>2025-04-24T09:30:12Z</time>
      </trkpt>
      <trkpt lat="46.08122200705111" lon="5.063899978995323">
        <ele>279.88</ele>
        <time>2025-04-24T09:30:13Z</time>
      </trkpt>
      <trkpt lat="46.081110024824739" lon="5.063671991229057">
        <ele>279.88</ele>
        <time>2025-04-24T09:30:14Z</time>
      </trkpt>
      <trkpt lat="46.080815987661481" lon="5.063028009608388">
        <ele>278.92000000000002</ele>
        <time>2025-04-24T09:30:17Z</time>
      </trkpt>
      <trkpt lat="46.080758990719914" lon="5.062831034883857">
        <ele>278.44</ele>
        <time>2025-04-24T09:30:18Z</time>
      </trkpt>
      <trkpt lat="46.080765025690198" lon="5.062613021582365">
        <ele>278.44</ele>
        <time>2025-04-24T09:30:19Z</time>
      </trkpt>
      <trkpt lat="46.08077097684145" lon="5.06238603964448">
        <ele>277.95999999999998</ele>
        <time>2025-04-24T09:30:20Z</time>
      </trkpt>
      <trkpt lat="46.080777011811733" lon="5.062142964452505">
        <ele>277.48000000000002</ele>
        <time>2025-04-24T09:30:21Z</time>
      </trkpt>
      <trkpt lat="46.080775000154972" lon="5.061884969472885">
        <ele>277.48000000000002</ele>
        <time>2025-04-24T09:30:22Z</time>
      </trkpt>
      <trkpt lat="46.080763014033437" lon="5.061625968664885">
        <ele>277.48000000000002</ele>
        <time>2025-04-24T09:30:23Z</time>
      </trkpt>
      <trkpt lat="46.080710040405393" lon="5.060504972934723">
        <ele>276.51999999999998</ele>
        <time>2025-04-24T09:30:28Z</time>
      </trkpt>
      <trkpt lat="46.080700987949967" lon="5.060319984331727">
        <ele>276.51999999999998</ele>
        <time>2025-04-24T09:30:29Z</time>
      </trkpt>
      <trkpt lat="46.080473000183702" lon="5.058651985600591">
        <ele>272.19</ele>
        <time>2025-04-24T09:30:40Z</time>
      </trkpt>
      <trkpt lat="46.080437041819096" lon="5.058234985917807">
        <ele>270.26999999999998</ele>
        <time>2025-04-24T09:30:46Z</time>
      </trkpt>
      <trkpt lat="46.080393958836794" lon="5.057229995727539">
        <ele>270.26999999999998</ele>
        <time>2025-04-24T09:30:54Z</time>
      </trkpt>
      <trkpt lat="46.080373004078865" lon="5.05641502328217">
        <ele>269.31</ele>
        <time>2025-04-24T09:31:02Z</time>
      </trkpt>
      <trkpt lat="46.080423966050148" lon="5.056044040247798">
        <ele>268.82999999999998</ele>
        <time>2025-04-24T09:31:05Z</time>
      </trkpt>
      <trkpt lat="46.080451961606741" lon="5.05589802749455">
        <ele>268.35000000000002</ele>
        <time>2025-04-24T09:31:06Z</time>
      </trkpt>
      <trkpt lat="46.080873990431428" lon="5.054399007931352">
        <ele>266.89999999999998</ele>
        <time>2025-04-24T09:31:14Z</time>
      </trkpt>
      <trkpt lat="46.081208009272814" lon="5.053212968632579">
        <ele>265.94</ele>
        <time>2025-04-24T09:31:21Z</time>
      </trkpt>
      <trkpt lat="46.08122100122273" lon="5.053168041631579">
        <ele>265.45999999999998</ele>
        <time>2025-04-24T09:31:22Z</time>
      </trkpt>
      <trkpt lat="46.081190994009376" lon="5.05308598279953">
        <ele>265.45999999999998</ele>
        <time>2025-04-24T09:31:23Z</time>
      </trkpt>
      <trkpt lat="46.08115604147315" lon="5.053047006949782">
        <ele>264.98000000000002</ele>
        <time>2025-04-24T09:31:24Z</time>
      </trkpt>
      <trkpt lat="46.081108013167977" lon="5.052994033321738">
        <ele>264.98000000000002</ele>
        <time>2025-04-24T09:31:25Z</time>
      </trkpt>
      <trkpt lat="46.08104900456965" lon="5.052927983924747">
        <ele>264.5</ele>
        <time>2025-04-24T09:31:26Z</time>
      </trkpt>
      <trkpt lat="46.080975998193026" lon="5.052846008911729">
        <ele>264.01999999999998</ele>
        <time>2025-04-24T09:31:27Z</time>
      </trkpt>
      <trkpt lat="46.080237971618772" lon="5.052017960697413">
        <ele>264.01999999999998</ele>
        <time>2025-04-24T09:31:34Z</time>
      </trkpt>
      <trkpt lat="46.080118026584387" lon="5.051885023713112">
        <ele>264.98000000000002</ele>
        <time>2025-04-24T09:31:35Z</time>
      </trkpt>
      <trkpt lat="46.079988023266196" lon="5.051738005131483">
        <ele>265.45999999999998</ele>
        <time>2025-04-24T09:31:36Z</time>
      </trkpt>
      <trkpt lat="46.07984896749258" lon="5.051584029570222">
        <ele>265.94</ele>
        <time>2025-04-24T09:31:37Z</time>
      </trkpt>
      <trkpt lat="46.079702032729983" lon="5.051422007381916">
        <ele>266.42000000000002</ele>
        <time>2025-04-24T09:31:38Z</time>
      </trkpt>
      <trkpt lat="46.078456984832883" lon="5.050042010843754">
        <ele>269.79000000000002</ele>
        <time>2025-04-24T09:31:46Z</time>
      </trkpt>
      <trkpt lat="46.077423999086022" lon="5.04889695905149">
        <ele>272.67000000000002</ele>
        <time>2025-04-24T09:31:53Z</time>
      </trkpt>
      <trkpt lat="46.07632203027606" lon="5.047676973044872">
        <ele>274.58999999999997</ele>
        <time>2025-04-24T09:32:01Z</time>
      </trkpt>
      <trkpt lat="46.075215032324195" lon="5.046449024230242">
        <ele>275.56</ele>
        <time>2025-04-24T09:32:09Z</time>
      </trkpt>
      <trkpt lat="46.073398003354669" lon="5.044436026364565">
        <ele>276.04000000000002</ele>
        <time>2025-04-24T09:32:22Z</time>
      </trkpt>
      <trkpt lat="46.072955019772053" lon="5.043945014476776">
        <ele>275.56</ele>
        <time>2025-04-24T09:32:27Z</time>
      </trkpt>
      <trkpt lat="46.072915038093925" lon="5.043901009485126">
        <ele>275.56</ele>
        <time>2025-04-24T09:32:28Z</time>
      </trkpt>
      <trkpt lat="46.072877990081906" lon="5.043859016150236">
        <ele>275.56</ele>
        <time>2025-04-24T09:32:29Z</time>
      </trkpt>
      <trkpt lat="46.072640027850866" lon="5.043201958760619">
        <ele>274.58999999999997</ele>
        <time>2025-04-24T09:32:34Z</time>
      </trkpt>
      <trkpt lat="46.072057988494635" lon="5.04141996614635">
        <ele>274.11000000000001</ele>
        <time>2025-04-24T09:32:42Z</time>
      </trkpt>
      <trkpt lat="46.07110102660954" lon="5.038651004433632">
        <ele>272.19</ele>
        <time>2025-04-24T09:32:53Z</time>
      </trkpt>
      <trkpt lat="46.07004901394248" lon="5.035758996382356">
        <ele>268.82999999999998</ele>
        <time>2025-04-24T09:33:04Z</time>
      </trkpt>
      <trkpt lat="46.069502010941505" lon="5.033850017935038">
        <ele>262.10000000000002</ele>
        <time>2025-04-24T09:33:11Z</time>
      </trkpt>
      <trkpt lat="46.069159023463726" lon="5.030733039602637">
        <ele>262.57999999999998</ele>
        <time>2025-04-24T09:33:22Z</time>
      </trkpt>
      <trkpt lat="46.068892981857061" lon="5.028169015422463">
        <ele>262.10000000000002</ele>
        <time>2025-04-24T09:33:32Z</time>
      </trkpt>
      <trkpt lat="46.068892981857061" lon="5.028000958263874">
        <ele>262.10000000000002</ele>
        <time>2025-04-24T09:33:33Z</time>
      </trkpt>
      <trkpt lat="46.068927012383938" lon="5.027848994359374">
        <ele>261.62</ele>
        <time>2025-04-24T09:33:34Z</time>
      </trkpt>
      <trkpt lat="46.068972023203969" lon="5.027712034061551">
        <ele>261.62</ele>
        <time>2025-04-24T09:33:35Z</time>
      </trkpt>
      <trkpt lat="46.069024996832013" lon="5.027595022693276">
        <ele>261.13999999999999</ele>
        <time>2025-04-24T09:33:36Z</time>
      </trkpt>
      <trkpt lat="46.069084005430341" lon="5.027488991618156">
        <ele>260.64999999999998</ele>
        <time>2025-04-24T09:33:37Z</time>
      </trkpt>
      <trkpt lat="46.069202022626996" lon="5.027277013286948">
        <ele>260.17000000000002</ele>
        <time>2025-04-24T09:33:39Z</time>
      </trkpt>
      <trkpt lat="46.069233035668731" lon="5.027137035503984">
        <ele>259.69</ele>
        <time>2025-04-24T09:33:40Z</time>
      </trkpt>
      <trkpt lat="46.06925499625504" lon="5.026996973901987">
        <ele>259.69</ele>
        <time>2025-04-24T09:33:41Z</time>
      </trkpt>
      <trkpt lat="46.069278968498111" lon="5.026846015825868">
        <ele>259.20999999999998</ele>
        <time>2025-04-24T09:33:42Z</time>
      </trkpt>
      <trkpt lat="46.069280980154872" lon="5.026714000850916">
        <ele>258.73000000000002</ele>
        <time>2025-04-24T09:33:43Z</time>
      </trkpt>
      <trkpt lat="46.069301012903452" lon="5.025248005986214">
        <ele>261.13999999999999</ele>
        <time>2025-04-24T09:33:54Z</time>
      </trkpt>
      <trkpt lat="46.069301012903452" lon="5.024689016863704">
        <ele>263.54000000000002</ele>
        <time>2025-04-24T09:33:58Z</time>
      </trkpt>
      <trkpt lat="46.069301012903452" lon="5.024163974449039">
        <ele>267.38</ele>
        <time>2025-04-24T09:34:05Z</time>
      </trkpt>
      <trkpt lat="46.069301012903452" lon="5.02397102303803">
        <ele>267.86000000000001</ele>
        <time>2025-04-24T09:34:06Z</time>
      </trkpt>
      <trkpt lat="46.069301012903452" lon="5.02395199611783">
        <ele>268.35000000000002</ele>
        <time>2025-04-24T09:34:07Z</time>
      </trkpt>
      <trkpt lat="46.069301012903452" lon="5.023819981142879">
        <ele>268.35000000000002</ele>
        <time>2025-04-24T09:34:08Z</time>
      </trkpt>
      <trkpt lat="46.069289026781917" lon="5.023731971159577">
        <ele>268.82999999999998</ele>
        <time>2025-04-24T09:34:09Z</time>
      </trkpt>
      <trkpt lat="46.069272011518478" lon="5.02360800281167">
        <ele>269.31</ele>
        <time>2025-04-24T09:34:10Z</time>
      </trkpt>
      <trkpt lat="46.069073025137186" lon="5.022225994616747">
        <ele>271.23000000000002</ele>
        <time>2025-04-24T09:34:18Z</time>
      </trkpt>
      <trkpt lat="46.068770019337535" lon="5.020032031461597">
        <ele>273.14999999999998</ele>
        <time>2025-04-24T09:34:27Z</time>
      </trkpt>
      <trkpt lat="46.068282024934888" lon="5.016466034576297">
        <ele>274.11000000000001</ele>
        <time>2025-04-24T09:34:39Z</time>
      </trkpt>
      <trkpt lat="46.067798975855112" lon="5.012941025197506">
        <ele>275.56</ele>
        <time>2025-04-24T09:34:51Z</time>
      </trkpt>
      <trkpt lat="46.067265970632434" lon="5.009035980328918">
        <ele>277.95999999999998</ele>
        <time>2025-04-24T09:35:05Z</time>
      </trkpt>
      <trkpt lat="46.06687000952661" lon="5.006128968670964">
        <ele>278.92000000000002</ele>
        <time>2025-04-24T09:35:16Z</time>
      </trkpt>
      <trkpt lat="46.066449992358685" lon="5.003006039187312">
        <ele>277.48000000000002</ele>
        <time>2025-04-24T09:35:27Z</time>
      </trkpt>
      <trkpt lat="46.066042967140675" lon="5.000360039994121">
        <ele>278.92000000000002</ele>
        <time>2025-04-24T09:35:37Z</time>
      </trkpt>
      <trkpt lat="46.065554972738028" lon="4.998587016016245">
        <ele>277.95999999999998</ele>
        <time>2025-04-24T09:35:44Z</time>
      </trkpt>
      <trkpt lat="46.064819041639566" lon="4.995584031566978">
        <ele>278.92000000000002</ele>
        <time>2025-04-24T09:35:55Z</time>
      </trkpt>
      <trkpt lat="46.064082020893693" lon="4.992290027439594">
        <ele>282.76999999999998</ele>
        <time>2025-04-24T09:36:07Z</time>
      </trkpt>
      <trkpt lat="46.06343200430274" lon="4.98938200995326">
        <ele>281.80000000000001</ele>
        <time>2025-04-24T09:36:17Z</time>
      </trkpt>
      <trkpt lat="46.062691966071725" lon="4.985948028042913">
        <ele>281.80000000000001</ele>
        <time>2025-04-24T09:36:30Z</time>
      </trkpt>
      <trkpt lat="46.062702024355531" lon="4.985710987821221">
        <ele>281.80000000000001</ele>
        <time>2025-04-24T09:36:31Z</time>
      </trkpt>
      <trkpt lat="46.062713004648685" lon="4.985453998669982">
        <ele>281.31999999999999</ele>
        <time>2025-04-24T09:36:32Z</time>
      </trkpt>
      <trkpt lat="46.062928000465035" lon="4.984298972412944">
        <ele>282.76999999999998</ele>
        <time>2025-04-24T09:36:39Z</time>
      </trkpt>
      <trkpt lat="46.062946021556854" lon="4.98420299962163">
        <ele>283.73000000000002</ele>
        <time>2025-04-24T09:36:46Z</time>
      </trkpt>
      <trkpt lat="46.062946021556854" lon="4.98420299962163">
        <ele>283.73000000000002</ele>
        <time>2025-04-24T09:37:23Z</time>
      </trkpt>
      <trkpt lat="46.062946021556854" lon="4.98420299962163">
        <ele>284.20999999999998</ele>
        <time>2025-04-24T09:38:11Z</time>
      </trkpt>
      <trkpt lat="46.062946021556854" lon="4.98420299962163">
        <ele>284.20999999999998</ele>
        <time>2025-04-24T09:38:52Z</time>
      </trkpt>
      <trkpt lat="46.062946021556854" lon="4.98420299962163">
        <ele>284.20999999999998</ele>
        <time>2025-04-24T09:39:22Z</time>
      </trkpt>
      <trkpt lat="46.063019027933478" lon="4.983789017423987">
        <ele>285.64999999999998</ele>
        <time>2025-04-24T09:39:32Z</time>
      </trkpt>
      <trkpt lat="46.063076024875045" lon="4.983450975269079">
        <ele>286.13</ele>
        <time>2025-04-24T09:39:35Z</time>
      </trkpt>
      <trkpt lat="46.063095973804593" lon="4.983330024406314">
        <ele>286.13</ele>
        <time>2025-04-24T09:39:36Z</time>
      </trkpt>
      <trkpt lat="46.063309963792562" lon="4.982200982049108">
        <ele>286.13</ele>
        <time>2025-04-24T09:39:45Z</time>
      </trkpt>
      <trkpt lat="46.063464023172855" lon="4.981287019327283">
        <ele>288.05000000000001</ele>
        <time>2025-04-24T09:39:53Z</time>
      </trkpt>
      <trkpt lat="46.063500987365842" lon="4.981071017682552">
        <ele>289.49000000000001</ele>
        <time>2025-04-24T09:39:58Z</time>
      </trkpt>
      <trkpt lat="46.063433010131121" lon="4.980925004929304">
        <ele>290.45999999999998</ele>
        <time>2025-04-24T09:40:00Z</time>
      </trkpt>
      <trkpt lat="46.063448013737798" lon="4.980845963582397">
        <ele>290.45999999999998</ele>
        <time>2025-04-24T09:40:01Z</time>
      </trkpt>
      <trkpt lat="46.063465029001236" lon="4.980752002447844">
        <ele>290.94</ele>
        <time>2025-04-24T09:40:02Z</time>
      </trkpt>
      <trkpt lat="46.063479026779532" lon="4.980654017999768">
        <ele>290.94</ele>
        <time>2025-04-24T09:40:03Z</time>
      </trkpt>
      <trkpt lat="46.063494030386209" lon="4.980555027723312">
        <ele>291.42000000000002</ele>
        <time>2025-04-24T09:40:04Z</time>
      </trkpt>
      <trkpt lat="46.063550021499395" lon="4.979575015604496">
        <ele>291.89999999999998</ele>
        <time>2025-04-24T09:40:13Z</time>
      </trkpt>
      <trkpt lat="46.063571982085705" lon="4.978131987154484">
        <ele>290.94</ele>
        <time>2025-04-24T09:40:26Z</time>
      </trkpt>
      <trkpt lat="46.063571982085705" lon="4.976548980921507">
        <ele>289.97000000000003</ele>
        <time>2025-04-24T09:40:37Z</time>
      </trkpt>
      <trkpt lat="46.063294038176537" lon="4.97492297552526">
        <ele>288.52999999999997</ele>
        <time>2025-04-24T09:40:44Z</time>
      </trkpt>
      <trkpt lat="46.062706969678402" lon="4.972083019092679">
        <ele>288.52999999999997</ele>
        <time>2025-04-24T09:40:56Z</time>
      </trkpt>
      <trkpt lat="46.062462972477078" lon="4.970074966549873">
        <ele>288.05000000000001</ele>
        <time>2025-04-24T09:41:05Z</time>
      </trkpt>
      <trkpt lat="46.062053013592958" lon="4.967559976503253">
        <ele>286.61000000000001</ele>
        <time>2025-04-24T09:41:15Z</time>
      </trkpt>
      <trkpt lat="46.061429986730218" lon="4.964306959882379">
        <ele>284.69</ele>
        <time>2025-04-24T09:41:26Z</time>
      </trkpt>
      <trkpt lat="46.061022961512208" lon="4.96218197979033">
        <ele>286.61000000000001</ele>
        <time>2025-04-24T09:41:33Z</time>
      </trkpt>
      <trkpt lat="46.060375040397048" lon="4.958798037841916">
        <ele>277.48000000000002</ele>
        <time>2025-04-24T09:41:45Z</time>
      </trkpt>
      <trkpt lat="46.059576999396086" lon="4.954769024625421">
        <ele>275.56</ele>
        <time>2025-04-24T09:41:59Z</time>
      </trkpt>
      <trkpt lat="46.058978028595448" lon="4.95182697661221">
        <ele>275.56</ele>
        <time>2025-04-24T09:42:10Z</time>
      </trkpt>
      <trkpt lat="46.058871997520328" lon="4.951110994443297">
        <ele>276.04000000000002</ele>
        <time>2025-04-24T09:42:13Z</time>
      </trkpt>
      <trkpt lat="46.058854982256889" lon="4.950870014727116">
        <ele>276.04000000000002</ele>
        <time>2025-04-24T09:42:14Z</time>
      </trkpt>
      <trkpt lat="46.058879038318992" lon="4.950626017525792">
        <ele>276.04000000000002</ele>
        <time>2025-04-24T09:42:15Z</time>
      </trkpt>
      <trkpt lat="46.058931006118655" lon="4.950388977304101">
        <ele>275.56</ele>
        <time>2025-04-24T09:42:16Z</time>
      </trkpt>
      <trkpt lat="46.059022033587098" lon="4.950169958174229">
        <ele>275.56</ele>
        <time>2025-04-24T09:42:17Z</time>
      </trkpt>
      <trkpt lat="46.059118006378412" lon="4.949950017035008">
        <ele>275.56</ele>
        <time>2025-04-24T09:42:18Z</time>
      </trkpt>
      <trkpt lat="46.059248009696603" lon="4.949764022603631">
        <ele>275.56</ele>
        <time>2025-04-24T09:42:19Z</time>
      </trkpt>
      <trkpt lat="46.060432959347963" lon="4.947877004742622">
        <ele>276.04000000000002</ele>
        <time>2025-04-24T09:42:29Z</time>
      </trkpt>
      <trkpt lat="46.060769995674491" lon="4.947039987891913">
        <ele>276.04000000000002</ele>
        <time>2025-04-24T09:42:35Z</time>
      </trkpt>
      <trkpt lat="46.060796985402703" lon="4.946973016485572">
        <ele>276.04000000000002</ele>
        <time>2025-04-24T09:42:36Z</time>
      </trkpt>
      <trkpt lat="46.060818023979664" lon="4.946922976523638">
        <ele>276.04000000000002</ele>
        <time>2025-04-24T09:42:37Z</time>
      </trkpt>
      <trkpt lat="46.060755997896194" lon="4.946822980418801">
        <ele>276.51999999999998</ele>
        <time>2025-04-24T09:42:38Z</time>
      </trkpt>
      <trkpt lat="46.060692965984344" lon="4.946803031489253">
        <ele>276.51999999999998</ele>
        <time>2025-04-24T09:42:39Z</time>
      </trkpt>
      <trkpt lat="46.060614008456469" lon="4.94677796959877">
        <ele>276.51999999999998</ele>
        <time>2025-04-24T09:42:40Z</time>
      </trkpt>
      <trkpt lat="46.059867013245821" lon="4.946529027074575">
        <ele>278.44</ele>
        <time>2025-04-24T09:42:46Z</time>
      </trkpt>
      <trkpt lat="46.058246959000826" lon="4.945883033797145">
        <ele>280.83999999999997</ele>
        <time>2025-04-24T09:42:55Z</time>
      </trkpt>
      <trkpt lat="46.055336007848382" lon="4.944722978398204">
        <ele>283.25</ele>
        <time>2025-04-24T09:43:09Z</time>
      </trkpt>
      <trkpt lat="46.052387002855539" lon="4.943559989333153">
        <ele>284.69</ele>
        <time>2025-04-24T09:43:24Z</time>
      </trkpt>
      <trkpt lat="46.049132980406284" lon="4.942161971703172">
        <ele>285.17000000000002</ele>
        <time>2025-04-24T09:43:41Z</time>
      </trkpt>
      <trkpt lat="46.047020992264152" lon="4.941093027591705">
        <ele>285.17000000000002</ele>
        <time>2025-04-24T09:43:52Z</time>
      </trkpt>
      <trkpt lat="46.044820994138718" lon="4.939647987484932">
        <ele>283.73000000000002</ele>
        <time>2025-04-24T09:44:04Z</time>
      </trkpt>
      <trkpt lat="46.043833019211888" lon="4.938837960362434">
        <ele>284.20999999999998</ele>
        <time>2025-04-24T09:44:11Z</time>
      </trkpt>
      <trkpt lat="46.043378971517086" lon="4.938434036448598">
        <ele>283.73000000000002</ele>
        <time>2025-04-24T09:44:17Z</time>
      </trkpt>
      <trkpt lat="46.043313005939126" lon="4.93837402202189">
        <ele>283.25</ele>
        <time>2025-04-24T09:44:23Z</time>
      </trkpt>
      <trkpt lat="46.043264977633953" lon="4.938334040343761">
        <ele>283.25</ele>
        <time>2025-04-24T09:44:24Z</time>
      </trkpt>
      <trkpt lat="46.042732978239655" lon="4.937890972942114">
        <ele>282.76999999999998</ele>
        <time>2025-04-24T09:44:30Z</time>
      </trkpt>
      <trkpt lat="46.041623968631029" lon="4.936967035755515">
        <ele>283.25</ele>
        <time>2025-04-24T09:44:38Z</time>
      </trkpt>
      <trkpt lat="46.039746003225446" lon="4.935373971238732">
        <ele>282.76999999999998</ele>
        <time>2025-04-24T09:44:49Z</time>
      </trkpt>
      <trkpt lat="46.03743402287364" lon="4.933429034426808">
        <ele>282.27999999999997</ele>
        <time>2025-04-24T09:45:02Z</time>
      </trkpt>
      <trkpt lat="46.036666994914412" lon="4.932920001447201">
        <ele>281.31999999999999</ele>
        <time>2025-04-24T09:45:06Z</time>
      </trkpt>
      <trkpt lat="46.036464991047978" lon="4.932866021990776">
        <ele>281.31999999999999</ele>
        <time>2025-04-24T09:45:07Z</time>
      </trkpt>
      <trkpt lat="46.036256030201912" lon="4.932839032262564">
        <ele>281.80000000000001</ele>
        <time>2025-04-24T09:45:08Z</time>
      </trkpt>
      <trkpt lat="46.036046985536814" lon="4.9328129645437">
        <ele>281.80000000000001</ele>
        <time>2025-04-24T09:45:09Z</time>
      </trkpt>
      <trkpt lat="46.035836013033986" lon="4.932784968987107">
        <ele>281.31999999999999</ele>
        <time>2025-04-24T09:45:10Z</time>
      </trkpt>
      <trkpt lat="46.034142030403018" lon="4.932423960417509">
        <ele>281.31999999999999</ele>
        <time>2025-04-24T09:45:18Z</time>
      </trkpt>
      <trkpt lat="46.031425036489964" lon="4.931644024327397">
        <ele>284.20999999999998</ele>
        <time>2025-04-24T09:45:32Z</time>
      </trkpt>
      <trkpt lat="46.028206972405314" lon="4.930597962811589">
        <ele>286.61000000000001</ele>
        <time>2025-04-24T09:45:48Z</time>
      </trkpt>
      <trkpt lat="46.025366010144353" lon="4.929940989241004">
        <ele>292.38</ele>
        <time>2025-04-24T09:46:02Z</time>
      </trkpt>
      <trkpt lat="46.022930983453989" lon="4.929371019825339">
        <ele>295.74000000000001</ele>
        <time>2025-04-24T09:46:14Z</time>
      </trkpt>
      <trkpt lat="46.021158965304494" lon="4.928954020142555">
        <ele>299.58999999999997</ele>
        <time>2025-04-24T09:46:23Z</time>
      </trkpt>
      <trkpt lat="46.020319014787674" lon="4.928756961598992">
        <ele>301.02999999999997</ele>
        <time>2025-04-24T09:46:29Z</time>
      </trkpt>
      <trkpt lat="46.019931016489863" lon="4.928675992414355">
        <ele>301.99000000000001</ele>
        <time>2025-04-24T09:46:34Z</time>
      </trkpt>
      <trkpt lat="46.019649971276522" lon="4.92859804071486">
        <ele>301.02999999999997</ele>
        <time>2025-04-24T09:46:40Z</time>
      </trkpt>
      <trkpt lat="46.019610995426774" lon="4.928569961339235">
        <ele>301.02999999999997</ele>
        <time>2025-04-24T09:46:41Z</time>
      </trkpt>
      <trkpt lat="46.019641002640128" lon="4.928505001589656">
        <ele>300.55000000000001</ele>
        <time>2025-04-24T09:46:42Z</time>
      </trkpt>
      <trkpt lat="46.019652988761663" lon="4.928438030183315">
        <ele>300.55000000000001</ele>
        <time>2025-04-24T09:46:43Z</time>
      </trkpt>
      <trkpt lat="46.019668998196721" lon="4.928352031856775">
        <ele>300.55000000000001</ele>
        <time>2025-04-24T09:46:44Z</time>
      </trkpt>
      <trkpt lat="46.019685007631779" lon="4.928255975246429">
        <ele>300.55000000000001</ele>
        <time>2025-04-24T09:46:45Z</time>
      </trkpt>
      <trkpt lat="46.019701017066836" lon="4.928150027990341">
        <ele>300.06999999999999</ele>
        <time>2025-04-24T09:46:46Z</time>
      </trkpt>
      <trkpt lat="46.019820040091872" lon="4.927055016160011">
        <ele>294.30000000000001</ele>
        <time>2025-04-24T09:46:54Z</time>
      </trkpt>
      <trkpt lat="46.019889023154974" lon="4.92621498182416">
        <ele>292.38</ele>
        <time>2025-04-24T09:46:59Z</time>
      </trkpt>
      <trkpt lat="46.019986001774669" lon="4.925853973254561">
        <ele>291.89999999999998</ele>
        <time>2025-04-24T09:47:01Z</time>
      </trkpt>
      <trkpt lat="46.020036041736603" lon="4.925665967166424">
        <ele>291.89999999999998</ele>
        <time>2025-04-24T09:47:02Z</time>
      </trkpt>
      <trkpt lat="46.020674994215369" lon="4.923722958192229">
        <ele>293.81999999999999</ele>
        <time>2025-04-24T09:47:12Z</time>
      </trkpt>
      <trkpt lat="46.021295003592968" lon="4.921241998672485">
        <ele>293.33999999999997</ele>
        <time>2025-04-24T09:47:22Z</time>
      </trkpt>
      <trkpt lat="46.022129002958536" lon="4.917568964883685">
        <ele>292.38</ele>
        <time>2025-04-24T09:47:36Z</time>
      </trkpt>
      <trkpt lat="46.022418010979891" lon="4.914180999621749">
        <ele>290.45999999999998</ele>
        <time>2025-04-24T09:47:48Z</time>
      </trkpt>
      <trkpt lat="46.022478025406599" lon="4.91184102371335">
        <ele>288.05000000000001</ele>
        <time>2025-04-24T09:47:56Z</time>
      </trkpt>
      <trkpt lat="46.022538961842656" lon="4.909416977316141">
        <ele>286.13</ele>
        <time>2025-04-24T09:48:04Z</time>
      </trkpt>
      <trkpt lat="46.022634012624621" lon="4.905664985999465">
        <ele>285.17000000000002</ele>
        <time>2025-04-24T09:48:16Z</time>
      </trkpt>
      <trkpt lat="46.022726967930794" lon="4.902019025757909">
        <ele>285.64999999999998</ele>
        <time>2025-04-24T09:48:28Z</time>
      </trkpt>
      <trkpt lat="46.022776002064347" lon="4.900082973763347">
        <ele>287.08999999999997</ele>
        <time>2025-04-24T09:48:36Z</time>
      </trkpt>
      <trkpt lat="46.022820007055998" lon="4.898874973878264">
        <ele>287.08999999999997</ele>
        <time>2025-04-24T09:48:43Z</time>
      </trkpt>
      <trkpt lat="46.022872980684042" lon="4.898503990843892">
        <ele>287.08999999999997</ele>
        <time>2025-04-24T09:48:47Z</time>
      </trkpt>
      <trkpt lat="46.022887984290719" lon="4.898399971425533">
        <ele>287.08999999999997</ele>
        <time>2025-04-24T09:48:48Z</time>
      </trkpt>
      <trkpt lat="46.022795028984547" lon="4.89740202203393">
        <ele>286.13</ele>
        <time>2025-04-24T09:48:54Z</time>
      </trkpt>
      <trkpt lat="46.022756975144148" lon="4.895379971712828">
        <ele>285.64999999999998</ele>
        <time>2025-04-24T09:49:02Z</time>
      </trkpt>
      <trkpt lat="46.022682040929794" lon="4.891804000362754">
        <ele>285.64999999999998</ele>
        <time>2025-04-24T09:49:14Z</time>
      </trkpt>
      <trkpt lat="46.022604005411267" lon="4.88814203068614">
        <ele>287.08999999999997</ele>
        <time>2025-04-24T09:49:27Z</time>
      </trkpt>
      <trkpt lat="46.022542985156178" lon="4.885249016806483">
        <ele>288.05000000000001</ele>
        <time>2025-04-24T09:49:37Z</time>
      </trkpt>
      <trkpt lat="46.02246000431478" lon="4.881795002147555">
        <ele>288.52999999999997</ele>
        <time>2025-04-24T09:49:49Z</time>
      </trkpt>
      <trkpt lat="46.022394960746169" lon="4.878988992422819">
        <ele>285.17000000000002</ele>
        <time>2025-04-24T09:49:59Z</time>
      </trkpt>
      <trkpt lat="46.022296976298094" lon="4.874932989478111">
        <ele>287.08999999999997</ele>
        <time>2025-04-24T09:50:13Z</time>
      </trkpt>
      <trkpt lat="46.022216007113457" lon="4.871697993949056">
        <ele>285.17000000000002</ele>
        <time>2025-04-24T09:50:24Z</time>
      </trkpt>
      <trkpt lat="46.022113999351859" lon="4.868243979290128">
        <ele>286.13</ele>
        <time>2025-04-24T09:50:36Z</time>
      </trkpt>
      <trkpt lat="46.022055996581912" lon="4.865594040602446">
        <ele>285.17000000000002</ele>
        <time>2025-04-24T09:50:46Z</time>
      </trkpt>
      <trkpt lat="46.022035041823983" lon="4.8646189738065">
        <ele>285.17000000000002</ele>
        <time>2025-04-24T09:50:52Z</time>
      </trkpt>
      <trkpt lat="46.022001011297107" lon="4.864361984655261">
        <ele>285.17000000000002</ele>
        <time>2025-04-24T09:50:56Z</time>
      </trkpt>
      <trkpt lat="46.021963963285089" lon="4.864354021847248">
        <ele>284.69</ele>
        <time>2025-04-24T09:50:57Z</time>
      </trkpt>
      <trkpt lat="46.021915012970567" lon="4.864343963563442">
        <ele>284.69</ele>
        <time>2025-04-24T09:50:58Z</time>
      </trkpt>
      <trkpt lat="46.021266002207994" lon="4.864203985780478">
        <ele>284.20999999999998</ele>
        <time>2025-04-24T09:51:05Z</time>
      </trkpt>
      <trkpt lat="46.019896985962987" lon="4.863908020779491">
        <ele>286.13</ele>
        <time>2025-04-24T09:51:14Z</time>
      </trkpt>
      <trkpt lat="46.017894968390465" lon="4.863455984741449">
        <ele>286.13</ele>
        <time>2025-04-24T09:51:26Z</time>
      </trkpt>
      <trkpt lat="46.015682984143496" lon="4.862933037802577">
        <ele>286.61000000000001</ele>
        <time>2025-04-24T09:51:40Z</time>
      </trkpt>
      <trkpt lat="46.015466982498765" lon="4.862882997840643">
        <ele>286.61000000000001</ele>
        <time>2025-04-24T09:51:43Z</time>
      </trkpt>
      <trkpt lat="46.015427000820637" lon="4.862873023375869">
        <ele>286.13</ele>
        <time>2025-04-24T09:51:44Z</time>
      </trkpt>
      <trkpt lat="46.015405040234327" lon="4.862780990079045">
        <ele>286.13</ele>
        <time>2025-04-24T09:51:45Z</time>
      </trkpt>
      <trkpt lat="46.015409985557199" lon="4.862714018672705">
        <ele>286.13</ele>
        <time>2025-04-24T09:51:46Z</time>
      </trkpt>
      <trkpt lat="46.015416020527482" lon="4.862628020346165">
        <ele>285.64999999999998</ele>
        <time>2025-04-24T09:51:47Z</time>
      </trkpt>
      <trkpt lat="46.015423983335495" lon="4.862519977614284">
        <ele>285.64999999999998</ele>
        <time>2025-04-24T09:51:48Z</time>
      </trkpt>
      <trkpt lat="46.015559015795588" lon="4.861183986067772">
        <ele>284.20999999999998</ele>
        <time>2025-04-24T09:51:56Z</time>
      </trkpt>
      <trkpt lat="46.015651971101761" lon="4.859467959031463">
        <ele>284.20999999999998</ele>
        <time>2025-04-24T09:52:03Z</time>
      </trkpt>
      <trkpt lat="46.015639984980226" lon="4.856750965118408">
        <ele>282.76999999999998</ele>
        <time>2025-04-24T09:52:13Z</time>
      </trkpt>
      <trkpt lat="46.015630010515451" lon="4.854695973917842">
        <ele>281.31999999999999</ele>
        <time>2025-04-24T09:52:22Z</time>
      </trkpt>
      <trkpt lat="46.015621963888407" lon="4.85275698825717">
        <ele>278.92000000000002</ele>
        <time>2025-04-24T09:52:30Z</time>
      </trkpt>
      <trkpt lat="46.01573696359992" lon="4.849870009347796">
        <ele>276.51999999999998</ele>
        <time>2025-04-24T09:52:42Z</time>
      </trkpt>
      <trkpt lat="46.016236022114754" lon="4.847376979887486">
        <ele>276.51999999999998</ele>
        <time>2025-04-24T09:52:53Z</time>
      </trkpt>
      <trkpt lat="46.016878997907043" lon="4.8447220120579">
        <ele>276.04000000000002</ele>
        <time>2025-04-24T09:53:05Z</time>
      </trkpt>
      <trkpt lat="46.017478974536061" lon="4.842276005074382">
        <ele>273.14999999999998</ele>
        <time>2025-04-24T09:53:16Z</time>
      </trkpt>
      <trkpt lat="46.017763959243894" lon="4.840912017971277">
        <ele>272.67000000000002</ele>
        <time>2025-04-24T09:53:23Z</time>
      </trkpt>
      <trkpt lat="46.017903015017509" lon="4.840221013873816">
        <ele>273.14999999999998</ele>
        <time>2025-04-24T09:53:28Z</time>
      </trkpt>
      <trkpt lat="46.017879964783788" lon="4.839949021115899">
        <ele>273.63</ele>
        <time>2025-04-24T09:53:30Z</time>
      </trkpt>
      <trkpt lat="46.017794972285628" lon="4.838957022875547">
        <ele>274.58999999999997</ele>
        <time>2025-04-24T09:53:39Z</time>
      </trkpt>
      <trkpt lat="46.017791032791138" lon="4.838910000398755">
        <ele>275.56</ele>
        <time>2025-04-24T09:53:46Z</time>
      </trkpt>
      <trkpt lat="46.017791032791138" lon="4.838910000398755">
        <ele>275.56</ele>
        <time>2025-04-24T09:53:47Z</time>
      </trkpt>
      <trkpt lat="46.017735963687301" lon="4.838827019557357">
        <ele>275.56</ele>
        <time>2025-04-24T09:53:49Z</time>
      </trkpt>
      <trkpt lat="46.017675027251244" lon="4.838874964043498">
        <ele>275.56</ele>
        <time>2025-04-24T09:53:50Z</time>
      </trkpt>
      <trkpt lat="46.017599003389478" lon="4.838936990126967">
        <ele>275.56</ele>
        <time>2025-04-24T09:53:51Z</time>
      </trkpt>
      <trkpt lat="46.017509987577796" lon="4.83900798484683">
        <ele>275.56</ele>
        <time>2025-04-24T09:53:52Z</time>
      </trkpt>
      <trkpt lat="46.016718987375498" lon="4.839645009487867">
        <ele>275.56</ele>
        <time>2025-04-24T09:53:58Z</time>
      </trkpt>
      <trkpt lat="46.015071021392941" lon="4.840830964967609">
        <ele>276.04000000000002</ele>
        <time>2025-04-24T09:54:07Z</time>
      </trkpt>
      <trkpt lat="46.014355039224029" lon="4.841277971863747">
        <ele>276.04000000000002</ele>
        <time>2025-04-24T09:54:12Z</time>
      </trkpt>
      <trkpt lat="46.014138031750917" lon="4.841417027637363">
        <ele>276.04000000000002</ele>
        <time>2025-04-24T09:54:15Z</time>
      </trkpt>
      <trkpt lat="46.014107018709183" lon="4.84143597073853">
        <ele>276.04000000000002</ele>
        <time>2025-04-24T09:54:16Z</time>
      </trkpt>
      <trkpt lat="46.014025965705514" lon="4.841322982683778">
        <ele>276.04000000000002</ele>
        <time>2025-04-24T09:54:17Z</time>
      </trkpt>
      <trkpt lat="46.01401699706912" lon="4.841244025155902">
        <ele>276.04000000000002</ele>
        <time>2025-04-24T09:54:18Z</time>
      </trkpt>
      <trkpt lat="46.014005010947585" lon="4.841131959110498">
        <ele>276.04000000000002</ele>
        <time>2025-04-24T09:54:19Z</time>
      </trkpt>
      <trkpt lat="46.013990007340908" lon="4.841001033782959">
        <ele>276.04000000000002</ele>
        <time>2025-04-24T09:54:20Z</time>
      </trkpt>
      <trkpt lat="46.013866038993001" lon="4.839658001437783">
        <ele>275.06999999999999</ele>
        <time>2025-04-24T09:54:27Z</time>
      </trkpt>
      <trkpt lat="46.01371600292623" lon="4.838098967447877">
        <ele>272.19</ele>
        <time>2025-04-24T09:54:35Z</time>
      </trkpt>
      <trkpt lat="46.013689013198018" lon="4.837951026856899">
        <ele>272.19</ele>
        <time>2025-04-24T09:54:36Z</time>
      </trkpt>
      <trkpt lat="46.013662023469806" lon="4.837807025760412">
        <ele>272.19</ele>
        <time>2025-04-24T09:54:37Z</time>
      </trkpt>
      <trkpt lat="46.013599997386336" lon="4.837678028270602">
        <ele>272.19</ele>
        <time>2025-04-24T09:54:38Z</time>
      </trkpt>
      <trkpt lat="46.013535959646106" lon="4.83754500746727">
        <ele>271.70999999999998</ele>
        <time>2025-04-24T09:54:39Z</time>
      </trkpt>
      <trkpt lat="46.013466976583004" lon="4.837402012199163">
        <ele>272.19</ele>
        <time>2025-04-24T09:54:40Z</time>
      </trkpt>
      <trkpt lat="46.013170005753636" lon="4.836416970938444">
        <ele>271.70999999999998</ele>
        <time>2025-04-24T09:54:46Z</time>
      </trkpt>
      <trkpt lat="46.013151984661818" lon="4.836270958185196">
        <ele>271.23000000000002</ele>
        <time>2025-04-24T09:54:47Z</time>
      </trkpt>
      <trkpt lat="46.013146033510566" lon="4.836215972900391">
        <ele>271.23000000000002</ele>
        <time>2025-04-24T09:54:48Z</time>
      </trkpt>
      <trkpt lat="46.013108985498548" lon="4.836093010380864">
        <ele>270.75</ele>
        <time>2025-04-24T09:54:49Z</time>
      </trkpt>
      <trkpt lat="46.013086019083858" lon="4.836015980690718">
        <ele>270.26999999999998</ele>
        <time>2025-04-24T09:54:50Z</time>
      </trkpt>
      <trkpt lat="46.013035979121923" lon="4.835979016497731">
        <ele>269.79000000000002</ele>
        <time>2025-04-24T09:54:51Z</time>
      </trkpt>
      <trkpt lat="46.012971019372344" lon="4.835945991799235">
        <ele>269.31</ele>
        <time>2025-04-24T09:54:52Z</time>
      </trkpt>
      <trkpt lat="46.012888038530946" lon="4.835943980142474">
        <ele>268.82999999999998</ele>
        <time>2025-04-24T09:54:53Z</time>
      </trkpt>
      <trkpt lat="46.012802962213755" lon="4.835953032597899">
        <ele>268.35000000000002</ele>
        <time>2025-04-24T09:54:54Z</time>
      </trkpt>
      <trkpt lat="46.012719981372356" lon="4.835960995405912">
        <ele>267.86000000000001</ele>
        <time>2025-04-24T09:54:55Z</time>
      </trkpt>
      <trkpt lat="46.012312034144998" lon="4.836003994569182">
        <ele>265.45999999999998</ele>
        <time>2025-04-24T09:55:00Z</time>
      </trkpt>
      <trkpt lat="46.011756984516978" lon="4.836034001782537">
        <ele>262.57999999999998</ele>
        <time>2025-04-24T09:55:07Z</time>
      </trkpt>
      <trkpt lat="46.011684983968735" lon="4.836029978469014">
        <ele>262.10000000000002</ele>
        <time>2025-04-24T09:55:08Z</time>
      </trkpt>
      <trkpt lat="46.011617006734014" lon="4.836025033146143">
        <ele>261.62</ele>
        <time>2025-04-24T09:55:09Z</time>
      </trkpt>
      <trkpt lat="46.011561015620828" lon="4.835989996790886">
        <ele>261.62</ele>
        <time>2025-04-24T09:55:10Z</time>
      </trkpt>
      <trkpt lat="46.011520028114319" lon="4.835917996242642">
        <ele>261.13999999999999</ele>
        <time>2025-04-24T09:55:11Z</time>
      </trkpt>
      <trkpt lat="46.011484991759062" lon="4.83582797460258">
        <ele>260.64999999999998</ele>
        <time>2025-04-24T09:55:12Z</time>
      </trkpt>
      <trkpt lat="46.011464959010482" lon="4.835722027346492">
        <ele>260.17000000000002</ele>
        <time>2025-04-24T09:55:13Z</time>
      </trkpt>
      <trkpt lat="46.011441992595792" lon="4.835603004321456">
        <ele>259.69</ele>
        <time>2025-04-24T09:55:14Z</time>
      </trkpt>
      <trkpt lat="46.011421959847212" lon="4.835498984903097">
        <ele>258.73000000000002</ele>
        <time>2025-04-24T09:55:15Z</time>
      </trkpt>
      <trkpt lat="46.011407962068915" lon="4.835422039031982">
        <ele>257.29000000000002</ele>
        <time>2025-04-24T09:55:16Z</time>
      </trkpt>
      <trkpt lat="46.011358005926013" lon="4.835359007120132">
        <ele>255.84999999999999</ele>
        <time>2025-04-24T09:55:17Z</time>
      </trkpt>
      <trkpt lat="46.011306960135698" lon="4.835313996300101">
        <ele>254.41</ele>
        <time>2025-04-24T09:55:18Z</time>
      </trkpt>
      <trkpt lat="46.011235965415835" lon="4.835309972986579">
        <ele>252.96000000000001</ele>
        <time>2025-04-24T09:55:19Z</time>
      </trkpt>
      <trkpt lat="46.011163964867592" lon="4.835305027663708">
        <ele>252</ele>
        <time>2025-04-24T09:55:20Z</time>
      </trkpt>
      <trkpt lat="46.011080984026194" lon="4.835299998521805">
        <ele>250.56</ele>
        <time>2025-04-24T09:55:21Z</time>
      </trkpt>
      <trkpt lat="46.010975036770105" lon="4.835294969379902">
        <ele>249.59999999999999</ele>
        <time>2025-04-24T09:55:22Z</time>
      </trkpt>
      <trkpt lat="46.010877974331379" lon="4.835341991856694">
        <ele>249.12</ele>
        <time>2025-04-24T09:55:23Z</time>
      </trkpt>
      <trkpt lat="46.010776972398162" lon="4.835390020161867">
        <ele>248.16</ele>
        <time>2025-04-24T09:55:24Z</time>
      </trkpt>
      <trkpt lat="46.010673958808184" lon="4.83543997630477">
        <ele>247.19999999999999</ele>
        <time>2025-04-24T09:55:25Z</time>
      </trkpt>
      <trkpt lat="46.010571029037237" lon="4.835490016266704">
        <ele>246.22999999999999</ele>
        <time>2025-04-24T09:55:26Z</time>
      </trkpt>
      <trkpt lat="46.009534019976854" lon="4.835860999301076">
        <ele>244.31</ele>
        <time>2025-04-24T09:55:35Z</time>
      </trkpt>
      <trkpt lat="46.008900012820959" lon="4.835862005129457">
        <ele>245.75</ele>
        <time>2025-04-24T09:55:42Z</time>
      </trkpt>
      <trkpt lat="46.008847961202264" lon="4.835858987644315">
        <ele>246.22999999999999</ele>
        <time>2025-04-24T09:55:43Z</time>
      </trkpt>
      <trkpt lat="46.008809991180897" lon="4.835855970159173">
        <ele>246.22999999999999</ele>
        <time>2025-04-24T09:55:44Z</time>
      </trkpt>
      <trkpt lat="46.008779983967543" lon="4.835854964330792">
        <ele>246.22999999999999</ele>
        <time>2025-04-24T09:55:45Z</time>
      </trkpt>
      <trkpt lat="46.008740002289414" lon="4.835754968225956">
        <ele>246.22999999999999</ele>
        <time>2025-04-24T09:55:46Z</time>
      </trkpt>
      <trkpt lat="46.008747965097427" lon="4.835706017911434">
        <ele>246.22999999999999</ele>
        <time>2025-04-24T09:55:47Z</time>
      </trkpt>
      <trkpt lat="46.008760035037994" lon="4.835628988221288">
        <ele>246.22999999999999</ele>
        <time>2025-04-24T09:55:48Z</time>
      </trkpt>
      <trkpt lat="46.00877596065402" lon="4.83552597463131">
        <ele>246.22999999999999</ele>
        <time>2025-04-24T09:55:49Z</time>
      </trkpt>
      <trkpt lat="46.008792975917459" lon="4.835410974919796">
        <ele>246.72</ele>
        <time>2025-04-24T09:55:50Z</time>
      </trkpt>
      <trkpt lat="46.008853996172547" lon="4.835014007985592">
        <ele>248.16</ele>
        <time>2025-04-24T09:55:53Z</time>
      </trkpt>
      <trkpt lat="46.008844021707773" lon="4.834095016121864">
        <ele>250.08000000000001</ele>
        <time>2025-04-24T09:56:00Z</time>
      </trkpt>
      <trkpt lat="46.00881895981729" lon="4.833969036117196">
        <ele>250.08000000000001</ele>
        <time>2025-04-24T09:56:01Z</time>
      </trkpt>
      <trkpt lat="46.008775038644671" lon="4.833845989778638">
        <ele>250.56</ele>
        <time>2025-04-24T09:56:02Z</time>
      </trkpt>
      <trkpt lat="46.008717035874724" lon="4.833714980632067">
        <ele>250.08000000000001</ele>
        <time>2025-04-24T09:56:03Z</time>
      </trkpt>
      <trkpt lat="46.008646041154861" lon="4.833587994799018">
        <ele>250.08000000000001</ele>
        <time>2025-04-24T09:56:04Z</time>
      </trkpt>
      <trkpt lat="46.007885970175266" lon="4.832212021574378">
        <ele>251.03999999999999</ele>
        <time>2025-04-24T09:56:12Z</time>
      </trkpt>
      <trkpt lat="46.00711802020669" lon="4.830249985679984">
        <ele>252</ele>
        <time>2025-04-24T09:56:21Z</time>
      </trkpt>
      <trkpt lat="46.006843009963632" lon="4.828017968684435">
        <ele>252</ele>
        <time>2025-04-24T09:56:30Z</time>
      </trkpt>
      <trkpt lat="46.006637988612056" lon="4.825633987784386">
        <ele>252</ele>
        <time>2025-04-24T09:56:41Z</time>
      </trkpt>
      <trkpt lat="46.006594989448786" lon="4.825461991131306">
        <ele>252</ele>
        <time>2025-04-24T09:56:42Z</time>
      </trkpt>
      <trkpt lat="46.006546039134264" lon="4.825291000306606">
        <ele>252</ele>
        <time>2025-04-24T09:56:43Z</time>
      </trkpt>
      <trkpt lat="46.006465991958976" lon="4.825130989775062">
        <ele>252</ele>
        <time>2025-04-24T09:56:44Z</time>
      </trkpt>
      <trkpt lat="46.006385022774339" lon="4.824967961758375">
        <ele>252</ele>
        <time>2025-04-24T09:56:45Z</time>
      </trkpt>
      <trkpt lat="46.005466030910611" lon="4.823561981320381">
        <ele>254.41</ele>
        <time>2025-04-24T09:56:55Z</time>
      </trkpt>
      <trkpt lat="46.004598001018167" lon="4.82263301499188">
        <ele>257.29000000000002</ele>
        <time>2025-04-24T09:57:04Z</time>
      </trkpt>
      <trkpt lat="46.004417035728693" lon="4.822273012250662">
        <ele>258.25</ele>
        <time>2025-04-24T09:57:10Z</time>
      </trkpt>
      <trkpt lat="46.004426004365087" lon="4.822201011702418">
        <ele>258.73000000000002</ele>
        <time>2025-04-24T09:57:11Z</time>
      </trkpt>
      <trkpt lat="46.004437990486622" lon="4.822100009769201">
        <ele>258.73000000000002</ele>
        <time>2025-04-24T09:57:12Z</time>
      </trkpt>
      <trkpt lat="46.004588026553392" lon="4.820878012105823">
        <ele>259.20999999999998</ele>
        <time>2025-04-24T09:57:19Z</time>
      </trkpt>
      <trkpt lat="46.004849961027503" lon="4.818731993436813">
        <ele>259.69</ele>
        <time>2025-04-24T09:57:29Z</time>
      </trkpt>
      <trkpt lat="46.004995973780751" lon="4.818097986280918">
        <ele>260.64999999999998</ele>
        <time>2025-04-24T09:57:34Z</time>
      </trkpt>
      <trkpt lat="46.005053976550698" lon="4.818021040409803">
        <ele>261.13999999999999</ele>
        <time>2025-04-24T09:57:35Z</time>
      </trkpt>
      <trkpt lat="46.005127988755703" lon="4.817948034033179">
        <ele>261.13999999999999</ele>
        <time>2025-04-24T09:57:36Z</time>
      </trkpt>
      <trkpt lat="46.005180040374398" lon="4.817857006564736">
        <ele>261.13999999999999</ele>
        <time>2025-04-24T09:57:37Z</time>
      </trkpt>
      <trkpt lat="46.005184985697269" lon="4.81773697771132">
        <ele>261.13999999999999</ele>
        <time>2025-04-24T09:57:38Z</time>
      </trkpt>
      <trkpt lat="46.005184985697269" lon="4.817655002698302">
        <ele>261.13999999999999</ele>
        <time>2025-04-24T09:57:39Z</time>
      </trkpt>
      <trkpt lat="46.005138969048858" lon="4.817487029358745">
        <ele>261.13999999999999</ele>
        <time>2025-04-24T09:57:40Z</time>
      </trkpt>
      <trkpt lat="46.005132012069225" lon="4.817334981635213">
        <ele>261.13999999999999</ele>
        <time>2025-04-24T09:57:41Z</time>
      </trkpt>
      <trkpt lat="46.005123965442181" lon="4.817171031609178">
        <ele>260.64999999999998</ele>
        <time>2025-04-24T09:57:42Z</time>
      </trkpt>
      <trkpt lat="46.005123965442181" lon="4.816992999985814">
        <ele>260.64999999999998</ele>
        <time>2025-04-24T09:57:43Z</time>
      </trkpt>
      <trkpt lat="46.005136035382748" lon="4.816616987809539">
        <ele>260.64999999999998</ele>
        <time>2025-04-24T09:57:45Z</time>
      </trkpt>
      <trkpt lat="46.005355976521969" lon="4.814718989655376">
        <ele>259.69</ele>
        <time>2025-04-24T09:57:53Z</time>
      </trkpt>
      <trkpt lat="46.005850005894899" lon="4.811025001108646">
        <ele>267.86000000000001</ele>
        <time>2025-04-24T09:58:08Z</time>
      </trkpt>
      <trkpt lat="46.006355015560985" lon="4.807470990344882">
        <ele>269.79000000000002</ele>
        <time>2025-04-24T09:58:22Z</time>
      </trkpt>
      <trkpt lat="46.0069689899683" lon="4.803084991872311">
        <ele>269.31</ele>
        <time>2025-04-24T09:58:38Z</time>
      </trkpt>
      <trkpt lat="46.007274007424712" lon="4.799720998853445">
        <ele>268.35000000000002</ele>
        <time>2025-04-24T09:58:49Z</time>
      </trkpt>
      <trkpt lat="46.007094969972968" lon="4.797314973548055">
        <ele>266.89999999999998</ele>
        <time>2025-04-24T09:58:58Z</time>
      </trkpt>
      <trkpt lat="46.007066974416375" lon="4.795043980702758">
        <ele>264.98000000000002</ele>
        <time>2025-04-24T09:59:07Z</time>
      </trkpt>
      <trkpt lat="46.006988016888499" lon="4.794046031311154">
        <ele>263.06</ele>
        <time>2025-04-24T09:59:13Z</time>
      </trkpt>
      <trkpt lat="46.006988016888499" lon="4.793927008286119">
        <ele>263.06</ele>
        <time>2025-04-24T09:59:14Z</time>
      </trkpt>
      <trkpt lat="46.007038978859782" lon="4.793703965842724">
        <ele>262.57999999999998</ele>
        <time>2025-04-24T09:59:16Z</time>
      </trkpt>
      <trkpt lat="46.007045013830066" lon="4.793577985838056">
        <ele>262.57999999999998</ele>
        <time>2025-04-24T09:59:17Z</time>
      </trkpt>
      <trkpt lat="46.007035039365292" lon="4.79345602914691">
        <ele>262.57999999999998</ele>
        <time>2025-04-24T09:59:18Z</time>
      </trkpt>
      <trkpt lat="46.006965972483158" lon="4.793186970055103">
        <ele>262.57999999999998</ele>
        <time>2025-04-24T09:59:20Z</time>
      </trkpt>
      <trkpt lat="46.006965972483158" lon="4.793018996715546">
        <ele>262.57999999999998</ele>
        <time>2025-04-24T09:59:21Z</time>
      </trkpt>
      <trkpt lat="46.006965972483158" lon="4.79283501394093">
        <ele>262.10000000000002</ele>
        <time>2025-04-24T09:59:22Z</time>
      </trkpt>
      <trkpt lat="46.007190020754933" lon="4.790967023000121">
        <ele>260.64999999999998</ele>
        <time>2025-04-24T09:59:30Z</time>
      </trkpt>
      <trkpt lat="46.007267972454429" lon="4.787558019161224">
        <ele>258.25</ele>
        <time>2025-04-24T09:59:42Z</time>
      </trkpt>
      <trkpt lat="46.007323963567615" lon="4.783506039530039">
        <ele>256.32999999999998</ele>
        <time>2025-04-24T09:59:56Z</time>
      </trkpt>
      <trkpt lat="46.007308959960937" lon="4.779564030468464">
        <ele>254.41</ele>
        <time>2025-04-24T10:00:10Z</time>
      </trkpt>
      <trkpt lat="46.007295968011022" lon="4.778275983408094">
        <ele>254.41</ele>
        <time>2025-04-24T10:00:16Z</time>
      </trkpt>
      <trkpt lat="46.007288005203009" lon="4.777728980407119">
        <ele>253.93000000000001</ele>
        <time>2025-04-24T10:00:20Z</time>
      </trkpt>
      <trkpt lat="46.007374003529549" lon="4.777571987360716">
        <ele>253.93000000000001</ele>
        <time>2025-04-24T10:00:21Z</time>
      </trkpt>
      <trkpt lat="46.007438963279128" lon="4.77740996517241">
        <ele>253.93000000000001</ele>
        <time>2025-04-24T10:00:23Z</time>
      </trkpt>
      <trkpt lat="46.007423959672451" lon="4.777267975732684">
        <ele>253.93000000000001</ele>
        <time>2025-04-24T10:00:24Z</time>
      </trkpt>
      <trkpt lat="46.007384983822703" lon="4.777170997112989">
        <ele>254.41</ele>
        <time>2025-04-24T10:00:25Z</time>
      </trkpt>
      <trkpt lat="46.007374003529549" lon="4.777143001556397">
        <ele>254.41</ele>
        <time>2025-04-24T10:00:26Z</time>
      </trkpt>
      <trkpt lat="46.007276019081473" lon="4.77697997353971">
        <ele>253.93000000000001</ele>
        <time>2025-04-24T10:00:27Z</time>
      </trkpt>
      <trkpt lat="46.007265960797668" lon="4.776860028505325">
        <ele>253.93000000000001</ele>
        <time>2025-04-24T10:00:28Z</time>
      </trkpt>
      <trkpt lat="46.007263027131557" lon="4.776733964681625">
        <ele>253.93000000000001</ele>
        <time>2025-04-24T10:00:29Z</time>
      </trkpt>
      <trkpt lat="46.007237965241075" lon="4.77538799867034">
        <ele>254.41</ele>
        <time>2025-04-24T10:00:37Z</time>
      </trkpt>
      <trkpt lat="46.007196977734566" lon="4.77255399338901">
        <ele>253.44</ele>
        <time>2025-04-24T10:00:50Z</time>
      </trkpt>
      <trkpt lat="46.006877962499857" lon="4.770451979711652">
        <ele>252.96000000000001</ele>
        <time>2025-04-24T10:00:58Z</time>
      </trkpt>
      <trkpt lat="46.006419975310564" lon="4.76827603764832">
        <ele>251.52000000000001</ele>
        <time>2025-04-24T10:01:09Z</time>
      </trkpt>
      <trkpt lat="46.006356021389365" lon="4.767712019383907">
        <ele>251.52000000000001</ele>
        <time>2025-04-24T10:01:15Z</time>
      </trkpt>
      <trkpt lat="46.006348980590701" lon="4.767623003572226">
        <ele>251.52000000000001</ele>
        <time>2025-04-24T10:01:16Z</time>
      </trkpt>
      <trkpt lat="46.00634403526783" lon="4.767551003023982">
        <ele>251.52000000000001</ele>
        <time>2025-04-24T10:01:17Z</time>
      </trkpt>
      <trkpt lat="46.006414024159312" lon="4.767294013872743">
        <ele>251.52000000000001</ele>
        <time>2025-04-24T10:01:20Z</time>
      </trkpt>
      <trkpt lat="46.006392985582352" lon="4.76722402498126">
        <ele>251.52000000000001</ele>
        <time>2025-04-24T10:01:21Z</time>
      </trkpt>
      <trkpt lat="46.006357027217746" lon="4.767157975584269">
        <ele>251.52000000000001</ele>
        <time>2025-04-24T10:01:22Z</time>
      </trkpt>
      <trkpt lat="46.006320985034108" lon="4.76709502749145">
        <ele>251.52000000000001</ele>
        <time>2025-04-24T10:01:23Z</time>
      </trkpt>
      <trkpt lat="46.006258958950639" lon="4.767066026106477">
        <ele>251.52000000000001</ele>
        <time>2025-04-24T10:01:24Z</time>
      </trkpt>
      <trkpt lat="46.006205985322595" lon="4.767077006399632">
        <ele>251.52000000000001</ele>
        <time>2025-04-24T10:01:25Z</time>
      </trkpt>
      <trkpt lat="46.006147982552648" lon="4.767087986692786">
        <ele>251.52000000000001</ele>
        <time>2025-04-24T10:01:26Z</time>
      </trkpt>
      <trkpt lat="46.006086962297559" lon="4.767100978642702">
        <ele>251.52000000000001</ele>
        <time>2025-04-24T10:01:27Z</time>
      </trkpt>
      <trkpt lat="46.006063995882869" lon="4.767172979190946">
        <ele>251.52000000000001</ele>
        <time>2025-04-24T10:01:28Z</time>
      </trkpt>
      <trkpt lat="46.006040023639798" lon="4.767251014709473">
        <ele>251.52000000000001</ele>
        <time>2025-04-24T10:01:29Z</time>
      </trkpt>
      <trkpt lat="46.005856962874532" lon="4.767393004149199">
        <ele>251.52000000000001</ele>
        <time>2025-04-24T10:01:31Z</time>
      </trkpt>
      <trkpt lat="46.005769036710262" lon="4.767400966957212">
        <ele>251.52000000000001</ele>
        <time>2025-04-24T10:01:32Z</time>
      </trkpt>
      <trkpt lat="46.005040984600782" lon="4.767428040504456">
        <ele>251.03999999999999</ele>
        <time>2025-04-24T10:01:37Z</time>
      </trkpt>
      <trkpt lat="46.003598961979151" lon="4.767530970275402">
        <ele>251.03999999999999</ele>
        <time>2025-04-24T10:01:43Z</time>
      </trkpt>
      <trkpt lat="46.00204998627305" lon="4.767641024664044">
        <ele>250.08000000000001</ele>
        <time>2025-04-24T10:01:50Z</time>
      </trkpt>
      <trkpt lat="45.999432988464832" lon="4.767561983317137">
        <ele>249.12</ele>
        <time>2025-04-24T10:02:03Z</time>
      </trkpt>
      <trkpt lat="45.998117029666901" lon="4.767024032771587">
        <ele>249.59999999999999</ele>
        <time>2025-04-24T10:02:11Z</time>
      </trkpt>
      <trkpt lat="45.99764596670866" lon="4.766812976449728">
        <ele>249.59999999999999</ele>
        <time>2025-04-24T10:02:15Z</time>
      </trkpt>
      <trkpt lat="45.99755896255374" lon="4.766766037791967">
        <ele>249.59999999999999</ele>
        <time>2025-04-24T10:02:16Z</time>
      </trkpt>
      <trkpt lat="45.997525015845895" lon="4.766522040590644">
        <ele>249.59999999999999</ele>
        <time>2025-04-24T10:02:17Z</time>
      </trkpt>
      <trkpt lat="45.997420996427536" lon="4.766358006745577">
        <ele>250.08000000000001</ele>
        <time>2025-04-24T10:02:19Z</time>
      </trkpt>
      <trkpt lat="45.997319994494319" lon="4.766268990933895">
        <ele>250.56</ele>
        <time>2025-04-24T10:02:20Z</time>
      </trkpt>
      <trkpt lat="45.997271966189146" lon="4.766113003715873">
        <ele>250.56</ele>
        <time>2025-04-24T10:02:21Z</time>
      </trkpt>
      <trkpt lat="45.997219998389482" lon="4.765945030376315">
        <ele>250.56</ele>
        <time>2025-04-24T10:02:22Z</time>
      </trkpt>
      <trkpt lat="45.997159983962774" lon="4.765748977661133">
        <ele>250.56</ele>
        <time>2025-04-24T10:02:23Z</time>
      </trkpt>
      <trkpt lat="45.996844992041588" lon="4.763820972293615">
        <ele>245.75</ele>
        <time>2025-04-24T10:02:31Z</time>
      </trkpt>
      <trkpt lat="45.996594959869981" lon="4.760977998375893">
        <ele>232.30000000000001</ele>
        <time>2025-04-24T10:02:42Z</time>
      </trkpt>
      <trkpt lat="45.996364960446954" lon="4.757809974253178">
        <ele>215.47</ele>
        <time>2025-04-24T10:02:55Z</time>
      </trkpt>
      <trkpt lat="45.996366972103715" lon="4.757130034267902">
        <ele>211.63</ele>
        <time>2025-04-24T10:02:58Z</time>
      </trkpt>
      <trkpt lat="45.99637895822525" lon="4.756915038451552">
        <ele>210.19</ele>
        <time>2025-04-24T10:02:59Z</time>
      </trkpt>
      <trkpt lat="45.996580962091684" lon="4.75536597892642">
        <ele>200.09</ele>
        <time>2025-04-24T10:03:06Z</time>
      </trkpt>
      <trkpt lat="45.996580962091684" lon="4.755127010867">
        <ele>198.65000000000001</ele>
        <time>2025-04-24T10:03:07Z</time>
      </trkpt>
      <trkpt lat="45.996563024818897" lon="4.754889970645309">
        <ele>197.21000000000001</ele>
        <time>2025-04-24T10:03:08Z</time>
      </trkpt>
      <trkpt lat="45.996531005948782" lon="4.754658965393901">
        <ele>196.25</ele>
        <time>2025-04-24T10:03:09Z</time>
      </trkpt>
      <trkpt lat="45.996494963765144" lon="4.754398036748171">
        <ele>194.80000000000001</ele>
        <time>2025-04-24T10:03:10Z</time>
      </trkpt>
      <trkpt lat="45.996432015672326" lon="4.754241965711117">
        <ele>193.84</ele>
        <time>2025-04-24T10:03:11Z</time>
      </trkpt>
      <trkpt lat="45.996364038437605" lon="4.754070974886417">
        <ele>192.88</ele>
        <time>2025-04-24T10:03:12Z</time>
      </trkpt>
      <trkpt lat="45.996300000697374" lon="4.753911970183253">
        <ele>191.91999999999999</ele>
        <time>2025-04-24T10:03:13Z</time>
      </trkpt>
      <trkpt lat="45.996228000149131" lon="4.753769980743527">
        <ele>190.47999999999999</ele>
        <time>2025-04-24T10:03:14Z</time>
      </trkpt>
      <trkpt lat="45.996154993772507" lon="4.753642994910479">
        <ele>189.52000000000001</ele>
        <time>2025-04-24T10:03:15Z</time>
      </trkpt>
      <trkpt lat="45.995961036533117" lon="4.753184001892805">
        <ele>185.66999999999999</ele>
        <time>2025-04-24T10:03:19Z</time>
      </trkpt>
      <trkpt lat="45.995915019884706" lon="4.753067996352911">
        <ele>184.71000000000001</ele>
        <time>2025-04-24T10:03:20Z</time>
      </trkpt>
      <trkpt lat="45.99590596742928" lon="4.752797009423375">
        <ele>184.22999999999999</ele>
        <time>2025-04-24T10:03:22Z</time>
      </trkpt>
      <trkpt lat="45.995846958830953" lon="4.752691984176636">
        <ele>183.75</ele>
        <time>2025-04-24T10:03:23Z</time>
      </trkpt>
      <trkpt lat="45.995830027386546" lon="4.752659965306521">
        <ele>183.75</ele>
        <time>2025-04-24T10:03:24Z</time>
      </trkpt>
      <trkpt lat="45.995746962726116" lon="4.752427032217383">
        <ele>183.27000000000001</ele>
        <time>2025-04-24T10:03:25Z</time>
      </trkpt>
      <trkpt lat="45.995774958282709" lon="4.752288982272148">
        <ele>183.27000000000001</ele>
        <time>2025-04-24T10:03:26Z</time>
      </trkpt>
      <trkpt lat="45.995807982981205" lon="4.752123020589352">
        <ele>183.27000000000001</ele>
        <time>2025-04-24T10:03:27Z</time>
      </trkpt>
      <trkpt lat="45.99584000185132" lon="4.751995028927922">
        <ele>182.78999999999999</ele>
        <time>2025-04-24T10:03:28Z</time>
      </trkpt>
      <trkpt lat="45.996301006525755" lon="4.75029299966991">
        <ele>188.08000000000001</ele>
        <time>2025-04-24T10:03:38Z</time>
      </trkpt>
      <trkpt lat="45.997026963159442" lon="4.747684970498085">
        <ele>185.66999999999999</ele>
        <time>2025-04-24T10:03:51Z</time>
      </trkpt>
      <trkpt lat="45.997103992849588" lon="4.747482966631651">
        <ele>184.71000000000001</ele>
        <time>2025-04-24T10:03:52Z</time>
      </trkpt>
      <trkpt lat="45.997195020318031" lon="4.747280962765217">
        <ele>183.27000000000001</ele>
        <time>2025-04-24T10:03:53Z</time>
      </trkpt>
      <trkpt lat="45.997308008372784" lon="4.747093040496111">
        <ele>182.78999999999999</ele>
        <time>2025-04-24T10:03:54Z</time>
      </trkpt>
      <trkpt lat="45.997443040832877" lon="4.746932024136186">
        <ele>181.83000000000001</ele>
        <time>2025-04-24T10:03:55Z</time>
      </trkpt>
      <trkpt lat="45.99757899530232" lon="4.74677000194788">
        <ele>181.34999999999999</ele>
        <time>2025-04-24T10:03:56Z</time>
      </trkpt>
      <trkpt lat="45.99912797100842" lon="4.745092028751969">
        <ele>177.5</ele>
        <time>2025-04-24T10:04:08Z</time>
      </trkpt>
      <trkpt lat="45.999400969594717" lon="4.744812995195389">
        <ele>177.02000000000001</ele>
        <time>2025-04-24T10:04:10Z</time>
      </trkpt>
      <trkpt lat="45.999511023983359" lon="4.744635969400406">
        <ele>177.02000000000001</ele>
        <time>2025-04-24T10:04:11Z</time>
      </trkpt>
      <trkpt lat="45.999618982896209" lon="4.74445098079741">
        <ele>177.02000000000001</ele>
        <time>2025-04-24T10:04:12Z</time>
      </trkpt>
      <trkpt lat="45.999695006757975" lon="4.744250988587737">
        <ele>177.02000000000001</ele>
        <time>2025-04-24T10:04:13Z</time>
      </trkpt>
      <trkpt lat="45.999769018962979" lon="4.744058037176728">
        <ele>177.02000000000001</ele>
        <time>2025-04-24T10:04:14Z</time>
      </trkpt>
      <trkpt lat="45.999789973720908" lon="4.743822002783418">
        <ele>177.02000000000001</ele>
        <time>2025-04-24T10:04:15Z</time>
      </trkpt>
      <trkpt lat="45.999801959842443" lon="4.74361002445221">
        <ele>177.02000000000001</ele>
        <time>2025-04-24T10:04:16Z</time>
      </trkpt>
      <trkpt lat="45.99981402978301" lon="4.74339796230197">
        <ele>177.02000000000001</ele>
        <time>2025-04-24T10:04:17Z</time>
      </trkpt>
      <trkpt lat="45.999801037833095" lon="4.743173997849226">
        <ele>177.02000000000001</ele>
        <time>2025-04-24T10:04:18Z</time>
      </trkpt>
      <trkpt lat="45.999763989821076" lon="4.742971993982792">
        <ele>177.02000000000001</ele>
        <time>2025-04-24T10:04:19Z</time>
      </trkpt>
      <trkpt lat="45.999725013971329" lon="4.7427730076015">
        <ele>176.53999999999999</ele>
        <time>2025-04-24T10:04:20Z</time>
      </trkpt>
      <trkpt lat="45.999673968181014" lon="4.742579972371459">
        <ele>176.53999999999999</ele>
        <time>2025-04-24T10:04:21Z</time>
      </trkpt>
      <trkpt lat="45.999624012038112" lon="4.742389032617211">
        <ele>176.53999999999999</ele>
        <time>2025-04-24T10:04:22Z</time>
      </trkpt>
      <trkpt lat="45.999572966247797" lon="4.742201026529074">
        <ele>177.02000000000001</ele>
        <time>2025-04-24T10:04:23Z</time>
      </trkpt>
      <trkpt lat="45.999523010104895" lon="4.742013020440936">
        <ele>177.02000000000001</ele>
        <time>2025-04-24T10:04:24Z</time>
      </trkpt>
      <trkpt lat="45.999055970460176" lon="4.740334963425994">
        <ele>176.53999999999999</ele>
        <time>2025-04-24T10:04:34Z</time>
      </trkpt>
      <trkpt lat="45.998865030705929" lon="4.739817967638373">
        <ele>177.5</ele>
        <time>2025-04-24T10:04:38Z</time>
      </trkpt>
      <trkpt lat="45.998798981308937" lon="4.739707997068763">
        <ele>177.97999999999999</ele>
        <time>2025-04-24T10:04:39Z</time>
      </trkpt>
      <trkpt lat="45.998719017952681" lon="4.739628033712506">
        <ele>178.46000000000001</ele>
        <time>2025-04-24T10:04:40Z</time>
      </trkpt>
      <trkpt lat="45.998642994090915" lon="4.73955200985074">
        <ele>178.46000000000001</ele>
        <time>2025-04-24T10:04:41Z</time>
      </trkpt>
      <trkpt lat="45.998597983270884" lon="4.739505993202329">
        <ele>179.41999999999999</ele>
        <time>2025-04-24T10:04:42Z</time>
      </trkpt>
      <trkpt lat="45.998378964141011" lon="4.739214973524213">
        <ele>182.31</ele>
        <time>2025-04-24T10:04:47Z</time>
      </trkpt>
      <trkpt lat="45.998334037140012" lon="4.739154037088156">
        <ele>182.31</ele>
        <time>2025-04-24T10:04:48Z</time>
      </trkpt>
      <trkpt lat="45.998285003006458" lon="4.739089999347925">
        <ele>182.78999999999999</ele>
        <time>2025-04-24T10:04:49Z</time>
      </trkpt>
      <trkpt lat="45.998227000236511" lon="4.738901993259788">
        <ele>182.78999999999999</ele>
        <time>2025-04-24T10:04:50Z</time>
      </trkpt>
      <trkpt lat="45.998247032985091" lon="4.738781964406371">
        <ele>183.27000000000001</ele>
        <time>2025-04-24T10:04:51Z</time>
      </trkpt>
      <trkpt lat="45.998271005228162" lon="4.738642992451787">
        <ele>183.27000000000001</ele>
        <time>2025-04-24T10:04:52Z</time>
      </trkpt>
      <trkpt lat="45.998296989127994" lon="4.738493962213397">
        <ele>183.27000000000001</ele>
        <time>2025-04-24T10:04:53Z</time>
      </trkpt>
      <trkpt lat="45.998362032696605" lon="4.737115977331996">
        <ele>184.71000000000001</ele>
        <time>2025-04-24T10:05:01Z</time>
      </trkpt>
      <trkpt lat="45.998090961948037" lon="4.735508998855948">
        <ele>188.08000000000001</ele>
        <time>2025-04-24T10:05:11Z</time>
      </trkpt>
      <trkpt lat="45.997935980558395" lon="4.734530998393893">
        <ele>187.11000000000001</ele>
        <time>2025-04-24T10:05:19Z</time>
      </trkpt>
      <trkpt lat="45.997913014143705" lon="4.734326982870698">
        <ele>186.63</ele>
        <time>2025-04-24T10:05:21Z</time>
      </trkpt>
      <trkpt lat="45.997970011085272" lon="4.734231010079384">
        <ele>186.63</ele>
        <time>2025-04-24T10:05:22Z</time>
      </trkpt>
      <trkpt lat="45.998018039390445" lon="4.734102012589574">
        <ele>186.63</ele>
        <time>2025-04-24T10:05:23Z</time>
      </trkpt>
      <trkpt lat="45.998018039390445" lon="4.734012996777892">
        <ele>186.63</ele>
        <time>2025-04-24T10:05:24Z</time>
      </trkpt>
      <trkpt lat="45.997911002486944" lon="4.733905959874392">
        <ele>186.63</ele>
        <time>2025-04-24T10:05:25Z</time>
      </trkpt>
      <trkpt lat="45.997873032465577" lon="4.733811998739839">
        <ele>186.63</ele>
        <time>2025-04-24T10:05:26Z</time>
      </trkpt>
      <trkpt lat="45.997825004160404" lon="4.733690964058042">
        <ele>186.63</ele>
        <time>2025-04-24T10:05:27Z</time>
      </trkpt>
      <trkpt lat="45.997799020260572" lon="4.733564984053373">
        <ele>186.63</ele>
        <time>2025-04-24T10:05:28Z</time>
      </trkpt>
      <trkpt lat="45.997768007218838" lon="4.733418971300125">
        <ele>186.63</ele>
        <time>2025-04-24T10:05:29Z</time>
      </trkpt>
      <trkpt lat="45.99742703139782" lon="4.731670003384352">
        <ele>187.11000000000001</ele>
        <time>2025-04-24T10:05:39Z</time>
      </trkpt>
      <trkpt lat="45.997156966477633" lon="4.730197973549366">
        <ele>188.08000000000001</ele>
        <time>2025-04-24T10:05:47Z</time>
      </trkpt>
      <trkpt lat="45.997139029204845" lon="4.730085991322994">
        <ele>188.56</ele>
        <time>2025-04-24T10:05:48Z</time>
      </trkpt>
      <trkpt lat="45.997139029204845" lon="4.729982977733016">
        <ele>188.56</ele>
        <time>2025-04-24T10:05:49Z</time>
      </trkpt>
      <trkpt lat="45.997139029204845" lon="4.729873007163405">
        <ele>188.56</ele>
        <time>2025-04-24T10:05:50Z</time>
      </trkpt>
      <trkpt lat="45.997141040861607" lon="4.729758007451892">
        <ele>188.56</ele>
        <time>2025-04-24T10:05:51Z</time>
      </trkpt>
      <trkpt lat="45.99719300866127" lon="4.72964602522552">
        <ele>189.03999999999999</ele>
        <time>2025-04-24T10:05:52Z</time>
      </trkpt>
      <trkpt lat="45.997242964804173" lon="4.729494983330369">
        <ele>189.03999999999999</ele>
        <time>2025-04-24T10:05:53Z</time>
      </trkpt>
      <trkpt lat="45.997231984511018" lon="4.729349976405501">
        <ele>189.03999999999999</ele>
        <time>2025-04-24T10:05:54Z</time>
      </trkpt>
      <trkpt lat="45.997208012267947" lon="4.729213016107678">
        <ele>189.52000000000001</ele>
        <time>2025-04-24T10:05:55Z</time>
      </trkpt>
      <trkpt lat="45.997159983962774" lon="4.729104973375797">
        <ele>189.52000000000001</ele>
        <time>2025-04-24T10:05:56Z</time>
      </trkpt>
      <trkpt lat="45.997091000899673" lon="4.729032972827554">
        <ele>190</ele>
        <time>2025-04-24T10:05:57Z</time>
      </trkpt>
      <trkpt lat="45.997011037543416" lon="4.728992991149426">
        <ele>190</ele>
        <time>2025-04-24T10:05:58Z</time>
      </trkpt>
      <trkpt lat="45.996967032551765" lon="4.728971030563116">
        <ele>190</ele>
        <time>2025-04-24T10:05:59Z</time>
      </trkpt>
      <trkpt lat="45.996880028396845" lon="4.728819988667965">
        <ele>190</ele>
        <time>2025-04-24T10:06:00Z</time>
      </trkpt>
      <trkpt lat="45.996823031455278" lon="4.72872301004827">
        <ele>190.47999999999999</ele>
        <time>2025-04-24T10:06:01Z</time>
      </trkpt>
      <trkpt lat="45.996771985664964" lon="4.728635000064969">
        <ele>190.47999999999999</ele>
        <time>2025-04-24T10:06:02Z</time>
      </trkpt>
      <trkpt lat="45.996728986501694" lon="4.72855101339519">
        <ele>190.47999999999999</ele>
        <time>2025-04-24T10:06:03Z</time>
      </trkpt>
      <trkpt lat="45.996706020087004" lon="4.728432996198535">
        <ele>190.96000000000001</ele>
        <time>2025-04-24T10:06:04Z</time>
      </trkpt>
      <trkpt lat="45.996457999572158" lon="4.72717696800828">
        <ele>191.91999999999999</ele>
        <time>2025-04-24T10:06:13Z</time>
      </trkpt>
      <trkpt lat="45.99620302207768" lon="4.725954970344901">
        <ele>191.91999999999999</ele>
        <time>2025-04-24T10:06:22Z</time>
      </trkpt>
      <trkpt lat="45.996174020692706" lon="4.725806023925543">
        <ele>191.91999999999999</ele>
        <time>2025-04-24T10:06:24Z</time>
      </trkpt>
      <trkpt lat="45.996177038177848" lon="4.725645007565618">
        <ele>191.91999999999999</ele>
        <time>2025-04-24T10:06:25Z</time>
      </trkpt>
      <trkpt lat="45.996216014027596" lon="4.725579963997006">
        <ele>191.91999999999999</ele>
        <time>2025-04-24T10:06:26Z</time>
      </trkpt>
      <trkpt lat="45.996208973228931" lon="4.725547023117542">
        <ele>191.91999999999999</ele>
        <time>2025-04-24T10:06:27Z</time>
      </trkpt>
      <trkpt lat="45.996193969622254" lon="4.725473010912538">
        <ele>191.91999999999999</ele>
        <time>2025-04-24T10:06:28Z</time>
      </trkpt>
      <trkpt lat="45.996120041236281" lon="4.725382989272475">
        <ele>191.91999999999999</ele>
        <time>2025-04-24T10:06:29Z</time>
      </trkpt>
      <trkpt lat="45.99609699100256" lon="4.725278969854116">
        <ele>191.91999999999999</ele>
        <time>2025-04-24T10:06:30Z</time>
      </trkpt>
      <trkpt lat="45.996072012931108" lon="4.725165981799364">
        <ele>191.91999999999999</ele>
        <time>2025-04-24T10:06:31Z</time>
      </trkpt>
      <trkpt lat="45.995737994089723" lon="4.723757989704609">
        <ele>194.80000000000001</ele>
        <time>2025-04-24T10:06:40Z</time>
      </trkpt>
      <trkpt lat="45.995341027155519" lon="4.7223009634763">
        <ele>199.13</ele>
        <time>2025-04-24T10:06:49Z</time>
      </trkpt>
      <trkpt lat="45.99530003964901" lon="4.721888992935419">
        <ele>197.69</ele>
        <time>2025-04-24T10:06:52Z</time>
      </trkpt>
      <trkpt lat="45.995300961658359" lon="4.721635021269321">
        <ele>197.21000000000001</ele>
        <time>2025-04-24T10:06:54Z</time>
      </trkpt>
      <trkpt lat="45.995328035205603" lon="4.720976036041975">
        <ele>194.31999999999999</ele>
        <time>2025-04-24T10:07:03Z</time>
      </trkpt>
      <trkpt lat="45.995334992185235" lon="4.720851983875036">
        <ele>194.31999999999999</ele>
        <time>2025-04-24T10:07:05Z</time>
      </trkpt>
      <trkpt lat="45.995335998013616" lon="4.72083798609674">
        <ele>193.84</ele>
        <time>2025-04-24T10:07:06Z</time>
      </trkpt>
      <trkpt lat="45.995400035753846" lon="4.720749976113439">
        <ele>193.84</ele>
        <time>2025-04-24T10:07:07Z</time>
      </trkpt>
      <trkpt lat="45.995400035753846" lon="4.72070898860693">
        <ele>193.84</ele>
        <time>2025-04-24T10:07:08Z</time>
      </trkpt>
      <trkpt lat="45.995357958599925" lon="4.720645034685731">
        <ele>193.84</ele>
        <time>2025-04-24T10:07:09Z</time>
      </trkpt>
      <trkpt lat="45.995357958599925" lon="4.720645034685731">
        <ele>193.84</ele>
        <time>2025-04-24T10:07:10Z</time>
      </trkpt>
      <trkpt lat="45.995357958599925" lon="4.72057999111712">
        <ele>193.36000000000001</ele>
        <time>2025-04-24T10:07:11Z</time>
      </trkpt>
      <trkpt lat="45.995357958599925" lon="4.720518970862031">
        <ele>192.88</ele>
        <time>2025-04-24T10:07:12Z</time>
      </trkpt>
      <trkpt lat="45.995357958599925" lon="4.72045099362731">
        <ele>192.88</ele>
        <time>2025-04-24T10:07:13Z</time>
      </trkpt>
      <trkpt lat="45.995378997176886" lon="4.720159973949194">
        <ele>191.91999999999999</ele>
        <time>2025-04-24T10:07:17Z</time>
      </trkpt>
      <trkpt lat="45.995378997176886" lon="4.720073975622654">
        <ele>191.91999999999999</ele>
        <time>2025-04-24T10:07:18Z</time>
      </trkpt>
      <trkpt lat="45.995378997176886" lon="4.71995797008276">
        <ele>191.91999999999999</ele>
        <time>2025-04-24T10:07:19Z</time>
      </trkpt>
      <trkpt lat="45.995400035753846" lon="4.719208041206002">
        <ele>192.88</ele>
        <time>2025-04-24T10:07:25Z</time>
      </trkpt>
      <trkpt lat="45.995400035753846" lon="4.719094969332218">
        <ele>193.36000000000001</ele>
        <time>2025-04-24T10:07:26Z</time>
      </trkpt>
      <trkpt lat="45.995400035753846" lon="4.718993967399001">
        <ele>193.84</ele>
        <time>2025-04-24T10:07:27Z</time>
      </trkpt>
      <trkpt lat="45.995377991348505" lon="4.718588031828404">
        <ele>196.25</ele>
        <time>2025-04-24T10:07:31Z</time>
      </trkpt>
      <trkpt lat="45.995368016883731" lon="4.718484012410045">
        <ele>196.25</ele>
        <time>2025-04-24T10:07:32Z</time>
      </trkpt>
      <trkpt lat="45.995357958599925" lon="4.718374041840434">
        <ele>196.72999999999999</ele>
        <time>2025-04-24T10:07:33Z</time>
      </trkpt>
      <trkpt lat="45.995352007448673" lon="4.718271028250456">
        <ele>196.72999999999999</ele>
        <time>2025-04-24T10:07:34Z</time>
      </trkpt>
      <trkpt lat="45.99534697830677" lon="4.718186035752296">
        <ele>196.72999999999999</ele>
        <time>2025-04-24T10:07:35Z</time>
      </trkpt>
      <trkpt lat="45.995342032983899" lon="4.718114035204053">
        <ele>196.72999999999999</ele>
        <time>2025-04-24T10:07:36Z</time>
      </trkpt>
      <trkpt lat="45.995339015498757" lon="4.718047985807061">
        <ele>197.21000000000001</ele>
        <time>2025-04-24T10:07:37Z</time>
      </trkpt>
      <trkpt lat="45.995334992185235" lon="4.717981014400721">
        <ele>197.21000000000001</ele>
        <time>2025-04-24T10:07:38Z</time>
      </trkpt>
      <trkpt lat="45.995329963043332" lon="4.717907002195716">
        <ele>197.69</ele>
        <time>2025-04-24T10:07:39Z</time>
      </trkpt>
      <trkpt lat="45.995320994406939" lon="4.717773981392384">
        <ele>197.69</ele>
        <time>2025-04-24T10:07:41Z</time>
      </trkpt>
      <trkpt lat="45.995271960273385" lon="4.71695096231997">
        <ele>199.13</ele>
        <time>2025-04-24T10:07:52Z</time>
      </trkpt>
      <trkpt lat="45.995271960273385" lon="4.716843003407121">
        <ele>199.13</ele>
        <time>2025-04-24T10:07:53Z</time>
      </trkpt>
      <trkpt lat="45.995304984971881" lon="4.716383004561067">
        <ele>198.16999999999999</ele>
        <time>2025-04-24T10:07:58Z</time>
      </trkpt>
      <trkpt lat="45.9953230060637" lon="4.716315027326345">
        <ele>197.69</ele>
        <time>2025-04-24T10:07:59Z</time>
      </trkpt>
      <trkpt lat="45.995342032983899" lon="4.716251995414496">
        <ele>197.69</ele>
        <time>2025-04-24T10:08:00Z</time>
      </trkpt>
      <trkpt lat="45.995368016883731" lon="4.716190975159407">
        <ele>197.21000000000001</ele>
        <time>2025-04-24T10:08:01Z</time>
      </trkpt>
      <trkpt lat="45.995394000783563" lon="4.716127021238208">
        <ele>197.21000000000001</ele>
        <time>2025-04-24T10:08:02Z</time>
      </trkpt>
      <trkpt lat="45.995467007160187" lon="4.715949995443225">
        <ele>196.72999999999999</ele>
        <time>2025-04-24T10:08:05Z</time>
      </trkpt>
      <trkpt lat="45.99560396745801" lon="4.715696023777127">
        <ele>196.25</ele>
        <time>2025-04-24T10:08:09Z</time>
      </trkpt>
      <trkpt lat="45.995642021298409" lon="4.715630980208516">
        <ele>195.77000000000001</ele>
        <time>2025-04-24T10:08:10Z</time>
      </trkpt>
      <trkpt lat="45.995678985491395" lon="4.715569037944078">
        <ele>195.77000000000001</ele>
        <time>2025-04-24T10:08:11Z</time>
      </trkpt>
      <trkpt lat="45.995788034051657" lon="4.715394023805857">
        <ele>195.77000000000001</ele>
        <time>2025-04-24T10:08:14Z</time>
      </trkpt>
      <trkpt lat="45.99581602960825" lon="4.715350018814206">
        <ele>195.77000000000001</ele>
        <time>2025-04-24T10:08:15Z</time>
      </trkpt>
      <trkpt lat="45.99588300101459" lon="4.715267959982157">
        <ele>195.77000000000001</ele>
        <time>2025-04-24T10:08:16Z</time>
      </trkpt>
      <trkpt lat="45.99592600017786" lon="4.715304002165794">
        <ele>195.28</ele>
        <time>2025-04-24T10:08:17Z</time>
      </trkpt>
      <trkpt lat="45.996001018211246" lon="4.715366028249264">
        <ele>195.77000000000001</ele>
        <time>2025-04-24T10:08:18Z</time>
      </trkpt>
      <trkpt lat="45.996033037081361" lon="4.7153399605304">
        <ele>195.77000000000001</ele>
        <time>2025-04-24T10:08:19Z</time>
      </trkpt>
      <trkpt lat="45.99607695825398" lon="4.715302996337414">
        <ele>195.77000000000001</ele>
        <time>2025-04-24T10:08:20Z</time>
      </trkpt>
      <trkpt lat="45.996134961023927" lon="4.715233007445931">
        <ele>195.77000000000001</ele>
        <time>2025-04-24T10:08:21Z</time>
      </trkpt>
      <trkpt lat="45.996145019307733" lon="4.715119013562799">
        <ele>195.77000000000001</ele>
        <time>2025-04-24T10:08:22Z</time>
      </trkpt>
      <trkpt lat="45.996130015701056" lon="4.715045001357794">
        <ele>195.28</ele>
        <time>2025-04-24T10:08:23Z</time>
      </trkpt>
      <trkpt lat="45.996130015701056" lon="4.715045001357794">
        <ele>195.28</ele>
        <time>2025-04-24T10:08:24Z</time>
      </trkpt>
      <trkpt lat="45.996085004881024" lon="4.714849032461643">
        <ele>194.80000000000001</ele>
        <time>2025-04-24T10:08:25Z</time>
      </trkpt>
      <trkpt lat="45.996120041236281" lon="4.714751970022917">
        <ele>194.80000000000001</ele>
        <time>2025-04-24T10:08:26Z</time>
      </trkpt>
      <trkpt lat="45.996162034571171" lon="4.714638981968164">
        <ele>195.28</ele>
        <time>2025-04-24T10:08:27Z</time>
      </trkpt>
      <trkpt lat="45.996211990714073" lon="4.714518031105399">
        <ele>195.77000000000001</ele>
        <time>2025-04-24T10:08:28Z</time>
      </trkpt>
      <trkpt lat="45.996267981827259" lon="4.714410994201899">
        <ele>196.25</ele>
        <time>2025-04-24T10:08:29Z</time>
      </trkpt>
      <trkpt lat="45.996322967112064" lon="4.71430697478354">
        <ele>196.72999999999999</ele>
        <time>2025-04-24T10:08:30Z</time>
      </trkpt>
      <trkpt lat="45.996434027329087" lon="4.714096002280712">
        <ele>197.21000000000001</ele>
        <time>2025-04-24T10:08:32Z</time>
      </trkpt>
      <trkpt lat="45.996487000957131" lon="4.713996006175876">
        <ele>197.21000000000001</ele>
        <time>2025-04-24T10:08:33Z</time>
      </trkpt>
      <trkpt lat="45.996700990945101" lon="4.713589986786246">
        <ele>197.21000000000001</ele>
        <time>2025-04-24T10:08:37Z</time>
      </trkpt>
      <trkpt lat="45.996754970401525" lon="4.713487979024649">
        <ele>197.69</ele>
        <time>2025-04-24T10:08:38Z</time>
      </trkpt>
      <trkpt lat="45.997083960101008" lon="4.712863024324179">
        <ele>200.09</ele>
        <time>2025-04-24T10:08:46Z</time>
      </trkpt>
      <trkpt lat="45.997483022511005" lon="4.712104965001345">
        <ele>200.09</ele>
        <time>2025-04-24T10:08:55Z</time>
      </trkpt>
      <trkpt lat="45.997769013047218" lon="4.711548993363977">
        <ele>198.65000000000001</ele>
        <time>2025-04-24T10:09:00Z</time>
      </trkpt>
      <trkpt lat="45.997818969190121" lon="4.711429970338941">
        <ele>198.65000000000001</ele>
        <time>2025-04-24T10:09:01Z</time>
      </trkpt>
      <trkpt lat="45.997871020808816" lon="4.711308013647795">
        <ele>199.13</ele>
        <time>2025-04-24T10:09:02Z</time>
      </trkpt>
      <trkpt lat="45.997932041063905" lon="4.711160995066166">
        <ele>199.13</ele>
        <time>2025-04-24T10:09:03Z</time>
      </trkpt>
      <trkpt lat="45.997954001650214" lon="4.711044989526272">
        <ele>199.61000000000001</ele>
        <time>2025-04-24T10:09:04Z</time>
      </trkpt>
      <trkpt lat="45.997979985550046" lon="4.71091297455132">
        <ele>199.61000000000001</ele>
        <time>2025-04-24T10:09:05Z</time>
      </trkpt>
      <trkpt lat="45.998238986358047" lon="4.709501964971423">
        <ele>200.56999999999999</ele>
        <time>2025-04-24T10:09:15Z</time>
      </trkpt>
      <trkpt lat="45.998431015759706" lon="4.708446012809873">
        <ele>200.09</ele>
        <time>2025-04-24T10:09:22Z</time>
      </trkpt>
      <trkpt lat="45.998478960245848" lon="4.708148036152124">
        <ele>199.61000000000001</ele>
        <time>2025-04-24T10:09:25Z</time>
      </trkpt>
      <trkpt lat="45.998639976605773" lon="4.707310013473034">
        <ele>198.65000000000001</ele>
        <time>2025-04-24T10:09:35Z</time>
      </trkpt>
      <trkpt lat="45.998651040717959" lon="4.707240024581552">
        <ele>198.65000000000001</ele>
        <time>2025-04-24T10:09:36Z</time>
      </trkpt>
      <trkpt lat="45.998657997697592" lon="4.70719501376152">
        <ele>198.65000000000001</ele>
        <time>2025-04-24T10:09:37Z</time>
      </trkpt>
      <trkpt lat="45.998664032667875" lon="4.707157965749502">
        <ele>198.65000000000001</ele>
        <time>2025-04-24T10:09:38Z</time>
      </trkpt>
      <trkpt lat="45.998668977990746" lon="4.707123013213277">
        <ele>199.13</ele>
        <time>2025-04-24T10:09:39Z</time>
      </trkpt>
      <trkpt lat="45.998668977990746" lon="4.707123013213277">
        <ele>199.13</ele>
        <time>2025-04-24T10:09:40Z</time>
      </trkpt>
      <trkpt lat="45.998668977990746" lon="4.707123013213277">
        <ele>199.13</ele>
        <time>2025-04-24T10:10:00Z</time>
      </trkpt>
      <trkpt lat="45.998726980760694" lon="4.706748006865382">
        <ele>201.53</ele>
        <time>2025-04-24T10:10:29Z</time>
      </trkpt>
      <trkpt lat="45.998748019337654" lon="4.706611968576908">
        <ele>201.53</ele>
        <time>2025-04-24T10:10:31Z</time>
      </trkpt>
      <trkpt lat="45.998838040977716" lon="4.706441983580589">
        <ele>201.53</ele>
        <time>2025-04-24T10:10:32Z</time>
      </trkpt>
      <trkpt lat="45.998893026262522" lon="4.706428991630673">
        <ele>201.53</ele>
        <time>2025-04-24T10:10:33Z</time>
      </trkpt>
      <trkpt lat="45.998959997668862" lon="4.706412982195616">
        <ele>201.53</ele>
        <time>2025-04-24T10:10:34Z</time>
      </trkpt>
      <trkpt lat="45.999034009873867" lon="4.706392027437687">
        <ele>202.00999999999999</ele>
        <time>2025-04-24T10:10:35Z</time>
      </trkpt>
      <trkpt lat="45.999696012586355" lon="4.706247020512819">
        <ele>202.49000000000001</ele>
        <time>2025-04-24T10:10:41Z</time>
      </trkpt>
      <trkpt lat="46.00052498281002" lon="4.706039987504482">
        <ele>203.46000000000001</ele>
        <time>2025-04-24T10:10:50Z</time>
      </trkpt>
      <trkpt lat="46.000789012759924" lon="4.705953989177942">
        <ele>202.97999999999999</ele>
        <time>2025-04-24T10:10:53Z</time>
      </trkpt>
      <trkpt lat="46.000871993601322" lon="4.705920964479446">
        <ele>202.97999999999999</ele>
        <time>2025-04-24T10:10:54Z</time>
      </trkpt>
      <trkpt lat="46.001270972192287" lon="4.70562600530684">
        <ele>201.53</ele>
        <time>2025-04-24T10:11:00Z</time>
      </trkpt>
      <trkpt lat="46.00138102658093" lon="4.705574037507176">
        <ele>201.05000000000001</ele>
        <time>2025-04-24T10:11:02Z</time>
      </trkpt>
      <trkpt lat="46.001546988263726" lon="4.705599015578628">
        <ele>201.05000000000001</ele>
        <time>2025-04-24T10:11:04Z</time>
      </trkpt>
      <trkpt lat="46.001604991033673" lon="4.705549981445074">
        <ele>200.56999999999999</ele>
        <time>2025-04-24T10:11:05Z</time>
      </trkpt>
      <trkpt lat="46.001669028773904" lon="4.705432970076799">
        <ele>200.56999999999999</ele>
        <time>2025-04-24T10:11:06Z</time>
      </trkpt>
      <trkpt lat="46.001668022945523" lon="4.705278994515538">
        <ele>200.56999999999999</ele>
        <time>2025-04-24T10:11:07Z</time>
      </trkpt>
      <trkpt lat="46.001647990196943" lon="4.705189978703857">
        <ele>200.09</ele>
        <time>2025-04-24T10:11:08Z</time>
      </trkpt>
      <trkpt lat="46.001566015183926" lon="4.705111021175981">
        <ele>200.09</ele>
        <time>2025-04-24T10:11:09Z</time>
      </trkpt>
      <trkpt lat="46.001482028514147" lon="4.705103980377317">
        <ele>199.61000000000001</ele>
        <time>2025-04-24T10:11:10Z</time>
      </trkpt>
      <trkpt lat="46.001412039622664" lon="4.705124013125897">
        <ele>199.61000000000001</ele>
        <time>2025-04-24T10:11:11Z</time>
      </trkpt>
      <trkpt lat="46.001386977732182" lon="4.705130970105529">
        <ele>199.61000000000001</ele>
        <time>2025-04-24T10:11:12Z</time>
      </trkpt>
      <trkpt lat="46.001244988292456" lon="4.705211017280817">
        <ele>199.61000000000001</ele>
        <time>2025-04-24T10:11:13Z</time>
      </trkpt>
      <trkpt lat="46.001150021329522" lon="4.705200036987662">
        <ele>199.61000000000001</ele>
        <time>2025-04-24T10:11:14Z</time>
      </trkpt>
      <trkpt lat="46.001049019396305" lon="4.70517598092556">
        <ele>199.61000000000001</ele>
        <time>2025-04-24T10:11:15Z</time>
      </trkpt>
      <trkpt lat="46.00095103494823" lon="4.705124013125897">
        <ele>199.61000000000001</ele>
        <time>2025-04-24T10:11:16Z</time>
      </trkpt>
      <trkpt lat="46.000874005258083" lon="4.70504698343575">
        <ele>199.13</ele>
        <time>2025-04-24T10:11:17Z</time>
      </trkpt>
      <trkpt lat="46.000805022194982" lon="4.704946987330914">
        <ele>198.65000000000001</ele>
        <time>2025-04-24T10:11:18Z</time>
      </trkpt>
      <trkpt lat="46.000742996111512" lon="4.70480902120471">
        <ele>198.65000000000001</ele>
        <time>2025-04-24T10:11:19Z</time>
      </trkpt>
      <trkpt lat="46.000719023868442" lon="4.704701984301209">
        <ele>198.65000000000001</ele>
        <time>2025-04-24T10:11:20Z</time>
      </trkpt>
      <trkpt lat="46.000701002776623" lon="4.704579021781683">
        <ele>198.65000000000001</ele>
        <time>2025-04-24T10:11:21Z</time>
      </trkpt>
      <trkpt lat="46.000593965873122" lon="4.703851975500584">
        <ele>197.21000000000001</ele>
        <time>2025-04-24T10:11:28Z</time>
      </trkpt>
      <trkpt lat="46.000374024733901" lon="4.702474996447563">
        <ele>196.72999999999999</ele>
        <time>2025-04-24T10:11:37Z</time>
      </trkpt>
      <trkpt lat="46.000247960910201" lon="4.700800040736795">
        <ele>197.21000000000001</ele>
        <time>2025-04-24T10:11:45Z</time>
      </trkpt>
      <trkpt lat="46.000087028369308" lon="4.699087031185627">
        <ele>200.09</ele>
        <time>2025-04-24T10:11:54Z</time>
      </trkpt>
      <trkpt lat="45.999971022829413" lon="4.69748399220407">
        <ele>202.49000000000001</ele>
        <time>2025-04-24T10:12:05Z</time>
      </trkpt>
      <trkpt lat="46.000015027821064" lon="4.696749988943338">
        <ele>204.41999999999999</ele>
        <time>2025-04-24T10:12:11Z</time>
      </trkpt>
      <trkpt lat="46.000046962872148" lon="4.696467015892267">
        <ele>205.38</ele>
        <time>2025-04-24T10:12:13Z</time>
      </trkpt>
      <trkpt lat="46.000413000583649" lon="4.695091964676976">
        <ele>206.81999999999999</ele>
        <time>2025-04-24T10:12:21Z</time>
      </trkpt>
      <trkpt lat="46.000462034717202" lon="4.694903958588839">
        <ele>206.81999999999999</ele>
        <time>2025-04-24T10:12:22Z</time>
      </trkpt>
      <trkpt lat="46.000445019453764" lon="4.694703966379166">
        <ele>206.81999999999999</ele>
        <time>2025-04-24T10:12:23Z</time>
      </trkpt>
      <trkpt lat="46.000429010018706" lon="4.694499028846622">
        <ele>207.30000000000001</ele>
        <time>2025-04-24T10:12:24Z</time>
      </trkpt>
      <trkpt lat="46.000410988926888" lon="4.694284033030272">
        <ele>207.78</ele>
        <time>2025-04-24T10:12:25Z</time>
      </trkpt>
      <trkpt lat="46.000391962006688" lon="4.694055961444974">
        <ele>207.78</ele>
        <time>2025-04-24T10:12:26Z</time>
      </trkpt>
      <trkpt lat="46.000383999198675" lon="4.693816993385553">
        <ele>208.25999999999999</ele>
        <time>2025-04-24T10:12:27Z</time>
      </trkpt>
      <trkpt lat="46.000403026118875" lon="4.693570984527469">
        <ele>208.25999999999999</ele>
        <time>2025-04-24T10:12:28Z</time>
      </trkpt>
      <trkpt lat="46.000421969220042" lon="4.693320030346513">
        <ele>208.74000000000001</ele>
        <time>2025-04-24T10:12:29Z</time>
      </trkpt>
      <trkpt lat="46.000334965065122" lon="4.691160013899207">
        <ele>210.66999999999999</ele>
        <time>2025-04-24T10:12:38Z</time>
      </trkpt>
      <trkpt lat="46.000314010307193" lon="4.689980009570718">
        <ele>211.63</ele>
        <time>2025-04-24T10:12:43Z</time>
      </trkpt>
      <trkpt lat="46.00043898448348" lon="4.688756000250578">
        <ele>212.59</ele>
        <time>2025-04-24T10:12:48Z</time>
      </trkpt>
      <trkpt lat="46.000750036910176" lon="4.687112979590893">
        <ele>213.06999999999999</ele>
        <time>2025-04-24T10:12:55Z</time>
      </trkpt>
      <trkpt lat="46.000832011923194" lon="4.68691298738122">
        <ele>213.06999999999999</ele>
        <time>2025-04-24T10:12:56Z</time>
      </trkpt>
      <trkpt lat="46.000913986936212" lon="4.68671802431345">
        <ele>213.06999999999999</ele>
        <time>2025-04-24T10:12:57Z</time>
      </trkpt>
      <trkpt lat="46.001000991091132" lon="4.686528006568551">
        <ele>213.06999999999999</ele>
        <time>2025-04-24T10:12:58Z</time>
      </trkpt>
      <trkpt lat="46.001084977760911" lon="4.686342012137175">
        <ele>214.03</ele>
        <time>2025-04-24T10:12:59Z</time>
      </trkpt>
      <trkpt lat="46.001152032986283" lon="4.686151994392276">
        <ele>214.99000000000001</ele>
        <time>2025-04-24T10:13:00Z</time>
      </trkpt>
      <trkpt lat="46.001803977414966" lon="4.684217032045126">
        <ele>221.24000000000001</ele>
        <time>2025-04-24T10:13:10Z</time>
      </trkpt>
      <trkpt lat="46.001900034025311" lon="4.683974040672183">
        <ele>221.24000000000001</ele>
        <time>2025-04-24T10:13:12Z</time>
      </trkpt>
      <trkpt lat="46.001934986561537" lon="4.683886030688882">
        <ele>221.24000000000001</ele>
        <time>2025-04-24T10:13:13Z</time>
      </trkpt>
      <trkpt lat="46.001965999603271" lon="4.683805983513594">
        <ele>221.24000000000001</ele>
        <time>2025-04-24T10:13:14Z</time>
      </trkpt>
      <trkpt lat="46.001996006816626" lon="4.683729037642479">
        <ele>221.24000000000001</ele>
        <time>2025-04-24T10:13:15Z</time>
      </trkpt>
      <trkpt lat="46.002018973231316" lon="4.683498032391071">
        <ele>221.72</ele>
        <time>2025-04-24T10:13:16Z</time>
      </trkpt>
      <trkpt lat="46.001975974068046" lon="4.683381021022797">
        <ele>221.72</ele>
        <time>2025-04-24T10:13:17Z</time>
      </trkpt>
      <trkpt lat="46.001921994611621" lon="4.683235008269548">
        <ele>221.24000000000001</ele>
        <time>2025-04-24T10:13:18Z</time>
      </trkpt>
      <trkpt lat="46.001868015155196" lon="4.68306896276772">
        <ele>221.24000000000001</ele>
        <time>2025-04-24T10:13:19Z</time>
      </trkpt>
      <trkpt lat="46.001438023522496" lon="4.681545970961452">
        <ele>219.31999999999999</ele>
        <time>2025-04-24T10:13:26Z</time>
      </trkpt>
      <trkpt lat="46.001194026321173" lon="4.679516963660717">
        <ele>217.88</ele>
        <time>2025-04-24T10:13:35Z</time>
      </trkpt>
      <trkpt lat="46.00127600133419" lon="4.677905039861798">
        <ele>219.31999999999999</ele>
        <time>2025-04-24T10:13:42Z</time>
      </trkpt>
      <trkpt lat="46.001159995794296" lon="4.67674900777638">
        <ele>220.28</ele>
        <time>2025-04-24T10:13:47Z</time>
      </trkpt>
      <trkpt lat="46.00116603076458" lon="4.676490006968379">
        <ele>220.28</ele>
        <time>2025-04-24T10:13:48Z</time>
      </trkpt>
      <trkpt lat="46.001187991350889" lon="4.676241986453533">
        <ele>220.28</ele>
        <time>2025-04-24T10:13:49Z</time>
      </trkpt>
      <trkpt lat="46.00133903324604" lon="4.674577005207539">
        <ele>222.68000000000001</ele>
        <time>2025-04-24T10:13:56Z</time>
      </trkpt>
      <trkpt lat="46.001366022974253" lon="4.674336025491357">
        <ele>223.16</ele>
        <time>2025-04-24T10:13:57Z</time>
      </trkpt>
      <trkpt lat="46.001746980473399" lon="4.672579010948539">
        <ele>227.00999999999999</ele>
        <time>2025-04-24T10:14:05Z</time>
      </trkpt>
      <trkpt lat="46.001824010163546" lon="4.671192979440093">
        <ele>230.84999999999999</ele>
        <time>2025-04-24T10:14:12Z</time>
      </trkpt>
      <trkpt lat="46.001759972423315" lon="4.669291963800788">
        <ele>232.78</ele>
        <time>2025-04-24T10:14:21Z</time>
      </trkpt>
      <trkpt lat="46.001746980473399" lon="4.668914023786783">
        <ele>233.74000000000001</ele>
        <time>2025-04-24T10:14:23Z</time>
      </trkpt>
      <trkpt lat="46.001741029322147" lon="4.668738003820181">
        <ele>233.74000000000001</ele>
        <time>2025-04-24T10:14:24Z</time>
      </trkpt>
      <trkpt lat="46.001688977703452" lon="4.667196990922093">
        <ele>236.62</ele>
        <time>2025-04-24T10:14:33Z</time>
      </trkpt>
      <trkpt lat="46.001652013510466" lon="4.666176997125149">
        <ele>237.09999999999999</ele>
        <time>2025-04-24T10:14:41Z</time>
      </trkpt>
      <trkpt lat="46.001650001853704" lon="4.666127040982246">
        <ele>237.09999999999999</ele>
        <time>2025-04-24T10:14:42Z</time>
      </trkpt>
      <trkpt lat="46.001586969941854" lon="4.666027966886759">
        <ele>237.09999999999999</ele>
        <time>2025-04-24T10:14:43Z</time>
      </trkpt>
      <trkpt lat="46.001528967171907" lon="4.666042970493436">
        <ele>237.09999999999999</ele>
        <time>2025-04-24T10:14:44Z</time>
      </trkpt>
      <trkpt lat="46.001455960795283" lon="4.666060991585255">
        <ele>236.62</ele>
        <time>2025-04-24T10:14:45Z</time>
      </trkpt>
      <trkpt lat="46.001280024647713" lon="4.666069960221648">
        <ele>236.62</ele>
        <time>2025-04-24T10:14:47Z</time>
      </trkpt>
      <trkpt lat="46.001170976087451" lon="4.666060991585255">
        <ele>236.62</ele>
        <time>2025-04-24T10:14:48Z</time>
      </trkpt>
      <trkpt lat="46.001055976375937" lon="4.666051017120481">
        <ele>236.62</ele>
        <time>2025-04-24T10:14:49Z</time>
      </trkpt>
      <trkpt lat="46.000937959179282" lon="4.666041964665055">
        <ele>236.62</ele>
        <time>2025-04-24T10:14:50Z</time>
      </trkpt>
      <trkpt lat="46.000820025801659" lon="4.666031990200281">
        <ele>236.13999999999999</ele>
        <time>2025-04-24T10:14:51Z</time>
      </trkpt>
      <trkpt lat="46.000701002776623" lon="4.666023021563888">
        <ele>236.13999999999999</ele>
        <time>2025-04-24T10:14:52Z</time>
      </trkpt>
      <trkpt lat="46.000305041670799" lon="4.665879020467401">
        <ele>236.13999999999999</ele>
        <time>2025-04-24T10:14:56Z</time>
      </trkpt>
      <trkpt lat="46.000220971181989" lon="4.665779024362564">
        <ele>236.13999999999999</ele>
        <time>2025-04-24T10:14:58Z</time>
      </trkpt>
      <trkpt lat="46.00020102225244" lon="4.665720015764237">
        <ele>236.13999999999999</ele>
        <time>2025-04-24T10:14:59Z</time>
      </trkpt>
      <trkpt lat="46.000185012817383" lon="4.665625970810652">
        <ele>235.66</ele>
        <time>2025-04-24T10:15:00Z</time>
      </trkpt>
      <trkpt lat="46.000165985897183" lon="4.665514994412661">
        <ele>235.66</ele>
        <time>2025-04-24T10:15:01Z</time>
      </trkpt>
      <trkpt lat="46.000142013654113" lon="4.665376022458077">
        <ele>235.18000000000001</ele>
        <time>2025-04-24T10:15:02Z</time>
      </trkpt>
      <trkpt lat="46.0001150239259" lon="4.665217017754912">
        <ele>235.18000000000001</ele>
        <time>2025-04-24T10:15:03Z</time>
      </trkpt>
      <trkpt lat="46.00005098618567" lon="4.664922980591655">
        <ele>235.66</ele>
        <time>2025-04-24T10:15:05Z</time>
      </trkpt>
      <trkpt lat="46.000009998679161" lon="4.66480202972889">
        <ele>235.66</ele>
        <time>2025-04-24T10:15:06Z</time>
      </trkpt>
      <trkpt lat="45.999958030879498" lon="4.66469700448215">
        <ele>235.66</ele>
        <time>2025-04-24T10:15:07Z</time>
      </trkpt>
      <trkpt lat="45.999891981482506" lon="4.664612011983991">
        <ele>235.66</ele>
        <time>2025-04-24T10:15:08Z</time>
      </trkpt>
      <trkpt lat="45.999815035611391" lon="4.664573036134243">
        <ele>236.13999999999999</ele>
        <time>2025-04-24T10:15:09Z</time>
      </trkpt>
      <trkpt lat="45.999732976779342" lon="4.664531964808703">
        <ele>236.62</ele>
        <time>2025-04-24T10:15:10Z</time>
      </trkpt>
      <trkpt lat="45.999653013423085" lon="4.664491983130574">
        <ele>237.09999999999999</ele>
        <time>2025-04-24T10:15:11Z</time>
      </trkpt>
      <trkpt lat="45.999575983732939" lon="4.664454013109207">
        <ele>237.58000000000001</ele>
        <time>2025-04-24T10:15:12Z</time>
      </trkpt>
      <trkpt lat="45.999496020376682" lon="4.664476979523897">
        <ele>238.53999999999999</ele>
        <time>2025-04-24T10:15:13Z</time>
      </trkpt>
      <trkpt lat="45.999427037313581" lon="4.664506986737251">
        <ele>239.99000000000001</ele>
        <time>2025-04-24T10:15:14Z</time>
      </trkpt>
      <trkpt lat="45.999365011230111" lon="4.664533976465464">
        <ele>240.94999999999999</ele>
        <time>2025-04-24T10:15:15Z</time>
      </trkpt>
      <trkpt lat="45.999307008460164" lon="4.664559038355947">
        <ele>241.91</ele>
        <time>2025-04-24T10:15:16Z</time>
      </trkpt>
      <trkpt lat="45.999245988205075" lon="4.664586028084159">
        <ele>242.87</ele>
        <time>2025-04-24T10:15:17Z</time>
      </trkpt>
      <trkpt lat="45.999183962121606" lon="4.664571024477482">
        <ele>243.83000000000001</ele>
        <time>2025-04-24T10:15:18Z</time>
      </trkpt>
      <trkpt lat="45.999109027907252" lon="4.664516039192677">
        <ele>244.78999999999999</ele>
        <time>2025-04-24T10:15:19Z</time>
      </trkpt>
      <trkpt lat="45.999025963246822" lon="4.664455018937588">
        <ele>245.75</ele>
        <time>2025-04-24T10:15:20Z</time>
      </trkpt>
      <trkpt lat="45.998938037082553" lon="4.664390981197357">
        <ele>247.19999999999999</ele>
        <time>2025-04-24T10:15:21Z</time>
      </trkpt>
      <trkpt lat="45.998612986877561" lon="4.664152013137937">
        <ele>252.47999999999999</ele>
        <time>2025-04-24T10:15:25Z</time>
      </trkpt>
      <trkpt lat="45.998532017692924" lon="4.664108008146286">
        <ele>253.93000000000001</ele>
        <time>2025-04-24T10:15:26Z</time>
      </trkpt>
      <trkpt lat="45.997691983357072" lon="4.663926959037781">
        <ele>264.98000000000002</ele>
        <time>2025-04-24T10:15:33Z</time>
      </trkpt>
      <trkpt lat="45.996819008141756" lon="4.66345296241343">
        <ele>275.56</ele>
        <time>2025-04-24T10:15:41Z</time>
      </trkpt>
      <trkpt lat="45.996540980413556" lon="4.663291024044156">
        <ele>280.36000000000001</ele>
        <time>2025-04-24T10:15:47Z</time>
      </trkpt>
      <trkpt lat="45.996540980413556" lon="4.663291024044156">
        <ele>281.31999999999999</ele>
        <time>2025-04-24T10:15:59Z</time>
      </trkpt>
      <trkpt lat="45.996442995965481" lon="4.66323503293097">
        <ele>285.17000000000002</ele>
        <time>2025-04-24T10:16:11Z</time>
      </trkpt>
      <trkpt lat="45.996261024847627" lon="4.663188010454178">
        <ele>286.13</ele>
        <time>2025-04-24T10:16:23Z</time>
      </trkpt>
      <trkpt lat="45.996164968237281" lon="4.663178035989404">
        <ele>286.61000000000001</ele>
        <time>2025-04-24T10:16:24Z</time>
      </trkpt>
      <trkpt lat="45.99605499766767" lon="4.663164960220456">
        <ele>286.61000000000001</ele>
        <time>2025-04-24T10:16:25Z</time>
      </trkpt>
      <trkpt lat="45.995928011834621" lon="4.66315096244216">
        <ele>286.61000000000001</ele>
        <time>2025-04-24T10:16:26Z</time>
      </trkpt>
      <trkpt lat="45.995794991031289" lon="4.663135958835483">
        <ele>286.61000000000001</ele>
        <time>2025-04-24T10:16:27Z</time>
      </trkpt>
      <trkpt lat="45.994695033878088" lon="4.66304300352931">
        <ele>285.17000000000002</ele>
        <time>2025-04-24T10:16:35Z</time>
      </trkpt>
      <trkpt lat="45.994104025885463" lon="4.662995981052518">
        <ele>285.64999999999998</ele>
        <time>2025-04-24T10:16:42Z</time>
      </trkpt>
      <trkpt lat="45.993858017027378" lon="4.662988018244505">
        <ele>285.17000000000002</ele>
        <time>2025-04-24T10:16:49Z</time>
      </trkpt>
      <trkpt lat="45.993050001561642" lon="4.663037974387407">
        <ele>284.20999999999998</ele>
        <time>2025-04-24T10:16:56Z</time>
      </trkpt>
      <trkpt lat="45.99293801933527" lon="4.663052977994084">
        <ele>284.20999999999998</ele>
        <time>2025-04-24T10:16:57Z</time>
      </trkpt>
      <trkpt lat="45.992722017690539" lon="4.663082985207439">
        <ele>284.20999999999998</ele>
        <time>2025-04-24T10:16:59Z</time>
      </trkpt>
      <trkpt lat="45.991489961743355" lon="4.663174012675881">
        <ele>281.31999999999999</ele>
        <time>2025-04-24T10:17:09Z</time>
      </trkpt>
      <trkpt lat="45.990665014833212" lon="4.663180969655514">
        <ele>276.51999999999998</ele>
        <time>2025-04-24T10:17:17Z</time>
      </trkpt>
      <trkpt lat="45.990571975708008" lon="4.663180969655514">
        <ele>276.04000000000002</ele>
        <time>2025-04-24T10:17:18Z</time>
      </trkpt>
      <trkpt lat="45.99049000069499" lon="4.663180969655514">
        <ele>275.06999999999999</ele>
        <time>2025-04-24T10:17:19Z</time>
      </trkpt>
      <trkpt lat="45.990414982661605" lon="4.663180969655514">
        <ele>274.58999999999997</ele>
        <time>2025-04-24T10:17:20Z</time>
      </trkpt>
      <trkpt lat="45.99033996462822" lon="4.663180969655514">
        <ele>273.63</ele>
        <time>2025-04-24T10:17:21Z</time>
      </trkpt>
      <trkpt lat="45.99027500487864" lon="4.663160014897585">
        <ele>272.67000000000002</ele>
        <time>2025-04-24T10:17:22Z</time>
      </trkpt>
      <trkpt lat="45.990206021815538" lon="4.663135958835483">
        <ele>271.23000000000002</ele>
        <time>2025-04-24T10:17:23Z</time>
      </trkpt>
      <trkpt lat="45.990135027095675" lon="4.663111986592412">
        <ele>270.26999999999998</ele>
        <time>2025-04-24T10:17:24Z</time>
      </trkpt>
      <trkpt lat="45.990063026547432" lon="4.66308600269258">
        <ele>269.31</ele>
        <time>2025-04-24T10:17:25Z</time>
      </trkpt>
      <trkpt lat="45.989988008514047" lon="4.663061024621129">
        <ele>267.86000000000001</ele>
        <time>2025-04-24T10:17:26Z</time>
      </trkpt>
      <trkpt lat="45.989912990480661" lon="4.663035040721297">
        <ele>266.89999999999998</ele>
        <time>2025-04-24T10:17:27Z</time>
      </trkpt>
      <trkpt lat="45.989841995760798" lon="4.663009978830814">
        <ele>265.94</ele>
        <time>2025-04-24T10:17:28Z</time>
      </trkpt>
      <trkpt lat="45.989774018526077" lon="4.662986006587744">
        <ele>264.98000000000002</ele>
        <time>2025-04-24T10:17:29Z</time>
      </trkpt>
      <trkpt lat="45.989706963300705" lon="4.662963040173054">
        <ele>264.01999999999998</ele>
        <time>2025-04-24T10:17:30Z</time>
      </trkpt>
      <trkpt lat="45.989638986065984" lon="4.662939989939332">
        <ele>263.06</ele>
        <time>2025-04-24T10:17:31Z</time>
      </trkpt>
      <trkpt lat="45.989568997174501" lon="4.662915011867881">
        <ele>262.10000000000002</ele>
        <time>2025-04-24T10:17:32Z</time>
      </trkpt>
      <trkpt lat="45.989496996626258" lon="4.66289003379643">
        <ele>261.13999999999999</ele>
        <time>2025-04-24T10:17:33Z</time>
      </trkpt>
      <trkpt lat="45.989422984421253" lon="4.662864971905947">
        <ele>259.69</ele>
        <time>2025-04-24T10:17:34Z</time>
      </trkpt>
      <trkpt lat="45.98935198970139" lon="4.662839993834496">
        <ele>258.25</ele>
        <time>2025-04-24T10:17:35Z</time>
      </trkpt>
      <trkpt lat="45.989142023026943" lon="4.66280403546989">
        <ele>254.88999999999999</ele>
        <time>2025-04-24T10:17:38Z</time>
      </trkpt>
      <trkpt lat="45.989058036357164" lon="4.662796994671226">
        <ele>253.44</ele>
        <time>2025-04-24T10:17:39Z</time>
      </trkpt>
      <trkpt lat="45.988968014717102" lon="4.662789031863213">
        <ele>252.47999999999999</ele>
        <time>2025-04-24T10:17:40Z</time>
      </trkpt>
      <trkpt lat="45.988788977265358" lon="4.662773022428155">
        <ele>250.56</ele>
        <time>2025-04-24T10:17:42Z</time>
      </trkpt>
      <trkpt lat="45.988718988373876" lon="4.662762964144349">
        <ele>249.59999999999999</ele>
        <time>2025-04-24T10:17:43Z</time>
      </trkpt>
      <trkpt lat="45.988654028624296" lon="4.662752989679575">
        <ele>248.63999999999999</ele>
        <time>2025-04-24T10:17:44Z</time>
      </trkpt>
      <trkpt lat="45.988589990884066" lon="4.662743015214801">
        <ele>247.68000000000001</ele>
        <time>2025-04-24T10:17:45Z</time>
      </trkpt>
      <trkpt lat="45.988512961193919" lon="4.662731029093266">
        <ele>247.19999999999999</ele>
        <time>2025-04-24T10:17:46Z</time>
      </trkpt>
      <trkpt lat="45.988481026142836" lon="4.662752989679575">
        <ele>246.22999999999999</ele>
        <time>2025-04-24T10:17:47Z</time>
      </trkpt>
      <trkpt lat="45.98842796869576" lon="4.662790037691593">
        <ele>245.75</ele>
        <time>2025-04-24T10:17:48Z</time>
      </trkpt>
      <trkpt lat="45.988373989239335" lon="4.66282800771296">
        <ele>245.27000000000001</ele>
        <time>2025-04-24T10:17:49Z</time>
      </trkpt>
      <trkpt lat="45.988297965377569" lon="4.662880981341004">
        <ele>244.31</ele>
        <time>2025-04-24T10:17:50Z</time>
      </trkpt>
      <trkpt lat="45.988267958164215" lon="4.662918029353023">
        <ele>243.83000000000001</ele>
        <time>2025-04-24T10:17:51Z</time>
      </trkpt>
      <trkpt lat="45.988224036991596" lon="4.662971002981067">
        <ele>243.34999999999999</ele>
        <time>2025-04-24T10:17:52Z</time>
      </trkpt>
      <trkpt lat="45.988184977322817" lon="4.66301903128624">
        <ele>243.34999999999999</ele>
        <time>2025-04-24T10:17:53Z</time>
      </trkpt>
      <trkpt lat="45.98814700730145" lon="4.66306496411562">
        <ele>242.87</ele>
        <time>2025-04-24T10:17:54Z</time>
      </trkpt>
      <trkpt lat="45.98810501396656" lon="4.663117015734315">
        <ele>242.38999999999999</ele>
        <time>2025-04-24T10:17:55Z</time>
      </trkpt>
      <trkpt lat="45.988037036731839" lon="4.663135036826134">
        <ele>241.91</ele>
        <time>2025-04-24T10:17:56Z</time>
      </trkpt>
      <trkpt lat="45.987962018698454" lon="4.663155991584063">
        <ele>241.91</ele>
        <time>2025-04-24T10:17:57Z</time>
      </trkpt>
      <trkpt lat="45.987874008715153" lon="4.663179963827133">
        <ele>242.38999999999999</ele>
        <time>2025-04-24T10:17:58Z</time>
      </trkpt>
      <trkpt lat="45.98741602152586" lon="4.663305021822453">
        <ele>247.19999999999999</ele>
        <time>2025-04-24T10:18:05Z</time>
      </trkpt>
      <trkpt lat="45.987399006262422" lon="4.663308961316943">
        <ele>248.63999999999999</ele>
        <time>2025-04-24T10:18:09Z</time>
      </trkpt>
      <trkpt lat="45.98739699460566" lon="4.663309967145324">
        <ele>249.12</ele>
        <time>2025-04-24T10:18:10Z</time>
      </trkpt>
      <trkpt lat="45.98739699460566" lon="4.663309967145324">
        <ele>249.59999999999999</ele>
        <time>2025-04-24T10:18:11Z</time>
      </trkpt>
      <trkpt lat="45.987390959635377" lon="4.663292029872537">
        <ele>250.56</ele>
        <time>2025-04-24T10:18:12Z</time>
      </trkpt>
      <trkpt lat="45.987364975735545" lon="4.663207037374377">
        <ele>251.03999999999999</ele>
        <time>2025-04-24T10:18:13Z</time>
      </trkpt>
      <trkpt lat="45.987199014052749" lon="4.662663973867893">
        <ele>253.93000000000001</ele>
        <time>2025-04-24T10:18:17Z</time>
      </trkpt>
      <trkpt lat="45.987152997404337" lon="4.662501029670239">
        <ele>254.41</ele>
        <time>2025-04-24T10:18:18Z</time>
      </trkpt>
      <trkpt lat="45.987043026834726" lon="4.661338040605187">
        <ele>260.17000000000002</ele>
        <time>2025-04-24T10:18:26Z</time>
      </trkpt>
      <trkpt lat="45.987018970772624" lon="4.66093797236681">
        <ele>263.06</ele>
        <time>2025-04-24T10:18:30Z</time>
      </trkpt>
      <trkpt lat="45.987016037106514" lon="4.660888016223908">
        <ele>263.54000000000002</ele>
        <time>2025-04-24T10:18:31Z</time>
      </trkpt>
      <trkpt lat="45.986963985487819" lon="4.660814004018903">
        <ele>264.5</ele>
        <time>2025-04-24T10:18:32Z</time>
      </trkpt>
      <trkpt lat="45.98690397106111" lon="4.660833030939102">
        <ele>264.98000000000002</ele>
        <time>2025-04-24T10:18:33Z</time>
      </trkpt>
      <trkpt lat="45.986829036846757" lon="4.660855997353792">
        <ele>265.94</ele>
        <time>2025-04-24T10:18:34Z</time>
      </trkpt>
      <trkpt lat="45.986200980842113" lon="4.661051966249943">
        <ele>265.45999999999998</ele>
        <time>2025-04-24T10:18:42Z</time>
      </trkpt>
      <trkpt lat="45.985981039702892" lon="4.661121033132076">
        <ele>264.01999999999998</ele>
        <time>2025-04-24T10:18:45Z</time>
      </trkpt>
      <trkpt lat="45.985926976427436" lon="4.661062024533749">
        <ele>263.06</ele>
        <time>2025-04-24T10:18:46Z</time>
      </trkpt>
      <trkpt lat="45.985869979485869" lon="4.660999998450279">
        <ele>262.57999999999998</ele>
        <time>2025-04-24T10:18:47Z</time>
      </trkpt>
      <trkpt lat="45.985628999769688" lon="4.660733034834266">
        <ele>258.25</ele>
        <time>2025-04-24T10:18:52Z</time>
      </trkpt>
      <trkpt lat="45.985565967857838" lon="4.660691963508725">
        <ele>254.88999999999999</ele>
        <time>2025-04-24T10:18:56Z</time>
      </trkpt>
      <trkpt lat="45.985551970079541" lon="4.660735968500376">
        <ele>253.93000000000001</ele>
        <time>2025-04-24T10:18:57Z</time>
      </trkpt>
      <trkpt lat="45.985533026978374" lon="4.660795982927084">
        <ele>252.96000000000001</ele>
        <time>2025-04-24T10:18:58Z</time>
      </trkpt>
      <trkpt lat="45.985321970656514" lon="4.661459997296333">
        <ele>244.78999999999999</ele>
        <time>2025-04-24T10:19:08Z</time>
      </trkpt>
      <trkpt lat="45.985272014513612" lon="4.661614978685975">
        <ele>242.87</ele>
        <time>2025-04-24T10:19:11Z</time>
      </trkpt>
      <trkpt lat="45.985244018957019" lon="4.66145396232605">
        <ele>242.38999999999999</ele>
        <time>2025-04-24T10:19:12Z</time>
      </trkpt>
      <trkpt lat="45.985236978158355" lon="4.661418003961444">
        <ele>241.43000000000001</ele>
        <time>2025-04-24T10:19:13Z</time>
      </trkpt>
      <trkpt lat="45.985227003693581" lon="4.661358995363116">
        <ele>240.94999999999999</ele>
        <time>2025-04-24T10:19:14Z</time>
      </trkpt>
      <trkpt lat="45.985212000086904" lon="4.661278026178479">
        <ele>240.47</ele>
        <time>2025-04-24T10:19:15Z</time>
      </trkpt>
      <trkpt lat="45.985193978995085" lon="4.66117300093174">
        <ele>240.47</ele>
        <time>2025-04-24T10:19:16Z</time>
      </trkpt>
      <trkpt lat="45.985006978735328" lon="4.660127023234963">
        <ele>238.53999999999999</ele>
        <time>2025-04-24T10:19:22Z</time>
      </trkpt>
      <trkpt lat="45.984800029546022" lon="4.658203041180968">
        <ele>239.02000000000001</ele>
        <time>2025-04-24T10:19:31Z</time>
      </trkpt>
      <trkpt lat="45.984566006809473" lon="4.655481018126011">
        <ele>241.91</ele>
        <time>2025-04-24T10:19:43Z</time>
      </trkpt>
      <trkpt lat="45.984039036557078" lon="4.653102988377214">
        <ele>243.83000000000001</ele>
        <time>2025-04-24T10:19:54Z</time>
      </trkpt>
      <trkpt lat="45.983990002423525" lon="4.652884975075722">
        <ele>243.83000000000001</ele>
        <time>2025-04-24T10:19:55Z</time>
      </trkpt>
      <trkpt lat="45.983939962461591" lon="4.652663022279739">
        <ele>244.31</ele>
        <time>2025-04-24T10:19:56Z</time>
      </trkpt>
      <trkpt lat="45.983316013589501" lon="4.650609958916903">
        <ele>245.27000000000001</ele>
        <time>2025-04-24T10:20:05Z</time>
      </trkpt>
      <trkpt lat="45.983038991689682" lon="4.64821700938046">
        <ele>247.68000000000001</ele>
        <time>2025-04-24T10:20:15Z</time>
      </trkpt>
      <trkpt lat="45.98269097507" lon="4.646194959059358">
        <ele>250.56</ele>
        <time>2025-04-24T10:20:25Z</time>
      </trkpt>
      <trkpt lat="45.982685023918748" lon="4.64604701846838">
        <ele>250.56</ele>
        <time>2025-04-24T10:20:26Z</time>
      </trkpt>
      <trkpt lat="45.982646970078349" lon="4.64566002599895">
        <ele>251.03999999999999</ele>
        <time>2025-04-24T10:20:29Z</time>
      </trkpt>
      <trkpt lat="45.982624003663659" lon="4.645536979660392">
        <ele>251.52000000000001</ele>
        <time>2025-04-24T10:20:30Z</time>
      </trkpt>
      <trkpt lat="45.982601959258318" lon="4.645413011312485">
        <ele>252</ele>
        <time>2025-04-24T10:20:31Z</time>
      </trkpt>
      <trkpt lat="45.982571030035615" lon="4.645315026864409">
        <ele>252</ele>
        <time>2025-04-24T10:20:32Z</time>
      </trkpt>
      <trkpt lat="45.982528030872345" lon="4.645235985517502">
        <ele>252.47999999999999</ele>
        <time>2025-04-24T10:20:33Z</time>
      </trkpt>
      <trkpt lat="45.982457958161831" lon="4.645110005512834">
        <ele>252.47999999999999</ele>
        <time>2025-04-24T10:20:35Z</time>
      </trkpt>
      <trkpt lat="45.982438009232283" lon="4.645073041319847">
        <ele>252.96000000000001</ele>
        <time>2025-04-24T10:20:42Z</time>
      </trkpt>
      <trkpt lat="45.982354022562504" lon="4.644920993596315">
        <ele>253.93000000000001</ele>
        <time>2025-04-24T10:20:49Z</time>
      </trkpt>
      <trkpt lat="45.98232502117753" lon="4.644875982776284">
        <ele>253.93000000000001</ele>
        <time>2025-04-24T10:20:50Z</time>
      </trkpt>
      <trkpt lat="45.982267018407583" lon="4.644789984449744">
        <ele>253.93000000000001</ele>
        <time>2025-04-24T10:20:51Z</time>
      </trkpt>
      <trkpt lat="45.98219501785934" lon="4.644696023315191">
        <ele>254.41</ele>
        <time>2025-04-24T10:20:52Z</time>
      </trkpt>
      <trkpt lat="45.982112037017941" lon="4.644606001675129">
        <ele>254.41</ele>
        <time>2025-04-24T10:20:53Z</time>
      </trkpt>
      <trkpt lat="45.98202402703464" lon="4.644510028883815">
        <ele>254.41</ele>
        <time>2025-04-24T10:20:54Z</time>
      </trkpt>
      <trkpt lat="45.981927970424294" lon="4.644406009465456">
        <ele>254.88999999999999</ele>
        <time>2025-04-24T10:20:55Z</time>
      </trkpt>
      <trkpt lat="45.981827974319458" lon="4.644296960905194">
        <ele>254.88999999999999</ele>
        <time>2025-04-24T10:20:56Z</time>
      </trkpt>
      <trkpt lat="45.981734013184905" lon="4.644195958971977">
        <ele>255.37</ele>
        <time>2025-04-24T10:20:57Z</time>
      </trkpt>
      <trkpt lat="45.981665030121803" lon="4.644069978967309">
        <ele>255.84999999999999</ele>
        <time>2025-04-24T10:20:58Z</time>
      </trkpt>
      <trkpt lat="45.981611972674727" lon="4.643952967599034">
        <ele>255.84999999999999</ele>
        <time>2025-04-24T10:20:59Z</time>
      </trkpt>
      <trkpt lat="45.981608033180237" lon="4.64379102922976">
        <ele>255.84999999999999</ele>
        <time>2025-04-24T10:21:00Z</time>
      </trkpt>
      <trkpt lat="45.981612978503108" lon="4.643634958192706">
        <ele>255.84999999999999</ele>
        <time>2025-04-24T10:21:01Z</time>
      </trkpt>
      <trkpt lat="45.981619013473392" lon="4.643454998731613">
        <ele>256.32999999999998</ele>
        <time>2025-04-24T10:21:02Z</time>
      </trkpt>
      <trkpt lat="45.981806013733149" lon="4.641777025535703">
        <ele>259.69</ele>
        <time>2025-04-24T10:21:11Z</time>
      </trkpt>
      <trkpt lat="45.981857981532812" lon="4.640488978475332">
        <ele>263.54000000000002</ele>
        <time>2025-04-24T10:21:18Z</time>
      </trkpt>
      <trkpt lat="45.981885977089405" lon="4.640314970165491">
        <ele>264.01999999999998</ele>
        <time>2025-04-24T10:21:19Z</time>
      </trkpt>
      <trkpt lat="45.982200969010592" lon="4.639120968058705">
        <ele>269.31</ele>
        <time>2025-04-24T10:21:27Z</time>
      </trkpt>
      <trkpt lat="45.982258971780539" lon="4.639030024409294">
        <ele>269.79000000000002</ele>
        <time>2025-04-24T10:21:28Z</time>
      </trkpt>
      <trkpt lat="45.982333989813924" lon="4.638955006375909">
        <ele>270.26999999999998</ele>
        <time>2025-04-24T10:21:29Z</time>
      </trkpt>
      <trkpt lat="45.983133958652616" lon="4.638143973425031">
        <ele>276.04000000000002</ele>
        <time>2025-04-24T10:21:37Z</time>
      </trkpt>
      <trkpt lat="45.983589012175798" lon="4.637642987072468">
        <ele>280.36000000000001</ele>
        <time>2025-04-24T10:21:41Z</time>
      </trkpt>
      <trkpt lat="45.983698982745409" lon="4.637489011511207">
        <ele>281.31999999999999</ele>
        <time>2025-04-24T10:21:42Z</time>
      </trkpt>
      <trkpt lat="45.98378699272871" lon="4.637313997372985">
        <ele>282.27999999999997</ele>
        <time>2025-04-24T10:21:43Z</time>
      </trkpt>
      <trkpt lat="45.984209021553397" lon="4.636386036872864">
        <ele>286.61000000000001</ele>
        <time>2025-04-24T10:21:48Z</time>
      </trkpt>
      <trkpt lat="45.984254032373428" lon="4.636177998036146">
        <ele>287.56999999999999</ele>
        <time>2025-04-24T10:21:49Z</time>
      </trkpt>
      <trkpt lat="45.984307006001472" lon="4.6359299775213">
        <ele>288.52999999999997</ele>
        <time>2025-04-24T10:21:50Z</time>
      </trkpt>
      <trkpt lat="45.984307006001472" lon="4.635731996968389">
        <ele>289.49000000000001</ele>
        <time>2025-04-24T10:21:51Z</time>
      </trkpt>
      <trkpt lat="45.984307006001472" lon="4.6354999858886">
        <ele>290.45999999999998</ele>
        <time>2025-04-24T10:21:52Z</time>
      </trkpt>
      <trkpt lat="45.984413959085941" lon="4.633025983348489">
        <ele>301.50999999999999</ele>
        <time>2025-04-24T10:22:02Z</time>
      </trkpt>
      <trkpt lat="45.984467016533017" lon="4.63150198571384">
        <ele>308.24000000000001</ele>
        <time>2025-04-24T10:22:09Z</time>
      </trkpt>
      <trkpt lat="45.984508004039526" lon="4.631347004324198">
        <ele>309.19999999999999</ele>
        <time>2025-04-24T10:22:10Z</time>
      </trkpt>
      <trkpt lat="45.98458101041615" lon="4.631229992955923">
        <ele>309.68000000000001</ele>
        <time>2025-04-24T10:22:11Z</time>
      </trkpt>
      <trkpt lat="45.984997004270554" lon="4.630701011046767">
        <ele>314.00999999999999</ele>
        <time>2025-04-24T10:22:16Z</time>
      </trkpt>
      <trkpt lat="45.985089959576726" lon="4.630623981356621">
        <ele>314.49000000000001</ele>
        <time>2025-04-24T10:22:17Z</time>
      </trkpt>
      <trkpt lat="45.986071983352304" lon="4.629669031128287">
        <ele>322.18000000000001</ele>
        <time>2025-04-24T10:22:27Z</time>
      </trkpt>
      <trkpt lat="45.986593002453446" lon="4.629060002043843">
        <ele>326.01999999999998</ele>
        <time>2025-04-24T10:22:32Z</time>
      </trkpt>
      <trkpt lat="45.986713031306863" lon="4.62896604090929">
        <ele>326.99000000000001</ele>
        <time>2025-04-24T10:22:33Z</time>
      </trkpt>
      <trkpt lat="45.986832976341248" lon="4.628873001784086">
        <ele>327.47000000000003</ele>
        <time>2025-04-24T10:22:34Z</time>
      </trkpt>
      <trkpt lat="45.98752498626709" lon="4.628341002389789">
        <ele>332.26999999999998</ele>
        <time>2025-04-24T10:22:41Z</time>
      </trkpt>
      <trkpt lat="45.987585000693798" lon="4.62823698297143">
        <ele>332.75</ele>
        <time>2025-04-24T10:22:42Z</time>
      </trkpt>
      <trkpt lat="45.987646020948887" lon="4.628131035715342">
        <ele>333.70999999999998</ele>
        <time>2025-04-24T10:22:43Z</time>
      </trkpt>
      <trkpt lat="45.98782598040998" lon="4.627818977460265">
        <ele>335.63999999999999</ele>
        <time>2025-04-24T10:22:46Z</time>
      </trkpt>
      <trkpt lat="45.98784701898694" lon="4.627729039639235">
        <ele>336.12</ele>
        <time>2025-04-24T10:22:47Z</time>
      </trkpt>
      <trkpt lat="45.987874008715153" lon="4.627610016614199">
        <ele>336.60000000000002</ele>
        <time>2025-04-24T10:22:48Z</time>
      </trkpt>
      <trkpt lat="45.987893035635352" lon="4.627490993589163">
        <ele>337.07999999999998</ele>
        <time>2025-04-24T10:22:49Z</time>
      </trkpt>
      <trkpt lat="45.987900998443365" lon="4.627369958907366">
        <ele>337.56</ele>
        <time>2025-04-24T10:22:50Z</time>
      </trkpt>
      <trkpt lat="45.987929999828339" lon="4.626454990357161">
        <ele>340.44</ele>
        <time>2025-04-24T10:22:58Z</time>
      </trkpt>
      <trkpt lat="45.987904015928507" lon="4.626350970938802">
        <ele>340.92000000000002</ele>
        <time>2025-04-24T10:22:59Z</time>
      </trkpt>
      <trkpt lat="45.987879037857056" lon="4.626249969005585">
        <ele>340.92000000000002</ele>
        <time>2025-04-24T10:23:00Z</time>
      </trkpt>
      <trkpt lat="45.987854981794953" lon="4.626153996214271">
        <ele>341.41000000000003</ele>
        <time>2025-04-24T10:23:01Z</time>
      </trkpt>
      <trkpt lat="45.987828997895122" lon="4.626049976795912">
        <ele>341.88999999999999</ele>
        <time>2025-04-24T10:23:02Z</time>
      </trkpt>
      <trkpt lat="45.987799996510148" lon="4.625941012054682">
        <ele>341.88999999999999</ele>
        <time>2025-04-24T10:23:03Z</time>
      </trkpt>
      <trkpt lat="45.987764038145542" lon="4.625839004293084">
        <ele>342.37</ele>
        <time>2025-04-24T10:23:04Z</time>
      </trkpt>
      <trkpt lat="45.987729001790285" lon="4.625738002359867">
        <ele>342.85000000000002</ele>
        <time>2025-04-24T10:23:05Z</time>
      </trkpt>
      <trkpt lat="45.987630011513829" lon="4.625436002388597">
        <ele>343.81</ele>
        <time>2025-04-24T10:23:08Z</time>
      </trkpt>
      <trkpt lat="45.987600004300475" lon="4.62533600628376">
        <ele>344.29000000000002</ele>
        <time>2025-04-24T10:23:09Z</time>
      </trkpt>
      <trkpt lat="45.987547030672431" lon="4.625157974660397">
        <ele>344.29000000000002</ele>
        <time>2025-04-24T10:23:11Z</time>
      </trkpt>
      <trkpt lat="45.987520962953568" lon="4.625082034617662">
        <ele>344.76999999999998</ele>
        <time>2025-04-24T10:23:12Z</time>
      </trkpt>
      <trkpt lat="45.987499002367258" lon="4.62501397356391">
        <ele>344.76999999999998</ele>
        <time>2025-04-24T10:23:13Z</time>
      </trkpt>
      <trkpt lat="45.98748198710382" lon="4.624965023249388">
        <ele>345.25</ele>
        <time>2025-04-24T10:23:14Z</time>
      </trkpt>
      <trkpt lat="45.987470000982285" lon="4.624926969408989">
        <ele>345.25</ele>
        <time>2025-04-24T10:23:15Z</time>
      </trkpt>
      <trkpt lat="45.987457009032369" lon="4.62477701716125">
        <ele>345.73000000000002</ele>
        <time>2025-04-24T10:23:17Z</time>
      </trkpt>
      <trkpt lat="45.987409986555576" lon="4.624771988019347">
        <ele>346.20999999999998</ele>
        <time>2025-04-24T10:23:18Z</time>
      </trkpt>
      <trkpt lat="45.987356007099152" lon="4.624773999676108">
        <ele>346.20999999999998</ele>
        <time>2025-04-24T10:23:19Z</time>
      </trkpt>
      <trkpt lat="45.98690296523273" lon="4.624792020767927">
        <ele>345.73000000000002</ele>
        <time>2025-04-24T10:23:25Z</time>
      </trkpt>
      <trkpt lat="45.985872996971011" lon="4.6250110398978">
        <ele>346.69</ele>
        <time>2025-04-24T10:23:37Z</time>
      </trkpt>
      <trkpt lat="45.98578498698771" lon="4.625036017969251">
        <ele>347.64999999999998</ele>
        <time>2025-04-24T10:23:38Z</time>
      </trkpt>
      <trkpt lat="45.98481796681881" lon="4.62522704154253">
        <ele>355.33999999999997</ele>
        <time>2025-04-24T10:23:49Z</time>
      </trkpt>
      <trkpt lat="45.98468704149127" lon="4.62520600296557">
        <ele>356.31</ele>
        <time>2025-04-24T10:23:50Z</time>
      </trkpt>
      <trkpt lat="45.984551003202796" lon="4.625184964388609">
        <ele>356.79000000000002</ele>
        <time>2025-04-24T10:23:51Z</time>
      </trkpt>
      <trkpt lat="45.984423011541367" lon="4.625081028789282">
        <ele>357.26999999999998</ele>
        <time>2025-04-24T10:23:52Z</time>
      </trkpt>
      <trkpt lat="45.984312035143375" lon="4.624969968572259">
        <ele>358.23000000000002</ele>
        <time>2025-04-24T10:23:53Z</time>
      </trkpt>
      <trkpt lat="45.984207009896636" lon="4.624865027144551">
        <ele>359.19</ele>
        <time>2025-04-24T10:23:54Z</time>
      </trkpt>
      <trkpt lat="45.983617007732391" lon="4.62406899780035">
        <ele>366.39999999999998</ele>
        <time>2025-04-24T10:24:02Z</time>
      </trkpt>
      <trkpt lat="45.983172012493014" lon="4.623196022585034">
        <ele>369.27999999999997</ele>
        <time>2025-04-24T10:24:10Z</time>
      </trkpt>
      <trkpt lat="45.983113003894687" lon="4.623044980689883">
        <ele>368.80000000000001</ele>
        <time>2025-04-24T10:24:11Z</time>
      </trkpt>
      <trkpt lat="45.9830760397017" lon="4.622881030663848">
        <ele>368.80000000000001</ele>
        <time>2025-04-24T10:24:12Z</time>
      </trkpt>
      <trkpt lat="45.983060030266643" lon="4.622702999040484">
        <ele>368.31999999999999</ele>
        <time>2025-04-24T10:24:13Z</time>
      </trkpt>
      <trkpt lat="45.982894990593195" lon="4.621102977544069">
        <ele>362.55000000000001</ele>
        <time>2025-04-24T10:24:21Z</time>
      </trkpt>
      <trkpt lat="45.982869006693363" lon="4.620930980890989">
        <ele>362.06999999999999</ele>
        <time>2025-04-24T10:24:22Z</time>
      </trkpt>
      <trkpt lat="45.982801029458642" lon="4.620781028643251">
        <ele>362.06999999999999</ele>
        <time>2025-04-24T10:24:23Z</time>
      </trkpt>
      <trkpt lat="45.982708996161819" lon="4.620649013668299">
        <ele>362.06999999999999</ele>
        <time>2025-04-24T10:24:24Z</time>
      </trkpt>
      <trkpt lat="45.982590978965163" lon="4.620546000078321">
        <ele>362.06999999999999</ele>
        <time>2025-04-24T10:24:25Z</time>
      </trkpt>
      <trkpt lat="45.982466004788876" lon="4.620437035337091">
        <ele>362.55000000000001</ele>
        <time>2025-04-24T10:24:26Z</time>
      </trkpt>
      <trkpt lat="45.981537960469723" lon="4.619268011301756">
        <ele>368.80000000000001</ele>
        <time>2025-04-24T10:24:34Z</time>
      </trkpt>
      <trkpt lat="45.980798006057739" lon="4.618122037500143">
        <ele>372.64999999999998</ele>
        <time>2025-04-24T10:24:41Z</time>
      </trkpt>
      <trkpt lat="45.980709996074438" lon="4.61794400587678">
        <ele>372.64999999999998</ele>
        <time>2025-04-24T10:24:42Z</time>
      </trkpt>
      <trkpt lat="45.980656016618013" lon="4.617755999788642">
        <ele>373.13</ele>
        <time>2025-04-24T10:24:43Z</time>
      </trkpt>
      <trkpt lat="45.980617962777615" lon="4.617561958730221">
        <ele>373.13</ele>
        <time>2025-04-24T10:24:44Z</time>
      </trkpt>
      <trkpt lat="45.980588039383292" lon="4.617359032854438">
        <ele>373.13</ele>
        <time>2025-04-24T10:24:45Z</time>
      </trkpt>
      <trkpt lat="45.980577981099486" lon="4.617148982360959">
        <ele>372.64999999999998</ele>
        <time>2025-04-24T10:24:46Z</time>
      </trkpt>
      <trkpt lat="45.98058502189815" lon="4.616943039000034">
        <ele>372.64999999999998</ele>
        <time>2025-04-24T10:24:47Z</time>
      </trkpt>
      <trkpt lat="45.980592984706163" lon="4.61674002930522">
        <ele>372.64999999999998</ele>
        <time>2025-04-24T10:24:48Z</time>
      </trkpt>
      <trkpt lat="45.980632966384292" lon="4.616541964933276">
        <ele>372.17000000000002</ele>
        <time>2025-04-24T10:24:49Z</time>
      </trkpt>
      <trkpt lat="45.980677977204323" lon="4.616353958845139">
        <ele>372.17000000000002</ele>
        <time>2025-04-24T10:24:50Z</time>
      </trkpt>
      <trkpt lat="45.980730028823018" lon="4.616179028525949">
        <ele>372.17000000000002</ele>
        <time>2025-04-24T10:24:51Z</time>
      </trkpt>
      <trkpt lat="45.980791971087456" lon="4.61601298302412">
        <ele>372.17000000000002</ele>
        <time>2025-04-24T10:24:52Z</time>
      </trkpt>
      <trkpt lat="45.980856008827686" lon="4.615841992199421">
        <ele>371.69</ele>
        <time>2025-04-24T10:24:53Z</time>
      </trkpt>
      <trkpt lat="45.981018031015992" lon="4.615508979186416">
        <ele>371.20999999999998</ele>
        <time>2025-04-24T10:24:55Z</time>
      </trkpt>
      <trkpt lat="45.98159302957356" lon="4.614581018686295">
        <ele>368.80000000000001</ele>
        <time>2025-04-24T10:25:01Z</time>
      </trkpt>
      <trkpt lat="45.981712974607944" lon="4.614478005096316">
        <ele>368.31999999999999</ele>
        <time>2025-04-24T10:25:02Z</time>
      </trkpt>
      <trkpt lat="45.981817999854684" lon="4.614386977627873">
        <ele>368.31999999999999</ele>
        <time>2025-04-24T10:25:03Z</time>
      </trkpt>
      <trkpt lat="45.981954960152507" lon="4.61433500982821">
        <ele>367.83999999999997</ele>
        <time>2025-04-24T10:25:04Z</time>
      </trkpt>
      <trkpt lat="45.982074989005923" lon="4.614289999008179">
        <ele>367.83999999999997</ele>
        <time>2025-04-24T10:25:05Z</time>
      </trkpt>
      <trkpt lat="45.982160987332463" lon="4.614257980138063">
        <ele>367.36000000000001</ele>
        <time>2025-04-24T10:25:06Z</time>
      </trkpt>
      <trkpt lat="45.982253020629287" lon="4.614176005125046">
        <ele>367.36000000000001</ele>
        <time>2025-04-24T10:25:07Z</time>
      </trkpt>
      <trkpt lat="45.982323009520769" lon="4.614113979041576">
        <ele>366.88</ele>
        <time>2025-04-24T10:25:08Z</time>
      </trkpt>
      <trkpt lat="45.982371037825942" lon="4.614027980715036">
        <ele>366.39999999999998</ele>
        <time>2025-04-24T10:25:09Z</time>
      </trkpt>
      <trkpt lat="45.982406996190548" lon="4.613908035680652">
        <ele>366.39999999999998</ele>
        <time>2025-04-24T10:25:10Z</time>
      </trkpt>
      <trkpt lat="45.982442032545805" lon="4.613787000998855">
        <ele>366.39999999999998</ele>
        <time>2025-04-24T10:25:11Z</time>
      </trkpt>
      <trkpt lat="45.982441026717424" lon="4.613674012944102">
        <ele>366.39999999999998</ele>
        <time>2025-04-24T10:25:12Z</time>
      </trkpt>
      <trkpt lat="45.982396015897393" lon="4.613568987697363">
        <ele>366.39999999999998</ele>
        <time>2025-04-24T10:25:13Z</time>
      </trkpt>
      <trkpt lat="45.982349999248981" lon="4.613461028784514">
        <ele>366.39999999999998</ele>
        <time>2025-04-24T10:25:14Z</time>
      </trkpt>
      <trkpt lat="45.982279004529119" lon="4.613380981609225">
        <ele>366.88</ele>
        <time>2025-04-24T10:25:15Z</time>
      </trkpt>
      <trkpt lat="45.98219501785934" lon="4.613317027688026">
        <ele>366.88</ele>
        <time>2025-04-24T10:25:16Z</time>
      </trkpt>
      <trkpt lat="45.982094015926123" lon="4.613277968019247">
        <ele>367.36000000000001</ele>
        <time>2025-04-24T10:25:17Z</time>
      </trkpt>
      <trkpt lat="45.981993013992906" lon="4.613256007432938">
        <ele>367.83999999999997</ele>
        <time>2025-04-24T10:25:18Z</time>
      </trkpt>
      <trkpt lat="45.980945024639368" lon="4.613032964989543">
        <ele>370.73000000000002</ele>
        <time>2025-04-24T10:25:27Z</time>
      </trkpt>
      <trkpt lat="45.980789037421346" lon="4.612968005239964">
        <ele>372.17000000000002</ele>
        <time>2025-04-24T10:25:29Z</time>
      </trkpt>
      <trkpt lat="45.980702033266425" lon="4.612905979156494">
        <ele>372.64999999999998</ele>
        <time>2025-04-24T10:25:30Z</time>
      </trkpt>
      <trkpt lat="45.980672026053071" lon="4.61283003911376">
        <ele>373.61000000000001</ele>
        <time>2025-04-24T10:25:31Z</time>
      </trkpt>
      <trkpt lat="45.980647969990969" lon="4.612688971683383">
        <ele>374.08999999999997</ele>
        <time>2025-04-24T10:25:32Z</time>
      </trkpt>
      <trkpt lat="45.980631960555911" lon="4.612538013607264">
        <ele>374.56999999999999</ele>
        <time>2025-04-24T10:25:33Z</time>
      </trkpt>
      <trkpt lat="45.980617040768266" lon="4.612397029995918">
        <ele>375.52999999999997</ele>
        <time>2025-04-24T10:25:34Z</time>
      </trkpt>
      <trkpt lat="45.980518972501159" lon="4.611459011211991">
        <ele>380.33999999999997</ele>
        <time>2025-04-24T10:25:43Z</time>
      </trkpt>
      <trkpt lat="45.980444960296154" lon="4.610625011846423">
        <ele>383.22000000000003</ele>
        <time>2025-04-24T10:25:50Z</time>
      </trkpt>
      <trkpt lat="45.980422999709845" lon="4.610373973846436">
        <ele>383.22000000000003</ele>
        <time>2025-04-24T10:25:52Z</time>
      </trkpt>
      <trkpt lat="45.980422999709845" lon="4.610251011326909">
        <ele>383.69999999999999</ele>
        <time>2025-04-24T10:25:53Z</time>
      </trkpt>
      <trkpt lat="45.980450995266438" lon="4.609983041882515">
        <ele>382.74000000000001</ele>
        <time>2025-04-24T10:25:55Z</time>
      </trkpt>
      <trkpt lat="45.980655010789633" lon="4.608515035361052">
        <ele>379.38</ele>
        <time>2025-04-24T10:26:04Z</time>
      </trkpt>
      <trkpt lat="45.980617040768266" lon="4.608392994850874">
        <ele>378.89999999999998</ele>
        <time>2025-04-24T10:26:05Z</time>
      </trkpt>
      <trkpt lat="45.980572029948235" lon="4.608295010402799">
        <ele>378.89999999999998</ele>
        <time>2025-04-24T10:26:06Z</time>
      </trkpt>
      <trkpt lat="45.980525007471442" lon="4.608225021511316">
        <ele>378.89999999999998</ele>
        <time>2025-04-24T10:26:07Z</time>
      </trkpt>
      <trkpt lat="45.980460969731212" lon="4.608167018741369">
        <ele>378.42000000000002</ele>
        <time>2025-04-24T10:26:08Z</time>
      </trkpt>
      <trkpt lat="45.980393998324871" lon="4.608107004314661">
        <ele>378.42000000000002</ele>
        <time>2025-04-24T10:26:09Z</time>
      </trkpt>
      <trkpt lat="45.980331972241402" lon="4.608050007373095">
        <ele>377.94</ele>
        <time>2025-04-24T10:26:10Z</time>
      </trkpt>
      <trkpt lat="45.980311017483473" lon="4.607956968247891">
        <ele>377.44999999999999</ele>
        <time>2025-04-24T10:26:11Z</time>
      </trkpt>
      <trkpt lat="45.980303976684809" lon="4.607857977971435">
        <ele>376.97000000000003</ele>
        <time>2025-04-24T10:26:12Z</time>
      </trkpt>
      <trkpt lat="45.980297019705176" lon="4.607753958553076">
        <ele>376.49000000000001</ele>
        <time>2025-04-24T10:26:13Z</time>
      </trkpt>
      <trkpt lat="45.980320991948247" lon="4.607667038217187">
        <ele>376.00999999999999</ele>
        <time>2025-04-24T10:26:14Z</time>
      </trkpt>
      <trkpt lat="45.980375977233052" lon="4.607572993263602">
        <ele>375.52999999999997</ele>
        <time>2025-04-24T10:26:15Z</time>
      </trkpt>
      <trkpt lat="45.980444038286805" lon="4.607455981895328">
        <ele>375.05000000000001</ele>
        <time>2025-04-24T10:26:16Z</time>
      </trkpt>
      <trkpt lat="45.980502041056752" lon="4.607380041852593">
        <ele>374.08999999999997</ele>
        <time>2025-04-24T10:26:17Z</time>
      </trkpt>
      <trkpt lat="45.981258004903793" lon="4.606503965333104">
        <ele>370.24000000000001</ele>
        <time>2025-04-24T10:26:26Z</time>
      </trkpt>
      <trkpt lat="45.98133897408843" lon="4.606425007805228">
        <ele>370.24000000000001</ele>
        <time>2025-04-24T10:26:27Z</time>
      </trkpt>
      <trkpt lat="45.981469983235002" lon="4.60629902780056">
        <ele>370.73000000000002</ele>
        <time>2025-04-24T10:26:29Z</time>
      </trkpt>
      <trkpt lat="45.981538966298103" lon="4.606232978403568">
        <ele>371.20999999999998</ele>
        <time>2025-04-24T10:26:30Z</time>
      </trkpt>
      <trkpt lat="45.981548018753529" lon="4.606158966198564">
        <ele>371.20999999999998</ele>
        <time>2025-04-24T10:26:31Z</time>
      </trkpt>
      <trkpt lat="45.981558999046683" lon="4.606071040034294">
        <ele>371.69</ele>
        <time>2025-04-24T10:26:32Z</time>
      </trkpt>
      <trkpt lat="45.981535026803613" lon="4.605973977595568">
        <ele>371.69</ele>
        <time>2025-04-24T10:26:33Z</time>
      </trkpt>
      <trkpt lat="45.981497978791595" lon="4.605893008410931">
        <ele>371.69</ele>
        <time>2025-04-24T10:26:34Z</time>
      </trkpt>
      <trkpt lat="45.981432013213634" lon="4.605835005640984">
        <ele>372.17000000000002</ele>
        <time>2025-04-24T10:26:35Z</time>
      </trkpt>
      <trkpt lat="45.981354983523488" lon="4.605766022577882">
        <ele>372.64999999999998</ele>
        <time>2025-04-24T10:26:36Z</time>
      </trkpt>
      <trkpt lat="45.981276025995612" lon="4.6056960336864">
        <ele>373.13</ele>
        <time>2025-04-24T10:26:37Z</time>
      </trkpt>
      <trkpt lat="45.981196984648705" lon="4.605625960975885">
        <ele>373.13</ele>
        <time>2025-04-24T10:26:38Z</time>
      </trkpt>
      <trkpt lat="45.981117021292448" lon="4.605550020933151">
        <ele>373.61000000000001</ele>
        <time>2025-04-24T10:26:39Z</time>
      </trkpt>
      <trkpt lat="45.980473961681128" lon="4.604694982990623">
        <ele>376.00999999999999</ele>
        <time>2025-04-24T10:26:48Z</time>
      </trkpt>
      <trkpt lat="45.980421993881464" lon="4.604584006592631">
        <ele>376.00999999999999</ele>
        <time>2025-04-24T10:26:49Z</time>
      </trkpt>
      <trkpt lat="45.980381006374955" lon="4.604447968304157">
        <ele>376.49000000000001</ele>
        <time>2025-04-24T10:26:50Z</time>
      </trkpt>
      <trkpt lat="45.980384023860097" lon="4.604302039369941">
        <ele>376.00999999999999</ele>
        <time>2025-04-24T10:26:51Z</time>
      </trkpt>
      <trkpt lat="45.980387041345239" lon="4.604146974161267">
        <ele>376.00999999999999</ele>
        <time>2025-04-24T10:26:52Z</time>
      </trkpt>
      <trkpt lat="45.98043599165976" lon="4.603261006996036">
        <ele>376.00999999999999</ele>
        <time>2025-04-24T10:26:57Z</time>
      </trkpt>
      <trkpt lat="45.980827007442713" lon="4.601313974708319">
        <ele>373.13</ele>
        <time>2025-04-24T10:27:07Z</time>
      </trkpt>
      <trkpt lat="45.981291029602289" lon="4.599530976265669">
        <ele>368.80000000000001</ele>
        <time>2025-04-24T10:27:16Z</time>
      </trkpt>
      <trkpt lat="45.981526980176568" lon="4.598656995221973">
        <ele>365.44</ele>
        <time>2025-04-24T10:27:22Z</time>
      </trkpt>
      <trkpt lat="45.981520023196936" lon="4.598506959155202">
        <ele>364.95999999999998</ele>
        <time>2025-04-24T10:27:23Z</time>
      </trkpt>
      <trkpt lat="45.981496972963214" lon="4.598404029384255">
        <ele>364.95999999999998</ele>
        <time>2025-04-24T10:27:24Z</time>
      </trkpt>
      <trkpt lat="45.981435030698776" lon="4.598323982208967">
        <ele>364.48000000000002</ele>
        <time>2025-04-24T10:27:25Z</time>
      </trkpt>
      <trkpt lat="45.981377027928829" lon="4.598251981660724">
        <ele>364.48000000000002</ele>
        <time>2025-04-24T10:27:26Z</time>
      </trkpt>
      <trkpt lat="45.981302009895444" lon="4.598192973062396">
        <ele>364.48000000000002</ele>
        <time>2025-04-24T10:27:27Z</time>
      </trkpt>
      <trkpt lat="45.981225986033678" lon="4.59821904078126">
        <ele>364.48000000000002</ele>
        <time>2025-04-24T10:27:28Z</time>
      </trkpt>
      <trkpt lat="45.981125989928842" lon="4.598256004974246">
        <ele>364.95999999999998</ele>
        <time>2025-04-24T10:27:29Z</time>
      </trkpt>
      <trkpt lat="45.981045020744205" lon="4.59835097193718">
        <ele>365.44</ele>
        <time>2025-04-24T10:27:30Z</time>
      </trkpt>
      <trkpt lat="45.980962039902806" lon="4.598462032154203">
        <ele>365.92000000000002</ele>
        <time>2025-04-24T10:27:31Z</time>
      </trkpt>
      <trkpt lat="45.980884004384279" lon="4.598581977188587">
        <ele>366.39999999999998</ele>
        <time>2025-04-24T10:27:32Z</time>
      </trkpt>
      <trkpt lat="45.980314034968615" lon="4.599452018737793">
        <ele>370.24000000000001</ele>
        <time>2025-04-24T10:27:39Z</time>
      </trkpt>
      <trkpt lat="45.980247985571623" lon="4.59955302067101">
        <ele>370.73000000000002</ele>
        <time>2025-04-24T10:27:40Z</time>
      </trkpt>
      <trkpt lat="45.98017699085176" lon="4.599602976813912">
        <ele>371.20999999999998</ele>
        <time>2025-04-24T10:27:41Z</time>
      </trkpt>
      <trkpt lat="45.980080012232065" lon="4.599644970148802">
        <ele>371.69</ele>
        <time>2025-04-24T10:27:42Z</time>
      </trkpt>
      <trkpt lat="45.979972975328565" lon="4.599644970148802">
        <ele>372.64999999999998</ele>
        <time>2025-04-24T10:27:43Z</time>
      </trkpt>
      <trkpt lat="45.979843977838755" lon="4.599644970148802">
        <ele>373.13</ele>
        <time>2025-04-24T10:27:44Z</time>
      </trkpt>
      <trkpt lat="45.979725960642099" lon="4.599644970148802">
        <ele>374.08999999999997</ele>
        <time>2025-04-24T10:27:45Z</time>
      </trkpt>
      <trkpt lat="45.979624036699533" lon="4.599692998453975">
        <ele>374.56999999999999</ele>
        <time>2025-04-24T10:27:46Z</time>
      </trkpt>
      <trkpt lat="45.979550024494529" lon="4.599801963195205">
        <ele>375.05000000000001</ele>
        <time>2025-04-24T10:27:47Z</time>
      </trkpt>
      <trkpt lat="45.979508031159639" lon="4.599938001483679">
        <ele>376.00999999999999</ele>
        <time>2025-04-24T10:27:48Z</time>
      </trkpt>
      <trkpt lat="45.979463020339608" lon="4.600086025893688">
        <ele>376.49000000000001</ele>
        <time>2025-04-24T10:27:49Z</time>
      </trkpt>
      <trkpt lat="45.979415997862816" lon="4.600242013111711">
        <ele>376.97000000000003</ele>
        <time>2025-04-24T10:27:50Z</time>
      </trkpt>
      <trkpt lat="45.979364030063152" lon="4.600411998108029">
        <ele>377.44999999999999</ele>
        <time>2025-04-24T10:27:51Z</time>
      </trkpt>
      <trkpt lat="45.979308960959315" lon="4.600592041388154">
        <ele>377.94</ele>
        <time>2025-04-24T10:27:52Z</time>
      </trkpt>
      <trkpt lat="45.979248024523258" lon="4.600768983364105">
        <ele>378.89999999999998</ele>
        <time>2025-04-24T10:27:53Z</time>
      </trkpt>
      <trkpt lat="45.979064963757992" lon="4.601104008033872">
        <ele>380.33999999999997</ele>
        <time>2025-04-24T10:27:55Z</time>
      </trkpt>
      <trkpt lat="45.978427017107606" lon="4.60209097713232">
        <ele>385.14999999999998</ele>
        <time>2025-04-24T10:28:01Z</time>
      </trkpt>
      <trkpt lat="45.977957965806127" lon="4.60337701253593">
        <ele>391.38999999999999</ele>
        <time>2025-04-24T10:28:09Z</time>
      </trkpt>
      <trkpt lat="45.977694019675255" lon="4.603969026356936">
        <ele>394.27999999999997</ele>
        <time>2025-04-24T10:28:13Z</time>
      </trkpt>
      <trkpt lat="45.97761900164187" lon="4.604134988039732">
        <ele>395.24000000000001</ele>
        <time>2025-04-24T10:28:14Z</time>
      </trkpt>
      <trkpt lat="45.976733034476638" lon="4.605902982875705">
        <ele>400.52999999999997</ele>
        <time>2025-04-24T10:28:24Z</time>
      </trkpt>
      <trkpt lat="45.976054016500711" lon="4.606718039140105">
        <ele>403.41000000000003</ele>
        <time>2025-04-24T10:28:31Z</time>
      </trkpt>
      <trkpt lat="45.975767020136118" lon="4.606902021914721">
        <ele>403.88999999999999</ele>
        <time>2025-04-24T10:28:34Z</time>
      </trkpt>
      <trkpt lat="45.975669035688043" lon="4.606945021077991">
        <ele>404.37</ele>
        <time>2025-04-24T10:28:35Z</time>
      </trkpt>
      <trkpt lat="45.975572979077697" lon="4.606977039948106">
        <ele>404.37</ele>
        <time>2025-04-24T10:28:36Z</time>
      </trkpt>
      <trkpt lat="45.975138964131474" lon="4.607046023011208">
        <ele>407.25999999999999</ele>
        <time>2025-04-24T10:28:42Z</time>
      </trkpt>
      <trkpt lat="45.975093031302094" lon="4.607022972777486">
        <ele>407.74000000000001</ele>
        <time>2025-04-24T10:28:43Z</time>
      </trkpt>
      <trkpt lat="45.97506201826036" lon="4.607006963342428">
        <ele>407.74000000000001</ele>
        <time>2025-04-24T10:28:44Z</time>
      </trkpt>
      <trkpt lat="45.975016001611948" lon="4.606983996927738">
        <ele>408.69999999999999</ele>
        <time>2025-04-24T10:28:49Z</time>
      </trkpt>
      <trkpt lat="45.975046008825302" lon="4.606924988329411">
        <ele>409.18000000000001</ele>
        <time>2025-04-24T10:28:50Z</time>
      </trkpt>
      <trkpt lat="45.975080039352179" lon="4.606859022751451">
        <ele>409.66000000000003</ele>
        <time>2025-04-24T10:28:51Z</time>
      </trkpt>
      <trkpt lat="45.975123960524797" lon="4.606773024424911">
        <ele>409.66000000000003</ele>
        <time>2025-04-24T10:28:52Z</time>
      </trkpt>
      <trkpt lat="45.97517198882997" lon="4.606678979471326">
        <ele>410.13999999999999</ele>
        <time>2025-04-24T10:28:53Z</time>
      </trkpt>
      <trkpt lat="45.975683033466339" lon="4.605670971795917">
        <ele>411.10000000000002</ele>
        <time>2025-04-24T10:29:03Z</time>
      </trkpt>
      <trkpt lat="45.975846983492374" lon="4.605342987924814">
        <ele>413.01999999999998</ele>
        <time>2025-04-24T10:29:10Z</time>
      </trkpt>
      <trkpt lat="45.975869027897716" lon="4.605297977104783">
        <ele>413.98000000000002</ele>
        <time>2025-04-24T10:29:24Z</time>
      </trkpt>
      <trkpt lat="45.9759889729321" lon="4.605046017095447">
        <ele>401.00999999999999</ele>
        <time>2025-04-24T10:37:18Z</time>
      </trkpt>
      <trkpt lat="45.975912027060986" lon="4.605212984606624">
        <ele>414.94999999999999</ele>
        <time>2025-04-24T10:37:34Z</time>
      </trkpt>
      <trkpt lat="45.976256020367146" lon="4.604477975517511">
        <ele>414.94999999999999</ele>
        <time>2025-04-24T10:37:41Z</time>
      </trkpt>
      <trkpt lat="45.976831018924713" lon="4.602706041187048">
        <ele>418.31</ele>
        <time>2025-04-24T10:37:51Z</time>
      </trkpt>
      <trkpt lat="45.977496039122343" lon="4.600231032818556">
        <ele>423.12</ele>
        <time>2025-04-24T10:38:03Z</time>
      </trkpt>
      <trkpt lat="45.977696031332016" lon="4.598682979121804">
        <ele>428.39999999999998</ele>
        <time>2025-04-24T10:38:11Z</time>
      </trkpt>
      <trkpt lat="45.977927036583424" lon="4.597193012014031">
        <ele>434.64999999999998</ele>
        <time>2025-04-24T10:38:18Z</time>
      </trkpt>
      <trkpt lat="45.9779869671911" lon="4.596943985670805">
        <ele>435.61000000000001</ele>
        <time>2025-04-24T10:38:19Z</time>
      </trkpt>
      <trkpt lat="45.978098027408123" lon="4.59674097597599">
        <ele>436.57999999999998</ele>
        <time>2025-04-24T10:38:20Z</time>
      </trkpt>
      <trkpt lat="45.978203974664211" lon="4.596547018736601">
        <ele>437.54000000000002</ele>
        <time>2025-04-24T10:38:21Z</time>
      </trkpt>
      <trkpt lat="45.978335989639163" lon="4.596411986276507">
        <ele>438.5</ele>
        <time>2025-04-24T10:38:22Z</time>
      </trkpt>
      <trkpt lat="45.978488037362695" lon="4.596293969079852">
        <ele>439.94</ele>
        <time>2025-04-24T10:38:23Z</time>
      </trkpt>
      <trkpt lat="45.978641007095575" lon="4.596182992681861">
        <ele>440.89999999999998</ele>
        <time>2025-04-24T10:38:24Z</time>
      </trkpt>
      <trkpt lat="45.978816021233797" lon="4.596119038760662">
        <ele>441.38</ele>
        <time>2025-04-24T10:38:25Z</time>
      </trkpt>
      <trkpt lat="45.978982988744974" lon="4.596057012677193">
        <ele>442.33999999999997</ele>
        <time>2025-04-24T10:38:26Z</time>
      </trkpt>
      <trkpt lat="45.979125984013081" lon="4.595961961895227">
        <ele>443.31</ele>
        <time>2025-04-24T10:38:27Z</time>
      </trkpt>
      <trkpt lat="45.979251964017749" lon="4.595850985497236">
        <ele>444.75</ele>
        <time>2025-04-24T10:38:28Z</time>
      </trkpt>
      <trkpt lat="45.97933704033494" lon="4.595697009935975">
        <ele>445.70999999999998</ele>
        <time>2025-04-24T10:38:29Z</time>
      </trkpt>
      <trkpt lat="45.979390013962984" lon="4.595507998019457">
        <ele>446.67000000000002</ele>
        <time>2025-04-24T10:38:30Z</time>
      </trkpt>
      <trkpt lat="45.979420021176338" lon="4.5953019708395">
        <ele>448.11000000000001</ele>
        <time>2025-04-24T10:38:31Z</time>
      </trkpt>
      <trkpt lat="45.979452962055802" lon="4.595081023871899">
        <ele>449.06999999999999</ele>
        <time>2025-04-24T10:38:32Z</time>
      </trkpt>
      <trkpt lat="45.979495039209723" lon="4.594857981428504">
        <ele>450.51999999999998</ele>
        <time>2025-04-24T10:38:33Z</time>
      </trkpt>
      <trkpt lat="45.979567961767316" lon="4.594660000875592">
        <ele>451.95999999999998</ele>
        <time>2025-04-24T10:38:34Z</time>
      </trkpt>
      <trkpt lat="45.979652032256126" lon="4.594477023929358">
        <ele>453.39999999999998</ele>
        <time>2025-04-24T10:38:35Z</time>
      </trkpt>
      <trkpt lat="45.979729983955622" lon="4.594306033104658">
        <ele>454.36000000000001</ele>
        <time>2025-04-24T10:38:36Z</time>
      </trkpt>
      <trkpt lat="45.979801984503865" lon="4.594147028401494">
        <ele>455.80000000000001</ele>
        <time>2025-04-24T10:38:37Z</time>
      </trkpt>
      <trkpt lat="45.979838026687503" lon="4.593965979292989">
        <ele>456.75999999999999</ele>
        <time>2025-04-24T10:38:38Z</time>
      </trkpt>
      <trkpt lat="45.979830985888839" lon="4.593767998740077">
        <ele>458.20999999999998</ele>
        <time>2025-04-24T10:38:39Z</time>
      </trkpt>
      <trkpt lat="45.979801984503865" lon="4.59356096573174">
        <ele>459.17000000000002</ele>
        <time>2025-04-24T10:38:40Z</time>
      </trkpt>
      <trkpt lat="45.979758985340595" lon="4.593346975743771">
        <ele>460.13</ele>
        <time>2025-04-24T10:38:41Z</time>
      </trkpt>
      <trkpt lat="45.979713974520564" lon="4.593127034604549">
        <ele>461.08999999999997</ele>
        <time>2025-04-24T10:38:42Z</time>
      </trkpt>
      <trkpt lat="45.979610960930586" lon="4.59254901856184">
        <ele>463.97000000000003</ele>
        <time>2025-04-24T10:38:45Z</time>
      </trkpt>
      <trkpt lat="45.979620013386011" lon="4.592379033565521">
        <ele>464.44999999999999</ele>
        <time>2025-04-24T10:38:46Z</time>
      </trkpt>
      <trkpt lat="45.979627976194024" lon="4.592212988063693">
        <ele>465.42000000000002</ele>
        <time>2025-04-24T10:38:47Z</time>
      </trkpt>
      <trkpt lat="45.979690002277493" lon="4.59205599501729">
        <ele>466.38</ele>
        <time>2025-04-24T10:38:48Z</time>
      </trkpt>
      <trkpt lat="45.979757979512215" lon="4.591899001970887">
        <ele>466.86000000000001</ele>
        <time>2025-04-24T10:38:49Z</time>
      </trkpt>
      <trkpt lat="45.979886977002025" lon="4.591790959239006">
        <ele>467.81999999999999</ele>
        <time>2025-04-24T10:38:50Z</time>
      </trkpt>
      <trkpt lat="45.980013962835073" lon="4.591686017811298">
        <ele>468.77999999999997</ele>
        <time>2025-04-24T10:38:51Z</time>
      </trkpt>
      <trkpt lat="45.980142038315535" lon="4.591578980907798">
        <ele>470.22000000000003</ele>
        <time>2025-04-24T10:38:52Z</time>
      </trkpt>
      <trkpt lat="45.980260977521539" lon="4.591449983417988">
        <ele>471.18000000000001</ele>
        <time>2025-04-24T10:38:53Z</time>
      </trkpt>
      <trkpt lat="45.980401961132884" lon="4.591298019513488">
        <ele>472.63</ele>
        <time>2025-04-24T10:38:54Z</time>
      </trkpt>
      <trkpt lat="45.980493994429708" lon="4.59113197401166">
        <ele>474.06999999999999</ele>
        <time>2025-04-24T10:38:55Z</time>
      </trkpt>
      <trkpt lat="45.980597008019686" lon="4.590945979580283">
        <ele>475.50999999999999</ele>
        <time>2025-04-24T10:38:56Z</time>
      </trkpt>
      <trkpt lat="45.980685018002987" lon="4.590746993198991">
        <ele>477.43000000000001</ele>
        <time>2025-04-24T10:38:57Z</time>
      </trkpt>
      <trkpt lat="45.980769004672766" lon="4.590548006817699">
        <ele>478.87</ele>
        <time>2025-04-24T10:38:58Z</time>
      </trkpt>
      <trkpt lat="45.98090797662735" lon="4.590183980762959">
        <ele>481.27999999999997</ele>
        <time>2025-04-24T10:39:00Z</time>
      </trkpt>
      <trkpt lat="45.980945024639368" lon="4.589997986331582">
        <ele>482.24000000000001</ele>
        <time>2025-04-24T10:39:01Z</time>
      </trkpt>
      <trkpt lat="45.980982994660735" lon="4.589808974415064">
        <ele>483.68000000000001</ele>
        <time>2025-04-24T10:39:02Z</time>
      </trkpt>
      <trkpt lat="45.981000009924173" lon="4.589619040489197">
        <ele>484.63999999999999</ele>
        <time>2025-04-24T10:39:03Z</time>
      </trkpt>
      <trkpt lat="45.98099498078227" lon="4.589416030794382">
        <ele>485.60000000000002</ele>
        <time>2025-04-24T10:39:04Z</time>
      </trkpt>
      <trkpt lat="45.980989029631019" lon="4.589212015271187">
        <ele>486.56</ele>
        <time>2025-04-24T10:39:05Z</time>
      </trkpt>
      <trkpt lat="45.981002021580935" lon="4.588814964517951">
        <ele>488.97000000000003</ele>
        <time>2025-04-24T10:39:07Z</time>
      </trkpt>
      <trkpt lat="45.981045020744205" lon="4.588653026148677">
        <ele>489.93000000000001</ele>
        <time>2025-04-24T10:39:08Z</time>
      </trkpt>
      <trkpt lat="45.981112997978926" lon="4.58853199146688">
        <ele>490.41000000000003</ele>
        <time>2025-04-24T10:39:09Z</time>
      </trkpt>
      <trkpt lat="45.981218023225665" lon="4.588437024503946">
        <ele>491.37</ele>
        <time>2025-04-24T10:39:10Z</time>
      </trkpt>
      <trkpt lat="45.981339979916811" lon="4.588327975943685">
        <ele>492.32999999999998</ele>
        <time>2025-04-24T10:39:11Z</time>
      </trkpt>
      <trkpt lat="45.98249601200223" lon="4.587293984368444">
        <ele>500.98000000000002</ele>
        <time>2025-04-24T10:39:19Z</time>
      </trkpt>
      <trkpt lat="45.983446016907692" lon="4.586451016366482">
        <ele>508.67000000000002</ele>
        <time>2025-04-24T10:39:27Z</time>
      </trkpt>
      <trkpt lat="45.983692025765777" lon="4.586206013336778">
        <ele>511.07999999999998</ele>
        <time>2025-04-24T10:39:30Z</time>
      </trkpt>
      <trkpt lat="45.983765032142401" lon="4.586132001131773">
        <ele>511.56</ele>
        <time>2025-04-24T10:39:31Z</time>
      </trkpt>
      <trkpt lat="45.983781041577458" lon="4.58603996783495">
        <ele>512.03999999999996</ele>
        <time>2025-04-24T10:39:32Z</time>
      </trkpt>
      <trkpt lat="45.983790010213852" lon="4.585945000872016">
        <ele>512.03999999999996</ele>
        <time>2025-04-24T10:39:33Z</time>
      </trkpt>
      <trkpt lat="45.983772994950414" lon="4.585840981453657">
        <ele>512.51999999999998</ele>
        <time>2025-04-24T10:39:34Z</time>
      </trkpt>
      <trkpt lat="45.983703006058931" lon="4.585800999775529">
        <ele>513</ele>
        <time>2025-04-24T10:39:35Z</time>
      </trkpt>
      <trkpt lat="45.983598986640573" lon="4.585762023925781">
        <ele>513.48000000000002</ele>
        <time>2025-04-24T10:39:36Z</time>
      </trkpt>
      <trkpt lat="45.983496978878975" lon="4.585776021704078">
        <ele>513.48000000000002</ele>
        <time>2025-04-24T10:39:37Z</time>
      </trkpt>
      <trkpt lat="45.983367981389165" lon="4.585794964805245">
        <ele>513.96000000000004</ele>
        <time>2025-04-24T10:39:38Z</time>
      </trkpt>
      <trkpt lat="45.982458963990211" lon="4.585813991725445">
        <ele>518.28999999999996</ele>
        <time>2025-04-24T10:39:44Z</time>
      </trkpt>
      <trkpt lat="45.980685018002987" lon="4.585504028946161">
        <ele>529.82000000000005</ele>
        <time>2025-04-24T10:39:54Z</time>
      </trkpt>
      <trkpt lat="45.979058006778359" lon="4.585493970662355">
        <ele>540.88</ele>
        <time>2025-04-24T10:40:03Z</time>
      </trkpt>
      <trkpt lat="45.978463981300592" lon="4.585483996197581">
        <ele>545.69000000000005</ele>
        <time>2025-04-24T10:40:07Z</time>
      </trkpt>
      <trkpt lat="45.978364991024137" lon="4.585440997034311">
        <ele>546.64999999999998</ele>
        <time>2025-04-24T10:40:08Z</time>
      </trkpt>
      <trkpt lat="45.978298019617796" lon="4.585322979837656">
        <ele>547.61000000000001</ele>
        <time>2025-04-24T10:40:09Z</time>
      </trkpt>
      <trkpt lat="45.978256026282907" lon="4.585247039794922">
        <ele>549.04999999999995</ele>
        <time>2025-04-24T10:40:10Z</time>
      </trkpt>
      <trkpt lat="45.978247979655862" lon="4.58505098707974">
        <ele>550.00999999999999</ele>
        <time>2025-04-24T10:40:11Z</time>
      </trkpt>
      <trkpt lat="45.978241022676229" lon="4.584886031225324">
        <ele>550.97000000000003</ele>
        <time>2025-04-24T10:40:12Z</time>
      </trkpt>
      <trkpt lat="45.978234987705946" lon="4.584720991551876">
        <ele>551.92999999999995</ele>
        <time>2025-04-24T10:40:13Z</time>
      </trkpt>
      <trkpt lat="45.978219984099269" lon="4.583328003063798">
        <ele>561.07000000000005</ele>
        <time>2025-04-24T10:40:23Z</time>
      </trkpt>
      <trkpt lat="45.978225013241172" lon="4.583236975595355">
        <ele>561.54999999999995</ele>
        <time>2025-04-24T10:40:24Z</time>
      </trkpt>
      <trkpt lat="45.978229036554694" lon="4.583150977268815">
        <ele>562.02999999999997</ele>
        <time>2025-04-24T10:40:25Z</time>
      </trkpt>
      <trkpt lat="45.978148989379406" lon="4.583015022799373">
        <ele>562.50999999999999</ele>
        <time>2025-04-24T10:40:26Z</time>
      </trkpt>
      <trkpt lat="45.977510958909988" lon="4.582284959033132">
        <ele>563.95000000000005</ele>
        <time>2025-04-24T10:40:33Z</time>
      </trkpt>
      <trkpt lat="45.977386990562081" lon="4.582204995676875">
        <ele>563.95000000000005</ele>
        <time>2025-04-24T10:40:34Z</time>
      </trkpt>
      <trkpt lat="45.977260004729033" lon="4.582123020663858">
        <ele>563.95000000000005</ele>
        <time>2025-04-24T10:40:35Z</time>
      </trkpt>
      <trkpt lat="45.975877996534109" lon="4.581685988232493">
        <ele>560.59000000000003</ele>
        <time>2025-04-24T10:40:44Z</time>
      </trkpt>
      <trkpt lat="45.975267039611936" lon="4.581530001014471">
        <ele>559.62</ele>
        <time>2025-04-24T10:40:48Z</time>
      </trkpt>
      <trkpt lat="45.974416024982929" lon="4.581038989126682">
        <ele>557.22000000000003</ele>
        <time>2025-04-24T10:40:54Z</time>
      </trkpt>
      <trkpt lat="45.974000031128526" lon="4.580607991665602">
        <ele>555.29999999999995</ele>
        <time>2025-04-24T10:40:58Z</time>
      </trkpt>
      <trkpt lat="45.973897017538548" lon="4.580545965582132">
        <ele>554.82000000000005</ele>
        <time>2025-04-24T10:40:59Z</time>
      </trkpt>
      <trkpt lat="45.973792998120189" lon="4.580483017489314">
        <ele>554.82000000000005</ele>
        <time>2025-04-24T10:41:00Z</time>
      </trkpt>
      <trkpt lat="45.97366701811552" lon="4.580501038581133">
        <ele>554.34000000000003</ele>
        <time>2025-04-24T10:41:01Z</time>
      </trkpt>
      <trkpt lat="45.973545983433723" lon="4.580517970025539">
        <ele>553.86000000000001</ele>
        <time>2025-04-24T10:41:02Z</time>
      </trkpt>
      <trkpt lat="45.973431989550591" lon="4.580575972795487">
        <ele>553.38</ele>
        <time>2025-04-24T10:41:03Z</time>
      </trkpt>
      <trkpt lat="45.973319001495838" lon="4.580670017749071">
        <ele>552.89999999999998</ele>
        <time>2025-04-24T10:41:04Z</time>
      </trkpt>
      <trkpt lat="45.973199978470802" lon="4.580768002197146">
        <ele>552.40999999999997</ele>
        <time>2025-04-24T10:41:05Z</time>
      </trkpt>
      <trkpt lat="45.973079027608037" lon="4.580867998301983">
        <ele>551.92999999999995</ele>
        <time>2025-04-24T10:41:06Z</time>
      </trkpt>
      <trkpt lat="45.972956987097859" lon="4.5809690002352">
        <ele>551.45000000000005</ele>
        <time>2025-04-24T10:41:07Z</time>
      </trkpt>
      <trkpt lat="45.972869982942939" lon="4.581041000783444">
        <ele>550.49000000000001</ele>
        <time>2025-04-24T10:41:08Z</time>
      </trkpt>
      <trkpt lat="45.972694968804717" lon="4.581041000783444">
        <ele>550.00999999999999</ele>
        <time>2025-04-24T10:41:09Z</time>
      </trkpt>
      <trkpt lat="45.972558008506894" lon="4.581041000783444">
        <ele>549.04999999999995</ele>
        <time>2025-04-24T10:41:10Z</time>
      </trkpt>
      <trkpt lat="45.972448037937284" lon="4.580994984135032">
        <ele>548.57000000000005</ele>
        <time>2025-04-24T10:41:11Z</time>
      </trkpt>
      <trkpt lat="45.972318034619093" lon="4.580916026607156">
        <ele>548.09000000000003</ele>
        <time>2025-04-24T10:41:12Z</time>
      </trkpt>
      <trkpt lat="45.972204962745309" lon="4.580789962783456">
        <ele>547.13</ele>
        <time>2025-04-24T10:41:13Z</time>
      </trkpt>
      <trkpt lat="45.972094992175698" lon="4.580662976950407">
        <ele>546.16999999999996</ele>
        <time>2025-04-24T10:41:14Z</time>
      </trkpt>
      <trkpt lat="45.971793998032808" lon="4.580317977815867">
        <ele>544.72000000000003</ele>
        <time>2025-04-24T10:41:17Z</time>
      </trkpt>
      <trkpt lat="45.971675980836153" lon="4.580219993367791">
        <ele>544.24000000000001</ele>
        <time>2025-04-24T10:41:18Z</time>
      </trkpt>
      <trkpt lat="45.971550000831485" lon="4.580159978941083">
        <ele>543.75999999999999</ele>
        <time>2025-04-24T10:41:19Z</time>
      </trkpt>
      <trkpt lat="45.971426032483578" lon="4.580100970342755">
        <ele>543.27999999999997</ele>
        <time>2025-04-24T10:41:20Z</time>
      </trkpt>
      <trkpt lat="45.97130298614502" lon="4.580041961744428">
        <ele>543.27999999999997</ele>
        <time>2025-04-24T10:41:21Z</time>
      </trkpt>
      <trkpt lat="45.971178011968732" lon="4.580016983672977">
        <ele>543.27999999999997</ele>
        <time>2025-04-24T10:41:22Z</time>
      </trkpt>
      <trkpt lat="45.971062006428838" lon="4.580028969794512">
        <ele>543.27999999999997</ele>
        <time>2025-04-24T10:41:23Z</time>
      </trkpt>
      <trkpt lat="45.97095999866724" lon="4.580102981999517">
        <ele>542.79999999999995</ele>
        <time>2025-04-24T10:41:24Z</time>
      </trkpt>
      <trkpt lat="45.970866959542036" lon="4.580203983932734">
        <ele>542.32000000000005</ele>
        <time>2025-04-24T10:41:25Z</time>
      </trkpt>
      <trkpt lat="45.970770986750722" lon="4.580314038321376">
        <ele>542.32000000000005</ele>
        <time>2025-04-24T10:41:26Z</time>
      </trkpt>
      <trkpt lat="45.970675013959408" lon="4.580443035811186">
        <ele>541.84000000000003</ele>
        <time>2025-04-24T10:41:27Z</time>
      </trkpt>
      <trkpt lat="45.97027201205492" lon="4.580986015498638">
        <ele>540.88</ele>
        <time>2025-04-24T10:41:31Z</time>
      </trkpt>
      <trkpt lat="45.970171010121703" lon="4.581086011603475">
        <ele>540.39999999999998</ele>
        <time>2025-04-24T10:41:32Z</time>
      </trkpt>
      <trkpt lat="45.970071014016867" lon="4.58116102963686">
        <ele>539.91999999999996</ele>
        <time>2025-04-24T10:41:33Z</time>
      </trkpt>
      <trkpt lat="45.969961965456605" lon="4.581197993829846">
        <ele>539.44000000000005</ele>
        <time>2025-04-24T10:41:34Z</time>
      </trkpt>
      <trkpt lat="45.969850989058614" lon="4.581189025193453">
        <ele>538.48000000000002</ele>
        <time>2025-04-24T10:41:35Z</time>
      </trkpt>
      <trkpt lat="45.969730960205197" lon="4.581136973574758">
        <ele>537.99000000000001</ele>
        <time>2025-04-24T10:41:36Z</time>
      </trkpt>
      <trkpt lat="45.969607997685671" lon="4.581083999946713">
        <ele>537.02999999999997</ele>
        <time>2025-04-24T10:41:37Z</time>
      </trkpt>
      <trkpt lat="45.969505989924073" lon="4.5809690002352">
        <ele>536.54999999999995</ele>
        <time>2025-04-24T10:41:38Z</time>
      </trkpt>
      <trkpt lat="45.969394007697701" lon="4.580843020230532">
        <ele>535.59000000000003</ele>
        <time>2025-04-24T10:41:39Z</time>
      </trkpt>
      <trkpt lat="45.968770980834961" lon="4.580256035551429">
        <ele>533.19000000000005</ele>
        <time>2025-04-24T10:41:44Z</time>
      </trkpt>
      <trkpt lat="45.968636032193899" lon="4.580215970054269">
        <ele>533.19000000000005</ele>
        <time>2025-04-24T10:41:45Z</time>
      </trkpt>
      <trkpt lat="45.968508962541819" lon="4.580179005861282">
        <ele>532.71000000000004</ele>
        <time>2025-04-24T10:41:46Z</time>
      </trkpt>
      <trkpt lat="45.968379965052009" lon="4.580186968669295">
        <ele>532.71000000000004</ele>
        <time>2025-04-24T10:41:47Z</time>
      </trkpt>
      <trkpt lat="45.968263037502766" lon="4.580228962004185">
        <ele>532.71000000000004</ele>
        <time>2025-04-24T10:41:48Z</time>
      </trkpt>
      <trkpt lat="45.968152983114123" lon="4.580316971987486">
        <ele>532.23000000000002</ele>
        <time>2025-04-24T10:41:49Z</time>
      </trkpt>
      <trkpt lat="45.968056004494429" lon="4.580429038032889">
        <ele>532.23000000000002</ele>
        <time>2025-04-24T10:41:50Z</time>
      </trkpt>
      <trkpt lat="45.967934969812632" lon="4.580569015815854">
        <ele>531.75</ele>
        <time>2025-04-24T10:41:51Z</time>
      </trkpt>
      <trkpt lat="45.967861041426659" lon="4.580706981942058">
        <ele>531.75</ele>
        <time>2025-04-24T10:41:52Z</time>
      </trkpt>
      <trkpt lat="45.967771019786596" lon="4.580876966938376">
        <ele>531.26999999999998</ele>
        <time>2025-04-24T10:41:53Z</time>
      </trkpt>
      <trkpt lat="45.967274978756905" lon="4.581904001533985">
        <ele>529.82000000000005</ele>
        <time>2025-04-24T10:41:59Z</time>
      </trkpt>
      <trkpt lat="45.967231979593635" lon="4.582084966823459">
        <ele>529.34000000000003</ele>
        <time>2025-04-24T10:42:00Z</time>
      </trkpt>
      <trkpt lat="45.967209013178945" lon="4.582269033417106">
        <ele>528.86000000000001</ele>
        <time>2025-04-24T10:42:01Z</time>
      </trkpt>
      <trkpt lat="45.967219993472099" lon="4.582444969564676">
        <ele>528.38</ele>
        <time>2025-04-24T10:42:02Z</time>
      </trkpt>
      <trkpt lat="45.967238014563918" lon="4.582604980096221">
        <ele>528.38</ele>
        <time>2025-04-24T10:42:03Z</time>
      </trkpt>
      <trkpt lat="45.967280007898808" lon="4.582759961485863">
        <ele>528.38</ele>
        <time>2025-04-24T10:42:04Z</time>
      </trkpt>
      <trkpt lat="45.967323007062078" lon="4.582917960360646">
        <ele>527.89999999999998</ele>
        <time>2025-04-24T10:42:05Z</time>
      </trkpt>
      <trkpt lat="45.967535991221666" lon="4.584045996889472">
        <ele>525.98000000000002</ele>
        <time>2025-04-24T10:42:11Z</time>
      </trkpt>
      <trkpt lat="45.967532973736525" lon="4.584240037947893">
        <ele>525.5</ele>
        <time>2025-04-24T10:42:12Z</time>
      </trkpt>
      <trkpt lat="45.967506989836693" lon="4.58442896604538">
        <ele>525.5</ele>
        <time>2025-04-24T10:42:13Z</time>
      </trkpt>
      <trkpt lat="45.96748000010848" lon="4.58462099544704">
        <ele>525.5</ele>
        <time>2025-04-24T10:42:14Z</time>
      </trkpt>
      <trkpt lat="45.967455022037029" lon="4.584803972393274">
        <ele>525.01999999999998</ele>
        <time>2025-04-24T10:42:15Z</time>
      </trkpt>
      <trkpt lat="45.96741596236825" lon="4.584974041208625">
        <ele>525.01999999999998</ele>
        <time>2025-04-24T10:42:16Z</time>
      </trkpt>
      <trkpt lat="45.967359971255064" lon="4.585132040083408">
        <ele>524.53999999999996</ele>
        <time>2025-04-24T10:42:17Z</time>
      </trkpt>
      <trkpt lat="45.96728403121233" lon="4.585262965410948">
        <ele>524.05999999999995</ele>
        <time>2025-04-24T10:42:18Z</time>
      </trkpt>
      <trkpt lat="45.967189986258745" lon="4.585362039506435">
        <ele>524.05999999999995</ele>
        <time>2025-04-24T10:42:19Z</time>
      </trkpt>
      <trkpt lat="45.967075992375612" lon="4.585419036448002">
        <ele>524.05999999999995</ele>
        <time>2025-04-24T10:42:20Z</time>
      </trkpt>
      <trkpt lat="45.966936014592648" lon="4.58541601896286">
        <ele>523.58000000000004</ele>
        <time>2025-04-24T10:42:21Z</time>
      </trkpt>
      <trkpt lat="45.966801987960935" lon="4.585381988435984">
        <ele>523.09000000000003</ele>
        <time>2025-04-24T10:42:22Z</time>
      </trkpt>
      <trkpt lat="45.966690005734563" lon="4.585353992879391">
        <ele>523.09000000000003</ele>
        <time>2025-04-24T10:42:23Z</time>
      </trkpt>
      <trkpt lat="45.966575006023049" lon="4.585233964025974">
        <ele>522.61000000000001</ele>
        <time>2025-04-24T10:42:24Z</time>
      </trkpt>
      <trkpt lat="45.966461012139916" lon="4.585116030648351">
        <ele>522.61000000000001</ele>
        <time>2025-04-24T10:42:25Z</time>
      </trkpt>
      <trkpt lat="45.966336959972978" lon="4.584987033158541">
        <ele>522.61000000000001</ele>
        <time>2025-04-24T10:42:26Z</time>
      </trkpt>
      <trkpt lat="45.966206034645438" lon="4.584849989041686">
        <ele>522.61000000000001</ele>
        <time>2025-04-24T10:42:27Z</time>
      </trkpt>
      <trkpt lat="45.966064967215061" lon="4.584729038178921">
        <ele>522.61000000000001</ele>
        <time>2025-04-24T10:42:28Z</time>
      </trkpt>
      <trkpt lat="45.965058971196413" lon="4.584067035466433">
        <ele>522.13</ele>
        <time>2025-04-24T10:42:36Z</time>
      </trkpt>
      <trkpt lat="45.964970961213112" lon="4.584080027416349">
        <ele>522.61000000000001</ele>
        <time>2025-04-24T10:42:37Z</time>
      </trkpt>
      <trkpt lat="45.964842969551682" lon="4.584099976345897">
        <ele>523.09000000000003</ele>
        <time>2025-04-24T10:42:44Z</time>
      </trkpt>
      <trkpt lat="45.964842969551682" lon="4.584099976345897">
        <ele>523.09000000000003</ele>
        <time>2025-04-24T10:43:01Z</time>
      </trkpt>
      <trkpt lat="45.964842969551682" lon="4.584099976345897">
        <ele>523.58000000000004</ele>
        <time>2025-04-24T10:43:39Z</time>
      </trkpt>
      <trkpt lat="45.964755965396762" lon="4.584055971354246">
        <ele>530.78999999999996</ele>
        <time>2025-04-24T11:03:10Z</time>
      </trkpt>
      <trkpt lat="45.964732998982072" lon="4.584024958312511">
        <ele>535.59000000000003</ele>
        <time>2025-04-24T11:03:45Z</time>
      </trkpt>
      <trkpt lat="45.964744985103607" lon="4.584022024646401">
        <ele>532.23000000000002</ele>
        <time>2025-04-24T11:04:28Z</time>
      </trkpt>
      <trkpt lat="45.964744985103607" lon="4.584034010767937">
        <ele>534.63</ele>
        <time>2025-04-24T11:05:14Z</time>
      </trkpt>
      <trkpt lat="45.964769041165709" lon="4.584122020751238">
        <ele>534.63</ele>
        <time>2025-04-24T11:05:33Z</time>
      </trkpt>
      <trkpt lat="45.964740039780736" lon="4.584153033792973">
        <ele>534.63</ele>
        <time>2025-04-24T11:05:34Z</time>
      </trkpt>
      <trkpt lat="45.964697040617466" lon="4.584199972450733">
        <ele>534.63</ele>
        <time>2025-04-24T11:05:35Z</time>
      </trkpt>
      <trkpt lat="45.96464297734201" lon="4.58425797522068">
        <ele>534.63</ele>
        <time>2025-04-24T11:05:36Z</time>
      </trkpt>
      <trkpt lat="45.964582962915301" lon="4.584323018789291">
        <ele>534.63</ele>
        <time>2025-04-24T11:05:37Z</time>
      </trkpt>
      <trkpt lat="45.963862035423517" lon="4.585104966536164">
        <ele>533.19000000000005</ele>
        <time>2025-04-24T11:05:46Z</time>
      </trkpt>
      <trkpt lat="45.963532961905003" lon="4.585384000092745">
        <ele>532.71000000000004</ele>
        <time>2025-04-24T11:05:49Z</time>
      </trkpt>
      <trkpt lat="45.963403964415193" lon="4.585404032841325">
        <ele>532.23000000000002</ele>
        <time>2025-04-24T11:05:50Z</time>
      </trkpt>
      <trkpt lat="45.963274966925383" lon="4.585411995649338">
        <ele>531.75</ele>
        <time>2025-04-24T11:05:51Z</time>
      </trkpt>
      <trkpt lat="45.963142029941082" lon="4.585405038669705">
        <ele>531.26999999999998</ele>
        <time>2025-04-24T11:05:52Z</time>
      </trkpt>
      <trkpt lat="45.963008003309369" lon="4.585339995101094">
        <ele>531.26999999999998</ele>
        <time>2025-04-24T11:05:53Z</time>
      </trkpt>
      <trkpt lat="45.962868025526404" lon="4.585272017866373">
        <ele>531.26999999999998</ele>
        <time>2025-04-24T11:05:54Z</time>
      </trkpt>
      <trkpt lat="45.962470974773169" lon="4.585078982636333">
        <ele>531.26999999999998</ele>
        <time>2025-04-24T11:05:57Z</time>
      </trkpt>
      <trkpt lat="45.962342983111739" lon="4.585086023434997">
        <ele>531.26999999999998</ele>
        <time>2025-04-24T11:05:58Z</time>
      </trkpt>
      <trkpt lat="45.962213985621929" lon="4.585104966536164">
        <ele>531.26999999999998</ele>
        <time>2025-04-24T11:05:59Z</time>
      </trkpt>
      <trkpt lat="45.962094040587544" lon="4.58518099039793">
        <ele>531.26999999999998</ele>
        <time>2025-04-24T11:06:00Z</time>
      </trkpt>
      <trkpt lat="45.961991026997566" lon="4.585247039794922">
        <ele>531.26999999999998</ele>
        <time>2025-04-24T11:06:01Z</time>
      </trkpt>
      <trkpt lat="45.961866974830627" lon="4.585403027012944">
        <ele>531.26999999999998</ele>
        <time>2025-04-24T11:06:02Z</time>
      </trkpt>
      <trkpt lat="45.961752980947495" lon="4.585547028109431">
        <ele>530.78999999999996</ele>
        <time>2025-04-24T11:06:03Z</time>
      </trkpt>
      <trkpt lat="45.96163596957922" lon="4.585693962872028">
        <ele>530.78999999999996</ele>
        <time>2025-04-24T11:06:04Z</time>
      </trkpt>
      <trkpt lat="45.96114001236856" lon="4.586208024993539">
        <ele>529.82000000000005</ele>
        <time>2025-04-24T11:06:08Z</time>
      </trkpt>
      <trkpt lat="45.961003974080086" lon="4.58629896864295">
        <ele>528.86000000000001</ele>
        <time>2025-04-24T11:06:09Z</time>
      </trkpt>
      <trkpt lat="45.960869025439024" lon="4.586311960592866">
        <ele>528.38</ele>
        <time>2025-04-24T11:06:10Z</time>
      </trkpt>
      <trkpt lat="45.96073298715055" lon="4.586303997784853">
        <ele>527.89999999999998</ele>
        <time>2025-04-24T11:06:11Z</time>
      </trkpt>
      <trkpt lat="45.960596026852727" lon="4.586265021935105">
        <ele>527.41999999999996</ele>
        <time>2025-04-24T11:06:12Z</time>
      </trkpt>
      <trkpt lat="45.960455965250731" lon="4.58621297031641">
        <ele>527.41999999999996</ele>
        <time>2025-04-24T11:06:13Z</time>
      </trkpt>
      <trkpt lat="45.960321016609669" lon="4.586124960333109">
        <ele>526.94000000000005</ele>
        <time>2025-04-24T11:06:14Z</time>
      </trkpt>
      <trkpt lat="45.960180032998323" lon="4.586033010855317">
        <ele>526.94000000000005</ele>
        <time>2025-04-24T11:06:15Z</time>
      </trkpt>
      <trkpt lat="45.960041983053088" lon="4.585942989215255">
        <ele>526.94000000000005</ele>
        <time>2025-04-24T11:06:16Z</time>
      </trkpt>
      <trkpt lat="45.959911979734898" lon="4.585870988667011">
        <ele>527.41999999999996</ele>
        <time>2025-04-24T11:06:17Z</time>
      </trkpt>
      <trkpt lat="45.95978700555861" lon="4.585822960361838">
        <ele>527.41999999999996</ele>
        <time>2025-04-24T11:06:18Z</time>
      </trkpt>
      <trkpt lat="45.959663959220052" lon="4.585810974240303">
        <ele>527.41999999999996</ele>
        <time>2025-04-24T11:06:19Z</time>
      </trkpt>
      <trkpt lat="45.959544014185667" lon="4.58584601059556">
        <ele>527.89999999999998</ele>
        <time>2025-04-24T11:06:20Z</time>
      </trkpt>
      <trkpt lat="45.959432031959295" lon="4.585918011143804">
        <ele>528.38</ele>
        <time>2025-04-24T11:06:21Z</time>
      </trkpt>
      <trkpt lat="45.959321977570653" lon="4.586027981713414">
        <ele>528.38</ele>
        <time>2025-04-24T11:06:22Z</time>
      </trkpt>
      <trkpt lat="45.959224998950958" lon="4.58616703748703">
        <ele>528.38</ele>
        <time>2025-04-24T11:06:23Z</time>
      </trkpt>
      <trkpt lat="45.959131959825754" lon="4.586325958371162">
        <ele>528.86000000000001</ele>
        <time>2025-04-24T11:06:24Z</time>
      </trkpt>
      <trkpt lat="45.959037998691201" lon="4.586489992216229">
        <ele>529.34000000000003</ele>
        <time>2025-04-24T11:06:25Z</time>
      </trkpt>
      <trkpt lat="45.958623010665178" lon="4.587185019627214">
        <ele>530.29999999999995</ele>
        <time>2025-04-24T11:06:29Z</time>
      </trkpt>
      <trkpt lat="45.958495019003749" lon="4.587336983531714">
        <ele>530.78999999999996</ele>
        <time>2025-04-24T11:06:30Z</time>
      </trkpt>
      <trkpt lat="45.958355041220784" lon="4.587462963536382">
        <ele>530.78999999999996</ele>
        <time>2025-04-24T11:06:31Z</time>
      </trkpt>
      <trkpt lat="45.957458009943366" lon="4.588063023984432">
        <ele>531.26999999999998</ele>
        <time>2025-04-24T11:06:37Z</time>
      </trkpt>
      <trkpt lat="45.957318032160401" lon="4.588175006210804">
        <ele>530.78999999999996</ele>
        <time>2025-04-24T11:06:38Z</time>
      </trkpt>
      <trkpt lat="45.95703799277544" lon="4.588401988148689">
        <ele>530.29999999999995</ele>
        <time>2025-04-24T11:06:40Z</time>
      </trkpt>
      <trkpt lat="45.95688502304256" lon="4.588462002575398">
        <ele>529.82000000000005</ele>
        <time>2025-04-24T11:06:41Z</time>
      </trkpt>
      <trkpt lat="45.956570031121373" lon="4.588559987023473">
        <ele>529.34000000000003</ele>
        <time>2025-04-24T11:06:43Z</time>
      </trkpt>
      <trkpt lat="45.955367982387543" lon="4.588555041700602">
        <ele>526.46000000000004</ele>
        <time>2025-04-24T11:06:51Z</time>
      </trkpt>
      <trkpt lat="45.955267986282706" lon="4.588440963998437">
        <ele>526.46000000000004</ele>
        <time>2025-04-24T11:06:52Z</time>
      </trkpt>
      <trkpt lat="45.955160027369857" lon="4.588310960680246">
        <ele>525.98000000000002</ele>
        <time>2025-04-24T11:06:53Z</time>
      </trkpt>
      <trkpt lat="45.955078974366188" lon="4.588120020925999">
        <ele>525.98000000000002</ele>
        <time>2025-04-24T11:06:54Z</time>
      </trkpt>
      <trkpt lat="45.955003034323454" lon="4.587923968210816">
        <ele>525.98000000000002</ele>
        <time>2025-04-24T11:06:55Z</time>
      </trkpt>
      <trkpt lat="45.95493103377521" lon="4.587735962122679">
        <ele>525.5</ele>
        <time>2025-04-24T11:06:56Z</time>
      </trkpt>
      <trkpt lat="45.954923992976546" lon="4.587568994611502">
        <ele>525.5</ele>
        <time>2025-04-24T11:06:57Z</time>
      </trkpt>
      <trkpt lat="45.954916030168533" lon="4.587375959381461">
        <ele>525.5</ele>
        <time>2025-04-24T11:06:58Z</time>
      </trkpt>
      <trkpt lat="45.954906977713108" lon="4.587184013798833">
        <ele>525.01999999999998</ele>
        <time>2025-04-24T11:06:59Z</time>
      </trkpt>
      <trkpt lat="45.954899014905095" lon="4.586992990225554">
        <ele>525.01999999999998</ele>
        <time>2025-04-24T11:07:00Z</time>
      </trkpt>
      <trkpt lat="45.95488996244967" lon="4.586796015501022">
        <ele>525.01999999999998</ele>
        <time>2025-04-24T11:07:01Z</time>
      </trkpt>
      <trkpt lat="45.954720983281732" lon="4.586005015298724">
        <ele>525.01999999999998</ele>
        <time>2025-04-24T11:07:05Z</time>
      </trkpt>
      <trkpt lat="45.9545240085572" lon="4.585431022569537">
        <ele>525.01999999999998</ele>
        <time>2025-04-24T11:07:08Z</time>
      </trkpt>
      <trkpt lat="45.954435998573899" lon="4.585248967632651">
        <ele>525.01999999999998</ele>
        <time>2025-04-24T11:07:09Z</time>
      </trkpt>
      <trkpt lat="45.954341031610966" lon="4.585079988464713">
        <ele>525.5</ele>
        <time>2025-04-24T11:07:10Z</time>
      </trkpt>
      <trkpt lat="45.953105036169291" lon="4.58378498442471">
        <ele>527.41999999999996</ele>
        <time>2025-04-24T11:07:20Z</time>
      </trkpt>
      <trkpt lat="45.952964974567294" lon="4.583689011633396">
        <ele>527.89999999999998</ele>
        <time>2025-04-24T11:07:21Z</time>
      </trkpt>
      <trkpt lat="45.951571986079216" lon="4.583233958110213">
        <ele>529.82000000000005</ele>
        <time>2025-04-24T11:07:30Z</time>
      </trkpt>
      <trkpt lat="45.950198024511337" lon="4.583029020577669">
        <ele>531.26999999999998</ele>
        <time>2025-04-24T11:07:40Z</time>
      </trkpt>
      <trkpt lat="45.949931982904673" lon="4.582993984222412">
        <ele>531.26999999999998</ele>
        <time>2025-04-24T11:07:44Z</time>
      </trkpt>
      <trkpt lat="45.949889989569783" lon="4.582999013364315">
        <ele>531.75</ele>
        <time>2025-04-24T11:07:45Z</time>
      </trkpt>
      <trkpt lat="45.949842967092991" lon="4.583004964515567">
        <ele>531.75</ele>
        <time>2025-04-24T11:07:46Z</time>
      </trkpt>
      <trkpt lat="45.949679017066956" lon="4.583032038062811">
        <ele>531.75</ele>
        <time>2025-04-24T11:07:49Z</time>
      </trkpt>
      <trkpt lat="45.949617996811867" lon="4.583044024184346">
        <ele>532.23000000000002</ele>
        <time>2025-04-24T11:07:50Z</time>
      </trkpt>
      <trkpt lat="45.94955999404192" lon="4.583055004477501">
        <ele>532.23000000000002</ele>
        <time>2025-04-24T11:07:51Z</time>
      </trkpt>
      <trkpt lat="45.94932203181088" lon="4.583146031945944">
        <ele>531.75</ele>
        <time>2025-04-24T11:07:55Z</time>
      </trkpt>
      <trkpt lat="45.949099995195866" lon="4.583273017778993">
        <ele>531.75</ele>
        <time>2025-04-24T11:07:59Z</time>
      </trkpt>
      <trkpt lat="45.949063031002879" lon="4.583293972536922">
        <ele>531.75</ele>
        <time>2025-04-24T11:08:00Z</time>
      </trkpt>
      <trkpt lat="45.949033023789525" lon="4.58331098780036">
        <ele>531.75</ele>
        <time>2025-04-24T11:08:01Z</time>
      </trkpt>
      <trkpt lat="45.948972003534436" lon="4.583253990858793">
        <ele>531.26999999999998</ele>
        <time>2025-04-24T11:08:02Z</time>
      </trkpt>
      <trkpt lat="45.948960017412901" lon="4.583190958946943">
        <ele>530.78999999999996</ele>
        <time>2025-04-24T11:08:03Z</time>
      </trkpt>
      <trkpt lat="45.948946019634604" lon="4.583114013075829">
        <ele>530.78999999999996</ele>
        <time>2025-04-24T11:08:04Z</time>
      </trkpt>
      <trkpt lat="45.948922969400883" lon="4.582993984222412">
        <ele>530.29999999999995</ele>
        <time>2025-04-24T11:08:05Z</time>
      </trkpt>
      <trkpt lat="45.948781985789537" lon="4.582170965149999">
        <ele>526.94000000000005</ele>
        <time>2025-04-24T11:08:14Z</time>
      </trkpt>
      <trkpt lat="45.948759019374847" lon="4.582059988752008">
        <ele>526.94000000000005</ele>
        <time>2025-04-24T11:08:15Z</time>
      </trkpt>
      <trkpt lat="45.948717026039958" lon="4.581876005977392">
        <ele>526.94000000000005</ele>
        <time>2025-04-24T11:08:17Z</time>
      </trkpt>
      <trkpt lat="45.948663968592882" lon="4.581779027357698">
        <ele>526.94000000000005</ele>
        <time>2025-04-24T11:08:18Z</time>
      </trkpt>
      <trkpt lat="45.948609989136457" lon="4.581681964918971">
        <ele>526.46000000000004</ele>
        <time>2025-04-24T11:08:19Z</time>
      </trkpt>
      <trkpt lat="45.948555003851652" lon="4.581580962985754">
        <ele>526.46000000000004</ele>
        <time>2025-04-24T11:08:20Z</time>
      </trkpt>
      <trkpt lat="45.948493983596563" lon="4.581470992416143">
        <ele>525.98000000000002</ele>
        <time>2025-04-24T11:08:21Z</time>
      </trkpt>
      <trkpt lat="45.948426006361842" lon="4.581411983817816">
        <ele>525.01999999999998</ele>
        <time>2025-04-24T11:08:22Z</time>
      </trkpt>
      <trkpt lat="45.948263984173536" lon="4.581274017691612">
        <ele>522.61000000000001</ele>
        <time>2025-04-24T11:08:24Z</time>
      </trkpt>
      <trkpt lat="45.948188966140151" lon="4.581210985779762">
        <ele>521.64999999999998</ele>
        <time>2025-04-24T11:08:25Z</time>
      </trkpt>
      <trkpt lat="45.948097016662359" lon="4.581177039071918">
        <ele>520.21000000000004</ele>
        <time>2025-04-24T11:08:26Z</time>
      </trkpt>
      <trkpt lat="45.947850001975894" lon="4.581083999946713">
        <ele>516.85000000000002</ele>
        <time>2025-04-24T11:08:29Z</time>
      </trkpt>
      <trkpt lat="45.947091020643711" lon="4.581039994955063">
        <ele>509.16000000000003</ele>
        <time>2025-04-24T11:08:39Z</time>
      </trkpt>
      <trkpt lat="45.946176974102855" lon="4.581369990482926">
        <ele>504.82999999999998</ele>
        <time>2025-04-24T11:08:48Z</time>
      </trkpt>
      <trkpt lat="45.94526301138103" lon="4.581617005169392">
        <ele>501.45999999999998</ele>
        <time>2025-04-24T11:08:56Z</time>
      </trkpt>
      <trkpt lat="45.945135019719601" lon="4.581600995734334">
        <ele>500.98000000000002</ele>
        <time>2025-04-24T11:08:57Z</time>
      </trkpt>
      <trkpt lat="45.943870022892952" lon="4.581220960244536">
        <ele>493.76999999999998</ele>
        <time>2025-04-24T11:09:06Z</time>
      </trkpt>
      <trkpt lat="45.942160030826926" lon="4.580557029694319">
        <ele>483.19999999999999</ele>
        <time>2025-04-24T11:09:17Z</time>
      </trkpt>
      <trkpt lat="45.940977009013295" lon="4.579695034772158">
        <ele>472.63</ele>
        <time>2025-04-24T11:09:24Z</time>
      </trkpt>
      <trkpt lat="45.94010503962636" lon="4.579093968495727">
        <ele>465.42000000000002</ele>
        <time>2025-04-24T11:09:29Z</time>
      </trkpt>
      <trkpt lat="45.939188981428742" lon="4.578789034858346">
        <ele>460.13</ele>
        <time>2025-04-24T11:09:34Z</time>
      </trkpt>
      <trkpt lat="45.939006004482508" lon="4.578803032636643">
        <ele>459.64999999999998</ele>
        <time>2025-04-24T11:09:35Z</time>
      </trkpt>
      <trkpt lat="45.936866020783782" lon="4.579072007909417">
        <ele>448.11000000000001</ele>
        <time>2025-04-24T11:09:47Z</time>
      </trkpt>
      <trkpt lat="45.934772975742817" lon="4.579757982864976">
        <ele>437.54000000000002</ele>
        <time>2025-04-24T11:09:59Z</time>
      </trkpt>
      <trkpt lat="45.933181000873446" lon="4.58038997836411">
        <ele>432.25</ele>
        <time>2025-04-24T11:10:08Z</time>
      </trkpt>
      <trkpt lat="45.932379020377994" lon="4.580664988607168">
        <ele>427.44</ele>
        <time>2025-04-24T11:10:15Z</time>
      </trkpt>
      <trkpt lat="45.93228698708117" lon="4.580687033012509">
        <ele>426.95999999999998</ele>
        <time>2025-04-24T11:10:16Z</time>
      </trkpt>
      <trkpt lat="45.932191014289856" lon="4.580709999427199">
        <ele>426</ele>
        <time>2025-04-24T11:10:17Z</time>
      </trkpt>
      <trkpt lat="45.932095963507891" lon="4.580731960013509">
        <ele>425.51999999999998</ele>
        <time>2025-04-24T11:10:18Z</time>
      </trkpt>
      <trkpt lat="45.932004014030099" lon="4.58075400441885">
        <ele>425.04000000000002</ele>
        <time>2025-04-24T11:10:19Z</time>
      </trkpt>
      <trkpt lat="45.931914998218417" lon="4.580748975276947">
        <ele>425.04000000000002</ele>
        <time>2025-04-24T11:10:20Z</time>
      </trkpt>
      <trkpt lat="45.931825982406735" lon="4.580728020519018">
        <ele>424.56</ele>
        <time>2025-04-24T11:10:21Z</time>
      </trkpt>
      <trkpt lat="45.931573016569018" lon="4.580667000263929">
        <ele>423.60000000000002</ele>
        <time>2025-04-24T11:10:24Z</time>
      </trkpt>
      <trkpt lat="45.931499004364014" lon="4.580648979172111">
        <ele>423.60000000000002</ele>
        <time>2025-04-24T11:10:25Z</time>
      </trkpt>
      <trkpt lat="45.930829038843513" lon="4.580429960042238">
        <ele>419.75</ele>
        <time>2025-04-24T11:10:32Z</time>
      </trkpt>
      <trkpt lat="45.930702975019813" lon="4.580419985577464">
        <ele>418.31</ele>
        <time>2025-04-24T11:10:33Z</time>
      </trkpt>
      <trkpt lat="45.930573977530003" lon="4.580435995012522">
        <ele>417.35000000000002</ele>
        <time>2025-04-24T11:10:34Z</time>
      </trkpt>
      <trkpt lat="45.929077975451946" lon="4.580895993858576">
        <ele>407.74000000000001</ele>
        <time>2025-04-24T11:10:44Z</time>
      </trkpt>
      <trkpt lat="45.927173020318151" lon="4.581593032926321">
        <ele>396.19999999999999</ele>
        <time>2025-04-24T11:10:56Z</time>
      </trkpt>
      <trkpt lat="45.926267020404339" lon="4.581891009584069">
        <ele>388.99000000000001</ele>
        <time>2025-04-24T11:11:04Z</time>
      </trkpt>
      <trkpt lat="45.926042972132564" lon="4.581954041495919">
        <ele>386.11000000000001</ele>
        <time>2025-04-24T11:11:07Z</time>
      </trkpt>
      <trkpt lat="45.925898971036077" lon="4.581985976547003">
        <ele>384.18000000000001</ele>
        <time>2025-04-24T11:11:09Z</time>
      </trkpt>
      <trkpt lat="45.925839962437749" lon="4.582014977931976">
        <ele>383.22000000000003</ele>
        <time>2025-04-24T11:11:10Z</time>
      </trkpt>
      <trkpt lat="45.925763016566634" lon="4.582054037600756">
        <ele>382.25999999999999</ele>
        <time>2025-04-24T11:11:11Z</time>
      </trkpt>
      <trkpt lat="45.925676012411714" lon="4.582097036764026">
        <ele>381.30000000000001</ele>
        <time>2025-04-24T11:11:12Z</time>
      </trkpt>
      <trkpt lat="45.92558397911489" lon="4.582142969593406">
        <ele>380.33999999999997</ele>
        <time>2025-04-24T11:11:13Z</time>
      </trkpt>
      <trkpt lat="45.925062960013747" lon="4.582403982058168">
        <ele>377.44999999999999</ele>
        <time>2025-04-24T11:11:19Z</time>
      </trkpt>
      <trkpt lat="45.924935974180698" lon="4.58247397094965">
        <ele>376.97000000000003</ele>
        <time>2025-04-24T11:11:21Z</time>
      </trkpt>
      <trkpt lat="45.92438000254333" lon="4.582895999774337">
        <ele>377.94</ele>
        <time>2025-04-24T11:11:31Z</time>
      </trkpt>
      <trkpt lat="45.924325017258525" lon="4.582943022251129">
        <ele>377.94</ele>
        <time>2025-04-24T11:11:32Z</time>
      </trkpt>
      <trkpt lat="45.9242710378021" lon="4.582989038899541">
        <ele>377.94</ele>
        <time>2025-04-24T11:11:33Z</time>
      </trkpt>
      <trkpt lat="45.923697967082262" lon="4.5835040230304">
        <ele>376.97000000000003</ele>
        <time>2025-04-24T11:11:42Z</time>
      </trkpt>
      <trkpt lat="45.923518007621169" lon="4.583673002198339">
        <ele>376.49000000000001</ele>
        <time>2025-04-24T11:11:45Z</time>
      </trkpt>
      <trkpt lat="45.923223970457911" lon="4.583961004391313">
        <ele>376.97000000000003</ele>
        <time>2025-04-24T11:11:50Z</time>
      </trkpt>
      <trkpt lat="45.922850975766778" lon="4.584444975480437">
        <ele>376.97000000000003</ele>
        <time>2025-04-24T11:11:57Z</time>
      </trkpt>
      <trkpt lat="45.922790039330721" lon="4.584520999342203">
        <ele>376.97000000000003</ele>
        <time>2025-04-24T11:11:58Z</time>
      </trkpt>
      <trkpt lat="45.922731030732393" lon="4.584588976576924">
        <ele>377.44999999999999</ele>
        <time>2025-04-24T11:11:59Z</time>
      </trkpt>
      <trkpt lat="45.922157038003206" lon="4.585160035640001">
        <ele>377.44999999999999</ele>
        <time>2025-04-24T11:12:10Z</time>
      </trkpt>
      <trkpt lat="45.922005996108055" lon="4.585302025079727">
        <ele>376.97000000000003</ele>
        <time>2025-04-24T11:12:13Z</time>
      </trkpt>
      <trkpt lat="45.921956961974502" lon="4.585348041728139">
        <ele>376.97000000000003</ele>
        <time>2025-04-24T11:12:14Z</time>
      </trkpt>
      <trkpt lat="45.921843973919749" lon="4.585376037284732">
        <ele>376.49000000000001</ele>
        <time>2025-04-24T11:12:16Z</time>
      </trkpt>
      <trkpt lat="45.921833999454975" lon="4.585359022021294">
        <ele>376.00999999999999</ele>
        <time>2025-04-24T11:12:17Z</time>
      </trkpt>
      <trkpt lat="45.921799968928099" lon="4.585304036736488">
        <ele>376.00999999999999</ele>
        <time>2025-04-24T11:12:18Z</time>
      </trkpt>
      <trkpt lat="45.921767028048635" lon="4.585236981511116">
        <ele>376.00999999999999</ele>
        <time>2025-04-24T11:12:19Z</time>
      </trkpt>
      <trkpt lat="45.921731991693377" lon="4.585147965699434">
        <ele>376.00999999999999</ele>
        <time>2025-04-24T11:12:20Z</time>
      </trkpt>
      <trkpt lat="45.921658985316753" lon="4.584958031773567">
        <ele>375.52999999999997</ele>
        <time>2025-04-24T11:12:22Z</time>
      </trkpt>
      <trkpt lat="45.921628978103399" lon="4.584882007911801">
        <ele>375.05000000000001</ele>
        <time>2025-04-24T11:12:23Z</time>
      </trkpt>
      <trkpt lat="45.921581033617258" lon="4.584804978221655">
        <ele>374.56999999999999</ele>
        <time>2025-04-24T11:12:24Z</time>
      </trkpt>
      <trkpt lat="45.921539962291718" lon="4.584740018472076">
        <ele>374.08999999999997</ele>
        <time>2025-04-24T11:12:25Z</time>
      </trkpt>
      <trkpt lat="45.921497968956828" lon="4.584674974903464">
        <ele>374.08999999999997</ele>
        <time>2025-04-24T11:12:26Z</time>
      </trkpt>
      <trkpt lat="45.921454969793558" lon="4.584610015153885">
        <ele>373.61000000000001</ele>
        <time>2025-04-24T11:12:27Z</time>
      </trkpt>
      <trkpt lat="45.921351034194231" lon="4.584455033764243">
        <ele>372.64999999999998</ele>
        <time>2025-04-24T11:12:29Z</time>
      </trkpt>
      <trkpt lat="45.921299988403916" lon="4.584378004074097">
        <ele>372.17000000000002</ele>
        <time>2025-04-24T11:12:30Z</time>
      </trkpt>
      <trkpt lat="45.921250032261014" lon="4.584303991869092">
        <ele>371.69</ele>
        <time>2025-04-24T11:12:31Z</time>
      </trkpt>
      <trkpt lat="45.921194963157177" lon="4.584244983270764">
        <ele>371.20999999999998</ele>
        <time>2025-04-24T11:12:32Z</time>
      </trkpt>
      <trkpt lat="45.921132015064359" lon="4.584208019077778">
        <ele>371.20999999999998</ele>
        <time>2025-04-24T11:12:33Z</time>
      </trkpt>
      <trkpt lat="45.921067977324128" lon="4.58417097106576">
        <ele>370.73000000000002</ele>
        <time>2025-04-24T11:12:34Z</time>
      </trkpt>
      <trkpt lat="45.921002011746168" lon="4.584131995216012">
        <ele>370.24000000000001</ele>
        <time>2025-04-24T11:12:35Z</time>
      </trkpt>
      <trkpt lat="45.920931017026305" lon="4.584101988002658">
        <ele>369.27999999999997</ele>
        <time>2025-04-24T11:12:36Z</time>
      </trkpt>
      <trkpt lat="45.920866979286075" lon="4.584087990224361">
        <ele>368.80000000000001</ele>
        <time>2025-04-24T11:12:37Z</time>
      </trkpt>
      <trkpt lat="45.920801013708115" lon="4.584071980789304">
        <ele>367.83999999999997</ele>
        <time>2025-04-24T11:12:38Z</time>
      </trkpt>
      <trkpt lat="45.920736975967884" lon="4.584056977182627">
        <ele>366.39999999999998</ele>
        <time>2025-04-24T11:12:39Z</time>
      </trkpt>
      <trkpt lat="45.920666987076402" lon="4.584048008546233">
        <ele>364.95999999999998</ele>
        <time>2025-04-24T11:12:40Z</time>
      </trkpt>
      <trkpt lat="45.9205980040133" lon="4.584056977182627">
        <ele>363.51999999999998</ele>
        <time>2025-04-24T11:12:41Z</time>
      </trkpt>
      <trkpt lat="45.920483004301786" lon="4.584072986617684">
        <ele>360.63</ele>
        <time>2025-04-24T11:12:43Z</time>
      </trkpt>
      <trkpt lat="45.920129036530852" lon="4.584055971354246">
        <ele>353.89999999999998</ele>
        <time>2025-04-24T11:12:49Z</time>
      </trkpt>
      <trkpt lat="45.920072039589286" lon="4.58402001298964">
        <ele>352.94</ele>
        <time>2025-04-24T11:12:50Z</time>
      </trkpt>
      <trkpt lat="45.920016970485449" lon="4.583984976634383">
        <ele>352.45999999999998</ele>
        <time>2025-04-24T11:12:51Z</time>
      </trkpt>
      <trkpt lat="45.919918986037374" lon="4.583878023549914">
        <ele>351.01999999999998</ele>
        <time>2025-04-24T11:12:53Z</time>
      </trkpt>
      <trkpt lat="45.919696027413011" lon="4.583545010536909">
        <ele>349.10000000000002</ele>
        <time>2025-04-24T11:12:57Z</time>
      </trkpt>
      <trkpt lat="45.919643975794315" lon="4.583455994725227">
        <ele>348.62</ele>
        <time>2025-04-24T11:12:58Z</time>
      </trkpt>
      <trkpt lat="45.919430991634727" lon="4.583056010305882">
        <ele>345.25</ele>
        <time>2025-04-24T11:13:03Z</time>
      </trkpt>
      <trkpt lat="45.918946014717221" lon="4.582060994580388">
        <ele>335.16000000000003</ele>
        <time>2025-04-24T11:13:16Z</time>
      </trkpt>
      <trkpt lat="45.91853303834796" lon="4.581168992444873">
        <ele>329.87</ele>
        <time>2025-04-24T11:13:27Z</time>
      </trkpt>
      <trkpt lat="45.918078990653157" lon="4.580212030559778">
        <ele>327.47000000000003</ele>
        <time>2025-04-24T11:13:38Z</time>
      </trkpt>
      <trkpt lat="45.917752012610435" lon="4.579569976776838">
        <ele>326.01999999999998</ele>
        <time>2025-04-24T11:13:44Z</time>
      </trkpt>
      <trkpt lat="45.917686969041824" lon="4.579460006207228">
        <ele>325.54000000000002</ele>
        <time>2025-04-24T11:13:45Z</time>
      </trkpt>
      <trkpt lat="45.917544979602098" lon="4.579220032319427">
        <ele>325.06</ele>
        <time>2025-04-24T11:13:47Z</time>
      </trkpt>
      <trkpt lat="45.917456969618797" lon="4.579112995415926">
        <ele>324.10000000000002</ele>
        <time>2025-04-24T11:13:48Z</time>
      </trkpt>
      <trkpt lat="45.917360996827483" lon="4.579005958512425">
        <ele>323.62</ele>
        <time>2025-04-24T11:13:49Z</time>
      </trkpt>
      <trkpt lat="45.916974004358053" lon="4.578570015728474">
        <ele>321.69999999999999</ele>
        <time>2025-04-24T11:13:53Z</time>
      </trkpt>
      <trkpt lat="45.916049983352423" lon="4.577179038897157">
        <ele>316.88999999999999</ele>
        <time>2025-04-24T11:14:02Z</time>
      </trkpt>
      <trkpt lat="45.914964023977518" lon="4.57611202262342">
        <ele>309.19999999999999</ele>
        <time>2025-04-24T11:14:10Z</time>
      </trkpt>
      <trkpt lat="45.91393799521029" lon="4.574847025796771">
        <ele>301.99000000000001</ele>
        <time>2025-04-24T11:14:18Z</time>
      </trkpt>
      <trkpt lat="45.913423011079431" lon="4.573854021728039">
        <ele>295.74000000000001</ele>
        <time>2025-04-24T11:14:23Z</time>
      </trkpt>
      <trkpt lat="45.913288984447718" lon="4.573731981217861">
        <ele>294.30000000000001</ele>
        <time>2025-04-24T11:14:24Z</time>
      </trkpt>
      <trkpt lat="45.913174990564585" lon="4.573638020083308">
        <ele>292.86000000000001</ele>
        <time>2025-04-24T11:14:25Z</time>
      </trkpt>
      <trkpt lat="45.912997964769602" lon="4.573575993999839">
        <ele>291.42000000000002</ele>
        <time>2025-04-24T11:14:26Z</time>
      </trkpt>
      <trkpt lat="45.91284298337996" lon="4.573537018150091">
        <ele>289.97000000000003</ele>
        <time>2025-04-24T11:14:27Z</time>
      </trkpt>
      <trkpt lat="45.912679033353925" lon="4.573566019535065">
        <ele>288.52999999999997</ele>
        <time>2025-04-24T11:14:28Z</time>
      </trkpt>
      <trkpt lat="45.912509970366955" lon="4.573597032576799">
        <ele>287.08999999999997</ele>
        <time>2025-04-24T11:14:29Z</time>
      </trkpt>
      <trkpt lat="45.911495005711913" lon="4.573780009523034">
        <ele>280.83999999999997</ele>
        <time>2025-04-24T11:14:35Z</time>
      </trkpt>
      <trkpt lat="45.910551035776734" lon="4.574105981737375">
        <ele>276.51999999999998</ele>
        <time>2025-04-24T11:14:41Z</time>
      </trkpt>
      <trkpt lat="45.910387001931667" lon="4.574132971465588">
        <ele>275.56</ele>
        <time>2025-04-24T11:14:42Z</time>
      </trkpt>
      <trkpt lat="45.909585021436214" lon="4.574106987565756">
        <ele>271.23000000000002</ele>
        <time>2025-04-24T11:14:48Z</time>
      </trkpt>
      <trkpt lat="45.909251002594829" lon="4.573980001732707">
        <ele>268.35000000000002</ele>
        <time>2025-04-24T11:14:51Z</time>
      </trkpt>
      <trkpt lat="45.909070959314704" lon="4.573885034769774">
        <ele>266.89999999999998</ele>
        <time>2025-04-24T11:14:53Z</time>
      </trkpt>
      <trkpt lat="45.908982027322054" lon="4.573838012292981">
        <ele>265.94</ele>
        <time>2025-04-24T11:14:54Z</time>
      </trkpt>
      <trkpt lat="45.908526973798871" lon="4.573527965694666">
        <ele>260.64999999999998</ele>
        <time>2025-04-24T11:15:00Z</time>
      </trkpt>
      <trkpt lat="45.90848003514111" lon="4.573460994288325">
        <ele>260.17000000000002</ele>
        <time>2025-04-24T11:15:01Z</time>
      </trkpt>
      <trkpt lat="45.908453967422247" lon="4.573424030095339">
        <ele>259.20999999999998</ele>
        <time>2025-04-24T11:15:02Z</time>
      </trkpt>
      <trkpt lat="45.90846000239253" lon="4.573326967656612">
        <ele>258.73000000000002</ele>
        <time>2025-04-24T11:15:03Z</time>
      </trkpt>
      <trkpt lat="45.908462014049292" lon="4.573290003463626">
        <ele>257.76999999999998</ele>
        <time>2025-04-24T11:15:04Z</time>
      </trkpt>
      <trkpt lat="45.908462014049292" lon="4.573290003463626">
        <ele>257.29000000000002</ele>
        <time>2025-04-24T11:15:05Z</time>
      </trkpt>
      <trkpt lat="45.908464025706053" lon="4.573263013735414">
        <ele>256.32999999999998</ele>
        <time>2025-04-24T11:15:18Z</time>
      </trkpt>
      <trkpt lat="45.908408034592867" lon="4.573085987940431">
        <ele>255.84999999999999</ele>
        <time>2025-04-24T11:15:19Z</time>
      </trkpt>
      <trkpt lat="45.90835296548903" lon="4.573091017082334">
        <ele>255.37</ele>
        <time>2025-04-24T11:15:20Z</time>
      </trkpt>
      <trkpt lat="45.908268978819251" lon="4.573097974061966">
        <ele>254.88999999999999</ele>
        <time>2025-04-24T11:15:21Z</time>
      </trkpt>
      <trkpt lat="45.908165965229273" lon="4.573107026517391">
        <ele>254.41</ele>
        <time>2025-04-24T11:15:22Z</time>
      </trkpt>
      <trkpt lat="45.908050965517759" lon="4.573117000982165">
        <ele>253.93000000000001</ele>
        <time>2025-04-24T11:15:23Z</time>
      </trkpt>
      <trkpt lat="45.907920962199569" lon="4.573146002367139">
        <ele>253.44</ele>
        <time>2025-04-24T11:15:24Z</time>
      </trkpt>
      <trkpt lat="45.907778972759843" lon="4.573218002915382">
        <ele>252.96000000000001</ele>
        <time>2025-04-24T11:15:25Z</time>
      </trkpt>
      <trkpt lat="45.907661039382219" lon="4.573327973484993">
        <ele>252.47999999999999</ele>
        <time>2025-04-24T11:15:26Z</time>
      </trkpt>
      <trkpt lat="45.907548973336816" lon="4.573434004560113">
        <ele>252</ele>
        <time>2025-04-24T11:15:27Z</time>
      </trkpt>
      <trkpt lat="45.907439002767205" lon="4.573541963472962">
        <ele>251.52000000000001</ele>
        <time>2025-04-24T11:15:28Z</time>
      </trkpt>
      <trkpt lat="45.907368008047342" lon="4.573654029518366">
        <ele>251.03999999999999</ele>
        <time>2025-04-24T11:15:29Z</time>
      </trkpt>
      <trkpt lat="45.907307993620634" lon="4.573747990652919">
        <ele>250.56</ele>
        <time>2025-04-24T11:15:30Z</time>
      </trkpt>
      <trkpt lat="45.907215038314462" lon="4.573896015062928">
        <ele>249.59999999999999</ele>
        <time>2025-04-24T11:15:32Z</time>
      </trkpt>
      <trkpt lat="45.907172961160541" lon="4.57394203171134">
        <ele>249.12</ele>
        <time>2025-04-24T11:15:33Z</time>
      </trkpt>
      <trkpt lat="45.907081011682749" lon="4.573959968984127">
        <ele>249.12</ele>
        <time>2025-04-24T11:15:34Z</time>
      </trkpt>
      <trkpt lat="45.907030971720815" lon="4.573953012004495">
        <ele>248.63999999999999</ele>
        <time>2025-04-24T11:15:35Z</time>
      </trkpt>
      <trkpt lat="45.906959977000952" lon="4.573928033933044">
        <ele>248.16</ele>
        <time>2025-04-24T11:15:36Z</time>
      </trkpt>
      <trkpt lat="45.906896023079753" lon="4.573876988142729">
        <ele>248.16</ele>
        <time>2025-04-24T11:15:37Z</time>
      </trkpt>
      <trkpt lat="45.906822010874748" lon="4.573824014514685">
        <ele>248.16</ele>
        <time>2025-04-24T11:15:38Z</time>
      </trkpt>
      <trkpt lat="45.906242989003658" lon="4.573448002338409">
        <ele>250.08000000000001</ele>
        <time>2025-04-24T11:15:45Z</time>
      </trkpt>
      <trkpt lat="45.906162019819021" lon="4.573414977639914">
        <ele>250.08000000000001</ele>
        <time>2025-04-24T11:15:46Z</time>
      </trkpt>
      <trkpt lat="45.906070992350578" lon="4.573394022881985">
        <ele>250.56</ele>
        <time>2025-04-24T11:15:47Z</time>
      </trkpt>
      <trkpt lat="45.905824983492494" lon="4.573338031768799">
        <ele>250.56</ele>
        <time>2025-04-24T11:15:50Z</time>
      </trkpt>
      <trkpt lat="45.90572901070118" lon="4.573316993191838">
        <ele>251.03999999999999</ele>
        <time>2025-04-24T11:15:51Z</time>
      </trkpt>
      <trkpt lat="45.905664972960949" lon="4.573101997375488">
        <ele>251.03999999999999</ele>
        <time>2025-04-24T11:15:52Z</time>
      </trkpt>
      <trkpt lat="45.905664972960949" lon="4.573101997375488">
        <ele>251.03999999999999</ele>
        <time>2025-04-24T11:15:53Z</time>
      </trkpt>
      <trkpt lat="45.90562398545444" lon="4.573021028190851">
        <ele>251.52000000000001</ele>
        <time>2025-04-24T11:15:54Z</time>
      </trkpt>
      <trkpt lat="45.905522983521223" lon="4.57299898378551">
        <ele>252</ele>
        <time>2025-04-24T11:15:55Z</time>
      </trkpt>
      <trkpt lat="45.90547101572156" lon="4.573015999048948">
        <ele>252.47999999999999</ele>
        <time>2025-04-24T11:15:56Z</time>
      </trkpt>
      <trkpt lat="45.90534201823175" lon="4.573046006262302">
        <ele>252.47999999999999</ele>
        <time>2025-04-24T11:15:57Z</time>
      </trkpt>
      <trkpt lat="45.905253002420068" lon="4.572969982400537">
        <ele>252.96000000000001</ele>
        <time>2025-04-24T11:15:58Z</time>
      </trkpt>
      <trkpt lat="45.905162980780005" lon="4.572879038751125">
        <ele>253.93000000000001</ele>
        <time>2025-04-24T11:15:59Z</time>
      </trkpt>
      <trkpt lat="45.905059967190027" lon="4.572777030989528">
        <ele>254.41</ele>
        <time>2025-04-24T11:16:00Z</time>
      </trkpt>
      <trkpt lat="45.904949996620417" lon="4.572659013792872">
        <ele>254.88999999999999</ele>
        <time>2025-04-24T11:16:01Z</time>
      </trkpt>
      <trkpt lat="45.904281958937645" lon="4.571754019707441">
        <ele>260.17000000000002</ele>
        <time>2025-04-24T11:16:07Z</time>
      </trkpt>
      <trkpt lat="45.904194032773376" lon="4.571550004184246">
        <ele>261.13999999999999</ele>
        <time>2025-04-24T11:16:08Z</time>
      </trkpt>
      <trkpt lat="45.904142986983061" lon="4.571320004761219">
        <ele>262.57999999999998</ele>
        <time>2025-04-24T11:16:09Z</time>
      </trkpt>
      <trkpt lat="45.90401298366487" lon="4.570854976773262">
        <ele>264.5</ele>
        <time>2025-04-24T11:16:11Z</time>
      </trkpt>
      <trkpt lat="45.903927991166711" lon="4.570631012320519">
        <ele>265.94</ele>
        <time>2025-04-24T11:16:12Z</time>
      </trkpt>
      <trkpt lat="45.90383998118341" lon="4.570401012897492">
        <ele>266.89999999999998</ele>
        <time>2025-04-24T11:16:13Z</time>
      </trkpt>
      <trkpt lat="45.903675025328994" lon="4.569894997403026">
        <ele>269.79000000000002</ele>
        <time>2025-04-24T11:16:15Z</time>
      </trkpt>
      <trkpt lat="45.903519038110971" lon="4.56938998773694">
        <ele>272.67000000000002</ele>
        <time>2025-04-24T11:16:17Z</time>
      </trkpt>
      <trkpt lat="45.903370007872581" lon="4.569181026890874">
        <ele>273.63</ele>
        <time>2025-04-24T11:16:18Z</time>
      </trkpt>
      <trkpt lat="45.903246961534023" lon="4.569010036066175">
        <ele>275.06999999999999</ele>
        <time>2025-04-24T11:16:19Z</time>
      </trkpt>
      <trkpt lat="45.903099020943046" lon="4.568907022476196">
        <ele>276.04000000000002</ele>
        <time>2025-04-24T11:16:20Z</time>
      </trkpt>
      <trkpt lat="45.902925012633204" lon="4.568848013877869">
        <ele>277</ele>
        <time>2025-04-24T11:16:21Z</time>
      </trkpt>
      <trkpt lat="45.902736000716686" lon="4.568785987794399">
        <ele>278.44</ele>
        <time>2025-04-24T11:16:22Z</time>
      </trkpt>
      <trkpt lat="45.902559980750084" lon="4.568664031103253">
        <ele>279.39999999999998</ele>
        <time>2025-04-24T11:16:23Z</time>
      </trkpt>
      <trkpt lat="45.902397036552429" lon="4.568523969501257">
        <ele>280.83999999999997</ele>
        <time>2025-04-24T11:16:24Z</time>
      </trkpt>
      <trkpt lat="45.902251023799181" lon="4.56833403557539">
        <ele>281.80000000000001</ele>
        <time>2025-04-24T11:16:25Z</time>
      </trkpt>
      <trkpt lat="45.90212102048099" lon="4.568118033930659">
        <ele>282.76999999999998</ele>
        <time>2025-04-24T11:16:26Z</time>
      </trkpt>
      <trkpt lat="45.902000991627574" lon="4.567878982052207">
        <ele>283.73000000000002</ele>
        <time>2025-04-24T11:16:27Z</time>
      </trkpt>
      <trkpt lat="45.901882974430919" lon="4.567641019821167">
        <ele>284.69</ele>
        <time>2025-04-24T11:16:28Z</time>
      </trkpt>
      <trkpt lat="45.901141008362174" lon="4.566351966932416">
        <ele>289.49000000000001</ele>
        <time>2025-04-24T11:16:34Z</time>
      </trkpt>
      <trkpt lat="45.900988038629293" lon="4.566214000806212">
        <ele>289.97000000000003</ele>
        <time>2025-04-24T11:16:35Z</time>
      </trkpt>
      <trkpt lat="45.900813024491072" lon="4.566148035228252">
        <ele>290.94</ele>
        <time>2025-04-24T11:16:36Z</time>
      </trkpt>
      <trkpt lat="45.900627030059695" lon="4.566093971952796">
        <ele>291.42000000000002</ele>
        <time>2025-04-24T11:16:37Z</time>
      </trkpt>
      <trkpt lat="45.900442041456699" lon="4.566039992496371">
        <ele>292.38</ele>
        <time>2025-04-24T11:16:38Z</time>
      </trkpt>
      <trkpt lat="45.900096958503127" lon="4.565938990563154">
        <ele>293.81999999999999</ele>
        <time>2025-04-24T11:16:40Z</time>
      </trkpt>
      <trkpt lat="45.899935020133853" lon="4.565985007211566">
        <ele>294.77999999999997</ele>
        <time>2025-04-24T11:16:41Z</time>
      </trkpt>
      <trkpt lat="45.899766040965915" lon="4.566040998324752">
        <ele>295.25999999999999</ele>
        <time>2025-04-24T11:16:42Z</time>
      </trkpt>
      <trkpt lat="45.899425987154245" lon="4.566243002191186">
        <ele>297.18000000000001</ele>
        <time>2025-04-24T11:16:44Z</time>
      </trkpt>
      <trkpt lat="45.899239992722869" lon="4.566326988860965">
        <ele>298.14999999999998</ele>
        <time>2025-04-24T11:16:45Z</time>
      </trkpt>
      <trkpt lat="45.897686993703246" lon="4.566517006605864">
        <ele>302.94999999999999</ele>
        <time>2025-04-24T11:16:53Z</time>
      </trkpt>
      <trkpt lat="45.897519020363688" lon="4.566504014655948">
        <ele>303.43000000000001</ele>
        <time>2025-04-24T11:16:54Z</time>
      </trkpt>
      <trkpt lat="45.897364960983396" lon="4.566479036584497">
        <ele>303.91000000000003</ele>
        <time>2025-04-24T11:16:55Z</time>
      </trkpt>
      <trkpt lat="45.897239986807108" lon="4.566376022994518">
        <ele>304.38999999999999</ele>
        <time>2025-04-24T11:16:56Z</time>
      </trkpt>
      <trkpt lat="45.89711501263082" lon="4.566274015232921">
        <ele>304.38999999999999</ele>
        <time>2025-04-24T11:16:57Z</time>
      </trkpt>
      <trkpt lat="45.896989032626152" lon="4.566147029399872">
        <ele>304.38999999999999</ele>
        <time>2025-04-24T11:16:58Z</time>
      </trkpt>
      <trkpt lat="45.896885013207793" lon="4.565976960584521">
        <ele>304.38999999999999</ele>
        <time>2025-04-24T11:16:59Z</time>
      </trkpt>
      <trkpt lat="45.896788034588099" lon="4.565818961709738">
        <ele>304.88</ele>
        <time>2025-04-24T11:17:00Z</time>
      </trkpt>
      <trkpt lat="45.896708993241191" lon="4.565688958391547">
        <ele>304.88</ele>
        <time>2025-04-24T11:17:01Z</time>
      </trkpt>
      <trkpt lat="45.896645961329341" lon="4.565587034448981">
        <ele>304.38999999999999</ele>
        <time>2025-04-24T11:17:02Z</time>
      </trkpt>
      <trkpt lat="45.896608997136354" lon="4.565527020022273">
        <ele>304.38999999999999</ele>
        <time>2025-04-24T11:17:03Z</time>
      </trkpt>
      <trkpt lat="45.896561974659562" lon="4.565544035285711">
        <ele>304.88</ele>
        <time>2025-04-24T11:17:04Z</time>
      </trkpt>
      <trkpt lat="45.896495003253222" lon="4.565568007528782">
        <ele>304.88</ele>
        <time>2025-04-24T11:17:05Z</time>
      </trkpt>
      <trkpt lat="45.896409004926682" lon="4.565598014742136">
        <ele>304.88</ele>
        <time>2025-04-24T11:17:06Z</time>
      </trkpt>
      <trkpt lat="45.896302973851562" lon="4.565634978935123">
        <ele>304.88</ele>
        <time>2025-04-24T11:17:07Z</time>
      </trkpt>
      <trkpt lat="45.896170036867261" lon="4.565666997805238">
        <ele>305.36000000000001</ele>
        <time>2025-04-24T11:17:08Z</time>
      </trkpt>
      <trkpt lat="45.896026035770774" lon="4.565688036382198">
        <ele>305.36000000000001</ele>
        <time>2025-04-24T11:17:09Z</time>
      </trkpt>
      <trkpt lat="45.895877005532384" lon="4.565709996968508">
        <ele>305.83999999999997</ele>
        <time>2025-04-24T11:17:10Z</time>
      </trkpt>
      <trkpt lat="45.895723029971123" lon="4.565732041373849">
        <ele>306.31999999999999</ele>
        <time>2025-04-24T11:17:11Z</time>
      </trkpt>
      <trkpt lat="45.894227027893066" lon="4.565942008048296">
        <ele>306.80000000000001</ele>
        <time>2025-04-24T11:17:20Z</time>
      </trkpt>
      <trkpt lat="45.894046984612942" lon="4.566017026081681">
        <ele>306.31999999999999</ele>
        <time>2025-04-24T11:17:21Z</time>
      </trkpt>
      <trkpt lat="45.893867025151849" lon="4.566091038286686">
        <ele>305.36000000000001</ele>
        <time>2025-04-24T11:17:22Z</time>
      </trkpt>
      <trkpt lat="45.893714977428317" lon="4.566190028563142">
        <ele>304.38999999999999</ele>
        <time>2025-04-24T11:17:23Z</time>
      </trkpt>
      <trkpt lat="45.893574999645352" lon="4.566331012174487">
        <ele>303.91000000000003</ele>
        <time>2025-04-24T11:17:24Z</time>
      </trkpt>
      <trkpt lat="45.893439967185259" lon="4.566465960815549">
        <ele>302.94999999999999</ele>
        <time>2025-04-24T11:17:25Z</time>
      </trkpt>
      <trkpt lat="45.893325973302126" lon="4.566579032689333">
        <ele>302.47000000000003</ele>
        <time>2025-04-24T11:17:26Z</time>
      </trkpt>
      <trkpt lat="45.893179960548878" lon="4.56663703545928">
        <ele>301.02999999999997</ele>
        <time>2025-04-24T11:17:27Z</time>
      </trkpt>
      <trkpt lat="45.893049035221338" lon="4.566662013530731">
        <ele>300.06999999999999</ele>
        <time>2025-04-24T11:17:28Z</time>
      </trkpt>
      <trkpt lat="45.892906039953232" lon="4.566656984388828">
        <ele>299.11000000000001</ele>
        <time>2025-04-24T11:17:29Z</time>
      </trkpt>
      <trkpt lat="45.892756003886461" lon="4.566651033237577">
        <ele>298.14999999999998</ele>
        <time>2025-04-24T11:17:30Z</time>
      </trkpt>
      <trkpt lat="45.892598005011678" lon="4.566643992438912">
        <ele>297.18000000000001</ele>
        <time>2025-04-24T11:17:31Z</time>
      </trkpt>
      <trkpt lat="45.892425002530217" lon="4.566632006317377">
        <ele>296.69999999999999</ele>
        <time>2025-04-24T11:17:32Z</time>
      </trkpt>
      <trkpt lat="45.891272993758321" lon="4.566473001614213">
        <ele>293.33999999999997</ele>
        <time>2025-04-24T11:17:39Z</time>
      </trkpt>
      <trkpt lat="45.891171991825104" lon="4.5663580019027">
        <ele>293.33999999999997</ele>
        <time>2025-04-24T11:17:40Z</time>
      </trkpt>
      <trkpt lat="45.891074007377028" lon="4.566240990534425">
        <ele>292.86000000000001</ele>
        <time>2025-04-24T11:17:41Z</time>
      </trkpt>
      <trkpt lat="45.891021033748984" lon="4.566099001094699">
        <ele>292.86000000000001</ele>
        <time>2025-04-24T11:17:42Z</time>
      </trkpt>
      <trkpt lat="45.890975017100573" lon="4.565924992784858">
        <ele>292.38</ele>
        <time>2025-04-24T11:17:43Z</time>
      </trkpt>
      <trkpt lat="45.8909269887954" lon="4.565741010010243">
        <ele>292.86000000000001</ele>
        <time>2025-04-24T11:17:44Z</time>
      </trkpt>
      <trkpt lat="45.890875020995736" lon="4.565545963123441">
        <ele>292.86000000000001</ele>
        <time>2025-04-24T11:17:45Z</time>
      </trkpt>
      <trkpt lat="45.890752980485559" lon="4.565359968692064">
        <ele>292.86000000000001</ele>
        <time>2025-04-24T11:17:46Z</time>
      </trkpt>
      <trkpt lat="45.890618031844497" lon="4.56519995816052">
        <ele>292.86000000000001</ele>
        <time>2025-04-24T11:17:47Z</time>
      </trkpt>
      <trkpt lat="45.89047403074801" lon="4.565030978992581">
        <ele>293.33999999999997</ele>
        <time>2025-04-24T11:17:48Z</time>
      </trkpt>
      <trkpt lat="45.890333969146013" lon="4.564859988167882">
        <ele>293.81999999999999</ele>
        <time>2025-04-24T11:17:49Z</time>
      </trkpt>
      <trkpt lat="45.890076979994774" lon="4.564536027610302">
        <ele>295.25999999999999</ele>
        <time>2025-04-24T11:17:51Z</time>
      </trkpt>
      <trkpt lat="45.889940019696951" lon="4.564390014857054">
        <ele>295.74000000000001</ele>
        <time>2025-04-24T11:17:52Z</time>
      </trkpt>
      <trkpt lat="45.889790989458561" lon="4.564307034015656">
        <ele>296.69999999999999</ele>
        <time>2025-04-24T11:17:53Z</time>
      </trkpt>
      <trkpt lat="45.889618992805481" lon="4.564304016530514">
        <ele>297.67000000000002</ele>
        <time>2025-04-24T11:17:54Z</time>
      </trkpt>
      <trkpt lat="45.889451019465923" lon="4.564348021522164">
        <ele>298.63</ele>
        <time>2025-04-24T11:17:55Z</time>
      </trkpt>
      <trkpt lat="45.889283968135715" lon="4.564398983493447">
        <ele>299.11000000000001</ele>
        <time>2025-04-24T11:17:56Z</time>
      </trkpt>
      <trkpt lat="45.88903502561152" lon="4.564476013183594">
        <ele>300.55000000000001</ele>
        <time>2025-04-24T11:17:58Z</time>
      </trkpt>
      <trkpt lat="45.88886596262455" lon="4.564420022070408">
        <ele>301.02999999999997</ele>
        <time>2025-04-24T11:17:59Z</time>
      </trkpt>
      <trkpt lat="45.888748029246926" lon="4.564365036785603">
        <ele>301.50999999999999</ele>
        <time>2025-04-24T11:18:00Z</time>
      </trkpt>
      <trkpt lat="45.888617020100355" lon="4.564250037074089">
        <ele>301.99000000000001</ele>
        <time>2025-04-24T11:18:01Z</time>
      </trkpt>
      <trkpt lat="45.888552982360125" lon="4.56412497907877">
        <ele>302.47000000000003</ele>
        <time>2025-04-24T11:18:02Z</time>
      </trkpt>
      <trkpt lat="45.888476958498359" lon="4.563961029052734">
        <ele>302.94999999999999</ele>
        <time>2025-04-24T11:18:03Z</time>
      </trkpt>
      <trkpt lat="45.888439994305372" lon="4.563723988831043">
        <ele>302.94999999999999</ele>
        <time>2025-04-24T11:18:04Z</time>
      </trkpt>
      <trkpt lat="45.888404035940766" lon="4.563496001064777">
        <ele>303.43000000000001</ele>
        <time>2025-04-24T11:18:05Z</time>
      </trkpt>
      <trkpt lat="45.888287024572492" lon="4.562859982252121">
        <ele>304.88</ele>
        <time>2025-04-24T11:18:08Z</time>
      </trkpt>
      <trkpt lat="45.888228015974164" lon="4.562660995870829">
        <ele>305.36000000000001</ele>
        <time>2025-04-24T11:18:09Z</time>
      </trkpt>
      <trkpt lat="45.888143023476005" lon="4.562477013096213">
        <ele>305.83999999999997</ele>
        <time>2025-04-24T11:18:10Z</time>
      </trkpt>
      <trkpt lat="45.888058030977845" lon="4.562304010614753">
        <ele>306.31999999999999</ele>
        <time>2025-04-24T11:18:11Z</time>
      </trkpt>
      <trkpt lat="45.887971026822925" lon="4.562128996476531">
        <ele>307.27999999999997</ele>
        <time>2025-04-24T11:18:12Z</time>
      </trkpt>
      <trkpt lat="45.887602977454662" lon="4.561387030407786">
        <ele>310.16000000000003</ele>
        <time>2025-04-24T11:18:16Z</time>
      </trkpt>
      <trkpt lat="45.886809965595603" lon="4.559932015836239">
        <ele>318.81</ele>
        <time>2025-04-24T11:18:24Z</time>
      </trkpt>
      <trkpt lat="45.885816039517522" lon="4.558960972353816">
        <ele>327.94999999999999</ele>
        <time>2025-04-24T11:18:31Z</time>
      </trkpt>
      <trkpt lat="45.884938035160303" lon="4.558371976017952">
        <ele>335.16000000000003</ele>
        <time>2025-04-24T11:18:37Z</time>
      </trkpt>
      <trkpt lat="45.88478296995163" lon="4.558339035138488">
        <ele>336.60000000000002</ele>
        <time>2025-04-24T11:18:38Z</time>
      </trkpt>
      <trkpt lat="45.884617008268833" lon="4.558339035138488">
        <ele>338.04000000000002</ele>
        <time>2025-04-24T11:18:39Z</time>
      </trkpt>
      <trkpt lat="45.884128008037806" lon="4.55840801820159">
        <ele>341.88999999999999</ele>
        <time>2025-04-24T11:18:42Z</time>
      </trkpt>
      <trkpt lat="45.883979983627796" lon="4.558496028184891">
        <ele>342.85000000000002</ele>
        <time>2025-04-24T11:18:43Z</time>
      </trkpt>
      <trkpt lat="45.883842017501593" lon="4.55862301401794">
        <ele>344.29000000000002</ele>
        <time>2025-04-24T11:18:44Z</time>
      </trkpt>
      <trkpt lat="45.882671987637877" lon="4.559634039178491">
        <ele>354.38</ele>
        <time>2025-04-24T11:18:53Z</time>
      </trkpt>
      <trkpt lat="45.882537038996816" lon="4.559707967564464">
        <ele>355.33999999999997</ele>
        <time>2025-04-24T11:18:54Z</time>
      </trkpt>
      <trkpt lat="45.882243001833558" lon="4.559774016961455">
        <ele>357.26999999999998</ele>
        <time>2025-04-24T11:18:56Z</time>
      </trkpt>
      <trkpt lat="45.882093971595168" lon="4.559765970334411">
        <ele>357.75</ele>
        <time>2025-04-24T11:18:57Z</time>
      </trkpt>
      <trkpt lat="45.881159976124763" lon="4.559669997543097">
        <ele>363.04000000000002</ele>
        <time>2025-04-24T11:19:05Z</time>
      </trkpt>
      <trkpt lat="45.881043970584869" lon="4.559675026685">
        <ele>363.51999999999998</ele>
        <time>2025-04-24T11:19:06Z</time>
      </trkpt>
      <trkpt lat="45.880529992282391" lon="4.559705033898354">
        <ele>365.92000000000002</ele>
        <time>2025-04-24T11:19:12Z</time>
      </trkpt>
      <trkpt lat="45.880450028926134" lon="4.559711990877986">
        <ele>365.92000000000002</ele>
        <time>2025-04-24T11:19:13Z</time>
      </trkpt>
      <trkpt lat="45.880367970094085" lon="4.559711990877986">
        <ele>366.39999999999998</ele>
        <time>2025-04-24T11:19:14Z</time>
      </trkpt>
      <trkpt lat="45.880288006737828" lon="4.559711990877986">
        <ele>366.88</ele>
        <time>2025-04-24T11:19:15Z</time>
      </trkpt>
      <trkpt lat="45.880210977047682" lon="4.559711990877986">
        <ele>367.36000000000001</ele>
        <time>2025-04-24T11:19:16Z</time>
      </trkpt>
      <trkpt lat="45.880130007863045" lon="4.559711990877986">
        <ele>367.83999999999997</ele>
        <time>2025-04-24T11:19:17Z</time>
      </trkpt>
      <trkpt lat="45.880066975951195" lon="4.559711990877986">
        <ele>368.31999999999999</ele>
        <time>2025-04-24T11:19:18Z</time>
      </trkpt>
      <trkpt lat="45.879932027310133" lon="4.55971903167665">
        <ele>369.27999999999997</ele>
        <time>2025-04-24T11:19:20Z</time>
      </trkpt>
      <trkpt lat="45.879873018711805" lon="4.559734035283327">
        <ele>369.75999999999999</ele>
        <time>2025-04-24T11:19:21Z</time>
      </trkpt>
      <trkpt lat="45.879823984578252" lon="4.559746021404862">
        <ele>370.24000000000001</ele>
        <time>2025-04-24T11:19:22Z</time>
      </trkpt>
      <trkpt lat="45.879779979586601" lon="4.559757001698017">
        <ele>370.73000000000002</ele>
        <time>2025-04-24T11:19:23Z</time>
      </trkpt>
      <trkpt lat="45.879729017615318" lon="4.559774016961455">
        <ele>371.20999999999998</ele>
        <time>2025-04-24T11:19:24Z</time>
      </trkpt>
      <trkpt lat="45.879680989310145" lon="4.559790026396513">
        <ele>371.69</ele>
        <time>2025-04-24T11:19:25Z</time>
      </trkpt>
      <trkpt lat="45.879609994590282" lon="4.559736968949437">
        <ele>372.17000000000002</ele>
        <time>2025-04-24T11:19:26Z</time>
      </trkpt>
      <trkpt lat="45.879564983770251" lon="4.55967896617949">
        <ele>372.17000000000002</ele>
        <time>2025-04-24T11:19:27Z</time>
      </trkpt>
      <trkpt lat="45.879517961293459" lon="4.559619035571814">
        <ele>372.64999999999998</ele>
        <time>2025-04-24T11:19:28Z</time>
      </trkpt>
      <trkpt lat="45.879305982962251" lon="4.559346958994865">
        <ele>373.61000000000001</ele>
        <time>2025-04-24T11:19:32Z</time>
      </trkpt>
      <trkpt lat="45.879247980192304" lon="4.559272024780512">
        <ele>374.08999999999997</ele>
        <time>2025-04-24T11:19:33Z</time>
      </trkpt>
      <trkpt lat="45.879188971593976" lon="4.559176973998547">
        <ele>374.08999999999997</ele>
        <time>2025-04-24T11:19:34Z</time>
      </trkpt>
      <trkpt lat="45.879145972430706" lon="4.55907597206533">
        <ele>374.08999999999997</ele>
        <time>2025-04-24T11:19:35Z</time>
      </trkpt>
      <trkpt lat="45.879100961610675" lon="4.558971030637622">
        <ele>374.08999999999997</ele>
        <time>2025-04-24T11:19:36Z</time>
      </trkpt>
      <trkpt lat="45.879057962447405" lon="4.558830969035626">
        <ele>373.61000000000001</ele>
        <time>2025-04-24T11:19:37Z</time>
      </trkpt>
      <trkpt lat="45.87898001074791" lon="4.558418998494744">
        <ele>373.13</ele>
        <time>2025-04-24T11:19:40Z</time>
      </trkpt>
      <trkpt lat="45.878967018797994" lon="4.558276003226638">
        <ele>372.64999999999998</ele>
        <time>2025-04-24T11:19:41Z</time>
      </trkpt>
      <trkpt lat="45.878927959129214" lon="4.557282999157906">
        <ele>369.75999999999999</ele>
        <time>2025-04-24T11:19:50Z</time>
      </trkpt>
      <trkpt lat="45.878927959129214" lon="4.557108990848064">
        <ele>368.31999999999999</ele>
        <time>2025-04-24T11:19:57Z</time>
      </trkpt>
      <trkpt lat="45.878927959129214" lon="4.557094993069768">
        <ele>368.31999999999999</ele>
        <time>2025-04-24T11:19:58Z</time>
      </trkpt>
      <trkpt lat="45.87889401242137" lon="4.557086024433374">
        <ele>368.31999999999999</ele>
        <time>2025-04-24T11:19:59Z</time>
      </trkpt>
      <trkpt lat="45.878355978056788" lon="4.556869016960263">
        <ele>365.92000000000002</ele>
        <time>2025-04-24T11:20:05Z</time>
      </trkpt>
      <trkpt lat="45.877313017845154" lon="4.556120010092855">
        <ele>364</ele>
        <time>2025-04-24T11:20:14Z</time>
      </trkpt>
      <trkpt lat="45.876683034002781" lon="4.555679038167">
        <ele>361.58999999999997</ele>
        <time>2025-04-24T11:20:22Z</time>
      </trkpt>
      <trkpt lat="45.875961016863585" lon="4.555144021287561">
        <ele>358.23000000000002</ele>
        <time>2025-04-24T11:20:30Z</time>
      </trkpt>
      <trkpt lat="45.875033978372812" lon="4.554485036060214">
        <ele>354.86000000000001</ele>
        <time>2025-04-24T11:20:40Z</time>
      </trkpt>
      <trkpt lat="45.873720031231642" lon="4.553564032539725">
        <ele>349.57999999999998</ele>
        <time>2025-04-24T11:20:51Z</time>
      </trkpt>
      <trkpt lat="45.873587010428309" lon="4.553464036434889">
        <ele>349.10000000000002</ele>
        <time>2025-04-24T11:20:52Z</time>
      </trkpt>
      <trkpt lat="45.872365012764931" lon="4.55258603207767">
        <ele>344.76999999999998</ele>
        <time>2025-04-24T11:21:00Z</time>
      </trkpt>
      <trkpt lat="45.871638972312212" lon="4.551873989403248">
        <ele>342.37</ele>
        <time>2025-04-24T11:21:05Z</time>
      </trkpt>
      <trkpt lat="45.871368991211057" lon="4.551529996097088">
        <ele>341.41000000000003</ele>
        <time>2025-04-24T11:21:07Z</time>
      </trkpt>
      <trkpt lat="45.86993602104485" lon="4.549783961847425">
        <ele>337.56</ele>
        <time>2025-04-24T11:21:17Z</time>
      </trkpt>
      <trkpt lat="45.868355026468635" lon="4.547879006713629">
        <ele>329.38999999999999</ele>
        <time>2025-04-24T11:21:29Z</time>
      </trkpt>
      <trkpt lat="45.867438968271017" lon="4.546806961297989">
        <ele>326.01999999999998</ele>
        <time>2025-04-24T11:21:37Z</time>
      </trkpt>
      <trkpt lat="45.867094974964857" lon="4.546405971050263">
        <ele>324.10000000000002</ele>
        <time>2025-04-24T11:21:43Z</time>
      </trkpt>
      <trkpt lat="45.867076031863689" lon="4.546384010463953">
        <ele>324.10000000000002</ele>
        <time>2025-04-24T11:21:52Z</time>
      </trkpt>
      <trkpt lat="45.867001013830304" lon="4.546283008530736">
        <ele>323.62</ele>
        <time>2025-04-24T11:22:01Z</time>
      </trkpt>
      <trkpt lat="45.866945022717118" lon="4.54622701741755">
        <ele>323.62</ele>
        <time>2025-04-24T11:22:02Z</time>
      </trkpt>
      <trkpt lat="45.866876039654016" lon="4.546159040182829">
        <ele>323.13999999999999</ele>
        <time>2025-04-24T11:22:03Z</time>
      </trkpt>
      <trkpt lat="45.866127032786608" lon="4.54549502581358">
        <ele>318.32999999999998</ele>
        <time>2025-04-24T11:22:10Z</time>
      </trkpt>
      <trkpt lat="45.864982986822724" lon="4.544847020879388">
        <ele>310.63999999999999</ele>
        <time>2025-04-24T11:22:18Z</time>
      </trkpt>
      <trkpt lat="45.864829011261463" lon="4.544798992574215">
        <ele>309.68000000000001</ele>
        <time>2025-04-24T11:22:19Z</time>
      </trkpt>
      <trkpt lat="45.863264026120305" lon="4.544456005096436">
        <ele>302.47000000000003</ele>
        <time>2025-04-24T11:22:29Z</time>
      </trkpt>
      <trkpt lat="45.862844008952379" lon="4.544286020100117">
        <ele>304.38999999999999</ele>
        <time>2025-04-24T11:22:32Z</time>
      </trkpt>
      <trkpt lat="45.862300023436546" lon="4.543929034844041">
        <ele>309.68000000000001</ele>
        <time>2025-04-24T11:22:38Z</time>
      </trkpt>
      <trkpt lat="45.861589992418885" lon="4.543315982446075">
        <ele>319.77999999999997</ele>
        <time>2025-04-24T11:22:49Z</time>
      </trkpt>
      <trkpt lat="45.861054975539446" lon="4.542724974453449">
        <ele>325.54000000000002</ele>
        <time>2025-04-24T11:22:58Z</time>
      </trkpt>
      <trkpt lat="45.861006025224924" lon="4.542638976126909">
        <ele>326.01999999999998</ele>
        <time>2025-04-24T11:22:59Z</time>
      </trkpt>
      <trkpt lat="45.860980963334441" lon="4.542535040527582">
        <ele>326.5</ele>
        <time>2025-04-24T11:23:00Z</time>
      </trkpt>
      <trkpt lat="45.860968977212906" lon="4.542421968653798">
        <ele>326.5</ele>
        <time>2025-04-24T11:23:01Z</time>
      </trkpt>
      <trkpt lat="45.860982974991202" lon="4.542301017791033">
        <ele>326.99000000000001</ele>
        <time>2025-04-24T11:23:02Z</time>
      </trkpt>
      <trkpt lat="45.86099898442626" lon="4.542171014472842">
        <ele>327.47000000000003</ele>
        <time>2025-04-24T11:23:03Z</time>
      </trkpt>
      <trkpt lat="45.861010970547795" lon="4.541889969259501">
        <ele>328.43000000000001</ele>
        <time>2025-04-24T11:23:05Z</time>
      </trkpt>
      <trkpt lat="45.860986998304725" lon="4.541743034496903">
        <ele>329.38999999999999</ele>
        <time>2025-04-24T11:23:06Z</time>
      </trkpt>
      <trkpt lat="45.860909968614578" lon="4.541444974020124">
        <ele>330.35000000000002</ele>
        <time>2025-04-24T11:23:08Z</time>
      </trkpt>
      <trkpt lat="45.86086998693645" lon="4.541289992630482">
        <ele>330.82999999999998</ele>
        <time>2025-04-24T11:23:09Z</time>
      </trkpt>
      <trkpt lat="45.860830005258322" lon="4.541134005412459">
        <ele>331.31</ele>
        <time>2025-04-24T11:23:10Z</time>
      </trkpt>
      <trkpt lat="45.860444018617272" lon="4.539580000564456">
        <ele>335.63999999999999</ele>
        <time>2025-04-24T11:23:20Z</time>
      </trkpt>
      <trkpt lat="45.860243020579219" lon="4.538960997015238">
        <ele>337.07999999999998</ele>
        <time>2025-04-24T11:23:24Z</time>
      </trkpt>
      <trkpt lat="45.860141012817621" lon="4.538484988734126">
        <ele>338.51999999999998</ele>
        <time>2025-04-24T11:23:27Z</time>
      </trkpt>
      <trkpt lat="45.860114023089409" lon="4.538332019001246">
        <ele>338.51999999999998</ele>
        <time>2025-04-24T11:23:28Z</time>
      </trkpt>
      <trkpt lat="45.859990976750851" lon="4.53767403960228">
        <ele>340.44</ele>
        <time>2025-04-24T11:23:34Z</time>
      </trkpt>
      <trkpt lat="45.859818980097771" lon="4.536886978894472">
        <ele>342.85000000000002</ele>
        <time>2025-04-24T11:23:41Z</time>
      </trkpt>
      <trkpt lat="45.859803976491094" lon="4.536809027194977">
        <ele>342.85000000000002</ele>
        <time>2025-04-24T11:23:42Z</time>
      </trkpt>
      <trkpt lat="45.859790984541178" lon="4.536745995283127">
        <ele>342.85000000000002</ele>
        <time>2025-04-24T11:23:43Z</time>
      </trkpt>
      <trkpt lat="45.859827026724815" lon="4.536669971421361">
        <ele>342.85000000000002</ele>
        <time>2025-04-24T11:23:44Z</time>
      </trkpt>
      <trkpt lat="45.85986097343266" lon="4.536615991964936">
        <ele>342.85000000000002</ele>
        <time>2025-04-24T11:23:45Z</time>
      </trkpt>
      <trkpt lat="45.85990296676755" lon="4.536550026386976">
        <ele>342.85000000000002</ele>
        <time>2025-04-24T11:23:46Z</time>
      </trkpt>
      <trkpt lat="45.859938003122807" lon="4.536495041102171">
        <ele>343.32999999999998</ele>
        <time>2025-04-24T11:23:47Z</time>
      </trkpt>
      <trkpt lat="45.860011009499431" lon="4.536427985876799">
        <ele>343.32999999999998</ele>
        <time>2025-04-24T11:23:48Z</time>
      </trkpt>
      <trkpt lat="45.860072029754519" lon="4.536371994763613">
        <ele>343.32999999999998</ele>
        <time>2025-04-24T11:23:49Z</time>
      </trkpt>
      <trkpt lat="45.860585002228618" lon="4.535891963168979">
        <ele>347.17000000000002</ele>
        <time>2025-04-24T11:23:57Z</time>
      </trkpt>
      <trkpt lat="45.860649039968848" lon="4.535817028954625">
        <ele>347.64999999999998</ele>
        <time>2025-04-24T11:23:58Z</time>
      </trkpt>
      <trkpt lat="45.860662031918764" lon="4.535689959302545">
        <ele>348.62</ele>
        <time>2025-04-24T11:23:59Z</time>
      </trkpt>
      <trkpt lat="45.860640993341804" lon="4.535562973469496">
        <ele>348.62</ele>
        <time>2025-04-24T11:24:00Z</time>
      </trkpt>
      <trkpt lat="45.860615009441972" lon="4.535411009564996">
        <ele>349.10000000000002</ele>
        <time>2025-04-24T11:24:01Z</time>
      </trkpt>
      <trkpt lat="45.860375035554171" lon="4.533988013863564">
        <ele>351.01999999999998</ele>
        <time>2025-04-24T11:24:08Z</time>
      </trkpt>
      <trkpt lat="45.860336981713772" lon="4.531712997704744">
        <ele>351.01999999999998</ele>
        <time>2025-04-24T11:24:18Z</time>
      </trkpt>
      <trkpt lat="45.860345028340816" lon="4.531469000503421">
        <ele>351.5</ele>
        <time>2025-04-24T11:24:19Z</time>
      </trkpt>
      <trkpt lat="45.86029096506536" lon="4.531254004687071">
        <ele>351.98000000000002</ele>
        <time>2025-04-24T11:24:20Z</time>
      </trkpt>
      <trkpt lat="45.860236985608935" lon="4.53103800304234">
        <ele>351.98000000000002</ele>
        <time>2025-04-24T11:24:21Z</time>
      </trkpt>
      <trkpt lat="45.860183006152511" lon="4.530820995569229">
        <ele>352.45999999999998</ele>
        <time>2025-04-24T11:24:22Z</time>
      </trkpt>
      <trkpt lat="45.859901960939169" lon="4.528839010745287">
        <ele>356.79000000000002</ele>
        <time>2025-04-24T11:24:31Z</time>
      </trkpt>
      <trkpt lat="45.859919982030988" lon="4.528516978025436">
        <ele>356.79000000000002</ele>
        <time>2025-04-24T11:24:33Z</time>
      </trkpt>
      <trkpt lat="45.859939008951187" lon="4.528392003849149">
        <ele>356.79000000000002</ele>
        <time>2025-04-24T11:24:34Z</time>
      </trkpt>
      <trkpt lat="45.859954012557864" lon="4.528285972774029">
        <ele>356.79000000000002</ele>
        <time>2025-04-24T11:24:35Z</time>
      </trkpt>
      <trkpt lat="45.859983013942838" lon="4.528083968907595">
        <ele>356.79000000000002</ele>
        <time>2025-04-24T11:24:37Z</time>
      </trkpt>
      <trkpt lat="45.859996005892754" lon="4.527963018044829">
        <ele>356.79000000000002</ele>
        <time>2025-04-24T11:24:38Z</time>
      </trkpt>
      <trkpt lat="45.860012015327811" lon="4.527823040261865">
        <ele>356.79000000000002</ele>
        <time>2025-04-24T11:24:39Z</time>
      </trkpt>
      <trkpt lat="45.860180994495749" lon="4.526250008493662">
        <ele>358.23000000000002</ele>
        <time>2025-04-24T11:24:47Z</time>
      </trkpt>
      <trkpt lat="45.860390961170197" lon="4.523765025660396">
        <ele>368.80000000000001</ele>
        <time>2025-04-24T11:24:58Z</time>
      </trkpt>
      <trkpt lat="45.860365983098745" lon="4.523563021793962">
        <ele>370.24000000000001</ele>
        <time>2025-04-24T11:24:59Z</time>
      </trkpt>
      <trkpt lat="45.860339999198914" lon="4.523360012099147">
        <ele>371.20999999999998</ele>
        <time>2025-04-24T11:25:00Z</time>
      </trkpt>
      <trkpt lat="45.860162973403931" lon="4.522300958633423">
        <ele>376.49000000000001</ele>
        <time>2025-04-24T11:25:05Z</time>
      </trkpt>
      <trkpt lat="45.860152998939157" lon="4.522070037201047">
        <ele>377.44999999999999</ele>
        <time>2025-04-24T11:25:06Z</time>
      </trkpt>
      <trkpt lat="45.860178982838988" lon="4.52184003777802">
        <ele>377.94</ele>
        <time>2025-04-24T11:25:07Z</time>
      </trkpt>
      <trkpt lat="45.86033103056252" lon="4.519554963335395">
        <ele>379.86000000000001</ele>
        <time>2025-04-24T11:25:17Z</time>
      </trkpt>
      <trkpt lat="45.860385010018945" lon="4.518699003383517">
        <ele>379.86000000000001</ele>
        <time>2025-04-24T11:25:21Z</time>
      </trkpt>
      <trkpt lat="45.86037402972579" lon="4.518509991466999">
        <ele>380.33999999999997</ele>
        <time>2025-04-24T11:25:22Z</time>
      </trkpt>
      <trkpt lat="45.860343016684055" lon="4.518322991207242">
        <ele>380.81999999999999</ele>
        <time>2025-04-24T11:25:23Z</time>
      </trkpt>
      <trkpt lat="45.860270010307431" lon="4.518136996775866">
        <ele>381.30000000000001</ele>
        <time>2025-04-24T11:25:24Z</time>
      </trkpt>
      <trkpt lat="45.860195998102427" lon="4.517948990687728">
        <ele>381.30000000000001</ele>
        <time>2025-04-24T11:25:25Z</time>
      </trkpt>
      <trkpt lat="45.860114023089409" lon="4.517770037055016">
        <ele>381.77999999999997</ele>
        <time>2025-04-24T11:25:26Z</time>
      </trkpt>
      <trkpt lat="45.859992988407612" lon="4.517670040950179">
        <ele>382.25999999999999</ele>
        <time>2025-04-24T11:25:27Z</time>
      </trkpt>
      <trkpt lat="45.859863990917802" lon="4.517563004046679">
        <ele>382.25999999999999</ele>
        <time>2025-04-24T11:25:28Z</time>
      </trkpt>
      <trkpt lat="45.859734993427992" lon="4.517456972971559">
        <ele>382.74000000000001</ele>
        <time>2025-04-24T11:25:29Z</time>
      </trkpt>
      <trkpt lat="45.859615970402956" lon="4.517340967431665">
        <ele>382.74000000000001</ele>
        <time>2025-04-24T11:25:30Z</time>
      </trkpt>
      <trkpt lat="45.859524020925164" lon="4.517186991870403">
        <ele>383.22000000000003</ele>
        <time>2025-04-24T11:25:31Z</time>
      </trkpt>
      <trkpt lat="45.859444979578257" lon="4.517054976895452">
        <ele>383.22000000000003</ele>
        <time>2025-04-24T11:25:32Z</time>
      </trkpt>
      <trkpt lat="45.859384965151548" lon="4.516842998564243">
        <ele>383.69999999999999</ele>
        <time>2025-04-24T11:25:33Z</time>
      </trkpt>
      <trkpt lat="45.859330985695124" lon="4.516649041324854">
        <ele>383.69999999999999</ele>
        <time>2025-04-24T11:25:34Z</time>
      </trkpt>
      <trkpt lat="45.859288992360234" lon="4.516451982781291">
        <ele>383.69999999999999</ele>
        <time>2025-04-24T11:25:35Z</time>
      </trkpt>
      <trkpt lat="45.859269965440035" lon="4.516245033591986">
        <ele>384.18000000000001</ele>
        <time>2025-04-24T11:25:36Z</time>
      </trkpt>
      <trkpt lat="45.859178015962243" lon="4.515227973461151">
        <ele>387.55000000000001</ele>
        <time>2025-04-24T11:25:42Z</time>
      </trkpt>
      <trkpt lat="45.859139040112495" lon="4.514862019568682">
        <ele>391.38999999999999</ele>
        <time>2025-04-24T11:25:48Z</time>
      </trkpt>
      <trkpt lat="45.859137028455734" lon="4.514848021790385">
        <ele>391.38999999999999</ele>
        <time>2025-04-24T11:25:51Z</time>
      </trkpt>
      <trkpt lat="45.859113978222013" lon="4.514607964083552">
        <ele>392.36000000000001</ele>
        <time>2025-04-24T11:25:54Z</time>
      </trkpt>
      <trkpt lat="45.859072990715504" lon="4.5143430121243">
        <ele>393.31999999999999</ele>
        <time>2025-04-24T11:25:56Z</time>
      </trkpt>
      <trkpt lat="45.859033009037375" lon="4.514187024906278">
        <ele>393.31999999999999</ele>
        <time>2025-04-24T11:25:57Z</time>
      </trkpt>
      <trkpt lat="45.858995039016008" lon="4.514031037688255">
        <ele>393.80000000000001</ele>
        <time>2025-04-24T11:25:58Z</time>
      </trkpt>
      <trkpt lat="45.858951034024358" lon="4.513857029378414">
        <ele>394.27999999999997</ele>
        <time>2025-04-24T11:25:59Z</time>
      </trkpt>
      <trkpt lat="45.858951034024358" lon="4.513695007190108">
        <ele>394.27999999999997</ele>
        <time>2025-04-24T11:26:00Z</time>
      </trkpt>
      <trkpt lat="45.858951034024358" lon="4.513519993051887">
        <ele>394.27999999999997</ele>
        <time>2025-04-24T11:26:01Z</time>
      </trkpt>
      <trkpt lat="45.858951034024358" lon="4.513346990570426">
        <ele>394.27999999999997</ele>
        <time>2025-04-24T11:26:02Z</time>
      </trkpt>
      <trkpt lat="45.858951034024358" lon="4.512235969305039">
        <ele>395.72000000000003</ele>
        <time>2025-04-24T11:26:09Z</time>
      </trkpt>
      <trkpt lat="45.858921026811004" lon="4.511595005169511">
        <ele>396.68000000000001</ele>
        <time>2025-04-24T11:26:13Z</time>
      </trkpt>
      <trkpt lat="45.85887098684907" lon="4.511436000466347">
        <ele>396.68000000000001</ele>
        <time>2025-04-24T11:26:14Z</time>
      </trkpt>
      <trkpt lat="45.858816001564264" lon="4.511261992156506">
        <ele>397.16000000000003</ele>
        <time>2025-04-24T11:26:15Z</time>
      </trkpt>
      <trkpt lat="45.858466979116201" lon="4.509836984798312">
        <ele>402.93000000000001</ele>
        <time>2025-04-24T11:26:23Z</time>
      </trkpt>
      <trkpt lat="45.858411993831396" lon="4.509674040600658">
        <ele>404.37</ele>
        <time>2025-04-24T11:26:24Z</time>
      </trkpt>
      <trkpt lat="45.858343010768294" lon="4.509512018412352">
        <ele>405.32999999999998</ele>
        <time>2025-04-24T11:26:25Z</time>
      </trkpt>
      <trkpt lat="45.857979990541935" lon="4.508667038753629">
        <ele>408.69999999999999</ele>
        <time>2025-04-24T11:26:30Z</time>
      </trkpt>
      <trkpt lat="45.857896003872156" lon="4.50832799077034">
        <ele>409.66000000000003</ele>
        <time>2025-04-24T11:26:32Z</time>
      </trkpt>
      <trkpt lat="45.85786297917366" lon="4.508149959146977">
        <ele>410.13999999999999</ele>
        <time>2025-04-24T11:26:33Z</time>
      </trkpt>
      <trkpt lat="45.857764994725585" lon="4.507635980844498">
        <ele>412.06</ele>
        <time>2025-04-24T11:26:36Z</time>
      </trkpt>
      <trkpt lat="45.857715960592031" lon="4.507473958656192">
        <ele>412.54000000000002</ele>
        <time>2025-04-24T11:26:37Z</time>
      </trkpt>
      <trkpt lat="45.857614036649466" lon="4.507141029462218">
        <ele>413.5</ele>
        <time>2025-04-24T11:26:39Z</time>
      </trkpt>
      <trkpt lat="45.8575189858675" lon="4.506827965378761">
        <ele>413.98000000000002</ele>
        <time>2025-04-24T11:26:41Z</time>
      </trkpt>
      <trkpt lat="45.857473975047469" lon="4.506679018959403">
        <ele>414.47000000000003</ele>
        <time>2025-04-24T11:26:42Z</time>
      </trkpt>
      <trkpt lat="45.857471041381359" lon="4.506515990942717">
        <ele>414.94999999999999</ele>
        <time>2025-04-24T11:26:43Z</time>
      </trkpt>
      <trkpt lat="45.857471041381359" lon="4.506368972361088">
        <ele>415.43000000000001</ele>
        <time>2025-04-24T11:26:44Z</time>
      </trkpt>
      <trkpt lat="45.85749601945281" lon="4.50622396543622">
        <ele>415.91000000000003</ele>
        <time>2025-04-24T11:26:45Z</time>
      </trkpt>
      <trkpt lat="45.857530971989036" lon="4.506084993481636">
        <ele>416.38999999999999</ele>
        <time>2025-04-24T11:26:46Z</time>
      </trkpt>
      <trkpt lat="45.857567014172673" lon="4.50594199821353">
        <ele>416.87</ele>
        <time>2025-04-24T11:26:47Z</time>
      </trkpt>
      <trkpt lat="45.857605990022421" lon="4.50579397380352">
        <ele>417.35000000000002</ele>
        <time>2025-04-24T11:26:48Z</time>
      </trkpt>
      <trkpt lat="45.857659969478846" lon="4.505665982142091">
        <ele>418.31</ele>
        <time>2025-04-24T11:26:49Z</time>
      </trkpt>
      <trkpt lat="45.857706991955638" lon="4.5055550057441">
        <ele>418.79000000000002</ele>
        <time>2025-04-24T11:26:50Z</time>
      </trkpt>
      <trkpt lat="45.857750996947289" lon="4.505450986325741">
        <ele>419.26999999999998</ele>
        <time>2025-04-24T11:26:51Z</time>
      </trkpt>
      <trkpt lat="45.857773963361979" lon="4.505336992442608">
        <ele>420.23000000000002</ele>
        <time>2025-04-24T11:26:52Z</time>
      </trkpt>
      <trkpt lat="45.857781004160643" lon="4.505209000781179">
        <ele>420.70999999999998</ele>
        <time>2025-04-24T11:26:53Z</time>
      </trkpt>
      <trkpt lat="45.857787961140275" lon="4.50508201494813">
        <ele>421.68000000000001</ele>
        <time>2025-04-24T11:26:54Z</time>
      </trkpt>
      <trkpt lat="45.857793996110559" lon="4.504959974437952">
        <ele>422.63999999999999</ele>
        <time>2025-04-24T11:26:55Z</time>
      </trkpt>
      <trkpt lat="45.857800031080842" lon="4.504842041060329">
        <ele>423.60000000000002</ele>
        <time>2025-04-24T11:26:56Z</time>
      </trkpt>
      <trkpt lat="45.857811011373997" lon="4.504649005830288">
        <ele>425.51999999999998</ele>
        <time>2025-04-24T11:26:58Z</time>
      </trkpt>
      <trkpt lat="45.857808999717236" lon="4.504580022767186">
        <ele>426</ele>
        <time>2025-04-24T11:26:59Z</time>
      </trkpt>
      <trkpt lat="45.85777698084712" lon="4.504528976976872">
        <ele>426.95999999999998</ele>
        <time>2025-04-24T11:27:00Z</time>
      </trkpt>
      <trkpt lat="45.857741022482514" lon="4.504469968378544">
        <ele>427.92000000000002</ele>
        <time>2025-04-24T11:27:01Z</time>
      </trkpt>
      <trkpt lat="45.857685031369328" lon="4.504434010013938">
        <ele>427.92000000000002</ele>
        <time>2025-04-24T11:27:02Z</time>
      </trkpt>
      <trkpt lat="45.857629962265491" lon="4.504482038319111">
        <ele>428.39999999999998</ele>
        <time>2025-04-24T11:27:03Z</time>
      </trkpt>
      <trkpt lat="45.857556033879519" lon="4.504544986411929">
        <ele>429.37</ele>
        <time>2025-04-24T11:27:04Z</time>
      </trkpt>
      <trkpt lat="45.857508005574346" lon="4.504621010273695">
        <ele>429.85000000000002</ele>
        <time>2025-04-24T11:27:05Z</time>
      </trkpt>
      <trkpt lat="45.857407003641129" lon="4.504779009148479">
        <ele>431.29000000000002</ele>
        <time>2025-04-24T11:27:07Z</time>
      </trkpt>
      <trkpt lat="45.857322011142969" lon="4.50478102080524">
        <ele>431.29000000000002</ele>
        <time>2025-04-24T11:27:08Z</time>
      </trkpt>
      <trkpt lat="45.857251016423106" lon="4.50478102080524">
        <ele>431.76999999999998</ele>
        <time>2025-04-24T11:27:09Z</time>
      </trkpt>
      <trkpt lat="45.857169963419437" lon="4.50478102080524">
        <ele>432.73000000000002</ele>
        <time>2025-04-24T11:27:10Z</time>
      </trkpt>
      <trkpt lat="45.857097962871194" lon="4.504720000550151">
        <ele>433.20999999999998</ele>
        <time>2025-04-24T11:27:11Z</time>
      </trkpt>
      <trkpt lat="45.857029985636473" lon="4.504661997780204">
        <ele>433.69</ele>
        <time>2025-04-24T11:27:12Z</time>
      </trkpt>
      <trkpt lat="45.856973994523287" lon="4.504614975303412">
        <ele>434.17000000000002</ele>
        <time>2025-04-24T11:27:13Z</time>
      </trkpt>
      <trkpt lat="45.856930995360017" lon="4.504578011110425">
        <ele>434.64999999999998</ele>
        <time>2025-04-24T11:27:14Z</time>
      </trkpt>
      <trkpt lat="45.856891013681889" lon="4.504544986411929">
        <ele>435.13</ele>
        <time>2025-04-24T11:27:15Z</time>
      </trkpt>
      <trkpt lat="45.856923032552004" lon="4.504463011398912">
        <ele>435.61000000000001</ele>
        <time>2025-04-24T11:27:16Z</time>
      </trkpt>
      <trkpt lat="45.856947004795074" lon="4.504402996972203">
        <ele>435.61000000000001</ele>
        <time>2025-04-24T11:27:17Z</time>
      </trkpt>
      <trkpt lat="45.856978017836809" lon="4.504324039444327">
        <ele>436.57999999999998</ele>
        <time>2025-04-24T11:27:18Z</time>
      </trkpt>
      <trkpt lat="45.857011964544654" lon="4.504237035289407">
        <ele>437.06</ele>
        <time>2025-04-24T11:27:19Z</time>
      </trkpt>
      <trkpt lat="45.85713098756969" lon="4.503929000347853">
        <ele>438.5</ele>
        <time>2025-04-24T11:27:22Z</time>
      </trkpt>
      <trkpt lat="45.857451008632779" lon="4.502668026834726">
        <ele>445.23000000000002</ele>
        <time>2025-04-24T11:27:31Z</time>
      </trkpt>
      <trkpt lat="45.857471963390708" lon="4.502522014081478">
        <ele>445.70999999999998</ele>
        <time>2025-04-24T11:27:32Z</time>
      </trkpt>
      <trkpt lat="45.857473975047469" lon="4.502356974408031">
        <ele>446.19</ele>
        <time>2025-04-24T11:27:33Z</time>
      </trkpt>
      <trkpt lat="45.857456959784031" lon="4.500820990651846">
        <ele>455.31999999999999</ele>
        <time>2025-04-24T11:27:42Z</time>
      </trkpt>
      <trkpt lat="45.857352018356323" lon="4.499743999913335">
        <ele>462.05000000000001</ele>
        <time>2025-04-24T11:27:48Z</time>
      </trkpt>
      <trkpt lat="45.857342965900898" lon="4.499555993825197">
        <ele>463.49000000000001</ele>
        <time>2025-04-24T11:27:49Z</time>
      </trkpt>
      <trkpt lat="45.857371967285872" lon="4.499361030757427">
        <ele>464.44999999999999</ele>
        <time>2025-04-24T11:27:50Z</time>
      </trkpt>
      <trkpt lat="45.85747598670423" lon="4.497791016474366">
        <ele>474.55000000000001</ele>
        <time>2025-04-24T11:27:58Z</time>
      </trkpt>
      <trkpt lat="45.857450002804399" lon="4.496628027409315">
        <ele>482.24000000000001</ele>
        <time>2025-04-24T11:28:04Z</time>
      </trkpt>
      <trkpt lat="45.857472969219089" lon="4.496414037421346">
        <ele>483.19999999999999</ele>
        <time>2025-04-24T11:28:05Z</time>
      </trkpt>
      <trkpt lat="45.85760397836566" lon="4.495353978127241">
        <ele>486.07999999999998</ele>
        <time>2025-04-24T11:28:11Z</time>
      </trkpt>
      <trkpt lat="45.85764697752893" lon="4.494076995179057">
        <ele>485.60000000000002</ele>
        <time>2025-04-24T11:28:18Z</time>
      </trkpt>
      <trkpt lat="45.857694000005722" lon="4.493906004354358">
        <ele>485.12</ele>
        <time>2025-04-24T11:28:19Z</time>
      </trkpt>
      <trkpt lat="45.858114017173648" lon="4.492357028648257">
        <ele>475.50999999999999</ele>
        <time>2025-04-24T11:28:28Z</time>
      </trkpt>
      <trkpt lat="45.858216024935246" lon="4.49221302755177">
        <ele>474.55000000000001</ele>
        <time>2025-04-24T11:28:29Z</time>
      </trkpt>
      <trkpt lat="45.858379974961281" lon="4.491970036178827">
        <ele>472.13999999999999</ele>
        <time>2025-04-24T11:28:31Z</time>
      </trkpt>
      <trkpt lat="45.858494974672794" lon="4.491660995408893">
        <ele>469.74000000000001</ele>
        <time>2025-04-24T11:28:33Z</time>
      </trkpt>
      <trkpt lat="45.858553983271122" lon="4.491500984877348">
        <ele>468.77999999999997</ele>
        <time>2025-04-24T11:28:34Z</time>
      </trkpt>
      <trkpt lat="45.858653979375958" lon="4.491195967420936">
        <ele>465.89999999999998</ele>
        <time>2025-04-24T11:28:36Z</time>
      </trkpt>
      <trkpt lat="45.858665965497494" lon="4.491040986031294">
        <ele>464.93000000000001</ele>
        <time>2025-04-24T11:28:37Z</time>
      </trkpt>
      <trkpt lat="45.858779959380627" lon="4.48952897451818">
        <ele>451.48000000000002</ele>
        <time>2025-04-24T11:28:45Z</time>
      </trkpt>
      <trkpt lat="45.858788006007671" lon="4.489325964823365">
        <ele>449.55000000000001</ele>
        <time>2025-04-24T11:28:46Z</time>
      </trkpt>
      <trkpt lat="45.859050024300814" lon="4.487391002476215">
        <ele>429.85000000000002</ele>
        <time>2025-04-24T11:28:55Z</time>
      </trkpt>
      <trkpt lat="45.859500970691442" lon="4.48583004064858">
        <ele>410.62</ele>
        <time>2025-04-24T11:29:03Z</time>
      </trkpt>
      <trkpt lat="45.859892992302775" lon="4.484366979449987">
        <ele>391.87</ele>
        <time>2025-04-24T11:29:11Z</time>
      </trkpt>
      <trkpt lat="45.859914030879736" lon="4.484217027202249">
        <ele>389.94999999999999</ele>
        <time>2025-04-24T11:29:12Z</time>
      </trkpt>
      <trkpt lat="45.859901960939169" lon="4.484062967821956">
        <ele>388.50999999999999</ele>
        <time>2025-04-24T11:29:13Z</time>
      </trkpt>
      <trkpt lat="45.859868014231324" lon="4.483911003917456">
        <ele>387.06999999999999</ele>
        <time>2025-04-24T11:29:14Z</time>
      </trkpt>
      <trkpt lat="45.859811017289758" lon="4.483746970072389">
        <ele>385.63</ele>
        <time>2025-04-24T11:29:15Z</time>
      </trkpt>
      <trkpt lat="45.859747985377908" lon="4.483568016439676">
        <ele>383.69999999999999</ele>
        <time>2025-04-24T11:29:16Z</time>
      </trkpt>
      <trkpt lat="45.859683025628328" lon="4.48338302783668">
        <ele>382.25999999999999</ele>
        <time>2025-04-24T11:29:17Z</time>
      </trkpt>
      <trkpt lat="45.85957900620997" lon="4.483010033145547">
        <ele>379.38</ele>
        <time>2025-04-24T11:29:19Z</time>
      </trkpt>
      <trkpt lat="45.85936401039362" lon="4.482153989374638">
        <ele>373.61000000000001</ele>
        <time>2025-04-24T11:29:24Z</time>
      </trkpt>
      <trkpt lat="45.858915997669101" lon="4.480595039203763">
        <ele>364.95999999999998</ele>
        <time>2025-04-24T11:29:33Z</time>
      </trkpt>
      <trkpt lat="45.858717011287808" lon="4.479905962944031">
        <ele>364</ele>
        <time>2025-04-24T11:29:37Z</time>
      </trkpt>
      <trkpt lat="45.858659008517861" lon="4.479737989604473">
        <ele>364</ele>
        <time>2025-04-24T11:29:38Z</time>
      </trkpt>
      <trkpt lat="45.858578961342573" lon="4.47960002347827">
        <ele>364</ele>
        <time>2025-04-24T11:29:39Z</time>
      </trkpt>
      <trkpt lat="45.857686959207058" lon="4.478081976994872">
        <ele>366.88</ele>
        <time>2025-04-24T11:29:49Z</time>
      </trkpt>
      <trkpt lat="45.857405997812748" lon="4.477588031440973">
        <ele>368.80000000000001</ele>
        <time>2025-04-24T11:29:53Z</time>
      </trkpt>
      <trkpt lat="45.857351012527943" lon="4.477445036172867">
        <ele>369.27999999999997</ele>
        <time>2025-04-24T11:29:54Z</time>
      </trkpt>
      <trkpt lat="45.857263002544641" lon="4.47717497125268">
        <ele>368.80000000000001</ele>
        <time>2025-04-24T11:29:56Z</time>
      </trkpt>
      <trkpt lat="45.857239030301571" lon="4.477047985419631">
        <ele>368.80000000000001</ele>
        <time>2025-04-24T11:29:57Z</time>
      </trkpt>
      <trkpt lat="45.85721698589623" lon="4.47678797878325">
        <ele>368.31999999999999</ele>
        <time>2025-04-24T11:29:59Z</time>
      </trkpt>
      <trkpt lat="45.857222015038133" lon="4.47665898129344">
        <ele>368.31999999999999</ele>
        <time>2025-04-24T11:30:00Z</time>
      </trkpt>
      <trkpt lat="45.857252022251487" lon="4.475811989977956">
        <ele>367.83999999999997</ele>
        <time>2025-04-24T11:30:07Z</time>
      </trkpt>
      <trkpt lat="45.857253028079867" lon="4.475693972781301">
        <ele>367.83999999999997</ele>
        <time>2025-04-24T11:30:08Z</time>
      </trkpt>
      <trkpt lat="45.857226960361004" lon="4.475580984726548">
        <ele>367.83999999999997</ele>
        <time>2025-04-24T11:30:09Z</time>
      </trkpt>
      <trkpt lat="45.857030991464853" lon="4.474701974540949">
        <ele>371.20999999999998</ele>
        <time>2025-04-24T11:30:16Z</time>
      </trkpt>
      <trkpt lat="45.857034008949995" lon="4.474582029506564">
        <ele>372.64999999999998</ele>
        <time>2025-04-24T11:30:17Z</time>
      </trkpt>
      <trkpt lat="45.857058987021446" lon="4.47444599121809">
        <ele>373.13</ele>
        <time>2025-04-24T11:30:18Z</time>
      </trkpt>
      <trkpt lat="45.85708798840642" lon="4.474301990121603">
        <ele>373.61000000000001</ele>
        <time>2025-04-24T11:30:19Z</time>
      </trkpt>
      <trkpt lat="45.857156971469522" lon="4.474157989025116">
        <ele>374.08999999999997</ele>
        <time>2025-04-24T11:30:20Z</time>
      </trkpt>
      <trkpt lat="45.857226038351655" lon="4.474009964615107">
        <ele>374.56999999999999</ele>
        <time>2025-04-24T11:30:21Z</time>
      </trkpt>
      <trkpt lat="45.857296027243137" lon="4.47386302985251">
        <ele>375.05000000000001</ele>
        <time>2025-04-24T11:30:22Z</time>
      </trkpt>
      <trkpt lat="45.857916958630085" lon="4.472543969750404">
        <ele>378.89999999999998</ele>
        <time>2025-04-24T11:30:31Z</time>
      </trkpt>
      <trkpt lat="45.858735032379627" lon="4.470804976299405">
        <ele>386.58999999999997</ele>
        <time>2025-04-24T11:30:42Z</time>
      </trkpt>
      <trkpt lat="45.858951034024358" lon="4.47034397162497">
        <ele>388.50999999999999</ele>
        <time>2025-04-24T11:30:45Z</time>
      </trkpt>
      <trkpt lat="45.858994033187628" lon="4.470196031033993">
        <ele>388.50999999999999</ele>
        <time>2025-04-24T11:30:46Z</time>
      </trkpt>
      <trkpt lat="45.859024962410331" lon="4.470049012452364">
        <ele>388.99000000000001</ele>
        <time>2025-04-24T11:30:47Z</time>
      </trkpt>
      <trkpt lat="45.859073996543884" lon="4.469820018857718">
        <ele>388.99000000000001</ele>
        <time>2025-04-24T11:30:49Z</time>
      </trkpt>
      <trkpt lat="45.859229983761907" lon="4.469739971682429">
        <ele>388.99000000000001</ele>
        <time>2025-04-24T11:30:50Z</time>
      </trkpt>
      <trkpt lat="45.859229983761907" lon="4.469739971682429">
        <ele>388.99000000000001</ele>
        <time>2025-04-24T11:30:51Z</time>
      </trkpt>
      <trkpt lat="45.859297038987279" lon="4.469764027744532">
        <ele>389.47000000000003</ele>
        <time>2025-04-24T11:30:52Z</time>
      </trkpt>
      <trkpt lat="45.859383037313819" lon="4.469795040786266">
        <ele>389.47000000000003</ele>
        <time>2025-04-24T11:30:53Z</time>
      </trkpt>
      <trkpt lat="45.859538018703461" lon="4.469851031899452">
        <ele>389.94999999999999</ele>
        <time>2025-04-24T11:30:55Z</time>
      </trkpt>
      <trkpt lat="45.859604990109801" lon="4.469875004142523">
        <ele>390.43000000000001</ele>
        <time>2025-04-24T11:30:56Z</time>
      </trkpt>
      <trkpt lat="45.859765000641346" lon="4.469915991649032">
        <ele>391.87</ele>
        <time>2025-04-24T11:31:03Z</time>
      </trkpt>
      <trkpt lat="45.859758965671062" lon="4.469861006364226">
        <ele>391.38999999999999</ele>
        <time>2025-04-24T11:31:04Z</time>
      </trkpt>
      <trkpt lat="45.859749997034669" lon="4.469770984724164">
        <ele>391.38999999999999</ele>
        <time>2025-04-24T11:31:05Z</time>
      </trkpt>
      <trkpt lat="45.859654024243355" lon="4.46849400177598">
        <ele>391.87</ele>
        <time>2025-04-24T11:31:14Z</time>
      </trkpt>
      <trkpt lat="45.85964497178793" lon="4.468328962102532">
        <ele>392.36000000000001</ele>
        <time>2025-04-24T11:31:15Z</time>
      </trkpt>
      <trkpt lat="45.859591998159885" lon="4.468037020415068">
        <ele>392.83999999999997</ele>
        <time>2025-04-24T11:31:17Z</time>
      </trkpt>
      <trkpt lat="45.859552016481757" lon="4.467895030975342">
        <ele>393.31999999999999</ele>
        <time>2025-04-24T11:31:18Z</time>
      </trkpt>
      <trkpt lat="45.859484039247036" lon="4.467793023213744">
        <ele>393.80000000000001</ele>
        <time>2025-04-24T11:31:19Z</time>
      </trkpt>
      <trkpt lat="45.859411032870412" lon="4.467682968825102">
        <ele>393.80000000000001</ele>
        <time>2025-04-24T11:31:20Z</time>
      </trkpt>
      <trkpt lat="45.859337020665407" lon="4.467572998255491">
        <ele>393.80000000000001</ele>
        <time>2025-04-24T11:31:21Z</time>
      </trkpt>
      <trkpt lat="45.858880961313844" lon="4.467166978865862">
        <ele>395.24000000000001</ele>
        <time>2025-04-24T11:31:26Z</time>
      </trkpt>
      <trkpt lat="45.858788006007671" lon="4.467085003852844">
        <ele>395.72000000000003</ele>
        <time>2025-04-24T11:31:27Z</time>
      </trkpt>
      <trkpt lat="45.858171014115214" lon="4.466568008065224">
        <ele>398.12</ele>
        <time>2025-04-24T11:31:33Z</time>
      </trkpt>
      <trkpt lat="45.858091972768307" lon="4.466440016403794">
        <ele>398.60000000000002</ele>
        <time>2025-04-24T11:31:34Z</time>
      </trkpt>
      <trkpt lat="45.858017038553953" lon="4.466317975893617">
        <ele>399.07999999999998</ele>
        <time>2025-04-24T11:31:35Z</time>
      </trkpt>
      <trkpt lat="45.857701040804386" lon="4.465862000361085">
        <ele>400.05000000000001</ele>
        <time>2025-04-24T11:31:39Z</time>
      </trkpt>
      <trkpt lat="45.857627028599381" lon="4.465771978721023">
        <ele>400.52999999999997</ele>
        <time>2025-04-24T11:31:40Z</time>
      </trkpt>
      <trkpt lat="45.857557039707899" lon="4.465693021193147">
        <ele>400.52999999999997</ele>
        <time>2025-04-24T11:31:41Z</time>
      </trkpt>
      <trkpt lat="45.857494007796049" lon="4.465621020644903">
        <ele>401.00999999999999</ele>
        <time>2025-04-24T11:31:42Z</time>
      </trkpt>
      <trkpt lat="45.857437010854483" lon="4.465556982904673">
        <ele>401.00999999999999</ele>
        <time>2025-04-24T11:31:43Z</time>
      </trkpt>
      <trkpt lat="45.857379008084536" lon="4.465490011498332">
        <ele>401.00999999999999</ele>
        <time>2025-04-24T11:31:44Z</time>
      </trkpt>
      <trkpt lat="45.857179015874863" lon="4.465261017903686">
        <ele>401.97000000000003</ele>
        <time>2025-04-24T11:31:47Z</time>
      </trkpt>
      <trkpt lat="45.857114978134632" lon="4.465178959071636">
        <ele>401.97000000000003</ele>
        <time>2025-04-24T11:31:48Z</time>
      </trkpt>
      <trkpt lat="45.85698296315968" lon="4.465007968246937">
        <ele>402.93000000000001</ele>
        <time>2025-04-24T11:31:50Z</time>
      </trkpt>
      <trkpt lat="45.856649028137326" lon="4.464575964957476">
        <ele>405.81</ele>
        <time>2025-04-24T11:31:55Z</time>
      </trkpt>
      <trkpt lat="45.856565041467547" lon="4.464468006044626">
        <ele>405.81</ele>
        <time>2025-04-24T11:31:56Z</time>
      </trkpt>
      <trkpt lat="45.856478037312627" lon="4.464355017989874">
        <ele>406.29000000000002</ele>
        <time>2025-04-24T11:31:57Z</time>
      </trkpt>
      <trkpt lat="45.856382986530662" lon="4.464232977479696">
        <ele>406.76999999999998</ele>
        <time>2025-04-24T11:31:58Z</time>
      </trkpt>
      <trkpt lat="45.856269998475909" lon="4.464086964726448">
        <ele>406.76999999999998</ele>
        <time>2025-04-24T11:31:59Z</time>
      </trkpt>
      <trkpt lat="45.856136977672577" lon="4.46393902413547">
        <ele>406.76999999999998</ele>
        <time>2025-04-24T11:32:00Z</time>
      </trkpt>
      <trkpt lat="45.855981996282935" lon="4.463893007487059">
        <ele>406.76999999999998</ele>
        <time>2025-04-24T11:32:01Z</time>
      </trkpt>
      <trkpt lat="45.855808993801475" lon="4.463876998052001">
        <ele>406.76999999999998</ele>
        <time>2025-04-24T11:32:02Z</time>
      </trkpt>
      <trkpt lat="45.855632973834872" lon="4.463870963081718">
        <ele>406.76999999999998</ele>
        <time>2025-04-24T11:32:03Z</time>
      </trkpt>
      <trkpt lat="45.85528202354908" lon="4.463825030252338">
        <ele>406.29000000000002</ele>
        <time>2025-04-24T11:32:05Z</time>
      </trkpt>
      <trkpt lat="45.85511103272438" lon="4.463768033310771">
        <ele>406.29000000000002</ele>
        <time>2025-04-24T11:32:06Z</time>
      </trkpt>
      <trkpt lat="45.854790005832911" lon="4.463691003620625">
        <ele>406.76999999999998</ele>
        <time>2025-04-24T11:32:08Z</time>
      </trkpt>
      <trkpt lat="45.854624966159463" lon="4.463653033599258">
        <ele>407.25999999999999</ele>
        <time>2025-04-24T11:32:09Z</time>
      </trkpt>
      <trkpt lat="45.854454981163144" lon="4.463677005842328">
        <ele>407.74000000000001</ele>
        <time>2025-04-24T11:32:10Z</time>
      </trkpt>
      <trkpt lat="45.854288013651967" lon="4.463712964206934">
        <ele>408.22000000000003</ele>
        <time>2025-04-24T11:32:11Z</time>
      </trkpt>
      <trkpt lat="45.854130014777184" lon="4.46374699473381">
        <ele>408.69999999999999</ele>
        <time>2025-04-24T11:32:12Z</time>
      </trkpt>
      <trkpt lat="45.853980984538794" lon="4.463779013603926">
        <ele>409.18000000000001</ele>
        <time>2025-04-24T11:32:13Z</time>
      </trkpt>
      <trkpt lat="45.853844024240971" lon="4.46380902081728">
        <ele>409.66000000000003</ele>
        <time>2025-04-24T11:32:14Z</time>
      </trkpt>
      <trkpt lat="45.853713015094399" lon="4.463799968361855">
        <ele>410.62</ele>
        <time>2025-04-24T11:32:15Z</time>
      </trkpt>
      <trkpt lat="45.853596003726125" lon="4.463777001947165">
        <ele>411.10000000000002</ele>
        <time>2025-04-24T11:32:16Z</time>
      </trkpt>
      <trkpt lat="45.853514028713107" lon="4.463676000013948">
        <ele>411.57999999999998</ele>
        <time>2025-04-24T11:32:17Z</time>
      </trkpt>
      <trkpt lat="45.853415038436651" lon="4.463539039716125">
        <ele>412.06</ele>
        <time>2025-04-24T11:32:18Z</time>
      </trkpt>
      <trkpt lat="45.853363992646337" lon="4.46338196285069">
        <ele>412.54000000000002</ele>
        <time>2025-04-24T11:32:19Z</time>
      </trkpt>
      <trkpt lat="45.853299032896757" lon="4.463184988126159">
        <ele>413.01999999999998</ele>
        <time>2025-04-24T11:32:20Z</time>
      </trkpt>
      <trkpt lat="45.853084037080407" lon="4.462527008727193">
        <ele>413.98000000000002</ele>
        <time>2025-04-24T11:32:23Z</time>
      </trkpt>
      <trkpt lat="45.852993009611964" lon="4.462320981547236">
        <ele>414.47000000000003</ele>
        <time>2025-04-24T11:32:24Z</time>
      </trkpt>
      <trkpt lat="45.852863006293774" lon="4.462144961580634">
        <ele>414.94999999999999</ele>
        <time>2025-04-24T11:32:25Z</time>
      </trkpt>
      <trkpt lat="45.852710958570242" lon="4.461981011554599">
        <ele>415.43000000000001</ele>
        <time>2025-04-24T11:32:26Z</time>
      </trkpt>
      <trkpt lat="45.852552959695458" lon="4.461812032386661">
        <ele>415.43000000000001</ele>
        <time>2025-04-24T11:32:27Z</time>
      </trkpt>
      <trkpt lat="45.851315958425403" lon="4.460732024163008">
        <ele>417.35000000000002</ele>
        <time>2025-04-24T11:32:34Z</time>
      </trkpt>
      <trkpt lat="45.851142033934593" lon="4.460562039166689">
        <ele>417.35000000000002</ele>
        <time>2025-04-24T11:32:35Z</time>
      </trkpt>
      <trkpt lat="45.85098504088819" lon="4.46037202142179">
        <ele>417.82999999999998</ele>
        <time>2025-04-24T11:32:36Z</time>
      </trkpt>
      <trkpt lat="45.850237039849162" lon="4.459567023441196">
        <ele>418.79000000000002</ele>
        <time>2025-04-24T11:32:41Z</time>
      </trkpt>
      <trkpt lat="45.850102007389069" lon="4.459438025951386">
        <ele>418.79000000000002</ele>
        <time>2025-04-24T11:32:42Z</time>
      </trkpt>
      <trkpt lat="45.849934034049511" lon="4.459369964897633">
        <ele>419.26999999999998</ele>
        <time>2025-04-24T11:32:43Z</time>
      </trkpt>
      <trkpt lat="45.849772011861205" lon="4.459345992654562">
        <ele>419.75</ele>
        <time>2025-04-24T11:32:44Z</time>
      </trkpt>
      <trkpt lat="45.849600015208125" lon="4.459335012361407">
        <ele>420.23000000000002</ele>
        <time>2025-04-24T11:32:45Z</time>
      </trkpt>
      <trkpt lat="45.849427012726665" lon="4.459323026239872">
        <ele>420.70999999999998</ele>
        <time>2025-04-24T11:32:46Z</time>
      </trkpt>
      <trkpt lat="45.848119016736746" lon="4.459152035415173">
        <ele>424.07999999999998</ele>
        <time>2025-04-24T11:32:53Z</time>
      </trkpt>
      <trkpt lat="45.84793696179986" lon="4.459081962704659">
        <ele>425.04000000000002</ele>
        <time>2025-04-24T11:32:54Z</time>
      </trkpt>
      <trkpt lat="45.847774017602205" lon="4.458949025720358">
        <ele>425.51999999999998</ele>
        <time>2025-04-24T11:32:55Z</time>
      </trkpt>
      <trkpt lat="45.847651977092028" lon="4.45876001380384">
        <ele>426.48000000000002</ele>
        <time>2025-04-24T11:32:56Z</time>
      </trkpt>
      <trkpt lat="45.847525997087359" lon="4.458563039079309">
        <ele>427.44</ele>
        <time>2025-04-24T11:32:57Z</time>
      </trkpt>
      <trkpt lat="45.847414014860988" lon="4.458358017727733">
        <ele>427.92000000000002</ele>
        <time>2025-04-24T11:32:58Z</time>
      </trkpt>
      <trkpt lat="45.847341008484364" lon="4.45809499360621">
        <ele>428.88999999999999</ele>
        <time>2025-04-24T11:32:59Z</time>
      </trkpt>
      <trkpt lat="45.847263978794217" lon="4.457819983363152">
        <ele>429.85000000000002</ele>
        <time>2025-04-24T11:33:00Z</time>
      </trkpt>
      <trkpt lat="45.847186027094722" lon="4.45753701031208">
        <ele>430.32999999999998</ele>
        <time>2025-04-24T11:33:01Z</time>
      </trkpt>
      <trkpt lat="45.846999026834965" lon="4.457038035616279">
        <ele>432.25</ele>
        <time>2025-04-24T11:33:03Z</time>
      </trkpt>
      <trkpt lat="45.846870029345155" lon="4.456823039799929">
        <ele>432.73000000000002</ele>
        <time>2025-04-24T11:33:04Z</time>
      </trkpt>
      <trkpt lat="45.846713036298752" lon="4.456680966541171">
        <ele>433.20999999999998</ele>
        <time>2025-04-24T11:33:05Z</time>
      </trkpt>
      <trkpt lat="45.84653802216053" lon="4.456576025113463">
        <ele>434.17000000000002</ele>
        <time>2025-04-24T11:33:06Z</time>
      </trkpt>
      <trkpt lat="45.846349010244012" lon="4.456490026786923">
        <ele>435.13</ele>
        <time>2025-04-24T11:33:07Z</time>
      </trkpt>
      <trkpt lat="45.846154969185591" lon="4.4563979934901">
        <ele>435.61000000000001</ele>
        <time>2025-04-24T11:33:08Z</time>
      </trkpt>
      <trkpt lat="45.845966963097453" lon="4.456287017092109">
        <ele>436.57999999999998</ele>
        <time>2025-04-24T11:33:09Z</time>
      </trkpt>
      <trkpt lat="45.844173990190029" lon="4.455296024680138">
        <ele>443.79000000000002</ele>
        <time>2025-04-24T11:33:18Z</time>
      </trkpt>
      <trkpt lat="45.842596013098955" lon="4.454402010887861">
        <ele>449.06999999999999</ele>
        <time>2025-04-24T11:33:26Z</time>
      </trkpt>
      <trkpt lat="45.842034006491303" lon="4.454046031460166">
        <ele>451</ele>
        <time>2025-04-24T11:33:29Z</time>
      </trkpt>
      <trkpt lat="45.841867960989475" lon="4.453914016485214">
        <ele>451.95999999999998</ele>
        <time>2025-04-24T11:33:30Z</time>
      </trkpt>
      <trkpt lat="45.841732006520033" lon="4.453728022053838">
        <ele>452.92000000000002</ele>
        <time>2025-04-24T11:33:31Z</time>
      </trkpt>
      <trkpt lat="45.841636033728719" lon="4.453505985438824">
        <ele>453.88</ele>
        <time>2025-04-24T11:33:32Z</time>
      </trkpt>
      <trkpt lat="45.841537965461612" lon="4.453271040692926">
        <ele>454.83999999999997</ele>
        <time>2025-04-24T11:33:33Z</time>
      </trkpt>
      <trkpt lat="45.841458002105355" lon="4.453040035441518">
        <ele>456.27999999999997</ele>
        <time>2025-04-24T11:33:34Z</time>
      </trkpt>
      <trkpt lat="45.841431012377143" lon="4.45276795886457">
        <ele>458.20999999999998</ele>
        <time>2025-04-24T11:33:35Z</time>
      </trkpt>
      <trkpt lat="45.841426989063621" lon="4.452480040490627">
        <ele>459.64999999999998</ele>
        <time>2025-04-24T11:33:36Z</time>
      </trkpt>
      <trkpt lat="45.841438975185156" lon="4.452178040519357">
        <ele>461.08999999999997</ele>
        <time>2025-04-24T11:33:37Z</time>
      </trkpt>
      <trkpt lat="45.841450039297342" lon="4.451876962557435">
        <ele>462.52999999999997</ele>
        <time>2025-04-24T11:33:38Z</time>
      </trkpt>
      <trkpt lat="45.841484991833568" lon="4.450965011492372">
        <ele>465.89999999999998</ele>
        <time>2025-04-24T11:33:41Z</time>
      </trkpt>
      <trkpt lat="45.841424977406859" lon="4.450694024562836">
        <ele>467.33999999999997</ele>
        <time>2025-04-24T11:33:42Z</time>
      </trkpt>
      <trkpt lat="45.841355994343758" lon="4.450385989621282">
        <ele>468.30000000000001</ele>
        <time>2025-04-24T11:33:43Z</time>
      </trkpt>
      <trkpt lat="45.841245017945766" lon="4.450176022946835">
        <ele>469.25999999999999</ele>
        <time>2025-04-24T11:33:44Z</time>
      </trkpt>
      <trkpt lat="45.841116020455956" lon="4.449942000210285">
        <ele>470.22000000000003</ele>
        <time>2025-04-24T11:33:45Z</time>
      </trkpt>
      <trkpt lat="45.840967996045947" lon="4.449736978858709">
        <ele>471.18000000000001</ele>
        <time>2025-04-24T11:33:46Z</time>
      </trkpt>
      <trkpt lat="45.840532975271344" lon="4.449133984744549">
        <ele>474.55000000000001</ele>
        <time>2025-04-24T11:33:49Z</time>
      </trkpt>
      <trkpt lat="45.840381011366844" lon="4.448959976434708">
        <ele>475.50999999999999</ele>
        <time>2025-04-24T11:33:50Z</time>
      </trkpt>
      <trkpt lat="45.840209014713764" lon="4.448861991986632">
        <ele>476.47000000000003</ele>
        <time>2025-04-24T11:33:51Z</time>
      </trkpt>
      <trkpt lat="45.840038023889065" lon="4.448798960074782">
        <ele>477.43000000000001</ele>
        <time>2025-04-24T11:33:52Z</time>
      </trkpt>
      <trkpt lat="45.839882036671042" lon="4.448755038902164">
        <ele>478.38999999999999</ele>
        <time>2025-04-24T11:33:53Z</time>
      </trkpt>
      <trkpt lat="45.839730994775891" lon="4.448742968961597">
        <ele>478.87</ele>
        <time>2025-04-24T11:33:54Z</time>
      </trkpt>
      <trkpt lat="45.839076032862067" lon="4.448657976463437">
        <ele>481.27999999999997</ele>
        <time>2025-04-24T11:33:59Z</time>
      </trkpt>
      <trkpt lat="45.838951980695128" lon="4.448603997007012">
        <ele>481.75999999999999</ele>
        <time>2025-04-24T11:34:00Z</time>
      </trkpt>
      <trkpt lat="45.838823989033699" lon="4.448549011722207">
        <ele>482.72000000000003</ele>
        <time>2025-04-24T11:34:01Z</time>
      </trkpt>
      <trkpt lat="45.83871603012085" lon="4.448381960391998">
        <ele>483.19999999999999</ele>
        <time>2025-04-24T11:34:02Z</time>
      </trkpt>
      <trkpt lat="45.838620979338884" lon="4.448207030072808">
        <ele>483.68000000000001</ele>
        <time>2025-04-24T11:34:03Z</time>
      </trkpt>
      <trkpt lat="45.83852500654757" lon="4.448019023984671">
        <ele>484.63999999999999</ele>
        <time>2025-04-24T11:34:04Z</time>
      </trkpt>
      <trkpt lat="45.838436996564269" lon="4.447796987369657">
        <ele>485.12</ele>
        <time>2025-04-24T11:34:05Z</time>
      </trkpt>
      <trkpt lat="45.838344963267446" lon="4.447568999603391">
        <ele>486.07999999999998</ele>
        <time>2025-04-24T11:34:06Z</time>
      </trkpt>
      <trkpt lat="45.838243961334229" lon="4.447317039594054">
        <ele>487.05000000000001</ele>
        <time>2025-04-24T11:34:07Z</time>
      </trkpt>
      <trkpt lat="45.838139019906521" lon="4.447148982435465">
        <ele>488.00999999999999</ele>
        <time>2025-04-24T11:34:08Z</time>
      </trkpt>
      <trkpt lat="45.837973980233073" lon="4.44703096523881">
        <ele>488.49000000000001</ele>
        <time>2025-04-24T11:34:09Z</time>
      </trkpt>
      <trkpt lat="45.837811036035419" lon="4.446924012154341">
        <ele>489.93000000000001</ele>
        <time>2025-04-24T11:34:10Z</time>
      </trkpt>
      <trkpt lat="45.837645996361971" lon="4.446818986907601">
        <ele>490.88999999999999</ele>
        <time>2025-04-24T11:34:11Z</time>
      </trkpt>
      <trkpt lat="45.83704300224781" lon="4.446415985003114">
        <ele>494.74000000000001</ele>
        <time>2025-04-24T11:34:15Z</time>
      </trkpt>
      <trkpt lat="45.83693403750658" lon="4.44623501971364">
        <ele>495.69999999999999</ele>
        <time>2025-04-24T11:34:16Z</time>
      </trkpt>
      <trkpt lat="45.836834963411093" lon="4.446066040545702">
        <ele>496.66000000000003</ele>
        <time>2025-04-24T11:34:17Z</time>
      </trkpt>
      <trkpt lat="45.836758017539978" lon="4.445876022800803">
        <ele>497.62</ele>
        <time>2025-04-24T11:34:18Z</time>
      </trkpt>
      <trkpt lat="45.836728010326624" lon="4.445638982579112">
        <ele>498.57999999999998</ele>
        <time>2025-04-24T11:34:19Z</time>
      </trkpt>
      <trkpt lat="45.836694985628128" lon="4.445379981771112">
        <ele>499.06</ele>
        <time>2025-04-24T11:34:20Z</time>
      </trkpt>
      <trkpt lat="45.836660033091903" lon="4.445103965699673">
        <ele>499.06</ele>
        <time>2025-04-24T11:34:21Z</time>
      </trkpt>
      <trkpt lat="45.83656900562346" lon="4.444561991840601">
        <ele>499.54000000000002</ele>
        <time>2025-04-24T11:34:23Z</time>
      </trkpt>
      <trkpt lat="45.836482001468539" lon="4.444308020174503">
        <ele>500.01999999999998</ele>
        <time>2025-04-24T11:34:24Z</time>
      </trkpt>
      <trkpt lat="45.835181968286633" lon="4.4417679682374">
        <ele>505.79000000000002</ele>
        <time>2025-04-24T11:34:34Z</time>
      </trkpt>
      <trkpt lat="45.834423992782831" lon="4.44019703194499">
        <ele>509.16000000000003</ele>
        <time>2025-04-24T11:34:41Z</time>
      </trkpt>
      <trkpt lat="45.834412006661296" lon="4.439982958137989">
        <ele>509.63999999999999</ele>
        <time>2025-04-24T11:34:42Z</time>
      </trkpt>
      <trkpt lat="45.834416029974818" lon="4.439755976200104">
        <ele>510.12</ele>
        <time>2025-04-24T11:34:43Z</time>
      </trkpt>
      <trkpt lat="45.834457017481327" lon="4.439524970948696">
        <ele>511.07999999999998</ele>
        <time>2025-04-24T11:34:44Z</time>
      </trkpt>
      <trkpt lat="45.834535975009203" lon="4.439293965697289">
        <ele>511.56</ele>
        <time>2025-04-24T11:34:45Z</time>
      </trkpt>
      <trkpt lat="45.834625996649265" lon="4.439066983759403">
        <ele>512.03999999999996</ele>
        <time>2025-04-24T11:34:46Z</time>
      </trkpt>
      <trkpt lat="45.834724986925721" lon="4.438819969072938">
        <ele>513</ele>
        <time>2025-04-24T11:34:47Z</time>
      </trkpt>
      <trkpt lat="45.83510703407228" lon="4.437885973602533">
        <ele>515.39999999999998</ele>
        <time>2025-04-24T11:34:51Z</time>
      </trkpt>
      <trkpt lat="45.835161013528705" lon="4.437624039128423">
        <ele>515.88</ele>
        <time>2025-04-24T11:34:52Z</time>
      </trkpt>
      <trkpt lat="45.835211975499988" lon="4.437058009207249">
        <ele>518.28999999999996</ele>
        <time>2025-04-24T11:34:54Z</time>
      </trkpt>
      <trkpt lat="45.835303002968431" lon="4.435654040426016">
        <ele>523.09000000000003</ele>
        <time>2025-04-24T11:34:59Z</time>
      </trkpt>
      <trkpt lat="45.835348013788462" lon="4.43538598716259">
        <ele>524.05999999999995</ele>
        <time>2025-04-24T11:35:00Z</time>
      </trkpt>
      <trkpt lat="45.835454966872931" lon="4.434607978910208">
        <ele>526.94000000000005</ele>
        <time>2025-04-24T11:35:03Z</time>
      </trkpt>
      <trkpt lat="45.835454966872931" lon="4.434361970052123">
        <ele>528.38</ele>
        <time>2025-04-24T11:35:04Z</time>
      </trkpt>
      <trkpt lat="45.835413979366422" lon="4.434130964800715">
        <ele>529.34000000000003</ele>
        <time>2025-04-24T11:35:05Z</time>
      </trkpt>
      <trkpt lat="45.835355976596475" lon="4.433898031711578">
        <ele>530.29999999999995</ele>
        <time>2025-04-24T11:35:06Z</time>
      </trkpt>
      <trkpt lat="45.835262015461922" lon="4.433685969561338">
        <ele>531.75</ele>
        <time>2025-04-24T11:35:07Z</time>
      </trkpt>
      <trkpt lat="45.835031010210514" lon="4.433270981535316">
        <ele>534.14999999999998</ele>
        <time>2025-04-24T11:35:09Z</time>
      </trkpt>
      <trkpt lat="45.834907963871956" lon="4.433070989325643">
        <ele>535.11000000000001</ele>
        <time>2025-04-24T11:35:10Z</time>
      </trkpt>
      <trkpt lat="45.834789024665952" lon="4.432878037914634">
        <ele>536.07000000000005</ele>
        <time>2025-04-24T11:35:11Z</time>
      </trkpt>
      <trkpt lat="45.834682993590832" lon="4.432705035433173">
        <ele>537.02999999999997</ele>
        <time>2025-04-24T11:35:12Z</time>
      </trkpt>
      <trkpt lat="45.834557013586164" lon="4.432566985487938">
        <ele>537.99000000000001</ele>
        <time>2025-04-24T11:35:13Z</time>
      </trkpt>
      <trkpt lat="45.834428016096354" lon="4.432438993826509">
        <ele>538.96000000000004</ele>
        <time>2025-04-24T11:35:14Z</time>
      </trkpt>
      <trkpt lat="45.834279991686344" lon="4.432331034913659">
        <ele>539.91999999999996</ele>
        <time>2025-04-24T11:35:15Z</time>
      </trkpt>
      <trkpt lat="45.834145965054631" lon="4.432231960818172">
        <ele>541.36000000000001</ele>
        <time>2025-04-24T11:35:16Z</time>
      </trkpt>
      <trkpt lat="45.833722008392215" lon="4.431737009435892">
        <ele>545.20000000000005</ele>
        <time>2025-04-24T11:35:19Z</time>
      </trkpt>
      <trkpt lat="45.83360499702394" lon="4.431549003347755">
        <ele>546.64999999999998</ele>
        <time>2025-04-24T11:35:20Z</time>
      </trkpt>
      <trkpt lat="45.833483962342143" lon="4.431352028623223">
        <ele>547.61000000000001</ele>
        <time>2025-04-24T11:35:21Z</time>
      </trkpt>
      <trkpt lat="45.833352031186223" lon="4.431138960644603">
        <ele>549.04999999999995</ele>
        <time>2025-04-24T11:35:22Z</time>
      </trkpt>
      <trkpt lat="45.833206018432975" lon="4.430919019505382">
        <ele>550.00999999999999</ele>
        <time>2025-04-24T11:35:23Z</time>
      </trkpt>
      <trkpt lat="45.832721963524818" lon="4.430333962664008">
        <ele>553.38</ele>
        <time>2025-04-24T11:35:26Z</time>
      </trkpt>
      <trkpt lat="45.832403032109141" lon="4.429947976022959">
        <ele>555.29999999999995</ele>
        <time>2025-04-24T11:35:28Z</time>
      </trkpt>
      <trkpt lat="45.832278979942203" lon="4.42975502461195">
        <ele>556.25999999999999</ele>
        <time>2025-04-24T11:35:29Z</time>
      </trkpt>
      <trkpt lat="45.832175966352224" lon="4.429527958855033">
        <ele>557.22000000000003</ele>
        <time>2025-04-24T11:35:30Z</time>
      </trkpt>
      <trkpt lat="45.832076976075768" lon="4.429308017715812">
        <ele>558.17999999999995</ele>
        <time>2025-04-24T11:35:31Z</time>
      </trkpt>
      <trkpt lat="45.832011010497808" lon="4.429067960008979">
        <ele>558.65999999999997</ele>
        <time>2025-04-24T11:35:32Z</time>
      </trkpt>
      <trkpt lat="45.831987038254738" lon="4.428795967251062">
        <ele>559.62</ele>
        <time>2025-04-24T11:35:33Z</time>
      </trkpt>
      <trkpt lat="45.831962982192636" lon="4.428522968664765">
        <ele>560.11000000000001</ele>
        <time>2025-04-24T11:35:34Z</time>
      </trkpt>
      <trkpt lat="45.831880001351237" lon="4.428032962605357">
        <ele>562.50999999999999</ele>
        <time>2025-04-24T11:35:36Z</time>
      </trkpt>
      <trkpt lat="45.831806994974613" lon="4.427790977060795">
        <ele>563.95000000000005</ele>
        <time>2025-04-24T11:35:37Z</time>
      </trkpt>
      <trkpt lat="45.831711022183299" lon="4.427589979022741">
        <ele>565.38999999999999</ele>
        <time>2025-04-24T11:35:38Z</time>
      </trkpt>
      <trkpt lat="45.831410028040409" lon="4.42706803791225">
        <ele>569.24000000000001</ele>
        <time>2025-04-24T11:35:41Z</time>
      </trkpt>
      <trkpt lat="45.831313971430063" lon="4.426931999623776">
        <ele>570.20000000000005</ele>
        <time>2025-04-24T11:35:42Z</time>
      </trkpt>
      <trkpt lat="45.831192014738917" lon="4.426914984360337">
        <ele>571.15999999999997</ele>
        <time>2025-04-24T11:35:43Z</time>
      </trkpt>
      <trkpt lat="45.831053964793682" lon="4.426929987967014">
        <ele>572.60000000000002</ele>
        <time>2025-04-24T11:35:44Z</time>
      </trkpt>
      <trkpt lat="45.830903006717563" lon="4.426956977695227">
        <ele>573.55999999999995</ele>
        <time>2025-04-24T11:35:45Z</time>
      </trkpt>
      <trkpt lat="45.830744002014399" lon="4.426970975473523">
        <ele>574.52999999999997</ele>
        <time>2025-04-24T11:35:46Z</time>
      </trkpt>
      <trkpt lat="45.830579968169332" lon="4.426955971866846">
        <ele>575.49000000000001</ele>
        <time>2025-04-24T11:35:47Z</time>
      </trkpt>
      <trkpt lat="45.830305041745305" lon="4.426931999623776">
        <ele>576.92999999999995</ele>
        <time>2025-04-24T11:35:49Z</time>
      </trkpt>
      <trkpt lat="45.830143019556999" lon="4.426816999912262">
        <ele>577.88999999999999</ele>
        <time>2025-04-24T11:35:50Z</time>
      </trkpt>
      <trkpt lat="45.828979024663568" lon="4.425831036642194">
        <ele>584.13999999999999</ele>
        <time>2025-04-24T11:35:57Z</time>
      </trkpt>
      <trkpt lat="45.8281259983778" lon="4.425113964825869">
        <ele>588.95000000000005</ele>
        <time>2025-04-24T11:36:02Z</time>
      </trkpt>
      <trkpt lat="45.827999012544751" lon="4.424972981214523">
        <ele>590.38999999999999</ele>
        <time>2025-04-24T11:36:03Z</time>
      </trkpt>
      <trkpt lat="45.827920977026224" lon="4.424779023975134">
        <ele>591.35000000000002</ele>
        <time>2025-04-24T11:36:04Z</time>
      </trkpt>
      <trkpt lat="45.827855011448264" lon="4.424550030380487">
        <ele>592.30999999999995</ele>
        <time>2025-04-24T11:36:05Z</time>
      </trkpt>
      <trkpt lat="45.827784016728401" lon="4.424305027350783">
        <ele>593.75</ele>
        <time>2025-04-24T11:36:06Z</time>
      </trkpt>
      <trkpt lat="45.827642027288675" lon="4.423809992149472">
        <ele>596.63999999999999</ele>
        <time>2025-04-24T11:36:08Z</time>
      </trkpt>
      <trkpt lat="45.827596010640264" lon="4.423564989119768">
        <ele>598.08000000000004</ele>
        <time>2025-04-24T11:36:09Z</time>
      </trkpt>
      <trkpt lat="45.827580001205206" lon="4.423262989148498">
        <ele>599.03999999999996</ele>
        <time>2025-04-24T11:36:10Z</time>
      </trkpt>
      <trkpt lat="45.82763004116714" lon="4.422484980896115">
        <ele>601.91999999999996</ele>
        <time>2025-04-24T11:36:13Z</time>
      </trkpt>
      <trkpt lat="45.827591987326741" lon="4.422223968431354">
        <ele>602.88</ele>
        <time>2025-04-24T11:36:14Z</time>
      </trkpt>
      <trkpt lat="45.827542031183839" lon="4.421963039785624">
        <ele>603.36000000000001</ele>
        <time>2025-04-24T11:36:15Z</time>
      </trkpt>
      <trkpt lat="45.827486040070653" lon="4.4214600417763">
        <ele>604.80999999999995</ele>
        <time>2025-04-24T11:36:17Z</time>
      </trkpt>
      <trkpt lat="45.827478999271989" lon="4.421246973797679">
        <ele>605.76999999999998</ele>
        <time>2025-04-24T11:36:18Z</time>
      </trkpt>
      <trkpt lat="45.827494002878666" lon="4.421014962717891">
        <ele>606.25</ele>
        <time>2025-04-24T11:36:19Z</time>
      </trkpt>
      <trkpt lat="45.827563991770148" lon="4.420816982164979">
        <ele>607.21000000000004</ele>
        <time>2025-04-24T11:36:20Z</time>
      </trkpt>
      <trkpt lat="45.827635992318392" lon="4.420611038804054">
        <ele>607.69000000000005</ele>
        <time>2025-04-24T11:36:21Z</time>
      </trkpt>
      <trkpt lat="45.827712016180158" lon="4.420395959168673">
        <ele>608.64999999999998</ele>
        <time>2025-04-24T11:36:22Z</time>
      </trkpt>
      <trkpt lat="45.827800026163459" lon="4.420168977230787">
        <ele>609.13</ele>
        <time>2025-04-24T11:36:23Z</time>
      </trkpt>
      <trkpt lat="45.828594965860248" lon="4.418586976826191">
        <ele>616.34000000000003</ele>
        <time>2025-04-24T11:36:30Z</time>
      </trkpt>
      <trkpt lat="45.828739972785115" lon="4.418396959081292">
        <ele>616.82000000000005</ele>
        <time>2025-04-24T11:36:31Z</time>
      </trkpt>
      <trkpt lat="45.830186018720269" lon="4.417334971949458">
        <ele>621.14999999999998</ele>
        <time>2025-04-24T11:36:39Z</time>
      </trkpt>
      <trkpt lat="45.831038039177656" lon="4.416755028069019">
        <ele>623.54999999999995</ele>
        <time>2025-04-24T11:36:44Z</time>
      </trkpt>
      <trkpt lat="45.831265021115541" lon="4.416510025039315">
        <ele>624.02999999999997</ele>
        <time>2025-04-24T11:36:46Z</time>
      </trkpt>
      <trkpt lat="45.831320006400347" lon="4.416372980922461">
        <ele>624.50999999999999</ele>
        <time>2025-04-24T11:36:47Z</time>
      </trkpt>
      <trkpt lat="45.831360993906856" lon="4.416228979825974">
        <ele>624.02999999999997</ele>
        <time>2025-04-24T11:36:48Z</time>
      </trkpt>
      <trkpt lat="45.831361999735236" lon="4.416081039234996">
        <ele>624.50999999999999</ele>
        <time>2025-04-24T11:36:49Z</time>
      </trkpt>
      <trkpt lat="45.831320006400347" lon="4.415914993733168">
        <ele>624.99000000000001</ele>
        <time>2025-04-24T11:36:50Z</time>
      </trkpt>
      <trkpt lat="45.83124197088182" lon="4.415760012343526">
        <ele>625.47000000000003</ele>
        <time>2025-04-24T11:36:51Z</time>
      </trkpt>
      <trkpt lat="45.831149015575647" lon="4.415643000975251">
        <ele>625.96000000000004</ele>
        <time>2025-04-24T11:36:52Z</time>
      </trkpt>
      <trkpt lat="45.831022029742599" lon="4.415590027347207">
        <ele>625.96000000000004</ele>
        <time>2025-04-24T11:36:53Z</time>
      </trkpt>
      <trkpt lat="45.830841986462474" lon="4.415560020133853">
        <ele>625.47000000000003</ele>
        <time>2025-04-24T11:36:54Z</time>
      </trkpt>
      <trkpt lat="45.830678958445787" lon="4.415576029568911">
        <ele>625.47000000000003</ele>
        <time>2025-04-24T11:36:55Z</time>
      </trkpt>
      <trkpt lat="45.830479972064495" lon="4.415595978498459">
        <ele>625.96000000000004</ele>
        <time>2025-04-24T11:36:56Z</time>
      </trkpt>
      <trkpt lat="45.829921988770366" lon="4.415655992925167">
        <ele>627.39999999999998</ele>
        <time>2025-04-24T11:36:59Z</time>
      </trkpt>
      <trkpt lat="45.82976097241044" lon="4.415598995983601">
        <ele>627.88</ele>
        <time>2025-04-24T11:37:00Z</time>
      </trkpt>
      <trkpt lat="45.829597022384405" lon="4.4154919590801">
        <ele>628.84000000000003</ele>
        <time>2025-04-24T11:37:01Z</time>
      </trkpt>
      <trkpt lat="45.828961003571749" lon="4.414945039898157">
        <ele>633.64999999999998</ele>
        <time>2025-04-24T11:37:05Z</time>
      </trkpt>
      <trkpt lat="45.828851033002138" lon="4.414769019931555">
        <ele>634.61000000000001</ele>
        <time>2025-04-24T11:37:06Z</time>
      </trkpt>
      <trkpt lat="45.828772997483611" lon="4.414580008015037">
        <ele>635.57000000000005</ele>
        <time>2025-04-24T11:37:07Z</time>
      </trkpt>
      <trkpt lat="45.828747013583779" lon="4.414358977228403">
        <ele>636.52999999999997</ele>
        <time>2025-04-24T11:37:08Z</time>
      </trkpt>
      <trkpt lat="45.828717006370425" lon="4.414100982248783">
        <ele>637.49000000000001</ele>
        <time>2025-04-24T11:37:09Z</time>
      </trkpt>
      <trkpt lat="45.828739972785115" lon="4.413869976997376">
        <ele>638.45000000000005</ele>
        <time>2025-04-24T11:37:10Z</time>
      </trkpt>
      <trkpt lat="45.828779032453895" lon="4.413603013381362">
        <ele>639.40999999999997</ele>
        <time>2025-04-24T11:37:11Z</time>
      </trkpt>
      <trkpt lat="45.828851033002138" lon="4.413334038108587">
        <ele>640.38</ele>
        <time>2025-04-24T11:37:12Z</time>
      </trkpt>
      <trkpt lat="45.828924039378762" lon="4.413057016208768">
        <ele>641.82000000000005</ele>
        <time>2025-04-24T11:37:13Z</time>
      </trkpt>
      <trkpt lat="45.829166024923325" lon="4.412155961617827">
        <ele>646.13999999999999</ele>
        <time>2025-04-24T11:37:17Z</time>
      </trkpt>
      <trkpt lat="45.829125037416816" lon="4.41200802102685">
        <ele>646.62</ele>
        <time>2025-04-24T11:37:18Z</time>
      </trkpt>
      <trkpt lat="45.829082038253546" lon="4.411868965253234">
        <ele>648.07000000000005</ele>
        <time>2025-04-24T11:37:19Z</time>
      </trkpt>
      <trkpt lat="45.829000985249877" lon="4.411767963320017">
        <ele>649.50999999999999</ele>
        <time>2025-04-24T11:37:20Z</time>
      </trkpt>
      <trkpt lat="45.828866958618164" lon="4.411736028268933">
        <ele>650.47000000000003</ele>
        <time>2025-04-24T11:37:21Z</time>
      </trkpt>
      <trkpt lat="45.828729998320341" lon="4.411740973591805">
        <ele>651.42999999999995</ele>
        <time>2025-04-24T11:37:22Z</time>
      </trkpt>
      <trkpt lat="45.828571999445558" lon="4.411807022988796">
        <ele>651.90999999999997</ele>
        <time>2025-04-24T11:37:23Z</time>
      </trkpt>
      <trkpt lat="45.828405031934381" lon="4.411878017708659">
        <ele>652.87</ele>
        <time>2025-04-24T11:37:24Z</time>
      </trkpt>
      <trkpt lat="45.827505989000201" lon="4.412256963551045">
        <ele>657.67999999999995</ele>
        <time>2025-04-24T11:37:29Z</time>
      </trkpt>
      <trkpt lat="45.827348995953798" lon="4.412282025441527">
        <ele>658.15999999999997</ele>
        <time>2025-04-24T11:37:30Z</time>
      </trkpt>
      <trkpt lat="45.827216980978847" lon="4.41224598325789">
        <ele>659.12</ele>
        <time>2025-04-24T11:37:31Z</time>
      </trkpt>
      <trkpt lat="45.827109022065997" lon="4.412156967446208">
        <ele>659.60000000000002</ele>
        <time>2025-04-24T11:37:32Z</time>
      </trkpt>
      <trkpt lat="45.827017994597554" lon="4.412044985219836">
        <ele>660.55999999999995</ele>
        <time>2025-04-24T11:37:33Z</time>
      </trkpt>
      <trkpt lat="45.826966026797891" lon="4.411888998001814">
        <ele>661.51999999999998</ele>
        <time>2025-04-24T11:37:34Z</time>
      </trkpt>
      <trkpt lat="45.826940964907408" lon="4.411695040762425">
        <ele>662.00999999999999</ele>
        <time>2025-04-24T11:37:35Z</time>
      </trkpt>
      <trkpt lat="45.826914981007576" lon="4.411484990268946">
        <ele>662.49000000000001</ele>
        <time>2025-04-24T11:37:36Z</time>
      </trkpt>
      <trkpt lat="45.826893020421267" lon="4.411310981959105">
        <ele>662.97000000000003</ele>
        <time>2025-04-24T11:37:37Z</time>
      </trkpt>
      <trkpt lat="45.826819008216262" lon="4.411100009456277">
        <ele>663.45000000000005</ele>
        <time>2025-04-24T11:37:38Z</time>
      </trkpt>
      <trkpt lat="45.82674901932478" lon="4.410938993096352">
        <ele>663.92999999999995</ele>
        <time>2025-04-24T11:37:39Z</time>
      </trkpt>
      <trkpt lat="45.82662396132946" lon="4.410875961184502">
        <ele>664.40999999999997</ele>
        <time>2025-04-24T11:37:40Z</time>
      </trkpt>
      <trkpt lat="45.826489012688398" lon="4.410817036405206">
        <ele>664.40999999999997</ele>
        <time>2025-04-24T11:37:41Z</time>
      </trkpt>
      <trkpt lat="45.826325984671712" lon="4.4108069781214">
        <ele>664.88999999999999</ele>
        <time>2025-04-24T11:37:42Z</time>
      </trkpt>
      <trkpt lat="45.826148958876729" lon="4.410795997828245">
        <ele>665.37</ele>
        <time>2025-04-24T11:37:43Z</time>
      </trkpt>
      <trkpt lat="45.825456026941538" lon="4.410752998664975">
        <ele>668.25</ele>
        <time>2025-04-24T11:37:47Z</time>
      </trkpt>
      <trkpt lat="45.825313031673431" lon="4.410643028095365">
        <ele>668.73000000000002</ele>
        <time>2025-04-24T11:37:48Z</time>
      </trkpt>
      <trkpt lat="45.825184034183621" lon="4.410544037818909">
        <ele>669.70000000000005</ele>
        <time>2025-04-24T11:37:49Z</time>
      </trkpt>
      <trkpt lat="45.825092000886798" lon="4.410360977053642">
        <ele>670.17999999999995</ele>
        <time>2025-04-24T11:37:50Z</time>
      </trkpt>
      <trkpt lat="45.824997033923864" lon="4.410164002329111">
        <ele>670.65999999999997</ele>
        <time>2025-04-24T11:37:51Z</time>
      </trkpt>
      <trkpt lat="45.82492402754724" lon="4.409949006512761">
        <ele>671.62</ele>
        <time>2025-04-24T11:37:52Z</time>
      </trkpt>
      <trkpt lat="45.824883040040731" lon="4.409716995432973">
        <ele>672.58000000000004</ele>
        <time>2025-04-24T11:37:53Z</time>
      </trkpt>
      <trkpt lat="45.824875999242067" lon="4.409486996009946">
        <ele>673.53999999999996</ele>
        <time>2025-04-24T11:37:54Z</time>
      </trkpt>
      <trkpt lat="45.82488396205008" lon="4.409245010465384">
        <ele>674.5</ele>
        <time>2025-04-24T11:37:55Z</time>
      </trkpt>
      <trkpt lat="45.824920004233718" lon="4.408997995778918">
        <ele>675.94000000000005</ele>
        <time>2025-04-24T11:37:56Z</time>
      </trkpt>
      <trkpt lat="45.824957974255085" lon="4.40874201245606">
        <ele>676.90999999999997</ele>
        <time>2025-04-24T11:37:57Z</time>
      </trkpt>
      <trkpt lat="45.825086971744895" lon="4.407434016466141">
        <ele>681.71000000000004</ele>
        <time>2025-04-24T11:38:02Z</time>
      </trkpt>
      <trkpt lat="45.825067022815347" lon="4.407179038971663">
        <ele>682.66999999999996</ele>
        <time>2025-04-24T11:38:03Z</time>
      </trkpt>
      <trkpt lat="45.825021006166935" lon="4.40691702067852">
        <ele>683.63</ele>
        <time>2025-04-24T11:38:04Z</time>
      </trkpt>
      <trkpt lat="45.824523959308863" lon="4.405023967847228">
        <ele>690.84000000000003</ele>
        <time>2025-04-24T11:38:11Z</time>
      </trkpt>
      <trkpt lat="45.824441984295845" lon="4.404834033921361">
        <ele>691.80999999999995</ele>
        <time>2025-04-24T11:38:12Z</time>
      </trkpt>
      <trkpt lat="45.824339976534247" lon="4.404702018946409">
        <ele>692.76999999999998</ele>
        <time>2025-04-24T11:38:13Z</time>
      </trkpt>
      <trkpt lat="45.824190024286509" lon="4.404627000913024">
        <ele>693.25</ele>
        <time>2025-04-24T11:38:14Z</time>
      </trkpt>
      <trkpt lat="45.824038982391357" lon="4.404551982879639">
        <ele>694.69000000000005</ele>
        <time>2025-04-24T11:38:15Z</time>
      </trkpt>
      <trkpt lat="45.823910990729928" lon="4.40448802895844">
        <ele>695.64999999999998</ele>
        <time>2025-04-24T11:38:16Z</time>
      </trkpt>
      <trkpt lat="45.823746034875512" lon="4.404343022033572">
        <ele>696.61000000000001</ele>
        <time>2025-04-24T11:38:17Z</time>
      </trkpt>
      <trkpt lat="45.823602033779025" lon="4.404216958209872">
        <ele>697.57000000000005</ele>
        <time>2025-04-24T11:38:18Z</time>
      </trkpt>
      <trkpt lat="45.823462978005409" lon="4.404056025668979">
        <ele>698.52999999999997</ele>
        <time>2025-04-24T11:38:19Z</time>
      </trkpt>
      <trkpt lat="45.82331595942378" lon="4.403871037065983">
        <ele>699.5</ele>
        <time>2025-04-24T11:38:20Z</time>
      </trkpt>
      <trkpt lat="45.822915975004435" lon="4.403368039056659">
        <ele>702.38</ele>
        <time>2025-04-24T11:38:23Z</time>
      </trkpt>
      <trkpt lat="45.822770968079567" lon="4.403312969952822">
        <ele>702.86000000000001</ele>
        <time>2025-04-24T11:38:24Z</time>
      </trkpt>
      <trkpt lat="45.822601988911629" lon="4.403265025466681">
        <ele>702.86000000000001</ele>
        <time>2025-04-24T11:38:25Z</time>
      </trkpt>
      <trkpt lat="45.82245203666389" lon="4.40330701880157">
        <ele>702.38</ele>
        <time>2025-04-24T11:38:26Z</time>
      </trkpt>
      <trkpt lat="45.82234701141715" lon="4.403395028784871">
        <ele>702.38</ele>
        <time>2025-04-24T11:38:27Z</time>
      </trkpt>
      <trkpt lat="45.822207033634186" lon="4.403512962162495">
        <ele>702.38</ele>
        <time>2025-04-24T11:38:28Z</time>
      </trkpt>
      <trkpt lat="45.821417039260268" lon="4.40423296764493">
        <ele>700.94000000000005</ele>
        <time>2025-04-24T11:38:33Z</time>
      </trkpt>
      <trkpt lat="45.82127102650702" lon="4.40444502979517">
        <ele>700.46000000000004</ele>
        <time>2025-04-24T11:38:34Z</time>
      </trkpt>
      <trkpt lat="45.821172958239913" lon="4.404667988419533">
        <ele>700.46000000000004</ele>
        <time>2025-04-24T11:38:35Z</time>
      </trkpt>
      <trkpt lat="45.820981012657285" lon="4.405063027516007">
        <ele>700.94000000000005</ele>
        <time>2025-04-24T11:38:37Z</time>
      </trkpt>
      <trkpt lat="45.820885961875319" lon="4.405206022784114">
        <ele>700.94000000000005</ele>
        <time>2025-04-24T11:38:38Z</time>
      </trkpt>
      <trkpt lat="45.820766016840935" lon="4.405249021947384">
        <ele>701.89999999999998</ele>
        <time>2025-04-24T11:38:39Z</time>
      </trkpt>
      <trkpt lat="45.820644982159138" lon="4.405246004462242">
        <ele>702.86000000000001</ele>
        <time>2025-04-24T11:38:40Z</time>
      </trkpt>
      <trkpt lat="45.820528976619244" lon="4.405183978378773">
        <ele>703.82000000000005</ele>
        <time>2025-04-24T11:38:41Z</time>
      </trkpt>
      <trkpt lat="45.820396039634943" lon="4.405110972002149">
        <ele>704.77999999999997</ele>
        <time>2025-04-24T11:38:42Z</time>
      </trkpt>
      <trkpt lat="45.820251032710075" lon="4.405033020302653">
        <ele>705.25999999999999</ele>
        <time>2025-04-24T11:38:43Z</time>
      </trkpt>
      <trkpt lat="45.820093033835292" lon="4.404977029189467">
        <ele>706.23000000000002</ele>
        <time>2025-04-24T11:38:44Z</time>
      </trkpt>
      <trkpt lat="45.819911984726787" lon="4.404964037239552">
        <ele>707.19000000000005</ele>
        <time>2025-04-24T11:38:45Z</time>
      </trkpt>
      <trkpt lat="45.819739988073707" lon="4.405006030574441">
        <ele>708.14999999999998</ele>
        <time>2025-04-24T11:38:46Z</time>
      </trkpt>
      <trkpt lat="45.819550976157188" lon="4.405080964788795">
        <ele>709.11000000000001</ele>
        <time>2025-04-24T11:38:47Z</time>
      </trkpt>
      <trkpt lat="45.819390965625644" lon="4.405197976157069">
        <ele>710.07000000000005</ele>
        <time>2025-04-24T11:38:48Z</time>
      </trkpt>
      <trkpt lat="45.81923003308475" lon="4.405335020273924">
        <ele>711.02999999999997</ele>
        <time>2025-04-24T11:38:49Z</time>
      </trkpt>
      <trkpt lat="45.819090977311134" lon="4.405525038018823">
        <ele>712.47000000000003</ele>
        <time>2025-04-24T11:38:50Z</time>
      </trkpt>
      <trkpt lat="45.818960973992944" lon="4.405699968338013">
        <ele>713.44000000000005</ele>
        <time>2025-04-24T11:38:51Z</time>
      </trkpt>
      <trkpt lat="45.818811021745205" lon="4.405832989141345">
        <ele>714.39999999999998</ele>
        <time>2025-04-24T11:38:52Z</time>
      </trkpt>
      <trkpt lat="45.818656040355563" lon="4.405905995517969">
        <ele>715.36000000000001</ele>
        <time>2025-04-24T11:38:53Z</time>
      </trkpt>
      <trkpt lat="45.818485971540213" lon="4.405932985246182">
        <ele>716.79999999999995</ele>
        <time>2025-04-24T11:38:54Z</time>
      </trkpt>
      <trkpt lat="45.818311963230371" lon="4.405901972204447">
        <ele>717.27999999999997</ele>
        <time>2025-04-24T11:38:55Z</time>
      </trkpt>
      <trkpt lat="45.818130997940898" lon="4.405870959162712">
        <ele>718.24000000000001</ele>
        <time>2025-04-24T11:38:56Z</time>
      </trkpt>
      <trkpt lat="45.817970987409353" lon="4.405772974714637">
        <ele>719.67999999999995</ele>
        <time>2025-04-24T11:38:57Z</time>
      </trkpt>
      <trkpt lat="45.817825980484486" lon="4.40565001219511">
        <ele>720.64999999999998</ele>
        <time>2025-04-24T11:38:58Z</time>
      </trkpt>
      <trkpt lat="45.817689020186663" lon="4.405533000826836">
        <ele>721.13</ele>
        <time>2025-04-24T11:38:59Z</time>
      </trkpt>
      <trkpt lat="45.817559016868472" lon="4.4054139778018">
        <ele>722.09000000000003</ele>
        <time>2025-04-24T11:39:00Z</time>
      </trkpt>
      <trkpt lat="45.817442005500197" lon="4.405303001403809">
        <ele>722.57000000000005</ele>
        <time>2025-04-24T11:39:01Z</time>
      </trkpt>
      <trkpt lat="45.817241007462144" lon="4.405111977830529">
        <ele>724.00999999999999</ele>
        <time>2025-04-24T11:39:03Z</time>
      </trkpt>
      <trkpt lat="45.817175041884184" lon="4.405022962018848">
        <ele>724.49000000000001</ele>
        <time>2025-04-24T11:39:04Z</time>
      </trkpt>
      <trkpt lat="45.817142017185688" lon="4.404950039461255">
        <ele>725.45000000000005</ele>
        <time>2025-04-24T11:39:05Z</time>
      </trkpt>
      <trkpt lat="45.817117039114237" lon="4.404892036691308">
        <ele>726.40999999999997</ele>
        <time>2025-04-24T11:39:06Z</time>
      </trkpt>
      <trkpt lat="45.817064987495542" lon="4.404868986457586">
        <ele>727.37</ele>
        <time>2025-04-24T11:39:07Z</time>
      </trkpt>
      <trkpt lat="45.81699600443244" lon="4.404861023649573">
        <ele>728.34000000000003</ele>
        <time>2025-04-24T11:39:08Z</time>
      </trkpt>
      <trkpt lat="45.8169100061059" lon="4.404850965365768">
        <ele>728.82000000000005</ele>
        <time>2025-04-24T11:39:09Z</time>
      </trkpt>
      <trkpt lat="45.81602999009192" lon="4.404804026708007">
        <ele>727.86000000000001</ele>
        <time>2025-04-24T11:39:16Z</time>
      </trkpt>
      <trkpt lat="45.815187022089958" lon="4.40476999618113">
        <ele>724.97000000000003</ele>
        <time>2025-04-24T11:39:21Z</time>
      </trkpt>
      <trkpt lat="45.815015025436878" lon="4.404718028381467">
        <ele>724.49000000000001</ele>
        <time>2025-04-24T11:39:22Z</time>
      </trkpt>
      <trkpt lat="45.814853003248572" lon="4.404636975377798">
        <ele>724.00999999999999</ele>
        <time>2025-04-24T11:39:23Z</time>
      </trkpt>
      <trkpt lat="45.814703973010182" lon="4.404562041163445">
        <ele>723.52999999999997</ele>
        <time>2025-04-24T11:39:24Z</time>
      </trkpt>
      <trkpt lat="45.814574975520372" lon="4.404498003423214">
        <ele>723.52999999999997</ele>
        <time>2025-04-24T11:39:25Z</time>
      </trkpt>
      <trkpt lat="45.814260989427567" lon="4.404405970126391">
        <ele>723.52999999999997</ele>
        <time>2025-04-24T11:39:28Z</time>
      </trkpt>
      <trkpt lat="45.814085975289345" lon="4.404379986226559">
        <ele>724.00999999999999</ele>
        <time>2025-04-24T11:39:30Z</time>
      </trkpt>
      <trkpt lat="45.814011041074991" lon="4.4043830037117">
        <ele>724.97000000000003</ele>
        <time>2025-04-24T11:39:31Z</time>
      </trkpt>
      <trkpt lat="45.813867039978504" lon="4.40442600287497">
        <ele>725.92999999999995</ele>
        <time>2025-04-24T11:39:33Z</time>
      </trkpt>
      <trkpt lat="45.813283994793892" lon="4.404736971482635">
        <ele>728.82000000000005</ele>
        <time>2025-04-24T11:39:42Z</time>
      </trkpt>
      <trkpt lat="45.812950981780887" lon="4.404976023361087">
        <ele>731.70000000000005</ele>
        <time>2025-04-24T11:39:47Z</time>
      </trkpt>
      <trkpt lat="45.812901025637984" lon="4.405036959797144">
        <ele>731.70000000000005</ele>
        <time>2025-04-24T11:39:48Z</time>
      </trkpt>
      <trkpt lat="45.812878981232643" lon="4.405148020014167">
        <ele>732.17999999999995</ele>
        <time>2025-04-24T11:39:49Z</time>
      </trkpt>
      <trkpt lat="45.812817038968205" lon="4.405474998056889">
        <ele>731.70000000000005</ele>
        <time>2025-04-24T11:39:52Z</time>
      </trkpt>
      <trkpt lat="45.812803963199258" lon="4.405578011646867">
        <ele>731.70000000000005</ele>
        <time>2025-04-24T11:39:53Z</time>
      </trkpt>
      <trkpt lat="45.812775967642665" lon="4.40580197609961">
        <ele>731.70000000000005</ele>
        <time>2025-04-24T11:39:55Z</time>
      </trkpt>
      <trkpt lat="45.812745960429311" lon="4.406041027978063">
        <ele>732.65999999999997</ele>
        <time>2025-04-24T11:39:57Z</time>
      </trkpt>
      <trkpt lat="45.812730034813285" lon="4.406172037124634">
        <ele>732.65999999999997</ele>
        <time>2025-04-24T11:39:58Z</time>
      </trkpt>
      <trkpt lat="45.812716037034988" lon="4.406287958845496">
        <ele>732.65999999999997</ele>
        <time>2025-04-24T11:39:59Z</time>
      </trkpt>
      <trkpt lat="45.812672032043338" lon="4.406633963808417">
        <ele>733.62</ele>
        <time>2025-04-24T11:40:02Z</time>
      </trkpt>
      <trkpt lat="45.812659040093422" lon="4.406742006540299">
        <ele>734.10000000000002</ele>
        <time>2025-04-24T11:40:03Z</time>
      </trkpt>
      <trkpt lat="45.812644958496094" lon="4.406848037615418">
        <ele>734.10000000000002</ele>
        <time>2025-04-24T11:40:04Z</time>
      </trkpt>
      <trkpt lat="45.81254999153316" lon="4.407039983198047">
        <ele>735.54999999999995</ele>
        <time>2025-04-24T11:40:06Z</time>
      </trkpt>
      <trkpt lat="45.812501963227987" lon="4.407136039808393">
        <ele>736.02999999999997</ele>
        <time>2025-04-24T11:40:07Z</time>
      </trkpt>
      <trkpt lat="45.812452007085085" lon="4.407234024256468">
        <ele>736.50999999999999</ele>
        <time>2025-04-24T11:40:08Z</time>
      </trkpt>
      <trkpt lat="45.812402972951531" lon="4.407333014532924">
        <ele>737.47000000000003</ele>
        <time>2025-04-24T11:40:09Z</time>
      </trkpt>
      <trkpt lat="45.81235502846539" lon="4.407427981495857">
        <ele>737.95000000000005</ele>
        <time>2025-04-24T11:40:10Z</time>
      </trkpt>
      <trkpt lat="45.81190399825573" lon="4.408225016668439">
        <ele>742.75999999999999</ele>
        <time>2025-04-24T11:40:19Z</time>
      </trkpt>
      <trkpt lat="45.811850018799305" lon="4.408302968367934">
        <ele>743.24000000000001</ele>
        <time>2025-04-24T11:40:20Z</time>
      </trkpt>
      <trkpt lat="45.811676010489464" lon="4.408555012196302">
        <ele>745.15999999999997</ele>
        <time>2025-04-24T11:40:23Z</time>
      </trkpt>
      <trkpt lat="45.811615996062756" lon="4.408641010522842">
        <ele>745.63999999999999</ele>
        <time>2025-04-24T11:40:24Z</time>
      </trkpt>
      <trkpt lat="45.811141999438405" lon="4.409282980486751">
        <ele>747.08000000000004</ele>
        <time>2025-04-24T11:40:32Z</time>
      </trkpt>
      <trkpt lat="45.811085002496839" lon="4.409363027662039">
        <ele>747.08000000000004</ele>
        <time>2025-04-24T11:40:33Z</time>
      </trkpt>
      <trkpt lat="45.810967991128564" lon="4.409527983516455">
        <ele>747.08000000000004</ele>
        <time>2025-04-24T11:40:35Z</time>
      </trkpt>
      <trkpt lat="45.810907976701856" lon="4.409612976014614">
        <ele>747.55999999999995</ele>
        <time>2025-04-24T11:40:36Z</time>
      </trkpt>
      <trkpt lat="45.809973981231451" lon="4.41089297644794">
        <ele>747.55999999999995</ele>
        <time>2025-04-24T11:40:50Z</time>
      </trkpt>
      <trkpt lat="45.809915978461504" lon="4.410996995866299">
        <ele>747.55999999999995</ele>
        <time>2025-04-24T11:40:51Z</time>
      </trkpt>
      <trkpt lat="45.809855964034796" lon="4.41110503859818">
        <ele>747.08000000000004</ele>
        <time>2025-04-24T11:40:52Z</time>
      </trkpt>
      <trkpt lat="45.809801984578371" lon="4.411216014996171">
        <ele>747.08000000000004</ele>
        <time>2025-04-24T11:40:53Z</time>
      </trkpt>
      <trkpt lat="45.809386996552348" lon="4.412601962685585">
        <ele>743.72000000000003</ele>
        <time>2025-04-24T11:41:02Z</time>
      </trkpt>
      <trkpt lat="45.809040991589427" lon="4.413779033347964">
        <ele>740.83000000000004</ele>
        <time>2025-04-24T11:41:08Z</time>
      </trkpt>
      <trkpt lat="45.809027999639511" lon="4.414011966437101">
        <ele>740.83000000000004</ele>
        <time>2025-04-24T11:41:09Z</time>
      </trkpt>
      <trkpt lat="45.809032022953033" lon="4.414202990010381">
        <ele>740.35000000000002</ele>
        <time>2025-04-24T11:41:10Z</time>
      </trkpt>
      <trkpt lat="45.809092959389091" lon="4.414385966956615">
        <ele>739.87</ele>
        <time>2025-04-24T11:41:11Z</time>
      </trkpt>
      <trkpt lat="45.809155991300941" lon="4.414560981094837">
        <ele>739.87</ele>
        <time>2025-04-24T11:41:12Z</time>
      </trkpt>
      <trkpt lat="45.809264034032822" lon="4.414700036868453">
        <ele>739.87</ele>
        <time>2025-04-24T11:41:13Z</time>
      </trkpt>
      <trkpt lat="45.80939101986587" lon="4.414830962195993">
        <ele>739.87</ele>
        <time>2025-04-24T11:41:14Z</time>
      </trkpt>
      <trkpt lat="45.809529991820455" lon="4.414960965514183">
        <ele>739.87</ele>
        <time>2025-04-24T11:41:15Z</time>
      </trkpt>
      <trkpt lat="45.810146983712912" lon="4.415493970736861">
        <ele>738.42999999999995</ele>
        <time>2025-04-24T11:41:19Z</time>
      </trkpt>
      <trkpt lat="45.810327026993036" lon="4.415567982941866">
        <ele>737.95000000000005</ele>
        <time>2025-04-24T11:41:20Z</time>
      </trkpt>
      <trkpt lat="45.810513021424413" lon="4.415632020682097">
        <ele>737.95000000000005</ele>
        <time>2025-04-24T11:41:21Z</time>
      </trkpt>
      <trkpt lat="45.81087302416563" lon="4.415787002071738">
        <ele>736.50999999999999</ele>
        <time>2025-04-24T11:41:23Z</time>
      </trkpt>
      <trkpt lat="45.811017025262117" lon="4.415897978469729">
        <ele>736.02999999999997</ele>
        <time>2025-04-24T11:41:24Z</time>
      </trkpt>
      <trkpt lat="45.811108974739909" lon="4.416060000658035">
        <ele>735.54999999999995</ele>
        <time>2025-04-24T11:41:25Z</time>
      </trkpt>
      <trkpt lat="45.811160020530224" lon="4.416255969554186">
        <ele>735.07000000000005</ele>
        <time>2025-04-24T11:41:26Z</time>
      </trkpt>
      <trkpt lat="45.811211988329887" lon="4.416472977027297">
        <ele>734.58000000000004</ele>
        <time>2025-04-24T11:41:27Z</time>
      </trkpt>
      <trkpt lat="45.811244007200003" lon="4.416722003370524">
        <ele>733.62</ele>
        <time>2025-04-24T11:41:28Z</time>
      </trkpt>
      <trkpt lat="45.811276026070118" lon="4.416981004178524">
        <ele>733.13999999999999</ele>
        <time>2025-04-24T11:41:29Z</time>
      </trkpt>
      <trkpt lat="45.81147400662303" lon="4.418656965717673">
        <ele>730.74000000000001</ele>
        <time>2025-04-24T11:41:35Z</time>
      </trkpt>
      <trkpt lat="45.811485992744565" lon="4.418923007324338">
        <ele>730.74000000000001</ele>
        <time>2025-04-24T11:41:36Z</time>
      </trkpt>
      <trkpt lat="45.811465037986636" lon="4.4191649928689">
        <ele>730.25999999999999</ele>
        <time>2025-04-24T11:41:37Z</time>
      </trkpt>
      <trkpt lat="45.811376022174954" lon="4.419387029483914">
        <ele>729.77999999999997</ele>
        <time>2025-04-24T11:41:38Z</time>
      </trkpt>
      <trkpt lat="45.811287006363273" lon="4.419610993936658">
        <ele>729.29999999999995</ele>
        <time>2025-04-24T11:41:39Z</time>
      </trkpt>
      <trkpt lat="45.811175024136901" lon="4.419815009459853">
        <ele>729.29999999999995</ele>
        <time>2025-04-24T11:41:40Z</time>
      </trkpt>
      <trkpt lat="45.81104502081871" lon="4.420009972527623">
        <ele>728.82000000000005</ele>
        <time>2025-04-24T11:41:41Z</time>
      </trkpt>
      <trkpt lat="45.810914011672139" lon="4.420206025242806">
        <ele>728.82000000000005</ele>
        <time>2025-04-24T11:41:42Z</time>
      </trkpt>
      <trkpt lat="45.809337040409446" lon="4.422570979222655">
        <ele>725.45000000000005</ele>
        <time>2025-04-24T11:41:53Z</time>
      </trkpt>
      <trkpt lat="45.809194967150688" lon="4.422783963382244">
        <ele>724.97000000000003</ele>
        <time>2025-04-24T11:41:54Z</time>
      </trkpt>
      <trkpt lat="45.809020958840847" lon="4.422938022762537">
        <ele>724.49000000000001</ele>
        <time>2025-04-24T11:41:55Z</time>
      </trkpt>
      <trkpt lat="45.808844016864896" lon="4.423080012202263">
        <ele>724.49000000000001</ele>
        <time>2025-04-24T11:41:56Z</time>
      </trkpt>
      <trkpt lat="45.808652993291616" lon="4.423154024407268">
        <ele>724.00999999999999</ele>
        <time>2025-04-24T11:41:57Z</time>
      </trkpt>
      <trkpt lat="45.808454006910324" lon="4.42322401329875">
        <ele>724.00999999999999</ele>
        <time>2025-04-24T11:41:58Z</time>
      </trkpt>
      <trkpt lat="45.808253008872271" lon="4.423253014683723">
        <ele>723.52999999999997</ele>
        <time>2025-04-24T11:41:59Z</time>
      </trkpt>
      <trkpt lat="45.807462008669972" lon="4.423366002738476">
        <ele>722.57000000000005</ele>
        <time>2025-04-24T11:42:03Z</time>
      </trkpt>
      <trkpt lat="45.807304009795189" lon="4.423444038257003">
        <ele>722.09000000000003</ele>
        <time>2025-04-24T11:42:04Z</time>
      </trkpt>
      <trkpt lat="45.807149028405547" lon="4.42354504019022">
        <ele>722.09000000000003</ele>
        <time>2025-04-24T11:42:05Z</time>
      </trkpt>
      <trkpt lat="45.806998992338777" lon="4.423689963296056">
        <ele>721.61000000000001</ele>
        <time>2025-04-24T11:42:06Z</time>
      </trkpt>
      <trkpt lat="45.806843005120754" lon="4.423841005191207">
        <ele>721.13</ele>
        <time>2025-04-24T11:42:07Z</time>
      </trkpt>
      <trkpt lat="45.80492103472352" lon="4.425670020282269">
        <ele>717.27999999999997</ele>
        <time>2025-04-24T11:42:18Z</time>
      </trkpt>
      <trkpt lat="45.804091980680823" lon="4.426526986062527">
        <ele>717.27999999999997</ele>
        <time>2025-04-24T11:42:23Z</time>
      </trkpt>
      <trkpt lat="45.803970023989677" lon="4.426750028505921">
        <ele>717.75999999999999</ele>
        <time>2025-04-24T11:42:24Z</time>
      </trkpt>
      <trkpt lat="45.803731977939606" lon="4.427175996825099">
        <ele>718.72000000000003</ele>
        <time>2025-04-24T11:42:26Z</time>
      </trkpt>
      <trkpt lat="45.803571967408061" lon="4.427311029285193">
        <ele>719.20000000000005</ele>
        <time>2025-04-24T11:42:27Z</time>
      </trkpt>
      <trkpt lat="45.803406005725265" lon="4.427452012896538">
        <ele>720.15999999999997</ele>
        <time>2025-04-24T11:42:28Z</time>
      </trkpt>
      <trkpt lat="45.803243983536959" lon="4.427589979022741">
        <ele>721.13</ele>
        <time>2025-04-24T11:42:29Z</time>
      </trkpt>
      <trkpt lat="45.803095959126949" lon="4.427715037018061">
        <ele>722.09000000000003</ele>
        <time>2025-04-24T11:42:30Z</time>
      </trkpt>
      <trkpt lat="45.802995041012764" lon="4.427883010357618">
        <ele>723.04999999999995</ele>
        <time>2025-04-24T11:42:31Z</time>
      </trkpt>
      <trkpt lat="45.80292496830225" lon="4.428090965375304">
        <ele>723.52999999999997</ele>
        <time>2025-04-24T11:42:32Z</time>
      </trkpt>
      <trkpt lat="45.80290300771594" lon="4.428336974233389">
        <ele>724.49000000000001</ele>
        <time>2025-04-24T11:42:33Z</time>
      </trkpt>
      <trkpt lat="45.80287903547287" lon="4.428599998354912">
        <ele>725.45000000000005</ele>
        <time>2025-04-24T11:42:34Z</time>
      </trkpt>
      <trkpt lat="45.802805023267865" lon="4.4294139649719">
        <ele>727.86000000000001</ele>
        <time>2025-04-24T11:42:37Z</time>
      </trkpt>
      <trkpt lat="45.802736962214112" lon="4.429656034335494">
        <ele>728.34000000000003</ele>
        <time>2025-04-24T11:42:38Z</time>
      </trkpt>
      <trkpt lat="45.802647024393082" lon="4.429879998788238">
        <ele>729.29999999999995</ele>
        <time>2025-04-24T11:42:39Z</time>
      </trkpt>
      <trkpt lat="45.802387017756701" lon="4.430571002885699">
        <ele>731.70000000000005</ele>
        <time>2025-04-24T11:42:42Z</time>
      </trkpt>
      <trkpt lat="45.802329014986753" lon="4.430817011743784">
        <ele>732.17999999999995</ele>
        <time>2025-04-24T11:42:43Z</time>
      </trkpt>
      <trkpt lat="45.802332032471895" lon="4.431074000895023">
        <ele>733.13999999999999</ele>
        <time>2025-04-24T11:42:44Z</time>
      </trkpt>
      <trkpt lat="45.802341001108289" lon="4.431339958682656">
        <ele>733.62</ele>
        <time>2025-04-24T11:42:45Z</time>
      </trkpt>
      <trkpt lat="45.802362961694598" lon="4.431600971147418">
        <ele>734.58000000000004</ele>
        <time>2025-04-24T11:42:46Z</time>
      </trkpt>
      <trkpt lat="45.802400009706616" lon="4.431847985833883">
        <ele>735.07000000000005</ele>
        <time>2025-04-24T11:42:47Z</time>
      </trkpt>
      <trkpt lat="45.802432028576732" lon="4.432060969993472">
        <ele>735.07000000000005</ele>
        <time>2025-04-24T11:42:48Z</time>
      </trkpt>
      <trkpt lat="45.802404033020139" lon="4.432278983294964">
        <ele>735.54999999999995</ele>
        <time>2025-04-24T11:42:49Z</time>
      </trkpt>
      <trkpt lat="45.802364973351359" lon="4.432462966069579">
        <ele>735.54999999999995</ele>
        <time>2025-04-24T11:42:50Z</time>
      </trkpt>
      <trkpt lat="45.802292972803116" lon="4.43263697437942">
        <ele>735.54999999999995</ele>
        <time>2025-04-24T11:42:51Z</time>
      </trkpt>
      <trkpt lat="45.802208986133337" lon="4.432791033759713">
        <ele>735.54999999999995</ele>
        <time>2025-04-24T11:42:52Z</time>
      </trkpt>
      <trkpt lat="45.802076971158385" lon="4.432890024036169">
        <ele>735.54999999999995</ele>
        <time>2025-04-24T11:42:53Z</time>
      </trkpt>
      <trkpt lat="45.801924001425505" lon="4.432945009320974">
        <ele>735.54999999999995</ele>
        <time>2025-04-24T11:42:54Z</time>
      </trkpt>
      <trkpt lat="45.80176399089396" lon="4.432998988777399">
        <ele>736.02999999999997</ele>
        <time>2025-04-24T11:42:55Z</time>
      </trkpt>
      <trkpt lat="45.801266022026539" lon="4.43321499042213">
        <ele>736.02999999999997</ele>
        <time>2025-04-24T11:42:58Z</time>
      </trkpt>
      <trkpt lat="45.800206968560815" lon="4.434011019766331">
        <ele>736.02999999999997</ele>
        <time>2025-04-24T11:43:04Z</time>
      </trkpt>
      <trkpt lat="45.80004402436316" lon="4.434188967570663">
        <ele>736.02999999999997</ele>
        <time>2025-04-24T11:43:05Z</time>
      </trkpt>
      <trkpt lat="45.799750993028283" lon="4.434532960876823">
        <ele>736.50999999999999</ele>
        <time>2025-04-24T11:43:07Z</time>
      </trkpt>
      <trkpt lat="45.799587965011597" lon="4.434666987508535">
        <ele>736.50999999999999</ele>
        <time>2025-04-24T11:43:08Z</time>
      </trkpt>
      <trkpt lat="45.799413034692407" lon="4.43473999388516">
        <ele>736.50999999999999</ele>
        <time>2025-04-24T11:43:09Z</time>
      </trkpt>
      <trkpt lat="45.79922997392714" lon="4.434733036905527">
        <ele>736.50999999999999</ele>
        <time>2025-04-24T11:43:10Z</time>
      </trkpt>
      <trkpt lat="45.799055965617299" lon="4.434721972793341">
        <ele>736.50999999999999</ele>
        <time>2025-04-24T11:43:11Z</time>
      </trkpt>
      <trkpt lat="45.798892015591264" lon="4.434721972793341">
        <ele>736.50999999999999</ele>
        <time>2025-04-24T11:43:12Z</time>
      </trkpt>
      <trkpt lat="45.798742985352874" lon="4.434746028855443">
        <ele>736.02999999999997</ele>
        <time>2025-04-24T11:43:13Z</time>
      </trkpt>
      <trkpt lat="45.798597978428006" lon="4.434833033010364">
        <ele>736.02999999999997</ele>
        <time>2025-04-24T11:43:14Z</time>
      </trkpt>
      <trkpt lat="45.798479039222002" lon="4.434958007186651">
        <ele>736.02999999999997</ele>
        <time>2025-04-24T11:43:15Z</time>
      </trkpt>
      <trkpt lat="45.798354987055063" lon="4.43510795943439">
        <ele>736.02999999999997</ele>
        <time>2025-04-24T11:43:16Z</time>
      </trkpt>
      <trkpt lat="45.798290027305484" lon="4.435314992442727">
        <ele>736.02999999999997</ele>
        <time>2025-04-24T11:43:17Z</time>
      </trkpt>
      <trkpt lat="45.798234036192298" lon="4.435536023229361">
        <ele>736.50999999999999</ele>
        <time>2025-04-24T11:43:18Z</time>
      </trkpt>
      <trkpt lat="45.798195982351899" lon="4.435774991288781">
        <ele>736.99000000000001</ele>
        <time>2025-04-24T11:43:19Z</time>
      </trkpt>
      <trkpt lat="45.798148037865758" lon="4.436022005975246">
        <ele>736.50999999999999</ele>
        <time>2025-04-24T11:43:20Z</time>
      </trkpt>
      <trkpt lat="45.798059022054076" lon="4.436243958771229">
        <ele>736.50999999999999</ele>
        <time>2025-04-24T11:43:21Z</time>
      </trkpt>
      <trkpt lat="45.79796296544373" lon="4.436483010649681">
        <ele>736.02999999999997</ele>
        <time>2025-04-24T11:43:22Z</time>
      </trkpt>
      <trkpt lat="45.797842014580965" lon="4.436718039214611">
        <ele>736.02999999999997</ele>
        <time>2025-04-24T11:43:23Z</time>
      </trkpt>
      <trkpt lat="45.797714022919536" lon="4.43695398978889">
        <ele>735.54999999999995</ele>
        <time>2025-04-24T11:43:24Z</time>
      </trkpt>
      <trkpt lat="45.797197027131915" lon="4.437889996916056">
        <ele>735.07000000000005</ele>
        <time>2025-04-24T11:43:28Z</time>
      </trkpt>
      <trkpt lat="45.797047996893525" lon="4.438090994954109">
        <ele>734.58000000000004</ele>
        <time>2025-04-24T11:43:29Z</time>
      </trkpt>
      <trkpt lat="45.796450031921268" lon="4.43867202848196">
        <ele>732.17999999999995</ele>
        <time>2025-04-24T11:43:33Z</time>
      </trkpt>
      <trkpt lat="45.796380965039134" lon="4.438733970746398">
        <ele>731.70000000000005</ele>
        <time>2025-04-24T11:43:34Z</time>
      </trkpt>
      <trkpt lat="45.796082988381386" lon="4.438776969909668">
        <ele>730.74000000000001</ele>
        <time>2025-04-24T11:43:36Z</time>
      </trkpt>
      <trkpt lat="45.795156033709645" lon="4.438915019854903">
        <ele>726.88999999999999</ele>
        <time>2025-04-24T11:43:41Z</time>
      </trkpt>
      <trkpt lat="45.79499501734972" lon="4.438981991261244">
        <ele>725.92999999999995</ele>
        <time>2025-04-24T11:43:42Z</time>
      </trkpt>
      <trkpt lat="45.794796030968428" lon="4.439194975420833">
        <ele>724.49000000000001</ele>
        <time>2025-04-24T11:43:43Z</time>
      </trkpt>
      <trkpt lat="45.794679019600153" lon="4.439364960417152">
        <ele>724.00999999999999</ele>
        <time>2025-04-24T11:43:44Z</time>
      </trkpt>
      <trkpt lat="45.794570976868272" lon="4.439521031454206">
        <ele>723.04999999999995</ele>
        <time>2025-04-24T11:43:45Z</time>
      </trkpt>
      <trkpt lat="45.794271994382143" lon="4.439936019480228">
        <ele>722.57000000000005</ele>
        <time>2025-04-24T11:43:48Z</time>
      </trkpt>
      <trkpt lat="45.794159006327391" lon="4.44002402946353">
        <ele>722.57000000000005</ele>
        <time>2025-04-24T11:43:49Z</time>
      </trkpt>
      <trkpt lat="45.793723985552788" lon="4.44036802276969">
        <ele>723.04999999999995</ele>
        <time>2025-04-24T11:43:55Z</time>
      </trkpt>
      <trkpt lat="45.793678974732757" lon="4.440402975305915">
        <ele>723.04999999999995</ele>
        <time>2025-04-24T11:43:56Z</time>
      </trkpt>
      <trkpt lat="45.793590964749455" lon="4.440471958369017">
        <ele>723.52999999999997</ele>
        <time>2025-04-24T11:43:57Z</time>
      </trkpt>
      <trkpt lat="45.793581996113062" lon="4.440550999715924">
        <ele>723.52999999999997</ele>
        <time>2025-04-24T11:43:58Z</time>
      </trkpt>
      <trkpt lat="45.793564980849624" lon="4.44069198332727">
        <ele>724.00999999999999</ele>
        <time>2025-04-24T11:43:59Z</time>
      </trkpt>
      <trkpt lat="45.793408993631601" lon="4.442034009844065">
        <ele>728.34000000000003</ele>
        <time>2025-04-24T11:44:08Z</time>
      </trkpt>
      <trkpt lat="45.793357025831938" lon="4.44219502620399">
        <ele>728.34000000000003</ele>
        <time>2025-04-24T11:44:09Z</time>
      </trkpt>
      <trkpt lat="45.793296005576849" lon="4.442298039793968">
        <ele>728.82000000000005</ele>
        <time>2025-04-24T11:44:10Z</time>
      </trkpt>
      <trkpt lat="45.792669039219618" lon="4.443418029695749">
        <ele>731.22000000000003</ele>
        <time>2025-04-24T11:44:19Z</time>
      </trkpt>
      <trkpt lat="45.792552027851343" lon="4.443572005257011">
        <ele>731.70000000000005</ele>
        <time>2025-04-24T11:44:20Z</time>
      </trkpt>
      <trkpt lat="45.792421018704772" lon="4.443702008575201">
        <ele>731.70000000000005</ele>
        <time>2025-04-24T11:44:21Z</time>
      </trkpt>
      <trkpt lat="45.792240975424647" lon="4.443795969709754">
        <ele>731.70000000000005</ele>
        <time>2025-04-24T11:44:22Z</time>
      </trkpt>
      <trkpt lat="45.792076019570231" lon="4.443865036591888">
        <ele>731.70000000000005</ele>
        <time>2025-04-24T11:44:23Z</time>
      </trkpt>
      <trkpt lat="45.79056903719902" lon="4.444222021847963">
        <ele>731.22000000000003</ele>
        <time>2025-04-24T11:44:32Z</time>
      </trkpt>
      <trkpt lat="45.790397962555289" lon="4.444211041554809">
        <ele>731.70000000000005</ele>
        <time>2025-04-24T11:44:33Z</time>
      </trkpt>
      <trkpt lat="45.79022403806448" lon="4.444161001592875">
        <ele>731.70000000000005</ele>
        <time>2025-04-24T11:44:34Z</time>
      </trkpt>
      <trkpt lat="45.790064027532935" lon="4.444076009094715">
        <ele>732.17999999999995</ele>
        <time>2025-04-24T11:44:35Z</time>
      </trkpt>
      <trkpt lat="45.789433959871531" lon="4.443797981366515">
        <ele>733.62</ele>
        <time>2025-04-24T11:44:39Z</time>
      </trkpt>
      <trkpt lat="45.789277972653508" lon="4.443754982203245">
        <ele>733.62</ele>
        <time>2025-04-24T11:44:40Z</time>
      </trkpt>
      <trkpt lat="45.789117040112615" lon="4.44378599524498">
        <ele>733.62</ele>
        <time>2025-04-24T11:44:41Z</time>
      </trkpt>
      <trkpt lat="45.788950994610786" lon="4.443818014115095">
        <ele>733.62</ele>
        <time>2025-04-24T11:44:42Z</time>
      </trkpt>
      <trkpt lat="45.788780003786087" lon="4.443856989964843">
        <ele>733.13999999999999</ele>
        <time>2025-04-24T11:44:43Z</time>
      </trkpt>
      <trkpt lat="45.787871992215514" lon="4.444157984107733">
        <ele>731.22000000000003</ele>
        <time>2025-04-24T11:44:48Z</time>
      </trkpt>
      <trkpt lat="45.787679962813854" lon="4.444178016856313">
        <ele>730.74000000000001</ele>
        <time>2025-04-24T11:44:49Z</time>
      </trkpt>
      <trkpt lat="45.787493968382478" lon="4.444138035178185">
        <ele>730.25999999999999</ele>
        <time>2025-04-24T11:44:50Z</time>
      </trkpt>
      <trkpt lat="45.787128014490008" lon="4.44410802796483">
        <ele>730.74000000000001</ele>
        <time>2025-04-24T11:44:52Z</time>
      </trkpt>
      <trkpt lat="45.786946965381503" lon="4.444099981337786">
        <ele>731.22000000000003</ele>
        <time>2025-04-24T11:44:53Z</time>
      </trkpt>
      <trkpt lat="45.786768011748791" lon="4.444137029349804">
        <ele>731.70000000000005</ele>
        <time>2025-04-24T11:44:54Z</time>
      </trkpt>
      <trkpt lat="45.785814989358187" lon="4.444335009902716">
        <ele>734.10000000000002</ele>
        <time>2025-04-24T11:44:59Z</time>
      </trkpt>
      <trkpt lat="45.785622959956527" lon="4.444300979375839">
        <ele>734.58000000000004</ele>
        <time>2025-04-24T11:45:00Z</time>
      </trkpt>
      <trkpt lat="45.785430008545518" lon="4.444253034889698">
        <ele>735.07000000000005</ele>
        <time>2025-04-24T11:45:01Z</time>
      </trkpt>
      <trkpt lat="45.785250971093774" lon="4.444177011027932">
        <ele>735.54999999999995</ele>
        <time>2025-04-24T11:45:02Z</time>
      </trkpt>
      <trkpt lat="45.78509003855288" lon="4.444072991609573">
        <ele>736.50999999999999</ele>
        <time>2025-04-24T11:45:03Z</time>
      </trkpt>
      <trkpt lat="45.784949976950884" lon="4.443919016048312">
        <ele>737.47000000000003</ele>
        <time>2025-04-24T11:45:04Z</time>
      </trkpt>
      <trkpt lat="45.784809999167919" lon="4.443747019395232">
        <ele>738.42999999999995</ele>
        <time>2025-04-24T11:45:05Z</time>
      </trkpt>
      <trkpt lat="45.784668009728193" lon="4.443557001650333">
        <ele>738.90999999999997</ele>
        <time>2025-04-24T11:45:06Z</time>
      </trkpt>
      <trkpt lat="45.784111032262444" lon="4.44271101616323">
        <ele>740.83000000000004</ele>
        <time>2025-04-24T11:45:10Z</time>
      </trkpt>
      <trkpt lat="45.784006007015705" lon="4.442448997870088">
        <ele>741.30999999999995</ele>
        <time>2025-04-24T11:45:11Z</time>
      </trkpt>
      <trkpt lat="45.783576015383005" lon="4.441460017114878">
        <ele>742.75999999999999</ele>
        <time>2025-04-24T11:45:15Z</time>
      </trkpt>
      <trkpt lat="45.783433020114899" lon="4.441268993541598">
        <ele>743.24000000000001</ele>
        <time>2025-04-24T11:45:16Z</time>
      </trkpt>
      <trkpt lat="45.782871013507247" lon="4.440599028021097">
        <ele>744.20000000000005</ele>
        <time>2025-04-24T11:45:20Z</time>
      </trkpt>
      <trkpt lat="45.782715026289225" lon="4.440485034137964">
        <ele>743.72000000000003</ele>
        <time>2025-04-24T11:45:21Z</time>
      </trkpt>
      <trkpt lat="45.782538000494242" lon="4.440403981134296">
        <ele>743.72000000000003</ele>
        <time>2025-04-24T11:45:22Z</time>
      </trkpt>
      <trkpt lat="45.782356029376388" lon="4.440371040254831">
        <ele>744.20000000000005</ele>
        <time>2025-04-24T11:45:23Z</time>
      </trkpt>
      <trkpt lat="45.782188978046179" lon="4.440361987799406">
        <ele>744.67999999999995</ele>
        <time>2025-04-24T11:45:24Z</time>
      </trkpt>
      <trkpt lat="45.782040031626821" lon="4.440418984740973">
        <ele>744.67999999999995</ele>
        <time>2025-04-24T11:45:25Z</time>
      </trkpt>
      <trkpt lat="45.781897958368063" lon="4.440514035522938">
        <ele>745.15999999999997</ele>
        <time>2025-04-24T11:45:26Z</time>
      </trkpt>
      <trkpt lat="45.781765021383762" lon="4.440633980557323">
        <ele>745.15999999999997</ele>
        <time>2025-04-24T11:45:27Z</time>
      </trkpt>
      <trkpt lat="45.781477019190788" lon="4.440877977758646">
        <ele>745.15999999999997</ele>
        <time>2025-04-24T11:45:29Z</time>
      </trkpt>
      <trkpt lat="45.781311979517341" lon="4.440948972478509">
        <ele>744.67999999999995</ele>
        <time>2025-04-24T11:45:30Z</time>
      </trkpt>
      <trkpt lat="45.781146017834544" lon="4.440960958600044">
        <ele>744.20000000000005</ele>
        <time>2025-04-24T11:45:31Z</time>
      </trkpt>
      <trkpt lat="45.780430035665631" lon="4.440887030214071">
        <ele>742.75999999999999</ele>
        <time>2025-04-24T11:45:35Z</time>
      </trkpt>
      <trkpt lat="45.780258039012551" lon="4.44082098081708">
        <ele>742.27999999999997</ele>
        <time>2025-04-24T11:45:36Z</time>
      </trkpt>
      <trkpt lat="45.780119989067316" lon="4.440702041611075">
        <ele>741.30999999999995</ele>
        <time>2025-04-24T11:45:37Z</time>
      </trkpt>
      <trkpt lat="45.779996020719409" lon="4.440587041899562">
        <ele>740.83000000000004</ele>
        <time>2025-04-24T11:45:38Z</time>
      </trkpt>
      <trkpt lat="45.779921002686024" lon="4.440424013882875">
        <ele>740.35000000000002</ele>
        <time>2025-04-24T11:45:39Z</time>
      </trkpt>
      <trkpt lat="45.779843972995877" lon="4.440241036936641">
        <ele>739.87</ele>
        <time>2025-04-24T11:45:40Z</time>
      </trkpt>
      <trkpt lat="45.77976300381124" lon="4.4400480017066">
        <ele>739.38999999999999</ele>
        <time>2025-04-24T11:45:41Z</time>
      </trkpt>
      <trkpt lat="45.779678011313081" lon="4.439845997840166">
        <ele>738.90999999999997</ele>
        <time>2025-04-24T11:45:42Z</time>
      </trkpt>
      <trkpt lat="45.779564017429948" lon="4.439676012843847">
        <ele>738.42999999999995</ele>
        <time>2025-04-24T11:45:43Z</time>
      </trkpt>
      <trkpt lat="45.77944197691977" lon="4.439538968726993">
        <ele>737.95000000000005</ele>
        <time>2025-04-24T11:45:44Z</time>
      </trkpt>
      <trkpt lat="45.779326977208257" lon="4.439410977065563">
        <ele>737.47000000000003</ele>
        <time>2025-04-24T11:45:45Z</time>
      </trkpt>
      <trkpt lat="45.779181970283389" lon="4.439332019537687">
        <ele>736.50999999999999</ele>
        <time>2025-04-24T11:45:46Z</time>
      </trkpt>
      <trkpt lat="45.779025983065367" lon="4.439322967082262">
        <ele>736.02999999999997</ele>
        <time>2025-04-24T11:45:47Z</time>
      </trkpt>
      <trkpt lat="45.778855998069048" lon="4.439344005659223">
        <ele>735.07000000000005</ele>
        <time>2025-04-24T11:45:48Z</time>
      </trkpt>
      <trkpt lat="45.778500018641353" lon="4.439387004822493">
        <ele>733.13999999999999</ele>
        <time>2025-04-24T11:45:50Z</time>
      </trkpt>
      <trkpt lat="45.778028033673763" lon="4.439569981768727">
        <ele>730.74000000000001</ele>
        <time>2025-04-24T11:45:53Z</time>
      </trkpt>
      <trkpt lat="45.777911022305489" lon="4.439657991752029">
        <ele>729.77999999999997</ele>
        <time>2025-04-24T11:45:54Z</time>
      </trkpt>
      <trkpt lat="45.777831980958581" lon="4.439791012555361">
        <ele>728.82000000000005</ele>
        <time>2025-04-24T11:45:55Z</time>
      </trkpt>
      <trkpt lat="45.777758974581957" lon="4.439946999773383">
        <ele>728.34000000000003</ele>
        <time>2025-04-24T11:45:56Z</time>
      </trkpt>
      <trkpt lat="45.777681022882462" lon="4.440115978941321">
        <ele>727.37</ele>
        <time>2025-04-24T11:45:57Z</time>
      </trkpt>
      <trkpt lat="45.777604999020696" lon="4.440279006958008">
        <ele>726.40999999999997</ele>
        <time>2025-04-24T11:45:58Z</time>
      </trkpt>
      <trkpt lat="45.777472984045744" lon="4.440367016941309">
        <ele>725.92999999999995</ele>
        <time>2025-04-24T11:45:59Z</time>
      </trkpt>
      <trkpt lat="45.777348009869456" lon="4.440451003611088">
        <ele>724.97000000000003</ele>
        <time>2025-04-24T11:46:00Z</time>
      </trkpt>
      <trkpt lat="45.777196967974305" lon="4.440467013046145">
        <ele>724.49000000000001</ele>
        <time>2025-04-24T11:46:01Z</time>
      </trkpt>
      <trkpt lat="45.777039974927902" lon="4.440485034137964">
        <ele>724.00999999999999</ele>
        <time>2025-04-24T11:46:02Z</time>
      </trkpt>
      <trkpt lat="45.776885999366641" lon="4.440469024702907">
        <ele>724.00999999999999</ele>
        <time>2025-04-24T11:46:03Z</time>
      </trkpt>
      <trkpt lat="45.776747027412057" lon="4.44041102193296">
        <ele>723.52999999999997</ele>
        <time>2025-04-24T11:46:04Z</time>
      </trkpt>
      <trkpt lat="45.776628004387021" lon="4.44030499085784">
        <ele>723.04999999999995</ele>
        <time>2025-04-24T11:46:05Z</time>
      </trkpt>
      <trkpt lat="45.776528008282185" lon="4.440161995589733">
        <ele>722.57000000000005</ele>
        <time>2025-04-24T11:46:06Z</time>
      </trkpt>
      <trkpt lat="45.776452990248799" lon="4.440012965351343">
        <ele>722.57000000000005</ele>
        <time>2025-04-24T11:46:07Z</time>
      </trkpt>
      <trkpt lat="45.776357017457485" lon="4.439910035580397">
        <ele>722.09000000000003</ele>
        <time>2025-04-24T11:46:08Z</time>
      </trkpt>
      <trkpt lat="45.776242017745972" lon="4.439844992011786">
        <ele>721.61000000000001</ele>
        <time>2025-04-24T11:46:09Z</time>
      </trkpt>
      <trkpt lat="45.77611000277102" lon="4.43983300589025">
        <ele>721.61000000000001</ele>
        <time>2025-04-24T11:46:10Z</time>
      </trkpt>
      <trkpt lat="45.775962984189391" lon="4.439896959811449">
        <ele>721.61000000000001</ele>
        <time>2025-04-24T11:46:11Z</time>
      </trkpt>
      <trkpt lat="45.775824012234807" lon="4.439994022250176">
        <ele>721.61000000000001</ele>
        <time>2025-04-24T11:46:12Z</time>
      </trkpt>
      <trkpt lat="45.77568001113832" lon="4.440095024183393">
        <ele>721.13</ele>
        <time>2025-04-24T11:46:13Z</time>
      </trkpt>
      <trkpt lat="45.775562999770045" lon="4.440273977816105">
        <ele>720.64999999999998</ele>
        <time>2025-04-24T11:46:14Z</time>
      </trkpt>
      <trkpt lat="45.77546501532197" lon="4.440481010824442">
        <ele>720.64999999999998</ele>
        <time>2025-04-24T11:46:15Z</time>
      </trkpt>
      <trkpt lat="45.775363007560372" lon="4.440698018297553">
        <ele>720.15999999999997</ele>
        <time>2025-04-24T11:46:16Z</time>
      </trkpt>
      <trkpt lat="45.775258988142014" lon="4.440919971093535">
        <ele>719.67999999999995</ele>
        <time>2025-04-24T11:46:17Z</time>
      </trkpt>
      <trkpt lat="45.775058995932341" lon="4.441381981596351">
        <ele>718.72000000000003</ele>
        <time>2025-04-24T11:46:19Z</time>
      </trkpt>
      <trkpt lat="45.774991018697619" lon="4.441640982404351">
        <ele>718.24000000000001</ele>
        <time>2025-04-24T11:46:20Z</time>
      </trkpt>
      <trkpt lat="45.774951037019491" lon="4.441910963505507">
        <ele>717.75999999999999</ele>
        <time>2025-04-24T11:46:21Z</time>
      </trkpt>
      <trkpt lat="45.774907032027841" lon="4.442183962091804">
        <ele>717.27999999999997</ele>
        <time>2025-04-24T11:46:22Z</time>
      </trkpt>
      <trkpt lat="45.774862021207809" lon="4.442458972334862">
        <ele>716.79999999999995</ele>
        <time>2025-04-24T11:46:23Z</time>
      </trkpt>
      <trkpt lat="45.774816004559398" lon="4.442746974527836">
        <ele>715.84000000000003</ele>
        <time>2025-04-24T11:46:24Z</time>
      </trkpt>
      <trkpt lat="45.77473402954638" lon="4.44299197755754">
        <ele>715.36000000000001</ele>
        <time>2025-04-24T11:46:25Z</time>
      </trkpt>
      <trkpt lat="45.774621963500977" lon="4.443261958658695">
        <ele>714.88</ele>
        <time>2025-04-24T11:46:26Z</time>
      </trkpt>
      <trkpt lat="45.774390958249569" lon="4.443964026868343">
        <ele>712.95000000000005</ele>
        <time>2025-04-24T11:46:29Z</time>
      </trkpt>
      <trkpt lat="45.774289034307003" lon="4.444429976865649">
        <ele>711.50999999999999</ele>
        <time>2025-04-24T11:46:31Z</time>
      </trkpt>
      <trkpt lat="45.77422097325325" lon="4.444617982953787">
        <ele>711.02999999999997</ele>
        <time>2025-04-24T11:46:32Z</time>
      </trkpt>
      <trkpt lat="45.77408803626895" lon="4.444714039564133">
        <ele>710.54999999999995</ele>
        <time>2025-04-24T11:46:33Z</time>
      </trkpt>
      <trkpt lat="45.773951997980475" lon="4.444777993485332">
        <ele>710.07000000000005</ele>
        <time>2025-04-24T11:46:34Z</time>
      </trkpt>
      <trkpt lat="45.773801961913705" lon="4.444837002083659">
        <ele>710.07000000000005</ele>
        <time>2025-04-24T11:46:35Z</time>
      </trkpt>
      <trkpt lat="45.773644968867302" lon="4.444899028167129">
        <ele>709.59000000000003</ele>
        <time>2025-04-24T11:46:36Z</time>
      </trkpt>
      <trkpt lat="45.772228008136153" lon="4.445520965382457">
        <ele>711.02999999999997</ele>
        <time>2025-04-24T11:46:44Z</time>
      </trkpt>
      <trkpt lat="45.772046959027648" lon="4.445638982579112">
        <ele>711.02999999999997</ele>
        <time>2025-04-24T11:46:45Z</time>
      </trkpt>
      <trkpt lat="45.771875968202949" lon="4.445750964805484">
        <ele>711.50999999999999</ele>
        <time>2025-04-24T11:46:46Z</time>
      </trkpt>
      <trkpt lat="45.771688967943192" lon="4.445818020030856">
        <ele>711.02999999999997</ele>
        <time>2025-04-24T11:46:47Z</time>
      </trkpt>
      <trkpt lat="45.771500961855054" lon="4.445858001708984">
        <ele>710.54999999999995</ele>
        <time>2025-04-24T11:46:48Z</time>
      </trkpt>
      <trkpt lat="45.771299963817" lon="4.445858001708984">
        <ele>709.59000000000003</ele>
        <time>2025-04-24T11:46:49Z</time>
      </trkpt>
      <trkpt lat="45.771089997142553" lon="4.445858001708984">
        <ele>709.11000000000001</ele>
        <time>2025-04-24T11:46:50Z</time>
      </trkpt>
      <trkpt lat="45.770293967798352" lon="4.445815002545714">
        <ele>706.23000000000002</ele>
        <time>2025-04-24T11:46:54Z</time>
      </trkpt>
      <trkpt lat="45.77013898640871" lon="4.445724980905652">
        <ele>705.75</ele>
        <time>2025-04-24T11:46:55Z</time>
      </trkpt>
      <trkpt lat="45.770010994747281" lon="4.445594977587462">
        <ele>705.25999999999999</ele>
        <time>2025-04-24T11:46:56Z</time>
      </trkpt>
      <trkpt lat="45.769898006692529" lon="4.445429015904665">
        <ele>704.77999999999997</ele>
        <time>2025-04-24T11:46:57Z</time>
      </trkpt>
      <trkpt lat="45.769777977839112" lon="4.445254001766443">
        <ele>704.29999999999995</ele>
        <time>2025-04-24T11:46:58Z</time>
      </trkpt>
      <trkpt lat="45.769410012289882" lon="4.444749997928739">
        <ele>703.34000000000003</ele>
        <time>2025-04-24T11:47:01Z</time>
      </trkpt>
      <trkpt lat="45.769280008971691" lon="4.444630974903703">
        <ele>702.38</ele>
        <time>2025-04-24T11:47:02Z</time>
      </trkpt>
      <trkpt lat="45.769135002046824" lon="4.44460398517549">
        <ele>701.89999999999998</ele>
        <time>2025-04-24T11:47:03Z</time>
      </trkpt>
      <trkpt lat="45.768975997343659" lon="4.444622006267309">
        <ele>701.41999999999996</ele>
        <time>2025-04-24T11:47:04Z</time>
      </trkpt>
      <trkpt lat="45.768810035660863" lon="4.444641033187509">
        <ele>700.94000000000005</ele>
        <time>2025-04-24T11:47:05Z</time>
      </trkpt>
      <trkpt lat="45.768641978502274" lon="4.444682020694017">
        <ele>700.46000000000004</ele>
        <time>2025-04-24T11:47:06Z</time>
      </trkpt>
      <trkpt lat="45.768477022647858" lon="4.44479500874877">
        <ele>700.46000000000004</ele>
        <time>2025-04-24T11:47:07Z</time>
      </trkpt>
      <trkpt lat="45.768312988802791" lon="4.444918977096677">
        <ele>699.5</ele>
        <time>2025-04-24T11:47:08Z</time>
      </trkpt>
      <trkpt lat="45.768165970221162" lon="4.44509600289166">
        <ele>699.01999999999998</ele>
        <time>2025-04-24T11:47:09Z</time>
      </trkpt>
      <trkpt lat="45.768047031015158" lon="4.445304963737726">
        <ele>698.04999999999995</ele>
        <time>2025-04-24T11:47:10Z</time>
      </trkpt>
      <trkpt lat="45.767932031303644" lon="4.445544015616179">
        <ele>697.57000000000005</ele>
        <time>2025-04-24T11:47:11Z</time>
      </trkpt>
      <trkpt lat="45.767817031592131" lon="4.44578398950398">
        <ele>696.61000000000001</ele>
        <time>2025-04-24T11:47:12Z</time>
      </trkpt>
      <trkpt lat="45.767574962228537" lon="4.446230996400118">
        <ele>695.16999999999996</ele>
        <time>2025-04-24T11:47:14Z</time>
      </trkpt>
      <trkpt lat="45.767430039122701" lon="4.446415985003114">
        <ele>694.69000000000005</ele>
        <time>2025-04-24T11:47:15Z</time>
      </trkpt>
      <trkpt lat="45.767286960035563" lon="4.446598961949348">
        <ele>693.73000000000002</ele>
        <time>2025-04-24T11:47:16Z</time>
      </trkpt>
      <trkpt lat="45.767103983089328" lon="4.446715973317623">
        <ele>693.25</ele>
        <time>2025-04-24T11:47:17Z</time>
      </trkpt>
      <trkpt lat="45.766916982829571" lon="4.446817981079221">
        <ele>692.76999999999998</ele>
        <time>2025-04-24T11:47:18Z</time>
      </trkpt>
      <trkpt lat="45.766724031418562" lon="4.44692300632596">
        <ele>692.28999999999996</ele>
        <time>2025-04-24T11:47:19Z</time>
      </trkpt>
      <trkpt lat="45.765613010153174" lon="4.447457017377019">
        <ele>690.36000000000001</ele>
        <time>2025-04-24T11:47:25Z</time>
      </trkpt>
      <trkpt lat="45.765417041257024" lon="4.447509991005063">
        <ele>689.88</ele>
        <time>2025-04-24T11:47:26Z</time>
      </trkpt>
      <trkpt lat="45.765232974663377" lon="4.447509991005063">
        <ele>689.88</ele>
        <time>2025-04-24T11:47:27Z</time>
      </trkpt>
      <trkpt lat="45.765043962746859" lon="4.447466991841793">
        <ele>690.36000000000001</ele>
        <time>2025-04-24T11:47:28Z</time>
      </trkpt>
      <trkpt lat="45.764866014942527" lon="4.447390967980027">
        <ele>690.84000000000003</ele>
        <time>2025-04-24T11:47:29Z</time>
      </trkpt>
      <trkpt lat="45.764692006632686" lon="4.447296001017094">
        <ele>691.33000000000004</ele>
        <time>2025-04-24T11:47:30Z</time>
      </trkpt>
      <trkpt lat="45.764522021636367" lon="4.44720396772027">
        <ele>692.28999999999996</ele>
        <time>2025-04-24T11:47:31Z</time>
      </trkpt>
      <trkpt lat="45.764375003054738" lon="4.447048986330628">
        <ele>692.76999999999998</ele>
        <time>2025-04-24T11:47:32Z</time>
      </trkpt>
      <trkpt lat="45.764240976423025" lon="4.446892999112606">
        <ele>693.25</ele>
        <time>2025-04-24T11:47:33Z</time>
      </trkpt>
      <trkpt lat="45.764151038601995" lon="4.446719996631146">
        <ele>693.73000000000002</ele>
        <time>2025-04-24T11:47:34Z</time>
      </trkpt>
      <trkpt lat="45.764065962284803" lon="4.44655504077673">
        <ele>693.73000000000002</ele>
        <time>2025-04-24T11:47:35Z</time>
      </trkpt>
      <trkpt lat="45.763982981443405" lon="4.446394024416804">
        <ele>694.21000000000004</ele>
        <time>2025-04-24T11:47:36Z</time>
      </trkpt>
      <trkpt lat="45.763900000602007" lon="4.446229990571737">
        <ele>694.21000000000004</ele>
        <time>2025-04-24T11:47:37Z</time>
      </trkpt>
      <trkpt lat="45.763820959255099" lon="4.446076015010476">
        <ele>694.69000000000005</ele>
        <time>2025-04-24T11:47:38Z</time>
      </trkpt>
      <trkpt lat="45.763720041140914" lon="4.445975013077259">
        <ele>694.69000000000005</ele>
        <time>2025-04-24T11:47:39Z</time>
      </trkpt>
      <trkpt lat="45.763618033379316" lon="4.445884991437197">
        <ele>694.69000000000005</ele>
        <time>2025-04-24T11:47:40Z</time>
      </trkpt>
      <trkpt lat="45.763515019789338" lon="4.445794969797134">
        <ele>694.69000000000005</ele>
        <time>2025-04-24T11:47:41Z</time>
      </trkpt>
      <trkpt lat="45.763394990935922" lon="4.445726992562413">
        <ele>694.21000000000004</ele>
        <time>2025-04-24T11:47:42Z</time>
      </trkpt>
      <trkpt lat="45.763270016759634" lon="4.445684999227524">
        <ele>694.21000000000004</ele>
        <time>2025-04-24T11:47:43Z</time>
      </trkpt>
      <trkpt lat="45.761941988021135" lon="4.445286020636559">
        <ele>692.76999999999998</ele>
        <time>2025-04-24T11:47:52Z</time>
      </trkpt>
      <trkpt lat="45.761783989146352" lon="4.44531200453639">
        <ele>692.28999999999996</ele>
        <time>2025-04-24T11:47:53Z</time>
      </trkpt>
      <trkpt lat="45.761634958907962" lon="4.445381993427873">
        <ele>692.28999999999996</ele>
        <time>2025-04-24T11:47:54Z</time>
      </trkpt>
      <trkpt lat="45.761499004438519" lon="4.445473020896316">
        <ele>691.80999999999995</ele>
        <time>2025-04-24T11:47:55Z</time>
      </trkpt>
      <trkpt lat="45.761381993070245" lon="4.445605035871267">
        <ele>691.80999999999995</ele>
        <time>2025-04-24T11:47:56Z</time>
      </trkpt>
      <trkpt lat="45.761293983086944" lon="4.445770997554064">
        <ele>692.28999999999996</ele>
        <time>2025-04-24T11:47:57Z</time>
      </trkpt>
      <trkpt lat="45.761236986145377" lon="4.445959003642201">
        <ele>692.28999999999996</ele>
        <time>2025-04-24T11:47:58Z</time>
      </trkpt>
      <trkpt lat="45.761179989203811" lon="4.4461490213871">
        <ele>692.28999999999996</ele>
        <time>2025-04-24T11:47:59Z</time>
      </trkpt>
      <trkpt lat="45.761120980605483" lon="4.446345996111631">
        <ele>692.28999999999996</ele>
        <time>2025-04-24T11:48:00Z</time>
      </trkpt>
      <trkpt lat="45.761061972007155" lon="4.446541965007782">
        <ele>691.80999999999995</ele>
        <time>2025-04-24T11:48:01Z</time>
      </trkpt>
      <trkpt lat="45.760968010872602" lon="4.446705998852849">
        <ele>691.80999999999995</ele>
        <time>2025-04-24T11:48:02Z</time>
      </trkpt>
      <trkpt lat="45.760852005332708" lon="4.446828961372376">
        <ele>691.33000000000004</ele>
        <time>2025-04-24T11:48:03Z</time>
      </trkpt>
      <trkpt lat="45.760731976479292" lon="4.446957958862186">
        <ele>691.33000000000004</ele>
        <time>2025-04-24T11:48:04Z</time>
      </trkpt>
      <trkpt lat="45.760580012574792" lon="4.44705200381577">
        <ele>691.33000000000004</ele>
        <time>2025-04-24T11:48:05Z</time>
      </trkpt>
      <trkpt lat="45.760391000658274" lon="4.447145964950323">
        <ele>691.33000000000004</ele>
        <time>2025-04-24T11:48:06Z</time>
      </trkpt>
      <trkpt lat="45.76016996987164" lon="4.447254007682204">
        <ele>691.33000000000004</ele>
        <time>2025-04-24T11:48:07Z</time>
      </trkpt>
      <trkpt lat="45.759280985221267" lon="4.447660027071834">
        <ele>690.84000000000003</ele>
        <time>2025-04-24T11:48:11Z</time>
      </trkpt>
      <trkpt lat="45.759099014103413" lon="4.447604035958648">
        <ele>690.36000000000001</ele>
        <time>2025-04-24T11:48:12Z</time>
      </trkpt>
      <trkpt lat="45.758926011621952" lon="4.447533041238785">
        <ele>689.88</ele>
        <time>2025-04-24T11:48:13Z</time>
      </trkpt>
      <trkpt lat="45.758748985826969" lon="4.447457017377019">
        <ele>689.88</ele>
        <time>2025-04-24T11:48:14Z</time>
      </trkpt>
      <trkpt lat="45.75857900083065" lon="4.447347968816757">
        <ele>689.88</ele>
        <time>2025-04-24T11:48:15Z</time>
      </trkpt>
      <trkpt lat="45.758253028616309" lon="4.44713800214231">
        <ele>689.88</ele>
        <time>2025-04-24T11:48:17Z</time>
      </trkpt>
      <trkpt lat="45.7581050042063" lon="4.447076981887221">
        <ele>689.39999999999998</ele>
        <time>2025-04-24T11:48:18Z</time>
      </trkpt>
      <trkpt lat="45.757939964532852" lon="4.447066001594067">
        <ele>688.91999999999996</ele>
        <time>2025-04-24T11:48:19Z</time>
      </trkpt>
      <trkpt lat="45.757775008678436" lon="4.447070024907589">
        <ele>688.44000000000005</ele>
        <time>2025-04-24T11:48:20Z</time>
      </trkpt>
      <trkpt lat="45.757594965398312" lon="4.447098020464182">
        <ele>687.48000000000002</ele>
        <time>2025-04-24T11:48:21Z</time>
      </trkpt>
      <trkpt lat="45.757406959310174" lon="4.447128027677536">
        <ele>687</ele>
        <time>2025-04-24T11:48:22Z</time>
      </trkpt>
      <trkpt lat="45.757215013727546" lon="4.44715803489089">
        <ele>686.03999999999996</ele>
        <time>2025-04-24T11:48:23Z</time>
      </trkpt>
      <trkpt lat="45.757023990154266" lon="4.44711402989924">
        <ele>684.60000000000002</ele>
        <time>2025-04-24T11:48:24Z</time>
      </trkpt>
      <trkpt lat="45.756833972409368" lon="4.447038006037474">
        <ele>683.63</ele>
        <time>2025-04-24T11:48:25Z</time>
      </trkpt>
      <trkpt lat="45.7566440384835" lon="4.446931974962354">
        <ele>682.66999999999996</ele>
        <time>2025-04-24T11:48:26Z</time>
      </trkpt>
      <trkpt lat="45.755423968657851" lon="4.446313977241516">
        <ele>679.30999999999995</ele>
        <time>2025-04-24T11:48:33Z</time>
      </trkpt>
      <trkpt lat="45.754075990989804" lon="4.446060005575419">
        <ele>676.41999999999996</ele>
        <time>2025-04-24T11:48:41Z</time>
      </trkpt>
      <trkpt lat="45.753922015428543" lon="4.446068974211812">
        <ele>676.41999999999996</ele>
        <time>2025-04-24T11:48:42Z</time>
      </trkpt>
      <trkpt lat="45.753763010725379" lon="4.446118008345366">
        <ele>675.94000000000005</ele>
        <time>2025-04-24T11:48:43Z</time>
      </trkpt>
      <trkpt lat="45.753616997972131" lon="4.446184979751706">
        <ele>675.94000000000005</ele>
        <time>2025-04-24T11:48:44Z</time>
      </trkpt>
      <trkpt lat="45.753488000482321" lon="4.446285981684923">
        <ele>675.94000000000005</ele>
        <time>2025-04-24T11:48:45Z</time>
      </trkpt>
      <trkpt lat="45.753379035741091" lon="4.446427971124649">
        <ele>675.46000000000004</ele>
        <time>2025-04-24T11:48:46Z</time>
      </trkpt>
      <trkpt lat="45.753289014101028" lon="4.446608014404774">
        <ele>674.98000000000002</ele>
        <time>2025-04-24T11:48:47Z</time>
      </trkpt>
      <trkpt lat="45.753193963319063" lon="4.44681303575635">
        <ele>674.98000000000002</ele>
        <time>2025-04-24T11:48:48Z</time>
      </trkpt>
      <trkpt lat="45.753094973042607" lon="4.447027025744319">
        <ele>674.5</ele>
        <time>2025-04-24T11:48:49Z</time>
      </trkpt>
      <trkpt lat="45.752737987786531" lon="4.448016006499529">
        <ele>674.5</ele>
        <time>2025-04-24T11:48:53Z</time>
      </trkpt>
      <trkpt lat="45.752679985016584" lon="4.448301997035742">
        <ele>674.01999999999998</ele>
        <time>2025-04-24T11:48:54Z</time>
      </trkpt>
      <trkpt lat="45.752657018601894" lon="4.448583964258432">
        <ele>673.53999999999996</ele>
        <time>2025-04-24T11:48:55Z</time>
      </trkpt>
      <trkpt lat="45.752637991681695" lon="4.448875989764929">
        <ele>673.53999999999996</ele>
        <time>2025-04-24T11:48:56Z</time>
      </trkpt>
      <trkpt lat="45.75264997780323" lon="4.449159968644381">
        <ele>673.05999999999995</ele>
        <time>2025-04-24T11:48:57Z</time>
      </trkpt>
      <trkpt lat="45.752699011936784" lon="4.449443025514484">
        <ele>672.58000000000004</ele>
        <time>2025-04-24T11:48:58Z</time>
      </trkpt>
      <trkpt lat="45.752747962251306" lon="4.449729016050696">
        <ele>672.58000000000004</ele>
        <time>2025-04-24T11:48:59Z</time>
      </trkpt>
      <trkpt lat="45.752796996384859" lon="4.450014000758529">
        <ele>672.58000000000004</ele>
        <time>2025-04-24T11:49:00Z</time>
      </trkpt>
      <trkpt lat="45.753020038828254" lon="4.45149902254343">
        <ele>671.13999999999999</ele>
        <time>2025-04-24T11:49:06Z</time>
      </trkpt>
      <trkpt lat="45.753032024949789" lon="4.451732961460948">
        <ele>670.65999999999997</ele>
        <time>2025-04-24T11:49:07Z</time>
      </trkpt>
      <trkpt lat="45.753007968887687" lon="4.451987016946077">
        <ele>670.17999999999995</ele>
        <time>2025-04-24T11:49:08Z</time>
      </trkpt>
      <trkpt lat="45.752958012744784" lon="4.452238976955414">
        <ele>669.22000000000003</ele>
        <time>2025-04-24T11:49:09Z</time>
      </trkpt>
      <trkpt lat="45.752870002761483" lon="4.452472999691963">
        <ele>668.73000000000002</ele>
        <time>2025-04-24T11:49:10Z</time>
      </trkpt>
      <trkpt lat="45.752773024141788" lon="4.452696964144707">
        <ele>668.25</ele>
        <time>2025-04-24T11:49:11Z</time>
      </trkpt>
      <trkpt lat="45.752635980024934" lon="4.452885976061225">
        <ele>667.76999999999998</ele>
        <time>2025-04-24T11:49:12Z</time>
      </trkpt>
      <trkpt lat="45.752494996413589" lon="4.453079011291266">
        <ele>667.28999999999996</ele>
        <time>2025-04-24T11:49:13Z</time>
      </trkpt>
      <trkpt lat="45.752352001145482" lon="4.453274980187416">
        <ele>667.28999999999996</ele>
        <time>2025-04-24T11:49:14Z</time>
      </trkpt>
      <trkpt lat="45.752063998952508" lon="4.45366901345551">
        <ele>666.80999999999995</ele>
        <time>2025-04-24T11:49:16Z</time>
      </trkpt>
      <trkpt lat="45.751943970099092" lon="4.453900018706918">
        <ele>666.80999999999995</ele>
        <time>2025-04-24T11:49:17Z</time>
      </trkpt>
      <trkpt lat="45.751160010695457" lon="4.455629037693143">
        <ele>665.85000000000002</ele>
        <time>2025-04-24T11:49:25Z</time>
      </trkpt>
      <trkpt lat="45.750917019322515" lon="4.456306966021657">
        <ele>666.80999999999995</ele>
        <time>2025-04-24T11:49:28Z</time>
      </trkpt>
      <trkpt lat="45.750362975522876" lon="4.457889972254634">
        <ele>670.65999999999997</ele>
        <time>2025-04-24T11:49:35Z</time>
      </trkpt>
      <trkpt lat="45.749667026102543" lon="4.459139965474606">
        <ele>669.70000000000005</ele>
        <time>2025-04-24T11:49:42Z</time>
      </trkpt>
      <trkpt lat="45.749410036951303" lon="4.45942603982985">
        <ele>669.70000000000005</ele>
        <time>2025-04-24T11:49:44Z</time>
      </trkpt>
      <trkpt lat="45.749276010319591" lon="4.459572974592447">
        <ele>669.22000000000003</ele>
        <time>2025-04-24T11:49:45Z</time>
      </trkpt>
      <trkpt lat="45.749128991737962" lon="4.459681017324328">
        <ele>669.22000000000003</ele>
        <time>2025-04-24T11:49:46Z</time>
      </trkpt>
      <trkpt lat="45.748982978984714" lon="4.459787970408797">
        <ele>669.22000000000003</ele>
        <time>2025-04-24T11:49:47Z</time>
      </trkpt>
      <trkpt lat="45.74882498010993" lon="4.459866005927324">
        <ele>668.73000000000002</ele>
        <time>2025-04-24T11:49:48Z</time>
      </trkpt>
      <trkpt lat="45.747478008270264" lon="4.460427006706595">
        <ele>668.25</ele>
        <time>2025-04-24T11:49:56Z</time>
      </trkpt>
      <trkpt lat="45.747278016060591" lon="4.46045701391995">
        <ele>667.76999999999998</ele>
        <time>2025-04-24T11:49:57Z</time>
      </trkpt>
      <trkpt lat="45.747069977223873" lon="4.460469000041485">
        <ele>667.28999999999996</ele>
        <time>2025-04-24T11:49:58Z</time>
      </trkpt>
      <trkpt lat="45.746860010549426" lon="4.46045801974833">
        <ele>666.80999999999995</ele>
        <time>2025-04-24T11:49:59Z</time>
      </trkpt>
      <trkpt lat="45.746644008904696" lon="4.460444021970034">
        <ele>666.80999999999995</ele>
        <time>2025-04-24T11:50:00Z</time>
      </trkpt>
      <trkpt lat="45.745509015396237" lon="4.460482997819781">
        <ele>667.28999999999996</ele>
        <time>2025-04-24T11:50:06Z</time>
      </trkpt>
      <trkpt lat="45.744405034929514" lon="4.460830008611083">
        <ele>670.17999999999995</ele>
        <time>2025-04-24T11:50:14Z</time>
      </trkpt>
      <trkpt lat="45.743739008903503" lon="4.461108036339283">
        <ele>671.62</ele>
        <time>2025-04-24T11:50:21Z</time>
      </trkpt>
      <trkpt lat="45.743423011153936" lon="4.461285984143615">
        <ele>670.65999999999997</ele>
        <time>2025-04-24T11:50:27Z</time>
      </trkpt>
      <trkpt lat="45.743374982848763" lon="4.461335018277168">
        <ele>670.17999999999995</ele>
        <time>2025-04-24T11:50:28Z</time>
      </trkpt>
      <trkpt lat="45.743315974250436" lon="4.461393021047115">
        <ele>670.17999999999995</ele>
        <time>2025-04-24T11:50:29Z</time>
      </trkpt>
      <trkpt lat="45.743260988965631" lon="4.461431996896863">
        <ele>669.70000000000005</ele>
        <time>2025-04-24T11:50:30Z</time>
      </trkpt>
      <trkpt lat="45.743200974538922" lon="4.461474996060133">
        <ele>669.70000000000005</ele>
        <time>2025-04-24T11:50:31Z</time>
      </trkpt>
      <trkpt lat="45.742628993466496" lon="4.461886966601014">
        <ele>665.37</ele>
        <time>2025-04-24T11:50:40Z</time>
      </trkpt>
      <trkpt lat="45.742581970989704" lon="4.461917979642749">
        <ele>664.88999999999999</ele>
        <time>2025-04-24T11:50:41Z</time>
      </trkpt>
      <trkpt lat="45.742522040382028" lon="4.461957961320877">
        <ele>664.40999999999997</ele>
        <time>2025-04-24T11:50:42Z</time>
      </trkpt>
      <trkpt lat="45.742324981838465" lon="4.462089976295829">
        <ele>662.97000000000003</ele>
        <time>2025-04-24T11:50:45Z</time>
      </trkpt>
      <trkpt lat="45.741971014067531" lon="4.462334979325533">
        <ele>659.60000000000002</ele>
        <time>2025-04-24T11:50:50Z</time>
      </trkpt>
      <trkpt lat="45.741900019347668" lon="4.462386025115848">
        <ele>659.12</ele>
        <time>2025-04-24T11:50:51Z</time>
      </trkpt>
      <trkpt lat="45.741831036284566" lon="4.462436987087131">
        <ele>658.63999999999999</ele>
        <time>2025-04-24T11:50:52Z</time>
      </trkpt>
      <trkpt lat="45.741760963574052" lon="4.462487027049065">
        <ele>658.15999999999997</ele>
        <time>2025-04-24T11:50:53Z</time>
      </trkpt>
      <trkpt lat="45.741688963025808" lon="4.462540000677109">
        <ele>658.15999999999997</ele>
        <time>2025-04-24T11:50:54Z</time>
      </trkpt>
      <trkpt lat="45.741617968305945" lon="4.462591968476772">
        <ele>658.15999999999997</ele>
        <time>2025-04-24T11:50:55Z</time>
      </trkpt>
      <trkpt lat="45.741001982241869" lon="4.463041992858052">
        <ele>654.30999999999995</ele>
        <time>2025-04-24T11:51:03Z</time>
      </trkpt>
      <trkpt lat="45.740576013922691" lon="4.46329596452415">
        <ele>652.87</ele>
        <time>2025-04-24T11:51:09Z</time>
      </trkpt>
      <trkpt lat="45.740431006997824" lon="4.463322032243013">
        <ele>652.38999999999999</ele>
        <time>2025-04-24T11:51:11Z</time>
      </trkpt>
      <trkpt lat="45.740218022838235" lon="4.46331599727273">
        <ele>651.90999999999997</ele>
        <time>2025-04-24T11:51:14Z</time>
      </trkpt>
      <trkpt lat="45.739828012883663" lon="4.463304011151195">
        <ele>650.47000000000003</ele>
        <time>2025-04-24T11:51:20Z</time>
      </trkpt>
      <trkpt lat="45.73979901149869" lon="4.463225975632668">
        <ele>650.47000000000003</ele>
        <time>2025-04-24T11:51:21Z</time>
      </trkpt>
      <trkpt lat="45.739802028983831" lon="4.463148023933172">
        <ele>649.99000000000001</ele>
        <time>2025-04-24T11:51:22Z</time>
      </trkpt>
      <trkpt lat="45.739804962649941" lon="4.463055990636349">
        <ele>649.50999999999999</ele>
        <time>2025-04-24T11:51:23Z</time>
      </trkpt>
      <trkpt lat="45.739808985963464" lon="4.462957000359893">
        <ele>649.50999999999999</ele>
        <time>2025-04-24T11:51:24Z</time>
      </trkpt>
      <trkpt lat="45.739812003448606" lon="4.462851975113154">
        <ele>649.02999999999997</ele>
        <time>2025-04-24T11:51:25Z</time>
      </trkpt>
      <trkpt lat="45.739816026762128" lon="4.462743010371923">
        <ele>648.54999999999995</ele>
        <time>2025-04-24T11:51:26Z</time>
      </trkpt>
      <trkpt lat="45.739834969863296" lon="4.46262801066041">
        <ele>647.59000000000003</ele>
        <time>2025-04-24T11:51:27Z</time>
      </trkpt>
      <trkpt lat="45.739899007603526" lon="4.462426006793976">
        <ele>646.13999999999999</ele>
        <time>2025-04-24T11:51:29Z</time>
      </trkpt>
      <trkpt lat="45.73992901481688" lon="4.462329028174281">
        <ele>645.65999999999997</ele>
        <time>2025-04-24T11:51:30Z</time>
      </trkpt>
      <trkpt lat="45.739978970959783" lon="4.462245041504502">
        <ele>644.70000000000005</ele>
        <time>2025-04-24T11:51:31Z</time>
      </trkpt>
      <trkpt lat="45.74003697372973" lon="4.462192989885807">
        <ele>643.74000000000001</ele>
        <time>2025-04-24T11:51:32Z</time>
      </trkpt>
      <trkpt lat="45.74010000564158" lon="4.462136998772621">
        <ele>643.25999999999999</ele>
        <time>2025-04-24T11:51:33Z</time>
      </trkpt>
      <trkpt lat="45.740172006189823" lon="4.462086036801338">
        <ele>642.77999999999997</ele>
        <time>2025-04-24T11:51:34Z</time>
      </trkpt>
      <trkpt lat="45.740243000909686" lon="4.462049994617701">
        <ele>642.29999999999995</ele>
        <time>2025-04-24T11:51:35Z</time>
      </trkpt>
      <trkpt lat="45.740317013114691" lon="4.461991991847754">
        <ele>641.82000000000005</ele>
        <time>2025-04-24T11:51:36Z</time>
      </trkpt>
      <trkpt lat="45.74033796787262" lon="4.461900964379311">
        <ele>642.29999999999995</ele>
        <time>2025-04-24T11:51:37Z</time>
      </trkpt>
      <trkpt lat="45.740356994792819" lon="4.461818989366293">
        <ele>642.29999999999995</ele>
        <time>2025-04-24T11:51:38Z</time>
      </trkpt>
      <trkpt lat="45.740370992571115" lon="4.461756963282824">
        <ele>642.77999999999997</ele>
        <time>2025-04-24T11:51:39Z</time>
      </trkpt>
      <trkpt lat="45.740376021713018" lon="4.461737014353275">
        <ele>642.77999999999997</ele>
        <time>2025-04-24T11:51:40Z</time>
      </trkpt>
      <trkpt lat="45.740376021713018" lon="4.461737014353275">
        <ele>642.77999999999997</ele>
        <time>2025-04-24T11:51:41Z</time>
      </trkpt>
      <trkpt lat="45.740376021713018" lon="4.461737014353275">
        <ele>643.25999999999999</ele>
        <time>2025-04-24T11:51:42Z</time>
      </trkpt>
      <trkpt lat="45.740475011989474" lon="4.461579015478492">
        <ele>643.25999999999999</ele>
        <time>2025-04-24T11:51:43Z</time>
      </trkpt>
      <trkpt lat="45.740462020039558" lon="4.461457980796695">
        <ele>643.74000000000001</ele>
        <time>2025-04-24T11:51:44Z</time>
      </trkpt>
      <trkpt lat="45.740462020039558" lon="4.461385980248451">
        <ele>643.74000000000001</ele>
        <time>2025-04-24T11:51:45Z</time>
      </trkpt>
      <trkpt lat="45.74046696536243" lon="4.461142988875508">
        <ele>644.70000000000005</ele>
        <time>2025-04-24T11:51:47Z</time>
      </trkpt>
      <trkpt lat="45.740505019202828" lon="4.461022038012743">
        <ele>645.17999999999995</ele>
        <time>2025-04-24T11:51:48Z</time>
      </trkpt>
      <trkpt lat="45.740546006709337" lon="4.460893962532282">
        <ele>645.65999999999997</ele>
        <time>2025-04-24T11:51:49Z</time>
      </trkpt>
      <trkpt lat="45.740783968940377" lon="4.460099022835493">
        <ele>645.65999999999997</ele>
        <time>2025-04-24T11:51:55Z</time>
      </trkpt>
      <trkpt lat="45.740783968940377" lon="4.459999026730657">
        <ele>645.65999999999997</ele>
        <time>2025-04-24T11:51:56Z</time>
      </trkpt>
      <trkpt lat="45.740743987262249" lon="4.459919985383749">
        <ele>645.65999999999997</ele>
        <time>2025-04-24T11:51:57Z</time>
      </trkpt>
      <trkpt lat="45.740704005584121" lon="4.459861982613802">
        <ele>645.65999999999997</ele>
        <time>2025-04-24T11:51:58Z</time>
      </trkpt>
      <trkpt lat="45.740635022521019" lon="4.459823006764054">
        <ele>645.17999999999995</ele>
        <time>2025-04-24T11:51:59Z</time>
      </trkpt>
      <trkpt lat="45.740556987002492" lon="4.459780007600784">
        <ele>645.17999999999995</ele>
        <time>2025-04-24T11:52:00Z</time>
      </trkpt>
      <trkpt lat="45.740482974797487" lon="4.459757963195443">
        <ele>644.70000000000005</ele>
        <time>2025-04-24T11:52:01Z</time>
      </trkpt>
      <trkpt lat="45.740396976470947" lon="4.45975000038743">
        <ele>644.70000000000005</ele>
        <time>2025-04-24T11:52:02Z</time>
      </trkpt>
      <trkpt lat="45.740311983972788" lon="4.459741031751037">
        <ele>643.74000000000001</ele>
        <time>2025-04-24T11:52:03Z</time>
      </trkpt>
      <trkpt lat="45.740225985646248" lon="4.459759974852204">
        <ele>643.74000000000001</ele>
        <time>2025-04-24T11:52:04Z</time>
      </trkpt>
      <trkpt lat="45.740119032561779" lon="4.459784030914307">
        <ele>643.25999999999999</ele>
        <time>2025-04-24T11:52:05Z</time>
      </trkpt>
      <trkpt lat="45.740046026185155" lon="4.459808003157377">
        <ele>642.77999999999997</ele>
        <time>2025-04-24T11:52:06Z</time>
      </trkpt>
      <trkpt lat="45.739697003737092" lon="4.459982011467218">
        <ele>641.34000000000003</ele>
        <time>2025-04-24T11:52:10Z</time>
      </trkpt>
      <trkpt lat="45.739616034552455" lon="4.460056023672223">
        <ele>640.86000000000001</ele>
        <time>2025-04-24T11:52:11Z</time>
      </trkpt>
      <trkpt lat="45.739545039832592" lon="4.46013699285686">
        <ele>640.38</ele>
        <time>2025-04-24T11:52:12Z</time>
      </trkpt>
      <trkpt lat="45.739487037062645" lon="4.460252998396754">
        <ele>639.88999999999999</ele>
        <time>2025-04-24T11:52:13Z</time>
      </trkpt>
      <trkpt lat="45.739430040121078" lon="4.460367998108268">
        <ele>638.92999999999995</ele>
        <time>2025-04-24T11:52:14Z</time>
      </trkpt>
      <trkpt lat="45.739383017644286" lon="4.460484003648162">
        <ele>637.97000000000003</ele>
        <time>2025-04-24T11:52:15Z</time>
      </trkpt>
      <trkpt lat="45.739210015162826" lon="4.460970992222428">
        <ele>634.61000000000001</ele>
        <time>2025-04-24T11:52:22Z</time>
      </trkpt>
      <trkpt lat="45.739141032099724" lon="4.460990019142628">
        <ele>634.61000000000001</ele>
        <time>2025-04-24T11:52:23Z</time>
      </trkpt>
      <trkpt lat="45.739122005179524" lon="4.460944002494216">
        <ele>634.13</ele>
        <time>2025-04-24T11:52:24Z</time>
      </trkpt>
      <trkpt lat="45.739098032936454" lon="4.460885999724269">
        <ele>633.64999999999998</ele>
        <time>2025-04-24T11:52:25Z</time>
      </trkpt>
      <trkpt lat="45.73907196521759" lon="4.460822967812419">
        <ele>633.16999999999996</ele>
        <time>2025-04-24T11:52:26Z</time>
      </trkpt>
      <trkpt lat="45.739044975489378" lon="4.46075800806284">
        <ele>632.67999999999995</ele>
        <time>2025-04-24T11:52:27Z</time>
      </trkpt>
      <trkpt lat="45.739015974104404" lon="4.460686007514596">
        <ele>632.20000000000005</ele>
        <time>2025-04-24T11:52:28Z</time>
      </trkpt>
      <trkpt lat="45.738840037956834" lon="4.460172029212117">
        <ele>628.36000000000001</ele>
        <time>2025-04-24T11:52:34Z</time>
      </trkpt>
      <trkpt lat="45.738822016865015" lon="4.460082007572055">
        <ele>627.88</ele>
        <time>2025-04-24T11:52:35Z</time>
      </trkpt>
      <trkpt lat="45.73881003074348" lon="4.45998502895236">
        <ele>626.91999999999996</ele>
        <time>2025-04-24T11:52:36Z</time>
      </trkpt>
      <trkpt lat="45.73881003074348" lon="4.459881009534001">
        <ele>626.44000000000005</ele>
        <time>2025-04-24T11:52:37Z</time>
      </trkpt>
      <trkpt lat="45.73881003074348" lon="4.459766009822488">
        <ele>625.96000000000004</ele>
        <time>2025-04-24T11:52:38Z</time>
      </trkpt>
      <trkpt lat="45.73881003074348" lon="4.459369964897633">
        <ele>623.54999999999995</ele>
        <time>2025-04-24T11:52:41Z</time>
      </trkpt>
      <trkpt lat="45.738870967179537" lon="4.458835031837225">
        <ele>619.71000000000004</ele>
        <time>2025-04-24T11:52:45Z</time>
      </trkpt>
      <trkpt lat="45.738966017961502" lon="4.458172023296356">
        <ele>612.98000000000002</ele>
        <time>2025-04-24T11:52:51Z</time>
      </trkpt>
      <trkpt lat="45.738975992426276" lon="4.458103040233254">
        <ele>611.53999999999996</ele>
        <time>2025-04-24T11:52:52Z</time>
      </trkpt>
      <trkpt lat="45.738981021568179" lon="4.458065992221236">
        <ele>610.57000000000005</ele>
        <time>2025-04-24T11:52:53Z</time>
      </trkpt>
      <trkpt lat="45.738970041275024" lon="4.458027016371489">
        <ele>609.61000000000001</ele>
        <time>2025-04-24T11:52:54Z</time>
      </trkpt>
      <trkpt lat="45.738960988819599" lon="4.457997009158135">
        <ele>608.64999999999998</ele>
        <time>2025-04-24T11:52:55Z</time>
      </trkpt>
      <trkpt lat="45.738953026011586" lon="4.457969013601542">
        <ele>607.69000000000005</ele>
        <time>2025-04-24T11:52:56Z</time>
      </trkpt>
      <trkpt lat="45.73891899548471" lon="4.457849990576506">
        <ele>604.80999999999995</ele>
        <time>2025-04-24T11:53:04Z</time>
      </trkpt>
      <trkpt lat="45.738863004371524" lon="4.457810008898377">
        <ele>604.33000000000004</ele>
        <time>2025-04-24T11:53:05Z</time>
      </trkpt>
      <trkpt lat="45.738820005208254" lon="4.457868011668325">
        <ele>604.33000000000004</ele>
        <time>2025-04-24T11:53:06Z</time>
      </trkpt>
      <trkpt lat="45.738762002438307" lon="4.45794596336782">
        <ele>603.85000000000002</ele>
        <time>2025-04-24T11:53:07Z</time>
      </trkpt>
      <trkpt lat="45.738694025203586" lon="4.458036990836263">
        <ele>603.85000000000002</ele>
        <time>2025-04-24T11:53:08Z</time>
      </trkpt>
      <trkpt lat="45.738615989685059" lon="4.458142016083002">
        <ele>603.85000000000002</ele>
        <time>2025-04-24T11:53:09Z</time>
      </trkpt>
      <trkpt lat="45.737787019461393" lon="4.45925303734839">
        <ele>603.36000000000001</ele>
        <time>2025-04-24T11:53:17Z</time>
      </trkpt>
      <trkpt lat="45.736538032069802" lon="4.460917012766004">
        <ele>603.36000000000001</ele>
        <time>2025-04-24T11:53:28Z</time>
      </trkpt>
      <trkpt lat="45.735796988010406" lon="4.462290974333882">
        <ele>601.91999999999996</ele>
        <time>2025-04-24T11:53:35Z</time>
      </trkpt>
      <trkpt lat="45.735374037176371" lon="4.463996021077037">
        <ele>602.39999999999998</ele>
        <time>2025-04-24T11:53:42Z</time>
      </trkpt>
      <trkpt lat="45.735290972515941" lon="4.465439971536398">
        <ele>602.88</ele>
        <time>2025-04-24T11:53:49Z</time>
      </trkpt>
      <trkpt lat="45.735316034406424" lon="4.465634012594819">
        <ele>603.36000000000001</ele>
        <time>2025-04-24T11:53:50Z</time>
      </trkpt>
      <trkpt lat="45.735355010256171" lon="4.465816989541054">
        <ele>603.36000000000001</ele>
        <time>2025-04-24T11:53:51Z</time>
      </trkpt>
      <trkpt lat="45.735397003591061" lon="4.465969037264586">
        <ele>603.85000000000002</ele>
        <time>2025-04-24T11:53:52Z</time>
      </trkpt>
      <trkpt lat="45.7353759650141" lon="4.466140028089285">
        <ele>604.33000000000004</ele>
        <time>2025-04-24T11:53:53Z</time>
      </trkpt>
      <trkpt lat="45.7353759650141" lon="4.466220997273922">
        <ele>604.80999999999995</ele>
        <time>2025-04-24T11:53:54Z</time>
      </trkpt>
      <trkpt lat="45.735365990549326" lon="4.466327028349042">
        <ele>604.80999999999995</ele>
        <time>2025-04-24T11:53:55Z</time>
      </trkpt>
      <trkpt lat="45.735355010256171" lon="4.466435993090272">
        <ele>605.28999999999996</ele>
        <time>2025-04-24T11:53:56Z</time>
      </trkpt>
      <trkpt lat="45.735302958637476" lon="4.466455020010471">
        <ele>605.76999999999998</ele>
        <time>2025-04-24T11:53:57Z</time>
      </trkpt>
      <trkpt lat="45.735216038301587" lon="4.466486033052206">
        <ele>605.76999999999998</ele>
        <time>2025-04-24T11:53:58Z</time>
      </trkpt>
      <trkpt lat="45.735109001398087" lon="4.466521991416812">
        <ele>606.25</ele>
        <time>2025-04-24T11:53:59Z</time>
      </trkpt>
      <trkpt lat="45.734986960887909" lon="4.466521991416812">
        <ele>606.73000000000002</ele>
        <time>2025-04-24T11:54:00Z</time>
      </trkpt>
      <trkpt lat="45.734857963398099" lon="4.466521991416812">
        <ele>606.73000000000002</ele>
        <time>2025-04-24T11:54:01Z</time>
      </trkpt>
      <trkpt lat="45.734725026413798" lon="4.46655803360045">
        <ele>606.25</ele>
        <time>2025-04-24T11:54:02Z</time>
      </trkpt>
      <trkpt lat="45.734587982296944" lon="4.466611007228494">
        <ele>606.73000000000002</ele>
        <time>2025-04-24T11:54:03Z</time>
      </trkpt>
      <trkpt lat="45.734451021999121" lon="4.466664986684918">
        <ele>606.25</ele>
        <time>2025-04-24T11:54:04Z</time>
      </trkpt>
      <trkpt lat="45.734325964003801" lon="4.466757019981742">
        <ele>605.28999999999996</ele>
        <time>2025-04-24T11:54:05Z</time>
      </trkpt>
      <trkpt lat="45.734207024797797" lon="4.466851986944675">
        <ele>604.80999999999995</ele>
        <time>2025-04-24T11:54:06Z</time>
      </trkpt>
      <trkpt lat="45.734094958752394" lon="4.466949971392751">
        <ele>604.33000000000004</ele>
        <time>2025-04-24T11:54:07Z</time>
      </trkpt>
      <trkpt lat="45.734000997617841" lon="4.467072011902928">
        <ele>603.85000000000002</ele>
        <time>2025-04-24T11:54:08Z</time>
      </trkpt>
      <trkpt lat="45.733895972371101" lon="4.467207966372371">
        <ele>603.36000000000001</ele>
        <time>2025-04-24T11:54:09Z</time>
      </trkpt>
      <trkpt lat="45.733818020671606" lon="4.46733201853931">
        <ele>602.39999999999998</ele>
        <time>2025-04-24T11:54:10Z</time>
      </trkpt>
      <trkpt lat="45.733471009880304" lon="4.467895030975342">
        <ele>599.51999999999998</ele>
        <time>2025-04-24T11:54:14Z</time>
      </trkpt>
      <trkpt lat="45.733366990461946" lon="4.468015981838107">
        <ele>598.55999999999995</ele>
        <time>2025-04-24T11:54:15Z</time>
      </trkpt>
      <trkpt lat="45.73324897326529" lon="4.468103991821408">
        <ele>597.60000000000002</ele>
        <time>2025-04-24T11:54:16Z</time>
      </trkpt>
      <trkpt lat="45.7331189699471" lon="4.468146990984678">
        <ele>596.14999999999998</ele>
        <time>2025-04-24T11:54:17Z</time>
      </trkpt>
      <trkpt lat="45.732992989942431" lon="4.468163000419736">
        <ele>595.19000000000005</ele>
        <time>2025-04-24T11:54:18Z</time>
      </trkpt>
      <trkpt lat="45.732862986624241" lon="4.46812896989286">
        <ele>593.75</ele>
        <time>2025-04-24T11:54:19Z</time>
      </trkpt>
      <trkpt lat="45.732746981084347" lon="4.468041965737939">
        <ele>592.78999999999996</ele>
        <time>2025-04-24T11:54:20Z</time>
      </trkpt>
      <trkpt lat="45.732651008293033" lon="4.467925960198045">
        <ele>591.35000000000002</ele>
        <time>2025-04-24T11:54:21Z</time>
      </trkpt>
      <trkpt lat="45.732570039108396" lon="4.467778019607067">
        <ele>590.87</ele>
        <time>2025-04-24T11:54:22Z</time>
      </trkpt>
      <trkpt lat="45.732484962791204" lon="4.467624966055155">
        <ele>589.90999999999997</ele>
        <time>2025-04-24T11:54:23Z</time>
      </trkpt>
      <trkpt lat="45.732402987778187" lon="4.467463027685881">
        <ele>588.95000000000005</ele>
        <time>2025-04-24T11:54:24Z</time>
      </trkpt>
      <trkpt lat="45.732243983075023" lon="4.467144012451172">
        <ele>587.01999999999998</ele>
        <time>2025-04-24T11:54:26Z</time>
      </trkpt>
      <trkpt lat="45.732115991413593" lon="4.466997999697924">
        <ele>586.53999999999996</ele>
        <time>2025-04-24T11:54:27Z</time>
      </trkpt>
      <trkpt lat="45.731989005580544" lon="4.466889034956694">
        <ele>585.58000000000004</ele>
        <time>2025-04-24T11:54:28Z</time>
      </trkpt>
      <trkpt lat="45.731846010312438" lon="4.466846035793424">
        <ele>584.62</ele>
        <time>2025-04-24T11:54:29Z</time>
      </trkpt>
      <trkpt lat="45.731692034751177" lon="4.466800019145012">
        <ele>584.13999999999999</ele>
        <time>2025-04-24T11:54:30Z</time>
      </trkpt>
      <trkpt lat="45.731519032269716" lon="4.466775041073561">
        <ele>583.17999999999995</ele>
        <time>2025-04-24T11:54:31Z</time>
      </trkpt>
      <trkpt lat="45.730065023526549" lon="4.466744028031826">
        <ele>576.45000000000005</ele>
        <time>2025-04-24T11:54:38Z</time>
      </trkpt>
      <trkpt lat="45.729907024651766" lon="4.466821979731321">
        <ele>575.49000000000001</ele>
        <time>2025-04-24T11:54:39Z</time>
      </trkpt>
      <trkpt lat="45.729796970263124" lon="4.466907978057861">
        <ele>575.00999999999999</ele>
        <time>2025-04-24T11:54:40Z</time>
      </trkpt>
      <trkpt lat="45.72968197055161" lon="4.467091960832477">
        <ele>574.03999999999996</ele>
        <time>2025-04-24T11:54:41Z</time>
      </trkpt>
      <trkpt lat="45.729580968618393" lon="4.467261023819447">
        <ele>573.55999999999995</ele>
        <time>2025-04-24T11:54:42Z</time>
      </trkpt>
      <trkpt lat="45.729535035789013" lon="4.467500997707248">
        <ele>573.08000000000004</ele>
        <time>2025-04-24T11:54:43Z</time>
      </trkpt>
      <trkpt lat="45.729483989998698" lon="4.46776301600039">
        <ele>572.60000000000002</ele>
        <time>2025-04-24T11:54:44Z</time>
      </trkpt>
      <trkpt lat="45.729304030537605" lon="4.468545969575644">
        <ele>570.67999999999995</ele>
        <time>2025-04-24T11:54:47Z</time>
      </trkpt>
      <trkpt lat="45.729196993634105" lon="4.468746967613697">
        <ele>569.72000000000003</ele>
        <time>2025-04-24T11:54:48Z</time>
      </trkpt>
      <trkpt lat="45.729063972830772" lon="4.468893986195326">
        <ele>568.27999999999997</ele>
        <time>2025-04-24T11:54:49Z</time>
      </trkpt>
      <trkpt lat="45.728902034461498" lon="4.468969004228711">
        <ele>567.32000000000005</ele>
        <time>2025-04-24T11:54:50Z</time>
      </trkpt>
      <trkpt lat="45.728716962039471" lon="4.46903295814991">
        <ele>566.35000000000002</ele>
        <time>2025-04-24T11:54:51Z</time>
      </trkpt>
      <trkpt lat="45.728515964001417" lon="4.469081992283464">
        <ele>565.38999999999999</ele>
        <time>2025-04-24T11:54:52Z</time>
      </trkpt>
      <trkpt lat="45.727465962991118" lon="4.469361025840044">
        <ele>559.62</ele>
        <time>2025-04-24T11:54:57Z</time>
      </trkpt>
      <trkpt lat="45.727294972166419" lon="4.469453981146216">
        <ele>558.65999999999997</ele>
        <time>2025-04-24T11:54:58Z</time>
      </trkpt>
      <trkpt lat="45.727149965241551" lon="4.469597982242703">
        <ele>558.17999999999995</ele>
        <time>2025-04-24T11:54:59Z</time>
      </trkpt>
      <trkpt lat="45.727009987458587" lon="4.469778025522828">
        <ele>557.22000000000003</ele>
        <time>2025-04-24T11:55:00Z</time>
      </trkpt>
      <trkpt lat="45.726867998018861" lon="4.469983968883753">
        <ele>555.77999999999997</ele>
        <time>2025-04-24T11:55:01Z</time>
      </trkpt>
      <trkpt lat="45.725762005895376" lon="4.471704019233584">
        <ele>546.64999999999998</ele>
        <time>2025-04-24T11:55:09Z</time>
      </trkpt>
      <trkpt lat="45.725596966221929" lon="4.471860006451607">
        <ele>545.20000000000005</ele>
        <time>2025-04-24T11:55:10Z</time>
      </trkpt>
      <trkpt lat="45.725420024245977" lon="4.472007025033236">
        <ele>544.24000000000001</ele>
        <time>2025-04-24T11:55:11Z</time>
      </trkpt>
      <trkpt lat="45.723715983331203" lon="4.47302701883018">
        <ele>533.19000000000005</ele>
        <time>2025-04-24T11:55:20Z</time>
      </trkpt>
      <trkpt lat="45.723192030563951" lon="4.473299011588097">
        <ele>529.82000000000005</ele>
        <time>2025-04-24T11:55:23Z</time>
      </trkpt>
      <trkpt lat="45.723025985062122" lon="4.47332801297307">
        <ele>528.86000000000001</ele>
        <time>2025-04-24T11:55:24Z</time>
      </trkpt>
      <trkpt lat="45.722876032814384" lon="4.473314015194774">
        <ele>527.89999999999998</ele>
        <time>2025-04-24T11:55:25Z</time>
      </trkpt>
      <trkpt lat="45.722728008404374" lon="4.473231034353375">
        <ele>526.94000000000005</ele>
        <time>2025-04-24T11:55:26Z</time>
      </trkpt>
      <trkpt lat="45.722584007307887" lon="4.473148975521326">
        <ele>525.98000000000002</ele>
        <time>2025-04-24T11:55:27Z</time>
      </trkpt>
      <trkpt lat="45.722452998161316" lon="4.473002962768078">
        <ele>525.01999999999998</ele>
        <time>2025-04-24T11:55:28Z</time>
      </trkpt>
      <trkpt lat="45.722345039248466" lon="4.472810011357069">
        <ele>524.05999999999995</ele>
        <time>2025-04-24T11:55:29Z</time>
      </trkpt>
      <trkpt lat="45.722259962931275" lon="4.472589986398816">
        <ele>523.09000000000003</ele>
        <time>2025-04-24T11:55:30Z</time>
      </trkpt>
      <trkpt lat="45.722175976261497" lon="4.472374990582466">
        <ele>522.61000000000001</ele>
        <time>2025-04-24T11:55:31Z</time>
      </trkpt>
      <trkpt lat="45.722094001248479" lon="4.472165023908019">
        <ele>521.64999999999998</ele>
        <time>2025-04-24T11:55:32Z</time>
      </trkpt>
      <trkpt lat="45.721982019022107" lon="4.472024962306023">
        <ele>520.69000000000005</ele>
        <time>2025-04-24T11:55:33Z</time>
      </trkpt>
      <trkpt lat="45.721858972683549" lon="4.47193200699985">
        <ele>520.21000000000004</ele>
        <time>2025-04-24T11:55:34Z</time>
      </trkpt>
      <trkpt lat="45.721724024042487" lon="4.471894036978483">
        <ele>519.73000000000002</ele>
        <time>2025-04-24T11:55:35Z</time>
      </trkpt>
      <trkpt lat="45.721580022946" lon="4.471878027543426">
        <ele>519.25</ele>
        <time>2025-04-24T11:55:36Z</time>
      </trkpt>
      <trkpt lat="45.721415989100933" lon="4.471927983686328">
        <ele>518.76999999999998</ele>
        <time>2025-04-24T11:55:37Z</time>
      </trkpt>
      <trkpt lat="45.721231000497937" lon="4.471984980627894">
        <ele>518.28999999999996</ele>
        <time>2025-04-24T11:55:38Z</time>
      </trkpt>
      <trkpt lat="45.720845013856888" lon="4.472182039171457">
        <ele>517.80999999999995</ele>
        <time>2025-04-24T11:55:40Z</time>
      </trkpt>
      <trkpt lat="45.720653990283608" lon="4.472337020561099">
        <ele>517.33000000000004</ele>
        <time>2025-04-24T11:55:41Z</time>
      </trkpt>
      <trkpt lat="45.720462966710329" lon="4.472496025264263">
        <ele>516.85000000000002</ele>
        <time>2025-04-24T11:55:42Z</time>
      </trkpt>
      <trkpt lat="45.719697028398514" lon="4.473402025178075">
        <ele>515.88</ele>
        <time>2025-04-24T11:55:47Z</time>
      </trkpt>
      <trkpt lat="45.719592003151774" lon="4.473618026822805">
        <ele>515.39999999999998</ele>
        <time>2025-04-24T11:55:48Z</time>
      </trkpt>
      <trkpt lat="45.719170980155468" lon="4.47448899038136">
        <ele>512.03999999999996</ele>
        <time>2025-04-24T11:55:52Z</time>
      </trkpt>
      <trkpt lat="45.719051035121083" lon="4.474678002297878">
        <ele>511.56</ele>
        <time>2025-04-24T11:55:53Z</time>
      </trkpt>
      <trkpt lat="45.718327006325126" lon="4.47569296695292">
        <ele>510.60000000000002</ele>
        <time>2025-04-24T11:55:58Z</time>
      </trkpt>
      <trkpt lat="45.718194991350174" lon="4.475908968597651">
        <ele>510.12</ele>
        <time>2025-04-24T11:55:59Z</time>
      </trkpt>
      <trkpt lat="45.718087032437325" lon="4.476134022697806">
        <ele>509.16000000000003</ele>
        <time>2025-04-24T11:56:00Z</time>
      </trkpt>
      <trkpt lat="45.717987036332488" lon="4.476339966058731">
        <ele>508.67000000000002</ele>
        <time>2025-04-24T11:56:01Z</time>
      </trkpt>
      <trkpt lat="45.717910006642342" lon="4.476499976590276">
        <ele>508.19</ele>
        <time>2025-04-24T11:56:02Z</time>
      </trkpt>
      <trkpt lat="45.717803975567222" lon="4.476628974080086">
        <ele>507.70999999999998</ele>
        <time>2025-04-24T11:56:03Z</time>
      </trkpt>
      <trkpt lat="45.71771303191781" lon="4.476735005155206">
        <ele>506.75</ele>
        <time>2025-04-24T11:56:04Z</time>
      </trkpt>
      <trkpt lat="45.717616975307465" lon="4.476725030690432">
        <ele>506.26999999999998</ele>
        <time>2025-04-24T11:56:05Z</time>
      </trkpt>
      <trkpt lat="45.717514967545867" lon="4.476704997941852">
        <ele>505.31</ele>
        <time>2025-04-24T11:56:06Z</time>
      </trkpt>
      <trkpt lat="45.717415977269411" lon="4.476607013493776">
        <ele>504.35000000000002</ele>
        <time>2025-04-24T11:56:07Z</time>
      </trkpt>
      <trkpt lat="45.71732503362" lon="4.476453959941864">
        <ele>503.38999999999999</ele>
        <time>2025-04-24T11:56:08Z</time>
      </trkpt>
      <trkpt lat="45.717222020030022" lon="4.476281963288784">
        <ele>501.94999999999999</ele>
        <time>2025-04-24T11:56:09Z</time>
      </trkpt>
      <trkpt lat="45.716652972623706" lon="4.475286025553942">
        <ele>496.18000000000001</ele>
        <time>2025-04-24T11:56:14Z</time>
      </trkpt>
      <trkpt lat="45.716570997610688" lon="4.475036999210715">
        <ele>495.22000000000003</ele>
        <time>2025-04-24T11:56:15Z</time>
      </trkpt>
      <trkpt lat="45.716515006497502" lon="4.474785961210728">
        <ele>493.76999999999998</ele>
        <time>2025-04-24T11:56:16Z</time>
      </trkpt>
      <trkpt lat="45.716458009555936" lon="4.474532995373011">
        <ele>492.81</ele>
        <time>2025-04-24T11:56:17Z</time>
      </trkpt>
      <trkpt lat="45.71640201844275" lon="4.474281035363674">
        <ele>491.85000000000002</ele>
        <time>2025-04-24T11:56:18Z</time>
      </trkpt>
      <trkpt lat="45.716172019019723" lon="4.472786961123347">
        <ele>484.16000000000003</ele>
        <time>2025-04-24T11:56:25Z</time>
      </trkpt>
      <trkpt lat="45.716119967401028" lon="4.472623011097312">
        <ele>483.19999999999999</ele>
        <time>2025-04-24T11:56:26Z</time>
      </trkpt>
      <trkpt lat="45.716064982116222" lon="4.472443973645568">
        <ele>481.75999999999999</ele>
        <time>2025-04-24T11:56:27Z</time>
      </trkpt>
      <trkpt lat="45.715982001274824" lon="4.472293015569449">
        <ele>480.80000000000001</ele>
        <time>2025-04-24T11:56:28Z</time>
      </trkpt>
      <trkpt lat="45.715887034311891" lon="4.472120013087988">
        <ele>479.83999999999997</ele>
        <time>2025-04-24T11:56:29Z</time>
      </trkpt>
      <trkpt lat="45.714929988607764" lon="4.470466012135148">
        <ele>471.18000000000001</ele>
        <time>2025-04-24T11:56:38Z</time>
      </trkpt>
      <trkpt lat="45.714587001129985" lon="4.469958990812302">
        <ele>468.30000000000001</ele>
        <time>2025-04-24T11:56:41Z</time>
      </trkpt>
      <trkpt lat="45.714462026953697" lon="4.469811972230673">
        <ele>467.81999999999999</ele>
        <time>2025-04-24T11:56:42Z</time>
      </trkpt>
      <trkpt lat="45.714305033907294" lon="4.46965497918427">
        <ele>466.86000000000001</ele>
        <time>2025-04-24T11:56:43Z</time>
      </trkpt>
      <trkpt lat="45.714181987568736" lon="4.469547020271421">
        <ele>466.38</ele>
        <time>2025-04-24T11:56:44Z</time>
      </trkpt>
      <trkpt lat="45.714030023664236" lon="4.469424979761243">
        <ele>465.42000000000002</ele>
        <time>2025-04-24T11:56:45Z</time>
      </trkpt>
      <trkpt lat="45.712311984971166" lon="4.468089994043112">
        <ele>451.95999999999998</ele>
        <time>2025-04-24T11:56:57Z</time>
      </trkpt>
      <trkpt lat="45.711024021729827" lon="4.467323971912265">
        <ele>443.31</ele>
        <time>2025-04-24T11:57:06Z</time>
      </trkpt>
      <trkpt lat="45.710283983498812" lon="4.466956006363034">
        <ele>437.54000000000002</ele>
        <time>2025-04-24T11:57:13Z</time>
      </trkpt>
      <trkpt lat="45.710048032924533" lon="4.46698802523315">
        <ele>434.64999999999998</ele>
        <time>2025-04-24T11:57:18Z</time>
      </trkpt>
      <trkpt lat="45.709998998790979" lon="4.466880988329649">
        <ele>434.17000000000002</ele>
        <time>2025-04-24T11:57:19Z</time>
      </trkpt>
      <trkpt lat="45.709985001012683" lon="4.466833965852857">
        <ele>433.69</ele>
        <time>2025-04-24T11:57:20Z</time>
      </trkpt>
      <trkpt lat="45.709972009062767" lon="4.466790966689587">
        <ele>433.69</ele>
        <time>2025-04-24T11:57:21Z</time>
      </trkpt>
      <trkpt lat="45.709958011284471" lon="4.466743022203445">
        <ele>433.20999999999998</ele>
        <time>2025-04-24T11:57:22Z</time>
      </trkpt>
      <trkpt lat="45.709948958829045" lon="4.466715026646853">
        <ele>432.73000000000002</ele>
        <time>2025-04-24T11:57:23Z</time>
      </trkpt>
      <trkpt lat="45.709894979372621" lon="4.466671021655202">
        <ele>432.73000000000002</ele>
        <time>2025-04-24T11:57:24Z</time>
      </trkpt>
      <trkpt lat="45.709862960502505" lon="4.466645959764719">
        <ele>432.25</ele>
        <time>2025-04-24T11:57:25Z</time>
      </trkpt>
      <trkpt lat="45.709842005744576" lon="4.466629028320313">
        <ele>431.76999999999998</ele>
        <time>2025-04-24T11:57:26Z</time>
      </trkpt>
      <trkpt lat="45.70982800796628" lon="4.466648977249861">
        <ele>431.76999999999998</ele>
        <time>2025-04-24T11:57:27Z</time>
      </trkpt>
      <trkpt lat="45.709799006581306" lon="4.466692982241511">
        <ele>431.29000000000002</ele>
        <time>2025-04-24T11:57:28Z</time>
      </trkpt>
      <trkpt lat="45.70980504155159" lon="4.466765988618136">
        <ele>431.29000000000002</ele>
        <time>2025-04-24T11:57:29Z</time>
      </trkpt>
      <trkpt lat="45.709811998531222" lon="4.466850981116295">
        <ele>430.81</ele>
        <time>2025-04-24T11:57:30Z</time>
      </trkpt>
      <trkpt lat="45.709830019623041" lon="4.466973021626473">
        <ele>430.81</ele>
        <time>2025-04-24T11:57:31Z</time>
      </trkpt>
      <trkpt lat="45.709873018786311" lon="4.46707402355969">
        <ele>430.81</ele>
        <time>2025-04-24T11:57:32Z</time>
      </trkpt>
      <trkpt lat="45.709986006841063" lon="4.46712096221745">
        <ele>430.32999999999998</ele>
        <time>2025-04-24T11:57:33Z</time>
      </trkpt>
      <trkpt lat="45.710125984624028" lon="4.467303017154336">
        <ele>429.37</ele>
        <time>2025-04-24T11:57:35Z</time>
      </trkpt>
      <trkpt lat="45.710378028452396" lon="4.467770978808403">
        <ele>427.44</ele>
        <time>2025-04-24T11:57:39Z</time>
      </trkpt>
      <trkpt lat="45.710556982085109" lon="4.468141039833427">
        <ele>426.48000000000002</ele>
        <time>2025-04-24T11:57:42Z</time>
      </trkpt>
      <trkpt lat="45.710695032030344" lon="4.468534989282489">
        <ele>426</ele>
        <time>2025-04-24T11:57:45Z</time>
      </trkpt>
      <trkpt lat="45.711249997839332" lon="4.470138028264046">
        <ele>424.56</ele>
        <time>2025-04-24T11:57:56Z</time>
      </trkpt>
      <trkpt lat="45.712173013016582" lon="4.472613036632538">
        <ele>425.04000000000002</ele>
        <time>2025-04-24T11:58:13Z</time>
      </trkpt>
      <trkpt lat="45.712202014401555" lon="4.472696017473936">
        <ele>425.04000000000002</ele>
        <time>2025-04-24T11:58:14Z</time>
      </trkpt>
      <trkpt lat="45.712226992473006" lon="4.472762988880277">
        <ele>425.51999999999998</ele>
        <time>2025-04-24T11:58:15Z</time>
      </trkpt>
      <trkpt lat="45.712175024673343" lon="4.472907995805144">
        <ele>425.51999999999998</ele>
        <time>2025-04-24T11:58:16Z</time>
      </trkpt>
      <trkpt lat="45.712117021903396" lon="4.472930962219834">
        <ele>426</ele>
        <time>2025-04-24T11:58:17Z</time>
      </trkpt>
      <trkpt lat="45.712039992213249" lon="4.472959963604808">
        <ele>426</ele>
        <time>2025-04-24T11:58:18Z</time>
      </trkpt>
      <trkpt lat="45.71195600554347" lon="4.472987959161401">
        <ele>426</ele>
        <time>2025-04-24T11:58:19Z</time>
      </trkpt>
      <trkpt lat="45.711867995560169" lon="4.473008997738361">
        <ele>426</ele>
        <time>2025-04-24T11:58:20Z</time>
      </trkpt>
      <trkpt lat="45.711061991751194" lon="4.473043028265238">
        <ele>424.56</ele>
        <time>2025-04-24T11:58:28Z</time>
      </trkpt>
      <trkpt lat="45.710886977612972" lon="4.472944037988782">
        <ele>424.07999999999998</ele>
        <time>2025-04-24T11:58:30Z</time>
      </trkpt>
      <trkpt lat="45.710813971236348" lon="4.47287698276341">
        <ele>424.56</ele>
        <time>2025-04-24T11:58:31Z</time>
      </trkpt>
      <trkpt lat="45.710248025134206" lon="4.472273988649249">
        <ele>426</ele>
        <time>2025-04-24T11:58:40Z</time>
      </trkpt>
      <trkpt lat="45.709819961339235" lon="4.47177903726697">
        <ele>429.37</ele>
        <time>2025-04-24T11:58:48Z</time>
      </trkpt>
      <trkpt lat="45.709778973832726" lon="4.471723968163133">
        <ele>429.85000000000002</ele>
        <time>2025-04-24T11:58:49Z</time>
      </trkpt>
      <trkpt lat="45.709756007418036" lon="4.47169303894043">
        <ele>429.85000000000002</ele>
        <time>2025-04-24T11:58:50Z</time>
      </trkpt>
      <trkpt lat="45.709791965782642" lon="4.471620032563806">
        <ele>430.32999999999998</ele>
        <time>2025-04-24T11:58:51Z</time>
      </trkpt>
      <trkpt lat="45.709829013794661" lon="4.471530010923743">
        <ele>430.32999999999998</ele>
        <time>2025-04-24T11:58:52Z</time>
      </trkpt>
      <trkpt lat="45.709820967167616" lon="4.471405958756805">
        <ele>430.32999999999998</ele>
        <time>2025-04-24T11:58:53Z</time>
      </trkpt>
      <trkpt lat="45.709790037944913" lon="4.471301017329097">
        <ele>430.81</ele>
        <time>2025-04-24T11:58:54Z</time>
      </trkpt>
      <trkpt lat="45.709757013246417" lon="4.471189035102725">
        <ele>430.81</ele>
        <time>2025-04-24T11:58:55Z</time>
      </trkpt>
      <trkpt lat="45.709680989384651" lon="4.470853004604578">
        <ele>430.81</ele>
        <time>2025-04-24T11:58:58Z</time>
      </trkpt>
      <trkpt lat="45.709671014919877" lon="4.470760971307755">
        <ele>431.29000000000002</ele>
        <time>2025-04-24T11:58:59Z</time>
      </trkpt>
      <trkpt lat="45.709670009091496" lon="4.470748985186219">
        <ele>431.29000000000002</ele>
        <time>2025-04-24T11:59:00Z</time>
      </trkpt>
      <trkpt lat="45.709747960790992" lon="4.470656029880047">
        <ele>430.81</ele>
        <time>2025-04-24T11:59:01Z</time>
      </trkpt>
      <trkpt lat="45.709803029894829" lon="4.470588974654675">
        <ele>430.81</ele>
        <time>2025-04-24T11:59:02Z</time>
      </trkpt>
      <trkpt lat="45.709885004907846" lon="4.470490990206599">
        <ele>430.81</ele>
        <time>2025-04-24T11:59:03Z</time>
      </trkpt>
      <trkpt lat="45.709948036819696" lon="4.470457965508103">
        <ele>430.32999999999998</ele>
        <time>2025-04-24T11:59:04Z</time>
      </trkpt>
      <trkpt lat="45.710232015699148" lon="4.470308013260365">
        <ele>428.88999999999999</ele>
        <time>2025-04-24T11:59:08Z</time>
      </trkpt>
      <trkpt lat="45.710264034569263" lon="4.470226960256696">
        <ele>428.39999999999998</ele>
        <time>2025-04-24T11:59:09Z</time>
      </trkpt>
      <trkpt lat="45.710265962406993" lon="4.470135010778904">
        <ele>427.92000000000002</ele>
        <time>2025-04-24T11:59:10Z</time>
      </trkpt>
      <trkpt lat="45.71025799959898" lon="4.470038032159209">
        <ele>427.44</ele>
        <time>2025-04-24T11:59:11Z</time>
      </trkpt>
      <trkpt lat="45.710247019305825" lon="4.469927977770567">
        <ele>427.44</ele>
        <time>2025-04-24T11:59:12Z</time>
      </trkpt>
      <trkpt lat="45.710212988778949" lon="4.469841979444027">
        <ele>426.95999999999998</ele>
        <time>2025-04-24T11:59:13Z</time>
      </trkpt>
      <trkpt lat="45.710146017372608" lon="4.469775008037686">
        <ele>426.48000000000002</ele>
        <time>2025-04-24T11:59:14Z</time>
      </trkpt>
      <trkpt lat="45.710076028481126" lon="4.469717005267739">
        <ele>426.48000000000002</ele>
        <time>2025-04-24T11:59:15Z</time>
      </trkpt>
      <trkpt lat="45.709476973861456" lon="4.46931098587811">
        <ele>428.88999999999999</ele>
        <time>2025-04-24T11:59:25Z</time>
      </trkpt>
      <trkpt lat="45.709476973861456" lon="4.46931098587811">
        <ele>429.85000000000002</ele>
        <time>2025-04-24T11:59:31Z</time>
      </trkpt>
      <trkpt lat="45.709373960271478" lon="4.469260023906827">
        <ele>430.32999999999998</ele>
        <time>2025-04-24T11:59:32Z</time>
      </trkpt>
      <trkpt lat="45.709361974149942" lon="4.469311991706491">
        <ele>431.29000000000002</ele>
        <time>2025-04-24T11:59:33Z</time>
      </trkpt>
      <trkpt lat="45.709344036877155" lon="4.469390027225018">
        <ele>431.76999999999998</ele>
        <time>2025-04-24T11:59:34Z</time>
      </trkpt>
      <trkpt lat="45.709324004128575" lon="4.469479965046048">
        <ele>432.25</ele>
        <time>2025-04-24T11:59:35Z</time>
      </trkpt>
      <trkpt lat="45.709301959723234" lon="4.469577027484775">
        <ele>432.73000000000002</ele>
        <time>2025-04-24T11:59:36Z</time>
      </trkpt>
      <trkpt lat="45.709186038002372" lon="4.470093017444015">
        <ele>434.64999999999998</ele>
        <time>2025-04-24T11:59:41Z</time>
      </trkpt>
      <trkpt lat="45.709139015525579" lon="4.47029996663332">
        <ele>435.13</ele>
        <time>2025-04-24T11:59:43Z</time>
      </trkpt>
      <trkpt lat="45.709115965291858" lon="4.470401974394918">
        <ele>435.13</ele>
        <time>2025-04-24T11:59:44Z</time>
      </trkpt>
      <trkpt lat="45.708983028307557" lon="4.4710280187428">
        <ele>437.06</ele>
        <time>2025-04-24T11:59:51Z</time>
      </trkpt>
      <trkpt lat="45.708910021930933" lon="4.471000023186207">
        <ele>437.06</ele>
        <time>2025-04-24T11:59:52Z</time>
      </trkpt>
      <trkpt lat="45.708859981968999" lon="4.470982002094388">
        <ele>437.54000000000002</ele>
        <time>2025-04-24T11:59:53Z</time>
      </trkpt>
      <trkpt lat="45.708812037482858" lon="4.470963981002569">
        <ele>437.54000000000002</ele>
        <time>2025-04-24T11:59:54Z</time>
      </trkpt>
      <trkpt lat="45.708747999742627" lon="4.470951994881034">
        <ele>438.01999999999998</ele>
        <time>2025-04-24T11:59:55Z</time>
      </trkpt>
      <trkpt lat="45.708683039993048" lon="4.470939002931118">
        <ele>438.01999999999998</ele>
        <time>2025-04-24T11:59:56Z</time>
      </trkpt>
      <trkpt lat="45.708611961454153" lon="4.470926010981202">
        <ele>438.01999999999998</ele>
        <time>2025-04-24T11:59:57Z</time>
      </trkpt>
      <trkpt lat="45.708311973139644" lon="4.470838000997901">
        <ele>438.5</ele>
        <time>2025-04-24T12:00:01Z</time>
      </trkpt>
      <trkpt lat="45.708267968147993" lon="4.470912013202906">
        <ele>438.98000000000002</ele>
        <time>2025-04-24T12:00:02Z</time>
      </trkpt>
      <trkpt lat="45.70821700617671" lon="4.470995999872685">
        <ele>439.45999999999998</ele>
        <time>2025-04-24T12:00:03Z</time>
      </trkpt>
      <trkpt lat="45.707982983440161" lon="4.471195992082357">
        <ele>440.42000000000002</ele>
        <time>2025-04-24T12:00:06Z</time>
      </trkpt>
      <trkpt lat="45.70789597928524" lon="4.471238991245627">
        <ele>440.89999999999998</ele>
        <time>2025-04-24T12:00:07Z</time>
      </trkpt>
      <trkpt lat="45.707274964079261" lon="4.471535962074995">
        <ele>443.31</ele>
        <time>2025-04-24T12:00:14Z</time>
      </trkpt>
      <trkpt lat="45.707182008773088" lon="4.471578961238265">
        <ele>444.26999999999998</ele>
        <time>2025-04-24T12:00:15Z</time>
      </trkpt>
      <trkpt lat="45.707089975476265" lon="4.471621960401535">
        <ele>444.75</ele>
        <time>2025-04-24T12:00:16Z</time>
      </trkpt>
      <trkpt lat="45.707003977149725" lon="4.471672000363469">
        <ele>444.75</ele>
        <time>2025-04-24T12:00:17Z</time>
      </trkpt>
      <trkpt lat="45.706923007965088" lon="4.47173897176981">
        <ele>445.23000000000002</ele>
        <time>2025-04-24T12:00:18Z</time>
      </trkpt>
      <trkpt lat="45.706689991056919" lon="4.47193100117147">
        <ele>445.70999999999998</ele>
        <time>2025-04-24T12:00:21Z</time>
      </trkpt>
      <trkpt lat="45.706650009378791" lon="4.471998978406191">
        <ele>445.70999999999998</ele>
        <time>2025-04-24T12:00:22Z</time>
      </trkpt>
      <trkpt lat="45.706616984680295" lon="4.472098974511027">
        <ele>445.70999999999998</ele>
        <time>2025-04-24T12:00:23Z</time>
      </trkpt>
      <trkpt lat="45.706572979688644" lon="4.472229983657599">
        <ele>447.63</ele>
        <time>2025-04-24T12:00:28Z</time>
      </trkpt>
      <trkpt lat="45.706601981073618" lon="4.472400974482298">
        <ele>448.11000000000001</ele>
        <time>2025-04-24T12:00:37Z</time>
      </trkpt>
      <trkpt lat="45.706609021872282" lon="4.472413966432214">
        <ele>447.63</ele>
        <time>2025-04-24T12:00:38Z</time>
      </trkpt>
      <trkpt lat="45.706660989671946" lon="4.472497031092644">
        <ele>448.11000000000001</ele>
        <time>2025-04-24T12:00:39Z</time>
      </trkpt>
      <trkpt lat="45.7069690246135" lon="4.473025007173419">
        <ele>448.11000000000001</ele>
        <time>2025-04-24T12:00:44Z</time>
      </trkpt>
      <trkpt lat="45.707009006291628" lon="4.473136989399791">
        <ele>448.11000000000001</ele>
        <time>2025-04-24T12:00:45Z</time>
      </trkpt>
      <trkpt lat="45.707046976312995" lon="4.473243020474911">
        <ele>448.11000000000001</ele>
        <time>2025-04-24T12:00:46Z</time>
      </trkpt>
      <trkpt lat="45.707146972417831" lon="4.473531022667885">
        <ele>448.11000000000001</ele>
        <time>2025-04-24T12:00:49Z</time>
      </trkpt>
      <trkpt lat="45.707169016823173" lon="4.473623977974057">
        <ele>448.58999999999997</ele>
        <time>2025-04-24T12:00:50Z</time>
      </trkpt>
      <trkpt lat="45.707588028162718" lon="4.474653024226427">
        <ele>449.55000000000001</ele>
        <time>2025-04-24T12:01:02Z</time>
      </trkpt>
      <trkpt lat="45.707893967628479" lon="4.475184017792344">
        <ele>450.51999999999998</ele>
        <time>2025-04-24T12:01:08Z</time>
      </trkpt>
      <trkpt lat="45.707867983728647" lon="4.475341010838747">
        <ele>450.51999999999998</ele>
        <time>2025-04-24T12:01:09Z</time>
      </trkpt>
      <trkpt lat="45.707931015640497" lon="4.475594982504845">
        <ele>450.02999999999997</ele>
        <time>2025-04-24T12:01:12Z</time>
      </trkpt>
      <trkpt lat="45.707911988720298" lon="4.475686009973288">
        <ele>450.02999999999997</ele>
        <time>2025-04-24T12:01:13Z</time>
      </trkpt>
      <trkpt lat="45.70789203979075" lon="4.475780976936221">
        <ele>450.02999999999997</ele>
        <time>2025-04-24T12:01:14Z</time>
      </trkpt>
      <trkpt lat="45.707642007619143" lon="4.476951006799936">
        <ele>452.44</ele>
        <time>2025-04-24T12:01:25Z</time>
      </trkpt>
      <trkpt lat="45.707604037597775" lon="4.477123003453016">
        <ele>453.88</ele>
        <time>2025-04-24T12:01:27Z</time>
      </trkpt>
      <trkpt lat="45.707585010677576" lon="4.477210007607937">
        <ele>454.36000000000001</ele>
        <time>2025-04-24T12:01:28Z</time>
      </trkpt>
      <trkpt lat="45.707564977928996" lon="4.477302962914109">
        <ele>454.83999999999997</ele>
        <time>2025-04-24T12:01:29Z</time>
      </trkpt>
      <trkpt lat="45.707363979890943" lon="4.478168981149793">
        <ele>457.24000000000001</ele>
        <time>2025-04-24T12:01:37Z</time>
      </trkpt>
      <trkpt lat="45.707171028479934" lon="4.47895897552371">
        <ele>458.69</ele>
        <time>2025-04-24T12:01:47Z</time>
      </trkpt>
      <trkpt lat="45.707171028479934" lon="4.47895897552371">
        <ele>459.17000000000002</ele>
        <time>2025-04-24T12:01:59Z</time>
      </trkpt>
      <trkpt lat="45.707171028479934" lon="4.47895897552371">
        <ele>459.17000000000002</ele>
        <time>2025-04-24T12:02:52Z</time>
      </trkpt>
      <trkpt lat="45.707165999338031" lon="4.478982025757432">
        <ele>459.64999999999998</ele>
        <time>2025-04-24T12:02:58Z</time>
      </trkpt>
      <trkpt lat="45.70716398768127" lon="4.478993006050587">
        <ele>459.64999999999998</ele>
        <time>2025-04-24T12:02:59Z</time>
      </trkpt>
      <trkpt lat="45.707165999338031" lon="4.478984959423542">
        <ele>459.64999999999998</ele>
        <time>2025-04-24T12:03:00Z</time>
      </trkpt>
      <trkpt lat="45.707171028479934" lon="4.47895796969533">
        <ele>459.17000000000002</ele>
        <time>2025-04-24T12:03:01Z</time>
      </trkpt>
      <trkpt lat="45.707179997116327" lon="4.478910025209189">
        <ele>459.17000000000002</ele>
        <time>2025-04-24T12:03:02Z</time>
      </trkpt>
      <trkpt lat="45.707197012379766" lon="4.478840958327055">
        <ele>458.69</ele>
        <time>2025-04-24T12:03:03Z</time>
      </trkpt>
      <trkpt lat="45.707216039299965" lon="4.478762000799179">
        <ele>458.69</ele>
        <time>2025-04-24T12:03:04Z</time>
      </trkpt>
      <trkpt lat="45.707471016794443" lon="4.477744018658996">
        <ele>454.36000000000001</ele>
        <time>2025-04-24T12:03:14Z</time>
      </trkpt>
      <trkpt lat="45.707589033991098" lon="4.47719500400126">
        <ele>452.44</ele>
        <time>2025-04-24T12:03:19Z</time>
      </trkpt>
      <trkpt lat="45.707689030095935" lon="4.476731987670064">
        <ele>452.44</ele>
        <time>2025-04-24T12:03:23Z</time>
      </trkpt>
      <trkpt lat="45.707939984276891" lon="4.475553994998336">
        <ele>449.55000000000001</ele>
        <time>2025-04-24T12:03:33Z</time>
      </trkpt>
      <trkpt lat="45.708038974553347" lon="4.475490963086486">
        <ele>449.06999999999999</ele>
        <time>2025-04-24T12:03:34Z</time>
      </trkpt>
      <trkpt lat="45.708061018958688" lon="4.475414017215371">
        <ele>448.58999999999997</ele>
        <time>2025-04-24T12:03:35Z</time>
      </trkpt>
      <trkpt lat="45.708079040050507" lon="4.475332964211702">
        <ele>448.58999999999997</ele>
        <time>2025-04-24T12:03:36Z</time>
      </trkpt>
      <trkpt lat="45.708056995645165" lon="4.475263981148601">
        <ele>448.11000000000001</ele>
        <time>2025-04-24T12:03:37Z</time>
      </trkpt>
      <trkpt lat="45.708025982603431" lon="4.475212013348937">
        <ele>447.63</ele>
        <time>2025-04-24T12:03:38Z</time>
      </trkpt>
      <trkpt lat="45.707972003147006" lon="4.475212013348937">
        <ele>447.63</ele>
        <time>2025-04-24T12:03:39Z</time>
      </trkpt>
      <trkpt lat="45.707877958193421" lon="4.475157028064132">
        <ele>447.63</ele>
        <time>2025-04-24T12:03:40Z</time>
      </trkpt>
      <trkpt lat="45.707828002050519" lon="4.475071029737592">
        <ele>447.14999999999998</ele>
        <time>2025-04-24T12:03:41Z</time>
      </trkpt>
      <trkpt lat="45.707773016765714" lon="4.474977990612388">
        <ele>447.14999999999998</ele>
        <time>2025-04-24T12:03:42Z</time>
      </trkpt>
      <trkpt lat="45.707714008167386" lon="4.474879000335932">
        <ele>447.14999999999998</ele>
        <time>2025-04-24T12:03:43Z</time>
      </trkpt>
      <trkpt lat="45.707653993740678" lon="4.474771963432431">
        <ele>446.67000000000002</ele>
        <time>2025-04-24T12:03:44Z</time>
      </trkpt>
      <trkpt lat="45.707259038463235" lon="4.473976017907262">
        <ele>443.79000000000002</ele>
        <time>2025-04-24T12:03:51Z</time>
      </trkpt>
      <trkpt lat="45.707220984622836" lon="4.473845008760691">
        <ele>443.31</ele>
        <time>2025-04-24T12:03:52Z</time>
      </trkpt>
      <trkpt lat="45.707188965752721" lon="4.473710982128978">
        <ele>442.81999999999999</ele>
        <time>2025-04-24T12:03:53Z</time>
      </trkpt>
      <trkpt lat="45.707008000463247" lon="4.47313497774303">
        <ele>443.31</ele>
        <time>2025-04-24T12:03:58Z</time>
      </trkpt>
      <trkpt lat="45.706804990768433" lon="4.472731975838542">
        <ele>443.79000000000002</ele>
        <time>2025-04-24T12:04:02Z</time>
      </trkpt>
      <trkpt lat="45.706680016592145" lon="4.472527960315347">
        <ele>443.79000000000002</ele>
        <time>2025-04-24T12:04:04Z</time>
      </trkpt>
      <trkpt lat="45.706611033529043" lon="4.472416983917356">
        <ele>443.79000000000002</ele>
        <time>2025-04-24T12:04:05Z</time>
      </trkpt>
      <trkpt lat="45.706442976370454" lon="4.472260996699333">
        <ele>443.79000000000002</ele>
        <time>2025-04-24T12:04:07Z</time>
      </trkpt>
      <trkpt lat="45.706354966387153" lon="4.47218899615109">
        <ele>443.79000000000002</ele>
        <time>2025-04-24T12:04:08Z</time>
      </trkpt>
      <trkpt lat="45.70551099255681" lon="4.471623972058296">
        <ele>441.38</ele>
        <time>2025-04-24T12:04:19Z</time>
      </trkpt>
      <trkpt lat="45.70488603785634" lon="4.471083004027605">
        <ele>439.45999999999998</ele>
        <time>2025-04-24T12:04:32Z</time>
      </trkpt>
      <trkpt lat="45.70479903370142" lon="4.470920981839299">
        <ele>439.45999999999998</ele>
        <time>2025-04-24T12:04:36Z</time>
      </trkpt>
      <trkpt lat="45.704714963212609" lon="4.470920981839299">
        <ele>438.98000000000002</ele>
        <time>2025-04-24T12:04:37Z</time>
      </trkpt>
      <trkpt lat="45.704656038433313" lon="4.470920981839299">
        <ele>438.98000000000002</ele>
        <time>2025-04-24T12:04:38Z</time>
      </trkpt>
      <trkpt lat="45.704528968781233" lon="4.470920981839299">
        <ele>438.5</ele>
        <time>2025-04-24T12:04:40Z</time>
      </trkpt>
      <trkpt lat="45.704461997374892" lon="4.470896003767848">
        <ele>438.01999999999998</ele>
        <time>2025-04-24T12:04:41Z</time>
      </trkpt>
      <trkpt lat="45.704407012090087" lon="4.470858033746481">
        <ele>438.01999999999998</ele>
        <time>2025-04-24T12:04:42Z</time>
      </trkpt>
      <trkpt lat="45.704301986843348" lon="4.470786033198237">
        <ele>438.01999999999998</ele>
        <time>2025-04-24T12:04:44Z</time>
      </trkpt>
      <trkpt lat="45.703782979398966" lon="4.470436004921794">
        <ele>437.54000000000002</ele>
        <time>2025-04-24T12:04:53Z</time>
      </trkpt>
      <trkpt lat="45.703189037740231" lon="4.470037026330829">
        <ele>438.01999999999998</ele>
        <time>2025-04-24T12:05:02Z</time>
      </trkpt>
      <trkpt lat="45.702471965923905" lon="4.469565041363239">
        <ele>438.5</ele>
        <time>2025-04-24T12:05:12Z</time>
      </trkpt>
      <trkpt lat="45.701691024005413" lon="4.469034969806671">
        <ele>436.10000000000002</ele>
        <time>2025-04-24T12:05:23Z</time>
      </trkpt>
      <trkpt lat="45.701609971001744" lon="4.469004962593317">
        <ele>436.10000000000002</ele>
        <time>2025-04-24T12:05:24Z</time>
      </trkpt>
      <trkpt lat="45.701522966846824" lon="4.468975039198995">
        <ele>436.10000000000002</ele>
        <time>2025-04-24T12:05:25Z</time>
      </trkpt>
      <trkpt lat="45.701423976570368" lon="4.468940002843738">
        <ele>436.10000000000002</ele>
        <time>2025-04-24T12:05:26Z</time>
      </trkpt>
      <trkpt lat="45.701304031535983" lon="4.468898009508848">
        <ele>436.57999999999998</ele>
        <time>2025-04-24T12:05:27Z</time>
      </trkpt>
      <trkpt lat="45.700178006663918" lon="4.468799019232392">
        <ele>440.89999999999998</ele>
        <time>2025-04-24T12:05:34Z</time>
      </trkpt>
      <trkpt lat="45.698598017916083" lon="4.468582011759281">
        <ele>447.14999999999998</ele>
        <time>2025-04-24T12:05:43Z</time>
      </trkpt>
      <trkpt lat="45.698456028476357" lon="4.468483021482825">
        <ele>447.63</ele>
        <time>2025-04-24T12:05:44Z</time>
      </trkpt>
      <trkpt lat="45.698301969096065" lon="4.468369027599692">
        <ele>448.58999999999997</ele>
        <time>2025-04-24T12:05:45Z</time>
      </trkpt>
      <trkpt lat="45.698166014626622" lon="4.468210022896528">
        <ele>449.55000000000001</ele>
        <time>2025-04-24T12:05:46Z</time>
      </trkpt>
      <trkpt lat="45.698036011308432" lon="4.468039032071829">
        <ele>450.51999999999998</ele>
        <time>2025-04-24T12:05:47Z</time>
      </trkpt>
      <trkpt lat="45.697931991890073" lon="4.467836022377014">
        <ele>451</ele>
        <time>2025-04-24T12:05:48Z</time>
      </trkpt>
      <trkpt lat="45.697828978300095" lon="4.467636030167341">
        <ele>451.95999999999998</ele>
        <time>2025-04-24T12:05:49Z</time>
      </trkpt>
      <trkpt lat="45.697730993852019" lon="4.467444000765681">
        <ele>452.44</ele>
        <time>2025-04-24T12:05:50Z</time>
      </trkpt>
      <trkpt lat="45.697630997747183" lon="4.46726898662746">
        <ele>453.39999999999998</ele>
        <time>2025-04-24T12:05:51Z</time>
      </trkpt>
      <trkpt lat="45.697507029399276" lon="4.467129008844495">
        <ele>453.88</ele>
        <time>2025-04-24T12:05:52Z</time>
      </trkpt>
      <trkpt lat="45.69736797362566" lon="4.46701199747622">
        <ele>454.83999999999997</ele>
        <time>2025-04-24T12:05:53Z</time>
      </trkpt>
      <trkpt lat="45.697223972529173" lon="4.466900015249848">
        <ele>455.80000000000001</ele>
        <time>2025-04-24T12:05:54Z</time>
      </trkpt>
      <trkpt lat="45.696312021464109" lon="4.466271959245205">
        <ele>460.61000000000001</ele>
        <time>2025-04-24T12:06:00Z</time>
      </trkpt>
      <trkpt lat="45.696152010932565" lon="4.466210016980767">
        <ele>461.08999999999997</ele>
        <time>2025-04-24T12:06:01Z</time>
      </trkpt>
      <trkpt lat="45.695984037593007" lon="4.466180009767413">
        <ele>462.05000000000001</ele>
        <time>2025-04-24T12:06:02Z</time>
      </trkpt>
      <trkpt lat="45.695662004873157" lon="4.466122006997466">
        <ele>463.00999999999999</ele>
        <time>2025-04-24T12:06:04Z</time>
      </trkpt>
      <trkpt lat="45.695539964362979" lon="4.466030979529023">
        <ele>463.97000000000003</ele>
        <time>2025-04-24T12:06:05Z</time>
      </trkpt>
      <trkpt lat="45.695435022935271" lon="4.465917991474271">
        <ele>464.44999999999999</ele>
        <time>2025-04-24T12:06:06Z</time>
      </trkpt>
      <trkpt lat="45.695360004901886" lon="4.465782959014177">
        <ele>464.93000000000001</ele>
        <time>2025-04-24T12:06:07Z</time>
      </trkpt>
      <trkpt lat="45.695308959111571" lon="4.465594030916691">
        <ele>465.42000000000002</ele>
        <time>2025-04-24T12:06:08Z</time>
      </trkpt>
      <trkpt lat="45.695255985483527" lon="4.465394038707018">
        <ele>465.89999999999998</ele>
        <time>2025-04-24T12:06:09Z</time>
      </trkpt>
      <trkpt lat="45.695194965228438" lon="4.465187005698681">
        <ele>466.38</ele>
        <time>2025-04-24T12:06:10Z</time>
      </trkpt>
      <trkpt lat="45.695101004093885" lon="4.465010985732079">
        <ele>466.38</ele>
        <time>2025-04-24T12:06:11Z</time>
      </trkpt>
      <trkpt lat="45.694987010210752" lon="4.464848963543773">
        <ele>466.86000000000001</ele>
        <time>2025-04-24T12:06:12Z</time>
      </trkpt>
      <trkpt lat="45.69485298357904" lon="4.464709991589189">
        <ele>467.33999999999997</ele>
        <time>2025-04-24T12:06:13Z</time>
      </trkpt>
      <trkpt lat="45.694709988310933" lon="4.464569007977843">
        <ele>467.33999999999997</ele>
        <time>2025-04-24T12:06:14Z</time>
      </trkpt>
      <trkpt lat="45.693147014826536" lon="4.463131008669734">
        <ele>471.66000000000003</ele>
        <time>2025-04-24T12:06:24Z</time>
      </trkpt>
      <trkpt lat="45.692864041775465" lon="4.462936967611313">
        <ele>472.63</ele>
        <time>2025-04-24T12:06:26Z</time>
      </trkpt>
      <trkpt lat="45.692773014307022" lon="4.462837977334857">
        <ele>472.63</ele>
        <time>2025-04-24T12:06:27Z</time>
      </trkpt>
      <trkpt lat="45.692696990445256" lon="4.462702022865415">
        <ele>472.63</ele>
        <time>2025-04-24T12:06:28Z</time>
      </trkpt>
      <trkpt lat="45.692676035687327" lon="4.462574031203985">
        <ele>473.11000000000001</ele>
        <time>2025-04-24T12:06:29Z</time>
      </trkpt>
      <trkpt lat="45.692710988223553" lon="4.462469005957246">
        <ele>473.11000000000001</ele>
        <time>2025-04-24T12:06:30Z</time>
      </trkpt>
      <trkpt lat="45.692781982943416" lon="4.462344031780958">
        <ele>473.11000000000001</ele>
        <time>2025-04-24T12:06:31Z</time>
      </trkpt>
      <trkpt lat="45.692884996533394" lon="4.462255015969276">
        <ele>473.11000000000001</ele>
        <time>2025-04-24T12:06:32Z</time>
      </trkpt>
      <trkpt lat="45.692995972931385" lon="4.462158959358931">
        <ele>473.11000000000001</ele>
        <time>2025-04-24T12:06:33Z</time>
      </trkpt>
      <trkpt lat="45.693079037591815" lon="4.462043959647417">
        <ele>473.11000000000001</ele>
        <time>2025-04-24T12:06:34Z</time>
      </trkpt>
      <trkpt lat="45.693125976249576" lon="4.461886966601014">
        <ele>473.58999999999997</ele>
        <time>2025-04-24T12:06:35Z</time>
      </trkpt>
      <trkpt lat="45.693080965429544" lon="4.461752017959952">
        <ele>473.58999999999997</ele>
        <time>2025-04-24T12:06:36Z</time>
      </trkpt>
      <trkpt lat="45.693014999851584" lon="4.461608016863465">
        <ele>474.06999999999999</ele>
        <time>2025-04-24T12:06:37Z</time>
      </trkpt>
      <trkpt lat="45.692895976826549" lon="4.461509026587009">
        <ele>474.06999999999999</ele>
        <time>2025-04-24T12:06:38Z</time>
      </trkpt>
      <trkpt lat="45.692761028185487" lon="4.461396960541606">
        <ele>474.06999999999999</ele>
        <time>2025-04-24T12:06:39Z</time>
      </trkpt>
      <trkpt lat="45.692615015432239" lon="4.461277015507221">
        <ele>474.55000000000001</ele>
        <time>2025-04-24T12:06:40Z</time>
      </trkpt>
      <trkpt lat="45.692476965487003" lon="4.461131002753973">
        <ele>475.02999999999997</ele>
        <time>2025-04-24T12:06:41Z</time>
      </trkpt>
      <trkpt lat="45.692343022674322" lon="4.460956994444132">
        <ele>475.02999999999997</ele>
        <time>2025-04-24T12:06:42Z</time>
      </trkpt>
      <trkpt lat="45.692220982164145" lon="4.460760019719601">
        <ele>475.50999999999999</ele>
        <time>2025-04-24T12:06:43Z</time>
      </trkpt>
      <trkpt lat="45.692095002159476" lon="4.460553992539644">
        <ele>475.50999999999999</ele>
        <time>2025-04-24T12:06:44Z</time>
      </trkpt>
      <trkpt lat="45.691618993878365" lon="4.459722004830837">
        <ele>478.38999999999999</ele>
        <time>2025-04-24T12:06:48Z</time>
      </trkpt>
      <trkpt lat="45.691513968631625" lon="4.459537016227841">
        <ele>478.87</ele>
        <time>2025-04-24T12:06:49Z</time>
      </trkpt>
      <trkpt lat="45.691379019990563" lon="4.459388991817832">
        <ele>479.83999999999997</ele>
        <time>2025-04-24T12:06:50Z</time>
      </trkpt>
      <trkpt lat="45.690881973132491" lon="4.458908960223198">
        <ele>484.16000000000003</ele>
        <time>2025-04-24T12:06:54Z</time>
      </trkpt>
      <trkpt lat="45.690763033926487" lon="4.458808964118362">
        <ele>486.07999999999998</ele>
        <time>2025-04-24T12:06:55Z</time>
      </trkpt>
      <trkpt lat="45.690640993416309" lon="4.458713997155428">
        <ele>487.05000000000001</ele>
        <time>2025-04-24T12:06:56Z</time>
      </trkpt>
      <trkpt lat="45.690511995926499" lon="4.45865398272872">
        <ele>488.49000000000001</ele>
        <time>2025-04-24T12:06:57Z</time>
      </trkpt>
      <trkpt lat="45.690366989001632" lon="4.45861198939383">
        <ele>489.44999999999999</ele>
        <time>2025-04-24T12:06:58Z</time>
      </trkpt>
      <trkpt lat="45.690220976248384" lon="4.458645014092326">
        <ele>490.41000000000003</ele>
        <time>2025-04-24T12:06:59Z</time>
      </trkpt>
      <trkpt lat="45.690065994858742" lon="4.458680972456932">
        <ele>491.37</ele>
        <time>2025-04-24T12:07:00Z</time>
      </trkpt>
      <trkpt lat="45.688880039379001" lon="4.458967968821526">
        <ele>496.18000000000001</ele>
        <time>2025-04-24T12:07:07Z</time>
      </trkpt>
      <trkpt lat="45.688739977777004" lon="4.459029994904995">
        <ele>496.66000000000003</ele>
        <time>2025-04-24T12:07:08Z</time>
      </trkpt>
      <trkpt lat="45.688595976680517" lon="4.459095038473606">
        <ele>497.13999999999999</ele>
        <time>2025-04-24T12:07:09Z</time>
      </trkpt>
      <trkpt lat="45.688455998897552" lon="4.459157986566424">
        <ele>497.62</ele>
        <time>2025-04-24T12:07:10Z</time>
      </trkpt>
      <trkpt lat="45.688330018892884" lon="4.45921397767961">
        <ele>498.10000000000002</ele>
        <time>2025-04-24T12:07:11Z</time>
      </trkpt>
      <trkpt lat="45.688204038888216" lon="4.459222024306655">
        <ele>498.10000000000002</ele>
        <time>2025-04-24T12:07:12Z</time>
      </trkpt>
      <trkpt lat="45.6880840100348" lon="4.459162009879947">
        <ele>498.57999999999998</ele>
        <time>2025-04-24T12:07:13Z</time>
      </trkpt>
      <trkpt lat="45.688034975901246" lon="4.459065031260252">
        <ele>499.06</ele>
        <time>2025-04-24T12:07:14Z</time>
      </trkpt>
      <trkpt lat="45.68799801170826" lon="4.458892028778791">
        <ele>499.54000000000002</ele>
        <time>2025-04-24T12:07:15Z</time>
      </trkpt>
      <trkpt lat="45.68799801170826" lon="4.458735035732389">
        <ele>499.54000000000002</ele>
        <time>2025-04-24T12:07:16Z</time>
      </trkpt>
      <trkpt lat="45.688061965629458" lon="4.458591034635902">
        <ele>500.01999999999998</ele>
        <time>2025-04-24T12:07:17Z</time>
      </trkpt>
      <trkpt lat="45.688124997541308" lon="4.45846002548933">
        <ele>500.5</ele>
        <time>2025-04-24T12:07:18Z</time>
      </trkpt>
      <trkpt lat="45.688200015574694" lon="4.458321975544095">
        <ele>500.98000000000002</ele>
        <time>2025-04-24T12:07:19Z</time>
      </trkpt>
      <trkpt lat="45.688270004466176" lon="4.45815802551806">
        <ele>501.45999999999998</ele>
        <time>2025-04-24T12:07:20Z</time>
      </trkpt>
      <trkpt lat="45.688332030549645" lon="4.45798602886498">
        <ele>502.43000000000001</ele>
        <time>2025-04-24T12:07:21Z</time>
      </trkpt>
      <trkpt lat="45.688361031934619" lon="4.457784024998546">
        <ele>502.91000000000003</ele>
        <time>2025-04-24T12:07:22Z</time>
      </trkpt>
      <trkpt lat="45.688381986692548" lon="4.457595013082027">
        <ele>503.87</ele>
        <time>2025-04-24T12:07:23Z</time>
      </trkpt>
      <trkpt lat="45.688367988914251" lon="4.457414969801903">
        <ele>504.82999999999998</ele>
        <time>2025-04-24T12:07:24Z</time>
      </trkpt>
      <trkpt lat="45.688348961994052" lon="4.457237021997571">
        <ele>505.31</ele>
        <time>2025-04-24T12:07:25Z</time>
      </trkpt>
      <trkpt lat="45.688331024721265" lon="4.457057984545827">
        <ele>506.26999999999998</ele>
        <time>2025-04-24T12:07:26Z</time>
      </trkpt>
      <trkpt lat="45.688291965052485" lon="4.456882970407605">
        <ele>506.75</ele>
        <time>2025-04-24T12:07:27Z</time>
      </trkpt>
      <trkpt lat="45.688227005302906" lon="4.45671902038157">
        <ele>507.70999999999998</ele>
        <time>2025-04-24T12:07:28Z</time>
      </trkpt>
      <trkpt lat="45.688159028068185" lon="4.456550963222981">
        <ele>508.67000000000002</ele>
        <time>2025-04-24T12:07:29Z</time>
      </trkpt>
      <trkpt lat="45.688054002821445" lon="4.45641802623868">
        <ele>509.63999999999999</ele>
        <time>2025-04-24T12:07:30Z</time>
      </trkpt>
      <trkpt lat="45.687937997281551" lon="4.456288022920489">
        <ele>510.60000000000002</ele>
        <time>2025-04-24T12:07:31Z</time>
      </trkpt>
      <trkpt lat="45.687816962599754" lon="4.456152990460396">
        <ele>511.07999999999998</ele>
        <time>2025-04-24T12:07:32Z</time>
      </trkpt>
      <trkpt lat="45.687473975121975" lon="4.455672036856413">
        <ele>513.96000000000004</ele>
        <time>2025-04-24T12:07:35Z</time>
      </trkpt>
      <trkpt lat="45.687372973188758" lon="4.455473972484469">
        <ele>514.91999999999996</ele>
        <time>2025-04-24T12:07:36Z</time>
      </trkpt>
      <trkpt lat="45.687058987095952" lon="4.454855974763632">
        <ele>517.80999999999995</ele>
        <time>2025-04-24T12:07:39Z</time>
      </trkpt>
      <trkpt lat="45.686938958242536" lon="4.454666962847114">
        <ele>518.76999999999998</ele>
        <time>2025-04-24T12:07:40Z</time>
      </trkpt>
      <trkpt lat="45.686788000166416" lon="4.454507036134601">
        <ele>519.73000000000002</ele>
        <time>2025-04-24T12:07:41Z</time>
      </trkpt>
      <trkpt lat="45.6855299603194" lon="4.45326098240912">
        <ele>527.41999999999996</ele>
        <time>2025-04-24T12:07:49Z</time>
      </trkpt>
      <trkpt lat="45.685394005849957" lon="4.453036012127996">
        <ele>528.38</ele>
        <time>2025-04-24T12:07:50Z</time>
      </trkpt>
      <trkpt lat="45.685281017795205" lon="4.452849011868238">
        <ele>529.34000000000003</ele>
        <time>2025-04-24T12:07:51Z</time>
      </trkpt>
      <trkpt lat="45.685170963406563" lon="4.452667962759733">
        <ele>530.29999999999995</ele>
        <time>2025-04-24T12:07:52Z</time>
      </trkpt>
      <trkpt lat="45.685044983401895" lon="4.452495966106653">
        <ele>530.78999999999996</ele>
        <time>2025-04-24T12:07:53Z</time>
      </trkpt>
      <trkpt lat="45.684895031154156" lon="4.452347019687295">
        <ele>531.26999999999998</ele>
        <time>2025-04-24T12:07:54Z</time>
      </trkpt>
      <trkpt lat="45.684724962338805" lon="4.452247023582459">
        <ele>531.75</ele>
        <time>2025-04-24T12:07:55Z</time>
      </trkpt>
      <trkpt lat="45.684542991220951" lon="4.452145015820861">
        <ele>532.71000000000004</ele>
        <time>2025-04-24T12:07:56Z</time>
      </trkpt>
      <trkpt lat="45.684353979304433" lon="4.45210101082921">
        <ele>533.19000000000005</ele>
        <time>2025-04-24T12:07:57Z</time>
      </trkpt>
      <trkpt lat="45.684160022065043" lon="4.45205700583756">
        <ele>534.14999999999998</ele>
        <time>2025-04-24T12:07:58Z</time>
      </trkpt>
      <trkpt lat="45.683957012370229" lon="4.452035967260599">
        <ele>534.63</ele>
        <time>2025-04-24T12:07:59Z</time>
      </trkpt>
      <trkpt lat="45.683771017938852" lon="4.452016018331051">
        <ele>535.59000000000003</ele>
        <time>2025-04-24T12:08:00Z</time>
      </trkpt>
      <trkpt lat="45.681710997596383" lon="4.452184997498989">
        <ele>545.20000000000005</ele>
        <time>2025-04-24T12:08:10Z</time>
      </trkpt>
      <trkpt lat="45.681140022352338" lon="4.452293962240219">
        <ele>548.57000000000005</ele>
        <time>2025-04-24T12:08:14Z</time>
      </trkpt>
      <trkpt lat="45.68105704151094" lon="4.452241994440556">
        <ele>549.52999999999997</ele>
        <time>2025-04-24T12:08:15Z</time>
      </trkpt>
      <trkpt lat="45.680979005992413" lon="4.45216597057879">
        <ele>550.00999999999999</ele>
        <time>2025-04-24T12:08:16Z</time>
      </trkpt>
      <trkpt lat="45.680965008214116" lon="4.452042002230883">
        <ele>550.97000000000003</ele>
        <time>2025-04-24T12:08:17Z</time>
      </trkpt>
      <trkpt lat="45.680982023477554" lon="4.451896995306015">
        <ele>551.45000000000005</ele>
        <time>2025-04-24T12:08:18Z</time>
      </trkpt>
      <trkpt lat="45.681015970185399" lon="4.451747965067625">
        <ele>551.92999999999995</ele>
        <time>2025-04-24T12:08:19Z</time>
      </trkpt>
      <trkpt lat="45.681054024025798" lon="4.45158401504159">
        <ele>552.40999999999997</ele>
        <time>2025-04-24T12:08:20Z</time>
      </trkpt>
      <trkpt lat="45.681095011532307" lon="4.451402965933085">
        <ele>552.89999999999998</ele>
        <time>2025-04-24T12:08:21Z</time>
      </trkpt>
      <trkpt lat="45.681139016523957" lon="4.451210014522076">
        <ele>553.38</ele>
        <time>2025-04-24T12:08:22Z</time>
      </trkpt>
      <trkpt lat="45.681183021515608" lon="4.451008010655642">
        <ele>553.86000000000001</ele>
        <time>2025-04-24T12:08:23Z</time>
      </trkpt>
      <trkpt lat="45.681226020678878" lon="4.450808018445969">
        <ele>554.34000000000003</ele>
        <time>2025-04-24T12:08:24Z</time>
      </trkpt>
      <trkpt lat="45.681268014013767" lon="4.450616994872689">
        <ele>554.82000000000005</ele>
        <time>2025-04-24T12:08:25Z</time>
      </trkpt>
      <trkpt lat="45.681307995691895" lon="4.450429994612932">
        <ele>555.77999999999997</ele>
        <time>2025-04-24T12:08:26Z</time>
      </trkpt>
      <trkpt lat="45.681345965713263" lon="4.45025397464633">
        <ele>556.74000000000001</ele>
        <time>2025-04-24T12:08:27Z</time>
      </trkpt>
      <trkpt lat="45.681340014562011" lon="4.450054988265038">
        <ele>557.22000000000003</ele>
        <time>2025-04-24T12:08:28Z</time>
      </trkpt>
      <trkpt lat="45.681329034268856" lon="4.449685011059046">
        <ele>558.65999999999997</ele>
        <time>2025-04-24T12:08:30Z</time>
      </trkpt>
      <trkpt lat="45.681347977370024" lon="4.449511002749205">
        <ele>559.13999999999999</ele>
        <time>2025-04-24T12:08:31Z</time>
      </trkpt>
      <trkpt lat="45.681411009281874" lon="4.449412012472749">
        <ele>559.62</ele>
        <time>2025-04-24T12:08:32Z</time>
      </trkpt>
      <trkpt lat="45.68149097263813" lon="4.449311010539532">
        <ele>559.62</ele>
        <time>2025-04-24T12:08:33Z</time>
      </trkpt>
      <trkpt lat="45.681603038683534" lon="4.449298018589616">
        <ele>560.11000000000001</ele>
        <time>2025-04-24T12:08:34Z</time>
      </trkpt>
      <trkpt lat="45.681732958182693" lon="4.449284020811319">
        <ele>559.62</ele>
        <time>2025-04-24T12:08:35Z</time>
      </trkpt>
      <trkpt lat="45.681862961500883" lon="4.449269017204642">
        <ele>559.13999999999999</ele>
        <time>2025-04-24T12:08:36Z</time>
      </trkpt>
      <trkpt lat="45.681998999789357" lon="4.449185030534864">
        <ele>559.13999999999999</ele>
        <time>2025-04-24T12:08:37Z</time>
      </trkpt>
      <trkpt lat="45.682139983400702" lon="4.449098026379943">
        <ele>559.13999999999999</ele>
        <time>2025-04-24T12:08:38Z</time>
      </trkpt>
      <trkpt lat="45.682223970070481" lon="4.448930975049734">
        <ele>559.62</ele>
        <time>2025-04-24T12:08:39Z</time>
      </trkpt>
      <trkpt lat="45.682312985882163" lon="4.44874900393188">
        <ele>559.62</ele>
        <time>2025-04-24T12:08:40Z</time>
      </trkpt>
      <trkpt lat="45.682368976995349" lon="4.448549011722207">
        <ele>560.11000000000001</ele>
        <time>2025-04-24T12:08:41Z</time>
      </trkpt>
      <trkpt lat="45.682417005300522" lon="4.448335021734238">
        <ele>560.59000000000003</ele>
        <time>2025-04-24T12:08:42Z</time>
      </trkpt>
      <trkpt lat="45.682405019178987" lon="4.448124971240759">
        <ele>561.54999999999995</ele>
        <time>2025-04-24T12:08:43Z</time>
      </trkpt>
      <trkpt lat="45.682351039722562" lon="4.44791098125279">
        <ele>562.02999999999997</ele>
        <time>2025-04-24T12:08:44Z</time>
      </trkpt>
      <trkpt lat="45.682253977283835" lon="4.447745019569993">
        <ele>562.99000000000001</ele>
        <time>2025-04-24T12:08:45Z</time>
      </trkpt>
      <trkpt lat="45.682135038077831" lon="4.447602024301887">
        <ele>563.95000000000005</ele>
        <time>2025-04-24T12:08:46Z</time>
      </trkpt>
      <trkpt lat="45.682010985910892" lon="4.447451988235116">
        <ele>564.42999999999995</ele>
        <time>2025-04-24T12:08:47Z</time>
      </trkpt>
      <trkpt lat="45.681029967963696" lon="4.446353036910296">
        <ele>570.20000000000005</ele>
        <time>2025-04-24T12:08:54Z</time>
      </trkpt>
      <trkpt lat="45.680744983255863" lon="4.446115996688604">
        <ele>572.60000000000002</ele>
        <time>2025-04-24T12:08:56Z</time>
      </trkpt>
      <trkpt lat="45.680606011301279" lon="4.446088001132011">
        <ele>573.55999999999995</ele>
        <time>2025-04-24T12:08:57Z</time>
      </trkpt>
      <trkpt lat="45.680454969406128" lon="4.44608498364687">
        <ele>574.03999999999996</ele>
        <time>2025-04-24T12:08:58Z</time>
      </trkpt>
      <trkpt lat="45.680296970531344" lon="4.446110967546701">
        <ele>575.00999999999999</ele>
        <time>2025-04-24T12:08:59Z</time>
      </trkpt>
      <trkpt lat="45.680160010233521" lon="4.446204006671906">
        <ele>575.97000000000003</ele>
        <time>2025-04-24T12:09:00Z</time>
      </trkpt>
      <trkpt lat="45.680019026622176" lon="4.446314983069897">
        <ele>576.45000000000005</ele>
        <time>2025-04-24T12:09:01Z</time>
      </trkpt>
      <trkpt lat="45.679902015253901" lon="4.446454038843513">
        <ele>577.40999999999997</ele>
        <time>2025-04-24T12:09:02Z</time>
      </trkpt>
      <trkpt lat="45.679785003885627" lon="4.446623018011451">
        <ele>578.37</ele>
        <time>2025-04-24T12:09:03Z</time>
      </trkpt>
      <trkpt lat="45.679678972810507" lon="4.446786968037486">
        <ele>578.85000000000002</ele>
        <time>2025-04-24T12:09:04Z</time>
      </trkpt>
      <trkpt lat="45.679586017504334" lon="4.446930969133973">
        <ele>579.33000000000004</ele>
        <time>2025-04-24T12:09:05Z</time>
      </trkpt>
      <trkpt lat="45.679421983659267" lon="4.446978997439146">
        <ele>579.80999999999995</ele>
        <time>2025-04-24T12:09:06Z</time>
      </trkpt>
      <trkpt lat="45.679274965077639" lon="4.447023002430797">
        <ele>580.28999999999996</ele>
        <time>2025-04-24T12:09:07Z</time>
      </trkpt>
      <trkpt lat="45.679114032536745" lon="4.44703096523881">
        <ele>580.76999999999998</ele>
        <time>2025-04-24T12:09:08Z</time>
      </trkpt>
      <trkpt lat="45.678943041712046" lon="4.447019984945655">
        <ele>581.25</ele>
        <time>2025-04-24T12:09:09Z</time>
      </trkpt>
      <trkpt lat="45.67843702621758" lon="4.446930969133973">
        <ele>583.17999999999995</ele>
        <time>2025-04-24T12:09:12Z</time>
      </trkpt>
      <trkpt lat="45.678296964615583" lon="4.44685603491962">
        <ele>583.65999999999997</ele>
        <time>2025-04-24T12:09:13Z</time>
      </trkpt>
      <trkpt lat="45.678194034844637" lon="4.446698036044836">
        <ele>584.13999999999999</ele>
        <time>2025-04-24T12:09:14Z</time>
      </trkpt>
      <trkpt lat="45.678088003769517" lon="4.446512963622809">
        <ele>584.62</ele>
        <time>2025-04-24T12:09:15Z</time>
      </trkpt>
      <trkpt lat="45.677997982129455" lon="4.446312971413136">
        <ele>585.58000000000004</ele>
        <time>2025-04-24T12:09:16Z</time>
      </trkpt>
      <trkpt lat="45.677937967702746" lon="4.44608498364687">
        <ele>586.05999999999995</ele>
        <time>2025-04-24T12:09:17Z</time>
      </trkpt>
      <trkpt lat="45.677878959104419" lon="4.445862025022507">
        <ele>587.01999999999998</ele>
        <time>2025-04-24T12:09:18Z</time>
      </trkpt>
      <trkpt lat="45.677826991304755" lon="4.445664966478944">
        <ele>587.98000000000002</ele>
        <time>2025-04-24T12:09:19Z</time>
      </trkpt>
      <trkpt lat="45.677728001028299" lon="4.445465980097652">
        <ele>588.95000000000005</ele>
        <time>2025-04-24T12:09:20Z</time>
      </trkpt>
      <trkpt lat="45.677597997710109" lon="4.445317033678293">
        <ele>589.42999999999995</ele>
        <time>2025-04-24T12:09:21Z</time>
      </trkpt>
      <trkpt lat="45.677457014098763" lon="4.445165991783142">
        <ele>589.90999999999997</ele>
        <time>2025-04-24T12:09:22Z</time>
      </trkpt>
      <trkpt lat="45.6772789824754" lon="4.445073958486319">
        <ele>590.38999999999999</ele>
        <time>2025-04-24T12:09:23Z</time>
      </trkpt>
      <trkpt lat="45.677089970558882" lon="4.444985026493669">
        <ele>591.35000000000002</ele>
        <time>2025-04-24T12:09:24Z</time>
      </trkpt>
      <trkpt lat="45.67689199000597" lon="4.444962982088327">
        <ele>591.83000000000004</ele>
        <time>2025-04-24T12:09:25Z</time>
      </trkpt>
      <trkpt lat="45.676693003624678" lon="4.44494697265327">
        <ele>592.30999999999995</ele>
        <time>2025-04-24T12:09:26Z</time>
      </trkpt>
      <trkpt lat="45.676329983398318" lon="4.444917971268296">
        <ele>593.26999999999998</ele>
        <time>2025-04-24T12:09:28Z</time>
      </trkpt>
      <trkpt lat="45.676182964816689" lon="4.444958036765456">
        <ele>593.75</ele>
        <time>2025-04-24T12:09:29Z</time>
      </trkpt>
      <trkpt lat="45.676067965105176" lon="4.44503397680819">
        <ele>594.23000000000002</ele>
        <time>2025-04-24T12:09:30Z</time>
      </trkpt>
      <trkpt lat="45.675979033112526" lon="4.445187030360103">
        <ele>594.71000000000004</ele>
        <time>2025-04-24T12:09:31Z</time>
      </trkpt>
      <trkpt lat="45.675885993987322" lon="4.445345029234886">
        <ele>595.19000000000005</ele>
        <time>2025-04-24T12:09:32Z</time>
      </trkpt>
      <trkpt lat="45.67579597234726" lon="4.445491963997483">
        <ele>595.66999999999996</ele>
        <time>2025-04-24T12:09:33Z</time>
      </trkpt>
      <trkpt lat="45.675716008991003" lon="4.445621967315674">
        <ele>595.66999999999996</ele>
        <time>2025-04-24T12:09:34Z</time>
      </trkpt>
      <trkpt lat="45.675621964037418" lon="4.445643005892634">
        <ele>595.19000000000005</ele>
        <time>2025-04-24T12:09:35Z</time>
      </trkpt>
      <trkpt lat="45.675536971539259" lon="4.445643005892634">
        <ele>595.66999999999996</ele>
        <time>2025-04-24T12:09:36Z</time>
      </trkpt>
      <trkpt lat="45.675447033718228" lon="4.445602018386126">
        <ele>595.66999999999996</ele>
        <time>2025-04-24T12:09:37Z</time>
      </trkpt>
      <trkpt lat="45.675348965451121" lon="4.445500010624528">
        <ele>596.14999999999998</ele>
        <time>2025-04-24T12:09:38Z</time>
      </trkpt>
      <trkpt lat="45.67523698322475" lon="4.445385010913014">
        <ele>596.63999999999999</ele>
        <time>2025-04-24T12:09:39Z</time>
      </trkpt>
      <trkpt lat="45.675111003220081" lon="4.445254001766443">
        <ele>597.12</ele>
        <time>2025-04-24T12:09:40Z</time>
      </trkpt>
      <trkpt lat="45.674972031265497" lon="4.445111006498337">
        <ele>597.12</ele>
        <time>2025-04-24T12:09:41Z</time>
      </trkpt>
      <trkpt lat="45.674832975491881" lon="4.44496700540185">
        <ele>597.12</ele>
        <time>2025-04-24T12:09:42Z</time>
      </trkpt>
      <trkpt lat="45.674685034900904" lon="4.444883018732071">
        <ele>597.60000000000002</ele>
        <time>2025-04-24T12:09:43Z</time>
      </trkpt>
      <trkpt lat="45.674543967470527" lon="4.444806994870305">
        <ele>597.60000000000002</ele>
        <time>2025-04-24T12:09:44Z</time>
      </trkpt>
      <trkpt lat="45.674393009394407" lon="4.444806994870305">
        <ele>597.60000000000002</ele>
        <time>2025-04-24T12:09:45Z</time>
      </trkpt>
      <trkpt lat="45.674246996641159" lon="4.444826021790505">
        <ele>597.60000000000002</ele>
        <time>2025-04-24T12:09:46Z</time>
      </trkpt>
      <trkpt lat="45.674102995544672" lon="4.444898022338748">
        <ele>597.60000000000002</ele>
        <time>2025-04-24T12:09:47Z</time>
      </trkpt>
      <trkpt lat="45.673979027196765" lon="4.445012016221881">
        <ele>598.08000000000004</ele>
        <time>2025-04-24T12:09:48Z</time>
      </trkpt>
      <trkpt lat="45.673852041363716" lon="4.445147970691323">
        <ele>598.55999999999995</ele>
        <time>2025-04-24T12:09:49Z</time>
      </trkpt>
      <trkpt lat="45.673719020560384" lon="4.445289960131049">
        <ele>598.55999999999995</ele>
        <time>2025-04-24T12:09:50Z</time>
      </trkpt>
      <trkpt lat="45.673210993409157" lon="4.445824977010489">
        <ele>600.48000000000002</ele>
        <time>2025-04-24T12:09:54Z</time>
      </trkpt>
      <trkpt lat="45.673100017011166" lon="4.44589396007359">
        <ele>600.96000000000004</ele>
        <time>2025-04-24T12:09:55Z</time>
      </trkpt>
      <trkpt lat="45.673015024513006" lon="4.445940982550383">
        <ele>601.44000000000005</ele>
        <time>2025-04-24T12:09:56Z</time>
      </trkpt>
      <trkpt lat="45.672930032014847" lon="4.445898989215493">
        <ele>601.44000000000005</ele>
        <time>2025-04-24T12:09:57Z</time>
      </trkpt>
      <trkpt lat="45.672864988446236" lon="4.445832017809153">
        <ele>601.44000000000005</ele>
        <time>2025-04-24T12:09:58Z</time>
      </trkpt>
      <trkpt lat="45.672805979847908" lon="4.445724980905652">
        <ele>601.44000000000005</ele>
        <time>2025-04-24T12:09:59Z</time>
      </trkpt>
      <trkpt lat="45.672805979847908" lon="4.445573017001152">
        <ele>601.44000000000005</ele>
        <time>2025-04-24T12:10:00Z</time>
      </trkpt>
      <trkpt lat="45.672805979847908" lon="4.445388028398156">
        <ele>601.44000000000005</ele>
        <time>2025-04-24T12:10:01Z</time>
      </trkpt>
      <trkpt lat="45.672805979847908" lon="4.445214020088315">
        <ele>601.44000000000005</ele>
        <time>2025-04-24T12:10:02Z</time>
      </trkpt>
      <trkpt lat="45.672749988734722" lon="4.444961976259947">
        <ele>601.91999999999996</ele>
        <time>2025-04-24T12:10:03Z</time>
      </trkpt>
      <trkpt lat="45.672673964872956" lon="4.444525027647615">
        <ele>602.88</ele>
        <time>2025-04-24T12:10:05Z</time>
      </trkpt>
      <trkpt lat="45.672668013721704" lon="4.444326963275671">
        <ele>603.85000000000002</ele>
        <time>2025-04-24T12:10:06Z</time>
      </trkpt>
      <trkpt lat="45.672662984579802" lon="4.444127976894379">
        <ele>604.33000000000004</ele>
        <time>2025-04-24T12:10:07Z</time>
      </trkpt>
      <trkpt lat="45.672656027600169" lon="4.443883979693055">
        <ele>604.80999999999995</ele>
        <time>2025-04-24T12:10:08Z</time>
      </trkpt>
      <trkpt lat="45.672581009566784" lon="4.443728998303413">
        <ele>605.28999999999996</ele>
        <time>2025-04-24T12:10:09Z</time>
      </trkpt>
      <trkpt lat="45.672492999583483" lon="4.443546021357179">
        <ele>605.76999999999998</ele>
        <time>2025-04-24T12:10:10Z</time>
      </trkpt>
      <trkpt lat="45.672353021800518" lon="4.443212002515793">
        <ele>606.25</ele>
        <time>2025-04-24T12:10:12Z</time>
      </trkpt>
      <trkpt lat="45.672312034294009" lon="4.443046962842345">
        <ele>606.73000000000002</ele>
        <time>2025-04-24T12:10:13Z</time>
      </trkpt>
      <trkpt lat="45.672333994880319" lon="4.442918971180916">
        <ele>607.21000000000004</ele>
        <time>2025-04-24T12:10:14Z</time>
      </trkpt>
      <trkpt lat="45.672384034842253" lon="4.442745968699455">
        <ele>607.69000000000005</ele>
        <time>2025-04-24T12:10:15Z</time>
      </trkpt>
      <trkpt lat="45.672504985705018" lon="4.442575983703136">
        <ele>608.16999999999996</ele>
        <time>2025-04-24T12:10:16Z</time>
      </trkpt>
      <trkpt lat="45.672656027600169" lon="4.442430976778269">
        <ele>608.64999999999998</ele>
        <time>2025-04-24T12:10:17Z</time>
      </trkpt>
      <trkpt lat="45.672799022868276" lon="4.442293010652065">
        <ele>609.13</ele>
        <time>2025-04-24T12:10:18Z</time>
      </trkpt>
      <trkpt lat="45.673062968999147" lon="4.442039038985968">
        <ele>610.09000000000003</ele>
        <time>2025-04-24T12:10:20Z</time>
      </trkpt>
      <trkpt lat="45.673137987032533" lon="4.441908029839397">
        <ele>610.57000000000005</ele>
        <time>2025-04-24T12:10:21Z</time>
      </trkpt>
      <trkpt lat="45.673163970932364" lon="4.441740978509188">
        <ele>610.57000000000005</ele>
        <time>2025-04-24T12:10:22Z</time>
      </trkpt>
      <trkpt lat="45.673129018396139" lon="4.441564036533237">
        <ele>610.57000000000005</ele>
        <time>2025-04-24T12:10:23Z</time>
      </trkpt>
      <trkpt lat="45.673062968999147" lon="4.441394973546267">
        <ele>611.05999999999995</ele>
        <time>2025-04-24T12:10:24Z</time>
      </trkpt>
      <trkpt lat="45.67293799482286" lon="4.44122800603509">
        <ele>611.53999999999996</ele>
        <time>2025-04-24T12:10:25Z</time>
      </trkpt>
      <trkpt lat="45.672805979847908" lon="4.441051986068487">
        <ele>612.01999999999998</ele>
        <time>2025-04-24T12:10:26Z</time>
      </trkpt>
      <trkpt lat="45.67263800650835" lon="4.440917037427425">
        <ele>612.5</ele>
        <time>2025-04-24T12:10:27Z</time>
      </trkpt>
      <trkpt lat="45.671321963891387" lon="4.439864018931985">
        <ele>616.34000000000003</ele>
        <time>2025-04-24T12:10:34Z</time>
      </trkpt>
      <trkpt lat="45.670248996466398" lon="4.438863974064589">
        <ele>620.19000000000005</ele>
        <time>2025-04-24T12:10:41Z</time>
      </trkpt>
      <trkpt lat="45.67008001729846" lon="4.438754003494978">
        <ele>620.66999999999996</ele>
        <time>2025-04-24T12:10:42Z</time>
      </trkpt>
      <trkpt lat="45.669916989281774" lon="4.438648978248239">
        <ele>620.66999999999996</ele>
        <time>2025-04-24T12:10:43Z</time>
      </trkpt>
      <trkpt lat="45.669761002063751" lon="4.438548982143402">
        <ele>621.14999999999998</ele>
        <time>2025-04-24T12:10:44Z</time>
      </trkpt>
      <trkpt lat="45.669633010402322" lon="4.438397018238902">
        <ele>621.14999999999998</ele>
        <time>2025-04-24T12:10:45Z</time>
      </trkpt>
      <trkpt lat="45.669514993205667" lon="4.438223009929061">
        <ele>621.63</ele>
        <time>2025-04-24T12:10:46Z</time>
      </trkpt>
      <trkpt lat="45.669391024857759" lon="4.438040032982826">
        <ele>622.11000000000001</ele>
        <time>2025-04-24T12:10:47Z</time>
      </trkpt>
      <trkpt lat="45.669259009882808" lon="4.437846997752786">
        <ele>622.59000000000003</ele>
        <time>2025-04-24T12:10:48Z</time>
      </trkpt>
      <trkpt lat="45.669101011008024" lon="4.437672989442945">
        <ele>622.59000000000003</ele>
        <time>2025-04-24T12:10:49Z</time>
      </trkpt>
      <trkpt lat="45.667775999754667" lon="4.436300033703446">
        <ele>624.99000000000001</ele>
        <time>2025-04-24T12:10:57Z</time>
      </trkpt>
      <trkpt lat="45.666623990982771" lon="4.435650017112494">
        <ele>626.91999999999996</ele>
        <time>2025-04-24T12:11:04Z</time>
      </trkpt>
      <trkpt lat="45.666503040120006" lon="4.435582961887121">
        <ele>626.91999999999996</ele>
        <time>2025-04-24T12:11:05Z</time>
      </trkpt>
      <trkpt lat="45.666434979066253" lon="4.435430997982621">
        <ele>627.39999999999998</ele>
        <time>2025-04-24T12:11:06Z</time>
      </trkpt>
      <trkpt lat="45.666389968246222" lon="4.435269981622696">
        <ele>627.39999999999998</ele>
        <time>2025-04-24T12:11:07Z</time>
      </trkpt>
      <trkpt lat="45.666389968246222" lon="4.435079963877797">
        <ele>627.88</ele>
        <time>2025-04-24T12:11:08Z</time>
      </trkpt>
      <trkpt lat="45.66640798933804" lon="4.434874020516872">
        <ele>628.36000000000001</ele>
        <time>2025-04-24T12:11:09Z</time>
      </trkpt>
      <trkpt lat="45.666440008208156" lon="4.434647960588336">
        <ele>628.36000000000001</ele>
        <time>2025-04-24T12:11:10Z</time>
      </trkpt>
      <trkpt lat="45.666615022346377" lon="4.433631990104914">
        <ele>629.79999999999995</ele>
        <time>2025-04-24T12:11:14Z</time>
      </trkpt>
      <trkpt lat="45.666694985702634" lon="4.433379024267197">
        <ele>630.75999999999999</ele>
        <time>2025-04-24T12:11:15Z</time>
      </trkpt>
      <trkpt lat="45.666854996234179" lon="4.432876026257873">
        <ele>631.72000000000003</ele>
        <time>2025-04-24T12:11:17Z</time>
      </trkpt>
      <trkpt lat="45.666903024539351" lon="4.432587018236518">
        <ele>631.72000000000003</ele>
        <time>2025-04-24T12:11:18Z</time>
      </trkpt>
      <trkpt lat="45.666945017874241" lon="4.432307984679937">
        <ele>632.20000000000005</ele>
        <time>2025-04-24T12:11:19Z</time>
      </trkpt>
      <trkpt lat="45.666961027309299" lon="4.43121800199151">
        <ele>633.16999999999996</ele>
        <time>2025-04-24T12:11:23Z</time>
      </trkpt>
      <trkpt lat="45.666914004832506" lon="4.430974004790187">
        <ele>633.16999999999996</ele>
        <time>2025-04-24T12:11:24Z</time>
      </trkpt>
      <trkpt lat="45.666867988184094" lon="4.430731013417244">
        <ele>633.16999999999996</ele>
        <time>2025-04-24T12:11:25Z</time>
      </trkpt>
      <trkpt lat="45.666744019836187" lon="4.428560016676784">
        <ele>634.13</ele>
        <time>2025-04-24T12:11:33Z</time>
      </trkpt>
      <trkpt lat="45.666722981259227" lon="4.428114015609026">
        <ele>634.13</ele>
        <time>2025-04-24T12:11:35Z</time>
      </trkpt>
      <trkpt lat="45.666679982095957" lon="4.427941013127565">
        <ele>634.13</ele>
        <time>2025-04-24T12:11:36Z</time>
      </trkpt>
      <trkpt lat="45.666586020961404" lon="4.427810003980994">
        <ele>634.61000000000001</ele>
        <time>2025-04-24T12:11:37Z</time>
      </trkpt>
      <trkpt lat="45.666465992107987" lon="4.427682012319565">
        <ele>634.61000000000001</ele>
        <time>2025-04-24T12:11:38Z</time>
      </trkpt>
      <trkpt lat="45.666326014325023" lon="4.427532982081175">
        <ele>634.61000000000001</ele>
        <time>2025-04-24T12:11:39Z</time>
      </trkpt>
      <trkpt lat="45.666170027107" lon="4.427428962662816">
        <ele>635.09000000000003</ele>
        <time>2025-04-24T12:11:40Z</time>
      </trkpt>
      <trkpt lat="45.665466031059623" lon="4.426959995180368">
        <ele>637.49000000000001</ele>
        <time>2025-04-24T12:11:44Z</time>
      </trkpt>
      <trkpt lat="45.664117969572544" lon="4.42593002691865">
        <ele>643.74000000000001</ele>
        <time>2025-04-24T12:11:52Z</time>
      </trkpt>
      <trkpt lat="45.663942033424973" lon="4.425865989178419">
        <ele>644.22000000000003</ele>
        <time>2025-04-24T12:11:53Z</time>
      </trkpt>
      <trkpt lat="45.663269972428679" lon="4.425682006403804">
        <ele>646.13999999999999</ele>
        <time>2025-04-24T12:11:57Z</time>
      </trkpt>
      <trkpt lat="45.663186991587281" lon="4.425607994198799">
        <ele>646.13999999999999</ele>
        <time>2025-04-24T12:11:58Z</time>
      </trkpt>
      <trkpt lat="45.663129994645715" lon="4.425484025850892">
        <ele>646.13999999999999</ele>
        <time>2025-04-24T12:11:59Z</time>
      </trkpt>
      <trkpt lat="45.663086995482445" lon="4.425348993390799">
        <ele>646.62</ele>
        <time>2025-04-24T12:12:00Z</time>
      </trkpt>
      <trkpt lat="45.663096969947219" lon="4.425149001181126">
        <ele>646.62</ele>
        <time>2025-04-24T12:12:01Z</time>
      </trkpt>
      <trkpt lat="45.663107028231025" lon="4.42494397982955">
        <ele>646.62</ele>
        <time>2025-04-24T12:12:02Z</time>
      </trkpt>
      <trkpt lat="45.663058999925852" lon="4.424727978184819">
        <ele>647.10000000000002</ele>
        <time>2025-04-24T12:12:03Z</time>
      </trkpt>
      <trkpt lat="45.662973001599312" lon="4.424520023167133">
        <ele>647.10000000000002</ele>
        <time>2025-04-24T12:12:04Z</time>
      </trkpt>
      <trkpt lat="45.662867976352572" lon="4.424315001815558">
        <ele>647.59000000000003</ele>
        <time>2025-04-24T12:12:05Z</time>
      </trkpt>
      <trkpt lat="45.662756999954581" lon="4.424097994342446">
        <ele>648.07000000000005</ele>
        <time>2025-04-24T12:12:06Z</time>
      </trkpt>
      <trkpt lat="45.661861980333924" lon="4.422466037794948">
        <ele>650.95000000000005</ele>
        <time>2025-04-24T12:12:14Z</time>
      </trkpt>
      <trkpt lat="45.661737006157637" lon="4.422339973971248">
        <ele>650.95000000000005</ele>
        <time>2025-04-24T12:12:15Z</time>
      </trkpt>
      <trkpt lat="45.661603985354304" lon="4.422236038371921">
        <ele>651.42999999999995</ele>
        <time>2025-04-24T12:12:16Z</time>
      </trkpt>
      <trkpt lat="45.660883979871869" lon="4.421725999563932">
        <ele>653.35000000000002</ele>
        <time>2025-04-24T12:12:22Z</time>
      </trkpt>
      <trkpt lat="45.660778032615781" lon="4.421670008450747">
        <ele>653.83000000000004</ele>
        <time>2025-04-24T12:12:23Z</time>
      </trkpt>
      <trkpt lat="45.660658003762364" lon="4.421649975702167">
        <ele>654.30999999999995</ele>
        <time>2025-04-24T12:12:24Z</time>
      </trkpt>
      <trkpt lat="45.660534035414457" lon="4.421629020944238">
        <ele>654.79999999999995</ele>
        <time>2025-04-24T12:12:25Z</time>
      </trkpt>
      <trkpt lat="45.660405037924647" lon="4.421607982367277">
        <ele>655.27999999999997</ele>
        <time>2025-04-24T12:12:26Z</time>
      </trkpt>
      <trkpt lat="45.658794036135077" lon="4.421350993216038">
        <ele>662.49000000000001</ele>
        <time>2025-04-24T12:12:38Z</time>
      </trkpt>
      <trkpt lat="45.657682009041309" lon="4.421362979337573">
        <ele>665.37</ele>
        <time>2025-04-24T12:12:48Z</time>
      </trkpt>
      <trkpt lat="45.656985975801945" lon="4.42163203842938">
        <ele>669.22000000000003</ele>
        <time>2025-04-24T12:12:57Z</time>
      </trkpt>
      <trkpt lat="45.656940964981914" lon="4.421650981530547">
        <ele>669.22000000000003</ele>
        <time>2025-04-24T12:12:58Z</time>
      </trkpt>
      <trkpt lat="45.656904000788927" lon="4.421666990965605">
        <ele>669.22000000000003</ele>
        <time>2025-04-24T12:12:59Z</time>
      </trkpt>
      <trkpt lat="45.656841974705458" lon="4.421573029831052">
        <ele>669.70000000000005</ele>
        <time>2025-04-24T12:13:00Z</time>
      </trkpt>
      <trkpt lat="45.656813979148865" lon="4.42150597460568">
        <ele>669.70000000000005</ele>
        <time>2025-04-24T12:13:01Z</time>
      </trkpt>
      <trkpt lat="45.656777014955878" lon="4.421417964622378">
        <ele>669.70000000000005</ele>
        <time>2025-04-24T12:13:02Z</time>
      </trkpt>
      <trkpt lat="45.656755976378918" lon="4.42135401070118">
        <ele>669.70000000000005</ele>
        <time>2025-04-24T12:13:03Z</time>
      </trkpt>
      <trkpt lat="45.656460011377931" lon="4.42043200135231">
        <ele>671.13999999999999</ele>
        <time>2025-04-24T12:13:14Z</time>
      </trkpt>
      <trkpt lat="45.656340988352895" lon="4.419992035254836">
        <ele>673.05999999999995</ele>
        <time>2025-04-24T12:13:19Z</time>
      </trkpt>
      <trkpt lat="45.656289020553231" lon="4.419491970911622">
        <ele>675.94000000000005</ele>
        <time>2025-04-24T12:13:24Z</time>
      </trkpt>
      <trkpt lat="45.65633000805974" lon="4.418951002880931">
        <ele>677.38999999999999</ele>
        <time>2025-04-24T12:13:29Z</time>
      </trkpt>
      <trkpt lat="45.656340988352895" lon="4.418831979855895">
        <ele>677.87</ele>
        <time>2025-04-24T12:13:30Z</time>
      </trkpt>
      <trkpt lat="45.656389016658068" lon="4.417931009083986">
        <ele>676.41999999999996</ele>
        <time>2025-04-24T12:13:38Z</time>
      </trkpt>
      <trkpt lat="45.656369989737868" lon="4.417823972180486">
        <ele>675.94000000000005</ele>
        <time>2025-04-24T12:13:39Z</time>
      </trkpt>
      <trkpt lat="45.656321039423347" lon="4.417696986347437">
        <ele>674.98000000000002</ele>
        <time>2025-04-24T12:13:40Z</time>
      </trkpt>
      <trkpt lat="45.656264964491129" lon="4.417562037706375">
        <ele>674.5</ele>
        <time>2025-04-24T12:13:41Z</time>
      </trkpt>
      <trkpt lat="45.656194975599647" lon="4.417420970275998">
        <ele>673.53999999999996</ele>
        <time>2025-04-24T12:13:42Z</time>
      </trkpt>
      <trkpt lat="45.656120041385293" lon="4.41727202385664">
        <ele>673.05999999999995</ele>
        <time>2025-04-24T12:13:43Z</time>
      </trkpt>
      <trkpt lat="45.655850982293487" lon="4.416873967275024">
        <ele>669.22000000000003</ele>
        <time>2025-04-24T12:13:46Z</time>
      </trkpt>
      <trkpt lat="45.654702996835113" lon="4.415086023509502">
        <ele>664.88999999999999</ele>
        <time>2025-04-24T12:13:58Z</time>
      </trkpt>
      <trkpt lat="45.653710998594761" lon="4.413546016439796">
        <ele>662.97000000000003</ele>
        <time>2025-04-24T12:14:06Z</time>
      </trkpt>
      <trkpt lat="45.65325703471899" lon="4.412836991250515">
        <ele>661.51999999999998</ele>
        <time>2025-04-24T12:14:11Z</time>
      </trkpt>
      <trkpt lat="45.653215041384101" lon="4.412770019844174">
        <ele>661.03999999999996</ele>
        <time>2025-04-24T12:14:12Z</time>
      </trkpt>
      <trkpt lat="45.65319400280714" lon="4.412734983488917">
        <ele>661.03999999999996</ele>
        <time>2025-04-24T12:14:13Z</time>
      </trkpt>
      <trkpt lat="45.653218980878592" lon="4.412578996270895">
        <ele>660.55999999999995</ele>
        <time>2025-04-24T12:14:14Z</time>
      </trkpt>
      <trkpt lat="45.653263991698623" lon="4.41252501681447">
        <ele>660.08000000000004</ele>
        <time>2025-04-24T12:14:15Z</time>
      </trkpt>
      <trkpt lat="45.653320988640189" lon="4.412455027922988">
        <ele>659.60000000000002</ele>
        <time>2025-04-24T12:14:16Z</time>
      </trkpt>
      <trkpt lat="45.65338502638042" lon="4.41237598657608">
        <ele>659.60000000000002</ele>
        <time>2025-04-24T12:14:17Z</time>
      </trkpt>
      <trkpt lat="45.653584012761712" lon="4.412089996039867">
        <ele>658.63999999999999</ele>
        <time>2025-04-24T12:14:20Z</time>
      </trkpt>
      <trkpt lat="45.65364302136004" lon="4.411964016035199">
        <ele>658.63999999999999</ele>
        <time>2025-04-24T12:14:21Z</time>
      </trkpt>
      <trkpt lat="45.65368702635169" lon="4.411819009110332">
        <ele>658.63999999999999</ele>
        <time>2025-04-24T12:14:22Z</time>
      </trkpt>
      <trkpt lat="45.653690965846181" lon="4.411652963608503">
        <ele>658.63999999999999</ele>
        <time>2025-04-24T12:14:23Z</time>
      </trkpt>
      <trkpt lat="45.653698006644845" lon="4.411482978612185">
        <ele>658.63999999999999</ele>
        <time>2025-04-24T12:14:24Z</time>
      </trkpt>
      <trkpt lat="45.653718039393425" lon="4.410979980602861">
        <ele>657.20000000000005</ele>
        <time>2025-04-24T12:14:27Z</time>
      </trkpt>
      <trkpt lat="45.653724996373057" lon="4.410803960636258">
        <ele>657.20000000000005</ele>
        <time>2025-04-24T12:14:28Z</time>
      </trkpt>
      <trkpt lat="45.653755003586411" lon="4.410630958154798">
        <ele>656.72000000000003</ele>
        <time>2025-04-24T12:14:29Z</time>
      </trkpt>
      <trkpt lat="45.653819963335991" lon="4.410477988421917">
        <ele>656.72000000000003</ele>
        <time>2025-04-24T12:14:30Z</time>
      </trkpt>
      <trkpt lat="45.653887018561363" lon="4.410323007032275">
        <ele>656.24000000000001</ele>
        <time>2025-04-24T12:14:31Z</time>
      </trkpt>
      <trkpt lat="45.653953989967704" lon="4.410167019814253">
        <ele>655.75999999999999</ele>
        <time>2025-04-24T12:14:32Z</time>
      </trkpt>
      <trkpt lat="45.654172003269196" lon="4.409741973504424">
        <ele>656.72000000000003</ele>
        <time>2025-04-24T12:14:35Z</time>
      </trkpt>
      <trkpt lat="45.654265964403749" lon="4.409572994336486">
        <ele>656.72000000000003</ele>
        <time>2025-04-24T12:14:36Z</time>
      </trkpt>
      <trkpt lat="45.654323967173696" lon="4.409280968829989">
        <ele>656.72000000000003</ele>
        <time>2025-04-24T12:14:38Z</time>
      </trkpt>
      <trkpt lat="45.654432009905577" lon="4.40788202919066">
        <ele>652.87</ele>
        <time>2025-04-24T12:14:46Z</time>
      </trkpt>
      <trkpt lat="45.654435027390718" lon="4.407773986458778">
        <ele>651.90999999999997</ele>
        <time>2025-04-24T12:14:47Z</time>
      </trkpt>
      <trkpt lat="45.65443703904748" lon="4.407682958990336">
        <ele>650.95000000000005</ele>
        <time>2025-04-24T12:14:48Z</time>
      </trkpt>
      <trkpt lat="45.654499987140298" lon="4.407591009512544">
        <ele>650.47000000000003</ele>
        <time>2025-04-24T12:14:49Z</time>
      </trkpt>
      <trkpt lat="45.654565030708909" lon="4.407559996470809">
        <ele>649.50999999999999</ele>
        <time>2025-04-24T12:14:50Z</time>
      </trkpt>
      <trkpt lat="45.654643988236785" lon="4.407522026449442">
        <ele>649.02999999999997</ele>
        <time>2025-04-24T12:14:51Z</time>
      </trkpt>
      <trkpt lat="45.654726969078183" lon="4.407481960952282">
        <ele>648.54999999999995</ele>
        <time>2025-04-24T12:14:52Z</time>
      </trkpt>
      <trkpt lat="45.655403975397348" lon="4.407298984006047">
        <ele>644.22000000000003</ele>
        <time>2025-04-24T12:14:59Z</time>
      </trkpt>
      <trkpt lat="45.655472036451101" lon="4.4072600081563">
        <ele>643.25999999999999</ele>
        <time>2025-04-24T12:15:00Z</time>
      </trkpt>
      <trkpt lat="45.655635986477137" lon="4.407167974859476">
        <ele>641.82000000000005</ele>
        <time>2025-04-24T12:15:02Z</time>
      </trkpt>
      <trkpt lat="45.655717039480805" lon="4.407121958211064">
        <ele>640.86000000000001</ele>
        <time>2025-04-24T12:15:03Z</time>
      </trkpt>
      <trkpt lat="45.655817035585642" lon="4.407119024544954">
        <ele>639.88999999999999</ele>
        <time>2025-04-24T12:15:04Z</time>
      </trkpt>
      <trkpt lat="45.655918037518859" lon="4.407137967646122">
        <ele>638.92999999999995</ele>
        <time>2025-04-24T12:15:05Z</time>
      </trkpt>
      <trkpt lat="45.656023984774947" lon="4.407158000394702">
        <ele>637.49000000000001</ele>
        <time>2025-04-24T12:15:06Z</time>
      </trkpt>
      <trkpt lat="45.656124986708164" lon="4.407177027314901">
        <ele>636.04999999999995</ele>
        <time>2025-04-24T12:15:07Z</time>
      </trkpt>
      <trkpt lat="45.656226994469762" lon="4.407219020649791">
        <ele>634.13</ele>
        <time>2025-04-24T12:15:08Z</time>
      </trkpt>
      <trkpt lat="45.65630997531116" lon="4.407297978177667">
        <ele>632.20000000000005</ele>
        <time>2025-04-24T12:15:09Z</time>
      </trkpt>
      <trkpt lat="45.656402008607984" lon="4.407385988160968">
        <ele>630.27999999999997</ele>
        <time>2025-04-24T12:15:10Z</time>
      </trkpt>
      <trkpt lat="45.656492030248046" lon="4.407471986487508">
        <ele>628.36000000000001</ele>
        <time>2025-04-24T12:15:11Z</time>
      </trkpt>
      <trkpt lat="45.656571993604302" lon="4.407548010349274">
        <ele>626.91999999999996</ele>
        <time>2025-04-24T12:15:12Z</time>
      </trkpt>
      <trkpt lat="45.656644999980927" lon="4.407616993412376">
        <ele>624.99000000000001</ele>
        <time>2025-04-24T12:15:13Z</time>
      </trkpt>
      <trkpt lat="45.656730998307467" lon="4.407625962048769">
        <ele>623.07000000000005</ele>
        <time>2025-04-24T12:15:14Z</time>
      </trkpt>
      <trkpt lat="45.65682303160429" lon="4.407633002847433">
        <ele>621.63</ele>
        <time>2025-04-24T12:15:15Z</time>
      </trkpt>
      <trkpt lat="45.656914981082082" lon="4.407639037817717">
        <ele>620.66999999999996</ele>
        <time>2025-04-24T12:15:16Z</time>
      </trkpt>
      <trkpt lat="45.657000979408622" lon="4.40760400146246">
        <ele>619.23000000000002</ele>
        <time>2025-04-24T12:15:17Z</time>
      </trkpt>
      <trkpt lat="45.657077003270388" lon="4.407549016177654">
        <ele>617.77999999999997</ele>
        <time>2025-04-24T12:15:18Z</time>
      </trkpt>
      <trkpt lat="45.657142968848348" lon="4.407500987872481">
        <ele>616.82000000000005</ele>
        <time>2025-04-24T12:15:19Z</time>
      </trkpt>
      <trkpt lat="45.657198037952185" lon="4.407421024516225">
        <ele>615.86000000000001</ele>
        <time>2025-04-24T12:15:20Z</time>
      </trkpt>
      <trkpt lat="45.657224021852016" lon="4.407321028411388">
        <ele>614.89999999999998</ele>
        <time>2025-04-24T12:15:21Z</time>
      </trkpt>
      <trkpt lat="45.657251011580229" lon="4.407219020649791">
        <ele>613.94000000000005</ele>
        <time>2025-04-24T12:15:22Z</time>
      </trkpt>
      <trkpt lat="45.657313037663698" lon="4.406984997913241">
        <ele>612.5</ele>
        <time>2025-04-24T12:15:24Z</time>
      </trkpt>
      <trkpt lat="45.657377997413278" lon="4.406741000711918">
        <ele>611.53999999999996</ele>
        <time>2025-04-24T12:15:26Z</time>
      </trkpt>
      <trkpt lat="45.657396018505096" lon="4.406584007665515">
        <ele>611.05999999999995</ele>
        <time>2025-04-24T12:15:27Z</time>
      </trkpt>
      <trkpt lat="45.657411022111773" lon="4.406457021832466">
        <ele>610.57000000000005</ele>
        <time>2025-04-24T12:15:28Z</time>
      </trkpt>
      <trkpt lat="45.657412027940154" lon="4.406311009079218">
        <ele>610.57000000000005</ele>
        <time>2025-04-24T12:15:29Z</time>
      </trkpt>
      <trkpt lat="45.657393001019955" lon="4.406173964962363">
        <ele>610.09000000000003</ele>
        <time>2025-04-24T12:15:30Z</time>
      </trkpt>
      <trkpt lat="45.657373974099755" lon="4.406031975522637">
        <ele>610.09000000000003</ele>
        <time>2025-04-24T12:15:31Z</time>
      </trkpt>
      <trkpt lat="45.657281018793583" lon="4.405616987496615">
        <ele>609.13</ele>
        <time>2025-04-24T12:15:34Z</time>
      </trkpt>
      <trkpt lat="45.657106004655361" lon="4.404864041134715">
        <ele>607.21000000000004</ele>
        <time>2025-04-24T12:15:39Z</time>
      </trkpt>
      <trkpt lat="45.656999973580241" lon="4.403308024629951">
        <ele>601.91999999999996</ele>
        <time>2025-04-24T12:15:47Z</time>
      </trkpt>
      <trkpt lat="45.656838035210967" lon="4.401182038709521">
        <ele>599.51999999999998</ele>
        <time>2025-04-24T12:15:57Z</time>
      </trkpt>
      <trkpt lat="45.656495969742537" lon="4.399649994447827">
        <ele>600.48000000000002</ele>
        <time>2025-04-24T12:16:05Z</time>
      </trkpt>
      <trkpt lat="45.655696000903845" lon="4.397474974393845">
        <ele>600</ele>
        <time>2025-04-24T12:16:17Z</time>
      </trkpt>
      <trkpt lat="45.65478103235364" lon="4.395179003477097">
        <ele>597.60000000000002</ele>
        <time>2025-04-24T12:16:29Z</time>
      </trkpt>
      <trkpt lat="45.654187006875873" lon="4.394037974998355">
        <ele>591.83000000000004</ele>
        <time>2025-04-24T12:16:36Z</time>
      </trkpt>
      <trkpt lat="45.653982991352677" lon="4.393758019432426">
        <ele>588.46000000000004</ele>
        <time>2025-04-24T12:16:38Z</time>
      </trkpt>
      <trkpt lat="45.653885006904602" lon="4.393622986972332">
        <ele>587.01999999999998</ele>
        <time>2025-04-24T12:16:39Z</time>
      </trkpt>
      <trkpt lat="45.653841001912951" lon="4.393448978662491">
        <ele>585.58000000000004</ele>
        <time>2025-04-24T12:16:40Z</time>
      </trkpt>
      <trkpt lat="45.6538160238415" lon="4.393266001716256">
        <ele>584.62</ele>
        <time>2025-04-24T12:16:41Z</time>
      </trkpt>
      <trkpt lat="45.653791967779398" lon="4.393077995628119">
        <ele>583.65999999999997</ele>
        <time>2025-04-24T12:16:42Z</time>
      </trkpt>
      <trkpt lat="45.653766989707947" lon="4.3928889837116">
        <ele>582.70000000000005</ele>
        <time>2025-04-24T12:16:43Z</time>
      </trkpt>
      <trkpt lat="45.653720973059535" lon="4.392711035907269">
        <ele>581.73000000000002</ele>
        <time>2025-04-24T12:16:44Z</time>
      </trkpt>
      <trkpt lat="45.653647966682911" lon="4.392551025375724">
        <ele>581.73000000000002</ele>
        <time>2025-04-24T12:16:45Z</time>
      </trkpt>
      <trkpt lat="45.65357998944819" lon="4.392366036772728">
        <ele>581.73000000000002</ele>
        <time>2025-04-24T12:16:46Z</time>
      </trkpt>
      <trkpt lat="45.652886973693967" lon="4.390697032213211">
        <ele>585.10000000000002</ele>
        <time>2025-04-24T12:16:54Z</time>
      </trkpt>
      <trkpt lat="45.652303006500006" lon="4.389221984893084">
        <ele>587.5</ele>
        <time>2025-04-24T12:17:02Z</time>
      </trkpt>
      <trkpt lat="45.652122041210532" lon="4.388699037954211">
        <ele>588.46000000000004</ele>
        <time>2025-04-24T12:17:05Z</time>
      </trkpt>
      <trkpt lat="45.652110977098346" lon="4.388499967753887">
        <ele>588.46000000000004</ele>
        <time>2025-04-24T12:17:06Z</time>
      </trkpt>
      <trkpt lat="45.65209899097681" lon="4.38826602883637">
        <ele>588.46000000000004</ele>
        <time>2025-04-24T12:17:07Z</time>
      </trkpt>
      <trkpt lat="45.651975022628903" lon="4.386379010975361">
        <ele>591.35000000000002</ele>
        <time>2025-04-24T12:17:16Z</time>
      </trkpt>
      <trkpt lat="45.651652989909053" lon="4.38481000252068">
        <ele>588.95000000000005</ele>
        <time>2025-04-24T12:17:24Z</time>
      </trkpt>
      <trkpt lat="45.65164502710104" lon="4.384587965905666">
        <ele>588.46000000000004</ele>
        <time>2025-04-24T12:17:25Z</time>
      </trkpt>
      <trkpt lat="45.651629017665982" lon="4.383536959066987">
        <ele>584.13999999999999</ele>
        <time>2025-04-24T12:17:30Z</time>
      </trkpt>
      <trkpt lat="45.651676962152123" lon="4.383362028747797">
        <ele>583.17999999999995</ele>
        <time>2025-04-24T12:17:31Z</time>
      </trkpt>
      <trkpt lat="45.651736976578832" lon="4.383195983245969">
        <ele>582.22000000000003</ele>
        <time>2025-04-24T12:17:32Z</time>
      </trkpt>
      <trkpt lat="45.652182977646589" lon="4.382089991122484">
        <ele>572.12</ele>
        <time>2025-04-24T12:17:40Z</time>
      </trkpt>
      <trkpt lat="45.652202004566789" lon="4.382042968645692">
        <ele>568.27999999999997</ele>
        <time>2025-04-24T12:17:46Z</time>
      </trkpt>
      <trkpt lat="45.652202004566789" lon="4.382042968645692">
        <ele>566.35000000000002</ele>
        <time>2025-04-24T12:18:01Z</time>
      </trkpt>
      <trkpt lat="45.652202004566789" lon="4.382042968645692">
        <ele>566.83000000000004</ele>
        <time>2025-04-24T12:18:48Z</time>
      </trkpt>
      <trkpt lat="45.652202004566789" lon="4.382042968645692">
        <ele>566.83000000000004</ele>
        <time>2025-04-24T12:19:37Z</time>
      </trkpt>
      <trkpt lat="45.652202004566789" lon="4.382042968645692">
        <ele>566.83000000000004</ele>
        <time>2025-04-24T12:19:40Z</time>
      </trkpt>
      <trkpt lat="45.652202004566789" lon="4.382042968645692">
        <ele>566.83000000000004</ele>
        <time>2025-04-24T12:20:31Z</time>
      </trkpt>
      <trkpt lat="45.652202004566789" lon="4.382042968645692">
        <ele>566.83000000000004</ele>
        <time>2025-04-24T12:21:20Z</time>
      </trkpt>
      <trkpt lat="45.652202004566789" lon="4.382042968645692">
        <ele>567.32000000000005</ele>
        <time>2025-04-24T12:22:13Z</time>
      </trkpt>
      <trkpt lat="45.652202004566789" lon="4.382042968645692">
        <ele>567.79999999999995</ele>
        <time>2025-04-24T12:23:05Z</time>
      </trkpt>
      <trkpt lat="45.652202004566789" lon="4.382042968645692">
        <ele>567.79999999999995</ele>
        <time>2025-04-24T12:24:05Z</time>
      </trkpt>
      <trkpt lat="45.65222798846662" lon="4.381979014724493">
        <ele>567.79999999999995</ele>
        <time>2025-04-24T12:24:06Z</time>
      </trkpt>
      <trkpt lat="45.652233017608523" lon="4.381970968097448">
        <ele>568.27999999999997</ele>
        <time>2025-04-24T12:24:07Z</time>
      </trkpt>
      <trkpt lat="45.652254978194833" lon="4.381939033046365">
        <ele>568.27999999999997</ele>
        <time>2025-04-24T12:24:08Z</time>
      </trkpt>
      <trkpt lat="45.652281967923045" lon="4.381898967549205">
        <ele>568.27999999999997</ele>
        <time>2025-04-24T12:24:09Z</time>
      </trkpt>
      <trkpt lat="45.652317004278302" lon="4.381846999749541">
        <ele>568.27999999999997</ele>
        <time>2025-04-24T12:24:10Z</time>
      </trkpt>
      <trkpt lat="45.652353968471289" lon="4.381792014464736">
        <ele>568.27999999999997</ele>
        <time>2025-04-24T12:24:11Z</time>
      </trkpt>
      <trkpt lat="45.652389004826546" lon="4.381739962846041">
        <ele>568.75999999999999</ele>
        <time>2025-04-24T12:24:12Z</time>
      </trkpt>
      <trkpt lat="45.652683963999152" lon="4.381303014233708">
        <ele>567.32000000000005</ele>
        <time>2025-04-24T12:24:24Z</time>
      </trkpt>
      <trkpt lat="45.65295503474772" lon="4.380771014839411">
        <ele>567.32000000000005</ele>
        <time>2025-04-24T12:24:31Z</time>
      </trkpt>
      <trkpt lat="45.653258040547371" lon="4.380069030448794">
        <ele>569.72000000000003</ele>
        <time>2025-04-24T12:24:39Z</time>
      </trkpt>
      <trkpt lat="45.653354013338685" lon="4.379749009385705">
        <ele>571.15999999999997</ele>
        <time>2025-04-24T12:24:43Z</time>
      </trkpt>
      <trkpt lat="45.65336599946022" lon="4.379672985523939">
        <ele>571.63999999999999</ele>
        <time>2025-04-24T12:24:44Z</time>
      </trkpt>
      <trkpt lat="45.653376979753375" lon="4.379606014117599">
        <ele>571.63999999999999</ele>
        <time>2025-04-24T12:24:45Z</time>
      </trkpt>
      <trkpt lat="45.6533860322088" lon="4.37954499386251">
        <ele>571.63999999999999</ele>
        <time>2025-04-24T12:24:46Z</time>
      </trkpt>
      <trkpt lat="45.653396006673574" lon="4.37948296777904">
        <ele>571.63999999999999</ele>
        <time>2025-04-24T12:24:47Z</time>
      </trkpt>
      <trkpt lat="45.653405981138349" lon="4.379420019686222">
        <ele>571.15999999999997</ele>
        <time>2025-04-24T12:24:48Z</time>
      </trkpt>
      <trkpt lat="45.653416039422154" lon="4.379360005259514">
        <ele>570.67999999999995</ele>
        <time>2025-04-24T12:24:49Z</time>
      </trkpt>
      <trkpt lat="45.653430037200451" lon="4.379275012761354">
        <ele>570.20000000000005</ele>
        <time>2025-04-24T12:24:51Z</time>
      </trkpt>
      <trkpt lat="45.65355802886188" lon="4.37913897447288">
        <ele>568.27999999999997</ele>
        <time>2025-04-24T12:24:55Z</time>
      </trkpt>
      <trkpt lat="45.653597004711628" lon="4.379167975857854">
        <ele>567.79999999999995</ele>
        <time>2025-04-24T12:24:56Z</time>
      </trkpt>
      <trkpt lat="45.653641009703279" lon="4.37920100055635">
        <ele>566.83000000000004</ele>
        <time>2025-04-24T12:24:57Z</time>
      </trkpt>
      <trkpt lat="45.653691971674562" lon="4.379237964749336">
        <ele>566.83000000000004</ele>
        <time>2025-04-24T12:24:58Z</time>
      </trkpt>
      <trkpt lat="45.653747040778399" lon="4.379279036074877">
        <ele>566.35000000000002</ele>
        <time>2025-04-24T12:24:59Z</time>
      </trkpt>
      <trkpt lat="45.653918031603098" lon="4.379405016079545">
        <ele>565.38999999999999</ele>
        <time>2025-04-24T12:25:02Z</time>
      </trkpt>
      <trkpt lat="45.653975028544664" lon="4.379447009414434">
        <ele>564.90999999999997</ele>
        <time>2025-04-24T12:25:03Z</time>
      </trkpt>
      <trkpt lat="45.654469979926944" lon="4.379808017984033">
        <ele>562.02999999999997</ele>
        <time>2025-04-24T12:25:11Z</time>
      </trkpt>
      <trkpt lat="45.654594032093883" lon="4.379907008260489">
        <ele>561.07000000000005</ele>
        <time>2025-04-24T12:25:13Z</time>
      </trkpt>
      <trkpt lat="45.655263997614384" lon="4.380419980734587">
        <ele>560.11000000000001</ele>
        <time>2025-04-24T12:25:21Z</time>
      </trkpt>
      <trkpt lat="45.655726008117199" lon="4.380733966827393">
        <ele>555.77999999999997</ele>
        <time>2025-04-24T12:25:26Z</time>
      </trkpt>
      <trkpt lat="45.655812006443739" lon="4.380859024822712">
        <ele>554.82000000000005</ele>
        <time>2025-04-24T12:25:27Z</time>
      </trkpt>
      <trkpt lat="45.655965982005" lon="4.381081983447075">
        <ele>553.86000000000001</ele>
        <time>2025-04-24T12:25:29Z</time>
      </trkpt>
      <trkpt lat="45.656593032181263" lon="4.382656021043658">
        <ele>542.32000000000005</ele>
        <time>2025-04-24T12:25:39Z</time>
      </trkpt>
      <trkpt lat="45.657055964693427" lon="4.384467015042901">
        <ele>534.14999999999998</ele>
        <time>2025-04-24T12:25:49Z</time>
      </trkpt>
      <trkpt lat="45.657635992392898" lon="4.385961005464196">
        <ele>525.5</ele>
        <time>2025-04-24T12:25:59Z</time>
      </trkpt>
      <trkpt lat="45.658398997038603" lon="4.38712902367115">
        <ele>515.88</ele>
        <time>2025-04-24T12:26:08Z</time>
      </trkpt>
      <trkpt lat="45.659094024449587" lon="4.387900996953249">
        <ele>504.82999999999998</ele>
        <time>2025-04-24T12:26:14Z</time>
      </trkpt>
      <trkpt lat="45.659217992797494" lon="4.387984983623028">
        <ele>502.43000000000001</ele>
        <time>2025-04-24T12:26:15Z</time>
      </trkpt>
      <trkpt lat="45.659637004137039" lon="4.38826896250248">
        <ele>495.22000000000003</ele>
        <time>2025-04-24T12:26:19Z</time>
      </trkpt>
      <trkpt lat="45.659695006906986" lon="4.38830902799964">
        <ele>493.76999999999998</ele>
        <time>2025-04-24T12:26:20Z</time>
      </trkpt>
      <trkpt lat="45.659763989970088" lon="4.388285977765918">
        <ele>492.32999999999998</ele>
        <time>2025-04-24T12:26:21Z</time>
      </trkpt>
      <trkpt lat="45.659835990518332" lon="4.388241972774267">
        <ele>490.88999999999999</ele>
        <time>2025-04-24T12:26:22Z</time>
      </trkpt>
      <trkpt lat="45.659885024651885" lon="4.388138959184289">
        <ele>489.93000000000001</ele>
        <time>2025-04-24T12:26:23Z</time>
      </trkpt>
      <trkpt lat="45.659936992451549" lon="4.388029994443059">
        <ele>488.00999999999999</ele>
        <time>2025-04-24T12:26:24Z</time>
      </trkpt>
      <trkpt lat="45.659992983564734" lon="4.387914994731545">
        <ele>486.56</ele>
        <time>2025-04-24T12:26:25Z</time>
      </trkpt>
      <trkpt lat="45.660103037953377" lon="4.387686001136899">
        <ele>483.68000000000001</ele>
        <time>2025-04-24T12:26:27Z</time>
      </trkpt>
      <trkpt lat="45.660184007138014" lon="4.387637972831726">
        <ele>482.24000000000001</ele>
        <time>2025-04-24T12:26:28Z</time>
      </trkpt>
      <trkpt lat="45.660264976322651" lon="4.387589022517204">
        <ele>481.27999999999997</ele>
        <time>2025-04-24T12:26:29Z</time>
      </trkpt>
      <trkpt lat="45.660344017669559" lon="4.38755800947547">
        <ele>480.31999999999999</ele>
        <time>2025-04-24T12:26:30Z</time>
      </trkpt>
      <trkpt lat="45.660442002117634" lon="4.38755800947547">
        <ele>479.35000000000002</ele>
        <time>2025-04-24T12:26:31Z</time>
      </trkpt>
      <trkpt lat="45.660534035414457" lon="4.387569995597005">
        <ele>479.35000000000002</ele>
        <time>2025-04-24T12:26:32Z</time>
      </trkpt>
      <trkpt lat="45.660630008205771" lon="4.387622969225049">
        <ele>479.35000000000002</ele>
        <time>2025-04-24T12:26:33Z</time>
      </trkpt>
      <trkpt lat="45.660723969340324" lon="4.387675020843744">
        <ele>479.35000000000002</ele>
        <time>2025-04-24T12:26:34Z</time>
      </trkpt>
      <trkpt lat="45.66081902012229" lon="4.387726988643408">
        <ele>479.35000000000002</ele>
        <time>2025-04-24T12:26:35Z</time>
      </trkpt>
      <trkpt lat="45.660907030105591" lon="4.387775016948581">
        <ele>479.83999999999997</ele>
        <time>2025-04-24T12:26:36Z</time>
      </trkpt>
      <trkpt lat="45.660995040088892" lon="4.387784991413355">
        <ele>480.31999999999999</ele>
        <time>2025-04-24T12:26:37Z</time>
      </trkpt>
      <trkpt lat="45.661086989566684" lon="4.387735035270453">
        <ele>481.27999999999997</ele>
        <time>2025-04-24T12:26:38Z</time>
      </trkpt>
      <trkpt lat="45.661133006215096" lon="4.38764400780201">
        <ele>481.75999999999999</ele>
        <time>2025-04-24T12:26:39Z</time>
      </trkpt>
      <trkpt lat="45.661196960136294" lon="4.3875150103122">
        <ele>483.19999999999999</ele>
        <time>2025-04-24T12:26:40Z</time>
      </trkpt>
      <trkpt lat="45.661225039511919" lon="4.387397998943925">
        <ele>484.16000000000003</ele>
        <time>2025-04-24T12:26:41Z</time>
      </trkpt>
      <trkpt lat="45.661369040608406" lon="4.386739013716579">
        <ele>488.00999999999999</ele>
        <time>2025-04-24T12:26:45Z</time>
      </trkpt>
      <trkpt lat="45.661369040608406" lon="4.386595012620091">
        <ele>488.97000000000003</ele>
        <time>2025-04-24T12:26:46Z</time>
      </trkpt>
      <trkpt lat="45.661334004253149" lon="4.386481018736959">
        <ele>489.93000000000001</ele>
        <time>2025-04-24T12:26:47Z</time>
      </trkpt>
      <trkpt lat="45.66129301674664" lon="4.386374987661839">
        <ele>490.88999999999999</ele>
        <time>2025-04-24T12:26:48Z</time>
      </trkpt>
      <trkpt lat="45.661255968734622" lon="4.386280020698905">
        <ele>491.37</ele>
        <time>2025-04-24T12:26:49Z</time>
      </trkpt>
      <trkpt lat="45.661211963742971" lon="4.3860989715904">
        <ele>492.32999999999998</ele>
        <time>2025-04-24T12:26:51Z</time>
      </trkpt>
      <trkpt lat="45.661205006763339" lon="4.386016996577382">
        <ele>492.81</ele>
        <time>2025-04-24T12:26:52Z</time>
      </trkpt>
      <trkpt lat="45.661197965964675" lon="4.385940972715616">
        <ele>492.81</ele>
        <time>2025-04-24T12:26:53Z</time>
      </trkpt>
      <trkpt lat="45.661226967349648" lon="4.385866960510612">
        <ele>492.81</ele>
        <time>2025-04-24T12:26:54Z</time>
      </trkpt>
      <trkpt lat="45.661269966512918" lon="4.385843994095922">
        <ele>493.29000000000002</ele>
        <time>2025-04-24T12:26:55Z</time>
      </trkpt>
      <trkpt lat="45.661334004253149" lon="4.385850029066205">
        <ele>493.29000000000002</ele>
        <time>2025-04-24T12:26:56Z</time>
      </trkpt>
      <trkpt lat="45.661408016458154" lon="4.385856986045837">
        <ele>493.29000000000002</ele>
        <time>2025-04-24T12:26:57Z</time>
      </trkpt>
      <trkpt lat="45.66148404031992" lon="4.385864026844502">
        <ele>493.76999999999998</ele>
        <time>2025-04-24T12:26:58Z</time>
      </trkpt>
      <trkpt lat="45.661686966195703" lon="4.385882969945669">
        <ele>497.13999999999999</ele>
        <time>2025-04-24T12:27:04Z</time>
      </trkpt>
      <trkpt lat="45.661698030307889" lon="4.385828990489245">
        <ele>497.62</ele>
        <time>2025-04-24T12:27:05Z</time>
      </trkpt>
      <trkpt lat="45.661711022257805" lon="4.385734023526311">
        <ele>498.10000000000002</ele>
        <time>2025-04-24T12:27:06Z</time>
      </trkpt>
      <trkpt lat="45.661726025864482" lon="4.385621035471559">
        <ele>498.57999999999998</ele>
        <time>2025-04-24T12:27:07Z</time>
      </trkpt>
      <trkpt lat="45.661753015592694" lon="4.385492037981749">
        <ele>499.06</ele>
        <time>2025-04-24T12:27:08Z</time>
      </trkpt>
      <trkpt lat="45.6617889739573" lon="4.385360023006797">
        <ele>499.54000000000002</ele>
        <time>2025-04-24T12:27:09Z</time>
      </trkpt>
      <trkpt lat="45.662232963368297" lon="4.384106006473303">
        <ele>502.43000000000001</ele>
        <time>2025-04-24T12:27:16Z</time>
      </trkpt>
      <trkpt lat="45.663106022402644" lon="4.382751993834972">
        <ele>505.79000000000002</ele>
        <time>2025-04-24T12:27:23Z</time>
      </trkpt>
      <trkpt lat="45.663364017382264" lon="4.382386039942503">
        <ele>507.23000000000002</ele>
        <time>2025-04-24T12:27:25Z</time>
      </trkpt>
      <trkpt lat="45.663425959646702" lon="4.382186969742179">
        <ele>507.70999999999998</ele>
        <time>2025-04-24T12:27:26Z</time>
      </trkpt>
      <trkpt lat="45.663441969081759" lon="4.381960993632674">
        <ele>508.19</ele>
        <time>2025-04-24T12:27:27Z</time>
      </trkpt>
      <trkpt lat="45.663428977131844" lon="4.381730994209647">
        <ele>508.67000000000002</ele>
        <time>2025-04-24T12:27:28Z</time>
      </trkpt>
      <trkpt lat="45.663371980190277" lon="4.381509041413665">
        <ele>509.16000000000003</ele>
        <time>2025-04-24T12:27:29Z</time>
      </trkpt>
      <trkpt lat="45.663307020440698" lon="4.381272001191974">
        <ele>509.63999999999999</ele>
        <time>2025-04-24T12:27:30Z</time>
      </trkpt>
      <trkpt lat="45.662825983017683" lon="4.379563014954329">
        <ele>513.48000000000002</ele>
        <time>2025-04-24T12:27:37Z</time>
      </trkpt>
      <trkpt lat="45.662717018276453" lon="4.379375008866191">
        <ele>513.48000000000002</ele>
        <time>2025-04-24T12:27:38Z</time>
      </trkpt>
      <trkpt lat="45.662571005523205" lon="4.379219021648169">
        <ele>513.96000000000004</ele>
        <time>2025-04-24T12:27:39Z</time>
      </trkpt>
      <trkpt lat="45.662429016083479" lon="4.379084995016456">
        <ele>513.96000000000004</ele>
        <time>2025-04-24T12:27:40Z</time>
      </trkpt>
      <trkpt lat="45.66225903108716" lon="4.378992039710283">
        <ele>514.44000000000005</ele>
        <time>2025-04-24T12:27:41Z</time>
      </trkpt>
      <trkpt lat="45.662097008898854" lon="4.378883996978402">
        <ele>514.44000000000005</ele>
        <time>2025-04-24T12:27:42Z</time>
      </trkpt>
      <trkpt lat="45.661945967003703" lon="4.378748964518309">
        <ele>515.39999999999998</ele>
        <time>2025-04-24T12:27:43Z</time>
      </trkpt>
      <trkpt lat="45.661801965907216" lon="4.378588031977415">
        <ele>515.88</ele>
        <time>2025-04-24T12:27:44Z</time>
      </trkpt>
      <trkpt lat="45.661655031144619" lon="4.37842701561749">
        <ele>516.37</ele>
        <time>2025-04-24T12:27:45Z</time>
      </trkpt>
      <trkpt lat="45.661490997299552" lon="4.37829801812768">
        <ele>516.85000000000002</ele>
        <time>2025-04-24T12:27:46Z</time>
      </trkpt>
      <trkpt lat="45.661176005378366" lon="4.378052009269595">
        <ele>517.80999999999995</ele>
        <time>2025-04-24T12:27:48Z</time>
      </trkpt>
      <trkpt lat="45.661047007888556" lon="4.377879006788135">
        <ele>517.80999999999995</ele>
        <time>2025-04-24T12:27:49Z</time>
      </trkpt>
      <trkpt lat="45.660936031490564" lon="4.377665016800165">
        <ele>518.28999999999996</ele>
        <time>2025-04-24T12:27:50Z</time>
      </trkpt>
      <trkpt lat="45.66082295961678" lon="4.377445997670293">
        <ele>519.25</ele>
        <time>2025-04-24T12:27:51Z</time>
      </trkpt>
      <trkpt lat="45.660704020410776" lon="4.377214992418885">
        <ele>520.21000000000004</ele>
        <time>2025-04-24T12:27:52Z</time>
      </trkpt>
      <trkpt lat="45.660547027364373" lon="4.377073002979159">
        <ele>520.69000000000005</ele>
        <time>2025-04-24T12:27:53Z</time>
      </trkpt>
      <trkpt lat="45.66036899574101" lon="4.37694501131773">
        <ele>521.16999999999996</ele>
        <time>2025-04-24T12:27:54Z</time>
      </trkpt>
      <trkpt lat="45.660184007138014" lon="4.376835040748119">
        <ele>521.64999999999998</ele>
        <time>2025-04-24T12:27:55Z</time>
      </trkpt>
      <trkpt lat="45.659065023064613" lon="4.376076981425285">
        <ele>524.53999999999996</ele>
        <time>2025-04-24T12:28:01Z</time>
      </trkpt>
      <trkpt lat="45.658895038068295" lon="4.375906996428967">
        <ele>525.01999999999998</ele>
        <time>2025-04-24T12:28:02Z</time>
      </trkpt>
      <trkpt lat="45.65875899977982" lon="4.375680014491081">
        <ele>525.5</ele>
        <time>2025-04-24T12:28:03Z</time>
      </trkpt>
      <trkpt lat="45.658641988411546" lon="4.375436017289758">
        <ele>526.46000000000004</ele>
        <time>2025-04-24T12:28:04Z</time>
      </trkpt>
      <trkpt lat="45.6585200317204" lon="4.375199982896447">
        <ele>526.94000000000005</ele>
        <time>2025-04-24T12:28:05Z</time>
      </trkpt>
      <trkpt lat="45.658392962068319" lon="4.374971995130181">
        <ele>527.41999999999996</ele>
        <time>2025-04-24T12:28:06Z</time>
      </trkpt>
      <trkpt lat="45.65826203674078" lon="4.374749036505818">
        <ele>527.89999999999998</ele>
        <time>2025-04-24T12:28:07Z</time>
      </trkpt>
      <trkpt lat="45.658100014552474" lon="4.374563964083791">
        <ele>528.38</ele>
        <time>2025-04-24T12:28:08Z</time>
      </trkpt>
      <trkpt lat="45.657333992421627" lon="4.373527960851789">
        <ele>530.78999999999996</ele>
        <time>2025-04-24T12:28:13Z</time>
      </trkpt>
      <trkpt lat="45.657222010195255" lon="4.373268038034439">
        <ele>531.26999999999998</ele>
        <time>2025-04-24T12:28:14Z</time>
      </trkpt>
      <trkpt lat="45.657139029353857" lon="4.372983975335956">
        <ele>532.23000000000002</ele>
        <time>2025-04-24T12:28:15Z</time>
      </trkpt>
      <trkpt lat="45.657055964693427" lon="4.372687004506588">
        <ele>532.71000000000004</ele>
        <time>2025-04-24T12:28:16Z</time>
      </trkpt>
      <trkpt lat="45.657020006328821" lon="4.372408976778388">
        <ele>532.71000000000004</ele>
        <time>2025-04-24T12:28:17Z</time>
      </trkpt>
      <trkpt lat="45.656984969973564" lon="4.372137989848852">
        <ele>533.19000000000005</ele>
        <time>2025-04-24T12:28:18Z</time>
      </trkpt>
      <trkpt lat="45.656855972483754" lon="4.371183039620519">
        <ele>535.11000000000001</ele>
        <time>2025-04-24T12:28:22Z</time>
      </trkpt>
      <trkpt lat="45.656797969713807" lon="4.370988998562098">
        <ele>535.59000000000003</ele>
        <time>2025-04-24T12:28:23Z</time>
      </trkpt>
      <trkpt lat="45.656738961115479" lon="4.370794035494328">
        <ele>536.07000000000005</ele>
        <time>2025-04-24T12:28:24Z</time>
      </trkpt>
      <trkpt lat="45.656612981110811" lon="4.370662020519376">
        <ele>536.07000000000005</ele>
        <time>2025-04-24T12:28:25Z</time>
      </trkpt>
      <trkpt lat="45.656477026641369" lon="4.370532017201185">
        <ele>536.54999999999995</ele>
        <time>2025-04-24T12:28:26Z</time>
      </trkpt>
      <trkpt lat="45.656335037201643" lon="4.370396984741092">
        <ele>537.02999999999997</ele>
        <time>2025-04-24T12:28:27Z</time>
      </trkpt>
      <trkpt lat="45.655286964029074" lon="4.369237013161182">
        <ele>540.39999999999998</ele>
        <time>2025-04-24T12:28:35Z</time>
      </trkpt>
      <trkpt lat="45.654987981542945" lon="4.368942975997925">
        <ele>541.36000000000001</ele>
        <time>2025-04-24T12:28:38Z</time>
      </trkpt>
      <trkpt lat="45.654883040115237" lon="4.368893019855022">
        <ele>541.36000000000001</ele>
        <time>2025-04-24T12:28:39Z</time>
      </trkpt>
      <trkpt lat="45.654767034575343" lon="4.368843985721469">
        <ele>541.36000000000001</ele>
        <time>2025-04-24T12:28:40Z</time>
      </trkpt>
      <trkpt lat="45.653722984716296" lon="4.368634019047022">
        <ele>541.84000000000003</ele>
        <time>2025-04-24T12:28:49Z</time>
      </trkpt>
      <trkpt lat="45.652758982032537" lon="4.368354985490441">
        <ele>542.32000000000005</ele>
        <time>2025-04-24T12:28:58Z</time>
      </trkpt>
      <trkpt lat="45.651221992447972" lon="4.367812005802989">
        <ele>538.48000000000002</ele>
        <time>2025-04-24T12:29:07Z</time>
      </trkpt>
      <trkpt lat="45.649675028398633" lon="4.367218986153603">
        <ele>532.71000000000004</ele>
        <time>2025-04-24T12:29:15Z</time>
      </trkpt>
      <trkpt lat="45.649546030908823" lon="4.367108009755611">
        <ele>531.75</ele>
        <time>2025-04-24T12:29:16Z</time>
      </trkpt>
      <trkpt lat="45.649414015933871" lon="4.366893013939261">
        <ele>531.26999999999998</ele>
        <time>2025-04-24T12:29:17Z</time>
      </trkpt>
      <trkpt lat="45.649309996515512" lon="4.366722023114562">
        <ele>530.78999999999996</ele>
        <time>2025-04-24T12:29:18Z</time>
      </trkpt>
      <trkpt lat="45.64913397654891" lon="4.366592019796372">
        <ele>529.82000000000005</ele>
        <time>2025-04-24T12:29:19Z</time>
      </trkpt>
      <trkpt lat="45.648985030129552" lon="4.366481965407729">
        <ele>529.34000000000003</ele>
        <time>2025-04-24T12:29:20Z</time>
      </trkpt>
      <trkpt lat="45.648835999891162" lon="4.366371994838119">
        <ele>528.38</ele>
        <time>2025-04-24T12:29:21Z</time>
      </trkpt>
      <trkpt lat="45.648693004623055" lon="4.366248026490212">
        <ele>527.41999999999996</ele>
        <time>2025-04-24T12:29:22Z</time>
      </trkpt>
      <trkpt lat="45.648566018790007" lon="4.36609597876668">
        <ele>526.94000000000005</ele>
        <time>2025-04-24T12:29:23Z</time>
      </trkpt>
      <trkpt lat="45.648483037948608" lon="4.365919958800077">
        <ele>525.98000000000002</ele>
        <time>2025-04-24T12:29:24Z</time>
      </trkpt>
      <trkpt lat="45.648429980501533" lon="4.365734970197082">
        <ele>525.01999999999998</ele>
        <time>2025-04-24T12:29:25Z</time>
      </trkpt>
      <trkpt lat="45.648417994379997" lon="4.365513017401099">
        <ele>524.53999999999996</ele>
        <time>2025-04-24T12:29:26Z</time>
      </trkpt>
      <trkpt lat="45.648406008258462" lon="4.365274971351028">
        <ele>523.58000000000004</ele>
        <time>2025-04-24T12:29:27Z</time>
      </trkpt>
      <trkpt lat="45.648393016308546" lon="4.365025022998452">
        <ele>523.09000000000003</ele>
        <time>2025-04-24T12:29:28Z</time>
      </trkpt>
      <trkpt lat="45.648349011316895" lon="4.364769039675593">
        <ele>522.13</ele>
        <time>2025-04-24T12:29:29Z</time>
      </trkpt>
      <trkpt lat="45.648279022425413" lon="4.364524036645889">
        <ele>521.16999999999996</ele>
        <time>2025-04-24T12:29:30Z</time>
      </trkpt>
      <trkpt lat="45.648086993023753" lon="4.364061020314694">
        <ele>519.25</ele>
        <time>2025-04-24T12:29:32Z</time>
      </trkpt>
      <trkpt lat="45.64805899746716" lon="4.363815011456609">
        <ele>517.80999999999995</ele>
        <time>2025-04-24T12:29:33Z</time>
      </trkpt>
      <trkpt lat="45.647894963622093" lon="4.362349016591907">
        <ele>512.51999999999998</ele>
        <time>2025-04-24T12:29:38Z</time>
      </trkpt>
      <trkpt lat="45.647919019684196" lon="4.36205699108541">
        <ele>511.56</ele>
        <time>2025-04-24T12:29:39Z</time>
      </trkpt>
      <trkpt lat="45.648000994697213" lon="4.36126297339797">
        <ele>508.19</ele>
        <time>2025-04-24T12:29:42Z</time>
      </trkpt>
      <trkpt lat="45.647989008575678" lon="4.361026016995311">
        <ele>506.75</ele>
        <time>2025-04-24T12:29:43Z</time>
      </trkpt>
      <trkpt lat="45.647936034947634" lon="4.360886039212346">
        <ele>505.31</ele>
        <time>2025-04-24T12:29:44Z</time>
      </trkpt>
      <trkpt lat="45.647826986387372" lon="4.36070297844708">
        <ele>503.87</ele>
        <time>2025-04-24T12:29:45Z</time>
      </trkpt>
      <trkpt lat="45.647709975019097" lon="4.360556965693831">
        <ele>502.43000000000001</ele>
        <time>2025-04-24T12:29:46Z</time>
      </trkpt>
      <trkpt lat="45.647574020549655" lon="4.360397960990667">
        <ele>500.98000000000002</ele>
        <time>2025-04-24T12:29:47Z</time>
      </trkpt>
      <trkpt lat="45.647420966997743" lon="4.360220013186336">
        <ele>500.01999999999998</ele>
        <time>2025-04-24T12:29:48Z</time>
      </trkpt>
      <trkpt lat="45.647304961457849" lon="4.360000994056463">
        <ele>498.57999999999998</ele>
        <time>2025-04-24T12:29:49Z</time>
      </trkpt>
      <trkpt lat="45.64707001671195" lon="4.359560022130609">
        <ele>495.69999999999999</ele>
        <time>2025-04-24T12:29:51Z</time>
      </trkpt>
      <trkpt lat="45.646989969536662" lon="4.359345026314259">
        <ele>494.25999999999999</ele>
        <time>2025-04-24T12:29:52Z</time>
      </trkpt>
      <trkpt lat="45.646928027272224" lon="4.359146961942315">
        <ele>493.29000000000002</ele>
        <time>2025-04-24T12:29:53Z</time>
      </trkpt>
      <trkpt lat="45.646936995908618" lon="4.358948981389403">
        <ele>491.85000000000002</ele>
        <time>2025-04-24T12:29:54Z</time>
      </trkpt>
      <trkpt lat="45.647000027820468" lon="4.358759969472885">
        <ele>490.88999999999999</ele>
        <time>2025-04-24T12:29:55Z</time>
      </trkpt>
      <trkpt lat="45.647071022540331" lon="4.358547991141677">
        <ele>489.93000000000001</ele>
        <time>2025-04-24T12:29:56Z</time>
      </trkpt>
      <trkpt lat="45.647141011431813" lon="4.358326038345695">
        <ele>489.44999999999999</ele>
        <time>2025-04-24T12:29:57Z</time>
      </trkpt>
      <trkpt lat="45.647189039736986" lon="4.358110036700964">
        <ele>488.00999999999999</ele>
        <time>2025-04-24T12:29:58Z</time>
      </trkpt>
      <trkpt lat="45.647202031686902" lon="4.35786796733737">
        <ele>487.05000000000001</ele>
        <time>2025-04-24T12:29:59Z</time>
      </trkpt>
      <trkpt lat="45.6471779756248" lon="4.357623970136046">
        <ele>486.07999999999998</ele>
        <time>2025-04-24T12:30:00Z</time>
      </trkpt>
      <trkpt lat="45.647120978683233" lon="4.357323981821537">
        <ele>485.12</ele>
        <time>2025-04-24T12:30:01Z</time>
      </trkpt>
      <trkpt lat="45.647056018933654" lon="4.357103034853935">
        <ele>484.16000000000003</ele>
        <time>2025-04-24T12:30:02Z</time>
      </trkpt>
      <trkpt lat="45.64689802005887" lon="4.356613028794527">
        <ele>482.24000000000001</ele>
        <time>2025-04-24T12:30:04Z</time>
      </trkpt>
      <trkpt lat="45.646841023117304" lon="4.356372971087694">
        <ele>481.27999999999997</ele>
        <time>2025-04-24T12:30:05Z</time>
      </trkpt>
      <trkpt lat="45.646801041439176" lon="4.356134003028274">
        <ele>480.31999999999999</ele>
        <time>2025-04-24T12:30:06Z</time>
      </trkpt>
      <trkpt lat="45.646806992590427" lon="4.355904003605247">
        <ele>479.35000000000002</ele>
        <time>2025-04-24T12:30:07Z</time>
      </trkpt>
      <trkpt lat="45.646813027560711" lon="4.355682972818613">
        <ele>478.38999999999999</ele>
        <time>2025-04-24T12:30:08Z</time>
      </trkpt>
      <trkpt lat="45.646820990368724" lon="4.355273013934493">
        <ele>476.94999999999999</ele>
        <time>2025-04-24T12:30:10Z</time>
      </trkpt>
      <trkpt lat="45.646799029782414" lon="4.355070004239678">
        <ele>475.99000000000001</ele>
        <time>2025-04-24T12:30:11Z</time>
      </trkpt>
      <trkpt lat="45.646474985405803" lon="4.35361297801137">
        <ele>473.58999999999997</ele>
        <time>2025-04-24T12:30:18Z</time>
      </trkpt>
      <trkpt lat="45.646412959322333" lon="4.3534180149436">
        <ele>473.11000000000001</ele>
        <time>2025-04-24T12:30:19Z</time>
      </trkpt>
      <trkpt lat="45.646351017057896" lon="4.353211987763643">
        <ele>473.11000000000001</ele>
        <time>2025-04-24T12:30:20Z</time>
      </trkpt>
      <trkpt lat="45.64608003012836" lon="4.352636989206076">
        <ele>473.11000000000001</ele>
        <time>2025-04-24T12:30:23Z</time>
      </trkpt>
      <trkpt lat="45.645923037081957" lon="4.352198028936982">
        <ele>472.63</ele>
        <time>2025-04-24T12:30:25Z</time>
      </trkpt>
      <trkpt lat="45.645874002948403" lon="4.351961994543672">
        <ele>472.13999999999999</ele>
        <time>2025-04-24T12:30:26Z</time>
      </trkpt>
      <trkpt lat="45.645839972421527" lon="4.351713974028826">
        <ele>472.13999999999999</ele>
        <time>2025-04-24T12:30:27Z</time>
      </trkpt>
      <trkpt lat="45.645816000178456" lon="4.351464025676251">
        <ele>471.66000000000003</ele>
        <time>2025-04-24T12:30:28Z</time>
      </trkpt>
      <trkpt lat="45.645817006006837" lon="4.351192032918334">
        <ele>471.66000000000003</ele>
        <time>2025-04-24T12:30:29Z</time>
      </trkpt>
      <trkpt lat="45.645823962986469" lon="4.350923979654908">
        <ele>471.18000000000001</ele>
        <time>2025-04-24T12:30:30Z</time>
      </trkpt>
      <trkpt lat="45.645913984626532" lon="4.347463008016348">
        <ele>467.81999999999999</ele>
        <time>2025-04-24T12:30:43Z</time>
      </trkpt>
      <trkpt lat="45.645693959668279" lon="4.344726987183094">
        <ele>463.49000000000001</ele>
        <time>2025-04-24T12:30:53Z</time>
      </trkpt>
      <trkpt lat="45.645549958571792" lon="4.343921989202499">
        <ele>462.05000000000001</ele>
        <time>2025-04-24T12:30:56Z</time>
      </trkpt>
      <trkpt lat="45.645449962466955" lon="4.343683021143079">
        <ele>461.56999999999999</ele>
        <time>2025-04-24T12:30:57Z</time>
      </trkpt>
      <trkpt lat="45.645349966362119" lon="4.343440029770136">
        <ele>461.08999999999997</ele>
        <time>2025-04-24T12:30:58Z</time>
      </trkpt>
      <trkpt lat="45.644456036388874" lon="4.341460978612304">
        <ele>457.24000000000001</ele>
        <time>2025-04-24T12:31:06Z</time>
      </trkpt>
      <trkpt lat="45.644083041697741" lon="4.340437967330217">
        <ele>456.27999999999997</ele>
        <time>2025-04-24T12:31:10Z</time>
      </trkpt>
      <trkpt lat="45.644038030877709" lon="4.340165974572301">
        <ele>456.27999999999997</ele>
        <time>2025-04-24T12:31:11Z</time>
      </trkpt>
      <trkpt lat="45.644000982865691" lon="4.339891970157623">
        <ele>456.27999999999997</ele>
        <time>2025-04-24T12:31:12Z</time>
      </trkpt>
      <trkpt lat="45.643736030906439" lon="4.336689999327064">
        <ele>453.39999999999998</ele>
        <time>2025-04-24T12:31:23Z</time>
      </trkpt>
      <trkpt lat="45.64378397539258" lon="4.33642596937716">
        <ele>453.39999999999998</ele>
        <time>2025-04-24T12:31:24Z</time>
      </trkpt>
      <trkpt lat="45.643862010911107" lon="4.336175015196204">
        <ele>452.92000000000002</ele>
        <time>2025-04-24T12:31:25Z</time>
      </trkpt>
      <trkpt lat="45.643944991752505" lon="4.335910985246301">
        <ele>452.92000000000002</ele>
        <time>2025-04-24T12:31:26Z</time>
      </trkpt>
      <trkpt lat="45.644081030040979" lon="4.335678974166513">
        <ele>452.92000000000002</ele>
        <time>2025-04-24T12:31:27Z</time>
      </trkpt>
      <trkpt lat="45.644223019480705" lon="4.335440006107092">
        <ele>453.39999999999998</ele>
        <time>2025-04-24T12:31:28Z</time>
      </trkpt>
      <trkpt lat="45.644371965900064" lon="4.335214029997587">
        <ele>453.39999999999998</ele>
        <time>2025-04-24T12:31:29Z</time>
      </trkpt>
      <trkpt lat="45.644529964774847" lon="4.334997022524476">
        <ele>453.39999999999998</ele>
        <time>2025-04-24T12:31:30Z</time>
      </trkpt>
      <trkpt lat="45.644690981134772" lon="4.334773980081081">
        <ele>452.92000000000002</ele>
        <time>2025-04-24T12:31:31Z</time>
      </trkpt>
      <trkpt lat="45.644811009988189" lon="4.33449100703001">
        <ele>452.92000000000002</ele>
        <time>2025-04-24T12:31:32Z</time>
      </trkpt>
      <trkpt lat="45.644906982779503" lon="4.334204010665417">
        <ele>452.92000000000002</ele>
        <time>2025-04-24T12:31:33Z</time>
      </trkpt>
      <trkpt lat="45.644994992762804" lon="4.333907039836049">
        <ele>453.39999999999998</ele>
        <time>2025-04-24T12:31:34Z</time>
      </trkpt>
      <trkpt lat="45.64505198970437" lon="4.333595987409353">
        <ele>453.39999999999998</ele>
        <time>2025-04-24T12:31:35Z</time>
      </trkpt>
      <trkpt lat="45.645089037716389" lon="4.333294993266463">
        <ele>453.39999999999998</ele>
        <time>2025-04-24T12:31:36Z</time>
      </trkpt>
      <trkpt lat="45.645124996080995" lon="4.333001039922237">
        <ele>453.39999999999998</ele>
        <time>2025-04-24T12:31:37Z</time>
      </trkpt>
      <trkpt lat="45.645133964717388" lon="4.332699039950967">
        <ele>452.92000000000002</ele>
        <time>2025-04-24T12:31:38Z</time>
      </trkpt>
      <trkpt lat="45.645103035494685" lon="4.332398967817426">
        <ele>452.92000000000002</ele>
        <time>2025-04-24T12:31:39Z</time>
      </trkpt>
      <trkpt lat="45.64507101662457" lon="4.332087999209762">
        <ele>452.92000000000002</ele>
        <time>2025-04-24T12:31:40Z</time>
      </trkpt>
      <trkpt lat="45.644888039678335" lon="4.32914100587368">
        <ele>451</ele>
        <time>2025-04-24T12:31:49Z</time>
      </trkpt>
      <trkpt lat="45.644971020519733" lon="4.327641986310482">
        <ele>450.02999999999997</ele>
        <time>2025-04-24T12:31:54Z</time>
      </trkpt>
      <trkpt lat="45.644999016076326" lon="4.327372005209327">
        <ele>450.02999999999997</ele>
        <time>2025-04-24T12:31:55Z</time>
      </trkpt>
      <trkpt lat="45.645009996369481" lon="4.327101018279791">
        <ele>450.02999999999997</ele>
        <time>2025-04-24T12:31:56Z</time>
      </trkpt>
      <trkpt lat="45.644945036619902" lon="4.326256038621068">
        <ele>449.55000000000001</ele>
        <time>2025-04-24T12:31:59Z</time>
      </trkpt>
      <trkpt lat="45.644812015816569" lon="4.325081985443831">
        <ele>448.11000000000001</ele>
        <time>2025-04-24T12:32:03Z</time>
      </trkpt>
      <trkpt lat="45.644811009988189" lon="4.324781997129321">
        <ele>447.63</ele>
        <time>2025-04-24T12:32:04Z</time>
      </trkpt>
      <trkpt lat="45.644819978624582" lon="4.324487037956715">
        <ele>447.14999999999998</ele>
        <time>2025-04-24T12:32:05Z</time>
      </trkpt>
      <trkpt lat="45.644848980009556" lon="4.324188977479935">
        <ele>447.14999999999998</ele>
        <time>2025-04-24T12:32:06Z</time>
      </trkpt>
      <trkpt lat="45.64490002579987" lon="4.323903992772102">
        <ele>446.67000000000002</ele>
        <time>2025-04-24T12:32:07Z</time>
      </trkpt>
      <trkpt lat="45.644970014691353" lon="4.323618002235889">
        <ele>446.19</ele>
        <time>2025-04-24T12:32:08Z</time>
      </trkpt>
      <trkpt lat="45.645064981654286" lon="4.323355983942747">
        <ele>445.23000000000002</ele>
        <time>2025-04-24T12:32:09Z</time>
      </trkpt>
      <trkpt lat="45.645159026607871" lon="4.323097988963127">
        <ele>444.75</ele>
        <time>2025-04-24T12:32:10Z</time>
      </trkpt>
      <trkpt lat="45.645401012152433" lon="4.322636984288693">
        <ele>443.79000000000002</ele>
        <time>2025-04-24T12:32:12Z</time>
      </trkpt>
      <trkpt lat="45.646356968209147" lon="4.321108963340521">
        <ele>442.33999999999997</ele>
        <time>2025-04-24T12:32:19Z</time>
      </trkpt>
      <trkpt lat="45.647161966189742" lon="4.319824017584324">
        <ele>439.45999999999998</ele>
        <time>2025-04-24T12:32:26Z</time>
      </trkpt>
      <trkpt lat="45.647378973662853" lon="4.319477006793022">
        <ele>438.5</ele>
        <time>2025-04-24T12:32:28Z</time>
      </trkpt>
      <trkpt lat="45.648175003007054" lon="4.31820597499609">
        <ele>435.13</ele>
        <time>2025-04-24T12:32:35Z</time>
      </trkpt>
      <trkpt lat="45.649245958775282" lon="4.316477039828897">
        <ele>431.76999999999998</ele>
        <time>2025-04-24T12:32:44Z</time>
      </trkpt>
      <trkpt lat="45.649815006181598" lon="4.31541396304965">
        <ele>429.37</ele>
        <time>2025-04-24T12:32:50Z</time>
      </trkpt>
      <trkpt lat="45.649962024763227" lon="4.315009033307433">
        <ele>429.37</ele>
        <time>2025-04-24T12:32:52Z</time>
      </trkpt>
      <trkpt lat="45.650004018098116" lon="4.314786996692419">
        <ele>428.88999999999999</ele>
        <time>2025-04-24T12:32:53Z</time>
      </trkpt>
      <trkpt lat="45.650318004190922" lon="4.313067030161619">
        <ele>427.44</ele>
        <time>2025-04-24T12:33:01Z</time>
      </trkpt>
      <trkpt lat="45.650318004190922" lon="4.312844993546605">
        <ele>427.92000000000002</ele>
        <time>2025-04-24T12:33:02Z</time>
      </trkpt>
      <trkpt lat="45.650299983099103" lon="4.312624968588352">
        <ele>427.44</ele>
        <time>2025-04-24T12:33:03Z</time>
      </trkpt>
      <trkpt lat="45.650243991985917" lon="4.312423970550299">
        <ele>427.44</ele>
        <time>2025-04-24T12:33:04Z</time>
      </trkpt>
      <trkpt lat="45.650171991437674" lon="4.312235964462161">
        <ele>427.44</ele>
        <time>2025-04-24T12:33:05Z</time>
      </trkpt>
      <trkpt lat="45.650071995332837" lon="4.312060028314591">
        <ele>427.44</ele>
        <time>2025-04-24T12:33:06Z</time>
      </trkpt>
      <trkpt lat="45.649973005056381" lon="4.311884008347988">
        <ele>427.44</ele>
        <time>2025-04-24T12:33:07Z</time>
      </trkpt>
      <trkpt lat="45.649103969335556" lon="4.31038498878479">
        <ele>427.92000000000002</ele>
        <time>2025-04-24T12:33:15Z</time>
      </trkpt>
      <trkpt lat="45.647979034110904" lon="4.308765018358827">
        <ele>428.39999999999998</ele>
        <time>2025-04-24T12:33:24Z</time>
      </trkpt>
      <trkpt lat="45.647235978394747" lon="4.307838985696435">
        <ele>426.95999999999998</ele>
        <time>2025-04-24T12:33:30Z</time>
      </trkpt>
      <trkpt lat="45.647172024473548" lon="4.307660032063723">
        <ele>426.95999999999998</ele>
        <time>2025-04-24T12:33:31Z</time>
      </trkpt>
      <trkpt lat="45.647127013653517" lon="4.307480994611979">
        <ele>426.48000000000002</ele>
        <time>2025-04-24T12:33:32Z</time>
      </trkpt>
      <trkpt lat="45.647082002833486" lon="4.307301035150886">
        <ele>426.48000000000002</ele>
        <time>2025-04-24T12:33:33Z</time>
      </trkpt>
      <trkpt lat="45.64707001671195" lon="4.307129960507155">
        <ele>426.48000000000002</ele>
        <time>2025-04-24T12:33:34Z</time>
      </trkpt>
      <trkpt lat="45.647059958428144" lon="4.306928962469101">
        <ele>426.48000000000002</ele>
        <time>2025-04-24T12:33:35Z</time>
      </trkpt>
      <trkpt lat="45.647016959264874" lon="4.306298978626728">
        <ele>426</ele>
        <time>2025-04-24T12:33:38Z</time>
      </trkpt>
      <trkpt lat="45.646921992301941" lon="4.305738983675838">
        <ele>426</ele>
        <time>2025-04-24T12:33:41Z</time>
      </trkpt>
      <trkpt lat="45.646686963737011" lon="4.305135989561677">
        <ele>427.92000000000002</ele>
        <time>2025-04-24T12:33:45Z</time>
      </trkpt>
      <trkpt lat="45.64661898650229" lon="4.304992994293571">
        <ele>428.39999999999998</ele>
        <time>2025-04-24T12:33:46Z</time>
      </trkpt>
      <trkpt lat="45.646521002054214" lon="4.304899033159018">
        <ele>428.88999999999999</ele>
        <time>2025-04-24T12:33:47Z</time>
      </trkpt>
      <trkpt lat="45.64621003344655" lon="4.304646989330649">
        <ele>430.32999999999998</ele>
        <time>2025-04-24T12:33:50Z</time>
      </trkpt>
      <trkpt lat="45.645999982953072" lon="4.304478010162711">
        <ele>431.29000000000002</ele>
        <time>2025-04-24T12:33:52Z</time>
      </trkpt>
      <trkpt lat="45.645907027646899" lon="4.304378014057875">
        <ele>431.76999999999998</ele>
        <time>2025-04-24T12:33:53Z</time>
      </trkpt>
      <trkpt lat="45.64582597464323" lon="4.304253039881587">
        <ele>432.25</ele>
        <time>2025-04-24T12:33:54Z</time>
      </trkpt>
      <trkpt lat="45.645742993801832" lon="4.304125970229507">
        <ele>432.73000000000002</ele>
        <time>2025-04-24T12:33:55Z</time>
      </trkpt>
      <trkpt lat="45.645662024617195" lon="4.304000996053219">
        <ele>432.73000000000002</ele>
        <time>2025-04-24T12:33:56Z</time>
      </trkpt>
      <trkpt lat="45.645605027675629" lon="4.303860012441874">
        <ele>433.20999999999998</ele>
        <time>2025-04-24T12:33:57Z</time>
      </trkpt>
      <trkpt lat="45.645447028800845" lon="4.303464973345399">
        <ele>433.20999999999998</ele>
        <time>2025-04-24T12:34:00Z</time>
      </trkpt>
      <trkpt lat="45.645406963303685" lon="4.303255006670952">
        <ele>433.20999999999998</ele>
        <time>2025-04-24T12:34:01Z</time>
      </trkpt>
      <trkpt lat="45.645376034080982" lon="4.303088039159775">
        <ele>433.20999999999998</ele>
        <time>2025-04-24T12:34:02Z</time>
      </trkpt>
      <trkpt lat="45.645377961918712" lon="4.302946971729398">
        <ele>433.20999999999998</ele>
        <time>2025-04-24T12:34:03Z</time>
      </trkpt>
      <trkpt lat="45.645418027415872" lon="4.302788972854614">
        <ele>433.20999999999998</ele>
        <time>2025-04-24T12:34:04Z</time>
      </trkpt>
      <trkpt lat="45.64545901492238" lon="4.302652012556791">
        <ele>433.20999999999998</ele>
        <time>2025-04-24T12:34:05Z</time>
      </trkpt>
      <trkpt lat="45.645540989935398" lon="4.302525026723743">
        <ele>433.20999999999998</ele>
        <time>2025-04-24T12:34:06Z</time>
      </trkpt>
      <trkpt lat="45.645622964948416" lon="4.302396029233933">
        <ele>433.20999999999998</ele>
        <time>2025-04-24T12:34:07Z</time>
      </trkpt>
      <trkpt lat="45.645857993513346" lon="4.301989004015923">
        <ele>432.73000000000002</ele>
        <time>2025-04-24T12:34:10Z</time>
      </trkpt>
      <trkpt lat="45.645991014316678" lon="4.30170401930809">
        <ele>432.25</ele>
        <time>2025-04-24T12:34:12Z</time>
      </trkpt>
      <trkpt lat="45.646153036504984" lon="4.301256006583571">
        <ele>430.32999999999998</ele>
        <time>2025-04-24T12:34:15Z</time>
      </trkpt>
      <trkpt lat="45.646431986242533" lon="4.300109026953578">
        <ele>425.51999999999998</ele>
        <time>2025-04-24T12:34:23Z</time>
      </trkpt>
      <trkpt lat="45.646649999544024" lon="4.298918964341283">
        <ele>420.23000000000002</ele>
        <time>2025-04-24T12:34:34Z</time>
      </trkpt>
      <trkpt lat="45.646752007305622" lon="4.298099968582392">
        <ele>417.35000000000002</ele>
        <time>2025-04-24T12:34:41Z</time>
      </trkpt>
      <trkpt lat="45.646754018962383" lon="4.297984968870878">
        <ele>416.87</ele>
        <time>2025-04-24T12:34:42Z</time>
      </trkpt>
      <trkpt lat="45.646715965121984" lon="4.296903032809496">
        <ele>413.5</ele>
        <time>2025-04-24T12:34:53Z</time>
      </trkpt>
      <trkpt lat="45.646703979000449" lon="4.296673033386469">
        <ele>409.66000000000003</ele>
        <time>2025-04-24T12:35:03Z</time>
      </trkpt>
      <trkpt lat="45.646691992878914" lon="4.296531965956092">
        <ele>407.25999999999999</ele>
        <time>2025-04-24T12:35:21Z</time>
      </trkpt>
      <trkpt lat="45.64666299149394" lon="4.29568899795413">
        <ele>403.88999999999999</ele>
        <time>2025-04-24T12:35:32Z</time>
      </trkpt>
      <trkpt lat="45.646607000380754" lon="4.294415032491088">
        <ele>397.63999999999999</ele>
        <time>2025-04-24T12:35:46Z</time>
      </trkpt>
      <trkpt lat="45.64659702591598" lon="4.29422702640295">
        <ele>395.72000000000003</ele>
        <time>2025-04-24T12:35:50Z</time>
      </trkpt>
      <trkpt lat="45.646587973460555" lon="4.294068021699786">
        <ele>394.75999999999999</ele>
        <time>2025-04-24T12:35:52Z</time>
      </trkpt>
      <trkpt lat="45.646547991782427" lon="4.292999999597669">
        <ele>392.83999999999997</ele>
        <time>2025-04-24T12:36:00Z</time>
      </trkpt>
      <trkpt lat="45.646501975134015" lon="4.291698960587382">
        <ele>389.94999999999999</ele>
        <time>2025-04-24T12:36:10Z</time>
      </trkpt>
      <trkpt lat="45.646461993455887" lon="4.290965963155031">
        <ele>387.55000000000001</ele>
        <time>2025-04-24T12:36:18Z</time>
      </trkpt>
      <trkpt lat="45.646433997899294" lon="4.290298009291291">
        <ele>386.58999999999997</ele>
        <time>2025-04-24T12:36:23Z</time>
      </trkpt>
      <trkpt lat="45.646433997899294" lon="4.290164988487959">
        <ele>386.58999999999997</ele>
        <time>2025-04-24T12:36:24Z</time>
      </trkpt>
      <trkpt lat="45.646392004564404" lon="4.288996970281005">
        <ele>386.11000000000001</ele>
        <time>2025-04-24T12:36:34Z</time>
      </trkpt>
      <trkpt lat="45.64634196460247" lon="4.287714036181569">
        <ele>386.58999999999997</ele>
        <time>2025-04-24T12:36:45Z</time>
      </trkpt>
      <trkpt lat="45.646282033994794" lon="4.286176040768623">
        <ele>386.58999999999997</ele>
        <time>2025-04-24T12:36:54Z</time>
      </trkpt>
      <trkpt lat="45.646227970719337" lon="4.284742986783385">
        <ele>384.66000000000003</ele>
        <time>2025-04-24T12:37:03Z</time>
      </trkpt>
      <trkpt lat="45.646143984049559" lon="4.282601997256279">
        <ele>381.77999999999997</ele>
        <time>2025-04-24T12:37:15Z</time>
      </trkpt>
      <trkpt lat="45.646051028743386" lon="4.280548011884093">
        <ele>379.86000000000001</ele>
        <time>2025-04-24T12:37:24Z</time>
      </trkpt>
      <trkpt lat="45.645981039851904" lon="4.278636015951634">
        <ele>377.94</ele>
        <time>2025-04-24T12:37:33Z</time>
      </trkpt>
      <trkpt lat="45.645971987396479" lon="4.278438035398722">
        <ele>378.42000000000002</ele>
        <time>2025-04-24T12:37:34Z</time>
      </trkpt>
      <trkpt lat="45.645874002948403" lon="4.27609495818615">
        <ele>376.49000000000001</ele>
        <time>2025-04-24T12:37:46Z</time>
      </trkpt>
      <trkpt lat="45.64580300822854" lon="4.27418002858758">
        <ele>376.00999999999999</ele>
        <time>2025-04-24T12:37:55Z</time>
      </trkpt>
      <trkpt lat="45.64569697715342" lon="4.271436966955662">
        <ele>375.05000000000001</ele>
        <time>2025-04-24T12:38:06Z</time>
      </trkpt>
      <trkpt lat="45.645576026290655" lon="4.268425013870001">
        <ele>372.17000000000002</ele>
        <time>2025-04-24T12:38:18Z</time>
      </trkpt>
      <trkpt lat="45.645474018529058" lon="4.265751019120216">
        <ele>372.17000000000002</ele>
        <time>2025-04-24T12:38:29Z</time>
      </trkpt>
      <trkpt lat="45.645381985232234" lon="4.263177020475268">
        <ele>370.24000000000001</ele>
        <time>2025-04-24T12:38:40Z</time>
      </trkpt>
      <trkpt lat="45.645345021039248" lon="4.261857960373163">
        <ele>369.27999999999997</ele>
        <time>2025-04-24T12:38:48Z</time>
      </trkpt>
      <trkpt lat="45.645291041582823" lon="4.260592963546515">
        <ele>369.27999999999997</ele>
        <time>2025-04-24T12:38:56Z</time>
      </trkpt>
      <trkpt lat="45.645285006612539" lon="4.260470001026988">
        <ele>369.27999999999997</ele>
        <time>2025-04-24T12:38:57Z</time>
      </trkpt>
      <trkpt lat="45.645279977470636" lon="4.260357012972236">
        <ele>369.27999999999997</ele>
        <time>2025-04-24T12:38:58Z</time>
      </trkpt>
      <trkpt lat="45.645276037976146" lon="4.260249976068735">
        <ele>369.27999999999997</ele>
        <time>2025-04-24T12:38:59Z</time>
      </trkpt>
      <trkpt lat="45.645260028541088" lon="4.260154003277421">
        <ele>368.80000000000001</ele>
        <time>2025-04-24T12:39:00Z</time>
      </trkpt>
      <trkpt lat="45.645253993570805" lon="4.26004596054554">
        <ele>368.80000000000001</ele>
        <time>2025-04-24T12:39:01Z</time>
      </trkpt>
      <trkpt lat="45.645212000235915" lon="4.258951032534242">
        <ele>369.27999999999997</ele>
        <time>2025-04-24T12:39:11Z</time>
      </trkpt>
      <trkpt lat="45.645190039649606" lon="4.25849799066782">
        <ele>369.75999999999999</ele>
        <time>2025-04-24T12:39:15Z</time>
      </trkpt>
      <trkpt lat="45.645190039649606" lon="4.258380979299545">
        <ele>370.24000000000001</ele>
        <time>2025-04-24T12:39:16Z</time>
      </trkpt>
      <trkpt lat="45.645127007737756" lon="4.25682102330029">
        <ele>370.24000000000001</ele>
        <time>2025-04-24T12:39:29Z</time>
      </trkpt>
      <trkpt lat="45.645070010796189" lon="4.255135003477335">
        <ele>369.27999999999997</ele>
        <time>2025-04-24T12:39:39Z</time>
      </trkpt>
      <trkpt lat="45.64496498554945" lon="4.252415997907519">
        <ele>366.88</ele>
        <time>2025-04-24T12:39:54Z</time>
      </trkpt>
      <trkpt lat="45.644876975566149" lon="4.250493021681905">
        <ele>364</ele>
        <time>2025-04-24T12:40:05Z</time>
      </trkpt>
      <trkpt lat="45.644817966967821" lon="4.248715974390507">
        <ele>363.51999999999998</ele>
        <time>2025-04-24T12:40:16Z</time>
      </trkpt>
      <trkpt lat="45.644760970026255" lon="4.247511997818947">
        <ele>362.55000000000001</ele>
        <time>2025-04-24T12:40:25Z</time>
      </trkpt>
      <trkpt lat="45.644735991954803" lon="4.246527040377259">
        <ele>361.58999999999997</ele>
        <time>2025-04-24T12:40:31Z</time>
      </trkpt>
      <trkpt lat="45.644730040803552" lon="4.246366024017334">
        <ele>361.11000000000001</ele>
        <time>2025-04-24T12:40:32Z</time>
      </trkpt>
      <trkpt lat="45.644724005833268" lon="4.246210036799312">
        <ele>360.63</ele>
        <time>2025-04-24T12:40:33Z</time>
      </trkpt>
      <trkpt lat="45.644658962264657" lon="4.244520999491215">
        <ele>359.67000000000002</ele>
        <time>2025-04-24T12:40:44Z</time>
      </trkpt>
      <trkpt lat="45.64457799308002" lon="4.242718974128366">
        <ele>357.26999999999998</ele>
        <time>2025-04-24T12:40:56Z</time>
      </trkpt>
      <trkpt lat="45.644500041380525" lon="4.240855006501079">
        <ele>356.31</ele>
        <time>2025-04-24T12:41:08Z</time>
      </trkpt>
      <trkpt lat="45.644422005861998" lon="4.238646039739251">
        <ele>357.26999999999998</ele>
        <time>2025-04-24T12:41:21Z</time>
      </trkpt>
      <trkpt lat="45.644345982000232" lon="4.236621977761388">
        <ele>357.75</ele>
        <time>2025-04-24T12:41:33Z</time>
      </trkpt>
      <trkpt lat="45.644267024472356" lon="4.23561598174274">
        <ele>357.75</ele>
        <time>2025-04-24T12:41:41Z</time>
      </trkpt>
      <trkpt lat="45.644247997552156" lon="4.234302034601569">
        <ele>357.75</ele>
        <time>2025-04-24T12:41:52Z</time>
      </trkpt>
      <trkpt lat="45.644194018095732" lon="4.233098980039358">
        <ele>356.79000000000002</ele>
        <time>2025-04-24T12:42:03Z</time>
      </trkpt>
      <trkpt lat="45.644173985347152" lon="4.232662031427026">
        <ele>356.79000000000002</ele>
        <time>2025-04-24T12:42:11Z</time>
      </trkpt>
      <trkpt lat="45.644173985347152" lon="4.232662031427026">
        <ele>356.79000000000002</ele>
        <time>2025-04-24T12:42:22Z</time>
      </trkpt>
      <trkpt lat="45.644173985347152" lon="4.232659013941884">
        <ele>356.79000000000002</ele>
        <time>2025-04-24T12:42:23Z</time>
      </trkpt>
      <trkpt lat="45.644173985347152" lon="4.232676029205322">
        <ele>356.79000000000002</ele>
        <time>2025-04-24T12:42:24Z</time>
      </trkpt>
      <trkpt lat="45.644174991175532" lon="4.232693966478109">
        <ele>356.79000000000002</ele>
        <time>2025-04-24T12:42:25Z</time>
      </trkpt>
      <trkpt lat="45.644175997003913" lon="4.23271500505507">
        <ele>356.79000000000002</ele>
        <time>2025-04-24T12:42:26Z</time>
      </trkpt>
      <trkpt lat="45.644175997003913" lon="4.23271500505507">
        <ele>356.79000000000002</ele>
        <time>2025-04-24T12:42:34Z</time>
      </trkpt>
      <trkpt lat="45.644175997003913" lon="4.23271500505507">
        <ele>355.82999999999998</ele>
        <time>2025-04-24T12:42:45Z</time>
      </trkpt>
      <trkpt lat="45.644285967573524" lon="4.232815001159906">
        <ele>341.88999999999999</ele>
        <time>2025-04-24T13:24:22Z</time>
      </trkpt>
      <trkpt lat="45.644344976171851" lon="4.232788011431694">
        <ele>346.20999999999998</ele>
        <time>2025-04-24T13:24:36Z</time>
      </trkpt>
      <trkpt lat="45.644175997003913" lon="4.232717016711831">
        <ele>345.73000000000002</ele>
        <time>2025-04-24T13:24:40Z</time>
      </trkpt>
      <trkpt lat="45.644175997003913" lon="4.232717016711831">
        <ele>345.73000000000002</ele>
        <time>2025-04-24T13:24:41Z</time>
      </trkpt>
      <trkpt lat="45.644169040024281" lon="4.232544014230371">
        <ele>347.17000000000002</ele>
        <time>2025-04-24T13:24:51Z</time>
      </trkpt>
      <trkpt lat="45.644163005053997" lon="4.232423985376954">
        <ele>351.5</ele>
        <time>2025-04-24T13:25:01Z</time>
      </trkpt>
      <trkpt lat="45.644159987568855" lon="4.232184011489153">
        <ele>355.33999999999997</ele>
        <time>2025-04-24T13:25:29Z</time>
      </trkpt>
      <trkpt lat="45.644159987568855" lon="4.231981001794338">
        <ele>355.33999999999997</ele>
        <time>2025-04-24T13:25:33Z</time>
      </trkpt>
      <trkpt lat="45.644159987568855" lon="4.231946971267462">
        <ele>356.31</ele>
        <time>2025-04-24T13:25:34Z</time>
      </trkpt>
      <trkpt lat="45.644158981740475" lon="4.231911012902856">
        <ele>356.31</ele>
        <time>2025-04-24T13:25:35Z</time>
      </trkpt>
      <trkpt lat="45.644156970083714" lon="4.231870025396347">
        <ele>356.79000000000002</ele>
        <time>2025-04-24T13:25:36Z</time>
      </trkpt>
      <trkpt lat="45.644155964255333" lon="4.231832977384329">
        <ele>356.79000000000002</ele>
        <time>2025-04-24T13:25:37Z</time>
      </trkpt>
      <trkpt lat="45.644154958426952" lon="4.231802970170975">
        <ele>356.79000000000002</ele>
        <time>2025-04-24T13:25:38Z</time>
      </trkpt>
      <trkpt lat="45.644154036417603" lon="4.231774974614382">
        <ele>356.79000000000002</ele>
        <time>2025-04-24T13:25:39Z</time>
      </trkpt>
      <trkpt lat="45.644153030589223" lon="4.231743961572647">
        <ele>356.79000000000002</ele>
        <time>2025-04-24T13:25:40Z</time>
      </trkpt>
      <trkpt lat="45.644152024760842" lon="4.231703979894519">
        <ele>356.79000000000002</ele>
        <time>2025-04-24T13:25:41Z</time>
      </trkpt>
      <trkpt lat="45.644150013104081" lon="4.231657963246107">
        <ele>356.79000000000002</ele>
        <time>2025-04-24T13:25:42Z</time>
      </trkpt>
      <trkpt lat="45.64414800144732" lon="4.231608007103205">
        <ele>356.79000000000002</ele>
        <time>2025-04-24T13:25:43Z</time>
      </trkpt>
      <trkpt lat="45.644145989790559" lon="4.231545981019735">
        <ele>357.26999999999998</ele>
        <time>2025-04-24T13:25:44Z</time>
      </trkpt>
      <trkpt lat="45.644142972305417" lon="4.231467023491859">
        <ele>357.26999999999998</ele>
        <time>2025-04-24T13:25:45Z</time>
      </trkpt>
      <trkpt lat="45.644140038639307" lon="4.231377001851797">
        <ele>357.75</ele>
        <time>2025-04-24T13:25:46Z</time>
      </trkpt>
      <trkpt lat="45.644136015325785" lon="4.231288991868496">
        <ele>357.26999999999998</ele>
        <time>2025-04-24T13:25:47Z</time>
      </trkpt>
      <trkpt lat="45.644129980355501" lon="4.231195030733943">
        <ele>357.26999999999998</ele>
        <time>2025-04-24T13:25:48Z</time>
      </trkpt>
      <trkpt lat="45.644063008949161" lon="4.230288024991751">
        <ele>355.33999999999997</ele>
        <time>2025-04-24T13:25:58Z</time>
      </trkpt>
      <trkpt lat="45.644033001735806" lon="4.230145029723644">
        <ele>354.86000000000001</ele>
        <time>2025-04-24T13:26:00Z</time>
      </trkpt>
      <trkpt lat="45.644017998129129" lon="4.230076968669891">
        <ele>354.38</ele>
        <time>2025-04-24T13:26:01Z</time>
      </trkpt>
      <trkpt lat="45.643986985087395" lon="4.229933973401785">
        <ele>352.94</ele>
        <time>2025-04-24T13:26:03Z</time>
      </trkpt>
      <trkpt lat="45.643970975652337" lon="4.229859039187431">
        <ele>351.98000000000002</ele>
        <time>2025-04-24T13:26:04Z</time>
      </trkpt>
      <trkpt lat="45.643859999254346" lon="4.229345982894301">
        <ele>347.64999999999998</ele>
        <time>2025-04-24T13:26:10Z</time>
      </trkpt>
      <trkpt lat="45.643770983442664" lon="4.228996960446239">
        <ele>346.20999999999998</ele>
        <time>2025-04-24T13:26:14Z</time>
      </trkpt>
      <trkpt lat="45.643533021211624" lon="4.228092972189188">
        <ele>346.20999999999998</ele>
        <time>2025-04-24T13:26:24Z</time>
      </trkpt>
      <trkpt lat="45.643493039533496" lon="4.227943019941449">
        <ele>346.20999999999998</ele>
        <time>2025-04-24T13:26:26Z</time>
      </trkpt>
      <trkpt lat="45.643387008458376" lon="4.227547980844975">
        <ele>347.17000000000002</ele>
        <time>2025-04-24T13:26:30Z</time>
      </trkpt>
      <trkpt lat="45.643364964053035" lon="4.227468017488718">
        <ele>347.17000000000002</ele>
        <time>2025-04-24T13:26:31Z</time>
      </trkpt>
      <trkpt lat="45.643162038177252" lon="4.226694032549858">
        <ele>350.06</ele>
        <time>2025-04-24T13:26:38Z</time>
      </trkpt>
      <trkpt lat="45.643012002110481" lon="4.226096989586949">
        <ele>350.54000000000002</ele>
        <time>2025-04-24T13:26:42Z</time>
      </trkpt>
      <trkpt lat="45.642575975507498" lon="4.22435699030757">
        <ele>347.17000000000002</ele>
        <time>2025-04-24T13:26:52Z</time>
      </trkpt>
      <trkpt lat="45.642079012468457" lon="4.222363019362092">
        <ele>342.37</ele>
        <time>2025-04-24T13:27:02Z</time>
      </trkpt>
      <trkpt lat="45.641473000869155" lon="4.219968980178237">
        <ele>341.41000000000003</ele>
        <time>2025-04-24T13:27:13Z</time>
      </trkpt>
      <trkpt lat="45.640722988173366" lon="4.217007989063859">
        <ele>340.92000000000002</ele>
        <time>2025-04-24T13:27:24Z</time>
      </trkpt>
      <trkpt lat="45.639878008514643" lon="4.213661011308432">
        <ele>339.95999999999998</ele>
        <time>2025-04-24T13:27:36Z</time>
      </trkpt>
      <trkpt lat="45.639174012467265" lon="4.210874028503895">
        <ele>338.04000000000002</ele>
        <time>2025-04-24T13:27:46Z</time>
      </trkpt>
      <trkpt lat="45.638473033905029" lon="4.208101965487003">
        <ele>339.95999999999998</ele>
        <time>2025-04-24T13:27:57Z</time>
      </trkpt>
      <trkpt lat="45.638216966763139" lon="4.206920033320785">
        <ele>341.41000000000003</ele>
        <time>2025-04-24T13:28:04Z</time>
      </trkpt>
      <trkpt lat="45.638155024498701" lon="4.20624696649611">
        <ele>341.41000000000003</ele>
        <time>2025-04-24T13:28:10Z</time>
      </trkpt>
      <trkpt lat="45.638159969821572" lon="4.206162979826331">
        <ele>341.41000000000003</ele>
        <time>2025-04-24T13:28:11Z</time>
      </trkpt>
      <trkpt lat="45.638195006176829" lon="4.205944966524839">
        <ele>341.41000000000003</ele>
        <time>2025-04-24T13:28:13Z</time>
      </trkpt>
      <trkpt lat="45.638145972043276" lon="4.205815969035029">
        <ele>341.88999999999999</ele>
        <time>2025-04-24T13:28:14Z</time>
      </trkpt>
      <trkpt lat="45.638023009523749" lon="4.205725025385618">
        <ele>341.41000000000003</ele>
        <time>2025-04-24T13:28:15Z</time>
      </trkpt>
      <trkpt lat="45.637985961511731" lon="4.2056879773736">
        <ele>341.41000000000003</ele>
        <time>2025-04-24T13:28:16Z</time>
      </trkpt>
      <trkpt lat="45.637913960963488" lon="4.205571971833706">
        <ele>341.41000000000003</ele>
        <time>2025-04-24T13:28:17Z</time>
      </trkpt>
      <trkpt lat="45.637851012870669" lon="4.205444986000657">
        <ele>341.41000000000003</ele>
        <time>2025-04-24T13:28:18Z</time>
      </trkpt>
      <trkpt lat="45.637783035635948" lon="4.205310037359595">
        <ele>341.41000000000003</ele>
        <time>2025-04-24T13:28:19Z</time>
      </trkpt>
      <trkpt lat="45.637726960703731" lon="4.205136029049754">
        <ele>341.41000000000003</ele>
        <time>2025-04-24T13:28:20Z</time>
      </trkpt>
      <trkpt lat="45.637245001271367" lon="4.203321011736989">
        <ele>340.92000000000002</ele>
        <time>2025-04-24T13:28:29Z</time>
      </trkpt>
      <trkpt lat="45.636555003002286" lon="4.200580967590213">
        <ele>341.41000000000003</ele>
        <time>2025-04-24T13:28:41Z</time>
      </trkpt>
      <trkpt lat="45.636285021901131" lon="4.19898496940732">
        <ele>341.41000000000003</ele>
        <time>2025-04-24T13:28:49Z</time>
      </trkpt>
      <trkpt lat="45.636285021901131" lon="4.19883300550282">
        <ele>341.41000000000003</ele>
        <time>2025-04-24T13:28:50Z</time>
      </trkpt>
      <trkpt lat="45.636285021901131" lon="4.198772991076112">
        <ele>341.41000000000003</ele>
        <time>2025-04-24T13:28:51Z</time>
      </trkpt>
      <trkpt lat="45.63643497414887" lon="4.198569981381297">
        <ele>341.41000000000003</ele>
        <time>2025-04-24T13:28:52Z</time>
      </trkpt>
      <trkpt lat="45.636416031047702" lon="4.198391027748585">
        <ele>341.41000000000003</ele>
        <time>2025-04-24T13:28:53Z</time>
      </trkpt>
      <trkpt lat="45.636331960558891" lon="4.198278039693832">
        <ele>341.41000000000003</ele>
        <time>2025-04-24T13:28:54Z</time>
      </trkpt>
      <trkpt lat="45.63626297749579" lon="4.198236968368292">
        <ele>341.41000000000003</ele>
        <time>2025-04-24T13:28:55Z</time>
      </trkpt>
      <trkpt lat="45.63613398000598" lon="4.198223976418376">
        <ele>341.41000000000003</ele>
        <time>2025-04-24T13:28:56Z</time>
      </trkpt>
      <trkpt lat="45.636058961972594" lon="4.198113000020385">
        <ele>341.41000000000003</ele>
        <time>2025-04-24T13:28:57Z</time>
      </trkpt>
      <trkpt lat="45.635988973081112" lon="4.197975033894181">
        <ele>341.41000000000003</ele>
        <time>2025-04-24T13:28:58Z</time>
      </trkpt>
      <trkpt lat="45.635924013331532" lon="4.19782298617065">
        <ele>341.41000000000003</ele>
        <time>2025-04-24T13:28:59Z</time>
      </trkpt>
      <trkpt lat="45.63585695810616" lon="4.197665993124247">
        <ele>340.92000000000002</ele>
        <time>2025-04-24T13:29:00Z</time>
      </trkpt>
      <trkpt lat="45.635293023660779" lon="4.196081981062889">
        <ele>341.41000000000003</ele>
        <time>2025-04-24T13:29:08Z</time>
      </trkpt>
      <trkpt lat="45.634542005136609" lon="4.193737981840968">
        <ele>344.76999999999998</ele>
        <time>2025-04-24T13:29:18Z</time>
      </trkpt>
      <trkpt lat="45.634060967713594" lon="4.191520968452096">
        <ele>342.37</ele>
        <time>2025-04-24T13:29:27Z</time>
      </trkpt>
      <trkpt lat="45.633634999394417" lon="4.189195996150374">
        <ele>339.95999999999998</ele>
        <time>2025-04-24T13:29:36Z</time>
      </trkpt>
      <trkpt lat="45.633538020774722" lon="4.188687968999147">
        <ele>340.44</ele>
        <time>2025-04-24T13:29:38Z</time>
      </trkpt>
      <trkpt lat="45.632966039702296" lon="4.186411025002599">
        <ele>343.81</ele>
        <time>2025-04-24T13:29:47Z</time>
      </trkpt>
      <trkpt lat="45.632043024525046" lon="4.182794988155365">
        <ele>350.06</ele>
        <time>2025-04-24T13:30:01Z</time>
      </trkpt>
      <trkpt lat="45.631393007934093" lon="4.180233981460333">
        <ele>349.57999999999998</ele>
        <time>2025-04-24T13:30:12Z</time>
      </trkpt>
      <trkpt lat="45.630984976887703" lon="4.178644018247724">
        <ele>350.06</ele>
        <time>2025-04-24T13:30:21Z</time>
      </trkpt>
      <trkpt lat="45.630963016301394" lon="4.178560031577945">
        <ele>350.06</ele>
        <time>2025-04-24T13:30:22Z</time>
      </trkpt>
      <trkpt lat="45.631112968549132" lon="4.178301030769944">
        <ele>350.06</ele>
        <time>2025-04-24T13:30:23Z</time>
      </trkpt>
      <trkpt lat="45.631094025447965" lon="4.178168009966612">
        <ele>350.06</ele>
        <time>2025-04-24T13:30:24Z</time>
      </trkpt>
      <trkpt lat="45.631074998527765" lon="4.17803498916328">
        <ele>350.54000000000002</ele>
        <time>2025-04-24T13:30:25Z</time>
      </trkpt>
      <trkpt lat="45.630958992987871" lon="4.177871961146593">
        <ele>351.01999999999998</ele>
        <time>2025-04-24T13:30:26Z</time>
      </trkpt>
      <trkpt lat="45.630941977724433" lon="4.177852012217045">
        <ele>351.5</ele>
        <time>2025-04-24T13:30:27Z</time>
      </trkpt>
      <trkpt lat="45.630757994949818" lon="4.177737012505531">
        <ele>351.5</ele>
        <time>2025-04-24T13:30:28Z</time>
      </trkpt>
      <trkpt lat="45.630718013271689" lon="4.177570967003703">
        <ele>351.5</ele>
        <time>2025-04-24T13:30:29Z</time>
      </trkpt>
      <trkpt lat="45.630674008280039" lon="4.177393019199371">
        <ele>351.98000000000002</ele>
        <time>2025-04-24T13:30:30Z</time>
      </trkpt>
      <trkpt lat="45.630200011655688" lon="4.175476999953389">
        <ele>351.98000000000002</ele>
        <time>2025-04-24T13:30:39Z</time>
      </trkpt>
      <trkpt lat="45.629489980638027" lon="4.172698985785246">
        <ele>354.86000000000001</ele>
        <time>2025-04-24T13:30:50Z</time>
      </trkpt>
      <trkpt lat="45.628298996016383" lon="4.167986009269953">
        <ele>355.82999999999998</ele>
        <time>2025-04-24T13:31:07Z</time>
      </trkpt>
      <trkpt lat="45.627248995006084" lon="4.163829004392028">
        <ele>358.23000000000002</ele>
        <time>2025-04-24T13:31:22Z</time>
      </trkpt>
      <trkpt lat="45.626290021464229" lon="4.160033008083701">
        <ele>360.14999999999998</ele>
        <time>2025-04-24T13:31:36Z</time>
      </trkpt>
      <trkpt lat="45.625697001814842" lon="4.157684985548258">
        <ele>361.58999999999997</ele>
        <time>2025-04-24T13:31:46Z</time>
      </trkpt>
      <trkpt lat="45.625159973278642" lon="4.155558999627829">
        <ele>363.51999999999998</ele>
        <time>2025-04-24T13:31:57Z</time>
      </trkpt>
      <trkpt lat="45.624395962804556" lon="4.152540005743504">
        <ele>366.88</ele>
        <time>2025-04-24T13:32:10Z</time>
      </trkpt>
      <trkpt lat="45.62382398173213" lon="4.150239005684853">
        <ele>368.80000000000001</ele>
        <time>2025-04-24T13:32:20Z</time>
      </trkpt>
      <trkpt lat="45.623164996504784" lon="4.147650003433228">
        <ele>371.20999999999998</ele>
        <time>2025-04-24T13:32:32Z</time>
      </trkpt>
      <trkpt lat="45.622953018173575" lon="4.146820027381182">
        <ele>371.20999999999998</ele>
        <time>2025-04-24T13:32:36Z</time>
      </trkpt>
      <trkpt lat="45.622456977143884" lon="4.144879030063748">
        <ele>370.73000000000002</ele>
        <time>2025-04-24T13:32:45Z</time>
      </trkpt>
      <trkpt lat="45.62169698998332" lon="4.141828017309308">
        <ele>370.24000000000001</ele>
        <time>2025-04-24T13:32:58Z</time>
      </trkpt>
      <trkpt lat="45.621140012517571" lon="4.139637993648648">
        <ele>370.73000000000002</ele>
        <time>2025-04-24T13:33:08Z</time>
      </trkpt>
      <trkpt lat="45.620982013642788" lon="4.139015972614288">
        <ele>370.73000000000002</ele>
        <time>2025-04-24T13:33:14Z</time>
      </trkpt>
      <trkpt lat="45.620744973421097" lon="4.138091029599309">
        <ele>371.69</ele>
        <time>2025-04-24T13:33:22Z</time>
      </trkpt>
      <trkpt lat="45.620282040908933" lon="4.136287998408079">
        <ele>373.13</ele>
        <time>2025-04-24T13:33:31Z</time>
      </trkpt>
      <trkpt lat="45.619476037099957" lon="4.133090972900391">
        <ele>374.08999999999997</ele>
        <time>2025-04-24T13:33:44Z</time>
      </trkpt>
      <trkpt lat="45.619049984961748" lon="4.131401013582945">
        <ele>374.56999999999999</ele>
        <time>2025-04-24T13:33:51Z</time>
      </trkpt>
      <trkpt lat="45.61898997053504" lon="4.131161961704493">
        <ele>374.56999999999999</ele>
        <time>2025-04-24T13:33:52Z</time>
      </trkpt>
      <trkpt lat="45.618186984211206" lon="4.127978011965752">
        <ele>373.61000000000001</ele>
        <time>2025-04-24T13:34:05Z</time>
      </trkpt>
      <trkpt lat="45.617375029250979" lon="4.124692976474762">
        <ele>373.61000000000001</ele>
        <time>2025-04-24T13:34:18Z</time>
      </trkpt>
      <trkpt lat="45.616434998810291" lon="4.120975015684962">
        <ele>374.08999999999997</ele>
        <time>2025-04-24T13:34:32Z</time>
      </trkpt>
      <trkpt lat="45.615296987816691" lon="4.116500001400709">
        <ele>374.56999999999999</ele>
        <time>2025-04-24T13:34:49Z</time>
      </trkpt>
      <trkpt lat="45.614500036463141" lon="4.113383023068309">
        <ele>375.05000000000001</ele>
        <time>2025-04-24T13:35:01Z</time>
      </trkpt>
      <trkpt lat="45.613755974918604" lon="4.110450027510524">
        <ele>374.56999999999999</ele>
        <time>2025-04-24T13:35:12Z</time>
      </trkpt>
      <trkpt lat="45.612975033000112" lon="4.107369007542729">
        <ele>371.20999999999998</ele>
        <time>2025-04-24T13:35:24Z</time>
      </trkpt>
      <trkpt lat="45.612360974773765" lon="4.104945966973901">
        <ele>369.75999999999999</ele>
        <time>2025-04-24T13:35:34Z</time>
      </trkpt>
      <trkpt lat="45.611636023968458" lon="4.10212897695601">
        <ele>369.75999999999999</ele>
        <time>2025-04-24T13:35:46Z</time>
      </trkpt>
      <trkpt lat="45.611226987093687" lon="4.100494002923369">
        <ele>371.69</ele>
        <time>2025-04-24T13:35:55Z</time>
      </trkpt>
      <trkpt lat="45.610726000741124" lon="4.098544958978891">
        <ele>375.05000000000001</ele>
        <time>2025-04-24T13:36:07Z</time>
      </trkpt>
      <trkpt lat="45.610343031585217" lon="4.096963964402676">
        <ele>376.97000000000003</ele>
        <time>2025-04-24T13:36:18Z</time>
      </trkpt>
      <trkpt lat="45.610242029651999" lon="4.096445962786675">
        <ele>376.97000000000003</ele>
        <time>2025-04-24T13:36:25Z</time>
      </trkpt>
      <trkpt lat="45.610216967761517" lon="4.096261980012059">
        <ele>376.97000000000003</ele>
        <time>2025-04-24T13:36:29Z</time>
      </trkpt>
      <trkpt lat="45.610204981639981" lon="4.096172964200378">
        <ele>377.94</ele>
        <time>2025-04-24T13:36:30Z</time>
      </trkpt>
      <trkpt lat="45.610192995518446" lon="4.096071040257812">
        <ele>378.42000000000002</ele>
        <time>2025-04-24T13:36:31Z</time>
      </trkpt>
      <trkpt lat="45.610212022438645" lon="4.095976995304227">
        <ele>378.89999999999998</ele>
        <time>2025-04-24T13:36:32Z</time>
      </trkpt>
      <trkpt lat="45.610182015225291" lon="4.095906000584364">
        <ele>379.38</ele>
        <time>2025-04-24T13:36:33Z</time>
      </trkpt>
      <trkpt lat="45.610142033547163" lon="4.095826959237456">
        <ele>379.38</ele>
        <time>2025-04-24T13:36:34Z</time>
      </trkpt>
      <trkpt lat="45.610104985535145" lon="4.095754958689213">
        <ele>379.38</ele>
        <time>2025-04-24T13:36:35Z</time>
      </trkpt>
      <trkpt lat="45.610031979158521" lon="4.095754958689213">
        <ele>379.86000000000001</ele>
        <time>2025-04-24T13:36:36Z</time>
      </trkpt>
      <trkpt lat="45.609976993873715" lon="4.095798963680863">
        <ele>379.86000000000001</ele>
        <time>2025-04-24T13:36:37Z</time>
      </trkpt>
      <trkpt lat="45.609913039952517" lon="4.095861995592713">
        <ele>380.33999999999997</ele>
        <time>2025-04-24T13:36:38Z</time>
      </trkpt>
      <trkpt lat="45.609897030517459" lon="4.095976995304227">
        <ele>380.81999999999999</ele>
        <time>2025-04-24T13:36:39Z</time>
      </trkpt>
      <trkpt lat="45.609829975292087" lon="4.096101969480515">
        <ele>380.81999999999999</ele>
        <time>2025-04-24T13:36:40Z</time>
      </trkpt>
      <trkpt lat="45.609761998057365" lon="4.096200037747622">
        <ele>380.81999999999999</ele>
        <time>2025-04-24T13:36:41Z</time>
      </trkpt>
      <trkpt lat="45.60968304052949" lon="4.096307996660471">
        <ele>381.30000000000001</ele>
        <time>2025-04-24T13:36:42Z</time>
      </trkpt>
      <trkpt lat="45.609592013061047" lon="4.096407992765307">
        <ele>381.30000000000001</ele>
        <time>2025-04-24T13:36:43Z</time>
      </trkpt>
      <trkpt lat="45.608587022870779" lon="4.097196981310844">
        <ele>381.30000000000001</ele>
        <time>2025-04-24T13:36:51Z</time>
      </trkpt>
      <trkpt lat="45.606869990006089" lon="4.098081020638347">
        <ele>383.69999999999999</ele>
        <time>2025-04-24T13:37:03Z</time>
      </trkpt>
      <trkpt lat="45.606761025264859" lon="4.098155032843351">
        <ele>383.69999999999999</ele>
        <time>2025-04-24T13:37:04Z</time>
      </trkpt>
      <trkpt lat="45.606664968654513" lon="4.098224015906453">
        <ele>383.69999999999999</ele>
        <time>2025-04-24T13:37:05Z</time>
      </trkpt>
      <trkpt lat="45.606502024456859" lon="4.098114967346191">
        <ele>384.18000000000001</ele>
        <time>2025-04-24T13:37:06Z</time>
      </trkpt>
      <trkpt lat="45.606434969231486" lon="4.098082026466727">
        <ele>384.18000000000001</ele>
        <time>2025-04-24T13:37:07Z</time>
      </trkpt>
      <trkpt lat="45.606322987005115" lon="4.09815201535821">
        <ele>384.66000000000003</ele>
        <time>2025-04-24T13:37:08Z</time>
      </trkpt>
      <trkpt lat="45.606265990063548" lon="4.098200965672731">
        <ele>385.14999999999998</ele>
        <time>2025-04-24T13:37:09Z</time>
      </trkpt>
      <trkpt lat="45.606134980916977" lon="4.09836801700294">
        <ele>385.14999999999998</ele>
        <time>2025-04-24T13:37:10Z</time>
      </trkpt>
      <trkpt lat="45.60601101256907" lon="4.098392995074391">
        <ele>385.14999999999998</ele>
        <time>2025-04-24T13:37:11Z</time>
      </trkpt>
      <trkpt lat="45.605880003422499" lon="4.098418978974223">
        <ele>385.14999999999998</ele>
        <time>2025-04-24T13:37:12Z</time>
      </trkpt>
      <trkpt lat="45.605737008154392" lon="4.098431970924139">
        <ele>385.14999999999998</ele>
        <time>2025-04-24T13:37:13Z</time>
      </trkpt>
      <trkpt lat="45.605592001229525" lon="4.098419984802604">
        <ele>385.14999999999998</ele>
        <time>2025-04-24T13:37:14Z</time>
      </trkpt>
      <trkpt lat="45.604494977742434" lon="4.097996028140187">
        <ele>385.63</ele>
        <time>2025-04-24T13:37:21Z</time>
      </trkpt>
      <trkpt lat="45.603502979502082" lon="4.09692800603807">
        <ele>386.11000000000001</ele>
        <time>2025-04-24T13:37:28Z</time>
      </trkpt>
      <trkpt lat="45.602084007114172" lon="4.094875026494265">
        <ele>388.50999999999999</ele>
        <time>2025-04-24T13:37:40Z</time>
      </trkpt>
      <trkpt lat="45.601652003824711" lon="4.0939009655267">
        <ele>387.55000000000001</ele>
        <time>2025-04-24T13:37:48Z</time>
      </trkpt>
      <trkpt lat="45.601485958322883" lon="4.093571975827217">
        <ele>386.11000000000001</ele>
        <time>2025-04-24T13:37:54Z</time>
      </trkpt>
      <trkpt lat="45.601385040208697" lon="4.093381036072969">
        <ele>385.14999999999998</ele>
        <time>2025-04-24T13:37:58Z</time>
      </trkpt>
      <trkpt lat="45.601321002468467" lon="4.093260001391172">
        <ele>384.66000000000003</ele>
        <time>2025-04-24T13:38:00Z</time>
      </trkpt>
      <trkpt lat="45.6012830324471" lon="4.093188000842929">
        <ele>384.18000000000001</ele>
        <time>2025-04-24T13:38:01Z</time>
      </trkpt>
      <trkpt lat="45.601244978606701" lon="4.092944003641605">
        <ele>384.66000000000003</ele>
        <time>2025-04-24T13:38:03Z</time>
      </trkpt>
      <trkpt lat="45.601213965564966" lon="4.092882983386517">
        <ele>384.66000000000003</ele>
        <time>2025-04-24T13:38:04Z</time>
      </trkpt>
      <trkpt lat="45.601158980280161" lon="4.092772006988525">
        <ele>384.66000000000003</ele>
        <time>2025-04-24T13:38:05Z</time>
      </trkpt>
      <trkpt lat="45.60109100304544" lon="4.092761026695371">
        <ele>384.66000000000003</ele>
        <time>2025-04-24T13:38:06Z</time>
      </trkpt>
      <trkpt lat="45.601029982790351" lon="4.092750968411565">
        <ele>384.18000000000001</ele>
        <time>2025-04-24T13:38:07Z</time>
      </trkpt>
      <trkpt lat="45.600943984463811" lon="4.092686008661985">
        <ele>384.18000000000001</ele>
        <time>2025-04-24T13:38:08Z</time>
      </trkpt>
      <trkpt lat="45.600861003622413" lon="4.092619959264994">
        <ele>384.18000000000001</ele>
        <time>2025-04-24T13:38:09Z</time>
      </trkpt>
      <trkpt lat="45.600777016952634" lon="4.092552987858653">
        <ele>384.18000000000001</ele>
        <time>2025-04-24T13:38:10Z</time>
      </trkpt>
      <trkpt lat="45.59991099871695" lon="4.091329984366894">
        <ele>386.11000000000001</ele>
        <time>2025-04-24T13:38:20Z</time>
      </trkpt>
      <trkpt lat="45.598624041303992" lon="4.089025966823101">
        <ele>387.55000000000001</ele>
        <time>2025-04-24T13:38:34Z</time>
      </trkpt>
      <trkpt lat="45.597860030829906" lon="4.08745301887393">
        <ele>388.02999999999997</ele>
        <time>2025-04-24T13:38:43Z</time>
      </trkpt>
      <trkpt lat="45.597753999754786" lon="4.087188988924027">
        <ele>387.06999999999999</ele>
        <time>2025-04-24T13:38:49Z</time>
      </trkpt>
      <trkpt lat="45.597691973671317" lon="4.086924036964774">
        <ele>386.11000000000001</ele>
        <time>2025-04-24T13:38:55Z</time>
      </trkpt>
      <trkpt lat="45.597669007256627" lon="4.086820017546415">
        <ele>385.63</ele>
        <time>2025-04-24T13:38:56Z</time>
      </trkpt>
      <trkpt lat="45.597660960629582" lon="4.086708035320044">
        <ele>385.14999999999998</ele>
        <time>2025-04-24T13:38:57Z</time>
      </trkpt>
      <trkpt lat="45.597659032791853" lon="4.086584988981485">
        <ele>385.14999999999998</ele>
        <time>2025-04-24T13:38:58Z</time>
      </trkpt>
      <trkpt lat="45.597632965072989" lon="4.086494967341423">
        <ele>385.14999999999998</ele>
        <time>2025-04-24T13:38:59Z</time>
      </trkpt>
      <trkpt lat="45.597563982009888" lon="4.086419027298689">
        <ele>385.14999999999998</ele>
        <time>2025-04-24T13:39:00Z</time>
      </trkpt>
      <trkpt lat="45.597500028088689" lon="4.086391031742096">
        <ele>385.14999999999998</ele>
        <time>2025-04-24T13:39:01Z</time>
      </trkpt>
      <trkpt lat="45.597438002005219" lon="4.086345015093684">
        <ele>385.14999999999998</ele>
        <time>2025-04-24T13:39:02Z</time>
      </trkpt>
      <trkpt lat="45.597379999235272" lon="4.086280977353454">
        <ele>385.14999999999998</ele>
        <time>2025-04-24T13:39:03Z</time>
      </trkpt>
      <trkpt lat="45.597320990636945" lon="4.086217023432255">
        <ele>385.14999999999998</ele>
        <time>2025-04-24T13:39:04Z</time>
      </trkpt>
      <trkpt lat="45.597259970381856" lon="4.086150974035263">
        <ele>385.14999999999998</ele>
        <time>2025-04-24T13:39:05Z</time>
      </trkpt>
      <trkpt lat="45.597197022289038" lon="4.086046032607555">
        <ele>384.66000000000003</ele>
        <time>2025-04-24T13:39:06Z</time>
      </trkpt>
      <trkpt lat="45.596571983769536" lon="4.08496200107038">
        <ele>384.66000000000003</ele>
        <time>2025-04-24T13:39:15Z</time>
      </trkpt>
      <trkpt lat="45.595716023817658" lon="4.08427401445806">
        <ele>386.11000000000001</ele>
        <time>2025-04-24T13:39:24Z</time>
      </trkpt>
      <trkpt lat="45.594721008092165" lon="4.083760036155582">
        <ele>388.99000000000001</ele>
        <time>2025-04-24T13:39:35Z</time>
      </trkpt>
      <trkpt lat="45.59451699256897" lon="4.083677977323532">
        <ele>389.94999999999999</ele>
        <time>2025-04-24T13:39:42Z</time>
      </trkpt>
      <trkpt lat="45.59434600174427" lon="4.083610000088811">
        <ele>390.91000000000003</ele>
        <time>2025-04-24T13:39:50Z</time>
      </trkpt>
      <trkpt lat="45.594292022287846" lon="4.083438003435731">
        <ele>391.38999999999999</ele>
        <time>2025-04-24T13:39:51Z</time>
      </trkpt>
      <trkpt lat="45.594256985932589" lon="4.083311017602682">
        <ele>391.38999999999999</ele>
        <time>2025-04-24T13:39:53Z</time>
      </trkpt>
      <trkpt lat="45.594170987606049" lon="4.083257960155606">
        <ele>391.38999999999999</ele>
        <time>2025-04-24T13:39:54Z</time>
      </trkpt>
      <trkpt lat="45.594078032299876" lon="4.08324496820569">
        <ele>391.38999999999999</ele>
        <time>2025-04-24T13:39:55Z</time>
      </trkpt>
      <trkpt lat="45.59400200843811" lon="4.083319986239076">
        <ele>390.91000000000003</ele>
        <time>2025-04-24T13:39:56Z</time>
      </trkpt>
      <trkpt lat="45.593969989567995" lon="4.0833739656955">
        <ele>390.91000000000003</ele>
        <time>2025-04-24T13:39:57Z</time>
      </trkpt>
      <trkpt lat="45.593949034810066" lon="4.083502041175962">
        <ele>390.43000000000001</ele>
        <time>2025-04-24T13:39:58Z</time>
      </trkpt>
      <trkpt lat="45.593977030366659" lon="4.083685018122196">
        <ele>390.43000000000001</ele>
        <time>2025-04-24T13:39:59Z</time>
      </trkpt>
      <trkpt lat="45.593882985413074" lon="4.083884004503489">
        <ele>389.47000000000003</ele>
        <time>2025-04-24T13:40:01Z</time>
      </trkpt>
      <trkpt lat="45.59331402182579" lon="4.084948003292084">
        <ele>388.50999999999999</ele>
        <time>2025-04-24T13:40:09Z</time>
      </trkpt>
      <trkpt lat="45.592329986393452" lon="4.086794033646584">
        <ele>388.50999999999999</ele>
        <time>2025-04-24T13:40:20Z</time>
      </trkpt>
      <trkpt lat="45.590977985411882" lon="4.089321009814739">
        <ele>394.27999999999997</ele>
        <time>2025-04-24T13:40:34Z</time>
      </trkpt>
      <trkpt lat="45.590766007080674" lon="4.089726023375988">
        <ele>395.72000000000003</ele>
        <time>2025-04-24T13:40:37Z</time>
      </trkpt>
      <trkpt lat="45.590714039281011" lon="4.089824007824063">
        <ele>395.72000000000003</ele>
        <time>2025-04-24T13:40:38Z</time>
      </trkpt>
      <trkpt lat="45.590611025691032" lon="4.089853009209037">
        <ele>396.19999999999999</ele>
        <time>2025-04-24T13:40:39Z</time>
      </trkpt>
      <trkpt lat="45.590538019314408" lon="4.089832976460457">
        <ele>396.19999999999999</ele>
        <time>2025-04-24T13:40:40Z</time>
      </trkpt>
      <trkpt lat="45.590488985180855" lon="4.089718982577324">
        <ele>396.19999999999999</ele>
        <time>2025-04-24T13:40:41Z</time>
      </trkpt>
      <trkpt lat="45.590439029037952" lon="4.08960398286581">
        <ele>396.68000000000001</ele>
        <time>2025-04-24T13:40:42Z</time>
      </trkpt>
      <trkpt lat="45.590385971590877" lon="4.089480014517903">
        <ele>396.68000000000001</ele>
        <time>2025-04-24T13:40:43Z</time>
      </trkpt>
      <trkpt lat="45.590341966599226" lon="4.089313969016075">
        <ele>397.16000000000003</ele>
        <time>2025-04-24T13:40:44Z</time>
      </trkpt>
      <trkpt lat="45.590337021276355" lon="4.089136021211743">
        <ele>397.16000000000003</ele>
        <time>2025-04-24T13:40:45Z</time>
      </trkpt>
      <trkpt lat="45.590331992134452" lon="4.088943991810083">
        <ele>397.63999999999999</ele>
        <time>2025-04-24T13:40:46Z</time>
      </trkpt>
      <trkpt lat="45.590326962992549" lon="4.088737964630127">
        <ele>399.07999999999998</ele>
        <time>2025-04-24T13:40:47Z</time>
      </trkpt>
      <trkpt lat="45.59032796882093" lon="4.088530009612441">
        <ele>399.56999999999999</ele>
        <time>2025-04-24T13:40:48Z</time>
      </trkpt>
      <trkpt lat="45.590447997674346" lon="4.087192006409168">
        <ele>401.49000000000001</ele>
        <time>2025-04-24T13:40:54Z</time>
      </trkpt>
      <trkpt lat="45.590172987431288" lon="4.085245979949832">
        <ele>402.93000000000001</ele>
        <time>2025-04-24T13:41:02Z</time>
      </trkpt>
      <trkpt lat="45.590028986334801" lon="4.084784975275397">
        <ele>402.44999999999999</ele>
        <time>2025-04-24T13:41:04Z</time>
      </trkpt>
      <trkpt lat="45.589953968301415" lon="4.084547013044357">
        <ele>402.44999999999999</ele>
        <time>2025-04-24T13:41:05Z</time>
      </trkpt>
      <trkpt lat="45.589028019458055" lon="4.082817994058132">
        <ele>399.56999999999999</ele>
        <time>2025-04-24T13:41:13Z</time>
      </trkpt>
      <trkpt lat="45.587784983217716" lon="4.080659989267588">
        <ele>398.12</ele>
        <time>2025-04-24T13:41:23Z</time>
      </trkpt>
      <trkpt lat="45.586603973060846" lon="4.078275002539158">
        <ele>398.60000000000002</ele>
        <time>2025-04-24T13:41:34Z</time>
      </trkpt>
      <trkpt lat="45.585562018677592" lon="4.075606036931276">
        <ele>409.66000000000003</ele>
        <time>2025-04-24T13:41:47Z</time>
      </trkpt>
      <trkpt lat="45.585340987890959" lon="4.074845965951681">
        <ele>413.5</ele>
        <time>2025-04-24T13:41:52Z</time>
      </trkpt>
      <trkpt lat="45.585321038961411" lon="4.074697019532323">
        <ele>413.98000000000002</ele>
        <time>2025-04-24T13:41:53Z</time>
      </trkpt>
      <trkpt lat="45.585301006212831" lon="4.074425026774406">
        <ele>414.47000000000003</ele>
        <time>2025-04-24T13:41:55Z</time>
      </trkpt>
      <trkpt lat="45.585249038413167" lon="4.074240960180759">
        <ele>414.94999999999999</ele>
        <time>2025-04-24T13:41:56Z</time>
      </trkpt>
      <trkpt lat="45.585177037864923" lon="4.074192009866238">
        <ele>415.43000000000001</ele>
        <time>2025-04-24T13:41:57Z</time>
      </trkpt>
      <trkpt lat="45.58506497181952" lon="4.074189998209477">
        <ele>415.91000000000003</ele>
        <time>2025-04-24T13:41:58Z</time>
      </trkpt>
      <trkpt lat="45.585004035383463" lon="4.074142975732684">
        <ele>416.38999999999999</ele>
        <time>2025-04-24T13:41:59Z</time>
      </trkpt>
      <trkpt lat="45.584920970723033" lon="4.074081033468247">
        <ele>416.87</ele>
        <time>2025-04-24T13:42:00Z</time>
      </trkpt>
      <trkpt lat="45.584807982668281" lon="4.073996962979436">
        <ele>417.82999999999998</ele>
        <time>2025-04-24T13:42:01Z</time>
      </trkpt>
      <trkpt lat="45.584733970463276" lon="4.073903001844883">
        <ele>418.79000000000002</ele>
        <time>2025-04-24T13:42:02Z</time>
      </trkpt>
      <trkpt lat="45.58381799608469" lon="4.072634987533093">
        <ele>427.44</ele>
        <time>2025-04-24T13:42:11Z</time>
      </trkpt>
      <trkpt lat="45.582729019224644" lon="4.071182990446687">
        <ele>437.54000000000002</ele>
        <time>2025-04-24T13:42:20Z</time>
      </trkpt>
      <trkpt lat="45.58242199011147" lon="4.070926001295447">
        <ele>439.94</ele>
        <time>2025-04-24T13:42:22Z</time>
      </trkpt>
      <trkpt lat="45.582255022600293" lon="4.070835979655385">
        <ele>440.89999999999998</ele>
        <time>2025-04-24T13:42:23Z</time>
      </trkpt>
      <trkpt lat="45.581413982436061" lon="4.070382015779614">
        <ele>449.55000000000001</ele>
        <time>2025-04-24T13:42:28Z</time>
      </trkpt>
      <trkpt lat="45.581254977732897" lon="4.07028797082603">
        <ele>451.48000000000002</ele>
        <time>2025-04-24T13:42:29Z</time>
      </trkpt>
      <trkpt lat="45.579845979809761" lon="4.069394962862134">
        <ele>464.93000000000001</ele>
        <time>2025-04-24T13:42:38Z</time>
      </trkpt>
      <trkpt lat="45.579718993976712" lon="4.069254985079169">
        <ele>466.38</ele>
        <time>2025-04-24T13:42:39Z</time>
      </trkpt>
      <trkpt lat="45.579045005142689" lon="4.068273967131972">
        <ele>472.13999999999999</ele>
        <time>2025-04-24T13:42:45Z</time>
      </trkpt>
      <trkpt lat="45.578963030129671" lon="4.068067017942667">
        <ele>473.11000000000001</ele>
        <time>2025-04-24T13:42:46Z</time>
      </trkpt>
      <trkpt lat="45.578892035409808" lon="4.067849004641175">
        <ele>474.06999999999999</ele>
        <time>2025-04-24T13:42:47Z</time>
      </trkpt>
      <trkpt lat="45.578609984368086" lon="4.06697602942586">
        <ele>476.94999999999999</ele>
        <time>2025-04-24T13:42:51Z</time>
      </trkpt>
      <trkpt lat="45.578409992158413" lon="4.066318972036243">
        <ele>478.87</ele>
        <time>2025-04-24T13:42:54Z</time>
      </trkpt>
      <trkpt lat="45.578363975510001" lon="4.066077992320061">
        <ele>479.83999999999997</ele>
        <time>2025-04-24T13:42:55Z</time>
      </trkpt>
      <trkpt lat="45.578347966074944" lon="4.065832989290357">
        <ele>480.80000000000001</ele>
        <time>2025-04-24T13:42:56Z</time>
      </trkpt>
      <trkpt lat="45.578332040458918" lon="4.06558396294713">
        <ele>481.75999999999999</ele>
        <time>2025-04-24T13:42:57Z</time>
      </trkpt>
      <trkpt lat="45.578366992995143" lon="4.065312976017594">
        <ele>483.19999999999999</ele>
        <time>2025-04-24T13:42:58Z</time>
      </trkpt>
      <trkpt lat="45.578438993543386" lon="4.065063027665019">
        <ele>484.16000000000003</ele>
        <time>2025-04-24T13:42:59Z</time>
      </trkpt>
      <trkpt lat="45.57853396050632" lon="4.06483001075685">
        <ele>485.60000000000002</ele>
        <time>2025-04-24T13:43:00Z</time>
      </trkpt>
      <trkpt lat="45.578892035409808" lon="4.063923005014658">
        <ele>490.88999999999999</ele>
        <time>2025-04-24T13:43:04Z</time>
      </trkpt>
      <trkpt lat="45.579036036506295" lon="4.063225965946913">
        <ele>494.74000000000001</ele>
        <time>2025-04-24T13:43:07Z</time>
      </trkpt>
      <trkpt lat="45.579036036506295" lon="4.063011975958943">
        <ele>496.18000000000001</ele>
        <time>2025-04-24T13:43:08Z</time>
      </trkpt>
      <trkpt lat="45.578993037343025" lon="4.062818018719554">
        <ele>497.13999999999999</ele>
        <time>2025-04-24T13:43:09Z</time>
      </trkpt>
      <trkpt lat="45.578923970460892" lon="4.062608974054456">
        <ele>498.10000000000002</ele>
        <time>2025-04-24T13:43:10Z</time>
      </trkpt>
      <trkpt lat="45.578864039853215" lon="4.062431026250124">
        <ele>499.06</ele>
        <time>2025-04-24T13:43:11Z</time>
      </trkpt>
      <trkpt lat="45.57872598990798" lon="4.062327006831765">
        <ele>500.01999999999998</ele>
        <time>2025-04-24T13:43:12Z</time>
      </trkpt>
      <trkpt lat="45.578605039045215" lon="4.062237991020083">
        <ele>500.98000000000002</ele>
        <time>2025-04-24T13:43:13Z</time>
      </trkpt>
      <trkpt lat="45.578452991321683" lon="4.062230028212071">
        <ele>501.45999999999998</ele>
        <time>2025-04-24T13:43:14Z</time>
      </trkpt>
      <trkpt lat="45.57829599827528" lon="4.062220975756645">
        <ele>502.43000000000001</ele>
        <time>2025-04-24T13:43:15Z</time>
      </trkpt>
      <trkpt lat="45.578126013278961" lon="4.062192980200052">
        <ele>503.87</ele>
        <time>2025-04-24T13:43:16Z</time>
      </trkpt>
      <trkpt lat="45.577944964170456" lon="4.062135983258486">
        <ele>504.82999999999998</ele>
        <time>2025-04-24T13:43:17Z</time>
      </trkpt>
      <trkpt lat="45.57775997556746" lon="4.062076974660158">
        <ele>505.79000000000002</ele>
        <time>2025-04-24T13:43:18Z</time>
      </trkpt>
      <trkpt lat="45.577567024156451" lon="4.062089966610074">
        <ele>507.23000000000002</ele>
        <time>2025-04-24T13:43:19Z</time>
      </trkpt>
      <trkpt lat="45.577365020290017" lon="4.062119973823428">
        <ele>508.67000000000002</ele>
        <time>2025-04-24T13:43:20Z</time>
      </trkpt>
      <trkpt lat="45.577158993110061" lon="4.062149981036782">
        <ele>509.63999999999999</ele>
        <time>2025-04-24T13:43:21Z</time>
      </trkpt>
      <trkpt lat="45.576948020607233" lon="4.062164984643459">
        <ele>511.07999999999998</ele>
        <time>2025-04-24T13:43:22Z</time>
      </trkpt>
      <trkpt lat="45.576735036447644" lon="4.062178982421756">
        <ele>512.51999999999998</ele>
        <time>2025-04-24T13:43:23Z</time>
      </trkpt>
      <trkpt lat="45.576518028974533" lon="4.062193986028433">
        <ele>513.96000000000004</ele>
        <time>2025-04-24T13:43:24Z</time>
      </trkpt>
      <trkpt lat="45.576307978481054" lon="4.062207983806729">
        <ele>515.39999999999998</ele>
        <time>2025-04-24T13:43:25Z</time>
      </trkpt>
      <trkpt lat="45.576101029291749" lon="4.062200020998716">
        <ele>516.37</ele>
        <time>2025-04-24T13:43:26Z</time>
      </trkpt>
      <trkpt lat="45.574535960331559" lon="4.06182199716568">
        <ele>527.89999999999998</ele>
        <time>2025-04-24T13:43:34Z</time>
      </trkpt>
      <trkpt lat="45.574176041409373" lon="4.061737004667521">
        <ele>530.78999999999996</ele>
        <time>2025-04-24T13:43:36Z</time>
      </trkpt>
      <trkpt lat="45.573992980644107" lon="4.061657963320613">
        <ele>531.75</ele>
        <time>2025-04-24T13:43:37Z</time>
      </trkpt>
      <trkpt lat="45.573850991204381" lon="4.06154103577137">
        <ele>533.19000000000005</ele>
        <time>2025-04-24T13:43:38Z</time>
      </trkpt>
      <trkpt lat="45.572898974642158" lon="4.060756992548704">
        <ele>540.88</ele>
        <time>2025-04-24T13:43:45Z</time>
      </trkpt>
      <trkpt lat="45.572782969102263" lon="4.060592958703637">
        <ele>541.84000000000003</ele>
        <time>2025-04-24T13:43:46Z</time>
      </trkpt>
      <trkpt lat="45.572670986875892" lon="4.060433031991124">
        <ele>542.32000000000005</ele>
        <time>2025-04-24T13:43:47Z</time>
      </trkpt>
      <trkpt lat="45.572246024385095" lon="4.059830959886313">
        <ele>546.16999999999996</ele>
        <time>2025-04-24T13:43:51Z</time>
      </trkpt>
      <trkpt lat="45.572185004130006" lon="4.059667009860277">
        <ele>547.13</ele>
        <time>2025-04-24T13:43:52Z</time>
      </trkpt>
      <trkpt lat="45.572143010795116" lon="4.05947900377214">
        <ele>548.09000000000003</ele>
        <time>2025-04-24T13:43:53Z</time>
      </trkpt>
      <trkpt lat="45.572130018845201" lon="4.059281023219228">
        <ele>548.57000000000005</ele>
        <time>2025-04-24T13:43:54Z</time>
      </trkpt>
      <trkpt lat="45.572117026895285" lon="4.059094022959471">
        <ele>549.52999999999997</ele>
        <time>2025-04-24T13:43:55Z</time>
      </trkpt>
      <trkpt lat="45.572103029116988" lon="4.05890098772943">
        <ele>550.00999999999999</ele>
        <time>2025-04-24T13:43:56Z</time>
      </trkpt>
      <trkpt lat="45.57206598110497" lon="4.058714993298054">
        <ele>550.97000000000003</ele>
        <time>2025-04-24T13:43:57Z</time>
      </trkpt>
      <trkpt lat="45.57200001552701" lon="4.058510977774859">
        <ele>551.45000000000005</ele>
        <time>2025-04-24T13:43:58Z</time>
      </trkpt>
      <trkpt lat="45.571900019422174" lon="4.058316014707089">
        <ele>552.40999999999997</ele>
        <time>2025-04-24T13:43:59Z</time>
      </trkpt>
      <trkpt lat="45.571790970861912" lon="4.058101018890739">
        <ele>552.89999999999998</ele>
        <time>2025-04-24T13:44:00Z</time>
      </trkpt>
      <trkpt lat="45.571672031655908" lon="4.057870013639331">
        <ele>553.38</ele>
        <time>2025-04-24T13:44:01Z</time>
      </trkpt>
      <trkpt lat="45.571556026116014" lon="4.057616963982582">
        <ele>554.34000000000003</ele>
        <time>2025-04-24T13:44:02Z</time>
      </trkpt>
      <trkpt lat="45.57148402556777" lon="4.057328961789608">
        <ele>555.29999999999995</ele>
        <time>2025-04-24T13:44:03Z</time>
      </trkpt>
      <trkpt lat="45.571412025019526" lon="4.057040037587285">
        <ele>556.25999999999999</ele>
        <time>2025-04-24T13:44:04Z</time>
      </trkpt>
      <trkpt lat="45.570775000378489" lon="4.054964007809758">
        <ele>566.83000000000004</ele>
        <time>2025-04-24T13:44:12Z</time>
      </trkpt>
      <trkpt lat="45.570750022307038" lon="4.054686985909939">
        <ele>567.32000000000005</ele>
        <time>2025-04-24T13:44:13Z</time>
      </trkpt>
      <trkpt lat="45.570725966244936" lon="4.054415998980403">
        <ele>568.75999999999999</ele>
        <time>2025-04-24T13:44:14Z</time>
      </trkpt>
      <trkpt lat="45.57071196846664" lon="4.054143000394106">
        <ele>569.72000000000003</ele>
        <time>2025-04-24T13:44:15Z</time>
      </trkpt>
      <trkpt lat="45.570719009265304" lon="4.053861033171415">
        <ele>570.67999999999995</ele>
        <time>2025-04-24T13:44:16Z</time>
      </trkpt>
      <trkpt lat="45.570787992328405" lon="4.053014041855931">
        <ele>572.60000000000002</ele>
        <time>2025-04-24T13:44:19Z</time>
      </trkpt>
      <trkpt lat="45.570851024240255" lon="4.052749006077647">
        <ele>572.60000000000002</ele>
        <time>2025-04-24T13:44:20Z</time>
      </trkpt>
      <trkpt lat="45.570935010910034" lon="4.052504003047943">
        <ele>573.08000000000004</ele>
        <time>2025-04-24T13:44:21Z</time>
      </trkpt>
      <trkpt lat="45.571326026692986" lon="4.051580987870693">
        <ele>574.52999999999997</ele>
        <time>2025-04-24T13:44:25Z</time>
      </trkpt>
      <trkpt lat="45.571536999195814" lon="4.050871962681413">
        <ele>575.00999999999999</ele>
        <time>2025-04-24T13:44:28Z</time>
      </trkpt>
      <trkpt lat="45.571589972823858" lon="4.050694014877081">
        <ele>575.00999999999999</ele>
        <time>2025-04-24T13:44:29Z</time>
      </trkpt>
      <trkpt lat="45.571710001677275" lon="4.050573986023665">
        <ele>575.49000000000001</ele>
        <time>2025-04-24T13:44:30Z</time>
      </trkpt>
      <trkpt lat="45.571817038580775" lon="4.050474995747209">
        <ele>575.49000000000001</ele>
        <time>2025-04-24T13:44:31Z</time>
      </trkpt>
      <trkpt lat="45.571940001100302" lon="4.050438031554222">
        <ele>575.49000000000001</ele>
        <time>2025-04-24T13:44:32Z</time>
      </trkpt>
      <trkpt lat="45.572076039388776" lon="4.050397966057062">
        <ele>575.49000000000001</ele>
        <time>2025-04-24T13:44:33Z</time>
      </trkpt>
      <trkpt lat="45.572234038263559" lon="4.050350021570921">
        <ele>575.97000000000003</ele>
        <time>2025-04-24T13:44:34Z</time>
      </trkpt>
      <trkpt lat="45.572380973026156" lon="4.050252037122846">
        <ele>575.97000000000003</ele>
        <time>2025-04-24T13:44:35Z</time>
      </trkpt>
      <trkpt lat="45.572520028799772" lon="4.050107030197978">
        <ele>575.97000000000003</ele>
        <time>2025-04-24T13:44:36Z</time>
      </trkpt>
      <trkpt lat="45.572652965784073" lon="4.049942996352911">
        <ele>575.97000000000003</ele>
        <time>2025-04-24T13:44:37Z</time>
      </trkpt>
      <trkpt lat="45.572765031829476" lon="4.049752978608012">
        <ele>575.97000000000003</ele>
        <time>2025-04-24T13:44:38Z</time>
      </trkpt>
      <trkpt lat="45.572854969650507" lon="4.049562038853765">
        <ele>575.97000000000003</ele>
        <time>2025-04-24T13:44:39Z</time>
      </trkpt>
      <trkpt lat="45.57296703569591" lon="4.049423988908529">
        <ele>575.97000000000003</ele>
        <time>2025-04-24T13:44:40Z</time>
      </trkpt>
      <trkpt lat="45.573105001822114" lon="4.04935902915895">
        <ele>576.45000000000005</ele>
        <time>2025-04-24T13:44:41Z</time>
      </trkpt>
      <trkpt lat="45.573255037888885" lon="4.049349976703525">
        <ele>576.92999999999995</ele>
        <time>2025-04-24T13:44:42Z</time>
      </trkpt>
      <trkpt lat="45.573422005400062" lon="4.049340002238751">
        <ele>577.40999999999997</ele>
        <time>2025-04-24T13:44:43Z</time>
      </trkpt>
      <trkpt lat="45.573597019538283" lon="4.049330027773976">
        <ele>577.88999999999999</ele>
        <time>2025-04-24T13:44:44Z</time>
      </trkpt>
      <trkpt lat="45.573773039504886" lon="4.04931602999568">
        <ele>578.37</ele>
        <time>2025-04-24T13:44:45Z</time>
      </trkpt>
      <trkpt lat="45.573947969824076" lon="4.049262972548604">
        <ele>578.85000000000002</ele>
        <time>2025-04-24T13:44:46Z</time>
      </trkpt>
      <trkpt lat="45.574306966736913" lon="4.049184015020728">
        <ele>580.28999999999996</ele>
        <time>2025-04-24T13:44:48Z</time>
      </trkpt>
      <trkpt lat="45.574488015845418" lon="4.049173034727573">
        <ele>581.25</ele>
        <time>2025-04-24T13:44:49Z</time>
      </trkpt>
      <trkpt lat="45.574660012498498" lon="4.049162976443768">
        <ele>581.73000000000002</ele>
        <time>2025-04-24T13:44:50Z</time>
      </trkpt>
      <trkpt lat="45.574962012469769" lon="4.049106985330582">
        <ele>583.17999999999995</ele>
        <time>2025-04-24T13:44:52Z</time>
      </trkpt>
      <trkpt lat="45.575088998302817" lon="4.049029033631086">
        <ele>584.13999999999999</ele>
        <time>2025-04-24T13:44:53Z</time>
      </trkpt>
      <trkpt lat="45.575192011892796" lon="4.048921996727586">
        <ele>584.62</ele>
        <time>2025-04-24T13:44:54Z</time>
      </trkpt>
      <trkpt lat="45.575240040197968" lon="4.048756035044789">
        <ele>584.62</ele>
        <time>2025-04-24T13:44:55Z</time>
      </trkpt>
      <trkpt lat="45.575258983299136" lon="4.048547996208072">
        <ele>585.10000000000002</ele>
        <time>2025-04-24T13:44:56Z</time>
      </trkpt>
      <trkpt lat="45.575229981914163" lon="4.048337023705244">
        <ele>585.58000000000004</ele>
        <time>2025-04-24T13:44:57Z</time>
      </trkpt>
      <trkpt lat="45.575197963044047" lon="4.048097971826792">
        <ele>586.05999999999995</ele>
        <time>2025-04-24T13:44:58Z</time>
      </trkpt>
      <trkpt lat="45.57503099553287" lon="4.046510020270944">
        <ele>588.95000000000005</ele>
        <time>2025-04-24T13:45:04Z</time>
      </trkpt>
      <trkpt lat="45.575024038553238" lon="4.046272980049253">
        <ele>589.42999999999995</ele>
        <time>2025-04-24T13:45:05Z</time>
      </trkpt>
      <trkpt lat="45.575081035494804" lon="4.046070976182818">
        <ele>589.90999999999997</ele>
        <time>2025-04-24T13:45:06Z</time>
      </trkpt>
      <trkpt lat="45.575168039649725" lon="4.045910965651274">
        <ele>590.38999999999999</ele>
        <time>2025-04-24T13:45:07Z</time>
      </trkpt>
      <trkpt lat="45.575283961370587" lon="4.045797977596521">
        <ele>591.35000000000002</ele>
        <time>2025-04-24T13:45:08Z</time>
      </trkpt>
      <trkpt lat="45.575407007709146" lon="4.045713990926743">
        <ele>591.83000000000004</ele>
        <time>2025-04-24T13:45:09Z</time>
      </trkpt>
      <trkpt lat="45.575527036562562" lon="4.045632015913725">
        <ele>592.30999999999995</ele>
        <time>2025-04-24T13:45:10Z</time>
      </trkpt>
      <trkpt lat="45.575641030445695" lon="4.045522967353463">
        <ele>593.26999999999998</ele>
        <time>2025-04-24T13:45:11Z</time>
      </trkpt>
      <trkpt lat="45.575711019337177" lon="4.045332027599216">
        <ele>593.75</ele>
        <time>2025-04-24T13:45:12Z</time>
      </trkpt>
      <trkpt lat="45.575720993801951" lon="4.045118037611246">
        <ele>594.23000000000002</ele>
        <time>2025-04-24T13:45:13Z</time>
      </trkpt>
      <trkpt lat="45.575731974095106" lon="4.044880997389555">
        <ele>595.19000000000005</ele>
        <time>2025-04-24T13:45:14Z</time>
      </trkpt>
      <trkpt lat="45.575791988521814" lon="4.043620023876429">
        <ele>599.51999999999998</ele>
        <time>2025-04-24T13:45:19Z</time>
      </trkpt>
      <trkpt lat="45.575849991291761" lon="4.04341097921133">
        <ele>600.48000000000002</ele>
        <time>2025-04-24T13:45:20Z</time>
      </trkpt>
      <trkpt lat="45.575920986011624" lon="4.043229008093476">
        <ele>601.91999999999996</ele>
        <time>2025-04-24T13:45:21Z</time>
      </trkpt>
      <trkpt lat="45.575984017923474" lon="4.043067991733551">
        <ele>602.88</ele>
        <time>2025-04-24T13:45:22Z</time>
      </trkpt>
      <trkpt lat="45.576028022915125" lon="4.042900018393993">
        <ele>603.85000000000002</ele>
        <time>2025-04-24T13:45:23Z</time>
      </trkpt>
      <trkpt lat="45.576013019308448" lon="4.042720980942249">
        <ele>604.80999999999995</ele>
        <time>2025-04-24T13:45:24Z</time>
      </trkpt>
      <trkpt lat="45.575949987396598" lon="4.042536998167634">
        <ele>605.76999999999998</ele>
        <time>2025-04-24T13:45:25Z</time>
      </trkpt>
      <trkpt lat="45.575869018211961" lon="4.042328959330916">
        <ele>606.73000000000002</ele>
        <time>2025-04-24T13:45:26Z</time>
      </trkpt>
      <trkpt lat="45.575677994638681" lon="4.041919000446796">
        <ele>608.16999999999996</ele>
        <time>2025-04-24T13:45:28Z</time>
      </trkpt>
      <trkpt lat="45.575543968006968" lon="4.041729988530278">
        <ele>609.13</ele>
        <time>2025-04-24T13:45:29Z</time>
      </trkpt>
      <trkpt lat="45.575377000495791" lon="4.041594034060836">
        <ele>610.09000000000003</ele>
        <time>2025-04-24T13:45:30Z</time>
      </trkpt>
      <trkpt lat="45.57466596364975" lon="4.041108973324299">
        <ele>613.94000000000005</ele>
        <time>2025-04-24T13:45:34Z</time>
      </trkpt>
      <trkpt lat="45.574504025280476" lon="4.040973018854857">
        <ele>614.41999999999996</ele>
        <time>2025-04-24T13:45:35Z</time>
      </trkpt>
      <trkpt lat="45.574378967285156" lon="4.040762968361378">
        <ele>615.38</ele>
        <time>2025-04-24T13:45:36Z</time>
      </trkpt>
      <trkpt lat="45.573619985952973" lon="4.039492020383477">
        <ele>621.63</ele>
        <time>2025-04-24T13:45:42Z</time>
      </trkpt>
      <trkpt lat="45.573529964312911" lon="4.039279036223888">
        <ele>623.07000000000005</ele>
        <time>2025-04-24T13:45:43Z</time>
      </trkpt>
      <trkpt lat="45.573477996513247" lon="4.039056999608874">
        <ele>623.54999999999995</ele>
        <time>2025-04-24T13:45:44Z</time>
      </trkpt>
      <trkpt lat="45.573477996513247" lon="4.038891959935427">
        <ele>624.50999999999999</ele>
        <time>2025-04-24T13:45:45Z</time>
      </trkpt>
      <trkpt lat="45.573563994839787" lon="4.03870596550405">
        <ele>625.47000000000003</ele>
        <time>2025-04-24T13:45:46Z</time>
      </trkpt>
      <trkpt lat="45.573643958196044" lon="4.038589959964156">
        <ele>626.44000000000005</ele>
        <time>2025-04-24T13:45:47Z</time>
      </trkpt>
      <trkpt lat="45.573759963735938" lon="4.038517959415913">
        <ele>627.39999999999998</ele>
        <time>2025-04-24T13:45:48Z</time>
      </trkpt>
      <trkpt lat="45.573882004246116" lon="4.03844403102994">
        <ele>628.36000000000001</ele>
        <time>2025-04-24T13:45:49Z</time>
      </trkpt>
      <trkpt lat="45.573958028107882" lon="4.038310004398227">
        <ele>628.84000000000003</ele>
        <time>2025-04-24T13:45:50Z</time>
      </trkpt>
      <trkpt lat="45.574017958715558" lon="4.038170026615262">
        <ele>628.84000000000003</ele>
        <time>2025-04-24T13:45:51Z</time>
      </trkpt>
      <trkpt lat="45.574034973978996" lon="4.037984032183886">
        <ele>629.79999999999995</ele>
        <time>2025-04-24T13:45:52Z</time>
      </trkpt>
      <trkpt lat="45.574009995907545" lon="4.037770964205265">
        <ele>630.27999999999997</ele>
        <time>2025-04-24T13:45:53Z</time>
      </trkpt>
      <trkpt lat="45.573982000350952" lon="4.037540964782238">
        <ele>630.75999999999999</ele>
        <time>2025-04-24T13:45:54Z</time>
      </trkpt>
      <trkpt lat="45.573954004794359" lon="4.037311971187592">
        <ele>631.72000000000003</ele>
        <time>2025-04-24T13:45:55Z</time>
      </trkpt>
      <trkpt lat="45.573988035321236" lon="4.037064034491777">
        <ele>632.67999999999995</ele>
        <time>2025-04-24T13:45:56Z</time>
      </trkpt>
      <trkpt lat="45.574031034484506" lon="4.036810984835029">
        <ele>633.64999999999998</ele>
        <time>2025-04-24T13:45:57Z</time>
      </trkpt>
      <trkpt lat="45.574075961485505" lon="4.036551984027028">
        <ele>634.61000000000001</ele>
        <time>2025-04-24T13:45:58Z</time>
      </trkpt>
      <trkpt lat="45.574229015037417" lon="4.035440962761641">
        <ele>638.45000000000005</ele>
        <time>2025-04-24T13:46:02Z</time>
      </trkpt>
      <trkpt lat="45.574198001995683" lon="4.03517902828753">
        <ele>639.40999999999997</ele>
        <time>2025-04-24T13:46:03Z</time>
      </trkpt>
      <trkpt lat="45.574165983125567" lon="4.034912986680865">
        <ele>640.38</ele>
        <time>2025-04-24T13:46:04Z</time>
      </trkpt>
      <trkpt lat="45.574065987020731" lon="4.034673012793064">
        <ele>641.34000000000003</ele>
        <time>2025-04-24T13:46:05Z</time>
      </trkpt>
      <trkpt lat="45.57395601645112" lon="4.034419963136315">
        <ele>642.77999999999997</ele>
        <time>2025-04-24T13:46:06Z</time>
      </trkpt>
      <trkpt lat="45.573843028396368" lon="4.034161968156695">
        <ele>643.25999999999999</ele>
        <time>2025-04-24T13:46:07Z</time>
      </trkpt>
      <trkpt lat="45.573241040110588" lon="4.032631013542414">
        <ele>649.02999999999997</ele>
        <time>2025-04-24T13:46:13Z</time>
      </trkpt>
      <trkpt lat="45.57320399209857" lon="4.032378969714046">
        <ele>649.99000000000001</ele>
        <time>2025-04-24T13:46:14Z</time>
      </trkpt>
      <trkpt lat="45.573179014027119" lon="4.032114017754793">
        <ele>651.42999999999995</ele>
        <time>2025-04-24T13:46:15Z</time>
      </trkpt>
      <trkpt lat="45.573157975450158" lon="4.03184998780489">
        <ele>652.38999999999999</ele>
        <time>2025-04-24T13:46:16Z</time>
      </trkpt>
      <trkpt lat="45.573172979056835" lon="4.03159199282527">
        <ele>653.35000000000002</ele>
        <time>2025-04-24T13:46:17Z</time>
      </trkpt>
      <trkpt lat="45.573241962119937" lon="4.030373012647033">
        <ele>657.67999999999995</ele>
        <time>2025-04-24T13:46:22Z</time>
      </trkpt>
      <trkpt lat="45.573198962956667" lon="4.030142007395625">
        <ele>658.63999999999999</ele>
        <time>2025-04-24T13:46:23Z</time>
      </trkpt>
      <trkpt lat="45.572941973805428" lon="4.028850020840764">
        <ele>662.97000000000003</ele>
        <time>2025-04-24T13:46:28Z</time>
      </trkpt>
      <trkpt lat="45.572838960215449" lon="4.028657991439104">
        <ele>663.92999999999995</ele>
        <time>2025-04-24T13:46:29Z</time>
      </trkpt>
      <trkpt lat="45.572577025741339" lon="4.028099002316594">
        <ele>667.76999999999998</ele>
        <time>2025-04-24T13:46:32Z</time>
      </trkpt>
      <trkpt lat="45.572546012699604" lon="4.027866991236806">
        <ele>668.73000000000002</ele>
        <time>2025-04-24T13:46:33Z</time>
      </trkpt>
      <trkpt lat="45.57253897190094" lon="4.027641015127301">
        <ele>669.22000000000003</ele>
        <time>2025-04-24T13:46:34Z</time>
      </trkpt>
      <trkpt lat="45.572557998821139" lon="4.027118990197778">
        <ele>670.65999999999997</ele>
        <time>2025-04-24T13:46:36Z</time>
      </trkpt>
      <trkpt lat="45.572567973285913" lon="4.026840040460229">
        <ele>671.13999999999999</ele>
        <time>2025-04-24T13:46:37Z</time>
      </trkpt>
      <trkpt lat="45.572583982720971" lon="4.026558995246887">
        <ele>672.10000000000002</ele>
        <time>2025-04-24T13:46:38Z</time>
      </trkpt>
      <trkpt lat="45.572637962177396" lon="4.026281973347068">
        <ele>673.05999999999995</ele>
        <time>2025-04-24T13:46:39Z</time>
      </trkpt>
      <trkpt lat="45.572695964947343" lon="4.026000006124377">
        <ele>673.53999999999996</ele>
        <time>2025-04-24T13:46:40Z</time>
      </trkpt>
      <trkpt lat="45.57320499792695" lon="4.024209966883063">
        <ele>680.26999999999998</ele>
        <time>2025-04-24T13:46:47Z</time>
      </trkpt>
      <trkpt lat="45.573221007362008" lon="4.023978961631656">
        <ele>681.71000000000004</ele>
        <time>2025-04-24T13:46:48Z</time>
      </trkpt>
      <trkpt lat="45.573191000148654" lon="4.023766983300448">
        <ele>682.19000000000005</ele>
        <time>2025-04-24T13:46:49Z</time>
      </trkpt>
      <trkpt lat="45.57311899960041" lon="4.023546958342195">
        <ele>683.14999999999998</ele>
        <time>2025-04-24T13:46:50Z</time>
      </trkpt>
      <trkpt lat="45.573015986010432" lon="4.023316036909819">
        <ele>684.12</ele>
        <time>2025-04-24T13:46:51Z</time>
      </trkpt>
      <trkpt lat="45.572907021269202" lon="4.023072961717844">
        <ele>684.60000000000002</ele>
        <time>2025-04-24T13:46:52Z</time>
      </trkpt>
      <trkpt lat="45.572698982432485" lon="4.022628972306848">
        <ele>686.03999999999996</ele>
        <time>2025-04-24T13:46:54Z</time>
      </trkpt>
      <trkpt lat="45.572574008256197" lon="4.022449012845755">
        <ele>686.51999999999998</ele>
        <time>2025-04-24T13:46:55Z</time>
      </trkpt>
      <trkpt lat="45.572413997724652" lon="4.022310962900519">
        <ele>687.48000000000002</ele>
        <time>2025-04-24T13:46:56Z</time>
      </trkpt>
      <trkpt lat="45.572224985808134" lon="4.02222597040236">
        <ele>688.44000000000005</ele>
        <time>2025-04-24T13:46:57Z</time>
      </trkpt>
      <trkpt lat="45.572032034397125" lon="4.022166961804032">
        <ele>688.91999999999996</ele>
        <time>2025-04-24T13:46:58Z</time>
      </trkpt>
      <trkpt lat="45.571627020835876" lon="4.022016003727913">
        <ele>690.36000000000001</ele>
        <time>2025-04-24T13:47:00Z</time>
      </trkpt>
      <trkpt lat="45.571430968120694" lon="4.021903015673161">
        <ele>691.33000000000004</ele>
        <time>2025-04-24T13:47:01Z</time>
      </trkpt>
      <trkpt lat="45.571051016449928" lon="4.021568996831775">
        <ele>693.73000000000002</ele>
        <time>2025-04-24T13:47:03Z</time>
      </trkpt>
      <trkpt lat="45.570146022364497" lon="4.020647993311286">
        <ele>699.01999999999998</ele>
        <time>2025-04-24T13:47:08Z</time>
      </trkpt>
      <trkpt lat="45.570014007389545" lon="4.020467028021812">
        <ele>699.98000000000002</ele>
        <time>2025-04-24T13:47:09Z</time>
      </trkpt>
      <trkpt lat="45.569918034598231" lon="4.02022697031498">
        <ele>700.46000000000004</ele>
        <time>2025-04-24T13:47:10Z</time>
      </trkpt>
      <trkpt lat="45.569856008514762" lon="4.019985990598798">
        <ele>701.41999999999996</ele>
        <time>2025-04-24T13:47:11Z</time>
      </trkpt>
      <trkpt lat="45.569818960502744" lon="4.019708968698978">
        <ele>702.38</ele>
        <time>2025-04-24T13:47:12Z</time>
      </trkpt>
      <trkpt lat="45.569776967167854" lon="4.019423983991146">
        <ele>702.86000000000001</ele>
        <time>2025-04-24T13:47:13Z</time>
      </trkpt>
      <trkpt lat="45.569721981883049" lon="4.019159032031894">
        <ele>703.34000000000003</ele>
        <time>2025-04-24T13:47:14Z</time>
      </trkpt>
      <trkpt lat="45.569669008255005" lon="4.018905982375145">
        <ele>704.29999999999995</ele>
        <time>2025-04-24T13:47:15Z</time>
      </trkpt>
      <trkpt lat="45.569436997175217" lon="4.01779999025166">
        <ele>709.59000000000003</ele>
        <time>2025-04-24T13:47:20Z</time>
      </trkpt>
      <trkpt lat="45.56944202631712" lon="4.017566973343492">
        <ele>710.54999999999995</ele>
        <time>2025-04-24T13:47:21Z</time>
      </trkpt>
      <trkpt lat="45.569470021873713" lon="4.017330016940832">
        <ele>711.50999999999999</ele>
        <time>2025-04-24T13:47:22Z</time>
      </trkpt>
      <trkpt lat="45.569559037685394" lon="4.016562988981605">
        <ele>715.36000000000001</ele>
        <time>2025-04-24T13:47:25Z</time>
      </trkpt>
      <trkpt lat="45.56989498436451" lon="4.015288017690182">
        <ele>720.64999999999998</ele>
        <time>2025-04-24T13:47:30Z</time>
      </trkpt>
      <trkpt lat="45.569911999627948" lon="4.015053994953632">
        <ele>721.13</ele>
        <time>2025-04-24T13:47:31Z</time>
      </trkpt>
      <trkpt lat="45.569876041263342" lon="4.014857020229101">
        <ele>722.09000000000003</ele>
        <time>2025-04-24T13:47:32Z</time>
      </trkpt>
      <trkpt lat="45.569807980209589" lon="4.014635989442468">
        <ele>723.52999999999997</ele>
        <time>2025-04-24T13:47:33Z</time>
      </trkpt>
      <trkpt lat="45.569738997146487" lon="4.014412024989724">
        <ele>724.97000000000003</ele>
        <time>2025-04-24T13:47:34Z</time>
      </trkpt>
      <trkpt lat="45.569671019911766" lon="4.014192000031471">
        <ele>725.92999999999995</ele>
        <time>2025-04-24T13:47:35Z</time>
      </trkpt>
      <trkpt lat="45.569639001041651" lon="4.013938028365374">
        <ele>727.37</ele>
        <time>2025-04-24T13:47:36Z</time>
      </trkpt>
      <trkpt lat="45.5696140229702" lon="4.013670980930328">
        <ele>728.34000000000003</ele>
        <time>2025-04-24T13:47:37Z</time>
      </trkpt>
      <trkpt lat="45.569578986614943" lon="4.01309497654438">
        <ele>730.25999999999999</ele>
        <time>2025-04-24T13:47:39Z</time>
      </trkpt>
      <trkpt lat="45.569560965523124" lon="4.012794988229871">
        <ele>731.70000000000005</ele>
        <time>2025-04-24T13:47:40Z</time>
      </trkpt>
      <trkpt lat="45.569543028250337" lon="4.012501034885645">
        <ele>732.65999999999997</ele>
        <time>2025-04-24T13:47:41Z</time>
      </trkpt>
      <trkpt lat="45.569547973573208" lon="4.012188976630569">
        <ele>734.58000000000004</ele>
        <time>2025-04-24T13:47:42Z</time>
      </trkpt>
      <trkpt lat="45.569602958858013" lon="4.011899968609214">
        <ele>736.02999999999997</ele>
        <time>2025-04-24T13:47:43Z</time>
      </trkpt>
      <trkpt lat="45.569655010476708" lon="4.011624036356807">
        <ele>736.99000000000001</ele>
        <time>2025-04-24T13:47:44Z</time>
      </trkpt>
      <trkpt lat="45.569735979661345" lon="4.011369980871677">
        <ele>737.95000000000005</ele>
        <time>2025-04-24T13:47:45Z</time>
      </trkpt>
      <trkpt lat="45.569863971322775" lon="4.011161020025611">
        <ele>738.90999999999997</ele>
        <time>2025-04-24T13:47:46Z</time>
      </trkpt>
      <trkpt lat="45.570021970197558" lon="4.011017018929124">
        <ele>739.87</ele>
        <time>2025-04-24T13:47:47Z</time>
      </trkpt>
      <trkpt lat="45.570187009871006" lon="4.010864971205592">
        <ele>740.83000000000004</ele>
        <time>2025-04-24T13:47:48Z</time>
      </trkpt>
      <trkpt lat="45.570817999541759" lon="4.010288966819644">
        <ele>745.63999999999999</ele>
        <time>2025-04-24T13:47:52Z</time>
      </trkpt>
      <trkpt lat="45.570940040051937" lon="4.010076988488436">
        <ele>747.08000000000004</ele>
        <time>2025-04-24T13:47:53Z</time>
      </trkpt>
      <trkpt lat="45.571397021412849" lon="4.009217005223036">
        <ele>751.88999999999999</ele>
        <time>2025-04-24T13:47:57Z</time>
      </trkpt>
      <trkpt lat="45.571481008082628" lon="4.008958004415035">
        <ele>753.33000000000004</ele>
        <time>2025-04-24T13:47:58Z</time>
      </trkpt>
      <trkpt lat="45.57152995839715" lon="4.008680982515216">
        <ele>754.28999999999996</ele>
        <time>2025-04-24T13:47:59Z</time>
      </trkpt>
      <trkpt lat="45.571567006409168" lon="4.008427010849118">
        <ele>755.73000000000002</ele>
        <time>2025-04-24T13:48:00Z</time>
      </trkpt>
      <trkpt lat="45.571556026116014" lon="4.008165998384357">
        <ele>757.17999999999995</ele>
        <time>2025-04-24T13:48:01Z</time>
      </trkpt>
      <trkpt lat="45.571532975882292" lon="4.007911020889878">
        <ele>758.13999999999999</ele>
        <time>2025-04-24T13:48:02Z</time>
      </trkpt>
      <trkpt lat="45.571476984769106" lon="4.007664006203413">
        <ele>759.10000000000002</ele>
        <time>2025-04-24T13:48:03Z</time>
      </trkpt>
      <trkpt lat="45.571423005312681" lon="4.007429983466864">
        <ele>760.53999999999996</ele>
        <time>2025-04-24T13:48:04Z</time>
      </trkpt>
      <trkpt lat="45.571402972564101" lon="4.006945006549358">
        <ele>762.46000000000004</ele>
        <time>2025-04-24T13:48:06Z</time>
      </trkpt>
      <trkpt lat="45.571428034454584" lon="4.006693968549371">
        <ele>763.89999999999998</ele>
        <time>2025-04-24T13:48:07Z</time>
      </trkpt>
      <trkpt lat="45.571454018354416" lon="4.006437985226512">
        <ele>764.87</ele>
        <time>2025-04-24T13:48:08Z</time>
      </trkpt>
      <trkpt lat="45.571507997810841" lon="4.006198011338711">
        <ele>765.83000000000004</ele>
        <time>2025-04-24T13:48:09Z</time>
      </trkpt>
      <trkpt lat="45.571575975045562" lon="4.0059619769454">
        <ele>766.78999999999996</ele>
        <time>2025-04-24T13:48:10Z</time>
      </trkpt>
      <trkpt lat="45.571640012785792" lon="4.005738012492657">
        <ele>767.26999999999998</ele>
        <time>2025-04-24T13:48:11Z</time>
      </trkpt>
      <trkpt lat="45.571715030819178" lon="4.005536008626223">
        <ele>768.71000000000004</ele>
        <time>2025-04-24T13:48:12Z</time>
      </trkpt>
      <trkpt lat="45.57180798612535" lon="4.00535898283124">
        <ele>769.66999999999996</ele>
        <time>2025-04-24T13:48:13Z</time>
      </trkpt>
      <trkpt lat="45.57189398445189" lon="4.005194026976824">
        <ele>770.14999999999998</ele>
        <time>2025-04-24T13:48:14Z</time>
      </trkpt>
      <trkpt lat="45.571994986385107" lon="4.005067963153124">
        <ele>771.60000000000002</ele>
        <time>2025-04-24T13:48:15Z</time>
      </trkpt>
      <trkpt lat="45.572105040773749" lon="4.004946006461978">
        <ele>772.55999999999995</ele>
        <time>2025-04-24T13:48:16Z</time>
      </trkpt>
      <trkpt lat="45.572245018556714" lon="4.004855984821916">
        <ele>774</ele>
        <time>2025-04-24T13:48:17Z</time>
      </trkpt>
      <trkpt lat="45.572402011603117" lon="4.004753977060318">
        <ele>775.44000000000005</ele>
        <time>2025-04-24T13:48:18Z</time>
      </trkpt>
      <trkpt lat="45.572701999917626" lon="4.004560019820929">
        <ele>777.84000000000003</ele>
        <time>2025-04-24T13:48:20Z</time>
      </trkpt>
      <trkpt lat="45.572827979922295" lon="4.004418030381203">
        <ele>778.80999999999995</ele>
        <time>2025-04-24T13:48:21Z</time>
      </trkpt>
      <trkpt lat="45.57292403653264" lon="4.004236981272697">
        <ele>780.25</ele>
        <time>2025-04-24T13:48:22Z</time>
      </trkpt>
      <trkpt lat="45.572957983240485" lon="4.004032965749502">
        <ele>781.21000000000004</ele>
        <time>2025-04-24T13:48:23Z</time>
      </trkpt>
      <trkpt lat="45.572934010997415" lon="4.003809001296759">
        <ele>782.64999999999998</ele>
        <time>2025-04-24T13:48:24Z</time>
      </trkpt>
      <trkpt lat="45.572900986298919" lon="4.003599034622312">
        <ele>783.61000000000001</ele>
        <time>2025-04-24T13:48:25Z</time>
      </trkpt>
      <trkpt lat="45.572877014055848" lon="4.003443969413638">
        <ele>785.04999999999995</ele>
        <time>2025-04-24T13:48:26Z</time>
      </trkpt>
      <trkpt lat="45.572887994349003" lon="4.003210030496121">
        <ele>786.01999999999998</ele>
        <time>2025-04-24T13:48:27Z</time>
      </trkpt>
      <trkpt lat="45.572896962985396" lon="4.003006014972925">
        <ele>787.46000000000004</ele>
        <time>2025-04-24T13:48:28Z</time>
      </trkpt>
      <trkpt lat="45.572944991290569" lon="4.002821026369929">
        <ele>788.41999999999996</ele>
        <time>2025-04-24T13:48:29Z</time>
      </trkpt>
      <trkpt lat="45.573011040687561" lon="4.002608964219689">
        <ele>789.38</ele>
        <time>2025-04-24T13:48:30Z</time>
      </trkpt>
      <trkpt lat="45.573084969073534" lon="4.002382988110185">
        <ele>790.34000000000003</ele>
        <time>2025-04-24T13:48:31Z</time>
      </trkpt>
      <trkpt lat="45.573394009843469" lon="4.001715034246445">
        <ele>792.74000000000001</ele>
        <time>2025-04-24T13:48:34Z</time>
      </trkpt>
      <trkpt lat="45.573606994003057" lon="4.001255035400391">
        <ele>794.66999999999996</ele>
        <time>2025-04-24T13:48:36Z</time>
      </trkpt>
      <trkpt lat="45.573666002601385" lon="4.001003997400403">
        <ele>796.11000000000001</ele>
        <time>2025-04-24T13:48:37Z</time>
      </trkpt>
      <trkpt lat="45.573706990107894" lon="4.000750025734305">
        <ele>797.07000000000005</ele>
        <time>2025-04-24T13:48:38Z</time>
      </trkpt>
      <trkpt lat="45.573759963735938" lon="4.000203022733331">
        <ele>799.47000000000003</ele>
        <time>2025-04-24T13:48:40Z</time>
      </trkpt>
      <trkpt lat="45.573795000091195" lon="3.999927006661892">
        <ele>800.44000000000005</ele>
        <time>2025-04-24T13:48:41Z</time>
      </trkpt>
      <trkpt lat="45.573853002861142" lon="3.999654008075595">
        <ele>801.88</ele>
        <time>2025-04-24T13:48:42Z</time>
      </trkpt>
      <trkpt lat="45.573942018672824" lon="3.999402970075607">
        <ele>802.84000000000003</ele>
        <time>2025-04-24T13:48:43Z</time>
      </trkpt>
      <trkpt lat="45.57404100894928" lon="3.999162996187806">
        <ele>803.79999999999995</ele>
        <time>2025-04-24T13:48:44Z</time>
      </trkpt>
      <trkpt lat="45.574141005054116" lon="3.998918998986483">
        <ele>805.24000000000001</ele>
        <time>2025-04-24T13:48:45Z</time>
      </trkpt>
      <trkpt lat="45.574237983673811" lon="3.998683970421553">
        <ele>806.67999999999995</ele>
        <time>2025-04-24T13:48:46Z</time>
      </trkpt>
      <trkpt lat="45.57466403581202" lon="3.997820969671011">
        <ele>811.97000000000003</ele>
        <time>2025-04-24T13:48:50Z</time>
      </trkpt>
      <trkpt lat="45.574810970574617" lon="3.997631035745144">
        <ele>813.88999999999999</ele>
        <time>2025-04-24T13:48:51Z</time>
      </trkpt>
      <trkpt lat="45.575281027704477" lon="3.997206995263696">
        <ele>817.74000000000001</ele>
        <time>2025-04-24T13:48:54Z</time>
      </trkpt>
      <trkpt lat="45.575414970517159" lon="3.99708503857255">
        <ele>818.70000000000005</ele>
        <time>2025-04-24T13:48:55Z</time>
      </trkpt>
      <trkpt lat="45.575560983270407" lon="3.997071040794253">
        <ele>819.65999999999997</ele>
        <time>2025-04-24T13:48:56Z</time>
      </trkpt>
      <trkpt lat="45.575700961053371" lon="3.997075986117125">
        <ele>820.62</ele>
        <time>2025-04-24T13:48:57Z</time>
      </trkpt>
      <trkpt lat="45.575843034312129" lon="3.997139018028975">
        <ele>821.58000000000004</ele>
        <time>2025-04-24T13:48:58Z</time>
      </trkpt>
      <trkpt lat="45.575988041236997" lon="3.997203977778554">
        <ele>822.54999999999995</ele>
        <time>2025-04-24T13:48:59Z</time>
      </trkpt>
      <trkpt lat="45.576121984049678" lon="3.99723800830543">
        <ele>823.50999999999999</ele>
        <time>2025-04-24T13:49:00Z</time>
      </trkpt>
      <trkpt lat="45.576249975711107" lon="3.997225016355515">
        <ele>824.47000000000003</ele>
        <time>2025-04-24T13:49:01Z</time>
      </trkpt>
      <trkpt lat="45.576350977644324" lon="3.997142035514116">
        <ele>825.42999999999995</ele>
        <time>2025-04-24T13:49:02Z</time>
      </trkpt>
      <trkpt lat="45.576445022597909" lon="3.997012032195926">
        <ele>826.38999999999999</ele>
        <time>2025-04-24T13:49:03Z</time>
      </trkpt>
      <trkpt lat="45.576506964862347" lon="3.996842969208956">
        <ele>827.35000000000002</ele>
        <time>2025-04-24T13:49:04Z</time>
      </trkpt>
      <trkpt lat="45.576560022309422" lon="3.996697962284088">
        <ele>827.83000000000004</ele>
        <time>2025-04-24T13:49:05Z</time>
      </trkpt>
      <trkpt lat="45.576647026464343" lon="3.996460000053048">
        <ele>829.26999999999998</ele>
        <time>2025-04-24T13:49:07Z</time>
      </trkpt>
      <trkpt lat="45.576698994264007" lon="3.996314993128181">
        <ele>829.75999999999999</ele>
        <time>2025-04-24T13:49:08Z</time>
      </trkpt>
      <trkpt lat="45.577055979520082" lon="3.994925022125244">
        <ele>834.08000000000004</ele>
        <time>2025-04-24T13:49:14Z</time>
      </trkpt>
      <trkpt lat="45.577144995331764" lon="3.994410037994385">
        <ele>835.51999999999998</ele>
        <time>2025-04-24T13:49:16Z</time>
      </trkpt>
      <trkpt lat="45.577182965353131" lon="3.994158999994397">
        <ele>836</ele>
        <time>2025-04-24T13:49:17Z</time>
      </trkpt>
      <trkpt lat="45.577220013365149" lon="3.993919026106596">
        <ele>836.96000000000004</ele>
        <time>2025-04-24T13:49:18Z</time>
      </trkpt>
      <trkpt lat="45.577309029176831" lon="3.993704030290246">
        <ele>836.96000000000004</ele>
        <time>2025-04-24T13:49:19Z</time>
      </trkpt>
      <trkpt lat="45.577423023059964" lon="3.993513006716967">
        <ele>837.45000000000005</ele>
        <time>2025-04-24T13:49:20Z</time>
      </trkpt>
      <trkpt lat="45.577541962265968" lon="3.993313014507294">
        <ele>838.40999999999997</ele>
        <time>2025-04-24T13:49:21Z</time>
      </trkpt>
      <trkpt lat="45.578282000496984" lon="3.99220802821219">
        <ele>842.25</ele>
        <time>2025-04-24T13:49:27Z</time>
      </trkpt>
      <trkpt lat="45.578399011865258" lon="3.992049023509026">
        <ele>842.73000000000002</ele>
        <time>2025-04-24T13:49:28Z</time>
      </trkpt>
      <trkpt lat="45.578453997150064" lon="3.991850037127733">
        <ele>843.21000000000004</ele>
        <time>2025-04-24T13:49:29Z</time>
      </trkpt>
      <trkpt lat="45.578502025455236" lon="3.991637974977493">
        <ele>844.17999999999995</ele>
        <time>2025-04-24T13:49:30Z</time>
      </trkpt>
      <trkpt lat="45.578499007970095" lon="3.99143798276782">
        <ele>845.13999999999999</ele>
        <time>2025-04-24T13:49:31Z</time>
      </trkpt>
      <trkpt lat="45.578462965786457" lon="3.991240002214909">
        <ele>845.62</ele>
        <time>2025-04-24T13:49:32Z</time>
      </trkpt>
      <trkpt lat="45.578427007421851" lon="3.991039004176855">
        <ele>846.58000000000004</ele>
        <time>2025-04-24T13:49:33Z</time>
      </trkpt>
      <trkpt lat="45.578389037400484" lon="3.990821996703744">
        <ele>847.53999999999996</ele>
        <time>2025-04-24T13:49:34Z</time>
      </trkpt>
      <trkpt lat="45.57836196385324" lon="3.990587973967195">
        <ele>848.5</ele>
        <time>2025-04-24T13:49:35Z</time>
      </trkpt>
      <trkpt lat="45.578303961083293" lon="3.990086987614632">
        <ele>850.89999999999998</ele>
        <time>2025-04-24T13:49:37Z</time>
      </trkpt>
      <trkpt lat="45.578258028253913" lon="3.989843996241689">
        <ele>851.87</ele>
        <time>2025-04-24T13:49:38Z</time>
      </trkpt>
      <trkpt lat="45.578179992735386" lon="3.989609973505139">
        <ele>852.83000000000004</ele>
        <time>2025-04-24T13:49:39Z</time>
      </trkpt>
      <trkpt lat="45.578077984973788" lon="3.989397995173931">
        <ele>853.78999999999996</ele>
        <time>2025-04-24T13:49:40Z</time>
      </trkpt>
      <trkpt lat="45.577915962785482" lon="3.989236978814006">
        <ele>854.75</ele>
        <time>2025-04-24T13:49:41Z</time>
      </trkpt>
      <trkpt lat="45.577742038294673" lon="3.989092977717519">
        <ele>855.71000000000004</ele>
        <time>2025-04-24T13:49:42Z</time>
      </trkpt>
      <trkpt lat="45.577563000842929" lon="3.988972026854754">
        <ele>856.19000000000005</ele>
        <time>2025-04-24T13:49:43Z</time>
      </trkpt>
      <trkpt lat="45.577380023896694" lon="3.988860966637731">
        <ele>857.63</ele>
        <time>2025-04-24T13:49:44Z</time>
      </trkpt>
      <trkpt lat="45.57610203512013" lon="3.987943986430764">
        <ele>865.79999999999995</ele>
        <time>2025-04-24T13:49:51Z</time>
      </trkpt>
      <trkpt lat="45.575927020981908" lon="3.987787999212742">
        <ele>867.25</ele>
        <time>2025-04-24T13:49:52Z</time>
      </trkpt>
      <trkpt lat="45.575061002746224" lon="3.987039998173714">
        <ele>874.46000000000004</ele>
        <time>2025-04-24T13:49:57Z</time>
      </trkpt>
      <trkpt lat="45.574896968901157" lon="3.986871019005776">
        <ele>875.89999999999998</ele>
        <time>2025-04-24T13:49:58Z</time>
      </trkpt>
      <trkpt lat="45.574228009209037" lon="3.986246986314654">
        <ele>882.63</ele>
        <time>2025-04-24T13:50:02Z</time>
      </trkpt>
      <trkpt lat="45.573709001764655" lon="3.985797967761755">
        <ele>887.90999999999997</ele>
        <time>2025-04-24T13:50:05Z</time>
      </trkpt>
      <trkpt lat="45.573551002889872" lon="3.985595963895321">
        <ele>889.36000000000001</ele>
        <time>2025-04-24T13:50:06Z</time>
      </trkpt>
      <trkpt lat="45.573394009843469" lon="3.985396977514029">
        <ele>891.27999999999997</ele>
        <time>2025-04-24T13:50:07Z</time>
      </trkpt>
      <trkpt lat="45.573078012093902" lon="3.984995987266302">
        <ele>895.12</ele>
        <time>2025-04-24T13:50:09Z</time>
      </trkpt>
      <trkpt lat="45.572899980470538" lon="3.984829019755125">
        <ele>896.57000000000005</ele>
        <time>2025-04-24T13:50:10Z</time>
      </trkpt>
      <trkpt lat="45.571886021643877" lon="3.983972975984216">
        <ele>906.65999999999997</ele>
        <time>2025-04-24T13:50:16Z</time>
      </trkpt>
      <trkpt lat="45.571793988347054" lon="3.983816988766193">
        <ele>908.10000000000002</ele>
        <time>2025-04-24T13:50:17Z</time>
      </trkpt>
      <trkpt lat="45.571725005283952" lon="3.983604004606605">
        <ele>910.02999999999997</ele>
        <time>2025-04-24T13:50:18Z</time>
      </trkpt>
      <trkpt lat="45.571654010564089" lon="3.983385991305113">
        <ele>911.47000000000003</ele>
        <time>2025-04-24T13:50:19Z</time>
      </trkpt>
      <trkpt lat="45.571589972823858" lon="3.983188010752201">
        <ele>913.38999999999999</ele>
        <time>2025-04-24T13:50:20Z</time>
      </trkpt>
      <trkpt lat="45.571574969217181" lon="3.98295097053051">
        <ele>914.83000000000004</ele>
        <time>2025-04-24T13:50:21Z</time>
      </trkpt>
      <trkpt lat="45.571558037772775" lon="3.982699010521174">
        <ele>916.26999999999998</ele>
        <time>2025-04-24T13:50:22Z</time>
      </trkpt>
      <trkpt lat="45.571541022509336" lon="3.982435986399651">
        <ele>917.72000000000003</ele>
        <time>2025-04-24T13:50:23Z</time>
      </trkpt>
      <trkpt lat="45.571487965062261" lon="3.98161699064076">
        <ele>922.51999999999998</ele>
        <time>2025-04-24T13:50:26Z</time>
      </trkpt>
      <trkpt lat="45.571474973112345" lon="3.9813800342381">
        <ele>924.45000000000005</ele>
        <time>2025-04-24T13:50:27Z</time>
      </trkpt>
      <trkpt lat="45.571462986990809" lon="3.98116797208786">
        <ele>925.88999999999999</ele>
        <time>2025-04-24T13:50:28Z</time>
      </trkpt>
      <trkpt lat="45.571505986154079" lon="3.981010979041457">
        <ele>926.85000000000002</ele>
        <time>2025-04-24T13:50:29Z</time>
      </trkpt>
      <trkpt lat="45.571569018065929" lon="3.980849040672183">
        <ele>927.80999999999995</ele>
        <time>2025-04-24T13:50:30Z</time>
      </trkpt>
      <trkpt lat="45.571662979200482" lon="3.98073697462678">
        <ele>929.25</ele>
        <time>2025-04-24T13:50:31Z</time>
      </trkpt>
      <trkpt lat="45.571777978911996" lon="3.980602025985718">
        <ele>930.21000000000004</ele>
        <time>2025-04-24T13:50:32Z</time>
      </trkpt>
      <trkpt lat="45.571875963360071" lon="3.980427011847496">
        <ele>930.69000000000005</ele>
        <time>2025-04-24T13:50:33Z</time>
      </trkpt>
      <trkpt lat="45.571941006928682" lon="3.980216961354017">
        <ele>931.64999999999998</ele>
        <time>2025-04-24T13:50:34Z</time>
      </trkpt>
      <trkpt lat="45.571950981393456" lon="3.979980004951358">
        <ele>932.62</ele>
        <time>2025-04-24T13:50:35Z</time>
      </trkpt>
      <trkpt lat="45.571932960301638" lon="3.979722009971738">
        <ele>933.10000000000002</ele>
        <time>2025-04-24T13:50:36Z</time>
      </trkpt>
      <trkpt lat="45.571915023028851" lon="3.979462003335357">
        <ele>934.05999999999995</ele>
        <time>2025-04-24T13:50:37Z</time>
      </trkpt>
      <trkpt lat="45.571855008602142" lon="3.979022959247232">
        <ele>935.98000000000002</ele>
        <time>2025-04-24T13:50:39Z</time>
      </trkpt>
      <trkpt lat="45.571783008053899" lon="3.978841993957758">
        <ele>936.94000000000005</ele>
        <time>2025-04-24T13:50:40Z</time>
      </trkpt>
      <trkpt lat="45.571683011949062" lon="3.978709978982806">
        <ele>937.41999999999996</ele>
        <time>2025-04-24T13:50:41Z</time>
      </trkpt>
      <trkpt lat="45.571562983095646" lon="3.978590033948422">
        <ele>938.38</ele>
        <time>2025-04-24T13:50:42Z</time>
      </trkpt>
      <trkpt lat="45.571457035839558" lon="3.978484002873302">
        <ele>938.86000000000001</ele>
        <time>2025-04-24T13:50:43Z</time>
      </trkpt>
      <trkpt lat="45.57137799449265" lon="3.978338995948434">
        <ele>939.83000000000004</ele>
        <time>2025-04-24T13:50:44Z</time>
      </trkpt>
      <trkpt lat="45.571372965350747" lon="3.978161970153451">
        <ele>940.30999999999995</ele>
        <time>2025-04-24T13:50:45Z</time>
      </trkpt>
      <trkpt lat="45.571418981999159" lon="3.977992990985513">
        <ele>941.26999999999998</ele>
        <time>2025-04-24T13:50:46Z</time>
      </trkpt>
      <trkpt lat="45.571483019739389" lon="3.977758968248963">
        <ele>941.75</ele>
        <time>2025-04-24T13:50:47Z</time>
      </trkpt>
      <trkpt lat="45.571553008630872" lon="3.977602981030941">
        <ele>942.71000000000004</ele>
        <time>2025-04-24T13:50:48Z</time>
      </trkpt>
      <trkpt lat="45.571642024442554" lon="3.977405000478029">
        <ele>943.66999999999996</ele>
        <time>2025-04-24T13:50:49Z</time>
      </trkpt>
      <trkpt lat="45.571726011112332" lon="3.977221017703414">
        <ele>944.63</ele>
        <time>2025-04-24T13:50:50Z</time>
      </trkpt>
      <trkpt lat="45.571780996397138" lon="3.977055978029966">
        <ele>946.07000000000005</ele>
        <time>2025-04-24T13:50:51Z</time>
      </trkpt>
      <trkpt lat="45.571770016103983" lon="3.976884987205267">
        <ele>947.03999999999996</ele>
        <time>2025-04-24T13:50:52Z</time>
      </trkpt>
      <trkpt lat="45.571743026375771" lon="3.976732017472386">
        <ele>948</ele>
        <time>2025-04-24T13:50:53Z</time>
      </trkpt>
      <trkpt lat="45.571634983643889" lon="3.976623974740505">
        <ele>948.48000000000002</ele>
        <time>2025-04-24T13:50:54Z</time>
      </trkpt>
      <trkpt lat="45.57150699198246" lon="3.976519033312798">
        <ele>949.44000000000005</ele>
        <time>2025-04-24T13:50:55Z</time>
      </trkpt>
      <trkpt lat="45.571358967572451" lon="3.976425994187594">
        <ele>950.39999999999998</ele>
        <time>2025-04-24T13:50:56Z</time>
      </trkpt>
      <trkpt lat="45.570849012583494" lon="3.976090969517827">
        <ele>953.27999999999997</ele>
        <time>2025-04-24T13:50:59Z</time>
      </trkpt>
      <trkpt lat="45.570695037022233" lon="3.975918972864747">
        <ele>954.25</ele>
        <time>2025-04-24T13:51:00Z</time>
      </trkpt>
      <trkpt lat="45.570274014025927" lon="3.975403988733888">
        <ele>957.61000000000001</ele>
        <time>2025-04-24T13:51:03Z</time>
      </trkpt>
      <trkpt lat="45.570181980729103" lon="3.975221011787653">
        <ele>959.04999999999995</ele>
        <time>2025-04-24T13:51:04Z</time>
      </trkpt>
      <trkpt lat="45.570123977959156" lon="3.975015990436077">
        <ele>960.00999999999999</ele>
        <time>2025-04-24T13:51:05Z</time>
      </trkpt>
      <trkpt lat="45.569985006004572" lon="3.974587004631758">
        <ele>961.46000000000004</ele>
        <time>2025-04-24T13:51:07Z</time>
      </trkpt>
      <trkpt lat="45.56989498436451" lon="3.974368991330266">
        <ele>962.41999999999996</ele>
        <time>2025-04-24T13:51:08Z</time>
      </trkpt>
      <trkpt lat="45.569756012409925" lon="3.974193977192044">
        <ele>963.38</ele>
        <time>2025-04-24T13:51:09Z</time>
      </trkpt>
      <trkpt lat="45.569628020748496" lon="3.97403203882277">
        <ele>964.34000000000003</ele>
        <time>2025-04-24T13:51:10Z</time>
      </trkpt>
      <trkpt lat="45.56950899772346" lon="3.973880996927619">
        <ele>965.29999999999995</ele>
        <time>2025-04-24T13:51:11Z</time>
      </trkpt>
      <trkpt lat="45.569397015497088" lon="3.973718974739313">
        <ele>966.25999999999999</ele>
        <time>2025-04-24T13:51:12Z</time>
      </trkpt>
      <trkpt lat="45.56929400190711" lon="3.973563993349671">
        <ele>967.22000000000003</ele>
        <time>2025-04-24T13:51:13Z</time>
      </trkpt>
      <trkpt lat="45.569192999973893" lon="3.973442958667874">
        <ele>967.70000000000005</ele>
        <time>2025-04-24T13:51:14Z</time>
      </trkpt>
      <trkpt lat="45.56910096667707" lon="3.973382022231817">
        <ele>968.17999999999995</ele>
        <time>2025-04-24T13:51:15Z</time>
      </trkpt>
      <trkpt lat="45.568973980844021" lon="3.973423009738326">
        <ele>968.66999999999996</ele>
        <time>2025-04-24T13:51:16Z</time>
      </trkpt>
      <trkpt lat="45.56884397752583" lon="3.973487969487906">
        <ele>969.63</ele>
        <time>2025-04-24T13:51:17Z</time>
      </trkpt>
      <trkpt lat="45.568707017228007" lon="3.973557036370039">
        <ele>970.59000000000003</ele>
        <time>2025-04-24T13:51:18Z</time>
      </trkpt>
      <trkpt lat="45.568544995039701" lon="3.973611015826464">
        <ele>971.54999999999995</ele>
        <time>2025-04-24T13:51:19Z</time>
      </trkpt>
      <trkpt lat="45.568385990336537" lon="3.973586037755013">
        <ele>972.50999999999999</ele>
        <time>2025-04-24T13:51:20Z</time>
      </trkpt>
      <trkpt lat="45.568209970369935" lon="3.973557958379388">
        <ele>973.95000000000005</ele>
        <time>2025-04-24T13:51:21Z</time>
      </trkpt>
      <trkpt lat="45.567497005686164" lon="3.973413035273552">
        <ele>979.24000000000001</ele>
        <time>2025-04-24T13:51:25Z</time>
      </trkpt>
      <trkpt lat="45.567387035116553" lon="3.973319996148348">
        <ele>980.67999999999995</ele>
        <time>2025-04-24T13:51:26Z</time>
      </trkpt>
      <trkpt lat="45.567291984334588" lon="3.973215976729989">
        <ele>982.60000000000002</ele>
        <time>2025-04-24T13:51:27Z</time>
      </trkpt>
      <trkpt lat="45.567217972129583" lon="3.973048003390431">
        <ele>983.57000000000005</ele>
        <time>2025-04-24T13:51:28Z</time>
      </trkpt>
      <trkpt lat="45.567147983238101" lon="3.972887992858887">
        <ele>984.52999999999997</ele>
        <time>2025-04-24T13:51:29Z</time>
      </trkpt>
      <trkpt lat="45.567031977698207" lon="3.97242397069931">
        <ele>986.92999999999995</ele>
        <time>2025-04-24T13:51:31Z</time>
      </trkpt>
      <trkpt lat="45.566986966878176" lon="3.972194977104664">
        <ele>988.37</ele>
        <time>2025-04-24T13:51:32Z</time>
      </trkpt>
      <trkpt lat="45.566958971321583" lon="3.971953997388482">
        <ele>989.33000000000004</ele>
        <time>2025-04-24T13:51:33Z</time>
      </trkpt>
      <trkpt lat="45.56693198159337" lon="3.971720980480313">
        <ele>990.29999999999995</ele>
        <time>2025-04-24T13:51:34Z</time>
      </trkpt>
      <trkpt lat="45.566897029057145" lon="3.971515037119389">
        <ele>991.25999999999999</ele>
        <time>2025-04-24T13:51:35Z</time>
      </trkpt>
      <trkpt lat="45.566827962175012" lon="3.971323007717729">
        <ele>992.22000000000003</ele>
        <time>2025-04-24T13:51:36Z</time>
      </trkpt>
      <trkpt lat="45.566761996597052" lon="3.971139024943113">
        <ele>992.70000000000005</ele>
        <time>2025-04-24T13:51:37Z</time>
      </trkpt>
      <trkpt lat="45.566711034625769" lon="3.970923023298383">
        <ele>993.65999999999997</ele>
        <time>2025-04-24T13:51:38Z</time>
      </trkpt>
      <trkpt lat="45.566691001877189" lon="3.970692018046975">
        <ele>994.13999999999999</ele>
        <time>2025-04-24T13:51:39Z</time>
      </trkpt>
      <trkpt lat="45.566646996885538" lon="3.970174016430974">
        <ele>996.05999999999995</ele>
        <time>2025-04-24T13:51:41Z</time>
      </trkpt>
      <trkpt lat="45.566624030470848" lon="3.969904035329819">
        <ele>997.01999999999998</ele>
        <time>2025-04-24T13:51:42Z</time>
      </trkpt>
      <trkpt lat="45.566488998010755" lon="3.969373041763902">
        <ele>999.42999999999995</ele>
        <time>2025-04-24T13:51:44Z</time>
      </trkpt>
      <trkpt lat="45.566400988027453" lon="3.969114040955901">
        <ele>1000.39</ele>
        <time>2025-04-24T13:51:45Z</time>
      </trkpt>
      <trkpt lat="45.566298980265856" lon="3.968881024047732">
        <ele>1000.87</ele>
        <time>2025-04-24T13:51:46Z</time>
      </trkpt>
      <trkpt lat="45.566180041059852" lon="3.968693017959595">
        <ele>1001.83</ele>
        <time>2025-04-24T13:51:47Z</time>
      </trkpt>
      <trkpt lat="45.566044002771378" lon="3.968582041561604">
        <ele>1002.79</ele>
        <time>2025-04-24T13:51:48Z</time>
      </trkpt>
      <trkpt lat="45.565924979746342" lon="3.968510963022709">
        <ele>1004.23</ele>
        <time>2025-04-24T13:51:49Z</time>
      </trkpt>
      <trkpt lat="45.565764969214797" lon="3.968510963022709">
        <ele>1004.72</ele>
        <time>2025-04-24T13:51:50Z</time>
      </trkpt>
      <trkpt lat="45.565599007532001" lon="3.968510963022709">
        <ele>1005.6799999999999</ele>
        <time>2025-04-24T13:51:51Z</time>
      </trkpt>
      <trkpt lat="45.565273035317659" lon="3.968452960252762">
        <ele>1007.12</ele>
        <time>2025-04-24T13:51:53Z</time>
      </trkpt>
      <trkpt lat="45.56514797732234" lon="3.96836101077497">
        <ele>1007.12</ele>
        <time>2025-04-24T13:51:54Z</time>
      </trkpt>
      <trkpt lat="45.565067008137703" lon="3.968252968043089">
        <ele>1007.6</ele>
        <time>2025-04-24T13:51:55Z</time>
      </trkpt>
      <trkpt lat="45.565020991489291" lon="3.968062028288841">
        <ele>1007.6</ele>
        <time>2025-04-24T13:51:56Z</time>
      </trkpt>
      <trkpt lat="45.564973969012499" lon="3.967863041907549">
        <ele>1008.08</ele>
        <time>2025-04-24T13:51:57Z</time>
      </trkpt>
      <trkpt lat="45.5649100150913" lon="3.967648968100548">
        <ele>1008.5599999999999</ele>
        <time>2025-04-24T13:51:58Z</time>
      </trkpt>
      <trkpt lat="45.564834997057915" lon="3.967416035011411">
        <ele>1009.04</ele>
        <time>2025-04-24T13:51:59Z</time>
      </trkpt>
      <trkpt lat="45.564524028450251" lon="3.966500982642174">
        <ele>1009.04</ele>
        <time>2025-04-24T13:52:03Z</time>
      </trkpt>
      <trkpt lat="45.564424032345414" lon="3.966371985152364">
        <ele>1009.04</ele>
        <time>2025-04-24T13:52:04Z</time>
      </trkpt>
      <trkpt lat="45.564307020977139" lon="3.966334015130997">
        <ele>1009.04</ele>
        <time>2025-04-24T13:52:05Z</time>
      </trkpt>
      <trkpt lat="45.564194032922387" lon="3.966323034837842">
        <ele>1008.5599999999999</ele>
        <time>2025-04-24T13:52:06Z</time>
      </trkpt>
      <trkpt lat="45.564131001010537" lon="3.966378020122647">
        <ele>1008.08</ele>
        <time>2025-04-24T13:52:07Z</time>
      </trkpt>
      <trkpt lat="45.56407299824059" lon="3.966445997357369">
        <ele>1008.08</ele>
        <time>2025-04-24T13:52:08Z</time>
      </trkpt>
      <trkpt lat="45.564037039875984" lon="3.966542975977063">
        <ele>1007.6</ele>
        <time>2025-04-24T13:52:09Z</time>
      </trkpt>
      <trkpt lat="45.564045002683997" lon="3.966715978458524">
        <ele>1007.6</ele>
        <time>2025-04-24T13:52:10Z</time>
      </trkpt>
      <trkpt lat="45.564053971320391" lon="3.966908007860184">
        <ele>1007.12</ele>
        <time>2025-04-24T13:52:11Z</time>
      </trkpt>
      <trkpt lat="45.564039973542094" lon="3.967138007283211">
        <ele>1006.64</ele>
        <time>2025-04-24T13:52:12Z</time>
      </trkpt>
      <trkpt lat="45.564014995470643" lon="3.96730899810791">
        <ele>1006.64</ele>
        <time>2025-04-24T13:52:13Z</time>
      </trkpt>
      <trkpt lat="45.563927991315722" lon="3.967538997530937">
        <ele>1006.64</ele>
        <time>2025-04-24T13:52:14Z</time>
      </trkpt>
      <trkpt lat="45.563850039616227" lon="3.967745024710894">
        <ele>1006.64</ele>
        <time>2025-04-24T13:52:15Z</time>
      </trkpt>
      <trkpt lat="45.563778961077332" lon="3.96793101914227">
        <ele>1007.12</ele>
        <time>2025-04-24T13:52:16Z</time>
      </trkpt>
      <trkpt lat="45.563645018264651" lon="3.96814500913024">
        <ele>1007.6</ele>
        <time>2025-04-24T13:52:17Z</time>
      </trkpt>
      <trkpt lat="45.56353404186666" lon="3.968320023268461">
        <ele>1007.6</ele>
        <time>2025-04-24T13:52:18Z</time>
      </trkpt>
      <trkpt lat="45.563432034105062" lon="3.96838397718966">
        <ele>1007.6</ele>
        <time>2025-04-24T13:52:19Z</time>
      </trkpt>
      <trkpt lat="45.563306976109743" lon="3.96844600327313">
        <ele>1008.08</ele>
        <time>2025-04-24T13:52:20Z</time>
      </trkpt>
      <trkpt lat="45.563165992498398" lon="3.968450026586652">
        <ele>1008.5599999999999</ele>
        <time>2025-04-24T13:52:21Z</time>
      </trkpt>
      <trkpt lat="45.563005981966853" lon="3.968454971909523">
        <ele>1008.5599999999999</ele>
        <time>2025-04-24T13:52:22Z</time>
      </trkpt>
      <trkpt lat="45.562814958393574" lon="3.968460001051426">
        <ele>1009.04</ele>
        <time>2025-04-24T13:52:23Z</time>
      </trkpt>
      <trkpt lat="45.561401015147567" lon="3.968774992972612">
        <ele>1010</ele>
        <time>2025-04-24T13:52:30Z</time>
      </trkpt>
      <trkpt lat="45.561204962432384" lon="3.968787984922528">
        <ele>1010.48</ele>
        <time>2025-04-24T13:52:31Z</time>
      </trkpt>
      <trkpt lat="45.561030032113194" lon="3.968732999637723">
        <ele>1010.96</ele>
        <time>2025-04-24T13:52:32Z</time>
      </trkpt>
      <trkpt lat="45.560854012146592" lon="3.968667034059763">
        <ele>1010.96</ele>
        <time>2025-04-24T13:52:33Z</time>
      </trkpt>
      <trkpt lat="45.559723963961005" lon="3.968596961349249">
        <ele>1010.48</ele>
        <time>2025-04-24T13:52:40Z</time>
      </trkpt>
      <trkpt lat="45.559688005596399" lon="3.968685977160931">
        <ele>1010</ele>
        <time>2025-04-24T13:52:41Z</time>
      </trkpt>
      <trkpt lat="45.55964601226151" lon="3.96879100240767">
        <ele>1010.48</ele>
        <time>2025-04-24T13:52:42Z</time>
      </trkpt>
      <trkpt lat="45.559584992006421" lon="3.96894296631217">
        <ele>1011.4400000000001</ele>
        <time>2025-04-24T13:52:43Z</time>
      </trkpt>
      <trkpt lat="45.559507962316275" lon="3.969136001542211">
        <ele>1011.4400000000001</ele>
        <time>2025-04-24T13:52:44Z</time>
      </trkpt>
      <trkpt lat="45.559287015348673" lon="3.969689039513469">
        <ele>1011.9299999999999</ele>
        <time>2025-04-24T13:52:47Z</time>
      </trkpt>
      <trkpt lat="45.559206968173385" lon="3.969889031723142">
        <ele>1012.41</ele>
        <time>2025-04-24T13:52:48Z</time>
      </trkpt>
      <trkpt lat="45.558912009000778" lon="3.970549022778869">
        <ele>1013.85</ele>
        <time>2025-04-24T13:52:51Z</time>
      </trkpt>
      <trkpt lat="45.55857103317976" lon="3.971188981086016">
        <ele>1016.25</ele>
        <time>2025-04-24T13:52:54Z</time>
      </trkpt>
      <trkpt lat="45.55848503485322" lon="3.971373969689012">
        <ele>1017.6900000000001</ele>
        <time>2025-04-24T13:52:55Z</time>
      </trkpt>
      <trkpt lat="45.558300968259573" lon="3.971912004053593">
        <ele>1021.54</ele>
        <time>2025-04-24T13:52:58Z</time>
      </trkpt>
      <trkpt lat="45.558170964941382" lon="3.97203697822988">
        <ele>1022.5</ele>
        <time>2025-04-24T13:52:59Z</time>
      </trkpt>
      <trkpt lat="45.558051019906998" lon="3.972066985443234">
        <ele>1024.4200000000001</ele>
        <time>2025-04-24T13:53:00Z</time>
      </trkpt>
      <trkpt lat="45.557916993275285" lon="3.972060028463602">
        <ele>1025.3800000000001</ele>
        <time>2025-04-24T13:53:01Z</time>
      </trkpt>
      <trkpt lat="45.557785984128714" lon="3.972045024856925">
        <ele>1026.8299999999999</ele>
        <time>2025-04-24T13:53:02Z</time>
      </trkpt>
      <trkpt lat="45.557188019156456" lon="3.971976963803172">
        <ele>1032.1099999999999</ele>
        <time>2025-04-24T13:53:06Z</time>
      </trkpt>
      <trkpt lat="45.557018034160137" lon="3.971915021538734">
        <ele>1033.0699999999999</ele>
        <time>2025-04-24T13:53:07Z</time>
      </trkpt>
      <trkpt lat="45.556866992264986" lon="3.971801027655602">
        <ele>1034.52</ele>
        <time>2025-04-24T13:53:08Z</time>
      </trkpt>
      <trkpt lat="45.555677013471723" lon="3.970706015825272">
        <ele>1042.6900000000001</ele>
        <time>2025-04-24T13:53:15Z</time>
      </trkpt>
      <trkpt lat="45.555550027638674" lon="3.970485990867019">
        <ele>1044.6099999999999</ele>
        <time>2025-04-24T13:53:16Z</time>
      </trkpt>
      <trkpt lat="45.555468974635005" lon="3.97027300670743">
        <ele>1046.53</ele>
        <time>2025-04-24T13:53:17Z</time>
      </trkpt>
      <trkpt lat="45.555416001006961" lon="3.970134034752846">
        <ele>1050.8599999999999</ele>
        <time>2025-04-24T13:53:18Z</time>
      </trkpt>
      <trkpt lat="45.555402003228664" lon="3.96992901340127">
        <ele>1053.74</ele>
        <time>2025-04-24T13:53:19Z</time>
      </trkpt>
      <trkpt lat="45.55539202876389" lon="3.969703959301114">
        <ele>1056.1500000000001</ele>
        <time>2025-04-24T13:53:20Z</time>
      </trkpt>
      <trkpt lat="45.555396974086761" lon="3.969459040090442">
        <ele>1058.0699999999999</ele>
        <time>2025-04-24T13:53:21Z</time>
      </trkpt>
      <trkpt lat="45.555407032370567" lon="3.96919802762568">
        <ele>1060.95</ele>
        <time>2025-04-24T13:53:22Z</time>
      </trkpt>
      <trkpt lat="45.555466962978244" lon="3.968265037983656">
        <ele>1069.5999999999999</ele>
        <time>2025-04-24T13:53:26Z</time>
      </trkpt>
      <trkpt lat="45.555464029312134" lon="3.968078037723899">
        <ele>1071.53</ele>
        <time>2025-04-24T13:53:27Z</time>
      </trkpt>
      <trkpt lat="45.555425975471735" lon="3.967880979180336">
        <ele>1073.45</ele>
        <time>2025-04-24T13:53:28Z</time>
      </trkpt>
      <trkpt lat="45.555335031822324" lon="3.967775031924248">
        <ele>1075.8499999999999</ele>
        <time>2025-04-24T13:53:29Z</time>
      </trkpt>
      <trkpt lat="45.555210979655385" lon="3.967699008062482">
        <ele>1077.29</ele>
        <time>2025-04-24T13:53:30Z</time>
      </trkpt>
      <trkpt lat="45.555057004094124" lon="3.967686016112566">
        <ele>1078.74</ele>
        <time>2025-04-24T13:53:31Z</time>
      </trkpt>
      <trkpt lat="45.554900011047721" lon="3.967734966427088">
        <ele>1079.7</ele>
        <time>2025-04-24T13:53:32Z</time>
      </trkpt>
      <trkpt lat="45.55474603548646" lon="3.967807972803712">
        <ele>1080.1800000000001</ele>
        <time>2025-04-24T13:53:33Z</time>
      </trkpt>
      <trkpt lat="45.554589964449406" lon="3.967883996665478">
        <ele>1081.1400000000001</ele>
        <time>2025-04-24T13:53:34Z</time>
      </trkpt>
      <trkpt lat="45.553879011422396" lon="3.967969994992018">
        <ele>1084.5</ele>
        <time>2025-04-24T13:53:38Z</time>
      </trkpt>
      <trkpt lat="45.55335103534162" lon="3.96769498474896">
        <ele>1086.4300000000001</ele>
        <time>2025-04-24T13:53:41Z</time>
      </trkpt>
      <trkpt lat="45.552763966843486" lon="3.967764973640442">
        <ele>1087.8699999999999</ele>
        <time>2025-04-24T13:53:44Z</time>
      </trkpt>
      <trkpt lat="45.552430031821132" lon="3.968005031347275">
        <ele>1088.8299999999999</ele>
        <time>2025-04-24T13:53:46Z</time>
      </trkpt>
      <trkpt lat="45.552259963005781" lon="3.968141991645098">
        <ele>1089.3099999999999</ele>
        <time>2025-04-24T13:53:47Z</time>
      </trkpt>
      <trkpt lat="45.551854027435184" lon="3.968651024624705">
        <ele>1089.79</ele>
        <time>2025-04-24T13:53:50Z</time>
      </trkpt>
      <trkpt lat="45.551725029945374" lon="3.968836013227701">
        <ele>1089.79</ele>
        <time>2025-04-24T13:53:51Z</time>
      </trkpt>
      <trkpt lat="45.55135496892035" lon="3.969132984057069">
        <ele>1090.75</ele>
        <time>2025-04-24T13:53:55Z</time>
      </trkpt>
      <trkpt lat="45.551106026396155" lon="3.969118986278772">
        <ele>1090.75</ele>
        <time>2025-04-24T13:53:56Z</time>
      </trkpt>
      <trkpt lat="45.550968982279301" lon="3.969111023470759">
        <ele>1090.75</ele>
        <time>2025-04-24T13:53:57Z</time>
      </trkpt>
      <trkpt lat="45.550968982279301" lon="3.969111023470759">
        <ele>1090.75</ele>
        <time>2025-04-24T13:53:58Z</time>
      </trkpt>
      <trkpt lat="45.550783993676305" lon="3.969054026529193">
        <ele>1090.75</ele>
        <time>2025-04-24T13:53:59Z</time>
      </trkpt>
      <trkpt lat="45.55066597647965" lon="3.969016978517175">
        <ele>1090.27</ele>
        <time>2025-04-24T13:54:00Z</time>
      </trkpt>
      <trkpt lat="45.550625994801521" lon="3.969003986567259">
        <ele>1090.27</ele>
        <time>2025-04-24T13:54:01Z</time>
      </trkpt>
      <trkpt lat="45.550625994801521" lon="3.969003986567259">
        <ele>1089.79</ele>
        <time>2025-04-24T13:54:02Z</time>
      </trkpt>
      <trkpt lat="45.550328018143773" lon="3.968773987144232">
        <ele>1088.8299999999999</ele>
        <time>2025-04-24T13:54:04Z</time>
      </trkpt>
      <trkpt lat="45.549601977691054" lon="3.968195971101522">
        <ele>1089.79</ele>
        <time>2025-04-24T13:54:09Z</time>
      </trkpt>
      <trkpt lat="45.548291970044374" lon="3.967060977593064">
        <ele>1097</ele>
        <time>2025-04-24T13:54:17Z</time>
      </trkpt>
      <trkpt lat="45.548222986981273" lon="3.966923011466861">
        <ele>1097.48</ele>
        <time>2025-04-24T13:54:18Z</time>
      </trkpt>
      <trkpt lat="45.548160038888454" lon="3.966636015102267">
        <ele>1098.4400000000001</ele>
        <time>2025-04-24T13:54:19Z</time>
      </trkpt>
      <trkpt lat="45.548112010583282" lon="3.966414984315634">
        <ele>1099.4000000000001</ele>
        <time>2025-04-24T13:54:20Z</time>
      </trkpt>
      <trkpt lat="45.548072028905153" lon="3.966236030682921">
        <ele>1100.3699999999999</ele>
        <time>2025-04-24T13:54:21Z</time>
      </trkpt>
      <trkpt lat="45.548060964792967" lon="3.965960014611483">
        <ele>1101.8099999999999</ele>
        <time>2025-04-24T13:54:22Z</time>
      </trkpt>
      <trkpt lat="45.548051996156573" lon="3.965716017410159">
        <ele>1103.73</ele>
        <time>2025-04-24T13:54:23Z</time>
      </trkpt>
      <trkpt lat="45.548007991164923" lon="3.965506972745061">
        <ele>1106.1300000000001</ele>
        <time>2025-04-24T13:54:24Z</time>
      </trkpt>
      <trkpt lat="45.547901038080454" lon="3.965399013832212">
        <ele>1109.02</ele>
        <time>2025-04-24T13:54:25Z</time>
      </trkpt>
      <trkpt lat="45.54780799895525" lon="3.965360959991813">
        <ele>1110.9400000000001</ele>
        <time>2025-04-24T13:54:26Z</time>
      </trkpt>
      <trkpt lat="45.547712026163936" lon="3.965321984142065">
        <ele>1112.8599999999999</ele>
        <time>2025-04-24T13:54:27Z</time>
      </trkpt>
      <trkpt lat="45.54761596955359" lon="3.965282002463937">
        <ele>1112.8599999999999</ele>
        <time>2025-04-24T13:54:28Z</time>
      </trkpt>
      <trkpt lat="45.54746501147747" lon="3.965189969167113">
        <ele>1113.3399999999999</ele>
        <time>2025-04-24T13:54:29Z</time>
      </trkpt>
      <trkpt lat="45.547340959310532" lon="3.965087039396167">
        <ele>1113.3399999999999</ele>
        <time>2025-04-24T13:54:30Z</time>
      </trkpt>
      <trkpt lat="45.547091010957956" lon="3.964658975601196">
        <ele>1113.8199999999999</ele>
        <time>2025-04-24T13:54:32Z</time>
      </trkpt>
      <trkpt lat="45.546997971832752" lon="3.9644739869982">
        <ele>1114.79</ele>
        <time>2025-04-24T13:54:33Z</time>
      </trkpt>
      <trkpt lat="45.546850031241775" lon="3.964097974821925">
        <ele>1116.23</ele>
        <time>2025-04-24T13:54:35Z</time>
      </trkpt>
      <trkpt lat="45.546804014593363" lon="3.963923966512084">
        <ele>1117.1900000000001</ele>
        <time>2025-04-24T13:54:36Z</time>
      </trkpt>
      <trkpt lat="45.54673695936799" lon="3.963523982092738">
        <ele>1117.6700000000001</ele>
        <time>2025-04-24T13:54:38Z</time>
      </trkpt>
      <trkpt lat="45.5467139929533" lon="3.963315021246672">
        <ele>1118.1500000000001</ele>
        <time>2025-04-24T13:54:39Z</time>
      </trkpt>
      <trkpt lat="45.546612991020083" lon="3.961258018389344">
        <ele>1124.4000000000001</ele>
        <time>2025-04-24T13:54:48Z</time>
      </trkpt>
      <trkpt lat="45.546555994078517" lon="3.961040005087853">
        <ele>1124.8800000000001</ele>
        <time>2025-04-24T13:54:49Z</time>
      </trkpt>
      <trkpt lat="45.546506037935615" lon="3.960849987342954">
        <ele>1124.8800000000001</ele>
        <time>2025-04-24T13:54:50Z</time>
      </trkpt>
      <trkpt lat="45.546442000195384" lon="3.960700035095215">
        <ele>1125.3599999999999</ele>
        <time>2025-04-24T13:54:51Z</time>
      </trkpt>
      <trkpt lat="45.546336974948645" lon="3.960498031228781">
        <ele>1125.8399999999999</ele>
        <time>2025-04-24T13:54:52Z</time>
      </trkpt>
      <trkpt lat="45.546237984672189" lon="3.960307007655501">
        <ele>1126.3199999999999</ele>
        <time>2025-04-24T13:54:53Z</time>
      </trkpt>
      <trkpt lat="45.546141006052494" lon="3.960121013224125">
        <ele>1126.3199999999999</ele>
        <time>2025-04-24T13:54:54Z</time>
      </trkpt>
      <trkpt lat="45.546040004119277" lon="3.959971982985735">
        <ele>1126.8</ele>
        <time>2025-04-24T13:54:55Z</time>
      </trkpt>
      <trkpt lat="45.545399039983749" lon="3.959028013050556">
        <ele>1127.76</ele>
        <time>2025-04-24T13:55:01Z</time>
      </trkpt>
      <trkpt lat="45.54529401473701" lon="3.958829026669264">
        <ele>1128.24</ele>
        <time>2025-04-24T13:55:02Z</time>
      </trkpt>
      <trkpt lat="45.544863017275929" lon="3.957646004855633">
        <ele>1128.73</ele>
        <time>2025-04-24T13:55:08Z</time>
      </trkpt>
      <trkpt lat="45.544853964820504" lon="3.957503009587526">
        <ele>1128.73</ele>
        <time>2025-04-24T13:55:09Z</time>
      </trkpt>
      <trkpt lat="45.544887995347381" lon="3.957270998507738">
        <ele>1128.73</ele>
        <time>2025-04-24T13:55:10Z</time>
      </trkpt>
      <trkpt lat="45.544915990903974" lon="3.957077041268349">
        <ele>1129.21</ele>
        <time>2025-04-24T13:55:11Z</time>
      </trkpt>
      <trkpt lat="45.544945998117328" lon="3.956875037401915">
        <ele>1129.21</ele>
        <time>2025-04-24T13:55:12Z</time>
      </trkpt>
      <trkpt lat="45.545327039435506" lon="3.954212022945285">
        <ele>1130.6500000000001</ele>
        <time>2025-04-24T13:55:24Z</time>
      </trkpt>
      <trkpt lat="45.545487971976399" lon="3.952421983703971">
        <ele>1131.1300000000001</ele>
        <time>2025-04-24T13:55:32Z</time>
      </trkpt>
      <trkpt lat="45.545447990298271" lon="3.952230038121343">
        <ele>1131.6099999999999</ele>
        <time>2025-04-24T13:55:33Z</time>
      </trkpt>
      <trkpt lat="45.545390993356705" lon="3.952057035639882">
        <ele>1132.0899999999999</ele>
        <time>2025-04-24T13:55:34Z</time>
      </trkpt>
      <trkpt lat="45.545312035828829" lon="3.951862994581461">
        <ele>1132.5699999999999</ele>
        <time>2025-04-24T13:55:35Z</time>
      </trkpt>
      <trkpt lat="45.545232994481921" lon="3.95166995935142">
        <ele>1132.5699999999999</ele>
        <time>2025-04-24T13:55:36Z</time>
      </trkpt>
      <trkpt lat="45.544497985392809" lon="3.950173035264015">
        <ele>1135.9400000000001</ele>
        <time>2025-04-24T13:55:43Z</time>
      </trkpt>
      <trkpt lat="45.543822990730405" lon="3.948813993483782">
        <ele>1138.8199999999999</ele>
        <time>2025-04-24T13:55:49Z</time>
      </trkpt>
      <trkpt lat="45.543712014332414" lon="3.948589023202658">
        <ele>1139.3</ele>
        <time>2025-04-24T13:55:50Z</time>
      </trkpt>
      <trkpt lat="45.54359600879252" lon="3.94835801795125">
        <ele>1139.78</ele>
        <time>2025-04-24T13:55:51Z</time>
      </trkpt>
      <trkpt lat="45.543485032394528" lon="3.948134975507855">
        <ele>1140.26</ele>
        <time>2025-04-24T13:55:52Z</time>
      </trkpt>
      <trkpt lat="45.543374978005886" lon="3.947915034368634">
        <ele>1140.74</ele>
        <time>2025-04-24T13:55:53Z</time>
      </trkpt>
      <trkpt lat="45.543270036578178" lon="3.947704983875155">
        <ele>1141.22</ele>
        <time>2025-04-24T13:55:54Z</time>
      </trkpt>
      <trkpt lat="45.542883966118097" lon="3.947044992819428">
        <ele>1143.6300000000001</ele>
        <time>2025-04-24T13:55:58Z</time>
      </trkpt>
      <trkpt lat="45.542777013033628" lon="3.946935022249818">
        <ele>1143.6300000000001</ele>
        <time>2025-04-24T13:55:59Z</time>
      </trkpt>
      <trkpt lat="45.541650988161564" lon="3.945985017344356">
        <ele>1140.74</ele>
        <time>2025-04-24T13:56:07Z</time>
      </trkpt>
      <trkpt lat="45.540325976908207" lon="3.945314968004823">
        <ele>1134.01</ele>
        <time>2025-04-24T13:56:15Z</time>
      </trkpt>
      <trkpt lat="45.540033029392362" lon="3.945021014660597">
        <ele>1132.5699999999999</ele>
        <time>2025-04-24T13:56:17Z</time>
      </trkpt>
      <trkpt lat="45.539942001923919" lon="3.94485698081553">
        <ele>1132.0899999999999</ele>
        <time>2025-04-24T13:56:18Z</time>
      </trkpt>
      <trkpt lat="45.539882993325591" lon="3.944689007475972">
        <ele>1131.1300000000001</ele>
        <time>2025-04-24T13:56:19Z</time>
      </trkpt>
      <trkpt lat="45.539846029132605" lon="3.944503013044596">
        <ele>1130.6500000000001</ele>
        <time>2025-04-24T13:56:20Z</time>
      </trkpt>
      <trkpt lat="45.539848962798715" lon="3.944329004734755">
        <ele>1130.1700000000001</ele>
        <time>2025-04-24T13:56:21Z</time>
      </trkpt>
      <trkpt lat="45.53988098166883" lon="3.944129012525082">
        <ele>1129.21</ele>
        <time>2025-04-24T13:56:22Z</time>
      </trkpt>
      <trkpt lat="45.539921969175339" lon="3.943944023922086">
        <ele>1128.24</ele>
        <time>2025-04-24T13:56:23Z</time>
      </trkpt>
      <trkpt lat="45.539997993037105" lon="3.943776972591877">
        <ele>1127.76</ele>
        <time>2025-04-24T13:56:24Z</time>
      </trkpt>
      <trkpt lat="45.540118021890521" lon="3.943656021729112">
        <ele>1126.8</ele>
        <time>2025-04-24T13:56:25Z</time>
      </trkpt>
      <trkpt lat="45.540250036865473" lon="3.943573962897062">
        <ele>1125.8399999999999</ele>
        <time>2025-04-24T13:56:26Z</time>
      </trkpt>
      <trkpt lat="45.540391020476818" lon="3.943555019795895">
        <ele>1124.8800000000001</ele>
        <time>2025-04-24T13:56:27Z</time>
      </trkpt>
      <trkpt lat="45.540551031008363" lon="3.943555019795895">
        <ele>1123.9200000000001</ele>
        <time>2025-04-24T13:56:28Z</time>
      </trkpt>
      <trkpt lat="45.540716992691159" lon="3.943555019795895">
        <ele>1122.96</ele>
        <time>2025-04-24T13:56:29Z</time>
      </trkpt>
      <trkpt lat="45.540892006829381" lon="3.943555019795895">
        <ele>1122.48</ele>
        <time>2025-04-24T13:56:30Z</time>
      </trkpt>
      <trkpt lat="45.541070960462093" lon="3.943544961512089">
        <ele>1122</ele>
        <time>2025-04-24T13:56:31Z</time>
      </trkpt>
      <trkpt lat="45.541253015398979" lon="3.943495005369186">
        <ele>1121.03</ele>
        <time>2025-04-24T13:56:32Z</time>
      </trkpt>
      <trkpt lat="45.541439009830356" lon="3.943433985114098">
        <ele>1120.55</ele>
        <time>2025-04-24T13:56:33Z</time>
      </trkpt>
      <trkpt lat="45.541610000655055" lon="3.943303981795907">
        <ele>1119.5899999999999</ele>
        <time>2025-04-24T13:56:34Z</time>
      </trkpt>
      <trkpt lat="45.541783003136516" lon="3.943171966820955">
        <ele>1118.6300000000001</ele>
        <time>2025-04-24T13:56:35Z</time>
      </trkpt>
      <trkpt lat="45.543190995231271" lon="3.942089024931192">
        <ele>1109.98</ele>
        <time>2025-04-24T13:56:43Z</time>
      </trkpt>
      <trkpt lat="45.543921981006861" lon="3.941431967541575">
        <ele>1105.1700000000001</ele>
        <time>2025-04-24T13:56:48Z</time>
      </trkpt>
      <trkpt lat="45.544032035395503" lon="3.94131001085043">
        <ele>1104.6900000000001</ele>
        <time>2025-04-24T13:56:49Z</time>
      </trkpt>
      <trkpt lat="45.544100012630224" lon="3.941125022247434">
        <ele>1103.73</ele>
        <time>2025-04-24T13:56:50Z</time>
      </trkpt>
      <trkpt lat="45.544159021228552" lon="3.940958976745606">
        <ele>1103.25</ele>
        <time>2025-04-24T13:56:51Z</time>
      </trkpt>
      <trkpt lat="45.544189028441906" lon="3.94077398814261">
        <ele>1102.29</ele>
        <time>2025-04-24T13:56:52Z</time>
      </trkpt>
      <trkpt lat="45.544189028441906" lon="3.940575001761317">
        <ele>1101.3299999999999</ele>
        <time>2025-04-24T13:56:53Z</time>
      </trkpt>
      <trkpt lat="45.54415499791503" lon="3.940380960702896">
        <ele>1100.8499999999999</ele>
        <time>2025-04-24T13:56:54Z</time>
      </trkpt>
      <trkpt lat="45.54411199875176" lon="3.940188009291887">
        <ele>1099.8900000000001</ele>
        <time>2025-04-24T13:56:55Z</time>
      </trkpt>
      <trkpt lat="45.544053995981812" lon="3.939995979890227">
        <ele>1098.9200000000001</ele>
        <time>2025-04-24T13:56:56Z</time>
      </trkpt>
      <trkpt lat="45.543995993211865" lon="3.93980797380209">
        <ele>1097.96</ele>
        <time>2025-04-24T13:56:57Z</time>
      </trkpt>
      <trkpt lat="45.54394100792706" lon="3.939624996855855">
        <ele>1097.48</ele>
        <time>2025-04-24T13:56:58Z</time>
      </trkpt>
      <trkpt lat="45.543914018198848" lon="3.93942098133266">
        <ele>1096.52</ele>
        <time>2025-04-24T13:56:59Z</time>
      </trkpt>
      <trkpt lat="45.543923992663622" lon="3.939215037971735">
        <ele>1095.0799999999999</ele>
        <time>2025-04-24T13:57:00Z</time>
      </trkpt>
      <trkpt lat="45.543949976563454" lon="3.939005993306637">
        <ele>1094.1199999999999</ele>
        <time>2025-04-24T13:57:01Z</time>
      </trkpt>
      <trkpt lat="45.54400596767664" lon="3.938808012753725">
        <ele>1093.1600000000001</ele>
        <time>2025-04-24T13:57:02Z</time>
      </trkpt>
      <trkpt lat="45.544101018458605" lon="3.938638027757406">
        <ele>1091.71</ele>
        <time>2025-04-24T13:57:03Z</time>
      </trkpt>
      <trkpt lat="45.54421802982688" lon="3.938500983640552">
        <ele>1090.75</ele>
        <time>2025-04-24T13:57:04Z</time>
      </trkpt>
      <trkpt lat="45.544363958761096" lon="3.938402999192476">
        <ele>1089.79</ele>
        <time>2025-04-24T13:57:05Z</time>
      </trkpt>
      <trkpt lat="45.544521035626531" lon="3.938298979774118">
        <ele>1088.8299999999999</ele>
        <time>2025-04-24T13:57:06Z</time>
      </trkpt>
      <trkpt lat="45.546070011332631" lon="3.937386022880673">
        <ele>1077.78</ele>
        <time>2025-04-24T13:57:15Z</time>
      </trkpt>
      <trkpt lat="45.546247037127614" lon="3.937346041202545">
        <ele>1076.3299999999999</ele>
        <time>2025-04-24T13:57:16Z</time>
      </trkpt>
      <trkpt lat="45.546425990760326" lon="3.93731402233243">
        <ele>1074.8900000000001</ele>
        <time>2025-04-24T13:57:17Z</time>
      </trkpt>
      <trkpt lat="45.546596981585026" lon="3.937333971261978">
        <ele>1073.9300000000001</ele>
        <time>2025-04-24T13:57:18Z</time>
      </trkpt>
      <trkpt lat="45.546760009601712" lon="3.937351992353797">
        <ele>1072.49</ele>
        <time>2025-04-24T13:57:19Z</time>
      </trkpt>
      <trkpt lat="45.547054968774319" lon="3.937386022880673">
        <ele>1070.0799999999999</ele>
        <time>2025-04-24T13:57:21Z</time>
      </trkpt>
      <trkpt lat="45.547182960435748" lon="3.937376970425248">
        <ele>1069.1199999999999</ele>
        <time>2025-04-24T13:57:22Z</time>
      </trkpt>
      <trkpt lat="45.54729301482439" lon="3.937311004847288">
        <ele>1068.1600000000001</ele>
        <time>2025-04-24T13:57:23Z</time>
      </trkpt>
      <trkpt lat="45.547392005100846" lon="3.937201034277678">
        <ele>1067.2</ele>
        <time>2025-04-24T13:57:24Z</time>
      </trkpt>
      <trkpt lat="45.547455037012696" lon="3.937047980725765">
        <ele>1066.72</ele>
        <time>2025-04-24T13:57:25Z</time>
      </trkpt>
      <trkpt lat="45.547513961791992" lon="3.936872966587544">
        <ele>1065.76</ele>
        <time>2025-04-24T13:57:26Z</time>
      </trkpt>
      <trkpt lat="45.547513961791992" lon="3.936688983812928">
        <ele>1065.28</ele>
        <time>2025-04-24T13:57:27Z</time>
      </trkpt>
      <trkpt lat="45.547498036175966" lon="3.936510030180216">
        <ele>1063.8399999999999</ele>
        <time>2025-04-24T13:57:28Z</time>
      </trkpt>
      <trkpt lat="45.5474220123142" lon="3.936376003548503">
        <ele>1063.3599999999999</ele>
        <time>2025-04-24T13:57:29Z</time>
      </trkpt>
      <trkpt lat="45.547342970967293" lon="3.936238037422299">
        <ele>1062.3900000000001</ele>
        <time>2025-04-24T13:57:30Z</time>
      </trkpt>
      <trkpt lat="45.547214979305863" lon="3.936139969155192">
        <ele>1061.4300000000001</ele>
        <time>2025-04-24T13:57:31Z</time>
      </trkpt>
      <trkpt lat="45.547076007351279" lon="3.936033016070724">
        <ele>1060.47</ele>
        <time>2025-04-24T13:57:32Z</time>
      </trkpt>
      <trkpt lat="45.546926977112889" lon="3.935919022187591">
        <ele>1059.51</ele>
        <time>2025-04-24T13:57:33Z</time>
      </trkpt>
      <trkpt lat="45.546140000224113" lon="3.935207985341549">
        <ele>1055.1800000000001</ele>
        <time>2025-04-24T13:57:38Z</time>
      </trkpt>
      <trkpt lat="45.545742027461529" lon="3.934706998988986">
        <ele>1054.7</ele>
        <time>2025-04-24T13:57:41Z</time>
      </trkpt>
      <trkpt lat="45.545605989173055" lon="3.93460800871253">
        <ele>1054.7</ele>
        <time>2025-04-24T13:57:42Z</time>
      </trkpt>
      <trkpt lat="45.545468023046851" lon="3.93460800871253">
        <ele>1054.22</ele>
        <time>2025-04-24T13:57:43Z</time>
      </trkpt>
      <trkpt lat="45.545327039435506" lon="3.93460800871253">
        <ele>1053.74</ele>
        <time>2025-04-24T13:57:44Z</time>
      </trkpt>
      <trkpt lat="45.545206004753709" lon="3.934671962633729">
        <ele>1053.26</ele>
        <time>2025-04-24T13:57:45Z</time>
      </trkpt>
      <trkpt lat="45.545071978121996" lon="3.934784028679133">
        <ele>1052.78</ele>
        <time>2025-04-24T13:57:46Z</time>
      </trkpt>
      <trkpt lat="45.544934011995792" lon="3.934900034219027">
        <ele>1051.8199999999999</ele>
        <time>2025-04-24T13:57:47Z</time>
      </trkpt>
      <trkpt lat="45.544798979535699" lon="3.93501402810216">
        <ele>1050.8599999999999</ele>
        <time>2025-04-24T13:57:48Z</time>
      </trkpt>
      <trkpt lat="45.544648021459579" lon="3.9351000264287">
        <ele>1049.9000000000001</ele>
        <time>2025-04-24T13:57:49Z</time>
      </trkpt>
      <trkpt lat="45.544485999271274" lon="3.935136990621686">
        <ele>1048.9400000000001</ele>
        <time>2025-04-24T13:57:50Z</time>
      </trkpt>
      <trkpt lat="45.544320037588477" lon="3.935159035027027">
        <ele>1047.97</ele>
        <time>2025-04-24T13:57:51Z</time>
      </trkpt>
      <trkpt lat="45.544157009571791" lon="3.935104971751571">
        <ele>1047.01</ele>
        <time>2025-04-24T13:57:52Z</time>
      </trkpt>
      <trkpt lat="45.543989036232233" lon="3.93501696176827">
        <ele>1045.5699999999999</ele>
        <time>2025-04-24T13:57:53Z</time>
      </trkpt>
      <trkpt lat="45.543808992952108" lon="3.934923000633717">
        <ele>1044.6099999999999</ele>
        <time>2025-04-24T13:57:54Z</time>
      </trkpt>
      <trkpt lat="45.543622998520732" lon="3.934827027842403">
        <ele>1043.6500000000001</ele>
        <time>2025-04-24T13:57:55Z</time>
      </trkpt>
      <trkpt lat="45.541468011215329" lon="3.933665966615081">
        <ele>1031.1500000000001</ele>
        <time>2025-04-24T13:58:06Z</time>
      </trkpt>
      <trkpt lat="45.541289979591966" lon="3.933521965518594">
        <ele>1030.1900000000001</ele>
        <time>2025-04-24T13:58:07Z</time>
      </trkpt>
      <trkpt lat="45.541140027344227" lon="3.933362038806081">
        <ele>1028.75</ele>
        <time>2025-04-24T13:58:08Z</time>
      </trkpt>
      <trkpt lat="45.540998037904501" lon="3.93318903632462">
        <ele>1027.79</ele>
        <time>2025-04-24T13:58:09Z</time>
      </trkpt>
      <trkpt lat="45.540281971916556" lon="3.932369034737349">
        <ele>1022.98</ele>
        <time>2025-04-24T13:58:14Z</time>
      </trkpt>
      <trkpt lat="45.540136964991689" lon="3.93228898756206">
        <ele>1022.5</ele>
        <time>2025-04-24T13:58:15Z</time>
      </trkpt>
      <trkpt lat="45.539976032450795" lon="3.932243976742029">
        <ele>1021.54</ele>
        <time>2025-04-24T13:58:16Z</time>
      </trkpt>
      <trkpt lat="45.539456019178033" lon="3.932098969817162">
        <ele>1017.6900000000001</ele>
        <time>2025-04-24T13:58:19Z</time>
      </trkpt>
      <trkpt lat="45.53927899338305" lon="3.932038033381105">
        <ele>1016.25</ele>
        <time>2025-04-24T13:58:20Z</time>
      </trkpt>
      <trkpt lat="45.539129041135311" lon="3.93190098926425">
        <ele>1015.29</ele>
        <time>2025-04-24T13:58:21Z</time>
      </trkpt>
      <trkpt lat="45.538137964904308" lon="3.931044023483992">
        <ele>1009.04</ele>
        <time>2025-04-24T13:58:27Z</time>
      </trkpt>
      <trkpt lat="45.537969991564751" lon="3.930945033207536">
        <ele>1008.08</ele>
        <time>2025-04-24T13:58:28Z</time>
      </trkpt>
      <trkpt lat="45.537805035710335" lon="3.93084897659719">
        <ele>1007.12</ele>
        <time>2025-04-24T13:58:29Z</time>
      </trkpt>
      <trkpt lat="45.537664974108338" lon="3.930767001584172">
        <ele>1006.16</ele>
        <time>2025-04-24T13:58:30Z</time>
      </trkpt>
      <trkpt lat="45.537526002153754" lon="3.930627023801208">
        <ele>1005.2</ele>
        <time>2025-04-24T13:58:31Z</time>
      </trkpt>
      <trkpt lat="45.537421982735395" lon="3.930497020483017">
        <ele>1004.23</ele>
        <time>2025-04-24T13:58:32Z</time>
      </trkpt>
      <trkpt lat="45.537333972752094" lon="3.93033298663795">
        <ele>1003.27</ele>
        <time>2025-04-24T13:58:33Z</time>
      </trkpt>
      <trkpt lat="45.537259038537741" lon="3.930166019126773">
        <ele>1001.83</ele>
        <time>2025-04-24T13:58:34Z</time>
      </trkpt>
      <trkpt lat="45.537188965827227" lon="3.929946999996901">
        <ele>1000.87</ele>
        <time>2025-04-24T13:58:35Z</time>
      </trkpt>
      <trkpt lat="45.536574991419911" lon="3.928642021492124">
        <ele>994.13999999999999</ele>
        <time>2025-04-24T13:58:40Z</time>
      </trkpt>
      <trkpt lat="45.536060007289052" lon="3.927650023251772">
        <ele>988.37</ele>
        <time>2025-04-24T13:58:44Z</time>
      </trkpt>
      <trkpt lat="45.535989012569189" lon="3.92738800495863">
        <ele>986.92999999999995</ele>
        <time>2025-04-24T13:58:45Z</time>
      </trkpt>
      <trkpt lat="45.535930003970861" lon="3.927127998322249">
        <ele>985.00999999999999</ele>
        <time>2025-04-24T13:58:46Z</time>
      </trkpt>
      <trkpt lat="45.535880969837308" lon="3.926862040534616">
        <ele>983.09000000000003</ele>
        <time>2025-04-24T13:58:47Z</time>
      </trkpt>
      <trkpt lat="45.535866972059011" lon="3.926587030291557">
        <ele>981.15999999999997</ele>
        <time>2025-04-24T13:58:48Z</time>
      </trkpt>
      <trkpt lat="45.53588398732245" lon="3.926304979249835">
        <ele>979.72000000000003</ele>
        <time>2025-04-24T13:58:49Z</time>
      </trkpt>
      <trkpt lat="45.535911982879043" lon="3.926028041169047">
        <ele>977.79999999999995</ele>
        <time>2025-04-24T13:58:50Z</time>
      </trkpt>
      <trkpt lat="45.535938972607255" lon="3.92575697042048">
        <ele>976.36000000000001</ele>
        <time>2025-04-24T13:58:51Z</time>
      </trkpt>
      <trkpt lat="45.535935033112764" lon="3.925501992926002">
        <ele>974.90999999999997</ele>
        <time>2025-04-24T13:58:52Z</time>
      </trkpt>
      <trkpt lat="45.535912988707423" lon="3.925265036523342">
        <ele>973.47000000000003</ele>
        <time>2025-04-24T13:58:53Z</time>
      </trkpt>
      <trkpt lat="45.535859009250998" lon="3.925070995464921">
        <ele>972.50999999999999</ele>
        <time>2025-04-24T13:58:54Z</time>
      </trkpt>
      <trkpt lat="45.535779967904091" lon="3.92487402074039">
        <ele>971.07000000000005</ele>
        <time>2025-04-24T13:58:55Z</time>
      </trkpt>
      <trkpt lat="45.535691035911441" lon="3.924650978296995">
        <ele>970.11000000000001</ele>
        <time>2025-04-24T13:58:56Z</time>
      </trkpt>
      <trkpt lat="45.535597996786237" lon="3.924468001350761">
        <ele>968.66999999999996</ele>
        <time>2025-04-24T13:58:57Z</time>
      </trkpt>
      <trkpt lat="45.534499967470765" lon="3.922603027895093">
        <ele>957.61000000000001</ele>
        <time>2025-04-24T13:59:06Z</time>
      </trkpt>
      <trkpt lat="45.533752972260118" lon="3.921789983287454">
        <ele>951.84000000000003</ele>
        <time>2025-04-24T13:59:11Z</time>
      </trkpt>
      <trkpt lat="45.533591033890843" lon="3.921697027981281">
        <ele>951.36000000000001</ele>
        <time>2025-04-24T13:59:12Z</time>
      </trkpt>
      <trkpt lat="45.533430017530918" lon="3.921629972755909">
        <ele>950.39999999999998</ele>
        <time>2025-04-24T13:59:13Z</time>
      </trkpt>
      <trkpt lat="45.533264977857471" lon="3.921592002734542">
        <ele>949.44000000000005</ele>
        <time>2025-04-24T13:59:14Z</time>
      </trkpt>
      <trkpt lat="45.533114019781351" lon="3.921590996906161">
        <ele>948.96000000000004</ele>
        <time>2025-04-24T13:59:15Z</time>
      </trkpt>
      <trkpt lat="45.532969012856483" lon="3.921601977199316">
        <ele>948.48000000000002</ele>
        <time>2025-04-24T13:59:16Z</time>
      </trkpt>
      <trkpt lat="45.532834986224771" lon="3.921613041311503">
        <ele>948</ele>
        <time>2025-04-24T13:59:17Z</time>
      </trkpt>
      <trkpt lat="45.532141970470548" lon="3.921598037704825">
        <ele>944.63</ele>
        <time>2025-04-24T13:59:23Z</time>
      </trkpt>
      <trkpt lat="45.532015990465879" lon="3.921572975814343">
        <ele>943.19000000000005</ele>
        <time>2025-04-24T13:59:24Z</time>
      </trkpt>
      <trkpt lat="45.531909037381411" lon="3.921512039378285">
        <ele>942.23000000000002</ele>
        <time>2025-04-24T13:59:25Z</time>
      </trkpt>
      <trkpt lat="45.531807029619813" lon="3.921410031616688">
        <ele>940.78999999999996</ele>
        <time>2025-04-24T13:59:26Z</time>
      </trkpt>
      <trkpt lat="45.531720025464892" lon="3.92130802385509">
        <ele>939.83000000000004</ele>
        <time>2025-04-24T13:59:27Z</time>
      </trkpt>
      <trkpt lat="45.531649030745029" lon="3.921187995001674">
        <ele>939.35000000000002</ele>
        <time>2025-04-24T13:59:28Z</time>
      </trkpt>
      <trkpt lat="45.531575018540025" lon="3.921063020825386">
        <ele>938.86000000000001</ele>
        <time>2025-04-24T13:59:29Z</time>
      </trkpt>
      <trkpt lat="45.531159024685621" lon="3.920474024489522">
        <ele>935.98000000000002</ele>
        <time>2025-04-24T13:59:34Z</time>
      </trkpt>
      <trkpt lat="45.531062968075275" lon="3.920373022556305">
        <ele>935.5</ele>
        <time>2025-04-24T13:59:35Z</time>
      </trkpt>
      <trkpt lat="45.530968001112342" lon="3.920272020623088">
        <ele>935.01999999999998</ele>
        <time>2025-04-24T13:59:36Z</time>
      </trkpt>
      <trkpt lat="45.530863981693983" lon="3.920218041166663">
        <ele>934.05999999999995</ele>
        <time>2025-04-24T13:59:37Z</time>
      </trkpt>
      <trkpt lat="45.530744958668947" lon="3.920171018689871">
        <ele>934.05999999999995</ele>
        <time>2025-04-24T13:59:38Z</time>
      </trkpt>
      <trkpt lat="45.530628031119704" lon="3.920123996213079">
        <ele>934.05999999999995</ele>
        <time>2025-04-24T13:59:39Z</time>
      </trkpt>
      <trkpt lat="45.530513031408191" lon="3.920077979564667">
        <ele>934.05999999999995</ele>
        <time>2025-04-24T13:59:40Z</time>
      </trkpt>
      <trkpt lat="45.530397025868297" lon="3.920042021200061">
        <ele>934.53999999999996</ele>
        <time>2025-04-24T13:59:41Z</time>
      </trkpt>
      <trkpt lat="45.529968962073326" lon="3.919859966263175">
        <ele>937.41999999999996</ele>
        <time>2025-04-24T13:59:45Z</time>
      </trkpt>
      <trkpt lat="45.529877012595534" lon="3.919801041483879">
        <ele>937.89999999999998</ele>
        <time>2025-04-24T13:59:46Z</time>
      </trkpt>
      <trkpt lat="45.529786990955472" lon="3.919717976823449">
        <ele>938.86000000000001</ele>
        <time>2025-04-24T13:59:47Z</time>
      </trkpt>
      <trkpt lat="45.529726976528764" lon="3.919620998203754">
        <ele>939.35000000000002</ele>
        <time>2025-04-24T13:59:48Z</time>
      </trkpt>
      <trkpt lat="45.5296750087291" lon="3.919536005705595">
        <ele>940.78999999999996</ele>
        <time>2025-04-24T13:59:49Z</time>
      </trkpt>
      <trkpt lat="45.52963100373745" lon="3.919443972408772">
        <ele>941.75</ele>
        <time>2025-04-24T13:59:50Z</time>
      </trkpt>
      <trkpt lat="45.529605019837618" lon="3.919339030981064">
        <ele>942.71000000000004</ele>
        <time>2025-04-24T13:59:51Z</time>
      </trkpt>
      <trkpt lat="45.529367979615927" lon="3.918065987527371">
        <ele>946.55999999999995</ele>
        <time>2025-04-24T14:00:02Z</time>
      </trkpt>
      <trkpt lat="45.529087018221617" lon="3.917132997885346">
        <ele>946.07000000000005</ele>
        <time>2025-04-24T14:00:11Z</time>
      </trkpt>
      <trkpt lat="45.529056005179882" lon="3.917041970416904">
        <ele>945.59000000000003</ele>
        <time>2025-04-24T14:00:12Z</time>
      </trkpt>
      <trkpt lat="45.528792981058359" lon="3.916489016264677">
        <ele>945.11000000000001</ele>
        <time>2025-04-24T14:00:19Z</time>
      </trkpt>
      <trkpt lat="45.528737995773554" lon="3.916413998231292">
        <ele>944.63</ele>
        <time>2025-04-24T14:00:20Z</time>
      </trkpt>
      <trkpt lat="45.528415041044354" lon="3.916133036836982">
        <ele>944.14999999999998</ele>
        <time>2025-04-24T14:00:25Z</time>
      </trkpt>
      <trkpt lat="45.528349997475743" lon="3.916105041280389">
        <ele>944.63</ele>
        <time>2025-04-24T14:00:26Z</time>
      </trkpt>
      <trkpt lat="45.528270034119487" lon="3.91608702018857">
        <ele>944.63</ele>
        <time>2025-04-24T14:00:27Z</time>
      </trkpt>
      <trkpt lat="45.528182024136186" lon="3.91606698743999">
        <ele>944.14999999999998</ele>
        <time>2025-04-24T14:00:28Z</time>
      </trkpt>
      <trkpt lat="45.528095019981265" lon="3.916047038510442">
        <ele>944.14999999999998</ele>
        <time>2025-04-24T14:00:29Z</time>
      </trkpt>
      <trkpt lat="45.527725964784622" lon="3.915990963578224">
        <ele>942.71000000000004</ele>
        <time>2025-04-24T14:00:33Z</time>
      </trkpt>
      <trkpt lat="45.527629991993308" lon="3.915950981900096">
        <ele>942.23000000000002</ele>
        <time>2025-04-24T14:00:34Z</time>
      </trkpt>
      <trkpt lat="45.527552040293813" lon="3.915885016322136">
        <ele>941.75</ele>
        <time>2025-04-24T14:00:35Z</time>
      </trkpt>
      <trkpt lat="45.527474004775286" lon="3.915770016610622">
        <ele>941.26999999999998</ele>
        <time>2025-04-24T14:00:36Z</time>
      </trkpt>
      <trkpt lat="45.527406027540565" lon="3.915630960837007">
        <ele>940.78999999999996</ele>
        <time>2025-04-24T14:00:37Z</time>
      </trkpt>
      <trkpt lat="45.527360010892153" lon="3.915480002760887">
        <ele>940.30999999999995</ele>
        <time>2025-04-24T14:00:38Z</time>
      </trkpt>
      <trkpt lat="45.52731298841536" lon="3.915328960865736">
        <ele>939.83000000000004</ele>
        <time>2025-04-24T14:00:39Z</time>
      </trkpt>
      <trkpt lat="45.526970000937581" lon="3.91426001675427">
        <ele>937.89999999999998</ele>
        <time>2025-04-24T14:00:46Z</time>
      </trkpt>
      <trkpt lat="45.526478989049792" lon="3.912926958873868">
        <ele>937.41999999999996</ele>
        <time>2025-04-24T14:00:55Z</time>
      </trkpt>
      <trkpt lat="45.526390979066491" lon="3.912809025496244">
        <ele>937.41999999999996</ele>
        <time>2025-04-24T14:00:56Z</time>
      </trkpt>
      <trkpt lat="45.525966016575694" lon="3.912246013060212">
        <ele>936.46000000000004</ele>
        <time>2025-04-24T14:01:01Z</time>
      </trkpt>
      <trkpt lat="45.52589301019907" lon="3.912150962278247">
        <ele>936.46000000000004</ele>
        <time>2025-04-24T14:01:02Z</time>
      </trkpt>
      <trkpt lat="45.525838024914265" lon="3.911883998662233">
        <ele>936.46000000000004</ele>
        <time>2025-04-24T14:01:04Z</time>
      </trkpt>
      <trkpt lat="45.525754038244486" lon="3.911846028640866">
        <ele>935.98000000000002</ele>
        <time>2025-04-24T14:01:05Z</time>
      </trkpt>
      <trkpt lat="45.525735011324286" lon="3.911840999498963">
        <ele>935.5</ele>
        <time>2025-04-24T14:01:06Z</time>
      </trkpt>
      <trkpt lat="45.525552034378052" lon="3.911872012540698">
        <ele>935.5</ele>
        <time>2025-04-24T14:01:07Z</time>
      </trkpt>
      <trkpt lat="45.525454971939325" lon="3.911808980628848">
        <ele>935.5</ele>
        <time>2025-04-24T14:01:08Z</time>
      </trkpt>
      <trkpt lat="45.525351958349347" lon="3.911743015050888">
        <ele>935.01999999999998</ele>
        <time>2025-04-24T14:01:09Z</time>
      </trkpt>
      <trkpt lat="45.524342022836208" lon="3.911194000393152">
        <ele>935.01999999999998</ele>
        <time>2025-04-24T14:01:18Z</time>
      </trkpt>
      <trkpt lat="45.523134022951126" lon="3.911178996786475">
        <ele>937.89999999999998</ele>
        <time>2025-04-24T14:01:28Z</time>
      </trkpt>
      <trkpt lat="45.522067006677389" lon="3.911603959277272">
        <ele>941.75</ele>
        <time>2025-04-24T14:01:37Z</time>
      </trkpt>
      <trkpt lat="45.52052297629416" lon="3.912275014445186">
        <ele>948</ele>
        <time>2025-04-24T14:01:50Z</time>
      </trkpt>
      <trkpt lat="45.520281996577978" lon="3.912304015830159">
        <ele>948.96000000000004</ele>
        <time>2025-04-24T14:01:52Z</time>
      </trkpt>
      <trkpt lat="45.520162973552942" lon="3.912291023880243">
        <ele>949.44000000000005</ele>
        <time>2025-04-24T14:01:53Z</time>
      </trkpt>
      <trkpt lat="45.520039005205035" lon="3.912278031930327">
        <ele>949.44000000000005</ele>
        <time>2025-04-24T14:01:54Z</time>
      </trkpt>
      <trkpt lat="45.518994033336639" lon="3.912059012800455">
        <ele>952.32000000000005</ele>
        <time>2025-04-24T14:02:01Z</time>
      </trkpt>
      <trkpt lat="45.518827987834811" lon="3.911992041394115">
        <ele>953.27999999999997</ele>
        <time>2025-04-24T14:02:02Z</time>
      </trkpt>
      <trkpt lat="45.518661020323634" lon="3.911913000047207">
        <ele>953.76999999999998</ele>
        <time>2025-04-24T14:02:03Z</time>
      </trkpt>
      <trkpt lat="45.517312958836555" lon="3.91110397875309">
        <ele>957.13</ele>
        <time>2025-04-24T14:02:11Z</time>
      </trkpt>
      <trkpt lat="45.517140040174127" lon="3.9110810123384">
        <ele>957.61000000000001</ele>
        <time>2025-04-24T14:02:12Z</time>
      </trkpt>
      <trkpt lat="45.516966031864285" lon="3.911082018166781">
        <ele>958.09000000000003</ele>
        <time>2025-04-24T14:02:13Z</time>
      </trkpt>
      <trkpt lat="45.516792023554444" lon="3.911113031208515">
        <ele>959.04999999999995</ele>
        <time>2025-04-24T14:02:14Z</time>
      </trkpt>
      <trkpt lat="45.516614997759461" lon="3.911143038421869">
        <ele>959.52999999999997</ele>
        <time>2025-04-24T14:02:15Z</time>
      </trkpt>
      <trkpt lat="45.516075035557151" lon="3.911196012049913">
        <ele>960.98000000000002</ele>
        <time>2025-04-24T14:02:18Z</time>
      </trkpt>
      <trkpt lat="45.515894992277026" lon="3.911157958209515">
        <ele>961.94000000000005</ele>
        <time>2025-04-24T14:02:19Z</time>
      </trkpt>
      <trkpt lat="45.515713021159172" lon="3.911119988188148">
        <ele>962.41999999999996</ele>
        <time>2025-04-24T14:02:20Z</time>
      </trkpt>
      <trkpt lat="45.515543958172202" lon="3.911020997911692">
        <ele>962.89999999999998</ele>
        <time>2025-04-24T14:02:21Z</time>
      </trkpt>
      <trkpt lat="45.515376990661025" lon="3.910900969058275">
        <ele>963.86000000000001</ele>
        <time>2025-04-24T14:02:22Z</time>
      </trkpt>
      <trkpt lat="45.515212034806609" lon="3.910784041509032">
        <ele>964.34000000000003</ele>
        <time>2025-04-24T14:02:23Z</time>
      </trkpt>
      <trkpt lat="45.515046995133162" lon="3.910653032362461">
        <ele>964.82000000000005</ele>
        <time>2025-04-24T14:02:24Z</time>
      </trkpt>
      <trkpt lat="45.514903999865055" lon="3.910480029881001">
        <ele>965.29999999999995</ele>
        <time>2025-04-24T14:02:25Z</time>
      </trkpt>
      <trkpt lat="45.514769973233342" lon="3.910317001864314">
        <ele>966.25999999999999</ele>
        <time>2025-04-24T14:02:26Z</time>
      </trkpt>
      <trkpt lat="45.514681041240692" lon="3.910106029361486">
        <ele>967.22000000000003</ele>
        <time>2025-04-24T14:02:27Z</time>
      </trkpt>
      <trkpt lat="45.51459202542901" lon="3.909896984696388">
        <ele>967.70000000000005</ele>
        <time>2025-04-24T14:02:28Z</time>
      </trkpt>
      <trkpt lat="45.514504015445709" lon="3.909689029678702">
        <ele>968.17999999999995</ele>
        <time>2025-04-24T14:02:29Z</time>
      </trkpt>
      <trkpt lat="45.51433403044939" lon="3.909288039430976">
        <ele>969.63</ele>
        <time>2025-04-24T14:02:31Z</time>
      </trkpt>
      <trkpt lat="45.514277033507824" lon="3.909093998372555">
        <ele>970.59000000000003</ele>
        <time>2025-04-24T14:02:32Z</time>
      </trkpt>
      <trkpt lat="45.514238979667425" lon="3.908858969807625">
        <ele>971.07000000000005</ele>
        <time>2025-04-24T14:02:33Z</time>
      </trkpt>
      <trkpt lat="45.513976039364934" lon="3.906561993062496">
        <ele>975.38999999999999</ele>
        <time>2025-04-24T14:02:42Z</time>
      </trkpt>
      <trkpt lat="45.513959024101496" lon="3.906287988647819">
        <ele>975.88</ele>
        <time>2025-04-24T14:02:43Z</time>
      </trkpt>
      <trkpt lat="45.513976961374283" lon="3.906019013375044">
        <ele>976.36000000000001</ele>
        <time>2025-04-24T14:02:44Z</time>
      </trkpt>
      <trkpt lat="45.514027001336217" lon="3.905771998688579">
        <ele>976.84000000000003</ele>
        <time>2025-04-24T14:02:45Z</time>
      </trkpt>
      <trkpt lat="45.514130014926195" lon="3.90556002035737">
        <ele>977.32000000000005</ele>
        <time>2025-04-24T14:02:46Z</time>
      </trkpt>
      <trkpt lat="45.514232022687793" lon="3.905347036197782">
        <ele>978.27999999999997</ele>
        <time>2025-04-24T14:02:47Z</time>
      </trkpt>
      <trkpt lat="45.514344004914165" lon="3.905143020674586">
        <ele>978.75999999999999</ele>
        <time>2025-04-24T14:02:48Z</time>
      </trkpt>
      <trkpt lat="45.514479959383607" lon="3.904944034293294">
        <ele>979.72000000000003</ele>
        <time>2025-04-24T14:02:49Z</time>
      </trkpt>
      <trkpt lat="45.515221003443003" lon="3.903622962534428">
        <ele>984.04999999999995</ele>
        <time>2025-04-24T14:02:55Z</time>
      </trkpt>
      <trkpt lat="45.515281017869711" lon="3.903336971998215">
        <ele>985.00999999999999</ele>
        <time>2025-04-24T14:02:56Z</time>
      </trkpt>
      <trkpt lat="45.515341032296419" lon="3.903050981462002">
        <ele>985.49000000000001</ele>
        <time>2025-04-24T14:02:57Z</time>
      </trkpt>
      <trkpt lat="45.51564403809607" lon="3.901604013517499">
        <ele>990.29999999999995</ele>
        <time>2025-04-24T14:03:02Z</time>
      </trkpt>
      <trkpt lat="45.515749985352159" lon="3.901320034638047">
        <ele>990.77999999999997</ele>
        <time>2025-04-24T14:03:03Z</time>
      </trkpt>
      <trkpt lat="45.516104958951473" lon="3.900608997792006">
        <ele>992.70000000000005</ele>
        <time>2025-04-24T14:03:06Z</time>
      </trkpt>
      <trkpt lat="45.516192968934774" lon="3.900391990318894">
        <ele>992.70000000000005</ele>
        <time>2025-04-24T14:03:07Z</time>
      </trkpt>
      <trkpt lat="45.516272010281682" lon="3.900169031694531">
        <ele>992.70000000000005</ele>
        <time>2025-04-24T14:03:08Z</time>
      </trkpt>
      <trkpt lat="45.516299000009894" lon="3.899949006736279">
        <ele>993.17999999999995</ele>
        <time>2025-04-24T14:03:09Z</time>
      </trkpt>
      <trkpt lat="45.516329007223248" lon="3.899710960686207">
        <ele>993.65999999999997</ele>
        <time>2025-04-24T14:03:10Z</time>
      </trkpt>
      <trkpt lat="45.516317021101713" lon="3.899488002061844">
        <ele>993.65999999999997</ele>
        <time>2025-04-24T14:03:11Z</time>
      </trkpt>
      <trkpt lat="45.51628801971674" lon="3.899239981546998">
        <ele>994.13999999999999</ele>
        <time>2025-04-24T14:03:12Z</time>
      </trkpt>
      <trkpt lat="45.516258012503386" lon="3.898990033194423">
        <ele>995.10000000000002</ele>
        <time>2025-04-24T14:03:13Z</time>
      </trkpt>
      <trkpt lat="45.516228005290031" lon="3.898738995194435">
        <ele>995.58000000000004</ele>
        <time>2025-04-24T14:03:14Z</time>
      </trkpt>
      <trkpt lat="45.516147036105394" lon="3.897974984720349">
        <ele>997.01999999999998</ele>
        <time>2025-04-24T14:03:17Z</time>
      </trkpt>
      <trkpt lat="45.516164973378181" lon="3.897722018882632">
        <ele>997.99000000000001</ele>
        <time>2025-04-24T14:03:18Z</time>
      </trkpt>
      <trkpt lat="45.516221970319748" lon="3.89748296700418">
        <ele>998.95000000000005</ele>
        <time>2025-04-24T14:03:19Z</time>
      </trkpt>
      <trkpt lat="45.516281984746456" lon="3.897242993116379">
        <ele>999.90999999999997</ele>
        <time>2025-04-24T14:03:20Z</time>
      </trkpt>
      <trkpt lat="45.516372006386518" lon="3.897004025056958">
        <ele>1000.39</ele>
        <time>2025-04-24T14:03:21Z</time>
      </trkpt>
      <trkpt lat="45.516537968069315" lon="3.896556012332439">
        <ele>1002.3099999999999</ele>
        <time>2025-04-24T14:03:23Z</time>
      </trkpt>
      <trkpt lat="45.516650034114718" lon="3.896401030942798">
        <ele>1003.27</ele>
        <time>2025-04-24T14:03:24Z</time>
      </trkpt>
      <trkpt lat="45.516766039654613" lon="3.896262980997562">
        <ele>1004.72</ele>
        <time>2025-04-24T14:03:25Z</time>
      </trkpt>
      <trkpt lat="45.5169100407511" lon="3.896190980449319">
        <ele>1006.16</ele>
        <time>2025-04-24T14:03:26Z</time>
      </trkpt>
      <trkpt lat="45.517057981342077" lon="3.896144041791558">
        <ele>1007.6</ele>
        <time>2025-04-24T14:03:27Z</time>
      </trkpt>
      <trkpt lat="45.517232995480299" lon="3.896116968244314">
        <ele>1009.04</ele>
        <time>2025-04-24T14:03:28Z</time>
      </trkpt>
      <trkpt lat="45.518356002867222" lon="3.895874982699752">
        <ele>1015.29</ele>
        <time>2025-04-24T14:03:34Z</time>
      </trkpt>
      <trkpt lat="45.519137028604746" lon="3.895520009100437">
        <ele>1019.13</ele>
        <time>2025-04-24T14:03:38Z</time>
      </trkpt>
      <trkpt lat="45.520230028778315" lon="3.895300989970565">
        <ele>1024.4200000000001</ele>
        <time>2025-04-24T14:03:44Z</time>
      </trkpt>
      <trkpt lat="45.520369000732899" lon="3.895205017179251">
        <ele>1025.8599999999999</ele>
        <time>2025-04-24T14:03:45Z</time>
      </trkpt>
      <trkpt lat="45.52047997713089" lon="3.895050035789609">
        <ele>1026.8299999999999</ele>
        <time>2025-04-24T14:03:46Z</time>
      </trkpt>
      <trkpt lat="45.520580979064107" lon="3.894880972802639">
        <ele>1027.3099999999999</ele>
        <time>2025-04-24T14:03:47Z</time>
      </trkpt>
      <trkpt lat="45.520648034289479" lon="3.894679974764586">
        <ele>1027.79</ele>
        <time>2025-04-24T14:03:48Z</time>
      </trkpt>
      <trkpt lat="45.520671000704169" lon="3.894476965069771">
        <ele>1028.75</ele>
        <time>2025-04-24T14:03:49Z</time>
      </trkpt>
      <trkpt lat="45.520671000704169" lon="3.894263980910182">
        <ele>1029.71</ele>
        <time>2025-04-24T14:03:50Z</time>
      </trkpt>
      <trkpt lat="45.520632024854422" lon="3.89406499452889">
        <ele>1029.71</ele>
        <time>2025-04-24T14:03:51Z</time>
      </trkpt>
      <trkpt lat="45.520585002377629" lon="3.893901966512203">
        <ele>1029.71</ele>
        <time>2025-04-24T14:03:52Z</time>
      </trkpt>
      <trkpt lat="45.520464973524213" lon="3.893714966252446">
        <ele>1029.71</ele>
        <time>2025-04-24T14:03:53Z</time>
      </trkpt>
      <trkpt lat="45.520355002954602" lon="3.893580017611384">
        <ele>1029.71</ele>
        <time>2025-04-24T14:03:54Z</time>
      </trkpt>
      <trkpt lat="45.520197004079819" lon="3.893487984314561">
        <ele>1029.71</ele>
        <time>2025-04-24T14:03:55Z</time>
      </trkpt>
      <trkpt lat="45.520025007426739" lon="3.893425036221743">
        <ele>1030.1900000000001</ele>
        <time>2025-04-24T14:03:56Z</time>
      </trkpt>
      <trkpt lat="45.519831972196698" lon="3.89337801374495">
        <ele>1030.6700000000001</ele>
        <time>2025-04-24T14:03:57Z</time>
      </trkpt>
      <trkpt lat="45.518339993432164" lon="3.892780970782042">
        <ele>1033.0699999999999</ele>
        <time>2025-04-24T14:04:04Z</time>
      </trkpt>
      <trkpt lat="45.517538012936711" lon="3.892507972195745">
        <ele>1033.0699999999999</ele>
        <time>2025-04-24T14:04:08Z</time>
      </trkpt>
      <trkpt lat="45.517382025718689" lon="3.892351984977722">
        <ele>1033.0699999999999</ele>
        <time>2025-04-24T14:04:09Z</time>
      </trkpt>
      <trkpt lat="45.517201982438564" lon="3.892171019688249">
        <ele>1033.0699999999999</ele>
        <time>2025-04-24T14:04:10Z</time>
      </trkpt>
      <trkpt lat="45.517056975513697" lon="3.891994999721646">
        <ele>1033.0699999999999</ele>
        <time>2025-04-24T14:04:11Z</time>
      </trkpt>
      <trkpt lat="45.517023028805852" lon="3.891949988901615">
        <ele>1033.0699999999999</ele>
        <time>2025-04-24T14:04:12Z</time>
      </trkpt>
      <trkpt lat="45.516896964982152" lon="3.891608007252216">
        <ele>1032.5899999999999</ele>
        <time>2025-04-24T14:04:13Z</time>
      </trkpt>
      <trkpt lat="45.516853965818882" lon="3.891429975628853">
        <ele>1033.0699999999999</ele>
        <time>2025-04-24T14:04:14Z</time>
      </trkpt>
      <trkpt lat="45.516807027161121" lon="3.891149014234543">
        <ele>1033.55</ele>
        <time>2025-04-24T14:04:15Z</time>
      </trkpt>
      <trkpt lat="45.516758998855948" lon="3.890860006213188">
        <ele>1034.04</ele>
        <time>2025-04-24T14:04:16Z</time>
      </trkpt>
      <trkpt lat="45.516711976379156" lon="3.890578038990498">
        <ele>1034.52</ele>
        <time>2025-04-24T14:04:17Z</time>
      </trkpt>
      <trkpt lat="45.516622960567474" lon="3.890247037634254">
        <ele>1034.52</ele>
        <time>2025-04-24T14:04:18Z</time>
      </trkpt>
      <trkpt lat="45.516541991382837" lon="3.889970015734434">
        <ele>1035</ele>
        <time>2025-04-24T14:04:19Z</time>
      </trkpt>
      <trkpt lat="45.51646001636982" lon="3.889692993834615">
        <ele>1035.48</ele>
        <time>2025-04-24T14:04:20Z</time>
      </trkpt>
      <trkpt lat="45.516378963366151" lon="3.889417983591557">
        <ele>1035.96</ele>
        <time>2025-04-24T14:04:21Z</time>
      </trkpt>
      <trkpt lat="45.516360020264983" lon="3.889171974733472">
        <ele>1036.9200000000001</ele>
        <time>2025-04-24T14:04:22Z</time>
      </trkpt>
      <trkpt lat="45.516335964202881" lon="3.888881038874388">
        <ele>1037.4000000000001</ele>
        <time>2025-04-24T14:04:23Z</time>
      </trkpt>
      <trkpt lat="45.516421962529421" lon="3.887703968212009">
        <ele>1040.28</ele>
        <time>2025-04-24T14:04:27Z</time>
      </trkpt>
      <trkpt lat="45.51648398861289" lon="3.887417977675796">
        <ele>1041.25</ele>
        <time>2025-04-24T14:04:28Z</time>
      </trkpt>
      <trkpt lat="45.516668977215886" lon="3.886572998017073">
        <ele>1044.1300000000001</ele>
        <time>2025-04-24T14:04:31Z</time>
      </trkpt>
      <trkpt lat="45.516648022457957" lon="3.886264963075519">
        <ele>1045.0899999999999</ele>
        <time>2025-04-24T14:04:32Z</time>
      </trkpt>
      <trkpt lat="45.516608962789178" lon="3.885974027216435">
        <ele>1045.5699999999999</ele>
        <time>2025-04-24T14:04:33Z</time>
      </trkpt>
      <trkpt lat="45.516462028026581" lon="3.885199958458543">
        <ele>1048.9400000000001</ele>
        <time>2025-04-24T14:04:36Z</time>
      </trkpt>
      <trkpt lat="45.516523970291018" lon="3.88474197126925">
        <ele>1050.8599999999999</ele>
        <time>2025-04-24T14:04:38Z</time>
      </trkpt>
      <trkpt lat="45.516623966395855" lon="3.88456704095006">
        <ele>1052.78</ele>
        <time>2025-04-24T14:04:39Z</time>
      </trkpt>
      <trkpt lat="45.516734020784497" lon="3.884389009326696">
        <ele>1053.74</ele>
        <time>2025-04-24T14:04:40Z</time>
      </trkpt>
      <trkpt lat="45.517129981890321" lon="3.88375299051404">
        <ele>1057.5899999999999</ele>
        <time>2025-04-24T14:04:43Z</time>
      </trkpt>
      <trkpt lat="45.518389027565718" lon="3.882629983127117">
        <ele>1064.8</ele>
        <time>2025-04-24T14:04:50Z</time>
      </trkpt>
      <trkpt lat="45.518968971446157" lon="3.882042998448014">
        <ele>1068.6400000000001</ele>
        <time>2025-04-24T14:04:54Z</time>
      </trkpt>
      <trkpt lat="45.519062010571361" lon="3.881886005401611">
        <ele>1069.1199999999999</ele>
        <time>2025-04-24T14:04:55Z</time>
      </trkpt>
      <trkpt lat="45.519078020006418" lon="3.88169196434319">
        <ele>1070.0799999999999</ele>
        <time>2025-04-24T14:04:56Z</time>
      </trkpt>
      <trkpt lat="45.519096963107586" lon="3.881464982405305">
        <ele>1071.05</ele>
        <time>2025-04-24T14:04:57Z</time>
      </trkpt>
      <trkpt lat="45.519091011956334" lon="3.881263984367251">
        <ele>1071.53</ele>
        <time>2025-04-24T14:04:58Z</time>
      </trkpt>
      <trkpt lat="45.519058993086219" lon="3.881008001044393">
        <ele>1072.49</ele>
        <time>2025-04-24T14:04:59Z</time>
      </trkpt>
      <trkpt lat="45.519024962559342" lon="3.880738019943237">
        <ele>1073.45</ele>
        <time>2025-04-24T14:05:00Z</time>
      </trkpt>
      <trkpt lat="45.518950028344989" lon="3.879825985059142">
        <ele>1076.3299999999999</ele>
        <time>2025-04-24T14:05:03Z</time>
      </trkpt>
      <trkpt lat="45.518981963396072" lon="3.879517028108239">
        <ele>1077.29</ele>
        <time>2025-04-24T14:05:04Z</time>
      </trkpt>
      <trkpt lat="45.519110038876534" lon="3.878276003524661">
        <ele>1080.6600000000001</ele>
        <time>2025-04-24T14:05:08Z</time>
      </trkpt>
      <trkpt lat="45.519128981977701" lon="3.877462958917022">
        <ele>1082.5799999999999</ele>
        <time>2025-04-24T14:05:11Z</time>
      </trkpt>
      <trkpt lat="45.519085982814431" lon="3.877202030271292">
        <ele>1083.0599999999999</ele>
        <time>2025-04-24T14:05:12Z</time>
      </trkpt>
      <trkpt lat="45.519025968387723" lon="3.876961972564459">
        <ele>1083.54</ele>
        <time>2025-04-24T14:05:13Z</time>
      </trkpt>
      <trkpt lat="45.518933013081551" lon="3.876708000898361">
        <ele>1084.02</ele>
        <time>2025-04-24T14:05:14Z</time>
      </trkpt>
      <trkpt lat="45.518838968127966" lon="3.876450005918741">
        <ele>1084.5</ele>
        <time>2025-04-24T14:05:15Z</time>
      </trkpt>
      <trkpt lat="45.518466979265213" lon="3.875142009928823">
        <ele>1087.8699999999999</ele>
        <time>2025-04-24T14:05:20Z</time>
      </trkpt>
      <trkpt lat="45.518443007022142" lon="3.874890971928835">
        <ele>1088.3499999999999</ele>
        <time>2025-04-24T14:05:21Z</time>
      </trkpt>
      <trkpt lat="45.518452981486917" lon="3.874652003869414">
        <ele>1089.3099999999999</ele>
        <time>2025-04-24T14:05:22Z</time>
      </trkpt>
      <trkpt lat="45.518621960654855" lon="3.87260003015399">
        <ele>1093.1600000000001</ele>
        <time>2025-04-24T14:05:29Z</time>
      </trkpt>
      <trkpt lat="45.519125964492559" lon="3.870428027585149">
        <ele>1098.9200000000001</ele>
        <time>2025-04-24T14:05:37Z</time>
      </trkpt>
      <trkpt lat="45.51936199888587" lon="3.869955958798528">
        <ele>1100.3699999999999</ele>
        <time>2025-04-24T14:05:39Z</time>
      </trkpt>
      <trkpt lat="45.519487978890538" lon="3.869800977408886">
        <ele>1101.3299999999999</ele>
        <time>2025-04-24T14:05:40Z</time>
      </trkpt>
      <trkpt lat="45.519628962501884" lon="3.869626969099045">
        <ele>1101.8099999999999</ele>
        <time>2025-04-24T14:05:41Z</time>
      </trkpt>
      <trkpt lat="45.520040011033416" lon="3.868989022448659">
        <ele>1104.21</ele>
        <time>2025-04-24T14:05:44Z</time>
      </trkpt>
      <trkpt lat="45.520132966339588" lon="3.868762040510774">
        <ele>1104.6900000000001</ele>
        <time>2025-04-24T14:05:45Z</time>
      </trkpt>
      <trkpt lat="45.520468996837735" lon="3.868103977292776">
        <ele>1107.5799999999999</ele>
        <time>2025-04-24T14:05:49Z</time>
      </trkpt>
      <trkpt lat="45.520542003214359" lon="3.868045974522829">
        <ele>1108.54</ele>
        <time>2025-04-24T14:05:50Z</time>
      </trkpt>
      <trkpt lat="45.520707964897156" lon="3.867968022823334">
        <ele>1109.02</ele>
        <time>2025-04-24T14:05:51Z</time>
      </trkpt>
      <trkpt lat="45.520874010398984" lon="3.867889987304807">
        <ele>1109.5</ele>
        <time>2025-04-24T14:05:52Z</time>
      </trkpt>
      <trkpt lat="45.521051958203316" lon="3.867806000635028">
        <ele>1109.5</ele>
        <time>2025-04-24T14:05:53Z</time>
      </trkpt>
      <trkpt lat="45.521438028663397" lon="3.867582036182284">
        <ele>1110.46</ele>
        <time>2025-04-24T14:05:55Z</time>
      </trkpt>
      <trkpt lat="45.52161798812449" lon="3.867365028709173">
        <ele>1110.46</ele>
        <time>2025-04-24T14:05:56Z</time>
      </trkpt>
      <trkpt lat="45.521755032241344" lon="3.867161013185978">
        <ele>1111.4200000000001</ele>
        <time>2025-04-24T14:05:57Z</time>
      </trkpt>
      <trkpt lat="45.521874977275729" lon="3.866933025419712">
        <ele>1111.9000000000001</ele>
        <time>2025-04-24T14:05:58Z</time>
      </trkpt>
      <trkpt lat="45.521984025835991" lon="3.866692967712879">
        <ele>1112.8599999999999</ele>
        <time>2025-04-24T14:05:59Z</time>
      </trkpt>
      <trkpt lat="45.522175971418619" lon="3.8661980163306">
        <ele>1114.3099999999999</ele>
        <time>2025-04-24T14:06:01Z</time>
      </trkpt>
      <trkpt lat="45.522244032472372" lon="3.865943038836122">
        <ele>1115.75</ele>
        <time>2025-04-24T14:06:02Z</time>
      </trkpt>
      <trkpt lat="45.522312009707093" lon="3.86568303219974">
        <ele>1117.1900000000001</ele>
        <time>2025-04-24T14:06:03Z</time>
      </trkpt>
      <trkpt lat="45.522340005263686" lon="3.865454038605094">
        <ele>1118.1500000000001</ele>
        <time>2025-04-24T14:06:04Z</time>
      </trkpt>
      <trkpt lat="45.522362971678376" lon="3.865187996998429">
        <ele>1119.5899999999999</ele>
        <time>2025-04-24T14:06:05Z</time>
      </trkpt>
      <trkpt lat="45.522386021912098" lon="3.864932013675571">
        <ele>1120.55</ele>
        <time>2025-04-24T14:06:06Z</time>
      </trkpt>
      <trkpt lat="45.522371018305421" lon="3.864730009809136">
        <ele>1121.52</ele>
        <time>2025-04-24T14:06:07Z</time>
      </trkpt>
      <trkpt lat="45.52234897390008" lon="3.864477965980768">
        <ele>1122</ele>
        <time>2025-04-24T14:06:08Z</time>
      </trkpt>
      <trkpt lat="45.52230597473681" lon="3.863989971578121">
        <ele>1123.9200000000001</ele>
        <time>2025-04-24T14:06:10Z</time>
      </trkpt>
      <trkpt lat="45.52234897390008" lon="3.863682020455599">
        <ele>1124.8800000000001</ele>
        <time>2025-04-24T14:06:11Z</time>
      </trkpt>
      <trkpt lat="45.522397002205253" lon="3.863412961363792">
        <ele>1125.8399999999999</ele>
        <time>2025-04-24T14:06:12Z</time>
      </trkpt>
      <trkpt lat="45.522446958348155" lon="3.863130994141102">
        <ele>1126.8</ele>
        <time>2025-04-24T14:06:13Z</time>
      </trkpt>
      <trkpt lat="45.522501021623611" lon="3.862833017483354">
        <ele>1127.76</ele>
        <time>2025-04-24T14:06:14Z</time>
      </trkpt>
      <trkpt lat="45.52258500829339" lon="3.8625249825418">
        <ele>1128.73</ele>
        <time>2025-04-24T14:06:15Z</time>
      </trkpt>
      <trkpt lat="45.522676035761833" lon="3.862234968692064">
        <ele>1129.6900000000001</ele>
        <time>2025-04-24T14:06:16Z</time>
      </trkpt>
      <trkpt lat="45.523227984085679" lon="3.860853966325522">
        <ele>1134.97</ele>
        <time>2025-04-24T14:06:21Z</time>
      </trkpt>
      <trkpt lat="45.523339966312051" lon="3.860637964680791">
        <ele>1135.9400000000001</ele>
        <time>2025-04-24T14:06:22Z</time>
      </trkpt>
      <trkpt lat="45.52344499155879" lon="3.860435960814357">
        <ele>1136.4200000000001</ele>
        <time>2025-04-24T14:06:23Z</time>
      </trkpt>
      <trkpt lat="45.523589998483658" lon="3.860277961939573">
        <ele>1137.3800000000001</ele>
        <time>2025-04-24T14:06:24Z</time>
      </trkpt>
      <trkpt lat="45.5237449798733" lon="3.860122980549932">
        <ele>1138.8199999999999</ele>
        <time>2025-04-24T14:06:25Z</time>
      </trkpt>
      <trkpt lat="45.524975024163723" lon="3.858779026195407">
        <ele>1146.99</ele>
        <time>2025-04-24T14:06:32Z</time>
      </trkpt>
      <trkpt lat="45.525164036080241" lon="3.85859495960176">
        <ele>1148.4300000000001</ele>
        <time>2025-04-24T14:06:33Z</time>
      </trkpt>
      <trkpt lat="45.525345001369715" lon="3.858407959342003">
        <ele>1149.3900000000001</ele>
        <time>2025-04-24T14:06:34Z</time>
      </trkpt>
      <trkpt lat="45.525526972487569" lon="3.858220037072897">
        <ele>1150.8399999999999</ele>
        <time>2025-04-24T14:06:35Z</time>
      </trkpt>
      <trkpt lat="45.526502961292863" lon="3.857215968891978">
        <ele>1158.05</ele>
        <time>2025-04-24T14:06:41Z</time>
      </trkpt>
      <trkpt lat="45.526627013459802" lon="3.857045983895659">
        <ele>1159.49</ele>
        <time>2025-04-24T14:06:42Z</time>
      </trkpt>
      <trkpt lat="45.526728015393019" lon="3.856846997514367">
        <ele>1160.45</ele>
        <time>2025-04-24T14:06:43Z</time>
      </trkpt>
      <trkpt lat="45.526801021769643" lon="3.856629990041256">
        <ele>1160.9300000000001</ele>
        <time>2025-04-24T14:06:44Z</time>
      </trkpt>
      <trkpt lat="45.526855001226068" lon="3.856410970911384">
        <ele>1162.3699999999999</ele>
        <time>2025-04-24T14:06:45Z</time>
      </trkpt>
      <trkpt lat="45.526872016489506" lon="3.856167979538441">
        <ele>1164.29</ele>
        <time>2025-04-24T14:06:46Z</time>
      </trkpt>
      <trkpt lat="45.526890037581325" lon="3.855913002043963">
        <ele>1165.74</ele>
        <time>2025-04-24T14:06:47Z</time>
      </trkpt>
      <trkpt lat="45.526863969862461" lon="3.855662969872356">
        <ele>1166.7</ele>
        <time>2025-04-24T14:06:48Z</time>
      </trkpt>
      <trkpt lat="45.526822982355952" lon="3.855404974892736">
        <ele>1168.1400000000001</ele>
        <time>2025-04-24T14:06:49Z</time>
      </trkpt>
      <trkpt lat="45.526749975979328" lon="3.855131976306438">
        <ele>1169.5799999999999</ele>
        <time>2025-04-24T14:06:50Z</time>
      </trkpt>
      <trkpt lat="45.526674035936594" lon="3.854845985770226">
        <ele>1170.54</ele>
        <time>2025-04-24T14:06:51Z</time>
      </trkpt>
      <trkpt lat="45.526598012074828" lon="3.854562006890774">
        <ele>1171.98</ele>
        <time>2025-04-24T14:06:52Z</time>
      </trkpt>
      <trkpt lat="45.526568004861474" lon="3.854250032454729">
        <ele>1172.95</ele>
        <time>2025-04-24T14:06:53Z</time>
      </trkpt>
      <trkpt lat="45.526562975719571" lon="3.853943003341556">
        <ele>1173.9100000000001</ele>
        <time>2025-04-24T14:06:54Z</time>
      </trkpt>
      <trkpt lat="45.526529029011726" lon="3.853054018691182">
        <ele>1176.79</ele>
        <time>2025-04-24T14:06:57Z</time>
      </trkpt>
      <trkpt lat="45.526479994878173" lon="3.852782025933266">
        <ele>1177.27</ele>
        <time>2025-04-24T14:06:58Z</time>
      </trkpt>
      <trkpt lat="45.526416962966323" lon="3.852515984326601">
        <ele>1178.23</ele>
        <time>2025-04-24T14:06:59Z</time>
      </trkpt>
      <trkpt lat="45.52630296908319" lon="3.852263018488884">
        <ele>1179.1900000000001</ele>
        <time>2025-04-24T14:07:00Z</time>
      </trkpt>
      <trkpt lat="45.526187969371676" lon="3.852005023509264">
        <ele>1180.1600000000001</ele>
        <time>2025-04-24T14:07:01Z</time>
      </trkpt>
      <trkpt lat="45.525696035474539" lon="3.850972037762404">
        <ele>1183.04</ele>
        <time>2025-04-24T14:07:05Z</time>
      </trkpt>
      <trkpt lat="45.52554901689291" lon="3.850734997540712">
        <ele>1184</ele>
        <time>2025-04-24T14:07:06Z</time>
      </trkpt>
      <trkpt lat="45.525039983913302" lon="3.849885994568467">
        <ele>1187.3699999999999</ele>
        <time>2025-04-24T14:07:10Z</time>
      </trkpt>
      <trkpt lat="45.524955997243524" lon="3.84969899430871">
        <ele>1188.3299999999999</ele>
        <time>2025-04-24T14:07:11Z</time>
      </trkpt>
      <trkpt lat="45.524901011958718" lon="3.849485004320741">
        <ele>1188.8099999999999</ele>
        <time>2025-04-24T14:07:12Z</time>
      </trkpt>
      <trkpt lat="45.524908974766731" lon="3.849274031817913">
        <ele>1188.8099999999999</ele>
        <time>2025-04-24T14:07:13Z</time>
      </trkpt>
      <trkpt lat="45.524917021393776" lon="3.849063981324434">
        <ele>1188.8099999999999</ele>
        <time>2025-04-24T14:07:14Z</time>
      </trkpt>
      <trkpt lat="45.524972006678581" lon="3.848848985508084">
        <ele>1188.3299999999999</ele>
        <time>2025-04-24T14:07:15Z</time>
      </trkpt>
      <trkpt lat="45.525044007226825" lon="3.848649999126792">
        <ele>1188.3299999999999</ele>
        <time>2025-04-24T14:07:16Z</time>
      </trkpt>
      <trkpt lat="45.525120031088591" lon="3.848443971946836">
        <ele>1188.3299999999999</ele>
        <time>2025-04-24T14:07:17Z</time>
      </trkpt>
      <trkpt lat="45.525687988847494" lon="3.847382990643382">
        <ele>1187.8499999999999</ele>
        <time>2025-04-24T14:07:24Z</time>
      </trkpt>
      <trkpt lat="45.526030976325274" lon="3.846801035106182">
        <ele>1187.8499999999999</ele>
        <time>2025-04-24T14:07:30Z</time>
      </trkpt>
      <trkpt lat="45.526062995195389" lon="3.846693998202682">
        <ele>1187.8499999999999</ele>
        <time>2025-04-24T14:07:31Z</time>
      </trkpt>
      <trkpt lat="45.526095014065504" lon="3.846586961299181">
        <ele>1187.8499999999999</ele>
        <time>2025-04-24T14:07:32Z</time>
      </trkpt>
      <trkpt lat="45.526125021278858" lon="3.846485037356615">
        <ele>1187.8499999999999</ele>
        <time>2025-04-24T14:07:33Z</time>
      </trkpt>
      <trkpt lat="45.526152011007071" lon="3.846393004059792">
        <ele>1188.3299999999999</ele>
        <time>2025-04-24T14:07:34Z</time>
      </trkpt>
      <trkpt lat="45.526161985471845" lon="3.846314968541265">
        <ele>1188.3299999999999</ele>
        <time>2025-04-24T14:07:35Z</time>
      </trkpt>
      <trkpt lat="45.526157040148973" lon="3.846222013235092">
        <ele>1188.3299999999999</ele>
        <time>2025-04-24T14:07:36Z</time>
      </trkpt>
      <trkpt lat="45.526153016835451" lon="3.846126040443778">
        <ele>1189.29</ele>
        <time>2025-04-24T14:07:37Z</time>
      </trkpt>
      <trkpt lat="45.526114040985703" lon="3.84542397223413">
        <ele>1192.6500000000001</ele>
        <time>2025-04-24T14:07:46Z</time>
      </trkpt>
      <trkpt lat="45.526099959388375" lon="3.845234960317612">
        <ele>1194.0899999999999</ele>
        <time>2025-04-24T14:07:55Z</time>
      </trkpt>
      <trkpt lat="45.526140024885535" lon="3.845020970329642">
        <ele>1200.3399999999999</ele>
        <time>2025-04-24T14:10:17Z</time>
      </trkpt>
      <trkpt lat="45.526145976036787" lon="3.845178969204426">
        <ele>1202.75</ele>
        <time>2025-04-24T14:10:51Z</time>
      </trkpt>
      <trkpt lat="45.526080010458827" lon="3.844975037500262">
        <ele>1198.4200000000001</ele>
        <time>2025-04-24T14:11:07Z</time>
      </trkpt>
      <trkpt lat="45.526085961610079" lon="3.844879986718297">
        <ele>1197.9400000000001</ele>
        <time>2025-04-24T14:11:08Z</time>
      </trkpt>
      <trkpt lat="45.526095014065504" lon="3.844784013926983">
        <ele>1196.98</ele>
        <time>2025-04-24T14:11:09Z</time>
      </trkpt>
      <trkpt lat="45.52625703625381" lon="3.843479035422206">
        <ele>1190.73</ele>
        <time>2025-04-24T14:11:21Z</time>
      </trkpt>
      <trkpt lat="45.526292994618416" lon="3.843305027112365">
        <ele>1189.77</ele>
        <time>2025-04-24T14:11:22Z</time>
      </trkpt>
      <trkpt lat="45.526326019316912" lon="3.843244006857276">
        <ele>1188.8099999999999</ele>
        <time>2025-04-24T14:11:23Z</time>
      </trkpt>
      <trkpt lat="45.526379998773336" lon="3.843140993267298">
        <ele>1188.3299999999999</ele>
        <time>2025-04-24T14:11:24Z</time>
      </trkpt>
      <trkpt lat="45.526434984058142" lon="3.8430389855057">
        <ele>1187.3699999999999</ele>
        <time>2025-04-24T14:11:25Z</time>
      </trkpt>
      <trkpt lat="45.526502039283514" lon="3.842943012714386">
        <ele>1186.8800000000001</ele>
        <time>2025-04-24T14:11:26Z</time>
      </trkpt>
      <trkpt lat="45.526579990983009" lon="3.842858020216227">
        <ele>1185.4400000000001</ele>
        <time>2025-04-24T14:11:27Z</time>
      </trkpt>
      <trkpt lat="45.526663977652788" lon="3.842766992747784">
        <ele>1184.96</ele>
        <time>2025-04-24T14:11:28Z</time>
      </trkpt>
      <trkpt lat="45.526763973757625" lon="3.842687029391527">
        <ele>1184.48</ele>
        <time>2025-04-24T14:11:29Z</time>
      </trkpt>
      <trkpt lat="45.526870004832745" lon="3.842643024399877">
        <ele>1184</ele>
        <time>2025-04-24T14:11:30Z</time>
      </trkpt>
      <trkpt lat="45.526981987059116" lon="3.842598013579845">
        <ele>1183.52</ele>
        <time>2025-04-24T14:11:31Z</time>
      </trkpt>
      <trkpt lat="45.527094975113869" lon="3.842550991103053">
        <ele>1183.52</ele>
        <time>2025-04-24T14:11:32Z</time>
      </trkpt>
      <trkpt lat="45.527420025318861" lon="3.84243599139154">
        <ele>1182.5599999999999</ele>
        <time>2025-04-24T14:11:35Z</time>
      </trkpt>
      <trkpt lat="45.527469981461763" lon="3.842362985014916">
        <ele>1182.5599999999999</ele>
        <time>2025-04-24T14:11:36Z</time>
      </trkpt>
      <trkpt lat="45.527502000331879" lon="3.842248991131783">
        <ele>1182.0799999999999</ele>
        <time>2025-04-24T14:11:37Z</time>
      </trkpt>
      <trkpt lat="45.527534019201994" lon="3.84213600307703">
        <ele>1182.0799999999999</ele>
        <time>2025-04-24T14:11:38Z</time>
      </trkpt>
      <trkpt lat="45.527507029473782" lon="3.842033995315433">
        <ele>1181.5999999999999</ele>
        <time>2025-04-24T14:11:39Z</time>
      </trkpt>
      <trkpt lat="45.527460006996989" lon="3.841904997825623">
        <ele>1181.1199999999999</ele>
        <time>2025-04-24T14:11:40Z</time>
      </trkpt>
      <trkpt lat="45.527392029762268" lon="3.841764014214277">
        <ele>1180.6400000000001</ele>
        <time>2025-04-24T14:11:41Z</time>
      </trkpt>
      <trkpt lat="45.527319023385644" lon="3.841612972319126">
        <ele>1180.6400000000001</ele>
        <time>2025-04-24T14:11:42Z</time>
      </trkpt>
      <trkpt lat="45.527166975662112" lon="3.84129898622632">
        <ele>1179.1900000000001</ele>
        <time>2025-04-24T14:11:44Z</time>
      </trkpt>
      <trkpt lat="45.527132023125887" lon="3.841122966259718">
        <ele>1178.71</ele>
        <time>2025-04-24T14:11:45Z</time>
      </trkpt>
      <trkpt lat="45.527106039226055" lon="3.84093202650547">
        <ele>1177.75</ele>
        <time>2025-04-24T14:11:46Z</time>
      </trkpt>
      <trkpt lat="45.527078965678811" lon="3.840735973790288">
        <ele>1177.27</ele>
        <time>2025-04-24T14:11:47Z</time>
      </trkpt>
      <trkpt lat="45.527052981778979" lon="3.840536987408996">
        <ele>1176.3099999999999</ele>
        <time>2025-04-24T14:11:48Z</time>
      </trkpt>
      <trkpt lat="45.52681895904243" lon="3.83923402056098">
        <ele>1169.0999999999999</ele>
        <time>2025-04-24T14:11:55Z</time>
      </trkpt>
      <trkpt lat="45.526828011497855" lon="3.839034028351307">
        <ele>1168.1400000000001</ele>
        <time>2025-04-24T14:11:56Z</time>
      </trkpt>
      <trkpt lat="45.526827005669475" lon="3.837737012654543">
        <ele>1161.4100000000001</ele>
        <time>2025-04-24T14:12:02Z</time>
      </trkpt>
      <trkpt lat="45.526775037869811" lon="3.837529979646206">
        <ele>1159.97</ele>
        <time>2025-04-24T14:12:03Z</time>
      </trkpt>
      <trkpt lat="45.526700019836426" lon="3.837326969951391">
        <ele>1159.01</ele>
        <time>2025-04-24T14:12:04Z</time>
      </trkpt>
      <trkpt lat="45.526614021509886" lon="3.837137036025524">
        <ele>1157.5599999999999</ele>
        <time>2025-04-24T14:12:05Z</time>
      </trkpt>
      <trkpt lat="45.526506984606385" lon="3.836953975260258">
        <ele>1156.5999999999999</ele>
        <time>2025-04-24T14:12:06Z</time>
      </trkpt>
      <trkpt lat="45.526387961581349" lon="3.836782984435558">
        <ele>1155.6400000000001</ele>
        <time>2025-04-24T14:12:07Z</time>
      </trkpt>
      <trkpt lat="45.526245972141623" lon="3.836661027744412">
        <ele>1154.6800000000001</ele>
        <time>2025-04-24T14:12:08Z</time>
      </trkpt>
      <trkpt lat="45.526093002408743" lon="3.836553990840912">
        <ele>1153.24</ele>
        <time>2025-04-24T14:12:09Z</time>
      </trkpt>
      <trkpt lat="45.525939026847482" lon="3.836447037756443">
        <ele>1152.28</ele>
        <time>2025-04-24T14:12:10Z</time>
      </trkpt>
      <trkpt lat="45.525780022144318" lon="3.836389034986496">
        <ele>1151.3199999999999</ele>
        <time>2025-04-24T14:12:11Z</time>
      </trkpt>
      <trkpt lat="45.525616994127631" lon="3.83633497171104">
        <ele>1149.8699999999999</ele>
        <time>2025-04-24T14:12:12Z</time>
      </trkpt>
      <trkpt lat="45.525460001081228" lon="3.836306976154447">
        <ele>1148.9100000000001</ele>
        <time>2025-04-24T14:12:13Z</time>
      </trkpt>
      <trkpt lat="45.525303008034825" lon="3.836302030831575">
        <ele>1148.4300000000001</ele>
        <time>2025-04-24T14:12:14Z</time>
      </trkpt>
      <trkpt lat="45.525148026645184" lon="3.836297001689673">
        <ele>1146.99</ele>
        <time>2025-04-24T14:12:15Z</time>
      </trkpt>
      <trkpt lat="45.525001008063555" lon="3.83629297837615">
        <ele>1146.03</ele>
        <time>2025-04-24T14:12:16Z</time>
      </trkpt>
      <trkpt lat="45.524877961724997" lon="3.83628903888166">
        <ele>1145.0699999999999</ele>
        <time>2025-04-24T14:12:17Z</time>
      </trkpt>
      <trkpt lat="45.524781988933682" lon="3.836193988099694">
        <ele>1143.6300000000001</ele>
        <time>2025-04-24T14:12:18Z</time>
      </trkpt>
      <trkpt lat="45.524690039455891" lon="3.836102038621903">
        <ele>1142.6600000000001</ele>
        <time>2025-04-24T14:12:19Z</time>
      </trkpt>
      <trkpt lat="45.524638993665576" lon="3.835971029475331">
        <ele>1141.7</ele>
        <time>2025-04-24T14:12:20Z</time>
      </trkpt>
      <trkpt lat="45.524606974795461" lon="3.835826022550464">
        <ele>1140.26</ele>
        <time>2025-04-24T14:12:21Z</time>
      </trkpt>
      <trkpt lat="45.524576967582107" lon="3.835685960948467">
        <ele>1138.8199999999999</ele>
        <time>2025-04-24T14:12:22Z</time>
      </trkpt>
      <trkpt lat="45.524609992280602" lon="3.835541037842631">
        <ele>1137.8599999999999</ele>
        <time>2025-04-24T14:12:23Z</time>
      </trkpt>
      <trkpt lat="45.524644022807479" lon="3.835391001775861">
        <ele>1136.4200000000001</ele>
        <time>2025-04-24T14:12:24Z</time>
      </trkpt>
      <trkpt lat="45.524678975343704" lon="3.835236020386219">
        <ele>1135.45</ele>
        <time>2025-04-24T14:12:25Z</time>
      </trkpt>
      <trkpt lat="45.524717029184103" lon="3.835069974884391">
        <ele>1134.01</ele>
        <time>2025-04-24T14:12:26Z</time>
      </trkpt>
      <trkpt lat="45.524971000850201" lon="3.833553018048406">
        <ele>1126.8</ele>
        <time>2025-04-24T14:12:33Z</time>
      </trkpt>
      <trkpt lat="45.524986004456878" lon="3.833321006968617">
        <ele>1126.3199999999999</ele>
        <time>2025-04-24T14:12:34Z</time>
      </trkpt>
      <trkpt lat="45.524998996406794" lon="3.833099976181984">
        <ele>1125.3599999999999</ele>
        <time>2025-04-24T14:12:35Z</time>
      </trkpt>
      <trkpt lat="45.524977035820484" lon="3.832891015335918">
        <ele>1124.4000000000001</ele>
        <time>2025-04-24T14:12:36Z</time>
      </trkpt>
      <trkpt lat="45.524928001686931" lon="3.832694962620735">
        <ele>1123.4400000000001</ele>
        <time>2025-04-24T14:12:37Z</time>
      </trkpt>
      <trkpt lat="45.524857006967068" lon="3.832523971796036">
        <ele>1122.96</ele>
        <time>2025-04-24T14:12:38Z</time>
      </trkpt>
      <trkpt lat="45.524748964235187" lon="3.832388017326593">
        <ele>1122.48</ele>
        <time>2025-04-24T14:12:39Z</time>
      </trkpt>
      <trkpt lat="45.524637987837195" lon="3.832247033715248">
        <ele>1121.52</ele>
        <time>2025-04-24T14:12:40Z</time>
      </trkpt>
      <trkpt lat="45.524523993954062" lon="3.832127004861832">
        <ele>1121.03</ele>
        <time>2025-04-24T14:12:41Z</time>
      </trkpt>
      <trkpt lat="45.524399019777775" lon="3.832030026242137">
        <ele>1120.55</ele>
        <time>2025-04-24T14:12:42Z</time>
      </trkpt>
      <trkpt lat="45.52428100258112" lon="3.831936987116933">
        <ele>1120.0699999999999</ele>
        <time>2025-04-24T14:12:43Z</time>
      </trkpt>
      <trkpt lat="45.524157034233212" lon="3.831923995167017">
        <ele>1119.1099999999999</ele>
        <time>2025-04-24T14:12:44Z</time>
      </trkpt>
      <trkpt lat="45.524019990116358" lon="3.831914020702243">
        <ele>1118.1500000000001</ele>
        <time>2025-04-24T14:12:45Z</time>
      </trkpt>
      <trkpt lat="45.523901972919703" lon="3.831964982673526">
        <ele>1117.6700000000001</ele>
        <time>2025-04-24T14:12:46Z</time>
      </trkpt>
      <trkpt lat="45.523768030107021" lon="3.832064978778362">
        <ele>1116.71</ele>
        <time>2025-04-24T14:12:47Z</time>
      </trkpt>
      <trkpt lat="45.523624029010534" lon="3.832172015681863">
        <ele>1115.75</ele>
        <time>2025-04-24T14:12:48Z</time>
      </trkpt>
      <trkpt lat="45.523474998772144" lon="3.832281986251473">
        <ele>1115.27</ele>
        <time>2025-04-24T14:12:49Z</time>
      </trkpt>
      <trkpt lat="45.523040983825922" lon="3.832605024799705">
        <ele>1112.3800000000001</ele>
        <time>2025-04-24T14:12:52Z</time>
      </trkpt>
      <trkpt lat="45.522911986336112" lon="3.832623967900872">
        <ele>1111.4200000000001</ele>
        <time>2025-04-24T14:12:53Z</time>
      </trkpt>
      <trkpt lat="45.522788017988205" lon="3.832636037841439">
        <ele>1110.46</ele>
        <time>2025-04-24T14:12:54Z</time>
      </trkpt>
      <trkpt lat="45.522679975256324" lon="3.832572000101209">
        <ele>1109.5</ele>
        <time>2025-04-24T14:12:55Z</time>
      </trkpt>
      <trkpt lat="45.522565981373191" lon="3.832486001774669">
        <ele>1108.54</ele>
        <time>2025-04-24T14:12:56Z</time>
      </trkpt>
      <trkpt lat="45.522490963339806" lon="3.832350969314575">
        <ele>1107.5799999999999</ele>
        <time>2025-04-24T14:12:57Z</time>
      </trkpt>
      <trkpt lat="45.522453999146819" lon="3.832165980711579">
        <ele>1106.6099999999999</ele>
        <time>2025-04-24T14:12:58Z</time>
      </trkpt>
      <trkpt lat="45.522433966398239" lon="3.832001024857163">
        <ele>1105.1700000000001</ele>
        <time>2025-04-24T14:12:59Z</time>
      </trkpt>
      <trkpt lat="45.522475959733129" lon="3.831816958263516">
        <ele>1104.21</ele>
        <time>2025-04-24T14:13:00Z</time>
      </trkpt>
      <trkpt lat="45.522525999695063" lon="3.831649990752339">
        <ele>1102.77</ele>
        <time>2025-04-24T14:13:01Z</time>
      </trkpt>
      <trkpt lat="45.522590037435293" lon="3.831471959128976">
        <ele>1101.8099999999999</ele>
        <time>2025-04-24T14:13:02Z</time>
      </trkpt>
      <trkpt lat="45.522660026326776" lon="3.831276996061206">
        <ele>1100.3699999999999</ele>
        <time>2025-04-24T14:13:03Z</time>
      </trkpt>
      <trkpt lat="45.523339966312051" lon="3.829429037868977">
        <ele>1090.27</ele>
        <time>2025-04-24T14:13:11Z</time>
      </trkpt>
      <trkpt lat="45.523442979902029" lon="3.829177999868989">
        <ele>1089.3099999999999</ele>
        <time>2025-04-24T14:13:12Z</time>
      </trkpt>
      <trkpt lat="45.523568037897348" lon="3.82894397713244">
        <ele>1087.8699999999999</ele>
        <time>2025-04-24T14:13:13Z</time>
      </trkpt>
      <trkpt lat="45.523694017902017" lon="3.8287060149014">
        <ele>1086.9100000000001</ele>
        <time>2025-04-24T14:13:14Z</time>
      </trkpt>
      <trkpt lat="45.524343028664589" lon="3.82758803665638">
        <ele>1081.1400000000001</ele>
        <time>2025-04-24T14:13:19Z</time>
      </trkpt>
      <trkpt lat="45.524464985355735" lon="3.827390978112817">
        <ele>1080.1800000000001</ele>
        <time>2025-04-24T14:13:20Z</time>
      </trkpt>
      <trkpt lat="45.524588031694293" lon="3.827194003388286">
        <ele>1079.22</ele>
        <time>2025-04-24T14:13:21Z</time>
      </trkpt>
      <trkpt lat="45.524706970900297" lon="3.827002979815006">
        <ele>1078.74</ele>
        <time>2025-04-24T14:13:22Z</time>
      </trkpt>
      <trkpt lat="45.524814007803798" lon="3.826808016747236">
        <ele>1077.78</ele>
        <time>2025-04-24T14:13:23Z</time>
      </trkpt>
      <trkpt lat="45.524891959503293" lon="3.826604001224041">
        <ele>1076.8099999999999</ele>
        <time>2025-04-24T14:13:24Z</time>
      </trkpt>
      <trkpt lat="45.524965971708298" lon="3.826403003185988">
        <ele>1075.8499999999999</ele>
        <time>2025-04-24T14:13:25Z</time>
      </trkpt>
      <trkpt lat="45.525015005841851" lon="3.826190019026399">
        <ele>1074.8900000000001</ele>
        <time>2025-04-24T14:13:26Z</time>
      </trkpt>
      <trkpt lat="45.525026991963387" lon="3.825760027393699">
        <ele>1072.97</ele>
        <time>2025-04-24T14:13:28Z</time>
      </trkpt>
      <trkpt lat="45.524993967264891" lon="3.825555006042123">
        <ele>1072.01</ele>
        <time>2025-04-24T14:13:29Z</time>
      </trkpt>
      <trkpt lat="45.52494996227324" lon="3.825343027710915">
        <ele>1071.05</ele>
        <time>2025-04-24T14:13:30Z</time>
      </trkpt>
      <trkpt lat="45.524862036108971" lon="3.825177988037467">
        <ele>1070.0799999999999</ele>
        <time>2025-04-24T14:13:31Z</time>
      </trkpt>
      <trkpt lat="45.524752987548709" lon="3.825020994991064">
        <ele>1069.1199999999999</ele>
        <time>2025-04-24T14:13:32Z</time>
      </trkpt>
      <trkpt lat="45.524629019200802" lon="3.824874982237816">
        <ele>1068.1600000000001</ele>
        <time>2025-04-24T14:13:33Z</time>
      </trkpt>
      <trkpt lat="45.524502033367753" lon="3.824725029990077">
        <ele>1067.2</ele>
        <time>2025-04-24T14:13:34Z</time>
      </trkpt>
      <trkpt lat="45.524370018392801" lon="3.824569964781404">
        <ele>1066.24</ele>
        <time>2025-04-24T14:13:35Z</time>
      </trkpt>
      <trkpt lat="45.524230962619185" lon="3.824407020583749">
        <ele>1065.28</ele>
        <time>2025-04-24T14:13:36Z</time>
      </trkpt>
      <trkpt lat="45.524100037291646" lon="3.824204010888934">
        <ele>1064.3199999999999</ele>
        <time>2025-04-24T14:13:37Z</time>
      </trkpt>
      <trkpt lat="45.523971039801836" lon="3.823982980102301">
        <ele>1063.3599999999999</ele>
        <time>2025-04-24T14:13:38Z</time>
      </trkpt>
      <trkpt lat="45.523840030655265" lon="3.823759015649557">
        <ele>1061.9100000000001</ele>
        <time>2025-04-24T14:13:39Z</time>
      </trkpt>
      <trkpt lat="45.523707009851933" lon="3.823532033711672">
        <ele>1060.95</ele>
        <time>2025-04-24T14:13:40Z</time>
      </trkpt>
      <trkpt lat="45.523104015737772" lon="3.82236703298986">
        <ele>1056.6300000000001</ele>
        <time>2025-04-24T14:13:45Z</time>
      </trkpt>
      <trkpt lat="45.523038972169161" lon="3.822078024968505">
        <ele>1055.6700000000001</ele>
        <time>2025-04-24T14:13:46Z</time>
      </trkpt>
      <trkpt lat="45.522677963599563" lon="3.82041497156024">
        <ele>1051.3399999999999</ele>
        <time>2025-04-24T14:13:52Z</time>
      </trkpt>
      <trkpt lat="45.52264996804297" lon="3.820127975195646">
        <ele>1050.3800000000001</ele>
        <time>2025-04-24T14:13:53Z</time>
      </trkpt>
      <trkpt lat="45.522624989971519" lon="3.819835027679801">
        <ele>1049.4200000000001</ele>
        <time>2025-04-24T14:13:54Z</time>
      </trkpt>
      <trkpt lat="45.522726997733116" lon="3.818718977272511">
        <ele>1045.0899999999999</ele>
        <time>2025-04-24T14:13:58Z</time>
      </trkpt>
      <trkpt lat="45.523210968822241" lon="3.817204032093287">
        <ele>1036.4400000000001</ele>
        <time>2025-04-24T14:14:04Z</time>
      </trkpt>
      <trkpt lat="45.523790996521711" lon="3.81633197888732">
        <ele>1029.71</ele>
        <time>2025-04-24T14:14:09Z</time>
      </trkpt>
      <trkpt lat="45.523925023153424" lon="3.816252015531063">
        <ele>1028.75</ele>
        <time>2025-04-24T14:14:10Z</time>
      </trkpt>
      <trkpt lat="45.524068018421531" lon="3.816221002489328">
        <ele>1027.79</ele>
        <time>2025-04-24T14:14:11Z</time>
      </trkpt>
      <trkpt lat="45.524216964840889" lon="3.816215973347426">
        <ele>1026.3399999999999</ele>
        <time>2025-04-24T14:14:12Z</time>
      </trkpt>
      <trkpt lat="45.524377981200814" lon="3.816244974732399">
        <ele>1025.8599999999999</ele>
        <time>2025-04-24T14:14:13Z</time>
      </trkpt>
      <trkpt lat="45.524843009188771" lon="3.816327033564448">
        <ele>1023.9400000000001</ele>
        <time>2025-04-24T14:14:16Z</time>
      </trkpt>
      <trkpt lat="45.524978963658214" lon="3.816291997209191">
        <ele>1022.98</ele>
        <time>2025-04-24T14:14:17Z</time>
      </trkpt>
      <trkpt lat="45.525112990289927" lon="3.81622301414609">
        <ele>1022.02</ele>
        <time>2025-04-24T14:14:18Z</time>
      </trkpt>
      <trkpt lat="45.525233019143343" lon="3.816089993342757">
        <ele>1021.0599999999999</ele>
        <time>2025-04-24T14:14:19Z</time>
      </trkpt>
      <trkpt lat="45.525362016633153" lon="3.815948003903031">
        <ele>1020.1</ele>
        <time>2025-04-24T14:14:20Z</time>
      </trkpt>
      <trkpt lat="45.525501994416118" lon="3.815790005028248">
        <ele>1019.13</ele>
        <time>2025-04-24T14:14:21Z</time>
      </trkpt>
      <trkpt lat="45.52559201605618" lon="3.815588001161814">
        <ele>1017.6900000000001</ele>
        <time>2025-04-24T14:14:22Z</time>
      </trkpt>
      <trkpt lat="45.525682959705591" lon="3.815377028658986">
        <ele>1016.25</ele>
        <time>2025-04-24T14:14:23Z</time>
      </trkpt>
      <trkpt lat="45.5258500110358" lon="3.814920969307423">
        <ele>1014.33</ele>
        <time>2025-04-24T14:14:25Z</time>
      </trkpt>
      <trkpt lat="45.525946989655495" lon="3.814706979319453">
        <ele>1013.85</ele>
        <time>2025-04-24T14:14:26Z</time>
      </trkpt>
      <trkpt lat="45.526079004630446" lon="3.814512016251683">
        <ele>1012.89</ele>
        <time>2025-04-24T14:14:27Z</time>
      </trkpt>
      <trkpt lat="45.526213031262159" lon="3.814314035698772">
        <ele>1011.9299999999999</ele>
        <time>2025-04-24T14:14:28Z</time>
      </trkpt>
      <trkpt lat="45.52634303458035" lon="3.814122006297112">
        <ele>1011.4400000000001</ele>
        <time>2025-04-24T14:14:29Z</time>
      </trkpt>
      <trkpt lat="45.526483012363315" lon="3.813965013250709">
        <ele>1010.48</ele>
        <time>2025-04-24T14:14:30Z</time>
      </trkpt>
      <trkpt lat="45.526615027338266" lon="3.813822017982602">
        <ele>1009.52</ele>
        <time>2025-04-24T14:14:31Z</time>
      </trkpt>
      <trkpt lat="45.526787023991346" lon="3.813724033534527">
        <ele>1008.5599999999999</ele>
        <time>2025-04-24T14:14:32Z</time>
      </trkpt>
      <trkpt lat="45.528033999726176" lon="3.812832031399012">
        <ele>999.90999999999997</ele>
        <time>2025-04-24T14:14:40Z</time>
      </trkpt>
      <trkpt lat="45.528437001630664" lon="3.812429029494524">
        <ele>996.53999999999996</ele>
        <time>2025-04-24T14:14:43Z</time>
      </trkpt>
      <trkpt lat="45.528567004948854" lon="3.812299026176333">
        <ele>995.10000000000002</ele>
        <time>2025-04-24T14:14:44Z</time>
      </trkpt>
      <trkpt lat="45.528701031580567" lon="3.812254015356302">
        <ele>994.13999999999999</ele>
        <time>2025-04-24T14:14:45Z</time>
      </trkpt>
      <trkpt lat="45.528838997706771" lon="3.812243035063148">
        <ele>993.17999999999995</ele>
        <time>2025-04-24T14:14:46Z</time>
      </trkpt>
      <trkpt lat="45.528961960226297" lon="3.812257032841444">
        <ele>992.22000000000003</ele>
        <time>2025-04-24T14:14:47Z</time>
      </trkpt>
      <trkpt lat="45.529078971594572" lon="3.81227002479136">
        <ele>991.74000000000001</ele>
        <time>2025-04-24T14:14:48Z</time>
      </trkpt>
      <trkpt lat="45.529176034033298" lon="3.812247980386019">
        <ele>990.29999999999995</ele>
        <time>2025-04-24T14:14:49Z</time>
      </trkpt>
      <trkpt lat="45.529259014874697" lon="3.812164999544621">
        <ele>989.33000000000004</ele>
        <time>2025-04-24T14:14:50Z</time>
      </trkpt>
      <trkpt lat="45.529296984896064" lon="3.812071960419416">
        <ele>987.88999999999999</ele>
        <time>2025-04-24T14:14:51Z</time>
      </trkpt>
      <trkpt lat="45.529296984896064" lon="3.811930976808071">
        <ele>986.45000000000005</ele>
        <time>2025-04-24T14:14:52Z</time>
      </trkpt>
      <trkpt lat="45.529278963804245" lon="3.811821006238461">
        <ele>985.49000000000001</ele>
        <time>2025-04-24T14:14:53Z</time>
      </trkpt>
      <trkpt lat="45.529218027368188" lon="3.811729978770018">
        <ele>984.52999999999997</ele>
        <time>2025-04-24T14:14:54Z</time>
      </trkpt>
      <trkpt lat="45.529131023213267" lon="3.811715980991721">
        <ele>983.57000000000005</ele>
        <time>2025-04-24T14:14:55Z</time>
      </trkpt>
      <trkpt lat="45.529020968824625" lon="3.81171103566885">
        <ele>983.09000000000003</ele>
        <time>2025-04-24T14:14:56Z</time>
      </trkpt>
      <trkpt lat="45.528892977163196" lon="3.811705000698566">
        <ele>982.60000000000002</ele>
        <time>2025-04-24T14:14:57Z</time>
      </trkpt>
      <trkpt lat="45.528297023847699" lon="3.811679016798735">
        <ele>979.24000000000001</ele>
        <time>2025-04-24T14:15:01Z</time>
      </trkpt>
      <trkpt lat="45.528151011094451" lon="3.811620008200407">
        <ele>978.27999999999997</ele>
        <time>2025-04-24T14:15:02Z</time>
      </trkpt>
      <trkpt lat="45.528011033311486" lon="3.811536021530628">
        <ele>977.79999999999995</ele>
        <time>2025-04-24T14:15:03Z</time>
      </trkpt>
      <trkpt lat="45.527881029993296" lon="3.811440970748663">
        <ele>976.84000000000003</ele>
        <time>2025-04-24T14:15:04Z</time>
      </trkpt>
      <trkpt lat="45.527756977826357" lon="3.811317002400756">
        <ele>976.36000000000001</ele>
        <time>2025-04-24T14:15:05Z</time>
      </trkpt>
      <trkpt lat="45.52765597589314" lon="3.811136959120631">
        <ele>975.88</ele>
        <time>2025-04-24T14:15:06Z</time>
      </trkpt>
      <trkpt lat="45.527562014758587" lon="3.810945013538003">
        <ele>975.38999999999999</ele>
        <time>2025-04-24T14:15:07Z</time>
      </trkpt>
      <trkpt lat="45.527466963976622" lon="3.810749966651201">
        <ele>974.90999999999997</ele>
        <time>2025-04-24T14:15:08Z</time>
      </trkpt>
      <trkpt lat="45.52711701951921" lon="3.80997003056109">
        <ele>972.99000000000001</ele>
        <time>2025-04-24T14:15:12Z</time>
      </trkpt>
      <trkpt lat="45.527021968737245" lon="3.809744976460934">
        <ele>972.50999999999999</ele>
        <time>2025-04-24T14:15:13Z</time>
      </trkpt>
      <trkpt lat="45.526884002611041" lon="3.80907098762691">
        <ele>970.59000000000003</ele>
        <time>2025-04-24T14:15:16Z</time>
      </trkpt>
      <trkpt lat="45.526868999004364" lon="3.808818021789193">
        <ele>970.11000000000001</ele>
        <time>2025-04-24T14:15:17Z</time>
      </trkpt>
      <trkpt lat="45.526864975690842" lon="3.808552986010909">
        <ele>969.14999999999998</ele>
        <time>2025-04-24T14:15:18Z</time>
      </trkpt>
      <trkpt lat="45.526872016489506" lon="3.807527963072062">
        <ele>964.34000000000003</ele>
        <time>2025-04-24T14:15:22Z</time>
      </trkpt>
      <trkpt lat="45.526911998167634" lon="3.807306010276079">
        <ele>963.38</ele>
        <time>2025-04-24T14:15:23Z</time>
      </trkpt>
      <trkpt lat="45.526976035907865" lon="3.807080034166575">
        <ele>961.94000000000005</ele>
        <time>2025-04-24T14:15:24Z</time>
      </trkpt>
      <trkpt lat="45.527067985385656" lon="3.806871995329857">
        <ele>960.98000000000002</ele>
        <time>2025-04-24T14:15:25Z</time>
      </trkpt>
      <trkpt lat="45.527163036167622" lon="3.806653982028365">
        <ele>959.52999999999997</ele>
        <time>2025-04-24T14:15:26Z</time>
      </trkpt>
      <trkpt lat="45.527753960341215" lon="3.805342968553305">
        <ele>951.84000000000003</ele>
        <time>2025-04-24T14:15:32Z</time>
      </trkpt>
      <trkpt lat="45.527872983366251" lon="3.805164014920592">
        <ele>950.88</ele>
        <time>2025-04-24T14:15:33Z</time>
      </trkpt>
      <trkpt lat="45.528023019433022" lon="3.805014984682202">
        <ele>949.44000000000005</ele>
        <time>2025-04-24T14:15:34Z</time>
      </trkpt>
      <trkpt lat="45.528477989137173" lon="3.804573006927967">
        <ele>946.07000000000005</ele>
        <time>2025-04-24T14:15:37Z</time>
      </trkpt>
      <trkpt lat="45.528630036860704" lon="3.804425988346338">
        <ele>944.63</ele>
        <time>2025-04-24T14:15:38Z</time>
      </trkpt>
      <trkpt lat="45.530043980106711" lon="3.803114974871278">
        <ele>932.13999999999999</ele>
        <time>2025-04-24T14:15:47Z</time>
      </trkpt>
      <trkpt lat="45.530169038102031" lon="3.803034005686641">
        <ele>930.69000000000005</ele>
        <time>2025-04-24T14:15:48Z</time>
      </trkpt>
      <trkpt lat="45.530301975086331" lon="3.803066024556756">
        <ele>929.25</ele>
        <time>2025-04-24T14:15:49Z</time>
      </trkpt>
      <trkpt lat="45.530414041131735" lon="3.803122015669942">
        <ele>927.33000000000004</ele>
        <time>2025-04-24T14:15:50Z</time>
      </trkpt>
      <trkpt lat="45.530496016144753" lon="3.803229974582791">
        <ele>925.88999999999999</ele>
        <time>2025-04-24T14:15:51Z</time>
      </trkpt>
      <trkpt lat="45.530571034178138" lon="3.803327959030867">
        <ele>923.96000000000004</ele>
        <time>2025-04-24T14:15:52Z</time>
      </trkpt>
      <trkpt lat="45.530648985877633" lon="3.803428038954735">
        <ele>922.51999999999998</ele>
        <time>2025-04-24T14:15:53Z</time>
      </trkpt>
      <trkpt lat="45.530730038881302" lon="3.803533986210823">
        <ele>921.08000000000004</ele>
        <time>2025-04-24T14:15:54Z</time>
      </trkpt>
      <trkpt lat="45.530802961438894" lon="3.803628031164408">
        <ele>919.15999999999997</ele>
        <time>2025-04-24T14:15:55Z</time>
      </trkpt>
      <trkpt lat="45.530892983078957" lon="3.803661977872253">
        <ele>917.72000000000003</ele>
        <time>2025-04-24T14:15:56Z</time>
      </trkpt>
      <trkpt lat="45.530977975577116" lon="3.803663989529014">
        <ele>916.26999999999998</ele>
        <time>2025-04-24T14:15:57Z</time>
      </trkpt>
      <trkpt lat="45.53104997612536" lon="3.803581008687615">
        <ele>914.83000000000004</ele>
        <time>2025-04-24T14:15:58Z</time>
      </trkpt>
      <trkpt lat="45.531107978895307" lon="3.803460979834199">
        <ele>913.38999999999999</ele>
        <time>2025-04-24T14:15:59Z</time>
      </trkpt>
      <trkpt lat="45.531131029129028" lon="3.803301975131035">
        <ele>911.95000000000005</ele>
        <time>2025-04-24T14:16:00Z</time>
      </trkpt>
      <trkpt lat="45.531131029129028" lon="3.803116986528039">
        <ele>910.99000000000001</ele>
        <time>2025-04-24T14:16:01Z</time>
      </trkpt>
      <trkpt lat="45.531078977510333" lon="3.802938032895327">
        <ele>909.53999999999996</ele>
        <time>2025-04-24T14:16:02Z</time>
      </trkpt>
      <trkpt lat="45.53100798279047" lon="3.802785985171795">
        <ele>908.58000000000004</ele>
        <time>2025-04-24T14:16:03Z</time>
      </trkpt>
      <trkpt lat="45.530916033312678" lon="3.802652964368463">
        <ele>908.10000000000002</ele>
        <time>2025-04-24T14:16:04Z</time>
      </trkpt>
      <trkpt lat="45.530797010287642" lon="3.802556991577148">
        <ele>906.65999999999997</ele>
        <time>2025-04-24T14:16:05Z</time>
      </trkpt>
      <trkpt lat="45.530657032504678" lon="3.802491025999188">
        <ele>905.70000000000005</ele>
        <time>2025-04-24T14:16:06Z</time>
      </trkpt>
      <trkpt lat="45.530506996437907" lon="3.802421037107706">
        <ele>905.22000000000003</ele>
        <time>2025-04-24T14:16:07Z</time>
      </trkpt>
      <trkpt lat="45.53033902309835" lon="3.802402010187507">
        <ele>904.25999999999999</ele>
        <time>2025-04-24T14:16:08Z</time>
      </trkpt>
      <trkpt lat="45.530156968161464" lon="3.802396981045604">
        <ele>903.29999999999995</ele>
        <time>2025-04-24T14:16:09Z</time>
      </trkpt>
      <trkpt lat="45.528792981058359" lon="3.802382983267307">
        <ele>894.63999999999999</ele>
        <time>2025-04-24T14:16:16Z</time>
      </trkpt>
      <trkpt lat="45.527451960369945" lon="3.80266897380352">
        <ele>885.50999999999999</ele>
        <time>2025-04-24T14:16:23Z</time>
      </trkpt>
      <trkpt lat="45.527127999812365" lon="3.802746003493667">
        <ele>882.63</ele>
        <time>2025-04-24T14:16:25Z</time>
      </trkpt>
      <trkpt lat="45.52696798928082" lon="3.802808029577136">
        <ele>881.19000000000005</ele>
        <time>2025-04-24T14:16:26Z</time>
      </trkpt>
      <trkpt lat="45.526831028982997" lon="3.802934009581804">
        <ele>879.74000000000001</ele>
        <time>2025-04-24T14:16:27Z</time>
      </trkpt>
      <trkpt lat="45.526529029011726" lon="3.803308010101318">
        <ele>876.86000000000001</ele>
        <time>2025-04-24T14:16:30Z</time>
      </trkpt>
      <trkpt lat="45.526459040120244" lon="3.803336005657911">
        <ele>875.89999999999998</ele>
        <time>2025-04-24T14:16:31Z</time>
      </trkpt>
      <trkpt lat="45.526382010430098" lon="3.803330976516008">
        <ele>874.46000000000004</ele>
        <time>2025-04-24T14:16:32Z</time>
      </trkpt>
      <trkpt lat="45.526287965476513" lon="3.80326702259481">
        <ele>873.5</ele>
        <time>2025-04-24T14:16:33Z</time>
      </trkpt>
      <trkpt lat="45.526260975748301" lon="3.803157974034548">
        <ele>872.04999999999995</ele>
        <time>2025-04-24T14:16:34Z</time>
      </trkpt>
      <trkpt lat="45.526262987405062" lon="3.802953036502004">
        <ele>871.09000000000003</ele>
        <time>2025-04-24T14:16:35Z</time>
      </trkpt>
      <trkpt lat="45.526321996003389" lon="3.802822027355433">
        <ele>870.13</ele>
        <time>2025-04-24T14:16:36Z</time>
      </trkpt>
      <trkpt lat="45.526425009593368" lon="3.802695041522384">
        <ele>869.64999999999998</ele>
        <time>2025-04-24T14:16:37Z</time>
      </trkpt>
      <trkpt lat="45.526541015133262" lon="3.802567971870303">
        <ele>869.64999999999998</ele>
        <time>2025-04-24T14:16:38Z</time>
      </trkpt>
      <trkpt lat="45.52666699513793" lon="3.802427994087338">
        <ele>869.16999999999996</ele>
        <time>2025-04-24T14:16:39Z</time>
      </trkpt>
      <trkpt lat="45.52774197421968" lon="3.801346980035305">
        <ele>864.36000000000001</ele>
        <time>2025-04-24T14:16:46Z</time>
      </trkpt>
      <trkpt lat="45.527912965044379" lon="3.801209013909102">
        <ele>863.39999999999998</ele>
        <time>2025-04-24T14:16:47Z</time>
      </trkpt>
      <trkpt lat="45.528099965304136" lon="3.801123015582562">
        <ele>862.44000000000005</ele>
        <time>2025-04-24T14:16:48Z</time>
      </trkpt>
      <trkpt lat="45.528294006362557" lon="3.801047997549176">
        <ele>861.48000000000002</ele>
        <time>2025-04-24T14:16:49Z</time>
      </trkpt>
      <trkpt lat="45.528498021885753" lon="3.801001980900765">
        <ele>861</ele>
        <time>2025-04-24T14:16:50Z</time>
      </trkpt>
      <trkpt lat="45.530315972864628" lon="3.800585987046361">
        <ele>854.26999999999998</ele>
        <time>2025-04-24T14:16:59Z</time>
      </trkpt>
      <trkpt lat="45.530666001141071" lon="3.800409967079759">
        <ele>853.30999999999995</ele>
        <time>2025-04-24T14:17:01Z</time>
      </trkpt>
      <trkpt lat="45.530830034986138" lon="3.800311982631683">
        <ele>852.35000000000002</ele>
        <time>2025-04-24T14:17:02Z</time>
      </trkpt>
      <trkpt lat="45.530949980020523" lon="3.800141997635365">
        <ele>851.38</ele>
        <time>2025-04-24T14:17:03Z</time>
      </trkpt>
      <trkpt lat="45.531078977510333" lon="3.799957009032369">
        <ele>850.89999999999998</ele>
        <time>2025-04-24T14:17:04Z</time>
      </trkpt>
      <trkpt lat="45.531166987493634" lon="3.7997239921242">
        <ele>849.94000000000005</ele>
        <time>2025-04-24T14:17:05Z</time>
      </trkpt>
      <trkpt lat="45.531253991648555" lon="3.799491981044412">
        <ele>848.98000000000002</ele>
        <time>2025-04-24T14:17:06Z</time>
      </trkpt>
      <trkpt lat="45.531337978318334" lon="3.799267010763288">
        <ele>848.5</ele>
        <time>2025-04-24T14:17:07Z</time>
      </trkpt>
      <trkpt lat="45.531419031322002" lon="3.799044974148274">
        <ele>848.01999999999998</ele>
        <time>2025-04-24T14:17:08Z</time>
      </trkpt>
      <trkpt lat="45.531496983021498" lon="3.798831989988685">
        <ele>847.05999999999995</ele>
        <time>2025-04-24T14:17:09Z</time>
      </trkpt>
      <trkpt lat="45.532385967671871" lon="3.796560997143388">
        <ele>837.45000000000005</ele>
        <time>2025-04-24T14:17:20Z</time>
      </trkpt>
      <trkpt lat="45.533428005874157" lon="3.794673979282379">
        <ele>829.26999999999998</ele>
        <time>2025-04-24T14:17:29Z</time>
      </trkpt>
      <trkpt lat="45.534930964931846" lon="3.792639020830393">
        <ele>817.25999999999999</ele>
        <time>2025-04-24T14:17:40Z</time>
      </trkpt>
      <trkpt lat="45.53525903262198" lon="3.792048012837768">
        <ele>814.37</ele>
        <time>2025-04-24T14:17:43Z</time>
      </trkpt>
      <trkpt lat="45.535361040383577" lon="3.791865035891533">
        <ele>813.40999999999997</ele>
        <time>2025-04-24T14:17:44Z</time>
      </trkpt>
      <trkpt lat="45.535511998459697" lon="3.791745007038117">
        <ele>812.92999999999995</ele>
        <time>2025-04-24T14:17:45Z</time>
      </trkpt>
      <trkpt lat="45.535665974020958" lon="3.791632018983364">
        <ele>811.49000000000001</ele>
        <time>2025-04-24T14:17:46Z</time>
      </trkpt>
      <trkpt lat="45.535834031179547" lon="3.791544009000063">
        <ele>810.52999999999997</ele>
        <time>2025-04-24T14:17:47Z</time>
      </trkpt>
      <trkpt lat="45.536008961498737" lon="3.791459016501904">
        <ele>809.57000000000005</ele>
        <time>2025-04-24T14:17:48Z</time>
      </trkpt>
      <trkpt lat="45.537484008818865" lon="3.790697017684579">
        <ele>799.95000000000005</ele>
        <time>2025-04-24T14:17:56Z</time>
      </trkpt>
      <trkpt lat="45.537656005471945" lon="3.790555028244853">
        <ele>798.50999999999999</ele>
        <time>2025-04-24T14:17:57Z</time>
      </trkpt>
      <trkpt lat="45.53781702183187" lon="3.790380014106631">
        <ele>797.07000000000005</ele>
        <time>2025-04-24T14:17:58Z</time>
      </trkpt>
      <trkpt lat="45.537962028756738" lon="3.790168035775423">
        <ele>795.14999999999998</ele>
        <time>2025-04-24T14:17:59Z</time>
      </trkpt>
      <trkpt lat="45.538107035681605" lon="3.789956979453564">
        <ele>793.22000000000003</ele>
        <time>2025-04-24T14:18:00Z</time>
      </trkpt>
      <trkpt lat="45.53994501940906" lon="3.787275021895766">
        <ele>770.63</ele>
        <time>2025-04-24T14:18:13Z</time>
      </trkpt>
      <trkpt lat="45.540282977744937" lon="3.786910995841026">
        <ele>767.75</ele>
        <time>2025-04-24T14:18:15Z</time>
      </trkpt>
      <trkpt lat="45.540469978004694" lon="3.786774035543203">
        <ele>766.78999999999996</ele>
        <time>2025-04-24T14:18:16Z</time>
      </trkpt>
      <trkpt lat="45.541142039000988" lon="3.786201970651746">
        <ele>761.98000000000002</ele>
        <time>2025-04-24T14:18:20Z</time>
      </trkpt>
      <trkpt lat="45.541282016783953" lon="3.786012958735228">
        <ele>761.01999999999998</ele>
        <time>2025-04-24T14:18:21Z</time>
      </trkpt>
      <trkpt lat="45.541387964040041" lon="3.785780025646091">
        <ele>759.58000000000004</ele>
        <time>2025-04-24T14:18:22Z</time>
      </trkpt>
      <trkpt lat="45.541478991508484" lon="3.785548014566302">
        <ele>758.62</ele>
        <time>2025-04-24T14:18:23Z</time>
      </trkpt>
      <trkpt lat="45.541551997885108" lon="3.785323966294527">
        <ele>757.17999999999995</ele>
        <time>2025-04-24T14:18:24Z</time>
      </trkpt>
      <trkpt lat="45.541568007320166" lon="3.785092961043119">
        <ele>756.21000000000004</ele>
        <time>2025-04-24T14:18:25Z</time>
      </trkpt>
      <trkpt lat="45.54155501537025" lon="3.784863967448473">
        <ele>755.25</ele>
        <time>2025-04-24T14:18:26Z</time>
      </trkpt>
      <trkpt lat="45.541500030085444" lon="3.784643020480871">
        <ele>754.28999999999996</ele>
        <time>2025-04-24T14:18:27Z</time>
      </trkpt>
      <trkpt lat="45.541423000395298" lon="3.78442500717938">
        <ele>752.85000000000002</ele>
        <time>2025-04-24T14:18:28Z</time>
      </trkpt>
      <trkpt lat="45.541332978755236" lon="3.784219985827804">
        <ele>751.88999999999999</ele>
        <time>2025-04-24T14:18:29Z</time>
      </trkpt>
      <trkpt lat="45.541223008185625" lon="3.784056035801768">
        <ele>751.40999999999997</ele>
        <time>2025-04-24T14:18:30Z</time>
      </trkpt>
      <trkpt lat="45.541090993210673" lon="3.783942963927984">
        <ele>750.45000000000005</ele>
        <time>2025-04-24T14:18:31Z</time>
      </trkpt>
      <trkpt lat="45.540941040962934" lon="3.783887978643179">
        <ele>749.49000000000001</ele>
        <time>2025-04-24T14:18:32Z</time>
      </trkpt>
      <trkpt lat="45.540786981582642" lon="3.783870963379741">
        <ele>748.51999999999998</ele>
        <time>2025-04-24T14:18:33Z</time>
      </trkpt>
      <trkpt lat="45.5406129732728" lon="3.783878004178405">
        <ele>747.55999999999995</ele>
        <time>2025-04-24T14:18:34Z</time>
      </trkpt>
      <trkpt lat="45.540426978841424" lon="3.783885966986418">
        <ele>746.12</ele>
        <time>2025-04-24T14:18:35Z</time>
      </trkpt>
      <trkpt lat="45.538929970934987" lon="3.784004990011454">
        <ele>737.95000000000005</ele>
        <time>2025-04-24T14:18:42Z</time>
      </trkpt>
      <trkpt lat="45.53833301179111" lon="3.784131975844502">
        <ele>733.62</ele>
        <time>2025-04-24T14:18:45Z</time>
      </trkpt>
      <trkpt lat="45.538177024573088" lon="3.784088976681233">
        <ele>732.17999999999995</ele>
        <time>2025-04-24T14:18:46Z</time>
      </trkpt>
      <trkpt lat="45.538024976849556" lon="3.783991998061538">
        <ele>730.74000000000001</ele>
        <time>2025-04-24T14:18:47Z</time>
      </trkpt>
      <trkpt lat="45.537691041827202" lon="3.783775996416807">
        <ele>728.34000000000003</ele>
        <time>2025-04-24T14:18:49Z</time>
      </trkpt>
      <trkpt lat="45.537501024082303" lon="3.783714976161718">
        <ele>727.37</ele>
        <time>2025-04-24T14:18:50Z</time>
      </trkpt>
      <trkpt lat="45.537316035479307" lon="3.783663008362055">
        <ele>725.92999999999995</ele>
        <time>2025-04-24T14:18:51Z</time>
      </trkpt>
      <trkpt lat="45.537120988592505" lon="3.783685974776745">
        <ele>724.97000000000003</ele>
        <time>2025-04-24T14:18:52Z</time>
      </trkpt>
      <trkpt lat="45.536933988332748" lon="3.783725034445524">
        <ele>723.52999999999997</ele>
        <time>2025-04-24T14:18:53Z</time>
      </trkpt>
      <trkpt lat="45.536761991679668" lon="3.783807009458542">
        <ele>722.57000000000005</ele>
        <time>2025-04-24T14:18:54Z</time>
      </trkpt>
      <trkpt lat="45.536602986976504" lon="3.783905999734998">
        <ele>721.61000000000001</ele>
        <time>2025-04-24T14:18:55Z</time>
      </trkpt>
      <trkpt lat="45.536479018628597" lon="3.784043965861201">
        <ele>720.15999999999997</ele>
        <time>2025-04-24T14:18:56Z</time>
      </trkpt>
      <trkpt lat="45.536396037787199" lon="3.784199031069875">
        <ele>719.20000000000005</ele>
        <time>2025-04-24T14:18:57Z</time>
      </trkpt>
      <trkpt lat="45.536363013088703" lon="3.784350994974375">
        <ele>717.75999999999999</ele>
        <time>2025-04-24T14:18:58Z</time>
      </trkpt>
      <trkpt lat="45.536341974511743" lon="3.784513017162681">
        <ele>716.79999999999995</ele>
        <time>2025-04-24T14:18:59Z</time>
      </trkpt>
      <trkpt lat="45.536321019753814" lon="3.784672021865845">
        <ele>715.84000000000003</ele>
        <time>2025-04-24T14:19:00Z</time>
      </trkpt>
      <trkpt lat="45.536301992833614" lon="3.784823985770345">
        <ele>714.39999999999998</ele>
        <time>2025-04-24T14:19:01Z</time>
      </trkpt>
      <trkpt lat="45.536263016983867" lon="3.784935967996717">
        <ele>713.44000000000005</ele>
        <time>2025-04-24T14:19:02Z</time>
      </trkpt>
      <trkpt lat="45.536182969808578" lon="3.784997994080186">
        <ele>712.47000000000003</ele>
        <time>2025-04-24T14:19:03Z</time>
      </trkpt>
      <trkpt lat="45.5360989831388" lon="3.785025989636779">
        <ele>711.50999999999999</ele>
        <time>2025-04-24T14:19:04Z</time>
      </trkpt>
      <trkpt lat="45.535997981205583" lon="3.784924987703562">
        <ele>710.54999999999995</ele>
        <time>2025-04-24T14:19:05Z</time>
      </trkpt>
      <trkpt lat="45.535903014242649" lon="3.784830020740628">
        <ele>709.11000000000001</ele>
        <time>2025-04-24T14:19:06Z</time>
      </trkpt>
      <trkpt lat="45.535831013694406" lon="3.784699011594057">
        <ele>708.14999999999998</ele>
        <time>2025-04-24T14:19:07Z</time>
      </trkpt>
      <trkpt lat="45.535766975954175" lon="3.784520979970694">
        <ele>707.19000000000005</ele>
        <time>2025-04-24T14:19:08Z</time>
      </trkpt>
      <trkpt lat="45.535701010376215" lon="3.784334985539317">
        <ele>705.75</ele>
        <time>2025-04-24T14:19:09Z</time>
      </trkpt>
      <trkpt lat="45.535623980686069" lon="3.784157959744334">
        <ele>704.29999999999995</ele>
        <time>2025-04-24T14:19:10Z</time>
      </trkpt>
      <trkpt lat="45.535527002066374" lon="3.784032985568047">
        <ele>702.86000000000001</ele>
        <time>2025-04-24T14:19:11Z</time>
      </trkpt>
      <trkpt lat="45.535404039546847" lon="3.783948998898268">
        <ele>701.89999999999998</ele>
        <time>2025-04-24T14:19:12Z</time>
      </trkpt>
      <trkpt lat="45.535272024571896" lon="3.783907005563378">
        <ele>700.46000000000004</ele>
        <time>2025-04-24T14:19:13Z</time>
      </trkpt>
      <trkpt lat="45.535126011818647" lon="3.783898958936334">
        <ele>699.5</ele>
        <time>2025-04-24T14:19:14Z</time>
      </trkpt>
      <trkpt lat="45.534973964095116" lon="3.78388999029994">
        <ele>698.52999999999997</ele>
        <time>2025-04-24T14:19:15Z</time>
      </trkpt>
      <trkpt lat="45.534822000190616" lon="3.783928966149688">
        <ele>697.57000000000005</ele>
        <time>2025-04-24T14:19:16Z</time>
      </trkpt>
      <trkpt lat="45.53466098383069" lon="3.7839749827981">
        <ele>696.61000000000001</ele>
        <time>2025-04-24T14:19:17Z</time>
      </trkpt>
      <trkpt lat="45.534558976069093" lon="3.784053018316627">
        <ele>696.13</ele>
        <time>2025-04-24T14:19:18Z</time>
      </trkpt>
      <trkpt lat="45.534452022984624" lon="3.784133987501264">
        <ele>695.64999999999998</ele>
        <time>2025-04-24T14:19:19Z</time>
      </trkpt>
      <trkpt lat="45.534352026879787" lon="3.78421001136303">
        <ele>695.16999999999996</ele>
        <time>2025-04-24T14:19:20Z</time>
      </trkpt>
      <trkpt lat="45.534266028553247" lon="3.78427597694099">
        <ele>694.69000000000005</ele>
        <time>2025-04-24T14:19:21Z</time>
      </trkpt>
      <trkpt lat="45.534166032448411" lon="3.784289974719286">
        <ele>694.21000000000004</ele>
        <time>2025-04-24T14:19:22Z</time>
      </trkpt>
      <trkpt lat="45.534089002758265" lon="3.784242030233145">
        <ele>693.73000000000002</ele>
        <time>2025-04-24T14:19:23Z</time>
      </trkpt>
      <trkpt lat="45.534007027745247" lon="3.784129964187741">
        <ele>693.25</ele>
        <time>2025-04-24T14:19:24Z</time>
      </trkpt>
      <trkpt lat="45.533958999440074" lon="3.783948998898268">
        <ele>692.28999999999996</ele>
        <time>2025-04-24T14:19:25Z</time>
      </trkpt>
      <trkpt lat="45.533975008875132" lon="3.78382402472198">
        <ele>691.80999999999995</ele>
        <time>2025-04-24T14:19:26Z</time>
      </trkpt>
      <trkpt lat="45.534060001373291" lon="3.783686980605125">
        <ele>690.84000000000003</ele>
        <time>2025-04-24T14:19:27Z</time>
      </trkpt>
      <trkpt lat="45.534180030226707" lon="3.783613974228501">
        <ele>690.36000000000001</ele>
        <time>2025-04-24T14:19:28Z</time>
      </trkpt>
      <trkpt lat="45.534308021888137" lon="3.783564018085599">
        <ele>689.39999999999998</ele>
        <time>2025-04-24T14:19:29Z</time>
      </trkpt>
      <trkpt lat="45.53444598801434" lon="3.783510038629174">
        <ele>688.44000000000005</ele>
        <time>2025-04-24T14:19:30Z</time>
      </trkpt>
      <trkpt lat="45.53500397130847" lon="3.78322396427393">
        <ele>685.55999999999995</ele>
        <time>2025-04-24T14:19:34Z</time>
      </trkpt>
      <trkpt lat="45.535119976848364" lon="3.783142995089293">
        <ele>684.60000000000002</ele>
        <time>2025-04-24T14:19:35Z</time>
      </trkpt>
      <trkpt lat="45.535194994881749" lon="3.782978961244226">
        <ele>683.63</ele>
        <time>2025-04-24T14:19:36Z</time>
      </trkpt>
      <trkpt lat="45.535255009308457" lon="3.782781986519694">
        <ele>682.66999999999996</ele>
        <time>2025-04-24T14:19:37Z</time>
      </trkpt>
      <trkpt lat="45.535289961844683" lon="3.782546035945416">
        <ele>681.23000000000002</ele>
        <time>2025-04-24T14:19:38Z</time>
      </trkpt>
      <trkpt lat="45.535328015685081" lon="3.782292986288667">
        <ele>680.26999999999998</ele>
        <time>2025-04-24T14:19:39Z</time>
      </trkpt>
      <trkpt lat="45.535387024283409" lon="3.781774984672666">
        <ele>677.87</ele>
        <time>2025-04-24T14:19:41Z</time>
      </trkpt>
      <trkpt lat="45.535377971827984" lon="3.7815279699862">
        <ele>676.90999999999997</ele>
        <time>2025-04-24T14:19:42Z</time>
      </trkpt>
      <trkpt lat="45.53536799736321" lon="3.781286990270019">
        <ele>675.46000000000004</ele>
        <time>2025-04-24T14:19:43Z</time>
      </trkpt>
      <trkpt lat="45.535359028726816" lon="3.781039975583553">
        <ele>674.5</ele>
        <time>2025-04-24T14:19:44Z</time>
      </trkpt>
      <trkpt lat="45.53534897044301" lon="3.780787009745836">
        <ele>673.53999999999996</ele>
        <time>2025-04-24T14:19:45Z</time>
      </trkpt>
      <trkpt lat="45.535385012626648" lon="3.780524991452694">
        <ele>672.58000000000004</ele>
        <time>2025-04-24T14:19:46Z</time>
      </trkpt>
      <trkpt lat="45.535428011789918" lon="3.780259033665061">
        <ele>671.13999999999999</ele>
        <time>2025-04-24T14:19:47Z</time>
      </trkpt>
      <trkpt lat="45.535741997882724" lon="3.778645014390349">
        <ele>662.97000000000003</ele>
        <time>2025-04-24T14:19:53Z</time>
      </trkpt>
      <trkpt lat="45.535760018974543" lon="3.778387019410729">
        <ele>661.51999999999998</ele>
        <time>2025-04-24T14:19:54Z</time>
      </trkpt>
      <trkpt lat="45.535793965682387" lon="3.777897013351321">
        <ele>659.12</ele>
        <time>2025-04-24T14:19:56Z</time>
      </trkpt>
      <trkpt lat="45.53584199398756" lon="3.777686962857842">
        <ele>657.67999999999995</ele>
        <time>2025-04-24T14:19:57Z</time>
      </trkpt>
      <trkpt lat="45.535908965393901" lon="3.777505997568369">
        <ele>656.24000000000001</ele>
        <time>2025-04-24T14:19:58Z</time>
      </trkpt>
      <trkpt lat="45.536035029217601" lon="3.777343975380063">
        <ele>654.79999999999995</ele>
        <time>2025-04-24T14:19:59Z</time>
      </trkpt>
      <trkpt lat="45.536151034757495" lon="3.777263006195426">
        <ele>653.35000000000002</ele>
        <time>2025-04-24T14:20:00Z</time>
      </trkpt>
      <trkpt lat="45.536295035853982" lon="3.777160998433828">
        <ele>652.38999999999999</ele>
        <time>2025-04-24T14:20:01Z</time>
      </trkpt>
      <trkpt lat="45.536578008905053" lon="3.776962012052536">
        <ele>649.99000000000001</ele>
        <time>2025-04-24T14:20:03Z</time>
      </trkpt>
      <trkpt lat="45.536667024716735" lon="3.776831002905965">
        <ele>649.02999999999997</ele>
        <time>2025-04-24T14:20:04Z</time>
      </trkpt>
      <trkpt lat="45.536733996123075" lon="3.776696976274252">
        <ele>648.07000000000005</ele>
        <time>2025-04-24T14:20:05Z</time>
      </trkpt>
      <trkpt lat="45.536742964759469" lon="3.776550041511655">
        <ele>647.10000000000002</ele>
        <time>2025-04-24T14:20:06Z</time>
      </trkpt>
      <trkpt lat="45.53669803775847" lon="3.776386007666588">
        <ele>646.13999999999999</ele>
        <time>2025-04-24T14:20:07Z</time>
      </trkpt>
      <trkpt lat="45.536634000018239" lon="3.776244018226862">
        <ele>645.17999999999995</ele>
        <time>2025-04-24T14:20:08Z</time>
      </trkpt>
      <trkpt lat="45.536527968943119" lon="3.776077972725034">
        <ele>644.22000000000003</ele>
        <time>2025-04-24T14:20:09Z</time>
      </trkpt>
      <trkpt lat="45.536425961181521" lon="3.775994991883636">
        <ele>643.25999999999999</ele>
        <time>2025-04-24T14:20:10Z</time>
      </trkpt>
      <trkpt lat="45.53629201836884" lon="3.775886027142406">
        <ele>642.77999999999997</ele>
        <time>2025-04-24T14:20:11Z</time>
      </trkpt>
      <trkpt lat="45.535545023158193" lon="3.775237016379833">
        <ele>638.92999999999995</ele>
        <time>2025-04-24T14:20:16Z</time>
      </trkpt>
      <trkpt lat="45.535420970991254" lon="3.775050016120076">
        <ele>637.97000000000003</ele>
        <time>2025-04-24T14:20:17Z</time>
      </trkpt>
      <trkpt lat="45.535303959622979" lon="3.774852035567164">
        <ele>637.00999999999999</ele>
        <time>2025-04-24T14:20:18Z</time>
      </trkpt>
      <trkpt lat="45.535199018195271" lon="3.774643996730447">
        <ele>636.04999999999995</ele>
        <time>2025-04-24T14:20:19Z</time>
      </trkpt>
      <trkpt lat="45.535126011818647" lon="3.774411985650659">
        <ele>635.09000000000003</ele>
        <time>2025-04-24T14:20:20Z</time>
      </trkpt>
      <trkpt lat="45.535076977685094" lon="3.774165976792574">
        <ele>634.13</ele>
        <time>2025-04-24T14:20:21Z</time>
      </trkpt>
      <trkpt lat="45.535027021542192" lon="3.773917034268379">
        <ele>633.16999999999996</ele>
        <time>2025-04-24T14:20:22Z</time>
      </trkpt>
      <trkpt lat="45.534929037094116" lon="3.773428034037352">
        <ele>630.75999999999999</ele>
        <time>2025-04-24T14:20:24Z</time>
      </trkpt>
      <trkpt lat="45.534941023215652" lon="3.773174984380603">
        <ele>629.79999999999995</ele>
        <time>2025-04-24T14:20:25Z</time>
      </trkpt>
      <trkpt lat="45.534969018772244" lon="3.772919001057744">
        <ele>628.84000000000003</ele>
        <time>2025-04-24T14:20:26Z</time>
      </trkpt>
      <trkpt lat="45.535083012655377" lon="3.77190001308918">
        <ele>623.07000000000005</ele>
        <time>2025-04-24T14:20:30Z</time>
      </trkpt>
      <trkpt lat="45.535072032362223" lon="3.771655010059476">
        <ele>622.11000000000001</ele>
        <time>2025-04-24T14:20:31Z</time>
      </trkpt>
      <trkpt lat="45.53504697047174" lon="3.771416964009404">
        <ele>620.66999999999996</ele>
        <time>2025-04-24T14:20:32Z</time>
      </trkpt>
      <trkpt lat="45.534919984638691" lon="3.770183986052871">
        <ele>615.86000000000001</ele>
        <time>2025-04-24T14:20:38Z</time>
      </trkpt>
      <trkpt lat="45.534931970760226" lon="3.769994974136353">
        <ele>615.38</ele>
        <time>2025-04-24T14:20:39Z</time>
      </trkpt>
      <trkpt lat="45.534958960488439" lon="3.769805040210486">
        <ele>614.41999999999996</ele>
        <time>2025-04-24T14:20:40Z</time>
      </trkpt>
      <trkpt lat="45.535006988793612" lon="3.769624996930361">
        <ele>613.46000000000004</ele>
        <time>2025-04-24T14:20:41Z</time>
      </trkpt>
      <trkpt lat="45.535094998776913" lon="3.769486024975777">
        <ele>612.01999999999998</ele>
        <time>2025-04-24T14:20:42Z</time>
      </trkpt>
      <trkpt lat="45.535194994881749" lon="3.76938602887094">
        <ele>611.05999999999995</ele>
        <time>2025-04-24T14:20:43Z</time>
      </trkpt>
      <trkpt lat="45.535315023735166" lon="3.769351998344064">
        <ele>609.61000000000001</ele>
        <time>2025-04-24T14:20:44Z</time>
      </trkpt>
      <trkpt lat="45.535456007346511" lon="3.769373036921024">
        <ele>608.64999999999998</ele>
        <time>2025-04-24T14:20:45Z</time>
      </trkpt>
      <trkpt lat="45.535613000392914" lon="3.769396003335714">
        <ele>607.69000000000005</ele>
        <time>2025-04-24T14:20:46Z</time>
      </trkpt>
      <trkpt lat="45.53695603273809" lon="3.769345041364431">
        <ele>600</ele>
        <time>2025-04-24T14:20:53Z</time>
      </trkpt>
      <trkpt lat="45.537290973588824" lon="3.76938502304256">
        <ele>597.60000000000002</ele>
        <time>2025-04-24T14:20:55Z</time>
      </trkpt>
      <trkpt lat="45.537434974685311" lon="3.769437996670604">
        <ele>596.63999999999999</ele>
        <time>2025-04-24T14:20:56Z</time>
      </trkpt>
      <trkpt lat="45.537686012685299" lon="3.769531035795808">
        <ele>594.23000000000002</ele>
        <time>2025-04-24T14:20:58Z</time>
      </trkpt>
      <trkpt lat="45.537782991304994" lon="3.76953698694706">
        <ele>593.75</ele>
        <time>2025-04-24T14:20:59Z</time>
      </trkpt>
      <trkpt lat="45.537878964096308" lon="3.769482001662254">
        <ele>592.78999999999996</ele>
        <time>2025-04-24T14:21:00Z</time>
      </trkpt>
      <trkpt lat="45.537947025150061" lon="3.769340012222529">
        <ele>591.83000000000004</ele>
        <time>2025-04-24T14:21:01Z</time>
      </trkpt>
      <trkpt lat="45.538009973242879" lon="3.769160974770784">
        <ele>590.87</ele>
        <time>2025-04-24T14:21:02Z</time>
      </trkpt>
      <trkpt lat="45.538058001548052" lon="3.76893600448966">
        <ele>589.90999999999997</ele>
        <time>2025-04-24T14:21:03Z</time>
      </trkpt>
      <trkpt lat="45.538099994882941" lon="3.768683960661292">
        <ele>588.95000000000005</ele>
        <time>2025-04-24T14:21:04Z</time>
      </trkpt>
      <trkpt lat="45.538478018715978" lon="3.766354965046048">
        <ele>580.28999999999996</ele>
        <time>2025-04-24T14:21:12Z</time>
      </trkpt>
      <trkpt lat="45.538696032017469" lon="3.765214020386338">
        <ele>576.92999999999995</ele>
        <time>2025-04-24T14:21:16Z</time>
      </trkpt>
      <trkpt lat="45.538777001202106" lon="3.764950996264815">
        <ele>575.49000000000001</ele>
        <time>2025-04-24T14:21:17Z</time>
      </trkpt>
      <trkpt lat="45.538866017013788" lon="3.764685960486531">
        <ele>574.03999999999996</ele>
        <time>2025-04-24T14:21:18Z</time>
      </trkpt>
      <trkpt lat="45.539542017504573" lon="3.763244021683931">
        <ele>566.35000000000002</ele>
        <time>2025-04-24T14:21:24Z</time>
      </trkpt>
      <trkpt lat="45.539617035537958" lon="3.762980997562408">
        <ele>565.38999999999999</ele>
        <time>2025-04-24T14:21:25Z</time>
      </trkpt>
      <trkpt lat="45.539788026362658" lon="3.762224027886987">
        <ele>562.02999999999997</ele>
        <time>2025-04-24T14:21:28Z</time>
      </trkpt>
      <trkpt lat="45.539833037182689" lon="3.761958992108703">
        <ele>560.59000000000003</ele>
        <time>2025-04-24T14:21:29Z</time>
      </trkpt>
      <trkpt lat="45.5399239808321" lon="3.76128600910306">
        <ele>558.17999999999995</ele>
        <time>2025-04-24T14:21:32Z</time>
      </trkpt>
      <trkpt lat="45.540002016350627" lon="3.761091968044639">
        <ele>556.74000000000001</ele>
        <time>2025-04-24T14:21:33Z</time>
      </trkpt>
      <trkpt lat="45.540111986920238" lon="3.760886024683714">
        <ele>556.25999999999999</ele>
        <time>2025-04-24T14:21:34Z</time>
      </trkpt>
      <trkpt lat="45.540236039087176" lon="3.760760966688395">
        <ele>555.29999999999995</ele>
        <time>2025-04-24T14:21:35Z</time>
      </trkpt>
      <trkpt lat="45.540379034355283" lon="3.760618977248669">
        <ele>554.34000000000003</ele>
        <time>2025-04-24T14:21:36Z</time>
      </trkpt>
      <trkpt lat="45.541347982361913" lon="3.759653968736529">
        <ele>549.52999999999997</ele>
        <time>2025-04-24T14:21:43Z</time>
      </trkpt>
      <trkpt lat="45.542579032480717" lon="3.758433982729912">
        <ele>547.61000000000001</ele>
        <time>2025-04-24T14:21:54Z</time>
      </trkpt>
      <trkpt lat="45.543534988537431" lon="3.757446007803083">
        <ele>548.09000000000003</ele>
        <time>2025-04-24T14:22:04Z</time>
      </trkpt>
      <trkpt lat="45.543617969378829" lon="3.757322039455175">
        <ele>548.57000000000005</ele>
        <time>2025-04-24T14:22:05Z</time>
      </trkpt>
      <trkpt lat="45.543716037645936" lon="3.757174015045166">
        <ele>549.04999999999995</ele>
        <time>2025-04-24T14:22:06Z</time>
      </trkpt>
      <trkpt lat="45.543761970475316" lon="3.757043005898595">
        <ele>549.52999999999997</ele>
        <time>2025-04-24T14:22:07Z</time>
      </trkpt>
      <trkpt lat="45.543815027922392" lon="3.756886012852192">
        <ele>550.00999999999999</ele>
        <time>2025-04-24T14:22:08Z</time>
      </trkpt>
      <trkpt lat="45.543870013207197" lon="3.756728013977408">
        <ele>550.00999999999999</ele>
        <time>2025-04-24T14:22:09Z</time>
      </trkpt>
      <trkpt lat="45.543923992663622" lon="3.756571020931006">
        <ele>550.49000000000001</ele>
        <time>2025-04-24T14:22:10Z</time>
      </trkpt>
      <trkpt lat="45.543971015140414" lon="3.756405981257558">
        <ele>550.97000000000003</ele>
        <time>2025-04-24T14:22:11Z</time>
      </trkpt>
      <trkpt lat="45.54419900290668" lon="3.755261013284326">
        <ele>553.38</ele>
        <time>2025-04-24T14:22:18Z</time>
      </trkpt>
      <trkpt lat="45.544209983199835" lon="3.755093039944768">
        <ele>553.38</ele>
        <time>2025-04-24T14:22:19Z</time>
      </trkpt>
      <trkpt lat="45.544209983199835" lon="3.754922971129417">
        <ele>553.86000000000001</ele>
        <time>2025-04-24T14:22:20Z</time>
      </trkpt>
      <trkpt lat="45.544147035107017" lon="3.754055025056005">
        <ele>554.34000000000003</ele>
        <time>2025-04-24T14:22:25Z</time>
      </trkpt>
      <trkpt lat="45.544157009571791" lon="3.753885962069035">
        <ele>554.82000000000005</ele>
        <time>2025-04-24T14:22:26Z</time>
      </trkpt>
      <trkpt lat="45.544176958501339" lon="3.753712037578225">
        <ele>554.82000000000005</ele>
        <time>2025-04-24T14:22:27Z</time>
      </trkpt>
      <trkpt lat="45.544677022844553" lon="3.752680979669094">
        <ele>559.62</ele>
        <time>2025-04-24T14:22:35Z</time>
      </trkpt>
      <trkpt lat="45.545078013092279" lon="3.75191998668015">
        <ele>560.59000000000003</ele>
        <time>2025-04-24T14:22:44Z</time>
      </trkpt>
      <trkpt lat="45.545434998348355" lon="3.751242980360985">
        <ele>560.11000000000001</ele>
        <time>2025-04-24T14:22:51Z</time>
      </trkpt>
      <trkpt lat="45.545485960319638" lon="3.75114600174129">
        <ele>560.11000000000001</ele>
        <time>2025-04-24T14:22:52Z</time>
      </trkpt>
      <trkpt lat="45.545538011938334" lon="3.751048017293215">
        <ele>560.11000000000001</ele>
        <time>2025-04-24T14:22:53Z</time>
      </trkpt>
      <trkpt lat="45.545589979737997" lon="3.750947015359998">
        <ele>560.11000000000001</ele>
        <time>2025-04-24T14:22:54Z</time>
      </trkpt>
      <trkpt lat="45.545642031356692" lon="3.750850036740303">
        <ele>559.62</ele>
        <time>2025-04-24T14:22:55Z</time>
      </trkpt>
      <trkpt lat="45.545696010813117" lon="3.750748028978705">
        <ele>559.62</ele>
        <time>2025-04-24T14:22:56Z</time>
      </trkpt>
      <trkpt lat="45.545749990269542" lon="3.750644009560347">
        <ele>559.13999999999999</ele>
        <time>2025-04-24T14:22:57Z</time>
      </trkpt>
      <trkpt lat="45.545960962772369" lon="3.750245030969381">
        <ele>556.74000000000001</ele>
        <time>2025-04-24T14:23:01Z</time>
      </trkpt>
      <trkpt lat="45.546016031876206" lon="3.750140005722642">
        <ele>555.77999999999997</ele>
        <time>2025-04-24T14:23:02Z</time>
      </trkpt>
      <trkpt lat="45.546663030982018" lon="3.748909961432219">
        <ele>550.97000000000003</ele>
        <time>2025-04-24T14:23:13Z</time>
      </trkpt>
      <trkpt lat="45.546720027923584" lon="3.748802002519369">
        <ele>550.00999999999999</ele>
        <time>2025-04-24T14:23:14Z</time>
      </trkpt>
      <trkpt lat="45.547124035656452" lon="3.748049978166819">
        <ele>546.16999999999996</ele>
        <time>2025-04-24T14:23:21Z</time>
      </trkpt>
      <trkpt lat="45.547180026769638" lon="3.74794302508235">
        <ele>545.69000000000005</ele>
        <time>2025-04-24T14:23:22Z</time>
      </trkpt>
      <trkpt lat="45.547287985682487" lon="3.74773196876049">
        <ele>545.20000000000005</ele>
        <time>2025-04-24T14:23:24Z</time>
      </trkpt>
      <trkpt lat="45.547398962080479" lon="3.74751596711576">
        <ele>544.72000000000003</ele>
        <time>2025-04-24T14:23:26Z</time>
      </trkpt>
      <trkpt lat="45.547457970678806" lon="3.747402979061008">
        <ele>544.24000000000001</ele>
        <time>2025-04-24T14:23:27Z</time>
      </trkpt>
      <trkpt lat="45.547512033954263" lon="3.7472980376333">
        <ele>543.75999999999999</ele>
        <time>2025-04-24T14:23:28Z</time>
      </trkpt>
      <trkpt lat="45.547671960666776" lon="3.746987991034985">
        <ele>543.27999999999997</ele>
        <time>2025-04-24T14:23:31Z</time>
      </trkpt>
      <trkpt lat="45.547783020883799" lon="3.746774001047015">
        <ele>543.27999999999997</ele>
        <time>2025-04-24T14:23:33Z</time>
      </trkpt>
      <trkpt lat="45.547837000340223" lon="3.746667969971895">
        <ele>542.79999999999995</ele>
        <time>2025-04-24T14:23:34Z</time>
      </trkpt>
      <trkpt lat="45.547890979796648" lon="3.746565040200949">
        <ele>542.32000000000005</ele>
        <time>2025-04-24T14:23:35Z</time>
      </trkpt>
      <trkpt lat="45.547944037243724" lon="3.746462026610971">
        <ele>541.84000000000003</ele>
        <time>2025-04-24T14:23:36Z</time>
      </trkpt>
      <trkpt lat="45.547996005043387" lon="3.746360018849373">
        <ele>541.36000000000001</ele>
        <time>2025-04-24T14:23:37Z</time>
      </trkpt>
      <trkpt lat="45.548047972843051" lon="3.746264968067408">
        <ele>540.88</ele>
        <time>2025-04-24T14:23:38Z</time>
      </trkpt>
      <trkpt lat="45.548154003918171" lon="3.746068999171257">
        <ele>540.39999999999998</ele>
        <time>2025-04-24T14:23:40Z</time>
      </trkpt>
      <trkpt lat="45.548203960061073" lon="3.745975960046053">
        <ele>539.91999999999996</ele>
        <time>2025-04-24T14:23:41Z</time>
      </trkpt>
      <trkpt lat="45.548252994194627" lon="3.745886022225022">
        <ele>539.91999999999996</ele>
        <time>2025-04-24T14:23:42Z</time>
      </trkpt>
      <trkpt lat="45.548303034156561" lon="3.745793988928199">
        <ele>539.44000000000005</ele>
        <time>2025-04-24T14:23:43Z</time>
      </trkpt>
      <trkpt lat="45.548351984471083" lon="3.745704973116517">
        <ele>539.44000000000005</ele>
        <time>2025-04-24T14:23:44Z</time>
      </trkpt>
      <trkpt lat="45.548520041629672" lon="3.745363997295499">
        <ele>538.48000000000002</ele>
        <time>2025-04-24T14:23:48Z</time>
      </trkpt>
      <trkpt lat="45.548557005822659" lon="3.745285039767623">
        <ele>538.48000000000002</ele>
        <time>2025-04-24T14:23:49Z</time>
      </trkpt>
      <trkpt lat="45.548591958358884" lon="3.745180014520884">
        <ele>537.99000000000001</ele>
        <time>2025-04-24T14:23:50Z</time>
      </trkpt>
      <trkpt lat="45.548651972785592" lon="3.744985973462462">
        <ele>537.02999999999997</ele>
        <time>2025-04-24T14:23:52Z</time>
      </trkpt>
      <trkpt lat="45.548778958618641" lon="3.744017025455833">
        <ele>534.63</ele>
        <time>2025-04-24T14:24:03Z</time>
      </trkpt>
      <trkpt lat="45.548790022730827" lon="3.743938989937306">
        <ele>534.63</ele>
        <time>2025-04-24T14:24:04Z</time>
      </trkpt>
      <trkpt lat="45.548930000513792" lon="3.742908015847206">
        <ele>534.14999999999998</ele>
        <time>2025-04-24T14:24:16Z</time>
      </trkpt>
      <trkpt lat="45.549009963870049" lon="3.742340980097652">
        <ele>533.19000000000005</ele>
        <time>2025-04-24T14:24:22Z</time>
      </trkpt>
      <trkpt lat="45.549052963033319" lon="3.742041997611523">
        <ele>531.75</ele>
        <time>2025-04-24T14:24:25Z</time>
      </trkpt>
      <trkpt lat="45.549066038802266" lon="3.741945018991828">
        <ele>531.26999999999998</ele>
        <time>2025-04-24T14:24:26Z</time>
      </trkpt>
      <trkpt lat="45.549080958589911" lon="3.741839993745089">
        <ele>530.78999999999996</ele>
        <time>2025-04-24T14:24:27Z</time>
      </trkpt>
      <trkpt lat="45.549095962196589" lon="3.741733962669969">
        <ele>530.29999999999995</ele>
        <time>2025-04-24T14:24:28Z</time>
      </trkpt>
      <trkpt lat="45.549110965803266" lon="3.741632038727403">
        <ele>529.82000000000005</ele>
        <time>2025-04-24T14:24:29Z</time>
      </trkpt>
      <trkpt lat="45.549141978845" lon="3.74141201376915">
        <ele>528.38</ele>
        <time>2025-04-24T14:24:31Z</time>
      </trkpt>
      <trkpt lat="45.549156982451677" lon="3.741303971037269">
        <ele>527.89999999999998</ele>
        <time>2025-04-24T14:24:32Z</time>
      </trkpt>
      <trkpt lat="45.549171986058354" lon="3.741194000467658">
        <ele>527.89999999999998</ele>
        <time>2025-04-24T14:24:33Z</time>
      </trkpt>
      <trkpt lat="45.549187995493412" lon="3.741086041554809">
        <ele>527.41999999999996</ele>
        <time>2025-04-24T14:24:34Z</time>
      </trkpt>
      <trkpt lat="45.549202999100089" lon="3.740981016308069">
        <ele>526.94000000000005</ele>
        <time>2025-04-24T14:24:35Z</time>
      </trkpt>
      <trkpt lat="45.549256978556514" lon="3.740567034110427">
        <ele>525.5</ele>
        <time>2025-04-24T14:24:39Z</time>
      </trkpt>
      <trkpt lat="45.54926997050643" lon="3.740464020520449">
        <ele>525.01999999999998</ele>
        <time>2025-04-24T14:24:40Z</time>
      </trkpt>
      <trkpt lat="45.549282040446997" lon="3.740369975566864">
        <ele>524.53999999999996</ele>
        <time>2025-04-24T14:24:41Z</time>
      </trkpt>
      <trkpt lat="45.549293020740151" lon="3.740282971411943">
        <ele>524.05999999999995</ele>
        <time>2025-04-24T14:24:42Z</time>
      </trkpt>
      <trkpt lat="45.549304001033306" lon="3.740223040804267">
        <ele>523.58000000000004</ele>
        <time>2025-04-24T14:24:43Z</time>
      </trkpt>
      <trkpt lat="45.549311963841319" lon="3.740180963650346">
        <ele>523.58000000000004</ele>
        <time>2025-04-24T14:24:44Z</time>
      </trkpt>
      <trkpt lat="45.549316992983222" lon="3.740157997235656">
        <ele>523.09000000000003</ele>
        <time>2025-04-24T14:24:45Z</time>
      </trkpt>
      <trkpt lat="45.549316992983222" lon="3.740157997235656">
        <ele>522.61000000000001</ele>
        <time>2025-04-24T14:24:57Z</time>
      </trkpt>
      <trkpt lat="45.549359992146492" lon="3.739843005314469">
        <ele>521.64999999999998</ele>
        <time>2025-04-24T14:25:15Z</time>
      </trkpt>
      <trkpt lat="45.549368038773537" lon="3.739780979231">
        <ele>521.64999999999998</ele>
        <time>2025-04-24T14:25:16Z</time>
      </trkpt>
      <trkpt lat="45.549378013238311" lon="3.739709984511137">
        <ele>521.64999999999998</ele>
        <time>2025-04-24T14:25:17Z</time>
      </trkpt>
      <trkpt lat="45.549421012401581" lon="3.73967201448977">
        <ele>521.16999999999996</ele>
        <time>2025-04-24T14:25:18Z</time>
      </trkpt>
      <trkpt lat="45.549473986029625" lon="3.739652987569571">
        <ele>521.16999999999996</ele>
        <time>2025-04-24T14:25:19Z</time>
      </trkpt>
      <trkpt lat="45.54952796548605" lon="3.739633038640022">
        <ele>521.16999999999996</ele>
        <time>2025-04-24T14:25:20Z</time>
      </trkpt>
      <trkpt lat="45.549584040418267" lon="3.739612000063062">
        <ele>520.69000000000005</ele>
        <time>2025-04-24T14:25:21Z</time>
      </trkpt>
      <trkpt lat="45.549637014046311" lon="3.739594984799624">
        <ele>520.21000000000004</ele>
        <time>2025-04-24T14:25:22Z</time>
      </trkpt>
      <trkpt lat="45.550203965976834" lon="3.739475039765239">
        <ele>514.91999999999996</ele>
        <time>2025-04-24T14:25:32Z</time>
      </trkpt>
      <trkpt lat="45.550264986231923" lon="3.739461963996291">
        <ele>514.44000000000005</ele>
        <time>2025-04-24T14:25:33Z</time>
      </trkpt>
      <trkpt lat="45.550442012026906" lon="3.739415025338531">
        <ele>513.48000000000002</ele>
        <time>2025-04-24T14:25:36Z</time>
      </trkpt>
      <trkpt lat="45.55049397982657" lon="3.739399015903473">
        <ele>513.48000000000002</ele>
        <time>2025-04-24T14:25:37Z</time>
      </trkpt>
      <trkpt lat="45.550532033666968" lon="3.739388035610318">
        <ele>513</ele>
        <time>2025-04-24T14:25:38Z</time>
      </trkpt>
      <trkpt lat="45.550539996474981" lon="3.739386023953557">
        <ele>513</ele>
        <time>2025-04-24T14:25:39Z</time>
      </trkpt>
      <trkpt lat="45.550553994253278" lon="3.739321986213327">
        <ele>513.48000000000002</ele>
        <time>2025-04-24T14:25:40Z</time>
      </trkpt>
      <trkpt lat="45.550561035051942" lon="3.739288961514831">
        <ele>514.44000000000005</ele>
        <time>2025-04-24T14:25:41Z</time>
      </trkpt>
      <trkpt lat="45.550582995638251" lon="3.739192988723517">
        <ele>514.44000000000005</ele>
        <time>2025-04-24T14:25:42Z</time>
      </trkpt>
      <trkpt lat="45.550581989809871" lon="3.739177985116839">
        <ele>514.44000000000005</ele>
        <time>2025-04-24T14:25:43Z</time>
      </trkpt>
      <trkpt lat="45.550577966496348" lon="3.73911595903337">
        <ele>513.96000000000004</ele>
        <time>2025-04-24T14:25:44Z</time>
      </trkpt>
      <trkpt lat="45.550575032830238" lon="3.739068014547229">
        <ele>513.96000000000004</ele>
        <time>2025-04-24T14:25:45Z</time>
      </trkpt>
      <trkpt lat="45.550560029223561" lon="3.73864196240902">
        <ele>510.60000000000002</ele>
        <time>2025-04-24T14:25:55Z</time>
      </trkpt>
      <trkpt lat="45.5505580175668" lon="3.738339962437749">
        <ele>510.12</ele>
        <time>2025-04-24T14:26:04Z</time>
      </trkpt>
      <trkpt lat="45.55055701173842" lon="3.738304004073143">
        <ele>509.63999999999999</ele>
        <time>2025-04-24T14:26:05Z</time>
      </trkpt>
      <trkpt lat="45.55055701173842" lon="3.73825203627348">
        <ele>509.63999999999999</ele>
        <time>2025-04-24T14:26:06Z</time>
      </trkpt>
      <trkpt lat="45.55055701173842" lon="3.738192021846771">
        <ele>509.63999999999999</ele>
        <time>2025-04-24T14:26:07Z</time>
      </trkpt>
      <trkpt lat="45.550556005910039" lon="3.738134019076824">
        <ele>510.12</ele>
        <time>2025-04-24T14:26:08Z</time>
      </trkpt>
      <trkpt lat="45.550556005910039" lon="3.738080961629748">
        <ele>509.63999999999999</ele>
        <time>2025-04-24T14:26:09Z</time>
      </trkpt>
      <trkpt lat="45.550555000081658" lon="3.737965039908886">
        <ele>509.63999999999999</ele>
        <time>2025-04-24T14:26:11Z</time>
      </trkpt>
      <trkpt lat="45.550547959282994" lon="3.736962983384728">
        <ele>507.70999999999998</ele>
        <time>2025-04-24T14:26:23Z</time>
      </trkpt>
      <trkpt lat="45.550542008131742" lon="3.736181035637856">
        <ele>506.26999999999998</ele>
        <time>2025-04-24T14:26:31Z</time>
      </trkpt>
      <trkpt lat="45.550542008131742" lon="3.736110962927342">
        <ele>505.79000000000002</ele>
        <time>2025-04-24T14:26:32Z</time>
      </trkpt>
      <trkpt lat="45.550541002303362" lon="3.736050026491284">
        <ele>505.79000000000002</ele>
        <time>2025-04-24T14:26:33Z</time>
      </trkpt>
      <trkpt lat="45.550541002303362" lon="3.735997974872589">
        <ele>505.79000000000002</ele>
        <time>2025-04-24T14:26:34Z</time>
      </trkpt>
      <trkpt lat="45.550541002303362" lon="3.735954975709319">
        <ele>505.31</ele>
        <time>2025-04-24T14:26:35Z</time>
      </trkpt>
      <trkpt lat="45.550539996474981" lon="3.735914994031191">
        <ele>505.31</ele>
        <time>2025-04-24T14:26:36Z</time>
      </trkpt>
      <trkpt lat="45.550539996474981" lon="3.735880041494966">
        <ele>504.82999999999998</ele>
        <time>2025-04-24T14:26:37Z</time>
      </trkpt>
      <trkpt lat="45.550539996474981" lon="3.735880041494966">
        <ele>504.82999999999998</ele>
        <time>2025-04-24T14:26:51Z</time>
      </trkpt>
      <trkpt lat="45.550539996474981" lon="3.735880041494966">
        <ele>503.87</ele>
        <time>2025-04-24T14:27:35Z</time>
      </trkpt>
      <trkpt lat="45.550539996474981" lon="3.735880041494966">
        <ele>503.87</ele>
        <time>2025-04-24T14:28:23Z</time>
      </trkpt>
      <trkpt lat="45.550546031445265" lon="3.735733022913337">
        <ele>507.70999999999998</ele>
        <time>2025-04-24T14:28:59Z</time>
      </trkpt>
      <trkpt lat="45.5505580175668" lon="3.735370002686977">
        <ele>513.96000000000004</ele>
        <time>2025-04-24T14:29:04Z</time>
      </trkpt>
      <trkpt lat="45.550561035051942" lon="3.735306970775127">
        <ele>514.44000000000005</ele>
        <time>2025-04-24T14:29:05Z</time>
      </trkpt>
      <trkpt lat="45.550561035051942" lon="3.735255002975464">
        <ele>514.91999999999996</ele>
        <time>2025-04-24T14:29:06Z</time>
      </trkpt>
      <trkpt lat="45.550561035051942" lon="3.735212003812194">
        <ele>515.39999999999998</ele>
        <time>2025-04-24T14:29:07Z</time>
      </trkpt>
      <trkpt lat="45.550561035051942" lon="3.735171016305685">
        <ele>516.37</ele>
        <time>2025-04-24T14:29:08Z</time>
      </trkpt>
      <trkpt lat="45.550533961504698" lon="3.735074959695339">
        <ele>516.37</ele>
        <time>2025-04-24T14:29:09Z</time>
      </trkpt>
      <trkpt lat="45.550499008968472" lon="3.735078983008862">
        <ele>516.37</ele>
        <time>2025-04-24T14:29:10Z</time>
      </trkpt>
      <trkpt lat="45.550455003976822" lon="3.735083006322384">
        <ele>516.37</ele>
        <time>2025-04-24T14:29:11Z</time>
      </trkpt>
      <trkpt lat="45.550401024520397" lon="3.735088035464287">
        <ele>516.37</ele>
        <time>2025-04-24T14:29:12Z</time>
      </trkpt>
      <trkpt lat="45.550345033407211" lon="3.735092980787158">
        <ele>516.37</ele>
        <time>2025-04-24T14:29:13Z</time>
      </trkpt>
      <trkpt lat="45.550115033984184" lon="3.735115025192499">
        <ele>518.28999999999996</ele>
        <time>2025-04-24T14:29:22Z</time>
      </trkpt>
      <trkpt lat="45.54999902844429" lon="3.735127011314035">
        <ele>521.16999999999996</ele>
        <time>2025-04-24T14:30:05Z</time>
      </trkpt>
      <trkpt lat="45.549944965168834" lon="3.735132040455937">
        <ele>521.64999999999998</ele>
        <time>2025-04-24T14:30:06Z</time>
      </trkpt>
      <trkpt lat="45.549456970766187" lon="3.735178979113698">
        <ele>523.09000000000003</ele>
        <time>2025-04-24T14:30:13Z</time>
      </trkpt>
      <trkpt lat="45.549411959946156" lon="3.735232958570123">
        <ele>523.09000000000003</ele>
        <time>2025-04-24T14:30:14Z</time>
      </trkpt>
      <trkpt lat="45.549367032945156" lon="3.735305964946747">
        <ele>523.58000000000004</ele>
        <time>2025-04-24T14:30:15Z</time>
      </trkpt>
      <trkpt lat="45.549338031560183" lon="3.735351981595159">
        <ele>524.05999999999995</ele>
        <time>2025-04-24T14:30:16Z</time>
      </trkpt>
      <trkpt lat="45.549256978556514" lon="3.735467987135053">
        <ele>524.05999999999995</ele>
        <time>2025-04-24T14:30:17Z</time>
      </trkpt>
      <trkpt lat="45.549259996041656" lon="3.735572006553412">
        <ele>524.53999999999996</ele>
        <time>2025-04-24T14:30:18Z</time>
      </trkpt>
      <trkpt lat="45.549264019355178" lon="3.735681977123022">
        <ele>524.53999999999996</ele>
        <time>2025-04-24T14:30:19Z</time>
      </trkpt>
      <trkpt lat="45.549267958849669" lon="3.735792031511664">
        <ele>525.01999999999998</ele>
        <time>2025-04-24T14:30:20Z</time>
      </trkpt>
      <trkpt lat="45.54929100908339" lon="3.736441964283586">
        <ele>525.5</ele>
        <time>2025-04-24T14:30:26Z</time>
      </trkpt>
      <trkpt lat="45.549295032396913" lon="3.736542966216803">
        <ele>525.5</ele>
        <time>2025-04-24T14:30:27Z</time>
      </trkpt>
      <trkpt lat="45.549297966063023" lon="3.73664396815002">
        <ele>525.98000000000002</ele>
        <time>2025-04-24T14:30:28Z</time>
      </trkpt>
      <trkpt lat="45.549309030175209" lon="3.737033978104591">
        <ele>527.41999999999996</ele>
        <time>2025-04-24T14:30:32Z</time>
      </trkpt>
      <trkpt lat="45.54931104183197" lon="3.737134980037808">
        <ele>527.41999999999996</ele>
        <time>2025-04-24T14:30:33Z</time>
      </trkpt>
      <trkpt lat="45.549316992983222" lon="3.737333966419101">
        <ele>527.89999999999998</ele>
        <time>2025-04-24T14:30:35Z</time>
      </trkpt>
      <trkpt lat="45.549320010468364" lon="3.737433040514588">
        <ele>528.38</ele>
        <time>2025-04-24T14:30:36Z</time>
      </trkpt>
      <trkpt lat="45.549335014075041" lon="3.738008039072156">
        <ele>529.34000000000003</ele>
        <time>2025-04-24T14:30:42Z</time>
      </trkpt>
      <trkpt lat="45.549338031560183" lon="3.738112980499864">
        <ele>529.34000000000003</ele>
        <time>2025-04-24T14:30:43Z</time>
      </trkpt>
      <trkpt lat="45.549340965226293" lon="3.738228986039758">
        <ele>529.34000000000003</ele>
        <time>2025-04-24T14:30:44Z</time>
      </trkpt>
      <trkpt lat="45.549368038773537" lon="3.739190977066755">
        <ele>530.29999999999995</ele>
        <time>2025-04-24T14:30:53Z</time>
      </trkpt>
      <trkpt lat="45.549372984096408" lon="3.73937102034688">
        <ele>530.78999999999996</ele>
        <time>2025-04-24T14:30:59Z</time>
      </trkpt>
      <trkpt lat="45.549374995753169" lon="3.739474033936858">
        <ele>531.75</ele>
        <time>2025-04-24T14:31:30Z</time>
      </trkpt>
      <trkpt lat="45.549354963004589" lon="3.739660028368235">
        <ele>531.75</ele>
        <time>2025-04-24T14:31:31Z</time>
      </trkpt>
      <trkpt lat="45.549381030723453" lon="3.739686012268066">
        <ele>531.75</ele>
        <time>2025-04-24T14:31:32Z</time>
      </trkpt>
      <trkpt lat="45.54952503181994" lon="3.739633960649371">
        <ele>531.75</ele>
        <time>2025-04-24T14:31:33Z</time>
      </trkpt>
      <trkpt lat="45.549587979912758" lon="3.739610994234681">
        <ele>532.23000000000002</ele>
        <time>2025-04-24T14:31:34Z</time>
      </trkpt>
      <trkpt lat="45.549656040966511" lon="3.739590961486101">
        <ele>532.23000000000002</ele>
        <time>2025-04-24T14:31:35Z</time>
      </trkpt>
      <trkpt lat="45.549842035397887" lon="3.739549973979592">
        <ele>531.75</ele>
        <time>2025-04-24T14:31:38Z</time>
      </trkpt>
      <trkpt lat="45.549889979884028" lon="3.739539999514818">
        <ele>531.75</ele>
        <time>2025-04-24T14:31:39Z</time>
      </trkpt>
      <trkpt lat="45.550116961821914" lon="3.739492977038026">
        <ele>533.19000000000005</ele>
        <time>2025-04-24T14:31:47Z</time>
      </trkpt>
      <trkpt lat="45.550332041457295" lon="3.739447966217995">
        <ele>535.59000000000003</ele>
        <time>2025-04-24T14:31:53Z</time>
      </trkpt>
      <trkpt lat="45.550379985943437" lon="3.739433968439698">
        <ele>536.07000000000005</ele>
        <time>2025-04-24T14:31:54Z</time>
      </trkpt>
      <trkpt lat="45.550432037562132" lon="3.739417959004641">
        <ele>536.07000000000005</ele>
        <time>2025-04-24T14:31:55Z</time>
      </trkpt>
      <trkpt lat="45.550761027261615" lon="3.739290973171592">
        <ele>537.02999999999997</ele>
        <time>2025-04-24T14:32:03Z</time>
      </trkpt>
      <trkpt lat="45.550776030868292" lon="3.739300025627017">
        <ele>537.02999999999997</ele>
        <time>2025-04-24T14:32:04Z</time>
      </trkpt>
      <trkpt lat="45.550802014768124" lon="3.739310000091791">
        <ele>537.02999999999997</ele>
        <time>2025-04-24T14:32:05Z</time>
      </trkpt>
      <trkpt lat="45.55083897896111" lon="3.739322992041707">
        <ele>537.02999999999997</ele>
        <time>2025-04-24T14:32:06Z</time>
      </trkpt>
      <trkpt lat="45.550884995609522" lon="3.739340007305145">
        <ele>537.02999999999997</ele>
        <time>2025-04-24T14:32:07Z</time>
      </trkpt>
      <trkpt lat="45.551060009747744" lon="3.739405972883105">
        <ele>537.50999999999999</ele>
        <time>2025-04-24T14:32:11Z</time>
      </trkpt>
      <trkpt lat="45.551114995032549" lon="3.739427011460066">
        <ele>537.50999999999999</ele>
        <time>2025-04-24T14:32:12Z</time>
      </trkpt>
      <trkpt lat="45.551177021116018" lon="3.739449977874756">
        <ele>537.50999999999999</ele>
        <time>2025-04-24T14:32:13Z</time>
      </trkpt>
      <trkpt lat="45.551244998350739" lon="3.739475961774588">
        <ele>537.50999999999999</ele>
        <time>2025-04-24T14:32:14Z</time>
      </trkpt>
      <trkpt lat="45.55131196975708" lon="3.73950001783669">
        <ele>537.50999999999999</ele>
        <time>2025-04-24T14:32:15Z</time>
      </trkpt>
      <trkpt lat="45.551384976133704" lon="3.739527007564902">
        <ele>537.99000000000001</ele>
        <time>2025-04-24T14:32:16Z</time>
      </trkpt>
      <trkpt lat="45.551706003025174" lon="3.739662040024996">
        <ele>539.44000000000005</ele>
        <time>2025-04-24T14:32:23Z</time>
      </trkpt>
      <trkpt lat="45.55174196138978" lon="3.739815009757876">
        <ele>539.44000000000005</ele>
        <time>2025-04-24T14:32:25Z</time>
      </trkpt>
      <trkpt lat="45.551765011623502" lon="3.739862032234669">
        <ele>539.44000000000005</ele>
        <time>2025-04-24T14:32:26Z</time>
      </trkpt>
      <trkpt lat="45.55178496055305" lon="3.739901008084416">
        <ele>539.44000000000005</ele>
        <time>2025-04-24T14:32:27Z</time>
      </trkpt>
      <trkpt lat="45.551845980808139" lon="3.739863960072398">
        <ele>538.96000000000004</ele>
        <time>2025-04-24T14:32:28Z</time>
      </trkpt>
      <trkpt lat="45.551891997456551" lon="3.739835964515805">
        <ele>538.48000000000002</ele>
        <time>2025-04-24T14:32:29Z</time>
      </trkpt>
      <trkpt lat="45.551891997456551" lon="3.739835964515805">
        <ele>537.50999999999999</ele>
        <time>2025-04-24T14:32:30Z</time>
      </trkpt>
      <trkpt lat="45.552086038514972" lon="3.739749966189265">
        <ele>536.07000000000005</ele>
        <time>2025-04-24T14:32:39Z</time>
      </trkpt>
      <trkpt lat="45.55210598744452" lon="3.739749966189265">
        <ele>536.07000000000005</ele>
        <time>2025-04-24T14:32:43Z</time>
      </trkpt>
      <trkpt lat="45.552263986319304" lon="3.739728005602956">
        <ele>534.63</ele>
        <time>2025-04-24T14:32:44Z</time>
      </trkpt>
      <trkpt lat="45.55210598744452" lon="3.739749966189265">
        <ele>533.66999999999996</ele>
        <time>2025-04-24T14:32:45Z</time>
      </trkpt>
      <trkpt lat="45.55210598744452" lon="3.739578975364566">
        <ele>533.19000000000005</ele>
        <time>2025-04-24T14:32:46Z</time>
      </trkpt>
      <trkpt lat="45.55210598744452" lon="3.739578975364566">
        <ele>532.71000000000004</ele>
        <time>2025-04-24T14:32:47Z</time>
      </trkpt>
      <trkpt lat="45.55210598744452" lon="3.739578975364566">
        <ele>532.23000000000002</ele>
        <time>2025-04-24T14:32:48Z</time>
      </trkpt>
      <trkpt lat="45.55210598744452" lon="3.739578975364566">
        <ele>532.23000000000002</ele>
        <time>2025-04-24T14:32:49Z</time>
      </trkpt>
      <trkpt lat="45.55210598744452" lon="3.739578975364566">
        <ele>531.75</ele>
        <time>2025-04-24T14:32:50Z</time>
      </trkpt>
      <trkpt lat="45.55210598744452" lon="3.739578975364566">
        <ele>530.29999999999995</ele>
        <time>2025-04-24T14:33:04Z</time>
      </trkpt>
      <trkpt lat="45.551840029656887" lon="3.739510998129845">
        <ele>482.24000000000001</ele>
        <time>2025-04-24T14:39:15Z</time>
      </trkpt>
      <trkpt lat="45.551823014393449" lon="3.739588027819991">
        <ele>481.27999999999997</ele>
        <time>2025-04-24T14:39:49Z</time>
      </trkpt>
      <trkpt lat="45.551822008565068" lon="3.739590961486101">
        <ele>481.75999999999999</ele>
        <time>2025-04-24T14:40:20Z</time>
      </trkpt>
      <trkpt lat="45.551822008565068" lon="3.739590961486101">
        <ele>481.75999999999999</ele>
        <time>2025-04-24T14:40:37Z</time>
      </trkpt>
      <trkpt lat="45.551874982193112" lon="3.739656005054712">
        <ele>503.38999999999999</ele>
        <time>2025-04-24T14:40:40Z</time>
      </trkpt>
      <trkpt lat="45.551848998293281" lon="3.739664973691106">
        <ele>506.26999999999998</ele>
        <time>2025-04-24T14:40:41Z</time>
      </trkpt>
      <trkpt lat="45.551810022443533" lon="3.739674026146531">
        <ele>508.67000000000002</ele>
        <time>2025-04-24T14:40:42Z</time>
      </trkpt>
      <trkpt lat="45.551750008016825" lon="3.739765975624323">
        <ele>511.56</ele>
        <time>2025-04-24T14:40:43Z</time>
      </trkpt>
      <trkpt lat="45.55174196138978" lon="3.739815009757876">
        <ele>513</ele>
        <time>2025-04-24T14:40:44Z</time>
      </trkpt>
      <trkpt lat="45.551768029108644" lon="3.739955993369222">
        <ele>514.91999999999996</ele>
        <time>2025-04-24T14:40:45Z</time>
      </trkpt>
      <trkpt lat="45.551736010238528" lon="3.740062024444342">
        <ele>516.85000000000002</ele>
        <time>2025-04-24T14:40:46Z</time>
      </trkpt>
      <trkpt lat="45.551704997196794" lon="3.740160008892417">
        <ele>517.80999999999995</ele>
        <time>2025-04-24T14:40:47Z</time>
      </trkpt>
      <trkpt lat="45.551636014133692" lon="3.740398976951838">
        <ele>521.16999999999996</ele>
        <time>2025-04-24T14:40:50Z</time>
      </trkpt>
      <trkpt lat="45.551620004698634" lon="3.740467960014939">
        <ele>521.64999999999998</ele>
        <time>2025-04-24T14:40:51Z</time>
      </trkpt>
      <trkpt lat="45.551549009978771" lon="3.740823017433286">
        <ele>522.13</ele>
        <time>2025-04-24T14:40:57Z</time>
      </trkpt>
      <trkpt lat="45.551544986665249" lon="3.740841038525105">
        <ele>522.61000000000001</ele>
        <time>2025-04-24T14:40:58Z</time>
      </trkpt>
      <trkpt lat="45.551554039120674" lon="3.740795021876693">
        <ele>522.61000000000001</ele>
        <time>2025-04-24T14:41:00Z</time>
      </trkpt>
      <trkpt lat="45.551560996100307" lon="3.740763003006578">
        <ele>522.13</ele>
        <time>2025-04-24T14:41:01Z</time>
      </trkpt>
      <trkpt lat="45.55156703107059" lon="3.740730984136462">
        <ele>521.16999999999996</ele>
        <time>2025-04-24T14:41:02Z</time>
      </trkpt>
      <trkpt lat="45.551573988050222" lon="3.740694019943476">
        <ele>520.21000000000004</ele>
        <time>2025-04-24T14:41:03Z</time>
      </trkpt>
      <trkpt lat="45.55161296389997" lon="3.740499978885055">
        <ele>518.28999999999996</ele>
        <time>2025-04-24T14:41:06Z</time>
      </trkpt>
      <trkpt lat="45.55165596306324" lon="3.740308033302426">
        <ele>517.80999999999995</ele>
        <time>2025-04-24T14:41:08Z</time>
      </trkpt>
      <trkpt lat="45.551720000803471" lon="3.740114998072386">
        <ele>517.80999999999995</ele>
        <time>2025-04-24T14:41:10Z</time>
      </trkpt>
      <trkpt lat="45.551743973046541" lon="3.740036962553859">
        <ele>518.28999999999996</ele>
        <time>2025-04-24T14:41:11Z</time>
      </trkpt>
      <trkpt lat="45.551762999966741" lon="3.739974014461041">
        <ele>518.76999999999998</ele>
        <time>2025-04-24T14:41:12Z</time>
      </trkpt>
      <trkpt lat="45.551770040765405" lon="3.739949958398938">
        <ele>519.25</ele>
        <time>2025-04-24T14:41:13Z</time>
      </trkpt>
      <trkpt lat="45.551891997456551" lon="3.739835964515805">
        <ele>520.69000000000005</ele>
        <time>2025-04-24T14:41:17Z</time>
      </trkpt>
      <trkpt lat="45.551895014941692" lon="3.739822972565889">
        <ele>520.69000000000005</ele>
        <time>2025-04-24T14:41:18Z</time>
      </trkpt>
      <trkpt lat="45.551877999678254" lon="3.739703027531505">
        <ele>521.16999999999996</ele>
        <time>2025-04-24T14:41:19Z</time>
      </trkpt>
      <trkpt lat="45.551848998293281" lon="3.739664973691106">
        <ele>521.16999999999996</ele>
        <time>2025-04-24T14:41:20Z</time>
      </trkpt>
      <trkpt lat="45.551762999966741" lon="3.739686012268066">
        <ele>521.64999999999998</ele>
        <time>2025-04-24T14:41:21Z</time>
      </trkpt>
      <trkpt lat="45.551737016066909" lon="3.739675031974912">
        <ele>521.64999999999998</ele>
        <time>2025-04-24T14:41:22Z</time>
      </trkpt>
      <trkpt lat="45.551627967506647" lon="3.7396290153265">
        <ele>522.13</ele>
        <time>2025-04-24T14:41:24Z</time>
      </trkpt>
      <trkpt lat="45.551505004987121" lon="3.739576963707805">
        <ele>522.13</ele>
        <time>2025-04-24T14:41:26Z</time>
      </trkpt>
      <trkpt lat="45.55135496892035" lon="3.739514015614986">
        <ele>522.13</ele>
        <time>2025-04-24T14:41:28Z</time>
      </trkpt>
      <trkpt lat="45.551299983635545" lon="3.739495994523168">
        <ele>522.13</ele>
        <time>2025-04-24T14:41:29Z</time>
      </trkpt>
      <trkpt lat="45.551237035542727" lon="3.739473028108478">
        <ele>522.13</ele>
        <time>2025-04-24T14:41:30Z</time>
      </trkpt>
      <trkpt lat="45.551178026944399" lon="3.739450983703136">
        <ele>522.13</ele>
        <time>2025-04-24T14:41:31Z</time>
      </trkpt>
      <trkpt lat="45.551123963668942" lon="3.739430028945208">
        <ele>522.13</ele>
        <time>2025-04-24T14:41:32Z</time>
      </trkpt>
      <trkpt lat="45.551076019182801" lon="3.739412007853389">
        <ele>522.13</ele>
        <time>2025-04-24T14:41:33Z</time>
      </trkpt>
      <trkpt lat="45.550906034186482" lon="3.739348975941539">
        <ele>524.05999999999995</ele>
        <time>2025-04-24T14:41:41Z</time>
      </trkpt>
      <trkpt lat="45.550868986174464" lon="3.739334978163242">
        <ele>524.53999999999996</ele>
        <time>2025-04-24T14:41:42Z</time>
      </trkpt>
      <trkpt lat="45.550581989809871" lon="3.739171028137207">
        <ele>525.98000000000002</ele>
        <time>2025-04-24T14:41:49Z</time>
      </trkpt>
      <trkpt lat="45.550576960667968" lon="3.739107996225357">
        <ele>525.98000000000002</ele>
        <time>2025-04-24T14:41:50Z</time>
      </trkpt>
      <trkpt lat="45.550572015345097" lon="3.73902996070683">
        <ele>525.98000000000002</ele>
        <time>2025-04-24T14:41:51Z</time>
      </trkpt>
      <trkpt lat="45.550565980374813" lon="3.73894396238029">
        <ele>526.46000000000004</ele>
        <time>2025-04-24T14:41:52Z</time>
      </trkpt>
      <trkpt lat="45.550561035051942" lon="3.738844972103834">
        <ele>526.46000000000004</ele>
        <time>2025-04-24T14:41:53Z</time>
      </trkpt>
      <trkpt lat="45.5505580175668" lon="3.738386984914541">
        <ele>526.46000000000004</ele>
        <time>2025-04-24T14:41:57Z</time>
      </trkpt>
      <trkpt lat="45.55055701173842" lon="3.738265028223395">
        <ele>526.46000000000004</ele>
        <time>2025-04-24T14:41:58Z</time>
      </trkpt>
      <trkpt lat="45.550548965111375" lon="3.7370749656111">
        <ele>527.89999999999998</ele>
        <time>2025-04-24T14:42:09Z</time>
      </trkpt>
      <trkpt lat="45.550539996474981" lon="3.735877024009824">
        <ele>525.01999999999998</ele>
        <time>2025-04-24T14:42:19Z</time>
      </trkpt>
      <trkpt lat="45.550561035051942" lon="3.734331987798214">
        <ele>524.53999999999996</ele>
        <time>2025-04-24T14:42:29Z</time>
      </trkpt>
      <trkpt lat="45.550561035051942" lon="3.732374981045723">
        <ele>525.98000000000002</ele>
        <time>2025-04-24T14:42:41Z</time>
      </trkpt>
      <trkpt lat="45.550561035051942" lon="3.730330970138311">
        <ele>531.26999999999998</ele>
        <time>2025-04-24T14:42:54Z</time>
      </trkpt>
      <trkpt lat="45.550535973161459" lon="3.730253018438816">
        <ele>531.26999999999998</ele>
        <time>2025-04-24T14:42:55Z</time>
      </trkpt>
      <trkpt lat="45.550506971776485" lon="3.730195015668869">
        <ele>531.75</ele>
        <time>2025-04-24T14:42:56Z</time>
      </trkpt>
      <trkpt lat="45.550435977056623" lon="3.730156039819121">
        <ele>531.75</ele>
        <time>2025-04-24T14:42:57Z</time>
      </trkpt>
      <trkpt lat="45.550354002043605" lon="3.73011002317071">
        <ele>531.75</ele>
        <time>2025-04-24T14:42:58Z</time>
      </trkpt>
      <trkpt lat="45.550264986231923" lon="3.730073980987072">
        <ele>532.23000000000002</ele>
        <time>2025-04-24T14:42:59Z</time>
      </trkpt>
      <trkpt lat="45.550067005679011" lon="3.730006003752351">
        <ele>532.71000000000004</ele>
        <time>2025-04-24T14:43:01Z</time>
      </trkpt>
      <trkpt lat="45.549960974603891" lon="3.729968033730984">
        <ele>533.19000000000005</ele>
        <time>2025-04-24T14:43:02Z</time>
      </trkpt>
      <trkpt lat="45.549844969063997" lon="3.729927968233824">
        <ele>533.19000000000005</ele>
        <time>2025-04-24T14:43:03Z</time>
      </trkpt>
      <trkpt lat="45.549603989347816" lon="3.729866025969386">
        <ele>533.66999999999996</ele>
        <time>2025-04-24T14:43:05Z</time>
      </trkpt>
      <trkpt lat="45.549478009343147" lon="3.729838030412793">
        <ele>534.14999999999998</ele>
        <time>2025-04-24T14:43:06Z</time>
      </trkpt>
      <trkpt lat="45.549341971054673" lon="3.729808023199439">
        <ele>534.63</ele>
        <time>2025-04-24T14:43:07Z</time>
      </trkpt>
      <trkpt lat="45.549065032973886" lon="3.729755971580744">
        <ele>535.11000000000001</ele>
        <time>2025-04-24T14:43:09Z</time>
      </trkpt>
      <trkpt lat="45.548927988857031" lon="3.729797964915633">
        <ele>535.11000000000001</ele>
        <time>2025-04-24T14:43:10Z</time>
      </trkpt>
      <trkpt lat="45.548789016902447" lon="3.729839958250523">
        <ele>535.59000000000003</ele>
        <time>2025-04-24T14:43:11Z</time>
      </trkpt>
      <trkpt lat="45.548518029972911" lon="3.729923022910953">
        <ele>536.07000000000005</ele>
        <time>2025-04-24T14:43:13Z</time>
      </trkpt>
      <trkpt lat="45.548392971977592" lon="3.72996099293232">
        <ele>536.54999999999995</ele>
        <time>2025-04-24T14:43:14Z</time>
      </trkpt>
      <trkpt lat="45.548267997801304" lon="3.729970967397094">
        <ele>536.54999999999995</ele>
        <time>2025-04-24T14:43:15Z</time>
      </trkpt>
      <trkpt lat="45.548147968947887" lon="3.729923022910953">
        <ele>536.54999999999995</ele>
        <time>2025-04-24T14:43:16Z</time>
      </trkpt>
      <trkpt lat="45.548039004206657" lon="3.729845993220806">
        <ele>536.54999999999995</ele>
        <time>2025-04-24T14:43:17Z</time>
      </trkpt>
      <trkpt lat="45.547941019758582" lon="3.729748008772731">
        <ele>537.02999999999997</ele>
        <time>2025-04-24T14:43:18Z</time>
      </trkpt>
      <trkpt lat="45.547854015603662" lon="3.72963803820312">
        <ele>537.02999999999997</ele>
        <time>2025-04-24T14:43:19Z</time>
      </trkpt>
      <trkpt lat="45.547859966754913" lon="3.729417007416487">
        <ele>537.50999999999999</ele>
        <time>2025-04-24T14:43:20Z</time>
      </trkpt>
      <trkpt lat="45.547818979248405" lon="3.7292539793998">
        <ele>537.50999999999999</ele>
        <time>2025-04-24T14:43:21Z</time>
      </trkpt>
      <trkpt lat="45.547776985913515" lon="3.729085000231862">
        <ele>537.99000000000001</ele>
        <time>2025-04-24T14:43:22Z</time>
      </trkpt>
      <trkpt lat="45.547734992578626" lon="3.728915015235543">
        <ele>538.48000000000002</ele>
        <time>2025-04-24T14:43:23Z</time>
      </trkpt>
      <trkpt lat="45.547717977315187" lon="3.728710999712348">
        <ele>538.48000000000002</ele>
        <time>2025-04-24T14:43:24Z</time>
      </trkpt>
      <trkpt lat="45.547739015892148" lon="3.728519976139069">
        <ele>538.96000000000004</ele>
        <time>2025-04-24T14:43:25Z</time>
      </trkpt>
      <trkpt lat="45.54778897203505" lon="3.728332975879312">
        <ele>539.44000000000005</ele>
        <time>2025-04-24T14:43:26Z</time>
      </trkpt>
      <trkpt lat="45.547863990068436" lon="3.72815896756947">
        <ele>539.91999999999996</ele>
        <time>2025-04-24T14:43:27Z</time>
      </trkpt>
      <trkpt lat="45.547942025586963" lon="3.727976996451616">
        <ele>540.88</ele>
        <time>2025-04-24T14:43:28Z</time>
      </trkpt>
      <trkpt lat="45.548025006428361" lon="3.727785972878337">
        <ele>541.36000000000001</ele>
        <time>2025-04-24T14:43:29Z</time>
      </trkpt>
      <trkpt lat="45.548591036349535" lon="3.726435983553529">
        <ele>547.61000000000001</ele>
        <time>2025-04-24T14:43:36Z</time>
      </trkpt>
      <trkpt lat="45.548664964735508" lon="3.725974978879094">
        <ele>549.04999999999995</ele>
        <time>2025-04-24T14:43:38Z</time>
      </trkpt>
      <trkpt lat="45.548776024952531" lon="3.724852977320552">
        <ele>553.38</ele>
        <time>2025-04-24T14:43:43Z</time>
      </trkpt>
      <trkpt lat="45.548759009689093" lon="3.724633036181331">
        <ele>554.34000000000003</ele>
        <time>2025-04-24T14:43:44Z</time>
      </trkpt>
      <trkpt lat="45.548709975555539" lon="3.724414017051458">
        <ele>555.29999999999995</ele>
        <time>2025-04-24T14:43:45Z</time>
      </trkpt>
      <trkpt lat="45.54866798222065" lon="3.724192986264825">
        <ele>556.74000000000001</ele>
        <time>2025-04-24T14:43:46Z</time>
      </trkpt>
      <trkpt lat="45.548630012199283" lon="3.723978996276856">
        <ele>557.70000000000005</ele>
        <time>2025-04-24T14:43:47Z</time>
      </trkpt>
      <trkpt lat="45.548555999994278" lon="3.723340965807438">
        <ele>561.07000000000005</ele>
        <time>2025-04-24T14:43:50Z</time>
      </trkpt>
      <trkpt lat="45.548553988337517" lon="3.723121024668217">
        <ele>562.02999999999997</ele>
        <time>2025-04-24T14:43:51Z</time>
      </trkpt>
      <trkpt lat="45.548586007207632" lon="3.72289203107357">
        <ele>563.47000000000003</ele>
        <time>2025-04-24T14:43:52Z</time>
      </trkpt>
      <trkpt lat="45.548793962225318" lon="3.721468029543757">
        <ele>571.15999999999997</ele>
        <time>2025-04-24T14:43:58Z</time>
      </trkpt>
      <trkpt lat="45.548865962773561" lon="3.721242975443602">
        <ele>574.03999999999996</ele>
        <time>2025-04-24T14:44:00Z</time>
      </trkpt>
      <trkpt lat="45.549660986289382" lon="3.71949995867908">
        <ele>584.13999999999999</ele>
        <time>2025-04-24T14:44:07Z</time>
      </trkpt>
      <trkpt lat="45.549791995435953" lon="3.719324022531509">
        <ele>585.10000000000002</ele>
        <time>2025-04-24T14:44:08Z</time>
      </trkpt>
      <trkpt lat="45.550584001466632" lon="3.718223981559277">
        <ele>592.30999999999995</ele>
        <time>2025-04-24T14:44:14Z</time>
      </trkpt>
      <trkpt lat="45.550682991743088" lon="3.718001022934914">
        <ele>593.75</ele>
        <time>2025-04-24T14:44:15Z</time>
      </trkpt>
      <trkpt lat="45.550766978412867" lon="3.717760965228081">
        <ele>595.19000000000005</ele>
        <time>2025-04-24T14:44:16Z</time>
      </trkpt>
      <trkpt lat="45.551032014191151" lon="3.717072978615761">
        <ele>599.51999999999998</ele>
        <time>2025-04-24T14:44:19Z</time>
      </trkpt>
      <trkpt lat="45.551129998639226" lon="3.716857982799411">
        <ele>600.48000000000002</ele>
        <time>2025-04-24T14:44:20Z</time>
      </trkpt>
      <trkpt lat="45.551258996129036" lon="3.71668104082346">
        <ele>601.91999999999996</ele>
        <time>2025-04-24T14:44:21Z</time>
      </trkpt>
      <trkpt lat="45.551394028589129" lon="3.716508038341999">
        <ele>602.88</ele>
        <time>2025-04-24T14:44:22Z</time>
      </trkpt>
      <trkpt lat="45.55152403190732" lon="3.71634098701179">
        <ele>604.33000000000004</ele>
        <time>2025-04-24T14:44:23Z</time>
      </trkpt>
      <trkpt lat="45.551635008305311" lon="3.716178964823484">
        <ele>606.25</ele>
        <time>2025-04-24T14:44:24Z</time>
      </trkpt>
      <trkpt lat="45.551729975268245" lon="3.71601702645421">
        <ele>607.69000000000005</ele>
        <time>2025-04-24T14:44:25Z</time>
      </trkpt>
      <trkpt lat="45.55178496055305" lon="3.715821979567409">
        <ele>609.13</ele>
        <time>2025-04-24T14:44:26Z</time>
      </trkpt>
      <trkpt lat="45.551830977201462" lon="3.715615030378103">
        <ele>610.57000000000005</ele>
        <time>2025-04-24T14:44:27Z</time>
      </trkpt>
      <trkpt lat="45.551850004121661" lon="3.715386036783457">
        <ele>612.5</ele>
        <time>2025-04-24T14:44:28Z</time>
      </trkpt>
      <trkpt lat="45.551888979971409" lon="3.714930983260274">
        <ele>615.86000000000001</ele>
        <time>2025-04-24T14:44:30Z</time>
      </trkpt>
      <trkpt lat="45.551950000226498" lon="3.714741971343756">
        <ele>617.29999999999995</ele>
        <time>2025-04-24T14:44:31Z</time>
      </trkpt>
      <trkpt lat="45.552042033523321" lon="3.714616997167468">
        <ele>618.25999999999999</ele>
        <time>2025-04-24T14:44:32Z</time>
      </trkpt>
      <trkpt lat="45.552145969122648" lon="3.71453502215445">
        <ele>619.23000000000002</ele>
        <time>2025-04-24T14:44:33Z</time>
      </trkpt>
      <trkpt lat="45.552268009632826" lon="3.714503003284335">
        <ele>620.19000000000005</ele>
        <time>2025-04-24T14:44:34Z</time>
      </trkpt>
      <trkpt lat="45.552417039871216" lon="3.714481964707375">
        <ele>621.14999999999998</ele>
        <time>2025-04-24T14:44:35Z</time>
      </trkpt>
      <trkpt lat="45.552719039842486" lon="3.714440977200866">
        <ele>623.54999999999995</ele>
        <time>2025-04-24T14:44:37Z</time>
      </trkpt>
      <trkpt lat="45.552830016240478" lon="3.714375011622906">
        <ele>624.50999999999999</ele>
        <time>2025-04-24T14:44:38Z</time>
      </trkpt>
      <trkpt lat="45.552914002910256" lon="3.714248025789857">
        <ele>625.47000000000003</ele>
        <time>2025-04-24T14:44:39Z</time>
      </trkpt>
      <trkpt lat="45.552961025387049" lon="3.714122967794538">
        <ele>626.44000000000005</ele>
        <time>2025-04-24T14:44:40Z</time>
      </trkpt>
      <trkpt lat="45.552949961274862" lon="3.71397796086967">
        <ele>627.39999999999998</ele>
        <time>2025-04-24T14:44:41Z</time>
      </trkpt>
      <trkpt lat="45.55292003788054" lon="3.713862961158156">
        <ele>627.88</ele>
        <time>2025-04-24T14:44:42Z</time>
      </trkpt>
      <trkpt lat="45.552843008190393" lon="3.71376003138721">
        <ele>628.84000000000003</ele>
        <time>2025-04-24T14:44:43Z</time>
      </trkpt>
      <trkpt lat="45.552739994600415" lon="3.713706973940134">
        <ele>629.79999999999995</ele>
        <time>2025-04-24T14:44:44Z</time>
      </trkpt>
      <trkpt lat="45.55259901098907" lon="3.713715020567179">
        <ele>630.75999999999999</ele>
        <time>2025-04-24T14:44:45Z</time>
      </trkpt>
      <trkpt lat="45.552431037649512" lon="3.713737986981869">
        <ele>631.72000000000003</ele>
        <time>2025-04-24T14:44:46Z</time>
      </trkpt>
      <trkpt lat="45.551506010815501" lon="3.713827002793551">
        <ele>636.04999999999995</ele>
        <time>2025-04-24T14:44:51Z</time>
      </trkpt>
      <trkpt lat="45.551338959485292" lon="3.713778974488378">
        <ele>637.49000000000001</ele>
        <time>2025-04-24T14:44:52Z</time>
      </trkpt>
      <trkpt lat="45.551177021116018" lon="3.71367696672678">
        <ele>639.40999999999997</ele>
        <time>2025-04-24T14:44:53Z</time>
      </trkpt>
      <trkpt lat="45.550415022298694" lon="3.713015969842672">
        <ele>647.10000000000002</ele>
        <time>2025-04-24T14:44:58Z</time>
      </trkpt>
      <trkpt lat="45.550311002880335" lon="3.712863000109792">
        <ele>648.07000000000005</ele>
        <time>2025-04-24T14:44:59Z</time>
      </trkpt>
      <trkpt lat="45.550218969583511" lon="3.712692009285092">
        <ele>649.02999999999997</ele>
        <time>2025-04-24T14:45:00Z</time>
      </trkpt>
      <trkpt lat="45.550179993733764" lon="3.712480030953884">
        <ele>650.47000000000003</ele>
        <time>2025-04-24T14:45:01Z</time>
      </trkpt>
      <trkpt lat="45.550157027319074" lon="3.712249025702477">
        <ele>651.42999999999995</ele>
        <time>2025-04-24T14:45:02Z</time>
      </trkpt>
      <trkpt lat="45.550131965428591" lon="3.712007040157914">
        <ele>652.38999999999999</ele>
        <time>2025-04-24T14:45:03Z</time>
      </trkpt>
      <trkpt lat="45.550009002909064" lon="3.710769033059478">
        <ele>658.63999999999999</ele>
        <time>2025-04-24T14:45:08Z</time>
      </trkpt>
      <trkpt lat="45.549987964332104" lon="3.710558982565999">
        <ele>660.08000000000004</ele>
        <time>2025-04-24T14:45:09Z</time>
      </trkpt>
      <trkpt lat="45.549918981269002" lon="3.710398972034454">
        <ele>661.51999999999998</ele>
        <time>2025-04-24T14:45:10Z</time>
      </trkpt>
      <trkpt lat="45.549834994599223" lon="3.710275003686547">
        <ele>662.49000000000001</ele>
        <time>2025-04-24T14:45:11Z</time>
      </trkpt>
      <trkpt lat="45.54971999488771" lon="3.710189005360007">
        <ele>663.92999999999995</ele>
        <time>2025-04-24T14:45:12Z</time>
      </trkpt>
      <trkpt lat="45.549608012661338" lon="3.710155980661511">
        <ele>664.88999999999999</ele>
        <time>2025-04-24T14:45:13Z</time>
      </trkpt>
      <trkpt lat="45.549470968544483" lon="3.710148017853499">
        <ele>665.85000000000002</ele>
        <time>2025-04-24T14:45:14Z</time>
      </trkpt>
      <trkpt lat="45.549317998811603" lon="3.710137959569693">
        <ele>667.28999999999996</ele>
        <time>2025-04-24T14:45:15Z</time>
      </trkpt>
      <trkpt lat="45.549152959138155" lon="3.710127985104919">
        <ele>668.25</ele>
        <time>2025-04-24T14:45:16Z</time>
      </trkpt>
      <trkpt lat="45.548850959166884" lon="3.71017400175333">
        <ele>671.13999999999999</ele>
        <time>2025-04-24T14:45:18Z</time>
      </trkpt>
      <trkpt lat="45.548707963898778" lon="3.710240973159671">
        <ele>672.58000000000004</ele>
        <time>2025-04-24T14:45:19Z</time>
      </trkpt>
      <trkpt lat="45.548608973622322" lon="3.710343986749649">
        <ele>673.53999999999996</ele>
        <time>2025-04-24T14:45:20Z</time>
      </trkpt>
      <trkpt lat="45.548515012487769" lon="3.710515983402729">
        <ele>674.98000000000002</ele>
        <time>2025-04-24T14:45:21Z</time>
      </trkpt>
      <trkpt lat="45.548415016382933" lon="3.710696026682854">
        <ele>676.41999999999996</ele>
        <time>2025-04-24T14:45:22Z</time>
      </trkpt>
      <trkpt lat="45.548318037763238" lon="3.710872968658805">
        <ele>677.38999999999999</ele>
        <time>2025-04-24T14:45:23Z</time>
      </trkpt>
      <trkpt lat="45.548186022788286" lon="3.710981011390686">
        <ele>678.83000000000004</ele>
        <time>2025-04-24T14:45:24Z</time>
      </trkpt>
      <trkpt lat="45.548062976449728" lon="3.711073966696858">
        <ele>680.26999999999998</ele>
        <time>2025-04-24T14:45:25Z</time>
      </trkpt>
      <trkpt lat="45.547942025586963" lon="3.711091987788677">
        <ele>681.23000000000002</ele>
        <time>2025-04-24T14:45:26Z</time>
      </trkpt>
      <trkpt lat="45.54778897203505" lon="3.711103973910213">
        <ele>682.66999999999996</ele>
        <time>2025-04-24T14:45:27Z</time>
      </trkpt>
      <trkpt lat="45.547625022009015" lon="3.711116965860128">
        <ele>683.63</ele>
        <time>2025-04-24T14:45:28Z</time>
      </trkpt>
      <trkpt lat="45.547482026740909" lon="3.711110008880496">
        <ele>685.08000000000004</ele>
        <time>2025-04-24T14:45:29Z</time>
      </trkpt>
      <trkpt lat="45.547321010380983" lon="3.711029039695859">
        <ele>686.03999999999996</ele>
        <time>2025-04-24T14:45:30Z</time>
      </trkpt>
      <trkpt lat="45.547169968485832" lon="3.710953015834093">
        <ele>687.48000000000002</ele>
        <time>2025-04-24T14:45:31Z</time>
      </trkpt>
      <trkpt lat="45.54703501984477" lon="3.710830975323916">
        <ele>688.44000000000005</ele>
        <time>2025-04-24T14:45:32Z</time>
      </trkpt>
      <trkpt lat="45.546785993501544" lon="3.710604999214411">
        <ele>690.84000000000003</ele>
        <time>2025-04-24T14:45:34Z</time>
      </trkpt>
      <trkpt lat="45.546684991568327" lon="3.710462003946304">
        <ele>691.80999999999995</ele>
        <time>2025-04-24T14:45:35Z</time>
      </trkpt>
      <trkpt lat="45.546612991020083" lon="3.710289001464844">
        <ele>693.25</ele>
        <time>2025-04-24T14:45:36Z</time>
      </trkpt>
      <trkpt lat="45.546572003513575" lon="3.71010803617537">
        <ele>694.21000000000004</ele>
        <time>2025-04-24T14:45:37Z</time>
      </trkpt>
      <trkpt lat="45.546552976593375" lon="3.709904020652175">
        <ele>695.16999999999996</ele>
        <time>2025-04-24T14:45:38Z</time>
      </trkpt>
      <trkpt lat="45.54656102322042" lon="3.709694975987077">
        <ele>696.13</ele>
        <time>2025-04-24T14:45:39Z</time>
      </trkpt>
      <trkpt lat="45.546569991856813" lon="3.709470005705953">
        <ele>697.09000000000003</ele>
        <time>2025-04-24T14:45:40Z</time>
      </trkpt>
      <trkpt lat="45.546579966321588" lon="3.709234977141023">
        <ele>698.04999999999995</ele>
        <time>2025-04-24T14:45:41Z</time>
      </trkpt>
      <trkpt lat="45.546589018777013" lon="3.709000032395124">
        <ele>698.04999999999995</ele>
        <time>2025-04-24T14:45:42Z</time>
      </trkpt>
      <trkpt lat="45.546579966321588" lon="3.708771038800478">
        <ele>698.52999999999997</ele>
        <time>2025-04-24T14:45:43Z</time>
      </trkpt>
      <trkpt lat="45.546546019613743" lon="3.708551013842225">
        <ele>699.5</ele>
        <time>2025-04-24T14:45:44Z</time>
      </trkpt>
      <trkpt lat="45.546488016843796" lon="3.708340963348746">
        <ele>699.98000000000002</ele>
        <time>2025-04-24T14:45:45Z</time>
      </trkpt>
      <trkpt lat="45.546430014073849" lon="3.708135019987822">
        <ele>700.94000000000005</ele>
        <time>2025-04-24T14:45:46Z</time>
      </trkpt>
      <trkpt lat="45.546275032684207" lon="3.707582987844944">
        <ele>703.82000000000005</ele>
        <time>2025-04-24T14:45:49Z</time>
      </trkpt>
      <trkpt lat="45.546198002994061" lon="3.707467988133431">
        <ele>704.29999999999995</ele>
        <time>2025-04-24T14:45:50Z</time>
      </trkpt>
      <trkpt lat="45.546116027981043" lon="3.707359023392201">
        <ele>705.25999999999999</ele>
        <time>2025-04-24T14:45:51Z</time>
      </trkpt>
      <trkpt lat="45.5460250005126" lon="3.707289034500718">
        <ele>705.75</ele>
        <time>2025-04-24T14:45:52Z</time>
      </trkpt>
      <trkpt lat="45.545920981094241" lon="3.707275036722422">
        <ele>706.71000000000004</ele>
        <time>2025-04-24T14:45:53Z</time>
      </trkpt>
      <trkpt lat="45.545819979161024" lon="3.707318035885692">
        <ele>707.19000000000005</ele>
        <time>2025-04-24T14:45:54Z</time>
      </trkpt>
      <trkpt lat="45.545730963349342" lon="3.707414008677006">
        <ele>708.14999999999998</ele>
        <time>2025-04-24T14:45:55Z</time>
      </trkpt>
      <trkpt lat="45.545632978901267" lon="3.707549041137099">
        <ele>708.63</ele>
        <time>2025-04-24T14:45:56Z</time>
      </trkpt>
      <trkpt lat="45.545544968917966" lon="3.707720031961799">
        <ele>709.59000000000003</ele>
        <time>2025-04-24T14:45:57Z</time>
      </trkpt>
      <trkpt lat="45.545450001955032" lon="3.707904014736414">
        <ele>710.54999999999995</ele>
        <time>2025-04-24T14:45:58Z</time>
      </trkpt>
      <trkpt lat="45.545116988942027" lon="3.708358984440565">
        <ele>712.95000000000005</ele>
        <time>2025-04-24T14:46:01Z</time>
      </trkpt>
      <trkpt lat="45.544992014765739" lon="3.708452023565769">
        <ele>713.91999999999996</ele>
        <time>2025-04-24T14:46:02Z</time>
      </trkpt>
      <trkpt lat="45.544837033376098" lon="3.708490999415517">
        <ele>714.88</ele>
        <time>2025-04-24T14:46:03Z</time>
      </trkpt>
      <trkpt lat="45.54467199370265" lon="3.708533998578787">
        <ele>715.36000000000001</ele>
        <time>2025-04-24T14:46:04Z</time>
      </trkpt>
      <trkpt lat="45.544496979564428" lon="3.708578003570437">
        <ele>716.32000000000005</ele>
        <time>2025-04-24T14:46:05Z</time>
      </trkpt>
      <trkpt lat="45.543756019324064" lon="3.708730973303318">
        <ele>720.15999999999997</ele>
        <time>2025-04-24T14:46:10Z</time>
      </trkpt>
      <trkpt lat="45.543672032654285" lon="3.708659978583455">
        <ele>720.64999999999998</ele>
        <time>2025-04-24T14:46:11Z</time>
      </trkpt>
      <trkpt lat="45.543631967157125" lon="3.708551013842225">
        <ele>721.61000000000001</ele>
        <time>2025-04-24T14:46:12Z</time>
      </trkpt>
      <trkpt lat="45.543635990470648" lon="3.708407012745738">
        <ele>722.09000000000003</ele>
        <time>2025-04-24T14:46:13Z</time>
      </trkpt>
      <trkpt lat="45.543714025989175" lon="3.70828497223556">
        <ele>723.04999999999995</ele>
        <time>2025-04-24T14:46:14Z</time>
      </trkpt>
      <trkpt lat="45.54381201043725" lon="3.708263011649251">
        <ele>723.52999999999997</ele>
        <time>2025-04-24T14:46:15Z</time>
      </trkpt>
      <trkpt lat="45.543928015977144" lon="3.708237027749419">
        <ele>724.49000000000001</ele>
        <time>2025-04-24T14:46:16Z</time>
      </trkpt>
      <trkpt lat="45.544059025123715" lon="3.708208026364446">
        <ele>724.97000000000003</ele>
        <time>2025-04-24T14:46:17Z</time>
      </trkpt>
      <trkpt lat="45.544340992346406" lon="3.708144994452596">
        <ele>726.40999999999997</ele>
        <time>2025-04-24T14:46:19Z</time>
      </trkpt>
      <trkpt lat="45.544476024806499" lon="3.70809000916779">
        <ele>727.37</ele>
        <time>2025-04-24T14:46:20Z</time>
      </trkpt>
      <trkpt lat="45.54458599537611" lon="3.707970986142755">
        <ele>727.86000000000001</ele>
        <time>2025-04-24T14:46:21Z</time>
      </trkpt>
      <trkpt lat="45.54469496011734" lon="3.70785397477448">
        <ele>728.34000000000003</ele>
        <time>2025-04-24T14:46:22Z</time>
      </trkpt>
      <trkpt lat="45.544764026999474" lon="3.707672003656626">
        <ele>729.29999999999995</ele>
        <time>2025-04-24T14:46:23Z</time>
      </trkpt>
      <trkpt lat="45.544815994799137" lon="3.707475028932095">
        <ele>729.77999999999997</ele>
        <time>2025-04-24T14:46:24Z</time>
      </trkpt>
      <trkpt lat="45.544832004234195" lon="3.7072519864887">
        <ele>730.74000000000001</ele>
        <time>2025-04-24T14:46:25Z</time>
      </trkpt>
      <trkpt lat="45.544832004234195" lon="3.707017963752151">
        <ele>731.70000000000005</ele>
        <time>2025-04-24T14:46:26Z</time>
      </trkpt>
      <trkpt lat="45.544832004234195" lon="3.706781007349491">
        <ele>732.65999999999997</ele>
        <time>2025-04-24T14:46:27Z</time>
      </trkpt>
      <trkpt lat="45.544882966205478" lon="3.704833975061774">
        <ele>741.78999999999996</ele>
        <time>2025-04-24T14:46:35Z</time>
      </trkpt>
      <trkpt lat="45.54492998868227" lon="3.704590983688831">
        <ele>743.24000000000001</ele>
        <time>2025-04-24T14:46:36Z</time>
      </trkpt>
      <trkpt lat="45.544987991452217" lon="3.70435100980103">
        <ele>745.15999999999997</ele>
        <time>2025-04-24T14:46:37Z</time>
      </trkpt>
      <trkpt lat="45.54576700553298" lon="3.70181699283421">
        <ele>760.05999999999995</ele>
        <time>2025-04-24T14:46:48Z</time>
      </trkpt>
      <trkpt lat="45.546206971630454" lon="3.699584975838661">
        <ele>769.19000000000005</ele>
        <time>2025-04-24T14:46:57Z</time>
      </trkpt>
      <trkpt lat="45.546489022672176" lon="3.698312016204">
        <ele>771.60000000000002</ele>
        <time>2025-04-24T14:47:02Z</time>
      </trkpt>
      <trkpt lat="45.546564962714911" lon="3.698057038709521">
        <ele>772.08000000000004</ele>
        <time>2025-04-24T14:47:03Z</time>
      </trkpt>
      <trkpt lat="45.546664958819747" lon="3.697823015972972">
        <ele>772.55999999999995</ele>
        <time>2025-04-24T14:47:04Z</time>
      </trkpt>
      <trkpt lat="45.546766966581345" lon="3.6975849699229">
        <ele>772.55999999999995</ele>
        <time>2025-04-24T14:47:05Z</time>
      </trkpt>
      <trkpt lat="45.546910967677832" lon="3.697381038218737">
        <ele>773.03999999999996</ele>
        <time>2025-04-24T14:47:06Z</time>
      </trkpt>
      <trkpt lat="45.547062009572983" lon="3.697188002988696">
        <ele>773.51999999999998</ele>
        <time>2025-04-24T14:47:07Z</time>
      </trkpt>
      <trkpt lat="45.547220008447766" lon="3.696983987465501">
        <ele>773.51999999999998</ele>
        <time>2025-04-24T14:47:08Z</time>
      </trkpt>
      <trkpt lat="45.547388987615705" lon="3.696802016347647">
        <ele>774</ele>
        <time>2025-04-24T14:47:09Z</time>
      </trkpt>
      <trkpt lat="45.548534961417317" lon="3.695524027571082">
        <ele>775.91999999999996</ele>
        <time>2025-04-24T14:47:16Z</time>
      </trkpt>
      <trkpt lat="45.54864501580596" lon="3.695304002612829">
        <ele>775.91999999999996</ele>
        <time>2025-04-24T14:47:17Z</time>
      </trkpt>
      <trkpt lat="45.548720033839345" lon="3.695061011239886">
        <ele>776.39999999999998</ele>
        <time>2025-04-24T14:47:18Z</time>
      </trkpt>
      <trkpt lat="45.548781976103783" lon="3.694804022088647">
        <ele>776.39999999999998</ele>
        <time>2025-04-24T14:47:19Z</time>
      </trkpt>
      <trkpt lat="45.548787005245686" lon="3.694514008238912">
        <ele>776.88</ele>
        <time>2025-04-24T14:47:20Z</time>
      </trkpt>
      <trkpt lat="45.548792034387589" lon="3.694214019924402">
        <ele>777.36000000000001</ele>
        <time>2025-04-24T14:47:21Z</time>
      </trkpt>
      <trkpt lat="45.548815000802279" lon="3.693603985011578">
        <ele>778.32000000000005</ele>
        <time>2025-04-24T14:47:23Z</time>
      </trkpt>
      <trkpt lat="45.548882978037" lon="3.693311959505081">
        <ele>778.80999999999995</ele>
        <time>2025-04-24T14:47:24Z</time>
      </trkpt>
      <trkpt lat="45.549563001841307" lon="3.690590020269156">
        <ele>787.46000000000004</ele>
        <time>2025-04-24T14:47:33Z</time>
      </trkpt>
      <trkpt lat="45.549679007381201" lon="3.690346023067832">
        <ele>788.41999999999996</ele>
        <time>2025-04-24T14:47:34Z</time>
      </trkpt>
      <trkpt lat="45.549808004871011" lon="3.690119963139296">
        <ele>789.38</ele>
        <time>2025-04-24T14:47:35Z</time>
      </trkpt>
      <trkpt lat="45.549959968775511" lon="3.689920976758003">
        <ele>790.34000000000003</ele>
        <time>2025-04-24T14:47:36Z</time>
      </trkpt>
      <trkpt lat="45.550121990963817" lon="3.68974001146853">
        <ele>790.82000000000005</ele>
        <time>2025-04-24T14:47:37Z</time>
      </trkpt>
      <trkpt lat="45.550275966525078" lon="3.68956801481545">
        <ele>791.77999999999997</ele>
        <time>2025-04-24T14:47:38Z</time>
      </trkpt>
      <trkpt lat="45.550389038398862" lon="3.689371040090919">
        <ele>792.25999999999999</ele>
        <time>2025-04-24T14:47:39Z</time>
      </trkpt>
      <trkpt lat="45.550482999533415" lon="3.689174987375736">
        <ele>793.22000000000003</ele>
        <time>2025-04-24T14:47:40Z</time>
      </trkpt>
      <trkpt lat="45.550521975383162" lon="3.688937025144696">
        <ele>793.71000000000004</ele>
        <time>2025-04-24T14:47:41Z</time>
      </trkpt>
      <trkpt lat="45.550527004525065" lon="3.688679030165076">
        <ele>794.19000000000005</ele>
        <time>2025-04-24T14:47:42Z</time>
      </trkpt>
      <trkpt lat="45.550503032281995" lon="3.688392033800483">
        <ele>795.14999999999998</ele>
        <time>2025-04-24T14:47:43Z</time>
      </trkpt>
      <trkpt lat="45.550475958734751" lon="3.688083998858929">
        <ele>795.63</ele>
        <time>2025-04-24T14:47:44Z</time>
      </trkpt>
      <trkpt lat="45.550398007035255" lon="3.6869250331074">
        <ele>798.02999999999997</ele>
        <time>2025-04-24T14:47:48Z</time>
      </trkpt>
      <trkpt lat="45.550410998985171" lon="3.686664020642638">
        <ele>798.99000000000001</ele>
        <time>2025-04-24T14:47:49Z</time>
      </trkpt>
      <trkpt lat="45.550470007583499" lon="3.686427986249328">
        <ele>799.47000000000003</ele>
        <time>2025-04-24T14:47:50Z</time>
      </trkpt>
      <trkpt lat="45.550538990646601" lon="3.686193041503429">
        <ele>799.95000000000005</ele>
        <time>2025-04-24T14:47:51Z</time>
      </trkpt>
      <trkpt lat="45.550648039206862" lon="3.685971004888415">
        <ele>800.44000000000005</ele>
        <time>2025-04-24T14:47:52Z</time>
      </trkpt>
      <trkpt lat="45.550761027261615" lon="3.685741005465388">
        <ele>801.39999999999998</ele>
        <time>2025-04-24T14:47:53Z</time>
      </trkpt>
      <trkpt lat="45.550877032801509" lon="3.685503965243697">
        <ele>802.36000000000001</ele>
        <time>2025-04-24T14:47:54Z</time>
      </trkpt>
      <trkpt lat="45.551238963380456" lon="3.684772979468107">
        <ele>806.20000000000005</ele>
        <time>2025-04-24T14:47:57Z</time>
      </trkpt>
      <trkpt lat="45.551425963640213" lon="3.68424198590219">
        <ele>808.13</ele>
        <time>2025-04-24T14:47:59Z</time>
      </trkpt>
      <trkpt lat="45.551500981673598" lon="3.683967981487513">
        <ele>809.57000000000005</ele>
        <time>2025-04-24T14:48:00Z</time>
      </trkpt>
      <trkpt lat="45.551558984443545" lon="3.683690959587693">
        <ele>811.00999999999999</ele>
        <time>2025-04-24T14:48:01Z</time>
      </trkpt>
      <trkpt lat="45.551821002736688" lon="3.682536017149687">
        <ele>816.77999999999997</ele>
        <time>2025-04-24T14:48:06Z</time>
      </trkpt>
      <trkpt lat="45.551886968314648" lon="3.682333007454872">
        <ele>817.74000000000001</ele>
        <time>2025-04-24T14:48:07Z</time>
      </trkpt>
      <trkpt lat="45.552465990185738" lon="3.680964997038245">
        <ele>822.54999999999995</ele>
        <time>2025-04-24T14:48:15Z</time>
      </trkpt>
      <trkpt lat="45.553032020106912" lon="3.67949296720326">
        <ele>824.47000000000003</ele>
        <time>2025-04-24T14:48:21Z</time>
      </trkpt>
      <trkpt lat="45.553093040362" lon="3.679197002202272">
        <ele>824.95000000000005</ele>
        <time>2025-04-24T14:48:22Z</time>
      </trkpt>
      <trkpt lat="45.553125981241465" lon="3.678879998624325">
        <ele>825.90999999999997</ele>
        <time>2025-04-24T14:48:23Z</time>
      </trkpt>
      <trkpt lat="45.553251039236784" lon="3.677703011780977">
        <ele>829.26999999999998</ele>
        <time>2025-04-24T14:48:27Z</time>
      </trkpt>
      <trkpt lat="45.553814973682165" lon="3.675704011693597">
        <ele>833.60000000000002</ele>
        <time>2025-04-24T14:48:35Z</time>
      </trkpt>
      <trkpt lat="45.553950006142259" lon="3.675502007827163">
        <ele>833.60000000000002</ele>
        <time>2025-04-24T14:48:36Z</time>
      </trkpt>
      <trkpt lat="45.554099958389997" lon="3.675311990082264">
        <ele>833.60000000000002</ele>
        <time>2025-04-24T14:48:37Z</time>
      </trkpt>
      <trkpt lat="45.554269021376967" lon="3.675138987600803">
        <ele>834.08000000000004</ele>
        <time>2025-04-24T14:48:38Z</time>
      </trkpt>
      <trkpt lat="45.554445963352919" lon="3.674986017867923">
        <ele>834.08000000000004</ele>
        <time>2025-04-24T14:48:39Z</time>
      </trkpt>
      <trkpt lat="45.554757015779614" lon="3.674645964056253">
        <ele>834.08000000000004</ele>
        <time>2025-04-24T14:48:41Z</time>
      </trkpt>
      <trkpt lat="45.554889030754566" lon="3.674452006816864">
        <ele>834.55999999999995</ele>
        <time>2025-04-24T14:48:42Z</time>
      </trkpt>
      <trkpt lat="45.554978968575597" lon="3.674237011000514">
        <ele>835.03999999999996</ele>
        <time>2025-04-24T14:48:43Z</time>
      </trkpt>
      <trkpt lat="45.555021967738867" lon="3.673988990485668">
        <ele>836</ele>
        <time>2025-04-24T14:48:44Z</time>
      </trkpt>
      <trkpt lat="45.555067984387279" lon="3.673724960535765">
        <ele>836</ele>
        <time>2025-04-24T14:48:45Z</time>
      </trkpt>
      <trkpt lat="45.555033031851053" lon="3.673462020233274">
        <ele>836.48000000000002</ele>
        <time>2025-04-24T14:48:46Z</time>
      </trkpt>
      <trkpt lat="45.554975029081106" lon="3.673189021646977">
        <ele>837.45000000000005</ele>
        <time>2025-04-24T14:48:47Z</time>
      </trkpt>
      <trkpt lat="45.554910991340876" lon="3.672909988090396">
        <ele>838.40999999999997</ele>
        <time>2025-04-24T14:48:48Z</time>
      </trkpt>
      <trkpt lat="45.554788028821349" lon="3.672376982867718">
        <ele>840.33000000000004</ele>
        <time>2025-04-24T14:48:50Z</time>
      </trkpt>
      <trkpt lat="45.554774031043053" lon="3.672112030908465">
        <ele>840.80999999999995</ele>
        <time>2025-04-24T14:48:51Z</time>
      </trkpt>
      <trkpt lat="45.554784005507827" lon="3.671842971816659">
        <ele>841.76999999999998</ele>
        <time>2025-04-24T14:48:52Z</time>
      </trkpt>
      <trkpt lat="45.554828010499477" lon="3.67156402207911">
        <ele>842.25</ele>
        <time>2025-04-24T14:48:53Z</time>
      </trkpt>
      <trkpt lat="45.554895987734199" lon="3.671281971037388">
        <ele>843.21000000000004</ele>
        <time>2025-04-24T14:48:54Z</time>
      </trkpt>
      <trkpt lat="45.555552961304784" lon="3.668529018759728">
        <ele>850.41999999999996</ele>
        <time>2025-04-24T14:49:03Z</time>
      </trkpt>
      <trkpt lat="45.556150004267693" lon="3.667167965322733">
        <ele>855.23000000000002</ele>
        <time>2025-04-24T14:49:08Z</time>
      </trkpt>
      <trkpt lat="45.557176033034921" lon="3.665516981855035">
        <ele>863.88</ele>
        <time>2025-04-24T14:49:15Z</time>
      </trkpt>
      <trkpt lat="45.557330008596182" lon="3.665326964110136">
        <ele>865.32000000000005</ele>
        <time>2025-04-24T14:49:16Z</time>
      </trkpt>
      <trkpt lat="45.557683976367116" lon="3.664999986067414">
        <ele>868.21000000000004</ele>
        <time>2025-04-24T14:49:18Z</time>
      </trkpt>
      <trkpt lat="45.557870976626873" lon="3.664849027991295">
        <ele>870.13</ele>
        <time>2025-04-24T14:49:19Z</time>
      </trkpt>
      <trkpt lat="45.559784984216094" lon="3.663710011169314">
        <ele>884.54999999999995</ele>
        <time>2025-04-24T14:49:29Z</time>
      </trkpt>
      <trkpt lat="45.559957986697555" lon="3.663623007014394">
        <ele>885.50999999999999</ele>
        <time>2025-04-24T14:49:30Z</time>
      </trkpt>
      <trkpt lat="45.560109028592706" lon="3.66348696872592">
        <ele>886.95000000000005</ele>
        <time>2025-04-24T14:49:31Z</time>
      </trkpt>
      <trkpt lat="45.560239031910896" lon="3.663324024528265">
        <ele>887.90999999999997</ele>
        <time>2025-04-24T14:49:32Z</time>
      </trkpt>
      <trkpt lat="45.560366017743945" lon="3.663144987076521">
        <ele>889.36000000000001</ele>
        <time>2025-04-24T14:49:33Z</time>
      </trkpt>
      <trkpt lat="45.560458973050117" lon="3.662925967946649">
        <ele>890.32000000000005</ele>
        <time>2025-04-24T14:49:34Z</time>
      </trkpt>
      <trkpt lat="45.560519993305206" lon="3.662675013765693">
        <ele>891.27999999999997</ele>
        <time>2025-04-24T14:49:35Z</time>
      </trkpt>
      <trkpt lat="45.560567015781999" lon="3.662400003522635">
        <ele>892.24000000000001</ele>
        <time>2025-04-24T14:49:36Z</time>
      </trkpt>
      <trkpt lat="45.560598028823733" lon="3.662105966359377">
        <ele>893.67999999999995</ele>
        <time>2025-04-24T14:49:37Z</time>
      </trkpt>
      <trkpt lat="45.560770025476813" lon="3.660210985690355">
        <ele>899.45000000000005</ele>
        <time>2025-04-24T14:49:43Z</time>
      </trkpt>
      <trkpt lat="45.560755021870136" lon="3.659018995240331">
        <ele>904.74000000000001</ele>
        <time>2025-04-24T14:49:47Z</time>
      </trkpt>
      <trkpt lat="45.5607879627496" lon="3.658768041059375">
        <ele>906.17999999999995</ele>
        <time>2025-04-24T14:49:48Z</time>
      </trkpt>
      <trkpt lat="45.560840014368296" lon="3.658511973917484">
        <ele>907.62</ele>
        <time>2025-04-24T14:49:49Z</time>
      </trkpt>
      <trkpt lat="45.560928024351597" lon="3.65832899697125">
        <ele>909.05999999999995</ele>
        <time>2025-04-24T14:49:50Z</time>
      </trkpt>
      <trkpt lat="45.561051992699504" lon="3.658121963962913">
        <ele>910.50999999999999</ele>
        <time>2025-04-24T14:49:51Z</time>
      </trkpt>
      <trkpt lat="45.561185013502836" lon="3.657901016995311">
        <ele>911.95000000000005</ele>
        <time>2025-04-24T14:49:52Z</time>
      </trkpt>
      <trkpt lat="45.561319962143898" lon="3.657675962895155">
        <ele>913.38999999999999</ele>
        <time>2025-04-24T14:49:53Z</time>
      </trkpt>
      <trkpt lat="45.561653980985284" lon="3.657273966819048">
        <ele>916.26999999999998</ele>
        <time>2025-04-24T14:49:55Z</time>
      </trkpt>
      <trkpt lat="45.561848022043705" lon="3.657109010964632">
        <ele>917.72000000000003</ele>
        <time>2025-04-24T14:49:56Z</time>
      </trkpt>
      <trkpt lat="45.56342700496316" lon="3.656040988862515">
        <ele>928.28999999999996</ele>
        <time>2025-04-24T14:50:04Z</time>
      </trkpt>
      <trkpt lat="45.564147010445595" lon="3.655483005568385">
        <ele>932.13999999999999</ele>
        <time>2025-04-24T14:50:08Z</time>
      </trkpt>
      <trkpt lat="45.564305009320378" lon="3.655325006693602">
        <ele>933.58000000000004</ele>
        <time>2025-04-24T14:50:09Z</time>
      </trkpt>
      <trkpt lat="45.564448004588485" lon="3.655146975070238">
        <ele>934.53999999999996</ele>
        <time>2025-04-24T14:50:10Z</time>
      </trkpt>
      <trkpt lat="45.564571972936392" lon="3.654930973425508">
        <ele>935.98000000000002</ele>
        <time>2025-04-24T14:50:11Z</time>
      </trkpt>
      <trkpt lat="45.564683033153415" lon="3.6546999681741">
        <ele>937.41999999999996</ele>
        <time>2025-04-24T14:50:12Z</time>
      </trkpt>
      <trkpt lat="45.564761990681291" lon="3.65443903952837">
        <ele>938.86000000000001</ele>
        <time>2025-04-24T14:50:13Z</time>
      </trkpt>
      <trkpt lat="45.564817981794477" lon="3.654184984043241">
        <ele>939.83000000000004</ele>
        <time>2025-04-24T14:50:14Z</time>
      </trkpt>
      <trkpt lat="45.564841032028198" lon="3.653908967971802">
        <ele>940.78999999999996</ele>
        <time>2025-04-24T14:50:15Z</time>
      </trkpt>
      <trkpt lat="45.564865004271269" lon="3.653620965778828">
        <ele>941.75</ele>
        <time>2025-04-24T14:50:16Z</time>
      </trkpt>
      <trkpt lat="45.564848994836211" lon="3.653332041576505">
        <ele>942.71000000000004</ele>
        <time>2025-04-24T14:50:17Z</time>
      </trkpt>
      <trkpt lat="45.564807001501322" lon="3.653034986928105">
        <ele>943.66999999999996</ele>
        <time>2025-04-24T14:50:18Z</time>
      </trkpt>
      <trkpt lat="45.564766013994813" lon="3.65274396724999">
        <ele>944.63</ele>
        <time>2025-04-24T14:50:19Z</time>
      </trkpt>
      <trkpt lat="45.564726032316685" lon="3.652459988370538">
        <ele>945.59000000000003</ele>
        <time>2025-04-24T14:50:20Z</time>
      </trkpt>
      <trkpt lat="45.564745981246233" lon="3.652164023369551">
        <ele>946.55999999999995</ele>
        <time>2025-04-24T14:50:21Z</time>
      </trkpt>
      <trkpt lat="45.564770037308335" lon="3.651868980377913">
        <ele>947.03999999999996</ele>
        <time>2025-04-24T14:50:22Z</time>
      </trkpt>
      <trkpt lat="45.564801972359419" lon="3.651569997891784">
        <ele>948</ele>
        <time>2025-04-24T14:50:23Z</time>
      </trkpt>
      <trkpt lat="45.564858969300985" lon="3.651271015405655">
        <ele>948.96000000000004</ele>
        <time>2025-04-24T14:50:24Z</time>
      </trkpt>
      <trkpt lat="45.564938010647893" lon="3.650975972414017">
        <ele>949.44000000000005</ele>
        <time>2025-04-24T14:50:25Z</time>
      </trkpt>
      <trkpt lat="45.565518038347363" lon="3.648549998179078">
        <ele>955.69000000000005</ele>
        <time>2025-04-24T14:50:33Z</time>
      </trkpt>
      <trkpt lat="45.565561037510633" lon="3.648293009027839">
        <ele>956.64999999999998</ele>
        <time>2025-04-24T14:50:34Z</time>
      </trkpt>
      <trkpt lat="45.565729010850191" lon="3.647694038227201">
        <ele>959.52999999999997</ele>
        <time>2025-04-24T14:50:37Z</time>
      </trkpt>
      <trkpt lat="45.565804028883576" lon="3.647526986896992">
        <ele>960.98000000000002</ele>
        <time>2025-04-24T14:50:38Z</time>
      </trkpt>
      <trkpt lat="45.565881980583072" lon="3.647353984415531">
        <ele>961.94000000000005</ele>
        <time>2025-04-24T14:50:39Z</time>
      </trkpt>
      <trkpt lat="45.56600603275001" lon="3.647219035774469">
        <ele>962.89999999999998</ele>
        <time>2025-04-24T14:50:40Z</time>
      </trkpt>
      <trkpt lat="45.566141987219453" lon="3.64707101136446">
        <ele>963.86000000000001</ele>
        <time>2025-04-24T14:50:41Z</time>
      </trkpt>
      <trkpt lat="45.566289005801082" lon="3.646911000832915">
        <ele>964.82000000000005</ele>
        <time>2025-04-24T14:50:42Z</time>
      </trkpt>
      <trkpt lat="45.566442981362343" lon="3.646743027493358">
        <ele>965.29999999999995</ele>
        <time>2025-04-24T14:50:43Z</time>
      </trkpt>
      <trkpt lat="45.567581998184323" lon="3.645324977114797">
        <ele>970.59000000000003</ele>
        <time>2025-04-24T14:50:51Z</time>
      </trkpt>
      <trkpt lat="45.56903600692749" lon="3.643715986981988">
        <ele>976.84000000000003</ele>
        <time>2025-04-24T14:51:00Z</time>
      </trkpt>
      <trkpt lat="45.569168021902442" lon="3.643538961187005">
        <ele>976.84000000000003</ele>
        <time>2025-04-24T14:51:01Z</time>
      </trkpt>
      <trkpt lat="45.569285033270717" lon="3.643331006169319">
        <ele>977.32000000000005</ele>
        <time>2025-04-24T14:51:02Z</time>
      </trkpt>
      <trkpt lat="45.569372959434986" lon="3.643104024231434">
        <ele>976.84000000000003</ele>
        <time>2025-04-24T14:51:03Z</time>
      </trkpt>
      <trkpt lat="45.569454012438655" lon="3.642862038686872">
        <ele>976.84000000000003</ele>
        <time>2025-04-24T14:51:04Z</time>
      </trkpt>
      <trkpt lat="45.569494999945164" lon="3.64260395988822">
        <ele>976.84000000000003</ele>
        <time>2025-04-24T14:51:05Z</time>
      </trkpt>
      <trkpt lat="45.56952903047204" lon="3.642341019585729">
        <ele>976.36000000000001</ele>
        <time>2025-04-24T14:51:06Z</time>
      </trkpt>
      <trkpt lat="45.569500029087067" lon="3.642092999070883">
        <ele>976.36000000000001</ele>
        <time>2025-04-24T14:51:07Z</time>
      </trkpt>
      <trkpt lat="45.569468010216951" lon="3.641835004091263">
        <ele>976.36000000000001</ele>
        <time>2025-04-24T14:51:08Z</time>
      </trkpt>
      <trkpt lat="45.56942299939692" lon="3.64159201271832">
        <ele>976.84000000000003</ele>
        <time>2025-04-24T14:51:09Z</time>
      </trkpt>
      <trkpt lat="45.569327026605606" lon="3.641339968889952">
        <ele>976.84000000000003</ele>
        <time>2025-04-24T14:51:10Z</time>
      </trkpt>
      <trkpt lat="45.569226024672389" lon="3.64107602275908">
        <ele>977.32000000000005</ele>
        <time>2025-04-24T14:51:11Z</time>
      </trkpt>
      <trkpt lat="45.569119993597269" lon="3.640794977545738">
        <ele>977.32000000000005</ele>
        <time>2025-04-24T14:51:12Z</time>
      </trkpt>
      <trkpt lat="45.568352965638041" lon="3.638462964445353">
        <ele>978.27999999999997</ele>
        <time>2025-04-24T14:51:20Z</time>
      </trkpt>
      <trkpt lat="45.567894978448749" lon="3.63680200651288">
        <ele>979.24000000000001</ele>
        <time>2025-04-24T14:51:27Z</time>
      </trkpt>
      <trkpt lat="45.567868994548917" lon="3.636624980717897">
        <ele>979.24000000000001</ele>
        <time>2025-04-24T14:51:28Z</time>
      </trkpt>
      <trkpt lat="45.56785399094224" lon="3.636473016813397">
        <ele>979.24000000000001</ele>
        <time>2025-04-24T14:51:29Z</time>
      </trkpt>
      <trkpt lat="45.56783496402204" lon="3.636281993240118">
        <ele>978.75999999999999</ele>
        <time>2025-04-24T14:51:31Z</time>
      </trkpt>
      <trkpt lat="45.567759023979306" lon="3.636213010177016">
        <ele>978.27999999999997</ele>
        <time>2025-04-24T14:51:32Z</time>
      </trkpt>
      <trkpt lat="45.567699009552598" lon="3.636160036548972">
        <ele>978.27999999999997</ele>
        <time>2025-04-24T14:51:33Z</time>
      </trkpt>
      <trkpt lat="45.567630026489496" lon="3.636098010465503">
        <ele>977.79999999999995</ele>
        <time>2025-04-24T14:51:34Z</time>
      </trkpt>
      <trkpt lat="45.567549979314208" lon="3.636026009917259">
        <ele>977.32000000000005</ele>
        <time>2025-04-24T14:51:35Z</time>
      </trkpt>
      <trkpt lat="45.566983027383685" lon="3.635524017736316">
        <ele>973.95000000000005</ele>
        <time>2025-04-24T14:51:40Z</time>
      </trkpt>
      <trkpt lat="45.566832991316915" lon="3.635454028844833">
        <ele>972.99000000000001</ele>
        <time>2025-04-24T14:51:41Z</time>
      </trkpt>
      <trkpt lat="45.565767986699939" lon="3.634964022785425">
        <ele>969.63</ele>
        <time>2025-04-24T14:51:47Z</time>
      </trkpt>
      <trkpt lat="45.565624991431832" lon="3.634865032508969">
        <ele>969.14999999999998</ele>
        <time>2025-04-24T14:51:48Z</time>
      </trkpt>
      <trkpt lat="45.564180035144091" lon="3.633469026535749">
        <ele>965.77999999999997</ele>
        <time>2025-04-24T14:51:57Z</time>
      </trkpt>
      <trkpt lat="45.564094036817551" lon="3.633284037932754">
        <ele>965.77999999999997</ele>
        <time>2025-04-24T14:51:58Z</time>
      </trkpt>
      <trkpt lat="45.564017007127404" lon="3.633072981610894">
        <ele>965.29999999999995</ele>
        <time>2025-04-24T14:51:59Z</time>
      </trkpt>
      <trkpt lat="45.563444020226598" lon="3.631297023966909">
        <ele>962.89999999999998</ele>
        <time>2025-04-24T14:52:06Z</time>
      </trkpt>
      <trkpt lat="45.562384966760874" lon="3.629042962566018">
        <ele>970.11000000000001</ele>
        <time>2025-04-24T14:52:15Z</time>
      </trkpt>
      <trkpt lat="45.561760012060404" lon="3.626885963603854">
        <ele>985.00999999999999</ele>
        <time>2025-04-24T14:52:23Z</time>
      </trkpt>
      <trkpt lat="45.561179984360933" lon="3.624354964122176">
        <ele>990.29999999999995</ele>
        <time>2025-04-24T14:52:32Z</time>
      </trkpt>
      <trkpt lat="45.561050986871123" lon="3.623832017183304">
        <ele>989.80999999999995</ele>
        <time>2025-04-24T14:52:34Z</time>
      </trkpt>
      <trkpt lat="45.560825010761619" lon="3.623348968103528">
        <ele>990.29999999999995</ele>
        <time>2025-04-24T14:52:36Z</time>
      </trkpt>
      <trkpt lat="45.560706993564963" lon="3.623125003650785">
        <ele>990.29999999999995</ele>
        <time>2025-04-24T14:52:37Z</time>
      </trkpt>
      <trkpt lat="45.560585036873817" lon="3.622897015884519">
        <ele>990.77999999999997</ele>
        <time>2025-04-24T14:52:38Z</time>
      </trkpt>
      <trkpt lat="45.560222016647458" lon="3.622211962938309">
        <ele>991.74000000000001</ele>
        <time>2025-04-24T14:52:41Z</time>
      </trkpt>
      <trkpt lat="45.560125038027763" lon="3.621956985443831">
        <ele>992.22000000000003</ele>
        <time>2025-04-24T14:52:42Z</time>
      </trkpt>
      <trkpt lat="45.55986201390624" lon="3.621190963312984">
        <ele>992.70000000000005</ele>
        <time>2025-04-24T14:52:45Z</time>
      </trkpt>
      <trkpt lat="45.559229012578726" lon="3.619430009275675">
        <ele>994.13999999999999</ele>
        <time>2025-04-24T14:52:53Z</time>
      </trkpt>
      <trkpt lat="45.559127004817128" lon="3.619253989309073">
        <ele>994.62</ele>
        <time>2025-04-24T14:52:54Z</time>
      </trkpt>
      <trkpt lat="45.559013010933995" lon="3.619090961292386">
        <ele>995.10000000000002</ele>
        <time>2025-04-24T14:52:55Z</time>
      </trkpt>
      <trkpt lat="45.558884013444185" lon="3.618961963802576">
        <ele>996.05999999999995</ele>
        <time>2025-04-24T14:52:56Z</time>
      </trkpt>
      <trkpt lat="45.558750992640853" lon="3.618834977969527">
        <ele>996.53999999999996</ele>
        <time>2025-04-24T14:52:57Z</time>
      </trkpt>
      <trkpt lat="45.558623000979424" lon="3.618718972429633">
        <ele>997.01999999999998</ele>
        <time>2025-04-24T14:52:58Z</time>
      </trkpt>
      <trkpt lat="45.558501966297626" lon="3.618610007688403">
        <ele>997.01999999999998</ele>
        <time>2025-04-24T14:52:59Z</time>
      </trkpt>
      <trkpt lat="45.55728399194777" lon="3.617733009159565">
        <ele>998.47000000000003</ele>
        <time>2025-04-24T14:53:08Z</time>
      </trkpt>
      <trkpt lat="45.556228961795568" lon="3.617120962589979">
        <ele>1000.39</ele>
        <time>2025-04-24T14:53:15Z</time>
      </trkpt>
      <trkpt lat="45.556084038689733" lon="3.617102019488812">
        <ele>1000.39</ele>
        <time>2025-04-24T14:53:16Z</time>
      </trkpt>
      <trkpt lat="45.555940037593246" lon="3.617106964811683">
        <ele>1000.87</ele>
        <time>2025-04-24T14:53:17Z</time>
      </trkpt>
      <trkpt lat="45.555794024839997" lon="3.617111993953586">
        <ele>1001.35</ele>
        <time>2025-04-24T14:53:18Z</time>
      </trkpt>
      <trkpt lat="45.55564901791513" lon="3.617117023095489">
        <ele>1001.35</ele>
        <time>2025-04-24T14:53:19Z</time>
      </trkpt>
      <trkpt lat="45.55550099350512" lon="3.61712196841836">
        <ele>1001.83</ele>
        <time>2025-04-24T14:53:20Z</time>
      </trkpt>
      <trkpt lat="45.555351041257381" lon="3.617126997560263">
        <ele>1001.83</ele>
        <time>2025-04-24T14:53:21Z</time>
      </trkpt>
      <trkpt lat="45.55519899353385" lon="3.617133032530546">
        <ele>1001.83</ele>
        <time>2025-04-24T14:53:22Z</time>
      </trkpt>
      <trkpt lat="45.554085960611701" lon="3.617212995886803">
        <ele>1003.75</ele>
        <time>2025-04-24T14:53:29Z</time>
      </trkpt>
      <trkpt lat="45.55393299087882" lon="3.617224982008338">
        <ele>1003.75</ele>
        <time>2025-04-24T14:53:30Z</time>
      </trkpt>
      <trkpt lat="45.553783038631082" lon="3.617237973958254">
        <ele>1004.23</ele>
        <time>2025-04-24T14:53:31Z</time>
      </trkpt>
      <trkpt lat="45.552540002390742" lon="3.617338975891471">
        <ele>1005.6799999999999</ele>
        <time>2025-04-24T14:53:38Z</time>
      </trkpt>
      <trkpt lat="45.550573021173477" lon="3.61748700030148">
        <ele>1007.12</ele>
        <time>2025-04-24T14:53:47Z</time>
      </trkpt>
      <trkpt lat="45.549581022933125" lon="3.617538968101144">
        <ele>1007.12</ele>
        <time>2025-04-24T14:53:53Z</time>
      </trkpt>
      <trkpt lat="45.549486977979541" lon="3.617473002523184">
        <ele>1007.12</ele>
        <time>2025-04-24T14:53:54Z</time>
      </trkpt>
      <trkpt lat="45.549316992983222" lon="3.617355991154909">
        <ele>1006.64</ele>
        <time>2025-04-24T14:53:59Z</time>
      </trkpt>
      <trkpt lat="45.549273993819952" lon="3.617292959243059">
        <ele>1007.12</ele>
        <time>2025-04-24T14:54:01Z</time>
      </trkpt>
      <trkpt lat="45.549258990213275" lon="3.61727099865675">
        <ele>1007.12</ele>
        <time>2025-04-24T14:54:02Z</time>
      </trkpt>
      <trkpt lat="45.549241974949837" lon="3.617247026413679">
        <ele>1007.6</ele>
        <time>2025-04-24T14:54:03Z</time>
      </trkpt>
      <trkpt lat="45.54922697134316" lon="3.617224982008338">
        <ele>1007.6</ele>
        <time>2025-04-24T14:54:04Z</time>
      </trkpt>
      <trkpt lat="45.54922697134316" lon="3.617224982008338">
        <ele>1007.6</ele>
        <time>2025-04-24T14:54:05Z</time>
      </trkpt>
      <trkpt lat="45.549621004611254" lon="3.617157004773617">
        <ele>1042.6900000000001</ele>
        <time>2025-04-24T14:59:47Z</time>
      </trkpt>
      <trkpt lat="45.54931003600359" lon="3.617214001715183">
        <ele>1013.85</ele>
        <time>2025-04-24T15:00:17Z</time>
      </trkpt>
      <trkpt lat="45.549187995493412" lon="3.617168990895152">
        <ele>1018.65</ele>
        <time>2025-04-24T15:00:55Z</time>
      </trkpt>
      <trkpt lat="45.549148013815284" lon="3.617109982296825">
        <ele>1018.17</ele>
        <time>2025-04-24T15:00:56Z</time>
      </trkpt>
      <trkpt lat="45.549077019095421" lon="3.617002023383975">
        <ele>1017.21</ele>
        <time>2025-04-24T15:00:57Z</time>
      </trkpt>
      <trkpt lat="45.548983979970217" lon="3.616765988990665">
        <ele>1015.29</ele>
        <time>2025-04-24T15:00:59Z</time>
      </trkpt>
      <trkpt lat="45.548416022211313" lon="3.615317009389401">
        <ele>1017.21</ele>
        <time>2025-04-24T15:01:08Z</time>
      </trkpt>
      <trkpt lat="45.548241008073092" lon="3.614953989163041">
        <ele>1018.65</ele>
        <time>2025-04-24T15:01:10Z</time>
      </trkpt>
      <trkpt lat="45.548148974776268" lon="3.614772018045187">
        <ele>1019.13</ele>
        <time>2025-04-24T15:01:11Z</time>
      </trkpt>
      <trkpt lat="45.548020983114839" lon="3.614636985585094">
        <ele>1020.1</ele>
        <time>2025-04-24T15:01:12Z</time>
      </trkpt>
      <trkpt lat="45.547888968139887" lon="3.614497007802129">
        <ele>1021.0599999999999</ele>
        <time>2025-04-24T15:01:13Z</time>
      </trkpt>
      <trkpt lat="45.547748990356922" lon="3.614350995048881">
        <ele>1022.02</ele>
        <time>2025-04-24T15:01:14Z</time>
      </trkpt>
      <trkpt lat="45.547590991482139" lon="3.614248987287283">
        <ele>1022.5</ele>
        <time>2025-04-24T15:01:15Z</time>
      </trkpt>
      <trkpt lat="45.545838000252843" lon="3.613235028460622">
        <ele>1032.5899999999999</ele>
        <time>2025-04-24T15:01:26Z</time>
      </trkpt>
      <trkpt lat="45.545678995549679" lon="3.613195968791843">
        <ele>1033.0699999999999</ele>
        <time>2025-04-24T15:01:27Z</time>
      </trkpt>
      <trkpt lat="45.545523008331656" lon="3.613182976841927">
        <ele>1034.52</ele>
        <time>2025-04-24T15:01:28Z</time>
      </trkpt>
      <trkpt lat="45.544731002300978" lon="3.61342404037714">
        <ele>1038.8399999999999</ele>
        <time>2025-04-24T15:01:33Z</time>
      </trkpt>
      <trkpt lat="45.544587001204491" lon="3.613530993461609">
        <ele>1039.8</ele>
        <time>2025-04-24T15:01:34Z</time>
      </trkpt>
      <trkpt lat="45.544440988451242" lon="3.613639958202839">
        <ele>1040.76</ele>
        <time>2025-04-24T15:01:35Z</time>
      </trkpt>
      <trkpt lat="45.543271964415908" lon="3.614330962300301">
        <ele>1049.9000000000001</ele>
        <time>2025-04-24T15:01:43Z</time>
      </trkpt>
      <trkpt lat="45.542962001636624" lon="3.614411009475589">
        <ele>1051.3399999999999</ele>
        <time>2025-04-24T15:01:45Z</time>
      </trkpt>
      <trkpt lat="45.542826969176531" lon="3.614373961463571">
        <ele>1051.8199999999999</ele>
        <time>2025-04-24T15:01:46Z</time>
      </trkpt>
      <trkpt lat="45.542697971686721" lon="3.614324005320668">
        <ele>1052.3</ele>
        <time>2025-04-24T15:01:47Z</time>
      </trkpt>
      <trkpt lat="45.542575009167194" lon="3.614246975630522">
        <ele>1052.78</ele>
        <time>2025-04-24T15:01:48Z</time>
      </trkpt>
      <trkpt lat="45.542461015284061" lon="3.614175980910659">
        <ele>1053.26</ele>
        <time>2025-04-24T15:01:49Z</time>
      </trkpt>
      <trkpt lat="45.542152980342507" lon="3.613984035328031">
        <ele>1055.1800000000001</ele>
        <time>2025-04-24T15:01:53Z</time>
      </trkpt>
      <trkpt lat="45.541414031758904" lon="3.613568963482976">
        <ele>1058.0699999999999</ele>
        <time>2025-04-24T15:02:02Z</time>
      </trkpt>
      <trkpt lat="45.540017019957304" lon="3.613179959356785">
        <ele>1058.55</ele>
        <time>2025-04-24T15:02:11Z</time>
      </trkpt>
      <trkpt lat="45.539854997768998" lon="3.613135032355785">
        <ele>1058.0699999999999</ele>
        <time>2025-04-24T15:02:12Z</time>
      </trkpt>
      <trkpt lat="45.539701022207737" lon="3.613055991008878">
        <ele>1058.0699999999999</ele>
        <time>2025-04-24T15:02:13Z</time>
      </trkpt>
      <trkpt lat="45.539552997797728" lon="3.612949959933758">
        <ele>1058.0699999999999</ele>
        <time>2025-04-24T15:02:14Z</time>
      </trkpt>
      <trkpt lat="45.539406985044479" lon="3.612831020727754">
        <ele>1058.0699999999999</ele>
        <time>2025-04-24T15:02:15Z</time>
      </trkpt>
      <trkpt lat="45.539295002818108" lon="3.612657012417913">
        <ele>1058.0699999999999</ele>
        <time>2025-04-24T15:02:16Z</time>
      </trkpt>
      <trkpt lat="45.539205987006426" lon="3.612455008551478">
        <ele>1058.0699999999999</ele>
        <time>2025-04-24T15:02:17Z</time>
      </trkpt>
      <trkpt lat="45.53912702947855" lon="3.612227020785213">
        <ele>1057.5899999999999</ele>
        <time>2025-04-24T15:02:18Z</time>
      </trkpt>
      <trkpt lat="45.539047988131642" lon="3.612000038847327">
        <ele>1057.1099999999999</ele>
        <time>2025-04-24T15:02:19Z</time>
      </trkpt>
      <trkpt lat="45.538970036432147" lon="3.61177297309041">
        <ele>1056.1500000000001</ele>
        <time>2025-04-24T15:02:20Z</time>
      </trkpt>
      <trkpt lat="45.538271991536021" lon="3.609506003558636">
        <ele>1044.1300000000001</ele>
        <time>2025-04-24T15:02:29Z</time>
      </trkpt>
      <trkpt lat="45.537759019061923" lon="3.608138998970389">
        <ele>1035.96</ele>
        <time>2025-04-24T15:02:35Z</time>
      </trkpt>
      <trkpt lat="45.53764401935041" lon="3.607935989275575">
        <ele>1035</ele>
        <time>2025-04-24T15:02:36Z</time>
      </trkpt>
      <trkpt lat="45.537536982446909" lon="3.607813026756048">
        <ele>1034.04</ele>
        <time>2025-04-24T15:02:37Z</time>
      </trkpt>
      <trkpt lat="45.537401027977467" lon="3.607695009559393">
        <ele>1033.55</ele>
        <time>2025-04-24T15:02:38Z</time>
      </trkpt>
      <trkpt lat="45.53725803270936" lon="3.607586966827512">
        <ele>1032.5899999999999</ele>
        <time>2025-04-24T15:02:39Z</time>
      </trkpt>
      <trkpt lat="45.537103973329067" lon="3.607488982379437">
        <ele>1032.1099999999999</ele>
        <time>2025-04-24T15:02:40Z</time>
      </trkpt>
      <trkpt lat="45.536944968625903" lon="3.607427962124348">
        <ele>1031.1500000000001</ele>
        <time>2025-04-24T15:02:41Z</time>
      </trkpt>
      <trkpt lat="45.536778001114726" lon="3.607392003759742">
        <ele>1030.6700000000001</ele>
        <time>2025-04-24T15:02:42Z</time>
      </trkpt>
      <trkpt lat="45.536609021946788" lon="3.607379011809826">
        <ele>1030.1900000000001</ele>
        <time>2025-04-24T15:02:43Z</time>
      </trkpt>
      <trkpt lat="45.53463701158762" lon="3.607250014320016">
        <ele>1028.75</ele>
        <time>2025-04-24T15:02:54Z</time>
      </trkpt>
      <trkpt lat="45.534483036026359" lon="3.607185976579785">
        <ele>1028.75</ele>
        <time>2025-04-24T15:02:55Z</time>
      </trkpt>
      <trkpt lat="45.534331994131207" lon="3.607115987688303">
        <ele>1028.27</ele>
        <time>2025-04-24T15:02:56Z</time>
      </trkpt>
      <trkpt lat="45.534195033833385" lon="3.606994030997157">
        <ele>1028.27</ele>
        <time>2025-04-24T15:02:57Z</time>
      </trkpt>
      <trkpt lat="45.534056983888149" lon="3.606852041557431">
        <ele>1027.79</ele>
        <time>2025-04-24T15:02:58Z</time>
      </trkpt>
      <trkpt lat="45.533916000276804" lon="3.606707034632564">
        <ele>1027.3099999999999</ele>
        <time>2025-04-24T15:02:59Z</time>
      </trkpt>
      <trkpt lat="45.533773005008698" lon="3.606559010222554">
        <ele>1026.8299999999999</ele>
        <time>2025-04-24T15:03:00Z</time>
      </trkpt>
      <trkpt lat="45.532662989571691" lon="3.605709001421928">
        <ele>1016.73</ele>
        <time>2025-04-24T15:03:07Z</time>
      </trkpt>
      <trkpt lat="45.531002031639218" lon="3.604781962931156">
        <ele>1005.6799999999999</ele>
        <time>2025-04-24T15:03:17Z</time>
      </trkpt>
      <trkpt lat="45.5302569642663" lon="3.603844027966261">
        <ele>1003.75</ele>
        <time>2025-04-24T15:03:23Z</time>
      </trkpt>
      <trkpt lat="45.530154034495354" lon="3.603644035756588">
        <ele>1003.75</ele>
        <time>2025-04-24T15:03:24Z</time>
      </trkpt>
      <trkpt lat="45.529809035360813" lon="3.602752033621073">
        <ele>1002.79</ele>
        <time>2025-04-24T15:03:28Z</time>
      </trkpt>
      <trkpt lat="45.529756983742118" lon="3.602505018934608">
        <ele>1002.79</ele>
        <time>2025-04-24T15:03:29Z</time>
      </trkpt>
      <trkpt lat="45.529647013172507" lon="3.602000009268522">
        <ele>1002.3099999999999</ele>
        <time>2025-04-24T15:03:31Z</time>
      </trkpt>
      <trkpt lat="45.529590016230941" lon="3.601748971268535">
        <ele>1001.83</ele>
        <time>2025-04-24T15:03:32Z</time>
      </trkpt>
      <trkpt lat="45.529480967670679" lon="3.601273968815804">
        <ele>1001.35</ele>
        <time>2025-04-24T15:03:34Z</time>
      </trkpt>
      <trkpt lat="45.529358005151153" lon="3.600858980789781">
        <ele>1000.39</ele>
        <time>2025-04-24T15:03:36Z</time>
      </trkpt>
      <trkpt lat="45.52926697768271" lon="3.600700981914997">
        <ele>999.90999999999997</ele>
        <time>2025-04-24T15:03:37Z</time>
      </trkpt>
      <trkpt lat="45.529147032648325" lon="3.60049000941217">
        <ele>998.95000000000005</ele>
        <time>2025-04-24T15:03:38Z</time>
      </trkpt>
      <trkpt lat="45.529042007401586" lon="3.600388001650572">
        <ele>997.99000000000001</ele>
        <time>2025-04-24T15:03:39Z</time>
      </trkpt>
      <trkpt lat="45.528902029618621" lon="3.600251963362098">
        <ele>997.50999999999999</ele>
        <time>2025-04-24T15:03:40Z</time>
      </trkpt>
      <trkpt lat="45.528314039111137" lon="3.599685011431575">
        <ele>993.17999999999995</ele>
        <time>2025-04-24T15:03:44Z</time>
      </trkpt>
      <trkpt lat="45.528161991387606" lon="3.59959096647799">
        <ele>992.22000000000003</ele>
        <time>2025-04-24T15:03:45Z</time>
      </trkpt>
      <trkpt lat="45.528008015826344" lon="3.599563976749778">
        <ele>991.25999999999999</ele>
        <time>2025-04-24T15:03:46Z</time>
      </trkpt>
      <trkpt lat="45.527844987809658" lon="3.599556013941765">
        <ele>990.29999999999995</ele>
        <time>2025-04-24T15:03:47Z</time>
      </trkpt>
      <trkpt lat="45.527670979499817" lon="3.599584009498358">
        <ele>989.33000000000004</ele>
        <time>2025-04-24T15:03:48Z</time>
      </trkpt>
      <trkpt lat="45.527492025867105" lon="3.599614016711712">
        <ele>988.85000000000002</ele>
        <time>2025-04-24T15:03:49Z</time>
      </trkpt>
      <trkpt lat="45.527322040870786" lon="3.599642012268305">
        <ele>987.88999999999999</ele>
        <time>2025-04-24T15:03:50Z</time>
      </trkpt>
      <trkpt lat="45.527149038389325" lon="3.599604964256287">
        <ele>987.40999999999997</ele>
        <time>2025-04-24T15:03:51Z</time>
      </trkpt>
      <trkpt lat="45.526999002322555" lon="3.59950102865696">
        <ele>986.45000000000005</ele>
        <time>2025-04-24T15:03:52Z</time>
      </trkpt>
      <trkpt lat="45.526872016489506" lon="3.599373959004879">
        <ele>985.97000000000003</ele>
        <time>2025-04-24T15:03:53Z</time>
      </trkpt>
      <trkpt lat="45.526746958494186" lon="3.599183019250631">
        <ele>985.49000000000001</ele>
        <time>2025-04-24T15:03:54Z</time>
      </trkpt>
      <trkpt lat="45.526625001803041" lon="3.598995013162494">
        <ele>985.00999999999999</ele>
        <time>2025-04-24T15:03:55Z</time>
      </trkpt>
      <trkpt lat="45.525730988010764" lon="3.598053976893425">
        <ele>982.12</ele>
        <time>2025-04-24T15:04:01Z</time>
      </trkpt>
      <trkpt lat="45.525263026356697" lon="3.59767897054553">
        <ele>978.75999999999999</ele>
        <time>2025-04-24T15:04:04Z</time>
      </trkpt>
      <trkpt lat="45.525108966976404" lon="3.597648963332176">
        <ele>977.79999999999995</ele>
        <time>2025-04-24T15:04:05Z</time>
      </trkpt>
      <trkpt lat="45.524940993636847" lon="3.597615016624332">
        <ele>976.84000000000003</ele>
        <time>2025-04-24T15:04:06Z</time>
      </trkpt>
      <trkpt lat="45.524794980883598" lon="3.59765600413084">
        <ele>975.38999999999999</ele>
        <time>2025-04-24T15:04:07Z</time>
      </trkpt>
      <trkpt lat="45.524615021422505" lon="3.597706966102123">
        <ele>974.42999999999995</ele>
        <time>2025-04-24T15:04:08Z</time>
      </trkpt>
      <trkpt lat="45.52338195964694" lon="3.597943000495434">
        <ele>967.70000000000005</ele>
        <time>2025-04-24T15:04:14Z</time>
      </trkpt>
      <trkpt lat="45.522060971707106" lon="3.598452033475041">
        <ele>964.34000000000003</ele>
        <time>2025-04-24T15:04:21Z</time>
      </trkpt>
      <trkpt lat="45.521245999261737" lon="3.598712962120771">
        <ele>961.46000000000004</ele>
        <time>2025-04-24T15:04:26Z</time>
      </trkpt>
      <trkpt lat="45.521105015650392" lon="3.598660994321108">
        <ele>960.49000000000001</ele>
        <time>2025-04-24T15:04:27Z</time>
      </trkpt>
      <trkpt lat="45.520955985412002" lon="3.598565021529794">
        <ele>960.00999999999999</ele>
        <time>2025-04-24T15:04:28Z</time>
      </trkpt>
      <trkpt lat="45.519544975832105" lon="3.597130039706826">
        <ele>960.00999999999999</ele>
        <time>2025-04-24T15:04:37Z</time>
      </trkpt>
      <trkpt lat="45.519226966425776" lon="3.596773976460099">
        <ele>960.49000000000001</ele>
        <time>2025-04-24T15:04:39Z</time>
      </trkpt>
      <trkpt lat="45.519096963107586" lon="3.596557974815369">
        <ele>960.49000000000001</ele>
        <time>2025-04-24T15:04:40Z</time>
      </trkpt>
      <trkpt lat="45.518970983102918" lon="3.596337027847767">
        <ele>960.98000000000002</ele>
        <time>2025-04-24T15:04:41Z</time>
      </trkpt>
      <trkpt lat="45.518874004483223" lon="3.596096970140934">
        <ele>961.94000000000005</ele>
        <time>2025-04-24T15:04:42Z</time>
      </trkpt>
      <trkpt lat="45.518778031691909" lon="3.595858002081513">
        <ele>962.89999999999998</ele>
        <time>2025-04-24T15:04:43Z</time>
      </trkpt>
      <trkpt lat="45.518076969310641" lon="3.594280024990439">
        <ele>969.14999999999998</ele>
        <time>2025-04-24T15:04:50Z</time>
      </trkpt>
      <trkpt lat="45.517948977649212" lon="3.594071986153722">
        <ele>970.11000000000001</ele>
        <time>2025-04-24T15:04:51Z</time>
      </trkpt>
      <trkpt lat="45.517796007916331" lon="3.5938969720155">
        <ele>970.59000000000003</ele>
        <time>2025-04-24T15:04:52Z</time>
      </trkpt>
      <trkpt lat="45.517640020698309" lon="3.593733021989465">
        <ele>971.07000000000005</ele>
        <time>2025-04-24T15:04:53Z</time>
      </trkpt>
      <trkpt lat="45.517486967146397" lon="3.59357200562954">
        <ele>972.02999999999997</ele>
        <time>2025-04-24T15:04:54Z</time>
      </trkpt>
      <trkpt lat="45.516811972483993" lon="3.59273599460721">
        <ele>975.38999999999999</ele>
        <time>2025-04-24T15:04:59Z</time>
      </trkpt>
      <trkpt lat="45.516724968329072" lon="3.592529967427254">
        <ele>975.88</ele>
        <time>2025-04-24T15:05:00Z</time>
      </trkpt>
      <trkpt lat="45.516653973609209" lon="3.592316983267665">
        <ele>976.36000000000001</ele>
        <time>2025-04-24T15:05:01Z</time>
      </trkpt>
      <trkpt lat="45.516598988324404" lon="3.592099975794554">
        <ele>976.84000000000003</ele>
        <time>2025-04-24T15:05:02Z</time>
      </trkpt>
      <trkpt lat="45.516551965847611" lon="3.591887997463346">
        <ele>977.79999999999995</ele>
        <time>2025-04-24T15:05:03Z</time>
      </trkpt>
      <trkpt lat="45.516510978341103" lon="3.59168398194015">
        <ele>977.79999999999995</ele>
        <time>2025-04-24T15:05:04Z</time>
      </trkpt>
      <trkpt lat="45.516277039423585" lon="3.590342961251736">
        <ele>977.32000000000005</ele>
        <time>2025-04-24T15:05:12Z</time>
      </trkpt>
      <trkpt lat="45.516209984198213" lon="3.589523965492845">
        <ele>978.27999999999997</ele>
        <time>2025-04-24T15:05:17Z</time>
      </trkpt>
      <trkpt lat="45.516171008348465" lon="3.589375019073486">
        <ele>979.24000000000001</ele>
        <time>2025-04-24T15:05:18Z</time>
      </trkpt>
      <trkpt lat="45.51605299115181" lon="3.588912002742291">
        <ele>982.12</ele>
        <time>2025-04-24T15:05:21Z</time>
      </trkpt>
      <trkpt lat="45.516015021130443" lon="3.588747968897224">
        <ele>983.09000000000003</ele>
        <time>2025-04-24T15:05:22Z</time>
      </trkpt>
      <trkpt lat="45.516018960624933" lon="3.588596004992724">
        <ele>984.04999999999995</ele>
        <time>2025-04-24T15:05:23Z</time>
      </trkpt>
      <trkpt lat="45.516022983938456" lon="3.588467007502914">
        <ele>985.00999999999999</ele>
        <time>2025-04-24T15:05:24Z</time>
      </trkpt>
      <trkpt lat="45.516027007251978" lon="3.588356031104922">
        <ele>985.97000000000003</ele>
        <time>2025-04-24T15:05:25Z</time>
      </trkpt>
      <trkpt lat="45.516029018908739" lon="3.588267015293241">
        <ele>986.92999999999995</ele>
        <time>2025-04-24T15:05:26Z</time>
      </trkpt>
      <trkpt lat="45.5160310305655" lon="3.588195014744997">
        <ele>987.40999999999997</ele>
        <time>2025-04-24T15:05:27Z</time>
      </trkpt>
      <trkpt lat="45.51603396423161" lon="3.588126031681895">
        <ele>988.37</ele>
        <time>2025-04-24T15:05:28Z</time>
      </trkpt>
      <trkpt lat="45.516019966453314" lon="3.588041039183736">
        <ele>989.33000000000004</ele>
        <time>2025-04-24T15:05:29Z</time>
      </trkpt>
      <trkpt lat="45.515962969511747" lon="3.588028969243169">
        <ele>989.80999999999995</ele>
        <time>2025-04-24T15:05:30Z</time>
      </trkpt>
      <trkpt lat="45.515899015590549" lon="3.588013965636492">
        <ele>990.77999999999997</ele>
        <time>2025-04-24T15:05:31Z</time>
      </trkpt>
      <trkpt lat="45.515833972021937" lon="3.588003991171718">
        <ele>991.25999999999999</ele>
        <time>2025-04-24T15:05:32Z</time>
      </trkpt>
      <trkpt lat="45.515757026150823" lon="3.588027963414788">
        <ele>992.22000000000003</ele>
        <time>2025-04-24T15:05:33Z</time>
      </trkpt>
      <trkpt lat="45.515676978975534" lon="3.588053025305271">
        <ele>992.22000000000003</ele>
        <time>2025-04-24T15:05:34Z</time>
      </trkpt>
      <trkpt lat="45.515590980648994" lon="3.588079009205103">
        <ele>992.70000000000005</ele>
        <time>2025-04-24T15:05:35Z</time>
      </trkpt>
      <trkpt lat="45.515500036999583" lon="3.588107004761696">
        <ele>993.17999999999995</ele>
        <time>2025-04-24T15:05:36Z</time>
      </trkpt>
      <trkpt lat="45.51442296244204" lon="3.588340021669865">
        <ele>992.22000000000003</ele>
        <time>2025-04-24T15:05:47Z</time>
      </trkpt>
      <trkpt lat="45.51420503295958" lon="3.588382015004754">
        <ele>991.74000000000001</ele>
        <time>2025-04-24T15:05:49Z</time>
      </trkpt>
      <trkpt lat="45.514094978570938" lon="3.588402969762683">
        <ele>991.25999999999999</ele>
        <time>2025-04-24T15:05:50Z</time>
      </trkpt>
      <trkpt lat="45.512778013944626" lon="3.588598016649485">
        <ele>986.45000000000005</ele>
        <time>2025-04-24T15:06:01Z</time>
      </trkpt>
      <trkpt lat="45.511501030996442" lon="3.588430965319276">
        <ele>990.29999999999995</ele>
        <time>2025-04-24T15:06:09Z</time>
      </trkpt>
      <trkpt lat="45.51132601685822" lon="3.588462984189391">
        <ele>990.77999999999997</ele>
        <time>2025-04-24T15:06:10Z</time>
      </trkpt>
      <trkpt lat="45.511148991063237" lon="3.588525010272861">
        <ele>991.25999999999999</ele>
        <time>2025-04-24T15:06:11Z</time>
      </trkpt>
      <trkpt lat="45.510298982262611" lon="3.588895993307233">
        <ele>994.62</ele>
        <time>2025-04-24T15:06:16Z</time>
      </trkpt>
      <trkpt lat="45.510156992822886" lon="3.588923988863826">
        <ele>995.10000000000002</ele>
        <time>2025-04-24T15:06:17Z</time>
      </trkpt>
      <trkpt lat="45.50999597646296" lon="3.588848970830441">
        <ele>996.05999999999995</ele>
        <time>2025-04-24T15:06:18Z</time>
      </trkpt>
      <trkpt lat="45.509862033650279" lon="3.588786022737622">
        <ele>996.53999999999996</ele>
        <time>2025-04-24T15:06:19Z</time>
      </trkpt>
      <trkpt lat="45.509744016453624" lon="3.588664988055825">
        <ele>996.53999999999996</ele>
        <time>2025-04-24T15:06:20Z</time>
      </trkpt>
      <trkpt lat="45.509647959843278" lon="3.588490979745984">
        <ele>996.53999999999996</ele>
        <time>2025-04-24T15:06:21Z</time>
      </trkpt>
      <trkpt lat="45.509547041729093" lon="3.588296016678214">
        <ele>997.01999999999998</ele>
        <time>2025-04-24T15:06:22Z</time>
      </trkpt>
      <trkpt lat="45.509470012038946" lon="3.588069034740329">
        <ele>997.01999999999998</ele>
        <time>2025-04-24T15:06:23Z</time>
      </trkpt>
      <trkpt lat="45.509003978222609" lon="3.586689038202167">
        <ele>996.53999999999996</ele>
        <time>2025-04-24T15:06:29Z</time>
      </trkpt>
      <trkpt lat="45.508886966854334" lon="3.586531961336732">
        <ele>996.05999999999995</ele>
        <time>2025-04-24T15:06:30Z</time>
      </trkpt>
      <trkpt lat="45.50874900072813" lon="3.586402963846922">
        <ele>995.10000000000002</ele>
        <time>2025-04-24T15:06:31Z</time>
      </trkpt>
      <trkpt lat="45.508594019338489" lon="3.586296010762453">
        <ele>994.62</ele>
        <time>2025-04-24T15:06:32Z</time>
      </trkpt>
      <trkpt lat="45.508440965786576" lon="3.586188973858953">
        <ele>993.65999999999997</ele>
        <time>2025-04-24T15:06:33Z</time>
      </trkpt>
      <trkpt lat="45.508143994957209" lon="3.585894014686346">
        <ele>992.22000000000003</ele>
        <time>2025-04-24T15:06:35Z</time>
      </trkpt>
      <trkpt lat="45.508000999689102" lon="3.585727969184518">
        <ele>991.74000000000001</ele>
        <time>2025-04-24T15:06:36Z</time>
      </trkpt>
      <trkpt lat="45.507708974182606" lon="3.585423035547137">
        <ele>990.29999999999995</ele>
        <time>2025-04-24T15:06:38Z</time>
      </trkpt>
      <trkpt lat="45.507547035813332" lon="3.585296971723437">
        <ele>989.33000000000004</ele>
        <time>2025-04-24T15:06:39Z</time>
      </trkpt>
      <trkpt lat="45.507378978654742" lon="3.585175015032291">
        <ele>988.85000000000002</ele>
        <time>2025-04-24T15:06:40Z</time>
      </trkpt>
      <trkpt lat="45.506051033735275" lon="3.584489962086082">
        <ele>981.63999999999999</ele>
        <time>2025-04-24T15:06:47Z</time>
      </trkpt>
      <trkpt lat="45.505862021818757" lon="3.584466995671392">
        <ele>980.67999999999995</ele>
        <time>2025-04-24T15:06:48Z</time>
      </trkpt>
      <trkpt lat="45.504743037745357" lon="3.584402035921812">
        <ele>978.27999999999997</ele>
        <time>2025-04-24T15:06:54Z</time>
      </trkpt>
      <trkpt lat="45.50457900390029" lon="3.58444101177156">
        <ele>978.75999999999999</ele>
        <time>2025-04-24T15:06:55Z</time>
      </trkpt>
      <trkpt lat="45.5044299736619" lon="3.584503037855029">
        <ele>979.24000000000001</ele>
        <time>2025-04-24T15:06:56Z</time>
      </trkpt>
      <trkpt lat="45.504306005313993" lon="3.58463597483933">
        <ele>979.72000000000003</ele>
        <time>2025-04-24T15:06:57Z</time>
      </trkpt>
      <trkpt lat="45.504197040572762" lon="3.584805959835649">
        <ele>980.67999999999995</ele>
        <time>2025-04-24T15:06:58Z</time>
      </trkpt>
      <trkpt lat="45.504114981740713" lon="3.585006035864353">
        <ele>981.63999999999999</ele>
        <time>2025-04-24T15:06:59Z</time>
      </trkpt>
      <trkpt lat="45.504035018384457" lon="3.585233017802239">
        <ele>982.12</ele>
        <time>2025-04-24T15:07:00Z</time>
      </trkpt>
      <trkpt lat="45.503984978422523" lon="3.585476009175181">
        <ele>983.09000000000003</ele>
        <time>2025-04-24T15:07:01Z</time>
      </trkpt>
      <trkpt lat="45.503960000351071" lon="3.585736015811563">
        <ele>984.04999999999995</ele>
        <time>2025-04-24T15:07:02Z</time>
      </trkpt>
      <trkpt lat="45.503975003957748" lon="3.586014965549111">
        <ele>985.49000000000001</ele>
        <time>2025-04-24T15:07:03Z</time>
      </trkpt>
      <trkpt lat="45.503990007564425" lon="3.586301039904356">
        <ele>985.97000000000003</ele>
        <time>2025-04-24T15:07:04Z</time>
      </trkpt>
      <trkpt lat="45.504040969535708" lon="3.587700985372067">
        <ele>991.74000000000001</ele>
        <time>2025-04-24T15:07:09Z</time>
      </trkpt>
      <trkpt lat="45.50402001477778" lon="3.587942970916629">
        <ele>993.17999999999995</ele>
        <time>2025-04-24T15:07:10Z</time>
      </trkpt>
      <trkpt lat="45.503998976200819" lon="3.588191997259855">
        <ele>994.13999999999999</ele>
        <time>2025-04-24T15:07:11Z</time>
      </trkpt>
      <trkpt lat="45.503915995359421" lon="3.588405987247825">
        <ele>995.10000000000002</ele>
        <time>2025-04-24T15:07:12Z</time>
      </trkpt>
      <trkpt lat="45.503833014518023" lon="3.588602039963007">
        <ele>996.05999999999995</ele>
        <time>2025-04-24T15:07:13Z</time>
      </trkpt>
      <trkpt lat="45.503722038120031" lon="3.588754003867507">
        <ele>996.53999999999996</ele>
        <time>2025-04-24T15:07:14Z</time>
      </trkpt>
      <trkpt lat="45.503604020923376" lon="3.588852994143963">
        <ele>997.01999999999998</ele>
        <time>2025-04-24T15:07:15Z</time>
      </trkpt>
      <trkpt lat="45.503457002341747" lon="3.588927006348968">
        <ele>997.50999999999999</ele>
        <time>2025-04-24T15:07:16Z</time>
      </trkpt>
      <trkpt lat="45.503299003466964" lon="3.589005963876844">
        <ele>998.47000000000003</ele>
        <time>2025-04-24T15:07:17Z</time>
      </trkpt>
      <trkpt lat="45.503134969621897" lon="3.588980985805392">
        <ele>999.42999999999995</ele>
        <time>2025-04-24T15:07:18Z</time>
      </trkpt>
      <trkpt lat="45.502956015989184" lon="3.588947039097548">
        <ele>1000.39</ele>
        <time>2025-04-24T15:07:19Z</time>
      </trkpt>
      <trkpt lat="45.502784019336104" lon="3.588889958336949">
        <ele>1000.87</ele>
        <time>2025-04-24T15:07:20Z</time>
      </trkpt>
      <trkpt lat="45.502612022683024" lon="3.588785016909242">
        <ele>1001.35</ele>
        <time>2025-04-24T15:07:21Z</time>
      </trkpt>
      <trkpt lat="45.502438014373183" lon="3.588676974177361">
        <ele>1002.3099999999999</ele>
        <time>2025-04-24T15:07:22Z</time>
      </trkpt>
      <trkpt lat="45.502264006063342" lon="3.588563986122608">
        <ele>1002.79</ele>
        <time>2025-04-24T15:07:23Z</time>
      </trkpt>
      <trkpt lat="45.501797972247005" lon="3.588047996163368">
        <ele>1006.16</ele>
        <time>2025-04-24T15:07:26Z</time>
      </trkpt>
      <trkpt lat="45.501665035262704" lon="3.587853033095598">
        <ele>1007.12</ele>
        <time>2025-04-24T15:07:27Z</time>
      </trkpt>
      <trkpt lat="45.501569984480739" lon="3.587611969560385">
        <ele>1008.08</ele>
        <time>2025-04-24T15:07:28Z</time>
      </trkpt>
      <trkpt lat="45.501390025019646" lon="3.587136967107654">
        <ele>1010</ele>
        <time>2025-04-24T15:07:30Z</time>
      </trkpt>
      <trkpt lat="45.501331016421318" lon="3.586884001269937">
        <ele>1010.96</ele>
        <time>2025-04-24T15:07:31Z</time>
      </trkpt>
      <trkpt lat="45.501275025308132" lon="3.586644027382135">
        <ele>1011.9299999999999</ele>
        <time>2025-04-24T15:07:32Z</time>
      </trkpt>
      <trkpt lat="45.501188021153212" lon="3.586441017687321">
        <ele>1012.89</ele>
        <time>2025-04-24T15:07:33Z</time>
      </trkpt>
      <trkpt lat="45.50107897259295" lon="3.586266003549099">
        <ele>1013.85</ele>
        <time>2025-04-24T15:07:34Z</time>
      </trkpt>
      <trkpt lat="45.50095098093152" lon="3.586120996624231">
        <ele>1014.8099999999999</ele>
        <time>2025-04-24T15:07:35Z</time>
      </trkpt>
      <trkpt lat="45.500801028683782" lon="3.585984958335757">
        <ele>1016.25</ele>
        <time>2025-04-24T15:07:36Z</time>
      </trkpt>
      <trkpt lat="45.500642023980618" lon="3.585897032171488">
        <ele>1017.6900000000001</ele>
        <time>2025-04-24T15:07:37Z</time>
      </trkpt>
      <trkpt lat="45.500467009842396" lon="3.585798963904381">
        <ele>1019.13</ele>
        <time>2025-04-24T15:07:38Z</time>
      </trkpt>
      <trkpt lat="45.499603003263474" lon="3.585285991430283">
        <ele>1024.4200000000001</ele>
        <time>2025-04-24T15:07:43Z</time>
      </trkpt>
      <trkpt lat="45.499478029087186" lon="3.5851089656353">
        <ele>1025.3800000000001</ele>
        <time>2025-04-24T15:07:44Z</time>
      </trkpt>
      <trkpt lat="45.499349031597376" lon="3.584926994517446">
        <ele>1026.3399999999999</ele>
        <time>2025-04-24T15:07:45Z</time>
      </trkpt>
      <trkpt lat="45.499219028279185" lon="3.584745023399591">
        <ele>1027.79</ele>
        <time>2025-04-24T15:07:46Z</time>
      </trkpt>
      <trkpt lat="45.499067986384034" lon="3.584595993161202">
        <ele>1028.75</ele>
        <time>2025-04-24T15:07:47Z</time>
      </trkpt>
      <trkpt lat="45.498906970024109" lon="3.584471018984914">
        <ele>1029.71</ele>
        <time>2025-04-24T15:07:48Z</time>
      </trkpt>
      <trkpt lat="45.498740002512932" lon="3.584362976253033">
        <ele>1030.6700000000001</ele>
        <time>2025-04-24T15:07:49Z</time>
      </trkpt>
      <trkpt lat="45.498565994203091" lon="3.58431302011013">
        <ele>1031.6300000000001</ele>
        <time>2025-04-24T15:07:50Z</time>
      </trkpt>
      <trkpt lat="45.49839198589325" lon="3.584296004846692">
        <ele>1032.5899999999999</ele>
        <time>2025-04-24T15:07:51Z</time>
      </trkpt>
      <trkpt lat="45.498216971755028" lon="3.584306985139847">
        <ele>1033.55</ele>
        <time>2025-04-24T15:07:52Z</time>
      </trkpt>
      <trkpt lat="45.498044975101948" lon="3.584374040365219">
        <ele>1034.52</ele>
        <time>2025-04-24T15:07:53Z</time>
      </trkpt>
      <trkpt lat="45.497869960963726" lon="3.584469007328153">
        <ele>1035</ele>
        <time>2025-04-24T15:07:54Z</time>
      </trkpt>
      <trkpt lat="45.497690001502633" lon="3.584565985947847">
        <ele>1035.48</ele>
        <time>2025-04-24T15:07:55Z</time>
      </trkpt>
      <trkpt lat="45.496430033817887" lon="3.585146013647318">
        <ele>1041.73</ele>
        <time>2025-04-24T15:08:02Z</time>
      </trkpt>
      <trkpt lat="45.496316039934754" lon="3.585191024467349">
        <ele>1042.6900000000001</ele>
        <time>2025-04-24T15:08:03Z</time>
      </trkpt>
      <trkpt lat="45.49615896306932" lon="3.585348017513752">
        <ele>1043.1700000000001</ele>
        <time>2025-04-24T15:08:04Z</time>
      </trkpt>
      <trkpt lat="45.496047986671329" lon="3.585480032488704">
        <ele>1044.1300000000001</ele>
        <time>2025-04-24T15:08:05Z</time>
      </trkpt>
      <trkpt lat="45.495932986959815" lon="3.585670972242951">
        <ele>1044.6099999999999</ele>
        <time>2025-04-24T15:08:06Z</time>
      </trkpt>
      <trkpt lat="45.495812958106399" lon="3.585869036614895">
        <ele>1045.5699999999999</ele>
        <time>2025-04-24T15:08:07Z</time>
      </trkpt>
      <trkpt lat="45.495055988430977" lon="3.587097991257906">
        <ele>1048.45</ele>
        <time>2025-04-24T15:08:13Z</time>
      </trkpt>
      <trkpt lat="45.494809979572892" lon="3.587490012869239">
        <ele>1048.9400000000001</ele>
        <time>2025-04-24T15:08:15Z</time>
      </trkpt>
      <trkpt lat="45.494687017053366" lon="3.587648011744022">
        <ele>1048.9400000000001</ele>
        <time>2025-04-24T15:08:16Z</time>
      </trkpt>
      <trkpt lat="45.494565982371569" lon="3.587785977870226">
        <ele>1048.9400000000001</ele>
        <time>2025-04-24T15:08:17Z</time>
      </trkpt>
      <trkpt lat="45.494443019852042" lon="3.587926039472222">
        <ele>1048.9400000000001</ele>
        <time>2025-04-24T15:08:18Z</time>
      </trkpt>
      <trkpt lat="45.494320979341865" lon="3.588066017255187">
        <ele>1048.45</ele>
        <time>2025-04-24T15:08:19Z</time>
      </trkpt>
      <trkpt lat="45.4941810015589" lon="3.588197026401758">
        <ele>1048.45</ele>
        <time>2025-04-24T15:08:20Z</time>
      </trkpt>
      <trkpt lat="45.494040017947555" lon="3.588328035548329">
        <ele>1047.49</ele>
        <time>2025-04-24T15:08:21Z</time>
      </trkpt>
      <trkpt lat="45.493882019072771" lon="3.588406993076205">
        <ele>1047.01</ele>
        <time>2025-04-24T15:08:22Z</time>
      </trkpt>
      <trkpt lat="45.493707004934549" lon="3.588466001674533">
        <ele>1046.53</ele>
        <time>2025-04-24T15:08:23Z</time>
      </trkpt>
      <trkpt lat="45.493527967482805" lon="3.588527021929622">
        <ele>1046.05</ele>
        <time>2025-04-24T15:08:24Z</time>
      </trkpt>
      <trkpt lat="45.493339961394668" lon="3.588590975850821">
        <ele>1045.5699999999999</ele>
        <time>2025-04-24T15:08:25Z</time>
      </trkpt>
      <trkpt lat="45.493150027468801" lon="3.588656019419432">
        <ele>1045.0899999999999</ele>
        <time>2025-04-24T15:08:26Z</time>
      </trkpt>
      <trkpt lat="45.491887964308262" lon="3.589028008282185">
        <ele>1042.6900000000001</ele>
        <time>2025-04-24T15:08:33Z</time>
      </trkpt>
      <trkpt lat="45.491527039557695" lon="3.589064972475171">
        <ele>1042.21</ele>
        <time>2025-04-24T15:08:35Z</time>
      </trkpt>
      <trkpt lat="45.491356970742345" lon="3.589047035202384">
        <ele>1041.73</ele>
        <time>2025-04-24T15:08:36Z</time>
      </trkpt>
      <trkpt lat="45.491201989352703" lon="3.589028008282185">
        <ele>1041.25</ele>
        <time>2025-04-24T15:08:37Z</time>
      </trkpt>
      <trkpt lat="45.491081038489938" lon="3.588966988027096">
        <ele>1041.25</ele>
        <time>2025-04-24T15:08:38Z</time>
      </trkpt>
      <trkpt lat="45.490937037393451" lon="3.588800020515919">
        <ele>1040.76</ele>
        <time>2025-04-24T15:08:39Z</time>
      </trkpt>
      <trkpt lat="45.490805022418499" lon="3.588646966964006">
        <ele>1040.28</ele>
        <time>2025-04-24T15:08:40Z</time>
      </trkpt>
      <trkpt lat="45.490667978301644" lon="3.588487962260842">
        <ele>1039.8</ele>
        <time>2025-04-24T15:08:41Z</time>
      </trkpt>
      <trkpt lat="45.489929029718041" lon="3.587626973167062">
        <ele>1038.3599999999999</ele>
        <time>2025-04-24T15:08:46Z</time>
      </trkpt>
      <trkpt lat="45.489778993651271" lon="3.587452964857221">
        <ele>1037.8800000000001</ele>
        <time>2025-04-24T15:08:47Z</time>
      </trkpt>
      <trkpt lat="45.488231023773551" lon="3.585937013849616">
        <ele>1032.1099999999999</ele>
        <time>2025-04-24T15:08:56Z</time>
      </trkpt>
      <trkpt lat="45.487492997199297" lon="3.585470980033279">
        <ele>1031.6300000000001</ele>
        <time>2025-04-24T15:09:00Z</time>
      </trkpt>
      <trkpt lat="45.487328041344881" lon="3.585337959229946">
        <ele>1031.1500000000001</ele>
        <time>2025-04-24T15:09:01Z</time>
      </trkpt>
      <trkpt lat="45.487174987792969" lon="3.58517300337553">
        <ele>1031.1500000000001</ele>
        <time>2025-04-24T15:09:02Z</time>
      </trkpt>
      <trkpt lat="45.487046996131539" lon="3.584975022822619">
        <ele>1030.6700000000001</ele>
        <time>2025-04-24T15:09:03Z</time>
      </trkpt>
      <trkpt lat="45.486925961449742" lon="3.584761032834649">
        <ele>1030.1900000000001</ele>
        <time>2025-04-24T15:09:04Z</time>
      </trkpt>
      <trkpt lat="45.486813979223371" lon="3.584517035633326">
        <ele>1029.71</ele>
        <time>2025-04-24T15:09:05Z</time>
      </trkpt>
      <trkpt lat="45.486723035573959" lon="3.584254011511803">
        <ele>1029.23</ele>
        <time>2025-04-24T15:09:06Z</time>
      </trkpt>
      <trkpt lat="45.486568976193666" lon="3.583704996854067">
        <ele>1028.75</ele>
        <time>2025-04-24T15:09:08Z</time>
      </trkpt>
      <trkpt lat="45.486502004787326" lon="3.58340903185308">
        <ele>1028.27</ele>
        <time>2025-04-24T15:09:09Z</time>
      </trkpt>
      <trkpt lat="45.486436961218715" lon="3.583123963326216">
        <ele>1027.79</ele>
        <time>2025-04-24T15:09:10Z</time>
      </trkpt>
      <trkpt lat="45.486376024782658" lon="3.582858005538583">
        <ele>1027.79</ele>
        <time>2025-04-24T15:09:11Z</time>
      </trkpt>
      <trkpt lat="45.48629698343575" lon="3.582633035257459">
        <ele>1027.3099999999999</ele>
        <time>2025-04-24T15:09:12Z</time>
      </trkpt>
      <trkpt lat="45.486208973452449" lon="3.582421978935599">
        <ele>1026.8299999999999</ele>
        <time>2025-04-24T15:09:13Z</time>
      </trkpt>
      <trkpt lat="45.486076958477497" lon="3.58222802169621">
        <ele>1026.3399999999999</ele>
        <time>2025-04-24T15:09:14Z</time>
      </trkpt>
      <trkpt lat="45.485931029543281" lon="3.582015037536621">
        <ele>1026.3399999999999</ele>
        <time>2025-04-24T15:09:15Z</time>
      </trkpt>
      <trkpt lat="45.485789040103555" lon="3.581882016733289">
        <ele>1025.8599999999999</ele>
        <time>2025-04-24T15:09:16Z</time>
      </trkpt>
      <trkpt lat="45.485616037622094" lon="3.581718988716602">
        <ele>1025.3800000000001</ele>
        <time>2025-04-24T15:09:17Z</time>
      </trkpt>
      <trkpt lat="45.485431971028447" lon="3.581572975963354">
        <ele>1024.9000000000001</ele>
        <time>2025-04-24T15:09:18Z</time>
      </trkpt>
      <trkpt lat="45.483919959515333" lon="3.580443011596799">
        <ele>1022.02</ele>
        <time>2025-04-24T15:09:26Z</time>
      </trkpt>
      <trkpt lat="45.482732998207211" lon="3.579374989494681">
        <ele>1026.8299999999999</ele>
        <time>2025-04-24T15:09:33Z</time>
      </trkpt>
      <trkpt lat="45.48176203854382" lon="3.578028017655015">
        <ele>1036.9200000000001</ele>
        <time>2025-04-24T15:09:40Z</time>
      </trkpt>
      <trkpt lat="45.480592008680105" lon="3.57614804059267">
        <ele>1046.05</ele>
        <time>2025-04-24T15:09:48Z</time>
      </trkpt>
      <trkpt lat="45.479548964649439" lon="3.574446011334658">
        <ele>1053.26</ele>
        <time>2025-04-24T15:09:55Z</time>
      </trkpt>
      <trkpt lat="45.478686969727278" lon="3.572930982336402">
        <ele>1059.03</ele>
        <time>2025-04-24T15:10:01Z</time>
      </trkpt>
      <trkpt lat="45.478526959195733" lon="3.572721015661955">
        <ele>1059.99</ele>
        <time>2025-04-24T15:10:02Z</time>
      </trkpt>
      <trkpt lat="45.477257017046213" lon="3.570825029164553">
        <ele>1068.6400000000001</ele>
        <time>2025-04-24T15:10:11Z</time>
      </trkpt>
      <trkpt lat="45.476514967158437" lon="3.569019986316562">
        <ele>1072.97</ele>
        <time>2025-04-24T15:10:18Z</time>
      </trkpt>
      <trkpt lat="45.476182959973812" lon="3.567241011187434">
        <ele>1076.8099999999999</ele>
        <time>2025-04-24T15:10:24Z</time>
      </trkpt>
      <trkpt lat="45.475913984701037" lon="3.56514897197485">
        <ele>1081.1400000000001</ele>
        <time>2025-04-24T15:10:31Z</time>
      </trkpt>
      <trkpt lat="45.47585497610271" lon="3.564873961731792">
        <ele>1081.6199999999999</ele>
        <time>2025-04-24T15:10:32Z</time>
      </trkpt>
      <trkpt lat="45.475760009139776" lon="3.564641028642654">
        <ele>1082.0999999999999</ele>
        <time>2025-04-24T15:10:33Z</time>
      </trkpt>
      <trkpt lat="45.475447028875351" lon="3.564016995951533">
        <ele>1083.54</ele>
        <time>2025-04-24T15:10:36Z</time>
      </trkpt>
      <trkpt lat="45.475299004465342" lon="3.563850028440356">
        <ele>1084.02</ele>
        <time>2025-04-24T15:10:37Z</time>
      </trkpt>
      <trkpt lat="45.475146034732461" lon="3.563678031787276">
        <ele>1084.02</ele>
        <time>2025-04-24T15:10:38Z</time>
      </trkpt>
      <trkpt lat="45.474984012544155" lon="3.56355800293386">
        <ele>1084.5</ele>
        <time>2025-04-24T15:10:39Z</time>
      </trkpt>
      <trkpt lat="45.474814027547836" lon="3.563435040414333">
        <ele>1084.99</ele>
        <time>2025-04-24T15:10:40Z</time>
      </trkpt>
      <trkpt lat="45.474637001752853" lon="3.563355999067426">
        <ele>1084.99</ele>
        <time>2025-04-24T15:10:41Z</time>
      </trkpt>
      <trkpt lat="45.4744360037148" lon="3.563295984640718">
        <ele>1084.99</ele>
        <time>2025-04-24T15:10:42Z</time>
      </trkpt>
      <trkpt lat="45.474232994019985" lon="3.563235970214009">
        <ele>1084.5</ele>
        <time>2025-04-24T15:10:43Z</time>
      </trkpt>
      <trkpt lat="45.474023027345538" lon="3.563198000192642">
        <ele>1084.02</ele>
        <time>2025-04-24T15:10:44Z</time>
      </trkpt>
      <trkpt lat="45.472991969436407" lon="3.562979986891151">
        <ele>1081.1400000000001</ele>
        <time>2025-04-24T15:10:49Z</time>
      </trkpt>
      <trkpt lat="45.472591985017061" lon="3.562783012166619">
        <ele>1079.22</ele>
        <time>2025-04-24T15:10:51Z</time>
      </trkpt>
      <trkpt lat="45.472394004464149" lon="3.562629036605358">
        <ele>1078.26</ele>
        <time>2025-04-24T15:10:52Z</time>
      </trkpt>
      <trkpt lat="45.472199041396379" lon="3.562470031902194">
        <ele>1077.29</ele>
        <time>2025-04-24T15:10:53Z</time>
      </trkpt>
      <trkpt lat="45.472002988681197" lon="3.562281019985676">
        <ele>1076.3299999999999</ele>
        <time>2025-04-24T15:10:54Z</time>
      </trkpt>
      <trkpt lat="45.471799978986382" lon="3.562085973098874">
        <ele>1075.3699999999999</ele>
        <time>2025-04-24T15:10:55Z</time>
      </trkpt>
      <trkpt lat="45.470458036288619" lon="3.560454016551375">
        <ele>1066.72</ele>
        <time>2025-04-24T15:11:03Z</time>
      </trkpt>
      <trkpt lat="45.470325015485287" lon="3.560225022956729">
        <ele>1065.76</ele>
        <time>2025-04-24T15:11:04Z</time>
      </trkpt>
      <trkpt lat="45.470190988853574" lon="3.559986976906657">
        <ele>1065.28</ele>
        <time>2025-04-24T15:11:05Z</time>
      </trkpt>
      <trkpt lat="45.470060985535383" lon="3.55975597165525">
        <ele>1064.3199999999999</ele>
        <time>2025-04-24T15:11:06Z</time>
      </trkpt>
      <trkpt lat="45.468849968165159" lon="3.557597966864705">
        <ele>1059.51</ele>
        <time>2025-04-24T15:11:15Z</time>
      </trkpt>
      <trkpt lat="45.467864004895091" lon="3.555411966517568">
        <ele>1055.6700000000001</ele>
        <time>2025-04-24T15:11:23Z</time>
      </trkpt>
      <trkpt lat="45.467085996642709" lon="3.553752014413476">
        <ele>1051.3399999999999</ele>
        <time>2025-04-24T15:11:29Z</time>
      </trkpt>
      <trkpt lat="45.466145966202021" lon="3.551910007372499">
        <ele>1041.25</ele>
        <time>2025-04-24T15:11:36Z</time>
      </trkpt>
      <trkpt lat="45.465909009799361" lon="3.551454031839967">
        <ele>1038.3599999999999</ele>
        <time>2025-04-24T15:11:38Z</time>
      </trkpt>
      <trkpt lat="45.465779006481171" lon="3.551288992166519">
        <ele>1036.4400000000001</ele>
        <time>2025-04-24T15:11:39Z</time>
      </trkpt>
      <trkpt lat="45.465611033141613" lon="3.55109503492713">
        <ele>1035</ele>
        <time>2025-04-24T15:11:40Z</time>
      </trkpt>
      <trkpt lat="45.465464014559984" lon="3.550996966660023">
        <ele>1033.55</ele>
        <time>2025-04-24T15:11:41Z</time>
      </trkpt>
      <trkpt lat="45.465276008471847" lon="3.550881966948509">
        <ele>1031.1500000000001</ele>
        <time>2025-04-24T15:11:42Z</time>
      </trkpt>
      <trkpt lat="45.465072998777032" lon="3.550773002207279">
        <ele>1029.23</ele>
        <time>2025-04-24T15:11:43Z</time>
      </trkpt>
      <trkpt lat="45.46367296949029" lon="3.549854010343552">
        <ele>1021.54</ele>
        <time>2025-04-24T15:11:50Z</time>
      </trkpt>
      <trkpt lat="45.462497994303703" lon="3.548822030425072">
        <ele>1020.1</ele>
        <time>2025-04-24T15:11:57Z</time>
      </trkpt>
      <trkpt lat="45.462366985157132" lon="3.548636035993695">
        <ele>1019.62</ele>
        <time>2025-04-24T15:11:58Z</time>
      </trkpt>
      <trkpt lat="45.462248967960477" lon="3.548434032127261">
        <ele>1018.65</ele>
        <time>2025-04-24T15:11:59Z</time>
      </trkpt>
      <trkpt lat="45.462156012654305" lon="3.548213001340628">
        <ele>1018.17</ele>
        <time>2025-04-24T15:12:00Z</time>
      </trkpt>
      <trkpt lat="45.462084012106061" lon="3.54796196334064">
        <ele>1017.21</ele>
        <time>2025-04-24T15:12:01Z</time>
      </trkpt>
      <trkpt lat="45.462031960487366" lon="3.54770002886653">
        <ele>1016.73</ele>
        <time>2025-04-24T15:12:02Z</time>
      </trkpt>
      <trkpt lat="45.461978986859322" lon="3.547428958117962">
        <ele>1016.73</ele>
        <time>2025-04-24T15:12:03Z</time>
      </trkpt>
      <trkpt lat="45.461860969662666" lon="3.54692897759378">
        <ele>1017.21</ele>
        <time>2025-04-24T15:12:05Z</time>
      </trkpt>
      <trkpt lat="45.461770026013255" lon="3.546712975949049">
        <ele>1017.6900000000001</ele>
        <time>2025-04-24T15:12:06Z</time>
      </trkpt>
      <trkpt lat="45.461678998544812" lon="3.546497980132699">
        <ele>1018.65</ele>
        <time>2025-04-24T15:12:07Z</time>
      </trkpt>
      <trkpt lat="45.461141970008612" lon="3.545418977737427">
        <ele>1023.46</ele>
        <time>2025-04-24T15:12:14Z</time>
      </trkpt>
      <trkpt lat="45.461040968075395" lon="3.545217979699373">
        <ele>1024.4200000000001</ele>
        <time>2025-04-24T15:12:16Z</time>
      </trkpt>
      <trkpt lat="45.460946001112461" lon="3.545027039945126">
        <ele>1025.3800000000001</ele>
        <time>2025-04-24T15:12:19Z</time>
      </trkpt>
      <trkpt lat="45.460919011384249" lon="3.544972976669669">
        <ele>1025.8599999999999</ele>
        <time>2025-04-24T15:12:20Z</time>
      </trkpt>
      <trkpt lat="45.460910964757204" lon="3.544957973062992">
        <ele>1026.3399999999999</ele>
        <time>2025-04-24T15:12:21Z</time>
      </trkpt>
      <trkpt lat="45.46087802387774" lon="3.544907011091709">
        <ele>1026.3399999999999</ele>
        <time>2025-04-24T15:12:22Z</time>
      </trkpt>
      <trkpt lat="45.460850028321147" lon="3.54486501775682">
        <ele>1026.8299999999999</ele>
        <time>2025-04-24T15:12:23Z</time>
      </trkpt>
      <trkpt lat="45.460826978087425" lon="3.544830987229943">
        <ele>1026.8299999999999</ele>
        <time>2025-04-24T15:12:24Z</time>
      </trkpt>
      <trkpt lat="45.460811974480748" lon="3.544809026643634">
        <ele>1026.8299999999999</ele>
        <time>2025-04-24T15:12:25Z</time>
      </trkpt>
      <trkpt lat="45.460806023329496" lon="3.544799974188209">
        <ele>1026.8299999999999</ele>
        <time>2025-04-24T15:12:26Z</time>
      </trkpt>
      <trkpt lat="45.460806023329496" lon="3.544799974188209">
        <ele>1026.8299999999999</ele>
        <time>2025-04-24T15:14:43Z</time>
      </trkpt>
      <trkpt lat="45.460806023329496" lon="3.544799974188209">
        <ele>1026.8299999999999</ele>
        <time>2025-04-24T15:15:34Z</time>
      </trkpt>
      <trkpt lat="45.460806023329496" lon="3.544799974188209">
        <ele>1026.8299999999999</ele>
        <time>2025-04-24T15:16:37Z</time>
      </trkpt>
      <trkpt lat="45.460806023329496" lon="3.544799974188209">
        <ele>1026.8299999999999</ele>
        <time>2025-04-24T15:17:26Z</time>
      </trkpt>
      <trkpt lat="45.460806023329496" lon="3.544799974188209">
        <ele>1026.8299999999999</ele>
        <time>2025-04-24T15:17:28Z</time>
      </trkpt>
      <trkpt lat="45.460818009451032" lon="3.544817995280027">
        <ele>1026.3399999999999</ele>
        <time>2025-04-24T15:17:29Z</time>
      </trkpt>
      <trkpt lat="45.460837036371231" lon="3.544846996665001">
        <ele>1026.3399999999999</ele>
        <time>2025-04-24T15:17:30Z</time>
      </trkpt>
      <trkpt lat="45.460865031927824" lon="3.54488898999989">
        <ele>1026.3399999999999</ele>
        <time>2025-04-24T15:17:31Z</time>
      </trkpt>
      <trkpt lat="45.460895961150527" lon="3.544935006648302">
        <ele>1025.8599999999999</ele>
        <time>2025-04-24T15:17:32Z</time>
      </trkpt>
      <trkpt lat="45.46096402220428" lon="3.544913968071342">
        <ele>1026.3399999999999</ele>
        <time>2025-04-24T15:17:33Z</time>
      </trkpt>
      <trkpt lat="45.461039962247014" lon="3.544850014150143">
        <ele>1026.3399999999999</ele>
        <time>2025-04-24T15:17:34Z</time>
      </trkpt>
      <trkpt lat="45.461143981665373" lon="3.544838028028607">
        <ele>1026.3399999999999</ele>
        <time>2025-04-24T15:17:36Z</time>
      </trkpt>
      <trkpt lat="45.461594006046653" lon="3.544773990288377">
        <ele>1025.8599999999999</ele>
        <time>2025-04-24T15:17:42Z</time>
      </trkpt>
      <trkpt lat="45.461666006594896" lon="3.544722022488713">
        <ele>1026.3399999999999</ele>
        <time>2025-04-24T15:17:43Z</time>
      </trkpt>
      <trkpt lat="45.461740018799901" lon="3.544669970870018">
        <ele>1026.3399999999999</ele>
        <time>2025-04-24T15:17:44Z</time>
      </trkpt>
      <trkpt lat="45.461979992687702" lon="3.544552959501743">
        <ele>1027.3099999999999</ele>
        <time>2025-04-24T15:17:47Z</time>
      </trkpt>
      <trkpt lat="45.462895967066288" lon="3.544579027220607">
        <ele>1029.71</ele>
        <time>2025-04-24T15:17:56Z</time>
      </trkpt>
      <trkpt lat="45.463044997304678" lon="3.544620014727116">
        <ele>1030.6700000000001</ele>
        <time>2025-04-24T15:17:58Z</time>
      </trkpt>
      <trkpt lat="45.463104005903006" lon="3.544633006677032">
        <ele>1030.6700000000001</ele>
        <time>2025-04-24T15:17:59Z</time>
      </trkpt>
      <trkpt lat="45.463159997016191" lon="3.544599981978536">
        <ele>1031.1500000000001</ele>
        <time>2025-04-24T15:18:00Z</time>
      </trkpt>
      <trkpt lat="45.46341204084456" lon="3.544448018074036">
        <ele>1032.5899999999999</ele>
        <time>2025-04-24T15:18:04Z</time>
      </trkpt>
      <trkpt lat="45.463475994765759" lon="3.544452963396907">
        <ele>1033.0699999999999</ele>
        <time>2025-04-24T15:18:05Z</time>
      </trkpt>
      <trkpt lat="45.463541960343719" lon="3.544477019459009">
        <ele>1034.04</ele>
        <time>2025-04-24T15:18:06Z</time>
      </trkpt>
      <trkpt lat="45.463612033054233" lon="3.544547008350492">
        <ele>1034.52</ele>
        <time>2025-04-24T15:18:07Z</time>
      </trkpt>
      <trkpt lat="45.463696019724011" lon="3.54463099502027">
        <ele>1035.48</ele>
        <time>2025-04-24T15:18:08Z</time>
      </trkpt>
      <trkpt lat="45.46466002240777" lon="3.545540012419224">
        <ele>1045.0899999999999</ele>
        <time>2025-04-24T15:18:17Z</time>
      </trkpt>
      <trkpt lat="45.464941989630461" lon="3.545770011842251">
        <ele>1047.97</ele>
        <time>2025-04-24T15:18:20Z</time>
      </trkpt>
      <trkpt lat="45.465137958526611" lon="3.545816028490663">
        <ele>1048.45</ele>
        <time>2025-04-24T15:18:22Z</time>
      </trkpt>
      <trkpt lat="45.465228985995054" lon="3.545779986307025">
        <ele>1048.45</ele>
        <time>2025-04-24T15:18:23Z</time>
      </trkpt>
      <trkpt lat="45.465324958786368" lon="3.545715026557446">
        <ele>1048.45</ele>
        <time>2025-04-24T15:18:24Z</time>
      </trkpt>
      <trkpt lat="45.465427972376347" lon="3.54563900269568">
        <ele>1047.97</ele>
        <time>2025-04-24T15:18:25Z</time>
      </trkpt>
      <trkpt lat="45.465530985966325" lon="3.545563984662294">
        <ele>1047.97</ele>
        <time>2025-04-24T15:18:26Z</time>
      </trkpt>
      <trkpt lat="45.465822005644441" lon="3.545300960540772">
        <ele>1046.53</ele>
        <time>2025-04-24T15:18:29Z</time>
      </trkpt>
      <trkpt lat="45.465910015627742" lon="3.545300960540772">
        <ele>1045.5699999999999</ele>
        <time>2025-04-24T15:18:30Z</time>
      </trkpt>
      <trkpt lat="45.466001965105534" lon="3.545314036309719">
        <ele>1045.0899999999999</ele>
        <time>2025-04-24T15:18:31Z</time>
      </trkpt>
      <trkpt lat="45.466104978695512" lon="3.54536198079586">
        <ele>1044.6099999999999</ele>
        <time>2025-04-24T15:18:32Z</time>
      </trkpt>
      <trkpt lat="45.466220984235406" lon="3.545416966080666">
        <ele>1044.1300000000001</ele>
        <time>2025-04-24T15:18:33Z</time>
      </trkpt>
      <trkpt lat="45.467506013810635" lon="3.54602700099349">
        <ele>1046.53</ele>
        <time>2025-04-24T15:18:42Z</time>
      </trkpt>
      <trkpt lat="45.46814002096653" lon="3.546375017613173">
        <ele>1051.8199999999999</ele>
        <time>2025-04-24T15:18:47Z</time>
      </trkpt>
      <trkpt lat="45.46850698068738" lon="3.546759998425841">
        <ele>1057.1099999999999</ele>
        <time>2025-04-24T15:18:52Z</time>
      </trkpt>
      <trkpt lat="45.468580992892385" lon="3.546741977334023">
        <ele>1058.55</ele>
        <time>2025-04-24T15:18:53Z</time>
      </trkpt>
      <trkpt lat="45.46867897734046" lon="3.546716999262571">
        <ele>1059.99</ele>
        <time>2025-04-24T15:18:54Z</time>
      </trkpt>
      <trkpt lat="45.468735974282026" lon="3.546675005927682">
        <ele>1060.95</ele>
        <time>2025-04-24T15:18:55Z</time>
      </trkpt>
      <trkpt lat="45.468819960951805" lon="3.546611974015832">
        <ele>1061.9100000000001</ele>
        <time>2025-04-24T15:18:56Z</time>
      </trkpt>
      <trkpt lat="45.469629988074303" lon="3.545975033193827">
        <ele>1062.3900000000001</ele>
        <time>2025-04-24T15:19:03Z</time>
      </trkpt>
      <trkpt lat="45.470810998231173" lon="3.545285034924746">
        <ele>1058.55</ele>
        <time>2025-04-24T15:19:11Z</time>
      </trkpt>
      <trkpt lat="45.471376022323966" lon="3.545067021623254">
        <ele>1056.6300000000001</ele>
        <time>2025-04-24T15:19:15Z</time>
      </trkpt>
      <trkpt lat="45.47151398845017" lon="3.545043971389532">
        <ele>1056.6300000000001</ele>
        <time>2025-04-24T15:19:16Z</time>
      </trkpt>
      <trkpt lat="45.471649020910263" lon="3.545022010803223">
        <ele>1056.1500000000001</ele>
        <time>2025-04-24T15:19:17Z</time>
      </trkpt>
      <trkpt lat="45.471782041713595" lon="3.545000972226262">
        <ele>1056.1500000000001</ele>
        <time>2025-04-24T15:19:18Z</time>
      </trkpt>
      <trkpt lat="45.471913972869515" lon="3.544979011639953">
        <ele>1056.6300000000001</ele>
        <time>2025-04-24T15:19:19Z</time>
      </trkpt>
      <trkpt lat="45.472790971398354" lon="3.544768039137125">
        <ele>1062.3900000000001</ele>
        <time>2025-04-24T15:19:26Z</time>
      </trkpt>
      <trkpt lat="45.472913011908531" lon="3.54473702609539">
        <ele>1063.3599999999999</ele>
        <time>2025-04-24T15:19:27Z</time>
      </trkpt>
      <trkpt lat="45.473440987989306" lon="3.544602999463677">
        <ele>1067.6800000000001</ele>
        <time>2025-04-24T15:19:31Z</time>
      </trkpt>
      <trkpt lat="45.473962007090449" lon="3.544469978660345">
        <ele>1071.53</ele>
        <time>2025-04-24T15:19:35Z</time>
      </trkpt>
      <trkpt lat="45.47409201040864" lon="3.544437037780881">
        <ele>1072.49</ele>
        <time>2025-04-24T15:19:36Z</time>
      </trkpt>
      <trkpt lat="45.474211033433676" lon="3.544406024739146">
        <ele>1073.45</ele>
        <time>2025-04-24T15:19:37Z</time>
      </trkpt>
      <trkpt lat="45.474338019266725" lon="3.544351039454341">
        <ele>1074.4100000000001</ele>
        <time>2025-04-24T15:19:38Z</time>
      </trkpt>
      <trkpt lat="45.474462993443012" lon="3.544292030856013">
        <ele>1075.3699999999999</ele>
        <time>2025-04-24T15:19:39Z</time>
      </trkpt>
      <trkpt lat="45.475084008648992" lon="3.543948037549853">
        <ele>1080.1800000000001</ele>
        <time>2025-04-24T15:19:44Z</time>
      </trkpt>
      <trkpt lat="45.475229015573859" lon="3.543859021738172">
        <ele>1081.1400000000001</ele>
        <time>2025-04-24T15:19:45Z</time>
      </trkpt>
      <trkpt lat="45.475673004984856" lon="3.543589040637016">
        <ele>1082.5799999999999</ele>
        <time>2025-04-24T15:19:48Z</time>
      </trkpt>
      <trkpt lat="45.47613400965929" lon="3.543307995423675">
        <ele>1085.47</ele>
        <time>2025-04-24T15:19:52Z</time>
      </trkpt>
      <trkpt lat="45.476226964965463" lon="3.543250998482108">
        <ele>1086.9100000000001</ele>
        <time>2025-04-24T15:19:53Z</time>
      </trkpt>
      <trkpt lat="45.476470040157437" lon="3.543102974072099">
        <ele>1092.2</ele>
        <time>2025-04-24T15:19:56Z</time>
      </trkpt>
      <trkpt lat="45.476591996848583" lon="3.543003983795643">
        <ele>1095.0799999999999</ele>
        <time>2025-04-24T15:19:58Z</time>
      </trkpt>
      <trkpt lat="45.476634996011853" lon="3.542966013774276">
        <ele>1096.52</ele>
        <time>2025-04-24T15:19:59Z</time>
      </trkpt>
      <trkpt lat="45.47664899379015" lon="3.542905999347568">
        <ele>1097.96</ele>
        <time>2025-04-24T15:20:00Z</time>
      </trkpt>
      <trkpt lat="45.476656034588814" lon="3.542864006012678">
        <ele>1098.9200000000001</ele>
        <time>2025-04-24T15:20:01Z</time>
      </trkpt>
      <trkpt lat="45.476624015718699" lon="3.542814971879125">
        <ele>1100.3699999999999</ele>
        <time>2025-04-24T15:20:02Z</time>
      </trkpt>
      <trkpt lat="45.476574981585145" lon="3.542789993807674">
        <ele>1101.3299999999999</ele>
        <time>2025-04-24T15:20:03Z</time>
      </trkpt>
      <trkpt lat="45.476513961330056" lon="3.542759986594319">
        <ele>1102.29</ele>
        <time>2025-04-24T15:20:04Z</time>
      </trkpt>
      <trkpt lat="45.476438021287322" lon="3.542722016572952">
        <ele>1103.73</ele>
        <time>2025-04-24T15:20:05Z</time>
      </trkpt>
      <trkpt lat="45.476358979940414" lon="3.542682034894824">
        <ele>1104.6900000000001</ele>
        <time>2025-04-24T15:20:06Z</time>
      </trkpt>
      <trkpt lat="45.476266024634242" lon="3.542636018246412">
        <ele>1105.6500000000001</ele>
        <time>2025-04-24T15:20:07Z</time>
      </trkpt>
      <trkpt lat="45.475464966148138" lon="3.542235027998686">
        <ele>1109.5</ele>
        <time>2025-04-24T15:20:13Z</time>
      </trkpt>
      <trkpt lat="45.47531601972878" lon="3.542161015793681">
        <ele>1109.5</ele>
        <time>2025-04-24T15:20:14Z</time>
      </trkpt>
      <trkpt lat="45.473996959626675" lon="3.541501024737954">
        <ele>1106.6099999999999</ele>
        <time>2025-04-24T15:20:22Z</time>
      </trkpt>
      <trkpt lat="45.472828019410372" lon="3.540916973724961">
        <ele>1101.8099999999999</ele>
        <time>2025-04-24T15:20:29Z</time>
      </trkpt>
      <trkpt lat="45.471992008388042" lon="3.540493017062545">
        <ele>1099.8900000000001</ele>
        <time>2025-04-24T15:20:34Z</time>
      </trkpt>
      <trkpt lat="45.471551958471537" lon="3.540179030969739">
        <ele>1097.48</ele>
        <time>2025-04-24T15:20:37Z</time>
      </trkpt>
      <trkpt lat="45.471421033143997" lon="3.540059002116323">
        <ele>1096.52</ele>
        <time>2025-04-24T15:20:38Z</time>
      </trkpt>
      <trkpt lat="45.471168989315629" lon="3.539830008521676">
        <ele>1093.6400000000001</ele>
        <time>2025-04-24T15:20:40Z</time>
      </trkpt>
      <trkpt lat="45.471031023189425" lon="3.539783991873264">
        <ele>1092.6800000000001</ele>
        <time>2025-04-24T15:20:41Z</time>
      </trkpt>
      <trkpt lat="45.470886016264558" lon="3.539735041558743">
        <ele>1091.23</ele>
        <time>2025-04-24T15:20:42Z</time>
      </trkpt>
      <trkpt lat="45.470723994076252" lon="3.53971098549664">
        <ele>1089.79</ele>
        <time>2025-04-24T15:20:43Z</time>
      </trkpt>
      <trkpt lat="45.470550991594791" lon="3.539695981889963">
        <ele>1088.8299999999999</ele>
        <time>2025-04-24T15:20:44Z</time>
      </trkpt>
      <trkpt lat="45.470200963318348" lon="3.539617024362087">
        <ele>1085.95</ele>
        <time>2025-04-24T15:20:46Z</time>
      </trkpt>
      <trkpt lat="45.470023015514016" lon="3.539543012157083">
        <ele>1084.02</ele>
        <time>2025-04-24T15:20:47Z</time>
      </trkpt>
      <trkpt lat="45.469858981668949" lon="3.539426000788808">
        <ele>1082.5799999999999</ele>
        <time>2025-04-24T15:20:48Z</time>
      </trkpt>
      <trkpt lat="45.468585016205907" lon="3.538196962326765">
        <ele>1079.22</ele>
        <time>2025-04-24T15:20:56Z</time>
      </trkpt>
      <trkpt lat="45.467281965538859" lon="3.536470960825682">
        <ele>1082.5799999999999</ele>
        <time>2025-04-24T15:21:06Z</time>
      </trkpt>
      <trkpt lat="45.467055989429355" lon="3.536147000268102">
        <ele>1083.54</ele>
        <time>2025-04-24T15:21:09Z</time>
      </trkpt>
      <trkpt lat="45.466978959739208" lon="3.536074999719858">
        <ele>1083.54</ele>
        <time>2025-04-24T15:21:10Z</time>
      </trkpt>
      <trkpt lat="45.466892961412668" lon="3.536079023033381">
        <ele>1083.54</ele>
        <time>2025-04-24T15:21:11Z</time>
      </trkpt>
      <trkpt lat="45.466790031641722" lon="3.536083968356252">
        <ele>1084.02</ele>
        <time>2025-04-24T15:21:12Z</time>
      </trkpt>
      <trkpt lat="45.466676037758589" lon="3.536090003326535">
        <ele>1084.02</ele>
        <time>2025-04-24T15:21:13Z</time>
      </trkpt>
      <trkpt lat="45.466558020561934" lon="3.536095032468438">
        <ele>1084.5</ele>
        <time>2025-04-24T15:21:14Z</time>
      </trkpt>
      <trkpt lat="45.466176979243755" lon="3.536113975569606">
        <ele>1084.02</ele>
        <time>2025-04-24T15:21:18Z</time>
      </trkpt>
      <trkpt lat="45.466120988130569" lon="3.536010961979628">
        <ele>1083.54</ele>
        <time>2025-04-24T15:21:19Z</time>
      </trkpt>
      <trkpt lat="45.466130962595344" lon="3.53594901971519">
        <ele>1083.54</ele>
        <time>2025-04-24T15:21:20Z</time>
      </trkpt>
      <trkpt lat="45.466144038364291" lon="3.535861009731889">
        <ele>1083.0599999999999</ele>
        <time>2025-04-24T15:21:21Z</time>
      </trkpt>
      <trkpt lat="45.466161975637078" lon="3.535752967000008">
        <ele>1082.5799999999999</ele>
        <time>2025-04-24T15:21:22Z</time>
      </trkpt>
      <trkpt lat="45.466192988678813" lon="3.535633021965623">
        <ele>1082.0999999999999</ele>
        <time>2025-04-24T15:21:23Z</time>
      </trkpt>
      <trkpt lat="45.4663369897753" lon="3.535186015069485">
        <ele>1081.1400000000001</ele>
        <time>2025-04-24T15:21:26Z</time>
      </trkpt>
      <trkpt lat="45.467005027458072" lon="3.53403601795435">
        <ele>1078.26</ele>
        <time>2025-04-24T15:21:33Z</time>
      </trkpt>
      <trkpt lat="45.467390008270741" lon="3.533577024936676">
        <ele>1076.8099999999999</ele>
        <time>2025-04-24T15:21:36Z</time>
      </trkpt>
      <trkpt lat="45.467609027400613" lon="3.533345013856888">
        <ele>1076.3299999999999</ele>
        <time>2025-04-24T15:21:38Z</time>
      </trkpt>
      <trkpt lat="45.467723021283746" lon="3.533281981945038">
        <ele>1075.8499999999999</ele>
        <time>2025-04-24T15:21:39Z</time>
      </trkpt>
      <trkpt lat="45.467837015166879" lon="3.533274019137025">
        <ele>1075.8499999999999</ele>
        <time>2025-04-24T15:21:40Z</time>
      </trkpt>
      <trkpt lat="45.467951009050012" lon="3.533289022743702">
        <ele>1075.3699999999999</ele>
        <time>2025-04-24T15:21:41Z</time>
      </trkpt>
      <trkpt lat="45.468061985448003" lon="3.533303020521998">
        <ele>1074.8900000000001</ele>
        <time>2025-04-24T15:21:42Z</time>
      </trkpt>
      <trkpt lat="45.468175979331136" lon="3.533318024128676">
        <ele>1074.4100000000001</ele>
        <time>2025-04-24T15:21:43Z</time>
      </trkpt>
      <trkpt lat="45.46824999153614" lon="3.53332799859345">
        <ele>1073.9300000000001</ele>
        <time>2025-04-24T15:21:44Z</time>
      </trkpt>
      <trkpt lat="45.468364991247654" lon="3.533246023580432">
        <ele>1073.45</ele>
        <time>2025-04-24T15:21:45Z</time>
      </trkpt>
      <trkpt lat="45.468488037586212" lon="3.533159019425511">
        <ele>1072.97</ele>
        <time>2025-04-24T15:21:46Z</time>
      </trkpt>
      <trkpt lat="45.4686130117625" lon="3.53307000361383">
        <ele>1072.97</ele>
        <time>2025-04-24T15:21:47Z</time>
      </trkpt>
      <trkpt lat="45.468741003423929" lon="3.532978976145387">
        <ele>1072.49</ele>
        <time>2025-04-24T15:21:48Z</time>
      </trkpt>
      <trkpt lat="45.468983994796872" lon="3.532806979492307">
        <ele>1072.01</ele>
        <time>2025-04-24T15:21:50Z</time>
      </trkpt>
      <trkpt lat="45.46910704113543" lon="3.532719975337386">
        <ele>1071.53</ele>
        <time>2025-04-24T15:21:51Z</time>
      </trkpt>
      <trkpt lat="45.469220029190183" lon="3.53264001198113">
        <ele>1071.05</ele>
        <time>2025-04-24T15:21:52Z</time>
      </trkpt>
      <trkpt lat="45.469334023073316" lon="3.532558958977461">
        <ele>1071.05</ele>
        <time>2025-04-24T15:21:53Z</time>
      </trkpt>
      <trkpt lat="45.46945002861321" lon="3.532486036419869">
        <ele>1070.5699999999999</ele>
        <time>2025-04-24T15:21:54Z</time>
      </trkpt>
      <trkpt lat="45.469616996124387" lon="3.53244898840785">
        <ele>1069.1199999999999</ele>
        <time>2025-04-24T15:21:55Z</time>
      </trkpt>
      <trkpt lat="45.469768960028887" lon="3.532414035871625">
        <ele>1068.1600000000001</ele>
        <time>2025-04-24T15:21:56Z</time>
      </trkpt>
      <trkpt lat="45.470175985246897" lon="3.532320996746421">
        <ele>1065.76</ele>
        <time>2025-04-24T15:21:59Z</time>
      </trkpt>
      <trkpt lat="45.470373965799809" lon="3.53227598592639">
        <ele>1064.3199999999999</ele>
        <time>2025-04-24T15:22:00Z</time>
      </trkpt>
      <trkpt lat="45.470459964126348" lon="3.53216802701354">
        <ele>1063.3599999999999</ele>
        <time>2025-04-24T15:22:01Z</time>
      </trkpt>
      <trkpt lat="45.470493994653225" lon="3.532045986503363">
        <ele>1060.95</ele>
        <time>2025-04-24T15:22:02Z</time>
      </trkpt>
      <trkpt lat="45.470519978553057" lon="3.531894022598863">
        <ele>1059.99</ele>
        <time>2025-04-24T15:22:03Z</time>
      </trkpt>
      <trkpt lat="45.470503969117999" lon="3.531733006238937">
        <ele>1058.55</ele>
        <time>2025-04-24T15:22:04Z</time>
      </trkpt>
      <trkpt lat="45.470485026016831" lon="3.53154600597918">
        <ele>1057.5899999999999</ele>
        <time>2025-04-24T15:22:05Z</time>
      </trkpt>
      <trkpt lat="45.47041998244822" lon="3.530905041843653">
        <ele>1053.74</ele>
        <time>2025-04-24T15:22:08Z</time>
      </trkpt>
      <trkpt lat="45.470452001318336" lon="3.5306850168854">
        <ele>1052.78</ele>
        <time>2025-04-24T15:22:09Z</time>
      </trkpt>
      <trkpt lat="45.470496006309986" lon="3.530473960563541">
        <ele>1051.8199999999999</ele>
        <time>2025-04-24T15:22:10Z</time>
      </trkpt>
      <trkpt lat="45.470557026565075" lon="3.530290983617306">
        <ele>1050.3800000000001</ele>
        <time>2025-04-24T15:22:11Z</time>
      </trkpt>
      <trkpt lat="45.470636989921331" lon="3.530093003064394">
        <ele>1048.9400000000001</ele>
        <time>2025-04-24T15:22:12Z</time>
      </trkpt>
      <trkpt lat="45.470744026824832" lon="3.529941039159894">
        <ele>1047.97</ele>
        <time>2025-04-24T15:22:13Z</time>
      </trkpt>
      <trkpt lat="45.47084603458643" lon="3.529797038063407">
        <ele>1046.53</ele>
        <time>2025-04-24T15:22:14Z</time>
      </trkpt>
      <trkpt lat="45.470950976014137" lon="3.529649013653398">
        <ele>1045.5699999999999</ele>
        <time>2025-04-24T15:22:15Z</time>
      </trkpt>
      <trkpt lat="45.471033034846187" lon="3.529479028657079">
        <ele>1045.0899999999999</ele>
        <time>2025-04-24T15:22:16Z</time>
      </trkpt>
      <trkpt lat="45.47127996571362" lon="3.528901012614369">
        <ele>1043.1700000000001</ele>
        <time>2025-04-24T15:22:19Z</time>
      </trkpt>
      <trkpt lat="45.471383985131979" lon="3.528772015124559">
        <ele>1042.21</ele>
        <time>2025-04-24T15:22:20Z</time>
      </trkpt>
      <trkpt lat="45.471499990671873" lon="3.528650980442762">
        <ele>1041.25</ele>
        <time>2025-04-24T15:22:21Z</time>
      </trkpt>
      <trkpt lat="45.471615996211767" lon="3.528560036793351">
        <ele>1040.28</ele>
        <time>2025-04-24T15:22:22Z</time>
      </trkpt>
      <trkpt lat="45.471725966781378" lon="3.528473032638431">
        <ele>1038.8399999999999</ele>
        <time>2025-04-24T15:22:23Z</time>
      </trkpt>
      <trkpt lat="45.471869967877865" lon="3.528444031253457">
        <ele>1038.3599999999999</ele>
        <time>2025-04-24T15:22:24Z</time>
      </trkpt>
      <trkpt lat="45.471991002559662" lon="3.528431039303541">
        <ele>1037.4000000000001</ele>
        <time>2025-04-24T15:22:25Z</time>
      </trkpt>
      <trkpt lat="45.472077000886202" lon="3.528421986848116">
        <ele>1036.4400000000001</ele>
        <time>2025-04-24T15:22:26Z</time>
      </trkpt>
      <trkpt lat="45.472128968685865" lon="3.528416035696864">
        <ele>1035.48</ele>
        <time>2025-04-24T15:22:27Z</time>
      </trkpt>
      <trkpt lat="45.472155036404729" lon="3.528414024040103">
        <ele>1034.52</ele>
        <time>2025-04-24T15:22:28Z</time>
      </trkpt>
      <trkpt lat="45.472155036404729" lon="3.528414024040103">
        <ele>1033.55</ele>
        <time>2025-04-24T15:22:29Z</time>
      </trkpt>
      <trkpt lat="45.472142966464162" lon="3.52838602848351">
        <ele>1033.0699999999999</ele>
        <time>2025-04-24T15:22:30Z</time>
      </trkpt>
      <trkpt lat="45.472128968685865" lon="3.528351997956634">
        <ele>1032.1099999999999</ele>
        <time>2025-04-24T15:22:31Z</time>
      </trkpt>
      <trkpt lat="45.472110025584698" lon="3.528305981308222">
        <ele>1031.1500000000001</ele>
        <time>2025-04-24T15:22:32Z</time>
      </trkpt>
      <trkpt lat="45.472088987007737" lon="3.528254013508558">
        <ele>1030.6700000000001</ele>
        <time>2025-04-24T15:22:33Z</time>
      </trkpt>
      <trkpt lat="45.472036013379693" lon="3.52808503434062">
        <ele>1029.23</ele>
        <time>2025-04-24T15:22:36Z</time>
      </trkpt>
      <trkpt lat="45.472026038914919" lon="3.528025019913912">
        <ele>1028.75</ele>
        <time>2025-04-24T15:22:37Z</time>
      </trkpt>
      <trkpt lat="45.472006006166339" lon="3.527907002717257">
        <ele>1028.27</ele>
        <time>2025-04-24T15:22:39Z</time>
      </trkpt>
      <trkpt lat="45.471982033923268" lon="3.527761995792389">
        <ele>1027.3099999999999</ele>
        <time>2025-04-24T15:22:42Z</time>
      </trkpt>
      <trkpt lat="45.471982033923268" lon="3.527761995792389">
        <ele>1027.3099999999999</ele>
        <time>2025-04-24T15:22:53Z</time>
      </trkpt>
      <trkpt lat="45.471946997568011" lon="3.5275490116328">
        <ele>1027.3099999999999</ele>
        <time>2025-04-24T15:23:13Z</time>
      </trkpt>
      <trkpt lat="45.471636028960347" lon="3.526777038350701">
        <ele>1030.1900000000001</ele>
        <time>2025-04-24T15:23:20Z</time>
      </trkpt>
      <trkpt lat="45.471547013148665" lon="3.526678970083594">
        <ele>1030.6700000000001</ele>
        <time>2025-04-24T15:23:21Z</time>
      </trkpt>
      <trkpt lat="45.471463026478887" lon="3.526606969535351">
        <ele>1031.1500000000001</ele>
        <time>2025-04-24T15:23:22Z</time>
      </trkpt>
      <trkpt lat="45.470701027661562" lon="3.525956030935049">
        <ele>1035</ele>
        <time>2025-04-24T15:23:30Z</time>
      </trkpt>
      <trkpt lat="45.470588961616158" lon="3.525859974324703">
        <ele>1035.48</ele>
        <time>2025-04-24T15:23:31Z</time>
      </trkpt>
      <trkpt lat="45.470529031008482" lon="3.525742962956429">
        <ele>1035.48</ele>
        <time>2025-04-24T15:23:32Z</time>
      </trkpt>
      <trkpt lat="45.470454012975097" lon="3.525595022365451">
        <ele>1035.96</ele>
        <time>2025-04-24T15:23:33Z</time>
      </trkpt>
      <trkpt lat="45.470374971628189" lon="3.525440962985158">
        <ele>1035.96</ele>
        <time>2025-04-24T15:23:34Z</time>
      </trkpt>
      <trkpt lat="45.469782035797834" lon="3.524108994752169">
        <ele>1033.55</ele>
        <time>2025-04-24T15:23:43Z</time>
      </trkpt>
      <trkpt lat="45.469725960865617" lon="3.523965999484062">
        <ele>1033.55</ele>
        <time>2025-04-24T15:23:44Z</time>
      </trkpt>
      <trkpt lat="45.469648009166121" lon="3.523848988115788">
        <ele>1033.55</ele>
        <time>2025-04-24T15:23:45Z</time>
      </trkpt>
      <trkpt lat="45.469002015888691" lon="3.522962015122175">
        <ele>1032.1099999999999</ele>
        <time>2025-04-24T15:23:52Z</time>
      </trkpt>
      <trkpt lat="45.468906965106726" lon="3.522855984047055">
        <ele>1031.1500000000001</ele>
        <time>2025-04-24T15:23:53Z</time>
      </trkpt>
      <trkpt lat="45.468805963173509" lon="3.522763028740883">
        <ele>1030.6700000000001</ele>
        <time>2025-04-24T15:23:54Z</time>
      </trkpt>
      <trkpt lat="45.468693980947137" lon="3.522722963243723">
        <ele>1029.71</ele>
        <time>2025-04-24T15:23:55Z</time>
      </trkpt>
      <trkpt lat="45.468583004549146" lon="3.522683987393975">
        <ele>1028.75</ele>
        <time>2025-04-24T15:23:56Z</time>
      </trkpt>
      <trkpt lat="45.468475967645645" lon="3.522647023200989">
        <ele>1028.27</ele>
        <time>2025-04-24T15:23:57Z</time>
      </trkpt>
      <trkpt lat="45.468367002904415" lon="3.522576028481126">
        <ele>1027.79</ele>
        <time>2025-04-24T15:23:58Z</time>
      </trkpt>
      <trkpt lat="45.468285027891397" lon="3.522463962435722">
        <ele>1027.3099999999999</ele>
        <time>2025-04-24T15:23:59Z</time>
      </trkpt>
      <trkpt lat="45.468199029564857" lon="3.522347034886479">
        <ele>1027.3099999999999</ele>
        <time>2025-04-24T15:24:00Z</time>
      </trkpt>
      <trkpt lat="45.468100039288402" lon="3.522213008254767">
        <ele>1027.3099999999999</ele>
        <time>2025-04-24T15:24:01Z</time>
      </trkpt>
      <trkpt lat="45.468047987669706" lon="3.522073030471802">
        <ele>1027.3099999999999</ele>
        <time>2025-04-24T15:24:02Z</time>
      </trkpt>
      <trkpt lat="45.46799199655652" lon="3.521922994405031">
        <ele>1027.3099999999999</ele>
        <time>2025-04-24T15:24:03Z</time>
      </trkpt>
      <trkpt lat="45.467934999614954" lon="3.52176901884377">
        <ele>1027.3099999999999</ele>
        <time>2025-04-24T15:24:04Z</time>
      </trkpt>
      <trkpt lat="45.467821005731821" lon="3.521324023604393">
        <ele>1026.8299999999999</ele>
        <time>2025-04-24T15:24:07Z</time>
      </trkpt>
      <trkpt lat="45.467829974368215" lon="3.52118999697268">
        <ele>1026.8299999999999</ele>
        <time>2025-04-24T15:24:08Z</time>
      </trkpt>
      <trkpt lat="45.467864004895091" lon="3.521056976169348">
        <ele>1026.3399999999999</ele>
        <time>2025-04-24T15:24:09Z</time>
      </trkpt>
      <trkpt lat="45.467897029593587" lon="3.520928984507918">
        <ele>1026.3399999999999</ele>
        <time>2025-04-24T15:24:10Z</time>
      </trkpt>
      <trkpt lat="45.46792896464467" lon="3.520806021988392">
        <ele>1026.3399999999999</ele>
        <time>2025-04-24T15:24:11Z</time>
      </trkpt>
      <trkpt lat="45.467960983514786" lon="3.520684987306595">
        <ele>1026.3399999999999</ele>
        <time>2025-04-24T15:24:12Z</time>
      </trkpt>
      <trkpt lat="45.467981016263366" lon="3.520553978160024">
        <ele>1026.3399999999999</ele>
        <time>2025-04-24T15:24:13Z</time>
      </trkpt>
      <trkpt lat="45.467985039576888" lon="3.52041500620544">
        <ele>1025.8599999999999</ele>
        <time>2025-04-24T15:24:14Z</time>
      </trkpt>
      <trkpt lat="45.467961989343166" lon="3.520281985402107">
        <ele>1025.8599999999999</ele>
        <time>2025-04-24T15:24:15Z</time>
      </trkpt>
      <trkpt lat="45.46771296299994" lon="3.518898971378803">
        <ele>1025.3800000000001</ele>
        <time>2025-04-24T15:24:25Z</time>
      </trkpt>
      <trkpt lat="45.467698965221643" lon="3.518823031336069">
        <ele>1025.3800000000001</ele>
        <time>2025-04-24T15:24:26Z</time>
      </trkpt>
      <trkpt lat="45.46768999658525" lon="3.518768968060613">
        <ele>1025.3800000000001</ele>
        <time>2025-04-24T15:24:27Z</time>
      </trkpt>
      <trkpt lat="45.467681027948856" lon="3.518723035231233">
        <ele>1025.3800000000001</ele>
        <time>2025-04-24T15:24:28Z</time>
      </trkpt>
      <trkpt lat="45.467675998806953" lon="3.518691016361117">
        <ele>1025.3800000000001</ele>
        <time>2025-04-24T15:24:29Z</time>
      </trkpt>
      <trkpt lat="45.4677530284971" lon="3.518625972792506">
        <ele>1025.3800000000001</ele>
        <time>2025-04-24T15:24:30Z</time>
      </trkpt>
      <trkpt lat="45.467790998518467" lon="3.518656985834241">
        <ele>1025.3800000000001</ele>
        <time>2025-04-24T15:24:31Z</time>
      </trkpt>
      <trkpt lat="45.467850007116795" lon="3.518704008311033">
        <ele>1024.9000000000001</ele>
        <time>2025-04-24T15:24:32Z</time>
      </trkpt>
      <trkpt lat="45.467921001836658" lon="3.5187610052526">
        <ele>1025.3800000000001</ele>
        <time>2025-04-24T15:24:33Z</time>
      </trkpt>
      <trkpt lat="45.468529025092721" lon="3.519307002425194">
        <ele>1025.3800000000001</ele>
        <time>2025-04-24T15:24:39Z</time>
      </trkpt>
      <trkpt lat="45.468784002587199" lon="3.519538007676601">
        <ele>1024.9000000000001</ele>
        <time>2025-04-24T15:24:41Z</time>
      </trkpt>
      <trkpt lat="45.468922974541783" lon="3.519646972417831">
        <ele>1024.4200000000001</ele>
        <time>2025-04-24T15:24:42Z</time>
      </trkpt>
      <trkpt lat="45.469075022265315" lon="3.519698018208146">
        <ele>1023.9400000000001</ele>
        <time>2025-04-24T15:24:43Z</time>
      </trkpt>
      <trkpt lat="45.469234026968479" lon="3.519729031249881">
        <ele>1023.46</ele>
        <time>2025-04-24T15:24:44Z</time>
      </trkpt>
      <trkpt lat="45.469390014186502" lon="3.519741017371416">
        <ele>1022.5</ele>
        <time>2025-04-24T15:24:45Z</time>
      </trkpt>
      <trkpt lat="45.469542983919382" lon="3.519751997664571">
        <ele>1022.02</ele>
        <time>2025-04-24T15:24:46Z</time>
      </trkpt>
      <trkpt lat="45.469698971137404" lon="3.519763983786106">
        <ele>1021.0599999999999</ele>
        <time>2025-04-24T15:24:47Z</time>
      </trkpt>
      <trkpt lat="45.469850013032556" lon="3.519803965464234">
        <ele>1020.1</ele>
        <time>2025-04-24T15:24:48Z</time>
      </trkpt>
      <trkpt lat="45.470143966376781" lon="3.5198990162462">
        <ele>1019.13</ele>
        <time>2025-04-24T15:24:50Z</time>
      </trkpt>
      <trkpt lat="45.470292996615171" lon="3.519934974610806">
        <ele>1018.65</ele>
        <time>2025-04-24T15:24:51Z</time>
      </trkpt>
      <trkpt lat="45.470438003540039" lon="3.519920976832509">
        <ele>1018.17</ele>
        <time>2025-04-24T15:24:52Z</time>
      </trkpt>
      <trkpt lat="45.470559038221836" lon="3.519874960184097">
        <ele>1017.6900000000001</ele>
        <time>2025-04-24T15:24:53Z</time>
      </trkpt>
      <trkpt lat="45.470660962164402" lon="3.519818969070911">
        <ele>1017.21</ele>
        <time>2025-04-24T15:24:54Z</time>
      </trkpt>
      <trkpt lat="45.470748972147703" lon="3.519742023199797">
        <ele>1016.73</ele>
        <time>2025-04-24T15:24:55Z</time>
      </trkpt>
      <trkpt lat="45.470832036808133" lon="3.519618976861239">
        <ele>1015.77</ele>
        <time>2025-04-24T15:24:56Z</time>
      </trkpt>
      <trkpt lat="45.470922980457544" lon="3.519486039876938">
        <ele>1015.77</ele>
        <time>2025-04-24T15:24:57Z</time>
      </trkpt>
      <trkpt lat="45.471015013754368" lon="3.519351007416844">
        <ele>1015.29</ele>
        <time>2025-04-24T15:24:58Z</time>
      </trkpt>
      <trkpt lat="45.471109980717301" lon="3.519224021583796">
        <ele>1014.33</ele>
        <time>2025-04-24T15:24:59Z</time>
      </trkpt>
      <trkpt lat="45.471220035105944" lon="3.519112961366773">
        <ele>1013.85</ele>
        <time>2025-04-24T15:25:00Z</time>
      </trkpt>
      <trkpt lat="45.471331011503935" lon="3.519001984968782">
        <ele>1013.37</ele>
        <time>2025-04-24T15:25:01Z</time>
      </trkpt>
      <trkpt lat="45.471456991508603" lon="3.518927972763777">
        <ele>1012.89</ele>
        <time>2025-04-24T15:25:02Z</time>
      </trkpt>
      <trkpt lat="45.471585988998413" lon="3.518855972215533">
        <ele>1011.9299999999999</ele>
        <time>2025-04-24T15:25:03Z</time>
      </trkpt>
      <trkpt lat="45.471710963174701" lon="3.518786989152432">
        <ele>1010.96</ele>
        <time>2025-04-24T15:25:04Z</time>
      </trkpt>
      <trkpt lat="45.472322003915906" lon="3.518450036644936">
        <ele>1009.52</ele>
        <time>2025-04-24T15:25:09Z</time>
      </trkpt>
      <trkpt lat="45.472428034991026" lon="3.518321039155126">
        <ele>1009.04</ele>
        <time>2025-04-24T15:25:10Z</time>
      </trkpt>
      <trkpt lat="45.472534988075495" lon="3.518191035836935">
        <ele>1008.5599999999999</ele>
        <time>2025-04-24T15:25:11Z</time>
      </trkpt>
      <trkpt lat="45.472613023594022" lon="3.518032031133771">
        <ele>1008.08</ele>
        <time>2025-04-24T15:25:12Z</time>
      </trkpt>
      <trkpt lat="45.472688963636756" lon="3.517842013388872">
        <ele>1007.12</ele>
        <time>2025-04-24T15:25:13Z</time>
      </trkpt>
      <trkpt lat="45.472768004983664" lon="3.51764403283596">
        <ele>1006.16</ele>
        <time>2025-04-24T15:25:14Z</time>
      </trkpt>
      <trkpt lat="45.47284503467381" lon="3.5174520034343">
        <ele>1005.6799999999999</ele>
        <time>2025-04-24T15:25:15Z</time>
      </trkpt>
      <trkpt lat="45.472915023565292" lon="3.51725603453815">
        <ele>1005.2</ele>
        <time>2025-04-24T15:25:16Z</time>
      </trkpt>
      <trkpt lat="45.473106969147921" lon="3.516383981332183">
        <ele>1003.27</ele>
        <time>2025-04-24T15:25:20Z</time>
      </trkpt>
      <trkpt lat="45.473158014938235" lon="3.516152976080775">
        <ele>1002.79</ele>
        <time>2025-04-24T15:25:21Z</time>
      </trkpt>
      <trkpt lat="45.473250970244408" lon="3.515728013589978">
        <ele>1001.35</ele>
        <time>2025-04-24T15:25:23Z</time>
      </trkpt>
      <trkpt lat="45.473305033519864" lon="3.515513017773628">
        <ele>1000.87</ele>
        <time>2025-04-24T15:25:24Z</time>
      </trkpt>
      <trkpt lat="45.473381979390979" lon="3.51534596644342">
        <ele>999.90999999999997</ele>
        <time>2025-04-24T15:25:25Z</time>
      </trkpt>
      <trkpt lat="45.473483987152576" lon="3.515162989497185">
        <ele>998.95000000000005</ele>
        <time>2025-04-24T15:25:26Z</time>
      </trkpt>
      <trkpt lat="45.473594041541219" lon="3.515019994229078">
        <ele>997.50999999999999</ele>
        <time>2025-04-24T15:25:27Z</time>
      </trkpt>
      <trkpt lat="45.474096033722162" lon="3.514513978734613">
        <ele>992.22000000000003</ele>
        <time>2025-04-24T15:25:31Z</time>
      </trkpt>
      <trkpt lat="45.474397027865052" lon="3.5143350251019">
        <ele>990.29999999999995</ele>
        <time>2025-04-24T15:25:33Z</time>
      </trkpt>
      <trkpt lat="45.474555026739836" lon="3.514261012896895">
        <ele>989.33000000000004</ele>
        <time>2025-04-24T15:25:34Z</time>
      </trkpt>
      <trkpt lat="45.474714031443" lon="3.51418599486351">
        <ele>988.37</ele>
        <time>2025-04-24T15:25:35Z</time>
      </trkpt>
      <trkpt lat="45.474868007004261" lon="3.514112988486886">
        <ele>987.88999999999999</ele>
        <time>2025-04-24T15:25:36Z</time>
      </trkpt>
      <trkpt lat="45.475021982565522" lon="3.514040987938643">
        <ele>986.92999999999995</ele>
        <time>2025-04-24T15:25:37Z</time>
      </trkpt>
      <trkpt lat="45.475164977833629" lon="3.513932023197413">
        <ele>985.97000000000003</ele>
        <time>2025-04-24T15:25:38Z</time>
      </trkpt>
      <trkpt lat="45.475306967273355" lon="3.513820040971041">
        <ele>985.00999999999999</ele>
        <time>2025-04-24T15:25:39Z</time>
      </trkpt>
      <trkpt lat="45.47544501721859" lon="3.51371300406754">
        <ele>984.52999999999997</ele>
        <time>2025-04-24T15:25:40Z</time>
      </trkpt>
      <trkpt lat="45.475523974746466" lon="3.513650977984071">
        <ele>983.57000000000005</ele>
        <time>2025-04-24T15:25:41Z</time>
      </trkpt>
      <trkpt lat="45.475680967792869" lon="3.513588029891253">
        <ele>982.12</ele>
        <time>2025-04-24T15:25:42Z</time>
      </trkpt>
      <trkpt lat="45.475738970562816" lon="3.513564979657531">
        <ele>981.15999999999997</ele>
        <time>2025-04-24T15:25:43Z</time>
      </trkpt>
      <trkpt lat="45.475877020508051" lon="3.513577971607447">
        <ele>980.20000000000005</ele>
        <time>2025-04-24T15:25:44Z</time>
      </trkpt>
      <trkpt lat="45.476001994684339" lon="3.513589035719633">
        <ele>979.24000000000001</ele>
        <time>2025-04-24T15:25:45Z</time>
      </trkpt>
      <trkpt lat="45.476307012140751" lon="3.513617031276226">
        <ele>976.84000000000003</ele>
        <time>2025-04-24T15:25:47Z</time>
      </trkpt>
      <trkpt lat="45.476795006543398" lon="3.513745022937655">
        <ele>974.42999999999995</ele>
        <time>2025-04-24T15:25:50Z</time>
      </trkpt>
      <trkpt lat="45.477070016786456" lon="3.513836972415447">
        <ele>972.50999999999999</ele>
        <time>2025-04-24T15:25:52Z</time>
      </trkpt>
      <trkpt lat="45.477231033146381" lon="3.513845019042492">
        <ele>971.54999999999995</ele>
        <time>2025-04-24T15:25:53Z</time>
      </trkpt>
      <trkpt lat="45.477362964302301" lon="3.513808976858854">
        <ele>970.59000000000003</ele>
        <time>2025-04-24T15:25:54Z</time>
      </trkpt>
      <trkpt lat="45.477506965398788" lon="3.513731025159359">
        <ele>969.63</ele>
        <time>2025-04-24T15:25:55Z</time>
      </trkpt>
      <trkpt lat="45.477640992030501" lon="3.513650977984071">
        <ele>968.66999999999996</ele>
        <time>2025-04-24T15:25:56Z</time>
      </trkpt>
      <trkpt lat="45.477789016440511" lon="3.513561962172389">
        <ele>968.17999999999995</ele>
        <time>2025-04-24T15:25:57Z</time>
      </trkpt>
      <trkpt lat="45.478398967534304" lon="3.513274965807796">
        <ele>964.82000000000005</ele>
        <time>2025-04-24T15:26:02Z</time>
      </trkpt>
      <trkpt lat="45.478501981124282" lon="3.513267002999783">
        <ele>963.86000000000001</ele>
        <time>2025-04-24T15:26:03Z</time>
      </trkpt>
      <trkpt lat="45.478529976680875" lon="3.513264991343021">
        <ele>963.38</ele>
        <time>2025-04-24T15:26:04Z</time>
      </trkpt>
      <trkpt lat="45.478618992492557" lon="3.513322994112968">
        <ele>962.41999999999996</ele>
        <time>2025-04-24T15:26:05Z</time>
      </trkpt>
      <trkpt lat="45.478697028011084" lon="3.513373034074903">
        <ele>961.46000000000004</ele>
        <time>2025-04-24T15:26:06Z</time>
      </trkpt>
      <trkpt lat="45.478828037157655" lon="3.513458026573062">
        <ele>960.98000000000002</ele>
        <time>2025-04-24T15:26:07Z</time>
      </trkpt>
      <trkpt lat="45.478958962485194" lon="3.513431958854199">
        <ele>960.49000000000001</ele>
        <time>2025-04-24T15:26:08Z</time>
      </trkpt>
      <trkpt lat="45.478999027982354" lon="3.513349983841181">
        <ele>959.52999999999997</ele>
        <time>2025-04-24T15:26:09Z</time>
      </trkpt>
      <trkpt lat="45.479052001610398" lon="3.51324001327157">
        <ele>958.57000000000005</ele>
        <time>2025-04-24T15:26:10Z</time>
      </trkpt>
      <trkpt lat="45.479115033522248" lon="3.51311000995338">
        <ele>958.09000000000003</ele>
        <time>2025-04-24T15:26:11Z</time>
      </trkpt>
      <trkpt lat="45.479183010756969" lon="3.512968020513654">
        <ele>957.61000000000001</ele>
        <time>2025-04-24T15:26:12Z</time>
      </trkpt>
      <trkpt lat="45.479258028790355" lon="3.512813961133361">
        <ele>957.61000000000001</ele>
        <time>2025-04-24T15:26:13Z</time>
      </trkpt>
      <trkpt lat="45.479362970218062" lon="3.512707008048892">
        <ele>956.64999999999998</ele>
        <time>2025-04-24T15:26:14Z</time>
      </trkpt>
      <trkpt lat="45.479490961879492" lon="3.512577004730701">
        <ele>956.16999999999996</ele>
        <time>2025-04-24T15:26:15Z</time>
      </trkpt>
      <trkpt lat="45.479621971026063" lon="3.512442978098989">
        <ele>955.69000000000005</ele>
        <time>2025-04-24T15:26:16Z</time>
      </trkpt>
      <trkpt lat="45.480032013729215" lon="3.512025978416205">
        <ele>952.79999999999995</ele>
        <time>2025-04-24T15:26:19Z</time>
      </trkpt>
      <trkpt lat="45.480163022875786" lon="3.511892035603523">
        <ele>951.84000000000003</ele>
        <time>2025-04-24T15:26:20Z</time>
      </trkpt>
      <trkpt lat="45.480289002880454" lon="3.511763960123062">
        <ele>951.36000000000001</ele>
        <time>2025-04-24T15:26:21Z</time>
      </trkpt>
      <trkpt lat="45.48040802590549" lon="3.511643009260297">
        <ele>950.39999999999998</ele>
        <time>2025-04-24T15:26:22Z</time>
      </trkpt>
      <trkpt lat="45.480499975383282" lon="3.51147604174912">
        <ele>949.91999999999996</ele>
        <time>2025-04-24T15:26:23Z</time>
      </trkpt>
      <trkpt lat="45.480568958446383" lon="3.511277977377176">
        <ele>948.96000000000004</ele>
        <time>2025-04-24T15:26:24Z</time>
      </trkpt>
      <trkpt lat="45.480611035600305" lon="3.511063987389207">
        <ele>948.48000000000002</ele>
        <time>2025-04-24T15:26:25Z</time>
      </trkpt>
      <trkpt lat="45.480653028935194" lon="3.510845974087715">
        <ele>947.51999999999998</ele>
        <time>2025-04-24T15:26:26Z</time>
      </trkpt>
      <trkpt lat="45.480697033926845" lon="3.510622009634972">
        <ele>946.55999999999995</ele>
        <time>2025-04-24T15:26:27Z</time>
      </trkpt>
      <trkpt lat="45.480738021433353" lon="3.510411037132144">
        <ele>945.59000000000003</ele>
        <time>2025-04-24T15:26:28Z</time>
      </trkpt>
      <trkpt lat="45.480823013931513" lon="3.510233005508781">
        <ele>945.11000000000001</ele>
        <time>2025-04-24T15:26:29Z</time>
      </trkpt>
      <trkpt lat="45.480899959802628" lon="3.510071989148855">
        <ele>944.14999999999998</ele>
        <time>2025-04-24T15:26:30Z</time>
      </trkpt>
      <trkpt lat="45.480985958129168" lon="3.50990803912282">
        <ele>943.19000000000005</ele>
        <time>2025-04-24T15:26:31Z</time>
      </trkpt>
      <trkpt lat="45.481101041659713" lon="3.509818017482758">
        <ele>941.75</ele>
        <time>2025-04-24T15:26:32Z</time>
      </trkpt>
      <trkpt lat="45.481213023886085" lon="3.509729001671076">
        <ele>940.78999999999996</ele>
        <time>2025-04-24T15:26:33Z</time>
      </trkpt>
      <trkpt lat="45.481347972527146" lon="3.509666975587606">
        <ele>940.30999999999995</ele>
        <time>2025-04-24T15:26:34Z</time>
      </trkpt>
      <trkpt lat="45.481475964188576" lon="3.509641997516155">
        <ele>939.35000000000002</ele>
        <time>2025-04-24T15:26:35Z</time>
      </trkpt>
      <trkpt lat="45.481772013008595" lon="3.509585000574589">
        <ele>937.89999999999998</ele>
        <time>2025-04-24T15:26:37Z</time>
      </trkpt>
      <trkpt lat="45.482093961909413" lon="3.509457008913159">
        <ele>937.41999999999996</ele>
        <time>2025-04-24T15:26:39Z</time>
      </trkpt>
      <trkpt lat="45.482251960784197" lon="3.509360030293465">
        <ele>936.94000000000005</ele>
        <time>2025-04-24T15:26:40Z</time>
      </trkpt>
      <trkpt lat="45.482410965487361" lon="3.509261040017009">
        <ele>937.41999999999996</ele>
        <time>2025-04-24T15:26:41Z</time>
      </trkpt>
      <trkpt lat="45.48288001678884" lon="3.508951999247074">
        <ele>936.94000000000005</ele>
        <time>2025-04-24T15:26:44Z</time>
      </trkpt>
      <trkpt lat="45.48300901427865" lon="3.508810009807348">
        <ele>936.46000000000004</ele>
        <time>2025-04-24T15:26:45Z</time>
      </trkpt>
      <trkpt lat="45.483139017596841" lon="3.508645975962281">
        <ele>935.5</ele>
        <time>2025-04-24T15:26:46Z</time>
      </trkpt>
      <trkpt lat="45.4833759739995" lon="3.508325032889843">
        <ele>933.58000000000004</ele>
        <time>2025-04-24T15:26:48Z</time>
      </trkpt>
      <trkpt lat="45.483490973711014" lon="3.508225036785007">
        <ele>933.10000000000002</ele>
        <time>2025-04-24T15:26:49Z</time>
      </trkpt>
      <trkpt lat="45.483628017827868" lon="3.50814700126648">
        <ele>932.62</ele>
        <time>2025-04-24T15:26:50Z</time>
      </trkpt>
      <trkpt lat="45.484343999996781" lon="3.507928987964988">
        <ele>929.73000000000002</ele>
        <time>2025-04-24T15:26:55Z</time>
      </trkpt>
      <trkpt lat="45.484450031071901" lon="3.507899986580014">
        <ele>929.25</ele>
        <time>2025-04-24T15:26:56Z</time>
      </trkpt>
      <trkpt lat="45.484550027176738" lon="3.507972992956638">
        <ele>928.76999999999998</ele>
        <time>2025-04-24T15:26:57Z</time>
      </trkpt>
      <trkpt lat="45.484634013846517" lon="3.508035019040108">
        <ele>927.80999999999995</ele>
        <time>2025-04-24T15:26:58Z</time>
      </trkpt>
      <trkpt lat="45.484712971374393" lon="3.508092015981674">
        <ele>927.33000000000004</ele>
        <time>2025-04-24T15:26:59Z</time>
      </trkpt>
      <trkpt lat="45.48477197997272" lon="3.508136020973325">
        <ele>926.37</ele>
        <time>2025-04-24T15:27:00Z</time>
      </trkpt>
      <trkpt lat="45.484851021319628" lon="3.508149012923241">
        <ele>925.40999999999997</ele>
        <time>2025-04-24T15:27:01Z</time>
      </trkpt>
      <trkpt lat="45.48492101021111" lon="3.50812797434628">
        <ele>924.45000000000005</ele>
        <time>2025-04-24T15:27:02Z</time>
      </trkpt>
      <trkpt lat="45.484975995495915" lon="3.508045999333262">
        <ele>923.48000000000002</ele>
        <time>2025-04-24T15:27:03Z</time>
      </trkpt>
      <trkpt lat="45.48502997495234" lon="3.507960001006723">
        <ele>922.51999999999998</ele>
        <time>2025-04-24T15:27:04Z</time>
      </trkpt>
      <trkpt lat="45.48502997495234" lon="3.507771994918585">
        <ele>921.55999999999995</ele>
        <time>2025-04-24T15:27:05Z</time>
      </trkpt>
      <trkpt lat="45.485008014366031" lon="3.507679039612413">
        <ele>920.60000000000002</ele>
        <time>2025-04-24T15:27:06Z</time>
      </trkpt>
      <trkpt lat="45.484969038516283" lon="3.507510982453823">
        <ele>920.12</ele>
        <time>2025-04-24T15:27:07Z</time>
      </trkpt>
      <trkpt lat="45.48472898080945" lon="3.506484031677246">
        <ele>916.75</ele>
        <time>2025-04-24T15:27:12Z</time>
      </trkpt>
      <trkpt lat="45.484655974432826" lon="3.506299965083599">
        <ele>915.78999999999996</ele>
        <time>2025-04-24T15:27:13Z</time>
      </trkpt>
      <trkpt lat="45.484580034390092" lon="3.50610701367259">
        <ele>914.83000000000004</ele>
        <time>2025-04-24T15:27:14Z</time>
      </trkpt>
      <trkpt lat="45.48438398167491" lon="3.505610972642899">
        <ele>913.38999999999999</ele>
        <time>2025-04-24T15:27:17Z</time>
      </trkpt>
      <trkpt lat="45.484322039410472" lon="3.505453979596496">
        <ele>913.38999999999999</ele>
        <time>2025-04-24T15:27:18Z</time>
      </trkpt>
      <trkpt lat="45.484322039410472" lon="3.505363035947084">
        <ele>912.90999999999997</ele>
        <time>2025-04-24T15:27:19Z</time>
      </trkpt>
      <trkpt lat="45.484333019703627" lon="3.505181986838579">
        <ele>912.90999999999997</ele>
        <time>2025-04-24T15:27:20Z</time>
      </trkpt>
      <trkpt lat="45.484376018866897" lon="3.50496900267899">
        <ele>912.90999999999997</ele>
        <time>2025-04-24T15:27:21Z</time>
      </trkpt>
      <trkpt lat="45.484421029686928" lon="3.504742020741105">
        <ele>912.90999999999997</ele>
        <time>2025-04-24T15:27:22Z</time>
      </trkpt>
      <trkpt lat="45.484557989984751" lon="3.504056967794895">
        <ele>911.95000000000005</ele>
        <time>2025-04-24T15:27:25Z</time>
      </trkpt>
      <trkpt lat="45.484567964449525" lon="3.503839038312435">
        <ele>911.47000000000003</ele>
        <time>2025-04-24T15:27:26Z</time>
      </trkpt>
      <trkpt lat="45.484595960006118" lon="3.503258004784584">
        <ele>908.10000000000002</ele>
        <time>2025-04-24T15:27:29Z</time>
      </trkpt>
      <trkpt lat="45.484630996361375" lon="3.503102017566562">
        <ele>907.62</ele>
        <time>2025-04-24T15:27:30Z</time>
      </trkpt>
      <trkpt lat="45.484711965546012" lon="3.50294996984303">
        <ele>907.13999999999999</ele>
        <time>2025-04-24T15:27:31Z</time>
      </trkpt>
      <trkpt lat="45.484827971085906" lon="3.50279800593853">
        <ele>906.65999999999997</ele>
        <time>2025-04-24T15:27:32Z</time>
      </trkpt>
      <trkpt lat="45.484955962747335" lon="3.502662973478437">
        <ele>906.65999999999997</ele>
        <time>2025-04-24T15:27:33Z</time>
      </trkpt>
      <trkpt lat="45.48509200103581" lon="3.502520984038711">
        <ele>906.65999999999997</ele>
        <time>2025-04-24T15:27:34Z</time>
      </trkpt>
      <trkpt lat="45.485376985743642" lon="3.502219989895821">
        <ele>906.17999999999995</ele>
        <time>2025-04-24T15:27:36Z</time>
      </trkpt>
      <trkpt lat="45.485520986840129" lon="3.502070037648082">
        <ele>906.65999999999997</ele>
        <time>2025-04-24T15:27:37Z</time>
      </trkpt>
      <trkpt lat="45.486278962343931" lon="3.501050965860486">
        <ele>908.10000000000002</ele>
        <time>2025-04-24T15:27:43Z</time>
      </trkpt>
      <trkpt lat="45.486705014482141" lon="3.500624997541308">
        <ele>909.05999999999995</ele>
        <time>2025-04-24T15:27:46Z</time>
      </trkpt>
      <trkpt lat="45.486830994486809" lon="3.500472027808428">
        <ele>908.58000000000004</ele>
        <time>2025-04-24T15:27:47Z</time>
      </trkpt>
      <trkpt lat="45.486947000026703" lon="3.500281004235148">
        <ele>907.62</ele>
        <time>2025-04-24T15:27:48Z</time>
      </trkpt>
      <trkpt lat="45.4870680347085" lon="3.500081012025476">
        <ele>906.65999999999997</ele>
        <time>2025-04-24T15:27:49Z</time>
      </trkpt>
      <trkpt lat="45.487186973914504" lon="3.499870961531997">
        <ele>905.70000000000005</ele>
        <time>2025-04-24T15:27:50Z</time>
      </trkpt>
      <trkpt lat="45.487902034074068" lon="3.498320979997516">
        <ele>895.12</ele>
        <time>2025-04-24T15:27:57Z</time>
      </trkpt>
      <trkpt lat="45.487964982166886" lon="3.49807002581656">
        <ele>894.15999999999997</ele>
        <time>2025-04-24T15:27:58Z</time>
      </trkpt>
      <trkpt lat="45.488027008250356" lon="3.497819993644953">
        <ele>892.72000000000003</ele>
        <time>2025-04-24T15:27:59Z</time>
      </trkpt>
      <trkpt lat="45.488089034333825" lon="3.497571973130107">
        <ele>891.27999999999997</ele>
        <time>2025-04-24T15:28:00Z</time>
      </trkpt>
      <trkpt lat="45.488147959113121" lon="3.497338034212589">
        <ele>890.32000000000005</ele>
        <time>2025-04-24T15:28:01Z</time>
      </trkpt>
      <trkpt lat="45.488291038200259" lon="3.496764041483402">
        <ele>886.47000000000003</ele>
        <time>2025-04-24T15:28:04Z</time>
      </trkpt>
      <trkpt lat="45.488268993794918" lon="3.496643006801605">
        <ele>885.50999999999999</ele>
        <time>2025-04-24T15:28:05Z</time>
      </trkpt>
      <trkpt lat="45.488216020166874" lon="3.496359027922154">
        <ele>883.59000000000003</ele>
        <time>2025-04-24T15:28:07Z</time>
      </trkpt>
      <trkpt lat="45.4881870187819" lon="3.496198011562228">
        <ele>882.63</ele>
        <time>2025-04-24T15:28:08Z</time>
      </trkpt>
      <trkpt lat="45.488200010731816" lon="3.496110001578927">
        <ele>881.66999999999996</ele>
        <time>2025-04-24T15:28:09Z</time>
      </trkpt>
      <trkpt lat="45.488233035430312" lon="3.495955020189285">
        <ele>880.71000000000004</ele>
        <time>2025-04-24T15:28:10Z</time>
      </trkpt>
      <trkpt lat="45.488266982138157" lon="3.495791992172599">
        <ele>879.25999999999999</ele>
        <time>2025-04-24T15:28:11Z</time>
      </trkpt>
      <trkpt lat="45.488302018493414" lon="3.495627036318183">
        <ele>877.82000000000005</ele>
        <time>2025-04-24T15:28:12Z</time>
      </trkpt>
      <trkpt lat="45.488332025706768" lon="3.495420003309846">
        <ele>876.38</ele>
        <time>2025-04-24T15:28:13Z</time>
      </trkpt>
      <trkpt lat="45.488323979079723" lon="3.495244989171624">
        <ele>874.94000000000005</ele>
        <time>2025-04-24T15:28:14Z</time>
      </trkpt>
      <trkpt lat="45.48831601627171" lon="3.495072992518544">
        <ele>873.5</ele>
        <time>2025-04-24T15:28:15Z</time>
      </trkpt>
      <trkpt lat="45.488308975473046" lon="3.494914993643761">
        <ele>872.04999999999995</ele>
        <time>2025-04-24T15:28:16Z</time>
      </trkpt>
      <trkpt lat="45.488291038200259" lon="3.494532024487853">
        <ele>869.64999999999998</ele>
        <time>2025-04-24T15:28:18Z</time>
      </trkpt>
      <trkpt lat="45.488382987678051" lon="3.494287021458149">
        <ele>866.76999999999998</ele>
        <time>2025-04-24T15:28:20Z</time>
      </trkpt>
      <trkpt lat="45.48859597183764" lon="3.493720991536975">
        <ele>863.88</ele>
        <time>2025-04-24T15:28:23Z</time>
      </trkpt>
      <trkpt lat="45.488644000142813" lon="3.493510019034147">
        <ele>862.44000000000005</ele>
        <time>2025-04-24T15:28:24Z</time>
      </trkpt>
      <trkpt lat="45.488713989034295" lon="3.493127971887589">
        <ele>860.03999999999996</ele>
        <time>2025-04-24T15:28:26Z</time>
      </trkpt>
      <trkpt lat="45.488774003461003" lon="3.492970978841186">
        <ele>859.08000000000004</ele>
        <time>2025-04-24T15:28:27Z</time>
      </trkpt>
      <trkpt lat="45.488849021494389" lon="3.492794036865234">
        <ele>858.11000000000001</ele>
        <time>2025-04-24T15:28:28Z</time>
      </trkpt>
      <trkpt lat="45.48958302475512" lon="3.491895999759436">
        <ele>851.87</ele>
        <time>2025-04-24T15:28:34Z</time>
      </trkpt>
      <trkpt lat="45.489743035286665" lon="3.491785023361445">
        <ele>851.38</ele>
        <time>2025-04-24T15:28:35Z</time>
      </trkpt>
      <trkpt lat="45.490209991112351" lon="3.491526022553444">
        <ele>848.98000000000002</ele>
        <time>2025-04-24T15:28:38Z</time>
      </trkpt>
      <trkpt lat="45.49037603661418" lon="3.491480005905032">
        <ele>848.5</ele>
        <time>2025-04-24T15:28:39Z</time>
      </trkpt>
      <trkpt lat="45.491071986034513" lon="3.49128495901823">
        <ele>846.58000000000004</ele>
        <time>2025-04-24T15:28:43Z</time>
      </trkpt>
      <trkpt lat="45.491245994344354" lon="3.491204995661974">
        <ele>846.58000000000004</ele>
        <time>2025-04-24T15:28:44Z</time>
      </trkpt>
      <trkpt lat="45.492057027295232" lon="3.490683976560831">
        <ele>845.13999999999999</ele>
        <time>2025-04-24T15:28:49Z</time>
      </trkpt>
      <trkpt lat="45.492209997028112" lon="3.490546010434628">
        <ele>844.65999999999997</ele>
        <time>2025-04-24T15:28:50Z</time>
      </trkpt>
      <trkpt lat="45.492473021149635" lon="3.490215009078383">
        <ele>842.73000000000002</ele>
        <time>2025-04-24T15:28:52Z</time>
      </trkpt>
      <trkpt lat="45.492603024467826" lon="3.490046029910445">
        <ele>841.28999999999996</ele>
        <time>2025-04-24T15:28:53Z</time>
      </trkpt>
      <trkpt lat="45.492727998644114" lon="3.489883001893759">
        <ele>840.80999999999995</ele>
        <time>2025-04-24T15:28:54Z</time>
      </trkpt>
      <trkpt lat="45.492849033325911" lon="3.489726008847356">
        <ele>839.85000000000002</ele>
        <time>2025-04-24T15:28:55Z</time>
      </trkpt>
      <trkpt lat="45.492948023602366" lon="3.489597011357546">
        <ele>838.88999999999999</ele>
        <time>2025-04-24T15:28:56Z</time>
      </trkpt>
      <trkpt lat="45.493100993335247" lon="3.489539008587599">
        <ele>837.92999999999995</ele>
        <time>2025-04-24T15:28:57Z</time>
      </trkpt>
      <trkpt lat="45.49323501996696" lon="3.489488968625665">
        <ele>836.96000000000004</ele>
        <time>2025-04-24T15:28:58Z</time>
      </trkpt>
      <trkpt lat="45.493382038548589" lon="3.489468013867736">
        <ele>836</ele>
        <time>2025-04-24T15:28:59Z</time>
      </trkpt>
      <trkpt lat="45.493934992700815" lon="3.489468013867736">
        <ele>832.15999999999997</ele>
        <time>2025-04-24T15:29:03Z</time>
      </trkpt>
      <trkpt lat="45.494046974927187" lon="3.489362988620997">
        <ele>831.20000000000005</ele>
        <time>2025-04-24T15:29:04Z</time>
      </trkpt>
      <trkpt lat="45.494154011830688" lon="3.489260980859399">
        <ele>830.24000000000001</ele>
        <time>2025-04-24T15:29:05Z</time>
      </trkpt>
      <trkpt lat="45.494257025420666" lon="3.489165008068085">
        <ele>829.26999999999998</ele>
        <time>2025-04-24T15:29:06Z</time>
      </trkpt>
      <trkpt lat="45.494369007647038" lon="3.489114968106151">
        <ele>829.26999999999998</ele>
        <time>2025-04-24T15:29:07Z</time>
      </trkpt>
      <trkpt lat="45.49448199570179" lon="3.489122008904815">
        <ele>828.78999999999996</ele>
        <time>2025-04-24T15:29:08Z</time>
      </trkpt>
      <trkpt lat="45.494593977928162" lon="3.489185040816665">
        <ele>828.30999999999995</ele>
        <time>2025-04-24T15:29:09Z</time>
      </trkpt>
      <trkpt lat="45.49471702426672" lon="3.489254023879767">
        <ele>827.83000000000004</ele>
        <time>2025-04-24T15:29:10Z</time>
      </trkpt>
      <trkpt lat="45.494841998443007" lon="3.48928595893085">
        <ele>827.35000000000002</ele>
        <time>2025-04-24T15:29:11Z</time>
      </trkpt>
      <trkpt lat="45.494979964569211" lon="3.489255029708147">
        <ele>826.87</ele>
        <time>2025-04-24T15:29:12Z</time>
      </trkpt>
      <trkpt lat="45.49512698315084" lon="3.489217981696129">
        <ele>826.38999999999999</ele>
        <time>2025-04-24T15:29:13Z</time>
      </trkpt>
      <trkpt lat="45.495279030874372" lon="3.489180011674762">
        <ele>826.38999999999999</ele>
        <time>2025-04-24T15:29:14Z</time>
      </trkpt>
      <trkpt lat="45.495435018092394" lon="3.489168025553227">
        <ele>825.90999999999997</ele>
        <time>2025-04-24T15:29:15Z</time>
      </trkpt>
      <trkpt lat="45.495607014745474" lon="3.489168025553227">
        <ele>825.42999999999995</ele>
        <time>2025-04-24T15:29:16Z</time>
      </trkpt>
      <trkpt lat="45.495787980034947" lon="3.489168025553227">
        <ele>824.95000000000005</ele>
        <time>2025-04-24T15:29:17Z</time>
      </trkpt>
      <trkpt lat="45.496277986094356" lon="3.489178000018001">
        <ele>822.54999999999995</ele>
        <time>2025-04-24T15:29:20Z</time>
      </trkpt>
      <trkpt lat="45.496433973312378" lon="3.489211024716497">
        <ele>821.10000000000002</ele>
        <time>2025-04-24T15:29:21Z</time>
      </trkpt>
      <trkpt lat="45.49658602103591" lon="3.489267015829682">
        <ele>819.65999999999997</ele>
        <time>2025-04-24T15:29:22Z</time>
      </trkpt>
      <trkpt lat="45.496720969676971" lon="3.489352008327842">
        <ele>818.22000000000003</ele>
        <time>2025-04-24T15:29:23Z</time>
      </trkpt>
      <trkpt lat="45.496836975216866" lon="3.489425014704466">
        <ele>816.77999999999997</ele>
        <time>2025-04-24T15:29:24Z</time>
      </trkpt>
      <trkpt lat="45.496959015727043" lon="3.489472037181258">
        <ele>815.82000000000005</ele>
        <time>2025-04-24T15:29:25Z</time>
      </trkpt>
      <trkpt lat="45.497049959376454" lon="3.489396013319492">
        <ele>814.85000000000002</ele>
        <time>2025-04-24T15:29:26Z</time>
      </trkpt>
      <trkpt lat="45.497144004330039" lon="3.489316971972585">
        <ele>813.40999999999997</ele>
        <time>2025-04-24T15:29:27Z</time>
      </trkpt>
      <trkpt lat="45.497240982949734" lon="3.489234996959567">
        <ele>812.45000000000005</ele>
        <time>2025-04-24T15:29:28Z</time>
      </trkpt>
      <trkpt lat="45.497332010418177" lon="3.489157967269421">
        <ele>811.97000000000003</ele>
        <time>2025-04-24T15:29:29Z</time>
      </trkpt>
      <trkpt lat="45.497419014573097" lon="3.489084038883448">
        <ele>811.00999999999999</ele>
        <time>2025-04-24T15:29:30Z</time>
      </trkpt>
      <trkpt lat="45.497590005397797" lon="3.488940037786961">
        <ele>809.57000000000005</ele>
        <time>2025-04-24T15:29:32Z</time>
      </trkpt>
      <trkpt lat="45.497701987624168" lon="3.488920005038381">
        <ele>808.13</ele>
        <time>2025-04-24T15:29:33Z</time>
      </trkpt>
      <trkpt lat="45.497787985950708" lon="3.488929979503155">
        <ele>807.15999999999997</ele>
        <time>2025-04-24T15:29:34Z</time>
      </trkpt>
      <trkpt lat="45.497887982055545" lon="3.488980019465089">
        <ele>805.72000000000003</ele>
        <time>2025-04-24T15:29:35Z</time>
      </trkpt>
      <trkpt lat="45.497996024787426" lon="3.489037016406655">
        <ele>804.75999999999999</ele>
        <time>2025-04-24T15:29:36Z</time>
      </trkpt>
      <trkpt lat="45.498100966215134" lon="3.489092001691461">
        <ele>803.79999999999995</ele>
        <time>2025-04-24T15:29:37Z</time>
      </trkpt>
      <trkpt lat="45.498190987855196" lon="3.489107005298138">
        <ele>802.36000000000001</ele>
        <time>2025-04-24T15:29:38Z</time>
      </trkpt>
      <trkpt lat="45.498269023373723" lon="3.489059982821345">
        <ele>801.39999999999998</ele>
        <time>2025-04-24T15:29:39Z</time>
      </trkpt>
      <trkpt lat="45.498313028365374" lon="3.488971972838044">
        <ele>800.44000000000005</ele>
        <time>2025-04-24T15:29:40Z</time>
      </trkpt>
      <trkpt lat="45.49832995980978" lon="3.48889896646142">
        <ele>799.47000000000003</ele>
        <time>2025-04-24T15:29:41Z</time>
      </trkpt>
      <trkpt lat="45.498317973688245" lon="3.488771980628371">
        <ele>798.99000000000001</ele>
        <time>2025-04-24T15:29:42Z</time>
      </trkpt>
      <trkpt lat="45.498304981738329" lon="3.488634014502168">
        <ele>798.02999999999997</ele>
        <time>2025-04-24T15:29:43Z</time>
      </trkpt>
      <trkpt lat="45.498290983960032" lon="3.48848800174892">
        <ele>797.07000000000005</ele>
        <time>2025-04-24T15:29:44Z</time>
      </trkpt>
      <trkpt lat="45.498276986181736" lon="3.488344000652432">
        <ele>796.11000000000001</ele>
        <time>2025-04-24T15:29:45Z</time>
      </trkpt>
      <trkpt lat="45.4982840269804" lon="3.488193964585662">
        <ele>794.66999999999996</ele>
        <time>2025-04-24T15:29:46Z</time>
      </trkpt>
      <trkpt lat="45.498335994780064" lon="3.488067984580994">
        <ele>793.71000000000004</ele>
        <time>2025-04-24T15:29:47Z</time>
      </trkpt>
      <trkpt lat="45.498415036126971" lon="3.487936975434423">
        <ele>792.74000000000001</ele>
        <time>2025-04-24T15:29:48Z</time>
      </trkpt>
      <trkpt lat="45.498516038060188" lon="3.487893976271153">
        <ele>792.25999999999999</ele>
        <time>2025-04-24T15:29:49Z</time>
      </trkpt>
      <trkpt lat="45.498639000579715" lon="3.487875033169985">
        <ele>791.29999999999995</ele>
        <time>2025-04-24T15:29:50Z</time>
      </trkpt>
      <trkpt lat="45.498761041089892" lon="3.487867992371321">
        <ele>790.82000000000005</ele>
        <time>2025-04-24T15:29:51Z</time>
      </trkpt>
      <trkpt lat="45.498956004157662" lon="3.487830022349954">
        <ele>789.86000000000001</ele>
        <time>2025-04-24T15:29:53Z</time>
      </trkpt>
      <trkpt lat="45.499042002484202" lon="3.487773025408387">
        <ele>789.86000000000001</ele>
        <time>2025-04-24T15:29:54Z</time>
      </trkpt>
      <trkpt lat="45.499081984162331" lon="3.487678980454803">
        <ele>789.38</ele>
        <time>2025-04-24T15:29:55Z</time>
      </trkpt>
      <trkpt lat="45.499103022739291" lon="3.48754202015698">
        <ele>788.89999999999998</ele>
        <time>2025-04-24T15:29:56Z</time>
      </trkpt>
      <trkpt lat="45.499096987769008" lon="3.487377986311913">
        <ele>788.89999999999998</ele>
        <time>2025-04-24T15:29:57Z</time>
      </trkpt>
      <trkpt lat="45.499090030789375" lon="3.48720196634531">
        <ele>788.41999999999996</ele>
        <time>2025-04-24T15:29:58Z</time>
      </trkpt>
      <trkpt lat="45.499097993597388" lon="3.486999040469527">
        <ele>787.94000000000005</ele>
        <time>2025-04-24T15:29:59Z</time>
      </trkpt>
      <trkpt lat="45.499152978882194" lon="3.486820003017783">
        <ele>787.94000000000005</ele>
        <time>2025-04-24T15:30:00Z</time>
      </trkpt>
      <trkpt lat="45.499371998012066" lon="3.486099997535348">
        <ele>788.89999999999998</ele>
        <time>2025-04-24T15:30:04Z</time>
      </trkpt>
      <trkpt lat="45.499470988288522" lon="3.485967982560396">
        <ele>788.89999999999998</ele>
        <time>2025-04-24T15:30:05Z</time>
      </trkpt>
      <trkpt lat="45.499589005485177" lon="3.48584602586925">
        <ele>788.89999999999998</ele>
        <time>2025-04-24T15:30:06Z</time>
      </trkpt>
      <trkpt lat="45.499714985489845" lon="3.48571602255106">
        <ele>789.38</ele>
        <time>2025-04-24T15:30:07Z</time>
      </trkpt>
      <trkpt lat="45.4998520296067" lon="3.485574033111334">
        <ele>789.86000000000001</ele>
        <time>2025-04-24T15:30:08Z</time>
      </trkpt>
      <trkpt lat="45.499989995732903" lon="3.485431959852576">
        <ele>790.34000000000003</ele>
        <time>2025-04-24T15:30:09Z</time>
      </trkpt>
      <trkpt lat="45.500111030414701" lon="3.485261974856257">
        <ele>790.82000000000005</ele>
        <time>2025-04-24T15:30:10Z</time>
      </trkpt>
      <trkpt lat="45.500216977670789" lon="3.48507204093039">
        <ele>791.29999999999995</ele>
        <time>2025-04-24T15:30:11Z</time>
      </trkpt>
      <trkpt lat="45.50041101872921" lon="3.484669961035252">
        <ele>791.29999999999995</ele>
        <time>2025-04-24T15:30:13Z</time>
      </trkpt>
      <trkpt lat="45.500587038695812" lon="3.484295960515738">
        <ele>792.25999999999999</ele>
        <time>2025-04-24T15:30:15Z</time>
      </trkpt>
      <trkpt lat="45.500753000378609" lon="3.483942998573184">
        <ele>792.74000000000001</ele>
        <time>2025-04-24T15:30:17Z</time>
      </trkpt>
      <trkpt lat="45.50090697593987" lon="3.483616020530462">
        <ele>793.71000000000004</ele>
        <time>2025-04-24T15:30:19Z</time>
      </trkpt>
      <trkpt lat="45.501007977873087" lon="3.483461961150169">
        <ele>794.19000000000005</ele>
        <time>2025-04-24T15:30:20Z</time>
      </trkpt>
      <trkpt lat="45.501123983412981" lon="3.483306979760528">
        <ele>794.19000000000005</ele>
        <time>2025-04-24T15:30:21Z</time>
      </trkpt>
      <trkpt lat="45.502040041610599" lon="3.482224959880114">
        <ele>797.54999999999995</ele>
        <time>2025-04-24T15:30:28Z</time>
      </trkpt>
      <trkpt lat="45.502199968323112" lon="3.482134016230702">
        <ele>798.02999999999997</ele>
        <time>2025-04-24T15:30:29Z</time>
      </trkpt>
      <trkpt lat="45.502362996339798" lon="3.482040977105498">
        <ele>798.50999999999999</ele>
        <time>2025-04-24T15:30:30Z</time>
      </trkpt>
      <trkpt lat="45.502522001042962" lon="3.481970988214016">
        <ele>798.99000000000001</ele>
        <time>2025-04-24T15:30:31Z</time>
      </trkpt>
      <trkpt lat="45.5026909802109" lon="3.48191499710083">
        <ele>798.99000000000001</ele>
        <time>2025-04-24T15:30:32Z</time>
      </trkpt>
      <trkpt lat="45.502867000177503" lon="3.481855988502502">
        <ele>799.47000000000003</ele>
        <time>2025-04-24T15:30:33Z</time>
      </trkpt>
      <trkpt lat="45.503046959638596" lon="3.481795974075794">
        <ele>799.95000000000005</ele>
        <time>2025-04-24T15:30:34Z</time>
      </trkpt>
      <trkpt lat="45.503939967602491" lon="3.481795974075794">
        <ele>799.47000000000003</ele>
        <time>2025-04-24T15:30:39Z</time>
      </trkpt>
      <trkpt lat="45.504081035032868" lon="3.481830004602671">
        <ele>798.99000000000001</ele>
        <time>2025-04-24T15:30:40Z</time>
      </trkpt>
      <trkpt lat="45.504213972017169" lon="3.481862023472786">
        <ele>798.50999999999999</ele>
        <time>2025-04-24T15:30:41Z</time>
      </trkpt>
      <trkpt lat="45.504339030012488" lon="3.481839979067445">
        <ele>798.99000000000001</ele>
        <time>2025-04-24T15:30:42Z</time>
      </trkpt>
      <trkpt lat="45.504478001967072" lon="3.48178599961102">
        <ele>799.47000000000003</ele>
        <time>2025-04-24T15:30:43Z</time>
      </trkpt>
      <trkpt lat="45.504608005285263" lon="3.481735037639737">
        <ele>799.95000000000005</ele>
        <time>2025-04-24T15:30:44Z</time>
      </trkpt>
      <trkpt lat="45.50473197363317" lon="3.481718022376299">
        <ele>799.95000000000005</ele>
        <time>2025-04-24T15:30:45Z</time>
      </trkpt>
      <trkpt lat="45.504847979173064" lon="3.481711987406015">
        <ele>800.44000000000005</ele>
        <time>2025-04-24T15:30:46Z</time>
      </trkpt>
      <trkpt lat="45.504954010248184" lon="3.481706958264113">
        <ele>800.44000000000005</ele>
        <time>2025-04-24T15:30:47Z</time>
      </trkpt>
      <trkpt lat="45.505045037716627" lon="3.481703018769622">
        <ele>799.95000000000005</ele>
        <time>2025-04-24T15:30:48Z</time>
      </trkpt>
      <trkpt lat="45.50511796027422" lon="3.481675023213029">
        <ele>799.95000000000005</ele>
        <time>2025-04-24T15:30:49Z</time>
      </trkpt>
      <trkpt lat="45.505175963044167" lon="3.481617020443082">
        <ele>800.44000000000005</ele>
        <time>2025-04-24T15:30:50Z</time>
      </trkpt>
      <trkpt lat="45.505203036591411" lon="3.481531022116542">
        <ele>800.44000000000005</ele>
        <time>2025-04-24T15:30:51Z</time>
      </trkpt>
      <trkpt lat="45.505236983299255" lon="3.48141903989017">
        <ele>800.44000000000005</ele>
        <time>2025-04-24T15:30:52Z</time>
      </trkpt>
      <trkpt lat="45.505221979692578" lon="3.481326000764966">
        <ele>800.44000000000005</ele>
        <time>2025-04-24T15:30:53Z</time>
      </trkpt>
      <trkpt lat="45.505180992186069" lon="3.481185017153621">
        <ele>800.91999999999996</ele>
        <time>2025-04-24T15:30:54Z</time>
      </trkpt>
      <trkpt lat="45.505136987194419" lon="3.481029029935598">
        <ele>801.39999999999998</ele>
        <time>2025-04-24T15:30:55Z</time>
      </trkpt>
      <trkpt lat="45.505041014403105" lon="3.480692999437451">
        <ele>802.36000000000001</ele>
        <time>2025-04-24T15:30:57Z</time>
      </trkpt>
      <trkpt lat="45.504986029118299" lon="3.480484038591385">
        <ele>802.84000000000003</ele>
        <time>2025-04-24T15:30:58Z</time>
      </trkpt>
      <trkpt lat="45.504994997754693" lon="3.480292009189725">
        <ele>803.32000000000005</ele>
        <time>2025-04-24T15:30:59Z</time>
      </trkpt>
      <trkpt lat="45.505022993311286" lon="3.479707036167383">
        <ele>805.24000000000001</ele>
        <time>2025-04-24T15:31:02Z</time>
      </trkpt>
      <trkpt lat="45.505048977211118" lon="3.479505032300949">
        <ele>805.72000000000003</ele>
        <time>2025-04-24T15:31:03Z</time>
      </trkpt>
      <trkpt lat="45.505174035206437" lon="3.478958029299974">
        <ele>807.63999999999999</ele>
        <time>2025-04-24T15:31:06Z</time>
      </trkpt>
      <trkpt lat="45.505222985520959" lon="3.478828025981784">
        <ele>807.63999999999999</ele>
        <time>2025-04-24T15:31:07Z</time>
      </trkpt>
      <trkpt lat="45.505306972190738" lon="3.478760970756412">
        <ele>808.13</ele>
        <time>2025-04-24T15:31:08Z</time>
      </trkpt>
      <trkpt lat="45.505378972738981" lon="3.478717971593142">
        <ele>808.13</ele>
        <time>2025-04-24T15:31:09Z</time>
      </trkpt>
      <trkpt lat="45.50543999299407" lon="3.478681007400155">
        <ele>808.61000000000001</ele>
        <time>2025-04-24T15:31:10Z</time>
      </trkpt>
      <trkpt lat="45.505477963015437" lon="3.478658040985465">
        <ele>808.61000000000001</ele>
        <time>2025-04-24T15:31:11Z</time>
      </trkpt>
      <trkpt lat="45.505499001592398" lon="3.478645971044898">
        <ele>808.61000000000001</ele>
        <time>2025-04-24T15:31:12Z</time>
      </trkpt>
      <trkpt lat="45.505499001592398" lon="3.478645971044898">
        <ele>809.09000000000003</ele>
        <time>2025-04-24T15:31:25Z</time>
      </trkpt>
      <trkpt lat="45.505502019077539" lon="3.478643959388137">
        <ele>809.09000000000003</ele>
        <time>2025-04-24T15:31:58Z</time>
      </trkpt>
      <trkpt lat="45.505537977442145" lon="3.478623004630208">
        <ele>810.04999999999995</ele>
        <time>2025-04-24T15:31:59Z</time>
      </trkpt>
      <trkpt lat="45.506048016250134" lon="3.478309018537402">
        <ele>812.92999999999995</ele>
        <time>2025-04-24T15:32:05Z</time>
      </trkpt>
      <trkpt lat="45.506152035668492" lon="3.47824296914041">
        <ele>812.92999999999995</ele>
        <time>2025-04-24T15:32:06Z</time>
      </trkpt>
      <trkpt lat="45.506264017894864" lon="3.478179015219212">
        <ele>813.40999999999997</ele>
        <time>2025-04-24T15:32:07Z</time>
      </trkpt>
      <trkpt lat="45.506392009556293" lon="3.478150013834238">
        <ele>813.40999999999997</ele>
        <time>2025-04-24T15:32:08Z</time>
      </trkpt>
      <trkpt lat="45.506528969854116" lon="3.478120006620884">
        <ele>813.40999999999997</ele>
        <time>2025-04-24T15:32:09Z</time>
      </trkpt>
      <trkpt lat="45.506659979000688" lon="3.478080024942756">
        <ele>813.40999999999997</ele>
        <time>2025-04-24T15:32:10Z</time>
      </trkpt>
      <trkpt lat="45.506774978712201" lon="3.477999977767468">
        <ele>813.88999999999999</ele>
        <time>2025-04-24T15:32:11Z</time>
      </trkpt>
      <trkpt lat="45.506874974817038" lon="3.477911967784166">
        <ele>813.88999999999999</ele>
        <time>2025-04-24T15:32:12Z</time>
      </trkpt>
      <trkpt lat="45.506958039477468" lon="3.477791016921401">
        <ele>814.37</ele>
        <time>2025-04-24T15:32:13Z</time>
      </trkpt>
      <trkpt lat="45.507044037804008" lon="3.477665958926082">
        <ele>813.88999999999999</ele>
        <time>2025-04-24T15:32:14Z</time>
      </trkpt>
      <trkpt lat="45.507241012528539" lon="3.477378962561488">
        <ele>813.40999999999997</ele>
        <time>2025-04-24T15:32:17Z</time>
      </trkpt>
      <trkpt lat="45.507283005863428" lon="3.477319031953812">
        <ele>812.92999999999995</ele>
        <time>2025-04-24T15:32:18Z</time>
      </trkpt>
      <trkpt lat="45.507306978106499" lon="3.477231021970511">
        <ele>812.45000000000005</ele>
        <time>2025-04-24T15:32:19Z</time>
      </trkpt>
      <trkpt lat="45.507269008085132" lon="3.477168995887041">
        <ele>811.97000000000003</ele>
        <time>2025-04-24T15:32:20Z</time>
      </trkpt>
      <trkpt lat="45.507217040285468" lon="3.477082997560501">
        <ele>811.49000000000001</ele>
        <time>2025-04-24T15:32:21Z</time>
      </trkpt>
      <trkpt lat="45.507149985060096" lon="3.476974032819271">
        <ele>811.49000000000001</ele>
        <time>2025-04-24T15:32:22Z</time>
      </trkpt>
      <trkpt lat="45.5063830409199" lon="3.475756980478764">
        <ele>810.52999999999997</ele>
        <time>2025-04-24T15:32:31Z</time>
      </trkpt>
      <trkpt lat="45.505543006584048" lon="3.474727012217045">
        <ele>804.75999999999999</ele>
        <time>2025-04-24T15:32:38Z</time>
      </trkpt>
      <trkpt lat="45.505438987165689" lon="3.474545041099191">
        <ele>803.32000000000005</ele>
        <time>2025-04-24T15:32:39Z</time>
      </trkpt>
      <trkpt lat="45.504780001938343" lon="3.473559999838471">
        <ele>792.25999999999999</ele>
        <time>2025-04-24T15:32:45Z</time>
      </trkpt>
      <trkpt lat="45.504705989733338" lon="3.473461009562016">
        <ele>790.82000000000005</ele>
        <time>2025-04-24T15:32:46Z</time>
      </trkpt>
      <trkpt lat="45.504684029147029" lon="3.4732770267874">
        <ele>788.89999999999998</ele>
        <time>2025-04-24T15:32:47Z</time>
      </trkpt>
      <trkpt lat="45.50466500222683" lon="3.473132019862533">
        <ele>787.46000000000004</ele>
        <time>2025-04-24T15:32:48Z</time>
      </trkpt>
      <trkpt lat="45.504674976691604" lon="3.472989024594426">
        <ele>786.01999999999998</ele>
        <time>2025-04-24T15:32:49Z</time>
      </trkpt>
      <trkpt lat="45.504696015268564" lon="3.472835971042514">
        <ele>784.09000000000003</ele>
        <time>2025-04-24T15:32:50Z</time>
      </trkpt>
      <trkpt lat="45.504733985289931" lon="3.472670009359717">
        <ele>782.64999999999998</ele>
        <time>2025-04-24T15:32:51Z</time>
      </trkpt>
      <trkpt lat="45.504834987223148" lon="3.47216097638011">
        <ele>777.36000000000001</ele>
        <time>2025-04-24T15:32:54Z</time>
      </trkpt>
      <trkpt lat="45.504834987223148" lon="3.472015969455242">
        <ele>776.39999999999998</ele>
        <time>2025-04-24T15:32:55Z</time>
      </trkpt>
      <trkpt lat="45.504834987223148" lon="3.471872974187136">
        <ele>774.96000000000004</ele>
        <time>2025-04-24T15:32:56Z</time>
      </trkpt>
      <trkpt lat="45.504801040515304" lon="3.471745988354087">
        <ele>774</ele>
        <time>2025-04-24T15:32:57Z</time>
      </trkpt>
      <trkpt lat="45.50475100055337" lon="3.471609028056264">
        <ele>773.03999999999996</ele>
        <time>2025-04-24T15:32:58Z</time>
      </trkpt>
      <trkpt lat="45.504667013883591" lon="3.471491010859609">
        <ele>772.08000000000004</ele>
        <time>2025-04-24T15:32:59Z</time>
      </trkpt>
      <trkpt lat="45.504577998071909" lon="3.47136695869267">
        <ele>771.11000000000001</ele>
        <time>2025-04-24T15:33:00Z</time>
      </trkpt>
      <trkpt lat="45.504299970343709" lon="3.470863038673997">
        <ele>766.78999999999996</ele>
        <time>2025-04-24T15:33:04Z</time>
      </trkpt>
      <trkpt lat="45.504265017807484" lon="3.470787014812231">
        <ele>765.83000000000004</ele>
        <time>2025-04-24T15:33:05Z</time>
      </trkpt>
      <trkpt lat="45.504201985895634" lon="3.470650976523757">
        <ele>763.89999999999998</ele>
        <time>2025-04-24T15:33:07Z</time>
      </trkpt>
      <trkpt lat="45.504140965640545" lon="3.470639996230602">
        <ele>762.94000000000005</ele>
        <time>2025-04-24T15:33:08Z</time>
      </trkpt>
      <trkpt lat="45.504068965092301" lon="3.470657011494041">
        <ele>761.98000000000002</ele>
        <time>2025-04-24T15:33:09Z</time>
      </trkpt>
      <trkpt lat="45.503981960937381" lon="3.470677966251969">
        <ele>761.01999999999998</ele>
        <time>2025-04-24T15:33:10Z</time>
      </trkpt>
      <trkpt lat="45.503880959004164" lon="3.470702022314072">
        <ele>760.53999999999996</ele>
        <time>2025-04-24T15:33:11Z</time>
      </trkpt>
      <trkpt lat="45.503638973459601" lon="3.470735969021916">
        <ele>758.62</ele>
        <time>2025-04-24T15:33:13Z</time>
      </trkpt>
      <trkpt lat="45.503508970141411" lon="3.470694981515408">
        <ele>757.17999999999995</ele>
        <time>2025-04-24T15:33:14Z</time>
      </trkpt>
      <trkpt lat="45.503391958773136" lon="3.470618035644293">
        <ele>756.21000000000004</ele>
        <time>2025-04-24T15:33:15Z</time>
      </trkpt>
      <trkpt lat="45.503272013738751" lon="3.470537988469005">
        <ele>754.76999999999998</ele>
        <time>2025-04-24T15:33:16Z</time>
      </trkpt>
      <trkpt lat="45.503147961571813" lon="3.470455007627606">
        <ele>753.80999999999995</ele>
        <time>2025-04-24T15:33:17Z</time>
      </trkpt>
      <trkpt lat="45.502892984077334" lon="3.470285022631288">
        <ele>752.37</ele>
        <time>2025-04-24T15:33:19Z</time>
      </trkpt>
      <trkpt lat="45.502759963274002" lon="3.470206987112761">
        <ele>751.40999999999997</ele>
        <time>2025-04-24T15:33:20Z</time>
      </trkpt>
      <trkpt lat="45.502615962177515" lon="3.470153007656336">
        <ele>750.45000000000005</ele>
        <time>2025-04-24T15:33:21Z</time>
      </trkpt>
      <trkpt lat="45.501476023346186" lon="3.469833992421627">
        <ele>746.12</ele>
        <time>2025-04-24T15:33:30Z</time>
      </trkpt>
      <trkpt lat="45.50138097256422" lon="3.469833992421627">
        <ele>746.12</ele>
        <time>2025-04-24T15:33:31Z</time>
      </trkpt>
      <trkpt lat="45.501280976459384" lon="3.469833992421627">
        <ele>746.12</ele>
        <time>2025-04-24T15:33:32Z</time>
      </trkpt>
      <trkpt lat="45.500817960128188" lon="3.469942035153508">
        <ele>746.12</ele>
        <time>2025-04-24T15:33:36Z</time>
      </trkpt>
      <trkpt lat="45.500717964023352" lon="3.469927031546831">
        <ele>746.12</ele>
        <time>2025-04-24T15:33:37Z</time>
      </trkpt>
      <trkpt lat="45.500641018152237" lon="3.469865005463362">
        <ele>746.12</ele>
        <time>2025-04-24T15:33:38Z</time>
      </trkpt>
      <trkpt lat="45.500603970140219" lon="3.469770038500428">
        <ele>746.12</ele>
        <time>2025-04-24T15:33:39Z</time>
      </trkpt>
      <trkpt lat="45.500567005947232" lon="3.469630982726812">
        <ele>745.63999999999999</ele>
        <time>2025-04-24T15:33:40Z</time>
      </trkpt>
      <trkpt lat="45.500591984018683" lon="3.469520006328821">
        <ele>745.15999999999997</ele>
        <time>2025-04-24T15:33:41Z</time>
      </trkpt>
      <trkpt lat="45.500689968466759" lon="3.469380028545857">
        <ele>744.67999999999995</ele>
        <time>2025-04-24T15:33:42Z</time>
      </trkpt>
      <trkpt lat="45.500788036733866" lon="3.469296963885427">
        <ele>744.67999999999995</ele>
        <time>2025-04-24T15:33:43Z</time>
      </trkpt>
      <trkpt lat="45.501556992530823" lon="3.468596991151571">
        <ele>749.97000000000003</ele>
        <time>2025-04-24T15:33:49Z</time>
      </trkpt>
      <trkpt lat="45.501895034685731" lon="3.468246962875128">
        <ele>753.80999999999995</ele>
        <time>2025-04-24T15:33:52Z</time>
      </trkpt>
      <trkpt lat="45.501966029405594" lon="3.468085024505854">
        <ele>755.25</ele>
        <time>2025-04-24T15:33:53Z</time>
      </trkpt>
      <trkpt lat="45.502020008862019" lon="3.467960972338915">
        <ele>756.69000000000005</ele>
        <time>2025-04-24T15:33:54Z</time>
      </trkpt>
      <trkpt lat="45.502053033560514" lon="3.467845972627401">
        <ele>758.13999999999999</ele>
        <time>2025-04-24T15:33:55Z</time>
      </trkpt>
      <trkpt lat="45.502051021903753" lon="3.46769099123776">
        <ele>759.10000000000002</ele>
        <time>2025-04-24T15:33:56Z</time>
      </trkpt>
      <trkpt lat="45.501982038840652" lon="3.467571968212724">
        <ele>760.53999999999996</ele>
        <time>2025-04-24T15:33:57Z</time>
      </trkpt>
      <trkpt lat="45.501867961138487" lon="3.467508014291525">
        <ele>761.5</ele>
        <time>2025-04-24T15:33:58Z</time>
      </trkpt>
      <trkpt lat="45.501741981133819" lon="3.467508014291525">
        <ele>762.46000000000004</ele>
        <time>2025-04-24T15:33:59Z</time>
      </trkpt>
      <trkpt lat="45.501618012785912" lon="3.467570040374994">
        <ele>763.89999999999998</ele>
        <time>2025-04-24T15:34:00Z</time>
      </trkpt>
      <trkpt lat="45.50146596506238" lon="3.467645980417728">
        <ele>764.87</ele>
        <time>2025-04-24T15:34:01Z</time>
      </trkpt>
      <trkpt lat="45.50133696757257" lon="3.467645980417728">
        <ele>765.83000000000004</ele>
        <time>2025-04-24T15:34:02Z</time>
      </trkpt>
      <trkpt lat="45.501191960647702" lon="3.46754003316164">
        <ele>766.30999999999995</ele>
        <time>2025-04-24T15:34:03Z</time>
      </trkpt>
      <trkpt lat="45.50105600617826" lon="3.467424027621746">
        <ele>767.75</ele>
        <time>2025-04-24T15:34:04Z</time>
      </trkpt>
      <trkpt lat="45.50092700868845" lon="3.467313973233104">
        <ele>768.71000000000004</ele>
        <time>2025-04-24T15:34:05Z</time>
      </trkpt>
      <trkpt lat="45.50039098598063" lon="3.46706603653729">
        <ele>771.60000000000002</ele>
        <time>2025-04-24T15:34:09Z</time>
      </trkpt>
      <trkpt lat="45.500268023461103" lon="3.46706603653729">
        <ele>772.55999999999995</ele>
        <time>2025-04-24T15:34:10Z</time>
      </trkpt>
      <trkpt lat="45.500149000436068" lon="3.467083973810077">
        <ele>773.51999999999998</ele>
        <time>2025-04-24T15:34:11Z</time>
      </trkpt>
      <trkpt lat="45.500022014603019" lon="3.467129990458489">
        <ele>774</ele>
        <time>2025-04-24T15:34:12Z</time>
      </trkpt>
      <trkpt lat="45.499883964657784" lon="3.467179024592042">
        <ele>774.48000000000002</ele>
        <time>2025-04-24T15:34:13Z</time>
      </trkpt>
      <trkpt lat="45.499595040455461" lon="3.46728103235364">
        <ele>775.44000000000005</ele>
        <time>2025-04-24T15:34:15Z</time>
      </trkpt>
      <trkpt lat="45.499443998560309" lon="3.46728103235364">
        <ele>775.91999999999996</ele>
        <time>2025-04-24T15:34:16Z</time>
      </trkpt>
      <trkpt lat="45.499306032434106" lon="3.467256976291537">
        <ele>776.39999999999998</ele>
        <time>2025-04-24T15:34:17Z</time>
      </trkpt>
      <trkpt lat="45.499190026894212" lon="3.467179024592042">
        <ele>777.36000000000001</ele>
        <time>2025-04-24T15:34:18Z</time>
      </trkpt>
      <trkpt lat="45.499089024960995" lon="3.467093026265502">
        <ele>777.84000000000003</ele>
        <time>2025-04-24T15:34:19Z</time>
      </trkpt>
      <trkpt lat="45.499014006927609" lon="3.466980960220099">
        <ele>778.80999999999995</ele>
        <time>2025-04-24T15:34:20Z</time>
      </trkpt>
      <trkpt lat="45.498947035521269" lon="3.466827990487218">
        <ele>779.76999999999998</ele>
        <time>2025-04-24T15:34:21Z</time>
      </trkpt>
      <trkpt lat="45.498876040801406" lon="3.466664962470532">
        <ele>780.73000000000002</ele>
        <time>2025-04-24T15:34:22Z</time>
      </trkpt>
      <trkpt lat="45.498785013332963" lon="3.466491037979722">
        <ele>781.69000000000005</ele>
        <time>2025-04-24T15:34:23Z</time>
      </trkpt>
      <trkpt lat="45.498680993914604" lon="3.466339996084571">
        <ele>782.16999999999996</ele>
        <time>2025-04-24T15:34:24Z</time>
      </trkpt>
      <trkpt lat="45.498541016131639" lon="3.466201024129987">
        <ele>782.64999999999998</ele>
        <time>2025-04-24T15:34:25Z</time>
      </trkpt>
      <trkpt lat="45.498398020863533" lon="3.466091975569725">
        <ele>783.61000000000001</ele>
        <time>2025-04-24T15:34:26Z</time>
      </trkpt>
      <trkpt lat="45.498257037252188" lon="3.46597102470696">
        <ele>784.09000000000003</ele>
        <time>2025-04-24T15:34:27Z</time>
      </trkpt>
      <trkpt lat="45.49815502949059" lon="3.465790981426835">
        <ele>784.57000000000005</ele>
        <time>2025-04-24T15:34:28Z</time>
      </trkpt>
      <trkpt lat="45.497903991490602" lon="3.46535000950098">
        <ele>786.01999999999998</ele>
        <time>2025-04-24T15:34:31Z</time>
      </trkpt>
      <trkpt lat="45.497818998992443" lon="3.465312961488962">
        <ele>786.5</ele>
        <time>2025-04-24T15:34:32Z</time>
      </trkpt>
      <trkpt lat="45.497754039242864" lon="3.465284965932369">
        <ele>786.98000000000002</ele>
        <time>2025-04-24T15:34:33Z</time>
      </trkpt>
      <trkpt lat="45.497680027037859" lon="3.465359983965755">
        <ele>787.94000000000005</ele>
        <time>2025-04-24T15:34:34Z</time>
      </trkpt>
      <trkpt lat="45.497626969590783" lon="3.465452017262578">
        <ele>788.41999999999996</ele>
        <time>2025-04-24T15:34:35Z</time>
      </trkpt>
      <trkpt lat="45.497540971264243" lon="3.46567103639245">
        <ele>789.38</ele>
        <time>2025-04-24T15:34:36Z</time>
      </trkpt>
      <trkpt lat="45.497276019304991" lon="3.46595099195838">
        <ele>791.29999999999995</ele>
        <time>2025-04-24T15:34:38Z</time>
      </trkpt>
      <trkpt lat="45.497131012380123" lon="3.466103039681912">
        <ele>791.77999999999997</ele>
        <time>2025-04-24T15:34:39Z</time>
      </trkpt>
      <trkpt lat="45.496528018265963" lon="3.466708967462182">
        <ele>796.11000000000001</ele>
        <time>2025-04-24T15:34:43Z</time>
      </trkpt>
      <trkpt lat="45.496229035779834" lon="3.466878030449152">
        <ele>798.02999999999997</ele>
        <time>2025-04-24T15:34:45Z</time>
      </trkpt>
      <trkpt lat="45.496058966964483" lon="3.466958999633789">
        <ele>798.99000000000001</ele>
        <time>2025-04-24T15:34:46Z</time>
      </trkpt>
      <trkpt lat="45.495928963646293" lon="3.466948019340634">
        <ele>799.95000000000005</ele>
        <time>2025-04-24T15:34:47Z</time>
      </trkpt>
      <trkpt lat="45.495607014745474" lon="3.466777028515935">
        <ele>802.84000000000003</ele>
        <time>2025-04-24T15:34:49Z</time>
      </trkpt>
      <trkpt lat="45.495289005339146" lon="3.466517021879554">
        <ele>805.72000000000003</ele>
        <time>2025-04-24T15:34:51Z</time>
      </trkpt>
      <trkpt lat="45.495133018121123" lon="3.466374026611447">
        <ele>807.63999999999999</ele>
        <time>2025-04-24T15:34:52Z</time>
      </trkpt>
      <trkpt lat="45.494828000664711" lon="3.46606096252799">
        <ele>811.00999999999999</ele>
        <time>2025-04-24T15:34:54Z</time>
      </trkpt>
      <trkpt lat="45.494676036760211" lon="3.465905981138349">
        <ele>812.45000000000005</ele>
        <time>2025-04-24T15:34:55Z</time>
      </trkpt>
      <trkpt lat="45.49426800571382" lon="3.465386973693967">
        <ele>816.77999999999997</ele>
        <time>2025-04-24T15:34:58Z</time>
      </trkpt>
      <trkpt lat="45.493541965261102" lon="3.464221972972155">
        <ele>824.95000000000005</ele>
        <time>2025-04-24T15:35:04Z</time>
      </trkpt>
      <trkpt lat="45.493226973339915" lon="3.463955009356141">
        <ele>827.35000000000002</ele>
        <time>2025-04-24T15:35:06Z</time>
      </trkpt>
      <trkpt lat="45.493077021092176" lon="3.463888959959149">
        <ele>828.30999999999995</ele>
        <time>2025-04-24T15:35:07Z</time>
      </trkpt>
      <trkpt lat="45.492811985313892" lon="3.463757028803229">
        <ele>829.75999999999999</ele>
        <time>2025-04-24T15:35:09Z</time>
      </trkpt>
      <trkpt lat="45.492663960903883" lon="3.463620990514755">
        <ele>831.67999999999995</ele>
        <time>2025-04-24T15:35:11Z</time>
      </trkpt>
      <trkpt lat="45.492523983120918" lon="3.463511019945145">
        <ele>832.15999999999997</ele>
        <time>2025-04-24T15:35:13Z</time>
      </trkpt>
      <trkpt lat="45.491798026487231" lon="3.463228968903422">
        <ele>830.72000000000003</ele>
        <time>2025-04-24T15:35:19Z</time>
      </trkpt>
      <trkpt lat="45.491699958220124" lon="3.463113969191909">
        <ele>830.24000000000001</ele>
        <time>2025-04-24T15:35:20Z</time>
      </trkpt>
      <trkpt lat="45.491616977378726" lon="3.463011039420962">
        <ele>830.24000000000001</ele>
        <time>2025-04-24T15:35:21Z</time>
      </trkpt>
      <trkpt lat="45.491546988487244" lon="3.462813980877399">
        <ele>830.72000000000003</ele>
        <time>2025-04-24T15:35:22Z</time>
      </trkpt>
      <trkpt lat="45.491481022909284" lon="3.462627986446023">
        <ele>830.72000000000003</ele>
        <time>2025-04-24T15:35:23Z</time>
      </trkpt>
      <trkpt lat="45.491412039846182" lon="3.462432017549872">
        <ele>830.72000000000003</ele>
        <time>2025-04-24T15:35:24Z</time>
      </trkpt>
      <trkpt lat="45.491308020427823" lon="3.462231019511819">
        <ele>831.20000000000005</ele>
        <time>2025-04-24T15:35:25Z</time>
      </trkpt>
      <trkpt lat="45.491195032373071" lon="3.462053993716836">
        <ele>831.20000000000005</ele>
        <time>2025-04-24T15:35:26Z</time>
      </trkpt>
      <trkpt lat="45.491081038489938" lon="3.461875040084124">
        <ele>831.67999999999995</ele>
        <time>2025-04-24T15:35:27Z</time>
      </trkpt>
      <trkpt lat="45.490967966616154" lon="3.461698014289141">
        <ele>831.67999999999995</ele>
        <time>2025-04-24T15:35:28Z</time>
      </trkpt>
      <trkpt lat="45.49085003323853" lon="3.461528029292822">
        <ele>831.67999999999995</ele>
        <time>2025-04-24T15:35:29Z</time>
      </trkpt>
      <trkpt lat="45.49072396941483" lon="3.461380004882813">
        <ele>832.15999999999997</ele>
        <time>2025-04-24T15:35:30Z</time>
      </trkpt>
      <trkpt lat="45.490581979975104" lon="3.461252013221383">
        <ele>832.15999999999997</ele>
        <time>2025-04-24T15:35:31Z</time>
      </trkpt>
      <trkpt lat="45.490431021898985" lon="3.461157968267798">
        <ele>832.15999999999997</ele>
        <time>2025-04-24T15:35:32Z</time>
      </trkpt>
      <trkpt lat="45.490279980003834" lon="3.461096026003361">
        <ele>832.15999999999997</ele>
        <time>2025-04-24T15:35:33Z</time>
      </trkpt>
      <trkpt lat="45.490131033584476" lon="3.461053026840091">
        <ele>832.15999999999997</ele>
        <time>2025-04-24T15:35:34Z</time>
      </trkpt>
      <trkpt lat="45.489974962547421" lon="3.46100902184844">
        <ele>832.15999999999997</ele>
        <time>2025-04-24T15:35:35Z</time>
      </trkpt>
      <trkpt lat="45.48982098698616" lon="3.461016984656453">
        <ele>832.15999999999997</ele>
        <time>2025-04-24T15:35:36Z</time>
      </trkpt>
      <trkpt lat="45.489657958969474" lon="3.461055038496852">
        <ele>832.15999999999997</ele>
        <time>2025-04-24T15:35:37Z</time>
      </trkpt>
      <trkpt lat="45.489486968144774" lon="3.4610940143466">
        <ele>832.63999999999999</ele>
        <time>2025-04-24T15:35:38Z</time>
      </trkpt>
      <trkpt lat="45.489313965663314" lon="3.461125027388334">
        <ele>832.63999999999999</ele>
        <time>2025-04-24T15:35:39Z</time>
      </trkpt>
      <trkpt lat="45.48913300037384" lon="3.461135001853108">
        <ele>833.12</ele>
        <time>2025-04-24T15:35:40Z</time>
      </trkpt>
      <trkpt lat="45.488943988457322" lon="3.461133996024728">
        <ele>834.08000000000004</ele>
        <time>2025-04-24T15:35:41Z</time>
      </trkpt>
      <trkpt lat="45.488763023167849" lon="3.461083034053445">
        <ele>834.08000000000004</ele>
        <time>2025-04-24T15:35:42Z</time>
      </trkpt>
      <trkpt lat="45.488578034564853" lon="3.46103098243475">
        <ele>834.08000000000004</ele>
        <time>2025-04-24T15:35:43Z</time>
      </trkpt>
      <trkpt lat="45.487011037766933" lon="3.460689000785351">
        <ele>827.35000000000002</ele>
        <time>2025-04-24T15:35:51Z</time>
      </trkpt>
      <trkpt lat="45.485889036208391" lon="3.460650024935603">
        <ele>822.54999999999995</ele>
        <time>2025-04-24T15:35:57Z</time>
      </trkpt>
      <trkpt lat="45.485703041777015" lon="3.460626974701881">
        <ele>821.58000000000004</ele>
        <time>2025-04-24T15:35:58Z</time>
      </trkpt>
      <trkpt lat="45.484906006604433" lon="3.460302008315921">
        <ele>822.54999999999995</ele>
        <time>2025-04-24T15:36:02Z</time>
      </trkpt>
      <trkpt lat="45.484707020223141" lon="3.460244005545974">
        <ele>822.54999999999995</ele>
        <time>2025-04-24T15:36:03Z</time>
      </trkpt>
      <trkpt lat="45.484501998871565" lon="3.460206035524607">
        <ele>823.02999999999997</ele>
        <time>2025-04-24T15:36:04Z</time>
      </trkpt>
      <trkpt lat="45.483885006979108" lon="3.460001014173031">
        <ele>824.95000000000005</ele>
        <time>2025-04-24T15:36:07Z</time>
      </trkpt>
      <trkpt lat="45.48371996730566" lon="3.459859024733305">
        <ele>825.90999999999997</ele>
        <time>2025-04-24T15:36:08Z</time>
      </trkpt>
      <trkpt lat="45.483554005622864" lon="3.45969800837338">
        <ele>826.38999999999999</ele>
        <time>2025-04-24T15:36:09Z</time>
      </trkpt>
      <trkpt lat="45.482884962111712" lon="3.459136001765728">
        <ele>833.60000000000002</ele>
        <time>2025-04-24T15:36:13Z</time>
      </trkpt>
      <trkpt lat="45.482298983260989" lon="3.458756972104311">
        <ele>837.92999999999995</ele>
        <time>2025-04-24T15:36:17Z</time>
      </trkpt>
      <trkpt lat="45.482194041833282" lon="3.458652030676603">
        <ele>838.40999999999997</ele>
        <time>2025-04-24T15:36:18Z</time>
      </trkpt>
      <trkpt lat="45.482116006314754" lon="3.458477016538382">
        <ele>838.40999999999997</ele>
        <time>2025-04-24T15:36:19Z</time>
      </trkpt>
      <trkpt lat="45.48204299993813" lon="3.458288004621863">
        <ele>837.92999999999995</ele>
        <time>2025-04-24T15:36:20Z</time>
      </trkpt>
      <trkpt lat="45.481963958591223" lon="3.458082983270288">
        <ele>837.45000000000005</ele>
        <time>2025-04-24T15:36:21Z</time>
      </trkpt>
      <trkpt lat="45.481696994975209" lon="3.457434978336096">
        <ele>835.03999999999996</ele>
        <time>2025-04-24T15:36:24Z</time>
      </trkpt>
      <trkpt lat="45.481577971950173" lon="3.457268010824919">
        <ele>834.08000000000004</ele>
        <time>2025-04-24T15:36:25Z</time>
      </trkpt>
      <trkpt lat="45.481430031359196" lon="3.457139013335109">
        <ele>833.12</ele>
        <time>2025-04-24T15:36:26Z</time>
      </trkpt>
      <trkpt lat="45.481284018605947" lon="3.457011021673679">
        <ele>832.15999999999997</ele>
        <time>2025-04-24T15:36:27Z</time>
      </trkpt>
      <trkpt lat="45.481137000024319" lon="3.456882024183869">
        <ele>831.20000000000005</ele>
        <time>2025-04-24T15:36:28Z</time>
      </trkpt>
      <trkpt lat="45.480836005881429" lon="3.45658203586936">
        <ele>829.26999999999998</ele>
        <time>2025-04-24T15:36:30Z</time>
      </trkpt>
      <trkpt lat="45.480693010613322" lon="3.456399980932474">
        <ele>827.83000000000004</ele>
        <time>2025-04-24T15:36:31Z</time>
      </trkpt>
      <trkpt lat="45.480565018951893" lon="3.456182973459363">
        <ele>826.87</ele>
        <time>2025-04-24T15:36:32Z</time>
      </trkpt>
      <trkpt lat="45.480470973998308" lon="3.455930007621646">
        <ele>825.90999999999997</ele>
        <time>2025-04-24T15:36:33Z</time>
      </trkpt>
      <trkpt lat="45.480409031733871" lon="3.455662960186601">
        <ele>824.95000000000005</ele>
        <time>2025-04-24T15:36:34Z</time>
      </trkpt>
      <trkpt lat="45.480349017307162" lon="3.4554039593786">
        <ele>824.47000000000003</ele>
        <time>2025-04-24T15:36:35Z</time>
      </trkpt>
      <trkpt lat="45.480155982077122" lon="3.454667022451758">
        <ele>823.02999999999997</ele>
        <time>2025-04-24T15:36:38Z</time>
      </trkpt>
      <trkpt lat="45.480059003457427" lon="3.454451020807028">
        <ele>823.02999999999997</ele>
        <time>2025-04-24T15:36:39Z</time>
      </trkpt>
      <trkpt lat="45.479923970997334" lon="3.45426301471889">
        <ele>822.54999999999995</ele>
        <time>2025-04-24T15:36:40Z</time>
      </trkpt>
      <trkpt lat="45.479776030406356" lon="3.454093029722571">
        <ele>822.05999999999995</ele>
        <time>2025-04-24T15:36:41Z</time>
      </trkpt>
      <trkpt lat="45.479629011824727" lon="3.453924972563982">
        <ele>821.58000000000004</ele>
        <time>2025-04-24T15:36:42Z</time>
      </trkpt>
      <trkpt lat="45.478975977748632" lon="3.453174959868193">
        <ele>821.10000000000002</ele>
        <time>2025-04-24T15:36:48Z</time>
      </trkpt>
      <trkpt lat="45.478766011074185" lon="3.452934985980392">
        <ele>822.05999999999995</ele>
        <time>2025-04-24T15:36:51Z</time>
      </trkpt>
      <trkpt lat="45.478696022182703" lon="3.452864997088909">
        <ele>822.54999999999995</ele>
        <time>2025-04-24T15:36:52Z</time>
      </trkpt>
      <trkpt lat="45.478617986664176" lon="3.452809005975723">
        <ele>823.50999999999999</ele>
        <time>2025-04-24T15:36:53Z</time>
      </trkpt>
      <trkpt lat="45.478542968630791" lon="3.452766006812453">
        <ele>824.47000000000003</ele>
        <time>2025-04-24T15:36:54Z</time>
      </trkpt>
      <trkpt lat="45.478458981961012" lon="3.45273801125586">
        <ele>824.95000000000005</ele>
        <time>2025-04-24T15:36:55Z</time>
      </trkpt>
      <trkpt lat="45.478370971977711" lon="3.452710015699267">
        <ele>825.42999999999995</ele>
        <time>2025-04-24T15:36:56Z</time>
      </trkpt>
      <trkpt lat="45.478279022499919" lon="3.452686965465546">
        <ele>825.42999999999995</ele>
        <time>2025-04-24T15:36:57Z</time>
      </trkpt>
      <trkpt lat="45.477598998695612" lon="3.452516980469227">
        <ele>827.35000000000002</ele>
        <time>2025-04-24T15:37:05Z</time>
      </trkpt>
      <trkpt lat="45.477511994540691" lon="3.452495019882917">
        <ele>827.35000000000002</ele>
        <time>2025-04-24T15:37:06Z</time>
      </trkpt>
      <trkpt lat="45.476904977113008" lon="3.452340038493276">
        <ele>827.35000000000002</ele>
        <time>2025-04-24T15:37:14Z</time>
      </trkpt>
      <trkpt lat="45.476862983778119" lon="3.452328974381089">
        <ele>826.87</ele>
        <time>2025-04-24T15:37:15Z</time>
      </trkpt>
      <trkpt lat="45.476780002936721" lon="3.452112972736359">
        <ele>826.38999999999999</ele>
        <time>2025-04-24T15:37:16Z</time>
      </trkpt>
      <trkpt lat="45.476811015978456" lon="3.452059999108315">
        <ele>826.38999999999999</ele>
        <time>2025-04-24T15:37:17Z</time>
      </trkpt>
      <trkpt lat="45.476852003484964" lon="3.451989004388452">
        <ele>825.90999999999997</ele>
        <time>2025-04-24T15:37:18Z</time>
      </trkpt>
      <trkpt lat="45.476903971284628" lon="3.45189998857677">
        <ele>825.42999999999995</ele>
        <time>2025-04-24T15:37:19Z</time>
      </trkpt>
      <trkpt lat="45.476961974054575" lon="3.451793035492301">
        <ele>824.95000000000005</ele>
        <time>2025-04-24T15:37:20Z</time>
      </trkpt>
      <trkpt lat="45.47725198790431" lon="3.451249971985817">
        <ele>823.50999999999999</ele>
        <time>2025-04-24T15:37:24Z</time>
      </trkpt>
      <trkpt lat="45.477376962080598" lon="3.451158022508025">
        <ele>823.02999999999997</ele>
        <time>2025-04-24T15:37:25Z</time>
      </trkpt>
      <trkpt lat="45.477505959570408" lon="3.451075041666627">
        <ele>822.05999999999995</ele>
        <time>2025-04-24T15:37:26Z</time>
      </trkpt>
      <trkpt lat="45.477927988395095" lon="3.450806988403201">
        <ele>819.65999999999997</ele>
        <time>2025-04-24T15:37:29Z</time>
      </trkpt>
      <trkpt lat="45.478074001148343" lon="3.450692994520068">
        <ele>819.17999999999995</ele>
        <time>2025-04-24T15:37:30Z</time>
      </trkpt>
      <trkpt lat="45.478222025558352" lon="3.4505670145154">
        <ele>818.22000000000003</ele>
        <time>2025-04-24T15:37:31Z</time>
      </trkpt>
      <trkpt lat="45.478344988077879" lon="3.450404992327094">
        <ele>817.25999999999999</ele>
        <time>2025-04-24T15:37:32Z</time>
      </trkpt>
      <trkpt lat="45.478464011102915" lon="3.450230984017253">
        <ele>816.77999999999997</ele>
        <time>2025-04-24T15:37:33Z</time>
      </trkpt>
      <trkpt lat="45.478569036349654" lon="3.450043983757496">
        <ele>815.82000000000005</ele>
        <time>2025-04-24T15:37:34Z</time>
      </trkpt>
      <trkpt lat="45.478669032454491" lon="3.449857989326119">
        <ele>814.85000000000002</ele>
        <time>2025-04-24T15:37:35Z</time>
      </trkpt>
      <trkpt lat="45.478763999417424" lon="3.449680963531137">
        <ele>813.88999999999999</ele>
        <time>2025-04-24T15:37:36Z</time>
      </trkpt>
      <trkpt lat="45.478863995522261" lon="3.449542997404933">
        <ele>812.92999999999995</ele>
        <time>2025-04-24T15:37:37Z</time>
      </trkpt>
      <trkpt lat="45.478971032425761" lon="3.44947099685669">
        <ele>812.45000000000005</ele>
        <time>2025-04-24T15:37:38Z</time>
      </trkpt>
      <trkpt lat="45.479078991338611" lon="3.44947099685669">
        <ele>811.49000000000001</ele>
        <time>2025-04-24T15:37:39Z</time>
      </trkpt>
      <trkpt lat="45.479199020192027" lon="3.449507961049676">
        <ele>811.00999999999999</ele>
        <time>2025-04-24T15:37:40Z</time>
      </trkpt>
      <trkpt lat="45.479329023510218" lon="3.449550038203597">
        <ele>810.52999999999997</ele>
        <time>2025-04-24T15:37:41Z</time>
      </trkpt>
      <trkpt lat="45.480051040649414" lon="3.449758999049664">
        <ele>808.13</ele>
        <time>2025-04-24T15:37:46Z</time>
      </trkpt>
      <trkpt lat="45.480167968198657" lon="3.449723962694407">
        <ele>807.63999999999999</ele>
        <time>2025-04-24T15:37:47Z</time>
      </trkpt>
      <trkpt lat="45.480264024809003" lon="3.449624972417951">
        <ele>807.63999999999999</ele>
        <time>2025-04-24T15:37:48Z</time>
      </trkpt>
      <trkpt lat="45.480339964851737" lon="3.449473008513451">
        <ele>807.63999999999999</ele>
        <time>2025-04-24T15:37:49Z</time>
      </trkpt>
      <trkpt lat="45.480397967621684" lon="3.449286008253694">
        <ele>808.13</ele>
        <time>2025-04-24T15:37:50Z</time>
      </trkpt>
      <trkpt lat="45.480409031733871" lon="3.44906397163868">
        <ele>808.61000000000001</ele>
        <time>2025-04-24T15:37:51Z</time>
      </trkpt>
      <trkpt lat="45.480420012027025" lon="3.448831038549542">
        <ele>809.57000000000005</ele>
        <time>2025-04-24T15:37:52Z</time>
      </trkpt>
      <trkpt lat="45.48045395873487" lon="3.44835402444005">
        <ele>811.49000000000001</ele>
        <time>2025-04-24T15:37:54Z</time>
      </trkpt>
      <trkpt lat="45.48049402423203" lon="3.44814196228981">
        <ele>811.97000000000003</ele>
        <time>2025-04-24T15:37:55Z</time>
      </trkpt>
      <trkpt lat="45.480577005073428" lon="3.447981029748917">
        <ele>812.92999999999995</ele>
        <time>2025-04-24T15:37:56Z</time>
      </trkpt>
      <trkpt lat="45.480681024491787" lon="3.447820013388991">
        <ele>813.88999999999999</ele>
        <time>2025-04-24T15:37:57Z</time>
      </trkpt>
      <trkpt lat="45.480790995061398" lon="3.447649022564292">
        <ele>814.85000000000002</ele>
        <time>2025-04-24T15:37:58Z</time>
      </trkpt>
      <trkpt lat="45.480907000601292" lon="3.447467973455787">
        <ele>816.29999999999995</ele>
        <time>2025-04-24T15:37:59Z</time>
      </trkpt>
      <trkpt lat="45.482088010758162" lon="3.44618403352797">
        <ele>821.10000000000002</ele>
        <time>2025-04-24T15:38:07Z</time>
      </trkpt>
      <trkpt lat="45.483500026166439" lon="3.44498198479414">
        <ele>822.05999999999995</ele>
        <time>2025-04-24T15:38:16Z</time>
      </trkpt>
      <trkpt lat="45.483879977837205" lon="3.444476975128055">
        <ele>819.65999999999997</ele>
        <time>2025-04-24T15:38:21Z</time>
      </trkpt>
      <trkpt lat="45.484452964738011" lon="3.443715982139111">
        <ele>814.85000000000002</ele>
        <time>2025-04-24T15:38:30Z</time>
      </trkpt>
      <trkpt lat="45.484546003863215" lon="3.443592013791204">
        <ele>814.37</ele>
        <time>2025-04-24T15:38:31Z</time>
      </trkpt>
      <trkpt lat="45.484606018289924" lon="3.443442983552814">
        <ele>813.40999999999997</ele>
        <time>2025-04-24T15:38:32Z</time>
      </trkpt>
      <trkpt lat="45.484648011624813" lon="3.443274004384875">
        <ele>812.92999999999995</ele>
        <time>2025-04-24T15:38:33Z</time>
      </trkpt>
      <trkpt lat="45.484667960554361" lon="3.443085998296738">
        <ele>811.49000000000001</ele>
        <time>2025-04-24T15:38:34Z</time>
      </trkpt>
      <trkpt lat="45.484673995524645" lon="3.442881982773542">
        <ele>810.52999999999997</ele>
        <time>2025-04-24T15:38:35Z</time>
      </trkpt>
      <trkpt lat="45.484681036323309" lon="3.442675033584237">
        <ele>809.57000000000005</ele>
        <time>2025-04-24T15:38:36Z</time>
      </trkpt>
      <trkpt lat="45.484750019386411" lon="3.442113026976585">
        <ele>805.72000000000003</ele>
        <time>2025-04-24T15:38:39Z</time>
      </trkpt>
      <trkpt lat="45.484824031591415" lon="3.441975982859731">
        <ele>804.75999999999999</ele>
        <time>2025-04-24T15:38:40Z</time>
      </trkpt>
      <trkpt lat="45.48490097746253" lon="3.441831981763244">
        <ele>803.32000000000005</ele>
        <time>2025-04-24T15:38:41Z</time>
      </trkpt>
      <trkpt lat="45.485012959688902" lon="3.441727040335536">
        <ele>802.36000000000001</ele>
        <time>2025-04-24T15:38:42Z</time>
      </trkpt>
      <trkpt lat="45.48513500019908" lon="3.441613968461752">
        <ele>801.39999999999998</ele>
        <time>2025-04-24T15:38:43Z</time>
      </trkpt>
      <trkpt lat="45.485891969874501" lon="3.440910978242755">
        <ele>795.63</ele>
        <time>2025-04-24T15:38:49Z</time>
      </trkpt>
      <trkpt lat="45.485990960150957" lon="3.44083403237164">
        <ele>795.14999999999998</ele>
        <time>2025-04-24T15:38:50Z</time>
      </trkpt>
      <trkpt lat="45.486075030639768" lon="3.440780974924564">
        <ele>794.66999999999996</ele>
        <time>2025-04-24T15:38:51Z</time>
      </trkpt>
      <trkpt lat="45.486163040623069" lon="3.440780974924564">
        <ele>793.71000000000004</ele>
        <time>2025-04-24T15:38:52Z</time>
      </trkpt>
      <trkpt lat="45.486249038949609" lon="3.4407929610461">
        <ele>793.22000000000003</ele>
        <time>2025-04-24T15:38:53Z</time>
      </trkpt>
      <trkpt lat="45.486333025619388" lon="3.440848030149937">
        <ele>792.74000000000001</ele>
        <time>2025-04-24T15:38:54Z</time>
      </trkpt>
      <trkpt lat="45.486419023945928" lon="3.440906032919884">
        <ele>791.77999999999997</ele>
        <time>2025-04-24T15:38:55Z</time>
      </trkpt>
      <trkpt lat="45.487339021638036" lon="3.441412970423698">
        <ele>785.52999999999997</ele>
        <time>2025-04-24T15:39:03Z</time>
      </trkpt>
      <trkpt lat="45.488798981532454" lon="3.441923009231687">
        <ele>775.91999999999996</ele>
        <time>2025-04-24T15:39:11Z</time>
      </trkpt>
      <trkpt lat="45.489480011165142" lon="3.442292986437678">
        <ele>770.63</ele>
        <time>2025-04-24T15:39:15Z</time>
      </trkpt>
      <trkpt lat="45.489635998383164" lon="3.442323999479413">
        <ele>769.66999999999996</ele>
        <time>2025-04-24T15:39:16Z</time>
      </trkpt>
      <trkpt lat="45.489790979772806" lon="3.44233900308609">
        <ele>768.23000000000002</ele>
        <time>2025-04-24T15:39:17Z</time>
      </trkpt>
      <trkpt lat="45.489953001961112" lon="3.442306984215975">
        <ele>767.75</ele>
        <time>2025-04-24T15:39:18Z</time>
      </trkpt>
      <trkpt lat="45.490111000835896" lon="3.442257028073072">
        <ele>766.30999999999995</ele>
        <time>2025-04-24T15:39:19Z</time>
      </trkpt>
      <trkpt lat="45.490262964740396" lon="3.442156026139855">
        <ele>765.83000000000004</ele>
        <time>2025-04-24T15:39:20Z</time>
      </trkpt>
      <trkpt lat="45.490408977493644" lon="3.442027028650045">
        <ele>764.87</ele>
        <time>2025-04-24T15:39:21Z</time>
      </trkpt>
      <trkpt lat="45.490558007732034" lon="3.441894007846713">
        <ele>763.89999999999998</ele>
        <time>2025-04-24T15:39:22Z</time>
      </trkpt>
      <trkpt lat="45.49069999717176" lon="3.441745983436704">
        <ele>762.94000000000005</ele>
        <time>2025-04-24T15:39:23Z</time>
      </trkpt>
      <trkpt lat="45.491227973252535" lon="3.441133014857769">
        <ele>758.13999999999999</ele>
        <time>2025-04-24T15:39:28Z</time>
      </trkpt>
      <trkpt lat="45.49130198545754" lon="3.441083980724216">
        <ele>757.17999999999995</ele>
        <time>2025-04-24T15:39:29Z</time>
      </trkpt>
      <trkpt lat="45.491374991834164" lon="3.441063025966287">
        <ele>755.73000000000002</ele>
        <time>2025-04-24T15:39:30Z</time>
      </trkpt>
      <trkpt lat="45.491458978503942" lon="3.44107199460268">
        <ele>755.25</ele>
        <time>2025-04-24T15:39:31Z</time>
      </trkpt>
      <trkpt lat="45.491551011800766" lon="3.441080963239074">
        <ele>754.28999999999996</ele>
        <time>2025-04-24T15:39:32Z</time>
      </trkpt>
      <trkpt lat="45.491739017888904" lon="3.441099990159273">
        <ele>753.33000000000004</ele>
        <time>2025-04-24T15:39:34Z</time>
      </trkpt>
      <trkpt lat="45.491843037307262" lon="3.441083980724216">
        <ele>753.33000000000004</ele>
        <time>2025-04-24T15:39:35Z</time>
      </trkpt>
      <trkpt lat="45.491956025362015" lon="3.441035030409694">
        <ele>752.85000000000002</ele>
        <time>2025-04-24T15:39:36Z</time>
      </trkpt>
      <trkpt lat="45.492047974839807" lon="3.440903015434742">
        <ele>752.85000000000002</ele>
        <time>2025-04-24T15:39:37Z</time>
      </trkpt>
      <trkpt lat="45.492147970944643" lon="3.440749039873481">
        <ele>753.33000000000004</ele>
        <time>2025-04-24T15:39:38Z</time>
      </trkpt>
      <trkpt lat="45.492241010069847" lon="3.440562961623073">
        <ele>753.33000000000004</ele>
        <time>2025-04-24T15:39:39Z</time>
      </trkpt>
      <trkpt lat="45.492338994517922" lon="3.440366992726922">
        <ele>753.80999999999995</ele>
        <time>2025-04-24T15:39:40Z</time>
      </trkpt>
      <trkpt lat="45.493297968059778" lon="3.438620958477259">
        <ele>756.21000000000004</ele>
        <time>2025-04-24T15:39:48Z</time>
      </trkpt>
      <trkpt lat="45.493420008569956" lon="3.438442004844546">
        <ele>756.69000000000005</ele>
        <time>2025-04-24T15:39:49Z</time>
      </trkpt>
      <trkpt lat="45.493521010503173" lon="3.438227009028196">
        <ele>757.65999999999997</ele>
        <time>2025-04-24T15:39:50Z</time>
      </trkpt>
      <trkpt lat="45.493607008829713" lon="3.437997009605169">
        <ele>758.62</ele>
        <time>2025-04-24T15:39:51Z</time>
      </trkpt>
      <trkpt lat="45.493655037134886" lon="3.437743037939072">
        <ele>759.58000000000004</ele>
        <time>2025-04-24T15:39:52Z</time>
      </trkpt>
      <trkpt lat="45.493703987449408" lon="3.437484037131071">
        <ele>760.53999999999996</ele>
        <time>2025-04-24T15:39:53Z</time>
      </trkpt>
      <trkpt lat="45.493762996047735" lon="3.437176002189517">
        <ele>761.5</ele>
        <time>2025-04-24T15:39:54Z</time>
      </trkpt>
      <trkpt lat="45.493781017139554" lon="3.436944996938109">
        <ele>761.98000000000002</ele>
        <time>2025-04-24T15:39:55Z</time>
      </trkpt>
      <trkpt lat="45.493827033787966" lon="3.435620991513133">
        <ele>765.83000000000004</ele>
        <time>2025-04-24T15:40:00Z</time>
      </trkpt>
      <trkpt lat="45.493882019072771" lon="3.435416975989938">
        <ele>766.30999999999995</ele>
        <time>2025-04-24T15:40:01Z</time>
      </trkpt>
      <trkpt lat="45.493946978822351" lon="3.435214972123504">
        <ele>766.30999999999995</ele>
        <time>2025-04-24T15:40:02Z</time>
      </trkpt>
      <trkpt lat="45.494023002684116" lon="3.43501104041934">
        <ele>766.30999999999995</ele>
        <time>2025-04-24T15:40:03Z</time>
      </trkpt>
      <trkpt lat="45.49413800239563" lon="3.434821022674441">
        <ele>765.83000000000004</ele>
        <time>2025-04-24T15:40:04Z</time>
      </trkpt>
      <trkpt lat="45.494259959086776" lon="3.434619018808007">
        <ele>764.87</ele>
        <time>2025-04-24T15:40:05Z</time>
      </trkpt>
      <trkpt lat="45.49452499486506" lon="3.434203024953604">
        <ele>762.94000000000005</ele>
        <time>2025-04-24T15:40:07Z</time>
      </trkpt>
      <trkpt lat="45.494691040366888" lon="3.434033039957285">
        <ele>762.46000000000004</ele>
        <time>2025-04-24T15:40:08Z</time>
      </trkpt>
      <trkpt lat="45.495770964771509" lon="3.432862004265189">
        <ele>761.01999999999998</ele>
        <time>2025-04-24T15:40:15Z</time>
      </trkpt>
      <trkpt lat="45.495974980294704" lon="3.432577019557357">
        <ele>762.46000000000004</ele>
        <time>2025-04-24T15:40:17Z</time>
      </trkpt>
      <trkpt lat="45.496075982227921" lon="3.432482974603772">
        <ele>763.89999999999998</ele>
        <time>2025-04-24T15:40:18Z</time>
      </trkpt>
      <trkpt lat="45.496182013303041" lon="3.432420026510954">
        <ele>764.87</ele>
        <time>2025-04-24T15:40:19Z</time>
      </trkpt>
      <trkpt lat="45.496293995529413" lon="3.432411979883909">
        <ele>765.83000000000004</ele>
        <time>2025-04-24T15:40:20Z</time>
      </trkpt>
      <trkpt lat="45.496412012726068" lon="3.432451039552689">
        <ele>767.26999999999998</ele>
        <time>2025-04-24T15:40:21Z</time>
      </trkpt>
      <trkpt lat="45.49652399495244" lon="3.432488003745675">
        <ele>768.23000000000002</ele>
        <time>2025-04-24T15:40:22Z</time>
      </trkpt>
      <trkpt lat="45.496637988835573" lon="3.432525973767042">
        <ele>769.19000000000005</ele>
        <time>2025-04-24T15:40:23Z</time>
      </trkpt>
      <trkpt lat="45.496747959405184" lon="3.432511975988746">
        <ele>769.66999999999996</ele>
        <time>2025-04-24T15:40:24Z</time>
      </trkpt>
      <trkpt lat="45.496872011572123" lon="3.432457996532321">
        <ele>770.14999999999998</ele>
        <time>2025-04-24T15:40:25Z</time>
      </trkpt>
      <trkpt lat="45.497011989355087" lon="3.432395970448852">
        <ele>771.11000000000001</ele>
        <time>2025-04-24T15:40:26Z</time>
      </trkpt>
      <trkpt lat="45.497131012380123" lon="3.432260015979409">
        <ele>771.11000000000001</ele>
        <time>2025-04-24T15:40:27Z</time>
      </trkpt>
      <trkpt lat="45.49725498072803" lon="3.432108974084258">
        <ele>771.11000000000001</ele>
        <time>2025-04-24T15:40:28Z</time>
      </trkpt>
      <trkpt lat="45.497380960732698" lon="3.431954998522997">
        <ele>770.63</ele>
        <time>2025-04-24T15:40:29Z</time>
      </trkpt>
      <trkpt lat="45.49746997654438" lon="3.431758023798466">
        <ele>769.66999999999996</ele>
        <time>2025-04-24T15:40:30Z</time>
      </trkpt>
      <trkpt lat="45.49755304120481" lon="3.431534981355071">
        <ele>769.19000000000005</ele>
        <time>2025-04-24T15:40:31Z</time>
      </trkpt>
      <trkpt lat="45.49763803370297" lon="3.431307999417186">
        <ele>768.23000000000002</ele>
        <time>2025-04-24T15:40:32Z</time>
      </trkpt>
      <trkpt lat="45.49770399928093" lon="3.431073976680636">
        <ele>767.75</ele>
        <time>2025-04-24T15:40:33Z</time>
      </trkpt>
      <trkpt lat="45.497741969302297" lon="3.430826961994171">
        <ele>766.30999999999995</ele>
        <time>2025-04-24T15:40:34Z</time>
      </trkpt>
      <trkpt lat="45.497779017314315" lon="3.430584976449609">
        <ele>765.35000000000002</ele>
        <time>2025-04-24T15:40:35Z</time>
      </trkpt>
      <trkpt lat="45.49781396985054" lon="3.430360006168485">
        <ele>763.89999999999998</ele>
        <time>2025-04-24T15:40:36Z</time>
      </trkpt>
      <trkpt lat="45.497843977063894" lon="3.430165965110064">
        <ele>762.46000000000004</ele>
        <time>2025-04-24T15:40:37Z</time>
      </trkpt>
      <trkpt lat="45.497878007590771" lon="3.430011989548802">
        <ele>761.01999999999998</ele>
        <time>2025-04-24T15:40:38Z</time>
      </trkpt>
      <trkpt lat="45.497926035895944" lon="3.429902018979192">
        <ele>760.05999999999995</ele>
        <time>2025-04-24T15:40:39Z</time>
      </trkpt>
      <trkpt lat="45.497992001473904" lon="3.429863965138793">
        <ele>758.62</ele>
        <time>2025-04-24T15:40:40Z</time>
      </trkpt>
      <trkpt lat="45.498056961223483" lon="3.429827000945807">
        <ele>757.65999999999997</ele>
        <time>2025-04-24T15:40:41Z</time>
      </trkpt>
      <trkpt lat="45.498119993135333" lon="3.429848961532116">
        <ele>756.69000000000005</ele>
        <time>2025-04-24T15:40:42Z</time>
      </trkpt>
      <trkpt lat="45.498210014775395" lon="3.42991903424263">
        <ele>755.73000000000002</ele>
        <time>2025-04-24T15:40:43Z</time>
      </trkpt>
      <trkpt lat="45.498315962031484" lon="3.430001009255648">
        <ele>755.25</ele>
        <time>2025-04-24T15:40:44Z</time>
      </trkpt>
      <trkpt lat="45.498431967571378" lon="3.43009103089571">
        <ele>754.28999999999996</ele>
        <time>2025-04-24T15:40:45Z</time>
      </trkpt>
      <trkpt lat="45.498565994203091" lon="3.430181974545121">
        <ele>753.80999999999995</ele>
        <time>2025-04-24T15:40:46Z</time>
      </trkpt>
      <trkpt lat="45.498702032491565" lon="3.430191027000547">
        <ele>752.85000000000002</ele>
        <time>2025-04-24T15:40:47Z</time>
      </trkpt>
      <trkpt lat="45.498823989182711" lon="3.430198989808559">
        <ele>751.88999999999999</ele>
        <time>2025-04-24T15:40:48Z</time>
      </trkpt>
      <trkpt lat="45.499128000810742" lon="3.43022002838552">
        <ele>749</ele>
        <time>2025-04-24T15:40:51Z</time>
      </trkpt>
      <trkpt lat="45.499262027442455" lon="3.430255986750126">
        <ele>747.55999999999995</ele>
        <time>2025-04-24T15:40:53Z</time>
      </trkpt>
      <trkpt lat="45.499334027990699" lon="3.430280964821577">
        <ele>747.08000000000004</ele>
        <time>2025-04-24T15:40:54Z</time>
      </trkpt>
      <trkpt lat="45.499416003003716" lon="3.430309966206551">
        <ele>746.12</ele>
        <time>2025-04-24T15:40:55Z</time>
      </trkpt>
      <trkpt lat="45.499535026028752" lon="3.43035195954144">
        <ele>745.15999999999997</ele>
        <time>2025-04-24T15:40:56Z</time>
      </trkpt>
      <trkpt lat="45.499589005485177" lon="3.430446004495025">
        <ele>744.20000000000005</ele>
        <time>2025-04-24T15:40:57Z</time>
      </trkpt>
      <trkpt lat="45.499733006581664" lon="3.43069301918149">
        <ele>742.27999999999997</ele>
        <time>2025-04-24T15:40:59Z</time>
      </trkpt>
      <trkpt lat="45.499782040715218" lon="3.430832996964455">
        <ele>741.78999999999996</ele>
        <time>2025-04-24T15:41:00Z</time>
      </trkpt>
      <trkpt lat="45.49980903044343" lon="3.431007005274296">
        <ele>741.30999999999995</ele>
        <time>2025-04-24T15:41:01Z</time>
      </trkpt>
      <trkpt lat="45.499794026836753" lon="3.43153104186058">
        <ele>738.90999999999997</ele>
        <time>2025-04-24T15:41:04Z</time>
      </trkpt>
      <trkpt lat="45.499845994636416" lon="3.431691974401474">
        <ele>737.95000000000005</ele>
        <time>2025-04-24T15:41:05Z</time>
      </trkpt>
      <trkpt lat="45.499929981306195" lon="3.431834969669581">
        <ele>736.50999999999999</ele>
        <time>2025-04-24T15:41:06Z</time>
      </trkpt>
      <trkpt lat="45.500041963532567" lon="3.43191996216774">
        <ele>735.07000000000005</ele>
        <time>2025-04-24T15:41:07Z</time>
      </trkpt>
      <trkpt lat="45.500159980729222" lon="3.432010989636183">
        <ele>733.62</ele>
        <time>2025-04-24T15:41:08Z</time>
      </trkpt>
      <trkpt lat="45.500765992328525" lon="3.43247601762414">
        <ele>725.45000000000005</ele>
        <time>2025-04-24T15:41:13Z</time>
      </trkpt>
      <trkpt lat="45.500860959291458" lon="3.432591017335653">
        <ele>723.52999999999997</ele>
        <time>2025-04-24T15:41:14Z</time>
      </trkpt>
      <trkpt lat="45.500943018123507" lon="3.432740969583392">
        <ele>722.09000000000003</ele>
        <time>2025-04-24T15:41:15Z</time>
      </trkpt>
      <trkpt lat="45.501025998964906" lon="3.432895028963685">
        <ele>720.15999999999997</ele>
        <time>2025-04-24T15:41:16Z</time>
      </trkpt>
      <trkpt lat="45.501108979806304" lon="3.433043975383043">
        <ele>718.72000000000003</ele>
        <time>2025-04-24T15:41:17Z</time>
      </trkpt>
      <trkpt lat="45.501193972304463" lon="3.433161992579699">
        <ele>717.27999999999997</ele>
        <time>2025-04-24T15:41:18Z</time>
      </trkpt>
      <trkpt lat="45.50129497423768" lon="3.433280009776354">
        <ele>716.32000000000005</ele>
        <time>2025-04-24T15:41:19Z</time>
      </trkpt>
      <trkpt lat="45.501393964514136" lon="3.433324014768004">
        <ele>715.84000000000003</ele>
        <time>2025-04-24T15:41:20Z</time>
      </trkpt>
      <trkpt lat="45.501499995589256" lon="3.43333600088954">
        <ele>714.88</ele>
        <time>2025-04-24T15:41:21Z</time>
      </trkpt>
      <trkpt lat="45.5015719961375" lon="3.43329300172627">
        <ele>713.91999999999996</ele>
        <time>2025-04-24T15:41:22Z</time>
      </trkpt>
      <trkpt lat="45.501617006957531" lon="3.433205997571349">
        <ele>712.95000000000005</ele>
        <time>2025-04-24T15:41:23Z</time>
      </trkpt>
      <trkpt lat="45.50159496255219" lon="3.433098960667849">
        <ele>712.47000000000003</ele>
        <time>2025-04-24T15:41:24Z</time>
      </trkpt>
      <trkpt lat="45.501569984480739" lon="3.4329719748348">
        <ele>711.50999999999999</ele>
        <time>2025-04-24T15:41:25Z</time>
      </trkpt>
      <trkpt lat="45.501541988924146" lon="3.432831997051835">
        <ele>710.54999999999995</ele>
        <time>2025-04-24T15:41:26Z</time>
      </trkpt>
      <trkpt lat="45.501480968669057" lon="3.432526979595423">
        <ele>709.11000000000001</ele>
        <time>2025-04-24T15:41:28Z</time>
      </trkpt>
      <trkpt lat="45.501446016132832" lon="3.432351965457201">
        <ele>708.63</ele>
        <time>2025-04-24T15:41:29Z</time>
      </trkpt>
      <trkpt lat="45.501409973949194" lon="3.432172005996108">
        <ele>708.14999999999998</ele>
        <time>2025-04-24T15:41:30Z</time>
      </trkpt>
      <trkpt lat="45.501349959522486" lon="3.432013001292944">
        <ele>707.66999999999996</ele>
        <time>2025-04-24T15:41:31Z</time>
      </trkpt>
      <trkpt lat="45.501284999772906" lon="3.431863971054554">
        <ele>707.66999999999996</ele>
        <time>2025-04-24T15:41:32Z</time>
      </trkpt>
      <trkpt lat="45.501219034194946" lon="3.431712007150054">
        <ele>707.19000000000005</ele>
        <time>2025-04-24T15:41:33Z</time>
      </trkpt>
      <trkpt lat="45.501161031424999" lon="3.431548979133368">
        <ele>707.66999999999996</ele>
        <time>2025-04-24T15:41:34Z</time>
      </trkpt>
      <trkpt lat="45.501110991463065" lon="3.431371031329036">
        <ele>708.63</ele>
        <time>2025-04-24T15:41:35Z</time>
      </trkpt>
      <trkpt lat="45.501090036705136" lon="3.431179001927376">
        <ele>709.59000000000003</ele>
        <time>2025-04-24T15:41:36Z</time>
      </trkpt>
      <trkpt lat="45.50105701200664" lon="3.430723026394844">
        <ele>711.50999999999999</ele>
        <time>2025-04-24T15:41:38Z</time>
      </trkpt>
      <trkpt lat="45.501039996743202" lon="3.430494032800198">
        <ele>712.47000000000003</ele>
        <time>2025-04-24T15:41:39Z</time>
      </trkpt>
      <trkpt lat="45.501023987308145" lon="3.430275013670325">
        <ele>713.44000000000005</ele>
        <time>2025-04-24T15:41:40Z</time>
      </trkpt>
      <trkpt lat="45.501002026721835" lon="3.430049037560821">
        <ele>714.39999999999998</ele>
        <time>2025-04-24T15:41:41Z</time>
      </trkpt>
      <trkpt lat="45.500974031165242" lon="3.429832030087709">
        <ele>714.88</ele>
        <time>2025-04-24T15:41:42Z</time>
      </trkpt>
      <trkpt lat="45.50094704143703" lon="3.429624997079372">
        <ele>715.36000000000001</ele>
        <time>2025-04-24T15:41:43Z</time>
      </trkpt>
      <trkpt lat="45.500930026173592" lon="3.429444031789899">
        <ele>716.32000000000005</ele>
        <time>2025-04-24T15:41:44Z</time>
      </trkpt>
      <trkpt lat="45.500930026173592" lon="3.429270023480058">
        <ele>717.27999999999997</ele>
        <time>2025-04-24T15:41:45Z</time>
      </trkpt>
      <trkpt lat="45.500980988144875" lon="3.429153012111783">
        <ele>718.24000000000001</ele>
        <time>2025-04-24T15:41:46Z</time>
      </trkpt>
      <trkpt lat="45.501063968986273" lon="3.428983027115464">
        <ele>719.20000000000005</ele>
        <time>2025-04-24T15:41:47Z</time>
      </trkpt>
      <trkpt lat="45.501152984797955" lon="3.428799966350198">
        <ele>720.64999999999998</ele>
        <time>2025-04-24T15:41:48Z</time>
      </trkpt>
      <trkpt lat="45.501240994781256" lon="3.428620006889105">
        <ele>722.09000000000003</ele>
        <time>2025-04-24T15:41:49Z</time>
      </trkpt>
      <trkpt lat="45.501431012526155" lon="3.428290011361241">
        <ele>725.92999999999995</ele>
        <time>2025-04-24T15:41:51Z</time>
      </trkpt>
      <trkpt lat="45.501582976430655" lon="3.428155984729528">
        <ele>728.34000000000003</ele>
        <time>2025-04-24T15:41:52Z</time>
      </trkpt>
      <trkpt lat="45.502011040225625" lon="3.427776033058763">
        <ele>734.58000000000004</ele>
        <time>2025-04-24T15:41:55Z</time>
      </trkpt>
      <trkpt lat="45.50215202383697" lon="3.427623985335231">
        <ele>737.47000000000003</ele>
        <time>2025-04-24T15:41:56Z</time>
      </trkpt>
      <trkpt lat="45.502242967486382" lon="3.427426004782319">
        <ele>739.87</ele>
        <time>2025-04-24T15:41:57Z</time>
      </trkpt>
      <trkpt lat="45.50232402049005" lon="3.427247973158956">
        <ele>741.78999999999996</ele>
        <time>2025-04-24T15:41:58Z</time>
      </trkpt>
      <trkpt lat="45.502405995503068" lon="3.427069019526243">
        <ele>743.72000000000003</ele>
        <time>2025-04-24T15:41:59Z</time>
      </trkpt>
      <trkpt lat="45.502501968294382" lon="3.426882019266486">
        <ele>744.67999999999995</ele>
        <time>2025-04-24T15:42:00Z</time>
      </trkpt>
      <trkpt lat="45.502627026289701" lon="3.426705999299884">
        <ele>745.15999999999997</ele>
        <time>2025-04-24T15:42:01Z</time>
      </trkpt>
      <trkpt lat="45.502874962985516" lon="3.426359994336963">
        <ele>745.15999999999997</ele>
        <time>2025-04-24T15:42:03Z</time>
      </trkpt>
      <trkpt lat="45.50301100127399" lon="3.426167964935303">
        <ele>745.63999999999999</ele>
        <time>2025-04-24T15:42:04Z</time>
      </trkpt>
      <trkpt lat="45.503065986558795" lon="3.426008960232139">
        <ele>746.12</ele>
        <time>2025-04-24T15:42:05Z</time>
      </trkpt>
      <trkpt lat="45.503124995157123" lon="3.425841992720962">
        <ele>746.12</ele>
        <time>2025-04-24T15:42:06Z</time>
      </trkpt>
      <trkpt lat="45.503177968785167" lon="3.4256880171597">
        <ele>746.60000000000002</ele>
        <time>2025-04-24T15:42:07Z</time>
      </trkpt>
      <trkpt lat="45.503228008747101" lon="3.425545021891594">
        <ele>746.60000000000002</ele>
        <time>2025-04-24T15:42:08Z</time>
      </trkpt>
      <trkpt lat="45.503276037052274" lon="3.425407977774739">
        <ele>746.60000000000002</ele>
        <time>2025-04-24T15:42:09Z</time>
      </trkpt>
      <trkpt lat="45.503322975710034" lon="3.425271017476916">
        <ele>746.12</ele>
        <time>2025-04-24T15:42:10Z</time>
      </trkpt>
      <trkpt lat="45.503385001793504" lon="3.425136990845203">
        <ele>746.12</ele>
        <time>2025-04-24T15:42:11Z</time>
      </trkpt>
      <trkpt lat="45.503463037312031" lon="3.42502199113369">
        <ele>746.12</ele>
        <time>2025-04-24T15:42:12Z</time>
      </trkpt>
      <trkpt lat="45.503545012325048" lon="3.424902968108654">
        <ele>746.12</ele>
        <time>2025-04-24T15:42:13Z</time>
      </trkpt>
      <trkpt lat="45.50363402813673" lon="3.424772964790463">
        <ele>746.60000000000002</ele>
        <time>2025-04-24T15:42:14Z</time>
      </trkpt>
      <trkpt lat="45.503839971497655" lon="3.424618989229202">
        <ele>747.08000000000004</ele>
        <time>2025-04-24T15:42:16Z</time>
      </trkpt>
      <trkpt lat="45.504155969247222" lon="3.424385972321034">
        <ele>748.03999999999996</ele>
        <time>2025-04-24T15:42:19Z</time>
      </trkpt>
      <trkpt lat="45.504267029464245" lon="3.424362000077963">
        <ele>748.03999999999996</ele>
        <time>2025-04-24T15:42:20Z</time>
      </trkpt>
      <trkpt lat="45.504698026925325" lon="3.424286982044578">
        <ele>748.51999999999998</ele>
        <time>2025-04-24T15:42:24Z</time>
      </trkpt>
      <trkpt lat="45.504801040515304" lon="3.424251023679972">
        <ele>749</ele>
        <time>2025-04-24T15:42:25Z</time>
      </trkpt>
      <trkpt lat="45.504914028570056" lon="3.424187991768122">
        <ele>749</ele>
        <time>2025-04-24T15:42:26Z</time>
      </trkpt>
      <trkpt lat="45.50503003410995" lon="3.424123032018542">
        <ele>749</ele>
        <time>2025-04-24T15:42:27Z</time>
      </trkpt>
      <trkpt lat="45.505140004679561" lon="3.424061005935073">
        <ele>749</ele>
        <time>2025-04-24T15:42:28Z</time>
      </trkpt>
      <trkpt lat="45.5052450299263" lon="3.424001997336745">
        <ele>748.51999999999998</ele>
        <time>2025-04-24T15:42:29Z</time>
      </trkpt>
      <trkpt lat="45.505352988839149" lon="3.423979030922055">
        <ele>747.55999999999995</ele>
        <time>2025-04-24T15:42:30Z</time>
      </trkpt>
      <trkpt lat="45.505476035177708" lon="3.423997974023223">
        <ele>747.08000000000004</ele>
        <time>2025-04-24T15:42:31Z</time>
      </trkpt>
      <trkpt lat="45.505577959120274" lon="3.424099981784821">
        <ele>746.60000000000002</ele>
        <time>2025-04-24T15:42:32Z</time>
      </trkpt>
      <trkpt lat="45.505688013508916" lon="3.424209030345082">
        <ele>746.12</ele>
        <time>2025-04-24T15:42:33Z</time>
      </trkpt>
      <trkpt lat="45.505793038755655" lon="3.424314977601171">
        <ele>745.63999999999999</ele>
        <time>2025-04-24T15:42:34Z</time>
      </trkpt>
      <trkpt lat="45.505940979346633" lon="3.424426959827542">
        <ele>744.20000000000005</ele>
        <time>2025-04-24T15:42:36Z</time>
      </trkpt>
      <trkpt lat="45.506014991551638" lon="3.424451015889645">
        <ele>743.72000000000003</ele>
        <time>2025-04-24T15:42:37Z</time>
      </trkpt>
      <trkpt lat="45.50608498044312" lon="3.424469958990812">
        <ele>743.24000000000001</ele>
        <time>2025-04-24T15:42:38Z</time>
      </trkpt>
      <trkpt lat="45.506182964891195" lon="3.424411034211516">
        <ele>742.75999999999999</ele>
        <time>2025-04-24T15:42:39Z</time>
      </trkpt>
      <trkpt lat="45.506283966824412" lon="3.424350013956428">
        <ele>742.75999999999999</ele>
        <time>2025-04-24T15:42:40Z</time>
      </trkpt>
      <trkpt lat="45.506354039534926" lon="3.424249012023211">
        <ele>742.75999999999999</ele>
        <time>2025-04-24T15:42:41Z</time>
      </trkpt>
      <trkpt lat="45.50640600733459" lon="3.424128983169794">
        <ele>742.75999999999999</ele>
        <time>2025-04-24T15:42:42Z</time>
      </trkpt>
      <trkpt lat="45.506422016769648" lon="3.423967966809869">
        <ele>743.24000000000001</ele>
        <time>2025-04-24T15:42:43Z</time>
      </trkpt>
      <trkpt lat="45.506401984021068" lon="3.423765040934086">
        <ele>743.72000000000003</ele>
        <time>2025-04-24T15:42:44Z</time>
      </trkpt>
      <trkpt lat="45.506357979029417" lon="3.423593966290355">
        <ele>744.20000000000005</ele>
        <time>2025-04-24T15:42:45Z</time>
      </trkpt>
      <trkpt lat="45.506306011229753" lon="3.423391962423921">
        <ele>744.67999999999995</ele>
        <time>2025-04-24T15:42:46Z</time>
      </trkpt>
      <trkpt lat="45.505931004881859" lon="3.421924961730838">
        <ele>750.45000000000005</ele>
        <time>2025-04-24T15:42:52Z</time>
      </trkpt>
      <trkpt lat="45.505819022655487" lon="3.421693034470081">
        <ele>751.88999999999999</ele>
        <time>2025-04-24T15:42:53Z</time>
      </trkpt>
      <trkpt lat="45.505708968266845" lon="3.421467980369926">
        <ele>752.85000000000002</ele>
        <time>2025-04-24T15:42:54Z</time>
      </trkpt>
      <trkpt lat="45.50550302490592" lon="3.42104603536427">
        <ele>755.25</ele>
        <time>2025-04-24T15:42:56Z</time>
      </trkpt>
      <trkpt lat="45.505425995215774" lon="3.420816035941243">
        <ele>755.73000000000002</ele>
        <time>2025-04-24T15:42:57Z</time>
      </trkpt>
      <trkpt lat="45.505361035466194" lon="3.420587964355946">
        <ele>756.69000000000005</ele>
        <time>2025-04-24T15:42:58Z</time>
      </trkpt>
      <trkpt lat="45.505243018269539" lon="3.420181022956967">
        <ele>758.13999999999999</ele>
        <time>2025-04-24T15:43:00Z</time>
      </trkpt>
      <trkpt lat="45.505229020491242" lon="3.419995028525591">
        <ele>759.10000000000002</ele>
        <time>2025-04-24T15:43:01Z</time>
      </trkpt>
      <trkpt lat="45.505220973864198" lon="3.419781038537622">
        <ele>759.10000000000002</ele>
        <time>2025-04-24T15:43:02Z</time>
      </trkpt>
      <trkpt lat="45.505220973864198" lon="3.419516002759337">
        <ele>759.58000000000004</ele>
        <time>2025-04-24T15:43:03Z</time>
      </trkpt>
      <trkpt lat="45.505293980240822" lon="3.419309975579381">
        <ele>760.05999999999995</ele>
        <time>2025-04-24T15:43:04Z</time>
      </trkpt>
      <trkpt lat="45.505376039072871" lon="3.419083999469876">
        <ele>761.01999999999998</ele>
        <time>2025-04-24T15:43:05Z</time>
      </trkpt>
      <trkpt lat="45.505463965237141" lon="3.418848970904946">
        <ele>761.5</ele>
        <time>2025-04-24T15:43:06Z</time>
      </trkpt>
      <trkpt lat="45.505942991003394" lon="3.417693022638559">
        <ele>765.35000000000002</ele>
        <time>2025-04-24T15:43:11Z</time>
      </trkpt>
      <trkpt lat="45.506070982664824" lon="3.41750199906528">
        <ele>766.30999999999995</ele>
        <time>2025-04-24T15:43:12Z</time>
      </trkpt>
      <trkpt lat="45.506183970719576" lon="3.417312987148762">
        <ele>767.26999999999998</ele>
        <time>2025-04-24T15:43:13Z</time>
      </trkpt>
      <trkpt lat="45.50627700984478" lon="3.417124981060624">
        <ele>767.75</ele>
        <time>2025-04-24T15:43:14Z</time>
      </trkpt>
      <trkpt lat="45.506335012614727" lon="3.416936974972487">
        <ele>768.71000000000004</ele>
        <time>2025-04-24T15:43:15Z</time>
      </trkpt>
      <trkpt lat="45.506372982636094" lon="3.416744023561478">
        <ele>769.19000000000005</ele>
        <time>2025-04-24T15:43:16Z</time>
      </trkpt>
      <trkpt lat="45.506326965987682" lon="3.416564986109734">
        <ele>769.66999999999996</ele>
        <time>2025-04-24T15:43:17Z</time>
      </trkpt>
      <trkpt lat="45.50627700984478" lon="3.416370023041964">
        <ele>770.63</ele>
        <time>2025-04-24T15:43:18Z</time>
      </trkpt>
      <trkpt lat="45.506226969882846" lon="3.416174976155162">
        <ele>771.60000000000002</ele>
        <time>2025-04-24T15:43:19Z</time>
      </trkpt>
      <trkpt lat="45.506212972104549" lon="3.415969032794237">
        <ele>772.55999999999995</ele>
        <time>2025-04-24T15:43:20Z</time>
      </trkpt>
      <trkpt lat="45.506219007074833" lon="3.415763005614281">
        <ele>774</ele>
        <time>2025-04-24T15:43:21Z</time>
      </trkpt>
      <trkpt lat="45.506225964054465" lon="3.415557984262705">
        <ele>774.96000000000004</ele>
        <time>2025-04-24T15:43:22Z</time>
      </trkpt>
      <trkpt lat="45.506202997639775" lon="3.415356986224651">
        <ele>775.91999999999996</ele>
        <time>2025-04-24T15:43:23Z</time>
      </trkpt>
      <trkpt lat="45.506147006526589" lon="3.415189012885094">
        <ele>776.88</ele>
        <time>2025-04-24T15:43:24Z</time>
      </trkpt>
      <trkpt lat="45.506100989878178" lon="3.41505297459662">
        <ele>777.84000000000003</ele>
        <time>2025-04-24T15:43:25Z</time>
      </trkpt>
      <trkpt lat="45.505994958803058" lon="3.414989020675421">
        <ele>779.28999999999996</ele>
        <time>2025-04-24T15:43:26Z</time>
      </trkpt>
      <trkpt lat="45.505905020982027" lon="3.414935041218996">
        <ele>780.25</ele>
        <time>2025-04-24T15:43:27Z</time>
      </trkpt>
      <trkpt lat="45.505814999341965" lon="3.414948033168912">
        <ele>781.21000000000004</ele>
        <time>2025-04-24T15:43:28Z</time>
      </trkpt>
      <trkpt lat="45.505722966045141" lon="3.414978962391615">
        <ele>782.64999999999998</ele>
        <time>2025-04-24T15:43:29Z</time>
      </trkpt>
      <trkpt lat="45.505630010738969" lon="3.414969993755221">
        <ele>783.61000000000001</ele>
        <time>2025-04-24T15:43:30Z</time>
      </trkpt>
      <trkpt lat="45.505534037947655" lon="3.414935041218996">
        <ele>784.57000000000005</ele>
        <time>2025-04-24T15:43:31Z</time>
      </trkpt>
      <trkpt lat="45.505468994379044" lon="3.414857005700469">
        <ele>785.52999999999997</ele>
        <time>2025-04-24T15:43:32Z</time>
      </trkpt>
      <trkpt lat="45.505419038236141" lon="3.414747035130858">
        <ele>786.98000000000002</ele>
        <time>2025-04-24T15:43:33Z</time>
      </trkpt>
      <trkpt lat="45.505392970517278" lon="3.414635974913836">
        <ele>787.94000000000005</ele>
        <time>2025-04-24T15:43:34Z</time>
      </trkpt>
      <trkpt lat="45.505364974960685" lon="3.414518041536212">
        <ele>788.41999999999996</ele>
        <time>2025-04-24T15:43:35Z</time>
      </trkpt>
      <trkpt lat="45.505257016047835" lon="3.414059970527887">
        <ele>791.77999999999997</ele>
        <time>2025-04-24T15:43:39Z</time>
      </trkpt>
      <trkpt lat="45.505235977470875" lon="3.413960980251432">
        <ele>792.74000000000001</ele>
        <time>2025-04-24T15:43:40Z</time>
      </trkpt>
      <trkpt lat="45.505217034369707" lon="3.413858972489834">
        <ele>793.71000000000004</ele>
        <time>2025-04-24T15:43:41Z</time>
      </trkpt>
      <trkpt lat="45.505203036591411" lon="3.413744978606701">
        <ele>794.19000000000005</ele>
        <time>2025-04-24T15:43:42Z</time>
      </trkpt>
      <trkpt lat="45.505229020491242" lon="3.413626961410046">
        <ele>794.66999999999996</ele>
        <time>2025-04-24T15:43:43Z</time>
      </trkpt>
      <trkpt lat="45.505280988290906" lon="3.413554038852453">
        <ele>795.14999999999998</ele>
        <time>2025-04-24T15:43:44Z</time>
      </trkpt>
      <trkpt lat="45.50533396191895" lon="3.41348203830421">
        <ele>795.63</ele>
        <time>2025-04-24T15:43:45Z</time>
      </trkpt>
      <trkpt lat="45.505516016855836" lon="3.413296965882182">
        <ele>796.59000000000003</ele>
        <time>2025-04-24T15:43:48Z</time>
      </trkpt>
      <trkpt lat="45.50571802072227" lon="3.413125975057483">
        <ele>799.47000000000003</ele>
        <time>2025-04-24T15:43:55Z</time>
      </trkpt>
      <trkpt lat="45.505911977961659" lon="3.412961019203067">
        <ele>802.84000000000003</ele>
        <time>2025-04-24T15:44:04Z</time>
      </trkpt>
      <trkpt lat="45.5061050131917" lon="3.412722973152995">
        <ele>805.24000000000001</ele>
        <time>2025-04-24T15:44:09Z</time>
      </trkpt>
      <trkpt lat="45.506133008748293" lon="3.412687014788389">
        <ele>805.72000000000003</ele>
        <time>2025-04-24T15:44:10Z</time>
      </trkpt>
      <trkpt lat="45.506143989041448" lon="3.412671005353332">
        <ele>805.72000000000003</ele>
        <time>2025-04-24T15:44:11Z</time>
      </trkpt>
      <trkpt lat="45.506186988204718" lon="3.412520969286561">
        <ele>806.20000000000005</ele>
        <time>2025-04-24T15:44:12Z</time>
      </trkpt>
      <trkpt lat="45.506085986271501" lon="3.412638986483216">
        <ele>806.67999999999995</ele>
        <time>2025-04-24T15:44:13Z</time>
      </trkpt>
      <trkpt lat="45.506022032350302" lon="3.412604033946991">
        <ele>807.15999999999997</ele>
        <time>2025-04-24T15:44:14Z</time>
      </trkpt>
      <trkpt lat="45.505951037630439" lon="3.412563968449831">
        <ele>807.63999999999999</ele>
        <time>2025-04-24T15:44:15Z</time>
      </trkpt>
      <trkpt lat="45.505876019597054" lon="3.412522980943322">
        <ele>808.13</ele>
        <time>2025-04-24T15:44:16Z</time>
      </trkpt>
      <trkpt lat="45.505216028541327" lon="3.412158032879233">
        <ele>809.57000000000005</ele>
        <time>2025-04-24T15:44:25Z</time>
      </trkpt>
      <trkpt lat="45.505135981366038" lon="3.412113022059202">
        <ele>809.57000000000005</ele>
        <time>2025-04-24T15:44:26Z</time>
      </trkpt>
      <trkpt lat="45.505112009122968" lon="3.412025012075901">
        <ele>809.57000000000005</ele>
        <time>2025-04-24T15:44:27Z</time>
      </trkpt>
      <trkpt lat="45.505085019394755" lon="3.411925015971065">
        <ele>809.57000000000005</ele>
        <time>2025-04-24T15:44:28Z</time>
      </trkpt>
      <trkpt lat="45.505056018009782" lon="3.411815967410803">
        <ele>809.57000000000005</ele>
        <time>2025-04-24T15:44:29Z</time>
      </trkpt>
      <trkpt lat="45.505022993311286" lon="3.411696022376418">
        <ele>809.09000000000003</ele>
        <time>2025-04-24T15:44:30Z</time>
      </trkpt>
      <trkpt lat="45.50498996861279" lon="3.411570964381099">
        <ele>808.13</ele>
        <time>2025-04-24T15:44:31Z</time>
      </trkpt>
      <trkpt lat="45.50494696944952" lon="3.411453031003475">
        <ele>807.63999999999999</ele>
        <time>2025-04-24T15:44:32Z</time>
      </trkpt>
      <trkpt lat="45.504852002486587" lon="3.411198975518346">
        <ele>805.72000000000003</ele>
        <time>2025-04-24T15:44:34Z</time>
      </trkpt>
      <trkpt lat="45.504806991666555" lon="3.411079030483961">
        <ele>804.75999999999999</ele>
        <time>2025-04-24T15:44:35Z</time>
      </trkpt>
      <trkpt lat="45.504745971411467" lon="3.410999989137054">
        <ele>804.27999999999997</ele>
        <time>2025-04-24T15:44:36Z</time>
      </trkpt>
      <trkpt lat="45.504675982519984" lon="3.410938968881965">
        <ele>803.79999999999995</ele>
        <time>2025-04-24T15:44:37Z</time>
      </trkpt>
      <trkpt lat="45.504599958658218" lon="3.410887001082301">
        <ele>803.32000000000005</ele>
        <time>2025-04-24T15:44:38Z</time>
      </trkpt>
      <trkpt lat="45.50432201474905" lon="3.410811983048916">
        <ele>800.91999999999996</ele>
        <time>2025-04-24T15:44:41Z</time>
      </trkpt>
      <trkpt lat="45.504234004765749" lon="3.410761021077633">
        <ele>799.95000000000005</ele>
        <time>2025-04-24T15:44:42Z</time>
      </trkpt>
      <trkpt lat="45.504174996167421" lon="3.410623976960778">
        <ele>798.99000000000001</ele>
        <time>2025-04-24T15:44:43Z</time>
      </trkpt>
      <trkpt lat="45.504114981740713" lon="3.410482993349433">
        <ele>798.50999999999999</ele>
        <time>2025-04-24T15:44:44Z</time>
      </trkpt>
      <trkpt lat="45.504093021154404" lon="3.410295993089676">
        <ele>797.54999999999995</ele>
        <time>2025-04-24T15:44:45Z</time>
      </trkpt>
      <trkpt lat="45.504078017547727" lon="3.410103041678667">
        <ele>796.59000000000003</ele>
        <time>2025-04-24T15:44:46Z</time>
      </trkpt>
      <trkpt lat="45.503972992300987" lon="3.408911973237991">
        <ele>790.82000000000005</ele>
        <time>2025-04-24T15:44:52Z</time>
      </trkpt>
      <trkpt lat="45.503894034773111" lon="3.408443005755544">
        <ele>786.98000000000002</ele>
        <time>2025-04-24T15:44:55Z</time>
      </trkpt>
      <trkpt lat="45.503840977326035" lon="3.408320965245366">
        <ele>786.01999999999998</ele>
        <time>2025-04-24T15:44:56Z</time>
      </trkpt>
      <trkpt lat="45.503778029233217" lon="3.408191967755556">
        <ele>784.57000000000005</ele>
        <time>2025-04-24T15:44:57Z</time>
      </trkpt>
      <trkpt lat="45.503709968179464" lon="3.408052995800972">
        <ele>783.61000000000001</ele>
        <time>2025-04-24T15:44:58Z</time>
      </trkpt>
      <trkpt lat="45.50363696180284" lon="3.407902959734201">
        <ele>782.64999999999998</ele>
        <time>2025-04-24T15:44:59Z</time>
      </trkpt>
      <trkpt lat="45.503142010420561" lon="3.406705018132925">
        <ele>774.48000000000002</ele>
        <time>2025-04-24T15:45:07Z</time>
      </trkpt>
      <trkpt lat="45.502865994349122" lon="3.406162038445473">
        <ele>768.23000000000002</ele>
        <time>2025-04-24T15:45:15Z</time>
      </trkpt>
      <trkpt lat="45.502824001014233" lon="3.406109986826778">
        <ele>765.83000000000004</ele>
        <time>2025-04-24T15:45:24Z</time>
      </trkpt>
      <trkpt lat="45.502824001014233" lon="3.406109986826778">
        <ele>764.87</ele>
        <time>2025-04-24T15:46:02Z</time>
      </trkpt>
      <trkpt lat="45.502824001014233" lon="3.406109986826778">
        <ele>764.87</ele>
        <time>2025-04-24T15:46:44Z</time>
      </trkpt>
      <trkpt lat="45.502824001014233" lon="3.406109986826778">
        <ele>764.87</ele>
        <time>2025-04-24T15:47:31Z</time>
      </trkpt>
      <trkpt lat="45.502675976604223" lon="3.405931033194065">
        <ele>766.30999999999995</ele>
        <time>2025-04-24T15:47:54Z</time>
      </trkpt>
      <trkpt lat="45.502013973891735" lon="3.405403979122639">
        <ele>762.46000000000004</ele>
        <time>2025-04-24T15:48:01Z</time>
      </trkpt>
      <trkpt lat="45.501813981682062" lon="3.405251009389758">
        <ele>761.01999999999998</ele>
        <time>2025-04-24T15:48:03Z</time>
      </trkpt>
      <trkpt lat="45.501727983355522" lon="3.405184959992766">
        <ele>760.53999999999996</ele>
        <time>2025-04-24T15:48:04Z</time>
      </trkpt>
      <trkpt lat="45.501618012785912" lon="3.405217984691262">
        <ele>759.58000000000004</ele>
        <time>2025-04-24T15:48:05Z</time>
      </trkpt>
      <trkpt lat="45.501522039994597" lon="3.405250003561378">
        <ele>759.10000000000002</ele>
        <time>2025-04-24T15:48:06Z</time>
      </trkpt>
      <trkpt lat="45.501427995041013" lon="3.405302977189422">
        <ele>758.62</ele>
        <time>2025-04-24T15:48:07Z</time>
      </trkpt>
      <trkpt lat="45.50133797340095" lon="3.405386041849852">
        <ele>758.13999999999999</ele>
        <time>2025-04-24T15:48:08Z</time>
      </trkpt>
      <trkpt lat="45.501240994781256" lon="3.405474973842502">
        <ele>757.65999999999997</ele>
        <time>2025-04-24T15:48:09Z</time>
      </trkpt>
      <trkpt lat="45.501136975362897" lon="3.405571030452848">
        <ele>756.69000000000005</ele>
        <time>2025-04-24T15:48:10Z</time>
      </trkpt>
      <trkpt lat="45.500930026173592" lon="3.405760964378715">
        <ele>755.25</ele>
        <time>2025-04-24T15:48:12Z</time>
      </trkpt>
      <trkpt lat="45.500843022018671" lon="3.405761970207095">
        <ele>754.28999999999996</ele>
        <time>2025-04-24T15:48:13Z</time>
      </trkpt>
      <trkpt lat="45.500731039792299" lon="3.405761970207095">
        <ele>753.33000000000004</ele>
        <time>2025-04-24T15:48:14Z</time>
      </trkpt>
      <trkpt lat="45.500636994838715" lon="3.405726011842489">
        <ele>752.37</ele>
        <time>2025-04-24T15:48:15Z</time>
      </trkpt>
      <trkpt lat="45.500521995127201" lon="3.405654011294246">
        <ele>750.92999999999995</ele>
        <time>2025-04-24T15:48:16Z</time>
      </trkpt>
      <trkpt lat="45.500416969880462" lon="3.40555502101779">
        <ele>750.45000000000005</ele>
        <time>2025-04-24T15:48:17Z</time>
      </trkpt>
      <trkpt lat="45.500298030674458" lon="3.405443038791418">
        <ele>749.49000000000001</ele>
        <time>2025-04-24T15:48:18Z</time>
      </trkpt>
      <trkpt lat="45.500090997666121" lon="3.405185965821147">
        <ele>747.55999999999995</ele>
        <time>2025-04-24T15:48:20Z</time>
      </trkpt>
      <trkpt lat="45.500010028481483" lon="3.405032996088266">
        <ele>746.60000000000002</ele>
        <time>2025-04-24T15:48:21Z</time>
      </trkpt>
      <trkpt lat="45.499954959377646" lon="3.404868040233851">
        <ele>745.63999999999999</ele>
        <time>2025-04-24T15:48:22Z</time>
      </trkpt>
      <trkpt lat="45.499931992962956" lon="3.404668970033526">
        <ele>744.67999999999995</ele>
        <time>2025-04-24T15:48:23Z</time>
      </trkpt>
      <trkpt lat="45.49991799518466" lon="3.404449028894305">
        <ele>744.20000000000005</ele>
        <time>2025-04-24T15:48:24Z</time>
      </trkpt>
      <trkpt lat="45.499856974929571" lon="3.403186965733767">
        <ele>738.42999999999995</ele>
        <time>2025-04-24T15:48:30Z</time>
      </trkpt>
      <trkpt lat="45.499796038493514" lon="3.40304296463728">
        <ele>737.47000000000003</ele>
        <time>2025-04-24T15:48:31Z</time>
      </trkpt>
      <trkpt lat="45.499739041551948" lon="3.402909021824598">
        <ele>736.50999999999999</ele>
        <time>2025-04-24T15:48:32Z</time>
      </trkpt>
      <trkpt lat="45.499686989933252" lon="3.40278496965766">
        <ele>735.07000000000005</ele>
        <time>2025-04-24T15:48:33Z</time>
      </trkpt>
      <trkpt lat="45.499642984941602" lon="3.402681034058332">
        <ele>734.10000000000002</ele>
        <time>2025-04-24T15:48:34Z</time>
      </trkpt>
      <trkpt lat="45.499651031568646" lon="3.402539966627955">
        <ele>732.65999999999997</ele>
        <time>2025-04-24T15:48:35Z</time>
      </trkpt>
      <trkpt lat="45.499718002974987" lon="3.402479030191898">
        <ele>731.70000000000005</ele>
        <time>2025-04-24T15:48:36Z</time>
      </trkpt>
      <trkpt lat="45.499770976603031" lon="3.402456985786557">
        <ele>730.25999999999999</ele>
        <time>2025-04-24T15:48:37Z</time>
      </trkpt>
      <trkpt lat="45.499847000464797" lon="3.402519011870027">
        <ele>729.29999999999995</ele>
        <time>2025-04-24T15:48:38Z</time>
      </trkpt>
      <trkpt lat="45.499927969649434" lon="3.402584977447987">
        <ele>727.86000000000001</ele>
        <time>2025-04-24T15:48:39Z</time>
      </trkpt>
      <trkpt lat="45.500014973804355" lon="3.40265597216785">
        <ele>726.88999999999999</ele>
        <time>2025-04-24T15:48:40Z</time>
      </trkpt>
      <trkpt lat="45.500107007101178" lon="3.402730990201235">
        <ele>725.45000000000005</ele>
        <time>2025-04-24T15:48:41Z</time>
      </trkpt>
      <trkpt lat="45.500277997925878" lon="3.402869962155819">
        <ele>723.04999999999995</ele>
        <time>2025-04-24T15:48:43Z</time>
      </trkpt>
      <trkpt lat="45.500351004302502" lon="3.402928970754147">
        <ele>722.09000000000003</ele>
        <time>2025-04-24T15:48:44Z</time>
      </trkpt>
      <trkpt lat="45.500432979315519" lon="3.402920002117753">
        <ele>720.64999999999998</ele>
        <time>2025-04-24T15:48:45Z</time>
      </trkpt>
      <trkpt lat="45.500496011227369" lon="3.402912961319089">
        <ele>719.67999999999995</ele>
        <time>2025-04-24T15:48:46Z</time>
      </trkpt>
      <trkpt lat="45.500544039532542" lon="3.402908015996218">
        <ele>719.20000000000005</ele>
        <time>2025-04-24T15:48:47Z</time>
      </trkpt>
      <trkpt lat="45.500555019825697" lon="3.402861999347806">
        <ele>718.24000000000001</ele>
        <time>2025-04-24T15:48:48Z</time>
      </trkpt>
      <trkpt lat="45.500570023432374" lon="3.402800979092717">
        <ele>717.75999999999999</ele>
        <time>2025-04-24T15:48:49Z</time>
      </trkpt>
      <trkpt lat="45.500587960705161" lon="3.402729984372854">
        <ele>716.79999999999995</ele>
        <time>2025-04-24T15:48:50Z</time>
      </trkpt>
      <trkpt lat="45.500607993453741" lon="3.402639040723443">
        <ele>716.32000000000005</ele>
        <time>2025-04-24T15:48:51Z</time>
      </trkpt>
      <trkpt lat="45.500613022595644" lon="3.40252404101193">
        <ele>715.36000000000001</ele>
        <time>2025-04-24T15:48:52Z</time>
      </trkpt>
      <trkpt lat="45.500617967918515" lon="3.402403006330133">
        <ele>714.39999999999998</ele>
        <time>2025-04-24T15:48:53Z</time>
      </trkpt>
      <trkpt lat="45.500622997060418" lon="3.402280965819955">
        <ele>713.91999999999996</ele>
        <time>2025-04-24T15:48:54Z</time>
      </trkpt>
      <trkpt lat="45.500629032030702" lon="3.402155991643667">
        <ele>712.95000000000005</ele>
        <time>2025-04-24T15:48:55Z</time>
      </trkpt>
      <trkpt lat="45.500656021758914" lon="3.402045015245676">
        <ele>711.99000000000001</ele>
        <time>2025-04-24T15:48:56Z</time>
      </trkpt>
      <trkpt lat="45.500687034800649" lon="3.401938984170556">
        <ele>711.50999999999999</ele>
        <time>2025-04-24T15:48:57Z</time>
      </trkpt>
      <trkpt lat="45.500716036185622" lon="3.4018399938941">
        <ele>710.54999999999995</ele>
        <time>2025-04-24T15:48:58Z</time>
      </trkpt>
      <trkpt lat="45.500744031742215" lon="3.401767993345857">
        <ele>710.07000000000005</ele>
        <time>2025-04-24T15:48:59Z</time>
      </trkpt>
      <trkpt lat="45.500813014805317" lon="3.401747960597277">
        <ele>709.11000000000001</ele>
        <time>2025-04-24T15:49:00Z</time>
      </trkpt>
      <trkpt lat="45.500889960676432" lon="3.401724994182587">
        <ele>708.14999999999998</ele>
        <time>2025-04-24T15:49:01Z</time>
      </trkpt>
      <trkpt lat="45.500976964831352" lon="3.401718037202954">
        <ele>707.19000000000005</ele>
        <time>2025-04-24T15:49:02Z</time>
      </trkpt>
      <trkpt lat="45.501065980643034" lon="3.401758018881083">
        <ele>706.71000000000004</ele>
        <time>2025-04-24T15:49:03Z</time>
      </trkpt>
      <trkpt lat="45.501187015324831" lon="3.401814009994268">
        <ele>705.75</ele>
        <time>2025-04-24T15:49:04Z</time>
      </trkpt>
      <trkpt lat="45.50124803557992" lon="3.401874024420977">
        <ele>704.77999999999997</ele>
        <time>2025-04-24T15:49:05Z</time>
      </trkpt>
      <trkpt lat="45.501326993107796" lon="3.401977960020304">
        <ele>703.82000000000005</ele>
        <time>2025-04-24T15:49:06Z</time>
      </trkpt>
      <trkpt lat="45.501366974785924" lon="3.402107041329145">
        <ele>702.86000000000001</ele>
        <time>2025-04-24T15:49:07Z</time>
      </trkpt>
      <trkpt lat="45.501402011141181" lon="3.402221035212278">
        <ele>702.38</ele>
        <time>2025-04-24T15:49:08Z</time>
      </trkpt>
      <trkpt lat="45.501388013362885" lon="3.402381967753172">
        <ele>701.89999999999998</ele>
        <time>2025-04-24T15:49:09Z</time>
      </trkpt>
      <trkpt lat="45.501374015584588" lon="3.402536027133465">
        <ele>701.41999999999996</ele>
        <time>2025-04-24T15:49:10Z</time>
      </trkpt>
      <trkpt lat="45.501361023634672" lon="3.402690002694726">
        <ele>700.94000000000005</ele>
        <time>2025-04-24T15:49:11Z</time>
      </trkpt>
      <trkpt lat="45.501348031684756" lon="3.402834003791213">
        <ele>700.94000000000005</ele>
        <time>2025-04-24T15:49:12Z</time>
      </trkpt>
      <trkpt lat="45.50133797340095" lon="3.402951015159488">
        <ele>700.46000000000004</ele>
        <time>2025-04-24T15:49:13Z</time>
      </trkpt>
      <trkpt lat="45.50137703306973" lon="3.403058974072337">
        <ele>699.98000000000002</ele>
        <time>2025-04-24T15:49:14Z</time>
      </trkpt>
      <trkpt lat="45.501412991434336" lon="3.403157964348793">
        <ele>699.5</ele>
        <time>2025-04-24T15:49:15Z</time>
      </trkpt>
      <trkpt lat="45.501489015296102" lon="3.403189983218908">
        <ele>699.01999999999998</ele>
        <time>2025-04-24T15:49:16Z</time>
      </trkpt>
      <trkpt lat="45.501583982259035" lon="3.403194006532431">
        <ele>698.52999999999997</ele>
        <time>2025-04-24T15:49:17Z</time>
      </trkpt>
      <trkpt lat="45.501692024990916" lon="3.403198029845953">
        <ele>698.04999999999995</ele>
        <time>2025-04-24T15:49:18Z</time>
      </trkpt>
      <trkpt lat="45.501819010823965" lon="3.403203980997205">
        <ele>697.09000000000003</ele>
        <time>2025-04-24T15:49:19Z</time>
      </trkpt>
      <trkpt lat="45.502225030213594" lon="3.403227031230927">
        <ele>694.69000000000005</ele>
        <time>2025-04-24T15:49:22Z</time>
      </trkpt>
      <trkpt lat="45.502374982461333" lon="3.403184032067657">
        <ele>693.25</ele>
        <time>2025-04-24T15:49:23Z</time>
      </trkpt>
      <trkpt lat="45.502519989386201" lon="3.40312602929771">
        <ele>692.28999999999996</ele>
        <time>2025-04-24T15:49:24Z</time>
      </trkpt>
      <trkpt lat="45.502964984625578" lon="3.402947997674346">
        <ele>688.91999999999996</ele>
        <time>2025-04-24T15:49:27Z</time>
      </trkpt>
      <trkpt lat="45.503233037889004" lon="3.40291396714747">
        <ele>686.51999999999998</ele>
        <time>2025-04-24T15:49:29Z</time>
      </trkpt>
      <trkpt lat="45.503366980701685" lon="3.402926037088037">
        <ele>685.08000000000004</ele>
        <time>2025-04-24T15:49:30Z</time>
      </trkpt>
      <trkpt lat="45.503521962091327" lon="3.402974987402558">
        <ele>684.12</ele>
        <time>2025-04-24T15:49:31Z</time>
      </trkpt>
      <trkpt lat="45.504139037802815" lon="3.403108008205891">
        <ele>678.35000000000002</ele>
        <time>2025-04-24T15:49:35Z</time>
      </trkpt>
      <trkpt lat="45.504370965063572" lon="3.403203980997205">
        <ele>675.46000000000004</ele>
        <time>2025-04-24T15:49:37Z</time>
      </trkpt>
      <trkpt lat="45.504465010017157" lon="3.403286961838603">
        <ele>674.01999999999998</ele>
        <time>2025-04-24T15:49:38Z</time>
      </trkpt>
      <trkpt lat="45.504550002515316" lon="3.403360974043608">
        <ele>672.58000000000004</ele>
        <time>2025-04-24T15:49:39Z</time>
      </trkpt>
      <trkpt lat="45.504619991406798" lon="3.403421994298697">
        <ele>671.62</ele>
        <time>2025-04-24T15:49:40Z</time>
      </trkpt>
      <trkpt lat="45.50468796864152" lon="3.403384024277329">
        <ele>670.65999999999997</ele>
        <time>2025-04-24T15:49:41Z</time>
      </trkpt>
      <trkpt lat="45.50477103330195" lon="3.403337001800537">
        <ele>670.17999999999995</ele>
        <time>2025-04-24T15:49:42Z</time>
      </trkpt>
      <trkpt lat="45.504853008314967" lon="3.403243040665984">
        <ele>669.70000000000005</ele>
        <time>2025-04-24T15:49:43Z</time>
      </trkpt>
      <trkpt lat="45.504951998591423" lon="3.4031299687922">
        <ele>669.70000000000005</ele>
        <time>2025-04-24T15:49:44Z</time>
      </trkpt>
      <trkpt lat="45.505155008286238" lon="3.402898041531444">
        <ele>669.22000000000003</ele>
        <time>2025-04-24T15:49:46Z</time>
      </trkpt>
      <trkpt lat="45.505264978855848" lon="3.402799973264337">
        <ele>668.73000000000002</ele>
        <time>2025-04-24T15:49:47Z</time>
      </trkpt>
      <trkpt lat="45.505386013537645" lon="3.402739958837628">
        <ele>668.73000000000002</ele>
        <time>2025-04-24T15:49:48Z</time>
      </trkpt>
      <trkpt lat="45.505509981885552" lon="3.402714980766177">
        <ele>668.25</ele>
        <time>2025-04-24T15:49:49Z</time>
      </trkpt>
      <trkpt lat="45.505618024617434" lon="3.402695031836629">
        <ele>667.28999999999996</ele>
        <time>2025-04-24T15:49:50Z</time>
      </trkpt>
      <trkpt lat="45.505710979923606" lon="3.402760997414589">
        <ele>666.80999999999995</ele>
        <time>2025-04-24T15:49:51Z</time>
      </trkpt>
      <trkpt lat="45.505770994350314" lon="3.402846995741129">
        <ele>665.85000000000002</ele>
        <time>2025-04-24T15:49:52Z</time>
      </trkpt>
      <trkpt lat="45.505803013220429" lon="3.402973981574178">
        <ele>664.40999999999997</ele>
        <time>2025-04-24T15:49:53Z</time>
      </trkpt>
      <trkpt lat="45.505819022655487" lon="3.403132986277342">
        <ele>663.45000000000005</ele>
        <time>2025-04-24T15:49:54Z</time>
      </trkpt>
      <trkpt lat="45.505836959928274" lon="3.403316969051957">
        <ele>662.49000000000001</ele>
        <time>2025-04-24T15:49:55Z</time>
      </trkpt>
      <trkpt lat="45.505856992676854" lon="3.403524002060294">
        <ele>661.03999999999996</ele>
        <time>2025-04-24T15:49:56Z</time>
      </trkpt>
      <trkpt lat="45.505878031253815" lon="3.403732962906361">
        <ele>659.12</ele>
        <time>2025-04-24T15:49:57Z</time>
      </trkpt>
      <trkpt lat="45.505929999053478" lon="3.404260016977787">
        <ele>654.79999999999995</ele>
        <time>2025-04-24T15:50:00Z</time>
      </trkpt>
      <trkpt lat="45.505956988781691" lon="3.404329000040889">
        <ele>653.83000000000004</ele>
        <time>2025-04-24T15:50:01Z</time>
      </trkpt>
      <trkpt lat="45.506034018471837" lon="3.404356995597482">
        <ele>652.38999999999999</ele>
        <time>2025-04-24T15:50:02Z</time>
      </trkpt>
      <trkpt lat="45.506096966564655" lon="3.404346015304327">
        <ele>651.42999999999995</ele>
        <time>2025-04-24T15:50:03Z</time>
      </trkpt>
      <trkpt lat="45.506132002919912" lon="3.404262028634548">
        <ele>650.95000000000005</ele>
        <time>2025-04-24T15:50:04Z</time>
      </trkpt>
      <trkpt lat="45.506175002083182" lon="3.404147028923035">
        <ele>650.95000000000005</ele>
        <time>2025-04-24T15:50:05Z</time>
      </trkpt>
      <trkpt lat="45.506222024559975" lon="3.404020965099335">
        <ele>650.47000000000003</ele>
        <time>2025-04-24T15:50:06Z</time>
      </trkpt>
      <trkpt lat="45.506270974874496" lon="3.403890961781144">
        <ele>649.99000000000001</ele>
        <time>2025-04-24T15:50:07Z</time>
      </trkpt>
      <trkpt lat="45.506323026493192" lon="3.403748972341418">
        <ele>649.99000000000001</ele>
        <time>2025-04-24T15:50:08Z</time>
      </trkpt>
      <trkpt lat="45.506383962929249" lon="3.403588039800525">
        <ele>649.99000000000001</ele>
        <time>2025-04-24T15:50:09Z</time>
      </trkpt>
      <trkpt lat="45.506716975942254" lon="3.402819000184536">
        <ele>647.10000000000002</ele>
        <time>2025-04-24T15:50:14Z</time>
      </trkpt>
      <trkpt lat="45.506868017837405" lon="3.402544995769858">
        <ele>645.65999999999997</ele>
        <time>2025-04-24T15:50:16Z</time>
      </trkpt>
      <trkpt lat="45.506925014778972" lon="3.402357995510101">
        <ele>645.17999999999995</ele>
        <time>2025-04-24T15:50:17Z</time>
      </trkpt>
      <trkpt lat="45.506920991465449" lon="3.402135958895087">
        <ele>644.70000000000005</ele>
        <time>2025-04-24T15:50:18Z</time>
      </trkpt>
      <trkpt lat="45.506872041150928" lon="3.401952981948853">
        <ele>643.74000000000001</ele>
        <time>2025-04-24T15:50:19Z</time>
      </trkpt>
      <trkpt lat="45.506823007017374" lon="3.401768999174237">
        <ele>643.25999999999999</ele>
        <time>2025-04-24T15:50:20Z</time>
      </trkpt>
      <trkpt lat="45.506777996197343" lon="3.401599014177918">
        <ele>642.77999999999997</ele>
        <time>2025-04-24T15:50:21Z</time>
      </trkpt>
      <trkpt lat="45.506766010075808" lon="3.401450989767909">
        <ele>642.29999999999995</ele>
        <time>2025-04-24T15:50:22Z</time>
      </trkpt>
      <trkpt lat="45.506766010075808" lon="3.401321992278099">
        <ele>641.82000000000005</ele>
        <time>2025-04-24T15:50:23Z</time>
      </trkpt>
      <trkpt lat="45.506824012845755" lon="3.401219984516501">
        <ele>641.34000000000003</ele>
        <time>2025-04-24T15:50:24Z</time>
      </trkpt>
      <trkpt lat="45.506918979808688" lon="3.401146978139877">
        <ele>640.86000000000001</ele>
        <time>2025-04-24T15:50:25Z</time>
      </trkpt>
      <trkpt lat="45.507033979520202" lon="3.401089981198311">
        <ele>640.86000000000001</ele>
        <time>2025-04-24T15:50:26Z</time>
      </trkpt>
      <trkpt lat="45.50715702585876" lon="3.401028038933873">
        <ele>640.38</ele>
        <time>2025-04-24T15:50:27Z</time>
      </trkpt>
      <trkpt lat="45.507277976721525" lon="3.400943968445063">
        <ele>639.88999999999999</ele>
        <time>2025-04-24T15:50:28Z</time>
      </trkpt>
      <trkpt lat="45.507357018068433" lon="3.400803990662098">
        <ele>639.40999999999997</ele>
        <time>2025-04-24T15:50:29Z</time>
      </trkpt>
      <trkpt lat="45.507421977818012" lon="3.400688990950584">
        <ele>638.45000000000005</ele>
        <time>2025-04-24T15:50:30Z</time>
      </trkpt>
      <trkpt lat="45.507446033880115" lon="3.400558987632394">
        <ele>637.97000000000003</ele>
        <time>2025-04-24T15:50:31Z</time>
      </trkpt>
      <trkpt lat="45.507430024445057" lon="3.400416998192668">
        <ele>637.49000000000001</ele>
        <time>2025-04-24T15:50:32Z</time>
      </trkpt>
      <trkpt lat="45.507361041381955" lon="3.400315996259451">
        <ele>637.00999999999999</ele>
        <time>2025-04-24T15:50:33Z</time>
      </trkpt>
      <trkpt lat="45.507276970893145" lon="3.400193033739924">
        <ele>636.04999999999995</ele>
        <time>2025-04-24T15:50:34Z</time>
      </trkpt>
      <trkpt lat="45.507184015586972" lon="3.400058001279831">
        <ele>635.57000000000005</ele>
        <time>2025-04-24T15:50:35Z</time>
      </trkpt>
      <trkpt lat="45.506896013393998" lon="3.399608982726932">
        <ele>633.16999999999996</ele>
        <time>2025-04-24T15:50:38Z</time>
      </trkpt>
      <trkpt lat="45.506831975653768" lon="3.399422988295555">
        <ele>632.67999999999995</ele>
        <time>2025-04-24T15:50:39Z</time>
      </trkpt>
      <trkpt lat="45.50677103921771" lon="3.399248979985714">
        <ele>631.72000000000003</ele>
        <time>2025-04-24T15:50:40Z</time>
      </trkpt>
      <trkpt lat="45.506751006469131" lon="3.399064997211099">
        <ele>631.24000000000001</ele>
        <time>2025-04-24T15:50:41Z</time>
      </trkpt>
      <trkpt lat="45.506759975105524" lon="3.398883026093245">
        <ele>630.27999999999997</ele>
        <time>2025-04-24T15:50:42Z</time>
      </trkpt>
      <trkpt lat="45.506785036996007" lon="3.398704994469881">
        <ele>629.32000000000005</ele>
        <time>2025-04-24T15:50:43Z</time>
      </trkpt>
      <trkpt lat="45.506840022280812" lon="3.398516988381743">
        <ele>628.36000000000001</ele>
        <time>2025-04-24T15:50:44Z</time>
      </trkpt>
      <trkpt lat="45.506896013393998" lon="3.398325964808464">
        <ele>627.39999999999998</ele>
        <time>2025-04-24T15:50:45Z</time>
      </trkpt>
      <trkpt lat="45.507062980905175" lon="3.397755995392799">
        <ele>624.50999999999999</ele>
        <time>2025-04-24T15:50:48Z</time>
      </trkpt>
      <trkpt lat="45.507084019482136" lon="3.397558014839888">
        <ele>624.02999999999997</ele>
        <time>2025-04-24T15:50:49Z</time>
      </trkpt>
      <trkpt lat="45.507076978683472" lon="3.39737000875175">
        <ele>623.54999999999995</ele>
        <time>2025-04-24T15:50:50Z</time>
      </trkpt>
      <trkpt lat="45.507111009210348" lon="3.396092019975185">
        <ele>619.23000000000002</ele>
        <time>2025-04-24T15:50:56Z</time>
      </trkpt>
      <trkpt lat="45.507212011143565" lon="3.395548034459353">
        <ele>616.82000000000005</ele>
        <time>2025-04-24T15:50:59Z</time>
      </trkpt>
      <trkpt lat="45.507242018356919" lon="3.395388023927808">
        <ele>615.38</ele>
        <time>2025-04-24T15:51:00Z</time>
      </trkpt>
      <trkpt lat="45.507285017520189" lon="3.395235976204276">
        <ele>614.89999999999998</ele>
        <time>2025-04-24T15:51:01Z</time>
      </trkpt>
      <trkpt lat="45.507356012240052" lon="3.395084012299776">
        <ele>613.94000000000005</ele>
        <time>2025-04-24T15:51:02Z</time>
      </trkpt>
      <trkpt lat="45.50743899308145" lon="3.394945040345192">
        <ele>612.98000000000002</ele>
        <time>2025-04-24T15:51:03Z</time>
      </trkpt>
      <trkpt lat="45.507539995014668" lon="3.394864993169904">
        <ele>612.01999999999998</ele>
        <time>2025-04-24T15:51:04Z</time>
      </trkpt>
      <trkpt lat="45.507634039968252" lon="3.394788969308138">
        <ele>611.05999999999995</ele>
        <time>2025-04-24T15:51:05Z</time>
      </trkpt>
      <trkpt lat="45.507721966132522" lon="3.394718980416656">
        <ele>610.09000000000003</ele>
        <time>2025-04-24T15:51:06Z</time>
      </trkpt>
      <trkpt lat="45.507767982780933" lon="3.394601969048381">
        <ele>609.61000000000001</ele>
        <time>2025-04-24T15:51:07Z</time>
      </trkpt>
      <trkpt lat="45.50773998722434" lon="3.394513037055731">
        <ele>608.64999999999998</ele>
        <time>2025-04-24T15:51:08Z</time>
      </trkpt>
      <trkpt lat="45.507693970575929" lon="3.394436007365584">
        <ele>608.16999999999996</ele>
        <time>2025-04-24T15:51:09Z</time>
      </trkpt>
      <trkpt lat="45.50761098973453" lon="3.394350009039044">
        <ele>607.21000000000004</ele>
        <time>2025-04-24T15:51:10Z</time>
      </trkpt>
      <trkpt lat="45.507511999458075" lon="3.394246995449066">
        <ele>606.73000000000002</ele>
        <time>2025-04-24T15:51:11Z</time>
      </trkpt>
      <trkpt lat="45.507406974211335" lon="3.394138030707836">
        <ele>605.28999999999996</ele>
        <time>2025-04-24T15:51:12Z</time>
      </trkpt>
      <trkpt lat="45.507053006440401" lon="3.393745003268123">
        <ele>601.91999999999996</ele>
        <time>2025-04-24T15:51:15Z</time>
      </trkpt>
      <trkpt lat="45.506933983415365" lon="3.393595973029733">
        <ele>600.96000000000004</ele>
        <time>2025-04-24T15:51:16Z</time>
      </trkpt>
      <trkpt lat="45.506830969825387" lon="3.393466975539923">
        <ele>599.51999999999998</ele>
        <time>2025-04-24T15:51:17Z</time>
      </trkpt>
      <trkpt lat="45.506765004247427" lon="3.393270000815392">
        <ele>599.03999999999996</ele>
        <time>2025-04-24T15:51:18Z</time>
      </trkpt>
      <trkpt lat="45.506701972335577" lon="3.393079983070493">
        <ele>598.08000000000004</ele>
        <time>2025-04-24T15:51:19Z</time>
      </trkpt>
      <trkpt lat="45.506714964285493" lon="3.392896000295878">
        <ele>597.12</ele>
        <time>2025-04-24T15:51:20Z</time>
      </trkpt>
      <trkpt lat="45.506740026175976" lon="3.392699025571346">
        <ele>595.66999999999996</ele>
        <time>2025-04-24T15:51:21Z</time>
      </trkpt>
      <trkpt lat="45.506782019510865" lon="3.392500039190054">
        <ele>594.23000000000002</ele>
        <time>2025-04-24T15:51:22Z</time>
      </trkpt>
      <trkpt lat="45.506830969825387" lon="3.392265010625124">
        <ele>592.78999999999996</ele>
        <time>2025-04-24T15:51:23Z</time>
      </trkpt>
      <trkpt lat="45.50689903087914" lon="3.39212897233665">
        <ele>591.83000000000004</ele>
        <time>2025-04-24T15:51:24Z</time>
      </trkpt>
      <trkpt lat="45.506987040862441" lon="3.39195697568357">
        <ele>590.38999999999999</ele>
        <time>2025-04-24T15:51:25Z</time>
      </trkpt>
      <trkpt lat="45.507105980068445" lon="3.391824960708618">
        <ele>589.42999999999995</ele>
        <time>2025-04-24T15:51:26Z</time>
      </trkpt>
      <trkpt lat="45.507220979779959" lon="3.391724964603782">
        <ele>588.46000000000004</ele>
        <time>2025-04-24T15:51:27Z</time>
      </trkpt>
      <trkpt lat="45.507338996976614" lon="3.391662016510963">
        <ele>587.01999999999998</ele>
        <time>2025-04-24T15:51:28Z</time>
      </trkpt>
      <trkpt lat="45.507443016394973" lon="3.391606025397778">
        <ele>586.05999999999995</ele>
        <time>2025-04-24T15:51:29Z</time>
      </trkpt>
      <trkpt lat="45.50752499140799" lon="3.391541987657547">
        <ele>585.10000000000002</ele>
        <time>2025-04-24T15:51:30Z</time>
      </trkpt>
      <trkpt lat="45.507581988349557" lon="3.391431011259556">
        <ele>585.10000000000002</ele>
        <time>2025-04-24T15:51:31Z</time>
      </trkpt>
      <trkpt lat="45.507581988349557" lon="3.391321040689945">
        <ele>584.62</ele>
        <time>2025-04-24T15:51:32Z</time>
      </trkpt>
      <trkpt lat="45.507536977529526" lon="3.391186008229852">
        <ele>584.13999999999999</ele>
        <time>2025-04-24T15:51:33Z</time>
      </trkpt>
      <trkpt lat="45.507493978366256" lon="3.391056004911661">
        <ele>583.65999999999997</ele>
        <time>2025-04-24T15:51:34Z</time>
      </trkpt>
      <trkpt lat="45.507447039708495" lon="3.390917032957077">
        <ele>583.17999999999995</ele>
        <time>2025-04-24T15:51:35Z</time>
      </trkpt>
      <trkpt lat="45.507401023060083" lon="3.390778983011842">
        <ele>582.22000000000003</ele>
        <time>2025-04-24T15:51:36Z</time>
      </trkpt>
      <trkpt lat="45.507389036938548" lon="3.390632970258594">
        <ele>581.73000000000002</ele>
        <time>2025-04-24T15:51:37Z</time>
      </trkpt>
      <trkpt lat="45.507406974211335" lon="3.390503972768784">
        <ele>580.28999999999996</ele>
        <time>2025-04-24T15:51:38Z</time>
      </trkpt>
      <trkpt lat="45.507452990859747" lon="3.390398025512695">
        <ele>579.33000000000004</ele>
        <time>2025-04-24T15:51:39Z</time>
      </trkpt>
      <trkpt lat="45.507518034428358" lon="3.390316972509027">
        <ele>578.37</ele>
        <time>2025-04-24T15:51:40Z</time>
      </trkpt>
      <trkpt lat="45.507591962814331" lon="3.390224017202854">
        <ele>576.92999999999995</ele>
        <time>2025-04-24T15:51:41Z</time>
      </trkpt>
      <trkpt lat="45.507665975019336" lon="3.390131983906031">
        <ele>575.49000000000001</ele>
        <time>2025-04-24T15:51:42Z</time>
      </trkpt>
      <trkpt lat="45.507720038294792" lon="3.390015978366137">
        <ele>574.03999999999996</ele>
        <time>2025-04-24T15:51:43Z</time>
      </trkpt>
      <trkpt lat="45.50773998722434" lon="3.389898966997862">
        <ele>572.60000000000002</ele>
        <time>2025-04-24T15:51:44Z</time>
      </trkpt>
      <trkpt lat="45.507734036073089" lon="3.389750020578504">
        <ele>571.63999999999999</ele>
        <time>2025-04-24T15:51:45Z</time>
      </trkpt>
      <trkpt lat="45.507664969190955" lon="3.389611970633268">
        <ele>570.20000000000005</ele>
        <time>2025-04-24T15:51:46Z</time>
      </trkpt>
      <trkpt lat="45.507564973086119" lon="3.389489008113742">
        <ele>569.24000000000001</ele>
        <time>2025-04-24T15:51:47Z</time>
      </trkpt>
      <trkpt lat="45.507456008344889" lon="3.389353975653648">
        <ele>567.79999999999995</ele>
        <time>2025-04-24T15:51:48Z</time>
      </trkpt>
      <trkpt lat="45.507354000583291" lon="3.3892269898206">
        <ele>566.35000000000002</ele>
        <time>2025-04-24T15:51:49Z</time>
      </trkpt>
      <trkpt lat="45.507260039448738" lon="3.389110984280706">
        <ele>565.38999999999999</ele>
        <time>2025-04-24T15:51:50Z</time>
      </trkpt>
      <trkpt lat="45.507207987830043" lon="3.388948040083051">
        <ele>563.95000000000005</ele>
        <time>2025-04-24T15:51:51Z</time>
      </trkpt>
      <trkpt lat="45.507150990888476" lon="3.388769002631307">
        <ele>562.99000000000001</ele>
        <time>2025-04-24T15:51:52Z</time>
      </trkpt>
      <trkpt lat="45.507089970633388" lon="3.388579990714788">
        <ele>562.02999999999997</ele>
        <time>2025-04-24T15:51:53Z</time>
      </trkpt>
      <trkpt lat="45.507044037804008" lon="3.388377986848354">
        <ele>560.59000000000003</ele>
        <time>2025-04-24T15:51:54Z</time>
      </trkpt>
      <trkpt lat="45.506787970662117" lon="3.387139979749918">
        <ele>553.86000000000001</ele>
        <time>2025-04-24T15:52:00Z</time>
      </trkpt>
      <trkpt lat="45.506794005632401" lon="3.386984998360276">
        <ele>552.40999999999997</ele>
        <time>2025-04-24T15:52:01Z</time>
      </trkpt>
      <trkpt lat="45.506833987310529" lon="3.386847032234073">
        <ele>550.97000000000003</ele>
        <time>2025-04-24T15:52:02Z</time>
      </trkpt>
      <trkpt lat="45.506871035322547" lon="3.386717028915882">
        <ele>549.52999999999997</ele>
        <time>2025-04-24T15:52:03Z</time>
      </trkpt>
      <trkpt lat="45.506916968151927" lon="3.386557018384337">
        <ele>548.09000000000003</ele>
        <time>2025-04-24T15:52:04Z</time>
      </trkpt>
      <trkpt lat="45.506896013393998" lon="3.386443024501205">
        <ele>546.64999999999998</ele>
        <time>2025-04-24T15:52:05Z</time>
      </trkpt>
      <trkpt lat="45.506851002573967" lon="3.386293994262815">
        <ele>545.20000000000005</ele>
        <time>2025-04-24T15:52:06Z</time>
      </trkpt>
      <trkpt lat="45.506765004247427" lon="3.386191986501217">
        <ele>543.75999999999999</ele>
        <time>2025-04-24T15:52:07Z</time>
      </trkpt>
      <trkpt lat="45.506646987050772" lon="3.386132977902889">
        <ele>542.32000000000005</ele>
        <time>2025-04-24T15:52:08Z</time>
      </trkpt>
      <trkpt lat="45.506518995389342" lon="3.38606902398169">
        <ele>540.88</ele>
        <time>2025-04-24T15:52:09Z</time>
      </trkpt>
      <trkpt lat="45.506395027041435" lon="3.386006997898221">
        <ele>539.44000000000005</ele>
        <time>2025-04-24T15:52:10Z</time>
      </trkpt>
      <trkpt lat="45.506293019279838" lon="3.385913958773017">
        <ele>537.99000000000001</ele>
        <time>2025-04-24T15:52:11Z</time>
      </trkpt>
      <trkpt lat="45.506211966276169" lon="3.385798959061503">
        <ele>536.07000000000005</ele>
        <time>2025-04-24T15:52:12Z</time>
      </trkpt>
      <trkpt lat="45.506180031225085" lon="3.385649006813765">
        <ele>535.11000000000001</ele>
        <time>2025-04-24T15:52:13Z</time>
      </trkpt>
      <trkpt lat="45.50617097876966" lon="3.385486984625459">
        <ele>534.14999999999998</ele>
        <time>2025-04-24T15:52:14Z</time>
      </trkpt>
      <trkpt lat="45.506188999861479" lon="3.385301996022463">
        <ele>533.66999999999996</ele>
        <time>2025-04-24T15:52:15Z</time>
      </trkpt>
      <trkpt lat="45.506231999024749" lon="3.385120024904609">
        <ele>533.19000000000005</ele>
        <time>2025-04-24T15:52:16Z</time>
      </trkpt>
      <trkpt lat="45.506271980702877" lon="3.3849529735744">
        <ele>532.23000000000002</ele>
        <time>2025-04-24T15:52:17Z</time>
      </trkpt>
      <trkpt lat="45.506339035928249" lon="3.384821964427829">
        <ele>531.75</ele>
        <time>2025-04-24T15:52:18Z</time>
      </trkpt>
      <trkpt lat="45.506432997062802" lon="3.384738983586431">
        <ele>530.78999999999996</ele>
        <time>2025-04-24T15:52:19Z</time>
      </trkpt>
      <trkpt lat="45.506554031744599" lon="3.384664971381426">
        <ele>529.82000000000005</ele>
        <time>2025-04-24T15:52:20Z</time>
      </trkpt>
      <trkpt lat="45.506687974557281" lon="3.384614009410143">
        <ele>528.86000000000001</ele>
        <time>2025-04-24T15:52:21Z</time>
      </trkpt>
      <trkpt lat="45.506817977875471" lon="3.384563969448209">
        <ele>527.89999999999998</ele>
        <time>2025-04-24T15:52:22Z</time>
      </trkpt>
      <trkpt lat="45.506930965930223" lon="3.384520970284939">
        <ele>526.94000000000005</ele>
        <time>2025-04-24T15:52:23Z</time>
      </trkpt>
      <trkpt lat="45.507024005055428" lon="3.384410999715328">
        <ele>526.46000000000004</ele>
        <time>2025-04-24T15:52:24Z</time>
      </trkpt>
      <trkpt lat="45.507047977298498" lon="3.38435098528862">
        <ele>525.01999999999998</ele>
        <time>2025-04-24T15:52:25Z</time>
      </trkpt>
      <trkpt lat="45.507026016712189" lon="3.384208995848894">
        <ele>524.05999999999995</ele>
        <time>2025-04-24T15:52:26Z</time>
      </trkpt>
      <trkpt lat="45.506954016163945" lon="3.384096007794142">
        <ele>522.61000000000001</ele>
        <time>2025-04-24T15:52:27Z</time>
      </trkpt>
      <trkpt lat="45.506863994523883" lon="3.383987965062261">
        <ele>520.69000000000005</ele>
        <time>2025-04-24T15:52:28Z</time>
      </trkpt>
      <trkpt lat="45.506662996485829" lon="3.383746985346079">
        <ele>518.28999999999996</ele>
        <time>2025-04-24T15:52:30Z</time>
      </trkpt>
      <trkpt lat="45.506572974845767" lon="3.383639026433229">
        <ele>517.80999999999995</ele>
        <time>2025-04-24T15:52:31Z</time>
      </trkpt>
      <trkpt lat="45.506423022598028" lon="3.383123958483338">
        <ele>516.85000000000002</ele>
        <time>2025-04-24T15:52:34Z</time>
      </trkpt>
      <trkpt lat="45.506438026204705" lon="3.382940981537104">
        <ele>516.85000000000002</ele>
        <time>2025-04-24T15:52:35Z</time>
      </trkpt>
      <trkpt lat="45.506454035639763" lon="3.382736966013908">
        <ele>517.33000000000004</ele>
        <time>2025-04-24T15:52:36Z</time>
      </trkpt>
      <trkpt lat="45.506470967084169" lon="3.382525993511081">
        <ele>517.33000000000004</ele>
        <time>2025-04-24T15:52:37Z</time>
      </trkpt>
      <trkpt lat="45.506486976519227" lon="3.38233002461493">
        <ele>517.33000000000004</ele>
        <time>2025-04-24T15:52:38Z</time>
      </trkpt>
      <trkpt lat="45.506533998996019" lon="3.382156016305089">
        <ele>517.33000000000004</ele>
        <time>2025-04-24T15:52:39Z</time>
      </trkpt>
      <trkpt lat="45.50657800398767" lon="3.38198896497488">
        <ele>516.85000000000002</ele>
        <time>2025-04-24T15:52:40Z</time>
      </trkpt>
      <trkpt lat="45.506617985665798" lon="3.381841024383903">
        <ele>516.85000000000002</ele>
        <time>2025-04-24T15:52:41Z</time>
      </trkpt>
      <trkpt lat="45.506637012585998" lon="3.38159903883934">
        <ele>516.37</ele>
        <time>2025-04-24T15:52:42Z</time>
      </trkpt>
      <trkpt lat="45.506585966795683" lon="3.381452020257711">
        <ele>515.88</ele>
        <time>2025-04-24T15:52:43Z</time>
      </trkpt>
      <trkpt lat="45.506525030359626" lon="3.381325034424663">
        <ele>515.39999999999998</ele>
        <time>2025-04-24T15:52:44Z</time>
      </trkpt>
      <trkpt lat="45.506448000669479" lon="3.381165023893118">
        <ele>514.91999999999996</ele>
        <time>2025-04-24T15:52:45Z</time>
      </trkpt>
      <trkpt lat="45.506367031484842" lon="3.380995960906148">
        <ele>514.44000000000005</ele>
        <time>2025-04-24T15:52:46Z</time>
      </trkpt>
      <trkpt lat="45.506329983472824" lon="3.380833016708493">
        <ele>514.44000000000005</ele>
        <time>2025-04-24T15:52:47Z</time>
      </trkpt>
      <trkpt lat="45.506290001794696" lon="3.38063595816493">
        <ele>514.44000000000005</ele>
        <time>2025-04-24T15:52:48Z</time>
      </trkpt>
      <trkpt lat="45.50627700984478" lon="3.380455998703837">
        <ele>514.44000000000005</ele>
        <time>2025-04-24T15:52:49Z</time>
      </trkpt>
      <trkpt lat="45.506285978481174" lon="3.380235973745585">
        <ele>514.44000000000005</ele>
        <time>2025-04-24T15:52:50Z</time>
      </trkpt>
      <trkpt lat="45.506294025108218" lon="3.38003396987915">
        <ele>514.44000000000005</ele>
        <time>2025-04-24T15:52:51Z</time>
      </trkpt>
      <trkpt lat="45.506345992907882" lon="3.379849987104535">
        <ele>513.96000000000004</ele>
        <time>2025-04-24T15:52:52Z</time>
      </trkpt>
      <trkpt lat="45.506394021213055" lon="3.379677990451455">
        <ele>513</ele>
        <time>2025-04-24T15:52:53Z</time>
      </trkpt>
      <trkpt lat="45.506435008719563" lon="3.379533989354968">
        <ele>511.56</ele>
        <time>2025-04-24T15:52:54Z</time>
      </trkpt>
      <trkpt lat="45.506477002054453" lon="3.379282029345632">
        <ele>510.12</ele>
        <time>2025-04-24T15:52:55Z</time>
      </trkpt>
      <trkpt lat="45.506409024819732" lon="3.379121012985706">
        <ele>507.70999999999998</ele>
        <time>2025-04-24T15:52:56Z</time>
      </trkpt>
      <trkpt lat="45.506350016221404" lon="3.37902101688087">
        <ele>505.31</ele>
        <time>2025-04-24T15:52:57Z</time>
      </trkpt>
      <trkpt lat="45.506274998188019" lon="3.378893025219441">
        <ele>503.38999999999999</ele>
        <time>2025-04-24T15:52:58Z</time>
      </trkpt>
      <trkpt lat="45.506192017346621" lon="3.378752041608095">
        <ele>501.94999999999999</ele>
        <time>2025-04-24T15:52:59Z</time>
      </trkpt>
      <trkpt lat="45.506110964342952" lon="3.37861399166286">
        <ele>500.5</ele>
        <time>2025-04-24T15:53:00Z</time>
      </trkpt>
      <trkpt lat="45.506078023463488" lon="3.378456998616457">
        <ele>499.06</ele>
        <time>2025-04-24T15:53:01Z</time>
      </trkpt>
      <trkpt lat="45.50606201402843" lon="3.378303023055196">
        <ele>497.62</ele>
        <time>2025-04-24T15:53:02Z</time>
      </trkpt>
      <trkpt lat="45.506077017635107" lon="3.378137983381748">
        <ele>496.66000000000003</ele>
        <time>2025-04-24T15:53:03Z</time>
      </trkpt>
      <trkpt lat="45.506091015413404" lon="3.377992976456881">
        <ele>494.74000000000001</ele>
        <time>2025-04-24T15:53:04Z</time>
      </trkpt>
      <trkpt lat="45.506061008200049" lon="3.377823997288942">
        <ele>493.76999999999998</ele>
        <time>2025-04-24T15:53:05Z</time>
      </trkpt>
      <trkpt lat="45.505994036793709" lon="3.377716960385442">
        <ele>491.85000000000002</ele>
        <time>2025-04-24T15:53:06Z</time>
      </trkpt>
      <trkpt lat="45.505917007103562" lon="3.377593997865915">
        <ele>490.41000000000003</ele>
        <time>2025-04-24T15:53:07Z</time>
      </trkpt>
      <trkpt lat="45.505836037918925" lon="3.377427030354738">
        <ele>488.97000000000003</ele>
        <time>2025-04-24T15:53:08Z</time>
      </trkpt>
      <trkpt lat="45.505758002400398" lon="3.377244975417852">
        <ele>487.05000000000001</ele>
        <time>2025-04-24T15:53:09Z</time>
      </trkpt>
      <trkpt lat="45.505401017144322" lon="3.375916024670005">
        <ele>478.38999999999999</ele>
        <time>2025-04-24T15:53:15Z</time>
      </trkpt>
      <trkpt lat="45.505387019366026" lon="3.375729024410248">
        <ele>476.47000000000003</ele>
        <time>2025-04-24T15:53:16Z</time>
      </trkpt>
      <trkpt lat="45.50537402741611" lon="3.375554010272026">
        <ele>475.50999999999999</ele>
        <time>2025-04-24T15:53:17Z</time>
      </trkpt>
      <trkpt lat="45.505339996889234" lon="3.375479998067021">
        <ele>473.58999999999997</ele>
        <time>2025-04-24T15:53:18Z</time>
      </trkpt>
      <trkpt lat="45.505260033532977" lon="3.375359969213605">
        <ele>472.63</ele>
        <time>2025-04-24T15:53:19Z</time>
      </trkpt>
      <trkpt lat="45.505165988579392" lon="3.37521999143064">
        <ele>471.18000000000001</ele>
        <time>2025-04-24T15:53:20Z</time>
      </trkpt>
      <trkpt lat="45.50505300052464" lon="3.375037014484406">
        <ele>469.25999999999999</ele>
        <time>2025-04-24T15:53:21Z</time>
      </trkpt>
      <trkpt lat="45.504961973056197" lon="3.374840039759874">
        <ele>467.81999999999999</ele>
        <time>2025-04-24T15:53:22Z</time>
      </trkpt>
      <trkpt lat="45.504871029406786" lon="3.37464096955955">
        <ele>466.38</ele>
        <time>2025-04-24T15:53:23Z</time>
      </trkpt>
      <trkpt lat="45.504788970574737" lon="3.374431002885103">
        <ele>464.93000000000001</ele>
        <time>2025-04-24T15:53:24Z</time>
      </trkpt>
      <trkpt lat="45.504725016653538" lon="3.374248025938869">
        <ele>464.44999999999999</ele>
        <time>2025-04-24T15:53:25Z</time>
      </trkpt>
      <trkpt lat="45.504669025540352" lon="3.374046022072434">
        <ele>463.97000000000003</ele>
        <time>2025-04-24T15:53:26Z</time>
      </trkpt>
      <trkpt lat="45.50466500222683" lon="3.373799007385969">
        <ele>463.49000000000001</ele>
        <time>2025-04-24T15:53:27Z</time>
      </trkpt>
      <trkpt lat="45.504691991955042" lon="3.373683001846075">
        <ele>463.97000000000003</ele>
        <time>2025-04-24T15:53:28Z</time>
      </trkpt>
      <trkpt lat="45.504790982231498" lon="3.373558027669787">
        <ele>463.97000000000003</ele>
        <time>2025-04-24T15:53:29Z</time>
      </trkpt>
      <trkpt lat="45.504893995821476" lon="3.37350002489984">
        <ele>463.97000000000003</ele>
        <time>2025-04-24T15:53:30Z</time>
      </trkpt>
      <trkpt lat="45.505005978047848" lon="3.373465994372964">
        <ele>463.49000000000001</ele>
        <time>2025-04-24T15:53:31Z</time>
      </trkpt>
      <trkpt lat="45.505135981366038" lon="3.373426012694836">
        <ele>463.49000000000001</ele>
        <time>2025-04-24T15:53:32Z</time>
      </trkpt>
      <trkpt lat="45.505435969680548" lon="3.373301960527897">
        <ele>463.00999999999999</ele>
        <time>2025-04-24T15:53:34Z</time>
      </trkpt>
      <trkpt lat="45.505592962726951" lon="3.373195007443428">
        <ele>462.52999999999997</ele>
        <time>2025-04-24T15:53:35Z</time>
      </trkpt>
      <trkpt lat="45.505898986011744" lon="3.373095011338592">
        <ele>461.08999999999997</ele>
        <time>2025-04-24T15:53:37Z</time>
      </trkpt>
      <trkpt lat="45.506028989329934" lon="3.373106997460127">
        <ele>460.13</ele>
        <time>2025-04-24T15:53:38Z</time>
      </trkpt>
      <trkpt lat="45.506315985694528" lon="3.373039020225406">
        <ele>455.80000000000001</ele>
        <time>2025-04-24T15:53:41Z</time>
      </trkpt>
      <trkpt lat="45.506315985694528" lon="3.373039020225406">
        <ele>454.36000000000001</ele>
        <time>2025-04-24T15:53:42Z</time>
      </trkpt>
      <trkpt lat="45.506350016221404" lon="3.372902981936932">
        <ele>452.92000000000002</ele>
        <time>2025-04-24T15:53:43Z</time>
      </trkpt>
      <trkpt lat="45.506376000121236" lon="3.372798962518573">
        <ele>451.95999999999998</ele>
        <time>2025-04-24T15:53:44Z</time>
      </trkpt>
      <trkpt lat="45.506373988464475" lon="3.372755041345954">
        <ele>451</ele>
        <time>2025-04-24T15:53:45Z</time>
      </trkpt>
      <trkpt lat="45.506337024271488" lon="3.372610034421086">
        <ele>450.51999999999998</ele>
        <time>2025-04-24T15:53:46Z</time>
      </trkpt>
      <trkpt lat="45.506308022886515" lon="3.372573992237449">
        <ele>449.55000000000001</ele>
        <time>2025-04-24T15:53:47Z</time>
      </trkpt>
      <trkpt lat="45.506251025944948" lon="3.372501991689205">
        <ele>448.58999999999997</ele>
        <time>2025-04-24T15:53:48Z</time>
      </trkpt>
      <trkpt lat="45.50612797960639" lon="3.372497968375683">
        <ele>447.14999999999998</ele>
        <time>2025-04-24T15:53:49Z</time>
      </trkpt>
      <trkpt lat="45.506012979894876" lon="3.372493023052812">
        <ele>446.19</ele>
        <time>2025-04-24T15:53:50Z</time>
      </trkpt>
      <trkpt lat="45.505881970748305" lon="3.372487993910909">
        <ele>444.75</ele>
        <time>2025-04-24T15:53:51Z</time>
      </trkpt>
      <trkpt lat="45.504830041900277" lon="3.372409958392382">
        <ele>435.61000000000001</ele>
        <time>2025-04-24T15:53:58Z</time>
      </trkpt>
      <trkpt lat="45.504418993368745" lon="3.372342986986041">
        <ele>431.29000000000002</ele>
        <time>2025-04-24T15:54:01Z</time>
      </trkpt>
      <trkpt lat="45.504269963130355" lon="3.372285990044475">
        <ele>429.85000000000002</ele>
        <time>2025-04-24T15:54:02Z</time>
      </trkpt>
      <trkpt lat="45.504125962033868" lon="3.372156992554665">
        <ele>428.39999999999998</ele>
        <time>2025-04-24T15:54:03Z</time>
      </trkpt>
      <trkpt lat="45.504018003121018" lon="3.371958006173372">
        <ele>426.95999999999998</ele>
        <time>2025-04-24T15:54:04Z</time>
      </trkpt>
      <trkpt lat="45.50395698286593" lon="3.371767988428474">
        <ele>425.51999999999998</ele>
        <time>2025-04-24T15:54:05Z</time>
      </trkpt>
      <trkpt lat="45.50389101728797" lon="3.371565984562039">
        <ele>424.07999999999998</ele>
        <time>2025-04-24T15:54:06Z</time>
      </trkpt>
      <trkpt lat="45.50380501896143" lon="3.371301032602787">
        <ele>422.63999999999999</ele>
        <time>2025-04-24T15:54:07Z</time>
      </trkpt>
      <trkpt lat="45.503764031454921" lon="3.371083019301295">
        <ele>420.70999999999998</ele>
        <time>2025-04-24T15:54:08Z</time>
      </trkpt>
      <trkpt lat="45.50367996096611" lon="3.370641963556409">
        <ele>417.82999999999998</ele>
        <time>2025-04-24T15:54:10Z</time>
      </trkpt>
      <trkpt lat="45.50363402813673" lon="3.370399978011847">
        <ele>416.38999999999999</ele>
        <time>2025-04-24T15:54:11Z</time>
      </trkpt>
      <trkpt lat="45.503610977903008" lon="3.370376005768776">
        <ele>415.43000000000001</ele>
        <time>2025-04-24T15:54:12Z</time>
      </trkpt>
      <trkpt lat="45.503498995676637" lon="3.370257988572121">
        <ele>413.5</ele>
        <time>2025-04-24T15:54:13Z</time>
      </trkpt>
      <trkpt lat="45.503390030935407" lon="3.370142988860607">
        <ele>412.06</ele>
        <time>2025-04-24T15:54:14Z</time>
      </trkpt>
      <trkpt lat="45.503276037052274" lon="3.370022960007191">
        <ele>411.10000000000002</ele>
        <time>2025-04-24T15:54:15Z</time>
      </trkpt>
      <trkpt lat="45.503176040947437" lon="3.369859009981155">
        <ele>410.13999999999999</ele>
        <time>2025-04-24T15:54:16Z</time>
      </trkpt>
      <trkpt lat="45.503126000985503" lon="3.369640996679664">
        <ele>408.69999999999999</ele>
        <time>2025-04-24T15:54:17Z</time>
      </trkpt>
      <trkpt lat="45.503106974065304" lon="3.369447039440274">
        <ele>407.74000000000001</ele>
        <time>2025-04-24T15:54:18Z</time>
      </trkpt>
      <trkpt lat="45.503088030964136" lon="3.369251992553473">
        <ele>405.81</ele>
        <time>2025-04-24T15:54:19Z</time>
      </trkpt>
      <trkpt lat="45.503069004043937" lon="3.369061974808574">
        <ele>404.85000000000002</ele>
        <time>2025-04-24T15:54:20Z</time>
      </trkpt>
      <trkpt lat="45.503041008487344" lon="3.368886038661003">
        <ele>403.41000000000003</ele>
        <time>2025-04-24T15:54:21Z</time>
      </trkpt>
      <trkpt lat="45.502959033474326" lon="3.368686968460679">
        <ele>401.97000000000003</ele>
        <time>2025-04-24T15:54:22Z</time>
      </trkpt>
      <trkpt lat="45.502860965207219" lon="3.368446994572878">
        <ele>400.52999999999997</ele>
        <time>2025-04-24T15:54:23Z</time>
      </trkpt>
      <trkpt lat="45.502821989357471" lon="3.368282960727811">
        <ele>398.60000000000002</ele>
        <time>2025-04-24T15:54:24Z</time>
      </trkpt>
      <trkpt lat="45.502769015729427" lon="3.36806402541697">
        <ele>397.16000000000003</ele>
        <time>2025-04-24T15:54:25Z</time>
      </trkpt>
      <trkpt lat="45.502693997696042" lon="3.367840982973576">
        <ele>395.72000000000003</ele>
        <time>2025-04-24T15:54:26Z</time>
      </trkpt>
      <trkpt lat="45.502586960792542" lon="3.367644008249044">
        <ele>393.80000000000001</ele>
        <time>2025-04-24T15:54:27Z</time>
      </trkpt>
      <trkpt lat="45.50234598107636" lon="3.367202030494809">
        <ele>390.43000000000001</ele>
        <time>2025-04-24T15:54:29Z</time>
      </trkpt>
      <trkpt lat="45.502283032983541" lon="3.366997009143233">
        <ele>388.50999999999999</ele>
        <time>2025-04-24T15:54:30Z</time>
      </trkpt>
      <trkpt lat="45.501694036647677" lon="3.365189032629132">
        <ele>375.05000000000001</ele>
        <time>2025-04-24T15:54:37Z</time>
      </trkpt>
      <trkpt lat="45.501474011689425" lon="3.364444971084595">
        <ele>368.31999999999999</ele>
        <time>2025-04-24T15:54:40Z</time>
      </trkpt>
      <trkpt lat="45.50125197507441" lon="3.363339984789491">
        <ele>360.14999999999998</ele>
        <time>2025-04-24T15:54:44Z</time>
      </trkpt>
      <trkpt lat="45.501234959810972" lon="3.362415041774511">
        <ele>353.89999999999998</ele>
        <time>2025-04-24T15:54:48Z</time>
      </trkpt>
      <trkpt lat="45.50125096924603" lon="3.36215796880424">
        <ele>351.98000000000002</ele>
        <time>2025-04-24T15:54:49Z</time>
      </trkpt>
      <trkpt lat="45.501359011977911" lon="3.361443998292089">
        <ele>353.89999999999998</ele>
        <time>2025-04-24T15:54:52Z</time>
      </trkpt>
      <trkpt lat="45.50150896422565" lon="3.360936976969242">
        <ele>355.82999999999998</ele>
        <time>2025-04-24T15:54:54Z</time>
      </trkpt>
      <trkpt lat="45.501627987250686" lon="3.360257958993316">
        <ele>357.75</ele>
        <time>2025-04-24T15:54:57Z</time>
      </trkpt>
      <trkpt lat="45.501689007505774" lon="3.360013039782643">
        <ele>359.19</ele>
        <time>2025-04-24T15:54:58Z</time>
      </trkpt>
      <trkpt lat="45.501766037195921" lon="3.359841965138912">
        <ele>361.11000000000001</ele>
        <time>2025-04-24T15:54:59Z</time>
      </trkpt>
      <trkpt lat="45.501884976401925" lon="3.35957701317966">
        <ele>370.73000000000002</ele>
        <time>2025-04-24T15:55:01Z</time>
      </trkpt>
      <trkpt lat="45.501962006092072" lon="3.35940602235496">
        <ele>374.08999999999997</ele>
        <time>2025-04-24T15:55:02Z</time>
      </trkpt>
      <trkpt lat="45.502046998590231" lon="3.359214998781681">
        <ele>375.52999999999997</ele>
        <time>2025-04-24T15:55:03Z</time>
      </trkpt>
      <trkpt lat="45.50208899192512" lon="3.358994973823428">
        <ele>376.97000000000003</ele>
        <time>2025-04-24T15:55:04Z</time>
      </trkpt>
      <trkpt lat="45.502153029665351" lon="3.358661960810423">
        <ele>377.94</ele>
        <time>2025-04-24T15:55:05Z</time>
      </trkpt>
      <trkpt lat="45.502141965553164" lon="3.358463980257511">
        <ele>378.42000000000002</ele>
        <time>2025-04-24T15:55:06Z</time>
      </trkpt>
      <trkpt lat="45.501888999715447" lon="3.356315027922392">
        <ele>392.36000000000001</ele>
        <time>2025-04-24T15:55:15Z</time>
      </trkpt>
      <trkpt lat="45.501732006669044" lon="3.355382038280368">
        <ele>396.68000000000001</ele>
        <time>2025-04-24T15:55:19Z</time>
      </trkpt>
      <trkpt lat="45.50168096087873" lon="3.355079032480717">
        <ele>397.16000000000003</ele>
        <time>2025-04-24T15:55:20Z</time>
      </trkpt>
      <trkpt lat="45.50168096087873" lon="3.354198010638356">
        <ele>401.97000000000003</ele>
        <time>2025-04-24T15:55:24Z</time>
      </trkpt>
      <trkpt lat="45.50168096087873" lon="3.353963987901807">
        <ele>403.88999999999999</ele>
        <time>2025-04-24T15:55:25Z</time>
      </trkpt>
      <trkpt lat="45.50168096087873" lon="3.353684032335877">
        <ele>406.76999999999998</ele>
        <time>2025-04-24T15:55:26Z</time>
      </trkpt>
      <trkpt lat="45.501717003062367" lon="3.353527961298823">
        <ele>409.18000000000001</ele>
        <time>2025-04-24T15:55:27Z</time>
      </trkpt>
      <trkpt lat="45.501782968640327" lon="3.35330500267446">
        <ele>412.54000000000002</ele>
        <time>2025-04-24T15:55:28Z</time>
      </trkpt>
      <trkpt lat="45.501920012757182" lon="3.352950029075146">
        <ele>418.31</ele>
        <time>2025-04-24T15:55:30Z</time>
      </trkpt>
      <trkpt lat="45.5021090246737" lon="3.352372013032436">
        <ele>428.88999999999999</ele>
        <time>2025-04-24T15:55:36Z</time>
      </trkpt>
      <trkpt lat="45.502121010795236" lon="3.352306969463825">
        <ele>430.81</ele>
        <time>2025-04-24T15:55:37Z</time>
      </trkpt>
      <trkpt lat="45.502132996916771" lon="3.352247960865498">
        <ele>432.25</ele>
        <time>2025-04-24T15:55:38Z</time>
      </trkpt>
      <trkpt lat="45.502064013853669" lon="3.352055009454489">
        <ele>434.64999999999998</ele>
        <time>2025-04-24T15:55:39Z</time>
      </trkpt>
      <trkpt lat="45.502081029117107" lon="3.352051991969347">
        <ele>438.98000000000002</ele>
        <time>2025-04-24T15:55:40Z</time>
      </trkpt>
      <trkpt lat="45.502052027732134" lon="3.352058026939631">
        <ele>441.38</ele>
        <time>2025-04-24T15:55:41Z</time>
      </trkpt>
      <trkpt lat="45.501992013305426" lon="3.352071018889546">
        <ele>443.79000000000002</ele>
        <time>2025-04-24T15:55:42Z</time>
      </trkpt>
      <trkpt lat="45.501160025596619" lon="3.352177971974015">
        <ele>453.88</ele>
        <time>2025-04-24T15:55:49Z</time>
      </trkpt>
      <trkpt lat="45.499408962205052" lon="3.351945960894227">
        <ele>466.86000000000001</ele>
        <time>2025-04-24T15:55:59Z</time>
      </trkpt>
      <trkpt lat="45.497868033125997" lon="3.351988960057497">
        <ele>472.13999999999999</ele>
        <time>2025-04-24T15:56:07Z</time>
      </trkpt>
      <trkpt lat="45.496838986873627" lon="3.352109994739294">
        <ele>476.47000000000003</ele>
        <time>2025-04-24T15:56:14Z</time>
      </trkpt>
      <trkpt lat="45.496729016304016" lon="3.352103959769011">
        <ele>477.43000000000001</ele>
        <time>2025-04-24T15:56:15Z</time>
      </trkpt>
      <trkpt lat="45.496632037684321" lon="3.352098008617759">
        <ele>477.91000000000003</ele>
        <time>2025-04-24T15:56:16Z</time>
      </trkpt>
      <trkpt lat="45.496541010215878" lon="3.352065989747644">
        <ele>478.38999999999999</ele>
        <time>2025-04-24T15:56:17Z</time>
      </trkpt>
      <trkpt lat="45.4964570235461" lon="3.352018967270851">
        <ele>478.87</ele>
        <time>2025-04-24T15:56:18Z</time>
      </trkpt>
      <trkpt lat="45.496373036876321" lon="3.351948978379369">
        <ele>479.35000000000002</ele>
        <time>2025-04-24T15:56:19Z</time>
      </trkpt>
      <trkpt lat="45.496316961944103" lon="3.351874966174364">
        <ele>479.83999999999997</ele>
        <time>2025-04-24T15:56:20Z</time>
      </trkpt>
      <trkpt lat="45.496274968609214" lon="3.351818975061178">
        <ele>480.31999999999999</ele>
        <time>2025-04-24T15:56:21Z</time>
      </trkpt>
      <trkpt lat="45.49624202772975" lon="3.351774970069528">
        <ele>480.80000000000001</ele>
        <time>2025-04-24T15:56:22Z</time>
      </trkpt>
      <trkpt lat="45.496186958625913" lon="3.351574977859855">
        <ele>481.27999999999997</ele>
        <time>2025-04-24T15:56:23Z</time>
      </trkpt>
      <trkpt lat="45.496219983324409" lon="3.351519992575049">
        <ele>481.75999999999999</ele>
        <time>2025-04-24T15:56:24Z</time>
      </trkpt>
      <trkpt lat="45.496268011629581" lon="3.351440029218793">
        <ele>481.75999999999999</ele>
        <time>2025-04-24T15:56:25Z</time>
      </trkpt>
      <trkpt lat="45.496338000521064" lon="3.351350007578731">
        <ele>482.24000000000001</ele>
        <time>2025-04-24T15:56:26Z</time>
      </trkpt>
      <trkpt lat="45.496413018554449" lon="3.351252023130655">
        <ele>482.24000000000001</ele>
        <time>2025-04-24T15:56:27Z</time>
      </trkpt>
      <trkpt lat="45.49671501852572" lon="3.350907023996115">
        <ele>481.27999999999997</ele>
        <time>2025-04-24T15:56:30Z</time>
      </trkpt>
      <trkpt lat="45.496848039329052" lon="3.350806022062898">
        <ele>481.27999999999997</ele>
        <time>2025-04-24T15:56:31Z</time>
      </trkpt>
      <trkpt lat="45.498179001733661" lon="3.34980103187263">
        <ele>477.91000000000003</ele>
        <time>2025-04-24T15:56:39Z</time>
      </trkpt>
      <trkpt lat="45.499542988836765" lon="3.34874901920557">
        <ele>474.06999999999999</ele>
        <time>2025-04-24T15:56:46Z</time>
      </trkpt>
      <trkpt lat="45.499683972448111" lon="3.348542992025614">
        <ele>473.58999999999997</ele>
        <time>2025-04-24T15:56:47Z</time>
      </trkpt>
      <trkpt lat="45.499813975766301" lon="3.348329002037644">
        <ele>473.11000000000001</ele>
        <time>2025-04-24T15:56:48Z</time>
      </trkpt>
      <trkpt lat="45.499912966042757" lon="3.348070001229644">
        <ele>472.13999999999999</ele>
        <time>2025-04-24T15:56:49Z</time>
      </trkpt>
      <trkpt lat="45.500013967975974" lon="3.34780203178525">
        <ele>471.66000000000003</ele>
        <time>2025-04-24T15:56:50Z</time>
      </trkpt>
      <trkpt lat="45.500100972130895" lon="3.347511012107134">
        <ele>470.69999999999999</ele>
        <time>2025-04-24T15:56:51Z</time>
      </trkpt>
      <trkpt lat="45.500918040052056" lon="3.344784965738654">
        <ele>461.08999999999997</ele>
        <time>2025-04-24T15:57:00Z</time>
      </trkpt>
      <trkpt lat="45.501058017835021" lon="3.344566030427814">
        <ele>459.17000000000002</ele>
        <time>2025-04-24T15:57:01Z</time>
      </trkpt>
      <trkpt lat="45.501372003927827" lon="3.344168979674578">
        <ele>455.80000000000001</ele>
        <time>2025-04-24T15:57:03Z</time>
      </trkpt>
      <trkpt lat="45.502203991636634" lon="3.343244036659598">
        <ele>447.63</ele>
        <time>2025-04-24T15:57:08Z</time>
      </trkpt>
      <trkpt lat="45.502321003004909" lon="3.343031974509358">
        <ele>446.19</ele>
        <time>2025-04-24T15:57:09Z</time>
      </trkpt>
      <trkpt lat="45.502911005169153" lon="3.341737976297736">
        <ele>435.13</ele>
        <time>2025-04-24T15:57:16Z</time>
      </trkpt>
      <trkpt lat="45.503323981538415" lon="3.340558977797627">
        <ele>426.95999999999998</ele>
        <time>2025-04-24T15:57:24Z</time>
      </trkpt>
      <trkpt lat="45.50333496183157" lon="3.340419000014663">
        <ele>426</ele>
        <time>2025-04-24T15:57:25Z</time>
      </trkpt>
      <trkpt lat="45.503340996801853" lon="3.340084981173277">
        <ele>424.07999999999998</ele>
        <time>2025-04-24T15:57:27Z</time>
      </trkpt>
      <trkpt lat="45.503434035927057" lon="3.338927021250129">
        <ele>418.79000000000002</ele>
        <time>2025-04-24T15:57:34Z</time>
      </trkpt>
      <trkpt lat="45.50346203148365" lon="3.338791988790035">
        <ele>418.31</ele>
        <time>2025-04-24T15:57:35Z</time>
      </trkpt>
      <trkpt lat="45.503515005111694" lon="3.338632984086871">
        <ele>417.82999999999998</ele>
        <time>2025-04-24T15:57:36Z</time>
      </trkpt>
      <trkpt lat="45.503564039245248" lon="3.338494012132287">
        <ele>417.35000000000002</ele>
        <time>2025-04-24T15:57:37Z</time>
      </trkpt>
      <trkpt lat="45.503621036186814" lon="3.338352022692561">
        <ele>417.35000000000002</ele>
        <time>2025-04-24T15:57:38Z</time>
      </trkpt>
      <trkpt lat="45.503675015643239" lon="3.338206009939313">
        <ele>417.35000000000002</ele>
        <time>2025-04-24T15:57:39Z</time>
      </trkpt>
      <trkpt lat="45.504346992820501" lon="3.33633097819984">
        <ele>422.63999999999999</ele>
        <time>2025-04-24T15:57:50Z</time>
      </trkpt>
      <trkpt lat="45.505088036879897" lon="3.334437003359199">
        <ele>424.56</ele>
        <time>2025-04-24T15:57:57Z</time>
      </trkpt>
      <trkpt lat="45.506214983761311" lon="3.331100000068545">
        <ele>414.94999999999999</ele>
        <time>2025-04-24T15:58:07Z</time>
      </trkpt>
      <trkpt lat="45.506956027820706" lon="3.329093037173152">
        <ele>409.66000000000003</ele>
        <time>2025-04-24T15:58:14Z</time>
      </trkpt>
      <trkpt lat="45.507907960563898" lon="3.326680976897478">
        <ele>404.85000000000002</ele>
        <time>2025-04-24T15:58:24Z</time>
      </trkpt>
      <trkpt lat="45.508643975481391" lon="3.324836036190391">
        <ele>401.49000000000001</ele>
        <time>2025-04-24T15:58:34Z</time>
      </trkpt>
      <trkpt lat="45.509721972048283" lon="3.322162963449955">
        <ele>399.56999999999999</ele>
        <time>2025-04-24T15:58:48Z</time>
      </trkpt>
      <trkpt lat="45.510254977270961" lon="3.320850022137165">
        <ele>399.07999999999998</ele>
        <time>2025-04-24T15:58:57Z</time>
      </trkpt>
      <trkpt lat="45.51081296056509" lon="3.319501038640738">
        <ele>399.56999999999999</ele>
        <time>2025-04-24T15:59:06Z</time>
      </trkpt>
      <trkpt lat="45.511575965210795" lon="3.317947033792734">
        <ele>398.12</ele>
        <time>2025-04-24T15:59:17Z</time>
      </trkpt>
      <trkpt lat="45.512104025110602" lon="3.317229961976409">
        <ele>397.16000000000003</ele>
        <time>2025-04-24T15:59:23Z</time>
      </trkpt>
      <trkpt lat="45.512193040922284" lon="3.317111022770405">
        <ele>397.16000000000003</ele>
        <time>2025-04-24T15:59:24Z</time>
      </trkpt>
      <trkpt lat="45.513395005837083" lon="3.315417962148786">
        <ele>394.27999999999997</ele>
        <time>2025-04-24T15:59:38Z</time>
      </trkpt>
      <trkpt lat="45.513549987226725" lon="3.315199026837945">
        <ele>394.27999999999997</ele>
        <time>2025-04-24T15:59:40Z</time>
      </trkpt>
      <trkpt lat="45.513718966394663" lon="3.31516700796783">
        <ele>394.27999999999997</ele>
        <time>2025-04-24T15:59:41Z</time>
      </trkpt>
      <trkpt lat="45.513749979436398" lon="3.315179999917746">
        <ele>394.27999999999997</ele>
        <time>2025-04-24T15:59:42Z</time>
      </trkpt>
      <trkpt lat="45.513849975541234" lon="3.315205983817577">
        <ele>394.27999999999997</ele>
        <time>2025-04-24T15:59:43Z</time>
      </trkpt>
      <trkpt lat="45.513955000787973" lon="3.315135994926095">
        <ele>394.27999999999997</ele>
        <time>2025-04-24T15:59:44Z</time>
      </trkpt>
      <trkpt lat="45.513999005779624" lon="3.315029963850975">
        <ele>394.27999999999997</ele>
        <time>2025-04-24T15:59:45Z</time>
      </trkpt>
      <trkpt lat="45.514040999114513" lon="3.314930973574519">
        <ele>394.27999999999997</ele>
        <time>2025-04-24T15:59:46Z</time>
      </trkpt>
      <trkpt lat="45.514040999114513" lon="3.314810022711754">
        <ele>394.27999999999997</ele>
        <time>2025-04-24T15:59:47Z</time>
      </trkpt>
      <trkpt lat="45.514040999114513" lon="3.31475998274982">
        <ele>394.27999999999997</ele>
        <time>2025-04-24T15:59:48Z</time>
      </trkpt>
      <trkpt lat="45.514020966365933" lon="3.314515985548496">
        <ele>394.27999999999997</ele>
        <time>2025-04-24T15:59:49Z</time>
      </trkpt>
      <trkpt lat="45.514065977185965" lon="3.314422024413943">
        <ele>394.27999999999997</ele>
        <time>2025-04-24T15:59:50Z</time>
      </trkpt>
      <trkpt lat="45.514114005491138" lon="3.314323034137487">
        <ele>394.27999999999997</ele>
        <time>2025-04-24T15:59:51Z</time>
      </trkpt>
      <trkpt lat="45.514163039624691" lon="3.31422203220427">
        <ele>394.27999999999997</ele>
        <time>2025-04-24T15:59:52Z</time>
      </trkpt>
      <trkpt lat="45.514212995767593" lon="3.314118012785912">
        <ele>394.27999999999997</ele>
        <time>2025-04-24T15:59:53Z</time>
      </trkpt>
      <trkpt lat="45.514254989102483" lon="3.31403000280261">
        <ele>394.27999999999997</ele>
        <time>2025-04-24T15:59:54Z</time>
      </trkpt>
      <trkpt lat="45.514346016570926" lon="3.313930006697774">
        <ele>394.27999999999997</ele>
        <time>2025-04-24T15:59:55Z</time>
      </trkpt>
      <trkpt lat="45.514430003240705" lon="3.313835961744189">
        <ele>393.80000000000001</ele>
        <time>2025-04-24T15:59:56Z</time>
      </trkpt>
      <trkpt lat="45.5152159743011" lon="3.312964998185635">
        <ele>393.31999999999999</ele>
        <time>2025-04-24T16:00:03Z</time>
      </trkpt>
      <trkpt lat="45.516574010252953" lon="3.311125002801418">
        <ele>392.83999999999997</ele>
        <time>2025-04-24T16:00:13Z</time>
      </trkpt>
      <trkpt lat="45.518753975629807" lon="3.308154959231615">
        <ele>390.43000000000001</ele>
        <time>2025-04-24T16:00:27Z</time>
      </trkpt>
      <trkpt lat="45.521184979006648" lon="3.304828014224768">
        <ele>388.50999999999999</ele>
        <time>2025-04-24T16:00:43Z</time>
      </trkpt>
      <trkpt lat="45.522424997761846" lon="3.302816022187471">
        <ele>387.55000000000001</ele>
        <time>2025-04-24T16:00:53Z</time>
      </trkpt>
      <trkpt lat="45.522751975804567" lon="3.301369976252317">
        <ele>388.50999999999999</ele>
        <time>2025-04-24T16:00:59Z</time>
      </trkpt>
      <trkpt lat="45.522706964984536" lon="3.298916006460786">
        <ele>390.43000000000001</ele>
        <time>2025-04-24T16:01:07Z</time>
      </trkpt>
      <trkpt lat="45.522570004686713" lon="3.294836031273007">
        <ele>390.43000000000001</ele>
        <time>2025-04-24T16:01:21Z</time>
      </trkpt>
      <trkpt lat="45.522729009389877" lon="3.292628992348909">
        <ele>389.94999999999999</ele>
        <time>2025-04-24T16:01:30Z</time>
      </trkpt>
      <trkpt lat="45.522774020209908" lon="3.292421959340572">
        <ele>389.94999999999999</ele>
        <time>2025-04-24T16:01:31Z</time>
      </trkpt>
      <trkpt lat="45.523006031289697" lon="3.2917919754982">
        <ele>389.94999999999999</ele>
        <time>2025-04-24T16:01:35Z</time>
      </trkpt>
      <trkpt lat="45.523180961608887" lon="3.291671024635434">
        <ele>389.94999999999999</ele>
        <time>2025-04-24T16:01:36Z</time>
      </trkpt>
      <trkpt lat="45.523180961608887" lon="3.291671024635434">
        <ele>389.94999999999999</ele>
        <time>2025-04-24T16:01:37Z</time>
      </trkpt>
      <trkpt lat="45.523236030712724" lon="3.291634982451797">
        <ele>389.94999999999999</ele>
        <time>2025-04-24T16:01:38Z</time>
      </trkpt>
      <trkpt lat="45.523313982412219" lon="3.291557030752301">
        <ele>389.94999999999999</ele>
        <time>2025-04-24T16:01:39Z</time>
      </trkpt>
      <trkpt lat="45.523328986018896" lon="3.291457034647465">
        <ele>389.94999999999999</ele>
        <time>2025-04-24T16:01:40Z</time>
      </trkpt>
      <trkpt lat="45.523300990462303" lon="3.291373969987035">
        <ele>390.43000000000001</ele>
        <time>2025-04-24T16:01:41Z</time>
      </trkpt>
      <trkpt lat="45.523266959935427" lon="3.291306998580694">
        <ele>390.91000000000003</ele>
        <time>2025-04-24T16:01:42Z</time>
      </trkpt>
      <trkpt lat="45.523209040984511" lon="3.29127699136734">
        <ele>391.38999999999999</ele>
        <time>2025-04-24T16:01:43Z</time>
      </trkpt>
      <trkpt lat="45.523180961608887" lon="3.291263999417424">
        <ele>390.91000000000003</ele>
        <time>2025-04-24T16:01:44Z</time>
      </trkpt>
      <trkpt lat="45.523012988269329" lon="3.291289983317256">
        <ele>390.91000000000003</ele>
        <time>2025-04-24T16:01:45Z</time>
      </trkpt>
      <trkpt lat="45.52280000410974" lon="3.291226029396057">
        <ele>390.91000000000003</ele>
        <time>2025-04-24T16:01:47Z</time>
      </trkpt>
      <trkpt lat="45.522183012217283" lon="3.291273973882198">
        <ele>391.87</ele>
        <time>2025-04-24T16:01:51Z</time>
      </trkpt>
      <trkpt lat="45.522013027220964" lon="3.291216976940632">
        <ele>391.87</ele>
        <time>2025-04-24T16:01:52Z</time>
      </trkpt>
      <trkpt lat="45.521836001425982" lon="3.291158974170685">
        <ele>391.87</ele>
        <time>2025-04-24T16:01:53Z</time>
      </trkpt>
      <trkpt lat="45.521666016429663" lon="3.291026959195733">
        <ele>391.87</ele>
        <time>2025-04-24T16:01:54Z</time>
      </trkpt>
      <trkpt lat="45.521497037261724" lon="3.290894022211433">
        <ele>391.87</ele>
        <time>2025-04-24T16:01:55Z</time>
      </trkpt>
      <trkpt lat="45.521324034780264" lon="3.290757983922958">
        <ele>391.87</ele>
        <time>2025-04-24T16:01:56Z</time>
      </trkpt>
      <trkpt lat="45.519113978371024" lon="3.289123009890318">
        <ele>391.38999999999999</ele>
        <time>2025-04-24T16:02:08Z</time>
      </trkpt>
      <trkpt lat="45.518183000385761" lon="3.288465030491352">
        <ele>389.94999999999999</ele>
        <time>2025-04-24T16:02:13Z</time>
      </trkpt>
      <trkpt lat="45.518004968762398" lon="3.288366962224245">
        <ele>389.47000000000003</ele>
        <time>2025-04-24T16:02:14Z</time>
      </trkpt>
      <trkpt lat="45.517812017351389" lon="3.288323963060975">
        <ele>389.47000000000003</ele>
        <time>2025-04-24T16:02:15Z</time>
      </trkpt>
      <trkpt lat="45.517617976292968" lon="3.288323963060975">
        <ele>388.99000000000001</ele>
        <time>2025-04-24T16:02:16Z</time>
      </trkpt>
      <trkpt lat="45.517427958548069" lon="3.288366040214896">
        <ele>388.99000000000001</ele>
        <time>2025-04-24T16:02:17Z</time>
      </trkpt>
      <trkpt lat="45.517232995480299" lon="3.28844097442925">
        <ele>388.50999999999999</ele>
        <time>2025-04-24T16:02:18Z</time>
      </trkpt>
      <trkpt lat="45.517025962471962" lon="3.288521021604538">
        <ele>388.50999999999999</ele>
        <time>2025-04-24T16:02:19Z</time>
      </trkpt>
      <trkpt lat="45.516618015244603" lon="3.288659993559122">
        <ele>388.50999999999999</ele>
        <time>2025-04-24T16:02:21Z</time>
      </trkpt>
      <trkpt lat="45.516413999721408" lon="3.28869603574276">
        <ele>388.50999999999999</ele>
        <time>2025-04-24T16:02:22Z</time>
      </trkpt>
      <trkpt lat="45.51622498780489" lon="3.288684971630573">
        <ele>388.50999999999999</ele>
        <time>2025-04-24T16:02:23Z</time>
      </trkpt>
      <trkpt lat="45.516046034172177" lon="3.288616994395852">
        <ele>388.02999999999997</ele>
        <time>2025-04-24T16:02:24Z</time>
      </trkpt>
      <trkpt lat="45.515863979235291" lon="3.288522027432919">
        <ele>388.02999999999997</ele>
        <time>2025-04-24T16:02:25Z</time>
      </trkpt>
      <trkpt lat="45.515677984803915" lon="3.288424964994192">
        <ele>388.02999999999997</ele>
        <time>2025-04-24T16:02:26Z</time>
      </trkpt>
      <trkpt lat="45.514200003817677" lon="3.287765979766846">
        <ele>387.06999999999999</ele>
        <time>2025-04-24T16:02:34Z</time>
      </trkpt>
      <trkpt lat="45.514014009386301" lon="3.287765979766846">
        <ele>387.55000000000001</ele>
        <time>2025-04-24T16:02:35Z</time>
      </trkpt>
      <trkpt lat="45.51381804049015" lon="3.287801016122103">
        <ele>387.55000000000001</ele>
        <time>2025-04-24T16:02:36Z</time>
      </trkpt>
      <trkpt lat="45.511720972135663" lon="3.288149032741785">
        <ele>390.43000000000001</ele>
        <time>2025-04-24T16:02:46Z</time>
      </trkpt>
      <trkpt lat="45.510237962007523" lon="3.287929007783532">
        <ele>395.24000000000001</ele>
        <time>2025-04-24T16:02:53Z</time>
      </trkpt>
      <trkpt lat="45.509561039507389" lon="3.287950968369842">
        <ele>401.00999999999999</ele>
        <time>2025-04-24T16:02:57Z</time>
      </trkpt>
      <trkpt lat="45.509406980127096" lon="3.288040990009904">
        <ele>401.97000000000003</ele>
        <time>2025-04-24T16:02:58Z</time>
      </trkpt>
      <trkpt lat="45.509271025657654" lon="3.288205023854971">
        <ele>402.93000000000001</ele>
        <time>2025-04-24T16:02:59Z</time>
      </trkpt>
      <trkpt lat="45.509147979319096" lon="3.288388000801206">
        <ele>404.37</ele>
        <time>2025-04-24T16:03:00Z</time>
      </trkpt>
      <trkpt lat="45.509037002921104" lon="3.288572989404202">
        <ele>405.32999999999998</ele>
        <time>2025-04-24T16:03:01Z</time>
      </trkpt>
      <trkpt lat="45.508925020694733" lon="3.288738029077649">
        <ele>406.29000000000002</ele>
        <time>2025-04-24T16:03:02Z</time>
      </trkpt>
      <trkpt lat="45.50879099406302" lon="3.288888987153769">
        <ele>407.25999999999999</ele>
        <time>2025-04-24T16:03:03Z</time>
      </trkpt>
      <trkpt lat="45.508465021848679" lon="3.289185035973787">
        <ele>409.66000000000003</ele>
        <time>2025-04-24T16:03:05Z</time>
      </trkpt>
      <trkpt lat="45.508281039074063" lon="3.289311015978456">
        <ele>410.62</ele>
        <time>2025-04-24T16:03:06Z</time>
      </trkpt>
      <trkpt lat="45.50771601498127" lon="3.289546966552734">
        <ele>414.94999999999999</ele>
        <time>2025-04-24T16:03:09Z</time>
      </trkpt>
      <trkpt lat="45.507538989186287" lon="3.28959901817143">
        <ele>415.91000000000003</ele>
        <time>2025-04-24T16:03:10Z</time>
      </trkpt>
      <trkpt lat="45.507369004189968" lon="3.289565993472934">
        <ele>417.35000000000002</ele>
        <time>2025-04-24T16:03:11Z</time>
      </trkpt>
      <trkpt lat="45.507196001708508" lon="3.289503967389464">
        <ele>418.79000000000002</ele>
        <time>2025-04-24T16:03:12Z</time>
      </trkpt>
      <trkpt lat="45.507055018097162" lon="3.289362983778119">
        <ele>420.23000000000002</ele>
        <time>2025-04-24T16:03:13Z</time>
      </trkpt>
      <trkpt lat="45.506900958716869" lon="3.289203979074955">
        <ele>421.68000000000001</ele>
        <time>2025-04-24T16:03:14Z</time>
      </trkpt>
      <trkpt lat="45.506757041439414" lon="3.289013039320707">
        <ele>423.12</ele>
        <time>2025-04-24T16:03:15Z</time>
      </trkpt>
      <trkpt lat="45.505832014605403" lon="3.28781601972878">
        <ele>430.32999999999998</ele>
        <time>2025-04-24T16:03:22Z</time>
      </trkpt>
      <trkpt lat="45.505691030994058" lon="3.287676963955164">
        <ele>430.81</ele>
        <time>2025-04-24T16:03:23Z</time>
      </trkpt>
      <trkpt lat="45.505523979663849" lon="3.287562970072031">
        <ele>431.76999999999998</ele>
        <time>2025-04-24T16:03:24Z</time>
      </trkpt>
      <trkpt lat="45.505349971354008" lon="3.287444030866027">
        <ele>431.76999999999998</ele>
        <time>2025-04-24T16:03:25Z</time>
      </trkpt>
      <trkpt lat="45.505163976922631" lon="3.287378987297416">
        <ele>432.25</ele>
        <time>2025-04-24T16:03:26Z</time>
      </trkpt>
      <trkpt lat="45.504964990541339" lon="3.287310004234314">
        <ele>432.25</ele>
        <time>2025-04-24T16:03:27Z</time>
      </trkpt>
      <trkpt lat="45.50260397605598" lon="3.286722013726831">
        <ele>433.20999999999998</ele>
        <time>2025-04-24T16:03:38Z</time>
      </trkpt>
      <trkpt lat="45.499996030703187" lon="3.28605598770082">
        <ele>436.57999999999998</ele>
        <time>2025-04-24T16:03:50Z</time>
      </trkpt>
      <trkpt lat="45.498393997550011" lon="3.285638988018036">
        <ele>437.54000000000002</ele>
        <time>2025-04-24T16:03:58Z</time>
      </trkpt>
      <trkpt lat="45.498227030038834" lon="3.285528011620045">
        <ele>437.06</ele>
        <time>2025-04-24T16:03:59Z</time>
      </trkpt>
      <trkpt lat="45.497885970398784" lon="3.285300023853779">
        <ele>436.57999999999998</ele>
        <time>2025-04-24T16:04:01Z</time>
      </trkpt>
      <trkpt lat="45.497708022594452" lon="3.285245960578322">
        <ele>436.10000000000002</ele>
        <time>2025-04-24T16:04:02Z</time>
      </trkpt>
      <trkpt lat="45.497524961829185" lon="3.285190975293517">
        <ele>435.61000000000001</ele>
        <time>2025-04-24T16:04:03Z</time>
      </trkpt>
      <trkpt lat="45.496396003291011" lon="3.285170020535588">
        <ele>430.81</ele>
        <time>2025-04-24T16:04:09Z</time>
      </trkpt>
      <trkpt lat="45.49622300080955" lon="3.285113023594022">
        <ele>430.32999999999998</ele>
        <time>2025-04-24T16:04:10Z</time>
      </trkpt>
      <trkpt lat="45.496053015813231" lon="3.285052003338933">
        <ele>429.37</ele>
        <time>2025-04-24T16:04:11Z</time>
      </trkpt>
      <trkpt lat="45.495913960039616" lon="3.285001963376999">
        <ele>429.37</ele>
        <time>2025-04-24T16:04:12Z</time>
      </trkpt>
      <trkpt lat="45.495806001126766" lon="3.284987965598702">
        <ele>428.39999999999998</ele>
        <time>2025-04-24T16:04:13Z</time>
      </trkpt>
      <trkpt lat="45.495683960616589" lon="3.285025013610721">
        <ele>427.92000000000002</ele>
        <time>2025-04-24T16:04:14Z</time>
      </trkpt>
      <trkpt lat="45.495553035289049" lon="3.285099025815725">
        <ele>427.44</ele>
        <time>2025-04-24T16:04:15Z</time>
      </trkpt>
      <trkpt lat="45.495413979515433" lon="3.285202039405704">
        <ele>426.95999999999998</ele>
        <time>2025-04-24T16:04:16Z</time>
      </trkpt>
      <trkpt lat="45.495264027267694" lon="3.285300023853779">
        <ele>426.48000000000002</ele>
        <time>2025-04-24T16:04:17Z</time>
      </trkpt>
      <trkpt lat="45.495098987594247" lon="3.285312009975314">
        <ele>426</ele>
        <time>2025-04-24T16:04:18Z</time>
      </trkpt>
      <trkpt lat="45.49493595957756" lon="3.285292983055115">
        <ele>425.51999999999998</ele>
        <time>2025-04-24T16:04:19Z</time>
      </trkpt>
      <trkpt lat="45.494777038693428" lon="3.285206984728575">
        <ele>425.04000000000002</ele>
        <time>2025-04-24T16:04:20Z</time>
      </trkpt>
      <trkpt lat="45.494613004848361" lon="3.285096008330584">
        <ele>425.04000000000002</ele>
        <time>2025-04-24T16:04:21Z</time>
      </trkpt>
      <trkpt lat="45.494443019852042" lon="3.284961981698871">
        <ele>424.56</ele>
        <time>2025-04-24T16:04:22Z</time>
      </trkpt>
      <trkpt lat="45.494274040684104" lon="3.284829966723919">
        <ele>424.56</ele>
        <time>2025-04-24T16:04:23Z</time>
      </trkpt>
      <trkpt lat="45.493978997692466" lon="3.284670040011406">
        <ele>425.51999999999998</ele>
        <time>2025-04-24T16:04:25Z</time>
      </trkpt>
      <trkpt lat="45.493863997980952" lon="3.284645983949304">
        <ele>426</ele>
        <time>2025-04-24T16:04:26Z</time>
      </trkpt>
      <trkpt lat="45.493748998269439" lon="3.284684959799051">
        <ele>426.48000000000002</ele>
        <time>2025-04-24T16:04:27Z</time>
      </trkpt>
      <trkpt lat="45.493631986901164" lon="3.284791996702552">
        <ele>426.95999999999998</ele>
        <time>2025-04-24T16:04:28Z</time>
      </trkpt>
      <trkpt lat="45.493500977754593" lon="3.284913031384349">
        <ele>427.44</ele>
        <time>2025-04-24T16:04:29Z</time>
      </trkpt>
      <trkpt lat="45.493354965001345" lon="3.28504596836865">
        <ele>427.92000000000002</ele>
        <time>2025-04-24T16:04:30Z</time>
      </trkpt>
      <trkpt lat="45.49319202080369" lon="3.285159962251782">
        <ele>428.39999999999998</ele>
        <time>2025-04-24T16:04:31Z</time>
      </trkpt>
      <trkpt lat="45.493013989180326" lon="3.285233974456787">
        <ele>429.37</ele>
        <time>2025-04-24T16:04:32Z</time>
      </trkpt>
      <trkpt lat="45.492819026112556" lon="3.285285020247102">
        <ele>430.32999999999998</ele>
        <time>2025-04-24T16:04:33Z</time>
      </trkpt>
      <trkpt lat="45.492616016417742" lon="3.285336988046765">
        <ele>431.29000000000002</ele>
        <time>2025-04-24T16:04:34Z</time>
      </trkpt>
      <trkpt lat="45.492410995066166" lon="3.285366995260119">
        <ele>432.25</ele>
        <time>2025-04-24T16:04:35Z</time>
      </trkpt>
      <trkpt lat="45.491334004327655" lon="3.285461962223053">
        <ele>438.98000000000002</ele>
        <time>2025-04-24T16:04:41Z</time>
      </trkpt>
      <trkpt lat="45.491200983524323" lon="3.285547038540244">
        <ele>440.42000000000002</ele>
        <time>2025-04-24T16:04:42Z</time>
      </trkpt>
      <trkpt lat="45.491085983812809" lon="3.285672012716532">
        <ele>441.38</ele>
        <time>2025-04-24T16:04:43Z</time>
      </trkpt>
      <trkpt lat="45.490966038778424" lon="3.285814002156258">
        <ele>442.33999999999997</ele>
        <time>2025-04-24T16:04:44Z</time>
      </trkpt>
      <trkpt lat="45.490853972733021" lon="3.285981975495815">
        <ele>443.31</ele>
        <time>2025-04-24T16:04:45Z</time>
      </trkpt>
      <trkpt lat="45.489787040278316" lon="3.287463979795575">
        <ele>448.11000000000001</ele>
        <time>2025-04-24T16:04:53Z</time>
      </trkpt>
      <trkpt lat="45.488410983234644" lon="3.288438962772489">
        <ele>451</ele>
        <time>2025-04-24T16:05:01Z</time>
      </trkpt>
      <trkpt lat="45.488216020166874" lon="3.288486991077662">
        <ele>451.48000000000002</ele>
        <time>2025-04-24T16:05:02Z</time>
      </trkpt>
      <trkpt lat="45.486541986465454" lon="3.288966016843915">
        <ele>455.31999999999999</ele>
        <time>2025-04-24T16:05:11Z</time>
      </trkpt>
      <trkpt lat="45.485739000141621" lon="3.2893449626863">
        <ele>454.36000000000001</ele>
        <time>2025-04-24T16:05:16Z</time>
      </trkpt>
      <trkpt lat="45.485012959688902" lon="3.289634976536036">
        <ele>451</ele>
        <time>2025-04-24T16:05:20Z</time>
      </trkpt>
      <trkpt lat="45.484838029369712" lon="3.289631037041545">
        <ele>450.02999999999997</ele>
        <time>2025-04-24T16:05:21Z</time>
      </trkpt>
      <trkpt lat="45.484671983867884" lon="3.28960002399981">
        <ele>448.58999999999997</ele>
        <time>2025-04-24T16:05:22Z</time>
      </trkpt>
      <trkpt lat="45.484334025532007" lon="3.28953699208796">
        <ele>446.19</ele>
        <time>2025-04-24T16:05:24Z</time>
      </trkpt>
      <trkpt lat="45.484162028878927" lon="3.289504973217845">
        <ele>444.75</ele>
        <time>2025-04-24T16:05:25Z</time>
      </trkpt>
      <trkpt lat="45.483988020569086" lon="3.289498016238213">
        <ele>443.79000000000002</ele>
        <time>2025-04-24T16:05:26Z</time>
      </trkpt>
      <trkpt lat="45.483790962025523" lon="3.289553001523018">
        <ele>442.33999999999997</ele>
        <time>2025-04-24T16:05:27Z</time>
      </trkpt>
      <trkpt lat="45.483580995351076" lon="3.289613015949726">
        <ele>441.38</ele>
        <time>2025-04-24T16:05:28Z</time>
      </trkpt>
      <trkpt lat="45.48157000914216" lon="3.289993973448873">
        <ele>429.37</ele>
        <time>2025-04-24T16:05:37Z</time>
      </trkpt>
      <trkpt lat="45.479792961850762" lon="3.290433017536998">
        <ele>418.31</ele>
        <time>2025-04-24T16:05:45Z</time>
      </trkpt>
      <trkpt lat="45.479394989088178" lon="3.290512980893254">
        <ele>416.38999999999999</ele>
        <time>2025-04-24T16:05:47Z</time>
      </trkpt>
      <trkpt lat="45.479192985221744" lon="3.290553968399763">
        <ele>415.43000000000001</ele>
        <time>2025-04-24T16:05:48Z</time>
      </trkpt>
      <trkpt lat="45.478601977229118" lon="3.290722025558353">
        <ele>412.06</ele>
        <time>2025-04-24T16:05:51Z</time>
      </trkpt>
      <trkpt lat="45.478421011939645" lon="3.290812969207764">
        <ele>410.62</ele>
        <time>2025-04-24T16:05:52Z</time>
      </trkpt>
      <trkpt lat="45.478268964216113" lon="3.290924029424787">
        <ele>409.18000000000001</ele>
        <time>2025-04-24T16:05:53Z</time>
      </trkpt>
      <trkpt lat="45.478121023625135" lon="3.291031988337636">
        <ele>407.74000000000001</ele>
        <time>2025-04-24T16:05:54Z</time>
      </trkpt>
      <trkpt lat="45.47797903418541" lon="3.291136007755995">
        <ele>406.29000000000002</ele>
        <time>2025-04-24T16:05:55Z</time>
      </trkpt>
      <trkpt lat="45.477863028645515" lon="3.291221000254154">
        <ele>404.85000000000002</ele>
        <time>2025-04-24T16:05:56Z</time>
      </trkpt>
      <trkpt lat="45.477706035599113" lon="3.291263999417424">
        <ele>403.41000000000003</ele>
        <time>2025-04-24T16:05:57Z</time>
      </trkpt>
      <trkpt lat="45.4775720089674" lon="3.291301969438791">
        <ele>402.44999999999999</ele>
        <time>2025-04-24T16:05:58Z</time>
      </trkpt>
      <trkpt lat="45.477103963494301" lon="3.291430966928601">
        <ele>399.07999999999998</ele>
        <time>2025-04-24T16:06:03Z</time>
      </trkpt>
      <trkpt lat="45.477050989866257" lon="3.291420992463827">
        <ele>398.60000000000002</ele>
        <time>2025-04-24T16:06:04Z</time>
      </trkpt>
      <trkpt lat="45.476918974891305" lon="3.291371036320925">
        <ele>397.16000000000003</ele>
        <time>2025-04-24T16:06:06Z</time>
      </trkpt>
      <trkpt lat="45.476246997714043" lon="3.291371036320925">
        <ele>395.24000000000001</ele>
        <time>2025-04-24T16:06:13Z</time>
      </trkpt>
      <trkpt lat="45.475928988307714" lon="3.291300963610411">
        <ele>394.75999999999999</ele>
        <time>2025-04-24T16:06:17Z</time>
      </trkpt>
      <trkpt lat="45.475862016901374" lon="3.29127699136734">
        <ele>394.75999999999999</ele>
        <time>2025-04-24T16:06:18Z</time>
      </trkpt>
      <trkpt lat="45.475803008303046" lon="3.291178001090884">
        <ele>394.27999999999997</ele>
        <time>2025-04-24T16:06:19Z</time>
      </trkpt>
      <trkpt lat="45.47527696006" lon="3.290452966466546">
        <ele>393.31999999999999</ele>
        <time>2025-04-24T16:06:25Z</time>
      </trkpt>
      <trkpt lat="45.47518702223897" lon="3.290285998955369">
        <ele>393.31999999999999</ele>
        <time>2025-04-24T16:06:26Z</time>
      </trkpt>
      <trkpt lat="45.475095994770527" lon="3.290118025615811">
        <ele>393.31999999999999</ele>
        <time>2025-04-24T16:06:27Z</time>
      </trkpt>
      <trkpt lat="45.47501603141427" lon="3.289914010092616">
        <ele>393.31999999999999</ele>
        <time>2025-04-24T16:06:28Z</time>
      </trkpt>
      <trkpt lat="45.474704978987575" lon="3.28850501216948">
        <ele>393.31999999999999</ele>
        <time>2025-04-24T16:06:34Z</time>
      </trkpt>
      <trkpt lat="45.474626021459699" lon="3.28826897777617">
        <ele>393.31999999999999</ele>
        <time>2025-04-24T16:06:35Z</time>
      </trkpt>
      <trkpt lat="45.474341958761215" lon="3.287416035309434">
        <ele>393.31999999999999</ele>
        <time>2025-04-24T16:06:39Z</time>
      </trkpt>
      <trkpt lat="45.474300971254706" lon="3.287202967330813">
        <ele>392.83999999999997</ele>
        <time>2025-04-24T16:06:40Z</time>
      </trkpt>
      <trkpt lat="45.474300971254706" lon="3.286983026191592">
        <ele>392.83999999999997</ele>
        <time>2025-04-24T16:06:41Z</time>
      </trkpt>
      <trkpt lat="45.474324021488428" lon="3.286759983748198">
        <ele>392.83999999999997</ele>
        <time>2025-04-24T16:06:42Z</time>
      </trkpt>
      <trkpt lat="45.47435000538826" lon="3.286546999588609">
        <ele>392.83999999999997</ele>
        <time>2025-04-24T16:06:43Z</time>
      </trkpt>
      <trkpt lat="45.474374983459711" lon="3.286341978237033">
        <ele>392.36000000000001</ele>
        <time>2025-04-24T16:06:44Z</time>
      </trkpt>
      <trkpt lat="45.474400967359543" lon="3.286133017390966">
        <ele>392.36000000000001</ele>
        <time>2025-04-24T16:06:45Z</time>
      </trkpt>
      <trkpt lat="45.474429968744516" lon="3.285898994654417">
        <ele>392.36000000000001</ele>
        <time>2025-04-24T16:06:46Z</time>
      </trkpt>
      <trkpt lat="45.4744169767946" lon="3.285720963031054">
        <ele>392.36000000000001</ele>
        <time>2025-04-24T16:06:47Z</time>
      </trkpt>
      <trkpt lat="45.474402979016304" lon="3.285516025498509">
        <ele>392.36000000000001</ele>
        <time>2025-04-24T16:06:48Z</time>
      </trkpt>
      <trkpt lat="45.474388981238008" lon="3.285309998318553">
        <ele>392.36000000000001</ele>
        <time>2025-04-24T16:06:49Z</time>
      </trkpt>
      <trkpt lat="45.474343970417976" lon="3.285113023594022">
        <ele>391.87</ele>
        <time>2025-04-24T16:06:50Z</time>
      </trkpt>
      <trkpt lat="45.474295020103455" lon="3.284925017505884">
        <ele>391.87</ele>
        <time>2025-04-24T16:06:51Z</time>
      </trkpt>
      <trkpt lat="45.474235005676746" lon="3.284752015024424">
        <ele>392.36000000000001</ele>
        <time>2025-04-24T16:06:52Z</time>
      </trkpt>
      <trkpt lat="45.474132997915149" lon="3.28461597673595">
        <ele>392.36000000000001</ele>
        <time>2025-04-24T16:06:53Z</time>
      </trkpt>
      <trkpt lat="45.4740060120821" lon="3.284528972581029">
        <ele>392.83999999999997</ele>
        <time>2025-04-24T16:06:54Z</time>
      </trkpt>
      <trkpt lat="45.473858993500471" lon="3.28446501865983">
        <ele>393.31999999999999</ele>
        <time>2025-04-24T16:06:55Z</time>
      </trkpt>
      <trkpt lat="45.473698982968926" lon="3.284427970647812">
        <ele>393.31999999999999</ele>
        <time>2025-04-24T16:06:56Z</time>
      </trkpt>
      <trkpt lat="45.473536038771272" lon="3.284390000626445">
        <ele>393.80000000000001</ele>
        <time>2025-04-24T16:06:57Z</time>
      </trkpt>
      <trkpt lat="45.472227036952972" lon="3.283749036490917">
        <ele>395.72000000000003</ele>
        <time>2025-04-24T16:07:05Z</time>
      </trkpt>
      <trkpt lat="45.470967991277575" lon="3.282598033547401">
        <ele>398.60000000000002</ele>
        <time>2025-04-24T16:07:13Z</time>
      </trkpt>
      <trkpt lat="45.470080012455583" lon="3.28150000423193">
        <ele>401.00999999999999</ele>
        <time>2025-04-24T16:07:19Z</time>
      </trkpt>
      <trkpt lat="45.469964006915689" lon="3.28130504116416">
        <ele>401.49000000000001</ele>
        <time>2025-04-24T16:07:20Z</time>
      </trkpt>
      <trkpt lat="45.469868034124374" lon="3.281103959307075">
        <ele>402.44999999999999</ele>
        <time>2025-04-24T16:07:21Z</time>
      </trkpt>
      <trkpt lat="45.469476012513041" lon="3.280095029622316">
        <ele>404.37</ele>
        <time>2025-04-24T16:07:27Z</time>
      </trkpt>
      <trkpt lat="45.46936503611505" lon="3.279780959710479">
        <ele>403.41000000000003</ele>
        <time>2025-04-24T16:07:32Z</time>
      </trkpt>
      <trkpt lat="45.46927803196013" lon="3.279752964153886">
        <ele>402.93000000000001</ele>
        <time>2025-04-24T16:07:33Z</time>
      </trkpt>
      <trkpt lat="45.469265040010214" lon="3.279781965538859">
        <ele>402.93000000000001</ele>
        <time>2025-04-24T16:07:34Z</time>
      </trkpt>
      <trkpt lat="45.46921500004828" lon="3.279891014099121">
        <ele>402.44999999999999</ele>
        <time>2025-04-24T16:07:35Z</time>
      </trkpt>
      <trkpt lat="45.469204019755125" lon="3.279904006049037">
        <ele>402.44999999999999</ele>
        <time>2025-04-24T16:07:36Z</time>
      </trkpt>
      <trkpt lat="45.469158003106713" lon="3.279955973848701">
        <ele>402.44999999999999</ele>
        <time>2025-04-24T16:07:37Z</time>
      </trkpt>
      <trkpt lat="45.469112992286682" lon="3.280006013810635">
        <ele>401.97000000000003</ele>
        <time>2025-04-24T16:07:38Z</time>
      </trkpt>
      <trkpt lat="45.469038980081677" lon="3.280087988823652">
        <ele>401.97000000000003</ele>
        <time>2025-04-24T16:07:44Z</time>
      </trkpt>
      <trkpt lat="45.468818033114076" lon="3.280263002961874">
        <ele>401.00999999999999</ele>
        <time>2025-04-24T16:07:59Z</time>
      </trkpt>
      <trkpt lat="45.468001971021295" lon="3.280979990959168">
        <ele>402.93000000000001</ele>
        <time>2025-04-24T16:08:07Z</time>
      </trkpt>
      <trkpt lat="45.467496961355209" lon="3.281397996470332">
        <ele>402.44999999999999</ele>
        <time>2025-04-24T16:08:11Z</time>
      </trkpt>
      <trkpt lat="45.467354971915483" lon="3.281443007290363">
        <ele>401.97000000000003</ele>
        <time>2025-04-24T16:08:12Z</time>
      </trkpt>
      <trkpt lat="45.467212982475758" lon="3.28147703781724">
        <ele>401.49000000000001</ele>
        <time>2025-04-24T16:08:13Z</time>
      </trkpt>
      <trkpt lat="45.467065963894129" lon="3.281496986746788">
        <ele>401.00999999999999</ele>
        <time>2025-04-24T16:08:14Z</time>
      </trkpt>
      <trkpt lat="45.466907965019345" lon="3.281485000625253">
        <ele>400.52999999999997</ele>
        <time>2025-04-24T16:08:15Z</time>
      </trkpt>
      <trkpt lat="45.465553030371666" lon="3.281378969550133">
        <ele>396.68000000000001</ele>
        <time>2025-04-24T16:08:22Z</time>
      </trkpt>
      <trkpt lat="45.463671963661909" lon="3.281227005645633">
        <ele>395.72000000000003</ele>
        <time>2025-04-24T16:08:31Z</time>
      </trkpt>
      <trkpt lat="45.462848022580147" lon="3.281161040067673">
        <ele>396.68000000000001</ele>
        <time>2025-04-24T16:08:37Z</time>
      </trkpt>
      <trkpt lat="45.462763030081987" lon="3.281146958470345">
        <ele>396.68000000000001</ele>
        <time>2025-04-24T16:08:38Z</time>
      </trkpt>
      <trkpt lat="45.462651969864964" lon="3.280983008444309">
        <ele>396.68000000000001</ele>
        <time>2025-04-24T16:08:39Z</time>
      </trkpt>
      <trkpt lat="45.462653981521726" lon="3.280850993469358">
        <ele>397.16000000000003</ele>
        <time>2025-04-24T16:08:40Z</time>
      </trkpt>
      <trkpt lat="45.462656999006867" lon="3.280697017908096">
        <ele>397.63999999999999</ele>
        <time>2025-04-24T16:08:41Z</time>
      </trkpt>
      <trkpt lat="45.46266102232039" lon="3.280523009598255">
        <ele>397.63999999999999</ele>
        <time>2025-04-24T16:08:42Z</time>
      </trkpt>
      <trkpt lat="45.462692035362124" lon="3.278904967010021">
        <ele>397.16000000000003</ele>
        <time>2025-04-24T16:08:49Z</time>
      </trkpt>
      <trkpt lat="45.462779961526394" lon="3.275413988158107">
        <ele>396.19999999999999</ele>
        <time>2025-04-24T16:09:01Z</time>
      </trkpt>
      <trkpt lat="45.462835030630231" lon="3.272777963429689">
        <ele>396.68000000000001</ele>
        <time>2025-04-24T16:09:11Z</time>
      </trkpt>
      <trkpt lat="45.462871994823217" lon="3.271107031032443">
        <ele>398.12</ele>
        <time>2025-04-24T16:09:20Z</time>
      </trkpt>
      <trkpt lat="45.462931003421545" lon="3.269048016518354">
        <ele>399.56999999999999</ele>
        <time>2025-04-24T16:09:34Z</time>
      </trkpt>
      <trkpt lat="45.463026976212859" lon="3.267371971160173">
        <ele>400.05000000000001</ele>
        <time>2025-04-24T16:09:46Z</time>
      </trkpt>
      <trkpt lat="45.463207019492984" lon="3.266673004254699">
        <ele>399.56999999999999</ele>
        <time>2025-04-24T16:09:52Z</time>
      </trkpt>
      <trkpt lat="45.463238032534719" lon="3.266617013141513">
        <ele>399.56999999999999</ele>
        <time>2025-04-24T16:09:53Z</time>
      </trkpt>
      <trkpt lat="45.463284971192479" lon="3.266532020643354">
        <ele>399.56999999999999</ele>
        <time>2025-04-24T16:09:54Z</time>
      </trkpt>
      <trkpt lat="45.463338028639555" lon="3.266435964033008">
        <ele>399.56999999999999</ele>
        <time>2025-04-24T16:09:55Z</time>
      </trkpt>
      <trkpt lat="45.463396031409502" lon="3.266330016776919">
        <ele>399.56999999999999</ele>
        <time>2025-04-24T16:09:56Z</time>
      </trkpt>
      <trkpt lat="45.463456967845559" lon="3.266218034550548">
        <ele>399.07999999999998</ele>
        <time>2025-04-24T16:09:57Z</time>
      </trkpt>
      <trkpt lat="45.463517988100648" lon="3.266102029010654">
        <ele>399.07999999999998</ele>
        <time>2025-04-24T16:09:58Z</time>
      </trkpt>
      <trkpt lat="45.464018974453211" lon="3.265182031318545">
        <ele>397.63999999999999</ele>
        <time>2025-04-24T16:10:06Z</time>
      </trkpt>
      <trkpt lat="45.464087035506964" lon="3.26506401412189">
        <ele>397.16000000000003</ele>
        <time>2025-04-24T16:10:07Z</time>
      </trkpt>
      <trkpt lat="45.4642319586128" lon="3.264919007197022">
        <ele>396.68000000000001</ele>
        <time>2025-04-24T16:10:09Z</time>
      </trkpt>
      <trkpt lat="45.464307982474566" lon="3.264842983335257">
        <ele>396.68000000000001</ele>
        <time>2025-04-24T16:10:10Z</time>
      </trkpt>
      <trkpt lat="45.464394986629486" lon="3.264795038849115">
        <ele>396.68000000000001</ele>
        <time>2025-04-24T16:10:11Z</time>
      </trkpt>
      <trkpt lat="45.46448802575469" lon="3.264775006100535">
        <ele>396.68000000000001</ele>
        <time>2025-04-24T16:10:12Z</time>
      </trkpt>
      <trkpt lat="45.464582992717624" lon="3.264754973351955">
        <ele>396.19999999999999</ele>
        <time>2025-04-24T16:10:13Z</time>
      </trkpt>
      <trkpt lat="45.465051960200071" lon="3.264652965590358">
        <ele>396.68000000000001</ele>
        <time>2025-04-24T16:10:18Z</time>
      </trkpt>
      <trkpt lat="45.465123038738966" lon="3.264637039974332">
        <ele>397.16000000000003</ele>
        <time>2025-04-24T16:10:19Z</time>
      </trkpt>
      <trkpt lat="45.465717986226082" lon="3.264531008899212">
        <ele>399.07999999999998</ele>
        <time>2025-04-24T16:10:28Z</time>
      </trkpt>
      <trkpt lat="45.465781018137932" lon="3.264521034434438">
        <ele>399.56999999999999</ele>
        <time>2025-04-24T16:10:29Z</time>
      </trkpt>
      <trkpt lat="45.465904986485839" lon="3.264501001685858">
        <ele>399.56999999999999</ele>
        <time>2025-04-24T16:10:31Z</time>
      </trkpt>
      <trkpt lat="45.466374037787318" lon="3.264433024451137">
        <ele>399.56999999999999</ele>
        <time>2025-04-24T16:10:38Z</time>
      </trkpt>
      <trkpt lat="45.466435980051756" lon="3.264424977824092">
        <ele>399.56999999999999</ele>
        <time>2025-04-24T16:10:39Z</time>
      </trkpt>
      <trkpt lat="45.466646030545235" lon="3.264308972284198">
        <ele>399.07999999999998</ele>
        <time>2025-04-24T16:10:46Z</time>
      </trkpt>
      <trkpt lat="45.466690035536885" lon="3.263799017295241">
        <ele>396.68000000000001</ele>
        <time>2025-04-24T16:10:53Z</time>
      </trkpt>
      <trkpt lat="45.466697998344898" lon="3.263729028403759">
        <ele>396.68000000000001</ele>
        <time>2025-04-24T16:10:54Z</time>
      </trkpt>
      <trkpt lat="45.466705039143562" lon="3.263669013977051">
        <ele>396.68000000000001</ele>
        <time>2025-04-24T16:10:55Z</time>
      </trkpt>
      <trkpt lat="45.46670101583004" lon="3.263659039512277">
        <ele>396.68000000000001</ele>
        <time>2025-04-24T16:10:56Z</time>
      </trkpt>
      <trkpt lat="45.466678971424699" lon="3.263601958751679">
        <ele>396.68000000000001</ele>
        <time>2025-04-24T16:10:57Z</time>
      </trkpt>
      <trkpt lat="45.46665801666677" lon="3.263547979295254">
        <ele>396.68000000000001</ele>
        <time>2025-04-24T16:10:58Z</time>
      </trkpt>
      <trkpt lat="45.466636978089809" lon="3.263491988182068">
        <ele>396.68000000000001</ele>
        <time>2025-04-24T16:10:59Z</time>
      </trkpt>
      <trkpt lat="45.466604959219694" lon="3.263408001512289">
        <ele>397.16000000000003</ele>
        <time>2025-04-24T16:11:01Z</time>
      </trkpt>
      <trkpt lat="45.466530025005341" lon="3.263322003185749">
        <ele>380.33999999999997</ele>
        <time>2025-04-25T06:05:36Z</time>
      </trkpt>
      <trkpt lat="45.466516027227044" lon="3.26342904008925">
        <ele>412.06</ele>
        <time>2025-04-25T06:06:37Z</time>
      </trkpt>
      <trkpt lat="45.466538993641734" lon="3.263402972370386">
        <ele>406.76999999999998</ele>
        <time>2025-04-25T06:07:26Z</time>
      </trkpt>
      <trkpt lat="45.466537987813354" lon="3.263404984027147">
        <ele>406.76999999999998</ele>
        <time>2025-04-25T06:08:15Z</time>
      </trkpt>
      <trkpt lat="45.466537987813354" lon="3.263400038704276">
        <ele>406.76999999999998</ele>
        <time>2025-04-25T06:08:47Z</time>
      </trkpt>
      <trkpt lat="45.466547040268779" lon="3.263256959617138">
        <ele>406.29000000000002</ele>
        <time>2025-04-25T06:08:51Z</time>
      </trkpt>
      <trkpt lat="45.466518960893154" lon="3.263184037059546">
        <ele>406.29000000000002</ele>
        <time>2025-04-25T06:08:52Z</time>
      </trkpt>
      <trkpt lat="45.466254008933902" lon="3.262488003820181">
        <ele>404.37</ele>
        <time>2025-04-25T06:09:01Z</time>
      </trkpt>
      <trkpt lat="45.466216038912535" lon="3.262436036020517">
        <ele>404.37</ele>
        <time>2025-04-25T06:09:02Z</time>
      </trkpt>
      <trkpt lat="45.466172033920884" lon="3.262465037405491">
        <ele>404.37</ele>
        <time>2025-04-25T06:09:03Z</time>
      </trkpt>
      <trkpt lat="45.466116964817047" lon="3.262502001598477">
        <ele>403.88999999999999</ele>
        <time>2025-04-25T06:09:04Z</time>
      </trkpt>
      <trkpt lat="45.4660589620471" lon="3.262539971619844">
        <ele>403.41000000000003</ele>
        <time>2025-04-25T06:09:05Z</time>
      </trkpt>
      <trkpt lat="45.465995008125901" lon="3.262582970783114">
        <ele>403.41000000000003</ele>
        <time>2025-04-25T06:09:06Z</time>
      </trkpt>
      <trkpt lat="45.465922001749277" lon="3.262621024623513">
        <ele>403.41000000000003</ele>
        <time>2025-04-25T06:09:07Z</time>
      </trkpt>
      <trkpt lat="45.464873006567359" lon="3.263115976005793">
        <ele>402.44999999999999</ele>
        <time>2025-04-25T06:09:21Z</time>
      </trkpt>
      <trkpt lat="45.464720036834478" lon="3.263178002089262">
        <ele>402.44999999999999</ele>
        <time>2025-04-25T06:09:23Z</time>
      </trkpt>
      <trkpt lat="45.464580981060863" lon="3.26321798376739">
        <ele>403.41000000000003</ele>
        <time>2025-04-25T06:09:25Z</time>
      </trkpt>
      <trkpt lat="45.464529013261199" lon="3.263286966830492">
        <ele>403.88999999999999</ele>
        <time>2025-04-25T06:09:26Z</time>
      </trkpt>
      <trkpt lat="45.46446799300611" lon="3.263368019834161">
        <ele>403.88999999999999</ele>
        <time>2025-04-25T06:09:27Z</time>
      </trkpt>
      <trkpt lat="45.464387023821473" lon="3.263449994847179">
        <ele>403.88999999999999</ele>
        <time>2025-04-25T06:09:28Z</time>
      </trkpt>
      <trkpt lat="45.464302031323314" lon="3.263528030365706">
        <ele>403.88999999999999</ele>
        <time>2025-04-25T06:09:29Z</time>
      </trkpt>
      <trkpt lat="45.464031966403127" lon="3.263802034780383">
        <ele>403.88999999999999</ele>
        <time>2025-04-25T06:09:32Z</time>
      </trkpt>
      <trkpt lat="45.463949991390109" lon="3.263910999521613">
        <ele>403.41000000000003</ele>
        <time>2025-04-25T06:09:33Z</time>
      </trkpt>
      <trkpt lat="45.463863993063569" lon="3.264027005061507">
        <ele>402.93000000000001</ele>
        <time>2025-04-25T06:09:34Z</time>
      </trkpt>
      <trkpt lat="45.46369300223887" lon="3.264261027798057">
        <ele>402.44999999999999</ele>
        <time>2025-04-25T06:09:36Z</time>
      </trkpt>
      <trkpt lat="45.463052038103342" lon="3.265581009909511">
        <ele>402.93000000000001</ele>
        <time>2025-04-25T06:09:46Z</time>
      </trkpt>
      <trkpt lat="45.462724976241589" lon="3.267302988097072">
        <ele>402.44999999999999</ele>
        <time>2025-04-25T06:09:57Z</time>
      </trkpt>
      <trkpt lat="45.462647024542093" lon="3.267624014988542">
        <ele>401.49000000000001</ele>
        <time>2025-04-25T06:10:00Z</time>
      </trkpt>
      <trkpt lat="45.462627997621894" lon="3.267682017758489">
        <ele>401.49000000000001</ele>
        <time>2025-04-25T06:10:01Z</time>
      </trkpt>
      <trkpt lat="45.462627997621894" lon="3.267682017758489">
        <ele>401.49000000000001</ele>
        <time>2025-04-25T06:10:02Z</time>
      </trkpt>
      <trkpt lat="45.462646018713713" lon="3.267783019691706">
        <ele>401.49000000000001</ele>
        <time>2025-04-25T06:10:03Z</time>
      </trkpt>
      <trkpt lat="45.462656999006867" lon="3.267846973612905">
        <ele>401.00999999999999</ele>
        <time>2025-04-25T06:10:04Z</time>
      </trkpt>
      <trkpt lat="45.462669990956783" lon="3.26792199164629">
        <ele>400.52999999999997</ele>
        <time>2025-04-25T06:10:05Z</time>
      </trkpt>
      <trkpt lat="45.462686000391841" lon="3.268014024943113">
        <ele>401.00999999999999</ele>
        <time>2025-04-25T06:10:06Z</time>
      </trkpt>
      <trkpt lat="45.462703015655279" lon="3.268111003562808">
        <ele>401.00999999999999</ele>
        <time>2025-04-25T06:10:07Z</time>
      </trkpt>
      <trkpt lat="45.462709972634912" lon="3.26824301853776">
        <ele>401.49000000000001</ele>
        <time>2025-04-25T06:10:08Z</time>
      </trkpt>
      <trkpt lat="45.462649958208203" lon="3.269397960975766">
        <ele>401.97000000000003</ele>
        <time>2025-04-25T06:10:15Z</time>
      </trkpt>
      <trkpt lat="45.462581980973482" lon="3.271535011008382">
        <ele>401.49000000000001</ele>
        <time>2025-04-25T06:10:24Z</time>
      </trkpt>
      <trkpt lat="45.462499000132084" lon="3.27460496686399">
        <ele>399.07999999999998</ele>
        <time>2025-04-25T06:10:37Z</time>
      </trkpt>
      <trkpt lat="45.46249003149569" lon="3.27496899291873">
        <ele>398.60000000000002</ele>
        <time>2025-04-25T06:10:39Z</time>
      </trkpt>
      <trkpt lat="45.462485002353787" lon="3.275133026763797">
        <ele>398.60000000000002</ele>
        <time>2025-04-25T06:10:40Z</time>
      </trkpt>
      <trkpt lat="45.462477961555123" lon="3.275406025350094">
        <ele>398.12</ele>
        <time>2025-04-25T06:10:41Z</time>
      </trkpt>
      <trkpt lat="45.461907992139459" lon="3.275595959275961">
        <ele>398.60000000000002</ele>
        <time>2025-04-25T06:10:44Z</time>
      </trkpt>
      <trkpt lat="45.461811013519764" lon="3.275529993698001">
        <ele>398.60000000000002</ele>
        <time>2025-04-25T06:10:45Z</time>
      </trkpt>
      <trkpt lat="45.461705988273025" lon="3.275460004806519">
        <ele>398.60000000000002</ele>
        <time>2025-04-25T06:10:46Z</time>
      </trkpt>
      <trkpt lat="45.461599035188556" lon="3.275386998429894">
        <ele>399.07999999999998</ele>
        <time>2025-04-25T06:10:47Z</time>
      </trkpt>
      <trkpt lat="45.461491998285055" lon="3.275316003710032">
        <ele>399.07999999999998</ele>
        <time>2025-04-25T06:10:48Z</time>
      </trkpt>
      <trkpt lat="45.460419030860066" lon="3.27466799877584">
        <ele>401.49000000000001</ele>
        <time>2025-04-25T06:10:58Z</time>
      </trkpt>
      <trkpt lat="45.460305036976933" lon="3.274674033746123">
        <ele>401.49000000000001</ele>
        <time>2025-04-25T06:10:59Z</time>
      </trkpt>
      <trkpt lat="45.460193976759911" lon="3.274698005989194">
        <ele>401.97000000000003</ele>
        <time>2025-04-25T06:11:00Z</time>
      </trkpt>
      <trkpt lat="45.460081994533539" lon="3.274720972403884">
        <ele>401.97000000000003</ele>
        <time>2025-04-25T06:11:01Z</time>
      </trkpt>
      <trkpt lat="45.459966994822025" lon="3.274747040122747">
        <ele>401.97000000000003</ele>
        <time>2025-04-25T06:11:02Z</time>
      </trkpt>
      <trkpt lat="45.459017995744944" lon="3.274943009018898">
        <ele>401.00999999999999</ele>
        <time>2025-04-25T06:11:10Z</time>
      </trkpt>
      <trkpt lat="45.457836985588074" lon="3.275079969316721">
        <ele>397.63999999999999</ele>
        <time>2025-04-25T06:11:19Z</time>
      </trkpt>
      <trkpt lat="45.457727015018463" lon="3.275127997621894">
        <ele>397.63999999999999</ele>
        <time>2025-04-25T06:11:20Z</time>
      </trkpt>
      <trkpt lat="45.457626013085246" lon="3.275189017876983">
        <ele>397.63999999999999</ele>
        <time>2025-04-25T06:11:21Z</time>
      </trkpt>
      <trkpt lat="45.457541020587087" lon="3.275294965133071">
        <ele>398.12</ele>
        <time>2025-04-25T06:11:22Z</time>
      </trkpt>
      <trkpt lat="45.457470025867224" lon="3.275426980108023">
        <ele>398.12</ele>
        <time>2025-04-25T06:11:23Z</time>
      </trkpt>
      <trkpt lat="45.45739802531898" lon="3.27557098120451">
        <ele>398.60000000000002</ele>
        <time>2025-04-25T06:11:24Z</time>
      </trkpt>
      <trkpt lat="45.457327030599117" lon="3.275725040584803">
        <ele>398.60000000000002</ele>
        <time>2025-04-25T06:11:25Z</time>
      </trkpt>
      <trkpt lat="45.45671297237277" lon="3.277042005211115">
        <ele>401.00999999999999</ele>
        <time>2025-04-25T06:11:33Z</time>
      </trkpt>
      <trkpt lat="45.456348024308681" lon="3.278099969029427">
        <ele>401.97000000000003</ele>
        <time>2025-04-25T06:11:39Z</time>
      </trkpt>
      <trkpt lat="45.456289015710354" lon="3.278270959854126">
        <ele>402.44999999999999</ele>
        <time>2025-04-25T06:11:40Z</time>
      </trkpt>
      <trkpt lat="45.455991961061954" lon="3.279136978089809">
        <ele>403.88999999999999</ele>
        <time>2025-04-25T06:11:46Z</time>
      </trkpt>
      <trkpt lat="45.455962037667632" lon="3.279225993901491">
        <ele>404.37</ele>
        <time>2025-04-25T06:11:47Z</time>
      </trkpt>
      <trkpt lat="45.455897999927402" lon="3.279275028035045">
        <ele>404.37</ele>
        <time>2025-04-25T06:11:48Z</time>
      </trkpt>
      <trkpt lat="45.455825999379158" lon="3.279311992228031">
        <ele>404.85000000000002</ele>
        <time>2025-04-25T06:11:49Z</time>
      </trkpt>
      <trkpt lat="45.455756010487676" lon="3.279318027198315">
        <ele>405.32999999999998</ele>
        <time>2025-04-25T06:11:50Z</time>
      </trkpt>
      <trkpt lat="45.45568099245429" lon="3.279324984177947">
        <ele>406.29000000000002</ele>
        <time>2025-04-25T06:11:51Z</time>
      </trkpt>
      <trkpt lat="45.455440012738109" lon="3.279347028583288">
        <ele>408.22000000000003</ele>
        <time>2025-04-25T06:11:54Z</time>
      </trkpt>
      <trkpt lat="45.455354014411569" lon="3.279354991391301">
        <ele>409.18000000000001</ele>
        <time>2025-04-25T06:11:55Z</time>
      </trkpt>
      <trkpt lat="45.45514103025198" lon="3.279461022466421">
        <ele>411.10000000000002</ele>
        <time>2025-04-25T06:11:58Z</time>
      </trkpt>
      <trkpt lat="45.455074980854988" lon="3.279505027458072">
        <ele>412.06</ele>
        <time>2025-04-25T06:11:59Z</time>
      </trkpt>
      <trkpt lat="45.455022007226944" lon="3.279609968885779">
        <ele>413.01999999999998</ele>
        <time>2025-04-25T06:12:00Z</time>
      </trkpt>
      <trkpt lat="45.454970961436629" lon="3.279711976647377">
        <ele>414.47000000000003</ele>
        <time>2025-04-25T06:12:01Z</time>
      </trkpt>
      <trkpt lat="45.454938020557165" lon="3.279824964702129">
        <ele>415.91000000000003</ele>
        <time>2025-04-25T06:12:02Z</time>
      </trkpt>
      <trkpt lat="45.454921005293727" lon="3.279957985505462">
        <ele>417.35000000000002</ele>
        <time>2025-04-25T06:12:03Z</time>
      </trkpt>
      <trkpt lat="45.454902984201908" lon="3.280091006308794">
        <ele>418.31</ele>
        <time>2025-04-25T06:12:04Z</time>
      </trkpt>
      <trkpt lat="45.454834001138806" lon="3.280513035133481">
        <ele>421.68000000000001</ele>
        <time>2025-04-25T06:12:07Z</time>
      </trkpt>
      <trkpt lat="45.454553039744496" lon="3.281659008935094">
        <ele>429.85000000000002</ele>
        <time>2025-04-25T06:12:15Z</time>
      </trkpt>
      <trkpt lat="45.454411972314119" lon="3.281926978379488">
        <ele>432.25</ele>
        <time>2025-04-25T06:12:17Z</time>
      </trkpt>
      <trkpt lat="45.453889025375247" lon="3.282685959711671">
        <ele>442.33999999999997</ele>
        <time>2025-04-25T06:12:23Z</time>
      </trkpt>
      <trkpt lat="45.452884035184979" lon="3.283606041222811">
        <ele>455.31999999999999</ele>
        <time>2025-04-25T06:12:31Z</time>
      </trkpt>
      <trkpt lat="45.451568998396397" lon="3.284867014735937">
        <ele>459.64999999999998</ele>
        <time>2025-04-25T06:12:40Z</time>
      </trkpt>
      <trkpt lat="45.450564008206129" lon="3.285994967445731">
        <ele>460.61000000000001</ele>
        <time>2025-04-25T06:12:48Z</time>
      </trkpt>
      <trkpt lat="45.450488990172744" lon="3.286135029047728">
        <ele>461.08999999999997</ele>
        <time>2025-04-25T06:12:49Z</time>
      </trkpt>
      <trkpt lat="45.450429981574416" lon="3.286301996558905">
        <ele>461.08999999999997</ele>
        <time>2025-04-25T06:12:50Z</time>
      </trkpt>
      <trkpt lat="45.450322022661567" lon="3.286610031500459">
        <ele>461.08999999999997</ele>
        <time>2025-04-25T06:12:52Z</time>
      </trkpt>
      <trkpt lat="45.450275000184774" lon="3.286741962656379">
        <ele>461.08999999999997</ele>
        <time>2025-04-25T06:12:53Z</time>
      </trkpt>
      <trkpt lat="45.450195958837867" lon="3.286852017045021">
        <ele>461.08999999999997</ele>
        <time>2025-04-25T06:12:54Z</time>
      </trkpt>
      <trkpt lat="45.450096968561411" lon="3.286912031471729">
        <ele>461.08999999999997</ele>
        <time>2025-04-25T06:12:55Z</time>
      </trkpt>
      <trkpt lat="45.449988003820181" lon="3.286976991221309">
        <ele>461.08999999999997</ele>
        <time>2025-04-25T06:12:56Z</time>
      </trkpt>
      <trkpt lat="45.449876021593809" lon="3.287043962627649">
        <ele>461.56999999999999</ele>
        <time>2025-04-25T06:12:57Z</time>
      </trkpt>
      <trkpt lat="45.449565974995494" lon="3.287254013121128">
        <ele>461.56999999999999</ele>
        <time>2025-04-25T06:13:00Z</time>
      </trkpt>
      <trkpt lat="45.449482994154096" lon="3.287355015054345">
        <ele>461.56999999999999</ele>
        <time>2025-04-25T06:13:01Z</time>
      </trkpt>
      <trkpt lat="45.44940403662622" lon="3.287464985623956">
        <ele>461.56999999999999</ele>
        <time>2025-04-25T06:13:02Z</time>
      </trkpt>
      <trkpt lat="45.449361959472299" lon="3.287614015862346">
        <ele>462.05000000000001</ele>
        <time>2025-04-25T06:13:03Z</time>
      </trkpt>
      <trkpt lat="45.44932097196579" lon="3.287762040272355">
        <ele>462.52999999999997</ele>
        <time>2025-04-25T06:13:04Z</time>
      </trkpt>
      <trkpt lat="45.449281996116042" lon="3.28790201805532">
        <ele>462.52999999999997</ele>
        <time>2025-04-25T06:13:05Z</time>
      </trkpt>
      <trkpt lat="45.449227010831237" lon="3.288026992231607">
        <ele>463.00999999999999</ele>
        <time>2025-04-25T06:13:06Z</time>
      </trkpt>
      <trkpt lat="45.449162973091006" lon="3.288116008043289">
        <ele>463.00999999999999</ele>
        <time>2025-04-25T06:13:07Z</time>
      </trkpt>
      <trkpt lat="45.449080998077989" lon="3.288134029135108">
        <ele>462.52999999999997</ele>
        <time>2025-04-25T06:13:08Z</time>
      </trkpt>
      <trkpt lat="45.44899701140821" lon="3.288136962801218">
        <ele>463.00999999999999</ele>
        <time>2025-04-25T06:13:09Z</time>
      </trkpt>
      <trkpt lat="45.448913024738431" lon="3.28813998028636">
        <ele>463.49000000000001</ele>
        <time>2025-04-25T06:13:10Z</time>
      </trkpt>
      <trkpt lat="45.448640026152134" lon="3.288150960579515">
        <ele>464.93000000000001</ele>
        <time>2025-04-25T06:13:13Z</time>
      </trkpt>
      <trkpt lat="45.448566013947129" lon="3.288190020248294">
        <ele>464.93000000000001</ele>
        <time>2025-04-25T06:13:14Z</time>
      </trkpt>
      <trkpt lat="45.448498958721757" lon="3.288241988047957">
        <ele>465.42000000000002</ele>
        <time>2025-04-25T06:13:15Z</time>
      </trkpt>
      <trkpt lat="45.44844196178019" lon="3.288285993039608">
        <ele>465.42000000000002</ele>
        <time>2025-04-25T06:13:16Z</time>
      </trkpt>
      <trkpt lat="45.448394017294049" lon="3.288323041051626">
        <ele>465.42000000000002</ele>
        <time>2025-04-25T06:13:17Z</time>
      </trkpt>
      <trkpt lat="45.448337020352483" lon="3.288366962224245">
        <ele>464.93000000000001</ele>
        <time>2025-04-25T06:13:18Z</time>
      </trkpt>
      <trkpt lat="45.448299972340465" lon="3.288219021633267">
        <ele>464.93000000000001</ele>
        <time>2025-04-25T06:13:19Z</time>
      </trkpt>
      <trkpt lat="45.448278011754155" lon="3.288131011649966">
        <ele>464.44999999999999</ele>
        <time>2025-04-25T06:13:20Z</time>
      </trkpt>
      <trkpt lat="45.448250016197562" lon="3.288019029423595">
        <ele>464.44999999999999</ele>
        <time>2025-04-25T06:13:21Z</time>
      </trkpt>
      <trkpt lat="45.448217997327447" lon="3.287891037762165">
        <ele>463.97000000000003</ele>
        <time>2025-04-25T06:13:22Z</time>
      </trkpt>
      <trkpt lat="45.447942987084389" lon="3.287119986489415">
        <ele>462.52999999999997</ele>
        <time>2025-04-25T06:13:28Z</time>
      </trkpt>
      <trkpt lat="45.447895964607596" lon="3.287029964849353">
        <ele>462.05000000000001</ele>
        <time>2025-04-25T06:13:29Z</time>
      </trkpt>
      <trkpt lat="45.447803009301424" lon="3.286904990673065">
        <ele>460.61000000000001</ele>
        <time>2025-04-25T06:13:31Z</time>
      </trkpt>
      <trkpt lat="45.447742994874716" lon="3.28687003813684">
        <ele>460.13</ele>
        <time>2025-04-25T06:13:32Z</time>
      </trkpt>
      <trkpt lat="45.447681974619627" lon="3.286835001781583">
        <ele>459.17000000000002</ele>
        <time>2025-04-25T06:13:33Z</time>
      </trkpt>
      <trkpt lat="45.447622966021299" lon="3.286800971254706">
        <ele>458.69</ele>
        <time>2025-04-25T06:13:34Z</time>
      </trkpt>
      <trkpt lat="45.447568986564875" lon="3.286775993183255">
        <ele>458.20999999999998</ele>
        <time>2025-04-25T06:13:35Z</time>
      </trkpt>
      <trkpt lat="45.447506038472056" lon="3.286766018718481">
        <ele>457.24000000000001</ele>
        <time>2025-04-25T06:13:36Z</time>
      </trkpt>
      <trkpt lat="45.447056014090776" lon="3.286720002070069">
        <ele>453.88</ele>
        <time>2025-04-25T06:13:42Z</time>
      </trkpt>
      <trkpt lat="45.446669021621346" lon="3.286713967099786">
        <ele>451.48000000000002</ele>
        <time>2025-04-25T06:13:47Z</time>
      </trkpt>
      <trkpt lat="45.446597021073103" lon="3.286686977371573">
        <ele>451</ele>
        <time>2025-04-25T06:13:48Z</time>
      </trkpt>
      <trkpt lat="45.446533989161253" lon="3.286642972379923">
        <ele>450.51999999999998</ele>
        <time>2025-04-25T06:13:49Z</time>
      </trkpt>
      <trkpt lat="45.446470035240054" lon="3.286564014852047">
        <ele>450.02999999999997</ele>
        <time>2025-04-25T06:13:50Z</time>
      </trkpt>
      <trkpt lat="45.446431981399655" lon="3.286483967676759">
        <ele>449.06999999999999</ele>
        <time>2025-04-25T06:13:51Z</time>
      </trkpt>
      <trkpt lat="45.446393005549908" lon="3.286400986835361">
        <ele>447.63</ele>
        <time>2025-04-25T06:13:52Z</time>
      </trkpt>
      <trkpt lat="45.446355035528541" lon="3.286321023479104">
        <ele>447.14999999999998</ele>
        <time>2025-04-25T06:13:53Z</time>
      </trkpt>
      <trkpt lat="45.446315975859761" lon="3.286237958818674">
        <ele>446.19</ele>
        <time>2025-04-25T06:13:54Z</time>
      </trkpt>
      <trkpt lat="45.446277000010014" lon="3.286156989634037">
        <ele>445.23000000000002</ele>
        <time>2025-04-25T06:13:55Z</time>
      </trkpt>
      <trkpt lat="45.446223020553589" lon="3.28609898686409">
        <ele>444.75</ele>
        <time>2025-04-25T06:13:56Z</time>
      </trkpt>
      <trkpt lat="45.446166023612022" lon="3.286038972437382">
        <ele>443.79000000000002</ele>
        <time>2025-04-25T06:13:57Z</time>
      </trkpt>
      <trkpt lat="45.446110032498837" lon="3.285979963839054">
        <ele>443.31</ele>
        <time>2025-04-25T06:13:58Z</time>
      </trkpt>
      <trkpt lat="45.446054963395" lon="3.285921961069107">
        <ele>442.33999999999997</ele>
        <time>2025-04-25T06:13:59Z</time>
      </trkpt>
      <trkpt lat="45.445999978110194" lon="3.285863036289811">
        <ele>441.86000000000001</ele>
        <time>2025-04-25T06:14:00Z</time>
      </trkpt>
      <trkpt lat="45.445942981168628" lon="3.285803021863103">
        <ele>441.86000000000001</ele>
        <time>2025-04-25T06:14:01Z</time>
      </trkpt>
      <trkpt lat="45.445884978398681" lon="3.285749964416027">
        <ele>441.86000000000001</ele>
        <time>2025-04-25T06:14:02Z</time>
      </trkpt>
      <trkpt lat="45.445823036134243" lon="3.285703025758266">
        <ele>441.86000000000001</ele>
        <time>2025-04-25T06:14:03Z</time>
      </trkpt>
      <trkpt lat="45.445706024765968" lon="3.285606969147921">
        <ele>442.33999999999997</ele>
        <time>2025-04-25T06:14:05Z</time>
      </trkpt>
      <trkpt lat="45.445651039481163" lon="3.285551983863115">
        <ele>441.86000000000001</ele>
        <time>2025-04-25T06:14:06Z</time>
      </trkpt>
      <trkpt lat="45.445502009242773" lon="3.285403037443757">
        <ele>441.38</ele>
        <time>2025-04-25T06:14:09Z</time>
      </trkpt>
      <trkpt lat="45.445456998422742" lon="3.285359032452107">
        <ele>441.38</ele>
        <time>2025-04-25T06:14:10Z</time>
      </trkpt>
      <trkpt lat="45.445401007309556" lon="3.285341011360288">
        <ele>440.89999999999998</ele>
        <time>2025-04-25T06:14:11Z</time>
      </trkpt>
      <trkpt lat="45.445331018418074" lon="3.285348974168301">
        <ele>440.42000000000002</ele>
        <time>2025-04-25T06:14:12Z</time>
      </trkpt>
      <trkpt lat="45.445264969021082" lon="3.285371018573642">
        <ele>440.42000000000002</ele>
        <time>2025-04-25T06:14:13Z</time>
      </trkpt>
      <trkpt lat="45.445201015099883" lon="3.285391973331571">
        <ele>439.94</ele>
        <time>2025-04-25T06:14:14Z</time>
      </trkpt>
      <trkpt lat="45.445134965702891" lon="3.285409994423389">
        <ele>439.45999999999998</ele>
        <time>2025-04-25T06:14:15Z</time>
      </trkpt>
      <trkpt lat="45.445064976811409" lon="3.285420974716544">
        <ele>439.45999999999998</ele>
        <time>2025-04-25T06:14:16Z</time>
      </trkpt>
      <trkpt lat="45.444996999576688" lon="3.285432038828731">
        <ele>438.98000000000002</ele>
        <time>2025-04-25T06:14:17Z</time>
      </trkpt>
      <trkpt lat="45.444754008203745" lon="3.285470008850098">
        <ele>438.01999999999998</ele>
        <time>2025-04-25T06:14:21Z</time>
      </trkpt>
      <trkpt lat="45.444754008203745" lon="3.285470008850098">
        <ele>438.5</ele>
        <time>2025-04-25T06:14:22Z</time>
      </trkpt>
      <trkpt lat="45.444681001827121" lon="3.285475037992001">
        <ele>438.98000000000002</ele>
        <time>2025-04-25T06:14:23Z</time>
      </trkpt>
      <trkpt lat="45.444655017927289" lon="3.285423992201686">
        <ele>438.98000000000002</ele>
        <time>2025-04-25T06:14:24Z</time>
      </trkpt>
      <trkpt lat="45.444619981572032" lon="3.285351991653442">
        <ele>439.45999999999998</ele>
        <time>2025-04-25T06:14:25Z</time>
      </trkpt>
      <trkpt lat="45.444388976320624" lon="3.284826027229428">
        <ele>440.89999999999998</ele>
        <time>2025-04-25T06:14:32Z</time>
      </trkpt>
      <trkpt lat="45.44435796327889" lon="3.284733993932605">
        <ele>440.89999999999998</ele>
        <time>2025-04-25T06:14:33Z</time>
      </trkpt>
      <trkpt lat="45.44433600269258" lon="3.284649001434445">
        <ele>441.38</ele>
        <time>2025-04-25T06:14:34Z</time>
      </trkpt>
      <trkpt lat="45.444213962182403" lon="3.284193025901914">
        <ele>441.86000000000001</ele>
        <time>2025-04-25T06:14:39Z</time>
      </trkpt>
      <trkpt lat="45.444181021302938" lon="3.284095963463187">
        <ele>442.33999999999997</ele>
        <time>2025-04-25T06:14:40Z</time>
      </trkpt>
      <trkpt lat="45.44414103962481" lon="3.283993033692241">
        <ele>442.81999999999999</ele>
        <time>2025-04-25T06:14:41Z</time>
      </trkpt>
      <trkpt lat="45.444083958864212" lon="3.283912986516953">
        <ele>443.31</ele>
        <time>2025-04-25T06:14:42Z</time>
      </trkpt>
      <trkpt lat="45.444029979407787" lon="3.283835034817457">
        <ele>443.79000000000002</ele>
        <time>2025-04-25T06:14:43Z</time>
      </trkpt>
      <trkpt lat="45.443922020494938" lon="3.283679969608784">
        <ele>445.23000000000002</ele>
        <time>2025-04-25T06:14:45Z</time>
      </trkpt>
      <trkpt lat="45.443791011348367" lon="3.283494981005788">
        <ele>446.67000000000002</ele>
        <time>2025-04-25T06:14:48Z</time>
      </trkpt>
      <trkpt lat="45.443757986649871" lon="3.283446030691266">
        <ele>446.67000000000002</ele>
        <time>2025-04-25T06:14:49Z</time>
      </trkpt>
      <trkpt lat="45.443668970838189" lon="3.2833890337497">
        <ele>447.14999999999998</ele>
        <time>2025-04-25T06:14:50Z</time>
      </trkpt>
      <trkpt lat="45.443619014695287" lon="3.283420968800783">
        <ele>447.63</ele>
        <time>2025-04-25T06:14:51Z</time>
      </trkpt>
      <trkpt lat="45.44356101192534" lon="3.283458016812801">
        <ele>448.11000000000001</ele>
        <time>2025-04-25T06:14:52Z</time>
      </trkpt>
      <trkpt lat="45.44349898584187" lon="3.28349799849093">
        <ele>448.58999999999997</ele>
        <time>2025-04-25T06:14:53Z</time>
      </trkpt>
      <trkpt lat="45.442671021446586" lon="3.284029997885227">
        <ele>454.83999999999997</ele>
        <time>2025-04-25T06:15:03Z</time>
      </trkpt>
      <trkpt lat="45.442516040056944" lon="3.284128988161683">
        <ele>456.27999999999997</ele>
        <time>2025-04-25T06:15:05Z</time>
      </trkpt>
      <trkpt lat="45.442460970953107" lon="3.28420601785183">
        <ele>456.75999999999999</ele>
        <time>2025-04-25T06:15:06Z</time>
      </trkpt>
      <trkpt lat="45.442411014810205" lon="3.284287992864847">
        <ele>457.72000000000003</ele>
        <time>2025-04-25T06:15:07Z</time>
      </trkpt>
      <trkpt lat="45.441777007654309" lon="3.28534503467381">
        <ele>463.49000000000001</ele>
        <time>2025-04-25T06:15:20Z</time>
      </trkpt>
      <trkpt lat="45.441601993516088" lon="3.285636976361275">
        <ele>463.97000000000003</ele>
        <time>2025-04-25T06:15:24Z</time>
      </trkpt>
      <trkpt lat="45.441567962989211" lon="3.285693973302841">
        <ele>463.97000000000003</ele>
        <time>2025-04-25T06:15:25Z</time>
      </trkpt>
      <trkpt lat="45.441532004624605" lon="3.285752981901169">
        <ele>463.97000000000003</ele>
        <time>2025-04-25T06:15:26Z</time>
      </trkpt>
      <trkpt lat="45.44149998575449" lon="3.285807967185974">
        <ele>463.97000000000003</ele>
        <time>2025-04-25T06:15:27Z</time>
      </trkpt>
      <trkpt lat="45.44150099158287" lon="3.28590402379632">
        <ele>463.97000000000003</ele>
        <time>2025-04-25T06:15:28Z</time>
      </trkpt>
      <trkpt lat="45.441535022109747" lon="3.285954985767603">
        <ele>463.97000000000003</ele>
        <time>2025-04-25T06:15:29Z</time>
      </trkpt>
      <trkpt lat="45.441576009616256" lon="3.286019023507834">
        <ele>463.97000000000003</ele>
        <time>2025-04-25T06:15:30Z</time>
      </trkpt>
      <trkpt lat="45.441624037921429" lon="3.286093035712838">
        <ele>463.97000000000003</ele>
        <time>2025-04-25T06:15:31Z</time>
      </trkpt>
      <trkpt lat="45.441725039854646" lon="3.286271989345551">
        <ele>463.49000000000001</ele>
        <time>2025-04-25T06:15:33Z</time>
      </trkpt>
      <trkpt lat="45.442071966826916" lon="3.287213025614619">
        <ele>461.56999999999999</ele>
        <time>2025-04-25T06:15:44Z</time>
      </trkpt>
      <trkpt lat="45.442086970433593" lon="3.287253007292748">
        <ele>461.08999999999997</ele>
        <time>2025-04-25T06:15:45Z</time>
      </trkpt>
      <trkpt lat="45.442024022340775" lon="3.287382004782558">
        <ele>461.08999999999997</ele>
        <time>2025-04-25T06:15:46Z</time>
      </trkpt>
      <trkpt lat="45.441996026784182" lon="3.287383010610938">
        <ele>460.61000000000001</ele>
        <time>2025-04-25T06:15:47Z</time>
      </trkpt>
      <trkpt lat="45.44195001013577" lon="3.287384016439319">
        <ele>460.13</ele>
        <time>2025-04-25T06:15:48Z</time>
      </trkpt>
      <trkpt lat="45.441892007365823" lon="3.287385022267699">
        <ele>459.64999999999998</ele>
        <time>2025-04-25T06:15:49Z</time>
      </trkpt>
      <trkpt lat="45.441829981282353" lon="3.28738602809608">
        <ele>459.64999999999998</ele>
        <time>2025-04-25T06:15:50Z</time>
      </trkpt>
      <trkpt lat="45.441185999661684" lon="3.287401031702757">
        <ele>456.27999999999997</ele>
        <time>2025-04-25T06:15:58Z</time>
      </trkpt>
      <trkpt lat="45.441098995506763" lon="3.287433972582221">
        <ele>455.80000000000001</ele>
        <time>2025-04-25T06:15:59Z</time>
      </trkpt>
      <trkpt lat="45.441006040200591" lon="3.287476971745491">
        <ele>455.80000000000001</ele>
        <time>2025-04-25T06:16:00Z</time>
      </trkpt>
      <trkpt lat="45.440905960276723" lon="3.287522988393903">
        <ele>455.80000000000001</ele>
        <time>2025-04-25T06:16:01Z</time>
      </trkpt>
      <trkpt lat="45.440819039940834" lon="3.287614015862346">
        <ele>455.80000000000001</ele>
        <time>2025-04-25T06:16:02Z</time>
      </trkpt>
      <trkpt lat="45.439570974558592" lon="3.288516998291016">
        <ele>460.61000000000001</ele>
        <time>2025-04-25T06:16:14Z</time>
      </trkpt>
      <trkpt lat="45.438865972682834" lon="3.2889149710536">
        <ele>459.64999999999998</ele>
        <time>2025-04-25T06:16:19Z</time>
      </trkpt>
      <trkpt lat="45.438697999343276" lon="3.288949001580477">
        <ele>459.64999999999998</ele>
        <time>2025-04-25T06:16:20Z</time>
      </trkpt>
      <trkpt lat="45.438531031832099" lon="3.288984037935734">
        <ele>459.17000000000002</ele>
        <time>2025-04-25T06:16:21Z</time>
      </trkpt>
      <trkpt lat="45.438361968845129" lon="3.288994012400508">
        <ele>458.69</ele>
        <time>2025-04-25T06:16:22Z</time>
      </trkpt>
      <trkpt lat="45.438206987455487" lon="3.288928968831897">
        <ele>458.20999999999998</ele>
        <time>2025-04-25T06:16:23Z</time>
      </trkpt>
      <trkpt lat="45.438045971095562" lon="3.288861997425556">
        <ele>458.20999999999998</ele>
        <time>2025-04-25T06:16:24Z</time>
      </trkpt>
      <trkpt lat="45.437883026897907" lon="3.288792008534074">
        <ele>458.20999999999998</ele>
        <time>2025-04-25T06:16:25Z</time>
      </trkpt>
      <trkpt lat="45.437736008316278" lon="3.288674997165799">
        <ele>458.20999999999998</ele>
        <time>2025-04-25T06:16:26Z</time>
      </trkpt>
      <trkpt lat="45.43685800395906" lon="3.288009976968169">
        <ele>458.20999999999998</ele>
        <time>2025-04-25T06:16:32Z</time>
      </trkpt>
      <trkpt lat="45.43670604005456" lon="3.287949962541461">
        <ele>458.20999999999998</ele>
        <time>2025-04-25T06:16:33Z</time>
      </trkpt>
      <trkpt lat="45.436544017866254" lon="3.287929007783532">
        <ele>457.72000000000003</ele>
        <time>2025-04-25T06:16:34Z</time>
      </trkpt>
      <trkpt lat="45.436380989849567" lon="3.287906963378191">
        <ele>457.72000000000003</ele>
        <time>2025-04-25T06:16:35Z</time>
      </trkpt>
      <trkpt lat="45.436220979318023" lon="3.287886008620262">
        <ele>457.24000000000001</ele>
        <time>2025-04-25T06:16:36Z</time>
      </trkpt>
      <trkpt lat="45.434991018846631" lon="3.288045013323426">
        <ele>455.80000000000001</ele>
        <time>2025-04-25T06:16:44Z</time>
      </trkpt>
      <trkpt lat="45.434834025800228" lon="3.288045013323426">
        <ele>455.80000000000001</ele>
        <time>2025-04-25T06:16:45Z</time>
      </trkpt>
      <trkpt lat="45.434677032753825" lon="3.288020035251975">
        <ele>455.80000000000001</ele>
        <time>2025-04-25T06:16:46Z</time>
      </trkpt>
      <trkpt lat="45.434520961716771" lon="3.287980975583196">
        <ele>455.31999999999999</ele>
        <time>2025-04-25T06:16:47Z</time>
      </trkpt>
      <trkpt lat="45.434371009469032" lon="3.287930013611913">
        <ele>455.31999999999999</ele>
        <time>2025-04-25T06:16:48Z</time>
      </trkpt>
      <trkpt lat="45.434226002544165" lon="3.28786002472043">
        <ele>454.83999999999997</ele>
        <time>2025-04-25T06:16:49Z</time>
      </trkpt>
      <trkpt lat="45.433324025943875" lon="3.287546038627625">
        <ele>453.88</ele>
        <time>2025-04-25T06:16:55Z</time>
      </trkpt>
      <trkpt lat="45.432118959724903" lon="3.287325007840991">
        <ele>452.44</ele>
        <time>2025-04-25T06:17:03Z</time>
      </trkpt>
      <trkpt lat="45.431023025885224" lon="3.287240015342832">
        <ele>451.95999999999998</ele>
        <time>2025-04-25T06:17:10Z</time>
      </trkpt>
      <trkpt lat="45.430057011544704" lon="3.28704496845603">
        <ele>453.39999999999998</ele>
        <time>2025-04-25T06:17:16Z</time>
      </trkpt>
      <trkpt lat="45.428940961137414" lon="3.286301996558905">
        <ele>454.36000000000001</ele>
        <time>2025-04-25T06:17:24Z</time>
      </trkpt>
      <trkpt lat="45.428799977526069" lon="3.286264026537538">
        <ele>454.36000000000001</ele>
        <time>2025-04-25T06:17:25Z</time>
      </trkpt>
      <trkpt lat="45.428666034713387" lon="3.2862279843539">
        <ele>453.88</ele>
        <time>2025-04-25T06:17:26Z</time>
      </trkpt>
      <trkpt lat="45.428532008081675" lon="3.286256985738874">
        <ele>453.88</ele>
        <time>2025-04-25T06:17:27Z</time>
      </trkpt>
      <trkpt lat="45.4283959697932" lon="3.286320017650724">
        <ele>453.88</ele>
        <time>2025-04-25T06:17:28Z</time>
      </trkpt>
      <trkpt lat="45.428259009495378" lon="3.286416996270418">
        <ele>453.88</ele>
        <time>2025-04-25T06:17:29Z</time>
      </trkpt>
      <trkpt lat="45.428117020055652" lon="3.286516992375255">
        <ele>453.88</ele>
        <time>2025-04-25T06:17:30Z</time>
      </trkpt>
      <trkpt lat="45.426899967715144" lon="3.287100959569216">
        <ele>453.88</ele>
        <time>2025-04-25T06:17:38Z</time>
      </trkpt>
      <trkpt lat="45.425243033096194" lon="3.287272034212947">
        <ele>451.95999999999998</ele>
        <time>2025-04-25T06:17:48Z</time>
      </trkpt>
      <trkpt lat="45.425091991201043" lon="3.287207996472716">
        <ele>451.95999999999998</ele>
        <time>2025-04-25T06:17:49Z</time>
      </trkpt>
      <trkpt lat="45.423589032143354" lon="3.286564014852047">
        <ele>451</ele>
        <time>2025-04-25T06:18:00Z</time>
      </trkpt>
      <trkpt lat="45.423450982198119" lon="3.286542976275086">
        <ele>450.51999999999998</ele>
        <time>2025-04-25T06:18:01Z</time>
      </trkpt>
      <trkpt lat="45.423308992758393" lon="3.286542976275086">
        <ele>450.02999999999997</ele>
        <time>2025-04-25T06:18:02Z</time>
      </trkpt>
      <trkpt lat="45.422542970627546" lon="3.286659987643361">
        <ele>448.58999999999997</ele>
        <time>2025-04-25T06:18:09Z</time>
      </trkpt>
      <trkpt lat="45.422415984794497" lon="3.286693012341857">
        <ele>448.11000000000001</ele>
        <time>2025-04-25T06:18:12Z</time>
      </trkpt>
      <trkpt lat="45.42235697619617" lon="3.286723019555211">
        <ele>448.11000000000001</ele>
        <time>2025-04-25T06:18:13Z</time>
      </trkpt>
      <trkpt lat="45.422287993133068" lon="3.286756966263056">
        <ele>448.11000000000001</ele>
        <time>2025-04-25T06:18:14Z</time>
      </trkpt>
      <trkpt lat="45.422219010069966" lon="3.286822009831667">
        <ele>448.11000000000001</ele>
        <time>2025-04-25T06:18:15Z</time>
      </trkpt>
      <trkpt lat="45.422151032835245" lon="3.286932986229658">
        <ele>448.11000000000001</ele>
        <time>2025-04-25T06:18:16Z</time>
      </trkpt>
      <trkpt lat="45.422080038115382" lon="3.287052009254694">
        <ele>448.11000000000001</ele>
        <time>2025-04-25T06:18:17Z</time>
      </trkpt>
      <trkpt lat="45.421365983784199" lon="3.288029003888369">
        <ele>446.67000000000002</ele>
        <time>2025-04-25T06:18:24Z</time>
      </trkpt>
      <trkpt lat="45.420735999941826" lon="3.288448015227914">
        <ele>444.26999999999998</ele>
        <time>2025-04-25T06:18:28Z</time>
      </trkpt>
      <trkpt lat="45.418802965432405" lon="3.289013039320707">
        <ele>433.20999999999998</ele>
        <time>2025-04-25T06:18:38Z</time>
      </trkpt>
      <trkpt lat="45.418040966615081" lon="3.289309004321694">
        <ele>427.92000000000002</ele>
        <time>2025-04-25T06:18:42Z</time>
      </trkpt>
      <trkpt lat="45.417860001325607" lon="3.289421992376447">
        <ele>426.95999999999998</ele>
        <time>2025-04-25T06:18:43Z</time>
      </trkpt>
      <trkpt lat="45.417527994140983" lon="3.289700020104647">
        <ele>424.56</ele>
        <time>2025-04-25T06:18:45Z</time>
      </trkpt>
      <trkpt lat="45.41737100109458" lon="3.289863970130682">
        <ele>423.60000000000002</ele>
        <time>2025-04-25T06:18:46Z</time>
      </trkpt>
      <trkpt lat="45.417216019704938" lon="3.290025992318988">
        <ele>422.16000000000003</ele>
        <time>2025-04-25T06:18:47Z</time>
      </trkpt>
      <trkpt lat="45.417084004729986" lon="3.29022497870028">
        <ele>421.68000000000001</ele>
        <time>2025-04-25T06:18:48Z</time>
      </trkpt>
      <trkpt lat="45.416951989755034" lon="3.290428994223476">
        <ele>420.70999999999998</ele>
        <time>2025-04-25T06:18:49Z</time>
      </trkpt>
      <trkpt lat="45.416820980608463" lon="3.290634015575051">
        <ele>420.23000000000002</ele>
        <time>2025-04-25T06:18:50Z</time>
      </trkpt>
      <trkpt lat="45.416731964796782" lon="3.290881030261517">
        <ele>419.75</ele>
        <time>2025-04-25T06:18:51Z</time>
      </trkpt>
      <trkpt lat="45.416644960641861" lon="3.291130978614092">
        <ele>419.75</ele>
        <time>2025-04-25T06:18:52Z</time>
      </trkpt>
      <trkpt lat="45.416558040305972" lon="3.291381010785699">
        <ele>419.26999999999998</ele>
        <time>2025-04-25T06:18:53Z</time>
      </trkpt>
      <trkpt lat="45.416480004787445" lon="3.291635988280177">
        <ele>418.79000000000002</ele>
        <time>2025-04-25T06:18:54Z</time>
      </trkpt>
      <trkpt lat="45.415959991514683" lon="3.294342001900077">
        <ele>415.91000000000003</ele>
        <time>2025-04-25T06:19:04Z</time>
      </trkpt>
      <trkpt lat="45.415705014020205" lon="3.295887038111687">
        <ele>415.43000000000001</ele>
        <time>2025-04-25T06:19:10Z</time>
      </trkpt>
      <trkpt lat="45.415711970999837" lon="3.296143021434546">
        <ele>415.91000000000003</ele>
        <time>2025-04-25T06:19:11Z</time>
      </trkpt>
      <trkpt lat="45.415719011798501" lon="3.296415014192462">
        <ele>416.38999999999999</ele>
        <time>2025-04-25T06:19:12Z</time>
      </trkpt>
      <trkpt lat="45.416052024811506" lon="3.299503996968269">
        <ele>419.26999999999998</ele>
        <time>2025-04-25T06:19:23Z</time>
      </trkpt>
      <trkpt lat="45.416270960122347" lon="3.300897991284728">
        <ele>424.07999999999998</ele>
        <time>2025-04-25T06:19:30Z</time>
      </trkpt>
      <trkpt lat="45.416299039497972" lon="3.301024977117777">
        <ele>425.04000000000002</ele>
        <time>2025-04-25T06:19:31Z</time>
      </trkpt>
      <trkpt lat="45.416240030899644" lon="3.30122597515583">
        <ele>425.51999999999998</ele>
        <time>2025-04-25T06:19:32Z</time>
      </trkpt>
      <trkpt lat="45.41616995818913" lon="3.301304010674357">
        <ele>426.48000000000002</ele>
        <time>2025-04-25T06:19:33Z</time>
      </trkpt>
      <trkpt lat="45.416091000661254" lon="3.301391014829278">
        <ele>427.44</ele>
        <time>2025-04-25T06:19:34Z</time>
      </trkpt>
      <trkpt lat="45.416005002334714" lon="3.301485981792212">
        <ele>428.39999999999998</ele>
        <time>2025-04-25T06:19:35Z</time>
      </trkpt>
      <trkpt lat="45.415399996563792" lon="3.302698004990816">
        <ele>436.57999999999998</ele>
        <time>2025-04-25T06:19:43Z</time>
      </trkpt>
      <trkpt lat="45.414584018290043" lon="3.304846035316587">
        <ele>443.79000000000002</ele>
        <time>2025-04-25T06:19:53Z</time>
      </trkpt>
      <trkpt lat="45.414348989725113" lon="3.305295975878835">
        <ele>444.75</ele>
        <time>2025-04-25T06:19:55Z</time>
      </trkpt>
      <trkpt lat="45.414213035255671" lon="3.305486999452114">
        <ele>445.70999999999998</ele>
        <time>2025-04-25T06:19:56Z</time>
      </trkpt>
      <trkpt lat="45.4140629991889" lon="3.305654972791672">
        <ele>446.67000000000002</ele>
        <time>2025-04-25T06:19:57Z</time>
      </trkpt>
      <trkpt lat="45.413895025849342" lon="3.30577801913023">
        <ele>447.63</ele>
        <time>2025-04-25T06:19:58Z</time>
      </trkpt>
      <trkpt lat="45.413726968690753" lon="3.305900981649756">
        <ele>448.58999999999997</ele>
        <time>2025-04-25T06:19:59Z</time>
      </trkpt>
      <trkpt lat="45.4126469604671" lon="3.306585028767586">
        <ele>453.88</ele>
        <time>2025-04-25T06:20:05Z</time>
      </trkpt>
      <trkpt lat="45.412443028762937" lon="3.30661604180932">
        <ele>454.83999999999997</ele>
        <time>2025-04-25T06:20:06Z</time>
      </trkpt>
      <trkpt lat="45.41223700158298" lon="3.306647976860404">
        <ele>455.80000000000001</ele>
        <time>2025-04-25T06:20:07Z</time>
      </trkpt>
      <trkpt lat="45.410746028646827" lon="3.306740010157228">
        <ele>463.00999999999999</ele>
        <time>2025-04-25T06:20:15Z</time>
      </trkpt>
      <trkpt lat="45.410591969266534" lon="3.306786026805639">
        <ele>464.44999999999999</ele>
        <time>2025-04-25T06:20:16Z</time>
      </trkpt>
      <trkpt lat="45.410443022847176" lon="3.306855009868741">
        <ele>465.42000000000002</ele>
        <time>2025-04-25T06:20:17Z</time>
      </trkpt>
      <trkpt lat="45.410308996215463" lon="3.306966992095113">
        <ele>466.38</ele>
        <time>2025-04-25T06:20:18Z</time>
      </trkpt>
      <trkpt lat="45.410188967362046" lon="3.307108981534839">
        <ele>467.81999999999999</ele>
        <time>2025-04-25T06:20:19Z</time>
      </trkpt>
      <trkpt lat="45.410095006227493" lon="3.307293970137835">
        <ele>469.25999999999999</ele>
        <time>2025-04-25T06:20:20Z</time>
      </trkpt>
      <trkpt lat="45.410018982365727" lon="3.30749899148941">
        <ele>470.22000000000003</ele>
        <time>2025-04-25T06:20:21Z</time>
      </trkpt>
      <trkpt lat="45.409942958503962" lon="3.307703007012606">
        <ele>471.18000000000001</ele>
        <time>2025-04-25T06:20:22Z</time>
      </trkpt>
      <trkpt lat="45.409699967131019" lon="3.308306001126766">
        <ele>474.06999999999999</ele>
        <time>2025-04-25T06:20:25Z</time>
      </trkpt>
      <trkpt lat="45.409617992118001" lon="3.308470034971833">
        <ele>475.02999999999997</ele>
        <time>2025-04-25T06:20:26Z</time>
      </trkpt>
      <trkpt lat="45.409434009343386" lon="3.308854009956121">
        <ele>477.43000000000001</ele>
        <time>2025-04-25T06:20:29Z</time>
      </trkpt>
      <trkpt lat="45.409387992694974" lon="3.308963980525732">
        <ele>477.91000000000003</ele>
        <time>2025-04-25T06:20:30Z</time>
      </trkpt>
      <trkpt lat="45.409366032108665" lon="3.309095995500684">
        <ele>478.38999999999999</ele>
        <time>2025-04-25T06:20:31Z</time>
      </trkpt>
      <trkpt lat="45.409343987703323" lon="3.309229016304016">
        <ele>478.38999999999999</ele>
        <time>2025-04-25T06:20:32Z</time>
      </trkpt>
      <trkpt lat="45.409325966611505" lon="3.309361031278968">
        <ele>478.38999999999999</ele>
        <time>2025-04-25T06:20:33Z</time>
      </trkpt>
      <trkpt lat="45.409320015460253" lon="3.309506038203836">
        <ele>477.91000000000003</ele>
        <time>2025-04-25T06:20:34Z</time>
      </trkpt>
      <trkpt lat="45.409235022962093" lon="3.311249976977706">
        <ele>472.63</ele>
        <time>2025-04-25T06:20:46Z</time>
      </trkpt>
      <trkpt lat="45.409136032685637" lon="3.311691032722592">
        <ele>470.69999999999999</ele>
        <time>2025-04-25T06:20:49Z</time>
      </trkpt>
      <trkpt lat="45.409075012430549" lon="3.311965959146619">
        <ele>469.74000000000001</ele>
        <time>2025-04-25T06:20:51Z</time>
      </trkpt>
      <trkpt lat="45.409045005217195" lon="3.312100991606712">
        <ele>469.25999999999999</ele>
        <time>2025-04-25T06:20:52Z</time>
      </trkpt>
      <trkpt lat="45.408897986635566" lon="3.312593009322882">
        <ele>467.33999999999997</ele>
        <time>2025-04-25T06:20:56Z</time>
      </trkpt>
      <trkpt lat="45.408816011622548" lon="3.312742039561272">
        <ele>466.38</ele>
        <time>2025-04-25T06:20:57Z</time>
      </trkpt>
      <trkpt lat="45.408751973882318" lon="3.312858967110515">
        <ele>465.89999999999998</ele>
        <time>2025-04-25T06:20:58Z</time>
      </trkpt>
      <trkpt lat="45.408614007756114" lon="3.313068011775613">
        <ele>464.93000000000001</ele>
        <time>2025-04-25T06:21:00Z</time>
      </trkpt>
      <trkpt lat="45.408532032743096" lon="3.313145963475108">
        <ele>464.44999999999999</ele>
        <time>2025-04-25T06:21:01Z</time>
      </trkpt>
      <trkpt lat="45.408449973911047" lon="3.313225004822016">
        <ele>463.97000000000003</ele>
        <time>2025-04-25T06:21:02Z</time>
      </trkpt>
      <trkpt lat="45.408367998898029" lon="3.313303040340543">
        <ele>463.49000000000001</ele>
        <time>2025-04-25T06:21:03Z</time>
      </trkpt>
      <trkpt lat="45.408289963379502" lon="3.313376968726516">
        <ele>463.00999999999999</ele>
        <time>2025-04-25T06:21:04Z</time>
      </trkpt>
      <trkpt lat="45.408211005851626" lon="3.313452992588282">
        <ele>462.52999999999997</ele>
        <time>2025-04-25T06:21:05Z</time>
      </trkpt>
      <trkpt lat="45.408126013353467" lon="3.313519963994622">
        <ele>462.05000000000001</ele>
        <time>2025-04-25T06:21:06Z</time>
      </trkpt>
      <trkpt lat="45.408035991713405" lon="3.313576960936189">
        <ele>461.56999999999999</ele>
        <time>2025-04-25T06:21:07Z</time>
      </trkpt>
      <trkpt lat="45.407385975122452" lon="3.314180038869381">
        <ele>458.20999999999998</ele>
        <time>2025-04-25T06:21:15Z</time>
      </trkpt>
      <trkpt lat="45.407245997339487" lon="3.3143309969455">
        <ele>457.72000000000003</ele>
        <time>2025-04-25T06:21:17Z</time>
      </trkpt>
      <trkpt lat="45.407200986519456" lon="3.314390005543828">
        <ele>456.75999999999999</ele>
        <time>2025-04-25T06:21:18Z</time>
      </trkpt>
      <trkpt lat="45.407159999012947" lon="3.314443985000253">
        <ele>456.27999999999997</ele>
        <time>2025-04-25T06:21:19Z</time>
      </trkpt>
      <trkpt lat="45.407031001523137" lon="3.314395034685731">
        <ele>455.80000000000001</ele>
        <time>2025-04-25T06:21:20Z</time>
      </trkpt>
      <trkpt lat="45.407031001523137" lon="3.314395034685731">
        <ele>455.31999999999999</ele>
        <time>2025-04-25T06:21:21Z</time>
      </trkpt>
      <trkpt lat="45.406963024288416" lon="3.314380031079054">
        <ele>454.83999999999997</ele>
        <time>2025-04-25T06:21:22Z</time>
      </trkpt>
      <trkpt lat="45.406675022095442" lon="3.3143309969455">
        <ele>452.92000000000002</ele>
        <time>2025-04-25T06:21:26Z</time>
      </trkpt>
      <trkpt lat="45.405873963609338" lon="3.314301995560527">
        <ele>449.55000000000001</ele>
        <time>2025-04-25T06:21:37Z</time>
      </trkpt>
      <trkpt lat="45.405826019123197" lon="3.31426796503365">
        <ele>449.55000000000001</ele>
        <time>2025-04-25T06:21:38Z</time>
      </trkpt>
      <trkpt lat="45.405782014131546" lon="3.314237035810947">
        <ele>449.55000000000001</ele>
        <time>2025-04-25T06:21:39Z</time>
      </trkpt>
      <trkpt lat="45.405703978613019" lon="3.31415900029242">
        <ele>449.06999999999999</ele>
        <time>2025-04-25T06:21:41Z</time>
      </trkpt>
      <trkpt lat="45.405714036896825" lon="3.31409303471446">
        <ele>448.58999999999997</ele>
        <time>2025-04-25T06:21:42Z</time>
      </trkpt>
      <trkpt lat="45.40572602301836" lon="3.314011981710792">
        <ele>448.58999999999997</ele>
        <time>2025-04-25T06:21:43Z</time>
      </trkpt>
      <trkpt lat="45.405739014968276" lon="3.313919026404619">
        <ele>449.06999999999999</ele>
        <time>2025-04-25T06:21:44Z</time>
      </trkpt>
      <trkpt lat="45.405755024403334" lon="3.31381500698626">
        <ele>449.06999999999999</ele>
        <time>2025-04-25T06:21:45Z</time>
      </trkpt>
      <trkpt lat="45.405780002474785" lon="3.313479982316494">
        <ele>449.55000000000001</ele>
        <time>2025-04-25T06:21:48Z</time>
      </trkpt>
      <trkpt lat="45.40576801635325" lon="3.313264986500144">
        <ele>449.55000000000001</ele>
        <time>2025-04-25T06:21:50Z</time>
      </trkpt>
      <trkpt lat="45.405738009139895" lon="3.313160967081785">
        <ele>449.55000000000001</ele>
        <time>2025-04-25T06:21:51Z</time>
      </trkpt>
      <trkpt lat="45.405703978613019" lon="3.313091984018683">
        <ele>450.02999999999997</ele>
        <time>2025-04-25T06:21:52Z</time>
      </trkpt>
      <trkpt lat="45.405667014420033" lon="3.313074968755245">
        <ele>449.55000000000001</ele>
        <time>2025-04-25T06:21:53Z</time>
      </trkpt>
      <trkpt lat="45.405667014420033" lon="3.313074968755245">
        <ele>450.02999999999997</ele>
        <time>2025-04-25T06:21:54Z</time>
      </trkpt>
      <trkpt lat="45.405561989173293" lon="3.31304001621902">
        <ele>449.55000000000001</ele>
        <time>2025-04-25T06:22:01Z</time>
      </trkpt>
      <trkpt lat="45.405388986691833" lon="3.312986958771944">
        <ele>448.11000000000001</ele>
        <time>2025-04-25T06:22:06Z</time>
      </trkpt>
      <trkpt lat="45.405337018892169" lon="3.312973966822028">
        <ele>447.63</ele>
        <time>2025-04-25T06:22:07Z</time>
      </trkpt>
      <trkpt lat="45.405272981151938" lon="3.312958041206002">
        <ele>447.14999999999998</ele>
        <time>2025-04-25T06:22:08Z</time>
      </trkpt>
      <trkpt lat="45.405199974775314" lon="3.312940020114183">
        <ele>446.67000000000002</ele>
        <time>2025-04-25T06:22:09Z</time>
      </trkpt>
      <trkpt lat="45.405122023075819" lon="3.312919987365603">
        <ele>446.67000000000002</ele>
        <time>2025-04-25T06:22:10Z</time>
      </trkpt>
      <trkpt lat="45.405053040012717" lon="3.312873970717192">
        <ele>446.19</ele>
        <time>2025-04-25T06:22:11Z</time>
      </trkpt>
      <trkpt lat="45.404982967302203" lon="3.312814040109515">
        <ele>445.70999999999998</ele>
        <time>2025-04-25T06:22:12Z</time>
      </trkpt>
      <trkpt lat="45.404921025037766" lon="3.312728041782975">
        <ele>445.23000000000002</ele>
        <time>2025-04-25T06:22:13Z</time>
      </trkpt>
      <trkpt lat="45.40486603975296" lon="3.312617987394333">
        <ele>444.75</ele>
        <time>2025-04-25T06:22:14Z</time>
      </trkpt>
      <trkpt lat="45.404810970649123" lon="3.312509022653103">
        <ele>444.75</ele>
        <time>2025-04-25T06:22:15Z</time>
      </trkpt>
      <trkpt lat="45.404660012573004" lon="3.312136027961969">
        <ele>444.26999999999998</ele>
        <time>2025-04-25T06:22:18Z</time>
      </trkpt>
      <trkpt lat="45.404165983200073" lon="3.310584034770727">
        <ele>444.26999999999998</ele>
        <time>2025-04-25T06:22:29Z</time>
      </trkpt>
      <trkpt lat="45.403490988537669" lon="3.308859961107373">
        <ele>450.51999999999998</ele>
        <time>2025-04-25T06:22:40Z</time>
      </trkpt>
      <trkpt lat="45.403146995231509" lon="3.307722033932805">
        <ele>455.31999999999999</ele>
        <time>2025-04-25T06:22:48Z</time>
      </trkpt>
      <trkpt lat="45.403146995231509" lon="3.307679034769535">
        <ele>455.80000000000001</ele>
        <time>2025-04-25T06:22:49Z</time>
      </trkpt>
      <trkpt lat="45.403068959712982" lon="3.307607034221292">
        <ele>456.27999999999997</ele>
        <time>2025-04-25T06:22:50Z</time>
      </trkpt>
      <trkpt lat="45.403013974428177" lon="3.307595970109105">
        <ele>456.75999999999999</ele>
        <time>2025-04-25T06:22:51Z</time>
      </trkpt>
      <trkpt lat="45.40293300524354" lon="3.307679034769535">
        <ele>456.75999999999999</ele>
        <time>2025-04-25T06:22:52Z</time>
      </trkpt>
      <trkpt lat="45.40291297249496" lon="3.307809038087726">
        <ele>457.24000000000001</ele>
        <time>2025-04-25T06:22:53Z</time>
      </trkpt>
      <trkpt lat="45.402859998866916" lon="3.307870980352163">
        <ele>457.24000000000001</ele>
        <time>2025-04-25T06:22:54Z</time>
      </trkpt>
      <trkpt lat="45.40280400775373" lon="3.307936023920775">
        <ele>457.24000000000001</ele>
        <time>2025-04-25T06:22:55Z</time>
      </trkpt>
      <trkpt lat="45.402728989720345" lon="3.307936023920775">
        <ele>457.24000000000001</ele>
        <time>2025-04-25T06:22:56Z</time>
      </trkpt>
      <trkpt lat="45.402651960030198" lon="3.307936023920775">
        <ele>457.72000000000003</ele>
        <time>2025-04-25T06:22:57Z</time>
      </trkpt>
      <trkpt lat="45.402576019987464" lon="3.307936023920775">
        <ele>458.20999999999998</ele>
        <time>2025-04-25T06:22:58Z</time>
      </trkpt>
      <trkpt lat="45.402523968368769" lon="3.307980028912425">
        <ele>458.20999999999998</ele>
        <time>2025-04-25T06:22:59Z</time>
      </trkpt>
      <trkpt lat="45.402438975870609" lon="3.308065021410584">
        <ele>458.69</ele>
        <time>2025-04-25T06:23:00Z</time>
      </trkpt>
      <trkpt lat="45.402421038597822" lon="3.308117995038629">
        <ele>459.17000000000002</ele>
        <time>2025-04-25T06:23:01Z</time>
      </trkpt>
      <trkpt lat="45.402381978929043" lon="3.30822897143662">
        <ele>459.17000000000002</ele>
        <time>2025-04-25T06:23:02Z</time>
      </trkpt>
      <trkpt lat="45.402120966464281" lon="3.30898099578917">
        <ele>462.05000000000001</ele>
        <time>2025-04-25T06:23:09Z</time>
      </trkpt>
      <trkpt lat="45.402094982564449" lon="3.309054002165794">
        <ele>462.52999999999997</ele>
        <time>2025-04-25T06:23:10Z</time>
      </trkpt>
      <trkpt lat="45.402023987844586" lon="3.309032041579485">
        <ele>463.00999999999999</ele>
        <time>2025-04-25T06:23:11Z</time>
      </trkpt>
      <trkpt lat="45.401975959539413" lon="3.309019971638918">
        <ele>463.49000000000001</ele>
        <time>2025-04-25T06:23:12Z</time>
      </trkpt>
      <trkpt lat="45.401922985911369" lon="3.309004968032241">
        <ele>463.49000000000001</ele>
        <time>2025-04-25T06:23:13Z</time>
      </trkpt>
      <trkpt lat="45.40185903199017" lon="3.308986024931073">
        <ele>463.49000000000001</ele>
        <time>2025-04-25T06:23:14Z</time>
      </trkpt>
      <trkpt lat="45.401808992028236" lon="3.308912012726069">
        <ele>463.97000000000003</ele>
        <time>2025-04-25T06:23:15Z</time>
      </trkpt>
      <trkpt lat="45.401239022612572" lon="3.308246992528439">
        <ele>465.42000000000002</ele>
        <time>2025-04-25T06:23:23Z</time>
      </trkpt>
      <trkpt lat="45.40112997405231" lon="3.308128975331783">
        <ele>465.89999999999998</ele>
        <time>2025-04-25T06:23:24Z</time>
      </trkpt>
      <trkpt lat="45.401052022352815" lon="3.308093016967177">
        <ele>465.89999999999998</ele>
        <time>2025-04-25T06:23:25Z</time>
      </trkpt>
      <trkpt lat="45.400945991277695" lon="3.308043982833624">
        <ele>465.89999999999998</ele>
        <time>2025-04-25T06:23:26Z</time>
      </trkpt>
      <trkpt lat="45.400836020708084" lon="3.307996960356832">
        <ele>465.89999999999998</ele>
        <time>2025-04-25T06:23:27Z</time>
      </trkpt>
      <trkpt lat="45.400719009339809" lon="3.307967036962509">
        <ele>465.89999999999998</ele>
        <time>2025-04-25T06:23:28Z</time>
      </trkpt>
      <trkpt lat="45.400105034932494" lon="3.307753968983889">
        <ele>466.38</ele>
        <time>2025-04-25T06:23:33Z</time>
      </trkpt>
      <trkpt lat="45.400008978322148" lon="3.307665959000588">
        <ele>466.38</ele>
        <time>2025-04-25T06:23:34Z</time>
      </trkpt>
      <trkpt lat="45.399906970560551" lon="3.307570992037654">
        <ele>466.86000000000001</ele>
        <time>2025-04-25T06:23:35Z</time>
      </trkpt>
      <trkpt lat="45.398903992027044" lon="3.306284034624696">
        <ele>474.06999999999999</ele>
        <time>2025-04-25T06:23:46Z</time>
      </trkpt>
      <trkpt lat="45.398623030632734" lon="3.305923026055098">
        <ele>476.94999999999999</ele>
        <time>2025-04-25T06:23:49Z</time>
      </trkpt>
      <trkpt lat="45.398498978465796" lon="3.305852031335235">
        <ele>477.91000000000003</ele>
        <time>2025-04-25T06:23:50Z</time>
      </trkpt>
      <trkpt lat="45.398370986804366" lon="3.305781958624721">
        <ele>478.38999999999999</ele>
        <time>2025-04-25T06:23:51Z</time>
      </trkpt>
      <trkpt lat="45.397738991305232" lon="3.30547702498734">
        <ele>481.27999999999997</ele>
        <time>2025-04-25T06:23:56Z</time>
      </trkpt>
      <trkpt lat="45.397619968280196" lon="3.305493034422398">
        <ele>480.80000000000001</ele>
        <time>2025-04-25T06:23:57Z</time>
      </trkpt>
      <trkpt lat="45.397482002153993" lon="3.305511977523565">
        <ele>480.31999999999999</ele>
        <time>2025-04-25T06:23:58Z</time>
      </trkpt>
      <trkpt lat="45.396623024716973" lon="3.305840967223048">
        <ele>475.50999999999999</ele>
        <time>2025-04-25T06:24:04Z</time>
      </trkpt>
      <trkpt lat="45.396451028063893" lon="3.305839039385319">
        <ele>474.55000000000001</ele>
        <time>2025-04-25T06:24:05Z</time>
      </trkpt>
      <trkpt lat="45.396280037239194" lon="3.305812971666455">
        <ele>473.58999999999997</ele>
        <time>2025-04-25T06:24:06Z</time>
      </trkpt>
      <trkpt lat="45.394842959940434" lon="3.305596970021725">
        <ele>463.97000000000003</ele>
        <time>2025-04-25T06:24:15Z</time>
      </trkpt>
      <trkpt lat="45.394681021571159" lon="3.305632006376982">
        <ele>463.49000000000001</ele>
        <time>2025-04-25T06:24:16Z</time>
      </trkpt>
      <trkpt lat="45.394531991332769" lon="3.305664025247097">
        <ele>463.00999999999999</ele>
        <time>2025-04-25T06:24:17Z</time>
      </trkpt>
      <trkpt lat="45.392269967123866" lon="3.306256961077452">
        <ele>461.56999999999999</ele>
        <time>2025-04-25T06:24:31Z</time>
      </trkpt>
      <trkpt lat="45.391794964671135" lon="3.306322004646063">
        <ele>461.56999999999999</ele>
        <time>2025-04-25T06:24:34Z</time>
      </trkpt>
      <trkpt lat="45.39165498688817" lon="3.30629400908947">
        <ele>461.56999999999999</ele>
        <time>2025-04-25T06:24:35Z</time>
      </trkpt>
      <trkpt lat="45.391528001055121" lon="3.306218991056085">
        <ele>461.56999999999999</ele>
        <time>2025-04-25T06:24:36Z</time>
      </trkpt>
      <trkpt lat="45.389915993437171" lon="3.305267980322242">
        <ele>464.44999999999999</ele>
        <time>2025-04-25T06:24:47Z</time>
      </trkpt>
      <trkpt lat="45.388960959389806" lon="3.304701028391719">
        <ele>464.93000000000001</ele>
        <time>2025-04-25T06:24:55Z</time>
      </trkpt>
      <trkpt lat="45.388471959158778" lon="3.304280005395412">
        <ele>464.44999999999999</ele>
        <time>2025-04-25T06:25:03Z</time>
      </trkpt>
      <trkpt lat="45.388416973873973" lon="3.30423298291862">
        <ele>463.97000000000003</ele>
        <time>2025-04-25T06:25:05Z</time>
      </trkpt>
      <trkpt lat="45.388348996639252" lon="3.304215967655182">
        <ele>463.97000000000003</ele>
        <time>2025-04-25T06:25:06Z</time>
      </trkpt>
      <trkpt lat="45.387695962563157" lon="3.303898964077234">
        <ele>463.49000000000001</ele>
        <time>2025-04-25T06:25:13Z</time>
      </trkpt>
      <trkpt lat="45.386534985154867" lon="3.303053984418511">
        <ele>464.44999999999999</ele>
        <time>2025-04-25T06:25:24Z</time>
      </trkpt>
      <trkpt lat="45.384856006130576" lon="3.301818994805217">
        <ele>467.33999999999997</ele>
        <time>2025-04-25T06:25:40Z</time>
      </trkpt>
      <trkpt lat="45.383847998455167" lon="3.301555970683694">
        <ele>468.30000000000001</ele>
        <time>2025-04-25T06:25:48Z</time>
      </trkpt>
      <trkpt lat="45.382256023585796" lon="3.301528980955482">
        <ele>468.77999999999997</ele>
        <time>2025-04-25T06:25:58Z</time>
      </trkpt>
      <trkpt lat="45.381194958463311" lon="3.301017014309764">
        <ele>470.22000000000003</ele>
        <time>2025-04-25T06:26:05Z</time>
      </trkpt>
      <trkpt lat="45.378951039165258" lon="3.299468038603663">
        <ele>470.22000000000003</ele>
        <time>2025-04-25T06:26:20Z</time>
      </trkpt>
      <trkpt lat="45.377543969079852" lon="3.298240005970001">
        <ele>472.63</ele>
        <time>2025-04-25T06:26:30Z</time>
      </trkpt>
      <trkpt lat="45.376008991152048" lon="3.297780007123947">
        <ele>474.55000000000001</ele>
        <time>2025-04-25T06:26:39Z</time>
      </trkpt>
      <trkpt lat="45.374364964663982" lon="3.29774396494031">
        <ele>473.58999999999997</ele>
        <time>2025-04-25T06:26:49Z</time>
      </trkpt>
      <trkpt lat="45.372722027823329" lon="3.298583999276161">
        <ele>470.22000000000003</ele>
        <time>2025-04-25T06:26:59Z</time>
      </trkpt>
      <trkpt lat="45.372105035930872" lon="3.298974009230733">
        <ele>469.25999999999999</ele>
        <time>2025-04-25T06:27:03Z</time>
      </trkpt>
      <trkpt lat="45.371944019570947" lon="3.299042992293835">
        <ele>468.77999999999997</ele>
        <time>2025-04-25T06:27:04Z</time>
      </trkpt>
      <trkpt lat="45.370164038613439" lon="3.299507014453411">
        <ele>463.97000000000003</ele>
        <time>2025-04-25T06:27:15Z</time>
      </trkpt>
      <trkpt lat="45.36937203258276" lon="3.299686973914504">
        <ele>460.61000000000001</ele>
        <time>2025-04-25T06:27:22Z</time>
      </trkpt>
      <trkpt lat="45.369127029553056" lon="3.299675993621349">
        <ele>458.20999999999998</ele>
        <time>2025-04-25T06:27:27Z</time>
      </trkpt>
      <trkpt lat="45.369099033996463" lon="3.299736008048058">
        <ele>458.20999999999998</ele>
        <time>2025-04-25T06:27:28Z</time>
      </trkpt>
      <trkpt lat="45.369063997641206" lon="3.299813959747553">
        <ele>457.72000000000003</ele>
        <time>2025-04-25T06:27:29Z</time>
      </trkpt>
      <trkpt lat="45.369019992649555" lon="3.299908004701138">
        <ele>457.24000000000001</ele>
        <time>2025-04-25T06:27:30Z</time>
      </trkpt>
      <trkpt lat="45.368967019021511" lon="3.300014035776258">
        <ele>457.24000000000001</ele>
        <time>2025-04-25T06:27:31Z</time>
      </trkpt>
      <trkpt lat="45.368907004594803" lon="3.300133980810642">
        <ele>456.75999999999999</ele>
        <time>2025-04-25T06:27:32Z</time>
      </trkpt>
      <trkpt lat="45.368193034082651" lon="3.301584972068667">
        <ele>452.92000000000002</ele>
        <time>2025-04-25T06:27:41Z</time>
      </trkpt>
      <trkpt lat="45.367348976433277" lon="3.303384985774756">
        <ele>449.06999999999999</ele>
        <time>2025-04-25T06:27:54Z</time>
      </trkpt>
      <trkpt lat="45.366540960967541" lon="3.305023983120918">
        <ele>443.79000000000002</ele>
        <time>2025-04-25T06:28:06Z</time>
      </trkpt>
      <trkpt lat="45.365825984627008" lon="3.306518979370594">
        <ele>440.42000000000002</ele>
        <time>2025-04-25T06:28:17Z</time>
      </trkpt>
      <trkpt lat="45.364953009411693" lon="3.308280017226934">
        <ele>435.61000000000001</ele>
        <time>2025-04-25T06:28:30Z</time>
      </trkpt>
      <trkpt lat="45.364444982260466" lon="3.309377040714026">
        <ele>433.20999999999998</ele>
        <time>2025-04-25T06:28:39Z</time>
      </trkpt>
      <trkpt lat="45.364374993368983" lon="3.309400007128716">
        <ele>432.73000000000002</ele>
        <time>2025-04-25T06:28:41Z</time>
      </trkpt>
      <trkpt lat="45.364341968670487" lon="3.309369999915361">
        <ele>431.76999999999998</ele>
        <time>2025-04-25T06:28:42Z</time>
      </trkpt>
      <trkpt lat="45.36430299282074" lon="3.309334041550756">
        <ele>431.29000000000002</ele>
        <time>2025-04-25T06:28:43Z</time>
      </trkpt>
      <trkpt lat="45.364253958687186" lon="3.309289030730724">
        <ele>430.81</ele>
        <time>2025-04-25T06:28:44Z</time>
      </trkpt>
      <trkpt lat="45.36419503390789" lon="3.309234967455268">
        <ele>430.32999999999998</ele>
        <time>2025-04-25T06:28:45Z</time>
      </trkpt>
      <trkpt lat="45.364128984510899" lon="3.309176964685321">
        <ele>429.85000000000002</ele>
        <time>2025-04-25T06:28:46Z</time>
      </trkpt>
      <trkpt lat="45.3640650305897" lon="3.309123991057277">
        <ele>429.85000000000002</ele>
        <time>2025-04-25T06:28:47Z</time>
      </trkpt>
      <trkpt lat="45.363999987021089" lon="3.309070011600852">
        <ele>429.85000000000002</ele>
        <time>2025-04-25T06:28:48Z</time>
      </trkpt>
      <trkpt lat="45.363929998129606" lon="3.309011003002524">
        <ele>429.37</ele>
        <time>2025-04-25T06:28:49Z</time>
      </trkpt>
      <trkpt lat="45.363359022885561" lon="3.308501970022917">
        <ele>427.92000000000002</ele>
        <time>2025-04-25T06:28:58Z</time>
      </trkpt>
      <trkpt lat="45.363278975710273" lon="3.308429969474673">
        <ele>427.92000000000002</ele>
        <time>2025-04-25T06:28:59Z</time>
      </trkpt>
      <trkpt lat="45.36322901956737" lon="3.308370960876346">
        <ele>427.92000000000002</ele>
        <time>2025-04-25T06:29:00Z</time>
      </trkpt>
      <trkpt lat="45.363001031801105" lon="3.308085976168513">
        <ele>427.44</ele>
        <time>2025-04-25T06:29:04Z</time>
      </trkpt>
      <trkpt lat="45.362960966303945" lon="3.307996038347483">
        <ele>427.44</ele>
        <time>2025-04-25T06:29:05Z</time>
      </trkpt>
      <trkpt lat="45.362914027646184" lon="3.307893024757505">
        <ele>427.92000000000002</ele>
        <time>2025-04-25T06:29:06Z</time>
      </trkpt>
      <trkpt lat="45.362813025712967" lon="3.307521035894752">
        <ele>429.37</ele>
        <time>2025-04-25T06:29:10Z</time>
      </trkpt>
      <trkpt lat="45.362786035984755" lon="3.307422967627645">
        <ele>429.85000000000002</ele>
        <time>2025-04-25T06:29:11Z</time>
      </trkpt>
      <trkpt lat="45.36273499019444" lon="3.307333029806614">
        <ele>430.32999999999998</ele>
        <time>2025-04-25T06:29:12Z</time>
      </trkpt>
      <trkpt lat="45.362686961889267" lon="3.307248959317803">
        <ele>430.81</ele>
        <time>2025-04-25T06:29:13Z</time>
      </trkpt>
      <trkpt lat="45.362639017403126" lon="3.307163966819644">
        <ele>430.81</ele>
        <time>2025-04-25T06:29:14Z</time>
      </trkpt>
      <trkpt lat="45.36258595995605" lon="3.30709096044302">
        <ele>431.29000000000002</ele>
        <time>2025-04-25T06:29:15Z</time>
      </trkpt>
      <trkpt lat="45.362394014373422" lon="3.306880993768573">
        <ele>431.76999999999998</ele>
        <time>2025-04-25T06:29:18Z</time>
      </trkpt>
      <trkpt lat="45.362335005775094" lon="3.306819973513484">
        <ele>432.25</ele>
        <time>2025-04-25T06:29:19Z</time>
      </trkpt>
      <trkpt lat="45.362053960561752" lon="3.306483021005988">
        <ele>433.69</ele>
        <time>2025-04-25T06:29:23Z</time>
      </trkpt>
      <trkpt lat="45.36193803884089" lon="3.306276993826032">
        <ele>434.17000000000002</ele>
        <time>2025-04-25T06:29:25Z</time>
      </trkpt>
      <trkpt lat="45.361455995589495" lon="3.30491996370256">
        <ele>436.57999999999998</ele>
        <time>2025-04-25T06:29:34Z</time>
      </trkpt>
      <trkpt lat="45.360866999253631" lon="3.303047027438879">
        <ele>438.98000000000002</ele>
        <time>2025-04-25T06:29:43Z</time>
      </trkpt>
      <trkpt lat="45.360484030097723" lon="3.301971964538097">
        <ele>440.42000000000002</ele>
        <time>2025-04-25T06:29:48Z</time>
      </trkpt>
      <trkpt lat="45.360389985144138" lon="3.301823018118739">
        <ele>440.89999999999998</ele>
        <time>2025-04-25T06:29:49Z</time>
      </trkpt>
      <trkpt lat="45.36028596572578" lon="3.301708018407226">
        <ele>441.38</ele>
        <time>2025-04-25T06:29:50Z</time>
      </trkpt>
      <trkpt lat="45.360172977671027" lon="3.301603998988867">
        <ele>441.86000000000001</ele>
        <time>2025-04-25T06:29:51Z</time>
      </trkpt>
      <trkpt lat="45.360054960474372" lon="3.301495034247637">
        <ele>442.33999999999997</ele>
        <time>2025-04-25T06:29:52Z</time>
      </trkpt>
      <trkpt lat="45.359096992760897" lon="3.300696993246675">
        <ele>444.75</ele>
        <time>2025-04-25T06:29:59Z</time>
      </trkpt>
      <trkpt lat="45.358966989442706" lon="3.300526002421975">
        <ele>444.75</ele>
        <time>2025-04-25T06:30:00Z</time>
      </trkpt>
      <trkpt lat="45.358860958367586" lon="3.300315029919148">
        <ele>445.23000000000002</ele>
        <time>2025-04-25T06:30:01Z</time>
      </trkpt>
      <trkpt lat="45.358771020546556" lon="3.300091987475753">
        <ele>445.70999999999998</ele>
        <time>2025-04-25T06:30:02Z</time>
      </trkpt>
      <trkpt lat="45.358682004734874" lon="3.29986902885139">
        <ele>446.19</ele>
        <time>2025-04-25T06:30:03Z</time>
      </trkpt>
      <trkpt lat="45.357591016218066" lon="3.297114986926317">
        <ele>458.69</ele>
        <time>2025-04-25T06:30:16Z</time>
      </trkpt>
      <trkpt lat="45.356966983526945" lon="3.295623008161783">
        <ele>463.97000000000003</ele>
        <time>2025-04-25T06:30:23Z</time>
      </trkpt>
      <trkpt lat="45.356856007128954" lon="3.295410024002194">
        <ele>464.44999999999999</ele>
        <time>2025-04-25T06:30:24Z</time>
      </trkpt>
      <trkpt lat="45.356727009639144" lon="3.295226963236928">
        <ele>465.42000000000002</ele>
        <time>2025-04-25T06:30:25Z</time>
      </trkpt>
      <trkpt lat="45.35656901076436" lon="3.295071981847286">
        <ele>466.38</ele>
        <time>2025-04-25T06:30:26Z</time>
      </trkpt>
      <trkpt lat="45.356406988576055" lon="3.294912977144122">
        <ele>466.86000000000001</ele>
        <time>2025-04-25T06:30:27Z</time>
      </trkpt>
      <trkpt lat="45.355259003117681" lon="3.293844033032656">
        <ele>473.11000000000001</ele>
        <time>2025-04-25T06:30:34Z</time>
      </trkpt>
      <trkpt lat="45.355088012292981" lon="3.293732972815633">
        <ele>474.06999999999999</ele>
        <time>2025-04-25T06:30:35Z</time>
      </trkpt>
      <trkpt lat="45.354920038953424" lon="3.293623002246022">
        <ele>474.55000000000001</ele>
        <time>2025-04-25T06:30:36Z</time>
      </trkpt>
      <trkpt lat="45.354272034019232" lon="3.293269034475088">
        <ele>477.91000000000003</ele>
        <time>2025-04-25T06:30:40Z</time>
      </trkpt>
      <trkpt lat="45.353661999106407" lon="3.292841976508498">
        <ele>481.27999999999997</ele>
        <time>2025-04-25T06:30:44Z</time>
      </trkpt>
      <trkpt lat="45.353506011888385" lon="3.29277902841568">
        <ele>482.24000000000001</ele>
        <time>2025-04-25T06:30:45Z</time>
      </trkpt>
      <trkpt lat="45.353176016360521" lon="3.292655982077122">
        <ele>484.63999999999999</ele>
        <time>2025-04-25T06:30:48Z</time>
      </trkpt>
      <trkpt lat="45.353111978620291" lon="3.292633015662432">
        <ele>485.60000000000002</ele>
        <time>2025-04-25T06:30:49Z</time>
      </trkpt>
      <trkpt lat="45.35304400138557" lon="3.292669979855418">
        <ele>486.07999999999998</ele>
        <time>2025-04-25T06:30:50Z</time>
      </trkpt>
      <trkpt lat="45.353015000000596" lon="3.292742986232042">
        <ele>486.56</ele>
        <time>2025-04-25T06:30:51Z</time>
      </trkpt>
      <trkpt lat="45.35298096947372" lon="3.292832002043724">
        <ele>487.05000000000001</ele>
        <time>2025-04-25T06:30:52Z</time>
      </trkpt>
      <trkpt lat="45.352936964482069" lon="3.292943984270096">
        <ele>487.52999999999997</ele>
        <time>2025-04-25T06:30:53Z</time>
      </trkpt>
      <trkpt lat="45.352886002510786" lon="3.293073987588286">
        <ele>487.52999999999997</ele>
        <time>2025-04-25T06:30:54Z</time>
      </trkpt>
      <trkpt lat="45.352362971752882" lon="3.294405033811927">
        <ele>489.93000000000001</ele>
        <time>2025-04-25T06:31:02Z</time>
      </trkpt>
      <trkpt lat="45.352017972618341" lon="3.29499302431941">
        <ele>490.88999999999999</ele>
        <time>2025-04-25T06:31:06Z</time>
      </trkpt>
      <trkpt lat="45.351903978735209" lon="3.295077010989189">
        <ele>490.88999999999999</ele>
        <time>2025-04-25T06:31:07Z</time>
      </trkpt>
      <trkpt lat="45.351789984852076" lon="3.295138031244278">
        <ele>490.41000000000003</ele>
        <time>2025-04-25T06:31:08Z</time>
      </trkpt>
      <trkpt lat="45.351667022332549" lon="3.29516502097249">
        <ele>489.93000000000001</ele>
        <time>2025-04-25T06:31:09Z</time>
      </trkpt>
      <trkpt lat="45.351523021236062" lon="3.295155968517065">
        <ele>489.44999999999999</ele>
        <time>2025-04-25T06:31:10Z</time>
      </trkpt>
      <trkpt lat="45.351364016532898" lon="3.295151023194194">
        <ele>488.49000000000001</ele>
        <time>2025-04-25T06:31:11Z</time>
      </trkpt>
      <trkpt lat="45.351196965202689" lon="3.295170972123742">
        <ele>487.52999999999997</ele>
        <time>2025-04-25T06:31:12Z</time>
      </trkpt>
      <trkpt lat="45.349918976426125" lon="3.295545978471637">
        <ele>481.75999999999999</ele>
        <time>2025-04-25T06:31:20Z</time>
      </trkpt>
      <trkpt lat="45.349772041663527" lon="3.295633988454938">
        <ele>479.83999999999997</ele>
        <time>2025-04-25T06:31:25Z</time>
      </trkpt>
      <trkpt lat="45.349772041663527" lon="3.295633988454938">
        <ele>479.35000000000002</ele>
        <time>2025-04-25T06:31:43Z</time>
      </trkpt>
      <trkpt lat="45.34971403889358" lon="3.295669024810195">
        <ele>478.87</ele>
        <time>2025-04-25T06:32:39Z</time>
      </trkpt>
      <trkpt lat="45.349225038662553" lon="3.295844038948417">
        <ele>476.94999999999999</ele>
        <time>2025-04-25T06:32:45Z</time>
      </trkpt>
      <trkpt lat="45.348774008452892" lon="3.295950992032886">
        <ele>475.99000000000001</ele>
        <time>2025-04-25T06:32:49Z</time>
      </trkpt>
      <trkpt lat="45.348652973771095" lon="3.295933976769447">
        <ele>475.50999999999999</ele>
        <time>2025-04-25T06:32:50Z</time>
      </trkpt>
      <trkpt lat="45.348520958796144" lon="3.29591603949666">
        <ele>475.50999999999999</ele>
        <time>2025-04-25T06:32:51Z</time>
      </trkpt>
      <trkpt lat="45.347907990217209" lon="3.295835992321372">
        <ele>475.02999999999997</ele>
        <time>2025-04-25T06:32:55Z</time>
      </trkpt>
      <trkpt lat="45.34638399258256" lon="3.295863987877965">
        <ele>475.02999999999997</ele>
        <time>2025-04-25T06:33:04Z</time>
      </trkpt>
      <trkpt lat="45.34610596485436" lon="3.295907992869616">
        <ele>474.06999999999999</ele>
        <time>2025-04-25T06:33:06Z</time>
      </trkpt>
      <trkpt lat="45.345969004556537" lon="3.295964989811182">
        <ele>473.11000000000001</ele>
        <time>2025-04-25T06:33:07Z</time>
      </trkpt>
      <trkpt lat="45.345242964103818" lon="3.296407973393798">
        <ele>475.50999999999999</ele>
        <time>2025-04-25T06:33:12Z</time>
      </trkpt>
      <trkpt lat="45.344307040795684" lon="3.296683989465237">
        <ele>483.68000000000001</ele>
        <time>2025-04-25T06:33:19Z</time>
      </trkpt>
      <trkpt lat="45.343660963699222" lon="3.296836959198117">
        <ele>489.44999999999999</ele>
        <time>2025-04-25T06:33:25Z</time>
      </trkpt>
      <trkpt lat="45.34354998730123" lon="3.296803012490273">
        <ele>490.41000000000003</ele>
        <time>2025-04-25T06:33:26Z</time>
      </trkpt>
      <trkpt lat="45.343470023944974" lon="3.296702010557056">
        <ele>491.85000000000002</ele>
        <time>2025-04-25T06:33:27Z</time>
      </trkpt>
      <trkpt lat="45.343392994254827" lon="3.296589022502303">
        <ele>493.29000000000002</ele>
        <time>2025-04-25T06:33:28Z</time>
      </trkpt>
      <trkpt lat="45.343301966786385" lon="3.296456001698971">
        <ele>494.74000000000001</ele>
        <time>2025-04-25T06:33:29Z</time>
      </trkpt>
      <trkpt lat="45.343245975673199" lon="3.29634502530098">
        <ele>496.18000000000001</ele>
        <time>2025-04-25T06:33:30Z</time>
      </trkpt>
      <trkpt lat="45.342777008190751" lon="3.295406000688672">
        <ele>510.12</ele>
        <time>2025-04-25T06:33:38Z</time>
      </trkpt>
      <trkpt lat="45.342735014855862" lon="3.295323019847274">
        <ele>511.56</ele>
        <time>2025-04-25T06:33:39Z</time>
      </trkpt>
      <trkpt lat="45.342643987387419" lon="3.295252025127411">
        <ele>513</ele>
        <time>2025-04-25T06:33:40Z</time>
      </trkpt>
      <trkpt lat="45.342562012374401" lon="3.295246995985508">
        <ele>514.44000000000005</ele>
        <time>2025-04-25T06:33:41Z</time>
      </trkpt>
      <trkpt lat="45.342471990734339" lon="3.295241966843605">
        <ele>515.39999999999998</ele>
        <time>2025-04-25T06:33:42Z</time>
      </trkpt>
      <trkpt lat="45.342380041256547" lon="3.295237021520734">
        <ele>516.37</ele>
        <time>2025-04-25T06:33:43Z</time>
      </trkpt>
      <trkpt lat="45.341355018317699" lon="3.29518798738718">
        <ele>524.53999999999996</ele>
        <time>2025-04-25T06:33:53Z</time>
      </trkpt>
      <trkpt lat="45.340318009257317" lon="3.295110035687685">
        <ele>528.86000000000001</ele>
        <time>2025-04-25T06:34:01Z</time>
      </trkpt>
      <trkpt lat="45.338741037994623" lon="3.295500967651606">
        <ele>531.75</ele>
        <time>2025-04-25T06:34:11Z</time>
      </trkpt>
      <trkpt lat="45.338175008073449" lon="3.295724010095">
        <ele>528.86000000000001</ele>
        <time>2025-04-25T06:34:15Z</time>
      </trkpt>
      <trkpt lat="45.338036036118865" lon="3.295743959024549">
        <ele>528.38</ele>
        <time>2025-04-25T06:34:16Z</time>
      </trkpt>
      <trkpt lat="45.337910978123546" lon="3.295725015923381">
        <ele>527.41999999999996</ele>
        <time>2025-04-25T06:34:17Z</time>
      </trkpt>
      <trkpt lat="45.337804025039077" lon="3.295708000659943">
        <ele>526.94000000000005</ele>
        <time>2025-04-25T06:34:18Z</time>
      </trkpt>
      <trkpt lat="45.337717020884156" lon="3.29565997235477">
        <ele>526.46000000000004</ele>
        <time>2025-04-25T06:34:19Z</time>
      </trkpt>
      <trkpt lat="45.337650971487164" lon="3.29561797901988">
        <ele>525.98000000000002</ele>
        <time>2025-04-25T06:34:20Z</time>
      </trkpt>
      <trkpt lat="45.337558016180992" lon="3.295557964593172">
        <ele>525.01999999999998</ele>
        <time>2025-04-25T06:34:22Z</time>
      </trkpt>
      <trkpt lat="45.337487021461129" lon="3.295512031763792">
        <ele>524.53999999999996</ele>
        <time>2025-04-25T06:34:24Z</time>
      </trkpt>
      <trkpt lat="45.337476041167974" lon="3.295430978760123">
        <ele>524.05999999999995</ele>
        <time>2025-04-25T06:34:25Z</time>
      </trkpt>
      <trkpt lat="45.337464977055788" lon="3.295350009575486">
        <ele>523.58000000000004</ele>
        <time>2025-04-25T06:34:26Z</time>
      </trkpt>
      <trkpt lat="45.337336985394359" lon="3.295232998207212">
        <ele>523.09000000000003</ele>
        <time>2025-04-25T06:34:27Z</time>
      </trkpt>
      <trkpt lat="45.337279988452792" lon="3.295210031792522">
        <ele>523.09000000000003</ele>
        <time>2025-04-25T06:34:28Z</time>
      </trkpt>
      <trkpt lat="45.337182004004717" lon="3.295169966295362">
        <ele>523.09000000000003</ele>
        <time>2025-04-25T06:34:29Z</time>
      </trkpt>
      <trkpt lat="45.337073039263487" lon="3.295125039294362">
        <ele>523.09000000000003</ele>
        <time>2025-04-25T06:34:30Z</time>
      </trkpt>
      <trkpt lat="45.335938967764378" lon="3.294661017134786">
        <ele>523.09000000000003</ele>
        <time>2025-04-25T06:34:38Z</time>
      </trkpt>
      <trkpt lat="45.335509981960058" lon="3.294449038803577">
        <ele>523.58000000000004</ele>
        <time>2025-04-25T06:34:41Z</time>
      </trkpt>
      <trkpt lat="45.335397999733686" lon="3.294315012171865">
        <ele>524.05999999999995</ele>
        <time>2025-04-25T06:34:42Z</time>
      </trkpt>
      <trkpt lat="45.335292974486947" lon="3.294159024953842">
        <ele>525.01999999999998</ele>
        <time>2025-04-25T06:34:43Z</time>
      </trkpt>
      <trkpt lat="45.335199013352394" lon="3.293988034129143">
        <ele>525.5</ele>
        <time>2025-04-25T06:34:44Z</time>
      </trkpt>
      <trkpt lat="45.335101028904319" lon="3.29381100833416">
        <ele>525.98000000000002</ele>
        <time>2025-04-25T06:34:45Z</time>
      </trkpt>
      <trkpt lat="45.334819983690977" lon="3.293300969526172">
        <ele>527.41999999999996</ele>
        <time>2025-04-25T06:34:48Z</time>
      </trkpt>
      <trkpt lat="45.334714958444238" lon="3.293149005621672">
        <ele>527.89999999999998</ele>
        <time>2025-04-25T06:34:49Z</time>
      </trkpt>
      <trkpt lat="45.334611022844911" lon="3.293044986203313">
        <ele>528.38</ele>
        <time>2025-04-25T06:34:50Z</time>
      </trkpt>
      <trkpt lat="45.334464004263282" lon="3.292945995926857">
        <ele>528.38</ele>
        <time>2025-04-25T06:34:51Z</time>
      </trkpt>
      <trkpt lat="45.334326960146427" lon="3.292854968458414">
        <ele>528.38</ele>
        <time>2025-04-25T06:34:52Z</time>
      </trkpt>
      <trkpt lat="45.334181031212211" lon="3.292757989838719">
        <ele>528.86000000000001</ele>
        <time>2025-04-25T06:34:53Z</time>
      </trkpt>
      <trkpt lat="45.333251981064677" lon="3.292452972382307">
        <ele>530.78999999999996</ele>
        <time>2025-04-25T06:34:59Z</time>
      </trkpt>
      <trkpt lat="45.333112003281713" lon="3.292359011247754">
        <ele>531.26999999999998</ele>
        <time>2025-04-25T06:35:00Z</time>
      </trkpt>
      <trkpt lat="45.332975964993238" lon="3.292268989607692">
        <ele>531.26999999999998</ele>
        <time>2025-04-25T06:35:01Z</time>
      </trkpt>
      <trkpt lat="45.33284998498857" lon="3.292185002937913">
        <ele>531.75</ele>
        <time>2025-04-25T06:35:02Z</time>
      </trkpt>
      <trkpt lat="45.332714030519128" lon="3.292128005996347">
        <ele>531.75</ele>
        <time>2025-04-25T06:35:03Z</time>
      </trkpt>
      <trkpt lat="45.332563994452357" lon="3.292095987126231">
        <ele>531.75</ele>
        <time>2025-04-25T06:35:04Z</time>
      </trkpt>
      <trkpt lat="45.332413036376238" lon="3.292064974084497">
        <ele>531.75</ele>
        <time>2025-04-25T06:35:05Z</time>
      </trkpt>
      <trkpt lat="45.332125034183264" lon="3.292064974084497">
        <ele>531.75</ele>
        <time>2025-04-25T06:35:07Z</time>
      </trkpt>
      <trkpt lat="45.331994025036693" lon="3.292091963812709">
        <ele>531.26999999999998</ele>
        <time>2025-04-25T06:35:08Z</time>
      </trkpt>
      <trkpt lat="45.331876007840037" lon="3.292171005159617">
        <ele>531.75</ele>
        <time>2025-04-25T06:35:09Z</time>
      </trkpt>
      <trkpt lat="45.331755978986621" lon="3.292281981557608">
        <ele>532.23000000000002</ele>
        <time>2025-04-25T06:35:10Z</time>
      </trkpt>
      <trkpt lat="45.331628993153572" lon="3.292401004582644">
        <ele>532.71000000000004</ele>
        <time>2025-04-25T06:35:11Z</time>
      </trkpt>
      <trkpt lat="45.331503013148904" lon="3.292526984587312">
        <ele>533.66999999999996</ele>
        <time>2025-04-25T06:35:12Z</time>
      </trkpt>
      <trkpt lat="45.3312580101192" lon="3.292771987617016">
        <ele>535.11000000000001</ele>
        <time>2025-04-25T06:35:14Z</time>
      </trkpt>
      <trkpt lat="45.331140998750925" lon="3.292876007035375">
        <ele>535.59000000000003</ele>
        <time>2025-04-25T06:35:15Z</time>
      </trkpt>
      <trkpt lat="45.331002026796341" lon="3.29290802590549">
        <ele>536.54999999999995</ele>
        <time>2025-04-25T06:35:16Z</time>
      </trkpt>
      <trkpt lat="45.330854002386332" lon="3.292940966784954">
        <ele>537.02999999999997</ele>
        <time>2025-04-25T06:35:17Z</time>
      </trkpt>
      <trkpt lat="45.330698015168309" lon="3.292976003140211">
        <ele>537.50999999999999</ele>
        <time>2025-04-25T06:35:18Z</time>
      </trkpt>
      <trkpt lat="45.330219995230436" lon="3.293083040043712">
        <ele>540.39999999999998</ele>
        <time>2025-04-25T06:35:21Z</time>
      </trkpt>
      <trkpt lat="45.33005696721375" lon="3.293142970651388">
        <ele>541.84000000000003</ele>
        <time>2025-04-25T06:35:22Z</time>
      </trkpt>
      <trkpt lat="45.329909026622772" lon="3.293245984241366">
        <ele>543.27999999999997</ele>
        <time>2025-04-25T06:35:23Z</time>
      </trkpt>
      <trkpt lat="45.329622030258179" lon="3.293444970622659">
        <ele>546.64999999999998</ele>
        <time>2025-04-25T06:35:25Z</time>
      </trkpt>
      <trkpt lat="45.329470988363028" lon="3.293500961735845">
        <ele>549.04999999999995</ele>
        <time>2025-04-25T06:35:26Z</time>
      </trkpt>
      <trkpt lat="45.329159013926983" lon="3.293606992810965">
        <ele>553.86000000000001</ele>
        <time>2025-04-25T06:35:28Z</time>
      </trkpt>
      <trkpt lat="45.329011995345354" lon="3.293658038601279">
        <ele>555.77999999999997</ele>
        <time>2025-04-25T06:35:29Z</time>
      </trkpt>
      <trkpt lat="45.328880986198783" lon="3.293702965602279">
        <ele>558.17999999999995</ele>
        <time>2025-04-25T06:35:30Z</time>
      </trkpt>
      <trkpt lat="45.328752994537354" lon="3.293699026107788">
        <ele>560.11000000000001</ele>
        <time>2025-04-25T06:35:31Z</time>
      </trkpt>
      <trkpt lat="45.328646041452885" lon="3.293687961995602">
        <ele>561.54999999999995</ele>
        <time>2025-04-25T06:35:32Z</time>
      </trkpt>
      <trkpt lat="45.328527018427849" lon="3.293624008074403">
        <ele>563.47000000000003</ele>
        <time>2025-04-25T06:35:33Z</time>
      </trkpt>
      <trkpt lat="45.328431967645884" lon="3.293572962284088">
        <ele>564.90999999999997</ele>
        <time>2025-04-25T06:35:34Z</time>
      </trkpt>
      <trkpt lat="45.328352004289627" lon="3.293502973392606">
        <ele>566.35000000000002</ele>
        <time>2025-04-25T06:35:35Z</time>
      </trkpt>
      <trkpt lat="45.328297019004822" lon="3.293379005044699">
        <ele>568.27999999999997</ele>
        <time>2025-04-25T06:35:36Z</time>
      </trkpt>
      <trkpt lat="45.328285032883286" lon="3.293213965371251">
        <ele>569.72000000000003</ele>
        <time>2025-04-25T06:35:37Z</time>
      </trkpt>
      <trkpt lat="45.328290984034538" lon="3.2930370233953">
        <ele>572.12</ele>
        <time>2025-04-25T06:35:38Z</time>
      </trkpt>
      <trkpt lat="45.328297019004822" lon="3.292845999822021">
        <ele>573.55999999999995</ele>
        <time>2025-04-25T06:35:39Z</time>
      </trkpt>
      <trkpt lat="45.328301964327693" lon="3.292649025097489">
        <ele>574.52999999999997</ele>
        <time>2025-04-25T06:35:40Z</time>
      </trkpt>
      <trkpt lat="45.328276986256242" lon="3.292463030666113">
        <ele>576.45000000000005</ele>
        <time>2025-04-25T06:35:41Z</time>
      </trkpt>
      <trkpt lat="45.328252008184791" lon="3.292295979335904">
        <ele>577.88999999999999</ele>
        <time>2025-04-25T06:35:42Z</time>
      </trkpt>
      <trkpt lat="45.328198028728366" lon="3.292135968804359">
        <ele>578.85000000000002</ele>
        <time>2025-04-25T06:35:43Z</time>
      </trkpt>
      <trkpt lat="45.328119993209839" lon="3.292000014334917">
        <ele>579.80999999999995</ele>
        <time>2025-04-25T06:35:44Z</time>
      </trkpt>
      <trkpt lat="45.328040029853582" lon="3.291860036551952">
        <ele>580.76999999999998</ele>
        <time>2025-04-25T06:35:45Z</time>
      </trkpt>
      <trkpt lat="45.327954031527042" lon="3.291723998263478">
        <ele>581.73000000000002</ele>
        <time>2025-04-25T06:35:46Z</time>
      </trkpt>
      <trkpt lat="45.327858980745077" lon="3.291607992723584">
        <ele>582.70000000000005</ele>
        <time>2025-04-25T06:35:47Z</time>
      </trkpt>
      <trkpt lat="45.327299991622567" lon="3.29095202498138">
        <ele>587.5</ele>
        <time>2025-04-25T06:35:54Z</time>
      </trkpt>
      <trkpt lat="45.327199995517731" lon="3.290924029424787">
        <ele>587.98000000000002</ele>
        <time>2025-04-25T06:35:55Z</time>
      </trkpt>
      <trkpt lat="45.327097987756133" lon="3.290928974747658">
        <ele>588.95000000000005</ele>
        <time>2025-04-25T06:35:56Z</time>
      </trkpt>
      <trkpt lat="45.326987011358142" lon="3.290934003889561">
        <ele>589.90999999999997</ele>
        <time>2025-04-25T06:35:57Z</time>
      </trkpt>
      <trkpt lat="45.326871005818248" lon="3.290939033031464">
        <ele>590.87</ele>
        <time>2025-04-25T06:35:58Z</time>
      </trkpt>
      <trkpt lat="45.326345041394234" lon="3.290987983345985">
        <ele>594.71000000000004</ele>
        <time>2025-04-25T06:36:02Z</time>
      </trkpt>
      <trkpt lat="45.326218977570534" lon="3.291071970015764">
        <ele>596.14999999999998</ele>
        <time>2025-04-25T06:36:03Z</time>
      </trkpt>
      <trkpt lat="45.326088974252343" lon="3.291157968342304">
        <ele>597.12</ele>
        <time>2025-04-25T06:36:04Z</time>
      </trkpt>
      <trkpt lat="45.325118014588952" lon="3.291956009343267">
        <ele>609.13</ele>
        <time>2025-04-25T06:36:12Z</time>
      </trkpt>
      <trkpt lat="45.3250050265342" lon="3.291995991021395">
        <ele>610.57000000000005</ele>
        <time>2025-04-25T06:36:13Z</time>
      </trkpt>
      <trkpt lat="45.324906958267093" lon="3.291990039870143">
        <ele>612.01999999999998</ele>
        <time>2025-04-25T06:36:14Z</time>
      </trkpt>
      <trkpt lat="45.324806040152907" lon="3.291930025443435">
        <ele>613.46000000000004</ele>
        <time>2025-04-25T06:36:15Z</time>
      </trkpt>
      <trkpt lat="45.324702020734549" lon="3.291825000196695">
        <ele>614.89999999999998</ele>
        <time>2025-04-25T06:36:16Z</time>
      </trkpt>
      <trkpt lat="45.32459800131619" lon="3.29170698300004">
        <ele>616.82000000000005</ele>
        <time>2025-04-25T06:36:17Z</time>
      </trkpt>
      <trkpt lat="45.324493981897831" lon="3.291558958590031">
        <ele>618.25999999999999</ele>
        <time>2025-04-25T06:36:18Z</time>
      </trkpt>
      <trkpt lat="45.32361002638936" lon="3.290019035339356">
        <ele>631.24000000000001</ele>
        <time>2025-04-25T06:36:27Z</time>
      </trkpt>
      <trkpt lat="45.323334010317922" lon="3.289512014016509">
        <ele>634.61000000000001</ele>
        <time>2025-04-25T06:36:30Z</time>
      </trkpt>
      <trkpt lat="45.323230996727943" lon="3.289362983778119">
        <ele>635.09000000000003</ele>
        <time>2025-04-25T06:36:31Z</time>
      </trkpt>
      <trkpt lat="45.323108034208417" lon="3.289251001551747">
        <ele>635.57000000000005</ele>
        <time>2025-04-25T06:36:32Z</time>
      </trkpt>
      <trkpt lat="45.322965960949659" lon="3.289155028760433">
        <ele>636.04999999999995</ele>
        <time>2025-04-25T06:36:33Z</time>
      </trkpt>
      <trkpt lat="45.32281500287354" lon="3.289052015170455">
        <ele>636.52999999999997</ele>
        <time>2025-04-25T06:36:34Z</time>
      </trkpt>
      <trkpt lat="45.322660021483898" lon="3.288945984095335">
        <ele>637.00999999999999</ele>
        <time>2025-04-25T06:36:35Z</time>
      </trkpt>
      <trkpt lat="45.321728959679604" lon="3.288511969149113">
        <ele>642.29999999999995</ele>
        <time>2025-04-25T06:36:41Z</time>
      </trkpt>
      <trkpt lat="45.321575989946723" lon="3.2885040063411">
        <ele>643.25999999999999</ele>
        <time>2025-04-25T06:36:42Z</time>
      </trkpt>
      <trkpt lat="45.321436012163758" lon="3.288516998291016">
        <ele>644.22000000000003</ele>
        <time>2025-04-25T06:36:43Z</time>
      </trkpt>
      <trkpt lat="45.321263009682298" lon="3.288588998839259">
        <ele>645.17999999999995</ele>
        <time>2025-04-25T06:36:44Z</time>
      </trkpt>
      <trkpt lat="45.321104004979134" lon="3.288654964417219">
        <ele>646.13999999999999</ele>
        <time>2025-04-25T06:36:45Z</time>
      </trkpt>
      <trkpt lat="45.320939971134067" lon="3.288723025470972">
        <ele>647.10000000000002</ele>
        <time>2025-04-25T06:36:46Z</time>
      </trkpt>
      <trkpt lat="45.320148970931768" lon="3.289074981585145">
        <ele>650.47000000000003</ele>
        <time>2025-04-25T06:36:51Z</time>
      </trkpt>
      <trkpt lat="45.319997007027268" lon="3.289161985740066">
        <ele>650.95000000000005</ele>
        <time>2025-04-25T06:36:52Z</time>
      </trkpt>
      <trkpt lat="45.318445013836026" lon="3.290250040590763">
        <ele>651.90999999999997</ele>
        <time>2025-04-25T06:37:01Z</time>
      </trkpt>
      <trkpt lat="45.318258013576269" lon="3.290351964533329">
        <ele>651.90999999999997</ele>
        <time>2025-04-25T06:37:02Z</time>
      </trkpt>
      <trkpt lat="45.318059027194977" lon="3.290397981181741">
        <ele>651.90999999999997</ele>
        <time>2025-04-25T06:37:03Z</time>
      </trkpt>
      <trkpt lat="45.317857023328543" lon="3.29043896868825">
        <ele>651.90999999999997</ele>
        <time>2025-04-25T06:37:04Z</time>
      </trkpt>
      <trkpt lat="45.317648984491825" lon="3.290431005880237">
        <ele>651.42999999999995</ele>
        <time>2025-04-25T06:37:05Z</time>
      </trkpt>
      <trkpt lat="45.317438011988997" lon="3.290408039465547">
        <ele>651.42999999999995</ele>
        <time>2025-04-25T06:37:06Z</time>
      </trkpt>
      <trkpt lat="45.315789040178061" lon="3.290170999243856">
        <ele>654.30999999999995</ele>
        <time>2025-04-25T06:37:15Z</time>
      </trkpt>
      <trkpt lat="45.3149080183357" lon="3.290040995925665">
        <ele>653.35000000000002</ele>
        <time>2025-04-25T06:37:20Z</time>
      </trkpt>
      <trkpt lat="45.314716994762421" lon="3.290040995925665">
        <ele>652.87</ele>
        <time>2025-04-25T06:37:21Z</time>
      </trkpt>
      <trkpt lat="45.314531000331044" lon="3.290040995925665">
        <ele>652.38999999999999</ele>
        <time>2025-04-25T06:37:22Z</time>
      </trkpt>
      <trkpt lat="45.314344000071287" lon="3.290106961503625">
        <ele>651.90999999999997</ele>
        <time>2025-04-25T06:37:23Z</time>
      </trkpt>
      <trkpt lat="45.314161023125052" lon="3.290193965658546">
        <ele>651.42999999999995</ele>
        <time>2025-04-25T06:37:24Z</time>
      </trkpt>
      <trkpt lat="45.313016977161169" lon="3.290949007496238">
        <ele>652.38999999999999</ele>
        <time>2025-04-25T06:37:31Z</time>
      </trkpt>
      <trkpt lat="45.311767989769578" lon="3.291773032397032">
        <ele>653.35000000000002</ele>
        <time>2025-04-25T06:37:39Z</time>
      </trkpt>
      <trkpt lat="45.311145968735218" lon="3.292261026799679">
        <ele>654.30999999999995</ele>
        <time>2025-04-25T06:37:45Z</time>
      </trkpt>
      <trkpt lat="45.311051001772285" lon="3.292336966842413">
        <ele>654.79999999999995</ele>
        <time>2025-04-25T06:37:48Z</time>
      </trkpt>
      <trkpt lat="45.310961985960603" lon="3.292399998754263">
        <ele>654.79999999999995</ele>
        <time>2025-04-25T06:37:49Z</time>
      </trkpt>
      <trkpt lat="45.310919992625713" lon="3.292479962110519">
        <ele>654.79999999999995</ele>
        <time>2025-04-25T06:37:50Z</time>
      </trkpt>
      <trkpt lat="45.31086903065443" lon="3.292575012892485">
        <ele>654.79999999999995</ele>
        <time>2025-04-25T06:37:51Z</time>
      </trkpt>
      <trkpt lat="45.310810022056103" lon="3.292684983462095">
        <ele>655.27999999999997</ele>
        <time>2025-04-25T06:37:52Z</time>
      </trkpt>
      <trkpt lat="45.310745984315872" lon="3.292804006487131">
        <ele>655.27999999999997</ele>
        <time>2025-04-25T06:37:53Z</time>
      </trkpt>
      <trkpt lat="45.310679012909532" lon="3.292933003976941">
        <ele>654.30999999999995</ele>
        <time>2025-04-25T06:37:54Z</time>
      </trkpt>
      <trkpt lat="45.310199987143278" lon="3.294192971661687">
        <ele>650.95000000000005</ele>
        <time>2025-04-25T06:38:01Z</time>
      </trkpt>
      <trkpt lat="45.310149025171995" lon="3.294403022155166">
        <ele>650.47000000000003</ele>
        <time>2025-04-25T06:38:02Z</time>
      </trkpt>
      <trkpt lat="45.309833027422428" lon="3.29638903029263">
        <ele>647.59000000000003</ele>
        <time>2025-04-25T06:38:10Z</time>
      </trkpt>
      <trkpt lat="45.309634963050485" lon="3.298520967364311">
        <ele>648.07000000000005</ele>
        <time>2025-04-25T06:38:18Z</time>
      </trkpt>
      <trkpt lat="45.309579977765679" lon="3.298764964565635">
        <ele>648.07000000000005</ele>
        <time>2025-04-25T06:38:19Z</time>
      </trkpt>
      <trkpt lat="45.309496996924281" lon="3.298999993130565">
        <ele>647.59000000000003</ele>
        <time>2025-04-25T06:38:20Z</time>
      </trkpt>
      <trkpt lat="45.308904983103275" lon="3.300811992958188">
        <ele>643.74000000000001</ele>
        <time>2025-04-25T06:38:28Z</time>
      </trkpt>
      <trkpt lat="45.308788977563381" lon="3.301005028188229">
        <ele>643.25999999999999</ele>
        <time>2025-04-25T06:38:29Z</time>
      </trkpt>
      <trkpt lat="45.308693004772067" lon="3.301164032891393">
        <ele>642.29999999999995</ele>
        <time>2025-04-25T06:38:30Z</time>
      </trkpt>
      <trkpt lat="45.308590997010469" lon="3.30133200623095">
        <ele>641.34000000000003</ele>
        <time>2025-04-25T06:38:31Z</time>
      </trkpt>
      <trkpt lat="45.308479014784098" lon="3.301516994833946">
        <ele>639.88999999999999</ele>
        <time>2025-04-25T06:38:32Z</time>
      </trkpt>
      <trkpt lat="45.308362003415823" lon="3.301711035892367">
        <ele>638.45000000000005</ele>
        <time>2025-04-25T06:38:33Z</time>
      </trkpt>
      <trkpt lat="45.308264018967748" lon="3.301929971203208">
        <ele>637.00999999999999</ele>
        <time>2025-04-25T06:38:34Z</time>
      </trkpt>
      <trkpt lat="45.308206016197801" lon="3.302192995324731">
        <ele>635.09000000000003</ele>
        <time>2025-04-25T06:38:35Z</time>
      </trkpt>
      <trkpt lat="45.308144995942712" lon="3.302471023052931">
        <ele>633.64999999999998</ele>
        <time>2025-04-25T06:38:36Z</time>
      </trkpt>
      <trkpt lat="45.307462960481644" lon="3.305193968117237">
        <ele>616.82000000000005</ele>
        <time>2025-04-25T06:38:46Z</time>
      </trkpt>
      <trkpt lat="45.306971026584506" lon="3.30650900490582">
        <ele>609.13</ele>
        <time>2025-04-25T06:38:52Z</time>
      </trkpt>
      <trkpt lat="45.306891985237598" lon="3.306696005165577">
        <ele>608.16999999999996</ele>
        <time>2025-04-25T06:38:53Z</time>
      </trkpt>
      <trkpt lat="45.306777991354465" lon="3.306845035403967">
        <ele>607.21000000000004</ele>
        <time>2025-04-25T06:38:54Z</time>
      </trkpt>
      <trkpt lat="45.306661985814571" lon="3.306961040943861">
        <ele>606.25</ele>
        <time>2025-04-25T06:38:55Z</time>
      </trkpt>
      <trkpt lat="45.306540029123425" lon="3.307061959058046">
        <ele>605.76999999999998</ele>
        <time>2025-04-25T06:38:56Z</time>
      </trkpt>
      <trkpt lat="45.306402985006571" lon="3.307091966271401">
        <ele>605.28999999999996</ele>
        <time>2025-04-25T06:38:57Z</time>
      </trkpt>
      <trkpt lat="45.306263007223606" lon="3.307122979313135">
        <ele>604.80999999999995</ele>
        <time>2025-04-25T06:38:58Z</time>
      </trkpt>
      <trkpt lat="45.306116994470358" lon="3.30715499818325">
        <ele>604.33000000000004</ele>
        <time>2025-04-25T06:38:59Z</time>
      </trkpt>
      <trkpt lat="45.304318992421031" lon="3.307470995932818">
        <ele>595.66999999999996</ele>
        <time>2025-04-25T06:39:10Z</time>
      </trkpt>
      <trkpt lat="45.304034007713199" lon="3.307563029229641">
        <ele>593.26999999999998</ele>
        <time>2025-04-25T06:39:12Z</time>
      </trkpt>
      <trkpt lat="45.303909033536911" lon="3.307612985372543">
        <ele>592.30999999999995</ele>
        <time>2025-04-25T06:39:13Z</time>
      </trkpt>
      <trkpt lat="45.3038249630481" lon="3.307725973427296">
        <ele>590.87</ele>
        <time>2025-04-25T06:39:14Z</time>
      </trkpt>
      <trkpt lat="45.303731001913548" lon="3.307858994230628">
        <ele>589.90999999999997</ele>
        <time>2025-04-25T06:39:15Z</time>
      </trkpt>
      <trkpt lat="45.303645003587008" lon="3.308017998933792">
        <ele>588.46000000000004</ele>
        <time>2025-04-25T06:39:16Z</time>
      </trkpt>
      <trkpt lat="45.3035659622401" lon="3.308196030557156">
        <ele>587.5</ele>
        <time>2025-04-25T06:39:17Z</time>
      </trkpt>
      <trkpt lat="45.303511982783675" lon="3.308367021381855">
        <ele>585.58000000000004</ele>
        <time>2025-04-25T06:39:18Z</time>
      </trkpt>
      <trkpt lat="45.303492033854127" lon="3.308548992499709">
        <ele>584.62</ele>
        <time>2025-04-25T06:39:19Z</time>
      </trkpt>
      <trkpt lat="45.303470995277166" lon="3.308746973052621">
        <ele>582.70000000000005</ele>
        <time>2025-04-25T06:39:20Z</time>
      </trkpt>
      <trkpt lat="45.303448028862476" lon="3.30895802937448">
        <ele>580.76999999999998</ele>
        <time>2025-04-25T06:39:21Z</time>
      </trkpt>
      <trkpt lat="45.303424978628755" lon="3.309169001877308">
        <ele>578.85000000000002</ele>
        <time>2025-04-25T06:39:22Z</time>
      </trkpt>
      <trkpt lat="45.303404023870826" lon="3.309359019622207">
        <ele>576.92999999999995</ele>
        <time>2025-04-25T06:39:23Z</time>
      </trkpt>
      <trkpt lat="45.303405029699206" lon="3.309523975476623">
        <ele>575.00999999999999</ele>
        <time>2025-04-25T06:39:24Z</time>
      </trkpt>
      <trkpt lat="45.30345699749887" lon="3.309687003493309">
        <ele>573.55999999999995</ele>
        <time>2025-04-25T06:39:25Z</time>
      </trkpt>
      <trkpt lat="45.303516006097198" lon="3.309868974611163">
        <ele>572.60000000000002</ele>
        <time>2025-04-25T06:39:26Z</time>
      </trkpt>
      <trkpt lat="45.303579960018396" lon="3.310063015669584">
        <ele>571.15999999999997</ele>
        <time>2025-04-25T06:39:27Z</time>
      </trkpt>
      <trkpt lat="45.303642991930246" lon="3.310256972908974">
        <ele>569.24000000000001</ele>
        <time>2025-04-25T06:39:28Z</time>
      </trkpt>
      <trkpt lat="45.303662018850446" lon="3.31046199426055">
        <ele>567.79999999999995</ele>
        <time>2025-04-25T06:39:29Z</time>
      </trkpt>
      <trkpt lat="45.303651038557291" lon="3.310659974813461">
        <ele>566.35000000000002</ele>
        <time>2025-04-25T06:39:30Z</time>
      </trkpt>
      <trkpt lat="45.303639974445105" lon="3.310844963416457">
        <ele>564.90999999999997</ele>
        <time>2025-04-25T06:39:31Z</time>
      </trkpt>
      <trkpt lat="45.30362999998033" lon="3.311015032231808">
        <ele>563.47000000000003</ele>
        <time>2025-04-25T06:39:32Z</time>
      </trkpt>
      <trkpt lat="45.303665958344936" lon="3.311176970601082">
        <ele>562.02999999999997</ele>
        <time>2025-04-25T06:39:33Z</time>
      </trkpt>
      <trkpt lat="45.303727984428406" lon="3.311345027759671">
        <ele>560.59000000000003</ele>
        <time>2025-04-25T06:39:34Z</time>
      </trkpt>
      <trkpt lat="45.303795961663127" lon="3.311531022191048">
        <ele>559.13999999999999</ele>
        <time>2025-04-25T06:39:35Z</time>
      </trkpt>
      <trkpt lat="45.303863016888499" lon="3.311712993308902">
        <ele>557.70000000000005</ele>
        <time>2025-04-25T06:39:36Z</time>
      </trkpt>
      <trkpt lat="45.303872991353273" lon="3.311916003003717">
        <ele>556.25999999999999</ele>
        <time>2025-04-25T06:39:37Z</time>
      </trkpt>
      <trkpt lat="45.303882965818048" lon="3.312107026576996">
        <ele>554.82000000000005</ele>
        <time>2025-04-25T06:39:38Z</time>
      </trkpt>
      <trkpt lat="45.303847007453442" lon="3.312269970774651">
        <ele>553.38</ele>
        <time>2025-04-25T06:39:39Z</time>
      </trkpt>
      <trkpt lat="45.303797973319888" lon="3.312464011833072">
        <ele>551.92999999999995</ele>
        <time>2025-04-25T06:39:40Z</time>
      </trkpt>
      <trkpt lat="45.303699988871813" lon="3.312598960474134">
        <ele>550.49000000000001</ele>
        <time>2025-04-25T06:39:41Z</time>
      </trkpt>
      <trkpt lat="45.303589012473822" lon="3.312751008197665">
        <ele>549.04999999999995</ele>
        <time>2025-04-25T06:39:42Z</time>
      </trkpt>
      <trkpt lat="45.303479041904211" lon="3.312900960445404">
        <ele>548.09000000000003</ele>
        <time>2025-04-25T06:39:43Z</time>
      </trkpt>
      <trkpt lat="45.303378039970994" lon="3.31304001621902">
        <ele>547.13</ele>
        <time>2025-04-25T06:39:44Z</time>
      </trkpt>
      <trkpt lat="45.303281983360648" lon="3.313171025365591">
        <ele>545.69000000000005</ele>
        <time>2025-04-25T06:39:45Z</time>
      </trkpt>
      <trkpt lat="45.303200008347631" lon="3.313328018411994">
        <ele>544.24000000000001</ele>
        <time>2025-04-25T06:39:46Z</time>
      </trkpt>
      <trkpt lat="45.303147034719586" lon="3.31353303976357">
        <ele>543.27999999999997</ele>
        <time>2025-04-25T06:39:47Z</time>
      </trkpt>
      <trkpt lat="45.30309003777802" lon="3.31374803557992">
        <ele>542.32000000000005</ele>
        <time>2025-04-25T06:39:48Z</time>
      </trkpt>
      <trkpt lat="45.302881998941302" lon="3.314542975276709">
        <ele>537.02999999999997</ele>
        <time>2025-04-25T06:39:52Z</time>
      </trkpt>
      <trkpt lat="45.302857020869851" lon="3.314718995243311">
        <ele>536.07000000000005</ele>
        <time>2025-04-25T06:39:53Z</time>
      </trkpt>
      <trkpt lat="45.302883004769683" lon="3.314899038523436">
        <ele>535.11000000000001</ele>
        <time>2025-04-25T06:39:54Z</time>
      </trkpt>
      <trkpt lat="45.302935978397727" lon="3.315086038783193">
        <ele>534.14999999999998</ele>
        <time>2025-04-25T06:39:55Z</time>
      </trkpt>
      <trkpt lat="45.303000016137958" lon="3.315270021557808">
        <ele>533.19000000000005</ele>
        <time>2025-04-25T06:39:56Z</time>
      </trkpt>
      <trkpt lat="45.303057013079524" lon="3.315432965755463">
        <ele>531.75</ele>
        <time>2025-04-25T06:39:57Z</time>
      </trkpt>
      <trkpt lat="45.303089031949639" lon="3.31557503901422">
        <ele>530.78999999999996</ele>
        <time>2025-04-25T06:39:58Z</time>
      </trkpt>
      <trkpt lat="45.303148962557316" lon="3.315894976258278">
        <ele>526.94000000000005</ele>
        <time>2025-04-25T06:40:01Z</time>
      </trkpt>
      <trkpt lat="45.303159020841122" lon="3.315950967371464">
        <ele>525.98000000000002</ele>
        <time>2025-04-25T06:40:02Z</time>
      </trkpt>
      <trkpt lat="45.303165977820754" lon="3.315987009555101">
        <ele>525.01999999999998</ele>
        <time>2025-04-25T06:40:03Z</time>
      </trkpt>
      <trkpt lat="45.303111998364329" lon="3.31596102565527">
        <ele>524.05999999999995</ele>
        <time>2025-04-25T06:40:04Z</time>
      </trkpt>
      <trkpt lat="45.303111998364329" lon="3.31596102565527">
        <ele>522.61000000000001</ele>
        <time>2025-04-25T06:40:05Z</time>
      </trkpt>
      <trkpt lat="45.303090959787369" lon="3.315944010391831">
        <ele>521.64999999999998</ele>
        <time>2025-04-25T06:40:06Z</time>
      </trkpt>
      <trkpt lat="45.303047960624099" lon="3.315906040370464">
        <ele>520.69000000000005</ele>
        <time>2025-04-25T06:40:07Z</time>
      </trkpt>
      <trkpt lat="45.302996998652816" lon="3.315862035378814">
        <ele>520.21000000000004</ele>
        <time>2025-04-25T06:40:08Z</time>
      </trkpt>
      <trkpt lat="45.302859032526612" lon="3.315742006525397">
        <ele>518.76999999999998</ele>
        <time>2025-04-25T06:40:10Z</time>
      </trkpt>
      <trkpt lat="45.302699021995068" lon="3.3149319794029">
        <ele>518.76999999999998</ele>
        <time>2025-04-25T06:40:15Z</time>
      </trkpt>
      <trkpt lat="45.302688963711262" lon="3.314756965264678">
        <ele>518.76999999999998</ele>
        <time>2025-04-25T06:40:16Z</time>
      </trkpt>
      <trkpt lat="45.302691981196404" lon="3.314583962783217">
        <ele>519.25</ele>
        <time>2025-04-25T06:40:17Z</time>
      </trkpt>
      <trkpt lat="45.302727017551661" lon="3.314400985836983">
        <ele>519.73000000000002</ele>
        <time>2025-04-25T06:40:18Z</time>
      </trkpt>
      <trkpt lat="45.302760964259505" lon="3.314223038032651">
        <ele>520.21000000000004</ele>
        <time>2025-04-25T06:40:19Z</time>
      </trkpt>
      <trkpt lat="45.30279197730124" lon="3.314066966995597">
        <ele>520.69000000000005</ele>
        <time>2025-04-25T06:40:20Z</time>
      </trkpt>
      <trkpt lat="45.302799018099904" lon="3.313906034454703">
        <ele>520.69000000000005</ele>
        <time>2025-04-25T06:40:21Z</time>
      </trkpt>
      <trkpt lat="45.302768005058169" lon="3.31375096924603">
        <ele>520.69000000000005</ele>
        <time>2025-04-25T06:40:22Z</time>
      </trkpt>
      <trkpt lat="45.302713019773364" lon="3.313639992848039">
        <ele>521.16999999999996</ele>
        <time>2025-04-25T06:40:23Z</time>
      </trkpt>
      <trkpt lat="45.302616963163018" lon="3.313507977873087">
        <ele>521.16999999999996</ele>
        <time>2025-04-25T06:40:24Z</time>
      </trkpt>
      <trkpt lat="45.302503975108266" lon="3.313434971496463">
        <ele>521.64999999999998</ele>
        <time>2025-04-25T06:40:25Z</time>
      </trkpt>
      <trkpt lat="45.302381012588739" lon="3.313355008140206">
        <ele>522.13</ele>
        <time>2025-04-25T06:40:26Z</time>
      </trkpt>
      <trkpt lat="45.301219029352069" lon="3.312394022941589">
        <ele>528.86000000000001</ele>
        <time>2025-04-25T06:40:34Z</time>
      </trkpt>
      <trkpt lat="45.299653960391879" lon="3.310959963127971">
        <ele>538.48000000000002</ele>
        <time>2025-04-25T06:40:45Z</time>
      </trkpt>
      <trkpt lat="45.299511970952153" lon="3.310910006985068">
        <ele>539.44000000000005</ele>
        <time>2025-04-25T06:40:46Z</time>
      </trkpt>
      <trkpt lat="45.299365036189556" lon="3.310858961194754">
        <ele>539.91999999999996</ele>
        <time>2025-04-25T06:40:47Z</time>
      </trkpt>
      <trkpt lat="45.29795897193253" lon="3.310803975909948">
        <ele>547.13</ele>
        <time>2025-04-25T06:40:55Z</time>
      </trkpt>
      <trkpt lat="45.29722798615694" lon="3.310737004503608">
        <ele>551.45000000000005</ele>
        <time>2025-04-25T06:41:00Z</time>
      </trkpt>
      <trkpt lat="45.297105023637414" lon="3.310687970370054">
        <ele>552.40999999999997</ele>
        <time>2025-04-25T06:41:01Z</time>
      </trkpt>
      <trkpt lat="45.297004021704197" lon="3.310599038377404">
        <ele>552.89999999999998</ele>
        <time>2025-04-25T06:41:02Z</time>
      </trkpt>
      <trkpt lat="45.296932021155953" lon="3.310468029230833">
        <ele>553.38</ele>
        <time>2025-04-25T06:41:03Z</time>
      </trkpt>
      <trkpt lat="45.296886004507542" lon="3.310329979285598">
        <ele>553.86000000000001</ele>
        <time>2025-04-25T06:41:04Z</time>
      </trkpt>
      <trkpt lat="45.296835964545608" lon="3.310166029259563">
        <ele>553.86000000000001</ele>
        <time>2025-04-25T06:41:05Z</time>
      </trkpt>
      <trkpt lat="45.296619962900877" lon="3.308374984189868">
        <ele>554.82000000000005</ele>
        <time>2025-04-25T06:41:14Z</time>
      </trkpt>
      <trkpt lat="45.296588027849793" lon="3.308171974495053">
        <ele>554.82000000000005</ele>
        <time>2025-04-25T06:41:15Z</time>
      </trkpt>
      <trkpt lat="45.296494988724589" lon="3.307995032519102">
        <ele>555.29999999999995</ele>
        <time>2025-04-25T06:41:16Z</time>
      </trkpt>
      <trkpt lat="45.296402033418417" lon="3.307814989238977">
        <ele>555.29999999999995</ele>
        <time>2025-04-25T06:41:17Z</time>
      </trkpt>
      <trkpt lat="45.296282004565001" lon="3.307653972879052">
        <ele>555.29999999999995</ele>
        <time>2025-04-25T06:41:18Z</time>
      </trkpt>
      <trkpt lat="45.296145966276526" lon="3.307522963732481">
        <ele>555.77999999999997</ele>
        <time>2025-04-25T06:41:19Z</time>
      </trkpt>
      <trkpt lat="45.296008000150323" lon="3.30739002674818">
        <ele>555.77999999999997</ele>
        <time>2025-04-25T06:41:20Z</time>
      </trkpt>
      <trkpt lat="45.29438903555274" lon="3.305856976658106">
        <ele>559.62</ele>
        <time>2025-04-25T06:41:31Z</time>
      </trkpt>
      <trkpt lat="45.294086029753089" lon="3.305625971406698">
        <ele>561.07000000000005</ele>
        <time>2025-04-25T06:41:33Z</time>
      </trkpt>
      <trkpt lat="45.293915960937738" lon="3.305553970858455">
        <ele>561.54999999999995</ele>
        <time>2025-04-25T06:41:34Z</time>
      </trkpt>
      <trkpt lat="45.292517021298409" lon="3.305143006145954">
        <ele>570.67999999999995</ele>
        <time>2025-04-25T06:41:42Z</time>
      </trkpt>
      <trkpt lat="45.290155000984669" lon="3.304804963991046">
        <ele>583.65999999999997</ele>
        <time>2025-04-25T06:41:54Z</time>
      </trkpt>
      <trkpt lat="45.287829022854567" lon="3.304142039269209">
        <ele>594.71000000000004</ele>
        <time>2025-04-25T06:42:06Z</time>
      </trkpt>
      <trkpt lat="45.28620301745832" lon="3.303666030988097">
        <ele>597.12</ele>
        <time>2025-04-25T06:42:15Z</time>
      </trkpt>
      <trkpt lat="45.284625962376595" lon="3.303016014397144">
        <ele>595.19000000000005</ele>
        <time>2025-04-25T06:42:24Z</time>
      </trkpt>
      <trkpt lat="45.28377503156662" lon="3.302628016099334">
        <ele>594.23000000000002</ele>
        <time>2025-04-25T06:42:30Z</time>
      </trkpt>
      <trkpt lat="45.283643016591668" lon="3.302618963643909">
        <ele>593.75</ele>
        <time>2025-04-25T06:42:31Z</time>
      </trkpt>
      <trkpt lat="45.283512007445097" lon="3.30264201387763">
        <ele>593.26999999999998</ele>
        <time>2025-04-25T06:42:32Z</time>
      </trkpt>
      <trkpt lat="45.283214030787349" lon="3.302756007760763">
        <ele>593.26999999999998</ele>
        <time>2025-04-25T06:42:34Z</time>
      </trkpt>
      <trkpt lat="45.283047985285521" lon="3.302790960296989">
        <ele>593.75</ele>
        <time>2025-04-25T06:42:35Z</time>
      </trkpt>
      <trkpt lat="45.282881017774343" lon="3.302801018580794">
        <ele>594.23000000000002</ele>
        <time>2025-04-25T06:42:36Z</time>
      </trkpt>
      <trkpt lat="45.282770041376352" lon="3.302807975560427">
        <ele>594.71000000000004</ele>
        <time>2025-04-25T06:42:37Z</time>
      </trkpt>
      <trkpt lat="45.282599972561002" lon="3.302722983062267">
        <ele>595.19000000000005</ele>
        <time>2025-04-25T06:42:38Z</time>
      </trkpt>
      <trkpt lat="45.282458988949656" lon="3.302651988342404">
        <ele>595.66999999999996</ele>
        <time>2025-04-25T06:42:39Z</time>
      </trkpt>
      <trkpt lat="45.282308030873537" lon="3.302576970309019">
        <ele>596.14999999999998</ele>
        <time>2025-04-25T06:42:40Z</time>
      </trkpt>
      <trkpt lat="45.281993038952351" lon="3.302418971434236">
        <ele>597.60000000000002</ele>
        <time>2025-04-25T06:42:42Z</time>
      </trkpt>
      <trkpt lat="45.280619999393821" lon="3.30203901976347">
        <ele>602.88</ele>
        <time>2025-04-25T06:42:50Z</time>
      </trkpt>
      <trkpt lat="45.27975901030004" lon="3.302091993391514">
        <ele>606.73000000000002</ele>
        <time>2025-04-25T06:42:55Z</time>
      </trkpt>
      <trkpt lat="45.279585001990199" lon="3.302079001441598">
        <ele>607.69000000000005</ele>
        <time>2025-04-25T06:42:56Z</time>
      </trkpt>
      <trkpt lat="45.279419040307403" lon="3.302014041692019">
        <ele>608.16999999999996</ele>
        <time>2025-04-25T06:42:57Z</time>
      </trkpt>
      <trkpt lat="45.277762021869421" lon="3.301270985975862">
        <ele>615.38</ele>
        <time>2025-04-25T06:43:07Z</time>
      </trkpt>
      <trkpt lat="45.277285007759929" lon="3.300969991832972">
        <ele>616.82000000000005</ele>
        <time>2025-04-25T06:43:10Z</time>
      </trkpt>
      <trkpt lat="45.2771379891783" lon="3.300840994343162">
        <ele>617.29999999999995</ele>
        <time>2025-04-25T06:43:11Z</time>
      </trkpt>
      <trkpt lat="45.276188990101218" lon="3.299874980002642">
        <ele>619.23000000000002</ele>
        <time>2025-04-25T06:43:19Z</time>
      </trkpt>
      <trkpt lat="45.276011964306235" lon="3.299743970856071">
        <ele>619.23000000000002</ele>
        <time>2025-04-25T06:43:21Z</time>
      </trkpt>
      <trkpt lat="45.275916997343302" lon="3.299694014713168">
        <ele>619.23000000000002</ele>
        <time>2025-04-25T06:43:22Z</time>
      </trkpt>
      <trkpt lat="45.275797974318266" lon="3.299683034420013">
        <ele>619.23000000000002</ele>
        <time>2025-04-25T06:43:23Z</time>
      </trkpt>
      <trkpt lat="45.275667971000075" lon="3.299683034420013">
        <ele>619.23000000000002</ele>
        <time>2025-04-25T06:43:24Z</time>
      </trkpt>
      <trkpt lat="45.275528999045491" lon="3.299710024148226">
        <ele>618.75</ele>
        <time>2025-04-25T06:43:25Z</time>
      </trkpt>
      <trkpt lat="45.27432200498879" lon="3.299902975559235">
        <ele>617.29999999999995</ele>
        <time>2025-04-25T06:43:34Z</time>
      </trkpt>
      <trkpt lat="45.274209016934037" lon="3.299911022186279">
        <ele>617.29999999999995</ele>
        <time>2025-04-25T06:43:35Z</time>
      </trkpt>
      <trkpt lat="45.274104997515678" lon="3.299859976395965">
        <ele>617.29999999999995</ele>
        <time>2025-04-25T06:43:36Z</time>
      </trkpt>
      <trkpt lat="45.274018999189138" lon="3.299786970019341">
        <ele>617.29999999999995</ele>
        <time>2025-04-25T06:43:37Z</time>
      </trkpt>
      <trkpt lat="45.273938030004501" lon="3.299718992784619">
        <ele>616.82000000000005</ele>
        <time>2025-04-25T06:43:38Z</time>
      </trkpt>
      <trkpt lat="45.273869968950748" lon="3.299661995843053">
        <ele>616.34000000000003</ele>
        <time>2025-04-25T06:43:39Z</time>
      </trkpt>
      <trkpt lat="45.273676011711359" lon="3.299509026110172">
        <ele>616.34000000000003</ele>
        <time>2025-04-25T06:43:44Z</time>
      </trkpt>
      <trkpt lat="45.273620020598173" lon="3.299457980319858">
        <ele>616.34000000000003</ele>
        <time>2025-04-25T06:43:45Z</time>
      </trkpt>
      <trkpt lat="45.27354902587831" lon="3.299393020570278">
        <ele>616.34000000000003</ele>
        <time>2025-04-25T06:43:46Z</time>
      </trkpt>
      <trkpt lat="45.27346202172339" lon="3.29931297339499">
        <ele>616.34000000000003</ele>
        <time>2025-04-25T06:43:47Z</time>
      </trkpt>
      <trkpt lat="45.273350961506367" lon="3.299270980060101">
        <ele>616.34000000000003</ele>
        <time>2025-04-25T06:43:48Z</time>
      </trkpt>
      <trkpt lat="45.273221964016557" lon="3.299242984503508">
        <ele>616.34000000000003</ele>
        <time>2025-04-25T06:43:49Z</time>
      </trkpt>
      <trkpt lat="45.273083997890353" lon="3.299241978675127">
        <ele>616.82000000000005</ele>
        <time>2025-04-25T06:43:50Z</time>
      </trkpt>
      <trkpt lat="45.272934967651963" lon="3.299293024465442">
        <ele>616.82000000000005</ele>
        <time>2025-04-25T06:43:51Z</time>
      </trkpt>
      <trkpt lat="45.27277504093945" lon="3.299349015578628">
        <ele>616.82000000000005</ele>
        <time>2025-04-25T06:43:52Z</time>
      </trkpt>
      <trkpt lat="45.2726049721241" lon="3.299407018348575">
        <ele>616.82000000000005</ele>
        <time>2025-04-25T06:43:53Z</time>
      </trkpt>
      <trkpt lat="45.27168296277523" lon="3.299669036641717">
        <ele>614.89999999999998</ele>
        <time>2025-04-25T06:43:58Z</time>
      </trkpt>
      <trkpt lat="45.271499985828996" lon="3.299694014713168">
        <ele>614.41999999999996</ele>
        <time>2025-04-25T06:43:59Z</time>
      </trkpt>
      <trkpt lat="45.271321032196283" lon="3.299657972529531">
        <ele>614.41999999999996</ele>
        <time>2025-04-25T06:44:00Z</time>
      </trkpt>
      <trkpt lat="45.271136965602636" lon="3.299614973366261">
        <ele>613.94000000000005</ele>
        <time>2025-04-25T06:44:01Z</time>
      </trkpt>
      <trkpt lat="45.270957006141543" lon="3.299532998353243">
        <ele>613.46000000000004</ele>
        <time>2025-04-25T06:44:02Z</time>
      </trkpt>
      <trkpt lat="45.270774029195309" lon="3.299444988369942">
        <ele>613.46000000000004</ele>
        <time>2025-04-25T06:44:03Z</time>
      </trkpt>
      <trkpt lat="45.269348016008735" lon="3.298734035342932">
        <ele>612.98000000000002</ele>
        <time>2025-04-25T06:44:12Z</time>
      </trkpt>
      <trkpt lat="45.269233016297221" lon="3.298705033957958">
        <ele>613.46000000000004</ele>
        <time>2025-04-25T06:44:13Z</time>
      </trkpt>
      <trkpt lat="45.269138971343637" lon="3.298704028129578">
        <ele>613.46000000000004</ele>
        <time>2025-04-25T06:44:14Z</time>
      </trkpt>
      <trkpt lat="45.269050039350986" lon="3.298760019242764">
        <ele>613.46000000000004</ele>
        <time>2025-04-25T06:44:15Z</time>
      </trkpt>
      <trkpt lat="45.268988013267517" lon="3.298825984820724">
        <ele>612.98000000000002</ele>
        <time>2025-04-25T06:44:16Z</time>
      </trkpt>
      <trkpt lat="45.268959011882544" lon="3.298964034765959">
        <ele>612.98000000000002</ele>
        <time>2025-04-25T06:44:17Z</time>
      </trkpt>
      <trkpt lat="45.268926993012428" lon="3.299117004498839">
        <ele>612.98000000000002</ele>
        <time>2025-04-25T06:44:18Z</time>
      </trkpt>
      <trkpt lat="45.268895979970694" lon="3.29926997423172">
        <ele>612.5</ele>
        <time>2025-04-25T06:44:19Z</time>
      </trkpt>
      <trkpt lat="45.268864966928959" lon="3.299417998641729">
        <ele>612.01999999999998</ele>
        <time>2025-04-25T06:44:20Z</time>
      </trkpt>
      <trkpt lat="45.268787015229464" lon="3.299584966152906">
        <ele>611.53999999999996</ele>
        <time>2025-04-25T06:44:21Z</time>
      </trkpt>
      <trkpt lat="45.268556009978056" lon="3.300134986639023">
        <ele>612.01999999999998</ele>
        <time>2025-04-25T06:44:24Z</time>
      </trkpt>
      <trkpt lat="45.268504964187741" lon="3.300333973020315">
        <ele>612.01999999999998</ele>
        <time>2025-04-25T06:44:25Z</time>
      </trkpt>
      <trkpt lat="45.268416032195091" lon="3.300679977983236">
        <ele>612.98000000000002</ele>
        <time>2025-04-25T06:44:27Z</time>
      </trkpt>
      <trkpt lat="45.268364986404777" lon="3.300814004614949">
        <ele>613.46000000000004</ele>
        <time>2025-04-25T06:44:28Z</time>
      </trkpt>
      <trkpt lat="45.268299020826817" lon="3.300919029861689">
        <ele>613.46000000000004</ele>
        <time>2025-04-25T06:44:29Z</time>
      </trkpt>
      <trkpt lat="45.268205981701612" lon="3.300940990447998">
        <ele>613.94000000000005</ele>
        <time>2025-04-25T06:44:30Z</time>
      </trkpt>
      <trkpt lat="45.26809198781848" lon="3.300940990447998">
        <ele>614.41999999999996</ele>
        <time>2025-04-25T06:44:31Z</time>
      </trkpt>
      <trkpt lat="45.26796399615705" lon="3.300940990447998">
        <ele>614.89999999999998</ele>
        <time>2025-04-25T06:44:32Z</time>
      </trkpt>
      <trkpt lat="45.267843967303634" lon="3.300862032920122">
        <ele>615.38</ele>
        <time>2025-04-25T06:44:33Z</time>
      </trkpt>
      <trkpt lat="45.266922041773796" lon="3.300240011885762">
        <ele>620.19000000000005</ele>
        <time>2025-04-25T06:44:39Z</time>
      </trkpt>
      <trkpt lat="45.265762992203236" lon="3.299497039988637">
        <ele>626.91999999999996</ele>
        <time>2025-04-25T06:44:46Z</time>
      </trkpt>
      <trkpt lat="45.26525697670877" lon="3.29931003972888">
        <ele>629.79999999999995</ele>
        <time>2025-04-25T06:44:49Z</time>
      </trkpt>
      <trkpt lat="45.263847978785634" lon="3.299401989206672">
        <ele>638.45000000000005</ele>
        <time>2025-04-25T06:44:57Z</time>
      </trkpt>
      <trkpt lat="45.261529041454196" lon="3.30004395917058">
        <ele>648.07000000000005</ele>
        <time>2025-04-25T06:45:09Z</time>
      </trkpt>
      <trkpt lat="45.261193010956049" lon="3.300163988023996">
        <ele>649.99000000000001</ele>
        <time>2025-04-25T06:45:11Z</time>
      </trkpt>
      <trkpt lat="45.261048004031181" lon="3.300260966643691">
        <ele>650.95000000000005</ele>
        <time>2025-04-25T06:45:12Z</time>
      </trkpt>
      <trkpt lat="45.26091598905623" lon="3.300392981618643">
        <ele>652.38999999999999</ele>
        <time>2025-04-25T06:45:13Z</time>
      </trkpt>
      <trkpt lat="45.260801995173097" lon="3.30055701546371">
        <ele>653.83000000000004</ele>
        <time>2025-04-25T06:45:14Z</time>
      </trkpt>
      <trkpt lat="45.260704010725021" lon="3.300764970481396">
        <ele>654.79999999999995</ele>
        <time>2025-04-25T06:45:15Z</time>
      </trkpt>
      <trkpt lat="45.260618012398481" lon="3.301002010703087">
        <ele>656.24000000000001</ele>
        <time>2025-04-25T06:45:16Z</time>
      </trkpt>
      <trkpt lat="45.26033797301352" lon="3.301708018407226">
        <ele>660.08000000000004</ele>
        <time>2025-04-25T06:45:19Z</time>
      </trkpt>
      <trkpt lat="45.260105039924383" lon="3.302122000604868">
        <ele>662.00999999999999</ele>
        <time>2025-04-25T06:45:21Z</time>
      </trkpt>
      <trkpt lat="45.259953998029232" lon="3.302312018349767">
        <ele>663.45000000000005</ele>
        <time>2025-04-25T06:45:22Z</time>
      </trkpt>
      <trkpt lat="45.258322041481733" lon="3.304131980985403">
        <ele>673.53999999999996</ele>
        <time>2025-04-25T06:45:32Z</time>
      </trkpt>
      <trkpt lat="45.258147027343512" lon="3.304225020110607">
        <ele>674.5</ele>
        <time>2025-04-25T06:45:33Z</time>
      </trkpt>
      <trkpt lat="45.256349025294185" lon="3.30517603084445">
        <ele>683.14999999999998</ele>
        <time>2025-04-25T06:45:43Z</time>
      </trkpt>
      <trkpt lat="45.256006037816405" lon="3.305290024727583">
        <ele>684.12</ele>
        <time>2025-04-25T06:45:45Z</time>
      </trkpt>
      <trkpt lat="45.255831023678184" lon="3.305278960615397">
        <ele>684.60000000000002</ele>
        <time>2025-04-25T06:45:46Z</time>
      </trkpt>
      <trkpt lat="45.255647040903568" lon="3.305266974493861">
        <ele>685.08000000000004</ele>
        <time>2025-04-25T06:45:47Z</time>
      </trkpt>
      <trkpt lat="45.254395036026835" lon="3.3048539981246">
        <ele>689.39999999999998</ele>
        <time>2025-04-25T06:45:54Z</time>
      </trkpt>
      <trkpt lat="45.254237037152052" lon="3.304716031998396">
        <ele>690.36000000000001</ele>
        <time>2025-04-25T06:45:55Z</time>
      </trkpt>
      <trkpt lat="45.254091024398804" lon="3.304559038951993">
        <ele>690.84000000000003</ele>
        <time>2025-04-25T06:45:56Z</time>
      </trkpt>
      <trkpt lat="45.253965966403484" lon="3.304369021207094">
        <ele>691.80999999999995</ele>
        <time>2025-04-25T06:45:57Z</time>
      </trkpt>
      <trkpt lat="45.253855995833874" lon="3.304180009290576">
        <ele>692.76999999999998</ele>
        <time>2025-04-25T06:45:58Z</time>
      </trkpt>
      <trkpt lat="45.253678970038891" lon="3.303791005164385">
        <ele>694.69000000000005</ele>
        <time>2025-04-25T06:46:00Z</time>
      </trkpt>
      <trkpt lat="45.253618033602834" lon="3.303580032661557">
        <ele>695.16999999999996</ele>
        <time>2025-04-25T06:46:01Z</time>
      </trkpt>
      <trkpt lat="45.253571011126041" lon="3.303366964682937">
        <ele>696.13</ele>
        <time>2025-04-25T06:46:02Z</time>
      </trkpt>
      <trkpt lat="45.253522982820868" lon="3.303150963038206">
        <ele>697.09000000000003</ele>
        <time>2025-04-25T06:46:03Z</time>
      </trkpt>
      <trkpt lat="45.253501022234559" lon="3.30296203494072">
        <ele>697.57000000000005</ele>
        <time>2025-04-25T06:46:04Z</time>
      </trkpt>
      <trkpt lat="45.253441007807851" lon="3.302434980869293">
        <ele>698.04999999999995</ele>
        <time>2025-04-25T06:46:07Z</time>
      </trkpt>
      <trkpt lat="45.253386022523046" lon="3.302343031391501">
        <ele>698.52999999999997</ele>
        <time>2025-04-25T06:46:08Z</time>
      </trkpt>
      <trkpt lat="45.253316033631563" lon="3.302263990044594">
        <ele>698.52999999999997</ele>
        <time>2025-04-25T06:46:09Z</time>
      </trkpt>
      <trkpt lat="45.25324403308332" lon="3.302178997546434">
        <ele>698.52999999999997</ele>
        <time>2025-04-25T06:46:10Z</time>
      </trkpt>
      <trkpt lat="45.253173038363457" lon="3.302113031968474">
        <ele>699.01999999999998</ele>
        <time>2025-04-25T06:46:11Z</time>
      </trkpt>
      <trkpt lat="45.253058960661292" lon="3.302081013098359">
        <ele>699.01999999999998</ele>
        <time>2025-04-25T06:46:12Z</time>
      </trkpt>
      <trkpt lat="45.252935998141766" lon="3.302143039181829">
        <ele>699.5</ele>
        <time>2025-04-25T06:46:13Z</time>
      </trkpt>
      <trkpt lat="45.252796020358801" lon="3.302221996709704">
        <ele>699.98000000000002</ele>
        <time>2025-04-25T06:46:14Z</time>
      </trkpt>
      <trkpt lat="45.25264497846365" lon="3.302306989207864">
        <ele>700.46000000000004</ele>
        <time>2025-04-25T06:46:15Z</time>
      </trkpt>
      <trkpt lat="45.252471975982189" lon="3.302374966442585">
        <ele>700.94000000000005</ele>
        <time>2025-04-25T06:46:16Z</time>
      </trkpt>
      <trkpt lat="45.252302996814251" lon="3.302411008626223">
        <ele>701.89999999999998</ele>
        <time>2025-04-25T06:46:17Z</time>
      </trkpt>
      <trkpt lat="45.25215002708137" lon="3.302443027496338">
        <ele>702.38</ele>
        <time>2025-04-25T06:46:18Z</time>
      </trkpt>
      <trkpt lat="45.251988004893064" lon="3.302398016676307">
        <ele>702.86000000000001</ele>
        <time>2025-04-25T06:46:19Z</time>
      </trkpt>
      <trkpt lat="45.251847021281719" lon="3.302359040826559">
        <ele>703.34000000000003</ele>
        <time>2025-04-25T06:46:20Z</time>
      </trkpt>
      <trkpt lat="45.251727998256683" lon="3.30227798782289">
        <ele>703.82000000000005</ele>
        <time>2025-04-25T06:46:21Z</time>
      </trkpt>
      <trkpt lat="45.251641999930143" lon="3.302137004211545">
        <ele>704.77999999999997</ele>
        <time>2025-04-25T06:46:22Z</time>
      </trkpt>
      <trkpt lat="45.251551978290081" lon="3.301990991458297">
        <ele>705.25999999999999</ele>
        <time>2025-04-25T06:46:23Z</time>
      </trkpt>
      <trkpt lat="45.251457011327147" lon="3.301836010068655">
        <ele>706.23000000000002</ele>
        <time>2025-04-25T06:46:24Z</time>
      </trkpt>
      <trkpt lat="45.25135600939393" lon="3.301670970395207">
        <ele>707.19000000000005</ele>
        <time>2025-04-25T06:46:25Z</time>
      </trkpt>
      <trkpt lat="45.251233968883753" lon="3.3015660289675">
        <ele>708.14999999999998</ele>
        <time>2025-04-25T06:46:26Z</time>
      </trkpt>
      <trkpt lat="45.251086028292775" lon="3.301541972905397">
        <ele>708.63</ele>
        <time>2025-04-25T06:46:27Z</time>
      </trkpt>
      <trkpt lat="45.250930041074753" lon="3.301541972905397">
        <ele>709.59000000000003</ele>
        <time>2025-04-25T06:46:28Z</time>
      </trkpt>
      <trkpt lat="45.250759972259402" lon="3.301605004817247">
        <ele>710.07000000000005</ele>
        <time>2025-04-25T06:46:29Z</time>
      </trkpt>
      <trkpt lat="45.25058101862669" lon="3.301683040335774">
        <ele>710.54999999999995</ele>
        <time>2025-04-25T06:46:30Z</time>
      </trkpt>
      <trkpt lat="45.249512996524572" lon="3.301912033930421">
        <ele>715.84000000000003</ele>
        <time>2025-04-25T06:46:36Z</time>
      </trkpt>
      <trkpt lat="45.249364972114563" lon="3.301887977868319">
        <ele>716.32000000000005</ele>
        <time>2025-04-25T06:46:37Z</time>
      </trkpt>
      <trkpt lat="45.249243015423417" lon="3.301813965663314">
        <ele>717.27999999999997</ele>
        <time>2025-04-25T06:46:38Z</time>
      </trkpt>
      <trkpt lat="45.249134972691536" lon="3.30174196511507">
        <ele>718.24000000000001</ele>
        <time>2025-04-25T06:46:39Z</time>
      </trkpt>
      <trkpt lat="45.249060960486531" lon="3.301629982888699">
        <ele>719.20000000000005</ele>
        <time>2025-04-25T06:46:40Z</time>
      </trkpt>
      <trkpt lat="45.249001029878855" lon="3.301529986783862">
        <ele>720.15999999999997</ele>
        <time>2025-04-25T06:46:41Z</time>
      </trkpt>
      <trkpt lat="45.248947972431779" lon="3.301441976800561">
        <ele>721.13</ele>
        <time>2025-04-25T06:46:42Z</time>
      </trkpt>
      <trkpt lat="45.248891981318593" lon="3.301358995959163">
        <ele>722.09000000000003</ele>
        <time>2025-04-25T06:46:43Z</time>
      </trkpt>
      <trkpt lat="45.248375991359353" lon="3.300645025447011">
        <ele>728.34000000000003</ele>
        <time>2025-04-25T06:46:51Z</time>
      </trkpt>
      <trkpt lat="45.248226961120963" lon="3.300508987158537">
        <ele>729.77999999999997</ele>
        <time>2025-04-25T06:46:53Z</time>
      </trkpt>
      <trkpt lat="45.247973995283246" lon="3.300351994112134">
        <ele>731.22000000000003</ele>
        <time>2025-04-25T06:46:56Z</time>
      </trkpt>
      <trkpt lat="45.247900988906622" lon="3.300318969413638">
        <ele>731.70000000000005</ele>
        <time>2025-04-25T06:46:57Z</time>
      </trkpt>
      <trkpt lat="45.247800992801785" lon="3.300293991342187">
        <ele>732.17999999999995</ele>
        <time>2025-04-25T06:46:58Z</time>
      </trkpt>
      <trkpt lat="45.247643999755383" lon="3.300254009664059">
        <ele>732.65999999999997</ele>
        <time>2025-04-25T06:47:00Z</time>
      </trkpt>
      <trkpt lat="45.247536962851882" lon="3.300289968028665">
        <ele>733.13999999999999</ele>
        <time>2025-04-25T06:47:01Z</time>
      </trkpt>
      <trkpt lat="45.247449958696961" lon="3.300318969413638">
        <ele>733.13999999999999</ele>
        <time>2025-04-25T06:47:02Z</time>
      </trkpt>
      <trkpt lat="45.247363038361073" lon="3.300378983840346">
        <ele>733.13999999999999</ele>
        <time>2025-04-25T06:47:03Z</time>
      </trkpt>
      <trkpt lat="45.247276034206152" lon="3.300438998267055">
        <ele>733.13999999999999</ele>
        <time>2025-04-25T06:47:04Z</time>
      </trkpt>
      <trkpt lat="45.247185006737709" lon="3.300503036007285">
        <ele>732.65999999999997</ele>
        <time>2025-04-25T06:47:05Z</time>
      </trkpt>
      <trkpt lat="45.247086016461253" lon="3.30055802129209">
        <ele>732.65999999999997</ele>
        <time>2025-04-25T06:47:06Z</time>
      </trkpt>
      <trkpt lat="45.246983002871275" lon="3.300614012405276">
        <ele>733.13999999999999</ele>
        <time>2025-04-25T06:47:07Z</time>
      </trkpt>
      <trkpt lat="45.246876971796155" lon="3.300649970769882">
        <ele>733.13999999999999</ele>
        <time>2025-04-25T06:47:08Z</time>
      </trkpt>
      <trkpt lat="45.246759038418531" lon="3.300651982426643">
        <ele>733.62</ele>
        <time>2025-04-25T06:47:09Z</time>
      </trkpt>
      <trkpt lat="45.24663096293807" lon="3.30062298104167">
        <ele>733.62</ele>
        <time>2025-04-25T06:47:10Z</time>
      </trkpt>
      <trkpt lat="45.245508039370179" lon="3.300220984965563">
        <ele>736.02999999999997</ele>
        <time>2025-04-25T06:47:17Z</time>
      </trkpt>
      <trkpt lat="45.243895025923848" lon="3.299266034737229">
        <ele>740.35000000000002</ele>
        <time>2025-04-25T06:47:26Z</time>
      </trkpt>
      <trkpt lat="45.242515029385686" lon="3.298298008739948">
        <ele>748.03999999999996</ele>
        <time>2025-04-25T06:47:34Z</time>
      </trkpt>
      <trkpt lat="45.242199031636119" lon="3.298122994601727">
        <ele>749</ele>
        <time>2025-04-25T06:47:36Z</time>
      </trkpt>
      <trkpt lat="45.242061987519264" lon="3.298009000718594">
        <ele>749.97000000000003</ele>
        <time>2025-04-25T06:47:37Z</time>
      </trkpt>
      <trkpt lat="45.241954028606415" lon="3.297852007672191">
        <ele>750.45000000000005</ele>
        <time>2025-04-25T06:47:38Z</time>
      </trkpt>
      <trkpt lat="45.241841962561011" lon="3.297683028504252">
        <ele>751.40999999999997</ele>
        <time>2025-04-25T06:47:39Z</time>
      </trkpt>
      <trkpt lat="45.241752024739981" lon="3.29748596996069">
        <ele>752.37</ele>
        <time>2025-04-25T06:47:40Z</time>
      </trkpt>
      <trkpt lat="45.241510039195418" lon="3.296955982223153">
        <ele>754.28999999999996</ele>
        <time>2025-04-25T06:47:43Z</time>
      </trkpt>
      <trkpt lat="45.241507021710277" lon="3.296774011105299">
        <ele>754.76999999999998</ele>
        <time>2025-04-25T06:47:44Z</time>
      </trkpt>
      <trkpt lat="45.241507021710277" lon="3.296619029715657">
        <ele>755.25</ele>
        <time>2025-04-25T06:47:45Z</time>
      </trkpt>
      <trkpt lat="45.241549015045166" lon="3.296490032225847">
        <ele>755.73000000000002</ele>
        <time>2025-04-25T06:47:46Z</time>
      </trkpt>
      <trkpt lat="45.241638030856848" lon="3.296380983665586">
        <ele>756.21000000000004</ele>
        <time>2025-04-25T06:47:47Z</time>
      </trkpt>
      <trkpt lat="45.241753030568361" lon="3.296290040016174">
        <ele>756.69000000000005</ele>
        <time>2025-04-25T06:47:48Z</time>
      </trkpt>
      <trkpt lat="45.241894014179707" lon="3.296247962862253">
        <ele>757.17999999999995</ele>
        <time>2025-04-25T06:47:49Z</time>
      </trkpt>
      <trkpt lat="45.242046983912587" lon="3.296202030032873">
        <ele>757.17999999999995</ele>
        <time>2025-04-25T06:47:50Z</time>
      </trkpt>
      <trkpt lat="45.242348983883858" lon="3.29610999673605">
        <ele>757.65999999999997</ele>
        <time>2025-04-25T06:47:52Z</time>
      </trkpt>
      <trkpt lat="45.242472030222416" lon="3.296048976480961">
        <ele>757.65999999999997</ele>
        <time>2025-04-25T06:47:53Z</time>
      </trkpt>
      <trkpt lat="45.242599016055465" lon="3.295913022011519">
        <ele>757.65999999999997</ele>
        <time>2025-04-25T06:47:54Z</time>
      </trkpt>
      <trkpt lat="45.242723990231752" lon="3.295776983723044">
        <ele>758.13999999999999</ele>
        <time>2025-04-25T06:47:55Z</time>
      </trkpt>
      <trkpt lat="45.242839995771646" lon="3.295603981241584">
        <ele>758.62</ele>
        <time>2025-04-25T06:47:56Z</time>
      </trkpt>
      <trkpt lat="45.242950972169638" lon="3.295425027608872">
        <ele>759.10000000000002</ele>
        <time>2025-04-25T06:47:57Z</time>
      </trkpt>
      <trkpt lat="45.243208967149258" lon="3.294867966324091">
        <ele>759.58000000000004</ele>
        <time>2025-04-25T06:48:00Z</time>
      </trkpt>
      <trkpt lat="45.243264958262444" lon="3.294678032398224">
        <ele>760.05999999999995</ele>
        <time>2025-04-25T06:48:01Z</time>
      </trkpt>
      <trkpt lat="45.243303012102842" lon="3.29447703436017">
        <ele>760.05999999999995</ele>
        <time>2025-04-25T06:48:02Z</time>
      </trkpt>
      <trkpt lat="45.243328996002674" lon="3.294265978038311">
        <ele>760.53999999999996</ele>
        <time>2025-04-25T06:48:03Z</time>
      </trkpt>
      <trkpt lat="45.243322961032391" lon="3.294047964736819">
        <ele>761.01999999999998</ele>
        <time>2025-04-25T06:48:04Z</time>
      </trkpt>
      <trkpt lat="45.243316004052758" lon="3.293820982798934">
        <ele>761.01999999999998</ele>
        <time>2025-04-25T06:48:05Z</time>
      </trkpt>
      <trkpt lat="45.243290020152926" lon="3.292885981500149">
        <ele>762.46000000000004</ele>
        <time>2025-04-25T06:48:09Z</time>
      </trkpt>
      <trkpt lat="45.243250038474798" lon="3.292660005390644">
        <ele>762.94000000000005</ele>
        <time>2025-04-25T06:48:10Z</time>
      </trkpt>
      <trkpt lat="45.243193963542581" lon="3.292434029281139">
        <ele>763.41999999999996</ele>
        <time>2025-04-25T06:48:11Z</time>
      </trkpt>
      <trkpt lat="45.243135960772634" lon="3.292203024029732">
        <ele>763.89999999999998</ele>
        <time>2025-04-25T06:48:12Z</time>
      </trkpt>
      <trkpt lat="45.243052979931235" lon="3.291996996849775">
        <ele>763.89999999999998</ele>
        <time>2025-04-25T06:48:13Z</time>
      </trkpt>
      <trkpt lat="45.242965975776315" lon="3.291821982711554">
        <ele>764.38999999999999</ele>
        <time>2025-04-25T06:48:14Z</time>
      </trkpt>
      <trkpt lat="45.242887018248439" lon="3.29166398383677">
        <ele>764.38999999999999</ele>
        <time>2025-04-25T06:48:15Z</time>
      </trkpt>
      <trkpt lat="45.242758020758629" lon="3.291582008823752">
        <ele>764.38999999999999</ele>
        <time>2025-04-25T06:48:16Z</time>
      </trkpt>
      <trkpt lat="45.242624999955297" lon="3.291528029367328">
        <ele>764.87</ele>
        <time>2025-04-25T06:48:17Z</time>
      </trkpt>
      <trkpt lat="45.242479993030429" lon="3.291493998840451">
        <ele>764.87</ele>
        <time>2025-04-25T06:48:18Z</time>
      </trkpt>
      <trkpt lat="45.242065005004406" lon="3.291397020220757">
        <ele>766.30999999999995</ele>
        <time>2025-04-25T06:48:21Z</time>
      </trkpt>
      <trkpt lat="45.241961991414428" lon="3.291311021894217">
        <ele>766.78999999999996</ele>
        <time>2025-04-25T06:48:22Z</time>
      </trkpt>
      <trkpt lat="45.241890996694565" lon="3.291193004697561">
        <ele>767.26999999999998</ele>
        <time>2025-04-25T06:48:23Z</time>
      </trkpt>
      <trkpt lat="45.241850009188056" lon="3.291069958359003">
        <ele>767.75</ele>
        <time>2025-04-25T06:48:24Z</time>
      </trkpt>
      <trkpt lat="45.241855038329959" lon="3.29086996614933">
        <ele>768.23000000000002</ele>
        <time>2025-04-25T06:48:25Z</time>
      </trkpt>
      <trkpt lat="45.241860989481211" lon="3.290677014738321">
        <ele>769.19000000000005</ele>
        <time>2025-04-25T06:48:26Z</time>
      </trkpt>
      <trkpt lat="45.241866018623114" lon="3.290470987558365">
        <ele>770.14999999999998</ele>
        <time>2025-04-25T06:48:27Z</time>
      </trkpt>
      <trkpt lat="45.241870963945985" lon="3.290277030318975">
        <ele>771.11000000000001</ele>
        <time>2025-04-25T06:48:28Z</time>
      </trkpt>
      <trkpt lat="45.241832993924618" lon="3.290085000917316">
        <ele>771.60000000000002</ele>
        <time>2025-04-25T06:48:29Z</time>
      </trkpt>
      <trkpt lat="45.241774991154671" lon="3.289905041456223">
        <ele>772.08000000000004</ele>
        <time>2025-04-25T06:48:30Z</time>
      </trkpt>
      <trkpt lat="45.241680024191737" lon="3.289755005389452">
        <ele>772.55999999999995</ele>
        <time>2025-04-25T06:48:31Z</time>
      </trkpt>
      <trkpt lat="45.241583967581391" lon="3.289604969322681">
        <ele>773.51999999999998</ele>
        <time>2025-04-25T06:48:32Z</time>
      </trkpt>
      <trkpt lat="45.241481959819794" lon="3.289461974054575">
        <ele>774</ele>
        <time>2025-04-25T06:48:33Z</time>
      </trkpt>
      <trkpt lat="45.241367965936661" lon="3.2893639896065">
        <ele>774.96000000000004</ele>
        <time>2025-04-25T06:48:34Z</time>
      </trkpt>
      <trkpt lat="45.241243997588754" lon="3.289332976564765">
        <ele>775.44000000000005</ele>
        <time>2025-04-25T06:48:35Z</time>
      </trkpt>
      <trkpt lat="45.241120029240847" lon="3.289311015978456">
        <ele>776.39999999999998</ele>
        <time>2025-04-25T06:48:36Z</time>
      </trkpt>
      <trkpt lat="45.241002012044191" lon="3.289370024576783">
        <ele>777.36000000000001</ele>
        <time>2025-04-25T06:48:37Z</time>
      </trkpt>
      <trkpt lat="45.240888018161058" lon="3.289482006803155">
        <ele>778.32000000000005</ele>
        <time>2025-04-25T06:48:38Z</time>
      </trkpt>
      <trkpt lat="45.240762960165739" lon="3.289611004292965">
        <ele>778.80999999999995</ele>
        <time>2025-04-25T06:48:39Z</time>
      </trkpt>
      <trkpt lat="45.24022601544857" lon="3.29013797454536">
        <ele>782.64999999999998</ele>
        <time>2025-04-25T06:48:43Z</time>
      </trkpt>
      <trkpt lat="45.240102969110012" lon="3.290208969265223">
        <ele>783.61000000000001</ele>
        <time>2025-04-25T06:48:44Z</time>
      </trkpt>
      <trkpt lat="45.23998998105526" lon="3.290195977315307">
        <ele>784.57000000000005</ele>
        <time>2025-04-25T06:48:45Z</time>
      </trkpt>
      <trkpt lat="45.239897025749087" lon="3.290140992030501">
        <ele>785.04999999999995</ele>
        <time>2025-04-25T06:48:46Z</time>
      </trkpt>
      <trkpt lat="45.239798035472631" lon="3.290026998147368">
        <ele>786.01999999999998</ele>
        <time>2025-04-25T06:48:47Z</time>
      </trkpt>
      <trkpt lat="45.239687981083989" lon="3.2899010181427">
        <ele>786.98000000000002</ele>
        <time>2025-04-25T06:48:48Z</time>
      </trkpt>
      <trkpt lat="45.239569963887334" lon="3.289764979854226">
        <ele>787.94000000000005</ele>
        <time>2025-04-25T06:48:49Z</time>
      </trkpt>
      <trkpt lat="45.239457981660962" lon="3.289586026221514">
        <ele>788.41999999999996</ele>
        <time>2025-04-25T06:48:50Z</time>
      </trkpt>
      <trkpt lat="45.2393679600209" lon="3.289395002648234">
        <ele>789.38</ele>
        <time>2025-04-25T06:48:51Z</time>
      </trkpt>
      <trkpt lat="45.239287996664643" lon="3.289200039580464">
        <ele>790.34000000000003</ele>
        <time>2025-04-25T06:48:52Z</time>
      </trkpt>
      <trkpt lat="45.239218007773161" lon="3.288989989086986">
        <ele>791.77999999999997</ele>
        <time>2025-04-25T06:48:53Z</time>
      </trkpt>
      <trkpt lat="45.239148018881679" lon="3.288779016584158">
        <ele>793.22000000000003</ele>
        <time>2025-04-25T06:48:54Z</time>
      </trkpt>
      <trkpt lat="45.239069983363152" lon="3.288559997454286">
        <ele>794.66999999999996</ele>
        <time>2025-04-25T06:48:55Z</time>
      </trkpt>
      <trkpt lat="45.238955989480019" lon="3.288364028558135">
        <ele>795.63</ele>
        <time>2025-04-25T06:48:56Z</time>
      </trkpt>
      <trkpt lat="45.23884903639555" lon="3.288178034126759">
        <ele>796.59000000000003</ele>
        <time>2025-04-25T06:48:57Z</time>
      </trkpt>
      <trkpt lat="45.238710986450315" lon="3.288038978353143">
        <ele>797.54999999999995</ele>
        <time>2025-04-25T06:48:58Z</time>
      </trkpt>
      <trkpt lat="45.238568997010589" lon="3.287922972813249">
        <ele>798.99000000000001</ele>
        <time>2025-04-25T06:48:59Z</time>
      </trkpt>
      <trkpt lat="45.238427007570863" lon="3.28783999197185">
        <ele>799.95000000000005</ele>
        <time>2025-04-25T06:49:00Z</time>
      </trkpt>
      <trkpt lat="45.23829398676753" lon="3.28781702555716">
        <ele>800.91999999999996</ele>
        <time>2025-04-25T06:49:01Z</time>
      </trkpt>
      <trkpt lat="45.238159038126469" lon="3.287830017507076">
        <ele>801.88</ele>
        <time>2025-04-25T06:49:02Z</time>
      </trkpt>
      <trkpt lat="45.238032974302769" lon="3.287935964763165">
        <ele>803.32000000000005</ele>
        <time>2025-04-25T06:49:03Z</time>
      </trkpt>
      <trkpt lat="45.237894002348185" lon="3.288051970303059">
        <ele>804.27999999999997</ele>
        <time>2025-04-25T06:49:04Z</time>
      </trkpt>
      <trkpt lat="45.237745977938175" lon="3.288176022469997">
        <ele>805.72000000000003</ele>
        <time>2025-04-25T06:49:05Z</time>
      </trkpt>
      <trkpt lat="45.236933017149568" lon="3.288835007697344">
        <ele>811.49000000000001</ele>
        <time>2025-04-25T06:49:10Z</time>
      </trkpt>
      <trkpt lat="45.23676797747612" lon="3.288898961618543">
        <ele>812.45000000000005</ele>
        <time>2025-04-25T06:49:11Z</time>
      </trkpt>
      <trkpt lat="45.236608972772956" lon="3.288960987702012">
        <ele>813.88999999999999</ele>
        <time>2025-04-25T06:49:12Z</time>
      </trkpt>
      <trkpt lat="45.236449968069792" lon="3.288968028500676">
        <ele>814.85000000000002</ele>
        <time>2025-04-25T06:49:13Z</time>
      </trkpt>
      <trkpt lat="45.236293980851769" lon="3.288968028500676">
        <ele>815.82000000000005</ele>
        <time>2025-04-25T06:49:14Z</time>
      </trkpt>
      <trkpt lat="45.236150985583663" lon="3.288931986317039">
        <ele>816.77999999999997</ele>
        <time>2025-04-25T06:49:15Z</time>
      </trkpt>
      <trkpt lat="45.236021988093853" lon="3.288894016295672">
        <ele>817.25999999999999</ele>
        <time>2025-04-25T06:49:16Z</time>
      </trkpt>
      <trkpt lat="45.235909000039101" lon="3.288860991597176">
        <ele>818.22000000000003</ele>
        <time>2025-04-25T06:49:17Z</time>
      </trkpt>
      <trkpt lat="45.235829958692193" lon="3.288746997714043">
        <ele>819.17999999999995</ele>
        <time>2025-04-25T06:49:18Z</time>
      </trkpt>
      <trkpt lat="45.235781008377671" lon="3.288627974689007">
        <ele>819.65999999999997</ele>
        <time>2025-04-25T06:49:19Z</time>
      </trkpt>
      <trkpt lat="45.235791988670826" lon="3.288495959714055">
        <ele>820.13999999999999</ele>
        <time>2025-04-25T06:49:20Z</time>
      </trkpt>
      <trkpt lat="45.235829958692193" lon="3.288357993587852">
        <ele>820.62</ele>
        <time>2025-04-25T06:49:21Z</time>
      </trkpt>
      <trkpt lat="45.235905982553959" lon="3.288231007754803">
        <ele>821.10000000000002</ele>
        <time>2025-04-25T06:49:22Z</time>
      </trkpt>
      <trkpt lat="45.235988041386008" lon="3.288093963637948">
        <ele>822.05999999999995</ele>
        <time>2025-04-25T06:49:23Z</time>
      </trkpt>
      <trkpt lat="45.23605702444911" lon="3.287963960319758">
        <ele>822.05999999999995</ele>
        <time>2025-04-25T06:49:24Z</time>
      </trkpt>
      <trkpt lat="45.236063981428742" lon="3.287800010293722">
        <ele>822.05999999999995</ele>
        <time>2025-04-25T06:49:25Z</time>
      </trkpt>
      <trkpt lat="45.236070016399026" lon="3.287674030289054">
        <ele>821.58000000000004</ele>
        <time>2025-04-25T06:49:26Z</time>
      </trkpt>
      <trkpt lat="45.236072028055787" lon="3.287612004205585">
        <ele>821.58000000000004</ele>
        <time>2025-04-25T06:49:27Z</time>
      </trkpt>
      <trkpt lat="45.236074039712548" lon="3.287573028355837">
        <ele>821.58000000000004</ele>
        <time>2025-04-25T06:49:28Z</time>
      </trkpt>
      <trkpt lat="45.236077979207039" lon="3.287487030029297">
        <ele>821.58000000000004</ele>
        <time>2025-04-25T06:49:29Z</time>
      </trkpt>
      <trkpt lat="45.236022993922234" lon="3.287528017535806">
        <ele>821.10000000000002</ele>
        <time>2025-04-25T06:49:30Z</time>
      </trkpt>
      <trkpt lat="45.235991980880499" lon="3.287550983950496">
        <ele>821.10000000000002</ele>
        <time>2025-04-25T06:49:31Z</time>
      </trkpt>
      <trkpt lat="45.235972031950951" lon="3.287617033347487">
        <ele>820.62</ele>
        <time>2025-04-25T06:49:32Z</time>
      </trkpt>
      <trkpt lat="45.235949987545609" lon="3.28768702223897">
        <ele>820.62</ele>
        <time>2025-04-25T06:49:33Z</time>
      </trkpt>
      <trkpt lat="45.235925009474158" lon="3.287768997251988">
        <ele>820.62</ele>
        <time>2025-04-25T06:49:34Z</time>
      </trkpt>
      <trkpt lat="45.235895002260804" lon="3.287867987528443">
        <ele>820.62</ele>
        <time>2025-04-25T06:49:35Z</time>
      </trkpt>
      <trkpt lat="45.235862983390689" lon="3.287972006946802">
        <ele>821.10000000000002</ele>
        <time>2025-04-25T06:49:36Z</time>
      </trkpt>
      <trkpt lat="45.235831970348954" lon="3.288072003051639">
        <ele>821.58000000000004</ele>
        <time>2025-04-25T06:49:37Z</time>
      </trkpt>
      <trkpt lat="45.235761981457472" lon="3.288174010813236">
        <ele>822.05999999999995</ele>
        <time>2025-04-25T06:49:38Z</time>
      </trkpt>
      <trkpt lat="45.235684029757977" lon="3.288261014968157">
        <ele>822.54999999999995</ele>
        <time>2025-04-25T06:49:39Z</time>
      </trkpt>
      <trkpt lat="45.235597025603056" lon="3.288356987759471">
        <ele>823.02999999999997</ele>
        <time>2025-04-25T06:49:40Z</time>
      </trkpt>
      <trkpt lat="45.235508009791374" lon="3.288455978035927">
        <ele>823.02999999999997</ele>
        <time>2025-04-25T06:49:41Z</time>
      </trkpt>
      <trkpt lat="45.235429974272847" lon="3.288568966090679">
        <ele>823.02999999999997</ele>
        <time>2025-04-25T06:49:42Z</time>
      </trkpt>
      <trkpt lat="45.235411031171679" lon="3.288713973015547">
        <ele>823.02999999999997</ele>
        <time>2025-04-25T06:49:43Z</time>
      </trkpt>
      <trkpt lat="45.235393010079861" lon="3.28884799964726">
        <ele>823.02999999999997</ele>
        <time>2025-04-25T06:49:44Z</time>
      </trkpt>
      <trkpt lat="45.23541203700006" lon="3.288937015458942">
        <ele>823.02999999999997</ele>
        <time>2025-04-25T06:49:45Z</time>
      </trkpt>
      <trkpt lat="45.235441038385034" lon="3.28904296271503">
        <ele>823.02999999999997</ele>
        <time>2025-04-25T06:49:46Z</time>
      </trkpt>
      <trkpt lat="45.235483031719923" lon="3.289152011275291">
        <ele>823.50999999999999</ele>
        <time>2025-04-25T06:49:47Z</time>
      </trkpt>
      <trkpt lat="45.235540028661489" lon="3.289270028471947">
        <ele>824.47000000000003</ele>
        <time>2025-04-25T06:49:48Z</time>
      </trkpt>
      <trkpt lat="45.235729040578008" lon="3.289656015112996">
        <ele>828.30999999999995</ele>
        <time>2025-04-25T06:49:51Z</time>
      </trkpt>
      <trkpt lat="45.235858038067818" lon="3.289919961243868">
        <ele>831.20000000000005</ele>
        <time>2025-04-25T06:49:53Z</time>
      </trkpt>
      <trkpt lat="45.235921991989017" lon="3.290040995925665">
        <ele>832.15999999999997</ele>
        <time>2025-04-25T06:49:54Z</time>
      </trkpt>
      <trkpt lat="45.23599399253726" lon="3.29013898037374">
        <ele>832.63999999999999</ele>
        <time>2025-04-25T06:49:55Z</time>
      </trkpt>
      <trkpt lat="45.236059036105871" lon="3.290227996185422">
        <ele>833.60000000000002</ele>
        <time>2025-04-25T06:49:56Z</time>
      </trkpt>
      <trkpt lat="45.236116033047438" lon="3.290305025875568">
        <ele>833.12</ele>
        <time>2025-04-25T06:49:57Z</time>
      </trkpt>
      <trkpt lat="45.236142016947269" lon="3.290422037243843">
        <ele>833.12</ele>
        <time>2025-04-25T06:49:58Z</time>
      </trkpt>
      <trkpt lat="45.236142016947269" lon="3.290552040562034">
        <ele>832.63999999999999</ele>
        <time>2025-04-25T06:49:59Z</time>
      </trkpt>
      <trkpt lat="45.236106980592012" lon="3.290699981153011">
        <ele>832.63999999999999</ele>
        <time>2025-04-25T06:50:00Z</time>
      </trkpt>
      <trkpt lat="45.236045038327575" lon="3.290843982249498">
        <ele>832.63999999999999</ele>
        <time>2025-04-25T06:50:01Z</time>
      </trkpt>
      <trkpt lat="45.235976977273822" lon="3.291002986952663">
        <ele>832.15999999999997</ele>
        <time>2025-04-25T06:50:02Z</time>
      </trkpt>
      <trkpt lat="45.235904976725578" lon="3.291169032454491">
        <ele>832.63999999999999</ele>
        <time>2025-04-25T06:50:03Z</time>
      </trkpt>
      <trkpt lat="45.235181031748652" lon="3.292647013440728">
        <ele>834.55999999999995</ele>
        <time>2025-04-25T06:50:12Z</time>
      </trkpt>
      <trkpt lat="45.234670992940664" lon="3.293985016644001">
        <ele>839.37</ele>
        <time>2025-04-25T06:50:20Z</time>
      </trkpt>
      <trkpt lat="45.234292969107628" lon="3.294997969642282">
        <ele>841.28999999999996</ele>
        <time>2025-04-25T06:50:26Z</time>
      </trkpt>
      <trkpt lat="45.234205964952707" lon="3.295097965747118">
        <ele>841.28999999999996</ele>
        <time>2025-04-25T06:50:27Z</time>
      </trkpt>
      <trkpt lat="45.234104041010141" lon="3.295182958245277">
        <ele>841.76999999999998</ele>
        <time>2025-04-25T06:50:28Z</time>
      </trkpt>
      <trkpt lat="45.233998009935021" lon="3.295270968228579">
        <ele>841.76999999999998</ele>
        <time>2025-04-25T06:50:29Z</time>
      </trkpt>
      <trkpt lat="45.23388896137476" lon="3.295361995697022">
        <ele>841.76999999999998</ele>
        <time>2025-04-25T06:50:30Z</time>
      </trkpt>
      <trkpt lat="45.233774967491627" lon="3.29540197737515">
        <ele>841.76999999999998</ele>
        <time>2025-04-25T06:50:31Z</time>
      </trkpt>
      <trkpt lat="45.233646975830197" lon="3.295446988195181">
        <ele>841.28999999999996</ele>
        <time>2025-04-25T06:50:32Z</time>
      </trkpt>
      <trkpt lat="45.233516972512007" lon="3.295491999015212">
        <ele>840.80999999999995</ele>
        <time>2025-04-25T06:50:33Z</time>
      </trkpt>
      <trkpt lat="45.231921980157495" lon="3.296051993966103">
        <ele>838.40999999999997</ele>
        <time>2025-04-25T06:50:46Z</time>
      </trkpt>
      <trkpt lat="45.231809997931123" lon="3.296127011999488">
        <ele>837.92999999999995</ele>
        <time>2025-04-25T06:50:47Z</time>
      </trkpt>
      <trkpt lat="45.231704972684383" lon="3.296222984790802">
        <ele>838.40999999999997</ele>
        <time>2025-04-25T06:50:48Z</time>
      </trkpt>
      <trkpt lat="45.231595002114773" lon="3.296322980895639">
        <ele>837.92999999999995</ele>
        <time>2025-04-25T06:50:49Z</time>
      </trkpt>
      <trkpt lat="45.230503007769585" lon="3.297319002449513">
        <ele>832.15999999999997</ele>
        <time>2025-04-25T06:50:59Z</time>
      </trkpt>
      <trkpt lat="45.230417009443045" lon="3.29739703796804">
        <ele>831.67999999999995</ele>
        <time>2025-04-25T06:51:00Z</time>
      </trkpt>
      <trkpt lat="45.230350960046053" lon="3.29748303629458">
        <ele>831.20000000000005</ele>
        <time>2025-04-25T06:51:01Z</time>
      </trkpt>
      <trkpt lat="45.230288011953235" lon="3.297567022964358">
        <ele>830.72000000000003</ele>
        <time>2025-04-25T06:51:02Z</time>
      </trkpt>
      <trkpt lat="45.230254987254739" lon="3.297668024897575">
        <ele>830.24000000000001</ele>
        <time>2025-04-25T06:51:03Z</time>
      </trkpt>
      <trkpt lat="45.230222968384624" lon="3.297774977982044">
        <ele>829.75999999999999</ele>
        <time>2025-04-25T06:51:04Z</time>
      </trkpt>
      <trkpt lat="45.230217017233372" lon="3.297874974086881">
        <ele>828.78999999999996</ele>
        <time>2025-04-25T06:51:05Z</time>
      </trkpt>
      <trkpt lat="45.230212993919849" lon="3.297998020425439">
        <ele>827.83000000000004</ele>
        <time>2025-04-25T06:51:06Z</time>
      </trkpt>
      <trkpt lat="45.230208970606327" lon="3.298133974894881">
        <ele>827.35000000000002</ele>
        <time>2025-04-25T06:51:07Z</time>
      </trkpt>
      <trkpt lat="45.230205031111836" lon="3.298273030668497">
        <ele>826.38999999999999</ele>
        <time>2025-04-25T06:51:08Z</time>
      </trkpt>
      <trkpt lat="45.230201007798314" lon="3.298405967652798">
        <ele>825.42999999999995</ele>
        <time>2025-04-25T06:51:09Z</time>
      </trkpt>
      <trkpt lat="45.230212993919849" lon="3.298533037304878">
        <ele>824.47000000000003</ele>
        <time>2025-04-25T06:51:10Z</time>
      </trkpt>
      <trkpt lat="45.230255993083119" lon="3.298660023137927">
        <ele>823.50999999999999</ele>
        <time>2025-04-25T06:51:11Z</time>
      </trkpt>
      <trkpt lat="45.230327993631363" lon="3.298732023686171">
        <ele>823.02999999999997</ele>
        <time>2025-04-25T06:51:12Z</time>
      </trkpt>
      <trkpt lat="45.230405023321509" lon="3.298807963728905">
        <ele>822.54999999999995</ele>
        <time>2025-04-25T06:51:13Z</time>
      </trkpt>
      <trkpt lat="45.230497978627682" lon="3.298853980377317">
        <ele>822.54999999999995</ele>
        <time>2025-04-25T06:51:14Z</time>
      </trkpt>
      <trkpt lat="45.230592023581266" lon="3.298895973712206">
        <ele>823.02999999999997</ele>
        <time>2025-04-25T06:51:15Z</time>
      </trkpt>
      <trkpt lat="45.2306869905442" lon="3.298947019502521">
        <ele>823.50999999999999</ele>
        <time>2025-04-25T06:51:16Z</time>
      </trkpt>
      <trkpt lat="45.230783969163895" lon="3.298998987302184">
        <ele>823.99000000000001</ele>
        <time>2025-04-25T06:51:17Z</time>
      </trkpt>
      <trkpt lat="45.230882037431002" lon="3.299051960930228">
        <ele>824.47000000000003</ele>
        <time>2025-04-25T06:51:18Z</time>
      </trkpt>
      <trkpt lat="45.23163297213614" lon="3.299479018896818">
        <ele>825.90999999999997</ele>
        <time>2025-04-25T06:51:26Z</time>
      </trkpt>
      <trkpt lat="45.231700027361512" lon="3.299545990303159">
        <ele>825.90999999999997</ele>
        <time>2025-04-25T06:51:27Z</time>
      </trkpt>
      <trkpt lat="45.231754006817937" lon="3.299686973914504">
        <ele>826.38999999999999</ele>
        <time>2025-04-25T06:51:28Z</time>
      </trkpt>
      <trkpt lat="45.231799017637968" lon="3.29980599693954">
        <ele>826.38999999999999</ele>
        <time>2025-04-25T06:51:29Z</time>
      </trkpt>
      <trkpt lat="45.231846962124109" lon="3.299930971115828">
        <ele>826.38999999999999</ele>
        <time>2025-04-25T06:51:30Z</time>
      </trkpt>
      <trkpt lat="45.231989035382867" lon="3.300303965806961">
        <ele>826.38999999999999</ele>
        <time>2025-04-25T06:51:33Z</time>
      </trkpt>
      <trkpt lat="45.232033962383866" lon="3.300422988831997">
        <ele>826.87</ele>
        <time>2025-04-25T06:51:34Z</time>
      </trkpt>
      <trkpt lat="45.232105040922761" lon="3.300518039613962">
        <ele>827.35000000000002</ele>
        <time>2025-04-25T06:51:35Z</time>
      </trkpt>
      <trkpt lat="45.232185004279017" lon="3.300609989091754">
        <ele>827.83000000000004</ele>
        <time>2025-04-25T06:51:36Z</time>
      </trkpt>
      <trkpt lat="45.232264967635274" lon="3.300703028216958">
        <ele>827.83000000000004</ele>
        <time>2025-04-25T06:51:37Z</time>
      </trkpt>
      <trkpt lat="45.232517011463642" lon="3.300993964076042">
        <ele>829.26999999999998</ele>
        <time>2025-04-25T06:51:40Z</time>
      </trkpt>
      <trkpt lat="45.23259999230504" lon="3.301089014858007">
        <ele>828.78999999999996</ele>
        <time>2025-04-25T06:51:41Z</time>
      </trkpt>
      <trkpt lat="45.23266302421689" lon="3.301214994862676">
        <ele>828.30999999999995</ele>
        <time>2025-04-25T06:51:42Z</time>
      </trkpt>
      <trkpt lat="45.232725972309709" lon="3.301339969038963">
        <ele>828.30999999999995</ele>
        <time>2025-04-25T06:51:43Z</time>
      </trkpt>
      <trkpt lat="45.23277198895812" lon="3.30148296430707">
        <ele>827.83000000000004</ele>
        <time>2025-04-25T06:51:44Z</time>
      </trkpt>
      <trkpt lat="45.232766959816217" lon="3.30163199454546">
        <ele>827.35000000000002</ele>
        <time>2025-04-25T06:51:45Z</time>
      </trkpt>
      <trkpt lat="45.232762014493346" lon="3.301797034218907">
        <ele>826.38999999999999</ele>
        <time>2025-04-25T06:51:46Z</time>
      </trkpt>
      <trkpt lat="45.232755979523063" lon="3.301979005336762">
        <ele>825.90999999999997</ele>
        <time>2025-04-25T06:51:47Z</time>
      </trkpt>
      <trkpt lat="45.232694037258625" lon="3.303895024582744">
        <ele>823.02999999999997</ele>
        <time>2025-04-25T06:51:56Z</time>
      </trkpt>
      <trkpt lat="45.232739970088005" lon="3.305951021611691">
        <ele>818.70000000000005</ele>
        <time>2025-04-25T06:52:05Z</time>
      </trkpt>
      <trkpt lat="45.232850024476647" lon="3.307458003982902">
        <ele>805.72000000000003</ele>
        <time>2025-04-25T06:52:12Z</time>
      </trkpt>
      <trkpt lat="45.233030989766121" lon="3.308797013014555">
        <ele>791.29999999999995</ele>
        <time>2025-04-25T06:52:18Z</time>
      </trkpt>
      <trkpt lat="45.233080023899674" lon="3.308974960818887">
        <ele>789.38</ele>
        <time>2025-04-25T06:52:19Z</time>
      </trkpt>
      <trkpt lat="45.233138026669621" lon="3.309180987998843">
        <ele>787.46000000000004</ele>
        <time>2025-04-25T06:52:20Z</time>
      </trkpt>
      <trkpt lat="45.233185971155763" lon="3.309285007417202">
        <ele>786.01999999999998</ele>
        <time>2025-04-25T06:52:21Z</time>
      </trkpt>
      <trkpt lat="45.233255960047245" lon="3.309438982978463">
        <ele>784.57000000000005</ele>
        <time>2025-04-25T06:52:22Z</time>
      </trkpt>
      <trkpt lat="45.233326032757759" lon="3.309590024873614">
        <ele>782.64999999999998</ele>
        <time>2025-04-25T06:52:23Z</time>
      </trkpt>
      <trkpt lat="45.233378000557423" lon="3.309741988778114">
        <ele>781.21000000000004</ele>
        <time>2025-04-25T06:52:24Z</time>
      </trkpt>
      <trkpt lat="45.23339400999248" lon="3.309913985431194">
        <ele>779.76999999999998</ele>
        <time>2025-04-25T06:52:25Z</time>
      </trkpt>
      <trkpt lat="45.233481014147401" lon="3.310875976458192">
        <ele>775.44000000000005</ele>
        <time>2025-04-25T06:52:30Z</time>
      </trkpt>
      <trkpt lat="45.233540022745728" lon="3.311013020575047">
        <ele>774.96000000000004</ele>
        <time>2025-04-25T06:52:31Z</time>
      </trkpt>
      <trkpt lat="45.233624009415507" lon="3.311118967831135">
        <ele>774.48000000000002</ele>
        <time>2025-04-25T06:52:32Z</time>
      </trkpt>
      <trkpt lat="45.233720988035202" lon="3.311233967542648">
        <ele>774</ele>
        <time>2025-04-25T06:52:33Z</time>
      </trkpt>
      <trkpt lat="45.233825007453561" lon="3.311357013881207">
        <ele>773.51999999999998</ele>
        <time>2025-04-25T06:52:34Z</time>
      </trkpt>
      <trkpt lat="45.234133964404464" lon="3.311727996915579">
        <ele>771.60000000000002</ele>
        <time>2025-04-25T06:52:37Z</time>
      </trkpt>
      <trkpt lat="45.234201019629836" lon="3.311845008283854">
        <ele>770.63</ele>
        <time>2025-04-25T06:52:38Z</time>
      </trkpt>
      <trkpt lat="45.234223986044526" lon="3.311995966359973">
        <ele>770.14999999999998</ele>
        <time>2025-04-25T06:52:39Z</time>
      </trkpt>
      <trkpt lat="45.234222980216146" lon="3.312152037397027">
        <ele>769.19000000000005</ele>
        <time>2025-04-25T06:52:40Z</time>
      </trkpt>
      <trkpt lat="45.234200013801455" lon="3.312324034050107">
        <ele>768.71000000000004</ele>
        <time>2025-04-25T06:52:41Z</time>
      </trkpt>
      <trkpt lat="45.234174029901624" lon="3.312513967975974">
        <ele>767.75</ele>
        <time>2025-04-25T06:52:42Z</time>
      </trkpt>
      <trkpt lat="45.23412398993969" lon="3.312892997637391">
        <ele>766.78999999999996</ele>
        <time>2025-04-25T06:52:44Z</time>
      </trkpt>
      <trkpt lat="45.234091971069574" lon="3.313063988462091">
        <ele>766.30999999999995</ele>
        <time>2025-04-25T06:52:45Z</time>
      </trkpt>
      <trkpt lat="45.23401795886457" lon="3.313201032578945">
        <ele>766.30999999999995</ele>
        <time>2025-04-25T06:52:46Z</time>
      </trkpt>
      <trkpt lat="45.233941012993455" lon="3.313343022018671">
        <ele>765.83000000000004</ele>
        <time>2025-04-25T06:52:47Z</time>
      </trkpt>
      <trkpt lat="45.233859959989786" lon="3.313491968438029">
        <ele>765.83000000000004</ele>
        <time>2025-04-25T06:52:48Z</time>
      </trkpt>
      <trkpt lat="45.23360900580883" lon="3.313952973112464">
        <ele>765.35000000000002</ele>
        <time>2025-04-25T06:52:51Z</time>
      </trkpt>
      <trkpt lat="45.233541028574109" lon="3.314112983644009">
        <ele>764.87</ele>
        <time>2025-04-25T06:52:52Z</time>
      </trkpt>
      <trkpt lat="45.233482019975781" lon="3.314296966418624">
        <ele>764.38999999999999</ele>
        <time>2025-04-25T06:52:53Z</time>
      </trkpt>
      <trkpt lat="45.232821023091674" lon="3.315951973199844">
        <ele>757.17999999999995</ele>
        <time>2025-04-25T06:53:02Z</time>
      </trkpt>
      <trkpt lat="45.232546012848616" lon="3.316394034773111">
        <ele>755.25</ele>
        <time>2025-04-25T06:53:05Z</time>
      </trkpt>
      <trkpt lat="45.232449034228921" lon="3.316514985635877">
        <ele>754.28999999999996</ele>
        <time>2025-04-25T06:53:06Z</time>
      </trkpt>
      <trkpt lat="45.232252981513739" lon="3.31675797700882">
        <ele>753.33000000000004</ele>
        <time>2025-04-25T06:53:08Z</time>
      </trkpt>
      <trkpt lat="45.232150973752141" lon="3.31688404083252">
        <ele>752.85000000000002</ele>
        <time>2025-04-25T06:53:09Z</time>
      </trkpt>
      <trkpt lat="45.231386963278055" lon="3.318538041785359">
        <ele>747.08000000000004</ele>
        <time>2025-04-25T06:53:19Z</time>
      </trkpt>
      <trkpt lat="45.230771983042359" lon="3.319964976981282">
        <ele>744.20000000000005</ele>
        <time>2025-04-25T06:53:28Z</time>
      </trkpt>
      <trkpt lat="45.230755973607302" lon="3.320101015269756">
        <ele>743.72000000000003</ele>
        <time>2025-04-25T06:53:29Z</time>
      </trkpt>
      <trkpt lat="45.230740970000625" lon="3.320232024416328">
        <ele>743.24000000000001</ele>
        <time>2025-04-25T06:53:30Z</time>
      </trkpt>
      <trkpt lat="45.230724960565567" lon="3.32036898471415">
        <ele>742.27999999999997</ele>
        <time>2025-04-25T06:53:31Z</time>
      </trkpt>
      <trkpt lat="45.230728983879089" lon="3.320534024387598">
        <ele>741.30999999999995</ele>
        <time>2025-04-25T06:53:32Z</time>
      </trkpt>
      <trkpt lat="45.230765026062727" lon="3.320692023262382">
        <ele>740.35000000000002</ele>
        <time>2025-04-25T06:53:33Z</time>
      </trkpt>
      <trkpt lat="45.230802996084094" lon="3.320856979116797">
        <ele>739.87</ele>
        <time>2025-04-25T06:53:34Z</time>
      </trkpt>
      <trkpt lat="45.231293002143502" lon="3.322984976693988">
        <ele>729.77999999999997</ele>
        <time>2025-04-25T06:53:46Z</time>
      </trkpt>
      <trkpt lat="45.231435997411609" lon="3.323604986071587">
        <ele>724.00999999999999</ele>
        <time>2025-04-25T06:53:52Z</time>
      </trkpt>
      <trkpt lat="45.231433985754848" lon="3.323734989389777">
        <ele>721.61000000000001</ele>
        <time>2025-04-25T06:53:55Z</time>
      </trkpt>
      <trkpt lat="45.231399033218622" lon="3.323741024360061">
        <ele>720.64999999999998</ele>
        <time>2025-04-25T06:53:56Z</time>
      </trkpt>
      <trkpt lat="45.231346981599927" lon="3.323749992996454">
        <ele>720.15999999999997</ele>
        <time>2025-04-25T06:53:57Z</time>
      </trkpt>
      <trkpt lat="45.231281016021967" lon="3.32376197911799">
        <ele>719.67999999999995</ele>
        <time>2025-04-25T06:53:58Z</time>
      </trkpt>
      <trkpt lat="45.23120398633182" lon="3.323775976896286">
        <ele>719.67999999999995</ele>
        <time>2025-04-25T06:53:59Z</time>
      </trkpt>
      <trkpt lat="45.231112036854029" lon="3.323792992159724">
        <ele>719.67999999999995</ele>
        <time>2025-04-25T06:54:00Z</time>
      </trkpt>
      <trkpt lat="45.230992008000612" lon="3.323815036565065">
        <ele>720.15999999999997</ele>
        <time>2025-04-25T06:54:01Z</time>
      </trkpt>
      <trkpt lat="45.230892011895776" lon="3.323800032958388">
        <ele>720.64999999999998</ele>
        <time>2025-04-25T06:54:02Z</time>
      </trkpt>
      <trkpt lat="45.230638040229678" lon="3.323734989389777">
        <ele>722.09000000000003</ele>
        <time>2025-04-25T06:54:04Z</time>
      </trkpt>
      <trkpt lat="45.230511976405978" lon="3.323671035468578">
        <ele>723.04999999999995</ele>
        <time>2025-04-25T06:54:05Z</time>
      </trkpt>
      <trkpt lat="45.230379961431026" lon="3.323604986071587">
        <ele>723.52999999999997</ele>
        <time>2025-04-25T06:54:06Z</time>
      </trkpt>
      <trkpt lat="45.229818038642406" lon="3.323113974183798">
        <ele>724.97000000000003</ele>
        <time>2025-04-25T06:54:11Z</time>
      </trkpt>
      <trkpt lat="45.229737991467118" lon="3.32298900000751">
        <ele>724.97000000000003</ele>
        <time>2025-04-25T06:54:12Z</time>
      </trkpt>
      <trkpt lat="45.22965501062572" lon="3.32285899668932">
        <ele>724.97000000000003</ele>
        <time>2025-04-25T06:54:13Z</time>
      </trkpt>
      <trkpt lat="45.229568006470799" lon="3.322723964229226">
        <ele>725.45000000000005</ele>
        <time>2025-04-25T06:54:14Z</time>
      </trkpt>
      <trkpt lat="45.229469016194344" lon="3.322569988667965">
        <ele>725.45000000000005</ele>
        <time>2025-04-25T06:54:15Z</time>
      </trkpt>
      <trkpt lat="45.229436997324228" lon="3.322390029206872">
        <ele>725.45000000000005</ele>
        <time>2025-04-25T06:54:16Z</time>
      </trkpt>
      <trkpt lat="45.229403972625732" lon="3.322205040603876">
        <ele>724.97000000000003</ele>
        <time>2025-04-25T06:54:17Z</time>
      </trkpt>
      <trkpt lat="45.229371031746268" lon="3.322019968181849">
        <ele>724.97000000000003</ele>
        <time>2025-04-25T06:54:18Z</time>
      </trkpt>
      <trkpt lat="45.229306994006038" lon="3.32118303515017">
        <ele>722.57000000000005</ele>
        <time>2025-04-25T06:54:23Z</time>
      </trkpt>
      <trkpt lat="45.229275980964303" lon="3.321046996861696">
        <ele>721.61000000000001</ele>
        <time>2025-04-25T06:54:24Z</time>
      </trkpt>
      <trkpt lat="45.229206997901201" lon="3.32094800658524">
        <ele>721.13</ele>
        <time>2025-04-25T06:54:25Z</time>
      </trkpt>
      <trkpt lat="45.229126028716564" lon="3.320832001045346">
        <ele>721.13</ele>
        <time>2025-04-25T06:54:26Z</time>
      </trkpt>
      <trkpt lat="45.229027038440108" lon="3.320787996053696">
        <ele>720.64999999999998</ele>
        <time>2025-04-25T06:54:27Z</time>
      </trkpt>
      <trkpt lat="45.228912960737944" lon="3.320736028254032">
        <ele>720.64999999999998</ele>
        <time>2025-04-25T06:54:28Z</time>
      </trkpt>
      <trkpt lat="45.22879502736032" lon="3.320721024647355">
        <ele>720.64999999999998</ele>
        <time>2025-04-25T06:54:29Z</time>
      </trkpt>
      <trkpt lat="45.22866602987051" lon="3.320713983848691">
        <ele>720.15999999999997</ele>
        <time>2025-04-25T06:54:30Z</time>
      </trkpt>
      <trkpt lat="45.228532003238797" lon="3.320708032697439">
        <ele>719.67999999999995</ele>
        <time>2025-04-25T06:54:31Z</time>
      </trkpt>
      <trkpt lat="45.228124978020787" lon="3.320670984685421">
        <ele>717.27999999999997</ele>
        <time>2025-04-25T06:54:34Z</time>
      </trkpt>
      <trkpt lat="45.228012995794415" lon="3.320641983300448">
        <ele>716.32000000000005</ele>
        <time>2025-04-25T06:54:35Z</time>
      </trkpt>
      <trkpt lat="45.227929009124637" lon="3.320557996630669">
        <ele>715.36000000000001</ele>
        <time>2025-04-25T06:54:36Z</time>
      </trkpt>
      <trkpt lat="45.22785197943449" lon="3.320432016626">
        <ele>714.39999999999998</ele>
        <time>2025-04-25T06:54:37Z</time>
      </trkpt>
      <trkpt lat="45.227801017463207" lon="3.320275023579598">
        <ele>713.44000000000005</ele>
        <time>2025-04-25T06:54:38Z</time>
      </trkpt>
      <trkpt lat="45.227760029956698" lon="3.320103026926518">
        <ele>712.47000000000003</ele>
        <time>2025-04-25T06:54:39Z</time>
      </trkpt>
      <trkpt lat="45.227717030793428" lon="3.319920971989632">
        <ele>711.50999999999999</ele>
        <time>2025-04-25T06:54:40Z</time>
      </trkpt>
      <trkpt lat="45.227713007479906" lon="3.31972299143672">
        <ele>710.54999999999995</ele>
        <time>2025-04-25T06:54:41Z</time>
      </trkpt>
      <trkpt lat="45.227718036621809" lon="3.319524005055428">
        <ele>709.59000000000003</ele>
        <time>2025-04-25T06:54:42Z</time>
      </trkpt>
      <trkpt lat="45.227727005258203" lon="3.319132989272475">
        <ele>707.66999999999996</ele>
        <time>2025-04-25T06:54:44Z</time>
      </trkpt>
      <trkpt lat="45.227727005258203" lon="3.318950012326241">
        <ele>706.71000000000004</ele>
        <time>2025-04-25T06:54:45Z</time>
      </trkpt>
      <trkpt lat="45.227712001651525" lon="3.318774998188019">
        <ele>705.75</ele>
        <time>2025-04-25T06:54:46Z</time>
      </trkpt>
      <trkpt lat="45.227694986388087" lon="3.318596966564655">
        <ele>704.77999999999997</ele>
        <time>2025-04-25T06:54:47Z</time>
      </trkpt>
      <trkpt lat="45.227660033851862" lon="3.318417007103562">
        <ele>703.82000000000005</ele>
        <time>2025-04-25T06:54:48Z</time>
      </trkpt>
      <trkpt lat="45.227607982233167" lon="3.318235035985708">
        <ele>702.86000000000001</ele>
        <time>2025-04-25T06:54:49Z</time>
      </trkpt>
      <trkpt lat="45.227287039160728" lon="3.317096019163728">
        <ele>697.09000000000003</ele>
        <time>2025-04-25T06:54:55Z</time>
      </trkpt>
      <trkpt lat="45.227117976173759" lon="3.316343994811177">
        <ele>693.73000000000002</ele>
        <time>2025-04-25T06:54:59Z</time>
      </trkpt>
      <trkpt lat="45.227081011980772" lon="3.316180966794491">
        <ele>692.76999999999998</ele>
        <time>2025-04-25T06:55:00Z</time>
      </trkpt>
      <trkpt lat="45.227014040574431" lon="3.316078037023544">
        <ele>691.33000000000004</ele>
        <time>2025-04-25T06:55:01Z</time>
      </trkpt>
      <trkpt lat="45.226913038641214" lon="3.316009975969791">
        <ele>690.36000000000001</ele>
        <time>2025-04-25T06:55:02Z</time>
      </trkpt>
      <trkpt lat="45.226802984252572" lon="3.31594099290669">
        <ele>689.39999999999998</ele>
        <time>2025-04-25T06:55:03Z</time>
      </trkpt>
      <trkpt lat="45.226669041439891" lon="3.31596203148365">
        <ele>688.91999999999996</ele>
        <time>2025-04-25T06:55:04Z</time>
      </trkpt>
      <trkpt lat="45.226525040343404" lon="3.31598499789834">
        <ele>687.96000000000004</ele>
        <time>2025-04-25T06:55:05Z</time>
      </trkpt>
      <trkpt lat="45.226399982348084" lon="3.31600402481854">
        <ele>687</ele>
        <time>2025-04-25T06:55:06Z</time>
      </trkpt>
      <trkpt lat="45.226231003180146" lon="3.315974017605186">
        <ele>686.03999999999996</ele>
        <time>2025-04-25T06:55:07Z</time>
      </trkpt>
      <trkpt lat="45.226095970720053" lon="3.315907968208194">
        <ele>685.08000000000004</ele>
        <time>2025-04-25T06:55:08Z</time>
      </trkpt>
      <trkpt lat="45.225963033735752" lon="3.315803026780486">
        <ele>684.12</ele>
        <time>2025-04-25T06:55:09Z</time>
      </trkpt>
      <trkpt lat="45.225822972133756" lon="3.315692972391844">
        <ele>683.14999999999998</ele>
        <time>2025-04-25T06:55:10Z</time>
      </trkpt>
      <trkpt lat="45.225424999371171" lon="3.315390972420573">
        <ele>680.75</ele>
        <time>2025-04-25T06:55:13Z</time>
      </trkpt>
      <trkpt lat="45.224746987223625" lon="3.315111016854644">
        <ele>676.41999999999996</ele>
        <time>2025-04-25T06:55:18Z</time>
      </trkpt>
      <trkpt lat="45.224641961976886" lon="3.314986964687705">
        <ele>675.46000000000004</ele>
        <time>2025-04-25T06:55:19Z</time>
      </trkpt>
      <trkpt lat="45.224538026377559" lon="3.314844975247979">
        <ele>674.5</ele>
        <time>2025-04-25T06:55:20Z</time>
      </trkpt>
      <trkpt lat="45.223910976201296" lon="3.3139010053128">
        <ele>670.17999999999995</ele>
        <time>2025-04-25T06:55:27Z</time>
      </trkpt>
      <trkpt lat="45.223888009786606" lon="3.313749963417649">
        <ele>669.70000000000005</ele>
        <time>2025-04-25T06:55:28Z</time>
      </trkpt>
      <trkpt lat="45.223867977038026" lon="3.3136229775846">
        <ele>669.22000000000003</ele>
        <time>2025-04-25T06:55:29Z</time>
      </trkpt>
      <trkpt lat="45.223836963996291" lon="3.313455004245043">
        <ele>668.73000000000002</ele>
        <time>2025-04-25T06:55:30Z</time>
      </trkpt>
      <trkpt lat="45.223804023116827" lon="3.313278984278441">
        <ele>667.76999999999998</ele>
        <time>2025-04-25T06:55:31Z</time>
      </trkpt>
      <trkpt lat="45.223743002861738" lon="3.313179994001985">
        <ele>666.80999999999995</ele>
        <time>2025-04-25T06:55:32Z</time>
      </trkpt>
      <trkpt lat="45.223663961514831" lon="3.313053008168936">
        <ele>666.33000000000004</ele>
        <time>2025-04-25T06:55:33Z</time>
      </trkpt>
      <trkpt lat="45.223575029522181" lon="3.312910012900829">
        <ele>665.37</ele>
        <time>2025-04-25T06:55:34Z</time>
      </trkpt>
      <trkpt lat="45.223501017317176" lon="3.312748996540904">
        <ele>664.40999999999997</ele>
        <time>2025-04-25T06:55:35Z</time>
      </trkpt>
      <trkpt lat="45.223438991233706" lon="3.312550010159612">
        <ele>663.92999999999995</ele>
        <time>2025-04-25T06:55:36Z</time>
      </trkpt>
      <trkpt lat="45.22340202704072" lon="3.312388993799686">
        <ele>662.49000000000001</ele>
        <time>2025-04-25T06:55:37Z</time>
      </trkpt>
      <trkpt lat="45.223361039534211" lon="3.312218002974987">
        <ele>661.03999999999996</ele>
        <time>2025-04-25T06:55:38Z</time>
      </trkpt>
      <trkpt lat="45.223294990137219" lon="3.312075007706881">
        <ele>659.60000000000002</ele>
        <time>2025-04-25T06:55:39Z</time>
      </trkpt>
      <trkpt lat="45.223225001245737" lon="3.31194500438869">
        <ele>658.63999999999999</ele>
        <time>2025-04-25T06:55:40Z</time>
      </trkpt>
      <trkpt lat="45.223143026232719" lon="3.311827993020415">
        <ele>657.20000000000005</ele>
        <time>2025-04-25T06:55:41Z</time>
      </trkpt>
      <trkpt lat="45.22303800098598" lon="3.311733026057482">
        <ele>655.75999999999999</ele>
        <time>2025-04-25T06:55:42Z</time>
      </trkpt>
      <trkpt lat="45.222919983789325" lon="3.311658008024097">
        <ele>654.30999999999995</ele>
        <time>2025-04-25T06:55:43Z</time>
      </trkpt>
      <trkpt lat="45.222790986299515" lon="3.311625989153981">
        <ele>652.87</ele>
        <time>2025-04-25T06:55:44Z</time>
      </trkpt>
      <trkpt lat="45.222658971324563" lon="3.311592964455485">
        <ele>651.90999999999997</ele>
        <time>2025-04-25T06:55:45Z</time>
      </trkpt>
      <trkpt lat="45.222129989415407" lon="3.311476958915591">
        <ele>648.54999999999995</ele>
        <time>2025-04-25T06:55:49Z</time>
      </trkpt>
      <trkpt lat="45.222056983038783" lon="3.311373023316264">
        <ele>648.07000000000005</ele>
        <time>2025-04-25T06:55:50Z</time>
      </trkpt>
      <trkpt lat="45.221980959177017" lon="3.311263974756002">
        <ele>647.59000000000003</ele>
        <time>2025-04-25T06:55:51Z</time>
      </trkpt>
      <trkpt lat="45.221908036619425" lon="3.311160039156675">
        <ele>647.59000000000003</ele>
        <time>2025-04-25T06:55:52Z</time>
      </trkpt>
      <trkpt lat="45.22183402441442" lon="3.311055013909936">
        <ele>647.10000000000002</ele>
        <time>2025-04-25T06:55:53Z</time>
      </trkpt>
      <trkpt lat="45.221541998907924" lon="3.310686964541674">
        <ele>646.13999999999999</ele>
        <time>2025-04-25T06:55:56Z</time>
      </trkpt>
      <trkpt lat="45.221420964226127" lon="3.310559978708625">
        <ele>645.65999999999997</ele>
        <time>2025-04-25T06:55:57Z</time>
      </trkpt>
      <trkpt lat="45.220054965466261" lon="3.309449041262269">
        <ele>653.35000000000002</ele>
        <time>2025-04-25T06:56:07Z</time>
      </trkpt>
      <trkpt lat="45.219324985519052" lon="3.309127008542419">
        <ele>659.60000000000002</ele>
        <time>2025-04-25T06:56:12Z</time>
      </trkpt>
      <trkpt lat="45.219200011342764" lon="3.309116028249264">
        <ele>661.03999999999996</ele>
        <time>2025-04-25T06:56:13Z</time>
      </trkpt>
      <trkpt lat="45.219086017459631" lon="3.309158021584153">
        <ele>662.00999999999999</ele>
        <time>2025-04-25T06:56:14Z</time>
      </trkpt>
      <trkpt lat="45.218970011919737" lon="3.309209989383817">
        <ele>662.97000000000003</ele>
        <time>2025-04-25T06:56:15Z</time>
      </trkpt>
      <trkpt lat="45.218868004158139" lon="3.309328006580472">
        <ele>663.92999999999995</ele>
        <time>2025-04-25T06:56:16Z</time>
      </trkpt>
      <trkpt lat="45.218758033588529" lon="3.309455998241901">
        <ele>665.37</ele>
        <time>2025-04-25T06:56:17Z</time>
      </trkpt>
      <trkpt lat="45.218266015872359" lon="3.310027979314327">
        <ele>670.17999999999995</ele>
        <time>2025-04-25T06:56:22Z</time>
      </trkpt>
      <trkpt lat="45.21818202920258" lon="3.310125041753054">
        <ele>671.13999999999999</ele>
        <time>2025-04-25T06:56:23Z</time>
      </trkpt>
      <trkpt lat="45.218079015612602" lon="3.310153959318996">
        <ele>672.10000000000002</ele>
        <time>2025-04-25T06:56:24Z</time>
      </trkpt>
      <trkpt lat="45.217980025336146" lon="3.310137027874589">
        <ele>673.05999999999995</ele>
        <time>2025-04-25T06:56:25Z</time>
      </trkpt>
      <trkpt lat="45.21790400147438" lon="3.310059998184443">
        <ele>674.5</ele>
        <time>2025-04-25T06:56:26Z</time>
      </trkpt>
      <trkpt lat="45.217845998704433" lon="3.309938041493297">
        <ele>675.94000000000005</ele>
        <time>2025-04-25T06:56:27Z</time>
      </trkpt>
      <trkpt lat="45.217781960964203" lon="3.309805020689964">
        <ele>677.38999999999999</ele>
        <time>2025-04-25T06:56:28Z</time>
      </trkpt>
      <trkpt lat="45.217718007043004" lon="3.30966898240149">
        <ele>679.30999999999995</ele>
        <time>2025-04-25T06:56:29Z</time>
      </trkpt>
      <trkpt lat="45.217512985691428" lon="3.30923798494041">
        <ele>684.12</ele>
        <time>2025-04-25T06:56:32Z</time>
      </trkpt>
      <trkpt lat="45.217419024556875" lon="3.309106975793839">
        <ele>686.03999999999996</ele>
        <time>2025-04-25T06:56:33Z</time>
      </trkpt>
      <trkpt lat="45.217313999310136" lon="3.308974960818887">
        <ele>687.48000000000002</ele>
        <time>2025-04-25T06:56:34Z</time>
      </trkpt>
      <trkpt lat="45.217100009322166" lon="3.308707997202873">
        <ele>690.36000000000001</ele>
        <time>2025-04-25T06:56:36Z</time>
      </trkpt>
      <trkpt lat="45.21691401489079" lon="3.308405997231603">
        <ele>692.28999999999996</ele>
        <time>2025-04-25T06:56:38Z</time>
      </trkpt>
      <trkpt lat="45.216837991029024" lon="3.308235006406903">
        <ele>693.25</ele>
        <time>2025-04-25T06:56:39Z</time>
      </trkpt>
      <trkpt lat="45.216212030500174" lon="3.307035975158215">
        <ele>705.25999999999999</ele>
        <time>2025-04-25T06:56:46Z</time>
      </trkpt>
      <trkpt lat="45.215912964195013" lon="3.306583017110825">
        <ele>709.59000000000003</ele>
        <time>2025-04-25T06:56:49Z</time>
      </trkpt>
      <trkpt lat="45.215849010273814" lon="3.306418983265758">
        <ele>711.02999999999997</ele>
        <time>2025-04-25T06:56:50Z</time>
      </trkpt>
      <trkpt lat="45.215822020545602" lon="3.306248998269439">
        <ele>712.47000000000003</ele>
        <time>2025-04-25T06:56:51Z</time>
      </trkpt>
      <trkpt lat="45.215822020545602" lon="3.306080019101501">
        <ele>713.91999999999996</ele>
        <time>2025-04-25T06:56:52Z</time>
      </trkpt>
      <trkpt lat="45.215822020545602" lon="3.305903999134898">
        <ele>715.36000000000001</ele>
        <time>2025-04-25T06:56:53Z</time>
      </trkpt>
      <trkpt lat="45.215822020545602" lon="3.305748011916876">
        <ele>716.79999999999995</ele>
        <time>2025-04-25T06:56:54Z</time>
      </trkpt>
      <trkpt lat="45.215778015553951" lon="3.305604010820389">
        <ele>718.24000000000001</ele>
        <time>2025-04-25T06:56:55Z</time>
      </trkpt>
      <trkpt lat="45.215738033875823" lon="3.305475013330579">
        <ele>719.67999999999995</ele>
        <time>2025-04-25T06:56:56Z</time>
      </trkpt>
      <trkpt lat="45.215662010014057" lon="3.305394966155291">
        <ele>720.64999999999998</ele>
        <time>2025-04-25T06:56:57Z</time>
      </trkpt>
      <trkpt lat="45.215564025565982" lon="3.305296981707215">
        <ele>721.61000000000001</ele>
        <time>2025-04-25T06:56:58Z</time>
      </trkpt>
      <trkpt lat="45.215448020026088" lon="3.305226992815733">
        <ele>723.04999999999995</ele>
        <time>2025-04-25T06:56:59Z</time>
      </trkpt>
      <trkpt lat="45.215071002021432" lon="3.304975032806397">
        <ele>725.92999999999995</ele>
        <time>2025-04-25T06:57:02Z</time>
      </trkpt>
      <trkpt lat="45.21495901979506" lon="3.304862966760993">
        <ele>727.37</ele>
        <time>2025-04-25T06:57:03Z</time>
      </trkpt>
      <trkpt lat="45.214850977063179" lon="3.304741010069847">
        <ele>728.34000000000003</ele>
        <time>2025-04-25T06:57:04Z</time>
      </trkpt>
      <trkpt lat="45.213794019073248" lon="3.303424967452884">
        <ele>739.38999999999999</ele>
        <time>2025-04-25T06:57:14Z</time>
      </trkpt>
      <trkpt lat="45.213728975504637" lon="3.303270991891623">
        <ele>739.87</ele>
        <time>2025-04-25T06:57:15Z</time>
      </trkpt>
      <trkpt lat="45.213654963299632" lon="3.30292196944356">
        <ele>741.78999999999996</ele>
        <time>2025-04-25T06:57:17Z</time>
      </trkpt>
      <trkpt lat="45.213625961914659" lon="3.302733963355422">
        <ele>742.75999999999999</ele>
        <time>2025-04-25T06:57:18Z</time>
      </trkpt>
      <trkpt lat="45.213596960529685" lon="3.302545035257936">
        <ele>743.72000000000003</ele>
        <time>2025-04-25T06:57:19Z</time>
      </trkpt>
      <trkpt lat="45.213506016880274" lon="3.30210599116981">
        <ele>746.60000000000002</ele>
        <time>2025-04-25T06:57:22Z</time>
      </trkpt>
      <trkpt lat="45.213470980525017" lon="3.302000965923071">
        <ele>747.08000000000004</ele>
        <time>2025-04-25T06:57:23Z</time>
      </trkpt>
      <trkpt lat="45.213407026603818" lon="3.301931982859969">
        <ele>748.03999999999996</ele>
        <time>2025-04-25T06:57:24Z</time>
      </trkpt>
      <trkpt lat="45.21332798525691" lon="3.301875991746783">
        <ele>748.51999999999998</ele>
        <time>2025-04-25T06:57:25Z</time>
      </trkpt>
      <trkpt lat="45.21324098110199" lon="3.301895018666983">
        <ele>749.49000000000001</ele>
        <time>2025-04-25T06:57:26Z</time>
      </trkpt>
      <trkpt lat="45.213150959461927" lon="3.301935000345111">
        <ele>750.45000000000005</ele>
        <time>2025-04-25T06:57:27Z</time>
      </trkpt>
      <trkpt lat="45.213081976398826" lon="3.302007000893354">
        <ele>751.40999999999997</ele>
        <time>2025-04-25T06:57:28Z</time>
      </trkpt>
      <trkpt lat="45.213010981678963" lon="3.302120994776487">
        <ele>751.88999999999999</ele>
        <time>2025-04-25T06:57:29Z</time>
      </trkpt>
      <trkpt lat="45.212971000000834" lon="3.302258960902691">
        <ele>752.37</ele>
        <time>2025-04-25T06:57:30Z</time>
      </trkpt>
      <trkpt lat="45.212923977524042" lon="3.302418971434236">
        <ele>752.85000000000002</ele>
        <time>2025-04-25T06:57:31Z</time>
      </trkpt>
      <trkpt lat="45.212800009176135" lon="3.302715020254254">
        <ele>753.80999999999995</ele>
        <time>2025-04-25T06:57:33Z</time>
      </trkpt>
      <trkpt lat="45.212709987536073" lon="3.302832031622529">
        <ele>753.80999999999995</ele>
        <time>2025-04-25T06:57:34Z</time>
      </trkpt>
      <trkpt lat="45.212646033614874" lon="3.302915012463927">
        <ele>754.28999999999996</ele>
        <time>2025-04-25T06:57:35Z</time>
      </trkpt>
      <trkpt lat="45.212503960356116" lon="3.302948037162423">
        <ele>754.28999999999996</ele>
        <time>2025-04-25T06:57:36Z</time>
      </trkpt>
      <trkpt lat="45.212383009493351" lon="3.302976032719016">
        <ele>754.76999999999998</ele>
        <time>2025-04-25T06:57:37Z</time>
      </trkpt>
      <trkpt lat="45.212259963154793" lon="3.30300503410399">
        <ele>754.76999999999998</ele>
        <time>2025-04-25T06:57:38Z</time>
      </trkpt>
      <trkpt lat="45.212131971493363" lon="3.303035041317344">
        <ele>754.76999999999998</ele>
        <time>2025-04-25T06:57:39Z</time>
      </trkpt>
      <trkpt lat="45.211997022852302" lon="3.303069993853569">
        <ele>754.76999999999998</ele>
        <time>2025-04-25T06:57:40Z</time>
      </trkpt>
      <trkpt lat="45.211877999827266" lon="3.303165966644883">
        <ele>755.25</ele>
        <time>2025-04-25T06:57:41Z</time>
      </trkpt>
      <trkpt lat="45.211147014051676" lon="3.303762003779411">
        <ele>756.21000000000004</ele>
        <time>2025-04-25T06:57:47Z</time>
      </trkpt>
      <trkpt lat="45.211033020168543" lon="3.303824029862881">
        <ele>756.21000000000004</ele>
        <time>2025-04-25T06:57:48Z</time>
      </trkpt>
      <trkpt lat="45.210917014628649" lon="3.303831992670894">
        <ele>756.21000000000004</ele>
        <time>2025-04-25T06:57:49Z</time>
      </trkpt>
      <trkpt lat="45.210801009088755" lon="3.303810032084584">
        <ele>756.21000000000004</ele>
        <time>2025-04-25T06:57:50Z</time>
      </trkpt>
      <trkpt lat="45.210681986063719" lon="3.303788993507624">
        <ele>756.21000000000004</ele>
        <time>2025-04-25T06:57:51Z</time>
      </trkpt>
      <trkpt lat="45.210567992180586" lon="3.303768038749695">
        <ele>756.21000000000004</ele>
        <time>2025-04-25T06:57:52Z</time>
      </trkpt>
      <trkpt lat="45.210462966933846" lon="3.303760997951031">
        <ele>756.69000000000005</ele>
        <time>2025-04-25T06:57:53Z</time>
      </trkpt>
      <trkpt lat="45.21036297082901" lon="3.303817994892597">
        <ele>757.17999999999995</ele>
        <time>2025-04-25T06:57:54Z</time>
      </trkpt>
      <trkpt lat="45.210273033007979" lon="3.303941963240504">
        <ele>757.17999999999995</ele>
        <time>2025-04-25T06:57:55Z</time>
      </trkpt>
      <trkpt lat="45.21018804050982" lon="3.304101973772049">
        <ele>757.65999999999997</ele>
        <time>2025-04-25T06:57:56Z</time>
      </trkpt>
      <trkpt lat="45.210099024698138" lon="3.304270030930638">
        <ele>758.13999999999999</ele>
        <time>2025-04-25T06:57:57Z</time>
      </trkpt>
      <trkpt lat="45.210006991401315" lon="3.304442027583718">
        <ele>758.62</ele>
        <time>2025-04-25T06:57:58Z</time>
      </trkpt>
      <trkpt lat="45.209911018610001" lon="3.304621987044811">
        <ele>758.62</ele>
        <time>2025-04-25T06:57:59Z</time>
      </trkpt>
      <trkpt lat="45.209378013387322" lon="3.305742982774973">
        <ele>761.01999999999998</ele>
        <time>2025-04-25T06:58:05Z</time>
      </trkpt>
      <trkpt lat="45.209325039759278" lon="3.30592998303473">
        <ele>761.98000000000002</ele>
        <time>2025-04-25T06:58:06Z</time>
      </trkpt>
      <trkpt lat="45.209171986207366" lon="3.306375984102488">
        <ele>765.83000000000004</ele>
        <time>2025-04-25T06:58:09Z</time>
      </trkpt>
      <trkpt lat="45.209106020629406" lon="3.306456031277776">
        <ele>766.78999999999996</ele>
        <time>2025-04-25T06:58:10Z</time>
      </trkpt>
      <trkpt lat="45.209023961797357" lon="3.306475980207324">
        <ele>767.75</ele>
        <time>2025-04-25T06:58:11Z</time>
      </trkpt>
      <trkpt lat="45.208934023976326" lon="3.306499030441046">
        <ele>768.23000000000002</ele>
        <time>2025-04-25T06:58:12Z</time>
      </trkpt>
      <trkpt lat="45.208807038143277" lon="3.306456031277776">
        <ele>769.19000000000005</ele>
        <time>2025-04-25T06:58:13Z</time>
      </trkpt>
      <trkpt lat="45.208674017339945" lon="3.306412026286125">
        <ele>770.14999999999998</ele>
        <time>2025-04-25T06:58:14Z</time>
      </trkpt>
      <trkpt lat="45.208543008193374" lon="3.306338014081121">
        <ele>770.63</ele>
        <time>2025-04-25T06:58:15Z</time>
      </trkpt>
      <trkpt lat="45.208413004875183" lon="3.306236006319523">
        <ele>771.60000000000002</ele>
        <time>2025-04-25T06:58:16Z</time>
      </trkpt>
      <trkpt lat="45.20791101269424" lon="3.305773995816708">
        <ele>774.96000000000004</ele>
        <time>2025-04-25T06:58:20Z</time>
      </trkpt>
      <trkpt lat="45.207794001325965" lon="3.305644998326898">
        <ele>775.91999999999996</ele>
        <time>2025-04-25T06:58:21Z</time>
      </trkpt>
      <trkpt lat="45.207684030756354" lon="3.305523041635752">
        <ele>776.39999999999998</ele>
        <time>2025-04-25T06:58:22Z</time>
      </trkpt>
      <trkpt lat="45.207581017166376" lon="3.305407958105207">
        <ele>777.36000000000001</ele>
        <time>2025-04-25T06:58:23Z</time>
      </trkpt>
      <trkpt lat="45.207467023283243" lon="3.305342998355627">
        <ele>778.80999999999995</ele>
        <time>2025-04-25T06:58:24Z</time>
      </trkpt>
      <trkpt lat="45.207342971116304" lon="3.305311985313892">
        <ele>779.76999999999998</ele>
        <time>2025-04-25T06:58:25Z</time>
      </trkpt>
      <trkpt lat="45.207215985283256" lon="3.305322965607047">
        <ele>781.21000000000004</ele>
        <time>2025-04-25T06:58:26Z</time>
      </trkpt>
      <trkpt lat="45.207099979743361" lon="3.305369988083839">
        <ele>782.16999999999996</ele>
        <time>2025-04-25T06:58:27Z</time>
      </trkpt>
      <trkpt lat="45.206992020830512" lon="3.305412987247109">
        <ele>783.61000000000001</ele>
        <time>2025-04-25T06:58:28Z</time>
      </trkpt>
      <trkpt lat="45.20685900002718" lon="3.305406030267477">
        <ele>785.04999999999995</ele>
        <time>2025-04-25T06:58:29Z</time>
      </trkpt>
      <trkpt lat="45.206745006144047" lon="3.305382980033755">
        <ele>786.5</ele>
        <time>2025-04-25T06:58:30Z</time>
      </trkpt>
      <trkpt lat="45.206603016704321" lon="3.305257000029087">
        <ele>787.46000000000004</ele>
        <time>2025-04-25T06:58:31Z</time>
      </trkpt>
      <trkpt lat="45.206465972587466" lon="3.30513596534729">
        <ele>788.41999999999996</ele>
        <time>2025-04-25T06:58:32Z</time>
      </trkpt>
      <trkpt lat="45.20632297731936" lon="3.305007973685861">
        <ele>789.86000000000001</ele>
        <time>2025-04-25T06:58:33Z</time>
      </trkpt>
      <trkpt lat="45.206179982051253" lon="3.304881993681192">
        <ele>790.82000000000005</ele>
        <time>2025-04-25T06:58:34Z</time>
      </trkpt>
      <trkpt lat="45.205773040652275" lon="3.304585022851825">
        <ele>794.66999999999996</ele>
        <time>2025-04-25T06:58:37Z</time>
      </trkpt>
      <trkpt lat="45.205645971000195" lon="3.304507993161678">
        <ele>795.63</ele>
        <time>2025-04-25T06:58:38Z</time>
      </trkpt>
      <trkpt lat="45.205542035400867" lon="3.304405985400081">
        <ele>797.07000000000005</ele>
        <time>2025-04-25T06:58:39Z</time>
      </trkpt>
      <trkpt lat="45.205500964075327" lon="3.304310012608767">
        <ele>798.02999999999997</ele>
        <time>2025-04-25T06:58:40Z</time>
      </trkpt>
      <trkpt lat="45.20548696629703" lon="3.304144972935319">
        <ele>799.47000000000003</ele>
        <time>2025-04-25T06:58:41Z</time>
      </trkpt>
      <trkpt lat="45.205471962690353" lon="3.303968030959368">
        <ele>800.44000000000005</ele>
        <time>2025-04-25T06:58:42Z</time>
      </trkpt>
      <trkpt lat="45.205457964912057" lon="3.303795028477907">
        <ele>801.39999999999998</ele>
        <time>2025-04-25T06:58:43Z</time>
      </trkpt>
      <trkpt lat="45.205390993505716" lon="3.303594030439854">
        <ele>802.84000000000003</ele>
        <time>2025-04-25T06:58:44Z</time>
      </trkpt>
      <trkpt lat="45.205298960208893" lon="3.303434019908309">
        <ele>803.32000000000005</ele>
        <time>2025-04-25T06:58:45Z</time>
      </trkpt>
      <trkpt lat="45.205183960497379" lon="3.303290018811822">
        <ele>803.79999999999995</ele>
        <time>2025-04-25T06:58:46Z</time>
      </trkpt>
      <trkpt lat="45.205042976886034" lon="3.303169989958406">
        <ele>803.79999999999995</ele>
        <time>2025-04-25T06:58:47Z</time>
      </trkpt>
      <trkpt lat="45.204895958304405" lon="3.303044009953737">
        <ele>803.79999999999995</ele>
        <time>2025-04-25T06:58:48Z</time>
      </trkpt>
      <trkpt lat="45.204306039959192" lon="3.302527014166117">
        <ele>803.79999999999995</ele>
        <time>2025-04-25T06:58:52Z</time>
      </trkpt>
      <trkpt lat="45.204148041084409" lon="3.302439004182816">
        <ele>803.79999999999995</ele>
        <time>2025-04-25T06:58:53Z</time>
      </trkpt>
      <trkpt lat="45.203729029744864" lon="3.302243035286665">
        <ele>803.32000000000005</ele>
        <time>2025-04-25T06:58:56Z</time>
      </trkpt>
      <trkpt lat="45.203601038083434" lon="3.302213028073311">
        <ele>803.32000000000005</ele>
        <time>2025-04-25T06:58:57Z</time>
      </trkpt>
      <trkpt lat="45.203243969008327" lon="3.302197018638253">
        <ele>803.32000000000005</ele>
        <time>2025-04-25T06:59:00Z</time>
      </trkpt>
      <trkpt lat="45.203116983175278" lon="3.302203975617886">
        <ele>802.84000000000003</ele>
        <time>2025-04-25T06:59:02Z</time>
      </trkpt>
      <trkpt lat="45.20307800732553" lon="3.302205987274647">
        <ele>802.36000000000001</ele>
        <time>2025-04-25T06:59:03Z</time>
      </trkpt>
      <trkpt lat="45.203054035082459" lon="3.302206993103027">
        <ele>802.36000000000001</ele>
        <time>2025-04-25T06:59:11Z</time>
      </trkpt>
      <trkpt lat="45.203041965141892" lon="3.302111020311713">
        <ele>802.36000000000001</ele>
        <time>2025-04-25T06:59:20Z</time>
      </trkpt>
      <trkpt lat="45.203040037304163" lon="3.302095010876656">
        <ele>802.84000000000003</ele>
        <time>2025-04-25T06:59:21Z</time>
      </trkpt>
      <trkpt lat="45.203054035082459" lon="3.302206993103027">
        <ele>802.84000000000003</ele>
        <time>2025-04-25T06:59:22Z</time>
      </trkpt>
      <trkpt lat="45.203054035082459" lon="3.302206993103027">
        <ele>802.84000000000003</ele>
        <time>2025-04-25T06:59:35Z</time>
      </trkpt>
      <trkpt lat="45.203054035082459" lon="3.302206993103027">
        <ele>802.84000000000003</ele>
        <time>2025-04-25T07:00:11Z</time>
      </trkpt>
      <trkpt lat="45.203054035082459" lon="3.302206993103027">
        <ele>802.84000000000003</ele>
        <time>2025-04-25T07:00:40Z</time>
      </trkpt>
      <trkpt lat="45.203054035082459" lon="3.302206993103027">
        <ele>802.84000000000003</ele>
        <time>2025-04-25T07:01:22Z</time>
      </trkpt>
      <trkpt lat="45.203054035082459" lon="3.302206993103027">
        <ele>802.84000000000003</ele>
        <time>2025-04-25T07:02:15Z</time>
      </trkpt>
      <trkpt lat="45.203024027869105" lon="3.302237000316382">
        <ele>803.79999999999995</ele>
        <time>2025-04-25T07:02:47Z</time>
      </trkpt>
      <trkpt lat="45.203011035919189" lon="3.302249992266297">
        <ele>804.27999999999997</ele>
        <time>2025-04-25T07:02:48Z</time>
      </trkpt>
      <trkpt lat="45.202989997342229" lon="3.302272036671639">
        <ele>804.75999999999999</ele>
        <time>2025-04-25T07:02:49Z</time>
      </trkpt>
      <trkpt lat="45.202609961852431" lon="3.302651988342404">
        <ele>804.75999999999999</ele>
        <time>2025-04-25T07:02:56Z</time>
      </trkpt>
      <trkpt lat="45.202039992436767" lon="3.30343896523118">
        <ele>805.72000000000003</ele>
        <time>2025-04-25T07:03:03Z</time>
      </trkpt>
      <trkpt lat="45.20174796693027" lon="3.303627977147698">
        <ele>805.72000000000003</ele>
        <time>2025-04-25T07:03:06Z</time>
      </trkpt>
      <trkpt lat="45.201606983318925" lon="3.303657984361053">
        <ele>805.24000000000001</ele>
        <time>2025-04-25T07:03:07Z</time>
      </trkpt>
      <trkpt lat="45.200501997023821" lon="3.303891001269221">
        <ele>804.75999999999999</ele>
        <time>2025-04-25T07:03:14Z</time>
      </trkpt>
      <trkpt lat="45.200338969007134" lon="3.303925031796098">
        <ele>805.24000000000001</ele>
        <time>2025-04-25T07:03:15Z</time>
      </trkpt>
      <trkpt lat="45.200170995667577" lon="3.303974987939">
        <ele>805.24000000000001</ele>
        <time>2025-04-25T07:03:16Z</time>
      </trkpt>
      <trkpt lat="45.200009979307652" lon="3.304041037335992">
        <ele>805.72000000000003</ele>
        <time>2025-04-25T07:03:17Z</time>
      </trkpt>
      <trkpt lat="45.199850974604487" lon="3.304107002913952">
        <ele>806.20000000000005</ele>
        <time>2025-04-25T07:03:18Z</time>
      </trkpt>
      <trkpt lat="45.199688030406833" lon="3.304173974320293">
        <ele>807.15999999999997</ele>
        <time>2025-04-25T07:03:19Z</time>
      </trkpt>
      <trkpt lat="45.198924019932747" lon="3.304488966241479">
        <ele>810.04999999999995</ele>
        <time>2025-04-25T07:03:24Z</time>
      </trkpt>
      <trkpt lat="45.198782030493021" lon="3.304598014801741">
        <ele>810.52999999999997</ele>
        <time>2025-04-25T07:03:25Z</time>
      </trkpt>
      <trkpt lat="45.198653033003211" lon="3.304712008684874">
        <ele>811.00999999999999</ele>
        <time>2025-04-25T07:03:26Z</time>
      </trkpt>
      <trkpt lat="45.198530992493033" lon="3.304818961769342">
        <ele>811.49000000000001</ele>
        <time>2025-04-25T07:03:27Z</time>
      </trkpt>
      <trkpt lat="45.198419010266662" lon="3.304917030036449">
        <ele>811.97000000000003</ele>
        <time>2025-04-25T07:03:28Z</time>
      </trkpt>
      <trkpt lat="45.198301998898387" lon="3.304964974522591">
        <ele>812.45000000000005</ele>
        <time>2025-04-25T07:03:29Z</time>
      </trkpt>
      <trkpt lat="45.198175013065338" lon="3.30498400144279">
        <ele>812.92999999999995</ele>
        <time>2025-04-25T07:03:30Z</time>
      </trkpt>
      <trkpt lat="45.198045009747148" lon="3.304981989786029">
        <ele>813.40999999999997</ele>
        <time>2025-04-25T07:03:31Z</time>
      </trkpt>
      <trkpt lat="45.197907965630293" lon="3.304944019764662">
        <ele>813.88999999999999</ele>
        <time>2025-04-25T07:03:32Z</time>
      </trkpt>
      <trkpt lat="45.196902975440025" lon="3.304477985948324">
        <ele>821.58000000000004</ele>
        <time>2025-04-25T07:03:38Z</time>
      </trkpt>
      <trkpt lat="45.19564300775528" lon="3.303589001297951">
        <ele>830.72000000000003</ele>
        <time>2025-04-25T07:03:45Z</time>
      </trkpt>
      <trkpt lat="45.194555958732963" lon="3.302696999162436">
        <ele>838.88999999999999</ele>
        <time>2025-04-25T07:03:52Z</time>
      </trkpt>
      <trkpt lat="45.193623974919319" lon="3.302285028621554">
        <ele>843.21000000000004</ele>
        <time>2025-04-25T07:03:57Z</time>
      </trkpt>
      <trkpt lat="45.193440997973084" lon="3.302228031679988">
        <ele>844.17999999999995</ele>
        <time>2025-04-25T07:03:58Z</time>
      </trkpt>
      <trkpt lat="45.193255003541708" lon="3.302242029458284">
        <ele>845.13999999999999</ele>
        <time>2025-04-25T07:03:59Z</time>
      </trkpt>
      <trkpt lat="45.193075966089964" lon="3.30225401557982">
        <ele>845.62</ele>
        <time>2025-04-25T07:04:00Z</time>
      </trkpt>
      <trkpt lat="45.192906986922026" lon="3.302267007529736">
        <ele>846.10000000000002</ele>
        <time>2025-04-25T07:04:01Z</time>
      </trkpt>
      <trkpt lat="45.19274496473372" lon="3.302258038893342">
        <ele>846.58000000000004</ele>
        <time>2025-04-25T07:04:02Z</time>
      </trkpt>
      <trkpt lat="45.1925940066576" lon="3.302235994488001">
        <ele>847.05999999999995</ele>
        <time>2025-04-25T07:04:03Z</time>
      </trkpt>
      <trkpt lat="45.192441958934069" lon="3.302157036960125">
        <ele>847.53999999999996</ele>
        <time>2025-04-25T07:04:04Z</time>
      </trkpt>
      <trkpt lat="45.192303992807865" lon="3.302057040855289">
        <ele>848.01999999999998</ele>
        <time>2025-04-25T07:04:05Z</time>
      </trkpt>
      <trkpt lat="45.192167032510042" lon="3.30191396176815">
        <ele>848.5</ele>
        <time>2025-04-25T07:04:06Z</time>
      </trkpt>
      <trkpt lat="45.192029988393188" lon="3.301772978156805">
        <ele>848.98000000000002</ele>
        <time>2025-04-25T07:04:07Z</time>
      </trkpt>
      <trkpt lat="45.191894033923745" lon="3.301629982888699">
        <ele>849.46000000000004</ele>
        <time>2025-04-25T07:04:08Z</time>
      </trkpt>
      <trkpt lat="45.191752966493368" lon="3.301484975963831">
        <ele>849.46000000000004</ele>
        <time>2025-04-25T07:04:09Z</time>
      </trkpt>
      <trkpt lat="45.191591028124094" lon="3.301382968202233">
        <ele>849.94000000000005</ele>
        <time>2025-04-25T07:04:10Z</time>
      </trkpt>
      <trkpt lat="45.191426994279027" lon="3.301282972097397">
        <ele>850.41999999999996</ele>
        <time>2025-04-25T07:04:11Z</time>
      </trkpt>
      <trkpt lat="45.190077004954219" lon="3.300488032400608">
        <ele>854.75</ele>
        <time>2025-04-25T07:04:19Z</time>
      </trkpt>
      <trkpt lat="45.189897967502475" lon="3.300394993275404">
        <ele>855.23000000000002</ele>
        <time>2025-04-25T07:04:20Z</time>
      </trkpt>
      <trkpt lat="45.189727982506156" lon="3.300315029919148">
        <ele>856.19000000000005</ele>
        <time>2025-04-25T07:04:21Z</time>
      </trkpt>
      <trkpt lat="45.189095987007022" lon="3.300231965258718">
        <ele>859.08000000000004</ele>
        <time>2025-04-25T07:04:25Z</time>
      </trkpt>
      <trkpt lat="45.188946034759283" lon="3.300182009115815">
        <ele>860.03999999999996</ele>
        <time>2025-04-25T07:04:26Z</time>
      </trkpt>
      <trkpt lat="45.188806978985667" lon="3.300216961652041">
        <ele>861</ele>
        <time>2025-04-25T07:04:27Z</time>
      </trkpt>
      <trkpt lat="45.188685022294521" lon="3.300392981618643">
        <ele>861.96000000000004</ele>
        <time>2025-04-25T07:04:28Z</time>
      </trkpt>
      <trkpt lat="45.188556024804711" lon="3.300470011308789">
        <ele>862.91999999999996</ele>
        <time>2025-04-25T07:04:29Z</time>
      </trkpt>
      <trkpt lat="45.18788798712194" lon="3.300897991284728">
        <ele>865.79999999999995</ele>
        <time>2025-04-25T07:04:34Z</time>
      </trkpt>
      <trkpt lat="45.187738034874201" lon="3.300956999883056">
        <ele>866.28999999999996</ele>
        <time>2025-04-25T07:04:35Z</time>
      </trkpt>
      <trkpt lat="45.187601996585727" lon="3.300983989611268">
        <ele>866.76999999999998</ele>
        <time>2025-04-25T07:04:36Z</time>
      </trkpt>
      <trkpt lat="45.187448021024466" lon="3.300986001268029">
        <ele>867.25</ele>
        <time>2025-04-25T07:04:37Z</time>
      </trkpt>
      <trkpt lat="45.18730997107923" lon="3.300931015983224">
        <ele>867.25</ele>
        <time>2025-04-25T07:04:38Z</time>
      </trkpt>
      <trkpt lat="45.187182985246181" lon="3.300820039585233">
        <ele>867.73000000000002</ele>
        <time>2025-04-25T07:04:39Z</time>
      </trkpt>
      <trkpt lat="45.187060022726655" lon="3.300696993246675">
        <ele>868.21000000000004</ele>
        <time>2025-04-25T07:04:40Z</time>
      </trkpt>
      <trkpt lat="45.18694301135838" lon="3.300549974665046">
        <ele>868.69000000000005</ele>
        <time>2025-04-25T07:04:41Z</time>
      </trkpt>
      <trkpt lat="45.186834968626499" lon="3.300362974405289">
        <ele>869.16999999999996</ele>
        <time>2025-04-25T07:04:42Z</time>
      </trkpt>
      <trkpt lat="45.186085039749742" lon="3.299092026427388">
        <ele>873.5</ele>
        <time>2025-04-25T07:04:49Z</time>
      </trkpt>
      <trkpt lat="45.185986971482635" lon="3.298981972038746">
        <ele>873.98000000000002</ele>
        <time>2025-04-25T07:04:50Z</time>
      </trkpt>
      <trkpt lat="45.185879012569785" lon="3.298938972875476">
        <ele>873.98000000000002</ele>
        <time>2025-04-25T07:04:51Z</time>
      </trkpt>
      <trkpt lat="45.185753032565117" lon="3.298908965662122">
        <ele>874.46000000000004</ele>
        <time>2025-04-25T07:04:52Z</time>
      </trkpt>
      <trkpt lat="45.185656975954771" lon="3.299000998958945">
        <ele>874.94000000000005</ele>
        <time>2025-04-25T07:04:53Z</time>
      </trkpt>
      <trkpt lat="45.18554599955678" lon="3.299107030034065">
        <ele>874.94000000000005</ele>
        <time>2025-04-25T07:04:54Z</time>
      </trkpt>
      <trkpt lat="45.185428988188505" lon="3.299219012260437">
        <ele>874.94000000000005</ele>
        <time>2025-04-25T07:04:55Z</time>
      </trkpt>
      <trkpt lat="45.185312982648611" lon="3.299330994486809">
        <ele>874.46000000000004</ele>
        <time>2025-04-25T07:04:56Z</time>
      </trkpt>
      <trkpt lat="45.185197982937098" lon="3.299411041662097">
        <ele>874.46000000000004</ele>
        <time>2025-04-25T07:04:57Z</time>
      </trkpt>
      <trkpt lat="45.185059010982513" lon="3.299457980319858">
        <ele>874.46000000000004</ele>
        <time>2025-04-25T07:04:58Z</time>
      </trkpt>
      <trkpt lat="45.184926996007562" lon="3.299459991976619">
        <ele>874.46000000000004</ele>
        <time>2025-04-25T07:04:59Z</time>
      </trkpt>
      <trkpt lat="45.184809984639287" lon="3.299410035833716">
        <ele>874.94000000000005</ele>
        <time>2025-04-25T07:05:00Z</time>
      </trkpt>
      <trkpt lat="45.184667995199561" lon="3.299309033900499">
        <ele>875.41999999999996</ele>
        <time>2025-04-25T07:05:01Z</time>
      </trkpt>
      <trkpt lat="45.184526005759835" lon="3.299208031967282">
        <ele>875.89999999999998</ele>
        <time>2025-04-25T07:05:02Z</time>
      </trkpt>
      <trkpt lat="45.183585975319147" lon="3.298496995121241">
        <ele>882.14999999999998</ele>
        <time>2025-04-25T07:05:08Z</time>
      </trkpt>
      <trkpt lat="45.183409033343196" lon="3.298415020108223">
        <ele>883.59000000000003</ele>
        <time>2025-04-25T07:05:09Z</time>
      </trkpt>
      <trkpt lat="45.182907963171601" lon="3.298183009028435">
        <ele>886.47000000000003</ele>
        <time>2025-04-25T07:05:12Z</time>
      </trkpt>
      <trkpt lat="45.182779971510172" lon="3.298077983781695">
        <ele>887.42999999999995</ele>
        <time>2025-04-25T07:05:13Z</time>
      </trkpt>
      <trkpt lat="45.182648040354252" lon="3.297919984906912">
        <ele>888.88</ele>
        <time>2025-04-25T07:05:14Z</time>
      </trkpt>
      <trkpt lat="45.1823899615556" lon="3.297610022127628">
        <ele>891.27999999999997</ele>
        <time>2025-04-25T07:05:16Z</time>
      </trkpt>
      <trkpt lat="45.182264987379313" lon="3.297459986060858">
        <ele>892.24000000000001</ele>
        <time>2025-04-25T07:05:17Z</time>
      </trkpt>
      <trkpt lat="45.182112017646432" lon="3.297340963035822">
        <ele>892.72000000000003</ele>
        <time>2025-04-25T07:05:18Z</time>
      </trkpt>
      <trkpt lat="45.181949995458126" lon="3.297268962487578">
        <ele>893.67999999999995</ele>
        <time>2025-04-25T07:05:19Z</time>
      </trkpt>
      <trkpt lat="45.18178503960371" lon="3.297196039929986">
        <ele>894.63999999999999</ele>
        <time>2025-04-25T07:05:20Z</time>
      </trkpt>
      <trkpt lat="45.181606002151966" lon="3.297121021896601">
        <ele>895.61000000000001</ele>
        <time>2025-04-25T07:05:21Z</time>
      </trkpt>
      <trkpt lat="45.18142000772059" lon="3.297114986926317">
        <ele>896.57000000000005</ele>
        <time>2025-04-25T07:05:22Z</time>
      </trkpt>
      <trkpt lat="45.18122898414731" lon="3.297108029946685">
        <ele>897.52999999999997</ele>
        <time>2025-04-25T07:05:23Z</time>
      </trkpt>
      <trkpt lat="45.180061971768737" lon="3.297110963612795">
        <ele>905.70000000000005</ele>
        <time>2025-04-25T07:05:29Z</time>
      </trkpt>
      <trkpt lat="45.178488017991185" lon="3.297290001064539">
        <ele>916.75</ele>
        <time>2025-04-25T07:05:37Z</time>
      </trkpt>
      <trkpt lat="45.178077975288033" lon="3.297336017712951">
        <ele>919.63999999999999</ele>
        <time>2025-04-25T07:05:39Z</time>
      </trkpt>
      <trkpt lat="45.176754975691438" lon="3.297374993562698">
        <ele>927.80999999999995</ele>
        <time>2025-04-25T07:05:46Z</time>
      </trkpt>
      <trkpt lat="45.176590019837022" lon="3.297354960814118">
        <ele>928.76999999999998</ele>
        <time>2025-04-25T07:05:47Z</time>
      </trkpt>
      <trkpt lat="45.176439983770251" lon="3.297337023541331">
        <ele>930.21000000000004</ele>
        <time>2025-04-25T07:05:48Z</time>
      </trkpt>
      <trkpt lat="45.176293971017003" lon="3.297320008277893">
        <ele>930.69000000000005</ele>
        <time>2025-04-25T07:05:49Z</time>
      </trkpt>
      <trkpt lat="45.176162039861083" lon="3.297368958592415">
        <ele>931.16999999999996</ele>
        <time>2025-04-25T07:05:50Z</time>
      </trkpt>
      <trkpt lat="45.176032958552241" lon="3.297449005767703">
        <ele>931.16999999999996</ele>
        <time>2025-04-25T07:05:51Z</time>
      </trkpt>
      <trkpt lat="45.175903961062431" lon="3.297568028792739">
        <ele>932.13999999999999</ele>
        <time>2025-04-25T07:05:52Z</time>
      </trkpt>
      <trkpt lat="45.175768006592989" lon="3.297693002969027">
        <ele>932.62</ele>
        <time>2025-04-25T07:05:53Z</time>
      </trkpt>
      <trkpt lat="45.175628028810024" lon="3.297823006287217">
        <ele>932.62</ele>
        <time>2025-04-25T07:05:54Z</time>
      </trkpt>
      <trkpt lat="45.175483021885157" lon="3.29795703291893">
        <ele>933.10000000000002</ele>
        <time>2025-04-25T07:05:55Z</time>
      </trkpt>
      <trkpt lat="45.175311025232077" lon="3.298035990446806">
        <ele>934.05999999999995</ele>
        <time>2025-04-25T07:05:56Z</time>
      </trkpt>
      <trkpt lat="45.174500998109579" lon="3.298390964046121">
        <ele>937.41999999999996</ele>
        <time>2025-04-25T07:06:01Z</time>
      </trkpt>
      <trkpt lat="45.174361020326614" lon="3.298403033986688">
        <ele>938.38</ele>
        <time>2025-04-25T07:06:02Z</time>
      </trkpt>
      <trkpt lat="45.174240991473198" lon="3.29836598597467">
        <ele>938.86000000000001</ele>
        <time>2025-04-25T07:06:03Z</time>
      </trkpt>
      <trkpt lat="45.174129009246826" lon="3.298284010961652">
        <ele>939.83000000000004</ele>
        <time>2025-04-25T07:06:04Z</time>
      </trkpt>
      <trkpt lat="45.174001017585397" lon="3.298191977664828">
        <ele>940.30999999999995</ele>
        <time>2025-04-25T07:06:05Z</time>
      </trkpt>
      <trkpt lat="45.173869002610445" lon="3.298084018751979">
        <ele>941.26999999999998</ele>
        <time>2025-04-25T07:06:06Z</time>
      </trkpt>
      <trkpt lat="45.17373195849359" lon="3.297947980463505">
        <ele>942.23000000000002</ele>
        <time>2025-04-25T07:06:07Z</time>
      </trkpt>
      <trkpt lat="45.172708025202155" lon="3.296722965314984">
        <ele>954.73000000000002</ele>
        <time>2025-04-25T07:06:15Z</time>
      </trkpt>
      <trkpt lat="45.172477019950747" lon="3.29651802778244">
        <ele>957.13</ele>
        <time>2025-04-25T07:06:17Z</time>
      </trkpt>
      <trkpt lat="45.172370988875628" lon="3.296434041112661">
        <ele>958.57000000000005</ele>
        <time>2025-04-25T07:06:18Z</time>
      </trkpt>
      <trkpt lat="45.172263029962778" lon="3.29634896479547">
        <ele>959.52999999999997</ele>
        <time>2025-04-25T07:06:19Z</time>
      </trkpt>
      <trkpt lat="45.172170996665955" lon="3.296337984502316">
        <ele>960.49000000000001</ele>
        <time>2025-04-25T07:06:20Z</time>
      </trkpt>
      <trkpt lat="45.172063037753105" lon="3.296323986724019">
        <ele>961.46000000000004</ele>
        <time>2025-04-25T07:06:21Z</time>
      </trkpt>
      <trkpt lat="45.171951977536082" lon="3.296309988945723">
        <ele>962.89999999999998</ele>
        <time>2025-04-25T07:06:22Z</time>
      </trkpt>
      <trkpt lat="45.171052012592554" lon="3.296221978962421">
        <ele>967.70000000000005</ele>
        <time>2025-04-25T07:06:30Z</time>
      </trkpt>
      <trkpt lat="45.169940991327167" lon="3.295798022300005">
        <ele>966.25999999999999</ele>
        <time>2025-04-25T07:06:37Z</time>
      </trkpt>
      <trkpt lat="45.169636979699135" lon="3.295622002333403">
        <ele>965.29999999999995</ele>
        <time>2025-04-25T07:06:39Z</time>
      </trkpt>
      <trkpt lat="45.169489961117506" lon="3.295572968199849">
        <ele>964.82000000000005</ele>
        <time>2025-04-25T07:06:40Z</time>
      </trkpt>
      <trkpt lat="45.169319976121187" lon="3.295565005391836">
        <ele>964.82000000000005</ele>
        <time>2025-04-25T07:06:41Z</time>
      </trkpt>
      <trkpt lat="45.168611034750938" lon="3.295497028157115">
        <ele>963.86000000000001</ele>
        <time>2025-04-25T07:06:45Z</time>
      </trkpt>
      <trkpt lat="45.168447000905871" lon="3.295429972931743">
        <ele>963.38</ele>
        <time>2025-04-25T07:06:46Z</time>
      </trkpt>
      <trkpt lat="45.168098984286189" lon="3.29531597904861">
        <ele>962.89999999999998</ele>
        <time>2025-04-25T07:06:48Z</time>
      </trkpt>
      <trkpt lat="45.167057029902935" lon="3.295026971027255">
        <ele>964.34000000000003</ele>
        <time>2025-04-25T07:06:55Z</time>
      </trkpt>
      <trkpt lat="45.166884027421474" lon="3.294942984357476">
        <ele>965.29999999999995</ele>
        <time>2025-04-25T07:06:57Z</time>
      </trkpt>
      <trkpt lat="45.166802974417806" lon="3.294898979365826">
        <ele>966.25999999999999</ele>
        <time>2025-04-25T07:06:58Z</time>
      </trkpt>
      <trkpt lat="45.166368037462234" lon="3.294673003256321">
        <ele>967.70000000000005</ele>
        <time>2025-04-25T07:07:03Z</time>
      </trkpt>
      <trkpt lat="45.166283966973424" lon="3.294630004093051">
        <ele>968.17999999999995</ele>
        <time>2025-04-25T07:07:04Z</time>
      </trkpt>
      <trkpt lat="45.166196962818503" lon="3.29458499327302">
        <ele>968.17999999999995</ele>
        <time>2025-04-25T07:07:05Z</time>
      </trkpt>
      <trkpt lat="45.16610199585557" lon="3.294535959139466">
        <ele>968.66999999999996</ele>
        <time>2025-04-25T07:07:06Z</time>
      </trkpt>
      <trkpt lat="45.165999988093972" lon="3.294483991339803">
        <ele>968.66999999999996</ele>
        <time>2025-04-25T07:07:07Z</time>
      </trkpt>
      <trkpt lat="45.165134975686669" lon="3.294081995263696">
        <ele>964.82000000000005</ele>
        <time>2025-04-25T07:07:15Z</time>
      </trkpt>
      <trkpt lat="45.164908999577165" lon="3.294012006372213">
        <ele>963.38</ele>
        <time>2025-04-25T07:07:17Z</time>
      </trkpt>
      <trkpt lat="45.164814032614231" lon="3.294059028849006">
        <ele>962.89999999999998</ele>
        <time>2025-04-25T07:07:18Z</time>
      </trkpt>
      <trkpt lat="45.164712024852633" lon="3.294114014133811">
        <ele>962.41999999999996</ele>
        <time>2025-04-25T07:07:19Z</time>
      </trkpt>
      <trkpt lat="45.164643963798881" lon="3.294202024117112">
        <ele>961.94000000000005</ele>
        <time>2025-04-25T07:07:20Z</time>
      </trkpt>
      <trkpt lat="45.164587972685695" lon="3.294357005506754">
        <ele>961.46000000000004</ele>
        <time>2025-04-25T07:07:21Z</time>
      </trkpt>
      <trkpt lat="45.164528964087367" lon="3.29452296718955">
        <ele>961.46000000000004</ele>
        <time>2025-04-25T07:07:22Z</time>
      </trkpt>
      <trkpt lat="45.164244985207915" lon="3.295312039554119">
        <ele>960.00999999999999</ele>
        <time>2025-04-25T07:07:26Z</time>
      </trkpt>
      <trkpt lat="45.16416996717453" lon="3.295537009835243">
        <ele>959.52999999999997</ele>
        <time>2025-04-25T07:07:27Z</time>
      </trkpt>
      <trkpt lat="45.164138032123446" lon="3.29578896984458">
        <ele>959.04999999999995</ele>
        <time>2025-04-25T07:07:28Z</time>
      </trkpt>
      <trkpt lat="45.164106013253331" lon="3.296042019501329">
        <ele>958.57000000000005</ele>
        <time>2025-04-25T07:07:29Z</time>
      </trkpt>
      <trkpt lat="45.164073994383216" lon="3.296290962025523">
        <ele>958.09000000000003</ele>
        <time>2025-04-25T07:07:30Z</time>
      </trkpt>
      <trkpt lat="45.164043987169862" lon="3.29652096144855">
        <ele>957.13</ele>
        <time>2025-04-25T07:07:31Z</time>
      </trkpt>
      <trkpt lat="45.163989001885056" lon="3.296752972528338">
        <ele>955.69000000000005</ele>
        <time>2025-04-25T07:07:32Z</time>
      </trkpt>
      <trkpt lat="45.163937034085393" lon="3.29697098582983">
        <ele>954.73000000000002</ele>
        <time>2025-04-25T07:07:33Z</time>
      </trkpt>
      <trkpt lat="45.163826979696751" lon="3.297178018838167">
        <ele>954.25</ele>
        <time>2025-04-25T07:07:34Z</time>
      </trkpt>
      <trkpt lat="45.163628999143839" lon="3.297545984387398">
        <ele>952.32000000000005</ele>
        <time>2025-04-25T07:07:36Z</time>
      </trkpt>
      <trkpt lat="45.163383996114135" lon="3.297857036814094">
        <ele>949.91999999999996</ele>
        <time>2025-04-25T07:07:38Z</time>
      </trkpt>
      <trkpt lat="45.162945035845041" lon="3.298490960150957">
        <ele>945.11000000000001</ele>
        <time>2025-04-25T07:07:42Z</time>
      </trkpt>
      <trkpt lat="45.162911005318165" lon="3.298647031188011">
        <ele>944.14999999999998</ele>
        <time>2025-04-25T07:07:43Z</time>
      </trkpt>
      <trkpt lat="45.162906982004642" lon="3.298666980117559">
        <ele>943.19000000000005</ele>
        <time>2025-04-25T07:07:44Z</time>
      </trkpt>
      <trkpt lat="45.16296599060297" lon="3.298807041719556">
        <ele>942.23000000000002</ele>
        <time>2025-04-25T07:07:45Z</time>
      </trkpt>
      <trkpt lat="45.163014018908143" lon="3.298923969268799">
        <ele>941.75</ele>
        <time>2025-04-25T07:07:46Z</time>
      </trkpt>
      <trkpt lat="45.163122983649373" lon="3.298997981473804">
        <ele>941.75</ele>
        <time>2025-04-25T07:07:47Z</time>
      </trkpt>
      <trkpt lat="45.163272013887763" lon="3.299098983407021">
        <ele>941.75</ele>
        <time>2025-04-25T07:07:48Z</time>
      </trkpt>
      <trkpt lat="45.163415009155869" lon="3.299195962026715">
        <ele>941.75</ele>
        <time>2025-04-25T07:07:49Z</time>
      </trkpt>
      <trkpt lat="45.164220007136464" lon="3.299972964450717">
        <ele>946.07000000000005</ele>
        <time>2025-04-25T07:07:54Z</time>
      </trkpt>
      <trkpt lat="45.16556597314775" lon="3.300975020974875">
        <ele>951.84000000000003</ele>
        <time>2025-04-25T07:08:02Z</time>
      </trkpt>
      <trkpt lat="45.165739981457591" lon="3.301091026514769">
        <ele>952.32000000000005</ele>
        <time>2025-04-25T07:08:03Z</time>
      </trkpt>
      <trkpt lat="45.165981967002153" lon="3.301315996795893">
        <ele>953.76999999999998</ele>
        <time>2025-04-25T07:08:05Z</time>
      </trkpt>
      <trkpt lat="45.166107024997473" lon="3.301469972357154">
        <ele>954.25</ele>
        <time>2025-04-25T07:08:06Z</time>
      </trkpt>
      <trkpt lat="45.166220013052225" lon="3.301683962345123">
        <ele>954.73000000000002</ele>
        <time>2025-04-25T07:08:07Z</time>
      </trkpt>
      <trkpt lat="45.166241973638535" lon="3.301842967048287">
        <ele>954.73000000000002</ele>
        <time>2025-04-25T07:08:08Z</time>
      </trkpt>
      <trkpt lat="45.166243985295296" lon="3.302043965086341">
        <ele>955.21000000000004</ele>
        <time>2025-04-25T07:08:09Z</time>
      </trkpt>
      <trkpt lat="45.16620903275907" lon="3.302245968952775">
        <ele>955.69000000000005</ele>
        <time>2025-04-25T07:08:10Z</time>
      </trkpt>
      <trkpt lat="45.166153963655233" lon="3.302429029718041">
        <ele>956.16999999999996</ele>
        <time>2025-04-25T07:08:11Z</time>
      </trkpt>
      <trkpt lat="45.166093027219176" lon="3.302632039412856">
        <ele>956.64999999999998</ele>
        <time>2025-04-25T07:08:12Z</time>
      </trkpt>
      <trkpt lat="45.166023960337043" lon="3.302861033007503">
        <ele>957.61000000000001</ele>
        <time>2025-04-25T07:08:13Z</time>
      </trkpt>
      <trkpt lat="45.165884988382459" lon="3.303377022966743">
        <ele>958.57000000000005</ele>
        <time>2025-04-25T07:08:15Z</time>
      </trkpt>
      <trkpt lat="45.165832014754415" lon="3.303657984361053">
        <ele>959.04999999999995</ele>
        <time>2025-04-25T07:08:16Z</time>
      </trkpt>
      <trkpt lat="45.165689019486308" lon="3.304420989006758">
        <ele>960.49000000000001</ele>
        <time>2025-04-25T07:08:19Z</time>
      </trkpt>
      <trkpt lat="45.165636967867613" lon="3.304642019793391">
        <ele>960.98000000000002</ele>
        <time>2025-04-25T07:08:20Z</time>
      </trkpt>
      <trkpt lat="45.165534038096666" lon="3.304838994517922">
        <ele>961.46000000000004</ele>
        <time>2025-04-25T07:08:21Z</time>
      </trkpt>
      <trkpt lat="45.165418032556772" lon="3.305061031132937">
        <ele>961.94000000000005</ele>
        <time>2025-04-25T07:08:22Z</time>
      </trkpt>
      <trkpt lat="45.165288029238582" lon="3.305233027786017">
        <ele>961.94000000000005</ele>
        <time>2025-04-25T07:08:23Z</time>
      </trkpt>
      <trkpt lat="45.164879998192191" lon="3.305704006925225">
        <ele>963.86000000000001</ele>
        <time>2025-04-25T07:08:26Z</time>
      </trkpt>
      <trkpt lat="45.164718981832266" lon="3.305827975273132">
        <ele>965.29999999999995</ele>
        <time>2025-04-25T07:08:27Z</time>
      </trkpt>
      <trkpt lat="45.164542039856315" lon="3.305911961942911">
        <ele>966.74000000000001</ele>
        <time>2025-04-25T07:08:28Z</time>
      </trkpt>
      <trkpt lat="45.163161959499121" lon="3.306569019332528">
        <ele>976.36000000000001</ele>
        <time>2025-04-25T07:08:35Z</time>
      </trkpt>
      <trkpt lat="45.162949981167912" lon="3.306670021265745">
        <ele>977.32000000000005</ele>
        <time>2025-04-25T07:08:36Z</time>
      </trkpt>
      <trkpt lat="45.161683978512883" lon="3.306893985718489">
        <ele>984.04999999999995</ele>
        <time>2025-04-25T07:08:43Z</time>
      </trkpt>
      <trkpt lat="45.161533020436764" lon="3.306964980438352">
        <ele>985.00999999999999</ele>
        <time>2025-04-25T07:08:44Z</time>
      </trkpt>
      <trkpt lat="45.161340991035104" lon="3.307056007906795">
        <ele>985.97000000000003</ele>
        <time>2025-04-25T07:08:45Z</time>
      </trkpt>
      <trkpt lat="45.161261027678847" lon="3.307170001789928">
        <ele>987.40999999999997</ele>
        <time>2025-04-25T07:08:46Z</time>
      </trkpt>
      <trkpt lat="45.161143010482192" lon="3.307336969301105">
        <ele>988.37</ele>
        <time>2025-04-25T07:08:47Z</time>
      </trkpt>
      <trkpt lat="45.161035973578691" lon="3.307550959289074">
        <ele>989.33000000000004</ele>
        <time>2025-04-25T07:08:48Z</time>
      </trkpt>
      <trkpt lat="45.160953998565674" lon="3.307778025045991">
        <ele>990.29999999999995</ele>
        <time>2025-04-25T07:08:49Z</time>
      </trkpt>
      <trkpt lat="45.160868000239134" lon="3.308012969791889">
        <ele>990.77999999999997</ele>
        <time>2025-04-25T07:08:50Z</time>
      </trkpt>
      <trkpt lat="45.160783007740974" lon="3.308246992528439">
        <ele>991.25999999999999</ele>
        <time>2025-04-25T07:08:51Z</time>
      </trkpt>
      <trkpt lat="45.160693991929293" lon="3.308448996394873">
        <ele>991.25999999999999</ele>
        <time>2025-04-25T07:08:52Z</time>
      </trkpt>
      <trkpt lat="45.160353016108274" lon="3.309179982170463">
        <ele>992.22000000000003</ele>
        <time>2025-04-25T07:08:56Z</time>
      </trkpt>
      <trkpt lat="45.160308005288243" lon="3.309377962723374">
        <ele>992.22000000000003</ele>
        <time>2025-04-25T07:08:57Z</time>
      </trkpt>
      <trkpt lat="45.160295013338327" lon="3.309587007388473">
        <ele>993.17999999999995</ele>
        <time>2025-04-25T07:08:58Z</time>
      </trkpt>
      <trkpt lat="45.160182025283575" lon="3.310949988663197">
        <ele>997.99000000000001</ele>
        <time>2025-04-25T07:09:06Z</time>
      </trkpt>
      <trkpt lat="45.160112958401442" lon="3.311456004157662">
        <ele>997.99000000000001</ele>
        <time>2025-04-25T07:09:10Z</time>
      </trkpt>
      <trkpt lat="45.1600840408355" lon="3.31166697666049">
        <ele>997.99000000000001</ele>
        <time>2025-04-25T07:09:12Z</time>
      </trkpt>
      <trkpt lat="45.160074988380075" lon="3.311734031885862">
        <ele>997.99000000000001</ele>
        <time>2025-04-25T07:09:13Z</time>
      </trkpt>
      <trkpt lat="45.160068031400442" lon="3.311815001070499">
        <ele>997.99000000000001</ele>
        <time>2025-04-25T07:09:14Z</time>
      </trkpt>
      <trkpt lat="45.159968035295606" lon="3.311892030760646">
        <ele>997.99000000000001</ele>
        <time>2025-04-25T07:09:15Z</time>
      </trkpt>
      <trkpt lat="45.159938028082252" lon="3.311856994405389">
        <ele>997.99000000000001</ele>
        <time>2025-04-25T07:09:16Z</time>
      </trkpt>
      <trkpt lat="45.159894023090601" lon="3.311805026605725">
        <ele>997.99000000000001</ele>
        <time>2025-04-25T07:09:17Z</time>
      </trkpt>
      <trkpt lat="45.159837026149035" lon="3.311736965551972">
        <ele>997.99000000000001</ele>
        <time>2025-04-25T07:09:18Z</time>
      </trkpt>
      <trkpt lat="45.159766031429172" lon="3.311654990538955">
        <ele>997.99000000000001</ele>
        <time>2025-04-25T07:09:19Z</time>
      </trkpt>
      <trkpt lat="45.159690007567406" lon="3.311564968898892">
        <ele>997.99000000000001</ele>
        <time>2025-04-25T07:09:20Z</time>
      </trkpt>
      <trkpt lat="45.158815020695329" lon="3.310888968408108">
        <ele>1000.39</ele>
        <time>2025-04-25T07:09:28Z</time>
      </trkpt>
      <trkpt lat="45.157496966421604" lon="3.30994701012969">
        <ele>1006.64</ele>
        <time>2025-04-25T07:09:38Z</time>
      </trkpt>
      <trkpt lat="45.156745025888085" lon="3.309012008830905">
        <ele>1009.04</ele>
        <time>2025-04-25T07:09:44Z</time>
      </trkpt>
      <trkpt lat="45.155864004045725" lon="3.307714993134141">
        <ele>1011.9299999999999</ele>
        <time>2025-04-25T07:09:51Z</time>
      </trkpt>
      <trkpt lat="45.154861025512218" lon="3.306627022102475">
        <ele>1010.96</ele>
        <time>2025-04-25T07:09:58Z</time>
      </trkpt>
      <trkpt lat="45.15471501275897" lon="3.306510010734201">
        <ele>1010.48</ele>
        <time>2025-04-25T07:09:59Z</time>
      </trkpt>
      <trkpt lat="45.154173960909247" lon="3.306085970252752">
        <ele>1007.6</ele>
        <time>2025-04-25T07:10:03Z</time>
      </trkpt>
      <trkpt lat="45.154011016711593" lon="3.306052023544908">
        <ele>1006.16</ele>
        <time>2025-04-25T07:10:04Z</time>
      </trkpt>
      <trkpt lat="45.153838014230132" lon="3.30601598136127">
        <ele>1005.6799999999999</ele>
        <time>2025-04-25T07:10:05Z</time>
      </trkpt>
      <trkpt lat="45.153652019798756" lon="3.306027967482805">
        <ele>1005.2</ele>
        <time>2025-04-25T07:10:06Z</time>
      </trkpt>
      <trkpt lat="45.153460996225476" lon="3.30605898052454">
        <ele>1004.72</ele>
        <time>2025-04-25T07:10:07Z</time>
      </trkpt>
      <trkpt lat="45.152051998302341" lon="3.30629400908947">
        <ele>1002.79</ele>
        <time>2025-04-25T07:10:15Z</time>
      </trkpt>
      <trkpt lat="45.151915038004518" lon="3.306284034624696">
        <ele>1002.3099999999999</ele>
        <time>2025-04-25T07:10:16Z</time>
      </trkpt>
      <trkpt lat="45.151787968352437" lon="3.306245980784297">
        <ele>1001.83</ele>
        <time>2025-04-25T07:10:17Z</time>
      </trkpt>
      <trkpt lat="45.151670034974813" lon="3.306170040741563">
        <ele>1001.35</ele>
        <time>2025-04-25T07:10:18Z</time>
      </trkpt>
      <trkpt lat="45.151570038869977" lon="3.306040037423372">
        <ele>1001.35</ele>
        <time>2025-04-25T07:10:19Z</time>
      </trkpt>
      <trkpt lat="45.151486974209547" lon="3.305885978043079">
        <ele>1000.87</ele>
        <time>2025-04-25T07:10:20Z</time>
      </trkpt>
      <trkpt lat="45.151441963389516" lon="3.305694032460451">
        <ele>1000.87</ele>
        <time>2025-04-25T07:10:21Z</time>
      </trkpt>
      <trkpt lat="45.15140600502491" lon="3.305483981966972">
        <ele>1000.87</ele>
        <time>2025-04-25T07:10:22Z</time>
      </trkpt>
      <trkpt lat="45.151395024731755" lon="3.30526202917099">
        <ele>1000.87</ele>
        <time>2025-04-25T07:10:23Z</time>
      </trkpt>
      <trkpt lat="45.151421008631587" lon="3.305035969242454">
        <ele>1001.35</ele>
        <time>2025-04-25T07:10:24Z</time>
      </trkpt>
      <trkpt lat="45.151466019451618" lon="3.304803036153317">
        <ele>1002.3099999999999</ele>
        <time>2025-04-25T07:10:25Z</time>
      </trkpt>
      <trkpt lat="45.151517987251282" lon="3.304568007588387">
        <ele>1003.27</ele>
        <time>2025-04-25T07:10:26Z</time>
      </trkpt>
      <trkpt lat="45.151597028598189" lon="3.304132986813784">
        <ele>1005.6799999999999</ele>
        <time>2025-04-25T07:10:28Z</time>
      </trkpt>
      <trkpt lat="45.151588981971145" lon="3.303912039846182">
        <ele>1006.64</ele>
        <time>2025-04-25T07:10:29Z</time>
      </trkpt>
      <trkpt lat="45.151581019163132" lon="3.303680028766394">
        <ele>1007.6</ele>
        <time>2025-04-25T07:10:30Z</time>
      </trkpt>
      <trkpt lat="45.151552017778158" lon="3.303441982716322">
        <ele>1008.5599999999999</ele>
        <time>2025-04-25T07:10:31Z</time>
      </trkpt>
      <trkpt lat="45.151510024443269" lon="3.303207037970424">
        <ele>1009.52</ele>
        <time>2025-04-25T07:10:32Z</time>
      </trkpt>
      <trkpt lat="45.151284970343113" lon="3.30240597948432">
        <ele>1013.37</ele>
        <time>2025-04-25T07:10:36Z</time>
      </trkpt>
      <trkpt lat="45.15119100920856" lon="3.302228031679988">
        <ele>1014.33</ele>
        <time>2025-04-25T07:10:37Z</time>
      </trkpt>
      <trkpt lat="45.151080032810569" lon="3.302086964249611">
        <ele>1014.8099999999999</ele>
        <time>2025-04-25T07:10:38Z</time>
      </trkpt>
      <trkpt lat="45.150831006467342" lon="3.301795022562146">
        <ele>1016.25</ele>
        <time>2025-04-25T07:10:40Z</time>
      </trkpt>
      <trkpt lat="45.150691028684378" lon="3.301701983436942">
        <ele>1016.73</ele>
        <time>2025-04-25T07:10:41Z</time>
      </trkpt>
      <trkpt lat="45.150548033416271" lon="3.301623025909066">
        <ele>1017.6900000000001</ele>
        <time>2025-04-25T07:10:42Z</time>
      </trkpt>
      <trkpt lat="45.149151021614671" lon="3.300961023196578">
        <ele>1025.8599999999999</ele>
        <time>2025-04-25T07:10:51Z</time>
      </trkpt>
      <trkpt lat="45.149008026346564" lon="3.300834037363529">
        <ele>1026.8299999999999</ele>
        <time>2025-04-25T07:10:52Z</time>
      </trkpt>
      <trkpt lat="45.148885985836387" lon="3.300671009346843">
        <ele>1027.79</ele>
        <time>2025-04-25T07:10:53Z</time>
      </trkpt>
      <trkpt lat="45.148761011660099" lon="3.300500018522143">
        <ele>1028.75</ele>
        <time>2025-04-25T07:10:54Z</time>
      </trkpt>
      <trkpt lat="45.148670990020037" lon="3.300296002998948">
        <ele>1029.71</ele>
        <time>2025-04-25T07:10:55Z</time>
      </trkpt>
      <trkpt lat="45.148581974208355" lon="3.300089975818992">
        <ele>1030.6700000000001</ele>
        <time>2025-04-25T07:10:56Z</time>
      </trkpt>
      <trkpt lat="45.148503016680479" lon="3.299870034679771">
        <ele>1032.1099999999999</ele>
        <time>2025-04-25T07:10:57Z</time>
      </trkpt>
      <trkpt lat="45.14842196367681" lon="3.299644980579615">
        <ele>1033.0699999999999</ele>
        <time>2025-04-25T07:10:58Z</time>
      </trkpt>
      <trkpt lat="45.147570027038455" lon="3.297279020771384">
        <ele>1045.0899999999999</ele>
        <time>2025-04-25T07:11:08Z</time>
      </trkpt>
      <trkpt lat="45.146815991029143" lon="3.295740019530058">
        <ele>1051.3399999999999</ele>
        <time>2025-04-25T07:11:15Z</time>
      </trkpt>
      <trkpt lat="45.146653968840837" lon="3.295375993475318">
        <ele>1052.78</ele>
        <time>2025-04-25T07:11:17Z</time>
      </trkpt>
      <trkpt lat="45.146603006869555" lon="3.295222017914057">
        <ele>1053.26</ele>
        <time>2025-04-25T07:11:18Z</time>
      </trkpt>
      <trkpt lat="45.146591020748019" lon="3.295081034302712">
        <ele>1053.74</ele>
        <time>2025-04-25T07:11:19Z</time>
      </trkpt>
      <trkpt lat="45.146581968292594" lon="3.294939966872335">
        <ele>1053.74</ele>
        <time>2025-04-25T07:11:20Z</time>
      </trkpt>
      <trkpt lat="45.1465920265764" lon="3.294794037938118">
        <ele>1054.22</ele>
        <time>2025-04-25T07:11:21Z</time>
      </trkpt>
      <trkpt lat="45.146623039618134" lon="3.29462799243629">
        <ele>1054.22</ele>
        <time>2025-04-25T07:11:22Z</time>
      </trkpt>
      <trkpt lat="45.146895032376051" lon="3.293141964823008">
        <ele>1052.78</ele>
        <time>2025-04-25T07:11:29Z</time>
      </trkpt>
      <trkpt lat="45.14691699296236" lon="3.29295395873487">
        <ele>1052.3</ele>
        <time>2025-04-25T07:11:30Z</time>
      </trkpt>
      <trkpt lat="45.146847004070878" lon="3.292612982913852">
        <ele>1051.3399999999999</ele>
        <time>2025-04-25T07:11:32Z</time>
      </trkpt>
      <trkpt lat="45.146792018786073" lon="3.292459007352591">
        <ele>1050.8599999999999</ele>
        <time>2025-04-25T07:11:33Z</time>
      </trkpt>
      <trkpt lat="45.146707026287913" lon="3.292336966842413">
        <ele>1050.3800000000001</ele>
        <time>2025-04-25T07:11:34Z</time>
      </trkpt>
      <trkpt lat="45.146492030471563" lon="3.292121971026063">
        <ele>1048.9400000000001</ele>
        <time>2025-04-25T07:11:36Z</time>
      </trkpt>
      <trkpt lat="45.146366972476244" lon="3.29211400821805">
        <ele>1047.49</ele>
        <time>2025-04-25T07:11:37Z</time>
      </trkpt>
      <trkpt lat="45.146226994693279" lon="3.292105039581657">
        <ele>1046.53</ele>
        <time>2025-04-25T07:11:38Z</time>
      </trkpt>
      <trkpt lat="45.14607997611165" lon="3.292132029309869">
        <ele>1045.0899999999999</ele>
        <time>2025-04-25T07:11:39Z</time>
      </trkpt>
      <trkpt lat="45.145922983065248" lon="3.292206041514874">
        <ele>1044.1300000000001</ele>
        <time>2025-04-25T07:11:40Z</time>
      </trkpt>
      <trkpt lat="45.145757021382451" lon="3.292282987385988">
        <ele>1042.6900000000001</ele>
        <time>2025-04-25T07:11:41Z</time>
      </trkpt>
      <trkpt lat="45.145097030326724" lon="3.292614994570613">
        <ele>1036.9200000000001</ele>
        <time>2025-04-25T07:11:45Z</time>
      </trkpt>
      <trkpt lat="45.144972978159785" lon="3.292731000110507">
        <ele>1035.96</ele>
        <time>2025-04-25T07:11:46Z</time>
      </trkpt>
      <trkpt lat="45.144867030903697" lon="3.292871983721852">
        <ele>1034.52</ele>
        <time>2025-04-25T07:11:47Z</time>
      </trkpt>
      <trkpt lat="45.144768040627241" lon="3.293003998696804">
        <ele>1033.0699999999999</ele>
        <time>2025-04-25T07:11:48Z</time>
      </trkpt>
      <trkpt lat="45.144652035087347" lon="3.293101983144879">
        <ele>1031.1500000000001</ele>
        <time>2025-04-25T07:11:49Z</time>
      </trkpt>
      <trkpt lat="45.144561007618904" lon="3.293172977864742">
        <ele>1029.71</ele>
        <time>2025-04-25T07:11:50Z</time>
      </trkpt>
      <trkpt lat="45.144386999309063" lon="3.293212037533522">
        <ele>1028.27</ele>
        <time>2025-04-25T07:11:51Z</time>
      </trkpt>
      <trkpt lat="45.144232017919421" lon="3.293245984241366">
        <ele>1026.8299999999999</ele>
        <time>2025-04-25T07:11:52Z</time>
      </trkpt>
      <trkpt lat="45.144069995731115" lon="3.293282026425004">
        <ele>1024.9000000000001</ele>
        <time>2025-04-25T07:11:53Z</time>
      </trkpt>
      <trkpt lat="45.143297016620636" lon="3.293479001149535">
        <ele>1018.17</ele>
        <time>2025-04-25T07:11:58Z</time>
      </trkpt>
      <trkpt lat="45.143158966675401" lon="3.293543038889766">
        <ele>1016.73</ele>
        <time>2025-04-25T07:11:59Z</time>
      </trkpt>
      <trkpt lat="45.14302896335721" lon="3.29366197809577">
        <ele>1015.29</ele>
        <time>2025-04-25T07:12:00Z</time>
      </trkpt>
      <trkpt lat="45.142898038029671" lon="3.293804973363876">
        <ele>1013.85</ele>
        <time>2025-04-25T07:12:01Z</time>
      </trkpt>
      <trkpt lat="45.142759988084435" lon="3.293956015259028">
        <ele>1011.9299999999999</ele>
        <time>2025-04-25T07:12:02Z</time>
      </trkpt>
      <trkpt lat="45.142614981159568" lon="3.294115019962192">
        <ele>1010.48</ele>
        <time>2025-04-25T07:12:03Z</time>
      </trkpt>
      <trkpt lat="45.142190018668771" lon="3.2945859991014">
        <ele>1005.6799999999999</ele>
        <time>2025-04-25T07:12:06Z</time>
      </trkpt>
      <trkpt lat="45.142087005078793" lon="3.294760007411242">
        <ele>1004.23</ele>
        <time>2025-04-25T07:12:07Z</time>
      </trkpt>
      <trkpt lat="45.141993965953588" lon="3.294915994629264">
        <ele>1002.79</ele>
        <time>2025-04-25T07:12:08Z</time>
      </trkpt>
      <trkpt lat="45.141906961798668" lon="3.295063013210893">
        <ele>1001.35</ele>
        <time>2025-04-25T07:12:09Z</time>
      </trkpt>
      <trkpt lat="45.141807971522212" lon="3.295182958245277">
        <ele>999.90999999999997</ele>
        <time>2025-04-25T07:12:10Z</time>
      </trkpt>
      <trkpt lat="45.141666987910867" lon="3.295283038169146">
        <ele>998.47000000000003</ele>
        <time>2025-04-25T07:12:11Z</time>
      </trkpt>
      <trkpt lat="45.141515024006367" lon="3.295390997081995">
        <ele>997.01999999999998</ele>
        <time>2025-04-25T07:12:12Z</time>
      </trkpt>
      <trkpt lat="45.140548003837466" lon="3.295876979827881">
        <ele>987.88999999999999</ele>
        <time>2025-04-25T07:12:19Z</time>
      </trkpt>
      <trkpt lat="45.14044800773263" lon="3.295844038948417">
        <ele>986.45000000000005</ele>
        <time>2025-04-25T07:12:20Z</time>
      </trkpt>
      <trkpt lat="45.140356980264187" lon="3.295813025906682">
        <ele>985.49000000000001</ele>
        <time>2025-04-25T07:12:21Z</time>
      </trkpt>
      <trkpt lat="45.140283973887563" lon="3.295778995379806">
        <ele>985.00999999999999</ele>
        <time>2025-04-25T07:12:22Z</time>
      </trkpt>
      <trkpt lat="45.140231000259519" lon="3.295686962082982">
        <ele>984.04999999999995</ele>
        <time>2025-04-25T07:12:23Z</time>
      </trkpt>
      <trkpt lat="45.140205016359687" lon="3.29559501260519">
        <ele>984.04999999999995</ele>
        <time>2025-04-25T07:12:24Z</time>
      </trkpt>
      <trkpt lat="45.140208033844829" lon="3.295485964044929">
        <ele>984.04999999999995</ele>
        <time>2025-04-25T07:12:25Z</time>
      </trkpt>
      <trkpt lat="45.140262013301253" lon="3.295376999303699">
        <ele>984.52999999999997</ele>
        <time>2025-04-25T07:12:26Z</time>
      </trkpt>
      <trkpt lat="45.140354968607426" lon="3.295189999043942">
        <ele>984.52999999999997</ele>
        <time>2025-04-25T07:12:27Z</time>
      </trkpt>
      <trkpt lat="45.140419006347656" lon="3.295130990445614">
        <ele>985.00999999999999</ele>
        <time>2025-04-25T07:12:28Z</time>
      </trkpt>
      <trkpt lat="45.140526965260506" lon="3.295028982684016">
        <ele>985.49000000000001</ele>
        <time>2025-04-25T07:12:29Z</time>
      </trkpt>
      <trkpt lat="45.140639031305909" lon="3.294924041256309">
        <ele>985.49000000000001</ele>
        <time>2025-04-25T07:12:30Z</time>
      </trkpt>
      <trkpt lat="45.140980007126927" lon="3.294604020193219">
        <ele>985.97000000000003</ele>
        <time>2025-04-25T07:12:33Z</time>
      </trkpt>
      <trkpt lat="45.141076985746622" lon="3.294484997168183">
        <ele>986.45000000000005</ele>
        <time>2025-04-25T07:12:34Z</time>
      </trkpt>
      <trkpt lat="45.141131971031427" lon="3.29432800412178">
        <ele>986.92999999999995</ele>
        <time>2025-04-25T07:12:35Z</time>
      </trkpt>
      <trkpt lat="45.141192991286516" lon="3.294151984155178">
        <ele>986.92999999999995</ele>
        <time>2025-04-25T07:12:36Z</time>
      </trkpt>
      <trkpt lat="45.141249988228083" lon="3.293951991945505">
        <ele>986.92999999999995</ele>
        <time>2025-04-25T07:12:37Z</time>
      </trkpt>
      <trkpt lat="45.141290975734591" lon="3.293733978644013">
        <ele>986.45000000000005</ele>
        <time>2025-04-25T07:12:38Z</time>
      </trkpt>
      <trkpt lat="45.14147998765111" lon="3.292796965688467">
        <ele>985.00999999999999</ele>
        <time>2025-04-25T07:12:42Z</time>
      </trkpt>
      <trkpt lat="45.141748040914536" lon="3.291933964937925">
        <ele>987.40999999999997</ele>
        <time>2025-04-25T07:12:46Z</time>
      </trkpt>
      <trkpt lat="45.141777964308858" lon="3.291715029627085">
        <ele>988.37</ele>
        <time>2025-04-25T07:12:47Z</time>
      </trkpt>
      <trkpt lat="45.141984997317195" lon="3.290178962051868">
        <ele>995.10000000000002</ele>
        <time>2025-04-25T07:12:55Z</time>
      </trkpt>
      <trkpt lat="45.141989020630717" lon="3.289693985134363">
        <ele>996.05999999999995</ele>
        <time>2025-04-25T07:12:58Z</time>
      </trkpt>
      <trkpt lat="45.141949038952589" lon="3.289543027058244">
        <ele>996.53999999999996</ele>
        <time>2025-04-25T07:12:59Z</time>
      </trkpt>
      <trkpt lat="45.141814006492496" lon="3.289014967158437">
        <ele>997.50999999999999</ele>
        <time>2025-04-25T07:13:02Z</time>
      </trkpt>
      <trkpt lat="45.141555005684495" lon="3.287303969264031">
        <ele>993.17999999999995</ele>
        <time>2025-04-25T07:13:09Z</time>
      </trkpt>
      <trkpt lat="45.141535978764296" lon="3.287104982882738">
        <ele>992.22000000000003</ele>
        <time>2025-04-25T07:13:10Z</time>
      </trkpt>
      <trkpt lat="45.141563974320889" lon="3.286943966522813">
        <ele>991.74000000000001</ele>
        <time>2025-04-25T07:13:11Z</time>
      </trkpt>
      <trkpt lat="45.141610996797681" lon="3.286831984296441">
        <ele>990.77999999999997</ele>
        <time>2025-04-25T07:13:12Z</time>
      </trkpt>
      <trkpt lat="45.141688026487827" lon="3.286755038425326">
        <ele>990.77999999999997</ele>
        <time>2025-04-25T07:13:13Z</time>
      </trkpt>
      <trkpt lat="45.141762960702181" lon="3.286694018170238">
        <ele>990.29999999999995</ele>
        <time>2025-04-25T07:13:14Z</time>
      </trkpt>
      <trkpt lat="45.141863040626049" lon="3.28670097514987">
        <ele>990.29999999999995</ele>
        <time>2025-04-25T07:13:15Z</time>
      </trkpt>
      <trkpt lat="45.141966976225376" lon="3.286707010120153">
        <ele>990.77999999999997</ele>
        <time>2025-04-25T07:13:16Z</time>
      </trkpt>
      <trkpt lat="45.142072001472116" lon="3.286714972928166">
        <ele>990.77999999999997</ele>
        <time>2025-04-25T07:13:17Z</time>
      </trkpt>
      <trkpt lat="45.142178032547235" lon="3.286669040098786">
        <ele>991.74000000000001</ele>
        <time>2025-04-25T07:13:18Z</time>
      </trkpt>
      <trkpt lat="45.142271993681788" lon="3.286583963781595">
        <ele>992.22000000000003</ele>
        <time>2025-04-25T07:13:19Z</time>
      </trkpt>
      <trkpt lat="45.142353968694806" lon="3.286458989605308">
        <ele>992.70000000000005</ele>
        <time>2025-04-25T07:13:20Z</time>
      </trkpt>
      <trkpt lat="45.14238003641367" lon="3.286303002387285">
        <ele>993.17999999999995</ele>
        <time>2025-04-25T07:13:21Z</time>
      </trkpt>
      <trkpt lat="45.142409959807992" lon="3.286122959107161">
        <ele>994.13999999999999</ele>
        <time>2025-04-25T07:13:22Z</time>
      </trkpt>
      <trkpt lat="45.142394034191966" lon="3.285902012139559">
        <ele>995.10000000000002</ele>
        <time>2025-04-25T07:13:23Z</time>
      </trkpt>
      <trkpt lat="45.142371989786625" lon="3.285705959424377">
        <ele>996.05999999999995</ele>
        <time>2025-04-25T07:13:24Z</time>
      </trkpt>
      <trkpt lat="45.142326978966594" lon="3.285455005243421">
        <ele>996.53999999999996</ele>
        <time>2025-04-25T07:13:25Z</time>
      </trkpt>
      <trkpt lat="45.142284985631704" lon="3.285223999992013">
        <ele>997.99000000000001</ele>
        <time>2025-04-25T07:13:26Z</time>
      </trkpt>
      <trkpt lat="45.141986003145576" lon="3.283538985997438">
        <ele>1007.6</ele>
        <time>2025-04-25T07:13:33Z</time>
      </trkpt>
      <trkpt lat="45.141986003145576" lon="3.28334896825254">
        <ele>1008.5599999999999</ele>
        <time>2025-04-25T07:13:34Z</time>
      </trkpt>
      <trkpt lat="45.142023973166943" lon="3.283175965771079">
        <ele>1010</ele>
        <time>2025-04-25T07:13:35Z</time>
      </trkpt>
      <trkpt lat="45.142092034220695" lon="3.283020984381437">
        <ele>1011.4400000000001</ele>
        <time>2025-04-25T07:13:36Z</time>
      </trkpt>
      <trkpt lat="45.142196975648403" lon="3.282888969406486">
        <ele>1011.9299999999999</ele>
        <time>2025-04-25T07:13:37Z</time>
      </trkpt>
      <trkpt lat="45.142329996451735" lon="3.282760977745056">
        <ele>1013.37</ele>
        <time>2025-04-25T07:13:38Z</time>
      </trkpt>
      <trkpt lat="45.143345966935158" lon="3.282006019726396">
        <ele>1017.21</ele>
        <time>2025-04-25T07:13:44Z</time>
      </trkpt>
      <trkpt lat="45.143967987969518" lon="3.281535040587187">
        <ele>1017.6900000000001</ele>
        <time>2025-04-25T07:13:48Z</time>
      </trkpt>
      <trkpt lat="45.144065972417593" lon="3.28139497898519">
        <ele>1017.6900000000001</ele>
        <time>2025-04-25T07:13:49Z</time>
      </trkpt>
      <trkpt lat="45.144141996279359" lon="3.281209990382195">
        <ele>1017.21</ele>
        <time>2025-04-25T07:13:50Z</time>
      </trkpt>
      <trkpt lat="45.144203016534448" lon="3.280987031757832">
        <ele>1017.21</ele>
        <time>2025-04-25T07:13:51Z</time>
      </trkpt>
      <trkpt lat="45.144266970455647" lon="3.28074999153614">
        <ele>1017.21</ele>
        <time>2025-04-25T07:13:52Z</time>
      </trkpt>
      <trkpt lat="45.144481966271996" lon="3.28001799993217">
        <ele>1018.17</ele>
        <time>2025-04-25T07:13:55Z</time>
      </trkpt>
      <trkpt lat="45.144597971811891" lon="3.279834017157555">
        <ele>1018.17</ele>
        <time>2025-04-25T07:13:56Z</time>
      </trkpt>
      <trkpt lat="45.144708026200533" lon="3.279659003019333">
        <ele>1018.17</ele>
        <time>2025-04-25T07:13:57Z</time>
      </trkpt>
      <trkpt lat="45.144812967628241" lon="3.279492035508156">
        <ele>1018.17</ele>
        <time>2025-04-25T07:13:58Z</time>
      </trkpt>
      <trkpt lat="45.144885974004865" lon="3.279306963086128">
        <ele>1018.65</ele>
        <time>2025-04-25T07:13:59Z</time>
      </trkpt>
      <trkpt lat="45.144936013966799" lon="3.279103031381965">
        <ele>1018.65</ele>
        <time>2025-04-25T07:14:00Z</time>
      </trkpt>
      <trkpt lat="45.14496099203825" lon="3.278872026130557">
        <ele>1019.13</ele>
        <time>2025-04-25T07:14:01Z</time>
      </trkpt>
      <trkpt lat="45.144986975938082" lon="3.278627023100853">
        <ele>1020.1</ele>
        <time>2025-04-25T07:14:02Z</time>
      </trkpt>
      <trkpt lat="45.145236002281308" lon="3.276585023850203">
        <ele>1025.3800000000001</ele>
        <time>2025-04-25T07:14:10Z</time>
      </trkpt>
      <trkpt lat="45.145291993394494" lon="3.276368016377091">
        <ele>1025.8599999999999</ele>
        <time>2025-04-25T07:14:11Z</time>
      </trkpt>
      <trkpt lat="45.145386960357428" lon="3.276177998632193">
        <ele>1026.8299999999999</ele>
        <time>2025-04-25T07:14:12Z</time>
      </trkpt>
      <trkpt lat="45.145484022796154" lon="3.275984041392803">
        <ele>1026.8299999999999</ele>
        <time>2025-04-25T07:14:13Z</time>
      </trkpt>
      <trkpt lat="45.145610002800822" lon="3.275809027254582">
        <ele>1027.3099999999999</ele>
        <time>2025-04-25T07:14:14Z</time>
      </trkpt>
      <trkpt lat="45.145745035260916" lon="3.275636024773121">
        <ele>1027.3099999999999</ele>
        <time>2025-04-25T07:14:15Z</time>
      </trkpt>
      <trkpt lat="45.146281979978085" lon="3.274939991533756">
        <ele>1026.8299999999999</ele>
        <time>2025-04-25T07:14:19Z</time>
      </trkpt>
      <trkpt lat="45.146338976919651" lon="3.274719966575503">
        <ele>1026.3399999999999</ele>
        <time>2025-04-25T07:14:20Z</time>
      </trkpt>
      <trkpt lat="45.146393040195107" lon="3.274480998516083">
        <ele>1026.3399999999999</ele>
        <time>2025-04-25T07:14:21Z</time>
      </trkpt>
      <trkpt lat="45.14642296358943" lon="3.274226021021605">
        <ele>1026.3399999999999</ele>
        <time>2025-04-25T07:14:22Z</time>
      </trkpt>
      <trkpt lat="45.146451964974403" lon="3.273979006335139">
        <ele>1025.8599999999999</ele>
        <time>2025-04-25T07:14:23Z</time>
      </trkpt>
      <trkpt lat="45.14646403491497" lon="3.273749006912112">
        <ele>1025.8599999999999</ele>
        <time>2025-04-25T07:14:24Z</time>
      </trkpt>
      <trkpt lat="45.14644299633801" lon="3.273543985560536">
        <ele>1025.8599999999999</ele>
        <time>2025-04-25T07:14:25Z</time>
      </trkpt>
      <trkpt lat="45.146407959982753" lon="3.273355979472399">
        <ele>1025.8599999999999</ele>
        <time>2025-04-25T07:14:26Z</time>
      </trkpt>
      <trkpt lat="45.146322967484593" lon="3.273214995861054">
        <ele>1025.8599999999999</ele>
        <time>2025-04-25T07:14:27Z</time>
      </trkpt>
      <trkpt lat="45.146235963329673" lon="3.273069988936186">
        <ele>1025.3800000000001</ele>
        <time>2025-04-25T07:14:28Z</time>
      </trkpt>
      <trkpt lat="45.146123981103301" lon="3.272987008094788">
        <ele>1025.8599999999999</ele>
        <time>2025-04-25T07:14:29Z</time>
      </trkpt>
      <trkpt lat="45.146002024412155" lon="3.272897992283106">
        <ele>1025.8599999999999</ele>
        <time>2025-04-25T07:14:30Z</time>
      </trkpt>
      <trkpt lat="45.145869003608823" lon="3.272800007835031">
        <ele>1025.8599999999999</ele>
        <time>2025-04-25T07:14:31Z</time>
      </trkpt>
      <trkpt lat="45.145139023661613" lon="3.272267002612352">
        <ele>1024.4200000000001</ele>
        <time>2025-04-25T07:14:36Z</time>
      </trkpt>
      <trkpt lat="45.145015977323055" lon="3.272244036197662">
        <ele>1023.46</ele>
        <time>2025-04-25T07:14:37Z</time>
      </trkpt>
      <trkpt lat="45.1448979601264" lon="3.272234983742237">
        <ele>1022.98</ele>
        <time>2025-04-25T07:14:38Z</time>
      </trkpt>
      <trkpt lat="45.144784972071648" lon="3.272254010662437">
        <ele>1022.5</ele>
        <time>2025-04-25T07:14:39Z</time>
      </trkpt>
      <trkpt lat="45.144663015380502" lon="3.272307990118861">
        <ele>1022.02</ele>
        <time>2025-04-25T07:14:40Z</time>
      </trkpt>
      <trkpt lat="45.143525004386902" lon="3.272809982299805">
        <ele>1014.8099999999999</ele>
        <time>2025-04-25T07:14:47Z</time>
      </trkpt>
      <trkpt lat="45.143218981102109" lon="3.272978039458394">
        <ele>1012.41</ele>
        <time>2025-04-25T07:14:49Z</time>
      </trkpt>
      <trkpt lat="45.142884040251374" lon="3.273246008902788">
        <ele>1009.52</ele>
        <time>2025-04-25T07:14:52Z</time>
      </trkpt>
      <trkpt lat="45.142788989469409" lon="3.273272998631001">
        <ele>1008.5599999999999</ele>
        <time>2025-04-25T07:14:53Z</time>
      </trkpt>
      <trkpt lat="45.142697962000966" lon="3.273255983367562">
        <ele>1008.08</ele>
        <time>2025-04-25T07:14:54Z</time>
      </trkpt>
      <trkpt lat="45.142608024179935" lon="3.273195968940854">
        <ele>1008.08</ele>
        <time>2025-04-25T07:14:55Z</time>
      </trkpt>
      <trkpt lat="45.142582040280104" lon="3.273090021684766">
        <ele>1007.6</ele>
        <time>2025-04-25T07:14:56Z</time>
      </trkpt>
      <trkpt lat="45.142586985602975" lon="3.272954989224672">
        <ele>1007.12</ele>
        <time>2025-04-25T07:14:57Z</time>
      </trkpt>
      <trkpt lat="45.142629984766245" lon="3.272822974249721">
        <ele>1007.12</ele>
        <time>2025-04-25T07:14:58Z</time>
      </trkpt>
      <trkpt lat="45.142678013071418" lon="3.272671010345221">
        <ele>1007.12</ele>
        <time>2025-04-25T07:14:59Z</time>
      </trkpt>
      <trkpt lat="45.143044972792268" lon="3.271524030715227">
        <ele>1006.64</ele>
        <time>2025-04-25T07:15:05Z</time>
      </trkpt>
      <trkpt lat="45.143138011917472" lon="3.271369971334934">
        <ele>1006.16</ele>
        <time>2025-04-25T07:15:06Z</time>
      </trkpt>
      <trkpt lat="45.143223004415631" lon="3.271226976066828">
        <ele>1006.16</ele>
        <time>2025-04-25T07:15:07Z</time>
      </trkpt>
      <trkpt lat="45.143299028277397" lon="3.271099990233779">
        <ele>1005.6799999999999</ele>
        <time>2025-04-25T07:15:08Z</time>
      </trkpt>
      <trkpt lat="45.143360970541835" lon="3.270996976643801">
        <ele>1005.6799999999999</ele>
        <time>2025-04-25T07:15:09Z</time>
      </trkpt>
      <trkpt lat="45.143381003290415" lon="3.270888011902571">
        <ele>1005.2</ele>
        <time>2025-04-25T07:15:10Z</time>
      </trkpt>
      <trkpt lat="45.143376979976892" lon="3.270781980827451">
        <ele>1004.72</ele>
        <time>2025-04-25T07:15:11Z</time>
      </trkpt>
      <trkpt lat="45.143340015783906" lon="3.270663963630796">
        <ele>1004.23</ele>
        <time>2025-04-25T07:15:12Z</time>
      </trkpt>
      <trkpt lat="45.143303973600268" lon="3.270547958090901">
        <ele>1004.23</ele>
        <time>2025-04-25T07:15:13Z</time>
      </trkpt>
      <trkpt lat="45.143272960558534" lon="3.270429018884897">
        <ele>1003.75</ele>
        <time>2025-04-25T07:15:14Z</time>
      </trkpt>
      <trkpt lat="45.143272960558534" lon="3.270308990031481">
        <ele>1003.75</ele>
        <time>2025-04-25T07:15:15Z</time>
      </trkpt>
      <trkpt lat="45.143343033269048" lon="3.270208993926644">
        <ele>1003.75</ele>
        <time>2025-04-25T07:15:16Z</time>
      </trkpt>
      <trkpt lat="45.143428025767207" lon="3.270163983106613">
        <ele>1003.75</ele>
        <time>2025-04-25T07:15:17Z</time>
      </trkpt>
      <trkpt lat="45.143527016043663" lon="3.270150991156697">
        <ele>1003.75</ele>
        <time>2025-04-25T07:15:18Z</time>
      </trkpt>
      <trkpt lat="45.143627012148499" lon="3.270137999206781">
        <ele>1004.23</ele>
        <time>2025-04-25T07:15:19Z</time>
      </trkpt>
      <trkpt lat="45.143713010475039" lon="3.270117966458201">
        <ele>1004.72</ele>
        <time>2025-04-25T07:15:20Z</time>
      </trkpt>
      <trkpt lat="45.143776964396238" lon="3.270053006708622">
        <ele>1005.2</ele>
        <time>2025-04-25T07:15:21Z</time>
      </trkpt>
      <trkpt lat="45.143813006579876" lon="3.269942030310631">
        <ele>1005.6799999999999</ele>
        <time>2025-04-25T07:15:22Z</time>
      </trkpt>
      <trkpt lat="45.143847959116101" lon="3.269798029214144">
        <ele>1006.16</ele>
        <time>2025-04-25T07:15:23Z</time>
      </trkpt>
      <trkpt lat="45.143888024613261" lon="3.269632989540696">
        <ele>1006.64</ele>
        <time>2025-04-25T07:15:24Z</time>
      </trkpt>
      <trkpt lat="45.143932029604912" lon="3.269453030079603">
        <ele>1007.12</ele>
        <time>2025-04-25T07:15:25Z</time>
      </trkpt>
      <trkpt lat="45.143977040424943" lon="3.269269969314337">
        <ele>1007.6</ele>
        <time>2025-04-25T07:15:26Z</time>
      </trkpt>
      <trkpt lat="45.144042000174522" lon="3.269110964611173">
        <ele>1007.6</ele>
        <time>2025-04-25T07:15:27Z</time>
      </trkpt>
      <trkpt lat="45.144139984622598" lon="3.268984984606504">
        <ele>1007.6</ele>
        <time>2025-04-25T07:15:28Z</time>
      </trkpt>
      <trkpt lat="45.144262025132775" lon="3.268900997936726">
        <ele>1008.5599999999999</ele>
        <time>2025-04-25T07:15:29Z</time>
      </trkpt>
      <trkpt lat="45.14438197016716" lon="3.268818017095327">
        <ele>1009.04</ele>
        <time>2025-04-25T07:15:30Z</time>
      </trkpt>
      <trkpt lat="45.144485989585519" lon="3.268737969920039">
        <ele>1010</ele>
        <time>2025-04-25T07:15:31Z</time>
      </trkpt>
      <trkpt lat="45.144556984305382" lon="3.268622970208526">
        <ele>1010.96</ele>
        <time>2025-04-25T07:15:32Z</time>
      </trkpt>
      <trkpt lat="45.144603000953794" lon="3.268472012132406">
        <ele>1011.4400000000001</ele>
        <time>2025-04-25T07:15:33Z</time>
      </trkpt>
      <trkpt lat="45.144630996510386" lon="3.268317030742765">
        <ele>1011.9299999999999</ele>
        <time>2025-04-25T07:15:34Z</time>
      </trkpt>
      <trkpt lat="45.144658992066979" lon="3.26816095970571">
        <ele>1012.41</ele>
        <time>2025-04-25T07:15:35Z</time>
      </trkpt>
      <trkpt lat="45.144685981795192" lon="3.268013019114733">
        <ele>1012.89</ele>
        <time>2025-04-25T07:15:36Z</time>
      </trkpt>
      <trkpt lat="45.144805004820228" lon="3.266778029501438">
        <ele>1019.13</ele>
        <time>2025-04-25T07:15:46Z</time>
      </trkpt>
      <trkpt lat="45.144807016476989" lon="3.266668980941176">
        <ele>1019.62</ele>
        <time>2025-04-25T07:15:47Z</time>
      </trkpt>
      <trkpt lat="45.144810033962131" lon="3.266559010371566">
        <ele>1020.1</ele>
        <time>2025-04-25T07:15:48Z</time>
      </trkpt>
      <trkpt lat="45.144812967628241" lon="3.266448033973575">
        <ele>1020.58</ele>
        <time>2025-04-25T07:15:49Z</time>
      </trkpt>
      <trkpt lat="45.144814979285002" lon="3.266336973756552">
        <ele>1020.58</ele>
        <time>2025-04-25T07:15:50Z</time>
      </trkpt>
      <trkpt lat="45.144840041175485" lon="3.264798978343606">
        <ele>1025.3800000000001</ele>
        <time>2025-04-25T07:16:04Z</time>
      </trkpt>
      <trkpt lat="45.144819002598524" lon="3.264107974246144">
        <ele>1024.9000000000001</ele>
        <time>2025-04-25T07:16:10Z</time>
      </trkpt>
      <trkpt lat="45.144797964021564" lon="3.263314040377736">
        <ele>1023.9400000000001</ele>
        <time>2025-04-25T07:16:17Z</time>
      </trkpt>
      <trkpt lat="45.144836017861962" lon="3.262865021824837">
        <ele>1024.4200000000001</ele>
        <time>2025-04-25T07:16:21Z</time>
      </trkpt>
      <trkpt lat="45.144840041175485" lon="3.262761002406478">
        <ele>1023.9400000000001</ele>
        <time>2025-04-25T07:16:22Z</time>
      </trkpt>
      <trkpt lat="45.144827971234918" lon="3.26242002658546">
        <ele>1023.46</ele>
        <time>2025-04-25T07:16:25Z</time>
      </trkpt>
      <trkpt lat="45.144822020083666" lon="3.262289017438889">
        <ele>1023.46</ele>
        <time>2025-04-25T07:16:26Z</time>
      </trkpt>
      <trkpt lat="45.144817996770144" lon="3.262153984978795">
        <ele>1023.46</ele>
        <time>2025-04-25T07:16:27Z</time>
      </trkpt>
      <trkpt lat="45.144817996770144" lon="3.261865982785821">
        <ele>1022.5</ele>
        <time>2025-04-25T07:16:29Z</time>
      </trkpt>
      <trkpt lat="45.144817996770144" lon="3.261436996981502">
        <ele>1022.5</ele>
        <time>2025-04-25T07:16:32Z</time>
      </trkpt>
      <trkpt lat="45.14485202729702" lon="3.261291990056634">
        <ele>1022.5</ele>
        <time>2025-04-25T07:16:33Z</time>
      </trkpt>
      <trkpt lat="45.144885974004865" lon="3.261143965646625">
        <ele>1022.5</ele>
        <time>2025-04-25T07:16:34Z</time>
      </trkpt>
      <trkpt lat="45.144946994259953" lon="3.260880019515753">
        <ele>1022.98</ele>
        <time>2025-04-25T07:16:36Z</time>
      </trkpt>
      <trkpt lat="45.144972978159785" lon="3.260703999549151">
        <ele>1023.46</ele>
        <time>2025-04-25T07:16:37Z</time>
      </trkpt>
      <trkpt lat="45.144996028393507" lon="3.260554969310761">
        <ele>1023.46</ele>
        <time>2025-04-25T07:16:38Z</time>
      </trkpt>
      <trkpt lat="45.145011032000184" lon="3.260408034548163">
        <ele>1023.9400000000001</ele>
        <time>2025-04-25T07:16:39Z</time>
      </trkpt>
      <trkpt lat="45.145011032000184" lon="3.260262021794915">
        <ele>1024.4200000000001</ele>
        <time>2025-04-25T07:16:40Z</time>
      </trkpt>
      <trkpt lat="45.144997034221888" lon="3.260126989334822">
        <ele>1024.4200000000001</ele>
        <time>2025-04-25T07:16:41Z</time>
      </trkpt>
      <trkpt lat="45.144966021180153" lon="3.259989023208618">
        <ele>1024.9000000000001</ele>
        <time>2025-04-25T07:16:42Z</time>
      </trkpt>
      <trkpt lat="45.144774997606874" lon="3.259188970550895">
        <ele>1026.8299999999999</ele>
        <time>2025-04-25T07:16:48Z</time>
      </trkpt>
      <trkpt lat="45.144715989008546" lon="3.259089980274439">
        <ele>1027.3099999999999</ele>
        <time>2025-04-25T07:16:49Z</time>
      </trkpt>
      <trkpt lat="45.144658992066979" lon="3.258991995826364">
        <ele>1027.79</ele>
        <time>2025-04-25T07:16:50Z</time>
      </trkpt>
      <trkpt lat="45.144603000953794" lon="3.258898034691811">
        <ele>1028.27</ele>
        <time>2025-04-25T07:16:51Z</time>
      </trkpt>
      <trkpt lat="45.144523959606886" lon="3.2588329911232">
        <ele>1028.75</ele>
        <time>2025-04-25T07:16:52Z</time>
      </trkpt>
      <trkpt lat="45.14444500207901" lon="3.258794015273452">
        <ele>1029.71</ele>
        <time>2025-04-25T07:16:53Z</time>
      </trkpt>
      <trkpt lat="45.144364032894373" lon="3.258753027766943">
        <ele>1029.71</ele>
        <time>2025-04-25T07:16:54Z</time>
      </trkpt>
      <trkpt lat="45.144275017082691" lon="3.258714973926544">
        <ele>1030.1900000000001</ele>
        <time>2025-04-25T07:16:55Z</time>
      </trkpt>
      <trkpt lat="45.144174015149474" lon="3.258744981139898">
        <ele>1030.1900000000001</ele>
        <time>2025-04-25T07:16:56Z</time>
      </trkpt>
      <trkpt lat="45.14405800960958" lon="3.258781023323536">
        <ele>1029.71</ele>
        <time>2025-04-25T07:16:57Z</time>
      </trkpt>
      <trkpt lat="45.143013959750533" lon="3.259146977216005">
        <ele>1025.8599999999999</ele>
        <time>2025-04-25T07:17:04Z</time>
      </trkpt>
      <trkpt lat="45.142887979745865" lon="3.259175978600979">
        <ele>1025.3800000000001</ele>
        <time>2025-04-25T07:17:05Z</time>
      </trkpt>
      <trkpt lat="45.1427670288831" lon="3.259128034114838">
        <ele>1024.9000000000001</ele>
        <time>2025-04-25T07:17:06Z</time>
      </trkpt>
      <trkpt lat="45.142663009464741" lon="3.259036000818014">
        <ele>1023.9400000000001</ele>
        <time>2025-04-25T07:17:07Z</time>
      </trkpt>
      <trkpt lat="45.142587991431355" lon="3.258886970579624">
        <ele>1023.46</ele>
        <time>2025-04-25T07:17:08Z</time>
      </trkpt>
      <trkpt lat="45.14251196756959" lon="3.258735006675124">
        <ele>1022.98</ele>
        <time>2025-04-25T07:17:09Z</time>
      </trkpt>
      <trkpt lat="45.142500987276435" lon="3.258582036942244">
        <ele>1022.5</ele>
        <time>2025-04-25T07:17:10Z</time>
      </trkpt>
      <trkpt lat="45.142500987276435" lon="3.2584029994905">
        <ele>1022.5</ele>
        <time>2025-04-25T07:17:11Z</time>
      </trkpt>
      <trkpt lat="45.142515990883112" lon="3.258239971473813">
        <ele>1022.02</ele>
        <time>2025-04-25T07:17:12Z</time>
      </trkpt>
      <trkpt lat="45.142577011138201" lon="3.258062023669481">
        <ele>1022.02</ele>
        <time>2025-04-25T07:17:13Z</time>
      </trkpt>
      <trkpt lat="45.1426409650594" lon="3.257875023409724">
        <ele>1021.54</ele>
        <time>2025-04-25T07:17:14Z</time>
      </trkpt>
      <trkpt lat="45.142783038318157" lon="3.257309999316931">
        <ele>1020.1</ele>
        <time>2025-04-25T07:17:17Z</time>
      </trkpt>
      <trkpt lat="45.142800975590944" lon="3.257100032642484">
        <ele>1019.13</ele>
        <time>2025-04-25T07:17:18Z</time>
      </trkpt>
      <trkpt lat="45.142800975590944" lon="3.256872966885567">
        <ele>1018.17</ele>
        <time>2025-04-25T07:17:19Z</time>
      </trkpt>
      <trkpt lat="45.142800975590944" lon="3.256636010482907">
        <ele>1017.21</ele>
        <time>2025-04-25T07:17:20Z</time>
      </trkpt>
      <trkpt lat="45.142783960327506" lon="3.256387989968061">
        <ele>1016.25</ele>
        <time>2025-04-25T07:17:21Z</time>
      </trkpt>
      <trkpt lat="45.142739033326507" lon="3.256139969453216">
        <ele>1015.29</ele>
        <time>2025-04-25T07:17:22Z</time>
      </trkpt>
      <trkpt lat="45.142693016678095" lon="3.255887003615499">
        <ele>1014.33</ele>
        <time>2025-04-25T07:17:23Z</time>
      </trkpt>
      <trkpt lat="45.142602995038033" lon="3.255390040576458">
        <ele>1011.9299999999999</ele>
        <time>2025-04-25T07:17:25Z</time>
      </trkpt>
      <trkpt lat="45.142600983381271" lon="3.255132967606187">
        <ele>1010.48</ele>
        <time>2025-04-25T07:17:26Z</time>
      </trkpt>
      <trkpt lat="45.142636019736528" lon="3.254882013425231">
        <ele>1009.52</ele>
        <time>2025-04-25T07:17:27Z</time>
      </trkpt>
      <trkpt lat="45.142752025276423" lon="3.254197966307402">
        <ele>1006.16</ele>
        <time>2025-04-25T07:17:30Z</time>
      </trkpt>
      <trkpt lat="45.14277096837759" lon="3.253995962440968">
        <ele>1005.2</ele>
        <time>2025-04-25T07:17:31Z</time>
      </trkpt>
      <trkpt lat="45.142732998356223" lon="3.253831006586552">
        <ele>1004.23</ele>
        <time>2025-04-25T07:17:32Z</time>
      </trkpt>
      <trkpt lat="45.142670972272754" lon="3.25367895886302">
        <ele>1003.27</ele>
        <time>2025-04-25T07:17:33Z</time>
      </trkpt>
      <trkpt lat="45.142585979774594" lon="3.253534035757184">
        <ele>1002.3099999999999</ele>
        <time>2025-04-25T07:17:34Z</time>
      </trkpt>
      <trkpt lat="45.142477015033364" lon="3.253417024388909">
        <ele>1000.87</ele>
        <time>2025-04-25T07:17:35Z</time>
      </trkpt>
      <trkpt lat="45.142352040857077" lon="3.253303030505776">
        <ele>1000.39</ele>
        <time>2025-04-25T07:17:36Z</time>
      </trkpt>
      <trkpt lat="45.142213990911841" lon="3.253207979723811">
        <ele>999.90999999999997</ele>
        <time>2025-04-25T07:17:37Z</time>
      </trkpt>
      <trkpt lat="45.142066972330213" lon="3.253123993054032">
        <ele>998.95000000000005</ele>
        <time>2025-04-25T07:17:38Z</time>
      </trkpt>
      <trkpt lat="45.141911990940571" lon="3.253063978627324">
        <ele>997.99000000000001</ele>
        <time>2025-04-25T07:17:39Z</time>
      </trkpt>
      <trkpt lat="45.141744017601013" lon="3.253016034141183">
        <ele>997.01999999999998</ele>
        <time>2025-04-25T07:17:40Z</time>
      </trkpt>
      <trkpt lat="45.14025698415935" lon="3.252354031428695">
        <ele>987.88999999999999</ele>
        <time>2025-04-25T07:17:48Z</time>
      </trkpt>
      <trkpt lat="45.138477003201842" lon="3.251391034573317">
        <ele>973.47000000000003</ele>
        <time>2025-04-25T07:17:58Z</time>
      </trkpt>
      <trkpt lat="45.137752974405885" lon="3.251116024330258">
        <ele>968.66999999999996</ele>
        <time>2025-04-25T07:18:02Z</time>
      </trkpt>
      <trkpt lat="45.137616014108062" lon="3.250988032668829">
        <ele>967.22000000000003</ele>
        <time>2025-04-25T07:18:03Z</time>
      </trkpt>
      <trkpt lat="45.137508977204561" lon="3.250827016308904">
        <ele>965.77999999999997</ele>
        <time>2025-04-25T07:18:04Z</time>
      </trkpt>
      <trkpt lat="45.137423984706402" lon="3.250643033534288">
        <ele>964.82000000000005</ele>
        <time>2025-04-25T07:18:05Z</time>
      </trkpt>
      <trkpt lat="45.137336980551481" lon="3.250449998304248">
        <ele>963.38</ele>
        <time>2025-04-25T07:18:06Z</time>
      </trkpt>
      <trkpt lat="45.137249976396561" lon="3.250257968902588">
        <ele>962.41999999999996</ele>
        <time>2025-04-25T07:18:07Z</time>
      </trkpt>
      <trkpt lat="45.137170013040304" lon="3.250079015269876">
        <ele>961.46000000000004</ele>
        <time>2025-04-25T07:18:08Z</time>
      </trkpt>
      <trkpt lat="45.137078985571861" lon="3.249920010566711">
        <ele>960.49000000000001</ele>
        <time>2025-04-25T07:18:09Z</time>
      </trkpt>
      <trkpt lat="45.136969015002251" lon="3.249804005026817">
        <ele>959.52999999999997</ele>
        <time>2025-04-25T07:18:10Z</time>
      </trkpt>
      <trkpt lat="45.136758964508772" lon="3.249583980068564">
        <ele>957.61000000000001</ele>
        <time>2025-04-25T07:18:12Z</time>
      </trkpt>
      <trkpt lat="45.136661985889077" lon="3.249477026984096">
        <ele>957.13</ele>
        <time>2025-04-25T07:18:13Z</time>
      </trkpt>
      <trkpt lat="45.136622004210949" lon="3.249310981482267">
        <ele>956.64999999999998</ele>
        <time>2025-04-25T07:18:14Z</time>
      </trkpt>
      <trkpt lat="45.136577999219298" lon="3.249129010364413">
        <ele>956.64999999999998</ele>
        <time>2025-04-25T07:18:15Z</time>
      </trkpt>
      <trkpt lat="45.136530976742506" lon="3.248935975134373">
        <ele>956.16999999999996</ele>
        <time>2025-04-25T07:18:16Z</time>
      </trkpt>
      <trkpt lat="45.136195030063391" lon="3.247910030186176">
        <ele>956.64999999999998</ele>
        <time>2025-04-25T07:18:21Z</time>
      </trkpt>
      <trkpt lat="45.136082964017987" lon="3.247735016047955">
        <ele>957.13</ele>
        <time>2025-04-25T07:18:22Z</time>
      </trkpt>
      <trkpt lat="45.135966958478093" lon="3.247553966939449">
        <ele>957.61000000000001</ele>
        <time>2025-04-25T07:18:23Z</time>
      </trkpt>
      <trkpt lat="45.135833015665412" lon="3.247373001649976">
        <ele>958.09000000000003</ele>
        <time>2025-04-25T07:18:24Z</time>
      </trkpt>
      <trkpt lat="45.135674010962248" lon="3.247237969189882">
        <ele>958.57000000000005</ele>
        <time>2025-04-25T07:18:25Z</time>
      </trkpt>
      <trkpt lat="45.135512994602323" lon="3.24710201472044">
        <ele>959.04999999999995</ele>
        <time>2025-04-25T07:18:26Z</time>
      </trkpt>
      <trkpt lat="45.134894996881485" lon="3.246577978134155">
        <ele>963.38</ele>
        <time>2025-04-25T07:18:30Z</time>
      </trkpt>
      <trkpt lat="45.134773962199688" lon="3.246475970372558">
        <ele>963.86000000000001</ele>
        <time>2025-04-25T07:18:31Z</time>
      </trkpt>
      <trkpt lat="45.134707996621728" lon="3.246333980932832">
        <ele>964.82000000000005</ele>
        <time>2025-04-25T07:18:32Z</time>
      </trkpt>
      <trkpt lat="45.134666003286839" lon="3.246173970401287">
        <ele>965.77999999999997</ele>
        <time>2025-04-25T07:18:33Z</time>
      </trkpt>
      <trkpt lat="45.134630966931581" lon="3.24600700289011">
        <ele>966.74000000000001</ele>
        <time>2025-04-25T07:18:34Z</time>
      </trkpt>
      <trkpt lat="45.134595008566976" lon="3.245864007622004">
        <ele>967.22000000000003</ele>
        <time>2025-04-25T07:18:35Z</time>
      </trkpt>
      <trkpt lat="45.134529964998364" lon="3.245746996253729">
        <ele>967.70000000000005</ele>
        <time>2025-04-25T07:18:36Z</time>
      </trkpt>
      <trkpt lat="45.134422006085515" lon="3.245673989877105">
        <ele>968.66999999999996</ele>
        <time>2025-04-25T07:18:37Z</time>
      </trkpt>
      <trkpt lat="45.134296026080847" lon="3.245651023462415">
        <ele>969.63</ele>
        <time>2025-04-25T07:18:38Z</time>
      </trkpt>
      <trkpt lat="45.134145990014076" lon="3.245624033734202">
        <ele>970.59000000000003</ele>
        <time>2025-04-25T07:18:39Z</time>
      </trkpt>
      <trkpt lat="45.133988996967673" lon="3.245584974065423">
        <ele>971.54999999999995</ele>
        <time>2025-04-25T07:18:40Z</time>
      </trkpt>
      <trkpt lat="45.133821023628116" lon="3.24551003985107">
        <ele>972.99000000000001</ele>
        <time>2025-04-25T07:18:41Z</time>
      </trkpt>
      <trkpt lat="45.132228964939713" lon="3.244796991348267">
        <ele>984.04999999999995</ele>
        <time>2025-04-25T07:18:49Z</time>
      </trkpt>
      <trkpt lat="45.132023021578789" lon="3.244730019941926">
        <ele>985.49000000000001</ele>
        <time>2025-04-25T07:18:50Z</time>
      </trkpt>
      <trkpt lat="45.131611973047256" lon="3.244624994695187">
        <ele>988.85000000000002</ele>
        <time>2025-04-25T07:18:52Z</time>
      </trkpt>
      <trkpt lat="45.131035968661308" lon="3.244534973055124">
        <ele>993.65999999999997</ele>
        <time>2025-04-25T07:18:55Z</time>
      </trkpt>
      <trkpt lat="45.130867995321751" lon="3.244506977498531">
        <ele>995.10000000000002</ele>
        <time>2025-04-25T07:18:56Z</time>
      </trkpt>
      <trkpt lat="45.130721982568502" lon="3.24443900026381">
        <ele>996.53999999999996</ele>
        <time>2025-04-25T07:18:57Z</time>
      </trkpt>
      <trkpt lat="45.130582004785538" lon="3.244366999715567">
        <ele>997.50999999999999</ele>
        <time>2025-04-25T07:18:58Z</time>
      </trkpt>
      <trkpt lat="45.130467005074024" lon="3.244233978912234">
        <ele>998.95000000000005</ele>
        <time>2025-04-25T07:18:59Z</time>
      </trkpt>
      <trkpt lat="45.130353011190891" lon="3.244101963937283">
        <ele>999.90999999999997</ele>
        <time>2025-04-25T07:19:00Z</time>
      </trkpt>
      <trkpt lat="45.130252009257674" lon="3.24398503638804">
        <ele>1000.87</ele>
        <time>2025-04-25T07:19:01Z</time>
      </trkpt>
      <trkpt lat="45.130168022587895" lon="3.243896020576358">
        <ele>1002.3099999999999</ele>
        <time>2025-04-25T07:19:02Z</time>
      </trkpt>
      <trkpt lat="45.130085041746497" lon="3.243841035291553">
        <ele>1003.27</ele>
        <time>2025-04-25T07:19:03Z</time>
      </trkpt>
      <trkpt lat="45.129989990964532" lon="3.243857966735959">
        <ele>1004.23</ele>
        <time>2025-04-25T07:19:04Z</time>
      </trkpt>
      <trkpt lat="45.129893012344837" lon="3.243933990597725">
        <ele>1005.2</ele>
        <time>2025-04-25T07:19:05Z</time>
      </trkpt>
      <trkpt lat="45.129837021231651" lon="3.244064999744296">
        <ele>1005.6799999999999</ele>
        <time>2025-04-25T07:19:06Z</time>
      </trkpt>
      <trkpt lat="45.129772983491421" lon="3.244213024154306">
        <ele>1006.16</ele>
        <time>2025-04-25T07:19:07Z</time>
      </trkpt>
      <trkpt lat="45.129647003486753" lon="3.24450396001339">
        <ele>1007.12</ele>
        <time>2025-04-25T07:19:09Z</time>
      </trkpt>
      <trkpt lat="45.129567962139845" lon="3.244602028280497">
        <ele>1007.6</ele>
        <time>2025-04-25T07:19:10Z</time>
      </trkpt>
      <trkpt lat="45.129433013498783" lon="3.244721973314881">
        <ele>1008.5599999999999</ele>
        <time>2025-04-25T07:19:11Z</time>
      </trkpt>
      <trkpt lat="45.129326982423663" lon="3.244742006063461">
        <ele>1009.52</ele>
        <time>2025-04-25T07:19:12Z</time>
      </trkpt>
      <trkpt lat="45.129172001034021" lon="3.244772013276815">
        <ele>1010.48</ele>
        <time>2025-04-25T07:19:13Z</time>
      </trkpt>
      <trkpt lat="45.128274969756603" lon="3.244945015758276">
        <ele>1016.25</ele>
        <time>2025-04-25T07:19:18Z</time>
      </trkpt>
      <trkpt lat="45.128139015287161" lon="3.244929006323218">
        <ele>1017.21</ele>
        <time>2025-04-25T07:19:19Z</time>
      </trkpt>
      <trkpt lat="45.128037007525563" lon="3.24488902464509">
        <ele>1017.6900000000001</ele>
        <time>2025-04-25T07:19:20Z</time>
      </trkpt>
      <trkpt lat="45.127957966178656" lon="3.244821969419718">
        <ele>1018.65</ele>
        <time>2025-04-25T07:19:21Z</time>
      </trkpt>
      <trkpt lat="45.127892000600696" lon="3.244733959436417">
        <ele>1019.13</ele>
        <time>2025-04-25T07:19:22Z</time>
      </trkpt>
      <trkpt lat="45.127854030579329" lon="3.244603034108877">
        <ele>1019.62</ele>
        <time>2025-04-25T07:19:23Z</time>
      </trkpt>
      <trkpt lat="45.12783600948751" lon="3.24446096085012">
        <ele>1020.1</ele>
        <time>2025-04-25T07:19:24Z</time>
      </trkpt>
      <trkpt lat="45.12781597673893" lon="3.244306985288858">
        <ele>1020.1</ele>
        <time>2025-04-25T07:19:25Z</time>
      </trkpt>
      <trkpt lat="45.12779401615262" lon="3.244140017777681">
        <ele>1020.58</ele>
        <time>2025-04-25T07:19:26Z</time>
      </trkpt>
      <trkpt lat="45.127697959542274" lon="3.243390005081892">
        <ele>1023.46</ele>
        <time>2025-04-25T07:19:30Z</time>
      </trkpt>
      <trkpt lat="45.127709023654461" lon="3.243197975680232">
        <ele>1023.9400000000001</ele>
        <time>2025-04-25T07:19:31Z</time>
      </trkpt>
      <trkpt lat="45.127741964533925" lon="3.243008963763714">
        <ele>1024.9000000000001</ele>
        <time>2025-04-25T07:19:32Z</time>
      </trkpt>
      <trkpt lat="45.12779401615262" lon="3.24280503205955">
        <ele>1025.8599999999999</ele>
        <time>2025-04-25T07:19:33Z</time>
      </trkpt>
      <trkpt lat="45.127869034186006" lon="3.242610991001129">
        <ele>1026.3399999999999</ele>
        <time>2025-04-25T07:19:34Z</time>
      </trkpt>
      <trkpt lat="45.127958972007036" lon="3.242400018498302">
        <ele>1026.8299999999999</ele>
        <time>2025-04-25T07:19:35Z</time>
      </trkpt>
      <trkpt lat="45.128164999186993" lon="3.241992993280292">
        <ele>1027.79</ele>
        <time>2025-04-25T07:19:37Z</time>
      </trkpt>
      <trkpt lat="45.128281004726887" lon="3.241797024384141">
        <ele>1027.79</ele>
        <time>2025-04-25T07:19:38Z</time>
      </trkpt>
      <trkpt lat="45.128429029136896" lon="3.241630978882313">
        <ele>1027.79</ele>
        <time>2025-04-25T07:19:39Z</time>
      </trkpt>
      <trkpt lat="45.130227031186223" lon="3.239610018208623">
        <ele>1026.8299999999999</ele>
        <time>2025-04-25T07:19:51Z</time>
      </trkpt>
      <trkpt lat="45.130855003371835" lon="3.238855982199311">
        <ele>1029.71</ele>
        <time>2025-04-25T07:19:56Z</time>
      </trkpt>
      <trkpt lat="45.130920968949795" lon="3.238676022738218">
        <ele>1030.1900000000001</ele>
        <time>2025-04-25T07:19:57Z</time>
      </trkpt>
      <trkpt lat="45.130988024175167" lon="3.238469995558262">
        <ele>1030.6700000000001</ele>
        <time>2025-04-25T07:19:58Z</time>
      </trkpt>
      <trkpt lat="45.13133998028934" lon="3.23661801405251">
        <ele>1032.5899999999999</ele>
        <time>2025-04-25T07:20:05Z</time>
      </trkpt>
      <trkpt lat="45.13170400634408" lon="3.234718004241586">
        <ele>1034.04</ele>
        <time>2025-04-25T07:20:13Z</time>
      </trkpt>
      <trkpt lat="45.131799979135394" lon="3.234220035374165">
        <ele>1034.52</ele>
        <time>2025-04-25T07:20:18Z</time>
      </trkpt>
      <trkpt lat="45.131792016327381" lon="3.234133031219244">
        <ele>1034.52</ele>
        <time>2025-04-25T07:20:19Z</time>
      </trkpt>
      <trkpt lat="45.131762009114027" lon="3.234120039269328">
        <ele>1034.52</ele>
        <time>2025-04-25T07:20:20Z</time>
      </trkpt>
      <trkpt lat="45.131718004122376" lon="3.234101012349129">
        <ele>1034.04</ele>
        <time>2025-04-25T07:20:21Z</time>
      </trkpt>
      <trkpt lat="45.131655978038907" lon="3.234074022620916">
        <ele>1034.04</ele>
        <time>2025-04-25T07:20:22Z</time>
      </trkpt>
      <trkpt lat="45.131577020511031" lon="3.234038986265659">
        <ele>1034.04</ele>
        <time>2025-04-25T07:20:23Z</time>
      </trkpt>
      <trkpt lat="45.131482975557446" lon="3.233997998759151">
        <ele>1034.04</ele>
        <time>2025-04-25T07:20:24Z</time>
      </trkpt>
      <trkpt lat="45.131392031908035" lon="3.233921974897385">
        <ele>1034.04</ele>
        <time>2025-04-25T07:20:25Z</time>
      </trkpt>
      <trkpt lat="45.131292035803199" lon="3.233832037076354">
        <ele>1035</ele>
        <time>2025-04-25T07:20:26Z</time>
      </trkpt>
      <trkpt lat="45.13118801638484" lon="3.233737992122769">
        <ele>1035.48</ele>
        <time>2025-04-25T07:20:27Z</time>
      </trkpt>
      <trkpt lat="45.131078967824578" lon="3.233639001846314">
        <ele>1035.96</ele>
        <time>2025-04-25T07:20:28Z</time>
      </trkpt>
      <trkpt lat="45.130958016961813" lon="3.233553003519774">
        <ele>1036.9200000000001</ele>
        <time>2025-04-25T07:20:29Z</time>
      </trkpt>
      <trkpt lat="45.130832958966494" lon="3.233473040163517">
        <ele>1037.4000000000001</ele>
        <time>2025-04-25T07:20:30Z</time>
      </trkpt>
      <trkpt lat="45.130688035860658" lon="3.233433980494738">
        <ele>1037.8800000000001</ele>
        <time>2025-04-25T07:20:31Z</time>
      </trkpt>
      <trkpt lat="45.130533976480365" lon="3.233403973281384">
        <ele>1038.8399999999999</ele>
        <time>2025-04-25T07:20:32Z</time>
      </trkpt>
      <trkpt lat="45.13037103228271" lon="3.2333720382303">
        <ele>1039.3199999999999</ele>
        <time>2025-04-25T07:20:33Z</time>
      </trkpt>
      <trkpt lat="45.129538960754871" lon="3.233161987736821">
        <ele>1041.25</ele>
        <time>2025-04-25T07:20:38Z</time>
      </trkpt>
      <trkpt lat="45.129379034042358" lon="3.233074983581901">
        <ele>1041.73</ele>
        <time>2025-04-25T07:20:39Z</time>
      </trkpt>
      <trkpt lat="45.129225980490446" lon="3.232954032719135">
        <ele>1042.21</ele>
        <time>2025-04-25T07:20:40Z</time>
      </trkpt>
      <trkpt lat="45.127547001466155" lon="3.231767993420363">
        <ele>1046.53</ele>
        <time>2025-04-25T07:20:50Z</time>
      </trkpt>
      <trkpt lat="45.125928958877921" lon="3.231299025937915">
        <ele>1045.0899999999999</ele>
        <time>2025-04-25T07:20:58Z</time>
      </trkpt>
      <trkpt lat="45.123564004898071" lon="3.230778006836772">
        <ele>1041.73</ele>
        <time>2025-04-25T07:21:09Z</time>
      </trkpt>
      <trkpt lat="45.121773965656757" lon="3.231028039008379">
        <ele>1042.6900000000001</ele>
        <time>2025-04-25T07:21:18Z</time>
      </trkpt>
      <trkpt lat="45.120979025959969" lon="3.23113901540637">
        <ele>1043.1700000000001</ele>
        <time>2025-04-25T07:21:24Z</time>
      </trkpt>
      <trkpt lat="45.120879029855132" lon="3.231131974607706">
        <ele>1043.1700000000001</ele>
        <time>2025-04-25T07:21:25Z</time>
      </trkpt>
      <trkpt lat="45.11984596028924" lon="3.230980010703206">
        <ele>1041.25</ele>
        <time>2025-04-25T07:21:33Z</time>
      </trkpt>
      <trkpt lat="45.119390990585089" lon="3.23107497766614">
        <ele>1039.8</ele>
        <time>2025-04-25T07:21:38Z</time>
      </trkpt>
      <trkpt lat="45.119256963953376" lon="3.231100039556623">
        <ele>1039.8</ele>
        <time>2025-04-25T07:21:39Z</time>
      </trkpt>
      <trkpt lat="45.119214970618486" lon="3.231038013473153">
        <ele>1039.8</ele>
        <time>2025-04-25T07:21:40Z</time>
      </trkpt>
      <trkpt lat="45.119169959798455" lon="3.230972969904542">
        <ele>1039.8</ele>
        <time>2025-04-25T07:21:41Z</time>
      </trkpt>
      <trkpt lat="45.119131989777088" lon="3.230916978791356">
        <ele>1039.3199999999999</ele>
        <time>2025-04-25T07:21:42Z</time>
      </trkpt>
      <trkpt lat="45.119102988392115" lon="3.230874985456467">
        <ele>1039.3199999999999</ele>
        <time>2025-04-25T07:21:43Z</time>
      </trkpt>
      <trkpt lat="45.119072981178761" lon="3.230830980464816">
        <ele>1039.3199999999999</ele>
        <time>2025-04-25T07:21:44Z</time>
      </trkpt>
      <trkpt lat="45.119036016985774" lon="3.230777001008391">
        <ele>1039.3199999999999</ele>
        <time>2025-04-25T07:21:45Z</time>
      </trkpt>
      <trkpt lat="45.11898597702384" lon="3.230712963268161">
        <ele>1039.3199999999999</ele>
        <time>2025-04-25T07:21:46Z</time>
      </trkpt>
      <trkpt lat="45.118854967877269" lon="3.230582037940621">
        <ele>1039.3199999999999</ele>
        <time>2025-04-25T07:21:48Z</time>
      </trkpt>
      <trkpt lat="45.118796965107322" lon="3.230508025735617">
        <ele>1039.8</ele>
        <time>2025-04-25T07:21:49Z</time>
      </trkpt>
      <trkpt lat="45.118751032277942" lon="3.230410041287541">
        <ele>1039.8</ele>
        <time>2025-04-25T07:21:50Z</time>
      </trkpt>
      <trkpt lat="45.118617005646229" lon="3.230127990245819">
        <ele>1040.76</ele>
        <time>2025-04-25T07:21:53Z</time>
      </trkpt>
      <trkpt lat="45.118578029796481" lon="3.230040986090899">
        <ele>1040.76</ele>
        <time>2025-04-25T07:21:54Z</time>
      </trkpt>
      <trkpt lat="45.118538970127702" lon="3.229955993592739">
        <ele>1041.25</ele>
        <time>2025-04-25T07:21:55Z</time>
      </trkpt>
      <trkpt lat="45.118513992056251" lon="3.22987100109458">
        <ele>1041.25</ele>
        <time>2025-04-25T07:21:56Z</time>
      </trkpt>
      <trkpt lat="45.118530001491308" lon="3.229740997776389">
        <ele>1042.21</ele>
        <time>2025-04-25T07:21:57Z</time>
      </trkpt>
      <trkpt lat="45.118553973734379" lon="3.22955098003149">
        <ele>1042.6900000000001</ele>
        <time>2025-04-25T07:21:58Z</time>
      </trkpt>
      <trkpt lat="45.118592027574778" lon="3.229427011683583">
        <ele>1043.6500000000001</ele>
        <time>2025-04-25T07:21:59Z</time>
      </trkpt>
      <trkpt lat="45.11868498288095" lon="3.229125011712313">
        <ele>1044.1300000000001</ele>
        <time>2025-04-25T07:22:01Z</time>
      </trkpt>
      <trkpt lat="45.118725970387459" lon="3.228992996737361">
        <ele>1044.1300000000001</ele>
        <time>2025-04-25T07:22:02Z</time>
      </trkpt>
      <trkpt lat="45.118736028671265" lon="3.228833992034197">
        <ele>1043.6500000000001</ele>
        <time>2025-04-25T07:22:03Z</time>
      </trkpt>
      <trkpt lat="45.118744997307658" lon="3.228693008422852">
        <ele>1043.1700000000001</ele>
        <time>2025-04-25T07:22:04Z</time>
      </trkpt>
      <trkpt lat="45.118725970387459" lon="3.228542972356081">
        <ele>1042.21</ele>
        <time>2025-04-25T07:22:05Z</time>
      </trkpt>
      <trkpt lat="45.118694035336375" lon="3.228382039815188">
        <ele>1041.73</ele>
        <time>2025-04-25T07:22:06Z</time>
      </trkpt>
      <trkpt lat="45.118654975667596" lon="3.228207025676966">
        <ele>1041.25</ele>
        <time>2025-04-25T07:22:07Z</time>
      </trkpt>
      <trkpt lat="45.118582975119352" lon="3.228042991831899">
        <ele>1040.28</ele>
        <time>2025-04-25T07:22:08Z</time>
      </trkpt>
      <trkpt lat="45.118508040904999" lon="3.227872001007199">
        <ele>1039.8</ele>
        <time>2025-04-25T07:22:09Z</time>
      </trkpt>
      <trkpt lat="45.118424976244569" lon="3.227685000747442">
        <ele>1038.3599999999999</ele>
        <time>2025-04-25T07:22:10Z</time>
      </trkpt>
      <trkpt lat="45.118309976533055" lon="3.227516021579504">
        <ele>1037.8800000000001</ele>
        <time>2025-04-25T07:22:11Z</time>
      </trkpt>
      <trkpt lat="45.11786799877882" lon="3.226869022473693">
        <ele>1035.48</ele>
        <time>2025-04-25T07:22:15Z</time>
      </trkpt>
      <trkpt lat="45.117777977138758" lon="3.226699959486723">
        <ele>1035</ele>
        <time>2025-04-25T07:22:16Z</time>
      </trkpt>
      <trkpt lat="45.117689967155457" lon="3.226533997803927">
        <ele>1035</ele>
        <time>2025-04-25T07:22:17Z</time>
      </trkpt>
      <trkpt lat="45.117518976330757" lon="3.226210959255695">
        <ele>1034.52</ele>
        <time>2025-04-25T07:22:19Z</time>
      </trkpt>
      <trkpt lat="45.117428032681346" lon="3.226053966209292">
        <ele>1034.52</ele>
        <time>2025-04-25T07:22:20Z</time>
      </trkpt>
      <trkpt lat="45.117138018831611" lon="3.225581981241703">
        <ele>1034.52</ele>
        <time>2025-04-25T07:22:23Z</time>
      </trkpt>
      <trkpt lat="45.117042968049645" lon="3.22551098652184">
        <ele>1034.52</ele>
        <time>2025-04-25T07:22:24Z</time>
      </trkpt>
      <trkpt lat="45.116925034672022" lon="3.225438985973597">
        <ele>1034.52</ele>
        <time>2025-04-25T07:22:25Z</time>
      </trkpt>
      <trkpt lat="45.116646001115441" lon="3.225341001525521">
        <ele>1034.52</ele>
        <time>2025-04-25T07:22:27Z</time>
      </trkpt>
      <trkpt lat="45.116526978090405" lon="3.225291967391968">
        <ele>1034.04</ele>
        <time>2025-04-25T07:22:28Z</time>
      </trkpt>
      <trkpt lat="45.116441985592246" lon="3.225197000429034">
        <ele>1034.04</ele>
        <time>2025-04-25T07:22:29Z</time>
      </trkpt>
      <trkpt lat="45.116344001144171" lon="3.225088035687804">
        <ele>1034.04</ele>
        <time>2025-04-25T07:22:30Z</time>
      </trkpt>
      <trkpt lat="45.116290021687746" lon="3.224969012662768">
        <ele>1034.04</ele>
        <time>2025-04-25T07:22:31Z</time>
      </trkpt>
      <trkpt lat="45.116223972290754" lon="3.224820988252759">
        <ele>1033.55</ele>
        <time>2025-04-25T07:22:32Z</time>
      </trkpt>
      <trkpt lat="45.116161024197936" lon="3.224680004641414">
        <ele>1033.55</ele>
        <time>2025-04-25T07:22:33Z</time>
      </trkpt>
      <trkpt lat="45.11606496758759" lon="3.224340034648776">
        <ele>1033.55</ele>
        <time>2025-04-25T07:22:35Z</time>
      </trkpt>
      <trkpt lat="45.116082988679409" lon="3.224142976105213">
        <ele>1034.04</ele>
        <time>2025-04-25T07:22:36Z</time>
      </trkpt>
      <trkpt lat="45.116157000884414" lon="3.223788002505899">
        <ele>1034.04</ele>
        <time>2025-04-25T07:22:38Z</time>
      </trkpt>
      <trkpt lat="45.1161939650774" lon="3.223607959225774">
        <ele>1034.04</ele>
        <time>2025-04-25T07:22:39Z</time>
      </trkpt>
      <trkpt lat="45.11617099866271" lon="3.22346999309957">
        <ele>1034.52</ele>
        <time>2025-04-25T07:22:40Z</time>
      </trkpt>
      <trkpt lat="45.116120958700776" lon="3.223288021981716">
        <ele>1034.52</ele>
        <time>2025-04-25T07:22:41Z</time>
      </trkpt>
      <trkpt lat="45.116033032536507" lon="3.22310596704483">
        <ele>1035</ele>
        <time>2025-04-25T07:22:42Z</time>
      </trkpt>
      <trkpt lat="45.115945022553205" lon="3.222923995926976">
        <ele>1035.48</ele>
        <time>2025-04-25T07:22:43Z</time>
      </trkpt>
      <trkpt lat="45.11559197679162" lon="3.222383027896285">
        <ele>1035.96</ele>
        <time>2025-04-25T07:22:46Z</time>
      </trkpt>
      <trkpt lat="45.115195009857416" lon="3.221920011565089">
        <ele>1036.9200000000001</ele>
        <time>2025-04-25T07:22:49Z</time>
      </trkpt>
      <trkpt lat="45.115056037902832" lon="3.221799982711673">
        <ele>1036.9200000000001</ele>
        <time>2025-04-25T07:22:50Z</time>
      </trkpt>
      <trkpt lat="45.114554967731237" lon="3.221267983317375">
        <ele>1037.4000000000001</ele>
        <time>2025-04-25T07:22:54Z</time>
      </trkpt>
      <trkpt lat="45.11445103213191" lon="3.221110990270972">
        <ele>1037.8800000000001</ele>
        <time>2025-04-25T07:22:55Z</time>
      </trkpt>
      <trkpt lat="45.114132016897202" lon="3.220650991424918">
        <ele>1038.3599999999999</ele>
        <time>2025-04-25T07:22:58Z</time>
      </trkpt>
      <trkpt lat="45.114017017185688" lon="3.220569016411901">
        <ele>1038.3599999999999</ele>
        <time>2025-04-25T07:22:59Z</time>
      </trkpt>
      <trkpt lat="45.113876033574343" lon="3.220530040562153">
        <ele>1037.8800000000001</ele>
        <time>2025-04-25T07:23:00Z</time>
      </trkpt>
      <trkpt lat="45.113734966143966" lon="3.220497015863657">
        <ele>1037.8800000000001</ele>
        <time>2025-04-25T07:23:01Z</time>
      </trkpt>
      <trkpt lat="45.113576967269182" lon="3.220484023913741">
        <ele>1037.8800000000001</ele>
        <time>2025-04-25T07:23:02Z</time>
      </trkpt>
      <trkpt lat="45.112137040123343" lon="3.220720980316401">
        <ele>1040.76</ele>
        <time>2025-04-25T07:23:10Z</time>
      </trkpt>
      <trkpt lat="45.111012021079659" lon="3.220920972526074">
        <ele>1043.6500000000001</ele>
        <time>2025-04-25T07:23:16Z</time>
      </trkpt>
      <trkpt lat="45.110849998891354" lon="3.220885014161468">
        <ele>1044.1300000000001</ele>
        <time>2025-04-25T07:23:17Z</time>
      </trkpt>
      <trkpt lat="45.11069200001657" lon="3.220812007784843">
        <ele>1044.6099999999999</ele>
        <time>2025-04-25T07:23:18Z</time>
      </trkpt>
      <trkpt lat="45.110531989485025" lon="3.220713017508388">
        <ele>1045.0899999999999</ele>
        <time>2025-04-25T07:23:19Z</time>
      </trkpt>
      <trkpt lat="45.11036803945899" lon="3.220602963119745">
        <ele>1046.05</ele>
        <time>2025-04-25T07:23:20Z</time>
      </trkpt>
      <trkpt lat="45.109502021223307" lon="3.219936015084386">
        <ele>1050.8599999999999</ele>
        <time>2025-04-25T07:23:25Z</time>
      </trkpt>
      <trkpt lat="45.109039004892111" lon="3.219492025673389">
        <ele>1054.7</ele>
        <time>2025-04-25T07:23:28Z</time>
      </trkpt>
      <trkpt lat="45.108880000188947" lon="3.21940996684134">
        <ele>1056.1500000000001</ele>
        <time>2025-04-25T07:23:29Z</time>
      </trkpt>
      <trkpt lat="45.10845797136426" lon="3.219178961589932">
        <ele>1060.95</ele>
        <time>2025-04-25T07:23:32Z</time>
      </trkpt>
      <trkpt lat="45.108355963602662" lon="3.219083994626999">
        <ele>1062.8699999999999</ele>
        <time>2025-04-25T07:23:33Z</time>
      </trkpt>
      <trkpt lat="45.108170974999666" lon="3.218875033780932">
        <ele>1065.76</ele>
        <time>2025-04-25T07:23:36Z</time>
      </trkpt>
      <trkpt lat="45.108144991099834" lon="3.218800015747547">
        <ele>1066.72</ele>
        <time>2025-04-25T07:23:37Z</time>
      </trkpt>
      <trkpt lat="45.10811498388648" lon="3.218713011592627">
        <ele>1067.6800000000001</ele>
        <time>2025-04-25T07:23:38Z</time>
      </trkpt>
      <trkpt lat="45.108080031350255" lon="3.21861301548779">
        <ele>1068.1600000000001</ele>
        <time>2025-04-25T07:23:39Z</time>
      </trkpt>
      <trkpt lat="45.108044994994998" lon="3.218511007726193">
        <ele>1068.1600000000001</ele>
        <time>2025-04-25T07:23:40Z</time>
      </trkpt>
      <trkpt lat="45.107965031638741" lon="3.218298023566604">
        <ele>1069.1199999999999</ele>
        <time>2025-04-25T07:23:42Z</time>
      </trkpt>
      <trkpt lat="45.107914991676807" lon="3.218203978613019">
        <ele>1069.1199999999999</ele>
        <time>2025-04-25T07:23:43Z</time>
      </trkpt>
      <trkpt lat="45.107840979471803" lon="3.218129966408014">
        <ele>1069.1199999999999</ele>
        <time>2025-04-25T07:23:44Z</time>
      </trkpt>
      <trkpt lat="45.107762021943927" lon="3.218051008880138">
        <ele>1068.6400000000001</ele>
        <time>2025-04-25T07:23:45Z</time>
      </trkpt>
      <trkpt lat="45.107672000303864" lon="3.218025024980307">
        <ele>1068.1600000000001</ele>
        <time>2025-04-25T07:23:46Z</time>
      </trkpt>
      <trkpt lat="45.107561023905873" lon="3.217993006110191">
        <ele>1068.1600000000001</ele>
        <time>2025-04-25T07:23:47Z</time>
      </trkpt>
      <trkpt lat="45.107431020587683" lon="3.217955958098173">
        <ele>1067.6800000000001</ele>
        <time>2025-04-25T07:23:48Z</time>
      </trkpt>
      <trkpt lat="45.106296027079225" lon="3.217444997280836">
        <ele>1063.3599999999999</ele>
        <time>2025-04-25T07:23:55Z</time>
      </trkpt>
      <trkpt lat="45.106140961870551" lon="3.217327985912561">
        <ele>1062.8699999999999</ele>
        <time>2025-04-25T07:23:56Z</time>
      </trkpt>
      <trkpt lat="45.105991009622812" lon="3.2171930372715">
        <ele>1061.9100000000001</ele>
        <time>2025-04-25T07:23:57Z</time>
      </trkpt>
      <trkpt lat="45.105592031031847" lon="3.216695990413427">
        <ele>1060.47</ele>
        <time>2025-04-25T07:24:00Z</time>
      </trkpt>
      <trkpt lat="45.105490023270249" lon="3.216499015688896">
        <ele>1059.99</ele>
        <time>2025-04-25T07:24:01Z</time>
      </trkpt>
      <trkpt lat="45.105390027165413" lon="3.216305980458856">
        <ele>1059.51</ele>
        <time>2025-04-25T07:24:02Z</time>
      </trkpt>
      <trkpt lat="45.105315009132028" lon="3.216161979362369">
        <ele>1059.03</ele>
        <time>2025-04-25T07:24:03Z</time>
      </trkpt>
      <trkpt lat="45.105283996090293" lon="3.215957041829824">
        <ele>1059.03</ele>
        <time>2025-04-25T07:24:04Z</time>
      </trkpt>
      <trkpt lat="45.105262035503983" lon="3.215809017419815">
        <ele>1059.03</ele>
        <time>2025-04-25T07:24:05Z</time>
      </trkpt>
      <trkpt lat="45.105261029675603" lon="3.215683959424496">
        <ele>1059.51</ele>
        <time>2025-04-25T07:24:06Z</time>
      </trkpt>
      <trkpt lat="45.105289025232196" lon="3.215543981641531">
        <ele>1060.47</ele>
        <time>2025-04-25T07:24:07Z</time>
      </trkpt>
      <trkpt lat="45.10531903244555" lon="3.215401992201805">
        <ele>1060.95</ele>
        <time>2025-04-25T07:24:08Z</time>
      </trkpt>
      <trkpt lat="45.105348033830523" lon="3.215263020247221">
        <ele>1060.95</ele>
        <time>2025-04-25T07:24:09Z</time>
      </trkpt>
      <trkpt lat="45.105378963053226" lon="3.215109966695309">
        <ele>1060.95</ele>
        <time>2025-04-25T07:24:10Z</time>
      </trkpt>
      <trkpt lat="45.105373011901975" lon="3.215007036924362">
        <ele>1060.47</ele>
        <time>2025-04-25T07:24:11Z</time>
      </trkpt>
      <trkpt lat="45.105365971103311" lon="3.214892959222198">
        <ele>1059.99</ele>
        <time>2025-04-25T07:24:12Z</time>
      </trkpt>
      <trkpt lat="45.105358008295298" lon="3.214766979217529">
        <ele>1059.99</ele>
        <time>2025-04-25T07:24:13Z</time>
      </trkpt>
      <trkpt lat="45.105330012738705" lon="3.214704031124711">
        <ele>1059.51</ele>
        <time>2025-04-25T07:24:14Z</time>
      </trkpt>
      <trkpt lat="45.105287013575435" lon="3.214607974514365">
        <ele>1059.51</ele>
        <time>2025-04-25T07:24:15Z</time>
      </trkpt>
      <trkpt lat="45.105230016633868" lon="3.214510995894671">
        <ele>1059.03</ele>
        <time>2025-04-25T07:24:16Z</time>
      </trkpt>
      <trkpt lat="45.105160027742386" lon="3.214405970647931">
        <ele>1058.55</ele>
        <time>2025-04-25T07:24:17Z</time>
      </trkpt>
      <trkpt lat="45.104728024452925" lon="3.213785039260984">
        <ele>1055.6700000000001</ele>
        <time>2025-04-25T07:24:22Z</time>
      </trkpt>
      <trkpt lat="45.104644037783146" lon="3.213739022612572">
        <ele>1055.1800000000001</ele>
        <time>2025-04-25T07:24:23Z</time>
      </trkpt>
      <trkpt lat="45.104559967294335" lon="3.213696023449302">
        <ele>1054.22</ele>
        <time>2025-04-25T07:24:24Z</time>
      </trkpt>
      <trkpt lat="45.104466006159782" lon="3.213741034269333">
        <ele>1053.74</ele>
        <time>2025-04-25T07:24:25Z</time>
      </trkpt>
      <trkpt lat="45.104357963427901" lon="3.213794007897377">
        <ele>1052.78</ele>
        <time>2025-04-25T07:24:26Z</time>
      </trkpt>
      <trkpt lat="45.104238018393517" lon="3.213852010667324">
        <ele>1051.8199999999999</ele>
        <time>2025-04-25T07:24:27Z</time>
      </trkpt>
      <trkpt lat="45.102931028231978" lon="3.214405970647931">
        <ele>1043.1700000000001</ele>
        <time>2025-04-25T07:24:36Z</time>
      </trkpt>
      <trkpt lat="45.101693021133542" lon="3.214763039723039">
        <ele>1035</ele>
        <time>2025-04-25T07:24:44Z</time>
      </trkpt>
      <trkpt lat="45.101592019200325" lon="3.214751975610852">
        <ele>1034.04</ele>
        <time>2025-04-25T07:24:45Z</time>
      </trkpt>
      <trkpt lat="45.101503003388643" lon="3.214697996154428">
        <ele>1033.0699999999999</ele>
        <time>2025-04-25T07:24:46Z</time>
      </trkpt>
      <trkpt lat="45.101423962041736" lon="3.214593976736069">
        <ele>1032.5899999999999</ele>
        <time>2025-04-25T07:24:47Z</time>
      </trkpt>
      <trkpt lat="45.101334024220705" lon="3.214474031701684">
        <ele>1031.6300000000001</ele>
        <time>2025-04-25T07:24:48Z</time>
      </trkpt>
      <trkpt lat="45.101255988702178" lon="3.214335981756449">
        <ele>1030.1900000000001</ele>
        <time>2025-04-25T07:24:49Z</time>
      </trkpt>
      <trkpt lat="45.101199997588992" lon="3.214182006195188">
        <ele>1029.23</ele>
        <time>2025-04-25T07:24:50Z</time>
      </trkpt>
      <trkpt lat="45.101145012304187" lon="3.214033981785178">
        <ele>1028.75</ele>
        <time>2025-04-25T07:24:51Z</time>
      </trkpt>
      <trkpt lat="45.101143000647426" lon="3.213858967646956">
        <ele>1028.27</ele>
        <time>2025-04-25T07:24:52Z</time>
      </trkpt>
      <trkpt lat="45.101161021739244" lon="3.213678002357483">
        <ele>1027.3099999999999</ele>
        <time>2025-04-25T07:24:53Z</time>
      </trkpt>
      <trkpt lat="45.101178959012032" lon="3.213486978784204">
        <ele>1026.3399999999999</ele>
        <time>2025-04-25T07:24:54Z</time>
      </trkpt>
      <trkpt lat="45.101357996463776" lon="3.211697023361921">
        <ele>1017.21</ele>
        <time>2025-04-25T07:25:02Z</time>
      </trkpt>
      <trkpt lat="45.101678017526865" lon="3.210497992113233">
        <ele>1011.9299999999999</ele>
        <time>2025-04-25T07:25:08Z</time>
      </trkpt>
      <trkpt lat="45.101696960628033" lon="3.210345022380352">
        <ele>1010.96</ele>
        <time>2025-04-25T07:25:09Z</time>
      </trkpt>
      <trkpt lat="45.101696038618684" lon="3.210206972435117">
        <ele>1010</ele>
        <time>2025-04-25T07:25:10Z</time>
      </trkpt>
      <trkpt lat="45.101652033627033" lon="3.210101025179029">
        <ele>1009.04</ele>
        <time>2025-04-25T07:25:11Z</time>
      </trkpt>
      <trkpt lat="45.10160299949348" lon="3.209982002153993">
        <ele>1008.5599999999999</ele>
        <time>2025-04-25T07:25:12Z</time>
      </trkpt>
      <trkpt lat="45.101533010601997" lon="3.209892986342311">
        <ele>1008.5599999999999</ele>
        <time>2025-04-25T07:25:13Z</time>
      </trkpt>
      <trkpt lat="45.10145103558898" lon="3.209788966923952">
        <ele>1007.6</ele>
        <time>2025-04-25T07:25:14Z</time>
      </trkpt>
      <trkpt lat="45.10136797092855" lon="3.209684025496244">
        <ele>1007.6</ele>
        <time>2025-04-25T07:25:15Z</time>
      </trkpt>
      <trkpt lat="45.101300999522209" lon="3.209571959450841">
        <ele>1007.12</ele>
        <time>2025-04-25T07:25:16Z</time>
      </trkpt>
      <trkpt lat="45.10117300786078" lon="3.209359981119633">
        <ele>1006.64</ele>
        <time>2025-04-25T07:25:18Z</time>
      </trkpt>
      <trkpt lat="45.101079968735576" lon="3.209290998056531">
        <ele>1006.16</ele>
        <time>2025-04-25T07:25:19Z</time>
      </trkpt>
      <trkpt lat="45.100974021479487" lon="3.209212962538004">
        <ele>1006.16</ele>
        <time>2025-04-25T07:25:20Z</time>
      </trkpt>
      <trkpt lat="45.100864972919226" lon="3.209132999181747">
        <ele>1006.16</ele>
        <time>2025-04-25T07:25:21Z</time>
      </trkpt>
      <trkpt lat="45.100791966542602" lon="3.209020011126995">
        <ele>1006.16</ele>
        <time>2025-04-25T07:25:22Z</time>
      </trkpt>
      <trkpt lat="45.100760031491518" lon="3.20890299975872">
        <ele>1006.16</ele>
        <time>2025-04-25T07:25:23Z</time>
      </trkpt>
      <trkpt lat="45.100748967379332" lon="3.208760004490614">
        <ele>1006.64</ele>
        <time>2025-04-25T07:25:24Z</time>
      </trkpt>
      <trkpt lat="45.100760031491518" lon="3.208599993959069">
        <ele>1007.6</ele>
        <time>2025-04-25T07:25:25Z</time>
      </trkpt>
      <trkpt lat="45.100790960714221" lon="3.208412993699312">
        <ele>1008.5599999999999</ele>
        <time>2025-04-25T07:25:26Z</time>
      </trkpt>
      <trkpt lat="45.100880982354283" lon="3.207874037325382">
        <ele>1011.4400000000001</ele>
        <time>2025-04-25T07:25:29Z</time>
      </trkpt>
      <trkpt lat="45.100881988182664" lon="3.207734981551766">
        <ele>1012.41</ele>
        <time>2025-04-25T07:25:30Z</time>
      </trkpt>
      <trkpt lat="45.100858015939593" lon="3.207628028467298">
        <ele>1012.89</ele>
        <time>2025-04-25T07:25:31Z</time>
      </trkpt>
      <trkpt lat="45.100790038704872" lon="3.207554016262293">
        <ele>1013.37</ele>
        <time>2025-04-25T07:25:32Z</time>
      </trkpt>
      <trkpt lat="45.100715020671487" lon="3.207578994333744">
        <ele>1013.37</ele>
        <time>2025-04-25T07:25:33Z</time>
      </trkpt>
      <trkpt lat="45.100641008466482" lon="3.207642026245594">
        <ele>1013.85</ele>
        <time>2025-04-25T07:25:34Z</time>
      </trkpt>
      <trkpt lat="45.100592980161309" lon="3.207734981551766">
        <ele>1014.8099999999999</ele>
        <time>2025-04-25T07:25:35Z</time>
      </trkpt>
      <trkpt lat="45.100545035675168" lon="3.207883005961776">
        <ele>1015.29</ele>
        <time>2025-04-25T07:25:36Z</time>
      </trkpt>
      <trkpt lat="45.100490972399712" lon="3.208049973472953">
        <ele>1015.77</ele>
        <time>2025-04-25T07:25:37Z</time>
      </trkpt>
      <trkpt lat="45.100435987114906" lon="3.208221970126033">
        <ele>1016.73</ele>
        <time>2025-04-25T07:25:38Z</time>
      </trkpt>
      <trkpt lat="45.100361974909902" lon="3.208392038941383">
        <ele>1017.21</ele>
        <time>2025-04-25T07:25:39Z</time>
      </trkpt>
      <trkpt lat="45.1002739649266" lon="3.208533022552729">
        <ele>1017.6900000000001</ele>
        <time>2025-04-25T07:25:40Z</time>
      </trkpt>
      <trkpt lat="45.099987974390388" lon="3.208936024457216">
        <ele>1020.1</ele>
        <time>2025-04-25T07:25:43Z</time>
      </trkpt>
      <trkpt lat="45.09988596662879" lon="3.20901095867157">
        <ele>1021.0599999999999</ele>
        <time>2025-04-25T07:25:44Z</time>
      </trkpt>
      <trkpt lat="45.099774990230799" lon="3.209053035825491">
        <ele>1021.54</ele>
        <time>2025-04-25T07:25:45Z</time>
      </trkpt>
      <trkpt lat="45.099658984690905" lon="3.20909796282649">
        <ele>1022.5</ele>
        <time>2025-04-25T07:25:46Z</time>
      </trkpt>
      <trkpt lat="45.09953903965652" lon="3.209142973646522">
        <ele>1023.46</ele>
        <time>2025-04-25T07:25:47Z</time>
      </trkpt>
      <trkpt lat="45.099419010803103" lon="3.209226038306952">
        <ele>1023.9400000000001</ele>
        <time>2025-04-25T07:25:48Z</time>
      </trkpt>
      <trkpt lat="45.099313985556364" lon="3.209330979734659">
        <ele>1024.9000000000001</ele>
        <time>2025-04-25T07:25:49Z</time>
      </trkpt>
      <trkpt lat="45.099211977794766" lon="3.209432987496257">
        <ele>1025.3800000000001</ele>
        <time>2025-04-25T07:25:50Z</time>
      </trkpt>
      <trkpt lat="45.099125979468226" lon="3.209544969722629">
        <ele>1026.3399999999999</ele>
        <time>2025-04-25T07:25:51Z</time>
      </trkpt>
      <trkpt lat="45.099049033597112" lon="3.209660975262523">
        <ele>1026.8299999999999</ele>
        <time>2025-04-25T07:25:52Z</time>
      </trkpt>
      <trkpt lat="45.098979966714978" lon="3.209787039086223">
        <ele>1027.3099999999999</ele>
        <time>2025-04-25T07:25:53Z</time>
      </trkpt>
      <trkpt lat="45.098921963945031" lon="3.209929028525949">
        <ele>1027.79</ele>
        <time>2025-04-25T07:25:54Z</time>
      </trkpt>
      <trkpt lat="45.098864967003465" lon="3.210068000480533">
        <ele>1028.27</ele>
        <time>2025-04-25T07:25:55Z</time>
      </trkpt>
      <trkpt lat="45.098662963137031" lon="3.210561024025083">
        <ele>1029.71</ele>
        <time>2025-04-25T07:25:59Z</time>
      </trkpt>
      <trkpt lat="45.098506975919008" lon="3.210763027891517">
        <ele>1029.71</ele>
        <time>2025-04-25T07:26:02Z</time>
      </trkpt>
      <trkpt lat="45.098458025604486" lon="3.210827987641096">
        <ele>1029.71</ele>
        <time>2025-04-25T07:26:03Z</time>
      </trkpt>
      <trkpt lat="45.098220985382795" lon="3.211143985390663">
        <ele>1030.1900000000001</ele>
        <time>2025-04-25T07:26:07Z</time>
      </trkpt>
      <trkpt lat="45.097510032355785" lon="3.212353996932507">
        <ele>1036.9200000000001</ele>
        <time>2025-04-25T07:26:17Z</time>
      </trkpt>
      <trkpt lat="45.097252037376165" lon="3.212687009945512">
        <ele>1040.28</ele>
        <time>2025-04-25T07:26:20Z</time>
      </trkpt>
      <trkpt lat="45.097163021564484" lon="3.212759010493755">
        <ele>1041.25</ele>
        <time>2025-04-25T07:26:21Z</time>
      </trkpt>
      <trkpt lat="45.097072999924421" lon="3.212832016870379">
        <ele>1042.6900000000001</ele>
        <time>2025-04-25T07:26:22Z</time>
      </trkpt>
      <trkpt lat="45.096976021304727" lon="3.212907034903765">
        <ele>1043.6500000000001</ele>
        <time>2025-04-25T07:26:23Z</time>
      </trkpt>
      <trkpt lat="45.096865966916084" lon="3.21296202018857">
        <ele>1045.0899999999999</ele>
        <time>2025-04-25T07:26:24Z</time>
      </trkpt>
      <trkpt lat="45.096749039366841" lon="3.213020022958517">
        <ele>1046.05</ele>
        <time>2025-04-25T07:26:25Z</time>
      </trkpt>
      <trkpt lat="45.09649196639657" lon="3.213149020448327">
        <ele>1047.97</ele>
        <time>2025-04-25T07:26:27Z</time>
      </trkpt>
      <trkpt lat="45.096046971157193" lon="3.213352030143142">
        <ele>1049.9000000000001</ele>
        <time>2025-04-25T07:26:30Z</time>
      </trkpt>
      <trkpt lat="45.094862021505833" lon="3.213713960722089">
        <ele>1053.74</ele>
        <time>2025-04-25T07:26:37Z</time>
      </trkpt>
      <trkpt lat="45.09283703751862" lon="3.214577967301011">
        <ele>1054.22</ele>
        <time>2025-04-25T07:26:48Z</time>
      </trkpt>
      <trkpt lat="45.09114196524024" lon="3.214901005849242">
        <ele>1055.6700000000001</ele>
        <time>2025-04-25T07:26:57Z</time>
      </trkpt>
      <trkpt lat="45.089712012559175" lon="3.214689027518034">
        <ele>1060.95</ele>
        <time>2025-04-25T07:27:05Z</time>
      </trkpt>
      <trkpt lat="45.089150005951524" lon="3.214399013668299">
        <ele>1062.8699999999999</ele>
        <time>2025-04-25T07:27:09Z</time>
      </trkpt>
      <trkpt lat="45.08903400041163" lon="3.214304968714714">
        <ele>1063.3599999999999</ele>
        <time>2025-04-25T07:27:10Z</time>
      </trkpt>
      <trkpt lat="45.08875303901732" lon="3.214035993441939">
        <ele>1065.28</ele>
        <time>2025-04-25T07:27:13Z</time>
      </trkpt>
      <trkpt lat="45.088664023205638" lon="3.213952006772161">
        <ele>1065.28</ele>
        <time>2025-04-25T07:27:14Z</time>
      </trkpt>
      <trkpt lat="45.088579030707479" lon="3.213961981236935">
        <ele>1065.76</ele>
        <time>2025-04-25T07:27:15Z</time>
      </trkpt>
      <trkpt lat="45.088479034602642" lon="3.213982013985515">
        <ele>1066.24</ele>
        <time>2025-04-25T07:27:16Z</time>
      </trkpt>
      <trkpt lat="45.088391024619341" lon="3.214042028412223">
        <ele>1065.76</ele>
        <time>2025-04-25T07:27:17Z</time>
      </trkpt>
      <trkpt lat="45.088295973837376" lon="3.214106988161802">
        <ele>1065.76</ele>
        <time>2025-04-25T07:27:18Z</time>
      </trkpt>
      <trkpt lat="45.087210014462471" lon="3.214824981987476">
        <ele>1064.3199999999999</ele>
        <time>2025-04-25T07:27:27Z</time>
      </trkpt>
      <trkpt lat="45.086561003699899" lon="3.215182973071933">
        <ele>1065.28</ele>
        <time>2025-04-25T07:27:32Z</time>
      </trkpt>
      <trkpt lat="45.086432006210089" lon="3.215168975293636">
        <ele>1065.76</ele>
        <time>2025-04-25T07:27:33Z</time>
      </trkpt>
      <trkpt lat="45.086307032033801" lon="3.215117007493973">
        <ele>1065.76</ele>
        <time>2025-04-25T07:27:34Z</time>
      </trkpt>
      <trkpt lat="45.086175017058849" lon="3.215061016380787">
        <ele>1065.76</ele>
        <time>2025-04-25T07:27:35Z</time>
      </trkpt>
      <trkpt lat="45.086035039275885" lon="3.215002007782459">
        <ele>1065.76</ele>
        <time>2025-04-25T07:27:36Z</time>
      </trkpt>
      <trkpt lat="45.084502995014191" lon="3.214484006166458">
        <ele>1062.8699999999999</ele>
        <time>2025-04-25T07:27:46Z</time>
      </trkpt>
      <trkpt lat="45.084207030013204" lon="3.214335981756449">
        <ele>1061.4300000000001</ele>
        <time>2025-04-25T07:27:48Z</time>
      </trkpt>
      <trkpt lat="45.083893965929747" lon="3.214182006195188">
        <ele>1059.51</ele>
        <time>2025-04-25T07:27:50Z</time>
      </trkpt>
      <trkpt lat="45.083721969276667" lon="3.214131966233254">
        <ele>1058.55</ele>
        <time>2025-04-25T07:27:51Z</time>
      </trkpt>
      <trkpt lat="45.083542009815574" lon="3.214104976505041">
        <ele>1058.0699999999999</ele>
        <time>2025-04-25T07:27:52Z</time>
      </trkpt>
      <trkpt lat="45.082239964976907" lon="3.214287031441927">
        <ele>1050.3800000000001</ele>
        <time>2025-04-25T07:27:59Z</time>
      </trkpt>
      <trkpt lat="45.082066040486097" lon="3.214278984814882">
        <ele>1049.4200000000001</ele>
        <time>2025-04-25T07:28:00Z</time>
      </trkpt>
      <trkpt lat="45.081568993628025" lon="3.214210001751781">
        <ele>1047.01</ele>
        <time>2025-04-25T07:28:03Z</time>
      </trkpt>
      <trkpt lat="45.081418035551906" lon="3.214249983429909">
        <ele>1046.05</ele>
        <time>2025-04-25T07:28:04Z</time>
      </trkpt>
      <trkpt lat="45.081292977556586" lon="3.214370012283325">
        <ele>1045.5699999999999</ele>
        <time>2025-04-25T07:28:05Z</time>
      </trkpt>
      <trkpt lat="45.081162974238396" lon="3.214500015601516">
        <ele>1045.0899999999999</ele>
        <time>2025-04-25T07:28:06Z</time>
      </trkpt>
      <trkpt lat="45.081030037254095" lon="3.214633036404848">
        <ele>1044.6099999999999</ele>
        <time>2025-04-25T07:28:07Z</time>
      </trkpt>
      <trkpt lat="45.080769024789333" lon="3.214862029999495">
        <ele>1044.1300000000001</ele>
        <time>2025-04-25T07:28:09Z</time>
      </trkpt>
      <trkpt lat="45.080630974844098" lon="3.214932018890977">
        <ele>1044.1300000000001</ele>
        <time>2025-04-25T07:28:10Z</time>
      </trkpt>
      <trkpt lat="45.080478005111217" lon="3.21496001444757">
        <ele>1044.1300000000001</ele>
        <time>2025-04-25T07:28:11Z</time>
      </trkpt>
      <trkpt lat="45.080316988751292" lon="3.21496001444757">
        <ele>1044.1300000000001</ele>
        <time>2025-04-25T07:28:12Z</time>
      </trkpt>
      <trkpt lat="45.080134011805058" lon="3.214900000020862">
        <ele>1044.1300000000001</ele>
        <time>2025-04-25T07:28:13Z</time>
      </trkpt>
      <trkpt lat="45.079955980181694" lon="3.214839985594153">
        <ele>1044.1300000000001</ele>
        <time>2025-04-25T07:28:14Z</time>
      </trkpt>
      <trkpt lat="45.079263970255852" lon="3.214653991162777">
        <ele>1045.5699999999999</ele>
        <time>2025-04-25T07:28:18Z</time>
      </trkpt>
      <trkpt lat="45.079114018008113" lon="3.214568998664618">
        <ele>1045.5699999999999</ele>
        <time>2025-04-25T07:28:19Z</time>
      </trkpt>
      <trkpt lat="45.078975968062878" lon="3.214458022266626">
        <ele>1045.0899999999999</ele>
        <time>2025-04-25T07:28:20Z</time>
      </trkpt>
      <trkpt lat="45.078832972794771" lon="3.214376969262958">
        <ele>1045.0899999999999</ele>
        <time>2025-04-25T07:28:21Z</time>
      </trkpt>
      <trkpt lat="45.078683020547032" lon="3.214365988969803">
        <ele>1045.0899999999999</ele>
        <time>2025-04-25T07:28:22Z</time>
      </trkpt>
      <trkpt lat="45.078523010015488" lon="3.214364983141422">
        <ele>1045.0899999999999</ele>
        <time>2025-04-25T07:28:23Z</time>
      </trkpt>
      <trkpt lat="45.078355958685279" lon="3.214376969262958">
        <ele>1045.5699999999999</ele>
        <time>2025-04-25T07:28:24Z</time>
      </trkpt>
      <trkpt lat="45.077234040945768" lon="3.214134983718395">
        <ele>1047.01</ele>
        <time>2025-04-25T07:28:31Z</time>
      </trkpt>
      <trkpt lat="45.076276995241642" lon="3.213518997654319">
        <ele>1043.6500000000001</ele>
        <time>2025-04-25T07:28:37Z</time>
      </trkpt>
      <trkpt lat="45.076130982488394" lon="3.213524026796222">
        <ele>1042.6900000000001</ele>
        <time>2025-04-25T07:28:38Z</time>
      </trkpt>
      <trkpt lat="45.075984969735146" lon="3.213575994595885">
        <ele>1042.6900000000001</ele>
        <time>2025-04-25T07:28:39Z</time>
      </trkpt>
      <trkpt lat="45.075551038607955" lon="3.213657969608903">
        <ele>1041.25</ele>
        <time>2025-04-25T07:28:42Z</time>
      </trkpt>
      <trkpt lat="45.075431009754539" lon="3.213661992922425">
        <ele>1040.76</ele>
        <time>2025-04-25T07:28:43Z</time>
      </trkpt>
      <trkpt lat="45.075312992557883" lon="3.213580017909408">
        <ele>1040.28</ele>
        <time>2025-04-25T07:28:44Z</time>
      </trkpt>
      <trkpt lat="45.075180977582932" lon="3.213488990440965">
        <ele>1039.8</ele>
        <time>2025-04-25T07:28:45Z</time>
      </trkpt>
      <trkpt lat="45.075038988143206" lon="3.213391005992889">
        <ele>1039.3199999999999</ele>
        <time>2025-04-25T07:28:46Z</time>
      </trkpt>
      <trkpt lat="45.074888030067086" lon="3.21328598074615">
        <ele>1038.8399999999999</ele>
        <time>2025-04-25T07:28:47Z</time>
      </trkpt>
      <trkpt lat="45.074713015928864" lon="3.213216997683048">
        <ele>1038.3599999999999</ele>
        <time>2025-04-25T07:28:48Z</time>
      </trkpt>
      <trkpt lat="45.074538001790643" lon="3.213146002963185">
        <ele>1037.8800000000001</ele>
        <time>2025-04-25T07:28:49Z</time>
      </trkpt>
      <trkpt lat="45.074182022362947" lon="3.212994039058685">
        <ele>1038.8399999999999</ele>
        <time>2025-04-25T07:28:51Z</time>
      </trkpt>
      <trkpt lat="45.074015976861119" lon="3.212875016033649">
        <ele>1039.8</ele>
        <time>2025-04-25T07:28:52Z</time>
      </trkpt>
      <trkpt lat="45.073854960501194" lon="3.212756998836994">
        <ele>1040.76</ele>
        <time>2025-04-25T07:28:53Z</time>
      </trkpt>
      <trkpt lat="45.073707019910216" lon="3.212637975811958">
        <ele>1041.73</ele>
        <time>2025-04-25T07:28:54Z</time>
      </trkpt>
      <trkpt lat="45.073593026027083" lon="3.212476037442684">
        <ele>1043.1700000000001</ele>
        <time>2025-04-25T07:28:55Z</time>
      </trkpt>
      <trkpt lat="45.073484983295202" lon="3.21229599416256">
        <ele>1044.1300000000001</ele>
        <time>2025-04-25T07:28:56Z</time>
      </trkpt>
      <trkpt lat="45.073408037424088" lon="3.212072029709816">
        <ele>1045.0899999999999</ele>
        <time>2025-04-25T07:28:57Z</time>
      </trkpt>
      <trkpt lat="45.07333000190556" lon="3.211841024458408">
        <ele>1046.05</ele>
        <time>2025-04-25T07:28:58Z</time>
      </trkpt>
      <trkpt lat="45.072731031104922" lon="3.209814028814435">
        <ele>1052.78</ele>
        <time>2025-04-25T07:29:06Z</time>
      </trkpt>
      <trkpt lat="45.072088977321982" lon="3.208316015079618">
        <ele>1055.1800000000001</ele>
        <time>2025-04-25T07:29:13Z</time>
      </trkpt>
      <trkpt lat="45.071997027844191" lon="3.208178970962763">
        <ele>1055.1800000000001</ele>
        <time>2025-04-25T07:29:14Z</time>
      </trkpt>
      <trkpt lat="45.071898959577084" lon="3.208045028150082">
        <ele>1055.6700000000001</ele>
        <time>2025-04-25T07:29:15Z</time>
      </trkpt>
      <trkpt lat="45.071801980957389" lon="3.207944026216865">
        <ele>1055.6700000000001</ele>
        <time>2025-04-25T07:29:16Z</time>
      </trkpt>
      <trkpt lat="45.071699973195791" lon="3.207887029275298">
        <ele>1056.1500000000001</ele>
        <time>2025-04-25T07:29:17Z</time>
      </trkpt>
      <trkpt lat="45.071606012061238" lon="3.207877976819873">
        <ele>1056.1500000000001</ele>
        <time>2025-04-25T07:29:18Z</time>
      </trkpt>
      <trkpt lat="45.071495035663247" lon="3.207933967933059">
        <ele>1056.6300000000001</ele>
        <time>2025-04-25T07:29:19Z</time>
      </trkpt>
      <trkpt lat="45.071367966011167" lon="3.207996999844909">
        <ele>1057.1099999999999</ele>
        <time>2025-04-25T07:29:20Z</time>
      </trkpt>
      <trkpt lat="45.071232011541724" lon="3.20806497707963">
        <ele>1057.1099999999999</ele>
        <time>2025-04-25T07:29:21Z</time>
      </trkpt>
      <trkpt lat="45.070639997720718" lon="3.208338981494308">
        <ele>1058.0699999999999</ele>
        <time>2025-04-25T07:29:25Z</time>
      </trkpt>
      <trkpt lat="45.069962991401553" lon="3.208501003682613">
        <ele>1060.95</ele>
        <time>2025-04-25T07:29:31Z</time>
      </trkpt>
      <trkpt lat="45.069910017773509" lon="3.208501003682613">
        <ele>1060.95</ele>
        <time>2025-04-25T07:29:32Z</time>
      </trkpt>
      <trkpt lat="45.069851009175181" lon="3.208476025611162">
        <ele>1060.95</ele>
        <time>2025-04-25T07:29:33Z</time>
      </trkpt>
      <trkpt lat="45.069812033325434" lon="3.208460016176105">
        <ele>1061.4300000000001</ele>
        <time>2025-04-25T07:29:34Z</time>
      </trkpt>
      <trkpt lat="45.06978202611208" lon="3.208447024226189">
        <ele>1061.4300000000001</ele>
        <time>2025-04-25T07:29:35Z</time>
      </trkpt>
      <trkpt lat="45.069784037768841" lon="3.208350967615843">
        <ele>1061.4300000000001</ele>
        <time>2025-04-25T07:29:36Z</time>
      </trkpt>
      <trkpt lat="45.069807004183531" lon="3.208272010087967">
        <ele>1062.3900000000001</ele>
        <time>2025-04-25T07:29:37Z</time>
      </trkpt>
      <trkpt lat="45.069838017225266" lon="3.208166984841228">
        <ele>1062.3900000000001</ele>
        <time>2025-04-25T07:29:38Z</time>
      </trkpt>
      <trkpt lat="45.069873975589871" lon="3.20804201066494">
        <ele>1063.3599999999999</ele>
        <time>2025-04-25T07:29:39Z</time>
      </trkpt>
      <trkpt lat="45.070249987766147" lon="3.206683974713087">
        <ele>1071.53</ele>
        <time>2025-04-25T07:29:48Z</time>
      </trkpt>
      <trkpt lat="45.070649972185493" lon="3.20505402982235">
        <ele>1079.22</ele>
        <time>2025-04-25T07:30:00Z</time>
      </trkpt>
      <trkpt lat="45.070676039904356" lon="3.204680029302836">
        <ele>1080.1800000000001</ele>
        <time>2025-04-25T07:30:03Z</time>
      </trkpt>
      <trkpt lat="45.070684002712369" lon="3.20456201210618">
        <ele>1080.1800000000001</ele>
        <time>2025-04-25T07:30:04Z</time>
      </trkpt>
      <trkpt lat="45.070819035172462" lon="3.203492984175682">
        <ele>1083.0599999999999</ele>
        <time>2025-04-25T07:30:14Z</time>
      </trkpt>
      <trkpt lat="45.070862034335732" lon="3.203289974480867">
        <ele>1083.54</ele>
        <time>2025-04-25T07:30:16Z</time>
      </trkpt>
      <trkpt lat="45.070921964943409" lon="3.203003983944655">
        <ele>1085.47</ele>
        <time>2025-04-25T07:30:19Z</time>
      </trkpt>
      <trkpt lat="45.070936968550086" lon="3.202898036688566">
        <ele>1085.95</ele>
        <time>2025-04-25T07:30:20Z</time>
      </trkpt>
      <trkpt lat="45.070925988256931" lon="3.202807009220123">
        <ele>1086.4300000000001</ele>
        <time>2025-04-25T07:30:21Z</time>
      </trkpt>
      <trkpt lat="45.070890029892325" lon="3.202515989542007">
        <ele>1087.8699999999999</ele>
        <time>2025-04-25T07:30:24Z</time>
      </trkpt>
      <trkpt lat="45.070877959951758" lon="3.20241398178041">
        <ele>1088.3499999999999</ele>
        <time>2025-04-25T07:30:25Z</time>
      </trkpt>
      <trkpt lat="45.070825992152095" lon="3.202104019001126">
        <ele>1089.3099999999999</ele>
        <time>2025-04-25T07:30:28Z</time>
      </trkpt>
      <trkpt lat="45.070789027959108" lon="3.201957000419498">
        <ele>1089.79</ele>
        <time>2025-04-25T07:30:29Z</time>
      </trkpt>
      <trkpt lat="45.070759020745754" lon="3.201900003477931">
        <ele>1089.79</ele>
        <time>2025-04-25T07:30:30Z</time>
      </trkpt>
      <trkpt lat="45.070715015754104" lon="3.201817022636533">
        <ele>1090.27</ele>
        <time>2025-04-25T07:30:31Z</time>
      </trkpt>
      <trkpt lat="45.070667993277311" lon="3.201730018481612">
        <ele>1090.75</ele>
        <time>2025-04-25T07:30:32Z</time>
      </trkpt>
      <trkpt lat="45.070618037134409" lon="3.201634967699647">
        <ele>1091.23</ele>
        <time>2025-04-25T07:30:33Z</time>
      </trkpt>
      <trkpt lat="45.070485016331077" lon="3.201345959678292">
        <ele>1092.6800000000001</ele>
        <time>2025-04-25T07:30:36Z</time>
      </trkpt>
      <trkpt lat="45.070436988025904" lon="3.201226014643908">
        <ele>1093.6400000000001</ele>
        <time>2025-04-25T07:30:37Z</time>
      </trkpt>
      <trkpt lat="45.069994004443288" lon="3.200198980048299">
        <ele>1098.9200000000001</ele>
        <time>2025-04-25T07:30:45Z</time>
      </trkpt>
      <trkpt lat="45.069917980581522" lon="3.200067970901728">
        <ele>1099.4000000000001</ele>
        <time>2025-04-25T07:30:46Z</time>
      </trkpt>
      <trkpt lat="45.069841034710407" lon="3.199938973411918">
        <ele>1099.8900000000001</ele>
        <time>2025-04-25T07:30:47Z</time>
      </trkpt>
      <trkpt lat="45.068888012319803" lon="3.198981005698443">
        <ele>1104.6900000000001</ele>
        <time>2025-04-25T07:30:57Z</time>
      </trkpt>
      <trkpt lat="45.068781981244683" lon="3.198937000706792">
        <ele>1105.1700000000001</ele>
        <time>2025-04-25T07:30:58Z</time>
      </trkpt>
      <trkpt lat="45.068672010675073" lon="3.198894001543522">
        <ele>1105.1700000000001</ele>
        <time>2025-04-25T07:30:59Z</time>
      </trkpt>
      <trkpt lat="45.068562040105462" lon="3.198859971016645">
        <ele>1105.6500000000001</ele>
        <time>2025-04-25T07:31:00Z</time>
      </trkpt>
      <trkpt lat="45.06845198571682" lon="3.198840022087097">
        <ele>1106.1300000000001</ele>
        <time>2025-04-25T07:31:01Z</time>
      </trkpt>
      <trkpt lat="45.068364981561899" lon="3.19882401265204">
        <ele>1106.6099999999999</ele>
        <time>2025-04-25T07:31:02Z</time>
      </trkpt>
      <trkpt lat="45.068188039585948" lon="3.198857037350535">
        <ele>1107.0999999999999</ele>
        <time>2025-04-25T07:31:05Z</time>
      </trkpt>
      <trkpt lat="45.06815199740231" lon="3.198863994330168">
        <ele>1107.0999999999999</ele>
        <time>2025-04-25T07:31:06Z</time>
      </trkpt>
      <trkpt lat="45.068118972703815" lon="3.198870029300451">
        <ele>1107.5799999999999</ele>
        <time>2025-04-25T07:31:07Z</time>
      </trkpt>
      <trkpt lat="45.06808603182435" lon="3.198876986280084">
        <ele>1108.0599999999999</ele>
        <time>2025-04-25T07:31:08Z</time>
      </trkpt>
      <trkpt lat="45.068055018782616" lon="3.198882015421987">
        <ele>1108.0599999999999</ele>
        <time>2025-04-25T07:31:09Z</time>
      </trkpt>
      <trkpt lat="45.068026017397642" lon="3.198887966573238">
        <ele>1108.54</ele>
        <time>2025-04-25T07:31:10Z</time>
      </trkpt>
      <trkpt lat="45.06795896217227" lon="3.19858898408711">
        <ele>1108.54</ele>
        <time>2025-04-25T07:31:11Z</time>
      </trkpt>
      <trkpt lat="45.067891990765929" lon="3.19835496135056">
        <ele>1109.5</ele>
        <time>2025-04-25T07:31:21Z</time>
      </trkpt>
      <trkpt lat="45.067946976050735" lon="3.198483036831021">
        <ele>1107.5799999999999</ele>
        <time>2025-04-25T07:34:50Z</time>
      </trkpt>
      <trkpt lat="45.067899031564593" lon="3.198391003534198">
        <ele>1105.6500000000001</ele>
        <time>2025-04-25T07:35:09Z</time>
      </trkpt>
      <trkpt lat="45.067859971895814" lon="3.198509020730853">
        <ele>1106.1300000000001</ele>
        <time>2025-04-25T07:35:16Z</time>
      </trkpt>
      <trkpt lat="45.068019982427359" lon="3.19882401265204">
        <ele>1106.6099999999999</ele>
        <time>2025-04-25T07:35:29Z</time>
      </trkpt>
      <trkpt lat="45.068010007962584" lon="3.198829041793943">
        <ele>1106.1300000000001</ele>
        <time>2025-04-25T07:35:34Z</time>
      </trkpt>
      <trkpt lat="45.068005984649062" lon="3.198891989886761">
        <ele>1106.1300000000001</ele>
        <time>2025-04-25T07:35:36Z</time>
      </trkpt>
      <trkpt lat="45.067991986870766" lon="3.198894001543522">
        <ele>1106.1300000000001</ele>
        <time>2025-04-25T07:35:37Z</time>
      </trkpt>
      <trkpt lat="45.067969020456076" lon="3.198899030685425">
        <ele>1106.6099999999999</ele>
        <time>2025-04-25T07:35:38Z</time>
      </trkpt>
      <trkpt lat="45.067928032949567" lon="3.198905987665057">
        <ele>1106.1300000000001</ele>
        <time>2025-04-25T07:35:39Z</time>
      </trkpt>
      <trkpt lat="45.067876987159252" lon="3.198915962129831">
        <ele>1106.1300000000001</ele>
        <time>2025-04-25T07:35:40Z</time>
      </trkpt>
      <trkpt lat="45.067825019359589" lon="3.198926020413637">
        <ele>1106.1300000000001</ele>
        <time>2025-04-25T07:35:41Z</time>
      </trkpt>
      <trkpt lat="45.067143989726901" lon="3.199047977104783">
        <ele>1105.6500000000001</ele>
        <time>2025-04-25T07:35:52Z</time>
      </trkpt>
      <trkpt lat="45.065955016762018" lon="3.199252998456359">
        <ele>1103.73</ele>
        <time>2025-04-25T07:36:02Z</time>
      </trkpt>
      <trkpt lat="45.064287018030882" lon="3.199541000649333">
        <ele>1098.9200000000001</ele>
        <time>2025-04-25T07:36:13Z</time>
      </trkpt>
      <trkpt lat="45.064027011394501" lon="3.199605960398912">
        <ele>1097.96</ele>
        <time>2025-04-25T07:36:15Z</time>
      </trkpt>
      <trkpt lat="45.063907988369465" lon="3.199660023674369">
        <ele>1097.48</ele>
        <time>2025-04-25T07:36:16Z</time>
      </trkpt>
      <trkpt lat="45.063793994486332" lon="3.199732024222612">
        <ele>1097</ele>
        <time>2025-04-25T07:36:17Z</time>
      </trkpt>
      <trkpt lat="45.06320801563561" lon="3.200133014470339">
        <ele>1093.1600000000001</ele>
        <time>2025-04-25T07:36:24Z</time>
      </trkpt>
      <trkpt lat="45.063153030350804" lon="3.200102001428604">
        <ele>1092.6800000000001</ele>
        <time>2025-04-25T07:36:25Z</time>
      </trkpt>
      <trkpt lat="45.063158981502056" lon="3.200039975345135">
        <ele>1092.2</ele>
        <time>2025-04-25T07:36:26Z</time>
      </trkpt>
      <trkpt lat="45.06316602230072" lon="3.199950037524104">
        <ele>1091.23</ele>
        <time>2025-04-25T07:36:27Z</time>
      </trkpt>
      <trkpt lat="45.063177002593875" lon="3.199832020327449">
        <ele>1090.75</ele>
        <time>2025-04-25T07:36:28Z</time>
      </trkpt>
      <trkpt lat="45.06318898871541" lon="3.199690030887723">
        <ele>1090.27</ele>
        <time>2025-04-25T07:36:29Z</time>
      </trkpt>
      <trkpt lat="45.063174990937114" lon="3.199523985385895">
        <ele>1089.79</ele>
        <time>2025-04-25T07:36:30Z</time>
      </trkpt>
      <trkpt lat="45.063149007037282" lon="3.199356012046337">
        <ele>1089.3099999999999</ele>
        <time>2025-04-25T07:36:31Z</time>
      </trkpt>
      <trkpt lat="45.063110031187534" lon="3.199184015393257">
        <ele>1088.8299999999999</ele>
        <time>2025-04-25T07:36:32Z</time>
      </trkpt>
      <trkpt lat="45.063043981790543" lon="3.19901998154819">
        <ele>1087.8699999999999</ele>
        <time>2025-04-25T07:36:33Z</time>
      </trkpt>
      <trkpt lat="45.062974998727441" lon="3.198845973238349">
        <ele>1087.3900000000001</ele>
        <time>2025-04-25T07:36:34Z</time>
      </trkpt>
      <trkpt lat="45.062873996794224" lon="3.198688980191946">
        <ele>1086.4300000000001</ele>
        <time>2025-04-25T07:36:35Z</time>
      </trkpt>
      <trkpt lat="45.062760002911091" lon="3.198535004630685">
        <ele>1085.47</ele>
        <time>2025-04-25T07:36:36Z</time>
      </trkpt>
      <trkpt lat="45.062633017078042" lon="3.198377005755901">
        <ele>1084.99</ele>
        <time>2025-04-25T07:36:37Z</time>
      </trkpt>
      <trkpt lat="45.062485998496413" lon="3.198271980509162">
        <ele>1084.02</ele>
        <time>2025-04-25T07:36:38Z</time>
      </trkpt>
      <trkpt lat="45.062335962429643" lon="3.198165027424693">
        <ele>1083.54</ele>
        <time>2025-04-25T07:36:39Z</time>
      </trkpt>
      <trkpt lat="45.062205959111452" lon="3.19807299412787">
        <ele>1082.5799999999999</ele>
        <time>2025-04-25T07:36:40Z</time>
      </trkpt>
      <trkpt lat="45.062012001872063" lon="3.198025971651077">
        <ele>1082.0999999999999</ele>
        <time>2025-04-25T07:36:41Z</time>
      </trkpt>
      <trkpt lat="45.061841011047363" lon="3.197983978316188">
        <ele>1081.1400000000001</ele>
        <time>2025-04-25T07:36:42Z</time>
      </trkpt>
      <trkpt lat="45.061667002737522" lon="3.197940979152918">
        <ele>1080.1800000000001</ele>
        <time>2025-04-25T07:36:43Z</time>
      </trkpt>
      <trkpt lat="45.061331978067756" lon="3.197860009968281">
        <ele>1078.74</ele>
        <time>2025-04-25T07:36:45Z</time>
      </trkpt>
      <trkpt lat="45.061184959486127" lon="3.19774903357029">
        <ele>1077.78</ele>
        <time>2025-04-25T07:36:46Z</time>
      </trkpt>
      <trkpt lat="45.061042970046401" lon="3.197637973353267">
        <ele>1076.8099999999999</ele>
        <time>2025-04-25T07:36:47Z</time>
      </trkpt>
      <trkpt lat="45.060928976163268" lon="3.197477962821722">
        <ele>1075.8499999999999</ele>
        <time>2025-04-25T07:36:48Z</time>
      </trkpt>
      <trkpt lat="45.060811964794993" lon="3.197313006967306">
        <ele>1075.3699999999999</ele>
        <time>2025-04-25T07:36:49Z</time>
      </trkpt>
      <trkpt lat="45.060690008103848" lon="3.197141010314226">
        <ele>1074.4100000000001</ele>
        <time>2025-04-25T07:36:50Z</time>
      </trkpt>
      <trkpt lat="45.060306033119559" lon="3.196620997041464">
        <ele>1072.01</ele>
        <time>2025-04-25T07:36:53Z</time>
      </trkpt>
      <trkpt lat="45.060167983174324" lon="3.196475990116596">
        <ele>1070.5699999999999</ele>
        <time>2025-04-25T07:36:54Z</time>
      </trkpt>
      <trkpt lat="45.060032028704882" lon="3.19633400067687">
        <ele>1069.5999999999999</ele>
        <time>2025-04-25T07:36:55Z</time>
      </trkpt>
      <trkpt lat="45.059901019558311" lon="3.196185976266861">
        <ele>1068.6400000000001</ele>
        <time>2025-04-25T07:36:56Z</time>
      </trkpt>
      <trkpt lat="45.059805968776345" lon="3.195984978228807">
        <ele>1067.6800000000001</ele>
        <time>2025-04-25T07:36:57Z</time>
      </trkpt>
      <trkpt lat="45.059712007641792" lon="3.195785991847515">
        <ele>1067.2</ele>
        <time>2025-04-25T07:36:58Z</time>
      </trkpt>
      <trkpt lat="45.05962198600173" lon="3.195595974102616">
        <ele>1066.24</ele>
        <time>2025-04-25T07:36:59Z</time>
      </trkpt>
      <trkpt lat="45.059536993503571" lon="3.195421965792775">
        <ele>1065.28</ele>
        <time>2025-04-25T07:37:00Z</time>
      </trkpt>
      <trkpt lat="45.059422999620438" lon="3.195321969687939">
        <ele>1064.3199999999999</ele>
        <time>2025-04-25T07:37:01Z</time>
      </trkpt>
      <trkpt lat="45.059292996302247" lon="3.195263966917992">
        <ele>1063.3599999999999</ele>
        <time>2025-04-25T07:37:02Z</time>
      </trkpt>
      <trkpt lat="45.059157041832805" lon="3.195275031030178">
        <ele>1062.3900000000001</ele>
        <time>2025-04-25T07:37:03Z</time>
      </trkpt>
      <trkpt lat="45.058998959138989" lon="3.195291962474585">
        <ele>1061.4300000000001</ele>
        <time>2025-04-25T07:37:04Z</time>
      </trkpt>
      <trkpt lat="45.058836014941335" lon="3.195308977738023">
        <ele>1060.47</ele>
        <time>2025-04-25T07:37:05Z</time>
      </trkpt>
      <trkpt lat="45.058679021894932" lon="3.19532498717308">
        <ele>1059.51</ele>
        <time>2025-04-25T07:37:06Z</time>
      </trkpt>
      <trkpt lat="45.058520017191768" lon="3.195277964696288">
        <ele>1058.55</ele>
        <time>2025-04-25T07:37:07Z</time>
      </trkpt>
      <trkpt lat="45.058360006660223" lon="3.195223985239863">
        <ele>1057.1099999999999</ele>
        <time>2025-04-25T07:37:08Z</time>
      </trkpt>
      <trkpt lat="45.058197984471917" lon="3.195161959156394">
        <ele>1056.1500000000001</ele>
        <time>2025-04-25T07:37:09Z</time>
      </trkpt>
      <trkpt lat="45.058049038052559" lon="3.195032039657235">
        <ele>1055.1800000000001</ele>
        <time>2025-04-25T07:37:10Z</time>
      </trkpt>
      <trkpt lat="45.057893972843885" lon="3.194898013025522">
        <ele>1054.22</ele>
        <time>2025-04-25T07:37:11Z</time>
      </trkpt>
      <trkpt lat="45.05777302198112" lon="3.194697014987469">
        <ele>1053.26</ele>
        <time>2025-04-25T07:37:12Z</time>
      </trkpt>
      <trkpt lat="45.057656010612845" lon="3.194487970322371">
        <ele>1052.3</ele>
        <time>2025-04-25T07:37:13Z</time>
      </trkpt>
      <trkpt lat="45.057544028386474" lon="3.194267023354769">
        <ele>1051.3399999999999</ele>
        <time>2025-04-25T07:37:14Z</time>
      </trkpt>
      <trkpt lat="45.056881019845605" lon="3.192975036799908">
        <ele>1044.1300000000001</ele>
        <time>2025-04-25T07:37:20Z</time>
      </trkpt>
      <trkpt lat="45.056752022355795" lon="3.192803962156177">
        <ele>1042.6900000000001</ele>
        <time>2025-04-25T07:37:21Z</time>
      </trkpt>
      <trkpt lat="45.056608021259308" lon="3.192687034606934">
        <ele>1041.73</ele>
        <time>2025-04-25T07:37:22Z</time>
      </trkpt>
      <trkpt lat="45.056440969929099" lon="3.192586032673717">
        <ele>1040.28</ele>
        <time>2025-04-25T07:37:23Z</time>
      </trkpt>
      <trkpt lat="45.056277019903064" lon="3.19248603656888">
        <ele>1039.3199999999999</ele>
        <time>2025-04-25T07:37:24Z</time>
      </trkpt>
      <trkpt lat="45.056112986057997" lon="3.192438008263707">
        <ele>1038.3599999999999</ele>
        <time>2025-04-25T07:37:25Z</time>
      </trkpt>
      <trkpt lat="45.055940989404917" lon="3.192417975515127">
        <ele>1037.4000000000001</ele>
        <time>2025-04-25T07:37:26Z</time>
      </trkpt>
      <trkpt lat="45.05577796138823" lon="3.192398026585579">
        <ele>1036.4400000000001</ele>
        <time>2025-04-25T07:37:27Z</time>
      </trkpt>
      <trkpt lat="45.055467998608947" lon="3.192361984401941">
        <ele>1034.04</ele>
        <time>2025-04-25T07:37:29Z</time>
      </trkpt>
      <trkpt lat="45.055311005562544" lon="3.192338012158871">
        <ele>1032.5899999999999</ele>
        <time>2025-04-25T07:37:30Z</time>
      </trkpt>
      <trkpt lat="45.055158035829663" lon="3.192233992740512">
        <ele>1031.6300000000001</ele>
        <time>2025-04-25T07:37:31Z</time>
      </trkpt>
      <trkpt lat="45.054655037820339" lon="3.19192604161799">
        <ele>1028.75</ele>
        <time>2025-04-25T07:37:34Z</time>
      </trkpt>
      <trkpt lat="45.054476000368595" lon="3.191828979179263">
        <ele>1027.79</ele>
        <time>2025-04-25T07:37:35Z</time>
      </trkpt>
      <trkpt lat="45.054296040907502" lon="3.191755972802639">
        <ele>1026.8299999999999</ele>
        <time>2025-04-25T07:37:36Z</time>
      </trkpt>
      <trkpt lat="45.053792959079146" lon="3.19160501472652">
        <ele>1023.9400000000001</ele>
        <time>2025-04-25T07:37:39Z</time>
      </trkpt>
      <trkpt lat="45.053680976852775" lon="3.191531002521515">
        <ele>1022.5</ele>
        <time>2025-04-25T07:37:40Z</time>
      </trkpt>
      <trkpt lat="45.053600007668138" lon="3.191460007801652">
        <ele>1021.0599999999999</ele>
        <time>2025-04-25T07:37:41Z</time>
      </trkpt>
      <trkpt lat="45.053562959656119" lon="3.191322041675448">
        <ele>1020.1</ele>
        <time>2025-04-25T07:37:42Z</time>
      </trkpt>
      <trkpt lat="45.053537981584668" lon="3.191140992566943">
        <ele>1018.65</ele>
        <time>2025-04-25T07:37:43Z</time>
      </trkpt>
      <trkpt lat="45.053565977141261" lon="3.190959021449089">
        <ele>1017.6900000000001</ele>
        <time>2025-04-25T07:37:44Z</time>
      </trkpt>
      <trkpt lat="45.053595984354615" lon="3.190758023411036">
        <ele>1016.73</ele>
        <time>2025-04-25T07:37:45Z</time>
      </trkpt>
      <trkpt lat="45.053622974082828" lon="3.190559037029743">
        <ele>1016.25</ele>
        <time>2025-04-25T07:37:46Z</time>
      </trkpt>
      <trkpt lat="45.053622974082828" lon="3.190337000414729">
        <ele>1015.29</ele>
        <time>2025-04-25T07:37:47Z</time>
      </trkpt>
      <trkpt lat="45.053599001839757" lon="3.190127033740282">
        <ele>1014.33</ele>
        <time>2025-04-25T07:37:48Z</time>
      </trkpt>
      <trkpt lat="45.053523983806372" lon="3.189907008782029">
        <ele>1013.85</ele>
        <time>2025-04-25T07:37:49Z</time>
      </trkpt>
      <trkpt lat="45.053446032106876" lon="3.189679021015763">
        <ele>1012.89</ele>
        <time>2025-04-25T07:37:50Z</time>
      </trkpt>
      <trkpt lat="45.053284009918571" lon="3.18922396749258">
        <ele>1011.4400000000001</ele>
        <time>2025-04-25T07:37:52Z</time>
      </trkpt>
      <trkpt lat="45.053173033520579" lon="3.189035039395094">
        <ele>1010.96</ele>
        <time>2025-04-25T07:37:53Z</time>
      </trkpt>
      <trkpt lat="45.053059039637446" lon="3.188859019428492">
        <ele>1010</ele>
        <time>2025-04-25T07:37:54Z</time>
      </trkpt>
      <trkpt lat="45.052926018834114" lon="3.188715018332005">
        <ele>1009.04</ele>
        <time>2025-04-25T07:37:55Z</time>
      </trkpt>
      <trkpt lat="45.052770031616092" lon="3.188589960336685">
        <ele>1008.08</ele>
        <time>2025-04-25T07:37:56Z</time>
      </trkpt>
      <trkpt lat="45.05259501747787" lon="3.188529023900628">
        <ele>1007.12</ele>
        <time>2025-04-25T07:37:57Z</time>
      </trkpt>
      <trkpt lat="45.052417991682887" lon="3.188468003645539">
        <ele>1006.64</ele>
        <time>2025-04-25T07:37:58Z</time>
      </trkpt>
      <trkpt lat="45.05160796456039" lon="3.18810498341918">
        <ele>1001.83</ele>
        <time>2025-04-25T07:38:03Z</time>
      </trkpt>
      <trkpt lat="45.051497993990779" lon="3.187946984544396">
        <ele>1000.87</ele>
        <time>2025-04-25T07:38:04Z</time>
      </trkpt>
      <trkpt lat="45.050845965743065" lon="3.18640798330307">
        <ele>996.05999999999995</ele>
        <time>2025-04-25T07:38:11Z</time>
      </trkpt>
      <trkpt lat="45.05076901987195" lon="3.186163986101747">
        <ele>995.10000000000002</ele>
        <time>2025-04-25T07:38:12Z</time>
      </trkpt>
      <trkpt lat="45.050735995173454" lon="3.185943961143494">
        <ele>994.62</ele>
        <time>2025-04-25T07:38:13Z</time>
      </trkpt>
      <trkpt lat="45.050758039578795" lon="3.185708010569215">
        <ele>994.13999999999999</ele>
        <time>2025-04-25T07:38:14Z</time>
      </trkpt>
      <trkpt lat="45.050804978236556" lon="3.185479016974568">
        <ele>993.65999999999997</ele>
        <time>2025-04-25T07:38:15Z</time>
      </trkpt>
      <trkpt lat="45.050884019583464" lon="3.185251029208303">
        <ele>993.17999999999995</ele>
        <time>2025-04-25T07:38:16Z</time>
      </trkpt>
      <trkpt lat="45.05096398293972" lon="3.185019018128514">
        <ele>992.70000000000005</ele>
        <time>2025-04-25T07:38:17Z</time>
      </trkpt>
      <trkpt lat="45.051079988479614" lon="3.184821959584951">
        <ele>992.22000000000003</ele>
        <time>2025-04-25T07:38:18Z</time>
      </trkpt>
      <trkpt lat="45.051201023161411" lon="3.184645017609">
        <ele>991.25999999999999</ele>
        <time>2025-04-25T07:38:19Z</time>
      </trkpt>
      <trkpt lat="45.051338989287615" lon="3.184510990977287">
        <ele>990.77999999999997</ele>
        <time>2025-04-25T07:38:20Z</time>
      </trkpt>
      <trkpt lat="45.051483996212482" lon="3.184427004307509">
        <ele>990.29999999999995</ele>
        <time>2025-04-25T07:38:21Z</time>
      </trkpt>
      <trkpt lat="45.051631014794111" lon="3.184341005980969">
        <ele>989.80999999999995</ele>
        <time>2025-04-25T07:38:22Z</time>
      </trkpt>
      <trkpt lat="45.051747020334005" lon="3.184231035411358">
        <ele>989.33000000000004</ele>
        <time>2025-04-25T07:38:23Z</time>
      </trkpt>
      <trkpt lat="45.051838969811797" lon="3.184061972424388">
        <ele>988.85000000000002</ele>
        <time>2025-04-25T07:38:24Z</time>
      </trkpt>
      <trkpt lat="45.051880963146687" lon="3.183857034891844">
        <ele>987.88999999999999</ele>
        <time>2025-04-25T07:38:25Z</time>
      </trkpt>
      <trkpt lat="45.051925973966718" lon="3.183642961084843">
        <ele>986.92999999999995</ele>
        <time>2025-04-25T07:38:26Z</time>
      </trkpt>
      <trkpt lat="45.052023036405444" lon="3.183174999430776">
        <ele>985.49000000000001</ele>
        <time>2025-04-25T07:38:28Z</time>
      </trkpt>
      <trkpt lat="45.052107023075223" lon="3.182961009442806">
        <ele>984.52999999999997</ele>
        <time>2025-04-25T07:38:29Z</time>
      </trkpt>
      <trkpt lat="45.052209030836821" lon="3.182738972827792">
        <ele>983.57000000000005</ele>
        <time>2025-04-25T07:38:30Z</time>
      </trkpt>
      <trkpt lat="45.052320007234812" lon="3.182534035295248">
        <ele>983.09000000000003</ele>
        <time>2025-04-25T07:38:31Z</time>
      </trkpt>
      <trkpt lat="45.052455039694905" lon="3.18234502337873">
        <ele>982.12</ele>
        <time>2025-04-25T07:38:32Z</time>
      </trkpt>
      <trkpt lat="45.052584037184715" lon="3.182163974270225">
        <ele>981.63999999999999</ele>
        <time>2025-04-25T07:38:33Z</time>
      </trkpt>
      <trkpt lat="45.052712028846145" lon="3.181996000930667">
        <ele>980.67999999999995</ele>
        <time>2025-04-25T07:38:34Z</time>
      </trkpt>
      <trkpt lat="45.052871033549309" lon="3.18191603757441">
        <ele>980.20000000000005</ele>
        <time>2025-04-25T07:38:35Z</time>
      </trkpt>
      <trkpt lat="45.053029032424092" lon="3.181836996227503">
        <ele>979.24000000000001</ele>
        <time>2025-04-25T07:38:36Z</time>
      </trkpt>
      <trkpt lat="45.053195999935269" lon="3.181826015934348">
        <ele>978.27999999999997</ele>
        <time>2025-04-25T07:38:37Z</time>
      </trkpt>
      <trkpt lat="45.053360033780336" lon="3.181863985955715">
        <ele>977.32000000000005</ele>
        <time>2025-04-25T07:38:38Z</time>
      </trkpt>
      <trkpt lat="45.05349799990654" lon="3.181974040344358">
        <ele>976.84000000000003</ele>
        <time>2025-04-25T07:38:39Z</time>
      </trkpt>
      <trkpt lat="45.053638983517885" lon="3.18208702839911">
        <ele>975.88</ele>
        <time>2025-04-25T07:38:40Z</time>
      </trkpt>
      <trkpt lat="45.053794970735908" lon="3.182221977040172">
        <ele>974.90999999999997</ele>
        <time>2025-04-25T07:38:41Z</time>
      </trkpt>
      <trkpt lat="45.053926985710859" lon="3.182393973693252">
        <ele>973.95000000000005</ele>
        <time>2025-04-25T07:38:42Z</time>
      </trkpt>
      <trkpt lat="45.054052965715528" lon="3.182584997266531">
        <ele>972.99000000000001</ele>
        <time>2025-04-25T07:38:43Z</time>
      </trkpt>
      <trkpt lat="45.054251030087471" lon="3.182923961430788">
        <ele>970.59000000000003</ele>
        <time>2025-04-25T07:38:45Z</time>
      </trkpt>
      <trkpt lat="45.054322024807334" lon="3.183000991120935">
        <ele>969.63</ele>
        <time>2025-04-25T07:38:46Z</time>
      </trkpt>
      <trkpt lat="45.054425960406661" lon="3.183039966970682">
        <ele>968.66999999999996</ele>
        <time>2025-04-25T07:38:47Z</time>
      </trkpt>
      <trkpt lat="45.054511958733201" lon="3.183000991120935">
        <ele>967.22000000000003</ele>
        <time>2025-04-25T07:38:48Z</time>
      </trkpt>
      <trkpt lat="45.054612960666418" lon="3.182899989187717">
        <ele>966.25999999999999</ele>
        <time>2025-04-25T07:38:49Z</time>
      </trkpt>
      <trkpt lat="45.054657971486449" lon="3.182756993919611">
        <ele>965.29999999999995</ele>
        <time>2025-04-25T07:38:50Z</time>
      </trkpt>
      <trkpt lat="45.054696025326848" lon="3.182578040286899">
        <ele>964.82000000000005</ele>
        <time>2025-04-25T07:38:51Z</time>
      </trkpt>
      <trkpt lat="45.054696025326848" lon="3.18236798979342">
        <ele>963.86000000000001</ele>
        <time>2025-04-25T07:38:52Z</time>
      </trkpt>
      <trkpt lat="45.054678004235029" lon="3.182142013683915">
        <ele>962.89999999999998</ele>
        <time>2025-04-25T07:38:53Z</time>
      </trkpt>
      <trkpt lat="45.054645985364914" lon="3.181898016482592">
        <ele>961.94000000000005</ele>
        <time>2025-04-25T07:38:54Z</time>
      </trkpt>
      <trkpt lat="45.054596029222012" lon="3.181660976260901">
        <ele>961.46000000000004</ele>
        <time>2025-04-25T07:38:55Z</time>
      </trkpt>
      <trkpt lat="45.0545309856534" lon="3.181428965181112">
        <ele>960.49000000000001</ele>
        <time>2025-04-25T07:38:56Z</time>
      </trkpt>
      <trkpt lat="45.05446401424706" lon="3.181191002950072">
        <ele>960.00999999999999</ele>
        <time>2025-04-25T07:38:57Z</time>
      </trkpt>
      <trkpt lat="45.054262010380626" lon="3.180780960246921">
        <ele>958.57000000000005</ele>
        <time>2025-04-25T07:38:59Z</time>
      </trkpt>
      <trkpt lat="45.054137036204338" lon="3.180614998564124">
        <ele>957.61000000000001</ele>
        <time>2025-04-25T07:39:00Z</time>
      </trkpt>
      <trkpt lat="45.053758006542921" lon="3.180186012759805">
        <ele>955.69000000000005</ele>
        <time>2025-04-25T07:39:03Z</time>
      </trkpt>
      <trkpt lat="45.053533958271146" lon="3.179932963103056">
        <ele>954.25</ele>
        <time>2025-04-25T07:39:05Z</time>
      </trkpt>
      <trkpt lat="45.053444020450115" lon="3.17983003333211">
        <ele>953.76999999999998</ele>
        <time>2025-04-25T07:39:06Z</time>
      </trkpt>
      <trkpt lat="45.053374031558633" lon="3.179720984771848">
        <ele>952.79999999999995</ele>
        <time>2025-04-25T07:39:07Z</time>
      </trkpt>
      <trkpt lat="45.053332038223743" lon="3.179586958140135">
        <ele>951.36000000000001</ele>
        <time>2025-04-25T07:39:08Z</time>
      </trkpt>
      <trkpt lat="45.053301025182009" lon="3.179404987022281">
        <ele>949.91999999999996</ele>
        <time>2025-04-25T07:39:09Z</time>
      </trkpt>
      <trkpt lat="45.05334704183042" lon="3.179236007854343">
        <ele>948.48000000000002</ele>
        <time>2025-04-25T07:39:10Z</time>
      </trkpt>
      <trkpt lat="45.053401021286845" lon="3.179038027301431">
        <ele>947.51999999999998</ele>
        <time>2025-04-25T07:39:11Z</time>
      </trkpt>
      <trkpt lat="45.053473021835089" lon="3.178829988464713">
        <ele>946.55999999999995</ele>
        <time>2025-04-25T07:39:12Z</time>
      </trkpt>
      <trkpt lat="45.053556002676487" lon="3.178627984598279">
        <ele>945.59000000000003</ele>
        <time>2025-04-25T07:39:13Z</time>
      </trkpt>
      <trkpt lat="45.054248012602329" lon="3.177110021933913">
        <ele>941.75</ele>
        <time>2025-04-25T07:39:20Z</time>
      </trkpt>
      <trkpt lat="45.054995007812977" lon="3.175674034282565">
        <ele>938.38</ele>
        <time>2025-04-25T07:39:27Z</time>
      </trkpt>
      <trkpt lat="45.055052004754543" lon="3.175467001274228">
        <ele>937.41999999999996</ele>
        <time>2025-04-25T07:39:28Z</time>
      </trkpt>
      <trkpt lat="45.055043958127499" lon="3.175254017114639">
        <ele>936.46000000000004</ele>
        <time>2025-04-25T07:39:29Z</time>
      </trkpt>
      <trkpt lat="45.05502300336957" lon="3.175022006034851">
        <ele>935.98000000000002</ele>
        <time>2025-04-25T07:39:30Z</time>
      </trkpt>
      <trkpt lat="45.054948991164565" lon="3.174806004390121">
        <ele>935.01999999999998</ele>
        <time>2025-04-25T07:39:31Z</time>
      </trkpt>
      <trkpt lat="45.054859975352883" lon="3.174604000523686">
        <ele>934.05999999999995</ele>
        <time>2025-04-25T07:39:32Z</time>
      </trkpt>
      <trkpt lat="45.054782023653388" lon="3.174426974728704">
        <ele>933.58000000000004</ele>
        <time>2025-04-25T07:39:33Z</time>
      </trkpt>
      <trkpt lat="45.054631987586617" lon="3.174318009987474">
        <ele>932.62</ele>
        <time>2025-04-25T07:39:34Z</time>
      </trkpt>
      <trkpt lat="45.054501984268427" lon="3.174251038581133">
        <ele>932.13999999999999</ele>
        <time>2025-04-25T07:39:35Z</time>
      </trkpt>
      <trkpt lat="45.054345997050405" lon="3.174237962812185">
        <ele>931.16999999999996</ele>
        <time>2025-04-25T07:39:36Z</time>
      </trkpt>
      <trkpt lat="45.054179029539227" lon="3.174262018874288">
        <ele>930.21000000000004</ele>
        <time>2025-04-25T07:39:37Z</time>
      </trkpt>
      <trkpt lat="45.053999992087483" lon="3.174312980845571">
        <ele>929.25</ele>
        <time>2025-04-25T07:39:38Z</time>
      </trkpt>
      <trkpt lat="45.053630014881492" lon="3.174396967515349">
        <ele>926.85000000000002</ele>
        <time>2025-04-25T07:39:40Z</time>
      </trkpt>
      <trkpt lat="45.053441002964973" lon="3.17441800609231">
        <ele>925.88999999999999</ele>
        <time>2025-04-25T07:39:41Z</time>
      </trkpt>
      <trkpt lat="45.053246961906552" lon="3.174409959465265">
        <ele>924.92999999999995</ele>
        <time>2025-04-25T07:39:42Z</time>
      </trkpt>
      <trkpt lat="45.053072031587362" lon="3.174313986673951">
        <ele>923.48000000000002</ele>
        <time>2025-04-25T07:39:43Z</time>
      </trkpt>
      <trkpt lat="45.052912021055818" lon="3.174213990569115">
        <ele>922.51999999999998</ele>
        <time>2025-04-25T07:39:44Z</time>
      </trkpt>
      <trkpt lat="45.052747987210751" lon="3.174137966707349">
        <ele>921.08000000000004</ele>
        <time>2025-04-25T07:39:45Z</time>
      </trkpt>
      <trkpt lat="45.052570961415768" lon="3.174110976979137">
        <ele>919.63999999999999</ele>
        <time>2025-04-25T07:39:46Z</time>
      </trkpt>
      <trkpt lat="45.052392007783055" lon="3.174134027212858">
        <ele>918.20000000000005</ele>
        <time>2025-04-25T07:39:47Z</time>
      </trkpt>
      <trkpt lat="45.05221095867455" lon="3.174177026376128">
        <ele>916.75</ele>
        <time>2025-04-25T07:39:48Z</time>
      </trkpt>
      <trkpt lat="45.05203896202147" lon="3.174251038581133">
        <ele>914.83000000000004</ele>
        <time>2025-04-25T07:39:49Z</time>
      </trkpt>
      <trkpt lat="45.051563959568739" lon="3.174455976113677">
        <ele>910.99000000000001</ele>
        <time>2025-04-25T07:39:52Z</time>
      </trkpt>
      <trkpt lat="45.051425993442535" lon="3.174509033560753">
        <ele>910.02999999999997</ele>
        <time>2025-04-25T07:39:53Z</time>
      </trkpt>
      <trkpt lat="45.051314011216164" lon="3.174467040225864">
        <ele>909.05999999999995</ele>
        <time>2025-04-25T07:39:54Z</time>
      </trkpt>
      <trkpt lat="45.051214015111327" lon="3.17437500692904">
        <ele>908.10000000000002</ele>
        <time>2025-04-25T07:39:55Z</time>
      </trkpt>
      <trkpt lat="45.051143020391464" lon="3.17422597669065">
        <ele>907.62</ele>
        <time>2025-04-25T07:39:56Z</time>
      </trkpt>
      <trkpt lat="45.051078982651234" lon="3.174047023057938">
        <ele>907.13999999999999</ele>
        <time>2025-04-25T07:39:57Z</time>
      </trkpt>
      <trkpt lat="45.051008993759751" lon="3.173850970342755">
        <ele>906.17999999999995</ele>
        <time>2025-04-25T07:39:58Z</time>
      </trkpt>
      <trkpt lat="45.050921989604831" lon="3.173393988981843">
        <ele>905.22000000000003</ele>
        <time>2025-04-25T07:40:00Z</time>
      </trkpt>
      <trkpt lat="45.050904974341393" lon="3.173144962638617">
        <ele>904.25999999999999</ele>
        <time>2025-04-25T07:40:01Z</time>
      </trkpt>
      <trkpt lat="45.05092098377645" lon="3.172894008457661">
        <ele>903.77999999999997</ele>
        <time>2025-04-25T07:40:02Z</time>
      </trkpt>
      <trkpt lat="45.050936993211508" lon="3.172644982114434">
        <ele>903.29999999999995</ele>
        <time>2025-04-25T07:40:03Z</time>
      </trkpt>
      <trkpt lat="45.050973035395145" lon="3.17239897325635">
        <ele>902.82000000000005</ele>
        <time>2025-04-25T07:40:04Z</time>
      </trkpt>
      <trkpt lat="45.051016034558415" lon="3.17216201685369">
        <ele>901.85000000000002</ele>
        <time>2025-04-25T07:40:05Z</time>
      </trkpt>
      <trkpt lat="45.051050987094641" lon="3.171934029087424">
        <ele>900.40999999999997</ele>
        <time>2025-04-25T07:40:06Z</time>
      </trkpt>
      <trkpt lat="45.051063979044557" lon="3.171706041321158">
        <ele>899.45000000000005</ele>
        <time>2025-04-25T07:40:07Z</time>
      </trkpt>
      <trkpt lat="45.051036989316344" lon="3.171490961685777">
        <ele>898.49000000000001</ele>
        <time>2025-04-25T07:40:08Z</time>
      </trkpt>
      <trkpt lat="45.050979992374778" lon="3.171272026374936">
        <ele>897.52999999999997</ele>
        <time>2025-04-25T07:40:09Z</time>
      </trkpt>
      <trkpt lat="45.050893994048238" lon="3.171050995588303">
        <ele>897.04999999999995</ele>
        <time>2025-04-25T07:40:10Z</time>
      </trkpt>
      <trkpt lat="45.050767008215189" lon="3.170855026692152">
        <ele>896.09000000000003</ele>
        <time>2025-04-25T07:40:11Z</time>
      </trkpt>
      <trkpt lat="45.050638010725379" lon="3.170657968148589">
        <ele>895.12</ele>
        <time>2025-04-25T07:40:12Z</time>
      </trkpt>
      <trkpt lat="45.049686999991536" lon="3.169200019910932">
        <ele>886.47000000000003</ele>
        <time>2025-04-25T07:40:20Z</time>
      </trkpt>
      <trkpt lat="45.049626985564828" lon="3.169005978852511">
        <ele>885.99000000000001</ele>
        <time>2025-04-25T07:40:21Z</time>
      </trkpt>
      <trkpt lat="45.049589015543461" lon="3.168804980814457">
        <ele>885.02999999999997</ele>
        <time>2025-04-25T07:40:22Z</time>
      </trkpt>
      <trkpt lat="45.049604019150138" lon="3.168602976948023">
        <ele>884.07000000000005</ele>
        <time>2025-04-25T07:40:23Z</time>
      </trkpt>
      <trkpt lat="45.049626985564828" lon="3.168384963646531">
        <ele>883.11000000000001</ele>
        <time>2025-04-25T07:40:24Z</time>
      </trkpt>
      <trkpt lat="45.049655986949801" lon="3.168168039992452">
        <ele>882.63</ele>
        <time>2025-04-25T07:40:25Z</time>
      </trkpt>
      <trkpt lat="45.0497389677912" lon="3.167538978159428">
        <ele>880.71000000000004</ele>
        <time>2025-04-25T07:40:28Z</time>
      </trkpt>
      <trkpt lat="45.049699991941452" lon="3.167339991778135">
        <ele>879.74000000000001</ele>
        <time>2025-04-25T07:40:29Z</time>
      </trkpt>
      <trkpt lat="45.049659004434943" lon="3.167133964598179">
        <ele>879.74000000000001</ele>
        <time>2025-04-25T07:40:30Z</time>
      </trkpt>
      <trkpt lat="45.049599995836616" lon="3.166942019015551">
        <ele>878.77999999999997</ele>
        <time>2025-04-25T07:40:31Z</time>
      </trkpt>
      <trkpt lat="45.049509974196553" lon="3.166774967685342">
        <ele>878.29999999999995</ele>
        <time>2025-04-25T07:40:32Z</time>
      </trkpt>
      <trkpt lat="45.049396986141801" lon="3.166630966588855">
        <ele>877.82000000000005</ele>
        <time>2025-04-25T07:40:33Z</time>
      </trkpt>
      <trkpt lat="45.049275029450655" lon="3.166497023776174">
        <ele>876.86000000000001</ele>
        <time>2025-04-25T07:40:34Z</time>
      </trkpt>
      <trkpt lat="45.048954002559185" lon="3.166068959981203">
        <ele>874.46000000000004</ele>
        <time>2025-04-25T07:40:37Z</time>
      </trkpt>
      <trkpt lat="45.048873033374548" lon="3.165897969156504">
        <ele>873.98000000000002</ele>
        <time>2025-04-25T07:40:38Z</time>
      </trkpt>
      <trkpt lat="45.04879298619926" lon="3.165720021352172">
        <ele>873.00999999999999</ele>
        <time>2025-04-25T07:40:39Z</time>
      </trkpt>
      <trkpt lat="45.048763984814286" lon="3.165509970858693">
        <ele>872.52999999999997</ele>
        <time>2025-04-25T07:40:40Z</time>
      </trkpt>
      <trkpt lat="45.048733977600932" lon="3.165293969213963">
        <ele>872.04999999999995</ele>
        <time>2025-04-25T07:40:41Z</time>
      </trkpt>
      <trkpt lat="45.048702964559197" lon="3.165075033903122">
        <ele>871.09000000000003</ele>
        <time>2025-04-25T07:40:42Z</time>
      </trkpt>
      <trkpt lat="45.048673963174224" lon="3.164860038086772">
        <ele>870.61000000000001</ele>
        <time>2025-04-25T07:40:43Z</time>
      </trkpt>
      <trkpt lat="45.048584025353193" lon="3.164217984303832">
        <ele>868.69000000000005</ele>
        <time>2025-04-25T07:40:46Z</time>
      </trkpt>
      <trkpt lat="45.04851202480495" lon="3.164027966558933">
        <ele>868.21000000000004</ele>
        <time>2025-04-25T07:40:47Z</time>
      </trkpt>
      <trkpt lat="45.048433989286423" lon="3.163843983784318">
        <ele>867.25</ele>
        <time>2025-04-25T07:40:48Z</time>
      </trkpt>
      <trkpt lat="45.048355031758547" lon="3.1636549718678">
        <ele>866.76999999999998</ele>
        <time>2025-04-25T07:40:49Z</time>
      </trkpt>
      <trkpt lat="45.048272972926497" lon="3.16346000880003">
        <ele>865.79999999999995</ele>
        <time>2025-04-25T07:40:50Z</time>
      </trkpt>
      <trkpt lat="45.04816803149879" lon="3.163286000490189">
        <ele>864.84000000000003</ele>
        <time>2025-04-25T07:40:51Z</time>
      </trkpt>
      <trkpt lat="45.048040961846709" lon="3.163120038807392">
        <ele>864.36000000000001</ele>
        <time>2025-04-25T07:40:52Z</time>
      </trkpt>
      <trkpt lat="45.047906013205647" lon="3.16294502466917">
        <ele>863.39999999999998</ele>
        <time>2025-04-25T07:40:53Z</time>
      </trkpt>
      <trkpt lat="45.04776100628078" lon="3.162771016359329">
        <ele>862.44000000000005</ele>
        <time>2025-04-25T07:40:54Z</time>
      </trkpt>
      <trkpt lat="45.047134039923549" lon="3.162143966183066">
        <ele>858.59000000000003</ele>
        <time>2025-04-25T07:40:58Z</time>
      </trkpt>
      <trkpt lat="45.046366006135941" lon="3.161016013473272">
        <ele>852.83000000000004</ele>
        <time>2025-04-25T07:41:05Z</time>
      </trkpt>
      <trkpt lat="45.046176994219422" lon="3.16062499769032">
        <ele>850.41999999999996</ele>
        <time>2025-04-25T07:41:09Z</time>
      </trkpt>
      <trkpt lat="45.046158973127604" lon="3.160580992698669">
        <ele>849.94000000000005</ele>
        <time>2025-04-25T07:41:10Z</time>
      </trkpt>
      <trkpt lat="45.046109016984701" lon="3.160623991861939">
        <ele>849.94000000000005</ele>
        <time>2025-04-25T07:41:11Z</time>
      </trkpt>
      <trkpt lat="45.046098958700895" lon="3.160665985196829">
        <ele>849.46000000000004</ele>
        <time>2025-04-25T07:41:12Z</time>
      </trkpt>
      <trkpt lat="45.046082027256489" lon="3.160730022937059">
        <ele>848.98000000000002</ele>
        <time>2025-04-25T07:41:13Z</time>
      </trkpt>
      <trkpt lat="45.046067023649812" lon="3.160808980464935">
        <ele>848.5</ele>
        <time>2025-04-25T07:41:14Z</time>
      </trkpt>
      <trkpt lat="45.046054031699896" lon="3.160923980176449">
        <ele>848.01999999999998</ele>
        <time>2025-04-25T07:41:15Z</time>
      </trkpt>
      <trkpt lat="45.045961998403072" lon="3.161595035344362">
        <ele>847.05999999999995</ele>
        <time>2025-04-25T07:41:19Z</time>
      </trkpt>
      <trkpt lat="45.045900978147984" lon="3.161766026169062">
        <ele>846.58000000000004</ele>
        <time>2025-04-25T07:41:20Z</time>
      </trkpt>
      <trkpt lat="45.045821014791727" lon="3.161931987851858">
        <ele>847.05999999999995</ele>
        <time>2025-04-25T07:41:21Z</time>
      </trkpt>
      <trkpt lat="45.045707020908594" lon="3.162053022533655">
        <ele>847.53999999999996</ele>
        <time>2025-04-25T07:41:22Z</time>
      </trkpt>
      <trkpt lat="45.045587997883558" lon="3.162177996709943">
        <ele>848.5</ele>
        <time>2025-04-25T07:41:23Z</time>
      </trkpt>
      <trkpt lat="45.045456988736987" lon="3.162303976714611">
        <ele>849.46000000000004</ele>
        <time>2025-04-25T07:41:24Z</time>
      </trkpt>
      <trkpt lat="45.045308964326978" lon="3.162402966991067">
        <ele>850.41999999999996</ele>
        <time>2025-04-25T07:41:25Z</time>
      </trkpt>
      <trkpt lat="45.044147986918688" lon="3.163177035748959">
        <ele>860.03999999999996</ele>
        <time>2025-04-25T07:41:32Z</time>
      </trkpt>
      <trkpt lat="45.043825032189488" lon="3.163351966068149">
        <ele>861.96000000000004</ele>
        <time>2025-04-25T07:41:34Z</time>
      </trkpt>
      <trkpt lat="45.042542014271021" lon="3.164010029286146">
        <ele>862.91999999999996</ele>
        <time>2025-04-25T07:41:41Z</time>
      </trkpt>
      <trkpt lat="45.041021034121513" lon="3.165061958134174">
        <ele>859.55999999999995</ele>
        <time>2025-04-25T07:41:49Z</time>
      </trkpt>
      <trkpt lat="45.039978995919228" lon="3.166365008801222">
        <ele>854.75</ele>
        <time>2025-04-25T07:41:56Z</time>
      </trkpt>
      <trkpt lat="45.038514006882906" lon="3.168283039703965">
        <ele>843.21000000000004</ele>
        <time>2025-04-25T07:42:05Z</time>
      </trkpt>
      <trkpt lat="45.037685036659241" lon="3.169216029345989">
        <ele>836</ele>
        <time>2025-04-25T07:42:10Z</time>
      </trkpt>
      <trkpt lat="45.03755402751267" lon="3.16941199824214">
        <ele>834.55999999999995</ele>
        <time>2025-04-25T07:42:11Z</time>
      </trkpt>
      <trkpt lat="45.037446990609169" lon="3.16962699405849">
        <ele>833.60000000000002</ele>
        <time>2025-04-25T07:42:12Z</time>
      </trkpt>
      <trkpt lat="45.037364009767771" lon="3.169861016795039">
        <ele>832.63999999999999</ele>
        <time>2025-04-25T07:42:13Z</time>
      </trkpt>
      <trkpt lat="45.037323022261262" lon="3.170133009552956">
        <ele>831.67999999999995</ele>
        <time>2025-04-25T07:42:14Z</time>
      </trkpt>
      <trkpt lat="45.037284968420863" lon="3.170409025624394">
        <ele>831.67999999999995</ele>
        <time>2025-04-25T07:42:15Z</time>
      </trkpt>
      <trkpt lat="45.037159994244576" lon="3.171163983643055">
        <ele>831.20000000000005</ele>
        <time>2025-04-25T07:42:18Z</time>
      </trkpt>
      <trkpt lat="45.037072990089655" lon="3.171383002772927">
        <ele>831.20000000000005</ele>
        <time>2025-04-25T07:42:19Z</time>
      </trkpt>
      <trkpt lat="45.036951033398509" lon="3.171550976112485">
        <ele>831.20000000000005</ele>
        <time>2025-04-25T07:42:20Z</time>
      </trkpt>
      <trkpt lat="45.036802003160119" lon="3.171675028279424">
        <ele>831.20000000000005</ele>
        <time>2025-04-25T07:42:21Z</time>
      </trkpt>
      <trkpt lat="45.03665397875011" lon="3.171798996627331">
        <ele>831.20000000000005</ele>
        <time>2025-04-25T07:42:22Z</time>
      </trkpt>
      <trkpt lat="45.036233039572835" lon="3.172241980209947">
        <ele>830.72000000000003</ele>
        <time>2025-04-25T07:42:25Z</time>
      </trkpt>
      <trkpt lat="45.036150980740786" lon="3.172460999339819">
        <ele>830.24000000000001</ele>
        <time>2025-04-25T07:42:26Z</time>
      </trkpt>
      <trkpt lat="45.03581796772778" lon="3.173348978161812">
        <ele>830.72000000000003</ele>
        <time>2025-04-25T07:42:30Z</time>
      </trkpt>
      <trkpt lat="45.035716965794563" lon="3.173534972593188">
        <ele>830.72000000000003</ele>
        <time>2025-04-25T07:42:31Z</time>
      </trkpt>
      <trkpt lat="45.035588974133134" lon="3.173676962032914">
        <ele>831.20000000000005</ele>
        <time>2025-04-25T07:42:32Z</time>
      </trkpt>
      <trkpt lat="45.035439021885395" lon="3.173743011429906">
        <ele>831.67999999999995</ele>
        <time>2025-04-25T07:42:33Z</time>
      </trkpt>
      <trkpt lat="45.035288985818624" lon="3.173802020028234">
        <ele>832.15999999999997</ele>
        <time>2025-04-25T07:42:34Z</time>
      </trkpt>
      <trkpt lat="45.035126963630319" lon="3.173754997551441">
        <ele>833.12</ele>
        <time>2025-04-25T07:42:35Z</time>
      </trkpt>
      <trkpt lat="45.03495798446238" lon="3.173706969246268">
        <ele>834.08000000000004</ele>
        <time>2025-04-25T07:42:36Z</time>
      </trkpt>
      <trkpt lat="45.034797973930836" lon="3.173661036416888">
        <ele>835.03999999999996</ele>
        <time>2025-04-25T07:42:37Z</time>
      </trkpt>
      <trkpt lat="45.034640980884433" lon="3.173635974526405">
        <ele>836</ele>
        <time>2025-04-25T07:42:38Z</time>
      </trkpt>
      <trkpt lat="45.034482982009649" lon="3.173646032810211">
        <ele>836.96000000000004</ele>
        <time>2025-04-25T07:42:39Z</time>
      </trkpt>
      <trkpt lat="45.034308973699808" lon="3.173676040023565">
        <ele>837.92999999999995</ele>
        <time>2025-04-25T07:42:40Z</time>
      </trkpt>
      <trkpt lat="45.03413999453187" lon="3.173761032521725">
        <ele>838.88999999999999</ele>
        <time>2025-04-25T07:42:41Z</time>
      </trkpt>
      <trkpt lat="45.033995993435383" lon="3.173905033618212">
        <ele>840.33000000000004</ele>
        <time>2025-04-25T07:42:42Z</time>
      </trkpt>
      <trkpt lat="45.033866995945573" lon="3.174078958109021">
        <ele>841.28999999999996</ele>
        <time>2025-04-25T07:42:43Z</time>
      </trkpt>
      <trkpt lat="45.033759037032723" lon="3.174250032752752">
        <ele>842.73000000000002</ele>
        <time>2025-04-25T07:42:44Z</time>
      </trkpt>
      <trkpt lat="45.033660968765616" lon="3.174403002485633">
        <ele>843.69000000000005</ele>
        <time>2025-04-25T07:42:45Z</time>
      </trkpt>
      <trkpt lat="45.033578993752599" lon="3.174571981653571">
        <ele>844.65999999999997</ele>
        <time>2025-04-25T07:42:46Z</time>
      </trkpt>
      <trkpt lat="45.033399034291506" lon="3.174964003264904">
        <ele>846.10000000000002</ele>
        <time>2025-04-25T07:42:48Z</time>
      </trkpt>
      <trkpt lat="45.033297026529908" lon="3.175186039879918">
        <ele>846.58000000000004</ele>
        <time>2025-04-25T07:42:49Z</time>
      </trkpt>
      <trkpt lat="45.033149002119899" lon="3.175369016826153">
        <ele>846.58000000000004</ele>
        <time>2025-04-25T07:42:50Z</time>
      </trkpt>
      <trkpt lat="45.032732002437115" lon="3.175853993743658">
        <ele>846.58000000000004</ele>
        <time>2025-04-25T07:42:53Z</time>
      </trkpt>
      <trkpt lat="45.032633012160659" lon="3.176014004275203">
        <ele>846.10000000000002</ele>
        <time>2025-04-25T07:42:54Z</time>
      </trkpt>
      <trkpt lat="45.032538967207074" lon="3.176179965957999">
        <ele>846.10000000000002</ele>
        <time>2025-04-25T07:42:55Z</time>
      </trkpt>
      <trkpt lat="45.032470989972353" lon="3.176384987309575">
        <ele>845.62</ele>
        <time>2025-04-25T07:42:56Z</time>
      </trkpt>
      <trkpt lat="45.032388009130955" lon="3.176606018096209">
        <ele>845.13999999999999</ele>
        <time>2025-04-25T07:42:57Z</time>
      </trkpt>
      <trkpt lat="45.03190697170794" lon="3.177935974672437">
        <ele>840.33000000000004</ele>
        <time>2025-04-25T07:43:03Z</time>
      </trkpt>
      <trkpt lat="45.031881993636489" lon="3.17813596688211">
        <ele>839.37</ele>
        <time>2025-04-25T07:43:04Z</time>
      </trkpt>
      <trkpt lat="45.031892973929644" lon="3.178325984627008">
        <ele>838.88999999999999</ele>
        <time>2025-04-25T07:43:05Z</time>
      </trkpt>
      <trkpt lat="45.031962962821126" lon="3.17847702652216">
        <ele>837.92999999999995</ele>
        <time>2025-04-25T07:43:06Z</time>
      </trkpt>
      <trkpt lat="45.032043009996414" lon="3.178623961284757">
        <ele>837.45000000000005</ele>
        <time>2025-04-25T07:43:07Z</time>
      </trkpt>
      <trkpt lat="45.032157003879547" lon="3.178766034543514">
        <ele>837.45000000000005</ele>
        <time>2025-04-25T07:43:08Z</time>
      </trkpt>
      <trkpt lat="45.032413993030787" lon="3.179086977615953">
        <ele>836.96000000000004</ele>
        <time>2025-04-25T07:43:10Z</time>
      </trkpt>
      <trkpt lat="45.032520024105906" lon="3.179298033937812">
        <ele>836.48000000000002</ele>
        <time>2025-04-25T07:43:11Z</time>
      </trkpt>
      <trkpt lat="45.032608034089208" lon="3.179543036967516">
        <ele>836.48000000000002</ele>
        <time>2025-04-25T07:43:12Z</time>
      </trkpt>
      <trkpt lat="45.032655978575349" lon="3.179814023897052">
        <ele>836.48000000000002</ele>
        <time>2025-04-25T07:43:13Z</time>
      </trkpt>
      <trkpt lat="45.032703001052141" lon="3.180082999169827">
        <ele>836.48000000000002</ele>
        <time>2025-04-25T07:43:14Z</time>
      </trkpt>
      <trkpt lat="45.033043976873159" lon="3.182014022022486">
        <ele>842.25</ele>
        <time>2025-04-25T07:43:21Z</time>
      </trkpt>
      <trkpt lat="45.033057974651456" lon="3.182249972596765">
        <ele>843.21000000000004</ele>
        <time>2025-04-25T07:43:22Z</time>
      </trkpt>
      <trkpt lat="45.033058980479836" lon="3.182476032525301">
        <ele>844.65999999999997</ele>
        <time>2025-04-25T07:43:23Z</time>
      </trkpt>
      <trkpt lat="45.033037019893527" lon="3.182679964229465">
        <ele>845.62</ele>
        <time>2025-04-25T07:43:24Z</time>
      </trkpt>
      <trkpt lat="45.033024027943611" lon="3.182794963940978">
        <ele>847.05999999999995</ele>
        <time>2025-04-25T07:43:25Z</time>
      </trkpt>
      <trkpt lat="45.032942974939942" lon="3.183023035526276">
        <ele>848.01999999999998</ele>
        <time>2025-04-25T07:43:26Z</time>
      </trkpt>
      <trkpt lat="45.032874997705221" lon="3.183167036622763">
        <ele>848.98000000000002</ele>
        <time>2025-04-25T07:43:27Z</time>
      </trkpt>
      <trkpt lat="45.032795034348965" lon="3.183309026062489">
        <ele>849.94000000000005</ele>
        <time>2025-04-25T07:43:28Z</time>
      </trkpt>
      <trkpt lat="45.032711969688535" lon="3.183453027158976">
        <ele>850.89999999999998</ele>
        <time>2025-04-25T07:43:29Z</time>
      </trkpt>
      <trkpt lat="45.032612979412079" lon="3.183580012992024">
        <ele>851.87</ele>
        <time>2025-04-25T07:43:30Z</time>
      </trkpt>
      <trkpt lat="45.032504014670849" lon="3.1836589705199">
        <ele>851.87</ele>
        <time>2025-04-25T07:43:31Z</time>
      </trkpt>
      <trkpt lat="45.032387003302574" lon="3.18374396301806">
        <ele>852.35000000000002</ele>
        <time>2025-04-25T07:43:32Z</time>
      </trkpt>
      <trkpt lat="45.032187011092901" lon="3.183888969942927">
        <ele>851.87</ele>
        <time>2025-04-25T07:43:33Z</time>
      </trkpt>
      <trkpt lat="45.032091960310936" lon="3.183903973549604">
        <ele>851.38</ele>
        <time>2025-04-25T07:43:34Z</time>
      </trkpt>
      <trkpt lat="45.030597969889641" lon="3.184127015992999">
        <ele>845.13999999999999</ele>
        <time>2025-04-25T07:43:43Z</time>
      </trkpt>
      <trkpt lat="45.030266968533397" lon="3.184175966307521">
        <ele>843.21000000000004</ele>
        <time>2025-04-25T07:43:45Z</time>
      </trkpt>
      <trkpt lat="45.030105030164123" lon="3.184200022369623">
        <ele>841.76999999999998</ele>
        <time>2025-04-25T07:43:46Z</time>
      </trkpt>
      <trkpt lat="45.029506981372833" lon="3.184353997930884">
        <ele>836.96000000000004</ele>
        <time>2025-04-25T07:43:50Z</time>
      </trkpt>
      <trkpt lat="45.02937002107501" lon="3.184435972943902">
        <ele>836</ele>
        <time>2025-04-25T07:43:51Z</time>
      </trkpt>
      <trkpt lat="45.028611961752176" lon="3.18490301258862">
        <ele>831.67999999999995</ele>
        <time>2025-04-25T07:43:56Z</time>
      </trkpt>
      <trkpt lat="45.028436025604606" lon="3.184973001480103">
        <ele>830.72000000000003</ele>
        <time>2025-04-25T07:43:57Z</time>
      </trkpt>
      <trkpt lat="45.028250031173229" lon="3.185009965673089">
        <ele>830.24000000000001</ele>
        <time>2025-04-25T07:43:58Z</time>
      </trkpt>
      <trkpt lat="45.028064036741853" lon="3.185040978714824">
        <ele>829.75999999999999</ele>
        <time>2025-04-25T07:43:59Z</time>
      </trkpt>
      <trkpt lat="45.027878964319825" lon="3.185046007856727">
        <ele>829.75999999999999</ele>
        <time>2025-04-25T07:44:00Z</time>
      </trkpt>
      <trkpt lat="45.027696993201971" lon="3.185042990371585">
        <ele>829.26999999999998</ele>
        <time>2025-04-25T07:44:01Z</time>
      </trkpt>
      <trkpt lat="45.026352033019066" lon="3.185123037546873">
        <ele>834.55999999999995</ele>
        <time>2025-04-25T07:44:09Z</time>
      </trkpt>
      <trkpt lat="45.026198979467154" lon="3.18516100756824">
        <ele>835.03999999999996</ele>
        <time>2025-04-25T07:44:10Z</time>
      </trkpt>
      <trkpt lat="45.026050033047795" lon="3.1852460000664">
        <ele>836</ele>
        <time>2025-04-25T07:44:11Z</time>
      </trkpt>
      <trkpt lat="45.025913994759321" lon="3.185356976464391">
        <ele>836.48000000000002</ele>
        <time>2025-04-25T07:44:12Z</time>
      </trkpt>
      <trkpt lat="45.025772005319595" lon="3.18548203445971">
        <ele>837.92999999999995</ele>
        <time>2025-04-25T07:44:13Z</time>
      </trkpt>
      <trkpt lat="45.025125006213784" lon="3.18629801273346">
        <ele>843.21000000000004</ele>
        <time>2025-04-25T07:44:18Z</time>
      </trkpt>
      <trkpt lat="45.024717980995774" lon="3.186978036537767">
        <ele>846.58000000000004</ele>
        <time>2025-04-25T07:44:22Z</time>
      </trkpt>
      <trkpt lat="45.024661989882588" lon="3.187178028747439">
        <ele>847.05999999999995</ele>
        <time>2025-04-25T07:44:23Z</time>
      </trkpt>
      <trkpt lat="45.024613039568067" lon="3.187384977936745">
        <ele>848.01999999999998</ele>
        <time>2025-04-25T07:44:24Z</time>
      </trkpt>
      <trkpt lat="45.02457800321281" lon="3.187592010945082">
        <ele>848.98000000000002</ele>
        <time>2025-04-25T07:44:25Z</time>
      </trkpt>
      <trkpt lat="45.024543972685933" lon="3.187796026468277">
        <ele>849.94000000000005</ele>
        <time>2025-04-25T07:44:26Z</time>
      </trkpt>
      <trkpt lat="45.024518994614482" lon="3.188005993142724">
        <ele>850.89999999999998</ele>
        <time>2025-04-25T07:44:27Z</time>
      </trkpt>
      <trkpt lat="45.024512959644198" lon="3.188682999461889">
        <ele>853.30999999999995</ele>
        <time>2025-04-25T07:44:30Z</time>
      </trkpt>
      <trkpt lat="45.02464396879077" lon="3.189369980245829">
        <ele>853.78999999999996</ele>
        <time>2025-04-25T07:44:33Z</time>
      </trkpt>
      <trkpt lat="45.024716975167394" lon="3.189590005204082">
        <ele>853.78999999999996</ele>
        <time>2025-04-25T07:44:34Z</time>
      </trkpt>
      <trkpt lat="45.024867011234164" lon="3.1900380179286">
        <ele>854.26999999999998</ele>
        <time>2025-04-25T07:44:36Z</time>
      </trkpt>
      <trkpt lat="45.025019980967045" lon="3.190669007599354">
        <ele>854.75</ele>
        <time>2025-04-25T07:44:39Z</time>
      </trkpt>
      <trkpt lat="45.025040013715625" lon="3.190886015072465">
        <ele>855.71000000000004</ele>
        <time>2025-04-25T07:44:40Z</time>
      </trkpt>
      <trkpt lat="45.025001959875226" lon="3.19113302975893">
        <ele>856.19000000000005</ele>
        <time>2025-04-25T07:44:41Z</time>
      </trkpt>
      <trkpt lat="45.024962984025478" lon="3.191360011696816">
        <ele>856.66999999999996</ele>
        <time>2025-04-25T07:44:42Z</time>
      </trkpt>
      <trkpt lat="45.024885032325983" lon="3.191575007513166">
        <ele>857.14999999999998</ele>
        <time>2025-04-25T07:44:43Z</time>
      </trkpt>
      <trkpt lat="45.024800961837173" lon="3.191786985844374">
        <ele>857.63</ele>
        <time>2025-04-25T07:44:44Z</time>
      </trkpt>
      <trkpt lat="45.024714963510633" lon="3.191999970003963">
        <ele>858.11000000000001</ele>
        <time>2025-04-25T07:44:45Z</time>
      </trkpt>
      <trkpt lat="45.023802006617188" lon="3.193359011784196">
        <ele>862.91999999999996</ele>
        <time>2025-04-25T07:44:53Z</time>
      </trkpt>
      <trkpt lat="45.023428006097674" lon="3.193683978170157">
        <ele>864.36000000000001</ele>
        <time>2025-04-25T07:44:56Z</time>
      </trkpt>
      <trkpt lat="45.023151990026236" lon="3.193840971216559">
        <ele>864.84000000000003</ele>
        <time>2025-04-25T07:44:58Z</time>
      </trkpt>
      <trkpt lat="45.022988962009549" lon="3.193881036713719">
        <ele>864.36000000000001</ele>
        <time>2025-04-25T07:44:59Z</time>
      </trkpt>
      <trkpt lat="45.021641990169883" lon="3.193961000069976">
        <ele>861</ele>
        <time>2025-04-25T07:45:06Z</time>
      </trkpt>
      <trkpt lat="45.019968040287495" lon="3.194186976179481">
        <ele>858.11000000000001</ele>
        <time>2025-04-25T07:45:14Z</time>
      </trkpt>
      <trkpt lat="45.019766036421061" lon="3.194170966744423">
        <ele>857.63</ele>
        <time>2025-04-25T07:45:15Z</time>
      </trkpt>
      <trkpt lat="45.019564032554626" lon="3.194152023643255">
        <ele>857.14999999999998</ele>
        <time>2025-04-25T07:45:16Z</time>
      </trkpt>
      <trkpt lat="45.019172010943294" lon="3.19409997202456">
        <ele>856.19000000000005</ele>
        <time>2025-04-25T07:45:18Z</time>
      </trkpt>
      <trkpt lat="45.01847698353231" lon="3.194021014496684">
        <ele>854.26999999999998</ele>
        <time>2025-04-25T07:45:22Z</time>
      </trkpt>
      <trkpt lat="45.01828202046454" lon="3.194039035588503">
        <ele>854.26999999999998</ele>
        <time>2025-04-25T07:45:23Z</time>
      </trkpt>
      <trkpt lat="45.016729021444917" lon="3.194541027769446">
        <ele>851.87</ele>
        <time>2025-04-25T07:45:31Z</time>
      </trkpt>
      <trkpt lat="45.016525005921721" lon="3.19454999640584">
        <ele>851.38</ele>
        <time>2025-04-25T07:45:32Z</time>
      </trkpt>
      <trkpt lat="45.016321996226907" lon="3.194509008899331">
        <ele>850.89999999999998</ele>
        <time>2025-04-25T07:45:33Z</time>
      </trkpt>
      <trkpt lat="45.015696035698056" lon="3.194408006966114">
        <ele>850.41999999999996</ele>
        <time>2025-04-25T07:45:36Z</time>
      </trkpt>
      <trkpt lat="45.014666989445686" lon="3.19440096616745">
        <ele>848.98000000000002</ele>
        <time>2025-04-25T07:45:41Z</time>
      </trkpt>
      <trkpt lat="45.014484012499452" lon="3.194360984489322">
        <ele>848.5</ele>
        <time>2025-04-25T07:45:42Z</time>
      </trkpt>
      <trkpt lat="45.014293994754553" lon="3.194229975342751">
        <ele>848.5</ele>
        <time>2025-04-25T07:45:43Z</time>
      </trkpt>
      <trkpt lat="45.014110011979938" lon="3.194094020873308">
        <ele>848.5</ele>
        <time>2025-04-25T07:45:44Z</time>
      </trkpt>
      <trkpt lat="45.013933992013335" lon="3.193918000906706">
        <ele>848.01999999999998</ele>
        <time>2025-04-25T07:45:45Z</time>
      </trkpt>
      <trkpt lat="45.012950040400028" lon="3.193259015679359">
        <ele>847.05999999999995</ele>
        <time>2025-04-25T07:45:50Z</time>
      </trkpt>
      <trkpt lat="45.012748036533594" lon="3.193206964060664">
        <ele>846.58000000000004</ele>
        <time>2025-04-25T07:45:51Z</time>
      </trkpt>
      <trkpt lat="45.012544021010399" lon="3.193219034001231">
        <ele>846.10000000000002</ele>
        <time>2025-04-25T07:45:52Z</time>
      </trkpt>
      <trkpt lat="45.012330031022429" lon="3.193272007629275">
        <ele>845.62</ele>
        <time>2025-04-25T07:45:53Z</time>
      </trkpt>
      <trkpt lat="45.012116963043809" lon="3.193348031491041">
        <ele>845.13999999999999</ele>
        <time>2025-04-25T07:45:54Z</time>
      </trkpt>
      <trkpt lat="45.011485973373055" lon="3.193496977910399">
        <ele>843.69000000000005</ele>
        <time>2025-04-25T07:45:57Z</time>
      </trkpt>
      <trkpt lat="45.011288998648524" lon="3.193452972918749">
        <ele>843.21000000000004</ele>
        <time>2025-04-25T07:45:58Z</time>
      </trkpt>
      <trkpt lat="45.011115996167064" lon="3.193394970148802">
        <ele>842.73000000000002</ele>
        <time>2025-04-25T07:45:59Z</time>
      </trkpt>
      <trkpt lat="45.010930001735687" lon="3.193248035386205">
        <ele>842.25</ele>
        <time>2025-04-25T07:46:00Z</time>
      </trkpt>
      <trkpt lat="45.010755993425846" lon="3.19310998544097">
        <ele>841.76999999999998</ele>
        <time>2025-04-25T07:46:01Z</time>
      </trkpt>
      <trkpt lat="45.010583996772766" lon="3.192974030971527">
        <ele>841.28999999999996</ele>
        <time>2025-04-25T07:46:02Z</time>
      </trkpt>
      <trkpt lat="45.010410994291306" lon="3.192865988239646">
        <ele>840.80999999999995</ele>
        <time>2025-04-25T07:46:03Z</time>
      </trkpt>
      <trkpt lat="45.010241009294987" lon="3.192791976034641">
        <ele>840.33000000000004</ele>
        <time>2025-04-25T07:46:04Z</time>
      </trkpt>
      <trkpt lat="45.009634997695684" lon="3.192622996866703">
        <ele>838.88999999999999</ele>
        <time>2025-04-25T07:46:08Z</time>
      </trkpt>
      <trkpt lat="45.009456966072321" lon="3.192664990201592">
        <ele>838.40999999999997</ele>
        <time>2025-04-25T07:46:09Z</time>
      </trkpt>
      <trkpt lat="45.009293016046286" lon="3.19270396605134">
        <ele>837.92999999999995</ele>
        <time>2025-04-25T07:46:10Z</time>
      </trkpt>
      <trkpt lat="45.009134011343122" lon="3.192748976871371">
        <ele>837.45000000000005</ele>
        <time>2025-04-25T07:46:11Z</time>
      </trkpt>
      <trkpt lat="45.008984981104732" lon="3.192807985469699">
        <ele>836.96000000000004</ele>
        <time>2025-04-25T07:46:12Z</time>
      </trkpt>
      <trkpt lat="45.008524982258677" lon="3.192986017093062">
        <ele>834.55999999999995</ele>
        <time>2025-04-25T07:46:17Z</time>
      </trkpt>
      <trkpt lat="45.008483994752169" lon="3.19300202652812">
        <ele>834.55999999999995</ele>
        <time>2025-04-25T07:46:18Z</time>
      </trkpt>
      <trkpt lat="45.008409982547164" lon="3.19304401986301">
        <ele>834.55999999999995</ele>
        <time>2025-04-25T07:46:19Z</time>
      </trkpt>
      <trkpt lat="45.008396990597248" lon="3.193128006532788">
        <ele>834.55999999999995</ele>
        <time>2025-04-25T07:46:20Z</time>
      </trkpt>
      <trkpt lat="45.008378969505429" lon="3.193242000415921">
        <ele>834.55999999999995</ele>
        <time>2025-04-25T07:46:21Z</time>
      </trkpt>
      <trkpt lat="45.008359020575881" lon="3.193377032876015">
        <ele>834.55999999999995</ele>
        <time>2025-04-25T07:46:22Z</time>
      </trkpt>
      <trkpt lat="45.008232034742832" lon="3.194200973957777">
        <ele>834.08000000000004</ele>
        <time>2025-04-25T07:46:27Z</time>
      </trkpt>
      <trkpt lat="45.008217031136155" lon="3.194298958405852">
        <ele>833.60000000000002</ele>
        <time>2025-04-25T07:46:28Z</time>
      </trkpt>
      <trkpt lat="45.008063977584243" lon="3.194361990317702">
        <ele>833.60000000000002</ele>
        <time>2025-04-25T07:46:29Z</time>
      </trkpt>
      <trkpt lat="45.007985020056367" lon="3.194324020296335">
        <ele>833.60000000000002</ele>
        <time>2025-04-25T07:46:30Z</time>
      </trkpt>
      <trkpt lat="45.007888963446021" lon="3.194279009476304">
        <ele>834.08000000000004</ele>
        <time>2025-04-25T07:46:31Z</time>
      </trkpt>
      <trkpt lat="45.007775975391269" lon="3.194225030019879">
        <ele>834.08000000000004</ele>
        <time>2025-04-25T07:46:32Z</time>
      </trkpt>
      <trkpt lat="45.007647983729839" lon="3.194164009764791">
        <ele>834.55999999999995</ele>
        <time>2025-04-25T07:46:33Z</time>
      </trkpt>
      <trkpt lat="45.006892019882798" lon="3.193824039772153">
        <ele>835.03999999999996</ele>
        <time>2025-04-25T07:46:38Z</time>
      </trkpt>
      <trkpt lat="45.006721029058099" lon="3.193824039772153">
        <ele>835.51999999999998</ele>
        <time>2025-04-25T07:46:39Z</time>
      </trkpt>
      <trkpt lat="45.006554983556271" lon="3.193838959559798">
        <ele>835.51999999999998</ele>
        <time>2025-04-25T07:46:40Z</time>
      </trkpt>
      <trkpt lat="45.006387010216713" lon="3.193870978429914">
        <ele>836</ele>
        <time>2025-04-25T07:46:41Z</time>
      </trkpt>
      <trkpt lat="45.006215013563633" lon="3.193904003128409">
        <ele>836.96000000000004</ele>
        <time>2025-04-25T07:46:42Z</time>
      </trkpt>
      <trkpt lat="45.005695000290871" lon="3.194003999233246">
        <ele>839.37</ele>
        <time>2025-04-25T07:46:45Z</time>
      </trkpt>
      <trkpt lat="45.005530966445804" lon="3.193983966484666">
        <ele>840.33000000000004</ele>
        <time>2025-04-25T07:46:46Z</time>
      </trkpt>
      <trkpt lat="45.00537296757102" lon="3.193925963714719">
        <ele>841.28999999999996</ele>
        <time>2025-04-25T07:46:47Z</time>
      </trkpt>
      <trkpt lat="45.00474700704217" lon="3.193696970120072">
        <ele>844.17999999999995</ele>
        <time>2025-04-25T07:46:51Z</time>
      </trkpt>
      <trkpt lat="45.00459898263216" lon="3.193680960685015">
        <ele>845.13999999999999</ele>
        <time>2025-04-25T07:46:52Z</time>
      </trkpt>
      <trkpt lat="45.004455987364054" lon="3.193700993433595">
        <ele>845.62</ele>
        <time>2025-04-25T07:46:53Z</time>
      </trkpt>
      <trkpt lat="45.004306035116315" lon="3.193756984546781">
        <ele>846.10000000000002</ele>
        <time>2025-04-25T07:46:54Z</time>
      </trkpt>
      <trkpt lat="45.004148036241531" lon="3.193827979266644">
        <ele>846.58000000000004</ele>
        <time>2025-04-25T07:46:55Z</time>
      </trkpt>
      <trkpt lat="45.003987019881606" lon="3.193937027826905">
        <ele>846.58000000000004</ele>
        <time>2025-04-25T07:46:56Z</time>
      </trkpt>
      <trkpt lat="45.00275001861155" lon="3.194778990000486">
        <ele>844.17999999999995</ele>
        <time>2025-04-25T07:47:03Z</time>
      </trkpt>
      <trkpt lat="45.002447012811899" lon="3.195026004686952">
        <ele>842.73000000000002</ele>
        <time>2025-04-25T07:47:05Z</time>
      </trkpt>
      <trkpt lat="45.002345005050302" lon="3.195204036310315">
        <ele>841.76999999999998</ele>
        <time>2025-04-25T07:47:06Z</time>
      </trkpt>
      <trkpt lat="45.001821974292397" lon="3.196283960714936">
        <ele>838.88999999999999</ele>
        <time>2025-04-25T07:47:11Z</time>
      </trkpt>
      <trkpt lat="45.001609995961189" lon="3.196785030886531">
        <ele>835.03999999999996</ele>
        <time>2025-04-25T07:47:14Z</time>
      </trkpt>
      <trkpt lat="45.00152600929141" lon="3.196821995079517">
        <ele>834.08000000000004</ele>
        <time>2025-04-25T07:47:15Z</time>
      </trkpt>
      <trkpt lat="45.001456020399928" lon="3.196854013949633">
        <ele>833.12</ele>
        <time>2025-04-25T07:47:16Z</time>
      </trkpt>
      <trkpt lat="45.001416960731149" lon="3.196871029213071">
        <ele>832.15999999999997</ele>
        <time>2025-04-25T07:47:17Z</time>
      </trkpt>
      <trkpt lat="45.001386031508446" lon="3.196838004514575">
        <ele>831.20000000000005</ele>
        <time>2025-04-25T07:47:18Z</time>
      </trkpt>
      <trkpt lat="45.001356024295092" lon="3.19680598564446">
        <ele>830.24000000000001</ele>
        <time>2025-04-25T07:47:19Z</time>
      </trkpt>
      <trkpt lat="45.001307995989919" lon="3.196753012016416">
        <ele>828.78999999999996</ele>
        <time>2025-04-25T07:47:20Z</time>
      </trkpt>
      <trkpt lat="45.001240018755198" lon="3.196680005639792">
        <ele>827.35000000000002</ele>
        <time>2025-04-25T07:47:21Z</time>
      </trkpt>
      <trkpt lat="45.001158965751529" lon="3.19659199565649">
        <ele>826.87</ele>
        <time>2025-04-25T07:47:22Z</time>
      </trkpt>
      <trkpt lat="45.001040026545525" lon="3.196579003706574">
        <ele>826.38999999999999</ele>
        <time>2025-04-25T07:47:23Z</time>
      </trkpt>
      <trkpt lat="45.000905999913812" lon="3.196602975949645">
        <ele>826.38999999999999</ele>
        <time>2025-04-25T07:47:24Z</time>
      </trkpt>
      <trkpt lat="45.000782031565905" lon="3.196671037003398">
        <ele>825.90999999999997</ele>
        <time>2025-04-25T07:47:25Z</time>
      </trkpt>
      <trkpt lat="45.000502998009324" lon="3.196823000907898">
        <ele>824.95000000000005</ele>
        <time>2025-04-25T07:47:27Z</time>
      </trkpt>
      <trkpt lat="45.000348016619682" lon="3.196859965100884">
        <ele>824.47000000000003</ele>
        <time>2025-04-25T07:47:28Z</time>
      </trkpt>
      <trkpt lat="44.999840995296836" lon="3.19693598896265">
        <ele>821.58000000000004</ele>
        <time>2025-04-25T07:47:31Z</time>
      </trkpt>
      <trkpt lat="44.999650977551937" lon="3.19693598896265">
        <ele>821.10000000000002</ele>
        <time>2025-04-25T07:47:32Z</time>
      </trkpt>
      <trkpt lat="44.999462971463799" lon="3.196921991184354">
        <ele>820.62</ele>
        <time>2025-04-25T07:47:33Z</time>
      </trkpt>
      <trkpt lat="44.998399978503585" lon="3.196690985932946">
        <ele>819.17999999999995</ele>
        <time>2025-04-25T07:47:40Z</time>
      </trkpt>
      <trkpt lat="44.998240973800421" lon="3.196657039225102">
        <ele>819.17999999999995</ele>
        <time>2025-04-25T07:47:41Z</time>
      </trkpt>
      <trkpt lat="44.997955989092588" lon="3.196691991761327">
        <ele>819.17999999999995</ele>
        <time>2025-04-25T07:47:43Z</time>
      </trkpt>
      <trkpt lat="44.997820034623146" lon="3.196709007024765">
        <ele>819.17999999999995</ele>
        <time>2025-04-25T07:47:44Z</time>
      </trkpt>
      <trkpt lat="44.997694976627827" lon="3.196705989539623">
        <ele>819.17999999999995</ele>
        <time>2025-04-25T07:47:45Z</time>
      </trkpt>
      <trkpt lat="44.997591963037848" lon="3.19665402173996">
        <ele>818.70000000000005</ele>
        <time>2025-04-25T07:47:46Z</time>
      </trkpt>
      <trkpt lat="44.997490961104631" lon="3.196603981778026">
        <ele>818.70000000000005</ele>
        <time>2025-04-25T07:47:47Z</time>
      </trkpt>
      <trkpt lat="44.997402029111981" lon="3.196558970957995">
        <ele>819.17999999999995</ele>
        <time>2025-04-25T07:47:48Z</time>
      </trkpt>
      <trkpt lat="44.997323993593454" lon="3.196530975401402">
        <ele>819.17999999999995</ele>
        <time>2025-04-25T07:47:49Z</time>
      </trkpt>
      <trkpt lat="44.997260961681604" lon="3.196542039513588">
        <ele>819.65999999999997</ele>
        <time>2025-04-25T07:47:50Z</time>
      </trkpt>
      <trkpt lat="44.997199019417167" lon="3.196554025635123">
        <ele>819.65999999999997</ele>
        <time>2025-04-25T07:47:51Z</time>
      </trkpt>
      <trkpt lat="44.9971420224756" lon="3.196564000099897">
        <ele>820.13999999999999</ele>
        <time>2025-04-25T07:47:52Z</time>
      </trkpt>
      <trkpt lat="44.997071027755737" lon="3.196553019806743">
        <ele>820.62</ele>
        <time>2025-04-25T07:47:53Z</time>
      </trkpt>
      <trkpt lat="44.996911017224193" lon="3.196464003995061">
        <ele>822.05999999999995</ele>
        <time>2025-04-25T07:47:55Z</time>
      </trkpt>
      <trkpt lat="44.996855026111007" lon="3.196464003995061">
        <ele>822.54999999999995</ele>
        <time>2025-04-25T07:47:56Z</time>
      </trkpt>
      <trkpt lat="44.995908038690686" lon="3.196428967639804">
        <ele>824.47000000000003</ele>
        <time>2025-04-25T07:48:04Z</time>
      </trkpt>
      <trkpt lat="44.994529969990253" lon="3.195940973237157">
        <ele>829.26999999999998</ele>
        <time>2025-04-25T07:48:14Z</time>
      </trkpt>
      <trkpt lat="44.99321099370718" lon="3.195422971621156">
        <ele>831.20000000000005</ele>
        <time>2025-04-25T07:48:24Z</time>
      </trkpt>
      <trkpt lat="44.992581009864807" lon="3.195148967206478">
        <ele>828.30999999999995</ele>
        <time>2025-04-25T07:48:29Z</time>
      </trkpt>
      <trkpt lat="44.992453018203378" lon="3.195156008005142">
        <ele>827.83000000000004</ele>
        <time>2025-04-25T07:48:30Z</time>
      </trkpt>
      <trkpt lat="44.992316979914904" lon="3.195208981633186">
        <ele>827.83000000000004</ele>
        <time>2025-04-25T07:48:31Z</time>
      </trkpt>
      <trkpt lat="44.99187801964581" lon="3.195379972457886">
        <ele>829.26999999999998</ele>
        <time>2025-04-25T07:48:34Z</time>
      </trkpt>
      <trkpt lat="44.99067303724587" lon="3.195444010198116">
        <ele>833.12</ele>
        <time>2025-04-25T07:48:41Z</time>
      </trkpt>
      <trkpt lat="44.989015012979507" lon="3.195160031318665">
        <ele>831.67999999999995</ele>
        <time>2025-04-25T07:48:50Z</time>
      </trkpt>
      <trkpt lat="44.987916983664036" lon="3.194531975314021">
        <ele>833.12</ele>
        <time>2025-04-25T07:48:57Z</time>
      </trkpt>
      <trkpt lat="44.986599013209343" lon="3.193476023152471">
        <ele>834.08000000000004</ele>
        <time>2025-04-25T07:49:06Z</time>
      </trkpt>
      <trkpt lat="44.986344035714865" lon="3.193215010687709">
        <ele>834.08000000000004</ele>
        <time>2025-04-25T07:49:09Z</time>
      </trkpt>
      <trkpt lat="44.986281003803015" lon="3.193189026787877">
        <ele>834.55999999999995</ele>
        <time>2025-04-25T07:49:10Z</time>
      </trkpt>
      <trkpt lat="44.986228030174971" lon="3.193204030394554">
        <ele>834.55999999999995</ele>
        <time>2025-04-25T07:49:11Z</time>
      </trkpt>
      <trkpt lat="44.986171033233404" lon="3.193220039829612">
        <ele>834.55999999999995</ele>
        <time>2025-04-25T07:49:12Z</time>
      </trkpt>
      <trkpt lat="44.98612099327147" lon="3.193267984315753">
        <ele>834.55999999999995</ele>
        <time>2025-04-25T07:49:13Z</time>
      </trkpt>
      <trkpt lat="44.986072964966297" lon="3.193322969600558">
        <ele>834.55999999999995</ele>
        <time>2025-04-25T07:49:14Z</time>
      </trkpt>
      <trkpt lat="44.986020997166634" lon="3.193382984027267">
        <ele>834.55999999999995</ele>
        <time>2025-04-25T07:49:15Z</time>
      </trkpt>
      <trkpt lat="44.985971041023731" lon="3.193460013717413">
        <ele>834.08000000000004</ele>
        <time>2025-04-25T07:49:16Z</time>
      </trkpt>
      <trkpt lat="44.985870961099863" lon="3.193592028692365">
        <ele>833.60000000000002</ele>
        <time>2025-04-25T07:49:18Z</time>
      </trkpt>
      <trkpt lat="44.985821004956961" lon="3.193655982613564">
        <ele>833.60000000000002</ele>
        <time>2025-04-25T07:49:19Z</time>
      </trkpt>
      <trkpt lat="44.98577699996531" lon="3.193718008697033">
        <ele>833.60000000000002</ele>
        <time>2025-04-25T07:49:20Z</time>
      </trkpt>
      <trkpt lat="44.985741041600704" lon="3.193769976496697">
        <ele>833.60000000000002</ele>
        <time>2025-04-25T07:49:21Z</time>
      </trkpt>
      <trkpt lat="44.98571103438735" lon="3.193812975659967">
        <ele>834.08000000000004</ele>
        <time>2025-04-25T07:49:22Z</time>
      </trkpt>
      <trkpt lat="44.985619001090527" lon="3.193809036165476">
        <ele>834.55999999999995</ele>
        <time>2025-04-25T07:49:23Z</time>
      </trkpt>
      <trkpt lat="44.98556200414896" lon="3.193780034780502">
        <ele>834.55999999999995</ele>
        <time>2025-04-25T07:49:24Z</time>
      </trkpt>
      <trkpt lat="44.985490003600717" lon="3.193741980940104">
        <ele>835.03999999999996</ele>
        <time>2025-04-25T07:49:25Z</time>
      </trkpt>
      <trkpt lat="44.98470101505518" lon="3.193331016227603">
        <ele>836</ele>
        <time>2025-04-25T07:49:32Z</time>
      </trkpt>
      <trkpt lat="44.983312971889973" lon="3.192597012966871">
        <ele>838.40999999999997</ele>
        <time>2025-04-25T07:49:40Z</time>
      </trkpt>
      <trkpt lat="44.9813739862293" lon="3.191550029441714">
        <ele>848.5</ele>
        <time>2025-04-25T07:49:50Z</time>
      </trkpt>
      <trkpt lat="44.981036027893424" lon="3.191310977563262">
        <ele>850.41999999999996</ele>
        <time>2025-04-25T07:49:52Z</time>
      </trkpt>
      <trkpt lat="44.980893032625318" lon="3.191157002002001">
        <ele>851.38</ele>
        <time>2025-04-25T07:49:53Z</time>
      </trkpt>
      <trkpt lat="44.980768980458379" lon="3.190950974822044">
        <ele>852.35000000000002</ele>
        <time>2025-04-25T07:49:54Z</time>
      </trkpt>
      <trkpt lat="44.980177972465754" lon="3.189665023237467">
        <ele>855.71000000000004</ele>
        <time>2025-04-25T07:49:59Z</time>
      </trkpt>
      <trkpt lat="44.980094991624355" lon="3.189380038529635">
        <ele>856.66999999999996</ele>
        <time>2025-04-25T07:50:00Z</time>
      </trkpt>
      <trkpt lat="44.979504989460111" lon="3.187152966856957">
        <ele>861.96000000000004</ele>
        <time>2025-04-25T07:50:08Z</time>
      </trkpt>
      <trkpt lat="44.979488980025053" lon="3.186868987977505">
        <ele>862.44000000000005</ele>
        <time>2025-04-25T07:50:09Z</time>
      </trkpt>
      <trkpt lat="44.979349002242088" lon="3.18479597568512">
        <ele>866.28999999999996</ele>
        <time>2025-04-25T07:50:17Z</time>
      </trkpt>
      <trkpt lat="44.979314971715212" lon="3.184595983475447">
        <ele>866.76999999999998</ele>
        <time>2025-04-25T07:50:18Z</time>
      </trkpt>
      <trkpt lat="44.979274990037084" lon="3.184416024014354">
        <ele>866.76999999999998</ele>
        <time>2025-04-25T07:50:19Z</time>
      </trkpt>
      <trkpt lat="44.979210030287504" lon="3.184233969077468">
        <ele>866.76999999999998</ele>
        <time>2025-04-25T07:50:20Z</time>
      </trkpt>
      <trkpt lat="44.979125037789345" lon="3.184056021273136">
        <ele>866.28999999999996</ele>
        <time>2025-04-25T07:50:21Z</time>
      </trkpt>
      <trkpt lat="44.97902998700738" lon="3.183882012963295">
        <ele>865.79999999999995</ele>
        <time>2025-04-25T07:50:22Z</time>
      </trkpt>
      <trkpt lat="44.978938037529588" lon="3.183713033795357">
        <ele>864.84000000000003</ele>
        <time>2025-04-25T07:50:23Z</time>
      </trkpt>
      <trkpt lat="44.978870982304215" lon="3.183538019657135">
        <ele>863.88</ele>
        <time>2025-04-25T07:50:24Z</time>
      </trkpt>
      <trkpt lat="44.978809962049127" lon="3.183368034660816">
        <ele>863.39999999999998</ele>
        <time>2025-04-25T07:50:25Z</time>
      </trkpt>
      <trkpt lat="44.978757994249463" lon="3.183187991380692">
        <ele>862.44000000000005</ele>
        <time>2025-04-25T07:50:26Z</time>
      </trkpt>
      <trkpt lat="44.978763023391366" lon="3.183001996949315">
        <ele>861.48000000000002</ele>
        <time>2025-04-25T07:50:27Z</time>
      </trkpt>
      <trkpt lat="44.978767968714237" lon="3.182814996689558">
        <ele>861</ele>
        <time>2025-04-25T07:50:28Z</time>
      </trkpt>
      <trkpt lat="44.978776015341282" lon="3.182468991726637">
        <ele>859.55999999999995</ele>
        <time>2025-04-25T07:50:30Z</time>
      </trkpt>
      <trkpt lat="44.978759000077844" lon="3.182323984801769">
        <ele>859.08000000000004</ele>
        <time>2025-04-25T07:50:31Z</time>
      </trkpt>
      <trkpt lat="44.978695968165994" lon="3.182189958170056">
        <ele>858.59000000000003</ele>
        <time>2025-04-25T07:50:32Z</time>
      </trkpt>
      <trkpt lat="44.978627990931273" lon="3.18204503506422">
        <ele>858.11000000000001</ele>
        <time>2025-04-25T07:50:33Z</time>
      </trkpt>
      <trkpt lat="44.978540986776352" lon="3.181916959583759">
        <ele>857.63</ele>
        <time>2025-04-25T07:50:34Z</time>
      </trkpt>
      <trkpt lat="44.978444008156657" lon="3.181792991235852">
        <ele>857.14999999999998</ele>
        <time>2025-04-25T07:50:35Z</time>
      </trkpt>
      <trkpt lat="44.978333031758666" lon="3.1816800031811">
        <ele>856.66999999999996</ele>
        <time>2025-04-25T07:50:36Z</time>
      </trkpt>
      <trkpt lat="44.978208979591727" lon="3.181612025946379">
        <ele>856.19000000000005</ele>
        <time>2025-04-25T07:50:37Z</time>
      </trkpt>
      <trkpt lat="44.97808501124382" lon="3.181575983762741">
        <ele>855.23000000000002</ele>
        <time>2025-04-25T07:50:38Z</time>
      </trkpt>
      <trkpt lat="44.977965988218784" lon="3.181585958227515">
        <ele>854.26999999999998</ele>
        <time>2025-04-25T07:50:39Z</time>
      </trkpt>
      <trkpt lat="44.977865992113948" lon="3.181608002632856">
        <ele>853.30999999999995</ele>
        <time>2025-04-25T07:50:40Z</time>
      </trkpt>
      <trkpt lat="44.977768007665873" lon="3.181720990687609">
        <ele>852.35000000000002</ele>
        <time>2025-04-25T07:50:41Z</time>
      </trkpt>
      <trkpt lat="44.977659964933991" lon="3.181847976520658">
        <ele>851.38</ele>
        <time>2025-04-25T07:50:42Z</time>
      </trkpt>
      <trkpt lat="44.977554017677903" lon="3.181971022859216">
        <ele>850.41999999999996</ele>
        <time>2025-04-25T07:50:43Z</time>
      </trkpt>
      <trkpt lat="44.977449998259544" lon="3.182091973721981">
        <ele>849.46000000000004</ele>
        <time>2025-04-25T07:50:44Z</time>
      </trkpt>
      <trkpt lat="44.977362994104624" lon="3.182193981483579">
        <ele>848.5</ele>
        <time>2025-04-25T07:50:45Z</time>
      </trkpt>
      <trkpt lat="44.9771380238235" lon="3.182294983416796">
        <ele>846.58000000000004</ele>
        <time>2025-04-25T07:50:47Z</time>
      </trkpt>
      <trkpt lat="44.977039033547044" lon="3.182275034487248">
        <ele>845.13999999999999</ele>
        <time>2025-04-25T07:50:48Z</time>
      </trkpt>
      <trkpt lat="44.976943982765079" lon="3.18223999813199">
        <ele>843.69000000000005</ele>
        <time>2025-04-25T07:50:49Z</time>
      </trkpt>
      <trkpt lat="44.976886985823512" lon="3.18213296122849">
        <ele>841.76999999999998</ele>
        <time>2025-04-25T07:50:50Z</time>
      </trkpt>
      <trkpt lat="44.976869970560074" lon="3.182036988437176">
        <ele>840.33000000000004</ele>
        <time>2025-04-25T07:50:51Z</time>
      </trkpt>
      <trkpt lat="44.976848009973764" lon="3.18191503174603">
        <ele>838.40999999999997</ele>
        <time>2025-04-25T07:50:52Z</time>
      </trkpt>
      <trkpt lat="44.976853039115667" lon="3.181867003440857">
        <ele>836.96000000000004</ele>
        <time>2025-04-25T07:50:53Z</time>
      </trkpt>
      <trkpt lat="44.976858990266919" lon="3.181806989014149">
        <ele>836</ele>
        <time>2025-04-25T07:50:54Z</time>
      </trkpt>
      <trkpt lat="44.976876005530357" lon="3.181630969047546">
        <ele>830.72000000000003</ele>
        <time>2025-04-25T07:50:59Z</time>
      </trkpt>
      <trkpt lat="44.976878017187119" lon="3.181610014289618">
        <ele>829.75999999999999</ele>
        <time>2025-04-25T07:51:00Z</time>
      </trkpt>
      <trkpt lat="44.97688103467226" lon="3.181585958227515">
        <ele>828.78999999999996</ele>
        <time>2025-04-25T07:51:01Z</time>
      </trkpt>
      <trkpt lat="44.97688396833837" lon="3.181552011519671">
        <ele>828.30999999999995</ele>
        <time>2025-04-25T07:51:02Z</time>
      </trkpt>
      <trkpt lat="44.976887991651893" lon="3.181511024013162">
        <ele>827.35000000000002</ele>
        <time>2025-04-25T07:51:03Z</time>
      </trkpt>
      <trkpt lat="44.976893020793796" lon="3.181460984051228">
        <ele>826.87</ele>
        <time>2025-04-25T07:51:04Z</time>
      </trkpt>
      <trkpt lat="44.976897966116667" lon="3.181407004594803">
        <ele>825.90999999999997</ele>
        <time>2025-04-25T07:51:05Z</time>
      </trkpt>
      <trkpt lat="44.976930990815163" lon="3.181082038208842">
        <ele>823.50999999999999</ele>
        <time>2025-04-25T07:51:13Z</time>
      </trkpt>
      <trkpt lat="44.976930990815163" lon="3.181082038208842">
        <ele>823.50999999999999</ele>
        <time>2025-04-25T07:51:14Z</time>
      </trkpt>
      <trkpt lat="44.976930990815163" lon="3.181082038208842">
        <ele>823.50999999999999</ele>
        <time>2025-04-25T07:51:29Z</time>
      </trkpt>
      <trkpt lat="44.976938031613827" lon="3.180981958284974">
        <ele>841.28999999999996</ele>
        <time>2025-04-25T07:54:38Z</time>
      </trkpt>
      <trkpt lat="44.976993016898632" lon="3.180720023810864">
        <ele>836.96000000000004</ele>
        <time>2025-04-25T07:54:58Z</time>
      </trkpt>
      <trkpt lat="44.977072980254889" lon="3.180464040488005">
        <ele>835.51999999999998</ele>
        <time>2025-04-25T07:55:02Z</time>
      </trkpt>
      <trkpt lat="44.977128971368074" lon="3.18028399720788">
        <ele>833.60000000000002</ele>
        <time>2025-04-25T07:55:04Z</time>
      </trkpt>
      <trkpt lat="44.977210024371743" lon="3.18006900139153">
        <ele>832.15999999999997</ele>
        <time>2025-04-25T07:55:06Z</time>
      </trkpt>
      <trkpt lat="44.977314965799451" lon="3.179844031110406">
        <ele>830.24000000000001</ele>
        <time>2025-04-25T07:55:08Z</time>
      </trkpt>
      <trkpt lat="44.977313037961721" lon="3.17970396950841">
        <ele>829.75999999999999</ele>
        <time>2025-04-25T07:55:09Z</time>
      </trkpt>
      <trkpt lat="44.977305997163057" lon="3.179560974240303">
        <ele>828.78999999999996</ele>
        <time>2025-04-25T07:55:10Z</time>
      </trkpt>
      <trkpt lat="44.977299040183425" lon="3.179413033649325">
        <ele>827.83000000000004</ele>
        <time>2025-04-25T07:55:11Z</time>
      </trkpt>
      <trkpt lat="44.977324018254876" lon="3.179258974269033">
        <ele>827.35000000000002</ele>
        <time>2025-04-25T07:55:12Z</time>
      </trkpt>
      <trkpt lat="44.977346984669566" lon="3.179126037284732">
        <ele>826.38999999999999</ele>
        <time>2025-04-25T07:55:13Z</time>
      </trkpt>
      <trkpt lat="44.977369029074907" lon="3.178996033966541">
        <ele>825.90999999999997</ele>
        <time>2025-04-25T07:55:14Z</time>
      </trkpt>
      <trkpt lat="44.977372968569398" lon="3.178870975971222">
        <ele>824.95000000000005</ele>
        <time>2025-04-25T07:55:15Z</time>
      </trkpt>
      <trkpt lat="44.977341033518314" lon="3.178761005401611">
        <ele>824.47000000000003</ele>
        <time>2025-04-25T07:55:16Z</time>
      </trkpt>
      <trkpt lat="44.977276995778084" lon="3.178642988204956">
        <ele>823.50999999999999</ele>
        <time>2025-04-25T07:55:17Z</time>
      </trkpt>
      <trkpt lat="44.977216981351376" lon="3.178532011806965">
        <ele>822.05999999999995</ele>
        <time>2025-04-25T07:55:18Z</time>
      </trkpt>
      <trkpt lat="44.977155039086938" lon="3.178418017923832">
        <ele>821.10000000000002</ele>
        <time>2025-04-25T07:55:19Z</time>
      </trkpt>
      <trkpt lat="44.97709795832634" lon="3.178311986848712">
        <ele>820.13999999999999</ele>
        <time>2025-04-25T07:55:20Z</time>
      </trkpt>
      <trkpt lat="44.97705596499145" lon="3.178193969652057">
        <ele>819.17999999999995</ele>
        <time>2025-04-25T07:55:21Z</time>
      </trkpt>
      <trkpt lat="44.977040961384773" lon="3.178052986040711">
        <ele>818.22000000000003</ele>
        <time>2025-04-25T07:55:22Z</time>
      </trkpt>
      <trkpt lat="44.977040961384773" lon="3.177893981337547">
        <ele>817.25999999999999</ele>
        <time>2025-04-25T07:55:23Z</time>
      </trkpt>
      <trkpt lat="44.977040961384773" lon="3.177731959149241">
        <ele>816.77999999999997</ele>
        <time>2025-04-25T07:55:24Z</time>
      </trkpt>
      <trkpt lat="44.977023024111986" lon="3.177418978884816">
        <ele>815.34000000000003</ele>
        <time>2025-04-25T07:55:26Z</time>
      </trkpt>
      <trkpt lat="44.9769670329988" lon="3.177268020808697">
        <ele>814.85000000000002</ele>
        <time>2025-04-25T07:55:27Z</time>
      </trkpt>
      <trkpt lat="44.976905006915331" lon="3.177127037197352">
        <ele>813.88999999999999</ele>
        <time>2025-04-25T07:55:28Z</time>
      </trkpt>
      <trkpt lat="44.97675103135407" lon="3.176897037774324">
        <ele>812.92999999999995</ele>
        <time>2025-04-25T07:55:30Z</time>
      </trkpt>
      <trkpt lat="44.97666603885591" lon="3.176808021962643">
        <ele>812.45000000000005</ele>
        <time>2025-04-25T07:55:31Z</time>
      </trkpt>
      <trkpt lat="44.976585991680622" lon="3.176750019192696">
        <ele>811.97000000000003</ele>
        <time>2025-04-25T07:55:32Z</time>
      </trkpt>
      <trkpt lat="44.976498987525702" lon="3.176590008661151">
        <ele>810.04999999999995</ele>
        <time>2025-04-25T07:55:34Z</time>
      </trkpt>
      <trkpt lat="44.976490018889308" lon="3.17650300450623">
        <ele>809.57000000000005</ele>
        <time>2025-04-25T07:55:35Z</time>
      </trkpt>
      <trkpt lat="44.976466968655586" lon="3.176298988983035">
        <ele>808.13</ele>
        <time>2025-04-25T07:55:37Z</time>
      </trkpt>
      <trkpt lat="44.976447019726038" lon="3.176192035898566">
        <ele>807.15999999999997</ele>
        <time>2025-04-25T07:55:38Z</time>
      </trkpt>
      <trkpt lat="44.976418018341064" lon="3.176077036187053">
        <ele>806.67999999999995</ele>
        <time>2025-04-25T07:55:39Z</time>
      </trkpt>
      <trkpt lat="44.976321961730719" lon="3.175691971555352">
        <ele>804.27999999999997</ele>
        <time>2025-04-25T07:55:42Z</time>
      </trkpt>
      <trkpt lat="44.976250967010856" lon="3.175407992675901">
        <ele>802.36000000000001</ele>
        <time>2025-04-25T07:55:44Z</time>
      </trkpt>
      <trkpt lat="44.976212996989489" lon="3.175258040428162">
        <ele>801.39999999999998</ele>
        <time>2025-04-25T07:55:45Z</time>
      </trkpt>
      <trkpt lat="44.976136973127723" lon="3.174951011314988">
        <ele>799.47000000000003</ele>
        <time>2025-04-25T07:55:47Z</time>
      </trkpt>
      <trkpt lat="44.976118030026555" lon="3.174778008833528">
        <ele>798.50999999999999</ele>
        <time>2025-04-25T07:55:48Z</time>
      </trkpt>
      <trkpt lat="44.976118030026555" lon="3.174599977210164">
        <ele>797.54999999999995</ele>
        <time>2025-04-25T07:55:49Z</time>
      </trkpt>
      <trkpt lat="44.976118030026555" lon="3.17441800609231">
        <ele>796.59000000000003</ele>
        <time>2025-04-25T07:55:50Z</time>
      </trkpt>
      <trkpt lat="44.976125992834568" lon="3.174241986125708">
        <ele>795.63</ele>
        <time>2025-04-25T07:55:51Z</time>
      </trkpt>
      <trkpt lat="44.976161029189825" lon="3.174090022221208">
        <ele>795.14999999999998</ele>
        <time>2025-04-25T07:55:52Z</time>
      </trkpt>
      <trkpt lat="44.976206962019205" lon="3.173963036388159">
        <ele>794.66999999999996</ele>
        <time>2025-04-25T07:55:53Z</time>
      </trkpt>
      <trkpt lat="44.976275023072958" lon="3.173867985606194">
        <ele>793.71000000000004</ele>
        <time>2025-04-25T07:55:54Z</time>
      </trkpt>
      <trkpt lat="44.976364960893989" lon="3.173829009756446">
        <ele>793.22000000000003</ele>
        <time>2025-04-25T07:55:55Z</time>
      </trkpt>
      <trkpt lat="44.976469986140728" lon="3.173809982836247">
        <ele>792.74000000000001</ele>
        <time>2025-04-25T07:55:56Z</time>
      </trkpt>
      <trkpt lat="44.976562019437551" lon="3.173890030011535">
        <ele>792.25999999999999</ele>
        <time>2025-04-25T07:55:57Z</time>
      </trkpt>
      <trkpt lat="44.976639971137047" lon="3.174002012237907">
        <ele>791.77999999999997</ele>
        <time>2025-04-25T07:55:58Z</time>
      </trkpt>
      <trkpt lat="44.976722029969096" lon="3.174120029434562">
        <ele>790.82000000000005</ele>
        <time>2025-04-25T07:55:59Z</time>
      </trkpt>
      <trkpt lat="44.976805010810494" lon="3.174239974468947">
        <ele>790.34000000000003</ele>
        <time>2025-04-25T07:56:00Z</time>
      </trkpt>
      <trkpt lat="44.976886985823512" lon="3.174357991665602">
        <ele>789.38</ele>
        <time>2025-04-25T07:56:01Z</time>
      </trkpt>
      <trkpt lat="44.976976001635194" lon="3.174417000263929">
        <ele>788.89999999999998</ele>
        <time>2025-04-25T07:56:02Z</time>
      </trkpt>
      <trkpt lat="44.977069040760398" lon="3.174477014690638">
        <ele>787.94000000000005</ele>
        <time>2025-04-25T07:56:03Z</time>
      </trkpt>
      <trkpt lat="44.977190997451544" lon="3.174554966390133">
        <ele>787.94000000000005</ele>
        <time>2025-04-25T07:56:04Z</time>
      </trkpt>
      <trkpt lat="44.977278001606464" lon="3.174541974440217">
        <ele>787.46000000000004</ele>
        <time>2025-04-25T07:56:05Z</time>
      </trkpt>
      <trkpt lat="44.977402975782752" lon="3.174522025510669">
        <ele>786.98000000000002</ele>
        <time>2025-04-25T07:56:06Z</time>
      </trkpt>
      <trkpt lat="44.977527027949691" lon="3.174501992762089">
        <ele>786.01999999999998</ele>
        <time>2025-04-25T07:56:07Z</time>
      </trkpt>
      <trkpt lat="44.977652002125978" lon="3.174464022740722">
        <ele>785.04999999999995</ele>
        <time>2025-04-25T07:56:08Z</time>
      </trkpt>
      <trkpt lat="44.978286009281874" lon="3.174137966707349">
        <ele>779.28999999999996</ele>
        <time>2025-04-25T07:56:14Z</time>
      </trkpt>
      <trkpt lat="44.97838499955833" lon="3.174124974757433">
        <ele>778.32000000000005</ele>
        <time>2025-04-25T07:56:15Z</time>
      </trkpt>
      <trkpt lat="44.978479966521263" lon="3.174177026376128">
        <ele>777.36000000000001</ele>
        <time>2025-04-25T07:56:16Z</time>
      </trkpt>
      <trkpt lat="44.978562025353312" lon="3.174240980297327">
        <ele>776.39999999999998</ele>
        <time>2025-04-25T07:56:17Z</time>
      </trkpt>
      <trkpt lat="44.978626985102892" lon="3.174341982230544">
        <ele>775.44000000000005</ele>
        <time>2025-04-25T07:56:18Z</time>
      </trkpt>
      <trkpt lat="44.978694962337613" lon="3.174446001648903">
        <ele>774.48000000000002</ele>
        <time>2025-04-25T07:56:19Z</time>
      </trkpt>
      <trkpt lat="44.978846004232764" lon="3.174648005515337">
        <ele>772.08000000000004</ele>
        <time>2025-04-25T07:56:21Z</time>
      </trkpt>
      <trkpt lat="44.978930996730924" lon="3.174672983586788">
        <ele>770.63</ele>
        <time>2025-04-25T07:56:22Z</time>
      </trkpt>
      <trkpt lat="44.979014983400702" lon="3.174697039648891">
        <ele>769.66999999999996</ele>
        <time>2025-04-25T07:56:23Z</time>
      </trkpt>
      <trkpt lat="44.979294016957283" lon="3.174779014661908">
        <ele>766.78999999999996</ele>
        <time>2025-04-25T07:56:26Z</time>
      </trkpt>
      <trkpt lat="44.979378003627062" lon="3.174766022711992">
        <ele>765.83000000000004</ele>
        <time>2025-04-25T07:56:27Z</time>
      </trkpt>
      <trkpt lat="44.979467019438744" lon="3.174711037427187">
        <ele>764.87</ele>
        <time>2025-04-25T07:56:28Z</time>
      </trkpt>
      <trkpt lat="44.979557963088155" lon="3.174654962494969">
        <ele>763.41999999999996</ele>
        <time>2025-04-25T07:56:29Z</time>
      </trkpt>
      <trkpt lat="44.979639016091824" lon="3.174561001360416">
        <ele>761.98000000000002</ele>
        <time>2025-04-25T07:56:30Z</time>
      </trkpt>
      <trkpt lat="44.979689978063107" lon="3.174433009698987">
        <ele>760.53999999999996</ele>
        <time>2025-04-25T07:56:31Z</time>
      </trkpt>
      <trkpt lat="44.979741023853421" lon="3.174307029694319">
        <ele>759.10000000000002</ele>
        <time>2025-04-25T07:56:32Z</time>
      </trkpt>
      <trkpt lat="44.979790979996324" lon="3.174184989184141">
        <ele>757.65999999999997</ele>
        <time>2025-04-25T07:56:33Z</time>
      </trkpt>
      <trkpt lat="44.979862980544567" lon="3.174093039706349">
        <ele>756.69000000000005</ele>
        <time>2025-04-25T07:56:34Z</time>
      </trkpt>
      <trkpt lat="44.979949984699488" lon="3.173995977267623">
        <ele>756.21000000000004</ele>
        <time>2025-04-25T07:56:35Z</time>
      </trkpt>
      <trkpt lat="44.980056015774608" lon="3.173981979489327">
        <ele>755.25</ele>
        <time>2025-04-25T07:56:36Z</time>
      </trkpt>
      <trkpt lat="44.980160035192966" lon="3.173968987539411">
        <ele>754.76999999999998</ele>
        <time>2025-04-25T07:56:37Z</time>
      </trkpt>
      <trkpt lat="44.980603018775582" lon="3.173911990597844">
        <ele>751.88999999999999</ele>
        <time>2025-04-25T07:56:41Z</time>
      </trkpt>
      <trkpt lat="44.980625985190272" lon="3.173888018354774">
        <ele>751.40999999999997</ele>
        <time>2025-04-25T07:56:42Z</time>
      </trkpt>
      <trkpt lat="44.98066496104002" lon="3.173774024471641">
        <ele>750.92999999999995</ele>
        <time>2025-04-25T07:56:43Z</time>
      </trkpt>
      <trkpt lat="44.980638977140188" lon="3.173663970082998">
        <ele>750.45000000000005</ele>
        <time>2025-04-25T07:56:44Z</time>
      </trkpt>
      <trkpt lat="44.980586003512144" lon="3.173595992848277">
        <ele>749.97000000000003</ele>
        <time>2025-04-25T07:56:45Z</time>
      </trkpt>
      <trkpt lat="44.980521965771914" lon="3.173570008948445">
        <ele>749.49000000000001</ele>
        <time>2025-04-25T07:56:46Z</time>
      </trkpt>
      <trkpt lat="44.98044703155756" lon="3.173561962321401">
        <ele>749</ele>
        <time>2025-04-25T07:56:47Z</time>
      </trkpt>
      <trkpt lat="44.980360027402639" lon="3.173553999513388">
        <ele>749</ele>
        <time>2025-04-25T07:56:48Z</time>
      </trkpt>
      <trkpt lat="44.980271011590958" lon="3.173546036705375">
        <ele>749</ele>
        <time>2025-04-25T07:56:49Z</time>
      </trkpt>
      <trkpt lat="44.980185013264418" lon="3.173538995906711">
        <ele>748.51999999999998</ele>
        <time>2025-04-25T07:56:51Z</time>
      </trkpt>
      <trkpt lat="44.979324024170637" lon="3.173461966216564">
        <ele>747.08000000000004</ele>
        <time>2025-04-25T07:56:59Z</time>
      </trkpt>
      <trkpt lat="44.979239031672478" lon="3.173394994810224">
        <ele>747.08000000000004</ele>
        <time>2025-04-25T07:57:00Z</time>
      </trkpt>
      <trkpt lat="44.979143980890512" lon="3.173311008140445">
        <ele>747.08000000000004</ele>
        <time>2025-04-25T07:57:01Z</time>
      </trkpt>
      <trkpt lat="44.979082038626075" lon="3.173221992328763">
        <ele>747.08000000000004</ele>
        <time>2025-04-25T07:57:02Z</time>
      </trkpt>
      <trkpt lat="44.97901096008718" lon="3.173118978738785">
        <ele>747.08000000000004</ele>
        <time>2025-04-25T07:57:03Z</time>
      </trkpt>
      <trkpt lat="44.978683982044458" lon="3.172685969620943">
        <ele>747.08000000000004</ele>
        <time>2025-04-25T07:57:07Z</time>
      </trkpt>
      <trkpt lat="44.978590020909905" lon="3.172600977122784">
        <ele>747.08000000000004</ele>
        <time>2025-04-25T07:57:08Z</time>
      </trkpt>
      <trkpt lat="44.978395979851484" lon="3.172480026260018">
        <ele>746.60000000000002</ele>
        <time>2025-04-25T07:57:10Z</time>
      </trkpt>
      <trkpt lat="44.978293972089887" lon="3.172433003783226">
        <ele>746.60000000000002</ele>
        <time>2025-04-25T07:57:11Z</time>
      </trkpt>
      <trkpt lat="44.978191964328289" lon="3.172407019883394">
        <ele>746.12</ele>
        <time>2025-04-25T07:57:12Z</time>
      </trkpt>
      <trkpt lat="44.978086017072201" lon="3.172401990741491">
        <ele>746.12</ele>
        <time>2025-04-25T07:57:13Z</time>
      </trkpt>
      <trkpt lat="44.977980991825461" lon="3.172396961599588">
        <ele>745.63999999999999</ele>
        <time>2025-04-25T07:57:14Z</time>
      </trkpt>
      <trkpt lat="44.977796003222466" lon="3.172387992963195">
        <ele>745.15999999999997</ele>
        <time>2025-04-25T07:57:16Z</time>
      </trkpt>
      <trkpt lat="44.97774001210928" lon="3.172304006293416">
        <ele>744.67999999999995</ele>
        <time>2025-04-25T07:57:17Z</time>
      </trkpt>
      <trkpt lat="44.977685026824474" lon="3.172214990481734">
        <ele>744.67999999999995</ele>
        <time>2025-04-25T07:57:18Z</time>
      </trkpt>
      <trkpt lat="44.977625012397766" lon="3.17211901769042">
        <ele>744.20000000000005</ele>
        <time>2025-04-25T07:57:19Z</time>
      </trkpt>
      <trkpt lat="44.977564997971058" lon="3.172021033242345">
        <ele>744.20000000000005</ele>
        <time>2025-04-25T07:57:20Z</time>
      </trkpt>
      <trkpt lat="44.977502971887589" lon="3.171931011602283">
        <ele>743.72000000000003</ele>
        <time>2025-04-25T07:57:21Z</time>
      </trkpt>
      <trkpt lat="44.977414039894938" lon="3.171874014660716">
        <ele>743.24000000000001</ele>
        <time>2025-04-25T07:57:22Z</time>
      </trkpt>
      <trkpt lat="44.977215975522995" lon="3.171748034656048">
        <ele>742.27999999999997</ele>
        <time>2025-04-25T07:57:24Z</time>
      </trkpt>
      <trkpt lat="44.977114973589778" lon="3.171685002744198">
        <ele>741.78999999999996</ele>
        <time>2025-04-25T07:57:25Z</time>
      </trkpt>
      <trkpt lat="44.977006008848548" lon="3.171640997752547">
        <ele>741.78999999999996</ele>
        <time>2025-04-25T07:57:26Z</time>
      </trkpt>
      <trkpt lat="44.976868964731693" lon="3.171659018844366">
        <ele>741.78999999999996</ele>
        <time>2025-04-25T07:57:27Z</time>
      </trkpt>
      <trkpt lat="44.976798975840211" lon="3.171699000522494">
        <ele>741.30999999999995</ele>
        <time>2025-04-25T07:57:28Z</time>
      </trkpt>
      <trkpt lat="44.976705014705658" lon="3.171752979978919">
        <ele>741.30999999999995</ele>
        <time>2025-04-25T07:57:29Z</time>
      </trkpt>
      <trkpt lat="44.976510973647237" lon="3.171864962205291">
        <ele>740.35000000000002</ele>
        <time>2025-04-25T07:57:31Z</time>
      </trkpt>
      <trkpt lat="44.976411983370781" lon="3.171921959146857">
        <ele>740.35000000000002</ele>
        <time>2025-04-25T07:57:32Z</time>
      </trkpt>
      <trkpt lat="44.976316010579467" lon="3.171978034079075">
        <ele>740.35000000000002</ele>
        <time>2025-04-25T07:57:33Z</time>
      </trkpt>
      <trkpt lat="44.976208973675966" lon="3.171970993280411">
        <ele>740.35000000000002</ele>
        <time>2025-04-25T07:57:34Z</time>
      </trkpt>
      <trkpt lat="44.97610897757113" lon="3.171962024644017">
        <ele>740.35000000000002</ele>
        <time>2025-04-25T07:57:35Z</time>
      </trkpt>
      <trkpt lat="44.976005963981152" lon="3.171952972188592">
        <ele>740.35000000000002</ele>
        <time>2025-04-25T07:57:36Z</time>
      </trkpt>
      <trkpt lat="44.975902028381824" lon="3.171942997723818">
        <ele>740.83000000000004</ele>
        <time>2025-04-25T07:57:37Z</time>
      </trkpt>
      <trkpt lat="44.975795997306705" lon="3.171948026865721">
        <ele>740.83000000000004</ele>
        <time>2025-04-25T07:57:38Z</time>
      </trkpt>
      <trkpt lat="44.975688960403204" lon="3.171975016593933">
        <ele>741.78999999999996</ele>
        <time>2025-04-25T07:57:39Z</time>
      </trkpt>
      <trkpt lat="44.975585024803877" lon="3.172001000493765">
        <ele>742.27999999999997</ele>
        <time>2025-04-25T07:57:40Z</time>
      </trkpt>
      <trkpt lat="44.975479999557137" lon="3.172031007707119">
        <ele>742.75999999999999</ele>
        <time>2025-04-25T07:57:41Z</time>
      </trkpt>
      <trkpt lat="44.975374974310398" lon="3.172080041840673">
        <ele>743.24000000000001</ele>
        <time>2025-04-25T07:57:42Z</time>
      </trkpt>
      <trkpt lat="44.975173976272345" lon="3.172175008803606">
        <ele>744.20000000000005</ele>
        <time>2025-04-25T07:57:44Z</time>
      </trkpt>
      <trkpt lat="44.975090995430946" lon="3.172238962724805">
        <ele>744.67999999999995</ele>
        <time>2025-04-25T07:57:45Z</time>
      </trkpt>
      <trkpt lat="44.974680030718446" lon="3.172710025683045">
        <ele>747.08000000000004</ele>
        <time>2025-04-25T07:57:51Z</time>
      </trkpt>
      <trkpt lat="44.974595960229635" lon="3.172710025683045">
        <ele>747.55999999999995</ele>
        <time>2025-04-25T07:57:52Z</time>
      </trkpt>
      <trkpt lat="44.974529994651675" lon="3.172710025683045">
        <ele>747.55999999999995</ele>
        <time>2025-04-25T07:57:53Z</time>
      </trkpt>
      <trkpt lat="44.974498981609941" lon="3.172688987106085">
        <ele>747.55999999999995</ele>
        <time>2025-04-25T07:57:54Z</time>
      </trkpt>
      <trkpt lat="44.974456988275051" lon="3.172660991549492">
        <ele>747.55999999999995</ele>
        <time>2025-04-25T07:57:55Z</time>
      </trkpt>
      <trkpt lat="44.974402002990246" lon="3.172624027356505">
        <ele>748.03999999999996</ele>
        <time>2025-04-25T07:57:56Z</time>
      </trkpt>
      <trkpt lat="44.974379958584905" lon="3.172606006264687">
        <ele>748.03999999999996</ele>
        <time>2025-04-25T07:57:57Z</time>
      </trkpt>
      <trkpt lat="44.974351041018963" lon="3.172582034021616">
        <ele>748.03999999999996</ele>
        <time>2025-04-25T07:57:58Z</time>
      </trkpt>
      <trkpt lat="44.974331008270383" lon="3.172566024586558">
        <ele>748.03999999999996</ele>
        <time>2025-04-25T07:57:59Z</time>
      </trkpt>
      <trkpt lat="44.974310975521803" lon="3.17254900932312">
        <ele>747.55999999999995</ele>
        <time>2025-04-25T07:58:00Z</time>
      </trkpt>
      <trkpt lat="44.974310975521803" lon="3.17254900932312">
        <ele>747.55999999999995</ele>
        <time>2025-04-25T07:58:09Z</time>
      </trkpt>
      <trkpt lat="44.974310975521803" lon="3.17254900932312">
        <ele>747.55999999999995</ele>
        <time>2025-04-25T07:58:41Z</time>
      </trkpt>
      <trkpt lat="44.974310975521803" lon="3.17254900932312">
        <ele>748.03999999999996</ele>
        <time>2025-04-25T07:59:45Z</time>
      </trkpt>
      <trkpt lat="44.974310975521803" lon="3.17254900932312">
        <ele>749.49000000000001</ele>
        <time>2025-04-25T08:00:08Z</time>
      </trkpt>
      <trkpt lat="44.97428297996521" lon="3.172525959089398">
        <ele>749.49000000000001</ele>
        <time>2025-04-25T08:00:16Z</time>
      </trkpt>
      <trkpt lat="44.974273005500436" lon="3.172516990453005">
        <ele>749.49000000000001</ele>
        <time>2025-04-25T08:00:17Z</time>
      </trkpt>
      <trkpt lat="44.974250039085746" lon="3.172559989616275">
        <ele>749.97000000000003</ele>
        <time>2025-04-25T08:00:18Z</time>
      </trkpt>
      <trkpt lat="44.973710998892784" lon="3.17336599342525">
        <ele>749.97000000000003</ele>
        <time>2025-04-25T08:00:28Z</time>
      </trkpt>
      <trkpt lat="44.973022006452084" lon="3.174300994724035">
        <ele>750.45000000000005</ele>
        <time>2025-04-25T08:00:37Z</time>
      </trkpt>
      <trkpt lat="44.97297003865242" lon="3.174371989443898">
        <ele>750.45000000000005</ele>
        <time>2025-04-25T08:00:38Z</time>
      </trkpt>
      <trkpt lat="44.972932990640402" lon="3.174424041062594">
        <ele>750.45000000000005</ele>
        <time>2025-04-25T08:00:39Z</time>
      </trkpt>
      <trkpt lat="44.972841963171959" lon="3.174367966130376">
        <ele>750.45000000000005</ele>
        <time>2025-04-25T08:00:40Z</time>
      </trkpt>
      <trkpt lat="44.972804998978972" lon="3.174305018037558">
        <ele>750.92999999999995</ele>
        <time>2025-04-25T08:00:41Z</time>
      </trkpt>
      <trkpt lat="44.972769962623715" lon="3.174242991954088">
        <ele>750.92999999999995</ele>
        <time>2025-04-25T08:00:42Z</time>
      </trkpt>
      <trkpt lat="44.972723023965955" lon="3.174161016941071">
        <ele>751.40999999999997</ele>
        <time>2025-04-25T08:00:43Z</time>
      </trkpt>
      <trkpt lat="44.972516996785998" lon="3.173874020576477">
        <ele>750.92999999999995</ele>
        <time>2025-04-25T08:00:46Z</time>
      </trkpt>
      <trkpt lat="44.972441978752613" lon="3.173788022249937">
        <ele>750.45000000000005</ele>
        <time>2025-04-25T08:00:47Z</time>
      </trkpt>
      <trkpt lat="44.972363021224737" lon="3.173696994781494">
        <ele>749.97000000000003</ele>
        <time>2025-04-25T08:00:48Z</time>
      </trkpt>
      <trkpt lat="44.972249027341604" lon="3.173634968698025">
        <ele>749.49000000000001</ele>
        <time>2025-04-25T08:00:49Z</time>
      </trkpt>
      <trkpt lat="44.972139978781343" lon="3.173570008948445">
        <ele>749</ele>
        <time>2025-04-25T08:00:50Z</time>
      </trkpt>
      <trkpt lat="44.972024979069829" lon="3.173503959551454">
        <ele>748.03999999999996</ele>
        <time>2025-04-25T08:00:51Z</time>
      </trkpt>
      <trkpt lat="44.971911991015077" lon="3.173440005630255">
        <ele>747.55999999999995</ele>
        <time>2025-04-25T08:00:52Z</time>
      </trkpt>
      <trkpt lat="44.971830016002059" lon="3.173368005082011">
        <ele>747.08000000000004</ele>
        <time>2025-04-25T08:00:53Z</time>
      </trkpt>
      <trkpt lat="44.971743011847138" lon="3.173290975391865">
        <ele>746.60000000000002</ele>
        <time>2025-04-25T08:00:54Z</time>
      </trkpt>
      <trkpt lat="44.97127203270793" lon="3.17274103872478">
        <ele>745.63999999999999</ele>
        <time>2025-04-25T08:01:00Z</time>
      </trkpt>
      <trkpt lat="44.971269015222788" lon="3.17265403456986">
        <ele>744.67999999999995</ele>
        <time>2025-04-25T08:01:01Z</time>
      </trkpt>
      <trkpt lat="44.971279995515943" lon="3.172554960474372">
        <ele>744.67999999999995</ele>
        <time>2025-04-25T08:01:02Z</time>
      </trkpt>
      <trkpt lat="44.97133900411427" lon="3.172424035146833">
        <ele>744.67999999999995</ele>
        <time>2025-04-25T08:01:03Z</time>
      </trkpt>
      <trkpt lat="44.971409998834133" lon="3.172262012958527">
        <ele>745.15999999999997</ele>
        <time>2025-04-25T08:01:04Z</time>
      </trkpt>
      <trkpt lat="44.971564980223775" lon="3.171915002167225">
        <ele>745.63999999999999</ele>
        <time>2025-04-25T08:01:06Z</time>
      </trkpt>
      <trkpt lat="44.971630023792386" lon="3.171719033271074">
        <ele>745.63999999999999</ele>
        <time>2025-04-25T08:01:07Z</time>
      </trkpt>
      <trkpt lat="44.971714010462165" lon="3.171298010274768">
        <ele>746.12</ele>
        <time>2025-04-25T08:01:09Z</time>
      </trkpt>
      <trkpt lat="44.9718969874084" lon="3.169324994087219">
        <ele>748.51999999999998</ele>
        <time>2025-04-25T08:01:17Z</time>
      </trkpt>
      <trkpt lat="44.971910985186696" lon="3.169097006320953">
        <ele>749</ele>
        <time>2025-04-25T08:01:18Z</time>
      </trkpt>
      <trkpt lat="44.971905034035444" lon="3.168867006897926">
        <ele>749.49000000000001</ele>
        <time>2025-04-25T08:01:19Z</time>
      </trkpt>
      <trkpt lat="44.971893969923258" lon="3.168431986123323">
        <ele>749.97000000000003</ele>
        <time>2025-04-25T08:01:21Z</time>
      </trkpt>
      <trkpt lat="44.971908973529935" lon="3.168238028883934">
        <ele>749.97000000000003</ele>
        <time>2025-04-25T08:01:22Z</time>
      </trkpt>
      <trkpt lat="44.971980974078178" lon="3.168071983382106">
        <ele>749.97000000000003</ele>
        <time>2025-04-25T08:01:23Z</time>
      </trkpt>
      <trkpt lat="44.972088010981679" lon="3.167921025305986">
        <ele>749.97000000000003</ele>
        <time>2025-04-25T08:01:24Z</time>
      </trkpt>
      <trkpt lat="44.97219798155129" lon="3.167764032259584">
        <ele>749.97000000000003</ele>
        <time>2025-04-25T08:01:25Z</time>
      </trkpt>
      <trkpt lat="44.972299989312887" lon="3.167619025334716">
        <ele>749.97000000000003</ele>
        <time>2025-04-25T08:01:26Z</time>
      </trkpt>
      <trkpt lat="44.972371989861131" lon="3.167440993711352">
        <ele>749.97000000000003</ele>
        <time>2025-04-25T08:01:27Z</time>
      </trkpt>
      <trkpt lat="44.972432004287839" lon="3.167210994288325">
        <ele>750.45000000000005</ele>
        <time>2025-04-25T08:01:28Z</time>
      </trkpt>
      <trkpt lat="44.973012031987309" lon="3.165092971175909">
        <ele>751.40999999999997</ele>
        <time>2025-04-25T08:01:36Z</time>
      </trkpt>
      <trkpt lat="44.973180005326867" lon="3.164653005078435">
        <ele>751.88999999999999</ele>
        <time>2025-04-25T08:01:38Z</time>
      </trkpt>
      <trkpt lat="44.973278995603323" lon="3.1644700281322">
        <ele>751.88999999999999</ele>
        <time>2025-04-25T08:01:39Z</time>
      </trkpt>
      <trkpt lat="44.973373040556908" lon="3.16429803147912">
        <ele>751.88999999999999</ele>
        <time>2025-04-25T08:01:40Z</time>
      </trkpt>
      <trkpt lat="44.973456021398306" lon="3.164143972098827">
        <ele>751.40999999999997</ele>
        <time>2025-04-25T08:01:41Z</time>
      </trkpt>
      <trkpt lat="44.973505977541208" lon="3.164000976830721">
        <ele>751.40999999999997</ele>
        <time>2025-04-25T08:01:42Z</time>
      </trkpt>
      <trkpt lat="44.973517041653395" lon="3.163879020139575">
        <ele>751.40999999999997</ele>
        <time>2025-04-25T08:01:43Z</time>
      </trkpt>
      <trkpt lat="44.973478987812996" lon="3.163782963529229">
        <ele>751.40999999999997</ele>
        <time>2025-04-25T08:01:44Z</time>
      </trkpt>
      <trkpt lat="44.973424002528191" lon="3.163727978244424">
        <ele>751.40999999999997</ele>
        <time>2025-04-25T08:01:45Z</time>
      </trkpt>
      <trkpt lat="44.973367005586624" lon="3.163678022101522">
        <ele>751.40999999999997</ele>
        <time>2025-04-25T08:01:46Z</time>
      </trkpt>
      <trkpt lat="44.973282013088465" lon="3.163704006001353">
        <ele>751.40999999999997</ele>
        <time>2025-04-25T08:01:47Z</time>
      </trkpt>
      <trkpt lat="44.973169025033712" lon="3.163738958537579">
        <ele>751.40999999999997</ele>
        <time>2025-04-25T08:01:48Z</time>
      </trkpt>
      <trkpt lat="44.973037010058761" lon="3.1637810356915">
        <ele>751.40999999999997</ele>
        <time>2025-04-25T08:01:49Z</time>
      </trkpt>
      <trkpt lat="44.9725859798491" lon="3.164097033441067">
        <ele>750.92999999999995</ele>
        <time>2025-04-25T08:01:52Z</time>
      </trkpt>
      <trkpt lat="44.972120029851794" lon="3.164506992325187">
        <ele>749.49000000000001</ele>
        <time>2025-04-25T08:01:55Z</time>
      </trkpt>
      <trkpt lat="44.971984997391701" lon="3.164560971781611">
        <ele>749</ele>
        <time>2025-04-25T08:01:56Z</time>
      </trkpt>
      <trkpt lat="44.971836972981691" lon="3.164576981216669">
        <ele>749</ele>
        <time>2025-04-25T08:01:57Z</time>
      </trkpt>
      <trkpt lat="44.971689032390714" lon="3.164515038952231">
        <ele>748.51999999999998</ele>
        <time>2025-04-25T08:01:58Z</time>
      </trkpt>
      <trkpt lat="44.971527010202408" lon="3.16440599039197">
        <ele>748.51999999999998</ele>
        <time>2025-04-25T08:01:59Z</time>
      </trkpt>
      <trkpt lat="44.971362976357341" lon="3.164275987073779">
        <ele>748.03999999999996</ele>
        <time>2025-04-25T08:02:00Z</time>
      </trkpt>
      <trkpt lat="44.971058964729309" lon="3.164031989872456">
        <ele>748.03999999999996</ele>
        <time>2025-04-25T08:02:02Z</time>
      </trkpt>
      <trkpt lat="44.970925021916628" lon="3.163970969617367">
        <ele>748.03999999999996</ele>
        <time>2025-04-25T08:02:03Z</time>
      </trkpt>
      <trkpt lat="44.970784038305283" lon="3.163957977667451">
        <ele>747.55999999999995</ele>
        <time>2025-04-25T08:02:04Z</time>
      </trkpt>
      <trkpt lat="44.970628973096609" lon="3.16399703733623">
        <ele>747.55999999999995</ele>
        <time>2025-04-25T08:02:05Z</time>
      </trkpt>
      <trkpt lat="44.970481032505631" lon="3.164079012349248">
        <ele>747.08000000000004</ele>
        <time>2025-04-25T08:02:06Z</time>
      </trkpt>
      <trkpt lat="44.970343988388777" lon="3.164182025939226">
        <ele>747.08000000000004</ele>
        <time>2025-04-25T08:02:07Z</time>
      </trkpt>
      <trkpt lat="44.970233011990786" lon="3.164310017600656">
        <ele>747.08000000000004</ele>
        <time>2025-04-25T08:02:08Z</time>
      </trkpt>
      <trkpt lat="44.970172997564077" lon="3.164468016475439">
        <ele>747.08000000000004</ele>
        <time>2025-04-25T08:02:09Z</time>
      </trkpt>
      <trkpt lat="44.970136033371091" lon="3.164643030613661">
        <ele>746.60000000000002</ele>
        <time>2025-04-25T08:02:10Z</time>
      </trkpt>
      <trkpt lat="44.970109965652227" lon="3.164820978417993">
        <ele>746.60000000000002</ele>
        <time>2025-04-25T08:02:11Z</time>
      </trkpt>
      <trkpt lat="44.970034025609493" lon="3.1653300113976">
        <ele>746.12</ele>
        <time>2025-04-25T08:02:14Z</time>
      </trkpt>
      <trkpt lat="44.969980968162417" lon="3.165435958653688">
        <ele>745.63999999999999</ele>
        <time>2025-04-25T08:02:15Z</time>
      </trkpt>
      <trkpt lat="44.969884995371103" lon="3.165493961423636">
        <ele>745.63999999999999</ele>
        <time>2025-04-25T08:02:16Z</time>
      </trkpt>
      <trkpt lat="44.969804026186466" lon="3.16548096947372">
        <ele>745.63999999999999</ele>
        <time>2025-04-25T08:02:17Z</time>
      </trkpt>
      <trkpt lat="44.96970796957612" lon="3.165454985573888">
        <ele>746.12</ele>
        <time>2025-04-25T08:02:18Z</time>
      </trkpt>
      <trkpt lat="44.969601016491652" lon="3.165405029430986">
        <ele>746.60000000000002</ele>
        <time>2025-04-25T08:02:19Z</time>
      </trkpt>
      <trkpt lat="44.968798030167818" lon="3.16466398537159">
        <ele>747.55999999999995</ele>
        <time>2025-04-25T08:02:25Z</time>
      </trkpt>
      <trkpt lat="44.968173997476697" lon="3.164184959605336">
        <ele>749</ele>
        <time>2025-04-25T08:02:29Z</time>
      </trkpt>
      <trkpt lat="44.967985991388559" lon="3.16410499624908">
        <ele>749</ele>
        <time>2025-04-25T08:02:30Z</time>
      </trkpt>
      <trkpt lat="44.96781500056386" lon="3.164098961278796">
        <ele>749.49000000000001</ele>
        <time>2025-04-25T08:02:31Z</time>
      </trkpt>
      <trkpt lat="44.966170974075794" lon="3.164031989872456">
        <ele>752.37</ele>
        <time>2025-04-25T08:02:39Z</time>
      </trkpt>
      <trkpt lat="44.965779036283493" lon="3.164043975993991">
        <ele>752.85000000000002</ele>
        <time>2025-04-25T08:02:41Z</time>
      </trkpt>
      <trkpt lat="44.965589018538594" lon="3.164100972935557">
        <ele>753.33000000000004</ele>
        <time>2025-04-25T08:02:42Z</time>
      </trkpt>
      <trkpt lat="44.965391959995031" lon="3.164159981533885">
        <ele>753.80999999999995</ele>
        <time>2025-04-25T08:02:43Z</time>
      </trkpt>
      <trkpt lat="44.964821990579367" lon="3.164329966530204">
        <ele>754.76999999999998</ele>
        <time>2025-04-25T08:02:46Z</time>
      </trkpt>
      <trkpt lat="44.964638007804751" lon="3.16438402980566">
        <ele>755.25</ele>
        <time>2025-04-25T08:02:47Z</time>
      </trkpt>
      <trkpt lat="44.964528037235141" lon="3.164325021207333">
        <ele>755.73000000000002</ele>
        <time>2025-04-25T08:02:48Z</time>
      </trkpt>
      <trkpt lat="44.964358974248171" lon="3.16423399373889">
        <ele>755.73000000000002</ele>
        <time>2025-04-25T08:02:49Z</time>
      </trkpt>
      <trkpt lat="44.964281022548676" lon="3.16410499624908">
        <ele>756.21000000000004</ele>
        <time>2025-04-25T08:02:50Z</time>
      </trkpt>
      <trkpt lat="44.964179014787078" lon="3.163937022909522">
        <ele>756.69000000000005</ele>
        <time>2025-04-25T08:02:51Z</time>
      </trkpt>
      <trkpt lat="44.964073989540339" lon="3.163763014599681">
        <ele>757.17999999999995</ele>
        <time>2025-04-25T08:02:52Z</time>
      </trkpt>
      <trkpt lat="44.96396997012198" lon="3.163592023774982">
        <ele>757.17999999999995</ele>
        <time>2025-04-25T08:02:53Z</time>
      </trkpt>
      <trkpt lat="44.963833009824157" lon="3.163467971608043">
        <ele>757.17999999999995</ele>
        <time>2025-04-25T08:02:54Z</time>
      </trkpt>
      <trkpt lat="44.963678028434515" lon="3.16337501630187">
        <ele>757.65999999999997</ele>
        <time>2025-04-25T08:02:55Z</time>
      </trkpt>
      <trkpt lat="44.963493961840868" lon="3.163355989381671">
        <ele>757.65999999999997</ele>
        <time>2025-04-25T08:02:56Z</time>
      </trkpt>
      <trkpt lat="44.963311990723014" lon="3.163393037393689">
        <ele>758.13999999999999</ele>
        <time>2025-04-25T08:02:57Z</time>
      </trkpt>
      <trkpt lat="44.963111998513341" lon="3.163433019071817">
        <ele>758.13999999999999</ele>
        <time>2025-04-25T08:02:58Z</time>
      </trkpt>
      <trkpt lat="44.961656983941793" lon="3.163716997951269">
        <ele>759.58000000000004</ele>
        <time>2025-04-25T08:03:05Z</time>
      </trkpt>
      <trkpt lat="44.961500996723771" lon="3.163707023486495">
        <ele>760.05999999999995</ele>
        <time>2025-04-25T08:03:06Z</time>
      </trkpt>
      <trkpt lat="44.961331011727452" lon="3.163673998787999">
        <ele>761.01999999999998</ele>
        <time>2025-04-25T08:03:07Z</time>
      </trkpt>
      <trkpt lat="44.961225986480713" lon="3.163541983813047">
        <ele>761.98000000000002</ele>
        <time>2025-04-25T08:03:08Z</time>
      </trkpt>
      <trkpt lat="44.961172007024288" lon="3.163426984101534">
        <ele>762.94000000000005</ele>
        <time>2025-04-25T08:03:09Z</time>
      </trkpt>
      <trkpt lat="44.961110986769199" lon="3.163235038518906">
        <ele>763.89999999999998</ele>
        <time>2025-04-25T08:03:10Z</time>
      </trkpt>
      <trkpt lat="44.961092965677381" lon="3.163082990795374">
        <ele>764.87</ele>
        <time>2025-04-25T08:03:11Z</time>
      </trkpt>
      <trkpt lat="44.961074022576213" lon="3.162910994142294">
        <ele>766.30999999999995</ele>
        <time>2025-04-25T08:03:12Z</time>
      </trkpt>
      <trkpt lat="44.96091702952981" lon="3.161551030352712">
        <ele>780.25</ele>
        <time>2025-04-25T08:03:18Z</time>
      </trkpt>
      <trkpt lat="44.960882999002934" lon="3.161273002624512">
        <ele>782.16999999999996</ele>
        <time>2025-04-25T08:03:19Z</time>
      </trkpt>
      <trkpt lat="44.96083396486938" lon="3.161162026226521">
        <ele>784.57000000000005</ele>
        <time>2025-04-25T08:03:20Z</time>
      </trkpt>
      <trkpt lat="44.960731035098433" lon="3.161003021523356">
        <ele>786.98000000000002</ele>
        <time>2025-04-25T08:03:21Z</time>
      </trkpt>
      <trkpt lat="44.960594996809959" lon="3.160892967134714">
        <ele>788.89999999999998</ele>
        <time>2025-04-25T08:03:22Z</time>
      </trkpt>
      <trkpt lat="44.960440015420318" lon="3.160848040133715">
        <ele>790.82000000000005</ele>
        <time>2025-04-25T08:03:23Z</time>
      </trkpt>
      <trkpt lat="44.960283022373915" lon="3.160859020426869">
        <ele>792.74000000000001</ele>
        <time>2025-04-25T08:03:24Z</time>
      </trkpt>
      <trkpt lat="44.960107002407312" lon="3.160872012376785">
        <ele>795.14999999999998</ele>
        <time>2025-04-25T08:03:25Z</time>
      </trkpt>
      <trkpt lat="44.959935005754232" lon="3.160883998498321">
        <ele>796.59000000000003</ele>
        <time>2025-04-25T08:03:26Z</time>
      </trkpt>
      <trkpt lat="44.959777006879449" lon="3.160850973799825">
        <ele>798.02999999999997</ele>
        <time>2025-04-25T08:03:27Z</time>
      </trkpt>
      <trkpt lat="44.959627976641059" lon="3.160772016271949">
        <ele>799.47000000000003</ele>
        <time>2025-04-25T08:03:28Z</time>
      </trkpt>
      <trkpt lat="44.959484981372952" lon="3.160640001296997">
        <ele>800.91999999999996</ele>
        <time>2025-04-25T08:03:29Z</time>
      </trkpt>
      <trkpt lat="44.959350032731891" lon="3.160489965230227">
        <ele>802.36000000000001</ele>
        <time>2025-04-25T08:03:30Z</time>
      </trkpt>
      <trkpt lat="44.959237966686487" lon="3.160291984677315">
        <ele>804.75999999999999</ele>
        <time>2025-04-25T08:03:31Z</time>
      </trkpt>
      <trkpt lat="44.959125984460115" lon="3.160096015781164">
        <ele>806.67999999999995</ele>
        <time>2025-04-25T08:03:32Z</time>
      </trkpt>
      <trkpt lat="44.959009978920221" lon="3.159914966672659">
        <ele>808.61000000000001</ele>
        <time>2025-04-25T08:03:33Z</time>
      </trkpt>
      <trkpt lat="44.958862038329244" lon="3.159769037738442">
        <ele>810.52999999999997</ele>
        <time>2025-04-25T08:03:34Z</time>
      </trkpt>
      <trkpt lat="44.958696998655796" lon="3.159677004441619">
        <ele>811.97000000000003</ele>
        <time>2025-04-25T08:03:35Z</time>
      </trkpt>
      <trkpt lat="44.958509998396039" lon="3.159619001671672">
        <ele>813.40999999999997</ele>
        <time>2025-04-25T08:03:36Z</time>
      </trkpt>
      <trkpt lat="44.958316963165998" lon="3.159566028043628">
        <ele>814.85000000000002</ele>
        <time>2025-04-25T08:03:37Z</time>
      </trkpt>
      <trkpt lat="44.957203008234501" lon="3.15927199088037">
        <ele>824.95000000000005</ele>
        <time>2025-04-25T08:03:44Z</time>
      </trkpt>
      <trkpt lat="44.955908004194498" lon="3.158910982310772">
        <ele>832.63999999999999</ele>
        <time>2025-04-25T08:03:52Z</time>
      </trkpt>
      <trkpt lat="44.954492971301079" lon="3.158101039007306">
        <ele>841.76999999999998</ele>
        <time>2025-04-25T08:03:59Z</time>
      </trkpt>
      <trkpt lat="44.952593967318535" lon="3.157061012461782">
        <ele>848.5</ele>
        <time>2025-04-25T08:04:08Z</time>
      </trkpt>
      <trkpt lat="44.952384000644088" lon="3.156951041892171">
        <ele>848.98000000000002</ele>
        <time>2025-04-25T08:04:09Z</time>
      </trkpt>
      <trkpt lat="44.952175039798021" lon="3.1568200327456">
        <ele>849.94000000000005</ele>
        <time>2025-04-25T08:04:10Z</time>
      </trkpt>
      <trkpt lat="44.951974041759968" lon="3.156642001122236">
        <ele>850.41999999999996</ele>
        <time>2025-04-25T08:04:11Z</time>
      </trkpt>
      <trkpt lat="44.949993984773755" lon="3.155025970190764">
        <ele>859.08000000000004</ele>
        <time>2025-04-25T08:04:20Z</time>
      </trkpt>
      <trkpt lat="44.947391990572214" lon="3.153120009228587">
        <ele>878.29999999999995</ele>
        <time>2025-04-25T08:04:32Z</time>
      </trkpt>
      <trkpt lat="44.944421024993062" lon="3.150758994743228">
        <ele>898.00999999999999</ele>
        <time>2025-04-25T08:04:46Z</time>
      </trkpt>
      <trkpt lat="44.944240981712937" lon="3.150521032512188">
        <ele>898.97000000000003</ele>
        <time>2025-04-25T08:04:47Z</time>
      </trkpt>
      <trkpt lat="44.943376975134015" lon="3.149268021807075">
        <ele>906.17999999999995</ele>
        <time>2025-04-25T08:04:53Z</time>
      </trkpt>
      <trkpt lat="44.94291203096509" lon="3.148547010496259">
        <ele>913.38999999999999</ele>
        <time>2025-04-25T08:05:00Z</time>
      </trkpt>
      <trkpt lat="44.942616987973452" lon="3.148116013035178">
        <ele>915.30999999999995</ele>
        <time>2025-04-25T08:05:05Z</time>
      </trkpt>
      <trkpt lat="44.942531995475292" lon="3.148059016093612">
        <ele>915.78999999999996</ele>
        <time>2025-04-25T08:05:06Z</time>
      </trkpt>
      <trkpt lat="44.942452032119036" lon="3.148030014708638">
        <ele>915.78999999999996</ele>
        <time>2025-04-25T08:05:07Z</time>
      </trkpt>
      <trkpt lat="44.942253967747092" lon="3.148017022758722">
        <ele>917.24000000000001</ele>
        <time>2025-04-25T08:05:09Z</time>
      </trkpt>
      <trkpt lat="44.941489035263658" lon="3.148049963638187">
        <ele>923</ele>
        <time>2025-04-25T08:05:16Z</time>
      </trkpt>
      <trkpt lat="44.941390966996551" lon="3.148037977516651">
        <ele>923.48000000000002</ele>
        <time>2025-04-25T08:05:17Z</time>
      </trkpt>
      <trkpt lat="44.941288037225604" lon="3.148030014708638">
        <ele>923.96000000000004</ele>
        <time>2025-04-25T08:05:18Z</time>
      </trkpt>
      <trkpt lat="44.941181000322104" lon="3.148023979738355">
        <ele>924.45000000000005</ele>
        <time>2025-04-25T08:05:19Z</time>
      </trkpt>
      <trkpt lat="44.941075975075364" lon="3.148018028587103">
        <ele>924.92999999999995</ele>
        <time>2025-04-25T08:05:20Z</time>
      </trkpt>
      <trkpt lat="44.940970027819276" lon="3.148011993616819">
        <ele>925.88999999999999</ele>
        <time>2025-04-25T08:05:21Z</time>
      </trkpt>
      <trkpt lat="44.940882017835975" lon="3.148049041628838">
        <ele>926.37</ele>
        <time>2025-04-25T08:05:22Z</time>
      </trkpt>
      <trkpt lat="44.940784033387899" lon="3.148090029135346">
        <ele>927.33000000000004</ele>
        <time>2025-04-25T08:05:23Z</time>
      </trkpt>
      <trkpt lat="44.940425958484411" lon="3.148239981383085">
        <ele>931.16999999999996</ele>
        <time>2025-04-25T08:05:27Z</time>
      </trkpt>
      <trkpt lat="44.940341971814632" lon="3.148275017738342">
        <ele>932.13999999999999</ele>
        <time>2025-04-25T08:05:28Z</time>
      </trkpt>
      <trkpt lat="44.940048018470407" lon="3.148397980257869">
        <ele>935.98000000000002</ele>
        <time>2025-04-25T08:05:32Z</time>
      </trkpt>
      <trkpt lat="44.940007030963898" lon="3.148365039378405">
        <ele>936.94000000000005</ele>
        <time>2025-04-25T08:05:33Z</time>
      </trkpt>
      <trkpt lat="44.939961014315486" lon="3.148326985538006">
        <ele>937.89999999999998</ele>
        <time>2025-04-25T08:05:34Z</time>
      </trkpt>
      <trkpt lat="44.939919020980597" lon="3.1482910271734">
        <ele>938.86000000000001</ele>
        <time>2025-04-25T08:05:35Z</time>
      </trkpt>
      <trkpt lat="44.939919020980597" lon="3.14824802801013">
        <ele>939.83000000000004</ele>
        <time>2025-04-25T08:05:36Z</time>
      </trkpt>
      <trkpt lat="44.939919020980597" lon="3.148140991106629">
        <ele>940.78999999999996</ele>
        <time>2025-04-25T08:05:37Z</time>
      </trkpt>
      <trkpt lat="44.939956991001964" lon="3.148083994165063">
        <ele>941.75</ele>
        <time>2025-04-25T08:05:38Z</time>
      </trkpt>
      <trkpt lat="44.940017005428672" lon="3.147993972525001">
        <ele>942.23000000000002</ele>
        <time>2025-04-25T08:05:39Z</time>
      </trkpt>
      <trkpt lat="44.940304001793265" lon="3.147531962022185">
        <ele>944.63</ele>
        <time>2025-04-25T08:05:44Z</time>
      </trkpt>
      <trkpt lat="44.940355969592929" lon="3.147446969524026">
        <ele>945.11000000000001</ele>
        <time>2025-04-25T08:05:45Z</time>
      </trkpt>
      <trkpt lat="44.940402992069721" lon="3.147344039753079">
        <ele>946.07000000000005</ele>
        <time>2025-04-25T08:05:46Z</time>
      </trkpt>
      <trkpt lat="44.940497959032655" lon="3.146949000656605">
        <ele>948</ele>
        <time>2025-04-25T08:05:50Z</time>
      </trkpt>
      <trkpt lat="44.940496031194925" lon="3.146714977920055">
        <ele>949.91999999999996</ele>
        <time>2025-04-25T08:05:54Z</time>
      </trkpt>
      <trkpt lat="44.940454959869385" lon="3.146532000973821">
        <ele>951.84000000000003</ele>
        <time>2025-04-25T08:05:59Z</time>
      </trkpt>
      <trkpt lat="44.940397040918469" lon="3.146436028182507">
        <ele>952.32000000000005</ele>
        <time>2025-04-25T08:06:01Z</time>
      </trkpt>
      <trkpt lat="44.940366027876735" lon="3.146384982392192">
        <ele>952.79999999999995</ele>
        <time>2025-04-25T08:06:02Z</time>
      </trkpt>
      <trkpt lat="44.940075008198619" lon="3.146041994914413">
        <ele>953.27999999999997</ele>
        <time>2025-04-25T08:06:08Z</time>
      </trkpt>
      <trkpt lat="44.940003007650375" lon="3.145989021286368">
        <ele>952.79999999999995</ele>
        <time>2025-04-25T08:06:09Z</time>
      </trkpt>
      <trkpt lat="44.939922038465738" lon="3.145932024344802">
        <ele>951.84000000000003</ele>
        <time>2025-04-25T08:06:10Z</time>
      </trkpt>
      <trkpt lat="44.939838973805308" lon="3.145872009918094">
        <ele>950.88</ele>
        <time>2025-04-25T08:06:11Z</time>
      </trkpt>
      <trkpt lat="44.93975599296391" lon="3.145811995491386">
        <ele>949.91999999999996</ele>
        <time>2025-04-25T08:06:12Z</time>
      </trkpt>
      <trkpt lat="44.939682986587286" lon="3.145759021863341">
        <ele>948.96000000000004</ele>
        <time>2025-04-25T08:06:13Z</time>
      </trkpt>
      <trkpt lat="44.939575027674437" lon="3.14571401104331">
        <ele>948.48000000000002</ele>
        <time>2025-04-25T08:06:14Z</time>
      </trkpt>
      <trkpt lat="44.939466984942555" lon="3.145667994394898">
        <ele>948</ele>
        <time>2025-04-25T08:06:15Z</time>
      </trkpt>
      <trkpt lat="44.939356008544564" lon="3.145621977746487">
        <ele>947.51999999999998</ele>
        <time>2025-04-25T08:06:16Z</time>
      </trkpt>
      <trkpt lat="44.938993994146585" lon="3.145512007176876">
        <ele>946.55999999999995</ele>
        <time>2025-04-25T08:06:19Z</time>
      </trkpt>
      <trkpt lat="44.938877988606691" lon="3.145463978871703">
        <ele>946.55999999999995</ele>
        <time>2025-04-25T08:06:20Z</time>
      </trkpt>
      <trkpt lat="44.938768018037081" lon="3.145408993586898">
        <ele>946.55999999999995</ele>
        <time>2025-04-25T08:06:21Z</time>
      </trkpt>
      <trkpt lat="44.93868000805378" lon="3.145325006917119">
        <ele>946.55999999999995</ele>
        <time>2025-04-25T08:06:22Z</time>
      </trkpt>
      <trkpt lat="44.938601972535253" lon="3.145234985277057">
        <ele>946.55999999999995</ele>
        <time>2025-04-25T08:06:23Z</time>
      </trkpt>
      <trkpt lat="44.938527038320899" lon="3.145146975293756">
        <ele>947.03999999999996</ele>
        <time>2025-04-25T08:06:24Z</time>
      </trkpt>
      <trkpt lat="44.938318999484181" lon="3.144769035279751">
        <ele>948</ele>
        <time>2025-04-25T08:06:27Z</time>
      </trkpt>
      <trkpt lat="44.938285974785686" lon="3.144624028354883">
        <ele>948</ele>
        <time>2025-04-25T08:06:28Z</time>
      </trkpt>
      <trkpt lat="44.938260996714234" lon="3.144491007551551">
        <ele>948.48000000000002</ele>
        <time>2025-04-25T08:06:29Z</time>
      </trkpt>
      <trkpt lat="44.938254961743951" lon="3.144358992576599">
        <ele>948.48000000000002</ele>
        <time>2025-04-25T08:06:30Z</time>
      </trkpt>
      <trkpt lat="44.938283041119576" lon="3.144220020622015">
        <ele>948.96000000000004</ele>
        <time>2025-04-25T08:06:31Z</time>
      </trkpt>
      <trkpt lat="44.938322016969323" lon="3.144062021747232">
        <ele>949.44000000000005</ele>
        <time>2025-04-25T08:06:32Z</time>
      </trkpt>
      <trkpt lat="44.938395023345947" lon="3.143921960145235">
        <ele>950.39999999999998</ele>
        <time>2025-04-25T08:06:33Z</time>
      </trkpt>
      <trkpt lat="44.938473980873823" lon="3.143769996240735">
        <ele>950.88</ele>
        <time>2025-04-25T08:06:34Z</time>
      </trkpt>
      <trkpt lat="44.938554028049111" lon="3.143615014851093">
        <ele>951.36000000000001</ele>
        <time>2025-04-25T08:06:35Z</time>
      </trkpt>
      <trkpt lat="44.938613958656788" lon="3.143461961299181">
        <ele>951.84000000000003</ele>
        <time>2025-04-25T08:06:36Z</time>
      </trkpt>
      <trkpt lat="44.938662992790341" lon="3.14328895881772">
        <ele>951.84000000000003</ele>
        <time>2025-04-25T08:06:37Z</time>
      </trkpt>
      <trkpt lat="44.938686965033412" lon="3.143107993528247">
        <ele>952.32000000000005</ele>
        <time>2025-04-25T08:06:38Z</time>
      </trkpt>
      <trkpt lat="44.938712026923895" lon="3.14290196634829">
        <ele>952.32000000000005</ele>
        <time>2025-04-25T08:06:39Z</time>
      </trkpt>
      <trkpt lat="44.938739016652107" lon="3.142712032422423">
        <ele>952.32000000000005</ele>
        <time>2025-04-25T08:06:40Z</time>
      </trkpt>
      <trkpt lat="44.938800958916545" lon="3.142480021342635">
        <ele>952.32000000000005</ele>
        <time>2025-04-25T08:06:41Z</time>
      </trkpt>
      <trkpt lat="44.938858961686492" lon="3.142265025526285">
        <ele>952.79999999999995</ele>
        <time>2025-04-25T08:06:42Z</time>
      </trkpt>
      <trkpt lat="44.938915958628058" lon="3.142052041366696">
        <ele>952.79999999999995</ele>
        <time>2025-04-25T08:06:43Z</time>
      </trkpt>
      <trkpt lat="44.939256012439728" lon="3.141013020649552">
        <ele>955.21000000000004</ele>
        <time>2025-04-25T08:06:49Z</time>
      </trkpt>
      <trkpt lat="44.939320972189307" lon="3.140883017331362">
        <ele>955.69000000000005</ele>
        <time>2025-04-25T08:06:50Z</time>
      </trkpt>
      <trkpt lat="44.939381992444396" lon="3.140759970992804">
        <ele>956.16999999999996</ele>
        <time>2025-04-25T08:06:51Z</time>
      </trkpt>
      <trkpt lat="44.939466984942555" lon="3.140646982938051">
        <ele>956.16999999999996</ele>
        <time>2025-04-25T08:06:52Z</time>
      </trkpt>
      <trkpt lat="44.939554994925857" lon="3.140548998489976">
        <ele>957.13</ele>
        <time>2025-04-25T08:06:53Z</time>
      </trkpt>
      <trkpt lat="44.940157989040017" lon="3.139746012166143">
        <ele>960.00999999999999</ele>
        <time>2025-04-25T08:07:00Z</time>
      </trkpt>
      <trkpt lat="44.940235018730164" lon="3.139591030776501">
        <ele>960.98000000000002</ele>
        <time>2025-04-25T08:07:01Z</time>
      </trkpt>
      <trkpt lat="44.940822003409266" lon="3.137910962104797">
        <ele>963.86000000000001</ele>
        <time>2025-04-25T08:07:09Z</time>
      </trkpt>
      <trkpt lat="44.940849998965859" lon="3.137665959075093">
        <ele>963.86000000000001</ele>
        <time>2025-04-25T08:07:10Z</time>
      </trkpt>
      <trkpt lat="44.940860979259014" lon="3.137434031814337">
        <ele>963.38</ele>
        <time>2025-04-25T08:07:11Z</time>
      </trkpt>
      <trkpt lat="44.940839018672705" lon="3.137220041826367">
        <ele>962.41999999999996</ele>
        <time>2025-04-25T08:07:12Z</time>
      </trkpt>
      <trkpt lat="44.940803982317448" lon="3.136976966634393">
        <ele>961.94000000000005</ele>
        <time>2025-04-25T08:07:13Z</time>
      </trkpt>
      <trkpt lat="44.940727958455682" lon="3.136762976646423">
        <ele>960.98000000000002</ele>
        <time>2025-04-25T08:07:14Z</time>
      </trkpt>
      <trkpt lat="44.940623017027974" lon="3.136544041335583">
        <ele>960.00999999999999</ele>
        <time>2025-04-25T08:07:15Z</time>
      </trkpt>
      <trkpt lat="44.940508017316461" lon="3.136311024427414">
        <ele>958.57000000000005</ele>
        <time>2025-04-25T08:07:16Z</time>
      </trkpt>
      <trkpt lat="44.940387988463044" lon="3.136068033054471">
        <ele>957.61000000000001</ele>
        <time>2025-04-25T08:07:17Z</time>
      </trkpt>
      <trkpt lat="44.939791029319167" lon="3.134861961007118">
        <ele>950.88</ele>
        <time>2025-04-25T08:07:22Z</time>
      </trkpt>
      <trkpt lat="44.939661026000977" lon="3.134687030687928">
        <ele>948.96000000000004</ele>
        <time>2025-04-25T08:07:23Z</time>
      </trkpt>
      <trkpt lat="44.939513001590967" lon="3.134538000449538">
        <ele>947.51999999999998</ele>
        <time>2025-04-25T08:07:24Z</time>
      </trkpt>
      <trkpt lat="44.939360031858087" lon="3.13441202044487">
        <ele>946.07000000000005</ele>
        <time>2025-04-25T08:07:25Z</time>
      </trkpt>
      <trkpt lat="44.939183006063104" lon="3.134343959391117">
        <ele>944.14999999999998</ele>
        <time>2025-04-25T08:07:26Z</time>
      </trkpt>
      <trkpt lat="44.938992988318205" lon="3.134321998804808">
        <ele>941.75</ele>
        <time>2025-04-25T08:07:27Z</time>
      </trkpt>
      <trkpt lat="44.938780004158616" lon="3.134321998804808">
        <ele>940.30999999999995</ele>
        <time>2025-04-25T08:07:28Z</time>
      </trkpt>
      <trkpt lat="44.938557967543602" lon="3.134321998804808">
        <ele>938.38</ele>
        <time>2025-04-25T08:07:29Z</time>
      </trkpt>
      <trkpt lat="44.938136022537947" lon="3.134263996034861">
        <ele>935.01999999999998</ele>
        <time>2025-04-25T08:07:31Z</time>
      </trkpt>
      <trkpt lat="44.93794902227819" lon="3.134179003536701">
        <ele>933.58000000000004</ele>
        <time>2025-04-25T08:07:32Z</time>
      </trkpt>
      <trkpt lat="44.937779037281871" lon="3.134022010490298">
        <ele>931.64999999999998</ele>
        <time>2025-04-25T08:07:33Z</time>
      </trkpt>
      <trkpt lat="44.937618020921946" lon="3.133838027715683">
        <ele>930.21000000000004</ele>
        <time>2025-04-25T08:07:34Z</time>
      </trkpt>
      <trkpt lat="44.93745599873364" lon="3.133625965565443">
        <ele>928.76999999999998</ele>
        <time>2025-04-25T08:07:35Z</time>
      </trkpt>
      <trkpt lat="44.937290037050843" lon="3.133409963920713">
        <ele>926.85000000000002</ele>
        <time>2025-04-25T08:07:36Z</time>
      </trkpt>
      <trkpt lat="44.936634991317987" lon="3.132606977596879">
        <ele>920.60000000000002</ele>
        <time>2025-04-25T08:07:40Z</time>
      </trkpt>
      <trkpt lat="44.936437010765076" lon="3.13245995901525">
        <ele>919.15999999999997</ele>
        <time>2025-04-25T08:07:41Z</time>
      </trkpt>
      <trkpt lat="44.935034969821572" lon="3.131564017385244">
        <ele>908.10000000000002</ele>
        <time>2025-04-25T08:07:48Z</time>
      </trkpt>
      <trkpt lat="44.934841012582183" lon="3.131522024050355">
        <ele>906.65999999999997</ele>
        <time>2025-04-25T08:07:49Z</time>
      </trkpt>
      <trkpt lat="44.934661975130439" lon="3.131548007950187">
        <ele>905.22000000000003</ele>
        <time>2025-04-25T08:07:50Z</time>
      </trkpt>
      <trkpt lat="44.934489978477359" lon="3.131596958264709">
        <ele>903.29999999999995</ele>
        <time>2025-04-25T08:07:51Z</time>
      </trkpt>
      <trkpt lat="44.934316975995898" lon="3.131745988503099">
        <ele>901.85000000000002</ele>
        <time>2025-04-25T08:07:52Z</time>
      </trkpt>
      <trkpt lat="44.934140034019947" lon="3.13189803622663">
        <ele>900.40999999999997</ele>
        <time>2025-04-25T08:07:53Z</time>
      </trkpt>
      <trkpt lat="44.933780031278729" lon="3.132206993177533">
        <ele>897.52999999999997</ele>
        <time>2025-04-25T08:07:55Z</time>
      </trkpt>
      <trkpt lat="44.932904960587621" lon="3.132847035303712">
        <ele>890.79999999999995</ele>
        <time>2025-04-25T08:08:00Z</time>
      </trkpt>
      <trkpt lat="44.932713015004992" lon="3.132906965911388">
        <ele>889.36000000000001</ele>
        <time>2025-04-25T08:08:01Z</time>
      </trkpt>
      <trkpt lat="44.932518973946571" lon="3.132956000044942">
        <ele>887.90999999999997</ele>
        <time>2025-04-25T08:08:02Z</time>
      </trkpt>
      <trkpt lat="44.932331973686814" lon="3.132960023358464">
        <ele>886.95000000000005</ele>
        <time>2025-04-25T08:08:03Z</time>
      </trkpt>
      <trkpt lat="44.932165006175637" lon="3.13292901031673">
        <ele>885.50999999999999</ele>
        <time>2025-04-25T08:08:04Z</time>
      </trkpt>
      <trkpt lat="44.932027962058783" lon="3.132891962304711">
        <ele>884.07000000000005</ele>
        <time>2025-04-25T08:08:05Z</time>
      </trkpt>
      <trkpt lat="44.931909022852778" lon="3.132790038362145">
        <ele>883.11000000000001</ele>
        <time>2025-04-25T08:08:06Z</time>
      </trkpt>
      <trkpt lat="44.931832998991013" lon="3.132655005902052">
        <ele>882.63</ele>
        <time>2025-04-25T08:08:07Z</time>
      </trkpt>
      <trkpt lat="44.931753035634756" lon="3.132496001198888">
        <ele>882.14999999999998</ele>
        <time>2025-04-25T08:08:08Z</time>
      </trkpt>
      <trkpt lat="44.931722022593021" lon="3.132315035909414">
        <ele>881.66999999999996</ele>
        <time>2025-04-25T08:08:09Z</time>
      </trkpt>
      <trkpt lat="44.931722022593021" lon="3.132100962102413">
        <ele>881.66999999999996</ele>
        <time>2025-04-25T08:08:10Z</time>
      </trkpt>
      <trkpt lat="44.931744989007711" lon="3.131896024569869">
        <ele>881.66999999999996</ele>
        <time>2025-04-25T08:08:11Z</time>
      </trkpt>
      <trkpt lat="44.931820007041097" lon="3.1316820345819">
        <ele>881.66999999999996</ele>
        <time>2025-04-25T08:08:12Z</time>
      </trkpt>
      <trkpt lat="44.931900976225734" lon="3.131450023502111">
        <ele>881.66999999999996</ele>
        <time>2025-04-25T08:08:13Z</time>
      </trkpt>
      <trkpt lat="44.932208005338907" lon="3.130467999726534">
        <ele>880.22000000000003</ele>
        <time>2025-04-25T08:08:17Z</time>
      </trkpt>
      <trkpt lat="44.932237006723881" lon="3.13018100336194">
        <ele>880.22000000000003</ele>
        <time>2025-04-25T08:08:18Z</time>
      </trkpt>
      <trkpt lat="44.932201970368624" lon="3.12990297563374">
        <ele>879.74000000000001</ele>
        <time>2025-04-25T08:08:19Z</time>
      </trkpt>
      <trkpt lat="44.93193400092423" lon="3.127355966717005">
        <ele>880.71000000000004</ele>
        <time>2025-04-25T08:08:27Z</time>
      </trkpt>
      <trkpt lat="44.931774996221066" lon="3.125491999089718">
        <ele>884.07000000000005</ele>
        <time>2025-04-25T08:08:33Z</time>
      </trkpt>
      <trkpt lat="44.931710036471486" lon="3.125255964696407">
        <ele>884.54999999999995</ele>
        <time>2025-04-25T08:08:34Z</time>
      </trkpt>
      <trkpt lat="44.931593025103211" lon="3.124837959185243">
        <ele>885.50999999999999</ele>
        <time>2025-04-25T08:08:36Z</time>
      </trkpt>
      <trkpt lat="44.931580033153296" lon="3.124630004167557">
        <ele>885.50999999999999</ele>
        <time>2025-04-25T08:08:37Z</time>
      </trkpt>
      <trkpt lat="44.931599982082844" lon="3.124426994472742">
        <ele>885.99000000000001</ele>
        <time>2025-04-25T08:08:38Z</time>
      </trkpt>
      <trkpt lat="44.931665025651455" lon="3.124219039455056">
        <ele>886.47000000000003</ele>
        <time>2025-04-25T08:08:39Z</time>
      </trkpt>
      <trkpt lat="44.931737026199698" lon="3.123989962041378">
        <ele>887.42999999999995</ele>
        <time>2025-04-25T08:08:40Z</time>
      </trkpt>
      <trkpt lat="44.932259973138571" lon="3.122628992423415">
        <ele>894.15999999999997</ele>
        <time>2025-04-25T08:08:46Z</time>
      </trkpt>
      <trkpt lat="44.932860033586621" lon="3.121147993952036">
        <ele>895.61000000000001</ele>
        <time>2025-04-25T08:08:53Z</time>
      </trkpt>
      <trkpt lat="44.93296698667109" lon="3.120868038386107">
        <ele>896.57000000000005</ele>
        <time>2025-04-25T08:08:55Z</time>
      </trkpt>
      <trkpt lat="44.93296698667109" lon="3.12066201120615">
        <ele>896.57000000000005</ele>
        <time>2025-04-25T08:08:56Z</time>
      </trkpt>
      <trkpt lat="44.93296698667109" lon="3.120508035644889">
        <ele>896.57000000000005</ele>
        <time>2025-04-25T08:08:57Z</time>
      </trkpt>
      <trkpt lat="44.932918036356568" lon="3.120379960164428">
        <ele>896.09000000000003</ele>
        <time>2025-04-25T08:08:58Z</time>
      </trkpt>
      <trkpt lat="44.932840000838041" lon="3.120249034836888">
        <ele>896.09000000000003</ele>
        <time>2025-04-25T08:08:59Z</time>
      </trkpt>
      <trkpt lat="44.932738998904824" lon="3.120123976841569">
        <ele>895.61000000000001</ele>
        <time>2025-04-25T08:09:00Z</time>
      </trkpt>
      <trkpt lat="44.932238012552261" lon="3.119463985785842">
        <ele>891.75999999999999</ele>
        <time>2025-04-25T08:09:05Z</time>
      </trkpt>
      <trkpt lat="44.932053023949265" lon="3.119120998308063">
        <ele>889.36000000000001</ele>
        <time>2025-04-25T08:09:08Z</time>
      </trkpt>
      <trkpt lat="44.932037014514208" lon="3.119022008031607">
        <ele>888.39999999999998</ele>
        <time>2025-04-25T08:09:09Z</time>
      </trkpt>
      <trkpt lat="44.932069033384323" lon="3.118927963078022">
        <ele>887.90999999999997</ele>
        <time>2025-04-25T08:09:10Z</time>
      </trkpt>
      <trkpt lat="44.932102980092168" lon="3.118826039135456">
        <ele>886.95000000000005</ele>
        <time>2025-04-25T08:09:11Z</time>
      </trkpt>
      <trkpt lat="44.932137010619044" lon="3.118722019717097">
        <ele>886.47000000000003</ele>
        <time>2025-04-25T08:09:12Z</time>
      </trkpt>
      <trkpt lat="44.93217003531754" lon="3.118625041097403">
        <ele>885.50999999999999</ele>
        <time>2025-04-25T08:09:13Z</time>
      </trkpt>
      <trkpt lat="44.932182021439075" lon="3.118510963395238">
        <ele>884.54999999999995</ele>
        <time>2025-04-25T08:09:14Z</time>
      </trkpt>
      <trkpt lat="44.93214899674058" lon="3.118397975340486">
        <ele>883.59000000000003</ele>
        <time>2025-04-25T08:09:15Z</time>
      </trkpt>
      <trkpt lat="44.932038020342588" lon="3.118134029209614">
        <ele>882.63</ele>
        <time>2025-04-25T08:09:17Z</time>
      </trkpt>
      <trkpt lat="44.931959984824061" lon="3.118006959557533">
        <ele>881.66999999999996</ele>
        <time>2025-04-25T08:09:18Z</time>
      </trkpt>
      <trkpt lat="44.93187096901238" lon="3.117872010916472">
        <ele>880.71000000000004</ele>
        <time>2025-04-25T08:09:19Z</time>
      </trkpt>
      <trkpt lat="44.931753035634756" lon="3.117759022861719">
        <ele>880.22000000000003</ele>
        <time>2025-04-25T08:09:20Z</time>
      </trkpt>
      <trkpt lat="44.931620014831424" lon="3.117646034806967">
        <ele>878.77999999999997</ele>
        <time>2025-04-25T08:09:21Z</time>
      </trkpt>
      <trkpt lat="44.931342992931604" lon="3.117410000413656">
        <ele>876.86000000000001</ele>
        <time>2025-04-25T08:09:23Z</time>
      </trkpt>
      <trkpt lat="44.931189017370343" lon="3.1173110101372">
        <ele>875.41999999999996</ele>
        <time>2025-04-25T08:09:24Z</time>
      </trkpt>
      <trkpt lat="44.931023977696896" lon="3.117234986275435">
        <ele>874.46000000000004</ele>
        <time>2025-04-25T08:09:25Z</time>
      </trkpt>
      <trkpt lat="44.930857010185719" lon="3.11715804040432">
        <ele>873.00999999999999</ele>
        <time>2025-04-25T08:09:26Z</time>
      </trkpt>
      <trkpt lat="44.930695993825793" lon="3.117065001279116">
        <ele>871.09000000000003</ele>
        <time>2025-04-25T08:09:27Z</time>
      </trkpt>
      <trkpt lat="44.93058199994266" lon="3.116886969655752">
        <ele>869.64999999999998</ele>
        <time>2025-04-25T08:09:28Z</time>
      </trkpt>
      <trkpt lat="44.930483009666204" lon="3.116693012416363">
        <ele>868.69000000000005</ele>
        <time>2025-04-25T08:09:29Z</time>
      </trkpt>
      <trkpt lat="44.930397011339664" lon="3.116467958316207">
        <ele>867.73000000000002</ele>
        <time>2025-04-25T08:09:30Z</time>
      </trkpt>
      <trkpt lat="44.930310007184744" lon="3.11623795889318">
        <ele>866.28999999999996</ele>
        <time>2025-04-25T08:09:31Z</time>
      </trkpt>
      <trkpt lat="44.930112026631832" lon="3.115772008895874">
        <ele>864.84000000000003</ele>
        <time>2025-04-25T08:09:33Z</time>
      </trkpt>
      <trkpt lat="44.929784964770079" lon="3.115145964547992">
        <ele>862.91999999999996</ele>
        <time>2025-04-25T08:09:36Z</time>
      </trkpt>
      <trkpt lat="44.92972201667726" lon="3.114961981773377">
        <ele>862.91999999999996</ele>
        <time>2025-04-25T08:09:37Z</time>
      </trkpt>
      <trkpt lat="44.929557982832193" lon="3.114482033997774">
        <ele>861.48000000000002</ele>
        <time>2025-04-25T08:09:40Z</time>
      </trkpt>
      <trkpt lat="44.929478019475937" lon="3.114357981830835">
        <ele>860.51999999999998</ele>
        <time>2025-04-25T08:09:41Z</time>
      </trkpt>
      <trkpt lat="44.929394032806158" lon="3.114232001826167">
        <ele>859.55999999999995</ele>
        <time>2025-04-25T08:09:42Z</time>
      </trkpt>
      <trkpt lat="44.929232010617852" lon="3.113989010453224">
        <ele>858.11000000000001</ele>
        <time>2025-04-25T08:09:44Z</time>
      </trkpt>
      <trkpt lat="44.929140983149409" lon="3.1139350309968">
        <ele>857.14999999999998</ele>
        <time>2025-04-25T08:09:45Z</time>
      </trkpt>
      <trkpt lat="44.929045010358095" lon="3.113903012126684">
        <ele>856.19000000000005</ele>
        <time>2025-04-25T08:09:46Z</time>
      </trkpt>
      <trkpt lat="44.92894995957613" lon="3.11387199908495">
        <ele>855.23000000000002</ele>
        <time>2025-04-25T08:09:47Z</time>
      </trkpt>
      <trkpt lat="44.928851975128055" lon="3.113838974386454">
        <ele>854.75</ele>
        <time>2025-04-25T08:09:48Z</time>
      </trkpt>
      <trkpt lat="44.928245963528752" lon="3.11363697052002">
        <ele>851.38</ele>
        <time>2025-04-25T08:09:53Z</time>
      </trkpt>
      <trkpt lat="44.928128030151129" lon="3.113549966365099">
        <ele>850.89999999999998</ele>
        <time>2025-04-25T08:09:54Z</time>
      </trkpt>
      <trkpt lat="44.928006995469332" lon="3.113460028544068">
        <ele>850.41999999999996</ele>
        <time>2025-04-25T08:09:55Z</time>
      </trkpt>
      <trkpt lat="44.927579015493393" lon="3.113088961690664">
        <ele>848.5</ele>
        <time>2025-04-25T08:09:59Z</time>
      </trkpt>
      <trkpt lat="44.927493017166853" lon="3.112972034141421">
        <ele>847.53999999999996</ele>
        <time>2025-04-25T08:10:00Z</time>
      </trkpt>
      <trkpt lat="44.926961017772555" lon="3.112254962325096">
        <ele>842.25</ele>
        <time>2025-04-25T08:10:07Z</time>
      </trkpt>
      <trkpt lat="44.926873007789254" lon="3.11219897121191">
        <ele>841.76999999999998</ele>
        <time>2025-04-25T08:10:08Z</time>
      </trkpt>
      <trkpt lat="44.92677703499794" lon="3.112226966768503">
        <ele>840.80999999999995</ele>
        <time>2025-04-25T08:10:09Z</time>
      </trkpt>
      <trkpt lat="44.926678966730833" lon="3.112274995073676">
        <ele>840.33000000000004</ele>
        <time>2025-04-25T08:10:10Z</time>
      </trkpt>
      <trkpt lat="44.926576958969235" lon="3.112351018935442">
        <ele>839.37</ele>
        <time>2025-04-25T08:10:11Z</time>
      </trkpt>
      <trkpt lat="44.926491966471076" lon="3.112461995333433">
        <ele>838.88999999999999</ele>
        <time>2025-04-25T08:10:12Z</time>
      </trkpt>
      <trkpt lat="44.926410997286439" lon="3.112587975338101">
        <ele>837.92999999999995</ele>
        <time>2025-04-25T08:10:13Z</time>
      </trkpt>
      <trkpt lat="44.926329022273421" lon="3.112714039161801">
        <ele>836.96000000000004</ele>
        <time>2025-04-25T08:10:14Z</time>
      </trkpt>
      <trkpt lat="44.926271019503474" lon="3.112852005288005">
        <ele>836</ele>
        <time>2025-04-25T08:10:15Z</time>
      </trkpt>
      <trkpt lat="44.926250986754894" lon="3.112987037748098">
        <ele>834.55999999999995</ele>
        <time>2025-04-25T08:10:16Z</time>
      </trkpt>
      <trkpt lat="44.926250986754894" lon="3.113130033016205">
        <ele>833.12</ele>
        <time>2025-04-25T08:10:17Z</time>
      </trkpt>
      <trkpt lat="44.926292980089784" lon="3.113243021070957">
        <ele>832.15999999999997</ele>
        <time>2025-04-25T08:10:18Z</time>
      </trkpt>
      <trkpt lat="44.926351988688111" lon="3.113381993025541">
        <ele>830.72000000000003</ele>
        <time>2025-04-25T08:10:19Z</time>
      </trkpt>
      <trkpt lat="44.9264130089432" lon="3.113525994122028">
        <ele>829.26999999999998</ele>
        <time>2025-04-25T08:10:20Z</time>
      </trkpt>
      <trkpt lat="44.926473023369908" lon="3.113667983561754">
        <ele>827.83000000000004</ele>
        <time>2025-04-25T08:10:21Z</time>
      </trkpt>
      <trkpt lat="44.926530020311475" lon="3.113802010193467">
        <ele>826.87</ele>
        <time>2025-04-25T08:10:22Z</time>
      </trkpt>
      <trkpt lat="44.926547035574913" lon="3.113977024331689">
        <ele>825.90999999999997</ele>
        <time>2025-04-25T08:10:23Z</time>
      </trkpt>
      <trkpt lat="44.92654200643301" lon="3.114133011549711">
        <ele>824.95000000000005</ele>
        <time>2025-04-25T08:10:24Z</time>
      </trkpt>
      <trkpt lat="44.926536977291107" lon="3.114292016252875">
        <ele>823.99000000000001</ele>
        <time>2025-04-25T08:10:25Z</time>
      </trkpt>
      <trkpt lat="44.926533037796617" lon="3.114448003470898">
        <ele>823.02999999999997</ele>
        <time>2025-04-25T08:10:26Z</time>
      </trkpt>
      <trkpt lat="44.926509987562895" lon="3.115189969539642">
        <ele>818.70000000000005</ele>
        <time>2025-04-25T08:10:31Z</time>
      </trkpt>
      <trkpt lat="44.926525996997952" lon="3.115316033363342">
        <ele>818.22000000000003</ele>
        <time>2025-04-25T08:10:32Z</time>
      </trkpt>
      <trkpt lat="44.926560027524829" lon="3.115446958690882">
        <ele>817.74000000000001</ele>
        <time>2025-04-25T08:10:33Z</time>
      </trkpt>
      <trkpt lat="44.926593974232674" lon="3.115578973665834">
        <ele>816.77999999999997</ele>
        <time>2025-04-25T08:10:34Z</time>
      </trkpt>
      <trkpt lat="44.926633033901453" lon="3.115728003904223">
        <ele>815.82000000000005</ele>
        <time>2025-04-25T08:10:35Z</time>
      </trkpt>
      <trkpt lat="44.926663963124156" lon="3.115888014435768">
        <ele>814.37</ele>
        <time>2025-04-25T08:10:36Z</time>
      </trkpt>
      <trkpt lat="44.926679972559214" lon="3.116039978340268">
        <ele>813.40999999999997</ele>
        <time>2025-04-25T08:10:37Z</time>
      </trkpt>
      <trkpt lat="44.926421977579594" lon="3.117316039279103">
        <ele>806.20000000000005</ele>
        <time>2025-04-25T08:10:44Z</time>
      </trkpt>
      <trkpt lat="44.926250986754894" lon="3.118185997009277">
        <ele>800.44000000000005</ele>
        <time>2025-04-25T08:10:49Z</time>
      </trkpt>
      <trkpt lat="44.926164988428354" lon="3.118271995335817">
        <ele>799.47000000000003</ele>
        <time>2025-04-25T08:10:50Z</time>
      </trkpt>
      <trkpt lat="44.926164988428354" lon="3.118271995335817">
        <ele>798.02999999999997</ele>
        <time>2025-04-25T08:10:51Z</time>
      </trkpt>
      <trkpt lat="44.926001960411668" lon="3.118290016427636">
        <ele>797.07000000000005</ele>
        <time>2025-04-25T08:10:52Z</time>
      </trkpt>
      <trkpt lat="44.925972037017345" lon="3.118293033912778">
        <ele>795.63</ele>
        <time>2025-04-25T08:10:53Z</time>
      </trkpt>
      <trkpt lat="44.925972037017345" lon="3.118293033912778">
        <ele>794.66999999999996</ele>
        <time>2025-04-25T08:10:54Z</time>
      </trkpt>
      <trkpt lat="44.925890984013677" lon="3.11819395981729">
        <ele>793.71000000000004</ele>
        <time>2025-04-25T08:10:55Z</time>
      </trkpt>
      <trkpt lat="44.925785036757588" lon="3.11806496232748">
        <ele>792.74000000000001</ele>
        <time>2025-04-25T08:10:56Z</time>
      </trkpt>
      <trkpt lat="44.925514971837401" lon="3.117746030911803">
        <ele>790.34000000000003</ele>
        <time>2025-04-25T08:10:58Z</time>
      </trkpt>
      <trkpt lat="44.925358984619379" lon="3.117580991238356">
        <ele>788.41999999999996</ele>
        <time>2025-04-25T08:10:59Z</time>
      </trkpt>
      <trkpt lat="44.925129991024733" lon="3.117402037605643">
        <ele>786.5</ele>
        <time>2025-04-25T08:11:00Z</time>
      </trkpt>
      <trkpt lat="44.92495296522975" lon="3.117336994037032">
        <ele>784.09000000000003</ele>
        <time>2025-04-25T08:11:01Z</time>
      </trkpt>
      <trkpt lat="44.924782980233431" lon="3.117274967953563">
        <ele>782.16999999999996</ele>
        <time>2025-04-25T08:11:02Z</time>
      </trkpt>
      <trkpt lat="44.924486009404063" lon="3.117135995998979">
        <ele>777.84000000000003</ele>
        <time>2025-04-25T08:11:04Z</time>
      </trkpt>
      <trkpt lat="44.924338990822434" lon="3.117033988237381">
        <ele>775.44000000000005</ele>
        <time>2025-04-25T08:11:05Z</time>
      </trkpt>
      <trkpt lat="44.92422298528254" lon="3.116915971040726">
        <ele>773.03999999999996</ele>
        <time>2025-04-25T08:11:06Z</time>
      </trkpt>
      <trkpt lat="44.92409398779273" lon="3.116760989651084">
        <ele>770.63</ele>
        <time>2025-04-25T08:11:07Z</time>
      </trkpt>
      <trkpt lat="44.924005977809429" lon="3.116573989391327">
        <ele>768.23000000000002</ele>
        <time>2025-04-25T08:11:08Z</time>
      </trkpt>
      <trkpt lat="44.923912016674876" lon="3.116362011060119">
        <ele>765.35000000000002</ele>
        <time>2025-04-25T08:11:09Z</time>
      </trkpt>
      <trkpt lat="44.923826018348336" lon="3.116168975830078">
        <ele>762.94000000000005</ele>
        <time>2025-04-25T08:11:10Z</time>
      </trkpt>
      <trkpt lat="44.923460986465216" lon="3.11550403945148">
        <ele>750.45000000000005</ele>
        <time>2025-04-25T08:11:16Z</time>
      </trkpt>
      <trkpt lat="44.923311034217477" lon="3.11546104028821">
        <ele>748.51999999999998</ele>
        <time>2025-04-25T08:11:17Z</time>
      </trkpt>
      <trkpt lat="44.923311034217477" lon="3.11546104028821">
        <ele>747.08000000000004</ele>
        <time>2025-04-25T08:11:18Z</time>
      </trkpt>
      <trkpt lat="44.923311034217477" lon="3.11546104028821">
        <ele>744.67999999999995</ele>
        <time>2025-04-25T08:11:26Z</time>
      </trkpt>
      <trkpt lat="44.923311034217477" lon="3.11546104028821">
        <ele>744.67999999999995</ele>
        <time>2025-04-25T08:11:59Z</time>
      </trkpt>
      <trkpt lat="44.923311034217477" lon="3.11546104028821">
        <ele>745.15999999999997</ele>
        <time>2025-04-25T08:13:01Z</time>
      </trkpt>
      <trkpt lat="44.923311034217477" lon="3.11546104028821">
        <ele>746.60000000000002</ele>
        <time>2025-04-25T08:13:40Z</time>
      </trkpt>
      <trkpt lat="44.923311034217477" lon="3.11546104028821">
        <ele>746.60000000000002</ele>
        <time>2025-04-25T08:13:57Z</time>
      </trkpt>
      <trkpt lat="44.923311034217477" lon="3.11546104028821">
        <ele>747.08000000000004</ele>
        <time>2025-04-25T08:13:58Z</time>
      </trkpt>
      <trkpt lat="44.923311034217477" lon="3.11546104028821">
        <ele>747.55999999999995</ele>
        <time>2025-04-25T08:13:59Z</time>
      </trkpt>
      <trkpt lat="44.923311034217477" lon="3.11546104028821">
        <ele>748.03999999999996</ele>
        <time>2025-04-25T08:14:00Z</time>
      </trkpt>
      <trkpt lat="44.923182036727667" lon="3.115524994209409">
        <ele>748.03999999999996</ele>
        <time>2025-04-25T08:14:01Z</time>
      </trkpt>
      <trkpt lat="44.923182036727667" lon="3.115524994209409">
        <ele>748.51999999999998</ele>
        <time>2025-04-25T08:14:02Z</time>
      </trkpt>
      <trkpt lat="44.923182036727667" lon="3.115524994209409">
        <ele>749</ele>
        <time>2025-04-25T08:14:03Z</time>
      </trkpt>
      <trkpt lat="44.923182036727667" lon="3.115524994209409">
        <ele>749</ele>
        <time>2025-04-25T08:14:04Z</time>
      </trkpt>
      <trkpt lat="44.923182036727667" lon="3.115524994209409">
        <ele>749</ele>
        <time>2025-04-25T08:14:05Z</time>
      </trkpt>
      <trkpt lat="44.923182036727667" lon="3.115524994209409">
        <ele>749.49000000000001</ele>
        <time>2025-04-25T08:14:15Z</time>
      </trkpt>
      <trkpt lat="44.923110958188772" lon="3.116015000268817">
        <ele>748.51999999999998</ele>
        <time>2025-04-25T08:14:20Z</time>
      </trkpt>
      <trkpt lat="44.922981960698962" lon="3.117447970435023">
        <ele>745.15999999999997</ele>
        <time>2025-04-25T08:14:27Z</time>
      </trkpt>
      <trkpt lat="44.922953965142369" lon="3.117652991786599">
        <ele>744.67999999999995</ele>
        <time>2025-04-25T08:14:28Z</time>
      </trkpt>
      <trkpt lat="44.922903003171086" lon="3.117831023409963">
        <ele>744.20000000000005</ele>
        <time>2025-04-25T08:14:29Z</time>
      </trkpt>
      <trkpt lat="44.922845000401139" lon="3.11797896400094">
        <ele>743.72000000000003</ele>
        <time>2025-04-25T08:14:30Z</time>
      </trkpt>
      <trkpt lat="44.922768976539373" lon="3.118133023381233">
        <ele>743.24000000000001</ele>
        <time>2025-04-25T08:14:31Z</time>
      </trkpt>
      <trkpt lat="44.922685995697975" lon="3.11829898506403">
        <ele>743.24000000000001</ele>
        <time>2025-04-25T08:14:32Z</time>
      </trkpt>
      <trkpt lat="44.922595974057913" lon="3.118478022515774">
        <ele>743.72000000000003</ele>
        <time>2025-04-25T08:14:33Z</time>
      </trkpt>
      <trkpt lat="44.922408973798156" lon="3.118823021650314">
        <ele>743.72000000000003</ele>
        <time>2025-04-25T08:14:35Z</time>
      </trkpt>
      <trkpt lat="44.922293974086642" lon="3.118975991383195">
        <ele>744.20000000000005</ele>
        <time>2025-04-25T08:14:36Z</time>
      </trkpt>
      <trkpt lat="44.922179980203509" lon="3.119128961116076">
        <ele>744.20000000000005</ele>
        <time>2025-04-25T08:14:37Z</time>
      </trkpt>
      <trkpt lat="44.922075960785151" lon="3.119299029931426">
        <ele>744.20000000000005</ele>
        <time>2025-04-25T08:14:38Z</time>
      </trkpt>
      <trkpt lat="44.921984011307359" lon="3.119475971907377">
        <ele>744.20000000000005</ele>
        <time>2025-04-25T08:14:39Z</time>
      </trkpt>
      <trkpt lat="44.921902036294341" lon="3.119633970782161">
        <ele>744.67999999999995</ele>
        <time>2025-04-25T08:14:40Z</time>
      </trkpt>
      <trkpt lat="44.921829029917717" lon="3.119747964665294">
        <ele>744.67999999999995</ele>
        <time>2025-04-25T08:14:41Z</time>
      </trkpt>
      <trkpt lat="44.9217280279845" lon="3.119794987142086">
        <ele>744.67999999999995</ele>
        <time>2025-04-25T08:14:42Z</time>
      </trkpt>
      <trkpt lat="44.921604981645942" lon="3.119794987142086">
        <ele>745.15999999999997</ele>
        <time>2025-04-25T08:14:43Z</time>
      </trkpt>
      <trkpt lat="44.921469027176499" lon="3.119794987142086">
        <ele>745.15999999999997</ele>
        <time>2025-04-25T08:14:44Z</time>
      </trkpt>
      <trkpt lat="44.921326031908393" lon="3.119794987142086">
        <ele>745.15999999999997</ele>
        <time>2025-04-25T08:14:45Z</time>
      </trkpt>
      <trkpt lat="44.921177001670003" lon="3.119848966598511">
        <ele>745.15999999999997</ele>
        <time>2025-04-25T08:14:46Z</time>
      </trkpt>
      <trkpt lat="44.92104297503829" lon="3.119942005723715">
        <ele>744.67999999999995</ele>
        <time>2025-04-25T08:14:47Z</time>
      </trkpt>
      <trkpt lat="44.920942978933454" lon="3.120052982121706">
        <ele>744.67999999999995</ele>
        <time>2025-04-25T08:14:48Z</time>
      </trkpt>
      <trkpt lat="44.920867960900068" lon="3.120219027623534">
        <ele>744.20000000000005</ele>
        <time>2025-04-25T08:14:49Z</time>
      </trkpt>
      <trkpt lat="44.920834014192224" lon="3.120413990691304">
        <ele>744.20000000000005</ele>
        <time>2025-04-25T08:14:50Z</time>
      </trkpt>
      <trkpt lat="44.920796966180205" lon="3.120625969022512">
        <ele>744.20000000000005</ele>
        <time>2025-04-25T08:14:51Z</time>
      </trkpt>
      <trkpt lat="44.920712979510427" lon="3.121025031432509">
        <ele>743.72000000000003</ele>
        <time>2025-04-25T08:14:53Z</time>
      </trkpt>
      <trkpt lat="44.920643996447325" lon="3.121171966195107">
        <ele>743.72000000000003</ele>
        <time>2025-04-25T08:14:54Z</time>
      </trkpt>
      <trkpt lat="44.920585993677378" lon="3.121297024190426">
        <ele>743.72000000000003</ele>
        <time>2025-04-25T08:14:55Z</time>
      </trkpt>
      <trkpt lat="44.920512987300754" lon="3.121305992826819">
        <ele>743.72000000000003</ele>
        <time>2025-04-25T08:14:56Z</time>
      </trkpt>
      <trkpt lat="44.920407040044665" lon="3.121312027797103">
        <ele>743.72000000000003</ele>
        <time>2025-04-25T08:14:57Z</time>
      </trkpt>
      <trkpt lat="44.920326992869377" lon="3.121181018650532">
        <ele>743.72000000000003</ele>
        <time>2025-04-25T08:14:58Z</time>
      </trkpt>
      <trkpt lat="44.920251974835992" lon="3.121022013947368">
        <ele>744.20000000000005</ele>
        <time>2025-04-25T08:14:59Z</time>
      </trkpt>
      <trkpt lat="44.920173017308116" lon="3.12085404060781">
        <ele>744.67999999999995</ele>
        <time>2025-04-25T08:15:00Z</time>
      </trkpt>
      <trkpt lat="44.920100010931492" lon="3.120696963742375">
        <ele>745.15999999999997</ele>
        <time>2025-04-25T08:15:01Z</time>
      </trkpt>
      <trkpt lat="44.920012000948191" lon="3.120563020929694">
        <ele>746.12</ele>
        <time>2025-04-25T08:15:02Z</time>
      </trkpt>
      <trkpt lat="44.919886020943522" lon="3.12046998180449">
        <ele>746.60000000000002</ele>
        <time>2025-04-25T08:15:03Z</time>
      </trkpt>
      <trkpt lat="44.919743025675416" lon="3.120396975427866">
        <ele>747.08000000000004</ele>
        <time>2025-04-25T08:15:04Z</time>
      </trkpt>
      <trkpt lat="44.919587038457394" lon="3.120350958779454">
        <ele>747.08000000000004</ele>
        <time>2025-04-25T08:15:05Z</time>
      </trkpt>
      <trkpt lat="44.919426022097468" lon="3.120304020121694">
        <ele>747.55999999999995</ele>
        <time>2025-04-25T08:15:06Z</time>
      </trkpt>
      <trkpt lat="44.919098038226366" lon="3.120207041501999">
        <ele>748.51999999999998</ele>
        <time>2025-04-25T08:15:08Z</time>
      </trkpt>
      <trkpt lat="44.918791009113193" lon="3.120046025142074">
        <ele>748.51999999999998</ele>
        <time>2025-04-25T08:15:10Z</time>
      </trkpt>
      <trkpt lat="44.918510969728231" lon="3.119901018217206">
        <ele>748.51999999999998</ele>
        <time>2025-04-25T08:15:12Z</time>
      </trkpt>
      <trkpt lat="44.91837602108717" lon="3.11988802626729">
        <ele>748.51999999999998</ele>
        <time>2025-04-25T08:15:13Z</time>
      </trkpt>
      <trkpt lat="44.918245011940598" lon="3.119914010167122">
        <ele>748.51999999999998</ele>
        <time>2025-04-25T08:15:14Z</time>
      </trkpt>
      <trkpt lat="44.918133029714227" lon="3.119970001280308">
        <ele>748.51999999999998</ele>
        <time>2025-04-25T08:15:15Z</time>
      </trkpt>
      <trkpt lat="44.918037978932261" lon="3.120078966021538">
        <ele>748.03999999999996</ele>
        <time>2025-04-25T08:15:16Z</time>
      </trkpt>
      <trkpt lat="44.91794896312058" lon="3.120216010138392">
        <ele>748.03999999999996</ele>
        <time>2025-04-25T08:15:17Z</time>
      </trkpt>
      <trkpt lat="44.917851984500885" lon="3.120364034548402">
        <ele>748.03999999999996</ele>
        <time>2025-04-25T08:15:18Z</time>
      </trkpt>
      <trkpt lat="44.917743019759655" lon="3.120513986796141">
        <ele>747.55999999999995</ele>
        <time>2025-04-25T08:15:19Z</time>
      </trkpt>
      <trkpt lat="44.916753033176064" lon="3.121794993057847">
        <ele>747.55999999999995</ele>
        <time>2025-04-25T08:15:27Z</time>
      </trkpt>
      <trkpt lat="44.916655970737338" lon="3.121980987489224">
        <ele>747.55999999999995</ele>
        <time>2025-04-25T08:15:28Z</time>
      </trkpt>
      <trkpt lat="44.916237965226173" lon="3.122783973813057">
        <ele>747.55999999999995</ele>
        <time>2025-04-25T08:15:33Z</time>
      </trkpt>
      <trkpt lat="44.916139980778098" lon="3.122828984633088">
        <ele>747.55999999999995</ele>
        <time>2025-04-25T08:15:34Z</time>
      </trkpt>
      <trkpt lat="44.916070997714996" lon="3.12285203486681">
        <ele>747.55999999999995</ele>
        <time>2025-04-25T08:15:35Z</time>
      </trkpt>
      <trkpt lat="44.91599396802485" lon="3.122821021825075">
        <ele>747.55999999999995</ele>
        <time>2025-04-25T08:15:36Z</time>
      </trkpt>
      <trkpt lat="44.915930014103651" lon="3.122780034318566">
        <ele>749</ele>
        <time>2025-04-25T08:15:37Z</time>
      </trkpt>
      <trkpt lat="44.915851978585124" lon="3.122705016285181">
        <ele>749.49000000000001</ele>
        <time>2025-04-25T08:15:38Z</time>
      </trkpt>
      <trkpt lat="44.915074976161122" lon="3.121956009417772">
        <ele>752.37</ele>
        <time>2025-04-25T08:15:45Z</time>
      </trkpt>
      <trkpt lat="44.913859013468027" lon="3.120780028402805">
        <ele>754.28999999999996</ele>
        <time>2025-04-25T08:15:54Z</time>
      </trkpt>
      <trkpt lat="44.913331037387252" lon="3.120193965733051">
        <ele>753.80999999999995</ele>
        <time>2025-04-25T08:15:58Z</time>
      </trkpt>
      <trkpt lat="44.913172032684088" lon="3.120085000991821">
        <ele>753.80999999999995</ele>
        <time>2025-04-25T08:15:59Z</time>
      </trkpt>
      <trkpt lat="44.912379020825028" lon="3.119512014091015">
        <ele>752.85000000000002</ele>
        <time>2025-04-25T08:16:04Z</time>
      </trkpt>
      <trkpt lat="44.911919021978974" lon="3.119033994153142">
        <ele>752.37</ele>
        <time>2025-04-25T08:16:07Z</time>
      </trkpt>
      <trkpt lat="44.911384005099535" lon="3.118247017264366">
        <ele>751.40999999999997</ele>
        <time>2025-04-25T08:16:11Z</time>
      </trkpt>
      <trkpt lat="44.911270011216402" lon="3.118034033104777">
        <ele>751.40999999999997</ele>
        <time>2025-04-25T08:16:12Z</time>
      </trkpt>
      <trkpt lat="44.911045962944627" lon="3.11761200428009">
        <ele>750.92999999999995</ele>
        <time>2025-04-25T08:16:14Z</time>
      </trkpt>
      <trkpt lat="44.910917971283197" lon="3.117394996806979">
        <ele>750.92999999999995</ele>
        <time>2025-04-25T08:16:15Z</time>
      </trkpt>
      <trkpt lat="44.910768019035459" lon="3.117209002375603">
        <ele>750.45000000000005</ele>
        <time>2025-04-25T08:16:16Z</time>
      </trkpt>
      <trkpt lat="44.910599961876869" lon="3.117033988237381">
        <ele>750.45000000000005</ele>
        <time>2025-04-25T08:16:17Z</time>
      </trkpt>
      <trkpt lat="44.910427965223789" lon="3.116896022111177">
        <ele>750.92999999999995</ele>
        <time>2025-04-25T08:16:18Z</time>
      </trkpt>
      <trkpt lat="44.910266026854515" lon="3.116767024621368">
        <ele>750.92999999999995</ele>
        <time>2025-04-25T08:16:19Z</time>
      </trkpt>
      <trkpt lat="44.910086989402771" lon="3.116691000759602">
        <ele>751.40999999999997</ele>
        <time>2025-04-25T08:16:20Z</time>
      </trkpt>
      <trkpt lat="44.909911975264549" lon="3.116626041010022">
        <ele>751.40999999999997</ele>
        <time>2025-04-25T08:16:21Z</time>
      </trkpt>
      <trkpt lat="44.909233041107655" lon="3.116373997181654">
        <ele>753.33000000000004</ele>
        <time>2025-04-25T08:16:25Z</time>
      </trkpt>
      <trkpt lat="44.909078981727362" lon="3.116313982754946">
        <ele>753.80999999999995</ele>
        <time>2025-04-25T08:16:26Z</time>
      </trkpt>
      <trkpt lat="44.908936992287636" lon="3.116165958344936">
        <ele>754.28999999999996</ele>
        <time>2025-04-25T08:16:27Z</time>
      </trkpt>
      <trkpt lat="44.908792991191149" lon="3.116016006097198">
        <ele>755.25</ele>
        <time>2025-04-25T08:16:28Z</time>
      </trkpt>
      <trkpt lat="44.908657036721706" lon="3.115876028314233">
        <ele>755.73000000000002</ele>
        <time>2025-04-25T08:16:29Z</time>
      </trkpt>
      <trkpt lat="44.908526027575135" lon="3.115739990025759">
        <ele>756.21000000000004</ele>
        <time>2025-04-25T08:16:30Z</time>
      </trkpt>
      <trkpt lat="44.908446986228228" lon="3.115615015849471">
        <ele>757.17999999999995</ele>
        <time>2025-04-25T08:16:31Z</time>
      </trkpt>
      <trkpt lat="44.908370040357113" lon="3.1154840067029">
        <ele>757.65999999999997</ele>
        <time>2025-04-25T08:16:32Z</time>
      </trkpt>
      <trkpt lat="44.908324023708701" lon="3.115330031141639">
        <ele>758.13999999999999</ele>
        <time>2025-04-25T08:16:33Z</time>
      </trkpt>
      <trkpt lat="44.908333998173475" lon="3.115154011175036">
        <ele>758.62</ele>
        <time>2025-04-25T08:16:34Z</time>
      </trkpt>
      <trkpt lat="44.908361993730068" lon="3.114988971501589">
        <ele>759.10000000000002</ele>
        <time>2025-04-25T08:16:35Z</time>
      </trkpt>
      <trkpt lat="44.908438017591834" lon="3.114832984283567">
        <ele>760.53999999999996</ele>
        <time>2025-04-25T08:16:36Z</time>
      </trkpt>
      <trkpt lat="44.908547988161445" lon="3.11471002176404">
        <ele>761.5</ele>
        <time>2025-04-25T08:16:37Z</time>
      </trkpt>
      <trkpt lat="44.908656030893326" lon="3.114669034257531">
        <ele>762.94000000000005</ele>
        <time>2025-04-25T08:16:38Z</time>
      </trkpt>
      <trkpt lat="44.908772958442569" lon="3.114665010944009">
        <ele>763.89999999999998</ele>
        <time>2025-04-25T08:16:39Z</time>
      </trkpt>
      <trkpt lat="44.908898016437888" lon="3.114714967086911">
        <ele>765.35000000000002</ele>
        <time>2025-04-25T08:16:40Z</time>
      </trkpt>
      <trkpt lat="44.909018967300653" lon="3.114815969020128">
        <ele>766.30999999999995</ele>
        <time>2025-04-25T08:16:41Z</time>
      </trkpt>
      <trkpt lat="44.909137990325689" lon="3.114915965124965">
        <ele>768.23000000000002</ele>
        <time>2025-04-25T08:16:42Z</time>
      </trkpt>
      <trkpt lat="44.909276962280273" lon="3.115031970664859">
        <ele>769.19000000000005</ele>
        <time>2025-04-25T08:16:43Z</time>
      </trkpt>
      <trkpt lat="44.909390034154058" lon="3.115020990371704">
        <ele>770.63</ele>
        <time>2025-04-25T08:16:44Z</time>
      </trkpt>
      <trkpt lat="44.909535963088274" lon="3.114992994815111">
        <ele>772.08000000000004</ele>
        <time>2025-04-25T08:16:45Z</time>
      </trkpt>
      <trkpt lat="44.909689016640186" lon="3.114932980388403">
        <ele>773.51999999999998</ele>
        <time>2025-04-25T08:16:46Z</time>
      </trkpt>
      <trkpt lat="44.90997701883316" lon="3.114819992333651">
        <ele>775.91999999999996</ele>
        <time>2025-04-25T08:16:48Z</time>
      </trkpt>
      <trkpt lat="44.910083971917629" lon="3.114777998998761">
        <ele>776.88</ele>
        <time>2025-04-25T08:16:49Z</time>
      </trkpt>
      <trkpt lat="44.910124959424138" lon="3.114627962931991">
        <ele>778.32000000000005</ele>
        <time>2025-04-25T08:16:50Z</time>
      </trkpt>
      <trkpt lat="44.910155972465873" lon="3.114489996805787">
        <ele>780.25</ele>
        <time>2025-04-25T08:16:51Z</time>
      </trkpt>
      <trkpt lat="44.91019100882113" lon="3.114331997931004">
        <ele>781.69000000000005</ele>
        <time>2025-04-25T08:16:52Z</time>
      </trkpt>
      <trkpt lat="44.910268960520625" lon="3.113990016281605">
        <ele>785.04999999999995</ele>
        <time>2025-04-25T08:16:54Z</time>
      </trkpt>
      <trkpt lat="44.91034003905952" lon="3.113807961344719">
        <ele>786.98000000000002</ele>
        <time>2025-04-25T08:16:55Z</time>
      </trkpt>
      <trkpt lat="44.910412961617112" lon="3.113622972741723">
        <ele>788.41999999999996</ele>
        <time>2025-04-25T08:16:56Z</time>
      </trkpt>
      <trkpt lat="44.910486973822117" lon="3.113433960825205">
        <ele>789.86000000000001</ele>
        <time>2025-04-25T08:16:57Z</time>
      </trkpt>
      <trkpt lat="44.910521004348993" lon="3.113192981109023">
        <ele>791.77999999999997</ele>
        <time>2025-04-25T08:16:58Z</time>
      </trkpt>
      <trkpt lat="44.910542964935303" lon="3.112958958372474">
        <ele>793.22000000000003</ele>
        <time>2025-04-25T08:16:59Z</time>
      </trkpt>
      <trkpt lat="44.910565009340644" lon="3.112735999748111">
        <ele>794.66999999999996</ele>
        <time>2025-04-25T08:17:00Z</time>
      </trkpt>
      <trkpt lat="44.910642961040139" lon="3.112556040287018">
        <ele>796.11000000000001</ele>
        <time>2025-04-25T08:17:01Z</time>
      </trkpt>
      <trkpt lat="44.910718984901905" lon="3.112381026148796">
        <ele>797.54999999999995</ele>
        <time>2025-04-25T08:17:02Z</time>
      </trkpt>
      <trkpt lat="44.91079400293529" lon="3.112228978425264">
        <ele>798.99000000000001</ele>
        <time>2025-04-25T08:17:03Z</time>
      </trkpt>
      <trkpt lat="44.910920988768339" lon="3.112119007855654">
        <ele>800.44000000000005</ele>
        <time>2025-04-25T08:17:04Z</time>
      </trkpt>
      <trkpt lat="44.911059960722923" lon="3.111997973173857">
        <ele>801.88</ele>
        <time>2025-04-25T08:17:05Z</time>
      </trkpt>
      <trkpt lat="44.911204967647791" lon="3.111871993169189">
        <ele>803.32000000000005</ele>
        <time>2025-04-25T08:17:06Z</time>
      </trkpt>
      <trkpt lat="44.911491964012384" lon="3.111601006239653">
        <ele>806.20000000000005</ele>
        <time>2025-04-25T08:17:08Z</time>
      </trkpt>
      <trkpt lat="44.91161098703742" lon="3.11144501902163">
        <ele>808.13</ele>
        <time>2025-04-25T08:17:09Z</time>
      </trkpt>
      <trkpt lat="44.911721041426063" lon="3.111302023753524">
        <ele>809.57000000000005</ele>
        <time>2025-04-25T08:17:10Z</time>
      </trkpt>
      <trkpt lat="44.911841992288828" lon="3.111260030418634">
        <ele>811.00999999999999</ele>
        <time>2025-04-25T08:17:11Z</time>
      </trkpt>
      <trkpt lat="44.911976018920541" lon="3.111218037083745">
        <ele>812.45000000000005</ele>
        <time>2025-04-25T08:17:12Z</time>
      </trkpt>
      <trkpt lat="44.912114990875125" lon="3.111174032092094">
        <ele>813.88999999999999</ele>
        <time>2025-04-25T08:17:13Z</time>
      </trkpt>
      <trkpt lat="44.91225203499198" lon="3.111095996573567">
        <ele>814.85000000000002</ele>
        <time>2025-04-25T08:17:14Z</time>
      </trkpt>
      <trkpt lat="44.912380026653409" lon="3.110977979376912">
        <ele>816.29999999999995</ele>
        <time>2025-04-25T08:17:15Z</time>
      </trkpt>
      <trkpt lat="44.91251103579998" lon="3.110856022685766">
        <ele>817.25999999999999</ele>
        <time>2025-04-25T08:17:16Z</time>
      </trkpt>
      <trkpt lat="44.912754027172923" lon="3.110632980242372">
        <ele>820.13999999999999</ele>
        <time>2025-04-25T08:17:18Z</time>
      </trkpt>
      <trkpt lat="44.912910014390945" lon="3.110586041584611">
        <ele>821.10000000000002</ele>
        <time>2025-04-25T08:17:19Z</time>
      </trkpt>
      <trkpt lat="44.913030965253711" lon="3.110553016886115">
        <ele>822.54999999999995</ele>
        <time>2025-04-25T08:17:20Z</time>
      </trkpt>
      <trkpt lat="44.913243027403951" lon="3.110499959439039">
        <ele>824.95000000000005</ele>
        <time>2025-04-25T08:17:22Z</time>
      </trkpt>
      <trkpt lat="44.913318967446685" lon="3.110464001074433">
        <ele>825.90999999999997</ele>
        <time>2025-04-25T08:17:23Z</time>
      </trkpt>
      <trkpt lat="44.913354003801942" lon="3.110374985262752">
        <ele>826.87</ele>
        <time>2025-04-25T08:17:24Z</time>
      </trkpt>
      <trkpt lat="44.913339000195265" lon="3.110280018299818">
        <ele>827.83000000000004</ele>
        <time>2025-04-25T08:17:25Z</time>
      </trkpt>
      <trkpt lat="44.91330798715353" lon="3.11022100970149">
        <ele>828.78999999999996</ele>
        <time>2025-04-25T08:17:26Z</time>
      </trkpt>
      <trkpt lat="44.913246966898441" lon="3.110160995274782">
        <ele>829.26999999999998</ele>
        <time>2025-04-25T08:17:27Z</time>
      </trkpt>
      <trkpt lat="44.913159040734172" lon="3.110148003324866">
        <ele>830.24000000000001</ele>
        <time>2025-04-25T08:17:28Z</time>
      </trkpt>
      <trkpt lat="44.913056027144194" lon="3.110132999718189">
        <ele>830.24000000000001</ele>
        <time>2025-04-25T08:17:29Z</time>
      </trkpt>
      <trkpt lat="44.912946978583932" lon="3.110115984454751">
        <ele>830.72000000000003</ele>
        <time>2025-04-25T08:17:30Z</time>
      </trkpt>
      <trkpt lat="44.912832984700799" lon="3.110099975019693">
        <ele>831.67999999999995</ele>
        <time>2025-04-25T08:17:31Z</time>
      </trkpt>
      <trkpt lat="44.912589993327856" lon="3.110036021098495">
        <ele>832.63999999999999</ele>
        <time>2025-04-25T08:17:33Z</time>
      </trkpt>
      <trkpt lat="44.912466024979949" lon="3.109973995015025">
        <ele>833.60000000000002</ele>
        <time>2025-04-25T08:17:34Z</time>
      </trkpt>
      <trkpt lat="44.912337027490139" lon="3.109910041093826">
        <ele>834.08000000000004</ele>
        <time>2025-04-25T08:17:35Z</time>
      </trkpt>
      <trkpt lat="44.912204006686807" lon="3.109821025282145">
        <ele>835.03999999999996</ele>
        <time>2025-04-25T08:17:36Z</time>
      </trkpt>
      <trkpt lat="44.912090012803674" lon="3.109690016135573">
        <ele>836</ele>
        <time>2025-04-25T08:17:37Z</time>
      </trkpt>
      <trkpt lat="44.911971995607018" lon="3.10955498367548">
        <ele>836.48000000000002</ele>
        <time>2025-04-25T08:17:38Z</time>
      </trkpt>
      <trkpt lat="44.911850038915873" lon="3.109417017549276">
        <ele>837.45000000000005</ele>
        <time>2025-04-25T08:17:39Z</time>
      </trkpt>
      <trkpt lat="44.91171701811254" lon="3.109305035322905">
        <ele>838.40999999999997</ele>
        <time>2025-04-25T08:17:40Z</time>
      </trkpt>
      <trkpt lat="44.91156698204577" lon="3.109218031167984">
        <ele>839.85000000000002</ele>
        <time>2025-04-25T08:17:41Z</time>
      </trkpt>
      <trkpt lat="44.911425998434424" lon="3.109136978164315">
        <ele>840.80999999999995</ele>
        <time>2025-04-25T08:17:42Z</time>
      </trkpt>
      <trkpt lat="44.911304963752627" lon="3.109066989272833">
        <ele>841.28999999999996</ele>
        <time>2025-04-25T08:17:43Z</time>
      </trkpt>
      <trkpt lat="44.911207985132933" lon="3.108957018703222">
        <ele>842.25</ele>
        <time>2025-04-25T08:17:44Z</time>
      </trkpt>
      <trkpt lat="44.911159034818411" lon="3.108811005949974">
        <ele>843.21000000000004</ele>
        <time>2025-04-25T08:17:45Z</time>
      </trkpt>
      <trkpt lat="44.911141013726592" lon="3.108628029003739">
        <ele>844.17999999999995</ele>
        <time>2025-04-25T08:17:46Z</time>
      </trkpt>
      <trkpt lat="44.91118099540472" lon="3.108468018472195">
        <ele>845.62</ele>
        <time>2025-04-25T08:17:47Z</time>
      </trkpt>
      <trkpt lat="44.911289038136601" lon="3.108338015154004">
        <ele>846.58000000000004</ele>
        <time>2025-04-25T08:17:48Z</time>
      </trkpt>
      <trkpt lat="44.911404037848115" lon="3.108216980472207">
        <ele>847.53999999999996</ele>
        <time>2025-04-25T08:17:49Z</time>
      </trkpt>
      <trkpt lat="44.911529012024403" lon="3.108086977154017">
        <ele>848.5</ele>
        <time>2025-04-25T08:17:50Z</time>
      </trkpt>
      <trkpt lat="44.91165398620069" lon="3.107956973835826">
        <ele>849.46000000000004</ele>
        <time>2025-04-25T08:17:51Z</time>
      </trkpt>
      <trkpt lat="44.911736967042089" lon="3.107781037688255">
        <ele>851.38</ele>
        <time>2025-04-25T08:17:52Z</time>
      </trkpt>
      <trkpt lat="44.911792958155274" lon="3.107589008286595">
        <ele>852.83000000000004</ele>
        <time>2025-04-25T08:17:53Z</time>
      </trkpt>
      <trkpt lat="44.911807961761951" lon="3.107355991378427">
        <ele>854.75</ele>
        <time>2025-04-25T08:17:54Z</time>
      </trkpt>
      <trkpt lat="44.911822965368629" lon="3.107107970863581">
        <ele>856.19000000000005</ele>
        <time>2025-04-25T08:17:55Z</time>
      </trkpt>
      <trkpt lat="44.91188901476562" lon="3.106056964024901">
        <ele>863.39999999999998</ele>
        <time>2025-04-25T08:17:59Z</time>
      </trkpt>
      <trkpt lat="44.911957997828722" lon="3.105825036764145">
        <ele>864.84000000000003</ele>
        <time>2025-04-25T08:18:00Z</time>
      </trkpt>
      <trkpt lat="44.912058999761939" lon="3.105613980442286">
        <ele>865.79999999999995</ele>
        <time>2025-04-25T08:18:01Z</time>
      </trkpt>
      <trkpt lat="44.912536013871431" lon="3.104503965005279">
        <ele>873.98000000000002</ele>
        <time>2025-04-25T08:18:06Z</time>
      </trkpt>
      <trkpt lat="44.912552023306489" lon="3.104268014431">
        <ele>875.41999999999996</ele>
        <time>2025-04-25T08:18:07Z</time>
      </trkpt>
      <trkpt lat="44.912537019699812" lon="3.104050001129508">
        <ele>876.86000000000001</ele>
        <time>2025-04-25T08:18:08Z</time>
      </trkpt>
      <trkpt lat="44.912473987787962" lon="3.1038380227983">
        <ele>878.29999999999995</ele>
        <time>2025-04-25T08:18:09Z</time>
      </trkpt>
      <trkpt lat="44.912392012774944" lon="3.103655967861414">
        <ele>880.22000000000003</ele>
        <time>2025-04-25T08:18:10Z</time>
      </trkpt>
      <trkpt lat="44.912278018891811" lon="3.10351699590683">
        <ele>881.66999999999996</ele>
        <time>2025-04-25T08:18:11Z</time>
      </trkpt>
      <trkpt lat="44.912128988653421" lon="3.103393027558923">
        <ele>883.11000000000001</ele>
        <time>2025-04-25T08:18:12Z</time>
      </trkpt>
      <trkpt lat="44.911960009485483" lon="3.10332303866744">
        <ele>884.54999999999995</ele>
        <time>2025-04-25T08:18:13Z</time>
      </trkpt>
      <trkpt lat="44.911768985912204" lon="3.103268975391984">
        <ele>885.99000000000001</ele>
        <time>2025-04-25T08:18:14Z</time>
      </trkpt>
      <trkpt lat="44.910574983805418" lon="3.102864967659116">
        <ele>893.20000000000005</ele>
        <time>2025-04-25T08:18:20Z</time>
      </trkpt>
      <trkpt lat="44.910370968282223" lon="3.102864967659116">
        <ele>894.15999999999997</ele>
        <time>2025-04-25T08:18:21Z</time>
      </trkpt>
      <trkpt lat="44.910167036578059" lon="3.102906038984656">
        <ele>895.61000000000001</ele>
        <time>2025-04-25T08:18:22Z</time>
      </trkpt>
      <trkpt lat="44.909966960549355" lon="3.102975022047758">
        <ele>896.57000000000005</ele>
        <time>2025-04-25T08:18:23Z</time>
      </trkpt>
      <trkpt lat="44.909763028845191" lon="3.103046016767621">
        <ele>898.00999999999999</ele>
        <time>2025-04-25T08:18:24Z</time>
      </trkpt>
      <trkpt lat="44.908811012282968" lon="3.10332303866744">
        <ele>901.37</ele>
        <time>2025-04-25T08:18:29Z</time>
      </trkpt>
      <trkpt lat="44.908653013408184" lon="3.103317003697157">
        <ele>901.85000000000002</ele>
        <time>2025-04-25T08:18:30Z</time>
      </trkpt>
      <trkpt lat="44.908499037846923" lon="3.103248020634055">
        <ele>903.77999999999997</ele>
        <time>2025-04-25T08:18:31Z</time>
      </trkpt>
      <trkpt lat="44.908336009830236" lon="3.103175014257431">
        <ele>904.25999999999999</ele>
        <time>2025-04-25T08:18:32Z</time>
      </trkpt>
      <trkpt lat="44.908192008733749" lon="3.103038975968957">
        <ele>905.22000000000003</ele>
        <time>2025-04-25T08:18:33Z</time>
      </trkpt>
      <trkpt lat="44.908065022900701" lon="3.102865973487496">
        <ele>905.70000000000005</ele>
        <time>2025-04-25T08:18:34Z</time>
      </trkpt>
      <trkpt lat="44.907966032624245" lon="3.102660030126572">
        <ele>906.65999999999997</ele>
        <time>2025-04-25T08:18:35Z</time>
      </trkpt>
      <trkpt lat="44.907872993499041" lon="3.102431958541274">
        <ele>908.10000000000002</ele>
        <time>2025-04-25T08:18:36Z</time>
      </trkpt>
      <trkpt lat="44.907776014879346" lon="3.102196007966995">
        <ele>909.05999999999995</ele>
        <time>2025-04-25T08:18:37Z</time>
      </trkpt>
      <trkpt lat="44.907366978004575" lon="3.10123804025352">
        <ele>913.38999999999999</ele>
        <time>2025-04-25T08:18:41Z</time>
      </trkpt>
      <trkpt lat="44.907246027141809" lon="3.101040981709957">
        <ele>914.35000000000002</ele>
        <time>2025-04-25T08:18:42Z</time>
      </trkpt>
      <trkpt lat="44.907096996903419" lon="3.100869990885258">
        <ele>915.30999999999995</ele>
        <time>2025-04-25T08:18:43Z</time>
      </trkpt>
      <trkpt lat="44.906923994421959" lon="3.100728001445532">
        <ele>915.78999999999996</ele>
        <time>2025-04-25T08:18:44Z</time>
      </trkpt>
      <trkpt lat="44.906736994162202" lon="3.1005949806422">
        <ele>916.26999999999998</ele>
        <time>2025-04-25T08:18:45Z</time>
      </trkpt>
      <trkpt lat="44.90653800778091" lon="3.100490961223841">
        <ele>917.24000000000001</ele>
        <time>2025-04-25T08:18:46Z</time>
      </trkpt>
      <trkpt lat="44.905834011733532" lon="3.100044038146734">
        <ele>918.67999999999995</ele>
        <time>2025-04-25T08:18:50Z</time>
      </trkpt>
      <trkpt lat="44.905683975666761" lon="3.099894002079964">
        <ele>919.15999999999997</ele>
        <time>2025-04-25T08:18:51Z</time>
      </trkpt>
      <trkpt lat="44.905574005097151" lon="3.099685041233897">
        <ele>919.63999999999999</ele>
        <time>2025-04-25T08:18:52Z</time>
      </trkpt>
      <trkpt lat="44.90546696819365" lon="3.099471973255277">
        <ele>920.12</ele>
        <time>2025-04-25T08:18:53Z</time>
      </trkpt>
      <trkpt lat="44.905383987352252" lon="3.099235016852617">
        <ele>920.60000000000002</ele>
        <time>2025-04-25T08:18:54Z</time>
      </trkpt>
      <trkpt lat="44.905355991795659" lon="3.098982973024249">
        <ele>921.08000000000004</ele>
        <time>2025-04-25T08:18:55Z</time>
      </trkpt>
      <trkpt lat="44.90533403120935" lon="3.098720032721758">
        <ele>922.03999999999996</ele>
        <time>2025-04-25T08:18:56Z</time>
      </trkpt>
      <trkpt lat="44.905378036201" lon="3.098472012206912">
        <ele>923</ele>
        <time>2025-04-25T08:18:57Z</time>
      </trkpt>
      <trkpt lat="44.905422963202" lon="3.098218040540814">
        <ele>923.96000000000004</ele>
        <time>2025-04-25T08:18:58Z</time>
      </trkpt>
      <trkpt lat="44.905494041740894" lon="3.097968008369207">
        <ele>924.92999999999995</ele>
        <time>2025-04-25T08:18:59Z</time>
      </trkpt>
      <trkpt lat="44.90557199344039" lon="3.097725016996265">
        <ele>925.88999999999999</ele>
        <time>2025-04-25T08:19:00Z</time>
      </trkpt>
      <trkpt lat="44.905650028958917" lon="3.097484959289432">
        <ele>926.85000000000002</ele>
        <time>2025-04-25T08:19:01Z</time>
      </trkpt>
      <trkpt lat="44.905696967616677" lon="3.097240962088108">
        <ele>927.80999999999995</ele>
        <time>2025-04-25T08:19:02Z</time>
      </trkpt>
      <trkpt lat="44.905705014243722" lon="3.096981039270759">
        <ele>928.76999999999998</ele>
        <time>2025-04-25T08:19:03Z</time>
      </trkpt>
      <trkpt lat="44.905712977051735" lon="3.096718015149236">
        <ele>929.25</ele>
        <time>2025-04-25T08:19:04Z</time>
      </trkpt>
      <trkpt lat="44.905699985101819" lon="3.096454991027713">
        <ele>930.21000000000004</ele>
        <time>2025-04-25T08:19:05Z</time>
      </trkpt>
      <trkpt lat="44.905522037297487" lon="3.095161998644471">
        <ele>932.62</ele>
        <time>2025-04-25T08:19:10Z</time>
      </trkpt>
      <trkpt lat="44.905431009829044" lon="3.094978015869856">
        <ele>933.10000000000002</ele>
        <time>2025-04-25T08:19:11Z</time>
      </trkpt>
      <trkpt lat="44.905321039259434" lon="3.094808030873537">
        <ele>933.58000000000004</ele>
        <time>2025-04-25T08:19:12Z</time>
      </trkpt>
      <trkpt lat="44.905177960172296" lon="3.094657994806767">
        <ele>934.05999999999995</ele>
        <time>2025-04-25T08:19:13Z</time>
      </trkpt>
      <trkpt lat="44.905029013752937" lon="3.094501001760364">
        <ele>934.53999999999996</ele>
        <time>2025-04-25T08:19:14Z</time>
      </trkpt>
      <trkpt lat="44.904425013810396" lon="3.093802034854889">
        <ele>935.01999999999998</ele>
        <time>2025-04-25T08:19:18Z</time>
      </trkpt>
      <trkpt lat="44.904308002442122" lon="3.093582009896636">
        <ele>934.53999999999996</ele>
        <time>2025-04-25T08:19:19Z</time>
      </trkpt>
      <trkpt lat="44.904216974973679" lon="3.093336001038551">
        <ele>934.53999999999996</ele>
        <time>2025-04-25T08:19:20Z</time>
      </trkpt>
      <trkpt lat="44.904142040759325" lon="3.093079011887312">
        <ele>934.53999999999996</ele>
        <time>2025-04-25T08:19:21Z</time>
      </trkpt>
      <trkpt lat="44.904083032160997" lon="3.092814981937408">
        <ele>934.53999999999996</ele>
        <time>2025-04-25T08:19:22Z</time>
      </trkpt>
      <trkpt lat="44.903851021081209" lon="3.091810997575522">
        <ele>935.98000000000002</ele>
        <time>2025-04-25T08:19:26Z</time>
      </trkpt>
      <trkpt lat="44.903768040239811" lon="3.091609999537468">
        <ele>936.46000000000004</ele>
        <time>2025-04-25T08:19:27Z</time>
      </trkpt>
      <trkpt lat="44.903667038306594" lon="3.091424005106092">
        <ele>936.46000000000004</ele>
        <time>2025-04-25T08:19:28Z</time>
      </trkpt>
      <trkpt lat="44.903547009453177" lon="3.091267012059689">
        <ele>936.46000000000004</ele>
        <time>2025-04-25T08:19:29Z</time>
      </trkpt>
      <trkpt lat="44.903410971164703" lon="3.091125022619963">
        <ele>936.46000000000004</ele>
        <time>2025-04-25T08:19:30Z</time>
      </trkpt>
      <trkpt lat="44.903263030573726" lon="3.090986972674727">
        <ele>936.46000000000004</ele>
        <time>2025-04-25T08:19:31Z</time>
      </trkpt>
      <trkpt lat="44.902331968769431" lon="3.089920040220022">
        <ele>936.46000000000004</ele>
        <time>2025-04-25T08:19:38Z</time>
      </trkpt>
      <trkpt lat="44.901439966633916" lon="3.089008005335927">
        <ele>941.26999999999998</ele>
        <time>2025-04-25T08:19:45Z</time>
      </trkpt>
      <trkpt lat="44.900397006422281" lon="3.087934032082558">
        <ele>944.14999999999998</ele>
        <time>2025-04-25T08:19:56Z</time>
      </trkpt>
      <trkpt lat="44.900095006451011" lon="3.087693974375725">
        <ele>943.66999999999996</ele>
        <time>2025-04-25T08:19:59Z</time>
      </trkpt>
      <trkpt lat="44.899979000911117" lon="3.08766296133399">
        <ele>943.66999999999996</ele>
        <time>2025-04-25T08:20:00Z</time>
      </trkpt>
      <trkpt lat="44.89985796622932" lon="3.087630020454526">
        <ele>944.14999999999998</ele>
        <time>2025-04-25T08:20:01Z</time>
      </trkpt>
      <trkpt lat="44.89972997456789" lon="3.087667990475893">
        <ele>944.14999999999998</ele>
        <time>2025-04-25T08:20:02Z</time>
      </trkpt>
      <trkpt lat="44.899589996784925" lon="3.087710989639163">
        <ele>944.14999999999998</ele>
        <time>2025-04-25T08:20:03Z</time>
      </trkpt>
      <trkpt lat="44.899443984031677" lon="3.087753988802433">
        <ele>944.14999999999998</ele>
        <time>2025-04-25T08:20:04Z</time>
      </trkpt>
      <trkpt lat="44.899303000420332" lon="3.087860019877553">
        <ele>944.63</ele>
        <time>2025-04-25T08:20:05Z</time>
      </trkpt>
      <trkpt lat="44.899160005152225" lon="3.087974013760686">
        <ele>945.11000000000001</ele>
        <time>2025-04-25T08:20:06Z</time>
      </trkpt>
      <trkpt lat="44.898240007460117" lon="3.088777000084519">
        <ele>947.51999999999998</ele>
        <time>2025-04-25T08:20:12Z</time>
      </trkpt>
      <trkpt lat="44.898057030513883" lon="3.088865010067821">
        <ele>948</ele>
        <time>2025-04-25T08:20:13Z</time>
      </trkpt>
      <trkpt lat="44.896482992917299" lon="3.089421987533569">
        <ele>949.44000000000005</ele>
        <time>2025-04-25T08:20:21Z</time>
      </trkpt>
      <trkpt lat="44.896109998226166" lon="3.089472027495503">
        <ele>948.96000000000004</ele>
        <time>2025-04-25T08:20:23Z</time>
      </trkpt>
      <trkpt lat="44.895913023501635" lon="3.089542016386986">
        <ele>948.96000000000004</ele>
        <time>2025-04-25T08:20:24Z</time>
      </trkpt>
      <trkpt lat="44.895272981375456" lon="3.089735973626375">
        <ele>947.03999999999996</ele>
        <time>2025-04-25T08:20:27Z</time>
      </trkpt>
      <trkpt lat="44.895048011094332" lon="3.08974402025342">
        <ele>946.07000000000005</ele>
        <time>2025-04-25T08:20:28Z</time>
      </trkpt>
      <trkpt lat="44.894817005842924" lon="3.089707978069782">
        <ele>945.59000000000003</ele>
        <time>2025-04-25T08:20:29Z</time>
      </trkpt>
      <trkpt lat="44.893251014873385" lon="3.089457023888826">
        <ele>946.07000000000005</ele>
        <time>2025-04-25T08:20:36Z</time>
      </trkpt>
      <trkpt lat="44.893064014613628" lon="3.089477978646755">
        <ele>946.55999999999995</ele>
        <time>2025-04-25T08:20:37Z</time>
      </trkpt>
      <trkpt lat="44.892711974680424" lon="3.089518966153264">
        <ele>946.55999999999995</ele>
        <time>2025-04-25T08:20:39Z</time>
      </trkpt>
      <trkpt lat="44.892541989684105" lon="3.089480996131897">
        <ele>946.55999999999995</ele>
        <time>2025-04-25T08:20:40Z</time>
      </trkpt>
      <trkpt lat="44.892362030223012" lon="3.089376976713538">
        <ele>946.07000000000005</ele>
        <time>2025-04-25T08:20:41Z</time>
      </trkpt>
      <trkpt lat="44.892173018306494" lon="3.089258037507534">
        <ele>945.59000000000003</ele>
        <time>2025-04-25T08:20:42Z</time>
      </trkpt>
      <trkpt lat="44.891975037753582" lon="3.089132979512215">
        <ele>944.63</ele>
        <time>2025-04-25T08:20:43Z</time>
      </trkpt>
      <trkpt lat="44.890283988788724" lon="3.088239971548319">
        <ele>939.83000000000004</ele>
        <time>2025-04-25T08:20:51Z</time>
      </trkpt>
      <trkpt lat="44.888802990317345" lon="3.087754994630814">
        <ele>942.23000000000002</ele>
        <time>2025-04-25T08:20:58Z</time>
      </trkpt>
      <trkpt lat="44.888277025893331" lon="3.087648041546345">
        <ele>945.11000000000001</ele>
        <time>2025-04-25T08:21:01Z</time>
      </trkpt>
      <trkpt lat="44.888119027018547" lon="3.087685005739331">
        <ele>946.55999999999995</ele>
        <time>2025-04-25T08:21:02Z</time>
      </trkpt>
      <trkpt lat="44.887952981516719" lon="3.087771004065871">
        <ele>947.51999999999998</ele>
        <time>2025-04-25T08:21:03Z</time>
      </trkpt>
      <trkpt lat="44.88741603679955" lon="3.087993962690234">
        <ele>951.84000000000003</ele>
        <time>2025-04-25T08:21:06Z</time>
      </trkpt>
      <trkpt lat="44.887227024883032" lon="3.088021036237478">
        <ele>952.79999999999995</ele>
        <time>2025-04-25T08:21:07Z</time>
      </trkpt>
      <trkpt lat="44.887028960511088" lon="3.088021036237478">
        <ele>954.25</ele>
        <time>2025-04-25T08:21:08Z</time>
      </trkpt>
      <trkpt lat="44.885481996461749" lon="3.087603030726314">
        <ele>960.00999999999999</ele>
        <time>2025-04-25T08:21:15Z</time>
      </trkpt>
      <trkpt lat="44.883802011609077" lon="3.087021997198463">
        <ele>963.38</ele>
        <time>2025-04-25T08:21:23Z</time>
      </trkpt>
      <trkpt lat="44.882641034200788" lon="3.086858969181776">
        <ele>960.98000000000002</ele>
        <time>2025-04-25T08:21:29Z</time>
      </trkpt>
      <trkpt lat="44.88245596177876" lon="3.086889982223511">
        <ele>960.49000000000001</ele>
        <time>2025-04-25T08:21:30Z</time>
      </trkpt>
      <trkpt lat="44.881876017898321" lon="3.087032977491617">
        <ele>959.52999999999997</ele>
        <time>2025-04-25T08:21:33Z</time>
      </trkpt>
      <trkpt lat="44.881674014031887" lon="3.087045969441533">
        <ele>959.52999999999997</ele>
        <time>2025-04-25T08:21:34Z</time>
      </trkpt>
      <trkpt lat="44.881472010165453" lon="3.087020991370082">
        <ele>959.52999999999997</ele>
        <time>2025-04-25T08:21:35Z</time>
      </trkpt>
      <trkpt lat="44.88127201795578" lon="3.08697396889329">
        <ele>959.04999999999995</ele>
        <time>2025-04-25T08:21:36Z</time>
      </trkpt>
      <trkpt lat="44.881071019917727" lon="3.086927030235529">
        <ele>959.52999999999997</ele>
        <time>2025-04-25T08:21:37Z</time>
      </trkpt>
      <trkpt lat="44.880314972251654" lon="3.086724020540714">
        <ele>960.98000000000002</ele>
        <time>2025-04-25T08:21:41Z</time>
      </trkpt>
      <trkpt lat="44.87908199429512" lon="3.085759012028575">
        <ele>965.77999999999997</ele>
        <time>2025-04-25T08:21:48Z</time>
      </trkpt>
      <trkpt lat="44.877862008288503" lon="3.084736000746489">
        <ele>964.34000000000003</ele>
        <time>2025-04-25T08:21:55Z</time>
      </trkpt>
      <trkpt lat="44.877711972221732" lon="3.084587976336479">
        <ele>964.82000000000005</ele>
        <time>2025-04-25T08:21:56Z</time>
      </trkpt>
      <trkpt lat="44.87757601775229" lon="3.084426037967205">
        <ele>964.82000000000005</ele>
        <time>2025-04-25T08:21:57Z</time>
      </trkpt>
      <trkpt lat="44.877445008605719" lon="3.08426602743566">
        <ele>964.82000000000005</ele>
        <time>2025-04-25T08:21:58Z</time>
      </trkpt>
      <trkpt lat="44.877345012500882" lon="3.084066035225987">
        <ele>965.29999999999995</ele>
        <time>2025-04-25T08:21:59Z</time>
      </trkpt>
      <trkpt lat="44.8772559966892" lon="3.083862019702792">
        <ele>965.29999999999995</ele>
        <time>2025-04-25T08:22:00Z</time>
      </trkpt>
      <trkpt lat="44.877165975049138" lon="3.083659010007978">
        <ele>965.77999999999997</ele>
        <time>2025-04-25T08:22:01Z</time>
      </trkpt>
      <trkpt lat="44.87706002779305" lon="3.083452982828021">
        <ele>966.25999999999999</ele>
        <time>2025-04-25T08:22:02Z</time>
      </trkpt>
      <trkpt lat="44.876904962584376" lon="3.083270005881786">
        <ele>966.74000000000001</ele>
        <time>2025-04-25T08:22:03Z</time>
      </trkpt>
      <trkpt lat="44.875684976577759" lon="3.08177400380373">
        <ele>972.50999999999999</ele>
        <time>2025-04-25T08:22:10Z</time>
      </trkpt>
      <trkpt lat="44.874329958111048" lon="3.079931996762753">
        <ele>981.15999999999997</ele>
        <time>2025-04-25T08:22:19Z</time>
      </trkpt>
      <trkpt lat="44.874205989763141" lon="3.079664027318358">
        <ele>982.12</ele>
        <time>2025-04-25T08:22:23Z</time>
      </trkpt>
      <trkpt lat="44.874172965064645" lon="3.07958398014307">
        <ele>983.09000000000003</ele>
        <time>2025-04-25T08:22:32Z</time>
      </trkpt>
      <trkpt lat="44.874159973114729" lon="3.079537963494659">
        <ele>983.09000000000003</ele>
        <time>2025-04-25T08:22:34Z</time>
      </trkpt>
      <trkpt lat="44.874130971729755" lon="3.079436961561441">
        <ele>983.57000000000005</ele>
        <time>2025-04-25T08:22:35Z</time>
      </trkpt>
      <trkpt lat="44.873886974528432" lon="3.07857203297317">
        <ele>982.60000000000002</ele>
        <time>2025-04-25T08:22:40Z</time>
      </trkpt>
      <trkpt lat="44.873325973749161" lon="3.07683203369379">
        <ele>981.63999999999999</ele>
        <time>2025-04-25T08:22:47Z</time>
      </trkpt>
      <trkpt lat="44.872902017086744" lon="3.075217008590698">
        <ele>981.15999999999997</ele>
        <time>2025-04-25T08:22:53Z</time>
      </trkpt>
      <trkpt lat="44.872781988233328" lon="3.07472599670291">
        <ele>981.63999999999999</ele>
        <time>2025-04-25T08:22:55Z</time>
      </trkpt>
      <trkpt lat="44.87271904014051" lon="3.07449197396636">
        <ele>982.12</ele>
        <time>2025-04-25T08:22:56Z</time>
      </trkpt>
      <trkpt lat="44.872627006843686" lon="3.074282007291913">
        <ele>982.12</ele>
        <time>2025-04-25T08:22:57Z</time>
      </trkpt>
      <trkpt lat="44.872509995475411" lon="3.074085032567382">
        <ele>982.60000000000002</ele>
        <time>2025-04-25T08:22:58Z</time>
      </trkpt>
      <trkpt lat="44.872388038784266" lon="3.073882022872567">
        <ele>982.60000000000002</ele>
        <time>2025-04-25T08:22:59Z</time>
      </trkpt>
      <trkpt lat="44.872006997466087" lon="3.073240974918008">
        <ele>982.60000000000002</ele>
        <time>2025-04-25T08:23:02Z</time>
      </trkpt>
      <trkpt lat="44.871893003582954" lon="3.072993038222194">
        <ele>982.60000000000002</ele>
        <time>2025-04-25T08:23:03Z</time>
      </trkpt>
      <trkpt lat="44.871410960331559" lon="3.07169602252543">
        <ele>983.09000000000003</ele>
        <time>2025-04-25T08:23:08Z</time>
      </trkpt>
      <trkpt lat="44.871351029723883" lon="3.071406008675695">
        <ele>983.09000000000003</ele>
        <time>2025-04-25T08:23:09Z</time>
      </trkpt>
      <trkpt lat="44.871322028338909" lon="3.071111971512437">
        <ele>982.60000000000002</ele>
        <time>2025-04-25T08:23:10Z</time>
      </trkpt>
      <trkpt lat="44.871295038610697" lon="3.070837967097759">
        <ele>982.60000000000002</ele>
        <time>2025-04-25T08:23:11Z</time>
      </trkpt>
      <trkpt lat="44.871269976720214" lon="3.070579972118139">
        <ele>982.60000000000002</ele>
        <time>2025-04-25T08:23:12Z</time>
      </trkpt>
      <trkpt lat="44.871225971728563" lon="3.070342009887099">
        <ele>983.09000000000003</ele>
        <time>2025-04-25T08:23:13Z</time>
      </trkpt>
      <trkpt lat="44.871147014200687" lon="3.070127014070749">
        <ele>983.09000000000003</ele>
        <time>2025-04-25T08:23:14Z</time>
      </trkpt>
      <trkpt lat="44.87106897868216" lon="3.069919981062412">
        <ele>983.09000000000003</ele>
        <time>2025-04-25T08:23:15Z</time>
      </trkpt>
      <trkpt lat="44.870973005890846" lon="3.069715965539217">
        <ele>983.09000000000003</ele>
        <time>2025-04-25T08:23:16Z</time>
      </trkpt>
      <trkpt lat="44.870292982086539" lon="3.067952999845147">
        <ele>975.88</ele>
        <time>2025-04-25T08:23:23Z</time>
      </trkpt>
      <trkpt lat="44.870020989328623" lon="3.067173985764384">
        <ele>972.02999999999997</ele>
        <time>2025-04-25T08:23:26Z</time>
      </trkpt>
      <trkpt lat="44.86990800127387" lon="3.066919008269906">
        <ele>970.59000000000003</ele>
        <time>2025-04-25T08:23:27Z</time>
      </trkpt>
      <trkpt lat="44.869312969967723" lon="3.065631967037916">
        <ele>963.86000000000001</ele>
        <time>2025-04-25T08:23:33Z</time>
      </trkpt>
      <trkpt lat="44.86921900883317" lon="3.06548997759819">
        <ele>962.89999999999998</ele>
        <time>2025-04-25T08:23:34Z</time>
      </trkpt>
      <trkpt lat="44.869092023000121" lon="3.065444966778159">
        <ele>961.46000000000004</ele>
        <time>2025-04-25T08:23:35Z</time>
      </trkpt>
      <trkpt lat="44.868955984711647" lon="3.065400961786509">
        <ele>960.49000000000001</ele>
        <time>2025-04-25T08:23:36Z</time>
      </trkpt>
      <trkpt lat="44.868801003322005" lon="3.065444966778159">
        <ele>959.52999999999997</ele>
        <time>2025-04-25T08:23:37Z</time>
      </trkpt>
      <trkpt lat="44.868635041639209" lon="3.065491989254952">
        <ele>958.57000000000005</ele>
        <time>2025-04-25T08:23:38Z</time>
      </trkpt>
      <trkpt lat="44.868507971987128" lon="3.06552903726697">
        <ele>957.13</ele>
        <time>2025-04-25T08:23:39Z</time>
      </trkpt>
      <trkpt lat="44.868350978940725" lon="3.065685024484992">
        <ele>956.16999999999996</ele>
        <time>2025-04-25T08:23:40Z</time>
      </trkpt>
      <trkpt lat="44.868217036128044" lon="3.065818967297673">
        <ele>955.21000000000004</ele>
        <time>2025-04-25T08:23:41Z</time>
      </trkpt>
      <trkpt lat="44.868098013103008" lon="3.065976966172457">
        <ele>953.76999999999998</ele>
        <time>2025-04-25T08:23:42Z</time>
      </trkpt>
      <trkpt lat="44.868013020604849" lon="3.06619799695909">
        <ele>952.79999999999995</ele>
        <time>2025-04-25T08:23:43Z</time>
      </trkpt>
      <trkpt lat="44.867930039763451" lon="3.06641299277544">
        <ele>951.36000000000001</ele>
        <time>2025-04-25T08:23:44Z</time>
      </trkpt>
      <trkpt lat="44.867891985923052" lon="3.066622959449887">
        <ele>950.39999999999998</ele>
        <time>2025-04-25T08:23:45Z</time>
      </trkpt>
      <trkpt lat="44.867868013679981" lon="3.066852036863565">
        <ele>949.44000000000005</ele>
        <time>2025-04-25T08:23:46Z</time>
      </trkpt>
      <trkpt lat="44.86784596927464" lon="3.067064015194774">
        <ele>948.48000000000002</ele>
        <time>2025-04-25T08:23:47Z</time>
      </trkpt>
      <trkpt lat="44.867791989818215" lon="3.067234000191093">
        <ele>947.51999999999998</ele>
        <time>2025-04-25T08:23:48Z</time>
      </trkpt>
      <trkpt lat="44.86775703728199" lon="3.067330978810787">
        <ele>946.55999999999995</ele>
        <time>2025-04-25T08:23:49Z</time>
      </trkpt>
      <trkpt lat="44.867641031742096" lon="3.067370038479567">
        <ele>946.07000000000005</ele>
        <time>2025-04-25T08:23:50Z</time>
      </trkpt>
      <trkpt lat="44.86754396930337" lon="3.067351011559367">
        <ele>945.11000000000001</ele>
        <time>2025-04-25T08:23:51Z</time>
      </trkpt>
      <trkpt lat="44.867423018440604" lon="3.067316981032491">
        <ele>944.14999999999998</ele>
        <time>2025-04-25T08:23:52Z</time>
      </trkpt>
      <trkpt lat="44.867303995415568" lon="3.067284040153027">
        <ele>943.19000000000005</ele>
        <time>2025-04-25T08:23:53Z</time>
      </trkpt>
      <trkpt lat="44.867173992097378" lon="3.067289991304278">
        <ele>942.23000000000002</ele>
        <time>2025-04-25T08:23:54Z</time>
      </trkpt>
      <trkpt lat="44.867059998214245" lon="3.067371966317296">
        <ele>941.26999999999998</ele>
        <time>2025-04-25T08:23:55Z</time>
      </trkpt>
      <trkpt lat="44.866956984624267" lon="3.067491995170713">
        <ele>940.30999999999995</ele>
        <time>2025-04-25T08:23:56Z</time>
      </trkpt>
      <trkpt lat="44.866842990741134" lon="3.067625015974045">
        <ele>939.35000000000002</ele>
        <time>2025-04-25T08:23:57Z</time>
      </trkpt>
      <trkpt lat="44.866722039878368" lon="3.067767005413771">
        <ele>937.89999999999998</ele>
        <time>2025-04-25T08:23:58Z</time>
      </trkpt>
      <trkpt lat="44.866593964397907" lon="3.067916035652161">
        <ele>936.94000000000005</ele>
        <time>2025-04-25T08:23:59Z</time>
      </trkpt>
      <trkpt lat="44.866459015756845" lon="3.06806699372828">
        <ele>936.46000000000004</ele>
        <time>2025-04-25T08:24:00Z</time>
      </trkpt>
      <trkpt lat="44.866290036588907" lon="3.06817201897502">
        <ele>935.5</ele>
        <time>2025-04-25T08:24:01Z</time>
      </trkpt>
      <trkpt lat="44.865604983642697" lon="3.068574015051127">
        <ele>931.64999999999998</ele>
        <time>2025-04-25T08:24:05Z</time>
      </trkpt>
      <trkpt lat="44.865429969504476" lon="3.068623971194029">
        <ele>930.21000000000004</ele>
        <time>2025-04-25T08:24:06Z</time>
      </trkpt>
      <trkpt lat="44.86475296318531" lon="3.068682979792357">
        <ele>925.40999999999997</ele>
        <time>2025-04-25T08:24:11Z</time>
      </trkpt>
      <trkpt lat="44.864684985950589" lon="3.068597987294197">
        <ele>924.45000000000005</ele>
        <time>2025-04-25T08:24:12Z</time>
      </trkpt>
      <trkpt lat="44.864651039242744" lon="3.068494973704219">
        <ele>923.96000000000004</ele>
        <time>2025-04-25T08:24:13Z</time>
      </trkpt>
      <trkpt lat="44.8646239656955" lon="3.068361030891538">
        <ele>923.48000000000002</ele>
        <time>2025-04-25T08:24:14Z</time>
      </trkpt>
      <trkpt lat="44.86466595903039" lon="3.068249970674515">
        <ele>922.51999999999998</ele>
        <time>2025-04-25T08:24:15Z</time>
      </trkpt>
      <trkpt lat="44.864739971235394" lon="3.068150980398059">
        <ele>922.03999999999996</ele>
        <time>2025-04-25T08:24:16Z</time>
      </trkpt>
      <trkpt lat="44.864860000088811" lon="3.068060958757997">
        <ele>921.55999999999995</ele>
        <time>2025-04-25T08:24:17Z</time>
      </trkpt>
      <trkpt lat="44.864984974265099" lon="3.067985018715262">
        <ele>921.55999999999995</ele>
        <time>2025-04-25T08:24:18Z</time>
      </trkpt>
      <trkpt lat="44.865263001993299" lon="3.067805981263518">
        <ele>921.55999999999995</ele>
        <time>2025-04-25T08:24:20Z</time>
      </trkpt>
      <trkpt lat="44.865380013361573" lon="3.067671032622457">
        <ele>922.03999999999996</ele>
        <time>2025-04-25T08:24:21Z</time>
      </trkpt>
      <trkpt lat="44.865499958395958" lon="3.067531976848841">
        <ele>922.51999999999998</ele>
        <time>2025-04-25T08:24:22Z</time>
      </trkpt>
      <trkpt lat="44.865788966417313" lon="3.067042976617813">
        <ele>923.96000000000004</ele>
        <time>2025-04-25T08:24:25Z</time>
      </trkpt>
      <trkpt lat="44.865848980844021" lon="3.066871985793114">
        <ele>924.45000000000005</ele>
        <time>2025-04-25T08:24:26Z</time>
      </trkpt>
      <trkpt lat="44.865892985835671" lon="3.066659001633525">
        <ele>925.40999999999997</ele>
        <time>2025-04-25T08:24:27Z</time>
      </trkpt>
      <trkpt lat="44.865963980555534" lon="3.066199002787471">
        <ele>926.85000000000002</ele>
        <time>2025-04-25T08:24:29Z</time>
      </trkpt>
      <trkpt lat="44.866032963618636" lon="3.065754007548094">
        <ele>928.28999999999996</ele>
        <time>2025-04-25T08:24:31Z</time>
      </trkpt>
      <trkpt lat="44.866041010245681" lon="3.065523002296686">
        <ele>929.25</ele>
        <time>2025-04-25T08:24:32Z</time>
      </trkpt>
      <trkpt lat="44.865978984162211" lon="3.065376989543438">
        <ele>929.73000000000002</ele>
        <time>2025-04-25T08:24:33Z</time>
      </trkpt>
      <trkpt lat="44.865908995270729" lon="3.065214967355132">
        <ele>930.21000000000004</ele>
        <time>2025-04-25T08:24:34Z</time>
      </trkpt>
      <trkpt lat="44.865869013592601" lon="3.065121006220579">
        <ele>931.16999999999996</ele>
        <time>2025-04-25T08:24:35Z</time>
      </trkpt>
      <trkpt lat="44.865855015814304" lon="3.064910033717752">
        <ele>931.16999999999996</ele>
        <time>2025-04-25T08:24:36Z</time>
      </trkpt>
      <trkpt lat="44.86584696918726" lon="3.064798973500729">
        <ele>931.64999999999998</ele>
        <time>2025-04-25T08:24:37Z</time>
      </trkpt>
      <trkpt lat="44.865900026634336" lon="3.064627982676029">
        <ele>932.13999999999999</ele>
        <time>2025-04-25T08:24:38Z</time>
      </trkpt>
      <trkpt lat="44.8659329675138" lon="3.06452002376318">
        <ele>932.62</ele>
        <time>2025-04-25T08:24:39Z</time>
      </trkpt>
      <trkpt lat="44.866020977497101" lon="3.06441499851644">
        <ele>933.10000000000002</ele>
        <time>2025-04-25T08:24:40Z</time>
      </trkpt>
      <trkpt lat="44.866107981652021" lon="3.064310979098082">
        <ele>933.58000000000004</ele>
        <time>2025-04-25T08:24:41Z</time>
      </trkpt>
      <trkpt lat="44.866256006062031" lon="3.064124984666705">
        <ele>934.53999999999996</ele>
        <time>2025-04-25T08:24:42Z</time>
      </trkpt>
      <trkpt lat="44.866252988576889" lon="3.063865983858705">
        <ele>934.53999999999996</ele>
        <time>2025-04-25T08:24:43Z</time>
      </trkpt>
      <trkpt lat="44.866224993020296" lon="3.063707984983921">
        <ele>934.53999999999996</ele>
        <time>2025-04-25T08:24:44Z</time>
      </trkpt>
      <trkpt lat="44.866202026605606" lon="3.063540011644363">
        <ele>934.53999999999996</ele>
        <time>2025-04-25T08:24:45Z</time>
      </trkpt>
      <trkpt lat="44.866179982200265" lon="3.063380001112819">
        <ele>934.53999999999996</ele>
        <time>2025-04-25T08:24:46Z</time>
      </trkpt>
      <trkpt lat="44.86616900190711" lon="3.063297020271421">
        <ele>935.01999999999998</ele>
        <time>2025-04-25T08:24:47Z</time>
      </trkpt>
      <trkpt lat="44.866208983585238" lon="3.063177997246385">
        <ele>935.01999999999998</ele>
        <time>2025-04-25T08:24:48Z</time>
      </trkpt>
      <trkpt lat="44.86625500023365" lon="3.063040031120181">
        <ele>935.01999999999998</ele>
        <time>2025-04-25T08:24:49Z</time>
      </trkpt>
      <trkpt lat="44.866350973024964" lon="3.062984040006995">
        <ele>935.5</ele>
        <time>2025-04-25T08:24:50Z</time>
      </trkpt>
      <trkpt lat="44.866493968293071" lon="3.062899969518185">
        <ele>935.5</ele>
        <time>2025-04-25T08:24:51Z</time>
      </trkpt>
      <trkpt lat="44.866652972996235" lon="3.062807014212012">
        <ele>935.98000000000002</ele>
        <time>2025-04-25T08:24:52Z</time>
      </trkpt>
      <trkpt lat="44.866811977699399" lon="3.062665024772286">
        <ele>936.94000000000005</ele>
        <time>2025-04-25T08:24:53Z</time>
      </trkpt>
      <trkpt lat="44.866918008774519" lon="3.062477018684149">
        <ele>937.89999999999998</ele>
        <time>2025-04-25T08:24:54Z</time>
      </trkpt>
      <trkpt lat="44.867011969909072" lon="3.062310973182321">
        <ele>938.38</ele>
        <time>2025-04-25T08:24:55Z</time>
      </trkpt>
      <trkpt lat="44.867073995992541" lon="3.062144005671144">
        <ele>939.83000000000004</ele>
        <time>2025-04-25T08:24:56Z</time>
      </trkpt>
      <trkpt lat="44.867078019306064" lon="3.061951976269484">
        <ele>940.78999999999996</ele>
        <time>2025-04-25T08:24:57Z</time>
      </trkpt>
      <trkpt lat="44.867020016536117" lon="3.061790037900209">
        <ele>941.75</ele>
        <time>2025-04-25T08:24:58Z</time>
      </trkpt>
      <trkpt lat="44.866940975189209" lon="3.061646036803722">
        <ele>942.71000000000004</ele>
        <time>2025-04-25T08:24:59Z</time>
      </trkpt>
      <trkpt lat="44.866849025711417" lon="3.061478985473514">
        <ele>944.14999999999998</ele>
        <time>2025-04-25T08:25:00Z</time>
      </trkpt>
      <trkpt lat="44.866699995473027" lon="3.061342025175691">
        <ele>945.11000000000001</ele>
        <time>2025-04-25T08:25:01Z</time>
      </trkpt>
      <trkpt lat="44.866548031568527" lon="3.061217973008752">
        <ele>946.07000000000005</ele>
        <time>2025-04-25T08:25:02Z</time>
      </trkpt>
      <trkpt lat="44.866393972188234" lon="3.061091993004084">
        <ele>947.51999999999998</ele>
        <time>2025-04-25T08:25:03Z</time>
      </trkpt>
      <trkpt lat="44.86610596999526" lon="3.060872973874211">
        <ele>949.91999999999996</ele>
        <time>2025-04-25T08:25:05Z</time>
      </trkpt>
      <trkpt lat="44.866004968062043" lon="3.060764009132981">
        <ele>950.88</ele>
        <time>2025-04-25T08:25:06Z</time>
      </trkpt>
      <trkpt lat="44.865958029404283" lon="3.060617996379733">
        <ele>951.84000000000003</ele>
        <time>2025-04-25T08:25:07Z</time>
      </trkpt>
      <trkpt lat="44.865858033299446" lon="3.06031096726656">
        <ele>955.21000000000004</ele>
        <time>2025-04-25T08:25:09Z</time>
      </trkpt>
      <trkpt lat="44.865796007215977" lon="3.060133019462228">
        <ele>956.64999999999998</ele>
        <time>2025-04-25T08:25:10Z</time>
      </trkpt>
      <trkpt lat="44.86567203886807" lon="3.059974014759064">
        <ele>958.57000000000005</ele>
        <time>2025-04-25T08:25:11Z</time>
      </trkpt>
      <trkpt lat="44.864742988720536" lon="3.058745982125402">
        <ele>968.66999999999996</ele>
        <time>2025-04-25T08:25:18Z</time>
      </trkpt>
      <trkpt lat="44.8646239656955" lon="3.058577002957463">
        <ele>969.14999999999998</ele>
        <time>2025-04-25T08:25:19Z</time>
      </trkpt>
      <trkpt lat="44.86453796736896" lon="3.058340968564153">
        <ele>969.63</ele>
        <time>2025-04-25T08:25:20Z</time>
      </trkpt>
      <trkpt lat="44.864519024267793" lon="3.058146005496383">
        <ele>970.59000000000003</ele>
        <time>2025-04-25T08:25:21Z</time>
      </trkpt>
      <trkpt lat="44.864496979862452" lon="3.057892033830285">
        <ele>971.07000000000005</ele>
        <time>2025-04-25T08:25:22Z</time>
      </trkpt>
      <trkpt lat="44.864512989297509" lon="3.05766798555851">
        <ele>972.02999999999997</ele>
        <time>2025-04-25T08:25:23Z</time>
      </trkpt>
      <trkpt lat="44.864594964310527" lon="3.057419965043664">
        <ele>972.50999999999999</ele>
        <time>2025-04-25T08:25:24Z</time>
      </trkpt>
      <trkpt lat="44.864678028970957" lon="3.057217039167881">
        <ele>972.99000000000001</ele>
        <time>2025-04-25T08:25:25Z</time>
      </trkpt>
      <trkpt lat="44.864832004532218" lon="3.057003971189261">
        <ele>973.47000000000003</ele>
        <time>2025-04-25T08:25:26Z</time>
      </trkpt>
      <trkpt lat="44.86498698592186" lon="3.056831974536181">
        <ele>973.47000000000003</ele>
        <time>2025-04-25T08:25:27Z</time>
      </trkpt>
      <trkpt lat="44.865140039473772" lon="3.056662995368242">
        <ele>973.95000000000005</ele>
        <time>2025-04-25T08:25:28Z</time>
      </trkpt>
      <trkpt lat="44.865284962579608" lon="3.056503990665078">
        <ele>973.95000000000005</ele>
        <time>2025-04-25T08:25:29Z</time>
      </trkpt>
      <trkpt lat="44.865419995039701" lon="3.056354038417339">
        <ele>973.95000000000005</ele>
        <time>2025-04-25T08:25:30Z</time>
      </trkpt>
      <trkpt lat="44.865525020286441" lon="3.056238032877445">
        <ele>973.95000000000005</ele>
        <time>2025-04-25T08:25:31Z</time>
      </trkpt>
      <trkpt lat="44.865587968379259" lon="3.056048015132546">
        <ele>973.95000000000005</ele>
        <time>2025-04-25T08:25:32Z</time>
      </trkpt>
      <trkpt lat="44.865654017776251" lon="3.055851040408015">
        <ele>973.95000000000005</ele>
        <time>2025-04-25T08:25:33Z</time>
      </trkpt>
      <trkpt lat="44.865673966705799" lon="3.055616011843085">
        <ele>973.95000000000005</ele>
        <time>2025-04-25T08:25:34Z</time>
      </trkpt>
      <trkpt lat="44.865697016939521" lon="3.055356005206704">
        <ele>973.95000000000005</ele>
        <time>2025-04-25T08:25:35Z</time>
      </trkpt>
      <trkpt lat="44.86584696918726" lon="3.054314972832799">
        <ele>973.95000000000005</ele>
        <time>2025-04-25T08:25:39Z</time>
      </trkpt>
      <trkpt lat="44.865919975563884" lon="3.054067036136985">
        <ele>973.47000000000003</ele>
        <time>2025-04-25T08:25:40Z</time>
      </trkpt>
      <trkpt lat="44.866013014689088" lon="3.0538210272789">
        <ele>972.99000000000001</ele>
        <time>2025-04-25T08:25:41Z</time>
      </trkpt>
      <trkpt lat="44.866132037714124" lon="3.053642995655537">
        <ele>972.50999999999999</ele>
        <time>2025-04-25T08:25:42Z</time>
      </trkpt>
      <trkpt lat="44.866256006062031" lon="3.053469993174076">
        <ele>972.02999999999997</ele>
        <time>2025-04-25T08:25:43Z</time>
      </trkpt>
      <trkpt lat="44.866386009380221" lon="3.053348958492279">
        <ele>972.02999999999997</ele>
        <time>2025-04-25T08:25:44Z</time>
      </trkpt>
      <trkpt lat="44.866514001041651" lon="3.053230019286275">
        <ele>971.54999999999995</ele>
        <time>2025-04-25T08:25:45Z</time>
      </trkpt>
      <trkpt lat="44.866673005744815" lon="3.05315600708127">
        <ele>971.07000000000005</ele>
        <time>2025-04-25T08:25:46Z</time>
      </trkpt>
      <trkpt lat="44.866838967427611" lon="3.05309004150331">
        <ele>970.59000000000003</ele>
        <time>2025-04-25T08:25:47Z</time>
      </trkpt>
      <trkpt lat="44.867009036242962" lon="3.053021980449557">
        <ele>970.59000000000003</ele>
        <time>2025-04-25T08:25:48Z</time>
      </trkpt>
      <trkpt lat="44.867806993424892" lon="3.052668012678623">
        <ele>968.17999999999995</ele>
        <time>2025-04-25T08:25:53Z</time>
      </trkpt>
      <trkpt lat="44.867953006178141" lon="3.052555024623871">
        <ele>967.70000000000005</ele>
        <time>2025-04-25T08:25:54Z</time>
      </trkpt>
      <trkpt lat="44.868679968640208" lon="3.051988994702697">
        <ele>965.29999999999995</ele>
        <time>2025-04-25T08:25:59Z</time>
      </trkpt>
      <trkpt lat="44.868807038292289" lon="3.051805011928082">
        <ele>964.82000000000005</ele>
        <time>2025-04-25T08:26:00Z</time>
      </trkpt>
      <trkpt lat="44.868900999426842" lon="3.051649024710059">
        <ele>964.34000000000003</ele>
        <time>2025-04-25T08:26:01Z</time>
      </trkpt>
      <trkpt lat="44.868980040773749" lon="3.051474010571837">
        <ele>964.34000000000003</ele>
        <time>2025-04-25T08:26:02Z</time>
      </trkpt>
      <trkpt lat="44.869018010795116" lon="3.051253985613585">
        <ele>963.86000000000001</ele>
        <time>2025-04-25T08:26:03Z</time>
      </trkpt>
      <trkpt lat="44.869057992473245" lon="3.051016023382545">
        <ele>963.38</ele>
        <time>2025-04-25T08:26:04Z</time>
      </trkpt>
      <trkpt lat="44.869099985808134" lon="3.05077102035284">
        <ele>963.38</ele>
        <time>2025-04-25T08:26:05Z</time>
      </trkpt>
      <trkpt lat="44.869095040485263" lon="3.0484280269593">
        <ele>959.52999999999997</ele>
        <time>2025-04-25T08:26:14Z</time>
      </trkpt>
      <trkpt lat="44.869048018008471" lon="3.04630296304822">
        <ele>954.25</ele>
        <time>2025-04-25T08:26:22Z</time>
      </trkpt>
      <trkpt lat="44.869107026606798" lon="3.044963032007217">
        <ele>950.88</ele>
        <time>2025-04-25T08:26:27Z</time>
      </trkpt>
      <trkpt lat="44.869072996079922" lon="3.044718028977513">
        <ele>950.39999999999998</ele>
        <time>2025-04-25T08:26:28Z</time>
      </trkpt>
      <trkpt lat="44.869028991088271" lon="3.04445500485599">
        <ele>949.91999999999996</ele>
        <time>2025-04-25T08:26:29Z</time>
      </trkpt>
      <trkpt lat="44.868845008313656" lon="3.042999990284443">
        <ele>946.07000000000005</ele>
        <time>2025-04-25T08:26:34Z</time>
      </trkpt>
      <trkpt lat="44.868863029405475" lon="3.042694972828031">
        <ele>945.11000000000001</ele>
        <time>2025-04-25T08:26:35Z</time>
      </trkpt>
      <trkpt lat="44.868879960849881" lon="3.042388027533889">
        <ele>944.63</ele>
        <time>2025-04-25T08:26:36Z</time>
      </trkpt>
      <trkpt lat="44.869120018556714" lon="3.040378969162703">
        <ele>939.83000000000004</ele>
        <time>2025-04-25T08:26:43Z</time>
      </trkpt>
      <trkpt lat="44.869106020778418" lon="3.04011301137507">
        <ele>939.35000000000002</ele>
        <time>2025-04-25T08:26:44Z</time>
      </trkpt>
      <trkpt lat="44.869066961109638" lon="3.039827020838857">
        <ele>938.86000000000001</ele>
        <time>2025-04-25T08:26:45Z</time>
      </trkpt>
      <trkpt lat="44.868955984711647" lon="3.038999978452921">
        <ele>937.41999999999996</ele>
        <time>2025-04-25T08:26:48Z</time>
      </trkpt>
      <trkpt lat="44.868954978883266" lon="3.038731003180146">
        <ele>936.94000000000005</ele>
        <time>2025-04-25T08:26:49Z</time>
      </trkpt>
      <trkpt lat="44.869003007188439" lon="3.038468984887004">
        <ele>936.46000000000004</ele>
        <time>2025-04-25T08:26:50Z</time>
      </trkpt>
      <trkpt lat="44.869068972766399" lon="3.038218030706048">
        <ele>935.98000000000002</ele>
        <time>2025-04-25T08:26:51Z</time>
      </trkpt>
      <trkpt lat="44.869152959436178" lon="3.037978978827596">
        <ele>935.01999999999998</ele>
        <time>2025-04-25T08:26:52Z</time>
      </trkpt>
      <trkpt lat="44.869258990511298" lon="3.037762977182865">
        <ele>934.05999999999995</ele>
        <time>2025-04-25T08:26:53Z</time>
      </trkpt>
      <trkpt lat="44.869379019364715" lon="3.037562984973192">
        <ele>933.10000000000002</ele>
        <time>2025-04-25T08:26:54Z</time>
      </trkpt>
      <trkpt lat="44.86954003572464" lon="3.037426024675369">
        <ele>931.64999999999998</ele>
        <time>2025-04-25T08:26:55Z</time>
      </trkpt>
      <trkpt lat="44.869710020720959" lon="3.037290992215276">
        <ele>930.69000000000005</ele>
        <time>2025-04-25T08:26:56Z</time>
      </trkpt>
      <trkpt lat="44.86988696269691" lon="3.037188984453678">
        <ele>929.73000000000002</ele>
        <time>2025-04-25T08:26:57Z</time>
      </trkpt>
      <trkpt lat="44.870402030646801" lon="3.036845996975899">
        <ele>927.80999999999995</ele>
        <time>2025-04-25T08:27:00Z</time>
      </trkpt>
      <trkpt lat="44.870545025914907" lon="3.036690009757876">
        <ele>927.80999999999995</ele>
        <time>2025-04-25T08:27:01Z</time>
      </trkpt>
      <trkpt lat="44.87068098038435" lon="3.036539973691106">
        <ele>927.33000000000004</ele>
        <time>2025-04-25T08:27:02Z</time>
      </trkpt>
      <trkpt lat="44.870783993974328" lon="3.036333024501801">
        <ele>926.85000000000002</ele>
        <time>2025-04-25T08:27:03Z</time>
      </trkpt>
      <trkpt lat="44.870857000350952" lon="3.036103025078774">
        <ele>926.85000000000002</ele>
        <time>2025-04-25T08:27:04Z</time>
      </trkpt>
      <trkpt lat="44.870912991464138" lon="3.035847963765264">
        <ele>926.37</ele>
        <time>2025-04-25T08:27:05Z</time>
      </trkpt>
      <trkpt lat="44.870967976748943" lon="3.03558100014925">
        <ele>926.37</ele>
        <time>2025-04-25T08:27:06Z</time>
      </trkpt>
      <trkpt lat="44.8711740039289" lon="3.033229960128665">
        <ele>924.45000000000005</ele>
        <time>2025-04-25T08:27:14Z</time>
      </trkpt>
      <trkpt lat="44.87115397118032" lon="3.031715014949441">
        <ele>921.08000000000004</ele>
        <time>2025-04-25T08:27:19Z</time>
      </trkpt>
      <trkpt lat="44.871100997552276" lon="3.031409997493029">
        <ele>919.63999999999999</ele>
        <time>2025-04-25T08:27:20Z</time>
      </trkpt>
      <trkpt lat="44.870690032839775" lon="3.029232965782285">
        <ele>911.95000000000005</ele>
        <time>2025-04-25T08:27:27Z</time>
      </trkpt>
      <trkpt lat="44.870605040341616" lon="3.028946975246072">
        <ele>911.47000000000003</ele>
        <time>2025-04-25T08:27:28Z</time>
      </trkpt>
      <trkpt lat="44.869396034628153" lon="3.026189999654889">
        <ele>906.65999999999997</ele>
        <time>2025-04-25T08:27:38Z</time>
      </trkpt>
      <trkpt lat="44.868170013651252" lon="3.023569984361529">
        <ele>902.33000000000004</ele>
        <time>2025-04-25T08:27:48Z</time>
      </trkpt>
      <trkpt lat="44.867744967341423" lon="3.022316973656416">
        <ele>897.52999999999997</ele>
        <time>2025-04-25T08:27:53Z</time>
      </trkpt>
      <trkpt lat="44.867655029520392" lon="3.022101977840066">
        <ele>896.09000000000003</ele>
        <time>2025-04-25T08:27:54Z</time>
      </trkpt>
      <trkpt lat="44.867542963474989" lon="3.021922018378973">
        <ele>894.63999999999999</ele>
        <time>2025-04-25T08:27:55Z</time>
      </trkpt>
      <trkpt lat="44.86743601039052" lon="3.021749015897512">
        <ele>893.20000000000005</ele>
        <time>2025-04-25T08:27:56Z</time>
      </trkpt>
      <trkpt lat="44.867309024557471" lon="3.021617000922561">
        <ele>891.75999999999999</ele>
        <time>2025-04-25T08:27:57Z</time>
      </trkpt>
      <trkpt lat="44.867162005975842" lon="3.021482974290848">
        <ele>890.32000000000005</ele>
        <time>2025-04-25T08:27:58Z</time>
      </trkpt>
      <trkpt lat="44.867000989615917" lon="3.0213369615376">
        <ele>888.88</ele>
        <time>2025-04-25T08:27:59Z</time>
      </trkpt>
      <trkpt lat="44.866090966388583" lon="3.020456023514271">
        <ele>879.74000000000001</ele>
        <time>2025-04-25T08:28:05Z</time>
      </trkpt>
      <trkpt lat="44.866034975275397" lon="3.020317973569036">
        <ele>878.77999999999997</ele>
        <time>2025-04-25T08:28:06Z</time>
      </trkpt>
      <trkpt lat="44.866025000810623" lon="3.020198028534651">
        <ele>877.34000000000003</ele>
        <time>2025-04-25T08:28:07Z</time>
      </trkpt>
      <trkpt lat="44.866035981103778" lon="3.02006802521646">
        <ele>876.38</ele>
        <time>2025-04-25T08:28:08Z</time>
      </trkpt>
      <trkpt lat="44.866072023287416" lon="3.019942967221141">
        <ele>875.89999999999998</ele>
        <time>2025-04-25T08:28:09Z</time>
      </trkpt>
      <trkpt lat="44.866158021613955" lon="3.019840037450194">
        <ele>874.94000000000005</ele>
        <time>2025-04-25T08:28:10Z</time>
      </trkpt>
      <trkpt lat="44.866271009668708" lon="3.019783962517977">
        <ele>873.98000000000002</ele>
        <time>2025-04-25T08:28:11Z</time>
      </trkpt>
      <trkpt lat="44.866397995501757" lon="3.019738029688597">
        <ele>873.00999999999999</ele>
        <time>2025-04-25T08:28:12Z</time>
      </trkpt>
      <trkpt lat="44.86683402210474" lon="3.019615989178419">
        <ele>869.64999999999998</ele>
        <time>2025-04-25T08:28:15Z</time>
      </trkpt>
      <trkpt lat="44.866952039301395" lon="3.019513981416822">
        <ele>868.21000000000004</ele>
        <time>2025-04-25T08:28:16Z</time>
      </trkpt>
      <trkpt lat="44.867022028192878" lon="3.019376015290618">
        <ele>867.25</ele>
        <time>2025-04-25T08:28:17Z</time>
      </trkpt>
      <trkpt lat="44.86709201708436" lon="3.019179962575436">
        <ele>866.28999999999996</ele>
        <time>2025-04-25T08:28:18Z</time>
      </trkpt>
      <trkpt lat="44.867125041782856" lon="3.019032021984458">
        <ele>865.32000000000005</ele>
        <time>2025-04-25T08:28:19Z</time>
      </trkpt>
      <trkpt lat="44.867166029289365" lon="3.018848039209843">
        <ele>863.88</ele>
        <time>2025-04-25T08:28:20Z</time>
      </trkpt>
      <trkpt lat="44.867205005139112" lon="3.018670007586479">
        <ele>862.91999999999996</ele>
        <time>2025-04-25T08:28:21Z</time>
      </trkpt>
      <trkpt lat="44.867279017344117" lon="3.018528018146753">
        <ele>861.48000000000002</ele>
        <time>2025-04-25T08:28:22Z</time>
      </trkpt>
      <trkpt lat="44.867367027327418" lon="3.018417041748762">
        <ele>860.03999999999996</ele>
        <time>2025-04-25T08:28:23Z</time>
      </trkpt>
      <trkpt lat="44.867471968755126" lon="3.018360966816545">
        <ele>858.59000000000003</ele>
        <time>2025-04-25T08:28:24Z</time>
      </trkpt>
      <trkpt lat="44.867595015093684" lon="3.018321990966797">
        <ele>857.63</ele>
        <time>2025-04-25T08:28:25Z</time>
      </trkpt>
      <trkpt lat="44.867735998705029" lon="3.018277985975146">
        <ele>856.66999999999996</ele>
        <time>2025-04-25T08:28:26Z</time>
      </trkpt>
      <trkpt lat="44.867890980094671" lon="3.018258037045598">
        <ele>855.23000000000002</ele>
        <time>2025-04-25T08:28:27Z</time>
      </trkpt>
      <trkpt lat="44.868056019768119" lon="3.018258037045598">
        <ele>854.26999999999998</ele>
        <time>2025-04-25T08:28:28Z</time>
      </trkpt>
      <trkpt lat="44.868384003639221" lon="3.018258037045598">
        <ele>850.89999999999998</ele>
        <time>2025-04-25T08:28:30Z</time>
      </trkpt>
      <trkpt lat="44.868543008342385" lon="3.018258037045598">
        <ele>849.46000000000004</ele>
        <time>2025-04-25T08:28:31Z</time>
      </trkpt>
      <trkpt lat="44.868706036359072" lon="3.018213026225567">
        <ele>848.01999999999998</ele>
        <time>2025-04-25T08:28:32Z</time>
      </trkpt>
      <trkpt lat="44.86883201636374" lon="3.018097020685673">
        <ele>846.58000000000004</ele>
        <time>2025-04-25T08:28:33Z</time>
      </trkpt>
      <trkpt lat="44.86896101385355" lon="3.017925024032593">
        <ele>845.62</ele>
        <time>2025-04-25T08:28:34Z</time>
      </trkpt>
      <trkpt lat="44.869023961946368" lon="3.0177260376513">
        <ele>844.17999999999995</ele>
        <time>2025-04-25T08:28:35Z</time>
      </trkpt>
      <trkpt lat="44.869085988029838" lon="3.01749000325799">
        <ele>842.73000000000002</ele>
        <time>2025-04-25T08:28:36Z</time>
      </trkpt>
      <trkpt lat="44.869075007736683" lon="3.017266960814595">
        <ele>841.28999999999996</ele>
        <time>2025-04-25T08:28:37Z</time>
      </trkpt>
      <trkpt lat="44.869064027443528" lon="3.017032016068697">
        <ele>839.85000000000002</ele>
        <time>2025-04-25T08:28:38Z</time>
      </trkpt>
      <trkpt lat="44.869052041321993" lon="3.016780978068709">
        <ele>838.40999999999997</ele>
        <time>2025-04-25T08:28:39Z</time>
      </trkpt>
      <trkpt lat="44.86902697943151" lon="3.016270017251372">
        <ele>835.03999999999996</ele>
        <time>2025-04-25T08:28:41Z</time>
      </trkpt>
      <trkpt lat="44.869054974988103" lon="3.016041023656726">
        <ele>833.60000000000002</ele>
        <time>2025-04-25T08:28:42Z</time>
      </trkpt>
      <trkpt lat="44.869109960272908" lon="3.015811024233699">
        <ele>832.15999999999997</ele>
        <time>2025-04-25T08:28:43Z</time>
      </trkpt>
      <trkpt lat="44.869175003841519" lon="3.015589993447065">
        <ele>830.72000000000003</ele>
        <time>2025-04-25T08:28:44Z</time>
      </trkpt>
      <trkpt lat="44.869279023259878" lon="3.015368040651083">
        <ele>829.26999999999998</ele>
        <time>2025-04-25T08:28:45Z</time>
      </trkpt>
      <trkpt lat="44.870283007621765" lon="3.013567021116614">
        <ele>815.82000000000005</ele>
        <time>2025-04-25T08:28:53Z</time>
      </trkpt>
      <trkpt lat="44.870412005111575" lon="3.013395024463534">
        <ele>813.88999999999999</ele>
        <time>2025-04-25T08:28:54Z</time>
      </trkpt>
      <trkpt lat="44.870543014258146" lon="3.013259992003441">
        <ele>812.45000000000005</ele>
        <time>2025-04-25T08:28:55Z</time>
      </trkpt>
      <trkpt lat="44.87068098038435" lon="3.013167958706617">
        <ele>811.00999999999999</ele>
        <time>2025-04-25T08:28:56Z</time>
      </trkpt>
      <trkpt lat="44.870894970372319" lon="3.013007026165724">
        <ele>808.61000000000001</ele>
        <time>2025-04-25T08:28:58Z</time>
      </trkpt>
      <trkpt lat="44.870952973142266" lon="3.012924967333674">
        <ele>807.63999999999999</ele>
        <time>2025-04-25T08:28:59Z</time>
      </trkpt>
      <trkpt lat="44.870963031426072" lon="3.012836035341024">
        <ele>806.67999999999995</ele>
        <time>2025-04-25T08:29:00Z</time>
      </trkpt>
      <trkpt lat="44.87093998119235" lon="3.012731010094285">
        <ele>806.20000000000005</ele>
        <time>2025-04-25T08:29:01Z</time>
      </trkpt>
      <trkpt lat="44.870865968987346" lon="3.012678036466241">
        <ele>805.72000000000003</ele>
        <time>2025-04-25T08:29:02Z</time>
      </trkpt>
      <trkpt lat="44.870784999802709" lon="3.012674013152719">
        <ele>805.24000000000001</ele>
        <time>2025-04-25T08:29:03Z</time>
      </trkpt>
      <trkpt lat="44.870692966505885" lon="3.012754982337356">
        <ele>804.27999999999997</ele>
        <time>2025-04-25T08:29:04Z</time>
      </trkpt>
      <trkpt lat="44.870581990107894" lon="3.012853972613812">
        <ele>803.79999999999995</ele>
        <time>2025-04-25T08:29:05Z</time>
      </trkpt>
      <trkpt lat="44.870455004274845" lon="3.012966960668564">
        <ele>802.84000000000003</ele>
        <time>2025-04-25T08:29:06Z</time>
      </trkpt>
      <trkpt lat="44.869515979662538" lon="3.01366601139307">
        <ele>797.54999999999995</ele>
        <time>2025-04-25T08:29:12Z</time>
      </trkpt>
      <trkpt lat="44.869366027414799" lon="3.013815963640809">
        <ele>796.59000000000003</ele>
        <time>2025-04-25T08:29:13Z</time>
      </trkpt>
      <trkpt lat="44.869236024096608" lon="3.013993995264173">
        <ele>795.14999999999998</ele>
        <time>2025-04-25T08:29:14Z</time>
      </trkpt>
      <trkpt lat="44.868449969217181" lon="3.015246000140905">
        <ele>787.46000000000004</ele>
        <time>2025-04-25T08:29:20Z</time>
      </trkpt>
      <trkpt lat="44.868267998099327" lon="3.015697030350566">
        <ele>784.57000000000005</ele>
        <time>2025-04-25T08:29:22Z</time>
      </trkpt>
      <trkpt lat="44.868203960359097" lon="3.015920994803309">
        <ele>783.13</ele>
        <time>2025-04-25T08:29:23Z</time>
      </trkpt>
      <trkpt lat="44.868145035579801" lon="3.016125010326505">
        <ele>781.69000000000005</ele>
        <time>2025-04-25T08:29:24Z</time>
      </trkpt>
      <trkpt lat="44.868074962869287" lon="3.016316033899784">
        <ele>780.25</ele>
        <time>2025-04-25T08:29:25Z</time>
      </trkpt>
      <trkpt lat="44.867973038926721" lon="3.016446959227324">
        <ele>778.80999999999995</ele>
        <time>2025-04-25T08:29:26Z</time>
      </trkpt>
      <trkpt lat="44.867850998416543" lon="3.016526000574231">
        <ele>777.36000000000001</ele>
        <time>2025-04-25T08:29:27Z</time>
      </trkpt>
      <trkpt lat="44.867729041725397" lon="3.016551984474063">
        <ele>775.44000000000005</ele>
        <time>2025-04-25T08:29:28Z</time>
      </trkpt>
      <trkpt lat="44.867590991780162" lon="3.016521977260709">
        <ele>773.51999999999998</ele>
        <time>2025-04-25T08:29:29Z</time>
      </trkpt>
      <trkpt lat="44.867452019825578" lon="3.016483001410961">
        <ele>772.08000000000004</ele>
        <time>2025-04-25T08:29:30Z</time>
      </trkpt>
      <trkpt lat="44.867303995415568" lon="3.016398008912802">
        <ele>770.14999999999998</ele>
        <time>2025-04-25T08:29:31Z</time>
      </trkpt>
      <trkpt lat="44.86715697683394" lon="3.016315028071404">
        <ele>768.23000000000002</ele>
        <time>2025-04-25T08:29:32Z</time>
      </trkpt>
      <trkpt lat="44.867000989615917" lon="3.01624302752316">
        <ele>766.78999999999996</ele>
        <time>2025-04-25T08:29:33Z</time>
      </trkpt>
      <trkpt lat="44.866845002397895" lon="3.016259036958218">
        <ele>764.87</ele>
        <time>2025-04-25T08:29:34Z</time>
      </trkpt>
      <trkpt lat="44.866688009351492" lon="3.016274040564895">
        <ele>762.94000000000005</ele>
        <time>2025-04-25T08:29:35Z</time>
      </trkpt>
      <trkpt lat="44.866549959406257" lon="3.016249984502792">
        <ele>761.5</ele>
        <time>2025-04-25T08:29:36Z</time>
      </trkpt>
      <trkpt lat="44.866437977179885" lon="3.016172032803297">
        <ele>759.58000000000004</ele>
        <time>2025-04-25T08:29:37Z</time>
      </trkpt>
      <trkpt lat="44.866357007995248" lon="3.016061978414655">
        <ele>757.65999999999997</ele>
        <time>2025-04-25T08:29:38Z</time>
      </trkpt>
      <trkpt lat="44.866290036588907" lon="3.015883024781942">
        <ele>756.21000000000004</ele>
        <time>2025-04-25T08:29:39Z</time>
      </trkpt>
      <trkpt lat="44.866227004677057" lon="3.015670040622354">
        <ele>755.25</ele>
        <time>2025-04-25T08:29:40Z</time>
      </trkpt>
      <trkpt lat="44.866173025220633" lon="3.015434006229043">
        <ele>753.33000000000004</ele>
        <time>2025-04-25T08:29:41Z</time>
      </trkpt>
      <trkpt lat="44.866114016622305" lon="3.015179028734565">
        <ele>751.88999999999999</ele>
        <time>2025-04-25T08:29:42Z</time>
      </trkpt>
      <trkpt lat="44.866045033559203" lon="3.014913992956281">
        <ele>750.45000000000005</ele>
        <time>2025-04-25T08:29:43Z</time>
      </trkpt>
      <trkpt lat="44.865935984998941" lon="3.014662032946944">
        <ele>748.51999999999998</ele>
        <time>2025-04-25T08:29:44Z</time>
      </trkpt>
      <trkpt lat="44.865280017256737" lon="3.013226967304945">
        <ele>737.47000000000003</ele>
        <time>2025-04-25T08:29:50Z</time>
      </trkpt>
      <trkpt lat="44.865155965089798" lon="3.013102998957038">
        <ele>735.54999999999995</ele>
        <time>2025-04-25T08:29:51Z</time>
      </trkpt>
      <trkpt lat="44.864997966215014" lon="3.013046002015472">
        <ele>733.62</ele>
        <time>2025-04-25T08:29:52Z</time>
      </trkpt>
      <trkpt lat="44.864828987047076" lon="3.013019012287259">
        <ele>731.70000000000005</ele>
        <time>2025-04-25T08:29:53Z</time>
      </trkpt>
      <trkpt lat="44.864659002050757" lon="3.01302001811564">
        <ele>729.77999999999997</ele>
        <time>2025-04-25T08:29:54Z</time>
      </trkpt>
      <trkpt lat="44.864507038146257" lon="3.013078020885587">
        <ele>727.86000000000001</ele>
        <time>2025-04-25T08:29:55Z</time>
      </trkpt>
      <trkpt lat="44.864392960444093" lon="3.013163013383746">
        <ele>725.92999999999995</ele>
        <time>2025-04-25T08:29:56Z</time>
      </trkpt>
      <trkpt lat="44.864280978217721" lon="3.01332201808691">
        <ele>724.49000000000001</ele>
        <time>2025-04-25T08:29:57Z</time>
      </trkpt>
      <trkpt lat="44.86423303373158" lon="3.013474987819791">
        <ele>722.57000000000005</ele>
        <time>2025-04-25T08:29:58Z</time>
      </trkpt>
      <trkpt lat="44.864173019304872" lon="3.01366601139307">
        <ele>721.13</ele>
        <time>2025-04-25T08:29:59Z</time>
      </trkpt>
      <trkpt lat="44.864066988229752" lon="3.013867009431124">
        <ele>720.15999999999997</ele>
        <time>2025-04-25T08:30:00Z</time>
      </trkpt>
      <trkpt lat="44.863958023488522" lon="3.01407496444881">
        <ele>718.72000000000003</ele>
        <time>2025-04-25T08:30:01Z</time>
      </trkpt>
      <trkpt lat="44.863818967714906" lon="3.01424796693027">
        <ele>717.75999999999999</ele>
        <time>2025-04-25T08:30:02Z</time>
      </trkpt>
      <trkpt lat="44.863682007417083" lon="3.014410994946957">
        <ele>716.32000000000005</ele>
        <time>2025-04-25T08:30:03Z</time>
      </trkpt>
      <trkpt lat="44.863545969128609" lon="3.014523983001709">
        <ele>714.88</ele>
        <time>2025-04-25T08:30:04Z</time>
      </trkpt>
      <trkpt lat="44.863430969417095" lon="3.01461098715663">
        <ele>713.91999999999996</ele>
        <time>2025-04-25T08:30:05Z</time>
      </trkpt>
      <trkpt lat="44.86331001855433" lon="3.014620039612055">
        <ele>712.47000000000003</ele>
        <time>2025-04-25T08:30:06Z</time>
      </trkpt>
      <trkpt lat="44.863165011629462" lon="3.01463101990521">
        <ele>711.02999999999997</ele>
        <time>2025-04-25T08:30:07Z</time>
      </trkpt>
      <trkpt lat="44.863054035231471" lon="3.014599001035094">
        <ele>710.07000000000005</ele>
        <time>2025-04-25T08:30:08Z</time>
      </trkpt>
      <trkpt lat="44.862915985286236" lon="3.014558013528585">
        <ele>709.59000000000003</ele>
        <time>2025-04-25T08:30:09Z</time>
      </trkpt>
      <trkpt lat="44.862016020342708" lon="3.01426699385047">
        <ele>708.14999999999998</ele>
        <time>2025-04-25T08:30:16Z</time>
      </trkpt>
      <trkpt lat="44.861919963732362" lon="3.014179989695549">
        <ele>708.14999999999998</ele>
        <time>2025-04-25T08:30:17Z</time>
      </trkpt>
      <trkpt lat="44.861845029518008" lon="3.014067001640797">
        <ele>708.14999999999998</ele>
        <time>2025-04-25T08:30:18Z</time>
      </trkpt>
      <trkpt lat="44.861775962635875" lon="3.013938004150987">
        <ele>708.14999999999998</ele>
        <time>2025-04-25T08:30:19Z</time>
      </trkpt>
      <trkpt lat="44.861729023978114" lon="3.013784028589726">
        <ele>708.14999999999998</ele>
        <time>2025-04-25T08:30:20Z</time>
      </trkpt>
      <trkpt lat="44.861701028421521" lon="3.013605996966362">
        <ele>708.14999999999998</ele>
        <time>2025-04-25T08:30:21Z</time>
      </trkpt>
      <trkpt lat="44.861691975966096" lon="3.013434000313282">
        <ele>708.14999999999998</ele>
        <time>2025-04-25T08:30:22Z</time>
      </trkpt>
      <trkpt lat="44.861684013158083" lon="3.013254962861538">
        <ele>708.63</ele>
        <time>2025-04-25T08:30:23Z</time>
      </trkpt>
      <trkpt lat="44.861665992066264" lon="3.012888003140688">
        <ele>709.59000000000003</ele>
        <time>2025-04-25T08:30:25Z</time>
      </trkpt>
      <trkpt lat="44.861630033701658" lon="3.012737967073917">
        <ele>710.07000000000005</ele>
        <time>2025-04-25T08:30:26Z</time>
      </trkpt>
      <trkpt lat="44.861576976254582" lon="3.012592038139701">
        <ele>710.54999999999995</ele>
        <time>2025-04-25T08:30:27Z</time>
      </trkpt>
      <trkpt lat="44.861498018726707" lon="3.01246102899313">
        <ele>711.02999999999997</ele>
        <time>2025-04-25T08:30:28Z</time>
      </trkpt>
      <trkpt lat="44.861413026228547" lon="3.012357009574771">
        <ele>711.50999999999999</ele>
        <time>2025-04-25T08:30:29Z</time>
      </trkpt>
      <trkpt lat="44.861304983496666" lon="3.01229003816843">
        <ele>711.99000000000001</ele>
        <time>2025-04-25T08:30:30Z</time>
      </trkpt>
      <trkpt lat="44.861196018755436" lon="3.012222982943058">
        <ele>712.47000000000003</ele>
        <time>2025-04-25T08:30:31Z</time>
      </trkpt>
      <trkpt lat="44.861085964366794" lon="3.01218300126493">
        <ele>712.95000000000005</ele>
        <time>2025-04-25T08:30:32Z</time>
      </trkpt>
      <trkpt lat="44.86097096465528" lon="3.012150982394815">
        <ele>713.44000000000005</ele>
        <time>2025-04-25T08:30:33Z</time>
      </trkpt>
      <trkpt lat="44.860854037106037" lon="3.01211804151535">
        <ele>713.91999999999996</ele>
        <time>2025-04-25T08:30:34Z</time>
      </trkpt>
      <trkpt lat="44.859899003058672" lon="3.011844959110022">
        <ele>719.67999999999995</ele>
        <time>2025-04-25T08:30:42Z</time>
      </trkpt>
      <trkpt lat="44.859782997518778" lon="3.01179701462388">
        <ele>720.64999999999998</ele>
        <time>2025-04-25T08:30:43Z</time>
      </trkpt>
      <trkpt lat="44.859671015292406" lon="3.011721996590495">
        <ele>721.61000000000001</ele>
        <time>2025-04-25T08:30:44Z</time>
      </trkpt>
      <trkpt lat="44.85957495868206" lon="3.011614959686995">
        <ele>722.57000000000005</ele>
        <time>2025-04-25T08:30:45Z</time>
      </trkpt>
      <trkpt lat="44.85948896035552" lon="3.011480011045933">
        <ele>723.52999999999997</ele>
        <time>2025-04-25T08:30:46Z</time>
      </trkpt>
      <trkpt lat="44.859414026141167" lon="3.011330980807543">
        <ele>724.49000000000001</ele>
        <time>2025-04-25T08:30:47Z</time>
      </trkpt>
      <trkpt lat="44.859360968694091" lon="3.01115202717483">
        <ele>725.45000000000005</ele>
        <time>2025-04-25T08:30:48Z</time>
      </trkpt>
      <trkpt lat="44.859317969530821" lon="3.010962009429932">
        <ele>725.92999999999995</ele>
        <time>2025-04-25T08:30:49Z</time>
      </trkpt>
      <trkpt lat="44.859298020601273" lon="3.010761011391878">
        <ele>726.88999999999999</ele>
        <time>2025-04-25T08:30:50Z</time>
      </trkpt>
      <trkpt lat="44.85922702588141" lon="3.010139996185899">
        <ele>729.77999999999997</ele>
        <time>2025-04-25T08:30:53Z</time>
      </trkpt>
      <trkpt lat="44.859155025333166" lon="3.009960036724806">
        <ele>730.74000000000001</ele>
        <time>2025-04-25T08:30:54Z</time>
      </trkpt>
      <trkpt lat="44.859050000086427" lon="3.009811006486416">
        <ele>731.22000000000003</ele>
        <time>2025-04-25T08:30:55Z</time>
      </trkpt>
      <trkpt lat="44.858827963471413" lon="3.009526021778584">
        <ele>731.70000000000005</ele>
        <time>2025-04-25T08:30:57Z</time>
      </trkpt>
      <trkpt lat="44.858709024265409" lon="3.009417979046702">
        <ele>732.65999999999997</ele>
        <time>2025-04-25T08:30:58Z</time>
      </trkpt>
      <trkpt lat="44.858588995411992" lon="3.009333992376924">
        <ele>733.13999999999999</ele>
        <time>2025-04-25T08:30:59Z</time>
      </trkpt>
      <trkpt lat="44.858170989900827" lon="3.009169958531857">
        <ele>736.02999999999997</ele>
        <time>2025-04-25T08:31:02Z</time>
      </trkpt>
      <trkpt lat="44.85804601572454" lon="3.009188985452056">
        <ele>736.50999999999999</ele>
        <time>2025-04-25T08:31:03Z</time>
      </trkpt>
      <trkpt lat="44.857923975214362" lon="3.009226033464074">
        <ele>737.47000000000003</ele>
        <time>2025-04-25T08:31:04Z</time>
      </trkpt>
      <trkpt lat="44.857806041836739" lon="3.0092609860003">
        <ele>738.42999999999995</ele>
        <time>2025-04-25T08:31:05Z</time>
      </trkpt>
      <trkpt lat="44.857691964134574" lon="3.009295016527176">
        <ele>739.38999999999999</ele>
        <time>2025-04-25T08:31:06Z</time>
      </trkpt>
      <trkpt lat="44.857586016878486" lon="3.009327035397291">
        <ele>740.35000000000002</ele>
        <time>2025-04-25T08:31:07Z</time>
      </trkpt>
      <trkpt lat="44.857500018551946" lon="3.009353019297123">
        <ele>741.30999999999995</ele>
        <time>2025-04-25T08:31:08Z</time>
      </trkpt>
      <trkpt lat="44.857394993305206" lon="3.009307002648711">
        <ele>742.75999999999999</ele>
        <time>2025-04-25T08:31:09Z</time>
      </trkpt>
      <trkpt lat="44.856757968664169" lon="3.009013971313834">
        <ele>751.40999999999997</ele>
        <time>2025-04-25T08:31:17Z</time>
      </trkpt>
      <trkpt lat="44.856722010299563" lon="3.008966026827693">
        <ele>752.37</ele>
        <time>2025-04-25T08:31:18Z</time>
      </trkpt>
      <trkpt lat="44.856706000864506" lon="3.008944988250732">
        <ele>752.85000000000002</ele>
        <time>2025-04-25T08:31:19Z</time>
      </trkpt>
      <trkpt lat="44.856717986986041" lon="3.008892014622688">
        <ele>753.80999999999995</ele>
        <time>2025-04-25T08:31:20Z</time>
      </trkpt>
      <trkpt lat="44.856717986986041" lon="3.008892014622688">
        <ele>754.76999999999998</ele>
        <time>2025-04-25T08:31:21Z</time>
      </trkpt>
      <trkpt lat="44.856725027784705" lon="3.008861001580954">
        <ele>755.73000000000002</ele>
        <time>2025-04-25T08:31:24Z</time>
      </trkpt>
      <trkpt lat="44.856730978935957" lon="3.008833006024361">
        <ele>756.21000000000004</ele>
        <time>2025-04-25T08:31:25Z</time>
      </trkpt>
      <trkpt lat="44.856742965057492" lon="3.008780032396317">
        <ele>756.69000000000005</ele>
        <time>2025-04-25T08:31:26Z</time>
      </trkpt>
      <trkpt lat="44.856749000027776" lon="3.008752036839724">
        <ele>756.69000000000005</ele>
        <time>2025-04-25T08:31:27Z</time>
      </trkpt>
      <trkpt lat="44.856727961450815" lon="3.008580040186644">
        <ele>757.17999999999995</ele>
        <time>2025-04-25T08:31:28Z</time>
      </trkpt>
      <trkpt lat="44.856764003634453" lon="3.008356997743249">
        <ele>758.13999999999999</ele>
        <time>2025-04-25T08:31:30Z</time>
      </trkpt>
      <trkpt lat="44.856782024726272" lon="3.008245015516877">
        <ele>758.13999999999999</ele>
        <time>2025-04-25T08:31:31Z</time>
      </trkpt>
      <trkpt lat="44.856833992525935" lon="3.007924994453788">
        <ele>757.65999999999997</ele>
        <time>2025-04-25T08:31:34Z</time>
      </trkpt>
      <trkpt lat="44.856850001960993" lon="3.007823992520571">
        <ele>757.65999999999997</ele>
        <time>2025-04-25T08:31:35Z</time>
      </trkpt>
      <trkpt lat="44.856838015839458" lon="3.007725002244115">
        <ele>757.65999999999997</ele>
        <time>2025-04-25T08:31:36Z</time>
      </trkpt>
      <trkpt lat="44.856810020282865" lon="3.007631963118911">
        <ele>757.65999999999997</ele>
        <time>2025-04-25T08:31:37Z</time>
      </trkpt>
      <trkpt lat="44.85678001306951" lon="3.007535990327597">
        <ele>757.65999999999997</ele>
        <time>2025-04-25T08:31:38Z</time>
      </trkpt>
      <trkpt lat="44.856752017512918" lon="3.007443035021424">
        <ele>757.65999999999997</ele>
        <time>2025-04-25T08:31:39Z</time>
      </trkpt>
      <trkpt lat="44.856689991429448" lon="3.007260980084539">
        <ele>757.17999999999995</ele>
        <time>2025-04-25T08:31:41Z</time>
      </trkpt>
      <trkpt lat="44.856186993420124" lon="3.006357997655869">
        <ele>755.73000000000002</ele>
        <time>2025-04-25T08:31:54Z</time>
      </trkpt>
      <trkpt lat="44.856083979830146" lon="3.006283985450864">
        <ele>756.21000000000004</ele>
        <time>2025-04-25T08:31:57Z</time>
      </trkpt>
      <trkpt lat="44.855995969846845" lon="3.006292032077909">
        <ele>756.21000000000004</ele>
        <time>2025-04-25T08:31:58Z</time>
      </trkpt>
      <trkpt lat="44.855940984562039" lon="3.00629697740078">
        <ele>756.21000000000004</ele>
        <time>2025-04-25T08:31:59Z</time>
      </trkpt>
      <trkpt lat="44.855879964306951" lon="3.006303012371063">
        <ele>756.21000000000004</ele>
        <time>2025-04-25T08:32:00Z</time>
      </trkpt>
      <trkpt lat="44.85581299290061" lon="3.006308963522315">
        <ele>756.69000000000005</ele>
        <time>2025-04-25T08:32:01Z</time>
      </trkpt>
      <trkpt lat="44.8556839954108" lon="3.006321033462882">
        <ele>757.17999999999995</ele>
        <time>2025-04-25T08:32:03Z</time>
      </trkpt>
      <trkpt lat="44.855563966557384" lon="3.006326984614134">
        <ele>757.17999999999995</ele>
        <time>2025-04-25T08:32:05Z</time>
      </trkpt>
      <trkpt lat="44.855517027899623" lon="3.006326984614134">
        <ele>756.69000000000005</ele>
        <time>2025-04-25T08:32:06Z</time>
      </trkpt>
      <trkpt lat="44.855477968230844" lon="3.006308041512966">
        <ele>756.21000000000004</ele>
        <time>2025-04-25T08:32:07Z</time>
      </trkpt>
      <trkpt lat="44.85542600043118" lon="3.006270993500948">
        <ele>756.21000000000004</ele>
        <time>2025-04-25T08:32:08Z</time>
      </trkpt>
      <trkpt lat="44.855370009317994" lon="3.00623101182282">
        <ele>756.21000000000004</ele>
        <time>2025-04-25T08:32:09Z</time>
      </trkpt>
      <trkpt lat="44.855324998497963" lon="3.006170997396112">
        <ele>755.73000000000002</ele>
        <time>2025-04-25T08:32:10Z</time>
      </trkpt>
      <trkpt lat="44.855280993506312" lon="3.006095979362726">
        <ele>755.73000000000002</ele>
        <time>2025-04-25T08:32:11Z</time>
      </trkpt>
      <trkpt lat="44.85523397102952" lon="3.006015010178089">
        <ele>755.73000000000002</ele>
        <time>2025-04-25T08:32:12Z</time>
      </trkpt>
      <trkpt lat="44.855188960209489" lon="3.005937980487943">
        <ele>755.73000000000002</ele>
        <time>2025-04-25T08:32:13Z</time>
      </trkpt>
      <trkpt lat="44.854708006605506" lon="3.00515896640718">
        <ele>759.58000000000004</ele>
        <time>2025-04-25T08:32:24Z</time>
      </trkpt>
      <trkpt lat="44.854380022734404" lon="3.004668960347772">
        <ele>763.89999999999998</ele>
        <time>2025-04-25T08:32:32Z</time>
      </trkpt>
      <trkpt lat="44.854297963902354" lon="3.004570975899696">
        <ele>765.35000000000002</ele>
        <time>2025-04-25T08:32:34Z</time>
      </trkpt>
      <trkpt lat="44.854253958910704" lon="3.004518002271652">
        <ele>765.83000000000004</ele>
        <time>2025-04-25T08:32:35Z</time>
      </trkpt>
      <trkpt lat="44.854209031909704" lon="3.004463016986847">
        <ele>766.30999999999995</ele>
        <time>2025-04-25T08:32:36Z</time>
      </trkpt>
      <trkpt lat="44.854121021926403" lon="3.004357991740108">
        <ele>767.26999999999998</ele>
        <time>2025-04-25T08:32:38Z</time>
      </trkpt>
      <trkpt lat="44.854081962257624" lon="3.004310969263315">
        <ele>767.75</ele>
        <time>2025-04-25T08:32:39Z</time>
      </trkpt>
      <trkpt lat="44.853946007788181" lon="3.004181971773505">
        <ele>769.66999999999996</ele>
        <time>2025-04-25T08:32:47Z</time>
      </trkpt>
      <trkpt lat="44.85381399281323" lon="3.004064038395882">
        <ele>768.23000000000002</ele>
        <time>2025-04-25T08:33:08Z</time>
      </trkpt>
      <trkpt lat="44.853739980608225" lon="3.003994971513748">
        <ele>763.41999999999996</ele>
        <time>2025-04-25T08:33:20Z</time>
      </trkpt>
      <trkpt lat="44.853739980608225" lon="3.003994971513748">
        <ele>763.41999999999996</ele>
        <time>2025-04-25T08:33:34Z</time>
      </trkpt>
      <trkpt lat="44.853695975616574" lon="3.004032019525766">
        <ele>720.64999999999998</ele>
        <time>2025-04-25T08:54:52Z</time>
      </trkpt>
      <trkpt lat="44.85370603390038" lon="3.004011986777186">
        <ele>749.49000000000001</ele>
        <time>2025-04-25T08:55:40Z</time>
      </trkpt>
      <trkpt lat="44.853715002536774" lon="3.004025984555483">
        <ele>767.75</ele>
        <time>2025-04-25T08:56:15Z</time>
      </trkpt>
      <trkpt lat="44.853689018636942" lon="3.003949038684368">
        <ele>763.41999999999996</ele>
        <time>2025-04-25T08:56:43Z</time>
      </trkpt>
      <trkpt lat="44.853680972009897" lon="3.003940992057324">
        <ele>762.94000000000005</ele>
        <time>2025-04-25T08:56:45Z</time>
      </trkpt>
      <trkpt lat="44.853667980059981" lon="3.003929005935788">
        <ele>762.94000000000005</ele>
        <time>2025-04-25T08:56:46Z</time>
      </trkpt>
      <trkpt lat="44.853655993938446" lon="3.003918025642633">
        <ele>763.41999999999996</ele>
        <time>2025-04-25T08:56:47Z</time>
      </trkpt>
      <trkpt lat="44.853596985340118" lon="3.00386899150908">
        <ele>764.38999999999999</ele>
        <time>2025-04-25T08:56:59Z</time>
      </trkpt>
      <trkpt lat="44.853438986465335" lon="3.003774024546146">
        <ele>764.87</ele>
        <time>2025-04-25T08:57:04Z</time>
      </trkpt>
      <trkpt lat="44.853380983695388" lon="3.00373999401927">
        <ele>764.87</ele>
        <time>2025-04-25T08:57:05Z</time>
      </trkpt>
      <trkpt lat="44.852945962920785" lon="3.003546036779881">
        <ele>766.30999999999995</ele>
        <time>2025-04-25T08:57:12Z</time>
      </trkpt>
      <trkpt lat="44.852886032313108" lon="3.003520974889398">
        <ele>766.30999999999995</ele>
        <time>2025-04-25T08:57:13Z</time>
      </trkpt>
      <trkpt lat="44.852823000401258" lon="3.003495996817946">
        <ele>766.78999999999996</ele>
        <time>2025-04-25T08:57:14Z</time>
      </trkpt>
      <trkpt lat="44.852027976885438" lon="3.003193996846676">
        <ele>765.35000000000002</ele>
        <time>2025-04-25T08:57:25Z</time>
      </trkpt>
      <trkpt lat="44.85196896828711" lon="3.003174969926477">
        <ele>764.87</ele>
        <time>2025-04-25T08:57:27Z</time>
      </trkpt>
      <trkpt lat="44.851914988830686" lon="3.003156026825309">
        <ele>764.87</ele>
        <time>2025-04-25T08:57:28Z</time>
      </trkpt>
      <trkpt lat="44.851861009374261" lon="3.003139011561871">
        <ele>764.87</ele>
        <time>2025-04-25T08:57:29Z</time>
      </trkpt>
      <trkpt lat="44.851694963872433" lon="3.003064999356866">
        <ele>764.38999999999999</ele>
        <time>2025-04-25T08:57:32Z</time>
      </trkpt>
      <trkpt lat="44.851637966930866" lon="3.003038009628654">
        <ele>764.38999999999999</ele>
        <time>2025-04-25T08:57:33Z</time>
      </trkpt>
      <trkpt lat="44.851578958332539" lon="3.003011019900441">
        <ele>763.89999999999998</ele>
        <time>2025-04-25T08:57:34Z</time>
      </trkpt>
      <trkpt lat="44.851455995813012" lon="3.002954022958875">
        <ele>763.89999999999998</ele>
        <time>2025-04-25T08:57:36Z</time>
      </trkpt>
      <trkpt lat="44.851321969181299" lon="3.002891996875405">
        <ele>763.89999999999998</ele>
        <time>2025-04-25T08:57:38Z</time>
      </trkpt>
      <trkpt lat="44.851233959197998" lon="3.002851009368897">
        <ele>763.89999999999998</ele>
        <time>2025-04-25T08:57:39Z</time>
      </trkpt>
      <trkpt lat="44.851180985569954" lon="3.00281597301364">
        <ele>763.89999999999998</ele>
        <time>2025-04-25T08:57:40Z</time>
      </trkpt>
      <trkpt lat="44.851067997515202" lon="3.002690998837352">
        <ele>763.89999999999998</ele>
        <time>2025-04-25T08:57:42Z</time>
      </trkpt>
      <trkpt lat="44.850534992292523" lon="3.002335019409657">
        <ele>766.30999999999995</ele>
        <time>2025-04-25T08:57:49Z</time>
      </trkpt>
      <trkpt lat="44.850442036986351" lon="3.002262013033032">
        <ele>767.26999999999998</ele>
        <time>2025-04-25T08:57:50Z</time>
      </trkpt>
      <trkpt lat="44.850374981760979" lon="3.002158999443054">
        <ele>767.75</ele>
        <time>2025-04-25T08:57:51Z</time>
      </trkpt>
      <trkpt lat="44.850302981212735" lon="3.002048023045063">
        <ele>768.71000000000004</ele>
        <time>2025-04-25T08:57:52Z</time>
      </trkpt>
      <trkpt lat="44.85022796317935" lon="3.001931011676788">
        <ele>769.19000000000005</ele>
        <time>2025-04-25T08:57:53Z</time>
      </trkpt>
      <trkpt lat="44.850189993157983" lon="3.001769995316863">
        <ele>770.14999999999998</ele>
        <time>2025-04-25T08:57:54Z</time>
      </trkpt>
      <trkpt lat="44.850159985944629" lon="3.001618031412363">
        <ele>771.11000000000001</ele>
        <time>2025-04-25T08:57:55Z</time>
      </trkpt>
      <trkpt lat="44.850150011479855" lon="3.00146397203207">
        <ele>771.60000000000002</ele>
        <time>2025-04-25T08:57:56Z</time>
      </trkpt>
      <trkpt lat="44.850140959024429" lon="3.001308990642428">
        <ele>772.55999999999995</ele>
        <time>2025-04-25T08:57:57Z</time>
      </trkpt>
      <trkpt lat="44.850131990388036" lon="3.001155015081167">
        <ele>773.51999999999998</ele>
        <time>2025-04-25T08:57:58Z</time>
      </trkpt>
      <trkpt lat="44.850122015923262" lon="3.001000033691526">
        <ele>774.48000000000002</ele>
        <time>2025-04-25T08:57:59Z</time>
      </trkpt>
      <trkpt lat="44.850086979568005" lon="3.000876987352967">
        <ele>775.44000000000005</ele>
        <time>2025-04-25T08:58:00Z</time>
      </trkpt>
      <trkpt lat="44.850016990676522" lon="3.000826025381684">
        <ele>776.88</ele>
        <time>2025-04-25T08:58:01Z</time>
      </trkpt>
      <trkpt lat="44.849965022876859" lon="3.000837005674839">
        <ele>778.32000000000005</ele>
        <time>2025-04-25T08:58:02Z</time>
      </trkpt>
      <trkpt lat="44.849899979308248" lon="3.000901965424418">
        <ele>779.28999999999996</ele>
        <time>2025-04-25T08:58:03Z</time>
      </trkpt>
      <trkpt lat="44.849853040650487" lon="3.000985030084848">
        <ele>780.73000000000002</ele>
        <time>2025-04-25T08:58:04Z</time>
      </trkpt>
      <trkpt lat="44.849827978760004" lon="3.001122996211052">
        <ele>782.16999999999996</ele>
        <time>2025-04-25T08:58:05Z</time>
      </trkpt>
      <trkpt lat="44.849801994860172" lon="3.001263979822397">
        <ele>783.13</ele>
        <time>2025-04-25T08:58:06Z</time>
      </trkpt>
      <trkpt lat="44.849746003746986" lon="3.001563968136907">
        <ele>784.57000000000005</ele>
        <time>2025-04-25T08:58:08Z</time>
      </trkpt>
      <trkpt lat="44.849717002362013" lon="3.001723978668451">
        <ele>785.04999999999995</ele>
        <time>2025-04-25T08:58:09Z</time>
      </trkpt>
      <trkpt lat="44.849618012085557" lon="3.001892035827041">
        <ele>785.52999999999997</ele>
        <time>2025-04-25T08:58:10Z</time>
      </trkpt>
      <trkpt lat="44.849522961303592" lon="3.002028996124864">
        <ele>786.01999999999998</ele>
        <time>2025-04-25T08:58:11Z</time>
      </trkpt>
      <trkpt lat="44.849401004612446" lon="3.002162016928196">
        <ele>786.5</ele>
        <time>2025-04-25T08:58:12Z</time>
      </trkpt>
      <trkpt lat="44.849262032657862" lon="3.002262013033032">
        <ele>787.46000000000004</ele>
        <time>2025-04-25T08:58:13Z</time>
      </trkpt>
      <trkpt lat="44.849127000197768" lon="3.002349017187953">
        <ele>787.94000000000005</ele>
        <time>2025-04-25T08:58:14Z</time>
      </trkpt>
      <trkpt lat="44.848858024924994" lon="3.002525959163904">
        <ele>787.94000000000005</ele>
        <time>2025-04-25T08:58:16Z</time>
      </trkpt>
      <trkpt lat="44.84870002605021" lon="3.002540040761232">
        <ele>788.41999999999996</ele>
        <time>2025-04-25T08:58:17Z</time>
      </trkpt>
      <trkpt lat="44.848546972498298" lon="3.002549009397626">
        <ele>788.89999999999998</ele>
        <time>2025-04-25T08:58:18Z</time>
      </trkpt>
      <trkpt lat="44.848397020250559" lon="3.002511961385608">
        <ele>788.89999999999998</ele>
        <time>2025-04-25T08:58:19Z</time>
      </trkpt>
      <trkpt lat="44.848245978355408" lon="3.002453036606312">
        <ele>788.89999999999998</ele>
        <time>2025-04-25T08:58:20Z</time>
      </trkpt>
      <trkpt lat="44.848090996965766" lon="3.002387993037701">
        <ele>789.38</ele>
        <time>2025-04-25T08:58:21Z</time>
      </trkpt>
      <trkpt lat="44.847600990906358" lon="3.002308029681444">
        <ele>792.25999999999999</ele>
        <time>2025-04-25T08:58:24Z</time>
      </trkpt>
      <trkpt lat="44.847425976768136" lon="3.002322027459741">
        <ele>793.71000000000004</ele>
        <time>2025-04-25T08:58:25Z</time>
      </trkpt>
      <trkpt lat="44.847242999821901" lon="3.002336025238037">
        <ele>794.66999999999996</ele>
        <time>2025-04-25T08:58:26Z</time>
      </trkpt>
      <trkpt lat="44.847087012603879" lon="3.00242998637259">
        <ele>796.11000000000001</ele>
        <time>2025-04-25T08:58:27Z</time>
      </trkpt>
      <trkpt lat="44.846918033435941" lon="3.002530988305807">
        <ele>797.07000000000005</ele>
        <time>2025-04-25T08:58:28Z</time>
      </trkpt>
      <trkpt lat="44.846759028732777" lon="3.002654034644365">
        <ele>798.50999999999999</ele>
        <time>2025-04-25T08:58:29Z</time>
      </trkpt>
      <trkpt lat="44.846612010151148" lon="3.002813961356878">
        <ele>799.47000000000003</ele>
        <time>2025-04-25T08:58:30Z</time>
      </trkpt>
      <trkpt lat="44.845380960032344" lon="3.004160011187196">
        <ele>809.09000000000003</ele>
        <time>2025-04-25T08:58:38Z</time>
      </trkpt>
      <trkpt lat="44.844569005072117" lon="3.004914969205856">
        <ele>819.17999999999995</ele>
        <time>2025-04-25T08:58:43Z</time>
      </trkpt>
      <trkpt lat="44.844411006197333" lon="3.004968026652932">
        <ele>821.10000000000002</ele>
        <time>2025-04-25T08:58:44Z</time>
      </trkpt>
      <trkpt lat="44.844274967908859" lon="3.004952017217875">
        <ele>822.54999999999995</ele>
        <time>2025-04-25T08:58:45Z</time>
      </trkpt>
      <trkpt lat="44.844174971804023" lon="3.004931984469295">
        <ele>823.99000000000001</ele>
        <time>2025-04-25T08:58:46Z</time>
      </trkpt>
      <trkpt lat="44.844057038426399" lon="3.004827965050936">
        <ele>825.42999999999995</ele>
        <time>2025-04-25T08:58:47Z</time>
      </trkpt>
      <trkpt lat="44.843958970159292" lon="3.004741966724396">
        <ele>826.87</ele>
        <time>2025-04-25T08:58:48Z</time>
      </trkpt>
      <trkpt lat="44.843868026509881" lon="3.004660997539759">
        <ele>828.30999999999995</ele>
        <time>2025-04-25T08:58:49Z</time>
      </trkpt>
      <trkpt lat="44.843788985162973" lon="3.004580028355122">
        <ele>830.24000000000001</ele>
        <time>2025-04-25T08:58:50Z</time>
      </trkpt>
      <trkpt lat="44.843723019585013" lon="3.004485983401537">
        <ele>831.67999999999995</ele>
        <time>2025-04-25T08:58:51Z</time>
      </trkpt>
      <trkpt lat="44.843439962714911" lon="3.004096979275346">
        <ele>837.92999999999995</ele>
        <time>2025-04-25T08:58:55Z</time>
      </trkpt>
      <trkpt lat="44.84335103072226" lon="3.004033025354147">
        <ele>839.37</ele>
        <time>2025-04-25T08:58:56Z</time>
      </trkpt>
      <trkpt lat="44.843023968860507" lon="3.003806965425611">
        <ele>842.73000000000002</ele>
        <time>2025-04-25T08:58:59Z</time>
      </trkpt>
      <trkpt lat="44.842296000570059" lon="3.003403963521123">
        <ele>846.58000000000004</ele>
        <time>2025-04-25T08:59:04Z</time>
      </trkpt>
      <trkpt lat="44.842175971716642" lon="3.003264991566539">
        <ele>847.53999999999996</ele>
        <time>2025-04-25T08:59:05Z</time>
      </trkpt>
      <trkpt lat="44.842071030288935" lon="3.003099029883742">
        <ele>848.5</ele>
        <time>2025-04-25T08:59:06Z</time>
      </trkpt>
      <trkpt lat="44.841985031962395" lon="3.002898031845689">
        <ele>849.46000000000004</ele>
        <time>2025-04-25T08:59:07Z</time>
      </trkpt>
      <trkpt lat="44.841938009485602" lon="3.002664009109139">
        <ele>850.41999999999996</ele>
        <time>2025-04-25T08:59:08Z</time>
      </trkpt>
      <trkpt lat="44.841934992000461" lon="3.002415988594294">
        <ele>850.89999999999998</ele>
        <time>2025-04-25T08:59:09Z</time>
      </trkpt>
      <trkpt lat="44.841959970071912" lon="3.002166962251067">
        <ele>851.87</ele>
        <time>2025-04-25T08:59:10Z</time>
      </trkpt>
      <trkpt lat="44.842044962570071" lon="3.001939980313182">
        <ele>852.83000000000004</ele>
        <time>2025-04-25T08:59:11Z</time>
      </trkpt>
      <trkpt lat="44.842140013352036" lon="3.001722972840071">
        <ele>853.78999999999996</ele>
        <time>2025-04-25T08:59:12Z</time>
      </trkpt>
      <trkpt lat="44.842235986143351" lon="3.00150303170085">
        <ele>855.71000000000004</ele>
        <time>2025-04-25T08:59:13Z</time>
      </trkpt>
      <trkpt lat="44.842331036925316" lon="3.0012880358845">
        <ele>857.63</ele>
        <time>2025-04-25T08:59:14Z</time>
      </trkpt>
      <trkpt lat="44.842395996674895" lon="3.001059964299202">
        <ele>860.03999999999996</ele>
        <time>2025-04-25T08:59:15Z</time>
      </trkpt>
      <trkpt lat="44.842457016929984" lon="3.000815967097879">
        <ele>861.96000000000004</ele>
        <time>2025-04-25T08:59:16Z</time>
      </trkpt>
      <trkpt lat="44.842479983344674" lon="3.000575993210077">
        <ele>864.36000000000001</ele>
        <time>2025-04-25T08:59:17Z</time>
      </trkpt>
      <trkpt lat="44.842453999444842" lon="3.000338030979037">
        <ele>866.28999999999996</ele>
        <time>2025-04-25T08:59:18Z</time>
      </trkpt>
      <trkpt lat="44.842389961704612" lon="3.000120017677546">
        <ele>868.21000000000004</ele>
        <time>2025-04-25T08:59:19Z</time>
      </trkpt>
      <trkpt lat="44.842282002791762" lon="2.999926982447505">
        <ele>870.61000000000001</ele>
        <time>2025-04-25T08:59:20Z</time>
      </trkpt>
      <trkpt lat="44.842157028615475" lon="2.999740988016129">
        <ele>872.52999999999997</ele>
        <time>2025-04-25T08:59:21Z</time>
      </trkpt>
      <trkpt lat="44.842030964791775" lon="2.999552981927991">
        <ele>874.46000000000004</ele>
        <time>2025-04-25T08:59:22Z</time>
      </trkpt>
      <trkpt lat="44.841908002272248" lon="2.999370004981756">
        <ele>876.38</ele>
        <time>2025-04-25T08:59:23Z</time>
      </trkpt>
      <trkpt lat="44.841444985941052" lon="2.998670032247901">
        <ele>885.99000000000001</ele>
        <time>2025-04-25T08:59:28Z</time>
      </trkpt>
      <trkpt lat="44.841411961242557" lon="2.998536005616188">
        <ele>887.90999999999997</ele>
        <time>2025-04-25T08:59:29Z</time>
      </trkpt>
      <trkpt lat="44.84143802896142" lon="2.99845403060317">
        <ele>889.36000000000001</ele>
        <time>2025-04-25T08:59:30Z</time>
      </trkpt>
      <trkpt lat="44.841483039781451" lon="2.998365014791489">
        <ele>890.32000000000005</ele>
        <time>2025-04-25T08:59:31Z</time>
      </trkpt>
      <trkpt lat="44.841547999531031" lon="2.998344982042909">
        <ele>891.27999999999997</ele>
        <time>2025-04-25T08:59:32Z</time>
      </trkpt>
      <trkpt lat="44.841633997857571" lon="2.998373983427882">
        <ele>892.24000000000001</ele>
        <time>2025-04-25T08:59:33Z</time>
      </trkpt>
      <trkpt lat="44.841728964820504" lon="2.998452018946409">
        <ele>893.67999999999995</ele>
        <time>2025-04-25T08:59:34Z</time>
      </trkpt>
      <trkpt lat="44.84180498868227" lon="2.99860498867929">
        <ele>894.15999999999997</ele>
        <time>2025-04-25T08:59:35Z</time>
      </trkpt>
      <trkpt lat="44.841892998665571" lon="2.998780002817512">
        <ele>895.12</ele>
        <time>2025-04-25T08:59:36Z</time>
      </trkpt>
      <trkpt lat="44.841986959800124" lon="2.998968008905649">
        <ele>896.09000000000003</ele>
        <time>2025-04-25T08:59:37Z</time>
      </trkpt>
      <trkpt lat="44.842093996703625" lon="2.999152997508645">
        <ele>897.04999999999995</ele>
        <time>2025-04-25T08:59:38Z</time>
      </trkpt>
      <trkpt lat="44.842216959223151" lon="2.999229021370411">
        <ele>898.49000000000001</ele>
        <time>2025-04-25T08:59:39Z</time>
      </trkpt>
      <trkpt lat="44.842340005561709" lon="2.999266991391778">
        <ele>898.97000000000003</ele>
        <time>2025-04-25T08:59:40Z</time>
      </trkpt>
      <trkpt lat="44.842444024980068" lon="2.999290963634849">
        <ele>899.45000000000005</ele>
        <time>2025-04-25T08:59:41Z</time>
      </trkpt>
      <trkpt lat="44.842538991943002" lon="2.999312002211809">
        <ele>899.45000000000005</ele>
        <time>2025-04-25T08:59:42Z</time>
      </trkpt>
      <trkpt lat="44.842619961127639" lon="2.999330023303628">
        <ele>899.92999999999995</ele>
        <time>2025-04-25T08:59:43Z</time>
      </trkpt>
      <trkpt lat="44.842677041888237" lon="2.999261040240526">
        <ele>899.92999999999995</ele>
        <time>2025-04-25T08:59:44Z</time>
      </trkpt>
      <trkpt lat="44.842716017737985" lon="2.999203037470579">
        <ele>899.92999999999995</ele>
        <time>2025-04-25T08:59:45Z</time>
      </trkpt>
      <trkpt lat="44.842683998867869" lon="2.999130031093955">
        <ele>900.40999999999997</ele>
        <time>2025-04-25T08:59:46Z</time>
      </trkpt>
      <trkpt lat="44.842650974169374" lon="2.999053001403809">
        <ele>900.88999999999999</ele>
        <time>2025-04-25T08:59:47Z</time>
      </trkpt>
      <trkpt lat="44.842579979449511" lon="2.999032968655229">
        <ele>901.37</ele>
        <time>2025-04-25T08:59:48Z</time>
      </trkpt>
      <trkpt lat="44.842469003051519" lon="2.999002039432526">
        <ele>901.85000000000002</ele>
        <time>2025-04-25T08:59:49Z</time>
      </trkpt>
      <trkpt lat="44.842343023046851" lon="2.998967003077269">
        <ele>902.33000000000004</ele>
        <time>2025-04-25T08:59:50Z</time>
      </trkpt>
      <trkpt lat="44.842214025557041" lon="2.998901959508658">
        <ele>902.82000000000005</ele>
        <time>2025-04-25T08:59:51Z</time>
      </trkpt>
      <trkpt lat="44.842101037502289" lon="2.99877799116075">
        <ele>903.29999999999995</ele>
        <time>2025-04-25T08:59:52Z</time>
      </trkpt>
      <trkpt lat="44.842033982276917" lon="2.998598031699657">
        <ele>904.25999999999999</ele>
        <time>2025-04-25T08:59:53Z</time>
      </trkpt>
      <trkpt lat="44.841964999213815" lon="2.998409019783139">
        <ele>904.74000000000001</ele>
        <time>2025-04-25T08:59:54Z</time>
      </trkpt>
      <trkpt lat="44.841914037242532" lon="2.99817499704659">
        <ele>905.22000000000003</ele>
        <time>2025-04-25T08:59:55Z</time>
      </trkpt>
      <trkpt lat="44.841818986460567" lon="2.9977220389992">
        <ele>906.65999999999997</ele>
        <time>2025-04-25T08:59:57Z</time>
      </trkpt>
      <trkpt lat="44.841601978987455" lon="2.996580004692078">
        <ele>910.99000000000001</ele>
        <time>2025-04-25T09:00:02Z</time>
      </trkpt>
      <trkpt lat="44.84152696095407" lon="2.996387975290418">
        <ele>911.95000000000005</ele>
        <time>2025-04-25T09:00:03Z</time>
      </trkpt>
      <trkpt lat="44.841419002041221" lon="2.996217990294099">
        <ele>912.90999999999997</ele>
        <time>2025-04-25T09:00:04Z</time>
      </trkpt>
      <trkpt lat="44.841285981237888" lon="2.996067032217979">
        <ele>913.87</ele>
        <time>2025-04-25T09:00:05Z</time>
      </trkpt>
      <trkpt lat="44.841142985969782" lon="2.995911967009306">
        <ele>914.83000000000004</ele>
        <time>2025-04-25T09:00:06Z</time>
      </trkpt>
      <trkpt lat="44.840870993211865" lon="2.995571997016668">
        <ele>916.75</ele>
        <time>2025-04-25T09:00:08Z</time>
      </trkpt>
      <trkpt lat="44.840768985450268" lon="2.995351972058415">
        <ele>918.20000000000005</ele>
        <time>2025-04-25T09:00:09Z</time>
      </trkpt>
      <trkpt lat="44.840663960203528" lon="2.995128007605672">
        <ele>919.15999999999997</ele>
        <time>2025-04-25T09:00:10Z</time>
      </trkpt>
      <trkpt lat="44.839770030230284" lon="2.99280202947557">
        <ele>934.53999999999996</ele>
        <time>2025-04-25T09:00:20Z</time>
      </trkpt>
      <trkpt lat="44.839684031903744" lon="2.992636989802122">
        <ele>936.94000000000005</ele>
        <time>2025-04-25T09:00:21Z</time>
      </trkpt>
      <trkpt lat="44.839519998058677" lon="2.992317974567413">
        <ele>939.83000000000004</ele>
        <time>2025-04-25T09:00:23Z</time>
      </trkpt>
      <trkpt lat="44.839400975033641" lon="2.992209009826183">
        <ele>941.75</ele>
        <time>2025-04-25T09:00:24Z</time>
      </trkpt>
      <trkpt lat="44.839273989200592" lon="2.99209401011467">
        <ele>943.19000000000005</ele>
        <time>2025-04-25T09:00:25Z</time>
      </trkpt>
      <trkpt lat="44.83913803473115" lon="2.991970963776112">
        <ele>946.07000000000005</ele>
        <time>2025-04-25T09:00:26Z</time>
      </trkpt>
      <trkpt lat="44.838982969522476" lon="2.991877002641559">
        <ele>948</ele>
        <time>2025-04-25T09:00:27Z</time>
      </trkpt>
      <trkpt lat="44.838812984526157" lon="2.99181698821485">
        <ele>950.39999999999998</ele>
        <time>2025-04-25T09:00:28Z</time>
      </trkpt>
      <trkpt lat="44.838631013408303" lon="2.991789998486638">
        <ele>952.32000000000005</ele>
        <time>2025-04-25T09:00:29Z</time>
      </trkpt>
      <trkpt lat="44.838439989835024" lon="2.991791004315019">
        <ele>954.25</ele>
        <time>2025-04-25T09:00:30Z</time>
      </trkpt>
      <trkpt lat="44.838243015110493" lon="2.991840038448572">
        <ele>956.16999999999996</ele>
        <time>2025-04-25T09:00:31Z</time>
      </trkpt>
      <trkpt lat="44.838049979880452" lon="2.991916984319687">
        <ele>958.09000000000003</ele>
        <time>2025-04-25T09:00:32Z</time>
      </trkpt>
      <trkpt lat="44.837864991277456" lon="2.992018992081285">
        <ele>960.00999999999999</ele>
        <time>2025-04-25T09:00:33Z</time>
      </trkpt>
      <trkpt lat="44.836951028555632" lon="2.99245803616941">
        <ele>969.14999999999998</ele>
        <time>2025-04-25T09:00:39Z</time>
      </trkpt>
      <trkpt lat="44.836785988882184" lon="2.992516960948706">
        <ele>971.07000000000005</ele>
        <time>2025-04-25T09:00:40Z</time>
      </trkpt>
      <trkpt lat="44.836602006107569" lon="2.992507992312312">
        <ele>972.50999999999999</ele>
        <time>2025-04-25T09:00:41Z</time>
      </trkpt>
      <trkpt lat="44.836408970877528" lon="2.992478990927339">
        <ele>974.42999999999995</ele>
        <time>2025-04-25T09:00:42Z</time>
      </trkpt>
      <trkpt lat="44.836216019466519" lon="2.992450995370746">
        <ele>976.36000000000001</ele>
        <time>2025-04-25T09:00:43Z</time>
      </trkpt>
      <trkpt lat="44.836049973964691" lon="2.992368014529347">
        <ele>977.79999999999995</ele>
        <time>2025-04-25T09:00:44Z</time>
      </trkpt>
      <trkpt lat="44.835894992575049" lon="2.992272041738033">
        <ele>979.24000000000001</ele>
        <time>2025-04-25T09:00:45Z</time>
      </trkpt>
      <trkpt lat="44.83574403449893" lon="2.992176990956068">
        <ele>980.67999999999995</ele>
        <time>2025-04-25T09:00:46Z</time>
      </trkpt>
      <trkpt lat="44.835590980947018" lon="2.992081018164754">
        <ele>982.12</ele>
        <time>2025-04-25T09:00:47Z</time>
      </trkpt>
      <trkpt lat="44.835441028699279" lon="2.991973981261253">
        <ele>983.09000000000003</ele>
        <time>2025-04-25T09:00:48Z</time>
      </trkpt>
      <trkpt lat="44.835297027602792" lon="2.991840960457921">
        <ele>983.57000000000005</ele>
        <time>2025-04-25T09:00:49Z</time>
      </trkpt>
      <trkpt lat="44.833824997767806" lon="2.990244962275028">
        <ele>986.45000000000005</ele>
        <time>2025-04-25T09:00:59Z</time>
      </trkpt>
      <trkpt lat="44.832911035045981" lon="2.98897996544838">
        <ele>985.97000000000003</ele>
        <time>2025-04-25T09:01:04Z</time>
      </trkpt>
      <trkpt lat="44.832722023129463" lon="2.988766981288791">
        <ele>985.49000000000001</ele>
        <time>2025-04-25T09:01:05Z</time>
      </trkpt>
      <trkpt lat="44.832511972635984" lon="2.988605964928865">
        <ele>985.49000000000001</ele>
        <time>2025-04-25T09:01:06Z</time>
      </trkpt>
      <trkpt lat="44.832290019840002" lon="2.98846498131752">
        <ele>985.00999999999999</ele>
        <time>2025-04-25T09:01:07Z</time>
      </trkpt>
      <trkpt lat="44.832052979618311" lon="2.988361967727542">
        <ele>985.00999999999999</ele>
        <time>2025-04-25T09:01:08Z</time>
      </trkpt>
      <trkpt lat="44.831806970760226" lon="2.988283010199666">
        <ele>985.00999999999999</ele>
        <time>2025-04-25T09:01:09Z</time>
      </trkpt>
      <trkpt lat="44.829230038449168" lon="2.987555963918567">
        <ele>988.85000000000002</ele>
        <time>2025-04-25T09:01:20Z</time>
      </trkpt>
      <trkpt lat="44.828812032938004" lon="2.987374998629093">
        <ele>990.77999999999997</ele>
        <time>2025-04-25T09:01:22Z</time>
      </trkpt>
      <trkpt lat="44.828616986051202" lon="2.987244995310903">
        <ele>992.22000000000003</ele>
        <time>2025-04-25T09:01:23Z</time>
      </trkpt>
      <trkpt lat="44.828431997448206" lon="2.9870880022645">
        <ele>993.65999999999997</ele>
        <time>2025-04-25T09:01:24Z</time>
      </trkpt>
      <trkpt lat="44.828257989138365" lon="2.98691600561142">
        <ele>995.10000000000002</ele>
        <time>2025-04-25T09:01:25Z</time>
      </trkpt>
      <trkpt lat="44.828109964728355" lon="2.986703021451831">
        <ele>997.01999999999998</ele>
        <time>2025-04-25T09:01:26Z</time>
      </trkpt>
      <trkpt lat="44.827962024137378" lon="2.986488025635481">
        <ele>998.47000000000003</ele>
        <time>2025-04-25T09:01:27Z</time>
      </trkpt>
      <trkpt lat="44.827829003334045" lon="2.986264983192086">
        <ele>1000.39</ele>
        <time>2025-04-25T09:01:28Z</time>
      </trkpt>
      <trkpt lat="44.827714003622532" lon="2.986004976555705">
        <ele>1002.79</ele>
        <time>2025-04-25T09:01:29Z</time>
      </trkpt>
      <trkpt lat="44.827117966488004" lon="2.984241005033255">
        <ele>1016.25</ele>
        <time>2025-04-25T09:01:36Z</time>
      </trkpt>
      <trkpt lat="44.826337024569511" lon="2.982488013803959">
        <ele>1028.75</ele>
        <time>2025-04-25T09:01:44Z</time>
      </trkpt>
      <trkpt lat="44.825056018307805" lon="2.980366973206401">
        <ele>1038.3599999999999</ele>
        <time>2025-04-25T09:01:52Z</time>
      </trkpt>
      <trkpt lat="44.823645008727908" lon="2.978334026411176">
        <ele>1046.05</ele>
        <time>2025-04-25T09:02:00Z</time>
      </trkpt>
      <trkpt lat="44.822634989395738" lon="2.976989988237619">
        <ele>1051.8199999999999</ele>
        <time>2025-04-25T09:02:06Z</time>
      </trkpt>
      <trkpt lat="44.822463998571038" lon="2.976832995191217">
        <ele>1052.78</ele>
        <time>2025-04-25T09:02:07Z</time>
      </trkpt>
      <trkpt lat="44.822297031059861" lon="2.976681031286717">
        <ele>1053.74</ele>
        <time>2025-04-25T09:02:08Z</time>
      </trkpt>
      <trkpt lat="44.822121011093259" lon="2.976571982726455">
        <ele>1054.22</ele>
        <time>2025-04-25T09:02:09Z</time>
      </trkpt>
      <trkpt lat="44.821937028318644" lon="2.976470980793238">
        <ele>1054.7</ele>
        <time>2025-04-25T09:02:10Z</time>
      </trkpt>
      <trkpt lat="44.821728989481926" lon="2.976407026872039">
        <ele>1054.7</ele>
        <time>2025-04-25T09:02:11Z</time>
      </trkpt>
      <trkpt lat="44.821517011150718" lon="2.976342989131808">
        <ele>1054.7</ele>
        <time>2025-04-25T09:02:12Z</time>
      </trkpt>
      <trkpt lat="44.821308972314" lon="2.97632304020226">
        <ele>1055.1800000000001</ele>
        <time>2025-04-25T09:02:13Z</time>
      </trkpt>
      <trkpt lat="44.821082996204495" lon="2.976314993575215">
        <ele>1055.1800000000001</ele>
        <time>2025-04-25T09:02:14Z</time>
      </trkpt>
      <trkpt lat="44.819078966975212" lon="2.976481039077044">
        <ele>1053.26</ele>
        <time>2025-04-25T09:02:23Z</time>
      </trkpt>
      <trkpt lat="44.818074982613325" lon="2.976769041270018">
        <ele>1052.3</ele>
        <time>2025-04-25T09:02:28Z</time>
      </trkpt>
      <trkpt lat="44.817208964377642" lon="2.976806005463004">
        <ele>1048.9400000000001</ele>
        <time>2025-04-25T09:02:33Z</time>
      </trkpt>
      <trkpt lat="44.817052977159619" lon="2.976759988814592">
        <ele>1047.97</ele>
        <time>2025-04-25T09:02:34Z</time>
      </trkpt>
      <trkpt lat="44.816818032413721" lon="2.976692011579871">
        <ele>1045.0899999999999</ele>
        <time>2025-04-25T09:02:36Z</time>
      </trkpt>
      <trkpt lat="44.816751983016729" lon="2.976672984659672">
        <ele>1043.6500000000001</ele>
        <time>2025-04-25T09:02:37Z</time>
      </trkpt>
      <trkpt lat="44.816690962761641" lon="2.976812962442637">
        <ele>1042.21</ele>
        <time>2025-04-25T09:02:38Z</time>
      </trkpt>
      <trkpt lat="44.816648969426751" lon="2.976908013224602">
        <ele>1040.28</ele>
        <time>2025-04-25T09:02:39Z</time>
      </trkpt>
      <trkpt lat="44.816598007455468" lon="2.977022007107735">
        <ele>1039.3199999999999</ele>
        <time>2025-04-25T09:02:40Z</time>
      </trkpt>
      <trkpt lat="44.816519971936941" lon="2.977144969627261">
        <ele>1037.8800000000001</ele>
        <time>2025-04-25T09:02:41Z</time>
      </trkpt>
      <trkpt lat="44.815871967002749" lon="2.978046024218202">
        <ele>1031.1500000000001</ele>
        <time>2025-04-25T09:02:47Z</time>
      </trkpt>
      <trkpt lat="44.815735006704926" lon="2.978120958432555">
        <ele>1030.6700000000001</ele>
        <time>2025-04-25T09:02:48Z</time>
      </trkpt>
      <trkpt lat="44.815636016428471" lon="2.978175021708012">
        <ele>1030.1900000000001</ele>
        <time>2025-04-25T09:02:49Z</time>
      </trkpt>
      <trkpt lat="44.815477011725307" lon="2.978175021708012">
        <ele>1029.23</ele>
        <time>2025-04-25T09:02:50Z</time>
      </trkpt>
      <trkpt lat="44.815332004800439" lon="2.978175021708012">
        <ele>1028.75</ele>
        <time>2025-04-25T09:02:51Z</time>
      </trkpt>
      <trkpt lat="44.815186997875571" lon="2.978175021708012">
        <ele>1028.27</ele>
        <time>2025-04-25T09:02:52Z</time>
      </trkpt>
      <trkpt lat="44.813757967203856" lon="2.977952985092998">
        <ele>1021.0599999999999</ele>
        <time>2025-04-25T09:03:01Z</time>
      </trkpt>
      <trkpt lat="44.8132289852947" lon="2.977915015071631">
        <ele>1019.62</ele>
        <time>2025-04-25T09:03:04Z</time>
      </trkpt>
      <trkpt lat="44.811555035412312" lon="2.978049041703343">
        <ele>1015.77</ele>
        <time>2025-04-25T09:03:13Z</time>
      </trkpt>
      <trkpt lat="44.809671035036445" lon="2.978148031979799">
        <ele>1013.37</ele>
        <time>2025-04-25T09:03:23Z</time>
      </trkpt>
      <trkpt lat="44.809198966249824" lon="2.978148031979799">
        <ele>1012.41</ele>
        <time>2025-04-25T09:03:26Z</time>
      </trkpt>
      <trkpt lat="44.809049014002085" lon="2.978109978139401">
        <ele>1012.41</ele>
        <time>2025-04-25T09:03:27Z</time>
      </trkpt>
      <trkpt lat="44.808908030390739" lon="2.978030014783144">
        <ele>1012.41</ele>
        <time>2025-04-25T09:03:28Z</time>
      </trkpt>
      <trkpt lat="44.808467980474234" lon="2.977778976783156">
        <ele>1014.33</ele>
        <time>2025-04-25T09:03:31Z</time>
      </trkpt>
      <trkpt lat="44.808305036276579" lon="2.977755004540086">
        <ele>1015.29</ele>
        <time>2025-04-25T09:03:32Z</time>
      </trkpt>
      <trkpt lat="44.808127004653215" lon="2.977756010368466">
        <ele>1015.77</ele>
        <time>2025-04-25T09:03:33Z</time>
      </trkpt>
      <trkpt lat="44.80704003944993" lon="2.977961031720042">
        <ele>1019.13</ele>
        <time>2025-04-25T09:03:39Z</time>
      </trkpt>
      <trkpt lat="44.806308969855309" lon="2.978241993114352">
        <ele>1020.1</ele>
        <time>2025-04-25T09:03:43Z</time>
      </trkpt>
      <trkpt lat="44.80611702427268" lon="2.978248028084636">
        <ele>1020.58</ele>
        <time>2025-04-25T09:03:44Z</time>
      </trkpt>
      <trkpt lat="44.805033998563886" lon="2.978447014465928">
        <ele>1020.58</ele>
        <time>2025-04-25T09:03:50Z</time>
      </trkpt>
      <trkpt lat="44.803787022829056" lon="2.978863008320332">
        <ele>1021.0599999999999</ele>
        <time>2025-04-25T09:03:57Z</time>
      </trkpt>
      <trkpt lat="44.803606979548931" lon="2.978889998048544">
        <ele>1021.0599999999999</ele>
        <time>2025-04-25T09:03:58Z</time>
      </trkpt>
      <trkpt lat="44.80343297123909" lon="2.978900978341699">
        <ele>1021.0599999999999</ele>
        <time>2025-04-25T09:03:59Z</time>
      </trkpt>
      <trkpt lat="44.803274972364306" lon="2.978870971128345">
        <ele>1021.54</ele>
        <time>2025-04-25T09:04:00Z</time>
      </trkpt>
      <trkpt lat="44.803114039823413" lon="2.978821014985442">
        <ele>1022.02</ele>
        <time>2025-04-25T09:04:01Z</time>
      </trkpt>
      <trkpt lat="44.802957968786359" lon="2.978729987516999">
        <ele>1022.5</ele>
        <time>2025-04-25T09:04:02Z</time>
      </trkpt>
      <trkpt lat="44.802798964083195" lon="2.978635020554066">
        <ele>1023.46</ele>
        <time>2025-04-25T09:04:03Z</time>
      </trkpt>
      <trkpt lat="44.802660997956991" lon="2.978512980043888">
        <ele>1024.4200000000001</ele>
        <time>2025-04-25T09:04:04Z</time>
      </trkpt>
      <trkpt lat="44.802386993542314" lon="2.978304019197822">
        <ele>1026.8299999999999</ele>
        <time>2025-04-25T09:04:06Z</time>
      </trkpt>
      <trkpt lat="44.802231006324291" lon="2.978238975629211">
        <ele>1027.79</ele>
        <time>2025-04-25T09:04:07Z</time>
      </trkpt>
      <trkpt lat="44.802063032984734" lon="2.978238975629211">
        <ele>1029.23</ele>
        <time>2025-04-25T09:04:08Z</time>
      </trkpt>
      <trkpt lat="44.801886007189751" lon="2.978238975629211">
        <ele>1030.1900000000001</ele>
        <time>2025-04-25T09:04:09Z</time>
      </trkpt>
      <trkpt lat="44.801704036071897" lon="2.978238975629211">
        <ele>1031.6300000000001</ele>
        <time>2025-04-25T09:04:10Z</time>
      </trkpt>
      <trkpt lat="44.801526004448533" lon="2.978180972859263">
        <ele>1032.5899999999999</ele>
        <time>2025-04-25T09:04:11Z</time>
      </trkpt>
      <trkpt lat="44.801340010017157" lon="2.978114001452923">
        <ele>1034.04</ele>
        <time>2025-04-25T09:04:12Z</time>
      </trkpt>
      <trkpt lat="44.800989981740713" lon="2.977988021448255">
        <ele>1036.9200000000001</ele>
        <time>2025-04-25T09:04:14Z</time>
      </trkpt>
      <trkpt lat="44.800812033936381" lon="2.977945022284985">
        <ele>1038.3599999999999</ele>
        <time>2025-04-25T09:04:15Z</time>
      </trkpt>
      <trkpt lat="44.800628973171115" lon="2.977972012013197">
        <ele>1039.8</ele>
        <time>2025-04-25T09:04:16Z</time>
      </trkpt>
      <trkpt lat="44.800439039245248" lon="2.978001013398171">
        <ele>1041.25</ele>
        <time>2025-04-25T09:04:17Z</time>
      </trkpt>
      <trkpt lat="44.800242986530066" lon="2.978031020611525">
        <ele>1042.6900000000001</ele>
        <time>2025-04-25T09:04:18Z</time>
      </trkpt>
      <trkpt lat="44.79964803904295" lon="2.978298990055919">
        <ele>1047.01</ele>
        <time>2025-04-25T09:04:21Z</time>
      </trkpt>
      <trkpt lat="44.799093995243311" lon="2.978581041097641">
        <ele>1051.3399999999999</ele>
        <time>2025-04-25T09:04:24Z</time>
      </trkpt>
      <trkpt lat="44.798945970833302" lon="2.978593027219176">
        <ele>1052.78</ele>
        <time>2025-04-25T09:04:25Z</time>
      </trkpt>
      <trkpt lat="44.798813033849001" lon="2.978604007512331">
        <ele>1054.22</ele>
        <time>2025-04-25T09:04:26Z</time>
      </trkpt>
      <trkpt lat="44.798671966418624" lon="2.978520020842552">
        <ele>1055.6700000000001</ele>
        <time>2025-04-25T09:04:27Z</time>
      </trkpt>
      <trkpt lat="44.798525031656027" lon="2.978433016687632">
        <ele>1057.5899999999999</ele>
        <time>2025-04-25T09:04:28Z</time>
      </trkpt>
      <trkpt lat="44.798369966447353" lon="2.978340983390808">
        <ele>1059.03</ele>
        <time>2025-04-25T09:04:29Z</time>
      </trkpt>
      <trkpt lat="44.79818900115788" lon="2.978252973407507">
        <ele>1060.95</ele>
        <time>2025-04-25T09:04:30Z</time>
      </trkpt>
      <trkpt lat="44.797999989241362" lon="2.978219026699662">
        <ele>1062.3900000000001</ele>
        <time>2025-04-25T09:04:31Z</time>
      </trkpt>
      <trkpt lat="44.796431986615062" lon="2.977740000933409">
        <ele>1072.49</ele>
        <time>2025-04-25T09:04:39Z</time>
      </trkpt>
      <trkpt lat="44.795602010563016" lon="2.97733498737216">
        <ele>1075.3699999999999</ele>
        <time>2025-04-25T09:04:44Z</time>
      </trkpt>
      <trkpt lat="44.795487010851502" lon="2.977230967953801">
        <ele>1075.8499999999999</ele>
        <time>2025-04-25T09:04:45Z</time>
      </trkpt>
      <trkpt lat="44.795365976169705" lon="2.977079004049301">
        <ele>1075.8499999999999</ele>
        <time>2025-04-25T09:04:46Z</time>
      </trkpt>
      <trkpt lat="44.795134970918298" lon="2.976794019341469">
        <ele>1075.8499999999999</ele>
        <time>2025-04-25T09:04:48Z</time>
      </trkpt>
      <trkpt lat="44.79500899091363" lon="2.976638032123447">
        <ele>1076.3299999999999</ele>
        <time>2025-04-25T09:04:49Z</time>
      </trkpt>
      <trkpt lat="44.794867001473904" lon="2.976525966078043">
        <ele>1076.8099999999999</ele>
        <time>2025-04-25T09:04:50Z</time>
      </trkpt>
      <trkpt lat="44.794711014255881" lon="2.97645203769207">
        <ele>1077.29</ele>
        <time>2025-04-25T09:04:51Z</time>
      </trkpt>
      <trkpt lat="44.794565001502633" lon="2.976397974416614">
        <ele>1077.78</ele>
        <time>2025-04-25T09:04:52Z</time>
      </trkpt>
      <trkpt lat="44.794411025941372" lon="2.976426975801587">
        <ele>1078.74</ele>
        <time>2025-04-25T09:04:53Z</time>
      </trkpt>
      <trkpt lat="44.794242968782783" lon="2.976457988843322">
        <ele>1079.22</ele>
        <time>2025-04-25T09:04:54Z</time>
      </trkpt>
      <trkpt lat="44.794084969907999" lon="2.976537030190229">
        <ele>1080.1800000000001</ele>
        <time>2025-04-25T09:04:55Z</time>
      </trkpt>
      <trkpt lat="44.793109986931086" lon="2.977027958258987">
        <ele>1084.02</ele>
        <time>2025-04-25T09:05:02Z</time>
      </trkpt>
      <trkpt lat="44.792673960328102" lon="2.977261980995536">
        <ele>1085.95</ele>
        <time>2025-04-25T09:05:06Z</time>
      </trkpt>
      <trkpt lat="44.792542029172182" lon="2.977295005694032">
        <ele>1085.95</ele>
        <time>2025-04-25T09:05:07Z</time>
      </trkpt>
      <trkpt lat="44.792411020025611" lon="2.977295005694032">
        <ele>1086.4300000000001</ele>
        <time>2025-04-25T09:05:08Z</time>
      </trkpt>
      <trkpt lat="44.792275987565517" lon="2.977277990430594">
        <ele>1086.4300000000001</ele>
        <time>2025-04-25T09:05:09Z</time>
      </trkpt>
      <trkpt lat="44.792147995904088" lon="2.977258963510394">
        <ele>1086.4300000000001</ele>
        <time>2025-04-25T09:05:10Z</time>
      </trkpt>
      <trkpt lat="44.792028972879052" lon="2.977202972397208">
        <ele>1086.4300000000001</ele>
        <time>2025-04-25T09:05:11Z</time>
      </trkpt>
      <trkpt lat="44.791831998154521" lon="2.977060982957482">
        <ele>1086.4300000000001</ele>
        <time>2025-04-25T09:05:13Z</time>
      </trkpt>
      <trkpt lat="44.791740970686078" lon="2.976995017379522">
        <ele>1085.95</ele>
        <time>2025-04-25T09:05:14Z</time>
      </trkpt>
      <trkpt lat="44.791647009551525" lon="2.976956963539124">
        <ele>1085.47</ele>
        <time>2025-04-25T09:05:15Z</time>
      </trkpt>
      <trkpt lat="44.791555982083082" lon="2.976933997124434">
        <ele>1085.47</ele>
        <time>2025-04-25T09:05:16Z</time>
      </trkpt>
      <trkpt lat="44.791450034826994" lon="2.976911030709744">
        <ele>1084.99</ele>
        <time>2025-04-25T09:05:17Z</time>
      </trkpt>
      <trkpt lat="44.791355989873409" lon="2.976961992681027">
        <ele>1084.02</ele>
        <time>2025-04-25T09:05:18Z</time>
      </trkpt>
      <trkpt lat="44.791252976283431" lon="2.977017983794212">
        <ele>1083.54</ele>
        <time>2025-04-25T09:05:19Z</time>
      </trkpt>
      <trkpt lat="44.791146023198962" lon="2.977094007655978">
        <ele>1083.0599999999999</ele>
        <time>2025-04-25T09:05:20Z</time>
      </trkpt>
      <trkpt lat="44.7910369746387" lon="2.977182017639279">
        <ele>1082.5799999999999</ele>
        <time>2025-04-25T09:05:21Z</time>
      </trkpt>
      <trkpt lat="44.790919041261077" lon="2.977275978773832">
        <ele>1082.0999999999999</ele>
        <time>2025-04-25T09:05:22Z</time>
      </trkpt>
      <trkpt lat="44.790791971608996" lon="2.97737798653543">
        <ele>1081.6199999999999</ele>
        <time>2025-04-25T09:05:23Z</time>
      </trkpt>
      <trkpt lat="44.790651993826032" lon="2.977434983476996">
        <ele>1081.1400000000001</ele>
        <time>2025-04-25T09:05:24Z</time>
      </trkpt>
      <trkpt lat="44.790501035749912" lon="2.977477982640266">
        <ele>1080.6600000000001</ele>
        <time>2025-04-25T09:05:25Z</time>
      </trkpt>
      <trkpt lat="44.790340019389987" lon="2.977502038702369">
        <ele>1080.1800000000001</ele>
        <time>2025-04-25T09:05:26Z</time>
      </trkpt>
      <trkpt lat="44.790170034393668" lon="2.977528022602201">
        <ele>1080.1800000000001</ele>
        <time>2025-04-25T09:05:27Z</time>
      </trkpt>
      <trkpt lat="44.78813398629427" lon="2.97782801091671">
        <ele>1087.8699999999999</ele>
        <time>2025-04-25T09:05:38Z</time>
      </trkpt>
      <trkpt lat="44.786445032805204" lon="2.977698007598519">
        <ele>1097.48</ele>
        <time>2025-04-25T09:05:47Z</time>
      </trkpt>
      <trkpt lat="44.785582032054663" lon="2.977595999836922">
        <ele>1105.1700000000001</ele>
        <time>2025-04-25T09:05:54Z</time>
      </trkpt>
      <trkpt lat="44.785327976569533" lon="2.977485023438931">
        <ele>1108.54</ele>
        <time>2025-04-25T09:05:58Z</time>
      </trkpt>
      <trkpt lat="44.785279026255012" lon="2.977454010397196">
        <ele>1109.02</ele>
        <time>2025-04-25T09:05:59Z</time>
      </trkpt>
      <trkpt lat="44.785223035141826" lon="2.977418974041939">
        <ele>1110.46</ele>
        <time>2025-04-25T09:06:00Z</time>
      </trkpt>
      <trkpt lat="44.785178024321795" lon="2.977390978485346">
        <ele>1111.4200000000001</ele>
        <time>2025-04-25T09:06:01Z</time>
      </trkpt>
      <trkpt lat="44.785149022936821" lon="2.977373041212559">
        <ele>1111.9000000000001</ele>
        <time>2025-04-25T09:06:02Z</time>
      </trkpt>
      <trkpt lat="44.785123961046338" lon="2.977357031777501">
        <ele>1112.8599999999999</ele>
        <time>2025-04-25T09:06:03Z</time>
      </trkpt>
      <trkpt lat="44.785093031823635" lon="2.977338004857302">
        <ele>1113.8199999999999</ele>
        <time>2025-04-25T09:06:04Z</time>
      </trkpt>
      <trkpt lat="44.785060007125139" lon="2.977316966280341">
        <ele>1114.79</ele>
        <time>2025-04-25T09:06:05Z</time>
      </trkpt>
      <trkpt lat="44.785024970769882" lon="2.977284025400877">
        <ele>1116.23</ele>
        <time>2025-04-25T09:06:06Z</time>
      </trkpt>
      <trkpt lat="44.784979037940502" lon="2.977241026237607">
        <ele>1118.1500000000001</ele>
        <time>2025-04-25T09:06:08Z</time>
      </trkpt>
      <trkpt lat="44.784962022677064" lon="2.977224010974169">
        <ele>1118.6300000000001</ele>
        <time>2025-04-25T09:06:09Z</time>
      </trkpt>
      <trkpt lat="44.784947019070387" lon="2.977210013195872">
        <ele>1119.1099999999999</ele>
        <time>2025-04-25T09:06:10Z</time>
      </trkpt>
      <trkpt lat="44.78493302129209" lon="2.977197021245956">
        <ele>1120.0699999999999</ele>
        <time>2025-04-25T09:06:11Z</time>
      </trkpt>
      <trkpt lat="44.78493302129209" lon="2.977197021245956">
        <ele>1120.0699999999999</ele>
        <time>2025-04-25T09:06:12Z</time>
      </trkpt>
      <trkpt lat="44.784922040998936" lon="2.977186962962151">
        <ele>1120.55</ele>
        <time>2025-04-25T09:06:25Z</time>
      </trkpt>
      <trkpt lat="44.785359995439649" lon="2.977346973493695">
        <ele>1124.8800000000001</ele>
        <time>2025-04-25T09:33:25Z</time>
      </trkpt>
      <trkpt lat="44.784874012693763" lon="2.977100964635611">
        <ele>1113.3399999999999</ele>
        <time>2025-04-25T09:33:53Z</time>
      </trkpt>
      <trkpt lat="44.78489002212882" lon="2.977106999605894">
        <ele>1114.79</ele>
        <time>2025-04-25T09:34:16Z</time>
      </trkpt>
      <trkpt lat="44.784747026860714" lon="2.977021001279354">
        <ele>1113.8199999999999</ele>
        <time>2025-04-25T09:34:22Z</time>
      </trkpt>
      <trkpt lat="44.784663040190935" lon="2.976941037923098">
        <ele>1113.3399999999999</ele>
        <time>2025-04-25T09:34:23Z</time>
      </trkpt>
      <trkpt lat="44.784057028591633" lon="2.976084994152188">
        <ele>1113.8199999999999</ele>
        <time>2025-04-25T09:34:29Z</time>
      </trkpt>
      <trkpt lat="44.783972958102822" lon="2.975906040519476">
        <ele>1113.8199999999999</ele>
        <time>2025-04-25T09:34:30Z</time>
      </trkpt>
      <trkpt lat="44.783498039469123" lon="2.974700974300504">
        <ele>1113.3399999999999</ele>
        <time>2025-04-25T09:34:37Z</time>
      </trkpt>
      <trkpt lat="44.783416986465454" lon="2.97458496876061">
        <ele>1113.3399999999999</ele>
        <time>2025-04-25T09:34:38Z</time>
      </trkpt>
      <trkpt lat="44.783298969268799" lon="2.974522020667791">
        <ele>1113.8199999999999</ele>
        <time>2025-04-25T09:34:39Z</time>
      </trkpt>
      <trkpt lat="44.783161003142595" lon="2.974479021504521">
        <ele>1115.27</ele>
        <time>2025-04-25T09:34:40Z</time>
      </trkpt>
      <trkpt lat="44.783014990389347" lon="2.974466029554606">
        <ele>1116.23</ele>
        <time>2025-04-25T09:34:41Z</time>
      </trkpt>
      <trkpt lat="44.782865960150957" lon="2.974452031776309">
        <ele>1117.1900000000001</ele>
        <time>2025-04-25T09:34:42Z</time>
      </trkpt>
      <trkpt lat="44.782584998756647" lon="2.974426969885826">
        <ele>1118.6300000000001</ele>
        <time>2025-04-25T09:34:44Z</time>
      </trkpt>
      <trkpt lat="44.782448038458824" lon="2.974387994036079">
        <ele>1119.5899999999999</ele>
        <time>2025-04-25T09:34:45Z</time>
      </trkpt>
      <trkpt lat="44.781572967767715" lon="2.973862029612064">
        <ele>1123.4400000000001</ele>
        <time>2025-04-25T09:34:51Z</time>
      </trkpt>
      <trkpt lat="44.781422009691596" lon="2.973740994930267">
        <ele>1123.9200000000001</ele>
        <time>2025-04-25T09:34:52Z</time>
      </trkpt>
      <trkpt lat="44.781275996938348" lon="2.973584001883864">
        <ele>1124.4000000000001</ele>
        <time>2025-04-25T09:34:53Z</time>
      </trkpt>
      <trkpt lat="44.780691023916006" lon="2.973021995276213">
        <ele>1123.9200000000001</ele>
        <time>2025-04-25T09:34:57Z</time>
      </trkpt>
      <trkpt lat="44.780555991455913" lon="2.972982013598084">
        <ele>1123.4400000000001</ele>
        <time>2025-04-25T09:34:58Z</time>
      </trkpt>
      <trkpt lat="44.780407967045903" lon="2.972982013598084">
        <ele>1122.96</ele>
        <time>2025-04-25T09:34:59Z</time>
      </trkpt>
      <trkpt lat="44.780251979827881" lon="2.972995005548">
        <ele>1122.96</ele>
        <time>2025-04-25T09:35:00Z</time>
      </trkpt>
      <trkpt lat="44.780088029801846" lon="2.973043033853173">
        <ele>1122</ele>
        <time>2025-04-25T09:35:01Z</time>
      </trkpt>
      <trkpt lat="44.778613988310099" lon="2.973479982465506">
        <ele>1116.71</ele>
        <time>2025-04-25T09:35:09Z</time>
      </trkpt>
      <trkpt lat="44.77846504189074" lon="2.973557012155652">
        <ele>1115.75</ele>
        <time>2025-04-25T09:35:10Z</time>
      </trkpt>
      <trkpt lat="44.778322968631983" lon="2.973649967461824">
        <ele>1114.79</ele>
        <time>2025-04-25T09:35:11Z</time>
      </trkpt>
      <trkpt lat="44.778185002505779" lon="2.973740994930267">
        <ele>1114.3099999999999</ele>
        <time>2025-04-25T09:35:12Z</time>
      </trkpt>
      <trkpt lat="44.778048964217305" lon="2.973830010741949">
        <ele>1113.8199999999999</ele>
        <time>2025-04-25T09:35:13Z</time>
      </trkpt>
      <trkpt lat="44.777906974777579" lon="2.973904022946954">
        <ele>1112.8599999999999</ele>
        <time>2025-04-25T09:35:14Z</time>
      </trkpt>
      <trkpt lat="44.777752999216318" lon="2.973902011290193">
        <ele>1112.3800000000001</ele>
        <time>2025-04-25T09:35:15Z</time>
      </trkpt>
      <trkpt lat="44.77758402004838" lon="2.973899999633431">
        <ele>1111.9000000000001</ele>
        <time>2025-04-25T09:35:16Z</time>
      </trkpt>
      <trkpt lat="44.776085000485182" lon="2.973997984081507">
        <ele>1112.3800000000001</ele>
        <time>2025-04-25T09:35:24Z</time>
      </trkpt>
      <trkpt lat="44.77481497451663" lon="2.974328985437751">
        <ele>1117.6700000000001</ele>
        <time>2025-04-25T09:35:31Z</time>
      </trkpt>
      <trkpt lat="44.774665022268891" lon="2.974292021244764">
        <ele>1117.6700000000001</ele>
        <time>2025-04-25T09:35:32Z</time>
      </trkpt>
      <trkpt lat="44.77451297454536" lon="2.974223960191011">
        <ele>1117.6700000000001</ele>
        <time>2025-04-25T09:35:33Z</time>
      </trkpt>
      <trkpt lat="44.773736977949739" lon="2.973783994093537">
        <ele>1118.1500000000001</ele>
        <time>2025-04-25T09:35:38Z</time>
      </trkpt>
      <trkpt lat="44.773605968803167" lon="2.973670000210404">
        <ele>1118.6300000000001</ele>
        <time>2025-04-25T09:35:39Z</time>
      </trkpt>
      <trkpt lat="44.773486023768783" lon="2.973519964143634">
        <ele>1118.6300000000001</ele>
        <time>2025-04-25T09:35:40Z</time>
      </trkpt>
      <trkpt lat="44.773364989086986" lon="2.973368000239134">
        <ele>1118.6300000000001</ele>
        <time>2025-04-25T09:35:41Z</time>
      </trkpt>
      <trkpt lat="44.773241020739079" lon="2.973168008029461">
        <ele>1118.1500000000001</ele>
        <time>2025-04-25T09:35:42Z</time>
      </trkpt>
      <trkpt lat="44.772533001378179" lon="2.972039971500635">
        <ele>1113.8199999999999</ele>
        <time>2025-04-25T09:35:48Z</time>
      </trkpt>
      <trkpt lat="44.772420013323426" lon="2.971914997324348">
        <ele>1112.8599999999999</ele>
        <time>2025-04-25T09:35:49Z</time>
      </trkpt>
      <trkpt lat="44.772305013611913" lon="2.971837967634201">
        <ele>1111.9000000000001</ele>
        <time>2025-04-25T09:35:50Z</time>
      </trkpt>
      <trkpt lat="44.772161012515426" lon="2.971818018704653">
        <ele>1110.9400000000001</ele>
        <time>2025-04-25T09:35:51Z</time>
      </trkpt>
      <trkpt lat="44.771996978670359" lon="2.971795974299312">
        <ele>1109.5</ele>
        <time>2025-04-25T09:35:52Z</time>
      </trkpt>
      <trkpt lat="44.771818025037646" lon="2.971783988177776">
        <ele>1108.54</ele>
        <time>2025-04-25T09:35:53Z</time>
      </trkpt>
      <trkpt lat="44.770286986604333" lon="2.971861017867923">
        <ele>1099.4000000000001</ele>
        <time>2025-04-25T09:36:01Z</time>
      </trkpt>
      <trkpt lat="44.769773008301854" lon="2.971937963739038">
        <ele>1097.48</ele>
        <time>2025-04-25T09:36:04Z</time>
      </trkpt>
      <trkpt lat="44.76961400359869" lon="2.971993032842875">
        <ele>1097</ele>
        <time>2025-04-25T09:36:05Z</time>
      </trkpt>
      <trkpt lat="44.769459022209048" lon="2.972069978713989">
        <ele>1096.52</ele>
        <time>2025-04-25T09:36:06Z</time>
      </trkpt>
      <trkpt lat="44.769299011677504" lon="2.972150025889278">
        <ele>1096.52</ele>
        <time>2025-04-25T09:36:07Z</time>
      </trkpt>
      <trkpt lat="44.769140006974339" lon="2.972229989245534">
        <ele>1097</ele>
        <time>2025-04-25T09:36:08Z</time>
      </trkpt>
      <trkpt lat="44.768570037558675" lon="2.972514973953366">
        <ele>1097.96</ele>
        <time>2025-04-25T09:36:12Z</time>
      </trkpt>
      <trkpt lat="44.767488017678261" lon="2.97275603748858">
        <ele>1097.96</ele>
        <time>2025-04-25T09:36:20Z</time>
      </trkpt>
      <trkpt lat="44.767284002155066" lon="2.972828038036823">
        <ele>1097</ele>
        <time>2025-04-25T09:36:22Z</time>
      </trkpt>
      <trkpt lat="44.767107982188463" lon="2.972963992506266">
        <ele>1097</ele>
        <time>2025-04-25T09:36:24Z</time>
      </trkpt>
      <trkpt lat="44.767045034095645" lon="2.97303699888289">
        <ele>1097</ele>
        <time>2025-04-25T09:36:25Z</time>
      </trkpt>
      <trkpt lat="44.767005974426866" lon="2.973154010251164">
        <ele>1096.52</ele>
        <time>2025-04-25T09:36:26Z</time>
      </trkpt>
      <trkpt lat="44.766982002183795" lon="2.973285019397736">
        <ele>1096.04</ele>
        <time>2025-04-25T09:36:27Z</time>
      </trkpt>
      <trkpt lat="44.766963981091976" lon="2.973434971645474">
        <ele>1096.04</ele>
        <time>2025-04-25T09:36:28Z</time>
      </trkpt>
      <trkpt lat="44.766946965828538" lon="2.973581990227103">
        <ele>1095.5599999999999</ele>
        <time>2025-04-25T09:36:29Z</time>
      </trkpt>
      <trkpt lat="44.766931040212512" lon="2.973723979666829">
        <ele>1094.5999999999999</ele>
        <time>2025-04-25T09:36:30Z</time>
      </trkpt>
      <trkpt lat="44.766867002472281" lon="2.973824981600046">
        <ele>1094.1199999999999</ele>
        <time>2025-04-25T09:36:31Z</time>
      </trkpt>
      <trkpt lat="44.76679902523756" lon="2.973905028775334">
        <ele>1094.1199999999999</ele>
        <time>2025-04-25T09:36:32Z</time>
      </trkpt>
      <trkpt lat="44.766714032739401" lon="2.973937969654799">
        <ele>1094.1199999999999</ele>
        <time>2025-04-25T09:36:33Z</time>
      </trkpt>
      <trkpt lat="44.766611019149423" lon="2.973979040980339">
        <ele>1094.1199999999999</ele>
        <time>2025-04-25T09:36:34Z</time>
      </trkpt>
      <trkpt lat="44.765664031729102" lon="2.974421018734574">
        <ele>1098.9200000000001</ele>
        <time>2025-04-25T09:36:41Z</time>
      </trkpt>
      <trkpt lat="44.765176037326455" lon="2.974666021764278">
        <ele>1103.25</ele>
        <time>2025-04-25T09:36:44Z</time>
      </trkpt>
      <trkpt lat="44.765028012916446" lon="2.974802982062101">
        <ele>1104.6900000000001</ele>
        <time>2025-04-25T09:36:45Z</time>
      </trkpt>
      <trkpt lat="44.763676011934876" lon="2.975930012762547">
        <ele>1118.1500000000001</ele>
        <time>2025-04-25T09:36:54Z</time>
      </trkpt>
      <trkpt lat="44.76256700232625" lon="2.97675303183496">
        <ele>1124.8800000000001</ele>
        <time>2025-04-25T09:37:02Z</time>
      </trkpt>
      <trkpt lat="44.762314958497882" lon="2.976883035153151">
        <ele>1127.76</ele>
        <time>2025-04-25T09:37:07Z</time>
      </trkpt>
      <trkpt lat="44.762295009568334" lon="2.976894015446305">
        <ele>1128.73</ele>
        <time>2025-04-25T09:37:18Z</time>
      </trkpt>
      <trkpt lat="44.762080013751984" lon="2.977042961865664">
        <ele>1131.1300000000001</ele>
        <time>2025-04-25T09:37:35Z</time>
      </trkpt>
      <trkpt lat="44.762033997103572" lon="2.977095013484359">
        <ele>1131.6099999999999</ele>
        <time>2025-04-25T09:37:36Z</time>
      </trkpt>
      <trkpt lat="44.76198404096067" lon="2.977151004597545">
        <ele>1132.0899999999999</ele>
        <time>2025-04-25T09:37:37Z</time>
      </trkpt>
      <trkpt lat="44.761951016262174" lon="2.977214958518744">
        <ele>1132.5699999999999</ele>
        <time>2025-04-25T09:37:38Z</time>
      </trkpt>
      <trkpt lat="44.761913968250155" lon="2.977306991815567">
        <ele>1133.05</ele>
        <time>2025-04-25T09:37:39Z</time>
      </trkpt>
      <trkpt lat="44.761872980743647" lon="2.977410005405545">
        <ele>1133.05</ele>
        <time>2025-04-25T09:37:40Z</time>
      </trkpt>
      <trkpt lat="44.761832999065518" lon="2.977520981803536">
        <ele>1133.05</ele>
        <time>2025-04-25T09:37:41Z</time>
      </trkpt>
      <trkpt lat="44.761797040700912" lon="2.977659031748772">
        <ele>1133.05</ele>
        <time>2025-04-25T09:37:42Z</time>
      </trkpt>
      <trkpt lat="44.761540973559022" lon="2.97866796143353">
        <ele>1133.05</ele>
        <time>2025-04-25T09:37:49Z</time>
      </trkpt>
      <trkpt lat="44.761450029909611" lon="2.978743985295296">
        <ele>1133.05</ele>
        <time>2025-04-25T09:37:50Z</time>
      </trkpt>
      <trkpt lat="44.761379035189748" lon="2.978782961145043">
        <ele>1133.53</ele>
        <time>2025-04-25T09:37:51Z</time>
      </trkpt>
      <trkpt lat="44.761204021051526" lon="2.978825038298965">
        <ele>1134.97</ele>
        <time>2025-04-25T09:37:53Z</time>
      </trkpt>
      <trkpt lat="44.761109976097941" lon="2.978846998885274">
        <ele>1135.9400000000001</ele>
        <time>2025-04-25T09:37:54Z</time>
      </trkpt>
      <trkpt lat="44.761010985821486" lon="2.978851022198796">
        <ele>1136.4200000000001</ele>
        <time>2025-04-25T09:37:55Z</time>
      </trkpt>
      <trkpt lat="44.76024404168129" lon="2.978593027219176">
        <ele>1138.3399999999999</ele>
        <time>2025-04-25T09:38:03Z</time>
      </trkpt>
      <trkpt lat="44.760082019492984" lon="2.978561008349061">
        <ele>1138.3399999999999</ele>
        <time>2025-04-25T09:38:05Z</time>
      </trkpt>
      <trkpt lat="44.760013036429882" lon="2.97858003526926">
        <ele>1138.8199999999999</ele>
        <time>2025-04-25T09:38:06Z</time>
      </trkpt>
      <trkpt lat="44.759942963719368" lon="2.978598978370428">
        <ele>1139.3</ele>
        <time>2025-04-25T09:38:07Z</time>
      </trkpt>
      <trkpt lat="44.759888984262943" lon="2.978613981977105">
        <ele>1139.3</ele>
        <time>2025-04-25T09:38:08Z</time>
      </trkpt>
      <trkpt lat="44.759841961786151" lon="2.978621022775769">
        <ele>1139.78</ele>
        <time>2025-04-25T09:38:09Z</time>
      </trkpt>
      <trkpt lat="44.759802985936403" lon="2.978578023612499">
        <ele>1139.78</ele>
        <time>2025-04-25T09:38:10Z</time>
      </trkpt>
      <trkpt lat="44.759754035621881" lon="2.978523960337043">
        <ele>1140.26</ele>
        <time>2025-04-25T09:38:11Z</time>
      </trkpt>
      <trkpt lat="44.759697038680315" lon="2.978462018072605">
        <ele>1140.26</ele>
        <time>2025-04-25T09:38:12Z</time>
      </trkpt>
      <trkpt lat="44.759638030081987" lon="2.978397980332375">
        <ele>1140.26</ele>
        <time>2025-04-25T09:38:13Z</time>
      </trkpt>
      <trkpt lat="44.759499980136752" lon="2.978346012532711">
        <ele>1139.78</ele>
        <time>2025-04-25T09:38:15Z</time>
      </trkpt>
      <trkpt lat="44.759421022608876" lon="2.978330003097653">
        <ele>1139.3</ele>
        <time>2025-04-25T09:38:16Z</time>
      </trkpt>
      <trkpt lat="44.75844101049006" lon="2.978196982294321">
        <ele>1132.0899999999999</ele>
        <time>2025-04-25T09:38:25Z</time>
      </trkpt>
      <trkpt lat="44.757018014788628" lon="2.978197988122702">
        <ele>1122.96</ele>
        <time>2025-04-25T09:38:35Z</time>
      </trkpt>
      <trkpt lat="44.756012018769979" lon="2.977975029498339">
        <ele>1111.9000000000001</ele>
        <time>2025-04-25T09:38:43Z</time>
      </trkpt>
      <trkpt lat="44.755932977423072" lon="2.977905040606856">
        <ele>1110.9400000000001</ele>
        <time>2025-04-25T09:38:44Z</time>
      </trkpt>
      <trkpt lat="44.75586399435997" lon="2.977818958461285">
        <ele>1109.5</ele>
        <time>2025-04-25T09:38:45Z</time>
      </trkpt>
      <trkpt lat="44.755723010748625" lon="2.977587031200528">
        <ele>1107.5799999999999</ele>
        <time>2025-04-25T09:38:47Z</time>
      </trkpt>
      <trkpt lat="44.755654027685523" lon="2.977473959326744">
        <ele>1106.1300000000001</ele>
        <time>2025-04-25T09:38:48Z</time>
      </trkpt>
      <trkpt lat="44.755578003823757" lon="2.977375974878669">
        <ele>1105.1700000000001</ele>
        <time>2025-04-25T09:38:49Z</time>
      </trkpt>
      <trkpt lat="44.755471972748637" lon="2.977352002635598">
        <ele>1104.21</ele>
        <time>2025-04-25T09:38:50Z</time>
      </trkpt>
      <trkpt lat="44.755351021885872" lon="2.977325012907386">
        <ele>1103.25</ele>
        <time>2025-04-25T09:38:51Z</time>
      </trkpt>
      <trkpt lat="44.755215989425778" lon="2.977293999865651">
        <ele>1102.29</ele>
        <time>2025-04-25T09:38:52Z</time>
      </trkpt>
      <trkpt lat="44.754779040813446" lon="2.977160979062319">
        <ele>1098.4400000000001</ele>
        <time>2025-04-25T09:38:56Z</time>
      </trkpt>
      <trkpt lat="44.754721038043499" lon="2.977118985727429">
        <ele>1097.48</ele>
        <time>2025-04-25T09:38:57Z</time>
      </trkpt>
      <trkpt lat="44.754695976153016" lon="2.977057965472341">
        <ele>1096.04</ele>
        <time>2025-04-25T09:38:58Z</time>
      </trkpt>
      <trkpt lat="44.754695976153016" lon="2.976974984630942">
        <ele>1095.0799999999999</ele>
        <time>2025-04-25T09:38:59Z</time>
      </trkpt>
      <trkpt lat="44.754717014729977" lon="2.976888986304402">
        <ele>1094.1199999999999</ele>
        <time>2025-04-25T09:39:00Z</time>
      </trkpt>
      <trkpt lat="44.754774011671543" lon="2.976792007684708">
        <ele>1093.1600000000001</ele>
        <time>2025-04-25T09:39:01Z</time>
      </trkpt>
      <trkpt lat="44.754864033311605" lon="2.976725958287716">
        <ele>1092.2</ele>
        <time>2025-04-25T09:39:02Z</time>
      </trkpt>
      <trkpt lat="44.754964029416442" lon="2.976652029901743">
        <ele>1091.23</ele>
        <time>2025-04-25T09:39:03Z</time>
      </trkpt>
      <trkpt lat="44.755633994936943" lon="2.976161018013954">
        <ele>1085.95</ele>
        <time>2025-04-25T09:39:09Z</time>
      </trkpt>
      <trkpt lat="44.75573499687016" lon="2.976082982495427">
        <ele>1084.99</ele>
        <time>2025-04-25T09:39:10Z</time>
      </trkpt>
      <trkpt lat="44.755830969661474" lon="2.975961025804281">
        <ele>1084.02</ele>
        <time>2025-04-25T09:39:11Z</time>
      </trkpt>
      <trkpt lat="44.756458019837737" lon="2.9752710275352">
        <ele>1078.26</ele>
        <time>2025-04-25T09:39:17Z</time>
      </trkpt>
      <trkpt lat="44.757187999784946" lon="2.974646994844079">
        <ele>1072.97</ele>
        <time>2025-04-25T09:39:23Z</time>
      </trkpt>
      <trkpt lat="44.757339963689446" lon="2.974405009299517">
        <ele>1072.01</ele>
        <time>2025-04-25T09:39:25Z</time>
      </trkpt>
      <trkpt lat="44.757375000044703" lon="2.974285986274481">
        <ele>1071.53</ele>
        <time>2025-04-25T09:39:26Z</time>
      </trkpt>
      <trkpt lat="44.75736603140831" lon="2.974143996834755">
        <ele>1070.5699999999999</ele>
        <time>2025-04-25T09:39:27Z</time>
      </trkpt>
      <trkpt lat="44.757354967296124" lon="2.973976023495197">
        <ele>1070.0799999999999</ele>
        <time>2025-04-25T09:39:28Z</time>
      </trkpt>
      <trkpt lat="44.757341975346208" lon="2.97378902323544">
        <ele>1069.1199999999999</ele>
        <time>2025-04-25T09:39:29Z</time>
      </trkpt>
      <trkpt lat="44.75700200535357" lon="2.972055980935693">
        <ele>1068.6400000000001</ele>
        <time>2025-04-25T09:39:37Z</time>
      </trkpt>
      <trkpt lat="44.756778040900826" lon="2.970577999949455">
        <ele>1073.9300000000001</ele>
        <time>2025-04-25T09:39:44Z</time>
      </trkpt>
      <trkpt lat="44.756778040900826" lon="2.970403991639614">
        <ele>1074.4100000000001</ele>
        <time>2025-04-25T09:39:45Z</time>
      </trkpt>
      <trkpt lat="44.756798995658755" lon="2.970256973057985">
        <ele>1074.8900000000001</ele>
        <time>2025-04-25T09:39:46Z</time>
      </trkpt>
      <trkpt lat="44.756835959851742" lon="2.970144990831614">
        <ele>1075.8499999999999</ele>
        <time>2025-04-25T09:39:47Z</time>
      </trkpt>
      <trkpt lat="44.756903015077114" lon="2.970086988061667">
        <ele>1076.3299999999999</ele>
        <time>2025-04-25T09:39:48Z</time>
      </trkpt>
      <trkpt lat="44.756975015625358" lon="2.970041977241635">
        <ele>1076.8099999999999</ele>
        <time>2025-04-25T09:39:49Z</time>
      </trkpt>
      <trkpt lat="44.75706503726542" lon="2.970049018040299">
        <ele>1077.78</ele>
        <time>2025-04-25T09:39:50Z</time>
      </trkpt>
      <trkpt lat="44.757164027541876" lon="2.970055975019932">
        <ele>1078.74</ele>
        <time>2025-04-25T09:39:51Z</time>
      </trkpt>
      <trkpt lat="44.757251031696796" lon="2.970062009990215">
        <ele>1079.22</ele>
        <time>2025-04-25T09:39:52Z</time>
      </trkpt>
      <trkpt lat="44.757293025031686" lon="2.969997972249985">
        <ele>1080.1800000000001</ele>
        <time>2025-04-25T09:39:53Z</time>
      </trkpt>
      <trkpt lat="44.757322026416659" lon="2.969910968095064">
        <ele>1080.6600000000001</ele>
        <time>2025-04-25T09:39:54Z</time>
      </trkpt>
      <trkpt lat="44.757321020588279" lon="2.969837039709091">
        <ele>1081.6199999999999</ele>
        <time>2025-04-25T09:39:55Z</time>
      </trkpt>
      <trkpt lat="44.757270980626345" lon="2.969720028340817">
        <ele>1082.5799999999999</ele>
        <time>2025-04-25T09:39:56Z</time>
      </trkpt>
      <trkpt lat="44.757191017270088" lon="2.96966303139925">
        <ele>1083.0599999999999</ele>
        <time>2025-04-25T09:39:57Z</time>
      </trkpt>
      <trkpt lat="44.757089009508491" lon="2.969591030851007">
        <ele>1084.02</ele>
        <time>2025-04-25T09:39:58Z</time>
      </trkpt>
      <trkpt lat="44.756390964612365" lon="2.969011003151536">
        <ele>1089.3099999999999</ele>
        <time>2025-04-25T09:40:04Z</time>
      </trkpt>
      <trkpt lat="44.756316030398011" lon="2.968864990398288">
        <ele>1089.79</ele>
        <time>2025-04-25T09:40:05Z</time>
      </trkpt>
      <trkpt lat="44.755902970209718" lon="2.967992015182972">
        <ele>1092.6800000000001</ele>
        <time>2025-04-25T09:40:10Z</time>
      </trkpt>
      <trkpt lat="44.755856031551957" lon="2.967786993831396">
        <ele>1092.6800000000001</ele>
        <time>2025-04-25T09:40:11Z</time>
      </trkpt>
      <trkpt lat="44.755817977711558" lon="2.96757803298533">
        <ele>1093.1600000000001</ele>
        <time>2025-04-25T09:40:12Z</time>
      </trkpt>
      <trkpt lat="44.755543973296881" lon="2.965348027646542">
        <ele>1099.8900000000001</ele>
        <time>2025-04-25T09:40:23Z</time>
      </trkpt>
      <trkpt lat="44.755479013547301" lon="2.964770011603832">
        <ele>1102.29</ele>
        <time>2025-04-25T09:40:26Z</time>
      </trkpt>
      <trkpt lat="44.755445988848805" lon="2.964606983587146">
        <ele>1103.25</ele>
        <time>2025-04-25T09:40:27Z</time>
      </trkpt>
      <trkpt lat="44.755397038534284" lon="2.964454013854265">
        <ele>1104.21</ele>
        <time>2025-04-25T09:40:28Z</time>
      </trkpt>
      <trkpt lat="44.755315985530615" lon="2.964306995272636">
        <ele>1105.1700000000001</ele>
        <time>2025-04-25T09:40:29Z</time>
      </trkpt>
      <trkpt lat="44.755228981375694" lon="2.964152013882995">
        <ele>1106.1300000000001</ele>
        <time>2025-04-25T09:40:30Z</time>
      </trkpt>
      <trkpt lat="44.755126973614097" lon="2.964007006958127">
        <ele>1107.0999999999999</ele>
        <time>2025-04-25T09:40:31Z</time>
      </trkpt>
      <trkpt lat="44.75483100861311" lon="2.963611967861652">
        <ele>1110.46</ele>
        <time>2025-04-25T09:40:34Z</time>
      </trkpt>
      <trkpt lat="44.754721960052848" lon="2.963569974526763">
        <ele>1111.4200000000001</ele>
        <time>2025-04-25T09:40:35Z</time>
      </trkpt>
      <trkpt lat="44.75461701862514" lon="2.963536027818918">
        <ele>1112.8599999999999</ele>
        <time>2025-04-25T09:40:36Z</time>
      </trkpt>
      <trkpt lat="44.754504030570388" lon="2.963523035869002">
        <ele>1113.8199999999999</ele>
        <time>2025-04-25T09:40:37Z</time>
      </trkpt>
      <trkpt lat="44.75438199006021" lon="2.963529992848635">
        <ele>1114.79</ele>
        <time>2025-04-25T09:40:38Z</time>
      </trkpt>
      <trkpt lat="44.754258021712303" lon="2.963537033647299">
        <ele>1115.75</ele>
        <time>2025-04-25T09:40:39Z</time>
      </trkpt>
      <trkpt lat="44.754132041707635" lon="2.963575003668666">
        <ele>1116.71</ele>
        <time>2025-04-25T09:40:40Z</time>
      </trkpt>
      <trkpt lat="44.754002038389444" lon="2.963639041408896">
        <ele>1117.6700000000001</ele>
        <time>2025-04-25T09:40:41Z</time>
      </trkpt>
      <trkpt lat="44.752826979383826" lon="2.964148996397853">
        <ele>1127.76</ele>
        <time>2025-04-25T09:40:49Z</time>
      </trkpt>
      <trkpt lat="44.752398999407887" lon="2.964232983067632">
        <ele>1132.5699999999999</ele>
        <time>2025-04-25T09:40:53Z</time>
      </trkpt>
      <trkpt lat="44.752321969717741" lon="2.964222002774477">
        <ele>1133.05</ele>
        <time>2025-04-25T09:40:54Z</time>
      </trkpt>
      <trkpt lat="44.752258015796542" lon="2.964213034138084">
        <ele>1133.53</ele>
        <time>2025-04-25T09:40:55Z</time>
      </trkpt>
      <trkpt lat="44.752206970006227" lon="2.964205993339419">
        <ele>1134.49</ele>
        <time>2025-04-25T09:40:56Z</time>
      </trkpt>
      <trkpt lat="44.75218802690506" lon="2.964161988347769">
        <ele>1134.97</ele>
        <time>2025-04-25T09:40:57Z</time>
      </trkpt>
      <trkpt lat="44.752170005813241" lon="2.96412100084126">
        <ele>1135.45</ele>
        <time>2025-04-25T09:40:58Z</time>
      </trkpt>
      <trkpt lat="44.752157013863325" lon="2.964091999456286">
        <ele>1135.9400000000001</ele>
        <time>2025-04-25T09:40:59Z</time>
      </trkpt>
      <trkpt lat="44.752156008034945" lon="2.963993009179831">
        <ele>1136.4200000000001</ele>
        <time>2025-04-25T09:41:00Z</time>
      </trkpt>
      <trkpt lat="44.752199007198215" lon="2.963968031108379">
        <ele>1136.9000000000001</ele>
        <time>2025-04-25T09:41:01Z</time>
      </trkpt>
      <trkpt lat="44.752257009968162" lon="2.963935006409884">
        <ele>1137.8599999999999</ele>
        <time>2025-04-25T09:41:02Z</time>
      </trkpt>
      <trkpt lat="44.752326998859644" lon="2.963895024731755">
        <ele>1138.3399999999999</ele>
        <time>2025-04-25T09:41:03Z</time>
      </trkpt>
      <trkpt lat="44.752690019086003" lon="2.963685980066657">
        <ele>1139.3</ele>
        <time>2025-04-25T09:41:07Z</time>
      </trkpt>
      <trkpt lat="44.752829996868968" lon="2.96360501088202">
        <ele>1139.3</ele>
        <time>2025-04-25T09:41:08Z</time>
      </trkpt>
      <trkpt lat="44.752904009073973" lon="2.963482970371842">
        <ele>1139.3</ele>
        <time>2025-04-25T09:41:09Z</time>
      </trkpt>
      <trkpt lat="44.753301981836557" lon="2.96283395960927">
        <ele>1138.8199999999999</ele>
        <time>2025-04-25T09:41:13Z</time>
      </trkpt>
      <trkpt lat="44.7534120362252" lon="2.962654000148177">
        <ele>1138.8199999999999</ele>
        <time>2025-04-25T09:41:14Z</time>
      </trkpt>
      <trkpt lat="44.753509014844894" lon="2.962460964918137">
        <ele>1138.3399999999999</ele>
        <time>2025-04-25T09:41:15Z</time>
      </trkpt>
      <trkpt lat="44.753644969314337" lon="2.96210297383368">
        <ele>1137.3800000000001</ele>
        <time>2025-04-25T09:41:17Z</time>
      </trkpt>
      <trkpt lat="44.753705989569426" lon="2.961842967197299">
        <ele>1137.3800000000001</ele>
        <time>2025-04-25T09:41:18Z</time>
      </trkpt>
      <trkpt lat="44.753730967640877" lon="2.961738025769591">
        <ele>1136.9000000000001</ele>
        <time>2025-04-25T09:41:19Z</time>
      </trkpt>
      <trkpt lat="44.753741025924683" lon="2.961420016363263">
        <ele>1136.4200000000001</ele>
        <time>2025-04-25T09:41:20Z</time>
      </trkpt>
      <trkpt lat="44.753748988732696" lon="2.961189011111856">
        <ele>1135.9400000000001</ele>
        <time>2025-04-25T09:41:21Z</time>
      </trkpt>
      <trkpt lat="44.753748988732696" lon="2.961001005023718">
        <ele>1135.45</ele>
        <time>2025-04-25T09:41:22Z</time>
      </trkpt>
      <trkpt lat="44.753742031753063" lon="2.960843006148934">
        <ele>1134.97</ele>
        <time>2025-04-25T09:41:23Z</time>
      </trkpt>
      <trkpt lat="44.75373700261116" lon="2.960705040022731">
        <ele>1134.49</ele>
        <time>2025-04-25T09:41:24Z</time>
      </trkpt>
      <trkpt lat="44.753730967640877" lon="2.960558021441102">
        <ele>1134.01</ele>
        <time>2025-04-25T09:41:25Z</time>
      </trkpt>
      <trkpt lat="44.753657039254904" lon="2.960434975102544">
        <ele>1133.53</ele>
        <time>2025-04-25T09:41:26Z</time>
      </trkpt>
      <trkpt lat="44.753571962937713" lon="2.960292985662818">
        <ele>1133.05</ele>
        <time>2025-04-25T09:41:27Z</time>
      </trkpt>
      <trkpt lat="44.753472972661257" lon="2.960129035636783">
        <ele>1133.05</ele>
        <time>2025-04-25T09:41:28Z</time>
      </trkpt>
      <trkpt lat="44.753400972113013" lon="2.959941029548645">
        <ele>1132.5699999999999</ele>
        <time>2025-04-25T09:41:29Z</time>
      </trkpt>
      <trkpt lat="44.753325032070279" lon="2.959741959348321">
        <ele>1132.5699999999999</ele>
        <time>2025-04-25T09:41:30Z</time>
      </trkpt>
      <trkpt lat="44.752968968823552" lon="2.958817016333342">
        <ele>1132.0899999999999</ele>
        <time>2025-04-25T09:41:35Z</time>
      </trkpt>
      <trkpt lat="44.752929992973804" lon="2.958657005801797">
        <ele>1132.0899999999999</ele>
        <time>2025-04-25T09:41:36Z</time>
      </trkpt>
      <trkpt lat="44.752917001023889" lon="2.958476040512323">
        <ele>1132.0899999999999</ele>
        <time>2025-04-25T09:41:37Z</time>
      </trkpt>
      <trkpt lat="44.752944996580482" lon="2.958079995587468">
        <ele>1133.05</ele>
        <time>2025-04-25T09:41:39Z</time>
      </trkpt>
      <trkpt lat="44.752954971045256" lon="2.957857036963105">
        <ele>1134.01</ele>
        <time>2025-04-25T09:41:40Z</time>
      </trkpt>
      <trkpt lat="44.752936027944088" lon="2.957633994519711">
        <ele>1135.45</ele>
        <time>2025-04-25T09:41:41Z</time>
      </trkpt>
      <trkpt lat="44.752915995195508" lon="2.957406006753445">
        <ele>1136.9000000000001</ele>
        <time>2025-04-25T09:41:42Z</time>
      </trkpt>
      <trkpt lat="44.752897974103689" lon="2.957195034250617">
        <ele>1138.3399999999999</ele>
        <time>2025-04-25T09:41:43Z</time>
      </trkpt>
      <trkpt lat="44.752930998802185" lon="2.956989007070661">
        <ele>1139.78</ele>
        <time>2025-04-25T09:41:44Z</time>
      </trkpt>
      <trkpt lat="44.752981038764119" lon="2.956777028739452">
        <ele>1141.22</ele>
        <time>2025-04-25T09:41:45Z</time>
      </trkpt>
      <trkpt lat="44.753056978806853" lon="2.956562032923102">
        <ele>1142.6600000000001</ele>
        <time>2025-04-25T09:41:46Z</time>
      </trkpt>
      <trkpt lat="44.753145994618535" lon="2.956348964944482">
        <ele>1144.1099999999999</ele>
        <time>2025-04-25T09:41:47Z</time>
      </trkpt>
      <trkpt lat="44.753257976844907" lon="2.956146961078048">
        <ele>1145.55</ele>
        <time>2025-04-25T09:41:48Z</time>
      </trkpt>
      <trkpt lat="44.75453001447022" lon="2.953837998211384">
        <ele>1161.4100000000001</ele>
        <time>2025-04-25T09:41:59Z</time>
      </trkpt>
      <trkpt lat="44.754606038331985" lon="2.953641023486853">
        <ele>1162.8499999999999</ele>
        <time>2025-04-25T09:42:00Z</time>
      </trkpt>
      <trkpt lat="44.754672003909945" lon="2.953425021842122">
        <ele>1163.8099999999999</ele>
        <time>2025-04-25T09:42:01Z</time>
      </trkpt>
      <trkpt lat="44.754718020558357" lon="2.953195022419095">
        <ele>1165.26</ele>
        <time>2025-04-25T09:42:02Z</time>
      </trkpt>
      <trkpt lat="44.754965035244823" lon="2.951848972588778">
        <ele>1174.3900000000001</ele>
        <time>2025-04-25T09:42:08Z</time>
      </trkpt>
      <trkpt lat="44.755015997216105" lon="2.951688040047884">
        <ele>1175.3499999999999</ele>
        <time>2025-04-25T09:42:09Z</time>
      </trkpt>
      <trkpt lat="44.755063019692898" lon="2.951544038951397">
        <ele>1176.79</ele>
        <time>2025-04-25T09:42:10Z</time>
      </trkpt>
      <trkpt lat="44.755082968622446" lon="2.951414035633206">
        <ele>1177.75</ele>
        <time>2025-04-25T09:42:11Z</time>
      </trkpt>
      <trkpt lat="44.755082968622446" lon="2.951296018436551">
        <ele>1178.71</ele>
        <time>2025-04-25T09:42:12Z</time>
      </trkpt>
      <trkpt lat="44.755061008036137" lon="2.951172972097993">
        <ele>1179.6700000000001</ele>
        <time>2025-04-25T09:42:13Z</time>
      </trkpt>
      <trkpt lat="44.754986995831132" lon="2.951073981821537">
        <ele>1181.1199999999999</ele>
        <time>2025-04-25T09:42:14Z</time>
      </trkpt>
      <trkpt lat="44.754881970584393" lon="2.950983038172126">
        <ele>1181.5999999999999</ele>
        <time>2025-04-25T09:42:15Z</time>
      </trkpt>
      <trkpt lat="44.754754984751344" lon="2.950898967683315">
        <ele>1182.5599999999999</ele>
        <time>2025-04-25T09:42:16Z</time>
      </trkpt>
      <trkpt lat="44.754607966169715" lon="2.950829984620214">
        <ele>1183.52</ele>
        <time>2025-04-25T09:42:17Z</time>
      </trkpt>
      <trkpt lat="44.754451978951693" lon="2.950756978243589">
        <ele>1184.48</ele>
        <time>2025-04-25T09:42:18Z</time>
      </trkpt>
      <trkpt lat="44.753301981836557" lon="2.950215004384518">
        <ele>1193.6099999999999</ele>
        <time>2025-04-25T09:42:25Z</time>
      </trkpt>
      <trkpt lat="44.751663990318775" lon="2.949707983061671">
        <ele>1196.5</ele>
        <time>2025-04-25T09:42:35Z</time>
      </trkpt>
      <trkpt lat="44.751539016142488" lon="2.94959700666368">
        <ele>1196.5</ele>
        <time>2025-04-25T09:42:36Z</time>
      </trkpt>
      <trkpt lat="44.751423010602593" lon="2.94944697059691">
        <ele>1196.5</ele>
        <time>2025-04-25T09:42:37Z</time>
      </trkpt>
      <trkpt lat="44.750164970755577" lon="2.947810990735889">
        <ele>1197.9400000000001</ele>
        <time>2025-04-25T09:42:46Z</time>
      </trkpt>
      <trkpt lat="44.748295973986387" lon="2.945379987359047">
        <ele>1200.3399999999999</ele>
        <time>2025-04-25T09:42:58Z</time>
      </trkpt>
      <trkpt lat="44.747305987402797" lon="2.943970989435911">
        <ele>1202.75</ele>
        <time>2025-04-25T09:43:06Z</time>
      </trkpt>
      <trkpt lat="44.747263994067907" lon="2.943824976682663">
        <ele>1203.23</ele>
        <time>2025-04-25T09:43:07Z</time>
      </trkpt>
      <trkpt lat="44.747257037088275" lon="2.943661026656628">
        <ele>1203.23</ele>
        <time>2025-04-25T09:43:08Z</time>
      </trkpt>
      <trkpt lat="44.74726801738143" lon="2.943472014740109">
        <ele>1203.71</ele>
        <time>2025-04-25T09:43:09Z</time>
      </trkpt>
      <trkpt lat="44.747301964089274" lon="2.943287026137114">
        <ele>1204.1900000000001</ele>
        <time>2025-04-25T09:43:10Z</time>
      </trkpt>
      <trkpt lat="44.747350998222828" lon="2.943115029484034">
        <ele>1204.1900000000001</ele>
        <time>2025-04-25T09:43:11Z</time>
      </trkpt>
      <trkpt lat="44.74739802069962" lon="2.942952001467347">
        <ele>1204.6700000000001</ele>
        <time>2025-04-25T09:43:12Z</time>
      </trkpt>
      <trkpt lat="44.747490976005793" lon="2.942867008969188">
        <ele>1205.1500000000001</ele>
        <time>2025-04-25T09:43:13Z</time>
      </trkpt>
      <trkpt lat="44.74759197793901" lon="2.94278503395617">
        <ele>1205.6300000000001</ele>
        <time>2025-04-25T09:43:14Z</time>
      </trkpt>
      <trkpt lat="44.747703038156033" lon="2.942727031186223">
        <ele>1206.5899999999999</ele>
        <time>2025-04-25T09:43:15Z</time>
      </trkpt>
      <trkpt lat="44.747835975140333" lon="2.942683026194572">
        <ele>1207.0699999999999</ele>
        <time>2025-04-25T09:43:16Z</time>
      </trkpt>
      <trkpt lat="44.748668968677521" lon="2.94239703565836">
        <ele>1209.96</ele>
        <time>2025-04-25T09:43:22Z</time>
      </trkpt>
      <trkpt lat="44.748774999752641" lon="2.942329980432987">
        <ele>1210.4400000000001</ele>
        <time>2025-04-25T09:43:23Z</time>
      </trkpt>
      <trkpt lat="44.748871978372335" lon="2.942267032340169">
        <ele>1210.9200000000001</ele>
        <time>2025-04-25T09:43:24Z</time>
      </trkpt>
      <trkpt lat="44.749481007456779" lon="2.941677030175924">
        <ele>1215.72</ele>
        <time>2025-04-25T09:43:32Z</time>
      </trkpt>
      <trkpt lat="44.749531969428062" lon="2.941594971343875">
        <ele>1216.21</ele>
        <time>2025-04-25T09:43:33Z</time>
      </trkpt>
      <trkpt lat="44.749582009389997" lon="2.941515007987618">
        <ele>1216.6900000000001</ele>
        <time>2025-04-25T09:43:34Z</time>
      </trkpt>
      <trkpt lat="44.749603969976306" lon="2.941420963034034">
        <ele>1217.1700000000001</ele>
        <time>2025-04-25T09:43:35Z</time>
      </trkpt>
      <trkpt lat="44.749620985239744" lon="2.941321972757578">
        <ele>1217.6500000000001</ele>
        <time>2025-04-25T09:43:36Z</time>
      </trkpt>
      <trkpt lat="44.749639006331563" lon="2.9412189591676">
        <ele>1217.6500000000001</ele>
        <time>2025-04-25T09:43:37Z</time>
      </trkpt>
      <trkpt lat="44.749788958579302" lon="2.940367022529244">
        <ele>1219.0899999999999</ele>
        <time>2025-04-25T09:43:45Z</time>
      </trkpt>
      <trkpt lat="44.749817037954926" lon="2.940271971747279">
        <ele>1218.6099999999999</ele>
        <time>2025-04-25T09:43:46Z</time>
      </trkpt>
      <trkpt lat="44.74984897300601" lon="2.94016501866281">
        <ele>1218.6099999999999</ele>
        <time>2025-04-25T09:43:47Z</time>
      </trkpt>
      <trkpt lat="44.749883003532887" lon="2.940053036436439">
        <ele>1218.1300000000001</ele>
        <time>2025-04-25T09:43:48Z</time>
      </trkpt>
      <trkpt lat="44.749910999089479" lon="2.939958991482854">
        <ele>1217.6500000000001</ele>
        <time>2025-04-25T09:43:49Z</time>
      </trkpt>
      <trkpt lat="44.749910999089479" lon="2.939855977892876">
        <ele>1216.6900000000001</ele>
        <time>2025-04-25T09:43:50Z</time>
      </trkpt>
      <trkpt lat="44.749905969947577" lon="2.939755981788039">
        <ele>1215.72</ele>
        <time>2025-04-25T09:43:51Z</time>
      </trkpt>
      <trkpt lat="44.74984897300601" lon="2.93964802287519">
        <ele>1214.76</ele>
        <time>2025-04-25T09:43:52Z</time>
      </trkpt>
      <trkpt lat="44.749787030741572" lon="2.939533023163676">
        <ele>1214.28</ele>
        <time>2025-04-25T09:43:53Z</time>
      </trkpt>
      <trkpt lat="44.74971704185009" lon="2.939424980431795">
        <ele>1214.28</ele>
        <time>2025-04-25T09:43:54Z</time>
      </trkpt>
      <trkpt lat="44.749617967754602" lon="2.939338982105255">
        <ele>1213.8</ele>
        <time>2025-04-25T09:43:55Z</time>
      </trkpt>
      <trkpt lat="44.749510008841753" lon="2.939247032627463">
        <ele>1213.8</ele>
        <time>2025-04-25T09:43:56Z</time>
      </trkpt>
      <trkpt lat="44.748322041705251" lon="2.938182028010488">
        <ele>1210.4400000000001</ele>
        <time>2025-04-25T09:44:05Z</time>
      </trkpt>
      <trkpt lat="44.747561970725656" lon="2.937412988394499">
        <ele>1205.6300000000001</ele>
        <time>2025-04-25T09:44:11Z</time>
      </trkpt>
      <trkpt lat="44.747453005984426" lon="2.937384992837906">
        <ele>1205.1500000000001</ele>
        <time>2025-04-25T09:44:12Z</time>
      </trkpt>
      <trkpt lat="44.747329037636518" lon="2.937352973967791">
        <ele>1204.1900000000001</ele>
        <time>2025-04-25T09:44:13Z</time>
      </trkpt>
      <trkpt lat="44.74703399464488" lon="2.937277033925057">
        <ele>1202.27</ele>
        <time>2025-04-25T09:44:15Z</time>
      </trkpt>
      <trkpt lat="44.746883036568761" lon="2.937204027548432">
        <ele>1201.3</ele>
        <time>2025-04-25T09:44:16Z</time>
      </trkpt>
      <trkpt lat="44.74673300050199" lon="2.937089027836919">
        <ele>1199.8599999999999</ele>
        <time>2025-04-25T09:44:17Z</time>
      </trkpt>
      <trkpt lat="44.746426977217197" lon="2.93685500510037">
        <ele>1196.98</ele>
        <time>2025-04-25T09:44:19Z</time>
      </trkpt>
      <trkpt lat="44.745966978371143" lon="2.936603967100382">
        <ele>1193.1300000000001</ele>
        <time>2025-04-25T09:44:22Z</time>
      </trkpt>
      <trkpt lat="44.745512008666992" lon="2.936414033174515">
        <ele>1189.29</ele>
        <time>2025-04-25T09:44:25Z</time>
      </trkpt>
      <trkpt lat="44.745371025055647" lon="2.936314037069678">
        <ele>1187.8499999999999</ele>
        <time>2025-04-25T09:44:26Z</time>
      </trkpt>
      <trkpt lat="44.745247978717089" lon="2.936207000166178">
        <ele>1186.4000000000001</ele>
        <time>2025-04-25T09:44:27Z</time>
      </trkpt>
      <trkpt lat="44.745071958750486" lon="2.935998039320111">
        <ele>1184</ele>
        <time>2025-04-25T09:44:29Z</time>
      </trkpt>
      <trkpt lat="44.744984032586217" lon="2.935965014621615">
        <ele>1183.04</ele>
        <time>2025-04-25T09:44:30Z</time>
      </trkpt>
      <trkpt lat="44.744887975975871" lon="2.935928972437978">
        <ele>1182.0799999999999</ele>
        <time>2025-04-25T09:44:31Z</time>
      </trkpt>
      <trkpt lat="44.744780017063022" lon="2.93588899075985">
        <ele>1181.5999999999999</ele>
        <time>2025-04-25T09:44:32Z</time>
      </trkpt>
      <trkpt lat="44.744687983766198" lon="2.935808021575213">
        <ele>1180.6400000000001</ele>
        <time>2025-04-25T09:44:33Z</time>
      </trkpt>
      <trkpt lat="44.744611959904432" lon="2.935690004378557">
        <ele>1179.1900000000001</ele>
        <time>2025-04-25T09:44:34Z</time>
      </trkpt>
      <trkpt lat="44.744539959356189" lon="2.93554499745369">
        <ele>1178.71</ele>
        <time>2025-04-25T09:44:35Z</time>
      </trkpt>
      <trkpt lat="44.744466030970216" lon="2.935397978872061">
        <ele>1178.23</ele>
        <time>2025-04-25T09:44:36Z</time>
      </trkpt>
      <trkpt lat="44.744411967694759" lon="2.935256995260716">
        <ele>1177.27</ele>
        <time>2025-04-25T09:44:37Z</time>
      </trkpt>
      <trkpt lat="44.74439000710845" lon="2.935090027749538">
        <ele>1176.79</ele>
        <time>2025-04-25T09:44:38Z</time>
      </trkpt>
      <trkpt lat="44.744384977966547" lon="2.934933034703136">
        <ele>1176.3099999999999</ele>
        <time>2025-04-25T09:44:39Z</time>
      </trkpt>
      <trkpt lat="44.744420014321804" lon="2.934755003079772">
        <ele>1176.3099999999999</ele>
        <time>2025-04-25T09:44:40Z</time>
      </trkpt>
      <trkpt lat="44.744469970464706" lon="2.934575965628028">
        <ele>1176.3099999999999</ele>
        <time>2025-04-25T09:44:41Z</time>
      </trkpt>
      <trkpt lat="44.744537025690079" lon="2.934402041137219">
        <ele>1175.8299999999999</ele>
        <time>2025-04-25T09:44:42Z</time>
      </trkpt>
      <trkpt lat="44.74462604150176" lon="2.934243958443403">
        <ele>1175.8299999999999</ele>
        <time>2025-04-25T09:44:43Z</time>
      </trkpt>
      <trkpt lat="44.744714973494411" lon="2.93408595956862">
        <ele>1175.8299999999999</ele>
        <time>2025-04-25T09:44:44Z</time>
      </trkpt>
      <trkpt lat="44.745282009243965" lon="2.933085998520255">
        <ele>1175.8299999999999</ele>
        <time>2025-04-25T09:44:50Z</time>
      </trkpt>
      <trkpt lat="44.74540296010673" lon="2.932955995202065">
        <ele>1175.8299999999999</ele>
        <time>2025-04-25T09:44:51Z</time>
      </trkpt>
      <trkpt lat="44.745522988960147" lon="2.932826997712255">
        <ele>1175.8299999999999</ele>
        <time>2025-04-25T09:44:52Z</time>
      </trkpt>
      <trkpt lat="44.746046019718051" lon="2.932264991104603">
        <ele>1176.3099999999999</ele>
        <time>2025-04-25T09:44:56Z</time>
      </trkpt>
      <trkpt lat="44.746307032182813" lon="2.931984029710293">
        <ele>1176.79</ele>
        <time>2025-04-25T09:44:58Z</time>
      </trkpt>
      <trkpt lat="44.746433012187481" lon="2.931858971714973">
        <ele>1177.27</ele>
        <time>2025-04-25T09:44:59Z</time>
      </trkpt>
      <trkpt lat="44.746590005233884" lon="2.931772973388434">
        <ele>1177.27</ele>
        <time>2025-04-25T09:45:00Z</time>
      </trkpt>
      <trkpt lat="44.746741969138384" lon="2.931717988103628">
        <ele>1177.27</ele>
        <time>2025-04-25T09:45:01Z</time>
      </trkpt>
      <trkpt lat="44.746912959963083" lon="2.931677000597119">
        <ele>1177.27</ele>
        <time>2025-04-25T09:45:02Z</time>
      </trkpt>
      <trkpt lat="44.747085962444544" lon="2.931636013090611">
        <ele>1177.27</ele>
        <time>2025-04-25T09:45:03Z</time>
      </trkpt>
      <trkpt lat="44.747252007946372" lon="2.93157197535038">
        <ele>1177.27</ele>
        <time>2025-04-25T09:45:04Z</time>
      </trkpt>
      <trkpt lat="44.747401038184762" lon="2.931482959538698">
        <ele>1176.79</ele>
        <time>2025-04-25T09:45:05Z</time>
      </trkpt>
      <trkpt lat="44.747535986825824" lon="2.931321021169424">
        <ele>1176.3099999999999</ele>
        <time>2025-04-25T09:45:06Z</time>
      </trkpt>
      <trkpt lat="44.747674958780408" lon="2.931152964010835">
        <ele>1175.8299999999999</ele>
        <time>2025-04-25T09:45:07Z</time>
      </trkpt>
      <trkpt lat="44.747801022604108" lon="2.930975016206503">
        <ele>1175.8299999999999</ele>
        <time>2025-04-25T09:45:08Z</time>
      </trkpt>
      <trkpt lat="44.747933959588408" lon="2.930771000683308">
        <ele>1175.8299999999999</ele>
        <time>2025-04-25T09:45:09Z</time>
      </trkpt>
      <trkpt lat="44.748356994241476" lon="2.930161971598864">
        <ele>1174.3900000000001</ele>
        <time>2025-04-25T09:45:12Z</time>
      </trkpt>
      <trkpt lat="44.748498983681202" lon="2.929983017966151">
        <ele>1173.9100000000001</ele>
        <time>2025-04-25T09:45:13Z</time>
      </trkpt>
      <trkpt lat="44.748762007802725" lon="2.929710019379854">
        <ele>1173.4300000000001</ele>
        <time>2025-04-25T09:45:15Z</time>
      </trkpt>
      <trkpt lat="44.748888993635774" lon="2.929631983861327">
        <ele>1173.4300000000001</ele>
        <time>2025-04-25T09:45:16Z</time>
      </trkpt>
      <trkpt lat="44.749024026095867" lon="2.929560989141464">
        <ele>1173.4300000000001</ele>
        <time>2025-04-25T09:45:17Z</time>
      </trkpt>
      <trkpt lat="44.749169033020735" lon="2.929484965279698">
        <ele>1173.4300000000001</ele>
        <time>2025-04-25T09:45:18Z</time>
      </trkpt>
      <trkpt lat="44.749322002753615" lon="2.929383963346481">
        <ele>1173.4300000000001</ele>
        <time>2025-04-25T09:45:19Z</time>
      </trkpt>
      <trkpt lat="44.749446976929903" lon="2.929235016927123">
        <ele>1173.4300000000001</ele>
        <time>2025-04-25T09:45:20Z</time>
      </trkpt>
      <trkpt lat="44.749577986076474" lon="2.929080035537481">
        <ele>1173.9100000000001</ele>
        <time>2025-04-25T09:45:21Z</time>
      </trkpt>
      <trkpt lat="44.74969700910151" lon="2.928907033056021">
        <ele>1173.9100000000001</ele>
        <time>2025-04-25T09:45:22Z</time>
      </trkpt>
      <trkpt lat="44.749788036569953" lon="2.928709974512458">
        <ele>1174.3900000000001</ele>
        <time>2025-04-25T09:45:23Z</time>
      </trkpt>
      <trkpt lat="44.749852996319532" lon="2.928495984524488">
        <ele>1174.3900000000001</ele>
        <time>2025-04-25T09:45:24Z</time>
      </trkpt>
      <trkpt lat="44.749919967725873" lon="2.928275959566236">
        <ele>1174.3900000000001</ele>
        <time>2025-04-25T09:45:25Z</time>
      </trkpt>
      <trkpt lat="44.750070003792644" lon="2.927816966548562">
        <ele>1173.9100000000001</ele>
        <time>2025-04-25T09:45:27Z</time>
      </trkpt>
      <trkpt lat="44.750174023211002" lon="2.927610017359257">
        <ele>1173.9100000000001</ele>
        <time>2025-04-25T09:45:28Z</time>
      </trkpt>
      <trkpt lat="44.750668974593282" lon="2.9265440069139">
        <ele>1173.9100000000001</ele>
        <time>2025-04-25T09:45:33Z</time>
      </trkpt>
      <trkpt lat="44.750723959878087" lon="2.926323981955648">
        <ele>1173.9100000000001</ele>
        <time>2025-04-25T09:45:34Z</time>
      </trkpt>
      <trkpt lat="44.750980027019978" lon="2.924466971307993">
        <ele>1174.3900000000001</ele>
        <time>2025-04-25T09:45:41Z</time>
      </trkpt>
      <trkpt lat="44.750910038128495" lon="2.922607026994228">
        <ele>1173.4300000000001</ele>
        <time>2025-04-25T09:45:48Z</time>
      </trkpt>
      <trkpt lat="44.750876007601619" lon="2.922427989542484">
        <ele>1173.4300000000001</ele>
        <time>2025-04-25T09:45:49Z</time>
      </trkpt>
      <trkpt lat="44.750564033165574" lon="2.921074982732534">
        <ele>1173.4300000000001</ele>
        <time>2025-04-25T09:45:55Z</time>
      </trkpt>
      <trkpt lat="44.750474011525512" lon="2.920856969431043">
        <ele>1173.4300000000001</ele>
        <time>2025-04-25T09:45:56Z</time>
      </trkpt>
      <trkpt lat="44.750358005985618" lon="2.920650020241737">
        <ele>1173.4300000000001</ele>
        <time>2025-04-25T09:45:57Z</time>
      </trkpt>
      <trkpt lat="44.75010696798563" lon="2.920199995860457">
        <ele>1172.95</ele>
        <time>2025-04-25T09:45:59Z</time>
      </trkpt>
      <trkpt lat="44.749562982469797" lon="2.919151000678539">
        <ele>1170.54</ele>
        <time>2025-04-25T09:46:04Z</time>
      </trkpt>
      <trkpt lat="44.749520989134908" lon="2.918955031782389">
        <ele>1170.54</ele>
        <time>2025-04-25T09:46:05Z</time>
      </trkpt>
      <trkpt lat="44.749478995800018" lon="2.918757973238826">
        <ele>1170.0599999999999</ele>
        <time>2025-04-25T09:46:06Z</time>
      </trkpt>
      <trkpt lat="44.749421998858452" lon="2.918549012392759">
        <ele>1170.0599999999999</ele>
        <time>2025-04-25T09:46:07Z</time>
      </trkpt>
      <trkpt lat="44.749351004138589" lon="2.918325969949365">
        <ele>1170.54</ele>
        <time>2025-04-25T09:46:08Z</time>
      </trkpt>
      <trkpt lat="44.749268023297191" lon="2.918095970526338">
        <ele>1170.0599999999999</ele>
        <time>2025-04-25T09:46:09Z</time>
      </trkpt>
      <trkpt lat="44.749093009158969" lon="2.917628008872271">
        <ele>1170.0599999999999</ele>
        <time>2025-04-25T09:46:11Z</time>
      </trkpt>
      <trkpt lat="44.749050009995699" lon="2.917397003620863">
        <ele>1170.0599999999999</ele>
        <time>2025-04-25T09:46:12Z</time>
      </trkpt>
      <trkpt lat="44.749020002782345" lon="2.91717597283423">
        <ele>1170.0599999999999</ele>
        <time>2025-04-25T09:46:13Z</time>
      </trkpt>
      <trkpt lat="44.748991001397371" lon="2.916963994503021">
        <ele>1170.0599999999999</ele>
        <time>2025-04-25T09:46:14Z</time>
      </trkpt>
      <trkpt lat="44.748962000012398" lon="2.916750004515052">
        <ele>1170.0599999999999</ele>
        <time>2025-04-25T09:46:15Z</time>
      </trkpt>
      <trkpt lat="44.748932998627424" lon="2.916532997041941">
        <ele>1170.0599999999999</ele>
        <time>2025-04-25T09:46:16Z</time>
      </trkpt>
      <trkpt lat="44.74890299141407" lon="2.916311966255307">
        <ele>1170.54</ele>
        <time>2025-04-25T09:46:17Z</time>
      </trkpt>
      <trkpt lat="44.74883702583611" lon="2.916113985702395">
        <ele>1170.54</ele>
        <time>2025-04-25T09:46:18Z</time>
      </trkpt>
      <trkpt lat="44.748767036944628" lon="2.915903013199568">
        <ele>1170.54</ele>
        <time>2025-04-25T09:46:19Z</time>
      </trkpt>
      <trkpt lat="44.748311983421445" lon="2.914238031953573">
        <ele>1170.0599999999999</ele>
        <time>2025-04-25T09:46:26Z</time>
      </trkpt>
      <trkpt lat="44.74823503755033" lon="2.91380200535059">
        <ele>1170.54</ele>
        <time>2025-04-25T09:46:28Z</time>
      </trkpt>
      <trkpt lat="44.748222967609763" lon="2.913578962907195">
        <ele>1171.02</ele>
        <time>2025-04-25T09:46:29Z</time>
      </trkpt>
      <trkpt lat="44.748235959559679" lon="2.913343012332916">
        <ele>1171.02</ele>
        <time>2025-04-25T09:46:30Z</time>
      </trkpt>
      <trkpt lat="44.74827703088522" lon="2.912613032385707">
        <ele>1171.98</ele>
        <time>2025-04-25T09:46:33Z</time>
      </trkpt>
      <trkpt lat="44.748262027278543" lon="2.912355037406087">
        <ele>1171.98</ele>
        <time>2025-04-25T09:46:34Z</time>
      </trkpt>
      <trkpt lat="44.748093970119953" lon="2.909873994067311">
        <ele>1172.95</ele>
        <time>2025-04-25T09:46:43Z</time>
      </trkpt>
      <trkpt lat="44.748054994270205" lon="2.909652963280678">
        <ele>1172.95</ele>
        <time>2025-04-25T09:46:44Z</time>
      </trkpt>
      <trkpt lat="44.747994979843497" lon="2.909451965242624">
        <ele>1172.95</ele>
        <time>2025-04-25T09:46:45Z</time>
      </trkpt>
      <trkpt lat="44.747931025922298" lon="2.909266976639628">
        <ele>1172.47</ele>
        <time>2025-04-25T09:46:46Z</time>
      </trkpt>
      <trkpt lat="44.747868999838829" lon="2.909089028835297">
        <ele>1171.98</ele>
        <time>2025-04-25T09:46:47Z</time>
      </trkpt>
      <trkpt lat="44.74785097874701" lon="2.908875038847327">
        <ele>1171.5</ele>
        <time>2025-04-25T09:46:48Z</time>
      </trkpt>
      <trkpt lat="44.747857013717294" lon="2.90864797309041">
        <ele>1171.02</ele>
        <time>2025-04-25T09:46:49Z</time>
      </trkpt>
      <trkpt lat="44.747901018708944" lon="2.90843297727406">
        <ele>1170.54</ele>
        <time>2025-04-25T09:46:50Z</time>
      </trkpt>
      <trkpt lat="44.747948041185737" lon="2.908211024478078">
        <ele>1170.54</ele>
        <time>2025-04-25T09:46:51Z</time>
      </trkpt>
      <trkpt lat="44.748034039512277" lon="2.907995022833347">
        <ele>1170.0599999999999</ele>
        <time>2025-04-25T09:46:52Z</time>
      </trkpt>
      <trkpt lat="44.748133029788733" lon="2.907781032845378">
        <ele>1170.0599999999999</ele>
        <time>2025-04-25T09:46:53Z</time>
      </trkpt>
      <trkpt lat="44.748227996751666" lon="2.907565031200647">
        <ele>1169.5799999999999</ele>
        <time>2025-04-25T09:46:54Z</time>
      </trkpt>
      <trkpt lat="44.748306032270193" lon="2.907332014292479">
        <ele>1169.0999999999999</ele>
        <time>2025-04-25T09:46:55Z</time>
      </trkpt>
      <trkpt lat="44.748345008119941" lon="2.907082987949252">
        <ele>1169.0999999999999</ele>
        <time>2025-04-25T09:46:56Z</time>
      </trkpt>
      <trkpt lat="44.748373003676534" lon="2.906823987141252">
        <ele>1169.0999999999999</ele>
        <time>2025-04-25T09:46:57Z</time>
      </trkpt>
      <trkpt lat="44.748400999233127" lon="2.906558029353619">
        <ele>1168.6199999999999</ele>
        <time>2025-04-25T09:46:58Z</time>
      </trkpt>
      <trkpt lat="44.748461013659835" lon="2.906291987746954">
        <ele>1168.1400000000001</ele>
        <time>2025-04-25T09:46:59Z</time>
      </trkpt>
      <trkpt lat="44.748531002551317" lon="2.906029969453812">
        <ele>1168.1400000000001</ele>
        <time>2025-04-25T09:47:00Z</time>
      </trkpt>
      <trkpt lat="44.748733006417751" lon="2.905279034748673">
        <ele>1167.1800000000001</ele>
        <time>2025-04-25T09:47:03Z</time>
      </trkpt>
      <trkpt lat="44.74883602000773" lon="2.905051968991756">
        <ele>1166.7</ele>
        <time>2025-04-25T09:47:04Z</time>
      </trkpt>
      <trkpt lat="44.748940039426088" lon="2.904823981225491">
        <ele>1166.7</ele>
        <time>2025-04-25T09:47:05Z</time>
      </trkpt>
      <trkpt lat="44.749211026355624" lon="2.90443598292768">
        <ele>1165.74</ele>
        <time>2025-04-25T09:47:07Z</time>
      </trkpt>
      <trkpt lat="44.749352009966969" lon="2.904253005981445">
        <ele>1165.26</ele>
        <time>2025-04-25T09:47:08Z</time>
      </trkpt>
      <trkpt lat="44.749801028519869" lon="2.903802981600165">
        <ele>1163.8099999999999</ele>
        <time>2025-04-25T09:47:11Z</time>
      </trkpt>
      <trkpt lat="44.749961039051414" lon="2.903717989102006">
        <ele>1163.3299999999999</ele>
        <time>2025-04-25T09:47:12Z</time>
      </trkpt>
      <trkpt lat="44.750125994905829" lon="2.903630984947085">
        <ele>1162.8499999999999</ele>
        <time>2025-04-25T09:47:13Z</time>
      </trkpt>
      <trkpt lat="44.7502760309726" lon="2.903609024360776">
        <ele>1162.3699999999999</ele>
        <time>2025-04-25T09:47:14Z</time>
      </trkpt>
      <trkpt lat="44.750446015968919" lon="2.903648000210524">
        <ele>1161.8900000000001</ele>
        <time>2025-04-25T09:47:15Z</time>
      </trkpt>
      <trkpt lat="44.750598985701799" lon="2.903700973838568">
        <ele>1161.4100000000001</ele>
        <time>2025-04-25T09:47:16Z</time>
      </trkpt>
      <trkpt lat="44.750752961263061" lon="2.903794012963772">
        <ele>1160.9300000000001</ele>
        <time>2025-04-25T09:47:17Z</time>
      </trkpt>
      <trkpt lat="44.751950986683369" lon="2.904580989852548">
        <ele>1155.6400000000001</ele>
        <time>2025-04-25T09:47:25Z</time>
      </trkpt>
      <trkpt lat="44.752106973901391" lon="2.904603034257889">
        <ele>1154.2</ele>
        <time>2025-04-25T09:47:26Z</time>
      </trkpt>
      <trkpt lat="44.7522740252316" lon="2.904603034257889">
        <ele>1152.76</ele>
        <time>2025-04-25T09:47:27Z</time>
      </trkpt>
      <trkpt lat="44.753829035907984" lon="2.904184022918344">
        <ele>1142.6600000000001</ele>
        <time>2025-04-25T09:47:35Z</time>
      </trkpt>
      <trkpt lat="44.754538983106613" lon="2.903945976868272">
        <ele>1140.26</ele>
        <time>2025-04-25T09:47:39Z</time>
      </trkpt>
      <trkpt lat="44.754676027223468" lon="2.90394002571702">
        <ele>1139.78</ele>
        <time>2025-04-25T09:47:40Z</time>
      </trkpt>
      <trkpt lat="44.754790021106601" lon="2.903934996575117">
        <ele>1140.26</ele>
        <time>2025-04-25T09:47:41Z</time>
      </trkpt>
      <trkpt lat="44.75528203882277" lon="2.904010014608502">
        <ele>1142.1800000000001</ele>
        <time>2025-04-25T09:47:45Z</time>
      </trkpt>
      <trkpt lat="44.755408018827438" lon="2.90396198630333">
        <ele>1142.6600000000001</ele>
        <time>2025-04-25T09:47:46Z</time>
      </trkpt>
      <trkpt lat="44.755532993003726" lon="2.903885040432215">
        <ele>1143.6300000000001</ele>
        <time>2025-04-25T09:47:47Z</time>
      </trkpt>
      <trkpt lat="44.755652016028762" lon="2.903771968558431">
        <ele>1144.1099999999999</ele>
        <time>2025-04-25T09:47:48Z</time>
      </trkpt>
      <trkpt lat="44.755767015740275" lon="2.90361899882555">
        <ele>1145.0699999999999</ele>
        <time>2025-04-25T09:47:49Z</time>
      </trkpt>
      <trkpt lat="44.756743004545569" lon="2.902061976492405">
        <ele>1150.8399999999999</ele>
        <time>2025-04-25T09:47:57Z</time>
      </trkpt>
      <trkpt lat="44.757047016173601" lon="2.901426963508129">
        <ele>1150.8399999999999</ele>
        <time>2025-04-25T09:48:00Z</time>
      </trkpt>
      <trkpt lat="44.757135026156902" lon="2.901243986561894">
        <ele>1150.3499999999999</ele>
        <time>2025-04-25T09:48:01Z</time>
      </trkpt>
      <trkpt lat="44.757258994504809" lon="2.901128986850381">
        <ele>1150.3499999999999</ele>
        <time>2025-04-25T09:48:02Z</time>
      </trkpt>
      <trkpt lat="44.757384974509478" lon="2.901023039594293">
        <ele>1150.3499999999999</ele>
        <time>2025-04-25T09:48:03Z</time>
      </trkpt>
      <trkpt lat="44.757528975605965" lon="2.900982974097133">
        <ele>1149.8699999999999</ele>
        <time>2025-04-25T09:48:04Z</time>
      </trkpt>
      <trkpt lat="44.757690997794271" lon="2.900968976318836">
        <ele>1149.8699999999999</ele>
        <time>2025-04-25T09:48:05Z</time>
      </trkpt>
      <trkpt lat="44.75786198861897" lon="2.90095497854054">
        <ele>1149.8699999999999</ele>
        <time>2025-04-25T09:48:06Z</time>
      </trkpt>
      <trkpt lat="44.758041026070714" lon="2.900965036824346">
        <ele>1150.3499999999999</ele>
        <time>2025-04-25T09:48:07Z</time>
      </trkpt>
      <trkpt lat="44.75898097269237" lon="2.901119012385607">
        <ele>1151.3199999999999</ele>
        <time>2025-04-25T09:48:12Z</time>
      </trkpt>
      <trkpt lat="44.759154981002212" lon="2.901218002662063">
        <ele>1151.8</ele>
        <time>2025-04-25T09:48:13Z</time>
      </trkpt>
      <trkpt lat="44.75932396017015" lon="2.901317998766899">
        <ele>1151.8</ele>
        <time>2025-04-25T09:48:14Z</time>
      </trkpt>
      <trkpt lat="44.760097023099661" lon="2.901911018416286">
        <ele>1152.76</ele>
        <time>2025-04-25T09:48:19Z</time>
      </trkpt>
      <trkpt lat="44.760220991447568" lon="2.901981007307768">
        <ele>1152.76</ele>
        <time>2025-04-25T09:48:20Z</time>
      </trkpt>
      <trkpt lat="44.760343031957746" lon="2.901969021186233">
        <ele>1152.76</ele>
        <time>2025-04-25T09:48:21Z</time>
      </trkpt>
      <trkpt lat="44.760476974770427" lon="2.90192199870944">
        <ele>1152.76</ele>
        <time>2025-04-25T09:48:22Z</time>
      </trkpt>
      <trkpt lat="44.760621981695294" lon="2.901871036738157">
        <ele>1152.76</ele>
        <time>2025-04-25T09:48:23Z</time>
      </trkpt>
      <trkpt lat="44.761217013001442" lon="2.901595020666719">
        <ele>1152.76</ele>
        <time>2025-04-25T09:48:27Z</time>
      </trkpt>
      <trkpt lat="44.761347016319633" lon="2.901465017348528">
        <ele>1152.28</ele>
        <time>2025-04-25T09:48:28Z</time>
      </trkpt>
      <trkpt lat="44.761478025466204" lon="2.901334008201957">
        <ele>1152.28</ele>
        <time>2025-04-25T09:48:29Z</time>
      </trkpt>
      <trkpt lat="44.761586990207434" lon="2.901163017377257">
        <ele>1151.8</ele>
        <time>2025-04-25T09:48:30Z</time>
      </trkpt>
      <trkpt lat="44.761684974655509" lon="2.900977022945881">
        <ele>1151.8</ele>
        <time>2025-04-25T09:48:31Z</time>
      </trkpt>
      <trkpt lat="44.761782959103584" lon="2.900770995765925">
        <ele>1151.3199999999999</ele>
        <time>2025-04-25T09:48:32Z</time>
      </trkpt>
      <trkpt lat="44.761871974915266" lon="2.900543007999659">
        <ele>1151.3199999999999</ele>
        <time>2025-04-25T09:48:33Z</time>
      </trkpt>
      <trkpt lat="44.762139022350311" lon="2.899853009730578">
        <ele>1150.8399999999999</ele>
        <time>2025-04-25T09:48:36Z</time>
      </trkpt>
      <trkpt lat="44.762251004576683" lon="2.89968503639102">
        <ele>1150.3499999999999</ele>
        <time>2025-04-25T09:48:37Z</time>
      </trkpt>
      <trkpt lat="44.762388970702887" lon="2.899517985060811">
        <ele>1150.3499999999999</ele>
        <time>2025-04-25T09:48:38Z</time>
      </trkpt>
      <trkpt lat="44.762920970097184" lon="2.898854976519942">
        <ele>1149.8699999999999</ele>
        <time>2025-04-25T09:48:42Z</time>
      </trkpt>
      <trkpt lat="44.763018032535911" lon="2.898661019280553">
        <ele>1149.8699999999999</ele>
        <time>2025-04-25T09:48:43Z</time>
      </trkpt>
      <trkpt lat="44.763107970356941" lon="2.898480976000428">
        <ele>1149.3900000000001</ele>
        <time>2025-04-25T09:48:44Z</time>
      </trkpt>
      <trkpt lat="44.763131020590663" lon="2.898233039304614">
        <ele>1149.3900000000001</ele>
        <time>2025-04-25T09:48:45Z</time>
      </trkpt>
      <trkpt lat="44.763153987005353" lon="2.897985018789768">
        <ele>1149.3900000000001</ele>
        <time>2025-04-25T09:48:46Z</time>
      </trkpt>
      <trkpt lat="44.763177959248424" lon="2.897727023810148">
        <ele>1149.3900000000001</ele>
        <time>2025-04-25T09:48:47Z</time>
      </trkpt>
      <trkpt lat="44.763482976704836" lon="2.895383024588227">
        <ele>1146.51</ele>
        <time>2025-04-25T09:48:55Z</time>
      </trkpt>
      <trkpt lat="44.764022016897798" lon="2.893691975623369">
        <ele>1146.51</ele>
        <time>2025-04-25T09:49:01Z</time>
      </trkpt>
      <trkpt lat="44.764742022380233" lon="2.891098028048873">
        <ele>1146.03</ele>
        <time>2025-04-25T09:49:10Z</time>
      </trkpt>
      <trkpt lat="44.765864023938775" lon="2.887575030326843">
        <ele>1136.4200000000001</ele>
        <time>2025-04-25T09:49:22Z</time>
      </trkpt>
      <trkpt lat="44.766706991940737" lon="2.886191010475159">
        <ele>1128.73</ele>
        <time>2025-04-25T09:49:28Z</time>
      </trkpt>
      <trkpt lat="44.767352985218167" lon="2.88548500277102">
        <ele>1122.48</ele>
        <time>2025-04-25T09:49:33Z</time>
      </trkpt>
      <trkpt lat="44.767536967992783" lon="2.885334966704249">
        <ele>1118.6300000000001</ele>
        <time>2025-04-25T09:49:37Z</time>
      </trkpt>
      <trkpt lat="44.767883978784084" lon="2.885074960067868">
        <ele>1112.3800000000001</ele>
        <time>2025-04-25T09:49:46Z</time>
      </trkpt>
      <trkpt lat="44.768579006195068" lon="2.884380016475916">
        <ele>1107.5799999999999</ele>
        <time>2025-04-25T09:49:54Z</time>
      </trkpt>
      <trkpt lat="44.76864698342979" lon="2.884306004270911">
        <ele>1107.0999999999999</ele>
        <time>2025-04-25T09:49:55Z</time>
      </trkpt>
      <trkpt lat="44.768694005906582" lon="2.884254958480597">
        <ele>1106.6099999999999</ele>
        <time>2025-04-25T09:49:56Z</time>
      </trkpt>
      <trkpt lat="44.768722001463175" lon="2.884224029257894">
        <ele>1106.6099999999999</ele>
        <time>2025-04-25T09:49:57Z</time>
      </trkpt>
      <trkpt lat="44.768743040040135" lon="2.884200979024172">
        <ele>1106.1300000000001</ele>
        <time>2025-04-25T09:49:58Z</time>
      </trkpt>
      <trkpt lat="44.768762988969684" lon="2.884179018437862">
        <ele>1105.6500000000001</ele>
        <time>2025-04-25T09:49:59Z</time>
      </trkpt>
      <trkpt lat="44.768772963434458" lon="2.884168960154057">
        <ele>1105.6500000000001</ele>
        <time>2025-04-25T09:50:00Z</time>
      </trkpt>
      <trkpt lat="44.768835995346308" lon="2.884159991517663">
        <ele>1105.1700000000001</ele>
        <time>2025-04-25T09:50:01Z</time>
      </trkpt>
      <trkpt lat="44.768874971196055" lon="2.88415496237576">
        <ele>1104.6900000000001</ele>
        <time>2025-04-25T09:50:02Z</time>
      </trkpt>
      <trkpt lat="44.76890497840941" lon="2.88415102288127">
        <ele>1104.6900000000001</ele>
        <time>2025-04-25T09:50:03Z</time>
      </trkpt>
      <trkpt lat="44.768930962309241" lon="2.884148005396128">
        <ele>1104.21</ele>
        <time>2025-04-25T09:50:04Z</time>
      </trkpt>
      <trkpt lat="44.768972033634782" lon="2.884141970425844">
        <ele>1104.21</ele>
        <time>2025-04-25T09:50:05Z</time>
      </trkpt>
      <trkpt lat="44.769011009484529" lon="2.884137025102973">
        <ele>1103.73</ele>
        <time>2025-04-25T09:50:06Z</time>
      </trkpt>
      <trkpt lat="44.769094996154308" lon="2.884125960990787">
        <ele>1103.73</ele>
        <time>2025-04-25T09:50:07Z</time>
      </trkpt>
      <trkpt lat="44.76912098005414" lon="2.884106012061238">
        <ele>1103.73</ele>
        <time>2025-04-25T09:50:08Z</time>
      </trkpt>
      <trkpt lat="44.769303034991026" lon="2.883897973224521">
        <ele>1103.25</ele>
        <time>2025-04-25T09:50:11Z</time>
      </trkpt>
      <trkpt lat="44.76944200694561" lon="2.883761012926698">
        <ele>1103.25</ele>
        <time>2025-04-25T09:50:13Z</time>
      </trkpt>
      <trkpt lat="44.76980603300035" lon="2.883532019332051">
        <ele>1103.73</ele>
        <time>2025-04-25T09:50:17Z</time>
      </trkpt>
      <trkpt lat="44.769881973043084" lon="2.883483991026878">
        <ele>1103.73</ele>
        <time>2025-04-25T09:50:18Z</time>
      </trkpt>
      <trkpt lat="44.770266031846404" lon="2.883094986900687">
        <ele>1103.73</ele>
        <time>2025-04-25T09:50:23Z</time>
      </trkpt>
      <trkpt lat="44.770607007667422" lon="2.882810002192855">
        <ele>1102.29</ele>
        <time>2025-04-25T09:50:30Z</time>
      </trkpt>
      <trkpt lat="44.770614970475435" lon="2.882793992757797">
        <ele>1102.29</ele>
        <time>2025-04-25T09:50:31Z</time>
      </trkpt>
      <trkpt lat="44.770639026537538" lon="2.882751999422908">
        <ele>1102.29</ele>
        <time>2025-04-25T09:50:40Z</time>
      </trkpt>
      <trkpt lat="44.770598039031029" lon="2.882751999422908">
        <ele>1102.29</ele>
        <time>2025-04-25T09:50:41Z</time>
      </trkpt>
      <trkpt lat="44.770526038482785" lon="2.882751999422908">
        <ele>1102.29</ele>
        <time>2025-04-25T09:50:42Z</time>
      </trkpt>
      <trkpt lat="44.76961400359869" lon="2.882751999422908">
        <ele>1099.8900000000001</ele>
        <time>2025-04-25T09:50:51Z</time>
      </trkpt>
      <trkpt lat="44.769304040819407" lon="2.88275501690805">
        <ele>1098.9200000000001</ele>
        <time>2025-04-25T09:50:54Z</time>
      </trkpt>
      <trkpt lat="44.769198009744287" lon="2.882757028564811">
        <ele>1097.96</ele>
        <time>2025-04-25T09:50:55Z</time>
      </trkpt>
      <trkpt lat="44.767866963520646" lon="2.882772032171488">
        <ele>1091.71</ele>
        <time>2025-04-25T09:51:06Z</time>
      </trkpt>
      <trkpt lat="44.766797013580799" lon="2.88275501690805">
        <ele>1089.79</ele>
        <time>2025-04-25T09:51:13Z</time>
      </trkpt>
      <trkpt lat="44.76508098654449" lon="2.882859958335757">
        <ele>1084.5</ele>
        <time>2025-04-25T09:51:22Z</time>
      </trkpt>
      <trkpt lat="44.762444961816072" lon="2.883231025189161">
        <ele>1084.99</ele>
        <time>2025-04-25T09:51:34Z</time>
      </trkpt>
      <trkpt lat="44.76076296530664" lon="2.883449960500002">
        <ele>1085.95</ele>
        <time>2025-04-25T09:51:41Z</time>
      </trkpt>
      <trkpt lat="44.760516034439206" lon="2.88340101018548">
        <ele>1085.95</ele>
        <time>2025-04-25T09:51:42Z</time>
      </trkpt>
      <trkpt lat="44.760283017531037" lon="2.883299002423883">
        <ele>1086.4300000000001</ele>
        <time>2025-04-25T09:51:43Z</time>
      </trkpt>
      <trkpt lat="44.760048994794488" lon="2.883176039904356">
        <ele>1086.4300000000001</ele>
        <time>2025-04-25T09:51:44Z</time>
      </trkpt>
      <trkpt lat="44.759815977886319" lon="2.883044024929404">
        <ele>1086.4300000000001</ele>
        <time>2025-04-25T09:51:45Z</time>
      </trkpt>
      <trkpt lat="44.757267041131854" lon="2.881536958739162">
        <ele>1090.27</ele>
        <time>2025-04-25T09:51:56Z</time>
      </trkpt>
      <trkpt lat="44.757073000073433" lon="2.88133998401463">
        <ele>1091.71</ele>
        <time>2025-04-25T09:51:57Z</time>
      </trkpt>
      <trkpt lat="44.756902009248734" lon="2.881121970713139">
        <ele>1092.2</ele>
        <time>2025-04-25T09:51:58Z</time>
      </trkpt>
      <trkpt lat="44.756761025637388" lon="2.88086699321866">
        <ele>1093.1600000000001</ele>
        <time>2025-04-25T09:51:59Z</time>
      </trkpt>
      <trkpt lat="44.756625993177295" lon="2.880613021552563">
        <ele>1093.6400000000001</ele>
        <time>2025-04-25T09:52:00Z</time>
      </trkpt>
      <trkpt lat="44.756498001515865" lon="2.88034999743104">
        <ele>1094.1199999999999</ele>
        <time>2025-04-25T09:52:01Z</time>
      </trkpt>
      <trkpt lat="44.756398005411029" lon="2.880066018551588">
        <ele>1095.0799999999999</ele>
        <time>2025-04-25T09:52:02Z</time>
      </trkpt>
      <trkpt lat="44.756340002641082" lon="2.879752032458782">
        <ele>1096.52</ele>
        <time>2025-04-25T09:52:03Z</time>
      </trkpt>
      <trkpt lat="44.756287029013038" lon="2.879443997517228">
        <ele>1097.48</ele>
        <time>2025-04-25T09:52:04Z</time>
      </trkpt>
      <trkpt lat="44.756256015971303" lon="2.879134034737945">
        <ele>1098.9200000000001</ele>
        <time>2025-04-25T09:52:05Z</time>
      </trkpt>
      <trkpt lat="44.755877992138267" lon="2.875742968171835">
        <ele>1111.9000000000001</ele>
        <time>2025-04-25T09:52:16Z</time>
      </trkpt>
      <trkpt lat="44.755824012681842" lon="2.87547399289906">
        <ele>1112.8599999999999</ele>
        <time>2025-04-25T09:52:17Z</time>
      </trkpt>
      <trkpt lat="44.755740026012063" lon="2.875249022617936">
        <ele>1113.3399999999999</ele>
        <time>2025-04-25T09:52:18Z</time>
      </trkpt>
      <trkpt lat="44.755650004372001" lon="2.87504299543798">
        <ele>1114.3099999999999</ele>
        <time>2025-04-25T09:52:19Z</time>
      </trkpt>
      <trkpt lat="44.755568029358983" lon="2.874853983521462">
        <ele>1114.79</ele>
        <time>2025-04-25T09:52:20Z</time>
      </trkpt>
      <trkpt lat="44.755503991618752" lon="2.874706964939833">
        <ele>1115.27</ele>
        <time>2025-04-25T09:52:21Z</time>
      </trkpt>
      <trkpt lat="44.755457974970341" lon="2.874601017683744">
        <ele>1115.75</ele>
        <time>2025-04-25T09:52:22Z</time>
      </trkpt>
      <trkpt lat="44.755469039082527" lon="2.874389961361885">
        <ele>1116.23</ele>
        <time>2025-04-25T09:52:23Z</time>
      </trkpt>
      <trkpt lat="44.755536010488868" lon="2.87431301549077">
        <ele>1116.71</ele>
        <time>2025-04-25T09:52:24Z</time>
      </trkpt>
      <trkpt lat="44.755615973845124" lon="2.874218970537186">
        <ele>1117.1900000000001</ele>
        <time>2025-04-25T09:52:25Z</time>
      </trkpt>
      <trkpt lat="44.755681017413735" lon="2.87407698109746">
        <ele>1117.6700000000001</ele>
        <time>2025-04-25T09:52:26Z</time>
      </trkpt>
      <trkpt lat="44.755747988820076" lon="2.873889980837703">
        <ele>1117.6700000000001</ele>
        <time>2025-04-25T09:52:27Z</time>
      </trkpt>
      <trkpt lat="44.755766009911895" lon="2.873681019991636">
        <ele>1117.6700000000001</ele>
        <time>2025-04-25T09:52:28Z</time>
      </trkpt>
      <trkpt lat="44.755785958841443" lon="2.873446997255087">
        <ele>1117.6700000000001</ele>
        <time>2025-04-25T09:52:29Z</time>
      </trkpt>
      <trkpt lat="44.755806997418404" lon="2.873193025588989">
        <ele>1117.6700000000001</ele>
        <time>2025-04-25T09:52:30Z</time>
      </trkpt>
      <trkpt lat="44.756012018769979" lon="2.870798986405134">
        <ele>1113.8199999999999</ele>
        <time>2025-04-25T09:52:38Z</time>
      </trkpt>
      <trkpt lat="44.756360035389662" lon="2.866714987903833">
        <ele>1109.02</ele>
        <time>2025-04-25T09:52:51Z</time>
      </trkpt>
      <trkpt lat="44.756489032879472" lon="2.865715026855469">
        <ele>1109.02</ele>
        <time>2025-04-25T09:52:55Z</time>
      </trkpt>
      <trkpt lat="44.756562039256096" lon="2.865487039089203">
        <ele>1108.54</ele>
        <time>2025-04-25T09:52:56Z</time>
      </trkpt>
      <trkpt lat="44.756662035360932" lon="2.865276988595724">
        <ele>1108.54</ele>
        <time>2025-04-25T09:52:57Z</time>
      </trkpt>
      <trkpt lat="44.756778040900826" lon="2.865067021921277">
        <ele>1108.0599999999999</ele>
        <time>2025-04-25T09:52:58Z</time>
      </trkpt>
      <trkpt lat="44.756898991763592" lon="2.864852026104927">
        <ele>1108.0599999999999</ele>
        <time>2025-04-25T09:52:59Z</time>
      </trkpt>
      <trkpt lat="44.75764699280262" lon="2.863457025960088">
        <ele>1106.1300000000001</ele>
        <time>2025-04-25T09:53:05Z</time>
      </trkpt>
      <trkpt lat="44.757727039977908" lon="2.863175980746746">
        <ele>1105.6500000000001</ele>
        <time>2025-04-25T09:53:06Z</time>
      </trkpt>
      <trkpt lat="44.757807003334165" lon="2.862895019352436">
        <ele>1105.6500000000001</ele>
        <time>2025-04-25T09:53:07Z</time>
      </trkpt>
      <trkpt lat="44.758362974971533" lon="2.859544018283486">
        <ele>1100.8499999999999</ele>
        <time>2025-04-25T09:53:18Z</time>
      </trkpt>
      <trkpt lat="44.758532959967852" lon="2.857103040441871">
        <ele>1098.4400000000001</ele>
        <time>2025-04-25T09:53:26Z</time>
      </trkpt>
      <trkpt lat="44.758542012423277" lon="2.856809003278613">
        <ele>1097.48</ele>
        <time>2025-04-25T09:53:27Z</time>
      </trkpt>
      <trkpt lat="44.758604038506746" lon="2.856532987207174">
        <ele>1097.48</ele>
        <time>2025-04-25T09:53:28Z</time>
      </trkpt>
      <trkpt lat="44.758693976327777" lon="2.856272980570793">
        <ele>1097</ele>
        <time>2025-04-25T09:53:29Z</time>
      </trkpt>
      <trkpt lat="44.759073005989194" lon="2.855228008702397">
        <ele>1095.0799999999999</ele>
        <time>2025-04-25T09:53:33Z</time>
      </trkpt>
      <trkpt lat="44.759132014587522" lon="2.8549550101161">
        <ele>1094.5999999999999</ele>
        <time>2025-04-25T09:53:34Z</time>
      </trkpt>
      <trkpt lat="44.759168978780508" lon="2.854671031236649">
        <ele>1093.6400000000001</ele>
        <time>2025-04-25T09:53:35Z</time>
      </trkpt>
      <trkpt lat="44.759606011211872" lon="2.851340984925628">
        <ele>1086.9100000000001</ele>
        <time>2025-04-25T09:53:46Z</time>
      </trkpt>
      <trkpt lat="44.759802985936403" lon="2.850276986137033">
        <ele>1084.99</ele>
        <time>2025-04-25T09:53:50Z</time>
      </trkpt>
      <trkpt lat="44.759870963171124" lon="2.850044975057244">
        <ele>1084.99</ele>
        <time>2025-04-25T09:53:51Z</time>
      </trkpt>
      <trkpt lat="44.759981017559767" lon="2.849875995889306">
        <ele>1084.5</ele>
        <time>2025-04-25T09:53:52Z</time>
      </trkpt>
      <trkpt lat="44.760530032217503" lon="2.84913101233542">
        <ele>1082.5799999999999</ele>
        <time>2025-04-25T09:53:58Z</time>
      </trkpt>
      <trkpt lat="44.760624999180436" lon="2.849049959331751">
        <ele>1082.0999999999999</ele>
        <time>2025-04-25T09:53:59Z</time>
      </trkpt>
      <trkpt lat="44.760809987783432" lon="2.848891038447619">
        <ele>1082.0999999999999</ele>
        <time>2025-04-25T09:54:01Z</time>
      </trkpt>
      <trkpt lat="44.760918030515313" lon="2.848854996263981">
        <ele>1081.6199999999999</ele>
        <time>2025-04-25T09:54:02Z</time>
      </trkpt>
      <trkpt lat="44.761433014646173" lon="2.848762040957809">
        <ele>1081.6199999999999</ele>
        <time>2025-04-25T09:54:07Z</time>
      </trkpt>
      <trkpt lat="44.76203097961843" lon="2.84874401986599">
        <ele>1080.1800000000001</ele>
        <time>2025-04-25T09:54:12Z</time>
      </trkpt>
      <trkpt lat="44.762099040672183" lon="2.848742008209229">
        <ele>1080.1800000000001</ele>
        <time>2025-04-25T09:54:13Z</time>
      </trkpt>
      <trkpt lat="44.762199958786368" lon="2.848651986569166">
        <ele>1079.7</ele>
        <time>2025-04-25T09:54:14Z</time>
      </trkpt>
      <trkpt lat="44.762275982648134" lon="2.848585015162826">
        <ele>1079.22</ele>
        <time>2025-04-25T09:54:15Z</time>
      </trkpt>
      <trkpt lat="44.76235100068152" lon="2.848512008786202">
        <ele>1078.74</ele>
        <time>2025-04-25T09:54:16Z</time>
      </trkpt>
      <trkpt lat="44.762486033141613" lon="2.848333977162838">
        <ele>1077.78</ele>
        <time>2025-04-25T09:54:18Z</time>
      </trkpt>
      <trkpt lat="44.762530960142612" lon="2.848232975229621">
        <ele>1077.29</ele>
        <time>2025-04-25T09:54:19Z</time>
      </trkpt>
      <trkpt lat="44.762572031468153" lon="2.848134990781546">
        <ele>1076.8099999999999</ele>
        <time>2025-04-25T09:54:20Z</time>
      </trkpt>
      <trkpt lat="44.762582005932927" lon="2.848028037697077">
        <ele>1076.8099999999999</ele>
        <time>2025-04-25T09:54:21Z</time>
      </trkpt>
      <trkpt lat="44.762591980397701" lon="2.847918989136815">
        <ele>1076.8099999999999</ele>
        <time>2025-04-25T09:54:22Z</time>
      </trkpt>
      <trkpt lat="44.762564990669489" lon="2.847795020788908">
        <ele>1076.8099999999999</ele>
        <time>2025-04-25T09:54:23Z</time>
      </trkpt>
      <trkpt lat="44.762549987062812" lon="2.847734000533819">
        <ele>1076.8099999999999</ele>
        <time>2025-04-25T09:54:24Z</time>
      </trkpt>
      <trkpt lat="44.762561973184347" lon="2.847569966688752">
        <ele>1076.8099999999999</ele>
        <time>2025-04-25T09:54:25Z</time>
      </trkpt>
      <trkpt lat="44.762570019811392" lon="2.84747801721096">
        <ele>1075.8499999999999</ele>
        <time>2025-04-25T09:54:26Z</time>
      </trkpt>
      <trkpt lat="44.762608995661139" lon="2.847404005005956">
        <ele>1075.3699999999999</ele>
        <time>2025-04-25T09:54:27Z</time>
      </trkpt>
      <trkpt lat="44.762678984552622" lon="2.847309038043022">
        <ele>1074.8900000000001</ele>
        <time>2025-04-25T09:54:28Z</time>
      </trkpt>
      <trkpt lat="44.762755008414388" lon="2.847205018624663">
        <ele>1074.4100000000001</ele>
        <time>2025-04-25T09:54:29Z</time>
      </trkpt>
      <trkpt lat="44.762834971770644" lon="2.847096975892782">
        <ele>1073.9300000000001</ele>
        <time>2025-04-25T09:54:30Z</time>
      </trkpt>
      <trkpt lat="44.762904038652778" lon="2.846974013373256">
        <ele>1073.45</ele>
        <time>2025-04-25T09:54:31Z</time>
      </trkpt>
      <trkpt lat="44.763027001172304" lon="2.846694979816675">
        <ele>1073.45</ele>
        <time>2025-04-25T09:54:33Z</time>
      </trkpt>
      <trkpt lat="44.763566041365266" lon="2.845253041014075">
        <ele>1069.5999999999999</ele>
        <time>2025-04-25T09:54:42Z</time>
      </trkpt>
      <trkpt lat="44.763649022206664" lon="2.845121026039124">
        <ele>1069.1199999999999</ele>
        <time>2025-04-25T09:54:43Z</time>
      </trkpt>
      <trkpt lat="44.764690976589918" lon="2.843549000099301">
        <ele>1060.47</ele>
        <time>2025-04-25T09:54:53Z</time>
      </trkpt>
      <trkpt lat="44.765565963461995" lon="2.842204961925745">
        <ele>1051.3399999999999</ele>
        <time>2025-04-25T09:55:01Z</time>
      </trkpt>
      <trkpt lat="44.765608962625265" lon="2.842017039656639">
        <ele>1049.9000000000001</ele>
        <time>2025-04-25T09:55:02Z</time>
      </trkpt>
      <trkpt lat="44.765635030344129" lon="2.841821992769837">
        <ele>1048.45</ele>
        <time>2025-04-25T09:55:03Z</time>
      </trkpt>
      <trkpt lat="44.76559798233211" lon="2.841629963368177">
        <ele>1046.53</ele>
        <time>2025-04-25T09:55:04Z</time>
      </trkpt>
      <trkpt lat="44.765542997047305" lon="2.841417985036969">
        <ele>1045.0899999999999</ele>
        <time>2025-04-25T09:55:05Z</time>
      </trkpt>
      <trkpt lat="44.765486000105739" lon="2.84120500087738">
        <ele>1043.6500000000001</ele>
        <time>2025-04-25T09:55:06Z</time>
      </trkpt>
      <trkpt lat="44.765386004000902" lon="2.841028980910778">
        <ele>1042.21</ele>
        <time>2025-04-25T09:55:07Z</time>
      </trkpt>
      <trkpt lat="44.765276033431292" lon="2.840887997299433">
        <ele>1040.76</ele>
        <time>2025-04-25T09:55:08Z</time>
      </trkpt>
      <trkpt lat="44.765150975435972" lon="2.840820020064712">
        <ele>1039.3199999999999</ele>
        <time>2025-04-25T09:55:09Z</time>
      </trkpt>
      <trkpt lat="44.765044022351503" lon="2.840762017294765">
        <ele>1037.8800000000001</ele>
        <time>2025-04-25T09:55:10Z</time>
      </trkpt>
      <trkpt lat="44.764941008761525" lon="2.840804010629654">
        <ele>1036.4400000000001</ele>
        <time>2025-04-25T09:55:11Z</time>
      </trkpt>
      <trkpt lat="44.76480295881629" lon="2.840866958722472">
        <ele>1035</ele>
        <time>2025-04-25T09:55:12Z</time>
      </trkpt>
      <trkpt lat="44.764708997681737" lon="2.840976007282734">
        <ele>1033.0699999999999</ele>
        <time>2025-04-25T09:55:13Z</time>
      </trkpt>
      <trkpt lat="44.764587040990591" lon="2.84111799672246">
        <ele>1031.6300000000001</ele>
        <time>2025-04-25T09:55:14Z</time>
      </trkpt>
      <trkpt lat="44.764312030747533" lon="2.84144002944231">
        <ele>1028.27</ele>
        <time>2025-04-25T09:55:16Z</time>
      </trkpt>
      <trkpt lat="44.764126958325505" lon="2.841538013890386">
        <ele>1026.8299999999999</ele>
        <time>2025-04-25T09:55:17Z</time>
      </trkpt>
      <trkpt lat="44.763944987207651" lon="2.841617977246642">
        <ele>1025.8599999999999</ele>
        <time>2025-04-25T09:55:18Z</time>
      </trkpt>
      <trkpt lat="44.763738960027695" lon="2.841643039137125">
        <ele>1024.4200000000001</ele>
        <time>2025-04-25T09:55:19Z</time>
      </trkpt>
      <trkpt lat="44.763534022495151" lon="2.841668017208576">
        <ele>1023.46</ele>
        <time>2025-04-25T09:55:20Z</time>
      </trkpt>
      <trkpt lat="44.761210978031158" lon="2.841947972774506">
        <ele>1008.5599999999999</ele>
        <time>2025-04-25T09:55:31Z</time>
      </trkpt>
      <trkpt lat="44.760672021657228" lon="2.841984014958143">
        <ele>1003.27</ele>
        <time>2025-04-25T09:55:34Z</time>
      </trkpt>
      <trkpt lat="44.760511005297303" lon="2.841940009966493">
        <ele>1001.83</ele>
        <time>2025-04-25T09:55:35Z</time>
      </trkpt>
      <trkpt lat="44.760367004200816" lon="2.841829033568502">
        <ele>999.90999999999997</ele>
        <time>2025-04-25T09:55:36Z</time>
      </trkpt>
      <trkpt lat="44.760227026417851" lon="2.841715961694717">
        <ele>997.99000000000001</ele>
        <time>2025-04-25T09:55:37Z</time>
      </trkpt>
      <trkpt lat="44.760120995342731" lon="2.841536002233625">
        <ele>996.53999999999996</ele>
        <time>2025-04-25T09:55:38Z</time>
      </trkpt>
      <trkpt lat="44.76001001894474" lon="2.841349001973867">
        <ele>995.10000000000002</ele>
        <time>2025-04-25T09:55:39Z</time>
      </trkpt>
      <trkpt lat="44.759925026446581" lon="2.841123025864363">
        <ele>993.65999999999997</ele>
        <time>2025-04-25T09:55:40Z</time>
      </trkpt>
      <trkpt lat="44.759871968999505" lon="2.840877017006278">
        <ele>992.22000000000003</ele>
        <time>2025-04-25T09:55:41Z</time>
      </trkpt>
      <trkpt lat="44.759854031726718" lon="2.8406030125916">
        <ele>991.25999999999999</ele>
        <time>2025-04-25T09:55:42Z</time>
      </trkpt>
      <trkpt lat="44.759868029505014" lon="2.840325990691781">
        <ele>990.29999999999995</ele>
        <time>2025-04-25T09:55:43Z</time>
      </trkpt>
      <trkpt lat="44.75988102145493" lon="2.840044023469091">
        <ele>989.33000000000004</ele>
        <time>2025-04-25T09:55:44Z</time>
      </trkpt>
      <trkpt lat="44.759895019233227" lon="2.839759038761258">
        <ele>988.37</ele>
        <time>2025-04-25T09:55:45Z</time>
      </trkpt>
      <trkpt lat="44.759882027283311" lon="2.838885979726911">
        <ele>986.92999999999995</ele>
        <time>2025-04-25T09:55:48Z</time>
      </trkpt>
      <trkpt lat="44.759861994534731" lon="2.838590014725924">
        <ele>986.45000000000005</ele>
        <time>2025-04-25T09:55:49Z</time>
      </trkpt>
      <trkpt lat="44.759797034785151" lon="2.838301006704569">
        <ele>986.45000000000005</ele>
        <time>2025-04-25T09:55:50Z</time>
      </trkpt>
      <trkpt lat="44.759507020935416" lon="2.837132988497615">
        <ele>985.49000000000001</ele>
        <time>2025-04-25T09:55:54Z</time>
      </trkpt>
      <trkpt lat="44.759398978203535" lon="2.83686300739646">
        <ele>985.00999999999999</ele>
        <time>2025-04-25T09:55:55Z</time>
      </trkpt>
      <trkpt lat="44.758707974106073" lon="2.834987975656986">
        <ele>983.57000000000005</ele>
        <time>2025-04-25T09:56:02Z</time>
      </trkpt>
      <trkpt lat="44.758662963286042" lon="2.834708020091057">
        <ele>983.57000000000005</ele>
        <time>2025-04-25T09:56:03Z</time>
      </trkpt>
      <trkpt lat="44.758624993264675" lon="2.83441599458456">
        <ele>983.57000000000005</ele>
        <time>2025-04-25T09:56:04Z</time>
      </trkpt>
      <trkpt lat="44.758625999093056" lon="2.832559989765286">
        <ele>986.92999999999995</ele>
        <time>2025-04-25T09:56:10Z</time>
      </trkpt>
      <trkpt lat="44.758686013519764" lon="2.831766977906227">
        <ele>988.85000000000002</ele>
        <time>2025-04-25T09:56:13Z</time>
      </trkpt>
      <trkpt lat="44.758668998256326" lon="2.831547958776355">
        <ele>989.33000000000004</ele>
        <time>2025-04-25T09:56:14Z</time>
      </trkpt>
      <trkpt lat="44.758596997708082" lon="2.831365987658501">
        <ele>989.80999999999995</ele>
        <time>2025-04-25T09:56:15Z</time>
      </trkpt>
      <trkpt lat="44.758513011038303" lon="2.831189967691898">
        <ele>990.77999999999997</ele>
        <time>2025-04-25T09:56:16Z</time>
      </trkpt>
      <trkpt lat="44.758411003276706" lon="2.831029035151005">
        <ele>991.25999999999999</ele>
        <time>2025-04-25T09:56:17Z</time>
      </trkpt>
      <trkpt lat="44.758265996351838" lon="2.830915041267872">
        <ele>991.74000000000001</ele>
        <time>2025-04-25T09:56:18Z</time>
      </trkpt>
      <trkpt lat="44.758111014962196" lon="2.830794006586075">
        <ele>992.22000000000003</ele>
        <time>2025-04-25T09:56:19Z</time>
      </trkpt>
      <trkpt lat="44.756888011470437" lon="2.829846013337374">
        <ele>992.22000000000003</ele>
        <time>2025-04-25T09:56:26Z</time>
      </trkpt>
      <trkpt lat="44.756745016202331" lon="2.829670999199152">
        <ele>992.22000000000003</ele>
        <time>2025-04-25T09:56:27Z</time>
      </trkpt>
      <trkpt lat="44.756613001227379" lon="2.829454997554421">
        <ele>991.74000000000001</ele>
        <time>2025-04-25T09:56:28Z</time>
      </trkpt>
      <trkpt lat="44.756215028464794" lon="2.828804980963469">
        <ele>990.29999999999995</ele>
        <time>2025-04-25T09:56:31Z</time>
      </trkpt>
      <trkpt lat="44.756133975461125" lon="2.82857296988368">
        <ele>989.80999999999995</ele>
        <time>2025-04-25T09:56:32Z</time>
      </trkpt>
      <trkpt lat="44.756087958812714" lon="2.828332995995879">
        <ele>989.33000000000004</ele>
        <time>2025-04-25T09:56:33Z</time>
      </trkpt>
      <trkpt lat="44.756074966862798" lon="2.82807701267302">
        <ele>989.33000000000004</ele>
        <time>2025-04-25T09:56:34Z</time>
      </trkpt>
      <trkpt lat="44.756090976297855" lon="2.8278190176934">
        <ele>988.85000000000002</ele>
        <time>2025-04-25T09:56:35Z</time>
      </trkpt>
      <trkpt lat="44.756133975461125" lon="2.827520035207272">
        <ele>989.33000000000004</ele>
        <time>2025-04-25T09:56:36Z</time>
      </trkpt>
      <trkpt lat="44.756203964352608" lon="2.82730302773416">
        <ele>989.33000000000004</ele>
        <time>2025-04-25T09:56:37Z</time>
      </trkpt>
      <trkpt lat="44.756279988214374" lon="2.827065987512469">
        <ele>989.33000000000004</ele>
        <time>2025-04-25T09:56:38Z</time>
      </trkpt>
      <trkpt lat="44.756327010691166" lon="2.826811010017991">
        <ele>989.33000000000004</ele>
        <time>2025-04-25T09:56:39Z</time>
      </trkpt>
      <trkpt lat="44.756327010691166" lon="2.826555026695132">
        <ele>988.85000000000002</ele>
        <time>2025-04-25T09:56:40Z</time>
      </trkpt>
      <trkpt lat="44.756307983770967" lon="2.826289990916848">
        <ele>988.85000000000002</ele>
        <time>2025-04-25T09:56:41Z</time>
      </trkpt>
      <trkpt lat="44.756270013749599" lon="2.826025960966945">
        <ele>988.85000000000002</ele>
        <time>2025-04-25T09:56:42Z</time>
      </trkpt>
      <trkpt lat="44.756131041795015" lon="2.825191039592028">
        <ele>987.88999999999999</ele>
        <time>2025-04-25T09:56:45Z</time>
      </trkpt>
      <trkpt lat="44.756044037640095" lon="2.824908988550305">
        <ele>987.40999999999997</ele>
        <time>2025-04-25T09:56:46Z</time>
      </trkpt>
      <trkpt lat="44.7555429674685" lon="2.823590012267232">
        <ele>984.52999999999997</ele>
        <time>2025-04-25T09:56:52Z</time>
      </trkpt>
      <trkpt lat="44.755344986915588" lon="2.822635984048247">
        <ele>981.15999999999997</ele>
        <time>2025-04-25T09:56:59Z</time>
      </trkpt>
      <trkpt lat="44.755426961928606" lon="2.821018025279045">
        <ele>976.84000000000003</ele>
        <time>2025-04-25T09:57:10Z</time>
      </trkpt>
      <trkpt lat="44.755484964698553" lon="2.820445038378239">
        <ele>975.38999999999999</ele>
        <time>2025-04-25T09:57:14Z</time>
      </trkpt>
      <trkpt lat="44.755479013547301" lon="2.82034101895988">
        <ele>974.42999999999995</ele>
        <time>2025-04-25T09:57:15Z</time>
      </trkpt>
      <trkpt lat="44.75545403547585" lon="2.820238005369902">
        <ele>973.47000000000003</ele>
        <time>2025-04-25T09:57:16Z</time>
      </trkpt>
      <trkpt lat="44.755309028550982" lon="2.819750010967255">
        <ele>969.14999999999998</ele>
        <time>2025-04-25T09:57:20Z</time>
      </trkpt>
      <trkpt lat="44.75526100024581" lon="2.819457985460758">
        <ele>967.22000000000003</ele>
        <time>2025-04-25T09:57:22Z</time>
      </trkpt>
      <trkpt lat="44.755277009680867" lon="2.819136036559939">
        <ele>965.77999999999997</ele>
        <time>2025-04-25T09:57:24Z</time>
      </trkpt>
      <trkpt lat="44.755290001630783" lon="2.818986000493169">
        <ele>964.82000000000005</ele>
        <time>2025-04-25T09:57:25Z</time>
      </trkpt>
      <trkpt lat="44.755298970267177" lon="2.818839987739921">
        <ele>964.34000000000003</ele>
        <time>2025-04-25T09:57:26Z</time>
      </trkpt>
      <trkpt lat="44.755317997187376" lon="2.818287033587694">
        <ele>961.46000000000004</ele>
        <time>2025-04-25T09:57:30Z</time>
      </trkpt>
      <trkpt lat="44.7552839666605" lon="2.818202963098884">
        <ele>961.46000000000004</ele>
        <time>2025-04-25T09:57:31Z</time>
      </trkpt>
      <trkpt lat="44.75524096749723" lon="2.818138003349304">
        <ele>960.98000000000002</ele>
        <time>2025-04-25T09:57:32Z</time>
      </trkpt>
      <trkpt lat="44.755171984434128" lon="2.818110007792711">
        <ele>960.98000000000002</ele>
        <time>2025-04-25T09:57:33Z</time>
      </trkpt>
      <trkpt lat="44.755092021077871" lon="2.818130040541291">
        <ele>960.98000000000002</ele>
        <time>2025-04-25T09:57:34Z</time>
      </trkpt>
      <trkpt lat="44.755009962245822" lon="2.818174967542291">
        <ele>960.49000000000001</ele>
        <time>2025-04-25T09:57:35Z</time>
      </trkpt>
      <trkpt lat="44.754923963919282" lon="2.818220984190702">
        <ele>960.00999999999999</ele>
        <time>2025-04-25T09:57:36Z</time>
      </trkpt>
      <trkpt lat="44.754649037495255" lon="2.818371020257473">
        <ele>959.52999999999997</ele>
        <time>2025-04-25T09:57:39Z</time>
      </trkpt>
      <trkpt lat="44.754555998370051" lon="2.818420976400375">
        <ele>959.04999999999995</ele>
        <time>2025-04-25T09:57:40Z</time>
      </trkpt>
      <trkpt lat="44.754156013950706" lon="2.818662961944938">
        <ele>957.61000000000001</ele>
        <time>2025-04-25T09:57:45Z</time>
      </trkpt>
      <trkpt lat="44.754086025059223" lon="2.818706966936588">
        <ele>957.13</ele>
        <time>2025-04-25T09:57:46Z</time>
      </trkpt>
      <trkpt lat="44.754026010632515" lon="2.818745020776987">
        <ele>956.64999999999998</ele>
        <time>2025-04-25T09:57:47Z</time>
      </trkpt>
      <trkpt lat="44.753969013690948" lon="2.818779973313212">
        <ele>956.16999999999996</ele>
        <time>2025-04-25T09:57:48Z</time>
      </trkpt>
      <trkpt lat="44.753896007314324" lon="2.818806041032076">
        <ele>955.69000000000005</ele>
        <time>2025-04-25T09:57:49Z</time>
      </trkpt>
      <trkpt lat="44.753817971795797" lon="2.818800006061792">
        <ele>955.21000000000004</ele>
        <time>2025-04-25T09:57:50Z</time>
      </trkpt>
      <trkpt lat="44.753636000677943" lon="2.818778967484832">
        <ele>954.25</ele>
        <time>2025-04-25T09:57:52Z</time>
      </trkpt>
      <trkpt lat="44.753527035936713" lon="2.818748038262129">
        <ele>953.76999999999998</ele>
        <time>2025-04-25T09:57:53Z</time>
      </trkpt>
      <trkpt lat="44.752867966890335" lon="2.818561038002372">
        <ele>951.84000000000003</ele>
        <time>2025-04-25T09:57:58Z</time>
      </trkpt>
      <trkpt lat="44.752740981057286" lon="2.818526001647115">
        <ele>951.36000000000001</ele>
        <time>2025-04-25T09:57:59Z</time>
      </trkpt>
      <trkpt lat="44.752624975517392" lon="2.818447966128588">
        <ele>950.88</ele>
        <time>2025-04-25T09:58:00Z</time>
      </trkpt>
      <trkpt lat="44.752535037696362" lon="2.818349981680512">
        <ele>950.39999999999998</ele>
        <time>2025-04-25T09:58:01Z</time>
      </trkpt>
      <trkpt lat="44.752450967207551" lon="2.81823699362576">
        <ele>950.39999999999998</ele>
        <time>2025-04-25T09:58:02Z</time>
      </trkpt>
      <trkpt lat="44.752390030771494" lon="2.818082012236118">
        <ele>949.91999999999996</ele>
        <time>2025-04-25T09:58:03Z</time>
      </trkpt>
      <trkpt lat="44.75232096388936" lon="2.817902974784374">
        <ele>949.91999999999996</ele>
        <time>2025-04-25T09:58:04Z</time>
      </trkpt>
      <trkpt lat="44.75169500336051" lon="2.816330026835203">
        <ele>951.84000000000003</ele>
        <time>2025-04-25T09:58:11Z</time>
      </trkpt>
      <trkpt lat="44.750851029530168" lon="2.81387303955853">
        <ele>957.13</ele>
        <time>2025-04-25T09:58:20Z</time>
      </trkpt>
      <trkpt lat="44.750118032097816" lon="2.811701036989689">
        <ele>962.89999999999998</ele>
        <time>2025-04-25T09:58:28Z</time>
      </trkpt>
      <trkpt lat="44.749616039916873" lon="2.810796964913607">
        <ele>966.74000000000001</ele>
        <time>2025-04-25T09:58:32Z</time>
      </trkpt>
      <trkpt lat="44.749491987749934" lon="2.81063100323081">
        <ele>967.70000000000005</ele>
        <time>2025-04-25T09:58:33Z</time>
      </trkpt>
      <trkpt lat="44.749360978603363" lon="2.81054399907589">
        <ele>968.17999999999995</ele>
        <time>2025-04-25T09:58:34Z</time>
      </trkpt>
      <trkpt lat="44.749236004427075" lon="2.810487002134323">
        <ele>969.14999999999998</ele>
        <time>2025-04-25T09:58:35Z</time>
      </trkpt>
      <trkpt lat="44.749104995280504" lon="2.810425981879234">
        <ele>970.11000000000001</ele>
        <time>2025-04-25T09:58:36Z</time>
      </trkpt>
      <trkpt lat="44.748955965042114" lon="2.810358004644513">
        <ele>970.11000000000001</ele>
        <time>2025-04-25T09:58:37Z</time>
      </trkpt>
      <trkpt lat="44.747760035097599" lon="2.810043012723327">
        <ele>966.74000000000001</ele>
        <time>2025-04-25T09:58:43Z</time>
      </trkpt>
      <trkpt lat="44.746400993317366" lon="2.809987021610141">
        <ele>959.52999999999997</ele>
        <time>2025-04-25T09:58:49Z</time>
      </trkpt>
      <trkpt lat="44.746197983622551" lon="2.809932958334684">
        <ele>958.57000000000005</ele>
        <time>2025-04-25T09:58:50Z</time>
      </trkpt>
      <trkpt lat="44.746008971706033" lon="2.809819970279932">
        <ele>957.61000000000001</ele>
        <time>2025-04-25T09:58:51Z</time>
      </trkpt>
      <trkpt lat="44.745813002809882" lon="2.809702958911657">
        <ele>956.64999999999998</ele>
        <time>2025-04-25T09:58:52Z</time>
      </trkpt>
      <trkpt lat="44.745613010600209" lon="2.809584019705653">
        <ele>955.69000000000005</ele>
        <time>2025-04-25T09:58:53Z</time>
      </trkpt>
      <trkpt lat="44.745045974850655" lon="2.809245977550745">
        <ele>953.76999999999998</ele>
        <time>2025-04-25T09:58:56Z</time>
      </trkpt>
      <trkpt lat="44.7448640037328" lon="2.809176994487643">
        <ele>953.76999999999998</ele>
        <time>2025-04-25T09:58:57Z</time>
      </trkpt>
      <trkpt lat="44.744675997644663" lon="2.809153022244573">
        <ele>953.27999999999997</ele>
        <time>2025-04-25T09:58:58Z</time>
      </trkpt>
      <trkpt lat="44.743892038241029" lon="2.809098958969116">
        <ele>951.84000000000003</ele>
        <time>2025-04-25T09:59:02Z</time>
      </trkpt>
      <trkpt lat="44.743699003010988" lon="2.809011032804847">
        <ele>951.84000000000003</ele>
        <time>2025-04-25T09:59:03Z</time>
      </trkpt>
      <trkpt lat="44.74256300367415" lon="2.808366967365146">
        <ele>951.84000000000003</ele>
        <time>2025-04-25T09:59:09Z</time>
      </trkpt>
      <trkpt lat="44.742385977879167" lon="2.808187007904053">
        <ele>951.84000000000003</ele>
        <time>2025-04-25T09:59:10Z</time>
      </trkpt>
      <trkpt lat="44.741517025977373" lon="2.807339010760188">
        <ele>950.88</ele>
        <time>2025-04-25T09:59:15Z</time>
      </trkpt>
      <trkpt lat="44.741345029324293" lon="2.807198027148843">
        <ele>951.36000000000001</ele>
        <time>2025-04-25T09:59:16Z</time>
      </trkpt>
      <trkpt lat="44.740584958344698" lon="2.806808017194271">
        <ele>950.39999999999998</ele>
        <time>2025-04-25T09:59:20Z</time>
      </trkpt>
      <trkpt lat="44.740389995276928" lon="2.806771975010634">
        <ele>950.39999999999998</ele>
        <time>2025-04-25T09:59:21Z</time>
      </trkpt>
      <trkpt lat="44.739980958402157" lon="2.80669704079628">
        <ele>949.44000000000005</ele>
        <time>2025-04-25T09:59:23Z</time>
      </trkpt>
      <trkpt lat="44.739780966192484" lon="2.806614981964231">
        <ele>949.44000000000005</ele>
        <time>2025-04-25T09:59:24Z</time>
      </trkpt>
      <trkpt lat="44.73957703448832" lon="2.80650501139462">
        <ele>948.96000000000004</ele>
        <time>2025-04-25T09:59:25Z</time>
      </trkpt>
      <trkpt lat="44.738790979608893" lon="2.806082982569933">
        <ele>947.03999999999996</ele>
        <time>2025-04-25T09:59:29Z</time>
      </trkpt>
      <trkpt lat="44.73861001431942" lon="2.806063033640385">
        <ele>946.55999999999995</ele>
        <time>2025-04-25T09:59:30Z</time>
      </trkpt>
      <trkpt lat="44.738423014059663" lon="2.806063033640385">
        <ele>945.59000000000003</ele>
        <time>2025-04-25T09:59:31Z</time>
      </trkpt>
      <trkpt lat="44.738228973001242" lon="2.806107038632035">
        <ele>945.11000000000001</ele>
        <time>2025-04-25T09:59:32Z</time>
      </trkpt>
      <trkpt lat="44.738022023811936" lon="2.806165041401982">
        <ele>943.66999999999996</ele>
        <time>2025-04-25T09:59:33Z</time>
      </trkpt>
      <trkpt lat="44.737363960593939" lon="2.806328991428018">
        <ele>940.78999999999996</ele>
        <time>2025-04-25T09:59:36Z</time>
      </trkpt>
      <trkpt lat="44.737135972827673" lon="2.806335026398301">
        <ele>939.35000000000002</ele>
        <time>2025-04-25T09:59:37Z</time>
      </trkpt>
      <trkpt lat="44.735118029639125" lon="2.806039983406663">
        <ele>926.37</ele>
        <time>2025-04-25T09:59:46Z</time>
      </trkpt>
      <trkpt lat="44.734955001622438" lon="2.805894976481795">
        <ele>924.92999999999995</ele>
        <time>2025-04-25T09:59:47Z</time>
      </trkpt>
      <trkpt lat="44.734803959727287" lon="2.805760027840734">
        <ele>923.96000000000004</ele>
        <time>2025-04-25T09:59:48Z</time>
      </trkpt>
      <trkpt lat="44.734676973894238" lon="2.805593982338905">
        <ele>922.51999999999998</ele>
        <time>2025-04-25T09:59:49Z</time>
      </trkpt>
      <trkpt lat="44.734556023031473" lon="2.805434977635741">
        <ele>921.08000000000004</ele>
        <time>2025-04-25T09:59:50Z</time>
      </trkpt>
      <trkpt lat="44.734430965036154" lon="2.805271027609706">
        <ele>920.12</ele>
        <time>2025-04-25T09:59:51Z</time>
      </trkpt>
      <trkpt lat="44.734290987253189" lon="2.805118979886174">
        <ele>919.15999999999997</ele>
        <time>2025-04-25T09:59:52Z</time>
      </trkpt>
      <trkpt lat="44.734113039448857" lon="2.80502200126648">
        <ele>918.20000000000005</ele>
        <time>2025-04-25T09:59:53Z</time>
      </trkpt>
      <trkpt lat="44.733935007825494" lon="2.805011020973325">
        <ele>917.72000000000003</ele>
        <time>2025-04-25T09:59:54Z</time>
      </trkpt>
      <trkpt lat="44.733774997293949" lon="2.805011020973325">
        <ele>917.24000000000001</ele>
        <time>2025-04-25T09:59:55Z</time>
      </trkpt>
      <trkpt lat="44.733589002862573" lon="2.805129960179329">
        <ele>916.75</ele>
        <time>2025-04-25T09:59:56Z</time>
      </trkpt>
      <trkpt lat="44.733421029523015" lon="2.80523800291121">
        <ele>916.26999999999998</ele>
        <time>2025-04-25T09:59:57Z</time>
      </trkpt>
      <trkpt lat="44.733238974586129" lon="2.805355014279485">
        <ele>915.78999999999996</ele>
        <time>2025-04-25T09:59:58Z</time>
      </trkpt>
      <trkpt lat="44.732088977470994" lon="2.806737022474408">
        <ele>913.38999999999999</ele>
        <time>2025-04-25T10:00:06Z</time>
      </trkpt>
      <trkpt lat="44.73192997276783" lon="2.806812962517142">
        <ele>912.90999999999997</ele>
        <time>2025-04-25T10:00:07Z</time>
      </trkpt>
      <trkpt lat="44.731764011085033" lon="2.80686903744936">
        <ele>912.42999999999995</ele>
        <time>2025-04-25T10:00:08Z</time>
      </trkpt>
      <trkpt lat="44.73158597946167" lon="2.806927962228656">
        <ele>911.95000000000005</ele>
        <time>2025-04-25T10:00:09Z</time>
      </trkpt>
      <trkpt lat="44.731393028050661" lon="2.806982025504112">
        <ele>911.47000000000003</ele>
        <time>2025-04-25T10:00:10Z</time>
      </trkpt>
      <trkpt lat="44.731187000870705" lon="2.806947994977236">
        <ele>911.47000000000003</ele>
        <time>2025-04-25T10:00:11Z</time>
      </trkpt>
      <trkpt lat="44.730978962033987" lon="2.806901978328824">
        <ele>910.99000000000001</ele>
        <time>2025-04-25T10:00:12Z</time>
      </trkpt>
      <trkpt lat="44.730777963995934" lon="2.806824026629329">
        <ele>910.50999999999999</ele>
        <time>2025-04-25T10:00:13Z</time>
      </trkpt>
      <trkpt lat="44.730571014806628" lon="2.806703997775912">
        <ele>910.02999999999997</ele>
        <time>2025-04-25T10:00:14Z</time>
      </trkpt>
      <trkpt lat="44.730393989011645" lon="2.806539963930845">
        <ele>910.02999999999997</ele>
        <time>2025-04-25T10:00:15Z</time>
      </trkpt>
      <trkpt lat="44.730206988751888" lon="2.806432005017996">
        <ele>909.53999999999996</ele>
        <time>2025-04-25T10:00:16Z</time>
      </trkpt>
      <trkpt lat="44.730013031512499" lon="2.806346006691456">
        <ele>909.05999999999995</ele>
        <time>2025-04-25T10:00:17Z</time>
      </trkpt>
      <trkpt lat="44.729827959090471" lon="2.806264031678438">
        <ele>908.58000000000004</ele>
        <time>2025-04-25T10:00:18Z</time>
      </trkpt>
      <trkpt lat="44.729481032118201" lon="2.80607501976192">
        <ele>908.10000000000002</ele>
        <time>2025-04-25T10:00:20Z</time>
      </trkpt>
      <trkpt lat="44.729314986616373" lon="2.805935963988304">
        <ele>907.62</ele>
        <time>2025-04-25T10:00:21Z</time>
      </trkpt>
      <trkpt lat="44.729162016883492" lon="2.805746030062437">
        <ele>907.13999999999999</ele>
        <time>2025-04-25T10:00:22Z</time>
      </trkpt>
      <trkpt lat="44.728991026058793" lon="2.805575961247087">
        <ele>906.65999999999997</ele>
        <time>2025-04-25T10:00:23Z</time>
      </trkpt>
      <trkpt lat="44.728823974728584" lon="2.805415028706193">
        <ele>906.65999999999997</ele>
        <time>2025-04-25T10:00:24Z</time>
      </trkpt>
      <trkpt lat="44.728666981682181" lon="2.805263986811042">
        <ele>906.17999999999995</ele>
        <time>2025-04-25T10:00:25Z</time>
      </trkpt>
      <trkpt lat="44.728524992242455" lon="2.805099030956626">
        <ele>905.70000000000005</ele>
        <time>2025-04-25T10:00:26Z</time>
      </trkpt>
      <trkpt lat="44.7284069750458" lon="2.804891997948289">
        <ele>905.70000000000005</ele>
        <time>2025-04-25T10:00:27Z</time>
      </trkpt>
      <trkpt lat="44.728303961455822" lon="2.80465797521174">
        <ele>904.74000000000001</ele>
        <time>2025-04-25T10:00:28Z</time>
      </trkpt>
      <trkpt lat="44.728201031684875" lon="2.804409032687545">
        <ele>904.74000000000001</ele>
        <time>2025-04-25T10:00:29Z</time>
      </trkpt>
      <trkpt lat="44.727637013420463" lon="2.802882017567754">
        <ele>902.33000000000004</ele>
        <time>2025-04-25T10:00:35Z</time>
      </trkpt>
      <trkpt lat="44.727601977065206" lon="2.802596027031541">
        <ele>901.85000000000002</ele>
        <time>2025-04-25T10:00:36Z</time>
      </trkpt>
      <trkpt lat="44.727582028135657" lon="2.802313975989819">
        <ele>901.37</ele>
        <time>2025-04-25T10:00:37Z</time>
      </trkpt>
      <trkpt lat="44.727583033964038" lon="2.80143697746098">
        <ele>901.37</ele>
        <time>2025-04-25T10:00:40Z</time>
      </trkpt>
      <trkpt lat="44.727618992328644" lon="2.80089701525867">
        <ele>901.37</ele>
        <time>2025-04-25T10:00:42Z</time>
      </trkpt>
      <trkpt lat="44.727637013420463" lon="2.800636002793908">
        <ele>901.37</ele>
        <time>2025-04-25T10:00:43Z</time>
      </trkpt>
      <trkpt lat="44.727585967630148" lon="2.800371972844005">
        <ele>900.88999999999999</ele>
        <time>2025-04-25T10:00:44Z</time>
      </trkpt>
      <trkpt lat="44.72752695903182" lon="2.800098974257708">
        <ele>900.88999999999999</ele>
        <time>2025-04-25T10:00:45Z</time>
      </trkpt>
      <trkpt lat="44.727466022595763" lon="2.799816001206636">
        <ele>900.88999999999999</ele>
        <time>2025-04-25T10:00:46Z</time>
      </trkpt>
      <trkpt lat="44.726905021816492" lon="2.797131026163697">
        <ele>896.57000000000005</ele>
        <time>2025-04-25T10:00:55Z</time>
      </trkpt>
      <trkpt lat="44.726912984624505" lon="2.796830032020807">
        <ele>896.57000000000005</ele>
        <time>2025-04-25T10:00:56Z</time>
      </trkpt>
      <trkpt lat="44.726928994059563" lon="2.796262996271253">
        <ele>896.57000000000005</ele>
        <time>2025-04-25T10:00:58Z</time>
      </trkpt>
      <trkpt lat="44.726889012381434" lon="2.795974994078279">
        <ele>896.09000000000003</ele>
        <time>2025-04-25T10:00:59Z</time>
      </trkpt>
      <trkpt lat="44.72681600600481" lon="2.795680034905672">
        <ele>896.57000000000005</ele>
        <time>2025-04-25T10:01:00Z</time>
      </trkpt>
      <trkpt lat="44.726683991029859" lon="2.795493034645915">
        <ele>896.57000000000005</ele>
        <time>2025-04-25T10:01:01Z</time>
      </trkpt>
      <trkpt lat="44.726544013246894" lon="2.79529295861721">
        <ele>897.04999999999995</ele>
        <time>2025-04-25T10:01:02Z</time>
      </trkpt>
      <trkpt lat="44.726411998271942" lon="2.795079974457622">
        <ele>897.04999999999995</ele>
        <time>2025-04-25T10:01:03Z</time>
      </trkpt>
      <trkpt lat="44.72632197663188" lon="2.794852992519736">
        <ele>897.04999999999995</ele>
        <time>2025-04-25T10:01:04Z</time>
      </trkpt>
      <trkpt lat="44.726275037974119" lon="2.794590974226594">
        <ele>897.04999999999995</ele>
        <time>2025-04-25T10:01:05Z</time>
      </trkpt>
      <trkpt lat="44.726296998560429" lon="2.794334990903735">
        <ele>897.04999999999995</ele>
        <time>2025-04-25T10:01:06Z</time>
      </trkpt>
      <trkpt lat="44.726320970803499" lon="2.794057969003916">
        <ele>897.04999999999995</ele>
        <time>2025-04-25T10:01:07Z</time>
      </trkpt>
      <trkpt lat="44.726347038522363" lon="2.79376401565969">
        <ele>897.04999999999995</ele>
        <time>2025-04-25T10:01:08Z</time>
      </trkpt>
      <trkpt lat="44.726415015757084" lon="2.791440971195698">
        <ele>891.75999999999999</ele>
        <time>2025-04-25T10:01:15Z</time>
      </trkpt>
      <trkpt lat="44.726275959983468" lon="2.788753984495997">
        <ele>882.63</ele>
        <time>2025-04-25T10:01:23Z</time>
      </trkpt>
      <trkpt lat="44.726099018007517" lon="2.786493971943855">
        <ele>873.00999999999999</ele>
        <time>2025-04-25T10:01:31Z</time>
      </trkpt>
      <trkpt lat="44.72563399001956" lon="2.78381796553731">
        <ele>868.21000000000004</ele>
        <time>2025-04-25T10:01:39Z</time>
      </trkpt>
      <trkpt lat="44.725388986989856" lon="2.782608037814498">
        <ele>867.25</ele>
        <time>2025-04-25T10:01:43Z</time>
      </trkpt>
      <trkpt lat="44.725273987278342" lon="2.782351970672607">
        <ele>866.76999999999998</ele>
        <time>2025-04-25T10:01:44Z</time>
      </trkpt>
      <trkpt lat="44.725139960646629" lon="2.782106967642903">
        <ele>866.76999999999998</ele>
        <time>2025-04-25T10:01:45Z</time>
      </trkpt>
      <trkpt lat="44.724979028105736" lon="2.781876968219876">
        <ele>866.76999999999998</ele>
        <time>2025-04-25T10:01:46Z</time>
      </trkpt>
      <trkpt lat="44.724811976775527" lon="2.781639005988836">
        <ele>866.28999999999996</ele>
        <time>2025-04-25T10:01:47Z</time>
      </trkpt>
      <trkpt lat="44.724107980728149" lon="2.780638039112091">
        <ele>866.28999999999996</ele>
        <time>2025-04-25T10:01:51Z</time>
      </trkpt>
      <trkpt lat="44.723164010792971" lon="2.77868002653122">
        <ele>864.84000000000003</ele>
        <time>2025-04-25T10:01:58Z</time>
      </trkpt>
      <trkpt lat="44.722209982573986" lon="2.776424959301949">
        <ele>862.91999999999996</ele>
        <time>2025-04-25T10:02:06Z</time>
      </trkpt>
      <trkpt lat="44.722014013677835" lon="2.775894971564412">
        <ele>862.44000000000005</ele>
        <time>2025-04-25T10:02:08Z</time>
      </trkpt>
      <trkpt lat="44.721965985372663" lon="2.775638988241553">
        <ele>861.96000000000004</ele>
        <time>2025-04-25T10:02:09Z</time>
      </trkpt>
      <trkpt lat="44.72191896289587" lon="2.775389039888978">
        <ele>861.96000000000004</ele>
        <time>2025-04-25T10:02:10Z</time>
      </trkpt>
      <trkpt lat="44.721893984824419" lon="2.774847988039255">
        <ele>861</ele>
        <time>2025-04-25T10:02:12Z</time>
      </trkpt>
      <trkpt lat="44.721893984824419" lon="2.774563003331423">
        <ele>860.51999999999998</ele>
        <time>2025-04-25T10:02:13Z</time>
      </trkpt>
      <trkpt lat="44.72195902839303" lon="2.773736966773868">
        <ele>860.03999999999996</ele>
        <time>2025-04-25T10:02:16Z</time>
      </trkpt>
      <trkpt lat="44.721996998414397" lon="2.773504033684731">
        <ele>859.55999999999995</ele>
        <time>2025-04-25T10:02:17Z</time>
      </trkpt>
      <trkpt lat="44.722093977034092" lon="2.773292977362871">
        <ele>860.03999999999996</ele>
        <time>2025-04-25T10:02:18Z</time>
      </trkpt>
      <trkpt lat="44.722191961482167" lon="2.773079993203282">
        <ele>859.55999999999995</ele>
        <time>2025-04-25T10:02:19Z</time>
      </trkpt>
      <trkpt lat="44.722314001992345" lon="2.772910008206964">
        <ele>859.55999999999995</ele>
        <time>2025-04-25T10:02:20Z</time>
      </trkpt>
      <trkpt lat="44.722464038059115" lon="2.77275200933218">
        <ele>859.08000000000004</ele>
        <time>2025-04-25T10:02:21Z</time>
      </trkpt>
      <trkpt lat="44.722618013620377" lon="2.772590992972255">
        <ele>859.08000000000004</ele>
        <time>2025-04-25T10:02:22Z</time>
      </trkpt>
      <trkpt lat="44.72309703938663" lon="2.772087994962931">
        <ele>858.59000000000003</ele>
        <time>2025-04-25T10:02:25Z</time>
      </trkpt>
      <trkpt lat="44.723215978592634" lon="2.771847015246749">
        <ele>858.11000000000001</ele>
        <time>2025-04-25T10:02:26Z</time>
      </trkpt>
      <trkpt lat="44.723329972475767" lon="2.771601006388664">
        <ele>858.11000000000001</ele>
        <time>2025-04-25T10:02:27Z</time>
      </trkpt>
      <trkpt lat="44.723431980237365" lon="2.771342005580664">
        <ele>858.59000000000003</ele>
        <time>2025-04-25T10:02:28Z</time>
      </trkpt>
      <trkpt lat="44.723520996049047" lon="2.771066995337606">
        <ele>858.59000000000003</ele>
        <time>2025-04-25T10:02:29Z</time>
      </trkpt>
      <trkpt lat="44.723966997116804" lon="2.76901300996542">
        <ele>858.59000000000003</ele>
        <time>2025-04-25T10:02:36Z</time>
      </trkpt>
      <trkpt lat="44.724055007100105" lon="2.768426025286317">
        <ele>857.63</ele>
        <time>2025-04-25T10:02:38Z</time>
      </trkpt>
      <trkpt lat="44.724044026806951" lon="2.768168030306697">
        <ele>857.14999999999998</ele>
        <time>2025-04-25T10:02:39Z</time>
      </trkpt>
      <trkpt lat="44.724028017371893" lon="2.767916992306709">
        <ele>856.66999999999996</ele>
        <time>2025-04-25T10:02:40Z</time>
      </trkpt>
      <trkpt lat="44.723950987681746" lon="2.767696967348456">
        <ele>856.19000000000005</ele>
        <time>2025-04-25T10:02:41Z</time>
      </trkpt>
      <trkpt lat="44.723870018497109" lon="2.767477026209235">
        <ele>855.71000000000004</ele>
        <time>2025-04-25T10:02:42Z</time>
      </trkpt>
      <trkpt lat="44.723758958280087" lon="2.767254989594221">
        <ele>855.23000000000002</ele>
        <time>2025-04-25T10:02:43Z</time>
      </trkpt>
      <trkpt lat="44.723644964396954" lon="2.767027001827955">
        <ele>855.23000000000002</ele>
        <time>2025-04-25T10:02:44Z</time>
      </trkpt>
      <trkpt lat="44.722872991114855" lon="2.765481965616345">
        <ele>855.71000000000004</ele>
        <time>2025-04-25T10:02:52Z</time>
      </trkpt>
      <trkpt lat="44.722697976976633" lon="2.76514501310885">
        <ele>855.23000000000002</ele>
        <time>2025-04-25T10:02:57Z</time>
      </trkpt>
      <trkpt lat="44.722655983641744" lon="2.765165967866778">
        <ele>855.23000000000002</ele>
        <time>2025-04-25T10:02:58Z</time>
      </trkpt>
      <trkpt lat="44.722591023892164" lon="2.765198992565274">
        <ele>855.23000000000002</ele>
        <time>2025-04-25T10:02:59Z</time>
      </trkpt>
      <trkpt lat="44.721906976774335" lon="2.765526976436377">
        <ele>856.19000000000005</ele>
        <time>2025-04-25T10:03:05Z</time>
      </trkpt>
      <trkpt lat="44.720507031306624" lon="2.766142040491104">
        <ele>858.11000000000001</ele>
        <time>2025-04-25T10:03:13Z</time>
      </trkpt>
      <trkpt lat="44.719311017543077" lon="2.766754003241658">
        <ele>860.51999999999998</ele>
        <time>2025-04-25T10:03:19Z</time>
      </trkpt>
      <trkpt lat="44.71910297870636" lon="2.766829021275044">
        <ele>860.51999999999998</ele>
        <time>2025-04-25T10:03:20Z</time>
      </trkpt>
      <trkpt lat="44.718889994546771" lon="2.766837989911437">
        <ele>861</ele>
        <time>2025-04-25T10:03:21Z</time>
      </trkpt>
      <trkpt lat="44.718692013993859" lon="2.766785016283393">
        <ele>861.48000000000002</ele>
        <time>2025-04-25T10:03:22Z</time>
      </trkpt>
      <trkpt lat="44.718495961278677" lon="2.766687031835318">
        <ele>861.48000000000002</ele>
        <time>2025-04-25T10:03:23Z</time>
      </trkpt>
      <trkpt lat="44.718282977119088" lon="2.766581000760198">
        <ele>861.48000000000002</ele>
        <time>2025-04-25T10:03:24Z</time>
      </trkpt>
      <trkpt lat="44.718122966587543" lon="2.766415039077401">
        <ele>861.48000000000002</ele>
        <time>2025-04-25T10:03:25Z</time>
      </trkpt>
      <trkpt lat="44.717945018783212" lon="2.766229966655374">
        <ele>861.48000000000002</ele>
        <time>2025-04-25T10:03:26Z</time>
      </trkpt>
      <trkpt lat="44.717616029083729" lon="2.765837023034692">
        <ele>861.48000000000002</ele>
        <time>2025-04-25T10:03:28Z</time>
      </trkpt>
      <trkpt lat="44.717478984966874" lon="2.765611968934536">
        <ele>861.96000000000004</ele>
        <time>2025-04-25T10:03:29Z</time>
      </trkpt>
      <trkpt lat="44.717359039932489" lon="2.765368977561593">
        <ele>861.96000000000004</ele>
        <time>2025-04-25T10:03:30Z</time>
      </trkpt>
      <trkpt lat="44.716952014714479" lon="2.76428502984345">
        <ele>863.88</ele>
        <time>2025-04-25T10:03:34Z</time>
      </trkpt>
      <trkpt lat="44.716821005567908" lon="2.76409300044179">
        <ele>864.36000000000001</ele>
        <time>2025-04-25T10:03:35Z</time>
      </trkpt>
      <trkpt lat="44.716669963672757" lon="2.763898959383369">
        <ele>864.84000000000003</ele>
        <time>2025-04-25T10:03:36Z</time>
      </trkpt>
      <trkpt lat="44.716510036960244" lon="2.763751018792391">
        <ele>865.32000000000005</ele>
        <time>2025-04-25T10:03:37Z</time>
      </trkpt>
      <trkpt lat="44.716356983408332" lon="2.763611041009426">
        <ele>865.79999999999995</ele>
        <time>2025-04-25T10:03:38Z</time>
      </trkpt>
      <trkpt lat="44.716211976483464" lon="2.763477014377713">
        <ele>866.28999999999996</ele>
        <time>2025-04-25T10:03:39Z</time>
      </trkpt>
      <trkpt lat="44.715485014021397" lon="2.762963036075234">
        <ele>866.28999999999996</ele>
        <time>2025-04-25T10:03:45Z</time>
      </trkpt>
      <trkpt lat="44.715104978531599" lon="2.762694982811809">
        <ele>866.76999999999998</ele>
        <time>2025-04-25T10:03:49Z</time>
      </trkpt>
      <trkpt lat="44.715004982426763" lon="2.762651983648539">
        <ele>866.28999999999996</ele>
        <time>2025-04-25T10:03:50Z</time>
      </trkpt>
      <trkpt lat="44.71431196667254" lon="2.762301033362746">
        <ele>865.32000000000005</ele>
        <time>2025-04-25T10:03:57Z</time>
      </trkpt>
      <trkpt lat="44.71422303467989" lon="2.762232972308993">
        <ele>864.84000000000003</ele>
        <time>2025-04-25T10:03:58Z</time>
      </trkpt>
      <trkpt lat="44.714143993332982" lon="2.762146973982453">
        <ele>864.84000000000003</ele>
        <time>2025-04-25T10:03:59Z</time>
      </trkpt>
      <trkpt lat="44.714079033583403" lon="2.762056030333042">
        <ele>864.84000000000003</ele>
        <time>2025-04-25T10:04:00Z</time>
      </trkpt>
      <trkpt lat="44.714067969471216" lon="2.761925021186471">
        <ele>864.36000000000001</ele>
        <time>2025-04-25T10:04:01Z</time>
      </trkpt>
      <trkpt lat="44.714060006663203" lon="2.761802980676293">
        <ele>863.88</ele>
        <time>2025-04-25T10:04:02Z</time>
      </trkpt>
      <trkpt lat="44.71407501026988" lon="2.761674989014864">
        <ele>863.39999999999998</ele>
        <time>2025-04-25T10:04:03Z</time>
      </trkpt>
      <trkpt lat="44.714119015261531" lon="2.761548003181815">
        <ele>863.39999999999998</ele>
        <time>2025-04-25T10:04:04Z</time>
      </trkpt>
      <trkpt lat="44.714164026081562" lon="2.761420011520386">
        <ele>863.39999999999998</ele>
        <time>2025-04-25T10:04:05Z</time>
      </trkpt>
      <trkpt lat="44.714729972183704" lon="2.760136993601918">
        <ele>863.39999999999998</ele>
        <time>2025-04-25T10:04:16Z</time>
      </trkpt>
      <trkpt lat="44.714815970510244" lon="2.760022999718785">
        <ele>863.39999999999998</ele>
        <time>2025-04-25T10:04:17Z</time>
      </trkpt>
      <trkpt lat="44.71491202712059" lon="2.759916968643665">
        <ele>863.39999999999998</ele>
        <time>2025-04-25T10:04:18Z</time>
      </trkpt>
      <trkpt lat="44.715325003489852" lon="2.759414976462722">
        <ele>862.91999999999996</ele>
        <time>2025-04-25T10:04:22Z</time>
      </trkpt>
      <trkpt lat="44.715403961017728" lon="2.759257983416319">
        <ele>862.44000000000005</ele>
        <time>2025-04-25T10:04:23Z</time>
      </trkpt>
      <trkpt lat="44.715462969616055" lon="2.759077018126845">
        <ele>862.44000000000005</ele>
        <time>2025-04-25T10:04:24Z</time>
      </trkpt>
      <trkpt lat="44.715499011799693" lon="2.75884903036058">
        <ele>862.91999999999996</ele>
        <time>2025-04-25T10:04:25Z</time>
      </trkpt>
      <trkpt lat="44.715534970164299" lon="2.758621964603663">
        <ele>862.91999999999996</ele>
        <time>2025-04-25T10:04:26Z</time>
      </trkpt>
      <trkpt lat="44.715721970424056" lon="2.75723903439939">
        <ele>865.32000000000005</ele>
        <time>2025-04-25T10:04:32Z</time>
      </trkpt>
      <trkpt lat="44.715713001787663" lon="2.757028983905911">
        <ele>865.32000000000005</ele>
        <time>2025-04-25T10:04:33Z</time>
      </trkpt>
      <trkpt lat="44.71568601205945" lon="2.756774006411433">
        <ele>865.79999999999995</ele>
        <time>2025-04-25T10:04:34Z</time>
      </trkpt>
      <trkpt lat="44.715614011511207" lon="2.756607960909605">
        <ele>866.28999999999996</ele>
        <time>2025-04-25T10:04:35Z</time>
      </trkpt>
      <trkpt lat="44.715519966557622" lon="2.756393970921636">
        <ele>866.76999999999998</ele>
        <time>2025-04-25T10:04:36Z</time>
      </trkpt>
      <trkpt lat="44.715417958796024" lon="2.756159026175737">
        <ele>867.73000000000002</ele>
        <time>2025-04-25T10:04:37Z</time>
      </trkpt>
      <trkpt lat="44.715313017368317" lon="2.755926009267569">
        <ele>868.69000000000005</ele>
        <time>2025-04-25T10:04:38Z</time>
      </trkpt>
      <trkpt lat="44.715168010443449" lon="2.755728028714657">
        <ele>869.64999999999998</ele>
        <time>2025-04-25T10:04:39Z</time>
      </trkpt>
      <trkpt lat="44.714999031275511" lon="2.755540022626519">
        <ele>870.61000000000001</ele>
        <time>2025-04-25T10:04:40Z</time>
      </trkpt>
      <trkpt lat="44.714815970510244" lon="2.755378000438213">
        <ele>871.57000000000005</ele>
        <time>2025-04-25T10:04:41Z</time>
      </trkpt>
      <trkpt lat="44.71429000608623" lon="2.754944991320372">
        <ele>873.5</ele>
        <time>2025-04-25T10:04:44Z</time>
      </trkpt>
      <trkpt lat="44.714106023311615" lon="2.754868967458606">
        <ele>874.46000000000004</ele>
        <time>2025-04-25T10:04:45Z</time>
      </trkpt>
      <trkpt lat="44.713744008913636" lon="2.754720021039248">
        <ele>875.89999999999998</ele>
        <time>2025-04-25T10:04:47Z</time>
      </trkpt>
      <trkpt lat="44.713574023917317" lon="2.754592029377818">
        <ele>876.38</ele>
        <time>2025-04-25T10:04:48Z</time>
      </trkpt>
      <trkpt lat="44.713456006720662" lon="2.754416009411216">
        <ele>876.86000000000001</ele>
        <time>2025-04-25T10:04:49Z</time>
      </trkpt>
      <trkpt lat="44.713350981473923" lon="2.754224985837936">
        <ele>877.34000000000003</ele>
        <time>2025-04-25T10:04:50Z</time>
      </trkpt>
      <trkpt lat="44.713281998410821" lon="2.753993980586529">
        <ele>877.34000000000003</ele>
        <time>2025-04-25T10:04:51Z</time>
      </trkpt>
      <trkpt lat="44.71321796067059" lon="2.753756018355489">
        <ele>877.82000000000005</ele>
        <time>2025-04-25T10:04:52Z</time>
      </trkpt>
      <trkpt lat="44.713160041719675" lon="2.753488970920444">
        <ele>878.77999999999997</ele>
        <time>2025-04-25T10:04:53Z</time>
      </trkpt>
      <trkpt lat="44.712645979598165" lon="2.751123011112213">
        <ele>884.07000000000005</ele>
        <time>2025-04-25T10:05:01Z</time>
      </trkpt>
      <trkpt lat="44.712010966613889" lon="2.749477978795767">
        <ele>888.88</ele>
        <time>2025-04-25T10:05:07Z</time>
      </trkpt>
      <trkpt lat="44.710845965892076" lon="2.747739991173148">
        <ele>891.75999999999999</ele>
        <time>2025-04-25T10:05:14Z</time>
      </trkpt>
      <trkpt lat="44.709870982915163" lon="2.746185986325145">
        <ele>890.32000000000005</ele>
        <time>2025-04-25T10:05:20Z</time>
      </trkpt>
      <trkpt lat="44.709829995408654" lon="2.745930003002286">
        <ele>890.32000000000005</ele>
        <time>2025-04-25T10:05:21Z</time>
      </trkpt>
      <trkpt lat="44.709809040650725" lon="2.745674019679427">
        <ele>889.84000000000003</ele>
        <time>2025-04-25T10:05:22Z</time>
      </trkpt>
      <trkpt lat="44.709814991801977" lon="2.745390040799975">
        <ele>889.84000000000003</ele>
        <time>2025-04-25T10:05:23Z</time>
      </trkpt>
      <trkpt lat="44.70982002094388" lon="2.745083011686802">
        <ele>889.36000000000001</ele>
        <time>2025-04-25T10:05:24Z</time>
      </trkpt>
      <trkpt lat="44.709807028993964" lon="2.743871994316578">
        <ele>886.95000000000005</ele>
        <time>2025-04-25T10:05:28Z</time>
      </trkpt>
      <trkpt lat="44.709752965718508" lon="2.743588015437126">
        <ele>886.47000000000003</ele>
        <time>2025-04-25T10:05:29Z</time>
      </trkpt>
      <trkpt lat="44.709693035110831" lon="2.743288027122617">
        <ele>885.50999999999999</ele>
        <time>2025-04-25T10:05:30Z</time>
      </trkpt>
      <trkpt lat="44.709570994600654" lon="2.742676986381412">
        <ele>884.07000000000005</ele>
        <time>2025-04-25T10:05:32Z</time>
      </trkpt>
      <trkpt lat="44.709558002650738" lon="2.742345985025168">
        <ele>883.59000000000003</ele>
        <time>2025-04-25T10:05:33Z</time>
      </trkpt>
      <trkpt lat="44.70941299572587" lon="2.739760000258684">
        <ele>876.86000000000001</ele>
        <time>2025-04-25T10:05:41Z</time>
      </trkpt>
      <trkpt lat="44.709360022097826" lon="2.739467974752188">
        <ele>875.41999999999996</ele>
        <time>2025-04-25T10:05:42Z</time>
      </trkpt>
      <trkpt lat="44.708673963323236" lon="2.73708701133728">
        <ele>865.79999999999995</ele>
        <time>2025-04-25T10:05:50Z</time>
      </trkpt>
      <trkpt lat="44.708149004727602" lon="2.735674995929003">
        <ele>859.08000000000004</ele>
        <time>2025-04-25T10:05:55Z</time>
      </trkpt>
      <trkpt lat="44.708084966987371" lon="2.735396968200803">
        <ele>857.63</ele>
        <time>2025-04-25T10:05:56Z</time>
      </trkpt>
      <trkpt lat="44.70805998891592" lon="2.735097985714674">
        <ele>856.19000000000005</ele>
        <time>2025-04-25T10:05:57Z</time>
      </trkpt>
      <trkpt lat="44.708120003342628" lon="2.734868992120028">
        <ele>855.23000000000002</ele>
        <time>2025-04-25T10:05:58Z</time>
      </trkpt>
      <trkpt lat="44.708199966698885" lon="2.734633041545749">
        <ele>854.26999999999998</ele>
        <time>2025-04-25T10:05:59Z</time>
      </trkpt>
      <trkpt lat="44.708300968632102" lon="2.734401030465961">
        <ele>853.30999999999995</ele>
        <time>2025-04-25T10:06:00Z</time>
      </trkpt>
      <trkpt lat="44.708774965256453" lon="2.732985997572541">
        <ele>848.01999999999998</ele>
        <time>2025-04-25T10:06:05Z</time>
      </trkpt>
      <trkpt lat="44.708843026310205" lon="2.732678968459368">
        <ele>846.58000000000004</ele>
        <time>2025-04-25T10:06:06Z</time>
      </trkpt>
      <trkpt lat="44.708855012431741" lon="2.732363976538181">
        <ele>845.62</ele>
        <time>2025-04-25T10:06:07Z</time>
      </trkpt>
      <trkpt lat="44.708844032138586" lon="2.732046972960234">
        <ele>844.17999999999995</ele>
        <time>2025-04-25T10:06:08Z</time>
      </trkpt>
      <trkpt lat="44.708770019933581" lon="2.731743967160583">
        <ele>843.21000000000004</ele>
        <time>2025-04-25T10:06:09Z</time>
      </trkpt>
      <trkpt lat="44.708678992465138" lon="2.731449007987976">
        <ele>842.25</ele>
        <time>2025-04-25T10:06:10Z</time>
      </trkpt>
      <trkpt lat="44.708586959168315" lon="2.731149019673467">
        <ele>841.28999999999996</ele>
        <time>2025-04-25T10:06:11Z</time>
      </trkpt>
      <trkpt lat="44.708326030522585" lon="2.730303034186363">
        <ele>838.88999999999999</ele>
        <time>2025-04-25T10:06:14Z</time>
      </trkpt>
      <trkpt lat="44.708283031359315" lon="2.730041015893221">
        <ele>837.45000000000005</ele>
        <time>2025-04-25T10:06:15Z</time>
      </trkpt>
      <trkpt lat="44.708283031359315" lon="2.729790983721614">
        <ele>836.48000000000002</ele>
        <time>2025-04-25T10:06:16Z</time>
      </trkpt>
      <trkpt lat="44.708321001380682" lon="2.729555033147335">
        <ele>835.03999999999996</ele>
        <time>2025-04-25T10:06:17Z</time>
      </trkpt>
      <trkpt lat="44.708399958908558" lon="2.72930902428925">
        <ele>833.60000000000002</ele>
        <time>2025-04-25T10:06:18Z</time>
      </trkpt>
      <trkpt lat="44.70848604105413" lon="2.72905102930963">
        <ele>832.15999999999997</ele>
        <time>2025-04-25T10:06:19Z</time>
      </trkpt>
      <trkpt lat="44.708582013845444" lon="2.728783981874585">
        <ele>830.72000000000003</ele>
        <time>2025-04-25T10:06:20Z</time>
      </trkpt>
      <trkpt lat="44.708721991628408" lon="2.728207977488637">
        <ele>827.35000000000002</ele>
        <time>2025-04-25T10:06:22Z</time>
      </trkpt>
      <trkpt lat="44.708776976913214" lon="2.727914024144411">
        <ele>825.90999999999997</ele>
        <time>2025-04-25T10:06:23Z</time>
      </trkpt>
      <trkpt lat="44.708762979134917" lon="2.727604983374476">
        <ele>824.47000000000003</ele>
        <time>2025-04-25T10:06:24Z</time>
      </trkpt>
      <trkpt lat="44.70874797552824" lon="2.727290997281671">
        <ele>823.02999999999997</ele>
        <time>2025-04-25T10:06:25Z</time>
      </trkpt>
      <trkpt lat="44.708732971921563" lon="2.726971982046962">
        <ele>822.05999999999995</ele>
        <time>2025-04-25T10:06:26Z</time>
      </trkpt>
      <trkpt lat="44.708593999966979" lon="2.723678983747959">
        <ele>820.62</ele>
        <time>2025-04-25T10:06:36Z</time>
      </trkpt>
      <trkpt lat="44.708615960553288" lon="2.72337899543345">
        <ele>821.10000000000002</ele>
        <time>2025-04-25T10:06:37Z</time>
      </trkpt>
      <trkpt lat="44.708605986088514" lon="2.723083030432463">
        <ele>821.10000000000002</ele>
        <time>2025-04-25T10:06:38Z</time>
      </trkpt>
      <trkpt lat="44.708548989146948" lon="2.72280097939074">
        <ele>821.10000000000002</ele>
        <time>2025-04-25T10:06:39Z</time>
      </trkpt>
      <trkpt lat="44.708439018577337" lon="2.722544996067882">
        <ele>821.10000000000002</ele>
        <time>2025-04-25T10:06:40Z</time>
      </trkpt>
      <trkpt lat="44.70829401165247" lon="2.722321031615138">
        <ele>821.58000000000004</ele>
        <time>2025-04-25T10:06:41Z</time>
      </trkpt>
      <trkpt lat="44.708140958100557" lon="2.722084997221828">
        <ele>822.05999999999995</ele>
        <time>2025-04-25T10:06:42Z</time>
      </trkpt>
      <trkpt lat="44.707602001726627" lon="2.720953021198511">
        <ele>822.05999999999995</ele>
        <time>2025-04-25T10:06:46Z</time>
      </trkpt>
      <trkpt lat="44.707545004785061" lon="2.720625959336758">
        <ele>822.54999999999995</ele>
        <time>2025-04-25T10:06:47Z</time>
      </trkpt>
      <trkpt lat="44.707491025328636" lon="2.720297975465655">
        <ele>823.02999999999997</ele>
        <time>2025-04-25T10:06:48Z</time>
      </trkpt>
      <trkpt lat="44.707150971516967" lon="2.718401988968253">
        <ele>826.38999999999999</ele>
        <time>2025-04-25T10:06:54Z</time>
      </trkpt>
      <trkpt lat="44.707081988453865" lon="2.718171989545226">
        <ele>826.87</ele>
        <time>2025-04-25T10:06:55Z</time>
      </trkpt>
      <trkpt lat="44.706959025934339" lon="2.717926986515522">
        <ele>827.35000000000002</ele>
        <time>2025-04-25T10:06:56Z</time>
      </trkpt>
      <trkpt lat="44.706822987645864" lon="2.717733029276133">
        <ele>827.83000000000004</ele>
        <time>2025-04-25T10:06:57Z</time>
      </trkpt>
      <trkpt lat="44.706668006256223" lon="2.717548962682486">
        <ele>828.30999999999995</ele>
        <time>2025-04-25T10:06:58Z</time>
      </trkpt>
      <trkpt lat="44.706474971026182" lon="2.717391969636083">
        <ele>828.78999999999996</ele>
        <time>2025-04-25T10:06:59Z</time>
      </trkpt>
      <trkpt lat="44.70627598464489" lon="2.717230031266809">
        <ele>829.75999999999999</ele>
        <time>2025-04-25T10:07:00Z</time>
      </trkpt>
      <trkpt lat="44.705907013267279" lon="2.716902969405055">
        <ele>830.24000000000001</ele>
        <time>2025-04-25T10:07:02Z</time>
      </trkpt>
      <trkpt lat="44.705753037706017" lon="2.716716974973679">
        <ele>830.24000000000001</ele>
        <time>2025-04-25T10:07:03Z</time>
      </trkpt>
      <trkpt lat="44.705646000802517" lon="2.716492004692555">
        <ele>830.72000000000003</ele>
        <time>2025-04-25T10:07:04Z</time>
      </trkpt>
      <trkpt lat="44.705549022182822" lon="2.716249013319612">
        <ele>830.72000000000003</ele>
        <time>2025-04-25T10:07:05Z</time>
      </trkpt>
      <trkpt lat="44.705443996936083" lon="2.715985989198089">
        <ele>830.72000000000003</ele>
        <time>2025-04-25T10:07:06Z</time>
      </trkpt>
      <trkpt lat="44.705178961157799" lon="2.715443009510636">
        <ele>830.72000000000003</ele>
        <time>2025-04-25T10:07:08Z</time>
      </trkpt>
      <trkpt lat="44.704587031155825" lon="2.714338023215532">
        <ele>830.72000000000003</ele>
        <time>2025-04-25T10:07:12Z</time>
      </trkpt>
      <trkpt lat="44.704483011737466" lon="2.714039040729404">
        <ele>830.72000000000003</ele>
        <time>2025-04-25T10:07:13Z</time>
      </trkpt>
      <trkpt lat="44.704383015632629" lon="2.713729999959469">
        <ele>830.24000000000001</ele>
        <time>2025-04-25T10:07:14Z</time>
      </trkpt>
      <trkpt lat="44.704291988164186" lon="2.713450966402888">
        <ele>830.24000000000001</ele>
        <time>2025-04-25T10:07:15Z</time>
      </trkpt>
      <trkpt lat="44.704256029799581" lon="2.713116025552154">
        <ele>829.75999999999999</ele>
        <time>2025-04-25T10:07:16Z</time>
      </trkpt>
      <trkpt lat="44.704229962080717" lon="2.712816959246993">
        <ele>829.75999999999999</ele>
        <time>2025-04-25T10:07:17Z</time>
      </trkpt>
      <trkpt lat="44.704245971515775" lon="2.712522000074387">
        <ele>829.26999999999998</ele>
        <time>2025-04-25T10:07:18Z</time>
      </trkpt>
      <trkpt lat="44.704314032569528" lon="2.712241960689426">
        <ele>829.26999999999998</ele>
        <time>2025-04-25T10:07:19Z</time>
      </trkpt>
      <trkpt lat="44.704397013410926" lon="2.711957981809974">
        <ele>828.78999999999996</ele>
        <time>2025-04-25T10:07:20Z</time>
      </trkpt>
      <trkpt lat="44.704479994252324" lon="2.711672997102141">
        <ele>828.78999999999996</ele>
        <time>2025-04-25T10:07:21Z</time>
      </trkpt>
      <trkpt lat="44.704611003398895" lon="2.711097998544574">
        <ele>827.35000000000002</ele>
        <time>2025-04-25T10:07:23Z</time>
      </trkpt>
      <trkpt lat="44.704638998955488" lon="2.710802033543587">
        <ele>826.38999999999999</ele>
        <time>2025-04-25T10:07:24Z</time>
      </trkpt>
      <trkpt lat="44.704640004783869" lon="2.71051000803709">
        <ele>825.42999999999995</ele>
        <time>2025-04-25T10:07:25Z</time>
      </trkpt>
      <trkpt lat="44.704592982307076" lon="2.710211025550962">
        <ele>824.47000000000003</ele>
        <time>2025-04-25T10:07:26Z</time>
      </trkpt>
      <trkpt lat="44.704493992030621" lon="2.709938026964665">
        <ele>823.99000000000001</ele>
        <time>2025-04-25T10:07:27Z</time>
      </trkpt>
      <trkpt lat="44.704392990097404" lon="2.709656981751323">
        <ele>823.02999999999997</ele>
        <time>2025-04-25T10:07:28Z</time>
      </trkpt>
      <trkpt lat="44.704186040908098" lon="2.709082989022136">
        <ele>820.13999999999999</ele>
        <time>2025-04-25T10:07:30Z</time>
      </trkpt>
      <trkpt lat="44.704113034531474" lon="2.708776965737343">
        <ele>818.70000000000005</ele>
        <time>2025-04-25T10:07:31Z</time>
      </trkpt>
      <trkpt lat="44.704090990126133" lon="2.708448981866241">
        <ele>817.25999999999999</ele>
        <time>2025-04-25T10:07:32Z</time>
      </trkpt>
      <trkpt lat="44.704015972092748" lon="2.707485985010862">
        <ele>813.40999999999997</ele>
        <time>2025-04-25T10:07:35Z</time>
      </trkpt>
      <trkpt lat="44.703937014564872" lon="2.707193959504366">
        <ele>812.45000000000005</ele>
        <time>2025-04-25T10:07:36Z</time>
      </trkpt>
      <trkpt lat="44.703823020681739" lon="2.706934958696365">
        <ele>811.00999999999999</ele>
        <time>2025-04-25T10:07:37Z</time>
      </trkpt>
      <trkpt lat="44.70367600210011" lon="2.706704959273338">
        <ele>810.04999999999995</ele>
        <time>2025-04-25T10:07:38Z</time>
      </trkpt>
      <trkpt lat="44.703523032367229" lon="2.706508990377188">
        <ele>809.09000000000003</ele>
        <time>2025-04-25T10:07:39Z</time>
      </trkpt>
      <trkpt lat="44.703339971601963" lon="2.70636297762394">
        <ele>808.13</ele>
        <time>2025-04-25T10:07:40Z</time>
      </trkpt>
      <trkpt lat="44.70313997939229" lon="2.706247977912426">
        <ele>807.15999999999997</ele>
        <time>2025-04-25T10:07:41Z</time>
      </trkpt>
      <trkpt lat="44.702937975525856" lon="2.706132978200913">
        <ele>806.20000000000005</ele>
        <time>2025-04-25T10:07:42Z</time>
      </trkpt>
      <trkpt lat="44.701526965945959" lon="2.704975018277764">
        <ele>800.91999999999996</ele>
        <time>2025-04-25T10:07:49Z</time>
      </trkpt>
      <trkpt lat="44.700630018487573" lon="2.704024007543922">
        <ele>797.54999999999995</ele>
        <time>2025-04-25T10:07:54Z</time>
      </trkpt>
      <trkpt lat="44.700498003512621" lon="2.703768024221063">
        <ele>797.07000000000005</ele>
        <time>2025-04-25T10:07:55Z</time>
      </trkpt>
      <trkpt lat="44.700360959395766" lon="2.703501982614398">
        <ele>796.11000000000001</ele>
        <time>2025-04-25T10:07:56Z</time>
      </trkpt>
      <trkpt lat="44.700229028239846" lon="2.703214986249805">
        <ele>795.63</ele>
        <time>2025-04-25T10:07:57Z</time>
      </trkpt>
      <trkpt lat="44.700120985507965" lon="2.702892031520605">
        <ele>794.66999999999996</ele>
        <time>2025-04-25T10:07:58Z</time>
      </trkpt>
      <trkpt lat="44.699074001982808" lon="2.699778992682695">
        <ele>784.09000000000003</ele>
        <time>2025-04-25T10:08:07Z</time>
      </trkpt>
      <trkpt lat="44.698005979880691" lon="2.696938030421734">
        <ele>779.28999999999996</ele>
        <time>2025-04-25T10:08:16Z</time>
      </trkpt>
      <trkpt lat="44.696102030575275" lon="2.693464988842607">
        <ele>778.80999999999995</ele>
        <time>2025-04-25T10:08:28Z</time>
      </trkpt>
      <trkpt lat="44.69529502093792" lon="2.692510960623622">
        <ele>775.91999999999996</ele>
        <time>2025-04-25T10:08:32Z</time>
      </trkpt>
      <trkpt lat="44.694010997191072" lon="2.691361969336867">
        <ele>772.08000000000004</ele>
        <time>2025-04-25T10:08:38Z</time>
      </trkpt>
      <trkpt lat="44.693783009424806" lon="2.691265996545553">
        <ele>771.60000000000002</ele>
        <time>2025-04-25T10:08:39Z</time>
      </trkpt>
      <trkpt lat="44.693546975031495" lon="2.691187039017677">
        <ele>771.11000000000001</ele>
        <time>2025-04-25T10:08:40Z</time>
      </trkpt>
      <trkpt lat="44.692096989601851" lon="2.690853020176292">
        <ele>768.23000000000002</ele>
        <time>2025-04-25T10:08:46Z</time>
      </trkpt>
      <trkpt lat="44.691891968250275" lon="2.690731985494494">
        <ele>767.75</ele>
        <time>2025-04-25T10:08:47Z</time>
      </trkpt>
      <trkpt lat="44.691697005182505" lon="2.690598964691162">
        <ele>767.26999999999998</ele>
        <time>2025-04-25T10:08:48Z</time>
      </trkpt>
      <trkpt lat="44.691525008529425" lon="2.690426968038082">
        <ele>766.78999999999996</ele>
        <time>2025-04-25T10:08:49Z</time>
      </trkpt>
      <trkpt lat="44.691372960805893" lon="2.690164027735591">
        <ele>766.30999999999995</ele>
        <time>2025-04-25T10:08:50Z</time>
      </trkpt>
      <trkpt lat="44.691228037700057" lon="2.689912989735603">
        <ele>765.83000000000004</ele>
        <time>2025-04-25T10:08:51Z</time>
      </trkpt>
      <trkpt lat="44.69115000218153" lon="2.689623981714249">
        <ele>765.83000000000004</ele>
        <time>2025-04-25T10:08:52Z</time>
      </trkpt>
      <trkpt lat="44.691084958612919" lon="2.689320975914598">
        <ele>765.83000000000004</ele>
        <time>2025-04-25T10:08:53Z</time>
      </trkpt>
      <trkpt lat="44.691028967499733" lon="2.689026016741991">
        <ele>765.83000000000004</ele>
        <time>2025-04-25T10:08:54Z</time>
      </trkpt>
      <trkpt lat="44.691013041883707" lon="2.688714964315295">
        <ele>765.83000000000004</ele>
        <time>2025-04-25T10:08:55Z</time>
      </trkpt>
      <trkpt lat="44.691027961671352" lon="2.688412964344025">
        <ele>766.30999999999995</ele>
        <time>2025-04-25T10:08:56Z</time>
      </trkpt>
      <trkpt lat="44.691050006076694" lon="2.688109958544374">
        <ele>766.30999999999995</ele>
        <time>2025-04-25T10:08:57Z</time>
      </trkpt>
      <trkpt lat="44.691136004403234" lon="2.687833020463586">
        <ele>766.78999999999996</ele>
        <time>2025-04-25T10:08:58Z</time>
      </trkpt>
      <trkpt lat="44.691237006336451" lon="2.687550969421864">
        <ele>767.26999999999998</ele>
        <time>2025-04-25T10:08:59Z</time>
      </trkpt>
      <trkpt lat="44.691338008269668" lon="2.687265984714031">
        <ele>767.75</ele>
        <time>2025-04-25T10:09:00Z</time>
      </trkpt>
      <trkpt lat="44.691440016031265" lon="2.686979994177818">
        <ele>768.23000000000002</ele>
        <time>2025-04-25T10:09:01Z</time>
      </trkpt>
      <trkpt lat="44.691541017964482" lon="2.686697021126747">
        <ele>768.71000000000004</ele>
        <time>2025-04-25T10:09:02Z</time>
      </trkpt>
      <trkpt lat="44.691635984927416" lon="2.686407007277012">
        <ele>769.19000000000005</ele>
        <time>2025-04-25T10:09:03Z</time>
      </trkpt>
      <trkpt lat="44.692103024572134" lon="2.683670986443758">
        <ele>769.66999999999996</ele>
        <time>2025-04-25T10:09:11Z</time>
      </trkpt>
      <trkpt lat="44.692623959854245" lon="2.680270029231906">
        <ele>768.23000000000002</ele>
        <time>2025-04-25T10:09:21Z</time>
      </trkpt>
      <trkpt lat="44.692713981494308" lon="2.679332010447979">
        <ele>767.26999999999998</ele>
        <time>2025-04-25T10:09:24Z</time>
      </trkpt>
      <trkpt lat="44.692686991766095" lon="2.679021963849664">
        <ele>766.78999999999996</ele>
        <time>2025-04-25T10:09:25Z</time>
      </trkpt>
      <trkpt lat="44.692629994824529" lon="2.678710995242">
        <ele>765.83000000000004</ele>
        <time>2025-04-25T10:09:26Z</time>
      </trkpt>
      <trkpt lat="44.692543996497989" lon="2.678412012755871">
        <ele>765.83000000000004</ele>
        <time>2025-04-25T10:09:27Z</time>
      </trkpt>
      <trkpt lat="44.692426985129714" lon="2.678134990856051">
        <ele>764.87</ele>
        <time>2025-04-25T10:09:28Z</time>
      </trkpt>
      <trkpt lat="44.692276027053595" lon="2.67757399007678">
        <ele>763.89999999999998</ele>
        <time>2025-04-25T10:09:30Z</time>
      </trkpt>
      <trkpt lat="44.692261023446918" lon="2.67729202285409">
        <ele>763.89999999999998</ele>
        <time>2025-04-25T10:09:31Z</time>
      </trkpt>
      <trkpt lat="44.69224601984024" lon="2.677004020661116">
        <ele>763.89999999999998</ele>
        <time>2025-04-25T10:09:32Z</time>
      </trkpt>
      <trkpt lat="44.692214000970125" lon="2.676385017111898">
        <ele>763.41999999999996</ele>
        <time>2025-04-25T10:09:34Z</time>
      </trkpt>
      <trkpt lat="44.692168990150094" lon="2.676050998270512">
        <ele>763.41999999999996</ele>
        <time>2025-04-25T10:09:35Z</time>
      </trkpt>
      <trkpt lat="44.692069999873638" lon="2.675770958885551">
        <ele>762.94000000000005</ele>
        <time>2025-04-25T10:09:36Z</time>
      </trkpt>
      <trkpt lat="44.691491983830929" lon="2.673792997375131">
        <ele>762.94000000000005</ele>
        <time>2025-04-25T10:09:42Z</time>
      </trkpt>
      <trkpt lat="44.690779019147158" lon="2.670942982658744">
        <ele>760.53999999999996</ele>
        <time>2025-04-25T10:09:51Z</time>
      </trkpt>
      <trkpt lat="44.690110981464386" lon="2.668331013992429">
        <ele>757.65999999999997</ele>
        <time>2025-04-25T10:10:00Z</time>
      </trkpt>
      <trkpt lat="44.689350994303823" lon="2.66530497930944">
        <ele>752.85000000000002</ele>
        <time>2025-04-25T10:10:10Z</time>
      </trkpt>
      <trkpt lat="44.689159970730543" lon="2.664456982165575">
        <ele>751.88999999999999</ele>
        <time>2025-04-25T10:10:15Z</time>
      </trkpt>
      <trkpt lat="44.689141027629375" lon="2.664299989119172">
        <ele>751.88999999999999</ele>
        <time>2025-04-25T10:10:16Z</time>
      </trkpt>
      <trkpt lat="44.689123006537557" lon="2.664149031043053">
        <ele>751.40999999999997</ele>
        <time>2025-04-25T10:10:17Z</time>
      </trkpt>
      <trkpt lat="44.689139015972614" lon="2.663991032168269">
        <ele>750.92999999999995</ele>
        <time>2025-04-25T10:10:18Z</time>
      </trkpt>
      <trkpt lat="44.689157037064433" lon="2.66382297500968">
        <ele>750.92999999999995</ele>
        <time>2025-04-25T10:10:19Z</time>
      </trkpt>
      <trkpt lat="44.689175980165601" lon="2.663655001670122">
        <ele>750.92999999999995</ele>
        <time>2025-04-25T10:10:20Z</time>
      </trkpt>
      <trkpt lat="44.689275976270437" lon="2.663014037534595">
        <ele>750.45000000000005</ele>
        <time>2025-04-25T10:10:24Z</time>
      </trkpt>
      <trkpt lat="44.689320987090468" lon="2.662877999246121">
        <ele>749.97000000000003</ele>
        <time>2025-04-25T10:10:25Z</time>
      </trkpt>
      <trkpt lat="44.689374966546893" lon="2.662765011191368">
        <ele>749.97000000000003</ele>
        <time>2025-04-25T10:10:26Z</time>
      </trkpt>
      <trkpt lat="44.68942902982235" lon="2.662671972066164">
        <ele>749.49000000000001</ele>
        <time>2025-04-25T10:10:27Z</time>
      </trkpt>
      <trkpt lat="44.689479991793633" lon="2.662583040073514">
        <ele>749.49000000000001</ele>
        <time>2025-04-25T10:10:28Z</time>
      </trkpt>
      <trkpt lat="44.690078962594271" lon="2.661509988829494">
        <ele>748.51999999999998</ele>
        <time>2025-04-25T10:10:40Z</time>
      </trkpt>
      <trkpt lat="44.690178036689758" lon="2.66132902354002">
        <ele>748.51999999999998</ele>
        <time>2025-04-25T10:10:42Z</time>
      </trkpt>
      <trkpt lat="44.690263029187918" lon="2.661142023280263">
        <ele>748.51999999999998</ele>
        <time>2025-04-25T10:10:44Z</time>
      </trkpt>
      <trkpt lat="44.690274009481072" lon="2.661030041053891">
        <ele>748.51999999999998</ele>
        <time>2025-04-25T10:10:45Z</time>
      </trkpt>
      <trkpt lat="44.690274009481072" lon="2.660925015807152">
        <ele>748.03999999999996</ele>
        <time>2025-04-25T10:10:46Z</time>
      </trkpt>
      <trkpt lat="44.690255988389254" lon="2.660812027752399">
        <ele>748.03999999999996</ele>
        <time>2025-04-25T10:10:47Z</time>
      </trkpt>
      <trkpt lat="44.690236961469054" lon="2.660698033869267">
        <ele>747.55999999999995</ele>
        <time>2025-04-25T10:10:48Z</time>
      </trkpt>
      <trkpt lat="44.690218018367887" lon="2.660582028329372">
        <ele>747.55999999999995</ele>
        <time>2025-04-25T10:10:49Z</time>
      </trkpt>
      <trkpt lat="44.690199997276068" lon="2.66047197394073">
        <ele>747.08000000000004</ele>
        <time>2025-04-25T10:10:50Z</time>
      </trkpt>
      <trkpt lat="44.689991036430001" lon="2.659304039552808">
        <ele>743.72000000000003</ele>
        <time>2025-04-25T10:11:02Z</time>
      </trkpt>
      <trkpt lat="44.689973015338182" lon="2.659208988770843">
        <ele>743.24000000000001</ele>
        <time>2025-04-25T10:11:03Z</time>
      </trkpt>
      <trkpt lat="44.689956000074744" lon="2.65911502763629">
        <ele>742.75999999999999</ele>
        <time>2025-04-25T10:11:04Z</time>
      </trkpt>
      <trkpt lat="44.689936973154545" lon="2.659013019874692">
        <ele>742.27999999999997</ele>
        <time>2025-04-25T10:11:05Z</time>
      </trkpt>
      <trkpt lat="44.689896991476417" lon="2.658826019614935">
        <ele>741.30999999999995</ele>
        <time>2025-04-25T10:11:07Z</time>
      </trkpt>
      <trkpt lat="44.689801018685102" lon="2.658372977748513">
        <ele>739.38999999999999</ele>
        <time>2025-04-25T10:11:12Z</time>
      </trkpt>
      <trkpt lat="44.68977402895689" lon="2.658293014392257">
        <ele>739.38999999999999</ele>
        <time>2025-04-25T10:11:13Z</time>
      </trkpt>
      <trkpt lat="44.689722983166575" lon="2.658240962773562">
        <ele>738.90999999999997</ele>
        <time>2025-04-25T10:11:14Z</time>
      </trkpt>
      <trkpt lat="44.689678978174925" lon="2.658197041600943">
        <ele>738.90999999999997</ele>
        <time>2025-04-25T10:11:15Z</time>
      </trkpt>
      <trkpt lat="44.689629022032022" lon="2.658147001639009">
        <ele>738.90999999999997</ele>
        <time>2025-04-25T10:11:16Z</time>
      </trkpt>
      <trkpt lat="44.689574036747217" lon="2.658112971112132">
        <ele>738.90999999999997</ele>
        <time>2025-04-25T10:11:17Z</time>
      </trkpt>
      <trkpt lat="44.68951603397727" lon="2.658083969727159">
        <ele>738.42999999999995</ele>
        <time>2025-04-25T10:11:18Z</time>
      </trkpt>
      <trkpt lat="44.689326016232371" lon="2.658015992492437">
        <ele>738.42999999999995</ele>
        <time>2025-04-25T10:11:21Z</time>
      </trkpt>
      <trkpt lat="44.68926097266376" lon="2.658006018027663">
        <ele>738.42999999999995</ele>
        <time>2025-04-25T10:11:22Z</time>
      </trkpt>
      <trkpt lat="44.689207999035716" lon="2.658005012199283">
        <ele>737.95000000000005</ele>
        <time>2025-04-25T10:11:23Z</time>
      </trkpt>
      <trkpt lat="44.689148990437388" lon="2.65806301496923">
        <ele>737.47000000000003</ele>
        <time>2025-04-25T10:11:24Z</time>
      </trkpt>
      <trkpt lat="44.689094005152583" lon="2.658119006082416">
        <ele>736.99000000000001</ele>
        <time>2025-04-25T10:11:25Z</time>
      </trkpt>
      <trkpt lat="44.689034996554255" lon="2.658177008852363">
        <ele>736.50999999999999</ele>
        <time>2025-04-25T10:11:26Z</time>
      </trkpt>
      <trkpt lat="44.688976993784308" lon="2.65823601745069">
        <ele>735.54999999999995</ele>
        <time>2025-04-25T10:11:27Z</time>
      </trkpt>
      <trkpt lat="44.688925025984645" lon="2.658286979421973">
        <ele>735.07000000000005</ele>
        <time>2025-04-25T10:11:28Z</time>
      </trkpt>
      <trkpt lat="44.688730984926224" lon="2.658481020480394">
        <ele>731.70000000000005</ele>
        <time>2025-04-25T10:11:35Z</time>
      </trkpt>
      <trkpt lat="44.688730984926224" lon="2.658481020480394">
        <ele>731.70000000000005</ele>
        <time>2025-04-25T10:11:55Z</time>
      </trkpt>
      <trkpt lat="44.688713969662786" lon="2.658379012718797">
        <ele>733.62</ele>
        <time>2025-04-25T10:22:07Z</time>
      </trkpt>
      <trkpt lat="44.688691003248096" lon="2.658382030203939">
        <ele>744.20000000000005</ele>
        <time>2025-04-25T10:22:39Z</time>
      </trkpt>
      <trkpt lat="44.688720004633069" lon="2.658410025760531">
        <ele>751.88999999999999</ele>
        <time>2025-04-25T10:23:14Z</time>
      </trkpt>
      <trkpt lat="44.688754035159945" lon="2.658454030752182">
        <ele>752.37</ele>
        <time>2025-04-25T10:23:42Z</time>
      </trkpt>
      <trkpt lat="44.688755040988326" lon="2.658460987731814">
        <ele>752.85000000000002</ele>
        <time>2025-04-25T10:24:27Z</time>
      </trkpt>
      <trkpt lat="44.688753029331565" lon="2.658456964418292">
        <ele>752.37</ele>
        <time>2025-04-25T10:25:19Z</time>
      </trkpt>
      <trkpt lat="44.688751017674804" lon="2.658455036580563">
        <ele>752.37</ele>
        <time>2025-04-25T10:25:54Z</time>
      </trkpt>
      <trkpt lat="44.688753029331565" lon="2.658454030752182">
        <ele>752.37</ele>
        <time>2025-04-25T10:26:47Z</time>
      </trkpt>
      <trkpt lat="44.688752023503184" lon="2.65845101326704">
        <ele>751.88999999999999</ele>
        <time>2025-04-25T10:27:41Z</time>
      </trkpt>
      <trkpt lat="44.688755040988326" lon="2.658454030752182">
        <ele>751.88999999999999</ele>
        <time>2025-04-25T10:28:14Z</time>
      </trkpt>
      <trkpt lat="44.688735008239746" lon="2.658476997166872">
        <ele>748.03999999999996</ele>
        <time>2025-04-25T10:28:30Z</time>
      </trkpt>
      <trkpt lat="44.688725033774972" lon="2.658487977460027">
        <ele>748.03999999999996</ele>
        <time>2025-04-25T10:28:31Z</time>
      </trkpt>
      <trkpt lat="44.688706006854773" lon="2.658507004380226">
        <ele>748.03999999999996</ele>
        <time>2025-04-25T10:28:32Z</time>
      </trkpt>
      <trkpt lat="44.688669964671135" lon="2.658542040735483">
        <ele>747.08000000000004</ele>
        <time>2025-04-25T10:28:33Z</time>
      </trkpt>
      <trkpt lat="44.688629982993007" lon="2.658582022413611">
        <ele>746.60000000000002</ele>
        <time>2025-04-25T10:28:34Z</time>
      </trkpt>
      <trkpt lat="44.688582038506866" lon="2.658629966899753">
        <ele>745.63999999999999</ele>
        <time>2025-04-25T10:28:35Z</time>
      </trkpt>
      <trkpt lat="44.688527975231409" lon="2.65868897549808">
        <ele>745.15999999999997</ele>
        <time>2025-04-25T10:28:36Z</time>
      </trkpt>
      <trkpt lat="44.688060013577342" lon="2.659135982394218">
        <ele>740.83000000000004</ele>
        <time>2025-04-25T10:28:43Z</time>
      </trkpt>
      <trkpt lat="44.687918024137616" lon="2.659264979884028">
        <ele>740.83000000000004</ele>
        <time>2025-04-25T10:28:45Z</time>
      </trkpt>
      <trkpt lat="44.687849963083863" lon="2.659327005967498">
        <ele>740.83000000000004</ele>
        <time>2025-04-25T10:28:46Z</time>
      </trkpt>
      <trkpt lat="44.687727000564337" lon="2.659314014017582">
        <ele>740.83000000000004</ele>
        <time>2025-04-25T10:28:47Z</time>
      </trkpt>
      <trkpt lat="44.68756296671927" lon="2.659291969612241">
        <ele>739.87</ele>
        <time>2025-04-25T10:28:49Z</time>
      </trkpt>
      <trkpt lat="44.687447967007756" lon="2.659291969612241">
        <ele>739.38999999999999</ele>
        <time>2025-04-25T10:28:50Z</time>
      </trkpt>
      <trkpt lat="44.687029039487243" lon="2.659291969612241">
        <ele>735.54999999999995</ele>
        <time>2025-04-25T10:28:54Z</time>
      </trkpt>
      <trkpt lat="44.686926025897264" lon="2.659273026511073">
        <ele>735.07000000000005</ele>
        <time>2025-04-25T10:28:55Z</time>
      </trkpt>
      <trkpt lat="44.686437025666237" lon="2.659077979624271">
        <ele>732.65999999999997</ele>
        <time>2025-04-25T10:29:00Z</time>
      </trkpt>
      <trkpt lat="44.686334012076259" lon="2.659037997946143">
        <ele>732.17999999999995</ele>
        <time>2025-04-25T10:29:01Z</time>
      </trkpt>
      <trkpt lat="44.685311000794172" lon="2.65862200409174">
        <ele>730.25999999999999</ele>
        <time>2025-04-25T10:29:10Z</time>
      </trkpt>
      <trkpt lat="44.685068009421229" lon="2.658501975238323">
        <ele>729.77999999999997</ele>
        <time>2025-04-25T10:29:12Z</time>
      </trkpt>
      <trkpt lat="44.684958960860968" lon="2.658433998003602">
        <ele>729.29999999999995</ele>
        <time>2025-04-25T10:29:13Z</time>
      </trkpt>
      <trkpt lat="44.684857036918402" lon="2.658297959715128">
        <ele>728.34000000000003</ele>
        <time>2025-04-25T10:29:14Z</time>
      </trkpt>
      <trkpt lat="44.684803979471326" lon="2.658173991367221">
        <ele>727.86000000000001</ele>
        <time>2025-04-25T10:29:15Z</time>
      </trkpt>
      <trkpt lat="44.684766009449959" lon="2.658048011362553">
        <ele>727.37</ele>
        <time>2025-04-25T10:29:16Z</time>
      </trkpt>
      <trkpt lat="44.684774978086352" lon="2.657907027751207">
        <ele>726.40999999999997</ele>
        <time>2025-04-25T10:29:17Z</time>
      </trkpt>
      <trkpt lat="44.684786964207888" lon="2.65774198807776">
        <ele>725.92999999999995</ele>
        <time>2025-04-25T10:29:18Z</time>
      </trkpt>
      <trkpt lat="44.684799034148455" lon="2.657564040273428">
        <ele>724.97000000000003</ele>
        <time>2025-04-25T10:29:19Z</time>
      </trkpt>
      <trkpt lat="44.684812026098371" lon="2.657373016700149">
        <ele>724.00999999999999</ele>
        <time>2025-04-25T10:29:20Z</time>
      </trkpt>
      <trkpt lat="44.684870028868318" lon="2.656231988221407">
        <ele>718.72000000000003</ele>
        <time>2025-04-25T10:29:26Z</time>
      </trkpt>
      <trkpt lat="44.684852007776499" lon="2.656138027086854">
        <ele>718.24000000000001</ele>
        <time>2025-04-25T10:29:27Z</time>
      </trkpt>
      <trkpt lat="44.684743965044618" lon="2.656030990183353">
        <ele>717.27999999999997</ele>
        <time>2025-04-25T10:29:28Z</time>
      </trkpt>
      <trkpt lat="44.684658972546458" lon="2.655944991856813">
        <ele>716.32000000000005</ele>
        <time>2025-04-25T10:29:29Z</time>
      </trkpt>
      <trkpt lat="44.684588983654976" lon="2.655944991856813">
        <ele>715.84000000000003</ele>
        <time>2025-04-25T10:29:30Z</time>
      </trkpt>
      <trkpt lat="44.684468032792211" lon="2.655944991856813">
        <ele>714.39999999999998</ele>
        <time>2025-04-25T10:29:31Z</time>
      </trkpt>
      <trkpt lat="44.684337023645639" lon="2.655944991856813">
        <ele>712.95000000000005</ele>
        <time>2025-04-25T10:29:32Z</time>
      </trkpt>
      <trkpt lat="44.684251025319099" lon="2.655983967706561">
        <ele>711.50999999999999</ele>
        <time>2025-04-25T10:29:33Z</time>
      </trkpt>
      <trkpt lat="44.684138037264347" lon="2.656035013496876">
        <ele>710.07000000000005</ele>
        <time>2025-04-25T10:29:34Z</time>
      </trkpt>
      <trkpt lat="44.684023037552834" lon="2.65608798712492">
        <ele>709.11000000000001</ele>
        <time>2025-04-25T10:29:35Z</time>
      </trkpt>
      <trkpt lat="44.68386503867805" lon="2.656158981844783">
        <ele>708.14999999999998</ele>
        <time>2025-04-25T10:29:36Z</time>
      </trkpt>
      <trkpt lat="44.683744003996253" lon="2.656169962137938">
        <ele>706.71000000000004</ele>
        <time>2025-04-25T10:29:37Z</time>
      </trkpt>
      <trkpt lat="44.683554992079735" lon="2.656114976853132">
        <ele>705.75</ele>
        <time>2025-04-25T10:29:38Z</time>
      </trkpt>
      <trkpt lat="44.683434963226318" lon="2.656009029597044">
        <ele>704.29999999999995</ele>
        <time>2025-04-25T10:29:39Z</time>
      </trkpt>
      <trkpt lat="44.683332033455372" lon="2.655842984095216">
        <ele>703.34000000000003</ele>
        <time>2025-04-25T10:29:40Z</time>
      </trkpt>
      <trkpt lat="44.683218961581588" lon="2.655665036290884">
        <ele>701.89999999999998</ele>
        <time>2025-04-25T10:29:41Z</time>
      </trkpt>
      <trkpt lat="44.682933976873755" lon="2.655507037416101">
        <ele>699.5</ele>
        <time>2025-04-25T10:29:43Z</time>
      </trkpt>
      <trkpt lat="44.682756029069424" lon="2.655479041859508">
        <ele>698.52999999999997</ele>
        <time>2025-04-25T10:29:44Z</time>
      </trkpt>
      <trkpt lat="44.682615967467427" lon="2.655527992174029">
        <ele>697.09000000000003</ele>
        <time>2025-04-25T10:29:45Z</time>
      </trkpt>
      <trkpt lat="44.682472972199321" lon="2.655578032135963">
        <ele>695.64999999999998</ele>
        <time>2025-04-25T10:29:46Z</time>
      </trkpt>
      <trkpt lat="44.682324025779963" lon="2.655629999935627">
        <ele>694.69000000000005</ele>
        <time>2025-04-25T10:29:47Z</time>
      </trkpt>
      <trkpt lat="44.681848017498851" lon="2.655826974660158">
        <ele>690.84000000000003</ele>
        <time>2025-04-25T10:29:50Z</time>
      </trkpt>
      <trkpt lat="44.681368991732597" lon="2.656059991568327">
        <ele>686.51999999999998</ele>
        <time>2025-04-25T10:29:53Z</time>
      </trkpt>
      <trkpt lat="44.68122499063611" lon="2.656073989346623">
        <ele>685.08000000000004</ele>
        <time>2025-04-25T10:29:54Z</time>
      </trkpt>
      <trkpt lat="44.681063974276185" lon="2.655993020161986">
        <ele>684.12</ele>
        <time>2025-04-25T10:29:55Z</time>
      </trkpt>
      <trkpt lat="44.680926008149981" lon="2.655887994915247">
        <ele>683.14999999999998</ele>
        <time>2025-04-25T10:29:56Z</time>
      </trkpt>
      <trkpt lat="44.680781001225114" lon="2.655752962455154">
        <ele>682.19000000000005</ele>
        <time>2025-04-25T10:29:57Z</time>
      </trkpt>
      <trkpt lat="44.680634988471866" lon="2.655618013814092">
        <ele>681.23000000000002</ele>
        <time>2025-04-25T10:29:58Z</time>
      </trkpt>
      <trkpt lat="44.680496016517282" lon="2.655489016324282">
        <ele>680.26999999999998</ele>
        <time>2025-04-25T10:29:59Z</time>
      </trkpt>
      <trkpt lat="44.680340029299259" lon="2.65537703409791">
        <ele>679.30999999999995</ele>
        <time>2025-04-25T10:30:00Z</time>
      </trkpt>
      <trkpt lat="44.680143976584077" lon="2.655306039378047">
        <ele>677.87</ele>
        <time>2025-04-25T10:30:01Z</time>
      </trkpt>
      <trkpt lat="44.679938033223152" lon="2.655344009399414">
        <ele>676.90999999999997</ele>
        <time>2025-04-25T10:30:02Z</time>
      </trkpt>
      <trkpt lat="44.679757989943027" lon="2.655522963032126">
        <ele>675.94000000000005</ele>
        <time>2025-04-25T10:30:03Z</time>
      </trkpt>
      <trkpt lat="44.679680038243532" lon="2.655665958300233">
        <ele>674.98000000000002</ele>
        <time>2025-04-25T10:30:04Z</time>
      </trkpt>
      <trkpt lat="44.679749021306634" lon="2.655998971313238">
        <ele>673.53999999999996</ele>
        <time>2025-04-25T10:30:05Z</time>
      </trkpt>
      <trkpt lat="44.679787997156382" lon="2.656189994886518">
        <ele>672.58000000000004</ele>
        <time>2025-04-25T10:30:06Z</time>
      </trkpt>
      <trkpt lat="44.679820016026497" lon="2.656494006514549">
        <ele>671.13999999999999</ele>
        <time>2025-04-25T10:30:07Z</time>
      </trkpt>
      <trkpt lat="44.679794032126665" lon="2.656747978180647">
        <ele>669.70000000000005</ele>
        <time>2025-04-25T10:30:08Z</time>
      </trkpt>
      <trkpt lat="44.679684983566403" lon="2.657026005908847">
        <ele>668.25</ele>
        <time>2025-04-25T10:30:09Z</time>
      </trkpt>
      <trkpt lat="44.679583981633186" lon="2.657245025038719">
        <ele>666.80999999999995</ele>
        <time>2025-04-25T10:30:10Z</time>
      </trkpt>
      <trkpt lat="44.679487003013492" lon="2.657454991713166">
        <ele>665.37</ele>
        <time>2025-04-25T10:30:11Z</time>
      </trkpt>
      <trkpt lat="44.679389018565416" lon="2.657650960609317">
        <ele>664.40999999999997</ele>
        <time>2025-04-25T10:30:12Z</time>
      </trkpt>
      <trkpt lat="44.679257003590465" lon="2.657769983634353">
        <ele>662.97000000000003</ele>
        <time>2025-04-25T10:30:13Z</time>
      </trkpt>
      <trkpt lat="44.679100010544062" lon="2.65784801915288">
        <ele>661.51999999999998</ele>
        <time>2025-04-25T10:30:14Z</time>
      </trkpt>
      <trkpt lat="44.678934970870614" lon="2.657842990010977">
        <ele>660.55999999999995</ele>
        <time>2025-04-25T10:30:15Z</time>
      </trkpt>
      <trkpt lat="44.678768003359437" lon="2.657796973362565">
        <ele>660.08000000000004</ele>
        <time>2025-04-25T10:30:16Z</time>
      </trkpt>
      <trkpt lat="44.678636994212866" lon="2.6576569955796">
        <ele>659.60000000000002</ele>
        <time>2025-04-25T10:30:17Z</time>
      </trkpt>
      <trkpt lat="44.678528029471636" lon="2.657479969784617">
        <ele>659.12</ele>
        <time>2025-04-25T10:30:18Z</time>
      </trkpt>
      <trkpt lat="44.678329965099692" lon="2.657264973968267">
        <ele>659.12</ele>
        <time>2025-04-25T10:30:19Z</time>
      </trkpt>
      <trkpt lat="44.678078005090356" lon="2.657305039465427">
        <ele>658.63999999999999</ele>
        <time>2025-04-25T10:30:20Z</time>
      </trkpt>
      <trkpt lat="44.677925035357475" lon="2.657502014189959">
        <ele>658.63999999999999</ele>
        <time>2025-04-25T10:30:21Z</time>
      </trkpt>
      <trkpt lat="44.677814980968833" lon="2.657664958387613">
        <ele>658.63999999999999</ele>
        <time>2025-04-25T10:30:22Z</time>
      </trkpt>
      <trkpt lat="44.677690006792545" lon="2.65784902498126">
        <ele>658.63999999999999</ele>
        <time>2025-04-25T10:30:23Z</time>
      </trkpt>
      <trkpt lat="44.677555980160832" lon="2.658048011362553">
        <ele>658.15999999999997</ele>
        <time>2025-04-25T10:30:24Z</time>
      </trkpt>
      <trkpt lat="44.677367974072695" lon="2.658180026337504">
        <ele>657.67999999999995</ele>
        <time>2025-04-25T10:30:25Z</time>
      </trkpt>
      <trkpt lat="44.677183991298079" lon="2.658306006342173">
        <ele>656.72000000000003</ele>
        <time>2025-04-25T10:30:26Z</time>
      </trkpt>
      <trkpt lat="44.676985004916787" lon="2.658327966928482">
        <ele>656.72000000000003</ele>
        <time>2025-04-25T10:30:27Z</time>
      </trkpt>
      <trkpt lat="44.67677503824234" lon="2.658337019383907">
        <ele>655.75999999999999</ele>
        <time>2025-04-25T10:30:28Z</time>
      </trkpt>
      <trkpt lat="44.67658300884068" lon="2.658265018835664">
        <ele>655.27999999999997</ele>
        <time>2025-04-25T10:30:29Z</time>
      </trkpt>
      <trkpt lat="44.676392991095781" lon="2.658147001639009">
        <ele>655.27999999999997</ele>
        <time>2025-04-25T10:30:30Z</time>
      </trkpt>
      <trkpt lat="44.676229041069746" lon="2.657975004985929">
        <ele>654.79999999999995</ele>
        <time>2025-04-25T10:30:31Z</time>
      </trkpt>
      <trkpt lat="44.676077999174595" lon="2.657816000282764">
        <ele>654.30999999999995</ele>
        <time>2025-04-25T10:30:32Z</time>
      </trkpt>
      <trkpt lat="44.675955036655068" lon="2.657603016123176">
        <ele>653.83000000000004</ele>
        <time>2025-04-25T10:30:33Z</time>
      </trkpt>
      <trkpt lat="44.675872977823019" lon="2.657360024750233">
        <ele>653.35000000000002</ele>
        <time>2025-04-25T10:30:34Z</time>
      </trkpt>
      <trkpt lat="44.675849005579948" lon="2.657131031155586">
        <ele>652.87</ele>
        <time>2025-04-25T10:30:35Z</time>
      </trkpt>
      <trkpt lat="44.675882030278444" lon="2.656857026740909">
        <ele>652.38999999999999</ele>
        <time>2025-04-25T10:30:36Z</time>
      </trkpt>
      <trkpt lat="44.675978003069758" lon="2.656618980690837">
        <ele>651.90999999999997</ele>
        <time>2025-04-25T10:30:37Z</time>
      </trkpt>
      <trkpt lat="44.676093002781272" lon="2.656399039551616">
        <ele>651.42999999999995</ele>
        <time>2025-04-25T10:30:38Z</time>
      </trkpt>
      <trkpt lat="44.676198028028011" lon="2.656172979623079">
        <ele>651.42999999999995</ele>
        <time>2025-04-25T10:30:39Z</time>
      </trkpt>
      <trkpt lat="44.676291989162564" lon="2.655954966321588">
        <ele>651.42999999999995</ele>
        <time>2025-04-25T10:30:40Z</time>
      </trkpt>
      <trkpt lat="44.676471026614308" lon="2.655536960810423">
        <ele>650.47000000000003</ele>
        <time>2025-04-25T10:30:42Z</time>
      </trkpt>
      <trkpt lat="44.676541015505791" lon="2.655318025499582">
        <ele>650.47000000000003</ele>
        <time>2025-04-25T10:30:43Z</time>
      </trkpt>
      <trkpt lat="44.676565993577242" lon="2.655081991106272">
        <ele>649.99000000000001</ele>
        <time>2025-04-25T10:30:44Z</time>
      </trkpt>
      <trkpt lat="44.676556019112468" lon="2.654834976419807">
        <ele>649.99000000000001</ele>
        <time>2025-04-25T10:30:45Z</time>
      </trkpt>
      <trkpt lat="44.676547972485423" lon="2.654573963955045">
        <ele>649.50999999999999</ele>
        <time>2025-04-25T10:30:46Z</time>
      </trkpt>
      <trkpt lat="44.676547972485423" lon="2.654318986460567">
        <ele>649.50999999999999</ele>
        <time>2025-04-25T10:30:47Z</time>
      </trkpt>
      <trkpt lat="44.676558030769229" lon="2.654072977602482">
        <ele>649.50999999999999</ele>
        <time>2025-04-25T10:30:48Z</time>
      </trkpt>
      <trkpt lat="44.676612010225654" lon="2.653821017593145">
        <ele>649.02999999999997</ele>
        <time>2025-04-25T10:30:49Z</time>
      </trkpt>
      <trkpt lat="44.677212992683053" lon="2.652426017448306">
        <ele>647.59000000000003</ele>
        <time>2025-04-25T10:30:55Z</time>
      </trkpt>
      <trkpt lat="44.677350036799908" lon="2.652275981381536">
        <ele>647.59000000000003</ele>
        <time>2025-04-25T10:30:56Z</time>
      </trkpt>
      <trkpt lat="44.677480040118098" lon="2.652159975841641">
        <ele>647.10000000000002</ele>
        <time>2025-04-25T10:30:57Z</time>
      </trkpt>
      <trkpt lat="44.677641978487372" lon="2.652117982506752">
        <ele>646.62</ele>
        <time>2025-04-25T10:30:58Z</time>
      </trkpt>
      <trkpt lat="44.677813975140452" lon="2.652072971686721">
        <ele>646.62</ele>
        <time>2025-04-25T10:30:59Z</time>
      </trkpt>
      <trkpt lat="44.678148999810219" lon="2.651943974196911">
        <ele>645.65999999999997</ele>
        <time>2025-04-25T10:31:01Z</time>
      </trkpt>
      <trkpt lat="44.678293000906706" lon="2.651819000020623">
        <ele>645.17999999999995</ele>
        <time>2025-04-25T10:31:02Z</time>
      </trkpt>
      <trkpt lat="44.678423004224896" lon="2.651653960347176">
        <ele>644.70000000000005</ele>
        <time>2025-04-25T10:31:03Z</time>
      </trkpt>
      <trkpt lat="44.678539009764791" lon="2.65146603807807">
        <ele>644.22000000000003</ele>
        <time>2025-04-25T10:31:04Z</time>
      </trkpt>
      <trkpt lat="44.678649986162782" lon="2.651266967877746">
        <ele>643.74000000000001</ele>
        <time>2025-04-25T10:31:05Z</time>
      </trkpt>
      <trkpt lat="44.678729027509689" lon="2.651012996211648">
        <ele>643.25999999999999</ele>
        <time>2025-04-25T10:31:06Z</time>
      </trkpt>
      <trkpt lat="44.678807985037565" lon="2.650756007060409">
        <ele>642.77999999999997</ele>
        <time>2025-04-25T10:31:07Z</time>
      </trkpt>
      <trkpt lat="44.679019963368773" lon="2.649818994104862">
        <ele>640.38</ele>
        <time>2025-04-25T10:31:11Z</time>
      </trkpt>
      <trkpt lat="44.679005965590477" lon="2.649623025208712">
        <ele>639.88999999999999</ele>
        <time>2025-04-25T10:31:12Z</time>
      </trkpt>
      <trkpt lat="44.678959026932716" lon="2.649438036605716">
        <ele>639.40999999999997</ele>
        <time>2025-04-25T10:31:13Z</time>
      </trkpt>
      <trkpt lat="44.678908986970782" lon="2.649245001375675">
        <ele>638.92999999999995</ele>
        <time>2025-04-25T10:31:14Z</time>
      </trkpt>
      <trkpt lat="44.678856013342738" lon="2.649037968367338">
        <ele>638.45000000000005</ele>
        <time>2025-04-25T10:31:15Z</time>
      </trkpt>
      <trkpt lat="44.678802033886313" lon="2.64882599003613">
        <ele>637.97000000000003</ele>
        <time>2025-04-25T10:31:16Z</time>
      </trkpt>
      <trkpt lat="44.678832963109016" lon="2.648636978119612">
        <ele>637.49000000000001</ele>
        <time>2025-04-25T10:31:17Z</time>
      </trkpt>
      <trkpt lat="44.678941005840898" lon="2.648276975378394">
        <ele>637.00999999999999</ele>
        <time>2025-04-25T10:31:19Z</time>
      </trkpt>
      <trkpt lat="44.679469987750053" lon="2.647139970213175">
        <ele>633.64999999999998</ele>
        <time>2025-04-25T10:31:24Z</time>
      </trkpt>
      <trkpt lat="44.679723037406802" lon="2.64676102437079">
        <ele>632.20000000000005</ele>
        <time>2025-04-25T10:31:26Z</time>
      </trkpt>
      <trkpt lat="44.679795959964395" lon="2.646557008847594">
        <ele>631.24000000000001</ele>
        <time>2025-04-25T10:31:27Z</time>
      </trkpt>
      <trkpt lat="44.679854968562722" lon="2.646314017474651">
        <ele>630.27999999999997</ele>
        <time>2025-04-25T10:31:28Z</time>
      </trkpt>
      <trkpt lat="44.679894028231502" lon="2.646078988909721">
        <ele>629.32000000000005</ele>
        <time>2025-04-25T10:31:29Z</time>
      </trkpt>
      <trkpt lat="44.679911965504289" lon="2.645814958959818">
        <ele>628.36000000000001</ele>
        <time>2025-04-25T10:31:30Z</time>
      </trkpt>
      <trkpt lat="44.679905008524656" lon="2.6455810200423">
        <ele>627.88</ele>
        <time>2025-04-25T10:31:31Z</time>
      </trkpt>
      <trkpt lat="44.679909031838179" lon="2.645212970674038">
        <ele>626.91999999999996</ele>
        <time>2025-04-25T10:31:33Z</time>
      </trkpt>
      <trkpt lat="44.67995697632432" lon="2.645052038133144">
        <ele>626.44000000000005</ele>
        <time>2025-04-25T10:31:34Z</time>
      </trkpt>
      <trkpt lat="44.680025959387422" lon="2.644926980137825">
        <ele>625.96000000000004</ele>
        <time>2025-04-25T10:31:35Z</time>
      </trkpt>
      <trkpt lat="44.680110029876232" lon="2.644838970154524">
        <ele>624.99000000000001</ele>
        <time>2025-04-25T10:31:36Z</time>
      </trkpt>
      <trkpt lat="44.680237015709281" lon="2.644730005413294">
        <ele>624.50999999999999</ele>
        <time>2025-04-25T10:31:37Z</time>
      </trkpt>
      <trkpt lat="44.680374981835485" lon="2.644611988216639">
        <ele>623.54999999999995</ele>
        <time>2025-04-25T10:31:38Z</time>
      </trkpt>
      <trkpt lat="44.680519988760352" lon="2.644487014040351">
        <ele>623.07000000000005</ele>
        <time>2025-04-25T10:31:39Z</time>
      </trkpt>
      <trkpt lat="44.680677987635136" lon="2.644319962710142">
        <ele>622.59000000000003</ele>
        <time>2025-04-25T10:31:40Z</time>
      </trkpt>
      <trkpt lat="44.680796004831791" lon="2.64407797716558">
        <ele>623.07000000000005</ele>
        <time>2025-04-25T10:31:41Z</time>
      </trkpt>
      <trkpt lat="44.680796004831791" lon="2.643914027139545">
        <ele>623.07000000000005</ele>
        <time>2025-04-25T10:31:42Z</time>
      </trkpt>
      <trkpt lat="44.680796004831791" lon="2.643671035766602">
        <ele>623.07000000000005</ele>
        <time>2025-04-25T10:31:43Z</time>
      </trkpt>
      <trkpt lat="44.680760968476534" lon="2.643508007749915">
        <ele>623.07000000000005</ele>
        <time>2025-04-25T10:31:44Z</time>
      </trkpt>
      <trkpt lat="44.680716963484883" lon="2.643307009711862">
        <ele>623.07000000000005</ele>
        <time>2025-04-25T10:31:45Z</time>
      </trkpt>
      <trkpt lat="44.680696008726954" lon="2.643126966431737">
        <ele>623.07000000000005</ele>
        <time>2025-04-25T10:31:46Z</time>
      </trkpt>
      <trkpt lat="44.680721992626786" lon="2.642929991707206">
        <ele>622.59000000000003</ele>
        <time>2025-04-25T10:31:47Z</time>
      </trkpt>
      <trkpt lat="44.680784018710256" lon="2.6427679695189">
        <ele>622.59000000000003</ele>
        <time>2025-04-25T10:31:48Z</time>
      </trkpt>
      <trkpt lat="44.680891977623105" lon="2.6426160056144">
        <ele>622.59000000000003</ele>
        <time>2025-04-25T10:31:49Z</time>
      </trkpt>
      <trkpt lat="44.681040002033114" lon="2.642495976760984">
        <ele>623.07000000000005</ele>
        <time>2025-04-25T10:31:50Z</time>
      </trkpt>
      <trkpt lat="44.681186014786363" lon="2.642376031726599">
        <ele>623.07000000000005</ele>
        <time>2025-04-25T10:31:51Z</time>
      </trkpt>
      <trkpt lat="44.681301014497876" lon="2.642223984003067">
        <ele>622.59000000000003</ele>
        <time>2025-04-25T10:31:52Z</time>
      </trkpt>
      <trkpt lat="44.681377960368991" lon="2.642040001228452">
        <ele>622.59000000000003</ele>
        <time>2025-04-25T10:31:53Z</time>
      </trkpt>
      <trkpt lat="44.681428000330925" lon="2.641822993755341">
        <ele>622.59000000000003</ele>
        <time>2025-04-25T10:31:54Z</time>
      </trkpt>
      <trkpt lat="44.681457001715899" lon="2.641589976847172">
        <ele>622.59000000000003</ele>
        <time>2025-04-25T10:31:55Z</time>
      </trkpt>
      <trkpt lat="44.681444009765983" lon="2.641342962160707">
        <ele>622.59000000000003</ele>
        <time>2025-04-25T10:31:56Z</time>
      </trkpt>
      <trkpt lat="44.681418025866151" lon="2.640859996899962">
        <ele>622.11000000000001</ele>
        <time>2025-04-25T10:31:58Z</time>
      </trkpt>
      <trkpt lat="44.681348036974669" lon="2.640612982213497">
        <ele>622.11000000000001</ele>
        <time>2025-04-25T10:31:59Z</time>
      </trkpt>
      <trkpt lat="44.681278970092535" lon="2.640391029417515">
        <ele>623.07000000000005</ele>
        <time>2025-04-25T10:32:00Z</time>
      </trkpt>
      <trkpt lat="44.681162964552641" lon="2.640195982530713">
        <ele>623.54999999999995</ele>
        <time>2025-04-25T10:32:01Z</time>
      </trkpt>
      <trkpt lat="44.681043019518256" lon="2.639993978664279">
        <ele>624.02999999999997</ele>
        <time>2025-04-25T10:32:02Z</time>
      </trkpt>
      <trkpt lat="44.68081695958972" lon="2.639541020616889">
        <ele>624.50999999999999</ele>
        <time>2025-04-25T10:32:04Z</time>
      </trkpt>
      <trkpt lat="44.68072802759707" lon="2.639295011758804">
        <ele>624.50999999999999</ele>
        <time>2025-04-25T10:32:05Z</time>
      </trkpt>
      <trkpt lat="44.680325025692582" lon="2.637760033831">
        <ele>624.50999999999999</ele>
        <time>2025-04-25T10:32:11Z</time>
      </trkpt>
      <trkpt lat="44.680152023211122" lon="2.636260008439422">
        <ele>621.63</ele>
        <time>2025-04-25T10:32:18Z</time>
      </trkpt>
      <trkpt lat="44.680067030712962" lon="2.635452998802066">
        <ele>618.75</ele>
        <time>2025-04-25T10:32:23Z</time>
      </trkpt>
      <trkpt lat="44.680073987692595" lon="2.635306986048818">
        <ele>618.25999999999999</ele>
        <time>2025-04-25T10:32:24Z</time>
      </trkpt>
      <trkpt lat="44.680102989077568" lon="2.634551022201777">
        <ele>614.89999999999998</ele>
        <time>2025-04-25T10:32:29Z</time>
      </trkpt>
      <trkpt lat="44.680091002956033" lon="2.63447399251163">
        <ele>614.41999999999996</ele>
        <time>2025-04-25T10:32:30Z</time>
      </trkpt>
      <trkpt lat="44.680083962157369" lon="2.634428981691599">
        <ele>613.94000000000005</ele>
        <time>2025-04-25T10:32:31Z</time>
      </trkpt>
      <trkpt lat="44.680067030712962" lon="2.634315993636847">
        <ele>613.46000000000004</ele>
        <time>2025-04-25T10:32:32Z</time>
      </trkpt>
      <trkpt lat="44.680067030712962" lon="2.634315993636847">
        <ele>613.46000000000004</ele>
        <time>2025-04-25T10:32:33Z</time>
      </trkpt>
      <trkpt lat="44.680067030712962" lon="2.634315993636847">
        <ele>612.98000000000002</ele>
        <time>2025-04-25T10:32:34Z</time>
      </trkpt>
      <trkpt lat="44.679958987981081" lon="2.634143996983767">
        <ele>612.98000000000002</ele>
        <time>2025-04-25T10:32:35Z</time>
      </trkpt>
      <trkpt lat="44.679958987981081" lon="2.634143996983767">
        <ele>612.98000000000002</ele>
        <time>2025-04-25T10:32:36Z</time>
      </trkpt>
      <trkpt lat="44.679926969110966" lon="2.634140979498625">
        <ele>612.5</ele>
        <time>2025-04-25T10:32:37Z</time>
      </trkpt>
      <trkpt lat="44.679861003533006" lon="2.634136034175754">
        <ele>612.01999999999998</ele>
        <time>2025-04-25T10:32:38Z</time>
      </trkpt>
      <trkpt lat="44.67978497967124" lon="2.63412899337709">
        <ele>612.01999999999998</ele>
        <time>2025-04-25T10:32:39Z</time>
      </trkpt>
      <trkpt lat="44.679568978026509" lon="2.634145002812147">
        <ele>611.05999999999995</ele>
        <time>2025-04-25T10:32:41Z</time>
      </trkpt>
      <trkpt lat="44.679468981921673" lon="2.634161012247205">
        <ele>610.09000000000003</ele>
        <time>2025-04-25T10:32:42Z</time>
      </trkpt>
      <trkpt lat="44.679194977506995" lon="2.634520009160042">
        <ele>607.69000000000005</ele>
        <time>2025-04-25T10:32:45Z</time>
      </trkpt>
      <trkpt lat="44.679106967523694" lon="2.634552028030157">
        <ele>606.73000000000002</ele>
        <time>2025-04-25T10:32:46Z</time>
      </trkpt>
      <trkpt lat="44.678401965647936" lon="2.635055026039481">
        <ele>602.88</ele>
        <time>2025-04-25T10:32:55Z</time>
      </trkpt>
      <trkpt lat="44.678129972890019" lon="2.635420979931951">
        <ele>602.39999999999998</ele>
        <time>2025-04-25T10:32:59Z</time>
      </trkpt>
      <trkpt lat="44.678059983998537" lon="2.635515024885535">
        <ele>602.39999999999998</ele>
        <time>2025-04-25T10:33:00Z</time>
      </trkpt>
      <trkpt lat="44.677852028980851" lon="2.635794980451465">
        <ele>600.96000000000004</ele>
        <time>2025-04-25T10:33:03Z</time>
      </trkpt>
      <trkpt lat="44.677802994847298" lon="2.635895982384682">
        <ele>600.48000000000002</ele>
        <time>2025-04-25T10:33:04Z</time>
      </trkpt>
      <trkpt lat="44.677715990692377" lon="2.636122964322567">
        <ele>599.51999999999998</ele>
        <time>2025-04-25T10:33:06Z</time>
      </trkpt>
      <trkpt lat="44.677550029009581" lon="2.636826960369945">
        <ele>595.66999999999996</ele>
        <time>2025-04-25T10:33:11Z</time>
      </trkpt>
      <trkpt lat="44.677483979612589" lon="2.636961992830038">
        <ele>594.71000000000004</ele>
        <time>2025-04-25T10:33:12Z</time>
      </trkpt>
      <trkpt lat="44.677407033741474" lon="2.637071963399649">
        <ele>594.23000000000002</ele>
        <time>2025-04-25T10:33:13Z</time>
      </trkpt>
      <trkpt lat="44.677327992394567" lon="2.637184029445052">
        <ele>594.23000000000002</ele>
        <time>2025-04-25T10:33:14Z</time>
      </trkpt>
      <trkpt lat="44.677242999896407" lon="2.637303974479437">
        <ele>594.71000000000004</ele>
        <time>2025-04-25T10:33:15Z</time>
      </trkpt>
      <trkpt lat="44.677159013226628" lon="2.637424003332853">
        <ele>595.19000000000005</ele>
        <time>2025-04-25T10:33:16Z</time>
      </trkpt>
      <trkpt lat="44.677074020728469" lon="2.63754503801465">
        <ele>595.66999999999996</ele>
        <time>2025-04-25T10:33:17Z</time>
      </trkpt>
      <trkpt lat="44.676809990778565" lon="2.637887019664049">
        <ele>597.12</ele>
        <time>2025-04-25T10:33:20Z</time>
      </trkpt>
      <trkpt lat="44.676636988297105" lon="2.638038983568549">
        <ele>598.55999999999995</ele>
        <time>2025-04-25T10:33:22Z</time>
      </trkpt>
      <trkpt lat="44.676474966108799" lon="2.638162029907107">
        <ele>599.51999999999998</ele>
        <time>2025-04-25T10:33:24Z</time>
      </trkpt>
      <trkpt lat="44.676381004974246" lon="2.638180973008275">
        <ele>600.48000000000002</ele>
        <time>2025-04-25T10:33:25Z</time>
      </trkpt>
      <trkpt lat="44.676278997212648" lon="2.638202011585236">
        <ele>600.96000000000004</ele>
        <time>2025-04-25T10:33:26Z</time>
      </trkpt>
      <trkpt lat="44.675611965358257" lon="2.638360010460019">
        <ele>604.33000000000004</ele>
        <time>2025-04-25T10:33:32Z</time>
      </trkpt>
      <trkpt lat="44.675523033365607" lon="2.638443997129798">
        <ele>605.28999999999996</ele>
        <time>2025-04-25T10:33:33Z</time>
      </trkpt>
      <trkpt lat="44.675426976755261" lon="2.63853401876986">
        <ele>605.76999999999998</ele>
        <time>2025-04-25T10:33:34Z</time>
      </trkpt>
      <trkpt lat="44.675324968993664" lon="2.638628985732794">
        <ele>606.73000000000002</ele>
        <time>2025-04-25T10:33:35Z</time>
      </trkpt>
      <trkpt lat="44.67525196261704" lon="2.638779021799564">
        <ele>607.69000000000005</ele>
        <time>2025-04-25T10:33:36Z</time>
      </trkpt>
      <trkpt lat="44.675191026180983" lon="2.638914976269007">
        <ele>608.64999999999998</ele>
        <time>2025-04-25T10:33:37Z</time>
      </trkpt>
      <trkpt lat="44.675125982612371" lon="2.639040034264326">
        <ele>609.61000000000001</ele>
        <time>2025-04-25T10:33:38Z</time>
      </trkpt>
      <trkpt lat="44.674925990402699" lon="2.639423003420234">
        <ele>611.05999999999995</ele>
        <time>2025-04-25T10:33:41Z</time>
      </trkpt>
      <trkpt lat="44.674620972946286" lon="2.639980986714363">
        <ele>612.5</ele>
        <time>2025-04-25T10:33:45Z</time>
      </trkpt>
      <trkpt lat="44.674192992970347" lon="2.640555985271931">
        <ele>614.41999999999996</ele>
        <time>2025-04-25T10:33:50Z</time>
      </trkpt>
      <trkpt lat="44.674102971330285" lon="2.640615999698639">
        <ele>614.89999999999998</ele>
        <time>2025-04-25T10:33:51Z</time>
      </trkpt>
      <trkpt lat="44.674022002145648" lon="2.640669979155064">
        <ele>615.38</ele>
        <time>2025-04-25T10:33:52Z</time>
      </trkpt>
      <trkpt lat="44.673934997990727" lon="2.64070400968194">
        <ele>615.86000000000001</ele>
        <time>2025-04-25T10:33:53Z</time>
      </trkpt>
      <trkpt lat="44.673851011320949" lon="2.64072597026825">
        <ele>616.82000000000005</ele>
        <time>2025-04-25T10:33:54Z</time>
      </trkpt>
      <trkpt lat="44.673764007166028" lon="2.640749020501971">
        <ele>617.29999999999995</ele>
        <time>2025-04-25T10:33:55Z</time>
      </trkpt>
      <trkpt lat="44.673670968040824" lon="2.640772992745042">
        <ele>618.25999999999999</ele>
        <time>2025-04-25T10:33:56Z</time>
      </trkpt>
      <trkpt lat="44.673472987487912" lon="2.640778021886945">
        <ele>619.23000000000002</ele>
        <time>2025-04-25T10:33:58Z</time>
      </trkpt>
      <trkpt lat="44.673370979726315" lon="2.640829989686608">
        <ele>619.23000000000002</ele>
        <time>2025-04-25T10:33:59Z</time>
      </trkpt>
      <trkpt lat="44.672557013109326" lon="2.641208013519645">
        <ele>617.29999999999995</ele>
        <time>2025-04-25T10:34:06Z</time>
      </trkpt>
      <trkpt lat="44.672448970377445" lon="2.641238020732999">
        <ele>616.82000000000005</ele>
        <time>2025-04-25T10:34:07Z</time>
      </trkpt>
      <trkpt lat="44.672349980100989" lon="2.641266016289592">
        <ele>615.86000000000001</ele>
        <time>2025-04-25T10:34:08Z</time>
      </trkpt>
      <trkpt lat="44.672257024794817" lon="2.641292000189424">
        <ele>614.89999999999998</ele>
        <time>2025-04-25T10:34:09Z</time>
      </trkpt>
      <trkpt lat="44.672175971791148" lon="2.641339022666216">
        <ele>613.94000000000005</ele>
        <time>2025-04-25T10:34:10Z</time>
      </trkpt>
      <trkpt lat="44.672122998163104" lon="2.641436001285911">
        <ele>612.5</ele>
        <time>2025-04-25T10:34:11Z</time>
      </trkpt>
      <trkpt lat="44.67207002453506" lon="2.641532979905605">
        <ele>612.01999999999998</ele>
        <time>2025-04-25T10:34:12Z</time>
      </trkpt>
      <trkpt lat="44.672021996229887" lon="2.641621995717287">
        <ele>611.05999999999995</ele>
        <time>2025-04-25T10:34:13Z</time>
      </trkpt>
      <trkpt lat="44.671980002894998" lon="2.641698019579053">
        <ele>610.57000000000005</ele>
        <time>2025-04-25T10:34:14Z</time>
      </trkpt>
      <trkpt lat="44.671945972368121" lon="2.641760967671871">
        <ele>610.09000000000003</ele>
        <time>2025-04-25T10:34:15Z</time>
      </trkpt>
      <trkpt lat="44.671917976811528" lon="2.641785023733974">
        <ele>609.61000000000001</ele>
        <time>2025-04-25T10:34:16Z</time>
      </trkpt>
      <trkpt lat="44.671847987920046" lon="2.641792986541987">
        <ele>609.13</ele>
        <time>2025-04-25T10:34:17Z</time>
      </trkpt>
      <trkpt lat="44.671676997095346" lon="2.64177898876369">
        <ele>608.16999999999996</ele>
        <time>2025-04-25T10:34:19Z</time>
      </trkpt>
      <trkpt lat="44.671507012099028" lon="2.641729032620788">
        <ele>607.21000000000004</ele>
        <time>2025-04-25T10:34:21Z</time>
      </trkpt>
      <trkpt lat="44.671429982408881" lon="2.641705982387066">
        <ele>607.21000000000004</ele>
        <time>2025-04-25T10:34:22Z</time>
      </trkpt>
      <trkpt lat="44.671353036537766" lon="2.641592994332314">
        <ele>606.73000000000002</ele>
        <time>2025-04-25T10:34:23Z</time>
      </trkpt>
      <trkpt lat="44.671312971040606" lon="2.64149802736938">
        <ele>606.25</ele>
        <time>2025-04-25T10:34:24Z</time>
      </trkpt>
      <trkpt lat="44.671267038211226" lon="2.641387972980738">
        <ele>606.25</ele>
        <time>2025-04-25T10:34:25Z</time>
      </trkpt>
      <trkpt lat="44.671243987977505" lon="2.64126299880445">
        <ele>605.76999999999998</ele>
        <time>2025-04-25T10:34:26Z</time>
      </trkpt>
      <trkpt lat="44.671220015734434" lon="2.641136012971401">
        <ele>604.80999999999995</ele>
        <time>2025-04-25T10:34:27Z</time>
      </trkpt>
      <trkpt lat="44.671193026006222" lon="2.641013972461224">
        <ele>603.85000000000002</ele>
        <time>2025-04-25T10:34:28Z</time>
      </trkpt>
      <trkpt lat="44.671139968559146" lon="2.640838958323002">
        <ele>603.36000000000001</ele>
        <time>2025-04-25T10:34:29Z</time>
      </trkpt>
      <trkpt lat="44.671085989102721" lon="2.640784978866577">
        <ele>602.88</ele>
        <time>2025-04-25T10:34:30Z</time>
      </trkpt>
      <trkpt lat="44.670994961634278" lon="2.640705015510321">
        <ele>602.39999999999998</ele>
        <time>2025-04-25T10:34:31Z</time>
      </trkpt>
      <trkpt lat="44.670901000499725" lon="2.640675008296967">
        <ele>601.91999999999996</ele>
        <time>2025-04-25T10:34:32Z</time>
      </trkpt>
      <trkpt lat="44.670807039365172" lon="2.640646006911993">
        <ele>601.44000000000005</ele>
        <time>2025-04-25T10:34:33Z</time>
      </trkpt>
      <trkpt lat="44.670720035210252" lon="2.640619017183781">
        <ele>600.96000000000004</ele>
        <time>2025-04-25T10:34:34Z</time>
      </trkpt>
      <trkpt lat="44.670616015791893" lon="2.640628991648555">
        <ele>600.48000000000002</ele>
        <time>2025-04-25T10:34:35Z</time>
      </trkpt>
      <trkpt lat="44.670540997758508" lon="2.640666039660573">
        <ele>600.48000000000002</ele>
        <time>2025-04-25T10:34:36Z</time>
      </trkpt>
      <trkpt lat="44.670444019138813" lon="2.640723958611488">
        <ele>600</ele>
        <time>2025-04-25T10:34:37Z</time>
      </trkpt>
      <trkpt lat="44.670410994440317" lon="2.640773998573422">
        <ele>599.51999999999998</ele>
        <time>2025-04-25T10:34:38Z</time>
      </trkpt>
      <trkpt lat="44.670353997498751" lon="2.640936020761728">
        <ele>598.55999999999995</ele>
        <time>2025-04-25T10:34:39Z</time>
      </trkpt>
      <trkpt lat="44.670317033305764" lon="2.641041968017817">
        <ele>598.08000000000004</ele>
        <time>2025-04-25T10:34:40Z</time>
      </trkpt>
      <trkpt lat="44.670275961980224" lon="2.64115696772933">
        <ele>597.12</ele>
        <time>2025-04-25T10:34:41Z</time>
      </trkpt>
      <trkpt lat="44.670232040807605" lon="2.641284037381411">
        <ele>596.14999999999998</ele>
        <time>2025-04-25T10:34:42Z</time>
      </trkpt>
      <trkpt lat="44.670185018330812" lon="2.641417980194092">
        <ele>595.19000000000005</ele>
        <time>2025-04-25T10:34:43Z</time>
      </trkpt>
      <trkpt lat="44.670139001682401" lon="2.641546977683902">
        <ele>594.23000000000002</ele>
        <time>2025-04-25T10:34:44Z</time>
      </trkpt>
      <trkpt lat="44.670057026669383" lon="2.641614032909274">
        <ele>592.78999999999996</ele>
        <time>2025-04-25T10:34:45Z</time>
      </trkpt>
      <trkpt lat="44.669957030564547" lon="2.641675975173712">
        <ele>591.83000000000004</ele>
        <time>2025-04-25T10:34:46Z</time>
      </trkpt>
      <trkpt lat="44.669853011146188" lon="2.641740012913942">
        <ele>590.87</ele>
        <time>2025-04-25T10:34:47Z</time>
      </trkpt>
      <trkpt lat="44.669758966192603" lon="2.641869010403752">
        <ele>589.90999999999997</ele>
        <time>2025-04-25T10:34:48Z</time>
      </trkpt>
      <trkpt lat="44.669676991179585" lon="2.641981998458505">
        <ele>588.95000000000005</ele>
        <time>2025-04-25T10:34:49Z</time>
      </trkpt>
      <trkpt lat="44.669594010338187" lon="2.642095992341638">
        <ele>587.5</ele>
        <time>2025-04-25T10:34:50Z</time>
      </trkpt>
      <trkpt lat="44.669513963162899" lon="2.642205962911248">
        <ele>586.53999999999996</ele>
        <time>2025-04-25T10:34:51Z</time>
      </trkpt>
      <trkpt lat="44.669426959007978" lon="2.642290033400059">
        <ele>585.58000000000004</ele>
        <time>2025-04-25T10:34:52Z</time>
      </trkpt>
      <trkpt lat="44.669340960681438" lon="2.642371002584696">
        <ele>584.62</ele>
        <time>2025-04-25T10:34:53Z</time>
      </trkpt>
      <trkpt lat="44.66925697401166" lon="2.642450965940952">
        <ele>583.65999999999997</ele>
        <time>2025-04-25T10:34:54Z</time>
      </trkpt>
      <trkpt lat="44.669173993170261" lon="2.64253000728786">
        <ele>582.70000000000005</ele>
        <time>2025-04-25T10:34:55Z</time>
      </trkpt>
      <trkpt lat="44.669095035642385" lon="2.642608964815736">
        <ele>581.25</ele>
        <time>2025-04-25T10:34:56Z</time>
      </trkpt>
      <trkpt lat="44.668716005980968" lon="2.643306003883481">
        <ele>573.55999999999995</ele>
        <time>2025-04-25T10:35:03Z</time>
      </trkpt>
      <trkpt lat="44.668687004595995" lon="2.643425026908517">
        <ele>572.60000000000002</ele>
        <time>2025-04-25T10:35:04Z</time>
      </trkpt>
      <trkpt lat="44.668615004047751" lon="2.643724009394646">
        <ele>570.20000000000005</ele>
        <time>2025-04-25T10:35:06Z</time>
      </trkpt>
      <trkpt lat="44.668578961864114" lon="2.643855018541217">
        <ele>569.24000000000001</ele>
        <time>2025-04-25T10:35:07Z</time>
      </trkpt>
      <trkpt lat="44.668524982407689" lon="2.643944034352899">
        <ele>567.79999999999995</ele>
        <time>2025-04-25T10:35:08Z</time>
      </trkpt>
      <trkpt lat="44.668480977416039" lon="2.644016034901142">
        <ele>566.83000000000004</ele>
        <time>2025-04-25T10:35:09Z</time>
      </trkpt>
      <trkpt lat="44.668447030708194" lon="2.644071020185947">
        <ele>565.38999999999999</ele>
        <time>2025-04-25T10:35:10Z</time>
      </trkpt>
      <trkpt lat="44.668405959382653" lon="2.644138997420669">
        <ele>560.11000000000001</ele>
        <time>2025-04-25T10:35:17Z</time>
      </trkpt>
      <trkpt lat="44.668405959382653" lon="2.644138997420669">
        <ele>560.11000000000001</ele>
        <time>2025-04-25T10:35:55Z</time>
      </trkpt>
      <trkpt lat="44.668405959382653" lon="2.644138997420669">
        <ele>559.62</ele>
        <time>2025-04-25T10:36:46Z</time>
      </trkpt>
      <trkpt lat="44.668406965211034" lon="2.644136985763907">
        <ele>559.62</ele>
        <time>2025-04-25T10:37:10Z</time>
      </trkpt>
      <trkpt lat="44.668408976867795" lon="2.644133968278766">
        <ele>559.13999999999999</ele>
        <time>2025-04-25T10:37:11Z</time>
      </trkpt>
      <trkpt lat="44.668350974097848" lon="2.644229019060731">
        <ele>559.62</ele>
        <time>2025-04-25T10:37:12Z</time>
      </trkpt>
      <trkpt lat="44.668350974097848" lon="2.644263971596956">
        <ele>560.11000000000001</ele>
        <time>2025-04-25T10:37:13Z</time>
      </trkpt>
      <trkpt lat="44.668350974097848" lon="2.644363967701793">
        <ele>559.62</ele>
        <time>2025-04-25T10:37:14Z</time>
      </trkpt>
      <trkpt lat="44.668350974097848" lon="2.644477039575577">
        <ele>559.13999999999999</ele>
        <time>2025-04-25T10:37:15Z</time>
      </trkpt>
      <trkpt lat="44.668350974097848" lon="2.644596984609962">
        <ele>558.17999999999995</ele>
        <time>2025-04-25T10:37:16Z</time>
      </trkpt>
      <trkpt lat="44.668333036825061" lon="2.644684994593263">
        <ele>557.70000000000005</ele>
        <time>2025-04-25T10:37:17Z</time>
      </trkpt>
      <trkpt lat="44.668276961892843" lon="2.644768981263042">
        <ele>557.22000000000003</ele>
        <time>2025-04-25T10:37:18Z</time>
      </trkpt>
      <trkpt lat="44.668216025456786" lon="2.644822960719466">
        <ele>556.74000000000001</ele>
        <time>2025-04-25T10:37:19Z</time>
      </trkpt>
      <trkpt lat="44.668146036565304" lon="2.644876018166542">
        <ele>556.25999999999999</ele>
        <time>2025-04-25T10:37:20Z</time>
      </trkpt>
      <trkpt lat="44.66807303018868" lon="2.644942989572883">
        <ele>555.29999999999995</ele>
        <time>2025-04-25T10:37:21Z</time>
      </trkpt>
      <trkpt lat="44.668017039075494" lon="2.645019013434649">
        <ele>554.82000000000005</ele>
        <time>2025-04-25T10:37:22Z</time>
      </trkpt>
      <trkpt lat="44.667959958314896" lon="2.645096965134144">
        <ele>553.86000000000001</ele>
        <time>2025-04-25T10:37:23Z</time>
      </trkpt>
      <trkpt lat="44.66790497303009" lon="2.645171983167529">
        <ele>553.38</ele>
        <time>2025-04-25T10:37:24Z</time>
      </trkpt>
      <trkpt lat="44.667857028543949" lon="2.64523702673614">
        <ele>552.89999999999998</ele>
        <time>2025-04-25T10:37:25Z</time>
      </trkpt>
      <trkpt lat="44.667809000238776" lon="2.645334005355835">
        <ele>551.92999999999995</ele>
        <time>2025-04-25T10:37:26Z</time>
      </trkpt>
      <trkpt lat="44.667763989418745" lon="2.645425032824278">
        <ele>551.45000000000005</ele>
        <time>2025-04-25T10:37:27Z</time>
      </trkpt>
      <trkpt lat="44.667727025225759" lon="2.645530980080366">
        <ele>550.97000000000003</ele>
        <time>2025-04-25T10:37:28Z</time>
      </trkpt>
      <trkpt lat="44.667697018012404" lon="2.645636005327106">
        <ele>550.49000000000001</ele>
        <time>2025-04-25T10:37:29Z</time>
      </trkpt>
      <trkpt lat="44.66766701079905" lon="2.645741030573845">
        <ele>549.52999999999997</ele>
        <time>2025-04-25T10:37:30Z</time>
      </trkpt>
      <trkpt lat="44.667604984715581" lon="2.645820993930101">
        <ele>549.04999999999995</ele>
        <time>2025-04-25T10:37:31Z</time>
      </trkpt>
      <trkpt lat="44.667534995824099" lon="2.645902968943119">
        <ele>548.57000000000005</ele>
        <time>2025-04-25T10:37:32Z</time>
      </trkpt>
      <trkpt lat="44.66747498139739" lon="2.645940016955137">
        <ele>548.09000000000003</ele>
        <time>2025-04-25T10:37:33Z</time>
      </trkpt>
      <trkpt lat="44.667410021647811" lon="2.645981004461646">
        <ele>547.61000000000001</ele>
        <time>2025-04-25T10:37:34Z</time>
      </trkpt>
      <trkpt lat="44.667329974472523" lon="2.64601000584662">
        <ele>547.13</ele>
        <time>2025-04-25T10:37:35Z</time>
      </trkpt>
      <trkpt lat="44.667255962267518" lon="2.64601000584662">
        <ele>546.64999999999998</ele>
        <time>2025-04-25T10:37:36Z</time>
      </trkpt>
      <trkpt lat="44.66704398393631" lon="2.64601000584662">
        <ele>545.69000000000005</ele>
        <time>2025-04-25T10:37:39Z</time>
      </trkpt>
      <trkpt lat="44.666883973404765" lon="2.64601000584662">
        <ele>544.72000000000003</ele>
        <time>2025-04-25T10:37:41Z</time>
      </trkpt>
      <trkpt lat="44.666569987311959" lon="2.645973963662982">
        <ele>540.88</ele>
        <time>2025-04-25T10:37:48Z</time>
      </trkpt>
      <trkpt lat="44.666517013683915" lon="2.645960971713066">
        <ele>538.96000000000004</ele>
        <time>2025-04-25T10:37:52Z</time>
      </trkpt>
      <trkpt lat="44.666515002027154" lon="2.645960971713066">
        <ele>538.48000000000002</ele>
        <time>2025-04-25T10:37:53Z</time>
      </trkpt>
      <trkpt lat="44.666515002027154" lon="2.645960971713066">
        <ele>537.50999999999999</ele>
        <time>2025-04-25T10:38:06Z</time>
      </trkpt>
      <trkpt lat="44.666515002027154" lon="2.645960971713066">
        <ele>537.02999999999997</ele>
        <time>2025-04-25T10:38:52Z</time>
      </trkpt>
      <trkpt lat="44.666460016742349" lon="2.64594797976315">
        <ele>537.02999999999997</ele>
        <time>2025-04-25T10:39:02Z</time>
      </trkpt>
      <trkpt lat="44.666435960680246" lon="2.645942028611898">
        <ele>537.50999999999999</ele>
        <time>2025-04-25T10:39:03Z</time>
      </trkpt>
      <trkpt lat="44.666148964315653" lon="2.645834991708398">
        <ele>536.07000000000005</ele>
        <time>2025-04-25T10:39:13Z</time>
      </trkpt>
      <trkpt lat="44.666114011779428" lon="2.645786963403225">
        <ele>535.11000000000001</ele>
        <time>2025-04-25T10:39:14Z</time>
      </trkpt>
      <trkpt lat="44.665626017376781" lon="2.64512998983264">
        <ele>525.01999999999998</ele>
        <time>2025-04-25T10:39:25Z</time>
      </trkpt>
      <trkpt lat="44.665548987686634" lon="2.644969979301095">
        <ele>522.13</ele>
        <time>2025-04-25T10:39:28Z</time>
      </trkpt>
      <trkpt lat="44.665526021271944" lon="2.644921028986573">
        <ele>521.16999999999996</ele>
        <time>2025-04-25T10:39:29Z</time>
      </trkpt>
      <trkpt lat="44.665441028773785" lon="2.64474299736321">
        <ele>515.39999999999998</ele>
        <time>2025-04-25T10:39:39Z</time>
      </trkpt>
      <trkpt lat="44.665370034053922" lon="2.644618023186922">
        <ele>513</ele>
        <time>2025-04-25T10:39:50Z</time>
      </trkpt>
      <trkpt lat="44.665370034053922" lon="2.644618023186922">
        <ele>513</ele>
        <time>2025-04-25T10:40:22Z</time>
      </trkpt>
      <trkpt lat="44.665370034053922" lon="2.644618023186922">
        <ele>513</ele>
        <time>2025-04-25T10:41:00Z</time>
      </trkpt>
      <trkpt lat="44.665395012125373" lon="2.64424997381866">
        <ele>532.23000000000002</ele>
        <time>2025-04-25T10:55:22Z</time>
      </trkpt>
      <trkpt lat="44.665312031283975" lon="2.644569994881749">
        <ele>532.71000000000004</ele>
        <time>2025-04-25T10:55:47Z</time>
      </trkpt>
      <trkpt lat="44.665300967171788" lon="2.644586004316807">
        <ele>533.19000000000005</ele>
        <time>2025-04-25T10:55:58Z</time>
      </trkpt>
      <trkpt lat="44.665296021848917" lon="2.644521966576576">
        <ele>532.71000000000004</ele>
        <time>2025-04-25T10:56:00Z</time>
      </trkpt>
      <trkpt lat="44.665266014635563" lon="2.644491959363222">
        <ele>532.71000000000004</ele>
        <time>2025-04-25T10:56:01Z</time>
      </trkpt>
      <trkpt lat="44.665058981627226" lon="2.644255002960563">
        <ele>532.23000000000002</ele>
        <time>2025-04-25T10:56:07Z</time>
      </trkpt>
      <trkpt lat="44.665032997727394" lon="2.644203035160899">
        <ele>532.23000000000002</ele>
        <time>2025-04-25T10:56:08Z</time>
      </trkpt>
      <trkpt lat="44.665006007999182" lon="2.644148971885443">
        <ele>531.75</ele>
        <time>2025-04-25T10:56:09Z</time>
      </trkpt>
      <trkpt lat="44.664982035756111" lon="2.644100021570921">
        <ele>531.75</ele>
        <time>2025-04-25T10:56:10Z</time>
      </trkpt>
      <trkpt lat="44.664945993572474" lon="2.644048975780606">
        <ele>531.75</ele>
        <time>2025-04-25T10:56:11Z</time>
      </trkpt>
      <trkpt lat="44.664915986359119" lon="2.644006982445717">
        <ele>531.26999999999998</ele>
        <time>2025-04-25T10:56:12Z</time>
      </trkpt>
      <trkpt lat="44.664886984974146" lon="2.643965994939208">
        <ele>531.26999999999998</ele>
        <time>2025-04-25T10:56:13Z</time>
      </trkpt>
      <trkpt lat="44.664856977760792" lon="2.643924001604319">
        <ele>530.78999999999996</ele>
        <time>2025-04-25T10:56:14Z</time>
      </trkpt>
      <trkpt lat="44.664831999689341" lon="2.643887959420681">
        <ele>530.29999999999995</ele>
        <time>2025-04-25T10:56:15Z</time>
      </trkpt>
      <trkpt lat="44.664804004132748" lon="2.643849989399314">
        <ele>529.82000000000005</ele>
        <time>2025-04-25T10:56:16Z</time>
      </trkpt>
      <trkpt lat="44.664773996919394" lon="2.643805984407663">
        <ele>529.82000000000005</ele>
        <time>2025-04-25T10:56:17Z</time>
      </trkpt>
      <trkpt lat="44.664746001362801" lon="2.643767008557916">
        <ele>529.34000000000003</ele>
        <time>2025-04-25T10:56:18Z</time>
      </trkpt>
      <trkpt lat="44.66472202911973" lon="2.643732978031039">
        <ele>529.34000000000003</ele>
        <time>2025-04-25T10:56:19Z</time>
      </trkpt>
      <trkpt lat="44.664699984714389" lon="2.643701964989305">
        <ele>528.86000000000001</ele>
        <time>2025-04-25T10:56:20Z</time>
      </trkpt>
      <trkpt lat="44.664640976116061" lon="2.643618984147906">
        <ele>527.89999999999998</ele>
        <time>2025-04-25T10:56:23Z</time>
      </trkpt>
      <trkpt lat="44.664625972509384" lon="2.643598029389978">
        <ele>527.89999999999998</ele>
        <time>2025-04-25T10:56:24Z</time>
      </trkpt>
      <trkpt lat="44.664623038843274" lon="2.643598029389978">
        <ele>527.89999999999998</ele>
        <time>2025-04-25T10:56:26Z</time>
      </trkpt>
      <trkpt lat="44.664637958630919" lon="2.64362895861268">
        <ele>527.41999999999996</ele>
        <time>2025-04-25T10:56:27Z</time>
      </trkpt>
      <trkpt lat="44.664656985551119" lon="2.643671035766602">
        <ele>527.41999999999996</ele>
        <time>2025-04-25T10:56:28Z</time>
      </trkpt>
      <trkpt lat="44.664680035784841" lon="2.643720991909504">
        <ele>526.94000000000005</ele>
        <time>2025-04-25T10:56:29Z</time>
      </trkpt>
      <trkpt lat="44.664708031341434" lon="2.643781006336212">
        <ele>526.46000000000004</ele>
        <time>2025-04-25T10:56:30Z</time>
      </trkpt>
      <trkpt lat="44.664738960564137" lon="2.643847977742553">
        <ele>525.98000000000002</ele>
        <time>2025-04-25T10:56:31Z</time>
      </trkpt>
      <trkpt lat="44.664831999689341" lon="2.644046964123845">
        <ele>524.53999999999996</ele>
        <time>2025-04-25T10:56:34Z</time>
      </trkpt>
      <trkpt lat="44.664866030216217" lon="2.64412097632885">
        <ele>524.05999999999995</ele>
        <time>2025-04-25T10:56:35Z</time>
      </trkpt>
      <trkpt lat="44.664902994409204" lon="2.644200017675757">
        <ele>523.58000000000004</ele>
        <time>2025-04-25T10:56:36Z</time>
      </trkpt>
      <trkpt lat="44.665060993283987" lon="2.644538981840015">
        <ele>521.64999999999998</ele>
        <time>2025-04-25T10:56:40Z</time>
      </trkpt>
      <trkpt lat="44.665101980790496" lon="2.644625985994935">
        <ele>520.69000000000005</ele>
        <time>2025-04-25T10:56:41Z</time>
      </trkpt>
      <trkpt lat="44.665141040459275" lon="2.644711984321475">
        <ele>520.21000000000004</ele>
        <time>2025-04-25T10:56:42Z</time>
      </trkpt>
      <trkpt lat="44.665176998823881" lon="2.644789014011622">
        <ele>519.73000000000002</ele>
        <time>2025-04-25T10:56:43Z</time>
      </trkpt>
      <trkpt lat="44.665208011865616" lon="2.644878029823303">
        <ele>519.25</ele>
        <time>2025-04-25T10:56:44Z</time>
      </trkpt>
      <trkpt lat="44.665228966623545" lon="2.64495899900794">
        <ele>518.28999999999996</ele>
        <time>2025-04-25T10:56:45Z</time>
      </trkpt>
      <trkpt lat="44.665266014635563" lon="2.645109035074711">
        <ele>517.33000000000004</ele>
        <time>2025-04-25T10:56:47Z</time>
      </trkpt>
      <trkpt lat="44.665284035727382" lon="2.645180029794574">
        <ele>516.85000000000002</ele>
        <time>2025-04-25T10:56:48Z</time>
      </trkpt>
      <trkpt lat="44.665529960766435" lon="2.645691996440291">
        <ele>512.03999999999996</ele>
        <time>2025-04-25T10:56:56Z</time>
      </trkpt>
      <trkpt lat="44.66556197963655" lon="2.64575301669538">
        <ele>511.56</ele>
        <time>2025-04-25T10:56:57Z</time>
      </trkpt>
      <trkpt lat="44.665597015991807" lon="2.645819988101721">
        <ele>511.07999999999998</ele>
        <time>2025-04-25T10:56:58Z</time>
      </trkpt>
      <trkpt lat="44.665632974356413" lon="2.645887965336442">
        <ele>511.07999999999998</ele>
        <time>2025-04-25T10:56:59Z</time>
      </trkpt>
      <trkpt lat="44.66566801071167" lon="2.645955020561814">
        <ele>510.60000000000002</ele>
        <time>2025-04-25T10:57:00Z</time>
      </trkpt>
      <trkpt lat="44.665702041238546" lon="2.646020986139774">
        <ele>510.12</ele>
        <time>2025-04-25T10:57:01Z</time>
      </trkpt>
      <trkpt lat="44.665735987946391" lon="2.646086029708386">
        <ele>509.63999999999999</ele>
        <time>2025-04-25T10:57:02Z</time>
      </trkpt>
      <trkpt lat="44.665771024301648" lon="2.646151995286346">
        <ele>509.16000000000003</ele>
        <time>2025-04-25T10:57:03Z</time>
      </trkpt>
      <trkpt lat="44.665900021791458" lon="2.646317034959793">
        <ele>507.23000000000002</ele>
        <time>2025-04-25T10:57:06Z</time>
      </trkpt>
      <trkpt lat="44.665932040661573" lon="2.646351987496018">
        <ele>506.75</ele>
        <time>2025-04-25T10:57:07Z</time>
      </trkpt>
      <trkpt lat="44.665958024561405" lon="2.646380988880992">
        <ele>505.79000000000002</ele>
        <time>2025-04-25T10:57:08Z</time>
      </trkpt>
      <trkpt lat="44.665979985147715" lon="2.646405966952443">
        <ele>505.31</ele>
        <time>2025-04-25T10:57:09Z</time>
      </trkpt>
      <trkpt lat="44.665989959612489" lon="2.64641803689301">
        <ele>504.82999999999998</ele>
        <time>2025-04-25T10:57:10Z</time>
      </trkpt>
      <trkpt lat="44.666018960997462" lon="2.646449971944094">
        <ele>504.35000000000002</ele>
        <time>2025-04-25T10:57:11Z</time>
      </trkpt>
      <trkpt lat="44.666033964604139" lon="2.646466987207532">
        <ele>503.87</ele>
        <time>2025-04-25T10:57:12Z</time>
      </trkpt>
      <trkpt lat="44.666045028716326" lon="2.646478973329067">
        <ele>503.38999999999999</ele>
        <time>2025-04-25T10:57:13Z</time>
      </trkpt>
      <trkpt lat="44.666045028716326" lon="2.646478973329067">
        <ele>500.98000000000002</ele>
        <time>2025-04-25T10:57:26Z</time>
      </trkpt>
      <trkpt lat="44.666045028716326" lon="2.646478973329067">
        <ele>500.98000000000002</ele>
        <time>2025-04-25T10:57:45Z</time>
      </trkpt>
      <trkpt lat="44.665989959612489" lon="2.64641803689301">
        <ele>499.54000000000002</ele>
        <time>2025-04-25T10:57:48Z</time>
      </trkpt>
      <trkpt lat="44.665761971846223" lon="2.646405966952443">
        <ele>497.62</ele>
        <time>2025-04-25T10:57:54Z</time>
      </trkpt>
      <trkpt lat="44.66573397628963" lon="2.64641703106463">
        <ele>497.13999999999999</ele>
        <time>2025-04-25T10:57:55Z</time>
      </trkpt>
      <trkpt lat="44.665717966854572" lon="2.646442009136081">
        <ele>497.13999999999999</ele>
        <time>2025-04-25T10:57:56Z</time>
      </trkpt>
      <trkpt lat="44.665701035410166" lon="2.646467993035913">
        <ele>496.66000000000003</ele>
        <time>2025-04-25T10:57:57Z</time>
      </trkpt>
      <trkpt lat="44.665686031803489" lon="2.646490959450603">
        <ele>496.66000000000003</ele>
        <time>2025-04-25T10:57:58Z</time>
      </trkpt>
      <trkpt lat="44.665672034025192" lon="2.646514009684324">
        <ele>496.18000000000001</ele>
        <time>2025-04-25T10:57:59Z</time>
      </trkpt>
      <trkpt lat="44.665655018761754" lon="2.646540999412537">
        <ele>496.18000000000001</ele>
        <time>2025-04-25T10:58:00Z</time>
      </trkpt>
      <trkpt lat="44.665633980184793" lon="2.646573018282652">
        <ele>496.18000000000001</ele>
        <time>2025-04-25T10:58:01Z</time>
      </trkpt>
      <trkpt lat="44.665607996284962" lon="2.64661299996078">
        <ele>495.69999999999999</ele>
        <time>2025-04-25T10:58:02Z</time>
      </trkpt>
      <trkpt lat="44.665583018213511" lon="2.646653987467289">
        <ele>495.69999999999999</ele>
        <time>2025-04-25T10:58:03Z</time>
      </trkpt>
      <trkpt lat="44.665572959929705" lon="2.646716013550758">
        <ele>495.69999999999999</ele>
        <time>2025-04-25T10:58:04Z</time>
      </trkpt>
      <trkpt lat="44.665503976866603" lon="2.647004015743733">
        <ele>495.69999999999999</ele>
        <time>2025-04-25T10:58:08Z</time>
      </trkpt>
      <trkpt lat="44.665474975481629" lon="2.647061012685299">
        <ele>495.69999999999999</ele>
        <time>2025-04-25T10:58:09Z</time>
      </trkpt>
      <trkpt lat="44.66541001573205" lon="2.647123960778117">
        <ele>495.69999999999999</ele>
        <time>2025-04-25T10:58:10Z</time>
      </trkpt>
      <trkpt lat="44.665356036275625" lon="2.647177018225193">
        <ele>495.69999999999999</ele>
        <time>2025-04-25T10:58:11Z</time>
      </trkpt>
      <trkpt lat="44.665289986878633" lon="2.647239966318011">
        <ele>495.69999999999999</ele>
        <time>2025-04-25T10:58:12Z</time>
      </trkpt>
      <trkpt lat="44.664868041872978" lon="2.647647997364402">
        <ele>499.54000000000002</ele>
        <time>2025-04-25T10:58:17Z</time>
      </trkpt>
      <trkpt lat="44.664536034688354" lon="2.647737013176084">
        <ele>502.91000000000003</ele>
        <time>2025-04-25T10:58:20Z</time>
      </trkpt>
      <trkpt lat="44.663910996168852" lon="2.647918984293938">
        <ele>509.16000000000003</ele>
        <time>2025-04-25T10:58:25Z</time>
      </trkpt>
      <trkpt lat="44.663793984800577" lon="2.647957960143685">
        <ele>510.60000000000002</ele>
        <time>2025-04-25T10:58:26Z</time>
      </trkpt>
      <trkpt lat="44.663682002574205" lon="2.647995008155704">
        <ele>512.51999999999998</ele>
        <time>2025-04-25T10:58:27Z</time>
      </trkpt>
      <trkpt lat="44.663578988984227" lon="2.648029960691929">
        <ele>514.44000000000005</ele>
        <time>2025-04-25T10:58:28Z</time>
      </trkpt>
      <trkpt lat="44.663475975394249" lon="2.648063991218805">
        <ele>516.85000000000002</ele>
        <time>2025-04-25T10:58:29Z</time>
      </trkpt>
      <trkpt lat="44.663372961804271" lon="2.648098021745682">
        <ele>518.76999999999998</ele>
        <time>2025-04-25T10:58:30Z</time>
      </trkpt>
      <trkpt lat="44.663270032033324" lon="2.648131968453527">
        <ele>520.69000000000005</ele>
        <time>2025-04-25T10:58:31Z</time>
      </trkpt>
      <trkpt lat="44.663168024271727" lon="2.648167004808784">
        <ele>522.61000000000001</ele>
        <time>2025-04-25T10:58:32Z</time>
      </trkpt>
      <trkpt lat="44.66306702233851" lon="2.648200029507279">
        <ele>524.05999999999995</ele>
        <time>2025-04-25T10:58:33Z</time>
      </trkpt>
      <trkpt lat="44.66296199709177" lon="2.648234982043505">
        <ele>525.5</ele>
        <time>2025-04-25T10:58:34Z</time>
      </trkpt>
      <trkpt lat="44.662306029349566" lon="2.648275969550014">
        <ele>531.75</ele>
        <time>2025-04-25T10:58:39Z</time>
      </trkpt>
      <trkpt lat="44.661441016942263" lon="2.648348975926638">
        <ele>540.88</ele>
        <time>2025-04-25T10:58:46Z</time>
      </trkpt>
      <trkpt lat="44.661230966448784" lon="2.648441009223461">
        <ele>543.27999999999997</ele>
        <time>2025-04-25T10:58:48Z</time>
      </trkpt>
      <trkpt lat="44.661120995879173" lon="2.648489037528634">
        <ele>544.72000000000003</ele>
        <time>2025-04-25T10:58:49Z</time>
      </trkpt>
      <trkpt lat="44.660861995071173" lon="2.648542011156678">
        <ele>548.09000000000003</ele>
        <time>2025-04-25T10:58:52Z</time>
      </trkpt>
      <trkpt lat="44.660797035321593" lon="2.648523990064859">
        <ele>549.04999999999995</ele>
        <time>2025-04-25T10:58:53Z</time>
      </trkpt>
      <trkpt lat="44.660711959004402" lon="2.648501023650169">
        <ele>550.49000000000001</ele>
        <time>2025-04-25T10:58:54Z</time>
      </trkpt>
      <trkpt lat="44.660536022856832" lon="2.648451989516616">
        <ele>552.40999999999997</ele>
        <time>2025-04-25T10:58:56Z</time>
      </trkpt>
      <trkpt lat="44.660155987367034" lon="2.648398010060191">
        <ele>557.22000000000003</ele>
        <time>2025-04-25T10:59:00Z</time>
      </trkpt>
      <trkpt lat="44.660110976547003" lon="2.648413013666868">
        <ele>557.70000000000005</ele>
        <time>2025-04-25T10:59:01Z</time>
      </trkpt>
      <trkpt lat="44.660096978768706" lon="2.648484008386731">
        <ele>558.17999999999995</ele>
        <time>2025-04-25T10:59:02Z</time>
      </trkpt>
      <trkpt lat="44.660080969333649" lon="2.648561038076878">
        <ele>559.13999999999999</ele>
        <time>2025-04-25T10:59:03Z</time>
      </trkpt>
      <trkpt lat="44.660067977383733" lon="2.648628009483218">
        <ele>559.62</ele>
        <time>2025-04-25T10:59:04Z</time>
      </trkpt>
      <trkpt lat="44.660110976547003" lon="2.648671008646488">
        <ele>560.11000000000001</ele>
        <time>2025-04-25T10:59:05Z</time>
      </trkpt>
      <trkpt lat="44.660177025943995" lon="2.648735968396068">
        <ele>561.07000000000005</ele>
        <time>2025-04-25T10:59:06Z</time>
      </trkpt>
      <trkpt lat="44.660248020663857" lon="2.648807968944311">
        <ele>562.02999999999997</ele>
        <time>2025-04-25T10:59:07Z</time>
      </trkpt>
      <trkpt lat="44.660710031166673" lon="2.649120027199388">
        <ele>565.87</ele>
        <time>2025-04-25T10:59:12Z</time>
      </trkpt>
      <trkpt lat="44.660809021443129" lon="2.649150034412742">
        <ele>566.35000000000002</ele>
        <time>2025-04-25T10:59:13Z</time>
      </trkpt>
      <trkpt lat="44.660909017547965" lon="2.649179035797715">
        <ele>567.32000000000005</ele>
        <time>2025-04-25T10:59:14Z</time>
      </trkpt>
      <trkpt lat="44.661692976951599" lon="2.649445999413729">
        <ele>574.03999999999996</ele>
        <time>2025-04-25T10:59:22Z</time>
      </trkpt>
      <trkpt lat="44.661778975278139" lon="2.649504002183676">
        <ele>574.52999999999997</ele>
        <time>2025-04-25T10:59:23Z</time>
      </trkpt>
      <trkpt lat="44.661825997754931" lon="2.649568961933255">
        <ele>575.00999999999999</ele>
        <time>2025-04-25T10:59:24Z</time>
      </trkpt>
      <trkpt lat="44.661870002746582" lon="2.649636017158628">
        <ele>575.49000000000001</ele>
        <time>2025-04-25T10:59:25Z</time>
      </trkpt>
      <trkpt lat="44.661871008574963" lon="2.649636017158628">
        <ele>576.45000000000005</ele>
        <time>2025-04-25T10:59:26Z</time>
      </trkpt>
      <trkpt lat="44.661852987483144" lon="2.64972603879869">
        <ele>577.40999999999997</ele>
        <time>2025-04-25T10:59:27Z</time>
      </trkpt>
      <trkpt lat="44.661848964169621" lon="2.649743976071477">
        <ele>578.85000000000002</ele>
        <time>2025-04-25T10:59:28Z</time>
      </trkpt>
      <trkpt lat="44.661790961399674" lon="2.649841038510203">
        <ele>579.80999999999995</ele>
        <time>2025-04-25T10:59:29Z</time>
      </trkpt>
      <trkpt lat="44.661755003035069" lon="2.649899963289499">
        <ele>580.76999999999998</ele>
        <time>2025-04-25T10:59:30Z</time>
      </trkpt>
      <trkpt lat="44.661704963073134" lon="2.64998403377831">
        <ele>582.70000000000005</ele>
        <time>2025-04-25T10:59:32Z</time>
      </trkpt>
      <trkpt lat="44.661678979173303" lon="2.65002703294158">
        <ele>583.17999999999995</ele>
        <time>2025-04-25T10:59:33Z</time>
      </trkpt>
      <trkpt lat="44.661591975018382" lon="2.650172961875796">
        <ele>583.65999999999997</ele>
        <time>2025-04-25T10:59:34Z</time>
      </trkpt>
      <trkpt lat="44.661591975018382" lon="2.649894012138248">
        <ele>583.65999999999997</ele>
        <time>2025-04-25T10:59:35Z</time>
      </trkpt>
      <trkpt lat="44.661591975018382" lon="2.649894012138248">
        <ele>584.62</ele>
        <time>2025-04-25T10:59:36Z</time>
      </trkpt>
      <trkpt lat="44.661578983068466" lon="2.649815976619721">
        <ele>585.10000000000002</ele>
        <time>2025-04-25T10:59:37Z</time>
      </trkpt>
      <trkpt lat="44.661570014432073" lon="2.649765014648438">
        <ele>584.62</ele>
        <time>2025-04-25T10:59:38Z</time>
      </trkpt>
      <trkpt lat="44.661570014432073" lon="2.649765014648438">
        <ele>584.62</ele>
        <time>2025-04-25T10:59:39Z</time>
      </trkpt>
      <trkpt lat="44.661527015268803" lon="2.649772977456451">
        <ele>584.13999999999999</ele>
        <time>2025-04-25T10:59:40Z</time>
      </trkpt>
      <trkpt lat="44.661459038034081" lon="2.649785969406366">
        <ele>584.13999999999999</ele>
        <time>2025-04-25T10:59:41Z</time>
      </trkpt>
      <trkpt lat="44.661375973373652" lon="2.649800973013043">
        <ele>583.65999999999997</ele>
        <time>2025-04-25T10:59:42Z</time>
      </trkpt>
      <trkpt lat="44.661291986703873" lon="2.649816982448101">
        <ele>583.17999999999995</ele>
        <time>2025-04-25T10:59:43Z</time>
      </trkpt>
      <trkpt lat="44.661200037226081" lon="2.649833997711539">
        <ele>583.17999999999995</ele>
        <time>2025-04-25T10:59:44Z</time>
      </trkpt>
      <trkpt lat="44.661106998100877" lon="2.649851012974978">
        <ele>582.70000000000005</ele>
        <time>2025-04-25T10:59:45Z</time>
      </trkpt>
      <trkpt lat="44.661014964804053" lon="2.649868028238416">
        <ele>582.22000000000003</ele>
        <time>2025-04-25T10:59:46Z</time>
      </trkpt>
      <trkpt lat="44.660922009497881" lon="2.649885965511203">
        <ele>582.70000000000005</ele>
        <time>2025-04-25T10:59:47Z</time>
      </trkpt>
      <trkpt lat="44.660825030878186" lon="2.649902980774641">
        <ele>582.70000000000005</ele>
        <time>2025-04-25T10:59:48Z</time>
      </trkpt>
      <trkpt lat="44.660732997581363" lon="2.64992100186646">
        <ele>583.17999999999995</ele>
        <time>2025-04-25T10:59:49Z</time>
      </trkpt>
      <trkpt lat="44.660646999254823" lon="2.649937011301518">
        <ele>583.17999999999995</ele>
        <time>2025-04-25T10:59:50Z</time>
      </trkpt>
      <trkpt lat="44.660531999543309" lon="2.649916978552938">
        <ele>583.65999999999997</ele>
        <time>2025-04-25T10:59:51Z</time>
      </trkpt>
      <trkpt lat="44.66042798012495" lon="2.64989904128015">
        <ele>584.13999999999999</ele>
        <time>2025-04-25T10:59:52Z</time>
      </trkpt>
      <trkpt lat="44.660227987915277" lon="2.649865010753274">
        <ele>585.10000000000002</ele>
        <time>2025-04-25T10:59:54Z</time>
      </trkpt>
      <trkpt lat="44.660139977931976" lon="2.649849001318216">
        <ele>585.58000000000004</ele>
        <time>2025-04-25T10:59:55Z</time>
      </trkpt>
      <trkpt lat="44.660024978220463" lon="2.649828968569636">
        <ele>586.05999999999995</ele>
        <time>2025-04-25T10:59:56Z</time>
      </trkpt>
      <trkpt lat="44.659961024299264" lon="2.649865010753274">
        <ele>586.53999999999996</ele>
        <time>2025-04-25T10:59:57Z</time>
      </trkpt>
      <trkpt lat="44.659873014315963" lon="2.649914966896176">
        <ele>587.5</ele>
        <time>2025-04-25T10:59:58Z</time>
      </trkpt>
      <trkpt lat="44.659785004332662" lon="2.649966012686491">
        <ele>588.46000000000004</ele>
        <time>2025-04-25T10:59:59Z</time>
      </trkpt>
      <trkpt lat="44.659693976864219" lon="2.650016974657774">
        <ele>589.90999999999997</ele>
        <time>2025-04-25T11:00:00Z</time>
      </trkpt>
      <trkpt lat="44.659600015729666" lon="2.65007103793323">
        <ele>590.87</ele>
        <time>2025-04-25T11:00:01Z</time>
      </trkpt>
      <trkpt lat="44.659503037109971" lon="2.650125017389655">
        <ele>592.30999999999995</ele>
        <time>2025-04-25T11:00:02Z</time>
      </trkpt>
      <trkpt lat="44.659399017691612" lon="2.650184025987983">
        <ele>593.75</ele>
        <time>2025-04-25T11:00:03Z</time>
      </trkpt>
      <trkpt lat="44.659290974959731" lon="2.65024596825242">
        <ele>595.19000000000005</ele>
        <time>2025-04-25T11:00:04Z</time>
      </trkpt>
      <trkpt lat="44.659169018268585" lon="2.65028603374958">
        <ele>596.63999999999999</ele>
        <time>2025-04-25T11:00:05Z</time>
      </trkpt>
      <trkpt lat="44.65905100107193" lon="2.650299025699496">
        <ele>598.55999999999995</ele>
        <time>2025-04-25T11:00:06Z</time>
      </trkpt>
      <trkpt lat="44.658928960561752" lon="2.650312017649412">
        <ele>600</ele>
        <time>2025-04-25T11:00:07Z</time>
      </trkpt>
      <trkpt lat="44.658800968900323" lon="2.650325009599328">
        <ele>601.91999999999996</ele>
        <time>2025-04-25T11:00:08Z</time>
      </trkpt>
      <trkpt lat="44.658673983067274" lon="2.650339007377625">
        <ele>603.85000000000002</ele>
        <time>2025-04-25T11:00:09Z</time>
      </trkpt>
      <trkpt lat="44.658444989472628" lon="2.650362979620695">
        <ele>607.21000000000004</ele>
        <time>2025-04-25T11:00:11Z</time>
      </trkpt>
      <trkpt lat="44.658340970054269" lon="2.650423999875784">
        <ele>609.13</ele>
        <time>2025-04-25T11:00:12Z</time>
      </trkpt>
      <trkpt lat="44.658247008919716" lon="2.650497006252408">
        <ele>610.57000000000005</ele>
        <time>2025-04-25T11:00:13Z</time>
      </trkpt>
      <trkpt lat="44.657958000898361" lon="2.650690041482449">
        <ele>616.34000000000003</ele>
        <time>2025-04-25T11:00:16Z</time>
      </trkpt>
      <trkpt lat="44.65784702450037" lon="2.650727005675435">
        <ele>617.77999999999997</ele>
        <time>2025-04-25T11:00:17Z</time>
      </trkpt>
      <trkpt lat="44.657723978161812" lon="2.650767993181944">
        <ele>619.23000000000002</ele>
        <time>2025-04-25T11:00:18Z</time>
      </trkpt>
      <trkpt lat="44.657595986500382" lon="2.650810992345214">
        <ele>621.14999999999998</ele>
        <time>2025-04-25T11:00:19Z</time>
      </trkpt>
      <trkpt lat="44.657464977353811" lon="2.650853991508484">
        <ele>622.59000000000003</ele>
        <time>2025-04-25T11:00:20Z</time>
      </trkpt>
      <trkpt lat="44.657340003177524" lon="2.650914005935192">
        <ele>624.02999999999997</ele>
        <time>2025-04-25T11:00:21Z</time>
      </trkpt>
      <trkpt lat="44.656894002109766" lon="2.651089020073414">
        <ele>629.32000000000005</ele>
        <time>2025-04-25T11:00:25Z</time>
      </trkpt>
      <trkpt lat="44.656797023490071" lon="2.65108197927475">
        <ele>630.75999999999999</ele>
        <time>2025-04-25T11:00:26Z</time>
      </trkpt>
      <trkpt lat="44.65668797492981" lon="2.651063958182931">
        <ele>632.20000000000005</ele>
        <time>2025-04-25T11:00:27Z</time>
      </trkpt>
      <trkpt lat="44.656595019623637" lon="2.650983994826675">
        <ele>633.64999999999998</ele>
        <time>2025-04-25T11:00:28Z</time>
      </trkpt>
      <trkpt lat="44.656510027125478" lon="2.650911994278431">
        <ele>635.09000000000003</ele>
        <time>2025-04-25T11:00:29Z</time>
      </trkpt>
      <trkpt lat="44.65642997995019" lon="2.650843011215329">
        <ele>636.04999999999995</ele>
        <time>2025-04-25T11:00:30Z</time>
      </trkpt>
      <trkpt lat="44.656312968581915" lon="2.650816021487117">
        <ele>637.49000000000001</ele>
        <time>2025-04-25T11:00:31Z</time>
      </trkpt>
      <trkpt lat="44.656269969418645" lon="2.65084401704371">
        <ele>638.45000000000005</ele>
        <time>2025-04-25T11:00:32Z</time>
      </trkpt>
      <trkpt lat="44.656179025769234" lon="2.650904031470418">
        <ele>639.88999999999999</ele>
        <time>2025-04-25T11:00:33Z</time>
      </trkpt>
      <trkpt lat="44.656080035492778" lon="2.650967985391617">
        <ele>641.34000000000003</ele>
        <time>2025-04-25T11:00:34Z</time>
      </trkpt>
      <trkpt lat="44.655522974207997" lon="2.651329999789596">
        <ele>651.90999999999997</ele>
        <time>2025-04-25T11:00:40Z</time>
      </trkpt>
      <trkpt lat="44.655453991144896" lon="2.651375010609627">
        <ele>653.35000000000002</ele>
        <time>2025-04-25T11:00:41Z</time>
      </trkpt>
      <trkpt lat="44.655368998646736" lon="2.651503002271056">
        <ele>654.79999999999995</ele>
        <time>2025-04-25T11:00:42Z</time>
      </trkpt>
      <trkpt lat="44.655347960069776" lon="2.651583971455693">
        <ele>656.24000000000001</ele>
        <time>2025-04-25T11:00:43Z</time>
      </trkpt>
      <trkpt lat="44.655315019190311" lon="2.651713974773884">
        <ele>657.67999999999995</ele>
        <time>2025-04-25T11:00:44Z</time>
      </trkpt>
      <trkpt lat="44.655281994491816" lon="2.651839032769203">
        <ele>659.60000000000002</ele>
        <time>2025-04-25T11:00:45Z</time>
      </trkpt>
      <trkpt lat="44.655218040570617" lon="2.652089986950159">
        <ele>662.97000000000003</ele>
        <time>2025-04-25T11:00:47Z</time>
      </trkpt>
      <trkpt lat="44.655188033357263" lon="2.652206998318434">
        <ele>664.88999999999999</ele>
        <time>2025-04-25T11:00:48Z</time>
      </trkpt>
      <trkpt lat="44.655108992010355" lon="2.652319986373186">
        <ele>665.85000000000002</ele>
        <time>2025-04-25T11:00:49Z</time>
      </trkpt>
      <trkpt lat="44.655028022825718" lon="2.652401039376855">
        <ele>667.28999999999996</ele>
        <time>2025-04-25T11:00:50Z</time>
      </trkpt>
      <trkpt lat="44.654944958165288" lon="2.652484020218253">
        <ele>668.73000000000002</ele>
        <time>2025-04-25T11:00:51Z</time>
      </trkpt>
      <trkpt lat="44.65486197732389" lon="2.652567001059651">
        <ele>669.70000000000005</ele>
        <time>2025-04-25T11:00:52Z</time>
      </trkpt>
      <trkpt lat="44.654785031452775" lon="2.652644030749798">
        <ele>670.17999999999995</ele>
        <time>2025-04-25T11:00:53Z</time>
      </trkpt>
      <trkpt lat="44.654715964570642" lon="2.65271401964128">
        <ele>671.13999999999999</ele>
        <time>2025-04-25T11:00:54Z</time>
      </trkpt>
      <trkpt lat="44.654651004821062" lon="2.65277897939086">
        <ele>672.10000000000002</ele>
        <time>2025-04-25T11:00:55Z</time>
      </trkpt>
      <trkpt lat="44.654614962637424" lon="2.652861960232258">
        <ele>673.05999999999995</ele>
        <time>2025-04-25T11:00:56Z</time>
      </trkpt>
      <trkpt lat="44.654482025653124" lon="2.653246019035578">
        <ele>675.46000000000004</ele>
        <time>2025-04-25T11:00:59Z</time>
      </trkpt>
      <trkpt lat="44.654417987912893" lon="2.653393037617207">
        <ele>675.94000000000005</ele>
        <time>2025-04-25T11:01:00Z</time>
      </trkpt>
      <trkpt lat="44.654340958222747" lon="2.653517005965114">
        <ele>676.41999999999996</ele>
        <time>2025-04-25T11:01:01Z</time>
      </trkpt>
      <trkpt lat="44.654211960732937" lon="2.653611972928047">
        <ele>676.90999999999997</ele>
        <time>2025-04-25T11:01:02Z</time>
      </trkpt>
      <trkpt lat="44.654094027355313" lon="2.653696965426207">
        <ele>677.38999999999999</ele>
        <time>2025-04-25T11:01:03Z</time>
      </trkpt>
      <trkpt lat="44.653313001617789" lon="2.654377995058894">
        <ele>683.14999999999998</ele>
        <time>2025-04-25T11:01:10Z</time>
      </trkpt>
      <trkpt lat="44.653189033269882" lon="2.6544329803437">
        <ele>684.12</ele>
        <time>2025-04-25T11:01:11Z</time>
      </trkpt>
      <trkpt lat="44.652283033356071" lon="2.654963973909617">
        <ele>688.44000000000005</ele>
        <time>2025-04-25T11:01:19Z</time>
      </trkpt>
      <trkpt lat="44.652193011716008" lon="2.655021976679564">
        <ele>687.96000000000004</ele>
        <time>2025-04-25T11:01:20Z</time>
      </trkpt>
      <trkpt lat="44.652165016159415" lon="2.655092971399427">
        <ele>687.96000000000004</ele>
        <time>2025-04-25T11:01:21Z</time>
      </trkpt>
      <trkpt lat="44.652150012552738" lon="2.655209982767701">
        <ele>687.48000000000002</ele>
        <time>2025-04-25T11:01:22Z</time>
      </trkpt>
      <trkpt lat="44.652150012552738" lon="2.655355995520949">
        <ele>687</ele>
        <time>2025-04-25T11:01:23Z</time>
      </trkpt>
      <trkpt lat="44.652150012552738" lon="2.655522963032126">
        <ele>687</ele>
        <time>2025-04-25T11:01:24Z</time>
      </trkpt>
      <trkpt lat="44.652150012552738" lon="2.655696971341968">
        <ele>686.51999999999998</ele>
        <time>2025-04-25T11:01:25Z</time>
      </trkpt>
      <trkpt lat="44.652150012552738" lon="2.655877014622092">
        <ele>686.03999999999996</ele>
        <time>2025-04-25T11:01:26Z</time>
      </trkpt>
      <trkpt lat="44.652068959549069" lon="2.656793994829059">
        <ele>684.60000000000002</ele>
        <time>2025-04-25T11:01:32Z</time>
      </trkpt>
      <trkpt lat="44.652015985921025" lon="2.656919974833727">
        <ele>685.08000000000004</ele>
        <time>2025-04-25T11:01:33Z</time>
      </trkpt>
      <trkpt lat="44.65194096788764" lon="2.657036986202002">
        <ele>685.08000000000004</ele>
        <time>2025-04-25T11:01:34Z</time>
      </trkpt>
      <trkpt lat="44.65140201151371" lon="2.657761014997959">
        <ele>685.08000000000004</ele>
        <time>2025-04-25T11:01:40Z</time>
      </trkpt>
      <trkpt lat="44.651309978216887" lon="2.657882971689105">
        <ele>685.08000000000004</ele>
        <time>2025-04-25T11:01:41Z</time>
      </trkpt>
      <trkpt lat="44.651161031797528" lon="2.658157981932163">
        <ele>685.55999999999995</ele>
        <time>2025-04-25T11:01:43Z</time>
      </trkpt>
      <trkpt lat="44.651089031249285" lon="2.658291002735496">
        <ele>685.55999999999995</ele>
        <time>2025-04-25T11:01:44Z</time>
      </trkpt>
      <trkpt lat="44.651022981852293" lon="2.658441960811615">
        <ele>685.55999999999995</ele>
        <time>2025-04-25T11:01:45Z</time>
      </trkpt>
      <trkpt lat="44.650987023487687" lon="2.658598031848669">
        <ele>686.03999999999996</ele>
        <time>2025-04-25T11:01:46Z</time>
      </trkpt>
      <trkpt lat="44.650975037366152" lon="2.658772962167859">
        <ele>686.51999999999998</ele>
        <time>2025-04-25T11:01:47Z</time>
      </trkpt>
      <trkpt lat="44.650984006002545" lon="2.658932972699404">
        <ele>687.48000000000002</ele>
        <time>2025-04-25T11:01:48Z</time>
      </trkpt>
      <trkpt lat="44.651000015437603" lon="2.659111004322767">
        <ele>688.44000000000005</ele>
        <time>2025-04-25T11:01:49Z</time>
      </trkpt>
      <trkpt lat="44.651044020429254" lon="2.659275960177183">
        <ele>689.39999999999998</ele>
        <time>2025-04-25T11:01:50Z</time>
      </trkpt>
      <trkpt lat="44.651172012090683" lon="2.65976102091372">
        <ele>692.76999999999998</ele>
        <time>2025-04-25T11:01:53Z</time>
      </trkpt>
      <trkpt lat="44.651185004040599" lon="2.659877026453614">
        <ele>694.21000000000004</ele>
        <time>2025-04-25T11:01:54Z</time>
      </trkpt>
      <trkpt lat="44.651185004040599" lon="2.659999988973141">
        <ele>695.16999999999996</ele>
        <time>2025-04-25T11:01:55Z</time>
      </trkpt>
      <trkpt lat="44.651133958250284" lon="2.660064026713371">
        <ele>697.09000000000003</ele>
        <time>2025-04-25T11:01:56Z</time>
      </trkpt>
      <trkpt lat="44.651048965752125" lon="2.66012404114008">
        <ele>698.52999999999997</ele>
        <time>2025-04-25T11:01:57Z</time>
      </trkpt>
      <trkpt lat="44.650963973253965" lon="2.660152958706021">
        <ele>699.5</ele>
        <time>2025-04-25T11:01:58Z</time>
      </trkpt>
      <trkpt lat="44.650866994634271" lon="2.660184977576137">
        <ele>700.94000000000005</ele>
        <time>2025-04-25T11:01:59Z</time>
      </trkpt>
      <trkpt lat="44.650774039328098" lon="2.660216996446252">
        <ele>701.89999999999998</ele>
        <time>2025-04-25T11:02:00Z</time>
      </trkpt>
      <trkpt lat="44.650670019909739" lon="2.660300983116031">
        <ele>702.86000000000001</ele>
        <time>2025-04-25T11:02:01Z</time>
      </trkpt>
      <trkpt lat="44.65063096024096" lon="2.660389998927712">
        <ele>703.82000000000005</ele>
        <time>2025-04-25T11:02:02Z</time>
      </trkpt>
      <trkpt lat="44.650579998269677" lon="2.660510027781129">
        <ele>705.25999999999999</ele>
        <time>2025-04-25T11:02:03Z</time>
      </trkpt>
      <trkpt lat="44.650535993278027" lon="2.660633996129036">
        <ele>706.71000000000004</ele>
        <time>2025-04-25T11:02:04Z</time>
      </trkpt>
      <trkpt lat="44.65049802325666" lon="2.66102802939713">
        <ele>711.50999999999999</ele>
        <time>2025-04-25T11:02:07Z</time>
      </trkpt>
      <trkpt lat="44.65049802325666" lon="2.661135988309979">
        <ele>712.47000000000003</ele>
        <time>2025-04-25T11:02:08Z</time>
      </trkpt>
      <trkpt lat="44.65049802325666" lon="2.66130899079144">
        <ele>713.91999999999996</ele>
        <time>2025-04-25T11:02:09Z</time>
      </trkpt>
      <trkpt lat="44.650559965521097" lon="2.661349978297949">
        <ele>715.36000000000001</ele>
        <time>2025-04-25T11:02:10Z</time>
      </trkpt>
      <trkpt lat="44.650639006868005" lon="2.661403035745025">
        <ele>716.79999999999995</ele>
        <time>2025-04-25T11:02:11Z</time>
      </trkpt>
      <trkpt lat="44.650723999366164" lon="2.661460032686591">
        <ele>717.75999999999999</ele>
        <time>2025-04-25T11:02:12Z</time>
      </trkpt>
      <trkpt lat="44.650808991864324" lon="2.661516023799777">
        <ele>718.72000000000003</ele>
        <time>2025-04-25T11:02:13Z</time>
      </trkpt>
      <trkpt lat="44.650894990190864" lon="2.661588024348021">
        <ele>719.67999999999995</ele>
        <time>2025-04-25T11:02:14Z</time>
      </trkpt>
      <trkpt lat="44.650941006839275" lon="2.661680979654193">
        <ele>720.64999999999998</ele>
        <time>2025-04-25T11:02:15Z</time>
      </trkpt>
      <trkpt lat="44.650990962982178" lon="2.661796985194087">
        <ele>721.61000000000001</ele>
        <time>2025-04-25T11:02:16Z</time>
      </trkpt>
      <trkpt lat="44.650990962982178" lon="2.661911984905601">
        <ele>722.09000000000003</ele>
        <time>2025-04-25T11:02:17Z</time>
      </trkpt>
      <trkpt lat="44.650990962982178" lon="2.662046011537314">
        <ele>723.04999999999995</ele>
        <time>2025-04-25T11:02:18Z</time>
      </trkpt>
      <trkpt lat="44.650990962982178" lon="2.662191018462181">
        <ele>724.00999999999999</ele>
        <time>2025-04-25T11:02:19Z</time>
      </trkpt>
      <trkpt lat="44.650990962982178" lon="2.662339964881539">
        <ele>724.97000000000003</ele>
        <time>2025-04-25T11:02:20Z</time>
      </trkpt>
      <trkpt lat="44.650990962982178" lon="2.662483965978026">
        <ele>725.45000000000005</ele>
        <time>2025-04-25T11:02:21Z</time>
      </trkpt>
      <trkpt lat="44.651004960760474" lon="2.662605000659823">
        <ele>725.92999999999995</ele>
        <time>2025-04-25T11:02:22Z</time>
      </trkpt>
      <trkpt lat="44.651025999337435" lon="2.662713965401053">
        <ele>726.40999999999997</ele>
        <time>2025-04-25T11:02:23Z</time>
      </trkpt>
      <trkpt lat="44.651046032086015" lon="2.662821002304554">
        <ele>726.88999999999999</ele>
        <time>2025-04-25T11:02:24Z</time>
      </trkpt>
      <trkpt lat="44.651064975187182" lon="2.662924015894532">
        <ele>726.88999999999999</ele>
        <time>2025-04-25T11:02:25Z</time>
      </trkpt>
      <trkpt lat="44.651084002107382" lon="2.663019988685846">
        <ele>727.37</ele>
        <time>2025-04-25T11:02:26Z</time>
      </trkpt>
      <trkpt lat="44.651099005714059" lon="2.663101041689515">
        <ele>727.37</ele>
        <time>2025-04-25T11:02:27Z</time>
      </trkpt>
      <trkpt lat="44.651110991835594" lon="2.663166001439095">
        <ele>727.37</ele>
        <time>2025-04-25T11:02:28Z</time>
      </trkpt>
      <trkpt lat="44.651122977957129" lon="2.663228027522564">
        <ele>727.86000000000001</ele>
        <time>2025-04-25T11:02:29Z</time>
      </trkpt>
      <trkpt lat="44.651134964078665" lon="2.663288963958621">
        <ele>727.86000000000001</ele>
        <time>2025-04-25T11:02:30Z</time>
      </trkpt>
      <trkpt lat="44.651032034307718" lon="2.663365993648768">
        <ele>727.86000000000001</ele>
        <time>2025-04-25T11:02:31Z</time>
      </trkpt>
      <trkpt lat="44.650961961597204" lon="2.663391977548599">
        <ele>727.86000000000001</ele>
        <time>2025-04-25T11:02:32Z</time>
      </trkpt>
      <trkpt lat="44.650876969099045" lon="2.663422990590334">
        <ele>727.37</ele>
        <time>2025-04-25T11:02:33Z</time>
      </trkpt>
      <trkpt lat="44.650783007964492" lon="2.66345601528883">
        <ele>727.37</ele>
        <time>2025-04-25T11:02:34Z</time>
      </trkpt>
      <trkpt lat="44.650686029344797" lon="2.663491973653436">
        <ele>726.88999999999999</ele>
        <time>2025-04-25T11:02:35Z</time>
      </trkpt>
      <trkpt lat="44.65024002827704" lon="2.663604961708188">
        <ele>726.40999999999997</ele>
        <time>2025-04-25T11:02:39Z</time>
      </trkpt>
      <trkpt lat="44.649154990911484" lon="2.663536984473467">
        <ele>729.77999999999997</ele>
        <time>2025-04-25T11:02:48Z</time>
      </trkpt>
      <trkpt lat="44.649052983149886" lon="2.663556011393666">
        <ele>730.25999999999999</ele>
        <time>2025-04-25T11:02:49Z</time>
      </trkpt>
      <trkpt lat="44.648958016186953" lon="2.663622982800007">
        <ele>730.74000000000001</ele>
        <time>2025-04-25T11:02:50Z</time>
      </trkpt>
      <trkpt lat="44.648082023486495" lon="2.664516996592283">
        <ele>734.10000000000002</ele>
        <time>2025-04-25T11:02:58Z</time>
      </trkpt>
      <trkpt lat="44.647524962201715" lon="2.664904994890094">
        <ele>732.17999999999995</ele>
        <time>2025-04-25T11:03:02Z</time>
      </trkpt>
      <trkpt lat="44.647378027439117" lon="2.664927961304784">
        <ele>731.70000000000005</ele>
        <time>2025-04-25T11:03:03Z</time>
      </trkpt>
      <trkpt lat="44.647231008857489" lon="2.664951011538506">
        <ele>731.22000000000003</ele>
        <time>2025-04-25T11:03:04Z</time>
      </trkpt>
      <trkpt lat="44.646544028073549" lon="2.664878005161881">
        <ele>727.86000000000001</ele>
        <time>2025-04-25T11:03:09Z</time>
      </trkpt>
      <trkpt lat="44.646408995613456" lon="2.664912035688758">
        <ele>727.37</ele>
        <time>2025-04-25T11:03:10Z</time>
      </trkpt>
      <trkpt lat="44.645229997113347" lon="2.665406987071037">
        <ele>724.97000000000003</ele>
        <time>2025-04-25T11:03:19Z</time>
      </trkpt>
      <trkpt lat="44.644239004701376" lon="2.666433015838265">
        <ele>726.40999999999997</ele>
        <time>2025-04-25T11:03:28Z</time>
      </trkpt>
      <trkpt lat="44.643127983435988" lon="2.667712010443211">
        <ele>727.37</ele>
        <time>2025-04-25T11:03:39Z</time>
      </trkpt>
      <trkpt lat="44.643061012029648" lon="2.667770013213158">
        <ele>727.37</ele>
        <time>2025-04-25T11:03:40Z</time>
      </trkpt>
      <trkpt lat="44.642996974289417" lon="2.667814018204808">
        <ele>726.88999999999999</ele>
        <time>2025-04-25T11:03:41Z</time>
      </trkpt>
      <trkpt lat="44.64293796569109" lon="2.667827010154724">
        <ele>726.88999999999999</ele>
        <time>2025-04-25T11:03:42Z</time>
      </trkpt>
      <trkpt lat="44.642885997891426" lon="2.667837990447879">
        <ele>726.88999999999999</ele>
        <time>2025-04-25T11:03:43Z</time>
      </trkpt>
      <trkpt lat="44.642782984301448" lon="2.667768001556397">
        <ele>726.40999999999997</ele>
        <time>2025-04-25T11:03:44Z</time>
      </trkpt>
      <trkpt lat="44.64274300262332" lon="2.667662976309657">
        <ele>726.40999999999997</ele>
        <time>2025-04-25T11:03:45Z</time>
      </trkpt>
      <trkpt lat="44.642692040652037" lon="2.667530961334705">
        <ele>726.40999999999997</ele>
        <time>2025-04-25T11:03:46Z</time>
      </trkpt>
      <trkpt lat="44.642428010702133" lon="2.666849009692669">
        <ele>727.37</ele>
        <time>2025-04-25T11:03:50Z</time>
      </trkpt>
      <trkpt lat="44.642344024032354" lon="2.666630996391177">
        <ele>727.37</ele>
        <time>2025-04-25T11:03:51Z</time>
      </trkpt>
      <trkpt lat="44.642319967970252" lon="2.666438966989517">
        <ele>727.37</ele>
        <time>2025-04-25T11:03:52Z</time>
      </trkpt>
      <trkpt lat="44.642301024869084" lon="2.666238974779844">
        <ele>727.37</ele>
        <time>2025-04-25T11:03:53Z</time>
      </trkpt>
      <trkpt lat="44.642301024869084" lon="2.666053986176848">
        <ele>727.37</ele>
        <time>2025-04-25T11:03:54Z</time>
      </trkpt>
      <trkpt lat="44.642301024869084" lon="2.665876960381866">
        <ele>727.37</ele>
        <time>2025-04-25T11:03:55Z</time>
      </trkpt>
      <trkpt lat="44.642281997948885" lon="2.665527015924454">
        <ele>726.88999999999999</ele>
        <time>2025-04-25T11:03:57Z</time>
      </trkpt>
      <trkpt lat="44.642262971028686" lon="2.665344960987568">
        <ele>726.88999999999999</ele>
        <time>2025-04-25T11:03:58Z</time>
      </trkpt>
      <trkpt lat="44.642218966037035" lon="2.665184028446674">
        <ele>726.40999999999997</ele>
        <time>2025-04-25T11:03:59Z</time>
      </trkpt>
      <trkpt lat="44.642145959660411" lon="2.6650479901582">
        <ele>726.40999999999997</ele>
        <time>2025-04-25T11:04:00Z</time>
      </trkpt>
      <trkpt lat="44.6420359890908" lon="2.664975989609957">
        <ele>726.40999999999997</ele>
        <time>2025-04-25T11:04:01Z</time>
      </trkpt>
      <trkpt lat="44.641904979944229" lon="2.664931984618306">
        <ele>725.45000000000005</ele>
        <time>2025-04-25T11:04:02Z</time>
      </trkpt>
      <trkpt lat="44.641756033524871" lon="2.66493801958859">
        <ele>724.97000000000003</ele>
        <time>2025-04-25T11:04:03Z</time>
      </trkpt>
      <trkpt lat="44.641600968316197" lon="2.664978001266718">
        <ele>724.49000000000001</ele>
        <time>2025-04-25T11:04:04Z</time>
      </trkpt>
      <trkpt lat="44.641441963613033" lon="2.665018988773227">
        <ele>724.00999999999999</ele>
        <time>2025-04-25T11:04:05Z</time>
      </trkpt>
      <trkpt lat="44.640964027494192" lon="2.665125019848347">
        <ele>722.57000000000005</ele>
        <time>2025-04-25T11:04:08Z</time>
      </trkpt>
      <trkpt lat="44.640792030841112" lon="2.665113033726811">
        <ele>722.09000000000003</ele>
        <time>2025-04-25T11:04:09Z</time>
      </trkpt>
      <trkpt lat="44.640259025618434" lon="2.665120996534824">
        <ele>721.13</ele>
        <time>2025-04-25T11:04:12Z</time>
      </trkpt>
      <trkpt lat="44.640088034793735" lon="2.665167013183236">
        <ele>720.64999999999998</ele>
        <time>2025-04-25T11:04:13Z</time>
      </trkpt>
      <trkpt lat="44.63992903009057" lon="2.665284024551511">
        <ele>720.15999999999997</ele>
        <time>2025-04-25T11:04:14Z</time>
      </trkpt>
      <trkpt lat="44.639775976538658" lon="2.665405981242657">
        <ele>719.20000000000005</ele>
        <time>2025-04-25T11:04:15Z</time>
      </trkpt>
      <trkpt lat="44.639622000977397" lon="2.665539002045989">
        <ele>718.24000000000001</ele>
        <time>2025-04-25T11:04:16Z</time>
      </trkpt>
      <trkpt lat="44.639491997659206" lon="2.665708987042308">
        <ele>717.75999999999999</ele>
        <time>2025-04-25T11:04:17Z</time>
      </trkpt>
      <trkpt lat="44.639363000169396" lon="2.665877966210246">
        <ele>716.79999999999995</ele>
        <time>2025-04-25T11:04:18Z</time>
      </trkpt>
      <trkpt lat="44.639272978529334" lon="2.666086005046964">
        <ele>715.84000000000003</ele>
        <time>2025-04-25T11:04:19Z</time>
      </trkpt>
      <trkpt lat="44.639202989637852" lon="2.666301000863314">
        <ele>715.36000000000001</ele>
        <time>2025-04-25T11:04:20Z</time>
      </trkpt>
      <trkpt lat="44.639149010181427" lon="2.666523959487677">
        <ele>714.39999999999998</ele>
        <time>2025-04-25T11:04:21Z</time>
      </trkpt>
      <trkpt lat="44.639095030725002" lon="2.66674398444593">
        <ele>713.44000000000005</ele>
        <time>2025-04-25T11:04:22Z</time>
      </trkpt>
      <trkpt lat="44.63896200992167" lon="2.667154027149081">
        <ele>711.99000000000001</ele>
        <time>2025-04-25T11:04:24Z</time>
      </trkpt>
      <trkpt lat="44.638850027695298" lon="2.667340021580458">
        <ele>711.50999999999999</ele>
        <time>2025-04-25T11:04:25Z</time>
      </trkpt>
      <trkpt lat="44.638695968315005" lon="2.667486034333706">
        <ele>711.02999999999997</ele>
        <time>2025-04-25T11:04:26Z</time>
      </trkpt>
      <trkpt lat="44.638531012460589" lon="2.667620982974768">
        <ele>710.54999999999995</ele>
        <time>2025-04-25T11:04:27Z</time>
      </trkpt>
      <trkpt lat="44.638363039121032" lon="2.66768996603787">
        <ele>710.07000000000005</ele>
        <time>2025-04-25T11:04:28Z</time>
      </trkpt>
      <trkpt lat="44.638182995840907" lon="2.667734976857901">
        <ele>709.11000000000001</ele>
        <time>2025-04-25T11:04:29Z</time>
      </trkpt>
      <trkpt lat="44.638003036379814" lon="2.667720979079604">
        <ele>708.63</ele>
        <time>2025-04-25T11:04:30Z</time>
      </trkpt>
      <trkpt lat="44.637805977836251" lon="2.667683009058237">
        <ele>707.66999999999996</ele>
        <time>2025-04-25T11:04:31Z</time>
      </trkpt>
      <trkpt lat="44.637606991454959" lon="2.667644033208489">
        <ele>706.71000000000004</ele>
        <time>2025-04-25T11:04:32Z</time>
      </trkpt>
      <trkpt lat="44.637399036437273" lon="2.667656019330025">
        <ele>705.75</ele>
        <time>2025-04-25T11:04:33Z</time>
      </trkpt>
      <trkpt lat="44.637188985943794" lon="2.667703041806817">
        <ele>704.77999999999997</ele>
        <time>2025-04-25T11:04:34Z</time>
      </trkpt>
      <trkpt lat="44.636560007929802" lon="2.667873026803136">
        <ele>701.41999999999996</ele>
        <time>2025-04-25T11:04:37Z</time>
      </trkpt>
      <trkpt lat="44.636382982134819" lon="2.668005041778088">
        <ele>699.98000000000002</ele>
        <time>2025-04-25T11:04:38Z</time>
      </trkpt>
      <trkpt lat="44.636206040158868" lon="2.668135967105627">
        <ele>699.01999999999998</ele>
        <time>2025-04-25T11:04:39Z</time>
      </trkpt>
      <trkpt lat="44.635866992175579" lon="2.668388010933995">
        <ele>696.13</ele>
        <time>2025-04-25T11:04:41Z</time>
      </trkpt>
      <trkpt lat="44.635682003572583" lon="2.668455988168716">
        <ele>694.69000000000005</ele>
        <time>2025-04-25T11:04:42Z</time>
      </trkpt>
      <trkpt lat="44.63550397194922" lon="2.668456993997097">
        <ele>692.76999999999998</ele>
        <time>2025-04-25T11:04:43Z</time>
      </trkpt>
      <trkpt lat="44.635327029973269" lon="2.668428998440504">
        <ele>691.33000000000004</ele>
        <time>2025-04-25T11:04:44Z</time>
      </trkpt>
      <trkpt lat="44.63513801805675" lon="2.668399997055531">
        <ele>689.39999999999998</ele>
        <time>2025-04-25T11:04:45Z</time>
      </trkpt>
      <trkpt lat="44.634942971169949" lon="2.668368984013796">
        <ele>687.96000000000004</ele>
        <time>2025-04-25T11:04:46Z</time>
      </trkpt>
      <trkpt lat="44.634739961475134" lon="2.668379964306951">
        <ele>686.03999999999996</ele>
        <time>2025-04-25T11:04:47Z</time>
      </trkpt>
      <trkpt lat="44.634531000629067" lon="2.668405026197434">
        <ele>684.60000000000002</ele>
        <time>2025-04-25T11:04:48Z</time>
      </trkpt>
      <trkpt lat="44.63434400036931" lon="2.668516002595425">
        <ele>682.66999999999996</ele>
        <time>2025-04-25T11:04:49Z</time>
      </trkpt>
      <trkpt lat="44.63414903730154" lon="2.668633013963699">
        <ele>680.75</ele>
        <time>2025-04-25T11:04:50Z</time>
      </trkpt>
      <trkpt lat="44.633948039263487" lon="2.668752958998084">
        <ele>678.83000000000004</ele>
        <time>2025-04-25T11:04:51Z</time>
      </trkpt>
      <trkpt lat="44.632132016122341" lon="2.669978979974985">
        <ele>657.67999999999995</ele>
        <time>2025-04-25T11:05:01Z</time>
      </trkpt>
      <trkpt lat="44.631164995953441" lon="2.670922027900815">
        <ele>643.25999999999999</ele>
        <time>2025-04-25T11:05:09Z</time>
      </trkpt>
      <trkpt lat="44.630465023219585" lon="2.671533990651369">
        <ele>637.00999999999999</ele>
        <time>2025-04-25T11:05:13Z</time>
      </trkpt>
      <trkpt lat="44.629437988623977" lon="2.671353025361896">
        <ele>626.44000000000005</ele>
        <time>2025-04-25T11:05:20Z</time>
      </trkpt>
      <trkpt lat="44.629067005589604" lon="2.671101987361908">
        <ele>621.63</ele>
        <time>2025-04-25T11:05:23Z</time>
      </trkpt>
      <trkpt lat="44.628621004521847" lon="2.671394012868404">
        <ele>616.82000000000005</ele>
        <time>2025-04-25T11:05:28Z</time>
      </trkpt>
      <trkpt lat="44.62819998152554" lon="2.67162200063467">
        <ele>610.09000000000003</ele>
        <time>2025-04-25T11:05:34Z</time>
      </trkpt>
      <trkpt lat="44.628159999847412" lon="2.670771991834045">
        <ele>605.76999999999998</ele>
        <time>2025-04-25T11:05:38Z</time>
      </trkpt>
      <trkpt lat="44.628224959596992" lon="2.670406959950924">
        <ele>604.33000000000004</ele>
        <time>2025-04-25T11:05:39Z</time>
      </trkpt>
      <trkpt lat="44.628209033980966" lon="2.670189030468464">
        <ele>602.39999999999998</ele>
        <time>2025-04-25T11:05:40Z</time>
      </trkpt>
      <trkpt lat="44.628202999010682" lon="2.670106971636415">
        <ele>600.48000000000002</ele>
        <time>2025-04-25T11:05:41Z</time>
      </trkpt>
      <trkpt lat="44.628258990123868" lon="2.669834978878498">
        <ele>598.55999999999995</ele>
        <time>2025-04-25T11:05:42Z</time>
      </trkpt>
      <trkpt lat="44.628003006801009" lon="2.669416973367333">
        <ele>595.66999999999996</ele>
        <time>2025-04-25T11:05:44Z</time>
      </trkpt>
      <trkpt lat="44.627217035740614" lon="2.667832039296627">
        <ele>596.63999999999999</ele>
        <time>2025-04-25T11:05:50Z</time>
      </trkpt>
      <trkpt lat="44.626704985275865" lon="2.666918998584151">
        <ele>600</ele>
        <time>2025-04-25T11:05:54Z</time>
      </trkpt>
      <trkpt lat="44.626241968944669" lon="2.665922977030277">
        <ele>603.85000000000002</ele>
        <time>2025-04-25T11:05:58Z</time>
      </trkpt>
      <trkpt lat="44.626014987006783" lon="2.665278995409608">
        <ele>605.28999999999996</ele>
        <time>2025-04-25T11:06:00Z</time>
      </trkpt>
      <trkpt lat="44.626014987006783" lon="2.665278995409608">
        <ele>606.25</ele>
        <time>2025-04-25T11:06:01Z</time>
      </trkpt>
      <trkpt lat="44.625817006453872" lon="2.665430959314108">
        <ele>607.21000000000004</ele>
        <time>2025-04-25T11:06:02Z</time>
      </trkpt>
      <trkpt lat="44.625737965106964" lon="2.665490973740816">
        <ele>608.64999999999998</ele>
        <time>2025-04-25T11:06:03Z</time>
      </trkpt>
      <trkpt lat="44.625736037269235" lon="2.665493991225958">
        <ele>611.05999999999995</ele>
        <time>2025-04-25T11:06:04Z</time>
      </trkpt>
      <trkpt lat="44.625679962337017" lon="2.665655007585883">
        <ele>614.41999999999996</ele>
        <time>2025-04-25T11:06:05Z</time>
      </trkpt>
      <trkpt lat="44.625634029507637" lon="2.665786016732454">
        <ele>616.82000000000005</ele>
        <time>2025-04-25T11:06:06Z</time>
      </trkpt>
      <trkpt lat="44.6255789604038" lon="2.665944015607238">
        <ele>619.23000000000002</ele>
        <time>2025-04-25T11:06:07Z</time>
      </trkpt>
      <trkpt lat="44.625509977340698" lon="2.666126992553473">
        <ele>621.14999999999998</ele>
        <time>2025-04-25T11:06:08Z</time>
      </trkpt>
      <trkpt lat="44.625438982620835" lon="2.666312986984849">
        <ele>622.59000000000003</ele>
        <time>2025-04-25T11:06:09Z</time>
      </trkpt>
      <trkpt lat="44.625328006222844" lon="2.666566958650947">
        <ele>624.50999999999999</ele>
        <time>2025-04-25T11:06:10Z</time>
      </trkpt>
      <trkpt lat="44.625190040096641" lon="2.666705008596182">
        <ele>625.47000000000003</ele>
        <time>2025-04-25T11:06:11Z</time>
      </trkpt>
      <trkpt lat="44.625049978494644" lon="2.666815984994173">
        <ele>630.75999999999999</ele>
        <time>2025-04-25T11:06:12Z</time>
      </trkpt>
      <trkpt lat="44.624879993498325" lon="2.666909024119377">
        <ele>632.20000000000005</ele>
        <time>2025-04-25T11:06:13Z</time>
      </trkpt>
      <trkpt lat="44.624705985188484" lon="2.667004996910691">
        <ele>633.16999999999996</ele>
        <time>2025-04-25T11:06:14Z</time>
      </trkpt>
      <trkpt lat="44.623354990035295" lon="2.667463989928365">
        <ele>657.20000000000005</ele>
        <time>2025-04-25T11:06:21Z</time>
      </trkpt>
      <trkpt lat="44.622137015685439" lon="2.667421996593475">
        <ele>672.58000000000004</ele>
        <time>2025-04-25T11:06:27Z</time>
      </trkpt>
      <trkpt lat="44.621723033487797" lon="2.667359970510006">
        <ele>676.90999999999997</ele>
        <time>2025-04-25T11:06:29Z</time>
      </trkpt>
      <trkpt lat="44.621531004086137" lon="2.66736701130867">
        <ele>679.78999999999996</ele>
        <time>2025-04-25T11:06:30Z</time>
      </trkpt>
      <trkpt lat="44.621336041018367" lon="2.66743197105825">
        <ele>682.19000000000005</ele>
        <time>2025-04-25T11:06:31Z</time>
      </trkpt>
      <trkpt lat="44.621134037151933" lon="2.667538002133369">
        <ele>684.60000000000002</ele>
        <time>2025-04-25T11:06:32Z</time>
      </trkpt>
      <trkpt lat="44.620943013578653" lon="2.667679991573095">
        <ele>687.48000000000002</ele>
        <time>2025-04-25T11:06:33Z</time>
      </trkpt>
      <trkpt lat="44.620755007490516" lon="2.667818963527679">
        <ele>689.88</ele>
        <time>2025-04-25T11:06:34Z</time>
      </trkpt>
      <trkpt lat="44.620576975867152" lon="2.667930023744702">
        <ele>691.33000000000004</ele>
        <time>2025-04-25T11:06:35Z</time>
      </trkpt>
      <trkpt lat="44.620386958122253" lon="2.668005963787437">
        <ele>692.76999999999998</ele>
        <time>2025-04-25T11:06:36Z</time>
      </trkpt>
      <trkpt lat="44.620177997276187" lon="2.668019039556384">
        <ele>694.21000000000004</ele>
        <time>2025-04-25T11:06:37Z</time>
      </trkpt>
      <trkpt lat="44.619959983974695" lon="2.668006969615817">
        <ele>695.16999999999996</ele>
        <time>2025-04-25T11:06:38Z</time>
      </trkpt>
      <trkpt lat="44.619522029533982" lon="2.667949972674251">
        <ele>697.09000000000003</ele>
        <time>2025-04-25T11:06:40Z</time>
      </trkpt>
      <trkpt lat="44.619308039546013" lon="2.667962964624167">
        <ele>697.57000000000005</ele>
        <time>2025-04-25T11:06:41Z</time>
      </trkpt>
      <trkpt lat="44.619092959910631" lon="2.668033037334681">
        <ele>698.04999999999995</ele>
        <time>2025-04-25T11:06:42Z</time>
      </trkpt>
      <trkpt lat="44.618890034034848" lon="2.668157005682588">
        <ele>698.04999999999995</ele>
        <time>2025-04-25T11:06:43Z</time>
      </trkpt>
      <trkpt lat="44.618678977712989" lon="2.668286003172398">
        <ele>697.57000000000005</ele>
        <time>2025-04-25T11:06:44Z</time>
      </trkpt>
      <trkpt lat="44.618249991908669" lon="2.668547015637159">
        <ele>696.61000000000001</ele>
        <time>2025-04-25T11:06:46Z</time>
      </trkpt>
      <trkpt lat="44.618059974163771" lon="2.668768968433142">
        <ele>696.13</ele>
        <time>2025-04-25T11:06:47Z</time>
      </trkpt>
      <trkpt lat="44.617878003045917" lon="2.668996034190059">
        <ele>695.16999999999996</ele>
        <time>2025-04-25T11:06:48Z</time>
      </trkpt>
      <trkpt lat="44.617697037756443" lon="2.669230978935957">
        <ele>694.69000000000005</ele>
        <time>2025-04-25T11:06:49Z</time>
      </trkpt>
      <trkpt lat="44.617551025003195" lon="2.669503977522254">
        <ele>694.21000000000004</ele>
        <time>2025-04-25T11:06:50Z</time>
      </trkpt>
      <trkpt lat="44.617406018078327" lon="2.66977597028017">
        <ele>693.73000000000002</ele>
        <time>2025-04-25T11:06:51Z</time>
      </trkpt>
      <trkpt lat="44.616996981203556" lon="2.670502010732889">
        <ele>692.28999999999996</ele>
        <time>2025-04-25T11:06:54Z</time>
      </trkpt>
      <trkpt lat="44.61683495901525" lon="2.67067501321435">
        <ele>691.80999999999995</ele>
        <time>2025-04-25T11:06:55Z</time>
      </trkpt>
      <trkpt lat="44.616672014817595" lon="2.670815996825695">
        <ele>691.33000000000004</ele>
        <time>2025-04-25T11:06:56Z</time>
      </trkpt>
      <trkpt lat="44.616478979587555" lon="2.670899983495474">
        <ele>690.84000000000003</ele>
        <time>2025-04-25T11:06:57Z</time>
      </trkpt>
      <trkpt lat="44.616280999034643" lon="2.670935019850731">
        <ele>690.36000000000001</ele>
        <time>2025-04-25T11:06:58Z</time>
      </trkpt>
      <trkpt lat="44.61608000099659" lon="2.670916998758912">
        <ele>689.88</ele>
        <time>2025-04-25T11:06:59Z</time>
      </trkpt>
      <trkpt lat="44.615867016837001" lon="2.670877017080784">
        <ele>689.88</ele>
        <time>2025-04-25T11:07:00Z</time>
      </trkpt>
      <trkpt lat="44.61567398160696" lon="2.670764029026032">
        <ele>689.39999999999998</ele>
        <time>2025-04-25T11:07:01Z</time>
      </trkpt>
      <trkpt lat="44.61547801271081" lon="2.670649029314518">
        <ele>689.39999999999998</ele>
        <time>2025-04-25T11:07:02Z</time>
      </trkpt>
      <trkpt lat="44.614894967526197" lon="2.670308975502849">
        <ele>688.91999999999996</ele>
        <time>2025-04-25T11:07:05Z</time>
      </trkpt>
      <trkpt lat="44.614712996408343" lon="2.670173021033406">
        <ele>688.44000000000005</ele>
        <time>2025-04-25T11:07:06Z</time>
      </trkpt>
      <trkpt lat="44.614566983655095" lon="2.670016027987003">
        <ele>687.96000000000004</ele>
        <time>2025-04-25T11:07:07Z</time>
      </trkpt>
      <trkpt lat="44.614430023357272" lon="2.669812012463808">
        <ele>687.48000000000002</ele>
        <time>2025-04-25T11:07:08Z</time>
      </trkpt>
      <trkpt lat="44.614326003938913" lon="2.669566003605723">
        <ele>687.48000000000002</ele>
        <time>2025-04-25T11:07:09Z</time>
      </trkpt>
      <trkpt lat="44.614274958148599" lon="2.669282024726272">
        <ele>687</ele>
        <time>2025-04-25T11:07:10Z</time>
      </trkpt>
      <trkpt lat="44.614263977855444" lon="2.668998967856169">
        <ele>687</ele>
        <time>2025-04-25T11:07:11Z</time>
      </trkpt>
      <trkpt lat="44.61425400339067" lon="2.668709037825465">
        <ele>686.51999999999998</ele>
        <time>2025-04-25T11:07:12Z</time>
      </trkpt>
      <trkpt lat="44.614199018105865" lon="2.66792600043118">
        <ele>686.03999999999996</ele>
        <time>2025-04-25T11:07:15Z</time>
      </trkpt>
      <trkpt lat="44.61416800506413" lon="2.667694995179772">
        <ele>686.03999999999996</ele>
        <time>2025-04-25T11:07:16Z</time>
      </trkpt>
      <trkpt lat="44.614106984809041" lon="2.667483016848564">
        <ele>686.03999999999996</ele>
        <time>2025-04-25T11:07:17Z</time>
      </trkpt>
      <trkpt lat="44.614048982039094" lon="2.66728000715375">
        <ele>686.51999999999998</ele>
        <time>2025-04-25T11:07:18Z</time>
      </trkpt>
      <trkpt lat="44.613986033946276" lon="2.667093006893992">
        <ele>686.51999999999998</ele>
        <time>2025-04-25T11:07:19Z</time>
      </trkpt>
      <trkpt lat="44.613755028694868" lon="2.666289014741778">
        <ele>686.51999999999998</ele>
        <time>2025-04-25T11:07:24Z</time>
      </trkpt>
      <trkpt lat="44.613741030916572" lon="2.666146019473672">
        <ele>687</ele>
        <time>2025-04-25T11:07:25Z</time>
      </trkpt>
      <trkpt lat="44.613741030916572" lon="2.665846031159163">
        <ele>687.48000000000002</ele>
        <time>2025-04-25T11:07:27Z</time>
      </trkpt>
      <trkpt lat="44.613741030916572" lon="2.665698006749153">
        <ele>687.48000000000002</ele>
        <time>2025-04-25T11:07:28Z</time>
      </trkpt>
      <trkpt lat="44.613745976239443" lon="2.665551993995905">
        <ele>687.96000000000004</ele>
        <time>2025-04-25T11:07:29Z</time>
      </trkpt>
      <trkpt lat="44.61380498483777" lon="2.665260974317789">
        <ele>688.91999999999996</ele>
        <time>2025-04-25T11:07:31Z</time>
      </trkpt>
      <trkpt lat="44.613830968737602" lon="2.665127031505108">
        <ele>689.39999999999998</ele>
        <time>2025-04-25T11:07:32Z</time>
      </trkpt>
      <trkpt lat="44.613862987607718" lon="2.664998034015298">
        <ele>690.36000000000001</ele>
        <time>2025-04-25T11:07:33Z</time>
      </trkpt>
      <trkpt lat="44.613904980942607" lon="2.664870964363217">
        <ele>690.84000000000003</ele>
        <time>2025-04-25T11:07:34Z</time>
      </trkpt>
      <trkpt lat="44.613946974277496" lon="2.664748001843691">
        <ele>691.80999999999995</ele>
        <time>2025-04-25T11:07:35Z</time>
      </trkpt>
      <trkpt lat="44.614020986482501" lon="2.664505010470748">
        <ele>692.76999999999998</ele>
        <time>2025-04-25T11:07:37Z</time>
      </trkpt>
      <trkpt lat="44.614029033109546" lon="2.664370983839035">
        <ele>692.76999999999998</ele>
        <time>2025-04-25T11:07:38Z</time>
      </trkpt>
      <trkpt lat="44.614036995917559" lon="2.664237963035703">
        <ele>692.76999999999998</ele>
        <time>2025-04-25T11:07:39Z</time>
      </trkpt>
      <trkpt lat="44.614041019231081" lon="2.664105026051402">
        <ele>693.25</ele>
        <time>2025-04-25T11:07:40Z</time>
      </trkpt>
      <trkpt lat="44.614041019231081" lon="2.66397200524807">
        <ele>693.25</ele>
        <time>2025-04-25T11:07:41Z</time>
      </trkpt>
      <trkpt lat="44.614041019231081" lon="2.663837978616357">
        <ele>693.25</ele>
        <time>2025-04-25T11:07:42Z</time>
      </trkpt>
      <trkpt lat="44.614020986482501" lon="2.663055025041103">
        <ele>693.25</ele>
        <time>2025-04-25T11:07:48Z</time>
      </trkpt>
      <trkpt lat="44.613991985097528" lon="2.662959974259138">
        <ele>693.73000000000002</ele>
        <time>2025-04-25T11:07:49Z</time>
      </trkpt>
      <trkpt lat="44.613949991762638" lon="2.662868024781346">
        <ele>693.73000000000002</ele>
        <time>2025-04-25T11:07:50Z</time>
      </trkpt>
      <trkpt lat="44.613895006477833" lon="2.662786971777678">
        <ele>693.73000000000002</ele>
        <time>2025-04-25T11:07:51Z</time>
      </trkpt>
      <trkpt lat="44.613841027021408" lon="2.662709020078182">
        <ele>693.73000000000002</ele>
        <time>2025-04-25T11:07:52Z</time>
      </trkpt>
      <trkpt lat="44.613786963745952" lon="2.662630984559655">
        <ele>694.21000000000004</ele>
        <time>2025-04-25T11:07:53Z</time>
      </trkpt>
      <trkpt lat="44.613719992339611" lon="2.662531994283199">
        <ele>694.69000000000005</ele>
        <time>2025-04-25T11:07:54Z</time>
      </trkpt>
      <trkpt lat="44.613469960168004" lon="2.662366032600403">
        <ele>695.64999999999998</ele>
        <time>2025-04-25T11:07:59Z</time>
      </trkpt>
      <trkpt lat="44.613400977104902" lon="2.662320015951991">
        <ele>695.64999999999998</ele>
        <time>2025-04-25T11:08:00Z</time>
      </trkpt>
      <trkpt lat="44.613322019577026" lon="2.662333007901907">
        <ele>696.13</ele>
        <time>2025-04-25T11:08:01Z</time>
      </trkpt>
      <trkpt lat="44.613119009882212" lon="2.662381958216429">
        <ele>698.52999999999997</ele>
        <time>2025-04-25T11:08:04Z</time>
      </trkpt>
      <trkpt lat="44.613063018769026" lon="2.662443984299898">
        <ele>699.01999999999998</ele>
        <time>2025-04-25T11:08:05Z</time>
      </trkpt>
      <trkpt lat="44.613003004342318" lon="2.662512967363">
        <ele>699.5</ele>
        <time>2025-04-25T11:08:06Z</time>
      </trkpt>
      <trkpt lat="44.612947013229132" lon="2.662574993446469">
        <ele>699.98000000000002</ele>
        <time>2025-04-25T11:08:07Z</time>
      </trkpt>
      <trkpt lat="44.612908959388733" lon="2.662642970681191">
        <ele>701.41999999999996</ele>
        <time>2025-04-25T11:08:08Z</time>
      </trkpt>
      <trkpt lat="44.612864032387733" lon="2.662722012028098">
        <ele>702.38</ele>
        <time>2025-04-25T11:08:09Z</time>
      </trkpt>
      <trkpt lat="44.612821033224463" lon="2.662799041718245">
        <ele>703.34000000000003</ele>
        <time>2025-04-25T11:08:10Z</time>
      </trkpt>
      <trkpt lat="44.612779039889574" lon="2.662873975932598">
        <ele>704.29999999999995</ele>
        <time>2025-04-25T11:08:11Z</time>
      </trkpt>
      <trkpt lat="44.612736962735653" lon="2.662960980087519">
        <ele>705.25999999999999</ele>
        <time>2025-04-25T11:08:12Z</time>
      </trkpt>
      <trkpt lat="44.612684994935989" lon="2.663044966757298">
        <ele>706.23000000000002</ele>
        <time>2025-04-25T11:08:13Z</time>
      </trkpt>
      <trkpt lat="44.612538982182741" lon="2.66315502114594">
        <ele>707.66999999999996</ele>
        <time>2025-04-25T11:08:15Z</time>
      </trkpt>
      <trkpt lat="44.612466981634498" lon="2.663173964247108">
        <ele>708.14999999999998</ele>
        <time>2025-04-25T11:08:16Z</time>
      </trkpt>
      <trkpt lat="44.611827023327351" lon="2.663343027234078">
        <ele>710.54999999999995</ele>
        <time>2025-04-25T11:08:25Z</time>
      </trkpt>
      <trkpt lat="44.611752005293965" lon="2.663359036669135">
        <ele>711.02999999999997</ele>
        <time>2025-04-25T11:08:26Z</time>
      </trkpt>
      <trkpt lat="44.611473977565765" lon="2.663418967276812">
        <ele>711.50999999999999</ele>
        <time>2025-04-25T11:08:30Z</time>
      </trkpt>
      <trkpt lat="44.611340034753084" lon="2.663449980318546">
        <ele>711.50999999999999</ele>
        <time>2025-04-25T11:08:32Z</time>
      </trkpt>
      <trkpt lat="44.611271973699331" lon="2.663465989753604">
        <ele>711.50999999999999</ele>
        <time>2025-04-25T11:08:33Z</time>
      </trkpt>
      <trkpt lat="44.611206008121371" lon="2.663480993360281">
        <ele>711.02999999999997</ele>
        <time>2025-04-25T11:08:34Z</time>
      </trkpt>
      <trkpt lat="44.611142976209521" lon="2.663495996966958">
        <ele>711.02999999999997</ele>
        <time>2025-04-25T11:08:35Z</time>
      </trkpt>
      <trkpt lat="44.611072987318039" lon="2.663512006402016">
        <ele>710.54999999999995</ele>
        <time>2025-04-25T11:08:36Z</time>
      </trkpt>
      <trkpt lat="44.611001992598176" lon="2.663529021665454">
        <ele>710.54999999999995</ele>
        <time>2025-04-25T11:08:37Z</time>
      </trkpt>
      <trkpt lat="44.610927980393171" lon="2.663546036928892">
        <ele>710.07000000000005</ele>
        <time>2025-04-25T11:08:38Z</time>
      </trkpt>
      <trkpt lat="44.610768975690007" lon="2.663584006950259">
        <ele>708.63</ele>
        <time>2025-04-25T11:08:40Z</time>
      </trkpt>
      <trkpt lat="44.61068800650537" lon="2.663603033870459">
        <ele>708.14999999999998</ele>
        <time>2025-04-25T11:08:41Z</time>
      </trkpt>
      <trkpt lat="44.61060200817883" lon="2.663622982800007">
        <ele>707.19000000000005</ele>
        <time>2025-04-25T11:08:42Z</time>
      </trkpt>
      <trkpt lat="44.610178973525763" lon="2.663713004440069">
        <ele>703.82000000000005</ele>
        <time>2025-04-25T11:08:47Z</time>
      </trkpt>
      <trkpt lat="44.609983004629612" lon="2.663752986118197">
        <ele>702.86000000000001</ele>
        <time>2025-04-25T11:08:49Z</time>
      </trkpt>
      <trkpt lat="44.608747009187937" lon="2.663987008854747">
        <ele>695.64999999999998</ele>
        <time>2025-04-25T11:09:00Z</time>
      </trkpt>
      <trkpt lat="44.608292961493134" lon="2.663991032168269">
        <ele>692.28999999999996</ele>
        <time>2025-04-25T11:09:04Z</time>
      </trkpt>
      <trkpt lat="44.607385033741593" lon="2.663846025243402">
        <ele>684.12</ele>
        <time>2025-04-25T11:09:12Z</time>
      </trkpt>
      <trkpt lat="44.60727103985846" lon="2.663859017193317">
        <ele>683.14999999999998</ele>
        <time>2025-04-25T11:09:13Z</time>
      </trkpt>
      <trkpt lat="44.606937021017075" lon="2.663938980549574">
        <ele>681.23000000000002</ele>
        <time>2025-04-25T11:09:16Z</time>
      </trkpt>
      <trkpt lat="44.605765985324979" lon="2.664541974663734">
        <ele>675.94000000000005</ele>
        <time>2025-04-25T11:09:26Z</time>
      </trkpt>
      <trkpt lat="44.604429993778467" lon="2.665253011509776">
        <ele>671.13999999999999</ele>
        <time>2025-04-25T11:09:34Z</time>
      </trkpt>
      <trkpt lat="44.602392017841339" lon="2.666322039440274">
        <ele>662.97000000000003</ele>
        <time>2025-04-25T11:09:45Z</time>
      </trkpt>
      <trkpt lat="44.600369967520237" lon="2.667416967451572">
        <ele>657.67999999999995</ele>
        <time>2025-04-25T11:09:56Z</time>
      </trkpt>
      <trkpt lat="44.599403031170368" lon="2.667700024321675">
        <ele>663.45000000000005</ele>
        <time>2025-04-25T11:10:01Z</time>
      </trkpt>
      <trkpt lat="44.599194992333651" lon="2.667675968259573">
        <ele>664.88999999999999</ele>
        <time>2025-04-25T11:10:02Z</time>
      </trkpt>
      <trkpt lat="44.598984019830823" lon="2.667610002681613">
        <ele>666.33000000000004</ele>
        <time>2025-04-25T11:10:03Z</time>
      </trkpt>
      <trkpt lat="44.598340960219502" lon="2.667458038777113">
        <ele>671.62</ele>
        <time>2025-04-25T11:10:06Z</time>
      </trkpt>
      <trkpt lat="44.598123030737042" lon="2.667478993535042">
        <ele>673.05999999999995</ele>
        <time>2025-04-25T11:10:07Z</time>
      </trkpt>
      <trkpt lat="44.597906023263931" lon="2.667500032112002">
        <ele>675.46000000000004</ele>
        <time>2025-04-25T11:10:08Z</time>
      </trkpt>
      <trkpt lat="44.597696978598833" lon="2.667554011568427">
        <ele>676.90999999999997</ele>
        <time>2025-04-25T11:10:09Z</time>
      </trkpt>
      <trkpt lat="44.597488017752767" lon="2.667645961046219">
        <ele>678.83000000000004</ele>
        <time>2025-04-25T11:10:10Z</time>
      </trkpt>
      <trkpt lat="44.597275033593178" lon="2.667739000171423">
        <ele>680.26999999999998</ele>
        <time>2025-04-25T11:10:11Z</time>
      </trkpt>
      <trkpt lat="44.597061965614557" lon="2.667841007933021">
        <ele>681.71000000000004</ele>
        <time>2025-04-25T11:10:12Z</time>
      </trkpt>
      <trkpt lat="44.594112960621715" lon="2.669673962518573">
        <ele>686.51999999999998</ele>
        <time>2025-04-25T11:10:26Z</time>
      </trkpt>
      <trkpt lat="44.59240498021245" lon="2.670788001269102">
        <ele>682.19000000000005</ele>
        <time>2025-04-25T11:10:35Z</time>
      </trkpt>
      <trkpt lat="44.590945020318031" lon="2.671625018119812">
        <ele>673.05999999999995</ele>
        <time>2025-04-25T11:10:42Z</time>
      </trkpt>
      <trkpt lat="44.589194040745497" lon="2.672063978388906">
        <ele>662.00999999999999</ele>
        <time>2025-04-25T11:10:50Z</time>
      </trkpt>
      <trkpt lat="44.587415987625718" lon="2.672390034422278">
        <ele>646.13999999999999</ele>
        <time>2025-04-25T11:10:58Z</time>
      </trkpt>
      <trkpt lat="44.585825018584728" lon="2.672617016360164">
        <ele>635.57000000000005</ele>
        <time>2025-04-25T11:11:06Z</time>
      </trkpt>
      <trkpt lat="44.585638018324971" lon="2.672559013590217">
        <ele>634.61000000000001</ele>
        <time>2025-04-25T11:11:07Z</time>
      </trkpt>
      <trkpt lat="44.585469961166382" lon="2.672500004991889">
        <ele>634.13</ele>
        <time>2025-04-25T11:11:08Z</time>
      </trkpt>
      <trkpt lat="44.585305005311966" lon="2.672342006117106">
        <ele>633.16999999999996</ele>
        <time>2025-04-25T11:11:09Z</time>
      </trkpt>
      <trkpt lat="44.585129991173744" lon="2.672175038605928">
        <ele>633.16999999999996</ele>
        <time>2025-04-25T11:11:10Z</time>
      </trkpt>
      <trkpt lat="44.584962017834187" lon="2.67198896035552">
        <ele>632.67999999999995</ele>
        <time>2025-04-25T11:11:11Z</time>
      </trkpt>
      <trkpt lat="44.584801001474261" lon="2.671774970367551">
        <ele>632.20000000000005</ele>
        <time>2025-04-25T11:11:12Z</time>
      </trkpt>
      <trkpt lat="44.584641996771097" lon="2.671561986207962">
        <ele>632.20000000000005</ele>
        <time>2025-04-25T11:11:13Z</time>
      </trkpt>
      <trkpt lat="44.584327004849911" lon="2.671179017052054">
        <ele>630.75999999999999</ele>
        <time>2025-04-25T11:11:15Z</time>
      </trkpt>
      <trkpt lat="44.58417302928865" lon="2.67099604010582">
        <ele>629.79999999999995</ele>
        <time>2025-04-25T11:11:16Z</time>
      </trkpt>
      <trkpt lat="44.583824006840587" lon="2.670714994892478">
        <ele>627.39999999999998</ele>
        <time>2025-04-25T11:11:18Z</time>
      </trkpt>
      <trkpt lat="44.583630971610546" lon="2.67065498046577">
        <ele>626.44000000000005</ele>
        <time>2025-04-25T11:11:19Z</time>
      </trkpt>
      <trkpt lat="44.583436008542776" lon="2.670630002394319">
        <ele>624.99000000000001</ele>
        <time>2025-04-25T11:11:20Z</time>
      </trkpt>
      <trkpt lat="44.581872029229999" lon="2.670857990160584">
        <ele>612.98000000000002</ele>
        <time>2025-04-25T11:11:27Z</time>
      </trkpt>
      <trkpt lat="44.579819971695542" lon="2.671430977061391">
        <ele>605.76999999999998</ele>
        <time>2025-04-25T11:11:36Z</time>
      </trkpt>
      <trkpt lat="44.578641979023814" lon="2.671867003664374">
        <ele>612.01999999999998</ele>
        <time>2025-04-25T11:11:42Z</time>
      </trkpt>
      <trkpt lat="44.578438969329" lon="2.671908996999264">
        <ele>613.46000000000004</ele>
        <time>2025-04-25T11:11:43Z</time>
      </trkpt>
      <trkpt lat="44.578235959634185" lon="2.671896005049348">
        <ele>614.89999999999998</ele>
        <time>2025-04-25T11:11:44Z</time>
      </trkpt>
      <trkpt lat="44.578042002394795" lon="2.671864992007613">
        <ele>615.86000000000001</ele>
        <time>2025-04-25T11:11:45Z</time>
      </trkpt>
      <trkpt lat="44.577860031276941" lon="2.67181302420795">
        <ele>617.29999999999995</ele>
        <time>2025-04-25T11:11:46Z</time>
      </trkpt>
      <trkpt lat="44.577706977725029" lon="2.671726020053029">
        <ele>618.25999999999999</ele>
        <time>2025-04-25T11:11:47Z</time>
      </trkpt>
      <trkpt lat="44.577572029083967" lon="2.6715790014714">
        <ele>619.23000000000002</ele>
        <time>2025-04-25T11:11:48Z</time>
      </trkpt>
      <trkpt lat="44.577461974695325" lon="2.671392001211643">
        <ele>620.66999999999996</ele>
        <time>2025-04-25T11:11:49Z</time>
      </trkpt>
      <trkpt lat="44.577350998297334" lon="2.671184968203306">
        <ele>621.63</ele>
        <time>2025-04-25T11:11:50Z</time>
      </trkpt>
      <trkpt lat="44.577245973050594" lon="2.670969972386956">
        <ele>622.59000000000003</ele>
        <time>2025-04-25T11:11:51Z</time>
      </trkpt>
      <trkpt lat="44.576404010877013" lon="2.669030986726284">
        <ele>621.63</ele>
        <time>2025-04-25T11:12:00Z</time>
      </trkpt>
      <trkpt lat="44.575488958507776" lon="2.666394961997867">
        <ele>601.44000000000005</ele>
        <time>2025-04-25T11:12:10Z</time>
      </trkpt>
      <trkpt lat="44.575051004067063" lon="2.665556017309427">
        <ele>593.75</ele>
        <time>2025-04-25T11:12:14Z</time>
      </trkpt>
      <trkpt lat="44.574902979657054" lon="2.665407992899418">
        <ele>592.30999999999995</ele>
        <time>2025-04-25T11:12:15Z</time>
      </trkpt>
      <trkpt lat="44.574757972732186" lon="2.66526298597455">
        <ele>590.38999999999999</ele>
        <time>2025-04-25T11:12:16Z</time>
      </trkpt>
      <trkpt lat="44.574465025216341" lon="2.664952017366886">
        <ele>586.53999999999996</ele>
        <time>2025-04-25T11:12:18Z</time>
      </trkpt>
      <trkpt lat="44.574330998584628" lon="2.664758982136846">
        <ele>584.62</ele>
        <time>2025-04-25T11:12:19Z</time>
      </trkpt>
      <trkpt lat="44.57420501857996" lon="2.664562007412314">
        <ele>582.70000000000005</ele>
        <time>2025-04-25T11:12:20Z</time>
      </trkpt>
      <trkpt lat="44.573701014742255" lon="2.663776958361268">
        <ele>575.00999999999999</ele>
        <time>2025-04-25T11:12:25Z</time>
      </trkpt>
      <trkpt lat="44.573619961738586" lon="2.663753991946578">
        <ele>574.03999999999996</ele>
        <time>2025-04-25T11:12:26Z</time>
      </trkpt>
      <trkpt lat="44.573550978675485" lon="2.663733959197998">
        <ele>573.08000000000004</ele>
        <time>2025-04-25T11:12:27Z</time>
      </trkpt>
      <trkpt lat="44.573518959805369" lon="2.663790034130216">
        <ele>572.12</ele>
        <time>2025-04-25T11:12:28Z</time>
      </trkpt>
      <trkpt lat="44.573464980348945" lon="2.663889024406672">
        <ele>571.15999999999997</ele>
        <time>2025-04-25T11:12:29Z</time>
      </trkpt>
      <trkpt lat="44.573443019762635" lon="2.663988014683127">
        <ele>569.72000000000003</ele>
        <time>2025-04-25T11:12:30Z</time>
      </trkpt>
      <trkpt lat="44.573443019762635" lon="2.664157999679446">
        <ele>568.27999999999997</ele>
        <time>2025-04-25T11:12:31Z</time>
      </trkpt>
      <trkpt lat="44.573466992005706" lon="2.664334019646049">
        <ele>566.83000000000004</ele>
        <time>2025-04-25T11:12:32Z</time>
      </trkpt>
      <trkpt lat="44.573502028360963" lon="2.66453099437058">
        <ele>565.38999999999999</ele>
        <time>2025-04-25T11:12:33Z</time>
      </trkpt>
      <trkpt lat="44.573529018089175" lon="2.664678012952209">
        <ele>563.95000000000005</ele>
        <time>2025-04-25T11:12:34Z</time>
      </trkpt>
      <trkpt lat="44.573595989495516" lon="2.664864007383585">
        <ele>562.99000000000001</ele>
        <time>2025-04-25T11:12:35Z</time>
      </trkpt>
      <trkpt lat="44.573650974780321" lon="2.665018988773227">
        <ele>562.02999999999997</ele>
        <time>2025-04-25T11:12:36Z</time>
      </trkpt>
      <trkpt lat="44.573731021955609" lon="2.665243037045002">
        <ele>560.11000000000001</ele>
        <time>2025-04-25T11:12:38Z</time>
      </trkpt>
      <trkpt lat="44.573744013905525" lon="2.665278995409608">
        <ele>558.65999999999997</ele>
        <time>2025-04-25T11:12:39Z</time>
      </trkpt>
      <trkpt lat="44.573714006692171" lon="2.66536801122129">
        <ele>557.70000000000005</ele>
        <time>2025-04-25T11:12:40Z</time>
      </trkpt>
      <trkpt lat="44.573701014742255" lon="2.665407992899418">
        <ele>556.74000000000001</ele>
        <time>2025-04-25T11:12:41Z</time>
      </trkpt>
      <trkpt lat="44.573701014742255" lon="2.665407992899418">
        <ele>555.29999999999995</ele>
        <time>2025-04-25T11:12:42Z</time>
      </trkpt>
      <trkpt lat="44.573701014742255" lon="2.665407992899418">
        <ele>553.38</ele>
        <time>2025-04-25T11:12:43Z</time>
      </trkpt>
      <trkpt lat="44.573696991428733" lon="2.665404975414276">
        <ele>551.92999999999995</ele>
        <time>2025-04-25T11:12:44Z</time>
      </trkpt>
      <trkpt lat="44.573664972558618" lon="2.665384020656347">
        <ele>550.00999999999999</ele>
        <time>2025-04-25T11:12:45Z</time>
      </trkpt>
      <trkpt lat="44.573613004758954" lon="2.66534898430109">
        <ele>548.09000000000003</ele>
        <time>2025-04-25T11:12:46Z</time>
      </trkpt>
      <trkpt lat="44.573553996160626" lon="2.665290981531143">
        <ele>546.16999999999996</ele>
        <time>2025-04-25T11:12:47Z</time>
      </trkpt>
      <trkpt lat="44.573475960642099" lon="2.665156032890081">
        <ele>543.75999999999999</ele>
        <time>2025-04-25T11:12:48Z</time>
      </trkpt>
      <trkpt lat="44.573376970365644" lon="2.664985964074731">
        <ele>541.36000000000001</ele>
        <time>2025-04-25T11:12:49Z</time>
      </trkpt>
      <trkpt lat="44.573276974260807" lon="2.664812039583921">
        <ele>538.96000000000004</ele>
        <time>2025-04-25T11:12:50Z</time>
      </trkpt>
      <trkpt lat="44.573172032833099" lon="2.664633002132177">
        <ele>537.02999999999997</ele>
        <time>2025-04-25T11:12:51Z</time>
      </trkpt>
      <trkpt lat="44.572353959083557" lon="2.662581028416753">
        <ele>518.76999999999998</ele>
        <time>2025-04-25T11:13:00Z</time>
      </trkpt>
      <trkpt lat="44.572220016270876" lon="2.661883989349008">
        <ele>513.48000000000002</ele>
        <time>2025-04-25T11:13:03Z</time>
      </trkpt>
      <trkpt lat="44.572136029601097" lon="2.661343021318317">
        <ele>510.60000000000002</ele>
        <time>2025-04-25T11:13:05Z</time>
      </trkpt>
      <trkpt lat="44.572154972702265" lon="2.661171024665237">
        <ele>509.63999999999999</ele>
        <time>2025-04-25T11:13:06Z</time>
      </trkpt>
      <trkpt lat="44.572177017107606" lon="2.660966003313661">
        <ele>507.23000000000002</ele>
        <time>2025-04-25T11:13:08Z</time>
      </trkpt>
      <trkpt lat="44.572241976857185" lon="2.66070599667728">
        <ele>504.35000000000002</ele>
        <time>2025-04-25T11:13:12Z</time>
      </trkpt>
      <trkpt lat="44.572235019877553" lon="2.660736003890634">
        <ele>503.87</ele>
        <time>2025-04-25T11:13:13Z</time>
      </trkpt>
      <trkpt lat="44.572238037362695" lon="2.660723011940718">
        <ele>503.87</ele>
        <time>2025-04-25T11:13:14Z</time>
      </trkpt>
      <trkpt lat="44.572234014049172" lon="2.660738015547395">
        <ele>503.87</ele>
        <time>2025-04-25T11:13:15Z</time>
      </trkpt>
      <trkpt lat="44.572230996564031" lon="2.660752013325691">
        <ele>503.87</ele>
        <time>2025-04-25T11:13:16Z</time>
      </trkpt>
      <trkpt lat="44.572226973250508" lon="2.660766011103988">
        <ele>503.38999999999999</ele>
        <time>2025-04-25T11:13:17Z</time>
      </trkpt>
      <trkpt lat="44.572224039584398" lon="2.660780008882284">
        <ele>503.38999999999999</ele>
        <time>2025-04-25T11:13:18Z</time>
      </trkpt>
      <trkpt lat="44.572221022099257" lon="2.660794006660581">
        <ele>502.91000000000003</ele>
        <time>2025-04-25T11:13:19Z</time>
      </trkpt>
      <trkpt lat="44.572221022099257" lon="2.660794006660581">
        <ele>502.91000000000003</ele>
        <time>2025-04-25T11:13:34Z</time>
      </trkpt>
      <trkpt lat="44.572221022099257" lon="2.660794006660581">
        <ele>502.91000000000003</ele>
        <time>2025-04-25T11:14:14Z</time>
      </trkpt>
      <trkpt lat="44.572224039584398" lon="2.660777997225523">
        <ele>502.91000000000003</ele>
        <time>2025-04-25T11:14:18Z</time>
      </trkpt>
      <trkpt lat="44.572223033756018" lon="2.660784032195807">
        <ele>502.91000000000003</ele>
        <time>2025-04-25T11:14:19Z</time>
      </trkpt>
      <trkpt lat="44.572218004614115" lon="2.660802975296974">
        <ele>502.91000000000003</ele>
        <time>2025-04-25T11:14:20Z</time>
      </trkpt>
      <trkpt lat="44.572152039036155" lon="2.661197008565068">
        <ele>503.87</ele>
        <time>2025-04-25T11:14:29Z</time>
      </trkpt>
      <trkpt lat="44.572135023772717" lon="2.66135198995471">
        <ele>503.87</ele>
        <time>2025-04-25T11:14:31Z</time>
      </trkpt>
      <trkpt lat="44.572135023772717" lon="2.66135198995471">
        <ele>502.91000000000003</ele>
        <time>2025-04-25T11:14:32Z</time>
      </trkpt>
      <trkpt lat="44.571620039641857" lon="2.661959007382393">
        <ele>500.01999999999998</ele>
        <time>2025-04-25T11:14:34Z</time>
      </trkpt>
      <trkpt lat="44.571620039641857" lon="2.662161011248827">
        <ele>499.54000000000002</ele>
        <time>2025-04-25T11:14:35Z</time>
      </trkpt>
      <trkpt lat="44.571644011884928" lon="2.66240400262177">
        <ele>499.06</ele>
        <time>2025-04-25T11:14:36Z</time>
      </trkpt>
      <trkpt lat="44.571682987734675" lon="2.662611035630107">
        <ele>498.10000000000002</ele>
        <time>2025-04-25T11:14:37Z</time>
      </trkpt>
      <trkpt lat="44.571940982714295" lon="2.663690960034728">
        <ele>493.76999999999998</ele>
        <time>2025-04-25T11:14:42Z</time>
      </trkpt>
      <trkpt lat="44.571956992149353" lon="2.663907967507839">
        <ele>492.81</ele>
        <time>2025-04-25T11:14:43Z</time>
      </trkpt>
      <trkpt lat="44.57197199575603" lon="2.66412204131484">
        <ele>491.85000000000002</ele>
        <time>2025-04-25T11:14:44Z</time>
      </trkpt>
      <trkpt lat="44.571986999362707" lon="2.664331002160907">
        <ele>491.37</ele>
        <time>2025-04-25T11:14:45Z</time>
      </trkpt>
      <trkpt lat="44.572002002969384" lon="2.664533006027341">
        <ele>490.41000000000003</ele>
        <time>2025-04-25T11:14:46Z</time>
      </trkpt>
      <trkpt lat="44.572053970769048" lon="2.664736015722156">
        <ele>489.44999999999999</ele>
        <time>2025-04-25T11:14:47Z</time>
      </trkpt>
      <trkpt lat="44.572122031822801" lon="2.664931984618306">
        <ele>488.00999999999999</ele>
        <time>2025-04-25T11:14:48Z</time>
      </trkpt>
      <trkpt lat="44.572193026542664" lon="2.665126025676727">
        <ele>487.05000000000001</ele>
        <time>2025-04-25T11:14:49Z</time>
      </trkpt>
      <trkpt lat="44.572258992120624" lon="2.66530598513782">
        <ele>485.60000000000002</ele>
        <time>2025-04-25T11:14:50Z</time>
      </trkpt>
      <trkpt lat="44.572312971577048" lon="2.66545400954783">
        <ele>484.63999999999999</ele>
        <time>2025-04-25T11:14:51Z</time>
      </trkpt>
      <trkpt lat="44.572327975183725" lon="2.665587030351162">
        <ele>483.19999999999999</ele>
        <time>2025-04-25T11:14:52Z</time>
      </trkpt>
      <trkpt lat="44.572318000718951" lon="2.665724996477366">
        <ele>482.24000000000001</ele>
        <time>2025-04-25T11:14:53Z</time>
      </trkpt>
      <trkpt lat="44.572235019877553" lon="2.665858017280698">
        <ele>480.80000000000001</ele>
        <time>2025-04-25T11:14:54Z</time>
      </trkpt>
      <trkpt lat="44.57214399240911" lon="2.665851982310414">
        <ele>479.83999999999997</ele>
        <time>2025-04-25T11:14:55Z</time>
      </trkpt>
      <trkpt lat="44.572038967162371" lon="2.665846031159163">
        <ele>479.35000000000002</ele>
        <time>2025-04-25T11:14:56Z</time>
      </trkpt>
      <trkpt lat="44.571898989379406" lon="2.665836978703737">
        <ele>477.91000000000003</ele>
        <time>2025-04-25T11:14:57Z</time>
      </trkpt>
      <trkpt lat="44.571807961910963" lon="2.665802026167512">
        <ele>476.94999999999999</ele>
        <time>2025-04-25T11:14:58Z</time>
      </trkpt>
      <trkpt lat="44.570702975615859" lon="2.665343033149838">
        <ele>464.93000000000001</ele>
        <time>2025-04-25T11:15:06Z</time>
      </trkpt>
      <trkpt lat="44.56945801153779" lon="2.664957968518138">
        <ele>453.39999999999998</ele>
        <time>2025-04-25T11:15:13Z</time>
      </trkpt>
      <trkpt lat="44.569319039583206" lon="2.664975989609957">
        <ele>451.48000000000002</ele>
        <time>2025-04-25T11:15:14Z</time>
      </trkpt>
      <trkpt lat="44.569209991022944" lon="2.665105992928147">
        <ele>449.55000000000001</ele>
        <time>2025-04-25T11:15:15Z</time>
      </trkpt>
      <trkpt lat="44.569106977432966" lon="2.665248988196254">
        <ele>448.11000000000001</ele>
        <time>2025-04-25T11:15:16Z</time>
      </trkpt>
      <trkpt lat="44.568994995206594" lon="2.665404975414276">
        <ele>446.67000000000002</ele>
        <time>2025-04-25T11:15:17Z</time>
      </trkpt>
      <trkpt lat="44.568873038515449" lon="2.665574038401246">
        <ele>444.75</ele>
        <time>2025-04-25T11:15:18Z</time>
      </trkpt>
      <trkpt lat="44.568744963034987" lon="2.665750980377197">
        <ele>442.81999999999999</ele>
        <time>2025-04-25T11:15:19Z</time>
      </trkpt>
      <trkpt lat="44.568608002737164" lon="2.6659270003438">
        <ele>440.89999999999998</ele>
        <time>2025-04-25T11:15:20Z</time>
      </trkpt>
      <trkpt lat="44.568269038572907" lon="2.666204022243619">
        <ele>437.54000000000002</ele>
        <time>2025-04-25T11:15:22Z</time>
      </trkpt>
      <trkpt lat="44.568086983636022" lon="2.66629496589303">
        <ele>435.61000000000001</ele>
        <time>2025-04-25T11:15:23Z</time>
      </trkpt>
      <trkpt lat="44.567904006689787" lon="2.666349029168487">
        <ele>433.69</ele>
        <time>2025-04-25T11:15:24Z</time>
      </trkpt>
      <trkpt lat="44.567723041400313" lon="2.666359003633261">
        <ele>431.76999999999998</ele>
        <time>2025-04-25T11:15:25Z</time>
      </trkpt>
      <trkpt lat="44.567538974806666" lon="2.666332013905048">
        <ele>429.85000000000002</ele>
        <time>2025-04-25T11:15:26Z</time>
      </trkpt>
      <trkpt lat="44.567355997860432" lon="2.666305024176836">
        <ele>427.92000000000002</ele>
        <time>2025-04-25T11:15:27Z</time>
      </trkpt>
      <trkpt lat="44.566976968199015" lon="2.666250038892031">
        <ele>423.60000000000002</ele>
        <time>2025-04-25T11:15:29Z</time>
      </trkpt>
      <trkpt lat="44.5667739585042" lon="2.666264958679676">
        <ele>421.19</ele>
        <time>2025-04-25T11:15:30Z</time>
      </trkpt>
      <trkpt lat="44.566568015143275" lon="2.666290020570159">
        <ele>419.26999999999998</ele>
        <time>2025-04-25T11:15:31Z</time>
      </trkpt>
      <trkpt lat="44.565275022760034" lon="2.666409965604544">
        <ele>404.85000000000002</ele>
        <time>2025-04-25T11:15:37Z</time>
      </trkpt>
      <trkpt lat="44.5650730188936" lon="2.666354980319738">
        <ele>402.93000000000001</ele>
        <time>2025-04-25T11:15:38Z</time>
      </trkpt>
      <trkpt lat="44.564867997542024" lon="2.666298989206553">
        <ele>400.52999999999997</ele>
        <time>2025-04-25T11:15:39Z</time>
      </trkpt>
      <trkpt lat="44.56389200873673" lon="2.665943009778857">
        <ele>390.91000000000003</ele>
        <time>2025-04-25T11:15:44Z</time>
      </trkpt>
      <trkpt lat="44.563716994598508" lon="2.665837984532118">
        <ele>389.47000000000003</ele>
        <time>2025-04-25T11:15:45Z</time>
      </trkpt>
      <trkpt lat="44.563146019354463" lon="2.665456021204591">
        <ele>382.74000000000001</ele>
        <time>2025-04-25T11:15:49Z</time>
      </trkpt>
      <trkpt lat="44.563015010207891" lon="2.665386032313108">
        <ele>381.30000000000001</ele>
        <time>2025-04-25T11:15:50Z</time>
      </trkpt>
      <trkpt lat="44.562868997454643" lon="2.665386032313108">
        <ele>379.86000000000001</ele>
        <time>2025-04-25T11:15:51Z</time>
      </trkpt>
      <trkpt lat="44.562717033550143" lon="2.665392989292741">
        <ele>377.94</ele>
        <time>2025-04-25T11:15:52Z</time>
      </trkpt>
      <trkpt lat="44.562564985826612" lon="2.665404975414276">
        <ele>376.49000000000001</ele>
        <time>2025-04-25T11:15:53Z</time>
      </trkpt>
      <trkpt lat="44.562284024432302" lon="2.665427019819617">
        <ele>373.13</ele>
        <time>2025-04-25T11:15:55Z</time>
      </trkpt>
      <trkpt lat="44.562159972265363" lon="2.665367005392909">
        <ele>371.20999999999998</ele>
        <time>2025-04-25T11:15:56Z</time>
      </trkpt>
      <trkpt lat="44.562053019180894" lon="2.66526198014617">
        <ele>369.75999999999999</ele>
        <time>2025-04-25T11:15:57Z</time>
      </trkpt>
      <trkpt lat="44.561941036954522" lon="2.665148992091417">
        <ele>367.83999999999997</ele>
        <time>2025-04-25T11:15:58Z</time>
      </trkpt>
      <trkpt lat="44.561818996444345" lon="2.665027035400271">
        <ele>366.88</ele>
        <time>2025-04-25T11:15:59Z</time>
      </trkpt>
      <trkpt lat="44.561686981469393" lon="2.664968026801944">
        <ele>365.44</ele>
        <time>2025-04-25T11:16:00Z</time>
      </trkpt>
      <trkpt lat="44.561541974544525" lon="2.66493902541697">
        <ele>364</ele>
        <time>2025-04-25T11:16:01Z</time>
      </trkpt>
      <trkpt lat="44.561376012861729" lon="2.664954029023647">
        <ele>363.04000000000002</ele>
        <time>2025-04-25T11:16:02Z</time>
      </trkpt>
      <trkpt lat="44.561211979016662" lon="2.665008008480072">
        <ele>362.06999999999999</ele>
        <time>2025-04-25T11:16:03Z</time>
      </trkpt>
      <trkpt lat="44.561042999848723" lon="2.665073974058032">
        <ele>360.63</ele>
        <time>2025-04-25T11:16:04Z</time>
      </trkpt>
      <trkpt lat="44.560879971832037" lon="2.665137005969882">
        <ele>359.67000000000002</ele>
        <time>2025-04-25T11:16:05Z</time>
      </trkpt>
      <trkpt lat="44.560746029019356" lon="2.665250999853015">
        <ele>358.23000000000002</ele>
        <time>2025-04-25T11:16:06Z</time>
      </trkpt>
      <trkpt lat="44.56060697324574" lon="2.66539097763598">
        <ele>356.79000000000002</ele>
        <time>2025-04-25T11:16:07Z</time>
      </trkpt>
      <trkpt lat="44.560472024604678" lon="2.665545959025621">
        <ele>355.33999999999997</ele>
        <time>2025-04-25T11:16:08Z</time>
      </trkpt>
      <trkpt lat="44.559544986113906" lon="2.666922016069293">
        <ele>344.76999999999998</ele>
        <time>2025-04-25T11:16:15Z</time>
      </trkpt>
      <trkpt lat="44.558735964819789" lon="2.668805010616779">
        <ele>333.70999999999998</ele>
        <time>2025-04-25T11:16:23Z</time>
      </trkpt>
      <trkpt lat="44.558203965425491" lon="2.669740011915565">
        <ele>325.06</ele>
        <time>2025-04-25T11:16:29Z</time>
      </trkpt>
      <trkpt lat="44.557878999039531" lon="2.670178972184658">
        <ele>319.77999999999997</ele>
        <time>2025-04-25T11:16:34Z</time>
      </trkpt>
      <trkpt lat="44.557399973273277" lon="2.67054601572454">
        <ele>314.97000000000003</ele>
        <time>2025-04-25T11:16:40Z</time>
      </trkpt>
      <trkpt lat="44.557306012138724" lon="2.670580968260765">
        <ele>314.49000000000001</ele>
        <time>2025-04-25T11:16:41Z</time>
      </trkpt>
      <trkpt lat="44.55721297301352" lon="2.670614998787642">
        <ele>314.49000000000001</ele>
        <time>2025-04-25T11:16:42Z</time>
      </trkpt>
      <trkpt lat="44.557119011878967" lon="2.670647017657757">
        <ele>314.49000000000001</ele>
        <time>2025-04-25T11:16:43Z</time>
      </trkpt>
      <trkpt lat="44.557028990238905" lon="2.670664032921195">
        <ele>314.49000000000001</ele>
        <time>2025-04-25T11:16:44Z</time>
      </trkpt>
      <trkpt lat="44.556943997740746" lon="2.670680964365602">
        <ele>314.49000000000001</ele>
        <time>2025-04-25T11:16:45Z</time>
      </trkpt>
      <trkpt lat="44.556366987526417" lon="2.670894032344222">
        <ele>313.05000000000001</ele>
        <time>2025-04-25T11:16:54Z</time>
      </trkpt>
      <trkpt lat="44.556345026940107" lon="2.670909035950899">
        <ele>312.56999999999999</ele>
        <time>2025-04-25T11:17:03Z</time>
      </trkpt>
      <trkpt lat="44.556345026940107" lon="2.670909035950899">
        <ele>312.56999999999999</ele>
        <time>2025-04-25T11:17:49Z</time>
      </trkpt>
      <trkpt lat="44.556345026940107" lon="2.670909035950899">
        <ele>313.05000000000001</ele>
        <time>2025-04-25T11:18:30Z</time>
      </trkpt>
      <trkpt lat="44.556113015860319" lon="2.671069968491793">
        <ele>314.00999999999999</ele>
        <time>2025-04-25T11:18:35Z</time>
      </trkpt>
      <trkpt lat="44.555916041135788" lon="2.671209024265409">
        <ele>313.52999999999997</ele>
        <time>2025-04-25T11:18:39Z</time>
      </trkpt>
      <trkpt lat="44.555867007002234" lon="2.671242970973253">
        <ele>313.52999999999997</ele>
        <time>2025-04-25T11:18:40Z</time>
      </trkpt>
      <trkpt lat="44.55564497038722" lon="2.671399964019656">
        <ele>312.56999999999999</ele>
        <time>2025-04-25T11:18:45Z</time>
      </trkpt>
      <trkpt lat="44.55555603839457" lon="2.671462995931506">
        <ele>312.56999999999999</ele>
        <time>2025-04-25T11:18:47Z</time>
      </trkpt>
      <trkpt lat="44.555513961240649" lon="2.67149300314486">
        <ele>312.08999999999997</ele>
        <time>2025-04-25T11:18:48Z</time>
      </trkpt>
      <trkpt lat="44.555370965972543" lon="2.671575983986259">
        <ele>312.08999999999997</ele>
        <time>2025-04-25T11:18:51Z</time>
      </trkpt>
      <trkpt lat="44.555325033143163" lon="2.671597022563219">
        <ele>312.08999999999997</ele>
        <time>2025-04-25T11:18:52Z</time>
      </trkpt>
      <trkpt lat="44.555270969867706" lon="2.67162099480629">
        <ele>312.08999999999997</ele>
        <time>2025-04-25T11:18:53Z</time>
      </trkpt>
      <trkpt lat="44.555119005963206" lon="2.671672962605953">
        <ele>312.56999999999999</ele>
        <time>2025-04-25T11:18:56Z</time>
      </trkpt>
      <trkpt lat="44.554942985996604" lon="2.671715039759874">
        <ele>312.56999999999999</ele>
        <time>2025-04-25T11:18:59Z</time>
      </trkpt>
      <trkpt lat="44.554894035682082" lon="2.671732977032661">
        <ele>312.56999999999999</ele>
        <time>2025-04-25T11:19:00Z</time>
      </trkpt>
      <trkpt lat="44.554882971569896" lon="2.671738006174564">
        <ele>312.56999999999999</ele>
        <time>2025-04-25T11:19:01Z</time>
      </trkpt>
      <trkpt lat="44.554882971569896" lon="2.671738006174564">
        <ele>312.56999999999999</ele>
        <time>2025-04-25T11:19:02Z</time>
      </trkpt>
      <trkpt lat="44.554773001000285" lon="2.671846970915794">
        <ele>312.08999999999997</ele>
        <time>2025-04-25T11:19:03Z</time>
      </trkpt>
      <trkpt lat="44.554727990180254" lon="2.671891981735826">
        <ele>312.08999999999997</ele>
        <time>2025-04-25T11:19:04Z</time>
      </trkpt>
      <trkpt lat="44.554671999067068" lon="2.671939004212618">
        <ele>312.08999999999997</ele>
        <time>2025-04-25T11:19:05Z</time>
      </trkpt>
      <trkpt lat="44.554625982418656" lon="2.671973034739494">
        <ele>312.08999999999997</ele>
        <time>2025-04-25T11:19:06Z</time>
      </trkpt>
      <trkpt lat="44.554538978263736" lon="2.672037994489074">
        <ele>312.56999999999999</ele>
        <time>2025-04-25T11:19:07Z</time>
      </trkpt>
      <trkpt lat="44.554545013234019" lon="2.672033971175551">
        <ele>312.56999999999999</ele>
        <time>2025-04-25T11:19:08Z</time>
      </trkpt>
      <trkpt lat="44.554465971887112" lon="2.672052998095751">
        <ele>312.56999999999999</ele>
        <time>2025-04-25T11:19:09Z</time>
      </trkpt>
      <trkpt lat="44.554362036287785" lon="2.672073030844331">
        <ele>312.56999999999999</ele>
        <time>2025-04-25T11:19:11Z</time>
      </trkpt>
      <trkpt lat="44.554257011041045" lon="2.67209499143064">
        <ele>312.56999999999999</ele>
        <time>2025-04-25T11:19:13Z</time>
      </trkpt>
      <trkpt lat="44.554196996614337" lon="2.672103960067034">
        <ele>312.56999999999999</ele>
        <time>2025-04-25T11:19:14Z</time>
      </trkpt>
      <trkpt lat="44.553687963634729" lon="2.672175960615277">
        <ele>313.52999999999997</ele>
        <time>2025-04-25T11:19:24Z</time>
      </trkpt>
      <trkpt lat="44.553500041365623" lon="2.672188030555844">
        <ele>313.52999999999997</ele>
        <time>2025-04-25T11:19:33Z</time>
      </trkpt>
      <trkpt lat="44.553480008617043" lon="2.672188030555844">
        <ele>313.52999999999997</ele>
        <time>2025-04-25T11:19:41Z</time>
      </trkpt>
      <trkpt lat="44.55347397364676" lon="2.672131033614278">
        <ele>313.52999999999997</ele>
        <time>2025-04-25T11:19:42Z</time>
      </trkpt>
      <trkpt lat="44.553479002788663" lon="2.672095997259021">
        <ele>313.52999999999997</ele>
        <time>2025-04-25T11:19:43Z</time>
      </trkpt>
      <trkpt lat="44.553486965596676" lon="2.672035982832313">
        <ele>313.05000000000001</ele>
        <time>2025-04-25T11:19:44Z</time>
      </trkpt>
      <trkpt lat="44.553495012223721" lon="2.671975968405604">
        <ele>313.52999999999997</ele>
        <time>2025-04-25T11:19:45Z</time>
      </trkpt>
      <trkpt lat="44.553509010002017" lon="2.671865997835994">
        <ele>313.05000000000001</ele>
        <time>2025-04-25T11:19:46Z</time>
      </trkpt>
      <trkpt lat="44.553424017503858" lon="2.671865997835994">
        <ele>313.52999999999997</ele>
        <time>2025-04-25T11:19:47Z</time>
      </trkpt>
      <trkpt lat="44.553378000855446" lon="2.671865997835994">
        <ele>313.52999999999997</ele>
        <time>2025-04-25T11:19:48Z</time>
      </trkpt>
      <trkpt lat="44.553327960893512" lon="2.671869015321136">
        <ele>313.52999999999997</ele>
        <time>2025-04-25T11:19:49Z</time>
      </trkpt>
      <trkpt lat="44.55327901057899" lon="2.671881001442671">
        <ele>314.00999999999999</ele>
        <time>2025-04-25T11:19:50Z</time>
      </trkpt>
      <trkpt lat="44.553126962855458" lon="2.671916959807277">
        <ele>314.49000000000001</ele>
        <time>2025-04-25T11:19:53Z</time>
      </trkpt>
      <trkpt lat="44.553076000884175" lon="2.671929029747844">
        <ele>314.49000000000001</ele>
        <time>2025-04-25T11:19:54Z</time>
      </trkpt>
      <trkpt lat="44.552741982042789" lon="2.6720089931041">
        <ele>316.41000000000003</ele>
        <time>2025-04-25T11:20:00Z</time>
      </trkpt>
      <trkpt lat="44.552696971222758" lon="2.672019973397255">
        <ele>316.41000000000003</ele>
        <time>2025-04-25T11:20:01Z</time>
      </trkpt>
      <trkpt lat="44.552653972059488" lon="2.672030031681061">
        <ele>316.88999999999999</ele>
        <time>2025-04-25T11:20:02Z</time>
      </trkpt>
      <trkpt lat="44.552608961239457" lon="2.672040006145835">
        <ele>317.37</ele>
        <time>2025-04-25T11:20:03Z</time>
      </trkpt>
      <trkpt lat="44.552569985389709" lon="2.672048974782229">
        <ele>317.85000000000002</ele>
        <time>2025-04-25T11:20:04Z</time>
      </trkpt>
      <trkpt lat="44.552515000104904" lon="2.672061966732144">
        <ele>318.81</ele>
        <time>2025-04-25T11:20:11Z</time>
      </trkpt>
      <trkpt lat="44.552200008183718" lon="2.672102032229304">
        <ele>319.30000000000001</ele>
        <time>2025-04-25T11:20:19Z</time>
      </trkpt>
      <trkpt lat="44.552653972059488" lon="2.672184007242322">
        <ele>320.25999999999999</ele>
        <time>2025-04-25T11:21:52Z</time>
      </trkpt>
      <trkpt lat="44.552506031468511" lon="2.672047968953848">
        <ele>326.99000000000001</ele>
        <time>2025-04-25T11:22:30Z</time>
      </trkpt>
      <trkpt lat="44.552491027861834" lon="2.671982003375888">
        <ele>323.13999999999999</ele>
        <time>2025-04-25T11:23:16Z</time>
      </trkpt>
      <trkpt lat="44.552487004548311" lon="2.671956019476056">
        <ele>324.10000000000002</ele>
        <time>2025-04-25T11:23:58Z</time>
      </trkpt>
      <trkpt lat="44.552493039518595" lon="2.671961970627308">
        <ele>324.57999999999998</ele>
        <time>2025-04-25T11:24:57Z</time>
      </trkpt>
      <trkpt lat="44.552490022033453" lon="2.671963982284069">
        <ele>324.10000000000002</ele>
        <time>2025-04-25T11:25:45Z</time>
      </trkpt>
      <trkpt lat="44.552435958757997" lon="2.672080993652344">
        <ele>323.62</ele>
        <time>2025-04-25T11:25:47Z</time>
      </trkpt>
      <trkpt lat="44.552435958757997" lon="2.672080993652344">
        <ele>323.13999999999999</ele>
        <time>2025-04-25T11:25:48Z</time>
      </trkpt>
      <trkpt lat="44.552430007606745" lon="2.672080993652344">
        <ele>323.13999999999999</ele>
        <time>2025-04-25T11:25:49Z</time>
      </trkpt>
      <trkpt lat="44.552458003163338" lon="2.672231029719114">
        <ele>323.13999999999999</ele>
        <time>2025-04-25T11:25:50Z</time>
      </trkpt>
      <trkpt lat="44.552448028698564" lon="2.672163974493742">
        <ele>323.13999999999999</ele>
        <time>2025-04-25T11:25:51Z</time>
      </trkpt>
      <trkpt lat="44.552458003163338" lon="2.672255001962185">
        <ele>322.66000000000003</ele>
        <time>2025-04-25T11:25:52Z</time>
      </trkpt>
      <trkpt lat="44.552458003163338" lon="2.672445019707084">
        <ele>322.66000000000003</ele>
        <time>2025-04-25T11:25:54Z</time>
      </trkpt>
      <trkpt lat="44.552427995949984" lon="2.673350013792515">
        <ele>320.74000000000001</ele>
        <time>2025-04-25T11:26:02Z</time>
      </trkpt>
      <trkpt lat="44.552347026765347" lon="2.673767013475299">
        <ele>319.77999999999997</ele>
        <time>2025-04-25T11:26:05Z</time>
      </trkpt>
      <trkpt lat="44.552304027602077" lon="2.673895005136728">
        <ele>319.30000000000001</ele>
        <time>2025-04-25T11:26:06Z</time>
      </trkpt>
      <trkpt lat="44.552240995690227" lon="2.674008999019861">
        <ele>319.30000000000001</ele>
        <time>2025-04-25T11:26:07Z</time>
      </trkpt>
      <trkpt lat="44.5521629601717" lon="2.674116035923362">
        <ele>318.81</ele>
        <time>2025-04-25T11:26:08Z</time>
      </trkpt>
      <trkpt lat="44.552078973501921" lon="2.674231035634875">
        <ele>318.32999999999998</ele>
        <time>2025-04-25T11:26:09Z</time>
      </trkpt>
      <trkpt lat="44.551993981003761" lon="2.674347963184118">
        <ele>317.85000000000002</ele>
        <time>2025-04-25T11:26:10Z</time>
      </trkpt>
      <trkpt lat="44.551831036806107" lon="2.674560025334358">
        <ele>317.37</ele>
        <time>2025-04-25T11:26:12Z</time>
      </trkpt>
      <trkpt lat="44.551252014935017" lon="2.675333004444838">
        <ele>315.93000000000001</ele>
        <time>2025-04-25T11:26:18Z</time>
      </trkpt>
      <trkpt lat="44.551182026043534" lon="2.675507012754679">
        <ele>315.93000000000001</ele>
        <time>2025-04-25T11:26:19Z</time>
      </trkpt>
      <trkpt lat="44.551060991361737" lon="2.675899034366012">
        <ele>315.44999999999999</ele>
        <time>2025-04-25T11:26:21Z</time>
      </trkpt>
      <trkpt lat="44.551000976935029" lon="2.676095003262162">
        <ele>315.44999999999999</ele>
        <time>2025-04-25T11:26:22Z</time>
      </trkpt>
      <trkpt lat="44.55080701969564" lon="2.676667990162969">
        <ele>315.44999999999999</ele>
        <time>2025-04-25T11:26:25Z</time>
      </trkpt>
      <trkpt lat="44.550709035247564" lon="2.676854990422726">
        <ele>315.44999999999999</ele>
        <time>2025-04-25T11:26:26Z</time>
      </trkpt>
      <trkpt lat="44.550237972289324" lon="2.677579019218683">
        <ele>315.93000000000001</ele>
        <time>2025-04-25T11:26:30Z</time>
      </trkpt>
      <trkpt lat="44.550109980627894" lon="2.677754033356905">
        <ele>315.93000000000001</ele>
        <time>2025-04-25T11:26:31Z</time>
      </trkpt>
      <trkpt lat="44.549163999035954" lon="2.678728010505438">
        <ele>316.41000000000003</ele>
        <time>2025-04-25T11:26:38Z</time>
      </trkpt>
      <trkpt lat="44.549064002931118" lon="2.678902018815279">
        <ele>316.88999999999999</ele>
        <time>2025-04-25T11:26:39Z</time>
      </trkpt>
      <trkpt lat="44.548963000997901" lon="2.679077032953501">
        <ele>316.88999999999999</ele>
        <time>2025-04-25T11:26:40Z</time>
      </trkpt>
      <trkpt lat="44.548791004344821" lon="2.679452961310744">
        <ele>317.37</ele>
        <time>2025-04-25T11:26:42Z</time>
      </trkpt>
      <trkpt lat="44.548731995746493" lon="2.679667035117745">
        <ele>317.37</ele>
        <time>2025-04-25T11:26:43Z</time>
      </trkpt>
      <trkpt lat="44.548685979098082" lon="2.679879013448954">
        <ele>317.85000000000002</ele>
        <time>2025-04-25T11:26:44Z</time>
      </trkpt>
      <trkpt lat="44.548589000478387" lon="2.680769003927708">
        <ele>318.32999999999998</ele>
        <time>2025-04-25T11:26:48Z</time>
      </trkpt>
      <trkpt lat="44.548609033226967" lon="2.680997997522354">
        <ele>318.32999999999998</ele>
        <time>2025-04-25T11:26:49Z</time>
      </trkpt>
      <trkpt lat="44.548653038218617" lon="2.681235037744045">
        <ele>318.81</ele>
        <time>2025-04-25T11:26:50Z</time>
      </trkpt>
      <trkpt lat="44.548916984349489" lon="2.68217196688056">
        <ele>319.30000000000001</ele>
        <time>2025-04-25T11:26:54Z</time>
      </trkpt>
      <trkpt lat="44.548994014039636" lon="2.682391991838813">
        <ele>319.30000000000001</ele>
        <time>2025-04-25T11:26:55Z</time>
      </trkpt>
      <trkpt lat="44.549139020964503" lon="2.682801028713584">
        <ele>319.77999999999997</ele>
        <time>2025-04-25T11:26:57Z</time>
      </trkpt>
      <trkpt lat="44.549206998199224" lon="2.682993980124593">
        <ele>320.25999999999999</ele>
        <time>2025-04-25T11:26:58Z</time>
      </trkpt>
      <trkpt lat="44.549229964613914" lon="2.683210987597704">
        <ele>320.25999999999999</ele>
        <time>2025-04-25T11:26:59Z</time>
      </trkpt>
      <trkpt lat="44.549243962392211" lon="2.683435035869479">
        <ele>320.25999999999999</ele>
        <time>2025-04-25T11:27:00Z</time>
      </trkpt>
      <trkpt lat="44.549258965998888" lon="2.683670986443758">
        <ele>320.74000000000001</ele>
        <time>2025-04-25T11:27:01Z</time>
      </trkpt>
      <trkpt lat="44.54932602122426" lon="2.68440498970449">
        <ele>322.66000000000003</ele>
        <time>2025-04-25T11:27:04Z</time>
      </trkpt>
      <trkpt lat="44.549443032592535" lon="2.68569303676486">
        <ele>325.06</ele>
        <time>2025-04-25T11:27:10Z</time>
      </trkpt>
      <trkpt lat="44.549431968480349" lon="2.685904009267688">
        <ele>325.54000000000002</ele>
        <time>2025-04-25T11:27:11Z</time>
      </trkpt>
      <trkpt lat="44.5494120195508" lon="2.686344981193543">
        <ele>326.5</ele>
        <time>2025-04-25T11:27:13Z</time>
      </trkpt>
      <trkpt lat="44.549430962651968" lon="2.686557965353131">
        <ele>326.99000000000001</ele>
        <time>2025-04-25T11:27:14Z</time>
      </trkpt>
      <trkpt lat="44.549449989572167" lon="2.686769021674991">
        <ele>326.99000000000001</ele>
        <time>2025-04-25T11:27:15Z</time>
      </trkpt>
      <trkpt lat="44.549468010663986" lon="2.686978988349438">
        <ele>327.47000000000003</ele>
        <time>2025-04-25T11:27:16Z</time>
      </trkpt>
      <trkpt lat="44.54945501871407" lon="2.68719700165093">
        <ele>327.94999999999999</ele>
        <time>2025-04-25T11:27:17Z</time>
      </trkpt>
      <trkpt lat="44.549426017329097" lon="2.687386013567448">
        <ele>327.94999999999999</ele>
        <time>2025-04-25T11:27:18Z</time>
      </trkpt>
      <trkpt lat="44.549375977367163" lon="2.687546024098992">
        <ele>328.43000000000001</ele>
        <time>2025-04-25T11:27:19Z</time>
      </trkpt>
      <trkpt lat="44.549308000132442" lon="2.687659012153745">
        <ele>328.43000000000001</ele>
        <time>2025-04-25T11:27:20Z</time>
      </trkpt>
      <trkpt lat="44.549204986542463" lon="2.687733024358749">
        <ele>328.43000000000001</ele>
        <time>2025-04-25T11:27:21Z</time>
      </trkpt>
      <trkpt lat="44.549099039286375" lon="2.687775017693639">
        <ele>328.43000000000001</ele>
        <time>2025-04-25T11:27:22Z</time>
      </trkpt>
      <trkpt lat="44.54896098934114" lon="2.687759008258581">
        <ele>328.43000000000001</ele>
        <time>2025-04-25T11:27:23Z</time>
      </trkpt>
      <trkpt lat="44.548815982416272" lon="2.687712991610169">
        <ele>328.43000000000001</ele>
        <time>2025-04-25T11:27:24Z</time>
      </trkpt>
      <trkpt lat="44.548682039603591" lon="2.687618024647236">
        <ele>327.94999999999999</ele>
        <time>2025-04-25T11:27:25Z</time>
      </trkpt>
      <trkpt lat="44.548537032678723" lon="2.687516016885638">
        <ele>327.94999999999999</ele>
        <time>2025-04-25T11:27:26Z</time>
      </trkpt>
      <trkpt lat="44.548395965248346" lon="2.687384001910687">
        <ele>327.94999999999999</ele>
        <time>2025-04-25T11:27:27Z</time>
      </trkpt>
      <trkpt lat="44.548155991360545" lon="2.687076972797513">
        <ele>328.43000000000001</ele>
        <time>2025-04-25T11:27:29Z</time>
      </trkpt>
      <trkpt lat="44.548049960285425" lon="2.686901036649942">
        <ele>328.43000000000001</ele>
        <time>2025-04-25T11:27:30Z</time>
      </trkpt>
      <trkpt lat="44.54741301946342" lon="2.685159025713801">
        <ele>326.99000000000001</ele>
        <time>2025-04-25T11:27:38Z</time>
      </trkpt>
      <trkpt lat="44.547344958409667" lon="2.684930032119155">
        <ele>326.99000000000001</ele>
        <time>2025-04-25T11:27:39Z</time>
      </trkpt>
      <trkpt lat="44.546995013952255" lon="2.683552969247103">
        <ele>327.47000000000003</ele>
        <time>2025-04-25T11:27:45Z</time>
      </trkpt>
      <trkpt lat="44.546890994533896" lon="2.683360017836094">
        <ele>327.94999999999999</ele>
        <time>2025-04-25T11:27:46Z</time>
      </trkpt>
      <trkpt lat="44.546775994822383" lon="2.683174023404717">
        <ele>328.43000000000001</ele>
        <time>2025-04-25T11:27:47Z</time>
      </trkpt>
      <trkpt lat="44.546664012596011" lon="2.682989034801722">
        <ele>328.43000000000001</ele>
        <time>2025-04-25T11:27:48Z</time>
      </trkpt>
      <trkpt lat="44.546574996784329" lon="2.682789964601398">
        <ele>328.91000000000003</ele>
        <time>2025-04-25T11:27:49Z</time>
      </trkpt>
      <trkpt lat="44.546499978750944" lon="2.682586032897234">
        <ele>329.38999999999999</ele>
        <time>2025-04-25T11:27:50Z</time>
      </trkpt>
      <trkpt lat="44.54642403870821" lon="2.682380005717278">
        <ele>329.87</ele>
        <time>2025-04-25T11:27:51Z</time>
      </trkpt>
      <trkpt lat="44.546269979327917" lon="2.681966023519635">
        <ele>331.31</ele>
        <time>2025-04-25T11:27:53Z</time>
      </trkpt>
      <trkpt lat="44.546154979616404" lon="2.681828979402781">
        <ele>331.79000000000002</ele>
        <time>2025-04-25T11:27:54Z</time>
      </trkpt>
      <trkpt lat="44.546023970469832" lon="2.681767959147692">
        <ele>332.26999999999998</ele>
        <time>2025-04-25T11:27:55Z</time>
      </trkpt>
      <trkpt lat="44.545873012393713" lon="2.681720014661551">
        <ele>332.75</ele>
        <time>2025-04-25T11:27:56Z</time>
      </trkpt>
      <trkpt lat="44.545719036832452" lon="2.681670980527997">
        <ele>332.75</ele>
        <time>2025-04-25T11:27:57Z</time>
      </trkpt>
      <trkpt lat="44.544698037207127" lon="2.681734012439847">
        <ele>333.23000000000002</ele>
        <time>2025-04-25T11:28:04Z</time>
      </trkpt>
      <trkpt lat="44.544193027541041" lon="2.681810958310962">
        <ele>331.31</ele>
        <time>2025-04-25T11:28:08Z</time>
      </trkpt>
      <trkpt lat="44.544086996465921" lon="2.681882036849856">
        <ele>330.35000000000002</ele>
        <time>2025-04-25T11:28:09Z</time>
      </trkpt>
      <trkpt lat="44.543981971219182" lon="2.681952025741339">
        <ele>329.87</ele>
        <time>2025-04-25T11:28:10Z</time>
      </trkpt>
      <trkpt lat="44.543910976499319" lon="2.682072976604104">
        <ele>328.91000000000003</ele>
        <time>2025-04-25T11:28:11Z</time>
      </trkpt>
      <trkpt lat="44.543834030628204" lon="2.682205997407436">
        <ele>328.43000000000001</ele>
        <time>2025-04-25T11:28:12Z</time>
      </trkpt>
      <trkpt lat="44.543787008151412" lon="2.682349998503923">
        <ele>327.94999999999999</ele>
        <time>2025-04-25T11:28:13Z</time>
      </trkpt>
      <trkpt lat="44.543737974017859" lon="2.682501040399075">
        <ele>327.47000000000003</ele>
        <time>2025-04-25T11:28:14Z</time>
      </trkpt>
      <trkpt lat="44.543687012046576" lon="2.682659039273858">
        <ele>327.47000000000003</ele>
        <time>2025-04-25T11:28:15Z</time>
      </trkpt>
      <trkpt lat="44.543636972084641" lon="2.682820977643132">
        <ele>326.99000000000001</ele>
        <time>2025-04-25T11:28:16Z</time>
      </trkpt>
      <trkpt lat="44.543601013720036" lon="2.68300998955965">
        <ele>326.99000000000001</ele>
        <time>2025-04-25T11:28:17Z</time>
      </trkpt>
      <trkpt lat="44.543553991243243" lon="2.683209981769323">
        <ele>326.99000000000001</ele>
        <time>2025-04-25T11:28:18Z</time>
      </trkpt>
      <trkpt lat="44.543485008180141" lon="2.683394970372319">
        <ele>326.99000000000001</ele>
        <time>2025-04-25T11:28:19Z</time>
      </trkpt>
      <trkpt lat="44.54341703094542" lon="2.683579036965966">
        <ele>326.99000000000001</ele>
        <time>2025-04-25T11:28:20Z</time>
      </trkpt>
      <trkpt lat="44.542808001860976" lon="2.684922991320491">
        <ele>331.79000000000002</ele>
        <time>2025-04-25T11:28:28Z</time>
      </trkpt>
      <trkpt lat="44.542413968592882" lon="2.68543504178524">
        <ele>334.19999999999999</ele>
        <time>2025-04-25T11:28:32Z</time>
      </trkpt>
      <trkpt lat="44.542299974709749" lon="2.685491032898426">
        <ele>334.68000000000001</ele>
        <time>2025-04-25T11:28:33Z</time>
      </trkpt>
      <trkpt lat="44.542180029675364" lon="2.685487009584904">
        <ele>335.63999999999999</ele>
        <time>2025-04-25T11:28:34Z</time>
      </trkpt>
      <trkpt lat="44.541020980104804" lon="2.685428000986576">
        <ele>340.44</ele>
        <time>2025-04-25T11:28:44Z</time>
      </trkpt>
      <trkpt lat="44.540934981778264" lon="2.685449039563537">
        <ele>340.44</ele>
        <time>2025-04-25T11:28:45Z</time>
      </trkpt>
      <trkpt lat="44.540843032300472" lon="2.685550041496754">
        <ele>340.92000000000002</ele>
        <time>2025-04-25T11:28:46Z</time>
      </trkpt>
      <trkpt lat="44.540749993175268" lon="2.685650959610939">
        <ele>340.92000000000002</ele>
        <time>2025-04-25T11:28:47Z</time>
      </trkpt>
      <trkpt lat="44.540663994848728" lon="2.685763025656343">
        <ele>341.41000000000003</ele>
        <time>2025-04-25T11:28:48Z</time>
      </trkpt>
      <trkpt lat="44.540579002350569" lon="2.685904009267688">
        <ele>341.41000000000003</ele>
        <time>2025-04-25T11:28:49Z</time>
      </trkpt>
      <trkpt lat="44.540140964090824" lon="2.686479007825255">
        <ele>342.37</ele>
        <time>2025-04-25T11:28:53Z</time>
      </trkpt>
      <trkpt lat="44.539989000186324" lon="2.68659501336515">
        <ele>342.37</ele>
        <time>2025-04-25T11:28:54Z</time>
      </trkpt>
      <trkpt lat="44.538771025836468" lon="2.687529008835554">
        <ele>343.32999999999998</ele>
        <time>2025-04-25T11:29:03Z</time>
      </trkpt>
      <trkpt lat="44.53866801224649" lon="2.687643002718687">
        <ele>343.81</ele>
        <time>2025-04-25T11:29:04Z</time>
      </trkpt>
      <trkpt lat="44.53856198117137" lon="2.687765965238214">
        <ele>343.81</ele>
        <time>2025-04-25T11:29:05Z</time>
      </trkpt>
      <trkpt lat="44.53772203065455" lon="2.689100028946996">
        <ele>346.20999999999998</ele>
        <time>2025-04-25T11:29:13Z</time>
      </trkpt>
      <trkpt lat="44.537599990144372" lon="2.689241012558341">
        <ele>346.69</ele>
        <time>2025-04-25T11:29:14Z</time>
      </trkpt>
      <trkpt lat="44.537468980997801" lon="2.689378978684545">
        <ele>347.17000000000002</ele>
        <time>2025-04-25T11:29:15Z</time>
      </trkpt>
      <trkpt lat="44.536291994154453" lon="2.690519001334906">
        <ele>350.06</ele>
        <time>2025-04-25T11:29:24Z</time>
      </trkpt>
      <trkpt lat="44.535003025084734" lon="2.691836971789599">
        <ele>357.26999999999998</ele>
        <time>2025-04-25T11:29:34Z</time>
      </trkpt>
      <trkpt lat="44.534464990720153" lon="2.692220024764538">
        <ele>360.63</ele>
        <time>2025-04-25T11:29:38Z</time>
      </trkpt>
      <trkpt lat="44.534339010715485" lon="2.692260006442666">
        <ele>361.58999999999997</ele>
        <time>2025-04-25T11:29:39Z</time>
      </trkpt>
      <trkpt lat="44.534212024882436" lon="2.692275010049343">
        <ele>362.55000000000001</ele>
        <time>2025-04-25T11:29:40Z</time>
      </trkpt>
      <trkpt lat="44.534085961058736" lon="2.69228900782764">
        <ele>363.04000000000002</ele>
        <time>2025-04-25T11:29:41Z</time>
      </trkpt>
      <trkpt lat="44.533971967175603" lon="2.692368971183896">
        <ele>363.51999999999998</ele>
        <time>2025-04-25T11:29:42Z</time>
      </trkpt>
      <trkpt lat="44.533863002434373" lon="2.692478019744158">
        <ele>364.48000000000002</ele>
        <time>2025-04-25T11:29:43Z</time>
      </trkpt>
      <trkpt lat="44.53374900855124" lon="2.692592013627291">
        <ele>364.95999999999998</ele>
        <time>2025-04-25T11:29:44Z</time>
      </trkpt>
      <trkpt lat="44.533652029931545" lon="2.692695027217269">
        <ele>365.92000000000002</ele>
        <time>2025-04-25T11:29:45Z</time>
      </trkpt>
      <trkpt lat="44.533564019948244" lon="2.692851014435291">
        <ele>366.88</ele>
        <time>2025-04-25T11:29:46Z</time>
      </trkpt>
      <trkpt lat="44.533478021621704" lon="2.69299996085465">
        <ele>367.83999999999997</ele>
        <time>2025-04-25T11:29:47Z</time>
      </trkpt>
      <trkpt lat="44.533403003588319" lon="2.693130970001221">
        <ele>368.80000000000001</ele>
        <time>2025-04-25T11:29:48Z</time>
      </trkpt>
      <trkpt lat="44.533372996374965" lon="2.6933219935745">
        <ele>369.75999999999999</ele>
        <time>2025-04-25T11:29:49Z</time>
      </trkpt>
      <trkpt lat="44.533342989161611" lon="2.693511005491018">
        <ele>370.73000000000002</ele>
        <time>2025-04-25T11:29:50Z</time>
      </trkpt>
      <trkpt lat="44.533318011090159" lon="2.693666992709041">
        <ele>371.69</ele>
        <time>2025-04-25T11:29:51Z</time>
      </trkpt>
      <trkpt lat="44.533337038010359" lon="2.693892968818545">
        <ele>372.64999999999998</ele>
        <time>2025-04-25T11:29:52Z</time>
      </trkpt>
      <trkpt lat="44.533437034115195" lon="2.694980017840862">
        <ele>376.97000000000003</ele>
        <time>2025-04-25T11:29:57Z</time>
      </trkpt>
      <trkpt lat="44.533435022458434" lon="2.695713015273213">
        <ele>378.89999999999998</ele>
        <time>2025-04-25T11:30:00Z</time>
      </trkpt>
      <trkpt lat="44.533460000529885" lon="2.695968998596072">
        <ele>379.38</ele>
        <time>2025-04-25T11:30:01Z</time>
      </trkpt>
      <trkpt lat="44.533510962501168" lon="2.696220958605409">
        <ele>380.33999999999997</ele>
        <time>2025-04-25T11:30:02Z</time>
      </trkpt>
      <trkpt lat="44.533562008291483" lon="2.69667400047183">
        <ele>381.77999999999997</ele>
        <time>2025-04-25T11:30:04Z</time>
      </trkpt>
      <trkpt lat="44.533568965271115" lon="2.696851026266813">
        <ele>382.25999999999999</ele>
        <time>2025-04-25T11:30:05Z</time>
      </trkpt>
      <trkpt lat="44.533530995249748" lon="2.697026040405035">
        <ele>382.74000000000001</ele>
        <time>2025-04-25T11:30:06Z</time>
      </trkpt>
      <trkpt lat="44.533467041328549" lon="2.697192002087832">
        <ele>383.22000000000003</ele>
        <time>2025-04-25T11:30:07Z</time>
      </trkpt>
      <trkpt lat="44.533370984718204" lon="2.697344971820712">
        <ele>383.69999999999999</ele>
        <time>2025-04-25T11:30:08Z</time>
      </trkpt>
      <trkpt lat="44.533270988613367" lon="2.697503976523876">
        <ele>383.69999999999999</ele>
        <time>2025-04-25T11:30:09Z</time>
      </trkpt>
      <trkpt lat="44.533165041357279" lon="2.697673039510846">
        <ele>384.18000000000001</ele>
        <time>2025-04-25T11:30:10Z</time>
      </trkpt>
      <trkpt lat="44.533058004453778" lon="2.697844030335546">
        <ele>384.66000000000003</ele>
        <time>2025-04-25T11:30:11Z</time>
      </trkpt>
      <trkpt lat="44.532931018620729" lon="2.698045028373599">
        <ele>385.14999999999998</ele>
        <time>2025-04-25T11:30:12Z</time>
      </trkpt>
      <trkpt lat="44.532862035557628" lon="2.698195986449719">
        <ele>385.63</ele>
        <time>2025-04-25T11:30:13Z</time>
      </trkpt>
      <trkpt lat="44.532789029181004" lon="2.698359014466405">
        <ele>386.11000000000001</ele>
        <time>2025-04-25T11:30:14Z</time>
      </trkpt>
      <trkpt lat="44.53271702863276" lon="2.698517013341188">
        <ele>387.06999999999999</ele>
        <time>2025-04-25T11:30:15Z</time>
      </trkpt>
      <trkpt lat="44.532689033076167" lon="2.698640981689096">
        <ele>388.02999999999997</ele>
        <time>2025-04-25T11:30:16Z</time>
      </trkpt>
      <trkpt lat="44.532694984227419" lon="2.698793029412627">
        <ele>388.99000000000001</ele>
        <time>2025-04-25T11:30:17Z</time>
      </trkpt>
      <trkpt lat="44.532728008925915" lon="2.698926972225308">
        <ele>389.47000000000003</ele>
        <time>2025-04-25T11:30:18Z</time>
      </trkpt>
      <trkpt lat="44.532823981717229" lon="2.69901498220861">
        <ele>390.43000000000001</ele>
        <time>2025-04-25T11:30:19Z</time>
      </trkpt>
      <trkpt lat="44.532939987257123" lon="2.69907901994884">
        <ele>391.38999999999999</ele>
        <time>2025-04-25T11:30:20Z</time>
      </trkpt>
      <trkpt lat="44.533073008060455" lon="2.699151020497084">
        <ele>392.36000000000001</ele>
        <time>2025-04-25T11:30:21Z</time>
      </trkpt>
      <trkpt lat="44.53329898416996" lon="2.69937900826335">
        <ele>393.80000000000001</ele>
        <time>2025-04-25T11:30:23Z</time>
      </trkpt>
      <trkpt lat="44.533361010253429" lon="2.699460983276367">
        <ele>394.27999999999997</ele>
        <time>2025-04-25T11:30:24Z</time>
      </trkpt>
      <trkpt lat="44.533439967781305" lon="2.699671033769846">
        <ele>394.27999999999997</ele>
        <time>2025-04-25T11:30:25Z</time>
      </trkpt>
      <trkpt lat="44.533512974157929" lon="2.699860967695713">
        <ele>394.75999999999999</ele>
        <time>2025-04-25T11:30:26Z</time>
      </trkpt>
      <trkpt lat="44.533588998019695" lon="2.700062971562147">
        <ele>394.75999999999999</ele>
        <time>2025-04-25T11:30:27Z</time>
      </trkpt>
      <trkpt lat="44.533668039366603" lon="2.700270004570484">
        <ele>394.75999999999999</ele>
        <time>2025-04-25T11:30:28Z</time>
      </trkpt>
      <trkpt lat="44.533748002722859" lon="2.700478965416551">
        <ele>395.24000000000001</ele>
        <time>2025-04-25T11:30:29Z</time>
      </trkpt>
      <trkpt lat="44.533856967464089" lon="2.700685998424888">
        <ele>395.72000000000003</ele>
        <time>2025-04-25T11:30:30Z</time>
      </trkpt>
      <trkpt lat="44.534379998221993" lon="2.702121986076236">
        <ele>403.41000000000003</ele>
        <time>2025-04-25T11:30:37Z</time>
      </trkpt>
      <trkpt lat="44.534730026498437" lon="2.703342977911234">
        <ele>411.10000000000002</ele>
        <time>2025-04-25T11:30:43Z</time>
      </trkpt>
      <trkpt lat="44.534943010658026" lon="2.70378403365612">
        <ele>415.43000000000001</ele>
        <time>2025-04-25T11:30:47Z</time>
      </trkpt>
      <trkpt lat="44.534970000386238" lon="2.703838013112545">
        <ele>416.38999999999999</ele>
        <time>2025-04-25T11:30:48Z</time>
      </trkpt>
      <trkpt lat="44.534961031749845" lon="2.703910013660789">
        <ele>417.35000000000002</ele>
        <time>2025-04-25T11:30:49Z</time>
      </trkpt>
      <trkpt lat="44.5349529851228" lon="2.703971033915877">
        <ele>418.31</ele>
        <time>2025-04-25T11:30:50Z</time>
      </trkpt>
      <trkpt lat="44.534903028979897" lon="2.704010009765625">
        <ele>419.75</ele>
        <time>2025-04-25T11:30:51Z</time>
      </trkpt>
      <trkpt lat="44.534884002059698" lon="2.704010009765625">
        <ele>420.23000000000002</ele>
        <time>2025-04-25T11:30:52Z</time>
      </trkpt>
      <trkpt lat="44.534862041473389" lon="2.703985031694174">
        <ele>421.19</ele>
        <time>2025-04-25T11:30:53Z</time>
      </trkpt>
      <trkpt lat="44.534832034260035" lon="2.703949995338917">
        <ele>422.16000000000003</ele>
        <time>2025-04-25T11:30:54Z</time>
      </trkpt>
      <trkpt lat="44.534795992076397" lon="2.703908002004027">
        <ele>422.63999999999999</ele>
        <time>2025-04-25T11:30:55Z</time>
      </trkpt>
      <trkpt lat="44.534755004569888" lon="2.703858967870474">
        <ele>423.12</ele>
        <time>2025-04-25T11:30:56Z</time>
      </trkpt>
      <trkpt lat="44.534703036770225" lon="2.703757965937257">
        <ele>423.60000000000002</ele>
        <time>2025-04-25T11:30:57Z</time>
      </trkpt>
      <trkpt lat="44.53433096408844" lon="2.703027985990048">
        <ele>425.51999999999998</ele>
        <time>2025-04-25T11:31:01Z</time>
      </trkpt>
      <trkpt lat="44.534231973811984" lon="2.702833022922278">
        <ele>426.48000000000002</ele>
        <time>2025-04-25T11:31:02Z</time>
      </trkpt>
      <trkpt lat="44.534119991585612" lon="2.702634036540985">
        <ele>426.95999999999998</ele>
        <time>2025-04-25T11:31:03Z</time>
      </trkpt>
      <trkpt lat="44.534010021016002" lon="2.702445024624467">
        <ele>427.92000000000002</ele>
        <time>2025-04-25T11:31:04Z</time>
      </trkpt>
      <trkpt lat="44.533021962270141" lon="2.701328974217176">
        <ele>435.61000000000001</ele>
        <time>2025-04-25T11:31:11Z</time>
      </trkpt>
      <trkpt lat="44.532748963683844" lon="2.701075002551079">
        <ele>438.01999999999998</ele>
        <time>2025-04-25T11:31:13Z</time>
      </trkpt>
      <trkpt lat="44.532618038356304" lon="2.700952962040901">
        <ele>438.5</ele>
        <time>2025-04-25T11:31:14Z</time>
      </trkpt>
      <trkpt lat="44.531488995999098" lon="2.700119968503714">
        <ele>448.11000000000001</ele>
        <time>2025-04-25T11:31:22Z</time>
      </trkpt>
      <trkpt lat="44.53125698491931" lon="2.699876977130771">
        <ele>450.51999999999998</ele>
        <time>2025-04-25T11:31:24Z</time>
      </trkpt>
      <trkpt lat="44.531141985207796" lon="2.699757032096386">
        <ele>451.48000000000002</ele>
        <time>2025-04-25T11:31:25Z</time>
      </trkpt>
      <trkpt lat="44.531031008809805" lon="2.699648989364505">
        <ele>452.92000000000002</ele>
        <time>2025-04-25T11:31:26Z</time>
      </trkpt>
      <trkpt lat="44.5308499597013" lon="2.699503982439637">
        <ele>454.83999999999997</ele>
        <time>2025-04-25T11:31:27Z</time>
      </trkpt>
      <trkpt lat="44.530743006616831" lon="2.699503982439637">
        <ele>456.75999999999999</ele>
        <time>2025-04-25T11:31:28Z</time>
      </trkpt>
      <trkpt lat="44.530610991641879" lon="2.699503982439637">
        <ele>457.72000000000003</ele>
        <time>2025-04-25T11:31:29Z</time>
      </trkpt>
      <trkpt lat="44.530485011637211" lon="2.699503982439637">
        <ele>459.17000000000002</ele>
        <time>2025-04-25T11:31:30Z</time>
      </trkpt>
      <trkpt lat="44.530356014147401" lon="2.699503982439637">
        <ele>460.13</ele>
        <time>2025-04-25T11:31:31Z</time>
      </trkpt>
      <trkpt lat="44.530142024159431" lon="2.699417984113097">
        <ele>460.61000000000001</ele>
        <time>2025-04-25T11:31:32Z</time>
      </trkpt>
      <trkpt lat="44.530113022774458" lon="2.699371967464685">
        <ele>461.56999999999999</ele>
        <time>2025-04-25T11:31:33Z</time>
      </trkpt>
      <trkpt lat="44.530020989477634" lon="2.699224026873708">
        <ele>462.05000000000001</ele>
        <time>2025-04-25T11:31:34Z</time>
      </trkpt>
      <trkpt lat="44.52990498393774" lon="2.699027974158526">
        <ele>463.00999999999999</ele>
        <time>2025-04-25T11:31:35Z</time>
      </trkpt>
      <trkpt lat="44.529111972078681" lon="2.697314964607358">
        <ele>466.38</ele>
        <time>2025-04-25T11:31:43Z</time>
      </trkpt>
      <trkpt lat="44.529019016772509" lon="2.69720901735127">
        <ele>466.38</ele>
        <time>2025-04-25T11:31:44Z</time>
      </trkpt>
      <trkpt lat="44.528917009010911" lon="2.697121007367969">
        <ele>466.86000000000001</ele>
        <time>2025-04-25T11:31:45Z</time>
      </trkpt>
      <trkpt lat="44.528790023177862" lon="2.697057975456119">
        <ele>467.33999999999997</ele>
        <time>2025-04-25T11:31:46Z</time>
      </trkpt>
      <trkpt lat="44.528660019859672" lon="2.697022017091513">
        <ele>467.81999999999999</ele>
        <time>2025-04-25T11:31:47Z</time>
      </trkpt>
      <trkpt lat="44.528017966076732" lon="2.696842979639769">
        <ele>467.81999999999999</ele>
        <time>2025-04-25T11:31:52Z</time>
      </trkpt>
      <trkpt lat="44.527910007163882" lon="2.69686502404511">
        <ele>467.81999999999999</ele>
        <time>2025-04-25T11:31:53Z</time>
      </trkpt>
      <trkpt lat="44.527801964432001" lon="2.696910034865141">
        <ele>467.33999999999997</ele>
        <time>2025-04-25T11:31:54Z</time>
      </trkpt>
      <trkpt lat="44.527653018012643" lon="2.696971977129579">
        <ele>466.86000000000001</ele>
        <time>2025-04-25T11:31:55Z</time>
      </trkpt>
      <trkpt lat="44.5275619905442" lon="2.697041966021061">
        <ele>466.38</ele>
        <time>2025-04-25T11:31:56Z</time>
      </trkpt>
      <trkpt lat="44.527435004711151" lon="2.697138022631407">
        <ele>465.89999999999998</ele>
        <time>2025-04-25T11:31:57Z</time>
      </trkpt>
      <trkpt lat="44.527048012241721" lon="2.697435999289155">
        <ele>464.93000000000001</ele>
        <time>2025-04-25T11:32:00Z</time>
      </trkpt>
      <trkpt lat="44.526901999488473" lon="2.697500959038734">
        <ele>464.44999999999999</ele>
        <time>2025-04-25T11:32:01Z</time>
      </trkpt>
      <trkpt lat="44.526735031977296" lon="2.697549993172288">
        <ele>464.93000000000001</ele>
        <time>2025-04-25T11:32:02Z</time>
      </trkpt>
      <trkpt lat="44.526578960940242" lon="2.69753398373723">
        <ele>464.44999999999999</ele>
        <time>2025-04-25T11:32:03Z</time>
      </trkpt>
      <trkpt lat="44.526414005085826" lon="2.697473969310522">
        <ele>464.93000000000001</ele>
        <time>2025-04-25T11:32:04Z</time>
      </trkpt>
      <trkpt lat="44.526262963190675" lon="2.697394005954266">
        <ele>464.93000000000001</ele>
        <time>2025-04-25T11:32:05Z</time>
      </trkpt>
      <trkpt lat="44.526124997064471" lon="2.697291998192668">
        <ele>464.44999999999999</ele>
        <time>2025-04-25T11:32:06Z</time>
      </trkpt>
      <trkpt lat="44.525977978482842" lon="2.697182027623057">
        <ele>464.44999999999999</ele>
        <time>2025-04-25T11:32:07Z</time>
      </trkpt>
      <trkpt lat="44.525509011000395" lon="2.696853037923574">
        <ele>463.97000000000003</ele>
        <time>2025-04-25T11:32:10Z</time>
      </trkpt>
      <trkpt lat="44.525332991033792" lon="2.69680299796164">
        <ele>463.49000000000001</ele>
        <time>2025-04-25T11:32:11Z</time>
      </trkpt>
      <trkpt lat="44.525169041007757" lon="2.696787994354963">
        <ele>463.00999999999999</ele>
        <time>2025-04-25T11:32:12Z</time>
      </trkpt>
      <trkpt lat="44.524988997727633" lon="2.696808027103543">
        <ele>462.52999999999997</ele>
        <time>2025-04-25T11:32:13Z</time>
      </trkpt>
      <trkpt lat="44.52481297776103" lon="2.696826970204711">
        <ele>462.05000000000001</ele>
        <time>2025-04-25T11:32:14Z</time>
      </trkpt>
      <trkpt lat="44.523355029523373" lon="2.697155037894845">
        <ele>458.69</ele>
        <time>2025-04-25T11:32:22Z</time>
      </trkpt>
      <trkpt lat="44.523195018991828" lon="2.69712301902473">
        <ele>459.64999999999998</ele>
        <time>2025-04-25T11:32:23Z</time>
      </trkpt>
      <trkpt lat="44.523039031773806" lon="2.697092005982995">
        <ele>460.13</ele>
        <time>2025-04-25T11:32:24Z</time>
      </trkpt>
      <trkpt lat="44.522895030677319" lon="2.696998966857791">
        <ele>461.08999999999997</ele>
        <time>2025-04-25T11:32:25Z</time>
      </trkpt>
      <trkpt lat="44.522763015702367" lon="2.696867035701871">
        <ele>462.52999999999997</ele>
        <time>2025-04-25T11:32:26Z</time>
      </trkpt>
      <trkpt lat="44.522654972970486" lon="2.696698978543282">
        <ele>463.49000000000001</ele>
        <time>2025-04-25T11:32:27Z</time>
      </trkpt>
      <trkpt lat="44.52257702127099" lon="2.696503009647131">
        <ele>464.93000000000001</ele>
        <time>2025-04-25T11:32:28Z</time>
      </trkpt>
      <trkpt lat="44.522506026551127" lon="2.696291031315923">
        <ele>466.38</ele>
        <time>2025-04-25T11:32:29Z</time>
      </trkpt>
      <trkpt lat="44.522451963275671" lon="2.696059020236135">
        <ele>468.30000000000001</ele>
        <time>2025-04-25T11:32:30Z</time>
      </trkpt>
      <trkpt lat="44.522241996601224" lon="2.695164000615478">
        <ele>474.55000000000001</ele>
        <time>2025-04-25T11:32:34Z</time>
      </trkpt>
      <trkpt lat="44.522154992446303" lon="2.695012958720326">
        <ele>476.47000000000003</ele>
        <time>2025-04-25T11:32:35Z</time>
      </trkpt>
      <trkpt lat="44.52206103131175" lon="2.6948899962008">
        <ele>477.91000000000003</ele>
        <time>2025-04-25T11:32:36Z</time>
      </trkpt>
      <trkpt lat="44.52193203382194" lon="2.694808021187782">
        <ele>479.83999999999997</ele>
        <time>2025-04-25T11:32:37Z</time>
      </trkpt>
      <trkpt lat="44.521786021068692" lon="2.694752030074596">
        <ele>480.80000000000001</ele>
        <time>2025-04-25T11:32:38Z</time>
      </trkpt>
      <trkpt lat="44.521618969738483" lon="2.694727974012494">
        <ele>482.24000000000001</ele>
        <time>2025-04-25T11:32:39Z</time>
      </trkpt>
      <trkpt lat="44.52143901027739" lon="2.694702995941043">
        <ele>483.68000000000001</ele>
        <time>2025-04-25T11:32:40Z</time>
      </trkpt>
      <trkpt lat="44.521258966997266" lon="2.694678017869592">
        <ele>484.63999999999999</ele>
        <time>2025-04-25T11:32:41Z</time>
      </trkpt>
      <trkpt lat="44.520937018096447" lon="2.694633007049561">
        <ele>487.52999999999997</ele>
        <time>2025-04-25T11:32:43Z</time>
      </trkpt>
      <trkpt lat="44.52077298425138" lon="2.694527981802821">
        <ele>488.97000000000003</ele>
        <time>2025-04-25T11:32:44Z</time>
      </trkpt>
      <trkpt lat="44.520636023953557" lon="2.69443997181952">
        <ele>490.41000000000003</ele>
        <time>2025-04-25T11:32:45Z</time>
      </trkpt>
      <trkpt lat="44.520522030070424" lon="2.694298988208175">
        <ele>491.85000000000002</ele>
        <time>2025-04-25T11:32:46Z</time>
      </trkpt>
      <trkpt lat="44.520409964025021" lon="2.694161022081971">
        <ele>492.81</ele>
        <time>2025-04-25T11:32:47Z</time>
      </trkpt>
      <trkpt lat="44.520164038985968" lon="2.693924987688661">
        <ele>495.69999999999999</ele>
        <time>2025-04-25T11:32:49Z</time>
      </trkpt>
      <trkpt lat="44.5200190320611" lon="2.693835971876979">
        <ele>497.13999999999999</ele>
        <time>2025-04-25T11:32:50Z</time>
      </trkpt>
      <trkpt lat="44.519422994926572" lon="2.693412015214562">
        <ele>502.43000000000001</ele>
        <time>2025-04-25T11:32:54Z</time>
      </trkpt>
      <trkpt lat="44.519277988001704" lon="2.693259967491031">
        <ele>504.35000000000002</ele>
        <time>2025-04-25T11:32:55Z</time>
      </trkpt>
      <trkpt lat="44.518878003582358" lon="2.692743977531791">
        <ele>508.67000000000002</ele>
        <time>2025-04-25T11:32:58Z</time>
      </trkpt>
      <trkpt lat="44.518783036619425" lon="2.692534010857344">
        <ele>510.12</ele>
        <time>2025-04-25T11:32:59Z</time>
      </trkpt>
      <trkpt lat="44.51868899166584" lon="2.692325972020626">
        <ele>511.56</ele>
        <time>2025-04-25T11:33:00Z</time>
      </trkpt>
      <trkpt lat="44.518525041639805" lon="2.691964041441679">
        <ele>514.44000000000005</ele>
        <time>2025-04-25T11:33:02Z</time>
      </trkpt>
      <trkpt lat="44.518436025828123" lon="2.691842000931501">
        <ele>515.39999999999998</ele>
        <time>2025-04-25T11:33:03Z</time>
      </trkpt>
      <trkpt lat="44.518347010016441" lon="2.691780980676413">
        <ele>516.37</ele>
        <time>2025-04-25T11:33:04Z</time>
      </trkpt>
      <trkpt lat="44.518251037225127" lon="2.691794978454709">
        <ele>517.33000000000004</ele>
        <time>2025-04-25T11:33:05Z</time>
      </trkpt>
      <trkpt lat="44.51815196312964" lon="2.691845018416643">
        <ele>518.28999999999996</ele>
        <time>2025-04-25T11:33:06Z</time>
      </trkpt>
      <trkpt lat="44.518051967024803" lon="2.691921964287758">
        <ele>519.25</ele>
        <time>2025-04-25T11:33:07Z</time>
      </trkpt>
      <trkpt lat="44.51757101342082" lon="2.692344998940826">
        <ele>523.58000000000004</ele>
        <time>2025-04-25T11:33:11Z</time>
      </trkpt>
      <trkpt lat="44.517460959032178" lon="2.692487994208932">
        <ele>524.53999999999996</ele>
        <time>2025-04-25T11:33:12Z</time>
      </trkpt>
      <trkpt lat="44.517360962927341" lon="2.692646998912096">
        <ele>525.5</ele>
        <time>2025-04-25T11:33:13Z</time>
      </trkpt>
      <trkpt lat="44.517271025106311" lon="2.692837016656995">
        <ele>526.46000000000004</ele>
        <time>2025-04-25T11:33:14Z</time>
      </trkpt>
      <trkpt lat="44.517178991809487" lon="2.693032985553145">
        <ele>527.41999999999996</ele>
        <time>2025-04-25T11:33:15Z</time>
      </trkpt>
      <trkpt lat="44.516531992703676" lon="2.694209972396493">
        <ele>530.78999999999996</ele>
        <time>2025-04-25T11:33:21Z</time>
      </trkpt>
      <trkpt lat="44.516383968293667" lon="2.694356990978122">
        <ele>531.26999999999998</ele>
        <time>2025-04-25T11:33:22Z</time>
      </trkpt>
      <trkpt lat="44.516235021874309" lon="2.694506021216512">
        <ele>531.75</ele>
        <time>2025-04-25T11:33:23Z</time>
      </trkpt>
      <trkpt lat="44.515283005312085" lon="2.695171041414142">
        <ele>534.63</ele>
        <time>2025-04-25T11:33:29Z</time>
      </trkpt>
      <trkpt lat="44.51514302752912" lon="2.69519099034369">
        <ele>535.11000000000001</ele>
        <time>2025-04-25T11:33:30Z</time>
      </trkpt>
      <trkpt lat="44.51499399729073" lon="2.695108009502292">
        <ele>536.07000000000005</ele>
        <time>2025-04-25T11:33:31Z</time>
      </trkpt>
      <trkpt lat="44.514868017286062" lon="2.694988986477256">
        <ele>536.54999999999995</ele>
        <time>2025-04-25T11:33:32Z</time>
      </trkpt>
      <trkpt lat="44.514739019796252" lon="2.694840962067246">
        <ele>537.02999999999997</ele>
        <time>2025-04-25T11:33:33Z</time>
      </trkpt>
      <trkpt lat="44.514600969851017" lon="2.694682963192463">
        <ele>537.50999999999999</ele>
        <time>2025-04-25T11:33:34Z</time>
      </trkpt>
      <trkpt lat="44.5144550409168" lon="2.694529993459582">
        <ele>537.99000000000001</ele>
        <time>2025-04-25T11:33:35Z</time>
      </trkpt>
      <trkpt lat="44.514294024556875" lon="2.694380963221192">
        <ele>537.99000000000001</ele>
        <time>2025-04-25T11:33:36Z</time>
      </trkpt>
      <trkpt lat="44.514119010418653" lon="2.694258000701666">
        <ele>538.48000000000002</ele>
        <time>2025-04-25T11:33:37Z</time>
      </trkpt>
      <trkpt lat="44.512010039761662" lon="2.69304296001792">
        <ele>544.24000000000001</ele>
        <time>2025-04-25T11:33:48Z</time>
      </trkpt>
      <trkpt lat="44.511837959289551" lon="2.692958973348141">
        <ele>544.72000000000003</ele>
        <time>2025-04-25T11:33:49Z</time>
      </trkpt>
      <trkpt lat="44.511657999828458" lon="2.692958973348141">
        <ele>545.20000000000005</ele>
        <time>2025-04-25T11:33:50Z</time>
      </trkpt>
      <trkpt lat="44.511466976255178" lon="2.692958973348141">
        <ele>546.16999999999996</ele>
        <time>2025-04-25T11:33:51Z</time>
      </trkpt>
      <trkpt lat="44.51071604155004" lon="2.69295696169138">
        <ele>550.00999999999999</ele>
        <time>2025-04-25T11:33:55Z</time>
      </trkpt>
      <trkpt lat="44.510551001876593" lon="2.692883033305407">
        <ele>550.97000000000003</ele>
        <time>2025-04-25T11:33:56Z</time>
      </trkpt>
      <trkpt lat="44.510190999135375" lon="2.692723022773862">
        <ele>552.40999999999997</ele>
        <time>2025-04-25T11:33:58Z</time>
      </trkpt>
      <trkpt lat="44.509635027498007" lon="2.692446000874043">
        <ele>554.82000000000005</ele>
        <time>2025-04-25T11:34:01Z</time>
      </trkpt>
      <trkpt lat="44.509464958682656" lon="2.692328989505768">
        <ele>555.77999999999997</ele>
        <time>2025-04-25T11:34:02Z</time>
      </trkpt>
      <trkpt lat="44.509312994778156" lon="2.692176019772887">
        <ele>556.25999999999999</ele>
        <time>2025-04-25T11:34:03Z</time>
      </trkpt>
      <trkpt lat="44.509168993681669" lon="2.692007040604949">
        <ele>556.74000000000001</ele>
        <time>2025-04-25T11:34:04Z</time>
      </trkpt>
      <trkpt lat="44.509029015898705" lon="2.691842000931501">
        <ele>556.74000000000001</ele>
        <time>2025-04-25T11:34:05Z</time>
      </trkpt>
      <trkpt lat="44.508895995095372" lon="2.691702023148537">
        <ele>557.22000000000003</ele>
        <time>2025-04-25T11:34:06Z</time>
      </trkpt>
      <trkpt lat="44.508745037019253" lon="2.691620970144868">
        <ele>557.22000000000003</ele>
        <time>2025-04-25T11:34:07Z</time>
      </trkpt>
      <trkpt lat="44.508575974032283" lon="2.691540000960231">
        <ele>557.70000000000005</ele>
        <time>2025-04-25T11:34:08Z</time>
      </trkpt>
      <trkpt lat="44.508388973772526" lon="2.691507982090116">
        <ele>557.70000000000005</ele>
        <time>2025-04-25T11:34:09Z</time>
      </trkpt>
      <trkpt lat="44.50803198851645" lon="2.691448973491788">
        <ele>558.17999999999995</ele>
        <time>2025-04-25T11:34:11Z</time>
      </trkpt>
      <trkpt lat="44.507863009348512" lon="2.691462971270084">
        <ele>558.65999999999997</ele>
        <time>2025-04-25T11:34:12Z</time>
      </trkpt>
      <trkpt lat="44.507701992988586" lon="2.691509993746877">
        <ele>559.13999999999999</ele>
        <time>2025-04-25T11:34:13Z</time>
      </trkpt>
      <trkpt lat="44.507535025477409" lon="2.691575959324837">
        <ele>559.62</ele>
        <time>2025-04-25T11:34:14Z</time>
      </trkpt>
      <trkpt lat="44.507377026602626" lon="2.691673021763563">
        <ele>559.62</ele>
        <time>2025-04-25T11:34:15Z</time>
      </trkpt>
      <trkpt lat="44.50721500441432" lon="2.691772012040019">
        <ele>560.11000000000001</ele>
        <time>2025-04-25T11:34:16Z</time>
      </trkpt>
      <trkpt lat="44.507054993882775" lon="2.691898997873068">
        <ele>560.59000000000003</ele>
        <time>2025-04-25T11:34:17Z</time>
      </trkpt>
      <trkpt lat="44.506890038028359" lon="2.6920320186764">
        <ele>561.07000000000005</ele>
        <time>2025-04-25T11:34:18Z</time>
      </trkpt>
      <trkpt lat="44.505813969299197" lon="2.69273903220892">
        <ele>563.95000000000005</ele>
        <time>2025-04-25T11:34:24Z</time>
      </trkpt>
      <trkpt lat="44.505633004009724" lon="2.692801980301738">
        <ele>563.95000000000005</ele>
        <time>2025-04-25T11:34:25Z</time>
      </trkpt>
      <trkpt lat="44.505461007356644" lon="2.69282603636384">
        <ele>563.95000000000005</ele>
        <time>2025-04-25T11:34:26Z</time>
      </trkpt>
      <trkpt lat="44.5052819699049" lon="2.692816983908415">
        <ele>563.95000000000005</ele>
        <time>2025-04-25T11:34:27Z</time>
      </trkpt>
      <trkpt lat="44.505099998787045" lon="2.692807009443641">
        <ele>563.95000000000005</ele>
        <time>2025-04-25T11:34:28Z</time>
      </trkpt>
      <trkpt lat="44.504750976338983" lon="2.692787982523441">
        <ele>563.95000000000005</ele>
        <time>2025-04-25T11:34:30Z</time>
      </trkpt>
      <trkpt lat="44.504597000777721" lon="2.692817989736795">
        <ele>564.42999999999995</ele>
        <time>2025-04-25T11:34:31Z</time>
      </trkpt>
      <trkpt lat="44.50446599163115" lon="2.69289099611342">
        <ele>564.42999999999995</ele>
        <time>2025-04-25T11:34:32Z</time>
      </trkpt>
      <trkpt lat="44.50433699414134" lon="2.692990992218256">
        <ele>564.90999999999997</ele>
        <time>2025-04-25T11:34:33Z</time>
      </trkpt>
      <trkpt lat="44.504201961681247" lon="2.693097023293376">
        <ele>565.87</ele>
        <time>2025-04-25T11:34:34Z</time>
      </trkpt>
      <trkpt lat="44.502966972067952" lon="2.694129003211856">
        <ele>569.72000000000003</ele>
        <time>2025-04-25T11:34:42Z</time>
      </trkpt>
      <trkpt lat="44.502864964306355" lon="2.694303011521697">
        <ele>570.20000000000005</ele>
        <time>2025-04-25T11:34:43Z</time>
      </trkpt>
      <trkpt lat="44.50276798568666" lon="2.694479031488299">
        <ele>570.67999999999995</ele>
        <time>2025-04-25T11:34:44Z</time>
      </trkpt>
      <trkpt lat="44.502686010673642" lon="2.694672988727689">
        <ele>570.67999999999995</ele>
        <time>2025-04-25T11:34:45Z</time>
      </trkpt>
      <trkpt lat="44.502611998468637" lon="2.694904999807477">
        <ele>570.67999999999995</ele>
        <time>2025-04-25T11:34:46Z</time>
      </trkpt>
      <trkpt lat="44.502194998785853" lon="2.696927972137928">
        <ele>568.27999999999997</ele>
        <time>2025-04-25T11:34:53Z</time>
      </trkpt>
      <trkpt lat="44.502121992409229" lon="2.697235001251102">
        <ele>567.32000000000005</ele>
        <time>2025-04-25T11:34:54Z</time>
      </trkpt>
      <trkpt lat="44.501675991341472" lon="2.698512990027666">
        <ele>564.42999999999995</ele>
        <time>2025-04-25T11:34:59Z</time>
      </trkpt>
      <trkpt lat="44.501582030206919" lon="2.698709964752197">
        <ele>563.95000000000005</ele>
        <time>2025-04-25T11:35:00Z</time>
      </trkpt>
      <trkpt lat="44.501438029110432" lon="2.698879027739167">
        <ele>563.95000000000005</ele>
        <time>2025-04-25T11:35:01Z</time>
      </trkpt>
      <trkpt lat="44.501297967508435" lon="2.699052030220628">
        <ele>563.47000000000003</ele>
        <time>2025-04-25T11:35:02Z</time>
      </trkpt>
      <trkpt lat="44.501157989725471" lon="2.699226960539818">
        <ele>563.47000000000003</ele>
        <time>2025-04-25T11:35:03Z</time>
      </trkpt>
      <trkpt lat="44.499906990677118" lon="2.700531017035246">
        <ele>565.87</ele>
        <time>2025-04-25T11:35:11Z</time>
      </trkpt>
      <trkpt lat="44.499450009316206" lon="2.700971988961101">
        <ele>567.79999999999995</ele>
        <time>2025-04-25T11:35:14Z</time>
      </trkpt>
      <trkpt lat="44.49930801987648" lon="2.701149014756084">
        <ele>568.75999999999999</ele>
        <time>2025-04-25T11:35:15Z</time>
      </trkpt>
      <trkpt lat="44.498413000255823" lon="2.702723974362016">
        <ele>572.60000000000002</ele>
        <time>2025-04-25T11:35:22Z</time>
      </trkpt>
      <trkpt lat="44.496927978470922" lon="2.705148020759225">
        <ele>584.13999999999999</ele>
        <time>2025-04-25T11:35:33Z</time>
      </trkpt>
      <trkpt lat="44.496488012373447" lon="2.705770041793585">
        <ele>586.53999999999996</ele>
        <time>2025-04-25T11:35:36Z</time>
      </trkpt>
      <trkpt lat="44.496337976306677" lon="2.705940026789904">
        <ele>587.5</ele>
        <time>2025-04-25T11:35:37Z</time>
      </trkpt>
      <trkpt lat="44.496167991310358" lon="2.706098025664687">
        <ele>587.98000000000002</ele>
        <time>2025-04-25T11:35:38Z</time>
      </trkpt>
      <trkpt lat="44.494236968457699" lon="2.707444997504354">
        <ele>588.46000000000004</ele>
        <time>2025-04-25T11:35:48Z</time>
      </trkpt>
      <trkpt lat="44.492219025269151" lon="2.708549983799458">
        <ele>579.80999999999995</ele>
        <time>2025-04-25T11:35:59Z</time>
      </trkpt>
      <trkpt lat="44.491891963407397" lon="2.708781994879246">
        <ele>577.88999999999999</ele>
        <time>2025-04-25T11:36:01Z</time>
      </trkpt>
      <trkpt lat="44.49174796231091" lon="2.708933036774397">
        <ele>576.92999999999995</ele>
        <time>2025-04-25T11:36:02Z</time>
      </trkpt>
      <trkpt lat="44.491609996184707" lon="2.709119031205773">
        <ele>576.45000000000005</ele>
        <time>2025-04-25T11:36:03Z</time>
      </trkpt>
      <trkpt lat="44.490490006282926" lon="2.710841009393334">
        <ele>575.49000000000001</ele>
        <time>2025-04-25T11:36:11Z</time>
      </trkpt>
      <trkpt lat="44.490337958559394" lon="2.71098299883306">
        <ele>575.49000000000001</ele>
        <time>2025-04-25T11:36:12Z</time>
      </trkpt>
      <trkpt lat="44.490193035453558" lon="2.711096992716193">
        <ele>575.00999999999999</ele>
        <time>2025-04-25T11:36:13Z</time>
      </trkpt>
      <trkpt lat="44.490029001608491" lon="2.711159018799663">
        <ele>575.00999999999999</ele>
        <time>2025-04-25T11:36:14Z</time>
      </trkpt>
      <trkpt lat="44.488568035885692" lon="2.711697975173593">
        <ele>573.08000000000004</ele>
        <time>2025-04-25T11:36:22Z</time>
      </trkpt>
      <trkpt lat="44.487274959683418" lon="2.712278002873063">
        <ele>571.63999999999999</ele>
        <time>2025-04-25T11:36:29Z</time>
      </trkpt>
      <trkpt lat="44.487092988565564" lon="2.71231203339994">
        <ele>571.15999999999997</ele>
        <time>2025-04-25T11:36:30Z</time>
      </trkpt>
      <trkpt lat="44.486904982477427" lon="2.712342040613294">
        <ele>570.67999999999995</ele>
        <time>2025-04-25T11:36:31Z</time>
      </trkpt>
      <trkpt lat="44.486304000020027" lon="2.712399959564209">
        <ele>569.24000000000001</ele>
        <time>2025-04-25T11:36:34Z</time>
      </trkpt>
      <trkpt lat="44.484900031238794" lon="2.713038995862007">
        <ele>564.42999999999995</ele>
        <time>2025-04-25T11:36:42Z</time>
      </trkpt>
      <trkpt lat="44.48338801972568" lon="2.714371969923377">
        <ele>554.34000000000003</ele>
        <time>2025-04-25T11:36:51Z</time>
      </trkpt>
      <trkpt lat="44.48323798365891" lon="2.714522005990148">
        <ele>553.38</ele>
        <time>2025-04-25T11:36:52Z</time>
      </trkpt>
      <trkpt lat="44.483089037239552" lon="2.714646980166435">
        <ele>552.40999999999997</ele>
        <time>2025-04-25T11:36:53Z</time>
      </trkpt>
      <trkpt lat="44.482925003394485" lon="2.714713029563427">
        <ele>551.92999999999995</ele>
        <time>2025-04-25T11:36:54Z</time>
      </trkpt>
      <trkpt lat="44.482761975377798" lon="2.714778995141387">
        <ele>550.97000000000003</ele>
        <time>2025-04-25T11:36:55Z</time>
      </trkpt>
      <trkpt lat="44.482600959017873" lon="2.714844038709998">
        <ele>550.97000000000003</ele>
        <time>2025-04-25T11:36:56Z</time>
      </trkpt>
      <trkpt lat="44.480714024975896" lon="2.715549040585756">
        <ele>544.24000000000001</ele>
        <time>2025-04-25T11:37:07Z</time>
      </trkpt>
      <trkpt lat="44.480382017791271" lon="2.715655993670225">
        <ele>543.27999999999997</ele>
        <time>2025-04-25T11:37:09Z</time>
      </trkpt>
      <trkpt lat="44.480218989774585" lon="2.715713996440172">
        <ele>542.79999999999995</ele>
        <time>2025-04-25T11:37:10Z</time>
      </trkpt>
      <trkpt lat="44.480069959536195" lon="2.715834025293589">
        <ele>542.32000000000005</ele>
        <time>2025-04-25T11:37:11Z</time>
      </trkpt>
      <trkpt lat="44.479322964325547" lon="2.716431990265846">
        <ele>542.79999999999995</ele>
        <time>2025-04-25T11:37:16Z</time>
      </trkpt>
      <trkpt lat="44.479169994592667" lon="2.716533998027444">
        <ele>542.79999999999995</ele>
        <time>2025-04-25T11:37:17Z</time>
      </trkpt>
      <trkpt lat="44.47754398919642" lon="2.717552985996008">
        <ele>547.61000000000001</ele>
        <time>2025-04-25T11:37:27Z</time>
      </trkpt>
      <trkpt lat="44.476546961814165" lon="2.718239966779947">
        <ele>549.04999999999995</ele>
        <time>2025-04-25T11:37:35Z</time>
      </trkpt>
      <trkpt lat="44.475840032100677" lon="2.718796022236347">
        <ele>548.09000000000003</ele>
        <time>2025-04-25T11:37:42Z</time>
      </trkpt>
      <trkpt lat="44.475732995197177" lon="2.718840027227998">
        <ele>547.61000000000001</ele>
        <time>2025-04-25T11:37:43Z</time>
      </trkpt>
      <trkpt lat="44.47492397390306" lon="2.71905804052949">
        <ele>546.16999999999996</ele>
        <time>2025-04-25T11:37:50Z</time>
      </trkpt>
      <trkpt lat="44.474229030311108" lon="2.719185026362538">
        <ele>545.69000000000005</ele>
        <time>2025-04-25T11:37:56Z</time>
      </trkpt>
      <trkpt lat="44.473991990089417" lon="2.719199024140835">
        <ele>545.20000000000005</ele>
        <time>2025-04-25T11:37:58Z</time>
      </trkpt>
      <trkpt lat="44.473279025405645" lon="2.719158958643675">
        <ele>543.75999999999999</ele>
        <time>2025-04-25T11:38:05Z</time>
      </trkpt>
      <trkpt lat="44.47322404012084" lon="2.719128029420972">
        <ele>543.75999999999999</ele>
        <time>2025-04-25T11:38:06Z</time>
      </trkpt>
      <trkpt lat="44.473191015422344" lon="2.719109002500773">
        <ele>543.75999999999999</ele>
        <time>2025-04-25T11:38:07Z</time>
      </trkpt>
      <trkpt lat="44.473169976845384" lon="2.719097016379237">
        <ele>543.75999999999999</ele>
        <time>2025-04-25T11:38:08Z</time>
      </trkpt>
      <trkpt lat="44.473144998773932" lon="2.71908201277256">
        <ele>543.75999999999999</ele>
        <time>2025-04-25T11:38:09Z</time>
      </trkpt>
      <trkpt lat="44.473100993782282" lon="2.719139009714127">
        <ele>543.75999999999999</ele>
        <time>2025-04-25T11:38:10Z</time>
      </trkpt>
      <trkpt lat="44.473072998225689" lon="2.719204975292087">
        <ele>543.27999999999997</ele>
        <time>2025-04-25T11:38:11Z</time>
      </trkpt>
      <trkpt lat="44.473045002669096" lon="2.719270018860698">
        <ele>543.27999999999997</ele>
        <time>2025-04-25T11:38:12Z</time>
      </trkpt>
      <trkpt lat="44.473016001284122" lon="2.719336990267038">
        <ele>542.79999999999995</ele>
        <time>2025-04-25T11:38:13Z</time>
      </trkpt>
      <trkpt lat="44.472985994070768" lon="2.719409996643663">
        <ele>542.79999999999995</ele>
        <time>2025-04-25T11:38:14Z</time>
      </trkpt>
      <trkpt lat="44.472956992685795" lon="2.719480991363525">
        <ele>542.79999999999995</ele>
        <time>2025-04-25T11:38:15Z</time>
      </trkpt>
      <trkpt lat="44.472919022664428" lon="2.719563972204924">
        <ele>542.79999999999995</ele>
        <time>2025-04-25T11:38:16Z</time>
      </trkpt>
      <trkpt lat="44.472878035157919" lon="2.719652988016605">
        <ele>543.27999999999997</ele>
        <time>2025-04-25T11:38:17Z</time>
      </trkpt>
      <trkpt lat="44.472831012681127" lon="2.719753989949822">
        <ele>543.27999999999997</ele>
        <time>2025-04-25T11:38:18Z</time>
      </trkpt>
      <trkpt lat="44.472447037696838" lon="2.720610033720732">
        <ele>545.20000000000005</ele>
        <time>2025-04-25T11:38:27Z</time>
      </trkpt>
      <trkpt lat="44.47197899222374" lon="2.721604965627194">
        <ele>547.61000000000001</ele>
        <time>2025-04-25T11:38:39Z</time>
      </trkpt>
      <trkpt lat="44.471942028030753" lon="2.721679983660579">
        <ele>548.09000000000003</ele>
        <time>2025-04-25T11:38:40Z</time>
      </trkpt>
      <trkpt lat="44.471630975604057" lon="2.72232698276639">
        <ele>549.04999999999995</ele>
        <time>2025-04-25T11:38:48Z</time>
      </trkpt>
      <trkpt lat="44.471586970612407" lon="2.722406024113298">
        <ele>549.04999999999995</ele>
        <time>2025-04-25T11:38:49Z</time>
      </trkpt>
      <trkpt lat="44.471543971449137" lon="2.722482969984412">
        <ele>549.04999999999995</ele>
        <time>2025-04-25T11:38:50Z</time>
      </trkpt>
      <trkpt lat="44.471498038619757" lon="2.722549019381404">
        <ele>549.04999999999995</ele>
        <time>2025-04-25T11:38:51Z</time>
      </trkpt>
      <trkpt lat="44.471451016142964" lon="2.722596041858196">
        <ele>549.52999999999997</ele>
        <time>2025-04-25T11:38:52Z</time>
      </trkpt>
      <trkpt lat="44.471409022808075" lon="2.722638035193086">
        <ele>549.52999999999997</ele>
        <time>2025-04-25T11:38:53Z</time>
      </trkpt>
      <trkpt lat="44.471352025866508" lon="2.722662007436156">
        <ele>549.52999999999997</ele>
        <time>2025-04-25T11:38:54Z</time>
      </trkpt>
      <trkpt lat="44.471296034753323" lon="2.722669970244169">
        <ele>549.52999999999997</ele>
        <time>2025-04-25T11:38:55Z</time>
      </trkpt>
      <trkpt lat="44.471213975921273" lon="2.722644992172718">
        <ele>549.52999999999997</ele>
        <time>2025-04-25T11:38:56Z</time>
      </trkpt>
      <trkpt lat="44.47116301394999" lon="2.722583971917629">
        <ele>549.52999999999997</ele>
        <time>2025-04-25T11:38:57Z</time>
      </trkpt>
      <trkpt lat="44.471109034493566" lon="2.722518006339669">
        <ele>549.52999999999997</ele>
        <time>2025-04-25T11:38:58Z</time>
      </trkpt>
      <trkpt lat="44.471062012016773" lon="2.722460003569722">
        <ele>549.04999999999995</ele>
        <time>2025-04-25T11:38:59Z</time>
      </trkpt>
      <trkpt lat="44.471010966226459" lon="2.722406024113298">
        <ele>548.57000000000005</ele>
        <time>2025-04-25T11:39:00Z</time>
      </trkpt>
      <trkpt lat="44.470779960975051" lon="2.722066976130009">
        <ele>546.64999999999998</ele>
        <time>2025-04-25T11:39:05Z</time>
      </trkpt>
      <trkpt lat="44.47073201648891" lon="2.721995981410146">
        <ele>546.64999999999998</ele>
        <time>2025-04-25T11:39:06Z</time>
      </trkpt>
      <trkpt lat="44.470685999840498" lon="2.721926998347044">
        <ele>546.64999999999998</ele>
        <time>2025-04-25T11:39:07Z</time>
      </trkpt>
      <trkpt lat="44.470637971535325" lon="2.721857009455562">
        <ele>546.64999999999998</ele>
        <time>2025-04-25T11:39:08Z</time>
      </trkpt>
      <trkpt lat="44.470589021220803" lon="2.721784003078938">
        <ele>546.64999999999998</ele>
        <time>2025-04-25T11:39:09Z</time>
      </trkpt>
      <trkpt lat="44.470347035676241" lon="2.721426011994481">
        <ele>546.16999999999996</ele>
        <time>2025-04-25T11:39:14Z</time>
      </trkpt>
      <trkpt lat="44.47030202485621" lon="2.72136096842587">
        <ele>545.69000000000005</ele>
        <time>2025-04-25T11:39:15Z</time>
      </trkpt>
      <trkpt lat="44.469943027943373" lon="2.720824023708701">
        <ele>543.27999999999997</ele>
        <time>2025-04-25T11:39:23Z</time>
      </trkpt>
      <trkpt lat="44.469867004081607" lon="2.720703994855285">
        <ele>542.79999999999995</ele>
        <time>2025-04-25T11:39:25Z</time>
      </trkpt>
      <trkpt lat="44.469673968851566" lon="2.720407024025917">
        <ele>542.32000000000005</ele>
        <time>2025-04-25T11:39:32Z</time>
      </trkpt>
      <trkpt lat="44.46966097690165" lon="2.720384979620576">
        <ele>542.32000000000005</ele>
        <time>2025-04-25T11:39:33Z</time>
      </trkpt>
      <trkpt lat="44.469632981345057" lon="2.720342986285687">
        <ele>543.27999999999997</ele>
        <time>2025-04-25T11:39:35Z</time>
      </trkpt>
      <trkpt lat="44.469553017988801" lon="2.720485981553793">
        <ele>543.75999999999999</ele>
        <time>2025-04-25T11:39:37Z</time>
      </trkpt>
      <trkpt lat="44.469425026327372" lon="2.720716986805201">
        <ele>543.27999999999997</ele>
        <time>2025-04-25T11:39:42Z</time>
      </trkpt>
      <trkpt lat="44.469394013285637" lon="2.720767026767135">
        <ele>543.27999999999997</ele>
        <time>2025-04-25T11:39:43Z</time>
      </trkpt>
      <trkpt lat="44.469365011900663" lon="2.720814971253276">
        <ele>542.79999999999995</ele>
        <time>2025-04-25T11:39:44Z</time>
      </trkpt>
      <trkpt lat="44.469286976382136" lon="2.720942962914705">
        <ele>541.84000000000003</ele>
        <time>2025-04-25T11:39:49Z</time>
      </trkpt>
      <trkpt lat="44.469279013574123" lon="2.72099400870502">
        <ele>541.84000000000003</ele>
        <time>2025-04-25T11:39:50Z</time>
      </trkpt>
      <trkpt lat="44.469134006649256" lon="2.721675960347056">
        <ele>537.50999999999999</ele>
        <time>2025-04-25T11:39:59Z</time>
      </trkpt>
      <trkpt lat="44.469025041908026" lon="2.721942001953721">
        <ele>537.02999999999997</ele>
        <time>2025-04-25T11:40:03Z</time>
      </trkpt>
      <trkpt lat="44.468998974189162" lon="2.722006961703301">
        <ele>537.02999999999997</ele>
        <time>2025-04-25T11:40:04Z</time>
      </trkpt>
      <trkpt lat="44.468968966975808" lon="2.722075022757053">
        <ele>536.54999999999995</ele>
        <time>2025-04-25T11:40:05Z</time>
      </trkpt>
      <trkpt lat="44.468901995569468" lon="2.722317008301616">
        <ele>537.02999999999997</ele>
        <time>2025-04-25T11:40:08Z</time>
      </trkpt>
      <trkpt lat="44.468901995569468" lon="2.722410969436169">
        <ele>537.02999999999997</ele>
        <time>2025-04-25T11:40:09Z</time>
      </trkpt>
      <trkpt lat="44.468901995569468" lon="2.722484981641173">
        <ele>537.50999999999999</ele>
        <time>2025-04-25T11:40:10Z</time>
      </trkpt>
      <trkpt lat="44.468943988904357" lon="2.722596963867545">
        <ele>537.50999999999999</ele>
        <time>2025-04-25T11:40:11Z</time>
      </trkpt>
      <trkpt lat="44.468975001946092" lon="2.722677011042833">
        <ele>537.50999999999999</ele>
        <time>2025-04-25T11:40:12Z</time>
      </trkpt>
      <trkpt lat="44.469006014987826" lon="2.722758986055851">
        <ele>537.99000000000001</ele>
        <time>2025-04-25T11:40:13Z</time>
      </trkpt>
      <trkpt lat="44.46903602220118" lon="2.722837021574378">
        <ele>538.48000000000002</ele>
        <time>2025-04-25T11:40:14Z</time>
      </trkpt>
      <trkpt lat="44.469066029414535" lon="2.722913967445493">
        <ele>539.44000000000005</ele>
        <time>2025-04-25T11:40:15Z</time>
      </trkpt>
      <trkpt lat="44.469092013314366" lon="2.722983034327626">
        <ele>539.91999999999996</ele>
        <time>2025-04-25T11:40:16Z</time>
      </trkpt>
      <trkpt lat="44.469142975285649" lon="2.723116977140307">
        <ele>540.88</ele>
        <time>2025-04-25T11:40:18Z</time>
      </trkpt>
      <trkpt lat="44.469130989164114" lon="2.723305989056826">
        <ele>540.88</ele>
        <time>2025-04-25T11:40:19Z</time>
      </trkpt>
      <trkpt lat="44.469094024971128" lon="2.723373966291547">
        <ele>541.36000000000001</ele>
        <time>2025-04-25T11:40:20Z</time>
      </trkpt>
      <trkpt lat="44.469052031636238" lon="2.723450995981693">
        <ele>541.36000000000001</ele>
        <time>2025-04-25T11:40:21Z</time>
      </trkpt>
      <trkpt lat="44.469021018594503" lon="2.723558032885194">
        <ele>541.36000000000001</ele>
        <time>2025-04-25T11:40:22Z</time>
      </trkpt>
      <trkpt lat="44.46899302303791" lon="2.72365702316165">
        <ele>540.39999999999998</ele>
        <time>2025-04-25T11:40:23Z</time>
      </trkpt>
      <trkpt lat="44.468963015824556" lon="2.723762970417738">
        <ele>539.91999999999996</ele>
        <time>2025-04-25T11:40:24Z</time>
      </trkpt>
      <trkpt lat="44.468642994761467" lon="2.72520499303937">
        <ele>537.02999999999997</ele>
        <time>2025-04-25T11:40:36Z</time>
      </trkpt>
      <trkpt lat="44.468601001426578" lon="2.725359974429011">
        <ele>536.54999999999995</ele>
        <time>2025-04-25T11:40:37Z</time>
      </trkpt>
      <trkpt lat="44.468536963686347" lon="2.725411020219326">
        <ele>535.59000000000003</ele>
        <time>2025-04-25T11:40:38Z</time>
      </trkpt>
      <trkpt lat="44.468458006158471" lon="2.725473968312144">
        <ele>535.11000000000001</ele>
        <time>2025-04-25T11:40:39Z</time>
      </trkpt>
      <trkpt lat="44.468378964811563" lon="2.725535994395614">
        <ele>534.63</ele>
        <time>2025-04-25T11:40:40Z</time>
      </trkpt>
      <trkpt lat="44.468162041157484" lon="2.725707991048694">
        <ele>531.75</ele>
        <time>2025-04-25T11:40:46Z</time>
      </trkpt>
      <trkpt lat="44.468141002580523" lon="2.725725006312132">
        <ele>531.26999999999998</ele>
        <time>2025-04-25T11:40:51Z</time>
      </trkpt>
      <trkpt lat="44.468074031174183" lon="2.725713020190597">
        <ele>531.26999999999998</ele>
        <time>2025-04-25T11:40:52Z</time>
      </trkpt>
      <trkpt lat="44.468065984547138" lon="2.725673038512468">
        <ele>530.78999999999996</ele>
        <time>2025-04-25T11:40:53Z</time>
      </trkpt>
      <trkpt lat="44.468051986768842" lon="2.725611012428999">
        <ele>530.29999999999995</ele>
        <time>2025-04-25T11:40:54Z</time>
      </trkpt>
      <trkpt lat="44.468035977333784" lon="2.725537000223994">
        <ele>530.29999999999995</ele>
        <time>2025-04-25T11:40:55Z</time>
      </trkpt>
      <trkpt lat="44.468003958463669" lon="2.725385958328843">
        <ele>530.29999999999995</ele>
        <time>2025-04-25T11:41:02Z</time>
      </trkpt>
      <trkpt lat="44.468003958463669" lon="2.725385958328843">
        <ele>530.29999999999995</ele>
        <time>2025-04-25T11:41:51Z</time>
      </trkpt>
      <trkpt lat="44.468003958463669" lon="2.725385958328843">
        <ele>530.78999999999996</ele>
        <time>2025-04-25T11:42:42Z</time>
      </trkpt>
      <trkpt lat="44.468003958463669" lon="2.725385958328843">
        <ele>531.26999999999998</ele>
        <time>2025-04-25T11:43:15Z</time>
      </trkpt>
      <trkpt lat="44.468003958463669" lon="2.725385958328843">
        <ele>531.75</ele>
        <time>2025-04-25T11:44:09Z</time>
      </trkpt>
      <trkpt lat="44.468003958463669" lon="2.725385958328843">
        <ele>532.71000000000004</ele>
        <time>2025-04-25T11:45:06Z</time>
      </trkpt>
      <trkpt lat="44.467990966513753" lon="2.725328961387277">
        <ele>532.23000000000002</ele>
        <time>2025-04-25T11:45:47Z</time>
      </trkpt>
      <trkpt lat="44.467907985672355" lon="2.724944986402988">
        <ele>532.23000000000002</ele>
        <time>2025-04-25T11:45:53Z</time>
      </trkpt>
      <trkpt lat="44.467905974015594" lon="2.724936017766595">
        <ele>532.71000000000004</ele>
        <time>2025-04-25T11:45:54Z</time>
      </trkpt>
      <trkpt lat="44.467907985672355" lon="2.724943980574608">
        <ele>532.71000000000004</ele>
        <time>2025-04-25T11:45:55Z</time>
      </trkpt>
      <trkpt lat="44.467911003157496" lon="2.724959990009666">
        <ele>532.71000000000004</ele>
        <time>2025-04-25T11:45:56Z</time>
      </trkpt>
      <trkpt lat="44.467911003157496" lon="2.724959990009666">
        <ele>532.71000000000004</ele>
        <time>2025-04-25T11:45:57Z</time>
      </trkpt>
      <trkpt lat="44.467917960137129" lon="2.7249910030514">
        <ele>533.19000000000005</ele>
        <time>2025-04-25T11:45:58Z</time>
      </trkpt>
      <trkpt lat="44.467923995107412" lon="2.725016986951232">
        <ele>533.19000000000005</ele>
        <time>2025-04-25T11:45:59Z</time>
      </trkpt>
      <trkpt lat="44.467933969572186" lon="2.725064009428024">
        <ele>533.19000000000005</ele>
        <time>2025-04-25T11:46:00Z</time>
      </trkpt>
      <trkpt lat="44.467947967350483" lon="2.725127963349223">
        <ele>533.19000000000005</ele>
        <time>2025-04-25T11:46:01Z</time>
      </trkpt>
      <trkpt lat="44.468086017295718" lon="2.725768005475402">
        <ele>533.66999999999996</ele>
        <time>2025-04-25T11:46:10Z</time>
      </trkpt>
      <trkpt lat="44.468082999810576" lon="2.725860038772225">
        <ele>534.14999999999998</ele>
        <time>2025-04-25T11:46:11Z</time>
      </trkpt>
      <trkpt lat="44.468075959011912" lon="2.726074028760195">
        <ele>533.66999999999996</ele>
        <time>2025-04-25T11:46:13Z</time>
      </trkpt>
      <trkpt lat="44.468014016747475" lon="2.726772995665669">
        <ele>536.07000000000005</ele>
        <time>2025-04-25T11:46:18Z</time>
      </trkpt>
      <trkpt lat="44.467762978747487" lon="2.728210994973779">
        <ele>543.75999999999999</ele>
        <time>2025-04-25T11:46:28Z</time>
      </trkpt>
      <trkpt lat="44.467707993462682" lon="2.72849396802485">
        <ele>546.64999999999998</ele>
        <time>2025-04-25T11:46:34Z</time>
      </trkpt>
      <trkpt lat="44.467707993462682" lon="2.72849396802485">
        <ele>549.52999999999997</ele>
        <time>2025-04-25T11:46:57Z</time>
      </trkpt>
      <trkpt lat="44.467695001512766" lon="2.728558005765081">
        <ele>549.52999999999997</ele>
        <time>2025-04-25T11:47:05Z</time>
      </trkpt>
      <trkpt lat="44.467678992077708" lon="2.72864299826324">
        <ele>550.00999999999999</ele>
        <time>2025-04-25T11:47:06Z</time>
      </trkpt>
      <trkpt lat="44.467739006504416" lon="2.728654984384775">
        <ele>550.97000000000003</ele>
        <time>2025-04-25T11:47:07Z</time>
      </trkpt>
      <trkpt lat="44.467807989567518" lon="2.728673005476594">
        <ele>551.45000000000005</ele>
        <time>2025-04-25T11:47:08Z</time>
      </trkpt>
      <trkpt lat="44.467888036742806" lon="2.728702006861568">
        <ele>550.97000000000003</ele>
        <time>2025-04-25T11:47:09Z</time>
      </trkpt>
      <trkpt lat="44.467974035069346" lon="2.728733019903302">
        <ele>550.97000000000003</ele>
        <time>2025-04-25T11:47:10Z</time>
      </trkpt>
      <trkpt lat="44.468064978718758" lon="2.728763027116656">
        <ele>550.97000000000003</ele>
        <time>2025-04-25T11:47:11Z</time>
      </trkpt>
      <trkpt lat="44.468162963166833" lon="2.72879303433001">
        <ele>550.97000000000003</ele>
        <time>2025-04-25T11:47:12Z</time>
      </trkpt>
      <trkpt lat="44.468253990635276" lon="2.728820024058223">
        <ele>550.97000000000003</ele>
        <time>2025-04-25T11:47:13Z</time>
      </trkpt>
      <trkpt lat="44.468333031982183" lon="2.728842990472913">
        <ele>551.45000000000005</ele>
        <time>2025-04-25T11:47:14Z</time>
      </trkpt>
      <trkpt lat="44.468403020873666" lon="2.728866040706635">
        <ele>551.45000000000005</ele>
        <time>2025-04-25T11:47:15Z</time>
      </trkpt>
      <trkpt lat="44.468450965359807" lon="2.728890012949705">
        <ele>551.45000000000005</ele>
        <time>2025-04-25T11:47:16Z</time>
      </trkpt>
      <trkpt lat="44.468473009765148" lon="2.72890099324286">
        <ele>551.45000000000005</ele>
        <time>2025-04-25T11:47:17Z</time>
      </trkpt>
      <trkpt lat="44.468473009765148" lon="2.72890099324286">
        <ele>551.45000000000005</ele>
        <time>2025-04-25T11:47:18Z</time>
      </trkpt>
      <trkpt lat="44.468473009765148" lon="2.72890099324286">
        <ele>551.45000000000005</ele>
        <time>2025-04-25T11:47:19Z</time>
      </trkpt>
      <trkpt lat="44.468526989221573" lon="2.728909961879253">
        <ele>551.45000000000005</ele>
        <time>2025-04-25T11:47:20Z</time>
      </trkpt>
      <trkpt lat="44.468542998656631" lon="2.728912979364395">
        <ele>551.45000000000005</ele>
        <time>2025-04-25T11:47:21Z</time>
      </trkpt>
      <trkpt lat="44.468542998656631" lon="2.728912979364395">
        <ele>551.45000000000005</ele>
        <time>2025-04-25T11:47:22Z</time>
      </trkpt>
      <trkpt lat="44.468537969514728" lon="2.729235012084246">
        <ele>557.70000000000005</ele>
        <time>2025-04-25T11:52:29Z</time>
      </trkpt>
      <trkpt lat="44.468538975343108" lon="2.729228977113962">
        <ele>557.22000000000003</ele>
        <time>2025-04-25T11:53:09Z</time>
      </trkpt>
      <trkpt lat="44.468558002263308" lon="2.729254961013794">
        <ele>553.86000000000001</ele>
        <time>2025-04-25T11:53:52Z</time>
      </trkpt>
      <trkpt lat="44.468697980046272" lon="2.729043988510966">
        <ele>559.13999999999999</ele>
        <time>2025-04-25T11:54:02Z</time>
      </trkpt>
      <trkpt lat="44.468728993088007" lon="2.728980034589768">
        <ele>560.59000000000003</ele>
        <time>2025-04-25T11:54:17Z</time>
      </trkpt>
      <trkpt lat="44.468708038330078" lon="2.728957990184426">
        <ele>560.59000000000003</ele>
        <time>2025-04-25T11:54:19Z</time>
      </trkpt>
      <trkpt lat="44.468665961176157" lon="2.72894399240613">
        <ele>560.11000000000001</ele>
        <time>2025-04-25T11:54:20Z</time>
      </trkpt>
      <trkpt lat="44.468595972284675" lon="2.72892203181982">
        <ele>559.62</ele>
        <time>2025-04-25T11:54:21Z</time>
      </trkpt>
      <trkpt lat="44.468508968129754" lon="2.728907028213143">
        <ele>558.65999999999997</ele>
        <time>2025-04-25T11:54:22Z</time>
      </trkpt>
      <trkpt lat="44.467786028981209" lon="2.728664958849549">
        <ele>554.34000000000003</ele>
        <time>2025-04-25T11:54:30Z</time>
      </trkpt>
      <trkpt lat="44.467735989019275" lon="2.728654984384775">
        <ele>553.86000000000001</ele>
        <time>2025-04-25T11:54:31Z</time>
      </trkpt>
      <trkpt lat="44.467717967927456" lon="2.728437976911664">
        <ele>553.38</ele>
        <time>2025-04-25T11:54:32Z</time>
      </trkpt>
      <trkpt lat="44.467740012332797" lon="2.728328006342053">
        <ele>552.40999999999997</ele>
        <time>2025-04-25T11:54:33Z</time>
      </trkpt>
      <trkpt lat="44.467765996232629" lon="2.728190962225199">
        <ele>551.45000000000005</ele>
        <time>2025-04-25T11:54:34Z</time>
      </trkpt>
      <trkpt lat="44.467794997617602" lon="2.728042015805841">
        <ele>550.97000000000003</ele>
        <time>2025-04-25T11:54:35Z</time>
      </trkpt>
      <trkpt lat="44.467823999002576" lon="2.727894997224212">
        <ele>550.00999999999999</ele>
        <time>2025-04-25T11:54:36Z</time>
      </trkpt>
      <trkpt lat="44.467850988730788" lon="2.727756025269628">
        <ele>549.52999999999997</ele>
        <time>2025-04-25T11:54:37Z</time>
      </trkpt>
      <trkpt lat="44.468078976497054" lon="2.725975038483739">
        <ele>546.64999999999998</ele>
        <time>2025-04-25T11:54:49Z</time>
      </trkpt>
      <trkpt lat="44.468082999810576" lon="2.725851992145181">
        <ele>546.64999999999998</ele>
        <time>2025-04-25T11:54:50Z</time>
      </trkpt>
      <trkpt lat="44.468081993982196" lon="2.725747972726822">
        <ele>547.13</ele>
        <time>2025-04-25T11:54:51Z</time>
      </trkpt>
      <trkpt lat="44.468056010082364" lon="2.725626016035676">
        <ele>546.64999999999998</ele>
        <time>2025-04-25T11:54:52Z</time>
      </trkpt>
      <trkpt lat="44.46796297095716" lon="2.725199963897467">
        <ele>545.69000000000005</ele>
        <time>2025-04-25T11:54:55Z</time>
      </trkpt>
      <trkpt lat="44.467711010947824" lon="2.723473040387034">
        <ele>539.91999999999996</ele>
        <time>2025-04-25T11:55:05Z</time>
      </trkpt>
      <trkpt lat="44.467530967667699" lon="2.722365036606789">
        <ele>534.63</ele>
        <time>2025-04-25T11:55:12Z</time>
      </trkpt>
      <trkpt lat="44.467491991817951" lon="2.722208965569735">
        <ele>534.14999999999998</ele>
        <time>2025-04-25T11:55:13Z</time>
      </trkpt>
      <trkpt lat="44.467455027624965" lon="2.722063036635518">
        <ele>533.19000000000005</ele>
        <time>2025-04-25T11:55:14Z</time>
      </trkpt>
      <trkpt lat="44.467399036511779" lon="2.721776040270925">
        <ele>531.75</ele>
        <time>2025-04-25T11:55:16Z</time>
      </trkpt>
      <trkpt lat="44.467377997934818" lon="2.721627010032535">
        <ele>530.78999999999996</ele>
        <time>2025-04-25T11:55:17Z</time>
      </trkpt>
      <trkpt lat="44.467399036511779" lon="2.721474040299654">
        <ele>530.29999999999995</ele>
        <time>2025-04-25T11:55:18Z</time>
      </trkpt>
      <trkpt lat="44.467418985441327" lon="2.721321992576122">
        <ele>529.34000000000003</ele>
        <time>2025-04-25T11:55:19Z</time>
      </trkpt>
      <trkpt lat="44.467440024018288" lon="2.721163993701339">
        <ele>528.86000000000001</ele>
        <time>2025-04-25T11:55:20Z</time>
      </trkpt>
      <trkpt lat="44.467461984604597" lon="2.721000965684652">
        <ele>528.38</ele>
        <time>2025-04-25T11:55:21Z</time>
      </trkpt>
      <trkpt lat="44.467514958232641" lon="2.720858976244927">
        <ele>527.89999999999998</ele>
        <time>2025-04-25T11:55:22Z</time>
      </trkpt>
      <trkpt lat="44.467572961002588" lon="2.720716986805201">
        <ele>526.94000000000005</ele>
        <time>2025-04-25T11:55:23Z</time>
      </trkpt>
      <trkpt lat="44.467630963772535" lon="2.720574997365475">
        <ele>526.46000000000004</ele>
        <time>2025-04-25T11:55:24Z</time>
      </trkpt>
      <trkpt lat="44.467691984027624" lon="2.720445999875665">
        <ele>525.5</ele>
        <time>2025-04-25T11:55:25Z</time>
      </trkpt>
      <trkpt lat="44.467758033424616" lon="2.720323037356138">
        <ele>525.01999999999998</ele>
        <time>2025-04-25T11:55:26Z</time>
      </trkpt>
      <trkpt lat="44.467828022316098" lon="2.720194039866328">
        <ele>523.58000000000004</ele>
        <time>2025-04-25T11:55:27Z</time>
      </trkpt>
      <trkpt lat="44.467902034521103" lon="2.720055989921093">
        <ele>522.61000000000001</ele>
        <time>2025-04-25T11:55:28Z</time>
      </trkpt>
      <trkpt lat="44.467966994270682" lon="2.719902014359832">
        <ele>521.16999999999996</ele>
        <time>2025-04-25T11:55:29Z</time>
      </trkpt>
      <trkpt lat="44.468000018969178" lon="2.719715014100075">
        <ele>520.21000000000004</ele>
        <time>2025-04-25T11:55:30Z</time>
      </trkpt>
      <trkpt lat="44.468035977333784" lon="2.719518039375544">
        <ele>519.25</ele>
        <time>2025-04-25T11:55:31Z</time>
      </trkpt>
      <trkpt lat="44.468071013689041" lon="2.71931896917522">
        <ele>517.80999999999995</ele>
        <time>2025-04-25T11:55:32Z</time>
      </trkpt>
      <trkpt lat="44.468105966225266" lon="2.71912400610745">
        <ele>516.85000000000002</ele>
        <time>2025-04-25T11:55:33Z</time>
      </trkpt>
      <trkpt lat="44.468199005350471" lon="2.718972964212298">
        <ele>515.39999999999998</ele>
        <time>2025-04-25T11:55:34Z</time>
      </trkpt>
      <trkpt lat="44.468299001455307" lon="2.718832986429334">
        <ele>514.44000000000005</ele>
        <time>2025-04-25T11:55:35Z</time>
      </trkpt>
      <trkpt lat="44.468408972024918" lon="2.718707006424666">
        <ele>513.48000000000002</ele>
        <time>2025-04-25T11:55:36Z</time>
      </trkpt>
      <trkpt lat="44.468626985326409" lon="2.718455968424678">
        <ele>511.56</ele>
        <time>2025-04-25T11:55:38Z</time>
      </trkpt>
      <trkpt lat="44.468808034434915" lon="2.71822102367878">
        <ele>509.16000000000003</ele>
        <time>2025-04-25T11:55:40Z</time>
      </trkpt>
      <trkpt lat="44.468858996406198" lon="2.718151034787297">
        <ele>508.19</ele>
        <time>2025-04-25T11:55:41Z</time>
      </trkpt>
      <trkpt lat="44.468893026933074" lon="2.718034023419023">
        <ele>507.23000000000002</ele>
        <time>2025-04-25T11:55:42Z</time>
      </trkpt>
      <trkpt lat="44.468940971419215" lon="2.717870995402336">
        <ele>505.31</ele>
        <time>2025-04-25T11:55:44Z</time>
      </trkpt>
      <trkpt lat="44.468964021652937" lon="2.71779396571219">
        <ele>504.35000000000002</ele>
        <time>2025-04-25T11:55:45Z</time>
      </trkpt>
      <trkpt lat="44.468966033309698" lon="2.71772800013423">
        <ele>503.38999999999999</ele>
        <time>2025-04-25T11:55:46Z</time>
      </trkpt>
      <trkpt lat="44.468966033309698" lon="2.717648036777973">
        <ele>502.91000000000003</ele>
        <time>2025-04-25T11:55:47Z</time>
      </trkpt>
      <trkpt lat="44.468966033309698" lon="2.717571007087827">
        <ele>502.43000000000001</ele>
        <time>2025-04-25T11:55:48Z</time>
      </trkpt>
      <trkpt lat="44.468966033309698" lon="2.717549968510866">
        <ele>501.45999999999998</ele>
        <time>2025-04-25T11:55:49Z</time>
      </trkpt>
      <trkpt lat="44.468966033309698" lon="2.717549968510866">
        <ele>500.98000000000002</ele>
        <time>2025-04-25T11:55:50Z</time>
      </trkpt>
      <trkpt lat="44.468936026096344" lon="2.717447960749269">
        <ele>500.5</ele>
        <time>2025-04-25T11:55:51Z</time>
      </trkpt>
      <trkpt lat="44.468966033309698" lon="2.717549968510866">
        <ele>500.01999999999998</ele>
        <time>2025-04-25T11:55:52Z</time>
      </trkpt>
      <trkpt lat="44.468966033309698" lon="2.717549968510866">
        <ele>500.01999999999998</ele>
        <time>2025-04-25T11:56:07Z</time>
      </trkpt>
      <trkpt lat="44.468966033309698" lon="2.717549968510866">
        <ele>499.06</ele>
        <time>2025-04-25T11:56:57Z</time>
      </trkpt>
      <trkpt lat="44.468924961984158" lon="2.717412002384663">
        <ele>499.06</ele>
        <time>2025-04-25T11:57:02Z</time>
      </trkpt>
      <trkpt lat="44.468901995569468" lon="2.717334972694516">
        <ele>499.06</ele>
        <time>2025-04-25T11:57:03Z</time>
      </trkpt>
      <trkpt lat="44.468901995569468" lon="2.717334972694516">
        <ele>499.54000000000002</ele>
        <time>2025-04-25T11:57:04Z</time>
      </trkpt>
      <trkpt lat="44.468865031376481" lon="2.717257020995021">
        <ele>499.54000000000002</ele>
        <time>2025-04-25T11:57:05Z</time>
      </trkpt>
      <trkpt lat="44.468828989192843" lon="2.717182002961636">
        <ele>499.54000000000002</ele>
        <time>2025-04-25T11:57:06Z</time>
      </trkpt>
      <trkpt lat="44.468708960339427" lon="2.716928031295538">
        <ele>498.10000000000002</ele>
        <time>2025-04-25T11:57:09Z</time>
      </trkpt>
      <trkpt lat="44.468646012246609" lon="2.716856030747294">
        <ele>497.62</ele>
        <time>2025-04-25T11:57:10Z</time>
      </trkpt>
      <trkpt lat="44.468558002263308" lon="2.716756034642458">
        <ele>497.13999999999999</ele>
        <time>2025-04-25T11:57:11Z</time>
      </trkpt>
      <trkpt lat="44.468444008380175" lon="2.716717980802059">
        <ele>496.18000000000001</ele>
        <time>2025-04-25T11:57:13Z</time>
      </trkpt>
      <trkpt lat="44.468371002003551" lon="2.716693002730608">
        <ele>495.69999999999999</ele>
        <time>2025-04-25T11:57:14Z</time>
      </trkpt>
      <trkpt lat="44.468214008957148" lon="2.716700965538621">
        <ele>495.22000000000003</ele>
        <time>2025-04-25T11:57:16Z</time>
      </trkpt>
      <trkpt lat="44.468136979267001" lon="2.716728961095214">
        <ele>495.22000000000003</ele>
        <time>2025-04-25T11:57:17Z</time>
      </trkpt>
      <trkpt lat="44.468000018969178" lon="2.716776989400387">
        <ele>494.74000000000001</ele>
        <time>2025-04-25T11:57:19Z</time>
      </trkpt>
      <trkpt lat="44.467938998714089" lon="2.716757962480187">
        <ele>494.25999999999999</ele>
        <time>2025-04-25T11:57:20Z</time>
      </trkpt>
      <trkpt lat="44.467875966802239" lon="2.71673901937902">
        <ele>494.25999999999999</ele>
        <time>2025-04-25T11:57:21Z</time>
      </trkpt>
      <trkpt lat="44.467807989567518" lon="2.716717980802059">
        <ele>493.76999999999998</ele>
        <time>2025-04-25T11:57:22Z</time>
      </trkpt>
      <trkpt lat="44.467732971534133" lon="2.716695014387369">
        <ele>493.76999999999998</ele>
        <time>2025-04-25T11:57:23Z</time>
      </trkpt>
      <trkpt lat="44.467633981257677" lon="2.716745976358652">
        <ele>493.76999999999998</ele>
        <time>2025-04-25T11:57:24Z</time>
      </trkpt>
      <trkpt lat="44.467554017901421" lon="2.716796016320586">
        <ele>493.76999999999998</ele>
        <time>2025-04-25T11:57:25Z</time>
      </trkpt>
      <trkpt lat="44.467486962676048" lon="2.716904981061816">
        <ele>493.76999999999998</ele>
        <time>2025-04-25T11:57:26Z</time>
      </trkpt>
      <trkpt lat="44.467418985441327" lon="2.71702098660171">
        <ele>494.25999999999999</ele>
        <time>2025-04-25T11:57:27Z</time>
      </trkpt>
      <trkpt lat="44.467346984893084" lon="2.717143027111888">
        <ele>494.74000000000001</ele>
        <time>2025-04-25T11:57:28Z</time>
      </trkpt>
      <trkpt lat="44.466752959415317" lon="2.718099988996983">
        <ele>498.10000000000002</ele>
        <time>2025-04-25T11:57:35Z</time>
      </trkpt>
      <trkpt lat="44.466669978573918" lon="2.718194033950567">
        <ele>499.06</ele>
        <time>2025-04-25T11:57:36Z</time>
      </trkpt>
      <trkpt lat="44.466560008004308" lon="2.718238038942218">
        <ele>500.01999999999998</ele>
        <time>2025-04-25T11:57:37Z</time>
      </trkpt>
      <trkpt lat="44.466455988585949" lon="2.718279026448727">
        <ele>501.45999999999998</ele>
        <time>2025-04-25T11:57:38Z</time>
      </trkpt>
      <trkpt lat="44.466358004137874" lon="2.718279026448727">
        <ele>502.91000000000003</ele>
        <time>2025-04-25T11:57:39Z</time>
      </trkpt>
      <trkpt lat="44.465367011725903" lon="2.718217000365257">
        <ele>515.88</ele>
        <time>2025-04-25T11:57:47Z</time>
      </trkpt>
      <trkpt lat="44.465244971215725" lon="2.718168972060084">
        <ele>516.85000000000002</ele>
        <time>2025-04-25T11:57:48Z</time>
      </trkpt>
      <trkpt lat="44.465119997039437" lon="2.718085991218686">
        <ele>517.80999999999995</ele>
        <time>2025-04-25T11:57:49Z</time>
      </trkpt>
      <trkpt lat="44.465036010369658" lon="2.717949030920863">
        <ele>519.25</ele>
        <time>2025-04-25T11:57:50Z</time>
      </trkpt>
      <trkpt lat="44.464964009821415" lon="2.71779497154057">
        <ele>520.69000000000005</ele>
        <time>2025-04-25T11:57:51Z</time>
      </trkpt>
      <trkpt lat="44.464926961809397" lon="2.717608977109194">
        <ele>522.13</ele>
        <time>2025-04-25T11:57:52Z</time>
      </trkpt>
      <trkpt lat="44.46488899178803" lon="2.717410996556282">
        <ele>523.58000000000004</ele>
        <time>2025-04-25T11:57:53Z</time>
      </trkpt>
      <trkpt lat="44.46488899178803" lon="2.717196000739932">
        <ele>525.01999999999998</ele>
        <time>2025-04-25T11:57:54Z</time>
      </trkpt>
      <trkpt lat="44.464880023151636" lon="2.716747988015413">
        <ele>527.89999999999998</ele>
        <time>2025-04-25T11:57:56Z</time>
      </trkpt>
      <trkpt lat="44.464841969311237" lon="2.71652502939105">
        <ele>529.34000000000003</ele>
        <time>2025-04-25T11:57:57Z</time>
      </trkpt>
      <trkpt lat="44.464801987633109" lon="2.716294024139643">
        <ele>530.29999999999995</ele>
        <time>2025-04-25T11:57:58Z</time>
      </trkpt>
      <trkpt lat="44.464212991297245" lon="2.714797016233206">
        <ele>535.59000000000003</ele>
        <time>2025-04-25T11:58:05Z</time>
      </trkpt>
      <trkpt lat="44.46385701186955" lon="2.714150017127395">
        <ele>537.99000000000001</ele>
        <time>2025-04-25T11:58:09Z</time>
      </trkpt>
      <trkpt lat="44.463757015764713" lon="2.714020013809204">
        <ele>538.48000000000002</ele>
        <time>2025-04-25T11:58:10Z</time>
      </trkpt>
      <trkpt lat="44.463631035760045" lon="2.713930997997522">
        <ele>538.96000000000004</ele>
        <time>2025-04-25T11:58:11Z</time>
      </trkpt>
      <trkpt lat="44.463498014956713" lon="2.713844999670982">
        <ele>539.91999999999996</ele>
        <time>2025-04-25T11:58:12Z</time>
      </trkpt>
      <trkpt lat="44.463358037173748" lon="2.713762018829584">
        <ele>540.88</ele>
        <time>2025-04-25T11:58:13Z</time>
      </trkpt>
      <trkpt lat="44.462043000385165" lon="2.712983004748821">
        <ele>547.61000000000001</ele>
        <time>2025-04-25T11:58:22Z</time>
      </trkpt>
      <trkpt lat="44.460755959153175" lon="2.711896039545536">
        <ele>543.75999999999999</ele>
        <time>2025-04-25T11:58:31Z</time>
      </trkpt>
      <trkpt lat="44.460482038557529" lon="2.711638966575265">
        <ele>542.32000000000005</ele>
        <time>2025-04-25T11:58:33Z</time>
      </trkpt>
      <trkpt lat="44.460369972512126" lon="2.711481973528862">
        <ele>541.84000000000003</ele>
        <time>2025-04-25T11:58:34Z</time>
      </trkpt>
      <trkpt lat="44.460286991670728" lon="2.711292961612344">
        <ele>541.36000000000001</ele>
        <time>2025-04-25T11:58:35Z</time>
      </trkpt>
      <trkpt lat="44.460210967808962" lon="2.711090035736561">
        <ele>540.88</ele>
        <time>2025-04-25T11:58:36Z</time>
      </trkpt>
      <trkpt lat="44.460176015272737" lon="2.710860036313534">
        <ele>540.88</ele>
        <time>2025-04-25T11:58:37Z</time>
      </trkpt>
      <trkpt lat="44.460151959210634" lon="2.710621990263462">
        <ele>541.36000000000001</ele>
        <time>2025-04-25T11:58:38Z</time>
      </trkpt>
      <trkpt lat="44.460129998624325" lon="2.710376987233758">
        <ele>541.36000000000001</ele>
        <time>2025-04-25T11:58:39Z</time>
      </trkpt>
      <trkpt lat="44.460025979205966" lon="2.709652036428452">
        <ele>542.32000000000005</ele>
        <time>2025-04-25T11:58:42Z</time>
      </trkpt>
      <trkpt lat="44.459956996142864" lon="2.709417007863522">
        <ele>542.79999999999995</ele>
        <time>2025-04-25T11:58:43Z</time>
      </trkpt>
      <trkpt lat="44.459189968183637" lon="2.707657981663942">
        <ele>549.52999999999997</ele>
        <time>2025-04-25T11:58:51Z</time>
      </trkpt>
      <trkpt lat="44.458865001797676" lon="2.707062028348446">
        <ele>554.34000000000003</ele>
        <time>2025-04-25T11:58:54Z</time>
      </trkpt>
      <trkpt lat="44.458768023177981" lon="2.706885002553463">
        <ele>555.77999999999997</ele>
        <time>2025-04-25T11:58:55Z</time>
      </trkpt>
      <trkpt lat="44.458709014579654" lon="2.706777965649962">
        <ele>556.74000000000001</ele>
        <time>2025-04-25T11:58:56Z</time>
      </trkpt>
      <trkpt lat="44.458566019311547" lon="2.706671012565494">
        <ele>558.17999999999995</ele>
        <time>2025-04-25T11:58:57Z</time>
      </trkpt>
      <trkpt lat="44.458463005721569" lon="2.706592977046967">
        <ele>559.62</ele>
        <time>2025-04-25T11:58:58Z</time>
      </trkpt>
      <trkpt lat="44.458349011838436" lon="2.706507984548807">
        <ele>560.59000000000003</ele>
        <time>2025-04-25T11:58:59Z</time>
      </trkpt>
      <trkpt lat="44.458256978541613" lon="2.706400025635958">
        <ele>561.54999999999995</ele>
        <time>2025-04-25T11:59:00Z</time>
      </trkpt>
      <trkpt lat="44.458195958286524" lon="2.706250995397568">
        <ele>562.50999999999999</ele>
        <time>2025-04-25T11:59:01Z</time>
      </trkpt>
      <trkpt lat="44.458128986880183" lon="2.706088973209262">
        <ele>562.99000000000001</ele>
        <time>2025-04-25T11:59:02Z</time>
      </trkpt>
      <trkpt lat="44.458058997988701" lon="2.705915970727801">
        <ele>562.99000000000001</ele>
        <time>2025-04-25T11:59:03Z</time>
      </trkpt>
      <trkpt lat="44.457982974126935" lon="2.705732993781567">
        <ele>563.47000000000003</ele>
        <time>2025-04-25T11:59:04Z</time>
      </trkpt>
      <trkpt lat="44.457898987457156" lon="2.705572983250022">
        <ele>563.47000000000003</ele>
        <time>2025-04-25T11:59:05Z</time>
      </trkpt>
      <trkpt lat="44.457793962210417" lon="2.705442979931831">
        <ele>563.95000000000005</ele>
        <time>2025-04-25T11:59:06Z</time>
      </trkpt>
      <trkpt lat="44.457688014954329" lon="2.70531096495688">
        <ele>564.42999999999995</ele>
        <time>2025-04-25T11:59:07Z</time>
      </trkpt>
      <trkpt lat="44.457576032727957" lon="2.705171993002296">
        <ele>564.90999999999997</ele>
        <time>2025-04-25T11:59:08Z</time>
      </trkpt>
      <trkpt lat="44.457464972510934" lon="2.705034026876092">
        <ele>565.38999999999999</ele>
        <time>2025-04-25T11:59:09Z</time>
      </trkpt>
      <trkpt lat="44.457385009154677" lon="2.704879967495799">
        <ele>565.87</ele>
        <time>2025-04-25T11:59:10Z</time>
      </trkpt>
      <trkpt lat="44.457344021648169" lon="2.70468601025641">
        <ele>566.83000000000004</ele>
        <time>2025-04-25T11:59:11Z</time>
      </trkpt>
      <trkpt lat="44.457321977242827" lon="2.704516025260091">
        <ele>567.32000000000005</ele>
        <time>2025-04-25T11:59:12Z</time>
      </trkpt>
      <trkpt lat="44.457371011376381" lon="2.704318966716528">
        <ele>568.27999999999997</ele>
        <time>2025-04-25T11:59:13Z</time>
      </trkpt>
      <trkpt lat="44.457424990832806" lon="2.704105982556939">
        <ele>569.24000000000001</ele>
        <time>2025-04-25T11:59:14Z</time>
      </trkpt>
      <trkpt lat="44.45747897028923" lon="2.703887969255447">
        <ele>570.20000000000005</ele>
        <time>2025-04-25T11:59:15Z</time>
      </trkpt>
      <trkpt lat="44.457504032179713" lon="2.703649001196027">
        <ele>571.15999999999997</ele>
        <time>2025-04-25T11:59:16Z</time>
      </trkpt>
      <trkpt lat="44.457522975280881" lon="2.703416990116239">
        <ele>572.12</ele>
        <time>2025-04-25T11:59:17Z</time>
      </trkpt>
      <trkpt lat="44.457507971674204" lon="2.703167041763663">
        <ele>573.08000000000004</ele>
        <time>2025-04-25T11:59:18Z</time>
      </trkpt>
      <trkpt lat="44.457479976117611" lon="2.702934024855495">
        <ele>574.03999999999996</ele>
        <time>2025-04-25T11:59:19Z</time>
      </trkpt>
      <trkpt lat="44.457267997786403" lon="2.701846975833178">
        <ele>579.33000000000004</ele>
        <time>2025-04-25T11:59:24Z</time>
      </trkpt>
      <trkpt lat="44.457215024158359" lon="2.701672967523336">
        <ele>580.28999999999996</ele>
        <time>2025-04-25T11:59:25Z</time>
      </trkpt>
      <trkpt lat="44.457139000296593" lon="2.701518991962075">
        <ele>581.25</ele>
        <time>2025-04-25T11:59:26Z</time>
      </trkpt>
      <trkpt lat="44.457072028890252" lon="2.701363004744053">
        <ele>582.22000000000003</ele>
        <time>2025-04-25T11:59:27Z</time>
      </trkpt>
      <trkpt lat="44.457022994756699" lon="2.701177010312676">
        <ele>582.70000000000005</ele>
        <time>2025-04-25T11:59:28Z</time>
      </trkpt>
      <trkpt lat="44.456974966451526" lon="2.700960002839565">
        <ele>583.17999999999995</ele>
        <time>2025-04-25T11:59:29Z</time>
      </trkpt>
      <trkpt lat="44.456971026957035" lon="2.700709970667958">
        <ele>583.17999999999995</ele>
        <time>2025-04-25T11:59:30Z</time>
      </trkpt>
      <trkpt lat="44.456971026957035" lon="2.700446024537087">
        <ele>583.17999999999995</ele>
        <time>2025-04-25T11:59:31Z</time>
      </trkpt>
      <trkpt lat="44.45698200725019" lon="2.70017403177917">
        <ele>583.17999999999995</ele>
        <time>2025-04-25T11:59:32Z</time>
      </trkpt>
      <trkpt lat="44.457028023898602" lon="2.699905978515744">
        <ele>582.70000000000005</ele>
        <time>2025-04-25T11:59:33Z</time>
      </trkpt>
      <trkpt lat="44.457075968384743" lon="2.699630968272686">
        <ele>581.73000000000002</ele>
        <time>2025-04-25T11:59:34Z</time>
      </trkpt>
      <trkpt lat="44.457614002749324" lon="2.697774963453412">
        <ele>574.52999999999997</ele>
        <time>2025-04-25T11:59:41Z</time>
      </trkpt>
      <trkpt lat="44.457751968875527" lon="2.697302978485823">
        <ele>571.63999999999999</ele>
        <time>2025-04-25T11:59:43Z</time>
      </trkpt>
      <trkpt lat="44.457760015502572" lon="2.697069039568305">
        <ele>570.67999999999995</ele>
        <time>2025-04-25T11:59:44Z</time>
      </trkpt>
      <trkpt lat="44.457735037431121" lon="2.696820013225079">
        <ele>569.24000000000001</ele>
        <time>2025-04-25T11:59:45Z</time>
      </trkpt>
      <trkpt lat="44.457681979984045" lon="2.696294970810413">
        <ele>566.83000000000004</ele>
        <time>2025-04-25T11:59:47Z</time>
      </trkpt>
      <trkpt lat="44.457658007740974" lon="2.696048961952329">
        <ele>565.38999999999999</ele>
        <time>2025-04-25T11:59:48Z</time>
      </trkpt>
      <trkpt lat="44.457707963883877" lon="2.695798007771373">
        <ele>564.42999999999995</ele>
        <time>2025-04-25T11:59:49Z</time>
      </trkpt>
      <trkpt lat="44.457764960825443" lon="2.695551998913288">
        <ele>563.47000000000003</ele>
        <time>2025-04-25T11:59:50Z</time>
      </trkpt>
      <trkpt lat="44.457844002172351" lon="2.695304984226823">
        <ele>562.50999999999999</ele>
        <time>2025-04-25T11:59:51Z</time>
      </trkpt>
      <trkpt lat="44.457921031862497" lon="2.69506199285388">
        <ele>561.07000000000005</ele>
        <time>2025-04-25T11:59:52Z</time>
      </trkpt>
      <trkpt lat="44.458046006038785" lon="2.69458900205791">
        <ele>558.65999999999997</ele>
        <time>2025-04-25T11:59:54Z</time>
      </trkpt>
      <trkpt lat="44.458052963018417" lon="2.694342993199825">
        <ele>557.70000000000005</ele>
        <time>2025-04-25T11:59:55Z</time>
      </trkpt>
      <trkpt lat="44.458027984946966" lon="2.694097990170121">
        <ele>556.25999999999999</ele>
        <time>2025-04-25T11:59:56Z</time>
      </trkpt>
      <trkpt lat="44.457975011318922" lon="2.693594992160797">
        <ele>553.86000000000001</ele>
        <time>2025-04-25T11:59:58Z</time>
      </trkpt>
      <trkpt lat="44.457966964691877" lon="2.69332098774612">
        <ele>552.40999999999997</ele>
        <time>2025-04-25T11:59:59Z</time>
      </trkpt>
      <trkpt lat="44.457989009097219" lon="2.693042038008571">
        <ele>550.97000000000003</ele>
        <time>2025-04-25T12:00:00Z</time>
      </trkpt>
      <trkpt lat="44.458081964403391" lon="2.690214989706874">
        <ele>539.91999999999996</ele>
        <time>2025-04-25T12:00:10Z</time>
      </trkpt>
      <trkpt lat="44.4580780249089" lon="2.688905987888575">
        <ele>534.63</ele>
        <time>2025-04-25T12:00:15Z</time>
      </trkpt>
      <trkpt lat="44.458114989101887" lon="2.688660984858871">
        <ele>533.66999999999996</ele>
        <time>2025-04-25T12:00:16Z</time>
      </trkpt>
      <trkpt lat="44.458151031285524" lon="2.688410030677915">
        <ele>532.71000000000004</ele>
        <time>2025-04-25T12:00:17Z</time>
      </trkpt>
      <trkpt lat="44.458220014348626" lon="2.688167039304972">
        <ele>532.23000000000002</ele>
        <time>2025-04-25T12:00:18Z</time>
      </trkpt>
      <trkpt lat="44.458291009068489" lon="2.687920024618506">
        <ele>531.75</ele>
        <time>2025-04-25T12:00:19Z</time>
      </trkpt>
      <trkpt lat="44.45878897793591" lon="2.68616896122694">
        <ele>528.38</ele>
        <time>2025-04-25T12:00:26Z</time>
      </trkpt>
      <trkpt lat="44.458806999027729" lon="2.685921024531126">
        <ele>527.89999999999998</ele>
        <time>2025-04-25T12:00:27Z</time>
      </trkpt>
      <trkpt lat="44.458791995421052" lon="2.685669986531138">
        <ele>527.41999999999996</ele>
        <time>2025-04-25T12:00:28Z</time>
      </trkpt>
      <trkpt lat="44.45876500569284" lon="2.684882003813982">
        <ele>528.38</ele>
        <time>2025-04-25T12:00:31Z</time>
      </trkpt>
      <trkpt lat="44.45878797210753" lon="2.684615962207317">
        <ele>528.86000000000001</ele>
        <time>2025-04-25T12:00:32Z</time>
      </trkpt>
      <trkpt lat="44.459104975685477" lon="2.681794026866555">
        <ele>535.59000000000003</ele>
        <time>2025-04-25T12:00:42Z</time>
      </trkpt>
      <trkpt lat="44.459650972858071" lon="2.678705966100097">
        <ele>536.07000000000005</ele>
        <time>2025-04-25T12:00:53Z</time>
      </trkpt>
      <trkpt lat="44.459765972569585" lon="2.678210008889437">
        <ele>535.59000000000003</ele>
        <time>2025-04-25T12:00:55Z</time>
      </trkpt>
      <trkpt lat="44.459802014753222" lon="2.677965005859733">
        <ele>535.59000000000003</ele>
        <time>2025-04-25T12:00:56Z</time>
      </trkpt>
      <trkpt lat="44.459824981167912" lon="2.677724026143551">
        <ele>535.59000000000003</ele>
        <time>2025-04-25T12:00:57Z</time>
      </trkpt>
      <trkpt lat="44.459824981167912" lon="2.677484974265099">
        <ele>535.59000000000003</ele>
        <time>2025-04-25T12:00:58Z</time>
      </trkpt>
      <trkpt lat="44.459810983389616" lon="2.677253969013691">
        <ele>536.07000000000005</ele>
        <time>2025-04-25T12:00:59Z</time>
      </trkpt>
      <trkpt lat="44.459760021418333" lon="2.677022041752935">
        <ele>535.59000000000003</ele>
        <time>2025-04-25T12:01:00Z</time>
      </trkpt>
      <trkpt lat="44.459705958142877" lon="2.676773015409708">
        <ele>535.59000000000003</ele>
        <time>2025-04-25T12:01:01Z</time>
      </trkpt>
      <trkpt lat="44.459649967029691" lon="2.676513008773327">
        <ele>535.11000000000001</ele>
        <time>2025-04-25T12:01:02Z</time>
      </trkpt>
      <trkpt lat="44.459605040028691" lon="2.676225006580353">
        <ele>535.11000000000001</ele>
        <time>2025-04-25T12:01:03Z</time>
      </trkpt>
      <trkpt lat="44.459590036422014" lon="2.675927029922605">
        <ele>535.11000000000001</ele>
        <time>2025-04-25T12:01:04Z</time>
      </trkpt>
      <trkpt lat="44.459597999230027" lon="2.675622012466192">
        <ele>535.11000000000001</ele>
        <time>2025-04-25T12:01:05Z</time>
      </trkpt>
      <trkpt lat="44.459608979523182" lon="2.675311965867877">
        <ele>535.59000000000003</ele>
        <time>2025-04-25T12:01:06Z</time>
      </trkpt>
      <trkpt lat="44.459556005895138" lon="2.672902001067996">
        <ele>541.36000000000001</ele>
        <time>2025-04-25T12:01:14Z</time>
      </trkpt>
      <trkpt lat="44.459551982581615" lon="2.67263000831008">
        <ele>542.79999999999995</ele>
        <time>2025-04-25T12:01:15Z</time>
      </trkpt>
      <trkpt lat="44.45973202586174" lon="2.671547988429666">
        <ele>550.49000000000001</ele>
        <time>2025-04-25T12:01:19Z</time>
      </trkpt>
      <trkpt lat="44.459908967837691" lon="2.671070974320173">
        <ele>553.86000000000001</ele>
        <time>2025-04-25T12:01:21Z</time>
      </trkpt>
      <trkpt lat="44.460008963942528" lon="2.670858995988965">
        <ele>555.29999999999995</ele>
        <time>2025-04-25T12:01:22Z</time>
      </trkpt>
      <trkpt lat="44.46018397808075" lon="2.670489018782973">
        <ele>557.22000000000003</ele>
        <time>2025-04-25T12:01:24Z</time>
      </trkpt>
      <trkpt lat="44.460235023871064" lon="2.670346023514867">
        <ele>558.17999999999995</ele>
        <time>2025-04-25T12:01:25Z</time>
      </trkpt>
      <trkpt lat="44.460243992507458" lon="2.670166986063123">
        <ele>559.13999999999999</ele>
        <time>2025-04-25T12:01:26Z</time>
      </trkpt>
      <trkpt lat="44.460254972800612" lon="2.669957019388676">
        <ele>559.13999999999999</ele>
        <time>2025-04-25T12:01:27Z</time>
      </trkpt>
      <trkpt lat="44.460266958922148" lon="2.669727019965649">
        <ele>559.62</ele>
        <time>2025-04-25T12:01:28Z</time>
      </trkpt>
      <trkpt lat="44.460329990833998" lon="2.669274983927608">
        <ele>560.11000000000001</ele>
        <time>2025-04-25T12:01:30Z</time>
      </trkpt>
      <trkpt lat="44.460382964462042" lon="2.669012965634465">
        <ele>560.59000000000003</ele>
        <time>2025-04-25T12:01:31Z</time>
      </trkpt>
      <trkpt lat="44.460895014926791" lon="2.666998039931059">
        <ele>566.83000000000004</ele>
        <time>2025-04-25T12:01:39Z</time>
      </trkpt>
      <trkpt lat="44.461133982986212" lon="2.665143962949514">
        <ele>569.24000000000001</ele>
        <time>2025-04-25T12:01:46Z</time>
      </trkpt>
      <trkpt lat="44.461102969944477" lon="2.664893008768559">
        <ele>569.24000000000001</ele>
        <time>2025-04-25T12:01:47Z</time>
      </trkpt>
      <trkpt lat="44.461010014638305" lon="2.664157999679446">
        <ele>568.75999999999999</ele>
        <time>2025-04-25T12:01:50Z</time>
      </trkpt>
      <trkpt lat="44.461023006588221" lon="2.663936968892813">
        <ele>569.24000000000001</ele>
        <time>2025-04-25T12:01:51Z</time>
      </trkpt>
      <trkpt lat="44.461037004366517" lon="2.663717027753592">
        <ele>569.24000000000001</ele>
        <time>2025-04-25T12:01:52Z</time>
      </trkpt>
      <trkpt lat="44.461043039336801" lon="2.663494991138578">
        <ele>569.24000000000001</ele>
        <time>2025-04-25T12:01:53Z</time>
      </trkpt>
      <trkpt lat="44.461017977446318" lon="2.663248982280493">
        <ele>569.24000000000001</ele>
        <time>2025-04-25T12:01:54Z</time>
      </trkpt>
      <trkpt lat="44.460990987718105" lon="2.662990987300873">
        <ele>569.24000000000001</ele>
        <time>2025-04-25T12:01:55Z</time>
      </trkpt>
      <trkpt lat="44.461114034056664" lon="2.661365987733007">
        <ele>570.20000000000005</ele>
        <time>2025-04-25T12:02:02Z</time>
      </trkpt>
      <trkpt lat="44.461176982149482" lon="2.660871958360076">
        <ele>569.72000000000003</ele>
        <time>2025-04-25T12:02:05Z</time>
      </trkpt>
      <trkpt lat="44.461158961057663" lon="2.660751007497311">
        <ele>569.72000000000003</ele>
        <time>2025-04-25T12:02:06Z</time>
      </trkpt>
      <trkpt lat="44.461095007136464" lon="2.660674983635545">
        <ele>569.24000000000001</ele>
        <time>2025-04-25T12:02:07Z</time>
      </trkpt>
      <trkpt lat="44.461003979668021" lon="2.660610023885965">
        <ele>568.75999999999999</ele>
        <time>2025-04-25T12:02:08Z</time>
      </trkpt>
      <trkpt lat="44.460886968299747" lon="2.660546991974115">
        <ele>568.27999999999997</ele>
        <time>2025-04-25T12:02:09Z</time>
      </trkpt>
      <trkpt lat="44.460754031315446" lon="2.660477003082633">
        <ele>567.32000000000005</ele>
        <time>2025-04-25T12:02:10Z</time>
      </trkpt>
      <trkpt lat="44.459563968703151" lon="2.659918013960123">
        <ele>561.54999999999995</ele>
        <time>2025-04-25T12:02:17Z</time>
      </trkpt>
      <trkpt lat="44.458900038152933" lon="2.659601010382175">
        <ele>559.13999999999999</ele>
        <time>2025-04-25T12:02:21Z</time>
      </trkpt>
      <trkpt lat="44.458753019571304" lon="2.659486010670662">
        <ele>558.17999999999995</ele>
        <time>2025-04-25T12:02:22Z</time>
      </trkpt>
      <trkpt lat="44.458614969626069" lon="2.659347960725427">
        <ele>557.22000000000003</ele>
        <time>2025-04-25T12:02:23Z</time>
      </trkpt>
      <trkpt lat="44.456969015300274" lon="2.657567979767919">
        <ele>552.89999999999998</ele>
        <time>2025-04-25T12:02:35Z</time>
      </trkpt>
      <trkpt lat="44.456396028399467" lon="2.656989963725209">
        <ele>553.38</ele>
        <time>2025-04-25T12:02:39Z</time>
      </trkpt>
      <trkpt lat="44.456234006211162" lon="2.656890973448753">
        <ele>553.86000000000001</ele>
        <time>2025-04-25T12:02:40Z</time>
      </trkpt>
      <trkpt lat="44.455752968788147" lon="2.656554020941258">
        <ele>556.74000000000001</ele>
        <time>2025-04-25T12:02:43Z</time>
      </trkpt>
      <trkpt lat="44.454789971932769" lon="2.65570099465549">
        <ele>562.99000000000001</ele>
        <time>2025-04-25T12:02:49Z</time>
      </trkpt>
      <trkpt lat="44.454608000814915" lon="2.655596975237131">
        <ele>564.42999999999995</ele>
        <time>2025-04-25T12:02:50Z</time>
      </trkpt>
      <trkpt lat="44.454416977241635" lon="2.655560011044145">
        <ele>565.87</ele>
        <time>2025-04-25T12:02:51Z</time>
      </trkpt>
      <trkpt lat="44.454228971153498" lon="2.655523968860507">
        <ele>567.32000000000005</ele>
        <time>2025-04-25T12:02:52Z</time>
      </trkpt>
      <trkpt lat="44.454034008085728" lon="2.655497984960675">
        <ele>569.24000000000001</ele>
        <time>2025-04-25T12:02:53Z</time>
      </trkpt>
      <trkpt lat="44.453840972855687" lon="2.655516006052494">
        <ele>571.15999999999997</ele>
        <time>2025-04-25T12:02:54Z</time>
      </trkpt>
      <trkpt lat="44.453649027273059" lon="2.655534027144313">
        <ele>572.60000000000002</ele>
        <time>2025-04-25T12:02:55Z</time>
      </trkpt>
      <trkpt lat="44.453258011490107" lon="2.655569985508919">
        <ele>576.45000000000005</ele>
        <time>2025-04-25T12:02:57Z</time>
      </trkpt>
      <trkpt lat="44.453062964603305" lon="2.65557199716568">
        <ele>578.37</ele>
        <time>2025-04-25T12:02:58Z</time>
      </trkpt>
      <trkpt lat="44.451534021645784" lon="2.655370999127626">
        <ele>589.42999999999995</ele>
        <time>2025-04-25T12:03:06Z</time>
      </trkpt>
      <trkpt lat="44.451350960880518" lon="2.655327999964356">
        <ele>590.38999999999999</ele>
        <time>2025-04-25T12:03:07Z</time>
      </trkpt>
      <trkpt lat="44.45118198171258" lon="2.655229009687901">
        <ele>590.87</ele>
        <time>2025-04-25T12:03:08Z</time>
      </trkpt>
      <trkpt lat="44.451013002544641" lon="2.655120966956019">
        <ele>591.83000000000004</ele>
        <time>2025-04-25T12:03:09Z</time>
      </trkpt>
      <trkpt lat="44.450840000063181" lon="2.655009990558028">
        <ele>592.30999999999995</ele>
        <time>2025-04-25T12:03:10Z</time>
      </trkpt>
      <trkpt lat="44.450232982635498" lon="2.654567006975412">
        <ele>596.14999999999998</ele>
        <time>2025-04-25T12:03:15Z</time>
      </trkpt>
      <trkpt lat="44.45010700263083" lon="2.654459970071912">
        <ele>597.60000000000002</ele>
        <time>2025-04-25T12:03:19Z</time>
      </trkpt>
      <trkpt lat="44.45006400346756" lon="2.65438998118043">
        <ele>598.08000000000004</ele>
        <time>2025-04-25T12:03:20Z</time>
      </trkpt>
      <trkpt lat="44.450070038437843" lon="2.654299959540367">
        <ele>598.55999999999995</ele>
        <time>2025-04-25T12:03:21Z</time>
      </trkpt>
      <trkpt lat="44.450078001245856" lon="2.654182026162744">
        <ele>599.51999999999998</ele>
        <time>2025-04-25T12:03:22Z</time>
      </trkpt>
      <trkpt lat="44.45008696988225" lon="2.654042970389128">
        <ele>600</ele>
        <time>2025-04-25T12:03:23Z</time>
      </trkpt>
      <trkpt lat="44.450147990137339" lon="2.653154991567135">
        <ele>600.96000000000004</ele>
        <time>2025-04-25T12:03:28Z</time>
      </trkpt>
      <trkpt lat="44.450174979865551" lon="2.652963967993856">
        <ele>600.96000000000004</ele>
        <time>2025-04-25T12:03:29Z</time>
      </trkpt>
      <trkpt lat="44.450239017605782" lon="2.652775039896369">
        <ele>600.96000000000004</ele>
        <time>2025-04-25T12:03:30Z</time>
      </trkpt>
      <trkpt lat="44.450341025367379" lon="2.652603965252638">
        <ele>601.44000000000005</ele>
        <time>2025-04-25T12:03:31Z</time>
      </trkpt>
      <trkpt lat="44.450459964573383" lon="2.65243599191308">
        <ele>601.91999999999996</ele>
        <time>2025-04-25T12:03:32Z</time>
      </trkpt>
      <trkpt lat="44.450594997033477" lon="2.65226298943162">
        <ele>602.39999999999998</ele>
        <time>2025-04-25T12:03:33Z</time>
      </trkpt>
      <trkpt lat="44.451981028541923" lon="2.650432968512178">
        <ele>606.25</ele>
        <time>2025-04-25T12:03:42Z</time>
      </trkpt>
      <trkpt lat="44.454165017232299" lon="2.647261004894972">
        <ele>599.51999999999998</ele>
        <time>2025-04-25T12:03:56Z</time>
      </trkpt>
      <trkpt lat="44.455891018733382" lon="2.644712990149856">
        <ele>589.42999999999995</ele>
        <time>2025-04-25T12:04:07Z</time>
      </trkpt>
      <trkpt lat="44.455965030938387" lon="2.644477039575577">
        <ele>588.46000000000004</ele>
        <time>2025-04-25T12:04:08Z</time>
      </trkpt>
      <trkpt lat="44.456026973202825" lon="2.644234970211983">
        <ele>587.98000000000002</ele>
        <time>2025-04-25T12:04:09Z</time>
      </trkpt>
      <trkpt lat="44.456026973202825" lon="2.643959959968925">
        <ele>587.01999999999998</ele>
        <time>2025-04-25T12:04:10Z</time>
      </trkpt>
      <trkpt lat="44.456026973202825" lon="2.643671035766602">
        <ele>586.53999999999996</ele>
        <time>2025-04-25T12:04:11Z</time>
      </trkpt>
      <trkpt lat="44.455997971817851" lon="2.643379010260105">
        <ele>585.58000000000004</ele>
        <time>2025-04-25T12:04:12Z</time>
      </trkpt>
      <trkpt lat="44.455903004854918" lon="2.642834018915892">
        <ele>584.62</ele>
        <time>2025-04-25T12:04:14Z</time>
      </trkpt>
      <trkpt lat="44.455813989043236" lon="2.642581975087524">
        <ele>584.13999999999999</ele>
        <time>2025-04-25T12:04:15Z</time>
      </trkpt>
      <trkpt lat="44.455693960189819" lon="2.642353987321258">
        <ele>583.17999999999995</ele>
        <time>2025-04-25T12:04:16Z</time>
      </trkpt>
      <trkpt lat="44.455461027100682" lon="2.641914021223784">
        <ele>582.22000000000003</ele>
        <time>2025-04-25T12:04:18Z</time>
      </trkpt>
      <trkpt lat="44.455388020724058" lon="2.641693996265531">
        <ele>581.73000000000002</ele>
        <time>2025-04-25T12:04:19Z</time>
      </trkpt>
      <trkpt lat="44.455367987975478" lon="2.641476988792419">
        <ele>581.73000000000002</ele>
        <time>2025-04-25T12:04:20Z</time>
      </trkpt>
      <trkpt lat="44.455378968268633" lon="2.641265010461211">
        <ele>581.25</ele>
        <time>2025-04-25T12:04:21Z</time>
      </trkpt>
      <trkpt lat="44.455390032380819" lon="2.641041968017817">
        <ele>580.76999999999998</ele>
        <time>2025-04-25T12:04:22Z</time>
      </trkpt>
      <trkpt lat="44.455402018502355" lon="2.640801994130015">
        <ele>580.76999999999998</ele>
        <time>2025-04-25T12:04:23Z</time>
      </trkpt>
      <trkpt lat="44.455510983243585" lon="2.639760039746761">
        <ele>579.33000000000004</ele>
        <time>2025-04-25T12:04:27Z</time>
      </trkpt>
      <trkpt lat="44.455573009327054" lon="2.639529034495354">
        <ele>578.85000000000002</ele>
        <time>2025-04-25T12:04:28Z</time>
      </trkpt>
      <trkpt lat="44.45567300543189" lon="2.639309009537101">
        <ele>578.85000000000002</ele>
        <time>2025-04-25T12:04:29Z</time>
      </trkpt>
      <trkpt lat="44.45577903650701" lon="2.639075992628932">
        <ele>578.37</ele>
        <time>2025-04-25T12:04:30Z</time>
      </trkpt>
      <trkpt lat="44.455891018733382" lon="2.638842975720763">
        <ele>578.37</ele>
        <time>2025-04-25T12:04:31Z</time>
      </trkpt>
      <trkpt lat="44.457057025283575" lon="2.637142036110163">
        <ele>576.45000000000005</ele>
        <time>2025-04-25T12:04:39Z</time>
      </trkpt>
      <trkpt lat="44.457889012992382" lon="2.635957002639771">
        <ele>573.55999999999995</ele>
        <time>2025-04-25T12:04:45Z</time>
      </trkpt>
      <trkpt lat="44.457961013540626" lon="2.635758016258478">
        <ele>573.08000000000004</ele>
        <time>2025-04-25T12:04:46Z</time>
      </trkpt>
      <trkpt lat="44.457996971905231" lon="2.63554897159338">
        <ele>572.60000000000002</ele>
        <time>2025-04-25T12:04:47Z</time>
      </trkpt>
      <trkpt lat="44.457985991612077" lon="2.635317966341972">
        <ele>572.12</ele>
        <time>2025-04-25T12:04:48Z</time>
      </trkpt>
      <trkpt lat="44.457965036854148" lon="2.635072963312268">
        <ele>571.63999999999999</ele>
        <time>2025-04-25T12:04:49Z</time>
      </trkpt>
      <trkpt lat="44.457924971356988" lon="2.634801976382732">
        <ele>571.15999999999997</ele>
        <time>2025-04-25T12:04:50Z</time>
      </trkpt>
      <trkpt lat="44.457707041874528" lon="2.632746985182166">
        <ele>568.27999999999997</ele>
        <time>2025-04-25T12:04:57Z</time>
      </trkpt>
      <trkpt lat="44.457817012444139" lon="2.630423018708825">
        <ele>563.47000000000003</ele>
        <time>2025-04-25T12:05:05Z</time>
      </trkpt>
      <trkpt lat="44.45784299634397" lon="2.629750035703182">
        <ele>561.07000000000005</ele>
        <time>2025-04-25T12:05:09Z</time>
      </trkpt>
      <trkpt lat="44.45790602825582" lon="2.628543963655829">
        <ele>557.22000000000003</ele>
        <time>2025-04-25T12:05:17Z</time>
      </trkpt>
      <trkpt lat="44.457954978570342" lon="2.627341998741031">
        <ele>555.29999999999995</ele>
        <time>2025-04-25T12:05:26Z</time>
      </trkpt>
      <trkpt lat="44.4579519610852" lon="2.626455025747418">
        <ele>550.97000000000003</ele>
        <time>2025-04-25T12:05:34Z</time>
      </trkpt>
      <trkpt lat="44.457850959151983" lon="2.625818001106381">
        <ele>549.04999999999995</ele>
        <time>2025-04-25T12:05:39Z</time>
      </trkpt>
      <trkpt lat="44.457810977473855" lon="2.625657990574837">
        <ele>549.52999999999997</ele>
        <time>2025-04-25T12:05:40Z</time>
      </trkpt>
      <trkpt lat="44.457635963335633" lon="2.624960029497743">
        <ele>550.00999999999999</ele>
        <time>2025-04-25T12:05:45Z</time>
      </trkpt>
      <trkpt lat="44.457630012184381" lon="2.624817034229636">
        <ele>550.49000000000001</ele>
        <time>2025-04-25T12:05:46Z</time>
      </trkpt>
      <trkpt lat="44.457661025226116" lon="2.624108009040356">
        <ele>550.49000000000001</ele>
        <time>2025-04-25T12:05:51Z</time>
      </trkpt>
      <trkpt lat="44.457854982465506" lon="2.622356023639441">
        <ele>552.89999999999998</ele>
        <time>2025-04-25T12:06:02Z</time>
      </trkpt>
      <trkpt lat="44.458028990775347" lon="2.620510999113321">
        <ele>554.82000000000005</ele>
        <time>2025-04-25T12:06:13Z</time>
      </trkpt>
      <trkpt lat="44.458270976319909" lon="2.618656000122428">
        <ele>551.92999999999995</ele>
        <time>2025-04-25T12:06:21Z</time>
      </trkpt>
      <trkpt lat="44.458285979926586" lon="2.618392976000905">
        <ele>551.45000000000005</ele>
        <time>2025-04-25T12:06:22Z</time>
      </trkpt>
      <trkpt lat="44.458301989361644" lon="2.618131041526794">
        <ele>551.45000000000005</ele>
        <time>2025-04-25T12:06:23Z</time>
      </trkpt>
      <trkpt lat="44.458382036536932" lon="2.61666102334857">
        <ele>549.52999999999997</ele>
        <time>2025-04-25T12:06:30Z</time>
      </trkpt>
      <trkpt lat="44.458587979897857" lon="2.615068964660168">
        <ele>552.89999999999998</ele>
        <time>2025-04-25T12:06:40Z</time>
      </trkpt>
      <trkpt lat="44.458710020408034" lon="2.612931998446584">
        <ele>550.00999999999999</ele>
        <time>2025-04-25T12:06:53Z</time>
      </trkpt>
      <trkpt lat="44.458712032064795" lon="2.61172198690474">
        <ele>549.52999999999997</ele>
        <time>2025-04-25T12:07:02Z</time>
      </trkpt>
      <trkpt lat="44.458691999316216" lon="2.611267017200589">
        <ele>548.09000000000003</ele>
        <time>2025-04-25T12:07:06Z</time>
      </trkpt>
      <trkpt lat="44.458565013483167" lon="2.610138980671763">
        <ele>545.20000000000005</ele>
        <time>2025-04-25T12:07:15Z</time>
      </trkpt>
      <trkpt lat="44.458547998219728" lon="2.610014006495476">
        <ele>544.72000000000003</ele>
        <time>2025-04-25T12:07:16Z</time>
      </trkpt>
      <trkpt lat="44.458531988784671" lon="2.609888026490808">
        <ele>544.24000000000001</ele>
        <time>2025-04-25T12:07:17Z</time>
      </trkpt>
      <trkpt lat="44.458498964086175" lon="2.609613016247749">
        <ele>543.75999999999999</ele>
        <time>2025-04-25T12:07:19Z</time>
      </trkpt>
      <trkpt lat="44.458414977416396" lon="2.608898039907217">
        <ele>544.72000000000003</ele>
        <time>2025-04-25T12:07:24Z</time>
      </trkpt>
      <trkpt lat="44.458362003788352" lon="2.608443992212415">
        <ele>545.69000000000005</ele>
        <time>2025-04-25T12:07:27Z</time>
      </trkpt>
      <trkpt lat="44.458342976868153" lon="2.608288004994392">
        <ele>546.64999999999998</ele>
        <time>2025-04-25T12:07:28Z</time>
      </trkpt>
      <trkpt lat="44.458325039595366" lon="2.608127994462848">
        <ele>547.13</ele>
        <time>2025-04-25T12:07:29Z</time>
      </trkpt>
      <trkpt lat="44.458133010193706" lon="2.607168015092611">
        <ele>547.61000000000001</ele>
        <time>2025-04-25T12:07:35Z</time>
      </trkpt>
      <trkpt lat="44.457806032150984" lon="2.60576899163425">
        <ele>551.45000000000005</ele>
        <time>2025-04-25T12:07:44Z</time>
      </trkpt>
      <trkpt lat="44.457465978339314" lon="2.604391006752849">
        <ele>551.92999999999995</ele>
        <time>2025-04-25T12:07:51Z</time>
      </trkpt>
      <trkpt lat="44.456998016685247" lon="2.602251023054123">
        <ele>549.52999999999997</ele>
        <time>2025-04-25T12:07:59Z</time>
      </trkpt>
      <trkpt lat="44.456971026957035" lon="2.600163007155061">
        <ele>548.09000000000003</ele>
        <time>2025-04-25T12:08:06Z</time>
      </trkpt>
      <trkpt lat="44.45715400390327" lon="2.597336964681745">
        <ele>548.09000000000003</ele>
        <time>2025-04-25T12:08:16Z</time>
      </trkpt>
      <trkpt lat="44.457802008837461" lon="2.594805965200067">
        <ele>547.13</ele>
        <time>2025-04-25T12:08:25Z</time>
      </trkpt>
      <trkpt lat="44.458261001855135" lon="2.592559028416872">
        <ele>546.64999999999998</ele>
        <time>2025-04-25T12:08:33Z</time>
      </trkpt>
      <trkpt lat="44.458902971819043" lon="2.589769028127194">
        <ele>546.64999999999998</ele>
        <time>2025-04-25T12:08:43Z</time>
      </trkpt>
      <trkpt lat="44.45925903506577" lon="2.587474985048175">
        <ele>549.52999999999997</ele>
        <time>2025-04-25T12:08:51Z</time>
      </trkpt>
      <trkpt lat="44.459062982350588" lon="2.584441993385553">
        <ele>548.57000000000005</ele>
        <time>2025-04-25T12:09:01Z</time>
      </trkpt>
      <trkpt lat="44.458886040374637" lon="2.581062996760011">
        <ele>552.40999999999997</ele>
        <time>2025-04-25T12:09:12Z</time>
      </trkpt>
      <trkpt lat="44.458799036219716" lon="2.577465986832976">
        <ele>552.40999999999997</ele>
        <time>2025-04-25T12:09:24Z</time>
      </trkpt>
      <trkpt lat="44.45876601152122" lon="2.575832018628717">
        <ele>552.40999999999997</ele>
        <time>2025-04-25T12:09:32Z</time>
      </trkpt>
      <trkpt lat="44.458771962672472" lon="2.57495803758502">
        <ele>552.89999999999998</ele>
        <time>2025-04-25T12:09:39Z</time>
      </trkpt>
      <trkpt lat="44.458857960999012" lon="2.574404999613762">
        <ele>554.34000000000003</ele>
        <time>2025-04-25T12:09:46Z</time>
      </trkpt>
      <trkpt lat="44.459090977907181" lon="2.57304796949029">
        <ele>555.29999999999995</ele>
        <time>2025-04-25T12:09:53Z</time>
      </trkpt>
      <trkpt lat="44.459524992853403" lon="2.570516970008612">
        <ele>558.17999999999995</ele>
        <time>2025-04-25T12:10:03Z</time>
      </trkpt>
      <trkpt lat="44.459546031430364" lon="2.570282025262713">
        <ele>558.65999999999997</ele>
        <time>2025-04-25T12:10:04Z</time>
      </trkpt>
      <trkpt lat="44.459546031430364" lon="2.570050014182925">
        <ele>559.62</ele>
        <time>2025-04-25T12:10:05Z</time>
      </trkpt>
      <trkpt lat="44.459507977589965" lon="2.569829989224672">
        <ele>560.11000000000001</ele>
        <time>2025-04-25T12:10:06Z</time>
      </trkpt>
      <trkpt lat="44.459213018417358" lon="2.568024024367333">
        <ele>563.95000000000005</ele>
        <time>2025-04-25T12:10:14Z</time>
      </trkpt>
      <trkpt lat="44.459188040345907" lon="2.567629991099238">
        <ele>564.42999999999995</ele>
        <time>2025-04-25T12:10:16Z</time>
      </trkpt>
      <trkpt lat="44.45919499732554" lon="2.567435028031468">
        <ele>564.90999999999997</ele>
        <time>2025-04-25T12:10:17Z</time>
      </trkpt>
      <trkpt lat="44.459225004538894" lon="2.567107966169715">
        <ele>565.38999999999999</ele>
        <time>2025-04-25T12:10:19Z</time>
      </trkpt>
      <trkpt lat="44.459138000383973" lon="2.566917026415467">
        <ele>565.38999999999999</ele>
        <time>2025-04-25T12:10:20Z</time>
      </trkpt>
      <trkpt lat="44.45908896625042" lon="2.566817030310631">
        <ele>564.90999999999997</ele>
        <time>2025-04-25T12:10:21Z</time>
      </trkpt>
      <trkpt lat="44.459012020379305" lon="2.566663976758719">
        <ele>564.42999999999995</ele>
        <time>2025-04-25T12:10:22Z</time>
      </trkpt>
      <trkpt lat="44.458926022052765" lon="2.566490974277258">
        <ele>564.42999999999995</ele>
        <time>2025-04-25T12:10:23Z</time>
      </trkpt>
      <trkpt lat="44.458752013742924" lon="2.566143963485956">
        <ele>564.42999999999995</ele>
        <time>2025-04-25T12:10:25Z</time>
      </trkpt>
      <trkpt lat="44.458619998767972" lon="2.565980013459921">
        <ele>564.42999999999995</ele>
        <time>2025-04-25T12:10:26Z</time>
      </trkpt>
      <trkpt lat="44.458495024591684" lon="2.565883034840226">
        <ele>563.95000000000005</ele>
        <time>2025-04-25T12:10:27Z</time>
      </trkpt>
      <trkpt lat="44.458344988524914" lon="2.565798964351416">
        <ele>563.47000000000003</ele>
        <time>2025-04-25T12:10:28Z</time>
      </trkpt>
      <trkpt lat="44.458189001306891" lon="2.565713971853256">
        <ele>563.47000000000003</ele>
        <time>2025-04-25T12:10:29Z</time>
      </trkpt>
      <trkpt lat="44.45801499299705" lon="2.565668039023876">
        <ele>562.99000000000001</ele>
        <time>2025-04-25T12:10:30Z</time>
      </trkpt>
      <trkpt lat="44.457835033535957" lon="2.565621016547084">
        <ele>562.99000000000001</ele>
        <time>2025-04-25T12:10:31Z</time>
      </trkpt>
      <trkpt lat="44.456537012010813" lon="2.565165041014552">
        <ele>563.95000000000005</ele>
        <time>2025-04-25T12:10:38Z</time>
      </trkpt>
      <trkpt lat="44.455051990225911" lon="2.564193997532129">
        <ele>567.32000000000005</ele>
        <time>2025-04-25T12:10:46Z</time>
      </trkpt>
      <trkpt lat="44.454891979694366" lon="2.564026024192572">
        <ele>566.83000000000004</ele>
        <time>2025-04-25T12:10:47Z</time>
      </trkpt>
      <trkpt lat="44.454745966941118" lon="2.563815973699093">
        <ele>566.83000000000004</ele>
        <time>2025-04-25T12:10:48Z</time>
      </trkpt>
      <trkpt lat="44.454229976981878" lon="2.562922965735197">
        <ele>565.38999999999999</ele>
        <time>2025-04-25T12:10:52Z</time>
      </trkpt>
      <trkpt lat="44.452884010970592" lon="2.561282040551305">
        <ele>557.70000000000005</ele>
        <time>2025-04-25T12:11:00Z</time>
      </trkpt>
      <trkpt lat="44.452717965468764" lon="2.56107903085649">
        <ele>556.25999999999999</ele>
        <time>2025-04-25T12:11:01Z</time>
      </trkpt>
      <trkpt lat="44.452514033764601" lon="2.56095196120441">
        <ele>554.82000000000005</ele>
        <time>2025-04-25T12:11:02Z</time>
      </trkpt>
      <trkpt lat="44.4504090026021" lon="2.559679001569748">
        <ele>548.09000000000003</ele>
        <time>2025-04-25T12:11:12Z</time>
      </trkpt>
      <trkpt lat="44.449561005458236" lon="2.558828992769122">
        <ele>548.57000000000005</ele>
        <time>2025-04-25T12:11:17Z</time>
      </trkpt>
      <trkpt lat="44.449435025453568" lon="2.558646015822887">
        <ele>549.04999999999995</ele>
        <time>2025-04-25T12:11:18Z</time>
      </trkpt>
      <trkpt lat="44.449349027127028" lon="2.558425990864635">
        <ele>549.52999999999997</ele>
        <time>2025-04-25T12:11:19Z</time>
      </trkpt>
      <trkpt lat="44.449298987165093" lon="2.558184005320072">
        <ele>550.97000000000003</ele>
        <time>2025-04-25T12:11:20Z</time>
      </trkpt>
      <trkpt lat="44.4492709916085" lon="2.557917963713408">
        <ele>551.92999999999995</ele>
        <time>2025-04-25T12:11:21Z</time>
      </trkpt>
      <trkpt lat="44.449242996051908" lon="2.557658040896058">
        <ele>552.89999999999998</ele>
        <time>2025-04-25T12:11:22Z</time>
      </trkpt>
      <trkpt lat="44.449216006323695" lon="2.557407002896071">
        <ele>553.86000000000001</ele>
        <time>2025-04-25T12:11:23Z</time>
      </trkpt>
      <trkpt lat="44.449189016595483" lon="2.557156970724464">
        <ele>554.34000000000003</ele>
        <time>2025-04-25T12:11:24Z</time>
      </trkpt>
      <trkpt lat="44.449117016047239" lon="2.55691297352314">
        <ele>555.29999999999995</ele>
        <time>2025-04-25T12:11:25Z</time>
      </trkpt>
      <trkpt lat="44.449026994407177" lon="2.556665036827326">
        <ele>555.77999999999997</ele>
        <time>2025-04-25T12:11:26Z</time>
      </trkpt>
      <trkpt lat="44.44894602522254" lon="2.556446017697454">
        <ele>556.74000000000001</ele>
        <time>2025-04-25T12:11:27Z</time>
      </trkpt>
      <trkpt lat="44.448811998590827" lon="2.556269997730851">
        <ele>557.70000000000005</ele>
        <time>2025-04-25T12:11:28Z</time>
      </trkpt>
      <trkpt lat="44.448699010536075" lon="2.556122979149222">
        <ele>558.65999999999997</ele>
        <time>2025-04-25T12:11:29Z</time>
      </trkpt>
      <trkpt lat="44.448575964197516" lon="2.556050978600979">
        <ele>559.62</ele>
        <time>2025-04-25T12:11:30Z</time>
      </trkpt>
      <trkpt lat="44.448427017778158" lon="2.556001022458077">
        <ele>560.11000000000001</ele>
        <time>2025-04-25T12:11:31Z</time>
      </trkpt>
      <trkpt lat="44.448258960619569" lon="2.555979983881116">
        <ele>561.07000000000005</ele>
        <time>2025-04-25T12:11:32Z</time>
      </trkpt>
      <trkpt lat="44.448080006986856" lon="2.555994987487793">
        <ele>562.02999999999997</ele>
        <time>2025-04-25T12:11:33Z</time>
      </trkpt>
      <trkpt lat="44.446445032954216" lon="2.556092971935868">
        <ele>567.79999999999995</ele>
        <time>2025-04-25T12:11:41Z</time>
      </trkpt>
      <trkpt lat="44.445206020027399" lon="2.55628801882267">
        <ele>570.20000000000005</ele>
        <time>2025-04-25T12:11:47Z</time>
      </trkpt>
      <trkpt lat="44.444386018440127" lon="2.556403018534184">
        <ele>572.12</ele>
        <time>2025-04-25T12:11:51Z</time>
      </trkpt>
      <trkpt lat="44.444187032058835" lon="2.556373011320829">
        <ele>572.60000000000002</ele>
        <time>2025-04-25T12:11:52Z</time>
      </trkpt>
      <trkpt lat="44.442304037511349" lon="2.555689970031381">
        <ele>570.20000000000005</ele>
        <time>2025-04-25T12:12:01Z</time>
      </trkpt>
      <trkpt lat="44.439798016101122" lon="2.554779024794698">
        <ele>567.79999999999995</ele>
        <time>2025-04-25T12:12:13Z</time>
      </trkpt>
      <trkpt lat="44.439437007531524" lon="2.55457098595798">
        <ele>567.32000000000005</ele>
        <time>2025-04-25T12:12:15Z</time>
      </trkpt>
      <trkpt lat="44.439246989786625" lon="2.554450035095215">
        <ele>567.79999999999995</ele>
        <time>2025-04-25T12:12:16Z</time>
      </trkpt>
      <trkpt lat="44.439105000346899" lon="2.55426999181509">
        <ele>567.79999999999995</ele>
        <time>2025-04-25T12:12:17Z</time>
      </trkpt>
      <trkpt lat="44.437679992988706" lon="2.55246302112937">
        <ele>567.79999999999995</ele>
        <time>2025-04-25T12:12:26Z</time>
      </trkpt>
      <trkpt lat="44.436751026660204" lon="2.551289973780513">
        <ele>565.87</ele>
        <time>2025-04-25T12:12:32Z</time>
      </trkpt>
      <trkpt lat="44.435194004327059" lon="2.550196973606944">
        <ele>567.32000000000005</ele>
        <time>2025-04-25T12:12:40Z</time>
      </trkpt>
      <trkpt lat="44.433869998902082" lon="2.549277981743217">
        <ele>567.79999999999995</ele>
        <time>2025-04-25T12:12:47Z</time>
      </trkpt>
      <trkpt lat="44.433723986148834" lon="2.549086036160588">
        <ele>567.32000000000005</ele>
        <time>2025-04-25T12:12:48Z</time>
      </trkpt>
      <trkpt lat="44.433560958132148" lon="2.548871040344238">
        <ele>566.83000000000004</ele>
        <time>2025-04-25T12:12:49Z</time>
      </trkpt>
      <trkpt lat="44.432324962690473" lon="2.546777995303273">
        <ele>561.54999999999995</ele>
        <time>2025-04-25T12:12:58Z</time>
      </trkpt>
      <trkpt lat="44.432183979079127" lon="2.54657699726522">
        <ele>560.59000000000003</ele>
        <time>2025-04-25T12:12:59Z</time>
      </trkpt>
      <trkpt lat="44.432014999911189" lon="2.54642897285521">
        <ele>559.62</ele>
        <time>2025-04-25T12:13:00Z</time>
      </trkpt>
      <trkpt lat="44.431838979944587" lon="2.546297963708639">
        <ele>559.62</ele>
        <time>2025-04-25T12:13:01Z</time>
      </trkpt>
      <trkpt lat="44.431639993563294" lon="2.546219006180763">
        <ele>559.62</ele>
        <time>2025-04-25T12:13:02Z</time>
      </trkpt>
      <trkpt lat="44.431451987475157" lon="2.546143988147378">
        <ele>559.62</ele>
        <time>2025-04-25T12:13:03Z</time>
      </trkpt>
      <trkpt lat="44.431279990822077" lon="2.546049021184444">
        <ele>560.11000000000001</ele>
        <time>2025-04-25T12:13:04Z</time>
      </trkpt>
      <trkpt lat="44.431115034967661" lon="2.545923041179776">
        <ele>560.11000000000001</ele>
        <time>2025-04-25T12:13:05Z</time>
      </trkpt>
      <trkpt lat="44.430958963930607" lon="2.545779962092638">
        <ele>560.11000000000001</ele>
        <time>2025-04-25T12:13:06Z</time>
      </trkpt>
      <trkpt lat="44.430828960612416" lon="2.545564966276288">
        <ele>560.11000000000001</ele>
        <time>2025-04-25T12:13:07Z</time>
      </trkpt>
      <trkpt lat="44.430692000314593" lon="2.545338990166783">
        <ele>560.59000000000003</ele>
        <time>2025-04-25T12:13:08Z</time>
      </trkpt>
      <trkpt lat="44.430329985916615" lon="2.544646980240941">
        <ele>561.07000000000005</ele>
        <time>2025-04-25T12:13:11Z</time>
      </trkpt>
      <trkpt lat="44.430263014510274" lon="2.544403988867998">
        <ele>561.07000000000005</ele>
        <time>2025-04-25T12:13:12Z</time>
      </trkpt>
      <trkpt lat="44.430208029225469" lon="2.544139958918095">
        <ele>561.07000000000005</ele>
        <time>2025-04-25T12:13:13Z</time>
      </trkpt>
      <trkpt lat="44.429909968748689" lon="2.542745964601636">
        <ele>560.59000000000003</ele>
        <time>2025-04-25T12:13:18Z</time>
      </trkpt>
      <trkpt lat="44.429828999564052" lon="2.542504984885454">
        <ele>560.59000000000003</ele>
        <time>2025-04-25T12:13:19Z</time>
      </trkpt>
      <trkpt lat="44.429722968488932" lon="2.542298035696149">
        <ele>560.59000000000003</ele>
        <time>2025-04-25T12:13:20Z</time>
      </trkpt>
      <trkpt lat="44.429583996534348" lon="2.542135007679462">
        <ele>560.59000000000003</ele>
        <time>2025-04-25T12:13:21Z</time>
      </trkpt>
      <trkpt lat="44.429432032629848" lon="2.541990000754595">
        <ele>560.59000000000003</ele>
        <time>2025-04-25T12:13:22Z</time>
      </trkpt>
      <trkpt lat="44.4292669929564" lon="2.541852034628391">
        <ele>561.07000000000005</ele>
        <time>2025-04-25T12:13:23Z</time>
      </trkpt>
      <trkpt lat="44.428107021376491" lon="2.540714023634791">
        <ele>566.83000000000004</ele>
        <time>2025-04-25T12:13:30Z</time>
      </trkpt>
      <trkpt lat="44.427981963381171" lon="2.540501961484551">
        <ele>567.79999999999995</ele>
        <time>2025-04-25T12:13:31Z</time>
      </trkpt>
      <trkpt lat="44.427890013903379" lon="2.540272967889905">
        <ele>567.79999999999995</ele>
        <time>2025-04-25T12:13:32Z</time>
      </trkpt>
      <trkpt lat="44.427796974778175" lon="2.540040034800768">
        <ele>567.79999999999995</ele>
        <time>2025-04-25T12:13:33Z</time>
      </trkpt>
      <trkpt lat="44.427726985886693" lon="2.539782039821148">
        <ele>567.79999999999995</ele>
        <time>2025-04-25T12:13:34Z</time>
      </trkpt>
      <trkpt lat="44.427666971459985" lon="2.539512980729342">
        <ele>567.79999999999995</ele>
        <time>2025-04-25T12:13:35Z</time>
      </trkpt>
      <trkpt lat="44.427480977028608" lon="2.538683004677296">
        <ele>566.35000000000002</ele>
        <time>2025-04-25T12:13:38Z</time>
      </trkpt>
      <trkpt lat="44.427367988973856" lon="2.538429033011198">
        <ele>565.87</ele>
        <time>2025-04-25T12:13:39Z</time>
      </trkpt>
      <trkpt lat="44.427256006747484" lon="2.53817698918283">
        <ele>565.87</ele>
        <time>2025-04-25T12:13:40Z</time>
      </trkpt>
      <trkpt lat="44.427109993994236" lon="2.537959981709719">
        <ele>565.38999999999999</ele>
        <time>2025-04-25T12:13:41Z</time>
      </trkpt>
      <trkpt lat="44.426951995119452" lon="2.537758983671665">
        <ele>564.90999999999997</ele>
        <time>2025-04-25T12:13:42Z</time>
      </trkpt>
      <trkpt lat="44.426777986809611" lon="2.537604002282023">
        <ele>563.95000000000005</ele>
        <time>2025-04-25T12:13:43Z</time>
      </trkpt>
      <trkpt lat="44.426609007641673" lon="2.537453966215253">
        <ele>563.47000000000003</ele>
        <time>2025-04-25T12:13:44Z</time>
      </trkpt>
      <trkpt lat="44.426444973796606" lon="2.537308037281036">
        <ele>562.99000000000001</ele>
        <time>2025-04-25T12:13:45Z</time>
      </trkpt>
      <trkpt lat="44.426266020163894" lon="2.537217009812594">
        <ele>562.02999999999997</ele>
        <time>2025-04-25T12:13:46Z</time>
      </trkpt>
      <trkpt lat="44.426070973277092" lon="2.537149032577872">
        <ele>561.07000000000005</ele>
        <time>2025-04-25T12:13:47Z</time>
      </trkpt>
      <trkpt lat="44.425067994743586" lon="2.536725997924805">
        <ele>557.22000000000003</ele>
        <time>2025-04-25T12:13:52Z</time>
      </trkpt>
      <trkpt lat="44.424892980605364" lon="2.53658602014184">
        <ele>557.22000000000003</ele>
        <time>2025-04-25T12:13:53Z</time>
      </trkpt>
      <trkpt lat="44.42475400865078" lon="2.536402959376574">
        <ele>557.22000000000003</ele>
        <time>2025-04-25T12:13:54Z</time>
      </trkpt>
      <trkpt lat="44.424630962312222" lon="2.536219982430339">
        <ele>557.22000000000003</ele>
        <time>2025-04-25T12:13:55Z</time>
      </trkpt>
      <trkpt lat="44.424541024491191" lon="2.536016972735524">
        <ele>557.22000000000003</ele>
        <time>2025-04-25T12:13:56Z</time>
      </trkpt>
      <trkpt lat="44.424456031993032" lon="2.535825027152896">
        <ele>557.70000000000005</ele>
        <time>2025-04-25T12:13:57Z</time>
      </trkpt>
      <trkpt lat="44.424398029223084" lon="2.535696029663086">
        <ele>557.70000000000005</ele>
        <time>2025-04-25T12:13:58Z</time>
      </trkpt>
      <trkpt lat="44.424283029511571" lon="2.535591004416347">
        <ele>557.70000000000005</ele>
        <time>2025-04-25T12:13:59Z</time>
      </trkpt>
      <trkpt lat="44.424192002043128" lon="2.535508023574948">
        <ele>557.70000000000005</ele>
        <time>2025-04-25T12:14:00Z</time>
      </trkpt>
      <trkpt lat="44.424095023423433" lon="2.535481033846736">
        <ele>557.70000000000005</ele>
        <time>2025-04-25T12:14:01Z</time>
      </trkpt>
      <trkpt lat="44.42398002371192" lon="2.535481033846736">
        <ele>558.17999999999995</ele>
        <time>2025-04-25T12:14:02Z</time>
      </trkpt>
      <trkpt lat="44.4238739926368" lon="2.535528978332877">
        <ele>558.17999999999995</ele>
        <time>2025-04-25T12:14:03Z</time>
      </trkpt>
      <trkpt lat="44.423797968775034" lon="2.535567032173276">
        <ele>558.17999999999995</ele>
        <time>2025-04-25T12:14:04Z</time>
      </trkpt>
      <trkpt lat="44.423681041225791" lon="2.535723019391298">
        <ele>558.17999999999995</ele>
        <time>2025-04-25T12:14:05Z</time>
      </trkpt>
      <trkpt lat="44.423583978787065" lon="2.535852016881108">
        <ele>558.17999999999995</ele>
        <time>2025-04-25T12:14:06Z</time>
      </trkpt>
      <trkpt lat="44.423521030694246" lon="2.53600699827075">
        <ele>557.22000000000003</ele>
        <time>2025-04-25T12:14:07Z</time>
      </trkpt>
      <trkpt lat="44.423479037359357" lon="2.536207996308804">
        <ele>556.74000000000001</ele>
        <time>2025-04-25T12:14:08Z</time>
      </trkpt>
      <trkpt lat="44.423437966033816" lon="2.536412011831999">
        <ele>555.77999999999997</ele>
        <time>2025-04-25T12:14:09Z</time>
      </trkpt>
      <trkpt lat="44.423396978527308" lon="2.536613009870052">
        <ele>554.82000000000005</ele>
        <time>2025-04-25T12:14:10Z</time>
      </trkpt>
      <trkpt lat="44.42335800267756" lon="2.53680101595819">
        <ele>553.86000000000001</ele>
        <time>2025-04-25T12:14:11Z</time>
      </trkpt>
      <trkpt lat="44.423319026827812" lon="2.536976030096412">
        <ele>552.40999999999997</ele>
        <time>2025-04-25T12:14:12Z</time>
      </trkpt>
      <trkpt lat="44.423261024057865" lon="2.537108967080712">
        <ele>551.45000000000005</ele>
        <time>2025-04-25T12:14:13Z</time>
      </trkpt>
      <trkpt lat="44.423155998811126" lon="2.537347013130784">
        <ele>550.00999999999999</ele>
        <time>2025-04-25T12:14:15Z</time>
      </trkpt>
      <trkpt lat="44.423109982162714" lon="2.537452038377523">
        <ele>549.04999999999995</ele>
        <time>2025-04-25T12:14:16Z</time>
      </trkpt>
      <trkpt lat="44.423061031848192" lon="2.537530995905399">
        <ele>548.09000000000003</ele>
        <time>2025-04-25T12:14:17Z</time>
      </trkpt>
      <trkpt lat="44.423011997714639" lon="2.537586987018585">
        <ele>547.61000000000001</ele>
        <time>2025-04-25T12:14:18Z</time>
      </trkpt>
      <trkpt lat="44.422967992722988" lon="2.537637026980519">
        <ele>547.13</ele>
        <time>2025-04-25T12:14:19Z</time>
      </trkpt>
      <trkpt lat="44.422938991338015" lon="2.537669967859983">
        <ele>546.64999999999998</ele>
        <time>2025-04-25T12:14:20Z</time>
      </trkpt>
      <trkpt lat="44.422876965254545" lon="2.537685977295041">
        <ele>545.69000000000005</ele>
        <time>2025-04-25T12:14:21Z</time>
      </trkpt>
      <trkpt lat="44.422835977748036" lon="2.537680026143789">
        <ele>545.20000000000005</ele>
        <time>2025-04-25T12:14:22Z</time>
      </trkpt>
      <trkpt lat="44.422786021605134" lon="2.537630992010236">
        <ele>544.24000000000001</ele>
        <time>2025-04-25T12:14:23Z</time>
      </trkpt>
      <trkpt lat="44.422768000513315" lon="2.537541976198554">
        <ele>543.75999999999999</ele>
        <time>2025-04-25T12:14:24Z</time>
      </trkpt>
      <trkpt lat="44.422802031040192" lon="2.537401998415589">
        <ele>543.27999999999997</ele>
        <time>2025-04-25T12:14:25Z</time>
      </trkpt>
      <trkpt lat="44.422837989404798" lon="2.537260008975864">
        <ele>542.32000000000005</ele>
        <time>2025-04-25T12:14:26Z</time>
      </trkpt>
      <trkpt lat="44.422877971082926" lon="2.537101004272699">
        <ele>541.36000000000001</ele>
        <time>2025-04-25T12:14:27Z</time>
      </trkpt>
      <trkpt lat="44.422893980517983" lon="2.536920960992575">
        <ele>539.91999999999996</ele>
        <time>2025-04-25T12:14:28Z</time>
      </trkpt>
      <trkpt lat="44.422890041023493" lon="2.536716023460031">
        <ele>538.48000000000002</ele>
        <time>2025-04-25T12:14:29Z</time>
      </trkpt>
      <trkpt lat="44.42288501188159" lon="2.536489963531494">
        <ele>537.02999999999997</ele>
        <time>2025-04-25T12:14:30Z</time>
      </trkpt>
      <trkpt lat="44.422779986634851" lon="2.534268004819751">
        <ele>523.58000000000004</ele>
        <time>2025-04-25T12:14:39Z</time>
      </trkpt>
      <trkpt lat="44.422878976911306" lon="2.532408982515335">
        <ele>511.56</ele>
        <time>2025-04-25T12:14:48Z</time>
      </trkpt>
      <trkpt lat="44.422961035743356" lon="2.531855022534728">
        <ele>508.67000000000002</ele>
        <time>2025-04-25T12:14:52Z</time>
      </trkpt>
      <trkpt lat="44.42292801104486" lon="2.531723007559776">
        <ele>507.70999999999998</ele>
        <time>2025-04-25T12:14:53Z</time>
      </trkpt>
      <trkpt lat="44.42290797829628" lon="2.531643966212869">
        <ele>507.23000000000002</ele>
        <time>2025-04-25T12:14:54Z</time>
      </trkpt>
      <trkpt lat="44.422894986346364" lon="2.531590992584825">
        <ele>506.75</ele>
        <time>2025-04-25T12:14:55Z</time>
      </trkpt>
      <trkpt lat="44.422894986346364" lon="2.531590992584825">
        <ele>506.26999999999998</ele>
        <time>2025-04-25T12:14:56Z</time>
      </trkpt>
      <trkpt lat="44.422863973304629" lon="2.531496025621891">
        <ele>504.82999999999998</ele>
        <time>2025-04-25T12:15:05Z</time>
      </trkpt>
      <trkpt lat="44.422789039090276" lon="2.531383037567139">
        <ele>504.35000000000002</ele>
        <time>2025-04-25T12:15:06Z</time>
      </trkpt>
      <trkpt lat="44.422730030491948" lon="2.531358981505036">
        <ele>504.35000000000002</ele>
        <time>2025-04-25T12:15:07Z</time>
      </trkpt>
      <trkpt lat="44.422511011362076" lon="2.531257979571819">
        <ele>504.82999999999998</ele>
        <time>2025-04-25T12:15:09Z</time>
      </trkpt>
      <trkpt lat="44.422398023307323" lon="2.531163012608886">
        <ele>504.82999999999998</ele>
        <time>2025-04-25T12:15:10Z</time>
      </trkpt>
      <trkpt lat="44.422275982797146" lon="2.531058993190527">
        <ele>504.82999999999998</ele>
        <time>2025-04-25T12:15:11Z</time>
      </trkpt>
      <trkpt lat="44.422164000570774" lon="2.530919015407562">
        <ele>504.82999999999998</ele>
        <time>2025-04-25T12:15:12Z</time>
      </trkpt>
      <trkpt lat="44.422046989202499" lon="2.530757999047637">
        <ele>504.82999999999998</ele>
        <time>2025-04-25T12:15:13Z</time>
      </trkpt>
      <trkpt lat="44.421668965369463" lon="2.530243014916778">
        <ele>505.79000000000002</ele>
        <time>2025-04-25T12:15:16Z</time>
      </trkpt>
      <trkpt lat="44.421514989808202" lon="2.530123991891742">
        <ele>505.79000000000002</ele>
        <time>2025-04-25T12:15:17Z</time>
      </trkpt>
      <trkpt lat="44.421361014246941" lon="2.530004968866706">
        <ele>506.26999999999998</ele>
        <time>2025-04-25T12:15:18Z</time>
      </trkpt>
      <trkpt lat="44.421064965426922" lon="2.52975401468575">
        <ele>507.23000000000002</ele>
        <time>2025-04-25T12:15:20Z</time>
      </trkpt>
      <trkpt lat="44.420926999300718" lon="2.529581012204289">
        <ele>507.70999999999998</ele>
        <time>2025-04-25T12:15:21Z</time>
      </trkpt>
      <trkpt lat="44.420806970447302" lon="2.529383031651378">
        <ele>508.19</ele>
        <time>2025-04-25T12:15:22Z</time>
      </trkpt>
      <trkpt lat="44.420702029019594" lon="2.529149008914828">
        <ele>508.19</ele>
        <time>2025-04-25T12:15:23Z</time>
      </trkpt>
      <trkpt lat="44.420597003772855" lon="2.528918003663421">
        <ele>508.67000000000002</ele>
        <time>2025-04-25T12:15:24Z</time>
      </trkpt>
      <trkpt lat="44.420512011274695" lon="2.528666965663433">
        <ele>509.16000000000003</ele>
        <time>2025-04-25T12:15:25Z</time>
      </trkpt>
      <trkpt lat="44.420434981584549" lon="2.528392961248756">
        <ele>509.16000000000003</ele>
        <time>2025-04-25T12:15:26Z</time>
      </trkpt>
      <trkpt lat="44.420278994366527" lon="2.527834977954626">
        <ele>509.63999999999999</ele>
        <time>2025-04-25T12:15:28Z</time>
      </trkpt>
      <trkpt lat="44.42017899826169" lon="2.527578994631767">
        <ele>509.63999999999999</ele>
        <time>2025-04-25T12:15:29Z</time>
      </trkpt>
      <trkpt lat="44.420060981065035" lon="2.527331979945302">
        <ele>509.63999999999999</ele>
        <time>2025-04-25T12:15:30Z</time>
      </trkpt>
      <trkpt lat="44.418776035308838" lon="2.525302972644568">
        <ele>512.51999999999998</ele>
        <time>2025-04-25T12:15:39Z</time>
      </trkpt>
      <trkpt lat="44.418608983978629" lon="2.5251579657197">
        <ele>513</ele>
        <time>2025-04-25T12:15:40Z</time>
      </trkpt>
      <trkpt lat="44.418422989547253" lon="2.525064004585147">
        <ele>513.48000000000002</ele>
        <time>2025-04-25T12:15:41Z</time>
      </trkpt>
      <trkpt lat="44.418227020651102" lon="2.5250060018152">
        <ele>513.96000000000004</ele>
        <time>2025-04-25T12:15:42Z</time>
      </trkpt>
      <trkpt lat="44.418021999299526" lon="2.524992004036903">
        <ele>514.44000000000005</ele>
        <time>2025-04-25T12:15:43Z</time>
      </trkpt>
      <trkpt lat="44.417812032625079" lon="2.524977000430226">
        <ele>515.39999999999998</ele>
        <time>2025-04-25T12:15:44Z</time>
      </trkpt>
      <trkpt lat="44.416608978062868" lon="2.525016982108355">
        <ele>519.73000000000002</ele>
        <time>2025-04-25T12:15:50Z</time>
      </trkpt>
      <trkpt lat="44.416406974196434" lon="2.525075990706682">
        <ele>520.21000000000004</ele>
        <time>2025-04-25T12:15:51Z</time>
      </trkpt>
      <trkpt lat="44.416231038048863" lon="2.525211023166776">
        <ele>521.16999999999996</ele>
        <time>2025-04-25T12:15:52Z</time>
      </trkpt>
      <trkpt lat="44.416052000597119" lon="2.525347983464599">
        <ele>521.64999999999998</ele>
        <time>2025-04-25T12:15:53Z</time>
      </trkpt>
      <trkpt lat="44.415871035307646" lon="2.525487039238215">
        <ele>522.13</ele>
        <time>2025-04-25T12:15:54Z</time>
      </trkpt>
      <trkpt lat="44.415708007290959" lon="2.525611007586122">
        <ele>522.61000000000001</ele>
        <time>2025-04-25T12:15:55Z</time>
      </trkpt>
      <trkpt lat="44.415508015081286" lon="2.525688037276268">
        <ele>523.09000000000003</ele>
        <time>2025-04-25T12:15:56Z</time>
      </trkpt>
      <trkpt lat="44.415320008993149" lon="2.52571796067059">
        <ele>523.09000000000003</ele>
        <time>2025-04-25T12:15:57Z</time>
      </trkpt>
      <trkpt lat="44.415121022611856" lon="2.52571796067059">
        <ele>523.09000000000003</ele>
        <time>2025-04-25T12:15:58Z</time>
      </trkpt>
      <trkpt lat="44.414921030402184" lon="2.525702035054565">
        <ele>523.58000000000004</ele>
        <time>2025-04-25T12:15:59Z</time>
      </trkpt>
      <trkpt lat="44.414710979908705" lon="2.525643026456237">
        <ele>524.05999999999995</ele>
        <time>2025-04-25T12:16:00Z</time>
      </trkpt>
      <trkpt lat="44.414071021601558" lon="2.525386037304997">
        <ele>524.53999999999996</ele>
        <time>2025-04-25T12:16:03Z</time>
      </trkpt>
      <trkpt lat="44.413871029391885" lon="2.52528796903789">
        <ele>524.53999999999996</ele>
        <time>2025-04-25T12:16:04Z</time>
      </trkpt>
      <trkpt lat="44.413674976676702" lon="2.525190990418196">
        <ele>524.53999999999996</ele>
        <time>2025-04-25T12:16:05Z</time>
      </trkpt>
      <trkpt lat="44.413476996123791" lon="2.525094011798501">
        <ele>524.53999999999996</ele>
        <time>2025-04-25T12:16:06Z</time>
      </trkpt>
      <trkpt lat="44.41328002139926" lon="2.524997033178806">
        <ele>524.53999999999996</ele>
        <time>2025-04-25T12:16:07Z</time>
      </trkpt>
      <trkpt lat="44.413072988390923" lon="2.524946993216872">
        <ele>525.01999999999998</ele>
        <time>2025-04-25T12:16:08Z</time>
      </trkpt>
      <trkpt lat="44.412866961210966" lon="2.524916986003518">
        <ele>525.01999999999998</ele>
        <time>2025-04-25T12:16:09Z</time>
      </trkpt>
      <trkpt lat="44.412667974829674" lon="2.524888990446925">
        <ele>525.98000000000002</ele>
        <time>2025-04-25T12:16:10Z</time>
      </trkpt>
      <trkpt lat="44.411394009366632" lon="2.524709030985832">
        <ele>530.29999999999995</ele>
        <time>2025-04-25T12:16:18Z</time>
      </trkpt>
      <trkpt lat="44.411255959421396" lon="2.524640969932079">
        <ele>530.78999999999996</ele>
        <time>2025-04-25T12:16:19Z</time>
      </trkpt>
      <trkpt lat="44.411130985245109" lon="2.524527981877327">
        <ele>531.26999999999998</ele>
        <time>2025-04-25T12:16:20Z</time>
      </trkpt>
      <trkpt lat="44.411021014675498" lon="2.524380963295698">
        <ele>531.75</ele>
        <time>2025-04-25T12:16:21Z</time>
      </trkpt>
      <trkpt lat="44.41091800108552" lon="2.524220030754805">
        <ele>531.75</ele>
        <time>2025-04-25T12:16:22Z</time>
      </trkpt>
      <trkpt lat="44.410836026072502" lon="2.524031018838286">
        <ele>531.75</ele>
        <time>2025-04-25T12:16:23Z</time>
      </trkpt>
      <trkpt lat="44.410764025524259" lon="2.523850975558162">
        <ele>531.75</ele>
        <time>2025-04-25T12:16:24Z</time>
      </trkpt>
      <trkpt lat="44.410636033862829" lon="2.52352399751544">
        <ele>532.23000000000002</ele>
        <time>2025-04-25T12:16:26Z</time>
      </trkpt>
      <trkpt lat="44.410598985850811" lon="2.523370021954179">
        <ele>532.71000000000004</ele>
        <time>2025-04-25T12:16:27Z</time>
      </trkpt>
      <trkpt lat="44.410590017214417" lon="2.523226020857692">
        <ele>533.19000000000005</ele>
        <time>2025-04-25T12:16:28Z</time>
      </trkpt>
      <trkpt lat="44.410600997507572" lon="2.521662041544914">
        <ele>539.44000000000005</ele>
        <time>2025-04-25T12:16:38Z</time>
      </trkpt>
      <trkpt lat="44.410580964758992" lon="2.521337997168303">
        <ele>541.84000000000003</ele>
        <time>2025-04-25T12:16:40Z</time>
      </trkpt>
      <trkpt lat="44.410526985302567" lon="2.521196007728577">
        <ele>542.79999999999995</ele>
        <time>2025-04-25T12:16:41Z</time>
      </trkpt>
      <trkpt lat="44.410440986976027" lon="2.521112021058798">
        <ele>543.75999999999999</ele>
        <time>2025-04-25T12:16:42Z</time>
      </trkpt>
      <trkpt lat="44.410345014184713" lon="2.521039014682174">
        <ele>544.24000000000001</ele>
        <time>2025-04-25T12:16:43Z</time>
      </trkpt>
      <trkpt lat="44.41025298088789" lon="2.520969025790691">
        <ele>545.20000000000005</ele>
        <time>2025-04-25T12:16:44Z</time>
      </trkpt>
      <trkpt lat="44.410170000046492" lon="2.520904988050461">
        <ele>546.16999999999996</ele>
        <time>2025-04-25T12:16:45Z</time>
      </trkpt>
      <trkpt lat="44.410108979791403" lon="2.520813960582018">
        <ele>547.13</ele>
        <time>2025-04-25T12:16:46Z</time>
      </trkpt>
      <trkpt lat="44.410053994506598" lon="2.520712958648801">
        <ele>548.09000000000003</ele>
        <time>2025-04-25T12:16:47Z</time>
      </trkpt>
      <trkpt lat="44.409898007288575" lon="2.520310962572694">
        <ele>550.49000000000001</ele>
        <time>2025-04-25T12:16:50Z</time>
      </trkpt>
      <trkpt lat="44.409863976761699" lon="2.520162016153336">
        <ele>550.97000000000003</ele>
        <time>2025-04-25T12:16:51Z</time>
      </trkpt>
      <trkpt lat="44.409845033660531" lon="2.520005023106933">
        <ele>551.92999999999995</ele>
        <time>2025-04-25T12:16:52Z</time>
      </trkpt>
      <trkpt lat="44.409806979820132" lon="2.519689025357366">
        <ele>553.38</ele>
        <time>2025-04-25T12:16:54Z</time>
      </trkpt>
      <trkpt lat="44.409751994535327" lon="2.519541000947356">
        <ele>553.86000000000001</ele>
        <time>2025-04-25T12:16:55Z</time>
      </trkpt>
      <trkpt lat="44.409679993987083" lon="2.519426001235843">
        <ele>554.34000000000003</ele>
        <time>2025-04-25T12:16:56Z</time>
      </trkpt>
      <trkpt lat="44.409598018974066" lon="2.519307984039187">
        <ele>554.82000000000005</ele>
        <time>2025-04-25T12:16:57Z</time>
      </trkpt>
      <trkpt lat="44.409507997334003" lon="2.519198013469577">
        <ele>555.29999999999995</ele>
        <time>2025-04-25T12:16:58Z</time>
      </trkpt>
      <trkpt lat="44.409400960430503" lon="2.519094999879599">
        <ele>555.77999999999997</ele>
        <time>2025-04-25T12:16:59Z</time>
      </trkpt>
      <trkpt lat="44.408026998862624" lon="2.517933016642928">
        <ele>560.11000000000001</ele>
        <time>2025-04-25T12:17:11Z</time>
      </trkpt>
      <trkpt lat="44.407385028898716" lon="2.517295992001891">
        <ele>560.59000000000003</ele>
        <time>2025-04-25T12:17:16Z</time>
      </trkpt>
      <trkpt lat="44.407248990610242" lon="2.517136987298727">
        <ele>560.11000000000001</ele>
        <time>2025-04-25T12:17:17Z</time>
      </trkpt>
      <trkpt lat="44.407141031697392" lon="2.516922997310758">
        <ele>560.11000000000001</ele>
        <time>2025-04-25T12:17:18Z</time>
      </trkpt>
      <trkpt lat="44.407048998400569" lon="2.516689980402589">
        <ele>559.62</ele>
        <time>2025-04-25T12:17:19Z</time>
      </trkpt>
      <trkpt lat="44.406972974538803" lon="2.516439026221633">
        <ele>559.13999999999999</ele>
        <time>2025-04-25T12:17:20Z</time>
      </trkpt>
      <trkpt lat="44.406895022839308" lon="2.516181031242013">
        <ele>559.13999999999999</ele>
        <time>2025-04-25T12:17:21Z</time>
      </trkpt>
      <trkpt lat="44.406796032562852" lon="2.515923036262393">
        <ele>558.65999999999997</ele>
        <time>2025-04-25T12:17:22Z</time>
      </trkpt>
      <trkpt lat="44.406674997881055" lon="2.515694964677095">
        <ele>559.13999999999999</ele>
        <time>2025-04-25T12:17:23Z</time>
      </trkpt>
      <trkpt lat="44.40653401426971" lon="2.515492960810661">
        <ele>558.65999999999997</ele>
        <time>2025-04-25T12:17:24Z</time>
      </trkpt>
      <trkpt lat="44.406377021223307" lon="2.515333034098148">
        <ele>558.65999999999997</ele>
        <time>2025-04-25T12:17:25Z</time>
      </trkpt>
      <trkpt lat="44.406201001256704" lon="2.515211999416351">
        <ele>558.65999999999997</ele>
        <time>2025-04-25T12:17:26Z</time>
      </trkpt>
      <trkpt lat="44.406021041795611" lon="2.515088031068444">
        <ele>559.13999999999999</ele>
        <time>2025-04-25T12:17:27Z</time>
      </trkpt>
      <trkpt lat="44.405472027137876" lon="2.514682011678815">
        <ele>560.59000000000003</ele>
        <time>2025-04-25T12:17:30Z</time>
      </trkpt>
      <trkpt lat="44.405301958322525" lon="2.514496017247438">
        <ele>561.07000000000005</ele>
        <time>2025-04-25T12:17:31Z</time>
      </trkpt>
      <trkpt lat="44.404317000880837" lon="2.513513993471861">
        <ele>565.38999999999999</ele>
        <time>2025-04-25T12:17:37Z</time>
      </trkpt>
      <trkpt lat="44.40414902754128" lon="2.51346998848021">
        <ele>566.83000000000004</ele>
        <time>2025-04-25T12:17:38Z</time>
      </trkpt>
      <trkpt lat="44.403976025059819" lon="2.513424977660179">
        <ele>567.79999999999995</ele>
        <time>2025-04-25T12:17:39Z</time>
      </trkpt>
      <trkpt lat="44.403801010921597" lon="2.513407962396741">
        <ele>568.75999999999999</ele>
        <time>2025-04-25T12:17:40Z</time>
      </trkpt>
      <trkpt lat="44.403622979298234" lon="2.513422966003418">
        <ele>569.72000000000003</ele>
        <time>2025-04-25T12:17:41Z</time>
      </trkpt>
      <trkpt lat="44.402043996378779" lon="2.513402011245489">
        <ele>574.52999999999997</ele>
        <time>2025-04-25T12:17:50Z</time>
      </trkpt>
      <trkpt lat="44.400381026789546" lon="2.512989034876227">
        <ele>575.97000000000003</ele>
        <time>2025-04-25T12:17:59Z</time>
      </trkpt>
      <trkpt lat="44.398682015016675" lon="2.512272968888283">
        <ele>575.00999999999999</ele>
        <time>2025-04-25T12:18:08Z</time>
      </trkpt>
      <trkpt lat="44.396938998252153" lon="2.511120960116386">
        <ele>575.97000000000003</ele>
        <time>2025-04-25T12:18:17Z</time>
      </trkpt>
      <trkpt lat="44.396316977217793" lon="2.510823989287019">
        <ele>576.45000000000005</ele>
        <time>2025-04-25T12:18:20Z</time>
      </trkpt>
      <trkpt lat="44.394874032586813" lon="2.510274974629283">
        <ele>577.40999999999997</ele>
        <time>2025-04-25T12:18:28Z</time>
      </trkpt>
      <trkpt lat="44.394747968763113" lon="2.510176990181208">
        <ele>577.40999999999997</ele>
        <time>2025-04-25T12:18:29Z</time>
      </trkpt>
      <trkpt lat="44.394656019285321" lon="2.510076994076371">
        <ele>576.92999999999995</ele>
        <time>2025-04-25T12:18:30Z</time>
      </trkpt>
      <trkpt lat="44.394573038443923" lon="2.509960988536477">
        <ele>576.45000000000005</ele>
        <time>2025-04-25T12:18:31Z</time>
      </trkpt>
      <trkpt lat="44.394501037895679" lon="2.50985998660326">
        <ele>576.45000000000005</ele>
        <time>2025-04-25T12:18:32Z</time>
      </trkpt>
      <trkpt lat="44.394442029297352" lon="2.50977298244834">
        <ele>575.97000000000003</ele>
        <time>2025-04-25T12:18:33Z</time>
      </trkpt>
      <trkpt lat="44.394397018477321" lon="2.509696958586574">
        <ele>575.97000000000003</ele>
        <time>2025-04-25T12:18:34Z</time>
      </trkpt>
      <trkpt lat="44.394368017092347" lon="2.50958195887506">
        <ele>574.52999999999997</ele>
        <time>2025-04-25T12:18:39Z</time>
      </trkpt>
      <trkpt lat="44.39433197490871" lon="2.509444998577237">
        <ele>574.03999999999996</ele>
        <time>2025-04-25T12:18:52Z</time>
      </trkpt>
      <trkpt lat="44.394218986853957" lon="2.509423960000277">
        <ele>574.03999999999996</ele>
        <time>2025-04-25T12:18:53Z</time>
      </trkpt>
      <trkpt lat="44.394150003790855" lon="2.509476011618972">
        <ele>574.03999999999996</ele>
        <time>2025-04-25T12:18:54Z</time>
      </trkpt>
      <trkpt lat="44.394062999635935" lon="2.509542983025312">
        <ele>574.03999999999996</ele>
        <time>2025-04-25T12:18:55Z</time>
      </trkpt>
      <trkpt lat="44.393957974389195" lon="2.509623030200601">
        <ele>574.03999999999996</ele>
        <time>2025-04-25T12:18:56Z</time>
      </trkpt>
      <trkpt lat="44.392983997240663" lon="2.510300958529115">
        <ele>572.60000000000002</ele>
        <time>2025-04-25T12:19:03Z</time>
      </trkpt>
      <trkpt lat="44.391162022948265" lon="2.511379960924387">
        <ele>573.55999999999995</ele>
        <time>2025-04-25T12:19:13Z</time>
      </trkpt>
      <trkpt lat="44.388989014551044" lon="2.51297403126955">
        <ele>588.46000000000004</ele>
        <time>2025-04-25T12:19:25Z</time>
      </trkpt>
      <trkpt lat="44.387294026091695" lon="2.514880998060107">
        <ele>600.96000000000004</ele>
        <time>2025-04-25T12:19:36Z</time>
      </trkpt>
      <trkpt lat="44.387201992794871" lon="2.514983005821705">
        <ele>601.44000000000005</ele>
        <time>2025-04-25T12:19:37Z</time>
      </trkpt>
      <trkpt lat="44.387143990024924" lon="2.515046959742904">
        <ele>602.39999999999998</ele>
        <time>2025-04-25T12:19:38Z</time>
      </trkpt>
      <trkpt lat="44.387040976434946" lon="2.514936989173293">
        <ele>603.36000000000001</ele>
        <time>2025-04-25T12:19:40Z</time>
      </trkpt>
      <trkpt lat="44.387040976434946" lon="2.514836993068457">
        <ele>604.80999999999995</ele>
        <time>2025-04-25T12:19:41Z</time>
      </trkpt>
      <trkpt lat="44.387064026668668" lon="2.514727022498846">
        <ele>604.80999999999995</ele>
        <time>2025-04-25T12:19:42Z</time>
      </trkpt>
      <trkpt lat="44.38711297698319" lon="2.514578998088837">
        <ele>605.28999999999996</ele>
        <time>2025-04-25T12:19:43Z</time>
      </trkpt>
      <trkpt lat="44.387168968096375" lon="2.514410018920898">
        <ele>605.28999999999996</ele>
        <time>2025-04-25T12:19:44Z</time>
      </trkpt>
      <trkpt lat="44.387363009154797" lon="2.513830997049809">
        <ele>604.33000000000004</ele>
        <time>2025-04-25T12:19:47Z</time>
      </trkpt>
      <trkpt lat="44.387406008318067" lon="2.513570990413427">
        <ele>604.80999999999995</ele>
        <time>2025-04-25T12:19:48Z</time>
      </trkpt>
      <trkpt lat="44.387446995824575" lon="2.513325987383723">
        <ele>604.80999999999995</ele>
        <time>2025-04-25T12:19:49Z</time>
      </trkpt>
      <trkpt lat="44.387471973896027" lon="2.513067992404103">
        <ele>604.80999999999995</ele>
        <time>2025-04-25T12:19:50Z</time>
      </trkpt>
      <trkpt lat="44.38747700303793" lon="2.512799017131329">
        <ele>605.28999999999996</ele>
        <time>2025-04-25T12:19:51Z</time>
      </trkpt>
      <trkpt lat="44.387482032179832" lon="2.512527024373412">
        <ele>606.25</ele>
        <time>2025-04-25T12:19:52Z</time>
      </trkpt>
      <trkpt lat="44.387440960854292" lon="2.511488003656268">
        <ele>605.76999999999998</ele>
        <time>2025-04-25T12:19:56Z</time>
      </trkpt>
      <trkpt lat="44.387393016368151" lon="2.511230008676648">
        <ele>605.28999999999996</ele>
        <time>2025-04-25T12:19:57Z</time>
      </trkpt>
      <trkpt lat="44.387313975021243" lon="2.510972013697028">
        <ele>604.80999999999995</ele>
        <time>2025-04-25T12:19:58Z</time>
      </trkpt>
      <trkpt lat="44.386502020061016" lon="2.508887015283108">
        <ele>602.88</ele>
        <time>2025-04-25T12:20:06Z</time>
      </trkpt>
      <trkpt lat="44.385667014867067" lon="2.507222034037113">
        <ele>599.51999999999998</ele>
        <time>2025-04-25T12:20:13Z</time>
      </trkpt>
      <trkpt lat="44.385619992390275" lon="2.506954986602068">
        <ele>599.03999999999996</ele>
        <time>2025-04-25T12:20:14Z</time>
      </trkpt>
      <trkpt lat="44.385572969913483" lon="2.506696991622448">
        <ele>598.55999999999995</ele>
        <time>2025-04-25T12:20:15Z</time>
      </trkpt>
      <trkpt lat="44.385527037084103" lon="2.506436984986067">
        <ele>598.08000000000004</ele>
        <time>2025-04-25T12:20:16Z</time>
      </trkpt>
      <trkpt lat="44.385503986850381" lon="2.506178990006447">
        <ele>597.60000000000002</ele>
        <time>2025-04-25T12:20:17Z</time>
      </trkpt>
      <trkpt lat="44.385426035150886" lon="2.505004014819861">
        <ele>596.63999999999999</ele>
        <time>2025-04-25T12:20:23Z</time>
      </trkpt>
      <trkpt lat="44.385349005460739" lon="2.504888009279966">
        <ele>596.14999999999998</ele>
        <time>2025-04-25T12:20:24Z</time>
      </trkpt>
      <trkpt lat="44.385256972163916" lon="2.504749959334731">
        <ele>596.14999999999998</ele>
        <time>2025-04-25T12:20:25Z</time>
      </trkpt>
      <trkpt lat="44.38470502384007" lon="2.503954013809562">
        <ele>594.23000000000002</ele>
        <time>2025-04-25T12:20:30Z</time>
      </trkpt>
      <trkpt lat="44.384562028571963" lon="2.503832979127765">
        <ele>594.23000000000002</ele>
        <time>2025-04-25T12:20:31Z</time>
      </trkpt>
      <trkpt lat="44.384394977241755" lon="2.503727031871676">
        <ele>593.75</ele>
        <time>2025-04-25T12:20:32Z</time>
      </trkpt>
      <trkpt lat="44.382921019569039" lon="2.502779960632324">
        <ele>589.42999999999995</ele>
        <time>2025-04-25T12:20:40Z</time>
      </trkpt>
      <trkpt lat="44.381727017462254" lon="2.502354998141527">
        <ele>586.53999999999996</ele>
        <time>2025-04-25T12:20:46Z</time>
      </trkpt>
      <trkpt lat="44.381541023030877" lon="2.502246033400297">
        <ele>586.05999999999995</ele>
        <time>2025-04-25T12:20:47Z</time>
      </trkpt>
      <trkpt lat="44.381357040256262" lon="2.502111000940204">
        <ele>585.58000000000004</ele>
        <time>2025-04-25T12:20:48Z</time>
      </trkpt>
      <trkpt lat="44.379608994349837" lon="2.5004499591887">
        <ele>581.73000000000002</ele>
        <time>2025-04-25T12:20:58Z</time>
      </trkpt>
      <trkpt lat="44.379416964948177" lon="2.500359015539289">
        <ele>581.25</ele>
        <time>2025-04-25T12:20:59Z</time>
      </trkpt>
      <trkpt lat="44.378020036965609" lon="2.499769013375044">
        <ele>578.85000000000002</ele>
        <time>2025-04-25T12:21:06Z</time>
      </trkpt>
      <trkpt lat="44.377854997292161" lon="2.499682009220123">
        <ele>578.85000000000002</ele>
        <time>2025-04-25T12:21:07Z</time>
      </trkpt>
      <trkpt lat="44.377718959003687" lon="2.499560974538326">
        <ele>578.85000000000002</ele>
        <time>2025-04-25T12:21:08Z</time>
      </trkpt>
      <trkpt lat="44.377601025626063" lon="2.499414039775729">
        <ele>579.33000000000004</ele>
        <time>2025-04-25T12:21:09Z</time>
      </trkpt>
      <trkpt lat="44.377511003986001" lon="2.499214969575405">
        <ele>579.80999999999995</ele>
        <time>2025-04-25T12:21:10Z</time>
      </trkpt>
      <trkpt lat="44.377413019537926" lon="2.498997962102294">
        <ele>580.28999999999996</ele>
        <time>2025-04-25T12:21:11Z</time>
      </trkpt>
      <trkpt lat="44.376818994060159" lon="2.497785016894341">
        <ele>582.70000000000005</ele>
        <time>2025-04-25T12:21:17Z</time>
      </trkpt>
      <trkpt lat="44.376732995733619" lon="2.497682003304362">
        <ele>583.17999999999995</ele>
        <time>2025-04-25T12:21:18Z</time>
      </trkpt>
      <trkpt lat="44.376624030992389" lon="2.497610002756119">
        <ele>583.65999999999997</ele>
        <time>2025-04-25T12:21:19Z</time>
      </trkpt>
      <trkpt lat="44.376510959118605" lon="2.497533978894353">
        <ele>584.13999999999999</ele>
        <time>2025-04-25T12:21:20Z</time>
      </trkpt>
      <trkpt lat="44.376389002427459" lon="2.497453009709716">
        <ele>584.13999999999999</ele>
        <time>2025-04-25T12:21:21Z</time>
      </trkpt>
      <trkpt lat="44.376265034079552" lon="2.497347984462977">
        <ele>584.13999999999999</ele>
        <time>2025-04-25T12:21:22Z</time>
      </trkpt>
      <trkpt lat="44.376137964427471" lon="2.497220998629928">
        <ele>584.13999999999999</ele>
        <time>2025-04-25T12:21:23Z</time>
      </trkpt>
      <trkpt lat="44.375996980816126" lon="2.497080015018582">
        <ele>584.13999999999999</ele>
        <time>2025-04-25T12:21:24Z</time>
      </trkpt>
      <trkpt lat="44.375873012468219" lon="2.496895026415587">
        <ele>583.65999999999997</ele>
        <time>2025-04-25T12:21:25Z</time>
      </trkpt>
      <trkpt lat="44.37574896030128" lon="2.496693022549152">
        <ele>583.17999999999995</ele>
        <time>2025-04-25T12:21:26Z</time>
      </trkpt>
      <trkpt lat="44.374719997867942" lon="2.494939025491476">
        <ele>578.37</ele>
        <time>2025-04-25T12:21:34Z</time>
      </trkpt>
      <trkpt lat="44.374616984277964" lon="2.494754958897829">
        <ele>578.37</ele>
        <time>2025-04-25T12:21:35Z</time>
      </trkpt>
      <trkpt lat="44.3745650164783" lon="2.494539963081479">
        <ele>578.37</ele>
        <time>2025-04-25T12:21:36Z</time>
      </trkpt>
      <trkpt lat="44.374520005658269" lon="2.494354974478483">
        <ele>578.37</ele>
        <time>2025-04-25T12:21:37Z</time>
      </trkpt>
      <trkpt lat="44.374483041465282" lon="2.494199993088841">
        <ele>578.37</ele>
        <time>2025-04-25T12:21:38Z</time>
      </trkpt>
      <trkpt lat="44.374462002888322" lon="2.49406898394227">
        <ele>578.37</ele>
        <time>2025-04-25T12:21:39Z</time>
      </trkpt>
      <trkpt lat="44.374453034251928" lon="2.493933029472828">
        <ele>578.37</ele>
        <time>2025-04-25T12:21:40Z</time>
      </trkpt>
      <trkpt lat="44.374444987624884" lon="2.49381098896265">
        <ele>578.37</ele>
        <time>2025-04-25T12:21:41Z</time>
      </trkpt>
      <trkpt lat="44.37445898540318" lon="2.493650978431106">
        <ele>578.37</ele>
        <time>2025-04-25T12:21:42Z</time>
      </trkpt>
      <trkpt lat="44.374472983181477" lon="2.493491973727942">
        <ele>578.85000000000002</ele>
        <time>2025-04-25T12:21:43Z</time>
      </trkpt>
      <trkpt lat="44.374598041176796" lon="2.492071995511651">
        <ele>580.28999999999996</ele>
        <time>2025-04-25T12:21:50Z</time>
      </trkpt>
      <trkpt lat="44.374973969534039" lon="2.489347960799933">
        <ele>575.97000000000003</ele>
        <time>2025-04-25T12:22:00Z</time>
      </trkpt>
      <trkpt lat="44.375141020864248" lon="2.488559978082776">
        <ele>575.00999999999999</ele>
        <time>2025-04-25T12:22:03Z</time>
      </trkpt>
      <trkpt lat="44.375230958685279" lon="2.488332996144891">
        <ele>574.52999999999997</ele>
        <time>2025-04-25T12:22:04Z</time>
      </trkpt>
      <trkpt lat="44.375320980325341" lon="2.488102996721864">
        <ele>574.52999999999997</ele>
        <time>2025-04-25T12:22:05Z</time>
      </trkpt>
      <trkpt lat="44.375438997521996" lon="2.487884983420372">
        <ele>574.03999999999996</ele>
        <time>2025-04-25T12:22:06Z</time>
      </trkpt>
      <trkpt lat="44.375567995011806" lon="2.487668981775641">
        <ele>573.55999999999995</ele>
        <time>2025-04-25T12:22:07Z</time>
      </trkpt>
      <trkpt lat="44.376651020720601" lon="2.485703006386757">
        <ele>571.63999999999999</ele>
        <time>2025-04-25T12:22:16Z</time>
      </trkpt>
      <trkpt lat="44.377277987077832" lon="2.483728984370828">
        <ele>570.20000000000005</ele>
        <time>2025-04-25T12:22:24Z</time>
      </trkpt>
      <trkpt lat="44.37731402926147" lon="2.483481969684362">
        <ele>570.20000000000005</ele>
        <time>2025-04-25T12:22:25Z</time>
      </trkpt>
      <trkpt lat="44.377417964860797" lon="2.48266096226871">
        <ele>570.67999999999995</ele>
        <time>2025-04-25T12:22:28Z</time>
      </trkpt>
      <trkpt lat="44.377910988405347" lon="2.48025300912559">
        <ele>571.15999999999997</ele>
        <time>2025-04-25T12:22:36Z</time>
      </trkpt>
      <trkpt lat="44.378194967284799" lon="2.478321986272931">
        <ele>571.63999999999999</ele>
        <time>2025-04-25T12:22:43Z</time>
      </trkpt>
      <trkpt lat="44.378554970026016" lon="2.476461036130786">
        <ele>576.45000000000005</ele>
        <time>2025-04-25T12:22:50Z</time>
      </trkpt>
      <trkpt lat="44.37862697057426" lon="2.476032972335815">
        <ele>577.40999999999997</ele>
        <time>2025-04-25T12:22:52Z</time>
      </trkpt>
      <trkpt lat="44.378636023029685" lon="2.475787969306111">
        <ele>577.88999999999999</ele>
        <time>2025-04-25T12:22:53Z</time>
      </trkpt>
      <trkpt lat="44.378595035523176" lon="2.475555958226323">
        <ele>577.40999999999997</ele>
        <time>2025-04-25T12:22:54Z</time>
      </trkpt>
      <trkpt lat="44.378552958369255" lon="2.475317995995283">
        <ele>576.92999999999995</ele>
        <time>2025-04-25T12:22:55Z</time>
      </trkpt>
      <trkpt lat="44.378510965034366" lon="2.475081039592624">
        <ele>576.45000000000005</ele>
        <time>2025-04-25T12:22:56Z</time>
      </trkpt>
      <trkpt lat="44.378470983356237" lon="2.474853973835707">
        <ele>575.97000000000003</ele>
        <time>2025-04-25T12:22:57Z</time>
      </trkpt>
      <trkpt lat="44.378466038033366" lon="2.474637972190976">
        <ele>575.00999999999999</ele>
        <time>2025-04-25T12:22:58Z</time>
      </trkpt>
      <trkpt lat="44.378479029983282" lon="2.474434040486813">
        <ele>574.03999999999996</ele>
        <time>2025-04-25T12:22:59Z</time>
      </trkpt>
      <trkpt lat="44.378552036359906" lon="2.47421502135694">
        <ele>573.08000000000004</ele>
        <time>2025-04-25T12:23:00Z</time>
      </trkpt>
      <trkpt lat="44.378629988059402" lon="2.473983010277152">
        <ele>572.12</ele>
        <time>2025-04-25T12:23:01Z</time>
      </trkpt>
      <trkpt lat="44.379448983818293" lon="2.472118036821485">
        <ele>567.32000000000005</ele>
        <time>2025-04-25T12:23:09Z</time>
      </trkpt>
      <trkpt lat="44.380123978480697" lon="2.470579035580158">
        <ele>567.79999999999995</ele>
        <time>2025-04-25T12:23:16Z</time>
      </trkpt>
      <trkpt lat="44.380291029810905" lon="2.470000013709068">
        <ele>567.79999999999995</ele>
        <time>2025-04-25T12:23:20Z</time>
      </trkpt>
      <trkpt lat="44.380313996225595" lon="2.469867998734117">
        <ele>567.79999999999995</ele>
        <time>2025-04-25T12:23:21Z</time>
      </trkpt>
      <trkpt lat="44.380337968468666" lon="2.469736989587545">
        <ele>567.79999999999995</ele>
        <time>2025-04-25T12:23:22Z</time>
      </trkpt>
      <trkpt lat="44.380339980125427" lon="2.469619978219271">
        <ele>567.79999999999995</ele>
        <time>2025-04-25T12:23:23Z</time>
      </trkpt>
      <trkpt lat="44.380330005660653" lon="2.469501961022615">
        <ele>567.79999999999995</ele>
        <time>2025-04-25T12:23:24Z</time>
      </trkpt>
      <trkpt lat="44.380319025367498" lon="2.469378998503089">
        <ele>567.32000000000005</ele>
        <time>2025-04-25T12:23:25Z</time>
      </trkpt>
      <trkpt lat="44.380307961255312" lon="2.469253018498421">
        <ele>567.32000000000005</ele>
        <time>2025-04-25T12:23:26Z</time>
      </trkpt>
      <trkpt lat="44.380296980962157" lon="2.469119997695088">
        <ele>567.32000000000005</ele>
        <time>2025-04-25T12:23:27Z</time>
      </trkpt>
      <trkpt lat="44.380191033706069" lon="2.467373963445425">
        <ele>569.72000000000003</ele>
        <time>2025-04-25T12:23:39Z</time>
      </trkpt>
      <trkpt lat="44.380488004535437" lon="2.466024979948998">
        <ele>567.79999999999995</ele>
        <time>2025-04-25T12:23:46Z</time>
      </trkpt>
      <trkpt lat="44.380586994811893" lon="2.465576967224479">
        <ele>568.27999999999997</ele>
        <time>2025-04-25T12:23:48Z</time>
      </trkpt>
      <trkpt lat="44.380925036966801" lon="2.463253000751138">
        <ele>567.79999999999995</ele>
        <time>2025-04-25T12:23:57Z</time>
      </trkpt>
      <trkpt lat="44.38114196062088" lon="2.462130999192596">
        <ele>565.38999999999999</ele>
        <time>2025-04-25T12:24:01Z</time>
      </trkpt>
      <trkpt lat="44.382086014375091" lon="2.459272015839815">
        <ele>569.72000000000003</ele>
        <time>2025-04-25T12:24:12Z</time>
      </trkpt>
      <trkpt lat="44.382487004622817" lon="2.458054963499308">
        <ele>568.75999999999999</ele>
        <time>2025-04-25T12:24:19Z</time>
      </trkpt>
      <trkpt lat="44.382478035986423" lon="2.457789005711675">
        <ele>567.79999999999995</ele>
        <time>2025-04-25T12:24:24Z</time>
      </trkpt>
      <trkpt lat="44.382132031023502" lon="2.457035975530744">
        <ele>567.32000000000005</ele>
        <time>2025-04-25T12:24:30Z</time>
      </trkpt>
      <trkpt lat="44.381395010277629" lon="2.455235039815307">
        <ele>571.63999999999999</ele>
        <time>2025-04-25T12:24:39Z</time>
      </trkpt>
      <trkpt lat="44.380526980385184" lon="2.452897997573018">
        <ele>578.37</ele>
        <time>2025-04-25T12:24:50Z</time>
      </trkpt>
      <trkpt lat="44.380275020375848" lon="2.452327022328973">
        <ele>582.22000000000003</ele>
        <time>2025-04-25T12:24:54Z</time>
      </trkpt>
      <trkpt lat="44.380264040082693" lon="2.452058969065547">
        <ele>583.65999999999997</ele>
        <time>2025-04-25T12:24:57Z</time>
      </trkpt>
      <trkpt lat="44.380283989012241" lon="2.451985962688923">
        <ele>584.13999999999999</ele>
        <time>2025-04-25T12:24:58Z</time>
      </trkpt>
      <trkpt lat="44.380313996225595" lon="2.451881021261215">
        <ele>584.62</ele>
        <time>2025-04-25T12:24:59Z</time>
      </trkpt>
      <trkpt lat="44.380349032580853" lon="2.451755041256547">
        <ele>584.62</ele>
        <time>2025-04-25T12:25:00Z</time>
      </trkpt>
      <trkpt lat="44.380392031744123" lon="2.451606011018157">
        <ele>585.10000000000002</ele>
        <time>2025-04-25T12:25:01Z</time>
      </trkpt>
      <trkpt lat="44.380770977586508" lon="2.45034696534276">
        <ele>583.17999999999995</ele>
        <time>2025-04-25T12:25:07Z</time>
      </trkpt>
      <trkpt lat="44.381379000842571" lon="2.447952004149556">
        <ele>574.52999999999997</ele>
        <time>2025-04-25T12:25:15Z</time>
      </trkpt>
      <trkpt lat="44.38144002109766" lon="2.447621002793312">
        <ele>572.60000000000002</ele>
        <time>2025-04-25T12:25:16Z</time>
      </trkpt>
      <trkpt lat="44.381444966420531" lon="2.4472969584167">
        <ele>571.15999999999997</ele>
        <time>2025-04-25T12:25:17Z</time>
      </trkpt>
      <trkpt lat="44.381417976692319" lon="2.446959000080824">
        <ele>568.75999999999999</ele>
        <time>2025-04-25T12:25:18Z</time>
      </trkpt>
      <trkpt lat="44.381390986964107" lon="2.446617018431425">
        <ele>566.83000000000004</ele>
        <time>2025-04-25T12:25:19Z</time>
      </trkpt>
      <trkpt lat="44.38133399002254" lon="2.446300014853478">
        <ele>564.90999999999997</ele>
        <time>2025-04-25T12:25:20Z</time>
      </trkpt>
      <trkpt lat="44.381238017231226" lon="2.445994997397065">
        <ele>562.50999999999999</ele>
        <time>2025-04-25T12:25:21Z</time>
      </trkpt>
      <trkpt lat="44.381141038611531" lon="2.445686962455511">
        <ele>560.11000000000001</ele>
        <time>2025-04-25T12:25:22Z</time>
      </trkpt>
      <trkpt lat="44.381008017808199" lon="2.445413963869214">
        <ele>557.70000000000005</ele>
        <time>2025-04-25T12:25:23Z</time>
      </trkpt>
      <trkpt lat="44.380864016711712" lon="2.445147000253201">
        <ele>555.77999999999997</ele>
        <time>2025-04-25T12:25:24Z</time>
      </trkpt>
      <trkpt lat="44.380681961774826" lon="2.444936027750373">
        <ele>553.38</ele>
        <time>2025-04-25T12:25:25Z</time>
      </trkpt>
      <trkpt lat="44.380489010363817" lon="2.444733018055558">
        <ele>550.97000000000003</ele>
        <time>2025-04-25T12:25:26Z</time>
      </trkpt>
      <trkpt lat="44.380288012325764" lon="2.444572001695633">
        <ele>549.52999999999997</ele>
        <time>2025-04-25T12:25:27Z</time>
      </trkpt>
      <trkpt lat="44.380075028166175" lon="2.444422971457243">
        <ele>547.61000000000001</ele>
        <time>2025-04-25T12:25:28Z</time>
      </trkpt>
      <trkpt lat="44.3798509798944" lon="2.444316018372774">
        <ele>545.69000000000005</ele>
        <time>2025-04-25T12:25:29Z</time>
      </trkpt>
      <trkpt lat="44.379618968814611" lon="2.444230020046234">
        <ele>543.75999999999999</ele>
        <time>2025-04-25T12:25:30Z</time>
      </trkpt>
      <trkpt lat="44.379385029897094" lon="2.444144021719694">
        <ele>541.84000000000003</ele>
        <time>2025-04-25T12:25:31Z</time>
      </trkpt>
      <trkpt lat="44.378699976950884" lon="2.443825006484985">
        <ele>536.07000000000005</ele>
        <time>2025-04-25T12:25:34Z</time>
      </trkpt>
      <trkpt lat="44.37849503941834" lon="2.443658960983157">
        <ele>534.63</ele>
        <time>2025-04-25T12:25:35Z</time>
      </trkpt>
      <trkpt lat="44.37830401584506" lon="2.44346802122891">
        <ele>533.19000000000005</ele>
        <time>2025-04-25T12:25:36Z</time>
      </trkpt>
      <trkpt lat="44.378134030848742" lon="2.44325403124094">
        <ele>532.23000000000002</ele>
        <time>2025-04-25T12:25:37Z</time>
      </trkpt>
      <trkpt lat="44.377989023923874" lon="2.443011039867997">
        <ele>530.78999999999996</ele>
        <time>2025-04-25T12:25:38Z</time>
      </trkpt>
      <trkpt lat="44.377845022827387" lon="2.442770982161164">
        <ele>529.82000000000005</ele>
        <time>2025-04-25T12:25:39Z</time>
      </trkpt>
      <trkpt lat="44.377739997580647" lon="2.442499995231628">
        <ele>528.86000000000001</ele>
        <time>2025-04-25T12:25:40Z</time>
      </trkpt>
      <trkpt lat="44.377676965668797" lon="2.442208975553513">
        <ele>528.38</ele>
        <time>2025-04-25T12:25:41Z</time>
      </trkpt>
      <trkpt lat="44.37761896289885" lon="2.441915022209287">
        <ele>527.41999999999996</ele>
        <time>2025-04-25T12:25:42Z</time>
      </trkpt>
      <trkpt lat="44.377581998705864" lon="2.44162299670279">
        <ele>527.41999999999996</ele>
        <time>2025-04-25T12:25:43Z</time>
      </trkpt>
      <trkpt lat="44.377554003149271" lon="2.4413220025599">
        <ele>527.41999999999996</ele>
        <time>2025-04-25T12:25:44Z</time>
      </trkpt>
      <trkpt lat="44.377540005370975" lon="2.441025031730533">
        <ele>527.41999999999996</ele>
        <time>2025-04-25T12:25:45Z</time>
      </trkpt>
      <trkpt lat="44.377561965957284" lon="2.440724959596992">
        <ele>527.41999999999996</ele>
        <time>2025-04-25T12:25:46Z</time>
      </trkpt>
      <trkpt lat="44.377602031454444" lon="2.440422037616372">
        <ele>527.41999999999996</ele>
        <time>2025-04-25T12:25:47Z</time>
      </trkpt>
      <trkpt lat="44.377642013132572" lon="2.440116014331579">
        <ele>527.89999999999998</ele>
        <time>2025-04-25T12:25:48Z</time>
      </trkpt>
      <trkpt lat="44.378041997551918" lon="2.437143959105015">
        <ele>524.53999999999996</ele>
        <time>2025-04-25T12:25:58Z</time>
      </trkpt>
      <trkpt lat="44.378578020259738" lon="2.435145964846015">
        <ele>523.58000000000004</ele>
        <time>2025-04-25T12:26:05Z</time>
      </trkpt>
      <trkpt lat="44.379612011834979" lon="2.432805988937616">
        <ele>526.94000000000005</ele>
        <time>2025-04-25T12:26:14Z</time>
      </trkpt>
      <trkpt lat="44.380885977298021" lon="2.430025963112712">
        <ele>540.39999999999998</ele>
        <time>2025-04-25T12:26:25Z</time>
      </trkpt>
      <trkpt lat="44.381583016365767" lon="2.427804004400969">
        <ele>552.40999999999997</ele>
        <time>2025-04-25T12:26:33Z</time>
      </trkpt>
      <trkpt lat="44.381682006642222" lon="2.425610041245818">
        <ele>559.13999999999999</ele>
        <time>2025-04-25T12:26:40Z</time>
      </trkpt>
      <trkpt lat="44.382007978856564" lon="2.422924982383847">
        <ele>557.70000000000005</ele>
        <time>2025-04-25T12:26:48Z</time>
      </trkpt>
      <trkpt lat="44.382377034053206" lon="2.420933023095131">
        <ele>551.92999999999995</ele>
        <time>2025-04-25T12:26:54Z</time>
      </trkpt>
      <trkpt lat="44.382403017953038" lon="2.42058802396059">
        <ele>550.49000000000001</ele>
        <time>2025-04-25T12:26:55Z</time>
      </trkpt>
      <trkpt lat="44.382370999082923" lon="2.420248975977302">
        <ele>548.57000000000005</ele>
        <time>2025-04-25T12:26:56Z</time>
      </trkpt>
      <trkpt lat="44.382333029061556" lon="2.419917974621058">
        <ele>546.64999999999998</ele>
        <time>2025-04-25T12:26:57Z</time>
      </trkpt>
      <trkpt lat="44.382261028513312" lon="2.419616980478168">
        <ele>545.20000000000005</ele>
        <time>2025-04-25T12:26:58Z</time>
      </trkpt>
      <trkpt lat="44.38217100687325" lon="2.419327972456813">
        <ele>543.27999999999997</ele>
        <time>2025-04-25T12:26:59Z</time>
      </trkpt>
      <trkpt lat="44.382084002718329" lon="2.419052040204406">
        <ele>541.36000000000001</ele>
        <time>2025-04-25T12:27:00Z</time>
      </trkpt>
      <trkpt lat="44.381945030763745" lon="2.418828997761011">
        <ele>539.91999999999996</ele>
        <time>2025-04-25T12:27:01Z</time>
      </trkpt>
      <trkpt lat="44.381813015788794" lon="2.418616013601422">
        <ele>537.50999999999999</ele>
        <time>2025-04-25T12:27:02Z</time>
      </trkpt>
      <trkpt lat="44.381689969450235" lon="2.418420966714621">
        <ele>536.07000000000005</ele>
        <time>2025-04-25T12:27:03Z</time>
      </trkpt>
      <trkpt lat="44.381544040516019" lon="2.41824796423316">
        <ele>534.63</ele>
        <time>2025-04-25T12:27:04Z</time>
      </trkpt>
      <trkpt lat="44.381387969478965" lon="2.418097006157041">
        <ele>533.19000000000005</ele>
        <time>2025-04-25T12:27:05Z</time>
      </trkpt>
      <trkpt lat="44.381211027503014" lon="2.417969014495611">
        <ele>532.23000000000002</ele>
        <time>2025-04-25T12:27:06Z</time>
      </trkpt>
      <trkpt lat="44.380253981798887" lon="2.417274992913008">
        <ele>528.86000000000001</ele>
        <time>2025-04-25T12:27:11Z</time>
      </trkpt>
      <trkpt lat="44.380082990974188" lon="2.41708698682487">
        <ele>528.86000000000001</ele>
        <time>2025-04-25T12:27:12Z</time>
      </trkpt>
      <trkpt lat="44.379916023463011" lon="2.416890012100339">
        <ele>528.86000000000001</ele>
        <time>2025-04-25T12:27:13Z</time>
      </trkpt>
      <trkpt lat="44.379779985174537" lon="2.416660012677312">
        <ele>528.86000000000001</ele>
        <time>2025-04-25T12:27:14Z</time>
      </trkpt>
      <trkpt lat="44.379659034311771" lon="2.416455997154117">
        <ele>529.82000000000005</ele>
        <time>2025-04-25T12:27:15Z</time>
      </trkpt>
      <trkpt lat="44.379559038206935" lon="2.416173024103046">
        <ele>530.78999999999996</ele>
        <time>2025-04-25T12:27:16Z</time>
      </trkpt>
      <trkpt lat="44.379467004910111" lon="2.415915029123426">
        <ele>531.75</ele>
        <time>2025-04-25T12:27:17Z</time>
      </trkpt>
      <trkpt lat="44.37939802184701" lon="2.415645970031619">
        <ele>532.71000000000004</ele>
        <time>2025-04-25T12:27:18Z</time>
      </trkpt>
      <trkpt lat="44.379349993541837" lon="2.41536601446569">
        <ele>533.66999999999996</ele>
        <time>2025-04-25T12:27:19Z</time>
      </trkpt>
      <trkpt lat="44.37931596301496" lon="2.415083041414619">
        <ele>535.11000000000001</ele>
        <time>2025-04-25T12:27:20Z</time>
      </trkpt>
      <trkpt lat="44.37931596301496" lon="2.414782969281077">
        <ele>536.07000000000005</ele>
        <time>2025-04-25T12:27:21Z</time>
      </trkpt>
      <trkpt lat="44.379324009642005" lon="2.414482980966568">
        <ele>537.50999999999999</ele>
        <time>2025-04-25T12:27:22Z</time>
      </trkpt>
      <trkpt lat="44.379352005198598" lon="2.414187015965581">
        <ele>538.48000000000002</ele>
        <time>2025-04-25T12:27:23Z</time>
      </trkpt>
      <trkpt lat="44.379414031282067" lon="2.413897002115846">
        <ele>539.91999999999996</ele>
        <time>2025-04-25T12:27:24Z</time>
      </trkpt>
      <trkpt lat="44.37948502600193" lon="2.413614029064775">
        <ele>540.88</ele>
        <time>2025-04-25T12:27:25Z</time>
      </trkpt>
      <trkpt lat="44.379576975479722" lon="2.413332983851433">
        <ele>542.79999999999995</ele>
        <time>2025-04-25T12:27:26Z</time>
      </trkpt>
      <trkpt lat="44.37970002181828" lon="2.413073983043432">
        <ele>544.24000000000001</ele>
        <time>2025-04-25T12:27:27Z</time>
      </trkpt>
      <trkpt lat="44.379824995994568" lon="2.412810036912561">
        <ele>546.16999999999996</ele>
        <time>2025-04-25T12:27:28Z</time>
      </trkpt>
      <trkpt lat="44.381359973922372" lon="2.409578980877996">
        <ele>565.87</ele>
        <time>2025-04-25T12:27:40Z</time>
      </trkpt>
      <trkpt lat="44.382864022627473" lon="2.406530985608697">
        <ele>571.63999999999999</ele>
        <time>2025-04-25T12:27:51Z</time>
      </trkpt>
      <trkpt lat="44.383942019194365" lon="2.404928030446172">
        <ele>573.08000000000004</ele>
        <time>2025-04-25T12:27:58Z</time>
      </trkpt>
      <trkpt lat="44.385727029293776" lon="2.402053959667683">
        <ele>564.90999999999997</ele>
        <time>2025-04-25T12:28:11Z</time>
      </trkpt>
      <trkpt lat="44.387009041383862" lon="2.400324018672109">
        <ele>552.40999999999997</ele>
        <time>2025-04-25T12:28:19Z</time>
      </trkpt>
      <trkpt lat="44.388644015416503" lon="2.397908018901944">
        <ele>543.75999999999999</ele>
        <time>2025-04-25T12:28:30Z</time>
      </trkpt>
      <trkpt lat="44.390212018042803" lon="2.39506596699357">
        <ele>551.45000000000005</ele>
        <time>2025-04-25T12:28:42Z</time>
      </trkpt>
      <trkpt lat="44.390779975801706" lon="2.39280603826046">
        <ele>552.89999999999998</ele>
        <time>2025-04-25T12:28:50Z</time>
      </trkpt>
      <trkpt lat="44.391137966886163" lon="2.389488983899355">
        <ele>546.64999999999998</ele>
        <time>2025-04-25T12:29:01Z</time>
      </trkpt>
      <trkpt lat="44.391492018476129" lon="2.386027006432414">
        <ele>548.57000000000005</ele>
        <time>2025-04-25T12:29:13Z</time>
      </trkpt>
      <trkpt lat="44.391911029815674" lon="2.382380962371826">
        <ele>554.34000000000003</ele>
        <time>2025-04-25T12:29:25Z</time>
      </trkpt>
      <trkpt lat="44.392260974273086" lon="2.380865011364222">
        <ele>558.65999999999997</ele>
        <time>2025-04-25T12:29:31Z</time>
      </trkpt>
      <trkpt lat="44.39280403777957" lon="2.379413014277816">
        <ele>564.90999999999997</ele>
        <time>2025-04-25T12:29:39Z</time>
      </trkpt>
      <trkpt lat="44.393029008060694" lon="2.37888696603477">
        <ele>567.79999999999995</ele>
        <time>2025-04-25T12:29:43Z</time>
      </trkpt>
      <trkpt lat="44.393537035211921" lon="2.377834031358361">
        <ele>572.12</ele>
        <time>2025-04-25T12:29:51Z</time>
      </trkpt>
      <trkpt lat="44.39392302185297" lon="2.376827029511333">
        <ele>575.97000000000003</ele>
        <time>2025-04-25T12:29:58Z</time>
      </trkpt>
      <trkpt lat="44.394013965502381" lon="2.376529974862933">
        <ele>576.92999999999995</ele>
        <time>2025-04-25T12:30:00Z</time>
      </trkpt>
      <trkpt lat="44.394615031778812" lon="2.374585038051009">
        <ele>582.22000000000003</ele>
        <time>2025-04-25T12:30:13Z</time>
      </trkpt>
      <trkpt lat="44.395181983709335" lon="2.373575018718839">
        <ele>586.53999999999996</ele>
        <time>2025-04-25T12:30:21Z</time>
      </trkpt>
      <trkpt lat="44.395274017006159" lon="2.373482985422015">
        <ele>587.5</ele>
        <time>2025-04-25T12:30:22Z</time>
      </trkpt>
      <trkpt lat="44.396289987489581" lon="2.372362995520234">
        <ele>592.30999999999995</ele>
        <time>2025-04-25T12:30:32Z</time>
      </trkpt>
      <trkpt lat="44.396486962214112" lon="2.371969968080521">
        <ele>593.26999999999998</ele>
        <time>2025-04-25T12:30:34Z</time>
      </trkpt>
      <trkpt lat="44.396575978025794" lon="2.37175103276968">
        <ele>593.75</ele>
        <time>2025-04-25T12:30:35Z</time>
      </trkpt>
      <trkpt lat="44.397055003792048" lon="2.370071969926357">
        <ele>599.51999999999998</ele>
        <time>2025-04-25T12:30:43Z</time>
      </trkpt>
      <trkpt lat="44.397866036742926" lon="2.368492987006903">
        <ele>605.76999999999998</ele>
        <time>2025-04-25T12:30:53Z</time>
      </trkpt>
      <trkpt lat="44.398640021681786" lon="2.367139980196953">
        <ele>610.09000000000003</ele>
        <time>2025-04-25T12:31:01Z</time>
      </trkpt>
      <trkpt lat="44.399387016892433" lon="2.365150032564998">
        <ele>614.41999999999996</ele>
        <time>2025-04-25T12:31:08Z</time>
      </trkpt>
      <trkpt lat="44.400036027655005" lon="2.363382037729025">
        <ele>617.29999999999995</ele>
        <time>2025-04-25T12:31:15Z</time>
      </trkpt>
      <trkpt lat="44.400551011785865" lon="2.361815040931106">
        <ele>615.38</ele>
        <time>2025-04-25T12:31:22Z</time>
      </trkpt>
      <trkpt lat="44.40058596432209" lon="2.361585041508079">
        <ele>614.41999999999996</ele>
        <time>2025-04-25T12:31:23Z</time>
      </trkpt>
      <trkpt lat="44.400599962100387" lon="2.361348001286387">
        <ele>613.46000000000004</ele>
        <time>2025-04-25T12:31:24Z</time>
      </trkpt>
      <trkpt lat="44.400584036484361" lon="2.36111800186336">
        <ele>612.5</ele>
        <time>2025-04-25T12:31:25Z</time>
      </trkpt>
      <trkpt lat="44.4005629979074" lon="2.360883979126811">
        <ele>611.53999999999996</ele>
        <time>2025-04-25T12:31:26Z</time>
      </trkpt>
      <trkpt lat="44.400513963773847" lon="2.3606669716537">
        <ele>610.57000000000005</ele>
        <time>2025-04-25T12:31:27Z</time>
      </trkpt>
      <trkpt lat="44.40045403316617" lon="2.360444013029337">
        <ele>610.09000000000003</ele>
        <time>2025-04-25T12:31:28Z</time>
      </trkpt>
      <trkpt lat="44.400126971304417" lon="2.359132999554277">
        <ele>609.13</ele>
        <time>2025-04-25T12:31:34Z</time>
      </trkpt>
      <trkpt lat="44.400115991011262" lon="2.358906017616391">
        <ele>609.13</ele>
        <time>2025-04-25T12:31:35Z</time>
      </trkpt>
      <trkpt lat="44.400130994617939" lon="2.358677024021745">
        <ele>609.13</ele>
        <time>2025-04-25T12:31:36Z</time>
      </trkpt>
      <trkpt lat="44.400147004052997" lon="2.358439983800054">
        <ele>609.13</ele>
        <time>2025-04-25T12:31:37Z</time>
      </trkpt>
      <trkpt lat="44.400206012651324" lon="2.358206966891885">
        <ele>610.09000000000003</ele>
        <time>2025-04-25T12:31:38Z</time>
      </trkpt>
      <trkpt lat="44.400280024856329" lon="2.357983002439141">
        <ele>610.57000000000005</ele>
        <time>2025-04-25T12:31:39Z</time>
      </trkpt>
      <trkpt lat="44.400383038446307" lon="2.357784016057849">
        <ele>611.05999999999995</ele>
        <time>2025-04-25T12:31:40Z</time>
      </trkpt>
      <trkpt lat="44.40049996599555" lon="2.357590980827808">
        <ele>611.53999999999996</ele>
        <time>2025-04-25T12:31:41Z</time>
      </trkpt>
      <trkpt lat="44.400641033425927" lon="2.357424013316631">
        <ele>612.5</ele>
        <time>2025-04-25T12:31:42Z</time>
      </trkpt>
      <trkpt lat="44.400787968188524" lon="2.3572719655931">
        <ele>612.98000000000002</ele>
        <time>2025-04-25T12:31:43Z</time>
      </trkpt>
      <trkpt lat="44.40094999037683" lon="2.35714003443718">
        <ele>613.94000000000005</ele>
        <time>2025-04-25T12:31:44Z</time>
      </trkpt>
      <trkpt lat="44.401112012565136" lon="2.357008019462228">
        <ele>614.41999999999996</ele>
        <time>2025-04-25T12:31:45Z</time>
      </trkpt>
      <trkpt lat="44.4012710172683" lon="2.356878016144037">
        <ele>614.89999999999998</ele>
        <time>2025-04-25T12:31:46Z</time>
      </trkpt>
      <trkpt lat="44.402023963630199" lon="2.356171002611518">
        <ele>618.25999999999999</ele>
        <time>2025-04-25T12:31:51Z</time>
      </trkpt>
      <trkpt lat="44.402149021625519" lon="2.355993976816535">
        <ele>618.75</ele>
        <time>2025-04-25T12:31:52Z</time>
      </trkpt>
      <trkpt lat="44.402238959446549" lon="2.355777975171804">
        <ele>619.23000000000002</ele>
        <time>2025-04-25T12:31:53Z</time>
      </trkpt>
      <trkpt lat="44.40232302993536" lon="2.355554010719061">
        <ele>620.19000000000005</ele>
        <time>2025-04-25T12:31:54Z</time>
      </trkpt>
      <trkpt lat="44.402391007170081" lon="2.355326022952795">
        <ele>620.66999999999996</ele>
        <time>2025-04-25T12:31:55Z</time>
      </trkpt>
      <trkpt lat="44.402446998283267" lon="2.355088982731104">
        <ele>621.14999999999998</ele>
        <time>2025-04-25T12:31:56Z</time>
      </trkpt>
      <trkpt lat="44.402439035475254" lon="2.354840040206909">
        <ele>621.63</ele>
        <time>2025-04-25T12:31:57Z</time>
      </trkpt>
      <trkpt lat="44.402429983019829" lon="2.354587996378541">
        <ele>622.11000000000001</ele>
        <time>2025-04-25T12:31:58Z</time>
      </trkpt>
      <trkpt lat="44.402395030483603" lon="2.354356991127133">
        <ele>622.11000000000001</ele>
        <time>2025-04-25T12:31:59Z</time>
      </trkpt>
      <trkpt lat="44.402326969429851" lon="2.354125985875726">
        <ele>622.59000000000003</ele>
        <time>2025-04-25T12:32:00Z</time>
      </trkpt>
      <trkpt lat="44.40225999802351" lon="2.353892968967557">
        <ele>623.07000000000005</ele>
        <time>2025-04-25T12:32:01Z</time>
      </trkpt>
      <trkpt lat="44.40217399969697" lon="2.353680990636349">
        <ele>623.07000000000005</ele>
        <time>2025-04-25T12:32:02Z</time>
      </trkpt>
      <trkpt lat="44.402066962793469" lon="2.353474041447043">
        <ele>623.54999999999995</ele>
        <time>2025-04-25T12:32:03Z</time>
      </trkpt>
      <trkpt lat="44.400944039225578" lon="2.351350989192724">
        <ele>621.63</ele>
        <time>2025-04-25T12:32:12Z</time>
      </trkpt>
      <trkpt lat="44.400447998195887" lon="2.349346959963441">
        <ele>612.98000000000002</ele>
        <time>2025-04-25T12:32:19Z</time>
      </trkpt>
      <trkpt lat="44.400502983480692" lon="2.347212005406618">
        <ele>603.85000000000002</ele>
        <time>2025-04-25T12:32:26Z</time>
      </trkpt>
      <trkpt lat="44.400989972054958" lon="2.344600036740303">
        <ele>591.35000000000002</ele>
        <time>2025-04-25T12:32:35Z</time>
      </trkpt>
      <trkpt lat="44.401159035041928" lon="2.341855969280005">
        <ele>591.83000000000004</ele>
        <time>2025-04-25T12:32:45Z</time>
      </trkpt>
      <trkpt lat="44.401217037811875" lon="2.338172039017081">
        <ele>597.60000000000002</ele>
        <time>2025-04-25T12:32:58Z</time>
      </trkpt>
      <trkpt lat="44.401326002553105" lon="2.333407010883093">
        <ele>588.95000000000005</ele>
        <time>2025-04-25T12:33:14Z</time>
      </trkpt>
      <trkpt lat="44.40118501894176" lon="2.330467980355024">
        <ele>584.62</ele>
        <time>2025-04-25T12:33:24Z</time>
      </trkpt>
      <trkpt lat="44.400575989857316" lon="2.328261025249958">
        <ele>577.88999999999999</ele>
        <time>2025-04-25T12:33:32Z</time>
      </trkpt>
      <trkpt lat="44.399520037695765" lon="2.325060982257128">
        <ele>574.03999999999996</ele>
        <time>2025-04-25T12:33:44Z</time>
      </trkpt>
      <trkpt lat="44.398370962589979" lon="2.32162800617516">
        <ele>575.49000000000001</ele>
        <time>2025-04-25T12:33:57Z</time>
      </trkpt>
      <trkpt lat="44.397049974650145" lon="2.317487010732293">
        <ele>573.08000000000004</ele>
        <time>2025-04-25T12:34:12Z</time>
      </trkpt>
      <trkpt lat="44.396702041849494" lon="2.314743027091026">
        <ele>575.00999999999999</ele>
        <time>2025-04-25T12:34:21Z</time>
      </trkpt>
      <trkpt lat="44.396854005753994" lon="2.311906004324555">
        <ele>567.32000000000005</ele>
        <time>2025-04-25T12:34:30Z</time>
      </trkpt>
      <trkpt lat="44.397472003474832" lon="2.307092025876045">
        <ele>546.16999999999996</ele>
        <time>2025-04-25T12:34:46Z</time>
      </trkpt>
      <trkpt lat="44.397967038676143" lon="2.303456962108612">
        <ele>533.19000000000005</ele>
        <time>2025-04-25T12:34:59Z</time>
      </trkpt>
      <trkpt lat="44.398308014497161" lon="2.301703970879316">
        <ele>527.41999999999996</ele>
        <time>2025-04-25T12:35:07Z</time>
      </trkpt>
      <trkpt lat="44.39839300699532" lon="2.301516970619559">
        <ele>526.94000000000005</ele>
        <time>2025-04-25T12:35:09Z</time>
      </trkpt>
      <trkpt lat="44.39845603890717" lon="2.301377998664975">
        <ele>526.94000000000005</ele>
        <time>2025-04-25T12:35:10Z</time>
      </trkpt>
      <trkpt lat="44.398491997271776" lon="2.301334999501705">
        <ele>526.94000000000005</ele>
        <time>2025-04-25T12:35:11Z</time>
      </trkpt>
      <trkpt lat="44.398571038618684" lon="2.301208013668656">
        <ele>526.94000000000005</ele>
        <time>2025-04-25T12:35:12Z</time>
      </trkpt>
      <trkpt lat="44.398594005033374" lon="2.301082033663988">
        <ele>526.94000000000005</ele>
        <time>2025-04-25T12:35:13Z</time>
      </trkpt>
      <trkpt lat="44.398559974506497" lon="2.300906013697386">
        <ele>526.46000000000004</ele>
        <time>2025-04-25T12:35:14Z</time>
      </trkpt>
      <trkpt lat="44.39854203723371" lon="2.300863014534116">
        <ele>526.46000000000004</ele>
        <time>2025-04-25T12:35:15Z</time>
      </trkpt>
      <trkpt lat="44.398402981460094" lon="2.300625974312425">
        <ele>526.46000000000004</ele>
        <time>2025-04-25T12:35:16Z</time>
      </trkpt>
      <trkpt lat="44.398416979238391" lon="2.300458000972867">
        <ele>526.46000000000004</ele>
        <time>2025-04-25T12:35:17Z</time>
      </trkpt>
      <trkpt lat="44.398431982845068" lon="2.300268989056349">
        <ele>526.46000000000004</ele>
        <time>2025-04-25T12:35:18Z</time>
      </trkpt>
      <trkpt lat="44.398452015593648" lon="2.300062039867044">
        <ele>526.46000000000004</ele>
        <time>2025-04-25T12:35:19Z</time>
      </trkpt>
      <trkpt lat="44.398652007803321" lon="2.297991961240768">
        <ele>523.09000000000003</ele>
        <time>2025-04-25T12:35:27Z</time>
      </trkpt>
      <trkpt lat="44.399076970294118" lon="2.294381959363818">
        <ele>511.56</ele>
        <time>2025-04-25T12:35:39Z</time>
      </trkpt>
      <trkpt lat="44.399663032963872" lon="2.289153998717666">
        <ele>508.67000000000002</ele>
        <time>2025-04-25T12:35:56Z</time>
      </trkpt>
      <trkpt lat="44.399529006332159" lon="2.28632602840662">
        <ele>517.33000000000004</ele>
        <time>2025-04-25T12:36:05Z</time>
      </trkpt>
      <trkpt lat="44.399290038272738" lon="2.282949965447187">
        <ele>525.01999999999998</ele>
        <time>2025-04-25T12:36:16Z</time>
      </trkpt>
      <trkpt lat="44.399396991357207" lon="2.280898997560144">
        <ele>528.38</ele>
        <time>2025-04-25T12:36:23Z</time>
      </trkpt>
      <trkpt lat="44.399878028780222" lon="2.279287995770574">
        <ele>530.78999999999996</ele>
        <time>2025-04-25T12:36:29Z</time>
      </trkpt>
      <trkpt lat="44.399979030713439" lon="2.279027989134193">
        <ele>530.78999999999996</ele>
        <time>2025-04-25T12:36:30Z</time>
      </trkpt>
      <trkpt lat="44.400962982326746" lon="2.277460992336273">
        <ele>529.34000000000003</ele>
        <time>2025-04-25T12:36:37Z</time>
      </trkpt>
      <trkpt lat="44.403071030974388" lon="2.27536803111434">
        <ele>517.80999999999995</ele>
        <time>2025-04-25T12:36:49Z</time>
      </trkpt>
      <trkpt lat="44.404464019462466" lon="2.274535959586501">
        <ele>512.03999999999996</ele>
        <time>2025-04-25T12:36:56Z</time>
      </trkpt>
      <trkpt lat="44.405931020155549" lon="2.274421965703368">
        <ele>511.56</ele>
        <time>2025-04-25T12:37:03Z</time>
      </trkpt>
      <trkpt lat="44.409219995141029" lon="2.274907026439905">
        <ele>510.60000000000002</ele>
        <time>2025-04-25T12:37:18Z</time>
      </trkpt>
      <trkpt lat="44.411473972722888" lon="2.274851035326719">
        <ele>497.62</ele>
        <time>2025-04-25T12:37:28Z</time>
      </trkpt>
      <trkpt lat="44.414210999384522" lon="2.274393970146775">
        <ele>482.72000000000003</ele>
        <time>2025-04-25T12:37:41Z</time>
      </trkpt>
      <trkpt lat="44.4156230147928" lon="2.274219039827585">
        <ele>476.47000000000003</ele>
        <time>2025-04-25T12:37:49Z</time>
      </trkpt>
      <trkpt lat="44.415732985362411" lon="2.274234965443611">
        <ele>475.99000000000001</ele>
        <time>2025-04-25T12:37:50Z</time>
      </trkpt>
      <trkpt lat="44.415880003944039" lon="2.274256004020572">
        <ele>475.99000000000001</ele>
        <time>2025-04-25T12:37:51Z</time>
      </trkpt>
      <trkpt lat="44.41594404168427" lon="2.274342002347112">
        <ele>475.50999999999999</ele>
        <time>2025-04-25T12:37:52Z</time>
      </trkpt>
      <trkpt lat="44.416001038625836" lon="2.274363040924072">
        <ele>475.50999999999999</ele>
        <time>2025-04-25T12:37:53Z</time>
      </trkpt>
      <trkpt lat="44.416127018630505" lon="2.274398999288678">
        <ele>475.02999999999997</ele>
        <time>2025-04-25T12:37:54Z</time>
      </trkpt>
      <trkpt lat="44.416244029998779" lon="2.274299003183842">
        <ele>474.55000000000001</ele>
        <time>2025-04-25T12:37:55Z</time>
      </trkpt>
      <trkpt lat="44.416301026940346" lon="2.274158019572496">
        <ele>474.55000000000001</ele>
        <time>2025-04-25T12:37:56Z</time>
      </trkpt>
      <trkpt lat="44.416306978091598" lon="2.273958027362824">
        <ele>474.06999999999999</ele>
        <time>2025-04-25T12:37:57Z</time>
      </trkpt>
      <trkpt lat="44.416240006685257" lon="2.273833975195885">
        <ele>474.06999999999999</ele>
        <time>2025-04-25T12:37:58Z</time>
      </trkpt>
      <trkpt lat="44.416179992258549" lon="2.273761974647641">
        <ele>474.06999999999999</ele>
        <time>2025-04-25T12:37:59Z</time>
      </trkpt>
      <trkpt lat="44.416081001982093" lon="2.273742025718093">
        <ele>474.55000000000001</ele>
        <time>2025-04-25T12:38:00Z</time>
      </trkpt>
      <trkpt lat="44.416021993383765" lon="2.273578997701407">
        <ele>474.55000000000001</ele>
        <time>2025-04-25T12:38:01Z</time>
      </trkpt>
      <trkpt lat="44.415975976735353" lon="2.273429967463017">
        <ele>475.02999999999997</ele>
        <time>2025-04-25T12:38:02Z</time>
      </trkpt>
      <trkpt lat="44.415923003107309" lon="2.273261994123459">
        <ele>475.50999999999999</ele>
        <time>2025-04-25T12:38:03Z</time>
      </trkpt>
      <trkpt lat="44.415865000337362" lon="2.273074993863702">
        <ele>475.50999999999999</ele>
        <time>2025-04-25T12:38:04Z</time>
      </trkpt>
      <trkpt lat="44.415524024516344" lon="2.271961960941553">
        <ele>478.87</ele>
        <time>2025-04-25T12:38:09Z</time>
      </trkpt>
      <trkpt lat="44.415420005097985" lon="2.271734979003668">
        <ele>479.83999999999997</ele>
        <time>2025-04-25T12:38:10Z</time>
      </trkpt>
      <trkpt lat="44.415296036750078" lon="2.271517971530557">
        <ele>480.31999999999999</ele>
        <time>2025-04-25T12:38:11Z</time>
      </trkpt>
      <trkpt lat="44.415153041481972" lon="2.271328959614039">
        <ele>481.27999999999997</ele>
        <time>2025-04-25T12:38:12Z</time>
      </trkpt>
      <trkpt lat="44.415013985708356" lon="2.271154029294848">
        <ele>482.72000000000003</ele>
        <time>2025-04-25T12:38:13Z</time>
      </trkpt>
      <trkpt lat="44.41409801132977" lon="2.270078966394067">
        <ele>489.93000000000001</ele>
        <time>2025-04-25T12:38:20Z</time>
      </trkpt>
      <trkpt lat="44.413970019668341" lon="2.270006965845823">
        <ele>490.41000000000003</ele>
        <time>2025-04-25T12:38:21Z</time>
      </trkpt>
      <trkpt lat="44.413844039663672" lon="2.269964972510934">
        <ele>491.37</ele>
        <time>2025-04-25T12:38:22Z</time>
      </trkpt>
      <trkpt lat="44.413742031902075" lon="2.26997897028923">
        <ele>492.32999999999998</ele>
        <time>2025-04-25T12:38:23Z</time>
      </trkpt>
      <trkpt lat="44.413636000826955" lon="2.269995985552669">
        <ele>492.81</ele>
        <time>2025-04-25T12:38:24Z</time>
      </trkpt>
      <trkpt lat="44.413543967530131" lon="2.270014006644487">
        <ele>493.29000000000002</ele>
        <time>2025-04-25T12:38:25Z</time>
      </trkpt>
      <trkpt lat="44.412876013666391" lon="2.270262027159333">
        <ele>495.69999999999999</ele>
        <time>2025-04-25T12:38:32Z</time>
      </trkpt>
      <trkpt lat="44.412779035046697" lon="2.270346013829112">
        <ele>496.18000000000001</ele>
        <time>2025-04-25T12:38:33Z</time>
      </trkpt>
      <trkpt lat="44.412684990093112" lon="2.270426983013749">
        <ele>496.18000000000001</ele>
        <time>2025-04-25T12:38:34Z</time>
      </trkpt>
      <trkpt lat="44.412588011473417" lon="2.270511975511909">
        <ele>496.66000000000003</ele>
        <time>2025-04-25T12:38:35Z</time>
      </trkpt>
      <trkpt lat="44.412478962913156" lon="2.270607026293874">
        <ele>496.66000000000003</ele>
        <time>2025-04-25T12:38:36Z</time>
      </trkpt>
      <trkpt lat="44.41235801205039" lon="2.270711967721582">
        <ele>496.66000000000003</ele>
        <time>2025-04-25T12:38:37Z</time>
      </trkpt>
      <trkpt lat="44.4122280087322" lon="2.270825039595366">
        <ele>497.13999999999999</ele>
        <time>2025-04-25T12:38:38Z</time>
      </trkpt>
      <trkpt lat="44.411244979128242" lon="2.271581003442407">
        <ele>496.18000000000001</ele>
        <time>2025-04-25T12:38:45Z</time>
      </trkpt>
      <trkpt lat="44.411097038537264" lon="2.271604975685477">
        <ele>496.18000000000001</ele>
        <time>2025-04-25T12:38:46Z</time>
      </trkpt>
      <trkpt lat="44.41094197332859" lon="2.271630959585309">
        <ele>496.18000000000001</ele>
        <time>2025-04-25T12:38:47Z</time>
      </trkpt>
      <trkpt lat="44.410084001719952" lon="2.271650992333889">
        <ele>498.57999999999998</ele>
        <time>2025-04-25T12:38:52Z</time>
      </trkpt>
      <trkpt lat="44.409624002873898" lon="2.271721987053752">
        <ele>501.45999999999998</ele>
        <time>2025-04-25T12:38:55Z</time>
      </trkpt>
      <trkpt lat="44.409469021484256" lon="2.271717041730881">
        <ele>502.43000000000001</ele>
        <time>2025-04-25T12:38:56Z</time>
      </trkpt>
      <trkpt lat="44.409156963229179" lon="2.271706983447075">
        <ele>504.82999999999998</ele>
        <time>2025-04-25T12:38:58Z</time>
      </trkpt>
      <trkpt lat="44.408997958526015" lon="2.271705977618694">
        <ele>506.26999999999998</ele>
        <time>2025-04-25T12:38:59Z</time>
      </trkpt>
      <trkpt lat="44.407843016088009" lon="2.272003032267094">
        <ele>515.39999999999998</ele>
        <time>2025-04-25T12:39:06Z</time>
      </trkpt>
      <trkpt lat="44.407686023041606" lon="2.272065980359912">
        <ele>516.37</ele>
        <time>2025-04-25T12:39:07Z</time>
      </trkpt>
      <trkpt lat="44.40752299502492" lon="2.272131023928523">
        <ele>517.33000000000004</ele>
        <time>2025-04-25T12:39:08Z</time>
      </trkpt>
      <trkpt lat="44.407354015856981" lon="2.272177962586284">
        <ele>518.28999999999996</ele>
        <time>2025-04-25T12:39:09Z</time>
      </trkpt>
      <trkpt lat="44.407184030860662" lon="2.272215010598302">
        <ele>518.76999999999998</ele>
        <time>2025-04-25T12:39:10Z</time>
      </trkpt>
      <trkpt lat="44.407011028379202" lon="2.272252980619669">
        <ele>519.73000000000002</ele>
        <time>2025-04-25T12:39:11Z</time>
      </trkpt>
      <trkpt lat="44.405945017933846" lon="2.272322969511151">
        <ele>525.98000000000002</ele>
        <time>2025-04-25T12:39:17Z</time>
      </trkpt>
      <trkpt lat="44.405809985473752" lon="2.272282987833023">
        <ele>526.94000000000005</ele>
        <time>2025-04-25T12:39:18Z</time>
      </trkpt>
      <trkpt lat="44.405699009075761" lon="2.272204030305147">
        <ele>528.38</ele>
        <time>2025-04-25T12:39:19Z</time>
      </trkpt>
      <trkpt lat="44.405600018799305" lon="2.272133035585284">
        <ele>529.34000000000003</ele>
        <time>2025-04-25T12:39:20Z</time>
      </trkpt>
      <trkpt lat="44.405517037957907" lon="2.272074026986957">
        <ele>529.82000000000005</ele>
        <time>2025-04-25T12:39:21Z</time>
      </trkpt>
      <trkpt lat="44.4052479788661" lon="2.271881997585297">
        <ele>533.19000000000005</ele>
        <time>2025-04-25T12:39:25Z</time>
      </trkpt>
      <trkpt lat="44.405175978317857" lon="2.271860036998987">
        <ele>533.66999999999996</ele>
        <time>2025-04-25T12:39:26Z</time>
      </trkpt>
      <trkpt lat="44.405101966112852" lon="2.271842015907168">
        <ele>534.63</ele>
        <time>2025-04-25T12:39:27Z</time>
      </trkpt>
      <trkpt lat="44.405030971392989" lon="2.271826006472111">
        <ele>535.11000000000001</ele>
        <time>2025-04-25T12:39:28Z</time>
      </trkpt>
      <trkpt lat="44.404962994158268" lon="2.271809997037053">
        <ele>536.07000000000005</ele>
        <time>2025-04-25T12:39:29Z</time>
      </trkpt>
      <trkpt lat="44.404900968074799" lon="2.271795999258757">
        <ele>537.02999999999997</ele>
        <time>2025-04-25T12:39:30Z</time>
      </trkpt>
      <trkpt lat="44.404763001948595" lon="2.271763980388641">
        <ele>537.99000000000001</ele>
        <time>2025-04-25T12:39:32Z</time>
      </trkpt>
      <trkpt lat="44.404693013057113" lon="2.271746965125203">
        <ele>538.48000000000002</ele>
        <time>2025-04-25T12:39:33Z</time>
      </trkpt>
      <trkpt lat="44.404626041650772" lon="2.271731039509177">
        <ele>538.96000000000004</ele>
        <time>2025-04-25T12:39:34Z</time>
      </trkpt>
      <trkpt lat="44.404570972546935" lon="2.27169499732554">
        <ele>538.96000000000004</ele>
        <time>2025-04-25T12:39:35Z</time>
      </trkpt>
      <trkpt lat="44.404517998918891" lon="2.271628025919199">
        <ele>539.44000000000005</ele>
        <time>2025-04-25T12:39:36Z</time>
      </trkpt>
      <trkpt lat="44.404465025290847" lon="2.271558959037066">
        <ele>539.91999999999996</ele>
        <time>2025-04-25T12:39:37Z</time>
      </trkpt>
      <trkpt lat="44.404413979500532" lon="2.271489975973964">
        <ele>540.39999999999998</ele>
        <time>2025-04-25T12:39:38Z</time>
      </trkpt>
      <trkpt lat="44.404313983395696" lon="2.27135100401938">
        <ele>541.36000000000001</ele>
        <time>2025-04-25T12:39:40Z</time>
      </trkpt>
      <trkpt lat="44.404266960918903" lon="2.271286966279149">
        <ele>541.84000000000003</ele>
        <time>2025-04-25T12:39:41Z</time>
      </trkpt>
      <trkpt lat="44.404221028089523" lon="2.271224018186331">
        <ele>542.79999999999995</ele>
        <time>2025-04-25T12:39:42Z</time>
      </trkpt>
      <trkpt lat="44.404065040871501" lon="2.271039029583335">
        <ele>544.24000000000001</ele>
        <time>2025-04-25T12:39:45Z</time>
      </trkpt>
      <trkpt lat="44.404007038101554" lon="2.27100701071322">
        <ele>544.24000000000001</ele>
        <time>2025-04-25T12:39:46Z</time>
      </trkpt>
      <trkpt lat="44.403954986482859" lon="2.270978009328246">
        <ele>544.72000000000003</ele>
        <time>2025-04-25T12:39:47Z</time>
      </trkpt>
      <trkpt lat="44.403906036168337" lon="2.270951019600034">
        <ele>545.20000000000005</ele>
        <time>2025-04-25T12:39:48Z</time>
      </trkpt>
      <trkpt lat="44.403873011469841" lon="2.270960994064808">
        <ele>545.20000000000005</ele>
        <time>2025-04-25T12:39:49Z</time>
      </trkpt>
      <trkpt lat="44.403819032013416" lon="2.270975997671485">
        <ele>545.69000000000005</ele>
        <time>2025-04-25T12:39:50Z</time>
      </trkpt>
      <trkpt lat="44.403756000101566" lon="2.270994018763304">
        <ele>545.69000000000005</ele>
        <time>2025-04-25T12:39:51Z</time>
      </trkpt>
      <trkpt lat="44.403730016201735" lon="2.271037017926574">
        <ele>546.16999999999996</ele>
        <time>2025-04-25T12:39:52Z</time>
      </trkpt>
      <trkpt lat="44.403682993724942" lon="2.27111698128283">
        <ele>546.16999999999996</ele>
        <time>2025-04-25T12:39:53Z</time>
      </trkpt>
      <trkpt lat="44.403495993465185" lon="2.271368019282818">
        <ele>545.20000000000005</ele>
        <time>2025-04-25T12:39:56Z</time>
      </trkpt>
      <trkpt lat="44.403422987088561" lon="2.271425016224384">
        <ele>544.72000000000003</ele>
        <time>2025-04-25T12:39:57Z</time>
      </trkpt>
      <trkpt lat="44.403370013460517" lon="2.271466003730893">
        <ele>543.75999999999999</ele>
        <time>2025-04-25T12:39:58Z</time>
      </trkpt>
      <trkpt lat="44.403250990435481" lon="2.271452005952597">
        <ele>543.27999999999997</ele>
        <time>2025-04-25T12:39:59Z</time>
      </trkpt>
      <trkpt lat="44.403154011815786" lon="2.271440019831061">
        <ele>542.79999999999995</ele>
        <time>2025-04-25T12:40:00Z</time>
      </trkpt>
      <trkpt lat="44.403047980740666" lon="2.271427027881146">
        <ele>542.32000000000005</ele>
        <time>2025-04-25T12:40:01Z</time>
      </trkpt>
      <trkpt lat="44.402935998514295" lon="2.27141403593123">
        <ele>541.84000000000003</ele>
        <time>2025-04-25T12:40:02Z</time>
      </trkpt>
      <trkpt lat="44.401880968362093" lon="2.271138019859791">
        <ele>541.84000000000003</ele>
        <time>2025-04-25T12:40:11Z</time>
      </trkpt>
      <trkpt lat="44.401747025549412" lon="2.271096026524901">
        <ele>541.84000000000003</ele>
        <time>2025-04-25T12:40:13Z</time>
      </trkpt>
      <trkpt lat="44.401621967554092" lon="2.271026037633419">
        <ele>541.84000000000003</ele>
        <time>2025-04-25T12:40:15Z</time>
      </trkpt>
      <trkpt lat="44.401545021682978" lon="2.270969040691853">
        <ele>542.32000000000005</ele>
        <time>2025-04-25T12:40:16Z</time>
      </trkpt>
      <trkpt lat="44.401143025606871" lon="2.270676009356976">
        <ele>544.24000000000001</ele>
        <time>2025-04-25T12:40:20Z</time>
      </trkpt>
      <trkpt lat="44.401027020066977" lon="2.27066402323544">
        <ele>545.20000000000005</ele>
        <time>2025-04-25T12:40:21Z</time>
      </trkpt>
      <trkpt lat="44.400907997041941" lon="2.270654970780015">
        <ele>545.69000000000005</ele>
        <time>2025-04-25T12:40:22Z</time>
      </trkpt>
      <trkpt lat="44.400781011208892" lon="2.270644996315241">
        <ele>546.64999999999998</ele>
        <time>2025-04-25T12:40:23Z</time>
      </trkpt>
      <trkpt lat="44.400656959041953" lon="2.270635021850467">
        <ele>547.13</ele>
        <time>2025-04-25T12:40:24Z</time>
      </trkpt>
      <trkpt lat="44.400536008179188" lon="2.270598979666829">
        <ele>548.09000000000003</ele>
        <time>2025-04-25T12:40:25Z</time>
      </trkpt>
      <trkpt lat="44.400414973497391" lon="2.270517004653812">
        <ele>549.04999999999995</ele>
        <time>2025-04-25T12:40:26Z</time>
      </trkpt>
      <trkpt lat="44.400287987664342" lon="2.27042899467051">
        <ele>550.00999999999999</ele>
        <time>2025-04-25T12:40:27Z</time>
      </trkpt>
      <trkpt lat="44.400159996002913" lon="2.270334027707577">
        <ele>550.49000000000001</ele>
        <time>2025-04-25T12:40:28Z</time>
      </trkpt>
      <trkpt lat="44.400055976584554" lon="2.270192038267851">
        <ele>551.45000000000005</ele>
        <time>2025-04-25T12:40:29Z</time>
      </trkpt>
      <trkpt lat="44.399952040985227" lon="2.270048959180713">
        <ele>552.40999999999997</ele>
        <time>2025-04-25T12:40:30Z</time>
      </trkpt>
      <trkpt lat="44.399360027164221" lon="2.268971968442202">
        <ele>558.65999999999997</ele>
        <time>2025-04-25T12:40:36Z</time>
      </trkpt>
      <trkpt lat="44.399258019402623" lon="2.268815981224179">
        <ele>560.11000000000001</ele>
        <time>2025-04-25T12:40:37Z</time>
      </trkpt>
      <trkpt lat="44.399136984720826" lon="2.268703998997808">
        <ele>561.07000000000005</ele>
        <time>2025-04-25T12:40:38Z</time>
      </trkpt>
      <trkpt lat="44.399031959474087" lon="2.268607020378113">
        <ele>562.02999999999997</ele>
        <time>2025-04-25T12:40:39Z</time>
      </trkpt>
      <trkpt lat="44.398927018046379" lon="2.268576007336378">
        <ele>563.47000000000003</ele>
        <time>2025-04-25T12:40:40Z</time>
      </trkpt>
      <trkpt lat="44.398777987807989" lon="2.268591010943055">
        <ele>564.42999999999995</ele>
        <time>2025-04-25T12:40:41Z</time>
      </trkpt>
      <trkpt lat="44.398675980046391" lon="2.268626969307661">
        <ele>565.38999999999999</ele>
        <time>2025-04-25T12:40:42Z</time>
      </trkpt>
      <trkpt lat="44.398370962589979" lon="2.268737023696303">
        <ele>567.79999999999995</ele>
        <time>2025-04-25T12:40:44Z</time>
      </trkpt>
      <trkpt lat="44.398207012563944" lon="2.268788991495967">
        <ele>569.24000000000001</ele>
        <time>2025-04-25T12:40:45Z</time>
      </trkpt>
      <trkpt lat="44.397505028173327" lon="2.268883036449552">
        <ele>576.92999999999995</ele>
        <time>2025-04-25T12:40:50Z</time>
      </trkpt>
      <trkpt lat="44.397387010976672" lon="2.268957970663905">
        <ele>578.37</ele>
        <time>2025-04-25T12:40:51Z</time>
      </trkpt>
      <trkpt lat="44.397283997386694" lon="2.269070958718658">
        <ele>579.80999999999995</ele>
        <time>2025-04-25T12:40:52Z</time>
      </trkpt>
      <trkpt lat="44.397162962704897" lon="2.269176989793778">
        <ele>580.76999999999998</ele>
        <time>2025-04-25T12:40:53Z</time>
      </trkpt>
      <trkpt lat="44.397027008235455" lon="2.269271034747362">
        <ele>582.22000000000003</ele>
        <time>2025-04-25T12:40:54Z</time>
      </trkpt>
      <trkpt lat="44.396488973870873" lon="2.269628020003438">
        <ele>585.10000000000002</ele>
        <time>2025-04-25T12:40:58Z</time>
      </trkpt>
      <trkpt lat="44.396356036886573" lon="2.26965500973165">
        <ele>585.58000000000004</ele>
        <time>2025-04-25T12:40:59Z</time>
      </trkpt>
      <trkpt lat="44.396208012476563" lon="2.269660960882902">
        <ele>586.05999999999995</ele>
        <time>2025-04-25T12:41:00Z</time>
      </trkpt>
      <trkpt lat="44.394875038415194" lon="2.269772021099925">
        <ele>584.13999999999999</ele>
        <time>2025-04-25T12:41:08Z</time>
      </trkpt>
      <trkpt lat="44.394720979034901" lon="2.269856007769704">
        <ele>584.13999999999999</ele>
        <time>2025-04-25T12:41:09Z</time>
      </trkpt>
      <trkpt lat="44.394564991816878" lon="2.269941000267863">
        <ele>584.13999999999999</ele>
        <time>2025-04-25T12:41:10Z</time>
      </trkpt>
      <trkpt lat="44.393863007426262" lon="2.270323969423771">
        <ele>585.10000000000002</ele>
        <time>2025-04-25T12:41:15Z</time>
      </trkpt>
      <trkpt lat="44.392426013946533" lon="2.270848006010056">
        <ele>581.73000000000002</ele>
        <time>2025-04-25T12:41:25Z</time>
      </trkpt>
      <trkpt lat="44.392059976235032" lon="2.270929981023073">
        <ele>580.76999999999998</ele>
        <time>2025-04-25T12:41:28Z</time>
      </trkpt>
      <trkpt lat="44.391951011493802" lon="2.270929981023073">
        <ele>580.28999999999996</ele>
        <time>2025-04-25T12:41:29Z</time>
      </trkpt>
      <trkpt lat="44.391847997903824" lon="2.270894022658467">
        <ele>579.80999999999995</ele>
        <time>2025-04-25T12:41:30Z</time>
      </trkpt>
      <trkpt lat="44.391759987920523" lon="2.270817998796701">
        <ele>578.85000000000002</ele>
        <time>2025-04-25T12:41:31Z</time>
      </trkpt>
      <trkpt lat="44.391665020957589" lon="2.270737029612064">
        <ele>578.37</ele>
        <time>2025-04-25T12:41:32Z</time>
      </trkpt>
      <trkpt lat="44.391565024852753" lon="2.270651031285524">
        <ele>577.40999999999997</ele>
        <time>2025-04-25T12:41:33Z</time>
      </trkpt>
      <trkpt lat="44.391466034576297" lon="2.270566960796714">
        <ele>576.92999999999995</ele>
        <time>2025-04-25T12:41:34Z</time>
      </trkpt>
      <trkpt lat="44.391372995451093" lon="2.270485991612077">
        <ele>576.45000000000005</ele>
        <time>2025-04-25T12:41:35Z</time>
      </trkpt>
      <trkpt lat="44.391290014609694" lon="2.270416002720594">
        <ele>575.97000000000003</ele>
        <time>2025-04-25T12:41:36Z</time>
      </trkpt>
      <trkpt lat="44.391197981312871" lon="2.270394964143634">
        <ele>575.49000000000001</ele>
        <time>2025-04-25T12:41:37Z</time>
      </trkpt>
      <trkpt lat="44.391117012128234" lon="2.270378032699227">
        <ele>575.00999999999999</ele>
        <time>2025-04-25T12:41:38Z</time>
      </trkpt>
      <trkpt lat="44.391049034893513" lon="2.270364034920931">
        <ele>574.52999999999997</ele>
        <time>2025-04-25T12:41:39Z</time>
      </trkpt>
      <trkpt lat="44.390989020466805" lon="2.270350037142634">
        <ele>574.52999999999997</ele>
        <time>2025-04-25T12:41:40Z</time>
      </trkpt>
      <trkpt lat="44.39093504101038" lon="2.270425977185369">
        <ele>574.03999999999996</ele>
        <time>2025-04-25T12:41:41Z</time>
      </trkpt>
      <trkpt lat="44.39089497551322" lon="2.270481968298554">
        <ele>573.55999999999995</ele>
        <time>2025-04-25T12:41:42Z</time>
      </trkpt>
      <trkpt lat="44.390891036018729" lon="2.270562015473843">
        <ele>573.08000000000004</ele>
        <time>2025-04-25T12:41:43Z</time>
      </trkpt>
      <trkpt lat="44.390906961634755" lon="2.270675003528595">
        <ele>572.60000000000002</ele>
        <time>2025-04-25T12:41:44Z</time>
      </trkpt>
      <trkpt lat="44.390926994383335" lon="2.270810035988689">
        <ele>572.12</ele>
        <time>2025-04-25T12:41:45Z</time>
      </trkpt>
      <trkpt lat="44.390950966626406" lon="2.270967029035091">
        <ele>572.60000000000002</ele>
        <time>2025-04-25T12:41:46Z</time>
      </trkpt>
      <trkpt lat="44.390966976061463" lon="2.271142965182662">
        <ele>572.60000000000002</ele>
        <time>2025-04-25T12:41:47Z</time>
      </trkpt>
      <trkpt lat="44.390954989939928" lon="2.271702038124204">
        <ele>573.55999999999995</ele>
        <time>2025-04-25T12:41:50Z</time>
      </trkpt>
      <trkpt lat="44.390721973031759" lon="2.27281004190445">
        <ele>575.00999999999999</ele>
        <time>2025-04-25T12:41:58Z</time>
      </trkpt>
      <trkpt lat="44.390692971646786" lon="2.272923029959202">
        <ele>575.00999999999999</ele>
        <time>2025-04-25T12:41:59Z</time>
      </trkpt>
      <trkpt lat="44.390666987746954" lon="2.27302797138691">
        <ele>575.00999999999999</ele>
        <time>2025-04-25T12:42:00Z</time>
      </trkpt>
      <trkpt lat="44.390639998018742" lon="2.273131990805268">
        <ele>575.49000000000001</ele>
        <time>2025-04-25T12:42:01Z</time>
      </trkpt>
      <trkpt lat="44.390503037720919" lon="2.27367103099823">
        <ele>575.97000000000003</ele>
        <time>2025-04-25T12:42:06Z</time>
      </trkpt>
      <trkpt lat="44.390473030507565" lon="2.273787036538124">
        <ele>575.49000000000001</ele>
        <time>2025-04-25T12:42:07Z</time>
      </trkpt>
      <trkpt lat="44.390432965010405" lon="2.273896001279354">
        <ele>575.49000000000001</ele>
        <time>2025-04-25T12:42:08Z</time>
      </trkpt>
      <trkpt lat="44.390346966683865" lon="2.274133963510394">
        <ele>574.52999999999997</ele>
        <time>2025-04-25T12:42:10Z</time>
      </trkpt>
      <trkpt lat="44.390302039682865" lon="2.274259021505714">
        <ele>574.52999999999997</ele>
        <time>2025-04-25T12:42:11Z</time>
      </trkpt>
      <trkpt lat="44.39018502831459" lon="2.274820022284985">
        <ele>575.49000000000001</ele>
        <time>2025-04-25T12:42:15Z</time>
      </trkpt>
      <trkpt lat="44.390131970867515" lon="2.274952959269285">
        <ele>575.49000000000001</ele>
        <time>2025-04-25T12:42:16Z</time>
      </trkpt>
      <trkpt lat="44.390076985582709" lon="2.275092015042901">
        <ele>576.45000000000005</ele>
        <time>2025-04-25T12:42:17Z</time>
      </trkpt>
      <trkpt lat="44.390020994469523" lon="2.275232998654246">
        <ele>576.92999999999995</ele>
        <time>2025-04-25T12:42:18Z</time>
      </trkpt>
      <trkpt lat="44.389963997527957" lon="2.275375993922353">
        <ele>577.40999999999997</ele>
        <time>2025-04-25T12:42:19Z</time>
      </trkpt>
      <trkpt lat="44.389904988929629" lon="2.275526029989123">
        <ele>577.40999999999997</ele>
        <time>2025-04-25T12:42:20Z</time>
      </trkpt>
      <trkpt lat="44.389838017523289" lon="2.27567195892334">
        <ele>577.40999999999997</ele>
        <time>2025-04-25T12:42:21Z</time>
      </trkpt>
      <trkpt lat="44.389761993661523" lon="2.275814032182097">
        <ele>577.40999999999997</ele>
        <time>2025-04-25T12:42:22Z</time>
      </trkpt>
      <trkpt lat="44.389671972021461" lon="2.275945041328669">
        <ele>576.92999999999995</ele>
        <time>2025-04-25T12:42:23Z</time>
      </trkpt>
      <trkpt lat="44.389568958431482" lon="2.276063980534673">
        <ele>576.92999999999995</ele>
        <time>2025-04-25T12:42:24Z</time>
      </trkpt>
      <trkpt lat="44.389459993690252" lon="2.276188032701612">
        <ele>576.45000000000005</ele>
        <time>2025-04-25T12:42:25Z</time>
      </trkpt>
      <trkpt lat="44.388660024851561" lon="2.277177013456821">
        <ele>572.60000000000002</ele>
        <time>2025-04-25T12:42:33Z</time>
      </trkpt>
      <trkpt lat="44.388551982119679" lon="2.277294024825096">
        <ele>572.12</ele>
        <time>2025-04-25T12:42:34Z</time>
      </trkpt>
      <trkpt lat="44.387699039652944" lon="2.27829298004508">
        <ele>566.83000000000004</ele>
        <time>2025-04-25T12:42:41Z</time>
      </trkpt>
      <trkpt lat="44.387419000267982" lon="2.278680978342891">
        <ele>566.83000000000004</ele>
        <time>2025-04-25T12:42:44Z</time>
      </trkpt>
      <trkpt lat="44.387350017204881" lon="2.278843000531197">
        <ele>567.32000000000005</ele>
        <time>2025-04-25T12:42:45Z</time>
      </trkpt>
      <trkpt lat="44.387062015011907" lon="2.279517995193601">
        <ele>568.75999999999999</ele>
        <time>2025-04-25T12:42:49Z</time>
      </trkpt>
      <trkpt lat="44.386971993371844" lon="2.279686974361539">
        <ele>568.75999999999999</ele>
        <time>2025-04-25T12:42:50Z</time>
      </trkpt>
      <trkpt lat="44.386866968125105" lon="2.279833992943168">
        <ele>568.75999999999999</ele>
        <time>2025-04-25T12:42:51Z</time>
      </trkpt>
      <trkpt lat="44.386763032525778" lon="2.279959972947836">
        <ele>568.75999999999999</ele>
        <time>2025-04-25T12:42:52Z</time>
      </trkpt>
      <trkpt lat="44.386644009500742" lon="2.280074972659349">
        <ele>568.75999999999999</ele>
        <time>2025-04-25T12:42:53Z</time>
      </trkpt>
      <trkpt lat="44.386524986475706" lon="2.280187960714102">
        <ele>568.27999999999997</ele>
        <time>2025-04-25T12:42:54Z</time>
      </trkpt>
      <trkpt lat="44.386416021734476" lon="2.280291980132461">
        <ele>567.79999999999995</ele>
        <time>2025-04-25T12:42:55Z</time>
      </trkpt>
      <trkpt lat="44.386312002316117" lon="2.280391976237297">
        <ele>567.79999999999995</ele>
        <time>2025-04-25T12:42:56Z</time>
      </trkpt>
      <trkpt lat="44.386251987889409" lon="2.280522985383868">
        <ele>567.32000000000005</ele>
        <time>2025-04-25T12:42:57Z</time>
      </trkpt>
      <trkpt lat="44.386205971240997" lon="2.280622981488705">
        <ele>566.83000000000004</ele>
        <time>2025-04-25T12:42:58Z</time>
      </trkpt>
      <trkpt lat="44.38619096763432" lon="2.280706968158484">
        <ele>566.83000000000004</ele>
        <time>2025-04-25T12:42:59Z</time>
      </trkpt>
      <trkpt lat="44.386180993169546" lon="2.28076396510005">
        <ele>566.35000000000002</ele>
        <time>2025-04-25T12:43:00Z</time>
      </trkpt>
      <trkpt lat="44.386141011491418" lon="2.280889023095369">
        <ele>565.38999999999999</ele>
        <time>2025-04-25T12:43:03Z</time>
      </trkpt>
      <trkpt lat="44.386108992621303" lon="2.28089296258986">
        <ele>565.38999999999999</ele>
        <time>2025-04-25T12:43:04Z</time>
      </trkpt>
      <trkpt lat="44.386050989851356" lon="2.280900003388524">
        <ele>564.90999999999997</ele>
        <time>2025-04-25T12:43:05Z</time>
      </trkpt>
      <trkpt lat="44.385352022945881" lon="2.280989019200206">
        <ele>565.87</ele>
        <time>2025-04-25T12:43:11Z</time>
      </trkpt>
      <trkpt lat="44.384396988898516" lon="2.280972003936768">
        <ele>565.87</ele>
        <time>2025-04-25T12:43:17Z</time>
      </trkpt>
      <trkpt lat="44.384265979751945" lon="2.280904026702046">
        <ele>565.38999999999999</ele>
        <time>2025-04-25T12:43:18Z</time>
      </trkpt>
      <trkpt lat="44.384162966161966" lon="2.280805958434939">
        <ele>564.90999999999997</ele>
        <time>2025-04-25T12:43:19Z</time>
      </trkpt>
      <trkpt lat="44.383978983387351" lon="2.28063203394413">
        <ele>563.47000000000003</ele>
        <time>2025-04-25T12:43:21Z</time>
      </trkpt>
      <trkpt lat="44.383885022252798" lon="2.280574031174183">
        <ele>562.50999999999999</ele>
        <time>2025-04-25T12:43:22Z</time>
      </trkpt>
      <trkpt lat="44.383773962035775" lon="2.280624993145466">
        <ele>562.02999999999997</ele>
        <time>2025-04-25T12:43:23Z</time>
      </trkpt>
      <trkpt lat="44.383646976202726" lon="2.280689030885696">
        <ele>561.07000000000005</ele>
        <time>2025-04-25T12:43:24Z</time>
      </trkpt>
      <trkpt lat="44.383511021733284" lon="2.28078399784863">
        <ele>560.59000000000003</ele>
        <time>2025-04-25T12:43:25Z</time>
      </trkpt>
      <trkpt lat="44.383082035928965" lon="2.281083986163139">
        <ele>558.17999999999995</ele>
        <time>2025-04-25T12:43:28Z</time>
      </trkpt>
      <trkpt lat="44.382774000987411" lon="2.281175013631582">
        <ele>556.25999999999999</ele>
        <time>2025-04-25T12:43:30Z</time>
      </trkpt>
      <trkpt lat="44.382617007941008" lon="2.281208038330078">
        <ele>554.82000000000005</ele>
        <time>2025-04-25T12:43:31Z</time>
      </trkpt>
      <trkpt lat="44.382458003237844" lon="2.281218012794852">
        <ele>553.38</ele>
        <time>2025-04-25T12:43:32Z</time>
      </trkpt>
      <trkpt lat="44.382295981049538" lon="2.281184988096356">
        <ele>551.92999999999995</ele>
        <time>2025-04-25T12:43:33Z</time>
      </trkpt>
      <trkpt lat="44.382127001881599" lon="2.281150035560131">
        <ele>550.49000000000001</ele>
        <time>2025-04-25T12:43:34Z</time>
      </trkpt>
      <trkpt lat="44.38178401440382" lon="2.281079040840268">
        <ele>547.13</ele>
        <time>2025-04-25T12:43:36Z</time>
      </trkpt>
      <trkpt lat="44.381615035235882" lon="2.281079040840268">
        <ele>545.20000000000005</ele>
        <time>2025-04-25T12:43:37Z</time>
      </trkpt>
      <trkpt lat="44.381284033879638" lon="2.281079040840268">
        <ele>541.36000000000001</ele>
        <time>2025-04-25T12:43:39Z</time>
      </trkpt>
      <trkpt lat="44.381109019741416" lon="2.281050039455295">
        <ele>539.44000000000005</ele>
        <time>2025-04-25T12:43:40Z</time>
      </trkpt>
      <trkpt lat="44.379913005977869" lon="2.280681990087032">
        <ele>525.98000000000002</ele>
        <time>2025-04-25T12:43:47Z</time>
      </trkpt>
      <trkpt lat="44.379799012094736" lon="2.280652988702059">
        <ele>524.53999999999996</ele>
        <time>2025-04-25T12:43:48Z</time>
      </trkpt>
      <trkpt lat="44.379665991291404" lon="2.28069799952209">
        <ele>522.61000000000001</ele>
        <time>2025-04-25T12:43:49Z</time>
      </trkpt>
      <trkpt lat="44.379520984366536" lon="2.280746027827263">
        <ele>521.16999999999996</ele>
        <time>2025-04-25T12:43:50Z</time>
      </trkpt>
      <trkpt lat="44.379360973834991" lon="2.280799001455307">
        <ele>519.25</ele>
        <time>2025-04-25T12:43:51Z</time>
      </trkpt>
      <trkpt lat="44.379197023808956" lon="2.280853986740112">
        <ele>517.33000000000004</ele>
        <time>2025-04-25T12:43:52Z</time>
      </trkpt>
      <trkpt lat="44.379022009670734" lon="2.280894974246621">
        <ele>515.39999999999998</ele>
        <time>2025-04-25T12:43:53Z</time>
      </trkpt>
      <trkpt lat="44.37884297221899" lon="2.280914001166821">
        <ele>513</ele>
        <time>2025-04-25T12:43:54Z</time>
      </trkpt>
      <trkpt lat="44.378663012757897" lon="2.28093302808702">
        <ele>511.56</ele>
        <time>2025-04-25T12:43:55Z</time>
      </trkpt>
      <trkpt lat="44.378481041640043" lon="2.280958006158471">
        <ele>509.63999999999999</ele>
        <time>2025-04-25T12:43:56Z</time>
      </trkpt>
      <trkpt lat="44.378300998359919" lon="2.281025983393192">
        <ele>508.19</ele>
        <time>2025-04-25T12:43:57Z</time>
      </trkpt>
      <trkpt lat="44.377129040658474" lon="2.281481958925724">
        <ele>499.06</ele>
        <time>2025-04-25T12:44:04Z</time>
      </trkpt>
      <trkpt lat="44.376985961571336" lon="2.281549014151096">
        <ele>498.10000000000002</ele>
        <time>2025-04-25T12:44:05Z</time>
      </trkpt>
      <trkpt lat="44.376583965495229" lon="2.281739031895995">
        <ele>494.74000000000001</ele>
        <time>2025-04-25T12:44:08Z</time>
      </trkpt>
      <trkpt lat="44.376437030732632" lon="2.281773984432221">
        <ele>493.29000000000002</ele>
        <time>2025-04-25T12:44:09Z</time>
      </trkpt>
      <trkpt lat="44.376282971352339" lon="2.281786976382136">
        <ele>492.32999999999998</ele>
        <time>2025-04-25T12:44:10Z</time>
      </trkpt>
      <trkpt lat="44.376132013276219" lon="2.281799968332052">
        <ele>491.37</ele>
        <time>2025-04-25T12:44:11Z</time>
      </trkpt>
      <trkpt lat="44.37598398886621" lon="2.281817989423871">
        <ele>490.41000000000003</ele>
        <time>2025-04-25T12:44:12Z</time>
      </trkpt>
      <trkpt lat="44.375838981941342" lon="2.281844979152083">
        <ele>489.44999999999999</ele>
        <time>2025-04-25T12:44:13Z</time>
      </trkpt>
      <trkpt lat="44.375700009986758" lon="2.281870041042566">
        <ele>488.49000000000001</ele>
        <time>2025-04-25T12:44:14Z</time>
      </trkpt>
      <trkpt lat="44.375567995011806" lon="2.281895019114018">
        <ele>487.52999999999997</ele>
        <time>2025-04-25T12:44:15Z</time>
      </trkpt>
      <trkpt lat="44.37544503249228" lon="2.281913040205836">
        <ele>486.56</ele>
        <time>2025-04-25T12:44:16Z</time>
      </trkpt>
      <trkpt lat="44.375323997810483" lon="2.281859982758761">
        <ele>485.12</ele>
        <time>2025-04-25T12:44:17Z</time>
      </trkpt>
      <trkpt lat="44.375211009755731" lon="2.281810026615858">
        <ele>484.16000000000003</ele>
        <time>2025-04-25T12:44:18Z</time>
      </trkpt>
      <trkpt lat="44.37510397285223" lon="2.281752023845911">
        <ele>483.19999999999999</ele>
        <time>2025-04-25T12:44:19Z</time>
      </trkpt>
      <trkpt lat="44.375043958425522" lon="2.281623026356101">
        <ele>481.75999999999999</ele>
        <time>2025-04-25T12:44:20Z</time>
      </trkpt>
      <trkpt lat="44.374981010332704" lon="2.281479025259614">
        <ele>480.80000000000001</ele>
        <time>2025-04-25T12:44:21Z</time>
      </trkpt>
      <trkpt lat="44.374981010332704" lon="2.281317003071308">
        <ele>479.35000000000002</ele>
        <time>2025-04-25T12:44:22Z</time>
      </trkpt>
      <trkpt lat="44.374997019767761" lon="2.281126985326409">
        <ele>478.38999999999999</ele>
        <time>2025-04-25T12:44:23Z</time>
      </trkpt>
      <trkpt lat="44.375032978132367" lon="2.28093596175313">
        <ele>477.43000000000001</ele>
        <time>2025-04-25T12:44:24Z</time>
      </trkpt>
      <trkpt lat="44.375071031972766" lon="2.280738987028599">
        <ele>475.99000000000001</ele>
        <time>2025-04-25T12:44:25Z</time>
      </trkpt>
      <trkpt lat="44.375109001994133" lon="2.280537988990545">
        <ele>474.55000000000001</ele>
        <time>2025-04-25T12:44:26Z</time>
      </trkpt>
      <trkpt lat="44.375148983672261" lon="2.28033103980124">
        <ele>473.58999999999997</ele>
        <time>2025-04-25T12:44:27Z</time>
      </trkpt>
      <trkpt lat="44.375188965350389" lon="2.280123000964522">
        <ele>472.13999999999999</ele>
        <time>2025-04-25T12:44:28Z</time>
      </trkpt>
      <trkpt lat="44.375371020287275" lon="2.27919596247375">
        <ele>467.81999999999999</ele>
        <time>2025-04-25T12:44:33Z</time>
      </trkpt>
      <trkpt lat="44.37540496699512" lon="2.279027989134193">
        <ele>466.86000000000001</ele>
        <time>2025-04-25T12:44:34Z</time>
      </trkpt>
      <trkpt lat="44.375457018613815" lon="2.278864039108157">
        <ele>465.89999999999998</ele>
        <time>2025-04-25T12:44:35Z</time>
      </trkpt>
      <trkpt lat="44.375573024153709" lon="2.278529014438391">
        <ele>463.97000000000003</ele>
        <time>2025-04-25T12:44:37Z</time>
      </trkpt>
      <trkpt lat="44.375643013045192" lon="2.278245035558939">
        <ele>463.00999999999999</ele>
        <time>2025-04-25T12:44:39Z</time>
      </trkpt>
      <trkpt lat="44.375631026923656" lon="2.278103968128562">
        <ele>462.52999999999997</ele>
        <time>2025-04-25T12:44:40Z</time>
      </trkpt>
      <trkpt lat="44.375613005831838" lon="2.2779690194875">
        <ele>462.05000000000001</ele>
        <time>2025-04-25T12:44:41Z</time>
      </trkpt>
      <trkpt lat="44.375576041638851" lon="2.277694009244442">
        <ele>461.08999999999997</ele>
        <time>2025-04-25T12:44:43Z</time>
      </trkpt>
      <trkpt lat="44.375561038032174" lon="2.27758202701807">
        <ele>460.13</ele>
        <time>2025-04-25T12:44:44Z</time>
      </trkpt>
      <trkpt lat="44.375593978911638" lon="2.277415981516242">
        <ele>459.64999999999998</ele>
        <time>2025-04-25T12:44:45Z</time>
      </trkpt>
      <trkpt lat="44.375625997781754" lon="2.277254965156317">
        <ele>458.69</ele>
        <time>2025-04-25T12:44:46Z</time>
      </trkpt>
      <trkpt lat="44.37566002830863" lon="2.277083974331617">
        <ele>457.72000000000003</ele>
        <time>2025-04-25T12:44:47Z</time>
      </trkpt>
      <trkpt lat="44.37576899304986" lon="2.276543006300926">
        <ele>455.31999999999999</ele>
        <time>2025-04-25T12:44:50Z</time>
      </trkpt>
      <trkpt lat="44.375805035233498" lon="2.276370003819466">
        <ele>454.36000000000001</ele>
        <time>2025-04-25T12:44:51Z</time>
      </trkpt>
      <trkpt lat="44.375841999426484" lon="2.276194989681244">
        <ele>453.39999999999998</ele>
        <time>2025-04-25T12:44:52Z</time>
      </trkpt>
      <trkpt lat="44.375917017459869" lon="2.27584202773869">
        <ele>451.48000000000002</ele>
        <time>2025-04-25T12:44:54Z</time>
      </trkpt>
      <trkpt lat="44.375952975824475" lon="2.275674976408482">
        <ele>450.02999999999997</ele>
        <time>2025-04-25T12:44:55Z</time>
      </trkpt>
      <trkpt lat="44.375987006351352" lon="2.275513960048556">
        <ele>448.58999999999997</ele>
        <time>2025-04-25T12:44:56Z</time>
      </trkpt>
      <trkpt lat="44.375984994694591" lon="2.275353027507663">
        <ele>447.14999999999998</ele>
        <time>2025-04-25T12:44:57Z</time>
      </trkpt>
      <trkpt lat="44.375978959724307" lon="2.275172984227538">
        <ele>445.70999999999998</ele>
        <time>2025-04-25T12:44:58Z</time>
      </trkpt>
      <trkpt lat="44.375972002744675" lon="2.274991013109684">
        <ele>444.26999999999998</ele>
        <time>2025-04-25T12:44:59Z</time>
      </trkpt>
      <trkpt lat="44.376042997464538" lon="2.274127006530762">
        <ele>437.54000000000002</ele>
        <time>2025-04-25T12:45:04Z</time>
      </trkpt>
      <trkpt lat="44.376078033819795" lon="2.274026004597545">
        <ele>436.57999999999998</ele>
        <time>2025-04-25T12:45:05Z</time>
      </trkpt>
      <trkpt lat="44.376108041033149" lon="2.273942017927766">
        <ele>435.61000000000001</ele>
        <time>2025-04-25T12:45:06Z</time>
      </trkpt>
      <trkpt lat="44.376119021326303" lon="2.273912010714412">
        <ele>435.13</ele>
        <time>2025-04-25T12:45:07Z</time>
      </trkpt>
      <trkpt lat="44.376093037426472" lon="2.273851996287704">
        <ele>434.17000000000002</ele>
        <time>2025-04-25T12:45:08Z</time>
      </trkpt>
      <trkpt lat="44.376067975535989" lon="2.273792987689376">
        <ele>433.20999999999998</ele>
        <time>2025-04-25T12:45:09Z</time>
      </trkpt>
      <trkpt lat="44.376039979979396" lon="2.273765997961164">
        <ele>432.73000000000002</ele>
        <time>2025-04-25T12:45:10Z</time>
      </trkpt>
      <trkpt lat="44.375964961946011" lon="2.273788964375854">
        <ele>431.76999999999998</ele>
        <time>2025-04-25T12:45:11Z</time>
      </trkpt>
      <trkpt lat="44.375906959176064" lon="2.273885020986199">
        <ele>431.29000000000002</ele>
        <time>2025-04-25T12:45:12Z</time>
      </trkpt>
      <trkpt lat="44.375843005254865" lon="2.273993985727429">
        <ele>430.32999999999998</ele>
        <time>2025-04-25T12:45:13Z</time>
      </trkpt>
      <trkpt lat="44.375767987221479" lon="2.27412398904562">
        <ele>429.85000000000002</ele>
        <time>2025-04-25T12:45:14Z</time>
      </trkpt>
      <trkpt lat="44.375706966966391" lon="2.274280982092023">
        <ele>428.88999999999999</ele>
        <time>2025-04-25T12:45:15Z</time>
      </trkpt>
      <trkpt lat="44.37563999556005" lon="2.274451972916722">
        <ele>428.39999999999998</ele>
        <time>2025-04-25T12:45:16Z</time>
      </trkpt>
      <trkpt lat="44.375494988635182" lon="2.274824967607856">
        <ele>426.95999999999998</ele>
        <time>2025-04-25T12:45:18Z</time>
      </trkpt>
      <trkpt lat="44.375412007793784" lon="2.275013979524374">
        <ele>426</ele>
        <time>2025-04-25T12:45:19Z</time>
      </trkpt>
      <trkpt lat="44.375294996425509" lon="2.275182958692312">
        <ele>425.04000000000002</ele>
        <time>2025-04-25T12:45:20Z</time>
      </trkpt>
      <trkpt lat="44.374832985922694" lon="2.275786958634853">
        <ele>421.68000000000001</ele>
        <time>2025-04-25T12:45:24Z</time>
      </trkpt>
      <trkpt lat="44.374744975939393" lon="2.27586499415338">
        <ele>421.19</ele>
        <time>2025-04-25T12:45:25Z</time>
      </trkpt>
      <trkpt lat="44.374637017026544" lon="2.275832975283265">
        <ele>420.23000000000002</ele>
        <time>2025-04-25T12:45:26Z</time>
      </trkpt>
      <trkpt lat="44.374530985951424" lon="2.275801040232182">
        <ele>419.26999999999998</ele>
        <time>2025-04-25T12:45:27Z</time>
      </trkpt>
      <trkpt lat="44.374441970139742" lon="2.275708001106978">
        <ele>418.31</ele>
        <time>2025-04-25T12:45:28Z</time>
      </trkpt>
      <trkpt lat="44.374343985691667" lon="2.27560599334538">
        <ele>417.35000000000002</ele>
        <time>2025-04-25T12:45:29Z</time>
      </trkpt>
      <trkpt lat="44.374246001243591" lon="2.275503985583782">
        <ele>416.38999999999999</ele>
        <time>2025-04-25T12:45:30Z</time>
      </trkpt>
      <trkpt lat="44.37404902651906" lon="2.275298964232206">
        <ele>414.47000000000003</ele>
        <time>2025-04-25T12:45:32Z</time>
      </trkpt>
      <trkpt lat="44.37391902320087" lon="2.275230986997485">
        <ele>413.5</ele>
        <time>2025-04-25T12:45:33Z</time>
      </trkpt>
      <trkpt lat="44.372759973630309" lon="2.274826979264617">
        <ele>408.22000000000003</ele>
        <time>2025-04-25T12:45:41Z</time>
      </trkpt>
      <trkpt lat="44.372425032779574" lon="2.274795966222882">
        <ele>406.29000000000002</ele>
        <time>2025-04-25T12:45:44Z</time>
      </trkpt>
      <trkpt lat="44.372329981997609" lon="2.274808958172798">
        <ele>405.32999999999998</ele>
        <time>2025-04-25T12:45:45Z</time>
      </trkpt>
      <trkpt lat="44.372264016419649" lon="2.274839971214533">
        <ele>404.37</ele>
        <time>2025-04-25T12:45:46Z</time>
      </trkpt>
      <trkpt lat="44.372192015871406" lon="2.274894034489989">
        <ele>403.41000000000003</ele>
        <time>2025-04-25T12:45:47Z</time>
      </trkpt>
      <trkpt lat="44.372114986181259" lon="2.274951031431556">
        <ele>402.44999999999999</ele>
        <time>2025-04-25T12:45:48Z</time>
      </trkpt>
      <trkpt lat="44.37203099951148" lon="2.275014985352755">
        <ele>401.49000000000001</ele>
        <time>2025-04-25T12:45:49Z</time>
      </trkpt>
      <trkpt lat="44.371862020343542" lon="2.275151023641229">
        <ele>399.07999999999998</ele>
        <time>2025-04-25T12:45:51Z</time>
      </trkpt>
      <trkpt lat="44.371777027845383" lon="2.275217995047569">
        <ele>398.60000000000002</ele>
        <time>2025-04-25T12:45:52Z</time>
      </trkpt>
      <trkpt lat="44.371604025363922" lon="2.275360990315676">
        <ele>398.12</ele>
        <time>2025-04-25T12:45:54Z</time>
      </trkpt>
      <trkpt lat="44.371360028162599" lon="2.275683023035526">
        <ele>397.63999999999999</ele>
        <time>2025-04-25T12:45:57Z</time>
      </trkpt>
      <trkpt lat="44.37127897515893" lon="2.275840016081929">
        <ele>397.63999999999999</ele>
        <time>2025-04-25T12:45:58Z</time>
      </trkpt>
      <trkpt lat="44.371190965175629" lon="2.27601301856339">
        <ele>397.63999999999999</ele>
        <time>2025-04-25T12:45:59Z</time>
      </trkpt>
      <trkpt lat="44.370767008513212" lon="2.276995964348316">
        <ele>401.49000000000001</ele>
        <time>2025-04-25T12:46:04Z</time>
      </trkpt>
      <trkpt lat="44.370723003521562" lon="2.277227975428104">
        <ele>402.44999999999999</ele>
        <time>2025-04-25T12:46:05Z</time>
      </trkpt>
      <trkpt lat="44.370702970772982" lon="2.277478007599711">
        <ele>403.41000000000003</ele>
        <time>2025-04-25T12:46:06Z</time>
      </trkpt>
      <trkpt lat="44.370686961337924" lon="2.279664007946849">
        <ele>410.62</ele>
        <time>2025-04-25T12:46:14Z</time>
      </trkpt>
      <trkpt lat="44.370652008801699" lon="2.280897991731763">
        <ele>415.91000000000003</ele>
        <time>2025-04-25T12:46:19Z</time>
      </trkpt>
      <trkpt lat="44.370589982718229" lon="2.281104018911719">
        <ele>416.87</ele>
        <time>2025-04-25T12:46:20Z</time>
      </trkpt>
      <trkpt lat="44.370381021872163" lon="2.282053017988801">
        <ele>421.68000000000001</ele>
        <time>2025-04-25T12:46:24Z</time>
      </trkpt>
      <trkpt lat="44.370356965810061" lon="2.282325010746718">
        <ele>423.12</ele>
        <time>2025-04-25T12:46:25Z</time>
      </trkpt>
      <trkpt lat="44.370365012437105" lon="2.282591974362731">
        <ele>424.56</ele>
        <time>2025-04-25T12:46:26Z</time>
      </trkpt>
      <trkpt lat="44.370401976630092" lon="2.282871007919312">
        <ele>426</ele>
        <time>2025-04-25T12:46:27Z</time>
      </trkpt>
      <trkpt lat="44.37043902464211" lon="2.283153980970383">
        <ele>427.44</ele>
        <time>2025-04-25T12:46:28Z</time>
      </trkpt>
      <trkpt lat="44.370476994663477" lon="2.283442988991737">
        <ele>428.88999999999999</ele>
        <time>2025-04-25T12:46:29Z</time>
      </trkpt>
      <trkpt lat="44.371011005714536" lon="2.285756981000304">
        <ele>442.81999999999999</ele>
        <time>2025-04-25T12:46:38Z</time>
      </trkpt>
      <trkpt lat="44.371002959087491" lon="2.285985974594951">
        <ele>444.26999999999998</ele>
        <time>2025-04-25T12:46:39Z</time>
      </trkpt>
      <trkpt lat="44.370996002107859" lon="2.28619895875454">
        <ele>445.70999999999998</ele>
        <time>2025-04-25T12:46:40Z</time>
      </trkpt>
      <trkpt lat="44.370979992672801" lon="2.286392999812961">
        <ele>446.67000000000002</ele>
        <time>2025-04-25T12:46:41Z</time>
      </trkpt>
      <trkpt lat="44.370924001559615" lon="2.286575976759195">
        <ele>448.11000000000001</ele>
        <time>2025-04-25T12:46:42Z</time>
      </trkpt>
      <trkpt lat="44.37086901627481" lon="2.286757025867701">
        <ele>449.55000000000001</ele>
        <time>2025-04-25T12:46:43Z</time>
      </trkpt>
      <trkpt lat="44.370803972706199" lon="2.286904966458678">
        <ele>451</ele>
        <time>2025-04-25T12:46:44Z</time>
      </trkpt>
      <trkpt lat="44.37071998603642" lon="2.287032036110759">
        <ele>451.95999999999998</ele>
        <time>2025-04-25T12:46:45Z</time>
      </trkpt>
      <trkpt lat="44.370626024901867" lon="2.287173019722104">
        <ele>453.39999999999998</ele>
        <time>2025-04-25T12:46:46Z</time>
      </trkpt>
      <trkpt lat="44.370541032403708" lon="2.28722901083529">
        <ele>454.36000000000001</ele>
        <time>2025-04-25T12:46:47Z</time>
      </trkpt>
      <trkpt lat="44.370453022420406" lon="2.287245020270348">
        <ele>455.80000000000001</ele>
        <time>2025-04-25T12:46:48Z</time>
      </trkpt>
      <trkpt lat="44.370368029922247" lon="2.287216018885374">
        <ele>456.75999999999999</ele>
        <time>2025-04-25T12:46:49Z</time>
      </trkpt>
      <trkpt lat="44.370282031595707" lon="2.287108981981874">
        <ele>457.72000000000003</ele>
        <time>2025-04-25T12:46:50Z</time>
      </trkpt>
      <trkpt lat="44.370234003290534" lon="2.286984007805586">
        <ele>459.17000000000002</ele>
        <time>2025-04-25T12:46:51Z</time>
      </trkpt>
      <trkpt lat="44.370171977207065" lon="2.286822991445661">
        <ele>460.13</ele>
        <time>2025-04-25T12:46:52Z</time>
      </trkpt>
      <trkpt lat="44.370106011629105" lon="2.286653006449342">
        <ele>461.56999999999999</ele>
        <time>2025-04-25T12:46:53Z</time>
      </trkpt>
      <trkpt lat="44.369789008051157" lon="2.285924032330513">
        <ele>466.86000000000001</ele>
        <time>2025-04-25T12:46:57Z</time>
      </trkpt>
      <trkpt lat="44.369673002511263" lon="2.285781037062407">
        <ele>467.81999999999999</ele>
        <time>2025-04-25T12:46:58Z</time>
      </trkpt>
      <trkpt lat="44.369535958394408" lon="2.285663019865751">
        <ele>469.25999999999999</ele>
        <time>2025-04-25T12:46:59Z</time>
      </trkpt>
      <trkpt lat="44.368238020688295" lon="2.284486033022404">
        <ele>485.12</ele>
        <time>2025-04-25T12:47:08Z</time>
      </trkpt>
      <trkpt lat="44.368140958249569" lon="2.284341026097536">
        <ele>487.05000000000001</ele>
        <time>2025-04-25T12:47:09Z</time>
      </trkpt>
      <trkpt lat="44.368074992671609" lon="2.284182021394372">
        <ele>488.00999999999999</ele>
        <time>2025-04-25T12:47:10Z</time>
      </trkpt>
      <trkpt lat="44.368011960759759" lon="2.28402704000473">
        <ele>488.97000000000003</ele>
        <time>2025-04-25T12:47:11Z</time>
      </trkpt>
      <trkpt lat="44.367955969646573" lon="2.283860994502902">
        <ele>489.93000000000001</ele>
        <time>2025-04-25T12:47:12Z</time>
      </trkpt>
      <trkpt lat="44.367923028767109" lon="2.28366200812161">
        <ele>490.88999999999999</ele>
        <time>2025-04-25T12:47:13Z</time>
      </trkpt>
      <trkpt lat="44.367886986583471" lon="2.283442988991737">
        <ele>491.85000000000002</ele>
        <time>2025-04-25T12:47:14Z</time>
      </trkpt>
      <trkpt lat="44.367848010733724" lon="2.283210977911949">
        <ele>492.32999999999998</ele>
        <time>2025-04-25T12:47:15Z</time>
      </trkpt>
      <trkpt lat="44.367809034883976" lon="2.282978966832161">
        <ele>493.29000000000002</ele>
        <time>2025-04-25T12:47:16Z</time>
      </trkpt>
      <trkpt lat="44.36766603961587" lon="2.282258961349726">
        <ele>494.74000000000001</ele>
        <time>2025-04-25T12:47:19Z</time>
      </trkpt>
      <trkpt lat="44.367613987997174" lon="2.282017981633544">
        <ele>494.74000000000001</ele>
        <time>2025-04-25T12:47:20Z</time>
      </trkpt>
      <trkpt lat="44.367563026025891" lon="2.281779013574123">
        <ele>495.22000000000003</ele>
        <time>2025-04-25T12:47:21Z</time>
      </trkpt>
      <trkpt lat="44.367512986063957" lon="2.281519006937742">
        <ele>495.69999999999999</ele>
        <time>2025-04-25T12:47:22Z</time>
      </trkpt>
      <trkpt lat="44.367506029084325" lon="2.281259000301361">
        <ele>496.18000000000001</ele>
        <time>2025-04-25T12:47:23Z</time>
      </trkpt>
      <trkpt lat="44.36749798245728" lon="2.281013997271657">
        <ele>497.13999999999999</ele>
        <time>2025-04-25T12:47:24Z</time>
      </trkpt>
      <trkpt lat="44.367493037134409" lon="2.280821967869997">
        <ele>497.62</ele>
        <time>2025-04-25T12:47:25Z</time>
      </trkpt>
      <trkpt lat="44.367461018264294" lon="2.280613007023931">
        <ele>497.62</ele>
        <time>2025-04-25T12:47:26Z</time>
      </trkpt>
      <trkpt lat="44.367413995787501" lon="2.28046003729105">
        <ele>498.10000000000002</ele>
        <time>2025-04-25T12:47:27Z</time>
      </trkpt>
      <trkpt lat="44.367351969704032" lon="2.280314024537802">
        <ele>498.10000000000002</ele>
        <time>2025-04-25T12:47:28Z</time>
      </trkpt>
      <trkpt lat="44.367253985255957" lon="2.280187960714102">
        <ele>498.10000000000002</ele>
        <time>2025-04-25T12:47:29Z</time>
      </trkpt>
      <trkpt lat="44.367146026343107" lon="2.280100034549832">
        <ele>498.10000000000002</ele>
        <time>2025-04-25T12:47:30Z</time>
      </trkpt>
      <trkpt lat="44.367052987217903" lon="2.280025016516447">
        <ele>498.57999999999998</ele>
        <time>2025-04-25T12:47:31Z</time>
      </trkpt>
      <trkpt lat="44.366965983062983" lon="2.279966007918119">
        <ele>499.06</ele>
        <time>2025-04-25T12:47:32Z</time>
      </trkpt>
      <trkpt lat="44.366885013878345" lon="2.279982017353177">
        <ele>499.06</ele>
        <time>2025-04-25T12:47:33Z</time>
      </trkpt>
      <trkpt lat="44.366840003058314" lon="2.280105985701084">
        <ele>499.54000000000002</ele>
        <time>2025-04-25T12:47:34Z</time>
      </trkpt>
      <trkpt lat="44.366828016936779" lon="2.280157031491399">
        <ele>500.5</ele>
        <time>2025-04-25T12:47:35Z</time>
      </trkpt>
      <trkpt lat="44.366885013878345" lon="2.280249986797571">
        <ele>501.45999999999998</ele>
        <time>2025-04-25T12:47:36Z</time>
      </trkpt>
      <trkpt lat="44.366945028305054" lon="2.280347971245647">
        <ele>502.43000000000001</ele>
        <time>2025-04-25T12:47:37Z</time>
      </trkpt>
      <trkpt lat="44.367007976397872" lon="2.280451990664005">
        <ele>503.38999999999999</ele>
        <time>2025-04-25T12:47:38Z</time>
      </trkpt>
      <trkpt lat="44.367068996652961" lon="2.280609989538789">
        <ele>504.82999999999998</ele>
        <time>2025-04-25T12:47:39Z</time>
      </trkpt>
      <trkpt lat="44.367080982774496" lon="2.280756002292037">
        <ele>506.26999999999998</ele>
        <time>2025-04-25T12:47:40Z</time>
      </trkpt>
      <trkpt lat="44.367050975561142" lon="2.280925987288356">
        <ele>507.70999999999998</ele>
        <time>2025-04-25T12:47:41Z</time>
      </trkpt>
      <trkpt lat="44.367000013589859" lon="2.281093960627914">
        <ele>509.63999999999999</ele>
        <time>2025-04-25T12:47:42Z</time>
      </trkpt>
      <trkpt lat="44.36693899333477" lon="2.281266963109374">
        <ele>511.07999999999998</ele>
        <time>2025-04-25T12:47:43Z</time>
      </trkpt>
      <trkpt lat="44.366874033585191" lon="2.281451029703021">
        <ele>513</ele>
        <time>2025-04-25T12:47:44Z</time>
      </trkpt>
      <trkpt lat="44.366461979225278" lon="2.28233196772635">
        <ele>522.61000000000001</ele>
        <time>2025-04-25T12:47:49Z</time>
      </trkpt>
      <trkpt lat="44.36610097065568" lon="2.282807976007462">
        <ele>528.38</ele>
        <time>2025-04-25T12:47:52Z</time>
      </trkpt>
      <trkpt lat="44.365805005654693" lon="2.28306001983583">
        <ele>531.75</ele>
        <time>2025-04-25T12:47:54Z</time>
      </trkpt>
      <trkpt lat="44.365503005683422" lon="2.28323201648891">
        <ele>535.11000000000001</ele>
        <time>2025-04-25T12:47:56Z</time>
      </trkpt>
      <trkpt lat="44.365332014858723" lon="2.283308040350676">
        <ele>537.02999999999997</ele>
        <time>2025-04-25T12:47:57Z</time>
      </trkpt>
      <trkpt lat="44.364196015521884" lon="2.283622026443481">
        <ele>550.97000000000003</ele>
        <time>2025-04-25T12:48:04Z</time>
      </trkpt>
      <trkpt lat="44.36408101581037" lon="2.283653961494565">
        <ele>553.38</ele>
        <time>2025-04-25T12:48:05Z</time>
      </trkpt>
      <trkpt lat="44.363976996392012" lon="2.283653961494565">
        <ele>555.29999999999995</ele>
        <time>2025-04-25T12:48:06Z</time>
      </trkpt>
      <trkpt lat="44.363872976973653" lon="2.283615991473198">
        <ele>556.74000000000001</ele>
        <time>2025-04-25T12:48:07Z</time>
      </trkpt>
      <trkpt lat="44.363784966990352" lon="2.283517001196742">
        <ele>558.17999999999995</ele>
        <time>2025-04-25T12:48:08Z</time>
      </trkpt>
      <trkpt lat="44.363740039989352" lon="2.283382974565029">
        <ele>559.62</ele>
        <time>2025-04-25T12:48:09Z</time>
      </trkpt>
      <trkpt lat="44.363725036382675" lon="2.283209972083569">
        <ele>561.07000000000005</ele>
        <time>2025-04-25T12:48:10Z</time>
      </trkpt>
      <trkpt lat="44.363751020282507" lon="2.283049961552024">
        <ele>562.02999999999997</ele>
        <time>2025-04-25T12:48:11Z</time>
      </trkpt>
      <trkpt lat="44.363815980032086" lon="2.282924987375736">
        <ele>564.42999999999995</ele>
        <time>2025-04-25T12:48:12Z</time>
      </trkpt>
      <trkpt lat="44.36388898640871" lon="2.282786015421152">
        <ele>565.87</ele>
        <time>2025-04-25T12:48:13Z</time>
      </trkpt>
      <trkpt lat="44.363969033583999" lon="2.282632039859891">
        <ele>567.32000000000005</ele>
        <time>2025-04-25T12:48:14Z</time>
      </trkpt>
      <trkpt lat="44.364283019676805" lon="2.281982023268938">
        <ele>572.60000000000002</ele>
        <time>2025-04-25T12:48:18Z</time>
      </trkpt>
      <trkpt lat="44.364345967769623" lon="2.281801979988813">
        <ele>574.03999999999996</ele>
        <time>2025-04-25T12:48:19Z</time>
      </trkpt>
      <trkpt lat="44.364398019388318" lon="2.281594024971128">
        <ele>575.00999999999999</ele>
        <time>2025-04-25T12:48:20Z</time>
      </trkpt>
      <trkpt lat="44.364565992727876" lon="2.280263984575868">
        <ele>583.17999999999995</ele>
        <time>2025-04-25T12:48:26Z</time>
      </trkpt>
      <trkpt lat="44.36457403935492" lon="2.280085030943155">
        <ele>584.13999999999999</ele>
        <time>2025-04-25T12:48:27Z</time>
      </trkpt>
      <trkpt lat="44.364515030756593" lon="2.279928037896752">
        <ele>585.58000000000004</ele>
        <time>2025-04-25T12:48:28Z</time>
      </trkpt>
      <trkpt lat="44.364445963874459" lon="2.279798034578562">
        <ele>586.53999999999996</ele>
        <time>2025-04-25T12:48:29Z</time>
      </trkpt>
      <trkpt lat="44.364333981648088" lon="2.279717987403274">
        <ele>587.5</ele>
        <time>2025-04-25T12:48:30Z</time>
      </trkpt>
      <trkpt lat="44.364206995815039" lon="2.279669037088752">
        <ele>588.46000000000004</ele>
        <time>2025-04-25T12:48:31Z</time>
      </trkpt>
      <trkpt lat="44.364061988890171" lon="2.279621008783579">
        <ele>589.90999999999997</ele>
        <time>2025-04-25T12:48:32Z</time>
      </trkpt>
      <trkpt lat="44.363899966701865" lon="2.279567029327154">
        <ele>591.35000000000002</ele>
        <time>2025-04-25T12:48:33Z</time>
      </trkpt>
      <trkpt lat="44.362889025360346" lon="2.279325965791941">
        <ele>601.91999999999996</ele>
        <time>2025-04-25T12:48:39Z</time>
      </trkpt>
      <trkpt lat="44.362745024263859" lon="2.279261006042361">
        <ele>603.36000000000001</ele>
        <time>2025-04-25T12:48:40Z</time>
      </trkpt>
      <trkpt lat="44.362607980147004" lon="2.279147012159228">
        <ele>604.80999999999995</ele>
        <time>2025-04-25T12:48:41Z</time>
      </trkpt>
      <trkpt lat="44.362492980435491" lon="2.279019020497799">
        <ele>606.73000000000002</ele>
        <time>2025-04-25T12:48:42Z</time>
      </trkpt>
      <trkpt lat="44.362396001815796" lon="2.27880897000432">
        <ele>608.16999999999996</ele>
        <time>2025-04-25T12:48:43Z</time>
      </trkpt>
      <trkpt lat="44.362327018752694" lon="2.278610989451408">
        <ele>609.61000000000001</ele>
        <time>2025-04-25T12:48:44Z</time>
      </trkpt>
      <trkpt lat="44.362278990447521" lon="2.278439998626709">
        <ele>611.53999999999996</ele>
        <time>2025-04-25T12:48:45Z</time>
      </trkpt>
      <trkpt lat="44.362270021811128" lon="2.278174040839076">
        <ele>612.98000000000002</ele>
        <time>2025-04-25T12:48:46Z</time>
      </trkpt>
      <trkpt lat="44.362262981012464" lon="2.277940018102527">
        <ele>614.41999999999996</ele>
        <time>2025-04-25T12:48:47Z</time>
      </trkpt>
      <trkpt lat="44.362256024032831" lon="2.277707001194358">
        <ele>615.38</ele>
        <time>2025-04-25T12:48:48Z</time>
      </trkpt>
      <trkpt lat="44.362246971577406" lon="2.276417026296258">
        <ele>618.25999999999999</ele>
        <time>2025-04-25T12:48:55Z</time>
      </trkpt>
      <trkpt lat="44.362217970192432" lon="2.275690985843539">
        <ele>619.71000000000004</ele>
        <time>2025-04-25T12:49:00Z</time>
      </trkpt>
      <trkpt lat="44.362193997949362" lon="2.275571040809155">
        <ele>619.23000000000002</ele>
        <time>2025-04-25T12:49:01Z</time>
      </trkpt>
      <trkpt lat="44.362135995179415" lon="2.27550096809864">
        <ele>619.71000000000004</ele>
        <time>2025-04-25T12:49:02Z</time>
      </trkpt>
      <trkpt lat="44.362057037651539" lon="2.27541203610599">
        <ele>619.71000000000004</ele>
        <time>2025-04-25T12:49:03Z</time>
      </trkpt>
      <trkpt lat="44.361969027668238" lon="2.275345986708999">
        <ele>619.71000000000004</ele>
        <time>2025-04-25T12:49:04Z</time>
      </trkpt>
      <trkpt lat="44.361858973279595" lon="2.275293013080955">
        <ele>619.71000000000004</ele>
        <time>2025-04-25T12:49:05Z</time>
      </trkpt>
      <trkpt lat="44.360755998641253" lon="2.274770988151431">
        <ele>623.54999999999995</ele>
        <time>2025-04-25T12:49:13Z</time>
      </trkpt>
      <trkpt lat="44.360462967306376" lon="2.274576025083661">
        <ele>625.96000000000004</ele>
        <time>2025-04-25T12:49:15Z</time>
      </trkpt>
      <trkpt lat="44.360303962603211" lon="2.274469994008541">
        <ele>626.91999999999996</ele>
        <time>2025-04-25T12:49:16Z</time>
      </trkpt>
      <trkpt lat="44.360176976770163" lon="2.274330016225576">
        <ele>628.36000000000001</ele>
        <time>2025-04-25T12:49:17Z</time>
      </trkpt>
      <trkpt lat="44.360045967623591" lon="2.274168999865651">
        <ele>629.79999999999995</ele>
        <time>2025-04-25T12:49:18Z</time>
      </trkpt>
      <trkpt lat="44.359924010932446" lon="2.273984011262655">
        <ele>631.24000000000001</ele>
        <time>2025-04-25T12:49:19Z</time>
      </trkpt>
      <trkpt lat="44.359169974923134" lon="2.272868966683745">
        <ele>639.40999999999997</ele>
        <time>2025-04-25T12:49:25Z</time>
      </trkpt>
      <trkpt lat="44.35903100296855" lon="2.272746004164219">
        <ele>640.38</ele>
        <time>2025-04-25T12:49:26Z</time>
      </trkpt>
      <trkpt lat="44.358894964680076" lon="2.272625975310803">
        <ele>641.34000000000003</ele>
        <time>2025-04-25T12:49:27Z</time>
      </trkpt>
      <trkpt lat="44.358740989118814" lon="2.27255498059094">
        <ele>642.29999999999995</ele>
        <time>2025-04-25T12:49:28Z</time>
      </trkpt>
      <trkpt lat="44.358564969152212" lon="2.272508963942528">
        <ele>643.25999999999999</ele>
        <time>2025-04-25T12:49:29Z</time>
      </trkpt>
      <trkpt lat="44.358373023569584" lon="2.272459007799625">
        <ele>643.74000000000001</ele>
        <time>2025-04-25T12:49:30Z</time>
      </trkpt>
      <trkpt lat="44.356976011767983" lon="2.271972019225359">
        <ele>645.65999999999997</ele>
        <time>2025-04-25T12:49:37Z</time>
      </trkpt>
      <trkpt lat="44.356648027896881" lon="2.271905969828367">
        <ele>646.62</ele>
        <time>2025-04-25T12:49:39Z</time>
      </trkpt>
      <trkpt lat="44.35647401958704" lon="2.271898007020354">
        <ele>646.62</ele>
        <time>2025-04-25T12:49:40Z</time>
      </trkpt>
      <trkpt lat="44.354910040274262" lon="2.271816032007337">
        <ele>649.50999999999999</ele>
        <time>2025-04-25T12:49:48Z</time>
      </trkpt>
      <trkpt lat="44.352532010525465" lon="2.271452005952597">
        <ele>655.27999999999997</ele>
        <time>2025-04-25T12:50:00Z</time>
      </trkpt>
      <trkpt lat="44.351391987875104" lon="2.27115897461772">
        <ele>658.15999999999997</ele>
        <time>2025-04-25T12:50:06Z</time>
      </trkpt>
      <trkpt lat="44.351234994828701" lon="2.271066019311547">
        <ele>658.15999999999997</ele>
        <time>2025-04-25T12:50:07Z</time>
      </trkpt>
      <trkpt lat="44.351099040359259" lon="2.270951019600034">
        <ele>658.63999999999999</ele>
        <time>2025-04-25T12:50:08Z</time>
      </trkpt>
      <trkpt lat="44.350973982363939" lon="2.270825961604714">
        <ele>659.12</ele>
        <time>2025-04-25T12:50:09Z</time>
      </trkpt>
      <trkpt lat="44.350869040936232" lon="2.270691012963653">
        <ele>659.60000000000002</ele>
        <time>2025-04-25T12:50:10Z</time>
      </trkpt>
      <trkpt lat="44.350772984325886" lon="2.270553968846798">
        <ele>660.08000000000004</ele>
        <time>2025-04-25T12:50:11Z</time>
      </trkpt>
      <trkpt lat="44.350708024576306" lon="2.270364034920931">
        <ele>660.55999999999995</ele>
        <time>2025-04-25T12:50:12Z</time>
      </trkpt>
      <trkpt lat="44.350638035684824" lon="2.270160019397736">
        <ele>661.03999999999996</ele>
        <time>2025-04-25T12:50:13Z</time>
      </trkpt>
      <trkpt lat="44.350567040964961" lon="2.269957009702921">
        <ele>662.00999999999999</ele>
        <time>2025-04-25T12:50:14Z</time>
      </trkpt>
      <trkpt lat="44.350103018805385" lon="2.26879402063787">
        <ele>664.88999999999999</ele>
        <time>2025-04-25T12:50:20Z</time>
      </trkpt>
      <trkpt lat="44.349393993616104" lon="2.266875989735127">
        <ele>663.92999999999995</ele>
        <time>2025-04-25T12:50:28Z</time>
      </trkpt>
      <trkpt lat="44.349032985046506" lon="2.264633998274803">
        <ele>665.37</ele>
        <time>2025-04-25T12:50:36Z</time>
      </trkpt>
      <trkpt lat="44.348646998405457" lon="2.261654986068606">
        <ele>664.88999999999999</ele>
        <time>2025-04-25T12:50:46Z</time>
      </trkpt>
      <trkpt lat="44.348836010321975" lon="2.259350968524814">
        <ele>669.22000000000003</ele>
        <time>2025-04-25T12:50:54Z</time>
      </trkpt>
      <trkpt lat="44.348985962569714" lon="2.256930023431778">
        <ele>679.30999999999995</ele>
        <time>2025-04-25T12:51:02Z</time>
      </trkpt>
      <trkpt lat="44.349299026653171" lon="2.255296977236867">
        <ele>687</ele>
        <time>2025-04-25T12:51:08Z</time>
      </trkpt>
      <trkpt lat="44.349340014159679" lon="2.255136966705322">
        <ele>687.48000000000002</ele>
        <time>2025-04-25T12:51:09Z</time>
      </trkpt>
      <trkpt lat="44.349317969754338" lon="2.254933035001159">
        <ele>687.96000000000004</ele>
        <time>2025-04-25T12:51:10Z</time>
      </trkpt>
      <trkpt lat="44.349297014996409" lon="2.254729019477963">
        <ele>688.44000000000005</ele>
        <time>2025-04-25T12:51:11Z</time>
      </trkpt>
      <trkpt lat="44.349227026104927" lon="2.254608990624547">
        <ele>689.39999999999998</ele>
        <time>2025-04-25T12:51:12Z</time>
      </trkpt>
      <trkpt lat="44.349130969494581" lon="2.254443028941751">
        <ele>689.39999999999998</ele>
        <time>2025-04-25T12:51:13Z</time>
      </trkpt>
      <trkpt lat="44.349060980603099" lon="2.254321994259954">
        <ele>689.88</ele>
        <time>2025-04-25T12:51:14Z</time>
      </trkpt>
      <trkpt lat="44.348916979506612" lon="2.254220992326737">
        <ele>690.36000000000001</ele>
        <time>2025-04-25T12:51:15Z</time>
      </trkpt>
      <trkpt lat="44.348808014765382" lon="2.254177993163467">
        <ele>691.33000000000004</ele>
        <time>2025-04-25T12:51:16Z</time>
      </trkpt>
      <trkpt lat="44.348670970648527" lon="2.254200037568808">
        <ele>691.80999999999995</ele>
        <time>2025-04-25T12:51:17Z</time>
      </trkpt>
      <trkpt lat="44.348515989258885" lon="2.254243036732078">
        <ele>692.28999999999996</ele>
        <time>2025-04-25T12:51:18Z</time>
      </trkpt>
      <trkpt lat="44.348344998434186" lon="2.254311013966799">
        <ele>692.76999999999998</ele>
        <time>2025-04-25T12:51:19Z</time>
      </trkpt>
      <trkpt lat="44.347528014332056" lon="2.254633968695998">
        <ele>694.21000000000004</ele>
        <time>2025-04-25T12:51:24Z</time>
      </trkpt>
      <trkpt lat="44.347411002963781" lon="2.254643021151424">
        <ele>694.69000000000005</ele>
        <time>2025-04-25T12:51:25Z</time>
      </trkpt>
      <trkpt lat="44.347304971888661" lon="2.254587030038238">
        <ele>695.16999999999996</ele>
        <time>2025-04-25T12:51:26Z</time>
      </trkpt>
      <trkpt lat="44.347183015197515" lon="2.254520980641246">
        <ele>695.64999999999998</ele>
        <time>2025-04-25T12:51:27Z</time>
      </trkpt>
      <trkpt lat="44.347046976909041" lon="2.254448980093002">
        <ele>696.13</ele>
        <time>2025-04-25T12:51:28Z</time>
      </trkpt>
      <trkpt lat="44.346903981640935" lon="2.254372034221888">
        <ele>696.61000000000001</ele>
        <time>2025-04-25T12:51:29Z</time>
      </trkpt>
      <trkpt lat="44.346744976937771" lon="2.254348983988166">
        <ele>697.09000000000003</ele>
        <time>2025-04-25T12:51:30Z</time>
      </trkpt>
      <trkpt lat="44.346586978062987" lon="2.254358036443591">
        <ele>698.04999999999995</ele>
        <time>2025-04-25T12:51:31Z</time>
      </trkpt>
      <trkpt lat="44.34644197113812" lon="2.254367005079985">
        <ele>699.01999999999998</ele>
        <time>2025-04-25T12:51:32Z</time>
      </trkpt>
      <trkpt lat="44.345735041424632" lon="2.254406986758113">
        <ele>701.41999999999996</ele>
        <time>2025-04-25T12:51:39Z</time>
      </trkpt>
      <trkpt lat="44.345677960664034" lon="2.25437899120152">
        <ele>701.41999999999996</ele>
        <time>2025-04-25T12:51:40Z</time>
      </trkpt>
      <trkpt lat="44.345634039491415" lon="2.254357030615211">
        <ele>701.41999999999996</ele>
        <time>2025-04-25T12:51:41Z</time>
      </trkpt>
      <trkpt lat="44.345597997307777" lon="2.254258962348104">
        <ele>701.89999999999998</ele>
        <time>2025-04-25T12:51:42Z</time>
      </trkpt>
      <trkpt lat="44.345626998692751" lon="2.254205988720059">
        <ele>701.89999999999998</ele>
        <time>2025-04-25T12:51:43Z</time>
      </trkpt>
      <trkpt lat="44.34566798619926" lon="2.254130970686674">
        <ele>701.89999999999998</ele>
        <time>2025-04-25T12:51:44Z</time>
      </trkpt>
      <trkpt lat="44.345719031989574" lon="2.254038015380502">
        <ele>701.89999999999998</ele>
        <time>2025-04-25T12:51:45Z</time>
      </trkpt>
      <trkpt lat="44.346289001405239" lon="2.253004023805261">
        <ele>700.94000000000005</ele>
        <time>2025-04-25T12:51:53Z</time>
      </trkpt>
      <trkpt lat="44.346600975841284" lon="2.252540001645684">
        <ele>700.46000000000004</ele>
        <time>2025-04-25T12:51:57Z</time>
      </trkpt>
      <trkpt lat="44.346673982217908" lon="2.252470012754202">
        <ele>700.46000000000004</ele>
        <time>2025-04-25T12:51:58Z</time>
      </trkpt>
      <trkpt lat="44.347105985507369" lon="2.252063993364573">
        <ele>699.01999999999998</ele>
        <time>2025-04-25T12:52:07Z</time>
      </trkpt>
      <trkpt lat="44.347140016034245" lon="2.252031974494457">
        <ele>699.01999999999998</ele>
        <time>2025-04-25T12:52:08Z</time>
      </trkpt>
      <trkpt lat="44.347175974398851" lon="2.251998027786613">
        <ele>699.01999999999998</ele>
        <time>2025-04-25T12:52:09Z</time>
      </trkpt>
      <trkpt lat="44.347207993268967" lon="2.251968020573258">
        <ele>699.01999999999998</ele>
        <time>2025-04-25T12:52:10Z</time>
      </trkpt>
      <trkpt lat="44.347347971051931" lon="2.251813039183617">
        <ele>697.57000000000005</ele>
        <time>2025-04-25T12:52:22Z</time>
      </trkpt>
      <trkpt lat="44.347363980486989" lon="2.251795018091798">
        <ele>697.57000000000005</ele>
        <time>2025-04-25T12:52:40Z</time>
      </trkpt>
      <trkpt lat="44.347382001578808" lon="2.251775991171598">
        <ele>697.09000000000003</ele>
        <time>2025-04-25T12:52:41Z</time>
      </trkpt>
      <trkpt lat="44.347528014332056" lon="2.251612041145563">
        <ele>695.64999999999998</ele>
        <time>2025-04-25T12:52:47Z</time>
      </trkpt>
      <trkpt lat="44.347959011793137" lon="2.251132009550929">
        <ele>694.69000000000005</ele>
        <time>2025-04-25T12:52:54Z</time>
      </trkpt>
      <trkpt lat="44.348285989835858" lon="2.25064099766314">
        <ele>694.21000000000004</ele>
        <time>2025-04-25T12:52:58Z</time>
      </trkpt>
      <trkpt lat="44.34835497289896" lon="2.250477969646454">
        <ele>694.21000000000004</ele>
        <time>2025-04-25T12:52:59Z</time>
      </trkpt>
      <trkpt lat="44.348641969263554" lon="2.249797023832798">
        <ele>693.73000000000002</ele>
        <time>2025-04-25T12:53:03Z</time>
      </trkpt>
      <trkpt lat="44.348729979246855" lon="2.249666014686227">
        <ele>693.25</ele>
        <time>2025-04-25T12:53:04Z</time>
      </trkpt>
      <trkpt lat="44.348813965916634" lon="2.249551014974713">
        <ele>693.25</ele>
        <time>2025-04-25T12:53:05Z</time>
      </trkpt>
      <trkpt lat="44.348910022526979" lon="2.249508015811443">
        <ele>692.76999999999998</ele>
        <time>2025-04-25T12:53:06Z</time>
      </trkpt>
      <trkpt lat="44.349009012803435" lon="2.249474991112948">
        <ele>692.76999999999998</ele>
        <time>2025-04-25T12:53:07Z</time>
      </trkpt>
      <trkpt lat="44.349106997251511" lon="2.249453030526638">
        <ele>692.76999999999998</ele>
        <time>2025-04-25T12:53:08Z</time>
      </trkpt>
      <trkpt lat="44.349218979477882" lon="2.249460993334651">
        <ele>692.76999999999998</ele>
        <time>2025-04-25T12:53:09Z</time>
      </trkpt>
      <trkpt lat="44.349340014159679" lon="2.249469961971045">
        <ele>692.28999999999996</ele>
        <time>2025-04-25T12:53:10Z</time>
      </trkpt>
      <trkpt lat="44.349863966926932" lon="2.249469039961696">
        <ele>691.80999999999995</ele>
        <time>2025-04-25T12:53:14Z</time>
      </trkpt>
      <trkpt lat="44.350002016872168" lon="2.249453030526638">
        <ele>691.80999999999995</ele>
        <time>2025-04-25T12:53:15Z</time>
      </trkpt>
      <trkpt lat="44.350134031847119" lon="2.249382035806775">
        <ele>691.33000000000004</ele>
        <time>2025-04-25T12:53:16Z</time>
      </trkpt>
      <trkpt lat="44.350267974659801" lon="2.249295031651855">
        <ele>691.33000000000004</ele>
        <time>2025-04-25T12:53:17Z</time>
      </trkpt>
      <trkpt lat="44.35039303265512" lon="2.249169973656535">
        <ele>691.33000000000004</ele>
        <time>2025-04-25T12:53:18Z</time>
      </trkpt>
      <trkpt lat="44.351280005648732" lon="2.248283000662923">
        <ele>689.39999999999998</ele>
        <time>2025-04-25T12:53:25Z</time>
      </trkpt>
      <trkpt lat="44.351354017853737" lon="2.248131958767772">
        <ele>689.39999999999998</ele>
        <time>2025-04-25T12:53:26Z</time>
      </trkpt>
      <trkpt lat="44.35142601840198" lon="2.247972032055259">
        <ele>688.91999999999996</ele>
        <time>2025-04-25T12:53:27Z</time>
      </trkpt>
      <trkpt lat="44.35149097815156" lon="2.247798023745418">
        <ele>688.91999999999996</ele>
        <time>2025-04-25T12:53:28Z</time>
      </trkpt>
      <trkpt lat="44.351516962051392" lon="2.247586967423558">
        <ele>688.44000000000005</ele>
        <time>2025-04-25T12:53:29Z</time>
      </trkpt>
      <trkpt lat="44.351545041427016" lon="2.247358979657292">
        <ele>687.48000000000002</ele>
        <time>2025-04-25T12:53:30Z</time>
      </trkpt>
      <trkpt lat="44.351648977026343" lon="2.246506959199905">
        <ele>685.55999999999995</ele>
        <time>2025-04-25T12:53:34Z</time>
      </trkpt>
      <trkpt lat="44.351700022816658" lon="2.246360024437308">
        <ele>685.08000000000004</ele>
        <time>2025-04-25T12:53:35Z</time>
      </trkpt>
      <trkpt lat="44.35177001170814" lon="2.246219962835312">
        <ele>684.60000000000002</ele>
        <time>2025-04-25T12:53:36Z</time>
      </trkpt>
      <trkpt lat="44.351848969236016" lon="2.246079985052347">
        <ele>684.12</ele>
        <time>2025-04-25T12:53:37Z</time>
      </trkpt>
      <trkpt lat="44.351951982825994" lon="2.245961967855692">
        <ele>683.63</ele>
        <time>2025-04-25T12:53:38Z</time>
      </trkpt>
      <trkpt lat="44.352074023336172" lon="2.245882004499435">
        <ele>683.14999999999998</ele>
        <time>2025-04-25T12:53:39Z</time>
      </trkpt>
      <trkpt lat="44.352208971977234" lon="2.245812015607953">
        <ele>682.66999999999996</ele>
        <time>2025-04-25T12:53:40Z</time>
      </trkpt>
      <trkpt lat="44.352347021922469" lon="2.245739009231329">
        <ele>682.66999999999996</ele>
        <time>2025-04-25T12:53:41Z</time>
      </trkpt>
      <trkpt lat="44.353021010756493" lon="2.245408007875085">
        <ele>679.78999999999996</ele>
        <time>2025-04-25T12:53:46Z</time>
      </trkpt>
      <trkpt lat="44.353147996589541" lon="2.245385963469744">
        <ele>679.30999999999995</ele>
        <time>2025-04-25T12:53:47Z</time>
      </trkpt>
      <trkpt lat="44.353270959109068" lon="2.245384035632014">
        <ele>679.30999999999995</ele>
        <time>2025-04-25T12:53:48Z</time>
      </trkpt>
      <trkpt lat="44.353371039032936" lon="2.245405996218324">
        <ele>678.83000000000004</ele>
        <time>2025-04-25T12:53:49Z</time>
      </trkpt>
      <trkpt lat="44.353452008217573" lon="2.245423011481762">
        <ele>678.35000000000002</ele>
        <time>2025-04-25T12:53:50Z</time>
      </trkpt>
      <trkpt lat="44.35359600931406" lon="2.245455030351877">
        <ele>677.38999999999999</ele>
        <time>2025-04-25T12:53:52Z</time>
      </trkpt>
      <trkpt lat="44.353662980720401" lon="2.245469028130174">
        <ele>677.38999999999999</ele>
        <time>2025-04-25T12:53:53Z</time>
      </trkpt>
      <trkpt lat="44.353765994310379" lon="2.245437009260058">
        <ele>676.90999999999997</ele>
        <time>2025-04-25T12:53:54Z</time>
      </trkpt>
      <trkpt lat="44.353825002908707" lon="2.245384035632014">
        <ele>676.90999999999997</ele>
        <time>2025-04-25T12:53:55Z</time>
      </trkpt>
      <trkpt lat="44.353887028992176" lon="2.245327960699797">
        <ele>676.41999999999996</ele>
        <time>2025-04-25T12:53:56Z</time>
      </trkpt>
      <trkpt lat="44.353931033983827" lon="2.245287979021668">
        <ele>676.41999999999996</ele>
        <time>2025-04-25T12:53:57Z</time>
      </trkpt>
      <trkpt lat="44.353992976248264" lon="2.245161999017">
        <ele>675.94000000000005</ele>
        <time>2025-04-25T12:53:58Z</time>
      </trkpt>
      <trkpt lat="44.354038992896676" lon="2.245067032054067">
        <ele>675.94000000000005</ele>
        <time>2025-04-25T12:53:59Z</time>
      </trkpt>
      <trkpt lat="44.354087021201849" lon="2.24496996961534">
        <ele>675.46000000000004</ele>
        <time>2025-04-25T12:54:00Z</time>
      </trkpt>
      <trkpt lat="44.354135971516371" lon="2.244868967682123">
        <ele>674.98000000000002</ele>
        <time>2025-04-25T12:54:01Z</time>
      </trkpt>
      <trkpt lat="44.35445498675108" lon="2.244163965806365">
        <ele>672.10000000000002</ele>
        <time>2025-04-25T12:54:06Z</time>
      </trkpt>
      <trkpt lat="44.354511983692646" lon="2.243985012173653">
        <ele>671.62</ele>
        <time>2025-04-25T12:54:07Z</time>
      </trkpt>
      <trkpt lat="44.354569986462593" lon="2.243804968893528">
        <ele>670.65999999999997</ele>
        <time>2025-04-25T12:54:08Z</time>
      </trkpt>
      <trkpt lat="44.354618014767766" lon="2.243601037189364">
        <ele>669.70000000000005</ele>
        <time>2025-04-25T12:54:09Z</time>
      </trkpt>
      <trkpt lat="44.354618014767766" lon="2.243386041373015">
        <ele>669.22000000000003</ele>
        <time>2025-04-25T12:54:10Z</time>
      </trkpt>
      <trkpt lat="44.354618014767766" lon="2.243170961737633">
        <ele>668.25</ele>
        <time>2025-04-25T12:54:11Z</time>
      </trkpt>
      <trkpt lat="44.354618014767766" lon="2.24292797036469">
        <ele>667.28999999999996</ele>
        <time>2025-04-25T12:54:12Z</time>
      </trkpt>
      <trkpt lat="44.354568980634212" lon="2.242735018953681">
        <ele>666.80999999999995</ele>
        <time>2025-04-25T12:54:13Z</time>
      </trkpt>
      <trkpt lat="44.354512989521027" lon="2.242512982338667">
        <ele>665.37</ele>
        <time>2025-04-25T12:54:14Z</time>
      </trkpt>
      <trkpt lat="44.35445599257946" lon="2.242289017885923">
        <ele>664.88999999999999</ele>
        <time>2025-04-25T12:54:15Z</time>
      </trkpt>
      <trkpt lat="44.35430696234107" lon="2.24165802821517">
        <ele>662.00999999999999</ele>
        <time>2025-04-25T12:54:18Z</time>
      </trkpt>
      <trkpt lat="44.35428399592638" lon="2.241453006863594">
        <ele>661.51999999999998</ele>
        <time>2025-04-25T12:54:19Z</time>
      </trkpt>
      <trkpt lat="44.35426102951169" lon="2.241254020482302">
        <ele>661.03999999999996</ele>
        <time>2025-04-25T12:54:20Z</time>
      </trkpt>
      <trkpt lat="44.354280978441238" lon="2.241053022444248">
        <ele>660.55999999999995</ele>
        <time>2025-04-25T12:54:21Z</time>
      </trkpt>
      <trkpt lat="44.354319032281637" lon="2.240861998870969">
        <ele>660.08000000000004</ele>
        <time>2025-04-25T12:54:22Z</time>
      </trkpt>
      <trkpt lat="44.354361025616527" lon="2.240653038024902">
        <ele>659.12</ele>
        <time>2025-04-25T12:54:23Z</time>
      </trkpt>
      <trkpt lat="44.354438977316022" lon="2.240495961159468">
        <ele>658.63999999999999</ele>
        <time>2025-04-25T12:54:24Z</time>
      </trkpt>
      <trkpt lat="44.35452195815742" lon="2.240328993648291">
        <ele>658.15999999999997</ele>
        <time>2025-04-25T12:54:25Z</time>
      </trkpt>
      <trkpt lat="44.354606028646231" lon="2.240161020308733">
        <ele>657.67999999999995</ele>
        <time>2025-04-25T12:54:26Z</time>
      </trkpt>
      <trkpt lat="44.354839967563748" lon="2.239684006199241">
        <ele>655.75999999999999</ele>
        <time>2025-04-25T12:54:29Z</time>
      </trkpt>
      <trkpt lat="44.354893025010824" lon="2.23951100371778">
        <ele>654.79999999999995</ele>
        <time>2025-04-25T12:54:30Z</time>
      </trkpt>
      <trkpt lat="44.35492898337543" lon="2.239330038428307">
        <ele>653.83000000000004</ele>
        <time>2025-04-25T12:54:31Z</time>
      </trkpt>
      <trkpt lat="44.355077007785439" lon="2.237744014710188">
        <ele>648.07000000000005</ele>
        <time>2025-04-25T12:54:41Z</time>
      </trkpt>
      <trkpt lat="44.355115983635187" lon="2.237302958965302">
        <ele>646.62</ele>
        <time>2025-04-25T12:54:47Z</time>
      </trkpt>
      <trkpt lat="44.35512101277709" lon="2.237249985337257">
        <ele>646.13999999999999</ele>
        <time>2025-04-25T12:54:48Z</time>
      </trkpt>
      <trkpt lat="44.355124030262232" lon="2.23721100948751">
        <ele>645.65999999999997</ele>
        <time>2025-04-25T12:54:49Z</time>
      </trkpt>
      <trkpt lat="44.355124030262232" lon="2.23721100948751">
        <ele>645.65999999999997</ele>
        <time>2025-04-25T12:54:50Z</time>
      </trkpt>
      <trkpt lat="44.355124030262232" lon="2.23721100948751">
        <ele>645.17999999999995</ele>
        <time>2025-04-25T12:55:04Z</time>
      </trkpt>
      <trkpt lat="44.355124030262232" lon="2.23721100948751">
        <ele>644.70000000000005</ele>
        <time>2025-04-25T12:56:08Z</time>
      </trkpt>
      <trkpt lat="44.355128975585103" lon="2.237154012545943">
        <ele>645.65999999999997</ele>
        <time>2025-04-25T12:56:32Z</time>
      </trkpt>
      <trkpt lat="44.355132998898625" lon="2.237113025039434">
        <ele>645.65999999999997</ele>
        <time>2025-04-25T12:56:33Z</time>
      </trkpt>
      <trkpt lat="44.355349000543356" lon="2.236271984875202">
        <ele>643.74000000000001</ele>
        <time>2025-04-25T12:56:44Z</time>
      </trkpt>
      <trkpt lat="44.355572964996099" lon="2.235766975209117">
        <ele>642.77999999999997</ele>
        <time>2025-04-25T12:56:50Z</time>
      </trkpt>
      <trkpt lat="44.355662986636162" lon="2.23557704128325">
        <ele>643.25999999999999</ele>
        <time>2025-04-25T12:56:52Z</time>
      </trkpt>
      <trkpt lat="44.355830037966371" lon="2.235227013006806">
        <ele>642.29999999999995</ele>
        <time>2025-04-25T12:56:56Z</time>
      </trkpt>
      <trkpt lat="44.35587203130126" lon="2.235176973044872">
        <ele>641.82000000000005</ele>
        <time>2025-04-25T12:56:57Z</time>
      </trkpt>
      <trkpt lat="44.355926010757685" lon="2.235131962224841">
        <ele>641.34000000000003</ele>
        <time>2025-04-25T12:56:58Z</time>
      </trkpt>
      <trkpt lat="44.356060959398746" lon="2.235056022182107">
        <ele>640.38</ele>
        <time>2025-04-25T12:57:00Z</time>
      </trkpt>
      <trkpt lat="44.356137989088893" lon="2.235021991655231">
        <ele>639.88999999999999</ele>
        <time>2025-04-25T12:57:01Z</time>
      </trkpt>
      <trkpt lat="44.357071984559298" lon="2.234613038599491">
        <ele>633.64999999999998</ele>
        <time>2025-04-25T12:57:12Z</time>
      </trkpt>
      <trkpt lat="44.357685036957264" lon="2.234438024461269">
        <ele>629.79999999999995</ele>
        <time>2025-04-25T12:57:17Z</time>
      </trkpt>
      <trkpt lat="44.358518030494452" lon="2.234546989202499">
        <ele>624.99000000000001</ele>
        <time>2025-04-25T12:57:23Z</time>
      </trkpt>
      <trkpt lat="44.359636008739471" lon="2.235029032453895">
        <ele>616.34000000000003</ele>
        <time>2025-04-25T12:57:31Z</time>
      </trkpt>
      <trkpt lat="44.359776992350817" lon="2.235017968341708">
        <ele>614.89999999999998</ele>
        <time>2025-04-25T12:57:32Z</time>
      </trkpt>
      <trkpt lat="44.359915964305401" lon="2.235004976391792">
        <ele>613.94000000000005</ele>
        <time>2025-04-25T12:57:33Z</time>
      </trkpt>
      <trkpt lat="44.360057031735778" lon="2.234991984441876">
        <ele>612.98000000000002</ele>
        <time>2025-04-25T12:57:34Z</time>
      </trkpt>
      <trkpt lat="44.360196003690362" lon="2.234978992491961">
        <ele>612.01999999999998</ele>
        <time>2025-04-25T12:57:35Z</time>
      </trkpt>
      <trkpt lat="44.360668994486332" lon="2.234944961965084">
        <ele>607.69000000000005</ele>
        <time>2025-04-25T12:57:39Z</time>
      </trkpt>
      <trkpt lat="44.36077200807631" lon="2.234999025240541">
        <ele>606.73000000000002</ele>
        <time>2025-04-25T12:57:40Z</time>
      </trkpt>
      <trkpt lat="44.360859012231231" lon="2.235043030232191">
        <ele>605.76999999999998</ele>
        <time>2025-04-25T12:57:41Z</time>
      </trkpt>
      <trkpt lat="44.36094400472939" lon="2.235087035223842">
        <ele>604.80999999999995</ele>
        <time>2025-04-25T12:57:42Z</time>
      </trkpt>
      <trkpt lat="44.361031008884311" lon="2.235131962224841">
        <ele>603.85000000000002</ele>
        <time>2025-04-25T12:57:43Z</time>
      </trkpt>
      <trkpt lat="44.361209962517023" lon="2.235225001350045">
        <ele>602.39999999999998</ele>
        <time>2025-04-25T12:57:45Z</time>
      </trkpt>
      <trkpt lat="44.361291015520692" lon="2.235266994684935">
        <ele>601.44000000000005</ele>
        <time>2025-04-25T12:57:46Z</time>
      </trkpt>
      <trkpt lat="44.361391011625528" lon="2.235250985249877">
        <ele>600</ele>
        <time>2025-04-25T12:57:47Z</time>
      </trkpt>
      <trkpt lat="44.361484972760081" lon="2.235234975814819">
        <ele>599.03999999999996</ele>
        <time>2025-04-25T12:57:48Z</time>
      </trkpt>
      <trkpt lat="44.361579017713666" lon="2.235214021056891">
        <ele>598.08000000000004</ele>
        <time>2025-04-25T12:57:49Z</time>
      </trkpt>
      <trkpt lat="44.361679013818502" lon="2.235179990530014">
        <ele>596.63999999999999</ele>
        <time>2025-04-25T12:57:50Z</time>
      </trkpt>
      <trkpt lat="44.362733960151672" lon="2.234736001119018">
        <ele>587.5</ele>
        <time>2025-04-25T12:57:59Z</time>
      </trkpt>
      <trkpt lat="44.363115001469851" lon="2.234486974775791">
        <ele>583.65999999999997</ele>
        <time>2025-04-25T12:58:03Z</time>
      </trkpt>
      <trkpt lat="44.363202005624771" lon="2.234407011419535">
        <ele>582.70000000000005</ele>
        <time>2025-04-25T12:58:04Z</time>
      </trkpt>
      <trkpt lat="44.363676002249122" lon="2.233716007322073">
        <ele>576.92999999999995</ele>
        <time>2025-04-25T12:58:09Z</time>
      </trkpt>
      <trkpt lat="44.363809023052454" lon="2.233634032309055">
        <ele>575.49000000000001</ele>
        <time>2025-04-25T12:58:10Z</time>
      </trkpt>
      <trkpt lat="44.363959981128573" lon="2.233563959598541">
        <ele>574.52999999999997</ele>
        <time>2025-04-25T12:58:11Z</time>
      </trkpt>
      <trkpt lat="44.36487696133554" lon="2.23342901095748">
        <ele>566.83000000000004</ele>
        <time>2025-04-25T12:58:17Z</time>
      </trkpt>
      <trkpt lat="44.365835012868047" lon="2.233521966263652">
        <ele>558.65999999999997</ele>
        <time>2025-04-25T12:58:23Z</time>
      </trkpt>
      <trkpt lat="44.366854000836611" lon="2.233400009572506">
        <ele>549.52999999999997</ele>
        <time>2025-04-25T12:58:29Z</time>
      </trkpt>
      <trkpt lat="44.367013005539775" lon="2.233380982652307">
        <ele>547.61000000000001</ele>
        <time>2025-04-25T12:58:30Z</time>
      </trkpt>
      <trkpt lat="44.367156000807881" lon="2.233363967388868">
        <ele>545.69000000000005</ele>
        <time>2025-04-25T12:58:31Z</time>
      </trkpt>
      <trkpt lat="44.367294972762465" lon="2.233330020681024">
        <ele>543.75999999999999</ele>
        <time>2025-04-25T12:58:32Z</time>
      </trkpt>
      <trkpt lat="44.367430005222559" lon="2.233277969062328">
        <ele>541.84000000000003</ele>
        <time>2025-04-25T12:58:33Z</time>
      </trkpt>
      <trkpt lat="44.367551961913705" lon="2.233195994049311">
        <ele>540.39999999999998</ele>
        <time>2025-04-25T12:58:34Z</time>
      </trkpt>
      <trkpt lat="44.36766603961587" lon="2.233052998781204">
        <ele>538.96000000000004</ele>
        <time>2025-04-25T12:58:35Z</time>
      </trkpt>
      <trkpt lat="44.367751032114029" lon="2.232907991856337">
        <ele>537.99000000000001</ele>
        <time>2025-04-25T12:58:36Z</time>
      </trkpt>
      <trkpt lat="44.367842981591821" lon="2.232753010466695">
        <ele>536.54999999999995</ele>
        <time>2025-04-25T12:58:37Z</time>
      </trkpt>
      <trkpt lat="44.3683569598943" lon="2.231275029480457">
        <ele>527.41999999999996</ele>
        <time>2025-04-25T12:58:44Z</time>
      </trkpt>
      <trkpt lat="44.368482017889619" lon="2.230870015919209">
        <ele>524.53999999999996</ele>
        <time>2025-04-25T12:58:46Z</time>
      </trkpt>
      <trkpt lat="44.368500038981438" lon="2.230695001780987">
        <ele>523.58000000000004</ele>
        <time>2025-04-25T12:58:47Z</time>
      </trkpt>
      <trkpt lat="44.368515964597464" lon="2.230541026219726">
        <ele>522.61000000000001</ele>
        <time>2025-04-25T12:58:48Z</time>
      </trkpt>
      <trkpt lat="44.368529040366411" lon="2.230416974052787">
        <ele>521.64999999999998</ele>
        <time>2025-04-25T12:58:49Z</time>
      </trkpt>
      <trkpt lat="44.368538009002805" lon="2.230324018746615">
        <ele>521.16999999999996</ele>
        <time>2025-04-25T12:58:50Z</time>
      </trkpt>
      <trkpt lat="44.368543960154057" lon="2.230268027633429">
        <ele>520.21000000000004</ele>
        <time>2025-04-25T12:58:51Z</time>
      </trkpt>
      <trkpt lat="44.368629958480597" lon="2.230159984901547">
        <ele>518.76999999999998</ele>
        <time>2025-04-25T12:58:52Z</time>
      </trkpt>
      <trkpt lat="44.368647979572415" lon="2.230178005993366">
        <ele>517.80999999999995</ele>
        <time>2025-04-25T12:58:53Z</time>
      </trkpt>
      <trkpt lat="44.368690978735685" lon="2.230300968512893">
        <ele>516.85000000000002</ele>
        <time>2025-04-25T12:58:54Z</time>
      </trkpt>
      <trkpt lat="44.368671029806137" lon="2.230429966002703">
        <ele>516.37</ele>
        <time>2025-04-25T12:58:55Z</time>
      </trkpt>
      <trkpt lat="44.368653008714318" lon="2.230517975986004">
        <ele>515.39999999999998</ele>
        <time>2025-04-25T12:58:56Z</time>
      </trkpt>
      <trkpt lat="44.368629958480597" lon="2.230630964040756">
        <ele>514.44000000000005</ele>
        <time>2025-04-25T12:58:57Z</time>
      </trkpt>
      <trkpt lat="44.368586959317327" lon="2.230846965685487">
        <ele>513</ele>
        <time>2025-04-25T12:58:58Z</time>
      </trkpt>
      <trkpt lat="44.368583019822836" lon="2.230907985940576">
        <ele>512.03999999999996</ele>
        <time>2025-04-25T12:58:59Z</time>
      </trkpt>
      <trkpt lat="44.36857296153903" lon="2.231061961501837">
        <ele>510.60000000000002</ele>
        <time>2025-04-25T12:59:00Z</time>
      </trkpt>
      <trkpt lat="44.368561981245875" lon="2.231230018660426">
        <ele>509.63999999999999</ele>
        <time>2025-04-25T12:59:01Z</time>
      </trkpt>
      <trkpt lat="44.368543960154057" lon="2.231491031125188">
        <ele>508.19</ele>
        <time>2025-04-25T12:59:02Z</time>
      </trkpt>
      <trkpt lat="44.368554018437862" lon="2.23164601251483">
        <ele>506.75</ele>
        <time>2025-04-25T12:59:03Z</time>
      </trkpt>
      <trkpt lat="44.368567010387778" lon="2.231849022209644">
        <ele>505.31</ele>
        <time>2025-04-25T12:59:04Z</time>
      </trkpt>
      <trkpt lat="44.368578996509314" lon="2.23205597139895">
        <ele>503.87</ele>
        <time>2025-04-25T12:59:05Z</time>
      </trkpt>
      <trkpt lat="44.368648985400796" lon="2.233175039291382">
        <ele>496.18000000000001</ele>
        <time>2025-04-25T12:59:10Z</time>
      </trkpt>
      <trkpt lat="44.368638005107641" lon="2.233370002359152">
        <ele>494.74000000000001</ele>
        <time>2025-04-25T12:59:11Z</time>
      </trkpt>
      <trkpt lat="44.368619984015822" lon="2.233586004003882">
        <ele>493.29000000000002</ele>
        <time>2025-04-25T12:59:12Z</time>
      </trkpt>
      <trkpt lat="44.368597017601132" lon="2.233767975121737">
        <ele>491.85000000000002</ele>
        <time>2025-04-25T12:59:13Z</time>
      </trkpt>
      <trkpt lat="44.368552006781101" lon="2.233948018401861">
        <ele>489.93000000000001</ele>
        <time>2025-04-25T12:59:14Z</time>
      </trkpt>
      <trkpt lat="44.368509007617831" lon="2.234084978699684">
        <ele>488.00999999999999</ele>
        <time>2025-04-25T12:59:15Z</time>
      </trkpt>
      <trkpt lat="44.368414962664247" lon="2.234215987846255">
        <ele>486.07999999999998</ele>
        <time>2025-04-25T12:59:16Z</time>
      </trkpt>
      <trkpt lat="44.368326030671597" lon="2.234264016151428">
        <ele>484.16000000000003</ele>
        <time>2025-04-25T12:59:17Z</time>
      </trkpt>
      <trkpt lat="44.367513991892338" lon="2.234709011390805">
        <ele>473.11000000000001</ele>
        <time>2025-04-25T12:59:23Z</time>
      </trkpt>
      <trkpt lat="44.367383988574147" lon="2.234800038859248">
        <ele>471.66000000000003</ele>
        <time>2025-04-25T12:59:24Z</time>
      </trkpt>
      <trkpt lat="44.367234036326408" lon="2.234903974458575">
        <ele>469.74000000000001</ele>
        <time>2025-04-25T12:59:25Z</time>
      </trkpt>
      <trkpt lat="44.367136973887682" lon="2.235069014132023">
        <ele>467.81999999999999</ele>
        <time>2025-04-25T12:59:26Z</time>
      </trkpt>
      <trkpt lat="44.366799015551805" lon="2.235795976594091">
        <ele>460.61000000000001</ele>
        <time>2025-04-25T12:59:30Z</time>
      </trkpt>
      <trkpt lat="44.366651996970177" lon="2.235991023480892">
        <ele>458.20999999999998</ele>
        <time>2025-04-25T12:59:31Z</time>
      </trkpt>
      <trkpt lat="44.366363994777203" lon="2.23617902956903">
        <ele>452.92000000000002</ele>
        <time>2025-04-25T12:59:33Z</time>
      </trkpt>
      <trkpt lat="44.366266010329127" lon="2.236242983490229">
        <ele>451</ele>
        <time>2025-04-25T12:59:34Z</time>
      </trkpt>
      <trkpt lat="44.366255030035973" lon="2.236273996531963">
        <ele>449.55000000000001</ele>
        <time>2025-04-25T12:59:35Z</time>
      </trkpt>
      <trkpt lat="44.36627296730876" lon="2.236329987645149">
        <ele>448.58999999999997</ele>
        <time>2025-04-25T12:59:36Z</time>
      </trkpt>
      <trkpt lat="44.366288976743817" lon="2.23637499846518">
        <ele>447.14999999999998</ele>
        <time>2025-04-25T12:59:37Z</time>
      </trkpt>
      <trkpt lat="44.366376986727118" lon="2.236382961273193">
        <ele>445.70999999999998</ele>
        <time>2025-04-25T12:59:38Z</time>
      </trkpt>
      <trkpt lat="44.366469020023942" lon="2.236382961273193">
        <ele>443.79000000000002</ele>
        <time>2025-04-25T12:59:39Z</time>
      </trkpt>
      <trkpt lat="44.366581002250314" lon="2.236324958503246">
        <ele>442.33999999999997</ele>
        <time>2025-04-25T12:59:40Z</time>
      </trkpt>
      <trkpt lat="44.366704970598221" lon="2.236247006803751">
        <ele>440.89999999999998</ele>
        <time>2025-04-25T12:59:41Z</time>
      </trkpt>
      <trkpt lat="44.367264965549111" lon="2.23553697578609">
        <ele>434.17000000000002</ele>
        <time>2025-04-25T12:59:46Z</time>
      </trkpt>
      <trkpt lat="44.367397986352444" lon="2.235404960811138">
        <ele>432.73000000000002</ele>
        <time>2025-04-25T12:59:47Z</time>
      </trkpt>
      <trkpt lat="44.367513991892338" lon="2.235289039090276">
        <ele>430.81</ele>
        <time>2025-04-25T12:59:48Z</time>
      </trkpt>
      <trkpt lat="44.367662016302347" lon="2.235263977199793">
        <ele>429.37</ele>
        <time>2025-04-25T12:59:49Z</time>
      </trkpt>
      <trkpt lat="44.36781900934875" lon="2.235237993299961">
        <ele>427.92000000000002</ele>
        <time>2025-04-25T12:59:50Z</time>
      </trkpt>
      <trkpt lat="44.36796996742487" lon="2.235231036320329">
        <ele>426</ele>
        <time>2025-04-25T12:59:51Z</time>
      </trkpt>
      <trkpt lat="44.368140958249569" lon="2.235247967764735">
        <ele>424.56</ele>
        <time>2025-04-25T12:59:52Z</time>
      </trkpt>
      <trkpt lat="44.368304992094636" lon="2.235264983028173">
        <ele>422.63999999999999</ele>
        <time>2025-04-25T12:59:53Z</time>
      </trkpt>
      <trkpt lat="44.369251979514956" lon="2.235077982768416">
        <ele>413.5</ele>
        <time>2025-04-25T12:59:59Z</time>
      </trkpt>
      <trkpt lat="44.369694041088223" lon="2.234777994453907">
        <ele>409.66000000000003</ele>
        <time>2025-04-25T13:00:02Z</time>
      </trkpt>
      <trkpt lat="44.369832007214427" lon="2.234662994742394">
        <ele>408.22000000000003</ele>
        <time>2025-04-25T13:00:03Z</time>
      </trkpt>
      <trkpt lat="44.369941977784038" lon="2.234544977545738">
        <ele>406.76999999999998</ele>
        <time>2025-04-25T13:00:04Z</time>
      </trkpt>
      <trkpt lat="44.370241966098547" lon="2.234221016988158">
        <ele>403.41000000000003</ele>
        <time>2025-04-25T13:00:07Z</time>
      </trkpt>
      <trkpt lat="44.370346991345286" lon="2.234108028933406">
        <ele>401.97000000000003</ele>
        <time>2025-04-25T13:00:08Z</time>
      </trkpt>
      <trkpt lat="44.370422009378672" lon="2.23396796733141">
        <ele>400.52999999999997</ele>
        <time>2025-04-25T13:00:09Z</time>
      </trkpt>
      <trkpt lat="44.37050499022007" lon="2.233775015920401">
        <ele>399.07999999999998</ele>
        <time>2025-04-25T13:00:10Z</time>
      </trkpt>
      <trkpt lat="44.37052896246314" lon="2.233618022873998">
        <ele>398.12</ele>
        <time>2025-04-25T13:00:11Z</time>
      </trkpt>
      <trkpt lat="44.370554024353623" lon="2.233462035655975">
        <ele>397.16000000000003</ele>
        <time>2025-04-25T13:00:12Z</time>
      </trkpt>
      <trkpt lat="44.370577996596694" lon="2.233305964618921">
        <ele>397.63999999999999</ele>
        <time>2025-04-25T13:00:13Z</time>
      </trkpt>
      <trkpt lat="44.370689978823066" lon="2.232585037127137">
        <ele>401.49000000000001</ele>
        <time>2025-04-25T13:00:17Z</time>
      </trkpt>
      <trkpt lat="44.370727026835084" lon="2.23248596303165">
        <ele>401.00999999999999</ele>
        <time>2025-04-25T13:00:18Z</time>
      </trkpt>
      <trkpt lat="44.37078402377665" lon="2.232337016612291">
        <ele>400.52999999999997</ele>
        <time>2025-04-25T13:00:19Z</time>
      </trkpt>
      <trkpt lat="44.370861975476146" lon="2.232134006917477">
        <ele>400.52999999999997</ele>
        <time>2025-04-25T13:00:20Z</time>
      </trkpt>
      <trkpt lat="44.370948979631066" lon="2.23205303773284">
        <ele>400.05000000000001</ele>
        <time>2025-04-25T13:00:21Z</time>
      </trkpt>
      <trkpt lat="44.371045036241412" lon="2.231965027749538">
        <ele>399.56999999999999</ele>
        <time>2025-04-25T13:00:22Z</time>
      </trkpt>
      <trkpt lat="44.371199011802673" lon="2.231864025816321">
        <ele>399.56999999999999</ele>
        <time>2025-04-25T13:00:23Z</time>
      </trkpt>
      <trkpt lat="44.371324991807342" lon="2.231837036088109">
        <ele>399.07999999999998</ele>
        <time>2025-04-25T13:00:24Z</time>
      </trkpt>
      <trkpt lat="44.371563959866762" lon="2.231784984469414">
        <ele>398.12</ele>
        <time>2025-04-25T13:00:26Z</time>
      </trkpt>
      <trkpt lat="44.371658004820347" lon="2.231757994741201">
        <ele>397.63999999999999</ele>
        <time>2025-04-25T13:00:27Z</time>
      </trkpt>
      <trkpt lat="44.371763030067086" lon="2.231705021113157">
        <ele>397.16000000000003</ele>
        <time>2025-04-25T13:00:28Z</time>
      </trkpt>
      <trkpt lat="44.371849028393626" lon="2.231640983372927">
        <ele>396.68000000000001</ele>
        <time>2025-04-25T13:00:29Z</time>
      </trkpt>
      <trkpt lat="44.371933015063405" lon="2.231542998924851">
        <ele>396.19999999999999</ele>
        <time>2025-04-25T13:00:30Z</time>
      </trkpt>
      <trkpt lat="44.372273990884423" lon="2.231139997020364">
        <ele>395.24000000000001</ele>
        <time>2025-04-25T13:00:34Z</time>
      </trkpt>
      <trkpt lat="44.372384967282414" lon="2.230997001752257">
        <ele>395.24000000000001</ele>
        <time>2025-04-25T13:00:35Z</time>
      </trkpt>
      <trkpt lat="44.372426960617304" lon="2.230914020910859">
        <ele>395.24000000000001</ele>
        <time>2025-04-25T13:00:36Z</time>
      </trkpt>
      <trkpt lat="44.372607003897429" lon="2.230576984584332">
        <ele>394.75999999999999</ele>
        <time>2025-04-25T13:00:39Z</time>
      </trkpt>
      <trkpt lat="44.372707000002265" lon="2.230460979044437">
        <ele>394.75999999999999</ele>
        <time>2025-04-25T13:00:40Z</time>
      </trkpt>
      <trkpt lat="44.372779000550508" lon="2.230456033721566">
        <ele>394.75999999999999</ele>
        <time>2025-04-25T13:00:41Z</time>
      </trkpt>
      <trkpt lat="44.373303959146142" lon="2.23042300902307">
        <ele>392.36000000000001</ele>
        <time>2025-04-25T13:00:47Z</time>
      </trkpt>
      <trkpt lat="44.373733028769493" lon="2.230460979044437">
        <ele>391.87</ele>
        <time>2025-04-25T13:00:52Z</time>
      </trkpt>
      <trkpt lat="44.373796982690692" lon="2.230470031499863">
        <ele>391.38999999999999</ele>
        <time>2025-04-25T13:00:53Z</time>
      </trkpt>
      <trkpt lat="44.373845010995865" lon="2.230475982651115">
        <ele>391.38999999999999</ele>
        <time>2025-04-25T13:00:54Z</time>
      </trkpt>
      <trkpt lat="44.373893961310387" lon="2.230482017621398">
        <ele>390.91000000000003</ele>
        <time>2025-04-25T13:00:55Z</time>
      </trkpt>
      <trkpt lat="44.373938972130418" lon="2.23048796877265">
        <ele>390.91000000000003</ele>
        <time>2025-04-25T13:00:56Z</time>
      </trkpt>
      <trkpt lat="44.373974008485675" lon="2.230491992086172">
        <ele>390.43000000000001</ele>
        <time>2025-04-25T13:00:57Z</time>
      </trkpt>
      <trkpt lat="44.373994963243604" lon="2.230495009571314">
        <ele>389.94999999999999</ele>
        <time>2025-04-25T13:00:58Z</time>
      </trkpt>
      <trkpt lat="44.374061012640595" lon="2.23048503510654">
        <ele>390.43000000000001</ele>
        <time>2025-04-25T13:00:59Z</time>
      </trkpt>
      <trkpt lat="44.374066963791847" lon="2.230431977659464">
        <ele>390.43000000000001</ele>
        <time>2025-04-25T13:01:00Z</time>
      </trkpt>
      <trkpt lat="44.374081967398524" lon="2.23029300570488">
        <ele>390.91000000000003</ele>
        <time>2025-04-25T13:01:03Z</time>
      </trkpt>
      <trkpt lat="44.374081967398524" lon="2.23029300570488">
        <ele>391.38999999999999</ele>
        <time>2025-04-25T13:01:12Z</time>
      </trkpt>
      <trkpt lat="44.374081967398524" lon="2.23029300570488">
        <ele>391.87</ele>
        <time>2025-04-25T13:01:54Z</time>
      </trkpt>
      <trkpt lat="44.374081967398524" lon="2.23029300570488">
        <ele>393.80000000000001</ele>
        <time>2025-04-25T13:03:29Z</time>
      </trkpt>
      <trkpt lat="44.37409202568233" lon="2.230213964357972">
        <ele>395.72000000000003</ele>
        <time>2025-04-25T13:03:55Z</time>
      </trkpt>
      <trkpt lat="44.374102000147104" lon="2.230132995173335">
        <ele>396.68000000000001</ele>
        <time>2025-04-25T13:03:56Z</time>
      </trkpt>
      <trkpt lat="44.37411398626864" lon="2.230032999068499">
        <ele>397.16000000000003</ele>
        <time>2025-04-25T13:03:57Z</time>
      </trkpt>
      <trkpt lat="44.374154973775148" lon="2.229693029075861">
        <ele>398.12</ele>
        <time>2025-04-25T13:04:00Z</time>
      </trkpt>
      <trkpt lat="44.374183975160122" lon="2.229586998000741">
        <ele>398.60000000000002</ele>
        <time>2025-04-25T13:04:01Z</time>
      </trkpt>
      <trkpt lat="44.374236026778817" lon="2.22954299300909">
        <ele>398.12</ele>
        <time>2025-04-25T13:04:02Z</time>
      </trkpt>
      <trkpt lat="44.374315990135074" lon="2.229474009945989">
        <ele>398.12</ele>
        <time>2025-04-25T13:04:03Z</time>
      </trkpt>
      <trkpt lat="44.374376004561782" lon="2.229436039924622">
        <ele>398.12</ele>
        <time>2025-04-25T13:04:04Z</time>
      </trkpt>
      <trkpt lat="44.374448005110025" lon="2.229392034932971">
        <ele>398.12</ele>
        <time>2025-04-25T13:04:05Z</time>
      </trkpt>
      <trkpt lat="44.374503996223211" lon="2.229334032163024">
        <ele>398.60000000000002</ele>
        <time>2025-04-25T13:04:06Z</time>
      </trkpt>
      <trkpt lat="44.374540038406849" lon="2.229263037443161">
        <ele>399.56999999999999</ele>
        <time>2025-04-25T13:04:07Z</time>
      </trkpt>
      <trkpt lat="44.374530985951424" lon="2.229159018024802">
        <ele>400.52999999999997</ele>
        <time>2025-04-25T13:04:08Z</time>
      </trkpt>
      <trkpt lat="44.374509025365114" lon="2.229075031355023">
        <ele>401.49000000000001</ele>
        <time>2025-04-25T13:04:09Z</time>
      </trkpt>
      <trkpt lat="44.374483041465282" lon="2.228978974744678">
        <ele>401.97000000000003</ele>
        <time>2025-04-25T13:04:10Z</time>
      </trkpt>
      <trkpt lat="44.374428978189826" lon="2.228777976706624">
        <ele>402.93000000000001</ele>
        <time>2025-04-25T13:04:12Z</time>
      </trkpt>
      <trkpt lat="44.374400982633233" lon="2.228673035278916">
        <ele>403.41000000000003</ele>
        <time>2025-04-25T13:04:13Z</time>
      </trkpt>
      <trkpt lat="44.374370975419879" lon="2.228561975061894">
        <ele>403.88999999999999</ele>
        <time>2025-04-25T13:04:14Z</time>
      </trkpt>
      <trkpt lat="44.374183975160122" lon="2.227725964039564">
        <ele>401.97000000000003</ele>
        <time>2025-04-25T13:04:21Z</time>
      </trkpt>
      <trkpt lat="44.374166037887335" lon="2.227604007348418">
        <ele>401.00999999999999</ele>
        <time>2025-04-25T13:04:22Z</time>
      </trkpt>
      <trkpt lat="44.374150028452277" lon="2.227009981870651">
        <ele>398.60000000000002</ele>
        <time>2025-04-25T13:04:27Z</time>
      </trkpt>
      <trkpt lat="44.374146005138755" lon="2.226896993815899">
        <ele>398.12</ele>
        <time>2025-04-25T13:04:28Z</time>
      </trkpt>
      <trkpt lat="44.374139970168471" lon="2.22678903490305">
        <ele>398.12</ele>
        <time>2025-04-25T13:04:29Z</time>
      </trkpt>
      <trkpt lat="44.374059000983834" lon="2.22636197693646">
        <ele>397.16000000000003</ele>
        <time>2025-04-25T13:04:33Z</time>
      </trkpt>
      <trkpt lat="44.3740089610219" lon="2.226257035508752">
        <ele>396.68000000000001</ele>
        <time>2025-04-25T13:04:34Z</time>
      </trkpt>
      <trkpt lat="44.37396302819252" lon="2.226157961413264">
        <ele>396.68000000000001</ele>
        <time>2025-04-25T13:04:35Z</time>
      </trkpt>
      <trkpt lat="44.373865965753794" lon="2.225978001952171">
        <ele>396.19999999999999</ele>
        <time>2025-04-25T13:04:37Z</time>
      </trkpt>
      <trkpt lat="44.373778039589524" lon="2.225900972262025">
        <ele>395.72000000000003</ele>
        <time>2025-04-25T13:04:38Z</time>
      </trkpt>
      <trkpt lat="44.373681982979178" lon="2.225815979763866">
        <ele>395.24000000000001</ele>
        <time>2025-04-25T13:04:39Z</time>
      </trkpt>
      <trkpt lat="44.373329021036625" lon="2.225504005327821">
        <ele>394.27999999999997</ele>
        <time>2025-04-25T13:04:42Z</time>
      </trkpt>
      <trkpt lat="44.37304001301527" lon="2.225380036979914">
        <ele>394.27999999999997</ele>
        <time>2025-04-25T13:04:44Z</time>
      </trkpt>
      <trkpt lat="44.37162104062736" lon="2.224968988448381">
        <ele>393.31999999999999</ele>
        <time>2025-04-25T13:04:52Z</time>
      </trkpt>
      <trkpt lat="44.37041999772191" lon="2.224495997652412">
        <ele>390.91000000000003</ele>
        <time>2025-04-25T13:04:59Z</time>
      </trkpt>
      <trkpt lat="44.370258981361985" lon="2.224398013204336">
        <ele>390.43000000000001</ele>
        <time>2025-04-25T13:05:00Z</time>
      </trkpt>
      <trkpt lat="44.369219960644841" lon="2.223457982763648">
        <ele>388.02999999999997</ele>
        <time>2025-04-25T13:05:07Z</time>
      </trkpt>
      <trkpt lat="44.368615038692951" lon="2.22227999009192">
        <ele>386.11000000000001</ele>
        <time>2025-04-25T13:05:13Z</time>
      </trkpt>
      <trkpt lat="44.368339022621512" lon="2.221552021801472">
        <ele>385.63</ele>
        <time>2025-04-25T13:05:17Z</time>
      </trkpt>
      <trkpt lat="44.368302980437875" lon="2.221344988793135">
        <ele>385.63</ele>
        <time>2025-04-25T13:05:18Z</time>
      </trkpt>
      <trkpt lat="44.368136012926698" lon="2.220396995544434">
        <ele>385.14999999999998</ele>
        <time>2025-04-25T13:05:23Z</time>
      </trkpt>
      <trkpt lat="44.36805697157979" lon="2.22023899666965">
        <ele>384.18000000000001</ele>
        <time>2025-04-25T13:05:24Z</time>
      </trkpt>
      <trkpt lat="44.367987988516688" lon="2.220184011384845">
        <ele>383.69999999999999</ele>
        <time>2025-04-25T13:05:25Z</time>
      </trkpt>
      <trkpt lat="44.367907019332051" lon="2.220141012221575">
        <ele>382.74000000000001</ele>
        <time>2025-04-25T13:05:26Z</time>
      </trkpt>
      <trkpt lat="44.367794031277299" lon="2.220148975029588">
        <ele>382.25999999999999</ele>
        <time>2025-04-25T13:05:27Z</time>
      </trkpt>
      <trkpt lat="44.36766603961587" lon="2.220158027485013">
        <ele>381.30000000000001</ele>
        <time>2025-04-25T13:05:28Z</time>
      </trkpt>
      <trkpt lat="44.367528995499015" lon="2.22019599750638">
        <ele>380.81999999999999</ele>
        <time>2025-04-25T13:05:29Z</time>
      </trkpt>
      <trkpt lat="44.36661402694881" lon="2.22049699164927">
        <ele>377.44999999999999</ele>
        <time>2025-04-25T13:05:35Z</time>
      </trkpt>
      <trkpt lat="44.366534985601902" lon="2.220463966950774">
        <ele>376.97000000000003</ele>
        <time>2025-04-25T13:05:36Z</time>
      </trkpt>
      <trkpt lat="44.366477988660336" lon="2.220399007201195">
        <ele>376.49000000000001</ele>
        <time>2025-04-25T13:05:37Z</time>
      </trkpt>
      <trkpt lat="44.366418980062008" lon="2.220326000824571">
        <ele>375.52999999999997</ele>
        <time>2025-04-25T13:05:38Z</time>
      </trkpt>
      <trkpt lat="44.366407999768853" lon="2.220235979184508">
        <ele>375.05000000000001</ele>
        <time>2025-04-25T13:05:39Z</time>
      </trkpt>
      <trkpt lat="44.366397019475698" lon="2.220147969201207">
        <ele>374.08999999999997</ele>
        <time>2025-04-25T13:05:40Z</time>
      </trkpt>
      <trkpt lat="44.366376986727118" lon="2.219988964498043">
        <ele>373.13</ele>
        <time>2025-04-25T13:05:41Z</time>
      </trkpt>
      <trkpt lat="44.366387967020273" lon="2.219929033890367">
        <ele>372.17000000000002</ele>
        <time>2025-04-25T13:05:42Z</time>
      </trkpt>
      <trkpt lat="44.366437001153827" lon="2.219729963690043">
        <ele>371.69</ele>
        <time>2025-04-25T13:05:43Z</time>
      </trkpt>
      <trkpt lat="44.366522999480367" lon="2.219614963978529">
        <ele>370.73000000000002</ele>
        <time>2025-04-25T13:05:44Z</time>
      </trkpt>
      <trkpt lat="44.36691602692008" lon="2.219330985099077">
        <ele>367.83999999999997</ele>
        <time>2025-04-25T13:05:47Z</time>
      </trkpt>
      <trkpt lat="44.367204029113054" lon="2.219176003709436">
        <ele>365.92000000000002</ele>
        <time>2025-04-25T13:05:49Z</time>
      </trkpt>
      <trkpt lat="44.367426987737417" lon="2.219073995947838">
        <ele>364</ele>
        <time>2025-04-25T13:05:51Z</time>
      </trkpt>
      <trkpt lat="44.367536036297679" lon="2.219024039804936">
        <ele>363.04000000000002</ele>
        <time>2025-04-25T13:05:52Z</time>
      </trkpt>
      <trkpt lat="44.367623962461948" lon="2.218914991244674">
        <ele>362.06999999999999</ele>
        <time>2025-04-25T13:05:53Z</time>
      </trkpt>
      <trkpt lat="44.36762697994709" lon="2.218699995428324">
        <ele>362.06999999999999</ele>
        <time>2025-04-25T13:05:54Z</time>
      </trkpt>
      <trkpt lat="44.367577023804188" lon="2.218560017645359">
        <ele>361.58999999999997</ele>
        <time>2025-04-25T13:05:55Z</time>
      </trkpt>
      <trkpt lat="44.36751801520586" lon="2.218393972143531">
        <ele>361.58999999999997</ele>
        <time>2025-04-25T13:05:56Z</time>
      </trkpt>
      <trkpt lat="44.367451965808868" lon="2.218206971883774">
        <ele>361.11000000000001</ele>
        <time>2025-04-25T13:05:57Z</time>
      </trkpt>
      <trkpt lat="44.367205034941435" lon="2.217384036630392">
        <ele>359.67000000000002</ele>
        <time>2025-04-25T13:06:01Z</time>
      </trkpt>
      <trkpt lat="44.36715298332274" lon="2.217167029157281">
        <ele>359.67000000000002</ele>
        <time>2025-04-25T13:06:02Z</time>
      </trkpt>
      <trkpt lat="44.367070002481341" lon="2.216817000880837">
        <ele>359.67000000000002</ele>
        <time>2025-04-25T13:06:04Z</time>
      </trkpt>
      <trkpt lat="44.367086011916399" lon="2.216709963977337">
        <ele>360.14999999999998</ele>
        <time>2025-04-25T13:06:05Z</time>
      </trkpt>
      <trkpt lat="44.36713102273643" lon="2.216549031436443">
        <ele>361.58999999999997</ele>
        <time>2025-04-25T13:06:06Z</time>
      </trkpt>
      <trkpt lat="44.367680959403515" lon="2.215285040438175">
        <ele>368.31999999999999</ele>
        <time>2025-04-25T13:06:12Z</time>
      </trkpt>
      <trkpt lat="44.368471037596464" lon="2.213532971218228">
        <ele>377.44999999999999</ele>
        <time>2025-04-25T13:06:20Z</time>
      </trkpt>
      <trkpt lat="44.368886025622487" lon="2.212951015681028">
        <ele>379.38</ele>
        <time>2025-04-25T13:06:23Z</time>
      </trkpt>
      <trkpt lat="44.370135013014078" lon="2.211796995252371">
        <ele>381.77999999999997</ele>
        <time>2025-04-25T13:06:30Z</time>
      </trkpt>
      <trkpt lat="44.370282031595707" lon="2.211663974449039">
        <ele>382.25999999999999</ele>
        <time>2025-04-25T13:06:31Z</time>
      </trkpt>
      <trkpt lat="44.370453022420406" lon="2.211574036628008">
        <ele>382.74000000000001</ele>
        <time>2025-04-25T13:06:32Z</time>
      </trkpt>
      <trkpt lat="44.370745969936252" lon="2.211446966975927">
        <ele>384.18000000000001</ele>
        <time>2025-04-25T13:06:34Z</time>
      </trkpt>
      <trkpt lat="44.370876979082823" lon="2.211416959762573">
        <ele>384.18000000000001</ele>
        <time>2025-04-25T13:06:35Z</time>
      </trkpt>
      <trkpt lat="44.371080994606018" lon="2.211329033598304">
        <ele>385.14999999999998</ele>
        <time>2025-04-25T13:06:37Z</time>
      </trkpt>
      <trkpt lat="44.37112701125443" lon="2.211232976987958">
        <ele>386.11000000000001</ele>
        <time>2025-04-25T13:06:38Z</time>
      </trkpt>
      <trkpt lat="44.371135979890823" lon="2.211160976439714">
        <ele>387.06999999999999</ele>
        <time>2025-04-25T13:06:39Z</time>
      </trkpt>
      <trkpt lat="44.37110697850585" lon="2.211051005870104">
        <ele>387.55000000000001</ele>
        <time>2025-04-25T13:06:40Z</time>
      </trkpt>
      <trkpt lat="44.371055010706186" lon="2.210930977016687">
        <ele>388.02999999999997</ele>
        <time>2025-04-25T13:06:41Z</time>
      </trkpt>
      <trkpt lat="44.370992984622717" lon="2.2107869759202">
        <ele>388.50999999999999</ele>
        <time>2025-04-25T13:06:42Z</time>
      </trkpt>
      <trkpt lat="44.370931964367628" lon="2.210646998137236">
        <ele>388.99000000000001</ele>
        <time>2025-04-25T13:06:43Z</time>
      </trkpt>
      <trkpt lat="44.370906986296177" lon="2.210539961233735">
        <ele>389.47000000000003</ele>
        <time>2025-04-25T13:06:44Z</time>
      </trkpt>
      <trkpt lat="44.370889971032739" lon="2.210452035069466">
        <ele>389.94999999999999</ele>
        <time>2025-04-25T13:06:45Z</time>
      </trkpt>
      <trkpt lat="44.370886031538248" lon="2.210414987057447">
        <ele>390.43000000000001</ele>
        <time>2025-04-25T13:06:46Z</time>
      </trkpt>
      <trkpt lat="44.37091302126646" lon="2.210373999550939">
        <ele>390.91000000000003</ele>
        <time>2025-04-25T13:06:47Z</time>
      </trkpt>
      <trkpt lat="44.370969012379646" lon="2.21029001288116">
        <ele>390.91000000000003</ele>
        <time>2025-04-25T13:06:48Z</time>
      </trkpt>
      <trkpt lat="44.371035983785987" lon="2.210285989567637">
        <ele>390.91000000000003</ele>
        <time>2025-04-25T13:06:49Z</time>
      </trkpt>
      <trkpt lat="44.371147966012359" lon="2.210279032588005">
        <ele>391.38999999999999</ele>
        <time>2025-04-25T13:06:50Z</time>
      </trkpt>
      <trkpt lat="44.371311999857426" lon="2.210268974304199">
        <ele>391.87</ele>
        <time>2025-04-25T13:06:51Z</time>
      </trkpt>
      <trkpt lat="44.371422976255417" lon="2.210146011784673">
        <ele>391.87</ele>
        <time>2025-04-25T13:06:52Z</time>
      </trkpt>
      <trkpt lat="44.371541999280453" lon="2.210015002638102">
        <ele>392.36000000000001</ele>
        <time>2025-04-25T13:06:53Z</time>
      </trkpt>
      <trkpt lat="44.371662028133869" lon="2.20988298766315">
        <ele>392.36000000000001</ele>
        <time>2025-04-25T13:06:54Z</time>
      </trkpt>
      <trkpt lat="44.372047008946538" lon="2.209562966600061">
        <ele>393.31999999999999</ele>
        <time>2025-04-25T13:06:57Z</time>
      </trkpt>
      <trkpt lat="44.372198972851038" lon="2.209536982700229">
        <ele>393.80000000000001</ele>
        <time>2025-04-25T13:06:58Z</time>
      </trkpt>
      <trkpt lat="44.372346997261047" lon="2.209510998800397">
        <ele>393.80000000000001</ele>
        <time>2025-04-25T13:06:59Z</time>
      </trkpt>
      <trkpt lat="44.372473983094096" lon="2.209489038214088">
        <ele>393.31999999999999</ele>
        <time>2025-04-25T13:07:00Z</time>
      </trkpt>
      <trkpt lat="44.372607003897429" lon="2.209425000473857">
        <ele>392.83999999999997</ele>
        <time>2025-04-25T13:07:01Z</time>
      </trkpt>
      <trkpt lat="44.372716974467039" lon="2.209314024075866">
        <ele>392.36000000000001</ele>
        <time>2025-04-25T13:07:02Z</time>
      </trkpt>
      <trkpt lat="44.372838009148836" lon="2.209193995222449">
        <ele>392.36000000000001</ele>
        <time>2025-04-25T13:07:03Z</time>
      </trkpt>
      <trkpt lat="44.37323497608304" lon="2.208882020786405">
        <ele>391.87</ele>
        <time>2025-04-25T13:07:06Z</time>
      </trkpt>
      <trkpt lat="44.373374031856656" lon="2.208807002753019">
        <ele>391.87</ele>
        <time>2025-04-25T13:07:07Z</time>
      </trkpt>
      <trkpt lat="44.373502023518085" lon="2.208738019689918">
        <ele>391.38999999999999</ele>
        <time>2025-04-25T13:07:08Z</time>
      </trkpt>
      <trkpt lat="44.373607970774174" lon="2.208681022748351">
        <ele>390.91000000000003</ele>
        <time>2025-04-25T13:07:09Z</time>
      </trkpt>
      <trkpt lat="44.373688017949462" lon="2.208600975573063">
        <ele>390.43000000000001</ele>
        <time>2025-04-25T13:07:10Z</time>
      </trkpt>
      <trkpt lat="44.373752977699041" lon="2.208536015823484">
        <ele>390.91000000000003</ele>
        <time>2025-04-25T13:07:11Z</time>
      </trkpt>
      <trkpt lat="44.373764041811228" lon="2.208482036367059">
        <ele>391.38999999999999</ele>
        <time>2025-04-25T13:07:12Z</time>
      </trkpt>
      <trkpt lat="44.373778039589524" lon="2.208365024998784">
        <ele>391.87</ele>
        <time>2025-04-25T13:07:13Z</time>
      </trkpt>
      <trkpt lat="44.373795976862311" lon="2.208221023902297">
        <ele>393.31999999999999</ele>
        <time>2025-04-25T13:07:14Z</time>
      </trkpt>
      <trkpt lat="44.373815003782511" lon="2.208054978400469">
        <ele>393.31999999999999</ele>
        <time>2025-04-25T13:07:15Z</time>
      </trkpt>
      <trkpt lat="44.373862026259303" lon="2.206512037664652">
        <ele>393.31999999999999</ele>
        <time>2025-04-25T13:07:22Z</time>
      </trkpt>
      <trkpt lat="44.373917011544108" lon="2.205851962789893">
        <ele>391.38999999999999</ele>
        <time>2025-04-25T13:07:25Z</time>
      </trkpt>
      <trkpt lat="44.373955987393856" lon="2.205626992508769">
        <ele>390.43000000000001</ele>
        <time>2025-04-25T13:07:26Z</time>
      </trkpt>
      <trkpt lat="44.374298974871635" lon="2.204678999260068">
        <ele>387.06999999999999</ele>
        <time>2025-04-25T13:07:31Z</time>
      </trkpt>
      <trkpt lat="44.374364018440247" lon="2.204500967636704">
        <ele>386.58999999999997</ele>
        <time>2025-04-25T13:07:32Z</time>
      </trkpt>
      <trkpt lat="44.374482035636902" lon="2.204326037317514">
        <ele>386.11000000000001</ele>
        <time>2025-04-25T13:07:33Z</time>
      </trkpt>
      <trkpt lat="44.374594017863274" lon="2.204184969887137">
        <ele>385.63</ele>
        <time>2025-04-25T13:07:34Z</time>
      </trkpt>
      <trkpt lat="44.374703988432884" lon="2.204047003760934">
        <ele>384.66000000000003</ele>
        <time>2025-04-25T13:07:35Z</time>
      </trkpt>
      <trkpt lat="44.374886965379119" lon="2.203809963539243">
        <ele>383.69999999999999</ele>
        <time>2025-04-25T13:07:37Z</time>
      </trkpt>
      <trkpt lat="44.374954020604491" lon="2.203704016283155">
        <ele>382.74000000000001</ele>
        <time>2025-04-25T13:07:38Z</time>
      </trkpt>
      <trkpt lat="44.374986961483955" lon="2.203605026006699">
        <ele>382.25999999999999</ele>
        <time>2025-04-25T13:07:39Z</time>
      </trkpt>
      <trkpt lat="44.375003976747394" lon="2.203446021303535">
        <ele>381.30000000000001</ele>
        <time>2025-04-25T13:07:40Z</time>
      </trkpt>
      <trkpt lat="44.375021997839212" lon="2.203276958316565">
        <ele>380.33999999999997</ele>
        <time>2025-04-25T13:07:41Z</time>
      </trkpt>
      <trkpt lat="44.375040018931031" lon="2.203107979148626">
        <ele>379.38</ele>
        <time>2025-04-25T13:07:42Z</time>
      </trkpt>
      <trkpt lat="44.375057034194469" lon="2.202941011637449">
        <ele>378.42000000000002</ele>
        <time>2025-04-25T13:07:43Z</time>
      </trkpt>
      <trkpt lat="44.375100033357739" lon="2.202757028862834">
        <ele>377.94</ele>
        <time>2025-04-25T13:07:44Z</time>
      </trkpt>
      <trkpt lat="44.375150995329022" lon="2.202619984745979">
        <ele>376.97000000000003</ele>
        <time>2025-04-25T13:07:45Z</time>
      </trkpt>
      <trkpt lat="44.375197011977434" lon="2.202495010569692">
        <ele>376.00999999999999</ele>
        <time>2025-04-25T13:07:46Z</time>
      </trkpt>
      <trkpt lat="44.375236993655562" lon="2.202387973666191">
        <ele>375.52999999999997</ele>
        <time>2025-04-25T13:07:47Z</time>
      </trkpt>
      <trkpt lat="44.375268006697297" lon="2.202303986996412">
        <ele>375.05000000000001</ele>
        <time>2025-04-25T13:07:48Z</time>
      </trkpt>
      <trkpt lat="44.375290973111987" lon="2.202241960912943">
        <ele>374.08999999999997</ele>
        <time>2025-04-25T13:07:49Z</time>
      </trkpt>
      <trkpt lat="44.375307988375425" lon="2.202197033911943">
        <ele>373.61000000000001</ele>
        <time>2025-04-25T13:07:50Z</time>
      </trkpt>
      <trkpt lat="44.375345958396792" lon="2.202094020321965">
        <ele>373.13</ele>
        <time>2025-04-25T13:07:51Z</time>
      </trkpt>
      <trkpt lat="44.375344030559063" lon="2.202083962038159">
        <ele>372.64999999999998</ele>
        <time>2025-04-25T13:07:52Z</time>
      </trkpt>
      <trkpt lat="44.37531896866858" lon="2.201988995075226">
        <ele>372.64999999999998</ele>
        <time>2025-04-25T13:07:53Z</time>
      </trkpt>
      <trkpt lat="44.375290973111987" lon="2.201879024505615">
        <ele>372.64999999999998</ele>
        <time>2025-04-25T13:07:54Z</time>
      </trkpt>
      <trkpt lat="44.375258032232523" lon="2.201752960681915">
        <ele>372.64999999999998</ele>
        <time>2025-04-25T13:07:55Z</time>
      </trkpt>
      <trkpt lat="44.375220984220505" lon="2.201610971242189">
        <ele>372.64999999999998</ele>
        <time>2025-04-25T13:07:56Z</time>
      </trkpt>
      <trkpt lat="44.375174967572093" lon="2.201464958488941">
        <ele>372.64999999999998</ele>
        <time>2025-04-25T13:07:57Z</time>
      </trkpt>
      <trkpt lat="44.375052005052567" lon="2.201174022629857">
        <ele>372.64999999999998</ele>
        <time>2025-04-25T13:07:59Z</time>
      </trkpt>
      <trkpt lat="44.374996013939381" lon="2.201041001826525">
        <ele>373.13</ele>
        <time>2025-04-25T13:08:00Z</time>
      </trkpt>
      <trkpt lat="44.374935999512672" lon="2.200942011550069">
        <ele>373.13</ele>
        <time>2025-04-25T13:08:01Z</time>
      </trkpt>
      <trkpt lat="44.374833991751075" lon="2.200875962153077">
        <ele>373.61000000000001</ele>
        <time>2025-04-25T13:08:02Z</time>
      </trkpt>
      <trkpt lat="44.374713040888309" lon="2.200803961604834">
        <ele>374.08999999999997</ele>
        <time>2025-04-25T13:08:03Z</time>
      </trkpt>
      <trkpt lat="44.374567028135061" lon="2.200777977705002">
        <ele>375.05000000000001</ele>
        <time>2025-04-25T13:08:04Z</time>
      </trkpt>
      <trkpt lat="44.373671002686024" lon="2.200677981600165">
        <ele>380.81999999999999</ele>
        <time>2025-04-25T13:08:09Z</time>
      </trkpt>
      <trkpt lat="44.373476039618254" lon="2.200715029612184">
        <ele>382.25999999999999</ele>
        <time>2025-04-25T13:08:10Z</time>
      </trkpt>
      <trkpt lat="44.37200996093452" lon="2.201108979061246">
        <ele>392.36000000000001</ele>
        <time>2025-04-25T13:08:17Z</time>
      </trkpt>
      <trkpt lat="44.371797982603312" lon="2.201129011809826">
        <ele>393.80000000000001</ele>
        <time>2025-04-25T13:08:18Z</time>
      </trkpt>
      <trkpt lat="44.371588015928864" lon="2.201148960739374">
        <ele>395.24000000000001</ele>
        <time>2025-04-25T13:08:19Z</time>
      </trkpt>
      <trkpt lat="44.371382994577289" lon="2.201167987659574">
        <ele>396.68000000000001</ele>
        <time>2025-04-25T13:08:20Z</time>
      </trkpt>
      <trkpt lat="44.371181996539235" lon="2.201186008751392">
        <ele>397.63999999999999</ele>
        <time>2025-04-25T13:08:21Z</time>
      </trkpt>
      <trkpt lat="44.370985021814704" lon="2.201254991814494">
        <ele>399.07999999999998</ele>
        <time>2025-04-25T13:08:22Z</time>
      </trkpt>
      <trkpt lat="44.370815036818385" lon="2.201335038989782">
        <ele>400.05000000000001</ele>
        <time>2025-04-25T13:08:23Z</time>
      </trkpt>
      <trkpt lat="44.370644968003035" lon="2.201454984024167">
        <ele>401.00999999999999</ele>
        <time>2025-04-25T13:08:24Z</time>
      </trkpt>
      <trkpt lat="44.37048302963376" lon="2.201592028141022">
        <ele>401.97000000000003</ele>
        <time>2025-04-25T13:08:25Z</time>
      </trkpt>
      <trkpt lat="44.37033299356699" lon="2.201742986217141">
        <ele>402.93000000000001</ele>
        <time>2025-04-25T13:08:26Z</time>
      </trkpt>
      <trkpt lat="44.370239032432437" lon="2.201836025342345">
        <ele>403.88999999999999</ele>
        <time>2025-04-25T13:08:27Z</time>
      </trkpt>
      <trkpt lat="44.370033005252481" lon="2.201959993690252">
        <ele>404.85000000000002</ele>
        <time>2025-04-25T13:08:28Z</time>
      </trkpt>
      <trkpt lat="44.369881963357329" lon="2.202011961489916">
        <ele>406.29000000000002</ele>
        <time>2025-04-25T13:08:29Z</time>
      </trkpt>
      <trkpt lat="44.369703009724617" lon="2.202071975916624">
        <ele>407.25999999999999</ele>
        <time>2025-04-25T13:08:30Z</time>
      </trkpt>
      <trkpt lat="44.369609970599413" lon="2.202071975916624">
        <ele>408.69999999999999</ele>
        <time>2025-04-25T13:08:31Z</time>
      </trkpt>
      <trkpt lat="44.369513997808099" lon="2.202057978138328">
        <ele>409.66000000000003</ele>
        <time>2025-04-25T13:08:32Z</time>
      </trkpt>
      <trkpt lat="44.369397992268205" lon="2.201957982033491">
        <ele>411.10000000000002</ele>
        <time>2025-04-25T13:08:33Z</time>
      </trkpt>
      <trkpt lat="44.369294978678226" lon="2.201789002865553">
        <ele>412.54000000000002</ele>
        <time>2025-04-25T13:08:34Z</time>
      </trkpt>
      <trkpt lat="44.369165981188416" lon="2.201579036191106">
        <ele>413.98000000000002</ele>
        <time>2025-04-25T13:08:35Z</time>
      </trkpt>
      <trkpt lat="44.369032960385084" lon="2.201477028429508">
        <ele>414.94999999999999</ele>
        <time>2025-04-25T13:08:36Z</time>
      </trkpt>
      <trkpt lat="44.368854006752372" lon="2.201340990141034">
        <ele>416.38999999999999</ele>
        <time>2025-04-25T13:08:37Z</time>
      </trkpt>
      <trkpt lat="44.368078010156751" lon="2.200752999633551">
        <ele>422.16000000000003</ele>
        <time>2025-04-25T13:08:41Z</time>
      </trkpt>
      <trkpt lat="44.367920011281967" lon="2.200673036277294">
        <ele>423.60000000000002</ele>
        <time>2025-04-25T13:08:42Z</time>
      </trkpt>
      <trkpt lat="44.36775497160852" lon="2.200625007972121">
        <ele>425.04000000000002</ele>
        <time>2025-04-25T13:08:43Z</time>
      </trkpt>
      <trkpt lat="44.36758004128933" lon="2.200602041557431">
        <ele>426.48000000000002</ele>
        <time>2025-04-25T13:08:44Z</time>
      </trkpt>
      <trkpt lat="44.367403015494347" lon="2.200630037114024">
        <ele>427.44</ele>
        <time>2025-04-25T13:08:45Z</time>
      </trkpt>
      <trkpt lat="44.367243004962802" lon="2.200656021013856">
        <ele>428.88999999999999</ele>
        <time>2025-04-25T13:08:46Z</time>
      </trkpt>
      <trkpt lat="44.367106966674328" lon="2.200677981600165">
        <ele>430.32999999999998</ele>
        <time>2025-04-25T13:08:47Z</time>
      </trkpt>
      <trkpt lat="44.366996996104717" lon="2.200696002691984">
        <ele>431.76999999999998</ele>
        <time>2025-04-25T13:08:48Z</time>
      </trkpt>
      <trkpt lat="44.366902029141784" lon="2.200604975223541">
        <ele>433.69</ele>
        <time>2025-04-25T13:08:49Z</time>
      </trkpt>
      <trkpt lat="44.366857018321753" lon="2.200458040460944">
        <ele>435.61000000000001</ele>
        <time>2025-04-25T13:08:50Z</time>
      </trkpt>
      <trkpt lat="44.36680999584496" lon="2.200273973867297">
        <ele>437.54000000000002</ele>
        <time>2025-04-25T13:08:51Z</time>
      </trkpt>
      <trkpt lat="44.366758028045297" lon="2.200075993314385">
        <ele>438.98000000000002</ele>
        <time>2025-04-25T13:08:52Z</time>
      </trkpt>
      <trkpt lat="44.366670018061996" lon="2.19991103745997">
        <ele>439.94</ele>
        <time>2025-04-25T13:08:53Z</time>
      </trkpt>
      <trkpt lat="44.36655099503696" lon="2.199801988899708">
        <ele>440.89999999999998</ele>
        <time>2025-04-25T13:08:54Z</time>
      </trkpt>
      <trkpt lat="44.366417974233627" lon="2.199706016108394">
        <ele>441.86000000000001</ele>
        <time>2025-04-25T13:08:55Z</time>
      </trkpt>
      <trkpt lat="44.366281013935804" lon="2.199606020003557">
        <ele>442.33999999999997</ele>
        <time>2025-04-25T13:08:56Z</time>
      </trkpt>
      <trkpt lat="44.36614396981895" lon="2.19948397949338">
        <ele>443.31</ele>
        <time>2025-04-25T13:08:57Z</time>
      </trkpt>
      <trkpt lat="44.366001980379224" lon="2.199348025023937">
        <ele>444.75</ele>
        <time>2025-04-25T13:08:58Z</time>
      </trkpt>
      <trkpt lat="44.365855967625976" lon="2.199207963421941">
        <ele>445.70999999999998</ele>
        <time>2025-04-25T13:08:59Z</time>
      </trkpt>
      <trkpt lat="44.365707021206617" lon="2.199087012559176">
        <ele>447.14999999999998</ele>
        <time>2025-04-25T13:09:00Z</time>
      </trkpt>
      <trkpt lat="44.365540975704789" lon="2.199004031717777">
        <ele>447.63</ele>
        <time>2025-04-25T13:09:01Z</time>
      </trkpt>
      <trkpt lat="44.365373002365232" lon="2.198919961228967">
        <ele>448.58999999999997</ele>
        <time>2025-04-25T13:09:02Z</time>
      </trkpt>
      <trkpt lat="44.365207962691784" lon="2.198864975944161">
        <ele>449.55000000000001</ele>
        <time>2025-04-25T13:09:03Z</time>
      </trkpt>
      <trkpt lat="44.36504602432251" lon="2.198843015357852">
        <ele>450.51999999999998</ele>
        <time>2025-04-25T13:09:04Z</time>
      </trkpt>
      <trkpt lat="44.364887019619346" lon="2.198847960680723">
        <ele>451.48000000000002</ele>
        <time>2025-04-25T13:09:05Z</time>
      </trkpt>
      <trkpt lat="44.36472499743104" lon="2.198884002864361">
        <ele>452.44</ele>
        <time>2025-04-25T13:09:06Z</time>
      </trkpt>
      <trkpt lat="44.364560041576624" lon="2.198920967057347">
        <ele>452.92000000000002</ele>
        <time>2025-04-25T13:09:07Z</time>
      </trkpt>
      <trkpt lat="44.364393996074796" lon="2.198958015069366">
        <ele>453.88</ele>
        <time>2025-04-25T13:09:08Z</time>
      </trkpt>
      <trkpt lat="44.364229962229729" lon="2.198961032554507">
        <ele>454.83999999999997</ele>
        <time>2025-04-25T13:09:09Z</time>
      </trkpt>
      <trkpt lat="44.364079004153609" lon="2.198961032554507">
        <ele>455.80000000000001</ele>
        <time>2025-04-25T13:09:10Z</time>
      </trkpt>
      <trkpt lat="44.363932991400361" lon="2.198961032554507">
        <ele>456.75999999999999</ele>
        <time>2025-04-25T13:09:11Z</time>
      </trkpt>
      <trkpt lat="44.36378002166748" lon="2.199048958718777">
        <ele>458.20999999999998</ele>
        <time>2025-04-25T13:09:12Z</time>
      </trkpt>
      <trkpt lat="44.363626968115568" lon="2.199154989793897">
        <ele>459.17000000000002</ele>
        <time>2025-04-25T13:09:13Z</time>
      </trkpt>
      <trkpt lat="44.363468969240785" lon="2.199263032525778">
        <ele>460.61000000000001</ele>
        <time>2025-04-25T13:09:14Z</time>
      </trkpt>
      <trkpt lat="44.363121036440134" lon="2.199433017522097">
        <ele>464.44999999999999</ele>
        <time>2025-04-25T13:09:17Z</time>
      </trkpt>
      <trkpt lat="44.363056998699903" lon="2.199417008087039">
        <ele>465.42000000000002</ele>
        <time>2025-04-25T13:09:18Z</time>
      </trkpt>
      <trkpt lat="44.36305096372962" lon="2.199410973116756">
        <ele>466.86000000000001</ele>
        <time>2025-04-25T13:09:19Z</time>
      </trkpt>
      <trkpt lat="44.363020034506917" lon="2.199258003383875">
        <ele>469.74000000000001</ele>
        <time>2025-04-25T13:09:20Z</time>
      </trkpt>
      <trkpt lat="44.363006036728621" lon="2.199147026985884">
        <ele>471.66000000000003</ele>
        <time>2025-04-25T13:09:21Z</time>
      </trkpt>
      <trkpt lat="44.363000001758337" lon="2.198953991755843">
        <ele>473.11000000000001</ele>
        <time>2025-04-25T13:09:22Z</time>
      </trkpt>
      <trkpt lat="44.362992960959673" lon="2.198736984282732">
        <ele>474.55000000000001</ele>
        <time>2025-04-25T13:09:23Z</time>
      </trkpt>
      <trkpt lat="44.362971000373363" lon="2.198058972135186">
        <ele>478.38999999999999</ele>
        <time>2025-04-25T13:09:26Z</time>
      </trkpt>
      <trkpt lat="44.362929007038474" lon="2.197818998247385">
        <ele>478.38999999999999</ele>
        <time>2025-04-25T13:09:27Z</time>
      </trkpt>
      <trkpt lat="44.362849965691566" lon="2.197668962180615">
        <ele>478.87</ele>
        <time>2025-04-25T13:09:28Z</time>
      </trkpt>
      <trkpt lat="44.36277000233531" lon="2.197516998276115">
        <ele>479.83999999999997</ele>
        <time>2025-04-25T13:09:29Z</time>
      </trkpt>
      <trkpt lat="44.362644022330642" lon="2.197409039363265">
        <ele>480.80000000000001</ele>
        <time>2025-04-25T13:09:30Z</time>
      </trkpt>
      <trkpt lat="44.362522987648845" lon="2.197327986359596">
        <ele>481.75999999999999</ele>
        <time>2025-04-25T13:09:31Z</time>
      </trkpt>
      <trkpt lat="44.362388961017132" lon="2.197276018559933">
        <ele>482.72000000000003</ele>
        <time>2025-04-25T13:09:32Z</time>
      </trkpt>
      <trkpt lat="44.362244959920645" lon="2.197232013568282">
        <ele>483.68000000000001</ele>
        <time>2025-04-25T13:09:33Z</time>
      </trkpt>
      <trkpt lat="44.362089978531003" lon="2.197218015789986">
        <ele>485.12</ele>
        <time>2025-04-25T13:09:34Z</time>
      </trkpt>
      <trkpt lat="44.3610920291394" lon="2.197173004969955">
        <ele>493.76999999999998</ele>
        <time>2025-04-25T13:09:40Z</time>
      </trkpt>
      <trkpt lat="44.360915003344417" lon="2.197147021070123">
        <ele>494.74000000000001</ele>
        <time>2025-04-25T13:09:41Z</time>
      </trkpt>
      <trkpt lat="44.360730014741421" lon="2.19709999859333">
        <ele>496.66000000000003</ele>
        <time>2025-04-25T13:09:42Z</time>
      </trkpt>
      <trkpt lat="44.359952006489038" lon="2.196857007220388">
        <ele>502.43000000000001</ele>
        <time>2025-04-25T13:09:46Z</time>
      </trkpt>
      <trkpt lat="44.359750002622604" lon="2.196851978078485">
        <ele>503.87</ele>
        <time>2025-04-25T13:09:47Z</time>
      </trkpt>
      <trkpt lat="44.358160039409995" lon="2.196816019713879">
        <ele>515.39999999999998</ele>
        <time>2025-04-25T13:09:55Z</time>
      </trkpt>
      <trkpt lat="44.357973961159587" lon="2.196752987802029">
        <ele>516.37</ele>
        <time>2025-04-25T13:09:56Z</time>
      </trkpt>
      <trkpt lat="44.357796013355255" lon="2.196685010567308">
        <ele>518.28999999999996</ele>
        <time>2025-04-25T13:09:57Z</time>
      </trkpt>
      <trkpt lat="44.357629967853427" lon="2.196599012240768">
        <ele>519.73000000000002</ele>
        <time>2025-04-25T13:09:58Z</time>
      </trkpt>
      <trkpt lat="44.357479009777308" lon="2.196471020579338">
        <ele>521.16999999999996</ele>
        <time>2025-04-25T13:09:59Z</time>
      </trkpt>
      <trkpt lat="44.35737800784409" lon="2.196319978684187">
        <ele>522.61000000000001</ele>
        <time>2025-04-25T13:10:00Z</time>
      </trkpt>
      <trkpt lat="44.357322016730905" lon="2.196123003959656">
        <ele>524.05999999999995</ele>
        <time>2025-04-25T13:10:01Z</time>
      </trkpt>
      <trkpt lat="44.357327967882156" lon="2.195936003699899">
        <ele>525.5</ele>
        <time>2025-04-25T13:10:02Z</time>
      </trkpt>
      <trkpt lat="44.3573550414294" lon="2.195741962641478">
        <ele>526.46000000000004</ele>
        <time>2025-04-25T13:10:03Z</time>
      </trkpt>
      <trkpt lat="44.357383958995342" lon="2.195540964603424">
        <ele>527.41999999999996</ele>
        <time>2025-04-25T13:10:04Z</time>
      </trkpt>
      <trkpt lat="44.357408015057445" lon="2.195377014577389">
        <ele>528.38</ele>
        <time>2025-04-25T13:10:05Z</time>
      </trkpt>
      <trkpt lat="44.357408015057445" lon="2.1951640304178">
        <ele>529.34000000000003</ele>
        <time>2025-04-25T13:10:06Z</time>
      </trkpt>
      <trkpt lat="44.357384964823723" lon="2.194974012672901">
        <ele>530.29999999999995</ele>
        <time>2025-04-25T13:10:07Z</time>
      </trkpt>
      <trkpt lat="44.357325034216046" lon="2.194761028513312">
        <ele>530.78999999999996</ele>
        <time>2025-04-25T13:10:08Z</time>
      </trkpt>
      <trkpt lat="44.357264013960958" lon="2.194543015211821">
        <ele>532.23000000000002</ele>
        <time>2025-04-25T13:10:09Z</time>
      </trkpt>
      <trkpt lat="44.357171980664134" lon="2.194390967488289">
        <ele>533.19000000000005</ele>
        <time>2025-04-25T13:10:10Z</time>
      </trkpt>
      <trkpt lat="44.357078019529581" lon="2.194249983876944">
        <ele>534.14999999999998</ele>
        <time>2025-04-25T13:10:11Z</time>
      </trkpt>
      <trkpt lat="44.356981962919235" lon="2.194159040227532">
        <ele>535.59000000000003</ele>
        <time>2025-04-25T13:10:12Z</time>
      </trkpt>
      <trkpt lat="44.356860006228089" lon="2.194082010537386">
        <ele>536.54999999999995</ele>
        <time>2025-04-25T13:10:13Z</time>
      </trkpt>
      <trkpt lat="44.356744000688195" lon="2.194009004160762">
        <ele>537.99000000000001</ele>
        <time>2025-04-25T13:10:14Z</time>
      </trkpt>
      <trkpt lat="44.356526993215084" lon="2.193923005834222">
        <ele>539.91999999999996</ele>
        <time>2025-04-25T13:10:16Z</time>
      </trkpt>
      <trkpt lat="44.356408976018429" lon="2.193904984742403">
        <ele>541.36000000000001</ele>
        <time>2025-04-25T13:10:17Z</time>
      </trkpt>
      <trkpt lat="44.356308979913592" lon="2.193915965035558">
        <ele>542.32000000000005</ele>
        <time>2025-04-25T13:10:18Z</time>
      </trkpt>
      <trkpt lat="44.35619599185884" lon="2.19396298751235">
        <ele>543.27999999999997</ele>
        <time>2025-04-25T13:10:19Z</time>
      </trkpt>
      <trkpt lat="44.356077974662185" lon="2.194011015817523">
        <ele>544.24000000000001</ele>
        <time>2025-04-25T13:10:20Z</time>
      </trkpt>
      <trkpt lat="44.355961969122291" lon="2.194072036072612">
        <ele>545.20000000000005</ele>
        <time>2025-04-25T13:10:21Z</time>
      </trkpt>
      <trkpt lat="44.355845041573048" lon="2.194172032177448">
        <ele>546.64999999999998</ele>
        <time>2025-04-25T13:10:22Z</time>
      </trkpt>
      <trkpt lat="44.355203993618488" lon="2.1947340387851">
        <ele>552.40999999999997</ele>
        <time>2025-04-25T13:10:27Z</time>
      </trkpt>
      <trkpt lat="44.35505798086524" lon="2.194810984656215">
        <ele>553.38</ele>
        <time>2025-04-25T13:10:28Z</time>
      </trkpt>
      <trkpt lat="44.354915991425514" lon="2.194836968556047">
        <ele>554.34000000000003</ele>
        <time>2025-04-25T13:10:29Z</time>
      </trkpt>
      <trkpt lat="44.354763021692634" lon="2.194783994928002">
        <ele>555.29999999999995</ele>
        <time>2025-04-25T13:10:30Z</time>
      </trkpt>
      <trkpt lat="44.354596976190805" lon="2.194711994379759">
        <ele>555.77999999999997</ele>
        <time>2025-04-25T13:10:31Z</time>
      </trkpt>
      <trkpt lat="44.354456998407841" lon="2.194623984396458">
        <ele>556.74000000000001</ele>
        <time>2025-04-25T13:10:32Z</time>
      </trkpt>
      <trkpt lat="44.353735987097025" lon="2.194213019683957">
        <ele>558.65999999999997</ele>
        <time>2025-04-25T13:10:37Z</time>
      </trkpt>
      <trkpt lat="44.353615958243608" lon="2.194183012470603">
        <ele>559.13999999999999</ele>
        <time>2025-04-25T13:10:38Z</time>
      </trkpt>
      <trkpt lat="44.353475980460644" lon="2.194160968065262">
        <ele>559.13999999999999</ele>
        <time>2025-04-25T13:10:39Z</time>
      </trkpt>
      <trkpt lat="44.353315969929099" lon="2.194199021905661">
        <ele>559.13999999999999</ele>
        <time>2025-04-25T13:10:40Z</time>
      </trkpt>
      <trkpt lat="44.353150008246303" lon="2.19424000941217">
        <ele>559.13999999999999</ele>
        <time>2025-04-25T13:10:41Z</time>
      </trkpt>
      <trkpt lat="44.352617003023624" lon="2.194341011345387">
        <ele>559.13999999999999</ele>
        <time>2025-04-25T13:10:44Z</time>
      </trkpt>
      <trkpt lat="44.351439010351896" lon="2.194261969998479">
        <ele>562.50999999999999</ele>
        <time>2025-04-25T13:10:50Z</time>
      </trkpt>
      <trkpt lat="44.351249998435378" lon="2.194308992475271">
        <ele>562.99000000000001</ele>
        <time>2025-04-25T13:10:51Z</time>
      </trkpt>
      <trkpt lat="44.350715987384319" lon="2.194538991898298">
        <ele>565.38999999999999</ele>
        <time>2025-04-25T13:10:54Z</time>
      </trkpt>
      <trkpt lat="44.350555976852775" lon="2.194637982174754">
        <ele>565.87</ele>
        <time>2025-04-25T13:10:55Z</time>
      </trkpt>
      <trkpt lat="44.350437959656119" lon="2.19477997161448">
        <ele>566.83000000000004</ele>
        <time>2025-04-25T13:10:56Z</time>
      </trkpt>
      <trkpt lat="44.350328994914889" lon="2.194936964660883">
        <ele>568.27999999999997</ele>
        <time>2025-04-25T13:10:57Z</time>
      </trkpt>
      <trkpt lat="44.350233022123575" lon="2.195116002112627">
        <ele>569.24000000000001</ele>
        <time>2025-04-25T13:10:58Z</time>
      </trkpt>
      <trkpt lat="44.350151969119906" lon="2.195334015414119">
        <ele>570.20000000000005</ele>
        <time>2025-04-25T13:10:59Z</time>
      </trkpt>
      <trkpt lat="44.350074017420411" lon="2.195558985695243">
        <ele>571.63999999999999</ele>
        <time>2025-04-25T13:11:00Z</time>
      </trkpt>
      <trkpt lat="44.349282011389732" lon="2.19783098436892">
        <ele>583.65999999999997</ele>
        <time>2025-04-25T13:11:10Z</time>
      </trkpt>
      <trkpt lat="44.349229037761688" lon="2.197978002950549">
        <ele>584.62</ele>
        <time>2025-04-25T13:11:11Z</time>
      </trkpt>
      <trkpt lat="44.349145973101258" lon="2.198076993227005">
        <ele>585.58000000000004</ele>
        <time>2025-04-25T13:11:12Z</time>
      </trkpt>
      <trkpt lat="44.349125018343329" lon="2.198101971298456">
        <ele>586.53999999999996</ele>
        <time>2025-04-25T13:11:13Z</time>
      </trkpt>
      <trkpt lat="44.349125018343329" lon="2.198101971298456">
        <ele>587.98000000000002</ele>
        <time>2025-04-25T13:11:14Z</time>
      </trkpt>
      <trkpt lat="44.348984034731984" lon="2.198067018762231">
        <ele>588.95000000000005</ele>
        <time>2025-04-25T13:11:15Z</time>
      </trkpt>
      <trkpt lat="44.348953021690249" lon="2.198059977963567">
        <ele>589.90999999999997</ele>
        <time>2025-04-25T13:11:16Z</time>
      </trkpt>
      <trkpt lat="44.348953021690249" lon="2.198059977963567">
        <ele>591.35000000000002</ele>
        <time>2025-04-25T13:11:17Z</time>
      </trkpt>
      <trkpt lat="44.348867023363709" lon="2.197909019887447">
        <ele>592.30999999999995</ele>
        <time>2025-04-25T13:11:18Z</time>
      </trkpt>
      <trkpt lat="44.348867023363709" lon="2.197909019887447">
        <ele>592.78999999999996</ele>
        <time>2025-04-25T13:11:19Z</time>
      </trkpt>
      <trkpt lat="44.348839027807117" lon="2.197545999661088">
        <ele>592.78999999999996</ele>
        <time>2025-04-25T13:11:20Z</time>
      </trkpt>
      <trkpt lat="44.348810026422143" lon="2.197256991639733">
        <ele>593.26999999999998</ele>
        <time>2025-04-25T13:11:21Z</time>
      </trkpt>
      <trkpt lat="44.348453041166067" lon="2.195761995390058">
        <ele>596.63999999999999</ele>
        <time>2025-04-25T13:11:27Z</time>
      </trkpt>
      <trkpt lat="44.34839503839612" lon="2.195355976000428">
        <ele>597.12</ele>
        <time>2025-04-25T13:11:28Z</time>
      </trkpt>
      <trkpt lat="44.348291018977761" lon="2.195240976288915">
        <ele>596.63999999999999</ele>
        <time>2025-04-25T13:11:29Z</time>
      </trkpt>
      <trkpt lat="44.348094966262579" lon="2.195204012095928">
        <ele>596.63999999999999</ele>
        <time>2025-04-25T13:11:30Z</time>
      </trkpt>
      <trkpt lat="44.347993964329362" lon="2.195236030966044">
        <ele>597.12</ele>
        <time>2025-04-25T13:11:31Z</time>
      </trkpt>
      <trkpt lat="44.34781501069665" lon="2.19529302790761">
        <ele>597.12</ele>
        <time>2025-04-25T13:11:32Z</time>
      </trkpt>
      <trkpt lat="44.347685007378459" lon="2.195408027619124">
        <ele>598.08000000000004</ele>
        <time>2025-04-25T13:11:33Z</time>
      </trkpt>
      <trkpt lat="44.347546035423875" lon="2.19553099013865">
        <ele>598.55999999999995</ele>
        <time>2025-04-25T13:11:34Z</time>
      </trkpt>
      <trkpt lat="44.346991991624236" lon="2.19604698009789">
        <ele>600.96000000000004</ele>
        <time>2025-04-25T13:11:38Z</time>
      </trkpt>
      <trkpt lat="44.346863999962807" lon="2.19621897675097">
        <ele>601.44000000000005</ele>
        <time>2025-04-25T13:11:39Z</time>
      </trkpt>
      <trkpt lat="44.346821000799537" lon="2.19636800698936">
        <ele>601.91999999999996</ele>
        <time>2025-04-25T13:11:40Z</time>
      </trkpt>
      <trkpt lat="44.34676400385797" lon="2.196573028340936">
        <ele>602.39999999999998</ele>
        <time>2025-04-25T13:11:41Z</time>
      </trkpt>
      <trkpt lat="44.346758974716067" lon="2.196751981973648">
        <ele>602.88</ele>
        <time>2025-04-25T13:11:42Z</time>
      </trkpt>
      <trkpt lat="44.346754029393196" lon="2.196940993890166">
        <ele>603.36000000000001</ele>
        <time>2025-04-25T13:11:43Z</time>
      </trkpt>
      <trkpt lat="44.346749000251293" lon="2.197134029120207">
        <ele>603.85000000000002</ele>
        <time>2025-04-25T13:11:44Z</time>
      </trkpt>
      <trkpt lat="44.34674397110939" lon="2.197309965267777">
        <ele>604.33000000000004</ele>
        <time>2025-04-25T13:11:45Z</time>
      </trkpt>
      <trkpt lat="44.34674296528101" lon="2.197351036593318">
        <ele>604.80999999999995</ele>
        <time>2025-04-25T13:11:46Z</time>
      </trkpt>
      <trkpt lat="44.346708012744784" lon="2.197397975251079">
        <ele>605.28999999999996</ele>
        <time>2025-04-25T13:11:47Z</time>
      </trkpt>
      <trkpt lat="44.3466139677912" lon="2.197523033246398">
        <ele>605.28999999999996</ele>
        <time>2025-04-25T13:11:48Z</time>
      </trkpt>
      <trkpt lat="44.3466139677912" lon="2.197523033246398">
        <ele>605.28999999999996</ele>
        <time>2025-04-25T13:11:49Z</time>
      </trkpt>
      <trkpt lat="44.346514977514744" lon="2.197505012154579">
        <ele>605.76999999999998</ele>
        <time>2025-04-25T13:11:50Z</time>
      </trkpt>
      <trkpt lat="44.346371982246637" lon="2.197477016597986">
        <ele>605.76999999999998</ele>
        <time>2025-04-25T13:11:51Z</time>
      </trkpt>
      <trkpt lat="44.346218006685376" lon="2.197407027706504">
        <ele>606.25</ele>
        <time>2025-04-25T13:11:52Z</time>
      </trkpt>
      <trkpt lat="44.346048021689057" lon="2.197327986359596">
        <ele>606.25</ele>
        <time>2025-04-25T13:11:53Z</time>
      </trkpt>
      <trkpt lat="44.34547402895987" lon="2.197039984166622">
        <ele>606.73000000000002</ele>
        <time>2025-04-25T13:11:56Z</time>
      </trkpt>
      <trkpt lat="44.345283005386591" lon="2.196909980848432">
        <ele>607.69000000000005</ele>
        <time>2025-04-25T13:11:57Z</time>
      </trkpt>
      <trkpt lat="44.344469038769603" lon="2.196085033938289">
        <ele>610.57000000000005</ele>
        <time>2025-04-25T13:12:02Z</time>
      </trkpt>
      <trkpt lat="44.344359990209341" lon="2.196010015904903">
        <ele>611.53999999999996</ele>
        <time>2025-04-25T13:12:03Z</time>
      </trkpt>
      <trkpt lat="44.344190005213022" lon="2.195891998708248">
        <ele>612.98000000000002</ele>
        <time>2025-04-25T13:12:04Z</time>
      </trkpt>
      <trkpt lat="44.343975009396672" lon="2.195977997034788">
        <ele>614.41999999999996</ele>
        <time>2025-04-25T13:12:05Z</time>
      </trkpt>
      <trkpt lat="44.343945002183318" lon="2.196030970662832">
        <ele>615.86000000000001</ele>
        <time>2025-04-25T13:12:06Z</time>
      </trkpt>
      <trkpt lat="44.343873001635075" lon="2.196155022829771">
        <ele>616.34000000000003</ele>
        <time>2025-04-25T13:12:07Z</time>
      </trkpt>
      <trkpt lat="44.343738975003362" lon="2.196386028081179">
        <ele>617.77999999999997</ele>
        <time>2025-04-25T13:12:08Z</time>
      </trkpt>
      <trkpt lat="44.343707961961627" lon="2.196386028081179">
        <ele>618.75</ele>
        <time>2025-04-25T13:12:09Z</time>
      </trkpt>
      <trkpt lat="44.34354099445045" lon="2.19634797424078">
        <ele>619.71000000000004</ele>
        <time>2025-04-25T13:12:10Z</time>
      </trkpt>
      <trkpt lat="44.343458013609052" lon="2.196230040863156">
        <ele>621.63</ele>
        <time>2025-04-25T13:12:11Z</time>
      </trkpt>
      <trkpt lat="44.343359023332596" lon="2.196090985089541">
        <ele>623.07000000000005</ele>
        <time>2025-04-25T13:12:12Z</time>
      </trkpt>
      <trkpt lat="44.343263972550631" lon="2.195855034515262">
        <ele>624.50999999999999</ele>
        <time>2025-04-25T13:12:13Z</time>
      </trkpt>
      <trkpt lat="44.343201024457812" lon="2.195630986243486">
        <ele>625.47000000000003</ele>
        <time>2025-04-25T13:12:14Z</time>
      </trkpt>
      <trkpt lat="44.343134975060821" lon="2.195394029840827">
        <ele>626.91999999999996</ele>
        <time>2025-04-25T13:12:15Z</time>
      </trkpt>
      <trkpt lat="44.342904975637794" lon="2.194737978279591">
        <ele>631.24000000000001</ele>
        <time>2025-04-25T13:12:18Z</time>
      </trkpt>
      <trkpt lat="44.342823000624776" lon="2.194590037688613">
        <ele>632.20000000000005</ele>
        <time>2025-04-25T13:12:19Z</time>
      </trkpt>
      <trkpt lat="44.342719987034798" lon="2.194494986906648">
        <ele>633.16999999999996</ele>
        <time>2025-04-25T13:12:20Z</time>
      </trkpt>
      <trkpt lat="44.342585038393736" lon="2.194461040198803">
        <ele>634.61000000000001</ele>
        <time>2025-04-25T13:12:21Z</time>
      </trkpt>
      <trkpt lat="44.342479007318616" lon="2.194488029927015">
        <ele>635.57000000000005</ele>
        <time>2025-04-25T13:12:22Z</time>
      </trkpt>
      <trkpt lat="44.342300975695252" lon="2.194561958312988">
        <ele>636.52999999999997</ele>
        <time>2025-04-25T13:12:23Z</time>
      </trkpt>
      <trkpt lat="44.342226041480899" lon="2.194637982174754">
        <ele>637.97000000000003</ele>
        <time>2025-04-25T13:12:24Z</time>
      </trkpt>
      <trkpt lat="44.342094026505947" lon="2.194768991321325">
        <ele>638.92999999999995</ele>
        <time>2025-04-25T13:12:25Z</time>
      </trkpt>
      <trkpt lat="44.341797977685928" lon="2.195039978250861">
        <ele>641.82000000000005</ele>
        <time>2025-04-25T13:12:27Z</time>
      </trkpt>
      <trkpt lat="44.341617012396455" lon="2.195122037082911">
        <ele>643.25999999999999</ele>
        <time>2025-04-25T13:12:28Z</time>
      </trkpt>
      <trkpt lat="44.341450966894627" lon="2.195128994062543">
        <ele>644.70000000000005</ele>
        <time>2025-04-25T13:12:29Z</time>
      </trkpt>
      <trkpt lat="44.341273019090295" lon="2.195136034861207">
        <ele>645.65999999999997</ele>
        <time>2025-04-25T13:12:30Z</time>
      </trkpt>
      <trkpt lat="44.341084007173777" lon="2.195142991840839">
        <ele>647.59000000000003</ele>
        <time>2025-04-25T13:12:31Z</time>
      </trkpt>
      <trkpt lat="44.340742025524378" lon="2.195156989619136">
        <ele>650.95000000000005</ele>
        <time>2025-04-25T13:12:33Z</time>
      </trkpt>
      <trkpt lat="44.340594001114368" lon="2.195162018761039">
        <ele>652.38999999999999</ele>
        <time>2025-04-25T13:12:34Z</time>
      </trkpt>
      <trkpt lat="44.340496016666293" lon="2.195246005430818">
        <ele>653.83000000000004</ele>
        <time>2025-04-25T13:12:35Z</time>
      </trkpt>
      <trkpt lat="44.340367019176483" lon="2.195367040112615">
        <ele>654.79999999999995</ele>
        <time>2025-04-25T13:12:36Z</time>
      </trkpt>
      <trkpt lat="44.340240033343434" lon="2.195486985146999">
        <ele>656.24000000000001</ele>
        <time>2025-04-25T13:12:37Z</time>
      </trkpt>
      <trkpt lat="44.340125033631921" lon="2.195683037862182">
        <ele>657.20000000000005</ele>
        <time>2025-04-25T13:12:38Z</time>
      </trkpt>
      <trkpt lat="44.338915022090077" lon="2.197691006585956">
        <ele>669.70000000000005</ele>
        <time>2025-04-25T13:12:47Z</time>
      </trkpt>
      <trkpt lat="44.338745959103107" lon="2.197859985753894">
        <ele>671.13999999999999</ele>
        <time>2025-04-25T13:12:48Z</time>
      </trkpt>
      <trkpt lat="44.33855602517724" lon="2.198021002113819">
        <ele>672.58000000000004</ele>
        <time>2025-04-25T13:12:49Z</time>
      </trkpt>
      <trkpt lat="44.338354021310806" lon="2.198117980733514">
        <ele>673.53999999999996</ele>
        <time>2025-04-25T13:12:50Z</time>
      </trkpt>
      <trkpt lat="44.33814899995923" lon="2.198215965181589">
        <ele>674.98000000000002</ele>
        <time>2025-04-25T13:12:51Z</time>
      </trkpt>
      <trkpt lat="44.337580958381295" lon="2.198488963767886">
        <ele>677.87</ele>
        <time>2025-04-25T13:12:54Z</time>
      </trkpt>
      <trkpt lat="44.337426982820034" lon="2.198643023148179">
        <ele>679.30999999999995</ele>
        <time>2025-04-25T13:12:55Z</time>
      </trkpt>
      <trkpt lat="44.33728901669383" lon="2.198786018416286">
        <ele>679.78999999999996</ele>
        <time>2025-04-25T13:12:56Z</time>
      </trkpt>
      <trkpt lat="44.337157001718879" lon="2.198975030332804">
        <ele>680.75</ele>
        <time>2025-04-25T13:12:57Z</time>
      </trkpt>
      <trkpt lat="44.337020963430405" lon="2.199169993400574">
        <ele>681.23000000000002</ele>
        <time>2025-04-25T13:12:58Z</time>
      </trkpt>
      <trkpt lat="44.336349992081523" lon="2.20006300136447">
        <ele>683.63</ele>
        <time>2025-04-25T13:13:03Z</time>
      </trkpt>
      <trkpt lat="44.336230969056487" lon="2.200181018561125">
        <ele>684.12</ele>
        <time>2025-04-25T13:13:04Z</time>
      </trkpt>
      <trkpt lat="44.336087973788381" lon="2.200243966653943">
        <ele>684.12</ele>
        <time>2025-04-25T13:13:05Z</time>
      </trkpt>
      <trkpt lat="44.335937015712261" lon="2.200267016887665">
        <ele>684.12</ele>
        <time>2025-04-25T13:13:06Z</time>
      </trkpt>
      <trkpt lat="44.335791002959013" lon="2.200233992189169">
        <ele>684.12</ele>
        <time>2025-04-25T13:13:07Z</time>
      </trkpt>
      <trkpt lat="44.335637027397752" lon="2.200199961662293">
        <ele>684.60000000000002</ele>
        <time>2025-04-25T13:13:08Z</time>
      </trkpt>
      <trkpt lat="44.334374964237213" lon="2.200099965557456">
        <ele>684.60000000000002</ele>
        <time>2025-04-25T13:13:15Z</time>
      </trkpt>
      <trkpt lat="44.334039017558098" lon="2.200006004422903">
        <ele>684.60000000000002</ele>
        <time>2025-04-25T13:13:17Z</time>
      </trkpt>
      <trkpt lat="44.333889987319708" lon="2.19991103745997">
        <ele>684.60000000000002</ele>
        <time>2025-04-25T13:13:18Z</time>
      </trkpt>
      <trkpt lat="44.333741962909698" lon="2.199779022485018">
        <ele>684.60000000000002</ele>
        <time>2025-04-25T13:13:19Z</time>
      </trkpt>
      <trkpt lat="44.332814002409577" lon="2.198790963739157">
        <ele>685.08000000000004</ele>
        <time>2025-04-25T13:13:25Z</time>
      </trkpt>
      <trkpt lat="44.332695985212922" lon="2.198583008721471">
        <ele>685.08000000000004</ele>
        <time>2025-04-25T13:13:26Z</time>
      </trkpt>
      <trkpt lat="44.332494987174869" lon="2.198210014030337">
        <ele>685.08000000000004</ele>
        <time>2025-04-25T13:13:28Z</time>
      </trkpt>
      <trkpt lat="44.332361966371536" lon="2.198059977963567">
        <ele>684.60000000000002</ele>
        <time>2025-04-25T13:13:29Z</time>
      </trkpt>
      <trkpt lat="44.332231963053346" lon="2.197976997122169">
        <ele>684.60000000000002</ele>
        <time>2025-04-25T13:13:30Z</time>
      </trkpt>
      <trkpt lat="44.332097014412284" lon="2.197970962151885">
        <ele>684.12</ele>
        <time>2025-04-25T13:13:31Z</time>
      </trkpt>
      <trkpt lat="44.331958964467049" lon="2.198005998507142">
        <ele>684.60000000000002</ele>
        <time>2025-04-25T13:13:32Z</time>
      </trkpt>
      <trkpt lat="44.331834996119142" lon="2.19806500710547">
        <ele>684.60000000000002</ele>
        <time>2025-04-25T13:13:33Z</time>
      </trkpt>
      <trkpt lat="44.331719996407628" lon="2.198133990168572">
        <ele>684.60000000000002</ele>
        <time>2025-04-25T13:13:34Z</time>
      </trkpt>
      <trkpt lat="44.33161698281765" lon="2.198196016252041">
        <ele>684.60000000000002</ele>
        <time>2025-04-25T13:13:35Z</time>
      </trkpt>
      <trkpt lat="44.331518998369575" lon="2.19821797683835">
        <ele>685.08000000000004</ele>
        <time>2025-04-25T13:13:36Z</time>
      </trkpt>
      <trkpt lat="44.331400981172919" lon="2.198230968788266">
        <ele>685.08000000000004</ele>
        <time>2025-04-25T13:13:37Z</time>
      </trkpt>
      <trkpt lat="44.331355970352888" lon="2.198205990716815">
        <ele>685.55999999999995</ele>
        <time>2025-04-25T13:13:38Z</time>
      </trkpt>
      <trkpt lat="44.331301990896463" lon="2.19817497767508">
        <ele>685.55999999999995</ele>
        <time>2025-04-25T13:13:39Z</time>
      </trkpt>
      <trkpt lat="44.331261003389955" lon="2.198037011548877">
        <ele>686.03999999999996</ele>
        <time>2025-04-25T13:13:40Z</time>
      </trkpt>
      <trkpt lat="44.331269972026348" lon="2.197929974645376">
        <ele>686.51999999999998</ele>
        <time>2025-04-25T13:13:41Z</time>
      </trkpt>
      <trkpt lat="44.331282963976264" lon="2.197789996862412">
        <ele>687.48000000000002</ele>
        <time>2025-04-25T13:13:42Z</time>
      </trkpt>
      <trkpt lat="44.331297967582941" lon="2.197625041007996">
        <ele>687.96000000000004</ele>
        <time>2025-04-25T13:13:43Z</time>
      </trkpt>
      <trkpt lat="44.331314982846379" lon="2.197023974731565">
        <ele>689.88</ele>
        <time>2025-04-25T13:13:46Z</time>
      </trkpt>
      <trkpt lat="44.331287993118167" lon="2.19679900445044">
        <ele>690.36000000000001</ele>
        <time>2025-04-25T13:13:47Z</time>
      </trkpt>
      <trkpt lat="44.331232002004981" lon="2.196567999199033">
        <ele>691.33000000000004</ele>
        <time>2025-04-25T13:13:48Z</time>
      </trkpt>
      <trkpt lat="44.331150026991963" lon="2.196353003382683">
        <ele>691.80999999999995</ele>
        <time>2025-04-25T13:13:49Z</time>
      </trkpt>
      <trkpt lat="44.33108096010983" lon="2.19613297842443">
        <ele>692.28999999999996</ele>
        <time>2025-04-25T13:13:50Z</time>
      </trkpt>
      <trkpt lat="44.330980964004993" lon="2.195940027013421">
        <ele>692.28999999999996</ele>
        <time>2025-04-25T13:13:51Z</time>
      </trkpt>
      <trkpt lat="44.330884991213679" lon="2.195755038410425">
        <ele>692.76999999999998</ele>
        <time>2025-04-25T13:13:52Z</time>
      </trkpt>
      <trkpt lat="44.330798992887139" lon="2.195591004565358">
        <ele>693.25</ele>
        <time>2025-04-25T13:13:53Z</time>
      </trkpt>
      <trkpt lat="44.330702014267445" lon="2.195464018732309">
        <ele>693.73000000000002</ele>
        <time>2025-04-25T13:13:54Z</time>
      </trkpt>
      <trkpt lat="44.330609980970621" lon="2.195343989878893">
        <ele>693.73000000000002</ele>
        <time>2025-04-25T13:13:55Z</time>
      </trkpt>
      <trkpt lat="44.329728959128261" lon="2.194225005805492">
        <ele>694.69000000000005</ele>
        <time>2025-04-25T13:14:03Z</time>
      </trkpt>
      <trkpt lat="44.329004008322954" lon="2.193310037255287">
        <ele>695.16999999999996</ele>
        <time>2025-04-25T13:14:09Z</time>
      </trkpt>
      <trkpt lat="44.328109994530678" lon="2.192353997379541">
        <ele>697.09000000000003</ele>
        <time>2025-04-25T13:14:14Z</time>
      </trkpt>
      <trkpt lat="44.326191041618586" lon="2.191058993339539">
        <ele>698.04999999999995</ele>
        <time>2025-04-25T13:14:24Z</time>
      </trkpt>
      <trkpt lat="44.323263997212052" lon="2.189177004620433">
        <ele>698.52999999999997</ele>
        <time>2025-04-25T13:14:38Z</time>
      </trkpt>
      <trkpt lat="44.32132501155138" lon="2.187543958425522">
        <ele>699.98000000000002</ele>
        <time>2025-04-25T13:14:47Z</time>
      </trkpt>
      <trkpt lat="44.319644020870328" lon="2.185249999165535">
        <ele>700.94000000000005</ele>
        <time>2025-04-25T13:14:56Z</time>
      </trkpt>
      <trkpt lat="44.317554999142885" lon="2.182134026661515">
        <ele>699.01999999999998</ele>
        <time>2025-04-25T13:15:08Z</time>
      </trkpt>
      <trkpt lat="44.316109959036112" lon="2.179977027699351">
        <ele>696.61000000000001</ele>
        <time>2025-04-25T13:15:17Z</time>
      </trkpt>
      <trkpt lat="44.314567018300295" lon="2.178014991804957">
        <ele>695.16999999999996</ele>
        <time>2025-04-25T13:15:27Z</time>
      </trkpt>
      <trkpt lat="44.313094988465309" lon="2.177050989121199">
        <ele>692.28999999999996</ele>
        <time>2025-04-25T13:15:35Z</time>
      </trkpt>
      <trkpt lat="44.309948002919555" lon="2.175108985975385">
        <ele>682.66999999999996</ele>
        <time>2025-04-25T13:15:51Z</time>
      </trkpt>
      <trkpt lat="44.308138014748693" lon="2.173982039093971">
        <ele>676.41999999999996</ele>
        <time>2025-04-25T13:16:01Z</time>
      </trkpt>
      <trkpt lat="44.307861998677254" lon="2.173791015520692">
        <ele>674.98000000000002</ele>
        <time>2025-04-25T13:16:04Z</time>
      </trkpt>
      <trkpt lat="44.30781195871532" lon="2.173866033554077">
        <ele>674.5</ele>
        <time>2025-04-25T13:16:05Z</time>
      </trkpt>
      <trkpt lat="44.30776895955205" lon="2.173929987475276">
        <ele>674.5</ele>
        <time>2025-04-25T13:16:06Z</time>
      </trkpt>
      <trkpt lat="44.307596040889621" lon="2.174167027696967">
        <ele>673.53999999999996</ele>
        <time>2025-04-25T13:16:09Z</time>
      </trkpt>
      <trkpt lat="44.307539965957403" lon="2.174241961911321">
        <ele>674.01999999999998</ele>
        <time>2025-04-25T13:16:10Z</time>
      </trkpt>
      <trkpt lat="44.307433012872934" lon="2.174252020195127">
        <ele>674.01999999999998</ele>
        <time>2025-04-25T13:16:11Z</time>
      </trkpt>
      <trkpt lat="44.307350032031536" lon="2.17426098883152">
        <ele>674.5</ele>
        <time>2025-04-25T13:16:12Z</time>
      </trkpt>
      <trkpt lat="44.307270990684628" lon="2.17421798966825">
        <ele>674.5</ele>
        <time>2025-04-25T13:16:13Z</time>
      </trkpt>
      <trkpt lat="44.30718700401485" lon="2.174148000776768">
        <ele>674.98000000000002</ele>
        <time>2025-04-25T13:16:14Z</time>
      </trkpt>
      <trkpt lat="44.307092959061265" lon="2.174069965258241">
        <ele>674.98000000000002</ele>
        <time>2025-04-25T13:16:15Z</time>
      </trkpt>
      <trkpt lat="44.306992962956429" lon="2.173985978588462">
        <ele>674.98000000000002</ele>
        <time>2025-04-25T13:16:16Z</time>
      </trkpt>
      <trkpt lat="44.30688600987196" lon="2.173920013010502">
        <ele>675.46000000000004</ele>
        <time>2025-04-25T13:16:17Z</time>
      </trkpt>
      <trkpt lat="44.306773021817207" lon="2.173875002190471">
        <ele>675.46000000000004</ele>
        <time>2025-04-25T13:16:18Z</time>
      </trkpt>
      <trkpt lat="44.30665098130703" lon="2.173825968056917">
        <ele>675.94000000000005</ele>
        <time>2025-04-25T13:16:19Z</time>
      </trkpt>
      <trkpt lat="44.306538999080658" lon="2.173838037997484">
        <ele>675.94000000000005</ele>
        <time>2025-04-25T13:16:20Z</time>
      </trkpt>
      <trkpt lat="44.30641402490437" lon="2.173880031332374">
        <ele>676.41999999999996</ele>
        <time>2025-04-25T13:16:21Z</time>
      </trkpt>
      <trkpt lat="44.30628402158618" lon="2.173924036324024">
        <ele>676.41999999999996</ele>
        <time>2025-04-25T13:16:22Z</time>
      </trkpt>
      <trkpt lat="44.306170027703047" lon="2.17400198802352">
        <ele>676.90999999999997</ele>
        <time>2025-04-25T13:16:23Z</time>
      </trkpt>
      <trkpt lat="44.306056033819914" lon="2.174115981906653">
        <ele>677.38999999999999</ele>
        <time>2025-04-25T13:16:24Z</time>
      </trkpt>
      <trkpt lat="44.305952014401555" lon="2.174227964133024">
        <ele>677.87</ele>
        <time>2025-04-25T13:16:25Z</time>
      </trkpt>
      <trkpt lat="44.305860986933112" lon="2.174354027956724">
        <ele>678.35000000000002</ele>
        <time>2025-04-25T13:16:26Z</time>
      </trkpt>
      <trkpt lat="44.305773982778192" lon="2.174468021839857">
        <ele>678.83000000000004</ele>
        <time>2025-04-25T13:16:27Z</time>
      </trkpt>
      <trkpt lat="44.305095970630646" lon="2.175314007326961">
        <ele>677.38999999999999</ele>
        <time>2025-04-25T13:16:33Z</time>
      </trkpt>
      <trkpt lat="44.303881013765931" lon="2.176582021638751">
        <ele>672.10000000000002</ele>
        <time>2025-04-25T13:16:41Z</time>
      </trkpt>
      <trkpt lat="44.303407017141581" lon="2.176836999133229">
        <ele>671.13999999999999</ele>
        <time>2025-04-25T13:16:44Z</time>
      </trkpt>
      <trkpt lat="44.303237032145262" lon="2.176873041316867">
        <ele>671.13999999999999</ele>
        <time>2025-04-25T13:16:45Z</time>
      </trkpt>
      <trkpt lat="44.302538987249136" lon="2.177028022706509">
        <ele>670.17999999999995</ele>
        <time>2025-04-25T13:16:49Z</time>
      </trkpt>
      <trkpt lat="44.302362967282534" lon="2.177101029083133">
        <ele>669.70000000000005</ele>
        <time>2025-04-25T13:16:50Z</time>
      </trkpt>
      <trkpt lat="44.302214020863175" lon="2.177218962460756">
        <ele>669.22000000000003</ele>
        <time>2025-04-25T13:16:51Z</time>
      </trkpt>
      <trkpt lat="44.302064990624785" lon="2.177357012405992">
        <ele>668.25</ele>
        <time>2025-04-25T13:16:52Z</time>
      </trkpt>
      <trkpt lat="44.301915960386395" lon="2.177493972703815">
        <ele>667.28999999999996</ele>
        <time>2025-04-25T13:16:53Z</time>
      </trkpt>
      <trkpt lat="44.301772965118289" lon="2.177634034305811">
        <ele>665.85000000000002</ele>
        <time>2025-04-25T13:16:54Z</time>
      </trkpt>
      <trkpt lat="44.30164497345686" lon="2.177821034565568">
        <ele>664.40999999999997</ele>
        <time>2025-04-25T13:16:55Z</time>
      </trkpt>
      <trkpt lat="44.301511030644178" lon="2.178017003461719">
        <ele>662.97000000000003</ele>
        <time>2025-04-25T13:16:56Z</time>
      </trkpt>
      <trkpt lat="44.300385005772114" lon="2.179936962202191">
        <ele>652.87</ele>
        <time>2025-04-25T13:17:05Z</time>
      </trkpt>
      <trkpt lat="44.299615966156125" lon="2.18119902536273">
        <ele>649.02999999999997</ele>
        <time>2025-04-25T13:17:12Z</time>
      </trkpt>
      <trkpt lat="44.299523010849953" lon="2.181276977062225">
        <ele>648.54999999999995</ele>
        <time>2025-04-25T13:17:13Z</time>
      </trkpt>
      <trkpt lat="44.299427038058639" lon="2.181311007589102">
        <ele>648.54999999999995</ele>
        <time>2025-04-25T13:17:14Z</time>
      </trkpt>
      <trkpt lat="44.299320001155138" lon="2.181318970397115">
        <ele>648.54999999999995</ele>
        <time>2025-04-25T13:17:15Z</time>
      </trkpt>
      <trkpt lat="44.299205001443624" lon="2.181299021467567">
        <ele>648.07000000000005</ele>
        <time>2025-04-25T13:17:16Z</time>
      </trkpt>
      <trkpt lat="44.299091007560492" lon="2.181272031739354">
        <ele>647.59000000000003</ele>
        <time>2025-04-25T13:17:17Z</time>
      </trkpt>
      <trkpt lat="44.298664033412933" lon="2.181168012320995">
        <ele>645.17999999999995</ele>
        <time>2025-04-25T13:17:21Z</time>
      </trkpt>
      <trkpt lat="44.298074031248689" lon="2.180957961827517">
        <ele>638.45000000000005</ele>
        <time>2025-04-25T13:17:27Z</time>
      </trkpt>
      <trkpt lat="44.297985015437007" lon="2.180937007069588">
        <ele>637.49000000000001</ele>
        <time>2025-04-25T13:17:28Z</time>
      </trkpt>
      <trkpt lat="44.297895999625325" lon="2.180939018726349">
        <ele>637.00999999999999</ele>
        <time>2025-04-25T13:17:29Z</time>
      </trkpt>
      <trkpt lat="44.297197032719851" lon="2.180957961827517">
        <ele>633.16999999999996</ele>
        <time>2025-04-25T13:17:37Z</time>
      </trkpt>
      <trkpt lat="44.297045990824699" lon="2.181008001789451">
        <ele>632.20000000000005</ele>
        <time>2025-04-25T13:17:39Z</time>
      </trkpt>
      <trkpt lat="44.296419024467468" lon="2.181397005915642">
        <ele>631.72000000000003</ele>
        <time>2025-04-25T13:17:46Z</time>
      </trkpt>
      <trkpt lat="44.296327996999025" lon="2.18143698759377">
        <ele>632.20000000000005</ele>
        <time>2025-04-25T13:17:47Z</time>
      </trkpt>
      <trkpt lat="44.296245016157627" lon="2.181474035605788">
        <ele>632.20000000000005</ele>
        <time>2025-04-25T13:17:48Z</time>
      </trkpt>
      <trkpt lat="44.296168992295861" lon="2.181507982313633">
        <ele>632.20000000000005</ele>
        <time>2025-04-25T13:17:49Z</time>
      </trkpt>
      <trkpt lat="44.296092968434095" lon="2.181538995355368">
        <ele>632.67999999999995</ele>
        <time>2025-04-25T13:17:50Z</time>
      </trkpt>
      <trkpt lat="44.295626012608409" lon="2.181641003116965">
        <ele>630.27999999999997</ele>
        <time>2025-04-25T13:17:56Z</time>
      </trkpt>
      <trkpt lat="44.295559041202068" lon="2.181666987016797">
        <ele>629.79999999999995</ele>
        <time>2025-04-25T13:17:57Z</time>
      </trkpt>
      <trkpt lat="44.295493997633457" lon="2.181695988401771">
        <ele>629.32000000000005</ele>
        <time>2025-04-25T13:17:58Z</time>
      </trkpt>
      <trkpt lat="44.29541596211493" lon="2.181730018928647">
        <ele>628.36000000000001</ele>
        <time>2025-04-25T13:17:59Z</time>
      </trkpt>
      <trkpt lat="44.295377992093563" lon="2.181761031970382">
        <ele>627.88</ele>
        <time>2025-04-25T13:18:00Z</time>
      </trkpt>
      <trkpt lat="44.295324012637138" lon="2.181804031133652">
        <ele>627.39999999999998</ele>
        <time>2025-04-25T13:18:01Z</time>
      </trkpt>
      <trkpt lat="44.295277995988727" lon="2.181840995326638">
        <ele>626.44000000000005</ele>
        <time>2025-04-25T13:18:02Z</time>
      </trkpt>
      <trkpt lat="44.295234996825457" lon="2.181876031681895">
        <ele>625.96000000000004</ele>
        <time>2025-04-25T13:18:03Z</time>
      </trkpt>
      <trkpt lat="44.295187974348664" lon="2.181921964511275">
        <ele>624.99000000000001</ele>
        <time>2025-04-25T13:18:04Z</time>
      </trkpt>
      <trkpt lat="44.295147992670536" lon="2.181982984766364">
        <ele>624.50999999999999</ele>
        <time>2025-04-25T13:18:05Z</time>
      </trkpt>
      <trkpt lat="44.294837024062872" lon="2.182428985834122">
        <ele>620.66999999999996</ele>
        <time>2025-04-25T13:18:12Z</time>
      </trkpt>
      <trkpt lat="44.294799976050854" lon="2.182473996654153">
        <ele>619.71000000000004</ele>
        <time>2025-04-25T13:18:13Z</time>
      </trkpt>
      <trkpt lat="44.294764017686248" lon="2.18251196667552">
        <ele>619.23000000000002</ele>
        <time>2025-04-25T13:18:14Z</time>
      </trkpt>
      <trkpt lat="44.294735016301274" lon="2.182539962232113">
        <ele>618.75</ele>
        <time>2025-04-25T13:18:15Z</time>
      </trkpt>
      <trkpt lat="44.294707020744681" lon="2.182568041607738">
        <ele>618.75</ele>
        <time>2025-04-25T13:18:16Z</time>
      </trkpt>
      <trkpt lat="44.294622028246522" lon="2.182653034105897">
        <ele>618.25999999999999</ele>
        <time>2025-04-25T13:18:17Z</time>
      </trkpt>
      <trkpt lat="44.29459503851831" lon="2.182522024959326">
        <ele>617.77999999999997</ele>
        <time>2025-04-25T13:18:18Z</time>
      </trkpt>
      <trkpt lat="44.294582968577743" lon="2.18246603384614">
        <ele>618.25999999999999</ele>
        <time>2025-04-25T13:18:19Z</time>
      </trkpt>
      <trkpt lat="44.294568970799446" lon="2.182399984449148">
        <ele>618.25999999999999</ele>
        <time>2025-04-25T13:18:20Z</time>
      </trkpt>
      <trkpt lat="44.294552961364388" lon="2.182323960587382">
        <ele>617.77999999999997</ele>
        <time>2025-04-25T13:18:21Z</time>
      </trkpt>
      <trkpt lat="44.294537035748363" lon="2.182245003059506">
        <ele>617.29999999999995</ele>
        <time>2025-04-25T13:18:22Z</time>
      </trkpt>
      <trkpt lat="44.294526977464557" lon="2.182174008339644">
        <ele>616.82000000000005</ele>
        <time>2025-04-25T13:18:23Z</time>
      </trkpt>
      <trkpt lat="44.294501999393106" lon="2.181993965059519">
        <ele>615.38</ele>
        <time>2025-04-25T13:18:26Z</time>
      </trkpt>
      <trkpt lat="44.294474003836513" lon="2.181787015870214">
        <ele>613.94000000000005</ele>
        <time>2025-04-25T13:18:31Z</time>
      </trkpt>
      <trkpt lat="44.294474003836513" lon="2.181787015870214">
        <ele>613.94000000000005</ele>
        <time>2025-04-25T13:18:33Z</time>
      </trkpt>
      <trkpt lat="44.294474003836513" lon="2.181787015870214">
        <ele>614.41999999999996</ele>
        <time>2025-04-25T13:18:45Z</time>
      </trkpt>
      <trkpt lat="44.294474003836513" lon="2.181787015870214">
        <ele>614.89999999999998</ele>
        <time>2025-04-25T13:18:54Z</time>
      </trkpt>
      <trkpt lat="44.294476015493274" lon="2.181805958971381">
        <ele>614.89999999999998</ele>
        <time>2025-04-25T13:18:56Z</time>
      </trkpt>
      <trkpt lat="44.294486995786428" lon="2.181882988661528">
        <ele>614.89999999999998</ele>
        <time>2025-04-25T13:18:57Z</time>
      </trkpt>
      <trkpt lat="44.294499987736344" lon="2.181982984766364">
        <ele>614.89999999999998</ele>
        <time>2025-04-25T13:18:58Z</time>
      </trkpt>
      <trkpt lat="44.294514991343021" lon="2.182092033326626">
        <ele>614.89999999999998</ele>
        <time>2025-04-25T13:18:59Z</time>
      </trkpt>
      <trkpt lat="44.294529994949698" lon="2.182194963097572">
        <ele>614.89999999999998</ele>
        <time>2025-04-25T13:19:00Z</time>
      </trkpt>
      <trkpt lat="44.294544998556376" lon="2.182285990566015">
        <ele>614.89999999999998</ele>
        <time>2025-04-25T13:19:01Z</time>
      </trkpt>
      <trkpt lat="44.294562013819814" lon="2.182364026084542">
        <ele>614.89999999999998</ele>
        <time>2025-04-25T13:19:02Z</time>
      </trkpt>
      <trkpt lat="44.29457500576973" lon="2.182428985834122">
        <ele>614.89999999999998</ele>
        <time>2025-04-25T13:19:03Z</time>
      </trkpt>
      <trkpt lat="44.294586991891265" lon="2.182483971118927">
        <ele>614.89999999999998</ele>
        <time>2025-04-25T13:19:04Z</time>
      </trkpt>
      <trkpt lat="44.294686987996101" lon="2.182587990537286">
        <ele>614.89999999999998</ele>
        <time>2025-04-25T13:19:05Z</time>
      </trkpt>
      <trkpt lat="44.294719006866217" lon="2.182556977495551">
        <ele>614.89999999999998</ele>
        <time>2025-04-25T13:19:06Z</time>
      </trkpt>
      <trkpt lat="44.294754965230823" lon="2.182521019130945">
        <ele>614.89999999999998</ele>
        <time>2025-04-25T13:19:07Z</time>
      </trkpt>
      <trkpt lat="44.29479100741446" lon="2.182484976947308">
        <ele>614.89999999999998</ele>
        <time>2025-04-25T13:19:08Z</time>
      </trkpt>
      <trkpt lat="44.294823026284575" lon="2.182447006925941">
        <ele>614.89999999999998</ele>
        <time>2025-04-25T13:19:09Z</time>
      </trkpt>
      <trkpt lat="44.294854961335659" lon="2.182408031076193">
        <ele>614.89999999999998</ele>
        <time>2025-04-25T13:19:10Z</time>
      </trkpt>
      <trkpt lat="44.294900977984071" lon="2.182352961972356">
        <ele>614.89999999999998</ele>
        <time>2025-04-25T13:19:11Z</time>
      </trkpt>
      <trkpt lat="44.294900977984071" lon="2.182322032749653">
        <ele>614.89999999999998</ele>
        <time>2025-04-25T13:19:12Z</time>
      </trkpt>
      <trkpt lat="44.294900977984071" lon="2.182288002222776">
        <ele>614.89999999999998</ele>
        <time>2025-04-25T13:19:13Z</time>
      </trkpt>
      <trkpt lat="44.294900977984071" lon="2.182267969474196">
        <ele>615.38</ele>
        <time>2025-04-25T13:19:14Z</time>
      </trkpt>
      <trkpt lat="44.294900977984071" lon="2.182255983352661">
        <ele>615.38</ele>
        <time>2025-04-25T13:19:15Z</time>
      </trkpt>
      <trkpt lat="44.294900977984071" lon="2.182255983352661">
        <ele>615.38</ele>
        <time>2025-04-25T13:19:28Z</time>
      </trkpt>
      <trkpt lat="44.294877005741" lon="2.182236034423113">
        <ele>615.38</ele>
        <time>2025-04-25T13:42:05Z</time>
      </trkpt>
      <trkpt lat="44.294881029054523" lon="2.182229999452829">
        <ele>614.89999999999998</ele>
        <time>2025-04-25T13:42:47Z</time>
      </trkpt>
      <trkpt lat="44.294883040711284" lon="2.182227987796068">
        <ele>614.89999999999998</ele>
        <time>2025-04-25T13:43:35Z</time>
      </trkpt>
      <trkpt lat="44.294883962720633" lon="2.182227987796068">
        <ele>615.38</ele>
        <time>2025-04-25T13:44:09Z</time>
      </trkpt>
      <trkpt lat="44.294885974377394" lon="2.182229999452829">
        <ele>615.38</ele>
        <time>2025-04-25T13:44:46Z</time>
      </trkpt>
      <trkpt lat="44.294905001297593" lon="2.182243997231126">
        <ele>615.86000000000001</ele>
        <time>2025-04-25T13:45:26Z</time>
      </trkpt>
      <trkpt lat="44.294905001297593" lon="2.182245003059506">
        <ele>616.34000000000003</ele>
        <time>2025-04-25T13:45:30Z</time>
      </trkpt>
      <trkpt lat="44.294900977984071" lon="2.182352961972356">
        <ele>617.77999999999997</ele>
        <time>2025-04-25T13:45:32Z</time>
      </trkpt>
      <trkpt lat="44.294867031276226" lon="2.182394033297896">
        <ele>618.25999999999999</ele>
        <time>2025-04-25T13:45:33Z</time>
      </trkpt>
      <trkpt lat="44.294755971059203" lon="2.182519007474184">
        <ele>618.25999999999999</ele>
        <time>2025-04-25T13:45:37Z</time>
      </trkpt>
      <trkpt lat="44.294730992987752" lon="2.182543985545635">
        <ele>618.25999999999999</ele>
        <time>2025-04-25T13:45:38Z</time>
      </trkpt>
      <trkpt lat="44.294707020744681" lon="2.182568041607738">
        <ele>618.25999999999999</ele>
        <time>2025-04-25T13:45:39Z</time>
      </trkpt>
      <trkpt lat="44.294587997719646" lon="2.182487994432449">
        <ele>617.77999999999997</ele>
        <time>2025-04-25T13:45:40Z</time>
      </trkpt>
      <trkpt lat="44.294578023254871" lon="2.182440971955657">
        <ele>617.29999999999995</ele>
        <time>2025-04-25T13:45:41Z</time>
      </trkpt>
      <trkpt lat="44.294567964971066" lon="2.182393027469516">
        <ele>617.29999999999995</ele>
        <time>2025-04-25T13:45:42Z</time>
      </trkpt>
      <trkpt lat="44.294557990506291" lon="2.182344999164343">
        <ele>616.82000000000005</ele>
        <time>2025-04-25T13:45:43Z</time>
      </trkpt>
      <trkpt lat="44.294548016041517" lon="2.182300994172692">
        <ele>616.82000000000005</ele>
        <time>2025-04-25T13:45:44Z</time>
      </trkpt>
      <trkpt lat="44.294476015493274" lon="2.181805036962032">
        <ele>613.46000000000004</ele>
        <time>2025-04-25T13:45:54Z</time>
      </trkpt>
      <trkpt lat="44.294466963037848" lon="2.18173798173666">
        <ele>613.46000000000004</ele>
        <time>2025-04-25T13:45:55Z</time>
      </trkpt>
      <trkpt lat="44.294375013560057" lon="2.181075979024172">
        <ele>611.05999999999995</ele>
        <time>2025-04-25T13:46:04Z</time>
      </trkpt>
      <trkpt lat="44.294157000258565" lon="2.18016997911036">
        <ele>609.61000000000001</ele>
        <time>2025-04-25T13:46:12Z</time>
      </trkpt>
      <trkpt lat="44.294111989438534" lon="2.18008004128933">
        <ele>609.61000000000001</ele>
        <time>2025-04-25T13:46:13Z</time>
      </trkpt>
      <trkpt lat="44.294053986668587" lon="2.179985996335745">
        <ele>609.61000000000001</ele>
        <time>2025-04-25T13:46:14Z</time>
      </trkpt>
      <trkpt lat="44.293531039729714" lon="2.179249981418252">
        <ele>607.69000000000005</ele>
        <time>2025-04-25T13:46:23Z</time>
      </trkpt>
      <trkpt lat="44.29294103756547" lon="2.178506003692746">
        <ele>604.33000000000004</ele>
        <time>2025-04-25T13:46:30Z</time>
      </trkpt>
      <trkpt lat="44.292839029803872" lon="2.178424028679729">
        <ele>603.36000000000001</ele>
        <time>2025-04-25T13:46:31Z</time>
      </trkpt>
      <trkpt lat="44.292740039527416" lon="2.17834398150444">
        <ele>602.88</ele>
        <time>2025-04-25T13:46:32Z</time>
      </trkpt>
      <trkpt lat="44.292634008452296" lon="2.17829997651279">
        <ele>602.39999999999998</ele>
        <time>2025-04-25T13:46:33Z</time>
      </trkpt>
      <trkpt lat="44.292522026225924" lon="2.178254965692759">
        <ele>601.91999999999996</ele>
        <time>2025-04-25T13:46:34Z</time>
      </trkpt>
      <trkpt lat="44.292404009029269" lon="2.178240967914462">
        <ele>601.91999999999996</ele>
        <time>2025-04-25T13:46:35Z</time>
      </trkpt>
      <trkpt lat="44.292272999882698" lon="2.178226970136166">
        <ele>601.91999999999996</ele>
        <time>2025-04-25T13:46:36Z</time>
      </trkpt>
      <trkpt lat="44.292133022099733" lon="2.178210960701108">
        <ele>601.91999999999996</ele>
        <time>2025-04-25T13:46:37Z</time>
      </trkpt>
      <trkpt lat="44.290916975587606" lon="2.178307017311454">
        <ele>600.96000000000004</ele>
        <time>2025-04-25T13:46:44Z</time>
      </trkpt>
      <trkpt lat="44.289648039266467" lon="2.178497035056353">
        <ele>601.91999999999996</ele>
        <time>2025-04-25T13:46:51Z</time>
      </trkpt>
      <trkpt lat="44.289513006806374" lon="2.178446995094419">
        <ele>602.39999999999998</ele>
        <time>2025-04-25T13:46:52Z</time>
      </trkpt>
      <trkpt lat="44.289369005709887" lon="2.178395027294755">
        <ele>602.39999999999998</ele>
        <time>2025-04-25T13:46:53Z</time>
      </trkpt>
      <trkpt lat="44.289058959111571" lon="2.178280027583242">
        <ele>601.91999999999996</ele>
        <time>2025-04-25T13:46:55Z</time>
      </trkpt>
      <trkpt lat="44.288899032399058" lon="2.178221018984914">
        <ele>601.91999999999996</ele>
        <time>2025-04-25T13:46:56Z</time>
      </trkpt>
      <trkpt lat="44.288738016039133" lon="2.178220013156533">
        <ele>601.91999999999996</ele>
        <time>2025-04-25T13:46:57Z</time>
      </trkpt>
      <trkpt lat="44.288585968315601" lon="2.178229987621307">
        <ele>601.91999999999996</ele>
        <time>2025-04-25T13:46:58Z</time>
      </trkpt>
      <trkpt lat="44.288445990532637" lon="2.178239040076733">
        <ele>601.91999999999996</ele>
        <time>2025-04-25T13:46:59Z</time>
      </trkpt>
      <trkpt lat="44.287706036120653" lon="2.178233005106449">
        <ele>601.91999999999996</ele>
        <time>2025-04-25T13:47:05Z</time>
      </trkpt>
      <trkpt lat="44.287209995090961" lon="2.178206015378237">
        <ele>604.33000000000004</ele>
        <time>2025-04-25T13:47:11Z</time>
      </trkpt>
      <trkpt lat="44.286887040361762" lon="2.178229987621307">
        <ele>605.28999999999996</ele>
        <time>2025-04-25T13:47:15Z</time>
      </trkpt>
      <trkpt lat="44.286806993186474" lon="2.178239040076733">
        <ele>605.76999999999998</ele>
        <time>2025-04-25T13:47:16Z</time>
      </trkpt>
      <trkpt lat="44.286645976826549" lon="2.178236022591591">
        <ele>605.76999999999998</ele>
        <time>2025-04-25T13:47:18Z</time>
      </trkpt>
      <trkpt lat="44.28658202290535" lon="2.178204003721476">
        <ele>605.76999999999998</ele>
        <time>2025-04-25T13:47:19Z</time>
      </trkpt>
      <trkpt lat="44.28651999682188" lon="2.17817198485136">
        <ele>606.25</ele>
        <time>2025-04-25T13:47:20Z</time>
      </trkpt>
      <trkpt lat="44.286459982395172" lon="2.178142983466387">
        <ele>606.25</ele>
        <time>2025-04-25T13:47:21Z</time>
      </trkpt>
      <trkpt lat="44.286426035687327" lon="2.178124962374568">
        <ele>606.25</ele>
        <time>2025-04-25T13:47:22Z</time>
      </trkpt>
      <trkpt lat="44.286361997947097" lon="2.178053967654705">
        <ele>606.25</ele>
        <time>2025-04-25T13:47:23Z</time>
      </trkpt>
      <trkpt lat="44.286313969641924" lon="2.178000994026661">
        <ele>606.25</ele>
        <time>2025-04-25T13:47:24Z</time>
      </trkpt>
      <trkpt lat="44.286266025155783" lon="2.177948020398617">
        <ele>606.25</ele>
        <time>2025-04-25T13:47:25Z</time>
      </trkpt>
      <trkpt lat="44.28621900267899" lon="2.177895968779922">
        <ele>606.25</ele>
        <time>2025-04-25T13:47:26Z</time>
      </trkpt>
      <trkpt lat="44.286173991858959" lon="2.177845006808639">
        <ele>606.25</ele>
        <time>2025-04-25T13:47:27Z</time>
      </trkpt>
      <trkpt lat="44.286082964390516" lon="2.177745010703802">
        <ele>606.25</ele>
        <time>2025-04-25T13:47:29Z</time>
      </trkpt>
      <trkpt lat="44.286028984934092" lon="2.177689019590616">
        <ele>606.25</ele>
        <time>2025-04-25T13:47:30Z</time>
      </trkpt>
      <trkpt lat="44.285905016586185" lon="2.177600003778935">
        <ele>606.25</ele>
        <time>2025-04-25T13:47:32Z</time>
      </trkpt>
      <trkpt lat="44.285589018836617" lon="2.17737402766943">
        <ele>605.76999999999998</ele>
        <time>2025-04-25T13:47:37Z</time>
      </trkpt>
      <trkpt lat="44.285486005246639" lon="2.177338991314173">
        <ele>605.76999999999998</ele>
        <time>2025-04-25T13:47:38Z</time>
      </trkpt>
      <trkpt lat="44.284438015893102" lon="2.177014024928212">
        <ele>609.13</ele>
        <time>2025-04-25T13:47:51Z</time>
      </trkpt>
      <trkpt lat="44.284028979018331" lon="2.176872035488486">
        <ele>608.64999999999998</ele>
        <time>2025-04-25T13:47:56Z</time>
      </trkpt>
      <trkpt lat="44.283846002072096" lon="2.176807997748256">
        <ele>608.64999999999998</ele>
        <time>2025-04-25T13:47:58Z</time>
      </trkpt>
      <trkpt lat="44.283338980749249" lon="2.17640801332891">
        <ele>603.36000000000001</ele>
        <time>2025-04-25T13:48:04Z</time>
      </trkpt>
      <trkpt lat="44.282739004120231" lon="2.175912978127599">
        <ele>594.23000000000002</ele>
        <time>2025-04-25T13:48:12Z</time>
      </trkpt>
      <trkpt lat="44.282671026885509" lon="2.175857992842794">
        <ele>593.26999999999998</ele>
        <time>2025-04-25T13:48:13Z</time>
      </trkpt>
      <trkpt lat="44.282162999734282" lon="2.175437975674868">
        <ele>586.53999999999996</ele>
        <time>2025-04-25T13:48:20Z</time>
      </trkpt>
      <trkpt lat="44.2820930108428" lon="2.175379972904921">
        <ele>586.05999999999995</ele>
        <time>2025-04-25T13:48:21Z</time>
      </trkpt>
      <trkpt lat="44.282015981152654" lon="2.175364969298244">
        <ele>585.58000000000004</ele>
        <time>2025-04-25T13:48:22Z</time>
      </trkpt>
      <trkpt lat="44.281937023624778" lon="2.175349965691567">
        <ele>585.58000000000004</ele>
        <time>2025-04-25T13:48:23Z</time>
      </trkpt>
      <trkpt lat="44.281854964792728" lon="2.175334962084889">
        <ele>585.10000000000002</ele>
        <time>2025-04-25T13:48:24Z</time>
      </trkpt>
      <trkpt lat="44.28174801170826" lon="2.175314007326961">
        <ele>585.10000000000002</ele>
        <time>2025-04-25T13:48:25Z</time>
      </trkpt>
      <trkpt lat="44.281693026423454" lon="2.175332028418779">
        <ele>585.10000000000002</ele>
        <time>2025-04-25T13:48:26Z</time>
      </trkpt>
      <trkpt lat="44.281627982854843" lon="2.175352983176708">
        <ele>584.62</ele>
        <time>2025-04-25T13:48:27Z</time>
      </trkpt>
      <trkpt lat="44.281423967331648" lon="2.1754190325737">
        <ele>584.13999999999999</ele>
        <time>2025-04-25T13:48:30Z</time>
      </trkpt>
      <trkpt lat="44.281136970967054" lon="2.175510982051492">
        <ele>584.13999999999999</ele>
        <time>2025-04-25T13:48:34Z</time>
      </trkpt>
      <trkpt lat="44.28108299151063" lon="2.175529003143311">
        <ele>583.65999999999997</ele>
        <time>2025-04-25T13:48:35Z</time>
      </trkpt>
      <trkpt lat="44.281027000397444" lon="2.175512993708253">
        <ele>583.17999999999995</ele>
        <time>2025-04-25T13:48:36Z</time>
      </trkpt>
      <trkpt lat="44.280947037041187" lon="2.175489021465182">
        <ele>582.70000000000005</ele>
        <time>2025-04-25T13:48:37Z</time>
      </trkpt>
      <trkpt lat="44.280858021229506" lon="2.175463037565351">
        <ele>582.70000000000005</ele>
        <time>2025-04-25T13:48:38Z</time>
      </trkpt>
      <trkpt lat="44.280766993761063" lon="2.175435964018107">
        <ele>582.70000000000005</ele>
        <time>2025-04-25T13:48:39Z</time>
      </trkpt>
      <trkpt lat="44.2802469804883" lon="2.175225997343659">
        <ele>583.17999999999995</ele>
        <time>2025-04-25T13:48:45Z</time>
      </trkpt>
      <trkpt lat="44.280171962454915" lon="2.17516397126019">
        <ele>583.17999999999995</ele>
        <time>2025-04-25T13:48:46Z</time>
      </trkpt>
      <trkpt lat="44.280087975785136" lon="2.175087025389075">
        <ele>583.65999999999997</ele>
        <time>2025-04-25T13:48:47Z</time>
      </trkpt>
      <trkpt lat="44.279651027172804" lon="2.17428001575172">
        <ele>583.65999999999997</ele>
        <time>2025-04-25T13:48:55Z</time>
      </trkpt>
      <trkpt lat="44.2795579880476" lon="2.17410801909864">
        <ele>583.17999999999995</ele>
        <time>2025-04-25T13:48:57Z</time>
      </trkpt>
      <trkpt lat="44.279505014419556" lon="2.17404498718679">
        <ele>583.17999999999995</ele>
        <time>2025-04-25T13:48:58Z</time>
      </trkpt>
      <trkpt lat="44.279375011101365" lon="2.173944991081953">
        <ele>582.70000000000005</ele>
        <time>2025-04-25T13:49:00Z</time>
      </trkpt>
      <trkpt lat="44.279306028038263" lon="2.173891011625528">
        <ele>582.70000000000005</ele>
        <time>2025-04-25T13:49:01Z</time>
      </trkpt>
      <trkpt lat="44.2792350333184" lon="2.173836026340723">
        <ele>583.17999999999995</ele>
        <time>2025-04-25T13:49:02Z</time>
      </trkpt>
      <trkpt lat="44.278787020593882" lon="2.173491027206183">
        <ele>584.13999999999999</ele>
        <time>2025-04-25T13:49:10Z</time>
      </trkpt>
      <trkpt lat="44.278522990643978" lon="2.173282988369465">
        <ele>585.10000000000002</ele>
        <time>2025-04-25T13:49:17Z</time>
      </trkpt>
      <trkpt lat="44.278494995087385" lon="2.173261027783155">
        <ele>585.58000000000004</ele>
        <time>2025-04-25T13:49:19Z</time>
      </trkpt>
      <trkpt lat="44.27863497287035" lon="2.173095988109708">
        <ele>586.05999999999995</ele>
        <time>2025-04-25T13:49:21Z</time>
      </trkpt>
      <trkpt lat="44.278474040329456" lon="2.173306960612536">
        <ele>586.05999999999995</ele>
        <time>2025-04-25T13:49:22Z</time>
      </trkpt>
      <trkpt lat="44.278396004810929" lon="2.174125034362078">
        <ele>584.62</ele>
        <time>2025-04-25T13:49:26Z</time>
      </trkpt>
      <trkpt lat="44.278289973735809" lon="2.174198040738702">
        <ele>583.65999999999997</ele>
        <time>2025-04-25T13:49:27Z</time>
      </trkpt>
      <trkpt lat="44.278171034529805" lon="2.174279009923339">
        <ele>583.17999999999995</ele>
        <time>2025-04-25T13:49:28Z</time>
      </trkpt>
      <trkpt lat="44.278039019554853" lon="2.174368025735021">
        <ele>582.22000000000003</ele>
        <time>2025-04-25T13:49:29Z</time>
      </trkpt>
      <trkpt lat="44.277894012629986" lon="2.174467016011477">
        <ele>581.25</ele>
        <time>2025-04-25T13:49:30Z</time>
      </trkpt>
      <trkpt lat="44.277280960232019" lon="2.174928020685911">
        <ele>576.45000000000005</ele>
        <time>2025-04-25T13:49:34Z</time>
      </trkpt>
      <trkpt lat="44.277133019641042" lon="2.175059029832482">
        <ele>575.49000000000001</ele>
        <time>2025-04-25T13:49:35Z</time>
      </trkpt>
      <trkpt lat="44.277022965252399" lon="2.17524703592062">
        <ele>574.03999999999996</ele>
        <time>2025-04-25T13:49:36Z</time>
      </trkpt>
      <trkpt lat="44.276924980804324" lon="2.175458008423448">
        <ele>573.08000000000004</ele>
        <time>2025-04-25T13:49:37Z</time>
      </trkpt>
      <trkpt lat="44.276832025498152" lon="2.175680967047811">
        <ele>571.63999999999999</ele>
        <time>2025-04-25T13:49:38Z</time>
      </trkpt>
      <trkpt lat="44.276477973908186" lon="2.176646981388331">
        <ele>565.38999999999999</ele>
        <time>2025-04-25T13:49:42Z</time>
      </trkpt>
      <trkpt lat="44.276103973388672" lon="2.178061008453369">
        <ele>557.70000000000005</ele>
        <time>2025-04-25T13:49:47Z</time>
      </trkpt>
      <trkpt lat="44.275983022525907" lon="2.178223030641675">
        <ele>555.77999999999997</ele>
        <time>2025-04-25T13:49:48Z</time>
      </trkpt>
      <trkpt lat="44.275911021977663" lon="2.178319003432989">
        <ele>554.34000000000003</ele>
        <time>2025-04-25T13:49:49Z</time>
      </trkpt>
      <trkpt lat="44.275742964819074" lon="2.178417993709445">
        <ele>552.40999999999997</ele>
        <time>2025-04-25T13:49:50Z</time>
      </trkpt>
      <trkpt lat="44.275577003136277" lon="2.178516983985901">
        <ele>551.45000000000005</ele>
        <time>2025-04-25T13:49:51Z</time>
      </trkpt>
      <trkpt lat="44.275399977341294" lon="2.17862200923264">
        <ele>550.00999999999999</ele>
        <time>2025-04-25T13:49:52Z</time>
      </trkpt>
      <trkpt lat="44.275229992344975" lon="2.178723011165857">
        <ele>548.09000000000003</ele>
        <time>2025-04-25T13:49:53Z</time>
      </trkpt>
      <trkpt lat="44.275084985420108" lon="2.178928032517433">
        <ele>546.16999999999996</ele>
        <time>2025-04-25T13:49:54Z</time>
      </trkpt>
      <trkpt lat="44.274977026507258" lon="2.1791369933635">
        <ele>544.24000000000001</ele>
        <time>2025-04-25T13:49:55Z</time>
      </trkpt>
      <trkpt lat="44.274881975725293" lon="2.179363975301385">
        <ele>541.84000000000003</ele>
        <time>2025-04-25T13:49:56Z</time>
      </trkpt>
      <trkpt lat="44.274786002933979" lon="2.179635968059301">
        <ele>539.91999999999996</ele>
        <time>2025-04-25T13:49:57Z</time>
      </trkpt>
      <trkpt lat="44.274414014071226" lon="2.1807049959898">
        <ele>529.34000000000003</ele>
        <time>2025-04-25T13:50:02Z</time>
      </trkpt>
      <trkpt lat="44.274335978552699" lon="2.180776996538043">
        <ele>526.94000000000005</ele>
        <time>2025-04-25T13:50:03Z</time>
      </trkpt>
      <trkpt lat="44.274227013811469" lon="2.180799962952733">
        <ele>525.01999999999998</ele>
        <time>2025-04-25T13:50:04Z</time>
      </trkpt>
      <trkpt lat="44.274098016321659" lon="2.180767022073269">
        <ele>522.61000000000001</ele>
        <time>2025-04-25T13:50:05Z</time>
      </trkpt>
      <trkpt lat="44.273934988304973" lon="2.18068496324122">
        <ele>520.69000000000005</ele>
        <time>2025-04-25T13:50:06Z</time>
      </trkpt>
      <trkpt lat="44.273786041885614" lon="2.18055403791368">
        <ele>518.28999999999996</ele>
        <time>2025-04-25T13:50:07Z</time>
      </trkpt>
      <trkpt lat="44.273122027516365" lon="2.179970992729068">
        <ele>508.19</ele>
        <time>2025-04-25T13:50:11Z</time>
      </trkpt>
      <trkpt lat="44.272948019206524" lon="2.179883988574147">
        <ele>505.79000000000002</ele>
        <time>2025-04-25T13:50:12Z</time>
      </trkpt>
      <trkpt lat="44.272765964269638" lon="2.179792961105704">
        <ele>502.91000000000003</ele>
        <time>2025-04-25T13:50:13Z</time>
      </trkpt>
      <trkpt lat="44.272419959306717" lon="2.179626999422908">
        <ele>498.57999999999998</ele>
        <time>2025-04-25T13:50:15Z</time>
      </trkpt>
      <trkpt lat="44.272241005674005" lon="2.179539995267987">
        <ele>496.66000000000003</ele>
        <time>2025-04-25T13:50:16Z</time>
      </trkpt>
      <trkpt lat="44.272132040932775" lon="2.179363975301385">
        <ele>494.74000000000001</ele>
        <time>2025-04-25T13:50:17Z</time>
      </trkpt>
      <trkpt lat="44.271901035681367" lon="2.17898896895349">
        <ele>490.88999999999999</ele>
        <time>2025-04-25T13:50:19Z</time>
      </trkpt>
      <trkpt lat="44.271790981292725" lon="2.178812026977539">
        <ele>488.97000000000003</ele>
        <time>2025-04-25T13:50:20Z</time>
      </trkpt>
      <trkpt lat="44.271634994074702" lon="2.178711025044322">
        <ele>487.52999999999997</ele>
        <time>2025-04-25T13:50:21Z</time>
      </trkpt>
      <trkpt lat="44.270930998027325" lon="2.178252032026649">
        <ele>483.68000000000001</ele>
        <time>2025-04-25T13:50:25Z</time>
      </trkpt>
      <trkpt lat="44.270781967788935" lon="2.178124040365219">
        <ele>482.72000000000003</ele>
        <time>2025-04-25T13:50:26Z</time>
      </trkpt>
      <trkpt lat="44.270690018311143" lon="2.177939973771572">
        <ele>482.24000000000001</ele>
        <time>2025-04-25T13:50:27Z</time>
      </trkpt>
      <trkpt lat="44.270400004461408" lon="2.17742096632719">
        <ele>481.27999999999997</ele>
        <time>2025-04-25T13:50:30Z</time>
      </trkpt>
      <trkpt lat="44.270288022235036" lon="2.177307978272438">
        <ele>481.27999999999997</ele>
        <time>2025-04-25T13:50:31Z</time>
      </trkpt>
      <trkpt lat="44.270147960633039" lon="2.177255004644394">
        <ele>481.75999999999999</ele>
        <time>2025-04-25T13:50:32Z</time>
      </trkpt>
      <trkpt lat="44.269993985071778" lon="2.177212005481124">
        <ele>482.24000000000001</ele>
        <time>2025-04-25T13:50:33Z</time>
      </trkpt>
      <trkpt lat="44.269832968711853" lon="2.177189039066434">
        <ele>482.72000000000003</ele>
        <time>2025-04-25T13:50:34Z</time>
      </trkpt>
      <trkpt lat="44.269668012857437" lon="2.177214017137885">
        <ele>483.19999999999999</ele>
        <time>2025-04-25T13:50:35Z</time>
      </trkpt>
      <trkpt lat="44.269496016204357" lon="2.177266990765929">
        <ele>483.19999999999999</ele>
        <time>2025-04-25T13:50:36Z</time>
      </trkpt>
      <trkpt lat="44.269337011501193" lon="2.177330022677779">
        <ele>482.72000000000003</ele>
        <time>2025-04-25T13:50:37Z</time>
      </trkpt>
      <trkpt lat="44.269181024283171" lon="2.177433036267757">
        <ele>482.24000000000001</ele>
        <time>2025-04-25T13:50:38Z</time>
      </trkpt>
      <trkpt lat="44.269031994044781" lon="2.177551975473762">
        <ele>481.75999999999999</ele>
        <time>2025-04-25T13:50:39Z</time>
      </trkpt>
      <trkpt lat="44.268882963806391" lon="2.177715003490448">
        <ele>482.24000000000001</ele>
        <time>2025-04-25T13:50:40Z</time>
      </trkpt>
      <trkpt lat="44.268755977973342" lon="2.177887000143528">
        <ele>482.72000000000003</ele>
        <time>2025-04-25T13:50:41Z</time>
      </trkpt>
      <trkpt lat="44.268638966605067" lon="2.178109958767891">
        <ele>483.68000000000001</ele>
        <time>2025-04-25T13:50:42Z</time>
      </trkpt>
      <trkpt lat="44.26853402517736" lon="2.178330989554524">
        <ele>484.63999999999999</ele>
        <time>2025-04-25T13:50:43Z</time>
      </trkpt>
      <trkpt lat="44.267930025234818" lon="2.179595986381173">
        <ele>493.76999999999998</ele>
        <time>2025-04-25T13:50:49Z</time>
      </trkpt>
      <trkpt lat="44.267843021079898" lon="2.179734958335757">
        <ele>494.74000000000001</ele>
        <time>2025-04-25T13:50:50Z</time>
      </trkpt>
      <trkpt lat="44.26772098056972" lon="2.179816011339426">
        <ele>496.18000000000001</ele>
        <time>2025-04-25T13:50:51Z</time>
      </trkpt>
      <trkpt lat="44.267586031928658" lon="2.179906032979488">
        <ele>497.13999999999999</ele>
        <time>2025-04-25T13:50:52Z</time>
      </trkpt>
      <trkpt lat="44.267446976155043" lon="2.179901003837585">
        <ele>498.10000000000002</ele>
        <time>2025-04-25T13:50:53Z</time>
      </trkpt>
      <trkpt lat="44.267314961180091" lon="2.179829003289342">
        <ele>499.06</ele>
        <time>2025-04-25T13:50:54Z</time>
      </trkpt>
      <trkpt lat="44.267173977568746" lon="2.179690031334758">
        <ele>500.01999999999998</ele>
        <time>2025-04-25T13:50:55Z</time>
      </trkpt>
      <trkpt lat="44.267078004777431" lon="2.179508982226253">
        <ele>501.45999999999998</ele>
        <time>2025-04-25T13:50:56Z</time>
      </trkpt>
      <trkpt lat="44.266972979530692" lon="2.179314019158483">
        <ele>502.91000000000003</ele>
        <time>2025-04-25T13:50:57Z</time>
      </trkpt>
      <trkpt lat="44.266866026446223" lon="2.17911402694881">
        <ele>503.87</ele>
        <time>2025-04-25T13:50:58Z</time>
      </trkpt>
      <trkpt lat="44.266762007027864" lon="2.178918980062008">
        <ele>505.31</ele>
        <time>2025-04-25T13:50:59Z</time>
      </trkpt>
      <trkpt lat="44.266639966517687" lon="2.178787970915437">
        <ele>506.75</ele>
        <time>2025-04-25T13:51:00Z</time>
      </trkpt>
      <trkpt lat="44.266449026763439" lon="2.178640030324459">
        <ele>508.19</ele>
        <time>2025-04-25T13:51:01Z</time>
      </trkpt>
      <trkpt lat="44.266334027051926" lon="2.178624020889401">
        <ele>509.63999999999999</ele>
        <time>2025-04-25T13:51:02Z</time>
      </trkpt>
      <trkpt lat="44.266175022348762" lon="2.178656961768866">
        <ele>510.60000000000002</ele>
        <time>2025-04-25T13:51:03Z</time>
      </trkpt>
      <trkpt lat="44.266013000160456" lon="2.178711025044322">
        <ele>512.03999999999996</ele>
        <time>2025-04-25T13:51:04Z</time>
      </trkpt>
      <trkpt lat="44.265874028205872" lon="2.1788589656353">
        <ele>513.96000000000004</ele>
        <time>2025-04-25T13:51:05Z</time>
      </trkpt>
      <trkpt lat="44.265732038766146" lon="2.179010007530451">
        <ele>515.88</ele>
        <time>2025-04-25T13:51:06Z</time>
      </trkpt>
      <trkpt lat="44.265600023791194" lon="2.179192984476686">
        <ele>517.33000000000004</ele>
        <time>2025-04-25T13:51:07Z</time>
      </trkpt>
      <trkpt lat="44.264960987493396" lon="2.180214989930391">
        <ele>525.98000000000002</ele>
        <time>2025-04-25T13:51:12Z</time>
      </trkpt>
      <trkpt lat="44.264805000275373" lon="2.180356979370117">
        <ele>526.94000000000005</ele>
        <time>2025-04-25T13:51:13Z</time>
      </trkpt>
      <trkpt lat="44.264643983915448" lon="2.180471979081631">
        <ele>528.38</ele>
        <time>2025-04-25T13:51:14Z</time>
      </trkpt>
      <trkpt lat="44.264453966170549" lon="2.180505003780127">
        <ele>529.82000000000005</ele>
        <time>2025-04-25T13:51:15Z</time>
      </trkpt>
      <trkpt lat="44.264252968132496" lon="2.180526964366436">
        <ele>531.26999999999998</ele>
        <time>2025-04-25T13:51:16Z</time>
      </trkpt>
      <trkpt lat="44.264061022549868" lon="2.180548002943397">
        <ele>532.23000000000002</ele>
        <time>2025-04-25T13:51:17Z</time>
      </trkpt>
      <trkpt lat="44.263887014240026" lon="2.180628972128034">
        <ele>533.19000000000005</ele>
        <time>2025-04-25T13:51:18Z</time>
      </trkpt>
      <trkpt lat="44.263712000101805" lon="2.180736009031534">
        <ele>533.66999999999996</ele>
        <time>2025-04-25T13:51:19Z</time>
      </trkpt>
      <trkpt lat="44.263546038419008" lon="2.180896019563079">
        <ele>535.11000000000001</ele>
        <time>2025-04-25T13:51:20Z</time>
      </trkpt>
      <trkpt lat="44.263393990695477" lon="2.181086959317327">
        <ele>536.54999999999995</ele>
        <time>2025-04-25T13:51:21Z</time>
      </trkpt>
      <trkpt lat="44.262124970555305" lon="2.182901976630092">
        <ele>552.40999999999997</ele>
        <time>2025-04-25T13:51:30Z</time>
      </trkpt>
      <trkpt lat="44.261761028319597" lon="2.183386031538248">
        <ele>556.74000000000001</ele>
        <time>2025-04-25T13:51:33Z</time>
      </trkpt>
      <trkpt lat="44.261604035273194" lon="2.183484015986323">
        <ele>557.70000000000005</ele>
        <time>2025-04-25T13:51:34Z</time>
      </trkpt>
      <trkpt lat="44.261432038620114" lon="2.183577977120876">
        <ele>558.17999999999995</ele>
        <time>2025-04-25T13:51:35Z</time>
      </trkpt>
      <trkpt lat="44.26028598099947" lon="2.184151969850063">
        <ele>563.47000000000003</ele>
        <time>2025-04-25T13:51:41Z</time>
      </trkpt>
      <trkpt lat="44.260096969082952" lon="2.184305023401976">
        <ele>564.42999999999995</ele>
        <time>2025-04-25T13:51:42Z</time>
      </trkpt>
      <trkpt lat="44.259945005178452" lon="2.184493029490113">
        <ele>564.90999999999997</ele>
        <time>2025-04-25T13:51:43Z</time>
      </trkpt>
      <trkpt lat="44.258431987836957" lon="2.186566963791847">
        <ele>565.87</ele>
        <time>2025-04-25T13:51:52Z</time>
      </trkpt>
      <trkpt lat="44.257454993203282" lon="2.187971016392112">
        <ele>565.87</ele>
        <time>2025-04-25T13:51:58Z</time>
      </trkpt>
      <trkpt lat="44.257270004600286" lon="2.188109988346696">
        <ele>565.87</ele>
        <time>2025-04-25T13:51:59Z</time>
      </trkpt>
      <trkpt lat="44.257085015997291" lon="2.188248038291931">
        <ele>565.87</ele>
        <time>2025-04-25T13:52:00Z</time>
      </trkpt>
      <trkpt lat="44.256887035444379" lon="2.188374018296599">
        <ele>565.87</ele>
        <time>2025-04-25T13:52:01Z</time>
      </trkpt>
      <trkpt lat="44.256677990779281" lon="2.188468985259533">
        <ele>566.35000000000002</ele>
        <time>2025-04-25T13:52:02Z</time>
      </trkpt>
      <trkpt lat="44.256255961954594" lon="2.188661014661193">
        <ele>565.87</ele>
        <time>2025-04-25T13:52:04Z</time>
      </trkpt>
      <trkpt lat="44.256093017756939" lon="2.188796969130635">
        <ele>565.38999999999999</ele>
        <time>2025-04-25T13:52:05Z</time>
      </trkpt>
      <trkpt lat="44.255389021709561" lon="2.189442040398717">
        <ele>565.38999999999999</ele>
        <time>2025-04-25T13:52:10Z</time>
      </trkpt>
      <trkpt lat="44.2552799731493" lon="2.18955704011023">
        <ele>565.38999999999999</ele>
        <time>2025-04-25T13:52:11Z</time>
      </trkpt>
      <trkpt lat="44.255189029499888" lon="2.189695006236434">
        <ele>565.87</ele>
        <time>2025-04-25T13:52:12Z</time>
      </trkpt>
      <trkpt lat="44.25510797649622" lon="2.189819980412722">
        <ele>565.87</ele>
        <time>2025-04-25T13:52:13Z</time>
      </trkpt>
      <trkpt lat="44.255032036453485" lon="2.189935985952616">
        <ele>565.87</ele>
        <time>2025-04-25T13:52:14Z</time>
      </trkpt>
      <trkpt lat="44.254448991268873" lon="2.190665965899825">
        <ele>567.32000000000005</ele>
        <time>2025-04-25T13:52:21Z</time>
      </trkpt>
      <trkpt lat="44.254368022084236" lon="2.190730003640056">
        <ele>567.79999999999995</ele>
        <time>2025-04-25T13:52:22Z</time>
      </trkpt>
      <trkpt lat="44.254279006272554" lon="2.190765962004662">
        <ele>567.32000000000005</ele>
        <time>2025-04-25T13:52:23Z</time>
      </trkpt>
      <trkpt lat="44.254184039309621" lon="2.190768979489803">
        <ele>566.83000000000004</ele>
        <time>2025-04-25T13:52:24Z</time>
      </trkpt>
      <trkpt lat="44.254084965214133" lon="2.190773002803326">
        <ele>566.35000000000002</ele>
        <time>2025-04-25T13:52:25Z</time>
      </trkpt>
      <trkpt lat="44.253686992451549" lon="2.190788006410003">
        <ele>564.42999999999995</ele>
        <time>2025-04-25T13:52:29Z</time>
      </trkpt>
      <trkpt lat="44.252849975600839" lon="2.190822958946228">
        <ele>561.54999999999995</ele>
        <time>2025-04-25T13:52:35Z</time>
      </trkpt>
      <trkpt lat="44.251037975773215" lon="2.190716005861759">
        <ele>559.62</ele>
        <time>2025-04-25T13:52:44Z</time>
      </trkpt>
      <trkpt lat="44.248117972165346" lon="2.190362038090825">
        <ele>565.38999999999999</ele>
        <time>2025-04-25T13:52:57Z</time>
      </trkpt>
      <trkpt lat="44.246076978743076" lon="2.18981402926147">
        <ele>557.22000000000003</ele>
        <time>2025-04-25T13:53:06Z</time>
      </trkpt>
      <trkpt lat="44.24586902372539" lon="2.189675979316235">
        <ele>556.25999999999999</ele>
        <time>2025-04-25T13:53:07Z</time>
      </trkpt>
      <trkpt lat="44.245670959353447" lon="2.189522003754973">
        <ele>554.82000000000005</ele>
        <time>2025-04-25T13:53:08Z</time>
      </trkpt>
      <trkpt lat="44.244893034920096" lon="2.188948011025786">
        <ele>550.97000000000003</ele>
        <time>2025-04-25T13:53:12Z</time>
      </trkpt>
      <trkpt lat="44.244680972769856" lon="2.188858995214105">
        <ele>550.49000000000001</ele>
        <time>2025-04-25T13:53:13Z</time>
      </trkpt>
      <trkpt lat="44.244463965296745" lon="2.188767967745662">
        <ele>550.00999999999999</ele>
        <time>2025-04-25T13:53:14Z</time>
      </trkpt>
      <trkpt lat="44.243646981194615" lon="2.188598988577724">
        <ele>547.61000000000001</ele>
        <time>2025-04-25T13:53:18Z</time>
      </trkpt>
      <trkpt lat="44.243449000641704" lon="2.188635030761361">
        <ele>547.13</ele>
        <time>2025-04-25T13:53:19Z</time>
      </trkpt>
      <trkpt lat="44.243242973461747" lon="2.188694039359689">
        <ele>546.16999999999996</ele>
        <time>2025-04-25T13:53:20Z</time>
      </trkpt>
      <trkpt lat="44.242163971066475" lon="2.189052030444145">
        <ele>544.24000000000001</ele>
        <time>2025-04-25T13:53:25Z</time>
      </trkpt>
      <trkpt lat="44.241943024098873" lon="2.189101986587048">
        <ele>544.24000000000001</ele>
        <time>2025-04-25T13:53:26Z</time>
      </trkpt>
      <trkpt lat="44.24107801169157" lon="2.189058987423778">
        <ele>542.32000000000005</ele>
        <time>2025-04-25T13:53:30Z</time>
      </trkpt>
      <trkpt lat="44.240890005603433" lon="2.189189996570349">
        <ele>541.36000000000001</ele>
        <time>2025-04-25T13:53:31Z</time>
      </trkpt>
      <trkpt lat="44.240725971758366" lon="2.189342966303229">
        <ele>540.88</ele>
        <time>2025-04-25T13:53:32Z</time>
      </trkpt>
      <trkpt lat="44.240552969276905" lon="2.189502976834774">
        <ele>539.91999999999996</ele>
        <time>2025-04-25T13:53:33Z</time>
      </trkpt>
      <trkpt lat="44.240376027300954" lon="2.189667010679841">
        <ele>538.96000000000004</ele>
        <time>2025-04-25T13:53:34Z</time>
      </trkpt>
      <trkpt lat="44.239880992099643" lon="2.190126003697515">
        <ele>536.07000000000005</ele>
        <time>2025-04-25T13:53:37Z</time>
      </trkpt>
      <trkpt lat="44.239702960476279" lon="2.190203033387661">
        <ele>534.63</ele>
        <time>2025-04-25T13:53:38Z</time>
      </trkpt>
      <trkpt lat="44.239524006843567" lon="2.19024502672255">
        <ele>533.19000000000005</ele>
        <time>2025-04-25T13:53:39Z</time>
      </trkpt>
      <trkpt lat="44.239352010190487" lon="2.190200015902519">
        <ele>532.23000000000002</ele>
        <time>2025-04-25T13:53:40Z</time>
      </trkpt>
      <trkpt lat="44.239164004102349" lon="2.190150981768966">
        <ele>530.78999999999996</ele>
        <time>2025-04-25T13:53:41Z</time>
      </trkpt>
      <trkpt lat="44.238969041034579" lon="2.19013798981905">
        <ele>529.82000000000005</ele>
        <time>2025-04-25T13:53:42Z</time>
      </trkpt>
      <trkpt lat="44.2387780174613" lon="2.190186018124223">
        <ele>528.38</ele>
        <time>2025-04-25T13:53:43Z</time>
      </trkpt>
      <trkpt lat="44.238580958917737" lon="2.19024502672255">
        <ele>526.46000000000004</ele>
        <time>2025-04-25T13:53:44Z</time>
      </trkpt>
      <trkpt lat="44.237845027819276" lon="2.190414005890489">
        <ele>521.16999999999996</ele>
        <time>2025-04-25T13:53:48Z</time>
      </trkpt>
      <trkpt lat="44.237686023116112" lon="2.19052598811686">
        <ele>519.73000000000002</ele>
        <time>2025-04-25T13:53:49Z</time>
      </trkpt>
      <trkpt lat="44.237526012584567" lon="2.190639981999993">
        <ele>518.76999999999998</ele>
        <time>2025-04-25T13:53:50Z</time>
      </trkpt>
      <trkpt lat="44.237100966274738" lon="2.191043989732862">
        <ele>514.91999999999996</ele>
        <time>2025-04-25T13:53:53Z</time>
      </trkpt>
      <trkpt lat="44.236989989876747" lon="2.19121104106307">
        <ele>513.48000000000002</ele>
        <time>2025-04-25T13:53:54Z</time>
      </trkpt>
      <trkpt lat="44.236886976286769" lon="2.191398041322827">
        <ele>512.03999999999996</ele>
        <time>2025-04-25T13:53:55Z</time>
      </trkpt>
      <trkpt lat="44.236824028193951" lon="2.191631980240345">
        <ele>510.12</ele>
        <time>2025-04-25T13:53:56Z</time>
      </trkpt>
      <trkpt lat="44.236757978796959" lon="2.191876983270049">
        <ele>508.67000000000002</ele>
        <time>2025-04-25T13:53:57Z</time>
      </trkpt>
      <trkpt lat="44.236624035984278" lon="2.192379981279373">
        <ele>505.79000000000002</ele>
        <time>2025-04-25T13:53:59Z</time>
      </trkpt>
      <trkpt lat="44.236579025164247" lon="2.192545020952821">
        <ele>504.35000000000002</ele>
        <time>2025-04-25T13:54:00Z</time>
      </trkpt>
      <trkpt lat="44.236480034887791" lon="2.19280100427568">
        <ele>502.91000000000003</ele>
        <time>2025-04-25T13:54:01Z</time>
      </trkpt>
      <trkpt lat="44.236428989097476" lon="2.19293100759387">
        <ele>501.45999999999998</ele>
        <time>2025-04-25T13:54:02Z</time>
      </trkpt>
      <trkpt lat="44.236324969679117" lon="2.193013988435268">
        <ele>500.01999999999998</ele>
        <time>2025-04-25T13:54:03Z</time>
      </trkpt>
      <trkpt lat="44.236249029636383" lon="2.193035027012229">
        <ele>498.57999999999998</ele>
        <time>2025-04-25T13:54:04Z</time>
      </trkpt>
      <trkpt lat="44.236142998561263" lon="2.1930589992553">
        <ele>497.13999999999999</ele>
        <time>2025-04-25T13:54:05Z</time>
      </trkpt>
      <trkpt lat="44.235978964716196" lon="2.193033015355468">
        <ele>495.69999999999999</ele>
        <time>2025-04-25T13:54:06Z</time>
      </trkpt>
      <trkpt lat="44.235818032175303" lon="2.193008037284017">
        <ele>494.25999999999999</ele>
        <time>2025-04-25T13:54:07Z</time>
      </trkpt>
      <trkpt lat="44.235669001936913" lon="2.192983981221914">
        <ele>492.32999999999998</ele>
        <time>2025-04-25T13:54:08Z</time>
      </trkpt>
      <trkpt lat="44.235529024153948" lon="2.192962020635605">
        <ele>490.88999999999999</ele>
        <time>2025-04-25T13:54:09Z</time>
      </trkpt>
      <trkpt lat="44.235389968380332" lon="2.192939976230264">
        <ele>488.97000000000003</ele>
        <time>2025-04-25T13:54:10Z</time>
      </trkpt>
      <trkpt lat="44.235236998647451" lon="2.192971995100379">
        <ele>487.05000000000001</ele>
        <time>2025-04-25T13:54:11Z</time>
      </trkpt>
      <trkpt lat="44.235100960358977" lon="2.193029997870326">
        <ele>484.63999999999999</ele>
        <time>2025-04-25T13:54:12Z</time>
      </trkpt>
      <trkpt lat="44.234927035868168" lon="2.19310300424695">
        <ele>481.75999999999999</ele>
        <time>2025-04-25T13:54:13Z</time>
      </trkpt>
      <trkpt lat="44.234856963157654" lon="2.193193025887013">
        <ele>479.35000000000002</ele>
        <time>2025-04-25T13:54:14Z</time>
      </trkpt>
      <trkpt lat="44.234757972881198" lon="2.193344989791513">
        <ele>476.94999999999999</ele>
        <time>2025-04-25T13:54:15Z</time>
      </trkpt>
      <trkpt lat="44.234691001474857" lon="2.193512041121721">
        <ele>474.55000000000001</ele>
        <time>2025-04-25T13:54:16Z</time>
      </trkpt>
      <trkpt lat="44.234650013968349" lon="2.193690994754434">
        <ele>472.63</ele>
        <time>2025-04-25T13:54:17Z</time>
      </trkpt>
      <trkpt lat="44.234606008976698" lon="2.193886041641235">
        <ele>470.69999999999999</ele>
        <time>2025-04-25T13:54:18Z</time>
      </trkpt>
      <trkpt lat="44.234560998156667" lon="2.194084022194147">
        <ele>468.77999999999997</ele>
        <time>2025-04-25T13:54:19Z</time>
      </trkpt>
      <trkpt lat="44.234520010650158" lon="2.194265993312001">
        <ele>466.86000000000001</ele>
        <time>2025-04-25T13:54:20Z</time>
      </trkpt>
      <trkpt lat="44.234485980123281" lon="2.194411000236869">
        <ele>464.93000000000001</ele>
        <time>2025-04-25T13:54:21Z</time>
      </trkpt>
      <trkpt lat="44.234420014545321" lon="2.194518037140369">
        <ele>463.00999999999999</ele>
        <time>2025-04-25T13:54:22Z</time>
      </trkpt>
      <trkpt lat="44.234305014833808" lon="2.19464804045856">
        <ele>461.08999999999997</ele>
        <time>2025-04-25T13:54:23Z</time>
      </trkpt>
      <trkpt lat="44.234237037599087" lon="2.194666983559728">
        <ele>459.64999999999998</ele>
        <time>2025-04-25T13:54:24Z</time>
      </trkpt>
      <trkpt lat="44.234097981825471" lon="2.194677963852882">
        <ele>457.72000000000003</ele>
        <time>2025-04-25T13:54:25Z</time>
      </trkpt>
      <trkpt lat="44.2339669726789" lon="2.194648962467909">
        <ele>456.27999999999997</ele>
        <time>2025-04-25T13:54:26Z</time>
      </trkpt>
      <trkpt lat="44.233688022941351" lon="2.194531029090285">
        <ele>453.88</ele>
        <time>2025-04-25T13:54:28Z</time>
      </trkpt>
      <trkpt lat="44.233504040166736" lon="2.194441007450223">
        <ele>452.92000000000002</ele>
        <time>2025-04-25T13:54:29Z</time>
      </trkpt>
      <trkpt lat="44.23342902213335" lon="2.194303041324019">
        <ele>451.95999999999998</ele>
        <time>2025-04-25T13:54:30Z</time>
      </trkpt>
      <trkpt lat="44.233346963301301" lon="2.194150993600488">
        <ele>451.48000000000002</ele>
        <time>2025-04-25T13:54:31Z</time>
      </trkpt>
      <trkpt lat="44.233249984681606" lon="2.193971034139395">
        <ele>450.51999999999998</ele>
        <time>2025-04-25T13:54:32Z</time>
      </trkpt>
      <trkpt lat="44.233152000233531" lon="2.19378998503089">
        <ele>449.55000000000001</ele>
        <time>2025-04-25T13:54:33Z</time>
      </trkpt>
      <trkpt lat="44.233072958886623" lon="2.193653024733067">
        <ele>448.58999999999997</ele>
        <time>2025-04-25T13:54:34Z</time>
      </trkpt>
      <trkpt lat="44.232953013852239" lon="2.19355302862823">
        <ele>448.11000000000001</ele>
        <time>2025-04-25T13:54:35Z</time>
      </trkpt>
      <trkpt lat="44.232811024412513" lon="2.193527966737747">
        <ele>447.63</ele>
        <time>2025-04-25T13:54:36Z</time>
      </trkpt>
      <trkpt lat="44.232683032751083" lon="2.193524027243257">
        <ele>447.14999999999998</ele>
        <time>2025-04-25T13:54:37Z</time>
      </trkpt>
      <trkpt lat="44.232501983642578" lon="2.1935960277915">
        <ele>446.67000000000002</ele>
        <time>2025-04-25T13:54:38Z</time>
      </trkpt>
      <trkpt lat="44.232411962002516" lon="2.193710021674633">
        <ele>446.67000000000002</ele>
        <time>2025-04-25T13:54:39Z</time>
      </trkpt>
      <trkpt lat="44.232282964512706" lon="2.193882018327713">
        <ele>446.67000000000002</ele>
        <time>2025-04-25T13:54:40Z</time>
      </trkpt>
      <trkpt lat="44.23216100782156" lon="2.194064995273948">
        <ele>446.19</ele>
        <time>2025-04-25T13:54:41Z</time>
      </trkpt>
      <trkpt lat="44.231937965378165" lon="2.194400019943714">
        <ele>445.23000000000002</ele>
        <time>2025-04-25T13:54:43Z</time>
      </trkpt>
      <trkpt lat="44.231859007850289" lon="2.194518959149718">
        <ele>445.23000000000002</ele>
        <time>2025-04-25T13:54:44Z</time>
      </trkpt>
      <trkpt lat="44.231692040339112" lon="2.19456396996975">
        <ele>444.75</ele>
        <time>2025-04-25T13:54:45Z</time>
      </trkpt>
      <trkpt lat="44.231548961251974" lon="2.194573022425175">
        <ele>443.79000000000002</ele>
        <time>2025-04-25T13:54:46Z</time>
      </trkpt>
      <trkpt lat="44.231390040367842" lon="2.194549972191453">
        <ele>443.31</ele>
        <time>2025-04-25T13:54:47Z</time>
      </trkpt>
      <trkpt lat="44.231214020401239" lon="2.194532034918666">
        <ele>442.33999999999997</ele>
        <time>2025-04-25T13:54:48Z</time>
      </trkpt>
      <trkpt lat="44.231034982949495" lon="2.194517031311989">
        <ele>441.86000000000001</ele>
        <time>2025-04-25T13:54:49Z</time>
      </trkpt>
      <trkpt lat="44.230806995183229" lon="2.194498004391789">
        <ele>441.86000000000001</ele>
        <time>2025-04-25T13:54:50Z</time>
      </trkpt>
      <trkpt lat="44.230648996308446" lon="2.194567993283272">
        <ele>442.33999999999997</ele>
        <time>2025-04-25T13:54:51Z</time>
      </trkpt>
      <trkpt lat="44.230470964685082" lon="2.19464804045856">
        <ele>443.31</ele>
        <time>2025-04-25T13:54:52Z</time>
      </trkpt>
      <trkpt lat="44.230112973600626" lon="2.194808972999454">
        <ele>445.23000000000002</ele>
        <time>2025-04-25T13:54:54Z</time>
      </trkpt>
      <trkpt lat="44.229940976947546" lon="2.194887008517981">
        <ele>446.19</ele>
        <time>2025-04-25T13:54:55Z</time>
      </trkpt>
      <trkpt lat="44.229634031653404" lon="2.195024974644184">
        <ele>446.67000000000002</ele>
        <time>2025-04-25T13:54:57Z</time>
      </trkpt>
      <trkpt lat="44.229504028335214" lon="2.195117007941008">
        <ele>447.14999999999998</ele>
        <time>2025-04-25T13:54:58Z</time>
      </trkpt>
      <trkpt lat="44.229444013908505" lon="2.195266038179398">
        <ele>447.63</ele>
        <time>2025-04-25T13:54:59Z</time>
      </trkpt>
      <trkpt lat="44.229385005310178" lon="2.195434011518955">
        <ele>449.06999999999999</ele>
        <time>2025-04-25T13:55:00Z</time>
      </trkpt>
      <trkpt lat="44.229351980611682" lon="2.195621011778712">
        <ele>450.02999999999997</ele>
        <time>2025-04-25T13:55:01Z</time>
      </trkpt>
      <trkpt lat="44.229317028075457" lon="2.195826033130288">
        <ele>451.48000000000002</ele>
        <time>2025-04-25T13:55:02Z</time>
      </trkpt>
      <trkpt lat="44.229278974235058" lon="2.196042034775019">
        <ele>452.44</ele>
        <time>2025-04-25T13:55:03Z</time>
      </trkpt>
      <trkpt lat="44.229203034192324" lon="2.196413017809391">
        <ele>454.83999999999997</ele>
        <time>2025-04-25T13:55:05Z</time>
      </trkpt>
      <trkpt lat="44.229115024209023" lon="2.19656397588551">
        <ele>455.80000000000001</ele>
        <time>2025-04-25T13:55:06Z</time>
      </trkpt>
      <trkpt lat="44.229017961770296" lon="2.196694985032082">
        <ele>456.75999999999999</ele>
        <time>2025-04-25T13:55:07Z</time>
      </trkpt>
      <trkpt lat="44.228884018957615" lon="2.196784000843763">
        <ele>457.72000000000003</ele>
        <time>2025-04-25T13:55:08Z</time>
      </trkpt>
      <trkpt lat="44.228718979284167" lon="2.196854995563626">
        <ele>458.69</ele>
        <time>2025-04-25T13:55:09Z</time>
      </trkpt>
      <trkpt lat="44.228511024266481" lon="2.196944011375308">
        <ele>459.64999999999998</ele>
        <time>2025-04-25T13:55:10Z</time>
      </trkpt>
      <trkpt lat="44.228345984593034" lon="2.196977036073804">
        <ele>460.61000000000001</ele>
        <time>2025-04-25T13:55:11Z</time>
      </trkpt>
      <trkpt lat="44.228154961019754" lon="2.197015006095171">
        <ele>461.08999999999997</ele>
        <time>2025-04-25T13:55:12Z</time>
      </trkpt>
      <trkpt lat="44.227760005742311" lon="2.197093963623047">
        <ele>461.56999999999999</ele>
        <time>2025-04-25T13:55:14Z</time>
      </trkpt>
      <trkpt lat="44.22762799076736" lon="2.19716596417129">
        <ele>462.52999999999997</ele>
        <time>2025-04-25T13:55:15Z</time>
      </trkpt>
      <trkpt lat="44.227458005771041" lon="2.197281969711185">
        <ele>463.00999999999999</ele>
        <time>2025-04-25T13:55:16Z</time>
      </trkpt>
      <trkpt lat="44.226615959778428" lon="2.197965011000633">
        <ele>468.77999999999997</ele>
        <time>2025-04-25T13:55:21Z</time>
      </trkpt>
      <trkpt lat="44.226141041144729" lon="2.198266005143523">
        <ele>471.66000000000003</ele>
        <time>2025-04-25T13:55:24Z</time>
      </trkpt>
      <trkpt lat="44.226014977321029" lon="2.19843196682632">
        <ele>473.11000000000001</ele>
        <time>2025-04-25T13:55:25Z</time>
      </trkpt>
      <trkpt lat="44.225896038115025" lon="2.198598012328148">
        <ele>474.06999999999999</ele>
        <time>2025-04-25T13:55:26Z</time>
      </trkpt>
      <trkpt lat="44.22578196041286" lon="2.198804039508104">
        <ele>475.50999999999999</ele>
        <time>2025-04-25T13:55:27Z</time>
      </trkpt>
      <trkpt lat="44.225678024813533" lon="2.199019035324454">
        <ele>476.94999999999999</ele>
        <time>2025-04-25T13:55:28Z</time>
      </trkpt>
      <trkpt lat="44.225483983755112" lon="2.199480962008238">
        <ele>479.83999999999997</ele>
        <time>2025-04-25T13:55:30Z</time>
      </trkpt>
      <trkpt lat="44.225130015984178" lon="2.200458040460944">
        <ele>484.16000000000003</ele>
        <time>2025-04-25T13:55:34Z</time>
      </trkpt>
      <trkpt lat="44.225013004615903" lon="2.20066498965025">
        <ele>484.63999999999999</ele>
        <time>2025-04-25T13:55:35Z</time>
      </trkpt>
      <trkpt lat="44.224896999076009" lon="2.20085802488029">
        <ele>485.12</ele>
        <time>2025-04-25T13:55:36Z</time>
      </trkpt>
      <trkpt lat="44.224745035171509" lon="2.20105298794806">
        <ele>485.12</ele>
        <time>2025-04-25T13:55:37Z</time>
      </trkpt>
      <trkpt lat="44.224547976627946" lon="2.201120965182781">
        <ele>485.60000000000002</ele>
        <time>2025-04-25T13:55:38Z</time>
      </trkpt>
      <trkpt lat="44.224354019388556" lon="2.201168993487954">
        <ele>485.60000000000002</ele>
        <time>2025-04-25T13:55:39Z</time>
      </trkpt>
      <trkpt lat="44.224159978330135" lon="2.201218027621508">
        <ele>486.56</ele>
        <time>2025-04-25T13:55:40Z</time>
      </trkpt>
      <trkpt lat="44.223963003605604" lon="2.201266977936029">
        <ele>487.05000000000001</ele>
        <time>2025-04-25T13:55:41Z</time>
      </trkpt>
      <trkpt lat="44.223768962547183" lon="2.201325986534357">
        <ele>488.49000000000001</ele>
        <time>2025-04-25T13:55:42Z</time>
      </trkpt>
      <trkpt lat="44.223581962287426" lon="2.201404022052884">
        <ele>489.44999999999999</ele>
        <time>2025-04-25T13:55:43Z</time>
      </trkpt>
      <trkpt lat="44.222225015982985" lon="2.201915988698602">
        <ele>501.45999999999998</ele>
        <time>2025-04-25T13:55:50Z</time>
      </trkpt>
      <trkpt lat="44.221222037449479" lon="2.20212796702981">
        <ele>514.91999999999996</ele>
        <time>2025-04-25T13:55:56Z</time>
      </trkpt>
      <trkpt lat="44.221122963353992" lon="2.202221006155014">
        <ele>516.37</ele>
        <time>2025-04-25T13:55:57Z</time>
      </trkpt>
      <trkpt lat="44.221025984734297" lon="2.202335000038147">
        <ele>517.80999999999995</ele>
        <time>2025-04-25T13:55:58Z</time>
      </trkpt>
      <trkpt lat="44.220937974750996" lon="2.202438013628125">
        <ele>518.76999999999998</ele>
        <time>2025-04-25T13:55:59Z</time>
      </trkpt>
      <trkpt lat="44.220849964767694" lon="2.202540021389723">
        <ele>519.73000000000002</ele>
        <time>2025-04-25T13:56:00Z</time>
      </trkpt>
      <trkpt lat="44.220764972269535" lon="2.20264102332294">
        <ele>520.69000000000005</ele>
        <time>2025-04-25T13:56:01Z</time>
      </trkpt>
      <trkpt lat="44.220686014741659" lon="2.202732972800732">
        <ele>521.64999999999998</ele>
        <time>2025-04-25T13:56:02Z</time>
      </trkpt>
      <trkpt lat="44.220613008365035" lon="2.202819976955652">
        <ele>522.13</ele>
        <time>2025-04-25T13:56:03Z</time>
      </trkpt>
      <trkpt lat="44.220546958968043" lon="2.202897006645799">
        <ele>522.61000000000001</ele>
        <time>2025-04-25T13:56:04Z</time>
      </trkpt>
      <trkpt lat="44.220486022531986" lon="2.202969007194042">
        <ele>523.58000000000004</ele>
        <time>2025-04-25T13:56:05Z</time>
      </trkpt>
      <trkpt lat="44.220335986465216" lon="2.203145027160645">
        <ele>525.5</ele>
        <time>2025-04-25T13:56:09Z</time>
      </trkpt>
      <trkpt lat="44.220335986465216" lon="2.203145027160645">
        <ele>525.5</ele>
        <time>2025-04-25T13:56:10Z</time>
      </trkpt>
      <trkpt lat="44.220153009518981" lon="2.203711979091167">
        <ele>528.38</ele>
        <time>2025-04-25T13:56:17Z</time>
      </trkpt>
      <trkpt lat="44.220046978443861" lon="2.204073993489146">
        <ele>528.38</ele>
        <time>2025-04-25T13:56:20Z</time>
      </trkpt>
      <trkpt lat="44.219887973740697" lon="2.20442502759397">
        <ele>528.38</ele>
        <time>2025-04-25T13:56:23Z</time>
      </trkpt>
      <trkpt lat="44.219373995438218" lon="2.205234970897436">
        <ele>525.98000000000002</ele>
        <time>2025-04-25T13:56:31Z</time>
      </trkpt>
      <trkpt lat="44.219311969354749" lon="2.205333039164543">
        <ele>525.98000000000002</ele>
        <time>2025-04-25T13:56:32Z</time>
      </trkpt>
      <trkpt lat="44.218751974403858" lon="2.206149017438293">
        <ele>522.61000000000001</ele>
        <time>2025-04-25T13:56:39Z</time>
      </trkpt>
      <trkpt lat="44.217931972816586" lon="2.207273030653596">
        <ele>514.91999999999996</ele>
        <time>2025-04-25T13:56:49Z</time>
      </trkpt>
      <trkpt lat="44.21783197671175" lon="2.207378977909684">
        <ele>514.44000000000005</ele>
        <time>2025-04-25T13:56:50Z</time>
      </trkpt>
      <trkpt lat="44.217184977605939" lon="2.207873007282615">
        <ele>512.03999999999996</ele>
        <time>2025-04-25T13:56:56Z</time>
      </trkpt>
      <trkpt lat="44.217065032571554" lon="2.207918018102646">
        <ele>511.56</ele>
        <time>2025-04-25T13:56:57Z</time>
      </trkpt>
      <trkpt lat="44.216953972354531" lon="2.207961017265916">
        <ele>511.07999999999998</ele>
        <time>2025-04-25T13:56:58Z</time>
      </trkpt>
      <trkpt lat="44.216726990416646" lon="2.208047015592456">
        <ele>510.60000000000002</ele>
        <time>2025-04-25T13:57:00Z</time>
      </trkpt>
      <trkpt lat="44.216618025675416" lon="2.208089008927345">
        <ele>509.63999999999999</ele>
        <time>2025-04-25T13:57:01Z</time>
      </trkpt>
      <trkpt lat="44.216028023511171" lon="2.208312973380089">
        <ele>505.79000000000002</ele>
        <time>2025-04-25T13:57:06Z</time>
      </trkpt>
      <trkpt lat="44.21544598415494" lon="2.208526041358709">
        <ele>501.94999999999999</ele>
        <time>2025-04-25T13:57:11Z</time>
      </trkpt>
      <trkpt lat="44.215335007756948" lon="2.208568034693599">
        <ele>500.98000000000002</ele>
        <time>2025-04-25T13:57:12Z</time>
      </trkpt>
      <trkpt lat="44.215220008045435" lon="2.208612039685249">
        <ele>500.01999999999998</ele>
        <time>2025-04-25T13:57:13Z</time>
      </trkpt>
      <trkpt lat="44.214067999273539" lon="2.209016969427466">
        <ele>496.18000000000001</ele>
        <time>2025-04-25T13:57:21Z</time>
      </trkpt>
      <trkpt lat="44.213907988741994" lon="2.209072038531303">
        <ele>495.69999999999999</ele>
        <time>2025-04-25T13:57:22Z</time>
      </trkpt>
      <trkpt lat="44.213742027059197" lon="2.209130041301251">
        <ele>495.22000000000003</ele>
        <time>2025-04-25T13:57:23Z</time>
      </trkpt>
      <trkpt lat="44.211501963436604" lon="2.20994995906949">
        <ele>486.56</ele>
        <time>2025-04-25T13:57:34Z</time>
      </trkpt>
      <trkpt lat="44.209797000512481" lon="2.210974982008338">
        <ele>478.38999999999999</ele>
        <time>2025-04-25T13:57:43Z</time>
      </trkpt>
      <trkpt lat="44.209594996646047" lon="2.21104396507144">
        <ele>477.43000000000001</ele>
        <time>2025-04-25T13:57:44Z</time>
      </trkpt>
      <trkpt lat="44.20805599540472" lon="2.211311012506485">
        <ele>470.22000000000003</ele>
        <time>2025-04-25T13:57:51Z</time>
      </trkpt>
      <trkpt lat="44.20633896254003" lon="2.211529025807977">
        <ele>462.52999999999997</ele>
        <time>2025-04-25T13:57:59Z</time>
      </trkpt>
      <trkpt lat="44.20592799782753" lon="2.211454007774591">
        <ele>461.08999999999997</ele>
        <time>2025-04-25T13:58:01Z</time>
      </trkpt>
      <trkpt lat="44.203769993036985" lon="2.210890995338559">
        <ele>457.72000000000003</ele>
        <time>2025-04-25T13:58:11Z</time>
      </trkpt>
      <trkpt lat="44.20199797488749" lon="2.211052011698484">
        <ele>452.92000000000002</ele>
        <time>2025-04-25T13:58:19Z</time>
      </trkpt>
      <trkpt lat="44.201808040961623" lon="2.211161982268095">
        <ele>452.44</ele>
        <time>2025-04-25T13:58:20Z</time>
      </trkpt>
      <trkpt lat="44.201615005731583" lon="2.21130003221333">
        <ele>451.48000000000002</ele>
        <time>2025-04-25T13:58:21Z</time>
      </trkpt>
      <trkpt lat="44.201420964673162" lon="2.211439004167914">
        <ele>450.51999999999998</ele>
        <time>2025-04-25T13:58:22Z</time>
      </trkpt>
      <trkpt lat="44.201250979676843" lon="2.211627010256052">
        <ele>449.55000000000001</ele>
        <time>2025-04-25T13:58:23Z</time>
      </trkpt>
      <trkpt lat="44.201100021600723" lon="2.211844017729163">
        <ele>448.58999999999997</ele>
        <time>2025-04-25T13:58:24Z</time>
      </trkpt>
      <trkpt lat="44.200967000797391" lon="2.212078962475061">
        <ele>447.63</ele>
        <time>2025-04-25T13:58:25Z</time>
      </trkpt>
      <trkpt lat="44.200854012742639" lon="2.212333017960191">
        <ele>447.14999999999998</ele>
        <time>2025-04-25T13:58:26Z</time>
      </trkpt>
      <trkpt lat="44.200755022466183" lon="2.212600987404585">
        <ele>446.19</ele>
        <time>2025-04-25T13:58:27Z</time>
      </trkpt>
      <trkpt lat="44.200251018628478" lon="2.213882999494672">
        <ele>443.31</ele>
        <time>2025-04-25T13:58:32Z</time>
      </trkpt>
      <trkpt lat="44.200136018916965" lon="2.21409497782588">
        <ele>442.81999999999999</ele>
        <time>2025-04-25T13:58:33Z</time>
      </trkpt>
      <trkpt lat="44.200012972578406" lon="2.214283989742398">
        <ele>441.86000000000001</ele>
        <time>2025-04-25T13:58:34Z</time>
      </trkpt>
      <trkpt lat="44.199886992573738" lon="2.214409969747067">
        <ele>440.89999999999998</ele>
        <time>2025-04-25T13:58:35Z</time>
      </trkpt>
      <trkpt lat="44.199724970385432" lon="2.214538967236877">
        <ele>440.42000000000002</ele>
        <time>2025-04-25T13:58:36Z</time>
      </trkpt>
      <trkpt lat="44.199574012309313" lon="2.214625971391797">
        <ele>439.45999999999998</ele>
        <time>2025-04-25T13:58:37Z</time>
      </trkpt>
      <trkpt lat="44.199412995949388" lon="2.21469696611166">
        <ele>438.5</ele>
        <time>2025-04-25T13:58:38Z</time>
      </trkpt>
      <trkpt lat="44.199247034266591" lon="2.214758992195129">
        <ele>437.54000000000002</ele>
        <time>2025-04-25T13:58:39Z</time>
      </trkpt>
      <trkpt lat="44.199075037613511" lon="2.214781958609819">
        <ele>437.06</ele>
        <time>2025-04-25T13:58:40Z</time>
      </trkpt>
      <trkpt lat="44.19890102930367" lon="2.214806014671922">
        <ele>436.10000000000002</ele>
        <time>2025-04-25T13:58:41Z</time>
      </trkpt>
      <trkpt lat="44.197366973385215" lon="2.215168029069901">
        <ele>427.44</ele>
        <time>2025-04-25T13:58:50Z</time>
      </trkpt>
      <trkpt lat="44.197058016434312" lon="2.215195018798113">
        <ele>426</ele>
        <time>2025-04-25T13:58:52Z</time>
      </trkpt>
      <trkpt lat="44.196908986195922" lon="2.215202981606126">
        <ele>425.51999999999998</ele>
        <time>2025-04-25T13:58:53Z</time>
      </trkpt>
      <trkpt lat="44.19677303172648" lon="2.215130981057882">
        <ele>425.04000000000002</ele>
        <time>2025-04-25T13:58:54Z</time>
      </trkpt>
      <trkpt lat="44.196639005094767" lon="2.215041965246201">
        <ele>424.56</ele>
        <time>2025-04-25T13:58:55Z</time>
      </trkpt>
      <trkpt lat="44.196491986513138" lon="2.214938029646874">
        <ele>424.07999999999998</ele>
        <time>2025-04-25T13:58:56Z</time>
      </trkpt>
      <trkpt lat="44.196401964873075" lon="2.214767960831523">
        <ele>423.60000000000002</ele>
        <time>2025-04-25T13:58:57Z</time>
      </trkpt>
      <trkpt lat="44.19630297459662" lon="2.214580038562417">
        <ele>423.12</ele>
        <time>2025-04-25T13:58:58Z</time>
      </trkpt>
      <trkpt lat="44.196218987926841" lon="2.214376023039222">
        <ele>422.63999999999999</ele>
        <time>2025-04-25T13:58:59Z</time>
      </trkpt>
      <trkpt lat="44.195960992947221" lon="2.213797001168132">
        <ele>419.75</ele>
        <time>2025-04-25T13:59:02Z</time>
      </trkpt>
      <trkpt lat="44.195848004892468" lon="2.213657023385167">
        <ele>419.26999999999998</ele>
        <time>2025-04-25T13:59:03Z</time>
      </trkpt>
      <trkpt lat="44.195712972432375" lon="2.213533977046609">
        <ele>418.79000000000002</ele>
        <time>2025-04-25T13:59:04Z</time>
      </trkpt>
      <trkpt lat="44.195577017962933" lon="2.213455019518733">
        <ele>417.82999999999998</ele>
        <time>2025-04-25T13:59:05Z</time>
      </trkpt>
      <trkpt lat="44.195419019088149" lon="2.213425012305379">
        <ele>416.87</ele>
        <time>2025-04-25T13:59:06Z</time>
      </trkpt>
      <trkpt lat="44.195252973586321" lon="2.213411014527082">
        <ele>416.38999999999999</ele>
        <time>2025-04-25T13:59:07Z</time>
      </trkpt>
      <trkpt lat="44.195088017731905" lon="2.21344898454845">
        <ele>415.43000000000001</ele>
        <time>2025-04-25T13:59:08Z</time>
      </trkpt>
      <trkpt lat="44.194923983886838" lon="2.213486032560468">
        <ele>414.47000000000003</ele>
        <time>2025-04-25T13:59:09Z</time>
      </trkpt>
      <trkpt lat="44.194269021973014" lon="2.213657023385167">
        <ele>412.06</ele>
        <time>2025-04-25T13:59:13Z</time>
      </trkpt>
      <trkpt lat="44.19408998452127" lon="2.213746961206198">
        <ele>411.57999999999998</ele>
        <time>2025-04-25T13:59:14Z</time>
      </trkpt>
      <trkpt lat="44.193668039515615" lon="2.213977966457605">
        <ele>411.10000000000002</ele>
        <time>2025-04-25T13:59:16Z</time>
      </trkpt>
      <trkpt lat="44.193452959880233" lon="2.21413797698915">
        <ele>411.10000000000002</ele>
        <time>2025-04-25T13:59:17Z</time>
      </trkpt>
      <trkpt lat="44.193019028753042" lon="2.214462021365762">
        <ele>411.10000000000002</ele>
        <time>2025-04-25T13:59:19Z</time>
      </trkpt>
      <trkpt lat="44.192807972431183" lon="2.214619014412165">
        <ele>411.10000000000002</ele>
        <time>2025-04-25T13:59:20Z</time>
      </trkpt>
      <trkpt lat="44.192603034898639" lon="2.214772989973426">
        <ele>411.10000000000002</ele>
        <time>2025-04-25T13:59:21Z</time>
      </trkpt>
      <trkpt lat="44.192393990233541" lon="2.214930988848209">
        <ele>410.62</ele>
        <time>2025-04-25T13:59:22Z</time>
      </trkpt>
      <trkpt lat="44.192236997187138" lon="2.215155959129334">
        <ele>410.62</ele>
        <time>2025-04-25T13:59:23Z</time>
      </trkpt>
      <trkpt lat="44.192085033282638" lon="2.215384030714631">
        <ele>409.66000000000003</ele>
        <time>2025-04-25T13:59:24Z</time>
      </trkpt>
      <trkpt lat="44.191971961408854" lon="2.215634984895587">
        <ele>409.66000000000003</ele>
        <time>2025-04-25T13:59:25Z</time>
      </trkpt>
      <trkpt lat="44.191871965304017" lon="2.215859033167362">
        <ele>408.69999999999999</ele>
        <time>2025-04-25T13:59:26Z</time>
      </trkpt>
      <trkpt lat="44.191761994734406" lon="2.216051984578371">
        <ele>408.22000000000003</ele>
        <time>2025-04-25T13:59:27Z</time>
      </trkpt>
      <trkpt lat="44.191583041101694" lon="2.21617897041142">
        <ele>407.74000000000001</ele>
        <time>2025-04-25T13:59:28Z</time>
      </trkpt>
      <trkpt lat="44.191402997821569" lon="2.21609297208488">
        <ele>406.76999999999998</ele>
        <time>2025-04-25T13:59:29Z</time>
      </trkpt>
      <trkpt lat="44.19123200699687" lon="2.215975038707256">
        <ele>406.29000000000002</ele>
        <time>2025-04-25T13:59:30Z</time>
      </trkpt>
      <trkpt lat="44.190967977046967" lon="2.215996999293566">
        <ele>405.32999999999998</ele>
        <time>2025-04-25T13:59:31Z</time>
      </trkpt>
      <trkpt lat="44.190798997879028" lon="2.21613597124815">
        <ele>404.37</ele>
        <time>2025-04-25T13:59:32Z</time>
      </trkpt>
      <trkpt lat="44.190622977912426" lon="2.216279972344637">
        <ele>403.88999999999999</ele>
        <time>2025-04-25T13:59:33Z</time>
      </trkpt>
      <trkpt lat="44.18985502794385" lon="2.21652003005147">
        <ele>399.56999999999999</ele>
        <time>2025-04-25T13:59:37Z</time>
      </trkpt>
      <trkpt lat="44.189700968563557" lon="2.216497985646129">
        <ele>398.60000000000002</ele>
        <time>2025-04-25T13:59:38Z</time>
      </trkpt>
      <trkpt lat="44.189539030194283" lon="2.216424979269505">
        <ele>397.16000000000003</ele>
        <time>2025-04-25T13:59:39Z</time>
      </trkpt>
      <trkpt lat="44.189238036051393" lon="2.216160027310252">
        <ele>395.24000000000001</ele>
        <time>2025-04-25T13:59:41Z</time>
      </trkpt>
      <trkpt lat="44.189064027741551" lon="2.216096995398402">
        <ele>394.27999999999997</ele>
        <time>2025-04-25T13:59:42Z</time>
      </trkpt>
      <trkpt lat="44.188865963369608" lon="2.216075034812093">
        <ele>393.80000000000001</ele>
        <time>2025-04-25T13:59:43Z</time>
      </trkpt>
      <trkpt lat="44.187662992626429" lon="2.215975038707256">
        <ele>388.02999999999997</ele>
        <time>2025-04-25T13:59:49Z</time>
      </trkpt>
      <trkpt lat="44.187484961003065" lon="2.215879987925291">
        <ele>387.06999999999999</ele>
        <time>2025-04-25T13:59:50Z</time>
      </trkpt>
      <trkpt lat="44.187320005148649" lon="2.215741015970707">
        <ele>386.58999999999997</ele>
        <time>2025-04-25T13:59:51Z</time>
      </trkpt>
      <trkpt lat="44.186610979959369" lon="2.215142967179418">
        <ele>384.18000000000001</ele>
        <time>2025-04-25T13:59:55Z</time>
      </trkpt>
      <trkpt lat="44.186425991356373" lon="2.214998966082931">
        <ele>383.69999999999999</ele>
        <time>2025-04-25T13:59:56Z</time>
      </trkpt>
      <trkpt lat="44.185822997242212" lon="2.214781958609819">
        <ele>381.77999999999997</ele>
        <time>2025-04-25T13:59:59Z</time>
      </trkpt>
      <trkpt lat="44.185634991154075" lon="2.214771984145045">
        <ele>381.30000000000001</ele>
        <time>2025-04-25T14:00:00Z</time>
      </trkpt>
      <trkpt lat="44.185434998944402" lon="2.21482596360147">
        <ele>380.81999999999999</ele>
        <time>2025-04-25T14:00:01Z</time>
      </trkpt>
      <trkpt lat="44.184715999290347" lon="2.215140033513308">
        <ele>377.94</ele>
        <time>2025-04-25T14:00:05Z</time>
      </trkpt>
      <trkpt lat="44.184590019285679" lon="2.215328961610794">
        <ele>376.97000000000003</ele>
        <time>2025-04-25T14:00:06Z</time>
      </trkpt>
      <trkpt lat="44.184473007917404" lon="2.215529959648848">
        <ele>376.00999999999999</ele>
        <time>2025-04-25T14:00:07Z</time>
      </trkpt>
      <trkpt lat="44.184180982410908" lon="2.216216018423438">
        <ele>372.64999999999998</ele>
        <time>2025-04-25T14:00:10Z</time>
      </trkpt>
      <trkpt lat="44.184075035154819" lon="2.216406036168337">
        <ele>371.69</ele>
        <time>2025-04-25T14:00:11Z</time>
      </trkpt>
      <trkpt lat="44.183912007138133" lon="2.216510977596045">
        <ele>370.73000000000002</ele>
        <time>2025-04-25T14:00:12Z</time>
      </trkpt>
      <trkpt lat="44.183408003300428" lon="2.216732008382678">
        <ele>366.88</ele>
        <time>2025-04-25T14:00:15Z</time>
      </trkpt>
      <trkpt lat="44.183222008869052" lon="2.216840973123908">
        <ele>365.92000000000002</ele>
        <time>2025-04-25T14:00:16Z</time>
      </trkpt>
      <trkpt lat="44.183040959760547" lon="2.216947004199028">
        <ele>364.48000000000002</ele>
        <time>2025-04-25T14:00:17Z</time>
      </trkpt>
      <trkpt lat="44.182866029441357" lon="2.217049011960626">
        <ele>363.51999999999998</ele>
        <time>2025-04-25T14:00:18Z</time>
      </trkpt>
      <trkpt lat="44.182678023353219" lon="2.217089999467135">
        <ele>362.55000000000001</ele>
        <time>2025-04-25T14:00:19Z</time>
      </trkpt>
      <trkpt lat="44.182483982294798" lon="2.217069966718555">
        <ele>361.58999999999997</ele>
        <time>2025-04-25T14:00:20Z</time>
      </trkpt>
      <trkpt lat="44.182280972599983" lon="2.217042976990342">
        <ele>360.63</ele>
        <time>2025-04-25T14:00:21Z</time>
      </trkpt>
      <trkpt lat="44.182076035067439" lon="2.217014981433749">
        <ele>359.67000000000002</ele>
        <time>2025-04-25T14:00:22Z</time>
      </trkpt>
      <trkpt lat="44.181877970695496" lon="2.216988997533917">
        <ele>358.70999999999998</ele>
        <time>2025-04-25T14:00:23Z</time>
      </trkpt>
      <trkpt lat="44.18150195851922" lon="2.21691096201539">
        <ele>356.79000000000002</ele>
        <time>2025-04-25T14:00:25Z</time>
      </trkpt>
      <trkpt lat="44.181303977966309" lon="2.216856982558966">
        <ele>355.82999999999998</ele>
        <time>2025-04-25T14:00:26Z</time>
      </trkpt>
      <trkpt lat="44.181128041818738" lon="2.216753968968988">
        <ele>354.86000000000001</ele>
        <time>2025-04-25T14:00:27Z</time>
      </trkpt>
      <trkpt lat="44.180944981053472" lon="2.216632012277842">
        <ele>354.38</ele>
        <time>2025-04-25T14:00:28Z</time>
      </trkpt>
      <trkpt lat="44.180758986622095" lon="2.216496979817748">
        <ele>353.42000000000002</ele>
        <time>2025-04-25T14:00:29Z</time>
      </trkpt>
      <trkpt lat="44.18001601472497" lon="2.215986019000411">
        <ele>350.06</ele>
        <time>2025-04-25T14:00:33Z</time>
      </trkpt>
      <trkpt lat="44.179656011983752" lon="2.215847969055176">
        <ele>348.62</ele>
        <time>2025-04-25T14:00:35Z</time>
      </trkpt>
      <trkpt lat="44.179505975916982" lon="2.215745961293578">
        <ele>348.13</ele>
        <time>2025-04-25T14:00:36Z</time>
      </trkpt>
      <trkpt lat="44.179402962327003" lon="2.215592991560698">
        <ele>347.17000000000002</ele>
        <time>2025-04-25T14:00:37Z</time>
      </trkpt>
      <trkpt lat="44.179357029497623" lon="2.215401967987418">
        <ele>346.69</ele>
        <time>2025-04-25T14:00:38Z</time>
      </trkpt>
      <trkpt lat="44.179330039769411" lon="2.215160988271236">
        <ele>345.73000000000002</ele>
        <time>2025-04-25T14:00:39Z</time>
      </trkpt>
      <trkpt lat="44.179383013397455" lon="2.214993014931679">
        <ele>345.25</ele>
        <time>2025-04-25T14:00:40Z</time>
      </trkpt>
      <trkpt lat="44.179451996460557" lon="2.214783970266581">
        <ele>344.76999999999998</ele>
        <time>2025-04-25T14:00:41Z</time>
      </trkpt>
      <trkpt lat="44.179541012272239" lon="2.214581966400147">
        <ele>344.29000000000002</ele>
        <time>2025-04-25T14:00:42Z</time>
      </trkpt>
      <trkpt lat="44.179655006155372" lon="2.214376023039222">
        <ele>343.32999999999998</ele>
        <time>2025-04-25T14:00:43Z</time>
      </trkpt>
      <trkpt lat="44.179791966453195" lon="2.214174019172788">
        <ele>342.37</ele>
        <time>2025-04-25T14:00:44Z</time>
      </trkpt>
      <trkpt lat="44.180159009993076" lon="2.213569013401866">
        <ele>340.44</ele>
        <time>2025-04-25T14:00:47Z</time>
      </trkpt>
      <trkpt lat="44.180227993056178" lon="2.213345970958471">
        <ele>339.48000000000002</ele>
        <time>2025-04-25T14:00:48Z</time>
      </trkpt>
      <trkpt lat="44.180264035239816" lon="2.213107002899051">
        <ele>339</ele>
        <time>2025-04-25T14:00:49Z</time>
      </trkpt>
      <trkpt lat="44.180250959470868" lon="2.212853031232953">
        <ele>337.56</ele>
        <time>2025-04-25T14:00:50Z</time>
      </trkpt>
      <trkpt lat="44.180220030248165" lon="2.21261196769774">
        <ele>337.07999999999998</ele>
        <time>2025-04-25T14:00:51Z</time>
      </trkpt>
      <trkpt lat="44.18018901720643" lon="2.212371993809938">
        <ele>336.12</ele>
        <time>2025-04-25T14:00:52Z</time>
      </trkpt>
      <trkpt lat="44.180093966424465" lon="2.21218298189342">
        <ele>335.16000000000003</ele>
        <time>2025-04-25T14:00:53Z</time>
      </trkpt>
      <trkpt lat="44.179969998076558" lon="2.212001010775566">
        <ele>334.68000000000001</ele>
        <time>2025-04-25T14:00:54Z</time>
      </trkpt>
      <trkpt lat="44.179817028343678" lon="2.211844017729163">
        <ele>334.19999999999999</ele>
        <time>2025-04-25T14:00:55Z</time>
      </trkpt>
      <trkpt lat="44.179132981225848" lon="2.211188971996307">
        <ele>331.31</ele>
        <time>2025-04-25T14:00:59Z</time>
      </trkpt>
      <trkpt lat="44.178956961259246" lon="2.211077995598316">
        <ele>330.35000000000002</ele>
        <time>2025-04-25T14:01:00Z</time>
      </trkpt>
      <trkpt lat="44.178764009848237" lon="2.211032984778285">
        <ele>329.87</ele>
        <time>2025-04-25T14:01:01Z</time>
      </trkpt>
      <trkpt lat="44.178566029295325" lon="2.211011024191976">
        <ele>328.91000000000003</ele>
        <time>2025-04-25T14:01:02Z</time>
      </trkpt>
      <trkpt lat="44.178364025428891" lon="2.21099803224206">
        <ele>327.94999999999999</ele>
        <time>2025-04-25T14:01:03Z</time>
      </trkpt>
      <trkpt lat="44.177584005519748" lon="2.210986968129873">
        <ele>324.57999999999998</ele>
        <time>2025-04-25T14:01:07Z</time>
      </trkpt>
      <trkpt lat="44.177417038008571" lon="2.211032984778285">
        <ele>324.10000000000002</ele>
        <time>2025-04-25T14:01:08Z</time>
      </trkpt>
      <trkpt lat="44.17726599611342" lon="2.211073972284794">
        <ele>323.62</ele>
        <time>2025-04-25T14:01:09Z</time>
      </trkpt>
      <trkpt lat="44.177121995016932" lon="2.211071038618684">
        <ele>322.66000000000003</ele>
        <time>2025-04-25T14:01:10Z</time>
      </trkpt>
      <trkpt lat="44.1769889742136" lon="2.210996020585299">
        <ele>321.69999999999999</ele>
        <time>2025-04-25T14:01:11Z</time>
      </trkpt>
      <trkpt lat="44.176884032785892" lon="2.210890995338559">
        <ele>321.22000000000003</ele>
        <time>2025-04-25T14:01:12Z</time>
      </trkpt>
      <trkpt lat="44.176851008087397" lon="2.21069703809917">
        <ele>320.25999999999999</ele>
        <time>2025-04-25T14:01:13Z</time>
      </trkpt>
      <trkpt lat="44.176818989217281" lon="2.210514983162284">
        <ele>319.77999999999997</ele>
        <time>2025-04-25T14:01:14Z</time>
      </trkpt>
      <trkpt lat="44.17681303806603" lon="2.210315996780992">
        <ele>319.30000000000001</ele>
        <time>2025-04-25T14:01:15Z</time>
      </trkpt>
      <trkpt lat="44.176850002259016" lon="2.210108041763306">
        <ele>318.81</ele>
        <time>2025-04-25T14:01:16Z</time>
      </trkpt>
      <trkpt lat="44.176889983937144" lon="2.209886005148292">
        <ele>318.81</ele>
        <time>2025-04-25T14:01:17Z</time>
      </trkpt>
      <trkpt lat="44.176972964778543" lon="2.209659023210406">
        <ele>318.32999999999998</ele>
        <time>2025-04-25T14:01:18Z</time>
      </trkpt>
      <trkpt lat="44.177078995853662" lon="2.209437992423773">
        <ele>317.85000000000002</ele>
        <time>2025-04-25T14:01:19Z</time>
      </trkpt>
      <trkpt lat="44.17754502967" lon="2.208603993058205">
        <ele>315.93000000000001</ele>
        <time>2025-04-25T14:01:23Z</time>
      </trkpt>
      <trkpt lat="44.177690036594868" lon="2.208498967811465">
        <ele>315.44999999999999</ele>
        <time>2025-04-25T14:01:24Z</time>
      </trkpt>
      <trkpt lat="44.177837977185845" lon="2.208411041647196">
        <ele>315.44999999999999</ele>
        <time>2025-04-25T14:01:25Z</time>
      </trkpt>
      <trkpt lat="44.177994970232248" lon="2.208337029442191">
        <ele>314.97000000000003</ele>
        <time>2025-04-25T14:01:26Z</time>
      </trkpt>
      <trkpt lat="44.178156992420554" lon="2.208261005580425">
        <ele>314.97000000000003</ele>
        <time>2025-04-25T14:01:27Z</time>
      </trkpt>
      <trkpt lat="44.178318008780479" lon="2.208184981718659">
        <ele>314.97000000000003</ele>
        <time>2025-04-25T14:01:28Z</time>
      </trkpt>
      <trkpt lat="44.178472990170121" lon="2.208100995048881">
        <ele>314.49000000000001</ele>
        <time>2025-04-25T14:01:29Z</time>
      </trkpt>
      <trkpt lat="44.178612967953086" lon="2.207961017265916">
        <ele>314.49000000000001</ele>
        <time>2025-04-25T14:01:30Z</time>
      </trkpt>
      <trkpt lat="44.178732996806502" lon="2.20777602866292">
        <ele>314.49000000000001</ele>
        <time>2025-04-25T14:01:31Z</time>
      </trkpt>
      <trkpt lat="44.178852019831538" lon="2.207586010918021">
        <ele>314.00999999999999</ele>
        <time>2025-04-25T14:01:32Z</time>
      </trkpt>
      <trkpt lat="44.178965007886291" lon="2.207406973466277">
        <ele>314.00999999999999</ele>
        <time>2025-04-25T14:01:33Z</time>
      </trkpt>
      <trkpt lat="44.179042959585786" lon="2.207203963771462">
        <ele>313.52999999999997</ele>
        <time>2025-04-25T14:01:34Z</time>
      </trkpt>
      <trkpt lat="44.179103979840875" lon="2.207019980996847">
        <ele>313.52999999999997</ele>
        <time>2025-04-25T14:01:35Z</time>
      </trkpt>
      <trkpt lat="44.179086964577436" lon="2.206835998222232">
        <ele>313.05000000000001</ele>
        <time>2025-04-25T14:01:36Z</time>
      </trkpt>
      <trkpt lat="44.179054023697972" lon="2.206661989912391">
        <ele>312.56999999999999</ele>
        <time>2025-04-25T14:01:37Z</time>
      </trkpt>
      <trkpt lat="44.178997026756406" lon="2.206502985209227">
        <ele>312.08999999999997</ele>
        <time>2025-04-25T14:01:38Z</time>
      </trkpt>
      <trkpt lat="44.178885966539383" lon="2.206392008811235">
        <ele>311.60000000000002</ele>
        <time>2025-04-25T14:01:39Z</time>
      </trkpt>
      <trkpt lat="44.178766021504998" lon="2.206348003819585">
        <ele>310.63999999999999</ele>
        <time>2025-04-25T14:01:40Z</time>
      </trkpt>
      <trkpt lat="44.17864297516644" lon="2.206354038789868">
        <ele>310.16000000000003</ele>
        <time>2025-04-25T14:01:41Z</time>
      </trkpt>
      <trkpt lat="44.178516995161772" lon="2.20640298910439">
        <ele>309.68000000000001</ele>
        <time>2025-04-25T14:01:42Z</time>
      </trkpt>
      <trkpt lat="44.178381040692329" lon="2.20648898743093">
        <ele>308.72000000000003</ele>
        <time>2025-04-25T14:01:43Z</time>
      </trkpt>
      <trkpt lat="44.178237039595842" lon="2.206579009070993">
        <ele>308.24000000000001</ele>
        <time>2025-04-25T14:01:44Z</time>
      </trkpt>
      <trkpt lat="44.177939984947443" lon="2.206728039309382">
        <ele>307.75999999999999</ele>
        <time>2025-04-25T14:01:46Z</time>
      </trkpt>
      <trkpt lat="44.177759019657969" lon="2.206728039309382">
        <ele>307.27999999999997</ele>
        <time>2025-04-25T14:01:47Z</time>
      </trkpt>
      <trkpt lat="44.177571013569832" lon="2.206728039309382">
        <ele>307.27999999999997</ele>
        <time>2025-04-25T14:01:48Z</time>
      </trkpt>
      <trkpt lat="44.177402034401894" lon="2.20666098408401">
        <ele>306.80000000000001</ele>
        <time>2025-04-25T14:01:49Z</time>
      </trkpt>
      <trkpt lat="44.177258033305407" lon="2.206543972715735">
        <ele>306.80000000000001</ele>
        <time>2025-04-25T14:01:50Z</time>
      </trkpt>
      <trkpt lat="44.177131969481707" lon="2.206405000761151">
        <ele>306.31999999999999</ele>
        <time>2025-04-25T14:01:51Z</time>
      </trkpt>
      <trkpt lat="44.177060974761844" lon="2.206212971359491">
        <ele>305.83999999999997</ele>
        <time>2025-04-25T14:01:52Z</time>
      </trkpt>
      <trkpt lat="44.177003977820277" lon="2.205983977764845">
        <ele>305.36000000000001</ele>
        <time>2025-04-25T14:01:53Z</time>
      </trkpt>
      <trkpt lat="44.176941029727459" lon="2.205733023583889">
        <ele>304.88</ele>
        <time>2025-04-25T14:01:54Z</time>
      </trkpt>
      <trkpt lat="44.176844973117113" lon="2.205488020554185">
        <ele>304.38999999999999</ele>
        <time>2025-04-25T14:01:55Z</time>
      </trkpt>
      <trkpt lat="44.176722010597587" lon="2.205277970060706">
        <ele>303.43000000000001</ele>
        <time>2025-04-25T14:01:56Z</time>
      </trkpt>
      <trkpt lat="44.1765589825809" lon="2.205115025863051">
        <ele>302.94999999999999</ele>
        <time>2025-04-25T14:01:57Z</time>
      </trkpt>
      <trkpt lat="44.176390003412962" lon="2.204972030594945">
        <ele>301.99000000000001</ele>
        <time>2025-04-25T14:01:58Z</time>
      </trkpt>
      <trkpt lat="44.176222030073404" lon="2.204829035326839">
        <ele>301.50999999999999</ele>
        <time>2025-04-25T14:01:59Z</time>
      </trkpt>
      <trkpt lat="44.17606595903635" lon="2.204663995653391">
        <ele>301.02999999999997</ele>
        <time>2025-04-25T14:02:00Z</time>
      </trkpt>
      <trkpt lat="44.175939979031682" lon="2.204455034807324">
        <ele>300.06999999999999</ele>
        <time>2025-04-25T14:02:01Z</time>
      </trkpt>
      <trkpt lat="44.17582799680531" lon="2.204228974878788">
        <ele>299.58999999999997</ele>
        <time>2025-04-25T14:02:02Z</time>
      </trkpt>
      <trkpt lat="44.175682989880443" lon="2.204026971012354">
        <ele>298.63</ele>
        <time>2025-04-25T14:02:03Z</time>
      </trkpt>
      <trkpt lat="44.175523985177279" lon="2.203853968530893">
        <ele>297.67000000000002</ele>
        <time>2025-04-25T14:02:04Z</time>
      </trkpt>
      <trkpt lat="44.175345031544566" lon="2.203730000182986">
        <ele>297.18000000000001</ele>
        <time>2025-04-25T14:02:05Z</time>
      </trkpt>
      <trkpt lat="44.175168005749583" lon="2.20360703766346">
        <ele>296.69999999999999</ele>
        <time>2025-04-25T14:02:06Z</time>
      </trkpt>
      <trkpt lat="44.174996009096503" lon="2.203488014638424">
        <ele>296.22000000000003</ele>
        <time>2025-04-25T14:02:07Z</time>
      </trkpt>
      <trkpt lat="44.174769027158618" lon="2.20343898050487">
        <ele>295.74000000000001</ele>
        <time>2025-04-25T14:02:08Z</time>
      </trkpt>
      <trkpt lat="44.173161964863539" lon="2.203104961663485">
        <ele>292.38</ele>
        <time>2025-04-25T14:02:15Z</time>
      </trkpt>
      <trkpt lat="44.171811975538731" lon="2.203189032152295">
        <ele>289.00999999999999</ele>
        <time>2025-04-25T14:02:21Z</time>
      </trkpt>
      <trkpt lat="44.1714440099895" lon="2.203224990516901">
        <ele>287.56999999999999</ele>
        <time>2025-04-25T14:02:23Z</time>
      </trkpt>
      <trkpt lat="44.171268995851278" lon="2.203161958605051">
        <ele>286.61000000000001</ele>
        <time>2025-04-25T14:02:24Z</time>
      </trkpt>
      <trkpt lat="44.171106973662972" lon="2.20307101495564">
        <ele>286.13</ele>
        <time>2025-04-25T14:02:25Z</time>
      </trkpt>
      <trkpt lat="44.170945035293698" lon="2.202934976667166">
        <ele>285.64999999999998</ele>
        <time>2025-04-25T14:02:26Z</time>
      </trkpt>
      <trkpt lat="44.170794999226928" lon="2.202778989449143">
        <ele>285.17000000000002</ele>
        <time>2025-04-25T14:02:27Z</time>
      </trkpt>
      <trkpt lat="44.170667007565498" lon="2.202603975310922">
        <ele>284.69</ele>
        <time>2025-04-25T14:02:28Z</time>
      </trkpt>
      <trkpt lat="44.170555025339127" lon="2.202411023899913">
        <ele>284.20999999999998</ele>
        <time>2025-04-25T14:02:29Z</time>
      </trkpt>
      <trkpt lat="44.170483024790883" lon="2.202175995334983">
        <ele>283.73000000000002</ele>
        <time>2025-04-25T14:02:30Z</time>
      </trkpt>
      <trkpt lat="44.170409012585878" lon="2.201934009790421">
        <ele>283.25</ele>
        <time>2025-04-25T14:02:31Z</time>
      </trkpt>
      <trkpt lat="44.170340029522777" lon="2.201707027852535">
        <ele>282.76999999999998</ele>
        <time>2025-04-25T14:02:32Z</time>
      </trkpt>
      <trkpt lat="44.170274985954165" lon="2.201513992622495">
        <ele>281.80000000000001</ele>
        <time>2025-04-25T14:02:33Z</time>
      </trkpt>
      <trkpt lat="44.17013400234282" lon="2.201359011232853">
        <ele>280.83999999999997</ele>
        <time>2025-04-25T14:02:34Z</time>
      </trkpt>
      <trkpt lat="44.169999975711107" lon="2.201246023178101">
        <ele>279.88</ele>
        <time>2025-04-25T14:02:35Z</time>
      </trkpt>
      <trkpt lat="44.16983200237155" lon="2.201154995709658">
        <ele>278.44</ele>
        <time>2025-04-25T14:02:36Z</time>
      </trkpt>
      <trkpt lat="44.169651959091425" lon="2.201058017089963">
        <ele>277.48000000000002</ele>
        <time>2025-04-25T14:02:37Z</time>
      </trkpt>
      <trkpt lat="44.16910202242434" lon="2.200884008780122">
        <ele>274.11000000000001</ele>
        <time>2025-04-25T14:02:40Z</time>
      </trkpt>
      <trkpt lat="44.168916027992964" lon="2.200916027650237">
        <ele>272.67000000000002</ele>
        <time>2025-04-25T14:02:41Z</time>
      </trkpt>
      <trkpt lat="44.168721986934543" lon="2.200949974358082">
        <ele>271.70999999999998</ele>
        <time>2025-04-25T14:02:42Z</time>
      </trkpt>
      <trkpt lat="44.167322041466832" lon="2.201292039826512">
        <ele>264.98000000000002</ele>
        <time>2025-04-25T14:02:49Z</time>
      </trkpt>
      <trkpt lat="44.167164964601398" lon="2.201286004856229">
        <ele>264.5</ele>
        <time>2025-04-25T14:02:50Z</time>
      </trkpt>
      <trkpt lat="44.167005037888885" lon="2.201268989592791">
        <ele>263.54000000000002</ele>
        <time>2025-04-25T14:02:51Z</time>
      </trkpt>
      <trkpt lat="44.166853995993733" lon="2.201225990429521">
        <ele>263.06</ele>
        <time>2025-04-25T14:02:52Z</time>
      </trkpt>
      <trkpt lat="44.166732039302588" lon="2.201104033738375">
        <ele>262.10000000000002</ele>
        <time>2025-04-25T14:02:53Z</time>
      </trkpt>
      <trkpt lat="44.166635982692242" lon="2.200938994064927">
        <ele>261.13999999999999</ele>
        <time>2025-04-25T14:02:54Z</time>
      </trkpt>
      <trkpt lat="44.166553001850843" lon="2.200720980763435">
        <ele>260.64999999999998</ele>
        <time>2025-04-25T14:02:55Z</time>
      </trkpt>
      <trkpt lat="44.166464991867542" lon="2.20047002658248">
        <ele>259.69</ele>
        <time>2025-04-25T14:02:56Z</time>
      </trkpt>
      <trkpt lat="44.165992001071572" lon="2.19920301809907">
        <ele>255.37</ele>
        <time>2025-04-25T14:03:01Z</time>
      </trkpt>
      <trkpt lat="44.16585898026824" lon="2.199019035324454">
        <ele>254.41</ele>
        <time>2025-04-25T14:03:02Z</time>
      </trkpt>
      <trkpt lat="44.165717996656895" lon="2.198824994266033">
        <ele>253.44</ele>
        <time>2025-04-25T14:03:03Z</time>
      </trkpt>
      <trkpt lat="44.165058005601168" lon="2.198261981830001">
        <ele>249.59999999999999</ele>
        <time>2025-04-25T14:03:07Z</time>
      </trkpt>
      <trkpt lat="44.164922973141074" lon="2.198073975741863">
        <ele>248.16</ele>
        <time>2025-04-25T14:03:08Z</time>
      </trkpt>
      <trkpt lat="44.164223000407219" lon="2.19684200361371">
        <ele>243.34999999999999</ele>
        <time>2025-04-25T14:03:14Z</time>
      </trkpt>
      <trkpt lat="44.164025019854307" lon="2.19658400863409">
        <ele>242.87</ele>
        <time>2025-04-25T14:03:16Z</time>
      </trkpt>
      <trkpt lat="44.163919994607568" lon="2.196502033621073">
        <ele>242.87</ele>
        <time>2025-04-25T14:03:17Z</time>
      </trkpt>
      <trkpt lat="44.163812035694718" lon="2.196447970345616">
        <ele>242.87</ele>
        <time>2025-04-25T14:03:18Z</time>
      </trkpt>
      <trkpt lat="44.163699969649315" lon="2.196406982839108">
        <ele>242.87</ele>
        <time>2025-04-25T14:03:19Z</time>
      </trkpt>
      <trkpt lat="44.163592010736465" lon="2.196406982839108">
        <ele>242.87</ele>
        <time>2025-04-25T14:03:20Z</time>
      </trkpt>
      <trkpt lat="44.163495032116771" lon="2.196406982839108">
        <ele>242.87</ele>
        <time>2025-04-25T14:03:21Z</time>
      </trkpt>
      <trkpt lat="44.163378020748496" lon="2.196465991437435">
        <ele>242.87</ele>
        <time>2025-04-25T14:03:22Z</time>
      </trkpt>
      <trkpt lat="44.163270983844995" lon="2.196518965065479">
        <ele>242.87</ele>
        <time>2025-04-25T14:03:23Z</time>
      </trkpt>
      <trkpt lat="44.163169981911778" lon="2.196570010855794">
        <ele>243.34999999999999</ele>
        <time>2025-04-25T14:03:24Z</time>
      </trkpt>
      <trkpt lat="44.163078032433987" lon="2.196609992533922">
        <ele>243.34999999999999</ele>
        <time>2025-04-25T14:03:25Z</time>
      </trkpt>
      <trkpt lat="44.16300100274384" lon="2.196643017232418">
        <ele>243.34999999999999</ele>
        <time>2025-04-25T14:03:26Z</time>
      </trkpt>
      <trkpt lat="44.162911986932158" lon="2.196634970605373">
        <ele>242.87</ele>
        <time>2025-04-25T14:03:27Z</time>
      </trkpt>
      <trkpt lat="44.162821965292096" lon="2.19662700779736">
        <ele>242.38999999999999</ele>
        <time>2025-04-25T14:03:28Z</time>
      </trkpt>
      <trkpt lat="44.162733033299446" lon="2.196612004190683">
        <ele>242.38999999999999</ele>
        <time>2025-04-25T14:03:29Z</time>
      </trkpt>
      <trkpt lat="44.162112018093467" lon="2.196370018646121">
        <ele>240.47</ele>
        <time>2025-04-25T14:03:35Z</time>
      </trkpt>
      <trkpt lat="44.162042029201984" lon="2.196258036419749">
        <ele>239.99000000000001</ele>
        <time>2025-04-25T14:03:36Z</time>
      </trkpt>
      <trkpt lat="44.161983020603657" lon="2.196148987859488">
        <ele>239.50999999999999</ele>
        <time>2025-04-25T14:03:37Z</time>
      </trkpt>
      <trkpt lat="44.161971034482121" lon="2.196016972884536">
        <ele>239.50999999999999</ele>
        <time>2025-04-25T14:03:38Z</time>
      </trkpt>
      <trkpt lat="44.161972040310502" lon="2.195855034515262">
        <ele>239.50999999999999</ele>
        <time>2025-04-25T14:03:39Z</time>
      </trkpt>
      <trkpt lat="44.161986038088799" lon="2.195670967921615">
        <ele>239.50999999999999</ele>
        <time>2025-04-25T14:03:40Z</time>
      </trkpt>
      <trkpt lat="44.162000035867095" lon="2.195469969883561">
        <ele>239.50999999999999</ele>
        <time>2025-04-25T14:03:41Z</time>
      </trkpt>
      <trkpt lat="44.162049992009997" lon="2.194661032408476">
        <ele>240.47</ele>
        <time>2025-04-25T14:03:45Z</time>
      </trkpt>
      <trkpt lat="44.162009004503489" lon="2.194484006613493">
        <ele>240.47</ele>
        <time>2025-04-25T14:03:46Z</time>
      </trkpt>
      <trkpt lat="44.161891993135214" lon="2.193974973633885">
        <ele>241.91</ele>
        <time>2025-04-25T14:03:49Z</time>
      </trkpt>
      <trkpt lat="44.161587981507182" lon="2.193091018125415">
        <ele>245.75</ele>
        <time>2025-04-25T14:03:54Z</time>
      </trkpt>
      <trkpt lat="44.161511035636067" lon="2.192879039794207">
        <ele>246.22999999999999</ele>
        <time>2025-04-25T14:03:55Z</time>
      </trkpt>
      <trkpt lat="44.1614989656955" lon="2.19258600845933">
        <ele>247.19999999999999</ele>
        <time>2025-04-25T14:03:56Z</time>
      </trkpt>
      <trkpt lat="44.1614989656955" lon="2.192323990166187">
        <ele>248.16</ele>
        <time>2025-04-25T14:03:57Z</time>
      </trkpt>
      <trkpt lat="44.161511035636067" lon="2.192037999629974">
        <ele>248.63999999999999</ele>
        <time>2025-04-25T14:03:58Z</time>
      </trkpt>
      <trkpt lat="44.161542970687151" lon="2.191763995215297">
        <ele>249.59999999999999</ele>
        <time>2025-04-25T14:03:59Z</time>
      </trkpt>
      <trkpt lat="44.161574989557266" lon="2.191495019942522">
        <ele>250.08000000000001</ele>
        <time>2025-04-25T14:04:00Z</time>
      </trkpt>
      <trkpt lat="44.161660987883806" lon="2.19123400747776">
        <ele>251.03999999999999</ele>
        <time>2025-04-25T14:04:01Z</time>
      </trkpt>
      <trkpt lat="44.161765007302165" lon="2.190999984741211">
        <ele>252</ele>
        <time>2025-04-25T14:04:02Z</time>
      </trkpt>
      <trkpt lat="44.161870032548904" lon="2.19076101668179">
        <ele>252</ele>
        <time>2025-04-25T14:04:03Z</time>
      </trkpt>
      <trkpt lat="44.162004981189966" lon="2.190536968410015">
        <ele>252.96000000000001</ele>
        <time>2025-04-25T14:04:04Z</time>
      </trkpt>
      <trkpt lat="44.162158034741879" lon="2.19033102504909">
        <ele>253.44</ele>
        <time>2025-04-25T14:04:05Z</time>
      </trkpt>
      <trkpt lat="44.162322990596294" lon="2.19013899564743">
        <ele>254.41</ele>
        <time>2025-04-25T14:04:06Z</time>
      </trkpt>
      <trkpt lat="44.162514014169574" lon="2.189978985115886">
        <ele>255.37</ele>
        <time>2025-04-25T14:04:07Z</time>
      </trkpt>
      <trkpt lat="44.163094963878393" lon="2.189529966562986">
        <ele>258.25</ele>
        <time>2025-04-25T14:04:10Z</time>
      </trkpt>
      <trkpt lat="44.16377398185432" lon="2.188895959407091">
        <ele>261.13999999999999</ele>
        <time>2025-04-25T14:04:14Z</time>
      </trkpt>
      <trkpt lat="44.163913959637284" lon="2.188675012439489">
        <ele>262.57999999999998</ele>
        <time>2025-04-25T14:04:15Z</time>
      </trkpt>
      <trkpt lat="44.16418100707233" lon="2.188232028856874">
        <ele>264.01999999999998</ele>
        <time>2025-04-25T14:04:17Z</time>
      </trkpt>
      <trkpt lat="44.164345962926745" lon="2.188075035810471">
        <ele>264.5</ele>
        <time>2025-04-25T14:04:18Z</time>
      </trkpt>
      <trkpt lat="44.164587026461959" lon="2.187846964225173">
        <ele>265.45999999999998</ele>
        <time>2025-04-25T14:04:20Z</time>
      </trkpt>
      <trkpt lat="44.164642011746764" lon="2.187745962291956">
        <ele>265.45999999999998</ele>
        <time>2025-04-25T14:04:21Z</time>
      </trkpt>
      <trkpt lat="44.164646035060287" lon="2.187670022249222">
        <ele>265.45999999999998</ele>
        <time>2025-04-25T14:04:22Z</time>
      </trkpt>
      <trkpt lat="44.16463203728199" lon="2.187587963417172">
        <ele>265.45999999999998</ele>
        <time>2025-04-25T14:04:23Z</time>
      </trkpt>
      <trkpt lat="44.164580991491675" lon="2.187519986182451">
        <ele>265.45999999999998</ele>
        <time>2025-04-25T14:04:24Z</time>
      </trkpt>
      <trkpt lat="44.164507985115051" lon="2.187535995617509">
        <ele>265.45999999999998</ele>
        <time>2025-04-25T14:04:25Z</time>
      </trkpt>
      <trkpt lat="44.164412012323737" lon="2.187595004215837">
        <ele>265.45999999999998</ele>
        <time>2025-04-25T14:04:26Z</time>
      </trkpt>
      <trkpt lat="44.164315033704042" lon="2.187726013362408">
        <ele>265.45999999999998</ele>
        <time>2025-04-25T14:04:27Z</time>
      </trkpt>
      <trkpt lat="44.163659987971187" lon="2.188592031598091">
        <ele>265.94</ele>
        <time>2025-04-25T14:04:32Z</time>
      </trkpt>
      <trkpt lat="44.163512969389558" lon="2.188792023807764">
        <ele>265.94</ele>
        <time>2025-04-25T14:04:33Z</time>
      </trkpt>
      <trkpt lat="44.16300100274384" lon="2.189240036532283">
        <ele>266.42000000000002</ele>
        <time>2025-04-25T14:04:36Z</time>
      </trkpt>
      <trkpt lat="44.162819031625986" lon="2.189357969909906">
        <ele>266.89999999999998</ele>
        <time>2025-04-25T14:04:37Z</time>
      </trkpt>
      <trkpt lat="44.162638988345861" lon="2.189474981278181">
        <ele>266.89999999999998</ele>
        <time>2025-04-25T14:04:38Z</time>
      </trkpt>
      <trkpt lat="44.161976985633373" lon="2.189985020086169">
        <ele>266.89999999999998</ele>
        <time>2025-04-25T14:04:42Z</time>
      </trkpt>
      <trkpt lat="44.161703987047076" lon="2.190305041149259">
        <ele>266.89999999999998</ele>
        <time>2025-04-25T14:04:44Z</time>
      </trkpt>
      <trkpt lat="44.161454038694501" lon="2.19065498560667">
        <ele>267.38</ele>
        <time>2025-04-25T14:04:46Z</time>
      </trkpt>
      <trkpt lat="44.161342978477478" lon="2.190865036100149">
        <ele>267.86000000000001</ele>
        <time>2025-04-25T14:04:47Z</time>
      </trkpt>
      <trkpt lat="44.16098297573626" lon="2.191872959956527">
        <ele>269.31</ele>
        <time>2025-04-25T14:04:52Z</time>
      </trkpt>
      <trkpt lat="44.160940982401371" lon="2.192030036821961">
        <ele>269.79000000000002</ele>
        <time>2025-04-25T14:04:53Z</time>
      </trkpt>
      <trkpt lat="44.160948023200035" lon="2.192189963534474">
        <ele>270.75</ele>
        <time>2025-04-25T14:04:54Z</time>
      </trkpt>
      <trkpt lat="44.16096000932157" lon="2.192575028166175">
        <ele>272.67000000000002</ele>
        <time>2025-04-25T14:04:57Z</time>
      </trkpt>
      <trkpt lat="44.160951962694526" lon="2.192666977643967">
        <ele>273.63</ele>
        <time>2025-04-25T14:04:58Z</time>
      </trkpt>
      <trkpt lat="44.160888008773327" lon="2.192804021760821">
        <ele>275.56</ele>
        <time>2025-04-25T14:04:59Z</time>
      </trkpt>
      <trkpt lat="44.160844003781676" lon="2.192822964861989">
        <ele>276.51999999999998</ele>
        <time>2025-04-25T14:05:00Z</time>
      </trkpt>
      <trkpt lat="44.160748030990362" lon="2.1927809715271">
        <ele>277</ele>
        <time>2025-04-25T14:05:01Z</time>
      </trkpt>
      <trkpt lat="44.160752976313233" lon="2.192624984309077">
        <ele>277</ele>
        <time>2025-04-25T14:05:02Z</time>
      </trkpt>
      <trkpt lat="44.160758005455136" lon="2.192470002919436">
        <ele>277.48000000000002</ele>
        <time>2025-04-25T14:05:03Z</time>
      </trkpt>
      <trkpt lat="44.160764962434769" lon="2.192269004881382">
        <ele>278.44</ele>
        <time>2025-04-25T14:05:04Z</time>
      </trkpt>
      <trkpt lat="44.160778038203716" lon="2.192056020721793">
        <ele>279.88</ele>
        <time>2025-04-25T14:05:05Z</time>
      </trkpt>
      <trkpt lat="44.160781977698207" lon="2.19185502268374">
        <ele>280.83999999999997</ele>
        <time>2025-04-25T14:05:06Z</time>
      </trkpt>
      <trkpt lat="44.160748030990362" lon="2.19160096719861">
        <ele>282.76999999999998</ele>
        <time>2025-04-25T14:05:07Z</time>
      </trkpt>
      <trkpt lat="44.160706037655473" lon="2.191436011344194">
        <ele>283.73000000000002</ele>
        <time>2025-04-25T14:05:08Z</time>
      </trkpt>
      <trkpt lat="44.160593971610069" lon="2.19099503941834">
        <ele>286.13</ele>
        <time>2025-04-25T14:05:10Z</time>
      </trkpt>
      <trkpt lat="44.160537980496883" lon="2.190774008631706">
        <ele>287.56999999999999</ele>
        <time>2025-04-25T14:05:11Z</time>
      </trkpt>
      <trkpt lat="44.160488024353981" lon="2.190578039735556">
        <ele>289.00999999999999</ele>
        <time>2025-04-25T14:05:12Z</time>
      </trkpt>
      <trkpt lat="44.160445025190711" lon="2.190407970920205">
        <ele>289.97000000000003</ele>
        <time>2025-04-25T14:05:13Z</time>
      </trkpt>
      <trkpt lat="44.160376964136958" lon="2.190257012844086">
        <ele>291.42000000000002</ele>
        <time>2025-04-25T14:05:14Z</time>
      </trkpt>
      <trkpt lat="44.160274034366012" lon="2.190098008140922">
        <ele>292.86000000000001</ele>
        <time>2025-04-25T14:05:15Z</time>
      </trkpt>
      <trkpt lat="44.160161968320608" lon="2.189921988174319">
        <ele>294.77999999999997</ele>
        <time>2025-04-25T14:05:16Z</time>
      </trkpt>
      <trkpt lat="44.160043029114604" lon="2.189735993742943">
        <ele>296.22000000000003</ele>
        <time>2025-04-25T14:05:17Z</time>
      </trkpt>
      <trkpt lat="44.159360993653536" lon="2.188488012179732">
        <ele>307.27999999999997</ele>
        <time>2025-04-25T14:05:24Z</time>
      </trkpt>
      <trkpt lat="44.159199977293611" lon="2.188181988894939">
        <ele>310.63999999999999</ele>
        <time>2025-04-25T14:05:26Z</time>
      </trkpt>
      <trkpt lat="44.159098975360394" lon="2.188067995011807">
        <ele>312.56999999999999</ele>
        <time>2025-04-25T14:05:27Z</time>
      </trkpt>
      <trkpt lat="44.15898397564888" lon="2.187959030270577">
        <ele>314.00999999999999</ele>
        <time>2025-04-25T14:05:28Z</time>
      </trkpt>
      <trkpt lat="44.158665966242552" lon="2.187605984508991">
        <ele>317.85000000000002</ele>
        <time>2025-04-25T14:05:31Z</time>
      </trkpt>
      <trkpt lat="44.158603018149734" lon="2.187442034482956">
        <ele>318.81</ele>
        <time>2025-04-25T14:05:32Z</time>
      </trkpt>
      <trkpt lat="44.158576028421521" lon="2.187243970111013">
        <ele>319.77999999999997</ele>
        <time>2025-04-25T14:05:33Z</time>
      </trkpt>
      <trkpt lat="44.158563036471605" lon="2.187007013708353">
        <ele>320.74000000000001</ele>
        <time>2025-04-25T14:05:34Z</time>
      </trkpt>
      <trkpt lat="44.158548032864928" lon="2.186732003465295">
        <ele>322.18000000000001</ele>
        <time>2025-04-25T14:05:35Z</time>
      </trkpt>
      <trkpt lat="44.158385004848242" lon="2.185127036646009">
        <ele>329.38999999999999</ele>
        <time>2025-04-25T14:05:40Z</time>
      </trkpt>
      <trkpt lat="44.158317027613521" lon="2.184841968119144">
        <ele>330.82999999999998</ele>
        <time>2025-04-25T14:05:41Z</time>
      </trkpt>
      <trkpt lat="44.158231029286981" lon="2.184578021988273">
        <ele>332.26999999999998</ele>
        <time>2025-04-25T14:05:42Z</time>
      </trkpt>
      <trkpt lat="44.158092979341745" lon="2.184093967080116">
        <ele>335.16000000000003</ele>
        <time>2025-04-25T14:05:44Z</time>
      </trkpt>
      <trkpt lat="44.158050986006856" lon="2.183857010677457">
        <ele>336.60000000000002</ele>
        <time>2025-04-25T14:05:45Z</time>
      </trkpt>
      <trkpt lat="44.157926011830568" lon="2.183117978274822">
        <ele>340.44</ele>
        <time>2025-04-25T14:05:48Z</time>
      </trkpt>
      <trkpt lat="44.157893992960453" lon="2.182886973023415">
        <ele>341.88999999999999</ele>
        <time>2025-04-25T14:05:49Z</time>
      </trkpt>
      <trkpt lat="44.157903967425227" lon="2.182657979428768">
        <ele>343.32999999999998</ele>
        <time>2025-04-25T14:05:50Z</time>
      </trkpt>
      <trkpt lat="44.157956019043922" lon="2.182448012754321">
        <ele>344.76999999999998</ele>
        <time>2025-04-25T14:05:51Z</time>
      </trkpt>
      <trkpt lat="44.158003963530064" lon="2.182254977524281">
        <ele>346.20999999999998</ele>
        <time>2025-04-25T14:05:52Z</time>
      </trkpt>
      <trkpt lat="44.158044029027224" lon="2.182097984477878">
        <ele>347.64999999999998</ele>
        <time>2025-04-25T14:05:53Z</time>
      </trkpt>
      <trkpt lat="44.158047968521714" lon="2.18197301030159">
        <ele>348.62</ele>
        <time>2025-04-25T14:05:54Z</time>
      </trkpt>
      <trkpt lat="44.158001029863954" lon="2.181879971176386">
        <ele>350.06</ele>
        <time>2025-04-25T14:05:55Z</time>
      </trkpt>
      <trkpt lat="44.157906984910369" lon="2.181820962578058">
        <ele>351.01999999999998</ele>
        <time>2025-04-25T14:05:56Z</time>
      </trkpt>
      <trkpt lat="44.157797014340758" lon="2.181752985343337">
        <ele>352.45999999999998</ele>
        <time>2025-04-25T14:05:57Z</time>
      </trkpt>
      <trkpt lat="44.157677991315722" lon="2.181677967309952">
        <ele>353.42000000000002</ele>
        <time>2025-04-25T14:05:58Z</time>
      </trkpt>
      <trkpt lat="44.157581012696028" lon="2.181564979255199">
        <ele>354.86000000000001</ele>
        <time>2025-04-25T14:05:59Z</time>
      </trkpt>
      <trkpt lat="44.157465007156134" lon="2.181413015350699">
        <ele>356.31</ele>
        <time>2025-04-25T14:06:00Z</time>
      </trkpt>
      <trkpt lat="44.157352019101381" lon="2.181249987334013">
        <ele>358.23000000000002</ele>
        <time>2025-04-25T14:06:01Z</time>
      </trkpt>
      <trkpt lat="44.157239031046629" lon="2.181043038144708">
        <ele>359.67000000000002</ele>
        <time>2025-04-25T14:06:02Z</time>
      </trkpt>
      <trkpt lat="44.157117996364832" lon="2.180818989872932">
        <ele>361.11000000000001</ele>
        <time>2025-04-25T14:06:03Z</time>
      </trkpt>
      <trkpt lat="44.156798981130123" lon="2.180137038230896">
        <ele>365.44</ele>
        <time>2025-04-25T14:06:06Z</time>
      </trkpt>
      <trkpt lat="44.156720023602247" lon="2.179941991344094">
        <ele>366.88</ele>
        <time>2025-04-25T14:06:07Z</time>
      </trkpt>
      <trkpt lat="44.156713988631964" lon="2.179734036326408">
        <ele>368.31999999999999</ele>
        <time>2025-04-25T14:06:08Z</time>
      </trkpt>
      <trkpt lat="44.156732009723783" lon="2.179529014974833">
        <ele>369.75999999999999</ele>
        <time>2025-04-25T14:06:09Z</time>
      </trkpt>
      <trkpt lat="44.156797975301743" lon="2.179324999451637">
        <ele>371.20999999999998</ele>
        <time>2025-04-25T14:06:10Z</time>
      </trkpt>
      <trkpt lat="44.156861007213593" lon="2.179128024727106">
        <ele>372.17000000000002</ele>
        <time>2025-04-25T14:06:11Z</time>
      </trkpt>
      <trkpt lat="44.156914986670017" lon="2.178960973396897">
        <ele>373.61000000000001</ele>
        <time>2025-04-25T14:06:12Z</time>
      </trkpt>
      <trkpt lat="44.156915992498398" lon="2.17879300005734">
        <ele>374.56999999999999</ele>
        <time>2025-04-25T14:06:13Z</time>
      </trkpt>
      <trkpt lat="44.156858995556831" lon="2.178669031709433">
        <ele>375.05000000000001</ele>
        <time>2025-04-25T14:06:14Z</time>
      </trkpt>
      <trkpt lat="44.156752964481711" lon="2.178640030324459">
        <ele>375.52999999999997</ele>
        <time>2025-04-25T14:06:15Z</time>
      </trkpt>
      <trkpt lat="44.156635031104088" lon="2.17868696898222">
        <ele>376.00999999999999</ele>
        <time>2025-04-25T14:06:16Z</time>
      </trkpt>
      <trkpt lat="44.156516008079052" lon="2.178743965923786">
        <ele>376.00999999999999</ele>
        <time>2025-04-25T14:06:17Z</time>
      </trkpt>
      <trkpt lat="44.156396985054016" lon="2.178800040856004">
        <ele>376.00999999999999</ele>
        <time>2025-04-25T14:06:18Z</time>
      </trkpt>
      <trkpt lat="44.156286008656025" lon="2.178798029199243">
        <ele>376.00999999999999</ele>
        <time>2025-04-25T14:06:19Z</time>
      </trkpt>
      <trkpt lat="44.156192969530821" lon="2.178702978417277">
        <ele>376.00999999999999</ele>
        <time>2025-04-25T14:06:20Z</time>
      </trkpt>
      <trkpt lat="44.156130021438003" lon="2.178559983149171">
        <ele>375.52999999999997</ele>
        <time>2025-04-25T14:06:21Z</time>
      </trkpt>
      <trkpt lat="44.1561059653759" lon="2.178378012031317">
        <ele>375.52999999999997</ele>
        <time>2025-04-25T14:06:22Z</time>
      </trkpt>
      <trkpt lat="44.156077969819307" lon="2.178164022043347">
        <ele>376.00999999999999</ele>
        <time>2025-04-25T14:06:23Z</time>
      </trkpt>
      <trkpt lat="44.156021978706121" lon="2.177936034277082">
        <ele>376.49000000000001</ele>
        <time>2025-04-25T14:06:24Z</time>
      </trkpt>
      <trkpt lat="44.155951989814639" lon="2.177694970741868">
        <ele>376.49000000000001</ele>
        <time>2025-04-25T14:06:25Z</time>
      </trkpt>
      <trkpt lat="44.155884012579918" lon="2.17746002599597">
        <ele>376.97000000000003</ele>
        <time>2025-04-25T14:06:26Z</time>
      </trkpt>
      <trkpt lat="44.155820980668068" lon="2.177238995209336">
        <ele>376.97000000000003</ele>
        <time>2025-04-25T14:06:27Z</time>
      </trkpt>
      <trkpt lat="44.155798014253378" lon="2.177002038806677">
        <ele>377.44999999999999</ele>
        <time>2025-04-25T14:06:28Z</time>
      </trkpt>
      <trkpt lat="44.155810000374913" lon="2.176754018291831">
        <ele>377.94</ele>
        <time>2025-04-25T14:06:29Z</time>
      </trkpt>
      <trkpt lat="44.155858028680086" lon="2.176499040797353">
        <ele>378.42000000000002</ele>
        <time>2025-04-25T14:06:30Z</time>
      </trkpt>
      <trkpt lat="44.155919970944524" lon="2.176240039989352">
        <ele>379.38</ele>
        <time>2025-04-25T14:06:31Z</time>
      </trkpt>
      <trkpt lat="44.155990965664387" lon="2.175980033352971">
        <ele>379.86000000000001</ele>
        <time>2025-04-25T14:06:32Z</time>
      </trkpt>
      <trkpt lat="44.156199004501104" lon="2.175242006778717">
        <ele>382.74000000000001</ele>
        <time>2025-04-25T14:06:35Z</time>
      </trkpt>
      <trkpt lat="44.156199004501104" lon="2.174985017627478">
        <ele>383.69999999999999</ele>
        <time>2025-04-25T14:06:36Z</time>
      </trkpt>
      <trkpt lat="44.156199004501104" lon="2.174709001556039">
        <ele>384.66000000000003</ele>
        <time>2025-04-25T14:06:37Z</time>
      </trkpt>
      <trkpt lat="44.156202021986246" lon="2.174427034333348">
        <ele>385.63</ele>
        <time>2025-04-25T14:06:38Z</time>
      </trkpt>
      <trkpt lat="44.15621099062264" lon="2.174139032140374">
        <ele>387.06999999999999</ele>
        <time>2025-04-25T14:06:39Z</time>
      </trkpt>
      <trkpt lat="44.156219037249684" lon="2.173841977491975">
        <ele>388.02999999999997</ele>
        <time>2025-04-25T14:06:40Z</time>
      </trkpt>
      <trkpt lat="44.15627502836287" lon="2.173296986147761">
        <ele>390.43000000000001</ele>
        <time>2025-04-25T14:06:42Z</time>
      </trkpt>
      <trkpt lat="44.156345017254353" lon="2.173049971461296">
        <ele>391.38999999999999</ele>
        <time>2025-04-25T14:06:43Z</time>
      </trkpt>
      <trkpt lat="44.156444007530808" lon="2.172813015058637">
        <ele>392.83999999999997</ele>
        <time>2025-04-25T14:06:44Z</time>
      </trkpt>
      <trkpt lat="44.157211035490036" lon="2.171259010210633">
        <ele>401.97000000000003</ele>
        <time>2025-04-25T14:06:51Z</time>
      </trkpt>
      <trkpt lat="44.157205000519753" lon="2.171089025214315">
        <ele>402.44999999999999</ele>
        <time>2025-04-25T14:06:52Z</time>
      </trkpt>
      <trkpt lat="44.157165018841624" lon="2.170916022732854">
        <ele>402.93000000000001</ele>
        <time>2025-04-25T14:06:53Z</time>
      </trkpt>
      <trkpt lat="44.15706804022193" lon="2.170798005536199">
        <ele>403.88999999999999</ele>
        <time>2025-04-25T14:06:54Z</time>
      </trkpt>
      <trkpt lat="44.15696200914681" lon="2.170674037188292">
        <ele>403.88999999999999</ele>
        <time>2025-04-25T14:06:55Z</time>
      </trkpt>
      <trkpt lat="44.156807027757168" lon="2.170579992234707">
        <ele>403.88999999999999</ele>
        <time>2025-04-25T14:06:56Z</time>
      </trkpt>
      <trkpt lat="44.156643999740481" lon="2.170481001958251">
        <ele>404.37</ele>
        <time>2025-04-25T14:06:57Z</time>
      </trkpt>
      <trkpt lat="44.156328001990914" lon="2.170288972556591">
        <ele>405.32999999999998</ele>
        <time>2025-04-25T14:06:59Z</time>
      </trkpt>
      <trkpt lat="44.156191041693091" lon="2.170167015865445">
        <ele>405.81</ele>
        <time>2025-04-25T14:07:00Z</time>
      </trkpt>
      <trkpt lat="44.156090039759874" lon="2.169998958706856">
        <ele>406.29000000000002</ele>
        <time>2025-04-25T14:07:01Z</time>
      </trkpt>
      <trkpt lat="44.156031031161547" lon="2.169802989810705">
        <ele>406.76999999999998</ele>
        <time>2025-04-25T14:07:02Z</time>
      </trkpt>
      <trkpt lat="44.155965987592936" lon="2.169584976509213">
        <ele>407.74000000000001</ele>
        <time>2025-04-25T14:07:03Z</time>
      </trkpt>
      <trkpt lat="44.155895998701453" lon="2.169349025934935">
        <ele>408.22000000000003</ele>
        <time>2025-04-25T14:07:04Z</time>
      </trkpt>
      <trkpt lat="44.155555022880435" lon="2.167568039149046">
        <ele>412.54000000000002</ele>
        <time>2025-04-25T14:07:11Z</time>
      </trkpt>
      <trkpt lat="44.15548000484705" lon="2.167371986433864">
        <ele>413.01999999999998</ele>
        <time>2025-04-25T14:07:12Z</time>
      </trkpt>
      <trkpt lat="44.155388977378607" lon="2.167223962023854">
        <ele>413.98000000000002</ele>
        <time>2025-04-25T14:07:13Z</time>
      </trkpt>
      <trkpt lat="44.155255034565926" lon="2.167075015604496">
        <ele>414.47000000000003</ele>
        <time>2025-04-25T14:07:14Z</time>
      </trkpt>
      <trkpt lat="44.155125031247735" lon="2.166988011449575">
        <ele>414.94999999999999</ele>
        <time>2025-04-25T14:07:15Z</time>
      </trkpt>
      <trkpt lat="44.154977006837726" lon="2.16688902117312">
        <ele>415.43000000000001</ele>
        <time>2025-04-25T14:07:16Z</time>
      </trkpt>
      <trkpt lat="44.153773030266166" lon="2.166216960176826">
        <ele>418.31</ele>
        <time>2025-04-25T14:07:24Z</time>
      </trkpt>
      <trkpt lat="44.152213996276259" lon="2.165613966062665">
        <ele>418.79000000000002</ele>
        <time>2025-04-25T14:07:33Z</time>
      </trkpt>
      <trkpt lat="44.149965969845653" lon="2.165026981383562">
        <ele>416.87</ele>
        <time>2025-04-25T14:07:45Z</time>
      </trkpt>
      <trkpt lat="44.149767989292741" lon="2.165074003860354">
        <ele>416.87</ele>
        <time>2025-04-25T14:07:46Z</time>
      </trkpt>
      <trkpt lat="44.14834801107645" lon="2.16545102186501">
        <ele>414.94999999999999</ele>
        <time>2025-04-25T14:07:54Z</time>
      </trkpt>
      <trkpt lat="44.147577965632081" lon="2.165713962167501">
        <ele>413.5</ele>
        <time>2025-04-25T14:07:59Z</time>
      </trkpt>
      <trkpt lat="44.1472730319947" lon="2.165904985740781">
        <ele>413.01999999999998</ele>
        <time>2025-04-25T14:08:02Z</time>
      </trkpt>
      <trkpt lat="44.14723003283143" lon="2.165937004610896">
        <ele>413.01999999999998</ele>
        <time>2025-04-25T14:08:03Z</time>
      </trkpt>
      <trkpt lat="44.14714403450489" lon="2.166001964360476">
        <ele>413.01999999999998</ele>
        <time>2025-04-25T14:08:04Z</time>
      </trkpt>
      <trkpt lat="44.147073039785028" lon="2.166064996272326">
        <ele>412.54000000000002</ele>
        <time>2025-04-25T14:08:05Z</time>
      </trkpt>
      <trkpt lat="44.146988969296217" lon="2.166140014305711">
        <ele>412.54000000000002</ele>
        <time>2025-04-25T14:08:06Z</time>
      </trkpt>
      <trkpt lat="44.146900959312916" lon="2.166217966005206">
        <ele>412.54000000000002</ele>
        <time>2025-04-25T14:08:07Z</time>
      </trkpt>
      <trkpt lat="44.146819990128279" lon="2.166288960725069">
        <ele>412.54000000000002</ele>
        <time>2025-04-25T14:08:08Z</time>
      </trkpt>
      <trkpt lat="44.146051034331322" lon="2.166947023943067">
        <ele>409.18000000000001</ele>
        <time>2025-04-25T14:08:19Z</time>
      </trkpt>
      <trkpt lat="44.145075967535377" lon="2.167720003053546">
        <ele>406.29000000000002</ele>
        <time>2025-04-25T14:08:32Z</time>
      </trkpt>
      <trkpt lat="44.144909000024199" lon="2.167756967246532">
        <ele>406.76999999999998</ele>
        <time>2025-04-25T14:08:34Z</time>
      </trkpt>
      <trkpt lat="44.143881965428591" lon="2.167984033003449">
        <ele>409.18000000000001</ele>
        <time>2025-04-25T14:08:44Z</time>
      </trkpt>
      <trkpt lat="44.143205964937806" lon="2.168090986087918">
        <ele>410.13999999999999</ele>
        <time>2025-04-25T14:08:51Z</time>
      </trkpt>
      <trkpt lat="44.143128013238311" lon="2.168057039380074">
        <ele>410.13999999999999</ele>
        <time>2025-04-25T14:08:52Z</time>
      </trkpt>
      <trkpt lat="44.143054001033306" lon="2.167990989983082">
        <ele>410.13999999999999</ele>
        <time>2025-04-25T14:08:53Z</time>
      </trkpt>
      <trkpt lat="44.142514038830996" lon="2.167146010324359">
        <ele>407.74000000000001</ele>
        <time>2025-04-25T14:09:02Z</time>
      </trkpt>
      <trkpt lat="44.142453018575907" lon="2.167070992290974">
        <ele>407.25999999999999</ele>
        <time>2025-04-25T14:09:03Z</time>
      </trkpt>
      <trkpt lat="44.142256965860724" lon="2.166833030059934">
        <ele>405.81</ele>
        <time>2025-04-25T14:09:06Z</time>
      </trkpt>
      <trkpt lat="44.141798978671432" lon="2.166232969611883">
        <ele>403.88999999999999</ele>
        <time>2025-04-25T14:09:13Z</time>
      </trkpt>
      <trkpt lat="44.141736030578613" lon="2.166149988770485">
        <ele>403.41000000000003</ele>
        <time>2025-04-25T14:09:14Z</time>
      </trkpt>
      <trkpt lat="44.141675010323524" lon="2.166069019585848">
        <ele>402.93000000000001</ele>
        <time>2025-04-25T14:09:15Z</time>
      </trkpt>
      <trkpt lat="44.141609966754913" lon="2.165983021259308">
        <ele>402.44999999999999</ele>
        <time>2025-04-25T14:09:16Z</time>
      </trkpt>
      <trkpt lat="44.141542995348573" lon="2.165894005447626">
        <ele>401.97000000000003</ele>
        <time>2025-04-25T14:09:17Z</time>
      </trkpt>
      <trkpt lat="44.141479041427374" lon="2.165808007121086">
        <ele>401.49000000000001</ele>
        <time>2025-04-25T14:09:18Z</time>
      </trkpt>
      <trkpt lat="44.140636995434761" lon="2.16467997059226">
        <ele>400.05000000000001</ele>
        <time>2025-04-25T14:09:30Z</time>
      </trkpt>
      <trkpt lat="44.139782041311264" lon="2.163973040878773">
        <ele>401.00999999999999</ele>
        <time>2025-04-25T14:09:39Z</time>
      </trkpt>
      <trkpt lat="44.139677016064525" lon="2.163919983431697">
        <ele>401.49000000000001</ele>
        <time>2025-04-25T14:09:40Z</time>
      </trkpt>
      <trkpt lat="44.139586994424462" lon="2.163688978180289">
        <ele>401.97000000000003</ele>
        <time>2025-04-25T14:09:42Z</time>
      </trkpt>
      <trkpt lat="44.139533014968038" lon="2.163653019815683">
        <ele>401.97000000000003</ele>
        <time>2025-04-25T14:09:43Z</time>
      </trkpt>
      <trkpt lat="44.139452967792749" lon="2.163650002330542">
        <ele>401.97000000000003</ele>
        <time>2025-04-25T14:09:44Z</time>
      </trkpt>
      <trkpt lat="44.139397982507944" lon="2.163705993443728">
        <ele>401.49000000000001</ele>
        <time>2025-04-25T14:09:45Z</time>
      </trkpt>
      <trkpt lat="44.139397982507944" lon="2.163791991770268">
        <ele>401.49000000000001</ele>
        <time>2025-04-25T14:09:46Z</time>
      </trkpt>
      <trkpt lat="44.139387002214789" lon="2.163996007293463">
        <ele>401.49000000000001</ele>
        <time>2025-04-25T14:09:47Z</time>
      </trkpt>
      <trkpt lat="44.139321958646178" lon="2.164045963436365">
        <ele>401.49000000000001</ele>
        <time>2025-04-25T14:09:48Z</time>
      </trkpt>
      <trkpt lat="44.139248030260205" lon="2.16409700922668">
        <ele>401.49000000000001</ele>
        <time>2025-04-25T14:09:49Z</time>
      </trkpt>
      <trkpt lat="44.139160020276904" lon="2.164153000339866">
        <ele>401.97000000000003</ele>
        <time>2025-04-25T14:09:50Z</time>
      </trkpt>
      <trkpt lat="44.138554008677602" lon="2.164573017507792">
        <ele>401.97000000000003</ele>
        <time>2025-04-25T14:09:56Z</time>
      </trkpt>
      <trkpt lat="44.138478990644217" lon="2.164680976420641">
        <ele>401.97000000000003</ele>
        <time>2025-04-25T14:09:57Z</time>
      </trkpt>
      <trkpt lat="44.138404978439212" lon="2.164788013324142">
        <ele>401.97000000000003</ele>
        <time>2025-04-25T14:09:58Z</time>
      </trkpt>
      <trkpt lat="44.137942967936397" lon="2.1656449791044">
        <ele>400.05000000000001</ele>
        <time>2025-04-25T14:10:06Z</time>
      </trkpt>
      <trkpt lat="44.137419015169144" lon="2.166872005909681">
        <ele>401.00999999999999</ele>
        <time>2025-04-25T14:10:15Z</time>
      </trkpt>
      <trkpt lat="44.136780984699726" lon="2.168482001870871">
        <ele>396.19999999999999</ele>
        <time>2025-04-25T14:10:26Z</time>
      </trkpt>
      <trkpt lat="44.136026026681066" lon="2.170275980606675">
        <ele>394.27999999999997</ele>
        <time>2025-04-25T14:10:38Z</time>
      </trkpt>
      <trkpt lat="44.135703993961215" lon="2.170746959745884">
        <ele>394.27999999999997</ele>
        <time>2025-04-25T14:10:41Z</time>
      </trkpt>
      <trkpt lat="44.135560998693109" lon="2.170889033004642">
        <ele>393.80000000000001</ele>
        <time>2025-04-25T14:10:42Z</time>
      </trkpt>
      <trkpt lat="44.133954020217061" lon="2.172184959053993">
        <ele>392.83999999999997</ele>
        <time>2025-04-25T14:10:51Z</time>
      </trkpt>
      <trkpt lat="44.132013022899628" lon="2.173641985282302">
        <ele>390.91000000000003</ele>
        <time>2025-04-25T14:11:01Z</time>
      </trkpt>
      <trkpt lat="44.131821999326348" lon="2.173738041892648">
        <ele>390.91000000000003</ele>
        <time>2025-04-25T14:11:02Z</time>
      </trkpt>
      <trkpt lat="44.130351981148124" lon="2.174083963036537">
        <ele>389.47000000000003</ele>
        <time>2025-04-25T14:11:09Z</time>
      </trkpt>
      <trkpt lat="44.128368990495801" lon="2.173867039382458">
        <ele>382.25999999999999</ele>
        <time>2025-04-25T14:11:20Z</time>
      </trkpt>
      <trkpt lat="44.128004964441061" lon="2.173792021349073">
        <ele>380.33999999999997</ele>
        <time>2025-04-25T14:11:22Z</time>
      </trkpt>
      <trkpt lat="44.127815030515194" lon="2.17372102662921">
        <ele>379.86000000000001</ele>
        <time>2025-04-25T14:11:23Z</time>
      </trkpt>
      <trkpt lat="44.127643033862114" lon="2.173617007210851">
        <ele>379.38</ele>
        <time>2025-04-25T14:11:24Z</time>
      </trkpt>
      <trkpt lat="44.126384994015098" lon="2.172868000343442">
        <ele>377.44999999999999</ele>
        <time>2025-04-25T14:11:31Z</time>
      </trkpt>
      <trkpt lat="44.126200005412102" lon="2.172792982310057">
        <ele>377.44999999999999</ele>
        <time>2025-04-25T14:11:32Z</time>
      </trkpt>
      <trkpt lat="44.124297983944416" lon="2.17221999540925">
        <ele>376.49000000000001</ele>
        <time>2025-04-25T14:11:41Z</time>
      </trkpt>
      <trkpt lat="44.123393995687366" lon="2.171952025964856">
        <ele>375.52999999999997</ele>
        <time>2025-04-25T14:11:47Z</time>
      </trkpt>
      <trkpt lat="44.122800976037979" lon="2.171753961592913">
        <ele>376.00999999999999</ele>
        <time>2025-04-25T14:11:54Z</time>
      </trkpt>
      <trkpt lat="44.121863041073084" lon="2.171289017423987">
        <ele>373.61000000000001</ele>
        <time>2025-04-25T14:12:01Z</time>
      </trkpt>
      <trkpt lat="44.121732031926513" lon="2.171203019097447">
        <ele>372.64999999999998</ele>
        <time>2025-04-25T14:12:02Z</time>
      </trkpt>
      <trkpt lat="44.121609991416335" lon="2.171057006344199">
        <ele>371.69</ele>
        <time>2025-04-25T14:12:03Z</time>
      </trkpt>
      <trkpt lat="44.121531033888459" lon="2.170877968892455">
        <ele>370.73000000000002</ele>
        <time>2025-04-25T14:12:04Z</time>
      </trkpt>
      <trkpt lat="44.121464984491467" lon="2.170681999996305">
        <ele>369.75999999999999</ele>
        <time>2025-04-25T14:12:05Z</time>
      </trkpt>
      <trkpt lat="44.121425002813339" lon="2.170467004179955">
        <ele>368.80000000000001</ele>
        <time>2025-04-25T14:12:06Z</time>
      </trkpt>
      <trkpt lat="44.121436988934875" lon="2.170224012807012">
        <ele>367.83999999999997</ele>
        <time>2025-04-25T14:12:07Z</time>
      </trkpt>
      <trkpt lat="44.121466996148229" lon="2.169976998120546">
        <ele>366.88</ele>
        <time>2025-04-25T14:12:08Z</time>
      </trkpt>
      <trkpt lat="44.121520975604653" lon="2.169730989262462">
        <ele>365.44</ele>
        <time>2025-04-25T14:12:09Z</time>
      </trkpt>
      <trkpt lat="44.121935041621327" lon="2.167823016643524">
        <ele>358.23000000000002</ele>
        <time>2025-04-25T14:12:17Z</time>
      </trkpt>
      <trkpt lat="44.121977034956217" lon="2.167627969756723">
        <ele>357.75</ele>
        <time>2025-04-25T14:12:18Z</time>
      </trkpt>
      <trkpt lat="44.122060015797615" lon="2.167246006429195">
        <ele>356.79000000000002</ele>
        <time>2025-04-25T14:12:20Z</time>
      </trkpt>
      <trkpt lat="44.122039983049035" lon="2.167049031704664">
        <ele>355.82999999999998</ele>
        <time>2025-04-25T14:12:21Z</time>
      </trkpt>
      <trkpt lat="44.122021039947867" lon="2.166860019788146">
        <ele>354.86000000000001</ele>
        <time>2025-04-25T14:12:22Z</time>
      </trkpt>
      <trkpt lat="44.121949961408973" lon="2.166703026741743">
        <ele>353.89999999999998</ele>
        <time>2025-04-25T14:12:23Z</time>
      </trkpt>
      <trkpt lat="44.121858011931181" lon="2.166556008160114">
        <ele>353.42000000000002</ele>
        <time>2025-04-25T14:12:24Z</time>
      </trkpt>
      <trkpt lat="44.121731026098132" lon="2.166498005390167">
        <ele>352.45999999999998</ele>
        <time>2025-04-25T14:12:25Z</time>
      </trkpt>
      <trkpt lat="44.121591970324516" lon="2.166472021490336">
        <ele>351.98000000000002</ele>
        <time>2025-04-25T14:12:26Z</time>
      </trkpt>
      <trkpt lat="44.121446963399649" lon="2.166544022038579">
        <ele>351.01999999999998</ele>
        <time>2025-04-25T14:12:27Z</time>
      </trkpt>
      <trkpt lat="44.121308997273445" lon="2.166629014536738">
        <ele>350.06</ele>
        <time>2025-04-25T14:12:28Z</time>
      </trkpt>
      <trkpt lat="44.121187962591648" lon="2.166775027289987">
        <ele>349.10000000000002</ele>
        <time>2025-04-25T14:12:29Z</time>
      </trkpt>
      <trkpt lat="44.121060976758599" lon="2.166929002851248">
        <ele>348.62</ele>
        <time>2025-04-25T14:12:30Z</time>
      </trkpt>
      <trkpt lat="44.120929967612028" lon="2.167088007554412">
        <ele>348.13</ele>
        <time>2025-04-25T14:12:31Z</time>
      </trkpt>
      <trkpt lat="44.119864040985703" lon="2.16835199855268">
        <ele>343.32999999999998</ele>
        <time>2025-04-25T14:12:39Z</time>
      </trkpt>
      <trkpt lat="44.119734037667513" lon="2.168439002707601">
        <ele>342.37</ele>
        <time>2025-04-25T14:12:40Z</time>
      </trkpt>
      <trkpt lat="44.119602022692561" lon="2.168440008535981">
        <ele>341.41000000000003</ele>
        <time>2025-04-25T14:12:41Z</time>
      </trkpt>
      <trkpt lat="44.119456009939313" lon="2.168430034071207">
        <ele>339.95999999999998</ele>
        <time>2025-04-25T14:12:42Z</time>
      </trkpt>
      <trkpt lat="44.119295999407768" lon="2.168390974402428">
        <ele>339</ele>
        <time>2025-04-25T14:12:43Z</time>
      </trkpt>
      <trkpt lat="44.11822403781116" lon="2.168020997196436">
        <ele>331.79000000000002</ele>
        <time>2025-04-25T14:12:49Z</time>
      </trkpt>
      <trkpt lat="44.118036031723022" lon="2.168012028560042">
        <ele>330.35000000000002</ele>
        <time>2025-04-25T14:12:50Z</time>
      </trkpt>
      <trkpt lat="44.117852970957756" lon="2.168034994974732">
        <ele>329.38999999999999</ele>
        <time>2025-04-25T14:12:51Z</time>
      </trkpt>
      <trkpt lat="44.117676028981805" lon="2.168083023279905">
        <ele>327.94999999999999</ele>
        <time>2025-04-25T14:12:52Z</time>
      </trkpt>
      <trkpt lat="44.117505960166454" lon="2.168135996907949">
        <ele>326.99000000000001</ele>
        <time>2025-04-25T14:12:53Z</time>
      </trkpt>
      <trkpt lat="44.11670196801424" lon="2.168463980779052">
        <ele>323.13999999999999</ele>
        <time>2025-04-25T14:12:58Z</time>
      </trkpt>
      <trkpt lat="44.116262001916766" lon="2.168680988252163">
        <ele>320.74000000000001</ele>
        <time>2025-04-25T14:13:01Z</time>
      </trkpt>
      <trkpt lat="44.115376034751534" lon="2.169191027060151">
        <ele>315.44999999999999</ele>
        <time>2025-04-25T14:13:07Z</time>
      </trkpt>
      <trkpt lat="44.115233961492777" lon="2.169227991253138">
        <ele>314.97000000000003</ele>
        <time>2025-04-25T14:13:08Z</time>
      </trkpt>
      <trkpt lat="44.115079985931516" lon="2.169237965717912">
        <ele>314.00999999999999</ele>
        <time>2025-04-25T14:13:09Z</time>
      </trkpt>
      <trkpt lat="44.114931961521506" lon="2.169147022068501">
        <ele>313.52999999999997</ele>
        <time>2025-04-25T14:13:10Z</time>
      </trkpt>
      <trkpt lat="44.114776980131865" lon="2.169050965458155">
        <ele>313.05000000000001</ele>
        <time>2025-04-25T14:13:11Z</time>
      </trkpt>
      <trkpt lat="44.114618981257081" lon="2.16895398683846">
        <ele>312.56999999999999</ele>
        <time>2025-04-25T14:13:12Z</time>
      </trkpt>
      <trkpt lat="44.113015020266175" lon="2.167812958359718">
        <ele>310.16000000000003</ele>
        <time>2025-04-25T14:13:23Z</time>
      </trkpt>
      <trkpt lat="44.11154399625957" lon="2.167107034474611">
        <ele>309.68000000000001</ele>
        <time>2025-04-25T14:13:32Z</time>
      </trkpt>
      <trkpt lat="44.109762003645301" lon="2.166795982047916">
        <ele>314.49000000000001</ele>
        <time>2025-04-25T14:13:42Z</time>
      </trkpt>
      <trkpt lat="44.109570980072021" lon="2.166795982047916">
        <ele>315.44999999999999</ele>
        <time>2025-04-25T14:13:43Z</time>
      </trkpt>
      <trkpt lat="44.109063036739826" lon="2.16699899174273">
        <ele>318.81</ele>
        <time>2025-04-25T14:13:46Z</time>
      </trkpt>
      <trkpt lat="44.108888022601604" lon="2.167085995897651">
        <ele>319.77999999999997</ele>
        <time>2025-04-25T14:13:47Z</time>
      </trkpt>
      <trkpt lat="44.108559032902122" lon="2.16736301779747">
        <ele>322.18000000000001</ele>
        <time>2025-04-25T14:13:49Z</time>
      </trkpt>
      <trkpt lat="44.108397010713816" lon="2.167521016672254">
        <ele>323.13999999999999</ele>
        <time>2025-04-25T14:13:50Z</time>
      </trkpt>
      <trkpt lat="44.106693975627422" lon="2.169107040390372">
        <ele>335.16000000000003</ele>
        <time>2025-04-25T14:14:01Z</time>
      </trkpt>
      <trkpt lat="44.106155019253492" lon="2.169339973479509">
        <ele>337.07999999999998</ele>
        <time>2025-04-25T14:14:04Z</time>
      </trkpt>
      <trkpt lat="44.105966007336974" lon="2.169401999562979">
        <ele>337.56</ele>
        <time>2025-04-25T14:14:05Z</time>
      </trkpt>
      <trkpt lat="44.104715008288622" lon="2.169353971257806">
        <ele>340.44</ele>
        <time>2025-04-25T14:14:12Z</time>
      </trkpt>
      <trkpt lat="44.103480018675327" lon="2.168936971575022">
        <ele>349.10000000000002</ele>
        <time>2025-04-25T14:14:20Z</time>
      </trkpt>
      <trkpt lat="44.102354999631643" lon="2.168623991310597">
        <ele>354.38</ele>
        <time>2025-04-25T14:14:29Z</time>
      </trkpt>
      <trkpt lat="44.101162003353238" lon="2.168307993561029">
        <ele>354.86000000000001</ele>
        <time>2025-04-25T14:14:39Z</time>
      </trkpt>
      <trkpt lat="44.100118959322572" lon="2.168263988569379">
        <ele>353.42000000000002</ele>
        <time>2025-04-25T14:14:48Z</time>
      </trkpt>
      <trkpt lat="44.099122015759349" lon="2.168447971343994">
        <ele>353.89999999999998</ele>
        <time>2025-04-25T14:14:56Z</time>
      </trkpt>
      <trkpt lat="44.097758028656244" lon="2.168416958302259">
        <ele>352.94</ele>
        <time>2025-04-25T14:15:05Z</time>
      </trkpt>
      <trkpt lat="44.095498016104102" lon="2.168100960552692">
        <ele>347.64999999999998</ele>
        <time>2025-04-25T14:15:17Z</time>
      </trkpt>
      <trkpt lat="44.092878000810742" lon="2.167738024145365">
        <ele>346.20999999999998</ele>
        <time>2025-04-25T14:15:31Z</time>
      </trkpt>
      <trkpt lat="44.091361965984106" lon="2.1676429733634">
        <ele>343.81</ele>
        <time>2025-04-25T14:15:39Z</time>
      </trkpt>
      <trkpt lat="44.09117697738111" lon="2.167683960869908">
        <ele>343.32999999999998</ele>
        <time>2025-04-25T14:15:40Z</time>
      </trkpt>
      <trkpt lat="44.090998023748398" lon="2.167765013873577">
        <ele>343.32999999999998</ele>
        <time>2025-04-25T14:15:41Z</time>
      </trkpt>
      <trkpt lat="44.090814962983131" lon="2.167867021635175">
        <ele>342.85000000000002</ele>
        <time>2025-04-25T14:15:42Z</time>
      </trkpt>
      <trkpt lat="44.090627040714025" lon="2.167972968891263">
        <ele>341.88999999999999</ele>
        <time>2025-04-25T14:15:43Z</time>
      </trkpt>
      <trkpt lat="44.090441968291998" lon="2.168076988309622">
        <ele>340.92000000000002</ele>
        <time>2025-04-25T14:15:44Z</time>
      </trkpt>
      <trkpt lat="44.09029402770102" lon="2.168255019932985">
        <ele>339.95999999999998</ele>
        <time>2025-04-25T14:15:45Z</time>
      </trkpt>
      <trkpt lat="44.090151032432914" lon="2.168433973565698">
        <ele>339.48000000000002</ele>
        <time>2025-04-25T14:15:46Z</time>
      </trkpt>
      <trkpt lat="44.090007031336427" lon="2.168613011017442">
        <ele>338.51999999999998</ele>
        <time>2025-04-25T14:15:47Z</time>
      </trkpt>
      <trkpt lat="44.089897982776165" lon="2.168834041804075">
        <ele>337.56</ele>
        <time>2025-04-25T14:15:48Z</time>
      </trkpt>
      <trkpt lat="44.089788012206554" lon="2.169061023741961">
        <ele>336.12</ele>
        <time>2025-04-25T14:15:49Z</time>
      </trkpt>
      <trkpt lat="44.089677035808563" lon="2.169288005679846">
        <ele>335.16000000000003</ele>
        <time>2025-04-25T14:15:50Z</time>
      </trkpt>
      <trkpt lat="44.089590031653643" lon="2.16953300870955">
        <ele>333.70999999999998</ele>
        <time>2025-04-25T14:15:51Z</time>
      </trkpt>
      <trkpt lat="44.089514007791877" lon="2.16979100368917">
        <ele>332.26999999999998</ele>
        <time>2025-04-25T14:15:52Z</time>
      </trkpt>
      <trkpt lat="44.089437983930111" lon="2.17004899866879">
        <ele>330.82999999999998</ele>
        <time>2025-04-25T14:15:53Z</time>
      </trkpt>
      <trkpt lat="44.089051997289062" lon="2.171287005767226">
        <ele>323.62</ele>
        <time>2025-04-25T14:15:58Z</time>
      </trkpt>
      <trkpt lat="44.088944038376212" lon="2.171495966613293">
        <ele>321.69999999999999</ele>
        <time>2025-04-25T14:15:59Z</time>
      </trkpt>
      <trkpt lat="44.088815040886402" lon="2.171695036813617">
        <ele>319.77999999999997</ele>
        <time>2025-04-25T14:16:00Z</time>
      </trkpt>
      <trkpt lat="44.088526032865047" lon="2.172012040391564">
        <ele>316.41000000000003</ele>
        <time>2025-04-25T14:16:02Z</time>
      </trkpt>
      <trkpt lat="44.088365016505122" lon="2.172131985425949">
        <ele>314.97000000000003</ele>
        <time>2025-04-25T14:16:03Z</time>
      </trkpt>
      <trkpt lat="44.088184973224998" lon="2.172225024551153">
        <ele>313.05000000000001</ele>
        <time>2025-04-25T14:16:04Z</time>
      </trkpt>
      <trkpt lat="44.088003002107143" lon="2.172319991514087">
        <ele>311.12</ele>
        <time>2025-04-25T14:16:05Z</time>
      </trkpt>
      <trkpt lat="44.087813990190625" lon="2.17241101898253">
        <ele>309.19999999999999</ele>
        <time>2025-04-25T14:16:06Z</time>
      </trkpt>
      <trkpt lat="44.086066028103232" lon="2.173019964247942">
        <ele>294.30000000000001</ele>
        <time>2025-04-25T14:16:15Z</time>
      </trkpt>
      <trkpt lat="44.085707031190395" lon="2.173076961189508">
        <ele>291.89999999999998</ele>
        <time>2025-04-25T14:16:17Z</time>
      </trkpt>
      <trkpt lat="44.085145024582744" lon="2.173110991716385">
        <ele>288.52999999999997</ele>
        <time>2025-04-25T14:16:20Z</time>
      </trkpt>
      <trkpt lat="44.08455896191299" lon="2.173106968402863">
        <ele>285.64999999999998</ele>
        <time>2025-04-25T14:16:23Z</time>
      </trkpt>
      <trkpt lat="44.084337009117007" lon="2.173125995323062">
        <ele>284.20999999999998</ele>
        <time>2025-04-25T14:16:24Z</time>
      </trkpt>
      <trkpt lat="44.084159983322024" lon="2.173182992264628">
        <ele>283.25</ele>
        <time>2025-04-25T14:16:25Z</time>
      </trkpt>
      <trkpt lat="44.083968037739396" lon="2.173244012519717">
        <ele>282.27999999999997</ele>
        <time>2025-04-25T14:16:26Z</time>
      </trkpt>
      <trkpt lat="44.083786988630891" lon="2.173303021118045">
        <ele>281.31999999999999</ele>
        <time>2025-04-25T14:16:27Z</time>
      </trkpt>
      <trkpt lat="44.083618009462953" lon="2.173319030553103">
        <ele>280.36000000000001</ele>
        <time>2025-04-25T14:16:28Z</time>
      </trkpt>
      <trkpt lat="44.083414999768138" lon="2.173319030553103">
        <ele>279.39999999999998</ele>
        <time>2025-04-25T14:16:29Z</time>
      </trkpt>
      <trkpt lat="44.083252977579832" lon="2.173237977549434">
        <ele>278.44</ele>
        <time>2025-04-25T14:16:30Z</time>
      </trkpt>
      <trkpt lat="44.083065977320075" lon="2.1731430105865">
        <ele>277.48000000000002</ele>
        <time>2025-04-25T14:16:31Z</time>
      </trkpt>
      <trkpt lat="44.082885012030602" lon="2.173001021146774">
        <ele>276.51999999999998</ele>
        <time>2025-04-25T14:16:32Z</time>
      </trkpt>
      <trkpt lat="44.082703962922096" lon="2.172844028100371">
        <ele>275.56</ele>
        <time>2025-04-25T14:16:33Z</time>
      </trkpt>
      <trkpt lat="44.082544958218932" lon="2.17264898121357">
        <ele>274.58999999999997</ele>
        <time>2025-04-25T14:16:34Z</time>
      </trkpt>
      <trkpt lat="44.082407997921109" lon="2.172419987618923">
        <ele>274.11000000000001</ele>
        <time>2025-04-25T14:16:35Z</time>
      </trkpt>
      <trkpt lat="44.082271037623286" lon="2.172189988195896">
        <ele>273.14999999999998</ele>
        <time>2025-04-25T14:16:36Z</time>
      </trkpt>
      <trkpt lat="44.082156037911773" lon="2.171949008479714">
        <ele>272.19</ele>
        <time>2025-04-25T14:16:37Z</time>
      </trkpt>
      <trkpt lat="44.081492023542523" lon="2.17073799110949">
        <ele>271.23000000000002</ele>
        <time>2025-04-25T14:16:43Z</time>
      </trkpt>
      <trkpt lat="44.081339975818992" lon="2.170609999448061">
        <ele>272.19</ele>
        <time>2025-04-25T14:16:44Z</time>
      </trkpt>
      <trkpt lat="44.081178037449718" lon="2.170498017221689">
        <ele>273.14999999999998</ele>
        <time>2025-04-25T14:16:45Z</time>
      </trkpt>
      <trkpt lat="44.081009980291128" lon="2.170448983088136">
        <ele>274.11000000000001</ele>
        <time>2025-04-25T14:16:46Z</time>
      </trkpt>
      <trkpt lat="44.080829015001655" lon="2.170402966439724">
        <ele>275.06999999999999</ele>
        <time>2025-04-25T14:16:47Z</time>
      </trkpt>
      <trkpt lat="44.080647965893149" lon="2.170389974489808">
        <ele>276.04000000000002</ele>
        <time>2025-04-25T14:16:48Z</time>
      </trkpt>
      <trkpt lat="44.080459037795663" lon="2.17041595838964">
        <ele>277</ele>
        <time>2025-04-25T14:16:49Z</time>
      </trkpt>
      <trkpt lat="44.080274971202016" lon="2.170471027493477">
        <ele>278.44</ele>
        <time>2025-04-25T14:16:50Z</time>
      </trkpt>
      <trkpt lat="44.079206027090549" lon="2.170874029397965">
        <ele>283.25</ele>
        <time>2025-04-25T14:16:56Z</time>
      </trkpt>
      <trkpt lat="44.077280033379793" lon="2.171850018203259">
        <ele>294.77999999999997</ele>
        <time>2025-04-25T14:17:07Z</time>
      </trkpt>
      <trkpt lat="44.076613001525402" lon="2.17219702899456">
        <ele>300.55000000000001</ele>
        <time>2025-04-25T14:17:11Z</time>
      </trkpt>
      <trkpt lat="44.076433964073658" lon="2.172250002622604">
        <ele>301.99000000000001</ele>
        <time>2025-04-25T14:17:12Z</time>
      </trkpt>
      <trkpt lat="44.076254004612565" lon="2.172301970422268">
        <ele>303.43000000000001</ele>
        <time>2025-04-25T14:17:13Z</time>
      </trkpt>
      <trkpt lat="44.07607102766633" lon="2.172310017049313">
        <ele>304.88</ele>
        <time>2025-04-25T14:17:14Z</time>
      </trkpt>
      <trkpt lat="44.075882015749812" lon="2.17228596098721">
        <ele>306.31999999999999</ele>
        <time>2025-04-25T14:17:15Z</time>
      </trkpt>
      <trkpt lat="44.07568302936852" lon="2.172255031764507">
        <ele>307.27999999999997</ele>
        <time>2025-04-25T14:17:16Z</time>
      </trkpt>
      <trkpt lat="44.075481025502086" lon="2.172216977924109">
        <ele>308.72000000000003</ele>
        <time>2025-04-25T14:17:17Z</time>
      </trkpt>
      <trkpt lat="44.075290001928806" lon="2.172126034274697">
        <ele>309.68000000000001</ele>
        <time>2025-04-25T14:17:18Z</time>
      </trkpt>
      <trkpt lat="44.075101995840669" lon="2.172036012634635">
        <ele>311.12</ele>
        <time>2025-04-25T14:17:19Z</time>
      </trkpt>
      <trkpt lat="44.074920024722815" lon="2.17193802818656">
        <ele>312.08999999999997</ele>
        <time>2025-04-25T14:17:20Z</time>
      </trkpt>
      <trkpt lat="44.072755984961987" lon="2.170614022761583">
        <ele>322.18000000000001</ele>
        <time>2025-04-25T14:17:32Z</time>
      </trkpt>
      <trkpt lat="44.072585999965668" lon="2.170468010008335">
        <ele>322.66000000000003</ele>
        <time>2025-04-25T14:17:33Z</time>
      </trkpt>
      <trkpt lat="44.072406962513924" lon="2.170315040275455">
        <ele>322.66000000000003</ele>
        <time>2025-04-25T14:17:34Z</time>
      </trkpt>
      <trkpt lat="44.070758996531367" lon="2.168511003255844">
        <ele>326.01999999999998</ele>
        <time>2025-04-25T14:17:45Z</time>
      </trkpt>
      <trkpt lat="44.070397987961769" lon="2.168295001611114">
        <ele>326.01999999999998</ele>
        <time>2025-04-25T14:17:47Z</time>
      </trkpt>
      <trkpt lat="44.070195984095335" lon="2.168221995234489">
        <ele>325.54000000000002</ele>
        <time>2025-04-25T14:17:48Z</time>
      </trkpt>
      <trkpt lat="44.06999297440052" lon="2.168174972757697">
        <ele>325.06</ele>
        <time>2025-04-25T14:17:49Z</time>
      </trkpt>
      <trkpt lat="44.069573963060975" lon="2.168118981644511">
        <ele>324.10000000000002</ele>
        <time>2025-04-25T14:17:51Z</time>
      </trkpt>
      <trkpt lat="44.069381011649966" lon="2.168129961937666">
        <ele>323.13999999999999</ele>
        <time>2025-04-25T14:17:52Z</time>
      </trkpt>
      <trkpt lat="44.069189988076687" lon="2.168187964707613">
        <ele>322.66000000000003</ele>
        <time>2025-04-25T14:17:53Z</time>
      </trkpt>
      <trkpt lat="44.06900399364531" lon="2.16824303381145">
        <ele>322.18000000000001</ele>
        <time>2025-04-25T14:17:54Z</time>
      </trkpt>
      <trkpt lat="44.068823028355837" lon="2.168298019096255">
        <ele>321.69999999999999</ele>
        <time>2025-04-25T14:17:55Z</time>
      </trkpt>
      <trkpt lat="44.068651031702757" lon="2.168406983837485">
        <ele>321.69999999999999</ele>
        <time>2025-04-25T14:17:56Z</time>
      </trkpt>
      <trkpt lat="44.068490015342832" lon="2.168538998812437">
        <ele>321.22000000000003</ele>
        <time>2025-04-25T14:17:57Z</time>
      </trkpt>
      <trkpt lat="44.068334028124809" lon="2.168684005737305">
        <ele>321.22000000000003</ele>
        <time>2025-04-25T14:17:58Z</time>
      </trkpt>
      <trkpt lat="44.067449988797307" lon="2.169541977345944">
        <ele>319.77999999999997</ele>
        <time>2025-04-25T14:18:05Z</time>
      </trkpt>
      <trkpt lat="44.066612971946597" lon="2.170378994196653">
        <ele>317.37</ele>
        <time>2025-04-25T14:18:14Z</time>
      </trkpt>
      <trkpt lat="44.066379033029079" lon="2.17065199278295">
        <ele>317.85000000000002</ele>
        <time>2025-04-25T14:18:19Z</time>
      </trkpt>
      <trkpt lat="44.06567201949656" lon="2.170943012461066">
        <ele>316.41000000000003</ele>
        <time>2025-04-25T14:18:26Z</time>
      </trkpt>
      <trkpt lat="44.064195966348052" lon="2.17155396938324">
        <ele>314.00999999999999</ele>
        <time>2025-04-25T14:18:37Z</time>
      </trkpt>
      <trkpt lat="44.062857963144779" lon="2.171940039843321">
        <ele>311.60000000000002</ele>
        <time>2025-04-25T14:18:46Z</time>
      </trkpt>
      <trkpt lat="44.061285015195608" lon="2.17209099791944">
        <ele>303.43000000000001</ele>
        <time>2025-04-25T14:18:56Z</time>
      </trkpt>
      <trkpt lat="44.060610020533204" lon="2.172266012057662">
        <ele>299.58999999999997</ele>
        <time>2025-04-25T14:19:00Z</time>
      </trkpt>
      <trkpt lat="44.060444980859756" lon="2.172362990677357">
        <ele>298.63</ele>
        <time>2025-04-25T14:19:01Z</time>
      </trkpt>
      <trkpt lat="44.060303997248411" lon="2.172503974288702">
        <ele>297.67000000000002</ele>
        <time>2025-04-25T14:19:02Z</time>
      </trkpt>
      <trkpt lat="44.060166031122208" lon="2.172654010355473">
        <ele>296.69999999999999</ele>
        <time>2025-04-25T14:19:03Z</time>
      </trkpt>
      <trkpt lat="44.060041978955269" lon="2.172835981473327">
        <ele>295.74000000000001</ele>
        <time>2025-04-25T14:19:04Z</time>
      </trkpt>
      <trkpt lat="44.059931002557278" lon="2.173023987561464">
        <ele>294.30000000000001</ele>
        <time>2025-04-25T14:19:05Z</time>
      </trkpt>
      <trkpt lat="44.059104965999722" lon="2.174339024350047">
        <ele>286.13</ele>
        <time>2025-04-25T14:19:12Z</time>
      </trkpt>
      <trkpt lat="44.058972029015422" lon="2.174489982426167">
        <ele>285.17000000000002</ele>
        <time>2025-04-25T14:19:13Z</time>
      </trkpt>
      <trkpt lat="44.058816963806748" lon="2.174605987966061">
        <ele>284.20999999999998</ele>
        <time>2025-04-25T14:19:14Z</time>
      </trkpt>
      <trkpt lat="44.058659970760345" lon="2.174687962979078">
        <ele>283.25</ele>
        <time>2025-04-25T14:19:15Z</time>
      </trkpt>
      <trkpt lat="44.058494009077549" lon="2.174753006547689">
        <ele>282.27999999999997</ele>
        <time>2025-04-25T14:19:16Z</time>
      </trkpt>
      <trkpt lat="44.058320000767708" lon="2.174804974347353">
        <ele>281.31999999999999</ele>
        <time>2025-04-25T14:19:17Z</time>
      </trkpt>
      <trkpt lat="44.05733403749764" lon="2.174872029572725">
        <ele>276.04000000000002</ele>
        <time>2025-04-25T14:19:23Z</time>
      </trkpt>
      <trkpt lat="44.057188024744391" lon="2.174856020137668">
        <ele>275.56</ele>
        <time>2025-04-25T14:19:24Z</time>
      </trkpt>
      <trkpt lat="44.057044023647904" lon="2.174835987389088">
        <ele>274.58999999999997</ele>
        <time>2025-04-25T14:19:25Z</time>
      </trkpt>
      <trkpt lat="44.056908991187811" lon="2.174790976569057">
        <ele>273.63</ele>
        <time>2025-04-25T14:19:26Z</time>
      </trkpt>
      <trkpt lat="44.056773036718369" lon="2.174686035141349">
        <ele>273.14999999999998</ele>
        <time>2025-04-25T14:19:27Z</time>
      </trkpt>
      <trkpt lat="44.056659964844584" lon="2.17458201572299">
        <ele>272.19</ele>
        <time>2025-04-25T14:19:28Z</time>
      </trkpt>
      <trkpt lat="44.056542031466961" lon="2.174455029889941">
        <ele>271.70999999999998</ele>
        <time>2025-04-25T14:19:29Z</time>
      </trkpt>
      <trkpt lat="44.056452009826899" lon="2.174321003258228">
        <ele>270.75</ele>
        <time>2025-04-25T14:19:30Z</time>
      </trkpt>
      <trkpt lat="44.056385038420558" lon="2.174135008826852">
        <ele>269.79000000000002</ele>
        <time>2025-04-25T14:19:31Z</time>
      </trkpt>
      <trkpt lat="44.056330975145102" lon="2.173972986638546">
        <ele>268.82999999999998</ele>
        <time>2025-04-25T14:19:32Z</time>
      </trkpt>
      <trkpt lat="44.056279007345438" lon="2.173815993592143">
        <ele>267.86000000000001</ele>
        <time>2025-04-25T14:19:33Z</time>
      </trkpt>
      <trkpt lat="44.056227961555123" lon="2.173663023859263">
        <ele>266.89999999999998</ele>
        <time>2025-04-25T14:19:34Z</time>
      </trkpt>
      <trkpt lat="44.056179011240602" lon="2.173516005277634">
        <ele>265.45999999999998</ele>
        <time>2025-04-25T14:19:35Z</time>
      </trkpt>
      <trkpt lat="44.055992010980844" lon="2.172189988195896">
        <ele>258.25</ele>
        <time>2025-04-25T14:19:43Z</time>
      </trkpt>
      <trkpt lat="44.055992010980844" lon="2.172030983492732">
        <ele>257.76999999999998</ele>
        <time>2025-04-25T14:19:44Z</time>
      </trkpt>
      <trkpt lat="44.056016989052296" lon="2.171865021809936">
        <ele>256.81</ele>
        <time>2025-04-25T14:19:45Z</time>
      </trkpt>
      <trkpt lat="44.056051019579172" lon="2.17170299962163">
        <ele>255.84999999999999</ele>
        <time>2025-04-25T14:19:46Z</time>
      </trkpt>
      <trkpt lat="44.056097958236933" lon="2.171555981040001">
        <ele>254.88999999999999</ele>
        <time>2025-04-25T14:19:47Z</time>
      </trkpt>
      <trkpt lat="44.056334998458624" lon="2.170659033581615">
        <ele>251.03999999999999</ele>
        <time>2025-04-25T14:19:53Z</time>
      </trkpt>
      <trkpt lat="44.056334998458624" lon="2.17049902305007">
        <ele>250.56</ele>
        <time>2025-04-25T14:19:54Z</time>
      </trkpt>
      <trkpt lat="44.056312032043934" lon="2.17037103138864">
        <ele>249.12</ele>
        <time>2025-04-25T14:19:55Z</time>
      </trkpt>
      <trkpt lat="44.056275989860296" lon="2.17022200115025">
        <ele>248.16</ele>
        <time>2025-04-25T14:19:56Z</time>
      </trkpt>
      <trkpt lat="44.056238019838929" lon="2.170065008103848">
        <ele>246.72</ele>
        <time>2025-04-25T14:19:57Z</time>
      </trkpt>
      <trkpt lat="44.056008020415902" lon="2.168952981010079">
        <ele>238.53999999999999</ele>
        <time>2025-04-25T14:20:04Z</time>
      </trkpt>
      <trkpt lat="44.05600399710238" lon="2.168788025155664">
        <ele>237.09999999999999</ele>
        <time>2025-04-25T14:20:05Z</time>
      </trkpt>
      <trkpt lat="44.055998967960477" lon="2.168627008795738">
        <ele>236.13999999999999</ele>
        <time>2025-04-25T14:20:06Z</time>
      </trkpt>
      <trkpt lat="44.056244976818562" lon="2.167030004784465">
        <ele>228.93000000000001</ele>
        <time>2025-04-25T14:20:16Z</time>
      </trkpt>
      <trkpt lat="44.056362994015217" lon="2.166393985971808">
        <ele>227.00999999999999</ele>
        <time>2025-04-25T14:20:20Z</time>
      </trkpt>
      <trkpt lat="44.05637196265161" lon="2.166235987097025">
        <ele>226.53</ele>
        <time>2025-04-25T14:20:21Z</time>
      </trkpt>
      <trkpt lat="44.056371040642262" lon="2.166068013757467">
        <ele>225.56999999999999</ele>
        <time>2025-04-25T14:20:22Z</time>
      </trkpt>
      <trkpt lat="44.05617699958384" lon="2.164112012833357">
        <ele>220.28</ele>
        <time>2025-04-25T14:20:34Z</time>
      </trkpt>
      <trkpt lat="44.05615302734077" lon="2.16394898481667">
        <ele>220.28</ele>
        <time>2025-04-25T14:20:35Z</time>
      </trkpt>
      <trkpt lat="44.056128971278667" lon="2.163787968456745">
        <ele>219.80000000000001</ele>
        <time>2025-04-25T14:20:36Z</time>
      </trkpt>
      <trkpt lat="44.056079015135765" lon="2.163641033694148">
        <ele>219.80000000000001</ele>
        <time>2025-04-25T14:20:37Z</time>
      </trkpt>
      <trkpt lat="44.056013971567154" lon="2.163504995405674">
        <ele>220.28</ele>
        <time>2025-04-25T14:20:38Z</time>
      </trkpt>
      <trkpt lat="44.055948005989194" lon="2.16336602345109">
        <ele>220.28</ele>
        <time>2025-04-25T14:20:39Z</time>
      </trkpt>
      <trkpt lat="44.055881034582853" lon="2.163227973505855">
        <ele>220.28</ele>
        <time>2025-04-25T14:20:40Z</time>
      </trkpt>
      <trkpt lat="44.054838996380568" lon="2.161651002243161">
        <ele>219.31999999999999</ele>
        <time>2025-04-25T14:20:53Z</time>
      </trkpt>
      <trkpt lat="44.054354019463062" lon="2.16093996539712">
        <ele>219.31999999999999</ele>
        <time>2025-04-25T14:20:59Z</time>
      </trkpt>
      <trkpt lat="44.053722023963928" lon="2.159947967156768">
        <ele>218.84</ele>
        <time>2025-04-25T14:21:08Z</time>
      </trkpt>
      <trkpt lat="44.053628984838724" lon="2.159798014909029">
        <ele>219.80000000000001</ele>
        <time>2025-04-25T14:21:12Z</time>
      </trkpt>
      <trkpt lat="44.053277028724551" lon="2.159249000251293">
        <ele>222.68000000000001</ele>
        <time>2025-04-25T14:21:20Z</time>
      </trkpt>
      <trkpt lat="44.052794985473156" lon="2.15855497866869">
        <ele>224.12</ele>
        <time>2025-04-25T14:21:27Z</time>
      </trkpt>
      <trkpt lat="44.052719967439771" lon="2.158460011705756">
        <ele>224.61000000000001</ele>
        <time>2025-04-25T14:21:28Z</time>
      </trkpt>
      <trkpt lat="44.052644027397037" lon="2.158363033086062">
        <ele>225.09</ele>
        <time>2025-04-25T14:21:29Z</time>
      </trkpt>
      <trkpt lat="44.052554005756974" lon="2.158322967588902">
        <ele>225.56999999999999</ele>
        <time>2025-04-25T14:21:30Z</time>
      </trkpt>
      <trkpt lat="44.052467001602054" lon="2.158283991739154">
        <ele>226.05000000000001</ele>
        <time>2025-04-25T14:21:31Z</time>
      </trkpt>
      <trkpt lat="44.052382009103894" lon="2.158269993960857">
        <ele>226.53</ele>
        <time>2025-04-25T14:21:32Z</time>
      </trkpt>
      <trkpt lat="44.052292993292212" lon="2.158260019496083">
        <ele>227.00999999999999</ele>
        <time>2025-04-25T14:21:33Z</time>
      </trkpt>
      <trkpt lat="44.051765017211437" lon="2.158212997019291">
        <ele>230.37</ele>
        <time>2025-04-25T14:21:40Z</time>
      </trkpt>
      <trkpt lat="44.05119395814836" lon="2.158166980370879">
        <ele>232.78</ele>
        <time>2025-04-25T14:21:47Z</time>
      </trkpt>
      <trkpt lat="44.051107037812471" lon="2.158160023391247">
        <ele>232.78</ele>
        <time>2025-04-25T14:21:48Z</time>
      </trkpt>
      <trkpt lat="44.051022967323661" lon="2.158153988420963">
        <ele>233.25999999999999</ele>
        <time>2025-04-25T14:21:49Z</time>
      </trkpt>
      <trkpt lat="44.05084703117609" lon="2.158138984814286">
        <ele>233.74000000000001</ele>
        <time>2025-04-25T14:21:51Z</time>
      </trkpt>
      <trkpt lat="44.050749968737364" lon="2.158132027834654">
        <ele>234.22</ele>
        <time>2025-04-25T14:21:52Z</time>
      </trkpt>
      <trkpt lat="44.050371022894979" lon="2.158114006742835">
        <ele>236.62</ele>
        <time>2025-04-25T14:21:56Z</time>
      </trkpt>
      <trkpt lat="44.050273960456252" lon="2.158109983429313">
        <ele>237.09999999999999</ele>
        <time>2025-04-25T14:21:57Z</time>
      </trkpt>
      <trkpt lat="44.049424035474658" lon="2.158071007579565">
        <ele>239.02000000000001</ele>
        <time>2025-04-25T14:22:06Z</time>
      </trkpt>
      <trkpt lat="44.049334013834596" lon="2.158064972609282">
        <ele>239.99000000000001</ele>
        <time>2025-04-25T14:22:07Z</time>
      </trkpt>
      <trkpt lat="44.049242986366153" lon="2.15806002728641">
        <ele>240.47</ele>
        <time>2025-04-25T14:22:08Z</time>
      </trkpt>
      <trkpt lat="44.049151036888361" lon="2.158053992316127">
        <ele>240.94999999999999</ele>
        <time>2025-04-25T14:22:09Z</time>
      </trkpt>
      <trkpt lat="44.049059003591537" lon="2.158048041164875">
        <ele>241.43000000000001</ele>
        <time>2025-04-25T14:22:10Z</time>
      </trkpt>
      <trkpt lat="44.048969987779856" lon="2.158043012022972">
        <ele>241.91</ele>
        <time>2025-04-25T14:22:11Z</time>
      </trkpt>
      <trkpt lat="44.048878038302064" lon="2.158036977052689">
        <ele>242.38999999999999</ele>
        <time>2025-04-25T14:22:12Z</time>
      </trkpt>
      <trkpt lat="44.048787010833621" lon="2.158032031729817">
        <ele>242.38999999999999</ele>
        <time>2025-04-25T14:22:13Z</time>
      </trkpt>
      <trkpt lat="44.048634963110089" lon="2.158022979274392">
        <ele>244.31</ele>
        <time>2025-04-25T14:22:15Z</time>
      </trkpt>
      <trkpt lat="44.048579977825284" lon="2.158092968165875">
        <ele>245.27000000000001</ele>
        <time>2025-04-25T14:22:16Z</time>
      </trkpt>
      <trkpt lat="44.04857000336051" lon="2.158178966492415">
        <ele>245.75</ele>
        <time>2025-04-25T14:22:17Z</time>
      </trkpt>
      <trkpt lat="44.048533039167523" lon="2.158504016697407">
        <ele>247.19999999999999</ele>
        <time>2025-04-25T14:22:20Z</time>
      </trkpt>
      <trkpt lat="44.048517029732466" lon="2.158613987267017">
        <ele>248.16</ele>
        <time>2025-04-25T14:22:21Z</time>
      </trkpt>
      <trkpt lat="44.048495991155505" lon="2.158701997250319">
        <ele>249.12</ele>
        <time>2025-04-25T14:22:22Z</time>
      </trkpt>
      <trkpt lat="44.048460032790899" lon="2.158792018890381">
        <ele>250.08000000000001</ele>
        <time>2025-04-25T14:22:23Z</time>
      </trkpt>
      <trkpt lat="44.048409992828965" lon="2.15883401222527">
        <ele>250.56</ele>
        <time>2025-04-25T14:22:24Z</time>
      </trkpt>
      <trkpt lat="44.048340003937483" lon="2.158892014995217">
        <ele>251.03999999999999</ele>
        <time>2025-04-25T14:22:25Z</time>
      </trkpt>
      <trkpt lat="44.048261968418956" lon="2.158930990844965">
        <ele>251.52000000000001</ele>
        <time>2025-04-25T14:22:26Z</time>
      </trkpt>
      <trkpt lat="44.048174964264035" lon="2.158971978351474">
        <ele>252</ele>
        <time>2025-04-25T14:22:27Z</time>
      </trkpt>
      <trkpt lat="44.048096006736159" lon="2.159009026363492">
        <ele>252.96000000000001</ele>
        <time>2025-04-25T14:22:28Z</time>
      </trkpt>
      <trkpt lat="44.047953011468053" lon="2.15907197445631">
        <ele>254.41</ele>
        <time>2025-04-25T14:22:30Z</time>
      </trkpt>
      <trkpt lat="44.047873970121145" lon="2.159129977226257">
        <ele>256.32999999999998</ele>
        <time>2025-04-25T14:22:31Z</time>
      </trkpt>
      <trkpt lat="44.047809010371566" lon="2.159215975552797">
        <ele>258.25</ele>
        <time>2025-04-25T14:22:32Z</time>
      </trkpt>
      <trkpt lat="44.047497035935521" lon="2.159837996587157">
        <ele>265.45999999999998</ele>
        <time>2025-04-25T14:22:38Z</time>
      </trkpt>
      <trkpt lat="44.047446995973587" lon="2.15992801822722">
        <ele>266.42000000000002</ele>
        <time>2025-04-25T14:22:39Z</time>
      </trkpt>
      <trkpt lat="44.047234011813998" lon="2.160305958241224">
        <ele>269.31</ele>
        <time>2025-04-25T14:22:43Z</time>
      </trkpt>
      <trkpt lat="44.047179026529193" lon="2.160403020679951">
        <ele>269.79000000000002</ele>
        <time>2025-04-25T14:22:44Z</time>
      </trkpt>
      <trkpt lat="44.046828998252749" lon="2.16093996539712">
        <ele>271.23000000000002</ele>
        <time>2025-04-25T14:22:50Z</time>
      </trkpt>
      <trkpt lat="44.046778036281466" lon="2.161015989258885">
        <ele>271.23000000000002</ele>
        <time>2025-04-25T14:22:51Z</time>
      </trkpt>
      <trkpt lat="44.04672397300601" lon="2.161091007292271">
        <ele>271.70999999999998</ele>
        <time>2025-04-25T14:22:52Z</time>
      </trkpt>
      <trkpt lat="44.046612996608019" lon="2.16123903170228">
        <ele>271.70999999999998</ele>
        <time>2025-04-25T14:22:54Z</time>
      </trkpt>
      <trkpt lat="44.046504031866789" lon="2.161397030577064">
        <ele>272.19</ele>
        <time>2025-04-25T14:22:56Z</time>
      </trkpt>
      <trkpt lat="44.046446029096842" lon="2.161482023075223">
        <ele>272.19</ele>
        <time>2025-04-25T14:22:57Z</time>
      </trkpt>
      <trkpt lat="44.046390959993005" lon="2.161559974774718">
        <ele>272.19</ele>
        <time>2025-04-25T14:22:58Z</time>
      </trkpt>
      <trkpt lat="44.046334968879819" lon="2.161634992808104">
        <ele>272.67000000000002</ele>
        <time>2025-04-25T14:22:59Z</time>
      </trkpt>
      <trkpt lat="44.046277971938252" lon="2.161714034155011">
        <ele>272.67000000000002</ele>
        <time>2025-04-25T14:23:00Z</time>
      </trkpt>
      <trkpt lat="44.04564798809588" lon="2.162578962743282">
        <ele>274.58999999999997</ele>
        <time>2025-04-25T14:23:11Z</time>
      </trkpt>
      <trkpt lat="44.045589985325933" lon="2.162659009918571">
        <ele>275.06999999999999</ele>
        <time>2025-04-25T14:23:12Z</time>
      </trkpt>
      <trkpt lat="44.045532988384366" lon="2.162736961618066">
        <ele>275.06999999999999</ele>
        <time>2025-04-25T14:23:13Z</time>
      </trkpt>
      <trkpt lat="44.044893030077219" lon="2.163650002330542">
        <ele>274.58999999999997</ele>
        <time>2025-04-25T14:23:30Z</time>
      </trkpt>
      <trkpt lat="44.043557960540056" lon="2.164432033896446">
        <ele>275.06999999999999</ele>
        <time>2025-04-25T14:23:41Z</time>
      </trkpt>
      <trkpt lat="44.043502975255251" lon="2.164457011967897">
        <ele>275.06999999999999</ele>
        <time>2025-04-25T14:23:42Z</time>
      </trkpt>
      <trkpt lat="44.043396022170782" lon="2.164500011131167">
        <ele>275.56</ele>
        <time>2025-04-25T14:23:43Z</time>
      </trkpt>
      <trkpt lat="44.04248901642859" lon="2.164923967793584">
        <ele>278.92000000000002</ele>
        <time>2025-04-25T14:23:55Z</time>
      </trkpt>
      <trkpt lat="44.042412992566824" lon="2.164960009977222">
        <ele>279.39999999999998</ele>
        <time>2025-04-25T14:23:56Z</time>
      </trkpt>
      <trkpt lat="44.042338980361819" lon="2.16499999165535">
        <ele>279.39999999999998</ele>
        <time>2025-04-25T14:23:57Z</time>
      </trkpt>
      <trkpt lat="44.042185004800558" lon="2.165081966668367">
        <ele>279.39999999999998</ele>
        <time>2025-04-25T14:23:59Z</time>
      </trkpt>
      <trkpt lat="44.042107975110412" lon="2.165138963609934">
        <ele>279.39999999999998</ele>
        <time>2025-04-25T14:24:00Z</time>
      </trkpt>
      <trkpt lat="44.042033040896058" lon="2.165204007178545">
        <ele>279.39999999999998</ele>
        <time>2025-04-25T14:24:01Z</time>
      </trkpt>
      <trkpt lat="44.041959028691053" lon="2.16527801938355">
        <ele>279.39999999999998</ele>
        <time>2025-04-25T14:24:02Z</time>
      </trkpt>
      <trkpt lat="44.041894990950823" lon="2.165361000224948">
        <ele>279.39999999999998</ele>
        <time>2025-04-25T14:24:03Z</time>
      </trkpt>
      <trkpt lat="44.041831959038973" lon="2.165442975237966">
        <ele>279.39999999999998</ele>
        <time>2025-04-25T14:24:04Z</time>
      </trkpt>
      <trkpt lat="44.041056968271732" lon="2.16648199595511">
        <ele>282.27999999999997</ele>
        <time>2025-04-25T14:24:15Z</time>
      </trkpt>
      <trkpt lat="44.040224980562925" lon="2.167625958099961">
        <ele>288.52999999999997</ele>
        <time>2025-04-25T14:24:25Z</time>
      </trkpt>
      <trkpt lat="44.039467005059123" lon="2.168471021577716">
        <ele>295.74000000000001</ele>
        <time>2025-04-25T14:24:34Z</time>
      </trkpt>
      <trkpt lat="44.039103984832764" lon="2.168942000716925">
        <ele>299.11000000000001</ele>
        <time>2025-04-25T14:24:39Z</time>
      </trkpt>
      <trkpt lat="44.039055034518242" lon="2.169089019298554">
        <ele>299.58999999999997</ele>
        <time>2025-04-25T14:24:40Z</time>
      </trkpt>
      <trkpt lat="44.039022009819746" lon="2.169245006516576">
        <ele>300.55000000000001</ele>
        <time>2025-04-25T14:24:41Z</time>
      </trkpt>
      <trkpt lat="44.038994014263153" lon="2.169411974027753">
        <ele>301.50999999999999</ele>
        <time>2025-04-25T14:24:42Z</time>
      </trkpt>
      <trkpt lat="44.03896601870656" lon="2.169580031186342">
        <ele>301.50999999999999</ele>
        <time>2025-04-25T14:24:43Z</time>
      </trkpt>
      <trkpt lat="44.038932994008064" lon="2.169778011739254">
        <ele>302.47000000000003</ele>
        <time>2025-04-25T14:24:44Z</time>
      </trkpt>
      <trkpt lat="44.038932994008064" lon="2.170485025271773">
        <ele>306.80000000000001</ele>
        <time>2025-04-25T14:24:54Z</time>
      </trkpt>
      <trkpt lat="44.0386220254004" lon="2.171476017683744">
        <ele>307.75999999999999</ele>
        <time>2025-04-25T14:24:55Z</time>
      </trkpt>
      <trkpt lat="44.038395965471864" lon="2.171644996851683">
        <ele>308.24000000000001</ele>
        <time>2025-04-25T14:24:56Z</time>
      </trkpt>
      <trkpt lat="44.037647964432836" lon="2.171814981848002">
        <ele>311.12</ele>
        <time>2025-04-25T14:25:02Z</time>
      </trkpt>
      <trkpt lat="44.037528019398451" lon="2.171886982396245">
        <ele>311.12</ele>
        <time>2025-04-25T14:25:03Z</time>
      </trkpt>
      <trkpt lat="44.037410002201796" lon="2.171971974894404">
        <ele>312.08999999999997</ele>
        <time>2025-04-25T14:25:04Z</time>
      </trkpt>
      <trkpt lat="44.03731201775372" lon="2.172098038718104">
        <ele>312.56999999999999</ele>
        <time>2025-04-25T14:25:05Z</time>
      </trkpt>
      <trkpt lat="44.037229036912322" lon="2.172252014279366">
        <ele>313.05000000000001</ele>
        <time>2025-04-25T14:25:06Z</time>
      </trkpt>
      <trkpt lat="44.037156030535698" lon="2.172413030639291">
        <ele>313.52999999999997</ele>
        <time>2025-04-25T14:25:07Z</time>
      </trkpt>
      <trkpt lat="44.037084029987454" lon="2.172572035342455">
        <ele>314.00999999999999</ele>
        <time>2025-04-25T14:25:08Z</time>
      </trkpt>
      <trkpt lat="44.036539038643241" lon="2.173965023830533">
        <ele>315.93000000000001</ele>
        <time>2025-04-25T14:25:17Z</time>
      </trkpt>
      <trkpt lat="44.035777039825916" lon="2.175723966211081">
        <ele>314.00999999999999</ele>
        <time>2025-04-25T14:25:26Z</time>
      </trkpt>
      <trkpt lat="44.034972041845322" lon="2.176906988024712">
        <ele>313.52999999999997</ele>
        <time>2025-04-25T14:25:34Z</time>
      </trkpt>
      <trkpt lat="44.034444987773895" lon="2.177684996277094">
        <ele>318.32999999999998</ele>
        <time>2025-04-25T14:25:41Z</time>
      </trkpt>
      <trkpt lat="44.034397965297103" lon="2.177785998210311">
        <ele>318.81</ele>
        <time>2025-04-25T14:25:42Z</time>
      </trkpt>
      <trkpt lat="44.034355971962214" lon="2.177875014021993">
        <ele>318.81</ele>
        <time>2025-04-25T14:25:43Z</time>
      </trkpt>
      <trkpt lat="44.034319007769227" lon="2.177953971549869">
        <ele>319.30000000000001</ele>
        <time>2025-04-25T14:25:44Z</time>
      </trkpt>
      <trkpt lat="44.034305009990931" lon="2.178031001240015">
        <ele>319.77999999999997</ele>
        <time>2025-04-25T14:25:45Z</time>
      </trkpt>
      <trkpt lat="44.034144999459386" lon="2.178862988948822">
        <ele>321.69999999999999</ele>
        <time>2025-04-25T14:25:51Z</time>
      </trkpt>
      <trkpt lat="44.03378801420331" lon="2.180652022361755">
        <ele>322.18000000000001</ele>
        <time>2025-04-25T14:26:00Z</time>
      </trkpt>
      <trkpt lat="44.0331029612571" lon="2.182441977784038">
        <ele>320.74000000000001</ele>
        <time>2025-04-25T14:26:08Z</time>
      </trkpt>
      <trkpt lat="44.033034984022379" lon="2.182688992470503">
        <ele>320.74000000000001</ele>
        <time>2025-04-25T14:26:09Z</time>
      </trkpt>
      <trkpt lat="44.032967006787658" lon="2.182942964136601">
        <ele>320.25999999999999</ele>
        <time>2025-04-25T14:26:10Z</time>
      </trkpt>
      <trkpt lat="44.032943034544587" lon="2.183211017400026">
        <ele>319.77999999999997</ele>
        <time>2025-04-25T14:26:11Z</time>
      </trkpt>
      <trkpt lat="44.032766008749604" lon="2.185723995789886">
        <ele>321.22000000000003</ele>
        <time>2025-04-25T14:26:21Z</time>
      </trkpt>
      <trkpt lat="44.032234009355307" lon="2.188617009669542">
        <ele>320.74000000000001</ele>
        <time>2025-04-25T14:26:33Z</time>
      </trkpt>
      <trkpt lat="44.031664039939642" lon="2.191271977499127">
        <ele>319.77999999999997</ele>
        <time>2025-04-25T14:26:45Z</time>
      </trkpt>
      <trkpt lat="44.031616011634469" lon="2.19142897054553">
        <ele>319.77999999999997</ele>
        <time>2025-04-25T14:26:46Z</time>
      </trkpt>
      <trkpt lat="44.031573012471199" lon="2.191526032984257">
        <ele>319.77999999999997</ele>
        <time>2025-04-25T14:26:47Z</time>
      </trkpt>
      <trkpt lat="44.031506041064858" lon="2.191622005775571">
        <ele>319.30000000000001</ele>
        <time>2025-04-25T14:26:48Z</time>
      </trkpt>
      <trkpt lat="44.031450971961021" lon="2.191622005775571">
        <ele>319.30000000000001</ele>
        <time>2025-04-25T14:26:49Z</time>
      </trkpt>
      <trkpt lat="44.031376037746668" lon="2.19159702770412">
        <ele>318.81</ele>
        <time>2025-04-25T14:26:50Z</time>
      </trkpt>
      <trkpt lat="44.031321974471211" lon="2.191542964428663">
        <ele>318.32999999999998</ele>
        <time>2025-04-25T14:26:51Z</time>
      </trkpt>
      <trkpt lat="44.031260032206774" lon="2.191481022164226">
        <ele>317.85000000000002</ele>
        <time>2025-04-25T14:26:52Z</time>
      </trkpt>
      <trkpt lat="44.031184008345008" lon="2.19140499830246">
        <ele>317.37</ele>
        <time>2025-04-25T14:26:53Z</time>
      </trkpt>
      <trkpt lat="44.03088603168726" lon="2.191107021644712">
        <ele>315.93000000000001</ele>
        <time>2025-04-25T14:26:56Z</time>
      </trkpt>
      <trkpt lat="44.030761979520321" lon="2.191027980297804">
        <ele>315.93000000000001</ele>
        <time>2025-04-25T14:26:57Z</time>
      </trkpt>
      <trkpt lat="44.030649997293949" lon="2.190956985577941">
        <ele>315.44999999999999</ele>
        <time>2025-04-25T14:26:58Z</time>
      </trkpt>
      <trkpt lat="44.030468026176095" lon="2.190950028598309">
        <ele>314.97000000000003</ele>
        <time>2025-04-25T14:26:59Z</time>
      </trkpt>
      <trkpt lat="44.030303992331028" lon="2.190942987799645">
        <ele>314.49000000000001</ele>
        <time>2025-04-25T14:27:00Z</time>
      </trkpt>
      <trkpt lat="44.03013501316309" lon="2.190936030820012">
        <ele>314.00999999999999</ele>
        <time>2025-04-25T14:27:01Z</time>
      </trkpt>
      <trkpt lat="44.029781967401505" lon="2.190921027213335">
        <ele>314.00999999999999</ele>
        <time>2025-04-25T14:27:03Z</time>
      </trkpt>
      <trkpt lat="44.029596978798509" lon="2.190896971151233">
        <ele>314.00999999999999</ele>
        <time>2025-04-25T14:27:04Z</time>
      </trkpt>
      <trkpt lat="44.029437974095345" lon="2.190779037773609">
        <ele>314.00999999999999</ele>
        <time>2025-04-25T14:27:05Z</time>
      </trkpt>
      <trkpt lat="44.029277041554451" lon="2.190659008920193">
        <ele>314.00999999999999</ele>
        <time>2025-04-25T14:27:06Z</time>
      </trkpt>
      <trkpt lat="44.029113007709384" lon="2.190537974238396">
        <ele>313.52999999999997</ele>
        <time>2025-04-25T14:27:07Z</time>
      </trkpt>
      <trkpt lat="44.028935981914401" lon="2.190401013940573">
        <ele>313.52999999999997</ele>
        <time>2025-04-25T14:27:08Z</time>
      </trkpt>
      <trkpt lat="44.027162035927176" lon="2.188611980527639">
        <ele>313.52999999999997</ele>
        <time>2025-04-25T14:27:18Z</time>
      </trkpt>
      <trkpt lat="44.024577978998423" lon="2.186307962983847">
        <ele>314.00999999999999</ele>
        <time>2025-04-25T14:27:30Z</time>
      </trkpt>
      <trkpt lat="44.021261008456349" lon="2.183480998501182">
        <ele>309.68000000000001</ele>
        <time>2025-04-25T14:27:44Z</time>
      </trkpt>
      <trkpt lat="44.018805027008057" lon="2.181994970887899">
        <ele>305.83999999999997</ele>
        <time>2025-04-25T14:27:54Z</time>
      </trkpt>
      <trkpt lat="44.016046961769462" lon="2.180968020111322">
        <ele>300.06999999999999</ele>
        <time>2025-04-25T14:28:05Z</time>
      </trkpt>
      <trkpt lat="44.013132993131876" lon="2.179795978590846">
        <ele>296.22000000000003</ele>
        <time>2025-04-25T14:28:17Z</time>
      </trkpt>
      <trkpt lat="44.010634012520313" lon="2.178167039528489">
        <ele>291.42000000000002</ele>
        <time>2025-04-25T14:28:28Z</time>
      </trkpt>
      <trkpt lat="44.008202003315091" lon="2.175992019474506">
        <ele>281.80000000000001</ele>
        <time>2025-04-25T14:28:39Z</time>
      </trkpt>
      <trkpt lat="44.005166999995708" lon="2.173504019156098">
        <ele>264.01999999999998</ele>
        <time>2025-04-25T14:28:52Z</time>
      </trkpt>
      <trkpt lat="44.002853007987142" lon="2.172319991514087">
        <ele>252.47999999999999</ele>
        <time>2025-04-25T14:29:01Z</time>
      </trkpt>
      <trkpt lat="44.001063974574208" lon="2.171719009056687">
        <ele>241.43000000000001</ele>
        <time>2025-04-25T14:29:09Z</time>
      </trkpt>
      <trkpt lat="43.99874503724277" lon="2.171394964680076">
        <ele>228.93000000000001</ele>
        <time>2025-04-25T14:29:20Z</time>
      </trkpt>
      <trkpt lat="43.99653104133904" lon="2.171413991600275">
        <ele>219.31999999999999</ele>
        <time>2025-04-25T14:29:31Z</time>
      </trkpt>
      <trkpt lat="43.995564021170139" lon="2.171358000487089">
        <ele>217.40000000000001</ele>
        <time>2025-04-25T14:29:37Z</time>
      </trkpt>
      <trkpt lat="43.995429994538426" lon="2.171310978010297">
        <ele>217.40000000000001</ele>
        <time>2025-04-25T14:29:38Z</time>
      </trkpt>
      <trkpt lat="43.995308037847281" lon="2.171266973018646">
        <ele>217.40000000000001</ele>
        <time>2025-04-25T14:29:39Z</time>
      </trkpt>
      <trkpt lat="43.995196977630258" lon="2.171213999390602">
        <ele>216.91</ele>
        <time>2025-04-25T14:29:40Z</time>
      </trkpt>
      <trkpt lat="43.995108967646956" lon="2.171136969700456">
        <ele>216.91</ele>
        <time>2025-04-25T14:29:41Z</time>
      </trkpt>
      <trkpt lat="43.995047025382519" lon="2.171048959717155">
        <ele>216.91</ele>
        <time>2025-04-25T14:29:42Z</time>
      </trkpt>
      <trkpt lat="43.995026992633939" lon="2.170910993590951">
        <ele>216.91</ele>
        <time>2025-04-25T14:29:43Z</time>
      </trkpt>
      <trkpt lat="43.994966978207231" lon="2.170839998871088">
        <ele>217.40000000000001</ele>
        <time>2025-04-25T14:29:44Z</time>
      </trkpt>
      <trkpt lat="43.994883997365832" lon="2.170796999707818">
        <ele>217.88</ele>
        <time>2025-04-25T14:29:45Z</time>
      </trkpt>
      <trkpt lat="43.994813002645969" lon="2.170814014971256">
        <ele>218.36000000000001</ele>
        <time>2025-04-25T14:29:46Z</time>
      </trkpt>
      <trkpt lat="43.994734967127442" lon="2.170872017741203">
        <ele>218.84</ele>
        <time>2025-04-25T14:29:47Z</time>
      </trkpt>
      <trkpt lat="43.994693979620934" lon="2.17097201384604">
        <ele>218.84</ele>
        <time>2025-04-25T14:29:48Z</time>
      </trkpt>
      <trkpt lat="43.994680987671018" lon="2.171090031042695">
        <ele>218.84</ele>
        <time>2025-04-25T14:29:49Z</time>
      </trkpt>
      <trkpt lat="43.994708983227611" lon="2.171173011884093">
        <ele>218.36000000000001</ele>
        <time>2025-04-25T14:29:50Z</time>
      </trkpt>
      <trkpt lat="43.994777966290712" lon="2.171356994658709">
        <ele>218.36000000000001</ele>
        <time>2025-04-25T14:29:51Z</time>
      </trkpt>
      <trkpt lat="43.994752988219261" lon="2.171473000198603">
        <ele>218.36000000000001</ele>
        <time>2025-04-25T14:29:52Z</time>
      </trkpt>
      <trkpt lat="43.994730021804571" lon="2.171580959111452">
        <ele>217.88</ele>
        <time>2025-04-25T14:29:53Z</time>
      </trkpt>
      <trkpt lat="43.994663972407579" lon="2.171738035976887">
        <ele>217.88</ele>
        <time>2025-04-25T14:29:54Z</time>
      </trkpt>
      <trkpt lat="43.994602030143142" lon="2.171884970739484">
        <ele>217.88</ele>
        <time>2025-04-25T14:29:55Z</time>
      </trkpt>
      <trkpt lat="43.994537992402911" lon="2.172038024291396">
        <ele>217.40000000000001</ele>
        <time>2025-04-25T14:29:56Z</time>
      </trkpt>
      <trkpt lat="43.994472026824951" lon="2.17219702899456">
        <ele>216.91</ele>
        <time>2025-04-25T14:29:57Z</time>
      </trkpt>
      <trkpt lat="43.994375970214605" lon="2.172341030091047">
        <ele>216.43000000000001</ele>
        <time>2025-04-25T14:29:58Z</time>
      </trkpt>
      <trkpt lat="43.994159968569875" lon="2.172613022848964">
        <ele>214.50999999999999</ele>
        <time>2025-04-25T14:30:00Z</time>
      </trkpt>
      <trkpt lat="43.992927996441722" lon="2.173763019964099">
        <ele>210.19</ele>
        <time>2025-04-25T14:30:09Z</time>
      </trkpt>
      <trkpt lat="43.991756960749626" lon="2.174387974664569">
        <ele>207.78</ele>
        <time>2025-04-25T14:30:17Z</time>
      </trkpt>
      <trkpt lat="43.99047302082181" lon="2.174509009346366">
        <ele>204.41999999999999</ele>
        <time>2025-04-25T14:30:25Z</time>
      </trkpt>
      <trkpt lat="43.988452982157469" lon="2.174170967191458">
        <ele>202.97999999999999</ele>
        <time>2025-04-25T14:30:35Z</time>
      </trkpt>
      <trkpt lat="43.985802959650755" lon="2.173650031909347">
        <ele>198.16999999999999</ele>
        <time>2025-04-25T14:30:46Z</time>
      </trkpt>
      <trkpt lat="43.982449024915695" lon="2.173171006143093">
        <ele>190</ele>
        <time>2025-04-25T14:30:59Z</time>
      </trkpt>
      <trkpt lat="43.98046201094985" lon="2.173608038574457">
        <ele>186.15000000000001</ele>
        <time>2025-04-25T14:31:07Z</time>
      </trkpt>
      <trkpt lat="43.978845980018377" lon="2.174632977694273">
        <ele>185.19</ele>
        <time>2025-04-25T14:31:14Z</time>
      </trkpt>
      <trkpt lat="43.977106986567378" lon="2.176380017772317">
        <ele>184.22999999999999</ele>
        <time>2025-04-25T14:31:22Z</time>
      </trkpt>
      <trkpt lat="43.974603982642293" lon="2.179006990045309">
        <ele>178.46000000000001</ele>
        <time>2025-04-25T14:31:34Z</time>
      </trkpt>
      <trkpt lat="43.971908027306199" lon="2.181797996163368">
        <ele>176.53999999999999</ele>
        <time>2025-04-25T14:31:47Z</time>
      </trkpt>
      <trkpt lat="43.970477990806103" lon="2.182872975245118">
        <ele>178.46000000000001</ele>
        <time>2025-04-25T14:31:54Z</time>
      </trkpt>
      <trkpt lat="43.969006966799498" lon="2.183268014341593">
        <ele>180.38</ele>
        <time>2025-04-25T14:32:01Z</time>
      </trkpt>
      <trkpt lat="43.967837020754814" lon="2.183181010186672">
        <ele>181.34999999999999</ele>
        <time>2025-04-25T14:32:08Z</time>
      </trkpt>
      <trkpt lat="43.967512976378202" lon="2.183152008801699">
        <ele>181.83000000000001</ele>
        <time>2025-04-25T14:32:12Z</time>
      </trkpt>
      <trkpt lat="43.96744198165834" lon="2.183144968003035">
        <ele>182.31</ele>
        <time>2025-04-25T14:32:22Z</time>
      </trkpt>
      <trkpt lat="43.967003021389246" lon="2.183104986324906">
        <ele>182.31</ele>
        <time>2025-04-25T14:32:34Z</time>
      </trkpt>
      <trkpt lat="43.966912999749184" lon="2.183098029345274">
        <ele>182.31</ele>
        <time>2025-04-25T14:32:36Z</time>
      </trkpt>
      <trkpt lat="43.966363985091448" lon="2.183051006868482">
        <ele>182.78999999999999</ele>
        <time>2025-04-25T14:32:49Z</time>
      </trkpt>
      <trkpt lat="43.966038012877107" lon="2.183023011311889">
        <ele>183.27000000000001</ele>
        <time>2025-04-25T14:33:01Z</time>
      </trkpt>
      <trkpt lat="43.965774988755584" lon="2.182999961078167">
        <ele>183.75</ele>
        <time>2025-04-25T14:33:10Z</time>
      </trkpt>
      <trkpt lat="43.965683039277792" lon="2.182991998270154">
        <ele>183.75</ele>
        <time>2025-04-25T14:33:12Z</time>
      </trkpt>
      <trkpt lat="43.965631993487477" lon="2.182987974956632">
        <ele>184.22999999999999</ele>
        <time>2025-04-25T14:33:13Z</time>
      </trkpt>
      <trkpt lat="43.965352037921548" lon="2.182959979400039">
        <ele>183.75</ele>
        <time>2025-04-25T14:33:22Z</time>
      </trkpt>
      <trkpt lat="43.965312978252769" lon="2.182955034077168">
        <ele>183.75</ele>
        <time>2025-04-25T14:33:23Z</time>
      </trkpt>
      <trkpt lat="43.965068981051445" lon="2.182927038520575">
        <ele>184.71000000000001</ele>
        <time>2025-04-25T14:33:33Z</time>
      </trkpt>
      <trkpt lat="43.96490603685379" lon="2.182825030758977">
        <ele>185.19</ele>
        <time>2025-04-25T14:33:37Z</time>
      </trkpt>
      <trkpt lat="43.964857002720237" lon="2.182671977207065">
        <ele>185.19</ele>
        <time>2025-04-25T14:33:39Z</time>
      </trkpt>
      <trkpt lat="43.964803023263812" lon="2.182579021900892">
        <ele>185.19</ele>
        <time>2025-04-25T14:33:40Z</time>
      </trkpt>
      <trkpt lat="43.964719958603382" lon="2.182541973888874">
        <ele>185.19</ele>
        <time>2025-04-25T14:33:41Z</time>
      </trkpt>
      <trkpt lat="43.964620968326926" lon="2.18250903300941">
        <ele>184.71000000000001</ele>
        <time>2025-04-25T14:33:42Z</time>
      </trkpt>
      <trkpt lat="43.964538993313909" lon="2.182481037452817">
        <ele>184.71000000000001</ele>
        <time>2025-04-25T14:33:43Z</time>
      </trkpt>
      <trkpt lat="43.964437991380692" lon="2.18233703635633">
        <ele>184.22999999999999</ele>
        <time>2025-04-25T14:33:44Z</time>
      </trkpt>
      <trkpt lat="43.96438904106617" lon="2.182266963645816">
        <ele>184.22999999999999</ele>
        <time>2025-04-25T14:33:45Z</time>
      </trkpt>
      <trkpt lat="43.964317040517926" lon="2.182094966992736">
        <ele>183.75</ele>
        <time>2025-04-25T14:33:46Z</time>
      </trkpt>
      <trkpt lat="43.964264988899231" lon="2.181970998644829">
        <ele>183.27000000000001</ele>
        <time>2025-04-25T14:33:47Z</time>
      </trkpt>
      <trkpt lat="43.963713040575385" lon="2.18055697157979">
        <ele>178.94</ele>
        <time>2025-04-25T14:33:57Z</time>
      </trkpt>
      <trkpt lat="43.963109040632844" lon="2.178389998152852">
        <ele>176.53999999999999</ele>
        <time>2025-04-25T14:34:11Z</time>
      </trkpt>
      <trkpt lat="43.962797988206148" lon="2.177240001037717">
        <ele>174.13999999999999</ele>
        <time>2025-04-25T14:34:18Z</time>
      </trkpt>
      <trkpt lat="43.962174961343408" lon="2.174934977665544">
        <ele>170.28999999999999</ele>
        <time>2025-04-25T14:34:29Z</time>
      </trkpt>
      <trkpt lat="43.961816970258951" lon="2.172639006748796">
        <ele>172.21000000000001</ele>
        <time>2025-04-25T14:34:39Z</time>
      </trkpt>
      <trkpt lat="43.961664000526071" lon="2.17054596170783">
        <ele>174.13999999999999</ele>
        <time>2025-04-25T14:34:49Z</time>
      </trkpt>
      <trkpt lat="43.961590994149446" lon="2.16936101205647">
        <ele>174.62</ele>
        <time>2025-04-25T14:34:57Z</time>
      </trkpt>
      <trkpt lat="43.961557969450951" lon="2.168988017365336">
        <ele>174.13999999999999</ele>
        <time>2025-04-25T14:35:07Z</time>
      </trkpt>
      <trkpt lat="43.961474988609552" lon="2.168471021577716">
        <ele>174.62</ele>
        <time>2025-04-25T14:35:16Z</time>
      </trkpt>
      <trkpt lat="43.961406005546451" lon="2.168040024116635">
        <ele>175.09999999999999</ele>
        <time>2025-04-25T14:35:26Z</time>
      </trkpt>
      <trkpt lat="43.961375998333097" lon="2.167844977229834">
        <ele>174.62</ele>
        <time>2025-04-25T14:35:33Z</time>
      </trkpt>
      <trkpt lat="43.961372980847955" lon="2.167823016643524">
        <ele>174.62</ele>
        <time>2025-04-25T14:35:34Z</time>
      </trkpt>
      <trkpt lat="43.961363006383181" lon="2.167648002505302">
        <ele>174.13999999999999</ele>
        <time>2025-04-25T14:35:37Z</time>
      </trkpt>
      <trkpt lat="43.961363006383181" lon="2.167579019442201">
        <ele>173.66</ele>
        <time>2025-04-25T14:35:38Z</time>
      </trkpt>
      <trkpt lat="43.961363006383181" lon="2.167568039149046">
        <ele>173.66</ele>
        <time>2025-04-25T14:35:39Z</time>
      </trkpt>
      <trkpt lat="43.961421009153128" lon="2.167423032224178">
        <ele>173.66</ele>
        <time>2025-04-25T14:35:40Z</time>
      </trkpt>
      <trkpt lat="43.961387984454632" lon="2.167351031675935">
        <ele>173.66</ele>
        <time>2025-04-25T14:35:41Z</time>
      </trkpt>
      <trkpt lat="43.961349008604884" lon="2.167262015864253">
        <ele>174.13999999999999</ele>
        <time>2025-04-25T14:35:42Z</time>
      </trkpt>
      <trkpt lat="43.961303997784853" lon="2.16717098839581">
        <ele>174.13999999999999</ele>
        <time>2025-04-25T14:35:43Z</time>
      </trkpt>
      <trkpt lat="43.961278013885021" lon="2.167063029482961">
        <ele>174.13999999999999</ele>
        <time>2025-04-25T14:35:44Z</time>
      </trkpt>
      <trkpt lat="43.961252029985189" lon="2.166945012286305">
        <ele>174.13999999999999</ele>
        <time>2025-04-25T14:35:45Z</time>
      </trkpt>
      <trkpt lat="43.960923962295055" lon="2.165715973824263">
        <ele>174.62</ele>
        <time>2025-04-25T14:35:53Z</time>
      </trkpt>
      <trkpt lat="43.960213009268045" lon="2.164043029770255">
        <ele>171.72999999999999</ele>
        <time>2025-04-25T14:36:04Z</time>
      </trkpt>
      <trkpt lat="43.959438018500805" lon="2.162310993298888">
        <ele>169.81</ele>
        <time>2025-04-25T14:36:17Z</time>
      </trkpt>
      <trkpt lat="43.958939965814352" lon="2.16119896620512">
        <ele>170.28999999999999</ele>
        <time>2025-04-25T14:36:24Z</time>
      </trkpt>
      <trkpt lat="43.9588269777596" lon="2.161012971773744">
        <ele>170.77000000000001</ele>
        <time>2025-04-25T14:36:26Z</time>
      </trkpt>
      <trkpt lat="43.95878397859633" lon="2.160942982882261">
        <ele>171.25</ele>
        <time>2025-04-25T14:36:27Z</time>
      </trkpt>
      <trkpt lat="43.958694040775299" lon="2.160796970129013">
        <ele>171.25</ele>
        <time>2025-04-25T14:36:30Z</time>
      </trkpt>
      <trkpt lat="43.958581974729896" lon="2.160612987354398">
        <ele>171.72999999999999</ele>
        <time>2025-04-25T14:36:35Z</time>
      </trkpt>
      <trkpt lat="43.958551967516541" lon="2.160564959049225">
        <ele>171.72999999999999</ele>
        <time>2025-04-25T14:36:36Z</time>
      </trkpt>
      <trkpt lat="43.958533024415374" lon="2.160504022613168">
        <ele>171.72999999999999</ele>
        <time>2025-04-25T14:36:37Z</time>
      </trkpt>
      <trkpt lat="43.958540987223387" lon="2.160431016236544">
        <ele>171.72999999999999</ele>
        <time>2025-04-25T14:36:38Z</time>
      </trkpt>
      <trkpt lat="43.958550039678812" lon="2.160343006253243">
        <ele>171.72999999999999</ele>
        <time>2025-04-25T14:36:39Z</time>
      </trkpt>
      <trkpt lat="43.958533024415374" lon="2.160228006541729">
        <ele>171.72999999999999</ele>
        <time>2025-04-25T14:36:40Z</time>
      </trkpt>
      <trkpt lat="43.958509974181652" lon="2.16012398712337">
        <ele>171.72999999999999</ele>
        <time>2025-04-25T14:36:41Z</time>
      </trkpt>
      <trkpt lat="43.958444008603692" lon="2.160034971311688">
        <ele>171.72999999999999</ele>
        <time>2025-04-25T14:36:42Z</time>
      </trkpt>
      <trkpt lat="43.958386005833745" lon="2.159957019612193">
        <ele>171.25</ele>
        <time>2025-04-25T14:36:43Z</time>
      </trkpt>
      <trkpt lat="43.958306964486837" lon="2.159943021833897">
        <ele>171.25</ele>
        <time>2025-04-25T14:36:44Z</time>
      </trkpt>
      <trkpt lat="43.958234963938594" lon="2.159935981035233">
        <ele>171.25</ele>
        <time>2025-04-25T14:36:45Z</time>
      </trkpt>
      <trkpt lat="43.958165980875492" lon="2.1599290240556">
        <ele>171.25</ele>
        <time>2025-04-25T14:36:46Z</time>
      </trkpt>
      <trkpt lat="43.958127005025744" lon="2.159969005733728">
        <ele>171.72999999999999</ele>
        <time>2025-04-25T14:36:47Z</time>
      </trkpt>
      <trkpt lat="43.958069002255797" lon="2.160026002675295">
        <ele>171.72999999999999</ele>
        <time>2025-04-25T14:36:48Z</time>
      </trkpt>
      <trkpt lat="43.957993984222412" lon="2.16010102070868">
        <ele>171.72999999999999</ele>
        <time>2025-04-25T14:36:49Z</time>
      </trkpt>
      <trkpt lat="43.957978980615735" lon="2.160188024863601">
        <ele>171.72999999999999</ele>
        <time>2025-04-25T14:36:50Z</time>
      </trkpt>
      <trkpt lat="43.957956014201045" lon="2.160310987383127">
        <ele>171.72999999999999</ele>
        <time>2025-04-25T14:36:51Z</time>
      </trkpt>
      <trkpt lat="43.957932963967323" lon="2.160608964040875">
        <ele>171.25</ele>
        <time>2025-04-25T14:36:53Z</time>
      </trkpt>
      <trkpt lat="43.957866998389363" lon="2.160669984295964">
        <ele>171.25</ele>
        <time>2025-04-25T14:36:54Z</time>
      </trkpt>
      <trkpt lat="43.957792986184359" lon="2.160737961530685">
        <ele>170.77000000000001</ele>
        <time>2025-04-25T14:36:55Z</time>
      </trkpt>
      <trkpt lat="43.957546977326274" lon="2.16102696955204">
        <ele>169.33000000000001</ele>
        <time>2025-04-25T14:36:59Z</time>
      </trkpt>
      <trkpt lat="43.957511018961668" lon="2.161074997857213">
        <ele>168.84999999999999</ele>
        <time>2025-04-25T14:37:00Z</time>
      </trkpt>
      <trkpt lat="43.957500960677862" lon="2.161087989807129">
        <ele>168.37</ele>
        <time>2025-04-25T14:37:01Z</time>
      </trkpt>
      <trkpt lat="43.957528034225106" lon="2.161052031442523">
        <ele>167.88999999999999</ele>
        <time>2025-04-25T14:37:03Z</time>
      </trkpt>
      <trkpt lat="43.957561980932951" lon="2.161007020622492">
        <ele>167.88999999999999</ele>
        <time>2025-04-25T14:37:04Z</time>
      </trkpt>
      <trkpt lat="43.95760104060173" lon="2.160953963175416">
        <ele>167.41</ele>
        <time>2025-04-25T14:37:05Z</time>
      </trkpt>
      <trkpt lat="43.957647979259491" lon="2.160892020910978">
        <ele>167.41</ele>
        <time>2025-04-25T14:37:06Z</time>
      </trkpt>
      <trkpt lat="43.957693995907903" lon="2.16083100065589">
        <ele>167.88999999999999</ele>
        <time>2025-04-25T14:37:07Z</time>
      </trkpt>
      <trkpt lat="43.95783799700439" lon="2.160696974024177">
        <ele>167.88999999999999</ele>
        <time>2025-04-25T14:37:10Z</time>
      </trkpt>
      <trkpt lat="43.95788099616766" lon="2.160656992346048">
        <ele>167.88999999999999</ele>
        <time>2025-04-25T14:37:11Z</time>
      </trkpt>
      <trkpt lat="43.957915026694536" lon="2.160624973475933">
        <ele>167.88999999999999</ele>
        <time>2025-04-25T14:37:12Z</time>
      </trkpt>
      <trkpt lat="43.957813018932939" lon="2.160242004320025">
        <ele>167.41</ele>
        <time>2025-04-25T14:37:19Z</time>
      </trkpt>
      <trkpt lat="43.95786196924746" lon="2.160248961299658">
        <ele>171.72999999999999</ele>
        <time>2025-04-25T15:14:42Z</time>
      </trkpt>
      <trkpt lat="43.957854006439447" lon="2.160250972956419">
        <ele>170.77000000000001</ele>
        <time>2025-04-25T15:15:25Z</time>
      </trkpt>
      <trkpt lat="43.95785903558135" lon="2.160257007926703">
        <ele>170.28999999999999</ele>
        <time>2025-04-25T15:16:07Z</time>
      </trkpt>
      <trkpt lat="43.95785903558135" lon="2.160259019583464">
        <ele>170.28999999999999</ele>
        <time>2025-04-25T15:16:54Z</time>
      </trkpt>
      <trkpt lat="43.95785802975297" lon="2.160264970734716">
        <ele>170.28999999999999</ele>
        <time>2025-04-25T15:17:37Z</time>
      </trkpt>
      <trkpt lat="43.95785802975297" lon="2.160264970734716">
        <ele>170.28999999999999</ele>
        <time>2025-04-25T15:17:52Z</time>
      </trkpt>
      <trkpt lat="43.957629958167672" lon="2.160185007378459">
        <ele>168.37</ele>
        <time>2025-04-25T15:17:59Z</time>
      </trkpt>
      <trkpt lat="43.957383027300239" lon="2.160408971831203">
        <ele>166.93000000000001</ele>
        <time>2025-04-25T15:18:04Z</time>
      </trkpt>
      <trkpt lat="43.957295017316937" lon="2.160649029538035">
        <ele>166.93000000000001</ele>
        <time>2025-04-25T15:18:08Z</time>
      </trkpt>
      <trkpt lat="43.957500960677862" lon="2.161087989807129">
        <ele>167.41</ele>
        <time>2025-04-25T15:18:15Z</time>
      </trkpt>
      <trkpt lat="43.95751697011292" lon="2.161106010898948">
        <ele>167.41</ele>
        <time>2025-04-25T15:18:16Z</time>
      </trkpt>
      <trkpt lat="43.957541026175022" lon="2.161034010350704">
        <ele>167.88999999999999</ele>
        <time>2025-04-25T15:18:17Z</time>
      </trkpt>
      <trkpt lat="43.957584025338292" lon="2.160977013409138">
        <ele>167.41</ele>
        <time>2025-04-25T15:18:18Z</time>
      </trkpt>
      <trkpt lat="43.957634987309575" lon="2.160909958183765">
        <ele>167.41</ele>
        <time>2025-04-25T15:18:19Z</time>
      </trkpt>
      <trkpt lat="43.958079982548952" lon="2.160679958760738">
        <ele>167.88999999999999</ele>
        <time>2025-04-25T15:18:24Z</time>
      </trkpt>
      <trkpt lat="43.958079982548952" lon="2.160679958760738">
        <ele>167.88999999999999</ele>
        <time>2025-04-25T15:18:25Z</time>
      </trkpt>
      <trkpt lat="43.958136979490519" lon="2.160718012601137">
        <ele>169.33000000000001</ele>
        <time>2025-04-25T15:18:29Z</time>
      </trkpt>
      <trkpt lat="43.958206968382001" lon="2.160764029249549">
        <ele>169.33000000000001</ele>
        <time>2025-04-25T15:18:30Z</time>
      </trkpt>
      <trkpt lat="43.958303024992347" lon="2.160742990672588">
        <ele>169.33000000000001</ele>
        <time>2025-04-25T15:18:31Z</time>
      </trkpt>
      <trkpt lat="43.958380976691842" lon="2.16072304174304">
        <ele>169.81</ele>
        <time>2025-04-25T15:18:32Z</time>
      </trkpt>
      <trkpt lat="43.958437973633409" lon="2.160650035366416">
        <ele>169.81</ele>
        <time>2025-04-25T15:18:33Z</time>
      </trkpt>
      <trkpt lat="43.958499999716878" lon="2.160568982362747">
        <ele>170.28999999999999</ele>
        <time>2025-04-25T15:18:34Z</time>
      </trkpt>
      <trkpt lat="43.958536041900516" lon="2.160480972379446">
        <ele>170.28999999999999</ele>
        <time>2025-04-25T15:18:35Z</time>
      </trkpt>
      <trkpt lat="43.958548028022051" lon="2.160363961011171">
        <ele>170.28999999999999</ele>
        <time>2025-04-25T15:18:36Z</time>
      </trkpt>
      <trkpt lat="43.958539981395006" lon="2.160260025411844">
        <ele>170.28999999999999</ele>
        <time>2025-04-25T15:18:37Z</time>
      </trkpt>
      <trkpt lat="43.958512991666794" lon="2.160136979073286">
        <ele>170.77000000000001</ele>
        <time>2025-04-25T15:18:38Z</time>
      </trkpt>
      <trkpt lat="43.958459012210369" lon="2.160056009888649">
        <ele>170.77000000000001</ele>
        <time>2025-04-25T15:18:39Z</time>
      </trkpt>
      <trkpt lat="43.958392040804029" lon="2.159965988248587">
        <ele>170.77000000000001</ele>
        <time>2025-04-25T15:18:40Z</time>
      </trkpt>
      <trkpt lat="43.95833496004343" lon="2.159861968830228">
        <ele>170.77000000000001</ele>
        <time>2025-04-25T15:18:41Z</time>
      </trkpt>
      <trkpt lat="43.958281986415386" lon="2.159760966897011">
        <ele>170.77000000000001</ele>
        <time>2025-04-25T15:18:42Z</time>
      </trkpt>
      <trkpt lat="43.957829028367996" lon="2.158837029710412">
        <ele>170.28999999999999</ele>
        <time>2025-04-25T15:18:48Z</time>
      </trkpt>
      <trkpt lat="43.956965021789074" lon="2.157226027920842">
        <ele>169.81</ele>
        <time>2025-04-25T15:18:56Z</time>
      </trkpt>
      <trkpt lat="43.955781999975443" lon="2.156224977225065">
        <ele>170.28999999999999</ele>
        <time>2025-04-25T15:19:04Z</time>
      </trkpt>
      <trkpt lat="43.953902022913098" lon="2.155252005904913">
        <ele>169.81</ele>
        <time>2025-04-25T15:19:17Z</time>
      </trkpt>
      <trkpt lat="43.952845986932516" lon="2.154752025380731">
        <ele>169.81</ele>
        <time>2025-04-25T15:19:28Z</time>
      </trkpt>
      <trkpt lat="43.952727969735861" lon="2.154711959883571">
        <ele>169.81</ele>
        <time>2025-04-25T15:19:36Z</time>
      </trkpt>
      <trkpt lat="43.95250903442502" lon="2.154677007347345">
        <ele>169.33000000000001</ele>
        <time>2025-04-25T15:19:46Z</time>
      </trkpt>
      <trkpt lat="43.952326979488134" lon="2.154671978205442">
        <ele>168.84999999999999</ele>
        <time>2025-04-25T15:19:57Z</time>
      </trkpt>
      <trkpt lat="43.952105026692152" lon="2.154706008732319">
        <ele>168.84999999999999</ele>
        <time>2025-04-25T15:20:08Z</time>
      </trkpt>
      <trkpt lat="43.951937975361943" lon="2.154654962942004">
        <ele>168.37</ele>
        <time>2025-04-25T15:20:17Z</time>
      </trkpt>
      <trkpt lat="43.951878966763616" lon="2.154479026794434">
        <ele>168.37</ele>
        <time>2025-04-25T15:20:18Z</time>
      </trkpt>
      <trkpt lat="43.951802020892501" lon="2.15438598766923">
        <ele>167.88999999999999</ele>
        <time>2025-04-25T15:20:20Z</time>
      </trkpt>
      <trkpt lat="43.951696995645761" lon="2.154318010434508">
        <ele>167.88999999999999</ele>
        <time>2025-04-25T15:20:21Z</time>
      </trkpt>
      <trkpt lat="43.951580990105867" lon="2.154295966029167">
        <ele>167.88999999999999</ele>
        <time>2025-04-25T15:20:22Z</time>
      </trkpt>
      <trkpt lat="43.951491974294186" lon="2.154318010434508">
        <ele>167.41</ele>
        <time>2025-04-25T15:20:23Z</time>
      </trkpt>
      <trkpt lat="43.951390972360969" lon="2.154432004317641">
        <ele>167.41</ele>
        <time>2025-04-25T15:20:24Z</time>
      </trkpt>
      <trkpt lat="43.951334981247783" lon="2.154529988765717">
        <ele>166.93000000000001</ele>
        <time>2025-04-25T15:20:25Z</time>
      </trkpt>
      <trkpt lat="43.951277984306216" lon="2.154692010954022">
        <ele>166.93000000000001</ele>
        <time>2025-04-25T15:20:26Z</time>
      </trkpt>
      <trkpt lat="43.951277984306216" lon="2.154822014272213">
        <ele>166.93000000000001</ele>
        <time>2025-04-25T15:20:27Z</time>
      </trkpt>
      <trkpt lat="43.951321989297867" lon="2.154974984005094">
        <ele>166.93000000000001</ele>
        <time>2025-04-25T15:20:28Z</time>
      </trkpt>
      <trkpt lat="43.951362976804376" lon="2.155088977888227">
        <ele>166.93000000000001</ele>
        <time>2025-04-25T15:20:29Z</time>
      </trkpt>
      <trkpt lat="43.951403964310884" lon="2.155190985649824">
        <ele>167.41</ele>
        <time>2025-04-25T15:20:30Z</time>
      </trkpt>
      <trkpt lat="43.951426008716226" lon="2.155277989804745">
        <ele>167.41</ele>
        <time>2025-04-25T15:20:31Z</time>
      </trkpt>
      <trkpt lat="43.951415028423071" lon="2.155390977859497">
        <ele>167.41</ele>
        <time>2025-04-25T15:20:32Z</time>
      </trkpt>
      <trkpt lat="43.951394995674491" lon="2.155496003106237">
        <ele>167.41</ele>
        <time>2025-04-25T15:20:33Z</time>
      </trkpt>
      <trkpt lat="43.951345961540937" lon="2.155612008646131">
        <ele>167.41</ele>
        <time>2025-04-25T15:20:34Z</time>
      </trkpt>
      <trkpt lat="43.951300028711557" lon="2.155723990872502">
        <ele>166.93000000000001</ele>
        <time>2025-04-25T15:20:35Z</time>
      </trkpt>
      <trkpt lat="43.950644982978702" lon="2.156871976330876">
        <ele>164.52000000000001</ele>
        <time>2025-04-25T15:20:43Z</time>
      </trkpt>
      <trkpt lat="43.949368000030518" lon="2.15814895927906">
        <ele>163.08000000000001</ele>
        <time>2025-04-25T15:20:52Z</time>
      </trkpt>
      <trkpt lat="43.947950033470988" lon="2.159374980255961">
        <ele>163.56</ele>
        <time>2025-04-25T15:21:00Z</time>
      </trkpt>
      <trkpt lat="43.947744006291032" lon="2.15945502743125">
        <ele>164.03999999999999</ele>
        <time>2025-04-25T15:21:01Z</time>
      </trkpt>
      <trkpt lat="43.945946004241705" lon="2.159942016005516">
        <ele>164.03999999999999</ele>
        <time>2025-04-25T15:21:10Z</time>
      </trkpt>
      <trkpt lat="43.94576302729547" lon="2.160032037645578">
        <ele>164.03999999999999</ele>
        <time>2025-04-25T15:21:11Z</time>
      </trkpt>
      <trkpt lat="43.945581978186965" lon="2.160137984901667">
        <ele>164.03999999999999</ele>
        <time>2025-04-25T15:21:12Z</time>
      </trkpt>
      <trkpt lat="43.945404030382633" lon="2.160264970734716">
        <ele>163.56</ele>
        <time>2025-04-25T15:21:13Z</time>
      </trkpt>
      <trkpt lat="43.945221975445747" lon="2.160392962396145">
        <ele>163.56</ele>
        <time>2025-04-25T15:21:14Z</time>
      </trkpt>
      <trkpt lat="43.945052996277809" lon="2.160537969321013">
        <ele>163.56</ele>
        <time>2025-04-25T15:21:15Z</time>
      </trkpt>
      <trkpt lat="43.944896003231406" lon="2.160706026479602">
        <ele>163.56</ele>
        <time>2025-04-25T15:21:16Z</time>
      </trkpt>
      <trkpt lat="43.944746972993016" lon="2.160879028961062">
        <ele>163.08000000000001</ele>
        <time>2025-04-25T15:21:17Z</time>
      </trkpt>
      <trkpt lat="43.94462401047349" lon="2.161078015342355">
        <ele>163.08000000000001</ele>
        <time>2025-04-25T15:21:18Z</time>
      </trkpt>
      <trkpt lat="43.944505993276834" lon="2.161274990066886">
        <ele>163.08000000000001</ele>
        <time>2025-04-25T15:21:19Z</time>
      </trkpt>
      <trkpt lat="43.943907022476196" lon="2.162780966609716">
        <ele>164.52000000000001</ele>
        <time>2025-04-25T15:21:26Z</time>
      </trkpt>
      <trkpt lat="43.943130020052195" lon="2.165290005505085">
        <ele>167.88999999999999</ele>
        <time>2025-04-25T15:21:37Z</time>
      </trkpt>
      <trkpt lat="43.942371038720012" lon="2.167609026655555">
        <ele>173.16999999999999</ele>
        <time>2025-04-25T15:21:46Z</time>
      </trkpt>
      <trkpt lat="43.941612979397178" lon="2.169008972123265">
        <ele>175.09999999999999</ele>
        <time>2025-04-25T15:21:52Z</time>
      </trkpt>
      <trkpt lat="43.94049902446568" lon="2.169902985915542">
        <ele>177.02000000000001</ele>
        <time>2025-04-25T15:21:58Z</time>
      </trkpt>
      <trkpt lat="43.937608022242785" lon="2.171503007411957">
        <ele>181.83000000000001</ele>
        <time>2025-04-25T15:22:13Z</time>
      </trkpt>
      <trkpt lat="43.935095965862274" lon="2.172730034217238">
        <ele>179.90000000000001</ele>
        <time>2025-04-25T15:22:25Z</time>
      </trkpt>
      <trkpt lat="43.933134013786912" lon="2.173482980579138">
        <ele>175.58000000000001</ele>
        <time>2025-04-25T15:22:34Z</time>
      </trkpt>
      <trkpt lat="43.931125039234757" lon="2.173622036352754">
        <ele>172.69</ele>
        <time>2025-04-25T15:22:43Z</time>
      </trkpt>
      <trkpt lat="43.928447021171451" lon="2.173303021118045">
        <ele>172.21000000000001</ele>
        <time>2025-04-25T15:22:55Z</time>
      </trkpt>
      <trkpt lat="43.926375014707446" lon="2.172204991802573">
        <ele>176.53999999999999</ele>
        <time>2025-04-25T15:23:05Z</time>
      </trkpt>
      <trkpt lat="43.923759022727609" lon="2.170090992003679">
        <ele>181.34999999999999</ele>
        <time>2025-04-25T15:23:19Z</time>
      </trkpt>
      <trkpt lat="43.920887969434261" lon="2.16781597584486">
        <ele>186.63</ele>
        <time>2025-04-25T15:23:35Z</time>
      </trkpt>
      <trkpt lat="43.917904011905193" lon="2.16512999497354">
        <ele>188.08000000000001</ele>
        <time>2025-04-25T15:23:50Z</time>
      </trkpt>
      <trkpt lat="43.91671503894031" lon="2.163309026509523">
        <ele>184.71000000000001</ele>
        <time>2025-04-25T15:23:58Z</time>
      </trkpt>
      <trkpt lat="43.916016994044185" lon="2.161470958963037">
        <ele>183.75</ele>
        <time>2025-04-25T15:24:06Z</time>
      </trkpt>
      <trkpt lat="43.915484994649887" lon="2.158815991133452">
        <ele>183.75</ele>
        <time>2025-04-25T15:24:15Z</time>
      </trkpt>
      <trkpt lat="43.915064977481961" lon="2.156196981668472">
        <ele>183.27000000000001</ele>
        <time>2025-04-25T15:24:24Z</time>
      </trkpt>
      <trkpt lat="43.914476986974478" lon="2.152695022523403">
        <ele>182.31</ele>
        <time>2025-04-25T15:24:35Z</time>
      </trkpt>
      <trkpt lat="43.914025034755468" lon="2.150019016116858">
        <ele>183.75</ele>
        <time>2025-04-25T15:24:44Z</time>
      </trkpt>
      <trkpt lat="43.913244009017944" lon="2.147563034668565">
        <ele>187.11000000000001</ele>
        <time>2025-04-25T15:24:53Z</time>
      </trkpt>
      <trkpt lat="43.912297021597624" lon="2.144861966371536">
        <ele>189.03999999999999</ele>
        <time>2025-04-25T15:25:03Z</time>
      </trkpt>
      <trkpt lat="43.911489006131887" lon="2.141213994473219">
        <ele>189.03999999999999</ele>
        <time>2025-04-25T15:25:16Z</time>
      </trkpt>
      <trkpt lat="43.91138800419867" lon="2.140135997906327">
        <ele>187.11000000000001</ele>
        <time>2025-04-25T15:25:21Z</time>
      </trkpt>
      <trkpt lat="43.911394039168954" lon="2.139960983768106">
        <ele>186.63</ele>
        <time>2025-04-25T15:25:22Z</time>
      </trkpt>
      <trkpt lat="43.911394039168954" lon="2.139959977939725">
        <ele>185.66999999999999</ele>
        <time>2025-04-25T15:25:23Z</time>
      </trkpt>
      <trkpt lat="43.91145103611052" lon="2.139823017641902">
        <ele>185.19</ele>
        <time>2025-04-25T15:25:24Z</time>
      </trkpt>
      <trkpt lat="43.911520019173622" lon="2.139700977131724">
        <ele>184.71000000000001</ele>
        <time>2025-04-25T15:25:25Z</time>
      </trkpt>
      <trkpt lat="43.911739960312843" lon="2.139593018218875">
        <ele>183.75</ele>
        <time>2025-04-25T15:25:26Z</time>
      </trkpt>
      <trkpt lat="43.911854960024357" lon="2.139613972976804">
        <ele>183.27000000000001</ele>
        <time>2025-04-25T15:25:27Z</time>
      </trkpt>
      <trkpt lat="43.911980018019676" lon="2.13968999683857">
        <ele>182.31</ele>
        <time>2025-04-25T15:25:28Z</time>
      </trkpt>
      <trkpt lat="43.91205201856792" lon="2.139817988499999">
        <ele>181.34999999999999</ele>
        <time>2025-04-25T15:25:29Z</time>
      </trkpt>
      <trkpt lat="43.91213902272284" lon="2.139973975718021">
        <ele>180.87</ele>
        <time>2025-04-25T15:25:30Z</time>
      </trkpt>
      <trkpt lat="43.912147991359234" lon="2.140139015391469">
        <ele>179.90000000000001</ele>
        <time>2025-04-25T15:25:31Z</time>
      </trkpt>
      <trkpt lat="43.912156959995627" lon="2.140305982902646">
        <ele>179.41999999999999</ele>
        <time>2025-04-25T15:25:32Z</time>
      </trkpt>
      <trkpt lat="43.912144973874092" lon="2.140476973727346">
        <ele>178.94</ele>
        <time>2025-04-25T15:25:33Z</time>
      </trkpt>
      <trkpt lat="43.912011031061411" lon="2.141002016142011">
        <ele>178.94</ele>
        <time>2025-04-25T15:25:39Z</time>
      </trkpt>
      <trkpt lat="43.911965014412999" lon="2.14113000780344">
        <ele>178.94</ele>
        <time>2025-04-25T15:25:43Z</time>
      </trkpt>
      <trkpt lat="43.911944981664419" lon="2.141183987259865">
        <ele>178.46000000000001</ele>
        <time>2025-04-25T15:25:44Z</time>
      </trkpt>
      <trkpt lat="43.911920003592968" lon="2.141250036656857">
        <ele>178.46000000000001</ele>
        <time>2025-04-25T15:25:45Z</time>
      </trkpt>
      <trkpt lat="43.911767033860087" lon="2.141418009996414">
        <ele>177.97999999999999</ele>
        <time>2025-04-25T15:25:47Z</time>
      </trkpt>
      <trkpt lat="43.911702996119857" lon="2.141406023874879">
        <ele>177.97999999999999</ele>
        <time>2025-04-25T15:25:48Z</time>
      </trkpt>
      <trkpt lat="43.911624038591981" lon="2.141390014439821">
        <ele>178.46000000000001</ele>
        <time>2025-04-25T15:25:49Z</time>
      </trkpt>
      <trkpt lat="43.911530999466777" lon="2.141370987519622">
        <ele>178.94</ele>
        <time>2025-04-25T15:25:50Z</time>
      </trkpt>
      <trkpt lat="43.911426980048418" lon="2.141342991963029">
        <ele>178.94</ele>
        <time>2025-04-25T15:25:51Z</time>
      </trkpt>
      <trkpt lat="43.910587029531598" lon="2.141055995598435">
        <ele>179.41999999999999</ele>
        <time>2025-04-25T15:26:00Z</time>
      </trkpt>
      <trkpt lat="43.910289974883199" lon="2.140953987836838">
        <ele>179.90000000000001</ele>
        <time>2025-04-25T15:26:04Z</time>
      </trkpt>
      <trkpt lat="43.910231972113252" lon="2.14093403890729">
        <ele>180.38</ele>
        <time>2025-04-25T15:26:05Z</time>
      </trkpt>
      <trkpt lat="43.910186961293221" lon="2.140724994242191">
        <ele>180.38</ele>
        <time>2025-04-25T15:26:06Z</time>
      </trkpt>
      <trkpt lat="43.910171035677195" lon="2.14070001617074">
        <ele>180.87</ele>
        <time>2025-04-25T15:26:07Z</time>
      </trkpt>
      <trkpt lat="43.910124013200402" lon="2.140623992308974">
        <ele>180.87</ele>
        <time>2025-04-25T15:26:08Z</time>
      </trkpt>
      <trkpt lat="43.910038014873862" lon="2.140552997589111">
        <ele>181.34999999999999</ele>
        <time>2025-04-25T15:26:09Z</time>
      </trkpt>
      <trkpt lat="43.909965008497238" lon="2.140564983710647">
        <ele>181.34999999999999</ele>
        <time>2025-04-25T15:26:10Z</time>
      </trkpt>
      <trkpt lat="43.909894013777375" lon="2.14059297926724">
        <ele>181.83000000000001</ele>
        <time>2025-04-25T15:26:11Z</time>
      </trkpt>
      <trkpt lat="43.909894013777375" lon="2.14059297926724">
        <ele>181.83000000000001</ele>
        <time>2025-04-25T15:26:12Z</time>
      </trkpt>
      <trkpt lat="43.909885967150331" lon="2.140595996752381">
        <ele>181.83000000000001</ele>
        <time>2025-04-25T15:26:13Z</time>
      </trkpt>
      <trkpt lat="43.909671977162361" lon="2.140810992568731">
        <ele>181.83000000000001</ele>
        <time>2025-04-25T15:26:14Z</time>
      </trkpt>
      <trkpt lat="43.909587990492582" lon="2.140814010053873">
        <ele>181.83000000000001</ele>
        <time>2025-04-25T15:26:15Z</time>
      </trkpt>
      <trkpt lat="43.909587990492582" lon="2.140814010053873">
        <ele>182.31</ele>
        <time>2025-04-25T15:26:16Z</time>
      </trkpt>
      <trkpt lat="43.909496963024139" lon="2.140820967033505">
        <ele>182.31</ele>
        <time>2025-04-25T15:26:17Z</time>
      </trkpt>
      <trkpt lat="43.908315030857921" lon="2.140883998945355">
        <ele>183.75</ele>
        <time>2025-04-25T15:26:27Z</time>
      </trkpt>
      <trkpt lat="43.907252037897706" lon="2.141055995598435">
        <ele>188.08000000000001</ele>
        <time>2025-04-25T15:26:37Z</time>
      </trkpt>
      <trkpt lat="43.906352994963527" lon="2.141308039426804">
        <ele>190</ele>
        <time>2025-04-25T15:26:46Z</time>
      </trkpt>
      <trkpt lat="43.905895007774234" lon="2.141476012766361">
        <ele>191.91999999999999</ele>
        <time>2025-04-25T15:26:52Z</time>
      </trkpt>
      <trkpt lat="43.905817978084087" lon="2.141513982787728">
        <ele>191.91999999999999</ele>
        <time>2025-04-25T15:26:53Z</time>
      </trkpt>
      <trkpt lat="43.905681017786264" lon="2.141433013603091">
        <ele>191.91999999999999</ele>
        <time>2025-04-25T15:26:54Z</time>
      </trkpt>
      <trkpt lat="43.905595019459724" lon="2.14149696752429">
        <ele>191.91999999999999</ele>
        <time>2025-04-25T15:26:55Z</time>
      </trkpt>
      <trkpt lat="43.905509021133184" lon="2.141647003591061">
        <ele>191.91999999999999</ele>
        <time>2025-04-25T15:26:56Z</time>
      </trkpt>
      <trkpt lat="43.905413970351219" lon="2.141696959733963">
        <ele>191.91999999999999</ele>
        <time>2025-04-25T15:26:57Z</time>
      </trkpt>
      <trkpt lat="43.90449296683073" lon="2.14235401712358">
        <ele>191.44</ele>
        <time>2025-04-25T15:27:06Z</time>
      </trkpt>
      <trkpt lat="43.903392003849149" lon="2.143443999812007">
        <ele>192.40000000000001</ele>
        <time>2025-04-25T15:27:15Z</time>
      </trkpt>
      <trkpt lat="43.902122983708978" lon="2.145035974681377">
        <ele>194.80000000000001</ele>
        <time>2025-04-25T15:27:26Z</time>
      </trkpt>
      <trkpt lat="43.900939039885998" lon="2.146560978144407">
        <ele>195.77000000000001</ele>
        <time>2025-04-25T15:27:36Z</time>
      </trkpt>
      <trkpt lat="43.899856014177203" lon="2.147924965247512">
        <ele>195.77000000000001</ele>
        <time>2025-04-25T15:27:45Z</time>
      </trkpt>
      <trkpt lat="43.898872984573245" lon="2.149087032303214">
        <ele>194.31999999999999</ele>
        <time>2025-04-25T15:27:54Z</time>
      </trkpt>
      <trkpt lat="43.898773994296789" lon="2.149160960689187">
        <ele>194.31999999999999</ele>
        <time>2025-04-25T15:27:55Z</time>
      </trkpt>
      <trkpt lat="43.898553969338536" lon="2.149246037006378">
        <ele>194.31999999999999</ele>
        <time>2025-04-25T15:27:57Z</time>
      </trkpt>
      <trkpt lat="43.898473000153899" lon="2.149327006191015">
        <ele>194.31999999999999</ele>
        <time>2025-04-25T15:27:58Z</time>
      </trkpt>
      <trkpt lat="43.898470988497138" lon="2.149519035592675">
        <ele>194.80000000000001</ele>
        <time>2025-04-25T15:27:59Z</time>
      </trkpt>
      <trkpt lat="43.898440981283784" lon="2.149686003103852">
        <ele>194.31999999999999</ele>
        <time>2025-04-25T15:28:00Z</time>
      </trkpt>
      <trkpt lat="43.89836504124105" lon="2.149778036400676">
        <ele>194.31999999999999</ele>
        <time>2025-04-25T15:28:01Z</time>
      </trkpt>
      <trkpt lat="43.898285999894142" lon="2.149871997535229">
        <ele>193.84</ele>
        <time>2025-04-25T15:28:02Z</time>
      </trkpt>
      <trkpt lat="43.898206958547235" lon="2.149965036660433">
        <ele>193.84</ele>
        <time>2025-04-25T15:28:03Z</time>
      </trkpt>
      <trkpt lat="43.897171039134264" lon="2.151116961613298">
        <ele>192.88</ele>
        <time>2025-04-25T15:28:15Z</time>
      </trkpt>
      <trkpt lat="43.895538998767734" lon="2.152755036950111">
        <ele>192.40000000000001</ele>
        <time>2025-04-25T15:28:28Z</time>
      </trkpt>
      <trkpt lat="43.8937499653548" lon="2.154542980715632">
        <ele>192.40000000000001</ele>
        <time>2025-04-25T15:28:42Z</time>
      </trkpt>
      <trkpt lat="43.892021030187607" lon="2.156552039086819">
        <ele>194.31999999999999</ele>
        <time>2025-04-25T15:28:55Z</time>
      </trkpt>
      <trkpt lat="43.89114998281002" lon="2.158244010061026">
        <ele>195.28</ele>
        <time>2025-04-25T15:29:04Z</time>
      </trkpt>
      <trkpt lat="43.890533996745944" lon="2.160053998231888">
        <ele>196.72999999999999</ele>
        <time>2025-04-25T15:29:13Z</time>
      </trkpt>
      <trkpt lat="43.889804016798735" lon="2.162349969148636">
        <ele>200.56999999999999</ele>
        <time>2025-04-25T15:29:27Z</time>
      </trkpt>
      <trkpt lat="43.88964400626719" lon="2.162845004349947">
        <ele>201.53</ele>
        <time>2025-04-25T15:29:32Z</time>
      </trkpt>
      <trkpt lat="43.889625985175371" lon="2.162903007119894">
        <ele>201.53</ele>
        <time>2025-04-25T15:29:33Z</time>
      </trkpt>
      <trkpt lat="43.889502016827464" lon="2.162954974919558">
        <ele>201.53</ele>
        <time>2025-04-25T15:29:34Z</time>
      </trkpt>
      <trkpt lat="43.889491036534309" lon="2.162965033203363">
        <ele>201.53</ele>
        <time>2025-04-25T15:29:35Z</time>
      </trkpt>
      <trkpt lat="43.889439990743995" lon="2.163017001003027">
        <ele>201.53</ele>
        <time>2025-04-25T15:29:36Z</time>
      </trkpt>
      <trkpt lat="43.889390034601092" lon="2.163066035136581">
        <ele>202.00999999999999</ele>
        <time>2025-04-25T15:29:37Z</time>
      </trkpt>
      <trkpt lat="43.889364972710609" lon="2.163164019584656">
        <ele>201.53</ele>
        <time>2025-04-25T15:29:38Z</time>
      </trkpt>
      <trkpt lat="43.889354998245835" lon="2.163258986547589">
        <ele>202.00999999999999</ele>
        <time>2025-04-25T15:29:39Z</time>
      </trkpt>
      <trkpt lat="43.889350974932313" lon="2.163297962397337">
        <ele>202.00999999999999</ele>
        <time>2025-04-25T15:29:40Z</time>
      </trkpt>
      <trkpt lat="43.889423981308937" lon="2.163413967937231">
        <ele>202.49000000000001</ele>
        <time>2025-04-25T15:29:41Z</time>
      </trkpt>
      <trkpt lat="43.889402020722628" lon="2.163595017045736">
        <ele>202.49000000000001</ele>
        <time>2025-04-25T15:29:42Z</time>
      </trkpt>
      <trkpt lat="43.889359021559358" lon="2.163691995665431">
        <ele>202.97999999999999</ele>
        <time>2025-04-25T15:29:43Z</time>
      </trkpt>
      <trkpt lat="43.889308981597424" lon="2.163802972063422">
        <ele>203.46000000000001</ele>
        <time>2025-04-25T15:29:44Z</time>
      </trkpt>
      <trkpt lat="43.888682015240192" lon="2.165026981383562">
        <ele>204.41999999999999</ele>
        <time>2025-04-25T15:29:53Z</time>
      </trkpt>
      <trkpt lat="43.887868970632553" lon="2.16594697907567">
        <ele>205.86000000000001</ele>
        <time>2025-04-25T15:30:01Z</time>
      </trkpt>
      <trkpt lat="43.887153994292021" lon="2.166456012055278">
        <ele>205.38</ele>
        <time>2025-04-25T15:30:05Z</time>
      </trkpt>
      <trkpt lat="43.885340988636017" lon="2.167355976998806">
        <ele>202.49000000000001</ele>
        <time>2025-04-25T15:30:16Z</time>
      </trkpt>
      <trkpt lat="43.883871976286173" lon="2.168388040736318">
        <ele>204.90000000000001</ele>
        <time>2025-04-25T15:30:25Z</time>
      </trkpt>
      <trkpt lat="43.882242031395435" lon="2.170321997255087">
        <ele>208.25999999999999</ele>
        <time>2025-04-25T15:30:36Z</time>
      </trkpt>
      <trkpt lat="43.879919992759824" lon="2.173413997516036">
        <ele>215.94999999999999</ele>
        <time>2025-04-25T15:30:51Z</time>
      </trkpt>
      <trkpt lat="43.877659980207682" lon="2.176585961133242">
        <ele>225.56999999999999</ele>
        <time>2025-04-25T15:31:06Z</time>
      </trkpt>
      <trkpt lat="43.877477003261447" lon="2.176743960008025">
        <ele>226.53</ele>
        <time>2025-04-25T15:31:08Z</time>
      </trkpt>
      <trkpt lat="43.87527097016573" lon="2.178080035373569">
        <ele>231.33000000000001</ele>
        <time>2025-04-25T15:31:18Z</time>
      </trkpt>
      <trkpt lat="43.873666003346443" lon="2.179453996941447">
        <ele>236.13999999999999</ele>
        <time>2025-04-25T15:31:27Z</time>
      </trkpt>
      <trkpt lat="43.87174503877759" lon="2.181488033384085">
        <ele>241.43000000000001</ele>
        <time>2025-04-25T15:31:38Z</time>
      </trkpt>
      <trkpt lat="43.869817033410072" lon="2.183862961828709">
        <ele>251.03999999999999</ele>
        <time>2025-04-25T15:31:50Z</time>
      </trkpt>
      <trkpt lat="43.86822497472167" lon="2.185313031077385">
        <ele>258.25</ele>
        <time>2025-04-25T15:31:59Z</time>
      </trkpt>
      <trkpt lat="43.866392020136118" lon="2.18639899045229">
        <ele>265.94</ele>
        <time>2025-04-25T15:32:09Z</time>
      </trkpt>
      <trkpt lat="43.864439958706498" lon="2.187317982316017">
        <ele>268.82999999999998</ele>
        <time>2025-04-25T15:32:21Z</time>
      </trkpt>
      <trkpt lat="43.861751966178417" lon="2.188665037974715">
        <ele>262.10000000000002</ele>
        <time>2025-04-25T15:32:37Z</time>
      </trkpt>
      <trkpt lat="43.858958026394248" lon="2.189890975132585">
        <ele>255.37</ele>
        <time>2025-04-25T15:32:53Z</time>
      </trkpt>
      <trkpt lat="43.858764991164207" lon="2.189925005659461">
        <ele>254.88999999999999</ele>
        <time>2025-04-25T15:32:54Z</time>
      </trkpt>
      <trkpt lat="43.858566004782915" lon="2.189913019537926">
        <ele>254.41</ele>
        <time>2025-04-25T15:32:55Z</time>
      </trkpt>
      <trkpt lat="43.858180018141866" lon="2.189877983182669">
        <ele>253.44</ele>
        <time>2025-04-25T15:32:57Z</time>
      </trkpt>
      <trkpt lat="43.858000980690122" lon="2.189800031483173">
        <ele>252.96000000000001</ele>
        <time>2025-04-25T15:32:58Z</time>
      </trkpt>
      <trkpt lat="43.857821021229029" lon="2.189721995964646">
        <ele>252.47999999999999</ele>
        <time>2025-04-25T15:32:59Z</time>
      </trkpt>
      <trkpt lat="43.857129011303186" lon="2.189302984625101">
        <ele>250.08000000000001</ele>
        <time>2025-04-25T15:33:03Z</time>
      </trkpt>
      <trkpt lat="43.857128005474806" lon="2.189302984625101">
        <ele>250.08000000000001</ele>
        <time>2025-04-25T15:33:04Z</time>
      </trkpt>
      <trkpt lat="43.856822988018394" lon="2.188997967168689">
        <ele>249.59999999999999</ele>
        <time>2025-04-25T15:33:05Z</time>
      </trkpt>
      <trkpt lat="43.856688961386681" lon="2.188809961080551">
        <ele>248.63999999999999</ele>
        <time>2025-04-25T15:33:06Z</time>
      </trkpt>
      <trkpt lat="43.856553006917238" lon="2.188618015497923">
        <ele>248.16</ele>
        <time>2025-04-25T15:33:07Z</time>
      </trkpt>
      <trkpt lat="43.856415040791035" lon="2.188424980267882">
        <ele>247.68000000000001</ele>
        <time>2025-04-25T15:33:08Z</time>
      </trkpt>
      <trkpt lat="43.855123976245522" lon="2.186814984306693">
        <ele>244.78999999999999</ele>
        <time>2025-04-25T15:33:16Z</time>
      </trkpt>
      <trkpt lat="43.853540970012546" lon="2.185704968869686">
        <ele>241.91</ele>
        <time>2025-04-25T15:33:24Z</time>
      </trkpt>
      <trkpt lat="43.851397968828678" lon="2.184920003637672">
        <ele>240.94999999999999</ele>
        <time>2025-04-25T15:33:34Z</time>
      </trkpt>
      <trkpt lat="43.849236024543643" lon="2.184663014486432">
        <ele>239.02000000000001</ele>
        <time>2025-04-25T15:33:44Z</time>
      </trkpt>
      <trkpt lat="43.846333036199212" lon="2.184566035866737">
        <ele>236.62</ele>
        <time>2025-04-25T15:33:58Z</time>
      </trkpt>
      <trkpt lat="43.844226999208331" lon="2.184653040021658">
        <ele>231.81</ele>
        <time>2025-04-25T15:34:08Z</time>
      </trkpt>
      <trkpt lat="43.842455986887217" lon="2.185340020805597">
        <ele>227.97</ele>
        <time>2025-04-25T15:34:16Z</time>
      </trkpt>
      <trkpt lat="43.840858982875943" lon="2.186351967975497">
        <ele>227.49000000000001</ele>
        <time>2025-04-25T15:34:24Z</time>
      </trkpt>
      <trkpt lat="43.838846990838647" lon="2.187394006177783">
        <ele>226.05000000000001</ele>
        <time>2025-04-25T15:34:34Z</time>
      </trkpt>
      <trkpt lat="43.837600015103817" lon="2.187946038320661">
        <ele>223.63999999999999</ele>
        <time>2025-04-25T15:34:40Z</time>
      </trkpt>
      <trkpt lat="43.835987001657486" lon="2.189307007938623">
        <ele>220.28</ele>
        <time>2025-04-25T15:34:49Z</time>
      </trkpt>
      <trkpt lat="43.835789021104574" lon="2.189412033185363">
        <ele>219.80000000000001</ele>
        <time>2025-04-25T15:34:50Z</time>
      </trkpt>
      <trkpt lat="43.833533031865954" lon="2.190261036157608">
        <ele>213.06999999999999</ele>
        <time>2025-04-25T15:35:01Z</time>
      </trkpt>
      <trkpt lat="43.831821028143167" lon="2.190994033589959">
        <ele>210.66999999999999</ele>
        <time>2025-04-25T15:35:10Z</time>
      </trkpt>
      <trkpt lat="43.830310022458434" lon="2.191322017461062">
        <ele>211.15000000000001</ele>
        <time>2025-04-25T15:35:18Z</time>
      </trkpt>
      <trkpt lat="43.828960033133626" lon="2.191001996397972">
        <ele>214.99000000000001</ele>
        <time>2025-04-25T15:35:26Z</time>
      </trkpt>
      <trkpt lat="43.827739041298628" lon="2.190026007592678">
        <ele>220.28</ele>
        <time>2025-04-25T15:35:34Z</time>
      </trkpt>
      <trkpt lat="43.826358038932085" lon="2.188620027154684">
        <ele>222.68000000000001</ele>
        <time>2025-04-25T15:35:43Z</time>
      </trkpt>
      <trkpt lat="43.824619967490435" lon="2.18674398958683">
        <ele>220.75999999999999</ele>
        <time>2025-04-25T15:35:53Z</time>
      </trkpt>
      <trkpt lat="43.823242988437414" lon="2.185249999165535">
        <ele>220.28</ele>
        <time>2025-04-25T15:36:01Z</time>
      </trkpt>
      <trkpt lat="43.821541965007782" lon="2.183420984074473">
        <ele>219.80000000000001</ele>
        <time>2025-04-25T15:36:11Z</time>
      </trkpt>
      <trkpt lat="43.819355964660645" lon="2.181051000952721">
        <ele>227.97</ele>
        <time>2025-04-25T15:36:25Z</time>
      </trkpt>
      <trkpt lat="43.817802965641022" lon="2.179531026631594">
        <ele>234.22</ele>
        <time>2025-04-25T15:36:36Z</time>
      </trkpt>
      <trkpt lat="43.81659597158432" lon="2.179107991978526">
        <ele>237.58000000000001</ele>
        <time>2025-04-25T15:36:42Z</time>
      </trkpt>
      <trkpt lat="43.81517699919641" lon="2.179341008886695">
        <ele>239.02000000000001</ele>
        <time>2025-04-25T15:36:49Z</time>
      </trkpt>
      <trkpt lat="43.813341027125716" lon="2.180355973541737">
        <ele>239.99000000000001</ele>
        <time>2025-04-25T15:36:58Z</time>
      </trkpt>
      <trkpt lat="43.810634007677436" lon="2.181915007531643">
        <ele>249.12</ele>
        <time>2025-04-25T15:37:10Z</time>
      </trkpt>
      <trkpt lat="43.808478014543653" lon="2.182802986353636">
        <ele>257.29000000000002</ele>
        <time>2025-04-25T15:37:19Z</time>
      </trkpt>
      <trkpt lat="43.806076012551785" lon="2.182868029922247">
        <ele>265.94</ele>
        <time>2025-04-25T15:37:29Z</time>
      </trkpt>
      <trkpt lat="43.803597986698151" lon="2.182914968580008">
        <ele>269.31</ele>
        <time>2025-04-25T15:37:40Z</time>
      </trkpt>
      <trkpt lat="43.802707996219397" lon="2.183073973283172">
        <ele>269.31</ele>
        <time>2025-04-25T15:37:44Z</time>
      </trkpt>
      <trkpt lat="43.802490988746285" lon="2.183146979659796">
        <ele>269.79000000000002</ele>
        <time>2025-04-25T15:37:45Z</time>
      </trkpt>
      <trkpt lat="43.802294014021754" lon="2.183285029605031">
        <ele>269.31</ele>
        <time>2025-04-25T15:37:46Z</time>
      </trkpt>
      <trkpt lat="43.802101984620094" lon="2.183431964367628">
        <ele>269.79000000000002</ele>
        <time>2025-04-25T15:37:47Z</time>
      </trkpt>
      <trkpt lat="43.801930993795395" lon="2.183636985719204">
        <ele>269.79000000000002</ele>
        <time>2025-04-25T15:37:48Z</time>
      </trkpt>
      <trkpt lat="43.801755979657173" lon="2.183847036212683">
        <ele>269.79000000000002</ele>
        <time>2025-04-25T15:37:49Z</time>
      </trkpt>
      <trkpt lat="43.801580965518951" lon="2.184062032029033">
        <ele>269.31</ele>
        <time>2025-04-25T15:37:50Z</time>
      </trkpt>
      <trkpt lat="43.801435036584735" lon="2.184322038665414">
        <ele>269.31</ele>
        <time>2025-04-25T15:37:51Z</time>
      </trkpt>
      <trkpt lat="43.801290029659867" lon="2.184579027816653">
        <ele>269.31</ele>
        <time>2025-04-25T15:37:52Z</time>
      </trkpt>
      <trkpt lat="43.8005440402776" lon="2.185828015208244">
        <ele>267.86000000000001</ele>
        <time>2025-04-25T15:37:57Z</time>
      </trkpt>
      <trkpt lat="43.800358967855573" lon="2.186021972447634">
        <ele>267.38</ele>
        <time>2025-04-25T15:37:58Z</time>
      </trkpt>
      <trkpt lat="43.800168028101325" lon="2.186192963272333">
        <ele>266.42000000000002</ele>
        <time>2025-04-25T15:37:59Z</time>
      </trkpt>
      <trkpt lat="43.799954960122705" lon="2.186321960762143">
        <ele>265.94</ele>
        <time>2025-04-25T15:38:00Z</time>
      </trkpt>
      <trkpt lat="43.799745999276638" lon="2.186450036242604">
        <ele>264.98000000000002</ele>
        <time>2025-04-25T15:38:01Z</time>
      </trkpt>
      <trkpt lat="43.799518011510372" lon="2.186507033184171">
        <ele>264.5</ele>
        <time>2025-04-25T15:38:02Z</time>
      </trkpt>
      <trkpt lat="43.799288012087345" lon="2.186557995155454">
        <ele>263.54000000000002</ele>
        <time>2025-04-25T15:38:03Z</time>
      </trkpt>
      <trkpt lat="43.799058012664318" lon="2.186557995155454">
        <ele>262.10000000000002</ele>
        <time>2025-04-25T15:38:04Z</time>
      </trkpt>
      <trkpt lat="43.798824995756149" lon="2.186557995155454">
        <ele>261.13999999999999</ele>
        <time>2025-04-25T15:38:05Z</time>
      </trkpt>
      <trkpt lat="43.796919034793973" lon="2.18676402233541">
        <ele>252</ele>
        <time>2025-04-25T15:38:13Z</time>
      </trkpt>
      <trkpt lat="43.794122999534011" lon="2.187936985865235">
        <ele>240.47</ele>
        <time>2025-04-25T15:38:25Z</time>
      </trkpt>
      <trkpt lat="43.793222028762102" lon="2.188250971958041">
        <ele>236.62</ele>
        <time>2025-04-25T15:38:29Z</time>
      </trkpt>
      <trkpt lat="43.792985994368792" lon="2.188275028020144">
        <ele>235.66</ele>
        <time>2025-04-25T15:38:30Z</time>
      </trkpt>
      <trkpt lat="43.790875012055039" lon="2.188189029693604">
        <ele>226.05000000000001</ele>
        <time>2025-04-25T15:38:39Z</time>
      </trkpt>
      <trkpt lat="43.789106011390686" lon="2.188387010246515">
        <ele>219.80000000000001</ele>
        <time>2025-04-25T15:38:47Z</time>
      </trkpt>
      <trkpt lat="43.787604980170727" lon="2.188743995502591">
        <ele>216.91</ele>
        <time>2025-04-25T15:38:54Z</time>
      </trkpt>
      <trkpt lat="43.787388978525996" lon="2.188728991895914">
        <ele>216.91</ele>
        <time>2025-04-25T15:38:55Z</time>
      </trkpt>
      <trkpt lat="43.787173982709646" lon="2.188660008832812">
        <ele>216.43000000000001</ele>
        <time>2025-04-25T15:38:56Z</time>
      </trkpt>
      <trkpt lat="43.785285037010908" lon="2.187835983932018">
        <ele>215.94999999999999</ele>
        <time>2025-04-25T15:39:06Z</time>
      </trkpt>
      <trkpt lat="43.783656014129519" lon="2.187085971236229">
        <ele>213.55000000000001</ele>
        <time>2025-04-25T15:39:14Z</time>
      </trkpt>
      <trkpt lat="43.78286199644208" lon="2.18676402233541">
        <ele>211.63</ele>
        <time>2025-04-25T15:39:20Z</time>
      </trkpt>
      <trkpt lat="43.781682997941971" lon="2.186611974611878">
        <ele>209.69999999999999</ele>
        <time>2025-04-25T15:39:30Z</time>
      </trkpt>
      <trkpt lat="43.780625034123659" lon="2.186966026201844">
        <ele>207.78</ele>
        <time>2025-04-25T15:39:39Z</time>
      </trkpt>
      <trkpt lat="43.779913997277617" lon="2.187385959550738">
        <ele>207.78</ele>
        <time>2025-04-25T15:39:47Z</time>
      </trkpt>
      <trkpt lat="43.779246965423226" lon="2.187686031684279">
        <ele>208.25999999999999</ele>
        <time>2025-04-25T15:39:57Z</time>
      </trkpt>
      <trkpt lat="43.779176976531744" lon="2.187716038897634">
        <ele>208.25999999999999</ele>
        <time>2025-04-25T15:39:58Z</time>
      </trkpt>
      <trkpt lat="43.778186989948153" lon="2.187997000291944">
        <ele>206.81999999999999</ele>
        <time>2025-04-25T15:40:11Z</time>
      </trkpt>
      <trkpt lat="43.778033014386892" lon="2.188037987798452">
        <ele>206.34</ele>
        <time>2025-04-25T15:40:13Z</time>
      </trkpt>
      <trkpt lat="43.777823969721794" lon="2.188092973083258">
        <ele>205.86000000000001</ele>
        <time>2025-04-25T15:40:17Z</time>
      </trkpt>
      <trkpt lat="43.777711987495422" lon="2.188122980296612">
        <ele>205.86000000000001</ele>
        <time>2025-04-25T15:40:18Z</time>
      </trkpt>
      <trkpt lat="43.777534961700439" lon="2.188170002773404">
        <ele>206.34</ele>
        <time>2025-04-25T15:40:25Z</time>
      </trkpt>
      <trkpt lat="43.777471007779241" lon="2.188188023865223">
        <ele>206.81999999999999</ele>
        <time>2025-04-25T15:40:33Z</time>
      </trkpt>
      <trkpt lat="43.77734100446105" lon="2.188202021643519">
        <ele>207.30000000000001</ele>
        <time>2025-04-25T15:40:37Z</time>
      </trkpt>
      <trkpt lat="43.777296999469399" lon="2.188192969188094">
        <ele>207.30000000000001</ele>
        <time>2025-04-25T15:40:38Z</time>
      </trkpt>
      <trkpt lat="43.7772779725492" lon="2.188189029693604">
        <ele>207.78</ele>
        <time>2025-04-25T15:40:39Z</time>
      </trkpt>
      <trkpt lat="43.7772779725492" lon="2.188189029693604">
        <ele>208.25999999999999</ele>
        <time>2025-04-25T15:40:40Z</time>
      </trkpt>
      <trkpt lat="43.777141012251377" lon="2.188141001388431">
        <ele>208.25999999999999</ele>
        <time>2025-04-25T15:40:41Z</time>
      </trkpt>
      <trkpt lat="43.777102958410978" lon="2.188181988894939">
        <ele>208.25999999999999</ele>
        <time>2025-04-25T15:40:42Z</time>
      </trkpt>
      <trkpt lat="43.777102958410978" lon="2.188181988894939">
        <ele>208.25999999999999</ele>
        <time>2025-04-25T15:40:43Z</time>
      </trkpt>
      <trkpt lat="43.77706297673285" lon="2.18822599388659">
        <ele>208.25999999999999</ele>
        <time>2025-04-25T15:40:44Z</time>
      </trkpt>
      <trkpt lat="43.776956023648381" lon="2.188232028856874">
        <ele>208.25999999999999</ele>
        <time>2025-04-25T15:40:45Z</time>
      </trkpt>
      <trkpt lat="43.776940014213324" lon="2.188215013593435">
        <ele>208.74000000000001</ele>
        <time>2025-04-25T15:40:46Z</time>
      </trkpt>
      <trkpt lat="43.77689098007977" lon="2.188166985288262">
        <ele>208.74000000000001</ele>
        <time>2025-04-25T15:40:47Z</time>
      </trkpt>
      <trkpt lat="43.776600966230035" lon="2.187876971438527">
        <ele>209.22</ele>
        <time>2025-04-25T15:40:52Z</time>
      </trkpt>
      <trkpt lat="43.776536006480455" lon="2.187812011688948">
        <ele>209.22</ele>
        <time>2025-04-25T15:40:53Z</time>
      </trkpt>
      <trkpt lat="43.776467023417354" lon="2.187748979777098">
        <ele>209.22</ele>
        <time>2025-04-25T15:40:54Z</time>
      </trkpt>
      <trkpt lat="43.77639502286911" lon="2.18768896535039">
        <ele>209.22</ele>
        <time>2025-04-25T15:40:55Z</time>
      </trkpt>
      <trkpt lat="43.776324028149247" lon="2.187630040571094">
        <ele>209.22</ele>
        <time>2025-04-25T15:40:56Z</time>
      </trkpt>
      <trkpt lat="43.776174997910857" lon="2.187526021152735">
        <ele>208.74000000000001</ele>
        <time>2025-04-25T15:40:58Z</time>
      </trkpt>
      <trkpt lat="43.776102997362614" lon="2.187486039474607">
        <ele>208.74000000000001</ele>
        <time>2025-04-25T15:40:59Z</time>
      </trkpt>
      <trkpt lat="43.776024961844087" lon="2.187461983412504">
        <ele>208.25999999999999</ele>
        <time>2025-04-25T15:41:00Z</time>
      </trkpt>
      <trkpt lat="43.775957990437746" lon="2.187467012554407">
        <ele>208.25999999999999</ele>
        <time>2025-04-25T15:41:01Z</time>
      </trkpt>
      <trkpt lat="43.775891019031405" lon="2.187472963705659">
        <ele>208.25999999999999</ele>
        <time>2025-04-25T15:41:02Z</time>
      </trkpt>
      <trkpt lat="43.775827987119555" lon="2.187477992847562">
        <ele>208.25999999999999</ele>
        <time>2025-04-25T15:41:03Z</time>
      </trkpt>
      <trkpt lat="43.775755986571312" lon="2.18751696869731">
        <ele>207.78</ele>
        <time>2025-04-25T15:41:04Z</time>
      </trkpt>
      <trkpt lat="43.775701001286507" lon="2.187566002830863">
        <ele>207.78</ele>
        <time>2025-04-25T15:41:05Z</time>
      </trkpt>
      <trkpt lat="43.775460021570325" lon="2.18779600225389">
        <ele>207.78</ele>
        <time>2025-04-25T15:41:09Z</time>
      </trkpt>
      <trkpt lat="43.775369999930263" lon="2.187843024730682">
        <ele>208.25999999999999</ele>
        <time>2025-04-25T15:41:10Z</time>
      </trkpt>
      <trkpt lat="43.775292970240116" lon="2.187836989760399">
        <ele>209.22</ele>
        <time>2025-04-25T15:41:11Z</time>
      </trkpt>
      <trkpt lat="43.775292970240116" lon="2.187836989760399">
        <ele>209.69999999999999</ele>
        <time>2025-04-25T15:41:12Z</time>
      </trkpt>
      <trkpt lat="43.775120973587036" lon="2.187808994203806">
        <ele>210.19</ele>
        <time>2025-04-25T15:41:13Z</time>
      </trkpt>
      <trkpt lat="43.775120973587036" lon="2.187808994203806">
        <ele>210.66999999999999</ele>
        <time>2025-04-25T15:41:14Z</time>
      </trkpt>
      <trkpt lat="43.77506498247385" lon="2.187727019190788">
        <ele>210.66999999999999</ele>
        <time>2025-04-25T15:41:15Z</time>
      </trkpt>
      <trkpt lat="43.774943025782704" lon="2.187550999224186">
        <ele>211.15000000000001</ele>
        <time>2025-04-25T15:41:16Z</time>
      </trkpt>
      <trkpt lat="43.774605989456177" lon="2.18704498372972">
        <ele>211.63</ele>
        <time>2025-04-25T15:41:22Z</time>
      </trkpt>
      <trkpt lat="43.774551004171371" lon="2.186946999281645">
        <ele>211.63</ele>
        <time>2025-04-25T15:41:23Z</time>
      </trkpt>
      <trkpt lat="43.774496018886566" lon="2.18684901483357">
        <ele>211.63</ele>
        <time>2025-04-25T15:41:24Z</time>
      </trkpt>
      <trkpt lat="43.77444002777338" lon="2.186749018728733">
        <ele>211.63</ele>
        <time>2025-04-25T15:41:25Z</time>
      </trkpt>
      <trkpt lat="43.774384036660194" lon="2.186650028452277">
        <ele>211.15000000000001</ele>
        <time>2025-04-25T15:41:26Z</time>
      </trkpt>
      <trkpt lat="43.774327039718628" lon="2.186563024297357">
        <ele>211.15000000000001</ele>
        <time>2025-04-25T15:41:27Z</time>
      </trkpt>
      <trkpt lat="43.77426702529192" lon="2.186471996828914">
        <ele>210.66999999999999</ele>
        <time>2025-04-25T15:41:28Z</time>
      </trkpt>
      <trkpt lat="43.77396997064352" lon="2.186019038781524">
        <ele>207.78</ele>
        <time>2025-04-25T15:41:33Z</time>
      </trkpt>
      <trkpt lat="43.773910962045193" lon="2.185921976342797">
        <ele>207.78</ele>
        <time>2025-04-25T15:41:34Z</time>
      </trkpt>
      <trkpt lat="43.773847008123994" lon="2.1858199685812">
        <ele>207.78</ele>
        <time>2025-04-25T15:41:35Z</time>
      </trkpt>
      <trkpt lat="43.773497985675931" lon="2.185265002772212">
        <ele>206.81999999999999</ele>
        <time>2025-04-25T15:41:41Z</time>
      </trkpt>
      <trkpt lat="43.773254994302988" lon="2.184872981160879">
        <ele>206.34</ele>
        <time>2025-04-25T15:41:45Z</time>
      </trkpt>
      <trkpt lat="43.77270296216011" lon="2.183982990682125">
        <ele>203.46000000000001</ele>
        <time>2025-04-25T15:41:54Z</time>
      </trkpt>
      <trkpt lat="43.772643031552434" lon="2.18388500623405">
        <ele>203.94</ele>
        <time>2025-04-25T15:41:55Z</time>
      </trkpt>
      <trkpt lat="43.772330973297358" lon="2.183386031538248">
        <ele>203.94</ele>
        <time>2025-04-25T15:42:00Z</time>
      </trkpt>
      <trkpt lat="43.772267019376159" lon="2.183286035433412">
        <ele>204.41999999999999</ele>
        <time>2025-04-25T15:42:01Z</time>
      </trkpt>
      <trkpt lat="43.771541984751821" lon="2.182160010561347">
        <ele>209.69999999999999</ele>
        <time>2025-04-25T15:42:12Z</time>
      </trkpt>
      <trkpt lat="43.771178964525461" lon="2.181567996740341">
        <ele>211.15000000000001</ele>
        <time>2025-04-25T15:42:18Z</time>
      </trkpt>
      <trkpt lat="43.771151974797249" lon="2.181490967050195">
        <ele>211.15000000000001</ele>
        <time>2025-04-25T15:42:19Z</time>
      </trkpt>
      <trkpt lat="43.771132025867701" lon="2.181435981765389">
        <ele>211.15000000000001</ele>
        <time>2025-04-25T15:42:20Z</time>
      </trkpt>
      <trkpt lat="43.771047033369541" lon="2.18117798678577">
        <ele>211.63</ele>
        <time>2025-04-25T15:42:28Z</time>
      </trkpt>
      <trkpt lat="43.771120039746165" lon="2.181000960990787">
        <ele>211.63</ele>
        <time>2025-04-25T15:42:29Z</time>
      </trkpt>
      <trkpt lat="43.771122973412275" lon="2.180960979312658">
        <ele>212.11000000000001</ele>
        <time>2025-04-25T15:42:30Z</time>
      </trkpt>
      <trkpt lat="43.771133031696081" lon="2.180856037884951">
        <ele>212.11000000000001</ele>
        <time>2025-04-25T15:42:31Z</time>
      </trkpt>
      <trkpt lat="43.771139988675714" lon="2.180760987102985">
        <ele>212.11000000000001</ele>
        <time>2025-04-25T15:42:32Z</time>
      </trkpt>
      <trkpt lat="43.771103024482727" lon="2.180664008483291">
        <ele>212.59</ele>
        <time>2025-04-25T15:42:33Z</time>
      </trkpt>
      <trkpt lat="43.771066982299089" lon="2.180588990449905">
        <ele>212.59</ele>
        <time>2025-04-25T15:42:34Z</time>
      </trkpt>
      <trkpt lat="43.770988024771214" lon="2.180554959923029">
        <ele>212.59</ele>
        <time>2025-04-25T15:42:35Z</time>
      </trkpt>
      <trkpt lat="43.770914012566209" lon="2.18053299933672">
        <ele>213.06999999999999</ele>
        <time>2025-04-25T15:42:36Z</time>
      </trkpt>
      <trkpt lat="43.770827008411288" lon="2.180562000721693">
        <ele>212.59</ele>
        <time>2025-04-25T15:42:37Z</time>
      </trkpt>
      <trkpt lat="43.770798007026315" lon="2.180571975186467">
        <ele>212.59</ele>
        <time>2025-04-25T15:42:38Z</time>
      </trkpt>
      <trkpt lat="43.770653000101447" lon="2.180798035115004">
        <ele>212.59</ele>
        <time>2025-04-25T15:42:39Z</time>
      </trkpt>
      <trkpt lat="43.770569013431668" lon="2.180784037336707">
        <ele>212.59</ele>
        <time>2025-04-25T15:42:40Z</time>
      </trkpt>
      <trkpt lat="43.770471028983593" lon="2.180767022073269">
        <ele>212.11000000000001</ele>
        <time>2025-04-25T15:42:41Z</time>
      </trkpt>
      <trkpt lat="43.770362986251712" lon="2.180746989324689">
        <ele>211.63</ele>
        <time>2025-04-25T15:42:42Z</time>
      </trkpt>
      <trkpt lat="43.770244969055057" lon="2.180723017081618">
        <ele>211.15000000000001</ele>
        <time>2025-04-25T15:42:43Z</time>
      </trkpt>
      <trkpt lat="43.770110020413995" lon="2.180686974897981">
        <ele>210.19</ele>
        <time>2025-04-25T15:42:44Z</time>
      </trkpt>
      <trkpt lat="43.769984962418675" lon="2.180612040683627">
        <ele>209.22</ele>
        <time>2025-04-25T15:42:45Z</time>
      </trkpt>
      <trkpt lat="43.769852025434375" lon="2.180531993508339">
        <ele>208.25999999999999</ele>
        <time>2025-04-25T15:42:46Z</time>
      </trkpt>
      <trkpt lat="43.769719004631042" lon="2.180439960211515">
        <ele>207.30000000000001</ele>
        <time>2025-04-25T15:42:47Z</time>
      </trkpt>
      <trkpt lat="43.768476974219084" lon="2.179493978619576">
        <ele>199.61000000000001</ele>
        <time>2025-04-25T15:42:55Z</time>
      </trkpt>
      <trkpt lat="43.76692003570497" lon="2.17832101508975">
        <ele>193.84</ele>
        <time>2025-04-25T15:43:04Z</time>
      </trkpt>
      <trkpt lat="43.765149023383856" lon="2.176998015493155">
        <ele>193.84</ele>
        <time>2025-04-25T15:43:14Z</time>
      </trkpt>
      <trkpt lat="43.764033978804946" lon="2.176382029429078">
        <ele>196.25</ele>
        <time>2025-04-25T15:43:20Z</time>
      </trkpt>
      <trkpt lat="43.762373020872474" lon="2.175818011164665">
        <ele>201.05000000000001</ele>
        <time>2025-04-25T15:43:29Z</time>
      </trkpt>
      <trkpt lat="43.762047970667481" lon="2.175579965114594">
        <ele>202.49000000000001</ele>
        <time>2025-04-25T15:43:31Z</time>
      </trkpt>
      <trkpt lat="43.76101397909224" lon="2.174755018204451">
        <ele>206.81999999999999</ele>
        <time>2025-04-25T15:43:37Z</time>
      </trkpt>
      <trkpt lat="43.760824967175722" lon="2.174643035978079">
        <ele>207.30000000000001</ele>
        <time>2025-04-25T15:43:38Z</time>
      </trkpt>
      <trkpt lat="43.759243972599506" lon="2.17410902492702">
        <ele>212.59</ele>
        <time>2025-04-25T15:43:46Z</time>
      </trkpt>
      <trkpt lat="43.75819799490273" lon="2.174225030466914">
        <ele>214.99000000000001</ele>
        <time>2025-04-25T15:43:51Z</time>
      </trkpt>
      <trkpt lat="43.757989034056664" lon="2.174310022965074">
        <ele>215.47</ele>
        <time>2025-04-25T15:43:52Z</time>
      </trkpt>
      <trkpt lat="43.757783006876707" lon="2.174423011019826">
        <ele>216.43000000000001</ele>
        <time>2025-04-25T15:43:53Z</time>
      </trkpt>
      <trkpt lat="43.757581003010273" lon="2.174551002681255">
        <ele>216.91</ele>
        <time>2025-04-25T15:43:54Z</time>
      </trkpt>
      <trkpt lat="43.757386039942503" lon="2.174707995727658">
        <ele>217.88</ele>
        <time>2025-04-25T15:43:55Z</time>
      </trkpt>
      <trkpt lat="43.75720901414752" lon="2.174903964623809">
        <ele>218.84</ele>
        <time>2025-04-25T15:43:56Z</time>
      </trkpt>
      <trkpt lat="43.757045986130834" lon="2.175128012895584">
        <ele>219.31999999999999</ele>
        <time>2025-04-25T15:43:57Z</time>
      </trkpt>
      <trkpt lat="43.75589800067246" lon="2.176787964999676">
        <ele>223.63999999999999</ele>
        <time>2025-04-25T15:44:05Z</time>
      </trkpt>
      <trkpt lat="43.755042962729931" lon="2.178015997633338">
        <ele>225.56999999999999</ele>
        <time>2025-04-25T15:44:11Z</time>
      </trkpt>
      <trkpt lat="43.754886975511909" lon="2.178183970972896">
        <ele>226.05000000000001</ele>
        <time>2025-04-25T15:44:12Z</time>
      </trkpt>
      <trkpt lat="43.754708021879196" lon="2.178323026746512">
        <ele>226.05000000000001</ele>
        <time>2025-04-25T15:44:13Z</time>
      </trkpt>
      <trkpt lat="43.75452596694231" lon="2.178464010357857">
        <ele>226.53</ele>
        <time>2025-04-25T15:44:14Z</time>
      </trkpt>
      <trkpt lat="43.754346007481217" lon="2.178585967049003">
        <ele>226.53</ele>
        <time>2025-04-25T15:44:15Z</time>
      </trkpt>
      <trkpt lat="43.75413897447288" lon="2.17864396981895">
        <ele>227.00999999999999</ele>
        <time>2025-04-25T15:44:16Z</time>
      </trkpt>
      <trkpt lat="43.753926996141672" lon="2.178703984245658">
        <ele>227.00999999999999</ele>
        <time>2025-04-25T15:44:17Z</time>
      </trkpt>
      <trkpt lat="43.753717029467225" lon="2.178762992843986">
        <ele>227.49000000000001</ele>
        <time>2025-04-25T15:44:18Z</time>
      </trkpt>
      <trkpt lat="43.753506978973746" lon="2.178759975358844">
        <ele>227.49000000000001</ele>
        <time>2025-04-25T15:44:19Z</time>
      </trkpt>
      <trkpt lat="43.753288965672255" lon="2.178748995065689">
        <ele>227.49000000000001</ele>
        <time>2025-04-25T15:44:20Z</time>
      </trkpt>
      <trkpt lat="43.753072964027524" lon="2.17870800755918">
        <ele>227.00999999999999</ele>
        <time>2025-04-25T15:44:21Z</time>
      </trkpt>
      <trkpt lat="43.751785000786185" lon="2.178475996479392">
        <ele>227.49000000000001</ele>
        <time>2025-04-25T15:44:27Z</time>
      </trkpt>
      <trkpt lat="43.751575034111738" lon="2.178484965115786">
        <ele>227.49000000000001</ele>
        <time>2025-04-25T15:44:28Z</time>
      </trkpt>
      <trkpt lat="43.751368001103401" lon="2.178517989814282">
        <ele>227.97</ele>
        <time>2025-04-25T15:44:29Z</time>
      </trkpt>
      <trkpt lat="43.750196965411305" lon="2.17911503277719">
        <ele>228.44999999999999</ele>
        <time>2025-04-25T15:44:35Z</time>
      </trkpt>
      <trkpt lat="43.748356970027089" lon="2.180622015148401">
        <ele>230.84999999999999</ele>
        <time>2025-04-25T15:44:45Z</time>
      </trkpt>
      <trkpt lat="43.746114978566766" lon="2.182475002482534">
        <ele>235.66</ele>
        <time>2025-04-25T15:44:57Z</time>
      </trkpt>
      <trkpt lat="43.74356403015554" lon="2.184454975649715">
        <ele>247.68000000000001</ele>
        <time>2025-04-25T15:45:10Z</time>
      </trkpt>
      <trkpt lat="43.74174197204411" lon="2.185070961713791">
        <ele>252.47999999999999</ele>
        <time>2025-04-25T15:45:18Z</time>
      </trkpt>
      <trkpt lat="43.738610995933414" lon="2.185614025220275">
        <ele>245.75</ele>
        <time>2025-04-25T15:45:31Z</time>
      </trkpt>
      <trkpt lat="43.736294992268085" lon="2.186000011861324">
        <ele>239.50999999999999</ele>
        <time>2025-04-25T15:45:41Z</time>
      </trkpt>
      <trkpt lat="43.734739981591702" lon="2.186275022104383">
        <ele>236.62</ele>
        <time>2025-04-25T15:45:50Z</time>
      </trkpt>
      <trkpt lat="43.733955016359687" lon="2.186436960473657">
        <ele>235.66</ele>
        <time>2025-04-25T15:45:58Z</time>
      </trkpt>
      <trkpt lat="43.733900031074882" lon="2.186454981565476">
        <ele>236.13999999999999</ele>
        <time>2025-04-25T15:45:59Z</time>
      </trkpt>
      <trkpt lat="43.733804980292916" lon="2.186344005167484">
        <ele>236.62</ele>
        <time>2025-04-25T15:46:00Z</time>
      </trkpt>
      <trkpt lat="43.733671037480235" lon="2.186283990740776">
        <ele>237.09999999999999</ele>
        <time>2025-04-25T15:46:02Z</time>
      </trkpt>
      <trkpt lat="43.733594007790089" lon="2.186295976862311">
        <ele>237.58000000000001</ele>
        <time>2025-04-25T15:46:03Z</time>
      </trkpt>
      <trkpt lat="43.7335139606148" lon="2.186368983238936">
        <ele>238.06</ele>
        <time>2025-04-25T15:46:04Z</time>
      </trkpt>
      <trkpt lat="43.733483031392097" lon="2.186407959088683">
        <ele>239.02000000000001</ele>
        <time>2025-04-25T15:46:05Z</time>
      </trkpt>
      <trkpt lat="43.733460986986756" lon="2.186557995155454">
        <ele>239.02000000000001</ele>
        <time>2025-04-25T15:46:06Z</time>
      </trkpt>
      <trkpt lat="43.733432991430163" lon="2.186729991808534">
        <ele>239.50999999999999</ele>
        <time>2025-04-25T15:46:07Z</time>
      </trkpt>
      <trkpt lat="43.733355961740017" lon="2.186797969043255">
        <ele>239.99000000000001</ele>
        <time>2025-04-25T15:46:08Z</time>
      </trkpt>
      <trkpt lat="43.733268035575747" lon="2.186873992905021">
        <ele>240.47</ele>
        <time>2025-04-25T15:46:09Z</time>
      </trkpt>
      <trkpt lat="43.733173990622163" lon="2.186954040080309">
        <ele>240.47</ele>
        <time>2025-04-25T15:46:10Z</time>
      </trkpt>
      <trkpt lat="43.732089959084988" lon="2.187797008082271">
        <ele>244.31</ele>
        <time>2025-04-25T15:46:19Z</time>
      </trkpt>
      <trkpt lat="43.730930993333459" lon="2.188723962754011">
        <ele>250.08000000000001</ele>
        <time>2025-04-25T15:46:27Z</time>
      </trkpt>
      <trkpt lat="43.729543033987284" lon="2.189796008169651">
        <ele>256.81</ele>
        <time>2025-04-25T15:46:38Z</time>
      </trkpt>
      <trkpt lat="43.728315001353621" lon="2.19084701500833">
        <ele>261.13999999999999</ele>
        <time>2025-04-25T15:46:50Z</time>
      </trkpt>
      <trkpt lat="43.727222001180053" lon="2.191940015181899">
        <ele>258.73000000000002</ele>
        <time>2025-04-25T15:47:01Z</time>
      </trkpt>
      <trkpt lat="43.726250035688281" lon="2.192928995937109">
        <ele>258.25</ele>
        <time>2025-04-25T15:47:11Z</time>
      </trkpt>
      <trkpt lat="43.724898034706712" lon="2.194247972220182">
        <ele>262.10000000000002</ele>
        <time>2025-04-25T15:47:24Z</time>
      </trkpt>
      <trkpt lat="43.723695985972881" lon="2.195188002660871">
        <ele>260.17000000000002</ele>
        <time>2025-04-25T15:47:31Z</time>
      </trkpt>
      <trkpt lat="43.721610987558961" lon="2.196791963651776">
        <ele>251.52000000000001</ele>
        <time>2025-04-25T15:47:41Z</time>
      </trkpt>
      <trkpt lat="43.719758000224829" lon="2.198485024273396">
        <ele>240.47</ele>
        <time>2025-04-25T15:47:51Z</time>
      </trkpt>
      <trkpt lat="43.718264009803534" lon="2.200023019686341">
        <ele>236.62</ele>
        <time>2025-04-25T15:47:59Z</time>
      </trkpt>
      <trkpt lat="43.715381976217031" lon="2.203406961634755">
        <ele>242.38999999999999</ele>
        <time>2025-04-25T15:48:15Z</time>
      </trkpt>
      <trkpt lat="43.713770974427462" lon="2.20530403777957">
        <ele>251.52000000000001</ele>
        <time>2025-04-25T15:48:25Z</time>
      </trkpt>
      <trkpt lat="43.712742011994123" lon="2.206394020467997">
        <ele>258.73000000000002</ele>
        <time>2025-04-25T15:48:33Z</time>
      </trkpt>
      <trkpt lat="43.711399985477328" lon="2.20730303786695">
        <ele>260.17000000000002</ele>
        <time>2025-04-25T15:48:41Z</time>
      </trkpt>
      <trkpt lat="43.709353040903807" lon="2.208048021420836">
        <ele>252.47999999999999</ele>
        <time>2025-04-25T15:48:52Z</time>
      </trkpt>
      <trkpt lat="43.707569036632776" lon="2.208283971995115">
        <ele>243.83000000000001</ele>
        <time>2025-04-25T15:49:01Z</time>
      </trkpt>
      <trkpt lat="43.705584034323692" lon="2.208022959530354">
        <ele>235.18000000000001</ele>
        <time>2025-04-25T15:49:11Z</time>
      </trkpt>
      <trkpt lat="43.705010963603854" lon="2.208010973408818">
        <ele>232.30000000000001</ele>
        <time>2025-04-25T15:49:14Z</time>
      </trkpt>
      <trkpt lat="43.703540023416281" lon="2.208570968359709">
        <ele>226.53</ele>
        <time>2025-04-25T15:49:22Z</time>
      </trkpt>
      <trkpt lat="43.70255003683269" lon="2.20951703377068">
        <ele>225.56999999999999</ele>
        <time>2025-04-25T15:49:29Z</time>
      </trkpt>
      <trkpt lat="43.701516967266798" lon="2.210772978141904">
        <ele>228.93000000000001</ele>
        <time>2025-04-25T15:49:36Z</time>
      </trkpt>
      <trkpt lat="43.699547974392772" lon="2.213097028434277">
        <ele>235.18000000000001</ele>
        <time>2025-04-25T15:49:48Z</time>
      </trkpt>
      <trkpt lat="43.69745803065598" lon="2.214476019144058">
        <ele>235.66</ele>
        <time>2025-04-25T15:49:58Z</time>
      </trkpt>
      <trkpt lat="43.69539599865675" lon="2.215797007083893">
        <ele>240.47</ele>
        <time>2025-04-25T15:50:09Z</time>
      </trkpt>
      <trkpt lat="43.693007994443178" lon="2.217199970036745">
        <ele>241.91</ele>
        <time>2025-04-25T15:50:22Z</time>
      </trkpt>
      <trkpt lat="43.691514004021883" lon="2.217813022434712">
        <ele>237.58000000000001</ele>
        <time>2025-04-25T15:50:30Z</time>
      </trkpt>
      <trkpt lat="43.690123027190566" lon="2.217635996639729">
        <ele>233.74000000000001</ele>
        <time>2025-04-25T15:50:36Z</time>
      </trkpt>
      <trkpt lat="43.689162964001298" lon="2.217045994475484">
        <ele>228.93000000000001</ele>
        <time>2025-04-25T15:50:42Z</time>
      </trkpt>
      <trkpt lat="43.687970973551273" lon="2.215954000130296">
        <ele>225.09</ele>
        <time>2025-04-25T15:50:47Z</time>
      </trkpt>
      <trkpt lat="43.687753966078162" lon="2.215803964063525">
        <ele>224.61000000000001</ele>
        <time>2025-04-25T15:50:48Z</time>
      </trkpt>
      <trkpt lat="43.687752960249782" lon="2.215803964063525">
        <ele>224.12</ele>
        <time>2025-04-25T15:50:49Z</time>
      </trkpt>
      <trkpt lat="43.687520027160645" lon="2.215708997100592">
        <ele>223.63999999999999</ele>
        <time>2025-04-25T15:50:50Z</time>
      </trkpt>
      <trkpt lat="43.687056005001068" lon="2.215577987954021">
        <ele>223.16</ele>
        <time>2025-04-25T15:50:51Z</time>
      </trkpt>
      <trkpt lat="43.686821982264519" lon="2.215541023761034">
        <ele>223.16</ele>
        <time>2025-04-25T15:50:52Z</time>
      </trkpt>
      <trkpt lat="43.686598017811775" lon="2.215504981577396">
        <ele>223.16</ele>
        <time>2025-04-25T15:50:53Z</time>
      </trkpt>
      <trkpt lat="43.686363995075226" lon="2.215514034032822">
        <ele>223.16</ele>
        <time>2025-04-25T15:50:54Z</time>
      </trkpt>
      <trkpt lat="43.686135001480579" lon="2.215523002669215">
        <ele>223.63999999999999</ele>
        <time>2025-04-25T15:50:55Z</time>
      </trkpt>
      <trkpt lat="43.685915982350707" lon="2.215570025146008">
        <ele>223.63999999999999</ele>
        <time>2025-04-25T15:50:56Z</time>
      </trkpt>
      <trkpt lat="43.685915982350707" lon="2.215570025146008">
        <ele>224.12</ele>
        <time>2025-04-25T15:50:57Z</time>
      </trkpt>
      <trkpt lat="43.684277990832925" lon="2.216466972604394">
        <ele>227.49000000000001</ele>
        <time>2025-04-25T15:51:04Z</time>
      </trkpt>
      <trkpt lat="43.682049997150898" lon="2.218246031552553">
        <ele>234.69999999999999</ele>
        <time>2025-04-25T15:51:16Z</time>
      </trkpt>
      <trkpt lat="43.679971033707261" lon="2.219909001141787">
        <ele>239.02000000000001</ele>
        <time>2025-04-25T15:51:27Z</time>
      </trkpt>
      <trkpt lat="43.677743040025234" lon="2.221689987927675">
        <ele>249.12</ele>
        <time>2025-04-25T15:51:39Z</time>
      </trkpt>
      <trkpt lat="43.675796007737517" lon="2.223381958901882">
        <ele>258.73000000000002</ele>
        <time>2025-04-25T15:51:50Z</time>
      </trkpt>
      <trkpt lat="43.673942014575005" lon="2.22524399869144">
        <ele>267.38</ele>
        <time>2025-04-25T15:52:02Z</time>
      </trkpt>
      <trkpt lat="43.673777980729938" lon="2.225424963980913">
        <ele>268.82999999999998</ele>
        <time>2025-04-25T15:52:03Z</time>
      </trkpt>
      <trkpt lat="43.672545002773404" lon="2.22664000466466">
        <ele>277.95999999999998</ele>
        <time>2025-04-25T15:52:11Z</time>
      </trkpt>
      <trkpt lat="43.670604005455971" lon="2.228333987295628">
        <ele>283.73000000000002</ele>
        <time>2025-04-25T15:52:23Z</time>
      </trkpt>
      <trkpt lat="43.668598970398307" lon="2.22971398383379">
        <ele>283.25</ele>
        <time>2025-04-25T15:52:34Z</time>
      </trkpt>
      <trkpt lat="43.667045971378684" lon="2.230774965137243">
        <ele>281.80000000000001</ele>
        <time>2025-04-25T15:52:44Z</time>
      </trkpt>
      <trkpt lat="43.666887972503901" lon="2.230865992605686">
        <ele>281.80000000000001</ele>
        <time>2025-04-25T15:52:45Z</time>
      </trkpt>
      <trkpt lat="43.66671497002244" lon="2.230946961790323">
        <ele>282.27999999999997</ele>
        <time>2025-04-25T15:52:46Z</time>
      </trkpt>
      <trkpt lat="43.666540961712599" lon="2.230989960953593">
        <ele>281.80000000000001</ele>
        <time>2025-04-25T15:52:47Z</time>
      </trkpt>
      <trkpt lat="43.666366031393409" lon="2.231033965945244">
        <ele>281.80000000000001</ele>
        <time>2025-04-25T15:52:48Z</time>
      </trkpt>
      <trkpt lat="43.666166961193085" lon="2.231042012572289">
        <ele>281.80000000000001</ele>
        <time>2025-04-25T15:52:49Z</time>
      </trkpt>
      <trkpt lat="43.665987001731992" lon="2.231003036722541">
        <ele>281.31999999999999</ele>
        <time>2025-04-25T15:52:50Z</time>
      </trkpt>
      <trkpt lat="43.665806036442518" lon="2.230963977053762">
        <ele>280.83999999999997</ele>
        <time>2025-04-25T15:52:51Z</time>
      </trkpt>
      <trkpt lat="43.665620964020491" lon="2.230889964848757">
        <ele>280.36000000000001</ele>
        <time>2025-04-25T15:52:52Z</time>
      </trkpt>
      <trkpt lat="43.665443016216159" lon="2.230773959308863">
        <ele>279.88</ele>
        <time>2025-04-25T15:52:53Z</time>
      </trkpt>
      <trkpt lat="43.66512400098145" lon="2.230480005964637">
        <ele>278.92000000000002</ele>
        <time>2025-04-25T15:52:54Z</time>
      </trkpt>
      <trkpt lat="43.664964996278286" lon="2.230303985998035">
        <ele>277.95999999999998</ele>
        <time>2025-04-25T15:52:55Z</time>
      </trkpt>
      <trkpt lat="43.664963990449905" lon="2.230303985998035">
        <ele>277.48000000000002</ele>
        <time>2025-04-25T15:52:56Z</time>
      </trkpt>
      <trkpt lat="43.66480297408998" lon="2.230126960203052">
        <ele>276.51999999999998</ele>
        <time>2025-04-25T15:52:57Z</time>
      </trkpt>
      <trkpt lat="43.663453990593553" lon="2.228026036173105">
        <ele>268.35000000000002</ele>
        <time>2025-04-25T15:53:06Z</time>
      </trkpt>
      <trkpt lat="43.66228898987174" lon="2.22597498446703">
        <ele>262.57999999999998</ele>
        <time>2025-04-25T15:53:15Z</time>
      </trkpt>
      <trkpt lat="43.661008989438415" lon="2.2236970346421">
        <ele>264.5</ele>
        <time>2025-04-25T15:53:25Z</time>
      </trkpt>
      <trkpt lat="43.659635027870536" lon="2.221493013203144">
        <ele>266.89999999999998</ele>
        <time>2025-04-25T15:53:35Z</time>
      </trkpt>
      <trkpt lat="43.658435996621847" lon="2.220232039690018">
        <ele>261.62</ele>
        <time>2025-04-25T15:53:44Z</time>
      </trkpt>
      <trkpt lat="43.656617039814591" lon="2.218607040122151">
        <ele>254.88999999999999</ele>
        <time>2025-04-25T15:53:53Z</time>
      </trkpt>
      <trkpt lat="43.656433979049325" lon="2.218512995168567">
        <ele>254.88999999999999</ele>
        <time>2025-04-25T15:53:54Z</time>
      </trkpt>
      <trkpt lat="43.655017018318176" lon="2.21841299906373">
        <ele>252</ele>
        <time>2025-04-25T15:54:01Z</time>
      </trkpt>
      <trkpt lat="43.652273034676909" lon="2.218753974884749">
        <ele>247.68000000000001</ele>
        <time>2025-04-25T15:54:15Z</time>
      </trkpt>
      <trkpt lat="43.650721041485667" lon="2.218895964324474">
        <ele>245.27000000000001</ele>
        <time>2025-04-25T15:54:23Z</time>
      </trkpt>
      <trkpt lat="43.650522977113724" lon="2.218868974596262">
        <ele>244.78999999999999</ele>
        <time>2025-04-25T15:54:24Z</time>
      </trkpt>
      <trkpt lat="43.649326963350177" lon="2.218270003795624">
        <ele>243.34999999999999</ele>
        <time>2025-04-25T15:54:31Z</time>
      </trkpt>
      <trkpt lat="43.647868009284139" lon="2.217350006103516">
        <ele>240.47</ele>
        <time>2025-04-25T15:54:41Z</time>
      </trkpt>
      <trkpt lat="43.64774102345109" lon="2.217269036918879">
        <ele>239.99000000000001</ele>
        <time>2025-04-25T15:54:43Z</time>
      </trkpt>
      <trkpt lat="43.647687966004014" lon="2.217236012220383">
        <ele>239.50999999999999</ele>
        <time>2025-04-25T15:54:44Z</time>
      </trkpt>
      <trkpt lat="43.647687966004014" lon="2.217236012220383">
        <ele>239.50999999999999</ele>
        <time>2025-04-25T15:54:45Z</time>
      </trkpt>
      <trkpt lat="43.647652007639408" lon="2.217027973383665">
        <ele>239.50999999999999</ele>
        <time>2025-04-25T15:54:46Z</time>
      </trkpt>
      <trkpt lat="43.647614037618041" lon="2.216926971450448">
        <ele>239.50999999999999</ele>
        <time>2025-04-25T15:54:47Z</time>
      </trkpt>
      <trkpt lat="43.647614037618041" lon="2.216926971450448">
        <ele>239.50999999999999</ele>
        <time>2025-04-25T15:54:48Z</time>
      </trkpt>
      <trkpt lat="43.647562991827726" lon="2.216847008094192">
        <ele>239.50999999999999</ele>
        <time>2025-04-25T15:54:49Z</time>
      </trkpt>
      <trkpt lat="43.647424019873142" lon="2.216795040294528">
        <ele>239.50999999999999</ele>
        <time>2025-04-25T15:54:50Z</time>
      </trkpt>
      <trkpt lat="43.647424019873142" lon="2.216795040294528">
        <ele>239.50999999999999</ele>
        <time>2025-04-25T15:54:51Z</time>
      </trkpt>
      <trkpt lat="43.647350007668138" lon="2.216847008094192">
        <ele>239.50999999999999</ele>
        <time>2025-04-25T15:54:52Z</time>
      </trkpt>
      <trkpt lat="43.647206006571651" lon="2.216863017529249">
        <ele>239.50999999999999</ele>
        <time>2025-04-25T15:54:53Z</time>
      </trkpt>
      <trkpt lat="43.646014016121626" lon="2.216336969286203">
        <ele>239.02000000000001</ele>
        <time>2025-04-25T15:55:00Z</time>
      </trkpt>
      <trkpt lat="43.644327996298671" lon="2.215588968247175">
        <ele>240.94999999999999</ele>
        <time>2025-04-25T15:55:08Z</time>
      </trkpt>
      <trkpt lat="43.642063960433006" lon="2.214572997763753">
        <ele>239.99000000000001</ele>
        <time>2025-04-25T15:55:17Z</time>
      </trkpt>
      <trkpt lat="43.638867018744349" lon="2.213161988183856">
        <ele>237.09999999999999</ele>
        <time>2025-04-25T15:55:30Z</time>
      </trkpt>
      <trkpt lat="43.635563040152192" lon="2.21183898858726">
        <ele>247.19999999999999</ele>
        <time>2025-04-25T15:55:45Z</time>
      </trkpt>
      <trkpt lat="43.632033001631498" lon="2.210486987605691">
        <ele>251.03999999999999</ele>
        <time>2025-04-25T15:56:00Z</time>
      </trkpt>
      <trkpt lat="43.629972981289029" lon="2.210288001224399">
        <ele>246.72</ele>
        <time>2025-04-25T15:56:07Z</time>
      </trkpt>
      <trkpt lat="43.627893012017012" lon="2.210739031434059">
        <ele>239.02000000000001</ele>
        <time>2025-04-25T15:56:15Z</time>
      </trkpt>
      <trkpt lat="43.623909009620547" lon="2.212018026039004">
        <ele>219.31999999999999</ele>
        <time>2025-04-25T15:56:30Z</time>
      </trkpt>
      <trkpt lat="43.621765002608299" lon="2.212183987721801">
        <ele>212.59</ele>
        <time>2025-04-25T15:56:38Z</time>
      </trkpt>
      <trkpt lat="43.618767969310284" lon="2.211918029934168">
        <ele>212.59</ele>
        <time>2025-04-25T15:56:51Z</time>
      </trkpt>
      <trkpt lat="43.615833967924118" lon="2.211809987202287">
        <ele>218.36000000000001</ele>
        <time>2025-04-25T15:57:03Z</time>
      </trkpt>
      <trkpt lat="43.612941959872842" lon="2.212247019633651">
        <ele>223.63999999999999</ele>
        <time>2025-04-25T15:57:14Z</time>
      </trkpt>
      <trkpt lat="43.610026985406876" lon="2.213428029790521">
        <ele>222.68000000000001</ele>
        <time>2025-04-25T15:57:25Z</time>
      </trkpt>
      <trkpt lat="43.607086027041078" lon="2.215021010488272">
        <ele>207.78</ele>
        <time>2025-04-25T15:57:37Z</time>
      </trkpt>
      <trkpt lat="43.604789972305298" lon="2.216109987348318">
        <ele>198.16999999999999</ele>
        <time>2025-04-25T15:57:47Z</time>
      </trkpt>
      <trkpt lat="43.602526020258665" lon="2.216832004487515">
        <ele>194.80000000000001</ele>
        <time>2025-04-25T15:57:58Z</time>
      </trkpt>
      <trkpt lat="43.599561005830765" lon="2.21778997220099">
        <ele>191.44</ele>
        <time>2025-04-25T15:58:14Z</time>
      </trkpt>
      <trkpt lat="43.598191989585757" lon="2.218316020444036">
        <ele>188.56</ele>
        <time>2025-04-25T15:58:23Z</time>
      </trkpt>
      <trkpt lat="43.597951009869576" lon="2.218352984637022">
        <ele>187.59</ele>
        <time>2025-04-25T15:58:25Z</time>
      </trkpt>
      <trkpt lat="43.597840033471584" lon="2.218334041535854">
        <ele>187.11000000000001</ele>
        <time>2025-04-25T15:58:26Z</time>
      </trkpt>
      <trkpt lat="43.597734002396464" lon="2.218299005180597">
        <ele>186.15000000000001</ele>
        <time>2025-04-25T15:58:27Z</time>
      </trkpt>
      <trkpt lat="43.597640041261911" lon="2.218233961611986">
        <ele>185.66999999999999</ele>
        <time>2025-04-25T15:58:28Z</time>
      </trkpt>
      <trkpt lat="43.597543984651566" lon="2.218161961063743">
        <ele>185.19</ele>
        <time>2025-04-25T15:58:29Z</time>
      </trkpt>
      <trkpt lat="43.597447006031871" lon="2.21808903850615">
        <ele>184.71000000000001</ele>
        <time>2025-04-25T15:58:30Z</time>
      </trkpt>
      <trkpt lat="43.597352039068937" lon="2.217994993552566">
        <ele>183.75</ele>
        <time>2025-04-25T15:58:31Z</time>
      </trkpt>
      <trkpt lat="43.59727299772203" lon="2.217863984405994">
        <ele>182.78999999999999</ele>
        <time>2025-04-25T15:58:32Z</time>
      </trkpt>
      <trkpt lat="43.597191022709012" lon="2.217728029936552">
        <ele>182.31</ele>
        <time>2025-04-25T15:58:33Z</time>
      </trkpt>
      <trkpt lat="43.597133019939065" lon="2.217560978606343">
        <ele>181.34999999999999</ele>
        <time>2025-04-25T15:58:34Z</time>
      </trkpt>
      <trkpt lat="43.597076022997499" lon="2.217389987781644">
        <ele>180.38</ele>
        <time>2025-04-25T15:58:35Z</time>
      </trkpt>
      <trkpt lat="43.597018020227551" lon="2.217216985300183">
        <ele>179.41999999999999</ele>
        <time>2025-04-25T15:58:36Z</time>
      </trkpt>
      <trkpt lat="43.596612000837922" lon="2.21598400734365">
        <ele>175.09999999999999</ele>
        <time>2025-04-25T15:58:45Z</time>
      </trkpt>
      <trkpt lat="43.596600014716387" lon="2.215903960168362">
        <ele>174.62</ele>
        <time>2025-04-25T15:58:46Z</time>
      </trkpt>
      <trkpt lat="43.596592973917723" lon="2.215857021510601">
        <ele>174.62</ele>
        <time>2025-04-25T15:58:47Z</time>
      </trkpt>
      <trkpt lat="43.59658501110971" lon="2.215800024569035">
        <ele>174.13999999999999</ele>
        <time>2025-04-25T15:58:54Z</time>
      </trkpt>
      <trkpt lat="43.596711996942759" lon="2.215698016807437">
        <ele>173.66</ele>
        <time>2025-04-25T15:58:55Z</time>
      </trkpt>
      <trkpt lat="43.596719959750772" lon="2.215624004602432">
        <ele>173.66</ele>
        <time>2025-04-25T15:58:56Z</time>
      </trkpt>
      <trkpt lat="43.5967150144279" lon="2.215377995744348">
        <ele>173.66</ele>
        <time>2025-04-25T15:58:57Z</time>
      </trkpt>
      <trkpt lat="43.596630021929741" lon="2.215288979932666">
        <ele>173.66</ele>
        <time>2025-04-25T15:58:58Z</time>
      </trkpt>
      <trkpt lat="43.596538994461298" lon="2.215283028781414">
        <ele>173.66</ele>
        <time>2025-04-25T15:58:59Z</time>
      </trkpt>
      <trkpt lat="43.596458025276661" lon="2.215300966054201">
        <ele>173.16999999999999</ele>
        <time>2025-04-25T15:59:01Z</time>
      </trkpt>
      <trkpt lat="43.596333973109722" lon="2.215591985732317">
        <ele>173.16999999999999</ele>
        <time>2025-04-25T15:59:02Z</time>
      </trkpt>
      <trkpt lat="43.596111014485359" lon="2.215741015970707">
        <ele>173.16999999999999</ele>
        <time>2025-04-25T15:59:04Z</time>
      </trkpt>
      <trkpt lat="43.596055023372173" lon="2.215871019288898">
        <ele>173.16999999999999</ele>
        <time>2025-04-25T15:59:05Z</time>
      </trkpt>
      <trkpt lat="43.595982016995549" lon="2.216041004285216">
        <ele>173.16999999999999</ele>
        <time>2025-04-25T15:59:06Z</time>
      </trkpt>
      <trkpt lat="43.595982016995549" lon="2.216041004285216">
        <ele>173.16999999999999</ele>
        <time>2025-04-25T15:59:07Z</time>
      </trkpt>
      <trkpt lat="43.595901969820261" lon="2.216419028118253">
        <ele>173.16999999999999</ele>
        <time>2025-04-25T15:59:08Z</time>
      </trkpt>
      <trkpt lat="43.595641041174531" lon="2.217506999149919">
        <ele>175.09999999999999</ele>
        <time>2025-04-25T15:59:13Z</time>
      </trkpt>
      <trkpt lat="43.59555596485734" lon="2.217716965824366">
        <ele>175.58000000000001</ele>
        <time>2025-04-25T15:59:14Z</time>
      </trkpt>
      <trkpt lat="43.595423027873039" lon="2.217883011326194">
        <ele>176.06</ele>
        <time>2025-04-25T15:59:15Z</time>
      </trkpt>
      <trkpt lat="43.59527600929141" lon="2.218022989109159">
        <ele>177.02000000000001</ele>
        <time>2025-04-25T15:59:16Z</time>
      </trkpt>
      <trkpt lat="43.59527600929141" lon="2.218022989109159">
        <ele>177.5</ele>
        <time>2025-04-25T15:59:17Z</time>
      </trkpt>
      <trkpt lat="43.594592968001962" lon="2.21856202930212">
        <ele>177.97999999999999</ele>
        <time>2025-04-25T15:59:22Z</time>
      </trkpt>
      <trkpt lat="43.594472017139196" lon="2.218642998486757">
        <ele>177.5</ele>
        <time>2025-04-25T15:59:23Z</time>
      </trkpt>
      <trkpt lat="43.594346037134528" lon="2.218679962679744">
        <ele>177.02000000000001</ele>
        <time>2025-04-25T15:59:24Z</time>
      </trkpt>
      <trkpt lat="43.594220979139209" lon="2.218679962679744">
        <ele>176.06</ele>
        <time>2025-04-25T15:59:25Z</time>
      </trkpt>
      <trkpt lat="43.594089969992638" lon="2.218665964901447">
        <ele>175.09999999999999</ele>
        <time>2025-04-25T15:59:26Z</time>
      </trkpt>
      <trkpt lat="43.593973964452744" lon="2.218601005151868">
        <ele>174.13999999999999</ele>
        <time>2025-04-25T15:59:27Z</time>
      </trkpt>
      <trkpt lat="43.593861982226372" lon="2.218537973240018">
        <ele>173.16999999999999</ele>
        <time>2025-04-25T15:59:28Z</time>
      </trkpt>
      <trkpt lat="43.593499967828393" lon="2.218336975201964">
        <ele>171.25</ele>
        <time>2025-04-25T15:59:32Z</time>
      </trkpt>
      <trkpt lat="43.593499967828393" lon="2.218336975201964">
        <ele>170.77000000000001</ele>
        <time>2025-04-25T15:59:33Z</time>
      </trkpt>
      <trkpt lat="43.593408018350601" lon="2.218156009912491">
        <ele>170.28999999999999</ele>
        <time>2025-04-25T15:59:34Z</time>
      </trkpt>
      <trkpt lat="43.59338304027915" lon="2.218061964958906">
        <ele>169.33000000000001</ele>
        <time>2025-04-25T15:59:35Z</time>
      </trkpt>
      <trkpt lat="43.593346998095512" lon="2.217978984117508">
        <ele>169.33000000000001</ele>
        <time>2025-04-25T15:59:36Z</time>
      </trkpt>
      <trkpt lat="43.593282960355282" lon="2.217923998832703">
        <ele>168.84999999999999</ele>
        <time>2025-04-25T15:59:37Z</time>
      </trkpt>
      <trkpt lat="43.593207020312548" lon="2.217798018828034">
        <ele>168.84999999999999</ele>
        <time>2025-04-25T15:59:38Z</time>
      </trkpt>
      <trkpt lat="43.593193022534251" lon="2.217673966661096">
        <ele>168.84999999999999</ele>
        <time>2025-04-25T15:59:39Z</time>
      </trkpt>
      <trkpt lat="43.593180030584335" lon="2.217558966949582">
        <ele>168.84999999999999</ele>
        <time>2025-04-25T15:59:40Z</time>
      </trkpt>
      <trkpt lat="43.593079028651118" lon="2.216384997591376">
        <ele>168.84999999999999</ele>
        <time>2025-04-25T15:59:51Z</time>
      </trkpt>
      <trkpt lat="43.593039968982339" lon="2.215994987636805">
        <ele>171.25</ele>
        <time>2025-04-25T16:00:03Z</time>
      </trkpt>
      <trkpt lat="43.593029994517565" lon="2.215891974046826">
        <ele>172.21000000000001</ele>
        <time>2025-04-25T16:00:22Z</time>
      </trkpt>
      <trkpt lat="43.592978026717901" lon="2.215026039630175">
        <ele>172.69</ele>
        <time>2025-04-25T16:00:30Z</time>
      </trkpt>
      <trkpt lat="43.592813992872834" lon="2.213607989251614">
        <ele>175.09999999999999</ele>
        <time>2025-04-25T16:00:41Z</time>
      </trkpt>
      <trkpt lat="43.592732017859817" lon="2.213102979585528">
        <ele>175.09999999999999</ele>
        <time>2025-04-25T16:00:46Z</time>
      </trkpt>
      <trkpt lat="43.59271802008152" lon="2.213026033714414">
        <ele>175.09999999999999</ele>
        <time>2025-04-25T16:00:47Z</time>
      </trkpt>
      <trkpt lat="43.592522973194718" lon="2.211958011612296">
        <ele>175.09999999999999</ele>
        <time>2025-04-25T16:00:58Z</time>
      </trkpt>
      <trkpt lat="43.592246035113931" lon="2.210504002869129">
        <ele>175.58000000000001</ele>
        <time>2025-04-25T16:01:10Z</time>
      </trkpt>
      <trkpt lat="43.591935988515615" lon="2.208947986364365">
        <ele>175.09999999999999</ele>
        <time>2025-04-25T16:01:22Z</time>
      </trkpt>
      <trkpt lat="43.591556958854198" lon="2.207122994586825">
        <ele>176.53999999999999</ele>
        <time>2025-04-25T16:01:34Z</time>
      </trkpt>
      <trkpt lat="43.59147003851831" lon="2.206555036827922">
        <ele>175.09999999999999</ele>
        <time>2025-04-25T16:01:40Z</time>
      </trkpt>
      <trkpt lat="43.591458974406123" lon="2.206196961924434">
        <ele>173.66</ele>
        <time>2025-04-25T16:01:46Z</time>
      </trkpt>
      <trkpt lat="43.591455034911633" lon="2.206063019111753">
        <ele>173.16999999999999</ele>
        <time>2025-04-25T16:01:47Z</time>
      </trkpt>
      <trkpt lat="43.591455034911633" lon="2.206063019111753">
        <ele>173.16999999999999</ele>
        <time>2025-04-25T16:01:48Z</time>
      </trkpt>
      <trkpt lat="43.591467021033168" lon="2.206006022170186">
        <ele>172.69</ele>
        <time>2025-04-25T16:01:49Z</time>
      </trkpt>
      <trkpt lat="43.591514965519309" lon="2.20577996224165">
        <ele>172.69</ele>
        <time>2025-04-25T16:01:50Z</time>
      </trkpt>
      <trkpt lat="43.591485964134336" lon="2.205664040520787">
        <ele>172.69</ele>
        <time>2025-04-25T16:01:51Z</time>
      </trkpt>
      <trkpt lat="43.591455034911633" lon="2.205569995567203">
        <ele>172.21000000000001</ele>
        <time>2025-04-25T16:01:52Z</time>
      </trkpt>
      <trkpt lat="43.591376999393106" lon="2.205510986968875">
        <ele>172.21000000000001</ele>
        <time>2025-04-25T16:01:53Z</time>
      </trkpt>
      <trkpt lat="43.591327965259552" lon="2.205365980044007">
        <ele>172.21000000000001</ele>
        <time>2025-04-25T16:01:54Z</time>
      </trkpt>
      <trkpt lat="43.591291001066566" lon="2.205240000039339">
        <ele>172.21000000000001</ele>
        <time>2025-04-25T16:01:55Z</time>
      </trkpt>
      <trkpt lat="43.591251019388437" lon="2.205103039741516">
        <ele>171.72999999999999</ele>
        <time>2025-04-25T16:01:56Z</time>
      </trkpt>
      <trkpt lat="43.591251019388437" lon="2.205103039741516">
        <ele>171.72999999999999</ele>
        <time>2025-04-25T16:01:57Z</time>
      </trkpt>
      <trkpt lat="43.59097701497376" lon="2.203732011839747">
        <ele>170.28999999999999</ele>
        <time>2025-04-25T16:02:04Z</time>
      </trkpt>
      <trkpt lat="43.590492960065603" lon="2.201099004596472">
        <ele>169.81</ele>
        <time>2025-04-25T16:02:14Z</time>
      </trkpt>
      <trkpt lat="43.589931037276983" lon="2.198510002344847">
        <ele>167.41</ele>
        <time>2025-04-25T16:02:25Z</time>
      </trkpt>
      <trkpt lat="43.589236009865999" lon="2.195365028455854">
        <ele>170.28999999999999</ele>
        <time>2025-04-25T16:02:39Z</time>
      </trkpt>
      <trkpt lat="43.588728988543153" lon="2.192129027098417">
        <ele>169.81</ele>
        <time>2025-04-25T16:02:53Z</time>
      </trkpt>
      <trkpt lat="43.588476022705436" lon="2.190007986500859">
        <ele>164.03999999999999</ele>
        <time>2025-04-25T16:03:02Z</time>
      </trkpt>
      <trkpt lat="43.588263960555196" lon="2.18798995949328">
        <ele>164.03999999999999</ele>
        <time>2025-04-25T16:03:12Z</time>
      </trkpt>
      <trkpt lat="43.588166981935501" lon="2.187171969562769">
        <ele>164.52000000000001</ele>
        <time>2025-04-25T16:03:19Z</time>
      </trkpt>
      <trkpt lat="43.588115014135838" lon="2.186840968206525">
        <ele>165.47999999999999</ele>
        <time>2025-04-25T16:03:28Z</time>
      </trkpt>
      <trkpt lat="43.588064974173903" lon="2.186520025134087">
        <ele>165.96000000000001</ele>
        <time>2025-04-25T16:03:35Z</time>
      </trkpt>
      <trkpt lat="43.58807603828609" lon="2.186437966302037">
        <ele>165.96000000000001</ele>
        <time>2025-04-25T16:03:36Z</time>
      </trkpt>
      <trkpt lat="43.588090036064386" lon="2.186344005167484">
        <ele>165.96000000000001</ele>
        <time>2025-04-25T16:03:37Z</time>
      </trkpt>
      <trkpt lat="43.588106967508793" lon="2.18622799962759">
        <ele>165.96000000000001</ele>
        <time>2025-04-25T16:03:38Z</time>
      </trkpt>
      <trkpt lat="43.588128006085753" lon="2.186088021844626">
        <ele>165.96000000000001</ele>
        <time>2025-04-25T16:03:39Z</time>
      </trkpt>
      <trkpt lat="43.588166981935501" lon="2.1859460324049">
        <ele>165.96000000000001</ele>
        <time>2025-04-25T16:03:40Z</time>
      </trkpt>
      <trkpt lat="43.588180979713798" lon="2.185786021873355">
        <ele>166.44999999999999</ele>
        <time>2025-04-25T16:03:41Z</time>
      </trkpt>
      <trkpt lat="43.588154995813966" lon="2.185649983584881">
        <ele>166.44999999999999</ele>
        <time>2025-04-25T16:03:42Z</time>
      </trkpt>
      <trkpt lat="43.588132029399276" lon="2.185525009408593">
        <ele>166.93000000000001</ele>
        <time>2025-04-25T16:03:43Z</time>
      </trkpt>
      <trkpt lat="43.588038990274072" lon="2.185446973890066">
        <ele>166.93000000000001</ele>
        <time>2025-04-25T16:03:44Z</time>
      </trkpt>
      <trkpt lat="43.587958021089435" lon="2.185392994433641">
        <ele>166.93000000000001</ele>
        <time>2025-04-25T16:03:45Z</time>
      </trkpt>
      <trkpt lat="43.587831035256386" lon="2.18515302054584">
        <ele>166.93000000000001</ele>
        <time>2025-04-25T16:03:47Z</time>
      </trkpt>
      <trkpt lat="43.587778983637691" lon="2.185010025277734">
        <ele>166.93000000000001</ele>
        <time>2025-04-25T16:03:48Z</time>
      </trkpt>
      <trkpt lat="43.587756017223001" lon="2.18485202640295">
        <ele>167.41</ele>
        <time>2025-04-25T16:03:49Z</time>
      </trkpt>
      <trkpt lat="43.587634982541203" lon="2.183319982141256">
        <ele>166.93000000000001</ele>
        <time>2025-04-25T16:03:58Z</time>
      </trkpt>
      <trkpt lat="43.587381010875106" lon="2.181287035346031">
        <ele>169.33000000000001</ele>
        <time>2025-04-25T16:04:07Z</time>
      </trkpt>
      <trkpt lat="43.587160985916853" lon="2.179933022707701">
        <ele>172.69</ele>
        <time>2025-04-25T16:04:14Z</time>
      </trkpt>
      <trkpt lat="43.587038023397326" lon="2.179230032488704">
        <ele>173.66</ele>
        <time>2025-04-25T16:04:21Z</time>
      </trkpt>
      <trkpt lat="43.587004998698831" lon="2.179046971723437">
        <ele>172.69</ele>
        <time>2025-04-25T16:04:30Z</time>
      </trkpt>
      <trkpt lat="43.586930986493826" lon="2.178625026717782">
        <ele>173.66</ele>
        <time>2025-04-25T16:04:40Z</time>
      </trkpt>
      <trkpt lat="43.586805006489158" lon="2.177649037912488">
        <ele>175.58000000000001</ele>
        <time>2025-04-25T16:04:47Z</time>
      </trkpt>
      <trkpt lat="43.586727976799011" lon="2.176963984966278">
        <ele>177.02000000000001</ele>
        <time>2025-04-25T16:04:53Z</time>
      </trkpt>
      <trkpt lat="43.586727976799011" lon="2.176963984966278">
        <ele>177.5</ele>
        <time>2025-04-25T16:05:05Z</time>
      </trkpt>
      <trkpt lat="43.586714984849095" lon="2.176886033266783">
        <ele>178.94</ele>
        <time>2025-04-25T16:05:51Z</time>
      </trkpt>
      <trkpt lat="43.586622029542923" lon="2.176164016127586">
        <ele>179.41999999999999</ele>
        <time>2025-04-25T16:05:59Z</time>
      </trkpt>
      <trkpt lat="43.586520021781325" lon="2.175449961796403">
        <ele>179.90000000000001</ele>
        <time>2025-04-25T16:06:08Z</time>
      </trkpt>
      <trkpt lat="43.586201006546617" lon="2.174254031851888">
        <ele>180.38</ele>
        <time>2025-04-25T16:06:17Z</time>
      </trkpt>
      <trkpt lat="43.585921972990036" lon="2.172506991773844">
        <ele>179.90000000000001</ele>
        <time>2025-04-25T16:06:26Z</time>
      </trkpt>
      <trkpt lat="43.585677975788713" lon="2.170925997197628">
        <ele>177.97999999999999</ele>
        <time>2025-04-25T16:06:35Z</time>
      </trkpt>
      <trkpt lat="43.585313027724624" lon="2.168416958302259">
        <ele>177.97999999999999</ele>
        <time>2025-04-25T16:06:47Z</time>
      </trkpt>
      <trkpt lat="43.585119992494583" lon="2.166603030636907">
        <ele>182.31</ele>
        <time>2025-04-25T16:06:57Z</time>
      </trkpt>
      <trkpt lat="43.585110018029809" lon="2.16648199595511">
        <ele>182.31</ele>
        <time>2025-04-25T16:06:58Z</time>
      </trkpt>
      <trkpt lat="43.585145976394415" lon="2.166280997917056">
        <ele>183.27000000000001</ele>
        <time>2025-04-25T16:07:00Z</time>
      </trkpt>
      <trkpt lat="43.585095014423132" lon="2.166152000427246">
        <ele>183.75</ele>
        <time>2025-04-25T16:07:01Z</time>
      </trkpt>
      <trkpt lat="43.585054026916623" lon="2.166047981008887">
        <ele>184.22999999999999</ele>
        <time>2025-04-25T16:07:02Z</time>
      </trkpt>
      <trkpt lat="43.584974985569715" lon="2.165824016556144">
        <ele>185.19</ele>
        <time>2025-04-25T16:07:04Z</time>
      </trkpt>
      <trkpt lat="43.584867026656866" lon="2.165529979392886">
        <ele>185.66999999999999</ele>
        <time>2025-04-25T16:07:06Z</time>
      </trkpt>
      <trkpt lat="43.584614982828498" lon="2.163899028673768">
        <ele>185.66999999999999</ele>
        <time>2025-04-25T16:07:15Z</time>
      </trkpt>
      <trkpt lat="43.584144003689289" lon="2.160759000107646">
        <ele>186.63</ele>
        <time>2025-04-25T16:07:29Z</time>
      </trkpt>
      <trkpt lat="43.583742007613182" lon="2.158154994249344">
        <ele>187.11000000000001</ele>
        <time>2025-04-25T16:07:40Z</time>
      </trkpt>
      <trkpt lat="43.583342023193836" lon="2.155723990872502">
        <ele>186.63</ele>
        <time>2025-04-25T16:07:51Z</time>
      </trkpt>
      <trkpt lat="43.582730982452631" lon="2.153704036027193">
        <ele>185.66999999999999</ele>
        <time>2025-04-25T16:08:00Z</time>
      </trkpt>
      <trkpt lat="43.581779971718788" lon="2.151989014819264">
        <ele>178.94</ele>
        <time>2025-04-25T16:08:09Z</time>
      </trkpt>
      <trkpt lat="43.580686971545219" lon="2.150285979732871">
        <ele>170.28999999999999</ele>
        <time>2025-04-25T16:08:19Z</time>
      </trkpt>
      <trkpt lat="43.580263014882803" lon="2.149644009768963">
        <ele>169.33000000000001</ele>
        <time>2025-04-25T16:08:23Z</time>
      </trkpt>
      <trkpt lat="43.5794170293957" lon="2.148323021829128">
        <ele>165.96000000000001</ele>
        <time>2025-04-25T16:08:31Z</time>
      </trkpt>
      <trkpt lat="43.578438023105264" lon="2.146805981174111">
        <ele>163.56</ele>
        <time>2025-04-25T16:08:41Z</time>
      </trkpt>
      <trkpt lat="43.577921027317643" lon="2.146024033427239">
        <ele>162.59999999999999</ele>
        <time>2025-04-25T16:08:48Z</time>
      </trkpt>
      <trkpt lat="43.577843997627497" lon="2.145907022058964">
        <ele>162.59999999999999</ele>
        <time>2025-04-25T16:08:49Z</time>
      </trkpt>
      <trkpt lat="43.577843997627497" lon="2.145907022058964">
        <ele>162.59999999999999</ele>
        <time>2025-04-25T16:08:50Z</time>
      </trkpt>
      <trkpt lat="43.577635958790779" lon="2.145595969632268">
        <ele>163.08000000000001</ele>
        <time>2025-04-25T16:08:52Z</time>
      </trkpt>
      <trkpt lat="43.577544009312987" lon="2.145445011556149">
        <ele>163.08000000000001</ele>
        <time>2025-04-25T16:08:53Z</time>
      </trkpt>
      <trkpt lat="43.577453987672925" lon="2.14529799297452">
        <ele>164.03999999999999</ele>
        <time>2025-04-25T16:08:54Z</time>
      </trkpt>
      <trkpt lat="43.577351979911327" lon="2.145137982442975">
        <ele>164.52000000000001</ele>
        <time>2025-04-25T16:08:55Z</time>
      </trkpt>
      <trkpt lat="43.577246032655239" lon="2.144978977739811">
        <ele>165</ele>
        <time>2025-04-25T16:08:56Z</time>
      </trkpt>
      <trkpt lat="43.576270965859294" lon="2.143473001196981">
        <ele>166.93000000000001</ele>
        <time>2025-04-25T16:09:05Z</time>
      </trkpt>
      <trkpt lat="43.575328001752496" lon="2.142066014930606">
        <ele>166.44999999999999</ele>
        <time>2025-04-25T16:09:16Z</time>
      </trkpt>
      <trkpt lat="43.574395012110472" lon="2.140632960945368">
        <ele>165</ele>
        <time>2025-04-25T16:09:26Z</time>
      </trkpt>
      <trkpt lat="43.573653968051076" lon="2.139457985758781">
        <ele>166.44999999999999</ele>
        <time>2025-04-25T16:09:32Z</time>
      </trkpt>
      <trkpt lat="43.572792978957295" lon="2.138148983940482">
        <ele>165.96000000000001</ele>
        <time>2025-04-25T16:09:40Z</time>
      </trkpt>
      <trkpt lat="43.571694027632475" lon="2.136448966339231">
        <ele>166.93000000000001</ele>
        <time>2025-04-25T16:09:51Z</time>
      </trkpt>
      <trkpt lat="43.570684008300304" lon="2.134888004511595">
        <ele>165.96000000000001</ele>
        <time>2025-04-25T16:10:01Z</time>
      </trkpt>
      <trkpt lat="43.569538034498692" lon="2.133111041039228">
        <ele>165.96000000000001</ele>
        <time>2025-04-25T16:10:12Z</time>
      </trkpt>
      <trkpt lat="43.568366998806596" lon="2.131298035383225">
        <ele>166.44999999999999</ele>
        <time>2025-04-25T16:10:24Z</time>
      </trkpt>
      <trkpt lat="43.567282967269421" lon="2.129644034430385">
        <ele>165</ele>
        <time>2025-04-25T16:10:36Z</time>
      </trkpt>
      <trkpt lat="43.566793967038393" lon="2.128782039508224">
        <ele>164.52000000000001</ele>
        <time>2025-04-25T16:10:45Z</time>
      </trkpt>
      <trkpt lat="43.566672010347247" lon="2.128538964316249">
        <ele>164.52000000000001</ele>
        <time>2025-04-25T16:10:48Z</time>
      </trkpt>
      <trkpt lat="43.566629011183977" lon="2.128445003181696">
        <ele>165</ele>
        <time>2025-04-25T16:10:49Z</time>
      </trkpt>
      <trkpt lat="43.566653989255428" lon="2.128335032612085">
        <ele>165</ele>
        <time>2025-04-25T16:10:50Z</time>
      </trkpt>
      <trkpt lat="43.566645020619035" lon="2.128184996545315">
        <ele>165</ele>
        <time>2025-04-25T16:10:51Z</time>
      </trkpt>
      <trkpt lat="43.566561033949256" lon="2.128005959093571">
        <ele>165</ele>
        <time>2025-04-25T16:10:53Z</time>
      </trkpt>
      <trkpt lat="43.566503031179309" lon="2.127966983243823">
        <ele>165</ele>
        <time>2025-04-25T16:10:54Z</time>
      </trkpt>
      <trkpt lat="43.566435975953937" lon="2.127935970202088">
        <ele>164.52000000000001</ele>
        <time>2025-04-25T16:10:55Z</time>
      </trkpt>
      <trkpt lat="43.566363975405693" lon="2.127935970202088">
        <ele>164.52000000000001</ele>
        <time>2025-04-25T16:10:56Z</time>
      </trkpt>
      <trkpt lat="43.566307984292507" lon="2.127977041527629">
        <ele>164.03999999999999</ele>
        <time>2025-04-25T16:10:57Z</time>
      </trkpt>
      <trkpt lat="43.566255010664463" lon="2.128029009327292">
        <ele>164.03999999999999</ele>
        <time>2025-04-25T16:10:58Z</time>
      </trkpt>
      <trkpt lat="43.566204970702529" lon="2.128079971298575">
        <ele>164.03999999999999</ele>
        <time>2025-04-25T16:10:59Z</time>
      </trkpt>
      <trkpt lat="43.566176975145936" lon="2.128107966855168">
        <ele>164.03999999999999</ele>
        <time>2025-04-25T16:11:00Z</time>
      </trkpt>
      <trkpt lat="43.566168006509542" lon="2.128229001536965">
        <ele>164.03999999999999</ele>
        <time>2025-04-25T16:11:01Z</time>
      </trkpt>
      <trkpt lat="43.566105980426073" lon="2.128406027331948">
        <ele>164.03999999999999</ele>
        <time>2025-04-25T16:11:02Z</time>
      </trkpt>
      <trkpt lat="43.566053006798029" lon="2.128427987918258">
        <ele>164.03999999999999</ele>
        <time>2025-04-25T16:11:03Z</time>
      </trkpt>
      <trkpt lat="43.565998021513224" lon="2.128450032323599">
        <ele>164.52000000000001</ele>
        <time>2025-04-25T16:11:04Z</time>
      </trkpt>
      <trkpt lat="43.565945969894528" lon="2.128469981253147">
        <ele>164.52000000000001</ele>
        <time>2025-04-25T16:11:05Z</time>
      </trkpt>
      <trkpt lat="43.565889978781343" lon="2.128471992909908">
        <ele>164.52000000000001</ele>
        <time>2025-04-25T16:11:06Z</time>
      </trkpt>
      <trkpt lat="43.565833987668157" lon="2.128471992909908">
        <ele>164.52000000000001</ele>
        <time>2025-04-25T16:11:07Z</time>
      </trkpt>
      <trkpt lat="43.565777996554971" lon="2.128449026495218">
        <ele>164.52000000000001</ele>
        <time>2025-04-25T16:11:08Z</time>
      </trkpt>
      <trkpt lat="43.565722005441785" lon="2.1284119784832">
        <ele>164.52000000000001</ele>
        <time>2025-04-25T16:11:09Z</time>
      </trkpt>
      <trkpt lat="43.565664002671838" lon="2.128374008461833">
        <ele>164.52000000000001</ele>
        <time>2025-04-25T16:11:10Z</time>
      </trkpt>
      <trkpt lat="43.56560398824513" lon="2.128285998478532">
        <ele>165</ele>
        <time>2025-04-25T16:11:11Z</time>
      </trkpt>
      <trkpt lat="43.565578004345298" lon="2.128184996545315">
        <ele>164.52000000000001</ele>
        <time>2025-04-25T16:11:12Z</time>
      </trkpt>
      <trkpt lat="43.565547997131944" lon="2.128071002662182">
        <ele>164.52000000000001</ele>
        <time>2025-04-25T16:11:13Z</time>
      </trkpt>
      <trkpt lat="43.565513966605067" lon="2.127944016829133">
        <ele>164.52000000000001</ele>
        <time>2025-04-25T16:11:14Z</time>
      </trkpt>
      <trkpt lat="43.565480019897223" lon="2.12780898436904">
        <ele>164.52000000000001</ele>
        <time>2025-04-25T16:11:15Z</time>
      </trkpt>
      <trkpt lat="43.565330989658833" lon="2.12722803466022">
        <ele>164.03999999999999</ele>
        <time>2025-04-25T16:11:19Z</time>
      </trkpt>
      <trkpt lat="43.565286984667182" lon="2.127082021906972">
        <ele>164.03999999999999</ele>
        <time>2025-04-25T16:11:20Z</time>
      </trkpt>
      <trkpt lat="43.565207021310925" lon="2.126945983618498">
        <ele>163.56</ele>
        <time>2025-04-25T16:11:21Z</time>
      </trkpt>
      <trkpt lat="43.565123034641147" lon="2.126805000007153">
        <ele>163.56</ele>
        <time>2025-04-25T16:11:22Z</time>
      </trkpt>
      <trkpt lat="43.565036030486226" lon="2.126657981425524">
        <ele>163.08000000000001</ele>
        <time>2025-04-25T16:11:23Z</time>
      </trkpt>
      <trkpt lat="43.563833981752396" lon="2.124861991032958">
        <ele>163.56</ele>
        <time>2025-04-25T16:11:35Z</time>
      </trkpt>
      <trkpt lat="43.562953965738416" lon="2.123399013653398">
        <ele>164.03999999999999</ele>
        <time>2025-04-25T16:11:43Z</time>
      </trkpt>
      <trkpt lat="43.562418026849627" lon="2.122263014316559">
        <ele>164.03999999999999</ele>
        <time>2025-04-25T16:11:50Z</time>
      </trkpt>
      <trkpt lat="43.562337979674339" lon="2.12213602848351">
        <ele>164.52000000000001</ele>
        <time>2025-04-25T16:11:51Z</time>
      </trkpt>
      <trkpt lat="43.561784019693732" lon="2.121260035783052">
        <ele>165.96000000000001</ele>
        <time>2025-04-25T16:11:59Z</time>
      </trkpt>
      <trkpt lat="43.56126400642097" lon="2.120361998677254">
        <ele>165.96000000000001</ele>
        <time>2025-04-25T16:12:10Z</time>
      </trkpt>
      <trkpt lat="43.561155963689089" lon="2.120276000350714">
        <ele>165.47999999999999</ele>
        <time>2025-04-25T16:12:11Z</time>
      </trkpt>
      <trkpt lat="43.561146995052695" lon="2.12026895955205">
        <ele>165</ele>
        <time>2025-04-25T16:12:12Z</time>
      </trkpt>
      <trkpt lat="43.561146995052695" lon="2.12026895955205">
        <ele>165</ele>
        <time>2025-04-25T16:12:13Z</time>
      </trkpt>
      <trkpt lat="43.561081029474735" lon="2.120219003409147">
        <ele>165</ele>
        <time>2025-04-25T16:12:14Z</time>
      </trkpt>
      <trkpt lat="43.5609429795295" lon="2.120062010362744">
        <ele>165</ele>
        <time>2025-04-25T16:12:15Z</time>
      </trkpt>
      <trkpt lat="43.560863016173244" lon="2.119980035349727">
        <ele>164.52000000000001</ele>
        <time>2025-04-25T16:12:16Z</time>
      </trkpt>
      <trkpt lat="43.560308972373605" lon="2.11940897628665">
        <ele>165</ele>
        <time>2025-04-25T16:12:22Z</time>
      </trkpt>
      <trkpt lat="43.560209982097149" lon="2.119310991838574">
        <ele>165</ele>
        <time>2025-04-25T16:12:23Z</time>
      </trkpt>
      <trkpt lat="43.559195017442107" lon="2.118494007736445">
        <ele>167.88999999999999</ele>
        <time>2025-04-25T16:12:33Z</time>
      </trkpt>
      <trkpt lat="43.558418015018106" lon="2.118016993626952">
        <ele>165.47999999999999</ele>
        <time>2025-04-25T16:12:43Z</time>
      </trkpt>
      <trkpt lat="43.557393997907639" lon="2.117437971755862">
        <ele>163.56</ele>
        <time>2025-04-25T16:12:55Z</time>
      </trkpt>
      <trkpt lat="43.557022009044886" lon="2.117230016738176">
        <ele>164.03999999999999</ele>
        <time>2025-04-25T16:13:01Z</time>
      </trkpt>
      <trkpt lat="43.557022009044886" lon="2.117230016738176">
        <ele>164.03999999999999</ele>
        <time>2025-04-25T16:13:02Z</time>
      </trkpt>
      <trkpt lat="43.556249029934406" lon="2.116812011227012">
        <ele>165.47999999999999</ele>
        <time>2025-04-25T16:13:14Z</time>
      </trkpt>
      <trkpt lat="43.556221034377813" lon="2.116799019277096">
        <ele>165.47999999999999</ele>
        <time>2025-04-25T16:13:15Z</time>
      </trkpt>
      <trkpt lat="43.556134030222893" lon="2.116733975708485">
        <ele>165.47999999999999</ele>
        <time>2025-04-25T16:13:16Z</time>
      </trkpt>
      <trkpt lat="43.556068986654282" lon="2.116698017343879">
        <ele>165.47999999999999</ele>
        <time>2025-04-25T16:13:17Z</time>
      </trkpt>
      <trkpt lat="43.555653998628259" lon="2.116466006264091">
        <ele>165.47999999999999</ele>
        <time>2025-04-25T16:13:26Z</time>
      </trkpt>
      <trkpt lat="43.555603036656976" lon="2.116437004879117">
        <ele>165.47999999999999</ele>
        <time>2025-04-25T16:13:27Z</time>
      </trkpt>
      <trkpt lat="43.555474961176515" lon="2.116372967138887">
        <ele>165</ele>
        <time>2025-04-25T16:13:29Z</time>
      </trkpt>
      <trkpt lat="43.555403966456652" lon="2.116337008774281">
        <ele>164.52000000000001</ele>
        <time>2025-04-25T16:13:30Z</time>
      </trkpt>
      <trkpt lat="43.554821005091071" lon="2.116003995761275">
        <ele>163.08000000000001</ele>
        <time>2025-04-25T16:13:38Z</time>
      </trkpt>
      <trkpt lat="43.554747998714447" lon="2.115962002426386">
        <ele>163.08000000000001</ele>
        <time>2025-04-25T16:13:39Z</time>
      </trkpt>
      <trkpt lat="43.554487992078066" lon="2.115811966359615">
        <ele>162.59999999999999</ele>
        <time>2025-04-25T16:13:43Z</time>
      </trkpt>
      <trkpt lat="43.554435018450022" lon="2.115781959146261">
        <ele>162.59999999999999</ele>
        <time>2025-04-25T16:13:44Z</time>
      </trkpt>
      <trkpt lat="43.554116003215313" lon="2.115607028827071">
        <ele>162.12</ele>
        <time>2025-04-25T16:13:53Z</time>
      </trkpt>
      <trkpt lat="43.553869994357228" lon="2.115479037165642">
        <ele>162.12</ele>
        <time>2025-04-25T16:14:00Z</time>
      </trkpt>
      <trkpt lat="43.553246967494488" lon="2.115123979747295">
        <ele>161.63999999999999</ele>
        <time>2025-04-25T16:14:11Z</time>
      </trkpt>
      <trkpt lat="43.553135991096497" lon="2.115044016391039">
        <ele>161.63999999999999</ele>
        <time>2025-04-25T16:14:19Z</time>
      </trkpt>
      <trkpt lat="43.553085029125214" lon="2.114993976429105">
        <ele>162.12</ele>
        <time>2025-04-25T16:14:20Z</time>
      </trkpt>
      <trkpt lat="43.553027026355267" lon="2.114935973659158">
        <ele>162.12</ele>
        <time>2025-04-25T16:14:21Z</time>
      </trkpt>
      <trkpt lat="43.552966006100178" lon="2.114875037223101">
        <ele>162.12</ele>
        <time>2025-04-25T16:14:22Z</time>
      </trkpt>
      <trkpt lat="43.552904985845089" lon="2.114814016968012">
        <ele>162.59999999999999</ele>
        <time>2025-04-25T16:14:23Z</time>
      </trkpt>
      <trkpt lat="43.552839020267129" lon="2.114762971177697">
        <ele>163.08000000000001</ele>
        <time>2025-04-25T16:14:24Z</time>
      </trkpt>
      <trkpt lat="43.552773976698518" lon="2.114716032519937">
        <ele>163.08000000000001</ele>
        <time>2025-04-25T16:14:25Z</time>
      </trkpt>
      <trkpt lat="43.552075009793043" lon="2.114258967339993">
        <ele>163.56</ele>
        <time>2025-04-25T16:14:36Z</time>
      </trkpt>
      <trkpt lat="43.551978031173348" lon="2.114199036732316">
        <ele>163.56</ele>
        <time>2025-04-25T16:14:38Z</time>
      </trkpt>
      <trkpt lat="43.551922040060163" lon="2.114157965406776">
        <ele>163.08000000000001</ele>
        <time>2025-04-25T16:14:39Z</time>
      </trkpt>
      <trkpt lat="43.551071025431156" lon="2.113601993769407">
        <ele>163.08000000000001</ele>
        <time>2025-04-25T16:14:48Z</time>
      </trkpt>
      <trkpt lat="43.550180029124022" lon="2.113010985776782">
        <ele>162.59999999999999</ele>
        <time>2025-04-25T16:14:57Z</time>
      </trkpt>
      <trkpt lat="43.54897303506732" lon="2.112346971407533">
        <ele>162.12</ele>
        <time>2025-04-25T16:15:07Z</time>
      </trkpt>
      <trkpt lat="43.547594966366887" lon="2.112053018063307">
        <ele>164.52000000000001</ele>
        <time>2025-04-25T16:15:18Z</time>
      </trkpt>
      <trkpt lat="43.546382021158934" lon="2.111582038924098">
        <ele>165.47999999999999</ele>
        <time>2025-04-25T16:15:25Z</time>
      </trkpt>
      <trkpt lat="43.544254023581743" lon="2.110528014600277">
        <ele>165</ele>
        <time>2025-04-25T16:15:35Z</time>
      </trkpt>
      <trkpt lat="43.542153015732765" lon="2.109324960038066">
        <ele>166.44999999999999</ele>
        <time>2025-04-25T16:15:45Z</time>
      </trkpt>
      <trkpt lat="43.540748963132501" lon="2.107838010415435">
        <ele>168.84999999999999</ele>
        <time>2025-04-25T16:15:53Z</time>
      </trkpt>
      <trkpt lat="43.53997103869915" lon="2.107085986062884">
        <ele>169.81</ele>
        <time>2025-04-25T16:16:00Z</time>
      </trkpt>
      <trkpt lat="43.538800003007054" lon="2.106295991688967">
        <ele>170.77000000000001</ele>
        <time>2025-04-25T16:16:11Z</time>
      </trkpt>
      <trkpt lat="43.537722006440163" lon="2.105565005913377">
        <ele>173.16999999999999</ele>
        <time>2025-04-25T16:16:21Z</time>
      </trkpt>
      <trkpt lat="43.537215990945697" lon="2.105116993188858">
        <ele>175.09999999999999</ele>
        <time>2025-04-25T16:16:26Z</time>
      </trkpt>
      <trkpt lat="43.537120018154383" lon="2.105011967942119">
        <ele>175.58000000000001</ele>
        <time>2025-04-25T16:16:27Z</time>
      </trkpt>
      <trkpt lat="43.537022033706307" lon="2.10490501485765">
        <ele>175.58000000000001</ele>
        <time>2025-04-25T16:16:28Z</time>
      </trkpt>
      <trkpt lat="43.536519035696983" lon="2.104430012404919">
        <ele>175.09999999999999</ele>
        <time>2025-04-25T16:16:33Z</time>
      </trkpt>
      <trkpt lat="43.536411998793483" lon="2.104358011856675">
        <ele>174.62</ele>
        <time>2025-04-25T16:16:34Z</time>
      </trkpt>
      <trkpt lat="43.536304039880633" lon="2.104288022965193">
        <ele>174.13999999999999</ele>
        <time>2025-04-25T16:16:35Z</time>
      </trkpt>
      <trkpt lat="43.535143984481692" lon="2.103793993592262">
        <ele>169.81</ele>
        <time>2025-04-25T16:16:45Z</time>
      </trkpt>
      <trkpt lat="43.534106975421309" lon="2.102911965921521">
        <ele>168.84999999999999</ele>
        <time>2025-04-25T16:16:55Z</time>
      </trkpt>
      <trkpt lat="43.533384036272764" lon="2.102077966555953">
        <ele>169.81</ele>
        <time>2025-04-25T16:17:01Z</time>
      </trkpt>
      <trkpt lat="43.531912006437778" lon="2.100430000573397">
        <ele>169.81</ele>
        <time>2025-04-25T16:17:10Z</time>
      </trkpt>
      <trkpt lat="43.529721982777119" lon="2.098516998812556">
        <ele>170.77000000000001</ele>
        <time>2025-04-25T16:17:21Z</time>
      </trkpt>
      <trkpt lat="43.528177030384541" lon="2.096967017278075">
        <ele>174.62</ele>
        <time>2025-04-25T16:17:29Z</time>
      </trkpt>
      <trkpt lat="43.526997026056051" lon="2.095207991078496">
        <ele>175.09999999999999</ele>
        <time>2025-04-25T16:17:37Z</time>
      </trkpt>
      <trkpt lat="43.525503035634756" lon="2.092677997425199">
        <ele>170.77000000000001</ele>
        <time>2025-04-25T16:17:48Z</time>
      </trkpt>
      <trkpt lat="43.524812031537294" lon="2.090723002329469">
        <ele>171.25</ele>
        <time>2025-04-25T16:17:55Z</time>
      </trkpt>
      <trkpt lat="43.523825984448195" lon="2.086865985766053">
        <ele>174.13999999999999</ele>
        <time>2025-04-25T16:18:08Z</time>
      </trkpt>
      <trkpt lat="43.523090975359082" lon="2.083946987986565">
        <ele>174.13999999999999</ele>
        <time>2025-04-25T16:18:18Z</time>
      </trkpt>
      <trkpt lat="43.522281032055616" lon="2.080592969432473">
        <ele>172.69</ele>
        <time>2025-04-25T16:18:29Z</time>
      </trkpt>
      <trkpt lat="43.521140003576875" lon="2.075893990695477">
        <ele>173.66</ele>
        <time>2025-04-25T16:18:44Z</time>
      </trkpt>
      <trkpt lat="43.520388985052705" lon="2.07362400367856">
        <ele>175.58000000000001</ele>
        <time>2025-04-25T16:18:52Z</time>
      </trkpt>
      <trkpt lat="43.519422970712185" lon="2.071853997185826">
        <ele>176.06</ele>
        <time>2025-04-25T16:18:59Z</time>
      </trkpt>
      <trkpt lat="43.518003998324275" lon="2.069714013487101">
        <ele>176.06</ele>
        <time>2025-04-25T16:19:08Z</time>
      </trkpt>
      <trkpt lat="43.515858985483646" lon="2.067839987576008">
        <ele>175.58000000000001</ele>
        <time>2025-04-25T16:19:19Z</time>
      </trkpt>
      <trkpt lat="43.513828972354531" lon="2.066134018823504">
        <ele>176.53999999999999</ele>
        <time>2025-04-25T16:19:30Z</time>
      </trkpt>
      <trkpt lat="43.512024013325572" lon="2.064540032297373">
        <ele>182.78999999999999</ele>
        <time>2025-04-25T16:19:40Z</time>
      </trkpt>
      <trkpt lat="43.510642005130649" lon="2.062683021649718">
        <ele>187.11000000000001</ele>
        <time>2025-04-25T16:19:48Z</time>
      </trkpt>
      <trkpt lat="43.508633030578494" lon="2.05976796336472">
        <ele>190.96000000000001</ele>
        <time>2025-04-25T16:20:00Z</time>
      </trkpt>
      <trkpt lat="43.507150020450354" lon="2.057632002979517">
        <ele>191.91999999999999</ele>
        <time>2025-04-25T16:20:09Z</time>
      </trkpt>
      <trkpt lat="43.505042977631092" lon="2.054570009931922">
        <ele>196.72999999999999</ele>
        <time>2025-04-25T16:20:23Z</time>
      </trkpt>
      <trkpt lat="43.503649989143014" lon="2.052533961832523">
        <ele>200.56999999999999</ele>
        <time>2025-04-25T16:20:33Z</time>
      </trkpt>
      <trkpt lat="43.502580961212516" lon="2.050985991954804">
        <ele>204.41999999999999</ele>
        <time>2025-04-25T16:20:42Z</time>
      </trkpt>
      <trkpt lat="43.501345971599221" lon="2.049206010997295">
        <ele>204.90000000000001</ele>
        <time>2025-04-25T16:20:52Z</time>
      </trkpt>
      <trkpt lat="43.500449024140835" lon="2.047902960330248">
        <ele>206.81999999999999</ele>
        <time>2025-04-25T16:20:59Z</time>
      </trkpt>
      <trkpt lat="43.498908011242747" lon="2.045731963589788">
        <ele>210.66999999999999</ele>
        <time>2025-04-25T16:21:10Z</time>
      </trkpt>
      <trkpt lat="43.498565023764968" lon="2.045388976112008">
        <ele>210.19</ele>
        <time>2025-04-25T16:21:12Z</time>
      </trkpt>
      <trkpt lat="43.498384980484843" lon="2.045261990278959">
        <ele>209.69999999999999</ele>
        <time>2025-04-25T16:21:13Z</time>
      </trkpt>
      <trkpt lat="43.498195968568325" lon="2.045146990567446">
        <ele>208.74000000000001</ele>
        <time>2025-04-25T16:21:14Z</time>
      </trkpt>
      <trkpt lat="43.498006034642458" lon="2.045037019997835">
        <ele>208.25999999999999</ele>
        <time>2025-04-25T16:21:15Z</time>
      </trkpt>
      <trkpt lat="43.497803024947643" lon="2.04496200196445">
        <ele>206.81999999999999</ele>
        <time>2025-04-25T16:21:16Z</time>
      </trkpt>
      <trkpt lat="43.496764004230499" lon="2.044465038925409">
        <ele>202.00999999999999</ele>
        <time>2025-04-25T16:21:21Z</time>
      </trkpt>
      <trkpt lat="43.495076978579164" lon="2.042863005772233">
        <ele>192.88</ele>
        <time>2025-04-25T16:21:30Z</time>
      </trkpt>
      <trkpt lat="43.493555998429656" lon="2.041110014542937">
        <ele>188.08000000000001</ele>
        <time>2025-04-25T16:21:39Z</time>
      </trkpt>
      <trkpt lat="43.49124401807785" lon="2.038464015349746">
        <ele>192.88</ele>
        <time>2025-04-25T16:21:53Z</time>
      </trkpt>
      <trkpt lat="43.489324981346726" lon="2.036072993651032">
        <ele>198.16999999999999</ele>
        <time>2025-04-25T16:22:05Z</time>
      </trkpt>
      <trkpt lat="43.487653965130448" lon="2.033699993044138">
        <ele>203.46000000000001</ele>
        <time>2025-04-25T16:22:16Z</time>
      </trkpt>
      <trkpt lat="43.486674036830664" lon="2.031556991860271">
        <ele>202.49000000000001</ele>
        <time>2025-04-25T16:22:24Z</time>
      </trkpt>
      <trkpt lat="43.485476011410356" lon="2.029049964621663">
        <ele>205.86000000000001</ele>
        <time>2025-04-25T16:22:35Z</time>
      </trkpt>
      <trkpt lat="43.484228029847145" lon="2.026407988741994">
        <ele>207.78</ele>
        <time>2025-04-25T16:22:47Z</time>
      </trkpt>
      <trkpt lat="43.483218010514975" lon="2.024672012776136">
        <ele>207.78</ele>
        <time>2025-04-25T16:22:56Z</time>
      </trkpt>
      <trkpt lat="43.481687977910042" lon="2.02244401909411">
        <ele>210.66999999999999</ele>
        <time>2025-04-25T16:23:08Z</time>
      </trkpt>
      <trkpt lat="43.479917971417308" lon="2.020201021805406">
        <ele>211.63</ele>
        <time>2025-04-25T16:23:20Z</time>
      </trkpt>
      <trkpt lat="43.478252990171313" lon="2.01814997009933">
        <ele>210.19</ele>
        <time>2025-04-25T16:23:30Z</time>
      </trkpt>
      <trkpt lat="43.476824965327978" lon="2.016448024660349">
        <ele>210.66999999999999</ele>
        <time>2025-04-25T16:23:40Z</time>
      </trkpt>
      <trkpt lat="43.476713988929987" lon="2.016330007463694">
        <ele>210.66999999999999</ele>
        <time>2025-04-25T16:23:41Z</time>
      </trkpt>
      <trkpt lat="43.476603012531996" lon="2.016238979995251">
        <ele>210.66999999999999</ele>
        <time>2025-04-25T16:23:42Z</time>
      </trkpt>
      <trkpt lat="43.476408971473575" lon="2.016091039404273">
        <ele>210.66999999999999</ele>
        <time>2025-04-25T16:23:44Z</time>
      </trkpt>
      <trkpt lat="43.476355997845531" lon="2.015841007232666">
        <ele>210.19</ele>
        <time>2025-04-25T16:23:45Z</time>
      </trkpt>
      <trkpt lat="43.476348035037518" lon="2.015816029161215">
        <ele>210.19</ele>
        <time>2025-04-25T16:23:46Z</time>
      </trkpt>
      <trkpt lat="43.476310987025499" lon="2.015691976994276">
        <ele>210.19</ele>
        <time>2025-04-25T16:23:47Z</time>
      </trkpt>
      <trkpt lat="43.476210990920663" lon="2.015579994767904">
        <ele>209.69999999999999</ele>
        <time>2025-04-25T16:23:48Z</time>
      </trkpt>
      <trkpt lat="43.476141002029181" lon="2.015541018918157">
        <ele>209.69999999999999</ele>
        <time>2025-04-25T16:23:49Z</time>
      </trkpt>
      <trkpt lat="43.476019967347383" lon="2.015541018918157">
        <ele>209.22</ele>
        <time>2025-04-25T16:23:50Z</time>
      </trkpt>
      <trkpt lat="43.475936986505985" lon="2.015616036951542">
        <ele>208.74000000000001</ele>
        <time>2025-04-25T16:23:51Z</time>
      </trkpt>
      <trkpt lat="43.475926006212831" lon="2.015626011416316">
        <ele>208.74000000000001</ele>
        <time>2025-04-25T16:23:52Z</time>
      </trkpt>
      <trkpt lat="43.475701035931706" lon="2.015775041654706">
        <ele>208.25999999999999</ele>
        <time>2025-04-25T16:23:53Z</time>
      </trkpt>
      <trkpt lat="43.475576983764768" lon="2.015754003077745">
        <ele>207.78</ele>
        <time>2025-04-25T16:23:54Z</time>
      </trkpt>
      <trkpt lat="43.475446980446577" lon="2.015717960894108">
        <ele>207.78</ele>
        <time>2025-04-25T16:23:55Z</time>
      </trkpt>
      <trkpt lat="43.475304991006851" lon="2.015664987266064">
        <ele>207.30000000000001</ele>
        <time>2025-04-25T16:23:56Z</time>
      </trkpt>
      <trkpt lat="43.475167024880648" lon="2.015579994767904">
        <ele>206.81999999999999</ele>
        <time>2025-04-25T16:23:57Z</time>
      </trkpt>
      <trkpt lat="43.475023023784161" lon="2.015490978956223">
        <ele>205.86000000000001</ele>
        <time>2025-04-25T16:23:58Z</time>
      </trkpt>
      <trkpt lat="43.473575972020626" lon="2.014507027342916">
        <ele>202.97999999999999</ele>
        <time>2025-04-25T16:24:07Z</time>
      </trkpt>
      <trkpt lat="43.472592020407319" lon="2.013801019638777">
        <ele>202.97999999999999</ele>
        <time>2025-04-25T16:24:14Z</time>
      </trkpt>
      <trkpt lat="43.471300033852458" lon="2.012880016118288">
        <ele>203.46000000000001</ele>
        <time>2025-04-25T16:24:26Z</time>
      </trkpt>
      <trkpt lat="43.469675034284592" lon="2.011719960719347">
        <ele>205.38</ele>
        <time>2025-04-25T16:24:41Z</time>
      </trkpt>
      <trkpt lat="43.468587985262275" lon="2.010969026014209">
        <ele>205.38</ele>
        <time>2025-04-25T16:24:51Z</time>
      </trkpt>
      <trkpt lat="43.467508982867002" lon="2.010206021368504">
        <ele>207.78</ele>
        <time>2025-04-25T16:25:01Z</time>
      </trkpt>
      <trkpt lat="43.46655503846705" lon="2.009520968422294">
        <ele>207.30000000000001</ele>
        <time>2025-04-25T16:25:11Z</time>
      </trkpt>
      <trkpt lat="43.465016959235072" lon="2.008469961583614">
        <ele>206.81999999999999</ele>
        <time>2025-04-25T16:25:24Z</time>
      </trkpt>
      <trkpt lat="43.464905982837081" lon="2.0083930157125">
        <ele>206.81999999999999</ele>
        <time>2025-04-25T16:25:25Z</time>
      </trkpt>
      <trkpt lat="43.464799029752612" lon="2.008317997679114">
        <ele>206.81999999999999</ele>
        <time>2025-04-25T16:25:26Z</time>
      </trkpt>
      <trkpt lat="43.463761014863849" lon="2.00755700469017">
        <ele>208.74000000000001</ele>
        <time>2025-04-25T16:25:36Z</time>
      </trkpt>
      <trkpt lat="43.463682979345322" lon="2.007501013576984">
        <ele>208.74000000000001</ele>
        <time>2025-04-25T16:25:37Z</time>
      </trkpt>
      <trkpt lat="43.463545013219118" lon="2.007430018857122">
        <ele>208.74000000000001</ele>
        <time>2025-04-25T16:25:38Z</time>
      </trkpt>
      <trkpt lat="43.462790977209806" lon="2.006882010027766">
        <ele>207.30000000000001</ele>
        <time>2025-04-25T16:25:47Z</time>
      </trkpt>
      <trkpt lat="43.462257971987128" lon="2.006495017558336">
        <ele>207.30000000000001</ele>
        <time>2025-04-25T16:25:54Z</time>
      </trkpt>
      <trkpt lat="43.462197035551071" lon="2.006445983424783">
        <ele>206.81999999999999</ele>
        <time>2025-04-25T16:25:55Z</time>
      </trkpt>
      <trkpt lat="43.462151018902659" lon="2.006270969286561">
        <ele>206.81999999999999</ele>
        <time>2025-04-25T16:25:56Z</time>
      </trkpt>
      <trkpt lat="43.462151018902659" lon="2.006255965679884">
        <ele>206.81999999999999</ele>
        <time>2025-04-25T16:25:57Z</time>
      </trkpt>
      <trkpt lat="43.462111037224531" lon="2.006134008988738">
        <ele>206.34</ele>
        <time>2025-04-25T16:25:58Z</time>
      </trkpt>
      <trkpt lat="43.462065020576119" lon="2.006098972633481">
        <ele>205.86000000000001</ele>
        <time>2025-04-25T16:25:59Z</time>
      </trkpt>
      <trkpt lat="43.461979022249579" lon="2.006141971796751">
        <ele>205.38</ele>
        <time>2025-04-25T16:26:00Z</time>
      </trkpt>
      <trkpt lat="43.461979022249579" lon="2.006141971796751">
        <ele>205.38</ele>
        <time>2025-04-25T16:26:01Z</time>
      </trkpt>
      <trkpt lat="43.461979022249579" lon="2.006141971796751">
        <ele>204.90000000000001</ele>
        <time>2025-04-25T16:26:02Z</time>
      </trkpt>
      <trkpt lat="43.461748016998172" lon="2.006098972633481">
        <ele>204.41999999999999</ele>
        <time>2025-04-25T16:26:03Z</time>
      </trkpt>
      <trkpt lat="43.460720982402563" lon="2.00540604069829">
        <ele>203.94</ele>
        <time>2025-04-25T16:26:15Z</time>
      </trkpt>
      <trkpt lat="43.460494000464678" lon="2.005215017125011">
        <ele>203.94</ele>
        <time>2025-04-25T16:26:18Z</time>
      </trkpt>
      <trkpt lat="43.460438009351492" lon="2.005159026011825">
        <ele>204.41999999999999</ele>
        <time>2025-04-25T16:26:19Z</time>
      </trkpt>
      <trkpt lat="43.4603909868747" lon="2.004961967468262">
        <ele>204.90000000000001</ele>
        <time>2025-04-25T16:26:20Z</time>
      </trkpt>
      <trkpt lat="43.4603909868747" lon="2.004961967468262">
        <ele>205.38</ele>
        <time>2025-04-25T16:26:21Z</time>
      </trkpt>
      <trkpt lat="43.460370032116771" lon="2.004908993840218">
        <ele>205.38</ele>
        <time>2025-04-25T16:26:22Z</time>
      </trkpt>
      <trkpt lat="43.460354022681713" lon="2.004798017442226">
        <ele>205.86000000000001</ele>
        <time>2025-04-25T16:26:23Z</time>
      </trkpt>
      <trkpt lat="43.460365002974868" lon="2.004705984145403">
        <ele>206.34</ele>
        <time>2025-04-25T16:26:24Z</time>
      </trkpt>
      <trkpt lat="43.460297025740147" lon="2.003829991444945">
        <ele>209.22</ele>
        <time>2025-04-25T16:26:35Z</time>
      </trkpt>
      <trkpt lat="43.460195017978549" lon="2.00310898013413">
        <ele>211.15000000000001</ele>
        <time>2025-04-25T16:26:44Z</time>
      </trkpt>
      <trkpt lat="43.460195017978549" lon="2.00310898013413">
        <ele>211.15000000000001</ele>
        <time>2025-04-25T16:26:45Z</time>
      </trkpt>
      <trkpt lat="43.460139026865363" lon="2.002977970987558">
        <ele>212.11000000000001</ele>
        <time>2025-04-25T16:26:53Z</time>
      </trkpt>
      <trkpt lat="43.460139026865363" lon="2.002977970987558">
        <ele>214.99000000000001</ele>
        <time>2025-04-25T16:27:16Z</time>
      </trkpt>
      <trkpt lat="43.460049005225301" lon="2.002873029559851">
        <ele>214.50999999999999</ele>
        <time>2025-04-25T16:27:29Z</time>
      </trkpt>
      <trkpt lat="43.459705011919141" lon="2.002500034868717">
        <ele>213.55000000000001</ele>
        <time>2025-04-25T16:27:36Z</time>
      </trkpt>
      <trkpt lat="43.459264962002635" lon="2.002158975228667">
        <ele>211.63</ele>
        <time>2025-04-25T16:27:42Z</time>
      </trkpt>
      <trkpt lat="43.459212994202971" lon="2.002114970237017">
        <ele>211.15000000000001</ele>
        <time>2025-04-25T16:27:43Z</time>
      </trkpt>
      <trkpt lat="43.458515033125877" lon="2.001555981114507">
        <ele>207.78</ele>
        <time>2025-04-25T16:27:53Z</time>
      </trkpt>
      <trkpt lat="43.458433980122209" lon="2.001515999436379">
        <ele>207.78</ele>
        <time>2025-04-25T16:27:54Z</time>
      </trkpt>
      <trkpt lat="43.458360973745584" lon="2.001514993607998">
        <ele>207.30000000000001</ele>
        <time>2025-04-25T16:27:55Z</time>
      </trkpt>
      <trkpt lat="43.458275981247425" lon="2.001526979729533">
        <ele>207.30000000000001</ele>
        <time>2025-04-25T16:27:56Z</time>
      </trkpt>
      <trkpt lat="43.458193000406027" lon="2.001538965851069">
        <ele>206.81999999999999</ele>
        <time>2025-04-25T16:27:57Z</time>
      </trkpt>
      <trkpt lat="43.457776000723243" lon="2.001535026356578">
        <ele>206.34</ele>
        <time>2025-04-25T16:28:02Z</time>
      </trkpt>
      <trkpt lat="43.457674998790026" lon="2.00151901692152">
        <ele>206.34</ele>
        <time>2025-04-25T16:28:03Z</time>
      </trkpt>
      <trkpt lat="43.457596963271499" lon="2.001460008323193">
        <ele>206.81999999999999</ele>
        <time>2025-04-25T16:28:05Z</time>
      </trkpt>
      <trkpt lat="43.457257999107242" lon="2.001220034435391">
        <ele>207.78</ele>
        <time>2025-04-25T16:28:08Z</time>
      </trkpt>
      <trkpt lat="43.457172000780702" lon="2.001152979210019">
        <ele>207.78</ele>
        <time>2025-04-25T16:28:09Z</time>
      </trkpt>
      <trkpt lat="43.456358034163713" lon="2.000592984259129">
        <ele>209.22</ele>
        <time>2025-04-25T16:28:19Z</time>
      </trkpt>
      <trkpt lat="43.456100039184093" lon="2.000433979555965">
        <ele>208.74000000000001</ele>
        <time>2025-04-25T16:28:23Z</time>
      </trkpt>
      <trkpt lat="43.456097021698952" lon="2.000421993434429">
        <ele>208.74000000000001</ele>
        <time>2025-04-25T16:28:24Z</time>
      </trkpt>
      <trkpt lat="43.456077994778752" lon="2.000327026471496">
        <ele>208.25999999999999</ele>
        <time>2025-04-25T16:28:34Z</time>
      </trkpt>
      <trkpt lat="43.456061985343695" lon="2.000318979844451">
        <ele>208.74000000000001</ele>
        <time>2025-04-25T16:28:35Z</time>
      </trkpt>
      <trkpt lat="43.455991996452212" lon="2.000284027308226">
        <ele>208.25999999999999</ele>
        <time>2025-04-25T16:28:36Z</time>
      </trkpt>
      <trkpt lat="43.455975987017155" lon="2.000214960426092">
        <ele>208.25999999999999</ele>
        <time>2025-04-25T16:28:37Z</time>
      </trkpt>
      <trkpt lat="43.455958971753716" lon="2.000141032040119">
        <ele>208.25999999999999</ele>
        <time>2025-04-25T16:28:38Z</time>
      </trkpt>
      <trkpt lat="43.455940028652549" lon="2.00005897320807">
        <ele>208.25999999999999</ele>
        <time>2025-04-25T16:28:39Z</time>
      </trkpt>
      <trkpt lat="43.455640040338039" lon="1.998864971101284">
        <ele>210.19</ele>
        <time>2025-04-25T16:28:50Z</time>
      </trkpt>
      <trkpt lat="43.455381039530039" lon="1.997626964002848">
        <ele>211.15000000000001</ele>
        <time>2025-04-25T16:28:59Z</time>
      </trkpt>
      <trkpt lat="43.455110974609852" lon="1.996390968561173">
        <ele>212.11000000000001</ele>
        <time>2025-04-25T16:29:09Z</time>
      </trkpt>
      <trkpt lat="43.455054983496666" lon="1.996121993288398">
        <ele>212.11000000000001</ele>
        <time>2025-04-25T16:29:11Z</time>
      </trkpt>
      <trkpt lat="43.454844010993838" lon="1.995207024738193">
        <ele>211.63</ele>
        <time>2025-04-25T16:29:18Z</time>
      </trkpt>
      <trkpt lat="43.454820960760117" lon="1.995108034461737">
        <ele>212.11000000000001</ele>
        <time>2025-04-25T16:29:19Z</time>
      </trkpt>
      <trkpt lat="43.454670002683997" lon="1.994382999837399">
        <ele>212.59</ele>
        <time>2025-04-25T16:29:27Z</time>
      </trkpt>
      <trkpt lat="43.454555002972484" lon="1.99348202906549">
        <ele>213.55000000000001</ele>
        <time>2025-04-25T16:29:34Z</time>
      </trkpt>
      <trkpt lat="43.454557014629245" lon="1.993468031287193">
        <ele>213.06999999999999</ele>
        <time>2025-04-25T16:29:35Z</time>
      </trkpt>
      <trkpt lat="43.454565983265638" lon="1.993325036019087">
        <ele>213.06999999999999</ele>
        <time>2025-04-25T16:29:36Z</time>
      </trkpt>
      <trkpt lat="43.454532958567142" lon="1.993223028257489">
        <ele>212.59</ele>
        <time>2025-04-25T16:29:37Z</time>
      </trkpt>
      <trkpt lat="43.454446960240602" lon="1.993116997182369">
        <ele>212.59</ele>
        <time>2025-04-25T16:29:38Z</time>
      </trkpt>
      <trkpt lat="43.454421982169151" lon="1.993038039654493">
        <ele>212.59</ele>
        <time>2025-04-25T16:29:39Z</time>
      </trkpt>
      <trkpt lat="43.454387029632926" lon="1.99292303994298">
        <ele>212.59</ele>
        <time>2025-04-25T16:29:40Z</time>
      </trkpt>
      <trkpt lat="43.454346964135766" lon="1.99279798194766">
        <ele>212.11000000000001</ele>
        <time>2025-04-25T16:29:41Z</time>
      </trkpt>
      <trkpt lat="43.453998025506735" lon="1.991302985697985">
        <ele>211.15000000000001</ele>
        <time>2025-04-25T16:29:50Z</time>
      </trkpt>
      <trkpt lat="43.453603992238641" lon="1.989499032497406">
        <ele>212.11000000000001</ele>
        <time>2025-04-25T16:30:00Z</time>
      </trkpt>
      <trkpt lat="43.453062018379569" lon="1.986975995823741">
        <ele>212.11000000000001</ele>
        <time>2025-04-25T16:30:14Z</time>
      </trkpt>
      <trkpt lat="43.452601013705134" lon="1.984859984368086">
        <ele>212.11000000000001</ele>
        <time>2025-04-25T16:30:26Z</time>
      </trkpt>
      <trkpt lat="43.4521400090307" lon="1.982670966535807">
        <ele>211.15000000000001</ele>
        <time>2025-04-25T16:30:38Z</time>
      </trkpt>
      <trkpt lat="43.451743964105844" lon="1.980900038033724">
        <ele>213.55000000000001</ele>
        <time>2025-04-25T16:30:47Z</time>
      </trkpt>
      <trkpt lat="43.451629970222712" lon="1.980407014489174">
        <ele>214.99000000000001</ele>
        <time>2025-04-25T16:30:50Z</time>
      </trkpt>
      <trkpt lat="43.4515390265733" lon="1.979994038119912">
        <ele>215.94999999999999</ele>
        <time>2025-04-25T16:30:53Z</time>
      </trkpt>
      <trkpt lat="43.451636005192995" lon="1.979770995676518">
        <ele>215.94999999999999</ele>
        <time>2025-04-25T16:30:54Z</time>
      </trkpt>
      <trkpt lat="43.451637011021376" lon="1.979766972362995">
        <ele>216.43000000000001</ele>
        <time>2025-04-25T16:30:55Z</time>
      </trkpt>
      <trkpt lat="43.451671041548252" lon="1.979655995965004">
        <ele>216.43000000000001</ele>
        <time>2025-04-25T16:30:56Z</time>
      </trkpt>
      <trkpt lat="43.451688978821039" lon="1.979528004303575">
        <ele>215.94999999999999</ele>
        <time>2025-04-25T16:30:57Z</time>
      </trkpt>
      <trkpt lat="43.451650002971292" lon="1.979437982663512">
        <ele>215.94999999999999</ele>
        <time>2025-04-25T16:30:58Z</time>
      </trkpt>
      <trkpt lat="43.451636005192995" lon="1.979405963793397">
        <ele>215.94999999999999</ele>
        <time>2025-04-25T16:30:59Z</time>
      </trkpt>
      <trkpt lat="43.451460991054773" lon="1.979331029579043">
        <ele>215.47</ele>
        <time>2025-04-25T16:31:00Z</time>
      </trkpt>
      <trkpt lat="43.451426038518548" lon="1.979223992675543">
        <ele>215.47</ele>
        <time>2025-04-25T16:31:01Z</time>
      </trkpt>
      <trkpt lat="43.451426038518548" lon="1.979223992675543">
        <ele>215.47</ele>
        <time>2025-04-25T16:31:02Z</time>
      </trkpt>
      <trkpt lat="43.451385973021388" lon="1.979091977700591">
        <ele>215.47</ele>
        <time>2025-04-25T16:31:03Z</time>
      </trkpt>
      <trkpt lat="43.45130299217999" lon="1.978776985779405">
        <ele>215.47</ele>
        <time>2025-04-25T16:31:04Z</time>
      </trkpt>
      <trkpt lat="43.451256975531578" lon="1.978597026318312">
        <ele>215.47</ele>
        <time>2025-04-25T16:31:05Z</time>
      </trkpt>
      <trkpt lat="43.451207019388676" lon="1.978406002745032">
        <ele>215.47</ele>
        <time>2025-04-25T16:31:06Z</time>
      </trkpt>
      <trkpt lat="43.450952963903546" lon="1.977307973429561">
        <ele>212.11000000000001</ele>
        <time>2025-04-25T16:31:12Z</time>
      </trkpt>
      <trkpt lat="43.450842993333936" lon="1.976803969591856">
        <ele>212.11000000000001</ele>
        <time>2025-04-25T16:31:13Z</time>
      </trkpt>
      <trkpt lat="43.45027101226151" lon="1.974131986498833">
        <ele>213.06999999999999</ele>
        <time>2025-04-25T16:31:23Z</time>
      </trkpt>
      <trkpt lat="43.449729960411787" lon="1.971672987565398">
        <ele>211.63</ele>
        <time>2025-04-25T16:31:32Z</time>
      </trkpt>
      <trkpt lat="43.449268033728004" lon="1.969476006925106">
        <ele>211.15000000000001</ele>
        <time>2025-04-25T16:31:41Z</time>
      </trkpt>
      <trkpt lat="43.448656992986798" lon="1.966675026342273">
        <ele>212.11000000000001</ele>
        <time>2025-04-25T16:31:52Z</time>
      </trkpt>
      <trkpt lat="43.448253991082311" lon="1.964859003201127">
        <ele>215.94999999999999</ele>
        <time>2025-04-25T16:32:00Z</time>
      </trkpt>
      <trkpt lat="43.448022985830903" lon="1.963821994140744">
        <ele>216.43000000000001</ele>
        <time>2025-04-25T16:32:05Z</time>
      </trkpt>
      <trkpt lat="43.447512025013566" lon="1.961497021839023">
        <ele>210.66999999999999</ele>
        <time>2025-04-25T16:32:15Z</time>
      </trkpt>
      <trkpt lat="43.44694297760725" lon="1.958848005160689">
        <ele>209.69999999999999</ele>
        <time>2025-04-25T16:32:25Z</time>
      </trkpt>
      <trkpt lat="43.446538969874382" lon="1.956967022269964">
        <ele>210.19</ele>
        <time>2025-04-25T16:32:32Z</time>
      </trkpt>
      <trkpt lat="43.446091962978244" lon="1.954890992492437">
        <ele>210.19</ele>
        <time>2025-04-25T16:32:41Z</time>
      </trkpt>
      <trkpt lat="43.445654008537531" lon="1.952943960204721">
        <ele>211.63</ele>
        <time>2025-04-25T16:32:50Z</time>
      </trkpt>
      <trkpt lat="43.445463990792632" lon="1.952363010495901">
        <ele>211.63</ele>
        <time>2025-04-25T16:32:53Z</time>
      </trkpt>
      <trkpt lat="43.445382015779614" lon="1.952161006629467">
        <ele>211.63</ele>
        <time>2025-04-25T16:32:54Z</time>
      </trkpt>
      <trkpt lat="43.44526500441134" lon="1.952012982219458">
        <ele>211.15000000000001</ele>
        <time>2025-04-25T16:32:55Z</time>
      </trkpt>
      <trkpt lat="43.445127038285136" lon="1.951882978901267">
        <ele>211.15000000000001</ele>
        <time>2025-04-25T16:32:56Z</time>
      </trkpt>
      <trkpt lat="43.444972978904843" lon="1.951751969754696">
        <ele>210.66999999999999</ele>
        <time>2025-04-25T16:32:57Z</time>
      </trkpt>
      <trkpt lat="43.444812968373299" lon="1.951682986691594">
        <ele>210.66999999999999</ele>
        <time>2025-04-25T16:32:58Z</time>
      </trkpt>
      <trkpt lat="43.444633008912206" lon="1.951622972264886">
        <ele>210.66999999999999</ele>
        <time>2025-04-25T16:32:59Z</time>
      </trkpt>
      <trkpt lat="43.444460006430745" lon="1.951577961444855">
        <ele>210.66999999999999</ele>
        <time>2025-04-25T16:33:00Z</time>
      </trkpt>
      <trkpt lat="43.444265965372324" lon="1.951596988365054">
        <ele>210.19</ele>
        <time>2025-04-25T16:33:01Z</time>
      </trkpt>
      <trkpt lat="43.444068990647793" lon="1.951616015285254">
        <ele>210.19</ele>
        <time>2025-04-25T16:33:02Z</time>
      </trkpt>
      <trkpt lat="43.441454004496336" lon="1.952007031068206">
        <ele>210.66999999999999</ele>
        <time>2025-04-25T16:33:15Z</time>
      </trkpt>
      <trkpt lat="43.438853016123176" lon="1.952382959425449">
        <ele>211.63</ele>
        <time>2025-04-25T16:33:28Z</time>
      </trkpt>
      <trkpt lat="43.436617981642485" lon="1.952703986316919">
        <ele>213.55000000000001</ele>
        <time>2025-04-25T16:33:39Z</time>
      </trkpt>
      <trkpt lat="43.434063009917736" lon="1.953081004321575">
        <ele>218.84</ele>
        <time>2025-04-25T16:33:52Z</time>
      </trkpt>
      <trkpt lat="43.432145984843373" lon="1.953377975150943">
        <ele>222.19999999999999</ele>
        <time>2025-04-25T16:34:02Z</time>
      </trkpt>
      <trkpt lat="43.429985968396068" lon="1.953677963465452">
        <ele>225.09</ele>
        <time>2025-04-25T16:34:14Z</time>
      </trkpt>
      <trkpt lat="43.428230965510011" lon="1.953939981758595">
        <ele>227.49000000000001</ele>
        <time>2025-04-25T16:34:23Z</time>
      </trkpt>
      <trkpt lat="43.426069021224976" lon="1.954252040013671">
        <ele>228.93000000000001</ele>
        <time>2025-04-25T16:34:33Z</time>
      </trkpt>
      <trkpt lat="43.423708006739616" lon="1.954613970592618">
        <ele>228.93000000000001</ele>
        <time>2025-04-25T16:34:44Z</time>
      </trkpt>
      <trkpt lat="43.421153035014868" lon="1.954987971112132">
        <ele>232.30000000000001</ele>
        <time>2025-04-25T16:34:56Z</time>
      </trkpt>
      <trkpt lat="43.418146027252078" lon="1.955435983836651">
        <ele>238.53999999999999</ele>
        <time>2025-04-25T16:35:10Z</time>
      </trkpt>
      <trkpt lat="43.414899967610836" lon="1.955924984067679">
        <ele>249.59999999999999</ele>
        <time>2025-04-25T16:35:25Z</time>
      </trkpt>
      <trkpt lat="43.412249023094773" lon="1.956308959051967">
        <ele>256.32999999999998</ele>
        <time>2025-04-25T16:35:37Z</time>
      </trkpt>
      <trkpt lat="43.409454999491572" lon="1.956719001755118">
        <ele>262.10000000000002</ele>
        <time>2025-04-25T16:35:50Z</time>
      </trkpt>
      <trkpt lat="43.406974039971828" lon="1.957083027809858">
        <ele>269.31</ele>
        <time>2025-04-25T16:36:02Z</time>
      </trkpt>
      <trkpt lat="43.404757026582956" lon="1.957412017509341">
        <ele>284.69</ele>
        <time>2025-04-25T16:36:13Z</time>
      </trkpt>
      <trkpt lat="43.403231017291546" lon="1.957759028300643">
        <ele>294.77999999999997</ele>
        <time>2025-04-25T16:36:21Z</time>
      </trkpt>
      <trkpt lat="43.401763010770082" lon="1.958696963265538">
        <ele>301.50999999999999</ele>
        <time>2025-04-25T16:36:29Z</time>
      </trkpt>
      <trkpt lat="43.400821974501014" lon="1.95996799506247">
        <ele>304.88</ele>
        <time>2025-04-25T16:36:35Z</time>
      </trkpt>
      <trkpt lat="43.400011025369167" lon="1.962065985426307">
        <ele>308.72000000000003</ele>
        <time>2025-04-25T16:36:43Z</time>
      </trkpt>
      <trkpt lat="43.399062026292086" lon="1.965508013963699">
        <ele>308.72000000000003</ele>
        <time>2025-04-25T16:36:55Z</time>
      </trkpt>
      <trkpt lat="43.398947026580572" lon="1.965766008943319">
        <ele>308.24000000000001</ele>
        <time>2025-04-25T16:36:56Z</time>
      </trkpt>
      <trkpt lat="43.398803025484085" lon="1.965995002537966">
        <ele>308.24000000000001</ele>
        <time>2025-04-25T16:36:57Z</time>
      </trkpt>
      <trkpt lat="43.398644020780921" lon="1.966188959777355">
        <ele>307.75999999999999</ele>
        <time>2025-04-25T16:36:58Z</time>
      </trkpt>
      <trkpt lat="43.398455008864403" lon="1.9663489703089">
        <ele>307.27999999999997</ele>
        <time>2025-04-25T16:36:59Z</time>
      </trkpt>
      <trkpt lat="43.398264991119504" lon="1.966509986668825">
        <ele>306.80000000000001</ele>
        <time>2025-04-25T16:37:00Z</time>
      </trkpt>
      <trkpt lat="43.398070028051734" lon="1.966632027179003">
        <ele>306.31999999999999</ele>
        <time>2025-04-25T16:37:01Z</time>
      </trkpt>
      <trkpt lat="43.397852014750242" lon="1.966716013848782">
        <ele>306.31999999999999</ele>
        <time>2025-04-25T16:37:02Z</time>
      </trkpt>
      <trkpt lat="43.397630983963609" lon="1.96680000051856">
        <ele>305.83999999999997</ele>
        <time>2025-04-25T16:37:03Z</time>
      </trkpt>
      <trkpt lat="43.395861983299255" lon="1.967684039846063">
        <ele>298.63</ele>
        <time>2025-04-25T16:37:11Z</time>
      </trkpt>
      <trkpt lat="43.394419960677624" lon="1.968593979254365">
        <ele>291.89999999999998</ele>
        <time>2025-04-25T16:37:18Z</time>
      </trkpt>
      <trkpt lat="43.392833014950156" lon="1.970175979658961">
        <ele>284.20999999999998</ele>
        <time>2025-04-25T16:37:26Z</time>
      </trkpt>
      <trkpt lat="43.391670025885105" lon="1.971366964280605">
        <ele>279.39999999999998</ele>
        <time>2025-04-25T16:37:33Z</time>
      </trkpt>
      <trkpt lat="43.389831036329269" lon="1.972864978015423">
        <ele>272.19</ele>
        <time>2025-04-25T16:37:43Z</time>
      </trkpt>
      <trkpt lat="43.387817032635212" lon="1.974001983180642">
        <ele>265.45999999999998</ele>
        <time>2025-04-25T16:37:53Z</time>
      </trkpt>
      <trkpt lat="43.386080972850323" lon="1.974657028913498">
        <ele>258.73000000000002</ele>
        <time>2025-04-25T16:38:01Z</time>
      </trkpt>
      <trkpt lat="43.383524995297194" lon="1.975115016102791">
        <ele>246.22999999999999</ele>
        <time>2025-04-25T16:38:13Z</time>
      </trkpt>
      <trkpt lat="43.380866004154086" lon="1.975478958338499">
        <ele>235.18000000000001</ele>
        <time>2025-04-25T16:38:26Z</time>
      </trkpt>
      <trkpt lat="43.379460023716092" lon="1.975344009697437">
        <ele>231.81</ele>
        <time>2025-04-25T16:38:33Z</time>
      </trkpt>
      <trkpt lat="43.378548994660378" lon="1.974832965061069">
        <ele>231.81</ele>
        <time>2025-04-25T16:38:38Z</time>
      </trkpt>
      <trkpt lat="43.378397030755877" lon="1.97466298006475">
        <ele>231.81</ele>
        <time>2025-04-25T16:38:39Z</time>
      </trkpt>
      <trkpt lat="43.377983970567584" lon="1.97408203035593">
        <ele>231.81</ele>
        <time>2025-04-25T16:38:42Z</time>
      </trkpt>
      <trkpt lat="43.377756988629699" lon="1.973621025681496">
        <ele>231.81</ele>
        <time>2025-04-25T16:38:44Z</time>
      </trkpt>
      <trkpt lat="43.377667972818017" lon="1.973370993509889">
        <ele>231.81</ele>
        <time>2025-04-25T16:38:45Z</time>
      </trkpt>
      <trkpt lat="43.377580968663096" lon="1.973120961338282">
        <ele>231.81</ele>
        <time>2025-04-25T16:38:46Z</time>
      </trkpt>
      <trkpt lat="43.377072019502521" lon="1.970749972388148">
        <ele>233.25999999999999</ele>
        <time>2025-04-25T16:38:55Z</time>
      </trkpt>
      <trkpt lat="43.376890970394015" lon="1.970273964107037">
        <ele>233.74000000000001</ele>
        <time>2025-04-25T16:38:57Z</time>
      </trkpt>
      <trkpt lat="43.376791980117559" lon="1.970039019361138">
        <ele>233.74000000000001</ele>
        <time>2025-04-25T16:38:58Z</time>
      </trkpt>
      <trkpt lat="43.375754971057177" lon="1.968759018927813">
        <ele>235.18000000000001</ele>
        <time>2025-04-25T16:39:05Z</time>
      </trkpt>
      <trkpt lat="43.375576017424464" lon="1.968656005337834">
        <ele>235.18000000000001</ele>
        <time>2025-04-25T16:39:06Z</time>
      </trkpt>
      <trkpt lat="43.374003991484642" lon="1.967970030382276">
        <ele>230.84999999999999</ele>
        <time>2025-04-25T16:39:14Z</time>
      </trkpt>
      <trkpt lat="43.371110977604985" lon="1.966918017715216">
        <ele>218.36000000000001</ele>
        <time>2025-04-25T16:39:28Z</time>
      </trkpt>
      <trkpt lat="43.36866999976337" lon="1.966011011973023">
        <ele>203.94</ele>
        <time>2025-04-25T16:39:40Z</time>
      </trkpt>
      <trkpt lat="43.365983013063669" lon="1.965014990419149">
        <ele>188.56</ele>
        <time>2025-04-25T16:39:53Z</time>
      </trkpt>
      <trkpt lat="43.363475985825062" lon="1.964086024090648">
        <ele>180.38</ele>
        <time>2025-04-25T16:40:05Z</time>
      </trkpt>
      <trkpt lat="43.361621992662549" lon="1.963417986407876">
        <ele>176.53999999999999</ele>
        <time>2025-04-25T16:40:15Z</time>
      </trkpt>
      <trkpt lat="43.360640974715352" lon="1.963062006980181">
        <ele>176.53999999999999</ele>
        <time>2025-04-25T16:40:23Z</time>
      </trkpt>
      <trkpt lat="43.358992002904415" lon="1.962453983724117">
        <ele>173.16999999999999</ele>
        <time>2025-04-25T16:40:37Z</time>
      </trkpt>
      <trkpt lat="43.357462976127863" lon="1.961905974894762">
        <ele>171.25</ele>
        <time>2025-04-25T16:40:50Z</time>
      </trkpt>
      <trkpt lat="43.356290012598038" lon="1.961495010182262">
        <ele>170.28999999999999</ele>
        <time>2025-04-25T16:41:00Z</time>
      </trkpt>
      <trkpt lat="43.354633999988437" lon="1.960883969441056">
        <ele>167.41</ele>
        <time>2025-04-25T16:41:14Z</time>
      </trkpt>
      <trkpt lat="43.353505963459611" lon="1.960476022213697">
        <ele>165.96000000000001</ele>
        <time>2025-04-25T16:41:22Z</time>
      </trkpt>
      <trkpt lat="43.351595979183912" lon="1.959779988974333">
        <ele>163.56</ele>
        <time>2025-04-25T16:41:35Z</time>
      </trkpt>
      <trkpt lat="43.351132962852716" lon="1.959608998149633">
        <ele>163.08000000000001</ele>
        <time>2025-04-25T16:41:40Z</time>
      </trkpt>
      <trkpt lat="43.351078983396292" lon="1.959588965401053">
        <ele>162.59999999999999</ele>
        <time>2025-04-25T16:41:41Z</time>
      </trkpt>
      <trkpt lat="43.351033972576261" lon="1.959573039785028">
        <ele>162.59999999999999</ele>
        <time>2025-04-25T16:41:42Z</time>
      </trkpt>
      <trkpt lat="43.350945962592959" lon="1.959540015086532">
        <ele>162.59999999999999</ele>
        <time>2025-04-25T16:41:45Z</time>
      </trkpt>
      <trkpt lat="43.350926013663411" lon="1.959532974287868">
        <ele>162.59999999999999</ele>
        <time>2025-04-25T16:41:46Z</time>
      </trkpt>
      <trkpt lat="43.350910004228354" lon="1.959527023136616">
        <ele>162.59999999999999</ele>
        <time>2025-04-25T16:41:47Z</time>
      </trkpt>
      <trkpt lat="43.350910004228354" lon="1.959527023136616">
        <ele>162.59999999999999</ele>
        <time>2025-04-25T16:41:48Z</time>
      </trkpt>
      <trkpt lat="43.350910004228354" lon="1.959527023136616">
        <ele>162.59999999999999</ele>
        <time>2025-04-25T16:42:03Z</time>
      </trkpt>
      <trkpt lat="43.350910004228354" lon="1.959527023136616">
        <ele>162.12</ele>
        <time>2025-04-25T16:42:51Z</time>
      </trkpt>
      <trkpt lat="43.350910004228354" lon="1.959527023136616">
        <ele>162.12</ele>
        <time>2025-04-25T16:43:32Z</time>
      </trkpt>
      <trkpt lat="43.350889971479774" lon="1.959519982337952">
        <ele>162.12</ele>
        <time>2025-04-25T16:43:52Z</time>
      </trkpt>
      <trkpt lat="43.350889971479774" lon="1.959519982337952">
        <ele>162.12</ele>
        <time>2025-04-25T16:43:53Z</time>
      </trkpt>
      <trkpt lat="43.350756028667092" lon="1.95947103202343">
        <ele>162.12</ele>
        <time>2025-04-25T16:43:54Z</time>
      </trkpt>
      <trkpt lat="43.350660977885127" lon="1.959437001496553">
        <ele>161.63999999999999</ele>
        <time>2025-04-25T16:43:55Z</time>
      </trkpt>
      <trkpt lat="43.350551007315516" lon="1.959397019818425">
        <ele>161.63999999999999</ele>
        <time>2025-04-25T16:43:56Z</time>
      </trkpt>
      <trkpt lat="43.349343007430434" lon="1.958965016528964">
        <ele>160.19999999999999</ele>
        <time>2025-04-25T16:44:04Z</time>
      </trkpt>
      <trkpt lat="43.347481973469257" lon="1.958306031301618">
        <ele>157.31</ele>
        <time>2025-04-25T16:44:13Z</time>
      </trkpt>
      <trkpt lat="43.344321995973587" lon="1.957156034186482">
        <ele>154.91</ele>
        <time>2025-04-25T16:44:28Z</time>
      </trkpt>
      <trkpt lat="43.342102970927954" lon="1.95633796043694">
        <ele>156.83000000000001</ele>
        <time>2025-04-25T16:44:40Z</time>
      </trkpt>
      <trkpt lat="43.339393017813563" lon="1.955354008823633">
        <ele>163.08000000000001</ele>
        <time>2025-04-25T16:44:54Z</time>
      </trkpt>
      <trkpt lat="43.33863596431911" lon="1.95506801828742">
        <ele>164.52000000000001</ele>
        <time>2025-04-25T16:44:57Z</time>
      </trkpt>
      <trkpt lat="43.335996000096202" lon="1.954099992290139">
        <ele>163.08000000000001</ele>
        <time>2025-04-25T16:45:11Z</time>
      </trkpt>
      <trkpt lat="43.333562985062599" lon="1.953204972669482">
        <ele>163.08000000000001</ele>
        <time>2025-04-25T16:45:24Z</time>
      </trkpt>
      <trkpt lat="43.331525009125471" lon="1.952465018257499">
        <ele>163.08000000000001</ele>
        <time>2025-04-25T16:45:35Z</time>
      </trkpt>
      <trkpt lat="43.328777002170682" lon="1.951466985046864">
        <ele>165.47999999999999</ele>
        <time>2025-04-25T16:45:50Z</time>
      </trkpt>
      <trkpt lat="43.326837010681629" lon="1.950743040069938">
        <ele>175.58000000000001</ele>
        <time>2025-04-25T16:46:02Z</time>
      </trkpt>
      <trkpt lat="43.326488994061947" lon="1.950610019266605">
        <ele>176.06</ele>
        <time>2025-04-25T16:46:03Z</time>
      </trkpt>
      <trkpt lat="43.326316997408867" lon="1.950543969869614">
        <ele>177.02000000000001</ele>
        <time>2025-04-25T16:46:04Z</time>
      </trkpt>
      <trkpt lat="43.325236989185214" lon="1.950177010148764">
        <ele>184.71000000000001</ele>
        <time>2025-04-25T16:46:12Z</time>
      </trkpt>
      <trkpt lat="43.325131963938475" lon="1.95014800876379">
        <ele>186.15000000000001</ele>
        <time>2025-04-25T16:46:13Z</time>
      </trkpt>
      <trkpt lat="43.324946975335479" lon="1.950154965743423">
        <ele>189.03999999999999</ele>
        <time>2025-04-25T16:46:15Z</time>
      </trkpt>
      <trkpt lat="43.324863994494081" lon="1.950201988220215">
        <ele>190.47999999999999</ele>
        <time>2025-04-25T16:46:16Z</time>
      </trkpt>
      <trkpt lat="43.324809009209275" lon="1.950285974889994">
        <ele>190.96000000000001</ele>
        <time>2025-04-25T16:46:17Z</time>
      </trkpt>
      <trkpt lat="43.324768021702766" lon="1.950378008186817">
        <ele>191.44</ele>
        <time>2025-04-25T16:46:18Z</time>
      </trkpt>
      <trkpt lat="43.324739020317793" lon="1.950501976534724">
        <ele>191.44</ele>
        <time>2025-04-25T16:46:19Z</time>
      </trkpt>
      <trkpt lat="43.324715970084071" lon="1.950628040358424">
        <ele>191.44</ele>
        <time>2025-04-25T16:46:20Z</time>
      </trkpt>
      <trkpt lat="43.324738014489412" lon="1.950787967070937">
        <ele>191.44</ele>
        <time>2025-04-25T16:46:21Z</time>
      </trkpt>
      <trkpt lat="43.32479702308774" lon="1.950944038107991">
        <ele>191.44</ele>
        <time>2025-04-25T16:46:22Z</time>
      </trkpt>
      <trkpt lat="43.325003972277045" lon="1.951733026653528">
        <ele>190</ele>
        <time>2025-04-25T16:46:26Z</time>
      </trkpt>
      <trkpt lat="43.325003972277045" lon="1.951733026653528">
        <ele>189.52000000000001</ele>
        <time>2025-04-25T16:46:27Z</time>
      </trkpt>
      <trkpt lat="43.325049988925457" lon="1.952207023277879">
        <ele>189.03999999999999</ele>
        <time>2025-04-25T16:46:28Z</time>
      </trkpt>
      <trkpt lat="43.324906993657351" lon="1.954461000859737">
        <ele>181.34999999999999</ele>
        <time>2025-04-25T16:46:37Z</time>
      </trkpt>
      <trkpt lat="43.324533998966217" lon="1.957719968631864">
        <ele>173.16999999999999</ele>
        <time>2025-04-25T16:46:47Z</time>
      </trkpt>
      <trkpt lat="43.324034018442035" lon="1.959314038977027">
        <ele>168.37</ele>
        <time>2025-04-25T16:46:53Z</time>
      </trkpt>
      <trkpt lat="43.323019975796342" lon="1.96130096912384">
        <ele>163.08000000000001</ele>
        <time>2025-04-25T16:47:01Z</time>
      </trkpt>
      <trkpt lat="43.321694964542985" lon="1.963715041056275">
        <ele>159.24000000000001</ele>
        <time>2025-04-25T16:47:11Z</time>
      </trkpt>
      <trkpt lat="43.320578997954726" lon="1.965468032285571">
        <ele>157.31</ele>
        <time>2025-04-25T16:47:19Z</time>
      </trkpt>
      <trkpt lat="43.319382984191179" lon="1.966501018032432">
        <ele>156.34999999999999</ele>
        <time>2025-04-25T16:47:26Z</time>
      </trkpt>
      <trkpt lat="43.318055039271712" lon="1.967269973829389">
        <ele>155.38999999999999</ele>
        <time>2025-04-25T16:47:35Z</time>
      </trkpt>
      <trkpt lat="43.317553969100118" lon="1.967532997950912">
        <ele>155.38999999999999</ele>
        <time>2025-04-25T16:47:39Z</time>
      </trkpt>
      <trkpt lat="43.317323969677091" lon="1.967523023486137">
        <ele>156.34999999999999</ele>
        <time>2025-04-25T16:47:41Z</time>
      </trkpt>
      <trkpt lat="43.317323969677091" lon="1.967523023486137">
        <ele>156.34999999999999</ele>
        <time>2025-04-25T16:47:42Z</time>
      </trkpt>
      <trkpt lat="43.317211987450719" lon="1.967604998499155">
        <ele>156.83000000000001</ele>
        <time>2025-04-25T16:47:43Z</time>
      </trkpt>
      <trkpt lat="43.31697603687644" lon="1.968025015667081">
        <ele>156.83000000000001</ele>
        <time>2025-04-25T16:47:45Z</time>
      </trkpt>
      <trkpt lat="43.316857013851404" lon="1.968143032863736">
        <ele>156.83000000000001</ele>
        <time>2025-04-25T16:47:46Z</time>
      </trkpt>
      <trkpt lat="43.316723993048072" lon="1.968233976513147">
        <ele>156.83000000000001</ele>
        <time>2025-04-25T16:47:47Z</time>
      </trkpt>
      <trkpt lat="43.315138975158334" lon="1.969309039413929">
        <ele>157.31</ele>
        <time>2025-04-25T16:47:57Z</time>
      </trkpt>
      <trkpt lat="43.312284015119076" lon="1.971148028969765">
        <ele>158.75</ele>
        <time>2025-04-25T16:48:12Z</time>
      </trkpt>
      <trkpt lat="43.310726992785931" lon="1.972155030816793">
        <ele>162.12</ele>
        <time>2025-04-25T16:48:22Z</time>
      </trkpt>
      <trkpt lat="43.309241971001029" lon="1.973468977957964">
        <ele>165.96000000000001</ele>
        <time>2025-04-25T16:48:31Z</time>
      </trkpt>
      <trkpt lat="43.30806196667254" lon="1.975331017747521">
        <ele>165</ele>
        <time>2025-04-25T16:48:42Z</time>
      </trkpt>
      <trkpt lat="43.307177005335689" lon="1.977259023115039">
        <ele>164.52000000000001</ele>
        <time>2025-04-25T16:48:52Z</time>
      </trkpt>
      <trkpt lat="43.306476026773453" lon="1.978833982720971">
        <ele>163.08000000000001</ele>
        <time>2025-04-25T16:49:00Z</time>
      </trkpt>
      <trkpt lat="43.306305035948753" lon="1.979040009900928">
        <ele>163.08000000000001</ele>
        <time>2025-04-25T16:49:02Z</time>
      </trkpt>
      <trkpt lat="43.306219959631562" lon="1.979123996570706">
        <ele>163.08000000000001</ele>
        <time>2025-04-25T16:49:03Z</time>
      </trkpt>
      <trkpt lat="43.306133961305022" lon="1.979170013219118">
        <ele>163.08000000000001</ele>
        <time>2025-04-25T16:49:04Z</time>
      </trkpt>
      <trkpt lat="43.306024996563792" lon="1.979178981855512">
        <ele>163.08000000000001</ele>
        <time>2025-04-25T16:49:05Z</time>
      </trkpt>
      <trkpt lat="43.305925000458956" lon="1.979221981018782">
        <ele>162.59999999999999</ele>
        <time>2025-04-25T16:49:06Z</time>
      </trkpt>
      <trkpt lat="43.305814024060965" lon="1.979170013219118">
        <ele>162.12</ele>
        <time>2025-04-25T16:49:07Z</time>
      </trkpt>
      <trkpt lat="43.305711010470986" lon="1.97908996604383">
        <ele>162.12</ele>
        <time>2025-04-25T16:49:08Z</time>
      </trkpt>
      <trkpt lat="43.305599028244615" lon="1.979002039879561">
        <ele>162.59999999999999</ele>
        <time>2025-04-25T16:49:09Z</time>
      </trkpt>
      <trkpt lat="43.305477993562818" lon="1.978906989097595">
        <ele>162.59999999999999</ele>
        <time>2025-04-25T16:49:10Z</time>
      </trkpt>
      <trkpt lat="43.305241037160158" lon="1.978652011603117">
        <ele>163.08000000000001</ele>
        <time>2025-04-25T16:49:12Z</time>
      </trkpt>
      <trkpt lat="43.304206961765885" lon="1.97728400118649">
        <ele>164.03999999999999</ele>
        <time>2025-04-25T16:49:20Z</time>
      </trkpt>
      <trkpt lat="43.303495002910495" lon="1.975913979113102">
        <ele>162.59999999999999</ele>
        <time>2025-04-25T16:49:27Z</time>
      </trkpt>
      <trkpt lat="43.303272966295481" lon="1.975139994174242">
        <ele>161.63999999999999</ele>
        <time>2025-04-25T16:49:31Z</time>
      </trkpt>
      <trkpt lat="43.303284030407667" lon="1.974977971985936">
        <ele>161.63999999999999</ele>
        <time>2025-04-25T16:49:32Z</time>
      </trkpt>
      <trkpt lat="43.303320994600654" lon="1.974677983671427">
        <ele>161.63999999999999</ele>
        <time>2025-04-25T16:49:34Z</time>
      </trkpt>
      <trkpt lat="43.303289981558919" lon="1.974526019766927">
        <ele>161.16</ele>
        <time>2025-04-25T16:49:35Z</time>
      </trkpt>
      <trkpt lat="43.303289981558919" lon="1.974525013938546">
        <ele>161.16</ele>
        <time>2025-04-25T16:49:36Z</time>
      </trkpt>
      <trkpt lat="43.303155032917857" lon="1.974311023950577">
        <ele>161.16</ele>
        <time>2025-04-25T16:49:37Z</time>
      </trkpt>
      <trkpt lat="43.30305403098464" lon="1.97425402700901">
        <ele>160.68000000000001</ele>
        <time>2025-04-25T16:49:38Z</time>
      </trkpt>
      <trkpt lat="43.30305403098464" lon="1.97425402700901">
        <ele>160.68000000000001</ele>
        <time>2025-04-25T16:49:39Z</time>
      </trkpt>
      <trkpt lat="43.302809027954936" lon="1.974218990653753">
        <ele>160.19999999999999</ele>
        <time>2025-04-25T16:49:40Z</time>
      </trkpt>
      <trkpt lat="43.302809027954936" lon="1.974218990653753">
        <ele>159.72</ele>
        <time>2025-04-25T16:49:41Z</time>
      </trkpt>
      <trkpt lat="43.302701991051435" lon="1.974118994548917">
        <ele>158.75</ele>
        <time>2025-04-25T16:49:42Z</time>
      </trkpt>
      <trkpt lat="43.302587997168303" lon="1.974012963473797">
        <ele>158.27000000000001</ele>
        <time>2025-04-25T16:49:43Z</time>
      </trkpt>
      <trkpt lat="43.302480960264802" lon="1.973870974034071">
        <ele>157.78999999999999</ele>
        <time>2025-04-25T16:49:44Z</time>
      </trkpt>
      <trkpt lat="43.301491979509592" lon="1.972185038030148">
        <ele>153.47</ele>
        <time>2025-04-25T16:49:52Z</time>
      </trkpt>
      <trkpt lat="43.300760993734002" lon="1.970714014023542">
        <ele>151.53999999999999</ele>
        <time>2025-04-25T16:50:00Z</time>
      </trkpt>
      <trkpt lat="43.300265036523342" lon="1.968886004760861">
        <ele>153.47</ele>
        <time>2025-04-25T16:50:07Z</time>
      </trkpt>
      <trkpt lat="43.300222037360072" lon="1.968276975676417">
        <ele>153.94999999999999</ele>
        <time>2025-04-25T16:50:10Z</time>
      </trkpt>
      <trkpt lat="43.300227988511324" lon="1.968102967366576">
        <ele>154.43000000000001</ele>
        <time>2025-04-25T16:50:11Z</time>
      </trkpt>
      <trkpt lat="43.300267970189452" lon="1.967963995411992">
        <ele>154.43000000000001</ele>
        <time>2025-04-25T16:50:12Z</time>
      </trkpt>
      <trkpt lat="43.300397973507643" lon="1.967685967683792">
        <ele>153.94999999999999</ele>
        <time>2025-04-25T16:50:14Z</time>
      </trkpt>
      <trkpt lat="43.300392022356391" lon="1.967528974637389">
        <ele>153.94999999999999</ele>
        <time>2025-04-25T16:50:15Z</time>
      </trkpt>
      <trkpt lat="43.300354974344373" lon="1.967373993247747">
        <ele>153.94999999999999</ele>
        <time>2025-04-25T16:50:16Z</time>
      </trkpt>
      <trkpt lat="43.300280040130019" lon="1.967266034334898">
        <ele>153.47</ele>
        <time>2025-04-25T16:50:17Z</time>
      </trkpt>
      <trkpt lat="43.30017501488328" lon="1.967200990766287">
        <ele>153.94999999999999</ele>
        <time>2025-04-25T16:50:18Z</time>
      </trkpt>
      <trkpt lat="43.300078036263585" lon="1.967209037393332">
        <ele>153.94999999999999</ele>
        <time>2025-04-25T16:50:19Z</time>
      </trkpt>
      <trkpt lat="43.299970999360085" lon="1.967221023514867">
        <ele>154.43000000000001</ele>
        <time>2025-04-25T16:50:20Z</time>
      </trkpt>
      <trkpt lat="43.29989799298346" lon="1.967325964942575">
        <ele>154.43000000000001</ele>
        <time>2025-04-25T16:50:21Z</time>
      </trkpt>
      <trkpt lat="43.299824986606836" lon="1.967429984360933">
        <ele>154.43000000000001</ele>
        <time>2025-04-25T16:50:22Z</time>
      </trkpt>
      <trkpt lat="43.299813000485301" lon="1.967549007385969">
        <ele>154.43000000000001</ele>
        <time>2025-04-25T16:50:23Z</time>
      </trkpt>
      <trkpt lat="43.299727002158761" lon="1.967674987390637">
        <ele>154.91</ele>
        <time>2025-04-25T16:50:24Z</time>
      </trkpt>
      <trkpt lat="43.299661036580801" lon="1.967681022360921">
        <ele>154.91</ele>
        <time>2025-04-25T16:50:25Z</time>
      </trkpt>
      <trkpt lat="43.299587024375796" lon="1.967687979340553">
        <ele>154.91</ele>
        <time>2025-04-25T16:50:26Z</time>
      </trkpt>
      <trkpt lat="43.299503037706017" lon="1.967689990997315">
        <ele>154.43000000000001</ele>
        <time>2025-04-25T16:50:27Z</time>
      </trkpt>
      <trkpt lat="43.299409998580813" lon="1.967689990997315">
        <ele>154.43000000000001</ele>
        <time>2025-04-25T16:50:28Z</time>
      </trkpt>
      <trkpt lat="43.298393022269011" lon="1.967799039557576">
        <ele>153.47</ele>
        <time>2025-04-25T16:50:37Z</time>
      </trkpt>
      <trkpt lat="43.296727035194635" lon="1.968161975964904">
        <ele>154.43000000000001</ele>
        <time>2025-04-25T16:50:50Z</time>
      </trkpt>
      <trkpt lat="43.294802969321609" lon="1.967932982370257">
        <ele>155.38999999999999</ele>
        <time>2025-04-25T16:51:03Z</time>
      </trkpt>
      <trkpt lat="43.293653978034854" lon="1.967928959056735">
        <ele>155.38999999999999</ele>
        <time>2025-04-25T16:51:10Z</time>
      </trkpt>
      <trkpt lat="43.292517978698015" lon="1.967795016244054">
        <ele>156.34999999999999</ele>
        <time>2025-04-25T16:51:17Z</time>
      </trkpt>
      <trkpt lat="43.292369032278657" lon="1.96783198043704">
        <ele>156.34999999999999</ele>
        <time>2025-04-25T16:51:18Z</time>
      </trkpt>
      <trkpt lat="43.292233999818563" lon="1.967889983206987">
        <ele>156.83000000000001</ele>
        <time>2025-04-25T16:51:19Z</time>
      </trkpt>
      <trkpt lat="43.292124029248953" lon="1.967974975705147">
        <ele>156.83000000000001</ele>
        <time>2025-04-25T16:51:20Z</time>
      </trkpt>
      <trkpt lat="43.292040964588523" lon="1.968069020658732">
        <ele>157.31</ele>
        <time>2025-04-25T16:51:21Z</time>
      </trkpt>
      <trkpt lat="43.291967958211899" lon="1.968185026198626">
        <ele>157.31</ele>
        <time>2025-04-25T16:51:22Z</time>
      </trkpt>
      <trkpt lat="43.291884977370501" lon="1.968315029516816">
        <ele>157.78999999999999</ele>
        <time>2025-04-25T16:51:23Z</time>
      </trkpt>
      <trkpt lat="43.291596975177526" lon="1.968719959259033">
        <ele>158.27000000000001</ele>
        <time>2025-04-25T16:51:26Z</time>
      </trkpt>
      <trkpt lat="43.291492033749819" lon="1.968814004212618">
        <ele>158.27000000000001</ele>
        <time>2025-04-25T16:51:27Z</time>
      </trkpt>
      <trkpt lat="43.291376028209925" lon="1.968869995325804">
        <ele>158.27000000000001</ele>
        <time>2025-04-25T16:51:28Z</time>
      </trkpt>
      <trkpt lat="43.291376028209925" lon="1.968869995325804">
        <ele>158.27000000000001</ele>
        <time>2025-04-25T16:51:29Z</time>
      </trkpt>
      <trkpt lat="43.291248958557844" lon="1.968893967568874">
        <ele>158.27000000000001</ele>
        <time>2025-04-25T16:51:30Z</time>
      </trkpt>
      <trkpt lat="43.291123984381557" lon="1.968898996710777">
        <ele>157.78999999999999</ele>
        <time>2025-04-25T16:51:31Z</time>
      </trkpt>
      <trkpt lat="43.290717964991927" lon="1.968911988660693">
        <ele>156.83000000000001</ele>
        <time>2025-04-25T16:51:34Z</time>
      </trkpt>
      <trkpt lat="43.290642024949193" lon="1.96894601918757">
        <ele>156.34999999999999</ele>
        <time>2025-04-25T16:51:35Z</time>
      </trkpt>
      <trkpt lat="43.290544040501118" lon="1.968998992815614">
        <ele>155.87</ele>
        <time>2025-04-25T16:51:36Z</time>
      </trkpt>
      <trkpt lat="43.29044203273952" lon="1.9690549839288">
        <ele>155.38999999999999</ele>
        <time>2025-04-25T16:51:37Z</time>
      </trkpt>
      <trkpt lat="43.290443038567901" lon="1.9690549839288">
        <ele>154.91</ele>
        <time>2025-04-25T16:51:38Z</time>
      </trkpt>
      <trkpt lat="43.289720015600324" lon="1.969454968348146">
        <ele>152.50999999999999</ele>
        <time>2025-04-25T16:51:44Z</time>
      </trkpt>
      <trkpt lat="43.289560005068779" lon="1.969511965289712">
        <ele>152.50999999999999</ele>
        <time>2025-04-25T16:51:45Z</time>
      </trkpt>
      <trkpt lat="43.288918035104871" lon="1.969680022448301">
        <ele>152.50999999999999</ele>
        <time>2025-04-25T16:51:48Z</time>
      </trkpt>
      <trkpt lat="43.288763975724578" lon="1.969746993854642">
        <ele>152.50999999999999</ele>
        <time>2025-04-25T16:51:49Z</time>
      </trkpt>
      <trkpt lat="43.288612011820078" lon="1.96985000744462">
        <ele>152.50999999999999</ele>
        <time>2025-04-25T16:51:50Z</time>
      </trkpt>
      <trkpt lat="43.287696959450841" lon="1.97060102596879">
        <ele>152.03</ele>
        <time>2025-04-25T16:51:57Z</time>
      </trkpt>
      <trkpt lat="43.287581959739327" lon="1.970661040395498">
        <ele>152.50999999999999</ele>
        <time>2025-04-25T16:51:58Z</time>
      </trkpt>
      <trkpt lat="43.28745799139142" lon="1.970681995153427">
        <ele>152.50999999999999</ele>
        <time>2025-04-25T16:51:59Z</time>
      </trkpt>
      <trkpt lat="43.286595996469259" lon="1.970834964886308">
        <ele>153.47</ele>
        <time>2025-04-25T16:52:06Z</time>
      </trkpt>
      <trkpt lat="43.286531958729029" lon="1.970842005684972">
        <ele>153.47</ele>
        <time>2025-04-25T16:52:07Z</time>
      </trkpt>
      <trkpt lat="43.286500023677945" lon="1.970833037048578">
        <ele>153.94999999999999</ele>
        <time>2025-04-25T16:52:08Z</time>
      </trkpt>
      <trkpt lat="43.286500023677945" lon="1.970833037048578">
        <ele>154.43000000000001</ele>
        <time>2025-04-25T16:52:18Z</time>
      </trkpt>
      <trkpt lat="43.286390975117683" lon="1.970801018178463">
        <ele>155.38999999999999</ele>
        <time>2025-04-25T16:52:25Z</time>
      </trkpt>
      <trkpt lat="43.286343030631542" lon="1.970848962664604">
        <ele>155.87</ele>
        <time>2025-04-25T16:52:26Z</time>
      </trkpt>
      <trkpt lat="43.286270024254918" lon="1.970922974869609">
        <ele>155.87</ele>
        <time>2025-04-25T16:52:27Z</time>
      </trkpt>
      <trkpt lat="43.285725032910705" lon="1.971405018121004">
        <ele>157.78999999999999</ele>
        <time>2025-04-25T16:52:33Z</time>
      </trkpt>
      <trkpt lat="43.284072959795594" lon="1.972827007994056">
        <ele>161.63999999999999</ele>
        <time>2025-04-25T16:52:43Z</time>
      </trkpt>
      <trkpt lat="43.282316029071808" lon="1.974691981449723">
        <ele>161.16</ele>
        <time>2025-04-25T16:52:54Z</time>
      </trkpt>
      <trkpt lat="43.280608970671892" lon="1.976949982345104">
        <ele>160.19999999999999</ele>
        <time>2025-04-25T16:53:06Z</time>
      </trkpt>
      <trkpt lat="43.277750993147492" lon="1.979934023693204">
        <ele>162.12</ele>
        <time>2025-04-25T16:53:22Z</time>
      </trkpt>
      <trkpt lat="43.275215970352292" lon="1.982616987079382">
        <ele>165.47999999999999</ele>
        <time>2025-04-25T16:53:37Z</time>
      </trkpt>
      <trkpt lat="43.272703997790813" lon="1.985271032899618">
        <ele>165.47999999999999</ele>
        <time>2025-04-25T16:53:52Z</time>
      </trkpt>
      <trkpt lat="43.271016972139478" lon="1.987033998593688">
        <ele>165</ele>
        <time>2025-04-25T16:54:03Z</time>
      </trkpt>
      <trkpt lat="43.270540041849017" lon="1.987530961632729">
        <ele>164.52000000000001</ele>
        <time>2025-04-25T16:54:09Z</time>
      </trkpt>
      <trkpt lat="43.270511962473392" lon="1.987559963017702">
        <ele>164.52000000000001</ele>
        <time>2025-04-25T16:54:10Z</time>
      </trkpt>
      <trkpt lat="43.270562002435327" lon="1.987607991322875">
        <ele>164.03999999999999</ele>
        <time>2025-04-25T16:54:11Z</time>
      </trkpt>
      <trkpt lat="43.270600978285074" lon="1.987646967172623">
        <ele>163.56</ele>
        <time>2025-04-25T16:54:12Z</time>
      </trkpt>
      <trkpt lat="43.270650012418628" lon="1.987693989649415">
        <ele>163.08000000000001</ele>
        <time>2025-04-25T16:54:13Z</time>
      </trkpt>
      <trkpt lat="43.270708015188575" lon="1.987751992419362">
        <ele>162.59999999999999</ele>
        <time>2025-04-25T16:54:14Z</time>
      </trkpt>
      <trkpt lat="43.270776998251677" lon="1.987819969654083">
        <ele>162.59999999999999</ele>
        <time>2025-04-25T16:54:15Z</time>
      </trkpt>
      <trkpt lat="43.273445963859558" lon="1.990650035440922">
        <ele>164.52000000000001</ele>
        <time>2025-04-26T08:09:22Z</time>
      </trkpt>
      <trkpt lat="43.27349198050797" lon="1.990620028227568">
        <ele>151.06</ele>
        <time>2025-04-26T08:09:50Z</time>
      </trkpt>
      <trkpt lat="43.273468008264899" lon="1.990628996863961">
        <ele>148.18000000000001</ele>
        <time>2025-04-26T08:10:31Z</time>
      </trkpt>
      <trkpt lat="43.273379998281598" lon="1.990603012964129">
        <ele>157.31</ele>
        <time>2025-04-26T08:10:51Z</time>
      </trkpt>
      <trkpt lat="43.273390978574753" lon="1.990553978830576">
        <ele>155.38999999999999</ele>
        <time>2025-04-26T08:11:16Z</time>
      </trkpt>
      <trkpt lat="43.273440012708306" lon="1.990414001047611">
        <ele>153.47</ele>
        <time>2025-04-26T08:11:24Z</time>
      </trkpt>
      <trkpt lat="43.273315960541368" lon="1.990294978022575">
        <ele>153.47</ele>
        <time>2025-04-26T08:11:37Z</time>
      </trkpt>
      <trkpt lat="43.27310498803854" lon="1.990102026611567">
        <ele>154.43000000000001</ele>
        <time>2025-04-26T08:11:45Z</time>
      </trkpt>
      <trkpt lat="43.272233018651605" lon="1.989254029467702">
        <ele>157.31</ele>
        <time>2025-04-26T08:11:58Z</time>
      </trkpt>
      <trkpt lat="43.271028958261013" lon="1.988065978512168">
        <ele>157.31</ele>
        <time>2025-04-26T08:12:13Z</time>
      </trkpt>
      <trkpt lat="43.270642971619964" lon="1.987688038498163">
        <ele>156.34999999999999</ele>
        <time>2025-04-26T08:12:20Z</time>
      </trkpt>
      <trkpt lat="43.270611958578229" lon="1.987658031284809">
        <ele>156.34999999999999</ele>
        <time>2025-04-26T08:12:21Z</time>
      </trkpt>
      <trkpt lat="43.27057097107172" lon="1.987617965787649">
        <ele>155.87</ele>
        <time>2025-04-26T08:12:28Z</time>
      </trkpt>
      <trkpt lat="43.270554961636662" lon="1.987515036016703">
        <ele>155.87</ele>
        <time>2025-04-26T08:12:30Z</time>
      </trkpt>
      <trkpt lat="43.270583963021636" lon="1.987485028803349">
        <ele>156.34999999999999</ele>
        <time>2025-04-26T08:12:31Z</time>
      </trkpt>
      <trkpt lat="43.270631991326809" lon="1.987434988841415">
        <ele>156.83000000000001</ele>
        <time>2025-04-26T08:12:32Z</time>
      </trkpt>
      <trkpt lat="43.270695023238659" lon="1.987369023263454">
        <ele>156.83000000000001</ele>
        <time>2025-04-26T08:12:33Z</time>
      </trkpt>
      <trkpt lat="43.270767023786902" lon="1.987294005230069">
        <ele>157.31</ele>
        <time>2025-04-26T08:12:34Z</time>
      </trkpt>
      <trkpt lat="43.271484011784196" lon="1.986546004191041">
        <ele>158.75</ele>
        <time>2025-04-26T08:12:41Z</time>
      </trkpt>
      <trkpt lat="43.272707015275955" lon="1.985268015414476">
        <ele>158.75</ele>
        <time>2025-04-26T08:12:50Z</time>
      </trkpt>
      <trkpt lat="43.275600029155612" lon="1.982214991003275">
        <ele>158.27000000000001</ele>
        <time>2025-04-26T08:13:10Z</time>
      </trkpt>
      <trkpt lat="43.277535997331142" lon="1.980172991752625">
        <ele>157.78999999999999</ele>
        <time>2025-04-26T08:13:24Z</time>
      </trkpt>
      <trkpt lat="43.2778300344944" lon="1.979844002053142">
        <ele>157.78999999999999</ele>
        <time>2025-04-26T08:13:28Z</time>
      </trkpt>
      <trkpt lat="43.277860041707754" lon="1.979808965697885">
        <ele>157.78999999999999</ele>
        <time>2025-04-26T08:13:29Z</time>
      </trkpt>
      <trkpt lat="43.277865992859006" lon="1.979745011776686">
        <ele>157.78999999999999</ele>
        <time>2025-04-26T08:13:30Z</time>
      </trkpt>
      <trkpt lat="43.277839003130794" lon="1.979721039533615">
        <ele>157.78999999999999</ele>
        <time>2025-04-26T08:13:31Z</time>
      </trkpt>
      <trkpt lat="43.277800027281046" lon="1.979684997349978">
        <ele>157.78999999999999</ele>
        <time>2025-04-26T08:13:32Z</time>
      </trkpt>
      <trkpt lat="43.277751998975873" lon="1.979640992358327">
        <ele>157.78999999999999</ele>
        <time>2025-04-26T08:13:33Z</time>
      </trkpt>
      <trkpt lat="43.277690978720784" lon="1.979587012901902">
        <ele>157.78999999999999</ele>
        <time>2025-04-26T08:13:34Z</time>
      </trkpt>
      <trkpt lat="43.276957981288433" lon="1.978918975219131">
        <ele>159.72</ele>
        <time>2025-04-26T08:13:42Z</time>
      </trkpt>
      <trkpt lat="43.2758769672364" lon="1.97760796174407">
        <ele>162.59999999999999</ele>
        <time>2025-04-26T08:13:53Z</time>
      </trkpt>
      <trkpt lat="43.274362022057176" lon="1.976301977410913">
        <ele>165.96000000000001</ele>
        <time>2025-04-26T08:14:06Z</time>
      </trkpt>
      <trkpt lat="43.273156033828855" lon="1.975111998617649">
        <ele>166.93000000000001</ele>
        <time>2025-04-26T08:14:16Z</time>
      </trkpt>
      <trkpt lat="43.27123599126935" lon="1.973398989066482">
        <ele>169.81</ele>
        <time>2025-04-26T08:14:31Z</time>
      </trkpt>
      <trkpt lat="43.269821964204311" lon="1.972095016390085">
        <ele>173.66</ele>
        <time>2025-04-26T08:14:42Z</time>
      </trkpt>
      <trkpt lat="43.268540035933256" lon="1.971007967367768">
        <ele>175.58000000000001</ele>
        <time>2025-04-26T08:14:52Z</time>
      </trkpt>
      <trkpt lat="43.266931967809796" lon="1.969847995787859">
        <ele>177.97999999999999</ele>
        <time>2025-04-26T08:15:04Z</time>
      </trkpt>
      <trkpt lat="43.265179982408881" lon="1.96855902671814">
        <ele>181.34999999999999</ele>
        <time>2025-04-26T08:15:17Z</time>
      </trkpt>
      <trkpt lat="43.263740977272391" lon="1.96752998046577">
        <ele>186.15000000000001</ele>
        <time>2025-04-26T08:15:28Z</time>
      </trkpt>
      <trkpt lat="43.262750990688801" lon="1.966879041865468">
        <ele>190</ele>
        <time>2025-04-26T08:15:37Z</time>
      </trkpt>
      <trkpt lat="43.262481009587646" lon="1.966750966385007">
        <ele>190</ele>
        <time>2025-04-26T08:15:41Z</time>
      </trkpt>
      <trkpt lat="43.262443039566278" lon="1.96673302911222">
        <ele>190</ele>
        <time>2025-04-26T08:15:42Z</time>
      </trkpt>
      <trkpt lat="43.262418983504176" lon="1.966622974723578">
        <ele>189.52000000000001</ele>
        <time>2025-04-26T08:15:43Z</time>
      </trkpt>
      <trkpt lat="43.262446979060769" lon="1.966568995267153">
        <ele>189.52000000000001</ele>
        <time>2025-04-26T08:15:44Z</time>
      </trkpt>
      <trkpt lat="43.262482015416026" lon="1.96649900637567">
        <ele>189.03999999999999</ele>
        <time>2025-04-26T08:15:45Z</time>
      </trkpt>
      <trkpt lat="43.262521997094154" lon="1.966418037191033">
        <ele>189.03999999999999</ele>
        <time>2025-04-26T08:15:46Z</time>
      </trkpt>
      <trkpt lat="43.262617969885468" lon="1.966217961162329">
        <ele>188.56</ele>
        <time>2025-04-26T08:15:48Z</time>
      </trkpt>
      <trkpt lat="43.263055002316833" lon="1.965051032602787">
        <ele>188.08000000000001</ele>
        <time>2025-04-26T08:15:56Z</time>
      </trkpt>
      <trkpt lat="43.263593958690763" lon="1.962880035862327">
        <ele>185.66999999999999</ele>
        <time>2025-04-26T08:16:08Z</time>
      </trkpt>
      <trkpt lat="43.264042977243662" lon="1.961189992725849">
        <ele>184.22999999999999</ele>
        <time>2025-04-26T08:16:18Z</time>
      </trkpt>
      <trkpt lat="43.264106009155512" lon="1.961114974692464">
        <ele>184.22999999999999</ele>
        <time>2025-04-26T08:16:19Z</time>
      </trkpt>
      <trkpt lat="43.264177003875375" lon="1.961069963872433">
        <ele>184.22999999999999</ele>
        <time>2025-04-26T08:16:20Z</time>
      </trkpt>
      <trkpt lat="43.264259984716773" lon="1.961046997457743">
        <ele>184.22999999999999</ele>
        <time>2025-04-26T08:16:21Z</time>
      </trkpt>
      <trkpt lat="43.264350006356835" lon="1.961054960265756">
        <ele>184.22999999999999</ele>
        <time>2025-04-26T08:16:22Z</time>
      </trkpt>
      <trkpt lat="43.264454025775194" lon="1.961087984964252">
        <ele>184.22999999999999</ele>
        <time>2025-04-26T08:16:23Z</time>
      </trkpt>
      <trkpt lat="43.264565002173185" lon="1.961142970249057">
        <ele>184.22999999999999</ele>
        <time>2025-04-26T08:16:24Z</time>
      </trkpt>
      <trkpt lat="43.264945959672332" lon="1.961333993822336">
        <ele>184.22999999999999</ele>
        <time>2025-04-26T08:16:27Z</time>
      </trkpt>
      <trkpt lat="43.265078980475664" lon="1.961400965228677">
        <ele>184.22999999999999</ele>
        <time>2025-04-26T08:16:28Z</time>
      </trkpt>
      <trkpt lat="43.26521803624928" lon="1.961414040997624">
        <ele>184.71000000000001</ele>
        <time>2025-04-26T08:16:29Z</time>
      </trkpt>
      <trkpt lat="43.265362037345767" lon="1.961399037390947">
        <ele>184.71000000000001</ele>
        <time>2025-04-26T08:16:30Z</time>
      </trkpt>
      <trkpt lat="43.265510983765125" lon="1.96138302795589">
        <ele>184.22999999999999</ele>
        <time>2025-04-26T08:16:31Z</time>
      </trkpt>
      <trkpt lat="43.266893997788429" lon="1.960929986089468">
        <ele>184.22999999999999</ele>
        <time>2025-04-26T08:16:40Z</time>
      </trkpt>
      <trkpt lat="43.26857297681272" lon="1.959789041429758">
        <ele>181.34999999999999</ele>
        <time>2025-04-26T08:16:52Z</time>
      </trkpt>
      <trkpt lat="43.268667021766305" lon="1.959689967334271">
        <ele>180.87</ele>
        <time>2025-04-26T08:16:53Z</time>
      </trkpt>
      <trkpt lat="43.26874396763742" lon="1.959564993157983">
        <ele>180.87</ele>
        <time>2025-04-26T08:16:54Z</time>
      </trkpt>
      <trkpt lat="43.268797025084496" lon="1.959411017596722">
        <ele>180.87</ele>
        <time>2025-04-26T08:16:55Z</time>
      </trkpt>
      <trkpt lat="43.268854022026062" lon="1.959250001236796">
        <ele>180.87</ele>
        <time>2025-04-26T08:16:56Z</time>
      </trkpt>
      <trkpt lat="43.268912024796009" lon="1.959084039554">
        <ele>181.34999999999999</ele>
        <time>2025-04-26T08:16:57Z</time>
      </trkpt>
      <trkpt lat="43.269648961722851" lon="1.957056038081646">
        <ele>185.19</ele>
        <time>2025-04-26T08:17:08Z</time>
      </trkpt>
      <trkpt lat="43.270916976034641" lon="1.954018017277122">
        <ele>189.03999999999999</ele>
        <time>2025-04-26T08:17:24Z</time>
      </trkpt>
      <trkpt lat="43.272126987576485" lon="1.951419962570071">
        <ele>192.40000000000001</ele>
        <time>2025-04-26T08:17:39Z</time>
      </trkpt>
      <trkpt lat="43.272799970582128" lon="1.949587007984519">
        <ele>194.31999999999999</ele>
        <time>2025-04-26T08:17:49Z</time>
      </trkpt>
      <trkpt lat="43.273574039340019" lon="1.94739799015224">
        <ele>195.28</ele>
        <time>2025-04-26T08:18:01Z</time>
      </trkpt>
      <trkpt lat="43.274549022316933" lon="1.946081025525928">
        <ele>196.25</ele>
        <time>2025-04-26T08:18:11Z</time>
      </trkpt>
      <trkpt lat="43.275113962590694" lon="1.945425979793072">
        <ele>197.69</ele>
        <time>2025-04-26T08:18:20Z</time>
      </trkpt>
      <trkpt lat="43.275193003937602" lon="1.94533403031528">
        <ele>198.16999999999999</ele>
        <time>2025-04-26T08:18:26Z</time>
      </trkpt>
      <trkpt lat="43.275263998657465" lon="1.945246020331979">
        <ele>198.16999999999999</ele>
        <time>2025-04-26T08:18:35Z</time>
      </trkpt>
      <trkpt lat="43.275312026962638" lon="1.945181982591748">
        <ele>198.16999999999999</ele>
        <time>2025-04-26T08:18:36Z</time>
      </trkpt>
      <trkpt lat="43.275976963341236" lon="1.944284029304981">
        <ele>198.16999999999999</ele>
        <time>2025-04-26T08:18:45Z</time>
      </trkpt>
      <trkpt lat="43.276911964640021" lon="1.943175019696355">
        <ele>198.65000000000001</ele>
        <time>2025-04-26T08:18:54Z</time>
      </trkpt>
      <trkpt lat="43.27819699421525" lon="1.941611962392926">
        <ele>196.72999999999999</ele>
        <time>2025-04-26T08:19:05Z</time>
      </trkpt>
      <trkpt lat="43.279252024367452" lon="1.940590962767601">
        <ele>193.84</ele>
        <time>2025-04-26T08:19:13Z</time>
      </trkpt>
      <trkpt lat="43.279782012104988" lon="1.940095005556941">
        <ele>193.84</ele>
        <time>2025-04-26T08:19:17Z</time>
      </trkpt>
      <trkpt lat="43.279878990724683" lon="1.939957039430738">
        <ele>193.84</ele>
        <time>2025-04-26T08:19:18Z</time>
      </trkpt>
      <trkpt lat="43.279987033456564" lon="1.939801974222064">
        <ele>193.84</ele>
        <time>2025-04-26T08:19:19Z</time>
      </trkpt>
      <trkpt lat="43.280416019260883" lon="1.939059002324939">
        <ele>194.31999999999999</ele>
        <time>2025-04-26T08:19:25Z</time>
      </trkpt>
      <trkpt lat="43.280519032850862" lon="1.938870996236801">
        <ele>194.31999999999999</ele>
        <time>2025-04-26T08:19:31Z</time>
      </trkpt>
      <trkpt lat="43.280519032850862" lon="1.938870996236801">
        <ele>194.31999999999999</ele>
        <time>2025-04-26T08:20:10Z</time>
      </trkpt>
      <trkpt lat="43.280549040064216" lon="1.938815005123615">
        <ele>194.31999999999999</ele>
        <time>2025-04-26T08:20:24Z</time>
      </trkpt>
      <trkpt lat="43.280589021742344" lon="1.938743004575372">
        <ele>194.31999999999999</ele>
        <time>2025-04-26T08:20:25Z</time>
      </trkpt>
      <trkpt lat="43.281015995889902" lon="1.938083013519645">
        <ele>193.84</ele>
        <time>2025-04-26T08:20:31Z</time>
      </trkpt>
      <trkpt lat="43.281555958092213" lon="1.93738304078579">
        <ele>194.31999999999999</ele>
        <time>2025-04-26T08:20:36Z</time>
      </trkpt>
      <trkpt lat="43.281688978895545" lon="1.937274998053908">
        <ele>194.31999999999999</ele>
        <time>2025-04-26T08:20:37Z</time>
      </trkpt>
      <trkpt lat="43.282091980800033" lon="1.936947014182806">
        <ele>193.84</ele>
        <time>2025-04-26T08:20:40Z</time>
      </trkpt>
      <trkpt lat="43.28221301548183" lon="1.936817010864615">
        <ele>193.36000000000001</ele>
        <time>2025-04-26T08:20:41Z</time>
      </trkpt>
      <trkpt lat="43.283162014558911" lon="1.935403989627957">
        <ele>192.88</ele>
        <time>2025-04-26T08:20:50Z</time>
      </trkpt>
      <trkpt lat="43.283241977915168" lon="1.935217995196581">
        <ele>192.88</ele>
        <time>2025-04-26T08:20:51Z</time>
      </trkpt>
      <trkpt lat="43.283382961526513" lon="1.93485296331346">
        <ele>193.36000000000001</ele>
        <time>2025-04-26T08:20:53Z</time>
      </trkpt>
      <trkpt lat="43.283455967903137" lon="1.934697981923819">
        <ele>193.36000000000001</ele>
        <time>2025-04-26T08:20:54Z</time>
      </trkpt>
      <trkpt lat="43.283559987321496" lon="1.934568984434009">
        <ele>193.36000000000001</ele>
        <time>2025-04-26T08:20:55Z</time>
      </trkpt>
      <trkpt lat="43.283680016174912" lon="1.934448033571243">
        <ele>193.36000000000001</ele>
        <time>2025-04-26T08:20:56Z</time>
      </trkpt>
      <trkpt lat="43.283819993957877" lon="1.934326998889446">
        <ele>193.36000000000001</ele>
        <time>2025-04-26T08:20:57Z</time>
      </trkpt>
      <trkpt lat="43.285126984119415" lon="1.933229975402355">
        <ele>189.52000000000001</ele>
        <time>2025-04-26T08:21:05Z</time>
      </trkpt>
      <trkpt lat="43.287359001114964" lon="1.93111103028059">
        <ele>186.63</ele>
        <time>2025-04-26T08:21:19Z</time>
      </trkpt>
      <trkpt lat="43.289308967068791" lon="1.928615989163518">
        <ele>190.47999999999999</ele>
        <time>2025-04-26T08:21:34Z</time>
      </trkpt>
      <trkpt lat="43.291165977716446" lon="1.92707103677094">
        <ele>189.03999999999999</ele>
        <time>2025-04-26T08:21:46Z</time>
      </trkpt>
      <trkpt lat="43.291935017332435" lon="1.926424037665129">
        <ele>188.56</ele>
        <time>2025-04-26T08:21:53Z</time>
      </trkpt>
      <trkpt lat="43.292747978121042" lon="1.925553996115923">
        <ele>187.59</ele>
        <time>2025-04-26T08:22:02Z</time>
      </trkpt>
      <trkpt lat="43.292921986430883" lon="1.925348974764347">
        <ele>187.11000000000001</ele>
        <time>2025-04-26T08:22:04Z</time>
      </trkpt>
      <trkpt lat="43.293348960578442" lon="1.924841031432152">
        <ele>189.03999999999999</ele>
        <time>2025-04-26T08:22:11Z</time>
      </trkpt>
      <trkpt lat="43.293354995548725" lon="1.924834996461868">
        <ele>189.52000000000001</ele>
        <time>2025-04-26T08:22:14Z</time>
      </trkpt>
      <trkpt lat="43.293374022468925" lon="1.924813035875559">
        <ele>190</ele>
        <time>2025-04-26T08:22:15Z</time>
      </trkpt>
      <trkpt lat="43.293373016640544" lon="1.924740029498935">
        <ele>190</ele>
        <time>2025-04-26T08:22:16Z</time>
      </trkpt>
      <trkpt lat="43.293332029134035" lon="1.924698958173394">
        <ele>190.47999999999999</ele>
        <time>2025-04-26T08:22:17Z</time>
      </trkpt>
      <trkpt lat="43.293270003050566" lon="1.924640033394098">
        <ele>190.47999999999999</ele>
        <time>2025-04-26T08:22:18Z</time>
      </trkpt>
      <trkpt lat="43.293191967532039" lon="1.924581024795771">
        <ele>190.47999999999999</ele>
        <time>2025-04-26T08:22:19Z</time>
      </trkpt>
      <trkpt lat="43.292584028095007" lon="1.923951040953398">
        <ele>192.88</ele>
        <time>2025-04-26T08:22:25Z</time>
      </trkpt>
      <trkpt lat="43.291479963809252" lon="1.922826021909714">
        <ele>199.13</ele>
        <time>2025-04-26T08:22:34Z</time>
      </trkpt>
      <trkpt lat="43.290501963347197" lon="1.921813990920782">
        <ele>204.90000000000001</ele>
        <time>2025-04-26T08:22:43Z</time>
      </trkpt>
      <trkpt lat="43.289694031700492" lon="1.920984014868736">
        <ele>208.74000000000001</ele>
        <time>2025-04-26T08:22:52Z</time>
      </trkpt>
      <trkpt lat="43.289183992892504" lon="1.920457966625691">
        <ele>208.25999999999999</ele>
        <time>2025-04-26T08:22:59Z</time>
      </trkpt>
      <trkpt lat="43.289115009829402" lon="1.920395018532872">
        <ele>207.78</ele>
        <time>2025-04-26T08:23:00Z</time>
      </trkpt>
      <trkpt lat="43.288743020966649" lon="1.920002996921539">
        <ele>206.34</ele>
        <time>2025-04-26T08:23:05Z</time>
      </trkpt>
      <trkpt lat="43.288001976907253" lon="1.91925298422575">
        <ele>206.81999999999999</ele>
        <time>2025-04-26T08:23:14Z</time>
      </trkpt>
      <trkpt lat="43.28730502165854" lon="1.918358970433474">
        <ele>208.25999999999999</ele>
        <time>2025-04-26T08:23:22Z</time>
      </trkpt>
      <trkpt lat="43.286736980080605" lon="1.917107971385121">
        <ele>209.22</ele>
        <time>2025-04-26T08:23:31Z</time>
      </trkpt>
      <trkpt lat="43.286549979820848" lon="1.916517969220877">
        <ele>209.22</ele>
        <time>2025-04-26T08:23:35Z</time>
      </trkpt>
      <trkpt lat="43.286507986485958" lon="1.916368016973138">
        <ele>209.22</ele>
        <time>2025-04-26T08:23:36Z</time>
      </trkpt>
      <trkpt lat="43.286389969289303" lon="1.915884967893362">
        <ele>208.74000000000001</ele>
        <time>2025-04-26T08:23:39Z</time>
      </trkpt>
      <trkpt lat="43.286358034238219" lon="1.915709031745791">
        <ele>208.74000000000001</ele>
        <time>2025-04-26T08:23:40Z</time>
      </trkpt>
      <trkpt lat="43.286137003451586" lon="1.91428997553885">
        <ele>211.63</ele>
        <time>2025-04-26T08:23:48Z</time>
      </trkpt>
      <trkpt lat="43.286143038421869" lon="1.914090989157558">
        <ele>212.11000000000001</ele>
        <time>2025-04-26T08:23:49Z</time>
      </trkpt>
      <trkpt lat="43.28619098290801" lon="1.913682036101818">
        <ele>213.55000000000001</ele>
        <time>2025-04-26T08:23:51Z</time>
      </trkpt>
      <trkpt lat="43.286229958757758" lon="1.913475003093481">
        <ele>214.50999999999999</ele>
        <time>2025-04-26T08:23:52Z</time>
      </trkpt>
      <trkpt lat="43.286736980080605" lon="1.911766016855836">
        <ele>221.24000000000001</ele>
        <time>2025-04-26T08:24:00Z</time>
      </trkpt>
      <trkpt lat="43.287045015022159" lon="1.910380991175771">
        <ele>224.61000000000001</ele>
        <time>2025-04-26T08:24:06Z</time>
      </trkpt>
      <trkpt lat="43.287331005558372" lon="1.907896008342505">
        <ele>229.41</ele>
        <time>2025-04-26T08:24:16Z</time>
      </trkpt>
      <trkpt lat="43.287716992199421" lon="1.906166989356279">
        <ele>233.25999999999999</ele>
        <time>2025-04-26T08:24:23Z</time>
      </trkpt>
      <trkpt lat="43.28797398135066" lon="1.90315998159349">
        <ele>238.53999999999999</ele>
        <time>2025-04-26T08:24:34Z</time>
      </trkpt>
      <trkpt lat="43.288033995777369" lon="1.902907015755773">
        <ele>239.50999999999999</ele>
        <time>2025-04-26T08:24:35Z</time>
      </trkpt>
      <trkpt lat="43.288094010204077" lon="1.902656983584166">
        <ele>239.99000000000001</ele>
        <time>2025-04-26T08:24:36Z</time>
      </trkpt>
      <trkpt lat="43.288154024630785" lon="1.902405023574829">
        <ele>240.47</ele>
        <time>2025-04-26T08:24:37Z</time>
      </trkpt>
      <trkpt lat="43.288197023794055" lon="1.902143005281687">
        <ele>240.94999999999999</ele>
        <time>2025-04-26T08:24:38Z</time>
      </trkpt>
      <trkpt lat="43.288233987987041" lon="1.901875035837293">
        <ele>241.91</ele>
        <time>2025-04-26T08:24:39Z</time>
      </trkpt>
      <trkpt lat="43.288648976013064" lon="1.898332005366683">
        <ele>246.22999999999999</ele>
        <time>2025-04-26T08:24:52Z</time>
      </trkpt>
      <trkpt lat="43.288845028728247" lon="1.894881008192897">
        <ele>253.93000000000001</ele>
        <time>2025-04-26T08:25:05Z</time>
      </trkpt>
      <trkpt lat="43.289021970704198" lon="1.892860969528556">
        <ele>259.69</ele>
        <time>2025-04-26T08:25:13Z</time>
      </trkpt>
      <trkpt lat="43.289059018716216" lon="1.892609009519219">
        <ele>260.64999999999998</ele>
        <time>2025-04-26T08:25:14Z</time>
      </trkpt>
      <trkpt lat="43.289144011214375" lon="1.892373980954289">
        <ele>261.62</ele>
        <time>2025-04-26T08:25:15Z</time>
      </trkpt>
      <trkpt lat="43.290199041366577" lon="1.88941097818315">
        <ele>273.63</ele>
        <time>2025-04-26T08:25:27Z</time>
      </trkpt>
      <trkpt lat="43.290396016091108" lon="1.888704970479012">
        <ele>277.95999999999998</ele>
        <time>2025-04-26T08:25:30Z</time>
      </trkpt>
      <trkpt lat="43.29044203273952" lon="1.888486035168171">
        <ele>279.88</ele>
        <time>2025-04-26T08:25:31Z</time>
      </trkpt>
      <trkpt lat="43.290445972234011" lon="1.888266010209918">
        <ele>281.31999999999999</ele>
        <time>2025-04-26T08:25:32Z</time>
      </trkpt>
      <trkpt lat="43.290445972234011" lon="1.888041961938143">
        <ele>282.76999999999998</ele>
        <time>2025-04-26T08:25:33Z</time>
      </trkpt>
      <trkpt lat="43.290413031354547" lon="1.887825960293412">
        <ele>284.20999999999998</ele>
        <time>2025-04-26T08:25:34Z</time>
      </trkpt>
      <trkpt lat="43.290370032191277" lon="1.88760400749743">
        <ele>285.64999999999998</ele>
        <time>2025-04-26T08:25:35Z</time>
      </trkpt>
      <trkpt lat="43.290325021371245" lon="1.887373002246022">
        <ele>287.08999999999997</ele>
        <time>2025-04-26T08:25:36Z</time>
      </trkpt>
      <trkpt lat="43.290299037471414" lon="1.887138979509473">
        <ele>288.05000000000001</ele>
        <time>2025-04-26T08:25:37Z</time>
      </trkpt>
      <trkpt lat="43.290305994451046" lon="1.886896993964911">
        <ele>289.49000000000001</ele>
        <time>2025-04-26T08:25:38Z</time>
      </trkpt>
      <trkpt lat="43.290314041078091" lon="1.886646039783955">
        <ele>290.94</ele>
        <time>2025-04-26T08:25:39Z</time>
      </trkpt>
      <trkpt lat="43.290345976129174" lon="1.886398019269109">
        <ele>292.38</ele>
        <time>2025-04-26T08:25:40Z</time>
      </trkpt>
      <trkpt lat="43.290397021919489" lon="1.886151004582644">
        <ele>293.81999999999999</ele>
        <time>2025-04-26T08:25:41Z</time>
      </trkpt>
      <trkpt lat="43.290447983890772" lon="1.885899966582656">
        <ele>294.77999999999997</ele>
        <time>2025-04-26T08:25:42Z</time>
      </trkpt>
      <trkpt lat="43.2905069924891" lon="1.885650018230081">
        <ele>296.22000000000003</ele>
        <time>2025-04-26T08:25:43Z</time>
      </trkpt>
      <trkpt lat="43.290779991075397" lon="1.884781988337636">
        <ele>301.02999999999997</ele>
        <time>2025-04-26T08:25:47Z</time>
      </trkpt>
      <trkpt lat="43.29082902520895" lon="1.88457696698606">
        <ele>301.50999999999999</ele>
        <time>2025-04-26T08:25:48Z</time>
      </trkpt>
      <trkpt lat="43.290823996067047" lon="1.88436096534133">
        <ele>301.50999999999999</ele>
        <time>2025-04-26T08:25:49Z</time>
      </trkpt>
      <trkpt lat="43.290815027430654" lon="1.88414697535336">
        <ele>301.50999999999999</ele>
        <time>2025-04-26T08:25:50Z</time>
      </trkpt>
      <trkpt lat="43.290784014388919" lon="1.883967015892267">
        <ele>301.50999999999999</ele>
        <time>2025-04-26T08:25:51Z</time>
      </trkpt>
      <trkpt lat="43.290734980255365" lon="1.883819997310638">
        <ele>301.02999999999997</ele>
        <time>2025-04-26T08:25:52Z</time>
      </trkpt>
      <trkpt lat="43.290655016899109" lon="1.883708015084267">
        <ele>301.02999999999997</ele>
        <time>2025-04-26T08:25:53Z</time>
      </trkpt>
      <trkpt lat="43.290558038279414" lon="1.883592009544373">
        <ele>300.55000000000001</ele>
        <time>2025-04-26T08:25:54Z</time>
      </trkpt>
      <trkpt lat="43.290454018861055" lon="1.883468041196466">
        <ele>300.55000000000001</ele>
        <time>2025-04-26T08:25:55Z</time>
      </trkpt>
      <trkpt lat="43.290359973907471" lon="1.883330997079611">
        <ele>300.06999999999999</ele>
        <time>2025-04-26T08:25:56Z</time>
      </trkpt>
      <trkpt lat="43.290305994451046" lon="1.883164029568434">
        <ele>300.06999999999999</ele>
        <time>2025-04-26T08:25:57Z</time>
      </trkpt>
      <trkpt lat="43.290276993066072" lon="1.882992032915354">
        <ele>299.58999999999997</ele>
        <time>2025-04-26T08:25:58Z</time>
      </trkpt>
      <trkpt lat="43.290259977802634" lon="1.882798997685313">
        <ele>299.11000000000001</ele>
        <time>2025-04-26T08:25:59Z</time>
      </trkpt>
      <trkpt lat="43.290289985015988" lon="1.882590958848596">
        <ele>298.63</ele>
        <time>2025-04-26T08:26:00Z</time>
      </trkpt>
      <trkpt lat="43.290322003886104" lon="1.882365988567472">
        <ele>298.14999999999998</ele>
        <time>2025-04-26T08:26:01Z</time>
      </trkpt>
      <trkpt lat="43.29035603441298" lon="1.882127020508051">
        <ele>298.14999999999998</ele>
        <time>2025-04-26T08:26:02Z</time>
      </trkpt>
      <trkpt lat="43.290773034095764" lon="1.879825014621019">
        <ele>291.89999999999998</ele>
        <time>2025-04-26T08:26:11Z</time>
      </trkpt>
      <trkpt lat="43.290811004117131" lon="1.879408014938235">
        <ele>290.94</ele>
        <time>2025-04-26T08:26:13Z</time>
      </trkpt>
      <trkpt lat="43.290797006338835" lon="1.879211040213704">
        <ele>289.97000000000003</ele>
        <time>2025-04-26T08:26:14Z</time>
      </trkpt>
      <trkpt lat="43.290746966376901" lon="1.879030996933579">
        <ele>289.49000000000001</ele>
        <time>2025-04-26T08:26:15Z</time>
      </trkpt>
      <trkpt lat="43.290696004405618" lon="1.878843996673822">
        <ele>289.00999999999999</ele>
        <time>2025-04-26T08:26:16Z</time>
      </trkpt>
      <trkpt lat="43.290642024949193" lon="1.878649033606052">
        <ele>288.05000000000001</ele>
        <time>2025-04-26T08:26:17Z</time>
      </trkpt>
      <trkpt lat="43.290643030777574" lon="1.878442000597715">
        <ele>287.08999999999997</ele>
        <time>2025-04-26T08:26:18Z</time>
      </trkpt>
      <trkpt lat="43.290646970272064" lon="1.878218036144972">
        <ele>286.61000000000001</ele>
        <time>2025-04-26T08:26:19Z</time>
      </trkpt>
      <trkpt lat="43.290650993585587" lon="1.877976972609758">
        <ele>285.17000000000002</ele>
        <time>2025-04-26T08:26:20Z</time>
      </trkpt>
      <trkpt lat="43.290821984410286" lon="1.875575976446271">
        <ele>277.48000000000002</ele>
        <time>2025-04-26T08:26:29Z</time>
      </trkpt>
      <trkpt lat="43.291239989921451" lon="1.873361980542541">
        <ele>270.26999999999998</ele>
        <time>2025-04-26T08:26:38Z</time>
      </trkpt>
      <trkpt lat="43.291220040991902" lon="1.873157965019345">
        <ele>269.31</ele>
        <time>2025-04-26T08:26:39Z</time>
      </trkpt>
      <trkpt lat="43.291200008243322" lon="1.872958978638053">
        <ele>268.82999999999998</ele>
        <time>2025-04-26T08:26:40Z</time>
      </trkpt>
      <trkpt lat="43.291133036836982" lon="1.872772984206677">
        <ele>267.86000000000001</ele>
        <time>2025-04-26T08:26:41Z</time>
      </trkpt>
      <trkpt lat="43.291043015196919" lon="1.872619008645415">
        <ele>267.38</ele>
        <time>2025-04-26T08:26:42Z</time>
      </trkpt>
      <trkpt lat="43.290944024920464" lon="1.872477019205689">
        <ele>266.89999999999998</ele>
        <time>2025-04-26T08:26:43Z</time>
      </trkpt>
      <trkpt lat="43.290815027430654" lon="1.872365958988667">
        <ele>266.42000000000002</ele>
        <time>2025-04-26T08:26:44Z</time>
      </trkpt>
      <trkpt lat="43.290660968050361" lon="1.872293036431074">
        <ele>265.94</ele>
        <time>2025-04-26T08:26:45Z</time>
      </trkpt>
      <trkpt lat="43.290496012195945" lon="1.872233022004366">
        <ele>264.98000000000002</ele>
        <time>2025-04-26T08:26:46Z</time>
      </trkpt>
      <trkpt lat="43.288568006828427" lon="1.871527014300227">
        <ele>259.20999999999998</ele>
        <time>2025-04-26T08:26:56Z</time>
      </trkpt>
      <trkpt lat="43.286148989573121" lon="1.87067499384284">
        <ele>256.32999999999998</ele>
        <time>2025-04-26T08:27:08Z</time>
      </trkpt>
      <trkpt lat="43.284345036372542" lon="1.870044004172087">
        <ele>257.76999999999998</ele>
        <time>2025-04-26T08:27:17Z</time>
      </trkpt>
      <trkpt lat="43.283626958727837" lon="1.869853986427188">
        <ele>258.73000000000002</ele>
        <time>2025-04-26T08:27:21Z</time>
      </trkpt>
      <trkpt lat="43.283445993438363" lon="1.869843006134033">
        <ele>259.20999999999998</ele>
        <time>2025-04-26T08:27:22Z</time>
      </trkpt>
      <trkpt lat="43.282059039920568" lon="1.869926992803812">
        <ele>263.06</ele>
        <time>2025-04-26T08:27:30Z</time>
      </trkpt>
      <trkpt lat="43.281967006623745" lon="1.869871001690626">
        <ele>263.54000000000002</ele>
        <time>2025-04-26T08:27:31Z</time>
      </trkpt>
      <trkpt lat="43.281882014125586" lon="1.869800006970763">
        <ele>263.54000000000002</ele>
        <time>2025-04-26T08:27:32Z</time>
      </trkpt>
      <trkpt lat="43.281799033284187" lon="1.869730018079281">
        <ele>263.54000000000002</ele>
        <time>2025-04-26T08:27:33Z</time>
      </trkpt>
      <trkpt lat="43.281746981665492" lon="1.869652988389134">
        <ele>263.54000000000002</ele>
        <time>2025-04-26T08:27:34Z</time>
      </trkpt>
      <trkpt lat="43.281714962795377" lon="1.869509993121028">
        <ele>263.54000000000002</ele>
        <time>2025-04-26T08:27:35Z</time>
      </trkpt>
      <trkpt lat="43.281670035794377" lon="1.869306983426213">
        <ele>263.54000000000002</ele>
        <time>2025-04-26T08:27:36Z</time>
      </trkpt>
      <trkpt lat="43.281682021915913" lon="1.869176980108023">
        <ele>263.54000000000002</ele>
        <time>2025-04-26T08:27:37Z</time>
      </trkpt>
      <trkpt lat="43.2816999591887" lon="1.868975982069969">
        <ele>263.54000000000002</ele>
        <time>2025-04-26T08:27:38Z</time>
      </trkpt>
      <trkpt lat="43.281816970556974" lon="1.867161970585585">
        <ele>264.5</ele>
        <time>2025-04-26T08:27:45Z</time>
      </trkpt>
      <trkpt lat="43.281874973326921" lon="1.865521967411041">
        <ele>266.42000000000002</ele>
        <time>2025-04-26T08:27:51Z</time>
      </trkpt>
      <trkpt lat="43.281835997477174" lon="1.865305965766311">
        <ele>266.89999999999998</ele>
        <time>2025-04-26T08:27:52Z</time>
      </trkpt>
      <trkpt lat="43.281799033284187" lon="1.865101028233767">
        <ele>267.38</ele>
        <time>2025-04-26T08:27:53Z</time>
      </trkpt>
      <trkpt lat="43.281708005815744" lon="1.864933976903558">
        <ele>267.38</ele>
        <time>2025-04-26T08:27:54Z</time>
      </trkpt>
      <trkpt lat="43.28161203302443" lon="1.864758040755987">
        <ele>267.86000000000001</ele>
        <time>2025-04-26T08:27:55Z</time>
      </trkpt>
      <trkpt lat="43.281512036919594" lon="1.864574979990721">
        <ele>268.35000000000002</ele>
        <time>2025-04-26T08:27:56Z</time>
      </trkpt>
      <trkpt lat="43.281126972287893" lon="1.863784985616803">
        <ele>269.31</ele>
        <time>2025-04-26T08:28:00Z</time>
      </trkpt>
      <trkpt lat="43.281048014760017" lon="1.863598991185427">
        <ele>269.79000000000002</ele>
        <time>2025-04-26T08:28:01Z</time>
      </trkpt>
      <trkpt lat="43.281005015596747" lon="1.863363962620497">
        <ele>270.26999999999998</ele>
        <time>2025-04-26T08:28:02Z</time>
      </trkpt>
      <trkpt lat="43.280960004776716" lon="1.863123988732696">
        <ele>270.26999999999998</ele>
        <time>2025-04-26T08:28:03Z</time>
      </trkpt>
      <trkpt lat="43.280912982299924" lon="1.862868005409837">
        <ele>270.75</ele>
        <time>2025-04-26T08:28:04Z</time>
      </trkpt>
      <trkpt lat="43.280650964006782" lon="1.861550034955144">
        <ele>274.58999999999997</ele>
        <time>2025-04-26T08:28:09Z</time>
      </trkpt>
      <trkpt lat="43.280572006478906" lon="1.861317018046975">
        <ele>275.06999999999999</ele>
        <time>2025-04-26T08:28:10Z</time>
      </trkpt>
      <trkpt lat="43.280466981232166" lon="1.861106967553496">
        <ele>276.04000000000002</ele>
        <time>2025-04-26T08:28:11Z</time>
      </trkpt>
      <trkpt lat="43.280361033976078" lon="1.860894989222288">
        <ele>276.51999999999998</ele>
        <time>2025-04-26T08:28:12Z</time>
      </trkpt>
      <trkpt lat="43.280244022607803" lon="1.860732967033982">
        <ele>277.95999999999998</ele>
        <time>2025-04-26T08:28:13Z</time>
      </trkpt>
      <trkpt lat="43.28004302456975" lon="1.860403977334499">
        <ele>279.88</ele>
        <time>2025-04-26T08:28:15Z</time>
      </trkpt>
      <trkpt lat="43.279975969344378" lon="1.860226029530168">
        <ele>280.83999999999997</ele>
        <time>2025-04-26T08:28:16Z</time>
      </trkpt>
      <trkpt lat="43.2799609657377" lon="1.860036011785269">
        <ele>281.80000000000001</ele>
        <time>2025-04-26T08:28:17Z</time>
      </trkpt>
      <trkpt lat="43.279972029849887" lon="1.859835013747215">
        <ele>282.76999999999998</ele>
        <time>2025-04-26T08:28:18Z</time>
      </trkpt>
      <trkpt lat="43.280005976557732" lon="1.859625969082117">
        <ele>283.73000000000002</ele>
        <time>2025-04-26T08:28:19Z</time>
      </trkpt>
      <trkpt lat="43.280051993206143" lon="1.859402004629374">
        <ele>284.69</ele>
        <time>2025-04-26T08:28:20Z</time>
      </trkpt>
      <trkpt lat="43.280102033168077" lon="1.859162030741572">
        <ele>285.64999999999998</ele>
        <time>2025-04-26T08:28:21Z</time>
      </trkpt>
      <trkpt lat="43.28015299513936" lon="1.858911998569965">
        <ele>286.13</ele>
        <time>2025-04-26T08:28:22Z</time>
      </trkpt>
      <trkpt lat="43.280204040929675" lon="1.858661966398358">
        <ele>286.61000000000001</ele>
        <time>2025-04-26T08:28:23Z</time>
      </trkpt>
      <trkpt lat="43.280316023156047" lon="1.857902985066176">
        <ele>288.52999999999997</ele>
        <time>2025-04-26T08:28:26Z</time>
      </trkpt>
      <trkpt lat="43.280298002064228" lon="1.856314027681947">
        <ele>293.33999999999997</ele>
        <time>2025-04-26T08:28:32Z</time>
      </trkpt>
      <trkpt lat="43.280342007055879" lon="1.856075981631875">
        <ele>294.30000000000001</ele>
        <time>2025-04-26T08:28:33Z</time>
      </trkpt>
      <trkpt lat="43.280406966805458" lon="1.855837013572455">
        <ele>295.25999999999999</ele>
        <time>2025-04-26T08:28:34Z</time>
      </trkpt>
      <trkpt lat="43.280918011441827" lon="1.854200027883053">
        <ele>301.02999999999997</ele>
        <time>2025-04-26T08:28:42Z</time>
      </trkpt>
      <trkpt lat="43.280991017818451" lon="1.854035994037986">
        <ele>301.02999999999997</ele>
        <time>2025-04-26T08:28:43Z</time>
      </trkpt>
      <trkpt lat="43.2810989767313" lon="1.853891992941499">
        <ele>301.50999999999999</ele>
        <time>2025-04-26T08:28:44Z</time>
      </trkpt>
      <trkpt lat="43.281220011413097" lon="1.853742962703109">
        <ele>301.50999999999999</ele>
        <time>2025-04-26T08:28:45Z</time>
      </trkpt>
      <trkpt lat="43.281535003334284" lon="1.853270977735519">
        <ele>300.55000000000001</ele>
        <time>2025-04-26T08:28:48Z</time>
      </trkpt>
      <trkpt lat="43.281597029417753" lon="1.853103004395962">
        <ele>300.06999999999999</ele>
        <time>2025-04-26T08:28:49Z</time>
      </trkpt>
      <trkpt lat="43.281618990004063" lon="1.852951040491462">
        <ele>299.58999999999997</ele>
        <time>2025-04-26T08:28:50Z</time>
      </trkpt>
      <trkpt lat="43.281596023589373" lon="1.852762028574944">
        <ele>299.58999999999997</ele>
        <time>2025-04-26T08:28:51Z</time>
      </trkpt>
      <trkpt lat="43.28157096169889" lon="1.852558013051748">
        <ele>299.11000000000001</ele>
        <time>2025-04-26T08:28:52Z</time>
      </trkpt>
      <trkpt lat="43.281544977799058" lon="1.85234502889216">
        <ele>298.63</ele>
        <time>2025-04-26T08:28:53Z</time>
      </trkpt>
      <trkpt lat="43.281516982242465" lon="1.852120980620384">
        <ele>298.14999999999998</ele>
        <time>2025-04-26T08:28:54Z</time>
      </trkpt>
      <trkpt lat="43.281492004171014" lon="1.851886035874486">
        <ele>297.67000000000002</ele>
        <time>2025-04-26T08:28:55Z</time>
      </trkpt>
      <trkpt lat="43.281388990581036" lon="1.849801037460566">
        <ele>293.81999999999999</ele>
        <time>2025-04-26T08:29:03Z</time>
      </trkpt>
      <trkpt lat="43.281411034986377" lon="1.849567014724016">
        <ele>293.33999999999997</ele>
        <time>2025-04-26T08:29:04Z</time>
      </trkpt>
      <trkpt lat="43.281469959765673" lon="1.849355958402157">
        <ele>292.86000000000001</ele>
        <time>2025-04-26T08:29:05Z</time>
      </trkpt>
      <trkpt lat="43.281546989455819" lon="1.849163006991148">
        <ele>292.38</ele>
        <time>2025-04-26T08:29:06Z</time>
      </trkpt>
      <trkpt lat="43.281637011095881" lon="1.848970977589488">
        <ele>291.42000000000002</ele>
        <time>2025-04-26T08:29:07Z</time>
      </trkpt>
      <trkpt lat="43.281756034120917" lon="1.848819013684988">
        <ele>290.94</ele>
        <time>2025-04-26T08:29:08Z</time>
      </trkpt>
      <trkpt lat="43.281885031610727" lon="1.84869596734643">
        <ele>290.45999999999998</ele>
        <time>2025-04-26T08:29:09Z</time>
      </trkpt>
      <trkpt lat="43.282007994130254" lon="1.848578033968806">
        <ele>289.97000000000003</ele>
        <time>2025-04-26T08:29:10Z</time>
      </trkpt>
      <trkpt lat="43.28212701715529" lon="1.848464040085673">
        <ele>289.97000000000003</ele>
        <time>2025-04-26T08:29:11Z</time>
      </trkpt>
      <trkpt lat="43.282215027138591" lon="1.848314004018903">
        <ele>289.49000000000001</ele>
        <time>2025-04-26T08:29:12Z</time>
      </trkpt>
      <trkpt lat="43.282291973009706" lon="1.848171008750796">
        <ele>289.00999999999999</ele>
        <time>2025-04-26T08:29:13Z</time>
      </trkpt>
      <trkpt lat="43.282332960516214" lon="1.847959030419588">
        <ele>288.52999999999997</ele>
        <time>2025-04-26T08:29:14Z</time>
      </trkpt>
      <trkpt lat="43.282374031841755" lon="1.847745040431619">
        <ele>288.05000000000001</ele>
        <time>2025-04-26T08:29:15Z</time>
      </trkpt>
      <trkpt lat="43.282390041276813" lon="1.847515041008592">
        <ele>288.05000000000001</ele>
        <time>2025-04-26T08:29:16Z</time>
      </trkpt>
      <trkpt lat="43.282406972721219" lon="1.846454981714487">
        <ele>285.64999999999998</ele>
        <time>2025-04-26T08:29:21Z</time>
      </trkpt>
      <trkpt lat="43.282352993264794" lon="1.846262030303478">
        <ele>285.64999999999998</ele>
        <time>2025-04-26T08:29:22Z</time>
      </trkpt>
      <trkpt lat="43.282276969403028" lon="1.846096990630031">
        <ele>284.69</ele>
        <time>2025-04-26T08:29:23Z</time>
      </trkpt>
      <trkpt lat="43.28199801966548" lon="1.845554010942578">
        <ele>283.25</ele>
        <time>2025-04-26T08:29:26Z</time>
      </trkpt>
      <trkpt lat="43.281952003017068" lon="1.845140028744936">
        <ele>282.27999999999997</ele>
        <time>2025-04-26T08:29:28Z</time>
      </trkpt>
      <trkpt lat="43.281929958611727" lon="1.844926038756967">
        <ele>281.80000000000001</ele>
        <time>2025-04-26T08:29:29Z</time>
      </trkpt>
      <trkpt lat="43.281852006912231" lon="1.844521025195718">
        <ele>280.83999999999997</ele>
        <time>2025-04-26T08:29:31Z</time>
      </trkpt>
      <trkpt lat="43.281801966950297" lon="1.844362020492554">
        <ele>280.36000000000001</ele>
        <time>2025-04-26T08:29:32Z</time>
      </trkpt>
      <trkpt lat="43.281681016087532" lon="1.844233023002744">
        <ele>279.39999999999998</ele>
        <time>2025-04-26T08:29:33Z</time>
      </trkpt>
      <trkpt lat="43.281573979184031" lon="1.844133026897907">
        <ele>278.92000000000002</ele>
        <time>2025-04-26T08:29:34Z</time>
      </trkpt>
      <trkpt lat="43.281454034149647" lon="1.844080975279212">
        <ele>277.95999999999998</ele>
        <time>2025-04-26T08:29:35Z</time>
      </trkpt>
      <trkpt lat="43.281325036659837" lon="1.844025989994407">
        <ele>276.51999999999998</ele>
        <time>2025-04-26T08:29:36Z</time>
      </trkpt>
      <trkpt lat="43.281194027513266" lon="1.84396899305284">
        <ele>275.56</ele>
        <time>2025-04-26T08:29:37Z</time>
      </trkpt>
      <trkpt lat="43.281080033630133" lon="1.843889029696584">
        <ele>274.11000000000001</ele>
        <time>2025-04-26T08:29:38Z</time>
      </trkpt>
      <trkpt lat="43.281005015596747" lon="1.843815017491579">
        <ele>272.67000000000002</ele>
        <time>2025-04-26T08:29:39Z</time>
      </trkpt>
      <trkpt lat="43.280920023098588" lon="1.843657018616796">
        <ele>271.70999999999998</ele>
        <time>2025-04-26T08:29:40Z</time>
      </trkpt>
      <trkpt lat="43.280854979529977" lon="1.843535983934999">
        <ele>270.26999999999998</ele>
        <time>2025-04-26T08:29:41Z</time>
      </trkpt>
      <trkpt lat="43.280823966488242" lon="1.843354012817144">
        <ele>268.82999999999998</ele>
        <time>2025-04-26T08:29:42Z</time>
      </trkpt>
      <trkpt lat="43.280792031437159" lon="1.843157038092613">
        <ele>267.38</ele>
        <time>2025-04-26T08:29:43Z</time>
      </trkpt>
      <trkpt lat="43.280756995081902" lon="1.842950005084276">
        <ele>265.94</ele>
        <time>2025-04-26T08:29:44Z</time>
      </trkpt>
      <trkpt lat="43.280630009248853" lon="1.84229202568531">
        <ele>261.62</ele>
        <time>2025-04-26T08:29:47Z</time>
      </trkpt>
      <trkpt lat="43.280558008700609" lon="1.842094967141748">
        <ele>260.17000000000002</ele>
        <time>2025-04-26T08:29:48Z</time>
      </trkpt>
      <trkpt lat="43.280486008152366" lon="1.841898998245597">
        <ele>258.73000000000002</ele>
        <time>2025-04-26T08:29:49Z</time>
      </trkpt>
      <trkpt lat="43.280210997909307" lon="1.841154014691711">
        <ele>253.93000000000001</ele>
        <time>2025-04-26T08:29:53Z</time>
      </trkpt>
      <trkpt lat="43.280210997909307" lon="1.840945975854993">
        <ele>252.47999999999999</ele>
        <time>2025-04-26T08:29:54Z</time>
      </trkpt>
      <trkpt lat="43.280210997909307" lon="1.840737015008926">
        <ele>251.52000000000001</ele>
        <time>2025-04-26T08:29:55Z</time>
      </trkpt>
      <trkpt lat="43.280210997909307" lon="1.840316997841001">
        <ele>249.59999999999999</ele>
        <time>2025-04-26T08:29:57Z</time>
      </trkpt>
      <trkpt lat="43.280143020674586" lon="1.840106025338173">
        <ele>248.63999999999999</ele>
        <time>2025-04-26T08:29:58Z</time>
      </trkpt>
      <trkpt lat="43.280074959620833" lon="1.839917013421655">
        <ele>247.68000000000001</ele>
        <time>2025-04-26T08:29:59Z</time>
      </trkpt>
      <trkpt lat="43.279502978548408" lon="1.838299976661801">
        <ele>246.22999999999999</ele>
        <time>2025-04-26T08:30:07Z</time>
      </trkpt>
      <trkpt lat="43.279502978548408" lon="1.838064026087523">
        <ele>245.75</ele>
        <time>2025-04-26T08:30:08Z</time>
      </trkpt>
      <trkpt lat="43.279502978548408" lon="1.837857998907566">
        <ele>245.75</ele>
        <time>2025-04-26T08:30:09Z</time>
      </trkpt>
      <trkpt lat="43.279517982155085" lon="1.837659012526274">
        <ele>245.27000000000001</ele>
        <time>2025-04-26T08:30:10Z</time>
      </trkpt>
      <trkpt lat="43.279544971883297" lon="1.837471006438136">
        <ele>245.27000000000001</ele>
        <time>2025-04-26T08:30:11Z</time>
      </trkpt>
      <trkpt lat="43.279604986310005" lon="1.836972031742334">
        <ele>244.78999999999999</ele>
        <time>2025-04-26T08:30:14Z</time>
      </trkpt>
      <trkpt lat="43.279585037380457" lon="1.836819984018803">
        <ele>244.78999999999999</ele>
        <time>2025-04-26T08:30:15Z</time>
      </trkpt>
      <trkpt lat="43.279540026560426" lon="1.836667014285922">
        <ele>244.78999999999999</ele>
        <time>2025-04-26T08:30:16Z</time>
      </trkpt>
      <trkpt lat="43.27948696911335" lon="1.836515972390771">
        <ele>244.78999999999999</ele>
        <time>2025-04-26T08:30:17Z</time>
      </trkpt>
      <trkpt lat="43.279403988271952" lon="1.83638596907258">
        <ele>244.78999999999999</ele>
        <time>2025-04-26T08:30:18Z</time>
      </trkpt>
      <trkpt lat="43.279312960803509" lon="1.836241967976093">
        <ele>244.31</ele>
        <time>2025-04-26T08:30:19Z</time>
      </trkpt>
      <trkpt lat="43.279116991907358" lon="1.835934016853571">
        <ele>243.83000000000001</ele>
        <time>2025-04-26T08:30:21Z</time>
      </trkpt>
      <trkpt lat="43.279022024944425" lon="1.835759002715349">
        <ele>243.83000000000001</ele>
        <time>2025-04-26T08:30:22Z</time>
      </trkpt>
      <trkpt lat="43.278944995254278" lon="1.835575019940734">
        <ele>243.34999999999999</ele>
        <time>2025-04-26T08:30:23Z</time>
      </trkpt>
      <trkpt lat="43.278899984434247" lon="1.835337979719043">
        <ele>243.34999999999999</ele>
        <time>2025-04-26T08:30:24Z</time>
      </trkpt>
      <trkpt lat="43.278856985270977" lon="1.835104962810874">
        <ele>243.34999999999999</ele>
        <time>2025-04-26T08:30:25Z</time>
      </trkpt>
      <trkpt lat="43.278811974450946" lon="1.834864988923073">
        <ele>242.87</ele>
        <time>2025-04-26T08:30:26Z</time>
      </trkpt>
      <trkpt lat="43.278594966977835" lon="1.832745959982276">
        <ele>241.43000000000001</ele>
        <time>2025-04-26T08:30:34Z</time>
      </trkpt>
      <trkpt lat="43.278390029445291" lon="1.831069998443127">
        <ele>240.94999999999999</ele>
        <time>2025-04-26T08:30:41Z</time>
      </trkpt>
      <trkpt lat="43.278314005583525" lon="1.830859025940299">
        <ele>241.43000000000001</ele>
        <time>2025-04-26T08:30:42Z</time>
      </trkpt>
      <trkpt lat="43.277404988184571" lon="1.828784001991153">
        <ele>242.87</ele>
        <time>2025-04-26T08:30:51Z</time>
      </trkpt>
      <trkpt lat="43.27699201181531" lon="1.827893005684018">
        <ele>243.34999999999999</ele>
        <time>2025-04-26T08:30:55Z</time>
      </trkpt>
      <trkpt lat="43.276882963255048" lon="1.827753027901053">
        <ele>243.83000000000001</ele>
        <time>2025-04-26T08:30:56Z</time>
      </trkpt>
      <trkpt lat="43.276754971593618" lon="1.827640039846301">
        <ele>243.83000000000001</ele>
        <time>2025-04-26T08:30:57Z</time>
      </trkpt>
      <trkpt lat="43.27660602517426" lon="1.827536020427942">
        <ele>243.83000000000001</ele>
        <time>2025-04-26T08:30:58Z</time>
      </trkpt>
      <trkpt lat="43.276447020471096" lon="1.827424960210919">
        <ele>244.31</ele>
        <time>2025-04-26T08:30:59Z</time>
      </trkpt>
      <trkpt lat="43.275012038648129" lon="1.826772009953857">
        <ele>245.27000000000001</ele>
        <time>2025-04-26T08:31:07Z</time>
      </trkpt>
      <trkpt lat="43.274603001773357" lon="1.826529018580914">
        <ele>244.78999999999999</ele>
        <time>2025-04-26T08:31:10Z</time>
      </trkpt>
      <trkpt lat="43.274474004283547" lon="1.826444026082754">
        <ele>244.31</ele>
        <time>2025-04-26T08:31:11Z</time>
      </trkpt>
      <trkpt lat="43.274376019835472" lon="1.826297007501125">
        <ele>243.83000000000001</ele>
        <time>2025-04-26T08:31:12Z</time>
      </trkpt>
      <trkpt lat="43.27357797883451" lon="1.824927991256118">
        <ele>239.50999999999999</ele>
        <time>2025-04-26T08:31:19Z</time>
      </trkpt>
      <trkpt lat="43.272749008610845" lon="1.823411034420133">
        <ele>236.13999999999999</ele>
        <time>2025-04-26T08:31:26Z</time>
      </trkpt>
      <trkpt lat="43.272672984749079" lon="1.823216993361712">
        <ele>235.66</ele>
        <time>2025-04-26T08:31:27Z</time>
      </trkpt>
      <trkpt lat="43.272619005292654" lon="1.823013983666897">
        <ele>235.18000000000001</ele>
        <time>2025-04-26T08:31:28Z</time>
      </trkpt>
      <trkpt lat="43.272607019171119" lon="1.822803011164069">
        <ele>234.69999999999999</ele>
        <time>2025-04-26T08:31:29Z</time>
      </trkpt>
      <trkpt lat="43.272597966715693" lon="1.82259296067059">
        <ele>234.22</ele>
        <time>2025-04-26T08:31:30Z</time>
      </trkpt>
      <trkpt lat="43.272612970322371" lon="1.82237695902586">
        <ele>234.22</ele>
        <time>2025-04-26T08:31:31Z</time>
      </trkpt>
      <trkpt lat="43.27265202999115" lon="1.822156012058258">
        <ele>233.74000000000001</ele>
        <time>2025-04-26T08:31:32Z</time>
      </trkpt>
      <trkpt lat="43.272722018882632" lon="1.821947973221541">
        <ele>233.25999999999999</ele>
        <time>2025-04-26T08:31:33Z</time>
      </trkpt>
      <trkpt lat="43.272796031087637" lon="1.821746975183487">
        <ele>233.25999999999999</ele>
        <time>2025-04-26T08:31:34Z</time>
      </trkpt>
      <trkpt lat="43.272901978343725" lon="1.821577996015549">
        <ele>232.78</ele>
        <time>2025-04-26T08:31:35Z</time>
      </trkpt>
      <trkpt lat="43.27301999554038" lon="1.821405999362469">
        <ele>232.78</ele>
        <time>2025-04-26T08:31:36Z</time>
      </trkpt>
      <trkpt lat="43.273144969716668" lon="1.821225034072995">
        <ele>232.78</ele>
        <time>2025-04-26T08:31:37Z</time>
      </trkpt>
      <trkpt lat="43.273546965792775" lon="1.820679036900401">
        <ele>231.81</ele>
        <time>2025-04-26T08:31:40Z</time>
      </trkpt>
      <trkpt lat="43.273686021566391" lon="1.820520032197237">
        <ele>231.81</ele>
        <time>2025-04-26T08:31:41Z</time>
      </trkpt>
      <trkpt lat="43.27383597381413" lon="1.820390028879046">
        <ele>231.33000000000001</ele>
        <time>2025-04-26T08:31:42Z</time>
      </trkpt>
      <trkpt lat="43.27430997043848" lon="1.820018040016294">
        <ele>231.33000000000001</ele>
        <time>2025-04-26T08:31:45Z</time>
      </trkpt>
      <trkpt lat="43.27445900067687" lon="1.81986004114151">
        <ele>231.33000000000001</ele>
        <time>2025-04-26T08:31:46Z</time>
      </trkpt>
      <trkpt lat="43.274591015651822" lon="1.819664994254708">
        <ele>231.33000000000001</ele>
        <time>2025-04-26T08:31:47Z</time>
      </trkpt>
      <trkpt lat="43.275417974218726" lon="1.818059021607041">
        <ele>233.25999999999999</ele>
        <time>2025-04-26T08:31:54Z</time>
      </trkpt>
      <trkpt lat="43.27585500665009" lon="1.816455982625485">
        <ele>236.13999999999999</ele>
        <time>2025-04-26T08:32:01Z</time>
      </trkpt>
      <trkpt lat="43.27594100497663" lon="1.816263031214476">
        <ele>236.13999999999999</ele>
        <time>2025-04-26T08:32:02Z</time>
      </trkpt>
      <trkpt lat="43.276011999696493" lon="1.816204022616148">
        <ele>236.62</ele>
        <time>2025-04-26T08:32:03Z</time>
      </trkpt>
      <trkpt lat="43.276121970266104" lon="1.816114000976086">
        <ele>237.09999999999999</ele>
        <time>2025-04-26T08:32:04Z</time>
      </trkpt>
      <trkpt lat="43.276350041851401" lon="1.815924989059568">
        <ele>237.58000000000001</ele>
        <time>2025-04-26T08:32:06Z</time>
      </trkpt>
      <trkpt lat="43.276482978835702" lon="1.81575802154839">
        <ele>238.06</ele>
        <time>2025-04-26T08:32:07Z</time>
      </trkpt>
      <trkpt lat="43.27654198743403" lon="1.81552198715508">
        <ele>239.02000000000001</ele>
        <time>2025-04-26T08:32:08Z</time>
      </trkpt>
      <trkpt lat="43.27654198743403" lon="1.815379997715354">
        <ele>239.50999999999999</ele>
        <time>2025-04-26T08:32:09Z</time>
      </trkpt>
      <trkpt lat="43.276504017412663" lon="1.815184028819203">
        <ele>239.99000000000001</ele>
        <time>2025-04-26T08:32:10Z</time>
      </trkpt>
      <trkpt lat="43.27645598910749" lon="1.815067017450929">
        <ele>240.94999999999999</ele>
        <time>2025-04-26T08:32:11Z</time>
      </trkpt>
      <trkpt lat="43.276409972459078" lon="1.814956963062286">
        <ele>241.43000000000001</ele>
        <time>2025-04-26T08:32:12Z</time>
      </trkpt>
      <trkpt lat="43.276321040466428" lon="1.814880017191172">
        <ele>241.91</ele>
        <time>2025-04-26T08:32:13Z</time>
      </trkpt>
      <trkpt lat="43.27622096054256" lon="1.814835006371141">
        <ele>242.38999999999999</ele>
        <time>2025-04-26T08:32:14Z</time>
      </trkpt>
      <trkpt lat="43.276095986366272" lon="1.814780021086335">
        <ele>242.87</ele>
        <time>2025-04-26T08:32:15Z</time>
      </trkpt>
      <trkpt lat="43.275964977219701" lon="1.814711038023233">
        <ele>243.34999999999999</ele>
        <time>2025-04-26T08:32:16Z</time>
      </trkpt>
      <trkpt lat="43.275829022750258" lon="1.814613975584507">
        <ele>243.83000000000001</ele>
        <time>2025-04-26T08:32:17Z</time>
      </trkpt>
      <trkpt lat="43.27570497058332" lon="1.814524959772825">
        <ele>244.31</ele>
        <time>2025-04-26T08:32:18Z</time>
      </trkpt>
      <trkpt lat="43.275581002235413" lon="1.814387999475002">
        <ele>244.78999999999999</ele>
        <time>2025-04-26T08:32:19Z</time>
      </trkpt>
      <trkpt lat="43.275486035272479" lon="1.814266964793205">
        <ele>245.27000000000001</ele>
        <time>2025-04-26T08:32:20Z</time>
      </trkpt>
      <trkpt lat="43.275407999753952" lon="1.814137967303395">
        <ele>245.27000000000001</ele>
        <time>2025-04-26T08:32:21Z</time>
      </trkpt>
      <trkpt lat="43.275373969227076" lon="1.813989020884037">
        <ele>245.75</ele>
        <time>2025-04-26T08:32:22Z</time>
      </trkpt>
      <trkpt lat="43.275357959792018" lon="1.813809983432293">
        <ele>246.72</ele>
        <time>2025-04-26T08:32:23Z</time>
      </trkpt>
      <trkpt lat="43.275340022519231" lon="1.813602028414607">
        <ele>247.68000000000001</ele>
        <time>2025-04-26T08:32:24Z</time>
      </trkpt>
      <trkpt lat="43.275351002812386" lon="1.813423996791244">
        <ele>248.16</ele>
        <time>2025-04-26T08:32:25Z</time>
      </trkpt>
      <trkpt lat="43.275365000590682" lon="1.8132000323385">
        <ele>249.12</ele>
        <time>2025-04-26T08:32:26Z</time>
      </trkpt>
      <trkpt lat="43.275380004197359" lon="1.812957040965557">
        <ele>249.59999999999999</ele>
        <time>2025-04-26T08:32:27Z</time>
      </trkpt>
      <trkpt lat="43.275385033339262" lon="1.811480987817049">
        <ele>254.88999999999999</ele>
        <time>2025-04-26T08:32:33Z</time>
      </trkpt>
      <trkpt lat="43.275275984779" lon="1.810297966003418">
        <ele>258.73000000000002</ele>
        <time>2025-04-26T08:32:39Z</time>
      </trkpt>
      <trkpt lat="43.27531898394227" lon="1.810104008764029">
        <ele>259.20999999999998</ele>
        <time>2025-04-26T08:32:40Z</time>
      </trkpt>
      <trkpt lat="43.275366006419063" lon="1.809897981584072">
        <ele>259.20999999999998</ele>
        <time>2025-04-26T08:32:41Z</time>
      </trkpt>
      <trkpt lat="43.275586031377316" lon="1.809258023276925">
        <ele>259.20999999999998</ele>
        <time>2025-04-26T08:32:44Z</time>
      </trkpt>
      <trkpt lat="43.275667000561953" lon="1.809021988883615">
        <ele>259.20999999999998</ele>
        <time>2025-04-26T08:32:45Z</time>
      </trkpt>
      <trkpt lat="43.275824999436736" lon="1.808561990037561">
        <ele>258.73000000000002</ele>
        <time>2025-04-26T08:32:47Z</time>
      </trkpt>
      <trkpt lat="43.27591803856194" lon="1.808360991999507">
        <ele>258.25</ele>
        <time>2025-04-26T08:32:48Z</time>
      </trkpt>
      <trkpt lat="43.276033038273454" lon="1.808205004781485">
        <ele>257.76999999999998</ele>
        <time>2025-04-26T08:32:49Z</time>
      </trkpt>
      <trkpt lat="43.276220038533211" lon="1.80800199508667">
        <ele>257.76999999999998</ele>
        <time>2025-04-26T08:32:51Z</time>
      </trkpt>
      <trkpt lat="43.27630402520299" lon="1.807819018140435">
        <ele>257.29000000000002</ele>
        <time>2025-04-26T08:32:52Z</time>
      </trkpt>
      <trkpt lat="43.276349036023021" lon="1.807687003165484">
        <ele>257.29000000000002</ele>
        <time>2025-04-26T08:32:53Z</time>
      </trkpt>
      <trkpt lat="43.276349036023021" lon="1.807494973763824">
        <ele>257.29000000000002</ele>
        <time>2025-04-26T08:32:54Z</time>
      </trkpt>
      <trkpt lat="43.276349036023021" lon="1.807282995432615">
        <ele>256.81</ele>
        <time>2025-04-26T08:32:55Z</time>
      </trkpt>
      <trkpt lat="43.276349036023021" lon="1.807054001837969">
        <ele>256.81</ele>
        <time>2025-04-26T08:32:56Z</time>
      </trkpt>
      <trkpt lat="43.276316011324525" lon="1.805542996153235">
        <ele>254.88999999999999</ele>
        <time>2025-04-26T08:33:02Z</time>
      </trkpt>
      <trkpt lat="43.276269994676113" lon="1.805288018658757">
        <ele>254.41</ele>
        <time>2025-04-26T08:33:03Z</time>
      </trkpt>
      <trkpt lat="43.27604703605175" lon="1.804032996296883">
        <ele>252.96000000000001</ele>
        <time>2025-04-26T08:33:08Z</time>
      </trkpt>
      <trkpt lat="43.27600596472621" lon="1.80379101075232">
        <ele>252</ele>
        <time>2025-04-26T08:33:09Z</time>
      </trkpt>
      <trkpt lat="43.276017028838396" lon="1.803542990237474">
        <ele>251.52000000000001</ele>
        <time>2025-04-26T08:33:10Z</time>
      </trkpt>
      <trkpt lat="43.276062961667776" lon="1.80280202999711">
        <ele>250.08000000000001</ele>
        <time>2025-04-26T08:33:13Z</time>
      </trkpt>
      <trkpt lat="43.276109984144568" lon="1.802568007260561">
        <ele>249.59999999999999</ele>
        <time>2025-04-26T08:33:14Z</time>
      </trkpt>
      <trkpt lat="43.276190031319857" lon="1.802359968423843">
        <ele>248.63999999999999</ele>
        <time>2025-04-26T08:33:15Z</time>
      </trkpt>
      <trkpt lat="43.276274017989635" lon="1.802142960950732">
        <ele>248.16</ele>
        <time>2025-04-26T08:33:16Z</time>
      </trkpt>
      <trkpt lat="43.276363033801317" lon="1.801920002326369">
        <ele>247.19999999999999</ele>
        <time>2025-04-26T08:33:17Z</time>
      </trkpt>
      <trkpt lat="43.276751032099128" lon="1.801121961325407">
        <ele>245.27000000000001</ele>
        <time>2025-04-26T08:33:21Z</time>
      </trkpt>
      <trkpt lat="43.276879023760557" lon="1.801005033776164">
        <ele>244.78999999999999</ele>
        <time>2025-04-26T08:33:22Z</time>
      </trkpt>
      <trkpt lat="43.277013972401619" lon="1.800906965509057">
        <ele>244.31</ele>
        <time>2025-04-26T08:33:23Z</time>
      </trkpt>
      <trkpt lat="43.277170965448022" lon="1.800857009366155">
        <ele>243.83000000000001</ele>
        <time>2025-04-26T08:33:24Z</time>
      </trkpt>
      <trkpt lat="43.277341034263372" lon="1.80080302990973">
        <ele>242.87</ele>
        <time>2025-04-26T08:33:25Z</time>
      </trkpt>
      <trkpt lat="43.277819976210594" lon="1.800650982186198">
        <ele>241.43000000000001</ele>
        <time>2025-04-26T08:33:28Z</time>
      </trkpt>
      <trkpt lat="43.277932964265347" lon="1.800595996901393">
        <ele>240.47</ele>
        <time>2025-04-26T08:33:29Z</time>
      </trkpt>
      <trkpt lat="43.278003958985209" lon="1.800496000796557">
        <ele>239.99000000000001</ele>
        <time>2025-04-26T08:33:30Z</time>
      </trkpt>
      <trkpt lat="43.278041006997228" lon="1.800377983599901">
        <ele>239.50999999999999</ele>
        <time>2025-04-26T08:33:31Z</time>
      </trkpt>
      <trkpt lat="43.278064979240298" lon="1.800230965018272">
        <ele>239.02000000000001</ele>
        <time>2025-04-26T08:33:32Z</time>
      </trkpt>
      <trkpt lat="43.278060033917427" lon="1.800055028870702">
        <ele>238.53999999999999</ele>
        <time>2025-04-26T08:33:33Z</time>
      </trkpt>
      <trkpt lat="43.278056010603905" lon="1.799857970327139">
        <ele>238.06</ele>
        <time>2025-04-26T08:33:34Z</time>
      </trkpt>
      <trkpt lat="43.27804503031075" lon="1.798576964065433">
        <ele>234.69999999999999</ele>
        <time>2025-04-26T08:33:40Z</time>
      </trkpt>
      <trkpt lat="43.278081994503736" lon="1.798391975462437">
        <ele>233.74000000000001</ele>
        <time>2025-04-26T08:33:41Z</time>
      </trkpt>
      <trkpt lat="43.278158018365502" lon="1.79822601377964">
        <ele>233.25999999999999</ele>
        <time>2025-04-26T08:33:42Z</time>
      </trkpt>
      <trkpt lat="43.278236975893378" lon="1.798067009076476">
        <ele>232.78</ele>
        <time>2025-04-26T08:33:43Z</time>
      </trkpt>
      <trkpt lat="43.278320040553808" lon="1.797900041565299">
        <ele>232.30000000000001</ele>
        <time>2025-04-26T08:33:44Z</time>
      </trkpt>
      <trkpt lat="43.278736034408212" lon="1.797271985560656">
        <ele>229.88999999999999</ele>
        <time>2025-04-26T08:33:48Z</time>
      </trkpt>
      <trkpt lat="43.278874000534415" lon="1.797147011384368">
        <ele>229.41</ele>
        <time>2025-04-26T08:33:49Z</time>
      </trkpt>
      <trkpt lat="43.279525022953749" lon="1.796535970643163">
        <ele>225.56999999999999</ele>
        <time>2025-04-26T08:33:54Z</time>
      </trkpt>
      <trkpt lat="43.279620995745063" lon="1.796403033658862">
        <ele>225.09</ele>
        <time>2025-04-26T08:33:55Z</time>
      </trkpt>
      <trkpt lat="43.279674975201488" lon="1.796230031177402">
        <ele>225.09</ele>
        <time>2025-04-26T08:33:56Z</time>
      </trkpt>
      <trkpt lat="43.279739012941718" lon="1.796029033139348">
        <ele>224.61000000000001</ele>
        <time>2025-04-26T08:33:57Z</time>
      </trkpt>
      <trkpt lat="43.27976600266993" lon="1.795878997072578">
        <ele>224.61000000000001</ele>
        <time>2025-04-26T08:33:58Z</time>
      </trkpt>
      <trkpt lat="43.279796009883285" lon="1.795713035389781">
        <ele>224.12</ele>
        <time>2025-04-26T08:33:59Z</time>
      </trkpt>
      <trkpt lat="43.279824005439878" lon="1.795555958524346">
        <ele>223.63999999999999</ele>
        <time>2025-04-26T08:34:00Z</time>
      </trkpt>
      <trkpt lat="43.279881002381444" lon="1.795241972431541">
        <ele>223.16</ele>
        <time>2025-04-26T08:34:02Z</time>
      </trkpt>
      <trkpt lat="43.279974963515997" lon="1.794277969747782">
        <ele>221.72</ele>
        <time>2025-04-26T08:34:10Z</time>
      </trkpt>
      <trkpt lat="43.279993990436196" lon="1.79405702278018">
        <ele>221.72</ele>
        <time>2025-04-26T08:34:12Z</time>
      </trkpt>
      <trkpt lat="43.280026009306312" lon="1.793920984491706">
        <ele>221.72</ele>
        <time>2025-04-26T08:34:13Z</time>
      </trkpt>
      <trkpt lat="43.280063979327679" lon="1.793781006708741">
        <ele>221.72</ele>
        <time>2025-04-26T08:34:14Z</time>
      </trkpt>
      <trkpt lat="43.280146960169077" lon="1.793274991214275">
        <ele>222.19999999999999</ele>
        <time>2025-04-26T08:34:17Z</time>
      </trkpt>
      <trkpt lat="43.280162969604135" lon="1.793080028146505">
        <ele>222.68000000000001</ele>
        <time>2025-04-26T08:34:18Z</time>
      </trkpt>
      <trkpt lat="43.280143020674586" lon="1.792877018451691">
        <ele>223.16</ele>
        <time>2025-04-26T08:34:19Z</time>
      </trkpt>
      <trkpt lat="43.279954008758068" lon="1.79152300581336">
        <ele>227.00999999999999</ele>
        <time>2025-04-26T08:34:25Z</time>
      </trkpt>
      <trkpt lat="43.279869016259909" lon="1.791327958926559">
        <ele>227.97</ele>
        <time>2025-04-26T08:34:26Z</time>
      </trkpt>
      <trkpt lat="43.279329976066947" lon="1.790173016488552">
        <ele>232.78</ele>
        <time>2025-04-26T08:34:32Z</time>
      </trkpt>
      <trkpt lat="43.279223022982478" lon="1.790028009563685">
        <ele>233.74000000000001</ele>
        <time>2025-04-26T08:34:33Z</time>
      </trkpt>
      <trkpt lat="43.279091008007526" lon="1.789943017065525">
        <ele>234.22</ele>
        <time>2025-04-26T08:34:34Z</time>
      </trkpt>
      <trkpt lat="43.278950024396181" lon="1.789878979325295">
        <ele>235.18000000000001</ele>
        <time>2025-04-26T08:34:35Z</time>
      </trkpt>
      <trkpt lat="43.278796970844269" lon="1.78984603844583">
        <ele>236.13999999999999</ele>
        <time>2025-04-26T08:34:36Z</time>
      </trkpt>
      <trkpt lat="43.278638971969485" lon="1.789830029010773">
        <ele>237.58000000000001</ele>
        <time>2025-04-26T08:34:37Z</time>
      </trkpt>
      <trkpt lat="43.278472004458308" lon="1.789834974333644">
        <ele>238.53999999999999</ele>
        <time>2025-04-26T08:34:38Z</time>
      </trkpt>
      <trkpt lat="43.278314005583525" lon="1.789840003475547">
        <ele>239.99000000000001</ele>
        <time>2025-04-26T08:34:39Z</time>
      </trkpt>
      <trkpt lat="43.27817696146667" lon="1.789844026789069">
        <ele>241.43000000000001</ele>
        <time>2025-04-26T08:34:40Z</time>
      </trkpt>
      <trkpt lat="43.278056010603905" lon="1.78984796628356">
        <ele>242.87</ele>
        <time>2025-04-26T08:34:41Z</time>
      </trkpt>
      <trkpt lat="43.277957020327449" lon="1.789809996262193">
        <ele>243.83000000000001</ele>
        <time>2025-04-26T08:34:42Z</time>
      </trkpt>
      <trkpt lat="43.277915026992559" lon="1.789784012362361">
        <ele>245.27000000000001</ele>
        <time>2025-04-26T08:34:43Z</time>
      </trkpt>
      <trkpt lat="43.277854006737471" lon="1.789646968245506">
        <ele>246.72</ele>
        <time>2025-04-26T08:34:44Z</time>
      </trkpt>
      <trkpt lat="43.277820982038975" lon="1.789531968533993">
        <ele>248.16</ele>
        <time>2025-04-26T08:34:45Z</time>
      </trkpt>
      <trkpt lat="43.277797009795904" lon="1.789362989366055">
        <ele>249.12</ele>
        <time>2025-04-26T08:34:46Z</time>
      </trkpt>
      <trkpt lat="43.277770020067692" lon="1.789176994934678">
        <ele>250.08000000000001</ele>
        <time>2025-04-26T08:34:47Z</time>
      </trkpt>
      <trkpt lat="43.277685027569532" lon="1.788581041619182">
        <ele>253.44</ele>
        <time>2025-04-26T08:34:50Z</time>
      </trkpt>
      <trkpt lat="43.277652002871037" lon="1.788376020267606">
        <ele>254.41</ele>
        <time>2025-04-26T08:34:51Z</time>
      </trkpt>
      <trkpt lat="43.277575979009271" lon="1.78819103166461">
        <ele>254.88999999999999</ele>
        <time>2025-04-26T08:34:52Z</time>
      </trkpt>
      <trkpt lat="43.277491992339492" lon="1.788003025576472">
        <ele>255.37</ele>
        <time>2025-04-26T08:34:53Z</time>
      </trkpt>
      <trkpt lat="43.277385039255023" lon="1.787857012823224">
        <ele>255.37</ele>
        <time>2025-04-26T08:34:54Z</time>
      </trkpt>
      <trkpt lat="43.277056971564889" lon="1.787402965128422">
        <ele>255.84999999999999</ele>
        <time>2025-04-26T08:34:57Z</time>
      </trkpt>
      <trkpt lat="43.277011960744858" lon="1.787235997617245">
        <ele>255.84999999999999</ele>
        <time>2025-04-26T08:34:58Z</time>
      </trkpt>
      <trkpt lat="43.27697298489511" lon="1.787066012620926">
        <ele>255.84999999999999</ele>
        <time>2025-04-26T08:34:59Z</time>
      </trkpt>
      <trkpt lat="43.27699301764369" lon="1.786884963512421">
        <ele>255.84999999999999</ele>
        <time>2025-04-26T08:35:00Z</time>
      </trkpt>
      <trkpt lat="43.27701497823" lon="1.786691006273031">
        <ele>255.84999999999999</ele>
        <time>2025-04-26T08:35:01Z</time>
      </trkpt>
      <trkpt lat="43.277088990435004" lon="1.786506017670035">
        <ele>256.32999999999998</ele>
        <time>2025-04-26T08:35:02Z</time>
      </trkpt>
      <trkpt lat="43.277167025953531" lon="1.786310970783234">
        <ele>256.81</ele>
        <time>2025-04-26T08:35:03Z</time>
      </trkpt>
      <trkpt lat="43.277675975114107" lon="1.784940026700497">
        <ele>259.69</ele>
        <time>2025-04-26T08:35:09Z</time>
      </trkpt>
      <trkpt lat="43.27793899923563" lon="1.783699002116919">
        <ele>263.06</ele>
        <time>2025-04-26T08:35:14Z</time>
      </trkpt>
      <trkpt lat="43.2779819983989" lon="1.783462967723608">
        <ele>264.01999999999998</ele>
        <time>2025-04-26T08:35:15Z</time>
      </trkpt>
      <trkpt lat="43.27802499756217" lon="1.783223999664187">
        <ele>264.98000000000002</ele>
        <time>2025-04-26T08:35:16Z</time>
      </trkpt>
      <trkpt lat="43.278164975345135" lon="1.782224038615823">
        <ele>267.86000000000001</ele>
        <time>2025-04-26T08:35:20Z</time>
      </trkpt>
      <trkpt lat="43.278163969516754" lon="1.781970988959074">
        <ele>268.82999999999998</ele>
        <time>2025-04-26T08:35:21Z</time>
      </trkpt>
      <trkpt lat="43.278118036687374" lon="1.781475031748414">
        <ele>270.75</ele>
        <time>2025-04-26T08:35:23Z</time>
      </trkpt>
      <trkpt lat="43.278124993667006" lon="1.781218964606524">
        <ele>271.23000000000002</ele>
        <time>2025-04-26T08:35:24Z</time>
      </trkpt>
      <trkpt lat="43.278150977566838" lon="1.780971027910709">
        <ele>272.19</ele>
        <time>2025-04-26T08:35:25Z</time>
      </trkpt>
      <trkpt lat="43.278275029733777" lon="1.778979990631342">
        <ele>278.92000000000002</ele>
        <time>2025-04-26T08:35:33Z</time>
      </trkpt>
      <trkpt lat="43.278278969228268" lon="1.778785027563572">
        <ele>279.88</ele>
        <time>2025-04-26T08:35:34Z</time>
      </trkpt>
      <trkpt lat="43.278249967843294" lon="1.778600038960576">
        <ele>280.83999999999997</ele>
        <time>2025-04-26T08:35:35Z</time>
      </trkpt>
      <trkpt lat="43.278204035013914" lon="1.778427036479116">
        <ele>281.80000000000001</ele>
        <time>2025-04-26T08:35:36Z</time>
      </trkpt>
      <trkpt lat="43.278116025030613" lon="1.778282029554248">
        <ele>282.27999999999997</ele>
        <time>2025-04-26T08:35:37Z</time>
      </trkpt>
      <trkpt lat="43.278016028925776" lon="1.778141967952251">
        <ele>283.25</ele>
        <time>2025-04-26T08:35:38Z</time>
      </trkpt>
      <trkpt lat="43.277898011729121" lon="1.778012970462441">
        <ele>283.73000000000002</ele>
        <time>2025-04-26T08:35:39Z</time>
      </trkpt>
      <trkpt lat="43.277773037552834" lon="1.777895037084818">
        <ele>284.69</ele>
        <time>2025-04-26T08:35:40Z</time>
      </trkpt>
      <trkpt lat="43.277657032012939" lon="1.777784982696176">
        <ele>285.64999999999998</ele>
        <time>2025-04-26T08:35:41Z</time>
      </trkpt>
      <trkpt lat="43.277570027858019" lon="1.777661014348269">
        <ele>286.61000000000001</ele>
        <time>2025-04-26T08:35:42Z</time>
      </trkpt>
      <trkpt lat="43.277506995946169" lon="1.777489017695189">
        <ele>287.08999999999997</ele>
        <time>2025-04-26T08:35:43Z</time>
      </trkpt>
      <trkpt lat="43.277475982904434" lon="1.777332024648786">
        <ele>288.05000000000001</ele>
        <time>2025-04-26T08:35:44Z</time>
      </trkpt>
      <trkpt lat="43.277438012883067" lon="1.777142006903887">
        <ele>289.00999999999999</ele>
        <time>2025-04-26T08:35:45Z</time>
      </trkpt>
      <trkpt lat="43.277396019548178" lon="1.776932962238789">
        <ele>289.97000000000003</ele>
        <time>2025-04-26T08:35:46Z</time>
      </trkpt>
      <trkpt lat="43.277351008728147" lon="1.776710003614426">
        <ele>290.94</ele>
        <time>2025-04-26T08:35:47Z</time>
      </trkpt>
      <trkpt lat="43.277265010401607" lon="1.776501964777708">
        <ele>291.89999999999998</ele>
        <time>2025-04-26T08:35:48Z</time>
      </trkpt>
      <trkpt lat="43.277160990983248" lon="1.77631001919508">
        <ele>292.38</ele>
        <time>2025-04-26T08:35:49Z</time>
      </trkpt>
      <trkpt lat="43.277062000706792" lon="1.776126036420465">
        <ele>293.81999999999999</ele>
        <time>2025-04-26T08:35:50Z</time>
      </trkpt>
      <trkpt lat="43.276967033743858" lon="1.775952028110623">
        <ele>294.77999999999997</ele>
        <time>2025-04-26T08:35:51Z</time>
      </trkpt>
      <trkpt lat="43.276900984346867" lon="1.775759998708963">
        <ele>295.25999999999999</ele>
        <time>2025-04-26T08:35:52Z</time>
      </trkpt>
      <trkpt lat="43.276851028203964" lon="1.775541985407472">
        <ele>296.22000000000003</ele>
        <time>2025-04-26T08:35:53Z</time>
      </trkpt>
      <trkpt lat="43.276802999898791" lon="1.775307962670922">
        <ele>297.18000000000001</ele>
        <time>2025-04-26T08:35:54Z</time>
      </trkpt>
      <trkpt lat="43.276758994907141" lon="1.775057008489966">
        <ele>298.14999999999998</ele>
        <time>2025-04-26T08:35:55Z</time>
      </trkpt>
      <trkpt lat="43.276279969140887" lon="1.773215001448989">
        <ele>301.99000000000001</ele>
        <time>2025-04-26T08:36:02Z</time>
      </trkpt>
      <trkpt lat="43.276134040206671" lon="1.772939991205931">
        <ele>304.38999999999999</ele>
        <time>2025-04-26T08:36:04Z</time>
      </trkpt>
      <trkpt lat="43.276030020788312" lon="1.772888023406267">
        <ele>305.36000000000001</ele>
        <time>2025-04-26T08:36:05Z</time>
      </trkpt>
      <trkpt lat="43.27593999914825" lon="1.772843012586236">
        <ele>306.31999999999999</ele>
        <time>2025-04-26T08:36:06Z</time>
      </trkpt>
      <trkpt lat="43.275867998600006" lon="1.772860027849674">
        <ele>306.80000000000001</ele>
        <time>2025-04-26T08:36:07Z</time>
      </trkpt>
      <trkpt lat="43.275755010545254" lon="1.772919958457351">
        <ele>307.27999999999997</ele>
        <time>2025-04-26T08:36:08Z</time>
      </trkpt>
      <trkpt lat="43.275628024712205" lon="1.772986007854343">
        <ele>307.75999999999999</ele>
        <time>2025-04-26T08:36:09Z</time>
      </trkpt>
      <trkpt lat="43.27549098059535" lon="1.773058008402586">
        <ele>308.24000000000001</ele>
        <time>2025-04-26T08:36:10Z</time>
      </trkpt>
      <trkpt lat="43.27434903010726" lon="1.773568969219923">
        <ele>312.08999999999997</ele>
        <time>2025-04-26T08:36:17Z</time>
      </trkpt>
      <trkpt lat="43.27347001992166" lon="1.773803997784853">
        <ele>314.97000000000003</ele>
        <time>2025-04-26T08:36:22Z</time>
      </trkpt>
      <trkpt lat="43.273323001340032" lon="1.773863006383181">
        <ele>315.44999999999999</ele>
        <time>2025-04-26T08:36:23Z</time>
      </trkpt>
      <trkpt lat="43.273146981373429" lon="1.774009019136429">
        <ele>315.93000000000001</ele>
        <time>2025-04-26T08:36:24Z</time>
      </trkpt>
      <trkpt lat="43.272993005812168" lon="1.774138016626239">
        <ele>316.41000000000003</ele>
        <time>2025-04-26T08:36:25Z</time>
      </trkpt>
      <trkpt lat="43.272852022200823" lon="1.774256033822894">
        <ele>316.88999999999999</ele>
        <time>2025-04-26T08:36:26Z</time>
      </trkpt>
      <trkpt lat="43.272551028057933" lon="1.77450698800385">
        <ele>317.37</ele>
        <time>2025-04-26T08:36:29Z</time>
      </trkpt>
      <trkpt lat="43.272475004196167" lon="1.774481004104018">
        <ele>317.37</ele>
        <time>2025-04-26T08:36:30Z</time>
      </trkpt>
      <trkpt lat="43.272405015304685" lon="1.774458037689328">
        <ele>316.88999999999999</ele>
        <time>2025-04-26T08:36:31Z</time>
      </trkpt>
      <trkpt lat="43.27235396951437" lon="1.774428030475974">
        <ele>316.88999999999999</ele>
        <time>2025-04-26T08:36:32Z</time>
      </trkpt>
      <trkpt lat="43.272332008928061" lon="1.774339014664292">
        <ele>316.88999999999999</ele>
        <time>2025-04-26T08:36:33Z</time>
      </trkpt>
      <trkpt lat="43.272293033078313" lon="1.774185039103031">
        <ele>316.41000000000003</ele>
        <time>2025-04-26T08:36:34Z</time>
      </trkpt>
      <trkpt lat="43.272324968129396" lon="1.774061992764473">
        <ele>316.41000000000003</ele>
        <time>2025-04-26T08:36:35Z</time>
      </trkpt>
      <trkpt lat="43.272365033626556" lon="1.773908017203212">
        <ele>315.93000000000001</ele>
        <time>2025-04-26T08:36:36Z</time>
      </trkpt>
      <trkpt lat="43.272409960627556" lon="1.773735014721751">
        <ele>315.44999999999999</ele>
        <time>2025-04-26T08:36:37Z</time>
      </trkpt>
      <trkpt lat="43.272475004196167" lon="1.773546002805233">
        <ele>315.44999999999999</ele>
        <time>2025-04-26T08:36:38Z</time>
      </trkpt>
      <trkpt lat="43.27256603166461" lon="1.773377023637295">
        <ele>314.49000000000001</ele>
        <time>2025-04-26T08:36:39Z</time>
      </trkpt>
      <trkpt lat="43.272662004455924" lon="1.77319698035717">
        <ele>314.00999999999999</ele>
        <time>2025-04-26T08:36:40Z</time>
      </trkpt>
      <trkpt lat="43.272765018045902" lon="1.773005034774542">
        <ele>313.05000000000001</ele>
        <time>2025-04-26T08:36:41Z</time>
      </trkpt>
      <trkpt lat="43.272813968360424" lon="1.772824991494417">
        <ele>312.08999999999997</ele>
        <time>2025-04-26T08:36:42Z</time>
      </trkpt>
      <trkpt lat="43.272841963917017" lon="1.772622987627983">
        <ele>311.12</ele>
        <time>2025-04-26T08:36:43Z</time>
      </trkpt>
      <trkpt lat="43.272858979180455" lon="1.772412015125155">
        <ele>310.16000000000003</ele>
        <time>2025-04-26T08:36:44Z</time>
      </trkpt>
      <trkpt lat="43.272864008322358" lon="1.772194001823664">
        <ele>309.68000000000001</ele>
        <time>2025-04-26T08:36:45Z</time>
      </trkpt>
      <trkpt lat="43.272834001109004" lon="1.77197297103703">
        <ele>308.72000000000003</ele>
        <time>2025-04-26T08:36:46Z</time>
      </trkpt>
      <trkpt lat="43.27280499972403" lon="1.771763004362583">
        <ele>307.75999999999999</ele>
        <time>2025-04-26T08:36:47Z</time>
      </trkpt>
      <trkpt lat="43.272758983075619" lon="1.771565023809671">
        <ele>306.80000000000001</ele>
        <time>2025-04-26T08:36:48Z</time>
      </trkpt>
      <trkpt lat="43.272691005840898" lon="1.771400989964604">
        <ele>306.31999999999999</ele>
        <time>2025-04-26T08:36:49Z</time>
      </trkpt>
      <trkpt lat="43.272590003907681" lon="1.771275009959936">
        <ele>305.36000000000001</ele>
        <time>2025-04-26T08:36:50Z</time>
      </trkpt>
      <trkpt lat="43.272484978660941" lon="1.771160010248423">
        <ele>304.88</ele>
        <time>2025-04-26T08:36:51Z</time>
      </trkpt>
      <trkpt lat="43.272356986999512" lon="1.771085998043418">
        <ele>304.38999999999999</ele>
        <time>2025-04-26T08:36:52Z</time>
      </trkpt>
      <trkpt lat="43.272219020873308" lon="1.771021038293839">
        <ele>303.43000000000001</ele>
        <time>2025-04-26T08:36:53Z</time>
      </trkpt>
      <trkpt lat="43.272075019776821" lon="1.770951971411705">
        <ele>302.94999999999999</ele>
        <time>2025-04-26T08:36:54Z</time>
      </trkpt>
      <trkpt lat="43.271753992885351" lon="1.770867984741926">
        <ele>301.99000000000001</ele>
        <time>2025-04-26T08:36:56Z</time>
      </trkpt>
      <trkpt lat="43.271593982353806" lon="1.770838983356953">
        <ele>301.50999999999999</ele>
        <time>2025-04-26T08:36:57Z</time>
      </trkpt>
      <trkpt lat="43.271434977650642" lon="1.770859016105533">
        <ele>301.02999999999997</ele>
        <time>2025-04-26T08:36:58Z</time>
      </trkpt>
      <trkpt lat="43.271287037059665" lon="1.770877037197352">
        <ele>301.02999999999997</ele>
        <time>2025-04-26T08:36:59Z</time>
      </trkpt>
      <trkpt lat="43.271163990721107" lon="1.770892962813377">
        <ele>300.55000000000001</ele>
        <time>2025-04-26T08:37:00Z</time>
      </trkpt>
      <trkpt lat="43.271090984344482" lon="1.770902015268803">
        <ele>300.06999999999999</ele>
        <time>2025-04-26T08:37:01Z</time>
      </trkpt>
      <trkpt lat="43.270985959097743" lon="1.770838983356953">
        <ele>299.58999999999997</ele>
        <time>2025-04-26T08:37:02Z</time>
      </trkpt>
      <trkpt lat="43.270876994356513" lon="1.770773017778993">
        <ele>299.11000000000001</ele>
        <time>2025-04-26T08:37:03Z</time>
      </trkpt>
      <trkpt lat="43.270844975486398" lon="1.77070202305913">
        <ele>298.14999999999998</ele>
        <time>2025-04-26T08:37:04Z</time>
      </trkpt>
      <trkpt lat="43.270770041272044" lon="1.770536983385682">
        <ele>297.67000000000002</ele>
        <time>2025-04-26T08:37:05Z</time>
      </trkpt>
      <trkpt lat="43.27074003405869" lon="1.770399017259479">
        <ele>296.69999999999999</ele>
        <time>2025-04-26T08:37:06Z</time>
      </trkpt>
      <trkpt lat="43.270698040723801" lon="1.770204976201057">
        <ele>296.22000000000003</ele>
        <time>2025-04-26T08:37:07Z</time>
      </trkpt>
      <trkpt lat="43.270529983565211" lon="1.769321020692587">
        <ele>293.33999999999997</ele>
        <time>2025-04-26T08:37:11Z</time>
      </trkpt>
      <trkpt lat="43.270506011322141" lon="1.769109964370728">
        <ele>292.38</ele>
        <time>2025-04-26T08:37:12Z</time>
      </trkpt>
      <trkpt lat="43.270508022978902" lon="1.76887602545321">
        <ele>291.89999999999998</ele>
        <time>2025-04-26T08:37:13Z</time>
      </trkpt>
      <trkpt lat="43.27054800465703" lon="1.76866396330297">
        <ele>291.42000000000002</ele>
        <time>2025-04-26T08:37:14Z</time>
      </trkpt>
      <trkpt lat="43.27061103656888" lon="1.768451984971762">
        <ele>290.45999999999998</ele>
        <time>2025-04-26T08:37:15Z</time>
      </trkpt>
      <trkpt lat="43.270674990490079" lon="1.768250986933708">
        <ele>289.49000000000001</ele>
        <time>2025-04-26T08:37:16Z</time>
      </trkpt>
      <trkpt lat="43.270751014351845" lon="1.768063986673951">
        <ele>289.00999999999999</ele>
        <time>2025-04-26T08:37:17Z</time>
      </trkpt>
      <trkpt lat="43.270854027941823" lon="1.767927026376128">
        <ele>288.05000000000001</ele>
        <time>2025-04-26T08:37:18Z</time>
      </trkpt>
      <trkpt lat="43.27095502987504" lon="1.767835998907685">
        <ele>287.08999999999997</ele>
        <time>2025-04-26T08:37:19Z</time>
      </trkpt>
      <trkpt lat="43.271085033193231" lon="1.767771961167455">
        <ele>286.61000000000001</ele>
        <time>2025-04-26T08:37:20Z</time>
      </trkpt>
      <trkpt lat="43.271217970177531" lon="1.767741031944752">
        <ele>286.13</ele>
        <time>2025-04-26T08:37:21Z</time>
      </trkpt>
      <trkpt lat="43.271363982930779" lon="1.767742037773132">
        <ele>285.17000000000002</ele>
        <time>2025-04-26T08:37:22Z</time>
      </trkpt>
      <trkpt lat="43.271508989855647" lon="1.767771039158106">
        <ele>284.69</ele>
        <time>2025-04-26T08:37:23Z</time>
      </trkpt>
      <trkpt lat="43.271657014265656" lon="1.767817977815867">
        <ele>283.73000000000002</ele>
        <time>2025-04-26T08:37:24Z</time>
      </trkpt>
      <trkpt lat="43.271800009533763" lon="1.767894001677632">
        <ele>283.25</ele>
        <time>2025-04-26T08:37:25Z</time>
      </trkpt>
      <trkpt lat="43.271930012851954" lon="1.767980000004172">
        <ele>282.76999999999998</ele>
        <time>2025-04-26T08:37:26Z</time>
      </trkpt>
      <trkpt lat="43.272046018391848" lon="1.768085025250912">
        <ele>281.80000000000001</ele>
        <time>2025-04-26T08:37:27Z</time>
      </trkpt>
      <trkpt lat="43.272270988672972" lon="1.768287029117346">
        <ele>280.83999999999997</ele>
        <time>2025-04-26T08:37:29Z</time>
      </trkpt>
      <trkpt lat="43.272386994212866" lon="1.768345031887293">
        <ele>280.36000000000001</ele>
        <time>2025-04-26T08:37:30Z</time>
      </trkpt>
      <trkpt lat="43.272511968389153" lon="1.76836003549397">
        <ele>279.88</ele>
        <time>2025-04-26T08:37:31Z</time>
      </trkpt>
      <trkpt lat="43.272626968100667" lon="1.768316030502319">
        <ele>279.88</ele>
        <time>2025-04-26T08:37:32Z</time>
      </trkpt>
      <trkpt lat="43.272765018045902" lon="1.768261967226863">
        <ele>279.39999999999998</ele>
        <time>2025-04-26T08:37:33Z</time>
      </trkpt>
      <trkpt lat="43.272845987230539" lon="1.768182003870606">
        <ele>279.39999999999998</ele>
        <time>2025-04-26T08:37:34Z</time>
      </trkpt>
      <trkpt lat="43.272922011092305" lon="1.768040014430881">
        <ele>279.39999999999998</ele>
        <time>2025-04-26T08:37:35Z</time>
      </trkpt>
      <trkpt lat="43.272984959185123" lon="1.767894001677632">
        <ele>278.92000000000002</ele>
        <time>2025-04-26T08:37:36Z</time>
      </trkpt>
      <trkpt lat="43.273009015247226" lon="1.767703983932734">
        <ele>278.92000000000002</ele>
        <time>2025-04-26T08:37:37Z</time>
      </trkpt>
      <trkpt lat="43.273017983883619" lon="1.767517989501357">
        <ele>278.92000000000002</ele>
        <time>2025-04-26T08:37:38Z</time>
      </trkpt>
      <trkpt lat="43.27303902246058" lon="1.767126973718405">
        <ele>278.92000000000002</ele>
        <time>2025-04-26T08:37:40Z</time>
      </trkpt>
      <trkpt lat="43.273021001368761" lon="1.766912983730435">
        <ele>278.44</ele>
        <time>2025-04-26T08:37:41Z</time>
      </trkpt>
      <trkpt lat="43.272974984720349" lon="1.76670502871275">
        <ele>277.95999999999998</ele>
        <time>2025-04-26T08:37:42Z</time>
      </trkpt>
      <trkpt lat="43.272927040234208" lon="1.76649103872478">
        <ele>277.48000000000002</ele>
        <time>2025-04-26T08:37:43Z</time>
      </trkpt>
      <trkpt lat="43.272878006100655" lon="1.766270007938147">
        <ele>277.48000000000002</ele>
        <time>2025-04-26T08:37:44Z</time>
      </trkpt>
      <trkpt lat="43.272828971967101" lon="1.766047971323133">
        <ele>277</ele>
        <time>2025-04-26T08:37:45Z</time>
      </trkpt>
      <trkpt lat="43.272783039137721" lon="1.76582501269877">
        <ele>277</ele>
        <time>2025-04-26T08:37:46Z</time>
      </trkpt>
      <trkpt lat="43.272644989192486" lon="1.764800995588303">
        <ele>275.56</ele>
        <time>2025-04-26T08:37:51Z</time>
      </trkpt>
      <trkpt lat="43.272585980594158" lon="1.764660011976957">
        <ele>275.56</ele>
        <time>2025-04-26T08:37:52Z</time>
      </trkpt>
      <trkpt lat="43.272510962560773" lon="1.764553980901837">
        <ele>275.06999999999999</ele>
        <time>2025-04-26T08:37:53Z</time>
      </trkpt>
      <trkpt lat="43.272413983941078" lon="1.764492960646749">
        <ele>274.58999999999997</ele>
        <time>2025-04-26T08:37:54Z</time>
      </trkpt>
      <trkpt lat="43.272304013371468" lon="1.764425989240408">
        <ele>274.11000000000001</ele>
        <time>2025-04-26T08:37:55Z</time>
      </trkpt>
      <trkpt lat="43.272193958982825" lon="1.764359017834067">
        <ele>273.63</ele>
        <time>2025-04-26T08:37:56Z</time>
      </trkpt>
      <trkpt lat="43.272087005898356" lon="1.764253992587328">
        <ele>273.14999999999998</ele>
        <time>2025-04-26T08:37:57Z</time>
      </trkpt>
      <trkpt lat="43.272006958723068" lon="1.764114014804363">
        <ele>272.67000000000002</ele>
        <time>2025-04-26T08:37:58Z</time>
      </trkpt>
      <trkpt lat="43.271932024508715" lon="1.763946963474155">
        <ele>272.19</ele>
        <time>2025-04-26T08:37:59Z</time>
      </trkpt>
      <trkpt lat="43.271879972890019" lon="1.763752000406385">
        <ele>271.70999999999998</ele>
        <time>2025-04-26T08:38:00Z</time>
      </trkpt>
      <trkpt lat="43.271826999261975" lon="1.763552008196712">
        <ele>271.23000000000002</ele>
        <time>2025-04-26T08:38:01Z</time>
      </trkpt>
      <trkpt lat="43.271776959300041" lon="1.763360984623432">
        <ele>270.26999999999998</ele>
        <time>2025-04-26T08:38:02Z</time>
      </trkpt>
      <trkpt lat="43.271763967350125" lon="1.76318203099072">
        <ele>269.79000000000002</ele>
        <time>2025-04-26T08:38:03Z</time>
      </trkpt>
      <trkpt lat="43.271777965128422" lon="1.76301397383213">
        <ele>269.31</ele>
        <time>2025-04-26T08:38:04Z</time>
      </trkpt>
      <trkpt lat="43.271817024797201" lon="1.762867961078882">
        <ele>269.31</ele>
        <time>2025-04-26T08:38:05Z</time>
      </trkpt>
      <trkpt lat="43.271902017295361" lon="1.762749021872878">
        <ele>268.82999999999998</ele>
        <time>2025-04-26T08:38:06Z</time>
      </trkpt>
      <trkpt lat="43.271991033107042" lon="1.762633016332984">
        <ele>268.82999999999998</ele>
        <time>2025-04-26T08:38:07Z</time>
      </trkpt>
      <trkpt lat="43.272077031433582" lon="1.762520028278232">
        <ele>268.82999999999998</ele>
        <time>2025-04-26T08:38:08Z</time>
      </trkpt>
      <trkpt lat="43.272139979526401" lon="1.762377033010125">
        <ele>268.82999999999998</ele>
        <time>2025-04-26T08:38:09Z</time>
      </trkpt>
      <trkpt lat="43.272196976467967" lon="1.762219034135342">
        <ele>268.35000000000002</ele>
        <time>2025-04-26T08:38:10Z</time>
      </trkpt>
      <trkpt lat="43.272204017266631" lon="1.762060029432178">
        <ele>268.35000000000002</ele>
        <time>2025-04-26T08:38:11Z</time>
      </trkpt>
      <trkpt lat="43.272197982296348" lon="1.761883003637195">
        <ele>267.86000000000001</ele>
        <time>2025-04-26T08:38:12Z</time>
      </trkpt>
      <trkpt lat="43.272193036973476" lon="1.761692985892296">
        <ele>267.86000000000001</ele>
        <time>2025-04-26T08:38:13Z</time>
      </trkpt>
      <trkpt lat="43.272187002003193" lon="1.761482013389468">
        <ele>267.86000000000001</ele>
        <time>2025-04-26T08:38:14Z</time>
      </trkpt>
      <trkpt lat="43.272213991731405" lon="1.761254025623202">
        <ele>267.38</ele>
        <time>2025-04-26T08:38:15Z</time>
      </trkpt>
      <trkpt lat="43.272479027509689" lon="1.759332977235317">
        <ele>264.01999999999998</ele>
        <time>2025-04-26T08:38:23Z</time>
      </trkpt>
      <trkpt lat="43.272541975602508" lon="1.75910197198391">
        <ele>263.54000000000002</ele>
        <time>2025-04-26T08:38:24Z</time>
      </trkpt>
      <trkpt lat="43.272606013342738" lon="1.758869038894773">
        <ele>263.06</ele>
        <time>2025-04-26T08:38:25Z</time>
      </trkpt>
      <trkpt lat="43.272669967263937" lon="1.758631998673081">
        <ele>262.57999999999998</ele>
        <time>2025-04-26T08:38:26Z</time>
      </trkpt>
      <trkpt lat="43.273582002148032" lon="1.756469970569015">
        <ele>256.32999999999998</ele>
        <time>2025-04-26T08:38:36Z</time>
      </trkpt>
      <trkpt lat="43.273929012939334" lon="1.755187958478928">
        <ele>251.52000000000001</ele>
        <time>2025-04-26T08:38:43Z</time>
      </trkpt>
      <trkpt lat="43.273949967697263" lon="1.755004981532693">
        <ele>251.03999999999999</ele>
        <time>2025-04-26T08:38:44Z</time>
      </trkpt>
      <trkpt lat="43.273963965475559" lon="1.754810018464923">
        <ele>250.56</ele>
        <time>2025-04-26T08:38:45Z</time>
      </trkpt>
      <trkpt lat="43.273890037089586" lon="1.753661027178168">
        <ele>248.63999999999999</ele>
        <time>2025-04-26T08:38:50Z</time>
      </trkpt>
      <trkpt lat="43.273901017382741" lon="1.753433961421251">
        <ele>248.16</ele>
        <time>2025-04-26T08:38:51Z</time>
      </trkpt>
      <trkpt lat="43.273953991010785" lon="1.753206979483366">
        <ele>248.16</ele>
        <time>2025-04-26T08:38:52Z</time>
      </trkpt>
      <trkpt lat="43.27400897629559" lon="1.752973962575197">
        <ele>248.16</ele>
        <time>2025-04-26T08:38:53Z</time>
      </trkpt>
      <trkpt lat="43.274078965187073" lon="1.752744968980551">
        <ele>248.63999999999999</ele>
        <time>2025-04-26T08:38:54Z</time>
      </trkpt>
      <trkpt lat="43.274162029847503" lon="1.752513041719794">
        <ele>249.12</ele>
        <time>2025-04-26T08:38:55Z</time>
      </trkpt>
      <trkpt lat="43.27493098564446" lon="1.750295022502542">
        <ele>253.93000000000001</ele>
        <time>2025-04-26T08:39:04Z</time>
      </trkpt>
      <trkpt lat="43.275555018335581" lon="1.748070968315005">
        <ele>262.10000000000002</ele>
        <time>2025-04-26T08:39:13Z</time>
      </trkpt>
      <trkpt lat="43.27557697892189" lon="1.747844992205501">
        <ele>263.06</ele>
        <time>2025-04-26T08:39:14Z</time>
      </trkpt>
      <trkpt lat="43.27559701167047" lon="1.747642988339067">
        <ele>263.54000000000002</ele>
        <time>2025-04-26T08:39:15Z</time>
      </trkpt>
      <trkpt lat="43.275560969486833" lon="1.747469985857606">
        <ele>264.5</ele>
        <time>2025-04-26T08:39:16Z</time>
      </trkpt>
      <trkpt lat="43.275522999465466" lon="1.747321961447597">
        <ele>264.98000000000002</ele>
        <time>2025-04-26T08:39:17Z</time>
      </trkpt>
      <trkpt lat="43.275454016402364" lon="1.74719799309969">
        <ele>265.45999999999998</ele>
        <time>2025-04-26T08:39:18Z</time>
      </trkpt>
      <trkpt lat="43.275374975055456" lon="1.747121969237924">
        <ele>266.42000000000002</ele>
        <time>2025-04-26T08:39:19Z</time>
      </trkpt>
      <trkpt lat="43.275273973122239" lon="1.747072013095021">
        <ele>267.38</ele>
        <time>2025-04-26T08:39:20Z</time>
      </trkpt>
      <trkpt lat="43.275168025866151" lon="1.747088022530079">
        <ele>268.35000000000002</ele>
        <time>2025-04-26T08:39:21Z</time>
      </trkpt>
      <trkpt lat="43.275031987577677" lon="1.747130015864968">
        <ele>268.82999999999998</ele>
        <time>2025-04-26T08:39:22Z</time>
      </trkpt>
      <trkpt lat="43.274886980652809" lon="1.747174020856619">
        <ele>269.79000000000002</ele>
        <time>2025-04-26T08:39:23Z</time>
      </trkpt>
      <trkpt lat="43.27473996207118" lon="1.747214002534747">
        <ele>270.26999999999998</ele>
        <time>2025-04-26T08:39:24Z</time>
      </trkpt>
      <trkpt lat="43.274595960974693" lon="1.747226994484663">
        <ele>271.23000000000002</ele>
        <time>2025-04-26T08:39:25Z</time>
      </trkpt>
      <trkpt lat="43.274455983191729" lon="1.747195981442928">
        <ele>271.70999999999998</ele>
        <time>2025-04-26T08:39:26Z</time>
      </trkpt>
      <trkpt lat="43.274327991530299" lon="1.747122975066304">
        <ele>272.19</ele>
        <time>2025-04-26T08:39:27Z</time>
      </trkpt>
      <trkpt lat="43.274207040667534" lon="1.747008981183171">
        <ele>272.67000000000002</ele>
        <time>2025-04-26T08:39:28Z</time>
      </trkpt>
      <trkpt lat="43.274087011814117" lon="1.746893981471658">
        <ele>273.63</ele>
        <time>2025-04-26T08:39:29Z</time>
      </trkpt>
      <trkpt lat="43.273976035416126" lon="1.74678803421557">
        <ele>274.58999999999997</ele>
        <time>2025-04-26T08:39:30Z</time>
      </trkpt>
      <trkpt lat="43.273872015997767" lon="1.746715027838945">
        <ele>275.06999999999999</ele>
        <time>2025-04-26T08:39:31Z</time>
      </trkpt>
      <trkpt lat="43.273763973265886" lon="1.74670203588903">
        <ele>276.04000000000002</ele>
        <time>2025-04-26T08:39:32Z</time>
      </trkpt>
      <trkpt lat="43.273654002696276" lon="1.746739000082016">
        <ele>276.51999999999998</ele>
        <time>2025-04-26T08:39:33Z</time>
      </trkpt>
      <trkpt lat="43.273530034348369" lon="1.746806977316737">
        <ele>277</ele>
        <time>2025-04-26T08:39:34Z</time>
      </trkpt>
      <trkpt lat="43.273417968302965" lon="1.746922982856631">
        <ele>277.48000000000002</ele>
        <time>2025-04-26T08:39:35Z</time>
      </trkpt>
      <trkpt lat="43.273301962763071" lon="1.747067989781499">
        <ele>278.44</ele>
        <time>2025-04-26T08:39:36Z</time>
      </trkpt>
      <trkpt lat="43.272571982815862" lon="1.747984969988465">
        <ele>282.27999999999997</ele>
        <time>2025-04-26T08:39:42Z</time>
      </trkpt>
      <trkpt lat="43.272423958405852" lon="1.748096030205488">
        <ele>282.76999999999998</ele>
        <time>2025-04-26T08:39:43Z</time>
      </trkpt>
      <trkpt lat="43.272314993664622" lon="1.748178005218506">
        <ele>283.73000000000002</ele>
        <time>2025-04-26T08:39:44Z</time>
      </trkpt>
      <trkpt lat="43.272178033366799" lon="1.748160989955068">
        <ele>284.20999999999998</ele>
        <time>2025-04-26T08:39:45Z</time>
      </trkpt>
      <trkpt lat="43.272040989249945" lon="1.748143974691629">
        <ele>284.69</ele>
        <time>2025-04-26T08:39:46Z</time>
      </trkpt>
      <trkpt lat="43.271907968446612" lon="1.748094018548727">
        <ele>285.17000000000002</ele>
        <time>2025-04-26T08:39:47Z</time>
      </trkpt>
      <trkpt lat="43.271777965128422" lon="1.748009026050568">
        <ele>285.64999999999998</ele>
        <time>2025-04-26T08:39:48Z</time>
      </trkpt>
      <trkpt lat="43.271648967638612" lon="1.747925039380789">
        <ele>286.61000000000001</ele>
        <time>2025-04-26T08:39:49Z</time>
      </trkpt>
      <trkpt lat="43.271520975977182" lon="1.747840968891978">
        <ele>287.08999999999997</ele>
        <time>2025-04-26T08:39:50Z</time>
      </trkpt>
      <trkpt lat="43.271371023729444" lon="1.747804004698992">
        <ele>287.56999999999999</ele>
        <time>2025-04-26T08:39:51Z</time>
      </trkpt>
      <trkpt lat="43.271217970177531" lon="1.747801993042231">
        <ele>288.52999999999997</ele>
        <time>2025-04-26T08:39:52Z</time>
      </trkpt>
      <trkpt lat="43.271078998222947" lon="1.747862007468939">
        <ele>289.00999999999999</ele>
        <time>2025-04-26T08:39:53Z</time>
      </trkpt>
      <trkpt lat="43.270944971591234" lon="1.747919004410505">
        <ele>289.97000000000003</ele>
        <time>2025-04-26T08:39:54Z</time>
      </trkpt>
      <trkpt lat="43.270836006850004" lon="1.748054036870599">
        <ele>290.45999999999998</ele>
        <time>2025-04-26T08:39:55Z</time>
      </trkpt>
      <trkpt lat="43.270704997703433" lon="1.748221004381776">
        <ele>290.94</ele>
        <time>2025-04-26T08:39:56Z</time>
      </trkpt>
      <trkpt lat="43.270621011033654" lon="1.748371040448546">
        <ele>291.89999999999998</ele>
        <time>2025-04-26T08:39:57Z</time>
      </trkpt>
      <trkpt lat="43.270514979958534" lon="1.748557034879923">
        <ele>292.86000000000001</ele>
        <time>2025-04-26T08:39:58Z</time>
      </trkpt>
      <trkpt lat="43.269585007801652" lon="1.750135011970997">
        <ele>298.14999999999998</ele>
        <time>2025-04-26T08:40:06Z</time>
      </trkpt>
      <trkpt lat="43.2694529928267" lon="1.750243976712227">
        <ele>299.11000000000001</ele>
        <time>2025-04-26T08:40:07Z</time>
      </trkpt>
      <trkpt lat="43.269312009215355" lon="1.750320000573993">
        <ele>299.58999999999997</ele>
        <time>2025-04-26T08:40:08Z</time>
      </trkpt>
      <trkpt lat="43.269168008118868" lon="1.750367023050785">
        <ele>300.55000000000001</ele>
        <time>2025-04-26T08:40:09Z</time>
      </trkpt>
      <trkpt lat="43.269016966223717" lon="1.750367023050785">
        <ele>301.02999999999997</ele>
        <time>2025-04-26T08:40:10Z</time>
      </trkpt>
      <trkpt lat="43.268866008147597" lon="1.750367023050785">
        <ele>301.50999999999999</ele>
        <time>2025-04-26T08:40:11Z</time>
      </trkpt>
      <trkpt lat="43.268725024536252" lon="1.750303991138935">
        <ele>302.47000000000003</ele>
        <time>2025-04-26T08:40:12Z</time>
      </trkpt>
      <trkpt lat="43.268579011783004" lon="1.750223021954298">
        <ele>302.94999999999999</ele>
        <time>2025-04-26T08:40:13Z</time>
      </trkpt>
      <trkpt lat="43.268431993201375" lon="1.750137023627758">
        <ele>303.91000000000003</ele>
        <time>2025-04-26T08:40:14Z</time>
      </trkpt>
      <trkpt lat="43.268284974619746" lon="1.750025963410735">
        <ele>304.88</ele>
        <time>2025-04-26T08:40:15Z</time>
      </trkpt>
      <trkpt lat="43.266800036653876" lon="1.748950984328985">
        <ele>313.52999999999997</ele>
        <time>2025-04-26T08:40:25Z</time>
      </trkpt>
      <trkpt lat="43.266689982265234" lon="1.74891896545887">
        <ele>314.00999999999999</ele>
        <time>2025-04-26T08:40:26Z</time>
      </trkpt>
      <trkpt lat="43.266570037230849" lon="1.748926006257534">
        <ele>314.49000000000001</ele>
        <time>2025-04-26T08:40:27Z</time>
      </trkpt>
      <trkpt lat="43.266449002549052" lon="1.748954001814127">
        <ele>314.49000000000001</ele>
        <time>2025-04-26T08:40:28Z</time>
      </trkpt>
      <trkpt lat="43.266330985352397" lon="1.749008987098932">
        <ele>314.49000000000001</ele>
        <time>2025-04-26T08:40:29Z</time>
      </trkpt>
      <trkpt lat="43.266214979812503" lon="1.749116024002433">
        <ele>314.49000000000001</ele>
        <time>2025-04-26T08:40:30Z</time>
      </trkpt>
      <trkpt lat="43.266092017292976" lon="1.749229012057185">
        <ele>314.00999999999999</ele>
        <time>2025-04-26T08:40:31Z</time>
      </trkpt>
      <trkpt lat="43.265332030132413" lon="1.750145992264152">
        <ele>314.97000000000003</ele>
        <time>2025-04-26T08:40:37Z</time>
      </trkpt>
      <trkpt lat="43.265234967693686" lon="1.750308014452457">
        <ele>314.97000000000003</ele>
        <time>2025-04-26T08:40:38Z</time>
      </trkpt>
      <trkpt lat="43.265169002115726" lon="1.750488979741931">
        <ele>315.44999999999999</ele>
        <time>2025-04-26T08:40:39Z</time>
      </trkpt>
      <trkpt lat="43.265110999345779" lon="1.750681009143591">
        <ele>315.93000000000001</ele>
        <time>2025-04-26T08:40:40Z</time>
      </trkpt>
      <trkpt lat="43.265054002404213" lon="1.750876978039742">
        <ele>315.93000000000001</ele>
        <time>2025-04-26T08:40:41Z</time>
      </trkpt>
      <trkpt lat="43.264994993805885" lon="1.751081999391317">
        <ele>316.41000000000003</ele>
        <time>2025-04-26T08:40:42Z</time>
      </trkpt>
      <trkpt lat="43.264933973550797" lon="1.751295989379287">
        <ele>316.88999999999999</ele>
        <time>2025-04-26T08:40:43Z</time>
      </trkpt>
      <trkpt lat="43.264869013801217" lon="1.751524982973933">
        <ele>317.37</ele>
        <time>2025-04-26T08:40:44Z</time>
      </trkpt>
      <trkpt lat="43.264775974676013" lon="1.751742996275425">
        <ele>317.85000000000002</ele>
        <time>2025-04-26T08:40:45Z</time>
      </trkpt>
      <trkpt lat="43.26418798416853" lon="1.753073958680034">
        <ele>320.25999999999999</ele>
        <time>2025-04-26T08:40:51Z</time>
      </trkpt>
      <trkpt lat="43.264069966971874" lon="1.753225000575185">
        <ele>320.74000000000001</ele>
        <time>2025-04-26T08:40:52Z</time>
      </trkpt>
      <trkpt lat="43.263945998623967" lon="1.753382999449968">
        <ele>321.69999999999999</ele>
        <time>2025-04-26T08:40:53Z</time>
      </trkpt>
      <trkpt lat="43.263389021158218" lon="1.754043996334076">
        <ele>324.10000000000002</ele>
        <time>2025-04-26T08:40:57Z</time>
      </trkpt>
      <trkpt lat="43.263268992304802" lon="1.754220016300678">
        <ele>325.06</ele>
        <time>2025-04-26T08:40:58Z</time>
      </trkpt>
      <trkpt lat="43.263180982321501" lon="1.754420008510351">
        <ele>326.01999999999998</ele>
        <time>2025-04-26T08:40:59Z</time>
      </trkpt>
      <trkpt lat="43.263120967894793" lon="1.754616983234882">
        <ele>326.5</ele>
        <time>2025-04-26T08:41:00Z</time>
      </trkpt>
      <trkpt lat="43.263076962903142" lon="1.75480498932302">
        <ele>327.47000000000003</ele>
        <time>2025-04-26T08:41:01Z</time>
      </trkpt>
      <trkpt lat="43.263031030073762" lon="1.754982015118003">
        <ele>328.43000000000001</ele>
        <time>2025-04-26T08:41:02Z</time>
      </trkpt>
      <trkpt lat="43.262986019253731" lon="1.755152000114322">
        <ele>329.38999999999999</ele>
        <time>2025-04-26T08:41:03Z</time>
      </trkpt>
      <trkpt lat="43.262904966250062" lon="1.755296001210809">
        <ele>329.87</ele>
        <time>2025-04-26T08:41:04Z</time>
      </trkpt>
      <trkpt lat="43.262826008722186" lon="1.755426004528999">
        <ele>330.35000000000002</ele>
        <time>2025-04-26T08:41:05Z</time>
      </trkpt>
      <trkpt lat="43.262750990688801" lon="1.755548967048526">
        <ele>331.31</ele>
        <time>2025-04-26T08:41:06Z</time>
      </trkpt>
      <trkpt lat="43.262648982927203" lon="1.755606969818473">
        <ele>331.79000000000002</ele>
        <time>2025-04-26T08:41:07Z</time>
      </trkpt>
      <trkpt lat="43.26255502179265" lon="1.755653992295265">
        <ele>332.26999999999998</ele>
        <time>2025-04-26T08:41:08Z</time>
      </trkpt>
      <trkpt lat="43.262476986274123" lon="1.755618033930659">
        <ele>332.75</ele>
        <time>2025-04-26T08:41:09Z</time>
      </trkpt>
      <trkpt lat="43.262397022917867" lon="1.755546033382416">
        <ele>333.23000000000002</ele>
        <time>2025-04-26T08:41:10Z</time>
      </trkpt>
      <trkpt lat="43.262294009327888" lon="1.755451988428831">
        <ele>333.70999999999998</ele>
        <time>2025-04-26T08:41:11Z</time>
      </trkpt>
      <trkpt lat="43.262282023206353" lon="1.755314022302628">
        <ele>333.70999999999998</ele>
        <time>2025-04-26T08:41:12Z</time>
      </trkpt>
      <trkpt lat="43.262268025428057" lon="1.755145965144038">
        <ele>333.70999999999998</ele>
        <time>2025-04-26T08:41:13Z</time>
      </trkpt>
      <trkpt lat="43.262251010164618" lon="1.754937004297972">
        <ele>333.70999999999998</ele>
        <time>2025-04-26T08:41:14Z</time>
      </trkpt>
      <trkpt lat="43.26225302182138" lon="1.754760984331369">
        <ele>333.23000000000002</ele>
        <time>2025-04-26T08:41:15Z</time>
      </trkpt>
      <trkpt lat="43.262270037084818" lon="1.754548000171781">
        <ele>333.23000000000002</ele>
        <time>2025-04-26T08:41:16Z</time>
      </trkpt>
      <trkpt lat="43.262331979349256" lon="1.753749959170818">
        <ele>330.35000000000002</ele>
        <time>2025-04-26T08:41:20Z</time>
      </trkpt>
      <trkpt lat="43.262312030419707" lon="1.75357704050839">
        <ele>329.87</ele>
        <time>2025-04-26T08:41:21Z</time>
      </trkpt>
      <trkpt lat="43.26227598823607" lon="1.753410995006561">
        <ele>329.38999999999999</ele>
        <time>2025-04-26T08:41:22Z</time>
      </trkpt>
      <trkpt lat="43.262241035699844" lon="1.753252996131778">
        <ele>328.43000000000001</ele>
        <time>2025-04-26T08:41:23Z</time>
      </trkpt>
      <trkpt lat="43.262181021273136" lon="1.753118969500065">
        <ele>327.94999999999999</ele>
        <time>2025-04-26T08:41:24Z</time>
      </trkpt>
      <trkpt lat="43.262106003239751" lon="1.752996006980538">
        <ele>327.47000000000003</ele>
        <time>2025-04-26T08:41:25Z</time>
      </trkpt>
      <trkpt lat="43.262028973549604" lon="1.75287002697587">
        <ele>326.99000000000001</ele>
        <time>2025-04-26T08:41:26Z</time>
      </trkpt>
      <trkpt lat="43.261954039335251" lon="1.752745974808931">
        <ele>326.5</ele>
        <time>2025-04-26T08:41:27Z</time>
      </trkpt>
      <trkpt lat="43.261863011866808" lon="1.75267699174583">
        <ele>325.54000000000002</ele>
        <time>2025-04-26T08:41:28Z</time>
      </trkpt>
      <trkpt lat="43.261756980791688" lon="1.752630975097418">
        <ele>325.06</ele>
        <time>2025-04-26T08:41:29Z</time>
      </trkpt>
      <trkpt lat="43.261646004393697" lon="1.752583030611277">
        <ele>324.57999999999998</ele>
        <time>2025-04-26T08:41:30Z</time>
      </trkpt>
      <trkpt lat="43.26143603771925" lon="1.752490997314453">
        <ele>323.62</ele>
        <time>2025-04-26T08:41:32Z</time>
      </trkpt>
      <trkpt lat="43.261336963623762" lon="1.752371974289417">
        <ele>323.62</ele>
        <time>2025-04-26T08:41:33Z</time>
      </trkpt>
      <trkpt lat="43.26126697473228" lon="1.752265021204948">
        <ele>323.13999999999999</ele>
        <time>2025-04-26T08:41:34Z</time>
      </trkpt>
      <trkpt lat="43.261217018589377" lon="1.752145998179913">
        <ele>322.66000000000003</ele>
        <time>2025-04-26T08:41:35Z</time>
      </trkpt>
      <trkpt lat="43.261200003325939" lon="1.751976013183594">
        <ele>321.69999999999999</ele>
        <time>2025-04-26T08:41:36Z</time>
      </trkpt>
      <trkpt lat="43.261220036074519" lon="1.751828994601965">
        <ele>321.22000000000003</ele>
        <time>2025-04-26T08:41:37Z</time>
      </trkpt>
      <trkpt lat="43.26124501414597" lon="1.751647023484111">
        <ele>320.25999999999999</ele>
        <time>2025-04-26T08:41:38Z</time>
      </trkpt>
      <trkpt lat="43.261450035497546" lon="1.750792991369963">
        <ele>317.85000000000002</ele>
        <time>2025-04-26T08:41:42Z</time>
      </trkpt>
      <trkpt lat="43.261941969394684" lon="1.749238986521959">
        <ele>312.08999999999997</ele>
        <time>2025-04-26T08:41:49Z</time>
      </trkpt>
      <trkpt lat="43.26199502684176" lon="1.74909096211195">
        <ele>311.60000000000002</ele>
        <time>2025-04-26T08:41:50Z</time>
      </trkpt>
      <trkpt lat="43.262067027390003" lon="1.748989038169384">
        <ele>311.60000000000002</ele>
        <time>2025-04-26T08:41:51Z</time>
      </trkpt>
      <trkpt lat="43.26216802932322" lon="1.748932963237166">
        <ele>310.63999999999999</ele>
        <time>2025-04-26T08:41:52Z</time>
      </trkpt>
      <trkpt lat="43.262266013771296" lon="1.748888958245516">
        <ele>310.16000000000003</ele>
        <time>2025-04-26T08:41:53Z</time>
      </trkpt>
      <trkpt lat="43.26238201931119" lon="1.74895903095603">
        <ele>309.68000000000001</ele>
        <time>2025-04-26T08:41:54Z</time>
      </trkpt>
      <trkpt lat="43.262480003759265" lon="1.749023990705609">
        <ele>309.19999999999999</ele>
        <time>2025-04-26T08:41:55Z</time>
      </trkpt>
      <trkpt lat="43.262569019570947" lon="1.749084005132318">
        <ele>308.72000000000003</ele>
        <time>2025-04-26T08:41:56Z</time>
      </trkpt>
      <trkpt lat="43.262659041211009" lon="1.749144019559026">
        <ele>308.24000000000001</ele>
        <time>2025-04-26T08:41:57Z</time>
      </trkpt>
      <trkpt lat="43.262755014002323" lon="1.749167991802096">
        <ele>308.24000000000001</ele>
        <time>2025-04-26T08:41:58Z</time>
      </trkpt>
      <trkpt lat="43.26285501010716" lon="1.749158017337322">
        <ele>308.24000000000001</ele>
        <time>2025-04-26T08:41:59Z</time>
      </trkpt>
      <trkpt lat="43.262932961806655" lon="1.749071013182402">
        <ele>308.72000000000003</ele>
        <time>2025-04-26T08:42:00Z</time>
      </trkpt>
      <trkpt lat="43.263013008981943" lon="1.748960958793759">
        <ele>308.24000000000001</ele>
        <time>2025-04-26T08:42:01Z</time>
      </trkpt>
      <trkpt lat="43.263062965124846" lon="1.748811006546021">
        <ele>308.24000000000001</ele>
        <time>2025-04-26T08:42:02Z</time>
      </trkpt>
      <trkpt lat="43.263115016743541" lon="1.748655019327998">
        <ele>307.75999999999999</ele>
        <time>2025-04-26T08:42:03Z</time>
      </trkpt>
      <trkpt lat="43.26315701007843" lon="1.748481011018157">
        <ele>307.27999999999997</ele>
        <time>2025-04-26T08:42:04Z</time>
      </trkpt>
      <trkpt lat="43.263172013685107" lon="1.748287975788117">
        <ele>306.80000000000001</ele>
        <time>2025-04-26T08:42:05Z</time>
      </trkpt>
      <trkpt lat="43.263187017291784" lon="1.748097036033869">
        <ele>306.31999999999999</ele>
        <time>2025-04-26T08:42:06Z</time>
      </trkpt>
      <trkpt lat="43.263217024505138" lon="1.747726975008845">
        <ele>305.83999999999997</ele>
        <time>2025-04-26T08:42:08Z</time>
      </trkpt>
      <trkpt lat="43.263165978714824" lon="1.747562019154429">
        <ele>305.36000000000001</ele>
        <time>2025-04-26T08:42:09Z</time>
      </trkpt>
      <trkpt lat="43.263131026178598" lon="1.747448025271297">
        <ele>304.38999999999999</ele>
        <time>2025-04-26T08:42:10Z</time>
      </trkpt>
      <trkpt lat="43.263044022023678" lon="1.747336965054274">
        <ele>303.91000000000003</ele>
        <time>2025-04-26T08:42:11Z</time>
      </trkpt>
      <trkpt lat="43.262954000383615" lon="1.747235963121057">
        <ele>303.43000000000001</ele>
        <time>2025-04-26T08:42:12Z</time>
      </trkpt>
      <trkpt lat="43.262839000672102" lon="1.747153988108039">
        <ele>302.94999999999999</ele>
        <time>2025-04-26T08:42:13Z</time>
      </trkpt>
      <trkpt lat="43.261814983561635" lon="1.746329963207245">
        <ele>300.06999999999999</ele>
        <time>2025-04-26T08:42:20Z</time>
      </trkpt>
      <trkpt lat="43.261516001075506" lon="1.746068028733134">
        <ele>298.63</ele>
        <time>2025-04-26T08:42:22Z</time>
      </trkpt>
      <trkpt lat="43.261275021359324" lon="1.745749013498426">
        <ele>296.69999999999999</ele>
        <time>2025-04-26T08:42:24Z</time>
      </trkpt>
      <trkpt lat="43.261174019426107" lon="1.745585985481739">
        <ele>296.22000000000003</ele>
        <time>2025-04-26T08:42:25Z</time>
      </trkpt>
      <trkpt lat="43.261053990572691" lon="1.745189018547535">
        <ele>294.30000000000001</ele>
        <time>2025-04-26T08:42:27Z</time>
      </trkpt>
      <trkpt lat="43.261015014722943" lon="1.744983997195959">
        <ele>293.33999999999997</ele>
        <time>2025-04-26T08:42:28Z</time>
      </trkpt>
      <trkpt lat="43.261023983359337" lon="1.744815018028021">
        <ele>292.38</ele>
        <time>2025-04-26T08:42:29Z</time>
      </trkpt>
      <trkpt lat="43.26105298474431" lon="1.744607985019684">
        <ele>291.42000000000002</ele>
        <time>2025-04-26T08:42:30Z</time>
      </trkpt>
      <trkpt lat="43.261080980300903" lon="1.744414027780294">
        <ele>290.94</ele>
        <time>2025-04-26T08:42:31Z</time>
      </trkpt>
      <trkpt lat="43.261106964200735" lon="1.744229961186647">
        <ele>290.45999999999998</ele>
        <time>2025-04-26T08:42:32Z</time>
      </trkpt>
      <trkpt lat="43.261133031919599" lon="1.744052013382316">
        <ele>289.97000000000003</ele>
        <time>2025-04-26T08:42:33Z</time>
      </trkpt>
      <trkpt lat="43.261104030534625" lon="1.743869036436081">
        <ele>289.00999999999999</ele>
        <time>2025-04-26T08:42:34Z</time>
      </trkpt>
      <trkpt lat="43.261077040806413" lon="1.743727969005704">
        <ele>288.52999999999997</ele>
        <time>2025-04-26T08:42:35Z</time>
      </trkpt>
      <trkpt lat="43.260992970317602" lon="1.743625039234757">
        <ele>288.05000000000001</ele>
        <time>2025-04-26T08:42:36Z</time>
      </trkpt>
      <trkpt lat="43.260899009183049" lon="1.743542980402708">
        <ele>287.56999999999999</ele>
        <time>2025-04-26T08:42:37Z</time>
      </trkpt>
      <trkpt lat="43.260790966451168" lon="1.743496041744947">
        <ele>287.08999999999997</ele>
        <time>2025-04-26T08:42:38Z</time>
      </trkpt>
      <trkpt lat="43.2606649864465" lon="1.74344097264111">
        <ele>286.13</ele>
        <time>2025-04-26T08:42:39Z</time>
      </trkpt>
      <trkpt lat="43.260378995910287" lon="1.743315998464823">
        <ele>285.17000000000002</ele>
        <time>2025-04-26T08:42:41Z</time>
      </trkpt>
      <trkpt lat="43.26021202839911" lon="1.743242992088199">
        <ele>284.69</ele>
        <time>2025-04-26T08:42:42Z</time>
      </trkpt>
      <trkpt lat="43.260090993717313" lon="1.743131009861827">
        <ele>283.73000000000002</ele>
        <time>2025-04-26T08:42:43Z</time>
      </trkpt>
      <trkpt lat="43.259932994842529" lon="1.742984997108579">
        <ele>283.25</ele>
        <time>2025-04-26T08:42:44Z</time>
      </trkpt>
      <trkpt lat="43.259830987080932" lon="1.742831021547318">
        <ele>282.76999999999998</ele>
        <time>2025-04-26T08:42:45Z</time>
      </trkpt>
      <trkpt lat="43.25971900485456" lon="1.742662964388728">
        <ele>282.27999999999997</ele>
        <time>2025-04-26T08:42:46Z</time>
      </trkpt>
      <trkpt lat="43.259635018184781" lon="1.742443023249507">
        <ele>281.80000000000001</ele>
        <time>2025-04-26T08:42:47Z</time>
      </trkpt>
      <trkpt lat="43.259553965181112" lon="1.742232972756028">
        <ele>281.31999999999999</ele>
        <time>2025-04-26T08:42:48Z</time>
      </trkpt>
      <trkpt lat="43.259476013481617" lon="1.742028035223484">
        <ele>280.83999999999997</ele>
        <time>2025-04-26T08:42:49Z</time>
      </trkpt>
      <trkpt lat="43.259330000728369" lon="1.741605000570417">
        <ele>279.39999999999998</ele>
        <time>2025-04-26T08:42:51Z</time>
      </trkpt>
      <trkpt lat="43.259316002950072" lon="1.741391010582447">
        <ele>278.92000000000002</ele>
        <time>2025-04-26T08:42:52Z</time>
      </trkpt>
      <trkpt lat="43.259303011000156" lon="1.741184983402491">
        <ele>278.44</ele>
        <time>2025-04-26T08:42:53Z</time>
      </trkpt>
      <trkpt lat="43.259279038757086" lon="1.740788016468287">
        <ele>277</ele>
        <time>2025-04-26T08:42:55Z</time>
      </trkpt>
      <trkpt lat="43.259263029322028" lon="1.740616019815207">
        <ele>276.04000000000002</ele>
        <time>2025-04-26T08:42:56Z</time>
      </trkpt>
      <trkpt lat="43.259178036823869" lon="1.740467995405197">
        <ele>275.56</ele>
        <time>2025-04-26T08:42:57Z</time>
      </trkpt>
      <trkpt lat="43.259090026840568" lon="1.740317037329078">
        <ele>275.06999999999999</ele>
        <time>2025-04-26T08:42:58Z</time>
      </trkpt>
      <trkpt lat="43.259004028514028" lon="1.740167001262307">
        <ele>274.11000000000001</ele>
        <time>2025-04-26T08:42:59Z</time>
      </trkpt>
      <trkpt lat="43.258928004652262" lon="1.740006990730763">
        <ele>273.63</ele>
        <time>2025-04-26T08:43:00Z</time>
      </trkpt>
      <trkpt lat="43.258874025195837" lon="1.73983097076416">
        <ele>272.67000000000002</ele>
        <time>2025-04-26T08:43:01Z</time>
      </trkpt>
      <trkpt lat="43.258848041296005" lon="1.73963500186801">
        <ele>272.19</ele>
        <time>2025-04-26T08:43:02Z</time>
      </trkpt>
      <trkpt lat="43.258856004104018" lon="1.739431992173195">
        <ele>271.70999999999998</ele>
        <time>2025-04-26T08:43:03Z</time>
      </trkpt>
      <trkpt lat="43.258889028802514" lon="1.739231999963522">
        <ele>271.23000000000002</ele>
        <time>2025-04-26T08:43:04Z</time>
      </trkpt>
      <trkpt lat="43.258923981338739" lon="1.739021027460694">
        <ele>270.26999999999998</ele>
        <time>2025-04-26T08:43:05Z</time>
      </trkpt>
      <trkpt lat="43.25896798633039" lon="1.73858298920095">
        <ele>269.31</ele>
        <time>2025-04-26T08:43:07Z</time>
      </trkpt>
      <trkpt lat="43.258961029350758" lon="1.738390037789941">
        <ele>268.82999999999998</ele>
        <time>2025-04-26T08:43:08Z</time>
      </trkpt>
      <trkpt lat="43.258910989388824" lon="1.738209994509816">
        <ele>268.35000000000002</ele>
        <time>2025-04-26T08:43:09Z</time>
      </trkpt>
      <trkpt lat="43.258807975798845" lon="1.737838005647063">
        <ele>267.86000000000001</ele>
        <time>2025-04-26T08:43:11Z</time>
      </trkpt>
      <trkpt lat="43.258755002170801" lon="1.737646982073784">
        <ele>267.86000000000001</ele>
        <time>2025-04-26T08:43:12Z</time>
      </trkpt>
      <trkpt lat="43.258721977472305" lon="1.737436009570956">
        <ele>267.38</ele>
        <time>2025-04-26T08:43:13Z</time>
      </trkpt>
      <trkpt lat="43.258588034659624" lon="1.736558005213738">
        <ele>265.94</ele>
        <time>2025-04-26T08:43:17Z</time>
      </trkpt>
      <trkpt lat="43.258550986647606" lon="1.736354995518923">
        <ele>265.45999999999998</ele>
        <time>2025-04-26T08:43:18Z</time>
      </trkpt>
      <trkpt lat="43.258478986099362" lon="1.736192973330617">
        <ele>264.98000000000002</ele>
        <time>2025-04-26T08:43:19Z</time>
      </trkpt>
      <trkpt lat="43.258415032178164" lon="1.73604897223413">
        <ele>264.5</ele>
        <time>2025-04-26T08:43:20Z</time>
      </trkpt>
      <trkpt lat="43.258320987224579" lon="1.735941013321281">
        <ele>264.01999999999998</ele>
        <time>2025-04-26T08:43:21Z</time>
      </trkpt>
      <trkpt lat="43.258204981684685" lon="1.735855014994741">
        <ele>264.01999999999998</ele>
        <time>2025-04-26T08:43:22Z</time>
      </trkpt>
      <trkpt lat="43.257961990311742" lon="1.735663991421461">
        <ele>263.06</ele>
        <time>2025-04-26T08:43:24Z</time>
      </trkpt>
      <trkpt lat="43.257861994206905" lon="1.735528036952019">
        <ele>263.06</ele>
        <time>2025-04-26T08:43:25Z</time>
      </trkpt>
      <trkpt lat="43.25688298791647" lon="1.734382985159755">
        <ele>260.64999999999998</ele>
        <time>2025-04-26T08:43:33Z</time>
      </trkpt>
      <trkpt lat="43.25662599876523" lon="1.734132030978799">
        <ele>260.64999999999998</ele>
        <time>2025-04-26T08:43:35Z</time>
      </trkpt>
      <trkpt lat="43.256490966305137" lon="1.734064975753427">
        <ele>260.64999999999998</ele>
        <time>2025-04-26T08:43:36Z</time>
      </trkpt>
      <trkpt lat="43.256360040977597" lon="1.734013007953763">
        <ele>260.64999999999998</ele>
        <time>2025-04-26T08:43:37Z</time>
      </trkpt>
      <trkpt lat="43.256222996860743" lon="1.734002027660608">
        <ele>260.64999999999998</ele>
        <time>2025-04-26T08:43:38Z</time>
      </trkpt>
      <trkpt lat="43.25608997605741" lon="1.734010996297002">
        <ele>260.64999999999998</ele>
        <time>2025-04-26T08:43:39Z</time>
      </trkpt>
      <trkpt lat="43.25595997273922" lon="1.734058018773794">
        <ele>260.64999999999998</ele>
        <time>2025-04-26T08:43:40Z</time>
      </trkpt>
      <trkpt lat="43.255827035754919" lon="1.734105963259935">
        <ele>261.13999999999999</ele>
        <time>2025-04-26T08:43:41Z</time>
      </trkpt>
      <trkpt lat="43.255693009123206" lon="1.734153991565108">
        <ele>261.13999999999999</ele>
        <time>2025-04-26T08:43:42Z</time>
      </trkpt>
      <trkpt lat="43.255557976663113" lon="1.734193973243237">
        <ele>261.13999999999999</ele>
        <time>2025-04-26T08:43:43Z</time>
      </trkpt>
      <trkpt lat="43.255411963909864" lon="1.734216017648578">
        <ele>261.13999999999999</ele>
        <time>2025-04-26T08:43:44Z</time>
      </trkpt>
      <trkpt lat="43.255263017490506" lon="1.734218029305339">
        <ele>261.13999999999999</ele>
        <time>2025-04-26T08:43:45Z</time>
      </trkpt>
      <trkpt lat="43.255113987252116" lon="1.734185004606843">
        <ele>261.13999999999999</ele>
        <time>2025-04-26T08:43:46Z</time>
      </trkpt>
      <trkpt lat="43.254959005862474" lon="1.734151979908347">
        <ele>261.62</ele>
        <time>2025-04-26T08:43:47Z</time>
      </trkpt>
      <trkpt lat="43.25479899533093" lon="1.734117027372122">
        <ele>261.62</ele>
        <time>2025-04-26T08:43:48Z</time>
      </trkpt>
      <trkpt lat="43.254633033648133" lon="1.734079979360104">
        <ele>262.10000000000002</ele>
        <time>2025-04-26T08:43:49Z</time>
      </trkpt>
      <trkpt lat="43.254500012844801" lon="1.733987024053931">
        <ele>262.57999999999998</ele>
        <time>2025-04-26T08:43:50Z</time>
      </trkpt>
      <trkpt lat="43.254371015354991" lon="1.73387504182756">
        <ele>263.06</ele>
        <time>2025-04-26T08:43:51Z</time>
      </trkpt>
      <trkpt lat="43.254246963188052" lon="1.733732968568802">
        <ele>263.54000000000002</ele>
        <time>2025-04-26T08:43:52Z</time>
      </trkpt>
      <trkpt lat="43.254118971526623" lon="1.733585027977824">
        <ele>263.54000000000002</ele>
        <time>2025-04-26T08:43:53Z</time>
      </trkpt>
      <trkpt lat="43.253186987712979" lon="1.732165971770883">
        <ele>265.94</ele>
        <time>2025-04-26T08:44:01Z</time>
      </trkpt>
      <trkpt lat="43.252998981624842" lon="1.73183798789978">
        <ele>265.94</ele>
        <time>2025-04-26T08:44:03Z</time>
      </trkpt>
      <trkpt lat="43.252891022711992" lon="1.731717959046364">
        <ele>266.42000000000002</ele>
        <time>2025-04-26T08:44:04Z</time>
      </trkpt>
      <trkpt lat="43.252756996080279" lon="1.731650987640023">
        <ele>266.42000000000002</ele>
        <time>2025-04-26T08:44:05Z</time>
      </trkpt>
      <trkpt lat="43.252620035782456" lon="1.731603965163231">
        <ele>266.42000000000002</ele>
        <time>2025-04-26T08:44:06Z</time>
      </trkpt>
      <trkpt lat="43.252472011372447" lon="1.731584016233683">
        <ele>265.94</ele>
        <time>2025-04-26T08:44:07Z</time>
      </trkpt>
      <trkpt lat="43.251669025048614" lon="1.73138502985239">
        <ele>264.98000000000002</ele>
        <time>2025-04-26T08:44:12Z</time>
      </trkpt>
      <trkpt lat="43.251501973718405" lon="1.73129903152585">
        <ele>264.5</ele>
        <time>2025-04-26T08:44:13Z</time>
      </trkpt>
      <trkpt lat="43.250966034829617" lon="1.731037013232708">
        <ele>264.01999999999998</ele>
        <time>2025-04-26T08:44:16Z</time>
      </trkpt>
      <trkpt lat="43.250128012150526" lon="1.730831991881132">
        <ele>264.5</ele>
        <time>2025-04-26T08:44:21Z</time>
      </trkpt>
      <trkpt lat="43.249976970255375" lon="1.730861999094486">
        <ele>264.98000000000002</ele>
        <time>2025-04-26T08:44:22Z</time>
      </trkpt>
      <trkpt lat="43.249866999685764" lon="1.730928970500827">
        <ele>265.45999999999998</ele>
        <time>2025-04-26T08:44:23Z</time>
      </trkpt>
      <trkpt lat="43.249744959175587" lon="1.731002982705832">
        <ele>265.45999999999998</ele>
        <time>2025-04-26T08:44:24Z</time>
      </trkpt>
      <trkpt lat="43.249626019969583" lon="1.731076994910836">
        <ele>264.98000000000002</ele>
        <time>2025-04-26T08:44:25Z</time>
      </trkpt>
      <trkpt lat="43.249501967802644" lon="1.731138015165925">
        <ele>264.5</ele>
        <time>2025-04-26T08:44:26Z</time>
      </trkpt>
      <trkpt lat="43.249387973919511" lon="1.731189982965589">
        <ele>264.01999999999998</ele>
        <time>2025-04-26T08:44:27Z</time>
      </trkpt>
      <trkpt lat="43.24929803609848" lon="1.731185959652066">
        <ele>263.54000000000002</ele>
        <time>2025-04-26T08:44:28Z</time>
      </trkpt>
      <trkpt lat="43.249232992529869" lon="1.731163999065757">
        <ele>262.57999999999998</ele>
        <time>2025-04-26T08:44:29Z</time>
      </trkpt>
      <trkpt lat="43.249226035550237" lon="1.731161987408996">
        <ele>262.10000000000002</ele>
        <time>2025-04-26T08:44:30Z</time>
      </trkpt>
      <trkpt lat="43.249197034165263" lon="1.73104397021234">
        <ele>261.62</ele>
        <time>2025-04-26T08:44:31Z</time>
      </trkpt>
      <trkpt lat="43.249161997810006" lon="1.730904998257756">
        <ele>260.64999999999998</ele>
        <time>2025-04-26T08:44:32Z</time>
      </trkpt>
      <trkpt lat="43.24917197227478" lon="1.730799973011017">
        <ele>260.17000000000002</ele>
        <time>2025-04-26T08:44:33Z</time>
      </trkpt>
      <trkpt lat="43.249188987538218" lon="1.730616996064782">
        <ele>259.69</ele>
        <time>2025-04-26T08:44:34Z</time>
      </trkpt>
      <trkpt lat="43.249222012236714" lon="1.730410968884826">
        <ele>259.20999999999998</ele>
        <time>2025-04-26T08:44:35Z</time>
      </trkpt>
      <trkpt lat="43.249294012784958" lon="1.730234026908875">
        <ele>258.73000000000002</ele>
        <time>2025-04-26T08:44:36Z</time>
      </trkpt>
      <trkpt lat="43.249360984191298" lon="1.730068987235427">
        <ele>258.25</ele>
        <time>2025-04-26T08:44:37Z</time>
      </trkpt>
      <trkpt lat="43.249425021931529" lon="1.729913000017405">
        <ele>257.29000000000002</ele>
        <time>2025-04-26T08:44:38Z</time>
      </trkpt>
      <trkpt lat="43.249441031366587" lon="1.729759024456143">
        <ele>256.32999999999998</ele>
        <time>2025-04-26T08:44:39Z</time>
      </trkpt>
      <trkpt lat="43.249441031366587" lon="1.729552997276187">
        <ele>254.88999999999999</ele>
        <time>2025-04-26T08:44:40Z</time>
      </trkpt>
      <trkpt lat="43.249391997233033" lon="1.729418970644474">
        <ele>253.93000000000001</ele>
        <time>2025-04-26T08:44:41Z</time>
      </trkpt>
      <trkpt lat="43.249330976977944" lon="1.729250997304916">
        <ele>252.96000000000001</ele>
        <time>2025-04-26T08:44:42Z</time>
      </trkpt>
      <trkpt lat="43.249268028885126" lon="1.729076988995075">
        <ele>252.47999999999999</ele>
        <time>2025-04-26T08:44:43Z</time>
      </trkpt>
      <trkpt lat="43.249135008081794" lon="1.728711035102606">
        <ele>251.52000000000001</ele>
        <time>2025-04-26T08:44:45Z</time>
      </trkpt>
      <trkpt lat="43.24908203445375" lon="1.728510037064552">
        <ele>251.03999999999999</ele>
        <time>2025-04-26T08:44:46Z</time>
      </trkpt>
      <trkpt lat="43.24887097813189" lon="1.726906998082995">
        <ele>250.08000000000001</ele>
        <time>2025-04-26T08:44:53Z</time>
      </trkpt>
      <trkpt lat="43.248882964253426" lon="1.726699965074658">
        <ele>250.56</ele>
        <time>2025-04-26T08:44:54Z</time>
      </trkpt>
      <trkpt lat="43.248924035578966" lon="1.726497961208224">
        <ele>250.56</ele>
        <time>2025-04-26T08:44:55Z</time>
      </trkpt>
      <trkpt lat="43.248965023085475" lon="1.726296041160822">
        <ele>250.56</ele>
        <time>2025-04-26T08:44:56Z</time>
      </trkpt>
      <trkpt lat="43.249008022248745" lon="1.726088002324104">
        <ele>251.03999999999999</ele>
        <time>2025-04-26T08:44:57Z</time>
      </trkpt>
      <trkpt lat="43.249083962291479" lon="1.725661028176546">
        <ele>251.52000000000001</ele>
        <time>2025-04-26T08:44:59Z</time>
      </trkpt>
      <trkpt lat="43.24908597394824" lon="1.725442009046674">
        <ele>251.03999999999999</ele>
        <time>2025-04-26T08:45:00Z</time>
      </trkpt>
      <trkpt lat="43.249054038897157" lon="1.72524000518024">
        <ele>251.03999999999999</ele>
        <time>2025-04-26T08:45:01Z</time>
      </trkpt>
      <trkpt lat="43.2489999756217" lon="1.725028026849031">
        <ele>251.52000000000001</ele>
        <time>2025-04-26T08:45:02Z</time>
      </trkpt>
      <trkpt lat="43.248943984508514" lon="1.724812025204301">
        <ele>251.52000000000001</ele>
        <time>2025-04-26T08:45:03Z</time>
      </trkpt>
      <trkpt lat="43.248881036415696" lon="1.724601974710822">
        <ele>251.52000000000001</ele>
        <time>2025-04-26T08:45:04Z</time>
      </trkpt>
      <trkpt lat="43.248795960098505" lon="1.724391002207995">
        <ele>252</ele>
        <time>2025-04-26T08:45:05Z</time>
      </trkpt>
      <trkpt lat="43.248696969822049" lon="1.724199978634715">
        <ele>252.47999999999999</ele>
        <time>2025-04-26T08:45:06Z</time>
      </trkpt>
      <trkpt lat="43.2485890109092" lon="1.724009038880467">
        <ele>252.96000000000001</ele>
        <time>2025-04-26T08:45:07Z</time>
      </trkpt>
      <trkpt lat="43.248262032866478" lon="1.723432028666139">
        <ele>254.41</ele>
        <time>2025-04-26T08:45:10Z</time>
      </trkpt>
      <trkpt lat="43.248154995962977" lon="1.72324301674962">
        <ele>254.88999999999999</ele>
        <time>2025-04-26T08:45:11Z</time>
      </trkpt>
      <trkpt lat="43.247497016564012" lon="1.721486002206802">
        <ele>255.84999999999999</ele>
        <time>2025-04-26T08:45:19Z</time>
      </trkpt>
      <trkpt lat="43.247125027701259" lon="1.71937401406467">
        <ele>251.52000000000001</ele>
        <time>2025-04-26T08:45:28Z</time>
      </trkpt>
      <trkpt lat="43.246821016073227" lon="1.717510968446732">
        <ele>244.78999999999999</ele>
        <time>2025-04-26T08:45:38Z</time>
      </trkpt>
      <trkpt lat="43.246711967512965" lon="1.716128038242459">
        <ele>241.91</ele>
        <time>2025-04-26T08:45:47Z</time>
      </trkpt>
      <trkpt lat="43.246788997203112" lon="1.714825993403792">
        <ele>242.38999999999999</ele>
        <time>2025-04-26T08:45:55Z</time>
      </trkpt>
      <trkpt lat="43.246836019679904" lon="1.714344033971429">
        <ele>242.87</ele>
        <time>2025-04-26T08:45:58Z</time>
      </trkpt>
      <trkpt lat="43.24687298387289" lon="1.713998029008508">
        <ele>243.83000000000001</ele>
        <time>2025-04-26T08:46:00Z</time>
      </trkpt>
      <trkpt lat="43.247030982747674" lon="1.712256018072367">
        <ele>249.12</ele>
        <time>2025-04-26T08:46:09Z</time>
      </trkpt>
      <trkpt lat="43.247175989672542" lon="1.710559017956257">
        <ele>245.27000000000001</ele>
        <time>2025-04-26T08:46:17Z</time>
      </trkpt>
      <trkpt lat="43.247399032115936" lon="1.708140000700951">
        <ele>240.47</ele>
        <time>2025-04-26T08:46:27Z</time>
      </trkpt>
      <trkpt lat="43.247582009062171" lon="1.706007979810238">
        <ele>241.43000000000001</ele>
        <time>2025-04-26T08:46:36Z</time>
      </trkpt>
      <trkpt lat="43.247802034020424" lon="1.703444039449096">
        <ele>241.43000000000001</ele>
        <time>2025-04-26T08:46:46Z</time>
      </trkpt>
      <trkpt lat="43.248221967369318" lon="1.700809020549059">
        <ele>241.43000000000001</ele>
        <time>2025-04-26T08:46:56Z</time>
      </trkpt>
      <trkpt lat="43.248878018930554" lon="1.698070988059044">
        <ele>236.13999999999999</ele>
        <time>2025-04-26T08:47:07Z</time>
      </trkpt>
      <trkpt lat="43.249559970572591" lon="1.695259027183056">
        <ele>234.22</ele>
        <time>2025-04-26T08:47:18Z</time>
      </trkpt>
      <trkpt lat="43.249627025797963" lon="1.694986028596759">
        <ele>234.22</ele>
        <time>2025-04-26T08:47:19Z</time>
      </trkpt>
      <trkpt lat="43.250578036531806" lon="1.69110101647675">
        <ele>232.78</ele>
        <time>2025-04-26T08:47:34Z</time>
      </trkpt>
      <trkpt lat="43.251181030645967" lon="1.688568005338311">
        <ele>231.33000000000001</ele>
        <time>2025-04-26T08:47:44Z</time>
      </trkpt>
      <trkpt lat="43.25185501947999" lon="1.685725031420589">
        <ele>230.37</ele>
        <time>2025-04-26T08:47:56Z</time>
      </trkpt>
      <trkpt lat="43.252203036099672" lon="1.68426901102066">
        <ele>230.37</ele>
        <time>2025-04-26T08:48:05Z</time>
      </trkpt>
      <trkpt lat="43.252564966678619" lon="1.682932013645768">
        <ele>229.41</ele>
        <time>2025-04-26T08:48:14Z</time>
      </trkpt>
      <trkpt lat="43.252621041610837" lon="1.682795975357294">
        <ele>229.41</ele>
        <time>2025-04-26T08:48:15Z</time>
      </trkpt>
      <trkpt lat="43.252695975825191" lon="1.682671001181006">
        <ele>229.41</ele>
        <time>2025-04-26T08:48:16Z</time>
      </trkpt>
      <trkpt lat="43.253223029896617" lon="1.681849993765354">
        <ele>229.41</ele>
        <time>2025-04-26T08:48:23Z</time>
      </trkpt>
      <trkpt lat="43.253378011286259" lon="1.681613037362695">
        <ele>230.37</ele>
        <time>2025-04-26T08:48:25Z</time>
      </trkpt>
      <trkpt lat="43.253762992098927" lon="1.68102303519845">
        <ele>232.30000000000001</ele>
        <time>2025-04-26T08:48:32Z</time>
      </trkpt>
      <trkpt lat="43.253784030675888" lon="1.680993027985096">
        <ele>232.78</ele>
        <time>2025-04-26T08:48:33Z</time>
      </trkpt>
      <trkpt lat="43.253775984048843" lon="1.680941982194781">
        <ele>233.25999999999999</ele>
        <time>2025-04-26T08:48:34Z</time>
      </trkpt>
      <trkpt lat="43.253752011805773" lon="1.680906023830175">
        <ele>233.25999999999999</ele>
        <time>2025-04-26T08:48:35Z</time>
      </trkpt>
      <trkpt lat="43.253719992935658" lon="1.680856989696622">
        <ele>233.25999999999999</ele>
        <time>2025-04-26T08:48:36Z</time>
      </trkpt>
      <trkpt lat="43.253668025135994" lon="1.680779037997127">
        <ele>233.74000000000001</ele>
        <time>2025-04-26T08:48:37Z</time>
      </trkpt>
      <trkpt lat="43.253602981567383" lon="1.680693039670587">
        <ele>234.22</ele>
        <time>2025-04-26T08:48:39Z</time>
      </trkpt>
      <trkpt lat="43.253050027415156" lon="1.679976973682642">
        <ele>239.99000000000001</ele>
        <time>2025-04-26T08:48:52Z</time>
      </trkpt>
      <trkpt lat="43.252789014950395" lon="1.67962996289134">
        <ele>240.94999999999999</ele>
        <time>2025-04-26T08:48:59Z</time>
      </trkpt>
      <trkpt lat="43.2528440002352" lon="1.679459977895021">
        <ele>241.43000000000001</ele>
        <time>2025-04-26T08:49:01Z</time>
      </trkpt>
      <trkpt lat="43.252880964428186" lon="1.679394012317061">
        <ele>241.43000000000001</ele>
        <time>2025-04-26T08:49:02Z</time>
      </trkpt>
      <trkpt lat="43.252919018268585" lon="1.67932502925396">
        <ele>241.91</ele>
        <time>2025-04-26T08:49:03Z</time>
      </trkpt>
      <trkpt lat="43.253089003264904" lon="1.679020011797547">
        <ele>243.34999999999999</ele>
        <time>2025-04-26T08:49:07Z</time>
      </trkpt>
      <trkpt lat="43.253114987164736" lon="1.678976006805897">
        <ele>243.83000000000001</ele>
        <time>2025-04-26T08:49:08Z</time>
      </trkpt>
      <trkpt lat="43.253153041005135" lon="1.678912974894047">
        <ele>243.83000000000001</ele>
        <time>2025-04-26T08:49:09Z</time>
      </trkpt>
      <trkpt lat="43.253235016018152" lon="1.678775008767843">
        <ele>244.78999999999999</ele>
        <time>2025-04-26T08:49:11Z</time>
      </trkpt>
      <trkpt lat="43.253277009353042" lon="1.678705019876361">
        <ele>244.78999999999999</ele>
        <time>2025-04-26T08:49:12Z</time>
      </trkpt>
      <trkpt lat="43.253319002687931" lon="1.678636036813259">
        <ele>245.27000000000001</ele>
        <time>2025-04-26T08:49:13Z</time>
      </trkpt>
      <trkpt lat="43.253363007679582" lon="1.678566969931126">
        <ele>245.75</ele>
        <time>2025-04-26T08:49:14Z</time>
      </trkpt>
      <trkpt lat="43.253407012671232" lon="1.678501004353166">
        <ele>246.22999999999999</ele>
        <time>2025-04-26T08:49:15Z</time>
      </trkpt>
      <trkpt lat="43.253948986530304" lon="1.677676979452372">
        <ele>247.19999999999999</ele>
        <time>2025-04-26T08:49:25Z</time>
      </trkpt>
      <trkpt lat="43.254150990396738" lon="1.677317982539535">
        <ele>247.19999999999999</ele>
        <time>2025-04-26T08:49:29Z</time>
      </trkpt>
      <trkpt lat="43.254182003438473" lon="1.677251011133194">
        <ele>247.19999999999999</ele>
        <time>2025-04-26T08:49:30Z</time>
      </trkpt>
      <trkpt lat="43.254168005660176" lon="1.67715797200799">
        <ele>247.19999999999999</ele>
        <time>2025-04-26T08:49:31Z</time>
      </trkpt>
      <trkpt lat="43.254140010103583" lon="1.677077002823353">
        <ele>246.72</ele>
        <time>2025-04-26T08:49:32Z</time>
      </trkpt>
      <trkpt lat="43.254085024818778" lon="1.676992010325193">
        <ele>246.72</ele>
        <time>2025-04-26T08:49:33Z</time>
      </trkpt>
      <trkpt lat="43.254030961543322" lon="1.676908023655415">
        <ele>246.72</ele>
        <time>2025-04-26T08:49:34Z</time>
      </trkpt>
      <trkpt lat="43.253977987915277" lon="1.676824958994985">
        <ele>246.72</ele>
        <time>2025-04-26T08:49:35Z</time>
      </trkpt>
      <trkpt lat="43.25391998514533" lon="1.676752958446741">
        <ele>246.22999999999999</ele>
        <time>2025-04-26T08:49:36Z</time>
      </trkpt>
      <trkpt lat="43.253640029579401" lon="1.676421035081148">
        <ele>247.68000000000001</ele>
        <time>2025-04-26T08:49:41Z</time>
      </trkpt>
      <trkpt lat="43.253589989617467" lon="1.676363032311201">
        <ele>247.68000000000001</ele>
        <time>2025-04-26T08:49:42Z</time>
      </trkpt>
      <trkpt lat="43.253549002110958" lon="1.676313998177648">
        <ele>247.68000000000001</ele>
        <time>2025-04-26T08:49:43Z</time>
      </trkpt>
      <trkpt lat="43.253518994897604" lon="1.676278961822391">
        <ele>248.16</ele>
        <time>2025-04-26T08:49:44Z</time>
      </trkpt>
      <trkpt lat="43.253496028482914" lon="1.676251972094178">
        <ele>248.16</ele>
        <time>2025-04-26T08:49:45Z</time>
      </trkpt>
      <trkpt lat="43.253496028482914" lon="1.676251972094178">
        <ele>248.16</ele>
        <time>2025-04-26T08:49:46Z</time>
      </trkpt>
      <trkpt lat="43.253410030156374" lon="1.676145019009709">
        <ele>248.63999999999999</ele>
        <time>2025-04-26T08:49:47Z</time>
      </trkpt>
      <trkpt lat="43.253399971872568" lon="1.676135966554284">
        <ele>249.12</ele>
        <time>2025-04-26T08:49:48Z</time>
      </trkpt>
      <trkpt lat="43.253348004072905" lon="1.676092967391014">
        <ele>249.59999999999999</ele>
        <time>2025-04-26T08:49:49Z</time>
      </trkpt>
      <trkpt lat="43.253282038494945" lon="1.676036976277828">
        <ele>250.08000000000001</ele>
        <time>2025-04-26T08:49:50Z</time>
      </trkpt>
      <trkpt lat="43.253233004361391" lon="1.676005041226745">
        <ele>250.56</ele>
        <time>2025-04-26T08:49:51Z</time>
      </trkpt>
      <trkpt lat="43.253167038783431" lon="1.675961036235094">
        <ele>250.56</ele>
        <time>2025-04-26T08:49:52Z</time>
      </trkpt>
      <trkpt lat="43.253023959696293" lon="1.675895992666483">
        <ele>251.52000000000001</ele>
        <time>2025-04-26T08:49:55Z</time>
      </trkpt>
      <trkpt lat="43.252931004390121" lon="1.67584796436131">
        <ele>252.47999999999999</ele>
        <time>2025-04-26T08:49:57Z</time>
      </trkpt>
      <trkpt lat="43.252867972478271" lon="1.675814017653465">
        <ele>252.47999999999999</ele>
        <time>2025-04-26T08:49:58Z</time>
      </trkpt>
      <trkpt lat="43.252803012728691" lon="1.675777975469828">
        <ele>252</ele>
        <time>2025-04-26T08:49:59Z</time>
      </trkpt>
      <trkpt lat="43.25273503549397" lon="1.675741011276841">
        <ele>251.52000000000001</ele>
        <time>2025-04-26T08:50:00Z</time>
      </trkpt>
      <trkpt lat="43.252666974440217" lon="1.675703963264823">
        <ele>250.08000000000001</ele>
        <time>2025-04-26T08:50:01Z</time>
      </trkpt>
      <trkpt lat="43.252602014690638" lon="1.675669010728598">
        <ele>249.12</ele>
        <time>2025-04-26T08:50:02Z</time>
      </trkpt>
      <trkpt lat="43.252533031627536" lon="1.675631040707231">
        <ele>248.16</ele>
        <time>2025-04-26T08:50:03Z</time>
      </trkpt>
      <trkpt lat="43.252385007217526" lon="1.675612013787031">
        <ele>246.22999999999999</ele>
        <time>2025-04-26T08:50:05Z</time>
      </trkpt>
      <trkpt lat="43.252187026664615" lon="1.67558703571558">
        <ele>244.78999999999999</ele>
        <time>2025-04-26T08:50:08Z</time>
      </trkpt>
      <trkpt lat="43.252073032781482" lon="1.675606984645128">
        <ele>244.31</ele>
        <time>2025-04-26T08:50:09Z</time>
      </trkpt>
      <trkpt lat="43.252005977556109" lon="1.675619976595044">
        <ele>243.83000000000001</ele>
        <time>2025-04-26T08:50:10Z</time>
      </trkpt>
      <trkpt lat="43.251654021441936" lon="1.675708992406726">
        <ele>241.43000000000001</ele>
        <time>2025-04-26T08:50:15Z</time>
      </trkpt>
      <trkpt lat="43.251589983701706" lon="1.675747968256474">
        <ele>240.94999999999999</ele>
        <time>2025-04-26T08:50:16Z</time>
      </trkpt>
      <trkpt lat="43.251224029809237" lon="1.676013004034758">
        <ele>240.47</ele>
        <time>2025-04-26T08:50:22Z</time>
      </trkpt>
      <trkpt lat="43.251156974583864" lon="1.676062038168311">
        <ele>240.94999999999999</ele>
        <time>2025-04-26T08:50:23Z</time>
      </trkpt>
      <trkpt lat="43.250645007938147" lon="1.676434027031064">
        <ele>241.43000000000001</ele>
        <time>2025-04-26T08:50:31Z</time>
      </trkpt>
      <trkpt lat="43.250585999339819" lon="1.676476020365953">
        <ele>241.91</ele>
        <time>2025-04-26T08:50:32Z</time>
      </trkpt>
      <trkpt lat="43.250491032376885" lon="1.676543997600675">
        <ele>242.38999999999999</ele>
        <time>2025-04-26T08:50:34Z</time>
      </trkpt>
      <trkpt lat="43.250460019335151" lon="1.676565958186984">
        <ele>242.38999999999999</ele>
        <time>2025-04-26T08:50:35Z</time>
      </trkpt>
      <trkpt lat="43.250449039041996" lon="1.676574004814029">
        <ele>242.87</ele>
        <time>2025-04-26T08:50:36Z</time>
      </trkpt>
      <trkpt lat="43.250390030443668" lon="1.676514996215701">
        <ele>242.87</ele>
        <time>2025-04-26T08:50:37Z</time>
      </trkpt>
      <trkpt lat="43.250361029058695" lon="1.676484989002347">
        <ele>243.34999999999999</ele>
        <time>2025-04-26T08:50:38Z</time>
      </trkpt>
      <trkpt lat="43.250328004360199" lon="1.676452970132232">
        <ele>243.34999999999999</ele>
        <time>2025-04-26T08:50:39Z</time>
      </trkpt>
      <trkpt lat="43.250289028510451" lon="1.676413994282484">
        <ele>243.83000000000001</ele>
        <time>2025-04-26T08:50:40Z</time>
      </trkpt>
      <trkpt lat="43.250248963013291" lon="1.676370995119214">
        <ele>244.31</ele>
        <time>2025-04-26T08:50:41Z</time>
      </trkpt>
      <trkpt lat="43.250170005485415" lon="1.676263958215714">
        <ele>244.78999999999999</ele>
        <time>2025-04-26T08:50:43Z</time>
      </trkpt>
      <trkpt lat="43.24992198497057" lon="1.675935974344611">
        <ele>245.75</ele>
        <time>2025-04-26T08:50:50Z</time>
      </trkpt>
      <trkpt lat="43.24987999163568" lon="1.675880989059806">
        <ele>246.22999999999999</ele>
        <time>2025-04-26T08:50:51Z</time>
      </trkpt>
      <trkpt lat="43.249839004129171" lon="1.675828015431762">
        <ele>246.22999999999999</ele>
        <time>2025-04-26T08:50:52Z</time>
      </trkpt>
      <trkpt lat="43.249305998906493" lon="1.675139022991061">
        <ele>247.68000000000001</ele>
        <time>2025-04-26T08:51:03Z</time>
      </trkpt>
      <trkpt lat="43.248957982286811" lon="1.674688998609781">
        <ele>244.31</ele>
        <time>2025-04-26T08:51:12Z</time>
      </trkpt>
      <trkpt lat="43.248925963416696" lon="1.674648011103272">
        <ele>244.31</ele>
        <time>2025-04-26T08:51:13Z</time>
      </trkpt>
      <trkpt lat="43.248898973688483" lon="1.674612974748015">
        <ele>243.83000000000001</ele>
        <time>2025-04-26T08:51:14Z</time>
      </trkpt>
      <trkpt lat="43.248837031424046" lon="1.674533011391759">
        <ele>242.38999999999999</ele>
        <time>2025-04-26T08:51:17Z</time>
      </trkpt>
      <trkpt lat="43.248819010332227" lon="1.674509961158037">
        <ele>241.91</ele>
        <time>2025-04-26T08:51:18Z</time>
      </trkpt>
      <trkpt lat="43.248800989240408" lon="1.674485988914967">
        <ele>241.91</ele>
        <time>2025-04-26T08:51:19Z</time>
      </trkpt>
      <trkpt lat="43.248781962320209" lon="1.674462016671896">
        <ele>241.91</ele>
        <time>2025-04-26T08:51:20Z</time>
      </trkpt>
      <trkpt lat="43.248766958713531" lon="1.674442989751697">
        <ele>241.91</ele>
        <time>2025-04-26T08:51:21Z</time>
      </trkpt>
      <trkpt lat="43.248766958713531" lon="1.674442989751697">
        <ele>241.91</ele>
        <time>2025-04-26T08:51:33Z</time>
      </trkpt>
      <trkpt lat="43.248766958713531" lon="1.674442989751697">
        <ele>241.91</ele>
        <time>2025-04-26T08:52:15Z</time>
      </trkpt>
      <trkpt lat="43.248638967052102" lon="1.674274010583758">
        <ele>247.19999999999999</ele>
        <time>2025-04-26T08:52:34Z</time>
      </trkpt>
      <trkpt lat="43.248536037281156" lon="1.674139983952045">
        <ele>248.63999999999999</ele>
        <time>2025-04-26T08:52:38Z</time>
      </trkpt>
      <trkpt lat="43.248239988461137" lon="1.673753997310996">
        <ele>248.16</ele>
        <time>2025-04-26T08:52:45Z</time>
      </trkpt>
      <trkpt lat="43.247976964339614" lon="1.673412015661597">
        <ele>248.16</ele>
        <time>2025-04-26T08:52:50Z</time>
      </trkpt>
      <trkpt lat="43.247917033731937" lon="1.67333398014307">
        <ele>248.16</ele>
        <time>2025-04-26T08:52:51Z</time>
      </trkpt>
      <trkpt lat="43.247875962406397" lon="1.673278994858265">
        <ele>248.16</ele>
        <time>2025-04-26T08:52:52Z</time>
      </trkpt>
      <trkpt lat="43.247828017920256" lon="1.673215962946415">
        <ele>248.16</ele>
        <time>2025-04-26T08:52:53Z</time>
      </trkpt>
      <trkpt lat="43.247778983786702" lon="1.673152009025216">
        <ele>248.63999999999999</ele>
        <time>2025-04-26T08:52:54Z</time>
      </trkpt>
      <trkpt lat="43.247555019333959" lon="1.672858977690339">
        <ele>248.63999999999999</ele>
        <time>2025-04-26T08:52:58Z</time>
      </trkpt>
      <trkpt lat="43.24749500490725" lon="1.672779014334083">
        <ele>248.63999999999999</ele>
        <time>2025-04-26T08:52:59Z</time>
      </trkpt>
      <trkpt lat="43.247439013794065" lon="1.672706007957459">
        <ele>248.63999999999999</ele>
        <time>2025-04-26T08:53:00Z</time>
      </trkpt>
      <trkpt lat="43.247383022680879" lon="1.672633001580834">
        <ele>248.63999999999999</ele>
        <time>2025-04-26T08:53:01Z</time>
      </trkpt>
      <trkpt lat="43.247328959405422" lon="1.672561001032591">
        <ele>248.63999999999999</ele>
        <time>2025-04-26T08:53:02Z</time>
      </trkpt>
      <trkpt lat="43.247219994664192" lon="1.672420017421246">
        <ele>249.59999999999999</ele>
        <time>2025-04-26T08:53:04Z</time>
      </trkpt>
      <trkpt lat="43.247162997722626" lon="1.672352962195873">
        <ele>250.08000000000001</ele>
        <time>2025-04-26T08:53:05Z</time>
      </trkpt>
      <trkpt lat="43.246995024383068" lon="1.672142995521426">
        <ele>250.08000000000001</ele>
        <time>2025-04-26T08:53:08Z</time>
      </trkpt>
      <trkpt lat="43.246482973918319" lon="1.671489039435983">
        <ele>253.93000000000001</ele>
        <time>2025-04-26T08:53:17Z</time>
      </trkpt>
      <trkpt lat="43.246414996683598" lon="1.671402035281062">
        <ele>254.41</ele>
        <time>2025-04-26T08:53:18Z</time>
      </trkpt>
      <trkpt lat="43.245655009523034" lon="1.670419005677104">
        <ele>252</ele>
        <time>2025-04-26T08:53:27Z</time>
      </trkpt>
      <trkpt lat="43.245059978216887" lon="1.669648960232735">
        <ele>249.12</ele>
        <time>2025-04-26T08:53:34Z</time>
      </trkpt>
      <trkpt lat="43.244496965780854" lon="1.668921997770667">
        <ele>252</ele>
        <time>2025-04-26T08:53:41Z</time>
      </trkpt>
      <trkpt lat="43.244237964972854" lon="1.66858496144414">
        <ele>252.96000000000001</ele>
        <time>2025-04-26T08:53:44Z</time>
      </trkpt>
      <trkpt lat="43.243479989469051" lon="1.667611990123987">
        <ele>248.16</ele>
        <time>2025-04-26T08:53:51Z</time>
      </trkpt>
      <trkpt lat="43.243357026949525" lon="1.667454997077584">
        <ele>247.19999999999999</ele>
        <time>2025-04-26T08:53:52Z</time>
      </trkpt>
      <trkpt lat="43.242329992353916" lon="1.666139960289002">
        <ele>240.47</ele>
        <time>2025-04-26T08:54:00Z</time>
      </trkpt>
      <trkpt lat="43.242206024006009" lon="1.665977016091347">
        <ele>239.99000000000001</ele>
        <time>2025-04-26T08:54:01Z</time>
      </trkpt>
      <trkpt lat="43.241296000778675" lon="1.664787959307432">
        <ele>236.62</ele>
        <time>2025-04-26T08:54:08Z</time>
      </trkpt>
      <trkpt lat="43.240659981966019" lon="1.663962006568909">
        <ele>235.66</ele>
        <time>2025-04-26T08:54:14Z</time>
      </trkpt>
      <trkpt lat="43.239948023110628" lon="1.663035973906517">
        <ele>239.02000000000001</ele>
        <time>2025-04-26T08:54:23Z</time>
      </trkpt>
      <trkpt lat="43.239040011540055" lon="1.66190299205482">
        <ele>239.99000000000001</ele>
        <time>2025-04-26T08:54:33Z</time>
      </trkpt>
      <trkpt lat="43.237884985283017" lon="1.66039701551199">
        <ele>241.43000000000001</ele>
        <time>2025-04-26T08:54:43Z</time>
      </trkpt>
      <trkpt lat="43.236574977636337" lon="1.658698003739119">
        <ele>245.27000000000001</ele>
        <time>2025-04-26T08:54:54Z</time>
      </trkpt>
      <trkpt lat="43.235349962487817" lon="1.657152967527509">
        <ele>247.19999999999999</ele>
        <time>2025-04-26T08:55:05Z</time>
      </trkpt>
      <trkpt lat="43.23477697558701" lon="1.656419970095158">
        <ele>250.08000000000001</ele>
        <time>2025-04-26T08:55:13Z</time>
      </trkpt>
      <trkpt lat="43.234726013615727" lon="1.656356016173959">
        <ele>250.08000000000001</ele>
        <time>2025-04-26T08:55:14Z</time>
      </trkpt>
      <trkpt lat="43.234742023050785" lon="1.65614596568048">
        <ele>250.08000000000001</ele>
        <time>2025-04-26T08:55:15Z</time>
      </trkpt>
      <trkpt lat="43.234591986984015" lon="1.655653025954962">
        <ele>250.56</ele>
        <time>2025-04-26T08:55:19Z</time>
      </trkpt>
      <trkpt lat="43.234634986147285" lon="1.655438030138612">
        <ele>250.56</ele>
        <time>2025-04-26T08:55:20Z</time>
      </trkpt>
      <trkpt lat="43.234639009460807" lon="1.655341973528266">
        <ele>250.56</ele>
        <time>2025-04-26T08:55:21Z</time>
      </trkpt>
      <trkpt lat="43.23464697226882" lon="1.655162014067173">
        <ele>250.56</ele>
        <time>2025-04-26T08:55:22Z</time>
      </trkpt>
      <trkpt lat="43.234656024724245" lon="1.654965961351991">
        <ele>250.56</ele>
        <time>2025-04-26T08:55:23Z</time>
      </trkpt>
      <trkpt lat="43.234640015289187" lon="1.654774015769362">
        <ele>250.56</ele>
        <time>2025-04-26T08:55:24Z</time>
      </trkpt>
      <trkpt lat="43.234623000025749" lon="1.654566982761025">
        <ele>250.56</ele>
        <time>2025-04-26T08:55:25Z</time>
      </trkpt>
      <trkpt lat="43.234420996159315" lon="1.652180990204215">
        <ele>250.08000000000001</ele>
        <time>2025-04-26T08:55:35Z</time>
      </trkpt>
      <trkpt lat="43.234057975932956" lon="1.648333026096225">
        <ele>250.56</ele>
        <time>2025-04-26T08:55:49Z</time>
      </trkpt>
      <trkpt lat="43.233746001496911" lon="1.644788989797235">
        <ele>249.59999999999999</ele>
        <time>2025-04-26T08:56:02Z</time>
      </trkpt>
      <trkpt lat="43.233648017048836" lon="1.643567997962236">
        <ele>248.63999999999999</ele>
        <time>2025-04-26T08:56:09Z</time>
      </trkpt>
      <trkpt lat="43.233519019559026" lon="1.643378986045718">
        <ele>248.63999999999999</ele>
        <time>2025-04-26T08:56:10Z</time>
      </trkpt>
      <trkpt lat="43.23316304013133" lon="1.641821041703224">
        <ele>250.56</ele>
        <time>2025-04-26T08:56:18Z</time>
      </trkpt>
      <trkpt lat="43.233034964650869" lon="1.639813994988799">
        <ele>254.41</ele>
        <time>2025-04-26T08:56:26Z</time>
      </trkpt>
      <trkpt lat="43.232922982424498" lon="1.636952999979258">
        <ele>250.56</ele>
        <time>2025-04-26T08:56:37Z</time>
      </trkpt>
      <trkpt lat="43.232749979943037" lon="1.634416971355677">
        <ele>248.63999999999999</ele>
        <time>2025-04-26T08:56:48Z</time>
      </trkpt>
      <trkpt lat="43.23277504183352" lon="1.634252015501261">
        <ele>248.63999999999999</ele>
        <time>2025-04-26T08:56:49Z</time>
      </trkpt>
      <trkpt lat="43.232811000198126" lon="1.634112037718296">
        <ele>248.63999999999999</ele>
        <time>2025-04-26T08:56:50Z</time>
      </trkpt>
      <trkpt lat="43.232872020453215" lon="1.633995026350021">
        <ele>248.63999999999999</ele>
        <time>2025-04-26T08:56:51Z</time>
      </trkpt>
      <trkpt lat="43.232932034879923" lon="1.633882038295269">
        <ele>248.63999999999999</ele>
        <time>2025-04-26T08:56:52Z</time>
      </trkpt>
      <trkpt lat="43.232988025993109" lon="1.633775001391769">
        <ele>248.63999999999999</ele>
        <time>2025-04-26T08:56:53Z</time>
      </trkpt>
      <trkpt lat="43.233085004612803" lon="1.633727978914976">
        <ele>248.63999999999999</ele>
        <time>2025-04-26T08:56:54Z</time>
      </trkpt>
      <trkpt lat="43.233161028474569" lon="1.633652038872242">
        <ele>248.63999999999999</ele>
        <time>2025-04-26T08:56:55Z</time>
      </trkpt>
      <trkpt lat="43.233233029022813" lon="1.633565034717321">
        <ele>248.63999999999999</ele>
        <time>2025-04-26T08:56:56Z</time>
      </trkpt>
      <trkpt lat="43.233254989609122" lon="1.633422961458564">
        <ele>248.63999999999999</ele>
        <time>2025-04-26T08:56:57Z</time>
      </trkpt>
      <trkpt lat="43.233246020972729" lon="1.63330796174705">
        <ele>248.63999999999999</ele>
        <time>2025-04-26T08:56:58Z</time>
      </trkpt>
      <trkpt lat="43.233202015981078" lon="1.633184999227524">
        <ele>248.63999999999999</ele>
        <time>2025-04-26T08:56:59Z</time>
      </trkpt>
      <trkpt lat="43.233138984069228" lon="1.633110987022519">
        <ele>248.63999999999999</ele>
        <time>2025-04-26T08:57:00Z</time>
      </trkpt>
      <trkpt lat="43.233048962429166" lon="1.633071005344391">
        <ele>248.16</ele>
        <time>2025-04-26T08:57:01Z</time>
      </trkpt>
      <trkpt lat="43.232939997687936" lon="1.633058013394475">
        <ele>248.16</ele>
        <time>2025-04-26T08:57:02Z</time>
      </trkpt>
      <trkpt lat="43.232867997139692" lon="1.632979977875948">
        <ele>247.68000000000001</ele>
        <time>2025-04-26T08:57:03Z</time>
      </trkpt>
      <trkpt lat="43.232789039611816" lon="1.632892973721027">
        <ele>247.68000000000001</ele>
        <time>2025-04-26T08:57:04Z</time>
      </trkpt>
      <trkpt lat="43.232701029628515" lon="1.632763976231217">
        <ele>247.68000000000001</ele>
        <time>2025-04-26T08:57:05Z</time>
      </trkpt>
      <trkpt lat="43.232686026021838" lon="1.632604971528053">
        <ele>247.19999999999999</ele>
        <time>2025-04-26T08:57:06Z</time>
      </trkpt>
      <trkpt lat="43.232670016586781" lon="1.63242400623858">
        <ele>247.19999999999999</ele>
        <time>2025-04-26T08:57:07Z</time>
      </trkpt>
      <trkpt lat="43.232651995494962" lon="1.632224014028907">
        <ele>246.72</ele>
        <time>2025-04-26T08:57:08Z</time>
      </trkpt>
      <trkpt lat="43.232450997456908" lon="1.629994008690119">
        <ele>245.27000000000001</ele>
        <time>2025-04-26T08:57:17Z</time>
      </trkpt>
      <trkpt lat="43.232121001929045" lon="1.626335978507996">
        <ele>245.75</ele>
        <time>2025-04-26T08:57:30Z</time>
      </trkpt>
      <trkpt lat="43.231844985857606" lon="1.62322998046875">
        <ele>247.68000000000001</ele>
        <time>2025-04-26T08:57:41Z</time>
      </trkpt>
      <trkpt lat="43.231361014768481" lon="1.620719013735652">
        <ele>247.19999999999999</ele>
        <time>2025-04-26T08:57:50Z</time>
      </trkpt>
      <trkpt lat="43.230261979624629" lon="1.616362016648054">
        <ele>245.75</ele>
        <time>2025-04-26T08:58:06Z</time>
      </trkpt>
      <trkpt lat="43.229413982480764" lon="1.61295996978879">
        <ele>245.75</ele>
        <time>2025-04-26T08:58:19Z</time>
      </trkpt>
      <trkpt lat="43.228750973939896" lon="1.610292010009289">
        <ele>247.19999999999999</ele>
        <time>2025-04-26T08:58:30Z</time>
      </trkpt>
      <trkpt lat="43.228248981758952" lon="1.608380014076829">
        <ele>246.72</ele>
        <time>2025-04-26T08:58:39Z</time>
      </trkpt>
      <trkpt lat="43.227883027866483" lon="1.60696498118341">
        <ele>247.19999999999999</ele>
        <time>2025-04-26T08:58:49Z</time>
      </trkpt>
      <trkpt lat="43.227826030924916" lon="1.606762977316976">
        <ele>247.19999999999999</ele>
        <time>2025-04-26T08:58:51Z</time>
      </trkpt>
      <trkpt lat="43.227787977084517" lon="1.606711009517312">
        <ele>247.19999999999999</ele>
        <time>2025-04-26T08:58:52Z</time>
      </trkpt>
      <trkpt lat="43.227754030376673" lon="1.606662981212139">
        <ele>246.72</ele>
        <time>2025-04-26T08:58:53Z</time>
      </trkpt>
      <trkpt lat="43.227718994021416" lon="1.606615958735347">
        <ele>246.72</ele>
        <time>2025-04-26T08:58:54Z</time>
      </trkpt>
      <trkpt lat="43.2276869751513" lon="1.606571031734347">
        <ele>246.72</ele>
        <time>2025-04-26T08:58:55Z</time>
      </trkpt>
      <trkpt lat="43.22759703733027" lon="1.606686031445861">
        <ele>246.72</ele>
        <time>2025-04-26T08:58:56Z</time>
      </trkpt>
      <trkpt lat="43.227567030116916" lon="1.606719978153706">
        <ele>246.72</ele>
        <time>2025-04-26T08:58:57Z</time>
      </trkpt>
      <trkpt lat="43.227503998205066" lon="1.606790972873569">
        <ele>246.72</ele>
        <time>2025-04-26T08:58:58Z</time>
      </trkpt>
      <trkpt lat="43.227437026798725" lon="1.606865990906954">
        <ele>246.72</ele>
        <time>2025-04-26T08:58:59Z</time>
      </trkpt>
      <trkpt lat="43.227312974631786" lon="1.606887029483914">
        <ele>246.72</ele>
        <time>2025-04-26T08:59:00Z</time>
      </trkpt>
      <trkpt lat="43.227220019325614" lon="1.606892980635166">
        <ele>247.19999999999999</ele>
        <time>2025-04-26T08:59:01Z</time>
      </trkpt>
      <trkpt lat="43.227099990472198" lon="1.606898009777069">
        <ele>247.68000000000001</ele>
        <time>2025-04-26T08:59:02Z</time>
      </trkpt>
      <trkpt lat="43.22701801545918" lon="1.606830032542348">
        <ele>247.68000000000001</ele>
        <time>2025-04-26T08:59:03Z</time>
      </trkpt>
      <trkpt lat="43.226938974112272" lon="1.606714027002454">
        <ele>248.16</ele>
        <time>2025-04-26T08:59:04Z</time>
      </trkpt>
      <trkpt lat="43.22688901796937" lon="1.606600033119321">
        <ele>249.12</ele>
        <time>2025-04-26T08:59:05Z</time>
      </trkpt>
      <trkpt lat="43.226877031847835" lon="1.606443040072918">
        <ele>249.59999999999999</ele>
        <time>2025-04-26T08:59:06Z</time>
      </trkpt>
      <trkpt lat="43.226866973564029" lon="1.60632099956274">
        <ele>249.59999999999999</ele>
        <time>2025-04-26T08:59:07Z</time>
      </trkpt>
      <trkpt lat="43.226893041282892" lon="1.606179010123015">
        <ele>250.08000000000001</ele>
        <time>2025-04-26T08:59:08Z</time>
      </trkpt>
      <trkpt lat="43.226936040446162" lon="1.606055963784456">
        <ele>250.56</ele>
        <time>2025-04-26T08:59:09Z</time>
      </trkpt>
      <trkpt lat="43.22701801545918" lon="1.605966025963426">
        <ele>251.03999999999999</ele>
        <time>2025-04-26T08:59:10Z</time>
      </trkpt>
      <trkpt lat="43.2271050196141" lon="1.605868963524699">
        <ele>251.52000000000001</ele>
        <time>2025-04-26T08:59:11Z</time>
      </trkpt>
      <trkpt lat="43.227217001840472" lon="1.605792017653585">
        <ele>252</ele>
        <time>2025-04-26T08:59:12Z</time>
      </trkpt>
      <trkpt lat="43.227338958531618" lon="1.605706019327045">
        <ele>252.47999999999999</ele>
        <time>2025-04-26T08:59:13Z</time>
      </trkpt>
      <trkpt lat="43.228690037503839" lon="1.604818040505052">
        <ele>255.37</ele>
        <time>2025-04-26T08:59:22Z</time>
      </trkpt>
      <trkpt lat="43.23049801401794" lon="1.603519013151527">
        <ele>256.32999999999998</ele>
        <time>2025-04-26T08:59:33Z</time>
      </trkpt>
      <trkpt lat="43.232366004958749" lon="1.601669965311885">
        <ele>254.41</ele>
        <time>2025-04-26T08:59:45Z</time>
      </trkpt>
      <trkpt lat="43.233991004526615" lon="1.599392015486956">
        <ele>247.19999999999999</ele>
        <time>2025-04-26T08:59:57Z</time>
      </trkpt>
      <trkpt lat="43.235328001901507" lon="1.596834026277065">
        <ele>239.50999999999999</ele>
        <time>2025-04-26T09:00:08Z</time>
      </trkpt>
      <trkpt lat="43.236844036728144" lon="1.593367019668222">
        <ele>234.69999999999999</ele>
        <time>2025-04-26T09:00:22Z</time>
      </trkpt>
      <trkpt lat="43.238668022677302" lon="1.589187970384955">
        <ele>232.30000000000001</ele>
        <time>2025-04-26T09:00:39Z</time>
      </trkpt>
      <trkpt lat="43.240327974781394" lon="1.585384011268616">
        <ele>230.84999999999999</ele>
        <time>2025-04-26T09:00:55Z</time>
      </trkpt>
      <trkpt lat="43.241391973569989" lon="1.582963988184929">
        <ele>229.41</ele>
        <time>2025-04-26T09:01:06Z</time>
      </trkpt>
      <trkpt lat="43.242572983726859" lon="1.580275995656848">
        <ele>227.97</ele>
        <time>2025-04-26T09:01:17Z</time>
      </trkpt>
      <trkpt lat="43.243404971435666" lon="1.578400963917375">
        <ele>226.53</ele>
        <time>2025-04-26T09:01:25Z</time>
      </trkpt>
      <trkpt lat="43.245182018727064" lon="1.574834967032075">
        <ele>227.00999999999999</ele>
        <time>2025-04-26T09:01:41Z</time>
      </trkpt>
      <trkpt lat="43.24715101160109" lon="1.571628972887993">
        <ele>228.44999999999999</ele>
        <time>2025-04-26T09:01:56Z</time>
      </trkpt>
      <trkpt lat="43.248980026692152" lon="1.56923501752317">
        <ele>229.88999999999999</ele>
        <time>2025-04-26T09:02:08Z</time>
      </trkpt>
      <trkpt lat="43.250688007101417" lon="1.567330984398723">
        <ele>232.30000000000001</ele>
        <time>2025-04-26T09:02:19Z</time>
      </trkpt>
      <trkpt lat="43.251634994521737" lon="1.566415010020137">
        <ele>233.25999999999999</ele>
        <time>2025-04-26T09:02:27Z</time>
      </trkpt>
      <trkpt lat="43.252560021355748" lon="1.565610012039542">
        <ele>233.25999999999999</ele>
        <time>2025-04-26T09:02:36Z</time>
      </trkpt>
      <trkpt lat="43.252637973055243" lon="1.565548991784453">
        <ele>233.25999999999999</ele>
        <time>2025-04-26T09:02:37Z</time>
      </trkpt>
      <trkpt lat="43.252709973603487" lon="1.565493000671268">
        <ele>233.74000000000001</ele>
        <time>2025-04-26T09:02:38Z</time>
      </trkpt>
      <trkpt lat="43.25286503881216" lon="1.56556298956275">
        <ele>233.25999999999999</ele>
        <time>2025-04-26T09:02:40Z</time>
      </trkpt>
      <trkpt lat="43.252968974411488" lon="1.565508004277945">
        <ele>233.25999999999999</ele>
        <time>2025-04-26T09:02:41Z</time>
      </trkpt>
      <trkpt lat="43.253003004938364" lon="1.565379006788135">
        <ele>233.25999999999999</ele>
        <time>2025-04-26T09:02:42Z</time>
      </trkpt>
      <trkpt lat="43.253003004938364" lon="1.565297031775117">
        <ele>232.78</ele>
        <time>2025-04-26T09:02:43Z</time>
      </trkpt>
      <trkpt lat="43.252967968583107" lon="1.565209021791816">
        <ele>233.25999999999999</ele>
        <time>2025-04-26T09:02:44Z</time>
      </trkpt>
      <trkpt lat="43.252927986904979" lon="1.565157976001501">
        <ele>233.25999999999999</ele>
        <time>2025-04-26T09:02:45Z</time>
      </trkpt>
      <trkpt lat="43.252917006611824" lon="1.565143978223205">
        <ele>233.25999999999999</ele>
        <time>2025-04-26T09:02:46Z</time>
      </trkpt>
      <trkpt lat="43.252917006611824" lon="1.565143978223205">
        <ele>233.25999999999999</ele>
        <time>2025-04-26T09:02:47Z</time>
      </trkpt>
      <trkpt lat="43.25273796916008" lon="1.565027972683311">
        <ele>233.25999999999999</ele>
        <time>2025-04-26T09:02:48Z</time>
      </trkpt>
      <trkpt lat="43.252707961946726" lon="1.564931999891996">
        <ele>232.78</ele>
        <time>2025-04-26T09:02:49Z</time>
      </trkpt>
      <trkpt lat="43.252675021067262" lon="1.564827980473638">
        <ele>232.78</ele>
        <time>2025-04-26T09:02:50Z</time>
      </trkpt>
      <trkpt lat="43.252639984712005" lon="1.564717004075646">
        <ele>232.30000000000001</ele>
        <time>2025-04-26T09:02:51Z</time>
      </trkpt>
      <trkpt lat="43.252604026347399" lon="1.564603010192514">
        <ele>232.30000000000001</ele>
        <time>2025-04-26T09:02:52Z</time>
      </trkpt>
      <trkpt lat="43.252567984163761" lon="1.564488010481">
        <ele>232.78</ele>
        <time>2025-04-26T09:02:53Z</time>
      </trkpt>
      <trkpt lat="43.252434963360429" lon="1.564064975827932">
        <ele>232.30000000000001</ele>
        <time>2025-04-26T09:02:57Z</time>
      </trkpt>
      <trkpt lat="43.252373021095991" lon="1.564059024676681">
        <ele>231.81</ele>
        <time>2025-04-26T09:02:58Z</time>
      </trkpt>
      <trkpt lat="43.252317029982805" lon="1.564091965556145">
        <ele>231.81</ele>
        <time>2025-04-26T09:02:59Z</time>
      </trkpt>
      <trkpt lat="43.252247041091323" lon="1.564133958891034">
        <ele>231.81</ele>
        <time>2025-04-26T09:03:00Z</time>
      </trkpt>
      <trkpt lat="43.252175040543079" lon="1.564177041873336">
        <ele>231.33000000000001</ele>
        <time>2025-04-26T09:03:01Z</time>
      </trkpt>
      <trkpt lat="43.252098010852933" lon="1.564222974702716">
        <ele>231.33000000000001</ele>
        <time>2025-04-26T09:03:02Z</time>
      </trkpt>
      <trkpt lat="43.251393008977175" lon="1.564628994092345">
        <ele>229.88999999999999</ele>
        <time>2025-04-26T09:03:13Z</time>
      </trkpt>
      <trkpt lat="43.251053038984537" lon="1.564720021560788">
        <ele>229.88999999999999</ele>
        <time>2025-04-26T09:03:17Z</time>
      </trkpt>
      <trkpt lat="43.250950025394559" lon="1.564799984917045">
        <ele>229.41</ele>
        <time>2025-04-26T09:03:19Z</time>
      </trkpt>
      <trkpt lat="43.250955976545811" lon="1.564830997958779">
        <ele>229.41</ele>
        <time>2025-04-26T09:03:20Z</time>
      </trkpt>
      <trkpt lat="43.250964023172855" lon="1.564865028485656">
        <ele>228.93000000000001</ele>
        <time>2025-04-26T09:03:21Z</time>
      </trkpt>
      <trkpt lat="43.250964023172855" lon="1.564865028485656">
        <ele>228.93000000000001</ele>
        <time>2025-04-26T09:03:22Z</time>
      </trkpt>
      <trkpt lat="43.250964023172855" lon="1.564865028485656">
        <ele>228.93000000000001</ele>
        <time>2025-04-26T09:03:23Z</time>
      </trkpt>
      <trkpt lat="43.250964023172855" lon="1.564865028485656">
        <ele>228.93000000000001</ele>
        <time>2025-04-26T09:03:24Z</time>
      </trkpt>
      <trkpt lat="43.251037029549479" lon="1.565243974328041">
        <ele>228.44999999999999</ele>
        <time>2025-04-26T09:03:31Z</time>
      </trkpt>
      <trkpt lat="43.250952959060669" lon="1.565321004018188">
        <ele>227.49000000000001</ele>
        <time>2025-04-26T09:03:35Z</time>
      </trkpt>
      <trkpt lat="43.250725977122784" lon="1.565442038699985">
        <ele>227.00999999999999</ele>
        <time>2025-04-26T09:03:47Z</time>
      </trkpt>
      <trkpt lat="43.25071600265801" lon="1.565501969307661">
        <ele>227.97</ele>
        <time>2025-04-26T09:03:52Z</time>
      </trkpt>
      <trkpt lat="43.250724971294403" lon="1.565539017319679">
        <ele>227.97</ele>
        <time>2025-04-26T09:03:53Z</time>
      </trkpt>
      <trkpt lat="43.250733017921448" lon="1.565569024533033">
        <ele>228.44999999999999</ele>
        <time>2025-04-26T09:03:54Z</time>
      </trkpt>
      <trkpt lat="43.250754978507757" lon="1.565641025081277">
        <ele>228.44999999999999</ele>
        <time>2025-04-26T09:04:03Z</time>
      </trkpt>
      <trkpt lat="43.25076000764966" lon="1.565658040344715">
        <ele>228.44999999999999</ele>
        <time>2025-04-26T09:04:04Z</time>
      </trkpt>
      <trkpt lat="43.250765958800912" lon="1.565677989274263">
        <ele>228.44999999999999</ele>
        <time>2025-04-26T09:04:05Z</time>
      </trkpt>
      <trkpt lat="43.250772999599576" lon="1.565700033679605">
        <ele>227.97</ele>
        <time>2025-04-26T09:04:06Z</time>
      </trkpt>
      <trkpt lat="43.250793032348156" lon="1.565765999257565">
        <ele>227.97</ele>
        <time>2025-04-26T09:04:07Z</time>
      </trkpt>
      <trkpt lat="43.250793032348156" lon="1.565765999257565">
        <ele>227.97</ele>
        <time>2025-04-26T09:04:08Z</time>
      </trkpt>
      <trkpt lat="43.250793032348156" lon="1.565765999257565">
        <ele>227.49000000000001</ele>
        <time>2025-04-26T09:04:21Z</time>
      </trkpt>
      <trkpt lat="43.250789009034634" lon="1.565965991467238">
        <ele>228.44999999999999</ele>
        <time>2025-04-26T09:04:43Z</time>
      </trkpt>
      <trkpt lat="43.250776017084718" lon="1.565974038094282">
        <ele>228.93000000000001</ele>
        <time>2025-04-26T09:04:44Z</time>
      </trkpt>
      <trkpt lat="43.250757995992899" lon="1.565984012559056">
        <ele>228.44999999999999</ele>
        <time>2025-04-26T09:04:45Z</time>
      </trkpt>
      <trkpt lat="43.25073603540659" lon="1.565998010337353">
        <ele>228.44999999999999</ele>
        <time>2025-04-26T09:04:46Z</time>
      </trkpt>
      <trkpt lat="43.25071700848639" lon="1.566008990630508">
        <ele>227.97</ele>
        <time>2025-04-26T09:04:47Z</time>
      </trkpt>
      <trkpt lat="43.250821027904749" lon="1.565879993140698">
        <ele>227.49000000000001</ele>
        <time>2025-04-26T09:04:48Z</time>
      </trkpt>
      <trkpt lat="43.25082597322762" lon="1.565900025889278">
        <ele>227.00999999999999</ele>
        <time>2025-04-26T09:04:49Z</time>
      </trkpt>
      <trkpt lat="43.250765958800912" lon="1.565979989245534">
        <ele>227.00999999999999</ele>
        <time>2025-04-26T09:04:50Z</time>
      </trkpt>
      <trkpt lat="43.250792026519775" lon="1.565963979810476">
        <ele>227.00999999999999</ele>
        <time>2025-04-26T09:04:51Z</time>
      </trkpt>
      <trkpt lat="43.250827984884381" lon="1.565942019224167">
        <ele>227.00999999999999</ele>
        <time>2025-04-26T09:04:52Z</time>
      </trkpt>
      <trkpt lat="43.250807030126452" lon="1.565826013684273">
        <ele>227.00999999999999</ele>
        <time>2025-04-26T09:04:53Z</time>
      </trkpt>
      <trkpt lat="43.250794960185885" lon="1.565774967893958">
        <ele>227.00999999999999</ele>
        <time>2025-04-26T09:04:54Z</time>
      </trkpt>
      <trkpt lat="43.250780962407589" lon="1.565729035064578">
        <ele>227.00999999999999</ele>
        <time>2025-04-26T09:04:55Z</time>
      </trkpt>
      <trkpt lat="43.250694964081049" lon="1.565417982637882">
        <ele>226.53</ele>
        <time>2025-04-26T09:05:04Z</time>
      </trkpt>
      <trkpt lat="43.250616006553173" lon="1.565117994323373">
        <ele>225.56999999999999</ele>
        <time>2025-04-26T09:05:15Z</time>
      </trkpt>
      <trkpt lat="43.250594967976213" lon="1.56504699960351">
        <ele>225.56999999999999</ele>
        <time>2025-04-26T09:05:16Z</time>
      </trkpt>
      <trkpt lat="43.25056697241962" lon="1.564971981570125">
        <ele>225.56999999999999</ele>
        <time>2025-04-26T09:05:17Z</time>
      </trkpt>
      <trkpt lat="43.250512992963195" lon="1.564821023494005">
        <ele>225.56999999999999</ele>
        <time>2025-04-26T09:05:19Z</time>
      </trkpt>
      <trkpt lat="43.250490026548505" lon="1.564752040430903">
        <ele>225.56999999999999</ele>
        <time>2025-04-26T09:05:20Z</time>
      </trkpt>
      <trkpt lat="43.250473011285067" lon="1.564699988812208">
        <ele>225.09</ele>
        <time>2025-04-26T09:05:21Z</time>
      </trkpt>
      <trkpt lat="43.250512992963195" lon="1.564669981598854">
        <ele>225.09</ele>
        <time>2025-04-26T09:05:22Z</time>
      </trkpt>
      <trkpt lat="43.250536965206265" lon="1.564655983820558">
        <ele>225.09</ele>
        <time>2025-04-26T09:05:23Z</time>
      </trkpt>
      <trkpt lat="43.25056403875351" lon="1.564640980213881">
        <ele>225.09</ele>
        <time>2025-04-26T09:05:24Z</time>
      </trkpt>
      <trkpt lat="43.250597985461354" lon="1.564622959122062">
        <ele>225.09</ele>
        <time>2025-04-26T09:05:25Z</time>
      </trkpt>
      <trkpt lat="43.250632015988231" lon="1.564604016020894">
        <ele>225.09</ele>
        <time>2025-04-26T09:05:26Z</time>
      </trkpt>
      <trkpt lat="43.250668980181217" lon="1.564582977443934">
        <ele>225.56999999999999</ele>
        <time>2025-04-26T09:05:27Z</time>
      </trkpt>
      <trkpt lat="43.250708039849997" lon="1.564562022686005">
        <ele>225.56999999999999</ele>
        <time>2025-04-26T09:05:28Z</time>
      </trkpt>
      <trkpt lat="43.250823961570859" lon="1.564496979117394">
        <ele>226.05000000000001</ele>
        <time>2025-04-26T09:05:31Z</time>
      </trkpt>
      <trkpt lat="43.250856986269355" lon="1.564479041844606">
        <ele>226.05000000000001</ele>
        <time>2025-04-26T09:05:32Z</time>
      </trkpt>
      <trkpt lat="43.250896967947483" lon="1.564453979954124">
        <ele>226.53</ele>
        <time>2025-04-26T09:05:33Z</time>
      </trkpt>
      <trkpt lat="43.251098971813917" lon="1.564325988292694">
        <ele>227.49000000000001</ele>
        <time>2025-04-26T09:05:38Z</time>
      </trkpt>
      <trkpt lat="43.251286977902055" lon="1.564277037978172">
        <ele>228.44999999999999</ele>
        <time>2025-04-26T09:05:43Z</time>
      </trkpt>
      <trkpt lat="43.251304998993874" lon="1.564321964979172">
        <ele>228.44999999999999</ele>
        <time>2025-04-26T09:05:44Z</time>
      </trkpt>
      <trkpt lat="43.251325031742454" lon="1.564370999112725">
        <ele>228.93000000000001</ele>
        <time>2025-04-26T09:05:45Z</time>
      </trkpt>
      <trkpt lat="43.25136199593544" lon="1.564490022137761">
        <ele>229.41</ele>
        <time>2025-04-26T09:05:54Z</time>
      </trkpt>
      <trkpt lat="43.251438019797206" lon="1.56459404155612">
        <ele>229.41</ele>
        <time>2025-04-26T09:05:57Z</time>
      </trkpt>
      <trkpt lat="43.251500967890024" lon="1.564542995765805">
        <ele>229.41</ele>
        <time>2025-04-26T09:05:58Z</time>
      </trkpt>
      <trkpt lat="43.25151395983994" lon="1.564535032957792">
        <ele>229.41</ele>
        <time>2025-04-26T09:05:59Z</time>
      </trkpt>
      <trkpt lat="43.252121983096004" lon="1.564208976924419">
        <ele>229.88999999999999</ele>
        <time>2025-04-26T09:06:08Z</time>
      </trkpt>
      <trkpt lat="43.252318035811186" lon="1.564090959727764">
        <ele>230.37</ele>
        <time>2025-04-26T09:06:11Z</time>
      </trkpt>
      <trkpt lat="43.252372015267611" lon="1.564059024676681">
        <ele>230.37</ele>
        <time>2025-04-26T09:06:12Z</time>
      </trkpt>
      <trkpt lat="43.252450972795486" lon="1.564117027446628">
        <ele>230.37</ele>
        <time>2025-04-26T09:06:13Z</time>
      </trkpt>
      <trkpt lat="43.252478968352079" lon="1.564204031601548">
        <ele>230.37</ele>
        <time>2025-04-26T09:06:14Z</time>
      </trkpt>
      <trkpt lat="43.252512998878956" lon="1.564312996342778">
        <ele>230.37</ele>
        <time>2025-04-26T09:06:15Z</time>
      </trkpt>
      <trkpt lat="43.252552980557084" lon="1.564439982175827">
        <ele>230.37</ele>
        <time>2025-04-26T09:06:16Z</time>
      </trkpt>
      <trkpt lat="43.252745009958744" lon="1.56541203148663">
        <ele>230.37</ele>
        <time>2025-04-26T09:06:24Z</time>
      </trkpt>
      <trkpt lat="43.252785997465253" lon="1.56551999039948">
        <ele>230.37</ele>
        <time>2025-04-26T09:06:25Z</time>
      </trkpt>
      <trkpt lat="43.252851963043213" lon="1.565559972077608">
        <ele>230.37</ele>
        <time>2025-04-26T09:06:26Z</time>
      </trkpt>
      <trkpt lat="43.252914994955063" lon="1.565572964027524">
        <ele>230.37</ele>
        <time>2025-04-26T09:06:27Z</time>
      </trkpt>
      <trkpt lat="43.252970986068249" lon="1.565504986792803">
        <ele>230.37</ele>
        <time>2025-04-26T09:06:28Z</time>
      </trkpt>
      <trkpt lat="43.253003004938364" lon="1.565466010943055">
        <ele>230.37</ele>
        <time>2025-04-26T09:06:29Z</time>
      </trkpt>
      <trkpt lat="43.253022031858563" lon="1.565232994034886">
        <ele>230.84999999999999</ele>
        <time>2025-04-26T09:06:30Z</time>
      </trkpt>
      <trkpt lat="43.253104006871581" lon="1.56515596434474">
        <ele>230.37</ele>
        <time>2025-04-26T09:06:31Z</time>
      </trkpt>
      <trkpt lat="43.253197968006134" lon="1.565068960189819">
        <ele>230.37</ele>
        <time>2025-04-26T09:06:32Z</time>
      </trkpt>
      <trkpt lat="43.253301987424493" lon="1.564971981570125">
        <ele>229.88999999999999</ele>
        <time>2025-04-26T09:06:33Z</time>
      </trkpt>
      <trkpt lat="43.253422016277909" lon="1.564876008778811">
        <ele>229.88999999999999</ele>
        <time>2025-04-26T09:06:34Z</time>
      </trkpt>
      <trkpt lat="43.25449800118804" lon="1.564039997756481">
        <ele>228.44999999999999</ele>
        <time>2025-04-26T09:06:41Z</time>
      </trkpt>
      <trkpt lat="43.256630022078753" lon="1.562371999025345">
        <ele>227.00999999999999</ele>
        <time>2025-04-26T09:06:52Z</time>
      </trkpt>
      <trkpt lat="43.259318014606833" lon="1.560266967862845">
        <ele>225.56999999999999</ele>
        <time>2025-04-26T09:07:06Z</time>
      </trkpt>
      <trkpt lat="43.262502970173955" lon="1.557797994464636">
        <ele>223.63999999999999</ele>
        <time>2025-04-26T09:07:23Z</time>
      </trkpt>
      <trkpt lat="43.264864990487695" lon="1.555941989645362">
        <ele>223.16</ele>
        <time>2025-04-26T09:07:36Z</time>
      </trkpt>
      <trkpt lat="43.267769990488887" lon="1.553677031770349">
        <ele>221.24000000000001</ele>
        <time>2025-04-26T09:07:52Z</time>
      </trkpt>
      <trkpt lat="43.270899960771203" lon="1.551264971494675">
        <ele>219.80000000000001</ele>
        <time>2025-04-26T09:08:09Z</time>
      </trkpt>
      <trkpt lat="43.274026997387409" lon="1.548832040280104">
        <ele>218.84</ele>
        <time>2025-04-26T09:08:26Z</time>
      </trkpt>
      <trkpt lat="43.27699301764369" lon="1.546530034393072">
        <ele>217.88</ele>
        <time>2025-04-26T09:08:42Z</time>
      </trkpt>
      <trkpt lat="43.280491037294269" lon="1.54379996471107">
        <ele>215.94999999999999</ele>
        <time>2025-04-26T09:09:01Z</time>
      </trkpt>
      <trkpt lat="43.282154006883502" lon="1.542624989524484">
        <ele>214.99000000000001</ele>
        <time>2025-04-26T09:09:11Z</time>
      </trkpt>
      <trkpt lat="43.283700970932841" lon="1.541570965200663">
        <ele>214.03</ele>
        <time>2025-04-26T09:09:22Z</time>
      </trkpt>
      <trkpt lat="43.285189010202885" lon="1.540192980319262">
        <ele>213.55000000000001</ele>
        <time>2025-04-26T09:09:32Z</time>
      </trkpt>
      <trkpt lat="43.287725960835814" lon="1.538196997717023">
        <ele>212.59</ele>
        <time>2025-04-26T09:09:47Z</time>
      </trkpt>
      <trkpt lat="43.290789965540171" lon="1.535830032080412">
        <ele>211.15000000000001</ele>
        <time>2025-04-26T09:10:04Z</time>
      </trkpt>
      <trkpt lat="43.292490988969803" lon="1.534160021692514">
        <ele>210.19</ele>
        <time>2025-04-26T09:10:14Z</time>
      </trkpt>
      <trkpt lat="43.294935990124941" lon="1.531550986692309">
        <ele>208.74000000000001</ele>
        <time>2025-04-26T09:10:29Z</time>
      </trkpt>
      <trkpt lat="43.297365987673402" lon="1.528959972783923">
        <ele>208.74000000000001</ele>
        <time>2025-04-26T09:10:44Z</time>
      </trkpt>
      <trkpt lat="43.297841995954514" lon="1.52845898643136">
        <ele>208.74000000000001</ele>
        <time>2025-04-26T09:10:47Z</time>
      </trkpt>
      <trkpt lat="43.298002006486058" lon="1.528298975899816">
        <ele>208.74000000000001</ele>
        <time>2025-04-26T09:10:48Z</time>
      </trkpt>
      <trkpt lat="43.300451030954719" lon="1.525589022785425">
        <ele>206.81999999999999</ele>
        <time>2025-04-26T09:11:03Z</time>
      </trkpt>
      <trkpt lat="43.302791006863117" lon="1.523145027458668">
        <ele>205.86000000000001</ele>
        <time>2025-04-26T09:11:17Z</time>
      </trkpt>
      <trkpt lat="43.304157005622983" lon="1.522093014791608">
        <ele>205.86000000000001</ele>
        <time>2025-04-26T09:11:25Z</time>
      </trkpt>
      <trkpt lat="43.305391995236278" lon="1.521273013204336">
        <ele>204.90000000000001</ele>
        <time>2025-04-26T09:11:34Z</time>
      </trkpt>
      <trkpt lat="43.305629035457969" lon="1.521206963807344">
        <ele>204.41999999999999</ele>
        <time>2025-04-26T09:11:36Z</time>
      </trkpt>
      <trkpt lat="43.305734982714057" lon="1.521190032362938">
        <ele>204.41999999999999</ele>
        <time>2025-04-26T09:11:37Z</time>
      </trkpt>
      <trkpt lat="43.305834978818893" lon="1.521177962422371">
        <ele>204.41999999999999</ele>
        <time>2025-04-26T09:11:38Z</time>
      </trkpt>
      <trkpt lat="43.305930029600859" lon="1.521166982129216">
        <ele>204.41999999999999</ele>
        <time>2025-04-26T09:11:39Z</time>
      </trkpt>
      <trkpt lat="43.306018961593509" lon="1.521157007664442">
        <ele>204.41999999999999</ele>
        <time>2025-04-26T09:11:40Z</time>
      </trkpt>
      <trkpt lat="43.306090962141752" lon="1.521287010982633">
        <ele>204.90000000000001</ele>
        <time>2025-04-26T09:11:41Z</time>
      </trkpt>
      <trkpt lat="43.306162962689996" lon="1.521358005702496">
        <ele>204.90000000000001</ele>
        <time>2025-04-26T09:11:42Z</time>
      </trkpt>
      <trkpt lat="43.306262036785483" lon="1.521399999037385">
        <ele>204.90000000000001</ele>
        <time>2025-04-26T09:11:43Z</time>
      </trkpt>
      <trkpt lat="43.306369995698333" lon="1.52141198515892">
        <ele>204.90000000000001</ele>
        <time>2025-04-26T09:11:44Z</time>
      </trkpt>
      <trkpt lat="43.306445013731718" lon="1.521366974338889">
        <ele>204.90000000000001</ele>
        <time>2025-04-26T09:11:45Z</time>
      </trkpt>
      <trkpt lat="43.306522965431213" lon="1.521253986284137">
        <ele>204.90000000000001</ele>
        <time>2025-04-26T09:11:46Z</time>
      </trkpt>
      <trkpt lat="43.306561019271612" lon="1.521107973530889">
        <ele>204.41999999999999</ele>
        <time>2025-04-26T09:11:47Z</time>
      </trkpt>
      <trkpt lat="43.306561019271612" lon="1.520986016839743">
        <ele>204.41999999999999</ele>
        <time>2025-04-26T09:11:48Z</time>
      </trkpt>
      <trkpt lat="43.306561019271612" lon="1.520855007693172">
        <ele>203.94</ele>
        <time>2025-04-26T09:11:49Z</time>
      </trkpt>
      <trkpt lat="43.306561019271612" lon="1.520855007693172">
        <ele>203.94</ele>
        <time>2025-04-26T09:11:50Z</time>
      </trkpt>
      <trkpt lat="43.306495975703001" lon="1.520501961931586">
        <ele>203.46000000000001</ele>
        <time>2025-04-26T09:11:51Z</time>
      </trkpt>
      <trkpt lat="43.306565964594483" lon="1.520349998027086">
        <ele>203.46000000000001</ele>
        <time>2025-04-26T09:11:52Z</time>
      </trkpt>
      <trkpt lat="43.306638970971107" lon="1.520175989717245">
        <ele>202.97999999999999</ele>
        <time>2025-04-26T09:11:53Z</time>
      </trkpt>
      <trkpt lat="43.306718012318015" lon="1.519991001114249">
        <ele>202.97999999999999</ele>
        <time>2025-04-26T09:11:54Z</time>
      </trkpt>
      <trkpt lat="43.307456038892269" lon="1.518239015713334">
        <ele>202.49000000000001</ele>
        <time>2025-04-26T09:12:02Z</time>
      </trkpt>
      <trkpt lat="43.308508973568678" lon="1.516207996755838">
        <ele>202.97999999999999</ele>
        <time>2025-04-26T09:12:11Z</time>
      </trkpt>
      <trkpt lat="43.309734994545579" lon="1.514442013576627">
        <ele>201.53</ele>
        <time>2025-04-26T09:12:21Z</time>
      </trkpt>
      <trkpt lat="43.310277974233031" lon="1.513655036687851">
        <ele>201.05000000000001</ele>
        <time>2025-04-26T09:12:28Z</time>
      </trkpt>
      <trkpt lat="43.310707965865731" lon="1.513115996494889">
        <ele>202.00999999999999</ele>
        <time>2025-04-26T09:12:33Z</time>
      </trkpt>
      <trkpt lat="43.311773976311088" lon="1.512122992426157">
        <ele>202.49000000000001</ele>
        <time>2025-04-26T09:12:44Z</time>
      </trkpt>
      <trkpt lat="43.312656003981829" lon="1.511006020009518">
        <ele>203.46000000000001</ele>
        <time>2025-04-26T09:12:54Z</time>
      </trkpt>
      <trkpt lat="43.313266960904002" lon="1.510060038417578">
        <ele>201.05000000000001</ele>
        <time>2025-04-26T09:13:02Z</time>
      </trkpt>
      <trkpt lat="43.314447971060872" lon="1.50823999196291">
        <ele>201.53</ele>
        <time>2025-04-26T09:13:17Z</time>
      </trkpt>
      <trkpt lat="43.315236959606409" lon="1.506917998194695">
        <ele>202.00999999999999</ele>
        <time>2025-04-26T09:13:25Z</time>
      </trkpt>
      <trkpt lat="43.316502962261438" lon="1.505288975313306">
        <ele>202.00999999999999</ele>
        <time>2025-04-26T09:13:34Z</time>
      </trkpt>
      <trkpt lat="43.318340023979545" lon="1.503355018794537">
        <ele>202.97999999999999</ele>
        <time>2025-04-26T09:13:45Z</time>
      </trkpt>
      <trkpt lat="43.319914983585477" lon="1.5014089923352">
        <ele>203.94</ele>
        <time>2025-04-26T09:13:56Z</time>
      </trkpt>
      <trkpt lat="43.321428000926971" lon="1.499448968097568">
        <ele>203.94</ele>
        <time>2025-04-26T09:14:07Z</time>
      </trkpt>
      <trkpt lat="43.323352988809347" lon="1.497306972742081">
        <ele>203.46000000000001</ele>
        <time>2025-04-26T09:14:20Z</time>
      </trkpt>
      <trkpt lat="43.325053006410599" lon="1.495430013164878">
        <ele>202.49000000000001</ele>
        <time>2025-04-26T09:14:32Z</time>
      </trkpt>
      <trkpt lat="43.327461965382099" lon="1.492760963737965">
        <ele>201.53</ele>
        <time>2025-04-26T09:14:48Z</time>
      </trkpt>
      <trkpt lat="43.330156998708844" lon="1.489754961803556">
        <ele>200.09</ele>
        <time>2025-04-26T09:15:06Z</time>
      </trkpt>
      <trkpt lat="43.331435993313789" lon="1.488306988030672">
        <ele>198.65000000000001</ele>
        <time>2025-04-26T09:15:15Z</time>
      </trkpt>
      <trkpt lat="43.332886984571815" lon="1.486661033704877">
        <ele>197.21000000000001</ele>
        <time>2025-04-26T09:15:25Z</time>
      </trkpt>
      <trkpt lat="43.334528999403119" lon="1.485124966129661">
        <ele>194.80000000000001</ele>
        <time>2025-04-26T09:15:36Z</time>
      </trkpt>
      <trkpt lat="43.335194019600749" lon="1.484200023114681">
        <ele>193.84</ele>
        <time>2025-04-26T09:15:43Z</time>
      </trkpt>
      <trkpt lat="43.335612025111914" lon="1.483458979055286">
        <ele>193.84</ele>
        <time>2025-04-26T09:15:49Z</time>
      </trkpt>
      <trkpt lat="43.335683019831777" lon="1.483336016535759">
        <ele>193.84</ele>
        <time>2025-04-26T09:15:50Z</time>
      </trkpt>
      <trkpt lat="43.336537973955274" lon="1.481829034164548">
        <ele>193.84</ele>
        <time>2025-04-26T09:16:02Z</time>
      </trkpt>
      <trkpt lat="43.336611986160278" lon="1.481699030846357">
        <ele>193.84</ele>
        <time>2025-04-26T09:16:03Z</time>
      </trkpt>
      <trkpt lat="43.337694006040692" lon="1.480104960501194">
        <ele>192.88</ele>
        <time>2025-04-26T09:16:18Z</time>
      </trkpt>
      <trkpt lat="43.337747985497117" lon="1.480055004358292">
        <ele>192.88</ele>
        <time>2025-04-26T09:16:19Z</time>
      </trkpt>
      <trkpt lat="43.337903972715139" lon="1.479931036010385">
        <ele>192.40000000000001</ele>
        <time>2025-04-26T09:16:22Z</time>
      </trkpt>
      <trkpt lat="43.337961975485086" lon="1.479885019361973">
        <ele>192.40000000000001</ele>
        <time>2025-04-26T09:16:23Z</time>
      </trkpt>
      <trkpt lat="43.338151993229985" lon="1.479736994951963">
        <ele>191.91999999999999</ele>
        <time>2025-04-26T09:16:26Z</time>
      </trkpt>
      <trkpt lat="43.338214019313455" lon="1.47968796081841">
        <ele>191.91999999999999</ele>
        <time>2025-04-26T09:16:27Z</time>
      </trkpt>
      <trkpt lat="43.338839979842305" lon="1.479202983900905">
        <ele>190.96000000000001</ele>
        <time>2025-04-26T09:16:36Z</time>
      </trkpt>
      <trkpt lat="43.339776992797852" lon="1.478540981188417">
        <ele>190</ele>
        <time>2025-04-26T09:16:47Z</time>
      </trkpt>
      <trkpt lat="43.341118013486266" lon="1.477512018755078">
        <ele>187.59</ele>
        <time>2025-04-26T09:17:01Z</time>
      </trkpt>
      <trkpt lat="43.34168597124517" lon="1.477075992152095">
        <ele>186.63</ele>
        <time>2025-04-26T09:17:07Z</time>
      </trkpt>
      <trkpt lat="43.341932985931635" lon="1.476891003549099">
        <ele>186.15000000000001</ele>
        <time>2025-04-26T09:17:10Z</time>
      </trkpt>
      <trkpt lat="43.34202996455133" lon="1.47682998329401">
        <ele>185.66999999999999</ele>
        <time>2025-04-26T09:17:11Z</time>
      </trkpt>
      <trkpt lat="43.34295398555696" lon="1.476167980581522">
        <ele>187.11000000000001</ele>
        <time>2025-04-26T09:17:20Z</time>
      </trkpt>
      <trkpt lat="43.343292027711868" lon="1.475924989208579">
        <ele>187.59</ele>
        <time>2025-04-26T09:17:24Z</time>
      </trkpt>
      <trkpt lat="43.34340400993824" lon="1.475965976715088">
        <ele>187.59</ele>
        <time>2025-04-26T09:17:25Z</time>
      </trkpt>
      <trkpt lat="43.343476010486484" lon="1.475948039442301">
        <ele>187.59</ele>
        <time>2025-04-26T09:17:26Z</time>
      </trkpt>
      <trkpt lat="43.343554968014359" lon="1.475928006693721">
        <ele>188.08000000000001</ele>
        <time>2025-04-26T09:17:27Z</time>
      </trkpt>
      <trkpt lat="43.343596961349249" lon="1.475708987563849">
        <ele>188.08000000000001</ele>
        <time>2025-04-26T09:17:28Z</time>
      </trkpt>
      <trkpt lat="43.343660999089479" lon="1.475656013935804">
        <ele>187.59</ele>
        <time>2025-04-26T09:17:29Z</time>
      </trkpt>
      <trkpt lat="43.343739034608006" lon="1.475591976195574">
        <ele>187.59</ele>
        <time>2025-04-26T09:17:30Z</time>
      </trkpt>
      <trkpt lat="43.343821009621024" lon="1.475523998960853">
        <ele>187.59</ele>
        <time>2025-04-26T09:17:31Z</time>
      </trkpt>
      <trkpt lat="43.343906002119184" lon="1.47545401006937">
        <ele>187.59</ele>
        <time>2025-04-26T09:17:32Z</time>
      </trkpt>
      <trkpt lat="43.345251968130469" lon="1.474467040970922">
        <ele>187.11000000000001</ele>
        <time>2025-04-26T09:17:46Z</time>
      </trkpt>
      <trkpt lat="43.346730032935739" lon="1.473349984735251">
        <ele>186.63</ele>
        <time>2025-04-26T09:18:01Z</time>
      </trkpt>
      <trkpt lat="43.347034966573119" lon="1.473128031939268">
        <ele>186.15000000000001</ele>
        <time>2025-04-26T09:18:07Z</time>
      </trkpt>
      <trkpt lat="43.347116019576788" lon="1.473069023340941">
        <ele>185.66999999999999</ele>
        <time>2025-04-26T09:18:09Z</time>
      </trkpt>
      <trkpt lat="43.347116019576788" lon="1.473069023340941">
        <ele>185.66999999999999</ele>
        <time>2025-04-26T09:18:10Z</time>
      </trkpt>
      <trkpt lat="43.347116019576788" lon="1.473069023340941">
        <ele>185.66999999999999</ele>
        <time>2025-04-26T09:18:11Z</time>
      </trkpt>
      <trkpt lat="43.34711903706193" lon="1.473051002249122">
        <ele>185.66999999999999</ele>
        <time>2025-04-26T09:18:12Z</time>
      </trkpt>
      <trkpt lat="43.34712297655642" lon="1.473029041662812">
        <ele>185.66999999999999</ele>
        <time>2025-04-26T09:18:13Z</time>
      </trkpt>
      <trkpt lat="43.347125994041562" lon="1.473009008914232">
        <ele>185.19</ele>
        <time>2025-04-26T09:18:14Z</time>
      </trkpt>
      <trkpt lat="43.347129011526704" lon="1.472994005307555">
        <ele>185.19</ele>
        <time>2025-04-26T09:18:15Z</time>
      </trkpt>
      <trkpt lat="43.347129011526704" lon="1.472994005307555">
        <ele>185.19</ele>
        <time>2025-04-26T09:18:33Z</time>
      </trkpt>
      <trkpt lat="43.347129011526704" lon="1.472994005307555">
        <ele>185.19</ele>
        <time>2025-04-26T09:18:58Z</time>
      </trkpt>
      <trkpt lat="43.347136974334717" lon="1.472940025851131">
        <ele>185.19</ele>
        <time>2025-04-26T09:18:59Z</time>
      </trkpt>
      <trkpt lat="43.347136974334717" lon="1.472940025851131">
        <ele>184.71000000000001</ele>
        <time>2025-04-26T09:19:00Z</time>
      </trkpt>
      <trkpt lat="43.347148960456252" lon="1.472931979224086">
        <ele>184.22999999999999</ele>
        <time>2025-04-26T09:19:01Z</time>
      </trkpt>
      <trkpt lat="43.347167987376451" lon="1.472915969789028">
        <ele>184.22999999999999</ele>
        <time>2025-04-26T09:19:02Z</time>
      </trkpt>
      <trkpt lat="43.347245017066598" lon="1.472855033352971">
        <ele>181.83000000000001</ele>
        <time>2025-04-26T09:19:15Z</time>
      </trkpt>
      <trkpt lat="43.347245017066598" lon="1.472855033352971">
        <ele>180.87</ele>
        <time>2025-04-26T09:19:27Z</time>
      </trkpt>
      <trkpt lat="43.347136974334717" lon="1.472940025851131">
        <ele>179.90000000000001</ele>
        <time>2025-04-26T09:19:30Z</time>
      </trkpt>
      <trkpt lat="43.347269995138049" lon="1.472772974520922">
        <ele>180.38</ele>
        <time>2025-04-26T09:46:50Z</time>
      </trkpt>
      <trkpt lat="43.347218027338386" lon="1.472728969529271">
        <ele>185.66999999999999</ele>
        <time>2025-04-26T09:47:07Z</time>
      </trkpt>
      <trkpt lat="43.347245017066598" lon="1.472855033352971">
        <ele>185.66999999999999</ele>
        <time>2025-04-26T09:47:09Z</time>
      </trkpt>
      <trkpt lat="43.347128005698323" lon="1.472998028621078">
        <ele>185.66999999999999</ele>
        <time>2025-04-26T09:47:18Z</time>
      </trkpt>
      <trkpt lat="43.347123982384801" lon="1.473023006692529">
        <ele>185.66999999999999</ele>
        <time>2025-04-26T09:47:19Z</time>
      </trkpt>
      <trkpt lat="43.347129011526704" lon="1.473058965057135">
        <ele>185.66999999999999</ele>
        <time>2025-04-26T09:47:23Z</time>
      </trkpt>
      <trkpt lat="43.347148960456252" lon="1.473043039441109">
        <ele>185.66999999999999</ele>
        <time>2025-04-26T09:47:24Z</time>
      </trkpt>
      <trkpt lat="43.347187014296651" lon="1.473013032227755">
        <ele>185.19</ele>
        <time>2025-04-26T09:47:25Z</time>
      </trkpt>
      <trkpt lat="43.347232025116682" lon="1.472976990044117">
        <ele>184.71000000000001</ele>
        <time>2025-04-26T09:47:26Z</time>
      </trkpt>
      <trkpt lat="43.347279969602823" lon="1.472938014194369">
        <ele>184.22999999999999</ele>
        <time>2025-04-26T09:47:27Z</time>
      </trkpt>
      <trkpt lat="43.34795999340713" lon="1.472486983984709">
        <ele>181.83000000000001</ele>
        <time>2025-04-26T09:47:38Z</time>
      </trkpt>
      <trkpt lat="43.348596012219787" lon="1.471996977925301">
        <ele>181.34999999999999</ele>
        <time>2025-04-26T09:47:48Z</time>
      </trkpt>
      <trkpt lat="43.348677987232804" lon="1.471932018175721">
        <ele>181.34999999999999</ele>
        <time>2025-04-26T09:47:50Z</time>
      </trkpt>
      <trkpt lat="43.348850989714265" lon="1.471792962402105">
        <ele>181.34999999999999</ele>
        <time>2025-04-26T09:47:55Z</time>
      </trkpt>
      <trkpt lat="43.348882002756" lon="1.471767984330654">
        <ele>181.34999999999999</ele>
        <time>2025-04-26T09:47:56Z</time>
      </trkpt>
      <trkpt lat="43.348916033282876" lon="1.471740994602442">
        <ele>180.87</ele>
        <time>2025-04-26T09:47:57Z</time>
      </trkpt>
      <trkpt lat="43.348951991647482" lon="1.471711993217468">
        <ele>181.34999999999999</ele>
        <time>2025-04-26T09:47:58Z</time>
      </trkpt>
      <trkpt lat="43.348994990810752" lon="1.471677040681243">
        <ele>180.87</ele>
        <time>2025-04-26T09:47:59Z</time>
      </trkpt>
      <trkpt lat="43.349040001630783" lon="1.471643010154367">
        <ele>180.87</ele>
        <time>2025-04-26T09:48:00Z</time>
      </trkpt>
      <trkpt lat="43.349447026848793" lon="1.471337992697954">
        <ele>182.31</ele>
        <time>2025-04-26T09:48:09Z</time>
      </trkpt>
      <trkpt lat="43.349764030426741" lon="1.471132971346378">
        <ele>182.31</ele>
        <time>2025-04-26T09:48:13Z</time>
      </trkpt>
      <trkpt lat="43.349843993782997" lon="1.471085026860237">
        <ele>182.31</ele>
        <time>2025-04-26T09:48:14Z</time>
      </trkpt>
      <trkpt lat="43.349915994331241" lon="1.471042027696967">
        <ele>182.31</ele>
        <time>2025-04-26T09:48:15Z</time>
      </trkpt>
      <trkpt lat="43.350039040669799" lon="1.470968015491962">
        <ele>182.78999999999999</ele>
        <time>2025-04-26T09:48:17Z</time>
      </trkpt>
      <trkpt lat="43.350095031782985" lon="1.470933984965086">
        <ele>182.78999999999999</ele>
        <time>2025-04-26T09:48:18Z</time>
      </trkpt>
      <trkpt lat="43.350339028984308" lon="1.470788978040218">
        <ele>183.75</ele>
        <time>2025-04-26T09:48:22Z</time>
      </trkpt>
      <trkpt lat="43.350402982905507" lon="1.470751008018851">
        <ele>183.75</ele>
        <time>2025-04-26T09:48:23Z</time>
      </trkpt>
      <trkpt lat="43.350466014817357" lon="1.470713960006833">
        <ele>183.75</ele>
        <time>2025-04-26T09:48:24Z</time>
      </trkpt>
      <trkpt lat="43.350929031148553" lon="1.470454037189484">
        <ele>181.83000000000001</ele>
        <time>2025-04-26T09:48:34Z</time>
      </trkpt>
      <trkpt lat="43.351218039169908" lon="1.47029503248632">
        <ele>180.38</ele>
        <time>2025-04-26T09:48:41Z</time>
      </trkpt>
      <trkpt lat="43.351218039169908" lon="1.47029503248632">
        <ele>180.38</ele>
        <time>2025-04-26T09:48:50Z</time>
      </trkpt>
      <trkpt lat="43.351407973095775" lon="1.470171986147761">
        <ele>179.90000000000001</ele>
        <time>2025-04-26T09:49:19Z</time>
      </trkpt>
      <trkpt lat="43.351485002785921" lon="1.470128986984491">
        <ele>179.90000000000001</ele>
        <time>2025-04-26T09:49:27Z</time>
      </trkpt>
      <trkpt lat="43.351549962535501" lon="1.470002001151443">
        <ele>179.90000000000001</ele>
        <time>2025-04-26T09:49:28Z</time>
      </trkpt>
      <trkpt lat="43.351523978635669" lon="1.469969982281327">
        <ele>180.38</ele>
        <time>2025-04-26T09:49:29Z</time>
      </trkpt>
      <trkpt lat="43.351489026099443" lon="1.469924971461296">
        <ele>179.90000000000001</ele>
        <time>2025-04-26T09:49:30Z</time>
      </trkpt>
      <trkpt lat="43.351449966430664" lon="1.469877026975155">
        <ele>179.90000000000001</ele>
        <time>2025-04-26T09:49:31Z</time>
      </trkpt>
      <trkpt lat="43.351327003911138" lon="1.469705030322075">
        <ele>179.90000000000001</ele>
        <time>2025-04-26T09:49:34Z</time>
      </trkpt>
      <trkpt lat="43.351298002526164" lon="1.469635041430593">
        <ele>179.41999999999999</ele>
        <time>2025-04-26T09:49:35Z</time>
      </trkpt>
      <trkpt lat="43.351136986166239" lon="1.469249976798892">
        <ele>178.46000000000001</ele>
        <time>2025-04-26T09:49:40Z</time>
      </trkpt>
      <trkpt lat="43.350852001458406" lon="1.46855897270143">
        <ele>177.97999999999999</ele>
        <time>2025-04-26T09:49:49Z</time>
      </trkpt>
      <trkpt lat="43.350826017558575" lon="1.46849300712347">
        <ele>177.97999999999999</ele>
        <time>2025-04-26T09:49:50Z</time>
      </trkpt>
      <trkpt lat="43.350802967324853" lon="1.468437016010284">
        <ele>178.46000000000001</ele>
        <time>2025-04-26T09:49:51Z</time>
      </trkpt>
      <trkpt lat="43.350785030052066" lon="1.468390999361873">
        <ele>177.97999999999999</ele>
        <time>2025-04-26T09:49:52Z</time>
      </trkpt>
      <trkpt lat="43.35077497176826" lon="1.468361997976899">
        <ele>177.97999999999999</ele>
        <time>2025-04-26T09:49:53Z</time>
      </trkpt>
      <trkpt lat="43.350714035332203" lon="1.468188995495439">
        <ele>177.97999999999999</ele>
        <time>2025-04-26T09:50:03Z</time>
      </trkpt>
      <trkpt lat="43.350485963746905" lon="1.467334041371942">
        <ele>174.13999999999999</ele>
        <time>2025-04-26T09:50:15Z</time>
      </trkpt>
      <trkpt lat="43.350435001775622" lon="1.46716296672821">
        <ele>173.66</ele>
        <time>2025-04-26T09:50:17Z</time>
      </trkpt>
      <trkpt lat="43.350419998168945" lon="1.467067999765277">
        <ele>173.16999999999999</ele>
        <time>2025-04-26T09:50:18Z</time>
      </trkpt>
      <trkpt lat="43.350309021770954" lon="1.466227965429425">
        <ele>173.16999999999999</ele>
        <time>2025-04-26T09:50:27Z</time>
      </trkpt>
      <trkpt lat="43.350306004285812" lon="1.466131992638111">
        <ele>173.16999999999999</ele>
        <time>2025-04-26T09:50:28Z</time>
      </trkpt>
      <trkpt lat="43.350300975143909" lon="1.465152986347675">
        <ele>174.62</ele>
        <time>2025-04-26T09:50:37Z</time>
      </trkpt>
      <trkpt lat="43.350303992629051" lon="1.464995993301272">
        <ele>174.13999999999999</ele>
        <time>2025-04-26T09:50:38Z</time>
      </trkpt>
      <trkpt lat="43.350306004285812" lon="1.464833971112967">
        <ele>174.13999999999999</ele>
        <time>2025-04-26T09:50:39Z</time>
      </trkpt>
      <trkpt lat="43.350309021770954" lon="1.464678989723325">
        <ele>174.13999999999999</ele>
        <time>2025-04-26T09:50:40Z</time>
      </trkpt>
      <trkpt lat="43.350364007055759" lon="1.462849974632263">
        <ele>175.09999999999999</ele>
        <time>2025-04-26T09:50:51Z</time>
      </trkpt>
      <trkpt lat="43.350413963198662" lon="1.46161800250411">
        <ele>175.09999999999999</ele>
        <time>2025-04-26T09:50:59Z</time>
      </trkpt>
      <trkpt lat="43.350418992340565" lon="1.461500991135836">
        <ele>175.09999999999999</ele>
        <time>2025-04-26T09:51:00Z</time>
      </trkpt>
      <trkpt lat="43.350421003997326" lon="1.461461009457707">
        <ele>175.09999999999999</ele>
        <time>2025-04-26T09:51:01Z</time>
      </trkpt>
      <trkpt lat="43.350421003997326" lon="1.461224975064397">
        <ele>175.58000000000001</ele>
        <time>2025-04-26T09:51:02Z</time>
      </trkpt>
      <trkpt lat="43.350421003997326" lon="1.461190022528172">
        <ele>175.58000000000001</ele>
        <time>2025-04-26T09:51:03Z</time>
      </trkpt>
      <trkpt lat="43.350421003997326" lon="1.461072005331516">
        <ele>175.58000000000001</ele>
        <time>2025-04-26T09:51:04Z</time>
      </trkpt>
      <trkpt lat="43.350421003997326" lon="1.460083024576306">
        <ele>175.58000000000001</ele>
        <time>2025-04-26T09:51:11Z</time>
      </trkpt>
      <trkpt lat="43.350424021482468" lon="1.458572018891573">
        <ele>176.06</ele>
        <time>2025-04-26T09:51:20Z</time>
      </trkpt>
      <trkpt lat="43.350454028695822" lon="1.457081967964768">
        <ele>177.02000000000001</ele>
        <time>2025-04-26T09:51:28Z</time>
      </trkpt>
      <trkpt lat="43.350436007604003" lon="1.456870995461941">
        <ele>177.02000000000001</ele>
        <time>2025-04-26T09:51:29Z</time>
      </trkpt>
      <trkpt lat="43.35040801204741" lon="1.45665499381721">
        <ele>177.02000000000001</ele>
        <time>2025-04-26T09:51:30Z</time>
      </trkpt>
      <trkpt lat="43.350346991792321" lon="1.45643999800086">
        <ele>177.02000000000001</ele>
        <time>2025-04-26T09:51:31Z</time>
      </trkpt>
      <trkpt lat="43.350282032042742" lon="1.456218967214227">
        <ele>177.02000000000001</ele>
        <time>2025-04-26T09:51:32Z</time>
      </trkpt>
      <trkpt lat="43.349404027685523" lon="1.453708000481129">
        <ele>177.02000000000001</ele>
        <time>2025-04-26T09:51:44Z</time>
      </trkpt>
      <trkpt lat="43.348613027483225" lon="1.451403982937336">
        <ele>177.97999999999999</ele>
        <time>2025-04-26T09:51:54Z</time>
      </trkpt>
      <trkpt lat="43.347664028406143" lon="1.44874800927937">
        <ele>178.94</ele>
        <time>2025-04-26T09:52:05Z</time>
      </trkpt>
      <trkpt lat="43.346392996609211" lon="1.445560958236456">
        <ele>181.83000000000001</ele>
        <time>2025-04-26T09:52:18Z</time>
      </trkpt>
      <trkpt lat="43.345346013084054" lon="1.44307597540319">
        <ele>184.22999999999999</ele>
        <time>2025-04-26T09:52:28Z</time>
      </trkpt>
      <trkpt lat="43.344444036483765" lon="1.440461995080113">
        <ele>183.75</ele>
        <time>2025-04-26T09:52:38Z</time>
      </trkpt>
      <trkpt lat="43.343835007399321" lon="1.438438016921282">
        <ele>181.34999999999999</ele>
        <time>2025-04-26T09:52:46Z</time>
      </trkpt>
      <trkpt lat="43.343319017440081" lon="1.436238018795848">
        <ele>178.94</ele>
        <time>2025-04-26T09:52:55Z</time>
      </trkpt>
      <trkpt lat="43.342933030799031" lon="1.434142962098122">
        <ele>177.02000000000001</ele>
        <time>2025-04-26T09:53:03Z</time>
      </trkpt>
      <trkpt lat="43.342684004455805" lon="1.432178998365998">
        <ele>176.53999999999999</ele>
        <time>2025-04-26T09:53:11Z</time>
      </trkpt>
      <trkpt lat="43.342648968100548" lon="1.431835005059838">
        <ele>176.53999999999999</ele>
        <time>2025-04-26T09:53:13Z</time>
      </trkpt>
      <trkpt lat="43.342634970322251" lon="1.431691003963351">
        <ele>177.02000000000001</ele>
        <time>2025-04-26T09:53:14Z</time>
      </trkpt>
      <trkpt lat="43.342677969485521" lon="1.431021960452199">
        <ele>179.41999999999999</ele>
        <time>2025-04-26T09:53:20Z</time>
      </trkpt>
      <trkpt lat="43.342704959213734" lon="1.430859016254544">
        <ele>179.90000000000001</ele>
        <time>2025-04-26T09:53:21Z</time>
      </trkpt>
      <trkpt lat="43.342664977535605" lon="1.430777963250876">
        <ele>179.90000000000001</ele>
        <time>2025-04-26T09:53:22Z</time>
      </trkpt>
      <trkpt lat="43.342529023066163" lon="1.430575959384441">
        <ele>180.38</ele>
        <time>2025-04-26T09:53:24Z</time>
      </trkpt>
      <trkpt lat="43.34252399392426" lon="1.430408991873264">
        <ele>180.87</ele>
        <time>2025-04-26T09:53:25Z</time>
      </trkpt>
      <trkpt lat="43.342310003936291" lon="1.428822968155146">
        <ele>183.75</ele>
        <time>2025-04-26T09:53:33Z</time>
      </trkpt>
      <trkpt lat="43.341618999838829" lon="1.427253037691116">
        <ele>185.66999999999999</ele>
        <time>2025-04-26T09:53:41Z</time>
      </trkpt>
      <trkpt lat="43.340561036020517" lon="1.4251350145787">
        <ele>188.08000000000001</ele>
        <time>2025-04-26T09:53:52Z</time>
      </trkpt>
      <trkpt lat="43.3402010332793" lon="1.424104040488601">
        <ele>190.47999999999999</ele>
        <time>2025-04-26T09:53:59Z</time>
      </trkpt>
      <trkpt lat="43.339826026931405" lon="1.422848012298346">
        <ele>191.44</ele>
        <time>2025-04-26T09:54:07Z</time>
      </trkpt>
      <trkpt lat="43.339748997241259" lon="1.422369992360473">
        <ele>191.44</ele>
        <time>2025-04-26T09:54:10Z</time>
      </trkpt>
      <trkpt lat="43.339699041098356" lon="1.421881997957826">
        <ele>190.96000000000001</ele>
        <time>2025-04-26T09:54:13Z</time>
      </trkpt>
      <trkpt lat="43.339700968936086" lon="1.421703966334462">
        <ele>190.96000000000001</ele>
        <time>2025-04-26T09:54:14Z</time>
      </trkpt>
      <trkpt lat="43.339741034433246" lon="1.421546973288059">
        <ele>190.96000000000001</ele>
        <time>2025-04-26T09:54:15Z</time>
      </trkpt>
      <trkpt lat="43.339780010282993" lon="1.421387968584895">
        <ele>190.96000000000001</ele>
        <time>2025-04-26T09:54:16Z</time>
      </trkpt>
      <trkpt lat="43.339819991961122" lon="1.421229969710112">
        <ele>191.44</ele>
        <time>2025-04-26T09:54:17Z</time>
      </trkpt>
      <trkpt lat="43.339857961982489" lon="1.421076999977231">
        <ele>191.44</ele>
        <time>2025-04-26T09:54:18Z</time>
      </trkpt>
      <trkpt lat="43.339882018044591" lon="1.420949008315802">
        <ele>190.96000000000001</ele>
        <time>2025-04-26T09:54:19Z</time>
      </trkpt>
      <trkpt lat="43.339862991124392" lon="1.420797966420651">
        <ele>190.96000000000001</ele>
        <time>2025-04-26T09:54:20Z</time>
      </trkpt>
      <trkpt lat="43.339813034981489" lon="1.420655976980925">
        <ele>190.47999999999999</ele>
        <time>2025-04-26T09:54:21Z</time>
      </trkpt>
      <trkpt lat="43.339758971706033" lon="1.420504013076425">
        <ele>190.96000000000001</ele>
        <time>2025-04-26T09:54:22Z</time>
      </trkpt>
      <trkpt lat="43.33943098783493" lon="1.419618967920542">
        <ele>191.44</ele>
        <time>2025-04-26T09:54:28Z</time>
      </trkpt>
      <trkpt lat="43.339292015880346" lon="1.419362984597683">
        <ele>191.44</ele>
        <time>2025-04-26T09:54:30Z</time>
      </trkpt>
      <trkpt lat="43.3392149861902" lon="1.419244967401028">
        <ele>191.44</ele>
        <time>2025-04-26T09:54:31Z</time>
      </trkpt>
      <trkpt lat="43.339124964550138" lon="1.419142037630081">
        <ele>191.91999999999999</ele>
        <time>2025-04-26T09:54:32Z</time>
      </trkpt>
      <trkpt lat="43.338552983477712" lon="1.418424965813756">
        <ele>193.84</ele>
        <time>2025-04-26T09:54:38Z</time>
      </trkpt>
      <trkpt lat="43.338425997644663" lon="1.418222961947322">
        <ele>194.31999999999999</ele>
        <time>2025-04-26T09:54:39Z</time>
      </trkpt>
      <trkpt lat="43.338358020409942" lon="1.418082984164357">
        <ele>194.31999999999999</ele>
        <time>2025-04-26T09:54:40Z</time>
      </trkpt>
      <trkpt lat="43.337872959673405" lon="1.417087968438864">
        <ele>193.36000000000001</ele>
        <time>2025-04-26T09:54:45Z</time>
      </trkpt>
      <trkpt lat="43.337182039394975" lon="1.415880974382162">
        <ele>193.84</ele>
        <time>2025-04-26T09:54:51Z</time>
      </trkpt>
      <trkpt lat="43.337093023583293" lon="1.415666984394193">
        <ele>193.84</ele>
        <time>2025-04-26T09:54:52Z</time>
      </trkpt>
      <trkpt lat="43.336301017552614" lon="1.413762029260397">
        <ele>193.36000000000001</ele>
        <time>2025-04-26T09:55:00Z</time>
      </trkpt>
      <trkpt lat="43.335849987342954" lon="1.412644973024726">
        <ele>194.80000000000001</ele>
        <time>2025-04-26T09:55:05Z</time>
      </trkpt>
      <trkpt lat="43.335796007886529" lon="1.41243701800704">
        <ele>194.80000000000001</ele>
        <time>2025-04-26T09:55:06Z</time>
      </trkpt>
      <trkpt lat="43.335744962096214" lon="1.412238031625748">
        <ele>194.80000000000001</ele>
        <time>2025-04-26T09:55:07Z</time>
      </trkpt>
      <trkpt lat="43.335721995681524" lon="1.411763029173017">
        <ele>195.28</ele>
        <time>2025-04-26T09:55:09Z</time>
      </trkpt>
      <trkpt lat="43.335816962644458" lon="1.410931963473558">
        <ele>197.21000000000001</ele>
        <time>2025-04-26T09:55:12Z</time>
      </trkpt>
      <trkpt lat="43.335848981514573" lon="1.410643961280584">
        <ele>197.69</ele>
        <time>2025-04-26T09:55:13Z</time>
      </trkpt>
      <trkpt lat="43.335761977359653" lon="1.408901028335095">
        <ele>201.53</ele>
        <time>2025-04-26T09:55:19Z</time>
      </trkpt>
      <trkpt lat="43.335741022601724" lon="1.408661976456642">
        <ele>202.49000000000001</ele>
        <time>2025-04-26T09:55:20Z</time>
      </trkpt>
      <trkpt lat="43.335662987083197" lon="1.407935013994575">
        <ele>204.41999999999999</ele>
        <time>2025-04-26T09:55:23Z</time>
      </trkpt>
      <trkpt lat="43.335634991526604" lon="1.407695040106773">
        <ele>205.38</ele>
        <time>2025-04-26T09:55:24Z</time>
      </trkpt>
      <trkpt lat="43.335419995710254" lon="1.406113039702177">
        <ele>209.69999999999999</ele>
        <time>2025-04-26T09:55:31Z</time>
      </trkpt>
      <trkpt lat="43.335381019860506" lon="1.405925033614039">
        <ele>209.69999999999999</ele>
        <time>2025-04-26T09:55:32Z</time>
      </trkpt>
      <trkpt lat="43.33526099100709" lon="1.405362021178007">
        <ele>211.63</ele>
        <time>2025-04-26T09:55:35Z</time>
      </trkpt>
      <trkpt lat="43.335216986015439" lon="1.405155993998051">
        <ele>211.63</ele>
        <time>2025-04-26T09:55:36Z</time>
      </trkpt>
      <trkpt lat="43.335189996287227" lon="1.404932029545307">
        <ele>212.11000000000001</ele>
        <time>2025-04-26T09:55:37Z</time>
      </trkpt>
      <trkpt lat="43.335256967693567" lon="1.404192997142673">
        <ele>212.59</ele>
        <time>2025-04-26T09:55:40Z</time>
      </trkpt>
      <trkpt lat="43.335415972396731" lon="1.403274005278945">
        <ele>214.50999999999999</ele>
        <time>2025-04-26T09:55:45Z</time>
      </trkpt>
      <trkpt lat="43.335439022630453" lon="1.403076024726033">
        <ele>214.99000000000001</ele>
        <time>2025-04-26T09:55:46Z</time>
      </trkpt>
      <trkpt lat="43.335416978225112" lon="1.402881983667612">
        <ele>215.47</ele>
        <time>2025-04-26T09:55:47Z</time>
      </trkpt>
      <trkpt lat="43.335373979061842" lon="1.402710992842913">
        <ele>215.94999999999999</ele>
        <time>2025-04-26T09:55:48Z</time>
      </trkpt>
      <trkpt lat="43.335317987948656" lon="1.402515023946762">
        <ele>216.91</ele>
        <time>2025-04-26T09:55:49Z</time>
      </trkpt>
      <trkpt lat="43.335253028199077" lon="1.402351995930076">
        <ele>217.40000000000001</ele>
        <time>2025-04-26T09:55:50Z</time>
      </trkpt>
      <trkpt lat="43.335197037085891" lon="1.402193997055292">
        <ele>217.88</ele>
        <time>2025-04-26T09:55:51Z</time>
      </trkpt>
      <trkpt lat="43.33515303209424" lon="1.402006996795535">
        <ele>218.84</ele>
        <time>2025-04-26T09:55:52Z</time>
      </trkpt>
      <trkpt lat="43.335119001567364" lon="1.401807004585862">
        <ele>219.31999999999999</ele>
        <time>2025-04-26T09:55:53Z</time>
      </trkpt>
      <trkpt lat="43.335101986303926" lon="1.401367038488388">
        <ele>220.75999999999999</ele>
        <time>2025-04-26T09:55:55Z</time>
      </trkpt>
      <trkpt lat="43.335093017667532" lon="1.401126980781555">
        <ele>221.24000000000001</ele>
        <time>2025-04-26T09:55:56Z</time>
      </trkpt>
      <trkpt lat="43.335082959383726" lon="1.400882983580232">
        <ele>221.72</ele>
        <time>2025-04-26T09:55:57Z</time>
      </trkpt>
      <trkpt lat="43.335083965212107" lon="1.400630017742515">
        <ele>222.19999999999999</ele>
        <time>2025-04-26T09:55:58Z</time>
      </trkpt>
      <trkpt lat="43.335095029324293" lon="1.400393983349204">
        <ele>222.68000000000001</ele>
        <time>2025-04-26T09:55:59Z</time>
      </trkpt>
      <trkpt lat="43.335154037922621" lon="1.399966003373265">
        <ele>224.12</ele>
        <time>2025-04-26T09:56:01Z</time>
      </trkpt>
      <trkpt lat="43.335187984630466" lon="1.399771962314844">
        <ele>224.61000000000001</ele>
        <time>2025-04-26T09:56:02Z</time>
      </trkpt>
      <trkpt lat="43.335227966308594" lon="1.399534000083804">
        <ele>225.09</ele>
        <time>2025-04-26T09:56:03Z</time>
      </trkpt>
      <trkpt lat="43.335283035412431" lon="1.399380024522543">
        <ele>226.05000000000001</ele>
        <time>2025-04-26T09:56:04Z</time>
      </trkpt>
      <trkpt lat="43.33534698933363" lon="1.399197969585657">
        <ele>227.00999999999999</ele>
        <time>2025-04-26T09:56:05Z</time>
      </trkpt>
      <trkpt lat="43.335450002923608" lon="1.399023039266467">
        <ele>227.49000000000001</ele>
        <time>2025-04-26T09:56:06Z</time>
      </trkpt>
      <trkpt lat="43.335543964058161" lon="1.398876020684838">
        <ele>228.44999999999999</ele>
        <time>2025-04-26T09:56:07Z</time>
      </trkpt>
      <trkpt lat="43.335633985698223" lon="1.398734031245112">
        <ele>229.88999999999999</ele>
        <time>2025-04-26T09:56:08Z</time>
      </trkpt>
      <trkpt lat="43.335836995393038" lon="1.398416021838784">
        <ele>232.30000000000001</ele>
        <time>2025-04-26T09:56:11Z</time>
      </trkpt>
      <trkpt lat="43.335958030074835" lon="1.398224998265505">
        <ele>233.25999999999999</ele>
        <time>2025-04-26T09:56:12Z</time>
      </trkpt>
      <trkpt lat="43.335958030074835" lon="1.398224998265505">
        <ele>233.25999999999999</ele>
        <time>2025-04-26T09:56:13Z</time>
      </trkpt>
      <trkpt lat="43.335958030074835" lon="1.398074962198734">
        <ele>232.78</ele>
        <time>2025-04-26T09:56:14Z</time>
      </trkpt>
      <trkpt lat="43.335923999547958" lon="1.39799801632762">
        <ele>232.78</ele>
        <time>2025-04-26T09:56:15Z</time>
      </trkpt>
      <trkpt lat="43.33586398512125" lon="1.39787002466619">
        <ele>232.78</ele>
        <time>2025-04-26T09:56:16Z</time>
      </trkpt>
      <trkpt lat="43.335790978744626" lon="1.397768016904593">
        <ele>232.30000000000001</ele>
        <time>2025-04-26T09:56:17Z</time>
      </trkpt>
      <trkpt lat="43.335714032873511" lon="1.397659974172711">
        <ele>232.30000000000001</ele>
        <time>2025-04-26T09:56:18Z</time>
      </trkpt>
      <trkpt lat="43.335643038153648" lon="1.39754799194634">
        <ele>231.81</ele>
        <time>2025-04-26T09:56:19Z</time>
      </trkpt>
      <trkpt lat="43.335571959614754" lon="1.397387981414795">
        <ele>231.81</ele>
        <time>2025-04-26T09:56:20Z</time>
      </trkpt>
      <trkpt lat="43.335557961836457" lon="1.39720500446856">
        <ele>231.81</ele>
        <time>2025-04-26T09:56:21Z</time>
      </trkpt>
      <trkpt lat="43.335549999028444" lon="1.397007023915649">
        <ele>231.33000000000001</ele>
        <time>2025-04-26T09:56:22Z</time>
      </trkpt>
      <trkpt lat="43.335528038442135" lon="1.396127007901669">
        <ele>234.69999999999999</ele>
        <time>2025-04-26T09:56:26Z</time>
      </trkpt>
      <trkpt lat="43.335273982957006" lon="1.393845034763217">
        <ele>237.58000000000001</ele>
        <time>2025-04-26T09:56:35Z</time>
      </trkpt>
      <trkpt lat="43.334827981889248" lon="1.391074983403087">
        <ele>242.87</ele>
        <time>2025-04-26T09:56:45Z</time>
      </trkpt>
      <trkpt lat="43.334277961403131" lon="1.388318007811904">
        <ele>255.37</ele>
        <time>2025-04-26T09:56:55Z</time>
      </trkpt>
      <trkpt lat="43.333719978109002" lon="1.384901041164994">
        <ele>267.38</ele>
        <time>2025-04-26T09:57:07Z</time>
      </trkpt>
      <trkpt lat="43.332868041470647" lon="1.380395013839006">
        <ele>285.64999999999998</ele>
        <time>2025-04-26T09:57:23Z</time>
      </trkpt>
      <trkpt lat="43.332480965182185" lon="1.37866297736764">
        <ele>288.05000000000001</ele>
        <time>2025-04-26T09:57:31Z</time>
      </trkpt>
      <trkpt lat="43.332325983792543" lon="1.377897961065173">
        <ele>289.00999999999999</ele>
        <time>2025-04-26T09:57:35Z</time>
      </trkpt>
      <trkpt lat="43.332309974357486" lon="1.37769402936101">
        <ele>289.00999999999999</ele>
        <time>2025-04-26T09:57:36Z</time>
      </trkpt>
      <trkpt lat="43.332324977964163" lon="1.37748003937304">
        <ele>289.49000000000001</ele>
        <time>2025-04-26T09:57:37Z</time>
      </trkpt>
      <trkpt lat="43.332299999892712" lon="1.375583969056606">
        <ele>284.69</ele>
        <time>2025-04-26T09:57:45Z</time>
      </trkpt>
      <trkpt lat="43.332020966336131" lon="1.37322798371315">
        <ele>271.70999999999998</ele>
        <time>2025-04-26T09:57:54Z</time>
      </trkpt>
      <trkpt lat="43.331650989130139" lon="1.370931006968021">
        <ele>258.25</ele>
        <time>2025-04-26T09:58:03Z</time>
      </trkpt>
      <trkpt lat="43.331356029957533" lon="1.367805982008576">
        <ele>239.02000000000001</ele>
        <time>2025-04-26T09:58:14Z</time>
      </trkpt>
      <trkpt lat="43.331346977502108" lon="1.367514040321112">
        <ele>237.58000000000001</ele>
        <time>2025-04-26T09:58:15Z</time>
      </trkpt>
      <trkpt lat="43.331359969452024" lon="1.36600898578763">
        <ele>228.93000000000001</ele>
        <time>2025-04-26T09:58:20Z</time>
      </trkpt>
      <trkpt lat="43.331364998593926" lon="1.365704974159598">
        <ele>227.49000000000001</ele>
        <time>2025-04-26T09:58:21Z</time>
      </trkpt>
      <trkpt lat="43.331338008865714" lon="1.363318981602788">
        <ele>215.47</ele>
        <time>2025-04-26T09:58:29Z</time>
      </trkpt>
      <trkpt lat="43.330994015559554" lon="1.361182015389204">
        <ele>206.34</ele>
        <time>2025-04-26T09:58:37Z</time>
      </trkpt>
      <trkpt lat="43.33072897978127" lon="1.359716020524502">
        <ele>199.61000000000001</ele>
        <time>2025-04-26T09:58:43Z</time>
      </trkpt>
      <trkpt lat="43.330338969826698" lon="1.357461959123612">
        <ele>192.40000000000001</ele>
        <time>2025-04-26T09:58:53Z</time>
      </trkpt>
      <trkpt lat="43.330100001767278" lon="1.355088036507368">
        <ele>188.08000000000001</ele>
        <time>2025-04-26T09:59:02Z</time>
      </trkpt>
      <trkpt lat="43.330137971788645" lon="1.354801040142775">
        <ele>187.59</ele>
        <time>2025-04-26T09:59:03Z</time>
      </trkpt>
      <trkpt lat="43.330181976780295" lon="1.354521000757814">
        <ele>187.59</ele>
        <time>2025-04-26T09:59:04Z</time>
      </trkpt>
      <trkpt lat="43.330245008692145" lon="1.354229981079698">
        <ele>187.59</ele>
        <time>2025-04-26T09:59:05Z</time>
      </trkpt>
      <trkpt lat="43.330324972048402" lon="1.353940973058343">
        <ele>188.56</ele>
        <time>2025-04-26T09:59:06Z</time>
      </trkpt>
      <trkpt lat="43.331507993862033" lon="1.349853035062552">
        <ele>194.31999999999999</ele>
        <time>2025-04-26T09:59:21Z</time>
      </trkpt>
      <trkpt lat="43.332508038729429" lon="1.346489964053035">
        <ele>194.80000000000001</ele>
        <time>2025-04-26T09:59:34Z</time>
      </trkpt>
      <trkpt lat="43.33272697404027" lon="1.345500983297825">
        <ele>195.28</ele>
        <time>2025-04-26T09:59:38Z</time>
      </trkpt>
      <trkpt lat="43.332750024273992" lon="1.345256986096501">
        <ele>195.77000000000001</ele>
        <time>2025-04-26T09:59:39Z</time>
      </trkpt>
      <trkpt lat="43.332756981253624" lon="1.345020029693842">
        <ele>195.77000000000001</ele>
        <time>2025-04-26T09:59:40Z</time>
      </trkpt>
      <trkpt lat="43.332749018445611" lon="1.344779971987009">
        <ele>195.77000000000001</ele>
        <time>2025-04-26T09:59:41Z</time>
      </trkpt>
      <trkpt lat="43.332740971818566" lon="1.344542009755969">
        <ele>196.25</ele>
        <time>2025-04-26T09:59:42Z</time>
      </trkpt>
      <trkpt lat="43.332694033160806" lon="1.344320978969336">
        <ele>196.25</ele>
        <time>2025-04-26T09:59:43Z</time>
      </trkpt>
      <trkpt lat="43.332635024562478" lon="1.344097014516592">
        <ele>196.25</ele>
        <time>2025-04-26T09:59:44Z</time>
      </trkpt>
      <trkpt lat="43.332563024014235" lon="1.34387799538672">
        <ele>196.25</ele>
        <time>2025-04-26T09:59:45Z</time>
      </trkpt>
      <trkpt lat="43.332487000152469" lon="1.343651013448834">
        <ele>196.25</ele>
        <time>2025-04-26T09:59:46Z</time>
      </trkpt>
      <trkpt lat="43.331123013049364" lon="1.340083004906774">
        <ele>196.25</ele>
        <time>2025-04-26T10:00:01Z</time>
      </trkpt>
      <trkpt lat="43.330063037574291" lon="1.338029019534588">
        <ele>197.69</ele>
        <time>2025-04-26T10:00:10Z</time>
      </trkpt>
      <trkpt lat="43.32943900488317" lon="1.336671989411116">
        <ele>196.72999999999999</ele>
        <time>2025-04-26T10:00:16Z</time>
      </trkpt>
      <trkpt lat="43.329382007941604" lon="1.336420029401779">
        <ele>196.25</ele>
        <time>2025-04-26T10:00:17Z</time>
      </trkpt>
      <trkpt lat="43.329325011000037" lon="1.336167985573411">
        <ele>195.28</ele>
        <time>2025-04-26T10:00:18Z</time>
      </trkpt>
      <trkpt lat="43.32905100658536" lon="1.333951978012919">
        <ele>190.96000000000001</ele>
        <time>2025-04-26T10:00:27Z</time>
      </trkpt>
      <trkpt lat="43.328885966911912" lon="1.332606012001634">
        <ele>190</ele>
        <time>2025-04-26T10:00:35Z</time>
      </trkpt>
      <trkpt lat="43.328826958313584" lon="1.332068983465433">
        <ele>190.47999999999999</ele>
        <time>2025-04-26T10:00:39Z</time>
      </trkpt>
      <trkpt lat="43.328876998275518" lon="1.331705963239074">
        <ele>190</ele>
        <time>2025-04-26T10:00:42Z</time>
      </trkpt>
      <trkpt lat="43.328883033245802" lon="1.331670004874468">
        <ele>190</ele>
        <time>2025-04-26T10:00:43Z</time>
      </trkpt>
      <trkpt lat="43.328898036852479" lon="1.331576965749264">
        <ele>190</ele>
        <time>2025-04-26T10:00:44Z</time>
      </trkpt>
      <trkpt lat="43.328790999948978" lon="1.331448974087834">
        <ele>190</ele>
        <time>2025-04-26T10:00:45Z</time>
      </trkpt>
      <trkpt lat="43.328790999948978" lon="1.331327017396689">
        <ele>189.52000000000001</ele>
        <time>2025-04-26T10:00:46Z</time>
      </trkpt>
      <trkpt lat="43.328788988292217" lon="1.331190979108214">
        <ele>189.52000000000001</ele>
        <time>2025-04-26T10:00:47Z</time>
      </trkpt>
      <trkpt lat="43.328784964978695" lon="1.331043038517237">
        <ele>189.52000000000001</ele>
        <time>2025-04-26T10:00:48Z</time>
      </trkpt>
      <trkpt lat="43.328728973865509" lon="1.3296789675951">
        <ele>187.59</ele>
        <time>2025-04-26T10:00:58Z</time>
      </trkpt>
      <trkpt lat="43.328633001074195" lon="1.327865039929748">
        <ele>185.66999999999999</ele>
        <time>2025-04-26T10:01:14Z</time>
      </trkpt>
      <trkpt lat="43.328543985262513" lon="1.326269963756204">
        <ele>186.15000000000001</ele>
        <time>2025-04-26T10:01:28Z</time>
      </trkpt>
      <trkpt lat="43.3285360224545" lon="1.32615496404469">
        <ele>186.63</ele>
        <time>2025-04-26T10:01:29Z</time>
      </trkpt>
      <trkpt lat="43.328510960564017" lon="1.325798984616995">
        <ele>186.63</ele>
        <time>2025-04-26T10:01:32Z</time>
      </trkpt>
      <trkpt lat="43.328409036621451" lon="1.324322009459138">
        <ele>185.19</ele>
        <time>2025-04-26T10:01:45Z</time>
      </trkpt>
      <trkpt lat="43.328403001651168" lon="1.32421899586916">
        <ele>185.19</ele>
        <time>2025-04-26T10:01:46Z</time>
      </trkpt>
      <trkpt lat="43.328395960852504" lon="1.324117993935943">
        <ele>185.19</ele>
        <time>2025-04-26T10:01:47Z</time>
      </trkpt>
      <trkpt lat="43.328387998044491" lon="1.324019003659487">
        <ele>185.19</ele>
        <time>2025-04-26T10:01:48Z</time>
      </trkpt>
      <trkpt lat="43.328365031629801" lon="1.323598986491561">
        <ele>184.22999999999999</ele>
        <time>2025-04-26T10:01:52Z</time>
      </trkpt>
      <trkpt lat="43.328358996659517" lon="1.323503013700247">
        <ele>184.22999999999999</ele>
        <time>2025-04-26T10:01:53Z</time>
      </trkpt>
      <trkpt lat="43.328352961689234" lon="1.323404023423791">
        <ele>183.75</ele>
        <time>2025-04-26T10:01:54Z</time>
      </trkpt>
      <trkpt lat="43.328347010537982" lon="1.323306038975716">
        <ele>183.27000000000001</ele>
        <time>2025-04-26T10:01:55Z</time>
      </trkpt>
      <trkpt lat="43.328340975567698" lon="1.323202019557357">
        <ele>183.27000000000001</ele>
        <time>2025-04-26T10:01:56Z</time>
      </trkpt>
      <trkpt lat="43.328340975567698" lon="1.322554014623165">
        <ele>181.83000000000001</ele>
        <time>2025-04-26T10:02:03Z</time>
      </trkpt>
      <trkpt lat="43.328340975567698" lon="1.322485031560063">
        <ele>181.83000000000001</ele>
        <time>2025-04-26T10:02:04Z</time>
      </trkpt>
      <trkpt lat="43.328340975567698" lon="1.322425017133355">
        <ele>182.31</ele>
        <time>2025-04-26T10:02:05Z</time>
      </trkpt>
      <trkpt lat="43.328340975567698" lon="1.322377994656563">
        <ele>182.31</ele>
        <time>2025-04-26T10:02:06Z</time>
      </trkpt>
      <trkpt lat="43.328382968902588" lon="1.322280010208488">
        <ele>182.31</ele>
        <time>2025-04-26T10:02:07Z</time>
      </trkpt>
      <trkpt lat="43.328423034399748" lon="1.322273975238204">
        <ele>182.31</ele>
        <time>2025-04-26T10:02:08Z</time>
      </trkpt>
      <trkpt lat="43.328466033563018" lon="1.322268024086952">
        <ele>182.31</ele>
        <time>2025-04-26T10:02:09Z</time>
      </trkpt>
      <trkpt lat="43.328513978049159" lon="1.322265006601811">
        <ele>182.31</ele>
        <time>2025-04-26T10:02:10Z</time>
      </trkpt>
      <trkpt lat="43.328565023839474" lon="1.322265006601811">
        <ele>182.31</ele>
        <time>2025-04-26T10:02:11Z</time>
      </trkpt>
      <trkpt lat="43.32922300323844" lon="1.322261989116669">
        <ele>182.31</ele>
        <time>2025-04-26T10:02:21Z</time>
      </trkpt>
      <trkpt lat="43.329296009615064" lon="1.322251008823514">
        <ele>181.83000000000001</ele>
        <time>2025-04-26T10:02:22Z</time>
      </trkpt>
      <trkpt lat="43.329373961314559" lon="1.32224103435874">
        <ele>181.83000000000001</ele>
        <time>2025-04-26T10:02:23Z</time>
      </trkpt>
      <trkpt lat="43.330112993717194" lon="1.322183031588793">
        <ele>184.22999999999999</ele>
        <time>2025-04-26T10:02:33Z</time>
      </trkpt>
      <trkpt lat="43.33016999065876" lon="1.322180014103651">
        <ele>184.71000000000001</ele>
        <time>2025-04-26T10:02:34Z</time>
      </trkpt>
      <trkpt lat="43.33019002340734" lon="1.322102984413505">
        <ele>185.19</ele>
        <time>2025-04-26T10:02:35Z</time>
      </trkpt>
      <trkpt lat="43.330193962901831" lon="1.322029978036881">
        <ele>185.19</ele>
        <time>2025-04-26T10:02:36Z</time>
      </trkpt>
      <trkpt lat="43.330197986215353" lon="1.321938028559089">
        <ele>185.66999999999999</ele>
        <time>2025-04-26T10:02:37Z</time>
      </trkpt>
      <trkpt lat="43.330203015357256" lon="1.321839960291982">
        <ele>186.15000000000001</ele>
        <time>2025-04-26T10:02:38Z</time>
      </trkpt>
      <trkpt lat="43.330244002863765" lon="1.321046026423574">
        <ele>189.52000000000001</ele>
        <time>2025-04-26T10:02:45Z</time>
      </trkpt>
      <trkpt lat="43.330250959843397" lon="1.320919040590525">
        <ele>190</ele>
        <time>2025-04-26T10:02:46Z</time>
      </trkpt>
      <trkpt lat="43.330321032553911" lon="1.319848001003265">
        <ele>197.21000000000001</ele>
        <time>2025-04-26T10:02:53Z</time>
      </trkpt>
      <trkpt lat="43.330331007018685" lon="1.319709029048681">
        <ele>198.16999999999999</ele>
        <time>2025-04-26T10:02:54Z</time>
      </trkpt>
      <trkpt lat="43.330338969826698" lon="1.319586988538504">
        <ele>199.13</ele>
        <time>2025-04-26T10:02:55Z</time>
      </trkpt>
      <trkpt lat="43.330356990918517" lon="1.31936201825738">
        <ele>200.56999999999999</ele>
        <time>2025-04-26T10:02:57Z</time>
      </trkpt>
      <trkpt lat="43.330365959554911" lon="1.319240983575583">
        <ele>201.05000000000001</ele>
        <time>2025-04-26T10:02:58Z</time>
      </trkpt>
      <trkpt lat="43.330376017838717" lon="1.319119026884437">
        <ele>202.00999999999999</ele>
        <time>2025-04-26T10:02:59Z</time>
      </trkpt>
      <trkpt lat="43.330454975366592" lon="1.318643018603325">
        <ele>203.94</ele>
        <time>2025-04-26T10:03:03Z</time>
      </trkpt>
      <trkpt lat="43.330685980618" lon="1.317832991480827">
        <ele>207.30000000000001</ele>
        <time>2025-04-26T10:03:10Z</time>
      </trkpt>
      <trkpt lat="43.330710036680102" lon="1.317712040618062">
        <ele>207.30000000000001</ele>
        <time>2025-04-26T10:03:11Z</time>
      </trkpt>
      <trkpt lat="43.330759992823005" lon="1.317459996789694">
        <ele>206.81999999999999</ele>
        <time>2025-04-26T10:03:13Z</time>
      </trkpt>
      <trkpt lat="43.330926038324833" lon="1.317304009571672">
        <ele>207.30000000000001</ele>
        <time>2025-04-26T10:03:15Z</time>
      </trkpt>
      <trkpt lat="43.330966020002961" lon="1.316852979362011">
        <ele>207.30000000000001</ele>
        <time>2025-04-26T10:03:18Z</time>
      </trkpt>
      <trkpt lat="43.33102704025805" lon="1.316735967993736">
        <ele>207.78</ele>
        <time>2025-04-26T10:03:19Z</time>
      </trkpt>
      <trkpt lat="43.331090994179249" lon="1.31661401130259">
        <ele>208.25999999999999</ele>
        <time>2025-04-26T10:03:20Z</time>
      </trkpt>
      <trkpt lat="43.331683008000255" lon="1.315326970070601">
        <ele>212.59</ele>
        <time>2025-04-26T10:03:29Z</time>
      </trkpt>
      <trkpt lat="43.332464033737779" lon="1.313887964934111">
        <ele>221.24000000000001</ele>
        <time>2025-04-26T10:03:40Z</time>
      </trkpt>
      <trkpt lat="43.332553971558809" lon="1.313780006021261">
        <ele>222.19999999999999</ele>
        <time>2025-04-26T10:03:41Z</time>
      </trkpt>
      <trkpt lat="43.332642987370491" lon="1.313672969117761">
        <ele>223.16</ele>
        <time>2025-04-26T10:03:42Z</time>
      </trkpt>
      <trkpt lat="43.332749018445611" lon="1.313596023246646">
        <ele>223.63999999999999</ele>
        <time>2025-04-26T10:03:43Z</time>
      </trkpt>
      <trkpt lat="43.33285597153008" lon="1.313525028526783">
        <ele>224.61000000000001</ele>
        <time>2025-04-26T10:03:44Z</time>
      </trkpt>
      <trkpt lat="43.332967031747103" lon="1.313468031585217">
        <ele>225.09</ele>
        <time>2025-04-26T10:03:45Z</time>
      </trkpt>
      <trkpt lat="43.333083037286997" lon="1.313426038250327">
        <ele>225.56999999999999</ele>
        <time>2025-04-26T10:03:46Z</time>
      </trkpt>
      <trkpt lat="43.333556028082967" lon="1.313255969434977">
        <ele>227.97</ele>
        <time>2025-04-26T10:03:50Z</time>
      </trkpt>
      <trkpt lat="43.333683013916016" lon="1.313210958614945">
        <ele>227.97</ele>
        <time>2025-04-26T10:03:51Z</time>
      </trkpt>
      <trkpt lat="43.333817962557077" lon="1.313140969723463">
        <ele>228.44999999999999</ele>
        <time>2025-04-26T10:03:52Z</time>
      </trkpt>
      <trkpt lat="43.333957018330693" lon="1.313048014417291">
        <ele>228.93000000000001</ele>
        <time>2025-04-26T10:03:53Z</time>
      </trkpt>
      <trkpt lat="43.334081992506981" lon="1.312915999442339">
        <ele>229.41</ele>
        <time>2025-04-26T10:03:54Z</time>
      </trkpt>
      <trkpt lat="43.334201015532017" lon="1.312760012224317">
        <ele>229.88999999999999</ele>
        <time>2025-04-26T10:03:55Z</time>
      </trkpt>
      <trkpt lat="43.334309980273247" lon="1.312592960894108">
        <ele>230.84999999999999</ele>
        <time>2025-04-26T10:03:56Z</time>
      </trkpt>
      <trkpt lat="43.334397990256548" lon="1.312391040846705">
        <ele>231.33000000000001</ele>
        <time>2025-04-26T10:03:57Z</time>
      </trkpt>
      <trkpt lat="43.334459010511637" lon="1.312174033373594">
        <ele>232.30000000000001</ele>
        <time>2025-04-26T10:03:58Z</time>
      </trkpt>
      <trkpt lat="43.334502009674907" lon="1.311944033950567">
        <ele>232.78</ele>
        <time>2025-04-26T10:03:59Z</time>
      </trkpt>
      <trkpt lat="43.334539979696274" lon="1.311703976243734">
        <ele>233.74000000000001</ele>
        <time>2025-04-26T10:04:00Z</time>
      </trkpt>
      <trkpt lat="43.334520030766726" lon="1.311493003740907">
        <ele>234.22</ele>
        <time>2025-04-26T10:04:01Z</time>
      </trkpt>
      <trkpt lat="43.334451969712973" lon="1.311216987669468">
        <ele>234.69999999999999</ele>
        <time>2025-04-26T10:04:02Z</time>
      </trkpt>
      <trkpt lat="43.334389021620154" lon="1.310965027660132">
        <ele>235.18000000000001</ele>
        <time>2025-04-26T10:04:03Z</time>
      </trkpt>
      <trkpt lat="43.334306962788105" lon="1.310723964124918">
        <ele>236.13999999999999</ele>
        <time>2025-04-26T10:04:04Z</time>
      </trkpt>
      <trkpt lat="43.334192968904972" lon="1.310493964701891">
        <ele>236.62</ele>
        <time>2025-04-26T10:04:05Z</time>
      </trkpt>
      <trkpt lat="43.334050979465246" lon="1.310290032997727">
        <ele>237.09999999999999</ele>
        <time>2025-04-26T10:04:06Z</time>
      </trkpt>
      <trkpt lat="43.333900021389127" lon="1.31008299998939">
        <ele>238.06</ele>
        <time>2025-04-26T10:04:07Z</time>
      </trkpt>
      <trkpt lat="43.333745962008834" lon="1.309877978637815">
        <ele>238.53999999999999</ele>
        <time>2025-04-26T10:04:08Z</time>
      </trkpt>
      <trkpt lat="43.33289603702724" lon="1.308257002383471">
        <ele>244.78999999999999</ele>
        <time>2025-04-26T10:04:15Z</time>
      </trkpt>
      <trkpt lat="43.332203021273017" lon="1.305614020675421">
        <ele>256.32999999999998</ele>
        <time>2025-04-26T10:04:25Z</time>
      </trkpt>
      <trkpt lat="43.332087015733123" lon="1.303023006767035">
        <ele>264.5</ele>
        <time>2025-04-26T10:04:34Z</time>
      </trkpt>
      <trkpt lat="43.332208972424269" lon="1.300935996696353">
        <ele>267.86000000000001</ele>
        <time>2025-04-26T10:04:41Z</time>
      </trkpt>
      <trkpt lat="43.332649022340775" lon="1.298310030251741">
        <ele>272.67000000000002</ele>
        <time>2025-04-26T10:04:50Z</time>
      </trkpt>
      <trkpt lat="43.332732003182173" lon="1.298061003908515">
        <ele>273.63</ele>
        <time>2025-04-26T10:04:51Z</time>
      </trkpt>
      <trkpt lat="43.332857983186841" lon="1.297833016142249">
        <ele>274.11000000000001</ele>
        <time>2025-04-26T10:04:52Z</time>
      </trkpt>
      <trkpt lat="43.332991003990173" lon="1.297603016719222">
        <ele>275.06999999999999</ele>
        <time>2025-04-26T10:04:53Z</time>
      </trkpt>
      <trkpt lat="43.33313500508666" lon="1.297386009246111">
        <ele>275.56</ele>
        <time>2025-04-26T10:04:54Z</time>
      </trkpt>
      <trkpt lat="43.333296021446586" lon="1.297178976237774">
        <ele>276.04000000000002</ele>
        <time>2025-04-26T10:04:55Z</time>
      </trkpt>
      <trkpt lat="43.334956979379058" lon="1.295162038877606">
        <ele>282.27999999999997</ele>
        <time>2025-04-26T10:05:05Z</time>
      </trkpt>
      <trkpt lat="43.335146997123957" lon="1.295009991154075">
        <ele>282.76999999999998</ele>
        <time>2025-04-26T10:05:06Z</time>
      </trkpt>
      <trkpt lat="43.335337014868855" lon="1.294858027249575">
        <ele>283.25</ele>
        <time>2025-04-26T10:05:07Z</time>
      </trkpt>
      <trkpt lat="43.335902960970998" lon="1.294404985383153">
        <ele>283.25</ele>
        <time>2025-04-26T10:05:10Z</time>
      </trkpt>
      <trkpt lat="43.336075963452458" lon="1.294229971244931">
        <ele>283.25</ele>
        <time>2025-04-26T10:05:11Z</time>
      </trkpt>
      <trkpt lat="43.337369961664081" lon="1.292617041617632">
        <ele>273.14999999999998</ele>
        <time>2025-04-26T10:05:19Z</time>
      </trkpt>
      <trkpt lat="43.338217958807945" lon="1.291743982583284">
        <ele>265.45999999999998</ele>
        <time>2025-04-26T10:05:24Z</time>
      </trkpt>
      <trkpt lat="43.338365983217955" lon="1.29154097288847">
        <ele>264.01999999999998</ele>
        <time>2025-04-26T10:05:25Z</time>
      </trkpt>
      <trkpt lat="43.338490035384893" lon="1.291313990950584">
        <ele>262.57999999999998</ele>
        <time>2025-04-26T10:05:26Z</time>
      </trkpt>
      <trkpt lat="43.338588019832969" lon="1.291054990142584">
        <ele>260.64999999999998</ele>
        <time>2025-04-26T10:05:27Z</time>
      </trkpt>
      <trkpt lat="43.338688015937805" lon="1.29078802652657">
        <ele>259.20999999999998</ele>
        <time>2025-04-26T10:05:28Z</time>
      </trkpt>
      <trkpt lat="43.338760016486049" lon="1.290502035990357">
        <ele>257.29000000000002</ele>
        <time>2025-04-26T10:05:29Z</time>
      </trkpt>
      <trkpt lat="43.338826987892389" lon="1.29020900465548">
        <ele>255.37</ele>
        <time>2025-04-26T10:05:30Z</time>
      </trkpt>
      <trkpt lat="43.338889013975859" lon="1.289914967492223">
        <ele>253.44</ele>
        <time>2025-04-26T10:05:31Z</time>
      </trkpt>
      <trkpt lat="43.339478010311723" lon="1.286344025284052">
        <ele>235.66</ele>
        <time>2025-04-26T10:05:43Z</time>
      </trkpt>
      <trkpt lat="43.339798031374812" lon="1.284566977992654">
        <ele>231.33000000000001</ele>
        <time>2025-04-26T10:05:50Z</time>
      </trkpt>
      <trkpt lat="43.339789984747767" lon="1.284331027418375">
        <ele>230.84999999999999</ele>
        <time>2025-04-26T10:05:51Z</time>
      </trkpt>
      <trkpt lat="43.339783027768135" lon="1.284102033823729">
        <ele>230.37</ele>
        <time>2025-04-26T10:05:52Z</time>
      </trkpt>
      <trkpt lat="43.339692000299692" lon="1.283380016684532">
        <ele>229.41</ele>
        <time>2025-04-26T10:05:55Z</time>
      </trkpt>
      <trkpt lat="43.339636009186506" lon="1.283127972856164">
        <ele>228.93000000000001</ele>
        <time>2025-04-26T10:05:56Z</time>
      </trkpt>
      <trkpt lat="43.339066039770842" lon="1.281299963593483">
        <ele>225.09</ele>
        <time>2025-04-26T10:06:03Z</time>
      </trkpt>
      <trkpt lat="43.338494980707765" lon="1.27905897796154">
        <ele>214.99000000000001</ele>
        <time>2025-04-26T10:06:11Z</time>
      </trkpt>
      <trkpt lat="43.338435972109437" lon="1.278494959697127">
        <ele>211.15000000000001</ele>
        <time>2025-04-26T10:06:13Z</time>
      </trkpt>
      <trkpt lat="43.338427003473043" lon="1.27821802161634">
        <ele>209.69999999999999</ele>
        <time>2025-04-26T10:06:14Z</time>
      </trkpt>
      <trkpt lat="43.338452987372875" lon="1.277936976402998">
        <ele>208.25999999999999</ele>
        <time>2025-04-26T10:06:15Z</time>
      </trkpt>
      <trkpt lat="43.3387849945575" lon="1.275203973054886">
        <ele>191.44</ele>
        <time>2025-04-26T10:06:25Z</time>
      </trkpt>
      <trkpt lat="43.338864035904408" lon="1.27495301887393">
        <ele>190.47999999999999</ele>
        <time>2025-04-26T10:06:26Z</time>
      </trkpt>
      <trkpt lat="43.339729970321059" lon="1.272929962724447">
        <ele>190</ele>
        <time>2025-04-26T10:06:34Z</time>
      </trkpt>
      <trkpt lat="43.340362971648574" lon="1.27061203122139">
        <ele>192.40000000000001</ele>
        <time>2025-04-26T10:06:43Z</time>
      </trkpt>
      <trkpt lat="43.340401025488973" lon="1.270360993221402">
        <ele>191.91999999999999</ele>
        <time>2025-04-26T10:06:44Z</time>
      </trkpt>
      <trkpt lat="43.340412005782127" lon="1.270097969099879">
        <ele>191.91999999999999</ele>
        <time>2025-04-26T10:06:45Z</time>
      </trkpt>
      <trkpt lat="43.34041602909565" lon="1.269833017140627">
        <ele>191.44</ele>
        <time>2025-04-26T10:06:46Z</time>
      </trkpt>
      <trkpt lat="43.340391973033547" lon="1.269563036039472">
        <ele>191.44</ele>
        <time>2025-04-26T10:06:47Z</time>
      </trkpt>
      <trkpt lat="43.340348973870277" lon="1.269292971119285">
        <ele>190.96000000000001</ele>
        <time>2025-04-26T10:06:48Z</time>
      </trkpt>
      <trkpt lat="43.340284014120698" lon="1.26902399584651">
        <ele>190.47999999999999</ele>
        <time>2025-04-26T10:06:49Z</time>
      </trkpt>
      <trkpt lat="43.340216958895326" lon="1.268750997260213">
        <ele>190</ele>
        <time>2025-04-26T10:06:50Z</time>
      </trkpt>
      <trkpt lat="43.339799959212542" lon="1.266845958307385">
        <ele>187.11000000000001</ele>
        <time>2025-04-26T10:06:57Z</time>
      </trkpt>
      <trkpt lat="43.339220015332103" lon="1.264876965433359">
        <ele>186.15000000000001</ele>
        <time>2025-04-26T10:07:05Z</time>
      </trkpt>
      <trkpt lat="43.338653985410929" lon="1.263454975560308">
        <ele>185.19</ele>
        <time>2025-04-26T10:07:13Z</time>
      </trkpt>
      <trkpt lat="43.337977984920144" lon="1.262123007327318">
        <ele>185.66999999999999</ele>
        <time>2025-04-26T10:07:23Z</time>
      </trkpt>
      <trkpt lat="43.337439028546214" lon="1.260724989697337">
        <ele>187.11000000000001</ele>
        <time>2025-04-26T10:07:33Z</time>
      </trkpt>
      <trkpt lat="43.337287986651063" lon="1.260287035256624">
        <ele>186.63</ele>
        <time>2025-04-26T10:07:37Z</time>
      </trkpt>
      <trkpt lat="43.337287986651063" lon="1.260187961161137">
        <ele>186.15000000000001</ele>
        <time>2025-04-26T10:07:38Z</time>
      </trkpt>
      <trkpt lat="43.337320005521178" lon="1.260059969499707">
        <ele>185.66999999999999</ele>
        <time>2025-04-26T10:07:39Z</time>
      </trkpt>
      <trkpt lat="43.337356969714165" lon="1.259927032515407">
        <ele>185.19</ele>
        <time>2025-04-26T10:07:40Z</time>
      </trkpt>
      <trkpt lat="43.337435005232692" lon="1.259854026138783">
        <ele>184.71000000000001</ele>
        <time>2025-04-26T10:07:41Z</time>
      </trkpt>
      <trkpt lat="43.337514968588948" lon="1.259779008105397">
        <ele>184.22999999999999</ele>
        <time>2025-04-26T10:07:42Z</time>
      </trkpt>
      <trkpt lat="43.338378975167871" lon="1.259010974317789">
        <ele>182.31</ele>
        <time>2025-04-26T10:07:51Z</time>
      </trkpt>
      <trkpt lat="43.339705998077989" lon="1.257857959717512">
        <ele>185.19</ele>
        <time>2025-04-26T10:08:04Z</time>
      </trkpt>
      <trkpt lat="43.340409994125366" lon="1.257350016385317">
        <ele>189.03999999999999</ele>
        <time>2025-04-26T10:08:11Z</time>
      </trkpt>
      <trkpt lat="43.340492974966764" lon="1.257309028878808">
        <ele>190</ele>
        <time>2025-04-26T10:08:12Z</time>
      </trkpt>
      <trkpt lat="43.340592971071601" lon="1.257334006950259">
        <ele>190.47999999999999</ele>
        <time>2025-04-26T10:08:13Z</time>
      </trkpt>
      <trkpt lat="43.340671006590128" lon="1.257308023050427">
        <ele>190.96000000000001</ele>
        <time>2025-04-26T10:08:14Z</time>
      </trkpt>
      <trkpt lat="43.340764967724681" lon="1.257140971720219">
        <ele>191.44</ele>
        <time>2025-04-26T10:08:15Z</time>
      </trkpt>
      <trkpt lat="43.34080302156508" lon="1.257097972556949">
        <ele>191.44</ele>
        <time>2025-04-26T10:08:16Z</time>
      </trkpt>
      <trkpt lat="43.340883990749717" lon="1.257007028907538">
        <ele>191.91999999999999</ele>
        <time>2025-04-26T10:08:17Z</time>
      </trkpt>
      <trkpt lat="43.341802982613444" lon="1.255949987098575">
        <ele>198.16999999999999</ele>
        <time>2025-04-26T10:08:27Z</time>
      </trkpt>
      <trkpt lat="43.342464985325933" lon="1.255077011883259">
        <ele>198.65000000000001</ele>
        <time>2025-04-26T10:08:35Z</time>
      </trkpt>
      <trkpt lat="43.342519970610738" lon="1.254992019385099">
        <ele>198.16999999999999</ele>
        <time>2025-04-26T10:08:36Z</time>
      </trkpt>
      <trkpt lat="43.342659026384354" lon="1.254948014393449">
        <ele>197.69</ele>
        <time>2025-04-26T10:08:37Z</time>
      </trkpt>
      <trkpt lat="43.342713005840778" lon="1.254994031041861">
        <ele>197.21000000000001</ele>
        <time>2025-04-26T10:08:38Z</time>
      </trkpt>
      <trkpt lat="43.342776959761977" lon="1.255049016326666">
        <ele>197.21000000000001</ele>
        <time>2025-04-26T10:08:39Z</time>
      </trkpt>
      <trkpt lat="43.342849966138601" lon="1.255110958591104">
        <ele>196.72999999999999</ele>
        <time>2025-04-26T10:08:40Z</time>
      </trkpt>
      <trkpt lat="43.342916015535593" lon="1.255188994109631">
        <ele>196.72999999999999</ele>
        <time>2025-04-26T10:08:41Z</time>
      </trkpt>
      <trkpt lat="43.342977035790682" lon="1.255287984386087">
        <ele>196.72999999999999</ele>
        <time>2025-04-26T10:08:42Z</time>
      </trkpt>
      <trkpt lat="43.34303897805512" lon="1.255388986319304">
        <ele>196.25</ele>
        <time>2025-04-26T10:08:43Z</time>
      </trkpt>
      <trkpt lat="43.343066973611712" lon="1.255522007122636">
        <ele>196.25</ele>
        <time>2025-04-26T10:08:44Z</time>
      </trkpt>
      <trkpt lat="43.343076026067138" lon="1.255658967420459">
        <ele>196.25</ele>
        <time>2025-04-26T10:08:45Z</time>
      </trkpt>
      <trkpt lat="43.343074014410377" lon="1.255800034850836">
        <ele>196.72999999999999</ele>
        <time>2025-04-26T10:08:46Z</time>
      </trkpt>
      <trkpt lat="43.343035960569978" lon="1.255936995148659">
        <ele>196.72999999999999</ele>
        <time>2025-04-26T10:08:47Z</time>
      </trkpt>
      <trkpt lat="43.342971000820398" lon="1.25604503788054">
        <ele>196.72999999999999</ele>
        <time>2025-04-26T10:08:48Z</time>
      </trkpt>
      <trkpt lat="43.342877961695194" lon="1.256143022328615">
        <ele>196.72999999999999</ele>
        <time>2025-04-26T10:08:49Z</time>
      </trkpt>
      <trkpt lat="43.342777965590358" lon="1.256203036755323">
        <ele>196.72999999999999</ele>
        <time>2025-04-26T10:08:50Z</time>
      </trkpt>
      <trkpt lat="43.342657014727592" lon="1.256222985684872">
        <ele>197.21000000000001</ele>
        <time>2025-04-26T10:08:51Z</time>
      </trkpt>
      <trkpt lat="43.34254302084446" lon="1.256191972643137">
        <ele>197.21000000000001</ele>
        <time>2025-04-26T10:08:52Z</time>
      </trkpt>
      <trkpt lat="43.342433972284198" lon="1.256128018721938">
        <ele>196.72999999999999</ele>
        <time>2025-04-26T10:08:53Z</time>
      </trkpt>
      <trkpt lat="43.34233095869422" lon="1.25602500513196">
        <ele>196.72999999999999</ele>
        <time>2025-04-26T10:08:54Z</time>
      </trkpt>
      <trkpt lat="43.34222299978137" lon="1.255916962400079">
        <ele>196.25</ele>
        <time>2025-04-26T10:08:56Z</time>
      </trkpt>
      <trkpt lat="43.341051964089274" lon="1.254054000601172">
        <ele>198.16999999999999</ele>
        <time>2025-04-26T10:09:06Z</time>
      </trkpt>
      <trkpt lat="43.339754026383162" lon="1.251783007755876">
        <ele>195.77000000000001</ele>
        <time>2025-04-26T10:09:16Z</time>
      </trkpt>
      <trkpt lat="43.338251989334822" lon="1.249198028817773">
        <ele>195.28</ele>
        <time>2025-04-26T10:09:27Z</time>
      </trkpt>
      <trkpt lat="43.336630007252097" lon="1.246409034356475">
        <ele>198.16999999999999</ele>
        <time>2025-04-26T10:09:39Z</time>
      </trkpt>
      <trkpt lat="43.334584990516305" lon="1.242818981409073">
        <ele>198.65000000000001</ele>
        <time>2025-04-26T10:09:54Z</time>
      </trkpt>
      <trkpt lat="43.33270501345396" lon="1.239479966461659">
        <ele>201.53</ele>
        <time>2025-04-26T10:10:07Z</time>
      </trkpt>
      <trkpt lat="43.330538040027022" lon="1.235726969316602">
        <ele>203.46000000000001</ele>
        <time>2025-04-26T10:10:21Z</time>
      </trkpt>
      <trkpt lat="43.32847299054265" lon="1.232159966602922">
        <ele>200.56999999999999</ele>
        <time>2025-04-26T10:10:33Z</time>
      </trkpt>
      <trkpt lat="43.326948992908001" lon="1.229596026241779">
        <ele>201.53</ele>
        <time>2025-04-26T10:10:42Z</time>
      </trkpt>
      <trkpt lat="43.324406007304788" lon="1.225189995020628">
        <ele>203.94</ele>
        <time>2025-04-26T10:10:57Z</time>
      </trkpt>
      <trkpt lat="43.321971986442804" lon="1.220944980159402">
        <ele>203.94</ele>
        <time>2025-04-26T10:11:11Z</time>
      </trkpt>
      <trkpt lat="43.319220039993525" lon="1.216219011694193">
        <ele>203.94</ele>
        <time>2025-04-26T10:11:26Z</time>
      </trkpt>
      <trkpt lat="43.316817032173276" lon="1.212096959352493">
        <ele>202.97999999999999</ele>
        <time>2025-04-26T10:11:39Z</time>
      </trkpt>
      <trkpt lat="43.313944973051548" lon="1.207147026434541">
        <ele>203.94</ele>
        <time>2025-04-26T10:11:55Z</time>
      </trkpt>
      <trkpt lat="43.310429016128182" lon="1.201083976775408">
        <ele>205.38</ele>
        <time>2025-04-26T10:12:14Z</time>
      </trkpt>
      <trkpt lat="43.306896965950727" lon="1.195017993450165">
        <ele>206.81999999999999</ele>
        <time>2025-04-26T10:12:33Z</time>
      </trkpt>
      <trkpt lat="43.304298995062709" lon="1.190548008307815">
        <ele>206.81999999999999</ele>
        <time>2025-04-26T10:12:47Z</time>
      </trkpt>
      <trkpt lat="43.301884001120925" lon="1.186408018693328">
        <ele>208.74000000000001</ele>
        <time>2025-04-26T10:13:00Z</time>
      </trkpt>
      <trkpt lat="43.298355974256992" lon="1.180346980690956">
        <ele>211.15000000000001</ele>
        <time>2025-04-26T10:13:19Z</time>
      </trkpt>
      <trkpt lat="43.294806992635131" lon="1.174291977658868">
        <ele>213.55000000000001</ele>
        <time>2025-04-26T10:13:38Z</time>
      </trkpt>
      <trkpt lat="43.291580965742469" lon="1.168935019522905">
        <ele>215.94999999999999</ele>
        <time>2025-04-26T10:13:55Z</time>
      </trkpt>
      <trkpt lat="43.289341991767287" lon="1.165104992687702">
        <ele>216.91</ele>
        <time>2025-04-26T10:14:07Z</time>
      </trkpt>
      <trkpt lat="43.286199029535055" lon="1.159661030396819">
        <ele>218.84</ele>
        <time>2025-04-26T10:14:24Z</time>
      </trkpt>
      <trkpt lat="43.283278020098805" lon="1.154512027278543">
        <ele>220.75999999999999</ele>
        <time>2025-04-26T10:14:40Z</time>
      </trkpt>
      <trkpt lat="43.280328009277582" lon="1.149375010281801">
        <ele>223.16</ele>
        <time>2025-04-26T10:14:56Z</time>
      </trkpt>
      <trkpt lat="43.276421958580613" lon="1.142698992043734">
        <ele>224.61000000000001</ele>
        <time>2025-04-26T10:15:17Z</time>
      </trkpt>
      <trkpt lat="43.273822981864214" lon="1.138230012729764">
        <ele>227.00999999999999</ele>
        <time>2025-04-26T10:15:31Z</time>
      </trkpt>
      <trkpt lat="43.271025018766522" lon="1.13345199264586">
        <ele>232.78</ele>
        <time>2025-04-26T10:15:46Z</time>
      </trkpt>
      <trkpt lat="43.267489029094577" lon="1.127391960471869">
        <ele>235.66</ele>
        <time>2025-04-26T10:16:05Z</time>
      </trkpt>
      <trkpt lat="43.263957984745502" lon="1.121337041258812">
        <ele>237.58000000000001</ele>
        <time>2025-04-26T10:16:24Z</time>
      </trkpt>
      <trkpt lat="43.261253982782364" lon="1.116683995351195">
        <ele>239.99000000000001</ele>
        <time>2025-04-26T10:16:39Z</time>
      </trkpt>
      <trkpt lat="43.259579027071595" lon="1.113812020048499">
        <ele>241.43000000000001</ele>
        <time>2025-04-26T10:16:50Z</time>
      </trkpt>
      <trkpt lat="43.258180003613234" lon="1.111416975036264">
        <ele>243.83000000000001</ele>
        <time>2025-04-26T10:16:58Z</time>
      </trkpt>
      <trkpt lat="43.254982978105545" lon="1.105934036895633">
        <ele>245.75</ele>
        <time>2025-04-26T10:17:16Z</time>
      </trkpt>
      <trkpt lat="43.251878991723061" lon="1.100611025467515">
        <ele>248.16</ele>
        <time>2025-04-26T10:17:34Z</time>
      </trkpt>
      <trkpt lat="43.249077005311847" lon="1.095807021483779">
        <ele>249.12</ele>
        <time>2025-04-26T10:17:50Z</time>
      </trkpt>
      <trkpt lat="43.246304020285606" lon="1.091051967814565">
        <ele>250.08000000000001</ele>
        <time>2025-04-26T10:18:06Z</time>
      </trkpt>
      <trkpt lat="43.243610998615623" lon="1.086434964090586">
        <ele>251.03999999999999</ele>
        <time>2025-04-26T10:18:22Z</time>
      </trkpt>
      <trkpt lat="43.241125009953976" lon="1.082178968936205">
        <ele>252</ele>
        <time>2025-04-26T10:18:36Z</time>
      </trkpt>
      <trkpt lat="43.238055976107717" lon="1.076913960278034">
        <ele>255.37</ele>
        <time>2025-04-26T10:18:54Z</time>
      </trkpt>
      <trkpt lat="43.236485039815307" lon="1.074227979406714">
        <ele>254.88999999999999</ele>
        <time>2025-04-26T10:19:03Z</time>
      </trkpt>
      <trkpt lat="43.233693027868867" lon="1.069459011778235">
        <ele>258.25</ele>
        <time>2025-04-26T10:19:19Z</time>
      </trkpt>
      <trkpt lat="43.230655007064342" lon="1.064260974526405">
        <ele>259.20999999999998</ele>
        <time>2025-04-26T10:19:37Z</time>
      </trkpt>
      <trkpt lat="43.228676039725542" lon="1.060878960415721">
        <ele>261.13999999999999</ele>
        <time>2025-04-26T10:19:49Z</time>
      </trkpt>
      <trkpt lat="43.226595986634493" lon="1.057314975187182">
        <ele>264.5</ele>
        <time>2025-04-26T10:20:01Z</time>
      </trkpt>
      <trkpt lat="43.22343097999692" lon="1.051891967654228">
        <ele>258.25</ele>
        <time>2025-04-26T10:20:19Z</time>
      </trkpt>
      <trkpt lat="43.220798978582025" lon="1.047384012490511">
        <ele>259.20999999999998</ele>
        <time>2025-04-26T10:20:34Z</time>
      </trkpt>
      <trkpt lat="43.218153985217214" lon="1.042858958244324">
        <ele>259.69</ele>
        <time>2025-04-26T10:20:49Z</time>
      </trkpt>
      <trkpt lat="43.215141026303172" lon="1.037728982046247">
        <ele>258.73000000000002</ele>
        <time>2025-04-26T10:21:06Z</time>
      </trkpt>
      <trkpt lat="43.212689990177751" lon="1.033556973561645">
        <ele>259.20999999999998</ele>
        <time>2025-04-26T10:21:20Z</time>
      </trkpt>
      <trkpt lat="43.21019503287971" lon="1.029276000335813">
        <ele>260.17000000000002</ele>
        <time>2025-04-26T10:21:35Z</time>
      </trkpt>
      <trkpt lat="43.208825010806322" lon="1.026474013924599">
        <ele>260.64999999999998</ele>
        <time>2025-04-26T10:21:44Z</time>
      </trkpt>
      <trkpt lat="43.20798497647047" lon="1.023616036400199">
        <ele>260.17000000000002</ele>
        <time>2025-04-26T10:21:52Z</time>
      </trkpt>
      <trkpt lat="43.207244016230106" lon="1.019567996263504">
        <ele>259.69</ele>
        <time>2025-04-26T10:22:03Z</time>
      </trkpt>
      <trkpt lat="43.206466007977724" lon="1.01672301068902">
        <ele>260.17000000000002</ele>
        <time>2025-04-26T10:22:11Z</time>
      </trkpt>
      <trkpt lat="43.205218026414514" lon="1.013812981545925">
        <ele>260.64999999999998</ele>
        <time>2025-04-26T10:22:20Z</time>
      </trkpt>
      <trkpt lat="43.20334299467504" lon="1.00986996665597">
        <ele>261.13999999999999</ele>
        <time>2025-04-26T10:22:33Z</time>
      </trkpt>
      <trkpt lat="43.201212985441089" lon="1.005312977358699">
        <ele>262.10000000000002</ele>
        <time>2025-04-26T10:22:48Z</time>
      </trkpt>
      <trkpt lat="43.199330996721983" lon="1.001363005489111">
        <ele>265.45999999999998</ele>
        <time>2025-04-26T10:23:01Z</time>
      </trkpt>
      <trkpt lat="43.196730008348823" lon="0.99584000185132">
        <ele>267.86000000000001</ele>
        <time>2025-04-26T10:23:19Z</time>
      </trkpt>
      <trkpt lat="43.194242008030415" lon="0.990563007071614">
        <ele>268.82999999999998</ele>
        <time>2025-04-26T10:23:36Z</time>
      </trkpt>
      <trkpt lat="43.192032035440207" lon="0.986050022765994">
        <ele>271.23000000000002</ele>
        <time>2025-04-26T10:23:51Z</time>
      </trkpt>
      <trkpt lat="43.19062203168869" lon="0.984091004356742">
        <ele>271.70999999999998</ele>
        <time>2025-04-26T10:23:59Z</time>
      </trkpt>
      <trkpt lat="43.188746999949217" lon="0.98198002204299">
        <ele>269.79000000000002</ele>
        <time>2025-04-26T10:24:10Z</time>
      </trkpt>
      <trkpt lat="43.187332972884178" lon="0.980502963066101">
        <ele>266.89999999999998</ele>
        <time>2025-04-26T10:24:20Z</time>
      </trkpt>
      <trkpt lat="43.187232976779342" lon="0.980333983898163">
        <ele>267.38</ele>
        <time>2025-04-26T10:24:21Z</time>
      </trkpt>
      <trkpt lat="43.187143038958311" lon="0.980153018608689">
        <ele>267.38</ele>
        <time>2025-04-26T10:24:22Z</time>
      </trkpt>
      <trkpt lat="43.186687985435128" lon="0.979420021176338">
        <ele>267.38</ele>
        <time>2025-04-26T10:24:27Z</time>
      </trkpt>
      <trkpt lat="43.186585977673531" lon="0.979309966787696">
        <ele>267.38</ele>
        <time>2025-04-26T10:24:28Z</time>
      </trkpt>
      <trkpt lat="43.186484975740314" lon="0.979201002046466">
        <ele>267.38</ele>
        <time>2025-04-26T10:24:29Z</time>
      </trkpt>
      <trkpt lat="43.186381962150335" lon="0.979175018146634">
        <ele>267.38</ele>
        <time>2025-04-26T10:24:30Z</time>
      </trkpt>
      <trkpt lat="43.186257993802428" lon="0.97914501093328">
        <ele>267.38</ele>
        <time>2025-04-26T10:24:31Z</time>
      </trkpt>
      <trkpt lat="43.186136037111282" lon="0.979116009548306">
        <ele>267.38</ele>
        <time>2025-04-26T10:24:32Z</time>
      </trkpt>
      <trkpt lat="43.18602598272264" lon="0.979090025648475">
        <ele>267.38</ele>
        <time>2025-04-26T10:24:33Z</time>
      </trkpt>
      <trkpt lat="43.185947025194764" lon="0.979070998728275">
        <ele>267.38</ele>
        <time>2025-04-26T10:24:34Z</time>
      </trkpt>
      <trkpt lat="43.185847029089928" lon="0.979023976251483">
        <ele>267.38</ele>
        <time>2025-04-26T10:24:35Z</time>
      </trkpt>
      <trkpt lat="43.185787014663219" lon="0.97899598069489">
        <ele>267.38</ele>
        <time>2025-04-26T10:24:37Z</time>
      </trkpt>
      <trkpt lat="43.185652988031507" lon="0.978933032602072">
        <ele>267.38</ele>
        <time>2025-04-26T10:24:39Z</time>
      </trkpt>
      <trkpt lat="43.185610994696617" lon="0.978905959054828">
        <ele>266.89999999999998</ele>
        <time>2025-04-26T10:24:40Z</time>
      </trkpt>
      <trkpt lat="43.185564978048205" lon="0.978860026225448">
        <ele>266.89999999999998</ele>
        <time>2025-04-26T10:24:41Z</time>
      </trkpt>
      <trkpt lat="43.185506975278258" lon="0.978833036497235">
        <ele>266.89999999999998</ele>
        <time>2025-04-26T10:24:42Z</time>
      </trkpt>
      <trkpt lat="43.185451989993453" lon="0.978808980435133">
        <ele>266.89999999999998</ele>
        <time>2025-04-26T10:24:43Z</time>
      </trkpt>
      <trkpt lat="43.185393987223506" lon="0.978787019848824">
        <ele>266.89999999999998</ele>
        <time>2025-04-26T10:24:44Z</time>
      </trkpt>
      <trkpt lat="43.185260966420174" lon="0.978750977665186">
        <ele>266.89999999999998</ele>
        <time>2025-04-26T10:24:46Z</time>
      </trkpt>
      <trkpt lat="43.185174968093634" lon="0.978727005422115">
        <ele>266.89999999999998</ele>
        <time>2025-04-26T10:24:47Z</time>
      </trkpt>
      <trkpt lat="43.185109002515674" lon="0.978666990995407">
        <ele>266.89999999999998</ele>
        <time>2025-04-26T10:24:48Z</time>
      </trkpt>
      <trkpt lat="43.185031972825527" lon="0.978595996275544">
        <ele>266.89999999999998</ele>
        <time>2025-04-26T10:24:49Z</time>
      </trkpt>
      <trkpt lat="43.184954021126032" lon="0.97852298989892">
        <ele>266.42000000000002</ele>
        <time>2025-04-26T10:24:50Z</time>
      </trkpt>
      <trkpt lat="43.184877997264266" lon="0.978412013500929">
        <ele>266.42000000000002</ele>
        <time>2025-04-26T10:24:51Z</time>
      </trkpt>
      <trkpt lat="43.184836003929377" lon="0.978274969384074">
        <ele>265.94</ele>
        <time>2025-04-26T10:24:52Z</time>
      </trkpt>
      <trkpt lat="43.184787975624204" lon="0.978133985772729">
        <ele>265.45999999999998</ele>
        <time>2025-04-26T10:24:53Z</time>
      </trkpt>
      <trkpt lat="43.184280032292008" lon="0.976925985887647">
        <ele>263.54000000000002</ele>
        <time>2025-04-26T10:25:01Z</time>
      </trkpt>
      <trkpt lat="43.183950036764145" lon="0.976193994283676">
        <ele>264.01999999999998</ele>
        <time>2025-04-26T10:25:06Z</time>
      </trkpt>
      <trkpt lat="43.183885999023914" lon="0.97605099901557">
        <ele>263.54000000000002</ele>
        <time>2025-04-26T10:25:07Z</time>
      </trkpt>
      <trkpt lat="43.183318041265011" lon="0.974815003573895">
        <ele>266.89999999999998</ele>
        <time>2025-04-26T10:25:16Z</time>
      </trkpt>
      <trkpt lat="43.182305004447699" lon="0.972565971314907">
        <ele>272.67000000000002</ele>
        <time>2025-04-26T10:25:33Z</time>
      </trkpt>
      <trkpt lat="43.182152034714818" lon="0.972328009083867">
        <ele>273.63</ele>
        <time>2025-04-26T10:25:35Z</time>
      </trkpt>
      <trkpt lat="43.182084979489446" lon="0.972226001322269">
        <ele>273.63</ele>
        <time>2025-04-26T10:25:36Z</time>
      </trkpt>
      <trkpt lat="43.181808041408658" lon="0.971928024664521">
        <ele>274.11000000000001</ele>
        <time>2025-04-26T10:25:39Z</time>
      </trkpt>
      <trkpt lat="43.180873040109873" lon="0.971272978931665">
        <ele>278.44</ele>
        <time>2025-04-26T10:25:48Z</time>
      </trkpt>
      <trkpt lat="43.180630970746279" lon="0.971125038340688">
        <ele>278.44</ele>
        <time>2025-04-26T10:25:50Z</time>
      </trkpt>
      <trkpt lat="43.18052401766181" lon="0.971056977286935">
        <ele>278.44</ele>
        <time>2025-04-26T10:25:51Z</time>
      </trkpt>
      <trkpt lat="43.180418992415071" lon="0.970990005880594">
        <ele>278.44</ele>
        <time>2025-04-26T10:25:52Z</time>
      </trkpt>
      <trkpt lat="43.179630003869534" lon="0.970489019528031">
        <ele>282.76999999999998</ele>
        <time>2025-04-26T10:25:59Z</time>
      </trkpt>
      <trkpt lat="43.178825005888939" lon="0.969973029568791">
        <ele>289.49000000000001</ele>
        <time>2025-04-26T10:26:07Z</time>
      </trkpt>
      <trkpt lat="43.177857985720038" lon="0.969350002706051">
        <ele>290.94</ele>
        <time>2025-04-26T10:26:16Z</time>
      </trkpt>
      <trkpt lat="43.177779028192163" lon="0.96930499188602">
        <ele>290.45999999999998</ele>
        <time>2025-04-26T10:26:17Z</time>
      </trkpt>
      <trkpt lat="43.176779989153147" lon="0.968711972236633">
        <ele>287.56999999999999</ele>
        <time>2025-04-26T10:26:27Z</time>
      </trkpt>
      <trkpt lat="43.175692018121481" lon="0.968009987846017">
        <ele>286.61000000000001</ele>
        <time>2025-04-26T10:26:37Z</time>
      </trkpt>
      <trkpt lat="43.17470395937562" lon="0.967289982363582">
        <ele>280.36000000000001</ele>
        <time>2025-04-26T10:26:46Z</time>
      </trkpt>
      <trkpt lat="43.173898039385676" lon="0.966399991884828">
        <ele>277.48000000000002</ele>
        <time>2025-04-26T10:26:54Z</time>
      </trkpt>
      <trkpt lat="43.17360601387918" lon="0.966077037155628">
        <ele>276.51999999999998</ele>
        <time>2025-04-26T10:26:58Z</time>
      </trkpt>
      <trkpt lat="43.173565026372671" lon="0.966032026335597">
        <ele>276.04000000000002</ele>
        <time>2025-04-26T10:26:59Z</time>
      </trkpt>
      <trkpt lat="43.173501994460821" lon="0.965766990557313">
        <ele>275.56</ele>
        <time>2025-04-26T10:27:01Z</time>
      </trkpt>
      <trkpt lat="43.173497971147299" lon="0.965747041627765">
        <ele>274.58999999999997</ele>
        <time>2025-04-26T10:27:03Z</time>
      </trkpt>
      <trkpt lat="43.173482967540622" lon="0.965669006109238">
        <ele>274.11000000000001</ele>
        <time>2025-04-26T10:27:04Z</time>
      </trkpt>
      <trkpt lat="43.173465030267835" lon="0.965584013611078">
        <ele>274.11000000000001</ele>
        <time>2025-04-26T10:27:05Z</time>
      </trkpt>
      <trkpt lat="43.173423958942294" lon="0.965502960607409">
        <ele>273.63</ele>
        <time>2025-04-26T10:27:06Z</time>
      </trkpt>
      <trkpt lat="43.173377020284534" lon="0.965434983372688">
        <ele>273.63</ele>
        <time>2025-04-26T10:27:07Z</time>
      </trkpt>
      <trkpt lat="43.173325974494219" lon="0.965361976996064">
        <ele>273.14999999999998</ele>
        <time>2025-04-26T10:27:08Z</time>
      </trkpt>
      <trkpt lat="43.173263026401401" lon="0.965304980054498">
        <ele>273.14999999999998</ele>
        <time>2025-04-26T10:27:09Z</time>
      </trkpt>
      <trkpt lat="43.173194965347648" lon="0.965256029739976">
        <ele>273.63</ele>
        <time>2025-04-26T10:27:10Z</time>
      </trkpt>
      <trkpt lat="43.173118019476533" lon="0.965225016698241">
        <ele>273.63</ele>
        <time>2025-04-26T10:27:11Z</time>
      </trkpt>
      <trkpt lat="43.173032021149993" lon="0.965214036405087">
        <ele>273.63</ele>
        <time>2025-04-26T10:27:12Z</time>
      </trkpt>
      <trkpt lat="43.172944011166692" lon="0.96520196646452">
        <ele>273.63</ele>
        <time>2025-04-26T10:27:13Z</time>
      </trkpt>
      <trkpt lat="43.172859018668532" lon="0.965189980342984">
        <ele>273.63</ele>
        <time>2025-04-26T10:27:14Z</time>
      </trkpt>
      <trkpt lat="43.172792969271541" lon="0.965227028355002">
        <ele>274.11000000000001</ele>
        <time>2025-04-26T10:27:15Z</time>
      </trkpt>
      <trkpt lat="43.172732032835484" lon="0.965283019468188">
        <ele>274.11000000000001</ele>
        <time>2025-04-26T10:27:16Z</time>
      </trkpt>
      <trkpt lat="43.172673024237156" lon="0.965335993096232">
        <ele>274.58999999999997</ele>
        <time>2025-04-26T10:27:17Z</time>
      </trkpt>
      <trkpt lat="43.172615021467209" lon="0.965388966724277">
        <ele>274.11000000000001</ele>
        <time>2025-04-26T10:27:18Z</time>
      </trkpt>
      <trkpt lat="43.172601023688912" lon="0.965482005849481">
        <ele>274.58999999999997</ele>
        <time>2025-04-26T10:27:19Z</time>
      </trkpt>
      <trkpt lat="43.172601023688912" lon="0.965593988075852">
        <ele>274.58999999999997</ele>
        <time>2025-04-26T10:27:20Z</time>
      </trkpt>
      <trkpt lat="43.1722960062325" lon="0.966240987181664">
        <ele>272.67000000000002</ele>
        <time>2025-04-26T10:27:25Z</time>
      </trkpt>
      <trkpt lat="43.172240015119314" lon="0.966365961357951">
        <ele>272.19</ele>
        <time>2025-04-26T10:27:26Z</time>
      </trkpt>
      <trkpt lat="43.172178994864225" lon="0.966500993818045">
        <ele>271.70999999999998</ele>
        <time>2025-04-26T10:27:27Z</time>
      </trkpt>
      <trkpt lat="43.171636015176773" lon="0.967798009514809">
        <ele>265.94</ele>
        <time>2025-04-26T10:27:35Z</time>
      </trkpt>
      <trkpt lat="43.171567032113671" lon="0.967961959540844">
        <ele>264.98000000000002</ele>
        <time>2025-04-26T10:27:36Z</time>
      </trkpt>
      <trkpt lat="43.17150098271668" lon="0.968119036406279">
        <ele>264.98000000000002</ele>
        <time>2025-04-26T10:27:37Z</time>
      </trkpt>
      <trkpt lat="43.17143501713872" lon="0.968275023624301">
        <ele>264.98000000000002</ele>
        <time>2025-04-26T10:27:38Z</time>
      </trkpt>
      <trkpt lat="43.171231001615524" lon="0.968834012746811">
        <ele>265.94</ele>
        <time>2025-04-26T10:27:43Z</time>
      </trkpt>
      <trkpt lat="43.171079959720373" lon="0.968959992751479">
        <ele>267.38</ele>
        <time>2025-04-26T10:27:46Z</time>
      </trkpt>
      <trkpt lat="43.171089012175798" lon="0.96906996332109">
        <ele>267.86000000000001</ele>
        <time>2025-04-26T10:27:47Z</time>
      </trkpt>
      <trkpt lat="43.170811990275979" lon="0.969969006255269">
        <ele>270.75</ele>
        <time>2025-04-26T10:27:54Z</time>
      </trkpt>
      <trkpt lat="43.170366995036602" lon="0.97151798196137">
        <ele>275.56</ele>
        <time>2025-04-26T10:28:02Z</time>
      </trkpt>
      <trkpt lat="43.169744974002242" lon="0.973652014508843">
        <ele>276.51999999999998</ele>
        <time>2025-04-26T10:28:14Z</time>
      </trkpt>
      <trkpt lat="43.169587980955839" lon="0.974092986434698">
        <ele>276.04000000000002</ele>
        <time>2025-04-26T10:28:17Z</time>
      </trkpt>
      <trkpt lat="43.16952402703464" lon="0.97420597448945">
        <ele>276.04000000000002</ele>
        <time>2025-04-26T10:28:18Z</time>
      </trkpt>
      <trkpt lat="43.169467030093074" lon="0.974305970594287">
        <ele>276.04000000000002</ele>
        <time>2025-04-26T10:28:19Z</time>
      </trkpt>
      <trkpt lat="43.169382037594914" lon="0.974457012489438">
        <ele>275.56</ele>
        <time>2025-04-26T10:28:21Z</time>
      </trkpt>
      <trkpt lat="43.169377008453012" lon="0.974539993330836">
        <ele>275.56</ele>
        <time>2025-04-26T10:28:22Z</time>
      </trkpt>
      <trkpt lat="43.169370973482728" lon="0.974628003314137">
        <ele>275.56</ele>
        <time>2025-04-26T10:28:23Z</time>
      </trkpt>
      <trkpt lat="43.169360999017954" lon="0.97491399385035">
        <ele>275.06999999999999</ele>
        <time>2025-04-26T10:28:26Z</time>
      </trkpt>
      <trkpt lat="43.169379020109773" lon="0.975201996043324">
        <ele>274.11000000000001</ele>
        <time>2025-04-26T10:28:31Z</time>
      </trkpt>
      <trkpt lat="43.169382037594914" lon="0.975251030176878">
        <ele>274.58999999999997</ele>
        <time>2025-04-26T10:28:32Z</time>
      </trkpt>
      <trkpt lat="43.169411960989237" lon="0.975270979106426">
        <ele>274.58999999999997</ele>
        <time>2025-04-26T10:28:33Z</time>
      </trkpt>
      <trkpt lat="43.169458983466029" lon="0.975302997976542">
        <ele>274.58999999999997</ele>
        <time>2025-04-26T10:28:34Z</time>
      </trkpt>
      <trkpt lat="43.169511035084724" lon="0.975337028503418">
        <ele>274.11000000000001</ele>
        <time>2025-04-26T10:28:35Z</time>
      </trkpt>
      <trkpt lat="43.16956995986402" lon="0.975368963554502">
        <ele>274.11000000000001</ele>
        <time>2025-04-26T10:28:36Z</time>
      </trkpt>
      <trkpt lat="43.170058960095048" lon="0.975637016817927">
        <ele>273.63</ele>
        <time>2025-04-26T10:28:46Z</time>
      </trkpt>
      <trkpt lat="43.170073041692376" lon="0.97564397379756">
        <ele>273.63</ele>
        <time>2025-04-26T10:28:57Z</time>
      </trkpt>
      <trkpt lat="43.170089973136783" lon="0.975654032081366">
        <ele>272.67000000000002</ele>
        <time>2025-04-26T10:29:35Z</time>
      </trkpt>
      <trkpt lat="43.170029958710074" lon="0.97562100738287">
        <ele>271.70999999999998</ele>
        <time>2025-04-26T10:29:38Z</time>
      </trkpt>
      <trkpt lat="43.170000035315752" lon="0.975604997947812">
        <ele>271.23000000000002</ele>
        <time>2025-04-26T10:29:39Z</time>
      </trkpt>
      <trkpt lat="43.169496031478047" lon="0.975326970219612">
        <ele>270.26999999999998</ele>
        <time>2025-04-26T10:29:46Z</time>
      </trkpt>
      <trkpt lat="43.168379981070757" lon="0.97476102411747">
        <ele>270.75</ele>
        <time>2025-04-26T10:29:55Z</time>
      </trkpt>
      <trkpt lat="43.168255006894469" lon="0.974689023569226">
        <ele>270.75</ele>
        <time>2025-04-26T10:29:56Z</time>
      </trkpt>
      <trkpt lat="43.168141013011336" lon="0.974623980000615">
        <ele>271.23000000000002</ele>
        <time>2025-04-26T10:29:57Z</time>
      </trkpt>
      <trkpt lat="43.167543970048428" lon="0.974175967276096">
        <ele>272.19</ele>
        <time>2025-04-26T10:30:03Z</time>
      </trkpt>
      <trkpt lat="43.167453026399016" lon="0.974069014191628">
        <ele>272.19</ele>
        <time>2025-04-26T10:30:04Z</time>
      </trkpt>
      <trkpt lat="43.167020017281175" lon="0.973525028675795">
        <ele>273.14999999999998</ele>
        <time>2025-04-26T10:30:09Z</time>
      </trkpt>
      <trkpt lat="43.166926978155971" lon="0.973442969843745">
        <ele>273.63</ele>
        <time>2025-04-26T10:30:10Z</time>
      </trkpt>
      <trkpt lat="43.166819019243121" lon="0.973386978730559">
        <ele>273.14999999999998</ele>
        <time>2025-04-26T10:30:11Z</time>
      </trkpt>
      <trkpt lat="43.166711982339621" lon="0.973329981788993">
        <ele>273.14999999999998</ele>
        <time>2025-04-26T10:30:12Z</time>
      </trkpt>
      <trkpt lat="43.166606035083532" lon="0.973274996504188">
        <ele>273.14999999999998</ele>
        <time>2025-04-26T10:30:13Z</time>
      </trkpt>
      <trkpt lat="43.166494974866509" lon="0.973227974027395">
        <ele>272.67000000000002</ele>
        <time>2025-04-26T10:30:14Z</time>
      </trkpt>
      <trkpt lat="43.166261035948992" lon="0.973188998177648">
        <ele>272.19</ele>
        <time>2025-04-26T10:30:16Z</time>
      </trkpt>
      <trkpt lat="43.165327962487936" lon="0.973159996792674">
        <ele>270.75</ele>
        <time>2025-04-26T10:30:24Z</time>
      </trkpt>
      <trkpt lat="43.165115984156728" lon="0.973243983462453">
        <ele>271.23000000000002</ele>
        <time>2025-04-26T10:30:26Z</time>
      </trkpt>
      <trkpt lat="43.165021017193794" lon="0.973299974575639">
        <ele>271.23000000000002</ele>
        <time>2025-04-26T10:30:27Z</time>
      </trkpt>
      <trkpt lat="43.164938036352396" lon="0.973348002880812">
        <ele>271.70999999999998</ele>
        <time>2025-04-26T10:30:28Z</time>
      </trkpt>
      <trkpt lat="43.164876010268927" lon="0.973383961245418">
        <ele>271.70999999999998</ele>
        <time>2025-04-26T10:30:29Z</time>
      </trkpt>
      <trkpt lat="43.164760004729033" lon="0.973369041457772">
        <ele>271.70999999999998</ele>
        <time>2025-04-26T10:30:30Z</time>
      </trkpt>
      <trkpt lat="43.16471298225224" lon="0.973297040909529">
        <ele>272.19</ele>
        <time>2025-04-26T10:30:31Z</time>
      </trkpt>
      <trkpt lat="43.164657996967435" lon="0.973212970420718">
        <ele>272.19</ele>
        <time>2025-04-26T10:30:32Z</time>
      </trkpt>
      <trkpt lat="43.164595970883965" lon="0.973119009286165">
        <ele>272.67000000000002</ele>
        <time>2025-04-26T10:30:33Z</time>
      </trkpt>
      <trkpt lat="43.164050979539752" lon="0.972288027405739">
        <ele>273.63</ele>
        <time>2025-04-26T10:30:40Z</time>
      </trkpt>
      <trkpt lat="43.16335997544229" lon="0.971294017508626">
        <ele>269.79000000000002</ele>
        <time>2025-04-26T10:30:49Z</time>
      </trkpt>
      <trkpt lat="43.163261990994215" lon="0.971229979768395">
        <ele>269.31</ele>
        <time>2025-04-26T10:30:50Z</time>
      </trkpt>
      <trkpt lat="43.163087982684374" lon="0.971116991713643">
        <ele>268.35000000000002</ele>
        <time>2025-04-26T10:30:52Z</time>
      </trkpt>
      <trkpt lat="43.163018999621272" lon="0.971070975065231">
        <ele>268.35000000000002</ele>
        <time>2025-04-26T10:30:53Z</time>
      </trkpt>
      <trkpt lat="43.162496974691749" lon="0.970749026164413">
        <ele>266.42000000000002</ele>
        <time>2025-04-26T10:31:00Z</time>
      </trkpt>
      <trkpt lat="43.161979978904128" lon="0.970435040071607">
        <ele>266.42000000000002</ele>
        <time>2025-04-26T10:31:05Z</time>
      </trkpt>
      <trkpt lat="43.161880988627672" lon="0.970375025644898">
        <ele>266.42000000000002</ele>
        <time>2025-04-26T10:31:06Z</time>
      </trkpt>
      <trkpt lat="43.160662008449435" lon="0.969815030694008">
        <ele>264.98000000000002</ele>
        <time>2025-04-26T10:31:17Z</time>
      </trkpt>
      <trkpt lat="43.160542985424399" lon="0.969773037359118">
        <ele>264.98000000000002</ele>
        <time>2025-04-26T10:31:18Z</time>
      </trkpt>
      <trkpt lat="43.160431003198028" lon="0.969733977690339">
        <ele>265.45999999999998</ele>
        <time>2025-04-26T10:31:19Z</time>
      </trkpt>
      <trkpt lat="43.158855037763715" lon="0.969214970245957">
        <ele>267.38</ele>
        <time>2025-04-26T10:31:33Z</time>
      </trkpt>
      <trkpt lat="43.158521018922329" lon="0.969060994684696">
        <ele>268.35000000000002</ele>
        <time>2025-04-26T10:31:36Z</time>
      </trkpt>
      <trkpt lat="43.158424040302634" lon="0.968977008014917">
        <ele>268.82999999999998</ele>
        <time>2025-04-26T10:31:37Z</time>
      </trkpt>
      <trkpt lat="43.157466994598508" lon="0.968138985335827">
        <ele>271.23000000000002</ele>
        <time>2025-04-26T10:31:47Z</time>
      </trkpt>
      <trkpt lat="43.157403040677309" lon="0.968068996444345">
        <ele>271.23000000000002</ele>
        <time>2025-04-26T10:31:48Z</time>
      </trkpt>
      <trkpt lat="43.157355012372136" lon="0.96801501698792">
        <ele>271.70999999999998</ele>
        <time>2025-04-26T10:31:49Z</time>
      </trkpt>
      <trkpt lat="43.157339002937078" lon="0.967861963436008">
        <ele>271.70999999999998</ele>
        <time>2025-04-26T10:31:50Z</time>
      </trkpt>
      <trkpt lat="43.157374961301684" lon="0.967790968716145">
        <ele>272.19</ele>
        <time>2025-04-26T10:31:51Z</time>
      </trkpt>
      <trkpt lat="43.157421983778477" lon="0.967702958732843">
        <ele>272.19</ele>
        <time>2025-04-26T10:31:52Z</time>
      </trkpt>
      <trkpt lat="43.157477974891663" lon="0.967600028961897">
        <ele>272.67000000000002</ele>
        <time>2025-04-26T10:31:53Z</time>
      </trkpt>
      <trkpt lat="43.157548969611526" lon="0.967493997886777">
        <ele>272.67000000000002</ele>
        <time>2025-04-26T10:31:54Z</time>
      </trkpt>
      <trkpt lat="43.157808976247907" lon="0.967128966003656">
        <ele>272.67000000000002</ele>
        <time>2025-04-26T10:31:57Z</time>
      </trkpt>
      <trkpt lat="43.158612968400121" lon="0.965959019958973">
        <ele>272.67000000000002</ele>
        <time>2025-04-26T10:32:05Z</time>
      </trkpt>
      <trkpt lat="43.158689998090267" lon="0.96582499332726">
        <ele>272.19</ele>
        <time>2025-04-26T10:32:06Z</time>
      </trkpt>
      <trkpt lat="43.158763004466891" lon="0.965689960867167">
        <ele>272.19</ele>
        <time>2025-04-26T10:32:07Z</time>
      </trkpt>
      <trkpt lat="43.158796029165387" lon="0.965539002791047">
        <ele>271.70999999999998</ele>
        <time>2025-04-26T10:32:08Z</time>
      </trkpt>
      <trkpt lat="43.15882695838809" lon="0.96539500169456">
        <ele>271.70999999999998</ele>
        <time>2025-04-26T10:32:09Z</time>
      </trkpt>
      <trkpt lat="43.158980011940002" lon="0.964890997856855">
        <ele>270.75</ele>
        <time>2025-04-26T10:32:14Z</time>
      </trkpt>
      <trkpt lat="43.159015970304608" lon="0.964837018400431">
        <ele>270.75</ele>
        <time>2025-04-26T10:32:15Z</time>
      </trkpt>
      <trkpt lat="43.159046983346343" lon="0.964789995923638">
        <ele>270.75</ele>
        <time>2025-04-26T10:32:16Z</time>
      </trkpt>
      <trkpt lat="43.159055029973388" lon="0.96470600925386">
        <ele>270.75</ele>
        <time>2025-04-26T10:32:17Z</time>
      </trkpt>
      <trkpt lat="43.159023011103272" lon="0.964669967070222">
        <ele>270.75</ele>
        <time>2025-04-26T10:32:18Z</time>
      </trkpt>
      <trkpt lat="43.158976994454861" lon="0.964619005098939">
        <ele>270.26999999999998</ele>
        <time>2025-04-26T10:32:19Z</time>
      </trkpt>
      <trkpt lat="43.158922009170055" lon="0.96455697901547">
        <ele>270.26999999999998</ele>
        <time>2025-04-26T10:32:20Z</time>
      </trkpt>
      <trkpt lat="43.158861994743347" lon="0.964489001780748">
        <ele>269.79000000000002</ele>
        <time>2025-04-26T10:32:21Z</time>
      </trkpt>
      <trkpt lat="43.158795023337007" lon="0.964413983747363">
        <ele>269.79000000000002</ele>
        <time>2025-04-26T10:32:22Z</time>
      </trkpt>
      <trkpt lat="43.158638030290604" lon="0.964237041771412">
        <ele>270.26999999999998</ele>
        <time>2025-04-26T10:32:24Z</time>
      </trkpt>
      <trkpt lat="43.158079963177443" lon="0.963555006310344">
        <ele>270.26999999999998</ele>
        <time>2025-04-26T10:32:30Z</time>
      </trkpt>
      <trkpt lat="43.157891035079956" lon="0.963282007724047">
        <ele>270.75</ele>
        <time>2025-04-26T10:32:32Z</time>
      </trkpt>
      <trkpt lat="43.156850002706051" lon="0.962094962596893">
        <ele>271.23000000000002</ele>
        <time>2025-04-26T10:32:41Z</time>
      </trkpt>
      <trkpt lat="43.156362008303404" lon="0.961535973474383">
        <ele>271.70999999999998</ele>
        <time>2025-04-26T10:32:45Z</time>
      </trkpt>
      <trkpt lat="43.15624700859189" lon="0.961363976821303">
        <ele>271.70999999999998</ele>
        <time>2025-04-26T10:32:46Z</time>
      </trkpt>
      <trkpt lat="43.155588023364544" lon="0.959793040528893">
        <ele>272.67000000000002</ele>
        <time>2025-04-26T10:32:53Z</time>
      </trkpt>
      <trkpt lat="43.154597030952573" lon="0.957941981032491">
        <ele>273.63</ele>
        <time>2025-04-26T10:33:02Z</time>
      </trkpt>
      <trkpt lat="43.154043992981315" lon="0.957244019955397">
        <ele>273.14999999999998</ele>
        <time>2025-04-26T10:33:06Z</time>
      </trkpt>
      <trkpt lat="43.15392698161304" lon="0.957040004432201">
        <ele>273.14999999999998</ele>
        <time>2025-04-26T10:33:07Z</time>
      </trkpt>
      <trkpt lat="43.152941018342972" lon="0.955207971855998">
        <ele>273.63</ele>
        <time>2025-04-26T10:33:16Z</time>
      </trkpt>
      <trkpt lat="43.152812020853162" lon="0.955036981031299">
        <ele>273.63</ele>
        <time>2025-04-26T10:33:17Z</time>
      </trkpt>
      <trkpt lat="43.152665002271533" lon="0.954880993813276">
        <ele>274.11000000000001</ele>
        <time>2025-04-26T10:33:18Z</time>
      </trkpt>
      <trkpt lat="43.152499962598085" lon="0.95475803129375">
        <ele>274.11000000000001</ele>
        <time>2025-04-26T10:33:19Z</time>
      </trkpt>
      <trkpt lat="43.152340035885572" lon="0.954638002440333">
        <ele>274.11000000000001</ele>
        <time>2025-04-26T10:33:20Z</time>
      </trkpt>
      <trkpt lat="43.152169967070222" lon="0.954549992457032">
        <ele>274.11000000000001</ele>
        <time>2025-04-26T10:33:21Z</time>
      </trkpt>
      <trkpt lat="43.151990007609129" lon="0.954470029100776">
        <ele>274.58999999999997</ele>
        <time>2025-04-26T10:33:22Z</time>
      </trkpt>
      <trkpt lat="43.15179998986423" lon="0.954415965825319">
        <ele>275.06999999999999</ele>
        <time>2025-04-26T10:33:23Z</time>
      </trkpt>
      <trkpt lat="43.15160402096808" lon="0.954379001632333">
        <ele>275.06999999999999</ele>
        <time>2025-04-26T10:33:24Z</time>
      </trkpt>
      <trkpt lat="43.150068037211895" lon="0.954157970845699">
        <ele>277.48000000000002</ele>
        <time>2025-04-26T10:33:32Z</time>
      </trkpt>
      <trkpt lat="43.149884976446629" lon="0.954174986109138">
        <ele>277.48000000000002</ele>
        <time>2025-04-26T10:33:33Z</time>
      </trkpt>
      <trkpt lat="43.149709040299058" lon="0.954229971393943">
        <ele>277.95999999999998</ele>
        <time>2025-04-26T10:33:34Z</time>
      </trkpt>
      <trkpt lat="43.149527991190553" lon="0.954301971942186">
        <ele>277.95999999999998</ele>
        <time>2025-04-26T10:33:35Z</time>
      </trkpt>
      <trkpt lat="43.148993980139494" lon="0.954464999958873">
        <ele>278.44</ele>
        <time>2025-04-26T10:33:38Z</time>
      </trkpt>
      <trkpt lat="43.14881200902164" lon="0.95445703715086">
        <ele>278.44</ele>
        <time>2025-04-26T10:33:39Z</time>
      </trkpt>
      <trkpt lat="43.14864001236856" lon="0.954405991360545">
        <ele>278.44</ele>
        <time>2025-04-26T10:33:40Z</time>
      </trkpt>
      <trkpt lat="43.14846902154386" lon="0.954356035217643">
        <ele>278.92000000000002</ele>
        <time>2025-04-26T10:33:41Z</time>
      </trkpt>
      <trkpt lat="43.148311022669077" lon="0.95430901274085">
        <ele>278.92000000000002</ele>
        <time>2025-04-26T10:33:42Z</time>
      </trkpt>
      <trkpt lat="43.148131985217333" lon="0.95420298166573">
        <ele>279.39999999999998</ele>
        <time>2025-04-26T10:33:43Z</time>
      </trkpt>
      <trkpt lat="43.147963006049395" lon="0.954103991389275">
        <ele>279.39999999999998</ele>
        <time>2025-04-26T10:33:44Z</time>
      </trkpt>
      <trkpt lat="43.147821016609669" lon="0.953962001949549">
        <ele>279.88</ele>
        <time>2025-04-26T10:33:45Z</time>
      </trkpt>
      <trkpt lat="43.147684978321195" lon="0.953818000853062">
        <ele>279.88</ele>
        <time>2025-04-26T10:33:46Z</time>
      </trkpt>
      <trkpt lat="43.147554975003004" lon="0.953678023070097">
        <ele>279.88</ele>
        <time>2025-04-26T10:33:47Z</time>
      </trkpt>
      <trkpt lat="43.147448021918535" lon="0.953493034467101">
        <ele>280.36000000000001</ele>
        <time>2025-04-26T10:33:48Z</time>
      </trkpt>
      <trkpt lat="43.147342996671796" lon="0.953310979530215">
        <ele>280.36000000000001</ele>
        <time>2025-04-26T10:33:49Z</time>
      </trkpt>
      <trkpt lat="43.147025993093848" lon="0.952801024541259">
        <ele>281.31999999999999</ele>
        <time>2025-04-26T10:33:52Z</time>
      </trkpt>
      <trkpt lat="43.146646963432431" lon="0.952362986281514">
        <ele>281.31999999999999</ele>
        <time>2025-04-26T10:33:55Z</time>
      </trkpt>
      <trkpt lat="43.146444959565997" lon="0.952003989368677">
        <ele>282.27999999999997</ele>
        <time>2025-04-26T10:33:57Z</time>
      </trkpt>
      <trkpt lat="43.14571799710393" lon="0.950281005352736">
        <ele>283.25</ele>
        <time>2025-04-26T10:34:05Z</time>
      </trkpt>
      <trkpt lat="43.145626969635487" lon="0.950061986222863">
        <ele>283.25</ele>
        <time>2025-04-26T10:34:06Z</time>
      </trkpt>
      <trkpt lat="43.14552303403616" lon="0.949573991820216">
        <ele>282.76999999999998</ele>
        <time>2025-04-26T10:34:08Z</time>
      </trkpt>
      <trkpt lat="43.145323963835835" lon="0.947424033656716">
        <ele>281.31999999999999</ele>
        <time>2025-04-26T10:34:16Z</time>
      </trkpt>
      <trkpt lat="43.145281970500946" lon="0.946969985961914">
        <ele>280.83999999999997</ele>
        <time>2025-04-26T10:34:18Z</time>
      </trkpt>
      <trkpt lat="43.145231008529663" lon="0.946749961003661">
        <ele>280.36000000000001</ele>
        <time>2025-04-26T10:34:19Z</time>
      </trkpt>
      <trkpt lat="43.145180968567729" lon="0.946534965187311">
        <ele>279.88</ele>
        <time>2025-04-26T10:34:20Z</time>
      </trkpt>
      <trkpt lat="43.145079966634512" lon="0.946362968534231">
        <ele>279.39999999999998</ele>
        <time>2025-04-26T10:34:21Z</time>
      </trkpt>
      <trkpt lat="43.144968990236521" lon="0.946185020729899">
        <ele>279.39999999999998</ele>
        <time>2025-04-26T10:34:22Z</time>
      </trkpt>
      <trkpt lat="43.144829012453556" lon="0.946049988269806">
        <ele>278.92000000000002</ele>
        <time>2025-04-26T10:34:23Z</time>
      </trkpt>
      <trkpt lat="43.14468601718545" lon="0.945915961638093">
        <ele>278.92000000000002</ele>
        <time>2025-04-26T10:34:24Z</time>
      </trkpt>
      <trkpt lat="43.144390974193811" lon="0.945637011900544">
        <ele>278.44</ele>
        <time>2025-04-26T10:34:26Z</time>
      </trkpt>
      <trkpt lat="43.144241021946073" lon="0.945496028289199">
        <ele>278.44</ele>
        <time>2025-04-26T10:34:27Z</time>
      </trkpt>
      <trkpt lat="43.144121998921037" lon="0.945300981402397">
        <ele>277.95999999999998</ele>
        <time>2025-04-26T10:34:28Z</time>
      </trkpt>
      <trkpt lat="43.143260003998876" lon="0.943583026528358">
        <ele>278.44</ele>
        <time>2025-04-26T10:34:36Z</time>
      </trkpt>
      <trkpt lat="43.142707971855998" lon="0.941988034173846">
        <ele>280.36000000000001</ele>
        <time>2025-04-26T10:34:43Z</time>
      </trkpt>
      <trkpt lat="43.142135990783572" lon="0.940586999058723">
        <ele>283.25</ele>
        <time>2025-04-26T10:34:50Z</time>
      </trkpt>
      <trkpt lat="43.142047980800271" lon="0.940417014062405">
        <ele>283.73000000000002</ele>
        <time>2025-04-26T10:34:51Z</time>
      </trkpt>
      <trkpt lat="43.141592005267739" lon="0.939798010513186">
        <ele>283.73000000000002</ele>
        <time>2025-04-26T10:34:57Z</time>
      </trkpt>
      <trkpt lat="43.141552023589611" lon="0.939602041617036">
        <ele>283.73000000000002</ele>
        <time>2025-04-26T10:34:58Z</time>
      </trkpt>
      <trkpt lat="43.141552023589611" lon="0.939516965299845">
        <ele>283.73000000000002</ele>
        <time>2025-04-26T10:34:59Z</time>
      </trkpt>
      <trkpt lat="43.141540037468076" lon="0.939328037202358">
        <ele>283.25</ele>
        <time>2025-04-26T10:35:01Z</time>
      </trkpt>
      <trkpt lat="43.141520004719496" lon="0.939233992248774">
        <ele>283.25</ele>
        <time>2025-04-26T10:35:02Z</time>
      </trkpt>
      <trkpt lat="43.141459990292788" lon="0.939043974503875">
        <ele>283.73000000000002</ele>
        <time>2025-04-26T10:35:04Z</time>
      </trkpt>
      <trkpt lat="43.141161007806659" lon="0.93808701261878">
        <ele>284.20999999999998</ele>
        <time>2025-04-26T10:35:13Z</time>
      </trkpt>
      <trkpt lat="43.141128988936543" lon="0.937978969886899">
        <ele>284.69</ele>
        <time>2025-04-26T10:35:14Z</time>
      </trkpt>
      <trkpt lat="43.141096970066428" lon="0.937874028459191">
        <ele>285.17000000000002</ele>
        <time>2025-04-26T10:35:15Z</time>
      </trkpt>
      <trkpt lat="43.141080960631371" lon="0.936654964461923">
        <ele>286.13</ele>
        <time>2025-04-26T10:35:25Z</time>
      </trkpt>
      <trkpt lat="43.141221022233367" lon="0.935703031718731">
        <ele>287.56999999999999</ele>
        <time>2025-04-26T10:35:33Z</time>
      </trkpt>
      <trkpt lat="43.141281036660075" lon="0.93540396541357">
        <ele>285.64999999999998</ele>
        <time>2025-04-26T10:35:36Z</time>
      </trkpt>
      <trkpt lat="43.141300985589623" lon="0.935302041471004">
        <ele>285.17000000000002</ele>
        <time>2025-04-26T10:35:37Z</time>
      </trkpt>
      <trkpt lat="43.141323029994965" lon="0.935197016224265">
        <ele>284.69</ele>
        <time>2025-04-26T10:35:38Z</time>
      </trkpt>
      <trkpt lat="43.141497960314155" lon="0.934485979378223">
        <ele>281.31999999999999</ele>
        <time>2025-04-26T10:35:46Z</time>
      </trkpt>
      <trkpt lat="43.141524028033018" lon="0.934401992708445">
        <ele>281.31999999999999</ele>
        <time>2025-04-26T10:35:47Z</time>
      </trkpt>
      <trkpt lat="43.14155101776123" lon="0.934312976896763">
        <ele>280.83999999999997</ele>
        <time>2025-04-26T10:35:48Z</time>
      </trkpt>
      <trkpt lat="43.141603991389275" lon="0.934137962758541">
        <ele>280.36000000000001</ele>
        <time>2025-04-26T10:35:50Z</time>
      </trkpt>
      <trkpt lat="43.141630981117487" lon="0.93404802493751">
        <ele>279.88</ele>
        <time>2025-04-26T10:35:51Z</time>
      </trkpt>
      <trkpt lat="43.14165998250246" lon="0.933953979983926">
        <ele>279.88</ele>
        <time>2025-04-26T10:35:52Z</time>
      </trkpt>
      <trkpt lat="43.141688983887434" lon="0.933858007192612">
        <ele>279.88</ele>
        <time>2025-04-26T10:35:53Z</time>
      </trkpt>
      <trkpt lat="43.141714967787266" lon="0.933763040229678">
        <ele>279.39999999999998</ele>
        <time>2025-04-26T10:35:54Z</time>
      </trkpt>
      <trkpt lat="43.141793003305793" lon="0.933400020003319">
        <ele>277.95999999999998</ele>
        <time>2025-04-26T10:35:58Z</time>
      </trkpt>
      <trkpt lat="43.141799960285425" lon="0.933309998363256">
        <ele>277.95999999999998</ele>
        <time>2025-04-26T10:35:59Z</time>
      </trkpt>
      <trkpt lat="43.141819993034005" lon="0.933044962584972">
        <ele>277</ele>
        <time>2025-04-26T10:36:02Z</time>
      </trkpt>
      <trkpt lat="43.141826028004289" lon="0.932968016713858">
        <ele>276.51999999999998</ele>
        <time>2025-04-26T10:36:03Z</time>
      </trkpt>
      <trkpt lat="43.141797026619315" lon="0.93282300978899">
        <ele>275.56</ele>
        <time>2025-04-26T10:36:05Z</time>
      </trkpt>
      <trkpt lat="43.141743969172239" lon="0.932675991207361">
        <ele>275.06999999999999</ele>
        <time>2025-04-26T10:36:07Z</time>
      </trkpt>
      <trkpt lat="43.141717985272408" lon="0.932602984830737">
        <ele>274.11000000000001</ele>
        <time>2025-04-26T10:36:08Z</time>
      </trkpt>
      <trkpt lat="43.141692001372576" lon="0.932529978454113">
        <ele>274.11000000000001</ele>
        <time>2025-04-26T10:36:09Z</time>
      </trkpt>
      <trkpt lat="43.141665011644363" lon="0.932454038411379">
        <ele>273.63</ele>
        <time>2025-04-26T10:36:10Z</time>
      </trkpt>
      <trkpt lat="43.14163701608777" lon="0.932379020377994">
        <ele>273.14999999999998</ele>
        <time>2025-04-26T10:36:11Z</time>
      </trkpt>
      <trkpt lat="43.141607008874416" lon="0.932291010394692">
        <ele>272.67000000000002</ele>
        <time>2025-04-26T10:36:12Z</time>
      </trkpt>
      <trkpt lat="43.141575995832682" lon="0.932201994583011">
        <ele>272.67000000000002</ele>
        <time>2025-04-26T10:36:13Z</time>
      </trkpt>
      <trkpt lat="43.141544982790947" lon="0.932110967114568">
        <ele>272.67000000000002</ele>
        <time>2025-04-26T10:36:14Z</time>
      </trkpt>
      <trkpt lat="43.141511958092451" lon="0.932016000151634">
        <ele>272.67000000000002</ele>
        <time>2025-04-26T10:36:15Z</time>
      </trkpt>
      <trkpt lat="43.141453033313155" lon="0.931845009326935">
        <ele>272.67000000000002</ele>
        <time>2025-04-26T10:36:17Z</time>
      </trkpt>
      <trkpt lat="43.141424031928182" lon="0.931760016828775">
        <ele>273.14999999999998</ele>
        <time>2025-04-26T10:36:18Z</time>
      </trkpt>
      <trkpt lat="43.141395030543208" lon="0.931677035987377">
        <ele>273.14999999999998</ele>
        <time>2025-04-26T10:36:19Z</time>
      </trkpt>
      <trkpt lat="43.141364017501473" lon="0.931589026004076">
        <ele>273.63</ele>
        <time>2025-04-26T10:36:20Z</time>
      </trkpt>
      <trkpt lat="43.141334010288119" lon="0.931501016020775">
        <ele>273.63</ele>
        <time>2025-04-26T10:36:21Z</time>
      </trkpt>
      <trkpt lat="43.141074003651738" lon="0.930747985839844">
        <ele>276.04000000000002</ele>
        <time>2025-04-26T10:36:30Z</time>
      </trkpt>
      <trkpt lat="43.141045002266765" lon="0.930663999170065">
        <ele>276.51999999999998</ele>
        <time>2025-04-26T10:36:33Z</time>
      </trkpt>
      <trkpt lat="43.141029998660088" lon="0.930643966421485">
        <ele>277</ele>
        <time>2025-04-26T10:36:34Z</time>
      </trkpt>
      <trkpt lat="43.141003008931875" lon="0.930656958371401">
        <ele>277.48000000000002</ele>
        <time>2025-04-26T10:36:35Z</time>
      </trkpt>
      <trkpt lat="43.140960009768605" lon="0.930676991119981">
        <ele>277.95999999999998</ele>
        <time>2025-04-26T10:36:36Z</time>
      </trkpt>
      <trkpt lat="43.140914998948574" lon="0.930699035525322">
        <ele>278.92000000000002</ele>
        <time>2025-04-26T10:36:37Z</time>
      </trkpt>
      <trkpt lat="43.140865964815021" lon="0.930723007768393">
        <ele>279.39999999999998</ele>
        <time>2025-04-26T10:36:38Z</time>
      </trkpt>
      <trkpt lat="43.140801005065441" lon="0.930754020810127">
        <ele>279.39999999999998</ele>
        <time>2025-04-26T10:36:39Z</time>
      </trkpt>
      <trkpt lat="43.140726992860436" lon="0.930789979174733">
        <ele>279.88</ele>
        <time>2025-04-26T10:36:40Z</time>
      </trkpt>
      <trkpt lat="43.140649041160941" lon="0.930827027186751">
        <ele>279.88</ele>
        <time>2025-04-26T10:36:41Z</time>
      </trkpt>
      <trkpt lat="43.140499005094171" lon="0.930899027734995">
        <ele>279.88</ele>
        <time>2025-04-26T10:36:43Z</time>
      </trkpt>
      <trkpt lat="43.140418035909534" lon="0.930934986099601">
        <ele>279.39999999999998</ele>
        <time>2025-04-26T10:36:44Z</time>
      </trkpt>
      <trkpt lat="43.140337988734245" lon="0.930967004969716">
        <ele>279.39999999999998</ele>
        <time>2025-04-26T10:36:45Z</time>
      </trkpt>
      <trkpt lat="43.140264982357621" lon="0.93099600635469">
        <ele>279.88</ele>
        <time>2025-04-26T10:36:46Z</time>
      </trkpt>
      <trkpt lat="43.140194993466139" lon="0.931024001911283">
        <ele>279.88</ele>
        <time>2025-04-26T10:36:47Z</time>
      </trkpt>
      <trkpt lat="43.140117963775992" lon="0.931051997467875">
        <ele>279.88</ele>
        <time>2025-04-26T10:36:48Z</time>
      </trkpt>
      <trkpt lat="43.139955019578338" lon="0.931084016337991">
        <ele>280.83999999999997</ele>
        <time>2025-04-26T10:36:50Z</time>
      </trkpt>
      <trkpt lat="43.139874972403049" lon="0.931102959439158">
        <ele>281.31999999999999</ele>
        <time>2025-04-26T10:36:51Z</time>
      </trkpt>
      <trkpt lat="43.139794003218412" lon="0.931119974702597">
        <ele>281.80000000000001</ele>
        <time>2025-04-26T10:36:52Z</time>
      </trkpt>
      <trkpt lat="43.139709010720253" lon="0.931134978309274">
        <ele>282.76999999999998</ele>
        <time>2025-04-26T10:36:53Z</time>
      </trkpt>
      <trkpt lat="43.139624018222094" lon="0.931150987744331">
        <ele>282.76999999999998</ele>
        <time>2025-04-26T10:36:54Z</time>
      </trkpt>
      <trkpt lat="43.139541037380695" lon="0.931164985522628">
        <ele>283.25</ele>
        <time>2025-04-26T10:36:55Z</time>
      </trkpt>
      <trkpt lat="43.139136023819447" lon="0.931226005777717">
        <ele>284.69</ele>
        <time>2025-04-26T10:37:00Z</time>
      </trkpt>
      <trkpt lat="43.138343011960387" lon="0.93140403740108">
        <ele>287.08999999999997</ele>
        <time>2025-04-26T10:37:10Z</time>
      </trkpt>
      <trkpt lat="43.137448998168111" lon="0.931634958833456">
        <ele>291.89999999999998</ele>
        <time>2025-04-26T10:37:20Z</time>
      </trkpt>
      <trkpt lat="43.136441996321082" lon="0.931882979348302">
        <ele>292.86000000000001</ele>
        <time>2025-04-26T10:37:29Z</time>
      </trkpt>
      <trkpt lat="43.136263964697719" lon="0.931928995996714">
        <ele>293.81999999999999</ele>
        <time>2025-04-26T10:37:31Z</time>
      </trkpt>
      <trkpt lat="43.136186012998223" lon="0.931948022916913">
        <ele>294.77999999999997</ele>
        <time>2025-04-26T10:37:32Z</time>
      </trkpt>
      <trkpt lat="43.136102026328444" lon="0.931967971846461">
        <ele>295.25999999999999</ele>
        <time>2025-04-26T10:37:33Z</time>
      </trkpt>
      <trkpt lat="43.135831961408257" lon="0.932033015415072">
        <ele>297.18000000000001</ele>
        <time>2025-04-26T10:37:36Z</time>
      </trkpt>
      <trkpt lat="43.135141041129827" lon="0.932208029553294">
        <ele>299.58999999999997</ele>
        <time>2025-04-26T10:37:43Z</time>
      </trkpt>
      <trkpt lat="43.133716033771634" lon="0.932555962353945">
        <ele>301.99000000000001</ele>
        <time>2025-04-26T10:37:56Z</time>
      </trkpt>
      <trkpt lat="43.132673995569348" lon="0.932808006182313">
        <ele>306.31999999999999</ele>
        <time>2025-04-26T10:38:05Z</time>
      </trkpt>
      <trkpt lat="43.131849970668554" lon="0.933019984513521">
        <ele>312.56999999999999</ele>
        <time>2025-04-26T10:38:13Z</time>
      </trkpt>
      <trkpt lat="43.131594993174076" lon="0.933087039738894">
        <ele>315.44999999999999</ele>
        <time>2025-04-26T10:38:17Z</time>
      </trkpt>
      <trkpt lat="43.131594993174076" lon="0.933087039738894">
        <ele>317.37</ele>
        <time>2025-04-26T10:38:23Z</time>
      </trkpt>
      <trkpt lat="43.131594993174076" lon="0.933087039738894">
        <ele>316.88999999999999</ele>
        <time>2025-04-26T10:38:24Z</time>
      </trkpt>
      <trkpt lat="43.131594993174076" lon="0.933087039738894">
        <ele>316.41000000000003</ele>
        <time>2025-04-26T10:38:25Z</time>
      </trkpt>
      <trkpt lat="43.131461972370744" lon="0.933119980618358">
        <ele>316.41000000000003</ele>
        <time>2025-04-26T10:38:26Z</time>
      </trkpt>
      <trkpt lat="43.131438000127673" lon="0.933126015588641">
        <ele>316.41000000000003</ele>
        <time>2025-04-26T10:38:27Z</time>
      </trkpt>
      <trkpt lat="43.131416039541364" lon="0.933130960911512">
        <ele>316.41000000000003</ele>
        <time>2025-04-26T10:38:28Z</time>
      </trkpt>
      <trkpt lat="43.13138603232801" lon="0.933136995881796">
        <ele>316.41000000000003</ele>
        <time>2025-04-26T10:38:29Z</time>
      </trkpt>
      <trkpt lat="43.131341021507978" lon="0.933145964518189">
        <ele>316.41000000000003</ele>
        <time>2025-04-26T10:38:30Z</time>
      </trkpt>
      <trkpt lat="43.131277989596128" lon="0.933160968124866">
        <ele>316.41000000000003</ele>
        <time>2025-04-26T10:38:31Z</time>
      </trkpt>
      <trkpt lat="43.131211018189788" lon="0.933176977559924">
        <ele>315.93000000000001</ele>
        <time>2025-04-26T10:38:32Z</time>
      </trkpt>
      <trkpt lat="43.131139017641544" lon="0.933196004480124">
        <ele>315.93000000000001</ele>
        <time>2025-04-26T10:38:33Z</time>
      </trkpt>
      <trkpt lat="43.130826959386468" lon="0.933274962007999">
        <ele>314.49000000000001</ele>
        <time>2025-04-26T10:38:37Z</time>
      </trkpt>
      <trkpt lat="43.130778009071946" lon="0.933286026120186">
        <ele>314.00999999999999</ele>
        <time>2025-04-26T10:38:38Z</time>
      </trkpt>
      <trkpt lat="43.130812039598823" lon="0.933357020840049">
        <ele>313.05000000000001</ele>
        <time>2025-04-26T10:38:39Z</time>
      </trkpt>
      <trkpt lat="43.130824025720358" lon="0.933442013338208">
        <ele>312.56999999999999</ele>
        <time>2025-04-26T10:38:40Z</time>
      </trkpt>
      <trkpt lat="43.130838023498654" lon="0.933539997786283">
        <ele>311.60000000000002</ele>
        <time>2025-04-26T10:38:41Z</time>
      </trkpt>
      <trkpt lat="43.130857972428203" lon="0.933601018041372">
        <ele>310.63999999999999</ele>
        <time>2025-04-26T10:38:42Z</time>
      </trkpt>
      <trkpt lat="43.130903989076614" lon="0.933665977790952">
        <ele>309.68000000000001</ele>
        <time>2025-04-26T10:38:43Z</time>
      </trkpt>
      <trkpt lat="43.130944976583123" lon="0.933724986389279">
        <ele>308.72000000000003</ele>
        <time>2025-04-26T10:38:44Z</time>
      </trkpt>
      <trkpt lat="43.130982024595141" lon="0.933777038007975">
        <ele>307.75999999999999</ele>
        <time>2025-04-26T10:38:45Z</time>
      </trkpt>
      <trkpt lat="43.13099903985858" lon="0.933795981109142">
        <ele>307.75999999999999</ele>
        <time>2025-04-26T10:38:46Z</time>
      </trkpt>
      <trkpt lat="43.131038015708327" lon="0.933808973059058">
        <ele>307.27999999999997</ele>
        <time>2025-04-26T10:38:47Z</time>
      </trkpt>
      <trkpt lat="43.131058970466256" lon="0.933816013857722">
        <ele>306.80000000000001</ele>
        <time>2025-04-26T10:38:48Z</time>
      </trkpt>
      <trkpt lat="43.131100041791797" lon="0.933816013857722">
        <ele>305.83999999999997</ele>
        <time>2025-04-26T10:38:49Z</time>
      </trkpt>
      <trkpt lat="43.131140023469925" lon="0.933816013857722">
        <ele>305.36000000000001</ele>
        <time>2025-04-26T10:38:50Z</time>
      </trkpt>
      <trkpt lat="43.131144968792796" lon="0.933816013857722">
        <ele>304.88</ele>
        <time>2025-04-26T10:38:51Z</time>
      </trkpt>
      <trkpt lat="43.13117497600615" lon="0.933791035786271">
        <ele>304.38999999999999</ele>
        <time>2025-04-26T10:38:52Z</time>
      </trkpt>
      <trkpt lat="43.131204983219504" lon="0.933765973895788">
        <ele>304.38999999999999</ele>
        <time>2025-04-26T10:38:53Z</time>
      </trkpt>
      <trkpt lat="43.131234990432858" lon="0.933740995824337">
        <ele>303.91000000000003</ele>
        <time>2025-04-26T10:38:54Z</time>
      </trkpt>
      <trkpt lat="43.13125996850431" lon="0.933720041066408">
        <ele>303.43000000000001</ele>
        <time>2025-04-26T10:38:55Z</time>
      </trkpt>
      <trkpt lat="43.131272960454226" lon="0.933708976954222">
        <ele>303.43000000000001</ele>
        <time>2025-04-26T10:38:56Z</time>
      </trkpt>
      <trkpt lat="43.131315959617496" lon="0.933579979464412">
        <ele>302.47000000000003</ele>
        <time>2025-04-26T10:39:00Z</time>
      </trkpt>
      <trkpt lat="43.131314031779766" lon="0.933576039969921">
        <ele>301.99000000000001</ele>
        <time>2025-04-26T10:39:01Z</time>
      </trkpt>
      <trkpt lat="43.131304979324341" lon="0.933552989736199">
        <ele>301.99000000000001</ele>
        <time>2025-04-26T10:39:02Z</time>
      </trkpt>
      <trkpt lat="43.131296010687947" lon="0.933533962816">
        <ele>301.99000000000001</ele>
        <time>2025-04-26T10:39:03Z</time>
      </trkpt>
      <trkpt lat="43.131287964060903" lon="0.933515019714832">
        <ele>301.99000000000001</ele>
        <time>2025-04-26T10:39:04Z</time>
      </trkpt>
      <trkpt lat="43.131252005696297" lon="0.933430027216673">
        <ele>302.47000000000003</ele>
        <time>2025-04-26T10:39:05Z</time>
      </trkpt>
      <trkpt lat="43.131252005696297" lon="0.933430027216673">
        <ele>302.47000000000003</ele>
        <time>2025-04-26T10:39:06Z</time>
      </trkpt>
      <trkpt lat="43.131224010139704" lon="0.933473026379943">
        <ele>301.99000000000001</ele>
        <time>2025-04-26T10:39:09Z</time>
      </trkpt>
      <trkpt lat="43.131212024018168" lon="0.933490041643381">
        <ele>301.99000000000001</ele>
        <time>2025-04-26T10:39:10Z</time>
      </trkpt>
      <trkpt lat="43.13119400292635" lon="0.933517031371593">
        <ele>301.50999999999999</ele>
        <time>2025-04-26T10:39:22Z</time>
      </trkpt>
      <trkpt lat="43.13119400292635" lon="0.933517031371593">
        <ele>301.02999999999997</ele>
        <time>2025-04-26T10:40:03Z</time>
      </trkpt>
      <trkpt lat="43.13119400292635" lon="0.933517031371593">
        <ele>301.02999999999997</ele>
        <time>2025-04-26T10:40:18Z</time>
      </trkpt>
      <trkpt lat="43.13119400292635" lon="0.933517031371593">
        <ele>301.02999999999997</ele>
        <time>2025-04-26T10:40:33Z</time>
      </trkpt>
      <trkpt lat="43.131171958521008" lon="0.933549972251058">
        <ele>300.06999999999999</ele>
        <time>2025-04-26T10:40:41Z</time>
      </trkpt>
      <trkpt lat="43.131118984892964" lon="0.933714006096125">
        <ele>299.11000000000001</ele>
        <time>2025-04-26T10:47:41Z</time>
      </trkpt>
      <trkpt lat="43.131122002378106" lon="0.933690033853054">
        <ele>294.30000000000001</ele>
        <time>2025-04-26T10:48:21Z</time>
      </trkpt>
      <trkpt lat="43.131110016256571" lon="0.933662038296461">
        <ele>299.58999999999997</ele>
        <time>2025-04-26T10:49:13Z</time>
      </trkpt>
      <trkpt lat="43.131117979064584" lon="0.933649968355894">
        <ele>298.63</ele>
        <time>2025-04-26T10:50:05Z</time>
      </trkpt>
      <trkpt lat="43.131115967407823" lon="0.933651980012655">
        <ele>298.63</ele>
        <time>2025-04-26T10:51:07Z</time>
      </trkpt>
      <trkpt lat="43.131115967407823" lon="0.933658014982939">
        <ele>298.63</ele>
        <time>2025-04-26T10:51:48Z</time>
      </trkpt>
      <trkpt lat="43.131069028750062" lon="0.93368299305439">
        <ele>297.67000000000002</ele>
        <time>2025-04-26T10:52:11Z</time>
      </trkpt>
      <trkpt lat="43.131067017093301" lon="0.933713000267744">
        <ele>298.14999999999998</ele>
        <time>2025-04-26T10:52:12Z</time>
      </trkpt>
      <trkpt lat="43.13106500543654" lon="0.933738984167576">
        <ele>297.67000000000002</ele>
        <time>2025-04-26T10:52:13Z</time>
      </trkpt>
      <trkpt lat="43.131060982123017" lon="0.933780977502465">
        <ele>297.18000000000001</ele>
        <time>2025-04-26T10:52:21Z</time>
      </trkpt>
      <trkpt lat="43.131058970466256" lon="0.933816013857722">
        <ele>297.18000000000001</ele>
        <time>2025-04-26T10:52:22Z</time>
      </trkpt>
      <trkpt lat="43.130994010716677" lon="0.933794975280762">
        <ele>296.69999999999999</ele>
        <time>2025-04-26T10:52:23Z</time>
      </trkpt>
      <trkpt lat="43.130948999896646" lon="0.933730015531182">
        <ele>296.69999999999999</ele>
        <time>2025-04-26T10:52:24Z</time>
      </trkpt>
      <trkpt lat="43.13091304153204" lon="0.933678969740868">
        <ele>296.22000000000003</ele>
        <time>2025-04-26T10:52:25Z</time>
      </trkpt>
      <trkpt lat="43.130876999348402" lon="0.933628007769585">
        <ele>296.22000000000003</ele>
        <time>2025-04-26T10:52:26Z</time>
      </trkpt>
      <trkpt lat="43.130842968821526" lon="0.933572016656399">
        <ele>295.74000000000001</ele>
        <time>2025-04-26T10:52:27Z</time>
      </trkpt>
      <trkpt lat="43.130834000185132" lon="0.933505967259407">
        <ele>295.74000000000001</ele>
        <time>2025-04-26T10:52:28Z</time>
      </trkpt>
      <trkpt lat="43.130825031548738" lon="0.93344796448946">
        <ele>295.74000000000001</ele>
        <time>2025-04-26T10:52:29Z</time>
      </trkpt>
      <trkpt lat="43.130818996578455" lon="0.93340496532619">
        <ele>295.25999999999999</ele>
        <time>2025-04-26T10:52:30Z</time>
      </trkpt>
      <trkpt lat="43.130846992135048" lon="0.933272028341889">
        <ele>295.25999999999999</ele>
        <time>2025-04-26T10:52:31Z</time>
      </trkpt>
      <trkpt lat="43.130884040147066" lon="0.933264987543225">
        <ele>295.25999999999999</ele>
        <time>2025-04-26T10:52:32Z</time>
      </trkpt>
      <trkpt lat="43.130939025431871" lon="0.933255013078451">
        <ele>295.25999999999999</ele>
        <time>2025-04-26T10:52:33Z</time>
      </trkpt>
      <trkpt lat="43.131003985181451" lon="0.933243026956916">
        <ele>295.25999999999999</ele>
        <time>2025-04-26T10:52:34Z</time>
      </trkpt>
      <trkpt lat="43.131074979901314" lon="0.933221988379955">
        <ele>294.30000000000001</ele>
        <time>2025-04-26T10:52:35Z</time>
      </trkpt>
      <trkpt lat="43.131848964840174" lon="0.933019984513521">
        <ele>292.86000000000001</ele>
        <time>2025-04-26T10:52:44Z</time>
      </trkpt>
      <trkpt lat="43.132412983104587" lon="0.932873971760273">
        <ele>291.42000000000002</ele>
        <time>2025-04-26T10:52:50Z</time>
      </trkpt>
      <trkpt lat="43.133504977449775" lon="0.932593010365963">
        <ele>289.00999999999999</ele>
        <time>2025-04-26T10:53:00Z</time>
      </trkpt>
      <trkpt lat="43.134307041764259" lon="0.932412967085838">
        <ele>286.13</ele>
        <time>2025-04-26T10:53:07Z</time>
      </trkpt>
      <trkpt lat="43.134420029819012" lon="0.932388994842768">
        <ele>286.61000000000001</ele>
        <time>2025-04-26T10:53:08Z</time>
      </trkpt>
      <trkpt lat="43.134536035358906" lon="0.932362005114555">
        <ele>287.08999999999997</ele>
        <time>2025-04-26T10:53:09Z</time>
      </trkpt>
      <trkpt lat="43.135821986943483" lon="0.932035027071834">
        <ele>287.56999999999999</ele>
        <time>2025-04-26T10:53:20Z</time>
      </trkpt>
      <trkpt lat="43.136420035734773" lon="0.931889014318585">
        <ele>285.17000000000002</ele>
        <time>2025-04-26T10:53:27Z</time>
      </trkpt>
      <trkpt lat="43.136731004342437" lon="0.931815002113581">
        <ele>284.69</ele>
        <time>2025-04-26T10:53:31Z</time>
      </trkpt>
      <trkpt lat="43.136799987405539" lon="0.931798992678523">
        <ele>285.17000000000002</ele>
        <time>2025-04-26T10:53:32Z</time>
      </trkpt>
      <trkpt lat="43.137653013691306" lon="0.931564969941974">
        <ele>285.17000000000002</ele>
        <time>2025-04-26T10:53:43Z</time>
      </trkpt>
      <trkpt lat="43.138548033311963" lon="0.931359026581049">
        <ele>281.80000000000001</ele>
        <time>2025-04-26T10:53:56Z</time>
      </trkpt>
      <trkpt lat="43.138905018568039" lon="0.931265987455845">
        <ele>280.36000000000001</ele>
        <time>2025-04-26T10:54:01Z</time>
      </trkpt>
      <trkpt lat="43.138980036601424" lon="0.931246038526297">
        <ele>280.36000000000001</ele>
        <time>2025-04-26T10:54:02Z</time>
      </trkpt>
      <trkpt lat="43.139396030455828" lon="0.93118803575635">
        <ele>279.39999999999998</ele>
        <time>2025-04-26T10:54:08Z</time>
      </trkpt>
      <trkpt lat="43.139611026272178" lon="0.931154005229473">
        <ele>278.92000000000002</ele>
        <time>2025-04-26T10:54:11Z</time>
      </trkpt>
      <trkpt lat="43.139676991850138" lon="0.931142019107938">
        <ele>278.92000000000002</ele>
        <time>2025-04-26T10:54:12Z</time>
      </trkpt>
      <trkpt lat="43.139801966026425" lon="0.931118968874216">
        <ele>277.95999999999998</ele>
        <time>2025-04-26T10:54:14Z</time>
      </trkpt>
      <trkpt lat="43.140006987378001" lon="0.931074041873217">
        <ele>277.48000000000002</ele>
        <time>2025-04-26T10:54:17Z</time>
      </trkpt>
      <trkpt lat="43.140078987926245" lon="0.931059960275888">
        <ele>277.48000000000002</ele>
        <time>2025-04-26T10:54:18Z</time>
      </trkpt>
      <trkpt lat="43.140147970989347" lon="0.931044034659863">
        <ele>277.48000000000002</ele>
        <time>2025-04-26T10:54:19Z</time>
      </trkpt>
      <trkpt lat="43.140416024252772" lon="0.930935991927981">
        <ele>276.51999999999998</ele>
        <time>2025-04-26T10:54:23Z</time>
      </trkpt>
      <trkpt lat="43.140611993148923" lon="0.930844964459538">
        <ele>276.04000000000002</ele>
        <time>2025-04-26T10:54:26Z</time>
      </trkpt>
      <trkpt lat="43.140806034207344" lon="0.930752009153366">
        <ele>275.56</ele>
        <time>2025-04-26T10:54:29Z</time>
      </trkpt>
      <trkpt lat="43.141065035015345" lon="0.930627034977078">
        <ele>272.67000000000002</ele>
        <time>2025-04-26T10:54:35Z</time>
      </trkpt>
      <trkpt lat="43.141150027513504" lon="0.930587975308299">
        <ele>270.75</ele>
        <time>2025-04-26T10:54:44Z</time>
      </trkpt>
      <trkpt lat="43.141397964209318" lon="0.93048102222383">
        <ele>273.14999999999998</ele>
        <time>2025-04-26T10:54:50Z</time>
      </trkpt>
      <trkpt lat="43.141540959477425" lon="0.930410027503967">
        <ele>274.11000000000001</ele>
        <time>2025-04-26T10:54:53Z</time>
      </trkpt>
      <trkpt lat="43.141583036631346" lon="0.930388988927007">
        <ele>274.11000000000001</ele>
        <time>2025-04-26T10:54:54Z</time>
      </trkpt>
      <trkpt lat="43.141628969460726" lon="0.930366022512317">
        <ele>274.58999999999997</ele>
        <time>2025-04-26T10:54:55Z</time>
      </trkpt>
      <trkpt lat="43.141675991937518" lon="0.930341966450214">
        <ele>275.06999999999999</ele>
        <time>2025-04-26T10:54:56Z</time>
      </trkpt>
      <trkpt lat="43.14172301441431" lon="0.930319000035524">
        <ele>275.56</ele>
        <time>2025-04-26T10:54:57Z</time>
      </trkpt>
      <trkpt lat="43.141764001920819" lon="0.930297039449215">
        <ele>276.04000000000002</ele>
        <time>2025-04-26T10:54:58Z</time>
      </trkpt>
      <trkpt lat="43.14180800691247" lon="0.930271977558732">
        <ele>276.51999999999998</ele>
        <time>2025-04-26T10:54:59Z</time>
      </trkpt>
      <trkpt lat="43.141858968883753" lon="0.930243982002139">
        <ele>277</ele>
        <time>2025-04-26T10:55:00Z</time>
      </trkpt>
      <trkpt lat="43.141912026330829" lon="0.930214980617166">
        <ele>277.48000000000002</ele>
        <time>2025-04-26T10:55:01Z</time>
      </trkpt>
      <trkpt lat="43.141958964988589" lon="0.930188996717334">
        <ele>277.95999999999998</ele>
        <time>2025-04-26T10:55:02Z</time>
      </trkpt>
      <trkpt lat="43.14200003631413" lon="0.930166030302644">
        <ele>278.44</ele>
        <time>2025-04-26T10:55:03Z</time>
      </trkpt>
      <trkpt lat="43.142039012163877" lon="0.930144991725683">
        <ele>278.92000000000002</ele>
        <time>2025-04-26T10:55:04Z</time>
      </trkpt>
      <trkpt lat="43.142115036025643" lon="0.930104004219174">
        <ele>280.36000000000001</ele>
        <time>2025-04-26T10:55:06Z</time>
      </trkpt>
      <trkpt lat="43.142149988561869" lon="0.93005295842886">
        <ele>280.83999999999997</ele>
        <time>2025-04-26T10:55:07Z</time>
      </trkpt>
      <trkpt lat="43.142144959419966" lon="0.92998799867928">
        <ele>281.31999999999999</ele>
        <time>2025-04-26T10:55:08Z</time>
      </trkpt>
      <trkpt lat="43.142140014097095" lon="0.929915998131037">
        <ele>281.80000000000001</ele>
        <time>2025-04-26T10:55:09Z</time>
      </trkpt>
      <trkpt lat="43.142133979126811" lon="0.9298350289464">
        <ele>282.27999999999997</ele>
        <time>2025-04-26T10:55:10Z</time>
      </trkpt>
      <trkpt lat="43.142115036025643" lon="0.929581979289651">
        <ele>283.25</ele>
        <time>2025-04-26T10:55:13Z</time>
      </trkpt>
      <trkpt lat="43.142124004662037" lon="0.929466979578137">
        <ele>283.73000000000002</ele>
        <time>2025-04-26T10:55:14Z</time>
      </trkpt>
      <trkpt lat="43.142154011875391" lon="0.929391961544752">
        <ele>284.20999999999998</ele>
        <time>2025-04-26T10:55:15Z</time>
      </trkpt>
      <trkpt lat="43.142185024917126" lon="0.929304035380483">
        <ele>284.20999999999998</ele>
        <time>2025-04-26T10:55:16Z</time>
      </trkpt>
      <trkpt lat="43.142216959968209" lon="0.92921401374042">
        <ele>284.20999999999998</ele>
        <time>2025-04-26T10:55:17Z</time>
      </trkpt>
      <trkpt lat="43.142259959131479" lon="0.929095996543765">
        <ele>284.20999999999998</ele>
        <time>2025-04-26T10:55:18Z</time>
      </trkpt>
      <trkpt lat="43.142243027687073" lon="0.929019972681999">
        <ele>284.20999999999998</ele>
        <time>2025-04-26T10:55:19Z</time>
      </trkpt>
      <trkpt lat="43.142216959968209" lon="0.928902961313725">
        <ele>284.20999999999998</ele>
        <time>2025-04-26T10:55:20Z</time>
      </trkpt>
      <trkpt lat="43.142101960256696" lon="0.928359981626272">
        <ele>285.64999999999998</ele>
        <time>2025-04-26T10:55:27Z</time>
      </trkpt>
      <trkpt lat="43.14208997413516" lon="0.928297033533454">
        <ele>285.64999999999998</ele>
        <time>2025-04-26T10:55:28Z</time>
      </trkpt>
      <trkpt lat="43.142044963315129" lon="0.928063010796905">
        <ele>286.61000000000001</ele>
        <time>2025-04-26T10:55:31Z</time>
      </trkpt>
      <trkpt lat="43.141829967498779" lon="0.926917036995292">
        <ele>288.52999999999997</ele>
        <time>2025-04-26T10:55:42Z</time>
      </trkpt>
      <trkpt lat="43.14174204133451" lon="0.926455026492476">
        <ele>289.49000000000001</ele>
        <time>2025-04-26T10:55:48Z</time>
      </trkpt>
      <trkpt lat="43.141732988879085" lon="0.926411021500826">
        <ele>289.97000000000003</ele>
        <time>2025-04-26T10:55:49Z</time>
      </trkpt>
      <trkpt lat="43.141574990004301" lon="0.925594959408045">
        <ele>290.94</ele>
        <time>2025-04-26T10:55:58Z</time>
      </trkpt>
      <trkpt lat="43.1413350161165" lon="0.924274977296591">
        <ele>291.89999999999998</ele>
        <time>2025-04-26T10:56:08Z</time>
      </trkpt>
      <trkpt lat="43.141294028609991" lon="0.923771979287267">
        <ele>291.42000000000002</ele>
        <time>2025-04-26T10:56:11Z</time>
      </trkpt>
      <trkpt lat="43.141259998083115" lon="0.9227030351758">
        <ele>290.94</ele>
        <time>2025-04-26T10:56:16Z</time>
      </trkpt>
      <trkpt lat="43.141220016404986" lon="0.922473035752773">
        <ele>290.45999999999998</ele>
        <time>2025-04-26T10:56:17Z</time>
      </trkpt>
      <trkpt lat="43.140984987840056" lon="0.921297976747155">
        <ele>290.45999999999998</ele>
        <time>2025-04-26T10:56:22Z</time>
      </trkpt>
      <trkpt lat="43.140910975635052" lon="0.921102007851005">
        <ele>290.45999999999998</ele>
        <time>2025-04-26T10:56:23Z</time>
      </trkpt>
      <trkpt lat="43.140805028378963" lon="0.92094199731946">
        <ele>290.45999999999998</ele>
        <time>2025-04-26T10:56:24Z</time>
      </trkpt>
      <trkpt lat="43.140232041478157" lon="0.920187961310148">
        <ele>291.89999999999998</ele>
        <time>2025-04-26T10:56:29Z</time>
      </trkpt>
      <trkpt lat="43.140099020674825" lon="0.920087965205312">
        <ele>292.38</ele>
        <time>2025-04-26T10:56:30Z</time>
      </trkpt>
      <trkpt lat="43.139946972951293" lon="0.920058041810989">
        <ele>292.86000000000001</ele>
        <time>2025-04-26T10:56:31Z</time>
      </trkpt>
      <trkpt lat="43.139784028753638" lon="0.920029040426016">
        <ele>293.33999999999997</ele>
        <time>2025-04-26T10:56:32Z</time>
      </trkpt>
      <trkpt lat="43.139615971595049" lon="0.920015964657068">
        <ele>293.81999999999999</ele>
        <time>2025-04-26T10:56:33Z</time>
      </trkpt>
      <trkpt lat="43.139443974941969" lon="0.920011019334197">
        <ele>294.77999999999997</ele>
        <time>2025-04-26T10:56:34Z</time>
      </trkpt>
      <trkpt lat="43.139267032966018" lon="0.920005990192294">
        <ele>295.25999999999999</ele>
        <time>2025-04-26T10:56:35Z</time>
      </trkpt>
      <trkpt lat="43.139082966372371" lon="0.920000961050391">
        <ele>296.22000000000003</ele>
        <time>2025-04-26T10:56:36Z</time>
      </trkpt>
      <trkpt lat="43.138894038274884" lon="0.919984029605985">
        <ele>297.18000000000001</ele>
        <time>2025-04-26T10:56:37Z</time>
      </trkpt>
      <trkpt lat="43.138361033052206" lon="0.919854026287794">
        <ele>299.11000000000001</ele>
        <time>2025-04-26T10:56:40Z</time>
      </trkpt>
      <trkpt lat="43.138179983943701" lon="0.919779008254409">
        <ele>299.58999999999997</ele>
        <time>2025-04-26T10:56:41Z</time>
      </trkpt>
      <trkpt lat="43.137647984549403" lon="0.919556971639395">
        <ele>301.99000000000001</ele>
        <time>2025-04-26T10:56:44Z</time>
      </trkpt>
      <trkpt lat="43.137289993464947" lon="0.919431997463107">
        <ele>303.43000000000001</ele>
        <time>2025-04-26T10:56:46Z</time>
      </trkpt>
      <trkpt lat="43.137108022347093" lon="0.919411964714527">
        <ele>304.38999999999999</ele>
        <time>2025-04-26T10:56:47Z</time>
      </trkpt>
      <trkpt lat="43.13693200238049" lon="0.919393021613359">
        <ele>304.88</ele>
        <time>2025-04-26T10:56:48Z</time>
      </trkpt>
      <trkpt lat="43.136753970757127" lon="0.91937399469316">
        <ele>305.36000000000001</ele>
        <time>2025-04-26T10:56:49Z</time>
      </trkpt>
      <trkpt lat="43.136570993810892" lon="0.91935396194458">
        <ele>305.36000000000001</ele>
        <time>2025-04-26T10:56:50Z</time>
      </trkpt>
      <trkpt lat="43.135088989511132" lon="0.919184982776642">
        <ele>302.94999999999999</ele>
        <time>2025-04-26T10:56:58Z</time>
      </trkpt>
      <trkpt lat="43.133734976872802" lon="0.919017009437084">
        <ele>300.06999999999999</ele>
        <time>2025-04-26T10:57:06Z</time>
      </trkpt>
      <trkpt lat="43.13228901475668" lon="0.918894968926907">
        <ele>300.06999999999999</ele>
        <time>2025-04-26T10:57:14Z</time>
      </trkpt>
      <trkpt lat="43.13061598688364" lon="0.91866496950388">
        <ele>301.50999999999999</ele>
        <time>2025-04-26T10:57:23Z</time>
      </trkpt>
      <trkpt lat="43.130440972745419" lon="0.918630016967654">
        <ele>301.50999999999999</ele>
        <time>2025-04-26T10:57:24Z</time>
      </trkpt>
      <trkpt lat="43.129174970090389" lon="0.918102040886879">
        <ele>301.02999999999997</ele>
        <time>2025-04-26T10:57:31Z</time>
      </trkpt>
      <trkpt lat="43.127402029931545" lon="0.917316991835833">
        <ele>300.55000000000001</ele>
        <time>2025-04-26T10:57:40Z</time>
      </trkpt>
      <trkpt lat="43.126201992854476" lon="0.916772000491619">
        <ele>299.11000000000001</ele>
        <time>2025-04-26T10:57:46Z</time>
      </trkpt>
      <trkpt lat="43.125065993517637" lon="0.91628098860383">
        <ele>299.58999999999997</ele>
        <time>2025-04-26T10:57:52Z</time>
      </trkpt>
      <trkpt lat="43.123797979205847" lon="0.915724011138082">
        <ele>300.55000000000001</ele>
        <time>2025-04-26T10:58:00Z</time>
      </trkpt>
      <trkpt lat="43.123428001999855" lon="0.915534999221563">
        <ele>301.99000000000001</ele>
        <time>2025-04-26T10:58:04Z</time>
      </trkpt>
      <trkpt lat="43.123261034488678" lon="0.915396027266979">
        <ele>302.94999999999999</ele>
        <time>2025-04-26T10:58:06Z</time>
      </trkpt>
      <trkpt lat="43.123182998970151" lon="0.915331989526749">
        <ele>302.94999999999999</ele>
        <time>2025-04-26T10:58:07Z</time>
      </trkpt>
      <trkpt lat="43.123104963451624" lon="0.915267029777169">
        <ele>303.91000000000003</ele>
        <time>2025-04-26T10:58:08Z</time>
      </trkpt>
      <trkpt lat="43.122487971559167" lon="0.914679039269686">
        <ele>306.80000000000001</ele>
        <time>2025-04-26T10:58:17Z</time>
      </trkpt>
      <trkpt lat="43.122184965759516" lon="0.914222979918122">
        <ele>307.75999999999999</ele>
        <time>2025-04-26T10:58:23Z</time>
      </trkpt>
      <trkpt lat="43.122138027101755" lon="0.91413002461195">
        <ele>308.24000000000001</ele>
        <time>2025-04-26T10:58:24Z</time>
      </trkpt>
      <trkpt lat="43.122054040431976" lon="0.913946041837335">
        <ele>307.75999999999999</ele>
        <time>2025-04-26T10:58:26Z</time>
      </trkpt>
      <trkpt lat="43.121928982436657" lon="0.913662984967232">
        <ele>307.75999999999999</ele>
        <time>2025-04-26T10:58:29Z</time>
      </trkpt>
      <trkpt lat="43.121886989101768" lon="0.913568018004298">
        <ele>308.24000000000001</ele>
        <time>2025-04-26T10:58:30Z</time>
      </trkpt>
      <trkpt lat="43.121844995766878" lon="0.913472967222333">
        <ele>308.24000000000001</ele>
        <time>2025-04-26T10:58:31Z</time>
      </trkpt>
      <trkpt lat="43.121779030188918" lon="0.913279009982944">
        <ele>309.19999999999999</ele>
        <time>2025-04-26T10:58:33Z</time>
      </trkpt>
      <trkpt lat="43.12176302075386" lon="0.913167027756572">
        <ele>309.68000000000001</ele>
        <time>2025-04-26T10:58:34Z</time>
      </trkpt>
      <trkpt lat="43.121746005490422" lon="0.913055967539549">
        <ele>310.16000000000003</ele>
        <time>2025-04-26T10:58:35Z</time>
      </trkpt>
      <trkpt lat="43.121681967750192" lon="0.912616001442075">
        <ele>312.56999999999999</ele>
        <time>2025-04-26T10:58:40Z</time>
      </trkpt>
      <trkpt lat="43.121681967750192" lon="0.912421960383654">
        <ele>313.52999999999997</ele>
        <time>2025-04-26T10:58:42Z</time>
      </trkpt>
      <trkpt lat="43.121681967750192" lon="0.91232598759234">
        <ele>314.00999999999999</ele>
        <time>2025-04-26T10:58:43Z</time>
      </trkpt>
      <trkpt lat="43.121681967750192" lon="0.912224985659122">
        <ele>314.00999999999999</ele>
        <time>2025-04-26T10:58:44Z</time>
      </trkpt>
      <trkpt lat="43.121681967750192" lon="0.912119038403034">
        <ele>314.00999999999999</ele>
        <time>2025-04-26T10:58:45Z</time>
      </trkpt>
      <trkpt lat="43.121681967750192" lon="0.912009989842772">
        <ele>314.49000000000001</ele>
        <time>2025-04-26T10:58:46Z</time>
      </trkpt>
      <trkpt lat="43.121681967750192" lon="0.911907982081175">
        <ele>314.97000000000003</ele>
        <time>2025-04-26T10:58:47Z</time>
      </trkpt>
      <trkpt lat="43.121681967750192" lon="0.911391992121935">
        <ele>316.88999999999999</ele>
        <time>2025-04-26T10:58:52Z</time>
      </trkpt>
      <trkpt lat="43.121642991900444" lon="0.911193005740643">
        <ele>317.37</ele>
        <time>2025-04-26T10:58:54Z</time>
      </trkpt>
      <trkpt lat="43.121617008000612" lon="0.911093009635806">
        <ele>317.37</ele>
        <time>2025-04-26T10:58:55Z</time>
      </trkpt>
      <trkpt lat="43.121148962527514" lon="0.909775039181113">
        <ele>314.49000000000001</ele>
        <time>2025-04-26T10:59:08Z</time>
      </trkpt>
      <trkpt lat="43.121017031371593" lon="0.909378994256258">
        <ele>314.97000000000003</ele>
        <time>2025-04-26T10:59:11Z</time>
      </trkpt>
      <trkpt lat="43.120428035035729" lon="0.907617034390569">
        <ele>316.41000000000003</ele>
        <time>2025-04-26T10:59:23Z</time>
      </trkpt>
      <trkpt lat="43.119916990399361" lon="0.906137963756919">
        <ele>314.00999999999999</ele>
        <time>2025-04-26T10:59:31Z</time>
      </trkpt>
      <trkpt lat="43.119374010711908" lon="0.90407500974834">
        <ele>314.97000000000003</ele>
        <time>2025-04-26T10:59:39Z</time>
      </trkpt>
      <trkpt lat="43.119048960506916" lon="0.902712028473616">
        <ele>317.85000000000002</ele>
        <time>2025-04-26T10:59:44Z</time>
      </trkpt>
      <trkpt lat="43.118246980011463" lon="0.900194020941854">
        <ele>320.74000000000001</ele>
        <time>2025-04-26T10:59:54Z</time>
      </trkpt>
      <trkpt lat="43.118145978078246" lon="0.899924961850047">
        <ele>321.69999999999999</ele>
        <time>2025-04-26T10:59:55Z</time>
      </trkpt>
      <trkpt lat="43.117494033649564" lon="0.898152021691203">
        <ele>323.62</ele>
        <time>2025-04-26T11:00:02Z</time>
      </trkpt>
      <trkpt lat="43.11658401042223" lon="0.895524965599179">
        <ele>321.22000000000003</ele>
        <time>2025-04-26T11:00:12Z</time>
      </trkpt>
      <trkpt lat="43.115414986386895" lon="0.892119985073805">
        <ele>321.22000000000003</ele>
        <time>2025-04-26T11:00:25Z</time>
      </trkpt>
      <trkpt lat="43.11518800444901" lon="0.891321022063494">
        <ele>321.69999999999999</ele>
        <time>2025-04-26T11:00:29Z</time>
      </trkpt>
      <trkpt lat="43.11516797170043" lon="0.891123041510582">
        <ele>321.22000000000003</ele>
        <time>2025-04-26T11:00:30Z</time>
      </trkpt>
      <trkpt lat="43.115149028599262" lon="0.890929000452161">
        <ele>321.22000000000003</ele>
        <time>2025-04-26T11:00:31Z</time>
      </trkpt>
      <trkpt lat="43.115143999457359" lon="0.890749963000417">
        <ele>321.22000000000003</ele>
        <time>2025-04-26T11:00:32Z</time>
      </trkpt>
      <trkpt lat="43.115163026377559" lon="0.89058299548924">
        <ele>321.69999999999999</ele>
        <time>2025-04-26T11:00:33Z</time>
      </trkpt>
      <trkpt lat="43.115180041640997" lon="0.890430025756359">
        <ele>321.69999999999999</ele>
        <time>2025-04-26T11:00:34Z</time>
      </trkpt>
      <trkpt lat="43.115237038582563" lon="0.890327012166381">
        <ele>321.69999999999999</ele>
        <time>2025-04-26T11:00:35Z</time>
      </trkpt>
      <trkpt lat="43.115286994725466" lon="0.890172030776739">
        <ele>322.18000000000001</ele>
        <time>2025-04-26T11:00:36Z</time>
      </trkpt>
      <trkpt lat="43.115286994725466" lon="0.89004697278142">
        <ele>322.18000000000001</ele>
        <time>2025-04-26T11:00:37Z</time>
      </trkpt>
      <trkpt lat="43.115209965035319" lon="0.88991797529161">
        <ele>322.18000000000001</ele>
        <time>2025-04-26T11:00:38Z</time>
      </trkpt>
      <trkpt lat="43.115159003064036" lon="0.889849998056889">
        <ele>322.66000000000003</ele>
        <time>2025-04-26T11:00:39Z</time>
      </trkpt>
      <trkpt lat="43.115040985867381" lon="0.889829965308309">
        <ele>322.18000000000001</ele>
        <time>2025-04-26T11:00:40Z</time>
      </trkpt>
      <trkpt lat="43.115030005574226" lon="0.889828037470579">
        <ele>321.69999999999999</ele>
        <time>2025-04-26T11:00:41Z</time>
      </trkpt>
      <trkpt lat="43.114795982837677" lon="0.889826025813818">
        <ele>321.69999999999999</ele>
        <time>2025-04-26T11:00:42Z</time>
      </trkpt>
      <trkpt lat="43.114701015874743" lon="0.889725023880601">
        <ele>321.69999999999999</ele>
        <time>2025-04-26T11:00:43Z</time>
      </trkpt>
      <trkpt lat="43.114590039476752" lon="0.889607006683946">
        <ele>321.22000000000003</ele>
        <time>2025-04-26T11:00:44Z</time>
      </trkpt>
      <trkpt lat="43.114470010623336" lon="0.889470968395472">
        <ele>321.22000000000003</ele>
        <time>2025-04-26T11:00:45Z</time>
      </trkpt>
      <trkpt lat="43.114357022568583" lon="0.889305006712675">
        <ele>320.25999999999999</ele>
        <time>2025-04-26T11:00:46Z</time>
      </trkpt>
      <trkpt lat="43.114245040342212" lon="0.889124041423202">
        <ele>320.25999999999999</ele>
        <time>2025-04-26T11:00:47Z</time>
      </trkpt>
      <trkpt lat="43.11413599178195" lon="0.88893000036478">
        <ele>319.77999999999997</ele>
        <time>2025-04-26T11:00:48Z</time>
      </trkpt>
      <trkpt lat="43.114056028425694" lon="0.888702012598515">
        <ele>319.30000000000001</ele>
        <time>2025-04-26T11:00:49Z</time>
      </trkpt>
      <trkpt lat="43.113149022683501" lon="0.886165983974934">
        <ele>318.32999999999998</ele>
        <time>2025-04-26T11:00:59Z</time>
      </trkpt>
      <trkpt lat="43.111936999484897" lon="0.882637035101652">
        <ele>320.25999999999999</ele>
        <time>2025-04-26T11:01:12Z</time>
      </trkpt>
      <trkpt lat="43.110830001533031" lon="0.879401033744216">
        <ele>319.30000000000001</ele>
        <time>2025-04-26T11:01:24Z</time>
      </trkpt>
      <trkpt lat="43.109696013852954" lon="0.876151034608483">
        <ele>318.81</ele>
        <time>2025-04-26T11:01:37Z</time>
      </trkpt>
      <trkpt lat="43.109314972534776" lon="0.874541960656643">
        <ele>320.74000000000001</ele>
        <time>2025-04-26T11:01:44Z</time>
      </trkpt>
      <trkpt lat="43.109300974756479" lon="0.874038962647319">
        <ele>321.69999999999999</ele>
        <time>2025-04-26T11:01:47Z</time>
      </trkpt>
      <trkpt lat="43.109432989731431" lon="0.872967001050711">
        <ele>323.62</ele>
        <time>2025-04-26T11:01:56Z</time>
      </trkpt>
      <trkpt lat="43.109530974179506" lon="0.872387979179621">
        <ele>324.57999999999998</ele>
        <time>2025-04-26T11:02:02Z</time>
      </trkpt>
      <trkpt lat="43.109548995271325" lon="0.87227800861001">
        <ele>324.57999999999998</ele>
        <time>2025-04-26T11:02:03Z</time>
      </trkpt>
      <trkpt lat="43.109565004706383" lon="0.87217197753489">
        <ele>324.57999999999998</ele>
        <time>2025-04-26T11:02:04Z</time>
      </trkpt>
      <trkpt lat="43.109750999137759" lon="0.870874961838126">
        <ele>324.57999999999998</ele>
        <time>2025-04-26T11:02:14Z</time>
      </trkpt>
      <trkpt lat="43.110059034079313" lon="0.868791975080967">
        <ele>325.54000000000002</ele>
        <time>2025-04-26T11:02:27Z</time>
      </trkpt>
      <trkpt lat="43.110247040167451" lon="0.867488002404571">
        <ele>325.54000000000002</ele>
        <time>2025-04-26T11:02:37Z</time>
      </trkpt>
      <trkpt lat="43.110317029058933" lon="0.866944016888738">
        <ele>326.01999999999998</ele>
        <time>2025-04-26T11:02:43Z</time>
      </trkpt>
      <trkpt lat="43.110336977988482" lon="0.866751987487078">
        <ele>326.5</ele>
        <time>2025-04-26T11:02:45Z</time>
      </trkpt>
      <trkpt lat="43.1103549990803" lon="0.866660038009286">
        <ele>326.99000000000001</ele>
        <time>2025-04-26T11:02:46Z</time>
      </trkpt>
      <trkpt lat="43.11037503182888" lon="0.866558030247688">
        <ele>327.47000000000003</ele>
        <time>2025-04-26T11:02:47Z</time>
      </trkpt>
      <trkpt lat="43.110543005168438" lon="0.865288004279137">
        <ele>330.82999999999998</ele>
        <time>2025-04-26T11:02:57Z</time>
      </trkpt>
      <trkpt lat="43.110799994319677" lon="0.863509029150009">
        <ele>332.26999999999998</ele>
        <time>2025-04-26T11:03:07Z</time>
      </trkpt>
      <trkpt lat="43.11112898401916" lon="0.861243987455964">
        <ele>333.23000000000002</ele>
        <time>2025-04-26T11:03:16Z</time>
      </trkpt>
      <trkpt lat="43.111565010622144" lon="0.858127009123564">
        <ele>334.19999999999999</ele>
        <time>2025-04-26T11:03:27Z</time>
      </trkpt>
      <trkpt lat="43.112063985317945" lon="0.854572998359799">
        <ele>338.51999999999998</ele>
        <time>2025-04-26T11:03:40Z</time>
      </trkpt>
      <trkpt lat="43.112404961138964" lon="0.852058008313179">
        <ele>347.17000000000002</ele>
        <time>2025-04-26T11:03:49Z</time>
      </trkpt>
      <trkpt lat="43.112977026030421" lon="0.848050033673644">
        <ele>359.67000000000002</ele>
        <time>2025-04-26T11:04:03Z</time>
      </trkpt>
      <trkpt lat="43.112991023808718" lon="0.845420965924859">
        <ele>366.88</ele>
        <time>2025-04-26T11:04:12Z</time>
      </trkpt>
      <trkpt lat="43.112991023808718" lon="0.841240994632244">
        <ele>369.75999999999999</ele>
        <time>2025-04-26T11:04:27Z</time>
      </trkpt>
      <trkpt lat="43.112991023808718" lon="0.837248023599386">
        <ele>369.75999999999999</ele>
        <time>2025-04-26T11:04:42Z</time>
      </trkpt>
      <trkpt lat="43.113012984395027" lon="0.834150994196534">
        <ele>370.73000000000002</ele>
        <time>2025-04-26T11:04:54Z</time>
      </trkpt>
      <trkpt lat="43.112955987453461" lon="0.830198004841805">
        <ele>369.75999999999999</ele>
        <time>2025-04-26T11:05:09Z</time>
      </trkpt>
      <trkpt lat="43.112948024645448" lon="0.826605018228292">
        <ele>370.73000000000002</ele>
        <time>2025-04-26T11:05:22Z</time>
      </trkpt>
      <trkpt lat="43.112918017432094" lon="0.821070028468966">
        <ele>371.20999999999998</ele>
        <time>2025-04-26T11:05:42Z</time>
      </trkpt>
      <trkpt lat="43.112906031310558" lon="0.816917968913913">
        <ele>373.13</ele>
        <time>2025-04-26T11:05:57Z</time>
      </trkpt>
      <trkpt lat="43.112930003553629" lon="0.813940968364477">
        <ele>372.64999999999998</ele>
        <time>2025-04-26T11:06:09Z</time>
      </trkpt>
      <trkpt lat="43.112946012988687" lon="0.813411986455321">
        <ele>372.17000000000002</ele>
        <time>2025-04-26T11:06:12Z</time>
      </trkpt>
      <trkpt lat="43.112948024645448" lon="0.813309978693724">
        <ele>372.17000000000002</ele>
        <time>2025-04-26T11:06:13Z</time>
      </trkpt>
      <trkpt lat="43.113055983558297" lon="0.813170000910759">
        <ele>372.64999999999998</ele>
        <time>2025-04-26T11:06:14Z</time>
      </trkpt>
      <trkpt lat="43.113059001043439" lon="0.812991969287395">
        <ele>372.17000000000002</ele>
        <time>2025-04-26T11:06:15Z</time>
      </trkpt>
      <trkpt lat="43.112948024645448" lon="0.812860038131475">
        <ele>372.17000000000002</ele>
        <time>2025-04-26T11:06:16Z</time>
      </trkpt>
      <trkpt lat="43.112938972190022" lon="0.812705978751183">
        <ele>372.17000000000002</ele>
        <time>2025-04-26T11:06:17Z</time>
      </trkpt>
      <trkpt lat="43.112927991896868" lon="0.81252702511847">
        <ele>372.17000000000002</ele>
        <time>2025-04-26T11:06:18Z</time>
      </trkpt>
      <trkpt lat="43.112917011603713" lon="0.812331978231668">
        <ele>372.17000000000002</ele>
        <time>2025-04-26T11:06:19Z</time>
      </trkpt>
      <trkpt lat="43.112883986905217" lon="0.8103789947927">
        <ele>373.13</ele>
        <time>2025-04-26T11:06:27Z</time>
      </trkpt>
      <trkpt lat="43.112883986905217" lon="0.807759985327721">
        <ele>374.56999999999999</ele>
        <time>2025-04-26T11:06:36Z</time>
      </trkpt>
      <trkpt lat="43.112863032147288" lon="0.802938966080546">
        <ele>374.56999999999999</ele>
        <time>2025-04-26T11:06:53Z</time>
      </trkpt>
      <trkpt lat="43.112840987741947" lon="0.799083961173892">
        <ele>376.97000000000003</ele>
        <time>2025-04-26T11:07:07Z</time>
      </trkpt>
      <trkpt lat="43.112840987741947" lon="0.794150959700346">
        <ele>378.42000000000002</ele>
        <time>2025-04-26T11:07:24Z</time>
      </trkpt>
      <trkpt lat="43.112821038812399" lon="0.791504038497806">
        <ele>378.89999999999998</ele>
        <time>2025-04-26T11:07:34Z</time>
      </trkpt>
      <trkpt lat="43.112820032984018" lon="0.788307012990117">
        <ele>379.38</ele>
        <time>2025-04-26T11:07:47Z</time>
      </trkpt>
      <trkpt lat="43.112801006063819" lon="0.785785987973213">
        <ele>379.86000000000001</ele>
        <time>2025-04-26T11:07:58Z</time>
      </trkpt>
      <trkpt lat="43.112848028540611" lon="0.783898970112205">
        <ele>380.81999999999999</ele>
        <time>2025-04-26T11:08:07Z</time>
      </trkpt>
      <trkpt lat="43.112883986905217" lon="0.783422039821744">
        <ele>380.33999999999997</ele>
        <time>2025-04-26T11:08:10Z</time>
      </trkpt>
      <trkpt lat="43.113010972738266" lon="0.783177958801389">
        <ele>380.33999999999997</ele>
        <time>2025-04-26T11:08:12Z</time>
      </trkpt>
      <trkpt lat="43.112970991060138" lon="0.783017026260495">
        <ele>380.81999999999999</ele>
        <time>2025-04-26T11:08:13Z</time>
      </trkpt>
      <trkpt lat="43.112894967198372" lon="0.782900014892221">
        <ele>380.81999999999999</ele>
        <time>2025-04-26T11:08:14Z</time>
      </trkpt>
      <trkpt lat="43.112797988578677" lon="0.78150300309062">
        <ele>381.30000000000001</ele>
        <time>2025-04-26T11:08:22Z</time>
      </trkpt>
      <trkpt lat="43.112788014113903" lon="0.77961296774447">
        <ele>382.25999999999999</ele>
        <time>2025-04-26T11:08:30Z</time>
      </trkpt>
      <trkpt lat="43.112755995243788" lon="0.775988968089223">
        <ele>381.30000000000001</ele>
        <time>2025-04-26T11:08:44Z</time>
      </trkpt>
      <trkpt lat="43.112754989415407" lon="0.772819016128778">
        <ele>384.18000000000001</ele>
        <time>2025-04-26T11:08:56Z</time>
      </trkpt>
      <trkpt lat="43.112734034657478" lon="0.770725971087813">
        <ele>386.11000000000001</ele>
        <time>2025-04-26T11:09:06Z</time>
      </trkpt>
      <trkpt lat="43.112752977758646" lon="0.769314039498568">
        <ele>386.58999999999997</ele>
        <time>2025-04-26T11:09:15Z</time>
      </trkpt>
      <trkpt lat="43.112754989415407" lon="0.769189987331629">
        <ele>386.58999999999997</ele>
        <time>2025-04-26T11:09:16Z</time>
      </trkpt>
      <trkpt lat="43.112861020490527" lon="0.768966022878885">
        <ele>386.58999999999997</ele>
        <time>2025-04-26T11:09:18Z</time>
      </trkpt>
      <trkpt lat="43.112840987741947" lon="0.76887097209692">
        <ele>386.58999999999997</ele>
        <time>2025-04-26T11:09:19Z</time>
      </trkpt>
      <trkpt lat="43.112754989415407" lon="0.768672991544008">
        <ele>386.58999999999997</ele>
        <time>2025-04-26T11:09:20Z</time>
      </trkpt>
      <trkpt lat="43.112754989415407" lon="0.768523039296269">
        <ele>386.58999999999997</ele>
        <time>2025-04-26T11:09:21Z</time>
      </trkpt>
      <trkpt lat="43.112754989415407" lon="0.768357999622822">
        <ele>386.58999999999997</ele>
        <time>2025-04-26T11:09:22Z</time>
      </trkpt>
      <trkpt lat="43.112748032435775" lon="0.768178962171078">
        <ele>386.11000000000001</ele>
        <time>2025-04-26T11:09:23Z</time>
      </trkpt>
      <trkpt lat="43.112734034657478" lon="0.766447009518743">
        <ele>384.66000000000003</ele>
        <time>2025-04-26T11:09:31Z</time>
      </trkpt>
      <trkpt lat="43.112718025222421" lon="0.763496998697519">
        <ele>385.14999999999998</ele>
        <time>2025-04-26T11:09:42Z</time>
      </trkpt>
      <trkpt lat="43.112711990252137" lon="0.762970028445125">
        <ele>385.14999999999998</ele>
        <time>2025-04-26T11:09:44Z</time>
      </trkpt>
      <trkpt lat="43.112711990252137" lon="0.760401980951428">
        <ele>388.50999999999999</ele>
        <time>2025-04-26T11:09:54Z</time>
      </trkpt>
      <trkpt lat="43.112745014950633" lon="0.759756993502378">
        <ele>389.47000000000003</ele>
        <time>2025-04-26T11:09:57Z</time>
      </trkpt>
      <trkpt lat="43.112779967486858" lon="0.759553983807564">
        <ele>389.47000000000003</ele>
        <time>2025-04-26T11:09:58Z</time>
      </trkpt>
      <trkpt lat="43.11282598413527" lon="0.759360026568174">
        <ele>389.47000000000003</ele>
        <time>2025-04-26T11:09:59Z</time>
      </trkpt>
      <trkpt lat="43.112879963591695" lon="0.759186018258333">
        <ele>389.94999999999999</ele>
        <time>2025-04-26T11:10:00Z</time>
      </trkpt>
      <trkpt lat="43.112960010766983" lon="0.759025001898408">
        <ele>390.43000000000001</ele>
        <time>2025-04-26T11:10:01Z</time>
      </trkpt>
      <trkpt lat="43.113046009093523" lon="0.758859040215611">
        <ele>390.43000000000001</ele>
        <time>2025-04-26T11:10:02Z</time>
      </trkpt>
      <trkpt lat="43.113209959119558" lon="0.758527033030987">
        <ele>390.43000000000001</ele>
        <time>2025-04-26T11:10:04Z</time>
      </trkpt>
      <trkpt lat="43.113272991031408" lon="0.758365010842681">
        <ele>390.43000000000001</ele>
        <time>2025-04-26T11:10:05Z</time>
      </trkpt>
      <trkpt lat="43.113382961601019" lon="0.758079020306468">
        <ele>390.91000000000003</ele>
        <time>2025-04-26T11:10:07Z</time>
      </trkpt>
      <trkpt lat="43.113431995734572" lon="0.7579530403018">
        <ele>390.91000000000003</ele>
        <time>2025-04-26T11:10:08Z</time>
      </trkpt>
      <trkpt lat="43.113522017374635" lon="0.75789101421833">
        <ele>391.38999999999999</ele>
        <time>2025-04-26T11:10:09Z</time>
      </trkpt>
      <trkpt lat="43.113595023751259" lon="0.757818007841706">
        <ele>391.38999999999999</ele>
        <time>2025-04-26T11:10:10Z</time>
      </trkpt>
      <trkpt lat="43.113669035956264" lon="0.757732009515166">
        <ele>391.87</ele>
        <time>2025-04-26T11:10:11Z</time>
      </trkpt>
      <trkpt lat="43.113698959350586" lon="0.757587002590299">
        <ele>391.87</ele>
        <time>2025-04-26T11:10:12Z</time>
      </trkpt>
      <trkpt lat="43.113698959350586" lon="0.757498992606997">
        <ele>391.87</ele>
        <time>2025-04-26T11:10:13Z</time>
      </trkpt>
      <trkpt lat="43.113635005429387" lon="0.757349040359259">
        <ele>391.87</ele>
        <time>2025-04-26T11:10:14Z</time>
      </trkpt>
      <trkpt lat="43.113526040688157" lon="0.757258012890816">
        <ele>391.87</ele>
        <time>2025-04-26T11:10:15Z</time>
      </trkpt>
      <trkpt lat="43.113480024039745" lon="0.757127003744245">
        <ele>391.87</ele>
        <time>2025-04-26T11:10:16Z</time>
      </trkpt>
      <trkpt lat="43.113429984077811" lon="0.756985014304519">
        <ele>391.87</ele>
        <time>2025-04-26T11:10:17Z</time>
      </trkpt>
      <trkpt lat="43.113378016278148" lon="0.756832966580987">
        <ele>392.36000000000001</ele>
        <time>2025-04-26T11:10:18Z</time>
      </trkpt>
      <trkpt lat="43.113339962437749" lon="0.756673039868474">
        <ele>392.36000000000001</ele>
        <time>2025-04-26T11:10:19Z</time>
      </trkpt>
      <trkpt lat="43.113246001303196" lon="0.75638797134161">
        <ele>392.36000000000001</ele>
        <time>2025-04-26T11:10:21Z</time>
      </trkpt>
      <trkpt lat="43.113174000754952" lon="0.7562589738518">
        <ele>392.36000000000001</ele>
        <time>2025-04-26T11:10:22Z</time>
      </trkpt>
      <trkpt lat="43.113098982721567" lon="0.756125031039119">
        <ele>392.36000000000001</ele>
        <time>2025-04-26T11:10:23Z</time>
      </trkpt>
      <trkpt lat="43.113022958859801" lon="0.756011959165335">
        <ele>392.36000000000001</ele>
        <time>2025-04-26T11:10:24Z</time>
      </trkpt>
      <trkpt lat="43.112942995503545" lon="0.75589201413095">
        <ele>392.36000000000001</ele>
        <time>2025-04-26T11:10:25Z</time>
      </trkpt>
      <trkpt lat="43.112863032147288" lon="0.755770979449153">
        <ele>392.36000000000001</ele>
        <time>2025-04-26T11:10:26Z</time>
      </trkpt>
      <trkpt lat="43.112786002457142" lon="0.755635024979711">
        <ele>392.36000000000001</ele>
        <time>2025-04-26T11:10:27Z</time>
      </trkpt>
      <trkpt lat="43.112740991637111" lon="0.755483983084559">
        <ele>392.36000000000001</ele>
        <time>2025-04-26T11:10:28Z</time>
      </trkpt>
      <trkpt lat="43.112703021615744" lon="0.755321038886905">
        <ele>392.36000000000001</ele>
        <time>2025-04-26T11:10:29Z</time>
      </trkpt>
      <trkpt lat="43.112690029665828" lon="0.755147030577064">
        <ele>392.36000000000001</ele>
        <time>2025-04-26T11:10:30Z</time>
      </trkpt>
      <trkpt lat="43.112689023837447" lon="0.754976039752364">
        <ele>392.83999999999997</ele>
        <time>2025-04-26T11:10:31Z</time>
      </trkpt>
      <trkpt lat="43.11267402023077" lon="0.753018027171493">
        <ele>395.24000000000001</ele>
        <time>2025-04-26T11:10:43Z</time>
      </trkpt>
      <trkpt lat="43.112668991088867" lon="0.750571014359593">
        <ele>397.63999999999999</ele>
        <time>2025-04-26T11:10:58Z</time>
      </trkpt>
      <trkpt lat="43.112648036330938" lon="0.748636974021792">
        <ele>397.63999999999999</ele>
        <time>2025-04-26T11:11:10Z</time>
      </trkpt>
      <trkpt lat="43.112369002774358" lon="0.746554993093014">
        <ele>399.56999999999999</ele>
        <time>2025-04-26T11:11:23Z</time>
      </trkpt>
      <trkpt lat="43.112061973661184" lon="0.744817005470395">
        <ele>401.49000000000001</ele>
        <time>2025-04-26T11:11:34Z</time>
      </trkpt>
      <trkpt lat="43.111603986471891" lon="0.742120966315269">
        <ele>400.52999999999997</ele>
        <time>2025-04-26T11:11:51Z</time>
      </trkpt>
      <trkpt lat="43.111308021470904" lon="0.74040099978447">
        <ele>401.00999999999999</ele>
        <time>2025-04-26T11:12:03Z</time>
      </trkpt>
      <trkpt lat="43.111267033964396" lon="0.740160020068288">
        <ele>401.00999999999999</ele>
        <time>2025-04-26T11:12:08Z</time>
      </trkpt>
      <trkpt lat="43.111267033964396" lon="0.740160020068288">
        <ele>401.00999999999999</ele>
        <time>2025-04-26T11:12:20Z</time>
      </trkpt>
      <trkpt lat="43.111209031194448" lon="0.739812003448606">
        <ele>401.97000000000003</ele>
        <time>2025-04-26T11:12:47Z</time>
      </trkpt>
      <trkpt lat="43.110968973487616" lon="0.738497972488403">
        <ele>402.44999999999999</ele>
        <time>2025-04-26T11:12:57Z</time>
      </trkpt>
      <trkpt lat="43.110659010708332" lon="0.736629981547594">
        <ele>402.93000000000001</ele>
        <time>2025-04-26T11:13:09Z</time>
      </trkpt>
      <trkpt lat="43.110429011285305" lon="0.735234981402755">
        <ele>402.93000000000001</ele>
        <time>2025-04-26T11:13:19Z</time>
      </trkpt>
      <trkpt lat="43.110242011025548" lon="0.73412898927927">
        <ele>404.37</ele>
        <time>2025-04-26T11:13:30Z</time>
      </trkpt>
      <trkpt lat="43.110003964975476" lon="0.73277598246932">
        <ele>407.25999999999999</ele>
        <time>2025-04-26T11:13:43Z</time>
      </trkpt>
      <trkpt lat="43.109956020489335" lon="0.732492003589869">
        <ele>407.25999999999999</ele>
        <time>2025-04-26T11:13:46Z</time>
      </trkpt>
      <trkpt lat="43.109826017171144" lon="0.731724975630641">
        <ele>407.74000000000001</ele>
        <time>2025-04-26T11:13:53Z</time>
      </trkpt>
      <trkpt lat="43.10971001163125" lon="0.731036989018321">
        <ele>409.18000000000001</ele>
        <time>2025-04-26T11:14:00Z</time>
      </trkpt>
      <trkpt lat="43.109678998589516" lon="0.730853006243706">
        <ele>409.18000000000001</ele>
        <time>2025-04-26T11:14:02Z</time>
      </trkpt>
      <trkpt lat="43.10966701246798" lon="0.730783017352223">
        <ele>408.69999999999999</ele>
        <time>2025-04-26T11:14:03Z</time>
      </trkpt>
      <trkpt lat="43.109505996108055" lon="0.729838963598013">
        <ele>402.93000000000001</ele>
        <time>2025-04-26T11:14:12Z</time>
      </trkpt>
      <trkpt lat="43.109472971409559" lon="0.729641988873482">
        <ele>402.44999999999999</ele>
        <time>2025-04-26T11:14:14Z</time>
      </trkpt>
      <trkpt lat="43.109455034136772" lon="0.729536963626742">
        <ele>402.44999999999999</ele>
        <time>2025-04-26T11:14:15Z</time>
      </trkpt>
      <trkpt lat="43.109437013044953" lon="0.729430010542274">
        <ele>401.97000000000003</ele>
        <time>2025-04-26T11:14:16Z</time>
      </trkpt>
      <trkpt lat="43.109418991953135" lon="0.729325991123915">
        <ele>402.44999999999999</ele>
        <time>2025-04-26T11:14:17Z</time>
      </trkpt>
      <trkpt lat="43.109404994174838" lon="0.729225995019078">
        <ele>402.44999999999999</ele>
        <time>2025-04-26T11:14:18Z</time>
      </trkpt>
      <trkpt lat="43.109390996396542" lon="0.729074031114578">
        <ele>402.93000000000001</ele>
        <time>2025-04-26T11:14:20Z</time>
      </trkpt>
      <trkpt lat="43.109375992789865" lon="0.728905973955989">
        <ele>403.88999999999999</ele>
        <time>2025-04-26T11:14:22Z</time>
      </trkpt>
      <trkpt lat="43.109368029981852" lon="0.728823998942971">
        <ele>404.37</ele>
        <time>2025-04-26T11:14:23Z</time>
      </trkpt>
      <trkpt lat="43.109471965581179" lon="0.728745041415095">
        <ele>404.85000000000002</ele>
        <time>2025-04-26T11:14:24Z</time>
      </trkpt>
      <trkpt lat="43.109486969187856" lon="0.728722997009754">
        <ele>404.85000000000002</ele>
        <time>2025-04-26T11:14:25Z</time>
      </trkpt>
      <trkpt lat="43.109527034685016" lon="0.728662982583046">
        <ele>405.32999999999998</ele>
        <time>2025-04-26T11:14:26Z</time>
      </trkpt>
      <trkpt lat="43.109566010534763" lon="0.72856298647821">
        <ele>405.81</ele>
        <time>2025-04-26T11:14:27Z</time>
      </trkpt>
      <trkpt lat="43.109575984999537" lon="0.728487968444824">
        <ele>406.29000000000002</ele>
        <time>2025-04-26T11:14:28Z</time>
      </trkpt>
      <trkpt lat="43.109512031078339" lon="0.728388978168368">
        <ele>406.29000000000002</ele>
        <time>2025-04-26T11:14:29Z</time>
      </trkpt>
      <trkpt lat="43.109465008601546" lon="0.728334998711944">
        <ele>406.76999999999998</ele>
        <time>2025-04-26T11:14:30Z</time>
      </trkpt>
      <trkpt lat="43.109428966417909" lon="0.728295017033815">
        <ele>407.25999999999999</ele>
        <time>2025-04-26T11:14:31Z</time>
      </trkpt>
      <trkpt lat="43.109374986961484" lon="0.728322006762028">
        <ele>407.74000000000001</ele>
        <time>2025-04-26T11:14:32Z</time>
      </trkpt>
      <trkpt lat="43.109243977814913" lon="0.728293005377054">
        <ele>408.22000000000003</ele>
        <time>2025-04-26T11:14:33Z</time>
      </trkpt>
      <trkpt lat="43.109171977266669" lon="0.728209018707275">
        <ele>409.18000000000001</ele>
        <time>2025-04-26T11:14:35Z</time>
      </trkpt>
      <trkpt lat="43.109122021123767" lon="0.728124026209116">
        <ele>409.66000000000003</ele>
        <time>2025-04-26T11:14:36Z</time>
      </trkpt>
      <trkpt lat="43.10908799059689" lon="0.728065017610788">
        <ele>410.13999999999999</ele>
        <time>2025-04-26T11:14:37Z</time>
      </trkpt>
      <trkpt lat="43.109011966735125" lon="0.727921016514301">
        <ele>411.57999999999998</ele>
        <time>2025-04-26T11:14:39Z</time>
      </trkpt>
      <trkpt lat="43.108983971178532" lon="0.727834012359381">
        <ele>412.06</ele>
        <time>2025-04-26T11:14:40Z</time>
      </trkpt>
      <trkpt lat="43.108823038637638" lon="0.727268988266587">
        <ele>413.98000000000002</ele>
        <time>2025-04-26T11:14:46Z</time>
      </trkpt>
      <trkpt lat="43.108802000060678" lon="0.727177038788795">
        <ele>414.47000000000003</ele>
        <time>2025-04-26T11:14:47Z</time>
      </trkpt>
      <trkpt lat="43.10874299146235" lon="0.726921977475286">
        <ele>415.43000000000001</ele>
        <time>2025-04-26T11:14:51Z</time>
      </trkpt>
      <trkpt lat="43.10874299146235" lon="0.726921977475286">
        <ele>415.43000000000001</ele>
        <time>2025-04-26T11:14:52Z</time>
      </trkpt>
      <trkpt lat="43.108798982575536" lon="0.726876966655254">
        <ele>415.43000000000001</ele>
        <time>2025-04-26T11:14:53Z</time>
      </trkpt>
      <trkpt lat="43.108826978132129" lon="0.726831033825874">
        <ele>415.91000000000003</ele>
        <time>2025-04-26T11:14:54Z</time>
      </trkpt>
      <trkpt lat="43.10885002836585" lon="0.726792979985476">
        <ele>415.91000000000003</ele>
        <time>2025-04-26T11:14:55Z</time>
      </trkpt>
      <trkpt lat="43.108874000608921" lon="0.726769007742405">
        <ele>416.38999999999999</ele>
        <time>2025-04-26T11:14:56Z</time>
      </trkpt>
      <trkpt lat="43.108912976458669" lon="0.726730031892657">
        <ele>416.87</ele>
        <time>2025-04-26T11:14:57Z</time>
      </trkpt>
      <trkpt lat="43.108953963965178" lon="0.726688038557768">
        <ele>417.35000000000002</ele>
        <time>2025-04-26T11:14:58Z</time>
      </trkpt>
      <trkpt lat="43.108993023633957" lon="0.726599022746086">
        <ele>417.82999999999998</ele>
        <time>2025-04-26T11:14:59Z</time>
      </trkpt>
      <trkpt lat="43.1090650241822" lon="0.726428031921387">
        <ele>418.79000000000002</ele>
        <time>2025-04-26T11:15:02Z</time>
      </trkpt>
      <trkpt lat="43.109073992818594" lon="0.726361982524395">
        <ele>418.79000000000002</ele>
        <time>2025-04-26T11:15:03Z</time>
      </trkpt>
      <trkpt lat="43.109081033617258" lon="0.726314038038254">
        <ele>418.79000000000002</ele>
        <time>2025-04-26T11:15:04Z</time>
      </trkpt>
      <trkpt lat="43.109088996425271" lon="0.726256035268307">
        <ele>418.79000000000002</ele>
        <time>2025-04-26T11:15:05Z</time>
      </trkpt>
      <trkpt lat="43.109099976718426" lon="0.726181017234921">
        <ele>419.26999999999998</ele>
        <time>2025-04-26T11:15:06Z</time>
      </trkpt>
      <trkpt lat="43.109111962839961" lon="0.726098036393523">
        <ele>419.26999999999998</ele>
        <time>2025-04-26T11:15:07Z</time>
      </trkpt>
      <trkpt lat="43.10921598225832" lon="0.725529994815588">
        <ele>419.26999999999998</ele>
        <time>2025-04-26T11:15:13Z</time>
      </trkpt>
      <trkpt lat="43.109231991693377" lon="0.725424969568849">
        <ele>419.26999999999998</ele>
        <time>2025-04-26T11:15:14Z</time>
      </trkpt>
      <trkpt lat="43.109273985028267" lon="0.72510696016252">
        <ele>419.75</ele>
        <time>2025-04-26T11:15:17Z</time>
      </trkpt>
      <trkpt lat="43.109285971149802" lon="0.725010987371206">
        <ele>419.75</ele>
        <time>2025-04-26T11:15:18Z</time>
      </trkpt>
      <trkpt lat="43.109298963099718" lon="0.724905040115118">
        <ele>419.75</ele>
        <time>2025-04-26T11:15:19Z</time>
      </trkpt>
      <trkpt lat="43.109314972534776" lon="0.724785011261702">
        <ele>419.26999999999998</ele>
        <time>2025-04-26T11:15:20Z</time>
      </trkpt>
      <trkpt lat="43.109329976141453" lon="0.724669005721807">
        <ele>419.26999999999998</ele>
        <time>2025-04-26T11:15:21Z</time>
      </trkpt>
      <trkpt lat="43.109343973919749" lon="0.724560962989926">
        <ele>418.79000000000002</ele>
        <time>2025-04-26T11:15:22Z</time>
      </trkpt>
      <trkpt lat="43.109335005283356" lon="0.724436994642019">
        <ele>418.31</ele>
        <time>2025-04-26T11:15:23Z</time>
      </trkpt>
      <trkpt lat="43.109326958656311" lon="0.724318977445364">
        <ele>417.82999999999998</ele>
        <time>2025-04-26T11:15:24Z</time>
      </trkpt>
      <trkpt lat="43.109309021383524" lon="0.724098030477762">
        <ele>417.35000000000002</ele>
        <time>2025-04-26T11:15:26Z</time>
      </trkpt>
      <trkpt lat="43.109281025826931" lon="0.723867025226355">
        <ele>415.91000000000003</ele>
        <time>2025-04-26T11:15:31Z</time>
      </trkpt>
      <trkpt lat="43.109246995300055" lon="0.723639959469438">
        <ele>416.38999999999999</ele>
        <time>2025-04-26T11:15:35Z</time>
      </trkpt>
      <trkpt lat="43.10904499143362" lon="0.722777964547277">
        <ele>417.35000000000002</ele>
        <time>2025-04-26T11:15:46Z</time>
      </trkpt>
      <trkpt lat="43.109026970341802" lon="0.722708981484175">
        <ele>417.82999999999998</ele>
        <time>2025-04-26T11:15:47Z</time>
      </trkpt>
      <trkpt lat="43.109008027240634" lon="0.722635975107551">
        <ele>417.82999999999998</ele>
        <time>2025-04-26T11:15:48Z</time>
      </trkpt>
      <trkpt lat="43.108733016997576" lon="0.721637019887567">
        <ele>418.31</ele>
        <time>2025-04-26T11:15:59Z</time>
      </trkpt>
      <trkpt lat="43.108511986210942" lon="0.720925983041525">
        <ele>418.31</ele>
        <time>2025-04-26T11:16:08Z</time>
      </trkpt>
      <trkpt lat="43.108469992876053" lon="0.720866974443197">
        <ele>418.79000000000002</ele>
        <time>2025-04-26T11:16:09Z</time>
      </trkpt>
      <trkpt lat="43.108437974005938" lon="0.720824981108308">
        <ele>418.79000000000002</ele>
        <time>2025-04-26T11:16:10Z</time>
      </trkpt>
      <trkpt lat="43.108379971235991" lon="0.720790028572083">
        <ele>418.79000000000002</ele>
        <time>2025-04-26T11:16:11Z</time>
      </trkpt>
      <trkpt lat="43.108334960415959" lon="0.72076303884387">
        <ele>419.26999999999998</ele>
        <time>2025-04-26T11:16:12Z</time>
      </trkpt>
      <trkpt lat="43.108273018151522" lon="0.720773013308644">
        <ele>419.75</ele>
        <time>2025-04-26T11:16:13Z</time>
      </trkpt>
      <trkpt lat="43.108202023431659" lon="0.720783993601799">
        <ele>419.75</ele>
        <time>2025-04-26T11:16:14Z</time>
      </trkpt>
      <trkpt lat="43.108128011226654" lon="0.720794973894954">
        <ele>420.23000000000002</ele>
        <time>2025-04-26T11:16:15Z</time>
      </trkpt>
      <trkpt lat="43.108053999021649" lon="0.72080603800714">
        <ele>420.70999999999998</ele>
        <time>2025-04-26T11:16:16Z</time>
      </trkpt>
      <trkpt lat="43.107976969331503" lon="0.720819029957056">
        <ele>420.70999999999998</ele>
        <time>2025-04-26T11:16:17Z</time>
      </trkpt>
      <trkpt lat="43.107477994635701" lon="0.720868986099958">
        <ele>419.26999999999998</ele>
        <time>2025-04-26T11:16:23Z</time>
      </trkpt>
      <trkpt lat="43.107383027672768" lon="0.720855994150043">
        <ele>419.26999999999998</ele>
        <time>2025-04-26T11:16:24Z</time>
      </trkpt>
      <trkpt lat="43.107275990769267" lon="0.720835039392114">
        <ele>418.79000000000002</ele>
        <time>2025-04-26T11:16:25Z</time>
      </trkpt>
      <trkpt lat="43.107173983007669" lon="0.720816012471914">
        <ele>418.79000000000002</ele>
        <time>2025-04-26T11:16:26Z</time>
      </trkpt>
      <trkpt lat="43.107116986066103" lon="0.720723979175091">
        <ele>418.79000000000002</ele>
        <time>2025-04-26T11:16:27Z</time>
      </trkpt>
      <trkpt lat="43.107093013823032" lon="0.720677962526679">
        <ele>418.31</ele>
        <time>2025-04-26T11:16:28Z</time>
      </trkpt>
      <trkpt lat="43.107062000781298" lon="0.720607973635197">
        <ele>418.31</ele>
        <time>2025-04-26T11:16:29Z</time>
      </trkpt>
      <trkpt lat="43.10702595859766" lon="0.72052700445056">
        <ele>417.35000000000002</ele>
        <time>2025-04-26T11:16:30Z</time>
      </trkpt>
      <trkpt lat="43.107043979689479" lon="0.720430025830865">
        <ele>417.35000000000002</ele>
        <time>2025-04-26T11:16:31Z</time>
      </trkpt>
      <trkpt lat="43.107064012438059" lon="0.720323994755745">
        <ele>416.87</ele>
        <time>2025-04-26T11:16:32Z</time>
      </trkpt>
      <trkpt lat="43.107083961367607" lon="0.720216035842896">
        <ele>416.87</ele>
        <time>2025-04-26T11:16:33Z</time>
      </trkpt>
      <trkpt lat="43.107102988287807" lon="0.720116039738059">
        <ele>416.87</ele>
        <time>2025-04-26T11:16:34Z</time>
      </trkpt>
      <trkpt lat="43.107139030471444" lon="0.719920992851257">
        <ele>416.38999999999999</ele>
        <time>2025-04-26T11:16:36Z</time>
      </trkpt>
      <trkpt lat="43.107329970225692" lon="0.718887001276016">
        <ele>414.94999999999999</ele>
        <time>2025-04-26T11:16:46Z</time>
      </trkpt>
      <trkpt lat="43.107369029894471" lon="0.718686003237963">
        <ele>414.47000000000003</ele>
        <time>2025-04-26T11:16:48Z</time>
      </trkpt>
      <trkpt lat="43.107388978824019" lon="0.718586007133126">
        <ele>414.47000000000003</ele>
        <time>2025-04-26T11:16:49Z</time>
      </trkpt>
      <trkpt lat="43.107667006552219" lon="0.717224031686783">
        <ele>410.62</ele>
        <time>2025-04-26T11:17:01Z</time>
      </trkpt>
      <trkpt lat="43.107823999598622" lon="0.716449962928891">
        <ele>410.62</ele>
        <time>2025-04-26T11:17:08Z</time>
      </trkpt>
      <trkpt lat="43.107884014025331" lon="0.716363964602351">
        <ele>410.13999999999999</ele>
        <time>2025-04-26T11:17:09Z</time>
      </trkpt>
      <trkpt lat="43.107922989875078" lon="0.716325994580984">
        <ele>409.66000000000003</ele>
        <time>2025-04-26T11:17:10Z</time>
      </trkpt>
      <trkpt lat="43.10790597461164" lon="0.716207977384329">
        <ele>409.66000000000003</ele>
        <time>2025-04-26T11:17:11Z</time>
      </trkpt>
      <trkpt lat="43.10790597461164" lon="0.716107981279492">
        <ele>409.66000000000003</ele>
        <time>2025-04-26T11:17:12Z</time>
      </trkpt>
      <trkpt lat="43.10790597461164" lon="0.716001028195024">
        <ele>410.13999999999999</ele>
        <time>2025-04-26T11:17:13Z</time>
      </trkpt>
      <trkpt lat="43.107909997925162" lon="0.715873036533594">
        <ele>410.62</ele>
        <time>2025-04-26T11:17:14Z</time>
      </trkpt>
      <trkpt lat="43.107933970168233" lon="0.715753007680178">
        <ele>411.10000000000002</ele>
        <time>2025-04-26T11:17:15Z</time>
      </trkpt>
      <trkpt lat="43.108235970139503" lon="0.714206965640187">
        <ele>412.06</ele>
        <time>2025-04-26T11:17:27Z</time>
      </trkpt>
      <trkpt lat="43.10861399397254" lon="0.712269991636276">
        <ele>411.57999999999998</ele>
        <time>2025-04-26T11:17:43Z</time>
      </trkpt>
      <trkpt lat="43.108718013390899" lon="0.711637996137142">
        <ele>411.10000000000002</ele>
        <time>2025-04-26T11:17:50Z</time>
      </trkpt>
      <trkpt lat="43.108736034482718" lon="0.711540011689067">
        <ele>411.10000000000002</ele>
        <time>2025-04-26T11:17:51Z</time>
      </trkpt>
      <trkpt lat="43.108754977583885" lon="0.711434986442328">
        <ele>410.62</ele>
        <time>2025-04-26T11:17:52Z</time>
      </trkpt>
      <trkpt lat="43.108954969793558" lon="0.710054989904165">
        <ele>409.18000000000001</ele>
        <time>2025-04-26T11:18:03Z</time>
      </trkpt>
      <trkpt lat="43.108999980613589" lon="0.709421988576651">
        <ele>409.66000000000003</ele>
        <time>2025-04-26T11:18:08Z</time>
      </trkpt>
      <trkpt lat="43.109085978940129" lon="0.709283016622067">
        <ele>409.66000000000003</ele>
        <time>2025-04-26T11:18:09Z</time>
      </trkpt>
      <trkpt lat="43.109119003638625" lon="0.709098028019071">
        <ele>409.66000000000003</ele>
        <time>2025-04-26T11:18:11Z</time>
      </trkpt>
      <trkpt lat="43.10910802334547" lon="0.709003983065486">
        <ele>409.66000000000003</ele>
        <time>2025-04-26T11:18:12Z</time>
      </trkpt>
      <trkpt lat="43.10904398560524" lon="0.708924019709229">
        <ele>409.66000000000003</ele>
        <time>2025-04-26T11:18:13Z</time>
      </trkpt>
      <trkpt lat="43.109034011140466" lon="0.708750011399388">
        <ele>409.66000000000003</ele>
        <time>2025-04-26T11:18:14Z</time>
      </trkpt>
      <trkpt lat="43.109045997262001" lon="0.708616990596056">
        <ele>409.66000000000003</ele>
        <time>2025-04-26T11:18:15Z</time>
      </trkpt>
      <trkpt lat="43.109058989211917" lon="0.708471983671188">
        <ele>409.18000000000001</ele>
        <time>2025-04-26T11:18:16Z</time>
      </trkpt>
      <trkpt lat="43.109095031395555" lon="0.70832203142345">
        <ele>409.18000000000001</ele>
        <time>2025-04-26T11:18:17Z</time>
      </trkpt>
      <trkpt lat="43.10915001668036" lon="0.708179036155343">
        <ele>408.69999999999999</ele>
        <time>2025-04-26T11:18:18Z</time>
      </trkpt>
      <trkpt lat="43.109207013621926" lon="0.708029000088573">
        <ele>408.22000000000003</ele>
        <time>2025-04-26T11:18:19Z</time>
      </trkpt>
      <trkpt lat="43.109265016391873" lon="0.707876030355692">
        <ele>407.74000000000001</ele>
        <time>2025-04-26T11:18:20Z</time>
      </trkpt>
      <trkpt lat="43.109330981969833" lon="0.707729011774063">
        <ele>406.76999999999998</ele>
        <time>2025-04-26T11:18:21Z</time>
      </trkpt>
      <trkpt lat="43.109415974467993" lon="0.707584004849195">
        <ele>405.81</ele>
        <time>2025-04-26T11:18:22Z</time>
      </trkpt>
      <trkpt lat="43.109500966966152" lon="0.707437992095947">
        <ele>404.85000000000002</ele>
        <time>2025-04-26T11:18:23Z</time>
      </trkpt>
      <trkpt lat="43.109600963070989" lon="0.707265995442867">
        <ele>403.88999999999999</ele>
        <time>2025-04-26T11:18:24Z</time>
      </trkpt>
      <trkpt lat="43.10968997888267" lon="0.707149989902973">
        <ele>402.93000000000001</ele>
        <time>2025-04-26T11:18:25Z</time>
      </trkpt>
      <trkpt lat="43.110274029895663" lon="0.706301992759109">
        <ele>397.16000000000003</ele>
        <time>2025-04-26T11:18:30Z</time>
      </trkpt>
      <trkpt lat="43.110378971323371" lon="0.706085991114378">
        <ele>395.72000000000003</ele>
        <time>2025-04-26T11:18:31Z</time>
      </trkpt>
      <trkpt lat="43.110459018498659" lon="0.705834031105042">
        <ele>394.75999999999999</ele>
        <time>2025-04-26T11:18:32Z</time>
      </trkpt>
      <trkpt lat="43.110533030703664" lon="0.705572012811899">
        <ele>393.31999999999999</ele>
        <time>2025-04-26T11:18:33Z</time>
      </trkpt>
      <trkpt lat="43.110605031251907" lon="0.705303037539124">
        <ele>391.38999999999999</ele>
        <time>2025-04-26T11:18:34Z</time>
      </trkpt>
      <trkpt lat="43.110631015151739" lon="0.705026015639305">
        <ele>389.94999999999999</ele>
        <time>2025-04-26T11:18:35Z</time>
      </trkpt>
      <trkpt lat="43.110624980181456" lon="0.704730972647667">
        <ele>388.02999999999997</ele>
        <time>2025-04-26T11:18:36Z</time>
      </trkpt>
      <trkpt lat="43.110609976574779" lon="0.704427966848016">
        <ele>386.11000000000001</ele>
        <time>2025-04-26T11:18:37Z</time>
      </trkpt>
      <trkpt lat="43.110594972968102" lon="0.704123033210635">
        <ele>384.18000000000001</ele>
        <time>2025-04-26T11:18:38Z</time>
      </trkpt>
      <trkpt lat="43.110605031251907" lon="0.701913982629776">
        <ele>375.52999999999997</ele>
        <time>2025-04-26T11:18:46Z</time>
      </trkpt>
      <trkpt lat="43.111049020662904" lon="0.699411984533072">
        <ele>373.61000000000001</ele>
        <time>2025-04-26T11:18:56Z</time>
      </trkpt>
      <trkpt lat="43.111638016998768" lon="0.696330964565277">
        <ele>373.61000000000001</ele>
        <time>2025-04-26T11:19:09Z</time>
      </trkpt>
      <trkpt lat="43.11179299838841" lon="0.695844981819391">
        <ele>373.61000000000001</ele>
        <time>2025-04-26T11:19:12Z</time>
      </trkpt>
      <trkpt lat="43.111960971727967" lon="0.695564020425081">
        <ele>374.08999999999997</ele>
        <time>2025-04-26T11:19:14Z</time>
      </trkpt>
      <trkpt lat="43.111960971727967" lon="0.695465030148625">
        <ele>374.56999999999999</ele>
        <time>2025-04-26T11:19:15Z</time>
      </trkpt>
      <trkpt lat="43.111925013363361" lon="0.695152971893549">
        <ele>375.05000000000001</ele>
        <time>2025-04-26T11:19:17Z</time>
      </trkpt>
      <trkpt lat="43.111946973949671" lon="0.694994973018765">
        <ele>375.05000000000001</ele>
        <time>2025-04-26T11:19:18Z</time>
      </trkpt>
      <trkpt lat="43.112284010276198" lon="0.693194037303329">
        <ele>375.52999999999997</ele>
        <time>2025-04-26T11:19:27Z</time>
      </trkpt>
      <trkpt lat="43.112872000783682" lon="0.690034981817007">
        <ele>375.05000000000001</ele>
        <time>2025-04-26T11:19:40Z</time>
      </trkpt>
      <trkpt lat="43.113473989069462" lon="0.686614997684956">
        <ele>373.61000000000001</ele>
        <time>2025-04-26T11:19:55Z</time>
      </trkpt>
      <trkpt lat="43.114016968756914" lon="0.68340296857059">
        <ele>373.13</ele>
        <time>2025-04-26T11:20:09Z</time>
      </trkpt>
      <trkpt lat="43.113885037600994" lon="0.681862039491534">
        <ele>374.08999999999997</ele>
        <time>2025-04-26T11:20:15Z</time>
      </trkpt>
      <trkpt lat="43.113441970199347" lon="0.679301032796502">
        <ele>376.49000000000001</ele>
        <time>2025-04-26T11:20:25Z</time>
      </trkpt>
      <trkpt lat="43.113626958802342" lon="0.677925981581211">
        <ele>379.86000000000001</ele>
        <time>2025-04-26T11:20:30Z</time>
      </trkpt>
      <trkpt lat="43.113702982664108" lon="0.677666980773211">
        <ele>380.81999999999999</ele>
        <time>2025-04-26T11:20:31Z</time>
      </trkpt>
      <trkpt lat="43.114657010883093" lon="0.675626993179321">
        <ele>387.55000000000001</ele>
        <time>2025-04-26T11:20:40Z</time>
      </trkpt>
      <trkpt lat="43.1157479993999" lon="0.673377038910985">
        <ele>385.63</ele>
        <time>2025-04-26T11:20:50Z</time>
      </trkpt>
      <trkpt lat="43.116276981309056" lon="0.671722032129765">
        <ele>383.69999999999999</ele>
        <time>2025-04-26T11:20:58Z</time>
      </trkpt>
      <trkpt lat="43.116540005430579" lon="0.670814020559192">
        <ele>384.66000000000003</ele>
        <time>2025-04-26T11:21:04Z</time>
      </trkpt>
      <trkpt lat="43.116595996543765" lon="0.670723998919129">
        <ele>384.66000000000003</ele>
        <time>2025-04-26T11:21:05Z</time>
      </trkpt>
      <trkpt lat="43.116696998476982" lon="0.670541021972895">
        <ele>384.66000000000003</ele>
        <time>2025-04-26T11:21:07Z</time>
      </trkpt>
      <trkpt lat="43.116661040112376" lon="0.67029501311481">
        <ele>384.18000000000001</ele>
        <time>2025-04-26T11:21:08Z</time>
      </trkpt>
      <trkpt lat="43.116763969883323" lon="0.66928599961102">
        <ele>383.69999999999999</ele>
        <time>2025-04-26T11:21:15Z</time>
      </trkpt>
      <trkpt lat="43.117278032004833" lon="0.666565988212824">
        <ele>385.14999999999998</ele>
        <time>2025-04-26T11:21:30Z</time>
      </trkpt>
      <trkpt lat="43.117691008374095" lon="0.664260964840651">
        <ele>386.11000000000001</ele>
        <time>2025-04-26T11:21:41Z</time>
      </trkpt>
      <trkpt lat="43.118234993889928" lon="0.661407010629773">
        <ele>387.06999999999999</ele>
        <time>2025-04-26T11:21:54Z</time>
      </trkpt>
      <trkpt lat="43.118804041296244" lon="0.6583490408957">
        <ele>388.50999999999999</ele>
        <time>2025-04-26T11:22:07Z</time>
      </trkpt>
      <trkpt lat="43.118909988552332" lon="0.657627023756504">
        <ele>388.99000000000001</ele>
        <time>2025-04-26T11:22:10Z</time>
      </trkpt>
      <trkpt lat="43.118901019915938" lon="0.657381014898419">
        <ele>389.47000000000003</ele>
        <time>2025-04-26T11:22:11Z</time>
      </trkpt>
      <trkpt lat="43.118889033794403" lon="0.657136011868715">
        <ele>389.47000000000003</ele>
        <time>2025-04-26T11:22:12Z</time>
      </trkpt>
      <trkpt lat="43.118856009095907" lon="0.656892014667392">
        <ele>389.47000000000003</ele>
        <time>2025-04-26T11:22:13Z</time>
      </trkpt>
      <trkpt lat="43.118822984397411" lon="0.656652040779591">
        <ele>389.47000000000003</ele>
        <time>2025-04-26T11:22:14Z</time>
      </trkpt>
      <trkpt lat="43.118790965527296" lon="0.65641600638628">
        <ele>389.47000000000003</ele>
        <time>2025-04-26T11:22:15Z</time>
      </trkpt>
      <trkpt lat="43.11873103491962" lon="0.656198998913169">
        <ele>389.47000000000003</ele>
        <time>2025-04-26T11:22:16Z</time>
      </trkpt>
      <trkpt lat="43.118660040199757" lon="0.655974028632045">
        <ele>389.47000000000003</ele>
        <time>2025-04-26T11:22:17Z</time>
      </trkpt>
      <trkpt lat="43.118584016337991" lon="0.655754003673792">
        <ele>389.47000000000003</ele>
        <time>2025-04-26T11:22:18Z</time>
      </trkpt>
      <trkpt lat="43.117715986445546" lon="0.653272960335016">
        <ele>388.50999999999999</ele>
        <time>2025-04-26T11:22:28Z</time>
      </trkpt>
      <trkpt lat="43.116687024012208" lon="0.650030001997948">
        <ele>388.50999999999999</ele>
        <time>2025-04-26T11:22:40Z</time>
      </trkpt>
      <trkpt lat="43.116410002112389" lon="0.648370971903205">
        <ele>390.43000000000001</ele>
        <time>2025-04-26T11:22:46Z</time>
      </trkpt>
      <trkpt lat="43.116333978250623" lon="0.645874002948403">
        <ele>394.75999999999999</ele>
        <time>2025-04-26T11:22:55Z</time>
      </trkpt>
      <trkpt lat="43.116042036563158" lon="0.643684985116124">
        <ele>397.16000000000003</ele>
        <time>2025-04-26T11:23:03Z</time>
      </trkpt>
      <trkpt lat="43.115837015211582" lon="0.643197996541858">
        <ele>397.63999999999999</ele>
        <time>2025-04-26T11:23:05Z</time>
      </trkpt>
      <trkpt lat="43.115723021328449" lon="0.642977971583605">
        <ele>397.63999999999999</ele>
        <time>2025-04-26T11:23:06Z</time>
      </trkpt>
      <trkpt lat="43.115582037717104" lon="0.642765993252397">
        <ele>398.12</ele>
        <time>2025-04-26T11:23:07Z</time>
      </trkpt>
      <trkpt lat="43.115441976115108" lon="0.64255703240633">
        <ele>398.12</ele>
        <time>2025-04-26T11:23:08Z</time>
      </trkpt>
      <trkpt lat="43.115290012210608" lon="0.642381012439728">
        <ele>398.60000000000002</ele>
        <time>2025-04-26T11:23:09Z</time>
      </trkpt>
      <trkpt lat="43.115122960880399" lon="0.642213961109519">
        <ele>398.60000000000002</ele>
        <time>2025-04-26T11:23:10Z</time>
      </trkpt>
      <trkpt lat="43.114958005025983" lon="0.642049005255103">
        <ele>398.60000000000002</ele>
        <time>2025-04-26T11:23:11Z</time>
      </trkpt>
      <trkpt lat="43.113492010161281" lon="0.640544034540653">
        <ele>400.05000000000001</ele>
        <time>2025-04-26T11:23:20Z</time>
      </trkpt>
      <trkpt lat="43.112634038552642" lon="0.638909982517362">
        <ele>398.60000000000002</ele>
        <time>2025-04-26T11:23:27Z</time>
      </trkpt>
      <trkpt lat="43.111582025885582" lon="0.63600498251617">
        <ele>398.12</ele>
        <time>2025-04-26T11:23:39Z</time>
      </trkpt>
      <trkpt lat="43.110286016017199" lon="0.632332032546401">
        <ele>400.52999999999997</ele>
        <time>2025-04-26T11:23:55Z</time>
      </trkpt>
      <trkpt lat="43.109376998618245" lon="0.629812013357878">
        <ele>402.93000000000001</ele>
        <time>2025-04-26T11:24:06Z</time>
      </trkpt>
      <trkpt lat="43.108309982344508" lon="0.626805005595088">
        <ele>403.88999999999999</ele>
        <time>2025-04-26T11:24:18Z</time>
      </trkpt>
      <trkpt lat="43.107117991894484" lon="0.623320983722806">
        <ele>405.32999999999998</ele>
        <time>2025-04-26T11:24:32Z</time>
      </trkpt>
      <trkpt lat="43.105897000059485" lon="0.619871998205781">
        <ele>404.85000000000002</ele>
        <time>2025-04-26T11:24:46Z</time>
      </trkpt>
      <trkpt lat="43.104877006262541" lon="0.61703497543931">
        <ele>401.97000000000003</ele>
        <time>2025-04-26T11:24:57Z</time>
      </trkpt>
      <trkpt lat="43.103407993912697" lon="0.612941002473235">
        <ele>405.81</ele>
        <time>2025-04-26T11:25:13Z</time>
      </trkpt>
      <trkpt lat="43.101900005713105" lon="0.608738986775279">
        <ele>409.18000000000001</ele>
        <time>2025-04-26T11:25:28Z</time>
      </trkpt>
      <trkpt lat="43.100883029401302" lon="0.60588201507926">
        <ele>412.06</ele>
        <time>2025-04-26T11:25:39Z</time>
      </trkpt>
      <trkpt lat="43.100106026977301" lon="0.60364899225533">
        <ele>415.43000000000001</ele>
        <time>2025-04-26T11:25:49Z</time>
      </trkpt>
      <trkpt lat="43.099154010415077" lon="0.601319996640086">
        <ele>416.87</ele>
        <time>2025-04-26T11:25:59Z</time>
      </trkpt>
      <trkpt lat="43.097982974722981" lon="0.599497016519308">
        <ele>419.75</ele>
        <time>2025-04-26T11:26:08Z</time>
      </trkpt>
      <trkpt lat="43.097476959228516" lon="0.598819004371762">
        <ele>420.70999999999998</ele>
        <time>2025-04-26T11:26:12Z</time>
      </trkpt>
      <trkpt lat="43.0974190402776" lon="0.598627980798483">
        <ele>421.19</ele>
        <time>2025-04-26T11:26:13Z</time>
      </trkpt>
      <trkpt lat="43.097364977002144" lon="0.598450032994151">
        <ele>421.19</ele>
        <time>2025-04-26T11:26:14Z</time>
      </trkpt>
      <trkpt lat="43.097327006980777" lon="0.598311983048916">
        <ele>421.19</ele>
        <time>2025-04-26T11:26:15Z</time>
      </trkpt>
      <trkpt lat="43.097327006980777" lon="0.598149038851261">
        <ele>421.68000000000001</ele>
        <time>2025-04-26T11:26:16Z</time>
      </trkpt>
      <trkpt lat="43.097327006980777" lon="0.597994979470968">
        <ele>422.16000000000003</ele>
        <time>2025-04-26T11:26:17Z</time>
      </trkpt>
      <trkpt lat="43.097360031679273" lon="0.597894983366132">
        <ele>422.63999999999999</ele>
        <time>2025-04-26T11:26:18Z</time>
      </trkpt>
      <trkpt lat="43.097358020022511" lon="0.5977170355618">
        <ele>422.16000000000003</ele>
        <time>2025-04-26T11:26:19Z</time>
      </trkpt>
      <trkpt lat="43.097344022244215" lon="0.597576973959804">
        <ele>422.16000000000003</ele>
        <time>2025-04-26T11:26:20Z</time>
      </trkpt>
      <trkpt lat="43.097244026139379" lon="0.597469015046954">
        <ele>422.16000000000003</ele>
        <time>2025-04-26T11:26:21Z</time>
      </trkpt>
      <trkpt lat="43.097165990620852" lon="0.597430039197207">
        <ele>421.68000000000001</ele>
        <time>2025-04-26T11:26:22Z</time>
      </trkpt>
      <trkpt lat="43.09712097980082" lon="0.597347980365157">
        <ele>421.68000000000001</ele>
        <time>2025-04-26T11:26:23Z</time>
      </trkpt>
      <trkpt lat="43.097073035314679" lon="0.597238009795547">
        <ele>421.19</ele>
        <time>2025-04-26T11:26:24Z</time>
      </trkpt>
      <trkpt lat="43.097010003402829" lon="0.597097026184201">
        <ele>420.23000000000002</ele>
        <time>2025-04-26T11:26:25Z</time>
      </trkpt>
      <trkpt lat="43.096932973712683" lon="0.596924023702741">
        <ele>419.75</ele>
        <time>2025-04-26T11:26:26Z</time>
      </trkpt>
      <trkpt lat="43.096421007066965" lon="0.59501001611352">
        <ele>415.43000000000001</ele>
        <time>2025-04-26T11:26:34Z</time>
      </trkpt>
      <trkpt lat="43.095905017107725" lon="0.5925830360502">
        <ele>416.87</ele>
        <time>2025-04-26T11:26:43Z</time>
      </trkpt>
      <trkpt lat="43.09522901661694" lon="0.590009959414601">
        <ele>426.48000000000002</ele>
        <time>2025-04-26T11:26:52Z</time>
      </trkpt>
      <trkpt lat="43.094458971172571" lon="0.588125037029386">
        <ele>440.89999999999998</ele>
        <time>2025-04-26T11:27:00Z</time>
      </trkpt>
      <trkpt lat="43.093213001266122" lon="0.585963008925319">
        <ele>451.95999999999998</ele>
        <time>2025-04-26T11:27:12Z</time>
      </trkpt>
      <trkpt lat="43.091730996966362" lon="0.583416000008583">
        <ele>456.27999999999997</ele>
        <time>2025-04-26T11:27:26Z</time>
      </trkpt>
      <trkpt lat="43.090530959889293" lon="0.581379029899836">
        <ele>455.80000000000001</ele>
        <time>2025-04-26T11:27:37Z</time>
      </trkpt>
      <trkpt lat="43.089601993560791" lon="0.579808009788394">
        <ele>452.44</ele>
        <time>2025-04-26T11:27:47Z</time>
      </trkpt>
      <trkpt lat="43.088751984760165" lon="0.578327011317015">
        <ele>441.38</ele>
        <time>2025-04-26T11:27:57Z</time>
      </trkpt>
      <trkpt lat="43.087950004264712" lon="0.577007029205561">
        <ele>432.73000000000002</ele>
        <time>2025-04-26T11:28:08Z</time>
      </trkpt>
      <trkpt lat="43.087144000455737" lon="0.575614040717483">
        <ele>429.37</ele>
        <time>2025-04-26T11:28:19Z</time>
      </trkpt>
      <trkpt lat="43.086686013266444" lon="0.574821028858423">
        <ele>429.37</ele>
        <time>2025-04-26T11:28:27Z</time>
      </trkpt>
      <trkpt lat="43.086499013006687" lon="0.574562028050423">
        <ele>428.88999999999999</ele>
        <time>2025-04-26T11:28:33Z</time>
      </trkpt>
      <trkpt lat="43.086472023278475" lon="0.574506958946586">
        <ele>428.88999999999999</ele>
        <time>2025-04-26T11:28:34Z</time>
      </trkpt>
      <trkpt lat="43.086448973044753" lon="0.574457002803683">
        <ele>428.88999999999999</ele>
        <time>2025-04-26T11:28:35Z</time>
      </trkpt>
      <trkpt lat="43.086428018286824" lon="0.574406962841749">
        <ele>428.88999999999999</ele>
        <time>2025-04-26T11:28:36Z</time>
      </trkpt>
      <trkpt lat="43.086406979709864" lon="0.574361030012369">
        <ele>428.88999999999999</ele>
        <time>2025-04-26T11:28:37Z</time>
      </trkpt>
      <trkpt lat="43.086366998031735" lon="0.57425600476563">
        <ele>428.39999999999998</ele>
        <time>2025-04-26T11:28:39Z</time>
      </trkpt>
      <trkpt lat="43.086341014131904" lon="0.574186015874147">
        <ele>428.39999999999998</ele>
        <time>2025-04-26T11:28:40Z</time>
      </trkpt>
      <trkpt lat="43.086320981383324" lon="0.57412700727582">
        <ele>428.88999999999999</ele>
        <time>2025-04-26T11:28:41Z</time>
      </trkpt>
      <trkpt lat="43.086384013295174" lon="0.573971020057797">
        <ele>428.88999999999999</ele>
        <time>2025-04-26T11:28:42Z</time>
      </trkpt>
      <trkpt lat="43.086368003860116" lon="0.573931038379669">
        <ele>428.88999999999999</ele>
        <time>2025-04-26T11:28:43Z</time>
      </trkpt>
      <trkpt lat="43.086341014131904" lon="0.573863983154297">
        <ele>429.37</ele>
        <time>2025-04-26T11:28:44Z</time>
      </trkpt>
      <trkpt lat="43.086238000541925" lon="0.57389298453927">
        <ele>429.37</ele>
        <time>2025-04-26T11:28:45Z</time>
      </trkpt>
      <trkpt lat="43.086147978901863" lon="0.573863983154297">
        <ele>429.85000000000002</ele>
        <time>2025-04-26T11:28:46Z</time>
      </trkpt>
      <trkpt lat="43.086086036637425" lon="0.573802962899208">
        <ele>430.32999999999998</ele>
        <time>2025-04-26T11:28:47Z</time>
      </trkpt>
      <trkpt lat="43.086021998897195" lon="0.573726017028093">
        <ele>430.32999999999998</ele>
        <time>2025-04-26T11:28:48Z</time>
      </trkpt>
      <trkpt lat="43.085966007784009" lon="0.573629960417748">
        <ele>430.81</ele>
        <time>2025-04-26T11:28:49Z</time>
      </trkpt>
      <trkpt lat="43.085433002561331" lon="0.572720021009445">
        <ele>432.73000000000002</ele>
        <time>2025-04-26T11:28:59Z</time>
      </trkpt>
      <trkpt lat="43.085404001176357" lon="0.572668975219131">
        <ele>432.73000000000002</ele>
        <time>2025-04-26T11:29:00Z</time>
      </trkpt>
      <trkpt lat="43.085381034761667" lon="0.572628993541002">
        <ele>433.20999999999998</ele>
        <time>2025-04-26T11:29:01Z</time>
      </trkpt>
      <trkpt lat="43.085374999791384" lon="0.572619019076228">
        <ele>433.20999999999998</ele>
        <time>2025-04-26T11:29:02Z</time>
      </trkpt>
      <trkpt lat="43.085195040330291" lon="0.572367981076241">
        <ele>434.17000000000002</ele>
        <time>2025-04-26T11:29:06Z</time>
      </trkpt>
      <trkpt lat="43.085134020075202" lon="0.572314001619816">
        <ele>434.64999999999998</ele>
        <time>2025-04-26T11:29:07Z</time>
      </trkpt>
      <trkpt lat="43.085055984556675" lon="0.5723010096699">
        <ele>435.13</ele>
        <time>2025-04-26T11:29:08Z</time>
      </trkpt>
      <trkpt lat="43.084976021200418" lon="0.572287011891603">
        <ele>435.61000000000001</ele>
        <time>2025-04-26T11:29:09Z</time>
      </trkpt>
      <trkpt lat="43.08489496819675" lon="0.572272008284926">
        <ele>436.57999999999998</ele>
        <time>2025-04-26T11:29:10Z</time>
      </trkpt>
      <trkpt lat="43.0848060362041" lon="0.572257004678249">
        <ele>437.06</ele>
        <time>2025-04-26T11:29:11Z</time>
      </trkpt>
      <trkpt lat="43.084531025961041" lon="0.572205958887935">
        <ele>439.45999999999998</ele>
        <time>2025-04-26T11:29:14Z</time>
      </trkpt>
      <trkpt lat="43.084431029856205" lon="0.572188021615148">
        <ele>439.94</ele>
        <time>2025-04-26T11:29:15Z</time>
      </trkpt>
      <trkpt lat="43.084328016266227" lon="0.572167988866568">
        <ele>440.89999999999998</ele>
        <time>2025-04-26T11:29:16Z</time>
      </trkpt>
      <trkpt lat="43.084229025989771" lon="0.572149967774749">
        <ele>441.38</ele>
        <time>2025-04-26T11:29:17Z</time>
      </trkpt>
      <trkpt lat="43.084151996299624" lon="0.572082996368408">
        <ele>441.38</ele>
        <time>2025-04-26T11:29:18Z</time>
      </trkpt>
      <trkpt lat="43.084087958559394" lon="0.572018958628178">
        <ele>441.86000000000001</ele>
        <time>2025-04-26T11:29:19Z</time>
      </trkpt>
      <trkpt lat="43.084044959396124" lon="0.571943018585444">
        <ele>443.31</ele>
        <time>2025-04-26T11:29:20Z</time>
      </trkpt>
      <trkpt lat="43.084044959396124" lon="0.571837993338704">
        <ele>444.26999999999998</ele>
        <time>2025-04-26T11:29:21Z</time>
      </trkpt>
      <trkpt lat="43.084044959396124" lon="0.571730034425855">
        <ele>445.70999999999998</ele>
        <time>2025-04-26T11:29:22Z</time>
      </trkpt>
      <trkpt lat="43.084059963002801" lon="0.571614028885961">
        <ele>447.14999999999998</ele>
        <time>2025-04-26T11:29:23Z</time>
      </trkpt>
      <trkpt lat="43.084100028499961" lon="0.571510009467602">
        <ele>448.11000000000001</ele>
        <time>2025-04-26T11:29:24Z</time>
      </trkpt>
      <trkpt lat="43.084139004349709" lon="0.571408001706004">
        <ele>449.06999999999999</ele>
        <time>2025-04-26T11:29:25Z</time>
      </trkpt>
      <trkpt lat="43.084362968802452" lon="0.570816993713379">
        <ele>453.88</ele>
        <time>2025-04-26T11:29:31Z</time>
      </trkpt>
      <trkpt lat="43.084401022642851" lon="0.570724038407207">
        <ele>454.36000000000001</ele>
        <time>2025-04-26T11:29:32Z</time>
      </trkpt>
      <trkpt lat="43.084775023162365" lon="0.569795994088054">
        <ele>460.13</ele>
        <time>2025-04-26T11:29:43Z</time>
      </trkpt>
      <trkpt lat="43.084843000397086" lon="0.569625003263354">
        <ele>461.08999999999997</ele>
        <time>2025-04-26T11:29:45Z</time>
      </trkpt>
      <trkpt lat="43.084878036752343" lon="0.569536993280053">
        <ele>461.08999999999997</ele>
        <time>2025-04-26T11:29:46Z</time>
      </trkpt>
      <trkpt lat="43.084911983460188" lon="0.569452000781894">
        <ele>461.56999999999999</ele>
        <time>2025-04-26T11:29:47Z</time>
      </trkpt>
      <trkpt lat="43.085051039233804" lon="0.56910096667707">
        <ele>462.52999999999997</ele>
        <time>2025-04-26T11:29:51Z</time>
      </trkpt>
      <trkpt lat="43.08508699759841" lon="0.569009017199278">
        <ele>462.52999999999997</ele>
        <time>2025-04-26T11:29:52Z</time>
      </trkpt>
      <trkpt lat="43.085122033953667" lon="0.568920001387596">
        <ele>463.00999999999999</ele>
        <time>2025-04-26T11:29:53Z</time>
      </trkpt>
      <trkpt lat="43.085155980661511" lon="0.568832997232676">
        <ele>463.00999999999999</ele>
        <time>2025-04-26T11:29:54Z</time>
      </trkpt>
      <trkpt lat="43.085191017016768" lon="0.568745993077755">
        <ele>463.00999999999999</ele>
        <time>2025-04-26T11:29:55Z</time>
      </trkpt>
      <trkpt lat="43.085300987586379" lon="0.568487998098135">
        <ele>462.05000000000001</ele>
        <time>2025-04-26T11:29:58Z</time>
      </trkpt>
      <trkpt lat="43.085390003398061" lon="0.56821902282536">
        <ele>461.08999999999997</ele>
        <time>2025-04-26T11:30:01Z</time>
      </trkpt>
      <trkpt lat="43.085416993126273" lon="0.568136963993311">
        <ele>461.56999999999999</ele>
        <time>2025-04-26T11:30:02Z</time>
      </trkpt>
      <trkpt lat="43.085460998117924" lon="0.567963039502501">
        <ele>461.08999999999997</ele>
        <time>2025-04-26T11:30:04Z</time>
      </trkpt>
      <trkpt lat="43.085482958704233" lon="0.567878969013691">
        <ele>461.08999999999997</ele>
        <time>2025-04-26T11:30:05Z</time>
      </trkpt>
      <trkpt lat="43.085505003109574" lon="0.56779196485877">
        <ele>460.61000000000001</ele>
        <time>2025-04-26T11:30:06Z</time>
      </trkpt>
      <trkpt lat="43.085527969524264" lon="0.56770303286612">
        <ele>460.61000000000001</ele>
        <time>2025-04-26T11:30:07Z</time>
      </trkpt>
      <trkpt lat="43.085550013929605" lon="0.5676160287112">
        <ele>460.61000000000001</ele>
        <time>2025-04-26T11:30:08Z</time>
      </trkpt>
      <trkpt lat="43.085571974515915" lon="0.567529024556279">
        <ele>460.61000000000001</ele>
        <time>2025-04-26T11:30:09Z</time>
      </trkpt>
      <trkpt lat="43.085761992260814" lon="0.566783035174012">
        <ele>459.64999999999998</ele>
        <time>2025-04-26T11:30:17Z</time>
      </trkpt>
      <trkpt lat="43.085761992260814" lon="0.56671597994864">
        <ele>459.64999999999998</ele>
        <time>2025-04-26T11:30:18Z</time>
      </trkpt>
      <trkpt lat="43.085761992260814" lon="0.566336028277874">
        <ele>459.64999999999998</ele>
        <time>2025-04-26T11:30:22Z</time>
      </trkpt>
      <trkpt lat="43.085761992260814" lon="0.566236032173038">
        <ele>459.64999999999998</ele>
        <time>2025-04-26T11:30:23Z</time>
      </trkpt>
      <trkpt lat="43.085761992260814" lon="0.566132012754679">
        <ele>459.64999999999998</ele>
        <time>2025-04-26T11:30:24Z</time>
      </trkpt>
      <trkpt lat="43.085765009745955" lon="0.566030004993081">
        <ele>459.64999999999998</ele>
        <time>2025-04-26T11:30:25Z</time>
      </trkpt>
      <trkpt lat="43.085768027231097" lon="0.565927997231483">
        <ele>459.64999999999998</ele>
        <time>2025-04-26T11:30:26Z</time>
      </trkpt>
      <trkpt lat="43.085771966725588" lon="0.565821966156363">
        <ele>459.64999999999998</ele>
        <time>2025-04-26T11:30:27Z</time>
      </trkpt>
      <trkpt lat="43.085782025009394" lon="0.565316034480929">
        <ele>459.17000000000002</ele>
        <time>2025-04-26T11:30:32Z</time>
      </trkpt>
      <trkpt lat="43.085776995867491" lon="0.565212015062571">
        <ele>459.17000000000002</ele>
        <time>2025-04-26T11:30:33Z</time>
      </trkpt>
      <trkpt lat="43.085767021402717" lon="0.565005987882614">
        <ele>458.69</ele>
        <time>2025-04-26T11:30:35Z</time>
      </trkpt>
      <trkpt lat="43.085761992260814" lon="0.564895011484623">
        <ele>458.69</ele>
        <time>2025-04-26T11:30:36Z</time>
      </trkpt>
      <trkpt lat="43.085737014189363" lon="0.564784035086632">
        <ele>458.69</ele>
        <time>2025-04-26T11:30:37Z</time>
      </trkpt>
      <trkpt lat="43.085535010322928" lon="0.56347100995481">
        <ele>460.13</ele>
        <time>2025-04-26T11:30:49Z</time>
      </trkpt>
      <trkpt lat="43.085486982017756" lon="0.563244028016925">
        <ele>462.05000000000001</ele>
        <time>2025-04-26T11:30:56Z</time>
      </trkpt>
      <trkpt lat="43.085478013381362" lon="0.563199017196894">
        <ele>462.05000000000001</ele>
        <time>2025-04-26T11:30:57Z</time>
      </trkpt>
      <trkpt lat="43.085297970101237" lon="0.562412040308118">
        <ele>465.89999999999998</ele>
        <time>2025-04-26T11:31:05Z</time>
      </trkpt>
      <trkpt lat="43.085100995376706" lon="0.56149497628212">
        <ele>469.25999999999999</ele>
        <time>2025-04-26T11:31:13Z</time>
      </trkpt>
      <trkpt lat="43.085095966234803" lon="0.561356004327536">
        <ele>469.25999999999999</ele>
        <time>2025-04-26T11:31:14Z</time>
      </trkpt>
      <trkpt lat="43.085095966234803" lon="0.561204040423036">
        <ele>469.74000000000001</ele>
        <time>2025-04-26T11:31:15Z</time>
      </trkpt>
      <trkpt lat="43.085338035598397" lon="0.55962597951293">
        <ele>470.69999999999999</ele>
        <time>2025-04-26T11:31:25Z</time>
      </trkpt>
      <trkpt lat="43.085655039176345" lon="0.557307964190841">
        <ele>474.06999999999999</ele>
        <time>2025-04-26T11:31:39Z</time>
      </trkpt>
      <trkpt lat="43.08590398170054" lon="0.555538041517138">
        <ele>479.35000000000002</ele>
        <time>2025-04-26T11:31:49Z</time>
      </trkpt>
      <trkpt lat="43.086310001090169" lon="0.552830016240478">
        <ele>485.12</ele>
        <time>2025-04-26T11:32:04Z</time>
      </trkpt>
      <trkpt lat="43.086588028818369" lon="0.55088197812438">
        <ele>487.52999999999997</ele>
        <time>2025-04-26T11:32:12Z</time>
      </trkpt>
      <trkpt lat="43.087006034329534" lon="0.548029029741883">
        <ele>493.76999999999998</ele>
        <time>2025-04-26T11:32:22Z</time>
      </trkpt>
      <trkpt lat="43.087390009313822" lon="0.545529965311289">
        <ele>500.01999999999998</ele>
        <time>2025-04-26T11:32:31Z</time>
      </trkpt>
      <trkpt lat="43.087764009833336" lon="0.542854964733124">
        <ele>503.87</ele>
        <time>2025-04-26T11:32:41Z</time>
      </trkpt>
      <trkpt lat="43.088314030319452" lon="0.539067015051842">
        <ele>505.31</ele>
        <time>2025-04-26T11:32:55Z</time>
      </trkpt>
      <trkpt lat="43.088881988078356" lon="0.535131962969899">
        <ele>521.64999999999998</ele>
        <time>2025-04-26T11:33:09Z</time>
      </trkpt>
      <trkpt lat="43.089347016066313" lon="0.531813986599445">
        <ele>532.23000000000002</ele>
        <time>2025-04-26T11:33:21Z</time>
      </trkpt>
      <trkpt lat="43.089928971603513" lon="0.527877006679773">
        <ele>540.88</ele>
        <time>2025-04-26T11:33:35Z</time>
      </trkpt>
      <trkpt lat="43.090380001813173" lon="0.524599011987448">
        <ele>545.20000000000005</ele>
        <time>2025-04-26T11:33:46Z</time>
      </trkpt>
      <trkpt lat="43.090516962110996" lon="0.521264020353556">
        <ele>551.45000000000005</ele>
        <time>2025-04-26T11:33:57Z</time>
      </trkpt>
      <trkpt lat="43.09071603231132" lon="0.517310025170445">
        <ele>556.25999999999999</ele>
        <time>2025-04-26T11:34:10Z</time>
      </trkpt>
      <trkpt lat="43.09116798453033" lon="0.513132987543941">
        <ele>558.65999999999997</ele>
        <time>2025-04-26T11:34:24Z</time>
      </trkpt>
      <trkpt lat="43.091304022818804" lon="0.510779013857245">
        <ele>554.82000000000005</ele>
        <time>2025-04-26T11:34:32Z</time>
      </trkpt>
      <trkpt lat="43.091451963409781" lon="0.508063025772572">
        <ele>555.77999999999997</ele>
        <time>2025-04-26T11:34:41Z</time>
      </trkpt>
      <trkpt lat="43.091864017769694" lon="0.505005978047848">
        <ele>561.54999999999995</ele>
        <time>2025-04-26T11:34:51Z</time>
      </trkpt>
      <trkpt lat="43.092788038775325" lon="0.501679033041">
        <ele>562.50999999999999</ele>
        <time>2025-04-26T11:35:02Z</time>
      </trkpt>
      <trkpt lat="43.093852959573269" lon="0.49800499342382">
        <ele>566.83000000000004</ele>
        <time>2025-04-26T11:35:15Z</time>
      </trkpt>
      <trkpt lat="43.094651000574231" lon="0.495267966762185">
        <ele>570.20000000000005</ele>
        <time>2025-04-26T11:35:25Z</time>
      </trkpt>
      <trkpt lat="43.095583990216255" lon="0.492049986496568">
        <ele>570.67999999999995</ele>
        <time>2025-04-26T11:35:36Z</time>
      </trkpt>
      <trkpt lat="43.096790984272957" lon="0.487887030467391">
        <ele>577.88999999999999</ele>
        <time>2025-04-26T11:35:50Z</time>
      </trkpt>
      <trkpt lat="43.097566980868578" lon="0.485236002132297">
        <ele>580.28999999999996</ele>
        <time>2025-04-26T11:35:59Z</time>
      </trkpt>
      <trkpt lat="43.098942032083869" lon="0.480519002303481">
        <ele>576.92999999999995</ele>
        <time>2025-04-26T11:36:16Z</time>
      </trkpt>
      <trkpt lat="43.099992033094168" lon="0.476890979334712">
        <ele>577.88999999999999</ele>
        <time>2025-04-26T11:36:29Z</time>
      </trkpt>
      <trkpt lat="43.100974978879094" lon="0.473515000194311">
        <ele>576.45000000000005</ele>
        <time>2025-04-26T11:36:41Z</time>
      </trkpt>
      <trkpt lat="43.101949961856008" lon="0.470157964155078">
        <ele>573.08000000000004</ele>
        <time>2025-04-26T11:36:53Z</time>
      </trkpt>
      <trkpt lat="43.102911030873656" lon="0.466903019696474">
        <ele>574.52999999999997</ele>
        <time>2025-04-26T11:37:05Z</time>
      </trkpt>
      <trkpt lat="43.104064967483282" lon="0.462860008701682">
        <ele>576.45000000000005</ele>
        <time>2025-04-26T11:37:20Z</time>
      </trkpt>
      <trkpt lat="43.104860996827483" lon="0.460093980655074">
        <ele>577.88999999999999</ele>
        <time>2025-04-26T11:37:30Z</time>
      </trkpt>
      <trkpt lat="43.105921978130937" lon="0.456421030685306">
        <ele>583.65999999999997</ele>
        <time>2025-04-26T11:37:43Z</time>
      </trkpt>
      <trkpt lat="43.107029981911182" lon="0.452485978603363">
        <ele>591.83000000000004</ele>
        <time>2025-04-26T11:37:58Z</time>
      </trkpt>
      <trkpt lat="43.108100015670061" lon="0.448800958693028">
        <ele>598.55999999999995</ele>
        <time>2025-04-26T11:38:12Z</time>
      </trkpt>
      <trkpt lat="43.108639977872372" lon="0.446850992739201">
        <ele>598.55999999999995</ele>
        <time>2025-04-26T11:38:20Z</time>
      </trkpt>
      <trkpt lat="43.109514964744449" lon="0.443825963884592">
        <ele>598.55999999999995</ele>
        <time>2025-04-26T11:38:33Z</time>
      </trkpt>
      <trkpt lat="43.109955014660954" lon="0.44222803786397">
        <ele>597.60000000000002</ele>
        <time>2025-04-26T11:38:41Z</time>
      </trkpt>
      <trkpt lat="43.110537976026535" lon="0.440201964229345">
        <ele>593.75</ele>
        <time>2025-04-26T11:38:54Z</time>
      </trkpt>
      <trkpt lat="43.111210037022829" lon="0.438123000785708">
        <ele>588.46000000000004</ele>
        <time>2025-04-26T11:39:07Z</time>
      </trkpt>
      <trkpt lat="43.111397959291935" lon="0.437885038554668">
        <ele>586.53999999999996</ele>
        <time>2025-04-26T11:39:09Z</time>
      </trkpt>
      <trkpt lat="43.111497033387423" lon="0.437759980559349">
        <ele>585.58000000000004</ele>
        <time>2025-04-26T11:39:10Z</time>
      </trkpt>
      <trkpt lat="43.11160197481513" lon="0.437644980847836">
        <ele>584.62</ele>
        <time>2025-04-26T11:39:11Z</time>
      </trkpt>
      <trkpt lat="43.112388029694557" lon="0.437008962035179">
        <ele>580.76999999999998</ele>
        <time>2025-04-26T11:39:19Z</time>
      </trkpt>
      <trkpt lat="43.113412968814373" lon="0.436202958226204">
        <ele>582.22000000000003</ele>
        <time>2025-04-26T11:39:29Z</time>
      </trkpt>
      <trkpt lat="43.114633960649371" lon="0.435213977470994">
        <ele>587.98000000000002</ele>
        <time>2025-04-26T11:39:41Z</time>
      </trkpt>
      <trkpt lat="43.115476006641984" lon="0.434525990858674">
        <ele>592.30999999999995</ele>
        <time>2025-04-26T11:39:50Z</time>
      </trkpt>
      <trkpt lat="43.115688990801573" lon="0.434350976720452">
        <ele>593.26999999999998</ele>
        <time>2025-04-26T11:39:53Z</time>
      </trkpt>
      <trkpt lat="43.115755040198565" lon="0.434290040284395">
        <ele>593.75</ele>
        <time>2025-04-26T11:39:54Z</time>
      </trkpt>
      <trkpt lat="43.115821005776525" lon="0.434229020029306">
        <ele>593.75</ele>
        <time>2025-04-26T11:39:55Z</time>
      </trkpt>
      <trkpt lat="43.115884959697723" lon="0.434169005602598">
        <ele>594.23000000000002</ele>
        <time>2025-04-26T11:39:56Z</time>
      </trkpt>
      <trkpt lat="43.115953020751476" lon="0.434105973690748">
        <ele>594.23000000000002</ele>
        <time>2025-04-26T11:39:57Z</time>
      </trkpt>
      <trkpt lat="43.116209004074335" lon="0.433783018961549">
        <ele>594.23000000000002</ele>
        <time>2025-04-26T11:40:01Z</time>
      </trkpt>
      <trkpt lat="43.116267006844282" lon="0.433686962351203">
        <ele>594.23000000000002</ele>
        <time>2025-04-26T11:40:02Z</time>
      </trkpt>
      <trkpt lat="43.116318974643946" lon="0.433583026751876">
        <ele>594.23000000000002</ele>
        <time>2025-04-26T11:40:03Z</time>
      </trkpt>
      <trkpt lat="43.116364991292357" lon="0.433470960706472">
        <ele>593.75</ele>
        <time>2025-04-26T11:40:04Z</time>
      </trkpt>
      <trkpt lat="43.116410002112389" lon="0.43335503898561">
        <ele>593.75</ele>
        <time>2025-04-26T11:40:05Z</time>
      </trkpt>
      <trkpt lat="43.116445960476995" lon="0.433230986818671">
        <ele>593.75</ele>
        <time>2025-04-26T11:40:06Z</time>
      </trkpt>
      <trkpt lat="43.116465993225574" lon="0.433097966015339">
        <ele>593.26999999999998</ele>
        <time>2025-04-26T11:40:07Z</time>
      </trkpt>
      <trkpt lat="43.116486025974154" lon="0.432962011545897">
        <ele>593.26999999999998</ele>
        <time>2025-04-26T11:40:08Z</time>
      </trkpt>
      <trkpt lat="43.116712002083659" lon="0.43144497089088">
        <ele>594.71000000000004</ele>
        <time>2025-04-26T11:40:19Z</time>
      </trkpt>
      <trkpt lat="43.116932027041912" lon="0.429710000753403">
        <ele>596.14999999999998</ele>
        <time>2025-04-26T11:40:31Z</time>
      </trkpt>
      <trkpt lat="43.117133025079966" lon="0.428231013938785">
        <ele>600</ele>
        <time>2025-04-26T11:40:42Z</time>
      </trkpt>
      <trkpt lat="43.1173350289464" lon="0.426728976890445">
        <ele>601.91999999999996</ele>
        <time>2025-04-26T11:40:53Z</time>
      </trkpt>
      <trkpt lat="43.117546001449227" lon="0.425130967050791">
        <ele>600.96000000000004</ele>
        <time>2025-04-26T11:41:01Z</time>
      </trkpt>
      <trkpt lat="43.117898041382432" lon="0.422482034191489">
        <ele>599.03999999999996</ele>
        <time>2025-04-26T11:41:11Z</time>
      </trkpt>
      <trkpt lat="43.118137009441853" lon="0.420679003000259">
        <ele>596.63999999999999</ele>
        <time>2025-04-26T11:41:19Z</time>
      </trkpt>
      <trkpt lat="43.118436997756362" lon="0.418452015146613">
        <ele>600.96000000000004</ele>
        <time>2025-04-26T11:41:30Z</time>
      </trkpt>
      <trkpt lat="43.118721982464194" lon="0.416342038661242">
        <ele>603.85000000000002</ele>
        <time>2025-04-26T11:41:41Z</time>
      </trkpt>
      <trkpt lat="43.118959022685885" lon="0.414602961391211">
        <ele>606.25</ele>
        <time>2025-04-26T11:41:51Z</time>
      </trkpt>
      <trkpt lat="43.119159014895558" lon="0.413080975413322">
        <ele>608.16999999999996</ele>
        <time>2025-04-26T11:42:01Z</time>
      </trkpt>
      <trkpt lat="43.119255993515253" lon="0.412632962688804">
        <ele>608.64999999999998</ele>
        <time>2025-04-26T11:42:06Z</time>
      </trkpt>
      <trkpt lat="43.119274014607072" lon="0.412561967968941">
        <ele>608.64999999999998</ele>
        <time>2025-04-26T11:42:07Z</time>
      </trkpt>
      <trkpt lat="43.119299998506904" lon="0.412459038197994">
        <ele>609.13</ele>
        <time>2025-04-26T11:42:08Z</time>
      </trkpt>
      <trkpt lat="43.119382979348302" lon="0.41234596632421">
        <ele>609.61000000000001</ele>
        <time>2025-04-26T11:42:10Z</time>
      </trkpt>
      <trkpt lat="43.119414998218417" lon="0.41225896216929">
        <ele>609.61000000000001</ele>
        <time>2025-04-26T11:42:11Z</time>
      </trkpt>
      <trkpt lat="43.119410974904895" lon="0.412132982164621">
        <ele>609.61000000000001</ele>
        <time>2025-04-26T11:42:12Z</time>
      </trkpt>
      <trkpt lat="43.119407035410404" lon="0.412115966901183">
        <ele>609.61000000000001</ele>
        <time>2025-04-26T11:42:13Z</time>
      </trkpt>
      <trkpt lat="43.11929396353662" lon="0.411884039640427">
        <ele>609.13</ele>
        <time>2025-04-26T11:42:14Z</time>
      </trkpt>
      <trkpt lat="43.11931299045682" lon="0.411760993301868">
        <ele>609.13</ele>
        <time>2025-04-26T11:42:15Z</time>
      </trkpt>
      <trkpt lat="43.11933402903378" lon="0.411625038832426">
        <ele>608.64999999999998</ele>
        <time>2025-04-26T11:42:16Z</time>
      </trkpt>
      <trkpt lat="43.11942296102643" lon="0.411037970334291">
        <ele>608.64999999999998</ele>
        <time>2025-04-26T11:42:20Z</time>
      </trkpt>
      <trkpt lat="43.119636029005051" lon="0.409523025155067">
        <ele>612.5</ele>
        <time>2025-04-26T11:42:30Z</time>
      </trkpt>
      <trkpt lat="43.119858987629414" lon="0.407799035310745">
        <ele>612.01999999999998</ele>
        <time>2025-04-26T11:42:41Z</time>
      </trkpt>
      <trkpt lat="43.120192000642419" lon="0.405328972265124">
        <ele>606.25</ele>
        <time>2025-04-26T11:42:55Z</time>
      </trkpt>
      <trkpt lat="43.120419988408685" lon="0.403595007956028">
        <ele>598.08000000000004</ele>
        <time>2025-04-26T11:43:05Z</time>
      </trkpt>
      <trkpt lat="43.120653005316854" lon="0.401806980371475">
        <ele>597.12</ele>
        <time>2025-04-26T11:43:15Z</time>
      </trkpt>
      <trkpt lat="43.120701033622026" lon="0.401415964588523">
        <ele>599.03999999999996</ele>
        <time>2025-04-26T11:43:19Z</time>
      </trkpt>
      <trkpt lat="43.120704973116517" lon="0.401354022324085">
        <ele>599.03999999999996</ele>
        <time>2025-04-26T11:43:20Z</time>
      </trkpt>
      <trkpt lat="43.120715031400323" lon="0.401232987642288">
        <ele>600</ele>
        <time>2025-04-26T11:43:22Z</time>
      </trkpt>
      <trkpt lat="43.120879987254739" lon="0.401070965453982">
        <ele>600.96000000000004</ele>
        <time>2025-04-26T11:43:24Z</time>
      </trkpt>
      <trkpt lat="43.120868001133204" lon="0.400971975177526">
        <ele>600.96000000000004</ele>
        <time>2025-04-26T11:43:25Z</time>
      </trkpt>
      <trkpt lat="43.120865989476442" lon="0.40095797739923">
        <ele>601.44000000000005</ele>
        <time>2025-04-26T11:43:26Z</time>
      </trkpt>
      <trkpt lat="43.120786026120186" lon="0.400704005733132">
        <ele>601.44000000000005</ele>
        <time>2025-04-26T11:43:27Z</time>
      </trkpt>
      <trkpt lat="43.120809998363256" lon="0.400553969666362">
        <ele>601.91999999999996</ele>
        <time>2025-04-26T11:43:28Z</time>
      </trkpt>
      <trkpt lat="43.120833970606327" lon="0.400377027690411">
        <ele>601.91999999999996</ele>
        <time>2025-04-26T11:43:29Z</time>
      </trkpt>
      <trkpt lat="43.120860038325191" lon="0.400188015773892">
        <ele>601.91999999999996</ele>
        <time>2025-04-26T11:43:30Z</time>
      </trkpt>
      <trkpt lat="43.121092971414328" lon="0.39850601926446">
        <ele>606.25</ele>
        <time>2025-04-26T11:43:40Z</time>
      </trkpt>
      <trkpt lat="43.121360018849373" lon="0.396610032767057">
        <ele>607.69000000000005</ele>
        <time>2025-04-26T11:43:51Z</time>
      </trkpt>
      <trkpt lat="43.121652966365218" lon="0.394256981089711">
        <ele>605.76999999999998</ele>
        <time>2025-04-26T11:44:05Z</time>
      </trkpt>
      <trkpt lat="43.121878020465374" lon="0.392561992630363">
        <ele>602.39999999999998</ele>
        <time>2025-04-26T11:44:15Z</time>
      </trkpt>
      <trkpt lat="43.122140038758516" lon="0.390597023069859">
        <ele>592.30999999999995</ele>
        <time>2025-04-26T11:44:27Z</time>
      </trkpt>
      <trkpt lat="43.122208015993237" lon="0.390110034495592">
        <ele>587.98000000000002</ele>
        <time>2025-04-26T11:44:30Z</time>
      </trkpt>
      <trkpt lat="43.122381018474698" lon="0.388756021857262">
        <ele>578.85000000000002</ele>
        <time>2025-04-26T11:44:39Z</time>
      </trkpt>
      <trkpt lat="43.12247003428638" lon="0.388128971680999">
        <ele>575.97000000000003</ele>
        <time>2025-04-26T11:44:47Z</time>
      </trkpt>
      <trkpt lat="43.122518984600902" lon="0.387847004458308">
        <ele>575.49000000000001</ele>
        <time>2025-04-26T11:44:52Z</time>
      </trkpt>
      <trkpt lat="43.122528959065676" lon="0.387684982270002">
        <ele>575.97000000000003</ele>
        <time>2025-04-26T11:44:54Z</time>
      </trkpt>
      <trkpt lat="43.122518984600902" lon="0.387610970064998">
        <ele>575.97000000000003</ele>
        <time>2025-04-26T11:44:55Z</time>
      </trkpt>
      <trkpt lat="43.122401973232627" lon="0.387562019750476">
        <ele>575.97000000000003</ele>
        <time>2025-04-26T11:44:56Z</time>
      </trkpt>
      <trkpt lat="43.122351011261344" lon="0.387409972026944">
        <ele>575.97000000000003</ele>
        <time>2025-04-26T11:44:58Z</time>
      </trkpt>
      <trkpt lat="43.122023027390242" lon="0.386656019836664">
        <ele>576.92999999999995</ele>
        <time>2025-04-26T11:45:06Z</time>
      </trkpt>
      <trkpt lat="43.12167702242732" lon="0.385737027972937">
        <ele>580.28999999999996</ele>
        <time>2025-04-26T11:45:15Z</time>
      </trkpt>
      <trkpt lat="43.121617008000612" lon="0.385505016893148">
        <ele>580.76999999999998</ele>
        <time>2025-04-26T11:45:17Z</time>
      </trkpt>
      <trkpt lat="43.121395977213979" lon="0.383865013718605">
        <ele>585.58000000000004</ele>
        <time>2025-04-26T11:45:30Z</time>
      </trkpt>
      <trkpt lat="43.121346021071076" lon="0.383499981835485">
        <ele>587.01999999999998</ele>
        <time>2025-04-26T11:45:35Z</time>
      </trkpt>
      <trkpt lat="43.121337974444032" lon="0.383449019864202">
        <ele>587.5</ele>
        <time>2025-04-26T11:45:36Z</time>
      </trkpt>
      <trkpt lat="43.121400000527501" lon="0.383328991010785">
        <ele>587.5</ele>
        <time>2025-04-26T11:45:37Z</time>
      </trkpt>
      <trkpt lat="43.121380973607302" lon="0.38325497880578">
        <ele>587.98000000000002</ele>
        <time>2025-04-26T11:45:38Z</time>
      </trkpt>
      <trkpt lat="43.12128902412951" lon="0.38312204182148">
        <ele>588.46000000000004</ele>
        <time>2025-04-26T11:45:39Z</time>
      </trkpt>
      <trkpt lat="43.121281983330846" lon="0.382984997704625">
        <ele>588.46000000000004</ele>
        <time>2025-04-26T11:45:40Z</time>
      </trkpt>
      <trkpt lat="43.121273014694452" lon="0.382834039628506">
        <ele>588.95000000000005</ele>
        <time>2025-04-26T11:45:41Z</time>
      </trkpt>
      <trkpt lat="43.121265973895788" lon="0.382675034925342">
        <ele>589.42999999999995</ele>
        <time>2025-04-26T11:45:42Z</time>
      </trkpt>
      <trkpt lat="43.121259016916156" lon="0.382511001080275">
        <ele>589.90999999999997</ele>
        <time>2025-04-26T11:45:43Z</time>
      </trkpt>
      <trkpt lat="43.121220963075757" lon="0.381889985874295">
        <ele>592.30999999999995</ele>
        <time>2025-04-26T11:45:47Z</time>
      </trkpt>
      <trkpt lat="43.121206965297461" lon="0.381751013919711">
        <ele>592.78999999999996</ele>
        <time>2025-04-26T11:45:48Z</time>
      </trkpt>
      <trkpt lat="43.121193973347545" lon="0.381615981459618">
        <ele>593.75</ele>
        <time>2025-04-26T11:45:49Z</time>
      </trkpt>
      <trkpt lat="43.121158014982939" lon="0.381495030596852">
        <ele>594.23000000000002</ele>
        <time>2025-04-26T11:45:50Z</time>
      </trkpt>
      <trkpt lat="43.121100012212992" lon="0.381368966773152">
        <ele>594.71000000000004</ele>
        <time>2025-04-26T11:45:51Z</time>
      </trkpt>
      <trkpt lat="43.120430968701839" lon="0.379769029095769">
        <ele>599.51999999999998</ele>
        <time>2025-04-26T11:46:02Z</time>
      </trkpt>
      <trkpt lat="43.119900980964303" lon="0.378173030912876">
        <ele>601.44000000000005</ele>
        <time>2025-04-26T11:46:13Z</time>
      </trkpt>
      <trkpt lat="43.119758991524577" lon="0.377012975513935">
        <ele>598.08000000000004</ele>
        <time>2025-04-26T11:46:21Z</time>
      </trkpt>
      <trkpt lat="43.119754968211055" lon="0.376898981630802">
        <ele>598.08000000000004</ele>
        <time>2025-04-26T11:46:22Z</time>
      </trkpt>
      <trkpt lat="43.119836021214724" lon="0.376732014119625">
        <ele>597.60000000000002</ele>
        <time>2025-04-26T11:46:23Z</time>
      </trkpt>
      <trkpt lat="43.119899975135922" lon="0.376621037721634">
        <ele>597.12</ele>
        <time>2025-04-26T11:46:25Z</time>
      </trkpt>
      <trkpt lat="43.119912967085838" lon="0.376478964462876">
        <ele>596.63999999999999</ele>
        <time>2025-04-26T11:46:26Z</time>
      </trkpt>
      <trkpt lat="43.119903998449445" lon="0.37637896835804">
        <ele>596.63999999999999</ele>
        <time>2025-04-26T11:46:27Z</time>
      </trkpt>
      <trkpt lat="43.119828980416059" lon="0.376309985294938">
        <ele>596.63999999999999</ele>
        <time>2025-04-26T11:46:28Z</time>
      </trkpt>
      <trkpt lat="43.119758991524577" lon="0.376275032758713">
        <ele>596.14999999999998</ele>
        <time>2025-04-26T11:46:29Z</time>
      </trkpt>
      <trkpt lat="43.119728984311223" lon="0.376260029152036">
        <ele>596.14999999999998</ele>
        <time>2025-04-26T11:46:30Z</time>
      </trkpt>
      <trkpt lat="43.11957098543644" lon="0.376208983361721">
        <ele>595.66999999999996</ele>
        <time>2025-04-26T11:46:31Z</time>
      </trkpt>
      <trkpt lat="43.119510971009731" lon="0.376114016398788">
        <ele>595.66999999999996</ele>
        <time>2025-04-26T11:46:32Z</time>
      </trkpt>
      <trkpt lat="43.119440982118249" lon="0.376001028344035">
        <ele>595.66999999999996</ele>
        <time>2025-04-26T11:46:33Z</time>
      </trkpt>
      <trkpt lat="43.119362024590373" lon="0.375874964520335">
        <ele>595.66999999999996</ele>
        <time>2025-04-26T11:46:34Z</time>
      </trkpt>
      <trkpt lat="43.118794988840818" lon="0.374590018764138">
        <ele>593.26999999999998</ele>
        <time>2025-04-26T11:46:42Z</time>
      </trkpt>
      <trkpt lat="43.118041036650538" lon="0.372716998681426">
        <ele>592.78999999999996</ele>
        <time>2025-04-26T11:46:52Z</time>
      </trkpt>
      <trkpt lat="43.117047026753426" lon="0.370159009471536">
        <ele>600.96000000000004</ele>
        <time>2025-04-26T11:47:05Z</time>
      </trkpt>
      <trkpt lat="43.116143960505724" lon="0.367767987772822">
        <ele>607.69000000000005</ele>
        <time>2025-04-26T11:47:17Z</time>
      </trkpt>
      <trkpt lat="43.114970996975899" lon="0.364770032465458">
        <ele>615.86000000000001</ele>
        <time>2025-04-26T11:47:32Z</time>
      </trkpt>
      <trkpt lat="43.114215033128858" lon="0.362804979085922">
        <ele>615.38</ele>
        <time>2025-04-26T11:47:41Z</time>
      </trkpt>
      <trkpt lat="43.113537020981312" lon="0.361071014776826">
        <ele>616.82000000000005</ele>
        <time>2025-04-26T11:47:49Z</time>
      </trkpt>
      <trkpt lat="43.112862026318908" lon="0.359200006350875">
        <ele>619.23000000000002</ele>
        <time>2025-04-26T11:47:58Z</time>
      </trkpt>
      <trkpt lat="43.112807041034102" lon="0.358988028019667">
        <ele>618.75</ele>
        <time>2025-04-26T11:47:59Z</time>
      </trkpt>
      <trkpt lat="43.112754989415407" lon="0.358793986961246">
        <ele>618.75</ele>
        <time>2025-04-26T11:48:00Z</time>
      </trkpt>
      <trkpt lat="43.112732023000717" lon="0.358585026115179">
        <ele>618.75</ele>
        <time>2025-04-26T11:48:01Z</time>
      </trkpt>
      <trkpt lat="43.112709978595376" lon="0.358386039733887">
        <ele>618.25999999999999</ele>
        <time>2025-04-26T11:48:02Z</time>
      </trkpt>
      <trkpt lat="43.112563965842128" lon="0.356574039906263">
        <ele>614.89999999999998</ele>
        <time>2025-04-26T11:48:12Z</time>
      </trkpt>
      <trkpt lat="43.112531024962664" lon="0.356176989153028">
        <ele>613.94000000000005</ele>
        <time>2025-04-26T11:48:15Z</time>
      </trkpt>
      <trkpt lat="43.112605037167668" lon="0.355983031913638">
        <ele>613.94000000000005</ele>
        <time>2025-04-26T11:48:16Z</time>
      </trkpt>
      <trkpt lat="43.112633032724261" lon="0.355809023603797">
        <ele>613.94000000000005</ele>
        <time>2025-04-26T11:48:18Z</time>
      </trkpt>
      <trkpt lat="43.112605037167668" lon="0.355725036934018">
        <ele>614.41999999999996</ele>
        <time>2025-04-26T11:48:19Z</time>
      </trkpt>
      <trkpt lat="43.112490959465504" lon="0.355614982545376">
        <ele>613.94000000000005</ele>
        <time>2025-04-26T11:48:20Z</time>
      </trkpt>
      <trkpt lat="43.112477967515588" lon="0.355477016419172">
        <ele>613.94000000000005</ele>
        <time>2025-04-26T11:48:21Z</time>
      </trkpt>
      <trkpt lat="43.112462963908911" lon="0.355318011716008">
        <ele>613.94000000000005</ele>
        <time>2025-04-26T11:48:22Z</time>
      </trkpt>
      <trkpt lat="43.112446032464504" lon="0.355141991749406">
        <ele>613.94000000000005</ele>
        <time>2025-04-26T11:48:23Z</time>
      </trkpt>
      <trkpt lat="43.11215702444315" lon="0.353328986093402">
        <ele>611.05999999999995</ele>
        <time>2025-04-26T11:48:32Z</time>
      </trkpt>
      <trkpt lat="43.112079994753003" lon="0.353121031075716">
        <ele>610.57000000000005</ele>
        <time>2025-04-26T11:48:33Z</time>
      </trkpt>
      <trkpt lat="43.11196499504149" lon="0.352936964482069">
        <ele>609.61000000000001</ele>
        <time>2025-04-26T11:48:34Z</time>
      </trkpt>
      <trkpt lat="43.111839015036821" lon="0.352773014456034">
        <ele>609.13</ele>
        <time>2025-04-26T11:48:35Z</time>
      </trkpt>
      <trkpt lat="43.111688978970051" lon="0.352631025016308">
        <ele>608.64999999999998</ele>
        <time>2025-04-26T11:48:36Z</time>
      </trkpt>
      <trkpt lat="43.111537015065551" lon="0.352487023919821">
        <ele>608.16999999999996</ele>
        <time>2025-04-26T11:48:37Z</time>
      </trkpt>
      <trkpt lat="43.111375998705626" lon="0.352372024208307">
        <ele>607.69000000000005</ele>
        <time>2025-04-26T11:48:38Z</time>
      </trkpt>
      <trkpt lat="43.111202996224165" lon="0.352280996739864">
        <ele>607.21000000000004</ele>
        <time>2025-04-26T11:48:39Z</time>
      </trkpt>
      <trkpt lat="43.111023958772421" lon="0.352208996191621">
        <ele>606.73000000000002</ele>
        <time>2025-04-26T11:48:40Z</time>
      </trkpt>
      <trkpt lat="43.110835030674934" lon="0.35216398537159">
        <ele>605.76999999999998</ele>
        <time>2025-04-26T11:48:41Z</time>
      </trkpt>
      <trkpt lat="43.110647024586797" lon="0.352119980379939">
        <ele>605.28999999999996</ele>
        <time>2025-04-26T11:48:42Z</time>
      </trkpt>
      <trkpt lat="43.109039040282369" lon="0.351995006203651">
        <ele>598.55999999999995</ele>
        <time>2025-04-26T11:48:51Z</time>
      </trkpt>
      <trkpt lat="43.108375025913119" lon="0.351877994835377">
        <ele>596.14999999999998</ele>
        <time>2025-04-26T11:48:55Z</time>
      </trkpt>
      <trkpt lat="43.108217027038336" lon="0.351784033700824">
        <ele>595.66999999999996</ele>
        <time>2025-04-26T11:48:56Z</time>
      </trkpt>
      <trkpt lat="43.108058022335172" lon="0.351687977090478">
        <ele>595.19000000000005</ele>
        <time>2025-04-26T11:48:57Z</time>
      </trkpt>
      <trkpt lat="43.107919972389936" lon="0.351551016792655">
        <ele>594.71000000000004</ele>
        <time>2025-04-26T11:48:58Z</time>
      </trkpt>
      <trkpt lat="43.107793992385268" lon="0.351381031796336">
        <ele>594.23000000000002</ele>
        <time>2025-04-26T11:48:59Z</time>
      </trkpt>
      <trkpt lat="43.107669018208981" lon="0.351211968809366">
        <ele>594.23000000000002</ele>
        <time>2025-04-26T11:49:00Z</time>
      </trkpt>
      <trkpt lat="43.107569022104144" lon="0.351020023226738">
        <ele>594.23000000000002</ele>
        <time>2025-04-26T11:49:01Z</time>
      </trkpt>
      <trkpt lat="43.107476988807321" lon="0.350809972733259">
        <ele>594.23000000000002</ele>
        <time>2025-04-26T11:49:02Z</time>
      </trkpt>
      <trkpt lat="43.106533018872142" lon="0.348514001816511">
        <ele>592.30999999999995</ele>
        <time>2025-04-26T11:49:13Z</time>
      </trkpt>
      <trkpt lat="43.105360977351665" lon="0.346571998670697">
        <ele>590.38999999999999</ele>
        <time>2025-04-26T11:49:24Z</time>
      </trkpt>
      <trkpt lat="43.104872982949018" lon="0.345817040652037">
        <ele>588.46000000000004</ele>
        <time>2025-04-26T11:49:29Z</time>
      </trkpt>
      <trkpt lat="43.10468296520412" lon="0.345336003229022">
        <ele>587.5</ele>
        <time>2025-04-26T11:49:32Z</time>
      </trkpt>
      <trkpt lat="43.10463803820312" lon="0.345183033496141">
        <ele>587.01999999999998</ele>
        <time>2025-04-26T11:49:33Z</time>
      </trkpt>
      <trkpt lat="43.104599984362721" lon="0.345043977722526">
        <ele>587.01999999999998</ele>
        <time>2025-04-26T11:49:34Z</time>
      </trkpt>
      <trkpt lat="43.104585986584425" lon="0.3449019882828">
        <ele>586.53999999999996</ele>
        <time>2025-04-26T11:49:35Z</time>
      </trkpt>
      <trkpt lat="43.104593027383089" lon="0.344780031591654">
        <ele>586.05999999999995</ele>
        <time>2025-04-26T11:49:36Z</time>
      </trkpt>
      <trkpt lat="43.104623034596443" lon="0.344632007181644">
        <ele>586.05999999999995</ele>
        <time>2025-04-26T11:49:37Z</time>
      </trkpt>
      <trkpt lat="43.104606019333005" lon="0.344511978328228">
        <ele>585.58000000000004</ele>
        <time>2025-04-26T11:49:38Z</time>
      </trkpt>
      <trkpt lat="43.104537958279252" lon="0.344402007758617">
        <ele>585.58000000000004</ele>
        <time>2025-04-26T11:49:39Z</time>
      </trkpt>
      <trkpt lat="43.104515997692943" lon="0.344374012202024">
        <ele>585.58000000000004</ele>
        <time>2025-04-26T11:49:40Z</time>
      </trkpt>
      <trkpt lat="43.104394041001797" lon="0.34434400498867">
        <ele>585.58000000000004</ele>
        <time>2025-04-26T11:49:41Z</time>
      </trkpt>
      <trkpt lat="43.104344001039863" lon="0.344331013038754">
        <ele>585.10000000000002</ele>
        <time>2025-04-26T11:49:42Z</time>
      </trkpt>
      <trkpt lat="43.1042539793998" lon="0.344124985858798">
        <ele>585.10000000000002</ele>
        <time>2025-04-26T11:49:43Z</time>
      </trkpt>
      <trkpt lat="43.104198994114995" lon="0.343996994197369">
        <ele>585.10000000000002</ele>
        <time>2025-04-26T11:49:44Z</time>
      </trkpt>
      <trkpt lat="43.104135040193796" lon="0.343847963958979">
        <ele>585.10000000000002</ele>
        <time>2025-04-26T11:49:45Z</time>
      </trkpt>
      <trkpt lat="43.103877967223525" lon="0.342571986839175">
        <ele>583.65999999999997</ele>
        <time>2025-04-26T11:49:51Z</time>
      </trkpt>
      <trkpt lat="43.10397301800549" lon="0.340729979798198">
        <ele>579.80999999999995</ele>
        <time>2025-04-26T11:49:58Z</time>
      </trkpt>
      <trkpt lat="43.1042539793998" lon="0.337629010900855">
        <ele>575.00999999999999</ele>
        <time>2025-04-26T11:50:09Z</time>
      </trkpt>
      <trkpt lat="43.1044249702245" lon="0.334816966205835">
        <ele>580.76999999999998</ele>
        <time>2025-04-26T11:50:19Z</time>
      </trkpt>
      <trkpt lat="43.104603001847863" lon="0.333040002733469">
        <ele>584.13999999999999</ele>
        <time>2025-04-26T11:50:26Z</time>
      </trkpt>
      <trkpt lat="43.104768041521311" lon="0.331727983430028">
        <ele>587.98000000000002</ele>
        <time>2025-04-26T11:50:34Z</time>
      </trkpt>
      <trkpt lat="43.10521898791194" lon="0.329541983082891">
        <ele>593.26999999999998</ele>
        <time>2025-04-26T11:50:48Z</time>
      </trkpt>
      <trkpt lat="43.105700025334954" lon="0.327353971078992">
        <ele>597.60000000000002</ele>
        <time>2025-04-26T11:51:02Z</time>
      </trkpt>
      <trkpt lat="43.10616597533226" lon="0.32517802901566">
        <ele>597.60000000000002</ele>
        <time>2025-04-26T11:51:16Z</time>
      </trkpt>
      <trkpt lat="43.106180978938937" lon="0.325030004605651">
        <ele>597.60000000000002</ele>
        <time>2025-04-26T11:51:17Z</time>
      </trkpt>
      <trkpt lat="43.106161030009389" lon="0.324881980195642">
        <ele>597.60000000000002</ele>
        <time>2025-04-26T11:51:18Z</time>
      </trkpt>
      <trkpt lat="43.106107972562313" lon="0.324745019897819">
        <ele>597.60000000000002</ele>
        <time>2025-04-26T11:51:19Z</time>
      </trkpt>
      <trkpt lat="43.106041001155972" lon="0.324628008529544">
        <ele>597.60000000000002</ele>
        <time>2025-04-26T11:51:20Z</time>
      </trkpt>
      <trkpt lat="43.105959026142955" lon="0.324533963575959">
        <ele>597.60000000000002</ele>
        <time>2025-04-26T11:51:21Z</time>
      </trkpt>
      <trkpt lat="43.105887025594711" lon="0.324450982734561">
        <ele>598.08000000000004</ele>
        <time>2025-04-26T11:51:22Z</time>
      </trkpt>
      <trkpt lat="43.105817958712578" lon="0.324372025206685">
        <ele>598.08000000000004</ele>
        <time>2025-04-26T11:51:23Z</time>
      </trkpt>
      <trkpt lat="43.105757022276521" lon="0.324307987466455">
        <ele>598.08000000000004</ele>
        <time>2025-04-26T11:51:24Z</time>
      </trkpt>
      <trkpt lat="43.105760039761662" lon="0.324117969721556">
        <ele>598.08000000000004</ele>
        <time>2025-04-26T11:51:25Z</time>
      </trkpt>
      <trkpt lat="43.105748975649476" lon="0.324072036892176">
        <ele>598.08000000000004</ele>
        <time>2025-04-26T11:51:26Z</time>
      </trkpt>
      <trkpt lat="43.105702959001064" lon="0.323942033573985">
        <ele>598.08000000000004</ele>
        <time>2025-04-26T11:51:27Z</time>
      </trkpt>
      <trkpt lat="43.105625007301569" lon="0.323915965855122">
        <ele>598.08000000000004</ele>
        <time>2025-04-26T11:51:28Z</time>
      </trkpt>
      <trkpt lat="43.105587959289551" lon="0.323903979733586">
        <ele>598.08000000000004</ele>
        <time>2025-04-26T11:51:29Z</time>
      </trkpt>
      <trkpt lat="43.105427026748657" lon="0.323840025812387">
        <ele>598.08000000000004</ele>
        <time>2025-04-26T11:51:30Z</time>
      </trkpt>
      <trkpt lat="43.105380004271865" lon="0.323727959766984">
        <ele>598.55999999999995</ele>
        <time>2025-04-26T11:51:31Z</time>
      </trkpt>
      <trkpt lat="43.105328036472201" lon="0.323602985590696">
        <ele>598.55999999999995</ele>
        <time>2025-04-26T11:51:32Z</time>
      </trkpt>
      <trkpt lat="43.105268022045493" lon="0.323472982272506">
        <ele>598.55999999999995</ele>
        <time>2025-04-26T11:51:33Z</time>
      </trkpt>
      <trkpt lat="43.105204990133643" lon="0.323342978954315">
        <ele>599.03999999999996</ele>
        <time>2025-04-26T11:51:34Z</time>
      </trkpt>
      <trkpt lat="43.105013966560364" lon="0.322947017848492">
        <ele>599.03999999999996</ele>
        <time>2025-04-26T11:51:37Z</time>
      </trkpt>
      <trkpt lat="43.104499988257885" lon="0.321882013231516">
        <ele>600</ele>
        <time>2025-04-26T11:51:45Z</time>
      </trkpt>
      <trkpt lat="43.103833040222526" lon="0.320501010864973">
        <ele>599.03999999999996</ele>
        <time>2025-04-26T11:51:55Z</time>
      </trkpt>
      <trkpt lat="43.103256030008197" lon="0.319301979616284">
        <ele>600.96000000000004</ele>
        <time>2025-04-26T11:52:04Z</time>
      </trkpt>
      <trkpt lat="43.102525966241956" lon="0.317764990031719">
        <ele>607.21000000000004</ele>
        <time>2025-04-26T11:52:16Z</time>
      </trkpt>
      <trkpt lat="43.102305019274354" lon="0.317242965102196">
        <ele>609.61000000000001</ele>
        <time>2025-04-26T11:52:22Z</time>
      </trkpt>
      <trkpt lat="43.10227601788938" lon="0.31714498065412">
        <ele>610.09000000000003</ele>
        <time>2025-04-26T11:52:23Z</time>
      </trkpt>
      <trkpt lat="43.102227989584208" lon="0.316748013719916">
        <ele>611.05999999999995</ele>
        <time>2025-04-26T11:52:27Z</time>
      </trkpt>
      <trkpt lat="43.102240981534123" lon="0.316234035417438">
        <ele>612.98000000000002</ele>
        <time>2025-04-26T11:52:32Z</time>
      </trkpt>
      <trkpt lat="43.102240981534123" lon="0.316133033484221">
        <ele>613.94000000000005</ele>
        <time>2025-04-26T11:52:33Z</time>
      </trkpt>
      <trkpt lat="43.102259002625942" lon="0.316023984923959">
        <ele>614.41999999999996</ele>
        <time>2025-04-26T11:52:34Z</time>
      </trkpt>
      <trkpt lat="43.102303007617593" lon="0.315803037956357">
        <ele>615.38</ele>
        <time>2025-04-26T11:52:36Z</time>
      </trkpt>
      <trkpt lat="43.102541975677013" lon="0.31465002335608">
        <ele>612.01999999999998</ele>
        <time>2025-04-26T11:52:46Z</time>
      </trkpt>
      <trkpt lat="43.102568965405226" lon="0.314527982845902">
        <ele>612.01999999999998</ele>
        <time>2025-04-26T11:52:47Z</time>
      </trkpt>
      <trkpt lat="43.102830983698368" lon="0.313227027654648">
        <ele>610.09000000000003</ele>
        <time>2025-04-26T11:52:57Z</time>
      </trkpt>
      <trkpt lat="43.103128038346767" lon="0.311791962012649">
        <ele>609.61000000000001</ele>
        <time>2025-04-26T11:53:07Z</time>
      </trkpt>
      <trkpt lat="43.10319802723825" lon="0.3114939853549">
        <ele>609.61000000000001</ele>
        <time>2025-04-26T11:53:09Z</time>
      </trkpt>
      <trkpt lat="43.103360971435905" lon="0.310926027595997">
        <ele>609.61000000000001</ele>
        <time>2025-04-26T11:53:13Z</time>
      </trkpt>
      <trkpt lat="43.103577978909016" lon="0.310414982959628">
        <ele>609.61000000000001</ele>
        <time>2025-04-26T11:53:17Z</time>
      </trkpt>
      <trkpt lat="43.103646039962769" lon="0.310294032096863">
        <ele>609.61000000000001</ele>
        <time>2025-04-26T11:53:18Z</time>
      </trkpt>
      <trkpt lat="43.103729020804167" lon="0.310168974101543">
        <ele>609.61000000000001</ele>
        <time>2025-04-26T11:53:19Z</time>
      </trkpt>
      <trkpt lat="43.103828011080623" lon="0.310039976611733">
        <ele>609.61000000000001</ele>
        <time>2025-04-26T11:53:20Z</time>
      </trkpt>
      <trkpt lat="43.10392901301384" lon="0.309907961636782">
        <ele>609.13</ele>
        <time>2025-04-26T11:53:21Z</time>
      </trkpt>
      <trkpt lat="43.104011993855238" lon="0.30973001383245">
        <ele>608.64999999999998</ele>
        <time>2025-04-26T11:53:22Z</time>
      </trkpt>
      <trkpt lat="43.10457400046289" lon="0.308281034231186">
        <ele>604.33000000000004</ele>
        <time>2025-04-26T11:53:29Z</time>
      </trkpt>
      <trkpt lat="43.105254024267197" lon="0.306561989709735">
        <ele>600.96000000000004</ele>
        <time>2025-04-26T11:53:39Z</time>
      </trkpt>
      <trkpt lat="43.10603697784245" lon="0.304772034287453">
        <ele>595.66999999999996</ele>
        <time>2025-04-26T11:53:49Z</time>
      </trkpt>
      <trkpt lat="43.106920011341572" lon="0.303347026929259">
        <ele>585.58000000000004</ele>
        <time>2025-04-26T11:53:56Z</time>
      </trkpt>
      <trkpt lat="43.10807503759861" lon="0.301591018214822">
        <ele>575.49000000000001</ele>
        <time>2025-04-26T11:54:04Z</time>
      </trkpt>
      <trkpt lat="43.10945101082325" lon="0.299521023407578">
        <ele>565.38999999999999</ele>
        <time>2025-04-26T11:54:14Z</time>
      </trkpt>
      <trkpt lat="43.110459018498659" lon="0.298046981915832">
        <ele>555.29999999999995</ele>
        <time>2025-04-26T11:54:21Z</time>
      </trkpt>
      <trkpt lat="43.111513964831829" lon="0.297251036390662">
        <ele>546.16999999999996</ele>
        <time>2025-04-26T11:54:27Z</time>
      </trkpt>
      <trkpt lat="43.112557008862495" lon="0.296719036996365">
        <ele>537.50999999999999</ele>
        <time>2025-04-26T11:54:33Z</time>
      </trkpt>
      <trkpt lat="43.112686006352305" lon="0.296561038121581">
        <ele>536.07000000000005</ele>
        <time>2025-04-26T11:54:34Z</time>
      </trkpt>
      <trkpt lat="43.112812992185354" lon="0.296403961256146">
        <ele>535.11000000000001</ele>
        <time>2025-04-26T11:54:35Z</time>
      </trkpt>
      <trkpt lat="43.112935032695532" lon="0.296233976259828">
        <ele>534.14999999999998</ele>
        <time>2025-04-26T11:54:36Z</time>
      </trkpt>
      <trkpt lat="43.11304097995162" lon="0.296027027070522">
        <ele>533.19000000000005</ele>
        <time>2025-04-26T11:54:37Z</time>
      </trkpt>
      <trkpt lat="43.113135024905205" lon="0.295799961313605">
        <ele>532.23000000000002</ele>
        <time>2025-04-26T11:54:38Z</time>
      </trkpt>
      <trkpt lat="43.113232003524899" lon="0.295561999082565">
        <ele>531.26999999999998</ele>
        <time>2025-04-26T11:54:39Z</time>
      </trkpt>
      <trkpt lat="43.113603992387652" lon="0.293999025598168">
        <ele>526.94000000000005</ele>
        <time>2025-04-26T11:54:46Z</time>
      </trkpt>
      <trkpt lat="43.113721003755927" lon="0.292380983009934">
        <ele>517.80999999999995</ele>
        <time>2025-04-26T11:54:55Z</time>
      </trkpt>
      <trkpt lat="43.113657971844077" lon="0.290786996483803">
        <ele>506.75</ele>
        <time>2025-04-26T11:55:05Z</time>
      </trkpt>
      <trkpt lat="43.113563004881144" lon="0.289793992415071">
        <ele>500.98000000000002</ele>
        <time>2025-04-26T11:55:13Z</time>
      </trkpt>
      <trkpt lat="43.11346803791821" lon="0.288638966158032">
        <ele>497.62</ele>
        <time>2025-04-26T11:55:23Z</time>
      </trkpt>
      <trkpt lat="43.113458985462785" lon="0.288513991981745">
        <ele>497.62</ele>
        <time>2025-04-26T11:55:24Z</time>
      </trkpt>
      <trkpt lat="43.113450016826391" lon="0.288386000320315">
        <ele>497.62</ele>
        <time>2025-04-26T11:55:25Z</time>
      </trkpt>
      <trkpt lat="43.113443981856108" lon="0.288251973688602">
        <ele>497.62</ele>
        <time>2025-04-26T11:55:26Z</time>
      </trkpt>
      <trkpt lat="43.113464014604688" lon="0.288118030875921">
        <ele>497.62</ele>
        <time>2025-04-26T11:55:27Z</time>
      </trkpt>
      <trkpt lat="43.113609021529555" lon="0.287306997925043">
        <ele>499.06</ele>
        <time>2025-04-26T11:55:33Z</time>
      </trkpt>
      <trkpt lat="43.113656966015697" lon="0.287186969071627">
        <ele>500.01999999999998</ele>
        <time>2025-04-26T11:55:34Z</time>
      </trkpt>
      <trkpt lat="43.113891994580626" lon="0.286592021584511">
        <ele>502.91000000000003</ele>
        <time>2025-04-26T11:55:39Z</time>
      </trkpt>
      <trkpt lat="43.113940022885799" lon="0.286475010216236">
        <ele>503.38999999999999</ele>
        <time>2025-04-26T11:55:40Z</time>
      </trkpt>
      <trkpt lat="43.11400699429214" lon="0.286371996626258">
        <ele>504.35000000000002</ele>
        <time>2025-04-26T11:55:41Z</time>
      </trkpt>
      <trkpt lat="43.114279992878437" lon="0.285956002771854">
        <ele>506.26999999999998</ele>
        <time>2025-04-26T11:55:45Z</time>
      </trkpt>
      <trkpt lat="43.1143509875983" lon="0.285847960039973">
        <ele>507.23000000000002</ele>
        <time>2025-04-26T11:55:46Z</time>
      </trkpt>
      <trkpt lat="43.114950964227319" lon="0.284483972936869">
        <ele>514.44000000000005</ele>
        <time>2025-04-26T11:55:56Z</time>
      </trkpt>
      <trkpt lat="43.114977031946182" lon="0.284332009032369">
        <ele>515.39999999999998</ele>
        <time>2025-04-26T11:55:57Z</time>
      </trkpt>
      <trkpt lat="43.115134024992585" lon="0.283409999683499">
        <ele>518.28999999999996</ele>
        <time>2025-04-26T11:56:03Z</time>
      </trkpt>
      <trkpt lat="43.115180041640997" lon="0.283263986930251">
        <ele>518.28999999999996</ele>
        <time>2025-04-26T11:56:04Z</time>
      </trkpt>
      <trkpt lat="43.11542303301394" lon="0.282556973397732">
        <ele>517.33000000000004</ele>
        <time>2025-04-26T11:56:09Z</time>
      </trkpt>
      <trkpt lat="43.115547001361847" lon="0.282297972589731">
        <ele>516.37</ele>
        <time>2025-04-26T11:56:11Z</time>
      </trkpt>
      <trkpt lat="43.11589702963829" lon="0.281775025650859">
        <ele>512.03999999999996</ele>
        <time>2025-04-26T11:56:16Z</time>
      </trkpt>
      <trkpt lat="43.115976992994547" lon="0.281697995960712">
        <ele>511.56</ele>
        <time>2025-04-26T11:56:17Z</time>
      </trkpt>
      <trkpt lat="43.11652097851038" lon="0.281140012666583">
        <ele>506.75</ele>
        <time>2025-04-26T11:56:24Z</time>
      </trkpt>
      <trkpt lat="43.116583004593849" lon="0.281054014340043">
        <ele>506.26999999999998</ele>
        <time>2025-04-26T11:56:25Z</time>
      </trkpt>
      <trkpt lat="43.116661040112376" lon="0.280944965779781">
        <ele>505.79000000000002</ele>
        <time>2025-04-26T11:56:26Z</time>
      </trkpt>
      <trkpt lat="43.116704039275646" lon="0.28085301630199">
        <ele>506.26999999999998</ele>
        <time>2025-04-26T11:56:27Z</time>
      </trkpt>
      <trkpt lat="43.116751983761787" lon="0.280748996883631">
        <ele>506.26999999999998</ele>
        <time>2025-04-26T11:56:28Z</time>
      </trkpt>
      <trkpt lat="43.116981983184814" lon="0.280258990824223">
        <ele>510.12</ele>
        <time>2025-04-26T11:56:33Z</time>
      </trkpt>
      <trkpt lat="43.116957005113363" lon="0.280142985284328">
        <ele>511.07999999999998</ele>
        <time>2025-04-26T11:56:34Z</time>
      </trkpt>
      <trkpt lat="43.11692900955677" lon="0.280056986957788">
        <ele>512.03999999999996</ele>
        <time>2025-04-26T11:56:35Z</time>
      </trkpt>
      <trkpt lat="43.116862960159779" lon="0.280004013329744">
        <ele>513</ele>
        <time>2025-04-26T11:56:36Z</time>
      </trkpt>
      <trkpt lat="43.116793977096677" lon="0.279948022216558">
        <ele>513.96000000000004</ele>
        <time>2025-04-26T11:56:37Z</time>
      </trkpt>
      <trkpt lat="43.116718959063292" lon="0.27988700196147">
        <ele>514.44000000000005</ele>
        <time>2025-04-26T11:56:38Z</time>
      </trkpt>
      <trkpt lat="43.116566995158792" lon="0.279764039441943">
        <ele>514.91999999999996</ele>
        <time>2025-04-26T11:56:40Z</time>
      </trkpt>
      <trkpt lat="43.116488959640265" lon="0.279701007530093">
        <ele>514.91999999999996</ele>
        <time>2025-04-26T11:56:41Z</time>
      </trkpt>
      <trkpt lat="43.116436991840601" lon="0.279580978676677">
        <ele>514.44000000000005</ele>
        <time>2025-04-26T11:56:42Z</time>
      </trkpt>
      <trkpt lat="43.116382006555796" lon="0.279456004500389">
        <ele>514.44000000000005</ele>
        <time>2025-04-26T11:56:43Z</time>
      </trkpt>
      <trkpt lat="43.11632601544261" lon="0.279326001182199">
        <ele>513.96000000000004</ele>
        <time>2025-04-26T11:56:44Z</time>
      </trkpt>
      <trkpt lat="43.116268012672663" lon="0.279193986207247">
        <ele>513.48000000000002</ele>
        <time>2025-04-26T11:56:45Z</time>
      </trkpt>
      <trkpt lat="43.115825029090047" lon="0.278271976858377">
        <ele>507.23000000000002</ele>
        <time>2025-04-26T11:56:53Z</time>
      </trkpt>
      <trkpt lat="43.115755962207913" lon="0.27819100767374">
        <ele>506.26999999999998</ele>
        <time>2025-04-26T11:56:54Z</time>
      </trkpt>
      <trkpt lat="43.115683039650321" lon="0.278106015175581">
        <ele>505.31</ele>
        <time>2025-04-26T11:56:55Z</time>
      </trkpt>
      <trkpt lat="43.115384979173541" lon="0.27791297994554">
        <ele>502.43000000000001</ele>
        <time>2025-04-26T11:56:58Z</time>
      </trkpt>
      <trkpt lat="43.115277020260692" lon="0.277840979397297">
        <ele>500.98000000000002</ele>
        <time>2025-04-26T11:56:59Z</time>
      </trkpt>
      <trkpt lat="43.115186998620629" lon="0.277716005221009">
        <ele>500.01999999999998</ele>
        <time>2025-04-26T11:57:00Z</time>
      </trkpt>
      <trkpt lat="43.115112986415625" lon="0.277604022994637">
        <ele>498.57999999999998</ele>
        <time>2025-04-26T11:57:01Z</time>
      </trkpt>
      <trkpt lat="43.115080967545509" lon="0.277454992756248">
        <ele>497.62</ele>
        <time>2025-04-26T11:57:02Z</time>
      </trkpt>
      <trkpt lat="43.115064958110452" lon="0.277308980002999">
        <ele>496.66000000000003</ele>
        <time>2025-04-26T11:57:03Z</time>
      </trkpt>
      <trkpt lat="43.115063030272722" lon="0.277166990563273">
        <ele>495.22000000000003</ele>
        <time>2025-04-26T11:57:04Z</time>
      </trkpt>
      <trkpt lat="43.115113992244005" lon="0.277063976973295">
        <ele>494.25999999999999</ele>
        <time>2025-04-26T11:57:05Z</time>
      </trkpt>
      <trkpt lat="43.115159003064036" lon="0.276975966989994">
        <ele>493.76999999999998</ele>
        <time>2025-04-26T11:57:06Z</time>
      </trkpt>
      <trkpt lat="43.115226980298758" lon="0.27692299336195">
        <ele>492.81</ele>
        <time>2025-04-26T11:57:07Z</time>
      </trkpt>
      <trkpt lat="43.115321025252342" lon="0.276921987533569">
        <ele>492.32999999999998</ele>
        <time>2025-04-26T11:57:08Z</time>
      </trkpt>
      <trkpt lat="43.115410041064024" lon="0.276951994746923">
        <ele>491.85000000000002</ele>
        <time>2025-04-26T11:57:09Z</time>
      </trkpt>
      <trkpt lat="43.115516994148493" lon="0.277004968374968">
        <ele>490.88999999999999</ele>
        <time>2025-04-26T11:57:10Z</time>
      </trkpt>
      <trkpt lat="43.115621013566852" lon="0.277088033035398">
        <ele>490.41000000000003</ele>
        <time>2025-04-26T11:57:11Z</time>
      </trkpt>
      <trkpt lat="43.116221996024251" lon="0.277536967769265">
        <ele>487.52999999999997</ele>
        <time>2025-04-26T11:57:16Z</time>
      </trkpt>
      <trkpt lat="43.116351999342442" lon="0.277597988024354">
        <ele>487.05000000000001</ele>
        <time>2025-04-26T11:57:17Z</time>
      </trkpt>
      <trkpt lat="43.11647797934711" lon="0.277658002451062">
        <ele>486.07999999999998</ele>
        <time>2025-04-26T11:57:18Z</time>
      </trkpt>
      <trkpt lat="43.116590967401862" lon="0.277658002451062">
        <ele>485.12</ele>
        <time>2025-04-26T11:57:19Z</time>
      </trkpt>
      <trkpt lat="43.116681994870305" lon="0.277619026601315">
        <ele>484.16000000000003</ele>
        <time>2025-04-26T11:57:20Z</time>
      </trkpt>
      <trkpt lat="43.116780985146761" lon="0.27748198248446">
        <ele>483.19999999999999</ele>
        <time>2025-04-26T11:57:21Z</time>
      </trkpt>
      <trkpt lat="43.116849968209863" lon="0.277322977781296">
        <ele>482.72000000000003</ele>
        <time>2025-04-26T11:57:22Z</time>
      </trkpt>
      <trkpt lat="43.116921968758106" lon="0.277156010270119">
        <ele>481.75999999999999</ele>
        <time>2025-04-26T11:57:23Z</time>
      </trkpt>
      <trkpt lat="43.116995980963111" lon="0.276985019445419">
        <ele>480.80000000000001</ele>
        <time>2025-04-26T11:57:24Z</time>
      </trkpt>
      <trkpt lat="43.117066975682974" lon="0.276817968115211">
        <ele>479.83999999999997</ele>
        <time>2025-04-26T11:57:25Z</time>
      </trkpt>
      <trkpt lat="43.117191027849913" lon="0.276499958708882">
        <ele>476.94999999999999</ele>
        <time>2025-04-26T11:57:27Z</time>
      </trkpt>
      <trkpt lat="43.117212988436222" lon="0.276356963440776">
        <ele>475.50999999999999</ele>
        <time>2025-04-26T11:57:28Z</time>
      </trkpt>
      <trkpt lat="43.117172000929713" lon="0.276218997314572">
        <ele>474.06999999999999</ele>
        <time>2025-04-26T11:57:29Z</time>
      </trkpt>
      <trkpt lat="43.117110980674624" lon="0.276087988168001">
        <ele>473.11000000000001</ele>
        <time>2025-04-26T11:57:30Z</time>
      </trkpt>
      <trkpt lat="43.117024982348084" lon="0.275947004556656">
        <ele>472.13999999999999</ele>
        <time>2025-04-26T11:57:31Z</time>
      </trkpt>
      <trkpt lat="43.11632702127099" lon="0.274635991081595">
        <ele>464.93000000000001</ele>
        <time>2025-04-26T11:57:38Z</time>
      </trkpt>
      <trkpt lat="43.116234987974167" lon="0.274441028013825">
        <ele>463.97000000000003</ele>
        <time>2025-04-26T11:57:39Z</time>
      </trkpt>
      <trkpt lat="43.116145972162485" lon="0.274251010268927">
        <ele>463.00999999999999</ele>
        <time>2025-04-26T11:57:40Z</time>
      </trkpt>
      <trkpt lat="43.116124011576176" lon="0.274017993360758">
        <ele>462.05000000000001</ele>
        <time>2025-04-26T11:57:41Z</time>
      </trkpt>
      <trkpt lat="43.116059973835945" lon="0.272280005738139">
        <ele>454.83999999999997</ele>
        <time>2025-04-26T11:57:48Z</time>
      </trkpt>
      <trkpt lat="43.116044970229268" lon="0.271867029368877">
        <ele>451.95999999999998</ele>
        <time>2025-04-26T11:57:50Z</time>
      </trkpt>
      <trkpt lat="43.115977998822927" lon="0.271673994138837">
        <ele>450.51999999999998</ele>
        <time>2025-04-26T11:57:51Z</time>
      </trkpt>
      <trkpt lat="43.115908009931445" lon="0.271468972787261">
        <ele>449.06999999999999</ele>
        <time>2025-04-26T11:57:52Z</time>
      </trkpt>
      <trkpt lat="43.115664012730122" lon="0.270906966179609">
        <ele>444.26999999999998</ele>
        <time>2025-04-26T11:57:55Z</time>
      </trkpt>
      <trkpt lat="43.11557600274682" lon="0.270745027810335">
        <ele>442.81999999999999</ele>
        <time>2025-04-26T11:57:56Z</time>
      </trkpt>
      <trkpt lat="43.115473994985223" lon="0.270642014220357">
        <ele>441.38</ele>
        <time>2025-04-26T11:57:57Z</time>
      </trkpt>
      <trkpt lat="43.11533804051578" lon="0.270550986751914">
        <ele>440.42000000000002</ele>
        <time>2025-04-26T11:57:58Z</time>
      </trkpt>
      <trkpt lat="43.115195967257023" lon="0.27045601978898">
        <ele>438.98000000000002</ele>
        <time>2025-04-26T11:57:59Z</time>
      </trkpt>
      <trkpt lat="43.115054983645678" lon="0.270361974835396">
        <ele>438.01999999999998</ele>
        <time>2025-04-26T11:58:00Z</time>
      </trkpt>
      <trkpt lat="43.114910982549191" lon="0.270266002044082">
        <ele>437.06</ele>
        <time>2025-04-26T11:58:01Z</time>
      </trkpt>
      <trkpt lat="43.114760024473071" lon="0.270156031474471">
        <ele>436.10000000000002</ele>
        <time>2025-04-26T11:58:02Z</time>
      </trkpt>
      <trkpt lat="43.114643013104796" lon="0.269990991801023">
        <ele>434.64999999999998</ele>
        <time>2025-04-26T11:58:03Z</time>
      </trkpt>
      <trkpt lat="43.114524995908141" lon="0.269823018461466">
        <ele>433.20999999999998</ele>
        <time>2025-04-26T11:58:04Z</time>
      </trkpt>
      <trkpt lat="43.114405972883105" lon="0.269654039293528">
        <ele>432.25</ele>
        <time>2025-04-26T11:58:05Z</time>
      </trkpt>
      <trkpt lat="43.113893000409007" lon="0.268979966640472">
        <ele>426.95999999999998</ele>
        <time>2025-04-26T11:58:09Z</time>
      </trkpt>
      <trkpt lat="43.113740030676126" lon="0.268838983029127">
        <ele>425.51999999999998</ele>
        <time>2025-04-26T11:58:10Z</time>
      </trkpt>
      <trkpt lat="43.113571973517537" lon="0.268738986924291">
        <ele>423.60000000000002</ele>
        <time>2025-04-26T11:58:11Z</time>
      </trkpt>
      <trkpt lat="43.113391008228064" lon="0.268690036609769">
        <ele>422.16000000000003</ele>
        <time>2025-04-26T11:58:12Z</time>
      </trkpt>
      <trkpt lat="43.113200990483165" lon="0.268656006082892">
        <ele>420.70999999999998</ele>
        <time>2025-04-26T11:58:13Z</time>
      </trkpt>
      <trkpt lat="43.113011978566647" lon="0.268621975556016">
        <ele>419.75</ele>
        <time>2025-04-26T11:58:14Z</time>
      </trkpt>
      <trkpt lat="43.111762991175056" lon="0.268707973882556">
        <ele>412.06</ele>
        <time>2025-04-26T11:58:21Z</time>
      </trkpt>
      <trkpt lat="43.111590994521976" lon="0.268805958330631">
        <ele>410.62</ele>
        <time>2025-04-26T11:58:22Z</time>
      </trkpt>
      <trkpt lat="43.110773004591465" lon="0.269202003255486">
        <ele>401.49000000000001</ele>
        <time>2025-04-26T11:58:27Z</time>
      </trkpt>
      <trkpt lat="43.110466981306672" lon="0.269249025732279">
        <ele>398.12</ele>
        <time>2025-04-26T11:58:29Z</time>
      </trkpt>
      <trkpt lat="43.110333038493991" lon="0.269235027953982">
        <ele>396.19999999999999</ele>
        <time>2025-04-26T11:58:30Z</time>
      </trkpt>
      <trkpt lat="43.110232958570123" lon="0.269190017133951">
        <ele>394.75999999999999</ele>
        <time>2025-04-26T11:58:31Z</time>
      </trkpt>
      <trkpt lat="43.11013899743557" lon="0.269121034070849">
        <ele>393.31999999999999</ele>
        <time>2025-04-26T11:58:32Z</time>
      </trkpt>
      <trkpt lat="43.110051993280649" lon="0.269058002158999">
        <ele>391.87</ele>
        <time>2025-04-26T11:58:33Z</time>
      </trkpt>
      <trkpt lat="43.110000025480986" lon="0.268941996619105">
        <ele>390.43000000000001</ele>
        <time>2025-04-26T11:58:34Z</time>
      </trkpt>
      <trkpt lat="43.1099440343678" lon="0.268815010786057">
        <ele>388.99000000000001</ele>
        <time>2025-04-26T11:58:35Z</time>
      </trkpt>
      <trkpt lat="43.109887037426233" lon="0.268686013296247">
        <ele>387.55000000000001</ele>
        <time>2025-04-26T11:58:36Z</time>
      </trkpt>
      <trkpt lat="43.109862981364131" lon="0.268542012199759">
        <ele>386.11000000000001</ele>
        <time>2025-04-26T11:58:37Z</time>
      </trkpt>
      <trkpt lat="43.109841020777822" lon="0.268374960869551">
        <ele>385.14999999999998</ele>
        <time>2025-04-26T11:58:38Z</time>
      </trkpt>
      <trkpt lat="43.1098179705441" lon="0.268201036378741">
        <ele>384.18000000000001</ele>
        <time>2025-04-26T11:58:39Z</time>
      </trkpt>
      <trkpt lat="43.10979500412941" lon="0.268028033897281">
        <ele>382.25999999999999</ele>
        <time>2025-04-26T11:58:40Z</time>
      </trkpt>
      <trkpt lat="43.109833979979157" lon="0.267305010929704">
        <ele>376.97000000000003</ele>
        <time>2025-04-26T11:58:44Z</time>
      </trkpt>
      <trkpt lat="43.109865998849273" lon="0.267135025933385">
        <ele>375.52999999999997</ele>
        <time>2025-04-26T11:58:45Z</time>
      </trkpt>
      <trkpt lat="43.109900029376149" lon="0.26697400957346">
        <ele>374.56999999999999</ele>
        <time>2025-04-26T11:58:46Z</time>
      </trkpt>
      <trkpt lat="43.109957026317716" lon="0.266694976016879">
        <ele>372.17000000000002</ele>
        <time>2025-04-26T11:58:48Z</time>
      </trkpt>
      <trkpt lat="43.10994696803391" lon="0.266571007668972">
        <ele>371.20999999999998</ele>
        <time>2025-04-26T11:58:49Z</time>
      </trkpt>
      <trkpt lat="43.10992400161922" lon="0.266467994078994">
        <ele>370.24000000000001</ele>
        <time>2025-04-26T11:58:50Z</time>
      </trkpt>
      <trkpt lat="43.109862981364131" lon="0.266421977430582">
        <ele>369.27999999999997</ele>
        <time>2025-04-26T11:58:51Z</time>
      </trkpt>
      <trkpt lat="43.109793998301029" lon="0.26637596078217">
        <ele>367.83999999999997</ele>
        <time>2025-04-26T11:58:52Z</time>
      </trkpt>
      <trkpt lat="43.109704982489347" lon="0.266410997137427">
        <ele>366.88</ele>
        <time>2025-04-26T11:58:53Z</time>
      </trkpt>
      <trkpt lat="43.109610015526414" lon="0.266448967158794">
        <ele>365.92000000000002</ele>
        <time>2025-04-26T11:58:54Z</time>
      </trkpt>
      <trkpt lat="43.10951798222959" lon="0.266522979363799">
        <ele>365.44</ele>
        <time>2025-04-26T11:58:55Z</time>
      </trkpt>
      <trkpt lat="43.108811974525452" lon="0.267377011477947">
        <ele>359.67000000000002</ele>
        <time>2025-04-26T11:59:03Z</time>
      </trkpt>
      <trkpt lat="43.10863696038723" lon="0.267523024231195">
        <ele>357.26999999999998</ele>
        <time>2025-04-26T11:59:06Z</time>
      </trkpt>
      <trkpt lat="43.108578035607934" lon="0.267571974545717">
        <ele>356.79000000000002</ele>
        <time>2025-04-26T11:59:07Z</time>
      </trkpt>
      <trkpt lat="43.10807797126472" lon="0.26779199950397">
        <ele>352.94</ele>
        <time>2025-04-26T11:59:13Z</time>
      </trkpt>
      <trkpt lat="43.108009994029999" lon="0.267751011997461">
        <ele>351.98000000000002</ele>
        <time>2025-04-26T11:59:14Z</time>
      </trkpt>
      <trkpt lat="43.107960959896445" lon="0.267698960378766">
        <ele>351.5</ele>
        <time>2025-04-26T11:59:15Z</time>
      </trkpt>
      <trkpt lat="43.107927013188601" lon="0.26759603060782">
        <ele>350.54000000000002</ele>
        <time>2025-04-26T11:59:16Z</time>
      </trkpt>
      <trkpt lat="43.107909997925162" lon="0.267483964562416">
        <ele>350.06</ele>
        <time>2025-04-26T11:59:17Z</time>
      </trkpt>
      <trkpt lat="43.107921984046698" lon="0.267358990386128">
        <ele>350.06</ele>
        <time>2025-04-26T11:59:18Z</time>
      </trkpt>
      <trkpt lat="43.107955008745193" lon="0.267221024259925">
        <ele>349.57999999999998</ele>
        <time>2025-04-26T11:59:19Z</time>
      </trkpt>
      <trkpt lat="43.108005970716476" lon="0.267075011506677">
        <ele>349.10000000000002</ele>
        <time>2025-04-26T11:59:20Z</time>
      </trkpt>
      <trkpt lat="43.108352981507778" lon="0.2660290338099">
        <ele>343.32999999999998</ele>
        <time>2025-04-26T11:59:26Z</time>
      </trkpt>
      <trkpt lat="43.108394974842668" lon="0.265845973044634">
        <ele>342.37</ele>
        <time>2025-04-26T11:59:27Z</time>
      </trkpt>
      <trkpt lat="43.108420958742499" lon="0.265656039118767">
        <ele>341.41000000000003</ele>
        <time>2025-04-26T11:59:28Z</time>
      </trkpt>
      <trkpt lat="43.108436968177557" lon="0.264921030029655">
        <ele>336.12</ele>
        <time>2025-04-26T11:59:32Z</time>
      </trkpt>
      <trkpt lat="43.108457000926137" lon="0.264745010063052">
        <ele>335.16000000000003</ele>
        <time>2025-04-26T11:59:33Z</time>
      </trkpt>
      <trkpt lat="43.108503017574549" lon="0.264575025066733">
        <ele>334.19999999999999</ele>
        <time>2025-04-26T11:59:34Z</time>
      </trkpt>
      <trkpt lat="43.108560014516115" lon="0.264423983171582">
        <ele>333.23000000000002</ele>
        <time>2025-04-26T11:59:35Z</time>
      </trkpt>
      <trkpt lat="43.108628997579217" lon="0.264284005388618">
        <ele>331.79000000000002</ele>
        <time>2025-04-26T11:59:36Z</time>
      </trkpt>
      <trkpt lat="43.108707033097744" lon="0.264171017333865">
        <ele>330.82999999999998</ele>
        <time>2025-04-26T11:59:37Z</time>
      </trkpt>
      <trkpt lat="43.108778027817607" lon="0.264069009572268">
        <ele>329.38999999999999</ele>
        <time>2025-04-26T11:59:38Z</time>
      </trkpt>
      <trkpt lat="43.10887198895216" lon="0.264001032337546">
        <ele>328.43000000000001</ele>
        <time>2025-04-26T11:59:39Z</time>
      </trkpt>
      <trkpt lat="43.108963016420603" lon="0.263940012082458">
        <ele>327.47000000000003</ele>
        <time>2025-04-26T11:59:40Z</time>
      </trkpt>
      <trkpt lat="43.10906401835382" lon="0.263873040676117">
        <ele>326.5</ele>
        <time>2025-04-26T11:59:41Z</time>
      </trkpt>
      <trkpt lat="43.109171977266669" lon="0.263801040127873">
        <ele>325.54000000000002</ele>
        <time>2025-04-26T11:59:42Z</time>
      </trkpt>
      <trkpt lat="43.10988200828433" lon="0.263445982709527">
        <ele>318.81</ele>
        <time>2025-04-26T11:59:50Z</time>
      </trkpt>
      <trkpt lat="43.109936993569136" lon="0.263369036838412">
        <ele>318.32999999999998</ele>
        <time>2025-04-26T11:59:51Z</time>
      </trkpt>
      <trkpt lat="43.109970018267632" lon="0.263270968571305">
        <ele>317.85000000000002</ele>
        <time>2025-04-26T11:59:52Z</time>
      </trkpt>
      <trkpt lat="43.109978986904025" lon="0.263140965253115">
        <ele>317.85000000000002</ele>
        <time>2025-04-26T11:59:53Z</time>
      </trkpt>
      <trkpt lat="43.10998996719718" lon="0.262993024662137">
        <ele>317.37</ele>
        <time>2025-04-26T11:59:54Z</time>
      </trkpt>
      <trkpt lat="43.110001031309366" lon="0.262829996645451">
        <ele>317.37</ele>
        <time>2025-04-26T11:59:55Z</time>
      </trkpt>
      <trkpt lat="43.109883014112711" lon="0.261091003194451">
        <ele>311.60000000000002</ele>
        <time>2025-04-26T12:00:04Z</time>
      </trkpt>
      <trkpt lat="43.109658965840936" lon="0.25872697122395">
        <ele>305.36000000000001</ele>
        <time>2025-04-26T12:00:16Z</time>
      </trkpt>
      <trkpt lat="43.109640022739768" lon="0.257010022178292">
        <ele>307.75999999999999</ele>
        <time>2025-04-26T12:00:25Z</time>
      </trkpt>
      <trkpt lat="43.109730966389179" lon="0.254938015714288">
        <ele>312.56999999999999</ele>
        <time>2025-04-26T12:00:35Z</time>
      </trkpt>
      <trkpt lat="43.109785029664636" lon="0.252832984551787">
        <ele>315.93000000000001</ele>
        <time>2025-04-26T12:00:44Z</time>
      </trkpt>
      <trkpt lat="43.109801961109042" lon="0.251475032418966">
        <ele>319.77999999999997</ele>
        <time>2025-04-26T12:00:50Z</time>
      </trkpt>
      <trkpt lat="43.109770026057959" lon="0.251245032995939">
        <ele>320.74000000000001</ele>
        <time>2025-04-26T12:00:51Z</time>
      </trkpt>
      <trkpt lat="43.109718980267644" lon="0.25101101025939">
        <ele>322.18000000000001</ele>
        <time>2025-04-26T12:00:52Z</time>
      </trkpt>
      <trkpt lat="43.109552012756467" lon="0.250250017270446">
        <ele>325.54000000000002</ele>
        <time>2025-04-26T12:00:55Z</time>
      </trkpt>
      <trkpt lat="43.109496021643281" lon="0.249991016462445">
        <ele>326.5</ele>
        <time>2025-04-26T12:00:56Z</time>
      </trkpt>
      <trkpt lat="43.109526028856635" lon="0.249761017039418">
        <ele>327.47000000000003</ele>
        <time>2025-04-26T12:00:57Z</time>
      </trkpt>
      <trkpt lat="43.10956098139286" lon="0.249523976817727">
        <ele>328.91000000000003</ele>
        <time>2025-04-26T12:00:58Z</time>
      </trkpt>
      <trkpt lat="43.109598029404879" lon="0.249272016808391">
        <ele>330.35000000000002</ele>
        <time>2025-04-26T12:00:59Z</time>
      </trkpt>
      <trkpt lat="43.109707999974489" lon="0.248586963862181">
        <ele>333.70999999999998</ele>
        <time>2025-04-26T12:01:02Z</time>
      </trkpt>
      <trkpt lat="43.109716968610883" lon="0.248427037149668">
        <ele>334.68000000000001</ele>
        <time>2025-04-26T12:01:03Z</time>
      </trkpt>
      <trkpt lat="43.109741024672985" lon="0.248007019981742">
        <ele>339</ele>
        <time>2025-04-26T12:01:07Z</time>
      </trkpt>
      <trkpt lat="43.109743036329746" lon="0.247963014990091">
        <ele>339.95999999999998</ele>
        <time>2025-04-26T12:01:08Z</time>
      </trkpt>
      <trkpt lat="43.109962977468967" lon="0.248043984174728">
        <ele>345.25</ele>
        <time>2025-04-26T12:01:14Z</time>
      </trkpt>
      <trkpt lat="43.110045958310366" lon="0.248299967497587">
        <ele>350.54000000000002</ele>
        <time>2025-04-26T12:01:21Z</time>
      </trkpt>
      <trkpt lat="43.110064985230565" lon="0.248329974710941">
        <ele>351.98000000000002</ele>
        <time>2025-04-26T12:01:34Z</time>
      </trkpt>
      <trkpt lat="43.110064985230565" lon="0.248329974710941">
        <ele>351.98000000000002</ele>
        <time>2025-04-26T12:01:47Z</time>
      </trkpt>
      <trkpt lat="43.110276041552424" lon="0.248537007719278">
        <ele>287.56999999999999</ele>
        <time>2025-04-26T12:07:51Z</time>
      </trkpt>
      <trkpt lat="43.110069008544087" lon="0.248216986656189">
        <ele>362.55000000000001</ele>
        <time>2025-04-26T12:08:40Z</time>
      </trkpt>
      <trkpt lat="43.110109996050596" lon="0.248208018019795">
        <ele>362.55000000000001</ele>
        <time>2025-04-26T12:09:33Z</time>
      </trkpt>
      <trkpt lat="43.110103039070964" lon="0.248221009969711">
        <ele>361.58999999999997</ele>
        <time>2025-04-26T12:10:28Z</time>
      </trkpt>
      <trkpt lat="43.110111001878977" lon="0.248221009969711">
        <ele>361.58999999999997</ele>
        <time>2025-04-26T12:11:21Z</time>
      </trkpt>
      <trkpt lat="43.110111001878977" lon="0.248231990262866">
        <ele>362.06999999999999</ele>
        <time>2025-04-26T12:12:15Z</time>
      </trkpt>
      <trkpt lat="43.110113013535738" lon="0.248230984434485">
        <ele>362.06999999999999</ele>
        <time>2025-04-26T12:12:18Z</time>
      </trkpt>
      <trkpt lat="43.110031960532069" lon="0.248080026358366">
        <ele>361.11000000000001</ele>
        <time>2025-04-26T12:12:24Z</time>
      </trkpt>
      <trkpt lat="43.10975200496614" lon="0.247795963659883">
        <ele>357.75</ele>
        <time>2025-04-26T12:12:33Z</time>
      </trkpt>
      <trkpt lat="43.109756028279662" lon="0.247718011960387">
        <ele>357.26999999999998</ele>
        <time>2025-04-26T12:12:34Z</time>
      </trkpt>
      <trkpt lat="43.109760973602533" lon="0.247614998370409">
        <ele>356.79000000000002</ele>
        <time>2025-04-26T12:12:35Z</time>
      </trkpt>
      <trkpt lat="43.109766002744436" lon="0.247495975345373">
        <ele>356.31</ele>
        <time>2025-04-26T12:12:36Z</time>
      </trkpt>
      <trkpt lat="43.109766002744436" lon="0.247495975345373">
        <ele>355.82999999999998</ele>
        <time>2025-04-26T12:12:37Z</time>
      </trkpt>
      <trkpt lat="43.109804978594184" lon="0.247235968708992">
        <ele>355.33999999999997</ele>
        <time>2025-04-26T12:12:38Z</time>
      </trkpt>
      <trkpt lat="43.10983900912106" lon="0.247099008411169">
        <ele>354.86000000000001</ele>
        <time>2025-04-26T12:12:39Z</time>
      </trkpt>
      <trkpt lat="43.109875973314047" lon="0.246948972344399">
        <ele>354.38</ele>
        <time>2025-04-26T12:12:40Z</time>
      </trkpt>
      <trkpt lat="43.109942022711039" lon="0.246802037581801">
        <ele>354.38</ele>
        <time>2025-04-26T12:12:41Z</time>
      </trkpt>
      <trkpt lat="43.110018968582153" lon="0.246635992079973">
        <ele>354.38</ele>
        <time>2025-04-26T12:12:42Z</time>
      </trkpt>
      <trkpt lat="43.110550967976451" lon="0.245392033830285">
        <ele>357.26999999999998</ele>
        <time>2025-04-26T12:12:49Z</time>
      </trkpt>
      <trkpt lat="43.110606959089637" lon="0.245208973065019">
        <ele>357.75</ele>
        <time>2025-04-26T12:12:50Z</time>
      </trkpt>
      <trkpt lat="43.110636966302991" lon="0.245007975026965">
        <ele>358.70999999999998</ele>
        <time>2025-04-26T12:12:51Z</time>
      </trkpt>
      <trkpt lat="43.110647024586797" lon="0.244803037494421">
        <ele>359.67000000000002</ele>
        <time>2025-04-26T12:12:52Z</time>
      </trkpt>
      <trkpt lat="43.110634032636881" lon="0.2445899695158">
        <ele>361.11000000000001</ele>
        <time>2025-04-26T12:12:53Z</time>
      </trkpt>
      <trkpt lat="43.110593967139721" lon="0.244388971477747">
        <ele>362.55000000000001</ele>
        <time>2025-04-26T12:12:54Z</time>
      </trkpt>
      <trkpt lat="43.110552979633212" lon="0.244185961782932">
        <ele>364.48000000000002</ele>
        <time>2025-04-26T12:12:55Z</time>
      </trkpt>
      <trkpt lat="43.110459018498659" lon="0.243639964610338">
        <ele>369.75999999999999</ele>
        <time>2025-04-26T12:12:58Z</time>
      </trkpt>
      <trkpt lat="43.110478967428207" lon="0.243457993492484">
        <ele>371.69</ele>
        <time>2025-04-26T12:12:59Z</time>
      </trkpt>
      <trkpt lat="43.110544010996819" lon="0.243308041244745">
        <ele>373.61000000000001</ele>
        <time>2025-04-26T12:13:00Z</time>
      </trkpt>
      <trkpt lat="43.110608970746398" lon="0.243160016834736">
        <ele>375.52999999999997</ele>
        <time>2025-04-26T12:13:01Z</time>
      </trkpt>
      <trkpt lat="43.110695974901319" lon="0.243028001859784">
        <ele>376.97000000000003</ele>
        <time>2025-04-26T12:13:02Z</time>
      </trkpt>
      <trkpt lat="43.111223028972745" lon="0.241924021393061">
        <ele>386.11000000000001</ele>
        <time>2025-04-26T12:13:08Z</time>
      </trkpt>
      <trkpt lat="43.111308021470904" lon="0.241712965071201">
        <ele>387.55000000000001</ele>
        <time>2025-04-26T12:13:09Z</time>
      </trkpt>
      <trkpt lat="43.111440036445856" lon="0.241279033944011">
        <ele>389.94999999999999</ele>
        <time>2025-04-26T12:13:11Z</time>
      </trkpt>
      <trkpt lat="43.111464008688927" lon="0.241059008985758">
        <ele>391.38999999999999</ele>
        <time>2025-04-26T12:13:12Z</time>
      </trkpt>
      <trkpt lat="43.111511031165719" lon="0.240625999867916">
        <ele>394.27999999999997</ele>
        <time>2025-04-26T12:13:14Z</time>
      </trkpt>
      <trkpt lat="43.111614966765046" lon="0.240233978256583">
        <ele>397.16000000000003</ele>
        <time>2025-04-26T12:13:16Z</time>
      </trkpt>
      <trkpt lat="43.111720997840166" lon="0.240074973553419">
        <ele>399.07999999999998</ele>
        <time>2025-04-26T12:13:17Z</time>
      </trkpt>
      <trkpt lat="43.111829040572047" lon="0.239913035184145">
        <ele>400.52999999999997</ele>
        <time>2025-04-26T12:13:18Z</time>
      </trkpt>
      <trkpt lat="43.11194303445518" lon="0.239741960540414">
        <ele>402.44999999999999</ele>
        <time>2025-04-26T12:13:19Z</time>
      </trkpt>
      <trkpt lat="43.112064991146326" lon="0.23955998942256">
        <ele>404.85000000000002</ele>
        <time>2025-04-26T12:13:20Z</time>
      </trkpt>
      <trkpt lat="43.112938972190022" lon="0.238564973697066">
        <ele>416.87</ele>
        <time>2025-04-26T12:13:26Z</time>
      </trkpt>
      <trkpt lat="43.113253964111209" lon="0.238289041444659">
        <ele>420.70999999999998</ele>
        <time>2025-04-26T12:13:28Z</time>
      </trkpt>
      <trkpt lat="43.113411040976644" lon="0.238134982064366">
        <ele>422.63999999999999</ele>
        <time>2025-04-26T12:13:29Z</time>
      </trkpt>
      <trkpt lat="43.114088969305158" lon="0.237262006849051">
        <ele>432.25</ele>
        <time>2025-04-26T12:13:34Z</time>
      </trkpt>
      <trkpt lat="43.114243028685451" lon="0.237173996865749">
        <ele>434.17000000000002</ele>
        <time>2025-04-26T12:13:35Z</time>
      </trkpt>
      <trkpt lat="43.114397004246712" lon="0.237085986882448">
        <ele>436.10000000000002</ele>
        <time>2025-04-26T12:13:36Z</time>
      </trkpt>
      <trkpt lat="43.114555003121495" lon="0.236995965242386">
        <ele>438.01999999999998</ele>
        <time>2025-04-26T12:13:37Z</time>
      </trkpt>
      <trkpt lat="43.114718031138182" lon="0.236875014379621">
        <ele>439.45999999999998</ele>
        <time>2025-04-26T12:13:38Z</time>
      </trkpt>
      <trkpt lat="43.114869995042682" lon="0.236742999404669">
        <ele>441.38</ele>
        <time>2025-04-26T12:13:39Z</time>
      </trkpt>
      <trkpt lat="43.115020031109452" lon="0.236612996086478">
        <ele>442.81999999999999</ele>
        <time>2025-04-26T12:13:40Z</time>
      </trkpt>
      <trkpt lat="43.115153973922133" lon="0.23642398416996">
        <ele>444.26999999999998</ele>
        <time>2025-04-26T12:13:41Z</time>
      </trkpt>
      <trkpt lat="43.11525103636086" lon="0.236218040809035">
        <ele>445.23000000000002</ele>
        <time>2025-04-26T12:13:42Z</time>
      </trkpt>
      <trkpt lat="43.115351032465696" lon="0.236006984487176">
        <ele>446.67000000000002</ele>
        <time>2025-04-26T12:13:43Z</time>
      </trkpt>
      <trkpt lat="43.115559993311763" lon="0.235626026988029">
        <ele>449.06999999999999</ele>
        <time>2025-04-26T12:13:45Z</time>
      </trkpt>
      <trkpt lat="43.115675998851657" lon="0.235467022284865">
        <ele>450.51999999999998</ele>
        <time>2025-04-26T12:13:46Z</time>
      </trkpt>
      <trkpt lat="43.11581002548337" lon="0.235334001481533">
        <ele>451.95999999999998</ele>
        <time>2025-04-26T12:13:47Z</time>
      </trkpt>
      <trkpt lat="43.115950003266335" lon="0.235216990113258">
        <ele>453.39999999999998</ele>
        <time>2025-04-26T12:13:48Z</time>
      </trkpt>
      <trkpt lat="43.116105990484357" lon="0.235141972079873">
        <ele>454.36000000000001</ele>
        <time>2025-04-26T12:13:49Z</time>
      </trkpt>
      <trkpt lat="43.116273041814566" lon="0.23509000428021">
        <ele>455.80000000000001</ele>
        <time>2025-04-26T12:13:50Z</time>
      </trkpt>
      <trkpt lat="43.116446966305375" lon="0.23509000428021">
        <ele>457.24000000000001</ele>
        <time>2025-04-26T12:13:51Z</time>
      </trkpt>
      <trkpt lat="43.116631032899022" lon="0.23509000428021">
        <ele>458.69</ele>
        <time>2025-04-26T12:13:52Z</time>
      </trkpt>
      <trkpt lat="43.116809986531734" lon="0.23509000428021">
        <ele>460.13</ele>
        <time>2025-04-26T12:13:53Z</time>
      </trkpt>
      <trkpt lat="43.117090025916696" lon="0.23509000428021">
        <ele>463.00999999999999</ele>
        <time>2025-04-26T12:13:55Z</time>
      </trkpt>
      <trkpt lat="43.117221035063267" lon="0.235024960711598">
        <ele>464.44999999999999</ele>
        <time>2025-04-26T12:13:56Z</time>
      </trkpt>
      <trkpt lat="43.117322036996484" lon="0.23496201261878">
        <ele>465.89999999999998</ele>
        <time>2025-04-26T12:13:57Z</time>
      </trkpt>
      <trkpt lat="43.117411974817514" lon="0.234853969886899">
        <ele>466.86000000000001</ele>
        <time>2025-04-26T12:13:58Z</time>
      </trkpt>
      <trkpt lat="43.117432007566094" lon="0.234692031517625">
        <ele>468.30000000000001</ele>
        <time>2025-04-26T12:13:59Z</time>
      </trkpt>
      <trkpt lat="43.117454973980784" lon="0.234508970752358">
        <ele>469.74000000000001</ele>
        <time>2025-04-26T12:14:00Z</time>
      </trkpt>
      <trkpt lat="43.117476012557745" lon="0.23433898575604">
        <ele>471.18000000000001</ele>
        <time>2025-04-26T12:14:01Z</time>
      </trkpt>
      <trkpt lat="43.117543989792466" lon="0.234142011031508">
        <ele>472.63</ele>
        <time>2025-04-26T12:14:02Z</time>
      </trkpt>
      <trkpt lat="43.117610039189458" lon="0.23395299911499">
        <ele>473.58999999999997</ele>
        <time>2025-04-26T12:14:03Z</time>
      </trkpt>
      <trkpt lat="43.117697965353727" lon="0.233532981947064">
        <ele>476.47000000000003</ele>
        <time>2025-04-26T12:14:05Z</time>
      </trkpt>
      <trkpt lat="43.11772202141583" lon="0.233319997787476">
        <ele>477.43000000000001</ele>
        <time>2025-04-26T12:14:06Z</time>
      </trkpt>
      <trkpt lat="43.117714980617166" lon="0.23309201002121">
        <ele>478.87</ele>
        <time>2025-04-26T12:14:07Z</time>
      </trkpt>
      <trkpt lat="43.117683967575431" lon="0.232873996719718">
        <ele>480.31999999999999</ele>
        <time>2025-04-26T12:14:08Z</time>
      </trkpt>
      <trkpt lat="43.117652032524347" lon="0.232652965933084">
        <ele>481.75999999999999</ele>
        <time>2025-04-26T12:14:09Z</time>
      </trkpt>
      <trkpt lat="43.117624958977103" lon="0.232424978166819">
        <ele>483.19999999999999</ele>
        <time>2025-04-26T12:14:10Z</time>
      </trkpt>
      <trkpt lat="43.117605010047555" lon="0.231849979609251">
        <ele>488.49000000000001</ele>
        <time>2025-04-26T12:14:13Z</time>
      </trkpt>
      <trkpt lat="43.117682039737701" lon="0.231606988236308">
        <ele>489.93000000000001</ele>
        <time>2025-04-26T12:14:14Z</time>
      </trkpt>
      <trkpt lat="43.117736019194126" lon="0.231435997411609">
        <ele>491.37</ele>
        <time>2025-04-26T12:14:15Z</time>
      </trkpt>
      <trkpt lat="43.117839032784104" lon="0.231111031025648">
        <ele>494.25999999999999</ele>
        <time>2025-04-26T12:14:17Z</time>
      </trkpt>
      <trkpt lat="43.117883959785104" lon="0.230969963595271">
        <ele>495.69999999999999</ele>
        <time>2025-04-26T12:14:18Z</time>
      </trkpt>
      <trkpt lat="43.117836015298963" lon="0.230764020234346">
        <ele>496.18000000000001</ele>
        <time>2025-04-26T12:14:19Z</time>
      </trkpt>
      <trkpt lat="43.117795027792454" lon="0.230592023581266">
        <ele>497.62</ele>
        <time>2025-04-26T12:14:20Z</time>
      </trkpt>
      <trkpt lat="43.117754962295294" lon="0.230419021099806">
        <ele>498.57999999999998</ele>
        <time>2025-04-26T12:14:21Z</time>
      </trkpt>
      <trkpt lat="43.117705006152391" lon="0.230262028053403">
        <ele>499.54000000000002</ele>
        <time>2025-04-26T12:14:22Z</time>
      </trkpt>
      <trkpt lat="43.117640968412161" lon="0.230116015300155">
        <ele>500.5</ele>
        <time>2025-04-26T12:14:23Z</time>
      </trkpt>
      <trkpt lat="43.117528986185789" lon="0.229857014492154">
        <ele>502.91000000000003</ele>
        <time>2025-04-26T12:14:25Z</time>
      </trkpt>
      <trkpt lat="43.117472995072603" lon="0.229728017002344">
        <ele>503.87</ele>
        <time>2025-04-26T12:14:26Z</time>
      </trkpt>
      <trkpt lat="43.117413986474276" lon="0.229592984542251">
        <ele>504.35000000000002</ele>
        <time>2025-04-26T12:14:27Z</time>
      </trkpt>
      <trkpt lat="43.117154985666275" lon="0.229226024821401">
        <ele>506.75</ele>
        <time>2025-04-26T12:14:30Z</time>
      </trkpt>
      <trkpt lat="43.117072004824877" lon="0.229136003181338">
        <ele>508.19</ele>
        <time>2025-04-26T12:14:31Z</time>
      </trkpt>
      <trkpt lat="43.116967985406518" lon="0.229076994583011">
        <ele>509.16000000000003</ele>
        <time>2025-04-26T12:14:32Z</time>
      </trkpt>
      <trkpt lat="43.116852985695004" lon="0.229101972654462">
        <ele>509.63999999999999</ele>
        <time>2025-04-26T12:14:33Z</time>
      </trkpt>
      <trkpt lat="43.116733962669969" lon="0.229157963767648">
        <ele>510.60000000000002</ele>
        <time>2025-04-26T12:14:34Z</time>
      </trkpt>
      <trkpt lat="43.1166079826653" lon="0.229217978194356">
        <ele>511.56</ele>
        <time>2025-04-26T12:14:35Z</time>
      </trkpt>
      <trkpt lat="43.116531958803535" lon="0.229254020377994">
        <ele>512.51999999999998</ele>
        <time>2025-04-26T12:14:36Z</time>
      </trkpt>
      <trkpt lat="43.116368008777499" lon="0.229215966537595">
        <ele>513.48000000000002</ele>
        <time>2025-04-26T12:14:37Z</time>
      </trkpt>
      <trkpt lat="43.116234987974167" lon="0.229185037314892">
        <ele>514.91999999999996</ele>
        <time>2025-04-26T12:14:38Z</time>
      </trkpt>
      <trkpt lat="43.116234987974167" lon="0.229185037314892">
        <ele>515.39999999999998</ele>
        <time>2025-04-26T12:14:39Z</time>
      </trkpt>
      <trkpt lat="43.115959977731109" lon="0.229126028716564">
        <ele>516.37</ele>
        <time>2025-04-26T12:14:40Z</time>
      </trkpt>
      <trkpt lat="43.11581396497786" lon="0.229133991524577">
        <ele>516.85000000000002</ele>
        <time>2025-04-26T12:14:41Z</time>
      </trkpt>
      <trkpt lat="43.115657977759838" lon="0.229142960160971">
        <ele>517.33000000000004</ele>
        <time>2025-04-26T12:14:42Z</time>
      </trkpt>
      <trkpt lat="43.115502996370196" lon="0.229201968759298">
        <ele>518.76999999999998</ele>
        <time>2025-04-26T12:14:43Z</time>
      </trkpt>
      <trkpt lat="43.115370981395245" lon="0.229271035641432">
        <ele>520.21000000000004</ele>
        <time>2025-04-26T12:14:44Z</time>
      </trkpt>
      <trkpt lat="43.115249024704099" lon="0.22933398373425">
        <ele>521.16999999999996</ele>
        <time>2025-04-26T12:14:45Z</time>
      </trkpt>
      <trkpt lat="43.115136036649346" lon="0.229392992332578">
        <ele>522.61000000000001</ele>
        <time>2025-04-26T12:14:46Z</time>
      </trkpt>
      <trkpt lat="43.11503604054451" lon="0.229390980675817">
        <ele>523.58000000000004</ele>
        <time>2025-04-26T12:14:47Z</time>
      </trkpt>
      <trkpt lat="43.114946018904448" lon="0.229317974299192">
        <ele>524.05999999999995</ele>
        <time>2025-04-26T12:14:48Z</time>
      </trkpt>
      <trkpt lat="43.114875024184585" lon="0.229206997901201">
        <ele>525.01999999999998</ele>
        <time>2025-04-26T12:14:49Z</time>
      </trkpt>
      <trkpt lat="43.114833030849695" lon="0.22907598875463">
        <ele>525.98000000000002</ele>
        <time>2025-04-26T12:14:50Z</time>
      </trkpt>
      <trkpt lat="43.11482397839427" lon="0.228912960737944">
        <ele>526.94000000000005</ele>
        <time>2025-04-26T12:14:51Z</time>
      </trkpt>
      <trkpt lat="43.114815009757876" lon="0.228759991005063">
        <ele>527.89999999999998</ele>
        <time>2025-04-26T12:14:52Z</time>
      </trkpt>
      <trkpt lat="43.114859014749527" lon="0.2285819593817">
        <ele>528.38</ele>
        <time>2025-04-26T12:14:53Z</time>
      </trkpt>
      <trkpt lat="43.114903019741178" lon="0.228401999920607">
        <ele>528.38</ele>
        <time>2025-04-26T12:14:54Z</time>
      </trkpt>
      <trkpt lat="43.114950964227319" lon="0.228207958862185">
        <ele>528.86000000000001</ele>
        <time>2025-04-26T12:14:55Z</time>
      </trkpt>
      <trkpt lat="43.114999998360872" lon="0.228007966652513">
        <ele>528.86000000000001</ele>
        <time>2025-04-26T12:14:56Z</time>
      </trkpt>
      <trkpt lat="43.115131007507443" lon="0.22733498364687">
        <ele>530.29999999999995</ele>
        <time>2025-04-26T12:14:59Z</time>
      </trkpt>
      <trkpt lat="43.115243995562196" lon="0.226579019799829">
        <ele>533.19000000000005</ele>
        <time>2025-04-26T12:15:02Z</time>
      </trkpt>
      <trkpt lat="43.115238966420293" lon="0.226324964314699">
        <ele>533.66999999999996</ele>
        <time>2025-04-26T12:15:03Z</time>
      </trkpt>
      <trkpt lat="43.115234021097422" lon="0.226080967113376">
        <ele>534.63</ele>
        <time>2025-04-26T12:15:04Z</time>
      </trkpt>
      <trkpt lat="43.115229997783899" lon="0.225843004882336">
        <ele>535.59000000000003</ele>
        <time>2025-04-26T12:15:05Z</time>
      </trkpt>
      <trkpt lat="43.115224968641996" lon="0.225599007681012">
        <ele>536.54999999999995</ele>
        <time>2025-04-26T12:15:06Z</time>
      </trkpt>
      <trkpt lat="43.115239972248673" lon="0.225352998822927">
        <ele>537.99000000000001</ele>
        <time>2025-04-26T12:15:07Z</time>
      </trkpt>
      <trkpt lat="43.115400988608599" lon="0.224089007824659">
        <ele>542.32000000000005</ele>
        <time>2025-04-26T12:15:12Z</time>
      </trkpt>
      <trkpt lat="43.115473994985223" lon="0.223870994523168">
        <ele>541.84000000000003</ele>
        <time>2025-04-26T12:15:13Z</time>
      </trkpt>
      <trkpt lat="43.115560999140143" lon="0.223675025627017">
        <ele>539.91999999999996</ele>
        <time>2025-04-26T12:15:14Z</time>
      </trkpt>
      <trkpt lat="43.115873979404569" lon="0.22288897074759">
        <ele>534.63</ele>
        <time>2025-04-26T12:15:18Z</time>
      </trkpt>
      <trkpt lat="43.115887977182865" lon="0.222706999629736">
        <ele>534.14999999999998</ele>
        <time>2025-04-26T12:15:19Z</time>
      </trkpt>
      <trkpt lat="43.115887977182865" lon="0.222512958571315">
        <ele>534.14999999999998</ele>
        <time>2025-04-26T12:15:20Z</time>
      </trkpt>
      <trkpt lat="43.115846989676356" lon="0.222391001880169">
        <ele>534.14999999999998</ele>
        <time>2025-04-26T12:15:21Z</time>
      </trkpt>
      <trkpt lat="43.1157670263201" lon="0.222229985520244">
        <ele>534.14999999999998</ele>
        <time>2025-04-26T12:15:22Z</time>
      </trkpt>
      <trkpt lat="43.115686979144812" lon="0.222077015787363">
        <ele>533.66999999999996</ele>
        <time>2025-04-26T12:15:23Z</time>
      </trkpt>
      <trkpt lat="43.115565022453666" lon="0.221933014690876">
        <ele>533.66999999999996</ele>
        <time>2025-04-26T12:15:24Z</time>
      </trkpt>
      <trkpt lat="43.11510301195085" lon="0.221367990598083">
        <ele>534.63</ele>
        <time>2025-04-26T12:15:28Z</time>
      </trkpt>
      <trkpt lat="43.115032017230988" lon="0.221179984509945">
        <ele>535.11000000000001</ele>
        <time>2025-04-26T12:15:29Z</time>
      </trkpt>
      <trkpt lat="43.114958005025983" lon="0.220983009785414">
        <ele>535.11000000000001</ele>
        <time>2025-04-26T12:15:30Z</time>
      </trkpt>
      <trkpt lat="43.114879969507456" lon="0.220778994262218">
        <ele>535.59000000000003</ele>
        <time>2025-04-26T12:15:31Z</time>
      </trkpt>
      <trkpt lat="43.114773016422987" lon="0.220605991780758">
        <ele>536.07000000000005</ele>
        <time>2025-04-26T12:15:32Z</time>
      </trkpt>
      <trkpt lat="43.114660028368235" lon="0.220423014834523">
        <ele>536.07000000000005</ele>
        <time>2025-04-26T12:15:33Z</time>
      </trkpt>
      <trkpt lat="43.114536982029676" lon="0.220264010131359">
        <ele>536.07000000000005</ele>
        <time>2025-04-26T12:15:34Z</time>
      </trkpt>
      <trkpt lat="43.114391975104809" lon="0.220119003206491">
        <ele>536.07000000000005</ele>
        <time>2025-04-26T12:15:35Z</time>
      </trkpt>
      <trkpt lat="43.114248979836702" lon="0.219976007938385">
        <ele>536.54999999999995</ele>
        <time>2025-04-26T12:15:36Z</time>
      </trkpt>
      <trkpt lat="43.113415986299515" lon="0.219377037137747">
        <ele>537.02999999999997</ele>
        <time>2025-04-26T12:15:42Z</time>
      </trkpt>
      <trkpt lat="43.113311966881156" lon="0.219231024384499">
        <ele>537.50999999999999</ele>
        <time>2025-04-26T12:15:43Z</time>
      </trkpt>
      <trkpt lat="43.113209959119558" lon="0.219088029116392">
        <ele>537.99000000000001</ele>
        <time>2025-04-26T12:15:44Z</time>
      </trkpt>
      <trkpt lat="43.113165032118559" lon="0.218890970572829">
        <ele>537.99000000000001</ele>
        <time>2025-04-26T12:15:45Z</time>
      </trkpt>
      <trkpt lat="43.113120021298528" lon="0.218674968928099">
        <ele>538.48000000000002</ele>
        <time>2025-04-26T12:15:46Z</time>
      </trkpt>
      <trkpt lat="43.113133013248444" lon="0.218471037223935">
        <ele>538.96000000000004</ele>
        <time>2025-04-26T12:15:47Z</time>
      </trkpt>
      <trkpt lat="43.11314701102674" lon="0.218240031972528">
        <ele>539.44000000000005</ele>
        <time>2025-04-26T12:15:48Z</time>
      </trkpt>
      <trkpt lat="43.113176012411714" lon="0.216170959174633">
        <ele>546.16999999999996</ele>
        <time>2025-04-26T12:15:56Z</time>
      </trkpt>
      <trkpt lat="43.113036034628749" lon="0.214846031740308">
        <ele>550.49000000000001</ele>
        <time>2025-04-26T12:16:01Z</time>
      </trkpt>
      <trkpt lat="43.112449971958995" lon="0.212534973397851">
        <ele>560.11000000000001</ele>
        <time>2025-04-26T12:16:10Z</time>
      </trkpt>
      <trkpt lat="43.111886037513614" lon="0.209384970366955">
        <ele>566.35000000000002</ele>
        <time>2025-04-26T12:16:22Z</time>
      </trkpt>
      <trkpt lat="43.111134013161063" lon="0.205095028504729">
        <ele>580.28999999999996</ele>
        <time>2025-04-26T12:16:37Z</time>
      </trkpt>
      <trkpt lat="43.110813992097974" lon="0.203270958736539">
        <ele>587.98000000000002</ele>
        <time>2025-04-26T12:16:45Z</time>
      </trkpt>
      <trkpt lat="43.11074199154973" lon="0.202607028186321">
        <ele>589.90999999999997</ele>
        <time>2025-04-26T12:16:49Z</time>
      </trkpt>
      <trkpt lat="43.110758000984788" lon="0.202451040968299">
        <ele>589.90999999999997</ele>
        <time>2025-04-26T12:16:50Z</time>
      </trkpt>
      <trkpt lat="43.110773004591465" lon="0.202298993244767">
        <ele>589.90999999999997</ele>
        <time>2025-04-26T12:16:51Z</time>
      </trkpt>
      <trkpt lat="43.110811980441213" lon="0.202148035168648">
        <ele>589.42999999999995</ele>
        <time>2025-04-26T12:16:52Z</time>
      </trkpt>
      <trkpt lat="43.110864032059908" lon="0.202033035457134">
        <ele>589.42999999999995</ele>
        <time>2025-04-26T12:16:53Z</time>
      </trkpt>
      <trkpt lat="43.110950030386448" lon="0.201842011883855">
        <ele>589.42999999999995</ele>
        <time>2025-04-26T12:16:55Z</time>
      </trkpt>
      <trkpt lat="43.111081961542368" lon="0.201808987185359">
        <ele>589.42999999999995</ele>
        <time>2025-04-26T12:16:56Z</time>
      </trkpt>
      <trkpt lat="43.111111968755722" lon="0.201786020770669">
        <ele>589.42999999999995</ele>
        <time>2025-04-26T12:16:57Z</time>
      </trkpt>
      <trkpt lat="43.111177012324333" lon="0.201717037707567">
        <ele>589.90999999999997</ele>
        <time>2025-04-26T12:16:58Z</time>
      </trkpt>
      <trkpt lat="43.111206013709307" lon="0.201631039381027">
        <ele>589.90999999999997</ele>
        <time>2025-04-26T12:16:59Z</time>
      </trkpt>
      <trkpt lat="43.111193021759391" lon="0.201483014971018">
        <ele>589.42999999999995</ele>
        <time>2025-04-26T12:17:00Z</time>
      </trkpt>
      <trkpt lat="43.111152034252882" lon="0.201413026079535">
        <ele>589.90999999999997</ele>
        <time>2025-04-26T12:17:01Z</time>
      </trkpt>
      <trkpt lat="43.111053965985775" lon="0.201386036351323">
        <ele>589.90999999999997</ele>
        <time>2025-04-26T12:17:02Z</time>
      </trkpt>
      <trkpt lat="43.111017001792789" lon="0.20138000138104">
        <ele>589.90999999999997</ele>
        <time>2025-04-26T12:17:03Z</time>
      </trkpt>
      <trkpt lat="43.110864032059908" lon="0.201399028301239">
        <ele>589.42999999999995</ele>
        <time>2025-04-26T12:17:04Z</time>
      </trkpt>
      <trkpt lat="43.110779961571097" lon="0.20131403580308">
        <ele>589.42999999999995</ele>
        <time>2025-04-26T12:17:05Z</time>
      </trkpt>
      <trkpt lat="43.110684994608164" lon="0.201218985021114">
        <ele>589.42999999999995</ele>
        <time>2025-04-26T12:17:06Z</time>
      </trkpt>
      <trkpt lat="43.110584998503327" lon="0.201119994744658">
        <ele>589.42999999999995</ele>
        <time>2025-04-26T12:17:07Z</time>
      </trkpt>
      <trkpt lat="43.110481984913349" lon="0.201032990589738">
        <ele>589.42999999999995</ele>
        <time>2025-04-26T12:17:08Z</time>
      </trkpt>
      <trkpt lat="43.109568022191525" lon="0.200062030926347">
        <ele>585.58000000000004</ele>
        <time>2025-04-26T12:17:16Z</time>
      </trkpt>
      <trkpt lat="43.107634987682104" lon="0.198236033320427">
        <ele>577.40999999999997</ele>
        <time>2025-04-26T12:17:30Z</time>
      </trkpt>
      <trkpt lat="43.105420991778374" lon="0.196180958300829">
        <ele>574.03999999999996</ele>
        <time>2025-04-26T12:17:46Z</time>
      </trkpt>
      <trkpt lat="43.103144969791174" lon="0.194066036492586">
        <ele>569.72000000000003</ele>
        <time>2025-04-26T12:18:02Z</time>
      </trkpt>
      <trkpt lat="43.101197015494108" lon="0.192266022786498">
        <ele>567.79999999999995</ele>
        <time>2025-04-26T12:18:15Z</time>
      </trkpt>
      <trkpt lat="43.098659981042147" lon="0.189974997192621">
        <ele>570.67999999999995</ele>
        <time>2025-04-26T12:18:31Z</time>
      </trkpt>
      <trkpt lat="43.096417989581823" lon="0.188429960981011">
        <ele>561.07000000000005</ele>
        <time>2025-04-26T12:18:44Z</time>
      </trkpt>
      <trkpt lat="43.094740016385913" lon="0.187139986082911">
        <ele>551.92999999999995</ele>
        <time>2025-04-26T12:18:54Z</time>
      </trkpt>
      <trkpt lat="43.093852959573269" lon="0.185657981783152">
        <ele>550.00999999999999</ele>
        <time>2025-04-26T12:19:01Z</time>
      </trkpt>
      <trkpt lat="43.093074029311538" lon="0.18378596752882">
        <ele>559.13999999999999</ele>
        <time>2025-04-26T12:19:10Z</time>
      </trkpt>
      <trkpt lat="43.092104997485876" lon="0.181540958583355">
        <ele>575.49000000000001</ele>
        <time>2025-04-26T12:19:22Z</time>
      </trkpt>
      <trkpt lat="43.090699017047882" lon="0.178245026618242">
        <ele>604.33000000000004</ele>
        <time>2025-04-26T12:19:39Z</time>
      </trkpt>
      <trkpt lat="43.089354978874326" lon="0.175326028838754">
        <ele>624.99000000000001</ele>
        <time>2025-04-26T12:19:52Z</time>
      </trkpt>
      <trkpt lat="43.087594024837017" lon="0.172708025202155">
        <ele>629.32000000000005</ele>
        <time>2025-04-26T12:20:05Z</time>
      </trkpt>
      <trkpt lat="43.085454041138291" lon="0.169550981372595">
        <ele>630.27999999999997</ele>
        <time>2025-04-26T12:20:20Z</time>
      </trkpt>
      <trkpt lat="43.083748994395137" lon="0.167021993547678">
        <ele>637.97000000000003</ele>
        <time>2025-04-26T12:20:33Z</time>
      </trkpt>
      <trkpt lat="43.083135019987822" lon="0.166118005290627">
        <ele>640.86000000000001</ele>
        <time>2025-04-26T12:20:40Z</time>
      </trkpt>
      <trkpt lat="43.082416020333767" lon="0.165059035643935">
        <ele>646.13999999999999</ele>
        <time>2025-04-26T12:20:49Z</time>
      </trkpt>
      <trkpt lat="43.081820989027619" lon="0.164248002693057">
        <ele>650.95000000000005</ele>
        <time>2025-04-26T12:20:57Z</time>
      </trkpt>
      <trkpt lat="43.081748988479376" lon="0.164194023236632">
        <ele>650.47000000000003</ele>
        <time>2025-04-26T12:20:58Z</time>
      </trkpt>
      <trkpt lat="43.081646980717778" lon="0.164171978831291">
        <ele>649.99000000000001</ele>
        <time>2025-04-26T12:20:59Z</time>
      </trkpt>
      <trkpt lat="43.081556037068367" lon="0.164151024073362">
        <ele>649.02999999999997</ele>
        <time>2025-04-26T12:21:00Z</time>
      </trkpt>
      <trkpt lat="43.081456962972879" lon="0.164196034893394">
        <ele>648.07000000000005</ele>
        <time>2025-04-26T12:21:01Z</time>
      </trkpt>
      <trkpt lat="43.081346992403269" lon="0.164245991036296">
        <ele>646.62</ele>
        <time>2025-04-26T12:21:02Z</time>
      </trkpt>
      <trkpt lat="43.081230986863375" lon="0.164287984371185">
        <ele>645.65999999999997</ele>
        <time>2025-04-26T12:21:03Z</time>
      </trkpt>
      <trkpt lat="43.080997969955206" lon="0.164366019889712">
        <ele>644.22000000000003</ele>
        <time>2025-04-26T12:21:05Z</time>
      </trkpt>
      <trkpt lat="43.080851035192609" lon="0.164326038211584">
        <ele>643.74000000000001</ele>
        <time>2025-04-26T12:21:06Z</time>
      </trkpt>
      <trkpt lat="43.080731006339192" lon="0.164274992421269">
        <ele>642.77999999999997</ele>
        <time>2025-04-26T12:21:07Z</time>
      </trkpt>
      <trkpt lat="43.080611983314157" lon="0.164172984659672">
        <ele>641.82000000000005</ele>
        <time>2025-04-26T12:21:08Z</time>
      </trkpt>
      <trkpt lat="43.08051198720932" lon="0.164036024361849">
        <ele>641.34000000000003</ele>
        <time>2025-04-26T12:21:09Z</time>
      </trkpt>
      <trkpt lat="43.080406961962581" lon="0.163892023265362">
        <ele>640.86000000000001</ele>
        <time>2025-04-26T12:21:10Z</time>
      </trkpt>
      <trkpt lat="43.079730039462447" lon="0.163034973666072">
        <ele>641.82000000000005</ele>
        <time>2025-04-26T12:21:16Z</time>
      </trkpt>
      <trkpt lat="43.07958603836596" lon="0.162916034460068">
        <ele>641.34000000000003</ele>
        <time>2025-04-26T12:21:17Z</time>
      </trkpt>
      <trkpt lat="43.078987989574671" lon="0.162367019802332">
        <ele>638.45000000000005</ele>
        <time>2025-04-26T12:21:21Z</time>
      </trkpt>
      <trkpt lat="43.078853962942958" lon="0.162202985957265">
        <ele>637.49000000000001</ele>
        <time>2025-04-26T12:21:22Z</time>
      </trkpt>
      <trkpt lat="43.078596973791718" lon="0.161888999864459">
        <ele>635.57000000000005</ele>
        <time>2025-04-26T12:21:24Z</time>
      </trkpt>
      <trkpt lat="43.078461019322276" lon="0.161764025688171">
        <ele>634.13</ele>
        <time>2025-04-26T12:21:25Z</time>
      </trkpt>
      <trkpt lat="43.078317018225789" lon="0.161652965471148">
        <ele>633.16999999999996</ele>
        <time>2025-04-26T12:21:26Z</time>
      </trkpt>
      <trkpt lat="43.077357960864902" lon="0.160830030217767">
        <ele>622.59000000000003</ele>
        <time>2025-04-26T12:21:33Z</time>
      </trkpt>
      <trkpt lat="43.077258970588446" lon="0.160683011636138">
        <ele>621.14999999999998</ele>
        <time>2025-04-26T12:21:34Z</time>
      </trkpt>
      <trkpt lat="43.077169032767415" lon="0.160552002489567">
        <ele>619.71000000000004</ele>
        <time>2025-04-26T12:21:35Z</time>
      </trkpt>
      <trkpt lat="43.077093008905649" lon="0.160439014434814">
        <ele>617.77999999999997</ele>
        <time>2025-04-26T12:21:36Z</time>
      </trkpt>
      <trkpt lat="43.076964011415839" lon="0.16038604080677">
        <ele>615.86000000000001</ele>
        <time>2025-04-26T12:21:37Z</time>
      </trkpt>
      <trkpt lat="43.076822021976113" lon="0.160327032208443">
        <ele>614.41999999999996</ele>
        <time>2025-04-26T12:21:38Z</time>
      </trkpt>
      <trkpt lat="43.076508035883307" lon="0.160197028890252">
        <ele>611.05999999999995</ele>
        <time>2025-04-26T12:21:40Z</time>
      </trkpt>
      <trkpt lat="43.076230008155107" lon="0.16000097617507">
        <ele>608.64999999999998</ele>
        <time>2025-04-26T12:21:42Z</time>
      </trkpt>
      <trkpt lat="43.076137974858284" lon="0.159839959815145">
        <ele>607.21000000000004</ele>
        <time>2025-04-26T12:21:43Z</time>
      </trkpt>
      <trkpt lat="43.076058011502028" lon="0.159679027274251">
        <ele>605.76999999999998</ele>
        <time>2025-04-26T12:21:44Z</time>
      </trkpt>
      <trkpt lat="43.07602196931839" lon="0.159492027014494">
        <ele>603.85000000000002</ele>
        <time>2025-04-26T12:21:45Z</time>
      </trkpt>
      <trkpt lat="43.075997997075319" lon="0.159302009269595">
        <ele>602.39999999999998</ele>
        <time>2025-04-26T12:21:46Z</time>
      </trkpt>
      <trkpt lat="43.075997997075319" lon="0.159122971817851">
        <ele>600.96000000000004</ele>
        <time>2025-04-26T12:21:47Z</time>
      </trkpt>
      <trkpt lat="43.075960027053952" lon="0.158958015963435">
        <ele>599.03999999999996</ele>
        <time>2025-04-26T12:21:48Z</time>
      </trkpt>
      <trkpt lat="43.07591300457716" lon="0.158850979059935">
        <ele>597.60000000000002</ele>
        <time>2025-04-26T12:21:49Z</time>
      </trkpt>
      <trkpt lat="43.075809990987182" lon="0.158748971298337">
        <ele>595.66999999999996</ele>
        <time>2025-04-26T12:21:50Z</time>
      </trkpt>
      <trkpt lat="43.075706977397203" lon="0.158701026812196">
        <ele>594.23000000000002</ele>
        <time>2025-04-26T12:21:51Z</time>
      </trkpt>
      <trkpt lat="43.075590971857309" lon="0.15868803486228">
        <ele>593.26999999999998</ele>
        <time>2025-04-26T12:21:52Z</time>
      </trkpt>
      <trkpt lat="43.075471026822925" lon="0.15871200710535">
        <ele>592.30999999999995</ele>
        <time>2025-04-26T12:21:53Z</time>
      </trkpt>
      <trkpt lat="43.075372958555818" lon="0.158767998218536">
        <ele>591.35000000000002</ele>
        <time>2025-04-26T12:21:54Z</time>
      </trkpt>
      <trkpt lat="43.075280003249645" lon="0.158861959353089">
        <ele>589.90999999999997</ele>
        <time>2025-04-26T12:21:55Z</time>
      </trkpt>
      <trkpt lat="43.075180007144809" lon="0.158961033448577">
        <ele>588.95000000000005</ele>
        <time>2025-04-26T12:21:56Z</time>
      </trkpt>
      <trkpt lat="43.07507598772645" lon="0.159064969047904">
        <ele>587.98000000000002</ele>
        <time>2025-04-26T12:21:57Z</time>
      </trkpt>
      <trkpt lat="43.074939027428627" lon="0.159129006788135">
        <ele>586.53999999999996</ele>
        <time>2025-04-26T12:21:58Z</time>
      </trkpt>
      <trkpt lat="43.074797037988901" lon="0.159193966537714">
        <ele>585.58000000000004</ele>
        <time>2025-04-26T12:21:59Z</time>
      </trkpt>
      <trkpt lat="43.074668040499091" lon="0.159208970144391">
        <ele>584.62</ele>
        <time>2025-04-26T12:22:00Z</time>
      </trkpt>
      <trkpt lat="43.074530996382236" lon="0.159194972366095">
        <ele>583.65999999999997</ele>
        <time>2025-04-26T12:22:01Z</time>
      </trkpt>
      <trkpt lat="43.07413000613451" lon="0.159091036766768">
        <ele>579.80999999999995</ele>
        <time>2025-04-26T12:22:04Z</time>
      </trkpt>
      <trkpt lat="43.074002014473081" lon="0.159036973491311">
        <ele>578.85000000000002</ele>
        <time>2025-04-26T12:22:05Z</time>
      </trkpt>
      <trkpt lat="43.073880979791284" lon="0.15898902900517">
        <ele>577.40999999999997</ele>
        <time>2025-04-26T12:22:06Z</time>
      </trkpt>
      <trkpt lat="43.073759023100138" lon="0.15894896350801">
        <ele>575.97000000000003</ele>
        <time>2025-04-26T12:22:07Z</time>
      </trkpt>
      <trkpt lat="43.073640000075102" lon="0.158908981829882">
        <ele>574.52999999999997</ele>
        <time>2025-04-26T12:22:08Z</time>
      </trkpt>
      <trkpt lat="43.073522988706827" lon="0.158919040113688">
        <ele>573.08000000000004</ele>
        <time>2025-04-26T12:22:09Z</time>
      </trkpt>
      <trkpt lat="43.073407988995314" lon="0.158959021791816">
        <ele>572.12</ele>
        <time>2025-04-26T12:22:10Z</time>
      </trkpt>
      <trkpt lat="43.073295000940561" lon="0.158996991813183">
        <ele>571.15999999999997</ele>
        <time>2025-04-26T12:22:11Z</time>
      </trkpt>
      <trkpt lat="43.073182012885809" lon="0.159036973491311">
        <ele>569.72000000000003</ele>
        <time>2025-04-26T12:22:12Z</time>
      </trkpt>
      <trkpt lat="43.073069024831057" lon="0.15907502733171">
        <ele>568.75999999999999</ele>
        <time>2025-04-26T12:22:13Z</time>
      </trkpt>
      <trkpt lat="43.072972968220711" lon="0.159108974039555">
        <ele>567.32000000000005</ele>
        <time>2025-04-26T12:22:14Z</time>
      </trkpt>
      <trkpt lat="43.07283902540803" lon="0.159095982089639">
        <ele>566.35000000000002</ele>
        <time>2025-04-26T12:22:15Z</time>
      </trkpt>
      <trkpt lat="43.072737017646432" lon="0.159087013453245">
        <ele>565.38999999999999</ele>
        <time>2025-04-26T12:22:16Z</time>
      </trkpt>
      <trkpt lat="43.072636015713215" lon="0.159003026783466">
        <ele>564.42999999999995</ele>
        <time>2025-04-26T12:22:17Z</time>
      </trkpt>
      <trkpt lat="43.07254096493125" lon="0.158923985436559">
        <ele>563.47000000000003</ele>
        <time>2025-04-26T12:22:18Z</time>
      </trkpt>
      <trkpt lat="43.072447003796697" lon="0.15884100459516">
        <ele>562.50999999999999</ele>
        <time>2025-04-26T12:22:19Z</time>
      </trkpt>
      <trkpt lat="43.071405971422791" lon="0.157821010798216">
        <ele>551.45000000000005</ele>
        <time>2025-04-26T12:22:30Z</time>
      </trkpt>
      <trkpt lat="43.070740029215813" lon="0.157169988378882">
        <ele>542.79999999999995</ele>
        <time>2025-04-26T12:22:39Z</time>
      </trkpt>
      <trkpt lat="43.070208029821515" lon="0.156679982319474">
        <ele>537.50999999999999</ele>
        <time>2025-04-26T12:22:47Z</time>
      </trkpt>
      <trkpt lat="43.070162013173103" lon="0.156624997034669">
        <ele>536.54999999999995</ele>
        <time>2025-04-26T12:22:48Z</time>
      </trkpt>
      <trkpt lat="43.070162013173103" lon="0.15656397677958">
        <ele>536.54999999999995</ele>
        <time>2025-04-26T12:22:49Z</time>
      </trkpt>
      <trkpt lat="43.070211969316006" lon="0.156515026465058">
        <ele>536.07000000000005</ele>
        <time>2025-04-26T12:22:50Z</time>
      </trkpt>
      <trkpt lat="43.07026200927794" lon="0.156495999544859">
        <ele>535.59000000000003</ele>
        <time>2025-04-26T12:22:51Z</time>
      </trkpt>
      <trkpt lat="43.070322023704648" lon="0.15647403895855">
        <ele>534.63</ele>
        <time>2025-04-26T12:22:52Z</time>
      </trkpt>
      <trkpt lat="43.070395030081272" lon="0.156445959582925">
        <ele>534.63</ele>
        <time>2025-04-26T12:22:53Z</time>
      </trkpt>
      <trkpt lat="43.070480022579432" lon="0.156414024531841">
        <ele>534.14999999999998</ele>
        <time>2025-04-26T12:22:54Z</time>
      </trkpt>
      <trkpt lat="43.070657970383763" lon="0.15634797513485">
        <ele>533.19000000000005</ele>
        <time>2025-04-26T12:22:56Z</time>
      </trkpt>
      <trkpt lat="43.070753021165729" lon="0.156312016770244">
        <ele>533.19000000000005</ele>
        <time>2025-04-26T12:22:57Z</time>
      </trkpt>
      <trkpt lat="43.071967978030443" lon="0.155707010999322">
        <ele>532.23000000000002</ele>
        <time>2025-04-26T12:23:09Z</time>
      </trkpt>
      <trkpt lat="43.07314395904541" lon="0.155138969421387">
        <ele>531.26999999999998</ele>
        <time>2025-04-26T12:23:20Z</time>
      </trkpt>
      <trkpt lat="43.074549017474055" lon="0.15473697334528">
        <ele>531.75</ele>
        <time>2025-04-26T12:23:32Z</time>
      </trkpt>
      <trkpt lat="43.075357032939792" lon="0.15454201027751">
        <ele>533.19000000000005</ele>
        <time>2025-04-26T12:23:40Z</time>
      </trkpt>
      <trkpt lat="43.075430961325765" lon="0.154523989185691">
        <ele>533.19000000000005</ele>
        <time>2025-04-26T12:23:41Z</time>
      </trkpt>
      <trkpt lat="43.07552601210773" lon="0.154645023867488">
        <ele>533.66999999999996</ele>
        <time>2025-04-26T12:23:42Z</time>
      </trkpt>
      <trkpt lat="43.075601030141115" lon="0.154634965583682">
        <ele>534.14999999999998</ele>
        <time>2025-04-26T12:23:43Z</time>
      </trkpt>
      <trkpt lat="43.075642017647624" lon="0.154593978077173">
        <ele>534.14999999999998</ele>
        <time>2025-04-26T12:23:44Z</time>
      </trkpt>
      <trkpt lat="43.07565500959754" lon="0.154466992244124">
        <ele>534.63</ele>
        <time>2025-04-26T12:23:45Z</time>
      </trkpt>
      <trkpt lat="43.07565500959754" lon="0.154431033879519">
        <ele>534.63</ele>
        <time>2025-04-26T12:23:46Z</time>
      </trkpt>
      <trkpt lat="43.075569011271" lon="0.154299018904567">
        <ele>535.11000000000001</ele>
        <time>2025-04-26T12:23:47Z</time>
      </trkpt>
      <trkpt lat="43.075594995170832" lon="0.154193993657827">
        <ele>535.11000000000001</ele>
        <time>2025-04-26T12:23:48Z</time>
      </trkpt>
      <trkpt lat="43.07561201043427" lon="0.154109001159668">
        <ele>535.11000000000001</ele>
        <time>2025-04-26T12:23:49Z</time>
      </trkpt>
      <trkpt lat="43.075649980455637" lon="0.153977992013097">
        <ele>535.59000000000003</ele>
        <time>2025-04-26T12:23:50Z</time>
      </trkpt>
      <trkpt lat="43.075672024860978" lon="0.153727037832141">
        <ele>535.59000000000003</ele>
        <time>2025-04-26T12:23:52Z</time>
      </trkpt>
      <trkpt lat="43.075663978233933" lon="0.15359703451395">
        <ele>535.59000000000003</ele>
        <time>2025-04-26T12:23:53Z</time>
      </trkpt>
      <trkpt lat="43.075636988505721" lon="0.153460996225476">
        <ele>535.11000000000001</ele>
        <time>2025-04-26T12:23:54Z</time>
      </trkpt>
      <trkpt lat="43.07561201043427" lon="0.153337027877569">
        <ele>535.11000000000001</ele>
        <time>2025-04-26T12:23:55Z</time>
      </trkpt>
      <trkpt lat="43.075555013492703" lon="0.15318900346756">
        <ele>534.63</ele>
        <time>2025-04-26T12:23:56Z</time>
      </trkpt>
      <trkpt lat="43.075502039864659" lon="0.153052965179086">
        <ele>534.14999999999998</ele>
        <time>2025-04-26T12:23:57Z</time>
      </trkpt>
      <trkpt lat="43.075448982417583" lon="0.152913993224502">
        <ele>534.14999999999998</ele>
        <time>2025-04-26T12:23:58Z</time>
      </trkpt>
      <trkpt lat="43.075393997132778" lon="0.152774015441537">
        <ele>533.66999999999996</ele>
        <time>2025-04-26T12:23:59Z</time>
      </trkpt>
      <trkpt lat="43.075337000191212" lon="0.152634037658572">
        <ele>533.19000000000005</ele>
        <time>2025-04-26T12:24:00Z</time>
      </trkpt>
      <trkpt lat="43.074872978031635" lon="0.151519998908043">
        <ele>531.75</ele>
        <time>2025-04-26T12:24:08Z</time>
      </trkpt>
      <trkpt lat="43.074768036603928" lon="0.151070980355144">
        <ele>531.26999999999998</ele>
        <time>2025-04-26T12:24:11Z</time>
      </trkpt>
      <trkpt lat="43.074463019147515" lon="0.149045996367931">
        <ele>531.26999999999998</ele>
        <time>2025-04-26T12:24:24Z</time>
      </trkpt>
      <trkpt lat="43.074219021946192" lon="0.147875966504216">
        <ele>530.29999999999995</ele>
        <time>2025-04-26T12:24:32Z</time>
      </trkpt>
      <trkpt lat="43.074222039431334" lon="0.147734982892871">
        <ele>529.82000000000005</ele>
        <time>2025-04-26T12:24:33Z</time>
      </trkpt>
      <trkpt lat="43.074236959218979" lon="0.147000979632139">
        <ele>529.34000000000003</ele>
        <time>2025-04-26T12:24:38Z</time>
      </trkpt>
      <trkpt lat="43.074219021946192" lon="0.146868964657187">
        <ele>528.86000000000001</ele>
        <time>2025-04-26T12:24:39Z</time>
      </trkpt>
      <trkpt lat="43.074174011126161" lon="0.146747007966042">
        <ele>528.86000000000001</ele>
        <time>2025-04-26T12:24:40Z</time>
      </trkpt>
      <trkpt lat="43.074125982820988" lon="0.146619016304612">
        <ele>528.86000000000001</ele>
        <time>2025-04-26T12:24:41Z</time>
      </trkpt>
      <trkpt lat="43.074076026678085" lon="0.14648599550128">
        <ele>528.86000000000001</ele>
        <time>2025-04-26T12:24:42Z</time>
      </trkpt>
      <trkpt lat="43.074018023908138" lon="0.146352974697948">
        <ele>529.34000000000003</ele>
        <time>2025-04-26T12:24:43Z</time>
      </trkpt>
      <trkpt lat="43.073491975665092" lon="0.145319988951087">
        <ele>530.78999999999996</ele>
        <time>2025-04-26T12:24:51Z</time>
      </trkpt>
      <trkpt lat="43.073422992601991" lon="0.145183028653264">
        <ele>531.26999999999998</ele>
        <time>2025-04-26T12:24:52Z</time>
      </trkpt>
      <trkpt lat="43.073404971510172" lon="0.145045984536409">
        <ele>531.26999999999998</ele>
        <time>2025-04-26T12:24:53Z</time>
      </trkpt>
      <trkpt lat="43.073272034525871" lon="0.144060021266341">
        <ele>531.75</ele>
        <time>2025-04-26T12:25:01Z</time>
      </trkpt>
      <trkpt lat="43.073273040354252" lon="0.144066978245974">
        <ele>532.23000000000002</ele>
        <time>2025-04-26T12:25:02Z</time>
      </trkpt>
      <trkpt lat="43.073311010375619" lon="0.143900010734797">
        <ele>532.23000000000002</ele>
        <time>2025-04-26T12:25:03Z</time>
      </trkpt>
      <trkpt lat="43.073364989832044" lon="0.143863968551159">
        <ele>532.23000000000002</ele>
        <time>2025-04-26T12:25:04Z</time>
      </trkpt>
      <trkpt lat="43.073428021743894" lon="0.143823986873031">
        <ele>532.23000000000002</ele>
        <time>2025-04-26T12:25:05Z</time>
      </trkpt>
      <trkpt lat="43.073508990928531" lon="0.143771013244987">
        <ele>532.23000000000002</ele>
        <time>2025-04-26T12:25:06Z</time>
      </trkpt>
      <trkpt lat="43.073604963719845" lon="0.143708987161517">
        <ele>531.75</ele>
        <time>2025-04-26T12:25:07Z</time>
      </trkpt>
      <trkpt lat="43.074653036892414" lon="0.143058970570564">
        <ele>528.86000000000001</ele>
        <time>2025-04-26T12:25:17Z</time>
      </trkpt>
      <trkpt lat="43.075415035709739" lon="0.142611963674426">
        <ele>525.98000000000002</ele>
        <time>2025-04-26T12:25:24Z</time>
      </trkpt>
      <trkpt lat="43.075520982965827" lon="0.142542980611324">
        <ele>525.5</ele>
        <time>2025-04-26T12:25:25Z</time>
      </trkpt>
      <trkpt lat="43.0767070222646" lon="0.141834961250424">
        <ele>523.09000000000003</ele>
        <time>2025-04-26T12:25:36Z</time>
      </trkpt>
      <trkpt lat="43.076809030026197" lon="0.141766984015703">
        <ele>523.09000000000003</ele>
        <time>2025-04-26T12:25:37Z</time>
      </trkpt>
      <trkpt lat="43.076912965625525" lon="0.141696995124221">
        <ele>523.58000000000004</ele>
        <time>2025-04-26T12:25:38Z</time>
      </trkpt>
      <trkpt lat="43.078090958297253" lon="0.141015965491533">
        <ele>521.16999999999996</ele>
        <time>2025-04-26T12:25:49Z</time>
      </trkpt>
      <trkpt lat="43.078179974108934" lon="0.140970032662153">
        <ele>521.16999999999996</ele>
        <time>2025-04-26T12:25:50Z</time>
      </trkpt>
      <trkpt lat="43.078348031267524" lon="0.141019988805056">
        <ele>521.16999999999996</ele>
        <time>2025-04-26T12:25:52Z</time>
      </trkpt>
      <trkpt lat="43.078461019322276" lon="0.140959974378347">
        <ele>521.16999999999996</ele>
        <time>2025-04-26T12:25:53Z</time>
      </trkpt>
      <trkpt lat="43.078582976013422" lon="0.140733998268843">
        <ele>520.69000000000005</ele>
        <time>2025-04-26T12:25:55Z</time>
      </trkpt>
      <trkpt lat="43.078682972118258" lon="0.140658980235457">
        <ele>520.69000000000005</ele>
        <time>2025-04-26T12:25:56Z</time>
      </trkpt>
      <trkpt lat="43.080034973099828" lon="0.139831015840173">
        <ele>518.76999999999998</ele>
        <time>2025-04-26T12:26:07Z</time>
      </trkpt>
      <trkpt lat="43.081443971022964" lon="0.138977989554405">
        <ele>517.33000000000004</ele>
        <time>2025-04-26T12:26:18Z</time>
      </trkpt>
      <trkpt lat="43.08218702673912" lon="0.138523019850254">
        <ele>517.80999999999995</ele>
        <time>2025-04-26T12:26:25Z</time>
      </trkpt>
      <trkpt lat="43.083271980285645" lon="0.137890018522739">
        <ele>515.39999999999998</ele>
        <time>2025-04-26T12:26:35Z</time>
      </trkpt>
      <trkpt lat="43.084444021806121" lon="0.137179987505078">
        <ele>512.51999999999998</ele>
        <time>2025-04-26T12:26:46Z</time>
      </trkpt>
      <trkpt lat="43.085511960089207" lon="0.13651798479259">
        <ele>510.60000000000002</ele>
        <time>2025-04-26T12:26:56Z</time>
      </trkpt>
      <trkpt lat="43.086691964417696" lon="0.135799990966916">
        <ele>510.60000000000002</ele>
        <time>2025-04-26T12:27:07Z</time>
      </trkpt>
      <trkpt lat="43.087654039263725" lon="0.135223986580968">
        <ele>511.56</ele>
        <time>2025-04-26T12:27:16Z</time>
      </trkpt>
      <trkpt lat="43.087755963206291" lon="0.135148968547583">
        <ele>511.56</ele>
        <time>2025-04-26T12:27:17Z</time>
      </trkpt>
      <trkpt lat="43.087857970967889" lon="0.13507504016161">
        <ele>511.56</ele>
        <time>2025-04-26T12:27:18Z</time>
      </trkpt>
      <trkpt lat="43.089438965544105" lon="0.134019004181027">
        <ele>510.60000000000002</ele>
        <time>2025-04-26T12:27:33Z</time>
      </trkpt>
      <trkpt lat="43.090881993994117" lon="0.13310101814568">
        <ele>507.23000000000002</ele>
        <time>2025-04-26T12:27:46Z</time>
      </trkpt>
      <trkpt lat="43.091895030811429" lon="0.132380006834865">
        <ele>504.82999999999998</ele>
        <time>2025-04-26T12:27:55Z</time>
      </trkpt>
      <trkpt lat="43.093174025416374" lon="0.131139988079667">
        <ele>501.94999999999999</ele>
        <time>2025-04-26T12:28:05Z</time>
      </trkpt>
      <trkpt lat="43.094759965315461" lon="0.129520017653704">
        <ele>499.54000000000002</ele>
        <time>2025-04-26T12:28:16Z</time>
      </trkpt>
      <trkpt lat="43.097040010616183" lon="0.127208959311247">
        <ele>494.25999999999999</ele>
        <time>2025-04-26T12:28:31Z</time>
      </trkpt>
      <trkpt lat="43.098211968317628" lon="0.125994002446532">
        <ele>490.88999999999999</ele>
        <time>2025-04-26T12:28:39Z</time>
      </trkpt>
      <trkpt lat="43.09928703121841" lon="0.124919023364782">
        <ele>488.97000000000003</ele>
        <time>2025-04-26T12:28:48Z</time>
      </trkpt>
      <trkpt lat="43.100032014772296" lon="0.124174961820245">
        <ele>486.07999999999998</ele>
        <time>2025-04-26T12:28:57Z</time>
      </trkpt>
      <trkpt lat="43.100392017513514" lon="0.123759973794222">
        <ele>485.12</ele>
        <time>2025-04-26T12:29:01Z</time>
      </trkpt>
      <trkpt lat="43.100629979744554" lon="0.123417992144823">
        <ele>484.16000000000003</ele>
        <time>2025-04-26T12:29:04Z</time>
      </trkpt>
      <trkpt lat="43.100694017484784" lon="0.12328002601862">
        <ele>484.16000000000003</ele>
        <time>2025-04-26T12:29:05Z</time>
      </trkpt>
      <trkpt lat="43.101230962201953" lon="0.121997008100152">
        <ele>480.80000000000001</ele>
        <time>2025-04-26T12:29:15Z</time>
      </trkpt>
      <trkpt lat="43.101364988833666" lon="0.121716968715191">
        <ele>479.35000000000002</ele>
        <time>2025-04-26T12:29:19Z</time>
      </trkpt>
      <trkpt lat="43.101388961076736" lon="0.121668018400669">
        <ele>478.87</ele>
        <time>2025-04-26T12:29:20Z</time>
      </trkpt>
      <trkpt lat="43.101407987996936" lon="0.12162703089416">
        <ele>478.87</ele>
        <time>2025-04-26T12:29:21Z</time>
      </trkpt>
      <trkpt lat="43.101421985775232" lon="0.121598029509187">
        <ele>478.38999999999999</ele>
        <time>2025-04-26T12:29:22Z</time>
      </trkpt>
      <trkpt lat="43.101429026573896" lon="0.121585037559271">
        <ele>478.38999999999999</ele>
        <time>2025-04-26T12:29:30Z</time>
      </trkpt>
      <trkpt lat="43.101445036008954" lon="0.121552012860775">
        <ele>477.91000000000003</ele>
        <time>2025-04-26T12:29:31Z</time>
      </trkpt>
      <trkpt lat="43.101473031565547" lon="0.121494010090828">
        <ele>477.91000000000003</ele>
        <time>2025-04-26T12:29:32Z</time>
      </trkpt>
      <trkpt lat="43.101508989930153" lon="0.121418992057443">
        <ele>477.43000000000001</ele>
        <time>2025-04-26T12:29:33Z</time>
      </trkpt>
      <trkpt lat="43.101548971608281" lon="0.121337017044425">
        <ele>476.94999999999999</ele>
        <time>2025-04-26T12:29:34Z</time>
      </trkpt>
      <trkpt lat="43.10214601457119" lon="0.120329009369016">
        <ele>475.50999999999999</ele>
        <time>2025-04-26T12:29:44Z</time>
      </trkpt>
      <trkpt lat="43.102957969531417" lon="0.118978014215827">
        <ele>473.11000000000001</ele>
        <time>2025-04-26T12:29:55Z</time>
      </trkpt>
      <trkpt lat="43.103042040020227" lon="0.118867959827185">
        <ele>472.63</ele>
        <time>2025-04-26T12:29:56Z</time>
      </trkpt>
      <trkpt lat="43.103131977841258" lon="0.118779027834535">
        <ele>472.63</ele>
        <time>2025-04-26T12:29:57Z</time>
      </trkpt>
      <trkpt lat="43.103324007242918" lon="0.118652964010835">
        <ele>472.63</ele>
        <time>2025-04-26T12:29:59Z</time>
      </trkpt>
      <trkpt lat="43.10343598946929" lon="0.118594961240888">
        <ele>472.63</ele>
        <time>2025-04-26T12:30:00Z</time>
      </trkpt>
      <trkpt lat="43.104543993249536" lon="0.118043012917042">
        <ele>472.63</ele>
        <time>2025-04-26T12:30:10Z</time>
      </trkpt>
      <trkpt lat="43.105621989816427" lon="0.117413029074669">
        <ele>472.63</ele>
        <time>2025-04-26T12:30:20Z</time>
      </trkpt>
      <trkpt lat="43.106797970831394" lon="0.116653963923454">
        <ele>472.63</ele>
        <time>2025-04-26T12:30:30Z</time>
      </trkpt>
      <trkpt lat="43.108250973746181" lon="0.115732960402966">
        <ele>473.11000000000001</ele>
        <time>2025-04-26T12:30:39Z</time>
      </trkpt>
      <trkpt lat="43.110129022970796" lon="0.114512974396348">
        <ele>470.22000000000003</ele>
        <time>2025-04-26T12:30:51Z</time>
      </trkpt>
      <trkpt lat="43.112492971122265" lon="0.11299098841846">
        <ele>465.42000000000002</ele>
        <time>2025-04-26T12:31:03Z</time>
      </trkpt>
      <trkpt lat="43.114746026694775" lon="0.111538991332054">
        <ele>463.97000000000003</ele>
        <time>2025-04-26T12:31:15Z</time>
      </trkpt>
      <trkpt lat="43.1158999633044" lon="0.110782021656632">
        <ele>463.00999999999999</ele>
        <time>2025-04-26T12:31:23Z</time>
      </trkpt>
      <trkpt lat="43.11602896079421" lon="0.110695017501712">
        <ele>463.49000000000001</ele>
        <time>2025-04-26T12:31:24Z</time>
      </trkpt>
      <trkpt lat="43.116257032379508" lon="0.110540958121419">
        <ele>463.00999999999999</ele>
        <time>2025-04-26T12:31:26Z</time>
      </trkpt>
      <trkpt lat="43.116360967978835" lon="0.110474992543459">
        <ele>463.00999999999999</ele>
        <time>2025-04-26T12:31:27Z</time>
      </trkpt>
      <trkpt lat="43.116681994870305" lon="0.110313976183534">
        <ele>463.00999999999999</ele>
        <time>2025-04-26T12:31:31Z</time>
      </trkpt>
      <trkpt lat="43.116733962669969" lon="0.11019503697753">
        <ele>462.52999999999997</ele>
        <time>2025-04-26T12:31:32Z</time>
      </trkpt>
      <trkpt lat="43.116720970720053" lon="0.110105015337467">
        <ele>462.05000000000001</ele>
        <time>2025-04-26T12:31:33Z</time>
      </trkpt>
      <trkpt lat="43.116705967113376" lon="0.109989009797573">
        <ele>462.05000000000001</ele>
        <time>2025-04-26T12:31:34Z</time>
      </trkpt>
      <trkpt lat="43.11673698015511" lon="0.109827993437648">
        <ele>461.56999999999999</ele>
        <time>2025-04-26T12:31:35Z</time>
      </trkpt>
      <trkpt lat="43.116773022338748" lon="0.109676029533148">
        <ele>461.56999999999999</ele>
        <time>2025-04-26T12:31:36Z</time>
      </trkpt>
      <trkpt lat="43.116813004016876" lon="0.109503027051687">
        <ele>461.56999999999999</ele>
        <time>2025-04-26T12:31:37Z</time>
      </trkpt>
      <trkpt lat="43.116857009008527" lon="0.10931602679193">
        <ele>461.56999999999999</ele>
        <time>2025-04-26T12:31:38Z</time>
      </trkpt>
      <trkpt lat="43.117410968989134" lon="0.107475025579333">
        <ele>459.64999999999998</ele>
        <time>2025-04-26T12:31:47Z</time>
      </trkpt>
      <trkpt lat="43.11746503226459" lon="0.107293976470828">
        <ele>459.17000000000002</ele>
        <time>2025-04-26T12:31:48Z</time>
      </trkpt>
      <trkpt lat="43.117681033909321" lon="0.106389988213778">
        <ele>458.69</ele>
        <time>2025-04-26T12:31:54Z</time>
      </trkpt>
      <trkpt lat="43.117688996717334" lon="0.106247998774052">
        <ele>458.69</ele>
        <time>2025-04-26T12:31:55Z</time>
      </trkpt>
      <trkpt lat="43.117649015039206" lon="0.10452501475811">
        <ele>463.49000000000001</ele>
        <time>2025-04-26T12:32:06Z</time>
      </trkpt>
      <trkpt lat="43.117418009787798" lon="0.102942008525133">
        <ele>466.86000000000001</ele>
        <time>2025-04-26T12:32:16Z</time>
      </trkpt>
      <trkpt lat="43.11735900118947" lon="0.102822985500097">
        <ele>466.86000000000001</ele>
        <time>2025-04-26T12:32:17Z</time>
      </trkpt>
      <trkpt lat="43.117282977327704" lon="0.102697005495429">
        <ele>466.86000000000001</ele>
        <time>2025-04-26T12:32:18Z</time>
      </trkpt>
      <trkpt lat="43.117196979001164" lon="0.10259198024869">
        <ele>467.33999999999997</ele>
        <time>2025-04-26T12:32:19Z</time>
      </trkpt>
      <trkpt lat="43.11710100620985" lon="0.102476980537176">
        <ele>467.33999999999997</ele>
        <time>2025-04-26T12:32:20Z</time>
      </trkpt>
      <trkpt lat="43.116278992965817" lon="0.101465033367276">
        <ele>472.13999999999999</ele>
        <time>2025-04-26T12:32:28Z</time>
      </trkpt>
      <trkpt lat="43.116201041266322" lon="0.101292030885816">
        <ele>472.63</ele>
        <time>2025-04-26T12:32:29Z</time>
      </trkpt>
      <trkpt lat="43.116166004911065" lon="0.101092038676143">
        <ele>473.11000000000001</ele>
        <time>2025-04-26T12:32:30Z</time>
      </trkpt>
      <trkpt lat="43.116145972162485" lon="0.100887017324567">
        <ele>473.58999999999997</ele>
        <time>2025-04-26T12:32:31Z</time>
      </trkpt>
      <trkpt lat="43.116145972162485" lon="0.100887017324567">
        <ele>474.55000000000001</ele>
        <time>2025-04-26T12:32:32Z</time>
      </trkpt>
      <trkpt lat="43.116145972162485" lon="0.100458031520247">
        <ele>475.02999999999997</ele>
        <time>2025-04-26T12:32:33Z</time>
      </trkpt>
      <trkpt lat="43.116115964949131" lon="0.097939018160105">
        <ele>480.80000000000001</ele>
        <time>2025-04-26T12:32:43Z</time>
      </trkpt>
      <trkpt lat="43.116344036534429" lon="0.095161003991961">
        <ele>486.56</ele>
        <time>2025-04-26T12:32:54Z</time>
      </trkpt>
      <trkpt lat="43.116616029292345" lon="0.094227008521557">
        <ele>491.37</ele>
        <time>2025-04-26T12:32:58Z</time>
      </trkpt>
      <trkpt lat="43.116811998188496" lon="0.093787964433432">
        <ele>494.25999999999999</ele>
        <time>2025-04-26T12:33:00Z</time>
      </trkpt>
      <trkpt lat="43.116924986243248" lon="0.093580009415746">
        <ele>495.69999999999999</ele>
        <time>2025-04-26T12:33:01Z</time>
      </trkpt>
      <trkpt lat="43.117069993168116" lon="0.09339896030724">
        <ele>497.62</ele>
        <time>2025-04-26T12:33:02Z</time>
      </trkpt>
      <trkpt lat="43.117231009528041" lon="0.093229981139302">
        <ele>499.06</ele>
        <time>2025-04-26T12:33:03Z</time>
      </trkpt>
      <trkpt lat="43.117393031716347" lon="0.093059996142983">
        <ele>500.5</ele>
        <time>2025-04-26T12:33:04Z</time>
      </trkpt>
      <trkpt lat="43.11772302724421" lon="0.092776017263532">
        <ele>504.35000000000002</ele>
        <time>2025-04-26T12:33:06Z</time>
      </trkpt>
      <trkpt lat="43.11789401806891" lon="0.092655988410115">
        <ele>506.75</ele>
        <time>2025-04-26T12:33:07Z</time>
      </trkpt>
      <trkpt lat="43.11854001134634" lon="0.092117032036185">
        <ele>514.44000000000005</ele>
        <time>2025-04-26T12:33:11Z</time>
      </trkpt>
      <trkpt lat="43.119020964950323" lon="0.091538010165095">
        <ele>521.64999999999998</ele>
        <time>2025-04-26T12:33:15Z</time>
      </trkpt>
      <trkpt lat="43.119057007133961" lon="0.091358972713351">
        <ele>523.09000000000003</ele>
        <time>2025-04-26T12:33:16Z</time>
      </trkpt>
      <trkpt lat="43.119085002690554" lon="0.091216983273625">
        <ele>524.53999999999996</ele>
        <time>2025-04-26T12:33:17Z</time>
      </trkpt>
      <trkpt lat="43.119060024619102" lon="0.091067031025887">
        <ele>525.98000000000002</ele>
        <time>2025-04-26T12:33:18Z</time>
      </trkpt>
      <trkpt lat="43.119026999920607" lon="0.090940967202187">
        <ele>527.41999999999996</ele>
        <time>2025-04-26T12:33:19Z</time>
      </trkpt>
      <trkpt lat="43.118935972452164" lon="0.090837031602859">
        <ele>528.38</ele>
        <time>2025-04-26T12:33:20Z</time>
      </trkpt>
      <trkpt lat="43.118834970518947" lon="0.090786991640925">
        <ele>529.82000000000005</ele>
        <time>2025-04-26T12:33:21Z</time>
      </trkpt>
      <trkpt lat="43.118720976635814" lon="0.090786991640925">
        <ele>530.78999999999996</ele>
        <time>2025-04-26T12:33:22Z</time>
      </trkpt>
      <trkpt lat="43.118602959439158" lon="0.090851029381156">
        <ele>531.75</ele>
        <time>2025-04-26T12:33:23Z</time>
      </trkpt>
      <trkpt lat="43.118478991091251" lon="0.090919006615877">
        <ele>532.71000000000004</ele>
        <time>2025-04-26T12:33:24Z</time>
      </trkpt>
      <trkpt lat="43.118359968066216" lon="0.090983966365457">
        <ele>533.66999999999996</ele>
        <time>2025-04-26T12:33:25Z</time>
      </trkpt>
      <trkpt lat="43.118170034140348" lon="0.09101296775043">
        <ele>534.63</ele>
        <time>2025-04-26T12:33:27Z</time>
      </trkpt>
      <trkpt lat="43.118121000006795" lon="0.090965023264289">
        <ele>534.63</ele>
        <time>2025-04-26T12:33:28Z</time>
      </trkpt>
      <trkpt lat="43.118069032207131" lon="0.090871984139085">
        <ele>535.11000000000001</ele>
        <time>2025-04-26T12:33:29Z</time>
      </trkpt>
      <trkpt lat="43.118041958659887" lon="0.09075103327632">
        <ele>535.59000000000003</ele>
        <time>2025-04-26T12:33:30Z</time>
      </trkpt>
      <trkpt lat="43.118064003065228" lon="0.090584987774491">
        <ele>535.59000000000003</ele>
        <time>2025-04-26T12:33:31Z</time>
      </trkpt>
      <trkpt lat="43.118094010278583" lon="0.090403016656637">
        <ele>536.07000000000005</ele>
        <time>2025-04-26T12:33:32Z</time>
      </trkpt>
      <trkpt lat="43.118483014404774" lon="0.088529996573925">
        <ele>539.44000000000005</ele>
        <time>2025-04-26T12:33:40Z</time>
      </trkpt>
      <trkpt lat="43.118694992735982" lon="0.087383016943932">
        <ele>543.27999999999997</ele>
        <time>2025-04-26T12:33:45Z</time>
      </trkpt>
      <trkpt lat="43.118713013827801" lon="0.087171038612723">
        <ele>543.75999999999999</ele>
        <time>2025-04-26T12:33:46Z</time>
      </trkpt>
      <trkpt lat="43.118709996342659" lon="0.086968028917909">
        <ele>544.72000000000003</ele>
        <time>2025-04-26T12:33:47Z</time>
      </trkpt>
      <trkpt lat="43.11869197525084" lon="0.08677801117301">
        <ele>545.69000000000005</ele>
        <time>2025-04-26T12:33:48Z</time>
      </trkpt>
      <trkpt lat="43.118670014664531" lon="0.086602997034788">
        <ele>546.64999999999998</ele>
        <time>2025-04-26T12:33:49Z</time>
      </trkpt>
      <trkpt lat="43.118615029379725" lon="0.086462013423443">
        <ele>547.61000000000001</ele>
        <time>2025-04-26T12:33:50Z</time>
      </trkpt>
      <trkpt lat="43.118535988032818" lon="0.086333015933633">
        <ele>548.09000000000003</ele>
        <time>2025-04-26T12:33:51Z</time>
      </trkpt>
      <trkpt lat="43.118419982492924" lon="0.086289010941982">
        <ele>549.04999999999995</ele>
        <time>2025-04-26T12:33:52Z</time>
      </trkpt>
      <trkpt lat="43.118298025801778" lon="0.08624198846519">
        <ele>550.00999999999999</ele>
        <time>2025-04-26T12:33:53Z</time>
      </trkpt>
      <trkpt lat="43.118185037747025" lon="0.08619898930192">
        <ele>550.97000000000003</ele>
        <time>2025-04-26T12:33:54Z</time>
      </trkpt>
      <trkpt lat="43.118087975308299" lon="0.086134029552341">
        <ele>551.45000000000005</ele>
        <time>2025-04-26T12:33:55Z</time>
      </trkpt>
      <trkpt lat="43.118010023608804" lon="0.086032021790743">
        <ele>551.92999999999995</ele>
        <time>2025-04-26T12:33:56Z</time>
      </trkpt>
      <trkpt lat="43.117955960333347" lon="0.085902018472552">
        <ele>551.92999999999995</ele>
        <time>2025-04-26T12:33:57Z</time>
      </trkpt>
      <trkpt lat="43.117926036939025" lon="0.085735972970724">
        <ele>552.40999999999997</ele>
        <time>2025-04-26T12:33:58Z</time>
      </trkpt>
      <trkpt lat="43.117910027503967" lon="0.085550984367728">
        <ele>552.89999999999998</ele>
        <time>2025-04-26T12:33:59Z</time>
      </trkpt>
      <trkpt lat="43.117926036939025" lon="0.085351997986436">
        <ele>553.38</ele>
        <time>2025-04-26T12:34:00Z</time>
      </trkpt>
      <trkpt lat="43.117942968383431" lon="0.085143037140369">
        <ele>553.38</ele>
        <time>2025-04-26T12:34:01Z</time>
      </trkpt>
      <trkpt lat="43.117983033880591" lon="0.084930974990129">
        <ele>553.38</ele>
        <time>2025-04-26T12:34:02Z</time>
      </trkpt>
      <trkpt lat="43.118035001680255" lon="0.084708016365767">
        <ele>552.89999999999998</ele>
        <time>2025-04-26T12:34:03Z</time>
      </trkpt>
      <trkpt lat="43.118592984974384" lon="0.082153966650367">
        <ele>544.24000000000001</ele>
        <time>2025-04-26T12:34:13Z</time>
      </trkpt>
      <trkpt lat="43.118599019944668" lon="0.080142980441451">
        <ele>532.71000000000004</ele>
        <time>2025-04-26T12:34:20Z</time>
      </trkpt>
      <trkpt lat="43.118290985003114" lon="0.078234001994133">
        <ele>521.64999999999998</ele>
        <time>2025-04-26T12:34:27Z</time>
      </trkpt>
      <trkpt lat="43.118301965296268" lon="0.07801397703588">
        <ele>520.69000000000005</ele>
        <time>2025-04-26T12:34:28Z</time>
      </trkpt>
      <trkpt lat="43.118335995823145" lon="0.077803004533052">
        <ele>519.25</ele>
        <time>2025-04-26T12:34:29Z</time>
      </trkpt>
      <trkpt lat="43.118404978886247" lon="0.077598989009857">
        <ele>518.28999999999996</ele>
        <time>2025-04-26T12:34:30Z</time>
      </trkpt>
      <trkpt lat="43.118481002748013" lon="0.077377958223224">
        <ele>516.85000000000002</ele>
        <time>2025-04-26T12:34:31Z</time>
      </trkpt>
      <trkpt lat="43.118617041036487" lon="0.076942015439272">
        <ele>513.96000000000004</ele>
        <time>2025-04-26T12:34:33Z</time>
      </trkpt>
      <trkpt lat="43.118617041036487" lon="0.076942015439272">
        <ele>513.48000000000002</ele>
        <time>2025-04-26T12:34:34Z</time>
      </trkpt>
      <trkpt lat="43.11864897608757" lon="0.076474975794554">
        <ele>513</ele>
        <time>2025-04-26T12:34:35Z</time>
      </trkpt>
      <trkpt lat="43.118639001622796" lon="0.076219998300076">
        <ele>513</ele>
        <time>2025-04-26T12:34:36Z</time>
      </trkpt>
      <trkpt lat="43.118608994409442" lon="0.075962003320456">
        <ele>513</ele>
        <time>2025-04-26T12:34:37Z</time>
      </trkpt>
      <trkpt lat="43.118294002488256" lon="0.073418011888862">
        <ele>521.16999999999996</ele>
        <time>2025-04-26T12:34:47Z</time>
      </trkpt>
      <trkpt lat="43.118133991956711" lon="0.072161983698606">
        <ele>527.41999999999996</ele>
        <time>2025-04-26T12:34:55Z</time>
      </trkpt>
      <trkpt lat="43.11798102222383" lon="0.070824986323714">
        <ele>532.71000000000004</ele>
        <time>2025-04-26T12:35:05Z</time>
      </trkpt>
      <trkpt lat="43.117956966161728" lon="0.070608984678984">
        <ele>533.66999999999996</ele>
        <time>2025-04-26T12:35:07Z</time>
      </trkpt>
      <trkpt lat="43.117939028888941" lon="0.070494990795851">
        <ele>534.14999999999998</ele>
        <time>2025-04-26T12:35:08Z</time>
      </trkpt>
      <trkpt lat="43.117900975048542" lon="0.070389965549111">
        <ele>534.63</ele>
        <time>2025-04-26T12:35:09Z</time>
      </trkpt>
      <trkpt lat="43.117810031399131" lon="0.070197014138103">
        <ele>535.59000000000003</ele>
        <time>2025-04-26T12:35:11Z</time>
      </trkpt>
      <trkpt lat="43.117748005315661" lon="0.070116966962814">
        <ele>536.07000000000005</ele>
        <time>2025-04-26T12:35:12Z</time>
      </trkpt>
      <trkpt lat="43.117677010595798" lon="0.070045972242951">
        <ele>536.07000000000005</ele>
        <time>2025-04-26T12:35:13Z</time>
      </trkpt>
      <trkpt lat="43.116892967373133" lon="0.06914097815752">
        <ele>539.44000000000005</ele>
        <time>2025-04-26T12:35:23Z</time>
      </trkpt>
      <trkpt lat="43.11682197265327" lon="0.069001000374556">
        <ele>539.44000000000005</ele>
        <time>2025-04-26T12:35:24Z</time>
      </trkpt>
      <trkpt lat="43.116788025945425" lon="0.068841995671391">
        <ele>539.44000000000005</ele>
        <time>2025-04-26T12:35:25Z</time>
      </trkpt>
      <trkpt lat="43.116749972105026" lon="0.06866798736155">
        <ele>538.96000000000004</ele>
        <time>2025-04-26T12:35:26Z</time>
      </trkpt>
      <trkpt lat="43.116710996255279" lon="0.068486016243696">
        <ele>538.48000000000002</ele>
        <time>2025-04-26T12:35:27Z</time>
      </trkpt>
      <trkpt lat="43.11641201376915" lon="0.066444016993046">
        <ele>527.41999999999996</ele>
        <time>2025-04-26T12:35:37Z</time>
      </trkpt>
      <trkpt lat="43.116118982434273" lon="0.065055973827839">
        <ele>516.85000000000002</ele>
        <time>2025-04-26T12:35:44Z</time>
      </trkpt>
      <trkpt lat="43.116096016019583" lon="0.064847012981772">
        <ele>515.39999999999998</ele>
        <time>2025-04-26T12:35:45Z</time>
      </trkpt>
      <trkpt lat="43.116088975220919" lon="0.064623970538378">
        <ele>513.96000000000004</ele>
        <time>2025-04-26T12:35:46Z</time>
      </trkpt>
      <trkpt lat="43.116226019337773" lon="0.062893023714423">
        <ele>501.94999999999999</ele>
        <time>2025-04-26T12:35:54Z</time>
      </trkpt>
      <trkpt lat="43.116216966882348" lon="0.062510976567864">
        <ele>499.54000000000002</ele>
        <time>2025-04-26T12:35:56Z</time>
      </trkpt>
      <trkpt lat="43.116201963275671" lon="0.062336968258023">
        <ele>498.10000000000002</ele>
        <time>2025-04-26T12:35:57Z</time>
      </trkpt>
      <trkpt lat="43.116130968555808" lon="0.062163965776563">
        <ele>497.13999999999999</ele>
        <time>2025-04-26T12:35:58Z</time>
      </trkpt>
      <trkpt lat="43.116057962179184" lon="0.06198501214385">
        <ele>496.18000000000001</ele>
        <time>2025-04-26T12:35:59Z</time>
      </trkpt>
      <trkpt lat="43.115985039621592" lon="0.061807986348867">
        <ele>495.22000000000003</ele>
        <time>2025-04-26T12:36:00Z</time>
      </trkpt>
      <trkpt lat="43.115914966911077" lon="0.061636995524168">
        <ele>494.25999999999999</ele>
        <time>2025-04-26T12:36:01Z</time>
      </trkpt>
      <trkpt lat="43.115862999111414" lon="0.061453012749553">
        <ele>493.76999999999998</ele>
        <time>2025-04-26T12:36:02Z</time>
      </trkpt>
      <trkpt lat="43.11585302464664" lon="0.061260983347893">
        <ele>492.81</ele>
        <time>2025-04-26T12:36:03Z</time>
      </trkpt>
      <trkpt lat="43.115831986069679" lon="0.060884971171618">
        <ele>491.37</ele>
        <time>2025-04-26T12:36:05Z</time>
      </trkpt>
      <trkpt lat="43.115824023261666" lon="0.060724960640073">
        <ele>490.41000000000003</ele>
        <time>2025-04-26T12:36:06Z</time>
      </trkpt>
      <trkpt lat="43.115779012441635" lon="0.06056796759367">
        <ele>489.44999999999999</ele>
        <time>2025-04-26T12:36:07Z</time>
      </trkpt>
      <trkpt lat="43.115730984136462" lon="0.06041600368917">
        <ele>488.49000000000001</ele>
        <time>2025-04-26T12:36:08Z</time>
      </trkpt>
      <trkpt lat="43.11563802883029" lon="0.060296980664134">
        <ele>487.52999999999997</ele>
        <time>2025-04-26T12:36:09Z</time>
      </trkpt>
      <trkpt lat="43.115542978048325" lon="0.060175023972988">
        <ele>486.07999999999998</ele>
        <time>2025-04-26T12:36:10Z</time>
      </trkpt>
      <trkpt lat="43.115438958629966" lon="0.060039991512895">
        <ele>485.12</ele>
        <time>2025-04-26T12:36:11Z</time>
      </trkpt>
      <trkpt lat="43.11538003385067" lon="0.059861037880182">
        <ele>483.68000000000001</ele>
        <time>2025-04-26T12:36:12Z</time>
      </trkpt>
      <trkpt lat="43.115325970575213" lon="0.059693986549973">
        <ele>482.72000000000003</ele>
        <time>2025-04-26T12:36:13Z</time>
      </trkpt>
      <trkpt lat="43.115223962813616" lon="0.059377988800406">
        <ele>480.31999999999999</ele>
        <time>2025-04-26T12:36:15Z</time>
      </trkpt>
      <trkpt lat="43.115139976143837" lon="0.059231976047158">
        <ele>478.87</ele>
        <time>2025-04-26T12:36:16Z</time>
      </trkpt>
      <trkpt lat="43.115027993917465" lon="0.059091998264194">
        <ele>477.91000000000003</ele>
        <time>2025-04-26T12:36:17Z</time>
      </trkpt>
      <trkpt lat="43.114041024819016" lon="0.057848040014505">
        <ele>469.25999999999999</ele>
        <time>2025-04-26T12:36:24Z</time>
      </trkpt>
      <trkpt lat="43.113006027415395" lon="0.056500984355807">
        <ele>457.72000000000003</ele>
        <time>2025-04-26T12:36:32Z</time>
      </trkpt>
      <trkpt lat="43.112893961369991" lon="0.056389002129436">
        <ele>456.27999999999997</ele>
        <time>2025-04-26T12:36:33Z</time>
      </trkpt>
      <trkpt lat="43.112779967486858" lon="0.05629001185298">
        <ele>454.36000000000001</ele>
        <time>2025-04-26T12:36:34Z</time>
      </trkpt>
      <trkpt lat="43.112476039677858" lon="0.056025981903076">
        <ele>449.55000000000001</ele>
        <time>2025-04-26T12:36:37Z</time>
      </trkpt>
      <trkpt lat="43.11241501942277" lon="0.055890027433634">
        <ele>448.58999999999997</ele>
        <time>2025-04-26T12:36:38Z</time>
      </trkpt>
      <trkpt lat="43.112361039966345" lon="0.055757006630301">
        <ele>447.14999999999998</ele>
        <time>2025-04-26T12:36:39Z</time>
      </trkpt>
      <trkpt lat="43.112320974469185" lon="0.055599007755518">
        <ele>446.19</ele>
        <time>2025-04-26T12:36:40Z</time>
      </trkpt>
      <trkpt lat="43.112297002226114" lon="0.055426005274057">
        <ele>444.75</ele>
        <time>2025-04-26T12:36:41Z</time>
      </trkpt>
      <trkpt lat="43.112283004447818" lon="0.055232970044017">
        <ele>443.31</ele>
        <time>2025-04-26T12:36:42Z</time>
      </trkpt>
      <trkpt lat="43.11226699501276" lon="0.055028032511473">
        <ele>441.86000000000001</ele>
        <time>2025-04-26T12:36:43Z</time>
      </trkpt>
      <trkpt lat="43.112276969477534" lon="0.054812030866742">
        <ele>439.94</ele>
        <time>2025-04-26T12:36:44Z</time>
      </trkpt>
      <trkpt lat="43.112301025539637" lon="0.054591000080109">
        <ele>438.5</ele>
        <time>2025-04-26T12:36:45Z</time>
      </trkpt>
      <trkpt lat="43.112324997782707" lon="0.054363012313843">
        <ele>436.57999999999998</ele>
        <time>2025-04-26T12:36:46Z</time>
      </trkpt>
      <trkpt lat="43.112840987741947" lon="0.052699958905578">
        <ele>424.07999999999998</ele>
        <time>2025-04-26T12:36:54Z</time>
      </trkpt>
      <trkpt lat="43.112942995503545" lon="0.052546989172697">
        <ele>422.16000000000003</ele>
        <time>2025-04-26T12:36:55Z</time>
      </trkpt>
      <trkpt lat="43.113043997436762" lon="0.052396031096578">
        <ele>420.70999999999998</ele>
        <time>2025-04-26T12:36:56Z</time>
      </trkpt>
      <trkpt lat="43.113156985491514" lon="0.052277008071542">
        <ele>419.26999999999998</ele>
        <time>2025-04-26T12:36:57Z</time>
      </trkpt>
      <trkpt lat="43.113270979374647" lon="0.052163014188409">
        <ele>418.31</ele>
        <time>2025-04-26T12:36:58Z</time>
      </trkpt>
      <trkpt lat="43.113382961601019" lon="0.052051031962037">
        <ele>416.87</ele>
        <time>2025-04-26T12:36:59Z</time>
      </trkpt>
      <trkpt lat="43.113486981019378" lon="0.051947012543678">
        <ele>415.91000000000003</ele>
        <time>2025-04-26T12:37:00Z</time>
      </trkpt>
      <trkpt lat="43.113537020981312" lon="0.051804017275572">
        <ele>414.47000000000003</ele>
        <time>2025-04-26T12:37:01Z</time>
      </trkpt>
      <trkpt lat="43.113575996831059" lon="0.051648030057549">
        <ele>413.5</ele>
        <time>2025-04-26T12:37:02Z</time>
      </trkpt>
      <trkpt lat="43.113588988780975" lon="0.051497993990779">
        <ele>412.54000000000002</ele>
        <time>2025-04-26T12:37:03Z</time>
      </trkpt>
      <trkpt lat="43.113583959639072" lon="0.051330020651221">
        <ele>411.57999999999998</ele>
        <time>2025-04-26T12:37:04Z</time>
      </trkpt>
      <trkpt lat="43.113578008487821" lon="0.051161041483283">
        <ele>410.62</ele>
        <time>2025-04-26T12:37:05Z</time>
      </trkpt>
      <trkpt lat="43.113591000437737" lon="0.050831967964768">
        <ele>408.69999999999999</ele>
        <time>2025-04-26T12:37:07Z</time>
      </trkpt>
      <trkpt lat="43.113621007651091" lon="0.050672963261604">
        <ele>407.74000000000001</ele>
        <time>2025-04-26T12:37:08Z</time>
      </trkpt>
      <trkpt lat="43.113680016249418" lon="0.05051395855844">
        <ele>405.81</ele>
        <time>2025-04-26T12:37:09Z</time>
      </trkpt>
      <trkpt lat="43.113766014575958" lon="0.050357971340418">
        <ele>404.37</ele>
        <time>2025-04-26T12:37:10Z</time>
      </trkpt>
      <trkpt lat="43.113856036216021" lon="0.050198966637254">
        <ele>402.93000000000001</ele>
        <time>2025-04-26T12:37:11Z</time>
      </trkpt>
      <trkpt lat="43.113944968208671" lon="0.050042979419231">
        <ele>401.49000000000001</ele>
        <time>2025-04-26T12:37:12Z</time>
      </trkpt>
      <trkpt lat="43.114024009555578" lon="0.049892021343112">
        <ele>400.05000000000001</ele>
        <time>2025-04-26T12:37:13Z</time>
      </trkpt>
      <trkpt lat="43.114053010940552" lon="0.049699991941452">
        <ele>399.07999999999998</ele>
        <time>2025-04-26T12:37:14Z</time>
      </trkpt>
      <trkpt lat="43.114083018153906" lon="0.049499999731779">
        <ele>397.63999999999999</ele>
        <time>2025-04-26T12:37:15Z</time>
      </trkpt>
      <trkpt lat="43.114062985405326" lon="0.049295984208584">
        <ele>396.68000000000001</ele>
        <time>2025-04-26T12:37:16Z</time>
      </trkpt>
      <trkpt lat="43.114031972363591" lon="0.049091968685389">
        <ele>396.19999999999999</ele>
        <time>2025-04-26T12:37:17Z</time>
      </trkpt>
      <trkpt lat="43.113985033705831" lon="0.048893988132477">
        <ele>395.24000000000001</ele>
        <time>2025-04-26T12:37:18Z</time>
      </trkpt>
      <trkpt lat="43.11394102871418" lon="0.04870698787272">
        <ele>394.27999999999997</ele>
        <time>2025-04-26T12:37:19Z</time>
      </trkpt>
      <trkpt lat="43.113827034831047" lon="0.04799704067409">
        <ele>390.43000000000001</ele>
        <time>2025-04-26T12:37:23Z</time>
      </trkpt>
      <trkpt lat="43.113776994869113" lon="0.047624967992306">
        <ele>388.99000000000001</ele>
        <time>2025-04-26T12:37:25Z</time>
      </trkpt>
      <trkpt lat="43.113729972392321" lon="0.047436961904168">
        <ele>388.02999999999997</ele>
        <time>2025-04-26T12:37:26Z</time>
      </trkpt>
      <trkpt lat="43.113665012642741" lon="0.047254990786314">
        <ele>387.55000000000001</ele>
        <time>2025-04-26T12:37:27Z</time>
      </trkpt>
      <trkpt lat="43.112647030502558" lon="0.044919960200787">
        <ele>390.43000000000001</ele>
        <time>2025-04-26T12:37:39Z</time>
      </trkpt>
      <trkpt lat="43.111248007044196" lon="0.041652023792267">
        <ele>392.36000000000001</ele>
        <time>2025-04-26T12:37:53Z</time>
      </trkpt>
      <trkpt lat="43.109954008832574" lon="0.038648033514619">
        <ele>393.31999999999999</ele>
        <time>2025-04-26T12:38:06Z</time>
      </trkpt>
      <trkpt lat="43.108209986239672" lon="0.034592030569911">
        <ele>397.16000000000003</ele>
        <time>2025-04-26T12:38:23Z</time>
      </trkpt>
      <trkpt lat="43.107601040974259" lon="0.033413032069802">
        <ele>398.12</ele>
        <time>2025-04-26T12:38:29Z</time>
      </trkpt>
      <trkpt lat="43.107474977150559" lon="0.033268025144935">
        <ele>398.60000000000002</ele>
        <time>2025-04-26T12:38:30Z</time>
      </trkpt>
      <trkpt lat="43.10734698548913" lon="0.033140033483505">
        <ele>398.60000000000002</ele>
        <time>2025-04-26T12:38:31Z</time>
      </trkpt>
      <trkpt lat="43.107225028797984" lon="0.033039031550288">
        <ele>398.60000000000002</ele>
        <time>2025-04-26T12:38:32Z</time>
      </trkpt>
      <trkpt lat="43.107106005772948" lon="0.032940041273832">
        <ele>398.60000000000002</ele>
        <time>2025-04-26T12:38:33Z</time>
      </trkpt>
      <trkpt lat="43.106302013620734" lon="0.032496973872185">
        <ele>398.12</ele>
        <time>2025-04-26T12:38:41Z</time>
      </trkpt>
      <trkpt lat="43.105472037568688" lon="0.032101012766361">
        <ele>395.24000000000001</ele>
        <time>2025-04-26T12:38:51Z</time>
      </trkpt>
      <trkpt lat="43.105396013706923" lon="0.03203303553164">
        <ele>394.75999999999999</ele>
        <time>2025-04-26T12:38:52Z</time>
      </trkpt>
      <trkpt lat="43.105352008715272" lon="0.03199297003448">
        <ele>394.75999999999999</ele>
        <time>2025-04-26T12:38:53Z</time>
      </trkpt>
      <trkpt lat="43.105287970975041" lon="0.031844023615122">
        <ele>394.27999999999997</ele>
        <time>2025-04-26T12:38:54Z</time>
      </trkpt>
      <trkpt lat="43.105242038145661" lon="0.03173497505486">
        <ele>393.80000000000001</ele>
        <time>2025-04-26T12:38:55Z</time>
      </trkpt>
      <trkpt lat="43.105204990133643" lon="0.031611006706953">
        <ele>393.80000000000001</ele>
        <time>2025-04-26T12:38:56Z</time>
      </trkpt>
      <trkpt lat="43.105174982920289" lon="0.031484020873904">
        <ele>393.31999999999999</ele>
        <time>2025-04-26T12:38:57Z</time>
      </trkpt>
      <trkpt lat="43.105096025392413" lon="0.03123801201582">
        <ele>393.31999999999999</ele>
        <time>2025-04-26T12:38:59Z</time>
      </trkpt>
      <trkpt lat="43.105049002915621" lon="0.03111002035439">
        <ele>392.83999999999997</ele>
        <time>2025-04-26T12:39:00Z</time>
      </trkpt>
      <trkpt lat="43.104974990710616" lon="0.031006000936031">
        <ele>392.83999999999997</ele>
        <time>2025-04-26T12:39:01Z</time>
      </trkpt>
      <trkpt lat="43.104887986555696" lon="0.030918996781111">
        <ele>392.83999999999997</ele>
        <time>2025-04-26T12:39:02Z</time>
      </trkpt>
      <trkpt lat="43.10479000210762" lon="0.030842972919345">
        <ele>392.83999999999997</ele>
        <time>2025-04-26T12:39:03Z</time>
      </trkpt>
      <trkpt lat="43.10468296520412" lon="0.03078899346292">
        <ele>392.83999999999997</ele>
        <time>2025-04-26T12:39:04Z</time>
      </trkpt>
      <trkpt lat="43.104562014341354" lon="0.03074599429965">
        <ele>393.31999999999999</ele>
        <time>2025-04-26T12:39:05Z</time>
      </trkpt>
      <trkpt lat="43.104440979659557" lon="0.03070299513638">
        <ele>393.31999999999999</ele>
        <time>2025-04-26T12:39:06Z</time>
      </trkpt>
      <trkpt lat="43.102879012003541" lon="0.030305022373796">
        <ele>398.12</ele>
        <time>2025-04-26T12:39:18Z</time>
      </trkpt>
      <trkpt lat="43.101799003779888" lon="0.029705967754126">
        <ele>401.00999999999999</ele>
        <time>2025-04-26T12:39:26Z</time>
      </trkpt>
      <trkpt lat="43.101088972762227" lon="0.028627971187234">
        <ele>401.97000000000003</ele>
        <time>2025-04-26T12:39:32Z</time>
      </trkpt>
      <trkpt lat="43.10092200525105" lon="0.028153974562883">
        <ele>401.97000000000003</ele>
        <time>2025-04-26T12:39:34Z</time>
      </trkpt>
      <trkpt lat="43.10066401027143" lon="0.027185026556253">
        <ele>401.49000000000001</ele>
        <time>2025-04-26T12:39:38Z</time>
      </trkpt>
      <trkpt lat="43.100453037768602" lon="0.026760986074805">
        <ele>401.00999999999999</ele>
        <time>2025-04-26T12:39:40Z</time>
      </trkpt>
      <trkpt lat="43.100321022793651" lon="0.026574991643429">
        <ele>401.00999999999999</ele>
        <time>2025-04-26T12:39:41Z</time>
      </trkpt>
      <trkpt lat="43.099824981763959" lon="0.025834031403065">
        <ele>401.97000000000003</ele>
        <time>2025-04-26T12:39:45Z</time>
      </trkpt>
      <trkpt lat="43.099745018407702" lon="0.025635967031121">
        <ele>402.44999999999999</ele>
        <time>2025-04-26T12:39:46Z</time>
      </trkpt>
      <trkpt lat="43.09967402368784" lon="0.025424994528294">
        <ele>402.44999999999999</ele>
        <time>2025-04-26T12:39:47Z</time>
      </trkpt>
      <trkpt lat="43.099192986264825" lon="0.023045036941767">
        <ele>404.37</ele>
        <time>2025-04-26T12:39:56Z</time>
      </trkpt>
      <trkpt lat="43.098454959690571" lon="0.019536036998034">
        <ele>407.74000000000001</ele>
        <time>2025-04-26T12:40:09Z</time>
      </trkpt>
      <trkpt lat="43.098371978849173" lon="0.019344007596374">
        <ele>408.22000000000003</ele>
        <time>2025-04-26T12:40:10Z</time>
      </trkpt>
      <trkpt lat="43.098270976915956" lon="0.01914300955832">
        <ele>408.69999999999999</ele>
        <time>2025-04-26T12:40:11Z</time>
      </trkpt>
      <trkpt lat="43.097352990880609" lon="0.01723000779748">
        <ele>410.62</ele>
        <time>2025-04-26T12:40:20Z</time>
      </trkpt>
      <trkpt lat="43.097278978675604" lon="0.0170580111444">
        <ele>411.10000000000002</ele>
        <time>2025-04-26T12:40:21Z</time>
      </trkpt>
      <trkpt lat="43.097061971202493" lon="0.016594994813204">
        <ele>411.10000000000002</ele>
        <time>2025-04-26T12:40:24Z</time>
      </trkpt>
      <trkpt lat="43.096666010096669" lon="0.015455977991223">
        <ele>406.76999999999998</ele>
        <time>2025-04-26T12:40:33Z</time>
      </trkpt>
      <trkpt lat="43.096417989581823" lon="0.014638993889093">
        <ele>406.29000000000002</ele>
        <time>2025-04-26T12:40:40Z</time>
      </trkpt>
      <trkpt lat="43.096404997631907" lon="0.014507984742522">
        <ele>406.29000000000002</ele>
        <time>2025-04-26T12:40:41Z</time>
      </trkpt>
      <trkpt lat="43.096404997631907" lon="0.014371024444699">
        <ele>406.29000000000002</ele>
        <time>2025-04-26T12:40:42Z</time>
      </trkpt>
      <trkpt lat="43.096404997631907" lon="0.013957964256406">
        <ele>406.76999999999998</ele>
        <time>2025-04-26T12:40:45Z</time>
      </trkpt>
      <trkpt lat="43.096397034823895" lon="0.013818992301822">
        <ele>407.25999999999999</ele>
        <time>2025-04-26T12:40:46Z</time>
      </trkpt>
      <trkpt lat="43.096379013732076" lon="0.013680020347238">
        <ele>407.74000000000001</ele>
        <time>2025-04-26T12:40:47Z</time>
      </trkpt>
      <trkpt lat="43.09632696211338" lon="0.013410039246082">
        <ele>408.69999999999999</ele>
        <time>2025-04-26T12:40:49Z</time>
      </trkpt>
      <trkpt lat="43.096292009577155" lon="0.01327701844275">
        <ele>408.69999999999999</ele>
        <time>2025-04-26T12:40:50Z</time>
      </trkpt>
      <trkpt lat="43.096244987100363" lon="0.013151960447431">
        <ele>409.66000000000003</ele>
        <time>2025-04-26T12:40:51Z</time>
      </trkpt>
      <trkpt lat="43.096191007643938" lon="0.013033021241426">
        <ele>409.66000000000003</ele>
        <time>2025-04-26T12:40:52Z</time>
      </trkpt>
      <trkpt lat="43.096135016530752" lon="0.012917015701532">
        <ele>410.13999999999999</ele>
        <time>2025-04-26T12:40:53Z</time>
      </trkpt>
      <trkpt lat="43.095967965200543" lon="0.012602023780346">
        <ele>412.06</ele>
        <time>2025-04-26T12:40:56Z</time>
      </trkpt>
      <trkpt lat="43.095909962430596" lon="0.012494986876845">
        <ele>413.01999999999998</ele>
        <time>2025-04-26T12:40:57Z</time>
      </trkpt>
      <trkpt lat="43.09585003182292" lon="0.012385016307235">
        <ele>414.47000000000003</ele>
        <time>2025-04-26T12:40:58Z</time>
      </trkpt>
      <trkpt lat="43.095789011567831" lon="0.012274039909244">
        <ele>415.43000000000001</ele>
        <time>2025-04-26T12:40:59Z</time>
      </trkpt>
      <trkpt lat="43.095726985484362" lon="0.01216096803546">
        <ele>416.38999999999999</ele>
        <time>2025-04-26T12:41:00Z</time>
      </trkpt>
      <trkpt lat="43.095320966094732" lon="0.011370973661542">
        <ele>419.26999999999998</ele>
        <time>2025-04-26T12:41:07Z</time>
      </trkpt>
      <trkpt lat="43.095270004123449" lon="0.011265026405454">
        <ele>419.75</ele>
        <time>2025-04-26T12:41:08Z</time>
      </trkpt>
      <trkpt lat="43.095120973885059" lon="0.010950034484267">
        <ele>419.75</ele>
        <time>2025-04-26T12:41:11Z</time>
      </trkpt>
      <trkpt lat="43.094964986667037" lon="0.010620960965753">
        <ele>419.26999999999998</ele>
        <time>2025-04-26T12:41:14Z</time>
      </trkpt>
      <trkpt lat="43.094915030524135" lon="0.010518031194806">
        <ele>418.79000000000002</ele>
        <time>2025-04-26T12:41:15Z</time>
      </trkpt>
      <trkpt lat="43.09471202082932" lon="0.010005980730057">
        <ele>418.31</ele>
        <time>2025-04-26T12:41:21Z</time>
      </trkpt>
      <trkpt lat="43.094644965603948" lon="0.009805988520384">
        <ele>418.31</ele>
        <time>2025-04-26T12:41:23Z</time>
      </trkpt>
      <trkpt lat="43.094638008624315" lon="0.009656036272645">
        <ele>418.31</ele>
        <time>2025-04-26T12:41:24Z</time>
      </trkpt>
      <trkpt lat="43.094631973654032" lon="0.00951798632741">
        <ele>417.35000000000002</ele>
        <time>2025-04-26T12:41:25Z</time>
      </trkpt>
      <trkpt lat="43.094601966440678" lon="0.007955012843013">
        <ele>415.43000000000001</ele>
        <time>2025-04-26T12:41:35Z</time>
      </trkpt>
      <trkpt lat="43.094594003632665" lon="0.006002029404044">
        <ele>413.98000000000002</ele>
        <time>2025-04-26T12:41:47Z</time>
      </trkpt>
      <trkpt lat="43.094624010846019" lon="0.003776969388127">
        <ele>413.98000000000002</ele>
        <time>2025-04-26T12:41:57Z</time>
      </trkpt>
      <trkpt lat="43.094658963382244" lon="0.00146197155118">
        <ele>412.54000000000002</ele>
        <time>2025-04-26T12:42:07Z</time>
      </trkpt>
      <trkpt lat="43.094670027494431" lon="-0.001636985689402">
        <ele>413.01999999999998</ele>
        <time>2025-04-26T12:42:20Z</time>
      </trkpt>
      <trkpt lat="43.094687964767218" lon="-0.00567396171391">
        <ele>413.5</ele>
        <time>2025-04-26T12:42:36Z</time>
      </trkpt>
      <trkpt lat="43.094709003344178" lon="-0.007393006235361">
        <ele>414.47000000000003</ele>
        <time>2025-04-26T12:42:44Z</time>
      </trkpt>
      <trkpt lat="43.094709003344178" lon="-0.009570037946105">
        <ele>415.43000000000001</ele>
        <time>2025-04-26T12:42:53Z</time>
      </trkpt>
      <trkpt lat="43.094730963930488" lon="-0.012671006843448">
        <ele>416.38999999999999</ele>
        <time>2025-04-26T12:43:05Z</time>
      </trkpt>
      <trkpt lat="43.094773041084409" lon="-0.014574034139514">
        <ele>417.35000000000002</ele>
        <time>2025-04-26T12:43:13Z</time>
      </trkpt>
      <trkpt lat="43.094818973913789" lon="-0.014764973893762">
        <ele>417.35000000000002</ele>
        <time>2025-04-26T12:43:14Z</time>
      </trkpt>
      <trkpt lat="43.095277966931462" lon="-0.016467003151774">
        <ele>417.35000000000002</ele>
        <time>2025-04-26T12:43:22Z</time>
      </trkpt>
      <trkpt lat="43.095477037131786" lon="-0.017915982753038">
        <ele>417.35000000000002</ele>
        <time>2025-04-26T12:43:31Z</time>
      </trkpt>
      <trkpt lat="43.095689015462995" lon="-0.019449032843113">
        <ele>416.87</ele>
        <time>2025-04-26T12:43:41Z</time>
      </trkpt>
      <trkpt lat="43.095963019877672" lon="-0.021496983245015">
        <ele>417.82999999999998</ele>
        <time>2025-04-26T12:43:54Z</time>
      </trkpt>
      <trkpt lat="43.096268959343433" lon="-0.023695975542068">
        <ele>417.82999999999998</ele>
        <time>2025-04-26T12:44:08Z</time>
      </trkpt>
      <trkpt lat="43.096607001498342" lon="-0.026033017784357">
        <ele>417.35000000000002</ele>
        <time>2025-04-26T12:44:23Z</time>
      </trkpt>
      <trkpt lat="43.096642037853599" lon="-0.026164026930928">
        <ele>417.35000000000002</ele>
        <time>2025-04-26T12:44:24Z</time>
      </trkpt>
      <trkpt lat="43.09669098816812" lon="-0.026275003328919">
        <ele>417.82999999999998</ele>
        <time>2025-04-26T12:44:25Z</time>
      </trkpt>
      <trkpt lat="43.096738010644913" lon="-0.026380028575659">
        <ele>417.82999999999998</ele>
        <time>2025-04-26T12:44:26Z</time>
      </trkpt>
      <trkpt lat="43.096790984272957" lon="-0.026499973610044">
        <ele>418.31</ele>
        <time>2025-04-26T12:44:27Z</time>
      </trkpt>
      <trkpt lat="43.09705400839448" lon="-0.026928959414363">
        <ele>419.26999999999998</ele>
        <time>2025-04-26T12:44:32Z</time>
      </trkpt>
      <trkpt lat="43.09716297313571" lon="-0.027107996866107">
        <ele>419.26999999999998</ele>
        <time>2025-04-26T12:44:35Z</time>
      </trkpt>
      <trkpt lat="43.097236985340714" lon="-0.027331961318851">
        <ele>419.26999999999998</ele>
        <time>2025-04-26T12:44:36Z</time>
      </trkpt>
      <trkpt lat="43.097263975068927" lon="-0.027449978515506">
        <ele>418.79000000000002</ele>
        <time>2025-04-26T12:44:37Z</time>
      </trkpt>
      <trkpt lat="43.097290964797139" lon="-0.0275659840554">
        <ele>418.79000000000002</ele>
        <time>2025-04-26T12:44:38Z</time>
      </trkpt>
      <trkpt lat="43.097317032516003" lon="-0.027680983766913">
        <ele>419.26999999999998</ele>
        <time>2025-04-26T12:44:39Z</time>
      </trkpt>
      <trkpt lat="43.097327006980777" lon="-0.027806041762233">
        <ele>418.79000000000002</ele>
        <time>2025-04-26T12:44:40Z</time>
      </trkpt>
      <trkpt lat="43.097434965893626" lon="-0.028257993981242">
        <ele>416.87</ele>
        <time>2025-04-26T12:44:47Z</time>
      </trkpt>
      <trkpt lat="43.09746103361249" lon="-0.028328988701105">
        <ele>415.91000000000003</ele>
        <time>2025-04-26T12:44:50Z</time>
      </trkpt>
      <trkpt lat="43.097552983090281" lon="-0.028421021997929">
        <ele>415.43000000000001</ele>
        <time>2025-04-26T12:44:52Z</time>
      </trkpt>
      <trkpt lat="43.097589025273919" lon="-0.02851003780961">
        <ele>414.94999999999999</ele>
        <time>2025-04-26T12:44:53Z</time>
      </trkpt>
      <trkpt lat="43.097594976425171" lon="-0.028579020872712">
        <ele>414.47000000000003</ele>
        <time>2025-04-26T12:44:54Z</time>
      </trkpt>
      <trkpt lat="43.097601011395454" lon="-0.028649009764194">
        <ele>413.98000000000002</ele>
        <time>2025-04-26T12:44:55Z</time>
      </trkpt>
      <trkpt lat="43.097606040537357" lon="-0.028710030019283">
        <ele>413.5</ele>
        <time>2025-04-26T12:44:56Z</time>
      </trkpt>
      <trkpt lat="43.097577039152384" lon="-0.028761997818947">
        <ele>413.01999999999998</ele>
        <time>2025-04-26T12:44:57Z</time>
      </trkpt>
      <trkpt lat="43.097544014453888" lon="-0.028823018074036">
        <ele>413.01999999999998</ele>
        <time>2025-04-26T12:44:58Z</time>
      </trkpt>
      <trkpt lat="43.097499003633857" lon="-0.028905998915434">
        <ele>412.54000000000002</ele>
        <time>2025-04-26T12:44:59Z</time>
      </trkpt>
      <trkpt lat="43.097480982542038" lon="-0.028993003070354">
        <ele>412.06</ele>
        <time>2025-04-26T12:45:00Z</time>
      </trkpt>
      <trkpt lat="43.09746203944087" lon="-0.029089981690049">
        <ele>411.57999999999998</ele>
        <time>2025-04-26T12:45:01Z</time>
      </trkpt>
      <trkpt lat="43.09744100086391" lon="-0.029194001108408">
        <ele>411.10000000000002</ele>
        <time>2025-04-26T12:45:02Z</time>
      </trkpt>
      <trkpt lat="43.097413005307317" lon="-0.029332973062992">
        <ele>410.62</ele>
        <time>2025-04-26T12:45:03Z</time>
      </trkpt>
      <trkpt lat="43.097413005307317" lon="-0.029759025201201">
        <ele>410.62</ele>
        <time>2025-04-26T12:45:07Z</time>
      </trkpt>
      <trkpt lat="43.097415016964078" lon="-0.029872013255954">
        <ele>410.62</ele>
        <time>2025-04-26T12:45:08Z</time>
      </trkpt>
      <trkpt lat="43.097566980868578" lon="-0.030999965965748">
        <ele>408.22000000000003</ele>
        <time>2025-04-26T12:45:17Z</time>
      </trkpt>
      <trkpt lat="43.097601011395454" lon="-0.031137010082603">
        <ele>406.76999999999998</ele>
        <time>2025-04-26T12:45:19Z</time>
      </trkpt>
      <trkpt lat="43.097710981965065" lon="-0.031516961753368">
        <ele>405.32999999999998</ele>
        <time>2025-04-26T12:45:21Z</time>
      </trkpt>
      <trkpt lat="43.097811983898282" lon="-0.031718965619802">
        <ele>404.37</ele>
        <time>2025-04-26T12:45:23Z</time>
      </trkpt>
      <trkpt lat="43.097855988889933" lon="-0.031805969774723">
        <ele>404.37</ele>
        <time>2025-04-26T12:45:24Z</time>
      </trkpt>
      <trkpt lat="43.097920026630163" lon="-0.031907977536321">
        <ele>403.88999999999999</ele>
        <time>2025-04-26T12:45:25Z</time>
      </trkpt>
      <trkpt lat="43.097993033006787" lon="-0.031907977536321">
        <ele>403.88999999999999</ele>
        <time>2025-04-26T12:45:26Z</time>
      </trkpt>
      <trkpt lat="43.098056986927986" lon="-0.031907977536321">
        <ele>404.37</ele>
        <time>2025-04-26T12:45:27Z</time>
      </trkpt>
      <trkpt lat="43.098135022446513" lon="-0.031922981142998">
        <ele>404.37</ele>
        <time>2025-04-26T12:45:28Z</time>
      </trkpt>
      <trkpt lat="43.098184978589416" lon="-0.031980983912945">
        <ele>404.37</ele>
        <time>2025-04-26T12:45:29Z</time>
      </trkpt>
      <trkpt lat="43.098229989409447" lon="-0.032034041360021">
        <ele>404.85000000000002</ele>
        <time>2025-04-26T12:45:30Z</time>
      </trkpt>
      <trkpt lat="43.098241975530982" lon="-0.032176030799747">
        <ele>404.85000000000002</ele>
        <time>2025-04-26T12:45:31Z</time>
      </trkpt>
      <trkpt lat="43.09823501855135" lon="-0.032266974449158">
        <ele>404.85000000000002</ele>
        <time>2025-04-26T12:45:32Z</time>
      </trkpt>
      <trkpt lat="43.098195036873221" lon="-0.032381974160671">
        <ele>404.85000000000002</ele>
        <time>2025-04-26T12:45:33Z</time>
      </trkpt>
      <trkpt lat="43.098136028274894" lon="-0.03242296166718">
        <ele>404.37</ele>
        <time>2025-04-26T12:45:34Z</time>
      </trkpt>
      <trkpt lat="43.098071990534663" lon="-0.032466966658831">
        <ele>403.88999999999999</ele>
        <time>2025-04-26T12:45:35Z</time>
      </trkpt>
      <trkpt lat="43.097985992208123" lon="-0.032494962215424">
        <ele>403.41000000000003</ele>
        <time>2025-04-26T12:45:36Z</time>
      </trkpt>
      <trkpt lat="43.097918014973402" lon="-0.032461015507579">
        <ele>403.41000000000003</ele>
        <time>2025-04-26T12:45:37Z</time>
      </trkpt>
      <trkpt lat="43.097884990274906" lon="-0.032444000244141">
        <ele>402.93000000000001</ele>
        <time>2025-04-26T12:45:38Z</time>
      </trkpt>
      <trkpt lat="43.097686003893614" lon="-0.03235699608922">
        <ele>402.44999999999999</ele>
        <time>2025-04-26T12:45:40Z</time>
      </trkpt>
      <trkpt lat="43.097608974203467" lon="-0.032398989424109">
        <ele>402.44999999999999</ele>
        <time>2025-04-26T12:45:41Z</time>
      </trkpt>
      <trkpt lat="43.096724012866616" lon="-0.032958984375">
        <ele>400.05000000000001</ele>
        <time>2025-04-26T12:45:51Z</time>
      </trkpt>
      <trkpt lat="43.096257979050279" lon="-0.033549992367625">
        <ele>399.56999999999999</ele>
        <time>2025-04-26T12:45:57Z</time>
      </trkpt>
      <trkpt lat="43.095851959660649" lon="-0.034562023356557">
        <ele>399.56999999999999</ele>
        <time>2025-04-26T12:46:07Z</time>
      </trkpt>
      <trkpt lat="43.095784988254309" lon="-0.034837033599615">
        <ele>399.07999999999998</ele>
        <time>2025-04-26T12:46:11Z</time>
      </trkpt>
      <trkpt lat="43.095822958275676" lon="-0.035962974652648">
        <ele>398.60000000000002</ele>
        <time>2025-04-26T12:46:21Z</time>
      </trkpt>
      <trkpt lat="43.096061004325747" lon="-0.037458976730704">
        <ele>398.60000000000002</ele>
        <time>2025-04-26T12:46:32Z</time>
      </trkpt>
      <trkpt lat="43.09610903263092" lon="-0.03759803250432">
        <ele>398.60000000000002</ele>
        <time>2025-04-26T12:46:33Z</time>
      </trkpt>
      <trkpt lat="43.096162006258965" lon="-0.037696016952395">
        <ele>398.60000000000002</ele>
        <time>2025-04-26T12:46:34Z</time>
      </trkpt>
      <trkpt lat="43.096874970942736" lon="-0.038346033543348">
        <ele>397.63999999999999</ele>
        <time>2025-04-26T12:46:44Z</time>
      </trkpt>
      <trkpt lat="43.097219970077276" lon="-0.038559017702937">
        <ele>397.63999999999999</ele>
        <time>2025-04-26T12:46:51Z</time>
      </trkpt>
      <trkpt lat="43.097308985888958" lon="-0.038567986339331">
        <ele>397.16000000000003</ele>
        <time>2025-04-26T12:46:53Z</time>
      </trkpt>
      <trkpt lat="43.097347039729357" lon="-0.038573015481234">
        <ele>397.16000000000003</ele>
        <time>2025-04-26T12:46:54Z</time>
      </trkpt>
      <trkpt lat="43.097413005307317" lon="-0.038580978289247">
        <ele>397.16000000000003</ele>
        <time>2025-04-26T12:46:55Z</time>
      </trkpt>
      <trkpt lat="43.097413005307317" lon="-0.038611991330981">
        <ele>397.16000000000003</ele>
        <time>2025-04-26T12:46:56Z</time>
      </trkpt>
      <trkpt lat="43.097364977002144" lon="-0.03873897716403">
        <ele>397.16000000000003</ele>
        <time>2025-04-26T12:46:57Z</time>
      </trkpt>
      <trkpt lat="43.097329018637538" lon="-0.038745012134314">
        <ele>397.16000000000003</ele>
        <time>2025-04-26T12:46:58Z</time>
      </trkpt>
      <trkpt lat="43.097278978675604" lon="-0.038752974942327">
        <ele>397.16000000000003</ele>
        <time>2025-04-26T12:46:59Z</time>
      </trkpt>
      <trkpt lat="43.097220975905657" lon="-0.038763033226132">
        <ele>397.16000000000003</ele>
        <time>2025-04-26T12:47:00Z</time>
      </trkpt>
      <trkpt lat="43.097161967307329" lon="-0.038773007690907">
        <ele>396.68000000000001</ele>
        <time>2025-04-26T12:47:01Z</time>
      </trkpt>
      <trkpt lat="43.097156016156077" lon="-0.038774013519287">
        <ele>396.68000000000001</ele>
        <time>2025-04-26T12:47:02Z</time>
      </trkpt>
      <trkpt lat="43.097013020887971" lon="-0.038706958293915">
        <ele>396.19999999999999</ele>
        <time>2025-04-26T12:47:03Z</time>
      </trkpt>
      <trkpt lat="43.096970021724701" lon="-0.038764039054513">
        <ele>396.19999999999999</ele>
        <time>2025-04-26T12:47:04Z</time>
      </trkpt>
      <trkpt lat="43.096922999247909" lon="-0.038825981318951">
        <ele>395.72000000000003</ele>
        <time>2025-04-26T12:47:05Z</time>
      </trkpt>
      <trkpt lat="43.096833983436227" lon="-0.038946010172367">
        <ele>395.24000000000001</ele>
        <time>2025-04-26T12:47:06Z</time>
      </trkpt>
      <trkpt lat="43.096140967682004" lon="-0.039315987378359">
        <ele>387.55000000000001</ele>
        <time>2025-04-26T12:47:16Z</time>
      </trkpt>
      <trkpt lat="43.095538979396224" lon="-0.039603989571333">
        <ele>390.91000000000003</ele>
        <time>2025-04-26T12:47:24Z</time>
      </trkpt>
      <trkpt lat="43.095464967191219" lon="-0.039641037583351">
        <ele>390.91000000000003</ele>
        <time>2025-04-26T12:47:25Z</time>
      </trkpt>
      <trkpt lat="43.094937996938825" lon="-0.039887968450785">
        <ele>393.31999999999999</ele>
        <time>2025-04-26T12:47:35Z</time>
      </trkpt>
      <trkpt lat="43.094774968922138" lon="-0.039996011182666">
        <ele>395.24000000000001</ele>
        <time>2025-04-26T12:47:39Z</time>
      </trkpt>
      <trkpt lat="43.094743033871055" lon="-0.040066000074148">
        <ele>395.24000000000001</ele>
        <time>2025-04-26T12:47:40Z</time>
      </trkpt>
      <trkpt lat="43.094711015000939" lon="-0.040138000622392">
        <ele>395.72000000000003</ele>
        <time>2025-04-26T12:47:41Z</time>
      </trkpt>
      <trkpt lat="43.094676984474063" lon="-0.040216958150268">
        <ele>396.19999999999999</ele>
        <time>2025-04-26T12:47:42Z</time>
      </trkpt>
      <trkpt lat="43.094641026109457" lon="-0.040302034467459">
        <ele>396.68000000000001</ele>
        <time>2025-04-26T12:47:43Z</time>
      </trkpt>
      <trkpt lat="43.094341037794948" lon="-0.041013993322849">
        <ele>399.07999999999998</ele>
        <time>2025-04-26T12:47:50Z</time>
      </trkpt>
      <trkpt lat="43.094299966469407" lon="-0.041110971942544">
        <ele>399.07999999999998</ele>
        <time>2025-04-26T12:47:51Z</time>
      </trkpt>
      <trkpt lat="43.09421899728477" lon="-0.041304007172585">
        <ele>400.05000000000001</ele>
        <time>2025-04-26T12:47:53Z</time>
      </trkpt>
      <trkpt lat="43.094178009778261" lon="-0.04140199162066">
        <ele>400.05000000000001</ele>
        <time>2025-04-26T12:47:54Z</time>
      </trkpt>
      <trkpt lat="43.094059992581606" lon="-0.041708014905453">
        <ele>401.49000000000001</ele>
        <time>2025-04-26T12:47:57Z</time>
      </trkpt>
      <trkpt lat="43.093992015346885" lon="-0.041883029043674">
        <ele>402.44999999999999</ele>
        <time>2025-04-26T12:47:59Z</time>
      </trkpt>
      <trkpt lat="43.094000983983278" lon="-0.042014038190246">
        <ele>402.93000000000001</ele>
        <time>2025-04-26T12:48:00Z</time>
      </trkpt>
      <trkpt lat="43.094000983983278" lon="-0.04204697906971">
        <ele>403.41000000000003</ele>
        <time>2025-04-26T12:48:01Z</time>
      </trkpt>
      <trkpt lat="43.093957984820008" lon="-0.042143035680056">
        <ele>404.37</ele>
        <time>2025-04-26T12:48:02Z</time>
      </trkpt>
      <trkpt lat="43.093941975384951" lon="-0.042167007923126">
        <ele>404.85000000000002</ele>
        <time>2025-04-26T12:48:03Z</time>
      </trkpt>
      <trkpt lat="43.093907022848725" lon="-0.04221998155117">
        <ele>405.81</ele>
        <time>2025-04-26T12:48:04Z</time>
      </trkpt>
      <trkpt lat="43.093867963179946" lon="-0.042285025119781">
        <ele>406.29000000000002</ele>
        <time>2025-04-26T12:48:05Z</time>
      </trkpt>
      <trkpt lat="43.093843990936875" lon="-0.042357025668025">
        <ele>406.76999999999998</ele>
        <time>2025-04-26T12:48:06Z</time>
      </trkpt>
      <trkpt lat="43.093807026743889" lon="-0.042499015107751">
        <ele>407.25999999999999</ele>
        <time>2025-04-26T12:48:08Z</time>
      </trkpt>
      <trkpt lat="43.093786993995309" lon="-0.042529022321105">
        <ele>407.74000000000001</ele>
        <time>2025-04-26T12:48:09Z</time>
      </trkpt>
      <trkpt lat="43.093205960467458" lon="-0.043238969519734">
        <ele>410.13999999999999</ele>
        <time>2025-04-26T12:48:19Z</time>
      </trkpt>
      <trkpt lat="43.092989036813378" lon="-0.043582962825894">
        <ele>411.10000000000002</ele>
        <time>2025-04-26T12:48:25Z</time>
      </trkpt>
      <trkpt lat="43.092949977144599" lon="-0.043644988909364">
        <ele>411.10000000000002</ele>
        <time>2025-04-26T12:48:26Z</time>
      </trkpt>
      <trkpt lat="43.092515962198377" lon="-0.04440899938345">
        <ele>412.06</ele>
        <time>2025-04-26T12:48:36Z</time>
      </trkpt>
      <trkpt lat="43.09241303242743" lon="-0.044588958844543">
        <ele>412.06</ele>
        <time>2025-04-26T12:48:38Z</time>
      </trkpt>
      <trkpt lat="43.09239199385047" lon="-0.044662971049547">
        <ele>412.06</ele>
        <time>2025-04-26T12:48:39Z</time>
      </trkpt>
      <trkpt lat="43.092365004122257" lon="-0.044758021831512">
        <ele>412.54000000000002</ele>
        <time>2025-04-26T12:48:40Z</time>
      </trkpt>
      <trkpt lat="43.092338014394045" lon="-0.044852988794446">
        <ele>413.01999999999998</ele>
        <time>2025-04-26T12:48:41Z</time>
      </trkpt>
      <trkpt lat="43.092316975817084" lon="-0.044958014041185">
        <ele>413.01999999999998</ele>
        <time>2025-04-26T12:48:42Z</time>
      </trkpt>
      <trkpt lat="43.09228403493762" lon="-0.045164041221142">
        <ele>414.47000000000003</ele>
        <time>2025-04-26T12:48:44Z</time>
      </trkpt>
      <trkpt lat="43.09226299636066" lon="-0.045368978753686">
        <ele>415.91000000000003</ele>
        <time>2025-04-26T12:48:46Z</time>
      </trkpt>
      <trkpt lat="43.09226299636066" lon="-0.045463023707271">
        <ele>416.38999999999999</ele>
        <time>2025-04-26T12:48:47Z</time>
      </trkpt>
      <trkpt lat="43.09226299636066" lon="-0.045556984841824">
        <ele>416.87</ele>
        <time>2025-04-26T12:48:48Z</time>
      </trkpt>
      <trkpt lat="43.09221999719739" lon="-0.046047996729612">
        <ele>421.68000000000001</ele>
        <time>2025-04-26T12:48:56Z</time>
      </trkpt>
      <trkpt lat="43.092170963063836" lon="-0.046198032796383">
        <ele>423.12</ele>
        <time>2025-04-26T12:48:59Z</time>
      </trkpt>
      <trkpt lat="43.092118995264173" lon="-0.046198032796383">
        <ele>423.12</ele>
        <time>2025-04-26T12:49:00Z</time>
      </trkpt>
      <trkpt lat="43.092056969180703" lon="-0.046198032796383">
        <ele>423.60000000000002</ele>
        <time>2025-04-26T12:49:01Z</time>
      </trkpt>
      <trkpt lat="43.091991003602743" lon="-0.046198032796383">
        <ele>424.07999999999998</ele>
        <time>2025-04-26T12:49:02Z</time>
      </trkpt>
      <trkpt lat="43.091926965862513" lon="-0.046198032796383">
        <ele>424.56</ele>
        <time>2025-04-26T12:49:03Z</time>
      </trkpt>
      <trkpt lat="43.091725967824459" lon="-0.04619300365448">
        <ele>425.51999999999998</ele>
        <time>2025-04-26T12:49:06Z</time>
      </trkpt>
      <trkpt lat="43.091117022559047" lon="-0.046155033633113">
        <ele>426.95999999999998</ele>
        <time>2025-04-26T12:49:15Z</time>
      </trkpt>
      <trkpt lat="43.0910399928689" lon="-0.046155033633113">
        <ele>426.95999999999998</ele>
        <time>2025-04-26T12:49:16Z</time>
      </trkpt>
      <trkpt lat="43.090981990098953" lon="-0.046155033633113">
        <ele>426.95999999999998</ele>
        <time>2025-04-26T12:49:17Z</time>
      </trkpt>
      <trkpt lat="43.090913007035851" lon="-0.046155033633113">
        <ele>426.95999999999998</ele>
        <time>2025-04-26T12:49:18Z</time>
      </trkpt>
      <trkpt lat="43.090843018144369" lon="-0.046155033633113">
        <ele>426.95999999999998</ele>
        <time>2025-04-26T12:49:19Z</time>
      </trkpt>
      <trkpt lat="43.09076095931232" lon="-0.046155033633113">
        <ele>426.95999999999998</ele>
        <time>2025-04-26T12:49:20Z</time>
      </trkpt>
      <trkpt lat="43.090199958533049" lon="-0.046133995056152">
        <ele>427.44</ele>
        <time>2025-04-26T12:49:28Z</time>
      </trkpt>
      <trkpt lat="43.090130975469947" lon="-0.046133995056152">
        <ele>426.95999999999998</ele>
        <time>2025-04-26T12:49:29Z</time>
      </trkpt>
      <trkpt lat="43.090061992406845" lon="-0.046133995056152">
        <ele>426.48000000000002</ele>
        <time>2025-04-26T12:49:30Z</time>
      </trkpt>
      <trkpt lat="43.089774996042252" lon="-0.046113040298223">
        <ele>426</ele>
        <time>2025-04-26T12:49:34Z</time>
      </trkpt>
      <trkpt lat="43.089711964130402" lon="-0.046113040298223">
        <ele>425.51999999999998</ele>
        <time>2025-04-26T12:49:35Z</time>
      </trkpt>
      <trkpt lat="43.089678017422557" lon="-0.046219993382692">
        <ele>424.07999999999998</ele>
        <time>2025-04-26T12:49:36Z</time>
      </trkpt>
      <trkpt lat="43.089641975238919" lon="-0.046291993930936">
        <ele>422.63999999999999</ele>
        <time>2025-04-26T12:49:37Z</time>
      </trkpt>
      <trkpt lat="43.089597970247269" lon="-0.046378998085856">
        <ele>421.68000000000001</ele>
        <time>2025-04-26T12:49:38Z</time>
      </trkpt>
      <trkpt lat="43.089554971083999" lon="-0.046472037211061">
        <ele>420.70999999999998</ele>
        <time>2025-04-26T12:49:39Z</time>
      </trkpt>
      <trkpt lat="43.089475007727742" lon="-0.046667000278831">
        <ele>419.26999999999998</ele>
        <time>2025-04-26T12:49:41Z</time>
      </trkpt>
      <trkpt lat="43.089436031877995" lon="-0.046764984726906">
        <ele>418.79000000000002</ele>
        <time>2025-04-26T12:49:42Z</time>
      </trkpt>
      <trkpt lat="43.089408036321402" lon="-0.046861963346601">
        <ele>417.82999999999998</ele>
        <time>2025-04-26T12:49:43Z</time>
      </trkpt>
      <trkpt lat="43.089380962774158" lon="-0.046961959451437">
        <ele>416.87</ele>
        <time>2025-04-26T12:49:44Z</time>
      </trkpt>
      <trkpt lat="43.089372999966145" lon="-0.047050975263119">
        <ele>415.91000000000003</ele>
        <time>2025-04-26T12:49:45Z</time>
      </trkpt>
      <trkpt lat="43.089391021057963" lon="-0.047152983024716">
        <ele>414.94999999999999</ele>
        <time>2025-04-26T12:49:46Z</time>
      </trkpt>
      <trkpt lat="43.08940895833075" lon="-0.047255996614695">
        <ele>413.5</ele>
        <time>2025-04-26T12:49:47Z</time>
      </trkpt>
      <trkpt lat="43.089426979422569" lon="-0.047359010204673">
        <ele>412.54000000000002</ele>
        <time>2025-04-26T12:49:48Z</time>
      </trkpt>
      <trkpt lat="43.089462015777826" lon="-0.047446014359593">
        <ele>411.57999999999998</ele>
        <time>2025-04-26T12:49:49Z</time>
      </trkpt>
      <trkpt lat="43.089506020769477" lon="-0.047541987150908">
        <ele>411.10000000000002</ele>
        <time>2025-04-26T12:49:50Z</time>
      </trkpt>
      <trkpt lat="43.089549019932747" lon="-0.047634020447731">
        <ele>410.62</ele>
        <time>2025-04-26T12:49:51Z</time>
      </trkpt>
      <trkpt lat="43.089541979134083" lon="-0.047752037644386">
        <ele>410.62</ele>
        <time>2025-04-26T12:49:52Z</time>
      </trkpt>
      <trkpt lat="43.089524963870645" lon="-0.047851027920842">
        <ele>410.13999999999999</ele>
        <time>2025-04-26T12:49:53Z</time>
      </trkpt>
      <trkpt lat="43.089498979970813" lon="-0.047949012368917">
        <ele>409.66000000000003</ele>
        <time>2025-04-26T12:49:54Z</time>
      </trkpt>
      <trkpt lat="43.089467966929078" lon="-0.048046996816993">
        <ele>409.18000000000001</ele>
        <time>2025-04-26T12:49:55Z</time>
      </trkpt>
      <trkpt lat="43.089408036321402" lon="-0.04823500290513">
        <ele>408.69999999999999</ele>
        <time>2025-04-26T12:49:57Z</time>
      </trkpt>
      <trkpt lat="43.089381968602538" lon="-0.048316977918148">
        <ele>408.22000000000003</ele>
        <time>2025-04-26T12:49:58Z</time>
      </trkpt>
      <trkpt lat="43.089351961389184" lon="-0.04838403314352">
        <ele>407.74000000000001</ele>
        <time>2025-04-26T12:49:59Z</time>
      </trkpt>
      <trkpt lat="43.089014003053308" lon="-0.048977974802256">
        <ele>405.32999999999998</ele>
        <time>2025-04-26T12:50:06Z</time>
      </trkpt>
      <trkpt lat="43.088987013325095" lon="-0.04907201975584">
        <ele>404.85000000000002</ele>
        <time>2025-04-26T12:50:07Z</time>
      </trkpt>
      <trkpt lat="43.088965974748135" lon="-0.049170004203916">
        <ele>404.37</ele>
        <time>2025-04-26T12:50:08Z</time>
      </trkpt>
      <trkpt lat="43.088928004726768" lon="-0.049367984756827">
        <ele>402.93000000000001</ele>
        <time>2025-04-26T12:50:10Z</time>
      </trkpt>
      <trkpt lat="43.088905038312078" lon="-0.049706026911736">
        <ele>401.00999999999999</ele>
        <time>2025-04-26T12:50:13Z</time>
      </trkpt>
      <trkpt lat="43.088915012776852" lon="-0.049838963896036">
        <ele>400.52999999999997</ele>
        <time>2025-04-26T12:50:14Z</time>
      </trkpt>
      <trkpt lat="43.0889349617064" lon="-0.050136018544436">
        <ele>399.07999999999998</ele>
        <time>2025-04-26T12:50:16Z</time>
      </trkpt>
      <trkpt lat="43.089252971112728" lon="-0.051408978179097">
        <ele>389.47000000000003</ele>
        <time>2025-04-26T12:50:25Z</time>
      </trkpt>
      <trkpt lat="43.089455980807543" lon="-0.052172988653183">
        <ele>385.63</ele>
        <time>2025-04-26T12:50:31Z</time>
      </trkpt>
      <trkpt lat="43.089487999677658" lon="-0.052291005849838">
        <ele>384.66000000000003</ele>
        <time>2025-04-26T12:50:32Z</time>
      </trkpt>
      <trkpt lat="43.089796034619212" lon="-0.053404960781336">
        <ele>382.25999999999999</ele>
        <time>2025-04-26T12:50:42Z</time>
      </trkpt>
      <trkpt lat="43.089928971603513" lon="-0.053768986836076">
        <ele>380.33999999999997</ele>
        <time>2025-04-26T12:50:50Z</time>
      </trkpt>
      <trkpt lat="43.089947998523712" lon="-0.053813997656107">
        <ele>380.33999999999997</ele>
        <time>2025-04-26T12:50:51Z</time>
      </trkpt>
      <trkpt lat="43.089974988251925" lon="-0.05386303178966">
        <ele>380.33999999999997</ele>
        <time>2025-04-26T12:50:52Z</time>
      </trkpt>
      <trkpt lat="43.090024022385478" lon="-0.053890021517873">
        <ele>380.33999999999997</ele>
        <time>2025-04-26T12:50:53Z</time>
      </trkpt>
      <trkpt lat="43.090426018461585" lon="-0.054109962657094">
        <ele>380.81999999999999</ele>
        <time>2025-04-26T12:51:00Z</time>
      </trkpt>
      <trkpt lat="43.090487038716674" lon="-0.05414298735559">
        <ele>380.81999999999999</ele>
        <time>2025-04-26T12:51:01Z</time>
      </trkpt>
      <trkpt lat="43.090972015634179" lon="-0.05442101508379">
        <ele>381.30000000000001</ele>
        <time>2025-04-26T12:51:09Z</time>
      </trkpt>
      <trkpt lat="43.091478031128645" lon="-0.054698036983609">
        <ele>381.30000000000001</ele>
        <time>2025-04-26T12:51:20Z</time>
      </trkpt>
      <trkpt lat="43.091660002246499" lon="-0.054804990068078">
        <ele>381.30000000000001</ele>
        <time>2025-04-26T12:51:25Z</time>
      </trkpt>
      <trkpt lat="43.091824036091566" lon="-0.054924013093114">
        <ele>382.25999999999999</ele>
        <time>2025-04-26T12:51:29Z</time>
      </trkpt>
      <trkpt lat="43.091849014163017" lon="-0.054955026134849">
        <ele>382.25999999999999</ele>
        <time>2025-04-26T12:51:30Z</time>
      </trkpt>
      <trkpt lat="43.09187700971961" lon="-0.054996013641357">
        <ele>382.74000000000001</ele>
        <time>2025-04-26T12:51:31Z</time>
      </trkpt>
      <trkpt lat="43.091907016932964" lon="-0.05504596978426">
        <ele>382.74000000000001</ele>
        <time>2025-04-26T12:51:32Z</time>
      </trkpt>
      <trkpt lat="43.091940963640809" lon="-0.055102966725826">
        <ele>382.74000000000001</ele>
        <time>2025-04-26T12:51:33Z</time>
      </trkpt>
      <trkpt lat="43.09204900637269" lon="-0.055274963378906">
        <ele>382.74000000000001</ele>
        <time>2025-04-26T12:51:36Z</time>
      </trkpt>
      <trkpt lat="43.092060992494226" lon="-0.055300025269389">
        <ele>382.74000000000001</ele>
        <time>2025-04-26T12:51:37Z</time>
      </trkpt>
      <trkpt lat="43.092086976394057" lon="-0.055350987240672">
        <ele>382.74000000000001</ele>
        <time>2025-04-26T12:51:38Z</time>
      </trkpt>
      <trkpt lat="43.09211103245616" lon="-0.055399015545845">
        <ele>382.74000000000001</ele>
        <time>2025-04-26T12:51:39Z</time>
      </trkpt>
      <trkpt lat="43.09213399887085" lon="-0.055445032194257">
        <ele>382.74000000000001</ele>
        <time>2025-04-26T12:51:40Z</time>
      </trkpt>
      <trkpt lat="43.092155959457159" lon="-0.055489959195256">
        <ele>382.74000000000001</ele>
        <time>2025-04-26T12:51:41Z</time>
      </trkpt>
      <trkpt lat="43.092232989147305" lon="-0.055599007755518">
        <ele>382.74000000000001</ele>
        <time>2025-04-26T12:51:44Z</time>
      </trkpt>
      <trkpt lat="43.092255033552647" lon="-0.055629014968872">
        <ele>382.74000000000001</ele>
        <time>2025-04-26T12:51:45Z</time>
      </trkpt>
      <trkpt lat="43.09230599552393" lon="-0.05560202524066">
        <ele>382.25999999999999</ele>
        <time>2025-04-26T12:51:46Z</time>
      </trkpt>
      <trkpt lat="43.092345977202058" lon="-0.055565983057022">
        <ele>382.25999999999999</ele>
        <time>2025-04-26T12:51:47Z</time>
      </trkpt>
      <trkpt lat="43.092396017163992" lon="-0.055521978065372">
        <ele>382.25999999999999</ele>
        <time>2025-04-26T12:51:48Z</time>
      </trkpt>
      <trkpt lat="43.092447984963655" lon="-0.05547596141696">
        <ele>381.77999999999997</ele>
        <time>2025-04-26T12:51:49Z</time>
      </trkpt>
      <trkpt lat="43.0925009585917" lon="-0.055429022759199">
        <ele>381.77999999999997</ele>
        <time>2025-04-26T12:51:50Z</time>
      </trkpt>
      <trkpt lat="43.092558039352298" lon="-0.055378982797265">
        <ele>381.77999999999997</ele>
        <time>2025-04-26T12:51:51Z</time>
      </trkpt>
      <trkpt lat="43.093042010441422" lon="-0.054949996992946">
        <ele>381.30000000000001</ele>
        <time>2025-04-26T12:51:59Z</time>
      </trkpt>
      <trkpt lat="43.093103030696511" lon="-0.054896017536521">
        <ele>381.30000000000001</ele>
        <time>2025-04-26T12:52:00Z</time>
      </trkpt>
      <trkpt lat="43.093515001237392" lon="-0.054454961791635">
        <ele>382.25999999999999</ele>
        <time>2025-04-26T12:52:07Z</time>
      </trkpt>
      <trkpt lat="43.093647016212344" lon="-0.054306015372276">
        <ele>382.74000000000001</ele>
        <time>2025-04-26T12:52:09Z</time>
      </trkpt>
      <trkpt lat="43.093794034793973" lon="-0.054160002619028">
        <ele>384.18000000000001</ele>
        <time>2025-04-26T12:52:11Z</time>
      </trkpt>
      <trkpt lat="43.093865029513836" lon="-0.054094959050417">
        <ele>384.66000000000003</ele>
        <time>2025-04-26T12:52:12Z</time>
      </trkpt>
      <trkpt lat="43.09393803589046" lon="-0.054027987644076">
        <ele>385.14999999999998</ele>
        <time>2025-04-26T12:52:13Z</time>
      </trkpt>
      <trkpt lat="43.094008024781942" lon="-0.053965039551258">
        <ele>385.63</ele>
        <time>2025-04-26T12:52:14Z</time>
      </trkpt>
      <trkpt lat="43.094078013673425" lon="-0.053901001811028">
        <ele>385.63</ele>
        <time>2025-04-26T12:52:15Z</time>
      </trkpt>
      <trkpt lat="43.094143979251385" lon="-0.053839981555939">
        <ele>385.63</ele>
        <time>2025-04-26T12:52:16Z</time>
      </trkpt>
      <trkpt lat="43.094144985079765" lon="-0.053839981555939">
        <ele>385.14999999999998</ele>
        <time>2025-04-26T12:52:17Z</time>
      </trkpt>
      <trkpt lat="43.094231989234686" lon="-0.053761024028063">
        <ele>384.66000000000003</ele>
        <time>2025-04-26T12:52:18Z</time>
      </trkpt>
      <trkpt lat="43.094223020598292" lon="-0.053859008476138">
        <ele>384.18000000000001</ele>
        <time>2025-04-26T12:52:19Z</time>
      </trkpt>
      <trkpt lat="43.094229977577925" lon="-0.053873006254435">
        <ele>383.22000000000003</ele>
        <time>2025-04-26T12:52:20Z</time>
      </trkpt>
      <trkpt lat="43.094241041690111" lon="-0.053898990154266">
        <ele>382.74000000000001</ele>
        <time>2025-04-26T12:52:21Z</time>
      </trkpt>
      <trkpt lat="43.094258978962898" lon="-0.053937966004014">
        <ele>382.25999999999999</ele>
        <time>2025-04-26T12:52:22Z</time>
      </trkpt>
      <trkpt lat="43.094279011711478" lon="-0.053982976824045">
        <ele>382.25999999999999</ele>
        <time>2025-04-26T12:52:23Z</time>
      </trkpt>
      <trkpt lat="43.094303989782929" lon="-0.05403796210885">
        <ele>381.77999999999997</ele>
        <time>2025-04-26T12:52:24Z</time>
      </trkpt>
      <trkpt lat="43.094558967277408" lon="-0.054610027000308">
        <ele>377.94</ele>
        <time>2025-04-26T12:52:32Z</time>
      </trkpt>
      <trkpt lat="43.094574976712465" lon="-0.054647997021675">
        <ele>377.94</ele>
        <time>2025-04-26T12:52:33Z</time>
      </trkpt>
      <trkpt lat="43.094600960612297" lon="-0.054712034761906">
        <ele>377.44999999999999</ele>
        <time>2025-04-26T12:52:34Z</time>
      </trkpt>
      <trkpt lat="43.094886029139161" lon="-0.055398009717464">
        <ele>375.05000000000001</ele>
        <time>2025-04-26T12:52:43Z</time>
      </trkpt>
      <trkpt lat="43.094901032745838" lon="-0.05543396808207">
        <ele>374.56999999999999</ele>
        <time>2025-04-26T12:52:44Z</time>
      </trkpt>
      <trkpt lat="43.094865996390581" lon="-0.055509991943836">
        <ele>374.56999999999999</ele>
        <time>2025-04-26T12:52:46Z</time>
      </trkpt>
      <trkpt lat="43.094472968950868" lon="-0.055704033002257">
        <ele>372.64999999999998</ele>
        <time>2025-04-26T12:52:53Z</time>
      </trkpt>
      <trkpt lat="43.094472968950868" lon="-0.055704033002257">
        <ele>372.64999999999998</ele>
        <time>2025-04-26T12:52:54Z</time>
      </trkpt>
      <trkpt lat="43.094472968950868" lon="-0.055704033002257">
        <ele>372.17000000000002</ele>
        <time>2025-04-26T12:52:55Z</time>
      </trkpt>
      <trkpt lat="43.094472968950868" lon="-0.055704033002257">
        <ele>373.61000000000001</ele>
        <time>2025-04-26T12:53:03Z</time>
      </trkpt>
      <trkpt lat="43.094472968950868" lon="-0.055704033002257">
        <ele>373.61000000000001</ele>
        <time>2025-04-26T12:53:04Z</time>
      </trkpt>
      <trkpt lat="43.094471963122487" lon="-0.05571199581027">
        <ele>374.56999999999999</ele>
        <time>2025-04-26T12:53:05Z</time>
      </trkpt>
      <trkpt lat="43.094455031678081" lon="-0.055787013843656">
        <ele>375.52999999999997</ele>
        <time>2025-04-26T12:53:06Z</time>
      </trkpt>
      <trkpt lat="43.094436004757881" lon="-0.055873012170196">
        <ele>376.97000000000003</ele>
        <time>2025-04-26T12:53:07Z</time>
      </trkpt>
      <trkpt lat="43.094415972009301" lon="-0.055962027981877">
        <ele>377.94</ele>
        <time>2025-04-26T12:53:08Z</time>
      </trkpt>
      <trkpt lat="43.094396023079753" lon="-0.056050037965178">
        <ele>378.89999999999998</ele>
        <time>2025-04-26T12:53:09Z</time>
      </trkpt>
      <trkpt lat="43.094410020858049" lon="-0.056151961907744">
        <ele>378.89999999999998</ele>
        <time>2025-04-26T12:53:10Z</time>
      </trkpt>
      <trkpt lat="43.094441033899784" lon="-0.056236032396555">
        <ele>379.38</ele>
        <time>2025-04-26T12:53:11Z</time>
      </trkpt>
      <trkpt lat="43.094470035284758" lon="-0.056318007409573">
        <ele>379.38</ele>
        <time>2025-04-26T12:53:12Z</time>
      </trkpt>
      <trkpt lat="43.094472968950868" lon="-0.056325970217586">
        <ele>379.86000000000001</ele>
        <time>2025-04-26T12:53:13Z</time>
      </trkpt>
      <trkpt lat="43.094472968950868" lon="-0.056325970217586">
        <ele>379.86000000000001</ele>
        <time>2025-04-26T12:53:14Z</time>
      </trkpt>
      <trkpt lat="43.094675978645682" lon="-0.056448010727763">
        <ele>378.42000000000002</ele>
        <time>2025-04-26T12:53:18Z</time>
      </trkpt>
      <trkpt lat="43.094782009720802" lon="-0.05646200850606">
        <ele>377.44999999999999</ele>
        <time>2025-04-26T12:53:21Z</time>
      </trkpt>
      <trkpt lat="43.094856021925807" lon="-0.056467959657311">
        <ele>377.44999999999999</ele>
        <time>2025-04-26T12:53:22Z</time>
      </trkpt>
      <trkpt lat="43.095077974721789" lon="-0.056397970765829">
        <ele>377.44999999999999</ele>
        <time>2025-04-26T12:53:26Z</time>
      </trkpt>
      <trkpt lat="43.095166990533471" lon="-0.05633401684463">
        <ele>377.44999999999999</ele>
        <time>2025-04-26T12:53:28Z</time>
      </trkpt>
      <trkpt lat="43.095236979424953" lon="-0.056283976882696">
        <ele>377.94</ele>
        <time>2025-04-26T12:53:29Z</time>
      </trkpt>
      <trkpt lat="43.095266986638308" lon="-0.056262016296387">
        <ele>378.89999999999998</ele>
        <time>2025-04-26T12:53:30Z</time>
      </trkpt>
      <trkpt lat="43.095332030206919" lon="-0.056154979392886">
        <ele>378.89999999999998</ele>
        <time>2025-04-26T12:53:31Z</time>
      </trkpt>
      <trkpt lat="43.095332030206919" lon="-0.056154979392886">
        <ele>379.38</ele>
        <time>2025-04-26T12:53:32Z</time>
      </trkpt>
      <trkpt lat="43.095332030206919" lon="-0.056121032685041">
        <ele>379.86000000000001</ele>
        <time>2025-04-26T12:53:33Z</time>
      </trkpt>
      <trkpt lat="43.095332030206919" lon="-0.055993041023612">
        <ele>379.38</ele>
        <time>2025-04-26T12:53:47Z</time>
      </trkpt>
      <trkpt lat="43.095350973308086" lon="-0.055917017161846">
        <ele>379.38</ele>
        <time>2025-04-26T12:54:05Z</time>
      </trkpt>
      <trkpt lat="43.09537704102695" lon="-0.055884998291731">
        <ele>379.38</ele>
        <time>2025-04-26T12:54:06Z</time>
      </trkpt>
      <trkpt lat="43.095673006027937" lon="-0.055656004697084">
        <ele>377.44999999999999</ele>
        <time>2025-04-26T12:54:19Z</time>
      </trkpt>
      <trkpt lat="43.096166029572487" lon="-0.055435979738832">
        <ele>375.52999999999997</ele>
        <time>2025-04-26T12:54:34Z</time>
      </trkpt>
      <trkpt lat="43.096190001815557" lon="-0.055424999445677">
        <ele>375.52999999999997</ele>
        <time>2025-04-26T12:54:45Z</time>
      </trkpt>
      <trkpt lat="43.096148008480668" lon="-0.055443020537496">
        <ele>374.08999999999997</ele>
        <time>2025-04-26T12:54:49Z</time>
      </trkpt>
      <trkpt lat="43.096124958246946" lon="-0.05545299500227">
        <ele>373.61000000000001</ele>
        <time>2025-04-26T12:54:50Z</time>
      </trkpt>
      <trkpt lat="43.096097968518734" lon="-0.055464981123805">
        <ele>373.13</ele>
        <time>2025-04-26T12:54:51Z</time>
      </trkpt>
      <trkpt lat="43.09606603346765" lon="-0.055478978902102">
        <ele>372.64999999999998</ele>
        <time>2025-04-26T12:54:52Z</time>
      </trkpt>
      <trkpt lat="43.096028985455632" lon="-0.055494988337159">
        <ele>372.64999999999998</ele>
        <time>2025-04-26T12:54:53Z</time>
      </trkpt>
      <trkpt lat="43.095822036266327" lon="-0.055585009977221">
        <ele>367.83999999999997</ele>
        <time>2025-04-26T12:55:04Z</time>
      </trkpt>
      <trkpt lat="43.095822036266327" lon="-0.055585009977221">
        <ele>366.88</ele>
        <time>2025-04-26T12:55:19Z</time>
      </trkpt>
      <trkpt lat="43.095656996592879" lon="-0.055665979161859">
        <ele>364.95999999999998</ele>
        <time>2025-04-26T12:55:36Z</time>
      </trkpt>
      <trkpt lat="43.095538979396224" lon="-0.055745020508766">
        <ele>364.95999999999998</ele>
        <time>2025-04-26T12:55:47Z</time>
      </trkpt>
      <trkpt lat="43.095450969412923" lon="-0.055752983316779">
        <ele>365.44</ele>
        <time>2025-04-26T12:55:49Z</time>
      </trkpt>
      <trkpt lat="43.095457004383206" lon="-0.055722976103425">
        <ele>365.92000000000002</ele>
        <time>2025-04-26T12:55:50Z</time>
      </trkpt>
      <trkpt lat="43.095567980781198" lon="-0.055724987760186">
        <ele>366.39999999999998</ele>
        <time>2025-04-26T12:55:51Z</time>
      </trkpt>
      <trkpt lat="43.096018005162477" lon="-0.055243028327823">
        <ele>366.88</ele>
        <time>2025-04-26T12:56:07Z</time>
      </trkpt>
      <trkpt lat="43.096312964335084" lon="-0.054931975901127">
        <ele>367.36000000000001</ele>
        <time>2025-04-26T12:56:21Z</time>
      </trkpt>
      <trkpt lat="43.096309024840593" lon="-0.054915966466069">
        <ele>366.88</ele>
        <time>2025-04-26T12:56:36Z</time>
      </trkpt>
      <trkpt lat="43.09623702429235" lon="-0.054642967879772">
        <ele>369.27999999999997</ele>
        <time>2025-04-26T12:56:47Z</time>
      </trkpt>
      <trkpt lat="43.096306007355452" lon="-0.054497960954905">
        <ele>369.27999999999997</ele>
        <time>2025-04-26T12:56:48Z</time>
      </trkpt>
      <trkpt lat="43.096340037882328" lon="-0.054481029510498">
        <ele>369.75999999999999</ele>
        <time>2025-04-26T12:56:49Z</time>
      </trkpt>
      <trkpt lat="43.096372978761792" lon="-0.05446502007544">
        <ele>370.24000000000001</ele>
        <time>2025-04-26T12:56:50Z</time>
      </trkpt>
      <trkpt lat="43.096402985975146" lon="-0.054450016468763">
        <ele>370.73000000000002</ele>
        <time>2025-04-26T12:56:51Z</time>
      </trkpt>
      <trkpt lat="43.096426958218217" lon="-0.054438030347228">
        <ele>371.20999999999998</ele>
        <time>2025-04-26T12:56:52Z</time>
      </trkpt>
      <trkpt lat="43.096446990966797" lon="-0.054427972063422">
        <ele>371.20999999999998</ele>
        <time>2025-04-26T12:56:53Z</time>
      </trkpt>
      <trkpt lat="43.096484960988164" lon="-0.054409028962255">
        <ele>371.20999999999998</ele>
        <time>2025-04-26T12:57:04Z</time>
      </trkpt>
      <trkpt lat="43.096484960988164" lon="-0.054409028962255">
        <ele>371.69</ele>
        <time>2025-04-26T12:57:21Z</time>
      </trkpt>
      <trkpt lat="43.096585040912032" lon="-0.054361000657082">
        <ele>372.17000000000002</ele>
        <time>2025-04-26T12:57:36Z</time>
      </trkpt>
      <trkpt lat="43.09660498984158" lon="-0.054353037849069">
        <ele>372.17000000000002</ele>
        <time>2025-04-26T12:57:37Z</time>
      </trkpt>
      <trkpt lat="43.096700040623546" lon="-0.05435798317194">
        <ele>373.13</ele>
        <time>2025-04-26T12:57:38Z</time>
      </trkpt>
      <trkpt lat="43.096697023138404" lon="-0.054395031183958">
        <ele>373.61000000000001</ele>
        <time>2025-04-26T12:57:39Z</time>
      </trkpt>
      <trkpt lat="43.096680007874966" lon="-0.054571973159909">
        <ele>376.00999999999999</ele>
        <time>2025-04-26T12:57:46Z</time>
      </trkpt>
      <trkpt lat="43.096644971519709" lon="-0.054951002821326">
        <ele>379.38</ele>
        <time>2025-04-26T12:57:55Z</time>
      </trkpt>
      <trkpt lat="43.096644971519709" lon="-0.054951002821326">
        <ele>381.77999999999997</ele>
        <time>2025-04-26T12:58:10Z</time>
      </trkpt>
      <trkpt lat="43.096644971519709" lon="-0.054951002821326">
        <ele>381.77999999999997</ele>
        <time>2025-04-26T12:58:39Z</time>
      </trkpt>
      <trkpt lat="43.096644971519709" lon="-0.054951002821326">
        <ele>382.74000000000001</ele>
        <time>2025-04-26T12:58:54Z</time>
      </trkpt>
      <trkpt lat="43.096644971519709" lon="-0.054951002821326">
        <ele>383.22000000000003</ele>
        <time>2025-04-26T12:59:37Z</time>
      </trkpt>
      <trkpt lat="43.096644971519709" lon="-0.054951002821326">
        <ele>384.18000000000001</ele>
        <time>2025-04-26T13:00:12Z</time>
      </trkpt>
      <trkpt lat="43.096644971519709" lon="-0.054951002821326">
        <ele>384.18000000000001</ele>
        <time>2025-04-26T13:00:36Z</time>
      </trkpt>
      <trkpt lat="43.096644971519709" lon="-0.054951002821326">
        <ele>384.18000000000001</ele>
        <time>2025-04-26T13:00:40Z</time>
      </trkpt>
      <trkpt lat="43.096598032861948" lon="-0.055339001119137">
        <ele>384.18000000000001</ele>
        <time>2025-04-26T13:00:50Z</time>
      </trkpt>
      <trkpt lat="43.096598032861948" lon="-0.055339001119137">
        <ele>384.18000000000001</ele>
        <time>2025-04-26T13:01:14Z</time>
      </trkpt>
      <trkpt lat="43.096567019820213" lon="-0.055345958098769">
        <ele>386.11000000000001</ele>
        <time>2025-04-26T13:43:02Z</time>
      </trkpt>
      <trkpt lat="43.096567019820213" lon="-0.055345958098769">
        <ele>385.14999999999998</ele>
        <time>2025-04-26T13:43:54Z</time>
      </trkpt>
      <trkpt lat="43.096567019820213" lon="-0.055345958098769">
        <ele>384.66000000000003</ele>
        <time>2025-04-26T13:44:40Z</time>
      </trkpt>
      <trkpt lat="43.096567019820213" lon="-0.055345958098769">
        <ele>383.69999999999999</ele>
        <time>2025-04-26T13:45:34Z</time>
      </trkpt>
      <trkpt lat="43.096567019820213" lon="-0.055345958098769">
        <ele>383.22000000000003</ele>
        <time>2025-04-26T13:46:01Z</time>
      </trkpt>
      <trkpt lat="43.096567019820213" lon="-0.055345958098769">
        <ele>384.18000000000001</ele>
        <time>2025-04-26T13:46:10Z</time>
      </trkpt>
      <trkpt lat="43.096651006489992" lon="-0.055679976940155">
        <ele>383.69999999999999</ele>
        <time>2025-04-26T13:46:11Z</time>
      </trkpt>
      <trkpt lat="43.096658969298005" lon="-0.055729011073709">
        <ele>383.22000000000003</ele>
        <time>2025-04-26T13:46:12Z</time>
      </trkpt>
      <trkpt lat="43.096696017310023" lon="-0.05590695887804">
        <ele>382.74000000000001</ele>
        <time>2025-04-26T13:46:15Z</time>
      </trkpt>
      <trkpt lat="43.096709009259939" lon="-0.055965967476368">
        <ele>382.25999999999999</ele>
        <time>2025-04-26T13:46:16Z</time>
      </trkpt>
      <trkpt lat="43.096726024523377" lon="-0.056047020480037">
        <ele>382.25999999999999</ele>
        <time>2025-04-26T13:46:17Z</time>
      </trkpt>
      <trkpt lat="43.096833983436227" lon="-0.056605003774166">
        <ele>382.25999999999999</ele>
        <time>2025-04-26T13:46:24Z</time>
      </trkpt>
      <trkpt lat="43.096872959285975" lon="-0.056726960465312">
        <ele>382.74000000000001</ele>
        <time>2025-04-26T13:46:25Z</time>
      </trkpt>
      <trkpt lat="43.096940014511347" lon="-0.056929970160127">
        <ele>384.18000000000001</ele>
        <time>2025-04-26T13:46:27Z</time>
      </trkpt>
      <trkpt lat="43.096973039209843" lon="-0.057031977921724">
        <ele>384.66000000000003</ele>
        <time>2025-04-26T13:46:28Z</time>
      </trkpt>
      <trkpt lat="43.097039004787803" lon="-0.057232975959778">
        <ele>386.11000000000001</ele>
        <time>2025-04-26T13:46:30Z</time>
      </trkpt>
      <trkpt lat="43.097071023657918" lon="-0.057330038398504">
        <ele>386.58999999999997</ele>
        <time>2025-04-26T13:46:31Z</time>
      </trkpt>
      <trkpt lat="43.097231034189463" lon="-0.057906964793801">
        <ele>391.38999999999999</ele>
        <time>2025-04-26T13:46:38Z</time>
      </trkpt>
      <trkpt lat="43.097261041402817" lon="-0.058075021952391">
        <ele>392.36000000000001</ele>
        <time>2025-04-26T13:46:40Z</time>
      </trkpt>
      <trkpt lat="43.097257018089294" lon="-0.058148028329015">
        <ele>392.83999999999997</ele>
        <time>2025-04-26T13:46:41Z</time>
      </trkpt>
      <trkpt lat="43.097238996997476" lon="-0.058333016932011">
        <ele>393.80000000000001</ele>
        <time>2025-04-26T13:46:43Z</time>
      </trkpt>
      <trkpt lat="43.097186023369431" lon="-0.058892006054521">
        <ele>397.63999999999999</ele>
        <time>2025-04-26T13:46:49Z</time>
      </trkpt>
      <trkpt lat="43.097176970914006" lon="-0.058988984674215">
        <ele>398.12</ele>
        <time>2025-04-26T13:46:50Z</time>
      </trkpt>
      <trkpt lat="43.097173031419516" lon="-0.059080012142658">
        <ele>399.07999999999998</ele>
        <time>2025-04-26T13:46:51Z</time>
      </trkpt>
      <trkpt lat="43.097170013934374" lon="-0.059170033782721">
        <ele>399.56999999999999</ele>
        <time>2025-04-26T13:46:52Z</time>
      </trkpt>
      <trkpt lat="43.097165990620852" lon="-0.059263994917274">
        <ele>400.52999999999997</ele>
        <time>2025-04-26T13:46:53Z</time>
      </trkpt>
      <trkpt lat="43.097161967307329" lon="-0.059358039870858">
        <ele>401.00999999999999</ele>
        <time>2025-04-26T13:46:54Z</time>
      </trkpt>
      <trkpt lat="43.097159033641219" lon="-0.059448983520269">
        <ele>401.97000000000003</ele>
        <time>2025-04-26T13:46:55Z</time>
      </trkpt>
      <trkpt lat="43.097156016156077" lon="-0.059759030118585">
        <ele>404.37</ele>
        <time>2025-04-26T13:46:59Z</time>
      </trkpt>
      <trkpt lat="43.097156016156077" lon="-0.059823989868164">
        <ele>404.85000000000002</ele>
        <time>2025-04-26T13:47:00Z</time>
      </trkpt>
      <trkpt lat="43.097219970077276" lon="-0.059923985973001">
        <ele>404.85000000000002</ele>
        <time>2025-04-26T13:47:01Z</time>
      </trkpt>
      <trkpt lat="43.097234973683953" lon="-0.06031097844243">
        <ele>406.76999999999998</ele>
        <time>2025-04-26T13:47:05Z</time>
      </trkpt>
      <trkpt lat="43.097238996997476" lon="-0.060414997860789">
        <ele>407.25999999999999</ele>
        <time>2025-04-26T13:47:06Z</time>
      </trkpt>
      <trkpt lat="43.097241008654237" lon="-0.06052304059267">
        <ele>408.22000000000003</ele>
        <time>2025-04-26T13:47:07Z</time>
      </trkpt>
      <trkpt lat="43.097241008654237" lon="-0.060752034187317">
        <ele>408.69999999999999</ele>
        <time>2025-04-26T13:47:09Z</time>
      </trkpt>
      <trkpt lat="43.097241008654237" lon="-0.060870973393321">
        <ele>409.18000000000001</ele>
        <time>2025-04-26T13:47:10Z</time>
      </trkpt>
      <trkpt lat="43.097244026139379" lon="-0.060989996418357">
        <ele>409.18000000000001</ele>
        <time>2025-04-26T13:47:11Z</time>
      </trkpt>
      <trkpt lat="43.09724897146225" lon="-0.061101978644729">
        <ele>409.66000000000003</ele>
        <time>2025-04-26T13:47:12Z</time>
      </trkpt>
      <trkpt lat="43.097255006432533" lon="-0.061204992234707">
        <ele>410.13999999999999</ele>
        <time>2025-04-26T13:47:13Z</time>
      </trkpt>
      <trkpt lat="43.097259029746056" lon="-0.061299037188292">
        <ele>410.62</ele>
        <time>2025-04-26T13:47:14Z</time>
      </trkpt>
      <trkpt lat="43.097263975068927" lon="-0.061391992494464">
        <ele>410.62</ele>
        <time>2025-04-26T13:47:15Z</time>
      </trkpt>
      <trkpt lat="43.097278978675604" lon="-0.06168301217258">
        <ele>410.62</ele>
        <time>2025-04-26T13:47:18Z</time>
      </trkpt>
      <trkpt lat="43.097284007817507" lon="-0.061786025762558">
        <ele>410.62</ele>
        <time>2025-04-26T13:47:19Z</time>
      </trkpt>
      <trkpt lat="43.09733203612268" lon="-0.062075033783913">
        <ele>410.62</ele>
        <time>2025-04-26T13:47:22Z</time>
      </trkpt>
      <trkpt lat="43.097347961738706" lon="-0.062166983261704">
        <ele>411.10000000000002</ele>
        <time>2025-04-26T13:47:23Z</time>
      </trkpt>
      <trkpt lat="43.097396995872259" lon="-0.062448028475046">
        <ele>412.06</ele>
        <time>2025-04-26T13:47:26Z</time>
      </trkpt>
      <trkpt lat="43.097429014742374" lon="-0.062636034563184">
        <ele>412.54000000000002</ele>
        <time>2025-04-26T13:47:28Z</time>
      </trkpt>
      <trkpt lat="43.097446030005813" lon="-0.062729995697737">
        <ele>413.01999999999998</ele>
        <time>2025-04-26T13:47:29Z</time>
      </trkpt>
      <trkpt lat="43.0974639672786" lon="-0.062834015116096">
        <ele>413.5</ele>
        <time>2025-04-26T13:47:30Z</time>
      </trkpt>
      <trkpt lat="43.097481988370419" lon="-0.062938034534454">
        <ele>413.5</ele>
        <time>2025-04-26T13:47:31Z</time>
      </trkpt>
      <trkpt lat="43.09750503860414" lon="-0.063041970133781">
        <ele>413.5</ele>
        <time>2025-04-26T13:47:32Z</time>
      </trkpt>
      <trkpt lat="43.097662031650543" lon="-0.063782008364797">
        <ele>414.94999999999999</ele>
        <time>2025-04-26T13:47:39Z</time>
      </trkpt>
      <trkpt lat="43.097683992236853" lon="-0.063888039439917">
        <ele>414.47000000000003</ele>
        <time>2025-04-26T13:47:40Z</time>
      </trkpt>
      <trkpt lat="43.097706036642194" lon="-0.063990969210863">
        <ele>413.98000000000002</ele>
        <time>2025-04-26T13:47:41Z</time>
      </trkpt>
      <trkpt lat="43.097750963643193" lon="-0.064201019704342">
        <ele>412.06</ele>
        <time>2025-04-26T13:47:43Z</time>
      </trkpt>
      <trkpt lat="43.097873004153371" lon="-0.064707035198808">
        <ele>408.69999999999999</ele>
        <time>2025-04-26T13:47:48Z</time>
      </trkpt>
      <trkpt lat="43.097899993881583" lon="-0.064775012433529">
        <ele>408.22000000000003</ele>
        <time>2025-04-26T13:47:49Z</time>
      </trkpt>
      <trkpt lat="43.097927989438176" lon="-0.064845001325011">
        <ele>407.74000000000001</ele>
        <time>2025-04-26T13:47:50Z</time>
      </trkpt>
      <trkpt lat="43.097933018580079" lon="-0.064851958304644">
        <ele>407.25999999999999</ele>
        <time>2025-04-26T13:47:51Z</time>
      </trkpt>
      <trkpt lat="43.097952967509627" lon="-0.064882971346378">
        <ele>406.76999999999998</ele>
        <time>2025-04-26T13:47:52Z</time>
      </trkpt>
      <trkpt lat="43.097970988601446" lon="-0.064909039065242">
        <ele>406.29000000000002</ele>
        <time>2025-04-26T13:47:53Z</time>
      </trkpt>
      <trkpt lat="43.098032008856535" lon="-0.064990008249879">
        <ele>405.81</ele>
        <time>2025-04-26T13:47:54Z</time>
      </trkpt>
      <trkpt lat="43.098082970827818" lon="-0.065058991312981">
        <ele>405.32999999999998</ele>
        <time>2025-04-26T13:47:55Z</time>
      </trkpt>
      <trkpt lat="43.098135022446513" lon="-0.065128980204463">
        <ele>404.37</ele>
        <time>2025-04-26T13:47:56Z</time>
      </trkpt>
      <trkpt lat="43.098363010212779" lon="-0.065431986004114">
        <ele>402.44999999999999</ele>
        <time>2025-04-26T13:48:00Z</time>
      </trkpt>
      <trkpt lat="43.098422018811107" lon="-0.065510021522641">
        <ele>401.97000000000003</ele>
        <time>2025-04-26T13:48:01Z</time>
      </trkpt>
      <trkpt lat="43.0984500143677" lon="-0.065599959343672">
        <ele>401.49000000000001</ele>
        <time>2025-04-26T13:48:02Z</time>
      </trkpt>
      <trkpt lat="43.098482033237815" lon="-0.065700961276889">
        <ele>401.00999999999999</ele>
        <time>2025-04-26T13:48:03Z</time>
      </trkpt>
      <trkpt lat="43.098512040451169" lon="-0.065797017887235">
        <ele>401.00999999999999</ele>
        <time>2025-04-26T13:48:04Z</time>
      </trkpt>
      <trkpt lat="43.098541963845491" lon="-0.065891984850168">
        <ele>400.05000000000001</ele>
        <time>2025-04-26T13:48:05Z</time>
      </trkpt>
      <trkpt lat="43.098555961623788" lon="-0.065991980955005">
        <ele>399.56999999999999</ele>
        <time>2025-04-26T13:48:06Z</time>
      </trkpt>
      <trkpt lat="43.098596027120948" lon="-0.066928993910551">
        <ele>395.72000000000003</ele>
        <time>2025-04-26T13:48:13Z</time>
      </trkpt>
      <trkpt lat="43.098555961623788" lon="-0.06720601581037">
        <ele>394.27999999999997</ele>
        <time>2025-04-26T13:48:16Z</time>
      </trkpt>
      <trkpt lat="43.098359992727637" lon="-0.068015959113836">
        <ele>391.87</ele>
        <time>2025-04-26T13:48:23Z</time>
      </trkpt>
      <trkpt lat="43.097912985831499" lon="-0.068944003432989">
        <ele>388.99000000000001</ele>
        <time>2025-04-26T13:48:32Z</time>
      </trkpt>
      <trkpt lat="43.097867975011468" lon="-0.069022038951516">
        <ele>388.99000000000001</ele>
        <time>2025-04-26T13:48:33Z</time>
      </trkpt>
      <trkpt lat="43.097729003056884" lon="-0.069113988429308">
        <ele>388.50999999999999</ele>
        <time>2025-04-26T13:48:35Z</time>
      </trkpt>
      <trkpt lat="43.097654990851879" lon="-0.06916000507772">
        <ele>388.50999999999999</ele>
        <time>2025-04-26T13:48:36Z</time>
      </trkpt>
      <trkpt lat="43.097582990303636" lon="-0.069205015897751">
        <ele>388.99000000000001</ele>
        <time>2025-04-26T13:48:37Z</time>
      </trkpt>
      <trkpt lat="43.097367994487286" lon="-0.069243991747499">
        <ele>388.50999999999999</ele>
        <time>2025-04-26T13:48:40Z</time>
      </trkpt>
      <trkpt lat="43.097309991717339" lon="-0.069223958998919">
        <ele>388.02999999999997</ele>
        <time>2025-04-26T13:48:41Z</time>
      </trkpt>
      <trkpt lat="43.097244026139379" lon="-0.069192023947835">
        <ele>387.55000000000001</ele>
        <time>2025-04-26T13:48:42Z</time>
      </trkpt>
      <trkpt lat="43.097176970914006" lon="-0.069157993420959">
        <ele>387.06999999999999</ele>
        <time>2025-04-26T13:48:43Z</time>
      </trkpt>
      <trkpt lat="43.097113016992807" lon="-0.069125974550843">
        <ele>386.58999999999997</ele>
        <time>2025-04-26T13:48:44Z</time>
      </trkpt>
      <trkpt lat="43.097050990909338" lon="-0.069124968722463">
        <ele>386.11000000000001</ele>
        <time>2025-04-26T13:48:45Z</time>
      </trkpt>
      <trkpt lat="43.097004974260926" lon="-0.069136032834649">
        <ele>385.63</ele>
        <time>2025-04-26T13:48:46Z</time>
      </trkpt>
      <trkpt lat="43.096965998411179" lon="-0.069146007299423">
        <ele>385.14999999999998</ele>
        <time>2025-04-26T13:48:47Z</time>
      </trkpt>
      <trkpt lat="43.096902966499329" lon="-0.069298977032304">
        <ele>384.18000000000001</ele>
        <time>2025-04-26T13:48:48Z</time>
      </trkpt>
      <trkpt lat="43.096833983436227" lon="-0.0691800378263">
        <ele>384.18000000000001</ele>
        <time>2025-04-26T13:48:49Z</time>
      </trkpt>
      <trkpt lat="43.096930040046573" lon="-0.069344993680716">
        <ele>383.69999999999999</ele>
        <time>2025-04-26T13:48:50Z</time>
      </trkpt>
      <trkpt lat="43.096959041431546" lon="-0.06939503364265">
        <ele>383.22000000000003</ele>
        <time>2025-04-26T13:48:51Z</time>
      </trkpt>
      <trkpt lat="43.096997011452913" lon="-0.069448007270694">
        <ele>382.74000000000001</ele>
        <time>2025-04-26T13:48:52Z</time>
      </trkpt>
      <trkpt lat="43.09705400839448" lon="-0.069497041404247">
        <ele>382.25999999999999</ele>
        <time>2025-04-26T13:48:53Z</time>
      </trkpt>
      <trkpt lat="43.097113016992807" lon="-0.06954800337553">
        <ele>381.77999999999997</ele>
        <time>2025-04-26T13:48:54Z</time>
      </trkpt>
      <trkpt lat="43.097178982570767" lon="-0.069575998932123">
        <ele>381.30000000000001</ele>
        <time>2025-04-26T13:48:55Z</time>
      </trkpt>
      <trkpt lat="43.097265986725688" lon="-0.069595025852323">
        <ele>380.81999999999999</ele>
        <time>2025-04-26T13:48:56Z</time>
      </trkpt>
      <trkpt lat="43.097363971173763" lon="-0.069616986438632">
        <ele>380.81999999999999</ele>
        <time>2025-04-26T13:48:57Z</time>
      </trkpt>
      <trkpt lat="43.097466984763741" lon="-0.069640958681703">
        <ele>380.33999999999997</ele>
        <time>2025-04-26T13:48:58Z</time>
      </trkpt>
      <trkpt lat="43.097566980868578" lon="-0.069663003087044">
        <ele>380.33999999999997</ele>
        <time>2025-04-26T13:48:59Z</time>
      </trkpt>
      <trkpt lat="43.09767703525722" lon="-0.069687981158495">
        <ele>380.33999999999997</ele>
        <time>2025-04-26T13:49:00Z</time>
      </trkpt>
      <trkpt lat="43.098115995526314" lon="-0.069746989756823">
        <ele>379.38</ele>
        <time>2025-04-26T13:49:04Z</time>
      </trkpt>
      <trkpt lat="43.098227977752686" lon="-0.069727040827274">
        <ele>378.89999999999998</ele>
        <time>2025-04-26T13:49:05Z</time>
      </trkpt>
      <trkpt lat="43.098422018811107" lon="-0.069629978388548">
        <ele>377.94</ele>
        <time>2025-04-26T13:49:07Z</time>
      </trkpt>
      <trkpt lat="43.098500976338983" lon="-0.069538028910756">
        <ele>377.44999999999999</ele>
        <time>2025-04-26T13:49:08Z</time>
      </trkpt>
      <trkpt lat="43.098574988543987" lon="-0.069453036412597">
        <ele>376.49000000000001</ele>
        <time>2025-04-26T13:49:09Z</time>
      </trkpt>
      <trkpt lat="43.098651012405753" lon="-0.069366032257676">
        <ele>376.00999999999999</ele>
        <time>2025-04-26T13:49:10Z</time>
      </trkpt>
      <trkpt lat="43.098721001297235" lon="-0.069261007010937">
        <ele>375.05000000000001</ele>
        <time>2025-04-26T13:49:11Z</time>
      </trkpt>
      <trkpt lat="43.09877498075366" lon="-0.069134021177888">
        <ele>374.56999999999999</ele>
        <time>2025-04-26T13:49:12Z</time>
      </trkpt>
      <trkpt lat="43.098830971866846" lon="-0.069005023688078">
        <ele>373.61000000000001</ele>
        <time>2025-04-26T13:49:13Z</time>
      </trkpt>
      <trkpt lat="43.099288959056139" lon="-0.067516984418035">
        <ele>366.39999999999998</ele>
        <time>2025-04-26T13:49:24Z</time>
      </trkpt>
      <trkpt lat="43.099490040913224" lon="-0.067035024985671">
        <ele>366.39999999999998</ele>
        <time>2025-04-26T13:49:28Z</time>
      </trkpt>
      <trkpt lat="43.09954795986414" lon="-0.066935028880835">
        <ele>366.39999999999998</ele>
        <time>2025-04-26T13:49:29Z</time>
      </trkpt>
      <trkpt lat="43.099617026746273" lon="-0.066848024725914">
        <ele>366.39999999999998</ele>
        <time>2025-04-26T13:49:30Z</time>
      </trkpt>
      <trkpt lat="43.09976002201438" lon="-0.066697988659143">
        <ele>366.39999999999998</ele>
        <time>2025-04-26T13:49:32Z</time>
      </trkpt>
      <trkpt lat="43.099841997027397" lon="-0.066641997545958">
        <ele>366.88</ele>
        <time>2025-04-26T13:49:33Z</time>
      </trkpt>
      <trkpt lat="43.099923972040415" lon="-0.066586006432772">
        <ele>366.88</ele>
        <time>2025-04-26T13:49:34Z</time>
      </trkpt>
      <trkpt lat="43.100642971694469" lon="-0.066206976771355">
        <ele>366.39999999999998</ele>
        <time>2025-04-26T13:49:44Z</time>
      </trkpt>
      <trkpt lat="43.100683959200978" lon="-0.066183004528284">
        <ele>365.92000000000002</ele>
        <time>2025-04-26T13:49:48Z</time>
      </trkpt>
      <trkpt lat="43.100701980292797" lon="-0.06623899564147">
        <ele>366.39999999999998</ele>
        <time>2025-04-26T13:49:49Z</time>
      </trkpt>
      <trkpt lat="43.1007070094347" lon="-0.066291969269514">
        <ele>366.39999999999998</ele>
        <time>2025-04-26T13:49:50Z</time>
      </trkpt>
      <trkpt lat="43.100713966414332" lon="-0.066373022273183">
        <ele>365.92000000000002</ele>
        <time>2025-04-26T13:49:51Z</time>
      </trkpt>
      <trkpt lat="43.100723018869758" lon="-0.066472012549639">
        <ele>365.92000000000002</ele>
        <time>2025-04-26T13:49:52Z</time>
      </trkpt>
      <trkpt lat="43.10081597417593" lon="-0.067639024928212">
        <ele>364.95999999999998</ele>
        <time>2025-04-26T13:50:00Z</time>
      </trkpt>
      <trkpt lat="43.100882023572922" lon="-0.068543013185263">
        <ele>364.95999999999998</ele>
        <time>2025-04-26T13:50:05Z</time>
      </trkpt>
      <trkpt lat="43.100950000807643" lon="-0.069477008655667">
        <ele>362.55000000000001</ele>
        <time>2025-04-26T13:50:10Z</time>
      </trkpt>
      <trkpt lat="43.100945977494121" lon="-0.069661997258663">
        <ele>362.06999999999999</ele>
        <time>2025-04-26T13:50:11Z</time>
      </trkpt>
      <trkpt lat="43.100679013878107" lon="-0.071233017370105">
        <ele>361.58999999999997</ele>
        <time>2025-04-26T13:50:19Z</time>
      </trkpt>
      <trkpt lat="43.100629979744554" lon="-0.071414988487959">
        <ele>361.11000000000001</ele>
        <time>2025-04-26T13:50:20Z</time>
      </trkpt>
      <trkpt lat="43.100551022216678" lon="-0.071583967655897">
        <ele>361.11000000000001</ele>
        <time>2025-04-26T13:50:21Z</time>
      </trkpt>
      <trkpt lat="43.099746024236083" lon="-0.073293959721923">
        <ele>364</ele>
        <time>2025-04-26T13:50:31Z</time>
      </trkpt>
      <trkpt lat="43.098983019590378" lon="-0.07513496093452">
        <ele>365.44</ele>
        <time>2025-04-26T13:50:41Z</time>
      </trkpt>
      <trkpt lat="43.098810017108917" lon="-0.075709037482738">
        <ele>365.92000000000002</ele>
        <time>2025-04-26T13:50:45Z</time>
      </trkpt>
      <trkpt lat="43.09881797991693" lon="-0.075813978910446">
        <ele>366.39999999999998</ele>
        <time>2025-04-26T13:50:46Z</time>
      </trkpt>
      <trkpt lat="43.098825020715594" lon="-0.075909029692411">
        <ele>366.88</ele>
        <time>2025-04-26T13:50:47Z</time>
      </trkpt>
      <trkpt lat="43.098840024322271" lon="-0.075979018583894">
        <ele>366.88</ele>
        <time>2025-04-26T13:50:48Z</time>
      </trkpt>
      <trkpt lat="43.0988800060004" lon="-0.076052024960518">
        <ele>367.36000000000001</ele>
        <time>2025-04-26T13:50:49Z</time>
      </trkpt>
      <trkpt lat="43.098918981850147" lon="-0.07612100802362">
        <ele>367.83999999999997</ele>
        <time>2025-04-26T13:50:50Z</time>
      </trkpt>
      <trkpt lat="43.098957035690546" lon="-0.076192002743483">
        <ele>368.31999999999999</ele>
        <time>2025-04-26T13:50:51Z</time>
      </trkpt>
      <trkpt lat="43.099030964076519" lon="-0.076329968869686">
        <ele>368.80000000000001</ele>
        <time>2025-04-26T13:50:53Z</time>
      </trkpt>
      <trkpt lat="43.09907496906817" lon="-0.076410016044974">
        <ele>369.27999999999997</ele>
        <time>2025-04-26T13:50:54Z</time>
      </trkpt>
      <trkpt lat="43.099101036787033" lon="-0.07653197273612">
        <ele>369.75999999999999</ele>
        <time>2025-04-26T13:50:55Z</time>
      </trkpt>
      <trkpt lat="43.099119979888201" lon="-0.076662981882691">
        <ele>370.24000000000001</ele>
        <time>2025-04-26T13:50:56Z</time>
      </trkpt>
      <trkpt lat="43.099124003201723" lon="-0.076802037656307">
        <ele>370.24000000000001</ele>
        <time>2025-04-26T13:50:57Z</time>
      </trkpt>
      <trkpt lat="43.099111011251807" lon="-0.076952995732427">
        <ele>370.24000000000001</ele>
        <time>2025-04-26T13:50:58Z</time>
      </trkpt>
      <trkpt lat="43.099098019301891" lon="-0.077119041234255">
        <ele>370.24000000000001</ele>
        <time>2025-04-26T13:50:59Z</time>
      </trkpt>
      <trkpt lat="43.099068012088537" lon="-0.077469991520047">
        <ele>370.24000000000001</ele>
        <time>2025-04-26T13:51:01Z</time>
      </trkpt>
      <trkpt lat="43.09907203540206" lon="-0.077652968466282">
        <ele>370.24000000000001</ele>
        <time>2025-04-26T13:51:02Z</time>
      </trkpt>
      <trkpt lat="43.099079998210073" lon="-0.077835023403168">
        <ele>369.75999999999999</ele>
        <time>2025-04-26T13:51:03Z</time>
      </trkpt>
      <trkpt lat="43.099173959344625" lon="-0.078729959204793">
        <ele>368.31999999999999</ele>
        <time>2025-04-26T13:51:08Z</time>
      </trkpt>
      <trkpt lat="43.099690033122897" lon="-0.08046300150454">
        <ele>365.44</ele>
        <time>2025-04-26T13:51:17Z</time>
      </trkpt>
      <trkpt lat="43.100353041663766" lon="-0.08258999325335">
        <ele>364.95999999999998</ele>
        <time>2025-04-26T13:51:27Z</time>
      </trkpt>
      <trkpt lat="43.100377013906837" lon="-0.0828240159899">
        <ele>365.92000000000002</ele>
        <time>2025-04-26T13:51:28Z</time>
      </trkpt>
      <trkpt lat="43.100635008886456" lon="-0.084925023838878">
        <ele>370.73000000000002</ele>
        <time>2025-04-26T13:51:37Z</time>
      </trkpt>
      <trkpt lat="43.100954024121165" lon="-0.086774993687868">
        <ele>371.69</ele>
        <time>2025-04-26T13:51:45Z</time>
      </trkpt>
      <trkpt lat="43.101058965548873" lon="-0.08783002384007">
        <ele>373.13</ele>
        <time>2025-04-26T13:51:50Z</time>
      </trkpt>
      <trkpt lat="43.101029964163899" lon="-0.08800595998764">
        <ele>374.08999999999997</ele>
        <time>2025-04-26T13:51:51Z</time>
      </trkpt>
      <trkpt lat="43.100985959172249" lon="-0.0881979893893">
        <ele>374.08999999999997</ele>
        <time>2025-04-26T13:51:52Z</time>
      </trkpt>
      <trkpt lat="43.100668033584952" lon="-0.089646968990564">
        <ele>376.00999999999999</ele>
        <time>2025-04-26T13:51:59Z</time>
      </trkpt>
      <trkpt lat="43.100653029978275" lon="-0.089841010048985">
        <ele>376.49000000000001</ele>
        <time>2025-04-26T13:52:00Z</time>
      </trkpt>
      <trkpt lat="43.100681025534868" lon="-0.090039996430278">
        <ele>376.49000000000001</ele>
        <time>2025-04-26T13:52:01Z</time>
      </trkpt>
      <trkpt lat="43.100709021091461" lon="-0.090236971154809">
        <ele>377.44999999999999</ele>
        <time>2025-04-26T13:52:02Z</time>
      </trkpt>
      <trkpt lat="43.100735004991293" lon="-0.090441992506385">
        <ele>377.94</ele>
        <time>2025-04-26T13:52:03Z</time>
      </trkpt>
      <trkpt lat="43.100758977234364" lon="-0.090651037171483">
        <ele>378.42000000000002</ele>
        <time>2025-04-26T13:52:04Z</time>
      </trkpt>
      <trkpt lat="43.100740034133196" lon="-0.09086100384593">
        <ele>378.42000000000002</ele>
        <time>2025-04-26T13:52:05Z</time>
      </trkpt>
      <trkpt lat="43.100716983899474" lon="-0.091080022975802">
        <ele>378.42000000000002</ele>
        <time>2025-04-26T13:52:06Z</time>
      </trkpt>
      <trkpt lat="43.100511040538549" lon="-0.093072988092899">
        <ele>379.38</ele>
        <time>2025-04-26T13:52:15Z</time>
      </trkpt>
      <trkpt lat="43.100416995584965" lon="-0.09541598148644">
        <ele>384.66000000000003</ele>
        <time>2025-04-26T13:52:25Z</time>
      </trkpt>
      <trkpt lat="43.100416995584965" lon="-0.095642041414976">
        <ele>385.63</ele>
        <time>2025-04-26T13:52:26Z</time>
      </trkpt>
      <trkpt lat="43.100416995584965" lon="-0.095829963684082">
        <ele>386.11000000000001</ele>
        <time>2025-04-26T13:52:27Z</time>
      </trkpt>
      <trkpt lat="43.100479021668434" lon="-0.096047976985574">
        <ele>386.11000000000001</ele>
        <time>2025-04-26T13:52:28Z</time>
      </trkpt>
      <trkpt lat="43.100909013301134" lon="-0.097640035673976">
        <ele>387.55000000000001</ele>
        <time>2025-04-26T13:52:35Z</time>
      </trkpt>
      <trkpt lat="43.101428020745516" lon="-0.099499979987741">
        <ele>388.50999999999999</ele>
        <time>2025-04-26T13:52:43Z</time>
      </trkpt>
      <trkpt lat="43.102003019303083" lon="-0.10123997926712">
        <ele>392.36000000000001</ele>
        <time>2025-04-26T13:52:51Z</time>
      </trkpt>
      <trkpt lat="43.102751020342112" lon="-0.10344902984798">
        <ele>391.38999999999999</ele>
        <time>2025-04-26T13:53:01Z</time>
      </trkpt>
      <trkpt lat="43.103202972561121" lon="-0.105719016864896">
        <ele>389.94999999999999</ele>
        <time>2025-04-26T13:53:10Z</time>
      </trkpt>
      <trkpt lat="43.103558029979467" lon="-0.108099980279803">
        <ele>384.18000000000001</ele>
        <time>2025-04-26T13:53:19Z</time>
      </trkpt>
      <trkpt lat="43.103721980005503" lon="-0.109261963516474">
        <ele>381.77999999999997</ele>
        <time>2025-04-26T13:53:25Z</time>
      </trkpt>
      <trkpt lat="43.103928007185459" lon="-0.110656963661313">
        <ele>378.89999999999998</ele>
        <time>2025-04-26T13:53:33Z</time>
      </trkpt>
      <trkpt lat="43.10405801050365" lon="-0.112215997651219">
        <ele>376.00999999999999</ele>
        <time>2025-04-26T13:53:43Z</time>
      </trkpt>
      <trkpt lat="43.104022974148393" lon="-0.114483973011374">
        <ele>373.61000000000001</ele>
        <time>2025-04-26T13:53:57Z</time>
      </trkpt>
      <trkpt lat="43.103872016072273" lon="-0.116254985332489">
        <ele>370.73000000000002</ele>
        <time>2025-04-26T13:54:08Z</time>
      </trkpt>
      <trkpt lat="43.103646039962769" lon="-0.118173016235232">
        <ele>367.83999999999997</ele>
        <time>2025-04-26T13:54:20Z</time>
      </trkpt>
      <trkpt lat="43.103213030844927" lon="-0.120069002732635">
        <ele>364.95999999999998</ele>
        <time>2025-04-26T13:54:33Z</time>
      </trkpt>
      <trkpt lat="43.102887980639935" lon="-0.12188502587378">
        <ele>366.39999999999998</ele>
        <time>2025-04-26T13:54:44Z</time>
      </trkpt>
      <trkpt lat="43.102247016504407" lon="-0.1236039865762">
        <ele>370.24000000000001</ele>
        <time>2025-04-26T13:54:54Z</time>
      </trkpt>
      <trkpt lat="43.101605968549848" lon="-0.125500978901982">
        <ele>371.20999999999998</ele>
        <time>2025-04-26T13:55:04Z</time>
      </trkpt>
      <trkpt lat="43.101527011021972" lon="-0.125911021605134">
        <ele>371.69</ele>
        <time>2025-04-26T13:55:06Z</time>
      </trkpt>
      <trkpt lat="43.101516030728817" lon="-0.126120988279581">
        <ele>372.17000000000002</ele>
        <time>2025-04-26T13:55:07Z</time>
      </trkpt>
      <trkpt lat="43.101545032113791" lon="-0.128143960610032">
        <ele>371.20999999999998</ele>
        <time>2025-04-26T13:55:17Z</time>
      </trkpt>
      <trkpt lat="43.1019969843328" lon="-0.130786020308733">
        <ele>370.24000000000001</ele>
        <time>2025-04-26T13:55:30Z</time>
      </trkpt>
      <trkpt lat="43.102465029805899" lon="-0.133565962314606">
        <ele>367.83999999999997</ele>
        <time>2025-04-26T13:55:43Z</time>
      </trkpt>
      <trkpt lat="43.102825032547116" lon="-0.13576596044004">
        <ele>364</ele>
        <time>2025-04-26T13:55:53Z</time>
      </trkpt>
      <trkpt lat="43.102946989238262" lon="-0.136222019791603">
        <ele>361.58999999999997</ele>
        <time>2025-04-26T13:55:55Z</time>
      </trkpt>
      <trkpt lat="43.10302896425128" lon="-0.136442966759205">
        <ele>360.63</ele>
        <time>2025-04-26T13:55:56Z</time>
      </trkpt>
      <trkpt lat="43.103572027757764" lon="-0.138662997633219">
        <ele>353.89999999999998</ele>
        <time>2025-04-26T13:56:05Z</time>
      </trkpt>
      <trkpt lat="43.103646039962769" lon="-0.140506010502577">
        <ele>351.01999999999998</ele>
        <time>2025-04-26T13:56:13Z</time>
      </trkpt>
      <trkpt lat="43.103794986382127" lon="-0.141547964885831">
        <ele>350.06</ele>
        <time>2025-04-26T13:56:20Z</time>
      </trkpt>
      <trkpt lat="43.103933036327362" lon="-0.142656974494457">
        <ele>350.54000000000002</ele>
        <time>2025-04-26T13:56:27Z</time>
      </trkpt>
      <trkpt lat="43.103921972215176" lon="-0.142818996682763">
        <ele>350.54000000000002</ele>
        <time>2025-04-26T13:56:28Z</time>
      </trkpt>
      <trkpt lat="43.103895988315344" lon="-0.142973978072405">
        <ele>351.01999999999998</ele>
        <time>2025-04-26T13:56:29Z</time>
      </trkpt>
      <trkpt lat="43.103837985545397" lon="-0.143113033846021">
        <ele>351.98000000000002</ele>
        <time>2025-04-26T13:56:30Z</time>
      </trkpt>
      <trkpt lat="43.10377998277545" lon="-0.143250999972224">
        <ele>352.94</ele>
        <time>2025-04-26T13:56:31Z</time>
      </trkpt>
      <trkpt lat="43.103718962520361" lon="-0.143385026603937">
        <ele>353.42000000000002</ele>
        <time>2025-04-26T13:56:32Z</time>
      </trkpt>
      <trkpt lat="43.103519976139069" lon="-0.143781993538141">
        <ele>355.82999999999998</ele>
        <time>2025-04-26T13:56:35Z</time>
      </trkpt>
      <trkpt lat="43.103454010561109" lon="-0.143917025998235">
        <ele>356.31</ele>
        <time>2025-04-26T13:56:36Z</time>
      </trkpt>
      <trkpt lat="43.103228034451604" lon="-0.144366966560483">
        <ele>358.23000000000002</ele>
        <time>2025-04-26T13:56:39Z</time>
      </trkpt>
      <trkpt lat="43.103147987276316" lon="-0.144522031769156">
        <ele>358.70999999999998</ele>
        <time>2025-04-26T13:56:40Z</time>
      </trkpt>
      <trkpt lat="43.102958975359797" lon="-0.144863007590175">
        <ele>359.19</ele>
        <time>2025-04-26T13:56:42Z</time>
      </trkpt>
      <trkpt lat="43.101912997663021" lon="-0.146738961338997">
        <ele>358.23000000000002</ele>
        <time>2025-04-26T13:56:52Z</time>
      </trkpt>
      <trkpt lat="43.101492980495095" lon="-0.148670990020037">
        <ele>355.82999999999998</ele>
        <time>2025-04-26T13:57:00Z</time>
      </trkpt>
      <trkpt lat="43.101105988025665" lon="-0.150827988982201">
        <ele>353.42000000000002</ele>
        <time>2025-04-26T13:57:10Z</time>
      </trkpt>
      <trkpt lat="43.100743973627687" lon="-0.152690028771758">
        <ele>353.89999999999998</ele>
        <time>2025-04-26T13:57:22Z</time>
      </trkpt>
      <trkpt lat="43.100693011656404" lon="-0.153014995157719">
        <ele>353.89999999999998</ele>
        <time>2025-04-26T13:57:24Z</time>
      </trkpt>
      <trkpt lat="43.100685970857739" lon="-0.153180034831166">
        <ele>354.38</ele>
        <time>2025-04-26T13:57:25Z</time>
      </trkpt>
      <trkpt lat="43.100679013878107" lon="-0.153347002342343">
        <ele>354.86000000000001</ele>
        <time>2025-04-26T13:57:26Z</time>
      </trkpt>
      <trkpt lat="43.100684965029359" lon="-0.153516987338662">
        <ele>354.86000000000001</ele>
        <time>2025-04-26T13:57:27Z</time>
      </trkpt>
      <trkpt lat="43.100706003606319" lon="-0.153674986213446">
        <ele>355.33999999999997</ele>
        <time>2025-04-26T13:57:28Z</time>
      </trkpt>
      <trkpt lat="43.100727964192629" lon="-0.153832985088229">
        <ele>355.33999999999997</ele>
        <time>2025-04-26T13:57:29Z</time>
      </trkpt>
      <trkpt lat="43.100792001932859" lon="-0.154303964227438">
        <ele>355.33999999999997</ele>
        <time>2025-04-26T13:57:32Z</time>
      </trkpt>
      <trkpt lat="43.10081304050982" lon="-0.154461041092873">
        <ele>355.33999999999997</ele>
        <time>2025-04-26T13:57:33Z</time>
      </trkpt>
      <trkpt lat="43.101158961653709" lon="-0.15634797513485">
        <ele>355.33999999999997</ele>
        <time>2025-04-26T13:57:45Z</time>
      </trkpt>
      <trkpt lat="43.101388039067388" lon="-0.157264033332467">
        <ele>355.82999999999998</ele>
        <time>2025-04-26T13:57:51Z</time>
      </trkpt>
      <trkpt lat="43.101446041837335" lon="-0.157407028600574">
        <ele>356.31</ele>
        <time>2025-04-26T13:57:52Z</time>
      </trkpt>
      <trkpt lat="43.101515024900436" lon="-0.157537031918764">
        <ele>356.31</ele>
        <time>2025-04-26T13:57:53Z</time>
      </trkpt>
      <trkpt lat="43.101584007963538" lon="-0.157668963074684">
        <ele>356.31</ele>
        <time>2025-04-26T13:57:54Z</time>
      </trkpt>
      <trkpt lat="43.101662965491414" lon="-0.157798966392875">
        <ele>356.31</ele>
        <time>2025-04-26T13:57:55Z</time>
      </trkpt>
      <trkpt lat="43.101744018495083" lon="-0.157915977761149">
        <ele>356.79000000000002</ele>
        <time>2025-04-26T13:57:56Z</time>
      </trkpt>
      <trkpt lat="43.10182498767972" lon="-0.158031983301044">
        <ele>356.79000000000002</ele>
        <time>2025-04-26T13:57:57Z</time>
      </trkpt>
      <trkpt lat="43.102264031767845" lon="-0.158584015443921">
        <ele>357.75</ele>
        <time>2025-04-26T13:58:02Z</time>
      </trkpt>
      <trkpt lat="43.102352963760495" lon="-0.158680994063616">
        <ele>358.23000000000002</ele>
        <time>2025-04-26T13:58:03Z</time>
      </trkpt>
      <trkpt lat="43.102871971204877" lon="-0.159104028716683">
        <ele>359.67000000000002</ele>
        <time>2025-04-26T13:58:08Z</time>
      </trkpt>
      <trkpt lat="43.102984959259629" lon="-0.15914199873805">
        <ele>360.14999999999998</ele>
        <time>2025-04-26T13:58:09Z</time>
      </trkpt>
      <trkpt lat="43.103077998384833" lon="-0.159173011779785">
        <ele>360.14999999999998</ele>
        <time>2025-04-26T13:58:10Z</time>
      </trkpt>
      <trkpt lat="43.103202972561121" lon="-0.159186003729701">
        <ele>360.14999999999998</ele>
        <time>2025-04-26T13:58:11Z</time>
      </trkpt>
      <trkpt lat="43.103274973109365" lon="-0.159192960709333">
        <ele>360.63</ele>
        <time>2025-04-26T13:58:12Z</time>
      </trkpt>
      <trkpt lat="43.103334987536073" lon="-0.159211987629533">
        <ele>360.63</ele>
        <time>2025-04-26T13:58:13Z</time>
      </trkpt>
      <trkpt lat="43.103390978649259" lon="-0.159234032034874">
        <ele>361.11000000000001</ele>
        <time>2025-04-26T13:58:14Z</time>
      </trkpt>
      <trkpt lat="43.103415034711361" lon="-0.159294968470931">
        <ele>361.58999999999997</ele>
        <time>2025-04-26T13:58:15Z</time>
      </trkpt>
      <trkpt lat="43.103438001126051" lon="-0.15937996096909">
        <ele>361.58999999999997</ele>
        <time>2025-04-26T13:58:16Z</time>
      </trkpt>
      <trkpt lat="43.103463985025883" lon="-0.159477023407817">
        <ele>361.58999999999997</ele>
        <time>2025-04-26T13:58:17Z</time>
      </trkpt>
      <trkpt lat="43.103491980582476" lon="-0.159580959007144">
        <ele>361.58999999999997</ele>
        <time>2025-04-26T13:58:18Z</time>
      </trkpt>
      <trkpt lat="43.103582002222538" lon="-0.160006005316973">
        <ele>361.11000000000001</ele>
        <time>2025-04-26T13:58:22Z</time>
      </trkpt>
      <trkpt lat="43.10369398444891" lon="-0.160542028024793">
        <ele>358.23000000000002</ele>
        <time>2025-04-26T13:58:27Z</time>
      </trkpt>
      <trkpt lat="43.103710999712348" lon="-0.160632971674204">
        <ele>357.75</ele>
        <time>2025-04-26T13:58:28Z</time>
      </trkpt>
      <trkpt lat="43.103721980005503" lon="-0.160728022456169">
        <ele>357.26999999999998</ele>
        <time>2025-04-26T13:58:29Z</time>
      </trkpt>
      <trkpt lat="43.103713011369109" lon="-0.160822989419103">
        <ele>356.79000000000002</ele>
        <time>2025-04-26T13:58:30Z</time>
      </trkpt>
      <trkpt lat="43.103692978620529" lon="-0.160921979695559">
        <ele>356.31</ele>
        <time>2025-04-26T13:58:31Z</time>
      </trkpt>
      <trkpt lat="43.1036720238626" lon="-0.161022981628776">
        <ele>355.82999999999998</ele>
        <time>2025-04-26T13:58:32Z</time>
      </trkpt>
      <trkpt lat="43.103592982515693" lon="-0.161406034603715">
        <ele>354.38</ele>
        <time>2025-04-26T13:58:36Z</time>
      </trkpt>
      <trkpt lat="43.103455016389489" lon="-0.161832002922893">
        <ele>351.98000000000002</ele>
        <time>2025-04-26T13:58:41Z</time>
      </trkpt>
      <trkpt lat="43.103186963126063" lon="-0.162759963423014">
        <ele>346.20999999999998</ele>
        <time>2025-04-26T13:58:51Z</time>
      </trkpt>
      <trkpt lat="43.10311202891171" lon="-0.163038996979594">
        <ele>344.76999999999998</ele>
        <time>2025-04-26T13:58:54Z</time>
      </trkpt>
      <trkpt lat="43.102960987016559" lon="-0.163763025775552">
        <ele>342.85000000000002</ele>
        <time>2025-04-26T13:59:01Z</time>
      </trkpt>
      <trkpt lat="43.102952018380165" lon="-0.163854975253344">
        <ele>342.85000000000002</ele>
        <time>2025-04-26T13:59:02Z</time>
      </trkpt>
      <trkpt lat="43.10294397175312" lon="-0.163938039913774">
        <ele>342.85000000000002</ele>
        <time>2025-04-26T13:59:03Z</time>
      </trkpt>
      <trkpt lat="43.102924022823572" lon="-0.164151024073362">
        <ele>342.37</ele>
        <time>2025-04-26T13:59:06Z</time>
      </trkpt>
      <trkpt lat="43.102908013388515" lon="-0.164312962442636">
        <ele>342.37</ele>
        <time>2025-04-26T13:59:08Z</time>
      </trkpt>
      <trkpt lat="43.10276904143393" lon="-0.165408980101347">
        <ele>341.88999999999999</ele>
        <time>2025-04-26T13:59:18Z</time>
      </trkpt>
      <trkpt lat="43.10257600620389" lon="-0.166314980015159">
        <ele>341.88999999999999</ele>
        <time>2025-04-26T13:59:25Z</time>
      </trkpt>
      <trkpt lat="43.102367967367172" lon="-0.167617024853826">
        <ele>340.92000000000002</ele>
        <time>2025-04-26T13:59:36Z</time>
      </trkpt>
      <trkpt lat="43.102225977927446" lon="-0.169025016948581">
        <ele>338.51999999999998</ele>
        <time>2025-04-26T13:59:47Z</time>
      </trkpt>
      <trkpt lat="43.10223201289773" lon="-0.169168012216687">
        <ele>338.51999999999998</ele>
        <time>2025-04-26T13:59:48Z</time>
      </trkpt>
      <trkpt lat="43.102237964048982" lon="-0.169312013313174">
        <ele>338.04000000000002</ele>
        <time>2025-04-26T13:59:49Z</time>
      </trkpt>
      <trkpt lat="43.102621017023921" lon="-0.170941036194563">
        <ele>340.92000000000002</ele>
        <time>2025-04-26T14:00:00Z</time>
      </trkpt>
      <trkpt lat="43.103018989786506" lon="-0.172380963340402">
        <ele>341.41000000000003</ele>
        <time>2025-04-26T14:00:09Z</time>
      </trkpt>
      <trkpt lat="43.103534979745746" lon="-0.173775963485241">
        <ele>343.81</ele>
        <time>2025-04-26T14:00:19Z</time>
      </trkpt>
      <trkpt lat="43.103705970570445" lon="-0.174234034493566">
        <ele>343.32999999999998</ele>
        <time>2025-04-26T14:00:22Z</time>
      </trkpt>
      <trkpt lat="43.103881990537047" lon="-0.174706019461155">
        <ele>343.32999999999998</ele>
        <time>2025-04-26T14:00:25Z</time>
      </trkpt>
      <trkpt lat="43.104254985228181" lon="-0.175499031320214">
        <ele>344.29000000000002</ele>
        <time>2025-04-26T14:00:30Z</time>
      </trkpt>
      <trkpt lat="43.104297984391451" lon="-0.175687959417701">
        <ele>344.29000000000002</ele>
        <time>2025-04-26T14:00:31Z</time>
      </trkpt>
      <trkpt lat="43.104433016851544" lon="-0.176281984895468">
        <ele>344.76999999999998</ele>
        <time>2025-04-26T14:00:34Z</time>
      </trkpt>
      <trkpt lat="43.104503005743027" lon="-0.176461022347212">
        <ele>344.76999999999998</ele>
        <time>2025-04-26T14:00:35Z</time>
      </trkpt>
      <trkpt lat="43.104590009897947" lon="-0.176632013171911">
        <ele>345.25</ele>
        <time>2025-04-26T14:00:36Z</time>
      </trkpt>
      <trkpt lat="43.105035005137324" lon="-0.177588975057006">
        <ele>347.17000000000002</ele>
        <time>2025-04-26T14:00:41Z</time>
      </trkpt>
      <trkpt lat="43.105527022853494" lon="-0.179009037092328">
        <ele>348.13</ele>
        <time>2025-04-26T14:00:46Z</time>
      </trkpt>
      <trkpt lat="43.105846960097551" lon="-0.179969016462564">
        <ele>348.13</ele>
        <time>2025-04-26T14:00:50Z</time>
      </trkpt>
      <trkpt lat="43.106323974207044" lon="-0.181857962161303">
        <ele>346.69</ele>
        <time>2025-04-26T14:00:59Z</time>
      </trkpt>
      <trkpt lat="43.106741979718208" lon="-0.18399802967906">
        <ele>338.51999999999998</ele>
        <time>2025-04-26T14:01:08Z</time>
      </trkpt>
      <trkpt lat="43.107011038810015" lon="-0.185572989284992">
        <ele>334.19999999999999</ele>
        <time>2025-04-26T14:01:15Z</time>
      </trkpt>
      <trkpt lat="43.107095025479794" lon="-0.186310010030866">
        <ele>333.23000000000002</ele>
        <time>2025-04-26T14:01:19Z</time>
      </trkpt>
      <trkpt lat="43.107155039906502" lon="-0.186467003077269">
        <ele>332.75</ele>
        <time>2025-04-26T14:01:20Z</time>
      </trkpt>
      <trkpt lat="43.107262998819351" lon="-0.186601029708982">
        <ele>332.26999999999998</ele>
        <time>2025-04-26T14:01:21Z</time>
      </trkpt>
      <trkpt lat="43.107377998530865" lon="-0.186742013320327">
        <ele>331.79000000000002</ele>
        <time>2025-04-26T14:01:22Z</time>
      </trkpt>
      <trkpt lat="43.107504984363914" lon="-0.18689900636673">
        <ele>331.31</ele>
        <time>2025-04-26T14:01:23Z</time>
      </trkpt>
      <trkpt lat="43.108745003119111" lon="-0.188285959884524">
        <ele>325.54000000000002</ele>
        <time>2025-04-26T14:01:31Z</time>
      </trkpt>
      <trkpt lat="43.110180990770459" lon="-0.189806018024683">
        <ele>323.62</ele>
        <time>2025-04-26T14:01:40Z</time>
      </trkpt>
      <trkpt lat="43.110365979373455" lon="-0.189910959452391">
        <ele>323.13999999999999</ele>
        <time>2025-04-26T14:01:41Z</time>
      </trkpt>
      <trkpt lat="43.110554991289973" lon="-0.190020008012652">
        <ele>323.13999999999999</ele>
        <time>2025-04-26T14:01:42Z</time>
      </trkpt>
      <trkpt lat="43.111956026405096" lon="-0.190686034038663">
        <ele>323.13999999999999</ele>
        <time>2025-04-26T14:01:49Z</time>
      </trkpt>
      <trkpt lat="43.112141015008092" lon="-0.190773038193583">
        <ele>323.13999999999999</ele>
        <time>2025-04-26T14:01:50Z</time>
      </trkpt>
      <trkpt lat="43.113537020981312" lon="-0.191742992028594">
        <ele>322.66000000000003</ele>
        <time>2025-04-26T14:01:58Z</time>
      </trkpt>
      <trkpt lat="43.114950964227319" lon="-0.192988039925694">
        <ele>321.22000000000003</ele>
        <time>2025-04-26T14:02:07Z</time>
      </trkpt>
      <trkpt lat="43.116178996860981" lon="-0.193635961040854">
        <ele>320.25999999999999</ele>
        <time>2025-04-26T14:02:14Z</time>
      </trkpt>
      <trkpt lat="43.118530036881566" lon="-0.19461203366518">
        <ele>318.81</ele>
        <time>2025-04-26T14:02:27Z</time>
      </trkpt>
      <trkpt lat="43.119520023465157" lon="-0.195265989750624">
        <ele>320.25999999999999</ele>
        <time>2025-04-26T14:02:33Z</time>
      </trkpt>
      <trkpt lat="43.119651032611728" lon="-0.195442009717226">
        <ele>320.74000000000001</ele>
        <time>2025-04-26T14:02:34Z</time>
      </trkpt>
      <trkpt lat="43.119911039248109" lon="-0.19579203799367">
        <ele>321.22000000000003</ele>
        <time>2025-04-26T14:02:36Z</time>
      </trkpt>
      <trkpt lat="43.120140032842755" lon="-0.196172995492816">
        <ele>321.69999999999999</ele>
        <time>2025-04-26T14:02:38Z</time>
      </trkpt>
      <trkpt lat="43.120243968442082" lon="-0.196381034329534">
        <ele>322.18000000000001</ele>
        <time>2025-04-26T14:02:39Z</time>
      </trkpt>
      <trkpt lat="43.120893985033035" lon="-0.198520012199879">
        <ele>323.13999999999999</ele>
        <time>2025-04-26T14:02:48Z</time>
      </trkpt>
      <trkpt lat="43.121536960825324" lon="-0.200605010613799">
        <ele>323.13999999999999</ele>
        <time>2025-04-26T14:02:57Z</time>
      </trkpt>
      <trkpt lat="43.122189994901419" lon="-0.202753040939569">
        <ele>326.01999999999998</ele>
        <time>2025-04-26T14:03:06Z</time>
      </trkpt>
      <trkpt lat="43.12300899066031" lon="-0.205428041517735">
        <ele>327.47000000000003</ele>
        <time>2025-04-26T14:03:18Z</time>
      </trkpt>
      <trkpt lat="43.123375028371811" lon="-0.206272015348077">
        <ele>326.01999999999998</ele>
        <time>2025-04-26T14:03:24Z</time>
      </trkpt>
      <trkpt lat="43.124141972512007" lon="-0.207262001931667">
        <ele>318.32999999999998</ele>
        <time>2025-04-26T14:03:33Z</time>
      </trkpt>
      <trkpt lat="43.124235011637211" lon="-0.207324028015137">
        <ele>317.37</ele>
        <time>2025-04-26T14:03:34Z</time>
      </trkpt>
      <trkpt lat="43.12434196472168" lon="-0.207344982773066">
        <ele>315.93000000000001</ele>
        <time>2025-04-26T14:03:35Z</time>
      </trkpt>
      <trkpt lat="43.124461993575096" lon="-0.207369038835168">
        <ele>315.44999999999999</ele>
        <time>2025-04-26T14:03:36Z</time>
      </trkpt>
      <trkpt lat="43.124588979408145" lon="-0.207395022735">
        <ele>314.49000000000001</ele>
        <time>2025-04-26T14:03:37Z</time>
      </trkpt>
      <trkpt lat="43.1247069966048" lon="-0.20741798914969">
        <ele>314.00999999999999</ele>
        <time>2025-04-26T14:03:38Z</time>
      </trkpt>
      <trkpt lat="43.124818978831172" lon="-0.207441039383411">
        <ele>313.52999999999997</ele>
        <time>2025-04-26T14:03:39Z</time>
      </trkpt>
      <trkpt lat="43.125405041500926" lon="-0.207518991082907">
        <ele>310.63999999999999</ele>
        <time>2025-04-26T14:03:45Z</time>
      </trkpt>
      <trkpt lat="43.126143990084529" lon="-0.207539023831487">
        <ele>308.72000000000003</ele>
        <time>2025-04-26T14:03:53Z</time>
      </trkpt>
      <trkpt lat="43.126238035038114" lon="-0.207539023831487">
        <ele>308.72000000000003</ele>
        <time>2025-04-26T14:03:54Z</time>
      </trkpt>
      <trkpt lat="43.126444984227419" lon="-0.207545980811119">
        <ele>308.24000000000001</ele>
        <time>2025-04-26T14:03:56Z</time>
      </trkpt>
      <trkpt lat="43.126547997817397" lon="-0.207550004124641">
        <ele>308.24000000000001</ele>
        <time>2025-04-26T14:03:57Z</time>
      </trkpt>
      <trkpt lat="43.126641036942601" lon="-0.207554027438164">
        <ele>307.75999999999999</ele>
        <time>2025-04-26T14:03:58Z</time>
      </trkpt>
      <trkpt lat="43.126727035269141" lon="-0.207556961104274">
        <ele>308.24000000000001</ele>
        <time>2025-04-26T14:03:59Z</time>
      </trkpt>
      <trkpt lat="43.12681102193892" lon="-0.207559978589416">
        <ele>308.24000000000001</ele>
        <time>2025-04-26T14:04:00Z</time>
      </trkpt>
      <trkpt lat="43.126997016370296" lon="-0.207559978589416">
        <ele>308.24000000000001</ele>
        <time>2025-04-26T14:04:02Z</time>
      </trkpt>
      <trkpt lat="43.127087960019708" lon="-0.207559978589416">
        <ele>308.24000000000001</ele>
        <time>2025-04-26T14:04:03Z</time>
      </trkpt>
      <trkpt lat="43.127730013802648" lon="-0.207582022994757">
        <ele>310.16000000000003</ele>
        <time>2025-04-26T14:04:11Z</time>
      </trkpt>
      <trkpt lat="43.127804026007652" lon="-0.207594009116292">
        <ele>310.16000000000003</ele>
        <time>2025-04-26T14:04:12Z</time>
      </trkpt>
      <trkpt lat="43.127973005175591" lon="-0.207618987187743">
        <ele>310.63999999999999</ele>
        <time>2025-04-26T14:04:14Z</time>
      </trkpt>
      <trkpt lat="43.128137039020658" lon="-0.207643965259194">
        <ele>310.16000000000003</ele>
        <time>2025-04-26T14:04:16Z</time>
      </trkpt>
      <trkpt lat="43.128218008205295" lon="-0.207657041028142">
        <ele>310.16000000000003</ele>
        <time>2025-04-26T14:04:17Z</time>
      </trkpt>
      <trkpt lat="43.128299983218312" lon="-0.207669027149677">
        <ele>309.68000000000001</ele>
        <time>2025-04-26T14:04:18Z</time>
      </trkpt>
      <trkpt lat="43.128377012908459" lon="-0.207681013271213">
        <ele>309.68000000000001</ele>
        <time>2025-04-26T14:04:19Z</time>
      </trkpt>
      <trkpt lat="43.128454964607954" lon="-0.207692999392748">
        <ele>309.68000000000001</ele>
        <time>2025-04-26T14:04:20Z</time>
      </trkpt>
      <trkpt lat="43.128539035096765" lon="-0.207705991342664">
        <ele>310.16000000000003</ele>
        <time>2025-04-26T14:04:21Z</time>
      </trkpt>
      <trkpt lat="43.128621010109782" lon="-0.207743039354682">
        <ele>310.63999999999999</ele>
        <time>2025-04-26T14:04:22Z</time>
      </trkpt>
      <trkpt lat="43.128780014812946" lon="-0.207842029631138">
        <ele>311.12</ele>
        <time>2025-04-26T14:04:24Z</time>
      </trkpt>
      <trkpt lat="43.128847992047668" lon="-0.207884022966027">
        <ele>311.60000000000002</ele>
        <time>2025-04-26T14:04:25Z</time>
      </trkpt>
      <trkpt lat="43.128913035616279" lon="-0.207925010472536">
        <ele>311.60000000000002</ele>
        <time>2025-04-26T14:04:26Z</time>
      </trkpt>
      <trkpt lat="43.128965003415942" lon="-0.207964992150664">
        <ele>312.08999999999997</ele>
        <time>2025-04-26T14:04:27Z</time>
      </trkpt>
      <trkpt lat="43.129026023671031" lon="-0.208013020455837">
        <ele>312.08999999999997</ele>
        <time>2025-04-26T14:04:28Z</time>
      </trkpt>
      <trkpt lat="43.12921604141593" lon="-0.208161966875196">
        <ele>312.08999999999997</ele>
        <time>2025-04-26T14:04:31Z</time>
      </trkpt>
      <trkpt lat="43.129279995337129" lon="-0.20821200683713">
        <ele>311.60000000000002</ele>
        <time>2025-04-26T14:04:32Z</time>
      </trkpt>
      <trkpt lat="43.129534972831607" lon="-0.208439994603395">
        <ele>310.16000000000003</ele>
        <time>2025-04-26T14:04:36Z</time>
      </trkpt>
      <trkpt lat="43.129703029990196" lon="-0.208624983206391">
        <ele>309.19999999999999</ele>
        <time>2025-04-26T14:04:39Z</time>
      </trkpt>
      <trkpt lat="43.129771007224917" lon="-0.208672005683184">
        <ele>309.19999999999999</ele>
        <time>2025-04-26T14:04:40Z</time>
      </trkpt>
      <trkpt lat="43.130053980275989" lon="-0.208855988457799">
        <ele>309.68000000000001</ele>
        <time>2025-04-26T14:04:44Z</time>
      </trkpt>
      <trkpt lat="43.130124974995852" lon="-0.208911979570985">
        <ele>310.16000000000003</ele>
        <time>2025-04-26T14:04:45Z</time>
      </trkpt>
      <trkpt lat="43.130196975544095" lon="-0.208969982340932">
        <ele>309.68000000000001</ele>
        <time>2025-04-26T14:04:46Z</time>
      </trkpt>
      <trkpt lat="43.130267970263958" lon="-0.209027985110879">
        <ele>309.19999999999999</ele>
        <time>2025-04-26T14:04:47Z</time>
      </trkpt>
      <trkpt lat="43.130342988297343" lon="-0.209089005365968">
        <ele>308.72000000000003</ele>
        <time>2025-04-26T14:04:48Z</time>
      </trkpt>
      <trkpt lat="43.130662003532052" lon="-0.209344988688827">
        <ele>307.27999999999997</ele>
        <time>2025-04-26T14:04:52Z</time>
      </trkpt>
      <trkpt lat="43.130734004080296" lon="-0.209402991458774">
        <ele>307.27999999999997</ele>
        <time>2025-04-26T14:04:53Z</time>
      </trkpt>
      <trkpt lat="43.131119990721345" lon="-0.209712032228708">
        <ele>305.36000000000001</ele>
        <time>2025-04-26T14:04:58Z</time>
      </trkpt>
      <trkpt lat="43.131189979612827" lon="-0.209780009463429">
        <ele>305.36000000000001</ele>
        <time>2025-04-26T14:04:59Z</time>
      </trkpt>
      <trkpt lat="43.131255023181438" lon="-0.209863996133208">
        <ele>305.36000000000001</ele>
        <time>2025-04-26T14:05:00Z</time>
      </trkpt>
      <trkpt lat="43.131377985700965" lon="-0.210024006664753">
        <ele>304.88</ele>
        <time>2025-04-26T14:05:02Z</time>
      </trkpt>
      <trkpt lat="43.13141000457108" lon="-0.210100030526519">
        <ele>304.88</ele>
        <time>2025-04-26T14:05:03Z</time>
      </trkpt>
      <trkpt lat="43.131445962935686" lon="-0.210186028853059">
        <ele>304.88</ele>
        <time>2025-04-26T14:05:04Z</time>
      </trkpt>
      <trkpt lat="43.131478987634182" lon="-0.210268003866076">
        <ele>304.88</ele>
        <time>2025-04-26T14:05:05Z</time>
      </trkpt>
      <trkpt lat="43.131512012332678" lon="-0.210346039384604">
        <ele>304.88</ele>
        <time>2025-04-26T14:05:06Z</time>
      </trkpt>
      <trkpt lat="43.131543025374413" lon="-0.210424996912479">
        <ele>304.88</ele>
        <time>2025-04-26T14:05:07Z</time>
      </trkpt>
      <trkpt lat="43.131574960425496" lon="-0.210508983582258">
        <ele>304.88</ele>
        <time>2025-04-26T14:05:08Z</time>
      </trkpt>
      <trkpt lat="43.131608990952373" lon="-0.210596993565559">
        <ele>305.36000000000001</ele>
        <time>2025-04-26T14:05:09Z</time>
      </trkpt>
      <trkpt lat="43.131874026730657" lon="-0.211036037653685">
        <ele>305.36000000000001</ele>
        <time>2025-04-26T14:05:14Z</time>
      </trkpt>
      <trkpt lat="43.132662009447813" lon="-0.211667027324438">
        <ele>301.50999999999999</ele>
        <time>2025-04-26T14:05:23Z</time>
      </trkpt>
      <trkpt lat="43.134263036772609" lon="-0.212998995557427">
        <ele>299.58999999999997</ele>
        <time>2025-04-26T14:05:39Z</time>
      </trkpt>
      <trkpt lat="43.135705981403589" lon="-0.214151004329324">
        <ele>297.18000000000001</ele>
        <time>2025-04-26T14:05:53Z</time>
      </trkpt>
      <trkpt lat="43.13695496879518" lon="-0.214876960963011">
        <ele>297.67000000000002</ele>
        <time>2025-04-26T14:06:02Z</time>
      </trkpt>
      <trkpt lat="43.13882295973599" lon="-0.216030981391668">
        <ele>295.74000000000001</ele>
        <time>2025-04-26T14:06:13Z</time>
      </trkpt>
      <trkpt lat="43.141574990004301" lon="-0.217739967629313">
        <ele>293.81999999999999</ele>
        <time>2025-04-26T14:06:27Z</time>
      </trkpt>
      <trkpt lat="43.144705966114998" lon="-0.219635032117367">
        <ele>291.42000000000002</ele>
        <time>2025-04-26T14:06:43Z</time>
      </trkpt>
      <trkpt lat="43.147778017446399" lon="-0.22151199169457">
        <ele>292.38</ele>
        <time>2025-04-26T14:06:59Z</time>
      </trkpt>
      <trkpt lat="43.149320958182216" lon="-0.222470965236425">
        <ele>296.22000000000003</ele>
        <time>2025-04-26T14:07:08Z</time>
      </trkpt>
      <trkpt lat="43.15059601329267" lon="-0.223686005920172">
        <ele>295.74000000000001</ele>
        <time>2025-04-26T14:07:17Z</time>
      </trkpt>
      <trkpt lat="43.152330983430147" lon="-0.22538099437952">
        <ele>294.77999999999997</ele>
        <time>2025-04-26T14:07:30Z</time>
      </trkpt>
      <trkpt lat="43.152912016957998" lon="-0.225847028195858">
        <ele>293.33999999999997</ele>
        <time>2025-04-26T14:07:35Z</time>
      </trkpt>
      <trkpt lat="43.153037996962667" lon="-0.225909976288676">
        <ele>293.33999999999997</ele>
        <time>2025-04-26T14:07:36Z</time>
      </trkpt>
      <trkpt lat="43.153183003887534" lon="-0.225946018472314">
        <ele>292.86000000000001</ele>
        <time>2025-04-26T14:07:37Z</time>
      </trkpt>
      <trkpt lat="43.153333961963654" lon="-0.225936966016889">
        <ele>292.38</ele>
        <time>2025-04-26T14:07:38Z</time>
      </trkpt>
      <trkpt lat="43.153491960838437" lon="-0.225922968238592">
        <ele>292.38</ele>
        <time>2025-04-26T14:07:39Z</time>
      </trkpt>
      <trkpt lat="43.153661023825407" lon="-0.225907964631915">
        <ele>292.38</ele>
        <time>2025-04-26T14:07:40Z</time>
      </trkpt>
      <trkpt lat="43.15472099930048" lon="-0.225627003237605">
        <ele>290.45999999999998</ele>
        <time>2025-04-26T14:07:46Z</time>
      </trkpt>
      <trkpt lat="43.154902970418334" lon="-0.225627003237605">
        <ele>289.97000000000003</ele>
        <time>2025-04-26T14:07:47Z</time>
      </trkpt>
      <trkpt lat="43.15508795902133" lon="-0.225676959380507">
        <ele>289.49000000000001</ele>
        <time>2025-04-26T14:07:48Z</time>
      </trkpt>
      <trkpt lat="43.155284011736512" lon="-0.225734962150455">
        <ele>289.00999999999999</ele>
        <time>2025-04-26T14:07:49Z</time>
      </trkpt>
      <trkpt lat="43.15545299090445" lon="-0.225846022367477">
        <ele>288.52999999999997</ele>
        <time>2025-04-26T14:07:50Z</time>
      </trkpt>
      <trkpt lat="43.155635967850685" lon="-0.225965967401862">
        <ele>287.56999999999999</ele>
        <time>2025-04-26T14:07:51Z</time>
      </trkpt>
      <trkpt lat="43.155824979767203" lon="-0.226091025397182">
        <ele>287.56999999999999</ele>
        <time>2025-04-26T14:07:52Z</time>
      </trkpt>
      <trkpt lat="43.157460037618876" lon="-0.227201040834188">
        <ele>280.83999999999997</ele>
        <time>2025-04-26T14:08:00Z</time>
      </trkpt>
      <trkpt lat="43.159654000774026" lon="-0.228699976578355">
        <ele>278.92000000000002</ele>
        <time>2025-04-26T14:08:11Z</time>
      </trkpt>
      <trkpt lat="43.160202009603381" lon="-0.229150000959635">
        <ele>278.44</ele>
        <time>2025-04-26T14:08:14Z</time>
      </trkpt>
      <trkpt lat="43.160365959629416" lon="-0.229337001219392">
        <ele>277.95999999999998</ele>
        <time>2025-04-26T14:08:15Z</time>
      </trkpt>
      <trkpt lat="43.161508999764919" lon="-0.230614989995956">
        <ele>275.06999999999999</ele>
        <time>2025-04-26T14:08:22Z</time>
      </trkpt>
      <trkpt lat="43.161694994196296" lon="-0.230764020234346">
        <ele>274.58999999999997</ele>
        <time>2025-04-26T14:08:23Z</time>
      </trkpt>
      <trkpt lat="43.162099001929164" lon="-0.230928976088762">
        <ele>273.63</ele>
        <time>2025-04-26T14:08:25Z</time>
      </trkpt>
      <trkpt lat="43.162311986088753" lon="-0.230998964980245">
        <ele>273.14999999999998</ele>
        <time>2025-04-26T14:08:26Z</time>
      </trkpt>
      <trkpt lat="43.162521030753851" lon="-0.231067026033998">
        <ele>272.67000000000002</ele>
        <time>2025-04-26T14:08:27Z</time>
      </trkpt>
      <trkpt lat="43.16273502074182" lon="-0.23113701492548">
        <ele>272.67000000000002</ele>
        <time>2025-04-26T14:08:28Z</time>
      </trkpt>
      <trkpt lat="43.162954039871693" lon="-0.231208009645343">
        <ele>272.19</ele>
        <time>2025-04-26T14:08:29Z</time>
      </trkpt>
      <trkpt lat="43.163171969354153" lon="-0.231279004365206">
        <ele>271.70999999999998</ele>
        <time>2025-04-26T14:08:30Z</time>
      </trkpt>
      <trkpt lat="43.164835022762418" lon="-0.232134964317083">
        <ele>270.26999999999998</ele>
        <time>2025-04-26T14:08:38Z</time>
      </trkpt>
      <trkpt lat="43.166209990158677" lon="-0.233199968934059">
        <ele>270.26999999999998</ele>
        <time>2025-04-26T14:08:45Z</time>
      </trkpt>
      <trkpt lat="43.167490996420383" lon="-0.23440302349627">
        <ele>269.79000000000002</ele>
        <time>2025-04-26T14:08:52Z</time>
      </trkpt>
      <trkpt lat="43.168930001556873" lon="-0.235265018418431">
        <ele>266.89999999999998</ele>
        <time>2025-04-26T14:08:59Z</time>
      </trkpt>
      <trkpt lat="43.170764967799187" lon="-0.235859965905547">
        <ele>262.57999999999998</ele>
        <time>2025-04-26T14:09:07Z</time>
      </trkpt>
      <trkpt lat="43.172860024496913" lon="-0.236614001914859">
        <ele>264.01999999999998</ele>
        <time>2025-04-26T14:09:16Z</time>
      </trkpt>
      <trkpt lat="43.174558030441403" lon="-0.237780008465052">
        <ele>268.82999999999998</ele>
        <time>2025-04-26T14:09:25Z</time>
      </trkpt>
      <trkpt lat="43.17519798874855" lon="-0.238374033942819">
        <ele>273.63</ele>
        <time>2025-04-26T14:09:31Z</time>
      </trkpt>
      <trkpt lat="43.17564801312983" lon="-0.238888012245297">
        <ele>276.04000000000002</ele>
        <time>2025-04-26T14:09:36Z</time>
      </trkpt>
      <trkpt lat="43.175742980092764" lon="-0.238948026672006">
        <ele>276.51999999999998</ele>
        <time>2025-04-26T14:09:37Z</time>
      </trkpt>
      <trkpt lat="43.175833001732826" lon="-0.238996976986527">
        <ele>276.51999999999998</ele>
        <time>2025-04-26T14:09:38Z</time>
      </trkpt>
      <trkpt lat="43.175923023372889" lon="-0.239009968936443">
        <ele>277</ele>
        <time>2025-04-26T14:09:39Z</time>
      </trkpt>
      <trkpt lat="43.176027964800596" lon="-0.23898197337985">
        <ele>277.48000000000002</ele>
        <time>2025-04-26T14:09:40Z</time>
      </trkpt>
      <trkpt lat="43.176107006147504" lon="-0.238880971446633">
        <ele>277</ele>
        <time>2025-04-26T14:09:41Z</time>
      </trkpt>
      <trkpt lat="43.176156040281057" lon="-0.23876597173512">
        <ele>276.51999999999998</ele>
        <time>2025-04-26T14:09:42Z</time>
      </trkpt>
      <trkpt lat="43.176209013909101" lon="-0.238643009215593">
        <ele>276.04000000000002</ele>
        <time>2025-04-26T14:09:43Z</time>
      </trkpt>
      <trkpt lat="43.176262993365526" lon="-0.238515017554164">
        <ele>275.56</ele>
        <time>2025-04-26T14:09:44Z</time>
      </trkpt>
      <trkpt lat="43.176424009725451" lon="-0.238137999549508">
        <ele>274.58999999999997</ele>
        <time>2025-04-26T14:09:47Z</time>
      </trkpt>
      <trkpt lat="43.176472038030624" lon="-0.238025011494756">
        <ele>274.58999999999997</ele>
        <time>2025-04-26T14:09:48Z</time>
      </trkpt>
      <trkpt lat="43.176515959203243" lon="-0.237943036481738">
        <ele>274.58999999999997</ele>
        <time>2025-04-26T14:09:49Z</time>
      </trkpt>
      <trkpt lat="43.176598018035293" lon="-0.237934989854693">
        <ele>275.06999999999999</ele>
        <time>2025-04-26T14:09:50Z</time>
      </trkpt>
      <trkpt lat="43.176684016361833" lon="-0.2379260212183">
        <ele>275.06999999999999</ele>
        <time>2025-04-26T14:09:51Z</time>
      </trkpt>
      <trkpt lat="43.176760040223598" lon="-0.237961979582906">
        <ele>274.58999999999997</ele>
        <time>2025-04-26T14:09:52Z</time>
      </trkpt>
      <trkpt lat="43.176846960559487" lon="-0.238048983737826">
        <ele>274.58999999999997</ele>
        <time>2025-04-26T14:09:53Z</time>
      </trkpt>
      <trkpt lat="43.176938993856311" lon="-0.23814101703465">
        <ele>275.06999999999999</ele>
        <time>2025-04-26T14:09:54Z</time>
      </trkpt>
      <trkpt lat="43.177037984132767" lon="-0.238240007311106">
        <ele>275.06999999999999</ele>
        <time>2025-04-26T14:09:55Z</time>
      </trkpt>
      <trkpt lat="43.178093014284968" lon="-0.239440966397524">
        <ele>275.06999999999999</ele>
        <time>2025-04-26T14:10:06Z</time>
      </trkpt>
      <trkpt lat="43.17850498482585" lon="-0.239780014380813">
        <ele>273.14999999999998</ele>
        <time>2025-04-26T14:10:10Z</time>
      </trkpt>
      <trkpt lat="43.17861101590097" lon="-0.239842962473631">
        <ele>272.67000000000002</ele>
        <time>2025-04-26T14:10:11Z</time>
      </trkpt>
      <trkpt lat="43.180081034079194" lon="-0.240425001829863">
        <ele>269.31</ele>
        <time>2025-04-26T14:10:24Z</time>
      </trkpt>
      <trkpt lat="43.181531019508839" lon="-0.240455009043217">
        <ele>267.38</ele>
        <time>2025-04-26T14:10:36Z</time>
      </trkpt>
      <trkpt lat="43.183220978826284" lon="-0.240362975746393">
        <ele>264.98000000000002</ele>
        <time>2025-04-26T14:10:49Z</time>
      </trkpt>
      <trkpt lat="43.1849280372262" lon="-0.240379991009831">
        <ele>264.01999999999998</ele>
        <time>2025-04-26T14:10:59Z</time>
      </trkpt>
      <trkpt lat="43.185412008315325" lon="-0.240404969081283">
        <ele>263.54000000000002</ele>
        <time>2025-04-26T14:11:03Z</time>
      </trkpt>
      <trkpt lat="43.185475040227175" lon="-0.240407986566424">
        <ele>263.54000000000002</ele>
        <time>2025-04-26T14:11:04Z</time>
      </trkpt>
      <trkpt lat="43.185524996370077" lon="-0.240411004051566">
        <ele>263.06</ele>
        <time>2025-04-26T14:11:05Z</time>
      </trkpt>
      <trkpt lat="43.185582999140024" lon="-0.240240013226867">
        <ele>263.06</ele>
        <time>2025-04-26T14:11:06Z</time>
      </trkpt>
      <trkpt lat="43.185590961948037" lon="-0.240231966599822">
        <ele>263.06</ele>
        <time>2025-04-26T14:11:07Z</time>
      </trkpt>
      <trkpt lat="43.185670003294945" lon="-0.240167006850243">
        <ele>262.57999999999998</ele>
        <time>2025-04-26T14:11:08Z</time>
      </trkpt>
      <trkpt lat="43.185734041035175" lon="-0.240141022950411">
        <ele>262.57999999999998</ele>
        <time>2025-04-26T14:11:09Z</time>
      </trkpt>
      <trkpt lat="43.185835964977741" lon="-0.240164995193481">
        <ele>262.57999999999998</ele>
        <time>2025-04-26T14:11:10Z</time>
      </trkpt>
      <trkpt lat="43.185862032696605" lon="-0.240175975486636">
        <ele>262.57999999999998</ele>
        <time>2025-04-26T14:11:11Z</time>
      </trkpt>
      <trkpt lat="43.185947025194764" lon="-0.240303967148066">
        <ele>262.57999999999998</ele>
        <time>2025-04-26T14:11:12Z</time>
      </trkpt>
      <trkpt lat="43.185947025194764" lon="-0.240303967148066">
        <ele>262.57999999999998</ele>
        <time>2025-04-26T14:11:13Z</time>
      </trkpt>
      <trkpt lat="43.186081973835826" lon="-0.240476969629526">
        <ele>262.57999999999998</ele>
        <time>2025-04-26T14:11:14Z</time>
      </trkpt>
      <trkpt lat="43.186171995475888" lon="-0.240477975457907">
        <ele>262.10000000000002</ele>
        <time>2025-04-26T14:11:15Z</time>
      </trkpt>
      <trkpt lat="43.186281966045499" lon="-0.240479987114668">
        <ele>261.62</ele>
        <time>2025-04-26T14:11:16Z</time>
      </trkpt>
      <trkpt lat="43.187456019222736" lon="-0.240492979064584">
        <ele>260.64999999999998</ele>
        <time>2025-04-26T14:11:24Z</time>
      </trkpt>
      <trkpt lat="43.189114965498447" lon="-0.240498008206487">
        <ele>259.20999999999998</ele>
        <time>2025-04-26T14:11:32Z</time>
      </trkpt>
      <trkpt lat="43.192118033766747" lon="-0.240498008206487">
        <ele>258.25</ele>
        <time>2025-04-26T14:11:46Z</time>
      </trkpt>
      <trkpt lat="43.194401012733579" lon="-0.240820962935686">
        <ele>258.73000000000002</ele>
        <time>2025-04-26T14:11:57Z</time>
      </trkpt>
      <trkpt lat="43.196735959500074" lon="-0.241725035011768">
        <ele>258.25</ele>
        <time>2025-04-26T14:12:09Z</time>
      </trkpt>
      <trkpt lat="43.198059964925051" lon="-0.242515029385686">
        <ele>257.76999999999998</ele>
        <time>2025-04-26T14:12:18Z</time>
      </trkpt>
      <trkpt lat="43.198332963511348" lon="-0.242641009390354">
        <ele>257.29000000000002</ele>
        <time>2025-04-26T14:12:21Z</time>
      </trkpt>
      <trkpt lat="43.198415022343397" lon="-0.24267696775496">
        <ele>257.29000000000002</ele>
        <time>2025-04-26T14:12:22Z</time>
      </trkpt>
      <trkpt lat="43.198495991528034" lon="-0.242665987461805">
        <ele>257.29000000000002</ele>
        <time>2025-04-26T14:12:23Z</time>
      </trkpt>
      <trkpt lat="43.198575032874942" lon="-0.242640003561974">
        <ele>257.29000000000002</ele>
        <time>2025-04-26T14:12:24Z</time>
      </trkpt>
      <trkpt lat="43.198677962645888" lon="-0.242671016603708">
        <ele>257.29000000000002</ele>
        <time>2025-04-26T14:12:25Z</time>
      </trkpt>
      <trkpt lat="43.198735965415835" lon="-0.242729019373655">
        <ele>257.29000000000002</ele>
        <time>2025-04-26T14:12:26Z</time>
      </trkpt>
      <trkpt lat="43.198764966800809" lon="-0.242860028520226">
        <ele>257.29000000000002</ele>
        <time>2025-04-26T14:12:27Z</time>
      </trkpt>
      <trkpt lat="43.198824981227517" lon="-0.242973016574979">
        <ele>257.76999999999998</ele>
        <time>2025-04-26T14:12:28Z</time>
      </trkpt>
      <trkpt lat="43.198899999260902" lon="-0.243058009073138">
        <ele>257.76999999999998</ele>
        <time>2025-04-26T14:12:29Z</time>
      </trkpt>
      <trkpt lat="43.198984991759062" lon="-0.243152976036072">
        <ele>258.25</ele>
        <time>2025-04-26T14:12:30Z</time>
      </trkpt>
      <trkpt lat="43.199076019227505" lon="-0.243253977969289">
        <ele>258.25</ele>
        <time>2025-04-26T14:12:31Z</time>
      </trkpt>
      <trkpt lat="43.199815973639488" lon="-0.243799975141883">
        <ele>258.25</ele>
        <time>2025-04-26T14:12:36Z</time>
      </trkpt>
      <trkpt lat="43.20136402733624" lon="-0.244736988097429">
        <ele>257.29000000000002</ele>
        <time>2025-04-26T14:12:43Z</time>
      </trkpt>
      <trkpt lat="43.203168986365199" lon="-0.245526982471347">
        <ele>257.29000000000002</ele>
        <time>2025-04-26T14:12:51Z</time>
      </trkpt>
      <trkpt lat="43.205913975834846" lon="-0.246251011267304">
        <ele>254.41</ele>
        <time>2025-04-26T14:13:03Z</time>
      </trkpt>
      <trkpt lat="43.20890698581934" lon="-0.246408004313707">
        <ele>252.47999999999999</ele>
        <time>2025-04-26T14:13:16Z</time>
      </trkpt>
      <trkpt lat="43.213279992341995" lon="-0.246486961841583">
        <ele>248.63999999999999</ele>
        <time>2025-04-26T14:13:35Z</time>
      </trkpt>
      <trkpt lat="43.216370986774564" lon="-0.246546976268291">
        <ele>245.75</ele>
        <time>2025-04-26T14:13:49Z</time>
      </trkpt>
      <trkpt lat="43.218311984091997" lon="-0.246748980134726">
        <ele>244.78999999999999</ele>
        <time>2025-04-26T14:13:58Z</time>
      </trkpt>
      <trkpt lat="43.218536032363772" lon="-0.246805977076292">
        <ele>245.75</ele>
        <time>2025-04-26T14:13:59Z</time>
      </trkpt>
      <trkpt lat="43.221837999299169" lon="-0.247645005583763">
        <ele>246.22999999999999</ele>
        <time>2025-04-26T14:14:15Z</time>
      </trkpt>
      <trkpt lat="43.223866000771523" lon="-0.248484034091234">
        <ele>243.34999999999999</ele>
        <time>2025-04-26T14:14:26Z</time>
      </trkpt>
      <trkpt lat="43.225180031731725" lon="-0.249525988474488">
        <ele>242.38999999999999</ele>
        <time>2025-04-26T14:14:34Z</time>
      </trkpt>
      <trkpt lat="43.225796017795801" lon="-0.250071985647082">
        <ele>241.43000000000001</ele>
        <time>2025-04-26T14:14:39Z</time>
      </trkpt>
      <trkpt lat="43.226159038022161" lon="-0.25011096149683">
        <ele>240.94999999999999</ele>
        <time>2025-04-26T14:14:42Z</time>
      </trkpt>
      <trkpt lat="43.22622399777174" lon="-0.250208023935556">
        <ele>240.94999999999999</ele>
        <time>2025-04-26T14:14:43Z</time>
      </trkpt>
      <trkpt lat="43.226257022470236" lon="-0.250326041132212">
        <ele>240.94999999999999</ele>
        <time>2025-04-26T14:14:44Z</time>
      </trkpt>
      <trkpt lat="43.226265991106629" lon="-0.250389995053411">
        <ele>240.47</ele>
        <time>2025-04-26T14:14:45Z</time>
      </trkpt>
      <trkpt lat="43.226294992491603" lon="-0.250631980597973">
        <ele>240.47</ele>
        <time>2025-04-26T14:14:46Z</time>
      </trkpt>
      <trkpt lat="43.226357018575072" lon="-0.25079601444304">
        <ele>239.99000000000001</ele>
        <time>2025-04-26T14:14:47Z</time>
      </trkpt>
      <trkpt lat="43.226424995809793" lon="-0.250977985560894">
        <ele>239.99000000000001</ele>
        <time>2025-04-26T14:14:48Z</time>
      </trkpt>
      <trkpt lat="43.226503031328321" lon="-0.25118401274085">
        <ele>239.99000000000001</ele>
        <time>2025-04-26T14:14:49Z</time>
      </trkpt>
      <trkpt lat="43.226620964705944" lon="-0.251362966373563">
        <ele>239.50999999999999</ele>
        <time>2025-04-26T14:14:50Z</time>
      </trkpt>
      <trkpt lat="43.227482959628105" lon="-0.252953013405204">
        <ele>238.53999999999999</ele>
        <time>2025-04-26T14:14:57Z</time>
      </trkpt>
      <trkpt lat="43.228991031646729" lon="-0.256587993353605">
        <ele>238.53999999999999</ele>
        <time>2025-04-26T14:15:11Z</time>
      </trkpt>
      <trkpt lat="43.230199031531811" lon="-0.259280009195209">
        <ele>238.06</ele>
        <time>2025-04-26T14:15:22Z</time>
      </trkpt>
      <trkpt lat="43.231534017249942" lon="-0.261179013177752">
        <ele>235.66</ele>
        <time>2025-04-26T14:15:31Z</time>
      </trkpt>
      <trkpt lat="43.23316304013133" lon="-0.262582981958985">
        <ele>233.74000000000001</ele>
        <time>2025-04-26T14:15:40Z</time>
      </trkpt>
      <trkpt lat="43.235133960843086" lon="-0.263615967705846">
        <ele>231.81</ele>
        <time>2025-04-26T14:15:50Z</time>
      </trkpt>
      <trkpt lat="43.238130994141102" lon="-0.265095960348845">
        <ele>230.84999999999999</ele>
        <time>2025-04-26T14:16:06Z</time>
      </trkpt>
      <trkpt lat="43.239475032314658" lon="-0.265756035223603">
        <ele>230.84999999999999</ele>
        <time>2025-04-26T14:16:13Z</time>
      </trkpt>
      <trkpt lat="43.240889981389046" lon="-0.266449972987175">
        <ele>228.93000000000001</ele>
        <time>2025-04-26T14:16:20Z</time>
      </trkpt>
      <trkpt lat="43.242712039500475" lon="-0.267546996474266">
        <ele>227.00999999999999</ele>
        <time>2025-04-26T14:16:30Z</time>
      </trkpt>
      <trkpt lat="43.243350991979241" lon="-0.267969025298953">
        <ele>225.56999999999999</ele>
        <time>2025-04-26T14:16:35Z</time>
      </trkpt>
      <trkpt lat="43.243472026661038" lon="-0.267990985885262">
        <ele>225.09</ele>
        <time>2025-04-26T14:16:36Z</time>
      </trkpt>
      <trkpt lat="43.243724992498755" lon="-0.268017975613475">
        <ele>225.09</ele>
        <time>2025-04-26T14:16:38Z</time>
      </trkpt>
      <trkpt lat="43.24386203661561" lon="-0.26817798614502">
        <ele>225.09</ele>
        <time>2025-04-26T14:16:39Z</time>
      </trkpt>
      <trkpt lat="43.244863003492355" lon="-0.268875025212765">
        <ele>223.16</ele>
        <time>2025-04-26T14:16:46Z</time>
      </trkpt>
      <trkpt lat="43.245909987017512" lon="-0.2701769862324">
        <ele>221.72</ele>
        <time>2025-04-26T14:16:53Z</time>
      </trkpt>
      <trkpt lat="43.246595039963722" lon="-0.271907011047006">
        <ele>221.72</ele>
        <time>2025-04-26T14:17:00Z</time>
      </trkpt>
      <trkpt lat="43.247631965205073" lon="-0.275046033784747">
        <ele>221.24000000000001</ele>
        <time>2025-04-26T14:17:12Z</time>
      </trkpt>
      <trkpt lat="43.248496977612376" lon="-0.277126003056765">
        <ele>220.75999999999999</ele>
        <time>2025-04-26T14:17:21Z</time>
      </trkpt>
      <trkpt lat="43.249225029721856" lon="-0.27814700268209">
        <ele>220.75999999999999</ele>
        <time>2025-04-26T14:17:29Z</time>
      </trkpt>
      <trkpt lat="43.249318990856409" lon="-0.278214979916811">
        <ele>220.75999999999999</ele>
        <time>2025-04-26T14:17:30Z</time>
      </trkpt>
      <trkpt lat="43.249552007764578" lon="-0.278292009606957">
        <ele>220.75999999999999</ele>
        <time>2025-04-26T14:17:32Z</time>
      </trkpt>
      <trkpt lat="43.249612022191286" lon="-0.278392005711794">
        <ele>220.75999999999999</ele>
        <time>2025-04-26T14:17:33Z</time>
      </trkpt>
      <trkpt lat="43.24964202940464" lon="-0.278570959344506">
        <ele>220.75999999999999</ele>
        <time>2025-04-26T14:17:34Z</time>
      </trkpt>
      <trkpt lat="43.249754011631012" lon="-0.278867008164525">
        <ele>220.28</ele>
        <time>2025-04-26T14:17:36Z</time>
      </trkpt>
      <trkpt lat="43.249826012179255" lon="-0.279024001210928">
        <ele>220.28</ele>
        <time>2025-04-26T14:17:37Z</time>
      </trkpt>
      <trkpt lat="43.250725977122784" lon="-0.280095962807536">
        <ele>220.28</ele>
        <time>2025-04-26T14:17:44Z</time>
      </trkpt>
      <trkpt lat="43.250883975997567" lon="-0.280278017744422">
        <ele>220.75999999999999</ele>
        <time>2025-04-26T14:17:45Z</time>
      </trkpt>
      <trkpt lat="43.252785997465253" lon="-0.282400986179709">
        <ele>220.28</ele>
        <time>2025-04-26T14:17:57Z</time>
      </trkpt>
      <trkpt lat="43.254215028136969" lon="-0.28403302654624">
        <ele>219.80000000000001</ele>
        <time>2025-04-26T14:18:06Z</time>
      </trkpt>
      <trkpt lat="43.256335984915495" lon="-0.286445003002882">
        <ele>220.75999999999999</ele>
        <time>2025-04-26T14:18:19Z</time>
      </trkpt>
      <trkpt lat="43.258142033591866" lon="-0.28843997977674">
        <ele>216.91</ele>
        <time>2025-04-26T14:18:30Z</time>
      </trkpt>
      <trkpt lat="43.259592019021511" lon="-0.289833974093199">
        <ele>214.99000000000001</ele>
        <time>2025-04-26T14:18:39Z</time>
      </trkpt>
      <trkpt lat="43.261428996920586" lon="-0.291480012238026">
        <ele>213.55000000000001</ele>
        <time>2025-04-26T14:18:50Z</time>
      </trkpt>
      <trkpt lat="43.26283497735858" lon="-0.293153040111065">
        <ele>211.63</ele>
        <time>2025-04-26T14:18:59Z</time>
      </trkpt>
      <trkpt lat="43.263913979753852" lon="-0.295111974701285">
        <ele>209.22</ele>
        <time>2025-04-26T14:19:08Z</time>
      </trkpt>
      <trkpt lat="43.264812016859651" lon="-0.2969900239259">
        <ele>208.74000000000001</ele>
        <time>2025-04-26T14:19:16Z</time>
      </trkpt>
      <trkpt lat="43.265880038961768" lon="-0.298706972971559">
        <ele>206.81999999999999</ele>
        <time>2025-04-26T14:19:24Z</time>
      </trkpt>
      <trkpt lat="43.267100024968386" lon="-0.299963001161814">
        <ele>204.41999999999999</ele>
        <time>2025-04-26T14:19:32Z</time>
      </trkpt>
      <trkpt lat="43.268267037346959" lon="-0.30117804184556">
        <ele>203.94</ele>
        <time>2025-04-26T14:19:39Z</time>
      </trkpt>
      <trkpt lat="43.269445030018687" lon="-0.302516967058182">
        <ele>203.94</ele>
        <time>2025-04-26T14:19:45Z</time>
      </trkpt>
      <trkpt lat="43.270650012418628" lon="-0.30397298745811">
        <ele>204.41999999999999</ele>
        <time>2025-04-26T14:19:53Z</time>
      </trkpt>
      <trkpt lat="43.271959014236927" lon="-0.305554987862706">
        <ele>205.38</ele>
        <time>2025-04-26T14:20:02Z</time>
      </trkpt>
      <trkpt lat="43.272093962877989" lon="-0.30573695898056">
        <ele>205.86000000000001</ele>
        <time>2025-04-26T14:20:03Z</time>
      </trkpt>
      <trkpt lat="43.272884041070938" lon="-0.306875975802541">
        <ele>205.86000000000001</ele>
        <time>2025-04-26T14:20:10Z</time>
      </trkpt>
      <trkpt lat="43.273360971361399" lon="-0.307419039309025">
        <ele>206.81999999999999</ele>
        <time>2025-04-26T14:20:15Z</time>
      </trkpt>
      <trkpt lat="43.273540008813143" lon="-0.307543007656932">
        <ele>206.81999999999999</ele>
        <time>2025-04-26T14:20:17Z</time>
      </trkpt>
      <trkpt lat="43.273638999089599" lon="-0.307648032903671">
        <ele>206.81999999999999</ele>
        <time>2025-04-26T14:20:18Z</time>
      </trkpt>
      <trkpt lat="43.273665988817811" lon="-0.307783987373114">
        <ele>206.81999999999999</ele>
        <time>2025-04-26T14:20:19Z</time>
      </trkpt>
      <trkpt lat="43.273670012131333" lon="-0.307911979034543">
        <ele>206.81999999999999</ele>
        <time>2025-04-26T14:20:20Z</time>
      </trkpt>
      <trkpt lat="43.273699013516307" lon="-0.308061009272933">
        <ele>206.81999999999999</ele>
        <time>2025-04-26T14:20:21Z</time>
      </trkpt>
      <trkpt lat="43.273789035156369" lon="-0.30839997343719">
        <ele>206.81999999999999</ele>
        <time>2025-04-26T14:20:23Z</time>
      </trkpt>
      <trkpt lat="43.273868998512626" lon="-0.308559983968735">
        <ele>206.81999999999999</ele>
        <time>2025-04-26T14:20:24Z</time>
      </trkpt>
      <trkpt lat="43.274740967899561" lon="-0.310303000733256">
        <ele>207.30000000000001</ele>
        <time>2025-04-26T14:20:33Z</time>
      </trkpt>
      <trkpt lat="43.27587797306478" lon="-0.312296971678734">
        <ele>205.38</ele>
        <time>2025-04-26T14:20:42Z</time>
      </trkpt>
      <trkpt lat="43.277069041505456" lon="-0.31353397294879">
        <ele>209.69999999999999</ele>
        <time>2025-04-26T14:20:49Z</time>
      </trkpt>
      <trkpt lat="43.278602007776499" lon="-0.314440978690982">
        <ele>222.68000000000001</ele>
        <time>2025-04-26T14:20:56Z</time>
      </trkpt>
      <trkpt lat="43.280967967584729" lon="-0.315122008323669">
        <ele>240.94999999999999</ele>
        <time>2025-04-26T14:21:06Z</time>
      </trkpt>
      <trkpt lat="43.282496994361281" lon="-0.315778981894255">
        <ele>245.75</ele>
        <time>2025-04-26T14:21:13Z</time>
      </trkpt>
      <trkpt lat="43.283515982329845" lon="-0.316995028406382">
        <ele>245.27000000000001</ele>
        <time>2025-04-26T14:21:19Z</time>
      </trkpt>
      <trkpt lat="43.284098021686077" lon="-0.31847502104938">
        <ele>245.27000000000001</ele>
        <time>2025-04-26T14:21:25Z</time>
      </trkpt>
      <trkpt lat="43.2850949652493" lon="-0.321993995457888">
        <ele>238.53999999999999</ele>
        <time>2025-04-26T14:21:40Z</time>
      </trkpt>
      <trkpt lat="43.285875990986824" lon="-0.324739990755916">
        <ele>224.12</ele>
        <time>2025-04-26T14:21:50Z</time>
      </trkpt>
      <trkpt lat="43.28681300394237" lon="-0.327954031527042">
        <ele>214.03</ele>
        <time>2025-04-26T14:22:02Z</time>
      </trkpt>
      <trkpt lat="43.287234026938677" lon="-0.329886982217431">
        <ele>211.63</ele>
        <time>2025-04-26T14:22:10Z</time>
      </trkpt>
      <trkpt lat="43.287505013868213" lon="-0.331809036433697">
        <ele>210.19</ele>
        <time>2025-04-26T14:22:19Z</time>
      </trkpt>
      <trkpt lat="43.287550024688244" lon="-0.331918001174927">
        <ele>209.69999999999999</ele>
        <time>2025-04-26T14:22:21Z</time>
      </trkpt>
      <trkpt lat="43.287652032449841" lon="-0.332136014476419">
        <ele>210.19</ele>
        <time>2025-04-26T14:22:23Z</time>
      </trkpt>
      <trkpt lat="43.287710035219789" lon="-0.332187982276082">
        <ele>209.69999999999999</ele>
        <time>2025-04-26T14:22:24Z</time>
      </trkpt>
      <trkpt lat="43.287781029939651" lon="-0.332249002531171">
        <ele>210.19</ele>
        <time>2025-04-26T14:22:25Z</time>
      </trkpt>
      <trkpt lat="43.287826040759683" lon="-0.332378000020981">
        <ele>210.19</ele>
        <time>2025-04-26T14:22:26Z</time>
      </trkpt>
      <trkpt lat="43.287845989689231" lon="-0.332486964762211">
        <ele>210.19</ele>
        <time>2025-04-26T14:22:27Z</time>
      </trkpt>
      <trkpt lat="43.287813970819116" lon="-0.332588972523808">
        <ele>210.19</ele>
        <time>2025-04-26T14:22:28Z</time>
      </trkpt>
      <trkpt lat="43.287771977484226" lon="-0.332683017477393">
        <ele>209.22</ele>
        <time>2025-04-26T14:22:29Z</time>
      </trkpt>
      <trkpt lat="43.287708023563027" lon="-0.332721993327141">
        <ele>209.22</ele>
        <time>2025-04-26T14:22:30Z</time>
      </trkpt>
      <trkpt lat="43.287577014416456" lon="-0.3328069858253">
        <ele>208.25999999999999</ele>
        <time>2025-04-26T14:22:31Z</time>
      </trkpt>
      <trkpt lat="43.287532003596425" lon="-0.332927014678717">
        <ele>208.25999999999999</ele>
        <time>2025-04-26T14:22:32Z</time>
      </trkpt>
      <trkpt lat="43.287482969462872" lon="-0.333056012168527">
        <ele>207.78</ele>
        <time>2025-04-26T14:22:33Z</time>
      </trkpt>
      <trkpt lat="43.287429995834827" lon="-0.333198001608253">
        <ele>207.78</ele>
        <time>2025-04-26T14:22:34Z</time>
      </trkpt>
      <trkpt lat="43.287405017763376" lon="-0.333400005474687">
        <ele>207.78</ele>
        <time>2025-04-26T14:22:35Z</time>
      </trkpt>
      <trkpt lat="43.28741499222815" lon="-0.333593962714076">
        <ele>207.78</ele>
        <time>2025-04-26T14:22:36Z</time>
      </trkpt>
      <trkpt lat="43.287436030805111" lon="-0.333809964358807">
        <ele>207.30000000000001</ele>
        <time>2025-04-26T14:22:37Z</time>
      </trkpt>
      <trkpt lat="43.287469977512956" lon="-0.334028983488679">
        <ele>206.81999999999999</ele>
        <time>2025-04-26T14:22:38Z</time>
      </trkpt>
      <trkpt lat="43.287507025524974" lon="-0.334260994568467">
        <ele>206.81999999999999</ele>
        <time>2025-04-26T14:22:39Z</time>
      </trkpt>
      <trkpt lat="43.287780024111271" lon="-0.336453029885888">
        <ele>206.34</ele>
        <time>2025-04-26T14:22:47Z</time>
      </trkpt>
      <trkpt lat="43.287827968597412" lon="-0.337893962860107">
        <ele>207.30000000000001</ele>
        <time>2025-04-26T14:22:52Z</time>
      </trkpt>
      <trkpt lat="43.287783963605762" lon="-0.338152963668108">
        <ele>207.78</ele>
        <time>2025-04-26T14:22:53Z</time>
      </trkpt>
      <trkpt lat="43.287738030776381" lon="-0.338421016931534">
        <ele>207.78</ele>
        <time>2025-04-26T14:22:54Z</time>
      </trkpt>
      <trkpt lat="43.287694025784731" lon="-0.338681023567915">
        <ele>207.78</ele>
        <time>2025-04-26T14:22:55Z</time>
      </trkpt>
      <trkpt lat="43.287633005529642" lon="-0.338927032426">
        <ele>208.25999999999999</ele>
        <time>2025-04-26T14:22:56Z</time>
      </trkpt>
      <trkpt lat="43.287552958354354" lon="-0.339168012142181">
        <ele>208.74000000000001</ele>
        <time>2025-04-26T14:22:57Z</time>
      </trkpt>
      <trkpt lat="43.287432007491589" lon="-0.339370016008615">
        <ele>209.22</ele>
        <time>2025-04-26T14:22:58Z</time>
      </trkpt>
      <trkpt lat="43.286837982013822" lon="-0.340311974287033">
        <ele>211.63</ele>
        <time>2025-04-26T14:23:03Z</time>
      </trkpt>
      <trkpt lat="43.285295041278005" lon="-0.342853032052517">
        <ele>210.66999999999999</ele>
        <time>2025-04-26T14:23:15Z</time>
      </trkpt>
      <trkpt lat="43.285198984667659" lon="-0.343035003170371">
        <ele>210.19</ele>
        <time>2025-04-26T14:23:16Z</time>
      </trkpt>
      <trkpt lat="43.285101000219584" lon="-0.34322502091527">
        <ele>210.19</ele>
        <time>2025-04-26T14:23:17Z</time>
      </trkpt>
      <trkpt lat="43.284935960546136" lon="-0.343832038342953">
        <ele>208.74000000000001</ele>
        <time>2025-04-26T14:23:21Z</time>
      </trkpt>
      <trkpt lat="43.284975020214915" lon="-0.344094978645444">
        <ele>208.25999999999999</ele>
        <time>2025-04-26T14:23:22Z</time>
      </trkpt>
      <trkpt lat="43.284976026043296" lon="-0.34410797059536">
        <ele>208.25999999999999</ele>
        <time>2025-04-26T14:23:23Z</time>
      </trkpt>
      <trkpt lat="43.284984994679689" lon="-0.344204027205706">
        <ele>208.25999999999999</ele>
        <time>2025-04-26T14:23:24Z</time>
      </trkpt>
      <trkpt lat="43.284995974972844" lon="-0.344309974461794">
        <ele>207.78</ele>
        <time>2025-04-26T14:23:25Z</time>
      </trkpt>
      <trkpt lat="43.284961022436619" lon="-0.344362026080489">
        <ele>207.30000000000001</ele>
        <time>2025-04-26T14:23:26Z</time>
      </trkpt>
      <trkpt lat="43.284909976646304" lon="-0.344438971951604">
        <ele>207.30000000000001</ele>
        <time>2025-04-26T14:23:27Z</time>
      </trkpt>
      <trkpt lat="43.284818027168512" lon="-0.34462203271687">
        <ele>207.30000000000001</ele>
        <time>2025-04-26T14:23:28Z</time>
      </trkpt>
      <trkpt lat="43.284810986369848" lon="-0.34479696303606">
        <ele>207.78</ele>
        <time>2025-04-26T14:23:29Z</time>
      </trkpt>
      <trkpt lat="43.284803023561835" lon="-0.345007013529539">
        <ele>208.25999999999999</ele>
        <time>2025-04-26T14:23:30Z</time>
      </trkpt>
      <trkpt lat="43.284803023561835" lon="-0.345231983810663">
        <ele>208.74000000000001</ele>
        <time>2025-04-26T14:23:31Z</time>
      </trkpt>
      <trkpt lat="43.284622980281711" lon="-0.347587969154119">
        <ele>206.34</ele>
        <time>2025-04-26T14:23:40Z</time>
      </trkpt>
      <trkpt lat="43.284420976415277" lon="-0.350032970309258">
        <ele>201.05000000000001</ele>
        <time>2025-04-26T14:23:49Z</time>
      </trkpt>
      <trkpt lat="43.284571012482047" lon="-0.351672973483801">
        <ele>197.21000000000001</ele>
        <time>2025-04-26T14:23:55Z</time>
      </trkpt>
      <trkpt lat="43.284508986398578" lon="-0.353267965838313">
        <ele>191.91999999999999</ele>
        <time>2025-04-26T14:24:01Z</time>
      </trkpt>
      <trkpt lat="43.284441009163857" lon="-0.353523027151823">
        <ele>191.44</ele>
        <time>2025-04-26T14:24:02Z</time>
      </trkpt>
      <trkpt lat="43.284368002787232" lon="-0.353784039616585">
        <ele>190.96000000000001</ele>
        <time>2025-04-26T14:24:03Z</time>
      </trkpt>
      <trkpt lat="43.284288039430976" lon="-0.354072963818908">
        <ele>190</ele>
        <time>2025-04-26T14:24:04Z</time>
      </trkpt>
      <trkpt lat="43.284185025840998" lon="-0.354278990998864">
        <ele>189.03999999999999</ele>
        <time>2025-04-26T14:24:05Z</time>
      </trkpt>
      <trkpt lat="43.283655038103461" lon="-0.355135034769773">
        <ele>186.63</ele>
        <time>2025-04-26T14:24:09Z</time>
      </trkpt>
      <trkpt lat="43.283496033400297" lon="-0.355307031422853">
        <ele>185.66999999999999</ele>
        <time>2025-04-26T14:24:10Z</time>
      </trkpt>
      <trkpt lat="43.282024003565311" lon="-0.356503967195749">
        <ele>182.78999999999999</ele>
        <time>2025-04-26T14:24:19Z</time>
      </trkpt>
      <trkpt lat="43.281352026388049" lon="-0.357044013217092">
        <ele>182.78999999999999</ele>
        <time>2025-04-26T14:24:25Z</time>
      </trkpt>
      <trkpt lat="43.281106017529964" lon="-0.357245011255145">
        <ele>182.78999999999999</ele>
        <time>2025-04-26T14:24:29Z</time>
      </trkpt>
      <trkpt lat="43.281009960919619" lon="-0.357323968783021">
        <ele>182.31</ele>
        <time>2025-04-26T14:24:31Z</time>
      </trkpt>
      <trkpt lat="43.280964028090239" lon="-0.35736202262342">
        <ele>182.31</ele>
        <time>2025-04-26T14:24:32Z</time>
      </trkpt>
      <trkpt lat="43.280940977856517" lon="-0.357570983469486">
        <ele>182.31</ele>
        <time>2025-04-26T14:24:33Z</time>
      </trkpt>
      <trkpt lat="43.280878029763699" lon="-0.357696041464806">
        <ele>182.78999999999999</ele>
        <time>2025-04-26T14:24:36Z</time>
      </trkpt>
      <trkpt lat="43.280801000073552" lon="-0.357737028971314">
        <ele>182.31</ele>
        <time>2025-04-26T14:24:37Z</time>
      </trkpt>
      <trkpt lat="43.280790019780397" lon="-0.357741974294186">
        <ele>182.31</ele>
        <time>2025-04-26T14:24:38Z</time>
      </trkpt>
      <trkpt lat="43.280621962621808" lon="-0.357801988720894">
        <ele>182.31</ele>
        <time>2025-04-26T14:24:39Z</time>
      </trkpt>
      <trkpt lat="43.280557002872229" lon="-0.357897039502859">
        <ele>182.78999999999999</ele>
        <time>2025-04-26T14:24:40Z</time>
      </trkpt>
      <trkpt lat="43.280483996495605" lon="-0.357998041436076">
        <ele>183.27000000000001</ele>
        <time>2025-04-26T14:24:41Z</time>
      </trkpt>
      <trkpt lat="43.28041099011898" lon="-0.358098037540913">
        <ele>183.27000000000001</ele>
        <time>2025-04-26T14:24:42Z</time>
      </trkpt>
      <trkpt lat="43.279476994648576" lon="-0.359377032145858">
        <ele>184.71000000000001</ele>
        <time>2025-04-26T14:24:53Z</time>
      </trkpt>
      <trkpt lat="43.279047003015876" lon="-0.359964016824961">
        <ele>185.66999999999999</ele>
        <time>2025-04-26T14:25:00Z</time>
      </trkpt>
      <trkpt lat="43.278893027454615" lon="-0.360198961570859">
        <ele>186.15000000000001</ele>
        <time>2025-04-26T14:25:09Z</time>
      </trkpt>
      <trkpt lat="43.278858996927738" lon="-0.360261993482709">
        <ele>186.15000000000001</ele>
        <time>2025-04-26T14:25:13Z</time>
      </trkpt>
      <trkpt lat="43.2788419816643" lon="-0.360294012352824">
        <ele>186.15000000000001</ele>
        <time>2025-04-26T14:25:14Z</time>
      </trkpt>
      <trkpt lat="43.278809962794185" lon="-0.360353020951152">
        <ele>186.15000000000001</ele>
        <time>2025-04-26T14:25:16Z</time>
      </trkpt>
      <trkpt lat="43.278794959187508" lon="-0.360382022336125">
        <ele>186.15000000000001</ele>
        <time>2025-04-26T14:25:17Z</time>
      </trkpt>
      <trkpt lat="43.278784984722733" lon="-0.360600035637617">
        <ele>186.15000000000001</ele>
        <time>2025-04-26T14:25:19Z</time>
      </trkpt>
      <trkpt lat="43.278756989166141" lon="-0.360670024529099">
        <ele>186.15000000000001</ele>
        <time>2025-04-26T14:25:20Z</time>
      </trkpt>
      <trkpt lat="43.278661016374826" lon="-0.360695002600551">
        <ele>186.15000000000001</ele>
        <time>2025-04-26T14:25:21Z</time>
      </trkpt>
      <trkpt lat="43.278516009449959" lon="-0.360704977065325">
        <ele>185.66999999999999</ele>
        <time>2025-04-26T14:25:23Z</time>
      </trkpt>
      <trkpt lat="43.278430011123419" lon="-0.360750993713737">
        <ele>185.66999999999999</ele>
        <time>2025-04-26T14:25:24Z</time>
      </trkpt>
      <trkpt lat="43.278333032503724" lon="-0.360802039504051">
        <ele>185.66999999999999</ele>
        <time>2025-04-26T14:25:25Z</time>
      </trkpt>
      <trkpt lat="43.278220966458321" lon="-0.360874040052295">
        <ele>185.66999999999999</ele>
        <time>2025-04-26T14:25:26Z</time>
      </trkpt>
      <trkpt lat="43.278136979788542" lon="-0.360980993136764">
        <ele>185.66999999999999</ele>
        <time>2025-04-26T14:25:27Z</time>
      </trkpt>
      <trkpt lat="43.27804796397686" lon="-0.361093981191516">
        <ele>185.66999999999999</ele>
        <time>2025-04-26T14:25:28Z</time>
      </trkpt>
      <trkpt lat="43.277563992887735" lon="-0.361800994724035">
        <ele>185.66999999999999</ele>
        <time>2025-04-26T14:25:33Z</time>
      </trkpt>
      <trkpt lat="43.277475982904434" lon="-0.36198103800416">
        <ele>185.66999999999999</ele>
        <time>2025-04-26T14:25:34Z</time>
      </trkpt>
      <trkpt lat="43.277386967092752" lon="-0.362166026607156">
        <ele>186.15000000000001</ele>
        <time>2025-04-26T14:25:35Z</time>
      </trkpt>
      <trkpt lat="43.277340028434992" lon="-0.362389991059899">
        <ele>186.15000000000001</ele>
        <time>2025-04-26T14:25:36Z</time>
      </trkpt>
      <trkpt lat="43.277299040928483" lon="-0.362614039331675">
        <ele>186.15000000000001</ele>
        <time>2025-04-26T14:25:37Z</time>
      </trkpt>
      <trkpt lat="43.277256041765213" lon="-0.36284202709794">
        <ele>186.63</ele>
        <time>2025-04-26T14:25:38Z</time>
      </trkpt>
      <trkpt lat="43.277213964611292" lon="-0.363070014864206">
        <ele>187.11000000000001</ele>
        <time>2025-04-26T14:25:39Z</time>
      </trkpt>
      <trkpt lat="43.277218993753195" lon="-0.363558009266853">
        <ele>187.59</ele>
        <time>2025-04-26T14:25:41Z</time>
      </trkpt>
      <trkpt lat="43.277226034551859" lon="-0.363802006468177">
        <ele>188.08000000000001</ele>
        <time>2025-04-26T14:25:42Z</time>
      </trkpt>
      <trkpt lat="43.277265010401607" lon="-0.364042986184359">
        <ele>188.08000000000001</ele>
        <time>2025-04-26T14:25:43Z</time>
      </trkpt>
      <trkpt lat="43.277314966544509" lon="-0.364270973950624">
        <ele>188.08000000000001</ele>
        <time>2025-04-26T14:25:44Z</time>
      </trkpt>
      <trkpt lat="43.277372969314456" lon="-0.364499967545271">
        <ele>188.08000000000001</ele>
        <time>2025-04-26T14:25:45Z</time>
      </trkpt>
      <trkpt lat="43.277452010661364" lon="-0.364714963361621">
        <ele>188.56</ele>
        <time>2025-04-26T14:25:46Z</time>
      </trkpt>
      <trkpt lat="43.27753096818924" lon="-0.364929037168622">
        <ele>188.56</ele>
        <time>2025-04-26T14:25:47Z</time>
      </trkpt>
      <trkpt lat="43.278283998370171" lon="-0.366821000352502">
        <ele>189.03999999999999</ele>
        <time>2025-04-26T14:25:56Z</time>
      </trkpt>
      <trkpt lat="43.278450965881348" lon="-0.36750596947968">
        <ele>188.56</ele>
        <time>2025-04-26T14:25:59Z</time>
      </trkpt>
      <trkpt lat="43.278478961437941" lon="-0.367710990831256">
        <ele>188.56</ele>
        <time>2025-04-26T14:26:00Z</time>
      </trkpt>
      <trkpt lat="43.278509974479675" lon="-0.367937972769141">
        <ele>188.08000000000001</ele>
        <time>2025-04-26T14:26:01Z</time>
      </trkpt>
      <trkpt lat="43.278589015826583" lon="-0.369777968153358">
        <ele>185.66999999999999</ele>
        <time>2025-04-26T14:26:09Z</time>
      </trkpt>
      <trkpt lat="43.278677025809884" lon="-0.371773028746247">
        <ele>185.19</ele>
        <time>2025-04-26T14:26:18Z</time>
      </trkpt>
      <trkpt lat="43.278971984982491" lon="-0.373849980533123">
        <ele>187.11000000000001</ele>
        <time>2025-04-26T14:26:28Z</time>
      </trkpt>
      <trkpt lat="43.279111040756106" lon="-0.374635029584169">
        <ele>186.63</ele>
        <time>2025-04-26T14:26:33Z</time>
      </trkpt>
      <trkpt lat="43.279119003564119" lon="-0.374727984890342">
        <ele>186.63</ele>
        <time>2025-04-26T14:26:34Z</time>
      </trkpt>
      <trkpt lat="43.279124032706022" lon="-0.374801997095346">
        <ele>186.63</ele>
        <time>2025-04-26T14:26:35Z</time>
      </trkpt>
      <trkpt lat="43.27914297580719" lon="-0.375044988468289">
        <ele>186.15000000000001</ele>
        <time>2025-04-26T14:26:39Z</time>
      </trkpt>
      <trkpt lat="43.279146999120712" lon="-0.375110032036901">
        <ele>186.63</ele>
        <time>2025-04-26T14:26:40Z</time>
      </trkpt>
      <trkpt lat="43.279152028262615" lon="-0.375191001221538">
        <ele>186.15000000000001</ele>
        <time>2025-04-26T14:26:41Z</time>
      </trkpt>
      <trkpt lat="43.279156973585486" lon="-0.375279011204839">
        <ele>186.15000000000001</ele>
        <time>2025-04-26T14:26:42Z</time>
      </trkpt>
      <trkpt lat="43.279267027974129" lon="-0.375338019803166">
        <ele>186.15000000000001</ele>
        <time>2025-04-26T14:26:43Z</time>
      </trkpt>
      <trkpt lat="43.27931497246027" lon="-0.375419994816184">
        <ele>186.15000000000001</ele>
        <time>2025-04-26T14:26:44Z</time>
      </trkpt>
      <trkpt lat="43.279326958581805" lon="-0.375502975657582">
        <ele>186.63</ele>
        <time>2025-04-26T14:26:45Z</time>
      </trkpt>
      <trkpt lat="43.27929301187396" lon="-0.375585034489632">
        <ele>186.63</ele>
        <time>2025-04-26T14:26:46Z</time>
      </trkpt>
      <trkpt lat="43.279248001053929" lon="-0.37564798258245">
        <ele>186.15000000000001</ele>
        <time>2025-04-26T14:26:47Z</time>
      </trkpt>
      <trkpt lat="43.279224028810859" lon="-0.375681007280946">
        <ele>185.66999999999999</ele>
        <time>2025-04-26T14:26:48Z</time>
      </trkpt>
      <trkpt lat="43.279058989137411" lon="-0.375632978975773">
        <ele>185.66999999999999</ele>
        <time>2025-04-26T14:26:49Z</time>
      </trkpt>
      <trkpt lat="43.278996963053942" lon="-0.375701962038875">
        <ele>185.19</ele>
        <time>2025-04-26T14:26:50Z</time>
      </trkpt>
      <trkpt lat="43.278925968334079" lon="-0.375783015042543">
        <ele>185.19</ele>
        <time>2025-04-26T14:26:51Z</time>
      </trkpt>
      <trkpt lat="43.278863020241261" lon="-0.375907989218831">
        <ele>185.19</ele>
        <time>2025-04-26T14:26:52Z</time>
      </trkpt>
      <trkpt lat="43.278811974450946" lon="-0.37603598088026">
        <ele>185.19</ele>
        <time>2025-04-26T14:26:53Z</time>
      </trkpt>
      <trkpt lat="43.278766041621566" lon="-0.376176964491606">
        <ele>185.66999999999999</ele>
        <time>2025-04-26T14:26:54Z</time>
      </trkpt>
      <trkpt lat="43.278742991387844" lon="-0.376323983073235">
        <ele>185.66999999999999</ele>
        <time>2025-04-26T14:26:55Z</time>
      </trkpt>
      <trkpt lat="43.278718013316393" lon="-0.376477036625147">
        <ele>185.66999999999999</ele>
        <time>2025-04-26T14:26:56Z</time>
      </trkpt>
      <trkpt lat="43.278693035244942" lon="-0.37663503549993">
        <ele>185.66999999999999</ele>
        <time>2025-04-26T14:26:57Z</time>
      </trkpt>
      <trkpt lat="43.278688006103039" lon="-0.376802003011107">
        <ele>185.66999999999999</ele>
        <time>2025-04-26T14:26:58Z</time>
      </trkpt>
      <trkpt lat="43.278688006103039" lon="-0.376976011320949">
        <ele>185.66999999999999</ele>
        <time>2025-04-26T14:26:59Z</time>
      </trkpt>
      <trkpt lat="43.278688006103039" lon="-0.377162005752325">
        <ele>185.66999999999999</ele>
        <time>2025-04-26T14:27:00Z</time>
      </trkpt>
      <trkpt lat="43.278688006103039" lon="-0.377375995740294">
        <ele>185.66999999999999</ele>
        <time>2025-04-26T14:27:01Z</time>
      </trkpt>
      <trkpt lat="43.278987994417548" lon="-0.378792034462094">
        <ele>185.66999999999999</ele>
        <time>2025-04-26T14:27:09Z</time>
      </trkpt>
      <trkpt lat="43.279245989397168" lon="-0.37970800884068">
        <ele>185.66999999999999</ele>
        <time>2025-04-26T14:27:17Z</time>
      </trkpt>
      <trkpt lat="43.279282031580806" lon="-0.379776991903782">
        <ele>185.66999999999999</ele>
        <time>2025-04-26T14:27:18Z</time>
      </trkpt>
      <trkpt lat="43.279320001602173" lon="-0.379847986623645">
        <ele>185.66999999999999</ele>
        <time>2025-04-26T14:27:19Z</time>
      </trkpt>
      <trkpt lat="43.279361994937062" lon="-0.379929039627314">
        <ele>185.66999999999999</ele>
        <time>2025-04-26T14:27:20Z</time>
      </trkpt>
      <trkpt lat="43.279494009912014" lon="-0.380078991875052">
        <ele>185.66999999999999</ele>
        <time>2025-04-26T14:27:22Z</time>
      </trkpt>
      <trkpt lat="43.279522005468607" lon="-0.38017999380827">
        <ele>185.66999999999999</ele>
        <time>2025-04-26T14:27:23Z</time>
      </trkpt>
      <trkpt lat="43.279483029618859" lon="-0.380322989076376">
        <ele>185.66999999999999</ele>
        <time>2025-04-26T14:27:24Z</time>
      </trkpt>
      <trkpt lat="43.279512031003833" lon="-0.380451986566186">
        <ele>185.66999999999999</ele>
        <time>2025-04-26T14:27:25Z</time>
      </trkpt>
      <trkpt lat="43.279542960226536" lon="-0.380593976005912">
        <ele>185.19</ele>
        <time>2025-04-26T14:27:26Z</time>
      </trkpt>
      <trkpt lat="43.279581014066935" lon="-0.380736971274018">
        <ele>184.71000000000001</ele>
        <time>2025-04-26T14:27:27Z</time>
      </trkpt>
      <trkpt lat="43.280116030946374" lon="-0.382277984172106">
        <ele>184.22999999999999</ele>
        <time>2025-04-26T14:27:37Z</time>
      </trkpt>
      <trkpt lat="43.280735034495592" lon="-0.384497009217739">
        <ele>185.19</ele>
        <time>2025-04-26T14:27:49Z</time>
      </trkpt>
      <trkpt lat="43.280975008383393" lon="-0.386000974103808">
        <ele>185.66999999999999</ele>
        <time>2025-04-26T14:27:59Z</time>
      </trkpt>
      <trkpt lat="43.281138958409429" lon="-0.386502966284752">
        <ele>186.63</ele>
        <time>2025-04-26T14:28:06Z</time>
      </trkpt>
      <trkpt lat="43.281187992542982" lon="-0.386630035936832">
        <ele>187.11000000000001</ele>
        <time>2025-04-26T14:28:16Z</time>
      </trkpt>
      <trkpt lat="43.281305003911257" lon="-0.386955002322793">
        <ele>187.11000000000001</ele>
        <time>2025-04-26T14:28:24Z</time>
      </trkpt>
      <trkpt lat="43.281383039429784" lon="-0.387186007574201">
        <ele>187.59</ele>
        <time>2025-04-26T14:28:27Z</time>
      </trkpt>
      <trkpt lat="43.281443975865841" lon="-0.38737703114748">
        <ele>187.59</ele>
        <time>2025-04-26T14:28:30Z</time>
      </trkpt>
      <trkpt lat="43.281599041074514" lon="-0.387483984231949">
        <ele>187.59</ele>
        <time>2025-04-26T14:28:32Z</time>
      </trkpt>
      <trkpt lat="43.281453028321266" lon="-0.38748599588871">
        <ele>187.59</ele>
        <time>2025-04-26T14:28:33Z</time>
      </trkpt>
      <trkpt lat="43.281393013894558" lon="-0.387493958696723">
        <ele>187.11000000000001</ele>
        <time>2025-04-26T14:28:34Z</time>
      </trkpt>
      <trkpt lat="43.280401015654206" lon="-0.387632008641958">
        <ele>185.66999999999999</ele>
        <time>2025-04-26T14:28:44Z</time>
      </trkpt>
      <trkpt lat="43.279187986627221" lon="-0.387780033051968">
        <ele>185.66999999999999</ele>
        <time>2025-04-26T14:28:54Z</time>
      </trkpt>
      <trkpt lat="43.279015989974141" lon="-0.387868965044618">
        <ele>186.15000000000001</ele>
        <time>2025-04-26T14:28:56Z</time>
      </trkpt>
      <trkpt lat="43.278953963890672" lon="-0.387907018885016">
        <ele>186.63</ele>
        <time>2025-04-26T14:28:57Z</time>
      </trkpt>
      <trkpt lat="43.278891015797853" lon="-0.388019001111388">
        <ele>187.11000000000001</ele>
        <time>2025-04-26T14:28:59Z</time>
      </trkpt>
      <trkpt lat="43.278837958350778" lon="-0.388126038014889">
        <ele>187.59</ele>
        <time>2025-04-26T14:29:00Z</time>
      </trkpt>
      <trkpt lat="43.278837958350778" lon="-0.388170965015888">
        <ele>187.59</ele>
        <time>2025-04-26T14:29:01Z</time>
      </trkpt>
      <trkpt lat="43.278837958350778" lon="-0.388281019404531">
        <ele>188.08000000000001</ele>
        <time>2025-04-26T14:29:02Z</time>
      </trkpt>
      <trkpt lat="43.278837958350778" lon="-0.38840901106596">
        <ele>188.08000000000001</ele>
        <time>2025-04-26T14:29:03Z</time>
      </trkpt>
      <trkpt lat="43.278855979442596" lon="-0.388670023530722">
        <ele>188.08000000000001</ele>
        <time>2025-04-26T14:29:05Z</time>
      </trkpt>
      <trkpt lat="43.27890501357615" lon="-0.38879700936377">
        <ele>188.56</ele>
        <time>2025-04-26T14:29:06Z</time>
      </trkpt>
      <trkpt lat="43.278963016346097" lon="-0.388913014903665">
        <ele>188.56</ele>
        <time>2025-04-26T14:29:07Z</time>
      </trkpt>
      <trkpt lat="43.279062006622553" lon="-0.389046035706997">
        <ele>188.56</ele>
        <time>2025-04-26T14:29:08Z</time>
      </trkpt>
      <trkpt lat="43.279170971363783" lon="-0.389130022376776">
        <ele>188.56</ele>
        <time>2025-04-26T14:29:09Z</time>
      </trkpt>
      <trkpt lat="43.279410023242235" lon="-0.389331020414829">
        <ele>188.56</ele>
        <time>2025-04-26T14:29:11Z</time>
      </trkpt>
      <trkpt lat="43.279526028782129" lon="-0.389480972662568">
        <ele>188.56</ele>
        <time>2025-04-26T14:29:12Z</time>
      </trkpt>
      <trkpt lat="43.279646979644895" lon="-0.389636037871242">
        <ele>188.08000000000001</ele>
        <time>2025-04-26T14:29:13Z</time>
      </trkpt>
      <trkpt lat="43.280750038102269" lon="-0.391016034409404">
        <ele>185.66999999999999</ele>
        <time>2025-04-26T14:29:21Z</time>
      </trkpt>
      <trkpt lat="43.280908958986402" lon="-0.391149977222085">
        <ele>185.19</ele>
        <time>2025-04-26T14:29:22Z</time>
      </trkpt>
      <trkpt lat="43.281067041680217" lon="-0.391284003853798">
        <ele>184.71000000000001</ele>
        <time>2025-04-26T14:29:23Z</time>
      </trkpt>
      <trkpt lat="43.281861981377006" lon="-0.391902001574636">
        <ele>183.27000000000001</ele>
        <time>2025-04-26T14:29:28Z</time>
      </trkpt>
      <trkpt lat="43.282004976645112" lon="-0.392029993236065">
        <ele>183.27000000000001</ele>
        <time>2025-04-26T14:29:29Z</time>
      </trkpt>
      <trkpt lat="43.28345999121666" lon="-0.393668990582228">
        <ele>182.31</ele>
        <time>2025-04-26T14:29:39Z</time>
      </trkpt>
      <trkpt lat="43.284069020301104" lon="-0.394597034901381">
        <ele>182.31</ele>
        <time>2025-04-26T14:29:44Z</time>
      </trkpt>
      <trkpt lat="43.284604037180543" lon="-0.396135030314326">
        <ele>181.34999999999999</ele>
        <time>2025-04-26T14:29:52Z</time>
      </trkpt>
      <trkpt lat="43.284989017993212" lon="-0.397281004115939">
        <ele>181.83000000000001</ele>
        <time>2025-04-26T14:30:00Z</time>
      </trkpt>
      <trkpt lat="43.285385984927416" lon="-0.398458996787667">
        <ele>180.38</ele>
        <time>2025-04-26T14:30:08Z</time>
      </trkpt>
      <trkpt lat="43.285574996843934" lon="-0.399070037528872">
        <ele>181.34999999999999</ele>
        <time>2025-04-26T14:30:14Z</time>
      </trkpt>
      <trkpt lat="43.285626964643598" lon="-0.399224013090134">
        <ele>181.83000000000001</ele>
        <time>2025-04-26T14:30:17Z</time>
      </trkpt>
      <trkpt lat="43.285660995170474" lon="-0.399327026680112">
        <ele>181.83000000000001</ele>
        <time>2025-04-26T14:30:19Z</time>
      </trkpt>
      <trkpt lat="43.285811031237245" lon="-0.399390980601311">
        <ele>182.31</ele>
        <time>2025-04-26T14:30:20Z</time>
      </trkpt>
      <trkpt lat="43.285755040124059" lon="-0.399575969204307">
        <ele>182.78999999999999</ele>
        <time>2025-04-26T14:30:21Z</time>
      </trkpt>
      <trkpt lat="43.285947991535068" lon="-0.399855002760887">
        <ele>184.71000000000001</ele>
        <time>2025-04-26T14:30:24Z</time>
      </trkpt>
      <trkpt lat="43.286032984033227" lon="-0.39994896389544">
        <ele>185.19</ele>
        <time>2025-04-26T14:30:25Z</time>
      </trkpt>
      <trkpt lat="43.286112025380135" lon="-0.40003496222198">
        <ele>185.19</ele>
        <time>2025-04-26T14:30:26Z</time>
      </trkpt>
      <trkpt lat="43.28623398207128" lon="-0.400133030489087">
        <ele>185.19</ele>
        <time>2025-04-26T14:30:27Z</time>
      </trkpt>
      <trkpt lat="43.286345964297652" lon="-0.400225985795259">
        <ele>185.19</ele>
        <time>2025-04-26T14:30:28Z</time>
      </trkpt>
      <trkpt lat="43.287368975579739" lon="-0.401078006252646">
        <ele>184.71000000000001</ele>
        <time>2025-04-26T14:30:36Z</time>
      </trkpt>
      <trkpt lat="43.287487998604774" lon="-0.401180014014244">
        <ele>184.71000000000001</ele>
        <time>2025-04-26T14:30:37Z</time>
      </trkpt>
      <trkpt lat="43.288678983226418" lon="-0.402078973129392">
        <ele>181.34999999999999</ele>
        <time>2025-04-26T14:30:46Z</time>
      </trkpt>
      <trkpt lat="43.289768965914845" lon="-0.40325403213501">
        <ele>178.94</ele>
        <time>2025-04-26T14:30:54Z</time>
      </trkpt>
      <trkpt lat="43.290495006367564" lon="-0.404132036492229">
        <ele>177.5</ele>
        <time>2025-04-26T14:31:02Z</time>
      </trkpt>
      <trkpt lat="43.29089499078691" lon="-0.404581977054477">
        <ele>176.53999999999999</ele>
        <time>2025-04-26T14:31:10Z</time>
      </trkpt>
      <trkpt lat="43.291176036000252" lon="-0.404692031443119">
        <ele>175.58000000000001</ele>
        <time>2025-04-26T14:31:17Z</time>
      </trkpt>
      <trkpt lat="43.291176036000252" lon="-0.404692031443119">
        <ele>175.09999999999999</ele>
        <time>2025-04-26T14:31:18Z</time>
      </trkpt>
      <trkpt lat="43.291234960779548" lon="-0.404701000079513">
        <ele>175.09999999999999</ele>
        <time>2025-04-26T14:31:19Z</time>
      </trkpt>
      <trkpt lat="43.291338980197906" lon="-0.404797978699207">
        <ele>175.09999999999999</ele>
        <time>2025-04-26T14:31:20Z</time>
      </trkpt>
      <trkpt lat="43.291326994076371" lon="-0.404941979795694">
        <ele>175.09999999999999</ele>
        <time>2025-04-26T14:31:21Z</time>
      </trkpt>
      <trkpt lat="43.291283994913101" lon="-0.405084975063801">
        <ele>175.09999999999999</ele>
        <time>2025-04-26T14:31:22Z</time>
      </trkpt>
      <trkpt lat="43.291325988247991" lon="-0.405219001695514">
        <ele>175.09999999999999</ele>
        <time>2025-04-26T14:31:23Z</time>
      </trkpt>
      <trkpt lat="43.291377034038305" lon="-0.405378006398678">
        <ele>175.09999999999999</ele>
        <time>2025-04-26T14:31:24Z</time>
      </trkpt>
      <trkpt lat="43.291439982131124" lon="-0.405557965859771">
        <ele>174.62</ele>
        <time>2025-04-26T14:31:25Z</time>
      </trkpt>
      <trkpt lat="43.291508965194225" lon="-0.405751001089811">
        <ele>174.62</ele>
        <time>2025-04-26T14:31:26Z</time>
      </trkpt>
      <trkpt lat="43.291925964877009" lon="-0.407333001494408">
        <ele>173.66</ele>
        <time>2025-04-26T14:31:33Z</time>
      </trkpt>
      <trkpt lat="43.292590985074639" lon="-0.409669959917665">
        <ele>173.66</ele>
        <time>2025-04-26T14:31:42Z</time>
      </trkpt>
      <trkpt lat="43.293189033865929" lon="-0.411058003082871">
        <ele>174.62</ele>
        <time>2025-04-26T14:31:49Z</time>
      </trkpt>
      <trkpt lat="43.294098973274231" lon="-0.412757014855742">
        <ele>172.69</ele>
        <time>2025-04-26T14:31:59Z</time>
      </trkpt>
      <trkpt lat="43.294756030663848" lon="-0.413803998380899">
        <ele>170.77000000000001</ele>
        <time>2025-04-26T14:32:07Z</time>
      </trkpt>
      <trkpt lat="43.295501014217734" lon="-0.414383020251989">
        <ele>168.37</ele>
        <time>2025-04-26T14:32:14Z</time>
      </trkpt>
      <trkpt lat="43.295594975352287" lon="-0.414454014971852">
        <ele>167.88999999999999</ele>
        <time>2025-04-26T14:32:15Z</time>
      </trkpt>
      <trkpt lat="43.295758003368974" lon="-0.414575971662998">
        <ele>167.88999999999999</ele>
        <time>2025-04-26T14:32:17Z</time>
      </trkpt>
      <trkpt lat="43.295824974775314" lon="-0.414627017453313">
        <ele>167.41</ele>
        <time>2025-04-26T14:32:18Z</time>
      </trkpt>
      <trkpt lat="43.295894041657448" lon="-0.414647972211242">
        <ele>167.41</ele>
        <time>2025-04-26T14:32:19Z</time>
      </trkpt>
      <trkpt lat="43.295983979478478" lon="-0.414647972211242">
        <ele>166.93000000000001</ele>
        <time>2025-04-26T14:32:20Z</time>
      </trkpt>
      <trkpt lat="43.296083975583315" lon="-0.41470798663795">
        <ele>166.93000000000001</ele>
        <time>2025-04-26T14:32:21Z</time>
      </trkpt>
      <trkpt lat="43.296138038858771" lon="-0.41479398496449">
        <ele>166.93000000000001</ele>
        <time>2025-04-26T14:32:22Z</time>
      </trkpt>
      <trkpt lat="43.296153964474797" lon="-0.414915019646287">
        <ele>166.93000000000001</ele>
        <time>2025-04-26T14:32:23Z</time>
      </trkpt>
      <trkpt lat="43.296153964474797" lon="-0.415013004094362">
        <ele>167.41</ele>
        <time>2025-04-26T14:32:24Z</time>
      </trkpt>
      <trkpt lat="43.296110965311527" lon="-0.415176032111049">
        <ele>167.41</ele>
        <time>2025-04-26T14:32:25Z</time>
      </trkpt>
      <trkpt lat="43.296110965311527" lon="-0.415347022935748">
        <ele>167.41</ele>
        <time>2025-04-26T14:32:26Z</time>
      </trkpt>
      <trkpt lat="43.29639301635325" lon="-0.416820980608463">
        <ele>169.33000000000001</ele>
        <time>2025-04-26T14:32:33Z</time>
      </trkpt>
      <trkpt lat="43.296668026596308" lon="-0.417404025793076">
        <ele>170.77000000000001</ele>
        <time>2025-04-26T14:32:36Z</time>
      </trkpt>
      <trkpt lat="43.29678000882268" lon="-0.417571999132633">
        <ele>171.25</ele>
        <time>2025-04-26T14:32:37Z</time>
      </trkpt>
      <trkpt lat="43.297306979075074" lon="-0.418240036815405">
        <ele>172.21000000000001</ele>
        <time>2025-04-26T14:32:41Z</time>
      </trkpt>
      <trkpt lat="43.297456009313464" lon="-0.418412033468485">
        <ele>172.69</ele>
        <time>2025-04-26T14:32:42Z</time>
      </trkpt>
      <trkpt lat="43.297603027895093" lon="-0.418583024293184">
        <ele>172.69</ele>
        <time>2025-04-26T14:32:43Z</time>
      </trkpt>
      <trkpt lat="43.298266036435962" lon="-0.419557001441717">
        <ele>174.62</ele>
        <time>2025-04-26T14:32:48Z</time>
      </trkpt>
      <trkpt lat="43.298984030261636" lon="-0.421447036787868">
        <ele>176.06</ele>
        <time>2025-04-26T14:32:56Z</time>
      </trkpt>
      <trkpt lat="43.299929006025195" lon="-0.423920033499599">
        <ele>176.06</ele>
        <time>2025-04-26T14:33:06Z</time>
      </trkpt>
      <trkpt lat="43.300549015402794" lon="-0.426216004416347">
        <ele>173.66</ele>
        <time>2025-04-26T14:33:15Z</time>
      </trkpt>
      <trkpt lat="43.301075985655189" lon="-0.428187008947134">
        <ele>173.16999999999999</ele>
        <time>2025-04-26T14:33:23Z</time>
      </trkpt>
      <trkpt lat="43.301732959225774" lon="-0.430225990712643">
        <ele>174.13999999999999</ele>
        <time>2025-04-26T14:33:32Z</time>
      </trkpt>
      <trkpt lat="43.301929011940956" lon="-0.431155040860176">
        <ele>175.09999999999999</ele>
        <time>2025-04-26T14:33:36Z</time>
      </trkpt>
      <trkpt lat="43.302589002996683" lon="-0.433281026780605">
        <ele>176.53999999999999</ele>
        <time>2025-04-26T14:33:45Z</time>
      </trkpt>
      <trkpt lat="43.303536996245384" lon="-0.435598036274314">
        <ele>174.62</ele>
        <time>2025-04-26T14:33:55Z</time>
      </trkpt>
      <trkpt lat="43.304405026137829" lon="-0.437766015529633">
        <ele>171.72999999999999</ele>
        <time>2025-04-26T14:34:05Z</time>
      </trkpt>
      <trkpt lat="43.305362993851304" lon="-0.439600981771946">
        <ele>168.37</ele>
        <time>2025-04-26T14:34:14Z</time>
      </trkpt>
      <trkpt lat="43.30690199509263" lon="-0.442143967375159">
        <ele>164.03999999999999</ele>
        <time>2025-04-26T14:34:27Z</time>
      </trkpt>
      <trkpt lat="43.307510018348694" lon="-0.444002989679575">
        <ele>163.08000000000001</ele>
        <time>2025-04-26T14:34:35Z</time>
      </trkpt>
      <trkpt lat="43.308077976107597" lon="-0.446094023063779">
        <ele>162.59999999999999</ele>
        <time>2025-04-26T14:34:44Z</time>
      </trkpt>
      <trkpt lat="43.308365978300571" lon="-0.446779998019338">
        <ele>162.12</ele>
        <time>2025-04-26T14:34:48Z</time>
      </trkpt>
      <trkpt lat="43.308720029890537" lon="-0.447545014321804">
        <ele>162.12</ele>
        <time>2025-04-26T14:34:54Z</time>
      </trkpt>
      <trkpt lat="43.309043990448117" lon="-0.447960002347827">
        <ele>162.59999999999999</ele>
        <time>2025-04-26T14:34:58Z</time>
      </trkpt>
      <trkpt lat="43.309860974550247" lon="-0.448794001713395">
        <ele>163.56</ele>
        <time>2025-04-26T14:35:07Z</time>
      </trkpt>
      <trkpt lat="43.311109039932489" lon="-0.449774013832211">
        <ele>162.12</ele>
        <time>2025-04-26T14:35:19Z</time>
      </trkpt>
      <trkpt lat="43.312330031767488" lon="-0.450827032327652">
        <ele>161.16</ele>
        <time>2025-04-26T14:35:31Z</time>
      </trkpt>
      <trkpt lat="43.313525039702654" lon="-0.452385982498527">
        <ele>159.72</ele>
        <time>2025-04-26T14:35:44Z</time>
      </trkpt>
      <trkpt lat="43.314158963039517" lon="-0.453862035647035">
        <ele>159.72</ele>
        <time>2025-04-26T14:35:51Z</time>
      </trkpt>
      <trkpt lat="43.31480504013598" lon="-0.455618966370821">
        <ele>159.24000000000001</ele>
        <time>2025-04-26T14:36:00Z</time>
      </trkpt>
      <trkpt lat="43.315362017601728" lon="-0.456914976239204">
        <ele>158.27000000000001</ele>
        <time>2025-04-26T14:36:09Z</time>
      </trkpt>
      <trkpt lat="43.315390013158321" lon="-0.456974990665913">
        <ele>158.75</ele>
        <time>2025-04-26T14:36:10Z</time>
      </trkpt>
      <trkpt lat="43.315649013966322" lon="-0.457326024770737">
        <ele>159.24000000000001</ele>
        <time>2025-04-26T14:36:15Z</time>
      </trkpt>
      <trkpt lat="43.315615989267826" lon="-0.457542026415467">
        <ele>159.24000000000001</ele>
        <time>2025-04-26T14:36:16Z</time>
      </trkpt>
      <trkpt lat="43.315641973167658" lon="-0.457629030570388">
        <ele>159.24000000000001</ele>
        <time>2025-04-26T14:36:17Z</time>
      </trkpt>
      <trkpt lat="43.315685978159308" lon="-0.457775965332985">
        <ele>159.24000000000001</ele>
        <time>2025-04-26T14:36:18Z</time>
      </trkpt>
      <trkpt lat="43.315733000636101" lon="-0.45793597586453">
        <ele>159.24000000000001</ele>
        <time>2025-04-26T14:36:19Z</time>
      </trkpt>
      <trkpt lat="43.315783040598035" lon="-0.4581050388515">
        <ele>159.24000000000001</ele>
        <time>2025-04-26T14:36:20Z</time>
      </trkpt>
      <trkpt lat="43.316382011398673" lon="-0.460116025060415">
        <ele>159.24000000000001</ele>
        <time>2025-04-26T14:36:30Z</time>
      </trkpt>
      <trkpt lat="43.317134035751224" lon="-0.461902040988207">
        <ele>157.78999999999999</ele>
        <time>2025-04-26T14:36:39Z</time>
      </trkpt>
      <trkpt lat="43.318023020401597" lon="-0.463060000911355">
        <ele>155.87</ele>
        <time>2025-04-26T14:36:47Z</time>
      </trkpt>
      <trkpt lat="43.319196989759803" lon="-0.464206980541348">
        <ele>152.99000000000001</ele>
        <time>2025-04-26T14:36:54Z</time>
      </trkpt>
      <trkpt lat="43.320540022104979" lon="-0.465480023995042">
        <ele>151.53999999999999</ele>
        <time>2025-04-26T14:37:02Z</time>
      </trkpt>
      <trkpt lat="43.322442965582013" lon="-0.467309039086103">
        <ele>151.53999999999999</ele>
        <time>2025-04-26T14:37:15Z</time>
      </trkpt>
      <trkpt lat="43.322571041062474" lon="-0.467433007434011">
        <ele>151.53999999999999</ele>
        <time>2025-04-26T14:37:16Z</time>
      </trkpt>
      <trkpt lat="43.323978027328849" lon="-0.468748966231942">
        <ele>149.62</ele>
        <time>2025-04-26T14:37:26Z</time>
      </trkpt>
      <trkpt lat="43.325092988088727" lon="-0.469788992777467">
        <ele>150.09999999999999</ele>
        <time>2025-04-26T14:37:35Z</time>
      </trkpt>
      <trkpt lat="43.325217040255666" lon="-0.469849007204175">
        <ele>149.62</ele>
        <time>2025-04-26T14:37:36Z</time>
      </trkpt>
      <trkpt lat="43.325332961976528" lon="-0.469888988882303">
        <ele>149.62</ele>
        <time>2025-04-26T14:37:37Z</time>
      </trkpt>
      <trkpt lat="43.3257229719311" lon="-0.469980016350746">
        <ele>149.62</ele>
        <time>2025-04-26T14:37:41Z</time>
      </trkpt>
      <trkpt lat="43.325823973864317" lon="-0.469981022179127">
        <ele>150.09999999999999</ele>
        <time>2025-04-26T14:37:42Z</time>
      </trkpt>
      <trkpt lat="43.326022960245609" lon="-0.469901980832219">
        <ele>150.09999999999999</ele>
        <time>2025-04-26T14:37:44Z</time>
      </trkpt>
      <trkpt lat="43.326094038784504" lon="-0.469922013580799">
        <ele>150.09999999999999</ele>
        <time>2025-04-26T14:37:45Z</time>
      </trkpt>
      <trkpt lat="43.326185988262296" lon="-0.469959983602166">
        <ele>149.62</ele>
        <time>2025-04-26T14:37:46Z</time>
      </trkpt>
      <trkpt lat="43.326253965497017" lon="-0.470041036605835">
        <ele>149.62</ele>
        <time>2025-04-26T14:37:47Z</time>
      </trkpt>
      <trkpt lat="43.326293025165796" lon="-0.470166010782123">
        <ele>149.13999999999999</ele>
        <time>2025-04-26T14:37:48Z</time>
      </trkpt>
      <trkpt lat="43.326310040429235" lon="-0.470292996615171">
        <ele>149.13999999999999</ele>
        <time>2025-04-26T14:37:49Z</time>
      </trkpt>
      <trkpt lat="43.326319009065628" lon="-0.470412019640207">
        <ele>149.62</ele>
        <time>2025-04-26T14:37:50Z</time>
      </trkpt>
      <trkpt lat="43.326283972710371" lon="-0.470534982159734">
        <ele>149.62</ele>
        <time>2025-04-26T14:37:51Z</time>
      </trkpt>
      <trkpt lat="43.326267963275313" lon="-0.470674959942698">
        <ele>150.09999999999999</ele>
        <time>2025-04-26T14:37:52Z</time>
      </trkpt>
      <trkpt lat="43.3262790273875" lon="-0.470824996009469">
        <ele>150.58000000000001</ele>
        <time>2025-04-26T14:37:53Z</time>
      </trkpt>
      <trkpt lat="43.32632496021688" lon="-0.470968997105956">
        <ele>151.06</ele>
        <time>2025-04-26T14:37:54Z</time>
      </trkpt>
      <trkpt lat="43.326375000178814" lon="-0.471130013465881">
        <ele>151.06</ele>
        <time>2025-04-26T14:37:55Z</time>
      </trkpt>
      <trkpt lat="43.326957961544394" lon="-0.472611011937261">
        <ele>152.50999999999999</ele>
        <time>2025-04-26T14:38:03Z</time>
      </trkpt>
      <trkpt lat="43.327657012268901" lon="-0.474471962079406">
        <ele>152.99000000000001</ele>
        <time>2025-04-26T14:38:11Z</time>
      </trkpt>
      <trkpt lat="43.328421022742987" lon="-0.476652011275291">
        <ele>151.53999999999999</ele>
        <time>2025-04-26T14:38:20Z</time>
      </trkpt>
      <trkpt lat="43.32920297048986" lon="-0.478886961936951">
        <ele>150.09999999999999</ele>
        <time>2025-04-26T14:38:28Z</time>
      </trkpt>
      <trkpt lat="43.329836977645755" lon="-0.480811027809978">
        <ele>149.62</ele>
        <time>2025-04-26T14:38:35Z</time>
      </trkpt>
      <trkpt lat="43.330504009500146" lon="-0.483252005651593">
        <ele>147.69999999999999</ele>
        <time>2025-04-26T14:38:44Z</time>
      </trkpt>
      <trkpt lat="43.331127036362886" lon="-0.485684014856815">
        <ele>143.84999999999999</ele>
        <time>2025-04-26T14:38:53Z</time>
      </trkpt>
      <trkpt lat="43.331933040171862" lon="-0.488825971260667">
        <ele>142.41</ele>
        <time>2025-04-26T14:39:04Z</time>
      </trkpt>
      <trkpt lat="43.332642987370491" lon="-0.491417990997434">
        <ele>140.97</ele>
        <time>2025-04-26T14:39:13Z</time>
      </trkpt>
      <trkpt lat="43.333117989823222" lon="-0.492565976455808">
        <ele>141.44999999999999</ele>
        <time>2025-04-26T14:39:17Z</time>
      </trkpt>
      <trkpt lat="43.333259979262948" lon="-0.492865964770317">
        <ele>141.44999999999999</ele>
        <time>2025-04-26T14:39:18Z</time>
      </trkpt>
      <trkpt lat="43.334433026611805" lon="-0.49465499818325">
        <ele>139.53</ele>
        <time>2025-04-26T14:39:25Z</time>
      </trkpt>
      <trkpt lat="43.336730003356934" lon="-0.497925030067563">
        <ele>138.56999999999999</ele>
        <time>2025-04-26T14:39:39Z</time>
      </trkpt>
      <trkpt lat="43.33747498691082" lon="-0.500100972130895">
        <ele>139.53</ele>
        <time>2025-04-26T14:39:47Z</time>
      </trkpt>
      <trkpt lat="43.337769024074078" lon="-0.502783013507724">
        <ele>138.56999999999999</ele>
        <time>2025-04-26T14:39:56Z</time>
      </trkpt>
      <trkpt lat="43.338178982958198" lon="-0.506658973172307">
        <ele>141.93000000000001</ele>
        <time>2025-04-26T14:40:09Z</time>
      </trkpt>
      <trkpt lat="43.338864035904408" lon="-0.508654033765197">
        <ele>143.37</ele>
        <time>2025-04-26T14:40:16Z</time>
      </trkpt>
      <trkpt lat="43.339897021651268" lon="-0.510259000584483">
        <ele>144.81999999999999</ele>
        <time>2025-04-26T14:40:23Z</time>
      </trkpt>
      <trkpt lat="43.342456016689539" lon="-0.513627016916871">
        <ele>144.34</ele>
        <time>2025-04-26T14:40:39Z</time>
      </trkpt>
      <trkpt lat="43.343976996839046" lon="-0.515615036711097">
        <ele>142.41</ele>
        <time>2025-04-26T14:40:49Z</time>
      </trkpt>
      <trkpt lat="43.344751987606287" lon="-0.516628995537758">
        <ele>140.97</ele>
        <time>2025-04-26T14:40:56Z</time>
      </trkpt>
      <trkpt lat="43.345824033021927" lon="-0.518031036481261">
        <ele>140.00999999999999</ele>
        <time>2025-04-26T14:41:08Z</time>
      </trkpt>
      <trkpt lat="43.346501961350441" lon="-0.518918009474874">
        <ele>139.53</ele>
        <time>2025-04-26T14:41:14Z</time>
      </trkpt>
      <trkpt lat="43.34742397069931" lon="-0.520122991874814">
        <ele>138.09</ele>
        <time>2025-04-26T14:41:20Z</time>
      </trkpt>
      <trkpt lat="43.348877979442477" lon="-0.522015038877726">
        <ele>136.63999999999999</ele>
        <time>2025-04-26T14:41:30Z</time>
      </trkpt>
      <trkpt lat="43.350061001256108" lon="-0.52355102263391">
        <ele>135.19999999999999</ele>
        <time>2025-04-26T14:41:40Z</time>
      </trkpt>
      <trkpt lat="43.350772960111499" lon="-0.524544026702642">
        <ele>134.24000000000001</ele>
        <time>2025-04-26T14:41:46Z</time>
      </trkpt>
      <trkpt lat="43.351274030283093" lon="-0.525505011901259">
        <ele>133.28</ele>
        <time>2025-04-26T14:41:54Z</time>
      </trkpt>
      <trkpt lat="43.351315017789602" lon="-0.525588998571038">
        <ele>133.28</ele>
        <time>2025-04-26T14:41:55Z</time>
      </trkpt>
      <trkpt lat="43.351386012509465" lon="-0.525734005495906">
        <ele>133.28</ele>
        <time>2025-04-26T14:41:57Z</time>
      </trkpt>
      <trkpt lat="43.351501012220979" lon="-0.525745991617441">
        <ele>133.28</ele>
        <time>2025-04-26T14:41:58Z</time>
      </trkpt>
      <trkpt lat="43.351627998054028" lon="-0.525827966630459">
        <ele>133.28</ele>
        <time>2025-04-26T14:41:59Z</time>
      </trkpt>
      <trkpt lat="43.351659011095762" lon="-0.525911031290889">
        <ele>132.31999999999999</ele>
        <time>2025-04-26T14:42:00Z</time>
      </trkpt>
      <trkpt lat="43.351664962247014" lon="-0.526029970496893">
        <ele>131.84</ele>
        <time>2025-04-26T14:42:01Z</time>
      </trkpt>
      <trkpt lat="43.351664962247014" lon="-0.526099037379026">
        <ele>131.84</ele>
        <time>2025-04-26T14:42:02Z</time>
      </trkpt>
      <trkpt lat="43.351664962247014" lon="-0.526099037379026">
        <ele>131.36000000000001</ele>
        <time>2025-04-26T14:42:03Z</time>
      </trkpt>
      <trkpt lat="43.351640990003943" lon="-0.526375975459814">
        <ele>131.36000000000001</ele>
        <time>2025-04-26T14:42:04Z</time>
      </trkpt>
      <trkpt lat="43.351689018309116" lon="-0.526490975171328">
        <ele>130.88</ele>
        <time>2025-04-26T14:42:05Z</time>
      </trkpt>
      <trkpt lat="43.352207019925117" lon="-0.527865020558238">
        <ele>129.91999999999999</ele>
        <time>2025-04-26T14:42:14Z</time>
      </trkpt>
      <trkpt lat="43.352904981002212" lon="-0.529713984578848">
        <ele>128.94999999999999</ele>
        <time>2025-04-26T14:42:23Z</time>
      </trkpt>
      <trkpt lat="43.353596990928054" lon="-0.531552974134684">
        <ele>127.98999999999999</ele>
        <time>2025-04-26T14:42:31Z</time>
      </trkpt>
      <trkpt lat="43.354242984205484" lon="-0.533257015049458">
        <ele>126.55</ele>
        <time>2025-04-26T14:42:40Z</time>
      </trkpt>
      <trkpt lat="43.355268007144332" lon="-0.535952970385551">
        <ele>126.55</ele>
        <time>2025-04-26T14:42:52Z</time>
      </trkpt>
      <trkpt lat="43.356063030660152" lon="-0.538407023996115">
        <ele>126.55</ele>
        <time>2025-04-26T14:43:02Z</time>
      </trkpt>
      <trkpt lat="43.357125017791986" lon="-0.541980983689427">
        <ele>127.98999999999999</ele>
        <time>2025-04-26T14:43:16Z</time>
      </trkpt>
      <trkpt lat="43.357765981927514" lon="-0.544723039492965">
        <ele>127.51000000000001</ele>
        <time>2025-04-26T14:43:26Z</time>
      </trkpt>
      <trkpt lat="43.358155991882086" lon="-0.546615002676845">
        <ele>127.03</ele>
        <time>2025-04-26T14:43:32Z</time>
      </trkpt>
      <trkpt lat="43.358642980456352" lon="-0.548835033550859">
        <ele>127.98999999999999</ele>
        <time>2025-04-26T14:43:40Z</time>
      </trkpt>
      <trkpt lat="43.359269024804235" lon="-0.551495030522347">
        <ele>127.03</ele>
        <time>2025-04-26T14:43:51Z</time>
      </trkpt>
      <trkpt lat="43.359607988968492" lon="-0.552746029570699">
        <ele>126.06999999999999</ele>
        <time>2025-04-26T14:43:59Z</time>
      </trkpt>
      <trkpt lat="43.359652999788523" lon="-0.552839990705252">
        <ele>126.06999999999999</ele>
        <time>2025-04-26T14:44:00Z</time>
      </trkpt>
      <trkpt lat="43.359692981466651" lon="-0.552924983203411">
        <ele>126.06999999999999</ele>
        <time>2025-04-26T14:44:01Z</time>
      </trkpt>
      <trkpt lat="43.35971200838685" lon="-0.552963959053159">
        <ele>126.06999999999999</ele>
        <time>2025-04-26T14:44:02Z</time>
      </trkpt>
      <trkpt lat="43.359885010868311" lon="-0.553090022876859">
        <ele>126.06999999999999</ele>
        <time>2025-04-26T14:44:04Z</time>
      </trkpt>
      <trkpt lat="43.359924992546439" lon="-0.553161017596722">
        <ele>126.06999999999999</ele>
        <time>2025-04-26T14:44:05Z</time>
      </trkpt>
      <trkpt lat="43.359947958961129" lon="-0.55328699760139">
        <ele>126.06999999999999</ele>
        <time>2025-04-26T14:44:06Z</time>
      </trkpt>
      <trkpt lat="43.359947958961129" lon="-0.553380958735943">
        <ele>126.06999999999999</ele>
        <time>2025-04-26T14:44:07Z</time>
      </trkpt>
      <trkpt lat="43.359921975061297" lon="-0.55348296649754">
        <ele>126.55</ele>
        <time>2025-04-26T14:44:08Z</time>
      </trkpt>
      <trkpt lat="43.359885010868311" lon="-0.553582962602377">
        <ele>126.06999999999999</ele>
        <time>2025-04-26T14:44:09Z</time>
      </trkpt>
      <trkpt lat="43.359870007261634" lon="-0.553701985627413">
        <ele>126.06999999999999</ele>
        <time>2025-04-26T14:44:10Z</time>
      </trkpt>
      <trkpt lat="43.359855003654957" lon="-0.553826037794352">
        <ele>126.06999999999999</ele>
        <time>2025-04-26T14:44:11Z</time>
      </trkpt>
      <trkpt lat="43.359837988391519" lon="-0.553960986435413">
        <ele>125.59</ele>
        <time>2025-04-26T14:44:13Z</time>
      </trkpt>
      <trkpt lat="43.360001016408205" lon="-0.555386999621987">
        <ele>125.59</ele>
        <time>2025-04-26T14:44:19Z</time>
      </trkpt>
      <trkpt lat="43.360393960028887" lon="-0.558108016848564">
        <ele>124.63</ele>
        <time>2025-04-26T14:44:29Z</time>
      </trkpt>
      <trkpt lat="43.361058980226517" lon="-0.561546022072434">
        <ele>124.15000000000001</ele>
        <time>2025-04-26T14:44:42Z</time>
      </trkpt>
      <trkpt lat="43.361846040934324" lon="-0.565513009205461">
        <ele>122.22</ele>
        <time>2025-04-26T14:44:57Z</time>
      </trkpt>
      <trkpt lat="43.361900020390749" lon="-0.566047020256519">
        <ele>122.70999999999999</ele>
        <time>2025-04-26T14:44:59Z</time>
      </trkpt>
      <trkpt lat="43.361921980977058" lon="-0.568999964743853">
        <ele>120.78</ele>
        <time>2025-04-26T14:45:10Z</time>
      </trkpt>
      <trkpt lat="43.361991969868541" lon="-0.571948969736695">
        <ele>120.78</ele>
        <time>2025-04-26T14:45:20Z</time>
      </trkpt>
      <trkpt lat="43.36203102953732" lon="-0.572219034656882">
        <ele>121.26000000000001</ele>
        <time>2025-04-26T14:45:21Z</time>
      </trkpt>
      <trkpt lat="43.362099006772041" lon="-0.572491027414799">
        <ele>121.73999999999999</ele>
        <time>2025-04-26T14:45:22Z</time>
      </trkpt>
      <trkpt lat="43.362167989835143" lon="-0.572766959667206">
        <ele>122.22</ele>
        <time>2025-04-26T14:45:23Z</time>
      </trkpt>
      <trkpt lat="43.362236972898245" lon="-0.573042975738645">
        <ele>122.22</ele>
        <time>2025-04-26T14:45:24Z</time>
      </trkpt>
      <trkpt lat="43.362357001751661" lon="-0.573281021788716">
        <ele>122.22</ele>
        <time>2025-04-26T14:45:25Z</time>
      </trkpt>
      <trkpt lat="43.36248298175633" lon="-0.573515966534615">
        <ele>122.22</ele>
        <time>2025-04-26T14:45:26Z</time>
      </trkpt>
      <trkpt lat="43.362609967589378" lon="-0.573752000927925">
        <ele>122.22</ele>
        <time>2025-04-26T14:45:27Z</time>
      </trkpt>
      <trkpt lat="43.363747978582978" lon="-0.575806992128491">
        <ele>121.26000000000001</ele>
        <time>2025-04-26T14:45:37Z</time>
      </trkpt>
      <trkpt lat="43.364238990470767" lon="-0.576675022020936">
        <ele>120.78</ele>
        <time>2025-04-26T14:45:44Z</time>
      </trkpt>
      <trkpt lat="43.364431019872427" lon="-0.576852969825268">
        <ele>120.78</ele>
        <time>2025-04-26T14:45:47Z</time>
      </trkpt>
      <trkpt lat="43.364508971571922" lon="-0.576924970373511">
        <ele>120.3</ele>
        <time>2025-04-26T14:45:48Z</time>
      </trkpt>
      <trkpt lat="43.364726984873414" lon="-0.57698498480022">
        <ele>120.3</ele>
        <time>2025-04-26T14:45:50Z</time>
      </trkpt>
      <trkpt lat="43.364811977371573" lon="-0.577054973691702">
        <ele>120.3</ele>
        <time>2025-04-26T14:45:51Z</time>
      </trkpt>
      <trkpt lat="43.364863023161888" lon="-0.577205009758472">
        <ele>119.81999999999999</ele>
        <time>2025-04-26T14:45:52Z</time>
      </trkpt>
      <trkpt lat="43.364897975698113" lon="-0.577317997813225">
        <ele>119.81999999999999</ele>
        <time>2025-04-26T14:45:53Z</time>
      </trkpt>
      <trkpt lat="43.364886995404959" lon="-0.577446995303035">
        <ele>119.81999999999999</ele>
        <time>2025-04-26T14:45:54Z</time>
      </trkpt>
      <trkpt lat="43.364865034818649" lon="-0.577575992792845">
        <ele>120.3</ele>
        <time>2025-04-26T14:45:55Z</time>
      </trkpt>
      <trkpt lat="43.364896969869733" lon="-0.577739020809531">
        <ele>119.81999999999999</ele>
        <time>2025-04-26T14:45:56Z</time>
      </trkpt>
      <trkpt lat="43.36493200622499" lon="-0.577881010249257">
        <ele>119.81999999999999</ele>
        <time>2025-04-26T14:45:57Z</time>
      </trkpt>
      <trkpt lat="43.364994032308459" lon="-0.578019982203841">
        <ele>119.81999999999999</ele>
        <time>2025-04-26T14:45:58Z</time>
      </trkpt>
      <trkpt lat="43.36562099866569" lon="-0.579110970720649">
        <ele>120.3</ele>
        <time>2025-04-26T14:46:05Z</time>
      </trkpt>
      <trkpt lat="43.366914996877313" lon="-0.58139001019299">
        <ele>117.90000000000001</ele>
        <time>2025-04-26T14:46:18Z</time>
      </trkpt>
      <trkpt lat="43.368087038397789" lon="-0.583476014435291">
        <ele>116.45999999999999</ele>
        <time>2025-04-26T14:46:30Z</time>
      </trkpt>
      <trkpt lat="43.368888013064861" lon="-0.584916025400162">
        <ele>115.98</ele>
        <time>2025-04-26T14:46:39Z</time>
      </trkpt>
      <trkpt lat="43.369817985221744" lon="-0.586600033566356">
        <ele>116.45999999999999</ele>
        <time>2025-04-26T14:46:49Z</time>
      </trkpt>
      <trkpt lat="43.370900005102158" lon="-0.588485961779952">
        <ele>115.98</ele>
        <time>2025-04-26T14:46:59Z</time>
      </trkpt>
      <trkpt lat="43.371879011392593" lon="-0.590239958837628">
        <ele>115.01000000000001</ele>
        <time>2025-04-26T14:47:09Z</time>
      </trkpt>
      <trkpt lat="43.373296977952123" lon="-0.59279702603817">
        <ele>113.56999999999999</ele>
        <time>2025-04-26T14:47:22Z</time>
      </trkpt>
      <trkpt lat="43.373639965429902" lon="-0.59417400509119">
        <ele>113.56999999999999</ele>
        <time>2025-04-26T14:47:28Z</time>
      </trkpt>
      <trkpt lat="43.373665027320385" lon="-0.594405010342598">
        <ele>113.56999999999999</ele>
        <time>2025-04-26T14:47:29Z</time>
      </trkpt>
      <trkpt lat="43.373796036466956" lon="-0.596814975142479">
        <ele>112.61</ele>
        <time>2025-04-26T14:47:40Z</time>
      </trkpt>
      <trkpt lat="43.374038022011518" lon="-0.598724959418178">
        <ele>112.61</ele>
        <time>2025-04-26T14:47:49Z</time>
      </trkpt>
      <trkpt lat="43.374690972268581" lon="-0.59988803230226">
        <ele>112.13</ele>
        <time>2025-04-26T14:47:56Z</time>
      </trkpt>
      <trkpt lat="43.376007014885545" lon="-0.601834980770946">
        <ele>112.61</ele>
        <time>2025-04-26T14:48:09Z</time>
      </trkpt>
      <trkpt lat="43.376802960410714" lon="-0.602864027023315">
        <ele>112.13</ele>
        <time>2025-04-26T14:48:18Z</time>
      </trkpt>
      <trkpt lat="43.376888958737254" lon="-0.60291800647974">
        <ele>112.61</ele>
        <time>2025-04-26T14:48:19Z</time>
      </trkpt>
      <trkpt lat="43.376969005912542" lon="-0.602967962622643">
        <ele>112.61</ele>
        <time>2025-04-26T14:48:20Z</time>
      </trkpt>
      <trkpt lat="43.377119963988662" lon="-0.603063013404608">
        <ele>113.09</ele>
        <time>2025-04-26T14:48:22Z</time>
      </trkpt>
      <trkpt lat="43.377190958708525" lon="-0.603108024224639">
        <ele>113.56999999999999</ele>
        <time>2025-04-26T14:48:23Z</time>
      </trkpt>
      <trkpt lat="43.377388017252088" lon="-0.603139959275723">
        <ele>113.56999999999999</ele>
        <time>2025-04-26T14:48:26Z</time>
      </trkpt>
      <trkpt lat="43.377470998093486" lon="-0.603145994246006">
        <ele>113.56999999999999</ele>
        <time>2025-04-26T14:48:27Z</time>
      </trkpt>
      <trkpt lat="43.377525983378291" lon="-0.603200979530811">
        <ele>113.09</ele>
        <time>2025-04-26T14:48:28Z</time>
      </trkpt>
      <trkpt lat="43.377585997804999" lon="-0.603300975635648">
        <ele>113.09</ele>
        <time>2025-04-26T14:48:29Z</time>
      </trkpt>
      <trkpt lat="43.377585997804999" lon="-0.60338999144733">
        <ele>112.61</ele>
        <time>2025-04-26T14:48:30Z</time>
      </trkpt>
      <trkpt lat="43.377585997804999" lon="-0.603489987552166">
        <ele>112.61</ele>
        <time>2025-04-26T14:48:31Z</time>
      </trkpt>
      <trkpt lat="43.377585997804999" lon="-0.603560982272029">
        <ele>112.61</ele>
        <time>2025-04-26T14:48:32Z</time>
      </trkpt>
      <trkpt lat="43.3775669708848" lon="-0.603939006105065">
        <ele>112.61</ele>
        <time>2025-04-26T14:48:35Z</time>
      </trkpt>
      <trkpt lat="43.37760703638196" lon="-0.604014024138451">
        <ele>112.61</ele>
        <time>2025-04-26T14:48:36Z</time>
      </trkpt>
      <trkpt lat="43.377660010010004" lon="-0.60409901663661">
        <ele>112.13</ele>
        <time>2025-04-26T14:48:37Z</time>
      </trkpt>
      <trkpt lat="43.377722958102822" lon="-0.604186020791531">
        <ele>112.13</ele>
        <time>2025-04-26T14:48:38Z</time>
      </trkpt>
      <trkpt lat="43.377786995843053" lon="-0.604276964440942">
        <ele>112.13</ele>
        <time>2025-04-26T14:48:39Z</time>
      </trkpt>
      <trkpt lat="43.377853967249393" lon="-0.604368997737765">
        <ele>112.13</ele>
        <time>2025-04-26T14:48:40Z</time>
      </trkpt>
      <trkpt lat="43.377922028303146" lon="-0.604458013549447">
        <ele>111.65000000000001</ele>
        <time>2025-04-26T14:48:41Z</time>
      </trkpt>
      <trkpt lat="43.378767007961869" lon="-0.605576997622848">
        <ele>110.20999999999999</ele>
        <time>2025-04-26T14:48:51Z</time>
      </trkpt>
      <trkpt lat="43.379783984273672" lon="-0.606993958353996">
        <ele>111.17</ele>
        <time>2025-04-26T14:49:03Z</time>
      </trkpt>
      <trkpt lat="43.380857035517693" lon="-0.608480991795659">
        <ele>112.13</ele>
        <time>2025-04-26T14:49:16Z</time>
      </trkpt>
      <trkpt lat="43.381730010733008" lon="-0.609700977802277">
        <ele>111.17</ele>
        <time>2025-04-26T14:49:26Z</time>
      </trkpt>
      <trkpt lat="43.38265897706151" lon="-0.610559033229947">
        <ele>111.17</ele>
        <time>2025-04-26T14:49:35Z</time>
      </trkpt>
      <trkpt lat="43.383157029747963" lon="-0.610891962423921">
        <ele>111.65000000000001</ele>
        <time>2025-04-26T14:49:40Z</time>
      </trkpt>
      <trkpt lat="43.383240010589361" lon="-0.610926998779178">
        <ele>111.65000000000001</ele>
        <time>2025-04-26T14:49:41Z</time>
      </trkpt>
      <trkpt lat="43.383314022794366" lon="-0.610958011820912">
        <ele>111.65000000000001</ele>
        <time>2025-04-26T14:49:42Z</time>
      </trkpt>
      <trkpt lat="43.383398009464145" lon="-0.610981984063983">
        <ele>111.17</ele>
        <time>2025-04-26T14:49:43Z</time>
      </trkpt>
      <trkpt lat="43.383487025275826" lon="-0.610963962972164">
        <ele>111.17</ele>
        <time>2025-04-26T14:49:44Z</time>
      </trkpt>
      <trkpt lat="43.383630020543933" lon="-0.610968992114067">
        <ele>111.17</ele>
        <time>2025-04-26T14:49:45Z</time>
      </trkpt>
      <trkpt lat="43.383725993335247" lon="-0.610864972695708">
        <ele>111.17</ele>
        <time>2025-04-26T14:49:46Z</time>
      </trkpt>
      <trkpt lat="43.383829006925225" lon="-0.610755002126098">
        <ele>111.17</ele>
        <time>2025-04-26T14:49:47Z</time>
      </trkpt>
      <trkpt lat="43.383940989151597" lon="-0.6106529943645">
        <ele>111.17</ele>
        <time>2025-04-26T14:49:48Z</time>
      </trkpt>
      <trkpt lat="43.384799966588616" lon="-0.610083024948835">
        <ele>110.20999999999999</ele>
        <time>2025-04-26T14:49:56Z</time>
      </trkpt>
      <trkpt lat="43.386345002800226" lon="-0.609583966434002">
        <ele>107.31999999999999</ele>
        <time>2025-04-26T14:50:08Z</time>
      </trkpt>
      <trkpt lat="43.387668002396822" lon="-0.609689997509122">
        <ele>106.36</ele>
        <time>2025-04-26T14:50:15Z</time>
      </trkpt>
      <trkpt lat="43.390166983008385" lon="-0.610083024948835">
        <ele>104.44</ele>
        <time>2025-04-26T14:50:28Z</time>
      </trkpt>
      <trkpt lat="43.392421966418624" lon="-0.610386030748487">
        <ele>102.04000000000001</ele>
        <time>2025-04-26T14:50:40Z</time>
      </trkpt>
      <trkpt lat="43.393345987424254" lon="-0.610616030171514">
        <ele>100.11</ele>
        <time>2025-04-26T14:50:45Z</time>
      </trkpt>
      <trkpt lat="43.393525024875998" lon="-0.610708985477686">
        <ele>100.11</ele>
        <time>2025-04-26T14:50:46Z</time>
      </trkpt>
      <trkpt lat="43.394589023664594" lon="-0.611754963174462">
        <ele>101.08</ele>
        <time>2025-04-26T14:50:53Z</time>
      </trkpt>
      <trkpt lat="43.396156020462513" lon="-0.614497018978">
        <ele>103</ele>
        <time>2025-04-26T14:51:06Z</time>
      </trkpt>
      <trkpt lat="43.397872969508171" lon="-0.617545014247298">
        <ele>102.52</ele>
        <time>2025-04-26T14:51:21Z</time>
      </trkpt>
      <trkpt lat="43.398614013567567" lon="-0.618533995002508">
        <ele>102.04000000000001</ele>
        <time>2025-04-26T14:51:28Z</time>
      </trkpt>
      <trkpt lat="43.400273965671659" lon="-0.620036032050848">
        <ele>100.11</ele>
        <time>2025-04-26T14:51:43Z</time>
      </trkpt>
      <trkpt lat="43.401122968643904" lon="-0.620780009776354">
        <ele>98.189999999999998</ele>
        <time>2025-04-26T14:51:51Z</time>
      </trkpt>
      <trkpt lat="43.402461977675557" lon="-0.622281963005662">
        <ele>98.670000000000002</ele>
        <time>2025-04-26T14:52:05Z</time>
      </trkpt>
      <trkpt lat="43.403785983100533" lon="-0.623752987012267">
        <ele>98.670000000000002</ele>
        <time>2025-04-26T14:52:19Z</time>
      </trkpt>
      <trkpt lat="43.404837995767593" lon="-0.624890998005867">
        <ele>99.150000000000006</ele>
        <time>2025-04-26T14:52:30Z</time>
      </trkpt>
      <trkpt lat="43.405178971588612" lon="-0.625189980491996">
        <ele>99.150000000000006</ele>
        <time>2025-04-26T14:52:33Z</time>
      </trkpt>
      <trkpt lat="43.405315009877086" lon="-0.625239014625549">
        <ele>99.150000000000006</ele>
        <time>2025-04-26T14:52:34Z</time>
      </trkpt>
      <trkpt lat="43.405452976003289" lon="-0.625287964940071">
        <ele>99.150000000000006</ele>
        <time>2025-04-26T14:52:35Z</time>
      </trkpt>
      <trkpt lat="43.405602006241679" lon="-0.625277990475297">
        <ele>98.670000000000002</ele>
        <time>2025-04-26T14:52:36Z</time>
      </trkpt>
      <trkpt lat="43.405737960711122" lon="-0.625255024060607">
        <ele>98.670000000000002</ele>
        <time>2025-04-26T14:52:37Z</time>
      </trkpt>
      <trkpt lat="43.405894031748176" lon="-0.625185035169125">
        <ele>98.189999999999998</ele>
        <time>2025-04-26T14:52:38Z</time>
      </trkpt>
      <trkpt lat="43.406029986217618" lon="-0.625085961073637">
        <ele>98.189999999999998</ele>
        <time>2025-04-26T14:52:39Z</time>
      </trkpt>
      <trkpt lat="43.406151020899415" lon="-0.624951012432575">
        <ele>98.189999999999998</ele>
        <time>2025-04-26T14:52:40Z</time>
      </trkpt>
      <trkpt lat="43.406274989247322" lon="-0.624812040477991">
        <ele>98.189999999999998</ele>
        <time>2025-04-26T14:52:41Z</time>
      </trkpt>
      <trkpt lat="43.406393006443977" lon="-0.62464096583426">
        <ele>98.189999999999998</ele>
        <time>2025-04-26T14:52:42Z</time>
      </trkpt>
      <trkpt lat="43.407536968588829" lon="-0.622558984905481">
        <ele>98.189999999999998</ele>
        <time>2025-04-26T14:52:52Z</time>
      </trkpt>
      <trkpt lat="43.40781700797379" lon="-0.622223038226366">
        <ele>98.189999999999998</ele>
        <time>2025-04-26T14:52:54Z</time>
      </trkpt>
      <trkpt lat="43.407961009070277" lon="-0.622051963582635">
        <ele>99.150000000000006</ele>
        <time>2025-04-26T14:52:55Z</time>
      </trkpt>
      <trkpt lat="43.4081169962883" lon="-0.621909974142909">
        <ele>99.629999999999995</ele>
        <time>2025-04-26T14:52:56Z</time>
      </trkpt>
      <trkpt lat="43.408282035961747" lon="-0.621784999966621">
        <ele>99.629999999999995</ele>
        <time>2025-04-26T14:52:57Z</time>
      </trkpt>
      <trkpt lat="43.408456966280937" lon="-0.621705036610365">
        <ele>100.11</ele>
        <time>2025-04-26T14:52:58Z</time>
      </trkpt>
      <trkpt lat="43.40863399207592" lon="-0.621623983606696">
        <ele>100.11</ele>
        <time>2025-04-26T14:52:59Z</time>
      </trkpt>
      <trkpt lat="43.408812023699284" lon="-0.621559023857117">
        <ele>100.59999999999999</ele>
        <time>2025-04-26T14:53:00Z</time>
      </trkpt>
      <trkpt lat="43.408995000645518" lon="-0.621537985280156">
        <ele>101.08</ele>
        <time>2025-04-26T14:53:01Z</time>
      </trkpt>
      <trkpt lat="43.409177977591753" lon="-0.621517030522227">
        <ele>101.56</ele>
        <time>2025-04-26T14:53:02Z</time>
      </trkpt>
      <trkpt lat="43.409362966194749" lon="-0.621509989723563">
        <ele>102.04000000000001</ele>
        <time>2025-04-26T14:53:03Z</time>
      </trkpt>
      <trkpt lat="43.410323029384017" lon="-0.621896982192993">
        <ele>103.48</ele>
        <time>2025-04-26T14:53:09Z</time>
      </trkpt>
      <trkpt lat="43.410462001338601" lon="-0.621993960812688">
        <ele>103.95999999999999</ele>
        <time>2025-04-26T14:53:10Z</time>
      </trkpt>
      <trkpt lat="43.410569960251451" lon="-0.62210401520133">
        <ele>103.48</ele>
        <time>2025-04-26T14:53:11Z</time>
      </trkpt>
      <trkpt lat="43.410661993548274" lon="-0.622236030176282">
        <ele>103.48</ele>
        <time>2025-04-26T14:53:12Z</time>
      </trkpt>
      <trkpt lat="43.410748997703195" lon="-0.622363016009331">
        <ele>103.48</ele>
        <time>2025-04-26T14:53:13Z</time>
      </trkpt>
      <trkpt lat="43.410836001858115" lon="-0.622486984357238">
        <ele>103</ele>
        <time>2025-04-26T14:53:14Z</time>
      </trkpt>
      <trkpt lat="43.41091001406312" lon="-0.622594021260738">
        <ele>103</ele>
        <time>2025-04-26T14:53:15Z</time>
      </trkpt>
      <trkpt lat="43.411546032875776" lon="-0.623957002535462">
        <ele>99.150000000000006</ele>
        <time>2025-04-26T14:53:25Z</time>
      </trkpt>
      <trkpt lat="43.412194959819317" lon="-0.625548977404833">
        <ele>99.629999999999995</ele>
        <time>2025-04-26T14:53:36Z</time>
      </trkpt>
      <trkpt lat="43.412689995020628" lon="-0.626870971173048">
        <ele>98.670000000000002</ele>
        <time>2025-04-26T14:53:45Z</time>
      </trkpt>
      <trkpt lat="43.412754032760859" lon="-0.627012038603425">
        <ele>98.670000000000002</ele>
        <time>2025-04-26T14:53:46Z</time>
      </trkpt>
      <trkpt lat="43.412848999723792" lon="-0.62710901722312">
        <ele>98.670000000000002</ele>
        <time>2025-04-26T14:53:47Z</time>
      </trkpt>
      <trkpt lat="43.412944972515106" lon="-0.627204990014434">
        <ele>98.670000000000002</ele>
        <time>2025-04-26T14:53:48Z</time>
      </trkpt>
      <trkpt lat="43.413044968619943" lon="-0.627285037189722">
        <ele>98.670000000000002</ele>
        <time>2025-04-26T14:53:49Z</time>
      </trkpt>
      <trkpt lat="43.413159968331456" lon="-0.627311021089554">
        <ele>98.670000000000002</ele>
        <time>2025-04-26T14:53:50Z</time>
      </trkpt>
      <trkpt lat="43.413278991356492" lon="-0.627299034968019">
        <ele>98.189999999999998</ele>
        <time>2025-04-26T14:53:51Z</time>
      </trkpt>
      <trkpt lat="43.413400026038289" lon="-0.627286965027452">
        <ele>97.709999999999994</ele>
        <time>2025-04-26T14:53:52Z</time>
      </trkpt>
      <trkpt lat="43.413548972457647" lon="-0.627271961420774">
        <ele>97.709999999999994</ele>
        <time>2025-04-26T14:53:53Z</time>
      </trkpt>
      <trkpt lat="43.413634970784187" lon="-0.627228962257504">
        <ele>98.189999999999998</ele>
        <time>2025-04-26T14:53:54Z</time>
      </trkpt>
      <trkpt lat="43.413744019344449" lon="-0.627164002507925">
        <ele>98.189999999999998</ele>
        <time>2025-04-26T14:53:55Z</time>
      </trkpt>
      <trkpt lat="43.414064040407538" lon="-0.626971973106265">
        <ele>97.709999999999994</ele>
        <time>2025-04-26T14:53:58Z</time>
      </trkpt>
      <trkpt lat="43.414191026240587" lon="-0.626991000026464">
        <ele>97.709999999999994</ele>
        <time>2025-04-26T14:53:59Z</time>
      </trkpt>
      <trkpt lat="43.414291022345424" lon="-0.627007009461522">
        <ele>97.230000000000004</ele>
        <time>2025-04-26T14:54:00Z</time>
      </trkpt>
      <trkpt lat="43.414483973756433" lon="-0.627056965604424">
        <ele>96.75</ele>
        <time>2025-04-26T14:54:02Z</time>
      </trkpt>
      <trkpt lat="43.414577012881637" lon="-0.627073980867863">
        <ele>96.269999999999996</ele>
        <time>2025-04-26T14:54:03Z</time>
      </trkpt>
      <trkpt lat="43.414652030915022" lon="-0.627055959776044">
        <ele>95.790000000000006</ele>
        <time>2025-04-26T14:54:04Z</time>
      </trkpt>
      <trkpt lat="43.414751021191478" lon="-0.626799976453185">
        <ele>95.790000000000006</ele>
        <time>2025-04-26T14:54:05Z</time>
      </trkpt>
      <trkpt lat="43.414751021191478" lon="-0.626799976453185">
        <ele>95.310000000000002</ele>
        <time>2025-04-26T14:54:06Z</time>
      </trkpt>
      <trkpt lat="43.414815980941057" lon="-0.62674599699676">
        <ele>95.790000000000006</ele>
        <time>2025-04-26T14:54:07Z</time>
      </trkpt>
      <trkpt lat="43.414900973439217" lon="-0.626696040853858">
        <ele>95.790000000000006</ele>
        <time>2025-04-26T14:54:08Z</time>
      </trkpt>
      <trkpt lat="43.414978003129363" lon="-0.626707021147013">
        <ele>95.310000000000002</ele>
        <time>2025-04-26T14:54:09Z</time>
      </trkpt>
      <trkpt lat="43.415060983970761" lon="-0.626784972846508">
        <ele>95.310000000000002</ele>
        <time>2025-04-26T14:54:10Z</time>
      </trkpt>
      <trkpt lat="43.415102977305651" lon="-0.626880023628473">
        <ele>95.310000000000002</ele>
        <time>2025-04-26T14:54:11Z</time>
      </trkpt>
      <trkpt lat="43.415114963427186" lon="-0.627006003633142">
        <ele>94.829999999999998</ele>
        <time>2025-04-26T14:54:12Z</time>
      </trkpt>
      <trkpt lat="43.415110018104315" lon="-0.627133995294571">
        <ele>95.310000000000002</ele>
        <time>2025-04-26T14:54:13Z</time>
      </trkpt>
      <trkpt lat="43.41510096564889" lon="-0.627276990562677">
        <ele>95.310000000000002</ele>
        <time>2025-04-26T14:54:14Z</time>
      </trkpt>
      <trkpt lat="43.415103983134031" lon="-0.627435995265841">
        <ele>94.829999999999998</ele>
        <time>2025-04-26T14:54:15Z</time>
      </trkpt>
      <trkpt lat="43.415131978690624" lon="-0.627592988312244">
        <ele>95.310000000000002</ele>
        <time>2025-04-26T14:54:16Z</time>
      </trkpt>
      <trkpt lat="43.415570016950369" lon="-0.629727020859718">
        <ele>95.310000000000002</ele>
        <time>2025-04-26T14:54:28Z</time>
      </trkpt>
      <trkpt lat="43.416119031608105" lon="-0.631935987621546">
        <ele>95.790000000000006</ele>
        <time>2025-04-26T14:54:39Z</time>
      </trkpt>
      <trkpt lat="43.416844988241792" lon="-0.634923968464136">
        <ele>96.75</ele>
        <time>2025-04-26T14:54:51Z</time>
      </trkpt>
      <trkpt lat="43.417589971795678" lon="-0.637948997318745">
        <ele>95.790000000000006</ele>
        <time>2025-04-26T14:55:03Z</time>
      </trkpt>
      <trkpt lat="43.418340990319848" lon="-0.641016019508243">
        <ele>95.310000000000002</ele>
        <time>2025-04-26T14:55:15Z</time>
      </trkpt>
      <trkpt lat="43.419026965275407" lon="-0.643346020951867">
        <ele>95.790000000000006</ele>
        <time>2025-04-26T14:55:25Z</time>
      </trkpt>
      <trkpt lat="43.419106006622314" lon="-0.643555987626314">
        <ele>95.790000000000006</ele>
        <time>2025-04-26T14:55:26Z</time>
      </trkpt>
      <trkpt lat="43.419187981635332" lon="-0.643751034513116">
        <ele>95.790000000000006</ele>
        <time>2025-04-26T14:55:27Z</time>
      </trkpt>
      <trkpt lat="43.419300969690084" lon="-0.643885983154178">
        <ele>95.790000000000006</ele>
        <time>2025-04-26T14:55:28Z</time>
      </trkpt>
      <trkpt lat="43.419391997158527" lon="-0.643995031714439">
        <ele>96.269999999999996</ele>
        <time>2025-04-26T14:55:29Z</time>
      </trkpt>
      <trkpt lat="43.419471960514784" lon="-0.644091004505754">
        <ele>96.269999999999996</ele>
        <time>2025-04-26T14:55:30Z</time>
      </trkpt>
      <trkpt lat="43.419643035158515" lon="-0.644095027819276">
        <ele>96.269999999999996</ele>
        <time>2025-04-26T14:55:31Z</time>
      </trkpt>
      <trkpt lat="43.419709000736475" lon="-0.644150013104081">
        <ele>96.269999999999996</ele>
        <time>2025-04-26T14:55:32Z</time>
      </trkpt>
      <trkpt lat="43.419772032648325" lon="-0.644201980903745">
        <ele>96.269999999999996</ele>
        <time>2025-04-26T14:55:33Z</time>
      </trkpt>
      <trkpt lat="43.419807991012931" lon="-0.644400967285037">
        <ele>96.269999999999996</ele>
        <time>2025-04-26T14:55:34Z</time>
      </trkpt>
      <trkpt lat="43.419902035966516" lon="-0.644543962553144">
        <ele>96.269999999999996</ele>
        <time>2025-04-26T14:55:35Z</time>
      </trkpt>
      <trkpt lat="43.420001026242971" lon="-0.64466399140656">
        <ele>96.269999999999996</ele>
        <time>2025-04-26T14:55:36Z</time>
      </trkpt>
      <trkpt lat="43.420108985155821" lon="-0.644793994724751">
        <ele>96.75</ele>
        <time>2025-04-26T14:55:37Z</time>
      </trkpt>
      <trkpt lat="43.420225996524096" lon="-0.644935984164476">
        <ele>96.75</ele>
        <time>2025-04-26T14:55:38Z</time>
      </trkpt>
      <trkpt lat="43.421660978347063" lon="-0.646617980673909">
        <ele>97.230000000000004</ele>
        <time>2025-04-26T14:55:49Z</time>
      </trkpt>
      <trkpt lat="43.423046004027128" lon="-0.648199981078506">
        <ele>97.230000000000004</ele>
        <time>2025-04-26T14:55:59Z</time>
      </trkpt>
      <trkpt lat="43.42500502243638" lon="-0.650476003065705">
        <ele>94.829999999999998</ele>
        <time>2025-04-26T14:56:12Z</time>
      </trkpt>
      <trkpt lat="43.426890028640628" lon="-0.652633002027869">
        <ele>95.310000000000002</ele>
        <time>2025-04-26T14:56:24Z</time>
      </trkpt>
      <trkpt lat="43.428405979648232" lon="-0.654419017955661">
        <ele>95.790000000000006</ele>
        <time>2025-04-26T14:56:34Z</time>
      </trkpt>
      <trkpt lat="43.429649015888572" lon="-0.655831033363938">
        <ele>96.269999999999996</ele>
        <time>2025-04-26T14:56:43Z</time>
      </trkpt>
      <trkpt lat="43.431063964962959" lon="-0.657456032931805">
        <ele>97.230000000000004</ele>
        <time>2025-04-26T14:56:53Z</time>
      </trkpt>
      <trkpt lat="43.432705979794264" lon="-0.659341961145401">
        <ele>96.269999999999996</ele>
        <time>2025-04-26T14:57:05Z</time>
      </trkpt>
      <trkpt lat="43.43441597186029" lon="-0.661346996203065">
        <ele>95.310000000000002</ele>
        <time>2025-04-26T14:57:18Z</time>
      </trkpt>
      <trkpt lat="43.435828993096948" lon="-0.662977024912834">
        <ele>94.349999999999994</ele>
        <time>2025-04-26T14:57:28Z</time>
      </trkpt>
      <trkpt lat="43.437413005158305" lon="-0.664800005033612">
        <ele>90.5</ele>
        <time>2025-04-26T14:57:39Z</time>
      </trkpt>
      <trkpt lat="43.439178988337517" lon="-0.666848961263895">
        <ele>88.579999999999998</ele>
        <time>2025-04-26T14:57:51Z</time>
      </trkpt>
      <trkpt lat="43.440524032339454" lon="-0.668400032445788">
        <ele>87.140000000000001</ele>
        <time>2025-04-26T14:58:00Z</time>
      </trkpt>
      <trkpt lat="43.441834039986134" lon="-0.669902991503477">
        <ele>86.659999999999997</ele>
        <time>2025-04-26T14:58:10Z</time>
      </trkpt>
      <trkpt lat="43.442568965256214" lon="-0.670760041102767">
        <ele>85.209999999999994</ele>
        <time>2025-04-26T14:58:18Z</time>
      </trkpt>
      <trkpt lat="43.443878972902894" lon="-0.672255959361792">
        <ele>85.689999999999998</ele>
        <time>2025-04-26T14:58:32Z</time>
      </trkpt>
      <trkpt lat="43.44397502951324" lon="-0.672354027628899">
        <ele>86.180000000000007</ele>
        <time>2025-04-26T14:58:33Z</time>
      </trkpt>
      <trkpt lat="43.444808023050427" lon="-0.673328004777431">
        <ele>86.659999999999997</ele>
        <time>2025-04-26T14:58:42Z</time>
      </trkpt>
      <trkpt lat="43.445356031879783" lon="-0.673980033025146">
        <ele>85.689999999999998</ele>
        <time>2025-04-26T14:58:48Z</time>
      </trkpt>
      <trkpt lat="43.446107972413301" lon="-0.674838004633784">
        <ele>88.099999999999994</ele>
        <time>2025-04-26T14:58:54Z</time>
      </trkpt>
      <trkpt lat="43.446885980665684" lon="-0.675706034526229">
        <ele>89.060000000000002</ele>
        <time>2025-04-26T14:58:59Z</time>
      </trkpt>
      <trkpt lat="43.44704800285399" lon="-0.675886999815702">
        <ele>88.579999999999998</ele>
        <time>2025-04-26T14:59:00Z</time>
      </trkpt>
      <trkpt lat="43.448419030755758" lon="-0.677518034353852">
        <ele>86.180000000000007</ele>
        <time>2025-04-26T14:59:09Z</time>
      </trkpt>
      <trkpt lat="43.449619989842176" lon="-0.678856959566474">
        <ele>85.689999999999998</ele>
        <time>2025-04-26T14:59:17Z</time>
      </trkpt>
      <trkpt lat="43.450914993882179" lon="-0.68058698438108">
        <ele>83.769999999999996</ele>
        <time>2025-04-26T14:59:26Z</time>
      </trkpt>
      <trkpt lat="43.451642962172627" lon="-0.681613013148308">
        <ele>84.25</ele>
        <time>2025-04-26T14:59:33Z</time>
      </trkpt>
      <trkpt lat="43.45224604010582" lon="-0.682419016957283">
        <ele>84.25</ele>
        <time>2025-04-26T14:59:40Z</time>
      </trkpt>
      <trkpt lat="43.45233203843236" lon="-0.68254197947681">
        <ele>84.730000000000004</ele>
        <time>2025-04-26T14:59:41Z</time>
      </trkpt>
      <trkpt lat="43.452764041721821" lon="-0.683123013004661">
        <ele>86.180000000000007</ele>
        <time>2025-04-26T14:59:46Z</time>
      </trkpt>
      <trkpt lat="43.452882980927825" lon="-0.683205993846059">
        <ele>86.180000000000007</ele>
        <time>2025-04-26T14:59:47Z</time>
      </trkpt>
      <trkpt lat="43.453006027266383" lon="-0.683272965252399">
        <ele>86.659999999999997</ele>
        <time>2025-04-26T14:59:48Z</time>
      </trkpt>
      <trkpt lat="43.453157991170883" lon="-0.683298027142882">
        <ele>86.659999999999997</ele>
        <time>2025-04-26T14:59:49Z</time>
      </trkpt>
      <trkpt lat="43.453297968953848" lon="-0.683298027142882">
        <ele>86.659999999999997</ele>
        <time>2025-04-26T14:59:50Z</time>
      </trkpt>
      <trkpt lat="43.453441970050335" lon="-0.683227032423019">
        <ele>86.659999999999997</ele>
        <time>2025-04-26T14:59:51Z</time>
      </trkpt>
      <trkpt lat="43.453583037480712" lon="-0.683137010782957">
        <ele>87.140000000000001</ele>
        <time>2025-04-26T14:59:52Z</time>
      </trkpt>
      <trkpt lat="43.453718991950154" lon="-0.683011030778289">
        <ele>87.620000000000005</ele>
        <time>2025-04-26T14:59:53Z</time>
      </trkpt>
      <trkpt lat="43.453848995268345" lon="-0.682870969176292">
        <ele>88.099999999999994</ele>
        <time>2025-04-26T14:59:54Z</time>
      </trkpt>
      <trkpt lat="43.453984027728438" lon="-0.682737026363611">
        <ele>88.099999999999994</ele>
        <time>2025-04-26T14:59:55Z</time>
      </trkpt>
      <trkpt lat="43.454389963299036" lon="-0.682362020015717">
        <ele>89.540000000000006</ele>
        <time>2025-04-26T14:59:58Z</time>
      </trkpt>
      <trkpt lat="43.455224968492985" lon="-0.681995982304215">
        <ele>93.390000000000001</ele>
        <time>2025-04-26T15:00:05Z</time>
      </trkpt>
      <trkpt lat="43.456129040569067" lon="-0.682058008387685">
        <ele>100.59999999999999</ele>
        <time>2025-04-26T15:00:13Z</time>
      </trkpt>
      <trkpt lat="43.456232976168394" lon="-0.682109976187348">
        <ele>101.08</ele>
        <time>2025-04-26T15:00:14Z</time>
      </trkpt>
      <trkpt lat="43.456320986151695" lon="-0.682204021140933">
        <ele>101.56</ele>
        <time>2025-04-26T15:00:15Z</time>
      </trkpt>
      <trkpt lat="43.456412013620138" lon="-0.682312985882163">
        <ele>102.04000000000001</ele>
        <time>2025-04-26T15:00:16Z</time>
      </trkpt>
      <trkpt lat="43.456499017775059" lon="-0.682427985593677">
        <ele>102.04000000000001</ele>
        <time>2025-04-26T15:00:17Z</time>
      </trkpt>
      <trkpt lat="43.456584010273218" lon="-0.682555977255106">
        <ele>103</ele>
        <time>2025-04-26T15:00:18Z</time>
      </trkpt>
      <trkpt lat="43.456669002771378" lon="-0.682685980573297">
        <ele>103.48</ele>
        <time>2025-04-26T15:00:19Z</time>
      </trkpt>
      <trkpt lat="43.457701988518238" lon="-0.684320032596588">
        <ele>107.81</ele>
        <time>2025-04-26T15:00:32Z</time>
      </trkpt>
      <trkpt lat="43.458797000348568" lon="-0.686085009947419">
        <ele>108.77</ele>
        <time>2025-04-26T15:00:46Z</time>
      </trkpt>
      <trkpt lat="43.460063003003597" lon="-0.688133966177702">
        <ele>106.84</ele>
        <time>2025-04-26T15:01:02Z</time>
      </trkpt>
      <trkpt lat="43.460811004042625" lon="-0.689494013786316">
        <ele>104.92</ele>
        <time>2025-04-26T15:01:12Z</time>
      </trkpt>
      <trkpt lat="43.460865989327431" lon="-0.689657963812351">
        <ele>104.44</ele>
        <time>2025-04-26T15:01:13Z</time>
      </trkpt>
      <trkpt lat="43.460911000147462" lon="-0.689821997657418">
        <ele>103.95999999999999</ele>
        <time>2025-04-26T15:01:14Z</time>
      </trkpt>
      <trkpt lat="43.461137982085347" lon="-0.691920993849635">
        <ele>103.48</ele>
        <time>2025-04-26T15:01:25Z</time>
      </trkpt>
      <trkpt lat="43.461361024528742" lon="-0.693854028359056">
        <ele>103.48</ele>
        <time>2025-04-26T15:01:33Z</time>
      </trkpt>
      <trkpt lat="43.461633017286658" lon="-0.696198027580976">
        <ele>103.95999999999999</ele>
        <time>2025-04-26T15:01:43Z</time>
      </trkpt>
      <trkpt lat="43.461763020604849" lon="-0.697059016674757">
        <ele>103</ele>
        <time>2025-04-26T15:01:47Z</time>
      </trkpt>
      <trkpt lat="43.461826974526048" lon="-0.697264038026333">
        <ele>103</ele>
        <time>2025-04-26T15:01:48Z</time>
      </trkpt>
      <trkpt lat="43.461905010044575" lon="-0.697466963902116">
        <ele>103</ele>
        <time>2025-04-26T15:01:49Z</time>
      </trkpt>
      <trkpt lat="43.462366014719009" lon="-0.698646968230605">
        <ele>103</ele>
        <time>2025-04-26T15:01:55Z</time>
      </trkpt>
      <trkpt lat="43.463236978277564" lon="-0.700808996334672">
        <ele>103.48</ele>
        <time>2025-04-26T15:02:05Z</time>
      </trkpt>
      <trkpt lat="43.464223025366664" lon="-0.703264977782965">
        <ele>103.95999999999999</ele>
        <time>2025-04-26T15:02:16Z</time>
      </trkpt>
      <trkpt lat="43.465368999168277" lon="-0.706049026921391">
        <ele>101.08</ele>
        <time>2025-04-26T15:02:28Z</time>
      </trkpt>
      <trkpt lat="43.466413971036673" lon="-0.708681028336287">
        <ele>100.59999999999999</ele>
        <time>2025-04-26T15:02:39Z</time>
      </trkpt>
      <trkpt lat="43.467274038121104" lon="-0.710832998156548">
        <ele>103</ele>
        <time>2025-04-26T15:02:49Z</time>
      </trkpt>
      <trkpt lat="43.467667987570167" lon="-0.711837988346815">
        <ele>102.04000000000001</ele>
        <time>2025-04-26T15:02:54Z</time>
      </trkpt>
      <trkpt lat="43.468481032177806" lon="-0.713826008141041">
        <ele>98.670000000000002</ele>
        <time>2025-04-26T15:03:04Z</time>
      </trkpt>
      <trkpt lat="43.469278989359736" lon="-0.715828025713563">
        <ele>94.349999999999994</ele>
        <time>2025-04-26T15:03:14Z</time>
      </trkpt>
      <trkpt lat="43.470096979290247" lon="-0.717846974730492">
        <ele>87.620000000000005</ele>
        <time>2025-04-26T15:03:24Z</time>
      </trkpt>
      <trkpt lat="43.47091899253428" lon="-0.720130959525704">
        <ele>82.329999999999998</ele>
        <time>2025-04-26T15:03:34Z</time>
      </trkpt>
      <trkpt lat="43.471431965008378" lon="-0.721915969625115">
        <ele>79.450000000000003</ele>
        <time>2025-04-26T15:03:42Z</time>
      </trkpt>
      <trkpt lat="43.472155993804336" lon="-0.724505977705121">
        <ele>77.040000000000006</ele>
        <time>2025-04-26T15:03:53Z</time>
      </trkpt>
      <trkpt lat="43.473100969567895" lon="-0.726922983303666">
        <ele>74.640000000000001</ele>
        <time>2025-04-26T15:04:03Z</time>
      </trkpt>
      <trkpt lat="43.474504016339779" lon="-0.729710971936584">
        <ele>79.450000000000003</ele>
        <time>2025-04-26T15:04:15Z</time>
      </trkpt>
      <trkpt lat="43.475735988467932" lon="-0.73234599083662">
        <ele>83.290000000000006</ele>
        <time>2025-04-26T15:04:27Z</time>
      </trkpt>
      <trkpt lat="43.476395979523659" lon="-0.734399976208806">
        <ele>83.769999999999996</ele>
        <time>2025-04-26T15:04:35Z</time>
      </trkpt>
      <trkpt lat="43.476540986448526" lon="-0.734897023066878">
        <ele>83.769999999999996</ele>
        <time>2025-04-26T15:04:37Z</time>
      </trkpt>
      <trkpt lat="43.476614998653531" lon="-0.735149988904595">
        <ele>84.25</ele>
        <time>2025-04-26T15:04:38Z</time>
      </trkpt>
      <trkpt lat="43.477540025487542" lon="-0.738332010805607">
        <ele>83.290000000000006</ele>
        <time>2025-04-26T15:04:51Z</time>
      </trkpt>
      <trkpt lat="43.478242009878159" lon="-0.740753039717674">
        <ele>79.450000000000003</ele>
        <time>2025-04-26T15:05:01Z</time>
      </trkpt>
      <trkpt lat="43.47893200814724" lon="-0.743074994534254">
        <ele>80.890000000000001</ele>
        <time>2025-04-26T15:05:11Z</time>
      </trkpt>
      <trkpt lat="43.479485968127847" lon="-0.744923958554864">
        <ele>77.519999999999996</ele>
        <time>2025-04-26T15:05:20Z</time>
      </trkpt>
      <trkpt lat="43.479543970897794" lon="-0.745115987956524">
        <ele>77.519999999999996</ele>
        <time>2025-04-26T15:05:21Z</time>
      </trkpt>
      <trkpt lat="43.479838008061051" lon="-0.746185015887022">
        <ele>78.480000000000004</ele>
        <time>2025-04-26T15:05:27Z</time>
      </trkpt>
      <trkpt lat="43.480193987488747" lon="-0.747366026043892">
        <ele>81.849999999999994</ele>
        <time>2025-04-26T15:05:35Z</time>
      </trkpt>
      <trkpt lat="43.480686005204916" lon="-0.748831015080214">
        <ele>85.209999999999994</ele>
        <time>2025-04-26T15:05:45Z</time>
      </trkpt>
      <trkpt lat="43.480815002694726" lon="-0.749068977311254">
        <ele>86.180000000000007</ele>
        <time>2025-04-26T15:05:50Z</time>
      </trkpt>
      <trkpt lat="43.480884991586208" lon="-0.749195041134954">
        <ele>87.140000000000001</ele>
        <time>2025-04-26T15:05:57Z</time>
      </trkpt>
      <trkpt lat="43.480928996577859" lon="-0.749204009771347">
        <ele>87.620000000000005</ele>
        <time>2025-04-26T15:05:58Z</time>
      </trkpt>
      <trkpt lat="43.481022035703063" lon="-0.749267041683197">
        <ele>87.620000000000005</ele>
        <time>2025-04-26T15:06:00Z</time>
      </trkpt>
      <trkpt lat="43.481063023209572" lon="-0.749332001432776">
        <ele>87.620000000000005</ele>
        <time>2025-04-26T15:06:01Z</time>
      </trkpt>
      <trkpt lat="43.481119014322758" lon="-0.749411964789033">
        <ele>87.620000000000005</ele>
        <time>2025-04-26T15:06:02Z</time>
      </trkpt>
      <trkpt lat="43.481119014322758" lon="-0.749513972550631">
        <ele>87.620000000000005</ele>
        <time>2025-04-26T15:06:03Z</time>
      </trkpt>
      <trkpt lat="43.48108196631074" lon="-0.749612040817738">
        <ele>87.620000000000005</ele>
        <time>2025-04-26T15:06:04Z</time>
      </trkpt>
      <trkpt lat="43.481037961319089" lon="-0.749766016378999">
        <ele>88.099999999999994</ele>
        <time>2025-04-26T15:06:05Z</time>
      </trkpt>
      <trkpt lat="43.481051037088037" lon="-0.749908005818725">
        <ele>88.099999999999994</ele>
        <time>2025-04-26T15:06:06Z</time>
      </trkpt>
      <trkpt lat="43.481064029037952" lon="-0.750063993036747">
        <ele>88.579999999999998</ele>
        <time>2025-04-26T15:06:07Z</time>
      </trkpt>
      <trkpt lat="43.481452027335763" lon="-0.751634007319808">
        <ele>90.019999999999996</ele>
        <time>2025-04-26T15:06:17Z</time>
      </trkpt>
      <trkpt lat="43.481885958462954" lon="-0.753198992460966">
        <ele>91.459999999999994</ele>
        <time>2025-04-26T15:06:27Z</time>
      </trkpt>
      <trkpt lat="43.482581991702318" lon="-0.755541985854506">
        <ele>85.689999999999998</ele>
        <time>2025-04-26T15:06:42Z</time>
      </trkpt>
      <trkpt lat="43.483400987461209" lon="-0.758303990587592">
        <ele>72.239999999999995</ele>
        <time>2025-04-26T15:07:00Z</time>
      </trkpt>
      <trkpt lat="43.483977997675538" lon="-0.760278012603521">
        <ele>66.469999999999999</ele>
        <time>2025-04-26T15:07:13Z</time>
      </trkpt>
      <trkpt lat="43.484014961868525" lon="-0.760378008708358">
        <ele>66.950000000000003</ele>
        <time>2025-04-26T15:07:14Z</time>
      </trkpt>
      <trkpt lat="43.484071958810091" lon="-0.760506000369787">
        <ele>67.909999999999997</ele>
        <time>2025-04-26T15:07:17Z</time>
      </trkpt>
      <trkpt lat="43.484215037897229" lon="-0.760585963726044">
        <ele>67.909999999999997</ele>
        <time>2025-04-26T15:07:20Z</time>
      </trkpt>
      <trkpt lat="43.484187964349985" lon="-0.760782016441226">
        <ele>67.909999999999997</ele>
        <time>2025-04-26T15:07:21Z</time>
      </trkpt>
      <trkpt lat="43.484187964349985" lon="-0.760782016441226">
        <ele>67.430000000000007</ele>
        <time>2025-04-26T15:07:23Z</time>
      </trkpt>
      <trkpt lat="43.484206991270185" lon="-0.761032970622182">
        <ele>67.430000000000007</ele>
        <time>2025-04-26T15:07:25Z</time>
      </trkpt>
      <trkpt lat="43.4842390101403" lon="-0.761174038052559">
        <ele>67.430000000000007</ele>
        <time>2025-04-26T15:07:26Z</time>
      </trkpt>
      <trkpt lat="43.484272034838796" lon="-0.761303035542369">
        <ele>67.430000000000007</ele>
        <time>2025-04-26T15:07:27Z</time>
      </trkpt>
      <trkpt lat="43.484306987375021" lon="-0.761434966698289">
        <ele>67.909999999999997</ele>
        <time>2025-04-26T15:07:28Z</time>
      </trkpt>
      <trkpt lat="43.484343029558659" lon="-0.761574022471905">
        <ele>67.909999999999997</ele>
        <time>2025-04-26T15:07:29Z</time>
      </trkpt>
      <trkpt lat="43.484383011236787" lon="-0.761714000254869">
        <ele>68.390000000000001</ele>
        <time>2025-04-26T15:07:30Z</time>
      </trkpt>
      <trkpt lat="43.484580991789699" lon="-0.762385977432132">
        <ele>70.790000000000006</ele>
        <time>2025-04-26T15:07:35Z</time>
      </trkpt>
      <trkpt lat="43.484618039801717" lon="-0.76250902377069">
        <ele>71.269999999999996</ele>
        <time>2025-04-26T15:07:36Z</time>
      </trkpt>
      <trkpt lat="43.48469297401607" lon="-0.762765007093549">
        <ele>71.760000000000005</ele>
        <time>2025-04-26T15:07:38Z</time>
      </trkpt>
      <trkpt lat="43.484980976209044" lon="-0.763763040304184">
        <ele>73.680000000000007</ele>
        <time>2025-04-26T15:07:46Z</time>
      </trkpt>
      <trkpt lat="43.485017018392682" lon="-0.763890026137233">
        <ele>73.680000000000007</ele>
        <time>2025-04-26T15:07:47Z</time>
      </trkpt>
      <trkpt lat="43.485410967841744" lon="-0.765219982713461">
        <ele>73.680000000000007</ele>
        <time>2025-04-26T15:07:57Z</time>
      </trkpt>
      <trkpt lat="43.48583098500967" lon="-0.766652030870318">
        <ele>71.760000000000005</ele>
        <time>2025-04-26T15:08:09Z</time>
      </trkpt>
      <trkpt lat="43.485859986394644" lon="-0.766775999218225">
        <ele>71.760000000000005</ele>
        <time>2025-04-26T15:08:10Z</time>
      </trkpt>
      <trkpt lat="43.485889993607998" lon="-0.766899967566133">
        <ele>71.760000000000005</ele>
        <time>2025-04-26T15:08:11Z</time>
      </trkpt>
      <trkpt lat="43.486243039369583" lon="-0.768111990764737">
        <ele>73.200000000000003</ele>
        <time>2025-04-26T15:08:21Z</time>
      </trkpt>
      <trkpt lat="43.486277991905808" lon="-0.768230007961392">
        <ele>73.200000000000003</ele>
        <time>2025-04-26T15:08:22Z</time>
      </trkpt>
      <trkpt lat="43.486320991069078" lon="-0.768346013501287">
        <ele>72.719999999999999</ele>
        <time>2025-04-26T15:08:23Z</time>
      </trkpt>
      <trkpt lat="43.486371031031013" lon="-0.768451038748026">
        <ele>72.719999999999999</ele>
        <time>2025-04-26T15:08:24Z</time>
      </trkpt>
      <trkpt lat="43.486420987173915" lon="-0.768550029024482">
        <ele>72.239999999999995</ele>
        <time>2025-04-26T15:08:25Z</time>
      </trkpt>
      <trkpt lat="43.48647303879261" lon="-0.768651030957699">
        <ele>71.760000000000005</ele>
        <time>2025-04-26T15:08:26Z</time>
      </trkpt>
      <trkpt lat="43.486527018249035" lon="-0.768756978213787">
        <ele>71.760000000000005</ele>
        <time>2025-04-26T15:08:27Z</time>
      </trkpt>
      <trkpt lat="43.486844021826982" lon="-0.769357960671186">
        <ele>70.790000000000006</ele>
        <time>2025-04-26T15:08:33Z</time>
      </trkpt>
      <trkpt lat="43.486895989626646" lon="-0.769443958997726">
        <ele>70.790000000000006</ele>
        <time>2025-04-26T15:08:34Z</time>
      </trkpt>
      <trkpt lat="43.48701098933816" lon="-0.769688962027431">
        <ele>71.269999999999996</ele>
        <time>2025-04-26T15:08:37Z</time>
      </trkpt>
      <trkpt lat="43.487078966572881" lon="-0.769904963672161">
        <ele>71.269999999999996</ele>
        <time>2025-04-26T15:08:40Z</time>
      </trkpt>
      <trkpt lat="43.487083995714784" lon="-0.76992298476398">
        <ele>71.269999999999996</ele>
        <time>2025-04-26T15:08:41Z</time>
      </trkpt>
      <trkpt lat="43.487060023471713" lon="-0.769964978098869">
        <ele>71.760000000000005</ele>
        <time>2025-04-26T15:08:42Z</time>
      </trkpt>
      <trkpt lat="43.487026998773217" lon="-0.770023986697197">
        <ele>72.239999999999995</ele>
        <time>2025-04-26T15:08:43Z</time>
      </trkpt>
      <trkpt lat="43.486995985731483" lon="-0.770075032487512">
        <ele>72.239999999999995</ele>
        <time>2025-04-26T15:08:44Z</time>
      </trkpt>
      <trkpt lat="43.486938988789916" lon="-0.770119959488511">
        <ele>72.239999999999995</ele>
        <time>2025-04-26T15:08:45Z</time>
      </trkpt>
      <trkpt lat="43.486879980191588" lon="-0.770167987793684">
        <ele>72.719999999999999</ele>
        <time>2025-04-26T15:08:46Z</time>
      </trkpt>
      <trkpt lat="43.486818037927151" lon="-0.770218027755618">
        <ele>72.719999999999999</ele>
        <time>2025-04-26T15:08:47Z</time>
      </trkpt>
      <trkpt lat="43.486292995512486" lon="-0.770650031045079">
        <ele>74.640000000000001</ele>
        <time>2025-04-26T15:08:55Z</time>
      </trkpt>
      <trkpt lat="43.486204985529184" lon="-0.77078104019165">
        <ele>75.120000000000005</ele>
        <time>2025-04-26T15:08:57Z</time>
      </trkpt>
      <trkpt lat="43.486183024942875" lon="-0.770886987447739">
        <ele>75.120000000000005</ele>
        <time>2025-04-26T15:08:58Z</time>
      </trkpt>
      <trkpt lat="43.486203979700804" lon="-0.770985977724195">
        <ele>75.120000000000005</ele>
        <time>2025-04-26T15:08:59Z</time>
      </trkpt>
      <trkpt lat="43.486226024106145" lon="-0.771089997142553">
        <ele>75.120000000000005</ele>
        <time>2025-04-26T15:09:00Z</time>
      </trkpt>
      <trkpt lat="43.486251002177596" lon="-0.771198039874434">
        <ele>75.599999999999994</ele>
        <time>2025-04-26T15:09:01Z</time>
      </trkpt>
      <trkpt lat="43.486290983855724" lon="-0.771305998787284">
        <ele>75.599999999999994</ele>
        <time>2025-04-26T15:09:02Z</time>
      </trkpt>
      <trkpt lat="43.486695997416973" lon="-0.772554986178875">
        <ele>74.640000000000001</ele>
        <time>2025-04-26T15:09:13Z</time>
      </trkpt>
      <trkpt lat="43.486906969919801" lon="-0.773221012204885">
        <ele>73.200000000000003</ele>
        <time>2025-04-26T15:09:22Z</time>
      </trkpt>
      <trkpt lat="43.486919961869717" lon="-0.773265017196536">
        <ele>73.200000000000003</ele>
        <time>2025-04-26T15:09:23Z</time>
      </trkpt>
      <trkpt lat="43.486947035416961" lon="-0.773323019966483">
        <ele>73.200000000000003</ele>
        <time>2025-04-26T15:09:24Z</time>
      </trkpt>
      <trkpt lat="43.486985005438328" lon="-0.773353027179837">
        <ele>72.719999999999999</ele>
        <time>2025-04-26T15:09:25Z</time>
      </trkpt>
      <trkpt lat="43.487039990723133" lon="-0.773408012464643">
        <ele>72.719999999999999</ele>
        <time>2025-04-26T15:09:26Z</time>
      </trkpt>
      <trkpt lat="43.487020041793585" lon="-0.773528041318059">
        <ele>72.719999999999999</ele>
        <time>2025-04-26T15:09:27Z</time>
      </trkpt>
      <trkpt lat="43.487030016258359" lon="-0.77355301938951">
        <ele>72.239999999999995</ele>
        <time>2025-04-26T15:09:28Z</time>
      </trkpt>
      <trkpt lat="43.487063040956855" lon="-0.773634994402528">
        <ele>72.239999999999995</ele>
        <time>2025-04-26T15:09:29Z</time>
      </trkpt>
      <trkpt lat="43.487078966572881" lon="-0.773689979687333">
        <ele>72.239999999999995</ele>
        <time>2025-04-26T15:09:30Z</time>
      </trkpt>
      <trkpt lat="43.487103022634983" lon="-0.77376801520586">
        <ele>72.239999999999995</ele>
        <time>2025-04-26T15:09:31Z</time>
      </trkpt>
      <trkpt lat="43.487208969891071" lon="-0.774137992411852">
        <ele>72.719999999999999</ele>
        <time>2025-04-26T15:09:35Z</time>
      </trkpt>
      <trkpt lat="43.487283987924457" lon="-0.774462958797812">
        <ele>71.760000000000005</ele>
        <time>2025-04-26T15:09:38Z</time>
      </trkpt>
      <trkpt lat="43.487305026501417" lon="-0.774581981822848">
        <ele>71.269999999999996</ele>
        <time>2025-04-26T15:09:39Z</time>
      </trkpt>
      <trkpt lat="43.48733201622963" lon="-0.774707039818168">
        <ele>71.269999999999996</ele>
        <time>2025-04-26T15:09:40Z</time>
      </trkpt>
      <trkpt lat="43.487364035099745" lon="-0.774826984852552">
        <ele>71.760000000000005</ele>
        <time>2025-04-26T15:09:41Z</time>
      </trkpt>
      <trkpt lat="43.487393958494067" lon="-0.774938967078924">
        <ele>71.760000000000005</ele>
        <time>2025-04-26T15:09:42Z</time>
      </trkpt>
      <trkpt lat="43.487640973180532" lon="-0.775797022506595">
        <ele>70.790000000000006</ele>
        <time>2025-04-26T15:09:50Z</time>
      </trkpt>
      <trkpt lat="43.48767701536417" lon="-0.775911016389728">
        <ele>70.310000000000002</ele>
        <time>2025-04-26T15:09:51Z</time>
      </trkpt>
      <trkpt lat="43.487813975661993" lon="-0.776446033269167">
        <ele>67.909999999999997</ele>
        <time>2025-04-26T15:09:56Z</time>
      </trkpt>
      <trkpt lat="43.487796038389206" lon="-0.776557009667158">
        <ele>67.430000000000007</ele>
        <time>2025-04-26T15:09:57Z</time>
      </trkpt>
      <trkpt lat="43.487793020904064" lon="-0.776575030758977">
        <ele>66.469999999999999</ele>
        <time>2025-04-26T15:09:58Z</time>
      </trkpt>
      <trkpt lat="43.487719008699059" lon="-0.776720959693193">
        <ele>65.510000000000005</ele>
        <time>2025-04-26T15:09:59Z</time>
      </trkpt>
      <trkpt lat="43.487670980393887" lon="-0.77681802213192">
        <ele>64.069999999999993</ele>
        <time>2025-04-26T15:10:00Z</time>
      </trkpt>
      <trkpt lat="43.487621024250984" lon="-0.776918018236756">
        <ele>63.579999999999998</ele>
        <time>2025-04-26T15:10:01Z</time>
      </trkpt>
      <trkpt lat="43.487565033137798" lon="-0.776993036270142">
        <ele>62.619999999999997</ele>
        <time>2025-04-26T15:10:02Z</time>
      </trkpt>
      <trkpt lat="43.487503007054329" lon="-0.777091020718217">
        <ele>62.619999999999997</ele>
        <time>2025-04-26T15:10:03Z</time>
      </trkpt>
      <trkpt lat="43.487443998456001" lon="-0.77718598768115">
        <ele>63.579999999999998</ele>
        <time>2025-04-26T15:10:04Z</time>
      </trkpt>
      <trkpt lat="43.487256998196244" lon="-0.777469966560602">
        <ele>65.030000000000001</ele>
        <time>2025-04-26T15:10:07Z</time>
      </trkpt>
      <trkpt lat="43.487197989597917" lon="-0.777578009292483">
        <ele>65.030000000000001</ele>
        <time>2025-04-26T15:10:08Z</time>
      </trkpt>
      <trkpt lat="43.48713998682797" lon="-0.777693009003997">
        <ele>65.030000000000001</ele>
        <time>2025-04-26T15:10:09Z</time>
      </trkpt>
      <trkpt lat="43.487091036513448" lon="-0.777824018150568">
        <ele>65.030000000000001</ele>
        <time>2025-04-26T15:10:10Z</time>
      </trkpt>
      <trkpt lat="43.487077038735151" lon="-0.777988974004984">
        <ele>65.030000000000001</ele>
        <time>2025-04-26T15:10:11Z</time>
      </trkpt>
      <trkpt lat="43.487067986279726" lon="-0.778170023113489">
        <ele>64.549999999999997</ele>
        <time>2025-04-26T15:10:12Z</time>
      </trkpt>
      <trkpt lat="43.487086007371545" lon="-0.778349982574582">
        <ele>64.549999999999997</ele>
        <time>2025-04-26T15:10:13Z</time>
      </trkpt>
      <trkpt lat="43.487136969342828" lon="-0.778521979227662">
        <ele>64.549999999999997</ele>
        <time>2025-04-26T15:10:14Z</time>
      </trkpt>
      <trkpt lat="43.487184997648001" lon="-0.778685007244349">
        <ele>65.030000000000001</ele>
        <time>2025-04-26T15:10:15Z</time>
      </trkpt>
      <trkpt lat="43.487711967900395" lon="-0.780267007648945">
        <ele>66.469999999999999</ele>
        <time>2025-04-26T15:10:26Z</time>
      </trkpt>
      <trkpt lat="43.488355027511716" lon="-0.782243041321635">
        <ele>67.909999999999997</ele>
        <time>2025-04-26T15:10:39Z</time>
      </trkpt>
      <trkpt lat="43.488964978605509" lon="-0.784063003957272">
        <ele>69.829999999999998</ele>
        <time>2025-04-26T15:10:51Z</time>
      </trkpt>
      <trkpt lat="43.489273013547063" lon="-0.784943019971251">
        <ele>69.829999999999998</ele>
        <time>2025-04-26T15:10:58Z</time>
      </trkpt>
      <trkpt lat="43.489337973296642" lon="-0.785064976662397">
        <ele>69.829999999999998</ele>
        <time>2025-04-26T15:10:59Z</time>
      </trkpt>
      <trkpt lat="43.489393964409828" lon="-0.785168996080756">
        <ele>69.829999999999998</ele>
        <time>2025-04-26T15:11:00Z</time>
      </trkpt>
      <trkpt lat="43.489445010200143" lon="-0.78526496887207">
        <ele>69.829999999999998</ele>
        <time>2025-04-26T15:11:01Z</time>
      </trkpt>
      <trkpt lat="43.489506030455232" lon="-0.785335041582584">
        <ele>69.349999999999994</ele>
        <time>2025-04-26T15:11:02Z</time>
      </trkpt>
      <trkpt lat="43.489564033225179" lon="-0.785401007160544">
        <ele>69.349999999999994</ele>
        <time>2025-04-26T15:11:03Z</time>
      </trkpt>
      <trkpt lat="43.489622035995126" lon="-0.785453980788589">
        <ele>68.870000000000005</ele>
        <time>2025-04-26T15:11:04Z</time>
      </trkpt>
      <trkpt lat="43.489677021279931" lon="-0.785488011315465">
        <ele>68.870000000000005</ele>
        <time>2025-04-26T15:11:05Z</time>
      </trkpt>
      <trkpt lat="43.489734018221498" lon="-0.785524975508451">
        <ele>68.870000000000005</ele>
        <time>2025-04-26T15:11:06Z</time>
      </trkpt>
      <trkpt lat="43.489797972142696" lon="-0.78556596301496">
        <ele>68.870000000000005</ele>
        <time>2025-04-26T15:11:07Z</time>
      </trkpt>
      <trkpt lat="43.489873996004462" lon="-0.785587001591921">
        <ele>68.870000000000005</ele>
        <time>2025-04-26T15:11:08Z</time>
      </trkpt>
      <trkpt lat="43.489923030138016" lon="-0.785636035725474">
        <ele>68.870000000000005</ele>
        <time>2025-04-26T15:11:09Z</time>
      </trkpt>
      <trkpt lat="43.489973992109299" lon="-0.785686997696757">
        <ele>68.870000000000005</ele>
        <time>2025-04-26T15:11:10Z</time>
      </trkpt>
      <trkpt lat="43.489981032907963" lon="-0.785785987973213">
        <ele>69.349999999999994</ele>
        <time>2025-04-26T15:11:11Z</time>
      </trkpt>
      <trkpt lat="43.489981032907963" lon="-0.785879027098417">
        <ele>69.349999999999994</ele>
        <time>2025-04-26T15:11:12Z</time>
      </trkpt>
      <trkpt lat="43.489981032907963" lon="-0.785982962697744">
        <ele>69.349999999999994</ele>
        <time>2025-04-26T15:11:13Z</time>
      </trkpt>
      <trkpt lat="43.489981032907963" lon="-0.786091005429626">
        <ele>69.349999999999994</ele>
        <time>2025-04-26T15:11:14Z</time>
      </trkpt>
      <trkpt lat="43.489981032907963" lon="-0.786206005141139">
        <ele>69.349999999999994</ele>
        <time>2025-04-26T15:11:15Z</time>
      </trkpt>
      <trkpt lat="43.48995597101748" lon="-0.787391038611531">
        <ele>66.469999999999999</ele>
        <time>2025-04-26T15:11:23Z</time>
      </trkpt>
      <trkpt lat="43.489866033196449" lon="-0.789058031514287">
        <ele>66.469999999999999</ele>
        <time>2025-04-26T15:11:33Z</time>
      </trkpt>
      <trkpt lat="43.489782968536019" lon="-0.790541963651776">
        <ele>65.989999999999995</ele>
        <time>2025-04-26T15:11:41Z</time>
      </trkpt>
      <trkpt lat="43.489723959937692" lon="-0.791671006008983">
        <ele>64.549999999999997</ele>
        <time>2025-04-26T15:11:48Z</time>
      </trkpt>
      <trkpt lat="43.489715997129679" lon="-0.791840991005301">
        <ele>64.069999999999993</ele>
        <time>2025-04-26T15:11:49Z</time>
      </trkpt>
      <trkpt lat="43.489691019058228" lon="-0.792342983186245">
        <ele>63.100000000000001</ele>
        <time>2025-04-26T15:11:52Z</time>
      </trkpt>
      <trkpt lat="43.489620024338365" lon="-0.793820964172482">
        <ele>59.740000000000002</ele>
        <time>2025-04-26T15:12:01Z</time>
      </trkpt>
      <trkpt lat="43.489604014903307" lon="-0.79415800049901">
        <ele>58.299999999999997</ele>
        <time>2025-04-26T15:12:03Z</time>
      </trkpt>
      <trkpt lat="43.489588005468249" lon="-0.794489001855254">
        <ele>56.859999999999999</ele>
        <time>2025-04-26T15:12:05Z</time>
      </trkpt>
      <trkpt lat="43.489506030455232" lon="-0.7961340341717">
        <ele>53.969999999999999</ele>
        <time>2025-04-26T15:12:15Z</time>
      </trkpt>
      <trkpt lat="43.489405028522015" lon="-0.797948967665434">
        <ele>55.409999999999997</ele>
        <time>2025-04-26T15:12:26Z</time>
      </trkpt>
      <trkpt lat="43.489263039082289" lon="-0.80015198327601">
        <ele>58.780000000000001</ele>
        <time>2025-04-26T15:12:39Z</time>
      </trkpt>
      <trkpt lat="43.489223979413509" lon="-0.800973996520042">
        <ele>59.740000000000002</ele>
        <time>2025-04-26T15:12:44Z</time>
      </trkpt>
      <trkpt lat="43.489217022433877" lon="-0.801135012879968">
        <ele>60.219999999999999</ele>
        <time>2025-04-26T15:12:45Z</time>
      </trkpt>
      <trkpt lat="43.489085007458925" lon="-0.80303099937737">
        <ele>62.619999999999997</ele>
        <time>2025-04-26T15:12:56Z</time>
      </trkpt>
      <trkpt lat="43.488974031060934" lon="-0.80378302372992">
        <ele>62.140000000000001</ele>
        <time>2025-04-26T15:13:00Z</time>
      </trkpt>
      <trkpt lat="43.488910999149084" lon="-0.803974969312549">
        <ele>62.140000000000001</ele>
        <time>2025-04-26T15:13:01Z</time>
      </trkpt>
      <trkpt lat="43.488834975287318" lon="-0.804171022027731">
        <ele>61.659999999999997</ele>
        <time>2025-04-26T15:13:02Z</time>
      </trkpt>
      <trkpt lat="43.488759035244584" lon="-0.804369002580643">
        <ele>61.659999999999997</ele>
        <time>2025-04-26T15:13:03Z</time>
      </trkpt>
      <trkpt lat="43.488668007776141" lon="-0.804554997012019">
        <ele>61.18</ele>
        <time>2025-04-26T15:13:04Z</time>
      </trkpt>
      <trkpt lat="43.487508036196232" lon="-0.806748038157821">
        <ele>58.780000000000001</ele>
        <time>2025-04-26T15:13:15Z</time>
      </trkpt>
      <trkpt lat="43.486563982442021" lon="-0.808550985530019">
        <ele>58.299999999999997</ele>
        <time>2025-04-26T15:13:23Z</time>
      </trkpt>
      <trkpt lat="43.485867027193308" lon="-0.809976998716593">
        <ele>58.780000000000001</ele>
        <time>2025-04-26T15:13:29Z</time>
      </trkpt>
      <trkpt lat="43.485768036916852" lon="-0.810228958725929">
        <ele>59.259999999999998</ele>
        <time>2025-04-26T15:13:30Z</time>
      </trkpt>
      <trkpt lat="43.485715985298157" lon="-0.81050799228251">
        <ele>59.740000000000002</ele>
        <time>2025-04-26T15:13:31Z</time>
      </trkpt>
      <trkpt lat="43.485669968649745" lon="-0.810798006132245">
        <ele>60.700000000000003</ele>
        <time>2025-04-26T15:13:32Z</time>
      </trkpt>
      <trkpt lat="43.485652031376958" lon="-0.811099000275135">
        <ele>62.140000000000001</ele>
        <time>2025-04-26T15:13:33Z</time>
      </trkpt>
      <trkpt lat="43.485662005841732" lon="-0.811406029388309">
        <ele>63.100000000000001</ele>
        <time>2025-04-26T15:13:34Z</time>
      </trkpt>
      <trkpt lat="43.48570098169148" lon="-0.811708029359579">
        <ele>64.549999999999997</ele>
        <time>2025-04-26T15:13:35Z</time>
      </trkpt>
      <trkpt lat="43.485772982239723" lon="-0.812005000188947">
        <ele>65.989999999999995</ele>
        <time>2025-04-26T15:13:36Z</time>
      </trkpt>
      <trkpt lat="43.485857974737883" lon="-0.812286967411637">
        <ele>67.909999999999997</ele>
        <time>2025-04-26T15:13:37Z</time>
      </trkpt>
      <trkpt lat="43.485978003591299" lon="-0.812545968219638">
        <ele>69.349999999999994</ele>
        <time>2025-04-26T15:13:38Z</time>
      </trkpt>
      <trkpt lat="43.486120998859406" lon="-0.81278502009809">
        <ele>70.790000000000006</ele>
        <time>2025-04-26T15:13:39Z</time>
      </trkpt>
      <trkpt lat="43.486273968592286" lon="-0.81300001591444">
        <ele>71.760000000000005</ele>
        <time>2025-04-26T15:13:40Z</time>
      </trkpt>
      <trkpt lat="43.486450994387269" lon="-0.813191961497068">
        <ele>73.200000000000003</ele>
        <time>2025-04-26T15:13:41Z</time>
      </trkpt>
      <trkpt lat="43.486630031839013" lon="-0.81338600255549">
        <ele>74.640000000000001</ele>
        <time>2025-04-26T15:13:42Z</time>
      </trkpt>
      <trkpt lat="43.487316006794572" lon="-0.814144983887672">
        <ele>77.519999999999996</ele>
        <time>2025-04-26T15:13:46Z</time>
      </trkpt>
      <trkpt lat="43.487472999840975" lon="-0.814325027167797">
        <ele>77.519999999999996</ele>
        <time>2025-04-26T15:13:47Z</time>
      </trkpt>
      <trkpt lat="43.490043981000781" lon="-0.817103963345289">
        <ele>74.159999999999997</ele>
        <time>2025-04-26T15:14:03Z</time>
      </trkpt>
      <trkpt lat="43.492113975808024" lon="-0.81936095841229">
        <ele>71.760000000000005</ele>
        <time>2025-04-26T15:14:16Z</time>
      </trkpt>
      <trkpt lat="43.493779040873051" lon="-0.821172036230564">
        <ele>67.430000000000007</ele>
        <time>2025-04-26T15:14:26Z</time>
      </trkpt>
      <trkpt lat="43.496024971827865" lon="-0.82361401990056">
        <ele>58.780000000000001</ele>
        <time>2025-04-26T15:14:39Z</time>
      </trkpt>
      <trkpt lat="43.497633039951324" lon="-0.825361981987953">
        <ele>53.969999999999999</ele>
        <time>2025-04-26T15:14:49Z</time>
      </trkpt>
      <trkpt lat="43.498758981004357" lon="-0.826593032106757">
        <ele>53.969999999999999</ele>
        <time>2025-04-26T15:14:56Z</time>
      </trkpt>
      <trkpt lat="43.500161021947861" lon="-0.828122980892658">
        <ele>54.450000000000003</ele>
        <time>2025-04-26T15:15:05Z</time>
      </trkpt>
      <trkpt lat="43.502014009281993" lon="-0.830137990415096">
        <ele>53.490000000000002</ele>
        <time>2025-04-26T15:15:17Z</time>
      </trkpt>
      <trkpt lat="43.503702040761709" lon="-0.831978991627693">
        <ele>46.759999999999998</ele>
        <time>2025-04-26T15:15:28Z</time>
      </trkpt>
      <trkpt lat="43.505819980055094" lon="-0.834288038313389">
        <ele>50.130000000000003</ele>
        <time>2025-04-26T15:15:41Z</time>
      </trkpt>
      <trkpt lat="43.508085021749139" lon="-0.836759023368359">
        <ele>49.649999999999999</ele>
        <time>2025-04-26T15:15:55Z</time>
      </trkpt>
      <trkpt lat="43.509411960840225" lon="-0.838213032111526">
        <ele>50.609999999999999</ele>
        <time>2025-04-26T15:16:04Z</time>
      </trkpt>
      <trkpt lat="43.510327013209462" lon="-0.839268984273076">
        <ele>49.159999999999997</ele>
        <time>2025-04-26T15:16:11Z</time>
      </trkpt>
      <trkpt lat="43.510455004870892" lon="-0.839455984532833">
        <ele>49.159999999999997</ele>
        <time>2025-04-26T15:16:12Z</time>
      </trkpt>
      <trkpt lat="43.510562041774392" lon="-0.839680032804608">
        <ele>49.649999999999999</ele>
        <time>2025-04-26T15:16:13Z</time>
      </trkpt>
      <trkpt lat="43.5109259840101" lon="-0.840625008568168">
        <ele>50.609999999999999</ele>
        <time>2025-04-26T15:16:17Z</time>
      </trkpt>
      <trkpt lat="43.510992033407092" lon="-0.840883003547788">
        <ele>51.090000000000003</ele>
        <time>2025-04-26T15:16:18Z</time>
      </trkpt>
      <trkpt lat="43.511033020913601" lon="-0.842804973945022">
        <ele>52.049999999999997</ele>
        <time>2025-04-26T15:16:25Z</time>
      </trkpt>
      <trkpt lat="43.510825987905264" lon="-0.845624981448054">
        <ele>52.049999999999997</ele>
        <time>2025-04-26T15:16:35Z</time>
      </trkpt>
      <trkpt lat="43.510504961013794" lon="-0.848862994462252">
        <ele>50.609999999999999</ele>
        <time>2025-04-26T15:16:47Z</time>
      </trkpt>
      <trkpt lat="43.510347967967391" lon="-0.850713970139623">
        <ele>51.57</ele>
        <time>2025-04-26T15:16:54Z</time>
      </trkpt>
      <trkpt lat="43.510168008506298" lon="-0.852377023547888">
        <ele>52.530000000000001</ele>
        <time>2025-04-26T15:17:01Z</time>
      </trkpt>
      <trkpt lat="43.510098019614816" lon="-0.852596964687109">
        <ele>53.009999999999998</ele>
        <time>2025-04-26T15:17:02Z</time>
      </trkpt>
      <trkpt lat="43.510016966611147" lon="-0.852825036272407">
        <ele>53.009999999999998</ele>
        <time>2025-04-26T15:17:03Z</time>
      </trkpt>
      <trkpt lat="43.50993599742651" lon="-0.853052018210292">
        <ele>53.490000000000002</ele>
        <time>2025-04-26T15:17:04Z</time>
      </trkpt>
      <trkpt lat="43.509820997714996" lon="-0.8532639965415">
        <ele>53.969999999999999</ele>
        <time>2025-04-26T15:17:05Z</time>
      </trkpt>
      <trkpt lat="43.508521970361471" lon="-0.855636997148395">
        <ele>58.299999999999997</ele>
        <time>2025-04-26T15:17:16Z</time>
      </trkpt>
      <trkpt lat="43.508313009515405" lon="-0.855994988232851">
        <ele>59.259999999999998</ele>
        <time>2025-04-26T15:17:18Z</time>
      </trkpt>
      <trkpt lat="43.508211001753807" lon="-0.856166984885931">
        <ele>59.740000000000002</ele>
        <time>2025-04-26T15:17:19Z</time>
      </trkpt>
      <trkpt lat="43.508107988163829" lon="-0.856338981539011">
        <ele>59.259999999999998</ele>
        <time>2025-04-26T15:17:20Z</time>
      </trkpt>
      <trkpt lat="43.50735797546804" lon="-0.857686037197709">
        <ele>57.82</ele>
        <time>2025-04-26T15:17:28Z</time>
      </trkpt>
      <trkpt lat="43.507270971313119" lon="-0.857847975566983">
        <ele>57.340000000000003</ele>
        <time>2025-04-26T15:17:29Z</time>
      </trkpt>
      <trkpt lat="43.507209029048681" lon="-0.858030030503869">
        <ele>57.340000000000003</ele>
        <time>2025-04-26T15:17:30Z</time>
      </trkpt>
      <trkpt lat="43.50714398548007" lon="-0.858218958601356">
        <ele>56.859999999999999</ele>
        <time>2025-04-26T15:17:31Z</time>
      </trkpt>
      <trkpt lat="43.507076008245349" lon="-0.858414005488157">
        <ele>56.859999999999999</ele>
        <time>2025-04-26T15:17:32Z</time>
      </trkpt>
      <trkpt lat="43.507038038223982" lon="-0.858627995476127">
        <ele>56.369999999999997</ele>
        <time>2025-04-26T15:17:33Z</time>
      </trkpt>
      <trkpt lat="43.507009036839008" lon="-0.858842991292477">
        <ele>56.369999999999997</ele>
        <time>2025-04-26T15:17:34Z</time>
      </trkpt>
      <trkpt lat="43.506980035454035" lon="-0.859053963795304">
        <ele>55.890000000000001</ele>
        <time>2025-04-26T15:17:35Z</time>
      </trkpt>
      <trkpt lat="43.506952039897442" lon="-0.8592579793185">
        <ele>55.890000000000001</ele>
        <time>2025-04-26T15:17:36Z</time>
      </trkpt>
      <trkpt lat="43.506931001320481" lon="-0.859452020376921">
        <ele>55.409999999999997</ele>
        <time>2025-04-26T15:17:37Z</time>
      </trkpt>
      <trkpt lat="43.506891019642353" lon="-0.860715005546808">
        <ele>53.969999999999999</ele>
        <time>2025-04-26T15:17:45Z</time>
      </trkpt>
      <trkpt lat="43.506797980517149" lon="-0.862132972106338">
        <ele>53.490000000000002</ele>
        <time>2025-04-26T15:17:51Z</time>
      </trkpt>
      <trkpt lat="43.506685998290777" lon="-0.864274967461824">
        <ele>50.609999999999999</ele>
        <time>2025-04-26T15:17:59Z</time>
      </trkpt>
      <trkpt lat="43.506578961387277" lon="-0.866168020293117">
        <ele>51.57</ele>
        <time>2025-04-26T15:18:06Z</time>
      </trkpt>
      <trkpt lat="43.506511989980936" lon="-0.868318984284997">
        <ele>51.57</ele>
        <time>2025-04-26T15:18:14Z</time>
      </trkpt>
      <trkpt lat="43.506549960002303" lon="-0.868573961779475">
        <ele>51.57</ele>
        <time>2025-04-26T15:18:15Z</time>
      </trkpt>
      <trkpt lat="43.506589019671082" lon="-0.868843020871282">
        <ele>51.57</ele>
        <time>2025-04-26T15:18:16Z</time>
      </trkpt>
      <trkpt lat="43.506660014390945" lon="-0.86907796561718">
        <ele>51.57</ele>
        <time>2025-04-26T15:18:17Z</time>
      </trkpt>
      <trkpt lat="43.506741989403963" lon="-0.869324980303645">
        <ele>51.57</ele>
        <time>2025-04-26T15:18:18Z</time>
      </trkpt>
      <trkpt lat="43.506846008822322" lon="-0.869563026353717">
        <ele>51.57</ele>
        <time>2025-04-26T15:18:19Z</time>
      </trkpt>
      <trkpt lat="43.506952039897442" lon="-0.869801994413137">
        <ele>51.57</ele>
        <time>2025-04-26T15:18:20Z</time>
      </trkpt>
      <trkpt lat="43.508428009226918" lon="-0.873073032125831">
        <ele>49.649999999999999</ele>
        <time>2025-04-26T15:18:34Z</time>
      </trkpt>
      <trkpt lat="43.509407015517354" lon="-0.875246040523052">
        <ele>53.969999999999999</ele>
        <time>2025-04-26T15:18:43Z</time>
      </trkpt>
      <trkpt lat="43.510748036205769" lon="-0.878194039687514">
        <ele>53.969999999999999</ele>
        <time>2025-04-26T15:18:55Z</time>
      </trkpt>
      <trkpt lat="43.511929968371987" lon="-0.880558993667364">
        <ele>52.530000000000001</ele>
        <time>2025-04-26T15:19:05Z</time>
      </trkpt>
      <trkpt lat="43.512089978903532" lon="-0.880754040554166">
        <ele>52.049999999999997</ele>
        <time>2025-04-26T15:19:06Z</time>
      </trkpt>
      <trkpt lat="43.512262981384993" lon="-0.880940034985542">
        <ele>51.57</ele>
        <time>2025-04-26T15:19:07Z</time>
      </trkpt>
      <trkpt lat="43.512452999129891" lon="-0.881083030253649">
        <ele>51.090000000000003</ele>
        <time>2025-04-26T15:19:08Z</time>
      </trkpt>
      <trkpt lat="43.512647962197661" lon="-0.881227031350136">
        <ele>50.609999999999999</ele>
        <time>2025-04-26T15:19:09Z</time>
      </trkpt>
      <trkpt lat="43.512853989377618" lon="-0.881330966949463">
        <ele>49.649999999999999</ele>
        <time>2025-04-26T15:19:10Z</time>
      </trkpt>
      <trkpt lat="43.514689039438963" lon="-0.882050972431898">
        <ele>44.840000000000003</ele>
        <time>2025-04-26T15:19:19Z</time>
      </trkpt>
      <trkpt lat="43.51698299869895" lon="-0.882318019866943">
        <ele>46.759999999999998</ele>
        <time>2025-04-26T15:19:30Z</time>
      </trkpt>
      <trkpt lat="43.517382983118296" lon="-0.882435031235218">
        <ele>46.759999999999998</ele>
        <time>2025-04-26T15:19:32Z</time>
      </trkpt>
      <trkpt lat="43.517566965892911" lon="-0.882565034553409">
        <ele>46.759999999999998</ele>
        <time>2025-04-26T15:19:33Z</time>
      </trkpt>
      <trkpt lat="43.519162964075804" lon="-0.883895996958017">
        <ele>46.280000000000001</ele>
        <time>2025-04-26T15:19:42Z</time>
      </trkpt>
      <trkpt lat="43.520427038893104" lon="-0.885606994852424">
        <ele>45.799999999999997</ele>
        <time>2025-04-26T15:19:51Z</time>
      </trkpt>
      <trkpt lat="43.520757034420967" lon="-0.886216023936868">
        <ele>45.799999999999997</ele>
        <time>2025-04-26T15:19:54Z</time>
      </trkpt>
      <trkpt lat="43.520844960585237" lon="-0.886426996439695">
        <ele>45.799999999999997</ele>
        <time>2025-04-26T15:19:55Z</time>
      </trkpt>
      <trkpt lat="43.520908998325467" lon="-0.886661019176245">
        <ele>45.32</ele>
        <time>2025-04-26T15:19:56Z</time>
      </trkpt>
      <trkpt lat="43.521186020225286" lon="-0.888087032362819">
        <ele>43.880000000000003</ele>
        <time>2025-04-26T15:20:02Z</time>
      </trkpt>
      <trkpt lat="43.521376959979534" lon="-0.889182966202497">
        <ele>43.880000000000003</ele>
        <time>2025-04-26T15:20:08Z</time>
      </trkpt>
      <trkpt lat="43.521621040999889" lon="-0.890648039057851">
        <ele>46.759999999999998</ele>
        <time>2025-04-26T15:20:17Z</time>
      </trkpt>
      <trkpt lat="43.521980959922075" lon="-0.892791040241718">
        <ele>47.240000000000002</ele>
        <time>2025-04-26T15:20:30Z</time>
      </trkpt>
      <trkpt lat="43.522296035662293" lon="-0.894576972350478">
        <ele>46.759999999999998</ele>
        <time>2025-04-26T15:20:41Z</time>
      </trkpt>
      <trkpt lat="43.522688979282975" lon="-0.896818041801453">
        <ele>46.759999999999998</ele>
        <time>2025-04-26T15:20:55Z</time>
      </trkpt>
      <trkpt lat="43.522717980667949" lon="-0.896972017362714">
        <ele>46.759999999999998</ele>
        <time>2025-04-26T15:20:56Z</time>
      </trkpt>
      <trkpt lat="43.522746982052922" lon="-0.897128004580736">
        <ele>47.240000000000002</ele>
        <time>2025-04-26T15:20:57Z</time>
      </trkpt>
      <trkpt lat="43.523079995065928" lon="-0.899116024374962">
        <ele>47.719999999999999</ele>
        <time>2025-04-26T15:21:09Z</time>
      </trkpt>
      <trkpt lat="43.52338601835072" lon="-0.90089600533247">
        <ele>47.719999999999999</ele>
        <time>2025-04-26T15:21:20Z</time>
      </trkpt>
      <trkpt lat="43.523740991950035" lon="-0.902999024838209">
        <ele>48.68</ele>
        <time>2025-04-26T15:21:33Z</time>
      </trkpt>
      <trkpt lat="43.524008961394429" lon="-0.904498966410756">
        <ele>48.68</ele>
        <time>2025-04-26T15:21:41Z</time>
      </trkpt>
      <trkpt lat="43.524454962462187" lon="-0.907048992812634">
        <ele>47.240000000000002</ele>
        <time>2025-04-26T15:21:52Z</time>
      </trkpt>
      <trkpt lat="43.524741036817431" lon="-0.908749010413885">
        <ele>46.759999999999998</ele>
        <time>2025-04-26T15:22:00Z</time>
      </trkpt>
      <trkpt lat="43.525015041232109" lon="-0.910362023860216">
        <ele>47.240000000000002</ele>
        <time>2025-04-26T15:22:10Z</time>
      </trkpt>
      <trkpt lat="43.525388035923243" lon="-0.912468982860446">
        <ele>45.799999999999997</ele>
        <time>2025-04-26T15:22:23Z</time>
      </trkpt>
      <trkpt lat="43.525644019246101" lon="-0.914075039327145">
        <ele>46.759999999999998</ele>
        <time>2025-04-26T15:22:33Z</time>
      </trkpt>
      <trkpt lat="43.525809980928898" lon="-0.914555992931128">
        <ele>47.719999999999999</ele>
        <time>2025-04-26T15:22:36Z</time>
      </trkpt>
      <trkpt lat="43.526670970022678" lon="-0.916374027729034">
        <ele>47.240000000000002</ele>
        <time>2025-04-26T15:22:49Z</time>
      </trkpt>
      <trkpt lat="43.527393992990255" lon="-0.917915040627122">
        <ele>45.32</ele>
        <time>2025-04-26T15:23:00Z</time>
      </trkpt>
      <trkpt lat="43.528268979862332" lon="-0.919261006638408">
        <ele>43.399999999999999</ele>
        <time>2025-04-26T15:23:11Z</time>
      </trkpt>
      <trkpt lat="43.528543990105391" lon="-0.919568035751581">
        <ele>42.920000000000002</ele>
        <time>2025-04-26T15:23:14Z</time>
      </trkpt>
      <trkpt lat="43.528645997866988" lon="-0.919653028249741">
        <ele>42.920000000000002</ele>
        <time>2025-04-26T15:23:15Z</time>
      </trkpt>
      <trkpt lat="43.529711002483964" lon="-0.920504964888096">
        <ele>42.439999999999998</ele>
        <time>2025-04-26T15:23:24Z</time>
      </trkpt>
      <trkpt lat="43.529967991635203" lon="-0.92079103924334">
        <ele>40.509999999999998</ele>
        <time>2025-04-26T15:23:26Z</time>
      </trkpt>
      <trkpt lat="43.530086008831859" lon="-0.920961024239659">
        <ele>39.549999999999997</ele>
        <time>2025-04-26T15:23:27Z</time>
      </trkpt>
      <trkpt lat="43.531044982373714" lon="-0.92261997051537">
        <ele>37.149999999999999</ele>
        <time>2025-04-26T15:23:36Z</time>
      </trkpt>
      <trkpt lat="43.532224986702204" lon="-0.92414204031229">
        <ele>35.229999999999997</ele>
        <time>2025-04-26T15:23:45Z</time>
      </trkpt>
      <trkpt lat="43.533326033502817" lon="-0.925464034080505">
        <ele>34.259999999999998</ele>
        <time>2025-04-26T15:23:53Z</time>
      </trkpt>
      <trkpt lat="43.53483603335917" lon="-0.927330013364553">
        <ele>35.710000000000001</ele>
        <time>2025-04-26T15:24:04Z</time>
      </trkpt>
      <trkpt lat="43.53634100407362" lon="-0.929250977933407">
        <ele>30.899999999999999</ele>
        <time>2025-04-26T15:24:15Z</time>
      </trkpt>
      <trkpt lat="43.536465978249907" lon="-0.929457005113363">
        <ele>30.899999999999999</ele>
        <time>2025-04-26T15:24:16Z</time>
      </trkpt>
      <trkpt lat="43.536563040688634" lon="-0.92968599870801">
        <ele>30.899999999999999</ele>
        <time>2025-04-26T15:24:17Z</time>
      </trkpt>
      <trkpt lat="43.537397962063551" lon="-0.931654991582036">
        <ele>32.82</ele>
        <time>2025-04-26T15:24:25Z</time>
      </trkpt>
      <trkpt lat="43.5382329672575" lon="-0.93363999389112">
        <ele>34.259999999999998</ele>
        <time>2025-04-26T15:24:32Z</time>
      </trkpt>
      <trkpt lat="43.539204010739923" lon="-0.935948034748435">
        <ele>33.299999999999997</ele>
        <time>2025-04-26T15:24:41Z</time>
      </trkpt>
      <trkpt lat="43.539915969595313" lon="-0.937804961577058">
        <ele>34.259999999999998</ele>
        <time>2025-04-26T15:24:48Z</time>
      </trkpt>
      <trkpt lat="43.540503038093448" lon="-0.940381977707148">
        <ele>36.189999999999998</ele>
        <time>2025-04-26T15:24:57Z</time>
      </trkpt>
      <trkpt lat="43.541064960882068" lon="-0.942848017439246">
        <ele>33.299999999999997</ele>
        <time>2025-04-26T15:25:06Z</time>
      </trkpt>
      <trkpt lat="43.541543986648321" lon="-0.944952964782715">
        <ele>31.379999999999999</ele>
        <time>2025-04-26T15:25:14Z</time>
      </trkpt>
      <trkpt lat="43.542140023782849" lon="-0.947564011439681">
        <ele>33.780000000000001</ele>
        <time>2025-04-26T15:25:24Z</time>
      </trkpt>
      <trkpt lat="43.5426140204072" lon="-0.949730984866619">
        <ele>34.259999999999998</ele>
        <time>2025-04-26T15:25:33Z</time>
      </trkpt>
      <trkpt lat="43.54341097176075" lon="-0.953236967325211">
        <ele>38.590000000000003</ele>
        <time>2025-04-26T15:25:47Z</time>
      </trkpt>
      <trkpt lat="43.54396996088326" lon="-0.955605022609234">
        <ele>49.159999999999997</ele>
        <time>2025-04-26T15:25:56Z</time>
      </trkpt>
      <trkpt lat="43.544780993834138" lon="-0.959122991189361">
        <ele>53.969999999999999</ele>
        <time>2025-04-26T15:26:10Z</time>
      </trkpt>
      <trkpt lat="43.544968999922276" lon="-0.959898987784982">
        <ele>52.530000000000001</ele>
        <time>2025-04-26T15:26:13Z</time>
      </trkpt>
      <trkpt lat="43.545226994901896" lon="-0.960967009887099">
        <ele>49.649999999999999</ele>
        <time>2025-04-26T15:26:17Z</time>
      </trkpt>
      <trkpt lat="43.545908024534583" lon="-0.96384602598846">
        <ele>58.299999999999997</ele>
        <time>2025-04-26T15:26:28Z</time>
      </trkpt>
      <trkpt lat="43.546494003385305" lon="-0.966319022700191">
        <ele>65.030000000000001</ele>
        <time>2025-04-26T15:26:37Z</time>
      </trkpt>
      <trkpt lat="43.547071013599634" lon="-0.96872697584331">
        <ele>65.510000000000005</ele>
        <time>2025-04-26T15:26:46Z</time>
      </trkpt>
      <trkpt lat="43.547719018533826" lon="-0.971576990559697">
        <ele>61.18</ele>
        <time>2025-04-26T15:26:57Z</time>
      </trkpt>
      <trkpt lat="43.547901995480061" lon="-0.972361033782363">
        <ele>59.259999999999998</ele>
        <time>2025-04-26T15:27:00Z</time>
      </trkpt>
      <trkpt lat="43.547962009906769" lon="-0.972616011276841">
        <ele>58.299999999999997</ele>
        <time>2025-04-26T15:27:01Z</time>
      </trkpt>
      <trkpt lat="43.548397030681372" lon="-0.974458018317819">
        <ele>57.340000000000003</ele>
        <time>2025-04-26T15:27:08Z</time>
      </trkpt>
      <trkpt lat="43.549014022573829" lon="-0.977007960900664">
        <ele>63.100000000000001</ele>
        <time>2025-04-26T15:27:18Z</time>
      </trkpt>
      <trkpt lat="43.549327002838254" lon="-0.978373037651181">
        <ele>61.659999999999997</ele>
        <time>2025-04-26T15:27:25Z</time>
      </trkpt>
      <trkpt lat="43.549393974244595" lon="-0.978655004873872">
        <ele>61.18</ele>
        <time>2025-04-26T15:27:27Z</time>
      </trkpt>
      <trkpt lat="43.549423981457949" lon="-0.978786014020443">
        <ele>60.700000000000003</ele>
        <time>2025-04-26T15:27:28Z</time>
      </trkpt>
      <trkpt lat="43.549453988671303" lon="-0.978920040652156">
        <ele>60.219999999999999</ele>
        <time>2025-04-26T15:27:29Z</time>
      </trkpt>
      <trkpt lat="43.549483995884657" lon="-0.979062030091882">
        <ele>60.219999999999999</ele>
        <time>2025-04-26T15:27:30Z</time>
      </trkpt>
      <trkpt lat="43.549515008926392" lon="-0.979211982339621">
        <ele>60.219999999999999</ele>
        <time>2025-04-26T15:27:31Z</time>
      </trkpt>
      <trkpt lat="43.549630008637905" lon="-0.979694025591016">
        <ele>59.740000000000002</ele>
        <time>2025-04-26T15:27:34Z</time>
      </trkpt>
      <trkpt lat="43.550034016370773" lon="-0.981452967971563">
        <ele>55.890000000000001</ele>
        <time>2025-04-26T15:27:45Z</time>
      </trkpt>
      <trkpt lat="43.550107022747397" lon="-0.98176502622664">
        <ele>54.450000000000003</ele>
        <time>2025-04-26T15:27:47Z</time>
      </trkpt>
      <trkpt lat="43.550486974418163" lon="-0.983321964740753">
        <ele>52.530000000000001</ele>
        <time>2025-04-26T15:27:57Z</time>
      </trkpt>
      <trkpt lat="43.55088503099978" lon="-0.984894996508956">
        <ele>51.090000000000003</ele>
        <time>2025-04-26T15:28:07Z</time>
      </trkpt>
      <trkpt lat="43.551183007657528" lon="-0.986337019130588">
        <ele>47.240000000000002</ele>
        <time>2025-04-26T15:28:16Z</time>
      </trkpt>
      <trkpt lat="43.551385011523962" lon="-0.987264979630709">
        <ele>49.159999999999997</ele>
        <time>2025-04-26T15:28:22Z</time>
      </trkpt>
      <trkpt lat="43.551399009302258" lon="-0.987425995990634">
        <ele>49.649999999999999</ele>
        <time>2025-04-26T15:28:23Z</time>
      </trkpt>
      <trkpt lat="43.551409989595413" lon="-0.98758801817894">
        <ele>50.130000000000003</ele>
        <time>2025-04-26T15:28:24Z</time>
      </trkpt>
      <trkpt lat="43.551330026239157" lon="-0.98909298889339">
        <ele>50.609999999999999</ele>
        <time>2025-04-26T15:28:33Z</time>
      </trkpt>
      <trkpt lat="43.551201028749347" lon="-0.990591002628207">
        <ele>45.32</ele>
        <time>2025-04-26T15:28:42Z</time>
      </trkpt>
      <trkpt lat="43.551075970754027" lon="-0.992093961685896">
        <ele>39.549999999999997</ele>
        <time>2025-04-26T15:28:49Z</time>
      </trkpt>
      <trkpt lat="43.550962982699275" lon="-0.993456020951271">
        <ele>43.399999999999999</ele>
        <time>2025-04-26T15:28:57Z</time>
      </trkpt>
      <trkpt lat="43.55084203183651" lon="-0.995133994147182">
        <ele>49.159999999999997</ele>
        <time>2025-04-26T15:29:07Z</time>
      </trkpt>
      <trkpt lat="43.550816969946027" lon="-0.995469018816948">
        <ele>49.159999999999997</ele>
        <time>2025-04-26T15:29:09Z</time>
      </trkpt>
      <trkpt lat="43.550803977996111" lon="-0.995635986328125">
        <ele>49.649999999999999</ele>
        <time>2025-04-26T15:29:10Z</time>
      </trkpt>
      <trkpt lat="43.550655031576753" lon="-0.997558040544391">
        <ele>48.200000000000003</ele>
        <time>2025-04-26T15:29:20Z</time>
      </trkpt>
      <trkpt lat="43.550636004656553" lon="-0.997759038582444">
        <ele>47.719999999999999</ele>
        <time>2025-04-26T15:29:21Z</time>
      </trkpt>
      <trkpt lat="43.550618989393115" lon="-0.997954001650214">
        <ele>47.240000000000002</ele>
        <time>2025-04-26T15:29:22Z</time>
      </trkpt>
      <trkpt lat="43.550519999116659" lon="-0.999398035928607">
        <ele>44.359999999999999</ele>
        <time>2025-04-26T15:29:29Z</time>
      </trkpt>
      <trkpt lat="43.550319001078606" lon="-1.001916965469718">
        <ele>44.359999999999999</ele>
        <time>2025-04-26T15:29:41Z</time>
      </trkpt>
      <trkpt lat="43.550139963626862" lon="-1.004147976636887">
        <ele>44.359999999999999</ele>
        <time>2025-04-26T15:29:51Z</time>
      </trkpt>
      <trkpt lat="43.549995962530375" lon="-1.005929969251156">
        <ele>42.920000000000002</ele>
        <time>2025-04-26T15:29:59Z</time>
      </trkpt>
      <trkpt lat="43.549837963655591" lon="-1.008010022342205">
        <ele>37.149999999999999</ele>
        <time>2025-04-26T15:30:07Z</time>
      </trkpt>
      <trkpt lat="43.549814997240901" lon="-1.00830003619194">
        <ele>36.189999999999998</ele>
        <time>2025-04-26T15:30:08Z</time>
      </trkpt>
      <trkpt lat="43.549724975600839" lon="-1.009423965588212">
        <ele>33.780000000000001</ele>
        <time>2025-04-26T15:30:12Z</time>
      </trkpt>
      <trkpt lat="43.549703015014529" lon="-1.009692018851638">
        <ele>33.780000000000001</ele>
        <time>2025-04-26T15:30:13Z</time>
      </trkpt>
      <trkpt lat="43.549430016428232" lon="-1.013406040146947">
        <ele>38.109999999999999</ele>
        <time>2025-04-26T15:30:27Z</time>
      </trkpt>
      <trkpt lat="43.548980997875333" lon="-1.015746016055346">
        <ele>40.030000000000001</ele>
        <time>2025-04-26T15:30:36Z</time>
      </trkpt>
      <trkpt lat="43.548183040693402" lon="-1.018814966082573">
        <ele>40.509999999999998</ele>
        <time>2025-04-26T15:30:48Z</time>
      </trkpt>
      <trkpt lat="43.547481978312135" lon="-1.021473035216332">
        <ele>39.07</ele>
        <time>2025-04-26T15:30:58Z</time>
      </trkpt>
      <trkpt lat="43.547006975859404" lon="-1.023306995630264">
        <ele>39.07</ele>
        <time>2025-04-26T15:31:05Z</time>
      </trkpt>
      <trkpt lat="43.546387972310185" lon="-1.025625010952354">
        <ele>38.590000000000003</ele>
        <time>2025-04-26T15:31:14Z</time>
      </trkpt>
      <trkpt lat="43.54579696431756" lon="-1.027889968827367">
        <ele>36.189999999999998</ele>
        <time>2025-04-26T15:31:23Z</time>
      </trkpt>
      <trkpt lat="43.545548021793365" lon="-1.029112972319126">
        <ele>35.710000000000001</ele>
        <time>2025-04-26T15:31:28Z</time>
      </trkpt>
      <trkpt lat="43.545542992651463" lon="-1.029374990612268">
        <ele>35.710000000000001</ele>
        <time>2025-04-26T15:31:29Z</time>
      </trkpt>
      <trkpt lat="43.545553972944617" lon="-1.029637008905411">
        <ele>35.710000000000001</ele>
        <time>2025-04-26T15:31:30Z</time>
      </trkpt>
      <trkpt lat="43.545684982091188" lon="-1.031727958470583">
        <ele>35.229999999999997</ele>
        <time>2025-04-26T15:31:38Z</time>
      </trkpt>
      <trkpt lat="43.545809034258127" lon="-1.033828966319561">
        <ele>30.899999999999999</ele>
        <time>2025-04-26T15:31:46Z</time>
      </trkpt>
      <trkpt lat="43.545982036739588" lon="-1.036574961617589">
        <ele>26.57</ele>
        <time>2025-04-26T15:31:56Z</time>
      </trkpt>
      <trkpt lat="43.546000979840755" lon="-1.036862041801214">
        <ele>26.57</ele>
        <time>2025-04-26T15:31:57Z</time>
      </trkpt>
      <trkpt lat="43.546124026179314" lon="-1.038864981383085">
        <ele>23.210000000000001</ele>
        <time>2025-04-26T15:32:04Z</time>
      </trkpt>
      <trkpt lat="43.546252017840743" lon="-1.040586037561297">
        <ele>18.879999999999999</ele>
        <time>2025-04-26T15:32:10Z</time>
      </trkpt>
      <trkpt lat="43.546271966770291" lon="-1.04085199534893">
        <ele>17.920000000000002</ele>
        <time>2025-04-26T15:32:11Z</time>
      </trkpt>
      <trkpt lat="43.546290993690491" lon="-1.04110898450017">
        <ele>17.440000000000001</ele>
        <time>2025-04-26T15:32:12Z</time>
      </trkpt>
      <trkpt lat="43.546640016138554" lon="-1.043698992580175">
        <ele>19.359999999999999</ele>
        <time>2025-04-26T15:32:22Z</time>
      </trkpt>
      <trkpt lat="43.547328002750874" lon="-1.047975020483136">
        <ele>17.920000000000002</ele>
        <time>2025-04-26T15:32:38Z</time>
      </trkpt>
      <trkpt lat="43.547595972195268" lon="-1.049793977290392">
        <ele>15.52</ele>
        <time>2025-04-26T15:32:45Z</time>
      </trkpt>
      <trkpt lat="43.547610975801945" lon="-1.050044009461999">
        <ele>15.52</ele>
        <time>2025-04-26T15:32:46Z</time>
      </trkpt>
      <trkpt lat="43.547617010772228" lon="-1.050294963642955">
        <ele>15.52</ele>
        <time>2025-04-26T15:32:47Z</time>
      </trkpt>
      <trkpt lat="43.547331020236015" lon="-1.052638962864876">
        <ele>14.56</ele>
        <time>2025-04-26T15:32:56Z</time>
      </trkpt>
      <trkpt lat="43.547031031921506" lon="-1.054893024265766">
        <ele>16</ele>
        <time>2025-04-26T15:33:05Z</time>
      </trkpt>
      <trkpt lat="43.547002030536532" lon="-1.05514096096158">
        <ele>16.48</ele>
        <time>2025-04-26T15:33:06Z</time>
      </trkpt>
      <trkpt lat="43.546828022226691" lon="-1.057340037077665">
        <ele>16.960000000000001</ele>
        <time>2025-04-26T15:33:15Z</time>
      </trkpt>
      <trkpt lat="43.546692989766598" lon="-1.059761987999082">
        <ele>17.920000000000002</ele>
        <time>2025-04-26T15:33:25Z</time>
      </trkpt>
      <trkpt lat="43.54663297533989" lon="-1.060933023691177">
        <ele>19.84</ele>
        <time>2025-04-26T15:33:31Z</time>
      </trkpt>
      <trkpt lat="43.546629035845399" lon="-1.061100997030735">
        <ele>20.809999999999999</ele>
        <time>2025-04-26T15:33:32Z</time>
      </trkpt>
      <trkpt lat="43.546528033912182" lon="-1.062902016565204">
        <ele>23.690000000000001</ele>
        <time>2025-04-26T15:33:43Z</time>
      </trkpt>
      <trkpt lat="43.546211030334234" lon="-1.064718961715698">
        <ele>21.289999999999999</ele>
        <time>2025-04-26T15:33:54Z</time>
      </trkpt>
      <trkpt lat="43.545968038961291" lon="-1.065798969939351">
        <ele>22.73</ele>
        <time>2025-04-26T15:34:00Z</time>
      </trkpt>
      <trkpt lat="43.545929985120893" lon="-1.065982030704618">
        <ele>23.210000000000001</ele>
        <time>2025-04-26T15:34:01Z</time>
      </trkpt>
      <trkpt lat="43.545891009271145" lon="-1.066172970458865">
        <ele>23.690000000000001</ele>
        <time>2025-04-26T15:34:02Z</time>
      </trkpt>
      <trkpt lat="43.545851027593017" lon="-1.066367011517286">
        <ele>24.649999999999999</ele>
        <time>2025-04-26T15:34:03Z</time>
      </trkpt>
      <trkpt lat="43.545810962095857" lon="-1.066560968756676">
        <ele>25.609999999999999</ele>
        <time>2025-04-26T15:34:04Z</time>
      </trkpt>
      <trkpt lat="43.545396979898214" lon="-1.068558041006327">
        <ele>38.109999999999999</ele>
        <time>2025-04-26T15:34:14Z</time>
      </trkpt>
      <trkpt lat="43.545074025169015" lon="-1.070015989243984">
        <ele>46.280000000000001</ele>
        <time>2025-04-26T15:34:23Z</time>
      </trkpt>
      <trkpt lat="43.545007975772023" lon="-1.070289993658662">
        <ele>47.240000000000002</ele>
        <time>2025-04-26T15:34:25Z</time>
      </trkpt>
      <trkpt lat="43.544948967173696" lon="-1.07041496783495">
        <ele>47.719999999999999</ele>
        <time>2025-04-26T15:34:26Z</time>
      </trkpt>
      <trkpt lat="43.544889958575368" lon="-1.070539020001888">
        <ele>47.719999999999999</ele>
        <time>2025-04-26T15:34:27Z</time>
      </trkpt>
      <trkpt lat="43.54478401131928" lon="-1.07075896114111">
        <ele>47.719999999999999</ele>
        <time>2025-04-26T15:34:28Z</time>
      </trkpt>
      <trkpt lat="43.54476498439908" lon="-1.070805983617902">
        <ele>47.719999999999999</ele>
        <time>2025-04-26T15:34:29Z</time>
      </trkpt>
      <trkpt lat="43.544647973030806" lon="-1.071100020781159">
        <ele>48.200000000000003</ele>
        <time>2025-04-26T15:34:31Z</time>
      </trkpt>
      <trkpt lat="43.544592987746" lon="-1.071466980502009">
        <ele>48.200000000000003</ele>
        <time>2025-04-26T15:34:33Z</time>
      </trkpt>
      <trkpt lat="43.544597011059523" lon="-1.07163998298347">
        <ele>47.719999999999999</ele>
        <time>2025-04-26T15:34:34Z</time>
      </trkpt>
      <trkpt lat="43.544602040201426" lon="-1.071826983243227">
        <ele>47.240000000000002</ele>
        <time>2025-04-26T15:34:35Z</time>
      </trkpt>
      <trkpt lat="43.544645039364696" lon="-1.07353001832962">
        <ele>40.509999999999998</ele>
        <time>2025-04-26T15:34:42Z</time>
      </trkpt>
      <trkpt lat="43.544711004942656" lon="-1.075572017580271">
        <ele>32.340000000000003</ele>
        <time>2025-04-26T15:34:50Z</time>
      </trkpt>
      <trkpt lat="43.544799014925957" lon="-1.077794982120395">
        <ele>28.5</ele>
        <time>2025-04-26T15:34:59Z</time>
      </trkpt>
      <trkpt lat="43.544844025745988" lon="-1.080141998827457">
        <ele>28.02</ele>
        <time>2025-04-26T15:35:09Z</time>
      </trkpt>
      <trkpt lat="43.544861963018775" lon="-1.080618007108569">
        <ele>27.530000000000001</ele>
        <time>2025-04-26T15:35:11Z</time>
      </trkpt>
      <trkpt lat="43.544878978282213" lon="-1.08156499452889">
        <ele>26.57</ele>
        <time>2025-04-26T15:35:15Z</time>
      </trkpt>
      <trkpt lat="43.544949973002076" lon="-1.083887033164501">
        <ele>25.609999999999999</ele>
        <time>2025-04-26T15:35:25Z</time>
      </trkpt>
      <trkpt lat="43.545033037662506" lon="-1.085743959993124">
        <ele>27.050000000000001</ele>
        <time>2025-04-26T15:35:33Z</time>
      </trkpt>
      <trkpt lat="43.545118030160666" lon="-1.088114026933909">
        <ele>29.460000000000001</ele>
        <time>2025-04-26T15:35:43Z</time>
      </trkpt>
      <trkpt lat="43.545181984081864" lon="-1.090170023962855">
        <ele>27.050000000000001</ele>
        <time>2025-04-26T15:35:52Z</time>
      </trkpt>
      <trkpt lat="43.545190030708909" lon="-1.09054796397686">
        <ele>27.050000000000001</ele>
        <time>2025-04-26T15:35:54Z</time>
      </trkpt>
      <trkpt lat="43.545191958546638" lon="-1.090861028060317">
        <ele>27.050000000000001</ele>
        <time>2025-04-26T15:35:56Z</time>
      </trkpt>
      <trkpt lat="43.545191958546638" lon="-1.091010980308056">
        <ele>27.530000000000001</ele>
        <time>2025-04-26T15:35:57Z</time>
      </trkpt>
      <trkpt lat="43.545191958546638" lon="-1.091165961697698">
        <ele>27.530000000000001</ele>
        <time>2025-04-26T15:35:58Z</time>
      </trkpt>
      <trkpt lat="43.545196987688541" lon="-1.091334018856287">
        <ele>28.02</ele>
        <time>2025-04-26T15:35:59Z</time>
      </trkpt>
      <trkpt lat="43.545212997123599" lon="-1.091529987752438">
        <ele>28.5</ele>
        <time>2025-04-26T15:36:00Z</time>
      </trkpt>
      <trkpt lat="43.545218026265502" lon="-1.091678012162447">
        <ele>28.5</ele>
        <time>2025-04-26T15:36:01Z</time>
      </trkpt>
      <trkpt lat="43.545222971588373" lon="-1.091846991330385">
        <ele>28.5</ele>
        <time>2025-04-26T15:36:02Z</time>
      </trkpt>
      <trkpt lat="43.545275023207068" lon="-1.093331007286906">
        <ele>28.5</ele>
        <time>2025-04-26T15:36:11Z</time>
      </trkpt>
      <trkpt lat="43.545307964086533" lon="-1.09432702884078">
        <ele>29.940000000000001</ele>
        <time>2025-04-26T15:36:17Z</time>
      </trkpt>
      <trkpt lat="43.545311987400055" lon="-1.094493996351957">
        <ele>30.420000000000002</ele>
        <time>2025-04-26T15:36:18Z</time>
      </trkpt>
      <trkpt lat="43.545368984341621" lon="-1.096489978954196">
        <ele>27.530000000000001</ele>
        <time>2025-04-26T15:36:30Z</time>
      </trkpt>
      <trkpt lat="43.545388011261821" lon="-1.097058020532131">
        <ele>26.57</ele>
        <time>2025-04-26T15:36:34Z</time>
      </trkpt>
      <trkpt lat="43.545304024592042" lon="-1.097062965855002">
        <ele>26.09</ele>
        <time>2025-04-26T15:36:35Z</time>
      </trkpt>
      <trkpt lat="43.54523504152894" lon="-1.097118034958839">
        <ele>26.09</ele>
        <time>2025-04-26T15:36:36Z</time>
      </trkpt>
      <trkpt lat="43.545161029323936" lon="-1.097176959738135">
        <ele>26.09</ele>
        <time>2025-04-26T15:36:37Z</time>
      </trkpt>
      <trkpt lat="43.54508500546217" lon="-1.097237979993224">
        <ele>26.09</ele>
        <time>2025-04-26T15:36:38Z</time>
      </trkpt>
      <trkpt lat="43.544995989650488" lon="-1.097296988591552">
        <ele>25.609999999999999</ele>
        <time>2025-04-26T15:36:39Z</time>
      </trkpt>
      <trkpt lat="43.544896999374032" lon="-1.097363037988544">
        <ele>25.129999999999999</ele>
        <time>2025-04-26T15:36:40Z</time>
      </trkpt>
      <trkpt lat="43.54478401131928" lon="-1.097431015223265">
        <ele>24.649999999999999</ele>
        <time>2025-04-26T15:36:41Z</time>
      </trkpt>
      <trkpt lat="43.544662976637483" lon="-1.097504021599889">
        <ele>24.170000000000002</ele>
        <time>2025-04-26T15:36:42Z</time>
      </trkpt>
      <trkpt lat="43.543659998103976" lon="-1.098153032362461">
        <ele>19.84</ele>
        <time>2025-04-26T15:36:51Z</time>
      </trkpt>
      <trkpt lat="43.542741006240249" lon="-1.098854010924697">
        <ele>18.399999999999999</ele>
        <time>2025-04-26T15:37:00Z</time>
      </trkpt>
      <trkpt lat="43.542667999863625" lon="-1.098996000364423">
        <ele>18.399999999999999</ele>
        <time>2025-04-26T15:37:01Z</time>
      </trkpt>
      <trkpt lat="43.542628018185496" lon="-1.099150981754065">
        <ele>17.920000000000002</ele>
        <time>2025-04-26T15:37:02Z</time>
      </trkpt>
      <trkpt lat="43.542617037892342" lon="-1.099255001172423">
        <ele>17.920000000000002</ele>
        <time>2025-04-26T15:37:03Z</time>
      </trkpt>
      <trkpt lat="43.542659031227231" lon="-1.0994409956038">
        <ele>17.920000000000002</ele>
        <time>2025-04-26T15:37:04Z</time>
      </trkpt>
      <trkpt lat="43.542692977935076" lon="-1.099589020013809">
        <ele>18.399999999999999</ele>
        <time>2025-04-26T15:37:05Z</time>
      </trkpt>
      <trkpt lat="43.542730025947094" lon="-1.09974299557507">
        <ele>18.879999999999999</ele>
        <time>2025-04-26T15:37:06Z</time>
      </trkpt>
      <trkpt lat="43.54310997761786" lon="-1.101100025698543">
        <ele>25.609999999999999</ele>
        <time>2025-04-26T15:37:15Z</time>
      </trkpt>
      <trkpt lat="43.543450031429529" lon="-1.102546993643045">
        <ele>27.050000000000001</ele>
        <time>2025-04-26T15:37:24Z</time>
      </trkpt>
      <trkpt lat="43.54373199865222" lon="-1.10380201600492">
        <ele>26.09</ele>
        <time>2025-04-26T15:37:32Z</time>
      </trkpt>
      <trkpt lat="43.543722024187446" lon="-1.104133017361164">
        <ele>24.649999999999999</ele>
        <time>2025-04-26T15:37:34Z</time>
      </trkpt>
      <trkpt lat="43.54371297173202" lon="-1.104453038424254">
        <ele>23.210000000000001</ele>
        <time>2025-04-26T15:37:36Z</time>
      </trkpt>
      <trkpt lat="43.543740967288613" lon="-1.104600979015231">
        <ele>22.73</ele>
        <time>2025-04-26T15:37:37Z</time>
      </trkpt>
      <trkpt lat="43.54377600364387" lon="-1.10470499843359">
        <ele>22.25</ele>
        <time>2025-04-26T15:37:38Z</time>
      </trkpt>
      <trkpt lat="43.543846998363733" lon="-1.104809017851949">
        <ele>22.25</ele>
        <time>2025-04-26T15:37:39Z</time>
      </trkpt>
      <trkpt lat="43.543897960335016" lon="-1.104883030056953">
        <ele>21.77</ele>
        <time>2025-04-26T15:37:40Z</time>
      </trkpt>
      <trkpt lat="43.544055037200451" lon="-1.104898033663631">
        <ele>21.77</ele>
        <time>2025-04-26T15:37:41Z</time>
      </trkpt>
      <trkpt lat="43.544055037200451" lon="-1.104898033663631">
        <ele>21.77</ele>
        <time>2025-04-26T15:37:42Z</time>
      </trkpt>
      <trkpt lat="43.544105999171734" lon="-1.104918988421559">
        <ele>21.289999999999999</ele>
        <time>2025-04-26T15:37:43Z</time>
      </trkpt>
      <trkpt lat="43.544174982234836" lon="-1.104980008676648">
        <ele>21.77</ele>
        <time>2025-04-26T15:37:44Z</time>
      </trkpt>
      <trkpt lat="43.544200966134667" lon="-1.105058966204524">
        <ele>21.289999999999999</ele>
        <time>2025-04-26T15:37:45Z</time>
      </trkpt>
      <trkpt lat="43.54422602802515" lon="-1.10513499006629">
        <ele>21.289999999999999</ele>
        <time>2025-04-26T15:37:46Z</time>
      </trkpt>
      <trkpt lat="43.544166013598442" lon="-1.105278991162777">
        <ele>20.809999999999999</ele>
        <time>2025-04-26T15:37:47Z</time>
      </trkpt>
      <trkpt lat="43.54420498944819" lon="-1.10541301779449">
        <ele>20.32</ele>
        <time>2025-04-26T15:37:49Z</time>
      </trkpt>
      <trkpt lat="43.544270033016801" lon="-1.105562970042229">
        <ele>20.32</ele>
        <time>2025-04-26T15:37:50Z</time>
      </trkpt>
      <trkpt lat="43.544360976666212" lon="-1.105767991393805">
        <ele>18.879999999999999</ele>
        <time>2025-04-26T15:37:52Z</time>
      </trkpt>
      <trkpt lat="43.54446399025619" lon="-1.106005031615496">
        <ele>18.399999999999999</ele>
        <time>2025-04-26T15:37:54Z</time>
      </trkpt>
      <trkpt lat="43.544514030218124" lon="-1.10612497664988">
        <ele>18.399999999999999</ele>
        <time>2025-04-26T15:37:55Z</time>
      </trkpt>
      <trkpt lat="43.544842014089227" lon="-1.106822015717626">
        <ele>17.440000000000001</ele>
        <time>2025-04-26T15:38:01Z</time>
      </trkpt>
      <trkpt lat="43.544896999374032" lon="-1.106923017650843">
        <ele>16.960000000000001</ele>
        <time>2025-04-26T15:38:02Z</time>
      </trkpt>
      <trkpt lat="43.544948967173696" lon="-1.107019996270537">
        <ele>16.48</ele>
        <time>2025-04-26T15:38:03Z</time>
      </trkpt>
      <trkpt lat="43.545113001018763" lon="-1.107321996241808">
        <ele>15.039999999999999</ele>
        <time>2025-04-26T15:38:06Z</time>
      </trkpt>
      <trkpt lat="43.545160023495555" lon="-1.107420986518264">
        <ele>15.039999999999999</ele>
        <time>2025-04-26T15:38:07Z</time>
      </trkpt>
      <trkpt lat="43.545200005173683" lon="-1.107543027028441">
        <ele>14.56</ele>
        <time>2025-04-26T15:38:08Z</time>
      </trkpt>
      <trkpt lat="43.545240992680192" lon="-1.10767001286149">
        <ele>14.56</ele>
        <time>2025-04-26T15:38:09Z</time>
      </trkpt>
      <trkpt lat="43.545283991843462" lon="-1.107801022008061">
        <ele>14.56</ele>
        <time>2025-04-26T15:38:10Z</time>
      </trkpt>
      <trkpt lat="43.545326991006732" lon="-1.107935970649123">
        <ele>14.08</ele>
        <time>2025-04-26T15:38:11Z</time>
      </trkpt>
      <trkpt lat="43.545747008174658" lon="-1.109223011881113">
        <ele>16.48</ele>
        <time>2025-04-26T15:38:20Z</time>
      </trkpt>
      <trkpt lat="43.546169959008694" lon="-1.110577024519444">
        <ele>20.809999999999999</ele>
        <time>2025-04-26T15:38:29Z</time>
      </trkpt>
      <trkpt lat="43.546198038384318" lon="-1.11074298620224">
        <ele>21.289999999999999</ele>
        <time>2025-04-26T15:38:30Z</time>
      </trkpt>
      <trkpt lat="43.546222010627389" lon="-1.110897967591882">
        <ele>21.289999999999999</ele>
        <time>2025-04-26T15:38:31Z</time>
      </trkpt>
      <trkpt lat="43.546222010627389" lon="-1.111067030578852">
        <ele>21.77</ele>
        <time>2025-04-26T15:38:32Z</time>
      </trkpt>
      <trkpt lat="43.546222010627389" lon="-1.111235003918409">
        <ele>21.77</ele>
        <time>2025-04-26T15:38:33Z</time>
      </trkpt>
      <trkpt lat="43.546300968155265" lon="-1.111733978614211">
        <ele>21.77</ele>
        <time>2025-04-26T15:38:36Z</time>
      </trkpt>
      <trkpt lat="43.546342961490154" lon="-1.111886026337743">
        <ele>21.77</ele>
        <time>2025-04-26T15:38:37Z</time>
      </trkpt>
      <trkpt lat="43.546411022543907" lon="-1.112012006342411">
        <ele>21.289999999999999</ele>
        <time>2025-04-26T15:38:38Z</time>
      </trkpt>
      <trkpt lat="43.546478999778628" lon="-1.112107979133725">
        <ele>21.289999999999999</ele>
        <time>2025-04-26T15:38:39Z</time>
      </trkpt>
      <trkpt lat="43.546574972569942" lon="-1.112228007987142">
        <ele>21.289999999999999</ele>
        <time>2025-04-26T15:38:40Z</time>
      </trkpt>
      <trkpt lat="43.546721991151571" lon="-1.11248399131">
        <ele>20.809999999999999</ele>
        <time>2025-04-26T15:38:42Z</time>
      </trkpt>
      <trkpt lat="43.546794997528195" lon="-1.11261198297143">
        <ele>20.809999999999999</ele>
        <time>2025-04-26T15:38:43Z</time>
      </trkpt>
      <trkpt lat="43.547318028286099" lon="-1.114076972007752">
        <ele>21.289999999999999</ele>
        <time>2025-04-26T15:38:53Z</time>
      </trkpt>
      <trkpt lat="43.547359015792608" lon="-1.114210998639464">
        <ele>21.289999999999999</ele>
        <time>2025-04-26T15:38:54Z</time>
      </trkpt>
      <trkpt lat="43.54740503244102" lon="-1.114364974200726">
        <ele>21.289999999999999</ele>
        <time>2025-04-26T15:38:56Z</time>
      </trkpt>
      <trkpt lat="43.547453982755542" lon="-1.114518027752638">
        <ele>20.809999999999999</ele>
        <time>2025-04-26T15:38:58Z</time>
      </trkpt>
      <trkpt lat="43.547486001625657" lon="-1.114612994715571">
        <ele>20.809999999999999</ele>
        <time>2025-04-26T15:38:59Z</time>
      </trkpt>
      <trkpt lat="43.54755699634552" lon="-1.11482597887516">
        <ele>20.809999999999999</ele>
        <time>2025-04-26T15:39:01Z</time>
      </trkpt>
      <trkpt lat="43.547597983852029" lon="-1.114949025213718">
        <ele>20.809999999999999</ele>
        <time>2025-04-26T15:39:02Z</time>
      </trkpt>
      <trkpt lat="43.548020012676716" lon="-1.11630798317492">
        <ele>19.359999999999999</ele>
        <time>2025-04-26T15:39:11Z</time>
      </trkpt>
      <trkpt lat="43.548066029325128" lon="-1.116452990099788">
        <ele>19.359999999999999</ele>
        <time>2025-04-26T15:39:12Z</time>
      </trkpt>
      <trkpt lat="43.548553017899394" lon="-1.117977993562818">
        <ele>16</ele>
        <time>2025-04-26T15:39:22Z</time>
      </trkpt>
      <trkpt lat="43.549134973436594" lon="-1.119798962026835">
        <ele>12.15</ele>
        <time>2025-04-26T15:39:34Z</time>
      </trkpt>
      <trkpt lat="43.549331026151776" lon="-1.120412014424801">
        <ele>12.15</ele>
        <time>2025-04-26T15:39:38Z</time>
      </trkpt>
      <trkpt lat="43.549379976466298" lon="-1.120566995814443">
        <ele>12.630000000000001</ele>
        <time>2025-04-26T15:39:39Z</time>
      </trkpt>
      <trkpt lat="43.549977019429207" lon="-1.12238796427846">
        <ele>12.15</ele>
        <time>2025-04-26T15:39:51Z</time>
      </trkpt>
      <trkpt lat="43.550492003560066" lon="-1.123973987996578">
        <ele>12.630000000000001</ele>
        <time>2025-04-26T15:40:02Z</time>
      </trkpt>
      <trkpt lat="43.550677997991443" lon="-1.124533982947469">
        <ele>13.6</ele>
        <time>2025-04-26T15:40:10Z</time>
      </trkpt>
      <trkpt lat="43.550724014639854" lon="-1.124683013185859">
        <ele>14.08</ele>
        <time>2025-04-26T15:40:19Z</time>
      </trkpt>
      <trkpt lat="43.551001036539674" lon="-1.125560011714697">
        <ele>14.08</ele>
        <time>2025-04-26T15:40:27Z</time>
      </trkpt>
      <trkpt lat="43.551588021218777" lon="-1.12741400487721">
        <ele>15.039999999999999</ele>
        <time>2025-04-26T15:40:38Z</time>
      </trkpt>
      <trkpt lat="43.55200401507318" lon="-1.128641031682491">
        <ele>15.52</ele>
        <time>2025-04-26T15:40:47Z</time>
      </trkpt>
      <trkpt lat="43.552208030596375" lon="-1.128887962549925">
        <ele>15.52</ele>
        <time>2025-04-26T15:40:53Z</time>
      </trkpt>
      <trkpt lat="43.552208030596375" lon="-1.129016960039735">
        <ele>15.52</ele>
        <time>2025-04-26T15:40:54Z</time>
      </trkpt>
      <trkpt lat="43.552163019776344" lon="-1.129201026633382">
        <ele>15.52</ele>
        <time>2025-04-26T15:40:55Z</time>
      </trkpt>
      <trkpt lat="43.552200989797711" lon="-1.129317032173276">
        <ele>15.52</ele>
        <time>2025-04-26T15:40:56Z</time>
      </trkpt>
      <trkpt lat="43.552242983132601" lon="-1.129442006349564">
        <ele>15.52</ele>
        <time>2025-04-26T15:40:57Z</time>
      </trkpt>
      <trkpt lat="43.552287993952632" lon="-1.129577960819006">
        <ele>15.039999999999999</ele>
        <time>2025-04-26T15:40:58Z</time>
      </trkpt>
      <trkpt lat="43.552708011120558" lon="-1.130884028971195">
        <ele>16.960000000000001</ele>
        <time>2025-04-26T15:41:06Z</time>
      </trkpt>
      <trkpt lat="43.553290972486138" lon="-1.132736010476947">
        <ele>18.879999999999999</ele>
        <time>2025-04-26T15:41:18Z</time>
      </trkpt>
      <trkpt lat="43.553481996059418" lon="-1.133304974064231">
        <ele>19.359999999999999</ele>
        <time>2025-04-26T15:41:22Z</time>
      </trkpt>
      <trkpt lat="43.553556008264422" lon="-1.133405975997448">
        <ele>19.359999999999999</ele>
        <time>2025-04-26T15:41:23Z</time>
      </trkpt>
      <trkpt lat="43.553631026297808" lon="-1.133507983759046">
        <ele>19.359999999999999</ele>
        <time>2025-04-26T15:41:24Z</time>
      </trkpt>
      <trkpt lat="43.553769998252392" lon="-1.133708981797099">
        <ele>19.359999999999999</ele>
        <time>2025-04-26T15:41:26Z</time>
      </trkpt>
      <trkpt lat="43.553775027394295" lon="-1.133861029520631">
        <ele>19.359999999999999</ele>
        <time>2025-04-26T15:41:27Z</time>
      </trkpt>
      <trkpt lat="43.553775027394295" lon="-1.133997989818454">
        <ele>19.359999999999999</ele>
        <time>2025-04-26T15:41:28Z</time>
      </trkpt>
      <trkpt lat="43.553775027394295" lon="-1.134145008400083">
        <ele>18.879999999999999</ele>
        <time>2025-04-26T15:41:29Z</time>
      </trkpt>
      <trkpt lat="43.553785001859069" lon="-1.134306024760008">
        <ele>18.879999999999999</ele>
        <time>2025-04-26T15:41:30Z</time>
      </trkpt>
      <trkpt lat="43.553826995193958" lon="-1.134447008371353">
        <ele>18.879999999999999</ele>
        <time>2025-04-26T15:41:31Z</time>
      </trkpt>
      <trkpt lat="43.553866976872087" lon="-1.134582962840796">
        <ele>18.879999999999999</ele>
        <time>2025-04-26T15:41:32Z</time>
      </trkpt>
      <trkpt lat="43.553910981863737" lon="-1.134721012786031">
        <ele>18.399999999999999</ele>
        <time>2025-04-26T15:41:33Z</time>
      </trkpt>
      <trkpt lat="43.554087001830339" lon="-1.135015971958637">
        <ele>16</ele>
        <time>2025-04-26T15:41:36Z</time>
      </trkpt>
      <trkpt lat="43.55415103957057" lon="-1.135104987770319">
        <ele>16</ele>
        <time>2025-04-26T15:41:37Z</time>
      </trkpt>
      <trkpt lat="43.554219016805291" lon="-1.135195009410381">
        <ele>15.52</ele>
        <time>2025-04-26T15:41:38Z</time>
      </trkpt>
      <trkpt lat="43.554263021796942" lon="-1.135316966101527">
        <ele>15.52</ele>
        <time>2025-04-26T15:41:39Z</time>
      </trkpt>
      <trkpt lat="43.554250029847026" lon="-1.135445041581988">
        <ele>15.52</ele>
        <time>2025-04-26T15:41:40Z</time>
      </trkpt>
      <trkpt lat="43.554271990433335" lon="-1.135603040456772">
        <ele>15.52</ele>
        <time>2025-04-26T15:41:41Z</time>
      </trkpt>
      <trkpt lat="43.554335022345185" lon="-1.135916020721197">
        <ele>16</ele>
        <time>2025-04-26T15:41:43Z</time>
      </trkpt>
      <trkpt lat="43.554414985701442" lon="-1.136252973228693">
        <ele>16</ele>
        <time>2025-04-26T15:41:45Z</time>
      </trkpt>
      <trkpt lat="43.554841037839651" lon="-1.137676974758506">
        <ele>16.960000000000001</ele>
        <time>2025-04-26T15:41:53Z</time>
      </trkpt>
      <trkpt lat="43.554895017296076" lon="-1.137848971411586">
        <ele>17.440000000000001</ele>
        <time>2025-04-26T15:41:54Z</time>
      </trkpt>
      <trkpt lat="43.555655004456639" lon="-1.14021903835237">
        <ele>24.170000000000002</ele>
        <time>2025-04-26T15:42:07Z</time>
      </trkpt>
      <trkpt lat="43.556346008554101" lon="-1.14243102259934">
        <ele>33.780000000000001</ele>
        <time>2025-04-26T15:42:18Z</time>
      </trkpt>
      <trkpt lat="43.557108007371426" lon="-1.144798994064331">
        <ele>35.710000000000001</ele>
        <time>2025-04-26T15:42:28Z</time>
      </trkpt>
      <trkpt lat="43.558264961466193" lon="-1.148450989276171">
        <ele>28.98</ele>
        <time>2025-04-26T15:42:43Z</time>
      </trkpt>
      <trkpt lat="43.559047998860478" lon="-1.151010990142822">
        <ele>30.420000000000002</ele>
        <time>2025-04-26T15:42:54Z</time>
      </trkpt>
      <trkpt lat="43.559788037091494" lon="-1.153364963829517">
        <ele>32.340000000000003</ele>
        <time>2025-04-26T15:43:04Z</time>
      </trkpt>
      <trkpt lat="43.560427995398641" lon="-1.155952960252762">
        <ele>31.379999999999999</ele>
        <time>2025-04-26T15:43:14Z</time>
      </trkpt>
      <trkpt lat="43.560882965102792" lon="-1.158717982470989">
        <ele>28.02</ele>
        <time>2025-04-26T15:43:25Z</time>
      </trkpt>
      <trkpt lat="43.561097038909793" lon="-1.16000896319747">
        <ele>27.530000000000001</ele>
        <time>2025-04-26T15:43:30Z</time>
      </trkpt>
      <trkpt lat="43.561515966430306" lon="-1.162593020126224">
        <ele>29.460000000000001</ele>
        <time>2025-04-26T15:43:40Z</time>
      </trkpt>
      <trkpt lat="43.562047965824604" lon="-1.165886018425226">
        <ele>30.420000000000002</ele>
        <time>2025-04-26T15:43:53Z</time>
      </trkpt>
      <trkpt lat="43.562500001862645" lon="-1.168655985966325">
        <ele>29.940000000000001</ele>
        <time>2025-04-26T15:44:04Z</time>
      </trkpt>
      <trkpt lat="43.562827985733747" lon="-1.170687004923821">
        <ele>30.420000000000002</ele>
        <time>2025-04-26T15:44:12Z</time>
      </trkpt>
      <trkpt lat="43.563291002064943" lon="-1.173430988565087">
        <ele>33.299999999999997</ele>
        <time>2025-04-26T15:44:23Z</time>
      </trkpt>
      <trkpt lat="43.563366020098329" lon="-1.173868020996451">
        <ele>33.780000000000001</ele>
        <time>2025-04-26T15:44:25Z</time>
      </trkpt>
      <trkpt lat="43.563403990119696" lon="-1.174069019034505">
        <ele>33.780000000000001</ele>
        <time>2025-04-26T15:44:26Z</time>
      </trkpt>
      <trkpt lat="43.56343399733305" lon="-1.174270017072558">
        <ele>34.259999999999998</ele>
        <time>2025-04-26T15:44:27Z</time>
      </trkpt>
      <trkpt lat="43.563488982617855" lon="-1.174641000106931">
        <ele>34.259999999999998</ele>
        <time>2025-04-26T15:44:29Z</time>
      </trkpt>
      <trkpt lat="43.563726022839546" lon="-1.176198022440076">
        <ele>32.82</ele>
        <time>2025-04-26T15:44:38Z</time>
      </trkpt>
      <trkpt lat="43.563944958150387" lon="-1.177551029250026">
        <ele>29.460000000000001</ele>
        <time>2025-04-26T15:44:47Z</time>
      </trkpt>
      <trkpt lat="43.564243018627167" lon="-1.179351964965463">
        <ele>29.940000000000001</ele>
        <time>2025-04-26T15:44:58Z</time>
      </trkpt>
      <trkpt lat="43.564619030803442" lon="-1.181090036407113">
        <ele>34.259999999999998</ele>
        <time>2025-04-26T15:45:09Z</time>
      </trkpt>
      <trkpt lat="43.565061008557677" lon="-1.182654015719891">
        <ele>35.229999999999997</ele>
        <time>2025-04-26T15:45:19Z</time>
      </trkpt>
      <trkpt lat="43.565086992457509" lon="-1.182812014594674">
        <ele>35.710000000000001</ele>
        <time>2025-04-26T15:45:20Z</time>
      </trkpt>
      <trkpt lat="43.565118005499244" lon="-1.183487009257078">
        <ele>35.710000000000001</ele>
        <time>2025-04-26T15:45:24Z</time>
      </trkpt>
      <trkpt lat="43.565097972750664" lon="-1.183653976768255">
        <ele>35.710000000000001</ele>
        <time>2025-04-26T15:45:25Z</time>
      </trkpt>
      <trkpt lat="43.565072994679213" lon="-1.1838139872998">
        <ele>35.710000000000001</ele>
        <time>2025-04-26T15:45:26Z</time>
      </trkpt>
      <trkpt lat="43.565029995515943" lon="-1.183977015316486">
        <ele>35.710000000000001</ele>
        <time>2025-04-26T15:45:27Z</time>
      </trkpt>
      <trkpt lat="43.564980961382389" lon="-1.184142976999283">
        <ele>35.710000000000001</ele>
        <time>2025-04-26T15:45:28Z</time>
      </trkpt>
      <trkpt lat="43.564914995804429" lon="-1.184326037764549">
        <ele>35.710000000000001</ele>
        <time>2025-04-26T15:45:29Z</time>
      </trkpt>
      <trkpt lat="43.564845006912947" lon="-1.184521000832319">
        <ele>35.710000000000001</ele>
        <time>2025-04-26T15:45:30Z</time>
      </trkpt>
      <trkpt lat="43.564070016145706" lon="-1.186569035053253">
        <ele>34.740000000000002</ele>
        <time>2025-04-26T15:45:39Z</time>
      </trkpt>
      <trkpt lat="43.562923958525062" lon="-1.189547963440418">
        <ele>35.229999999999997</ele>
        <time>2025-04-26T15:45:51Z</time>
      </trkpt>
      <trkpt lat="43.561993986368179" lon="-1.191950971260667">
        <ele>34.259999999999998</ele>
        <time>2025-04-26T15:46:01Z</time>
      </trkpt>
      <trkpt lat="43.560823034495115" lon="-1.195021010935307">
        <ele>33.299999999999997</ele>
        <time>2025-04-26T15:46:14Z</time>
      </trkpt>
      <trkpt lat="43.559803040698171" lon="-1.197644965723157">
        <ele>30.420000000000002</ele>
        <time>2025-04-26T15:46:25Z</time>
      </trkpt>
      <trkpt lat="43.558798972517252" lon="-1.200423985719681">
        <ele>27.050000000000001</ele>
        <time>2025-04-26T15:46:37Z</time>
      </trkpt>
      <trkpt lat="43.558734012767673" lon="-1.200676029548049">
        <ele>26.57</ele>
        <time>2025-04-26T15:46:38Z</time>
      </trkpt>
      <trkpt lat="43.558712974190712" lon="-1.200939975678921">
        <ele>26.57</ele>
        <time>2025-04-26T15:46:39Z</time>
      </trkpt>
      <trkpt lat="43.558695036917925" lon="-1.201205011457205">
        <ele>26.09</ele>
        <time>2025-04-26T15:46:40Z</time>
      </trkpt>
      <trkpt lat="43.558709034696221" lon="-1.201462000608444">
        <ele>25.609999999999999</ele>
        <time>2025-04-26T15:46:41Z</time>
      </trkpt>
      <trkpt lat="43.558739963918924" lon="-1.201727036386728">
        <ele>25.129999999999999</ele>
        <time>2025-04-26T15:46:42Z</time>
      </trkpt>
      <trkpt lat="43.558775000274181" lon="-1.202015960589051">
        <ele>24.649999999999999</ele>
        <time>2025-04-26T15:46:43Z</time>
      </trkpt>
      <trkpt lat="43.558847000822425" lon="-1.202233973890543">
        <ele>24.170000000000002</ele>
        <time>2025-04-26T15:46:44Z</time>
      </trkpt>
      <trkpt lat="43.558927970007062" lon="-1.202475959435105">
        <ele>23.210000000000001</ele>
        <time>2025-04-26T15:46:45Z</time>
      </trkpt>
      <trkpt lat="43.559036012738943" lon="-1.2026990018785">
        <ele>22.73</ele>
        <time>2025-04-26T15:46:46Z</time>
      </trkpt>
      <trkpt lat="43.55915897525847" lon="-1.202906034886837">
        <ele>22.25</ele>
        <time>2025-04-26T15:46:47Z</time>
      </trkpt>
      <trkpt lat="43.559301970526576" lon="-1.203090017661452">
        <ele>21.77</ele>
        <time>2025-04-26T15:46:48Z</time>
      </trkpt>
      <trkpt lat="43.559454018250108" lon="-1.203266037628055">
        <ele>21.289999999999999</ele>
        <time>2025-04-26T15:46:49Z</time>
      </trkpt>
      <trkpt lat="43.559630960226059" lon="-1.203399980440736">
        <ele>20.809999999999999</ele>
        <time>2025-04-26T15:46:50Z</time>
      </trkpt>
      <trkpt lat="43.559808991849422" lon="-1.20353601872921">
        <ele>19.84</ele>
        <time>2025-04-26T15:46:51Z</time>
      </trkpt>
      <trkpt lat="43.560711974278092" lon="-1.204042034223676">
        <ele>15.52</ele>
        <time>2025-04-26T15:46:56Z</time>
      </trkpt>
      <trkpt lat="43.560898974537849" lon="-1.204097019508481">
        <ele>15.039999999999999</ele>
        <time>2025-04-26T15:46:57Z</time>
      </trkpt>
      <trkpt lat="43.561097038909793" lon="-1.204140018671751">
        <ele>14.56</ele>
        <time>2025-04-26T15:46:58Z</time>
      </trkpt>
      <trkpt lat="43.561294013634324" lon="-1.20413800701499">
        <ele>14.08</ele>
        <time>2025-04-26T15:46:59Z</time>
      </trkpt>
      <trkpt lat="43.561495011672378" lon="-1.204120991751552">
        <ele>13.6</ele>
        <time>2025-04-26T15:47:00Z</time>
      </trkpt>
      <trkpt lat="43.561695003882051" lon="-1.204100036993623">
        <ele>13.119999999999999</ele>
        <time>2025-04-26T15:47:01Z</time>
      </trkpt>
      <trkpt lat="43.56437997892499" lon="-1.203612964600325">
        <ele>5.42</ele>
        <time>2025-04-26T15:47:15Z</time>
      </trkpt>
      <trkpt lat="43.565817978233099" lon="-1.203348012641072">
        <ele>0.62</ele>
        <time>2025-04-26T15:47:22Z</time>
      </trkpt>
      <trkpt lat="43.567219013348222" lon="-1.2031289935112">
        <ele>-2.75</ele>
        <time>2025-04-26T15:47:29Z</time>
      </trkpt>
      <trkpt lat="43.568427013233304" lon="-1.203238964080811">
        <ele>-2.75</ele>
        <time>2025-04-26T15:47:35Z</time>
      </trkpt>
      <trkpt lat="43.568614013493061" lon="-1.203335020691156">
        <ele>-2.75</ele>
        <time>2025-04-26T15:47:36Z</time>
      </trkpt>
      <trkpt lat="43.568796990439296" lon="-1.203428981825709">
        <ele>-3.23</ele>
        <time>2025-04-26T15:47:37Z</time>
      </trkpt>
      <trkpt lat="43.568974016234279" lon="-1.203520009294152">
        <ele>-2.75</ele>
        <time>2025-04-26T15:47:38Z</time>
      </trkpt>
      <trkpt lat="43.569150036200881" lon="-1.203636014834046">
        <ele>-2.75</ele>
        <time>2025-04-26T15:47:39Z</time>
      </trkpt>
      <trkpt lat="43.570007001981139" lon="-1.204805038869381">
        <ele>-0.82</ele>
        <time>2025-04-26T15:47:45Z</time>
      </trkpt>
      <trkpt lat="43.570379996672273" lon="-1.205780021846294">
        <ele>-1.3</ele>
        <time>2025-04-26T15:47:49Z</time>
      </trkpt>
      <trkpt lat="43.570933034643531" lon="-1.207867031916976">
        <ele>-0.82</ele>
        <time>2025-04-26T15:47:57Z</time>
      </trkpt>
      <trkpt lat="43.571611968800426" lon="-1.210673963651061">
        <ele>12.15</ele>
        <time>2025-04-26T15:48:08Z</time>
      </trkpt>
      <trkpt lat="43.57226500287652" lon="-1.213406966999173">
        <ele>29.460000000000001</ele>
        <time>2025-04-26T15:48:19Z</time>
      </trkpt>
      <trkpt lat="43.572660963982344" lon="-1.215107990428805">
        <ele>39.07</ele>
        <time>2025-04-26T15:48:26Z</time>
      </trkpt>
      <trkpt lat="43.572691977024078" lon="-1.215361962094903">
        <ele>40.509999999999998</ele>
        <time>2025-04-26T15:48:27Z</time>
      </trkpt>
      <trkpt lat="43.572706980630755" lon="-1.215625992044807">
        <ele>41.469999999999999</ele>
        <time>2025-04-26T15:48:28Z</time>
      </trkpt>
      <trkpt lat="43.5727150272578" lon="-1.215889016166329">
        <ele>42.920000000000002</ele>
        <time>2025-04-26T15:48:29Z</time>
      </trkpt>
      <trkpt lat="43.572701029479504" lon="-1.216198978945613">
        <ele>44.359999999999999</ele>
        <time>2025-04-26T15:48:30Z</time>
      </trkpt>
      <trkpt lat="43.572685020044446" lon="-1.216411963105202">
        <ele>45.799999999999997</ele>
        <time>2025-04-26T15:48:31Z</time>
      </trkpt>
      <trkpt lat="43.572341026738286" lon="-1.217948030680418">
        <ele>54.93</ele>
        <time>2025-04-26T15:48:38Z</time>
      </trkpt>
      <trkpt lat="43.571638958528638" lon="-1.21986597776413">
        <ele>58.299999999999997</ele>
        <time>2025-04-26T15:48:48Z</time>
      </trkpt>
      <trkpt lat="43.570621982216835" lon="-1.221706978976727">
        <ele>56.859999999999999</ele>
        <time>2025-04-26T15:48:57Z</time>
      </trkpt>
      <trkpt lat="43.569382969290018" lon="-1.223271964117885">
        <ele>55.890000000000001</ele>
        <time>2025-04-26T15:49:06Z</time>
      </trkpt>
      <trkpt lat="43.56805301271379" lon="-1.224702000617981">
        <ele>52.530000000000001</ele>
        <time>2025-04-26T15:49:15Z</time>
      </trkpt>
      <trkpt lat="43.567539034411311" lon="-1.225368026643992">
        <ele>54.93</ele>
        <time>2025-04-26T15:49:19Z</time>
      </trkpt>
      <trkpt lat="43.567417999729514" lon="-1.225562989711762">
        <ele>55.409999999999997</ele>
        <time>2025-04-26T15:49:20Z</time>
      </trkpt>
      <trkpt lat="43.567314986139536" lon="-1.225770022720099">
        <ele>55.890000000000001</ele>
        <time>2025-04-26T15:49:21Z</time>
      </trkpt>
      <trkpt lat="43.567244997248054" lon="-1.226023994386196">
        <ele>56.369999999999997</ele>
        <time>2025-04-26T15:49:22Z</time>
      </trkpt>
      <trkpt lat="43.567178025841713" lon="-1.226271009072661">
        <ele>56.859999999999999</ele>
        <time>2025-04-26T15:49:23Z</time>
      </trkpt>
      <trkpt lat="43.567117005586624" lon="-1.226514000445604">
        <ele>57.340000000000003</ele>
        <time>2025-04-26T15:49:24Z</time>
      </trkpt>
      <trkpt lat="43.567085992544889" lon="-1.226774007081986">
        <ele>58.299999999999997</ele>
        <time>2025-04-26T15:49:25Z</time>
      </trkpt>
      <trkpt lat="43.567053973674774" lon="-1.227038037031889">
        <ele>58.780000000000001</ele>
        <time>2025-04-26T15:49:26Z</time>
      </trkpt>
      <trkpt lat="43.566676033660769" lon="-1.230546031147242">
        <ele>61.659999999999997</ele>
        <time>2025-04-26T15:49:39Z</time>
      </trkpt>
      <trkpt lat="43.566317958757281" lon="-1.23408897779882">
        <ele>56.859999999999999</ele>
        <time>2025-04-26T15:49:52Z</time>
      </trkpt>
      <trkpt lat="43.565911017358303" lon="-1.23799997381866">
        <ele>52.530000000000001</ele>
        <time>2025-04-26T15:50:06Z</time>
      </trkpt>
      <trkpt lat="43.565783025696874" lon="-1.239941976964474">
        <ele>50.609999999999999</ele>
        <time>2025-04-26T15:50:13Z</time>
      </trkpt>
      <trkpt lat="43.565642964094877" lon="-1.242223028093576">
        <ele>40.509999999999998</ele>
        <time>2025-04-26T15:50:22Z</time>
      </trkpt>
      <trkpt lat="43.565536011010408" lon="-1.24437902122736">
        <ele>30.899999999999999</ele>
        <time>2025-04-26T15:50:30Z</time>
      </trkpt>
      <trkpt lat="43.565440038219094" lon="-1.246659988537431">
        <ele>29.940000000000001</ele>
        <time>2025-04-26T15:50:39Z</time>
      </trkpt>
      <trkpt lat="43.565396033227444" lon="-1.247068019583821">
        <ele>30.899999999999999</ele>
        <time>2025-04-26T15:50:41Z</time>
      </trkpt>
      <trkpt lat="43.56508799828589" lon="-1.248810030519962">
        <ele>34.740000000000002</ele>
        <time>2025-04-26T15:50:50Z</time>
      </trkpt>
      <trkpt lat="43.564623976126313" lon="-1.251098038628697">
        <ele>35.229999999999997</ele>
        <time>2025-04-26T15:50:59Z</time>
      </trkpt>
      <trkpt lat="43.563921991735697" lon="-1.254513999447227">
        <ele>34.740000000000002</ele>
        <time>2025-04-26T15:51:11Z</time>
      </trkpt>
      <trkpt lat="43.563237022608519" lon="-1.257918979972601">
        <ele>32.340000000000003</ele>
        <time>2025-04-26T15:51:23Z</time>
      </trkpt>
      <trkpt lat="43.562803007662296" lon="-1.260058041661978">
        <ele>30.899999999999999</ele>
        <time>2025-04-26T15:51:31Z</time>
      </trkpt>
      <trkpt lat="43.562225997447968" lon="-1.262905960902572">
        <ele>30.420000000000002</ele>
        <time>2025-04-26T15:51:42Z</time>
      </trkpt>
      <trkpt lat="43.561745965853333" lon="-1.265248032286763">
        <ele>34.740000000000002</ele>
        <time>2025-04-26T15:51:51Z</time>
      </trkpt>
      <trkpt lat="43.561336006969213" lon="-1.267248960211873">
        <ele>38.590000000000003</ele>
        <time>2025-04-26T15:51:59Z</time>
      </trkpt>
      <trkpt lat="43.560842983424664" lon="-1.269635958597064">
        <ele>42.439999999999998</ele>
        <time>2025-04-26T15:52:10Z</time>
      </trkpt>
      <trkpt lat="43.560482980683446" lon="-1.27121502533555">
        <ele>42.920000000000002</ele>
        <time>2025-04-26T15:52:20Z</time>
      </trkpt>
      <trkpt lat="43.560128007084131" lon="-1.272943960502744">
        <ele>42.439999999999998</ele>
        <time>2025-04-26T15:52:31Z</time>
      </trkpt>
      <trkpt lat="43.55937397107482" lon="-1.275413017719984">
        <ele>36.189999999999998</ele>
        <time>2025-04-26T15:52:47Z</time>
      </trkpt>
      <trkpt lat="43.558824034407735" lon="-1.277033993974328">
        <ele>35.710000000000001</ele>
        <time>2025-04-26T15:52:56Z</time>
      </trkpt>
      <trkpt lat="43.558160020038486" lon="-1.278984965756536">
        <ele>38.109999999999999</ele>
        <time>2025-04-26T15:53:04Z</time>
      </trkpt>
      <trkpt lat="43.557070037350059" lon="-1.282136980444193">
        <ele>39.549999999999997</ele>
        <time>2025-04-26T15:53:16Z</time>
      </trkpt>
      <trkpt lat="43.556070998311043" lon="-1.285081962123513">
        <ele>40.030000000000001</ele>
        <time>2025-04-26T15:53:28Z</time>
      </trkpt>
      <trkpt lat="43.555344035848975" lon="-1.287213983014226">
        <ele>40.990000000000002</ele>
        <time>2025-04-26T15:53:37Z</time>
      </trkpt>
      <trkpt lat="43.55479896068573" lon="-1.288794977590442">
        <ele>45.799999999999997</ele>
        <time>2025-04-26T15:53:44Z</time>
      </trkpt>
      <trkpt lat="43.554241983219981" lon="-1.290581999346614">
        <ele>46.759999999999998</ele>
        <time>2025-04-26T15:53:52Z</time>
      </trkpt>
      <trkpt lat="43.554225973784924" lon="-1.290803030133247">
        <ele>46.759999999999998</ele>
        <time>2025-04-26T15:53:53Z</time>
      </trkpt>
      <trkpt lat="43.554209964349866" lon="-1.291030012071133">
        <ele>46.759999999999998</ele>
        <time>2025-04-26T15:53:54Z</time>
      </trkpt>
      <trkpt lat="43.554161014035344" lon="-1.293563023209572">
        <ele>44.359999999999999</ele>
        <time>2025-04-26T15:54:04Z</time>
      </trkpt>
      <trkpt lat="43.554139975458384" lon="-1.297594970092177">
        <ele>40.030000000000001</ele>
        <time>2025-04-26T15:54:18Z</time>
      </trkpt>
      <trkpt lat="43.554104017093778" lon="-1.301024006679654">
        <ele>39.07</ele>
        <time>2025-04-26T15:54:30Z</time>
      </trkpt>
      <trkpt lat="43.554096976295114" lon="-1.304332008585334">
        <ele>40.030000000000001</ele>
        <time>2025-04-26T15:54:43Z</time>
      </trkpt>
      <trkpt lat="43.554075015708804" lon="-1.306563019752502">
        <ele>40.990000000000002</ele>
        <time>2025-04-26T15:54:52Z</time>
      </trkpt>
      <trkpt lat="43.554052971303463" lon="-1.308960998430848">
        <ele>43.399999999999999</ele>
        <time>2025-04-26T15:55:02Z</time>
      </trkpt>
      <trkpt lat="43.554032016545534" lon="-1.311663994565606">
        <ele>49.649999999999999</ele>
        <time>2025-04-26T15:55:13Z</time>
      </trkpt>
      <trkpt lat="43.554010977968574" lon="-1.314045041799545">
        <ele>53.009999999999998</ele>
        <time>2025-04-26T15:55:23Z</time>
      </trkpt>
      <trkpt lat="43.554010977968574" lon="-1.316752983257175">
        <ele>54.450000000000003</ele>
        <time>2025-04-26T15:55:35Z</time>
      </trkpt>
      <trkpt lat="43.554010977968574" lon="-1.318781990557909">
        <ele>56.369999999999997</ele>
        <time>2025-04-26T15:55:44Z</time>
      </trkpt>
      <trkpt lat="43.553974013775587" lon="-1.319592017680407">
        <ele>59.740000000000002</ele>
        <time>2025-04-26T15:55:48Z</time>
      </trkpt>
      <trkpt lat="43.553930008783937" lon="-1.319756973534823">
        <ele>60.219999999999999</ele>
        <time>2025-04-26T15:55:49Z</time>
      </trkpt>
      <trkpt lat="43.553862031549215" lon="-1.319882031530142">
        <ele>61.18</ele>
        <time>2025-04-26T15:55:50Z</time>
      </trkpt>
      <trkpt lat="43.553783996030688" lon="-1.320013962686062">
        <ele>61.659999999999997</ele>
        <time>2025-04-26T15:55:51Z</time>
      </trkpt>
      <trkpt lat="43.553702021017671" lon="-1.320152012631297">
        <ele>62.140000000000001</ele>
        <time>2025-04-26T15:55:52Z</time>
      </trkpt>
      <trkpt lat="43.553613005205989" lon="-1.320271035656333">
        <ele>62.619999999999997</ele>
        <time>2025-04-26T15:55:53Z</time>
      </trkpt>
      <trkpt lat="43.553494988009334" lon="-1.320353010669351">
        <ele>62.619999999999997</ele>
        <time>2025-04-26T15:55:54Z</time>
      </trkpt>
      <trkpt lat="43.553366996347904" lon="-1.320441020652652">
        <ele>63.100000000000001</ele>
        <time>2025-04-26T15:55:55Z</time>
      </trkpt>
      <trkpt lat="43.553247973322868" lon="-1.32045996375382">
        <ele>63.579999999999998</ele>
        <time>2025-04-26T15:55:56Z</time>
      </trkpt>
      <trkpt lat="43.553105983883142" lon="-1.320447977632284">
        <ele>64.069999999999993</ele>
        <time>2025-04-26T15:55:57Z</time>
      </trkpt>
      <trkpt lat="43.552960976958275" lon="-1.320435991510749">
        <ele>64.549999999999997</ele>
        <time>2025-04-26T15:55:58Z</time>
      </trkpt>
      <trkpt lat="43.552814964205027" lon="-1.320424005389214">
        <ele>65.030000000000001</ele>
        <time>2025-04-26T15:55:59Z</time>
      </trkpt>
      <trkpt lat="43.551292978227139" lon="-1.320217978209257">
        <ele>62.619999999999997</ele>
        <time>2025-04-26T15:56:09Z</time>
      </trkpt>
      <trkpt lat="43.550613038241863" lon="-1.320185959339142">
        <ele>60.700000000000003</ele>
        <time>2025-04-26T15:56:13Z</time>
      </trkpt>
      <trkpt lat="43.550452021881938" lon="-1.320240022614598">
        <ele>59.740000000000002</ele>
        <time>2025-04-26T15:56:14Z</time>
      </trkpt>
      <trkpt lat="43.550282036885619" lon="-1.320303976535797">
        <ele>58.780000000000001</ele>
        <time>2025-04-26T15:56:15Z</time>
      </trkpt>
      <trkpt lat="43.550129989162087" lon="-1.320430040359497">
        <ele>57.82</ele>
        <time>2025-04-26T15:56:16Z</time>
      </trkpt>
      <trkpt lat="43.549970984458923" lon="-1.320560965687037">
        <ele>56.859999999999999</ele>
        <time>2025-04-26T15:56:17Z</time>
      </trkpt>
      <trkpt lat="43.549847016111016" lon="-1.32075903005898">
        <ele>55.890000000000001</ele>
        <time>2025-04-26T15:56:18Z</time>
      </trkpt>
      <trkpt lat="43.549736039713025" lon="-1.320971008390188">
        <ele>54.93</ele>
        <time>2025-04-26T15:56:19Z</time>
      </trkpt>
      <trkpt lat="43.549629002809525" lon="-1.321178963407874">
        <ele>54.450000000000003</ele>
        <time>2025-04-26T15:56:20Z</time>
      </trkpt>
      <trkpt lat="43.549549039453268" lon="-1.321406029164791">
        <ele>53.969999999999999</ele>
        <time>2025-04-26T15:56:21Z</time>
      </trkpt>
      <trkpt lat="43.549480978399515" lon="-1.321650026366115">
        <ele>53.490000000000002</ele>
        <time>2025-04-26T15:56:22Z</time>
      </trkpt>
      <trkpt lat="43.548723002895713" lon="-1.324358973652124">
        <ele>50.130000000000003</ele>
        <time>2025-04-26T15:56:33Z</time>
      </trkpt>
      <trkpt lat="43.548228973522782" lon="-1.32621699012816">
        <ele>47.719999999999999</ele>
        <time>2025-04-26T15:56:39Z</time>
      </trkpt>
      <trkpt lat="43.547633020207286" lon="-1.328302994370461">
        <ele>42.920000000000002</ele>
        <time>2025-04-26T15:56:47Z</time>
      </trkpt>
      <trkpt lat="43.547489019110799" lon="-1.328810015693307">
        <ele>40.990000000000002</ele>
        <time>2025-04-26T15:56:49Z</time>
      </trkpt>
      <trkpt lat="43.547415006905794" lon="-1.329070022329688">
        <ele>40.030000000000001</ele>
        <time>2025-04-26T15:56:50Z</time>
      </trkpt>
      <trkpt lat="43.547338983044028" lon="-1.329340003430843">
        <ele>39.07</ele>
        <time>2025-04-26T15:56:51Z</time>
      </trkpt>
      <trkpt lat="43.547263965010643" lon="-1.329605039209127">
        <ele>37.630000000000003</ele>
        <time>2025-04-26T15:56:52Z</time>
      </trkpt>
      <trkpt lat="43.54719297029078" lon="-1.329859010875225">
        <ele>36.670000000000002</ele>
        <time>2025-04-26T15:56:53Z</time>
      </trkpt>
      <trkpt lat="43.54663398116827" lon="-1.331892041489482">
        <ele>28.98</ele>
        <time>2025-04-26T15:57:01Z</time>
      </trkpt>
      <trkpt lat="43.546132994815707" lon="-1.333705969154835">
        <ele>31.379999999999999</ele>
        <time>2025-04-26T15:57:08Z</time>
      </trkpt>
      <trkpt lat="43.545896960422397" lon="-1.334699979051948">
        <ele>33.780000000000001</ele>
        <time>2025-04-26T15:57:12Z</time>
      </trkpt>
      <trkpt lat="43.54583702981472" lon="-1.334970965981484">
        <ele>34.259999999999998</ele>
        <time>2025-04-26T15:57:13Z</time>
      </trkpt>
      <trkpt lat="43.545807022601366" lon="-1.335253017023206">
        <ele>34.259999999999998</ele>
        <time>2025-04-26T15:57:14Z</time>
      </trkpt>
      <trkpt lat="43.54579595848918" lon="-1.335540013387799">
        <ele>34.259999999999998</ele>
        <time>2025-04-26T15:57:15Z</time>
      </trkpt>
      <trkpt lat="43.545820014551282" lon="-1.335828015580773">
        <ele>34.740000000000002</ele>
        <time>2025-04-26T15:57:16Z</time>
      </trkpt>
      <trkpt lat="43.545856978744268" lon="-1.336125992238522">
        <ele>34.740000000000002</ele>
        <time>2025-04-26T15:57:17Z</time>
      </trkpt>
      <trkpt lat="43.545911964029074" lon="-1.336399996653199">
        <ele>34.740000000000002</ele>
        <time>2025-04-26T15:57:18Z</time>
      </trkpt>
      <trkpt lat="43.54596896097064" lon="-1.336685987189412">
        <ele>34.740000000000002</ele>
        <time>2025-04-26T15:57:19Z</time>
      </trkpt>
      <trkpt lat="43.546351008117199" lon="-1.33857199922204">
        <ele>34.740000000000002</ele>
        <time>2025-04-26T15:57:26Z</time>
      </trkpt>
      <trkpt lat="43.546351008117199" lon="-1.339128976687789">
        <ele>35.710000000000001</ele>
        <time>2025-04-26T15:57:28Z</time>
      </trkpt>
      <trkpt lat="43.546351008117199" lon="-1.339411027729511">
        <ele>36.189999999999998</ele>
        <time>2025-04-26T15:57:29Z</time>
      </trkpt>
      <trkpt lat="43.546316977590322" lon="-1.339697018265724">
        <ele>36.670000000000002</ele>
        <time>2025-04-26T15:57:30Z</time>
      </trkpt>
      <trkpt lat="43.546276995912194" lon="-1.339970016852021">
        <ele>37.630000000000003</ele>
        <time>2025-04-26T15:57:31Z</time>
      </trkpt>
      <trkpt lat="43.546225028112531" lon="-1.340229017660022">
        <ele>38.590000000000003</ele>
        <time>2025-04-26T15:57:32Z</time>
      </trkpt>
      <trkpt lat="43.546069040894508" lon="-1.340943994000554">
        <ele>41.950000000000003</ele>
        <time>2025-04-26T15:57:35Z</time>
      </trkpt>
      <trkpt lat="43.545885980129242" lon="-1.341805988922715">
        <ele>46.759999999999998</ele>
        <time>2025-04-26T15:57:40Z</time>
      </trkpt>
      <trkpt lat="43.545566964894533" lon="-1.34323401376605">
        <ele>51.090000000000003</ele>
        <time>2025-04-26T15:57:49Z</time>
      </trkpt>
      <trkpt lat="43.54549496434629" lon="-1.34355797432363">
        <ele>51.57</ele>
        <time>2025-04-26T15:57:51Z</time>
      </trkpt>
      <trkpt lat="43.545459005981684" lon="-1.343721002340317">
        <ele>52.049999999999997</ele>
        <time>2025-04-26T15:57:52Z</time>
      </trkpt>
      <trkpt lat="43.545118030160666" lon="-1.345289004966617">
        <ele>54.450000000000003</ele>
        <time>2025-04-26T15:58:02Z</time>
      </trkpt>
      <trkpt lat="43.544739000499249" lon="-1.346904030069709">
        <ele>57.82</ele>
        <time>2025-04-26T15:58:12Z</time>
      </trkpt>
      <trkpt lat="43.544410010799766" lon="-1.348294001072645">
        <ele>55.409999999999997</ele>
        <time>2025-04-26T15:58:19Z</time>
      </trkpt>
      <trkpt lat="43.543978007510304" lon="-1.350215971469879">
        <ele>49.649999999999999</ele>
        <time>2025-04-26T15:58:26Z</time>
      </trkpt>
      <trkpt lat="43.5434740036726" lon="-1.352436002343893">
        <ele>46.280000000000001</ele>
        <time>2025-04-26T15:58:34Z</time>
      </trkpt>
      <trkpt lat="43.542974023148417" lon="-1.354619991034269">
        <ele>49.159999999999997</ele>
        <time>2025-04-26T15:58:42Z</time>
      </trkpt>
      <trkpt lat="43.54239902459085" lon="-1.357041019946337">
        <ele>45.799999999999997</ele>
        <time>2025-04-26T15:58:51Z</time>
      </trkpt>
      <trkpt lat="43.542065005749464" lon="-1.359208999201655">
        <ele>40.509999999999998</ele>
        <time>2025-04-26T15:58:59Z</time>
      </trkpt>
      <trkpt lat="43.542005997151136" lon="-1.359768994152546">
        <ele>40.509999999999998</ele>
        <time>2025-04-26T15:59:01Z</time>
      </trkpt>
      <trkpt lat="43.54197003878653" lon="-1.360054984688759">
        <ele>40.030000000000001</ele>
        <time>2025-04-26T15:59:02Z</time>
      </trkpt>
      <trkpt lat="43.541880017146468" lon="-1.360905999317765">
        <ele>39.549999999999997</ele>
        <time>2025-04-26T15:59:05Z</time>
      </trkpt>
      <trkpt lat="43.541852021589875" lon="-1.361188972368836">
        <ele>39.07</ele>
        <time>2025-04-26T15:59:06Z</time>
      </trkpt>
      <trkpt lat="43.541823020204902" lon="-1.36147303506732">
        <ele>38.590000000000003</ele>
        <time>2025-04-26T15:59:07Z</time>
      </trkpt>
      <trkpt lat="43.541766023263335" lon="-1.362024983391166">
        <ele>37.149999999999999</ele>
        <time>2025-04-26T15:59:09Z</time>
      </trkpt>
      <trkpt lat="43.541737021878362" lon="-1.362298987805843">
        <ele>36.670000000000002</ele>
        <time>2025-04-26T15:59:10Z</time>
      </trkpt>
      <trkpt lat="43.541396968066692" lon="-1.36469897814095">
        <ele>38.109999999999999</ele>
        <time>2025-04-26T15:59:19Z</time>
      </trkpt>
      <trkpt lat="43.541302001103759" lon="-1.3649330008775">
        <ele>38.109999999999999</ele>
        <time>2025-04-26T15:59:20Z</time>
      </trkpt>
      <trkpt lat="43.540904028341174" lon="-1.365833971649408">
        <ele>38.109999999999999</ele>
        <time>2025-04-26T15:59:24Z</time>
      </trkpt>
      <trkpt lat="43.539967015385628" lon="-1.3676199875772">
        <ele>37.630000000000003</ele>
        <time>2025-04-26T15:59:32Z</time>
      </trkpt>
      <trkpt lat="43.539008041843772" lon="-1.369389994069934">
        <ele>39.549999999999997</ele>
        <time>2025-04-26T15:59:40Z</time>
      </trkpt>
      <trkpt lat="43.537991987541318" lon="-1.371344989165664">
        <ele>42.920000000000002</ele>
        <time>2025-04-26T15:59:49Z</time>
      </trkpt>
      <trkpt lat="43.536905022338033" lon="-1.373279029503465">
        <ele>46.280000000000001</ele>
        <time>2025-04-26T15:59:58Z</time>
      </trkpt>
      <trkpt lat="43.535996004939079" lon="-1.375221032649279">
        <ele>48.68</ele>
        <time>2025-04-26T16:00:07Z</time>
      </trkpt>
      <trkpt lat="43.535163011401892" lon="-1.377863008528948">
        <ele>44.359999999999999</ele>
        <time>2025-04-26T16:00:18Z</time>
      </trkpt>
      <trkpt lat="43.534290036186576" lon="-1.380519988015294">
        <ele>35.229999999999997</ele>
        <time>2025-04-26T16:00:29Z</time>
      </trkpt>
      <trkpt lat="43.53389298543334" lon="-1.381727987900376">
        <ele>33.780000000000001</ele>
        <time>2025-04-26T16:00:34Z</time>
      </trkpt>
      <trkpt lat="43.533811010420322" lon="-1.381977014243603">
        <ele>33.780000000000001</ele>
        <time>2025-04-26T16:00:35Z</time>
      </trkpt>
      <trkpt lat="43.533001989126205" lon="-1.384450010955334">
        <ele>27.530000000000001</ele>
        <time>2025-04-26T16:00:45Z</time>
      </trkpt>
      <trkpt lat="43.532672999426723" lon="-1.385225001722574">
        <ele>28.02</ele>
        <time>2025-04-26T16:00:49Z</time>
      </trkpt>
      <trkpt lat="43.532592030242085" lon="-1.385361962020397">
        <ele>28.5</ele>
        <time>2025-04-26T16:00:50Z</time>
      </trkpt>
      <trkpt lat="43.532509971410036" lon="-1.385500011965632">
        <ele>28.98</ele>
        <time>2025-04-26T16:00:51Z</time>
      </trkpt>
      <trkpt lat="43.532443000003695" lon="-1.385582992807031">
        <ele>28.98</ele>
        <time>2025-04-26T16:00:52Z</time>
      </trkpt>
      <trkpt lat="43.532376028597355" lon="-1.38566697947681">
        <ele>29.460000000000001</ele>
        <time>2025-04-26T16:00:53Z</time>
      </trkpt>
      <trkpt lat="43.532312996685505" lon="-1.385744009166956">
        <ele>29.940000000000001</ele>
        <time>2025-04-26T16:00:54Z</time>
      </trkpt>
      <trkpt lat="43.532246025279164" lon="-1.385827995836735">
        <ele>30.420000000000002</ele>
        <time>2025-04-26T16:00:55Z</time>
      </trkpt>
      <trkpt lat="43.53217201307416" lon="-1.385918017476797">
        <ele>30.899999999999999</ele>
        <time>2025-04-26T16:00:56Z</time>
      </trkpt>
      <trkpt lat="43.532087020576" lon="-1.386000998318195">
        <ele>31.379999999999999</ele>
        <time>2025-04-26T16:00:57Z</time>
      </trkpt>
      <trkpt lat="43.530908022075891" lon="-1.386941028758884">
        <ele>40.030000000000001</ele>
        <time>2025-04-26T16:01:09Z</time>
      </trkpt>
      <trkpt lat="43.530738959088922" lon="-1.387067008763552">
        <ele>40.990000000000002</ele>
        <time>2025-04-26T16:01:12Z</time>
      </trkpt>
      <trkpt lat="43.530580960214138" lon="-1.387184020131826">
        <ele>42.920000000000002</ele>
        <time>2025-04-26T16:01:20Z</time>
      </trkpt>
      <trkpt lat="43.530500996857882" lon="-1.387241017073393">
        <ele>43.399999999999999</ele>
        <time>2025-04-26T16:01:51Z</time>
      </trkpt>
      <trkpt lat="43.530168989673257" lon="-1.387537987902761">
        <ele>44.359999999999999</ele>
        <time>2025-04-26T16:01:56Z</time>
      </trkpt>
      <trkpt lat="43.52987403050065" lon="-1.387912994250655">
        <ele>45.799999999999997</ele>
        <time>2025-04-26T16:02:00Z</time>
      </trkpt>
      <trkpt lat="43.529802029952407" lon="-1.388033023104072">
        <ele>46.280000000000001</ele>
        <time>2025-04-26T16:02:01Z</time>
      </trkpt>
      <trkpt lat="43.529732041060925" lon="-1.388152968138456">
        <ele>46.759999999999998</ele>
        <time>2025-04-26T16:02:02Z</time>
      </trkpt>
      <trkpt lat="43.52908001281321" lon="-1.389358034357429">
        <ele>47.240000000000002</ele>
        <time>2025-04-26T16:02:11Z</time>
      </trkpt>
      <trkpt lat="43.528522029519081" lon="-1.390447011217475">
        <ele>43.880000000000003</ele>
        <time>2025-04-26T16:02:19Z</time>
      </trkpt>
      <trkpt lat="43.527871007099748" lon="-1.391615029424429">
        <ele>40.030000000000001</ele>
        <time>2025-04-26T16:02:28Z</time>
      </trkpt>
      <trkpt lat="43.527224007993937" lon="-1.392855970188975">
        <ele>33.780000000000001</ele>
        <time>2025-04-26T16:02:37Z</time>
      </trkpt>
      <trkpt lat="43.526671975851059" lon="-1.393918041139841">
        <ele>26.57</ele>
        <time>2025-04-26T16:02:45Z</time>
      </trkpt>
      <trkpt lat="43.526600981131196" lon="-1.394051983952522">
        <ele>25.609999999999999</ele>
        <time>2025-04-26T16:02:46Z</time>
      </trkpt>
      <trkpt lat="43.526182975620031" lon="-1.394857987761498">
        <ele>19.359999999999999</ele>
        <time>2025-04-26T16:02:52Z</time>
      </trkpt>
      <trkpt lat="43.526112986728549" lon="-1.394993020221591">
        <ele>18.399999999999999</ele>
        <time>2025-04-26T16:02:53Z</time>
      </trkpt>
      <trkpt lat="43.525560032576323" lon="-1.396054001525044">
        <ele>14.56</ele>
        <time>2025-04-26T16:03:01Z</time>
      </trkpt>
      <trkpt lat="43.525015041232109" lon="-1.397079024463892">
        <ele>15.039999999999999</ele>
        <time>2025-04-26T16:03:09Z</time>
      </trkpt>
      <trkpt lat="43.524942034855485" lon="-1.397211961448193">
        <ele>15.52</ele>
        <time>2025-04-26T16:03:10Z</time>
      </trkpt>
      <trkpt lat="43.524385979399085" lon="-1.398246958851814">
        <ele>17.440000000000001</ele>
        <time>2025-04-26T16:03:17Z</time>
      </trkpt>
      <trkpt lat="43.524089008569717" lon="-1.398824974894524">
        <ele>18.399999999999999</ele>
        <time>2025-04-26T16:03:21Z</time>
      </trkpt>
      <trkpt lat="43.524008961394429" lon="-1.398977022618055">
        <ele>18.399999999999999</ele>
        <time>2025-04-26T16:03:22Z</time>
      </trkpt>
      <trkpt lat="43.523371014744043" lon="-1.400381997227669">
        <ele>25.129999999999999</ele>
        <time>2025-04-26T16:03:31Z</time>
      </trkpt>
      <trkpt lat="43.523332038894296" lon="-1.400570003315806">
        <ele>26.57</ele>
        <time>2025-04-26T16:03:32Z</time>
      </trkpt>
      <trkpt lat="43.523260038346052" lon="-1.400949032977223">
        <ele>28.5</ele>
        <time>2025-04-26T16:03:34Z</time>
      </trkpt>
      <trkpt lat="43.523248974233866" lon="-1.401506010442972">
        <ele>30.420000000000002</ele>
        <time>2025-04-26T16:03:37Z</time>
      </trkpt>
      <trkpt lat="43.523259032517672" lon="-1.401685969904065">
        <ele>31.379999999999999</ele>
        <time>2025-04-26T16:03:38Z</time>
      </trkpt>
      <trkpt lat="43.523465981706977" lon="-1.403309041634202">
        <ele>34.259999999999998</ele>
        <time>2025-04-26T16:03:47Z</time>
      </trkpt>
      <trkpt lat="43.523546028882265" lon="-1.404028041288257">
        <ele>36.670000000000002</ele>
        <time>2025-04-26T16:03:51Z</time>
      </trkpt>
      <trkpt lat="43.523831013590097" lon="-1.405998039990664">
        <ele>38.109999999999999</ele>
        <time>2025-04-26T16:04:02Z</time>
      </trkpt>
      <trkpt lat="43.524054978042841" lon="-1.40766897238791">
        <ele>32.340000000000003</ele>
        <time>2025-04-26T16:04:12Z</time>
      </trkpt>
      <trkpt lat="43.524386985227466" lon="-1.410114979371429">
        <ele>32.82</ele>
        <time>2025-04-26T16:04:27Z</time>
      </trkpt>
      <trkpt lat="43.524687979370356" lon="-1.412409022450447">
        <ele>31.379999999999999</ele>
        <time>2025-04-26T16:04:41Z</time>
      </trkpt>
      <trkpt lat="43.524963995441794" lon="-1.414704993367195">
        <ele>29.460000000000001</ele>
        <time>2025-04-26T16:04:55Z</time>
      </trkpt>
      <trkpt lat="43.524799039587379" lon="-1.41619898378849">
        <ele>30.420000000000002</ele>
        <time>2025-04-26T16:05:04Z</time>
      </trkpt>
      <trkpt lat="43.524646991863847" lon="-1.416999036446214">
        <ele>32.340000000000003</ele>
        <time>2025-04-26T16:05:11Z</time>
      </trkpt>
      <trkpt lat="43.524641040712595" lon="-1.417066007852554">
        <ele>32.82</ele>
        <time>2025-04-26T16:05:12Z</time>
      </trkpt>
      <trkpt lat="43.524635005742311" lon="-1.417129039764404">
        <ele>32.82</ele>
        <time>2025-04-26T16:05:13Z</time>
      </trkpt>
      <trkpt lat="43.524658977985382" lon="-1.417355015873909">
        <ele>33.299999999999997</ele>
        <time>2025-04-26T16:05:15Z</time>
      </trkpt>
      <trkpt lat="43.524641962721944" lon="-1.417455011978746">
        <ele>33.299999999999997</ele>
        <time>2025-04-26T16:05:16Z</time>
      </trkpt>
      <trkpt lat="43.524568034335971" lon="-1.417560959234834">
        <ele>33.299999999999997</ele>
        <time>2025-04-26T16:05:17Z</time>
      </trkpt>
      <trkpt lat="43.524507014080882" lon="-1.417621979489923">
        <ele>33.299999999999997</ele>
        <time>2025-04-26T16:05:18Z</time>
      </trkpt>
      <trkpt lat="43.524411963298917" lon="-1.417602030560374">
        <ele>32.82</ele>
        <time>2025-04-26T16:05:19Z</time>
      </trkpt>
      <trkpt lat="43.524341974407434" lon="-1.417586021125317">
        <ele>32.340000000000003</ele>
        <time>2025-04-26T16:05:20Z</time>
      </trkpt>
      <trkpt lat="43.524252958595753" lon="-1.417627008631825">
        <ele>32.340000000000003</ele>
        <time>2025-04-26T16:05:21Z</time>
      </trkpt>
      <trkpt lat="43.524186993017793" lon="-1.417678976431489">
        <ele>32.340000000000003</ele>
        <time>2025-04-26T16:05:22Z</time>
      </trkpt>
      <trkpt lat="43.524119015783072" lon="-1.417733039706945">
        <ele>32.340000000000003</ele>
        <time>2025-04-26T16:05:23Z</time>
      </trkpt>
      <trkpt lat="43.524045003578067" lon="-1.417790036648512">
        <ele>32.340000000000003</ele>
        <time>2025-04-26T16:05:24Z</time>
      </trkpt>
      <trkpt lat="43.52396696805954" lon="-1.417866982519627">
        <ele>32.340000000000003</ele>
        <time>2025-04-26T16:05:25Z</time>
      </trkpt>
      <trkpt lat="43.523075971752405" lon="-1.418743981048465">
        <ele>28.98</ele>
        <time>2025-04-26T16:05:34Z</time>
      </trkpt>
      <trkpt lat="43.522185981273651" lon="-1.419619973748922">
        <ele>24.170000000000002</ele>
        <time>2025-04-26T16:05:41Z</time>
      </trkpt>
      <trkpt lat="43.522049020975828" lon="-1.419755006209016">
        <ele>23.210000000000001</ele>
        <time>2025-04-26T16:05:42Z</time>
      </trkpt>
      <trkpt lat="43.521114019677043" lon="-1.420675003901124">
        <ele>18.879999999999999</ele>
        <time>2025-04-26T16:05:49Z</time>
      </trkpt>
      <trkpt lat="43.520216988399625" lon="-1.421560971066356">
        <ele>16</ele>
        <time>2025-04-26T16:05:56Z</time>
      </trkpt>
      <trkpt lat="43.519093981012702" lon="-1.42287902534008">
        <ele>17.920000000000002</ele>
        <time>2025-04-26T16:06:06Z</time>
      </trkpt>
      <trkpt lat="43.51853197440505" lon="-1.424316018819809">
        <ele>20.809999999999999</ele>
        <time>2025-04-26T16:06:14Z</time>
      </trkpt>
      <trkpt lat="43.518185969442129" lon="-1.425449000671506">
        <ele>24.170000000000002</ele>
        <time>2025-04-26T16:06:22Z</time>
      </trkpt>
      <trkpt lat="43.517528995871544" lon="-1.427415981888771">
        <ele>29.460000000000001</ele>
        <time>2025-04-26T16:06:35Z</time>
      </trkpt>
      <trkpt lat="43.516976041719317" lon="-1.428644014522433">
        <ele>31.859999999999999</ele>
        <time>2025-04-26T16:06:45Z</time>
      </trkpt>
      <trkpt lat="43.51653398014605" lon="-1.429645987227559">
        <ele>34.740000000000002</ele>
        <time>2025-04-26T16:06:55Z</time>
      </trkpt>
      <trkpt lat="43.515814980491996" lon="-1.43121600151062">
        <ele>32.340000000000003</ele>
        <time>2025-04-26T16:07:06Z</time>
      </trkpt>
      <trkpt lat="43.515119031071663" lon="-1.432751985266805">
        <ele>26.09</ele>
        <time>2025-04-26T16:07:16Z</time>
      </trkpt>
      <trkpt lat="43.514476977288723" lon="-1.434162994846702">
        <ele>30.899999999999999</ele>
        <time>2025-04-26T16:07:26Z</time>
      </trkpt>
      <trkpt lat="43.513926034793258" lon="-1.435401001945138">
        <ele>34.259999999999998</ele>
        <time>2025-04-26T16:07:35Z</time>
      </trkpt>
      <trkpt lat="43.513775998726487" lon="-1.435726974159479">
        <ele>34.740000000000002</ele>
        <time>2025-04-26T16:07:42Z</time>
      </trkpt>
      <trkpt lat="43.513728976249695" lon="-1.435826970264316">
        <ele>34.740000000000002</ele>
        <time>2025-04-26T16:07:52Z</time>
      </trkpt>
      <trkpt lat="43.513769041746855" lon="-1.435916991904378">
        <ele>34.740000000000002</ele>
        <time>2025-04-26T16:07:53Z</time>
      </trkpt>
      <trkpt lat="43.513805000111461" lon="-1.435953034088016">
        <ele>34.740000000000002</ele>
        <time>2025-04-26T16:07:54Z</time>
      </trkpt>
      <trkpt lat="43.513843975961208" lon="-1.435991004109383">
        <ele>34.259999999999998</ele>
        <time>2025-04-26T16:07:55Z</time>
      </trkpt>
      <trkpt lat="43.513898961246014" lon="-1.435998966917396">
        <ele>34.259999999999998</ele>
        <time>2025-04-26T16:07:56Z</time>
      </trkpt>
      <trkpt lat="43.513960987329483" lon="-1.436009025201201">
        <ele>34.259999999999998</ele>
        <time>2025-04-26T16:07:57Z</time>
      </trkpt>
      <trkpt lat="43.514028964564204" lon="-1.436018999665976">
        <ele>34.259999999999998</ele>
        <time>2025-04-26T16:07:58Z</time>
      </trkpt>
      <trkpt lat="43.514858018606901" lon="-1.436067027971149">
        <ele>35.710000000000001</ele>
        <time>2025-04-26T16:08:07Z</time>
      </trkpt>
      <trkpt lat="43.514967989176512" lon="-1.436059987172484">
        <ele>36.189999999999998</ele>
        <time>2025-04-26T16:08:08Z</time>
      </trkpt>
      <trkpt lat="43.515077959746122" lon="-1.436042971909046">
        <ele>36.670000000000002</ele>
        <time>2025-04-26T16:08:09Z</time>
      </trkpt>
      <trkpt lat="43.516229968518019" lon="-1.435580961406231">
        <ele>34.740000000000002</ele>
        <time>2025-04-26T16:08:18Z</time>
      </trkpt>
      <trkpt lat="43.517711972817779" lon="-1.435002023354173">
        <ele>36.670000000000002</ele>
        <time>2025-04-26T16:08:29Z</time>
      </trkpt>
      <trkpt lat="43.518682010471821" lon="-1.434519980102778">
        <ele>36.189999999999998</ele>
        <time>2025-04-26T16:08:36Z</time>
      </trkpt>
      <trkpt lat="43.520102994516492" lon="-1.43400901928544">
        <ele>40.030000000000001</ele>
        <time>2025-04-26T16:08:46Z</time>
      </trkpt>
      <trkpt lat="43.521183002740145" lon="-1.433988986536861">
        <ele>44.359999999999999</ele>
        <time>2025-04-26T16:08:55Z</time>
      </trkpt>
      <trkpt lat="43.522252030670643" lon="-1.434141034260392">
        <ele>44.840000000000003</ele>
        <time>2025-04-26T16:09:04Z</time>
      </trkpt>
      <trkpt lat="43.522362001240253" lon="-1.434226026758552">
        <ele>44.840000000000003</ele>
        <time>2025-04-26T16:09:05Z</time>
      </trkpt>
      <trkpt lat="43.52246199734509" lon="-1.434319987893105">
        <ele>44.840000000000003</ele>
        <time>2025-04-26T16:09:06Z</time>
      </trkpt>
      <trkpt lat="43.522560987621546" lon="-1.434413027018309">
        <ele>44.840000000000003</ele>
        <time>2025-04-26T16:09:07Z</time>
      </trkpt>
      <trkpt lat="43.522660983726382" lon="-1.434519980102778">
        <ele>44.840000000000003</ele>
        <time>2025-04-26T16:09:08Z</time>
      </trkpt>
      <trkpt lat="43.52349397726357" lon="-1.435518013313413">
        <ele>45.799999999999997</ele>
        <time>2025-04-26T16:09:17Z</time>
      </trkpt>
      <trkpt lat="43.52360000833869" lon="-1.435607029125094">
        <ele>45.799999999999997</ele>
        <time>2025-04-26T16:09:18Z</time>
      </trkpt>
      <trkpt lat="43.523714002221823" lon="-1.435675006359816">
        <ele>45.799999999999997</ele>
        <time>2025-04-26T16:09:19Z</time>
      </trkpt>
      <trkpt lat="43.524055983871222" lon="-1.435819007456303">
        <ele>45.799999999999997</ele>
        <time>2025-04-26T16:09:22Z</time>
      </trkpt>
      <trkpt lat="43.524147011339664" lon="-1.435928978025913">
        <ele>45.799999999999997</ele>
        <time>2025-04-26T16:09:23Z</time>
      </trkpt>
      <trkpt lat="43.524249019101262" lon="-1.436055041849613">
        <ele>46.280000000000001</ele>
        <time>2025-04-26T16:09:24Z</time>
      </trkpt>
      <trkpt lat="43.52428900077939" lon="-1.43617901019752">
        <ele>46.759999999999998</ele>
        <time>2025-04-26T16:09:25Z</time>
      </trkpt>
      <trkpt lat="43.524336023256183" lon="-1.436324017122388">
        <ele>46.759999999999998</ele>
        <time>2025-04-26T16:09:26Z</time>
      </trkpt>
      <trkpt lat="43.524383967742324" lon="-1.436473969370127">
        <ele>47.240000000000002</ele>
        <time>2025-04-26T16:09:27Z</time>
      </trkpt>
      <trkpt lat="43.524510031566024" lon="-1.437118034809828">
        <ele>48.200000000000003</ele>
        <time>2025-04-26T16:09:31Z</time>
      </trkpt>
      <trkpt lat="43.524529980495572" lon="-1.437282990664244">
        <ele>48.200000000000003</ele>
        <time>2025-04-26T16:09:32Z</time>
      </trkpt>
      <trkpt lat="43.524550013244152" lon="-1.437456998974085">
        <ele>48.68</ele>
        <time>2025-04-26T16:09:33Z</time>
      </trkpt>
      <trkpt lat="43.52458999492228" lon="-1.438472969457507">
        <ele>48.68</ele>
        <time>2025-04-26T16:09:38Z</time>
      </trkpt>
      <trkpt lat="43.524608016014099" lon="-1.438686037436128">
        <ele>48.68</ele>
        <time>2025-04-26T16:09:39Z</time>
      </trkpt>
      <trkpt lat="43.524672975763679" lon="-1.438888041302562">
        <ele>48.68</ele>
        <time>2025-04-26T16:09:40Z</time>
      </trkpt>
      <trkpt lat="43.524758974090219" lon="-1.439076969400048">
        <ele>48.68</ele>
        <time>2025-04-26T16:09:41Z</time>
      </trkpt>
      <trkpt lat="43.5248479899019" lon="-1.439266987144947">
        <ele>48.68</ele>
        <time>2025-04-26T16:09:42Z</time>
      </trkpt>
      <trkpt lat="43.524945974349976" lon="-1.439452981576324">
        <ele>48.68</ele>
        <time>2025-04-26T16:09:43Z</time>
      </trkpt>
      <trkpt lat="43.526165960356593" lon="-1.441143024712801">
        <ele>49.159999999999997</ele>
        <time>2025-04-26T16:09:53Z</time>
      </trkpt>
      <trkpt lat="43.526294035837054" lon="-1.441304041072726">
        <ele>49.159999999999997</ele>
        <time>2025-04-26T16:09:54Z</time>
      </trkpt>
      <trkpt lat="43.526411969214678" lon="-1.441471008583903">
        <ele>48.68</ele>
        <time>2025-04-26T16:09:55Z</time>
      </trkpt>
      <trkpt lat="43.526523029431701" lon="-1.441647028550506">
        <ele>48.68</ele>
        <time>2025-04-26T16:09:56Z</time>
      </trkpt>
      <trkpt lat="43.526738025248051" lon="-1.442006025463343">
        <ele>49.159999999999997</ele>
        <time>2025-04-26T16:09:58Z</time>
      </trkpt>
      <trkpt lat="43.526838021352887" lon="-1.442178022116423">
        <ele>49.649999999999999</ele>
        <time>2025-04-26T16:09:59Z</time>
      </trkpt>
      <trkpt lat="43.527039019390941" lon="-1.442508017644286">
        <ele>51.090000000000003</ele>
        <time>2025-04-26T16:10:01Z</time>
      </trkpt>
      <trkpt lat="43.528367970138788" lon="-1.444163024425507">
        <ele>51.57</ele>
        <time>2025-04-26T16:10:12Z</time>
      </trkpt>
      <trkpt lat="43.529339013621211" lon="-1.445690961554647">
        <ele>50.609999999999999</ele>
        <time>2025-04-26T16:10:21Z</time>
      </trkpt>
      <trkpt lat="43.529888028278947" lon="-1.446521021425724">
        <ele>50.609999999999999</ele>
        <time>2025-04-26T16:10:26Z</time>
      </trkpt>
      <trkpt lat="43.530016019940376" lon="-1.446650018915534">
        <ele>50.609999999999999</ele>
        <time>2025-04-26T16:10:27Z</time>
      </trkpt>
      <trkpt lat="43.530162032693624" lon="-1.446719001978636">
        <ele>51.090000000000003</ele>
        <time>2025-04-26T16:10:28Z</time>
      </trkpt>
      <trkpt lat="43.530305027961731" lon="-1.446769963949919">
        <ele>51.57</ele>
        <time>2025-04-26T16:10:29Z</time>
      </trkpt>
      <trkpt lat="43.530451962724328" lon="-1.446796031668782">
        <ele>52.049999999999997</ele>
        <time>2025-04-26T16:10:30Z</time>
      </trkpt>
      <trkpt lat="43.53058498352766" lon="-1.446818998083472">
        <ele>52.049999999999997</ele>
        <time>2025-04-26T16:10:31Z</time>
      </trkpt>
      <trkpt lat="43.530714986845851" lon="-1.446841964498162">
        <ele>52.530000000000001</ele>
        <time>2025-04-26T16:10:32Z</time>
      </trkpt>
      <trkpt lat="43.53083903901279" lon="-1.446901978924871">
        <ele>52.530000000000001</ele>
        <time>2025-04-26T16:10:33Z</time>
      </trkpt>
      <trkpt lat="43.530965019017458" lon="-1.446980014443398">
        <ele>52.049999999999997</ele>
        <time>2025-04-26T16:10:34Z</time>
      </trkpt>
      <trkpt lat="43.531080018728971" lon="-1.447066012769938">
        <ele>52.049999999999997</ele>
        <time>2025-04-26T16:10:35Z</time>
      </trkpt>
      <trkpt lat="43.531189989298582" lon="-1.447169026359916">
        <ele>52.049999999999997</ele>
        <time>2025-04-26T16:10:36Z</time>
      </trkpt>
      <trkpt lat="43.531899014487863" lon="-1.447874028235674">
        <ele>51.090000000000003</ele>
        <time>2025-04-26T16:10:43Z</time>
      </trkpt>
      <trkpt lat="43.531975038349628" lon="-1.4480160176754">
        <ele>51.090000000000003</ele>
        <time>2025-04-26T16:10:44Z</time>
      </trkpt>
      <trkpt lat="43.532047038897872" lon="-1.448163036257029">
        <ele>51.090000000000003</ele>
        <time>2025-04-26T16:10:45Z</time>
      </trkpt>
      <trkpt lat="43.532100012525916" lon="-1.448332015424967">
        <ele>51.090000000000003</ele>
        <time>2025-04-26T16:10:46Z</time>
      </trkpt>
      <trkpt lat="43.532154997810721" lon="-1.448506023734808">
        <ele>50.609999999999999</ele>
        <time>2025-04-26T16:10:47Z</time>
      </trkpt>
      <trkpt lat="43.532370999455452" lon="-1.449645962566137">
        <ele>49.649999999999999</ele>
        <time>2025-04-26T16:10:53Z</time>
      </trkpt>
      <trkpt lat="43.532406035810709" lon="-1.449840003624558">
        <ele>49.159999999999997</ele>
        <time>2025-04-26T16:10:54Z</time>
      </trkpt>
      <trkpt lat="43.532467978075147" lon="-1.450019963085651">
        <ele>49.159999999999997</ele>
        <time>2025-04-26T16:10:55Z</time>
      </trkpt>
      <trkpt lat="43.532554982230067" lon="-1.450182991102338">
        <ele>48.68</ele>
        <time>2025-04-26T16:10:56Z</time>
      </trkpt>
      <trkpt lat="43.532641986384988" lon="-1.450346019119024">
        <ele>48.200000000000003</ele>
        <time>2025-04-26T16:10:57Z</time>
      </trkpt>
      <trkpt lat="43.532726978883147" lon="-1.450506029650569">
        <ele>47.719999999999999</ele>
        <time>2025-04-26T16:10:58Z</time>
      </trkpt>
      <trkpt lat="43.53348596021533" lon="-1.451932964846492">
        <ele>45.32</ele>
        <time>2025-04-26T16:11:09Z</time>
      </trkpt>
      <trkpt lat="43.533615041524172" lon="-1.452176040038467">
        <ele>45.32</ele>
        <time>2025-04-26T16:11:15Z</time>
      </trkpt>
      <trkpt lat="43.533687964081764" lon="-1.452309982851148">
        <ele>45.32</ele>
        <time>2025-04-26T16:11:27Z</time>
      </trkpt>
      <trkpt lat="43.533715037629008" lon="-1.45235700532794">
        <ele>45.32</ele>
        <time>2025-04-26T16:11:28Z</time>
      </trkpt>
      <trkpt lat="43.533790977671742" lon="-1.452385000884533">
        <ele>44.840000000000003</ele>
        <time>2025-04-26T16:11:29Z</time>
      </trkpt>
      <trkpt lat="43.533818973228335" lon="-1.452351976186037">
        <ele>44.359999999999999</ele>
        <time>2025-04-26T16:11:30Z</time>
      </trkpt>
      <trkpt lat="43.533853003755212" lon="-1.452311994507909">
        <ele>43.880000000000003</ele>
        <time>2025-04-26T16:11:31Z</time>
      </trkpt>
      <trkpt lat="43.533888962119818" lon="-1.452273018658161">
        <ele>43.399999999999999</ele>
        <time>2025-04-26T16:11:32Z</time>
      </trkpt>
      <trkpt lat="43.53393598459661" lon="-1.452245023101568">
        <ele>43.399999999999999</ele>
        <time>2025-04-26T16:11:33Z</time>
      </trkpt>
      <trkpt lat="43.533984012901783" lon="-1.452217027544975">
        <ele>42.920000000000002</ele>
        <time>2025-04-26T16:11:34Z</time>
      </trkpt>
      <trkpt lat="43.534032963216305" lon="-1.452187020331621">
        <ele>42.920000000000002</ele>
        <time>2025-04-26T16:11:35Z</time>
      </trkpt>
      <trkpt lat="43.534098006784916" lon="-1.452147960662842">
        <ele>42.439999999999998</ele>
        <time>2025-04-26T16:11:36Z</time>
      </trkpt>
      <trkpt lat="43.534126002341509" lon="-1.452155001461506">
        <ele>42.439999999999998</ele>
        <time>2025-04-26T16:11:37Z</time>
      </trkpt>
      <trkpt lat="43.534190962091088" lon="-1.452176040038467">
        <ele>42.439999999999998</ele>
        <time>2025-04-26T16:11:38Z</time>
      </trkpt>
      <trkpt lat="43.534250976517797" lon="-1.452229013666511">
        <ele>42.439999999999998</ele>
        <time>2025-04-26T16:11:39Z</time>
      </trkpt>
      <trkpt lat="43.534319959580898" lon="-1.452289028093219">
        <ele>42.439999999999998</ele>
        <time>2025-04-26T16:11:40Z</time>
      </trkpt>
      <trkpt lat="43.535165023058653" lon="-1.453039040789008">
        <ele>40.509999999999998</ele>
        <time>2025-04-26T16:11:50Z</time>
      </trkpt>
      <trkpt lat="43.535334002226591" lon="-1.453184969723225">
        <ele>40.030000000000001</ele>
        <time>2025-04-26T16:11:52Z</time>
      </trkpt>
      <trkpt lat="43.535538017749786" lon="-1.453275997191668">
        <ele>38.109999999999999</ele>
        <time>2025-04-26T16:11:54Z</time>
      </trkpt>
      <trkpt lat="43.535647988319397" lon="-1.453295024111867">
        <ele>37.149999999999999</ele>
        <time>2025-04-26T16:11:55Z</time>
      </trkpt>
      <trkpt lat="43.535760976374149" lon="-1.453314973041415">
        <ele>36.189999999999998</ele>
        <time>2025-04-26T16:11:56Z</time>
      </trkpt>
      <trkpt lat="43.535877987742424" lon="-1.453336011618376">
        <ele>35.229999999999997</ele>
        <time>2025-04-26T16:11:57Z</time>
      </trkpt>
      <trkpt lat="43.53599701076746" lon="-1.453356966376305">
        <ele>34.740000000000002</ele>
        <time>2025-04-26T16:11:58Z</time>
      </trkpt>
      <trkpt lat="43.536107987165451" lon="-1.453383034095168">
        <ele>33.780000000000001</ele>
        <time>2025-04-26T16:11:59Z</time>
      </trkpt>
      <trkpt lat="43.536208989098668" lon="-1.453418992459774">
        <ele>32.82</ele>
        <time>2025-04-26T16:12:00Z</time>
      </trkpt>
      <trkpt lat="43.536307979375124" lon="-1.453454028815031">
        <ele>31.859999999999999</ele>
        <time>2025-04-26T16:12:01Z</time>
      </trkpt>
      <trkpt lat="43.536405963823199" lon="-1.453488981351256">
        <ele>31.379999999999999</ele>
        <time>2025-04-26T16:12:02Z</time>
      </trkpt>
      <trkpt lat="43.536502020433545" lon="-1.453528041020036">
        <ele>30.420000000000002</ele>
        <time>2025-04-26T16:12:03Z</time>
      </trkpt>
      <trkpt lat="43.536596987396479" lon="-1.453568022698164">
        <ele>30.420000000000002</ele>
        <time>2025-04-26T16:12:04Z</time>
      </trkpt>
      <trkpt lat="43.536773007363081" lon="-1.453620996326208">
        <ele>30.420000000000002</ele>
        <time>2025-04-26T16:12:06Z</time>
      </trkpt>
      <trkpt lat="43.536840984597802" lon="-1.453606998547912">
        <ele>30.420000000000002</ele>
        <time>2025-04-26T16:12:07Z</time>
      </trkpt>
      <trkpt lat="43.536907033994794" lon="-1.453593000769615">
        <ele>30.899999999999999</ele>
        <time>2025-04-26T16:12:08Z</time>
      </trkpt>
      <trkpt lat="43.536969982087612" lon="-1.453580008819699">
        <ele>31.379999999999999</ele>
        <time>2025-04-26T16:12:09Z</time>
      </trkpt>
      <trkpt lat="43.537034019827843" lon="-1.453566011041403">
        <ele>32.340000000000003</ele>
        <time>2025-04-26T16:12:10Z</time>
      </trkpt>
      <trkpt lat="43.537101997062564" lon="-1.453552013263106">
        <ele>32.82</ele>
        <time>2025-04-26T16:12:11Z</time>
      </trkpt>
      <trkpt lat="43.53718196041882" lon="-1.453555030748248">
        <ele>33.780000000000001</ele>
        <time>2025-04-26T16:12:12Z</time>
      </trkpt>
      <trkpt lat="43.537262007594109" lon="-1.453582020476461">
        <ele>34.259999999999998</ele>
        <time>2025-04-26T16:12:13Z</time>
      </trkpt>
      <trkpt lat="43.537596026435494" lon="-1.453692996874452">
        <ele>35.710000000000001</ele>
        <time>2025-04-26T16:12:17Z</time>
      </trkpt>
      <trkpt lat="43.53769401088357" lon="-1.453663995489478">
        <ele>36.189999999999998</ele>
        <time>2025-04-26T16:12:18Z</time>
      </trkpt>
      <trkpt lat="43.537785960361362" lon="-1.453637005761266">
        <ele>36.670000000000002</ele>
        <time>2025-04-26T16:12:19Z</time>
      </trkpt>
      <trkpt lat="43.537874976173043" lon="-1.453611021861434">
        <ele>37.149999999999999</ele>
        <time>2025-04-26T16:12:20Z</time>
      </trkpt>
      <trkpt lat="43.53797203861177" lon="-1.453575985506177">
        <ele>37.149999999999999</ele>
        <time>2025-04-26T16:12:21Z</time>
      </trkpt>
      <trkpt lat="43.538054013624787" lon="-1.453500967472792">
        <ele>37.630000000000003</ele>
        <time>2025-04-26T16:12:22Z</time>
      </trkpt>
      <trkpt lat="43.538135988637805" lon="-1.453427039086819">
        <ele>38.109999999999999</ele>
        <time>2025-04-26T16:12:23Z</time>
      </trkpt>
      <trkpt lat="43.53821100667119" lon="-1.453339029103518">
        <ele>38.590000000000003</ele>
        <time>2025-04-26T16:12:24Z</time>
      </trkpt>
      <trkpt lat="43.53827303275466" lon="-1.453245989978313">
        <ele>39.549999999999997</ele>
        <time>2025-04-26T16:12:25Z</time>
      </trkpt>
      <trkpt lat="43.538332963362336" lon="-1.453123027458787">
        <ele>39.549999999999997</ele>
        <time>2025-04-26T16:12:26Z</time>
      </trkpt>
      <trkpt lat="43.538630018010736" lon="-1.452329009771347">
        <ele>39.549999999999997</ele>
        <time>2025-04-26T16:12:33Z</time>
      </trkpt>
      <trkpt lat="43.538657007738948" lon="-1.452258015051484">
        <ele>39.549999999999997</ele>
        <time>2025-04-26T16:12:34Z</time>
      </trkpt>
      <trkpt lat="43.538672011345625" lon="-1.452115019783378">
        <ele>39.07</ele>
        <time>2025-04-26T16:12:35Z</time>
      </trkpt>
      <trkpt lat="43.538647033274174" lon="-1.452041007578373">
        <ele>39.07</ele>
        <time>2025-04-26T16:12:36Z</time>
      </trkpt>
      <trkpt lat="43.53861995972693" lon="-1.451959032565355">
        <ele>39.07</ele>
        <time>2025-04-26T16:12:37Z</time>
      </trkpt>
      <trkpt lat="43.538591964170337" lon="-1.451874040067196">
        <ele>39.07</ele>
        <time>2025-04-26T16:12:38Z</time>
      </trkpt>
      <trkpt lat="43.538562962785363" lon="-1.451788963750005">
        <ele>39.07</ele>
        <time>2025-04-26T16:12:39Z</time>
      </trkpt>
      <trkpt lat="43.538566986098886" lon="-1.451725009828806">
        <ele>39.07</ele>
        <time>2025-04-26T16:12:40Z</time>
      </trkpt>
      <trkpt lat="43.53857402689755" lon="-1.451640017330647">
        <ele>39.549999999999997</ele>
        <time>2025-04-26T16:12:41Z</time>
      </trkpt>
      <trkpt lat="43.538581989705563" lon="-1.451557036489248">
        <ele>39.549999999999997</ele>
        <time>2025-04-26T16:12:42Z</time>
      </trkpt>
      <trkpt lat="43.538589030504227" lon="-1.45147698931396">
        <ele>39.07</ele>
        <time>2025-04-26T16:12:43Z</time>
      </trkpt>
      <trkpt lat="43.538595987483859" lon="-1.451403982937336">
        <ele>39.07</ele>
        <time>2025-04-26T16:12:44Z</time>
      </trkpt>
      <trkpt lat="43.538604034110904" lon="-1.451311027631164">
        <ele>39.07</ele>
        <time>2025-04-26T16:12:45Z</time>
      </trkpt>
      <trkpt lat="43.538650972768664" lon="-1.45128202624619">
        <ele>39.07</ele>
        <time>2025-04-26T16:12:46Z</time>
      </trkpt>
      <trkpt lat="43.538708975538611" lon="-1.451245984062553">
        <ele>38.590000000000003</ele>
        <time>2025-04-26T16:12:47Z</time>
      </trkpt>
      <trkpt lat="43.538774019107223" lon="-1.451204996556044">
        <ele>38.590000000000003</ele>
        <time>2025-04-26T16:12:48Z</time>
      </trkpt>
      <trkpt lat="43.538841996341944" lon="-1.451163003221154">
        <ele>38.109999999999999</ele>
        <time>2025-04-26T16:12:49Z</time>
      </trkpt>
      <trkpt lat="43.538908967748284" lon="-1.451121009886265">
        <ele>38.109999999999999</ele>
        <time>2025-04-26T16:12:50Z</time>
      </trkpt>
      <trkpt lat="43.538948027417064" lon="-1.451097037643194">
        <ele>37.630000000000003</ele>
        <time>2025-04-26T16:12:51Z</time>
      </trkpt>
      <trkpt lat="43.539019022136927" lon="-1.451001986861229">
        <ele>37.149999999999999</ele>
        <time>2025-04-26T16:12:52Z</time>
      </trkpt>
      <trkpt lat="43.539076019078493" lon="-1.450925040990114">
        <ele>37.149999999999999</ele>
        <time>2025-04-26T16:12:53Z</time>
      </trkpt>
      <trkpt lat="43.539092028513551" lon="-1.450843987986445">
        <ele>37.149999999999999</ele>
        <time>2025-04-26T16:12:54Z</time>
      </trkpt>
      <trkpt lat="43.539109965786338" lon="-1.450747009366751">
        <ele>36.670000000000002</ele>
        <time>2025-04-26T16:12:55Z</time>
      </trkpt>
      <trkpt lat="43.539127986878157" lon="-1.450647013261914">
        <ele>36.670000000000002</ele>
        <time>2025-04-26T16:12:56Z</time>
      </trkpt>
      <trkpt lat="43.539147013798356" lon="-1.450547017157078">
        <ele>36.189999999999998</ele>
        <time>2025-04-26T16:12:57Z</time>
      </trkpt>
      <trkpt lat="43.539166040718555" lon="-1.450449032709003">
        <ele>36.189999999999998</ele>
        <time>2025-04-26T16:12:58Z</time>
      </trkpt>
      <trkpt lat="43.539182972162962" lon="-1.45035800524056">
        <ele>36.189999999999998</ele>
        <time>2025-04-26T16:12:59Z</time>
      </trkpt>
      <trkpt lat="43.539197975769639" lon="-1.450274018570781">
        <ele>35.710000000000001</ele>
        <time>2025-04-26T16:13:00Z</time>
      </trkpt>
      <trkpt lat="43.539164029061794" lon="-1.450191959738731">
        <ele>35.710000000000001</ele>
        <time>2025-04-26T16:13:01Z</time>
      </trkpt>
      <trkpt lat="43.539114994928241" lon="-1.450137980282307">
        <ele>35.710000000000001</ele>
        <time>2025-04-26T16:13:02Z</time>
      </trkpt>
      <trkpt lat="43.539067972451448" lon="-1.450085006654263">
        <ele>35.710000000000001</ele>
        <time>2025-04-26T16:13:03Z</time>
      </trkpt>
      <trkpt lat="43.539020027965307" lon="-1.450031027197838">
        <ele>35.710000000000001</ele>
        <time>2025-04-26T16:13:04Z</time>
      </trkpt>
      <trkpt lat="43.538973005488515" lon="-1.449978975579143">
        <ele>36.189999999999998</ele>
        <time>2025-04-26T16:13:05Z</time>
      </trkpt>
      <trkpt lat="43.538784999400377" lon="-1.449831034988165">
        <ele>36.670000000000002</ele>
        <time>2025-04-26T16:13:08Z</time>
      </trkpt>
      <trkpt lat="43.538714004680514" lon="-1.449831034988165">
        <ele>36.670000000000002</ele>
        <time>2025-04-26T16:13:09Z</time>
      </trkpt>
      <trkpt lat="43.538649966940284" lon="-1.449815025553107">
        <ele>36.670000000000002</ele>
        <time>2025-04-26T16:13:10Z</time>
      </trkpt>
      <trkpt lat="43.538547959178686" lon="-1.449880991131067">
        <ele>36.670000000000002</ele>
        <time>2025-04-26T16:13:11Z</time>
      </trkpt>
      <trkpt lat="43.538478976115584" lon="-1.449943017214537">
        <ele>36.670000000000002</ele>
        <time>2025-04-26T16:13:12Z</time>
      </trkpt>
      <trkpt lat="43.538282001391053" lon="-1.450174022465944">
        <ele>36.670000000000002</ele>
        <time>2025-04-26T16:13:16Z</time>
      </trkpt>
      <trkpt lat="43.538154009729624" lon="-1.450174022465944">
        <ele>36.670000000000002</ele>
        <time>2025-04-26T16:13:17Z</time>
      </trkpt>
      <trkpt lat="43.53810396976769" lon="-1.450117025524378">
        <ele>36.670000000000002</ele>
        <time>2025-04-26T16:13:18Z</time>
      </trkpt>
      <trkpt lat="43.538059964776039" lon="-1.450065979734063">
        <ele>36.670000000000002</ele>
        <time>2025-04-26T16:13:19Z</time>
      </trkpt>
      <trkpt lat="43.538015959784389" lon="-1.450016023591161">
        <ele>36.670000000000002</ele>
        <time>2025-04-26T16:13:20Z</time>
      </trkpt>
      <trkpt lat="43.53799601085484" lon="-1.449973024427891">
        <ele>36.670000000000002</ele>
        <time>2025-04-26T16:13:21Z</time>
      </trkpt>
      <trkpt lat="43.537976983934641" lon="-1.449904963374138">
        <ele>36.670000000000002</ele>
        <time>2025-04-26T16:13:22Z</time>
      </trkpt>
      <trkpt lat="43.537959968671203" lon="-1.449845032766461">
        <ele>36.670000000000002</ele>
        <time>2025-04-26T16:13:23Z</time>
      </trkpt>
      <trkpt lat="43.53788897395134" lon="-1.449765991419554">
        <ele>36.189999999999998</ele>
        <time>2025-04-26T16:13:25Z</time>
      </trkpt>
      <trkpt lat="43.537863995879889" lon="-1.449765991419554">
        <ele>36.189999999999998</ele>
        <time>2025-04-26T16:13:26Z</time>
      </trkpt>
      <trkpt lat="43.537826025858521" lon="-1.449765991419554">
        <ele>36.189999999999998</ele>
        <time>2025-04-26T16:13:27Z</time>
      </trkpt>
      <trkpt lat="43.537782020866871" lon="-1.449765991419554">
        <ele>36.189999999999998</ele>
        <time>2025-04-26T16:13:28Z</time>
      </trkpt>
      <trkpt lat="43.537741033360362" lon="-1.449765991419554">
        <ele>35.710000000000001</ele>
        <time>2025-04-26T16:13:29Z</time>
      </trkpt>
      <trkpt lat="43.537405002862215" lon="-1.449856013059616">
        <ele>35.229999999999997</ele>
        <time>2025-04-26T16:13:38Z</time>
      </trkpt>
      <trkpt lat="43.537407014518976" lon="-1.449943017214537">
        <ele>35.229999999999997</ele>
        <time>2025-04-26T16:13:41Z</time>
      </trkpt>
      <trkpt lat="43.537408020347357" lon="-1.449990961700678">
        <ele>35.710000000000001</ele>
        <time>2025-04-26T16:13:52Z</time>
      </trkpt>
      <trkpt lat="43.537276005372405" lon="-1.450034966692329">
        <ele>47.240000000000002</ele>
        <time>2025-04-27T06:36:18Z</time>
      </trkpt>
      <trkpt lat="43.537360997870564" lon="-1.449986016377807">
        <ele>41.950000000000003</ele>
        <time>2025-04-27T06:36:37Z</time>
      </trkpt>
      <trkpt lat="43.537430986762047" lon="-1.449961960315704">
        <ele>40.990000000000002</ele>
        <time>2025-04-27T06:37:17Z</time>
      </trkpt>
      <trkpt lat="43.537448002025485" lon="-1.449958020821214">
        <ele>41.469999999999999</ele>
        <time>2025-04-27T06:37:44Z</time>
      </trkpt>
      <trkpt lat="43.537402991205454" lon="-1.449770014733076">
        <ele>41.950000000000003</ele>
        <time>2025-04-27T06:37:52Z</time>
      </trkpt>
      <trkpt lat="43.537441967055202" lon="-1.449765991419554">
        <ele>41.950000000000003</ele>
        <time>2025-04-27T06:37:53Z</time>
      </trkpt>
      <trkpt lat="43.53745998814702" lon="-1.449765991419554">
        <ele>41.950000000000003</ele>
        <time>2025-04-27T06:37:54Z</time>
      </trkpt>
      <trkpt lat="43.537497036159039" lon="-1.449765991419554">
        <ele>41.950000000000003</ele>
        <time>2025-04-27T06:37:55Z</time>
      </trkpt>
      <trkpt lat="43.537550009787083" lon="-1.449765991419554">
        <ele>41.950000000000003</ele>
        <time>2025-04-27T06:37:56Z</time>
      </trkpt>
      <trkpt lat="43.537600971758366" lon="-1.449765991419554">
        <ele>41.469999999999999</ele>
        <time>2025-04-27T06:37:57Z</time>
      </trkpt>
      <trkpt lat="43.53765201754868" lon="-1.449765991419554">
        <ele>41.469999999999999</ele>
        <time>2025-04-27T06:37:58Z</time>
      </trkpt>
      <trkpt lat="43.537880005314946" lon="-1.449765991419554">
        <ele>41.950000000000003</ele>
        <time>2025-04-27T06:38:04Z</time>
      </trkpt>
      <trkpt lat="43.537940019741654" lon="-1.449769008904696">
        <ele>41.469999999999999</ele>
        <time>2025-04-27T06:38:05Z</time>
      </trkpt>
      <trkpt lat="43.537956029176712" lon="-1.449827011674643">
        <ele>41.469999999999999</ele>
        <time>2025-04-27T06:38:06Z</time>
      </trkpt>
      <trkpt lat="43.537972960621119" lon="-1.449891971424222">
        <ele>41.469999999999999</ele>
        <time>2025-04-27T06:38:07Z</time>
      </trkpt>
      <trkpt lat="43.537991987541318" lon="-1.449960032477975">
        <ele>40.990000000000002</ele>
        <time>2025-04-27T06:38:08Z</time>
      </trkpt>
      <trkpt lat="43.538013026118279" lon="-1.450013006106019">
        <ele>40.990000000000002</ele>
        <time>2025-04-27T06:38:09Z</time>
      </trkpt>
      <trkpt lat="43.538052001968026" lon="-1.45005801692605">
        <ele>40.990000000000002</ele>
        <time>2025-04-27T06:38:10Z</time>
      </trkpt>
      <trkpt lat="43.538089971989393" lon="-1.45010101608932">
        <ele>40.990000000000002</ele>
        <time>2025-04-27T06:38:11Z</time>
      </trkpt>
      <trkpt lat="43.538127020001411" lon="-1.45014401525259">
        <ele>40.990000000000002</ele>
        <time>2025-04-27T06:38:12Z</time>
      </trkpt>
      <trkpt lat="43.538185022771358" lon="-1.450174022465944">
        <ele>40.509999999999998</ele>
        <time>2025-04-27T06:38:13Z</time>
      </trkpt>
      <trkpt lat="43.538243025541306" lon="-1.450174022465944">
        <ele>40.509999999999998</ele>
        <time>2025-04-27T06:38:14Z</time>
      </trkpt>
      <trkpt lat="43.538282001391053" lon="-1.450174022465944">
        <ele>40.509999999999998</ele>
        <time>2025-04-27T06:38:15Z</time>
      </trkpt>
      <trkpt lat="43.538367999717593" lon="-1.450045024976134">
        <ele>40.030000000000001</ele>
        <time>2025-04-27T06:38:16Z</time>
      </trkpt>
      <trkpt lat="43.538393983617425" lon="-1.450020968914032">
        <ele>40.030000000000001</ele>
        <time>2025-04-27T06:38:17Z</time>
      </trkpt>
      <trkpt lat="43.538590958341956" lon="-1.449841009452939">
        <ele>39.549999999999997</ele>
        <time>2025-04-27T06:38:21Z</time>
      </trkpt>
      <trkpt lat="43.538711993023753" lon="-1.449831034988165">
        <ele>39.549999999999997</ele>
        <time>2025-04-27T06:38:22Z</time>
      </trkpt>
      <trkpt lat="43.538732025772333" lon="-1.449831034988165">
        <ele>39.549999999999997</ele>
        <time>2025-04-27T06:38:23Z</time>
      </trkpt>
      <trkpt lat="43.538795979693532" lon="-1.449831034988165">
        <ele>39.549999999999997</ele>
        <time>2025-04-27T06:38:24Z</time>
      </trkpt>
      <trkpt lat="43.538872003555298" lon="-1.44986498169601">
        <ele>39.549999999999997</ele>
        <time>2025-04-27T06:38:25Z</time>
      </trkpt>
      <trkpt lat="43.538921037688851" lon="-1.449920972809196">
        <ele>39.549999999999997</ele>
        <time>2025-04-27T06:38:26Z</time>
      </trkpt>
      <trkpt lat="43.539151037111878" lon="-1.450177961960435">
        <ele>39.549999999999997</ele>
        <time>2025-04-27T06:38:31Z</time>
      </trkpt>
      <trkpt lat="43.539189007133245" lon="-1.450220039114356">
        <ele>39.549999999999997</ele>
        <time>2025-04-27T06:38:32Z</time>
      </trkpt>
      <trkpt lat="43.539205016568303" lon="-1.450237976387143">
        <ele>39.07</ele>
        <time>2025-04-27T06:38:33Z</time>
      </trkpt>
      <trkpt lat="43.539193030446768" lon="-1.450301008298993">
        <ele>39.07</ele>
        <time>2025-04-27T06:38:34Z</time>
      </trkpt>
      <trkpt lat="43.539175009354949" lon="-1.450397986918688">
        <ele>39.07</ele>
        <time>2025-04-27T06:38:35Z</time>
      </trkpt>
      <trkpt lat="43.53915698826313" lon="-1.450493037700653">
        <ele>38.590000000000003</ele>
        <time>2025-04-27T06:38:36Z</time>
      </trkpt>
      <trkpt lat="43.539122035726905" lon="-1.45068196579814">
        <ele>38.590000000000003</ele>
        <time>2025-04-27T06:38:38Z</time>
      </trkpt>
      <trkpt lat="43.539085993543267" lon="-1.450872989371419">
        <ele>38.109999999999999</ele>
        <time>2025-04-27T06:38:40Z</time>
      </trkpt>
      <trkpt lat="43.539062021300197" lon="-1.450942978262901">
        <ele>37.630000000000003</ele>
        <time>2025-04-27T06:38:41Z</time>
      </trkpt>
      <trkpt lat="43.539013992995024" lon="-1.451008021831513">
        <ele>37.630000000000003</ele>
        <time>2025-04-27T06:38:42Z</time>
      </trkpt>
      <trkpt lat="43.538948027417064" lon="-1.451097037643194">
        <ele>37.630000000000003</ele>
        <time>2025-04-27T06:38:43Z</time>
      </trkpt>
      <trkpt lat="43.538909973576665" lon="-1.451120004057884">
        <ele>38.109999999999999</ele>
        <time>2025-04-27T06:38:44Z</time>
      </trkpt>
      <trkpt lat="43.538841996341944" lon="-1.451161997392774">
        <ele>38.590000000000003</ele>
        <time>2025-04-27T06:38:45Z</time>
      </trkpt>
      <trkpt lat="43.538711993023753" lon="-1.451243972405791">
        <ele>39.07</ele>
        <time>2025-04-27T06:38:47Z</time>
      </trkpt>
      <trkpt lat="43.538648039102554" lon="-1.451284037902951">
        <ele>39.07</ele>
        <time>2025-04-27T06:38:48Z</time>
      </trkpt>
      <trkpt lat="43.538604034110904" lon="-1.451311027631164">
        <ele>39.549999999999997</ele>
        <time>2025-04-27T06:38:49Z</time>
      </trkpt>
      <trkpt lat="43.538590958341956" lon="-1.45145402289927">
        <ele>40.030000000000001</ele>
        <time>2025-04-27T06:38:50Z</time>
      </trkpt>
      <trkpt lat="43.538582995533943" lon="-1.451548989862204">
        <ele>40.030000000000001</ele>
        <time>2025-04-27T06:38:51Z</time>
      </trkpt>
      <trkpt lat="43.53857402689755" lon="-1.451645968481898">
        <ele>40.509999999999998</ele>
        <time>2025-04-27T06:38:52Z</time>
      </trkpt>
      <trkpt lat="43.538564974442124" lon="-1.451741019263864">
        <ele>40.509999999999998</ele>
        <time>2025-04-27T06:38:53Z</time>
      </trkpt>
      <trkpt lat="43.53857503272593" lon="-1.451822994276881">
        <ele>40.990000000000002</ele>
        <time>2025-04-27T06:38:54Z</time>
      </trkpt>
      <trkpt lat="43.538604034110904" lon="-1.451909998431802">
        <ele>40.990000000000002</ele>
        <time>2025-04-27T06:38:55Z</time>
      </trkpt>
      <trkpt lat="43.538633035495877" lon="-1.451997002586722">
        <ele>40.990000000000002</ele>
        <time>2025-04-27T06:38:56Z</time>
      </trkpt>
      <trkpt lat="43.53866002522409" lon="-1.452080989256501">
        <ele>40.509999999999998</ele>
        <time>2025-04-27T06:38:57Z</time>
      </trkpt>
      <trkpt lat="43.538688020780683" lon="-1.452163970097899">
        <ele>40.509999999999998</ele>
        <time>2025-04-27T06:38:58Z</time>
      </trkpt>
      <trkpt lat="43.538772007450461" lon="-1.452209986746311">
        <ele>40.509999999999998</ele>
        <time>2025-04-27T06:38:59Z</time>
      </trkpt>
      <trkpt lat="43.538839984685183" lon="-1.452245023101568">
        <ele>40.509999999999998</ele>
        <time>2025-04-27T06:39:00Z</time>
      </trkpt>
      <trkpt lat="43.538907961919904" lon="-1.452277963981032">
        <ele>40.509999999999998</ele>
        <time>2025-04-27T06:39:01Z</time>
      </trkpt>
      <trkpt lat="43.538991026580334" lon="-1.452320041134954">
        <ele>40.030000000000001</ele>
        <time>2025-04-27T06:39:02Z</time>
      </trkpt>
      <trkpt lat="43.539061015471816" lon="-1.452306965366006">
        <ele>39.549999999999997</ele>
        <time>2025-04-27T06:39:03Z</time>
      </trkpt>
      <trkpt lat="43.539140978828073" lon="-1.452292967587709">
        <ele>39.549999999999997</ele>
        <time>2025-04-27T06:39:04Z</time>
      </trkpt>
      <trkpt lat="43.539221026003361" lon="-1.452278969809413">
        <ele>39.07</ele>
        <time>2025-04-27T06:39:05Z</time>
      </trkpt>
      <trkpt lat="43.540002973750234" lon="-1.452130023390055">
        <ele>34.740000000000002</ele>
        <time>2025-04-27T06:39:15Z</time>
      </trkpt>
      <trkpt lat="43.540074974298477" lon="-1.452147960662842">
        <ele>33.780000000000001</ele>
        <time>2025-04-27T06:39:16Z</time>
      </trkpt>
      <trkpt lat="43.540156027302146" lon="-1.452180985361338">
        <ele>33.299999999999997</ele>
        <time>2025-04-27T06:39:17Z</time>
      </trkpt>
      <trkpt lat="43.540241019800305" lon="-1.452215015888214">
        <ele>32.340000000000003</ele>
        <time>2025-04-27T06:39:18Z</time>
      </trkpt>
      <trkpt lat="43.540329029783607" lon="-1.452249968424439">
        <ele>31.379999999999999</ele>
        <time>2025-04-27T06:39:19Z</time>
      </trkpt>
      <trkpt lat="43.540417961776257" lon="-1.452285004779697">
        <ele>29.940000000000001</ele>
        <time>2025-04-27T06:39:20Z</time>
      </trkpt>
      <trkpt lat="43.540484011173248" lon="-1.452349964529276">
        <ele>28.5</ele>
        <time>2025-04-27T06:39:21Z</time>
      </trkpt>
      <trkpt lat="43.540602028369904" lon="-1.452526990324259">
        <ele>26.57</ele>
        <time>2025-04-27T06:39:23Z</time>
      </trkpt>
      <trkpt lat="43.540658019483089" lon="-1.452610976994038">
        <ele>25.129999999999999</ele>
        <time>2025-04-27T06:39:24Z</time>
      </trkpt>
      <trkpt lat="43.540941998362541" lon="-1.453071981668472">
        <ele>16.960000000000001</ele>
        <time>2025-04-27T06:39:30Z</time>
      </trkpt>
      <trkpt lat="43.541013998910785" lon="-1.453239032998681">
        <ele>14.56</ele>
        <time>2025-04-27T06:39:32Z</time>
      </trkpt>
      <trkpt lat="43.5410460177809" lon="-1.453321008011699">
        <ele>13.119999999999999</ele>
        <time>2025-04-27T06:39:33Z</time>
      </trkpt>
      <trkpt lat="43.541078036651015" lon="-1.453400971367955">
        <ele>11.67</ele>
        <time>2025-04-27T06:39:34Z</time>
      </trkpt>
      <trkpt lat="43.541109971702099" lon="-1.453483030200005">
        <ele>10.710000000000001</ele>
        <time>2025-04-27T06:39:35Z</time>
      </trkpt>
      <trkpt lat="43.541147019714117" lon="-1.453575985506177">
        <ele>9.27</ele>
        <time>2025-04-27T06:39:36Z</time>
      </trkpt>
      <trkpt lat="43.541183983907104" lon="-1.453671036288142">
        <ele>8.310000000000001</ele>
        <time>2025-04-27T06:39:37Z</time>
      </trkpt>
      <trkpt lat="43.541220026090741" lon="-1.453761979937553">
        <ele>6.87</ele>
        <time>2025-04-27T06:39:38Z</time>
      </trkpt>
      <trkpt lat="43.541288003325462" lon="-1.453939005732536">
        <ele>4.94</ele>
        <time>2025-04-27T06:39:40Z</time>
      </trkpt>
      <trkpt lat="43.541315998882055" lon="-1.454023998230696">
        <ele>3.98</ele>
        <time>2025-04-27T06:39:41Z</time>
      </trkpt>
      <trkpt lat="43.541578017175198" lon="-1.454906025901437">
        <ele>3.98</ele>
        <time>2025-04-27T06:39:50Z</time>
      </trkpt>
      <trkpt lat="43.541800975799561" lon="-1.45594596862793">
        <ele>15.52</ele>
        <time>2025-04-27T06:40:01Z</time>
      </trkpt>
      <trkpt lat="43.541780021041632" lon="-1.45603196695447">
        <ele>16.48</ele>
        <time>2025-04-27T06:40:02Z</time>
      </trkpt>
      <trkpt lat="43.541769040748477" lon="-1.456067003309727">
        <ele>17.440000000000001</ele>
        <time>2025-04-27T06:40:03Z</time>
      </trkpt>
      <trkpt lat="43.541749007999897" lon="-1.456133974716067">
        <ele>18.399999999999999</ele>
        <time>2025-04-27T06:40:04Z</time>
      </trkpt>
      <trkpt lat="43.541726041585207" lon="-1.456208992749453">
        <ele>19.359999999999999</ele>
        <time>2025-04-27T06:40:05Z</time>
      </trkpt>
      <trkpt lat="43.541698968037963" lon="-1.456295996904373">
        <ele>19.84</ele>
        <time>2025-04-27T06:40:06Z</time>
      </trkpt>
      <trkpt lat="43.541705003008246" lon="-1.456389036029577">
        <ele>20.809999999999999</ele>
        <time>2025-04-27T06:40:07Z</time>
      </trkpt>
      <trkpt lat="43.541721012443304" lon="-1.456494983285666">
        <ele>21.289999999999999</ele>
        <time>2025-04-27T06:40:08Z</time>
      </trkpt>
      <trkpt lat="43.541737021878362" lon="-1.456606965512037">
        <ele>22.25</ele>
        <time>2025-04-27T06:40:09Z</time>
      </trkpt>
      <trkpt lat="43.541864007711411" lon="-1.458011018112302">
        <ele>31.859999999999999</ele>
        <time>2025-04-27T06:40:21Z</time>
      </trkpt>
      <trkpt lat="43.541878005489707" lon="-1.458279993385077">
        <ele>33.299999999999997</ele>
        <time>2025-04-27T06:40:24Z</time>
      </trkpt>
      <trkpt lat="43.54188303463161" lon="-1.458368003368378">
        <ele>34.259999999999998</ele>
        <time>2025-04-27T06:40:25Z</time>
      </trkpt>
      <trkpt lat="43.541886974126101" lon="-1.458457019180059">
        <ele>34.259999999999998</ele>
        <time>2025-04-27T06:40:26Z</time>
      </trkpt>
      <trkpt lat="43.541952017694712" lon="-1.458708979189396">
        <ele>35.710000000000001</ele>
        <time>2025-04-27T06:40:29Z</time>
      </trkpt>
      <trkpt lat="43.541952017694712" lon="-1.458757007494569">
        <ele>36.189999999999998</ele>
        <time>2025-04-27T06:40:30Z</time>
      </trkpt>
      <trkpt lat="43.541915975511074" lon="-1.4589539822191">
        <ele>37.149999999999999</ele>
        <time>2025-04-27T06:40:32Z</time>
      </trkpt>
      <trkpt lat="43.541921004652977" lon="-1.459041992202401">
        <ele>37.630000000000003</ele>
        <time>2025-04-27T06:40:33Z</time>
      </trkpt>
      <trkpt lat="43.541941959410906" lon="-1.459416998550296">
        <ele>39.549999999999997</ele>
        <time>2025-04-27T06:40:37Z</time>
      </trkpt>
      <trkpt lat="43.54194900020957" lon="-1.459564017131925">
        <ele>40.509999999999998</ele>
        <time>2025-04-27T06:40:39Z</time>
      </trkpt>
      <trkpt lat="43.542015971615911" lon="-1.459724027663469">
        <ele>40.990000000000002</ele>
        <time>2025-04-27T06:40:41Z</time>
      </trkpt>
      <trkpt lat="43.542015971615911" lon="-1.459786975756288">
        <ele>40.990000000000002</ele>
        <time>2025-04-27T06:40:42Z</time>
      </trkpt>
      <trkpt lat="43.541987976059318" lon="-1.459904992952943">
        <ele>41.469999999999999</ele>
        <time>2025-04-27T06:40:43Z</time>
      </trkpt>
      <trkpt lat="43.542003985494375" lon="-1.459993002936244">
        <ele>41.950000000000003</ele>
        <time>2025-04-27T06:40:44Z</time>
      </trkpt>
      <trkpt lat="43.542022006586194" lon="-1.460083024576306">
        <ele>41.950000000000003</ele>
        <time>2025-04-27T06:40:45Z</time>
      </trkpt>
      <trkpt lat="43.542037010192871" lon="-1.460161982104182">
        <ele>42.439999999999998</ele>
        <time>2025-04-27T06:40:46Z</time>
      </trkpt>
      <trkpt lat="43.542050002142787" lon="-1.460228031501174">
        <ele>42.439999999999998</ele>
        <time>2025-04-27T06:40:47Z</time>
      </trkpt>
      <trkpt lat="43.542209006845951" lon="-1.460903026163578">
        <ele>43.880000000000003</ele>
        <time>2025-04-27T06:40:57Z</time>
      </trkpt>
      <trkpt lat="43.542191991582513" lon="-1.460964968428016">
        <ele>43.880000000000003</ele>
        <time>2025-04-27T06:40:58Z</time>
      </trkpt>
      <trkpt lat="43.542094007134438" lon="-1.460903026163578">
        <ele>44.359999999999999</ele>
        <time>2025-04-27T06:40:59Z</time>
      </trkpt>
      <trkpt lat="43.542030975222588" lon="-1.460903026163578">
        <ele>44.359999999999999</ele>
        <time>2025-04-27T06:41:00Z</time>
      </trkpt>
      <trkpt lat="43.541965009644628" lon="-1.460903026163578">
        <ele>44.359999999999999</ele>
        <time>2025-04-27T06:41:01Z</time>
      </trkpt>
      <trkpt lat="43.541894014924765" lon="-1.460903026163578">
        <ele>44.359999999999999</ele>
        <time>2025-04-27T06:41:02Z</time>
      </trkpt>
      <trkpt lat="43.541483972221613" lon="-1.460903026163578">
        <ele>42.920000000000002</ele>
        <time>2025-04-27T06:41:07Z</time>
      </trkpt>
      <trkpt lat="43.541394034400582" lon="-1.460903026163578">
        <ele>42.920000000000002</ele>
        <time>2025-04-27T06:41:08Z</time>
      </trkpt>
      <trkpt lat="43.541303006932139" lon="-1.460903026163578">
        <ele>42.439999999999998</ele>
        <time>2025-04-27T06:41:09Z</time>
      </trkpt>
      <trkpt lat="43.540639998391271" lon="-1.460903026163578">
        <ele>40.990000000000002</ele>
        <time>2025-04-27T06:41:17Z</time>
      </trkpt>
      <trkpt lat="43.539615981280804" lon="-1.460917023941875">
        <ele>39.07</ele>
        <time>2025-04-27T06:41:28Z</time>
      </trkpt>
      <trkpt lat="43.539257990196347" lon="-1.460923980921507">
        <ele>39.07</ele>
        <time>2025-04-27T06:41:32Z</time>
      </trkpt>
      <trkpt lat="43.539184983819723" lon="-1.460923980921507">
        <ele>39.07</ele>
        <time>2025-04-27T06:41:33Z</time>
      </trkpt>
      <trkpt lat="43.539121029898524" lon="-1.460923980921507">
        <ele>39.07</ele>
        <time>2025-04-27T06:41:34Z</time>
      </trkpt>
      <trkpt lat="43.539068978279829" lon="-1.460923980921507">
        <ele>39.549999999999997</ele>
        <time>2025-04-27T06:41:35Z</time>
      </trkpt>
      <trkpt lat="43.539018016308546" lon="-1.460923980921507">
        <ele>39.549999999999997</ele>
        <time>2025-04-27T06:41:36Z</time>
      </trkpt>
      <trkpt lat="43.538959007710218" lon="-1.460923980921507">
        <ele>39.549999999999997</ele>
        <time>2025-04-27T06:41:37Z</time>
      </trkpt>
      <trkpt lat="43.538895975798368" lon="-1.461031017825007">
        <ele>40.030000000000001</ele>
        <time>2025-04-27T06:41:38Z</time>
      </trkpt>
      <trkpt lat="43.538839984685183" lon="-1.461031017825007">
        <ele>40.030000000000001</ele>
        <time>2025-04-27T06:41:39Z</time>
      </trkpt>
      <trkpt lat="43.538627000525594" lon="-1.460935967043042">
        <ele>40.990000000000002</ele>
        <time>2025-04-27T06:41:42Z</time>
      </trkpt>
      <trkpt lat="43.53855499997735" lon="-1.460932027548552">
        <ele>40.990000000000002</ele>
        <time>2025-04-27T06:41:43Z</time>
      </trkpt>
      <trkpt lat="43.538484005257487" lon="-1.460928004235029">
        <ele>41.469999999999999</ele>
        <time>2025-04-27T06:41:44Z</time>
      </trkpt>
      <trkpt lat="43.538160966709256" lon="-1.460923980921507">
        <ele>42.439999999999998</ele>
        <time>2025-04-27T06:41:48Z</time>
      </trkpt>
      <trkpt lat="43.538073040544987" lon="-1.460923980921507">
        <ele>42.439999999999998</ele>
        <time>2025-04-27T06:41:49Z</time>
      </trkpt>
      <trkpt lat="43.537273993715644" lon="-1.460934961214662">
        <ele>40.509999999999998</ele>
        <time>2025-04-27T06:41:59Z</time>
      </trkpt>
      <trkpt lat="43.536437982693315" lon="-1.460946025326848">
        <ele>37.149999999999999</ele>
        <time>2025-04-27T06:42:09Z</time>
      </trkpt>
      <trkpt lat="43.535377001389861" lon="-1.460946025326848">
        <ele>32.340000000000003</ele>
        <time>2025-04-27T06:42:21Z</time>
      </trkpt>
      <trkpt lat="43.534203032031655" lon="-1.460946025326848">
        <ele>31.379999999999999</ele>
        <time>2025-04-27T06:42:33Z</time>
      </trkpt>
      <trkpt lat="43.532872991636395" lon="-1.460955999791622">
        <ele>36.670000000000002</ele>
        <time>2025-04-27T06:42:46Z</time>
      </trkpt>
      <trkpt lat="43.532188022509217" lon="-1.46101500838995">
        <ele>37.630000000000003</ele>
        <time>2025-04-27T06:42:52Z</time>
      </trkpt>
      <trkpt lat="43.532106969505548" lon="-1.461026994511485">
        <ele>37.630000000000003</ele>
        <time>2025-04-27T06:42:53Z</time>
      </trkpt>
      <trkpt lat="43.532004961743951" lon="-1.461063958704472">
        <ele>37.630000000000003</ele>
        <time>2025-04-27T06:42:55Z</time>
      </trkpt>
      <trkpt lat="43.531932039186358" lon="-1.461176024749875">
        <ele>37.630000000000003</ele>
        <time>2025-04-27T06:42:57Z</time>
      </trkpt>
      <trkpt lat="43.531885016709566" lon="-1.4612109772861">
        <ele>38.109999999999999</ele>
        <time>2025-04-27T06:42:58Z</time>
      </trkpt>
      <trkpt lat="43.531759036704898" lon="-1.461095977574587">
        <ele>38.109999999999999</ele>
        <time>2025-04-27T06:42:59Z</time>
      </trkpt>
      <trkpt lat="43.531655017286539" lon="-1.461130008101463">
        <ele>37.630000000000003</ele>
        <time>2025-04-27T06:43:01Z</time>
      </trkpt>
      <trkpt lat="43.530810037627816" lon="-1.461572991684079">
        <ele>36.189999999999998</ele>
        <time>2025-04-27T06:43:10Z</time>
      </trkpt>
      <trkpt lat="43.530705012381077" lon="-1.461629988625646">
        <ele>36.189999999999998</ele>
        <time>2025-04-27T06:43:11Z</time>
      </trkpt>
      <trkpt lat="43.530595041811466" lon="-1.461695032194257">
        <ele>36.189999999999998</ele>
        <time>2025-04-27T06:43:12Z</time>
      </trkpt>
      <trkpt lat="43.529598014429212" lon="-1.462488966062665">
        <ele>34.259999999999998</ele>
        <time>2025-04-27T06:43:22Z</time>
      </trkpt>
      <trkpt lat="43.528423039242625" lon="-1.46339999511838">
        <ele>30.899999999999999</ele>
        <time>2025-04-27T06:43:34Z</time>
      </trkpt>
      <trkpt lat="43.527585016563535" lon="-1.463856976479292">
        <ele>28.98</ele>
        <time>2025-04-27T06:43:43Z</time>
      </trkpt>
      <trkpt lat="43.527512010186911" lon="-1.463888995349407">
        <ele>29.460000000000001</ele>
        <time>2025-04-27T06:43:44Z</time>
      </trkpt>
      <trkpt lat="43.527414025738835" lon="-1.464068032801151">
        <ele>29.940000000000001</ele>
        <time>2025-04-27T06:43:46Z</time>
      </trkpt>
      <trkpt lat="43.527335990220308" lon="-1.464128969237208">
        <ele>29.940000000000001</ele>
        <time>2025-04-27T06:43:47Z</time>
      </trkpt>
      <trkpt lat="43.5272759757936" lon="-1.464150007814169">
        <ele>30.420000000000002</ele>
        <time>2025-04-27T06:43:48Z</time>
      </trkpt>
      <trkpt lat="43.52723197080195" lon="-1.464164005592465">
        <ele>30.899999999999999</ele>
        <time>2025-04-27T06:43:49Z</time>
      </trkpt>
      <trkpt lat="43.527112025767565" lon="-1.463971976190805">
        <ele>30.899999999999999</ele>
        <time>2025-04-27T06:43:50Z</time>
      </trkpt>
      <trkpt lat="43.526938017457724" lon="-1.463989997282624">
        <ele>31.379999999999999</ele>
        <time>2025-04-27T06:43:52Z</time>
      </trkpt>
      <trkpt lat="43.525567995384336" lon="-1.464169034734368">
        <ele>34.259999999999998</ele>
        <time>2025-04-27T06:44:06Z</time>
      </trkpt>
      <trkpt lat="43.525074971839786" lon="-1.46423701196909">
        <ele>32.82</ele>
        <time>2025-04-27T06:44:11Z</time>
      </trkpt>
      <trkpt lat="43.52454598993063" lon="-1.464319992810488">
        <ele>30.420000000000002</ele>
        <time>2025-04-27T06:44:17Z</time>
      </trkpt>
      <trkpt lat="43.524356978014112" lon="-1.464529037475586">
        <ele>29.940000000000001</ele>
        <time>2025-04-27T06:44:20Z</time>
      </trkpt>
      <trkpt lat="43.524267040193081" lon="-1.464506993070245">
        <ele>29.460000000000001</ele>
        <time>2025-04-27T06:44:21Z</time>
      </trkpt>
      <trkpt lat="43.524184981361032" lon="-1.464486038312316">
        <ele>29.460000000000001</ele>
        <time>2025-04-27T06:44:22Z</time>
      </trkpt>
      <trkpt lat="43.523931009694934" lon="-1.464456031098962">
        <ele>28.98</ele>
        <time>2025-04-27T06:44:25Z</time>
      </trkpt>
      <trkpt lat="43.522780006751418" lon="-1.46455803886056">
        <ele>30.899999999999999</ele>
        <time>2025-04-27T06:44:36Z</time>
      </trkpt>
      <trkpt lat="43.521623974665999" lon="-1.464572958648205">
        <ele>31.859999999999999</ele>
        <time>2025-04-27T06:44:46Z</time>
      </trkpt>
      <trkpt lat="43.521356005221605" lon="-1.46451503969729">
        <ele>30.899999999999999</ele>
        <time>2025-04-27T06:44:48Z</time>
      </trkpt>
      <trkpt lat="43.520733984187245" lon="-1.464297026395798">
        <ele>29.940000000000001</ele>
        <time>2025-04-27T06:44:52Z</time>
      </trkpt>
      <trkpt lat="43.520275996997952" lon="-1.464175991714001">
        <ele>28.98</ele>
        <time>2025-04-27T06:44:55Z</time>
      </trkpt>
      <trkpt lat="43.520121015608311" lon="-1.464144978672266">
        <ele>28.5</ele>
        <time>2025-04-27T06:44:56Z</time>
      </trkpt>
      <trkpt lat="43.519483990967274" lon="-1.464179009199143">
        <ele>27.050000000000001</ele>
        <time>2025-04-27T06:45:00Z</time>
      </trkpt>
      <trkpt lat="43.519326997920871" lon="-1.464230976998806">
        <ele>26.09</ele>
        <time>2025-04-27T06:45:01Z</time>
      </trkpt>
      <trkpt lat="43.519167993217707" lon="-1.464291997253895">
        <ele>25.609999999999999</ele>
        <time>2025-04-27T06:45:02Z</time>
      </trkpt>
      <trkpt lat="43.517737034708261" lon="-1.465029017999768">
        <ele>17.920000000000002</ele>
        <time>2025-04-27T06:45:11Z</time>
      </trkpt>
      <trkpt lat="43.516386961564422" lon="-1.465737959370017">
        <ele>9.27</ele>
        <time>2025-04-27T06:45:20Z</time>
      </trkpt>
      <trkpt lat="43.515340983867645" lon="-1.466483026742935">
        <ele>8.789999999999999</ele>
        <time>2025-04-27T06:45:28Z</time>
      </trkpt>
      <trkpt lat="43.514378992840648" lon="-1.467047967016697">
        <ele>10.710000000000001</ele>
        <time>2025-04-27T06:45:35Z</time>
      </trkpt>
      <trkpt lat="43.513743979856372" lon="-1.467315014451742">
        <ele>11.67</ele>
        <time>2025-04-27T06:45:40Z</time>
      </trkpt>
      <trkpt lat="43.513208040967584" lon="-1.467636041343212">
        <ele>13.119999999999999</ele>
        <time>2025-04-27T06:45:45Z</time>
      </trkpt>
      <trkpt lat="43.512357026338577" lon="-1.468229983001947">
        <ele>19.359999999999999</ele>
        <time>2025-04-27T06:45:54Z</time>
      </trkpt>
      <trkpt lat="43.511530989781022" lon="-1.468530977144837">
        <ele>28.02</ele>
        <time>2025-04-27T06:46:03Z</time>
      </trkpt>
      <trkpt lat="43.511278023943305" lon="-1.46853600628674">
        <ele>30.420000000000002</ele>
        <time>2025-04-27T06:46:06Z</time>
      </trkpt>
      <trkpt lat="43.511198982596397" lon="-1.468527037650347">
        <ele>30.899999999999999</ele>
        <time>2025-04-27T06:46:07Z</time>
      </trkpt>
      <trkpt lat="43.510921038687229" lon="-1.468488983809948">
        <ele>33.780000000000001</ele>
        <time>2025-04-27T06:46:12Z</time>
      </trkpt>
      <trkpt lat="43.510631024837494" lon="-1.46842896938324">
        <ele>36.670000000000002</ele>
        <time>2025-04-27T06:46:17Z</time>
      </trkpt>
      <trkpt lat="43.510549971833825" lon="-1.468397034332156">
        <ele>37.149999999999999</ele>
        <time>2025-04-27T06:46:18Z</time>
      </trkpt>
      <trkpt lat="43.509557973593473" lon="-1.468034014105797">
        <ele>41.950000000000003</ele>
        <time>2025-04-27T06:46:30Z</time>
      </trkpt>
      <trkpt lat="43.509497037157416" lon="-1.468016998842359">
        <ele>41.950000000000003</ele>
        <time>2025-04-27T06:46:31Z</time>
      </trkpt>
      <trkpt lat="43.509435011073947" lon="-1.46799897775054">
        <ele>42.439999999999998</ele>
        <time>2025-04-27T06:46:38Z</time>
      </trkpt>
      <trkpt lat="43.509403998032212" lon="-1.467991014942527">
        <ele>42.439999999999998</ele>
        <time>2025-04-27T06:46:48Z</time>
      </trkpt>
      <trkpt lat="43.509366028010845" lon="-1.467979028820992">
        <ele>42.439999999999998</ele>
        <time>2025-04-27T06:46:49Z</time>
      </trkpt>
      <trkpt lat="43.509310958907008" lon="-1.467961007729173">
        <ele>42.439999999999998</ele>
        <time>2025-04-27T06:46:50Z</time>
      </trkpt>
      <trkpt lat="43.508580978959799" lon="-1.467708041891456">
        <ele>42.920000000000002</ele>
        <time>2025-04-27T06:46:59Z</time>
      </trkpt>
      <trkpt lat="43.507484961301088" lon="-1.467344015836716">
        <ele>44.359999999999999</ele>
        <time>2025-04-27T06:47:10Z</time>
      </trkpt>
      <trkpt lat="43.507283041253686" lon="-1.467290036380291">
        <ele>45.32</ele>
        <time>2025-04-27T06:47:12Z</time>
      </trkpt>
      <trkpt lat="43.506160033866763" lon="-1.467235973104835">
        <ele>46.759999999999998</ele>
        <time>2025-04-27T06:47:23Z</time>
      </trkpt>
      <trkpt lat="43.505955012515187" lon="-1.467242008075118">
        <ele>46.280000000000001</ele>
        <time>2025-04-27T06:47:25Z</time>
      </trkpt>
      <trkpt lat="43.504965025931597" lon="-1.467276960611343">
        <ele>46.759999999999998</ele>
        <time>2025-04-27T06:47:37Z</time>
      </trkpt>
      <trkpt lat="43.504941975697875" lon="-1.467277966439724">
        <ele>47.240000000000002</ele>
        <time>2025-04-27T06:47:46Z</time>
      </trkpt>
      <trkpt lat="43.50465296767652" lon="-1.467297999188304">
        <ele>48.68</ele>
        <time>2025-04-27T06:47:57Z</time>
      </trkpt>
      <trkpt lat="43.504534028470516" lon="-1.467318031936884">
        <ele>48.68</ele>
        <time>2025-04-27T06:47:59Z</time>
      </trkpt>
      <trkpt lat="43.504472002387047" lon="-1.467328006401658">
        <ele>48.68</ele>
        <time>2025-04-27T06:48:00Z</time>
      </trkpt>
      <trkpt lat="43.504401007667184" lon="-1.467339992523193">
        <ele>48.68</ele>
        <time>2025-04-27T06:48:01Z</time>
      </trkpt>
      <trkpt lat="43.504337975755334" lon="-1.46737402305007">
        <ele>48.68</ele>
        <time>2025-04-27T06:48:02Z</time>
      </trkpt>
      <trkpt lat="43.504276033490896" lon="-1.467409981414676">
        <ele>48.68</ele>
        <time>2025-04-27T06:48:03Z</time>
      </trkpt>
      <trkpt lat="43.503863979130983" lon="-1.467721033841372">
        <ele>52.530000000000001</ele>
        <time>2025-04-27T06:48:12Z</time>
      </trkpt>
      <trkpt lat="43.503863979130983" lon="-1.467721033841372">
        <ele>53.009999999999998</ele>
        <time>2025-04-27T06:48:28Z</time>
      </trkpt>
      <trkpt lat="43.503677984699607" lon="-1.467868974432349">
        <ele>55.890000000000001</ele>
        <time>2025-04-27T06:48:49Z</time>
      </trkpt>
      <trkpt lat="43.503606989979744" lon="-1.467983974143863">
        <ele>56.369999999999997</ele>
        <time>2025-04-27T06:48:50Z</time>
      </trkpt>
      <trkpt lat="43.503606989979744" lon="-1.468050023540855">
        <ele>56.369999999999997</ele>
        <time>2025-04-27T06:48:51Z</time>
      </trkpt>
      <trkpt lat="43.503606989979744" lon="-1.46812504157424">
        <ele>56.369999999999997</ele>
        <time>2025-04-27T06:48:52Z</time>
      </trkpt>
      <trkpt lat="43.503606989979744" lon="-1.468211961910129">
        <ele>55.890000000000001</ele>
        <time>2025-04-27T06:48:53Z</time>
      </trkpt>
      <trkpt lat="43.503606989979744" lon="-1.468309024348855">
        <ele>55.890000000000001</ele>
        <time>2025-04-27T06:48:54Z</time>
      </trkpt>
      <trkpt lat="43.503658035770059" lon="-1.469479976221919">
        <ele>55.409999999999997</ele>
        <time>2025-04-27T06:49:03Z</time>
      </trkpt>
      <trkpt lat="43.503711009398103" lon="-1.470128986984491">
        <ele>52.530000000000001</ele>
        <time>2025-04-27T06:49:07Z</time>
      </trkpt>
      <trkpt lat="43.503774041309953" lon="-1.470588985830545">
        <ele>49.649999999999999</ele>
        <time>2025-04-27T06:49:10Z</time>
      </trkpt>
      <trkpt lat="43.504003034904599" lon="-1.47214500233531">
        <ele>37.630000000000003</ele>
        <time>2025-04-27T06:49:20Z</time>
      </trkpt>
      <trkpt lat="43.504026001319289" lon="-1.472298977896571">
        <ele>36.189999999999998</ele>
        <time>2025-04-27T06:49:21Z</time>
      </trkpt>
      <trkpt lat="43.504041004925966" lon="-1.473580989986658">
        <ele>26.57</ele>
        <time>2025-04-27T06:49:29Z</time>
      </trkpt>
      <trkpt lat="43.504004962742329" lon="-1.47373697720468">
        <ele>25.609999999999999</ele>
        <time>2025-04-27T06:49:30Z</time>
      </trkpt>
      <trkpt lat="43.503951989114285" lon="-1.47388500161469">
        <ele>24.649999999999999</ele>
        <time>2025-04-27T06:49:31Z</time>
      </trkpt>
      <trkpt lat="43.503900021314621" lon="-1.47403403185308">
        <ele>23.690000000000001</ele>
        <time>2025-04-27T06:49:32Z</time>
      </trkpt>
      <trkpt lat="43.503847969695926" lon="-1.474179960787296">
        <ele>22.73</ele>
        <time>2025-04-27T06:49:33Z</time>
      </trkpt>
      <trkpt lat="43.503798013553023" lon="-1.474323961883783">
        <ele>22.25</ele>
        <time>2025-04-27T06:49:34Z</time>
      </trkpt>
      <trkpt lat="43.50372701883316" lon="-1.474452037364245">
        <ele>21.289999999999999</ele>
        <time>2025-04-27T06:49:35Z</time>
      </trkpt>
      <trkpt lat="43.503645965829492" lon="-1.474566031247377">
        <ele>20.32</ele>
        <time>2025-04-27T06:49:36Z</time>
      </trkpt>
      <trkpt lat="43.503563990816474" lon="-1.47468295879662">
        <ele>19.359999999999999</ele>
        <time>2025-04-27T06:49:37Z</time>
      </trkpt>
      <trkpt lat="43.503483021631837" lon="-1.474797958508134">
        <ele>18.879999999999999</ele>
        <time>2025-04-27T06:49:38Z</time>
      </trkpt>
      <trkpt lat="43.502635024487972" lon="-1.476114001125097">
        <ele>10.23</ele>
        <time>2025-04-27T06:49:49Z</time>
      </trkpt>
      <trkpt lat="43.502445006743073" lon="-1.476683970540762">
        <ele>6.87</ele>
        <time>2025-04-27T06:49:53Z</time>
      </trkpt>
      <trkpt lat="43.502406030893326" lon="-1.47682998329401">
        <ele>5.91</ele>
        <time>2025-04-27T06:49:54Z</time>
      </trkpt>
      <trkpt lat="43.502254988998175" lon="-1.477597011253238">
        <ele>4.46</ele>
        <time>2025-04-27T06:49:59Z</time>
      </trkpt>
      <trkpt lat="43.5022640414536" lon="-1.478288015350699">
        <ele>4.94</ele>
        <time>2025-04-27T06:50:04Z</time>
      </trkpt>
      <trkpt lat="43.502277033403516" lon="-1.478412989526987">
        <ele>5.42</ele>
        <time>2025-04-27T06:50:05Z</time>
      </trkpt>
      <trkpt lat="43.502327995374799" lon="-1.478502005338669">
        <ele>5.42</ele>
        <time>2025-04-27T06:50:06Z</time>
      </trkpt>
      <trkpt lat="43.502350961789489" lon="-1.478694034740329">
        <ele>5.42</ele>
        <time>2025-04-27T06:50:08Z</time>
      </trkpt>
      <trkpt lat="43.502346016466618" lon="-1.478763017803431">
        <ele>5.42</ele>
        <time>2025-04-27T06:50:09Z</time>
      </trkpt>
      <trkpt lat="43.502322966232896" lon="-1.478847004473209">
        <ele>5.42</ele>
        <time>2025-04-27T06:50:10Z</time>
      </trkpt>
      <trkpt lat="43.502279967069626" lon="-1.478911964222789">
        <ele>5.42</ele>
        <time>2025-04-27T06:50:11Z</time>
      </trkpt>
      <trkpt lat="43.502200003713369" lon="-1.478959992527962">
        <ele>5.42</ele>
        <time>2025-04-27T06:50:12Z</time>
      </trkpt>
      <trkpt lat="43.502148035913706" lon="-1.478969966992736">
        <ele>5.42</ele>
        <time>2025-04-27T06:50:13Z</time>
      </trkpt>
      <trkpt lat="43.502053990960121" lon="-1.478877011686564">
        <ele>5.42</ele>
        <time>2025-04-27T06:50:14Z</time>
      </trkpt>
      <trkpt lat="43.501763977110386" lon="-1.478834012523294">
        <ele>5.42</ele>
        <time>2025-04-27T06:50:17Z</time>
      </trkpt>
      <trkpt lat="43.501661969348788" lon="-1.478839963674545">
        <ele>5.42</ele>
        <time>2025-04-27T06:50:18Z</time>
      </trkpt>
      <trkpt lat="43.501548981294036" lon="-1.478897966444492">
        <ele>5.42</ele>
        <time>2025-04-27T06:50:19Z</time>
      </trkpt>
      <trkpt lat="43.501444039866328" lon="-1.478968961164355">
        <ele>4.94</ele>
        <time>2025-04-27T06:50:20Z</time>
      </trkpt>
      <trkpt lat="43.501334991306067" lon="-1.47904297336936">
        <ele>4.94</ele>
        <time>2025-04-27T06:50:21Z</time>
      </trkpt>
      <trkpt lat="43.500220030546188" lon="-1.479975963011384">
        <ele>5.42</ele>
        <time>2025-04-27T06:50:32Z</time>
      </trkpt>
      <trkpt lat="43.499418972060084" lon="-1.48110500536859">
        <ele>0.14</ele>
        <time>2025-04-27T06:50:42Z</time>
      </trkpt>
      <trkpt lat="43.499353006482124" lon="-1.481315977871418">
        <ele>-0.82</ele>
        <time>2025-04-27T06:50:44Z</time>
      </trkpt>
      <trkpt lat="43.499315036460757" lon="-1.481438018381596">
        <ele>-1.3</ele>
        <time>2025-04-27T06:50:45Z</time>
      </trkpt>
      <trkpt lat="43.499317970126867" lon="-1.481626024469733">
        <ele>-1.3</ele>
        <time>2025-04-27T06:50:47Z</time>
      </trkpt>
      <trkpt lat="43.499287962913513" lon="-1.481724008917809">
        <ele>-1.3</ele>
        <time>2025-04-27T06:50:48Z</time>
      </trkpt>
      <trkpt lat="43.499242030084133" lon="-1.481849988922477">
        <ele>-1.3</ele>
        <time>2025-04-27T06:50:49Z</time>
      </trkpt>
      <trkpt lat="43.499168017879128" lon="-1.481887036934495">
        <ele>-1.3</ele>
        <time>2025-04-27T06:50:50Z</time>
      </trkpt>
      <trkpt lat="43.499082019552588" lon="-1.48187798447907">
        <ele>-0.82</ele>
        <time>2025-04-27T06:50:51Z</time>
      </trkpt>
      <trkpt lat="43.499025022611022" lon="-1.481871027499437">
        <ele>-0.82</ele>
        <time>2025-04-27T06:50:52Z</time>
      </trkpt>
      <trkpt lat="43.498993003740907" lon="-1.481867004185915">
        <ele>-0.82</ele>
        <time>2025-04-27T06:50:53Z</time>
      </trkpt>
      <trkpt lat="43.49889200180769" lon="-1.481782011687756">
        <ele>-0.82</ele>
        <time>2025-04-27T06:50:54Z</time>
      </trkpt>
      <trkpt lat="43.498814972117543" lon="-1.481829034164548">
        <ele>-0.82</ele>
        <time>2025-04-27T06:50:55Z</time>
      </trkpt>
      <trkpt lat="43.498726962134242" lon="-1.48189801722765">
        <ele>-0.34</ele>
        <time>2025-04-27T06:50:56Z</time>
      </trkpt>
      <trkpt lat="43.49863501265645" lon="-1.481971023604274">
        <ele>-0.34</ele>
        <time>2025-04-27T06:50:57Z</time>
      </trkpt>
      <trkpt lat="43.497375966981053" lon="-1.482896972447634">
        <ele>3.5</ele>
        <time>2025-04-27T06:51:10Z</time>
      </trkpt>
      <trkpt lat="43.497222997248173" lon="-1.483011972159147">
        <ele>2.54</ele>
        <time>2025-04-27T06:51:12Z</time>
      </trkpt>
      <trkpt lat="43.497159965336323" lon="-1.48306000046432">
        <ele>2.06</ele>
        <time>2025-04-27T06:51:13Z</time>
      </trkpt>
      <trkpt lat="43.497101962566376" lon="-1.48310299962759">
        <ele>1.58</ele>
        <time>2025-04-27T06:51:14Z</time>
      </trkpt>
      <trkpt lat="43.497061980888247" lon="-1.483256975188851">
        <ele>1.1</ele>
        <time>2025-04-27T06:51:15Z</time>
      </trkpt>
      <trkpt lat="43.497061980888247" lon="-1.483354959636927">
        <ele>0.62</ele>
        <time>2025-04-27T06:51:16Z</time>
      </trkpt>
      <trkpt lat="43.497043959796429" lon="-1.483472976833582">
        <ele>0.62</ele>
        <time>2025-04-27T06:51:17Z</time>
      </trkpt>
      <trkpt lat="43.496986962854862" lon="-1.483529973775148">
        <ele>1.1</ele>
        <time>2025-04-27T06:51:18Z</time>
      </trkpt>
      <trkpt lat="43.496914962306619" lon="-1.483560986816883">
        <ele>1.1</ele>
        <time>2025-04-27T06:51:19Z</time>
      </trkpt>
      <trkpt lat="43.49685100838542" lon="-1.483582025393844">
        <ele>1.1</ele>
        <time>2025-04-27T06:51:20Z</time>
      </trkpt>
      <trkpt lat="43.496795017272234" lon="-1.483562998473644">
        <ele>1.1</ele>
        <time>2025-04-27T06:51:21Z</time>
      </trkpt>
      <trkpt lat="43.496740031987429" lon="-1.483541037887335">
        <ele>1.58</ele>
        <time>2025-04-27T06:51:22Z</time>
      </trkpt>
      <trkpt lat="43.496703989803791" lon="-1.483474988490343">
        <ele>1.58</ele>
        <time>2025-04-27T06:51:23Z</time>
      </trkpt>
      <trkpt lat="43.496663002297282" lon="-1.483400976285338">
        <ele>1.58</ele>
        <time>2025-04-27T06:51:24Z</time>
      </trkpt>
      <trkpt lat="43.496645987033844" lon="-1.483286982402206">
        <ele>2.06</ele>
        <time>2025-04-27T06:51:25Z</time>
      </trkpt>
      <trkpt lat="43.496668031439185" lon="-1.483191009610891">
        <ele>2.06</ele>
        <time>2025-04-27T06:51:26Z</time>
      </trkpt>
      <trkpt lat="43.496675994247198" lon="-1.483153961598873">
        <ele>2.06</ele>
        <time>2025-04-27T06:51:27Z</time>
      </trkpt>
      <trkpt lat="43.496660990640521" lon="-1.48299596272409">
        <ele>2.54</ele>
        <time>2025-04-27T06:51:28Z</time>
      </trkpt>
      <trkpt lat="43.496652022004128" lon="-1.482900995761156">
        <ele>2.54</ele>
        <time>2025-04-27T06:51:29Z</time>
      </trkpt>
      <trkpt lat="43.496642969548702" lon="-1.482798987999558">
        <ele>2.54</ele>
        <time>2025-04-27T06:51:30Z</time>
      </trkpt>
      <trkpt lat="43.496631989255548" lon="-1.482683988288045">
        <ele>2.54</ele>
        <time>2025-04-27T06:51:31Z</time>
      </trkpt>
      <trkpt lat="43.496621008962393" lon="-1.482564965263009">
        <ele>2.54</ele>
        <time>2025-04-27T06:51:32Z</time>
      </trkpt>
      <trkpt lat="43.49635798484087" lon="-1.481810007244349">
        <ele>3.5</ele>
        <time>2025-04-27T06:51:39Z</time>
      </trkpt>
      <trkpt lat="43.496132008731365" lon="-1.481185974553227">
        <ele>3.5</ele>
        <time>2025-04-27T06:51:47Z</time>
      </trkpt>
      <trkpt lat="43.495847024023533" lon="-1.480403020977974">
        <ele>3.5</ele>
        <time>2025-04-27T06:51:54Z</time>
      </trkpt>
      <trkpt lat="43.495548963546753" lon="-1.479544965550304">
        <ele>-0.34</ele>
        <time>2025-04-27T06:52:02Z</time>
      </trkpt>
      <trkpt lat="43.495514011010528" lon="-1.479442035779357">
        <ele>-0.34</ele>
        <time>2025-04-27T06:52:03Z</time>
      </trkpt>
      <trkpt lat="43.495479980483651" lon="-1.479340028017759">
        <ele>-0.82</ele>
        <time>2025-04-27T06:52:04Z</time>
      </trkpt>
      <trkpt lat="43.495446033775806" lon="-1.479240031912923">
        <ele>-0.82</ele>
        <time>2025-04-27T06:52:05Z</time>
      </trkpt>
      <trkpt lat="43.49541200324893" lon="-1.479140035808086">
        <ele>-1.3</ele>
        <time>2025-04-27T06:52:06Z</time>
      </trkpt>
      <trkpt lat="43.495378978550434" lon="-1.479041967540979">
        <ele>-1.79</ele>
        <time>2025-04-27T06:52:07Z</time>
      </trkpt>
      <trkpt lat="43.49526003934443" lon="-1.478692023083568">
        <ele>-3.71</ele>
        <time>2025-04-27T06:52:11Z</time>
      </trkpt>
      <trkpt lat="43.495204970240593" lon="-1.478636031970382">
        <ele>-4.19</ele>
        <time>2025-04-27T06:52:12Z</time>
      </trkpt>
      <trkpt lat="43.495168006047606" lon="-1.478598983958364">
        <ele>-4.19</ele>
        <time>2025-04-27T06:52:13Z</time>
      </trkpt>
      <trkpt lat="43.495145961642265" lon="-1.478577023372054">
        <ele>-4.19</ele>
        <time>2025-04-27T06:52:14Z</time>
      </trkpt>
      <trkpt lat="43.495128024369478" lon="-1.478559002280235">
        <ele>-4.67</ele>
        <time>2025-04-27T06:52:15Z</time>
      </trkpt>
      <trkpt lat="43.495054012164474" lon="-1.478485995903611">
        <ele>-4.19</ele>
        <time>2025-04-27T06:52:18Z</time>
      </trkpt>
      <trkpt lat="43.495013024657965" lon="-1.478449031710625">
        <ele>-4.19</ele>
        <time>2025-04-27T06:52:19Z</time>
      </trkpt>
      <trkpt lat="43.494927026331425" lon="-1.478399997577071">
        <ele>-4.19</ele>
        <time>2025-04-27T06:52:21Z</time>
      </trkpt>
      <trkpt lat="43.494838010519743" lon="-1.478320034220815">
        <ele>-3.71</ele>
        <time>2025-04-27T06:52:23Z</time>
      </trkpt>
      <trkpt lat="43.494797023013234" lon="-1.478262031450868">
        <ele>-3.71</ele>
        <time>2025-04-27T06:52:24Z</time>
      </trkpt>
      <trkpt lat="43.494753018021584" lon="-1.47818299010396">
        <ele>-4.19</ele>
        <time>2025-04-27T06:52:25Z</time>
      </trkpt>
      <trkpt lat="43.494604993611574" lon="-1.477777976542711">
        <ele>-4.67</ele>
        <time>2025-04-27T06:52:30Z</time>
      </trkpt>
      <trkpt lat="43.494543973356485" lon="-1.477606985718012">
        <ele>-5.15</ele>
        <time>2025-04-27T06:52:32Z</time>
      </trkpt>
      <trkpt lat="43.494511032477021" lon="-1.477520987391472">
        <ele>-5.15</ele>
        <time>2025-04-27T06:52:33Z</time>
      </trkpt>
      <trkpt lat="43.494348004460335" lon="-1.477094013243914">
        <ele>-5.63</ele>
        <time>2025-04-27T06:52:38Z</time>
      </trkpt>
      <trkpt lat="43.494327971711755" lon="-1.477042967453599">
        <ele>-5.63</ele>
        <time>2025-04-27T06:52:39Z</time>
      </trkpt>
      <trkpt lat="43.49429402500391" lon="-1.476953029632568">
        <ele>-5.63</ele>
        <time>2025-04-27T06:52:40Z</time>
      </trkpt>
      <trkpt lat="43.494287990033627" lon="-1.476944983005524">
        <ele>-6.11</ele>
        <time>2025-04-27T06:52:41Z</time>
      </trkpt>
      <trkpt lat="43.494261000305414" lon="-1.476909024640918">
        <ele>-6.59</ele>
        <time>2025-04-27T06:52:42Z</time>
      </trkpt>
      <trkpt lat="43.494218001142144" lon="-1.476852027699351">
        <ele>-8.029999999999999</ele>
        <time>2025-04-27T06:52:49Z</time>
      </trkpt>
      <trkpt lat="43.494173996150494" lon="-1.476792013272643">
        <ele>-8.51</ele>
        <time>2025-04-27T06:52:56Z</time>
      </trkpt>
      <trkpt lat="43.494138037785888" lon="-1.47674398496747">
        <ele>-9</ele>
        <time>2025-04-27T06:52:57Z</time>
      </trkpt>
      <trkpt lat="43.493654988706112" lon="-1.476088017225266">
        <ele>-10.92</ele>
        <time>2025-04-27T06:53:06Z</time>
      </trkpt>
      <trkpt lat="43.49349900148809" lon="-1.475875033065677">
        <ele>-11.4</ele>
        <time>2025-04-27T06:53:09Z</time>
      </trkpt>
      <trkpt lat="43.493405962362885" lon="-1.475747963413596">
        <ele>-11.4</ele>
        <time>2025-04-27T06:53:11Z</time>
      </trkpt>
      <trkpt lat="43.493093987926841" lon="-1.475297017022967">
        <ele>-9.48</ele>
        <time>2025-04-27T06:53:17Z</time>
      </trkpt>
      <trkpt lat="43.492686962708831" lon="-1.47483098320663">
        <ele>-3.71</ele>
        <time>2025-04-27T06:53:27Z</time>
      </trkpt>
      <trkpt lat="43.492716969922185" lon="-1.474697040393949">
        <ele>-1.79</ele>
        <time>2025-04-27T06:53:31Z</time>
      </trkpt>
      <trkpt lat="43.492673970758915" lon="-1.474817991256714">
        <ele>-0.82</ele>
        <time>2025-04-27T06:53:33Z</time>
      </trkpt>
      <trkpt lat="43.492694003507495" lon="-1.474838024005294">
        <ele>-0.34</ele>
        <time>2025-04-27T06:53:34Z</time>
      </trkpt>
      <trkpt lat="43.49283498711884" lon="-1.474979007616639">
        <ele>1.58</ele>
        <time>2025-04-27T06:53:46Z</time>
      </trkpt>
      <trkpt lat="43.49283498711884" lon="-1.474979007616639">
        <ele>1.58</ele>
        <time>2025-04-27T06:54:04Z</time>
      </trkpt>
      <trkpt lat="43.49283498711884" lon="-1.474979007616639">
        <ele>1.58</ele>
        <time>2025-04-27T06:54:54Z</time>
      </trkpt>
      <trkpt lat="43.49283498711884" lon="-1.474979007616639">
        <ele>2.06</ele>
        <time>2025-04-27T06:55:27Z</time>
      </trkpt>
      <trkpt lat="43.492893995717168" lon="-1.475044973194599">
        <ele>3.5</ele>
        <time>2025-04-27T06:55:28Z</time>
      </trkpt>
      <trkpt lat="43.492873962968588" lon="-1.47502301260829">
        <ele>4.46</ele>
        <time>2025-04-27T06:55:29Z</time>
      </trkpt>
      <trkpt lat="43.49285401403904" lon="-1.475000968202949">
        <ele>4.46</ele>
        <time>2025-04-27T06:55:30Z</time>
      </trkpt>
      <trkpt lat="43.492839010432363" lon="-1.474984036758542">
        <ele>4.46</ele>
        <time>2025-04-27T06:55:31Z</time>
      </trkpt>
      <trkpt lat="43.492828030139208" lon="-1.474971966817975">
        <ele>3.98</ele>
        <time>2025-04-27T06:55:32Z</time>
      </trkpt>
      <trkpt lat="43.49281202070415" lon="-1.474956041201949">
        <ele>3.5</ele>
        <time>2025-04-27T06:55:33Z</time>
      </trkpt>
      <trkpt lat="43.492759969085455" lon="-1.474903989583254">
        <ele>3.5</ele>
        <time>2025-04-27T06:55:43Z</time>
      </trkpt>
      <trkpt lat="43.4927489887923" lon="-1.474893009290099">
        <ele>3.5</ele>
        <time>2025-04-27T06:55:44Z</time>
      </trkpt>
      <trkpt lat="43.492734991014004" lon="-1.474879011511803">
        <ele>3.02</ele>
        <time>2025-04-27T06:55:45Z</time>
      </trkpt>
      <trkpt lat="43.492724010720849" lon="-1.474868031218648">
        <ele>3.02</ele>
        <time>2025-04-27T06:55:46Z</time>
      </trkpt>
      <trkpt lat="43.492714958265424" lon="-1.474858978763223">
        <ele>3.02</ele>
        <time>2025-04-27T06:55:47Z</time>
      </trkpt>
      <trkpt lat="43.49270598962903" lon="-1.474850010126829">
        <ele>3.02</ele>
        <time>2025-04-27T06:55:48Z</time>
      </trkpt>
      <trkpt lat="43.492652010172606" lon="-1.474796030670404">
        <ele>2.54</ele>
        <time>2025-04-27T06:55:51Z</time>
      </trkpt>
      <trkpt lat="43.492606999352574" lon="-1.474751019850373">
        <ele>2.06</ele>
        <time>2025-04-27T06:55:52Z</time>
      </trkpt>
      <trkpt lat="43.492556037381291" lon="-1.474699974060059">
        <ele>1.58</ele>
        <time>2025-04-27T06:55:53Z</time>
      </trkpt>
      <trkpt lat="43.492363002151251" lon="-1.474527977406979">
        <ele>1.1</ele>
        <time>2025-04-27T06:55:57Z</time>
      </trkpt>
      <trkpt lat="43.492343975231051" lon="-1.474482966586947">
        <ele>1.1</ele>
        <time>2025-04-27T06:55:58Z</time>
      </trkpt>
      <trkpt lat="43.492322014644742" lon="-1.474432004615665">
        <ele>1.58</ele>
        <time>2025-04-27T06:55:59Z</time>
      </trkpt>
      <trkpt lat="43.492302987724543" lon="-1.474387999624014">
        <ele>2.06</ele>
        <time>2025-04-27T06:56:00Z</time>
      </trkpt>
      <trkpt lat="43.49229896441102" lon="-1.47437802515924">
        <ele>2.54</ele>
        <time>2025-04-27T06:56:01Z</time>
      </trkpt>
      <trkpt lat="43.492309022694826" lon="-1.47431599907577">
        <ele>3.02</ele>
        <time>2025-04-27T06:56:02Z</time>
      </trkpt>
      <trkpt lat="43.492323020473123" lon="-1.47423000074923">
        <ele>3.5</ele>
        <time>2025-04-27T06:56:03Z</time>
      </trkpt>
      <trkpt lat="43.49234196357429" lon="-1.474121036008">
        <ele>3.5</ele>
        <time>2025-04-27T06:56:04Z</time>
      </trkpt>
      <trkpt lat="43.492356967180967" lon="-1.474089017137885">
        <ele>3.98</ele>
        <time>2025-04-27T06:56:05Z</time>
      </trkpt>
      <trkpt lat="43.492502979934216" lon="-1.473797997459769">
        <ele>4.94</ele>
        <time>2025-04-27T06:56:11Z</time>
      </trkpt>
      <trkpt lat="43.492566011846066" lon="-1.473526004701853">
        <ele>4.46</ele>
        <time>2025-04-27T06:56:14Z</time>
      </trkpt>
      <trkpt lat="43.492604987695813" lon="-1.473452998325229">
        <ele>4.46</ele>
        <time>2025-04-27T06:56:15Z</time>
      </trkpt>
      <trkpt lat="43.492647986859083" lon="-1.473374040797353">
        <ele>3.98</ele>
        <time>2025-04-27T06:56:16Z</time>
      </trkpt>
      <trkpt lat="43.492691991850734" lon="-1.473298016935587">
        <ele>3.98</ele>
        <time>2025-04-27T06:56:17Z</time>
      </trkpt>
      <trkpt lat="43.492752006277442" lon="-1.473239008337259">
        <ele>3.5</ele>
        <time>2025-04-27T06:56:18Z</time>
      </trkpt>
      <trkpt lat="43.492809003219008" lon="-1.473182011395693">
        <ele>3.02</ele>
        <time>2025-04-27T06:56:19Z</time>
      </trkpt>
      <trkpt lat="43.492867005988955" lon="-1.473132977262139">
        <ele>3.02</ele>
        <time>2025-04-27T06:56:20Z</time>
      </trkpt>
      <trkpt lat="43.492973959073424" lon="-1.473056031391025">
        <ele>2.54</ele>
        <time>2025-04-27T06:56:22Z</time>
      </trkpt>
      <trkpt lat="43.493023999035358" lon="-1.473019989207387">
        <ele>2.06</ele>
        <time>2025-04-27T06:56:23Z</time>
      </trkpt>
      <trkpt lat="43.493089964613318" lon="-1.472972966730595">
        <ele>2.06</ele>
        <time>2025-04-27T06:56:24Z</time>
      </trkpt>
      <trkpt lat="43.493168000131845" lon="-1.472924016416073">
        <ele>1.58</ele>
        <time>2025-04-27T06:56:25Z</time>
      </trkpt>
      <trkpt lat="43.493251986801624" lon="-1.472882023081183">
        <ele>1.58</ele>
        <time>2025-04-27T06:56:26Z</time>
      </trkpt>
      <trkpt lat="43.493497995659709" lon="-1.472729975357652">
        <ele>2.06</ele>
        <time>2025-04-27T06:56:29Z</time>
      </trkpt>
      <trkpt lat="43.49356496706605" lon="-1.472646994516254">
        <ele>2.54</ele>
        <time>2025-04-27T06:56:30Z</time>
      </trkpt>
      <trkpt lat="43.494414975866675" lon="-1.471597999334335">
        <ele>4.94</ele>
        <time>2025-04-27T06:56:43Z</time>
      </trkpt>
      <trkpt lat="43.495076978579164" lon="-1.470781015232205">
        <ele>5.42</ele>
        <time>2025-04-27T06:56:55Z</time>
      </trkpt>
      <trkpt lat="43.495229026302695" lon="-1.470595020800829">
        <ele>4.46</ele>
        <time>2025-04-27T06:56:58Z</time>
      </trkpt>
      <trkpt lat="43.495280994102359" lon="-1.470472980290651">
        <ele>3.98</ele>
        <time>2025-04-27T06:57:00Z</time>
      </trkpt>
      <trkpt lat="43.495333967730403" lon="-1.47021003998816">
        <ele>3.02</ele>
        <time>2025-04-27T06:57:06Z</time>
      </trkpt>
      <trkpt lat="43.49534603767097" lon="-1.470151031389833">
        <ele>3.02</ele>
        <time>2025-04-27T06:57:07Z</time>
      </trkpt>
      <trkpt lat="43.495328016579151" lon="-1.47010400891304">
        <ele>2.54</ele>
        <time>2025-04-27T06:57:08Z</time>
      </trkpt>
      <trkpt lat="43.495303960517049" lon="-1.470038965344429">
        <ele>2.54</ele>
        <time>2025-04-27T06:57:09Z</time>
      </trkpt>
      <trkpt lat="43.495280994102359" lon="-1.469979034736753">
        <ele>2.06</ele>
        <time>2025-04-27T06:57:10Z</time>
      </trkpt>
      <trkpt lat="43.495257021859288" lon="-1.469895970076323">
        <ele>1.58</ele>
        <time>2025-04-27T06:57:11Z</time>
      </trkpt>
      <trkpt lat="43.494905987754464" lon="-1.469078985974193">
        <ele>-0.82</ele>
        <time>2025-04-27T06:57:22Z</time>
      </trkpt>
      <trkpt lat="43.494818983599544" lon="-1.468884022906423">
        <ele>-0.82</ele>
        <time>2025-04-27T06:57:24Z</time>
      </trkpt>
      <trkpt lat="43.494729967787862" lon="-1.468672966584563">
        <ele>-0.34</ele>
        <time>2025-04-27T06:57:26Z</time>
      </trkpt>
      <trkpt lat="43.494684034958482" lon="-1.468564001843333">
        <ele>-0.34</ele>
        <time>2025-04-27T06:57:27Z</time>
      </trkpt>
      <trkpt lat="43.494549002498388" lon="-1.468263007700443">
        <ele>-0.34</ele>
        <time>2025-04-27T06:57:30Z</time>
      </trkpt>
      <trkpt lat="43.494504997506738" lon="-1.468166029080749">
        <ele>-0.82</ele>
        <time>2025-04-27T06:57:31Z</time>
      </trkpt>
      <trkpt lat="43.494460992515087" lon="-1.468068966642022">
        <ele>-0.82</ele>
        <time>2025-04-27T06:57:32Z</time>
      </trkpt>
      <trkpt lat="43.494416987523437" lon="-1.467973999679089">
        <ele>-1.3</ele>
        <time>2025-04-27T06:57:33Z</time>
      </trkpt>
      <trkpt lat="43.494373988360167" lon="-1.467879032716155">
        <ele>-1.3</ele>
        <time>2025-04-27T06:57:34Z</time>
      </trkpt>
      <trkpt lat="43.494328977540135" lon="-1.467780964449048">
        <ele>-1.79</ele>
        <time>2025-04-27T06:57:35Z</time>
      </trkpt>
      <trkpt lat="43.494281033053994" lon="-1.467687003314495">
        <ele>-2.27</ele>
        <time>2025-04-27T06:57:36Z</time>
      </trkpt>
      <trkpt lat="43.494226969778538" lon="-1.467609973624349">
        <ele>-2.27</ele>
        <time>2025-04-27T06:57:37Z</time>
      </trkpt>
      <trkpt lat="43.493819022551179" lon="-1.467036986723542">
        <ele>-2.75</ele>
        <time>2025-04-27T06:57:46Z</time>
      </trkpt>
      <trkpt lat="43.493819022551179" lon="-1.467036986723542">
        <ele>-2.75</ele>
        <time>2025-04-27T06:57:59Z</time>
      </trkpt>
      <trkpt lat="43.493779040873051" lon="-1.466980995610356">
        <ele>-2.75</ele>
        <time>2025-04-27T06:58:09Z</time>
      </trkpt>
      <trkpt lat="43.493742998689413" lon="-1.466930033639073">
        <ele>-2.27</ele>
        <time>2025-04-27T06:58:10Z</time>
      </trkpt>
      <trkpt lat="43.493639985099435" lon="-1.466785026714206">
        <ele>-1.3</ele>
        <time>2025-04-27T06:58:12Z</time>
      </trkpt>
      <trkpt lat="43.49300698377192" lon="-1.465901993215084">
        <ele>2.54</ele>
        <time>2025-04-27T06:58:23Z</time>
      </trkpt>
      <trkpt lat="43.492900030687451" lon="-1.465756986290216">
        <ele>2.54</ele>
        <time>2025-04-27T06:58:25Z</time>
      </trkpt>
      <trkpt lat="43.492841022089124" lon="-1.465676017105579">
        <ele>3.02</ele>
        <time>2025-04-27T06:58:26Z</time>
      </trkpt>
      <trkpt lat="43.4924899879843" lon="-1.465191040188074">
        <ele>4.94</ele>
        <time>2025-04-27T06:58:32Z</time>
      </trkpt>
      <trkpt lat="43.492433996871114" lon="-1.465106969699264">
        <ele>4.94</ele>
        <time>2025-04-27T06:58:33Z</time>
      </trkpt>
      <trkpt lat="43.49225495941937" lon="-1.464856015518308">
        <ele>4.46</ele>
        <time>2025-04-27T06:58:36Z</time>
      </trkpt>
      <trkpt lat="43.492196034640074" lon="-1.464773034676909">
        <ele>3.98</ele>
        <time>2025-04-27T06:58:37Z</time>
      </trkpt>
      <trkpt lat="43.492079023271799" lon="-1.464610006660223">
        <ele>3.5</ele>
        <time>2025-04-27T06:58:39Z</time>
      </trkpt>
      <trkpt lat="43.49201699718833" lon="-1.464524008333683">
        <ele>3.5</ele>
        <time>2025-04-27T06:58:40Z</time>
      </trkpt>
      <trkpt lat="43.491957988590002" lon="-1.464441027492285">
        <ele>3.02</ele>
        <time>2025-04-27T06:58:41Z</time>
      </trkpt>
      <trkpt lat="43.491900991648436" lon="-1.464360980316997">
        <ele>3.02</ele>
        <time>2025-04-27T06:58:42Z</time>
      </trkpt>
      <trkpt lat="43.491843994706869" lon="-1.464282022789121">
        <ele>3.02</ele>
        <time>2025-04-27T06:58:43Z</time>
      </trkpt>
      <trkpt lat="43.491591028869152" lon="-1.463907016441226">
        <ele>2.54</ele>
        <time>2025-04-27T06:58:47Z</time>
      </trkpt>
      <trkpt lat="43.491572001948953" lon="-1.463881032541394">
        <ele>2.54</ele>
        <time>2025-04-27T06:58:48Z</time>
      </trkpt>
      <trkpt lat="43.490941012278199" lon="-1.462981989607215">
        <ele>1.1</ele>
        <time>2025-04-27T06:58:58Z</time>
      </trkpt>
      <trkpt lat="43.490818971768022" lon="-1.462802030146122">
        <ele>0.62</ele>
        <time>2025-04-27T06:59:00Z</time>
      </trkpt>
      <trkpt lat="43.490759963169694" lon="-1.462704967707396">
        <ele>0.14</ele>
        <time>2025-04-27T06:59:01Z</time>
      </trkpt>
      <trkpt lat="43.49055603146553" lon="-1.462127035483718">
        <ele>1.58</ele>
        <time>2025-04-27T06:59:06Z</time>
      </trkpt>
      <trkpt lat="43.490531975403428" lon="-1.462012035772204">
        <ele>2.54</ele>
        <time>2025-04-27T06:59:07Z</time>
      </trkpt>
      <trkpt lat="43.490250008180737" lon="-1.460681995376945">
        <ele>4.46</ele>
        <time>2025-04-27T06:59:18Z</time>
      </trkpt>
      <trkpt lat="43.489576019346714" lon="-1.459324965253472">
        <ele>6.39</ele>
        <time>2025-04-27T06:59:29Z</time>
      </trkpt>
      <trkpt lat="43.489363035187125" lon="-1.459094965830445">
        <ele>7.35</ele>
        <time>2025-04-27T06:59:31Z</time>
      </trkpt>
      <trkpt lat="43.489265972748399" lon="-1.458989018574357">
        <ele>8.310000000000001</ele>
        <time>2025-04-27T06:59:32Z</time>
      </trkpt>
      <trkpt lat="43.489149967208505" lon="-1.458934033289552">
        <ele>8.789999999999999</ele>
        <time>2025-04-27T06:59:33Z</time>
      </trkpt>
      <trkpt lat="43.489016024395823" lon="-1.458906959742308">
        <ele>9.27</ele>
        <time>2025-04-27T06:59:34Z</time>
      </trkpt>
      <trkpt lat="43.488903036341071" lon="-1.458951970562339">
        <ele>9.75</ele>
        <time>2025-04-27T06:59:35Z</time>
      </trkpt>
      <trkpt lat="43.488773033022881" lon="-1.459021959453821">
        <ele>10.23</ele>
        <time>2025-04-27T06:59:36Z</time>
      </trkpt>
      <trkpt lat="43.488667001947761" lon="-1.459133019670844">
        <ele>10.23</ele>
        <time>2025-04-27T06:59:37Z</time>
      </trkpt>
      <trkpt lat="43.488556025549769" lon="-1.459251036867499">
        <ele>10.710000000000001</ele>
        <time>2025-04-27T06:59:38Z</time>
      </trkpt>
      <trkpt lat="43.488442031666636" lon="-1.459369976073504">
        <ele>11.19</ele>
        <time>2025-04-27T06:59:39Z</time>
      </trkpt>
      <trkpt lat="43.488323008641601" lon="-1.459540966898203">
        <ele>11.19</ele>
        <time>2025-04-27T06:59:40Z</time>
      </trkpt>
      <trkpt lat="43.487667040899396" lon="-1.461197985336185">
        <ele>13.119999999999999</ele>
        <time>2025-04-27T06:59:49Z</time>
      </trkpt>
      <trkpt lat="43.487165970727801" lon="-1.46247697994113">
        <ele>14.56</ele>
        <time>2025-04-27T06:59:57Z</time>
      </trkpt>
      <trkpt lat="43.486617039889097" lon="-1.463880026713014">
        <ele>16.48</ele>
        <time>2025-04-27T07:00:07Z</time>
      </trkpt>
      <trkpt lat="43.486263994127512" lon="-1.46546496078372">
        <ele>22.25</ele>
        <time>2025-04-27T07:00:17Z</time>
      </trkpt>
      <trkpt lat="43.486247984692454" lon="-1.466302983462811">
        <ele>24.170000000000002</ele>
        <time>2025-04-27T07:00:22Z</time>
      </trkpt>
      <trkpt lat="43.486277991905808" lon="-1.466479003429413">
        <ele>24.170000000000002</ele>
        <time>2025-04-27T07:00:23Z</time>
      </trkpt>
      <trkpt lat="43.486355021595955" lon="-1.466793995350599">
        <ele>24.649999999999999</ele>
        <time>2025-04-27T07:00:25Z</time>
      </trkpt>
      <trkpt lat="43.486983999609947" lon="-1.468638014048338">
        <ele>22.25</ele>
        <time>2025-04-27T07:00:38Z</time>
      </trkpt>
      <trkpt lat="43.487107967957854" lon="-1.468788972124457">
        <ele>21.289999999999999</ele>
        <time>2025-04-27T07:00:40Z</time>
      </trkpt>
      <trkpt lat="43.487124983221292" lon="-1.468895003199577">
        <ele>20.32</ele>
        <time>2025-04-27T07:00:41Z</time>
      </trkpt>
      <trkpt lat="43.487143004313111" lon="-1.469002040103078">
        <ele>20.32</ele>
        <time>2025-04-27T07:00:42Z</time>
      </trkpt>
      <trkpt lat="43.487063040956855" lon="-1.469142017886043">
        <ele>19.84</ele>
        <time>2025-04-27T07:00:43Z</time>
      </trkpt>
      <trkpt lat="43.487035967409611" lon="-1.469237990677357">
        <ele>19.359999999999999</ele>
        <time>2025-04-27T07:00:44Z</time>
      </trkpt>
      <trkpt lat="43.486995985731483" lon="-1.469376040622592">
        <ele>18.879999999999999</ele>
        <time>2025-04-27T07:00:45Z</time>
      </trkpt>
      <trkpt lat="43.48675400018692" lon="-1.470181960612536">
        <ele>15.52</ele>
        <time>2025-04-27T07:00:50Z</time>
      </trkpt>
      <trkpt lat="43.486689040437341" lon="-1.470356974750757">
        <ele>15.039999999999999</ele>
        <time>2025-04-27T07:00:51Z</time>
      </trkpt>
      <trkpt lat="43.485933998599648" lon="-1.471869992092252">
        <ele>10.23</ele>
        <time>2025-04-27T07:01:01Z</time>
      </trkpt>
      <trkpt lat="43.485886976122856" lon="-1.472037965431809">
        <ele>10.23</ele>
        <time>2025-04-27T07:01:02Z</time>
      </trkpt>
      <trkpt lat="43.485841965302825" lon="-1.472209962084889">
        <ele>10.710000000000001</ele>
        <time>2025-04-27T07:01:03Z</time>
      </trkpt>
      <trkpt lat="43.485797960311174" lon="-1.472377013415098">
        <ele>11.19</ele>
        <time>2025-04-27T07:01:04Z</time>
      </trkpt>
      <trkpt lat="43.485797038301826" lon="-1.472731987014413">
        <ele>11.67</ele>
        <time>2025-04-27T07:01:06Z</time>
      </trkpt>
      <trkpt lat="43.485814975574613" lon="-1.472903983667493">
        <ele>11.67</ele>
        <time>2025-04-27T07:01:07Z</time>
      </trkpt>
      <trkpt lat="43.486042963340878" lon="-1.474734004586935">
        <ele>11.67</ele>
        <time>2025-04-27T07:01:18Z</time>
      </trkpt>
      <trkpt lat="43.486292995512486" lon="-1.476605013012886">
        <ele>11.19</ele>
        <time>2025-04-27T07:01:30Z</time>
      </trkpt>
      <trkpt lat="43.486317973583937" lon="-1.476753037422895">
        <ele>11.67</ele>
        <time>2025-04-27T07:01:31Z</time>
      </trkpt>
      <trkpt lat="43.486426016315818" lon="-1.477174982428551">
        <ele>12.630000000000001</ele>
        <time>2025-04-27T07:01:34Z</time>
      </trkpt>
      <trkpt lat="43.486468009650707" lon="-1.477295011281967">
        <ele>12.630000000000001</ele>
        <time>2025-04-27T07:01:35Z</time>
      </trkpt>
      <trkpt lat="43.486508997157216" lon="-1.477419985458255">
        <ele>12.630000000000001</ele>
        <time>2025-04-27T07:01:36Z</time>
      </trkpt>
      <trkpt lat="43.486548978835344" lon="-1.477548982948065">
        <ele>12.630000000000001</ele>
        <time>2025-04-27T07:01:37Z</time>
      </trkpt>
      <trkpt lat="43.486590972170234" lon="-1.477683009579778">
        <ele>12.630000000000001</ele>
        <time>2025-04-27T07:01:38Z</time>
      </trkpt>
      <trkpt lat="43.486614022403955" lon="-1.477827010676265">
        <ele>12.630000000000001</ele>
        <time>2025-04-27T07:01:39Z</time>
      </trkpt>
      <trkpt lat="43.486639000475407" lon="-1.477989032864571">
        <ele>12.630000000000001</ele>
        <time>2025-04-27T07:01:40Z</time>
      </trkpt>
      <trkpt lat="43.486651992425323" lon="-1.478148037567735">
        <ele>12.630000000000001</ele>
        <time>2025-04-27T07:01:41Z</time>
      </trkpt>
      <trkpt lat="43.486642017960548" lon="-1.478318022564054">
        <ele>12.630000000000001</ele>
        <time>2025-04-27T07:01:42Z</time>
      </trkpt>
      <trkpt lat="43.486631037667394" lon="-1.478492030873895">
        <ele>12.630000000000001</ele>
        <time>2025-04-27T07:01:43Z</time>
      </trkpt>
      <trkpt lat="43.486620979383588" lon="-1.478653969243169">
        <ele>12.630000000000001</ele>
        <time>2025-04-27T07:01:44Z</time>
      </trkpt>
      <trkpt lat="43.486570017412305" lon="-1.479310020804405">
        <ele>13.6</ele>
        <time>2025-04-27T07:01:48Z</time>
      </trkpt>
      <trkpt lat="43.486592983826995" lon="-1.479475982487202">
        <ele>13.6</ele>
        <time>2025-04-27T07:01:49Z</time>
      </trkpt>
      <trkpt lat="43.486619973555207" lon="-1.479639010503888">
        <ele>14.08</ele>
        <time>2025-04-27T07:01:50Z</time>
      </trkpt>
      <trkpt lat="43.486663978546858" lon="-1.479794997721911">
        <ele>14.56</ele>
        <time>2025-04-27T07:01:51Z</time>
      </trkpt>
      <trkpt lat="43.486721981316805" lon="-1.479947967454791">
        <ele>15.039999999999999</ele>
        <time>2025-04-27T07:01:52Z</time>
      </trkpt>
      <trkpt lat="43.486808985471725" lon="-1.480071013793349">
        <ele>15.039999999999999</ele>
        <time>2025-04-27T07:01:53Z</time>
      </trkpt>
      <trkpt lat="43.486894983798265" lon="-1.480192970484495">
        <ele>15.52</ele>
        <time>2025-04-27T07:01:54Z</time>
      </trkpt>
      <trkpt lat="43.487043008208275" lon="-1.480458006262779">
        <ele>16.48</ele>
        <time>2025-04-27T07:01:56Z</time>
      </trkpt>
      <trkpt lat="43.487109979614615" lon="-1.480596978217363">
        <ele>16.48</ele>
        <time>2025-04-27T07:01:57Z</time>
      </trkpt>
      <trkpt lat="43.487396975979209" lon="-1.481137024238706">
        <ele>16.48</ele>
        <time>2025-04-27T07:02:01Z</time>
      </trkpt>
      <trkpt lat="43.487477023154497" lon="-1.481249006465077">
        <ele>16.48</ele>
        <time>2025-04-27T07:02:02Z</time>
      </trkpt>
      <trkpt lat="43.487551035359502" lon="-1.48134003393352">
        <ele>16.960000000000001</ele>
        <time>2025-04-27T07:02:03Z</time>
      </trkpt>
      <trkpt lat="43.487640973180532" lon="-1.481392001733184">
        <ele>16.48</ele>
        <time>2025-04-27T07:02:04Z</time>
      </trkpt>
      <trkpt lat="43.487724959850311" lon="-1.481440030038357">
        <ele>16.48</ele>
        <time>2025-04-27T07:02:05Z</time>
      </trkpt>
      <trkpt lat="43.487986978143454" lon="-1.48159802891314">
        <ele>15.039999999999999</ele>
        <time>2025-04-27T07:02:12Z</time>
      </trkpt>
      <trkpt lat="43.487986978143454" lon="-1.48159802891314">
        <ele>15.039999999999999</ele>
        <time>2025-04-27T07:02:38Z</time>
      </trkpt>
      <trkpt lat="43.488222006708384" lon="-1.481716968119144">
        <ele>14.08</ele>
        <time>2025-04-27T07:03:04Z</time>
      </trkpt>
      <trkpt lat="43.488370031118393" lon="-1.481773965060711">
        <ele>14.56</ele>
        <time>2025-04-27T07:03:07Z</time>
      </trkpt>
      <trkpt lat="43.488432979211211" lon="-1.481818975880742">
        <ele>14.56</ele>
        <time>2025-04-27T07:03:08Z</time>
      </trkpt>
      <trkpt lat="43.4884939994663" lon="-1.481861975044012">
        <ele>14.56</ele>
        <time>2025-04-27T07:03:09Z</time>
      </trkpt>
      <trkpt lat="43.488540016114712" lon="-1.481965994462371">
        <ele>15.039999999999999</ele>
        <time>2025-04-27T07:03:10Z</time>
      </trkpt>
      <trkpt lat="43.488577986136079" lon="-1.482060039415956">
        <ele>15.039999999999999</ele>
        <time>2025-04-27T07:03:11Z</time>
      </trkpt>
      <trkpt lat="43.488595001399517" lon="-1.482163975015283">
        <ele>15.039999999999999</ele>
        <time>2025-04-27T07:03:12Z</time>
      </trkpt>
      <trkpt lat="43.488604975864291" lon="-1.482263971120119">
        <ele>15.039999999999999</ele>
        <time>2025-04-27T07:03:13Z</time>
      </trkpt>
      <trkpt lat="43.488595001399517" lon="-1.482359021902084">
        <ele>15.039999999999999</ele>
        <time>2025-04-27T07:03:14Z</time>
      </trkpt>
      <trkpt lat="43.488575974479318" lon="-1.48245700635016">
        <ele>15.52</ele>
        <time>2025-04-27T07:03:15Z</time>
      </trkpt>
      <trkpt lat="43.488543033599854" lon="-1.482537975534797">
        <ele>16</ele>
        <time>2025-04-27T07:03:16Z</time>
      </trkpt>
      <trkpt lat="43.488489976152778" lon="-1.482607964426279">
        <ele>16</ele>
        <time>2025-04-27T07:03:17Z</time>
      </trkpt>
      <trkpt lat="43.488437002524734" lon="-1.482675019651651">
        <ele>16.48</ele>
        <time>2025-04-27T07:03:18Z</time>
      </trkpt>
      <trkpt lat="43.488380005583167" lon="-1.482721958309412">
        <ele>16.48</ele>
        <time>2025-04-27T07:03:19Z</time>
      </trkpt>
      <trkpt lat="43.488303981721401" lon="-1.482764035463333">
        <ele>16.960000000000001</ele>
        <time>2025-04-27T07:03:20Z</time>
      </trkpt>
      <trkpt lat="43.488218989223242" lon="-1.482809968292713">
        <ele>17.440000000000001</ele>
        <time>2025-04-27T07:03:21Z</time>
      </trkpt>
      <trkpt lat="43.487879019230604" lon="-1.483026975765824">
        <ele>17.920000000000002</ele>
        <time>2025-04-27T07:03:25Z</time>
      </trkpt>
      <trkpt lat="43.487813975661993" lon="-1.483067963272333">
        <ele>17.440000000000001</ele>
        <time>2025-04-27T07:03:26Z</time>
      </trkpt>
      <trkpt lat="43.487753961235285" lon="-1.483213976025581">
        <ele>17.440000000000001</ele>
        <time>2025-04-27T07:03:27Z</time>
      </trkpt>
      <trkpt lat="43.487704005092382" lon="-1.483336016535759">
        <ele>17.440000000000001</ele>
        <time>2025-04-27T07:03:28Z</time>
      </trkpt>
      <trkpt lat="43.487654970958829" lon="-1.48346702568233">
        <ele>17.440000000000001</ele>
        <time>2025-04-27T07:03:29Z</time>
      </trkpt>
      <trkpt lat="43.487618006765842" lon="-1.483615972101688">
        <ele>17.440000000000001</ele>
        <time>2025-04-27T07:03:30Z</time>
      </trkpt>
      <trkpt lat="43.487278958782554" lon="-1.485112980008125">
        <ele>19.84</ele>
        <time>2025-04-27T07:03:39Z</time>
      </trkpt>
      <trkpt lat="43.486877968534827" lon="-1.48686203174293">
        <ele>23.210000000000001</ele>
        <time>2025-04-27T07:03:50Z</time>
      </trkpt>
      <trkpt lat="43.486511008813977" lon="-1.488234987482429">
        <ele>19.359999999999999</ele>
        <time>2025-04-27T07:03:59Z</time>
      </trkpt>
      <trkpt lat="43.485960988327861" lon="-1.49059901945293">
        <ele>10.710000000000001</ele>
        <time>2025-04-27T07:04:14Z</time>
      </trkpt>
      <trkpt lat="43.485883036628366" lon="-1.4909010194242">
        <ele>8.310000000000001</ele>
        <time>2025-04-27T07:04:16Z</time>
      </trkpt>
      <trkpt lat="43.485508030280471" lon="-1.492803040891886">
        <ele>6.39</ele>
        <time>2025-04-27T07:04:28Z</time>
      </trkpt>
      <trkpt lat="43.485009977594018" lon="-1.494863983243704">
        <ele>15.039999999999999</ele>
        <time>2025-04-27T07:04:41Z</time>
      </trkpt>
      <trkpt lat="43.484685011208057" lon="-1.496341964229941">
        <ele>18.879999999999999</ele>
        <time>2025-04-27T07:04:50Z</time>
      </trkpt>
      <trkpt lat="43.484270023182034" lon="-1.498115994036198">
        <ele>20.809999999999999</ele>
        <time>2025-04-27T07:05:01Z</time>
      </trkpt>
      <trkpt lat="43.483990989625454" lon="-1.499719033017755">
        <ele>20.32</ele>
        <time>2025-04-27T07:05:11Z</time>
      </trkpt>
      <trkpt lat="43.483648002147675" lon="-1.501474035903812">
        <ele>15.039999999999999</ele>
        <time>2025-04-27T07:05:22Z</time>
      </trkpt>
      <trkpt lat="43.483555968850851" lon="-1.501949960365892">
        <ele>13.119999999999999</ele>
        <time>2025-04-27T07:05:27Z</time>
      </trkpt>
      <trkpt lat="43.483543982729316" lon="-1.502016009762883">
        <ele>13.119999999999999</ele>
        <time>2025-04-27T07:05:28Z</time>
      </trkpt>
      <trkpt lat="43.483571978285909" lon="-1.502042999491096">
        <ele>12.15</ele>
        <time>2025-04-27T07:05:29Z</time>
      </trkpt>
      <trkpt lat="43.483608020469546" lon="-1.502079963684082">
        <ele>11.67</ele>
        <time>2025-04-27T07:05:30Z</time>
      </trkpt>
      <trkpt lat="43.483651019632816" lon="-1.502165962010622">
        <ele>11.67</ele>
        <time>2025-04-27T07:05:31Z</time>
      </trkpt>
      <trkpt lat="43.483666023239493" lon="-1.502251960337162">
        <ele>11.19</ele>
        <time>2025-04-27T07:05:32Z</time>
      </trkpt>
      <trkpt lat="43.483679015189409" lon="-1.502334019169211">
        <ele>10.710000000000001</ele>
        <time>2025-04-27T07:05:33Z</time>
      </trkpt>
      <trkpt lat="43.483694018796086" lon="-1.502422029152513">
        <ele>10.23</ele>
        <time>2025-04-27T07:05:34Z</time>
      </trkpt>
      <trkpt lat="43.483673986047506" lon="-1.50246100500226">
        <ele>9.75</ele>
        <time>2025-04-27T07:05:35Z</time>
      </trkpt>
      <trkpt lat="43.483629981055856" lon="-1.502540968358517">
        <ele>9.27</ele>
        <time>2025-04-27T07:05:36Z</time>
      </trkpt>
      <trkpt lat="43.483586981892586" lon="-1.502623027190566">
        <ele>8.789999999999999</ele>
        <time>2025-04-27T07:05:37Z</time>
      </trkpt>
      <trkpt lat="43.483543982729316" lon="-1.502701984718442">
        <ele>8.310000000000001</ele>
        <time>2025-04-27T07:05:38Z</time>
      </trkpt>
      <trkpt lat="43.483482962474227" lon="-1.502708019688726">
        <ele>8.310000000000001</ele>
        <time>2025-04-27T07:05:39Z</time>
      </trkpt>
      <trkpt lat="43.483405010774732" lon="-1.502715982496738">
        <ele>8.310000000000001</ele>
        <time>2025-04-27T07:05:40Z</time>
      </trkpt>
      <trkpt lat="43.483297973871231" lon="-1.502794018015266">
        <ele>8.310000000000001</ele>
        <time>2025-04-27T07:05:41Z</time>
      </trkpt>
      <trkpt lat="43.483255980536342" lon="-1.502887979149818">
        <ele>8.310000000000001</ele>
        <time>2025-04-27T07:05:42Z</time>
      </trkpt>
      <trkpt lat="43.483215998858213" lon="-1.502990992739797">
        <ele>8.310000000000001</ele>
        <time>2025-04-27T07:05:43Z</time>
      </trkpt>
      <trkpt lat="43.483179034665227" lon="-1.503091994673014">
        <ele>8.310000000000001</ele>
        <time>2025-04-27T07:05:44Z</time>
      </trkpt>
      <trkpt lat="43.483157996088266" lon="-1.503216968849301">
        <ele>8.310000000000001</ele>
        <time>2025-04-27T07:05:45Z</time>
      </trkpt>
      <trkpt lat="43.48286597058177" lon="-1.504443995654583">
        <ele>7.83</ele>
        <time>2025-04-27T07:05:56Z</time>
      </trkpt>
      <trkpt lat="43.482609987258911" lon="-1.505634980276227">
        <ele>8.789999999999999</ele>
        <time>2025-04-27T07:06:04Z</time>
      </trkpt>
      <trkpt lat="43.482441008090973" lon="-1.506474008783698">
        <ele>10.23</ele>
        <time>2025-04-27T07:06:11Z</time>
      </trkpt>
      <trkpt lat="43.482216037809849" lon="-1.507541025057435">
        <ele>10.710000000000001</ele>
        <time>2025-04-27T07:06:20Z</time>
      </trkpt>
      <trkpt lat="43.482192987576127" lon="-1.507653007283807">
        <ele>10.23</ele>
        <time>2025-04-27T07:06:21Z</time>
      </trkpt>
      <trkpt lat="43.482049992308021" lon="-1.508367983624339">
        <ele>10.23</ele>
        <time>2025-04-27T07:06:28Z</time>
      </trkpt>
      <trkpt lat="43.481872966513038" lon="-1.509149009361863">
        <ele>9.27</ele>
        <time>2025-04-27T07:06:40Z</time>
      </trkpt>
      <trkpt lat="43.481870032846928" lon="-1.509160995483398">
        <ele>9.27</ele>
        <time>2025-04-27T07:06:51Z</time>
      </trkpt>
      <trkpt lat="43.481777999550104" lon="-1.50952996686101">
        <ele>9.75</ele>
        <time>2025-04-27T07:07:01Z</time>
      </trkpt>
      <trkpt lat="43.481526961550117" lon="-1.510432027280331">
        <ele>9.75</ele>
        <time>2025-04-27T07:07:10Z</time>
      </trkpt>
      <trkpt lat="43.481328980997205" lon="-1.511225961148739">
        <ele>9.27</ele>
        <time>2025-04-27T07:07:17Z</time>
      </trkpt>
      <trkpt lat="43.481201995164156" lon="-1.511716973036528">
        <ele>7.83</ele>
        <time>2025-04-27T07:07:24Z</time>
      </trkpt>
      <trkpt lat="43.481175005435944" lon="-1.511839013546705">
        <ele>6.87</ele>
        <time>2025-04-27T07:07:35Z</time>
      </trkpt>
      <trkpt lat="43.481149021536112" lon="-1.511955019086599">
        <ele>9.27</ele>
        <time>2025-04-27T07:08:14Z</time>
      </trkpt>
      <trkpt lat="43.481026981025934" lon="-1.512385010719299">
        <ele>12.630000000000001</ele>
        <time>2025-04-27T07:08:19Z</time>
      </trkpt>
      <trkpt lat="43.48071601241827" lon="-1.513704992830753">
        <ele>14.56</ele>
        <time>2025-04-27T07:08:28Z</time>
      </trkpt>
      <trkpt lat="43.480439996346831" lon="-1.514876028522849">
        <ele>16.48</ele>
        <time>2025-04-27T07:08:37Z</time>
      </trkpt>
      <trkpt lat="43.480400014668703" lon="-1.515069985762239">
        <ele>16.960000000000001</ele>
        <time>2025-04-27T07:08:39Z</time>
      </trkpt>
      <trkpt lat="43.480358021333814" lon="-1.515249023213983">
        <ele>17.440000000000001</ele>
        <time>2025-04-27T07:08:41Z</time>
      </trkpt>
      <trkpt lat="43.48032901994884" lon="-1.5153500251472">
        <ele>17.920000000000002</ele>
        <time>2025-04-27T07:08:42Z</time>
      </trkpt>
      <trkpt lat="43.480105977505445" lon="-1.516372030600905">
        <ele>21.289999999999999</ele>
        <time>2025-04-27T07:08:51Z</time>
      </trkpt>
      <trkpt lat="43.479843959212303" lon="-1.517566032707691">
        <ele>21.77</ele>
        <time>2025-04-27T07:09:00Z</time>
      </trkpt>
      <trkpt lat="43.479515975341201" lon="-1.519034961238504">
        <ele>22.73</ele>
        <time>2025-04-27T07:09:10Z</time>
      </trkpt>
      <trkpt lat="43.479328975081444" lon="-1.519817998632789">
        <ele>23.210000000000001</ele>
        <time>2025-04-27T07:09:15Z</time>
      </trkpt>
      <trkpt lat="43.479280024766922" lon="-1.519983960315585">
        <ele>23.210000000000001</ele>
        <time>2025-04-27T07:09:16Z</time>
      </trkpt>
      <trkpt lat="43.479228978976607" lon="-1.520141959190369">
        <ele>22.73</ele>
        <time>2025-04-27T07:09:17Z</time>
      </trkpt>
      <trkpt lat="43.47895497456193" lon="-1.520849978551269">
        <ele>21.289999999999999</ele>
        <time>2025-04-27T07:09:22Z</time>
      </trkpt>
      <trkpt lat="43.47811602987349" lon="-1.522842021659017">
        <ele>21.77</ele>
        <time>2025-04-27T07:09:36Z</time>
      </trkpt>
      <trkpt lat="43.477625017985702" lon="-1.524206008762121">
        <ele>23.690000000000001</ele>
        <time>2025-04-27T07:09:45Z</time>
      </trkpt>
      <trkpt lat="43.47753600217402" lon="-1.52431002818048">
        <ele>23.690000000000001</ele>
        <time>2025-04-27T07:09:46Z</time>
      </trkpt>
      <trkpt lat="43.476756988093257" lon="-1.525970986112952">
        <ele>28.02</ele>
        <time>2025-04-27T07:09:58Z</time>
      </trkpt>
      <trkpt lat="43.475901028141379" lon="-1.527953976765275">
        <ele>35.710000000000001</ele>
        <time>2025-04-27T07:10:12Z</time>
      </trkpt>
      <trkpt lat="43.475283030420542" lon="-1.529395999386907">
        <ele>43.399999999999999</ele>
        <time>2025-04-27T07:10:22Z</time>
      </trkpt>
      <trkpt lat="43.475218992680311" lon="-1.529555004090071">
        <ele>43.880000000000003</ele>
        <time>2025-04-27T07:10:23Z</time>
      </trkpt>
      <trkpt lat="43.475157972425222" lon="-1.5297020226717">
        <ele>44.359999999999999</ele>
        <time>2025-04-27T07:10:24Z</time>
      </trkpt>
      <trkpt lat="43.475098041817546" lon="-1.529845017939806">
        <ele>44.840000000000003</ele>
        <time>2025-04-27T07:10:25Z</time>
      </trkpt>
      <trkpt lat="43.475040039047599" lon="-1.529984995722771">
        <ele>44.840000000000003</ele>
        <time>2025-04-27T07:10:26Z</time>
      </trkpt>
      <trkpt lat="43.474622033536434" lon="-1.5309729706496">
        <ele>47.719999999999999</ele>
        <time>2025-04-27T07:10:33Z</time>
      </trkpt>
      <trkpt lat="43.474566964432597" lon="-1.531109008938074">
        <ele>48.68</ele>
        <time>2025-04-27T07:10:34Z</time>
      </trkpt>
      <trkpt lat="43.474513990804553" lon="-1.531243035569787">
        <ele>49.159999999999997</ele>
        <time>2025-04-27T07:10:35Z</time>
      </trkpt>
      <trkpt lat="43.474193969741464" lon="-1.531954994425178">
        <ele>52.530000000000001</ele>
        <time>2025-04-27T07:10:40Z</time>
      </trkpt>
      <trkpt lat="43.474132027477026" lon="-1.532100001350045">
        <ele>53.009999999999998</ele>
        <time>2025-04-27T07:10:41Z</time>
      </trkpt>
      <trkpt lat="43.473877971991897" lon="-1.532688997685909">
        <ele>55.890000000000001</ele>
        <time>2025-04-27T07:10:45Z</time>
      </trkpt>
      <trkpt lat="43.47381703555584" lon="-1.532831992954016">
        <ele>56.369999999999997</ele>
        <time>2025-04-27T07:10:46Z</time>
      </trkpt>
      <trkpt lat="43.473757021129131" lon="-1.532969959080219">
        <ele>56.369999999999997</ele>
        <time>2025-04-27T07:10:47Z</time>
      </trkpt>
      <trkpt lat="43.473700024187565" lon="-1.533103985711932">
        <ele>56.369999999999997</ele>
        <time>2025-04-27T07:10:48Z</time>
      </trkpt>
      <trkpt lat="43.473642021417618" lon="-1.533237006515265">
        <ele>56.369999999999997</ele>
        <time>2025-04-27T07:10:49Z</time>
      </trkpt>
      <trkpt lat="43.47358301281929" lon="-1.533370027318597">
        <ele>55.890000000000001</ele>
        <time>2025-04-27T07:10:50Z</time>
      </trkpt>
      <trkpt lat="43.473522998392582" lon="-1.533504975959659">
        <ele>55.890000000000001</ele>
        <time>2025-04-27T07:10:51Z</time>
      </trkpt>
      <trkpt lat="43.473458960652351" lon="-1.533648977056146">
        <ele>56.369999999999997</ele>
        <time>2025-04-27T07:10:52Z</time>
      </trkpt>
      <trkpt lat="43.473394000902772" lon="-1.533794989809394">
        <ele>56.369999999999997</ele>
        <time>2025-04-27T07:10:53Z</time>
      </trkpt>
      <trkpt lat="43.473330968990922" lon="-1.5339379850775">
        <ele>56.369999999999997</ele>
        <time>2025-04-27T07:10:54Z</time>
      </trkpt>
      <trkpt lat="43.473267015069723" lon="-1.534080980345607">
        <ele>56.859999999999999</ele>
        <time>2025-04-27T07:10:55Z</time>
      </trkpt>
      <trkpt lat="43.473201971501112" lon="-1.534218024462462">
        <ele>56.859999999999999</ele>
        <time>2025-04-27T07:10:56Z</time>
      </trkpt>
      <trkpt lat="43.473057970404625" lon="-1.534482976421714">
        <ele>57.340000000000003</ele>
        <time>2025-04-27T07:10:58Z</time>
      </trkpt>
      <trkpt lat="43.472965015098453" lon="-1.534652961418033">
        <ele>57.82</ele>
        <time>2025-04-27T07:10:59Z</time>
      </trkpt>
      <trkpt lat="43.472052980214357" lon="-1.535721989348531">
        <ele>63.579999999999998</ele>
        <time>2025-04-27T07:11:09Z</time>
      </trkpt>
      <trkpt lat="43.471751986071467" lon="-1.536049973219633">
        <ele>65.030000000000001</ele>
        <time>2025-04-27T07:11:13Z</time>
      </trkpt>
      <trkpt lat="43.471657019108534" lon="-1.536168996244669">
        <ele>65.510000000000005</ele>
        <time>2025-04-27T07:11:14Z</time>
      </trkpt>
      <trkpt lat="43.471664981916547" lon="-1.536273015663028">
        <ele>65.510000000000005</ele>
        <time>2025-04-27T07:11:15Z</time>
      </trkpt>
      <trkpt lat="43.471656013280153" lon="-1.536480970680714">
        <ele>66.469999999999999</ele>
        <time>2025-04-27T07:11:17Z</time>
      </trkpt>
      <trkpt lat="43.471611002460122" lon="-1.53658096678555">
        <ele>66.469999999999999</ele>
        <time>2025-04-27T07:11:18Z</time>
      </trkpt>
      <trkpt lat="43.471571020781994" lon="-1.536669982597232">
        <ele>66.950000000000003</ele>
        <time>2025-04-27T07:11:19Z</time>
      </trkpt>
      <trkpt lat="43.471502037718892" lon="-1.536698983982205">
        <ele>66.950000000000003</ele>
        <time>2025-04-27T07:11:20Z</time>
      </trkpt>
      <trkpt lat="43.471419978886843" lon="-1.536734020337462">
        <ele>66.950000000000003</ele>
        <time>2025-04-27T07:11:21Z</time>
      </trkpt>
      <trkpt lat="43.471358958631754" lon="-1.536734020337462">
        <ele>66.950000000000003</ele>
        <time>2025-04-27T07:11:22Z</time>
      </trkpt>
      <trkpt lat="43.471297016367316" lon="-1.536734020337462">
        <ele>66.950000000000003</ele>
        <time>2025-04-27T07:11:23Z</time>
      </trkpt>
      <trkpt lat="43.471270026639104" lon="-1.536734020337462">
        <ele>66.950000000000003</ele>
        <time>2025-04-27T07:11:24Z</time>
      </trkpt>
      <trkpt lat="43.471270026639104" lon="-1.536734020337462">
        <ele>66.950000000000003</ele>
        <time>2025-04-27T07:11:25Z</time>
      </trkpt>
      <trkpt lat="43.471103981137276" lon="-1.53672899119556">
        <ele>66.950000000000003</ele>
        <time>2025-04-27T07:11:26Z</time>
      </trkpt>
      <trkpt lat="43.471056958660483" lon="-1.536776013672352">
        <ele>66.950000000000003</ele>
        <time>2025-04-27T07:11:27Z</time>
      </trkpt>
      <trkpt lat="43.47100499086082" lon="-1.536827981472015">
        <ele>66.950000000000003</ele>
        <time>2025-04-27T07:11:28Z</time>
      </trkpt>
      <trkpt lat="43.47094296477735" lon="-1.536889001727104">
        <ele>66.950000000000003</ele>
        <time>2025-04-27T07:11:29Z</time>
      </trkpt>
      <trkpt lat="43.470879010856152" lon="-1.536953039467335">
        <ele>66.950000000000003</ele>
        <time>2025-04-27T07:11:30Z</time>
      </trkpt>
      <trkpt lat="43.470021039247513" lon="-1.537812016904354">
        <ele>68.870000000000005</ele>
        <time>2025-04-27T07:11:42Z</time>
      </trkpt>
      <trkpt lat="43.4689009655267" lon="-1.538952961564064">
        <ele>68.870000000000005</ele>
        <time>2025-04-27T07:11:53Z</time>
      </trkpt>
      <trkpt lat="43.468016004189849" lon="-1.539852004498243">
        <ele>64.069999999999993</ele>
        <time>2025-04-27T07:12:03Z</time>
      </trkpt>
      <trkpt lat="43.467976022511721" lon="-1.539895003661513">
        <ele>63.579999999999998</ele>
        <time>2025-04-27T07:12:04Z</time>
      </trkpt>
      <trkpt lat="43.467947021126747" lon="-1.539926016703248">
        <ele>63.100000000000001</ele>
        <time>2025-04-27T07:12:05Z</time>
      </trkpt>
      <trkpt lat="43.467901004478335" lon="-1.539989970624447">
        <ele>62.619999999999997</ele>
        <time>2025-04-27T07:12:06Z</time>
      </trkpt>
      <trkpt lat="43.467901004478335" lon="-1.540033975616098">
        <ele>62.140000000000001</ele>
        <time>2025-04-27T07:12:07Z</time>
      </trkpt>
      <trkpt lat="43.467901004478335" lon="-1.540086027234793">
        <ele>61.659999999999997</ele>
        <time>2025-04-27T07:12:08Z</time>
      </trkpt>
      <trkpt lat="43.467901004478335" lon="-1.54014796949923">
        <ele>61.18</ele>
        <time>2025-04-27T07:12:09Z</time>
      </trkpt>
      <trkpt lat="43.467901004478335" lon="-1.540232039988041">
        <ele>60.700000000000003</ele>
        <time>2025-04-27T07:12:10Z</time>
      </trkpt>
      <trkpt lat="43.467901004478335" lon="-1.54036003164947">
        <ele>60.700000000000003</ele>
        <time>2025-04-27T07:12:11Z</time>
      </trkpt>
      <trkpt lat="43.467878038063645" lon="-1.540414011105895">
        <ele>60.219999999999999</ele>
        <time>2025-04-27T07:12:12Z</time>
      </trkpt>
      <trkpt lat="43.467837972566485" lon="-1.540502021089196">
        <ele>60.219999999999999</ele>
        <time>2025-04-27T07:12:13Z</time>
      </trkpt>
      <trkpt lat="43.467815006151795" lon="-1.54055398888886">
        <ele>59.740000000000002</ele>
        <time>2025-04-27T07:12:14Z</time>
      </trkpt>
      <trkpt lat="43.467731019482017" lon="-1.540606040507555">
        <ele>59.259999999999998</ele>
        <time>2025-04-27T07:12:15Z</time>
      </trkpt>
      <trkpt lat="43.467664970085025" lon="-1.540770996361971">
        <ele>59.259999999999998</ele>
        <time>2025-04-27T07:12:16Z</time>
      </trkpt>
      <trkpt lat="43.467681985348463" lon="-1.540859006345272">
        <ele>58.780000000000001</ele>
        <time>2025-04-27T07:12:17Z</time>
      </trkpt>
      <trkpt lat="43.467703023925424" lon="-1.540969982743263">
        <ele>58.780000000000001</ele>
        <time>2025-04-27T07:12:18Z</time>
      </trkpt>
      <trkpt lat="43.467729007825255" lon="-1.541101997718215">
        <ele>58.299999999999997</ele>
        <time>2025-04-27T07:12:19Z</time>
      </trkpt>
      <trkpt lat="43.467765972018242" lon="-1.541244992986321">
        <ele>57.82</ele>
        <time>2025-04-27T07:12:20Z</time>
      </trkpt>
      <trkpt lat="43.467899998649955" lon="-1.541492007672787">
        <ele>57.82</ele>
        <time>2025-04-27T07:12:22Z</time>
      </trkpt>
      <trkpt lat="43.467968981713057" lon="-1.541617987677455">
        <ele>57.340000000000003</ele>
        <time>2025-04-27T07:12:23Z</time>
      </trkpt>
      <trkpt lat="43.468840029090643" lon="-1.542640998959541">
        <ele>56.369999999999997</ele>
        <time>2025-04-27T07:12:32Z</time>
      </trkpt>
      <trkpt lat="43.469906039535999" lon="-1.543790996074677">
        <ele>54.93</ele>
        <time>2025-04-27T07:12:43Z</time>
      </trkpt>
      <trkpt lat="43.471137005835772" lon="-1.545118018984795">
        <ele>53.969999999999999</ele>
        <time>2025-04-27T07:12:56Z</time>
      </trkpt>
      <trkpt lat="43.471360970288515" lon="-1.545278029516339">
        <ele>54.450000000000003</ele>
        <time>2025-04-27T07:12:58Z</time>
      </trkpt>
      <trkpt lat="43.471473958343267" lon="-1.545342989265919">
        <ele>54.93</ele>
        <time>2025-04-27T07:12:59Z</time>
      </trkpt>
      <trkpt lat="43.471702029928565" lon="-1.545450026169419">
        <ele>55.409999999999997</ele>
        <time>2025-04-27T07:13:01Z</time>
      </trkpt>
      <trkpt lat="43.47268195822835" lon="-1.545573994517326">
        <ele>54.93</ele>
        <time>2025-04-27T07:13:09Z</time>
      </trkpt>
      <trkpt lat="43.47394603304565" lon="-1.545438962057233">
        <ele>51.090000000000003</ele>
        <time>2025-04-27T07:13:19Z</time>
      </trkpt>
      <trkpt lat="43.47474399022758" lon="-1.545357992872596">
        <ele>49.159999999999997</ele>
        <time>2025-04-27T07:13:26Z</time>
      </trkpt>
      <trkpt lat="43.474922021850944" lon="-1.545340977609158">
        <ele>48.68</ele>
        <time>2025-04-27T07:13:28Z</time>
      </trkpt>
      <trkpt lat="43.474995028227568" lon="-1.545333014801145">
        <ele>47.719999999999999</ele>
        <time>2025-04-27T07:13:29Z</time>
      </trkpt>
      <trkpt lat="43.475061999633908" lon="-1.545326979830861">
        <ele>47.719999999999999</ele>
        <time>2025-04-27T07:13:30Z</time>
      </trkpt>
      <trkpt lat="43.475124025717378" lon="-1.545320022851229">
        <ele>47.240000000000002</ele>
        <time>2025-04-27T07:13:31Z</time>
      </trkpt>
      <trkpt lat="43.475183034315705" lon="-1.545294038951397">
        <ele>46.759999999999998</ele>
        <time>2025-04-27T07:13:32Z</time>
      </trkpt>
      <trkpt lat="43.475260986015201" lon="-1.545231007039547">
        <ele>46.280000000000001</ele>
        <time>2025-04-27T07:13:33Z</time>
      </trkpt>
      <trkpt lat="43.475313959643245" lon="-1.54523896984756">
        <ele>46.280000000000001</ele>
        <time>2025-04-27T07:13:34Z</time>
      </trkpt>
      <trkpt lat="43.475375985726714" lon="-1.545248022302985">
        <ele>45.799999999999997</ele>
        <time>2025-04-27T07:13:35Z</time>
      </trkpt>
      <trkpt lat="43.475428959354758" lon="-1.545309964567423">
        <ele>45.799999999999997</ele>
        <time>2025-04-27T07:13:36Z</time>
      </trkpt>
      <trkpt lat="43.475451003760099" lon="-1.545382970944047">
        <ele>45.799999999999997</ele>
        <time>2025-04-27T07:13:37Z</time>
      </trkpt>
      <trkpt lat="43.475475981831551" lon="-1.545467041432858">
        <ele>45.799999999999997</ele>
        <time>2025-04-27T07:13:38Z</time>
      </trkpt>
      <trkpt lat="43.475448992103338" lon="-1.545548010617495">
        <ele>45.799999999999997</ele>
        <time>2025-04-27T07:13:39Z</time>
      </trkpt>
      <trkpt lat="43.475443962961435" lon="-1.54566896148026">
        <ele>45.799999999999997</ele>
        <time>2025-04-27T07:13:40Z</time>
      </trkpt>
      <trkpt lat="43.475458966568112" lon="-1.545768035575748">
        <ele>45.32</ele>
        <time>2025-04-27T07:13:41Z</time>
      </trkpt>
      <trkpt lat="43.47547497600317" lon="-1.545868031680584">
        <ele>45.32</ele>
        <time>2025-04-27T07:13:42Z</time>
      </trkpt>
      <trkpt lat="43.475488973781466" lon="-1.545960986986756">
        <ele>45.32</ele>
        <time>2025-04-27T07:13:43Z</time>
      </trkpt>
      <trkpt lat="43.475500959903002" lon="-1.546039022505283">
        <ele>45.32</ele>
        <time>2025-04-27T07:13:44Z</time>
      </trkpt>
      <trkpt lat="43.475510012358427" lon="-1.54609995894134">
        <ele>45.32</ele>
        <time>2025-04-27T07:13:45Z</time>
      </trkpt>
      <trkpt lat="43.475518980994821" lon="-1.546154022216797">
        <ele>45.32</ele>
        <time>2025-04-27T07:13:46Z</time>
      </trkpt>
      <trkpt lat="43.475518980994821" lon="-1.546154022216797">
        <ele>45.32</ele>
        <time>2025-04-27T07:13:47Z</time>
      </trkpt>
      <trkpt lat="43.475583018735051" lon="-1.546304980292916">
        <ele>45.32</ele>
        <time>2025-04-27T07:13:48Z</time>
      </trkpt>
      <trkpt lat="43.475589975714684" lon="-1.546426014974713">
        <ele>45.32</ele>
        <time>2025-04-27T07:13:49Z</time>
      </trkpt>
      <trkpt lat="43.475642027333379" lon="-1.546488963067532">
        <ele>45.32</ele>
        <time>2025-04-27T07:13:50Z</time>
      </trkpt>
      <trkpt lat="43.476095991209149" lon="-1.547181978821755">
        <ele>45.799999999999997</ele>
        <time>2025-04-27T07:13:58Z</time>
      </trkpt>
      <trkpt lat="43.476131027564406" lon="-1.547254985198379">
        <ele>45.32</ele>
        <time>2025-04-27T07:13:59Z</time>
      </trkpt>
      <trkpt lat="43.476195987313986" lon="-1.547391023486853">
        <ele>45.799999999999997</ele>
        <time>2025-04-27T07:14:01Z</time>
      </trkpt>
      <trkpt lat="43.476291038095951" lon="-1.547586992383003">
        <ele>45.799999999999997</ele>
        <time>2025-04-27T07:14:04Z</time>
      </trkpt>
      <trkpt lat="43.476323978975415" lon="-1.547656981274486">
        <ele>45.799999999999997</ele>
        <time>2025-04-27T07:14:05Z</time>
      </trkpt>
      <trkpt lat="43.476468985900283" lon="-1.548041040077806">
        <ele>46.280000000000001</ele>
        <time>2025-04-27T07:14:10Z</time>
      </trkpt>
      <trkpt lat="43.476622039452195" lon="-1.548496009781957">
        <ele>48.68</ele>
        <time>2025-04-27T07:14:16Z</time>
      </trkpt>
      <trkpt lat="43.476683981716633" lon="-1.548819970339537">
        <ele>50.130000000000003</ele>
        <time>2025-04-27T07:14:20Z</time>
      </trkpt>
      <trkpt lat="43.476692028343678" lon="-1.548909991979599">
        <ele>50.130000000000003</ele>
        <time>2025-04-27T07:14:21Z</time>
      </trkpt>
      <trkpt lat="43.47669898532331" lon="-1.548990961164236">
        <ele>50.609999999999999</ele>
        <time>2025-04-27T07:14:22Z</time>
      </trkpt>
      <trkpt lat="43.476694040000439" lon="-1.549088023602963">
        <ele>50.609999999999999</ele>
        <time>2025-04-27T07:14:23Z</time>
      </trkpt>
      <trkpt lat="43.476689010858536" lon="-1.549180978909135">
        <ele>50.609999999999999</ele>
        <time>2025-04-27T07:14:24Z</time>
      </trkpt>
      <trkpt lat="43.476675013080239" lon="-1.549463029950857">
        <ele>50.609999999999999</ele>
        <time>2025-04-27T07:14:27Z</time>
      </trkpt>
      <trkpt lat="43.476654980331659" lon="-1.549853961914778">
        <ele>49.159999999999997</ele>
        <time>2025-04-27T07:14:31Z</time>
      </trkpt>
      <trkpt lat="43.476626984775066" lon="-1.550779994577169">
        <ele>47.240000000000002</ele>
        <time>2025-04-27T07:14:39Z</time>
      </trkpt>
      <trkpt lat="43.47672002390027" lon="-1.551838964223862">
        <ele>45.32</ele>
        <time>2025-04-27T07:14:48Z</time>
      </trkpt>
      <trkpt lat="43.476747013628483" lon="-1.551954969763756">
        <ele>45.32</ele>
        <time>2025-04-27T07:14:49Z</time>
      </trkpt>
      <trkpt lat="43.476833011955023" lon="-1.55228597112">
        <ele>44.840000000000003</ele>
        <time>2025-04-27T07:14:52Z</time>
      </trkpt>
      <trkpt lat="43.476936025545001" lon="-1.55262996442616">
        <ele>44.359999999999999</ele>
        <time>2025-04-27T07:14:55Z</time>
      </trkpt>
      <trkpt lat="43.477029986679554" lon="-1.552858036011457">
        <ele>43.399999999999999</ele>
        <time>2025-04-27T07:14:57Z</time>
      </trkpt>
      <trkpt lat="43.477376997470856" lon="-1.55351098626852">
        <ele>42.439999999999998</ele>
        <time>2025-04-27T07:15:02Z</time>
      </trkpt>
      <trkpt lat="43.477457966655493" lon="-1.553637972101569">
        <ele>42.439999999999998</ele>
        <time>2025-04-27T07:15:03Z</time>
      </trkpt>
      <trkpt lat="43.478130027651787" lon="-1.55466802418232">
        <ele>45.32</ele>
        <time>2025-04-27T07:15:12Z</time>
      </trkpt>
      <trkpt lat="43.478189036250114" lon="-1.554731978103519">
        <ele>45.799999999999997</ele>
        <time>2025-04-27T07:15:13Z</time>
      </trkpt>
      <trkpt lat="43.478477038443089" lon="-1.554920990020037">
        <ele>48.68</ele>
        <time>2025-04-27T07:15:20Z</time>
      </trkpt>
      <trkpt lat="43.478517020121217" lon="-1.554954014718533">
        <ele>49.159999999999997</ele>
        <time>2025-04-27T07:15:21Z</time>
      </trkpt>
      <trkpt lat="43.478559013456106" lon="-1.554988967254758">
        <ele>49.159999999999997</ele>
        <time>2025-04-27T07:15:22Z</time>
      </trkpt>
      <trkpt lat="43.478576028719544" lon="-1.55503598973155">
        <ele>49.649999999999999</ele>
        <time>2025-04-27T07:15:23Z</time>
      </trkpt>
      <trkpt lat="43.478587009012699" lon="-1.555079994723201">
        <ele>50.130000000000003</ele>
        <time>2025-04-27T07:15:24Z</time>
      </trkpt>
      <trkpt lat="43.478577034547925" lon="-1.555150989443064">
        <ele>50.130000000000003</ele>
        <time>2025-04-27T07:15:25Z</time>
      </trkpt>
      <trkpt lat="43.4785679820925" lon="-1.555213015526533">
        <ele>50.130000000000003</ele>
        <time>2025-04-27T07:15:26Z</time>
      </trkpt>
      <trkpt lat="43.478520037606359" lon="-1.555242016911507">
        <ele>50.130000000000003</ele>
        <time>2025-04-27T07:15:27Z</time>
      </trkpt>
      <trkpt lat="43.478393973782659" lon="-1.555337989702821">
        <ele>50.130000000000003</ele>
        <time>2025-04-27T07:15:28Z</time>
      </trkpt>
      <trkpt lat="43.478393973782659" lon="-1.555416025221348">
        <ele>50.130000000000003</ele>
        <time>2025-04-27T07:15:29Z</time>
      </trkpt>
      <trkpt lat="43.478393973782659" lon="-1.555501017719507">
        <ele>50.130000000000003</ele>
        <time>2025-04-27T07:15:30Z</time>
      </trkpt>
      <trkpt lat="43.478393973782659" lon="-1.555592967197299">
        <ele>50.130000000000003</ele>
        <time>2025-04-27T07:15:31Z</time>
      </trkpt>
      <trkpt lat="43.478393973782659" lon="-1.555682988837361">
        <ele>50.130000000000003</ele>
        <time>2025-04-27T07:15:32Z</time>
      </trkpt>
      <trkpt lat="43.478393973782659" lon="-1.555768987163901">
        <ele>50.130000000000003</ele>
        <time>2025-04-27T07:15:33Z</time>
      </trkpt>
      <trkpt lat="43.478393973782659" lon="-1.555848028510809">
        <ele>50.130000000000003</ele>
        <time>2025-04-27T07:15:34Z</time>
      </trkpt>
      <trkpt lat="43.478393973782659" lon="-1.556465020403266">
        <ele>50.130000000000003</ele>
        <time>2025-04-27T07:15:41Z</time>
      </trkpt>
      <trkpt lat="43.478393973782659" lon="-1.556543977931142">
        <ele>50.130000000000003</ele>
        <time>2025-04-27T07:15:42Z</time>
      </trkpt>
      <trkpt lat="43.478393973782659" lon="-1.55662301927805">
        <ele>50.130000000000003</ele>
        <time>2025-04-27T07:15:43Z</time>
      </trkpt>
      <trkpt lat="43.478393973782659" lon="-1.556836003437638">
        <ele>50.609999999999999</ele>
        <time>2025-04-27T07:15:46Z</time>
      </trkpt>
      <trkpt lat="43.478393973782659" lon="-1.556894006207585">
        <ele>50.609999999999999</ele>
        <time>2025-04-27T07:15:47Z</time>
      </trkpt>
      <trkpt lat="43.478393973782659" lon="-1.556926025077701">
        <ele>50.609999999999999</ele>
        <time>2025-04-27T07:15:48Z</time>
      </trkpt>
      <trkpt lat="43.478372013196349" lon="-1.556970030069351">
        <ele>50.609999999999999</ele>
        <time>2025-04-27T07:15:49Z</time>
      </trkpt>
      <trkpt lat="43.478351980447769" lon="-1.557010011747479">
        <ele>50.609999999999999</ele>
        <time>2025-04-27T07:15:50Z</time>
      </trkpt>
      <trkpt lat="43.478350974619389" lon="-1.557012023404241">
        <ele>50.609999999999999</ele>
        <time>2025-04-27T07:15:51Z</time>
      </trkpt>
      <trkpt lat="43.478304035961628" lon="-1.557012023404241">
        <ele>51.090000000000003</ele>
        <time>2025-04-27T07:15:52Z</time>
      </trkpt>
      <trkpt lat="43.47824402153492" lon="-1.557012023404241">
        <ele>51.57</ele>
        <time>2025-04-27T07:15:53Z</time>
      </trkpt>
      <trkpt lat="43.478194987401366" lon="-1.556991990655661">
        <ele>52.049999999999997</ele>
        <time>2025-04-27T07:15:54Z</time>
      </trkpt>
      <trkpt lat="43.478135978803039" lon="-1.556969024240971">
        <ele>52.530000000000001</ele>
        <time>2025-04-27T07:15:55Z</time>
      </trkpt>
      <trkpt lat="43.47807495854795" lon="-1.556943962350488">
        <ele>52.530000000000001</ele>
        <time>2025-04-27T07:15:56Z</time>
      </trkpt>
      <trkpt lat="43.478006981313229" lon="-1.556926025077701">
        <ele>53.009999999999998</ele>
        <time>2025-04-27T07:15:57Z</time>
      </trkpt>
      <trkpt lat="43.477954007685184" lon="-1.556926025077701">
        <ele>53.009999999999998</ele>
        <time>2025-04-27T07:15:58Z</time>
      </trkpt>
      <trkpt lat="43.477908996865153" lon="-1.556926025077701">
        <ele>53.009999999999998</ele>
        <time>2025-04-27T07:15:59Z</time>
      </trkpt>
      <trkpt lat="43.477867003530264" lon="-1.556926025077701">
        <ele>52.530000000000001</ele>
        <time>2025-04-27T07:16:00Z</time>
      </trkpt>
      <trkpt lat="43.47777203656733" lon="-1.557000959292054">
        <ele>52.049999999999997</ele>
        <time>2025-04-27T07:16:01Z</time>
      </trkpt>
      <trkpt lat="43.477756027132273" lon="-1.557057034224272">
        <ele>51.57</ele>
        <time>2025-04-27T07:16:02Z</time>
      </trkpt>
      <trkpt lat="43.477749992161989" lon="-1.55707597732544">
        <ele>50.609999999999999</ele>
        <time>2025-04-27T07:16:03Z</time>
      </trkpt>
      <trkpt lat="43.477804977446795" lon="-1.557195000350475">
        <ele>50.130000000000003</ele>
        <time>2025-04-27T07:16:04Z</time>
      </trkpt>
      <trkpt lat="43.477834984660149" lon="-1.557259038090706">
        <ele>49.159999999999997</ele>
        <time>2025-04-27T07:16:05Z</time>
      </trkpt>
      <trkpt lat="43.477870021015406" lon="-1.55733497813344">
        <ele>48.68</ele>
        <time>2025-04-27T07:16:06Z</time>
      </trkpt>
      <trkpt lat="43.477916959673166" lon="-1.557401027530432">
        <ele>48.200000000000003</ele>
        <time>2025-04-27T07:16:07Z</time>
      </trkpt>
      <trkpt lat="43.477973034605384" lon="-1.557466993108392">
        <ele>47.719999999999999</ele>
        <time>2025-04-27T07:16:08Z</time>
      </trkpt>
      <trkpt lat="43.478271011263132" lon="-1.557822972536087">
        <ele>45.32</ele>
        <time>2025-04-27T07:16:13Z</time>
      </trkpt>
      <trkpt lat="43.478329014033079" lon="-1.557892039418221">
        <ele>44.840000000000003</ele>
        <time>2025-04-27T07:16:14Z</time>
      </trkpt>
      <trkpt lat="43.478381987661123" lon="-1.557954987511039">
        <ele>44.359999999999999</ele>
        <time>2025-04-27T07:16:15Z</time>
      </trkpt>
      <trkpt lat="43.478597989305854" lon="-1.558210970833898">
        <ele>41.469999999999999</ele>
        <time>2025-04-27T07:16:19Z</time>
      </trkpt>
      <trkpt lat="43.478651968762279" lon="-1.558274002745748">
        <ele>40.990000000000002</ele>
        <time>2025-04-27T07:16:20Z</time>
      </trkpt>
      <trkpt lat="43.478842992335558" lon="-1.558414986357093">
        <ele>39.549999999999997</ele>
        <time>2025-04-27T07:16:23Z</time>
      </trkpt>
      <trkpt lat="43.478967966511846" lon="-1.558499978855252">
        <ele>39.07</ele>
        <time>2025-04-27T07:16:25Z</time>
      </trkpt>
      <trkpt lat="43.479029992595315" lon="-1.558541972190142">
        <ele>38.590000000000003</ele>
        <time>2025-04-27T07:16:26Z</time>
      </trkpt>
      <trkpt lat="43.479093024507165" lon="-1.558583965525031">
        <ele>38.109999999999999</ele>
        <time>2025-04-27T07:16:27Z</time>
      </trkpt>
      <trkpt lat="43.479151027277112" lon="-1.558624031022191">
        <ele>37.630000000000003</ele>
        <time>2025-04-27T07:16:28Z</time>
      </trkpt>
      <trkpt lat="43.479202995076776" lon="-1.558658983558416">
        <ele>37.630000000000003</ele>
        <time>2025-04-27T07:16:29Z</time>
      </trkpt>
      <trkpt lat="43.479300979524851" lon="-1.558609027415514">
        <ele>37.149999999999999</ele>
        <time>2025-04-27T07:16:30Z</time>
      </trkpt>
      <trkpt lat="43.479316988959908" lon="-1.558598969131708">
        <ele>37.149999999999999</ele>
        <time>2025-04-27T07:16:31Z</time>
      </trkpt>
      <trkpt lat="43.479453027248383" lon="-1.558673987165093">
        <ele>36.670000000000002</ele>
        <time>2025-04-27T07:16:33Z</time>
      </trkpt>
      <trkpt lat="43.479507006704807" lon="-1.558664012700319">
        <ele>35.710000000000001</ele>
        <time>2025-04-27T07:16:34Z</time>
      </trkpt>
      <trkpt lat="43.479824010282755" lon="-1.558614978566766">
        <ele>33.780000000000001</ele>
        <time>2025-04-27T07:16:39Z</time>
      </trkpt>
      <trkpt lat="43.479890981689095" lon="-1.558609027415514">
        <ele>33.299999999999997</ele>
        <time>2025-04-27T07:16:40Z</time>
      </trkpt>
      <trkpt lat="43.479960970580578" lon="-1.55860198661685">
        <ele>32.82</ele>
        <time>2025-04-27T07:16:41Z</time>
      </trkpt>
      <trkpt lat="43.48003095947206" lon="-1.558598969131708">
        <ele>32.340000000000003</ele>
        <time>2025-04-27T07:16:42Z</time>
      </trkpt>
      <trkpt lat="43.480098014697433" lon="-1.558598969131708">
        <ele>31.859999999999999</ele>
        <time>2025-04-27T07:16:43Z</time>
      </trkpt>
      <trkpt lat="43.480165991932154" lon="-1.558598969131708">
        <ele>31.859999999999999</ele>
        <time>2025-04-27T07:16:44Z</time>
      </trkpt>
      <trkpt lat="43.480217959731817" lon="-1.558598969131708">
        <ele>31.379999999999999</ele>
        <time>2025-04-27T07:16:45Z</time>
      </trkpt>
      <trkpt lat="43.480295995250344" lon="-1.558631993830204">
        <ele>30.899999999999999</ele>
        <time>2025-04-27T07:16:46Z</time>
      </trkpt>
      <trkpt lat="43.480362966656685" lon="-1.558658983558416">
        <ele>30.899999999999999</ele>
        <time>2025-04-27T07:16:47Z</time>
      </trkpt>
      <trkpt lat="43.480430021882057" lon="-1.558686979115009">
        <ele>31.379999999999999</ele>
        <time>2025-04-27T07:16:48Z</time>
      </trkpt>
      <trkpt lat="43.480491964146495" lon="-1.558712041005492">
        <ele>31.379999999999999</ele>
        <time>2025-04-27T07:16:49Z</time>
      </trkpt>
      <trkpt lat="43.480554996058345" lon="-1.558738024905324">
        <ele>31.379999999999999</ele>
        <time>2025-04-27T07:16:50Z</time>
      </trkpt>
      <trkpt lat="43.480760017409921" lon="-1.558802984654903">
        <ele>31.859999999999999</ele>
        <time>2025-04-27T07:16:53Z</time>
      </trkpt>
      <trkpt lat="43.481054976582527" lon="-1.558921001851559">
        <ele>33.299999999999997</ele>
        <time>2025-04-27T07:17:01Z</time>
      </trkpt>
      <trkpt lat="43.481144998222589" lon="-1.5588169824332">
        <ele>33.299999999999997</ele>
        <time>2025-04-27T07:17:03Z</time>
      </trkpt>
      <trkpt lat="43.481377009302378" lon="-1.558551024645567">
        <ele>33.299999999999997</ele>
        <time>2025-04-27T07:17:08Z</time>
      </trkpt>
      <trkpt lat="43.481422020122409" lon="-1.558499978855252">
        <ele>33.780000000000001</ele>
        <time>2025-04-27T07:17:09Z</time>
      </trkpt>
      <trkpt lat="43.481463007628918" lon="-1.558452034369111">
        <ele>33.780000000000001</ele>
        <time>2025-04-27T07:17:10Z</time>
      </trkpt>
      <trkpt lat="43.481496032327414" lon="-1.558411968871951">
        <ele>34.259999999999998</ele>
        <time>2025-04-27T07:17:11Z</time>
      </trkpt>
      <trkpt lat="43.481521010398865" lon="-1.558377016335726">
        <ele>34.259999999999998</ele>
        <time>2025-04-27T07:17:12Z</time>
      </trkpt>
      <trkpt lat="43.481546994298697" lon="-1.558340974152088">
        <ele>34.259999999999998</ele>
        <time>2025-04-27T07:17:13Z</time>
      </trkpt>
      <trkpt lat="43.481574989855289" lon="-1.558304009959102">
        <ele>34.740000000000002</ele>
        <time>2025-04-27T07:17:14Z</time>
      </trkpt>
      <trkpt lat="43.481819992884994" lon="-1.55804299749434">
        <ele>36.189999999999998</ele>
        <time>2025-04-27T07:17:21Z</time>
      </trkpt>
      <trkpt lat="43.481841031461954" lon="-1.558031011372805">
        <ele>36.189999999999998</ele>
        <time>2025-04-27T07:17:22Z</time>
      </trkpt>
      <trkpt lat="43.481862992048264" lon="-1.558017013594508">
        <ele>36.189999999999998</ele>
        <time>2025-04-27T07:17:23Z</time>
      </trkpt>
      <trkpt lat="43.481889981776476" lon="-1.55799999833107">
        <ele>36.670000000000002</ele>
        <time>2025-04-27T07:17:24Z</time>
      </trkpt>
      <trkpt lat="43.481914959847927" lon="-1.558002009987831">
        <ele>36.670000000000002</ele>
        <time>2025-04-27T07:17:25Z</time>
      </trkpt>
      <trkpt lat="43.481971034780145" lon="-1.558008966967464">
        <ele>37.149999999999999</ele>
        <time>2025-04-27T07:17:26Z</time>
      </trkpt>
      <trkpt lat="43.48209198564291" lon="-1.558024976402521">
        <ele>38.590000000000003</ele>
        <time>2025-04-27T07:17:28Z</time>
      </trkpt>
      <trkpt lat="43.482152000069618" lon="-1.558033023029566">
        <ele>39.549999999999997</ele>
        <time>2025-04-27T07:17:29Z</time>
      </trkpt>
      <trkpt lat="43.482216959819198" lon="-1.55804299749434">
        <ele>40.509999999999998</ele>
        <time>2025-04-27T07:17:30Z</time>
      </trkpt>
      <trkpt lat="43.482390968129039" lon="-1.558130001649261">
        <ele>41.950000000000003</ele>
        <time>2025-04-27T07:17:33Z</time>
      </trkpt>
      <trkpt lat="43.482664972543716" lon="-1.558249024674296">
        <ele>42.439999999999998</ele>
        <time>2025-04-27T07:17:39Z</time>
      </trkpt>
      <trkpt lat="43.482704032212496" lon="-1.558236032724381">
        <ele>42.439999999999998</ele>
        <time>2025-04-27T07:17:40Z</time>
      </trkpt>
      <trkpt lat="43.482735967263579" lon="-1.558224968612194">
        <ele>42.920000000000002</ele>
        <time>2025-04-27T07:17:41Z</time>
      </trkpt>
      <trkpt lat="43.482760023325682" lon="-1.558217005804181">
        <ele>43.399999999999999</ele>
        <time>2025-04-27T07:17:42Z</time>
      </trkpt>
      <trkpt lat="43.482780978083611" lon="-1.558209965005517">
        <ele>43.880000000000003</ele>
        <time>2025-04-27T07:17:43Z</time>
      </trkpt>
      <trkpt lat="43.482801010832191" lon="-1.558204013854265">
        <ele>43.880000000000003</ele>
        <time>2025-04-27T07:17:44Z</time>
      </trkpt>
      <trkpt lat="43.482989016920328" lon="-1.558137964457274">
        <ele>41.950000000000003</ele>
        <time>2025-04-27T07:17:55Z</time>
      </trkpt>
      <trkpt lat="43.483019024133682" lon="-1.558123966678977">
        <ele>41.469999999999999</ele>
        <time>2025-04-27T07:17:59Z</time>
      </trkpt>
      <trkpt lat="43.483050037175417" lon="-1.558109968900681">
        <ele>41.469999999999999</ele>
        <time>2025-04-27T07:18:00Z</time>
      </trkpt>
      <trkpt lat="43.483582958579063" lon="-1.557865971699357">
        <ele>39.549999999999997</ele>
        <time>2025-04-27T07:18:08Z</time>
      </trkpt>
      <trkpt lat="43.483886970207095" lon="-1.557676959782839">
        <ele>36.189999999999998</ele>
        <time>2025-04-27T07:18:14Z</time>
      </trkpt>
      <trkpt lat="43.483965005725622" lon="-1.557560032233596">
        <ele>35.229999999999997</ele>
        <time>2025-04-27T07:18:15Z</time>
      </trkpt>
      <trkpt lat="43.483999958261847" lon="-1.557507980614901">
        <ele>34.740000000000002</ele>
        <time>2025-04-27T07:18:16Z</time>
      </trkpt>
      <trkpt lat="43.484030971303582" lon="-1.557460958138108">
        <ele>34.259999999999998</ele>
        <time>2025-04-27T07:18:17Z</time>
      </trkpt>
      <trkpt lat="43.484057961031795" lon="-1.557419970631599">
        <ele>33.780000000000001</ele>
        <time>2025-04-27T07:18:18Z</time>
      </trkpt>
      <trkpt lat="43.484101966023445" lon="-1.55735501088202">
        <ele>32.82</ele>
        <time>2025-04-27T07:18:19Z</time>
      </trkpt>
      <trkpt lat="43.484101966023445" lon="-1.557317040860653">
        <ele>32.340000000000003</ele>
        <time>2025-04-27T07:18:20Z</time>
      </trkpt>
      <trkpt lat="43.484105989336967" lon="-1.556977992877364">
        <ele>26.57</ele>
        <time>2025-04-27T07:18:26Z</time>
      </trkpt>
      <trkpt lat="43.484117975458503" lon="-1.556736007332802">
        <ele>24.649999999999999</ele>
        <time>2025-04-27T07:18:29Z</time>
      </trkpt>
      <trkpt lat="43.484158962965012" lon="-1.556209959089756">
        <ele>21.289999999999999</ele>
        <time>2025-04-27T07:18:35Z</time>
      </trkpt>
      <trkpt lat="43.484183019027114" lon="-1.55606503598392">
        <ele>20.32</ele>
        <time>2025-04-27T07:18:37Z</time>
      </trkpt>
      <trkpt lat="43.484195005148649" lon="-1.556017007678747">
        <ele>19.84</ele>
        <time>2025-04-27T07:18:38Z</time>
      </trkpt>
      <trkpt lat="43.48426298238337" lon="-1.555979959666729">
        <ele>19.359999999999999</ele>
        <time>2025-04-27T07:18:39Z</time>
      </trkpt>
      <trkpt lat="43.484292989596725" lon="-1.555990017950535">
        <ele>18.879999999999999</ele>
        <time>2025-04-27T07:18:40Z</time>
      </trkpt>
      <trkpt lat="43.484321990981698" lon="-1.555999992415309">
        <ele>18.399999999999999</ele>
        <time>2025-04-27T07:18:41Z</time>
      </trkpt>
      <trkpt lat="43.484508991241455" lon="-1.55606696382165">
        <ele>17.920000000000002</ele>
        <time>2025-04-27T07:18:48Z</time>
      </trkpt>
      <trkpt lat="43.484508991241455" lon="-1.55606696382165">
        <ele>17.920000000000002</ele>
        <time>2025-04-27T07:18:49Z</time>
      </trkpt>
      <trkpt lat="43.484495999291539" lon="-1.556137036532164">
        <ele>17.920000000000002</ele>
        <time>2025-04-27T07:18:50Z</time>
      </trkpt>
      <trkpt lat="43.484488036483526" lon="-1.556176012381911">
        <ele>17.920000000000002</ele>
        <time>2025-04-27T07:18:51Z</time>
      </trkpt>
      <trkpt lat="43.48447797819972" lon="-1.556225968524814">
        <ele>17.440000000000001</ele>
        <time>2025-04-27T07:18:52Z</time>
      </trkpt>
      <trkpt lat="43.484468003734946" lon="-1.556272991001606">
        <ele>17.920000000000002</ele>
        <time>2025-04-27T07:18:53Z</time>
      </trkpt>
      <trkpt lat="43.484460040926933" lon="-1.556313978508115">
        <ele>17.920000000000002</ele>
        <time>2025-04-27T07:18:54Z</time>
      </trkpt>
      <trkpt lat="43.484453000128269" lon="-1.556350020691752">
        <ele>17.920000000000002</ele>
        <time>2025-04-27T07:18:55Z</time>
      </trkpt>
      <trkpt lat="43.484443025663495" lon="-1.556401988491416">
        <ele>17.440000000000001</ele>
        <time>2025-04-27T07:18:56Z</time>
      </trkpt>
      <trkpt lat="43.48443103954196" lon="-1.556463008746505">
        <ele>17.440000000000001</ele>
        <time>2025-04-27T07:18:57Z</time>
      </trkpt>
      <trkpt lat="43.484415030106902" lon="-1.556540960446">
        <ele>17.440000000000001</ele>
        <time>2025-04-27T07:18:58Z</time>
      </trkpt>
      <trkpt lat="43.484401032328606" lon="-1.556631987914443">
        <ele>17.440000000000001</ele>
        <time>2025-04-27T07:18:59Z</time>
      </trkpt>
      <trkpt lat="43.484397009015083" lon="-1.556698959320784">
        <ele>16.960000000000001</ele>
        <time>2025-04-27T07:19:00Z</time>
      </trkpt>
      <trkpt lat="43.484392985701561" lon="-1.556764002889395">
        <ele>16.48</ele>
        <time>2025-04-27T07:19:01Z</time>
      </trkpt>
      <trkpt lat="43.484388962388039" lon="-1.556826028972864">
        <ele>16</ele>
        <time>2025-04-27T07:19:02Z</time>
      </trkpt>
      <trkpt lat="43.484386028721929" lon="-1.556887971237302">
        <ele>15.52</ele>
        <time>2025-04-27T07:19:03Z</time>
      </trkpt>
      <trkpt lat="43.484380999580026" lon="-1.556970030069351">
        <ele>15.039999999999999</ele>
        <time>2025-04-27T07:19:04Z</time>
      </trkpt>
      <trkpt lat="43.484382005408406" lon="-1.55694697983563">
        <ele>15.039999999999999</ele>
        <time>2025-04-27T07:19:05Z</time>
      </trkpt>
      <trkpt lat="43.484413018450141" lon="-1.557043958455324">
        <ele>15.039999999999999</ele>
        <time>2025-04-27T07:19:06Z</time>
      </trkpt>
      <trkpt lat="43.484428022056818" lon="-1.557080000638962">
        <ele>14.56</ele>
        <time>2025-04-27T07:19:07Z</time>
      </trkpt>
      <trkpt lat="43.484439002349973" lon="-1.557104978710413">
        <ele>14.08</ele>
        <time>2025-04-27T07:19:08Z</time>
      </trkpt>
      <trkpt lat="43.484447970986366" lon="-1.557125011458993">
        <ele>14.08</ele>
        <time>2025-04-27T07:19:09Z</time>
      </trkpt>
      <trkpt lat="43.484535980969667" lon="-1.557245040312409">
        <ele>13.119999999999999</ele>
        <time>2025-04-27T07:19:15Z</time>
      </trkpt>
      <trkpt lat="43.484549978747964" lon="-1.557232970371842">
        <ele>13.119999999999999</ele>
        <time>2025-04-27T07:19:16Z</time>
      </trkpt>
      <trkpt lat="43.484575962647796" lon="-1.557208998128772">
        <ele>13.119999999999999</ele>
        <time>2025-04-27T07:19:17Z</time>
      </trkpt>
      <trkpt lat="43.484612004831433" lon="-1.557176979258657">
        <ele>13.119999999999999</ele>
        <time>2025-04-27T07:19:18Z</time>
      </trkpt>
      <trkpt lat="43.484651986509562" lon="-1.557141020894051">
        <ele>12.630000000000001</ele>
        <time>2025-04-27T07:19:19Z</time>
      </trkpt>
      <trkpt lat="43.484695991501212" lon="-1.557101039215922">
        <ele>12.630000000000001</ele>
        <time>2025-04-27T07:19:20Z</time>
      </trkpt>
      <trkpt lat="43.484744019806385" lon="-1.557058040052652">
        <ele>12.630000000000001</ele>
        <time>2025-04-27T07:19:21Z</time>
      </trkpt>
      <trkpt lat="43.484789030626416" lon="-1.557017974555492">
        <ele>12.15</ele>
        <time>2025-04-27T07:19:22Z</time>
      </trkpt>
      <trkpt lat="43.484827000647783" lon="-1.556983022019267">
        <ele>12.15</ele>
        <time>2025-04-27T07:19:23Z</time>
      </trkpt>
      <trkpt lat="43.484859019517899" lon="-1.556955026462674">
        <ele>11.67</ele>
        <time>2025-04-27T07:19:24Z</time>
      </trkpt>
      <trkpt lat="43.484882991760969" lon="-1.556932982057333">
        <ele>11.67</ele>
        <time>2025-04-27T07:19:25Z</time>
      </trkpt>
      <trkpt lat="43.485049959272146" lon="-1.556715974584222">
        <ele>10.23</ele>
        <time>2025-04-27T07:19:36Z</time>
      </trkpt>
      <trkpt lat="43.48520795814693" lon="-1.556468037888408">
        <ele>9.75</ele>
        <time>2025-04-27T07:19:41Z</time>
      </trkpt>
      <trkpt lat="43.485236037522554" lon="-1.556419003754854">
        <ele>10.23</ele>
        <time>2025-04-27T07:19:42Z</time>
      </trkpt>
      <trkpt lat="43.485346008092165" lon="-1.55643199570477">
        <ele>10.23</ele>
        <time>2025-04-27T07:19:43Z</time>
      </trkpt>
      <trkpt lat="43.485346008092165" lon="-1.55643199570477">
        <ele>10.23</ele>
        <time>2025-04-27T07:19:44Z</time>
      </trkpt>
      <trkpt lat="43.48537802696228" lon="-1.556469965726137">
        <ele>10.710000000000001</ele>
        <time>2025-04-27T07:19:45Z</time>
      </trkpt>
      <trkpt lat="43.485414991155267" lon="-1.556514976546168">
        <ele>10.23</ele>
        <time>2025-04-27T07:19:46Z</time>
      </trkpt>
      <trkpt lat="43.485449021682143" lon="-1.556554958224297">
        <ele>10.23</ele>
        <time>2025-04-27T07:19:47Z</time>
      </trkpt>
      <trkpt lat="43.485578019171953" lon="-1.556748999282718">
        <ele>9.75</ele>
        <time>2025-04-27T07:19:51Z</time>
      </trkpt>
      <trkpt lat="43.485594028607011" lon="-1.556804990395904">
        <ele>9.75</ele>
        <time>2025-04-27T07:19:52Z</time>
      </trkpt>
      <trkpt lat="43.485604003071785" lon="-1.556840026751161">
        <ele>10.23</ele>
        <time>2025-04-27T07:19:53Z</time>
      </trkpt>
      <trkpt lat="43.485594028607011" lon="-1.556887971237302">
        <ele>9.75</ele>
        <time>2025-04-27T07:19:54Z</time>
      </trkpt>
      <trkpt lat="43.485581958666444" lon="-1.55694697983563">
        <ele>9.27</ele>
        <time>2025-04-27T07:19:55Z</time>
      </trkpt>
      <trkpt lat="43.485552035272121" lon="-1.556997019797564">
        <ele>8.789999999999999</ele>
        <time>2025-04-27T07:19:56Z</time>
      </trkpt>
      <trkpt lat="43.485518004745245" lon="-1.557055022567511">
        <ele>8.310000000000001</ele>
        <time>2025-04-27T07:19:57Z</time>
      </trkpt>
      <trkpt lat="43.485477017238736" lon="-1.557087041437626">
        <ele>7.83</ele>
        <time>2025-04-27T07:19:58Z</time>
      </trkpt>
      <trkpt lat="43.485427983105183" lon="-1.557125011458993">
        <ele>7.83</ele>
        <time>2025-04-27T07:19:59Z</time>
      </trkpt>
      <trkpt lat="43.485376015305519" lon="-1.557164993137121">
        <ele>7.35</ele>
        <time>2025-04-27T07:20:00Z</time>
      </trkpt>
      <trkpt lat="43.485329998657107" lon="-1.557201035320759">
        <ele>7.35</ele>
        <time>2025-04-27T07:20:01Z</time>
      </trkpt>
      <trkpt lat="43.485289011150599" lon="-1.557232970371842">
        <ele>6.87</ele>
        <time>2025-04-27T07:20:02Z</time>
      </trkpt>
      <trkpt lat="43.485242994502187" lon="-1.557268006727099">
        <ele>6.87</ele>
        <time>2025-04-27T07:20:03Z</time>
      </trkpt>
      <trkpt lat="43.485189015045762" lon="-1.557310000061989">
        <ele>6.39</ele>
        <time>2025-04-27T07:20:04Z</time>
      </trkpt>
      <trkpt lat="43.485136963427067" lon="-1.557350987568498">
        <ele>6.39</ele>
        <time>2025-04-27T07:20:05Z</time>
      </trkpt>
      <trkpt lat="43.485081978142262" lon="-1.557415025308728">
        <ele>6.39</ele>
        <time>2025-04-27T07:20:06Z</time>
      </trkpt>
      <trkpt lat="43.48503302782774" lon="-1.557474033907056">
        <ele>5.91</ele>
        <time>2025-04-27T07:20:07Z</time>
      </trkpt>
      <trkpt lat="43.484878968447447" lon="-1.557660028338432">
        <ele>5.91</ele>
        <time>2025-04-27T07:20:11Z</time>
      </trkpt>
      <trkpt lat="43.484843010082841" lon="-1.557703027501702">
        <ele>5.91</ele>
        <time>2025-04-27T07:20:12Z</time>
      </trkpt>
      <trkpt lat="43.484815014526248" lon="-1.557736974209547">
        <ele>5.91</ele>
        <time>2025-04-27T07:20:13Z</time>
      </trkpt>
      <trkpt lat="43.484694985672832" lon="-1.557880975306034">
        <ele>5.91</ele>
        <time>2025-04-27T07:20:17Z</time>
      </trkpt>
      <trkpt lat="43.484660033136606" lon="-1.557923974469304">
        <ele>6.39</ele>
        <time>2025-04-27T07:20:18Z</time>
      </trkpt>
      <trkpt lat="43.484629020094872" lon="-1.557961022481322">
        <ele>6.39</ele>
        <time>2025-04-27T07:20:19Z</time>
      </trkpt>
      <trkpt lat="43.484505973756313" lon="-1.558109968900681">
        <ele>6.87</ele>
        <time>2025-04-27T07:20:23Z</time>
      </trkpt>
      <trkpt lat="43.484473032876849" lon="-1.558150034397841">
        <ele>6.87</ele>
        <time>2025-04-27T07:20:24Z</time>
      </trkpt>
      <trkpt lat="43.484360966831446" lon="-1.558293029665947">
        <ele>6.87</ele>
        <time>2025-04-27T07:20:29Z</time>
      </trkpt>
      <trkpt lat="43.48434504121542" lon="-1.558317001909018">
        <ele>6.87</ele>
        <time>2025-04-27T07:20:30Z</time>
      </trkpt>
      <trkpt lat="43.484330959618092" lon="-1.558337034657598">
        <ele>6.39</ele>
        <time>2025-04-27T07:20:31Z</time>
      </trkpt>
      <trkpt lat="43.484317967668176" lon="-1.558354971930385">
        <ele>6.39</ele>
        <time>2025-04-27T07:20:32Z</time>
      </trkpt>
      <trkpt lat="43.48430598154664" lon="-1.558371987193823">
        <ele>6.39</ele>
        <time>2025-04-27T07:20:33Z</time>
      </trkpt>
      <trkpt lat="43.48430598154664" lon="-1.558371987193823">
        <ele>6.39</ele>
        <time>2025-04-27T07:20:34Z</time>
      </trkpt>
      <trkpt lat="43.484281003475189" lon="-1.558408029377461">
        <ele>6.87</ele>
        <time>2025-04-27T07:20:38Z</time>
      </trkpt>
      <trkpt lat="43.484281003475189" lon="-1.558408029377461">
        <ele>7.35</ele>
        <time>2025-04-27T07:20:41Z</time>
      </trkpt>
      <trkpt lat="43.484385022893548" lon="-1.558365030214191">
        <ele>16</ele>
        <time>2025-04-27T07:27:10Z</time>
      </trkpt>
      <trkpt lat="43.484441014006734" lon="-1.558511964976788">
        <ele>8.310000000000001</ele>
        <time>2025-04-27T07:27:51Z</time>
      </trkpt>
      <trkpt lat="43.48439197987318" lon="-1.558458991348743">
        <ele>10.710000000000001</ele>
        <time>2025-04-27T07:28:37Z</time>
      </trkpt>
      <trkpt lat="43.484392985701561" lon="-1.558454968035221">
        <ele>10.710000000000001</ele>
        <time>2025-04-27T07:29:08Z</time>
      </trkpt>
      <trkpt lat="43.484401032328606" lon="-1.558521017432213">
        <ele>10.23</ele>
        <time>2025-04-27T07:29:13Z</time>
      </trkpt>
      <trkpt lat="43.484315034002066" lon="-1.55842998996377">
        <ele>9.75</ele>
        <time>2025-04-27T07:29:24Z</time>
      </trkpt>
      <trkpt lat="43.484252002090216" lon="-1.558449016883969">
        <ele>9.75</ele>
        <time>2025-04-27T07:29:26Z</time>
      </trkpt>
      <trkpt lat="43.484252002090216" lon="-1.558449016883969">
        <ele>9.75</ele>
        <time>2025-04-27T07:29:27Z</time>
      </trkpt>
      <trkpt lat="43.483884958550334" lon="-1.558873979374766">
        <ele>9.75</ele>
        <time>2025-04-27T07:29:39Z</time>
      </trkpt>
      <trkpt lat="43.483858974650502" lon="-1.558903986588121">
        <ele>9.75</ele>
        <time>2025-04-27T07:29:40Z</time>
      </trkpt>
      <trkpt lat="43.483786974102259" lon="-1.558987973257899">
        <ele>9.27</ele>
        <time>2025-04-27T07:29:42Z</time>
      </trkpt>
      <trkpt lat="43.483744980767369" lon="-1.559037007391453">
        <ele>9.27</ele>
        <time>2025-04-27T07:29:43Z</time>
      </trkpt>
      <trkpt lat="43.483265032991767" lon="-1.559736980125308">
        <ele>8.789999999999999</ele>
        <time>2025-04-27T07:29:56Z</time>
      </trkpt>
      <trkpt lat="43.483240976929665" lon="-1.559785008430481">
        <ele>8.789999999999999</ele>
        <time>2025-04-27T07:29:57Z</time>
      </trkpt>
      <trkpt lat="43.483225973322988" lon="-1.559948036447167">
        <ele>8.789999999999999</ele>
        <time>2025-04-27T07:29:58Z</time>
      </trkpt>
      <trkpt lat="43.483245000243187" lon="-1.560009978711605">
        <ele>8.310000000000001</ele>
        <time>2025-04-27T07:29:59Z</time>
      </trkpt>
      <trkpt lat="43.483265032991767" lon="-1.560072004795075">
        <ele>8.310000000000001</ele>
        <time>2025-04-27T07:30:00Z</time>
      </trkpt>
      <trkpt lat="43.483394030481577" lon="-1.560487998649478">
        <ele>9.27</ele>
        <time>2025-04-27T07:30:07Z</time>
      </trkpt>
      <trkpt lat="43.483397969976068" lon="-1.560546001419425">
        <ele>9.27</ele>
        <time>2025-04-27T07:30:08Z</time>
      </trkpt>
      <trkpt lat="43.483408028259873" lon="-1.560674998909235">
        <ele>9.75</ele>
        <time>2025-04-27T07:30:10Z</time>
      </trkpt>
      <trkpt lat="43.48340299911797" lon="-1.560902986675501">
        <ele>10.23</ele>
        <time>2025-04-27T07:30:13Z</time>
      </trkpt>
      <trkpt lat="43.483375003561378" lon="-1.561601031571627">
        <ele>10.710000000000001</ele>
        <time>2025-04-27T07:30:23Z</time>
      </trkpt>
      <trkpt lat="43.483398975804448" lon="-1.561660040169954">
        <ele>10.710000000000001</ele>
        <time>2025-04-27T07:30:24Z</time>
      </trkpt>
      <trkpt lat="43.48342303186655" lon="-1.561720976606011">
        <ele>10.710000000000001</ele>
        <time>2025-04-27T07:30:25Z</time>
      </trkpt>
      <trkpt lat="43.483449015766382" lon="-1.561763975769281">
        <ele>10.710000000000001</ele>
        <time>2025-04-27T07:30:26Z</time>
      </trkpt>
      <trkpt lat="43.483490003272891" lon="-1.561797000467777">
        <ele>10.710000000000001</ele>
        <time>2025-04-27T07:30:27Z</time>
      </trkpt>
      <trkpt lat="43.483534008264542" lon="-1.561831030994654">
        <ele>10.710000000000001</ele>
        <time>2025-04-27T07:30:28Z</time>
      </trkpt>
      <trkpt lat="43.483579019084573" lon="-1.56186799518764">
        <ele>11.19</ele>
        <time>2025-04-27T07:30:29Z</time>
      </trkpt>
      <trkpt lat="43.483622018247843" lon="-1.561902025714517">
        <ele>11.19</ele>
        <time>2025-04-27T07:30:30Z</time>
      </trkpt>
      <trkpt lat="43.483651019632816" lon="-1.561924992129207">
        <ele>11.19</ele>
        <time>2025-04-27T07:30:31Z</time>
      </trkpt>
      <trkpt lat="43.483684966340661" lon="-1.56201702542603">
        <ele>11.67</ele>
        <time>2025-04-27T07:30:32Z</time>
      </trkpt>
      <trkpt lat="43.483704999089241" lon="-1.562075028195977">
        <ele>11.67</ele>
        <time>2025-04-27T07:30:33Z</time>
      </trkpt>
      <trkpt lat="43.483726037666202" lon="-1.562131019309163">
        <ele>11.67</ele>
        <time>2025-04-27T07:30:34Z</time>
      </trkpt>
      <trkpt lat="43.483737017959356" lon="-1.562161026522517">
        <ele>12.15</ele>
        <time>2025-04-27T07:30:35Z</time>
      </trkpt>
      <trkpt lat="43.483627969399095" lon="-1.562460009008646">
        <ele>12.630000000000001</ele>
        <time>2025-04-27T07:30:41Z</time>
      </trkpt>
      <trkpt lat="43.483542976900935" lon="-1.56253301538527">
        <ele>12.630000000000001</ele>
        <time>2025-04-27T07:30:43Z</time>
      </trkpt>
      <trkpt lat="43.483463013544679" lon="-1.562611972913146">
        <ele>12.630000000000001</ele>
        <time>2025-04-27T07:30:45Z</time>
      </trkpt>
      <trkpt lat="43.483427977189422" lon="-1.562652038410306">
        <ele>12.630000000000001</ele>
        <time>2025-04-27T07:30:46Z</time>
      </trkpt>
      <trkpt lat="43.483351031318307" lon="-1.562740970402956">
        <ele>12.630000000000001</ele>
        <time>2025-04-27T07:30:48Z</time>
      </trkpt>
      <trkpt lat="43.48331599496305" lon="-1.562844989821315">
        <ele>13.119999999999999</ele>
        <time>2025-04-27T07:30:50Z</time>
      </trkpt>
      <trkpt lat="43.483239971101284" lon="-1.563073983415961">
        <ele>14.56</ele>
        <time>2025-04-27T07:30:54Z</time>
      </trkpt>
      <trkpt lat="43.483218010514975" lon="-1.563139026984572">
        <ele>14.56</ele>
        <time>2025-04-27T07:30:55Z</time>
      </trkpt>
      <trkpt lat="43.483196971938014" lon="-1.563202980905771">
        <ele>15.039999999999999</ele>
        <time>2025-04-27T07:30:56Z</time>
      </trkpt>
      <trkpt lat="43.483153972774744" lon="-1.563341030851007">
        <ele>15.52</ele>
        <time>2025-04-27T07:30:58Z</time>
      </trkpt>
      <trkpt lat="43.483050037175417" lon="-1.563814021646977">
        <ele>18.399999999999999</ele>
        <time>2025-04-27T07:31:09Z</time>
      </trkpt>
      <trkpt lat="43.483050037175417" lon="-1.563814021646977">
        <ele>18.399999999999999</ele>
        <time>2025-04-27T07:31:24Z</time>
      </trkpt>
      <trkpt lat="43.483050037175417" lon="-1.563814021646977">
        <ele>18.399999999999999</ele>
        <time>2025-04-27T07:31:41Z</time>
      </trkpt>
      <trkpt lat="43.483050037175417" lon="-1.563814021646977">
        <ele>17.920000000000002</ele>
        <time>2025-04-27T07:31:44Z</time>
      </trkpt>
      <trkpt lat="43.483050037175417" lon="-1.563814021646977">
        <ele>17.920000000000002</ele>
        <time>2025-04-27T07:31:45Z</time>
      </trkpt>
      <trkpt lat="43.483050037175417" lon="-1.563814021646977">
        <ele>18.399999999999999</ele>
        <time>2025-04-27T07:31:46Z</time>
      </trkpt>
      <trkpt lat="43.483050037175417" lon="-1.563814021646977">
        <ele>17.920000000000002</ele>
        <time>2025-04-27T07:31:47Z</time>
      </trkpt>
      <trkpt lat="43.48303796723485" lon="-1.564060030505061">
        <ele>16.48</ele>
        <time>2025-04-27T07:31:58Z</time>
      </trkpt>
      <trkpt lat="43.48303603939712" lon="-1.564304027706385">
        <ele>15.52</ele>
        <time>2025-04-27T07:32:01Z</time>
      </trkpt>
      <trkpt lat="43.482981976121664" lon="-1.564924959093332">
        <ele>14.56</ele>
        <time>2025-04-27T07:32:08Z</time>
      </trkpt>
      <trkpt lat="43.482909975573421" lon="-1.565439021214843">
        <ele>14.08</ele>
        <time>2025-04-27T07:32:13Z</time>
      </trkpt>
      <trkpt lat="43.482851972803473" lon="-1.565715959295631">
        <ele>14.08</ele>
        <time>2025-04-27T07:32:16Z</time>
      </trkpt>
      <trkpt lat="43.482835963368416" lon="-1.565787959843874">
        <ele>13.6</ele>
        <time>2025-04-27T07:32:17Z</time>
      </trkpt>
      <trkpt lat="43.482835963368416" lon="-1.565843028947711">
        <ele>13.6</ele>
        <time>2025-04-27T07:32:18Z</time>
      </trkpt>
      <trkpt lat="43.482852978631854" lon="-1.565964985638857">
        <ele>13.6</ele>
        <time>2025-04-27T07:32:20Z</time>
      </trkpt>
      <trkpt lat="43.482870999723673" lon="-1.566015025600791">
        <ele>13.6</ele>
        <time>2025-04-27T07:32:21Z</time>
      </trkpt>
      <trkpt lat="43.482890026643872" lon="-1.566066993400455">
        <ele>13.119999999999999</ele>
        <time>2025-04-27T07:32:22Z</time>
      </trkpt>
      <trkpt lat="43.48290896974504" lon="-1.566119967028499">
        <ele>13.119999999999999</ele>
        <time>2025-04-27T07:32:23Z</time>
      </trkpt>
      <trkpt lat="43.482930008322001" lon="-1.566176963970065">
        <ele>12.630000000000001</ele>
        <time>2025-04-27T07:32:24Z</time>
      </trkpt>
      <trkpt lat="43.482952974736691" lon="-1.566242007538676">
        <ele>12.630000000000001</ele>
        <time>2025-04-27T07:32:25Z</time>
      </trkpt>
      <trkpt lat="43.482977030798793" lon="-1.566309984773397">
        <ele>12.630000000000001</ele>
        <time>2025-04-27T07:32:26Z</time>
      </trkpt>
      <trkpt lat="43.483064034953713" lon="-1.566580971702933">
        <ele>12.15</ele>
        <time>2025-04-27T07:32:30Z</time>
      </trkpt>
      <trkpt lat="43.483104016631842" lon="-1.566710975021124">
        <ele>11.67</ele>
        <time>2025-04-27T07:32:32Z</time>
      </trkpt>
      <trkpt lat="43.483134023845196" lon="-1.566769983619452">
        <ele>11.67</ele>
        <time>2025-04-27T07:32:33Z</time>
      </trkpt>
      <trkpt lat="43.483192026615143" lon="-1.566884983330965">
        <ele>11.19</ele>
        <time>2025-04-27T07:32:35Z</time>
      </trkpt>
      <trkpt lat="43.483303003013134" lon="-1.567091010510922">
        <ele>10.23</ele>
        <time>2025-04-27T07:32:38Z</time>
      </trkpt>
      <trkpt lat="43.483342984691262" lon="-1.567167034372687">
        <ele>9.75</ele>
        <time>2025-04-27T07:32:39Z</time>
      </trkpt>
      <trkpt lat="43.483413979411125" lon="-1.567298965528607">
        <ele>9.75</ele>
        <time>2025-04-27T07:32:41Z</time>
      </trkpt>
      <trkpt lat="43.483565021306276" lon="-1.568195996806026">
        <ele>10.710000000000001</ele>
        <time>2025-04-27T07:32:51Z</time>
      </trkpt>
      <trkpt lat="43.483601985499263" lon="-1.568150985985994">
        <ele>10.710000000000001</ele>
        <time>2025-04-27T07:32:52Z</time>
      </trkpt>
      <trkpt lat="43.48363702185452" lon="-1.568109998479486">
        <ele>11.19</ele>
        <time>2025-04-27T07:32:53Z</time>
      </trkpt>
      <trkpt lat="43.483649007976055" lon="-1.568093989044428">
        <ele>11.19</ele>
        <time>2025-04-27T07:32:54Z</time>
      </trkpt>
      <trkpt lat="43.483641967177391" lon="-1.568103963509202">
        <ele>11.19</ele>
        <time>2025-04-27T07:32:55Z</time>
      </trkpt>
      <trkpt lat="43.483619000762701" lon="-1.568131037056446">
        <ele>11.19</ele>
        <time>2025-04-27T07:32:56Z</time>
      </trkpt>
      <trkpt lat="43.483587987720966" lon="-1.568168001249433">
        <ele>11.19</ele>
        <time>2025-04-27T07:32:57Z</time>
      </trkpt>
      <trkpt lat="43.483556974679232" lon="-1.568204965442419">
        <ele>11.19</ele>
        <time>2025-04-27T07:32:58Z</time>
      </trkpt>
      <trkpt lat="43.483526967465878" lon="-1.568241007626057">
        <ele>11.19</ele>
        <time>2025-04-27T07:32:59Z</time>
      </trkpt>
      <trkpt lat="43.483496960252523" lon="-1.568276965990663">
        <ele>11.19</ele>
        <time>2025-04-27T07:33:00Z</time>
      </trkpt>
      <trkpt lat="43.483461001887918" lon="-1.568304039537907">
        <ele>11.19</ele>
        <time>2025-04-27T07:33:01Z</time>
      </trkpt>
      <trkpt lat="43.483419008553028" lon="-1.568318959325552">
        <ele>11.19</ele>
        <time>2025-04-27T07:33:02Z</time>
      </trkpt>
      <trkpt lat="43.483366034924984" lon="-1.56829004175961">
        <ele>11.19</ele>
        <time>2025-04-27T07:33:03Z</time>
      </trkpt>
      <trkpt lat="43.48331599496305" lon="-1.568260034546256">
        <ele>11.19</ele>
        <time>2025-04-27T07:33:04Z</time>
      </trkpt>
      <trkpt lat="43.483215998858213" lon="-1.568199014291167">
        <ele>10.710000000000001</ele>
        <time>2025-04-27T07:33:06Z</time>
      </trkpt>
      <trkpt lat="43.483087001368403" lon="-1.56811997294426">
        <ele>10.23</ele>
        <time>2025-04-27T07:33:09Z</time>
      </trkpt>
      <trkpt lat="43.482921961694956" lon="-1.568018971011043">
        <ele>9.27</ele>
        <time>2025-04-27T07:33:15Z</time>
      </trkpt>
      <trkpt lat="43.482916010543704" lon="-1.568004973232746">
        <ele>9.27</ele>
        <time>2025-04-27T07:33:16Z</time>
      </trkpt>
      <trkpt lat="43.482905030250549" lon="-1.567976977676153">
        <ele>8.789999999999999</ele>
        <time>2025-04-27T07:33:17Z</time>
      </trkpt>
      <trkpt lat="43.482891032472253" lon="-1.567943030968308">
        <ele>8.789999999999999</ele>
        <time>2025-04-27T07:33:18Z</time>
      </trkpt>
      <trkpt lat="43.482876028865576" lon="-1.56790598295629">
        <ele>8.310000000000001</ele>
        <time>2025-04-27T07:33:19Z</time>
      </trkpt>
      <trkpt lat="43.482767986133695" lon="-1.567634996026754">
        <ele>7.35</ele>
        <time>2025-04-27T07:33:25Z</time>
      </trkpt>
      <trkpt lat="43.482747031375766" lon="-1.567583028227091">
        <ele>7.35</ele>
        <time>2025-04-27T07:33:26Z</time>
      </trkpt>
      <trkpt lat="43.482723981142044" lon="-1.567526031285524">
        <ele>6.87</ele>
        <time>2025-04-27T07:33:27Z</time>
      </trkpt>
      <trkpt lat="43.482649968937039" lon="-1.567340958863497">
        <ele>6.39</ele>
        <time>2025-04-27T07:33:30Z</time>
      </trkpt>
      <trkpt lat="43.482623985037208" lon="-1.567273987457156">
        <ele>6.39</ele>
        <time>2025-04-27T07:33:31Z</time>
      </trkpt>
      <trkpt lat="43.482593977823853" lon="-1.567199975252152">
        <ele>5.91</ele>
        <time>2025-04-27T07:33:32Z</time>
      </trkpt>
      <trkpt lat="43.482517031952739" lon="-1.567099979147315">
        <ele>5.42</ele>
        <time>2025-04-27T07:33:34Z</time>
      </trkpt>
      <trkpt lat="43.482481995597482" lon="-1.56706502661109">
        <ele>5.42</ele>
        <time>2025-04-27T07:33:35Z</time>
      </trkpt>
      <trkpt lat="43.482411000877619" lon="-1.567009035497904">
        <ele>4.46</ele>
        <time>2025-04-27T07:33:37Z</time>
      </trkpt>
      <trkpt lat="43.482358027249575" lon="-1.56700300052762">
        <ele>4.46</ele>
        <time>2025-04-27T07:33:38Z</time>
      </trkpt>
      <trkpt lat="43.482234980911016" lon="-1.566989002749324">
        <ele>4.46</ele>
        <time>2025-04-27T07:33:39Z</time>
      </trkpt>
      <trkpt lat="43.482234980911016" lon="-1.566989002749324">
        <ele>4.46</ele>
        <time>2025-04-27T07:33:40Z</time>
      </trkpt>
      <trkpt lat="43.482217965647578" lon="-1.566993026062846">
        <ele>4.46</ele>
        <time>2025-04-27T07:33:41Z</time>
      </trkpt>
      <trkpt lat="43.482161974534392" lon="-1.567005012184382">
        <ele>5.42</ele>
        <time>2025-04-27T07:33:50Z</time>
      </trkpt>
      <trkpt lat="43.482171026989818" lon="-1.567198969423771">
        <ele>5.42</ele>
        <time>2025-04-27T07:33:57Z</time>
      </trkpt>
      <trkpt lat="43.482187958434224" lon="-1.567752007395029">
        <ele>4.94</ele>
        <time>2025-04-27T07:34:05Z</time>
      </trkpt>
      <trkpt lat="43.482203967869282" lon="-1.567941019311547">
        <ele>4.94</ele>
        <time>2025-04-27T07:34:13Z</time>
      </trkpt>
      <trkpt lat="43.482204973697662" lon="-1.567960968241096">
        <ele>4.94</ele>
        <time>2025-04-27T07:34:24Z</time>
      </trkpt>
      <trkpt lat="43.482103971764445" lon="-1.567946970462799">
        <ele>4.46</ele>
        <time>2025-04-27T07:34:33Z</time>
      </trkpt>
      <trkpt lat="43.482194999232888" lon="-1.568428007885814">
        <ele>8.789999999999999</ele>
        <time>2025-04-27T08:08:14Z</time>
      </trkpt>
      <trkpt lat="43.482075976207852" lon="-1.568031962960959">
        <ele>23.210000000000001</ele>
        <time>2025-04-27T08:08:44Z</time>
      </trkpt>
      <trkpt lat="43.482118975371122" lon="-1.568053001537919">
        <ele>25.129999999999999</ele>
        <time>2025-04-27T08:09:27Z</time>
      </trkpt>
      <trkpt lat="43.482058038935065" lon="-1.568060964345932">
        <ele>20.809999999999999</ele>
        <time>2025-04-27T08:10:17Z</time>
      </trkpt>
      <trkpt lat="43.482059966772795" lon="-1.568059958517551">
        <ele>20.809999999999999</ele>
        <time>2025-04-27T08:10:46Z</time>
      </trkpt>
      <trkpt lat="43.482062984257936" lon="-1.568024000152946">
        <ele>20.32</ele>
        <time>2025-04-27T08:11:02Z</time>
      </trkpt>
      <trkpt lat="43.482194999232888" lon="-1.567829959094524">
        <ele>19.359999999999999</ele>
        <time>2025-04-27T08:11:07Z</time>
      </trkpt>
      <trkpt lat="43.482144037261605" lon="-1.567810010164976">
        <ele>18.879999999999999</ele>
        <time>2025-04-27T08:11:18Z</time>
      </trkpt>
      <trkpt lat="43.482144037261605" lon="-1.567810010164976">
        <ele>18.879999999999999</ele>
        <time>2025-04-27T08:11:42Z</time>
      </trkpt>
      <trkpt lat="43.482192987576127" lon="-1.567811015993357">
        <ele>18.879999999999999</ele>
        <time>2025-04-27T08:11:44Z</time>
      </trkpt>
      <trkpt lat="43.482196005061269" lon="-1.567845968529582">
        <ele>18.399999999999999</ele>
        <time>2025-04-27T08:11:45Z</time>
      </trkpt>
      <trkpt lat="43.482200028374791" lon="-1.567890979349613">
        <ele>18.399999999999999</ele>
        <time>2025-04-27T08:11:46Z</time>
      </trkpt>
      <trkpt lat="43.482202962040901" lon="-1.567935990169644">
        <ele>18.399999999999999</ele>
        <time>2025-04-27T08:11:47Z</time>
      </trkpt>
      <trkpt lat="43.482206985354424" lon="-1.567978989332914">
        <ele>17.920000000000002</ele>
        <time>2025-04-27T08:11:48Z</time>
      </trkpt>
      <trkpt lat="43.482206985354424" lon="-1.567978989332914">
        <ele>16.960000000000001</ele>
        <time>2025-04-27T08:11:58Z</time>
      </trkpt>
      <trkpt lat="43.482206985354424" lon="-1.567978989332914">
        <ele>16.960000000000001</ele>
        <time>2025-04-27T08:12:47Z</time>
      </trkpt>
      <trkpt lat="43.482214026153088" lon="-1.568061970174313">
        <ele>16.960000000000001</ele>
        <time>2025-04-27T08:13:07Z</time>
      </trkpt>
      <trkpt lat="43.482225006446242" lon="-1.568135982379317">
        <ele>16</ele>
        <time>2025-04-27T08:13:08Z</time>
      </trkpt>
      <trkpt lat="43.482234980911016" lon="-1.56820303760469">
        <ele>16</ele>
        <time>2025-04-27T08:13:09Z</time>
      </trkpt>
      <trkpt lat="43.482244033366442" lon="-1.568260034546256">
        <ele>15.039999999999999</ele>
        <time>2025-04-27T08:13:10Z</time>
      </trkpt>
      <trkpt lat="43.482188964262605" lon="-1.56839900650084">
        <ele>14.56</ele>
        <time>2025-04-27T08:13:11Z</time>
      </trkpt>
      <trkpt lat="43.482150994241238" lon="-1.568432031199336">
        <ele>14.08</ele>
        <time>2025-04-27T08:13:12Z</time>
      </trkpt>
      <trkpt lat="43.482107995077968" lon="-1.568467989563942">
        <ele>13.119999999999999</ele>
        <time>2025-04-27T08:13:13Z</time>
      </trkpt>
      <trkpt lat="43.482058038935065" lon="-1.568508977070451">
        <ele>12.630000000000001</ele>
        <time>2025-04-27T08:13:14Z</time>
      </trkpt>
      <trkpt lat="43.482007998973131" lon="-1.56855097040534">
        <ele>12.15</ele>
        <time>2025-04-27T08:13:15Z</time>
      </trkpt>
      <trkpt lat="43.481957959011197" lon="-1.568592041730881">
        <ele>11.67</ele>
        <time>2025-04-27T08:13:16Z</time>
      </trkpt>
      <trkpt lat="43.481659982353449" lon="-1.56882899813354">
        <ele>8.310000000000001</ele>
        <time>2025-04-27T08:13:22Z</time>
      </trkpt>
      <trkpt lat="43.481552023440599" lon="-1.568861017003655">
        <ele>7.35</ele>
        <time>2025-04-27T08:13:24Z</time>
      </trkpt>
      <trkpt lat="43.481506006792188" lon="-1.568841990083456">
        <ele>6.39</ele>
        <time>2025-04-27T08:13:25Z</time>
      </trkpt>
      <trkpt lat="43.481454961001873" lon="-1.568821035325527">
        <ele>5.91</ele>
        <time>2025-04-27T08:13:26Z</time>
      </trkpt>
      <trkpt lat="43.481402993202209" lon="-1.568799996748567">
        <ele>5.42</ele>
        <time>2025-04-27T08:13:27Z</time>
      </trkpt>
      <trkpt lat="43.481357982382178" lon="-1.568780969828367">
        <ele>4.94</ele>
        <time>2025-04-27T08:13:28Z</time>
      </trkpt>
      <trkpt lat="43.481326969340444" lon="-1.568742999807">
        <ele>4.46</ele>
        <time>2025-04-27T08:13:29Z</time>
      </trkpt>
      <trkpt lat="43.481310037896037" lon="-1.56867703422904">
        <ele>3.98</ele>
        <time>2025-04-27T08:13:30Z</time>
      </trkpt>
      <trkpt lat="43.481291010975838" lon="-1.568604027852416">
        <ele>3.5</ele>
        <time>2025-04-27T08:13:31Z</time>
      </trkpt>
      <trkpt lat="43.481271984055638" lon="-1.568532027304173">
        <ele>3.02</ele>
        <time>2025-04-27T08:13:32Z</time>
      </trkpt>
      <trkpt lat="43.4812549687922" lon="-1.56846396625042">
        <ele>2.54</ele>
        <time>2025-04-27T08:13:33Z</time>
      </trkpt>
      <trkpt lat="43.481237031519413" lon="-1.568393977358937">
        <ele>2.06</ele>
        <time>2025-04-27T08:13:34Z</time>
      </trkpt>
      <trkpt lat="43.481220016255975" lon="-1.568328011780977">
        <ele>1.58</ele>
        <time>2025-04-27T08:13:35Z</time>
      </trkpt>
      <trkpt lat="43.481204006820917" lon="-1.568266991525888">
        <ele>1.58</ele>
        <time>2025-04-27T08:13:36Z</time>
      </trkpt>
      <trkpt lat="43.48118900321424" lon="-1.56820697709918">
        <ele>1.1</ele>
        <time>2025-04-27T08:13:37Z</time>
      </trkpt>
      <trkpt lat="43.48112597130239" lon="-1.567977983504534">
        <ele>-0.34</ele>
        <time>2025-04-27T08:13:41Z</time>
      </trkpt>
      <trkpt lat="43.481107028201222" lon="-1.567922998219729">
        <ele>-0.34</ele>
        <time>2025-04-27T08:13:42Z</time>
      </trkpt>
      <trkpt lat="43.481086995452642" lon="-1.567866001278162">
        <ele>-0.82</ele>
        <time>2025-04-27T08:13:43Z</time>
      </trkpt>
      <trkpt lat="43.481065034866333" lon="-1.567804981023073">
        <ele>-0.82</ele>
        <time>2025-04-27T08:13:44Z</time>
      </trkpt>
      <trkpt lat="43.481040978804231" lon="-1.567735997959971">
        <ele>-1.3</ele>
        <time>2025-04-27T08:13:45Z</time>
      </trkpt>
      <trkpt lat="43.480896977707744" lon="-1.567328972741962">
        <ele>-2.75</ele>
        <time>2025-04-27T08:13:51Z</time>
      </trkpt>
      <trkpt lat="43.480877028778195" lon="-1.567270969972014">
        <ele>-2.75</ele>
        <time>2025-04-27T08:13:52Z</time>
      </trkpt>
      <trkpt lat="43.480858001857996" lon="-1.567219002172351">
        <ele>-2.75</ele>
        <time>2025-04-27T08:13:53Z</time>
      </trkpt>
      <trkpt lat="43.480730010196567" lon="-1.566855981945992">
        <ele>-4.19</ele>
        <time>2025-04-27T08:14:03Z</time>
      </trkpt>
      <trkpt lat="43.480726992711425" lon="-1.566847013309598">
        <ele>-4.19</ele>
        <time>2025-04-27T08:14:04Z</time>
      </trkpt>
      <trkpt lat="43.480726992711425" lon="-1.566847013309598">
        <ele>-3.23</ele>
        <time>2025-04-27T08:14:08Z</time>
      </trkpt>
      <trkpt lat="43.480825982987881" lon="-1.567128980532289">
        <ele>-1.3</ele>
        <time>2025-04-27T08:14:22Z</time>
      </trkpt>
      <trkpt lat="43.481066962704062" lon="-1.567812021821737">
        <ele>0.62</ele>
        <time>2025-04-27T08:14:35Z</time>
      </trkpt>
      <trkpt lat="43.481249017640948" lon="-1.56844099983573">
        <ele>1.58</ele>
        <time>2025-04-27T08:14:47Z</time>
      </trkpt>
      <trkpt lat="43.481282964348793" lon="-1.568574020639062">
        <ele>2.54</ele>
        <time>2025-04-27T08:14:49Z</time>
      </trkpt>
      <trkpt lat="43.481300985440612" lon="-1.568641997873783">
        <ele>2.54</ele>
        <time>2025-04-27T08:14:50Z</time>
      </trkpt>
      <trkpt lat="43.481333004310727" lon="-1.568767977878451">
        <ele>3.02</ele>
        <time>2025-04-27T08:14:52Z</time>
      </trkpt>
      <trkpt lat="43.481378015130758" lon="-1.568789016455412">
        <ele>3.02</ele>
        <time>2025-04-27T08:14:53Z</time>
      </trkpt>
      <trkpt lat="43.481411039829254" lon="-1.568802008405328">
        <ele>3.02</ele>
        <time>2025-04-27T08:14:54Z</time>
      </trkpt>
      <trkpt lat="43.481448004022241" lon="-1.568818017840385">
        <ele>3.02</ele>
        <time>2025-04-27T08:14:55Z</time>
      </trkpt>
      <trkpt lat="43.48148999735713" lon="-1.568835033103824">
        <ele>3.02</ele>
        <time>2025-04-27T08:14:56Z</time>
      </trkpt>
      <trkpt lat="43.481527967378497" lon="-1.56885095871985">
        <ele>3.02</ele>
        <time>2025-04-27T08:14:57Z</time>
      </trkpt>
      <trkpt lat="43.48159602843225" lon="-1.568874008953571">
        <ele>3.02</ele>
        <time>2025-04-27T08:14:58Z</time>
      </trkpt>
      <trkpt lat="43.481635004281998" lon="-1.568846013396978">
        <ele>3.5</ele>
        <time>2025-04-27T08:14:59Z</time>
      </trkpt>
      <trkpt lat="43.482095003128052" lon="-1.568478969857097">
        <ele>6.87</ele>
        <time>2025-04-27T08:15:09Z</time>
      </trkpt>
      <trkpt lat="43.482130039483309" lon="-1.568449968472123">
        <ele>6.87</ele>
        <time>2025-04-27T08:15:10Z</time>
      </trkpt>
      <trkpt lat="43.482236992567778" lon="-1.568216029554606">
        <ele>7.83</ele>
        <time>2025-04-27T08:15:13Z</time>
      </trkpt>
      <trkpt lat="43.482230035588145" lon="-1.568166995421052">
        <ele>8.310000000000001</ele>
        <time>2025-04-27T08:15:14Z</time>
      </trkpt>
      <trkpt lat="43.482214026153088" lon="-1.568061970174313">
        <ele>8.310000000000001</ele>
        <time>2025-04-27T08:15:16Z</time>
      </trkpt>
      <trkpt lat="43.482208997011185" lon="-1.568006984889507">
        <ele>8.789999999999999</ele>
        <time>2025-04-27T08:15:17Z</time>
      </trkpt>
      <trkpt lat="43.482200028374791" lon="-1.567895002663136">
        <ele>8.789999999999999</ele>
        <time>2025-04-27T08:15:19Z</time>
      </trkpt>
      <trkpt lat="43.482196005061269" lon="-1.56783901154995">
        <ele>8.789999999999999</ele>
        <time>2025-04-27T08:15:20Z</time>
      </trkpt>
      <trkpt lat="43.482190975919366" lon="-1.567783020436764">
        <ele>8.789999999999999</ele>
        <time>2025-04-27T08:15:21Z</time>
      </trkpt>
      <trkpt lat="43.482172032818198" lon="-1.567554026842117">
        <ele>10.710000000000001</ele>
        <time>2025-04-27T08:15:25Z</time>
      </trkpt>
      <trkpt lat="43.482168009504676" lon="-1.567499963566661">
        <ele>11.19</ele>
        <time>2025-04-27T08:15:26Z</time>
      </trkpt>
      <trkpt lat="43.482159040868282" lon="-1.567394016310573">
        <ele>11.67</ele>
        <time>2025-04-27T08:15:28Z</time>
      </trkpt>
      <trkpt lat="43.48215501755476" lon="-1.5673459880054">
        <ele>11.67</ele>
        <time>2025-04-27T08:15:29Z</time>
      </trkpt>
      <trkpt lat="43.482152000069618" lon="-1.567301983013749">
        <ele>11.67</ele>
        <time>2025-04-27T08:15:30Z</time>
      </trkpt>
      <trkpt lat="43.482148982584476" lon="-1.567268036305904">
        <ele>12.15</ele>
        <time>2025-04-27T08:15:31Z</time>
      </trkpt>
      <trkpt lat="43.482148982584476" lon="-1.567268036305904">
        <ele>12.15</ele>
        <time>2025-04-27T08:15:32Z</time>
      </trkpt>
      <trkpt lat="43.482148982584476" lon="-1.567268036305904">
        <ele>12.630000000000001</ele>
        <time>2025-04-27T08:15:33Z</time>
      </trkpt>
      <trkpt lat="43.482163986191154" lon="-1.567221013829112">
        <ele>13.119999999999999</ele>
        <time>2025-04-27T08:15:34Z</time>
      </trkpt>
      <trkpt lat="43.482163986191154" lon="-1.567221013829112">
        <ele>13.119999999999999</ele>
        <time>2025-04-27T08:15:35Z</time>
      </trkpt>
      <trkpt lat="43.482148982584476" lon="-1.567268036305904">
        <ele>13.6</ele>
        <time>2025-04-27T08:15:44Z</time>
      </trkpt>
      <trkpt lat="43.482148982584476" lon="-1.567268036305904">
        <ele>13.6</ele>
        <time>2025-04-27T08:15:45Z</time>
      </trkpt>
      <trkpt lat="43.482087962329388" lon="-1.567020015791059">
        <ele>13.6</ele>
        <time>2025-04-27T08:15:46Z</time>
      </trkpt>
      <trkpt lat="43.482070025056601" lon="-1.567024039104581">
        <ele>13.119999999999999</ele>
        <time>2025-04-27T08:15:47Z</time>
      </trkpt>
      <trkpt lat="43.482050998136401" lon="-1.567027978599072">
        <ele>13.6</ele>
        <time>2025-04-27T08:15:48Z</time>
      </trkpt>
      <trkpt lat="43.482024008408189" lon="-1.567034013569355">
        <ele>14.08</ele>
        <time>2025-04-27T08:15:49Z</time>
      </trkpt>
      <trkpt lat="43.481984026730061" lon="-1.567041976377368">
        <ele>14.56</ele>
        <time>2025-04-27T08:15:50Z</time>
      </trkpt>
      <trkpt lat="43.481942033395171" lon="-1.567051028832793">
        <ele>14.56</ele>
        <time>2025-04-27T08:15:51Z</time>
      </trkpt>
      <trkpt lat="43.481900040060282" lon="-1.567059997469187">
        <ele>15.039999999999999</ele>
        <time>2025-04-27T08:15:52Z</time>
      </trkpt>
      <trkpt lat="43.481837008148432" lon="-1.5671940241009">
        <ele>15.52</ele>
        <time>2025-04-27T08:15:53Z</time>
      </trkpt>
      <trkpt lat="43.481842037290335" lon="-1.567251021042466">
        <ele>16</ele>
        <time>2025-04-27T08:15:54Z</time>
      </trkpt>
      <trkpt lat="43.481846982613206" lon="-1.567315980792046">
        <ele>16</ele>
        <time>2025-04-27T08:15:55Z</time>
      </trkpt>
      <trkpt lat="43.481856035068631" lon="-1.567383036017418">
        <ele>15.52</ele>
        <time>2025-04-27T08:15:56Z</time>
      </trkpt>
      <trkpt lat="43.481866009533405" lon="-1.5674530249089">
        <ele>15.52</ele>
        <time>2025-04-27T08:15:57Z</time>
      </trkpt>
      <trkpt lat="43.481874978169799" lon="-1.56751899048686">
        <ele>15.52</ele>
        <time>2025-04-27T08:15:58Z</time>
      </trkpt>
      <trkpt lat="43.481885036453605" lon="-1.567589985206723">
        <ele>15.52</ele>
        <time>2025-04-27T08:15:59Z</time>
      </trkpt>
      <trkpt lat="43.481956031173468" lon="-1.568198008462787">
        <ele>16.48</ele>
        <time>2025-04-27T08:16:07Z</time>
      </trkpt>
      <trkpt lat="43.481939015910029" lon="-1.568338992074132">
        <ele>16.48</ele>
        <time>2025-04-27T08:16:08Z</time>
      </trkpt>
      <trkpt lat="43.48189702257514" lon="-1.568386014550924">
        <ele>16.48</ele>
        <time>2025-04-27T08:16:09Z</time>
      </trkpt>
      <trkpt lat="43.481856035068631" lon="-1.568433037027717">
        <ele>16.48</ele>
        <time>2025-04-27T08:16:10Z</time>
      </trkpt>
      <trkpt lat="43.481814963743091" lon="-1.568477964028716">
        <ele>16.48</ele>
        <time>2025-04-27T08:16:11Z</time>
      </trkpt>
      <trkpt lat="43.481746986508369" lon="-1.568513000383973">
        <ele>16.48</ele>
        <time>2025-04-27T08:16:12Z</time>
      </trkpt>
      <trkpt lat="43.481699964031577" lon="-1.568513000383973">
        <ele>16.48</ele>
        <time>2025-04-27T08:16:13Z</time>
      </trkpt>
      <trkpt lat="43.481655959039927" lon="-1.568513000383973">
        <ele>16.48</ele>
        <time>2025-04-27T08:16:14Z</time>
      </trkpt>
      <trkpt lat="43.481617989018559" lon="-1.568513000383973">
        <ele>16.960000000000001</ele>
        <time>2025-04-27T08:16:15Z</time>
      </trkpt>
      <trkpt lat="43.481589993461967" lon="-1.568490033969283">
        <ele>16.48</ele>
        <time>2025-04-27T08:16:16Z</time>
      </trkpt>
      <trkpt lat="43.48155596293509" lon="-1.568456003442407">
        <ele>16.960000000000001</ele>
        <time>2025-04-27T08:16:17Z</time>
      </trkpt>
      <trkpt lat="43.481525033712387" lon="-1.568417027592659">
        <ele>16.960000000000001</ele>
        <time>2025-04-27T08:16:18Z</time>
      </trkpt>
      <trkpt lat="43.48151003010571" lon="-1.568348966538906">
        <ele>16.960000000000001</ele>
        <time>2025-04-27T08:16:19Z</time>
      </trkpt>
      <trkpt lat="43.481328980997205" lon="-1.567444978281856">
        <ele>14.08</ele>
        <time>2025-04-27T08:16:29Z</time>
      </trkpt>
      <trkpt lat="43.481023041531444" lon="-1.566463960334659">
        <ele>14.56</ele>
        <time>2025-04-27T08:16:39Z</time>
      </trkpt>
      <trkpt lat="43.480768986046314" lon="-1.565804975107312">
        <ele>17.440000000000001</ele>
        <time>2025-04-27T08:16:48Z</time>
      </trkpt>
      <trkpt lat="43.480676030740142" lon="-1.565643958747387">
        <ele>17.920000000000002</ele>
        <time>2025-04-27T08:16:49Z</time>
      </trkpt>
      <trkpt lat="43.48060998134315" lon="-1.565615963190794">
        <ele>18.879999999999999</ele>
        <time>2025-04-27T08:16:50Z</time>
      </trkpt>
      <trkpt lat="43.480540998280048" lon="-1.565586039796472">
        <ele>19.359999999999999</ele>
        <time>2025-04-27T08:16:51Z</time>
      </trkpt>
      <trkpt lat="43.480019979178905" lon="-1.565383030101657">
        <ele>24.649999999999999</ele>
        <time>2025-04-27T08:16:58Z</time>
      </trkpt>
      <trkpt lat="43.479230990633368" lon="-1.565421000123024">
        <ele>30.420000000000002</ele>
        <time>2025-04-27T08:17:09Z</time>
      </trkpt>
      <trkpt lat="43.479171982035041" lon="-1.565414965152741">
        <ele>30.420000000000002</ele>
        <time>2025-04-27T08:17:10Z</time>
      </trkpt>
      <trkpt lat="43.479113979265094" lon="-1.565409014001489">
        <ele>30.899999999999999</ele>
        <time>2025-04-27T08:17:11Z</time>
      </trkpt>
      <trkpt lat="43.479033010080457" lon="-1.565395016223192">
        <ele>31.859999999999999</ele>
        <time>2025-04-27T08:17:12Z</time>
      </trkpt>
      <trkpt lat="43.478996967896819" lon="-1.565346987918019">
        <ele>31.859999999999999</ele>
        <time>2025-04-27T08:17:13Z</time>
      </trkpt>
      <trkpt lat="43.478965032845736" lon="-1.56530499458313">
        <ele>32.340000000000003</ele>
        <time>2025-04-27T08:17:14Z</time>
      </trkpt>
      <trkpt lat="43.47890904173255" lon="-1.565229976549745">
        <ele>31.859999999999999</ele>
        <time>2025-04-27T08:17:15Z</time>
      </trkpt>
      <trkpt lat="43.478895965963602" lon="-1.565188989043236">
        <ele>32.340000000000003</ele>
        <time>2025-04-27T08:17:16Z</time>
      </trkpt>
      <trkpt lat="43.478824971243739" lon="-1.56496100127697">
        <ele>32.340000000000003</ele>
        <time>2025-04-27T08:17:21Z</time>
      </trkpt>
      <trkpt lat="43.478759005665779" lon="-1.564908027648926">
        <ele>32.340000000000003</ele>
        <time>2025-04-27T08:17:22Z</time>
      </trkpt>
      <trkpt lat="43.478730004280806" lon="-1.564913978800178">
        <ele>32.340000000000003</ele>
        <time>2025-04-27T08:17:23Z</time>
      </trkpt>
      <trkpt lat="43.478651968762279" lon="-1.564929988235235">
        <ele>32.340000000000003</ele>
        <time>2025-04-27T08:17:24Z</time>
      </trkpt>
      <trkpt lat="43.478587009012699" lon="-1.564833009615541">
        <ele>32.340000000000003</ele>
        <time>2025-04-27T08:17:25Z</time>
      </trkpt>
      <trkpt lat="43.478587009012699" lon="-1.564772995188832">
        <ele>32.340000000000003</ele>
        <time>2025-04-27T08:17:26Z</time>
      </trkpt>
      <trkpt lat="43.478587009012699" lon="-1.564714992418885">
        <ele>32.340000000000003</ele>
        <time>2025-04-27T08:17:27Z</time>
      </trkpt>
      <trkpt lat="43.478634031489491" lon="-1.564631005749106">
        <ele>32.340000000000003</ele>
        <time>2025-04-27T08:17:28Z</time>
      </trkpt>
      <trkpt lat="43.478650962933898" lon="-1.564608961343765">
        <ele>32.340000000000003</ele>
        <time>2025-04-27T08:17:29Z</time>
      </trkpt>
      <trkpt lat="43.478655992075801" lon="-1.564555987715721">
        <ele>32.82</ele>
        <time>2025-04-27T08:17:31Z</time>
      </trkpt>
      <trkpt lat="43.478661021217704" lon="-1.564492033794522">
        <ele>32.82</ele>
        <time>2025-04-27T08:17:32Z</time>
      </trkpt>
      <trkpt lat="43.478666972368956" lon="-1.564417015761137">
        <ele>32.82</ele>
        <time>2025-04-27T08:17:33Z</time>
      </trkpt>
      <trkpt lat="43.478673007339239" lon="-1.564349960535765">
        <ele>32.82</ele>
        <time>2025-04-27T08:17:34Z</time>
      </trkpt>
      <trkpt lat="43.478665966540575" lon="-1.564268991351128">
        <ele>32.82</ele>
        <time>2025-04-27T08:17:35Z</time>
      </trkpt>
      <trkpt lat="43.478659009560943" lon="-1.564185004681349">
        <ele>33.299999999999997</ele>
        <time>2025-04-27T08:17:36Z</time>
      </trkpt>
      <trkpt lat="43.478650962933898" lon="-1.564098000526428">
        <ele>33.299999999999997</ele>
        <time>2025-04-27T08:17:37Z</time>
      </trkpt>
      <trkpt lat="43.478644005954266" lon="-1.564010996371508">
        <ele>33.299999999999997</ele>
        <time>2025-04-27T08:17:38Z</time>
      </trkpt>
      <trkpt lat="43.478635037317872" lon="-1.563918041065335">
        <ele>33.299999999999997</ele>
        <time>2025-04-27T08:17:39Z</time>
      </trkpt>
      <trkpt lat="43.478625984862447" lon="-1.563814021646977">
        <ele>33.780000000000001</ele>
        <time>2025-04-27T08:17:40Z</time>
      </trkpt>
      <trkpt lat="43.478617016226053" lon="-1.563700027763844">
        <ele>33.780000000000001</ele>
        <time>2025-04-27T08:17:41Z</time>
      </trkpt>
      <trkpt lat="43.478607041761279" lon="-1.563596008345485">
        <ele>32.82</ele>
        <time>2025-04-27T08:17:42Z</time>
      </trkpt>
      <trkpt lat="43.478598995134234" lon="-1.5635019633919">
        <ele>31.379999999999999</ele>
        <time>2025-04-27T08:17:43Z</time>
      </trkpt>
      <trkpt lat="43.478591032326221" lon="-1.563400961458683">
        <ele>29.940000000000001</ele>
        <time>2025-04-27T08:17:44Z</time>
      </trkpt>
      <trkpt lat="43.478580974042416" lon="-1.563296020030975">
        <ele>28.98</ele>
        <time>2025-04-27T08:17:45Z</time>
      </trkpt>
      <trkpt lat="43.478573011234403" lon="-1.563195018097758">
        <ele>28.5</ele>
        <time>2025-04-27T08:17:46Z</time>
      </trkpt>
      <trkpt lat="43.478506961837411" lon="-1.562470989301801">
        <ele>24.170000000000002</ele>
        <time>2025-04-27T08:17:56Z</time>
      </trkpt>
      <trkpt lat="43.478498999029398" lon="-1.562390020117164">
        <ele>23.210000000000001</ele>
        <time>2025-04-27T08:17:58Z</time>
      </trkpt>
      <trkpt lat="43.478494975715876" lon="-1.562347020953894">
        <ele>22.73</ele>
        <time>2025-04-27T08:17:59Z</time>
      </trkpt>
      <trkpt lat="43.478491036221385" lon="-1.562295975163579">
        <ele>22.25</ele>
        <time>2025-04-27T08:18:00Z</time>
      </trkpt>
      <trkpt lat="43.478476032614708" lon="-1.562160020694137">
        <ele>21.289999999999999</ele>
        <time>2025-04-27T08:18:02Z</time>
      </trkpt>
      <trkpt lat="43.478450970724225" lon="-1.56201601959765">
        <ele>20.32</ele>
        <time>2025-04-27T08:18:04Z</time>
      </trkpt>
      <trkpt lat="43.47843898460269" lon="-1.561944019049406">
        <ele>19.84</ele>
        <time>2025-04-27T08:18:05Z</time>
      </trkpt>
      <trkpt lat="43.478428004309535" lon="-1.561878975480795">
        <ele>19.359999999999999</ele>
        <time>2025-04-27T08:18:06Z</time>
      </trkpt>
      <trkpt lat="43.478418029844761" lon="-1.561820972710848">
        <ele>18.879999999999999</ele>
        <time>2025-04-27T08:18:07Z</time>
      </trkpt>
      <trkpt lat="43.478408977389336" lon="-1.561766993254423">
        <ele>18.879999999999999</ele>
        <time>2025-04-27T08:18:08Z</time>
      </trkpt>
      <trkpt lat="43.478376036509871" lon="-1.561578987166286">
        <ele>17.440000000000001</ele>
        <time>2025-04-27T08:18:13Z</time>
      </trkpt>
      <trkpt lat="43.478370001539588" lon="-1.56154302880168">
        <ele>17.440000000000001</ele>
        <time>2025-04-27T08:18:14Z</time>
      </trkpt>
      <trkpt lat="43.478363966569304" lon="-1.561507992446423">
        <ele>16.960000000000001</ele>
        <time>2025-04-27T08:18:15Z</time>
      </trkpt>
      <trkpt lat="43.478354997932911" lon="-1.56145703047514">
        <ele>16.960000000000001</ele>
        <time>2025-04-27T08:18:16Z</time>
      </trkpt>
      <trkpt lat="43.478342005982995" lon="-1.561390981078148">
        <ele>16.960000000000001</ele>
        <time>2025-04-27T08:18:17Z</time>
      </trkpt>
      <trkpt lat="43.478329014033079" lon="-1.56133096665144">
        <ele>16.48</ele>
        <time>2025-04-27T08:18:18Z</time>
      </trkpt>
      <trkpt lat="43.478307975456119" lon="-1.561239017173648">
        <ele>16</ele>
        <time>2025-04-27T08:18:19Z</time>
      </trkpt>
      <trkpt lat="43.478307975456119" lon="-1.561139021068811">
        <ele>15.039999999999999</ele>
        <time>2025-04-27T08:18:21Z</time>
      </trkpt>
      <trkpt lat="43.478307975456119" lon="-1.560961995273829">
        <ele>14.08</ele>
        <time>2025-04-27T08:18:23Z</time>
      </trkpt>
      <trkpt lat="43.478252990171313" lon="-1.559823984280229">
        <ele>11.67</ele>
        <time>2025-04-27T08:18:36Z</time>
      </trkpt>
      <trkpt lat="43.478239998221397" lon="-1.55976003035903">
        <ele>11.67</ele>
        <time>2025-04-27T08:18:37Z</time>
      </trkpt>
      <trkpt lat="43.478188030421734" lon="-1.559517038986087">
        <ele>11.19</ele>
        <time>2025-04-27T08:18:41Z</time>
      </trkpt>
      <trkpt lat="43.478172020986676" lon="-1.559457024559379">
        <ele>10.710000000000001</ele>
        <time>2025-04-27T08:18:42Z</time>
      </trkpt>
      <trkpt lat="43.478153999894857" lon="-1.559390975162387">
        <ele>10.710000000000001</ele>
        <time>2025-04-27T08:18:43Z</time>
      </trkpt>
      <trkpt lat="43.478134972974658" lon="-1.559321992099285">
        <ele>10.710000000000001</ele>
        <time>2025-04-27T08:18:44Z</time>
      </trkpt>
      <trkpt lat="43.478123992681503" lon="-1.559255020692945">
        <ele>10.23</ele>
        <time>2025-04-27T08:18:45Z</time>
      </trkpt>
      <trkpt lat="43.478112006559968" lon="-1.559187965467572">
        <ele>10.23</ele>
        <time>2025-04-27T08:18:46Z</time>
      </trkpt>
      <trkpt lat="43.478061966598034" lon="-1.558977998793125">
        <ele>9.75</ele>
        <time>2025-04-27T08:18:49Z</time>
      </trkpt>
      <trkpt lat="43.477972028777003" lon="-1.558606009930372">
        <ele>7.83</ele>
        <time>2025-04-27T08:18:57Z</time>
      </trkpt>
      <trkpt lat="43.477939004078507" lon="-1.558439964428544">
        <ele>6.87</ele>
        <time>2025-04-27T08:19:00Z</time>
      </trkpt>
      <trkpt lat="43.477927017956972" lon="-1.558378022164106">
        <ele>6.39</ele>
        <time>2025-04-27T08:19:01Z</time>
      </trkpt>
      <trkpt lat="43.47790002822876" lon="-1.55823796056211">
        <ele>6.87</ele>
        <time>2025-04-27T08:19:03Z</time>
      </trkpt>
      <trkpt lat="43.477887958288193" lon="-1.558175012469292">
        <ele>6.87</ele>
        <time>2025-04-27T08:19:04Z</time>
      </trkpt>
      <trkpt lat="43.477877983823419" lon="-1.558119021356106">
        <ele>6.87</ele>
        <time>2025-04-27T08:19:05Z</time>
      </trkpt>
      <trkpt lat="43.477869015187025" lon="-1.558074010536075">
        <ele>6.87</ele>
        <time>2025-04-27T08:19:06Z</time>
      </trkpt>
      <trkpt lat="43.477861974388361" lon="-1.558037968352437">
        <ele>6.87</ele>
        <time>2025-04-27T08:19:07Z</time>
      </trkpt>
      <trkpt lat="43.477854011580348" lon="-1.557994969189167">
        <ele>6.87</ele>
        <time>2025-04-27T08:19:08Z</time>
      </trkpt>
      <trkpt lat="43.477812018245459" lon="-1.557774022221565">
        <ele>6.87</ele>
        <time>2025-04-27T08:19:13Z</time>
      </trkpt>
      <trkpt lat="43.477812018245459" lon="-1.557774022221565">
        <ele>8.789999999999999</ele>
        <time>2025-04-27T08:19:25Z</time>
      </trkpt>
      <trkpt lat="43.477801959961653" lon="-1.55772197060287">
        <ele>8.789999999999999</ele>
        <time>2025-04-27T08:19:37Z</time>
      </trkpt>
      <trkpt lat="43.477787040174007" lon="-1.557619962841272">
        <ele>11.19</ele>
        <time>2025-04-27T08:19:38Z</time>
      </trkpt>
      <trkpt lat="43.47770900465548" lon="-1.557199023663998">
        <ele>20.809999999999999</ele>
        <time>2025-04-27T08:19:43Z</time>
      </trkpt>
      <trkpt lat="43.477681009098887" lon="-1.55711998231709">
        <ele>23.210000000000001</ele>
        <time>2025-04-27T08:19:44Z</time>
      </trkpt>
      <trkpt lat="43.477634992450476" lon="-1.557046975940466">
        <ele>25.609999999999999</ele>
        <time>2025-04-27T08:19:45Z</time>
      </trkpt>
      <trkpt lat="43.47762200050056" lon="-1.55703297816217">
        <ele>28.02</ele>
        <time>2025-04-27T08:19:46Z</time>
      </trkpt>
      <trkpt lat="43.477529967203736" lon="-1.556885959580541">
        <ele>29.460000000000001</ele>
        <time>2025-04-27T08:19:47Z</time>
      </trkpt>
      <trkpt lat="43.47745000384748" lon="-1.556840026751161">
        <ele>30.899999999999999</ele>
        <time>2025-04-27T08:19:48Z</time>
      </trkpt>
      <trkpt lat="43.477168036624789" lon="-1.556571973487735">
        <ele>36.670000000000002</ele>
        <time>2025-04-27T08:19:53Z</time>
      </trkpt>
      <trkpt lat="43.477014983072877" lon="-1.556521011516452">
        <ele>38.590000000000003</ele>
        <time>2025-04-27T08:19:55Z</time>
      </trkpt>
      <trkpt lat="43.476948011666536" lon="-1.556510031223297">
        <ele>40.030000000000001</ele>
        <time>2025-04-27T08:19:56Z</time>
      </trkpt>
      <trkpt lat="43.476810967549682" lon="-1.556510031223297">
        <ele>41.950000000000003</ele>
        <time>2025-04-27T08:19:58Z</time>
      </trkpt>
      <trkpt lat="43.47674299031496" lon="-1.556525034829974">
        <ele>42.920000000000002</ele>
        <time>2025-04-27T08:19:59Z</time>
      </trkpt>
      <trkpt lat="43.476677024737" lon="-1.556540038436651">
        <ele>43.880000000000003</ele>
        <time>2025-04-27T08:20:00Z</time>
      </trkpt>
      <trkpt lat="43.476610975340009" lon="-1.556600974872708">
        <ele>44.359999999999999</ele>
        <time>2025-04-27T08:20:01Z</time>
      </trkpt>
      <trkpt lat="43.476551966741681" lon="-1.556655038148165">
        <ele>44.840000000000003</ele>
        <time>2025-04-27T08:20:02Z</time>
      </trkpt>
      <trkpt lat="43.476494969800115" lon="-1.556708011776209">
        <ele>45.799999999999997</ele>
        <time>2025-04-27T08:20:03Z</time>
      </trkpt>
      <trkpt lat="43.476437972858548" lon="-1.556760985404253">
        <ele>46.759999999999998</ele>
        <time>2025-04-27T08:20:04Z</time>
      </trkpt>
      <trkpt lat="43.476383993402123" lon="-1.556815970689058">
        <ele>47.240000000000002</ele>
        <time>2025-04-27T08:20:05Z</time>
      </trkpt>
      <trkpt lat="43.476335965096951" lon="-1.556880008429289">
        <ele>47.719999999999999</ele>
        <time>2025-04-27T08:20:06Z</time>
      </trkpt>
      <trkpt lat="43.475958025082946" lon="-1.557297008112073">
        <ele>53.490000000000002</ele>
        <time>2025-04-27T08:20:13Z</time>
      </trkpt>
      <trkpt lat="43.475890969857574" lon="-1.557336989790201">
        <ele>54.450000000000003</ele>
        <time>2025-04-27T08:20:14Z</time>
      </trkpt>
      <trkpt lat="43.475826010107994" lon="-1.557374959811568">
        <ele>54.93</ele>
        <time>2025-04-27T08:20:15Z</time>
      </trkpt>
      <trkpt lat="43.475398030132055" lon="-1.557629015296698">
        <ele>58.299999999999997</ele>
        <time>2025-04-27T08:20:22Z</time>
      </trkpt>
      <trkpt lat="43.475300967693329" lon="-1.557748960331082">
        <ele>59.259999999999998</ele>
        <time>2025-04-27T08:20:24Z</time>
      </trkpt>
      <trkpt lat="43.475197032094002" lon="-1.557676959782839">
        <ele>59.740000000000002</ele>
        <time>2025-04-27T08:20:25Z</time>
      </trkpt>
      <trkpt lat="43.475164007395506" lon="-1.557676959782839">
        <ele>60.219999999999999</ele>
        <time>2025-04-27T08:20:26Z</time>
      </trkpt>
      <trkpt lat="43.475100975483656" lon="-1.557673020288348">
        <ele>60.700000000000003</ele>
        <time>2025-04-27T08:20:27Z</time>
      </trkpt>
      <trkpt lat="43.475037021562457" lon="-1.557664973661304">
        <ele>61.18</ele>
        <time>2025-04-27T08:20:28Z</time>
      </trkpt>
      <trkpt lat="43.474971977993846" lon="-1.557657010853291">
        <ele>61.659999999999997</ele>
        <time>2025-04-27T08:20:29Z</time>
      </trkpt>
      <trkpt lat="43.474926967173815" lon="-1.557624991983175">
        <ele>62.140000000000001</ele>
        <time>2025-04-27T08:20:30Z</time>
      </trkpt>
      <trkpt lat="43.474871981889009" lon="-1.557576041668654">
        <ele>62.619999999999997</ele>
        <time>2025-04-27T08:20:31Z</time>
      </trkpt>
      <trkpt lat="43.474818002432585" lon="-1.5575270075351">
        <ele>63.100000000000001</ele>
        <time>2025-04-27T08:20:32Z</time>
      </trkpt>
      <trkpt lat="43.47476402297616" lon="-1.557477973401547">
        <ele>63.100000000000001</ele>
        <time>2025-04-27T08:20:33Z</time>
      </trkpt>
      <trkpt lat="43.474720017984509" lon="-1.557428017258644">
        <ele>63.579999999999998</ele>
        <time>2025-04-27T08:20:34Z</time>
      </trkpt>
      <trkpt lat="43.474602000787854" lon="-1.557310000061989">
        <ele>64.069999999999993</ele>
        <time>2025-04-27T08:20:36Z</time>
      </trkpt>
      <trkpt lat="43.474533017724752" lon="-1.557262977585197">
        <ele>64.069999999999993</ele>
        <time>2025-04-27T08:20:37Z</time>
      </trkpt>
      <trkpt lat="43.474455988034606" lon="-1.557237999513745">
        <ele>64.069999999999993</ele>
        <time>2025-04-27T08:20:38Z</time>
      </trkpt>
      <trkpt lat="43.474369989708066" lon="-1.557211009785533">
        <ele>64.069999999999993</ele>
        <time>2025-04-27T08:20:39Z</time>
      </trkpt>
      <trkpt lat="43.474281979724765" lon="-1.55718301422894">
        <ele>64.069999999999993</ele>
        <time>2025-04-27T08:20:40Z</time>
      </trkpt>
      <trkpt lat="43.474198998883367" lon="-1.557156024500728">
        <ele>64.069999999999993</ele>
        <time>2025-04-27T08:20:41Z</time>
      </trkpt>
      <trkpt lat="43.474114006385207" lon="-1.557129034772515">
        <ele>64.549999999999997</ele>
        <time>2025-04-27T08:20:42Z</time>
      </trkpt>
      <trkpt lat="43.474049968644977" lon="-1.557087963446975">
        <ele>64.549999999999997</ele>
        <time>2025-04-27T08:20:43Z</time>
      </trkpt>
      <trkpt lat="43.473976962268353" lon="-1.557015040889382">
        <ele>64.069999999999993</ele>
        <time>2025-04-27T08:20:44Z</time>
      </trkpt>
      <trkpt lat="43.473904961720109" lon="-1.556943040341139">
        <ele>64.069999999999993</ele>
        <time>2025-04-27T08:20:45Z</time>
      </trkpt>
      <trkpt lat="43.473858023062348" lon="-1.556857964023948">
        <ele>63.579999999999998</ele>
        <time>2025-04-27T08:20:46Z</time>
      </trkpt>
      <trkpt lat="43.473811000585556" lon="-1.556755034253001">
        <ele>63.579999999999998</ele>
        <time>2025-04-27T08:20:47Z</time>
      </trkpt>
      <trkpt lat="43.473765989765525" lon="-1.556655038148165">
        <ele>63.579999999999998</ele>
        <time>2025-04-27T08:20:48Z</time>
      </trkpt>
      <trkpt lat="43.473715027794242" lon="-1.556542972102761">
        <ele>63.579999999999998</ele>
        <time>2025-04-27T08:20:49Z</time>
      </trkpt>
      <trkpt lat="43.473665993660688" lon="-1.556434007361531">
        <ele>63.579999999999998</ele>
        <time>2025-04-27T08:20:50Z</time>
      </trkpt>
      <trkpt lat="43.473618971183896" lon="-1.556330993771553">
        <ele>64.069999999999993</ele>
        <time>2025-04-27T08:20:51Z</time>
      </trkpt>
      <trkpt lat="43.473517969250679" lon="-1.556144999340177">
        <ele>64.549999999999997</ele>
        <time>2025-04-27T08:20:53Z</time>
      </trkpt>
      <trkpt lat="43.473467007279396" lon="-1.556060006842017">
        <ele>64.549999999999997</ele>
        <time>2025-04-27T08:20:54Z</time>
      </trkpt>
      <trkpt lat="43.473406992852688" lon="-1.556010972708464">
        <ele>64.069999999999993</ele>
        <time>2025-04-27T08:20:55Z</time>
      </trkpt>
      <trkpt lat="43.473406992852688" lon="-1.556010972708464">
        <ele>64.069999999999993</ele>
        <time>2025-04-27T08:21:01Z</time>
      </trkpt>
      <trkpt lat="43.47334798425436" lon="-1.555973002687097">
        <ele>64.069999999999993</ele>
        <time>2025-04-27T08:21:47Z</time>
      </trkpt>
      <trkpt lat="43.473233990371227" lon="-1.555913994088769">
        <ele>64.069999999999993</ele>
        <time>2025-04-27T08:21:49Z</time>
      </trkpt>
      <trkpt lat="43.473167018964887" lon="-1.555905025452375">
        <ele>63.579999999999998</ele>
        <time>2025-04-27T08:21:50Z</time>
      </trkpt>
      <trkpt lat="43.473098035901785" lon="-1.55589597299695">
        <ele>63.579999999999998</ele>
        <time>2025-04-27T08:21:51Z</time>
      </trkpt>
      <trkpt lat="43.472667960450053" lon="-1.555833024904132">
        <ele>63.579999999999998</ele>
        <time>2025-04-27T08:21:57Z</time>
      </trkpt>
      <trkpt lat="43.47250996157527" lon="-1.555793965235353">
        <ele>64.069999999999993</ele>
        <time>2025-04-27T08:21:59Z</time>
      </trkpt>
      <trkpt lat="43.471660036593676" lon="-1.555420970544219">
        <ele>65.510000000000005</ele>
        <time>2025-04-27T08:22:09Z</time>
      </trkpt>
      <trkpt lat="43.470368972048163" lon="-1.555231036618352">
        <ele>67.430000000000007</ele>
        <time>2025-04-27T08:22:21Z</time>
      </trkpt>
      <trkpt lat="43.469575960189104" lon="-1.555128023028374">
        <ele>68.390000000000001</ele>
        <time>2025-04-27T08:22:30Z</time>
      </trkpt>
      <trkpt lat="43.469324000179768" lon="-1.555105978623033">
        <ele>68.390000000000001</ele>
        <time>2025-04-27T08:22:34Z</time>
      </trkpt>
      <trkpt lat="43.469265997409821" lon="-1.555119976401329">
        <ele>68.390000000000001</ele>
        <time>2025-04-27T08:22:35Z</time>
      </trkpt>
      <trkpt lat="43.469212017953396" lon="-1.555133974179626">
        <ele>68.870000000000005</ele>
        <time>2025-04-27T08:22:36Z</time>
      </trkpt>
      <trkpt lat="43.469145968556404" lon="-1.555274035781622">
        <ele>68.870000000000005</ele>
        <time>2025-04-27T08:22:37Z</time>
      </trkpt>
      <trkpt lat="43.469129959121346" lon="-1.555281998589635">
        <ele>69.349999999999994</ele>
        <time>2025-04-27T08:22:38Z</time>
      </trkpt>
      <trkpt lat="43.469078997150064" lon="-1.555306976661086">
        <ele>69.829999999999998</ele>
        <time>2025-04-27T08:22:39Z</time>
      </trkpt>
      <trkpt lat="43.469022000208497" lon="-1.555278981104493">
        <ele>69.829999999999998</ele>
        <time>2025-04-27T08:22:40Z</time>
      </trkpt>
      <trkpt lat="43.46898403018713" lon="-1.555241011083126">
        <ele>70.310000000000002</ele>
        <time>2025-04-27T08:22:41Z</time>
      </trkpt>
      <trkpt lat="43.468980006873608" lon="-1.555187031626701">
        <ele>70.790000000000006</ele>
        <time>2025-04-27T08:22:42Z</time>
      </trkpt>
      <trkpt lat="43.468974977731705" lon="-1.555038001388311">
        <ele>70.790000000000006</ele>
        <time>2025-04-27T08:22:43Z</time>
      </trkpt>
      <trkpt lat="43.468930972740054" lon="-1.554995002225041">
        <ele>71.269999999999996</ele>
        <time>2025-04-27T08:22:44Z</time>
      </trkpt>
      <trkpt lat="43.46885796636343" lon="-1.554961977526546">
        <ele>71.269999999999996</ele>
        <time>2025-04-27T08:22:45Z</time>
      </trkpt>
      <trkpt lat="43.468798035755754" lon="-1.554933981969953">
        <ele>71.760000000000005</ele>
        <time>2025-04-27T08:22:46Z</time>
      </trkpt>
      <trkpt lat="43.468732992187142" lon="-1.554904980584979">
        <ele>72.239999999999995</ele>
        <time>2025-04-27T08:22:47Z</time>
      </trkpt>
      <trkpt lat="43.468667026609182" lon="-1.554874973371625">
        <ele>72.719999999999999</ele>
        <time>2025-04-27T08:22:48Z</time>
      </trkpt>
      <trkpt lat="43.467823974788189" lon="-1.554522011429071">
        <ele>70.790000000000006</ele>
        <time>2025-04-27T08:22:59Z</time>
      </trkpt>
      <trkpt lat="43.466992992907763" lon="-1.554173994809389">
        <ele>68.870000000000005</ele>
        <time>2025-04-27T08:23:07Z</time>
      </trkpt>
      <trkpt lat="43.466069977730513" lon="-1.553662028163672">
        <ele>68.390000000000001</ele>
        <time>2025-04-27T08:23:19Z</time>
      </trkpt>
      <trkpt lat="43.46516196615994" lon="-1.552988039329648">
        <ele>66.950000000000003</ele>
        <time>2025-04-27T08:23:30Z</time>
      </trkpt>
      <trkpt lat="43.464009035378695" lon="-1.552170971408486">
        <ele>64.069999999999993</ele>
        <time>2025-04-27T08:23:43Z</time>
      </trkpt>
      <trkpt lat="43.463554987683892" lon="-1.551909958943725">
        <ele>64.069999999999993</ele>
        <time>2025-04-27T08:23:48Z</time>
      </trkpt>
      <trkpt lat="43.463478963822126" lon="-1.551866959780455">
        <ele>64.069999999999993</ele>
        <time>2025-04-27T08:23:49Z</time>
      </trkpt>
      <trkpt lat="43.462915029376745" lon="-1.551530007272959">
        <ele>62.619999999999997</ele>
        <time>2025-04-27T08:23:56Z</time>
      </trkpt>
      <trkpt lat="43.462832970544696" lon="-1.551476027816534">
        <ele>63.100000000000001</ele>
        <time>2025-04-27T08:23:57Z</time>
      </trkpt>
      <trkpt lat="43.462211033329368" lon="-1.551052993163467">
        <ele>61.659999999999997</ele>
        <time>2025-04-27T08:24:05Z</time>
      </trkpt>
      <trkpt lat="43.462108019739389" lon="-1.550951991230249">
        <ele>60.700000000000003</ele>
        <time>2025-04-27T08:24:07Z</time>
      </trkpt>
      <trkpt lat="43.462062003090978" lon="-1.550899017602205">
        <ele>60.219999999999999</ele>
        <time>2025-04-27T08:24:08Z</time>
      </trkpt>
      <trkpt lat="43.461893023923039" lon="-1.550612021237612">
        <ele>58.299999999999997</ele>
        <time>2025-04-27T08:24:12Z</time>
      </trkpt>
      <trkpt lat="43.46185396425426" lon="-1.550538009032607">
        <ele>57.82</ele>
        <time>2025-04-27T08:24:13Z</time>
      </trkpt>
      <trkpt lat="43.461813982576132" lon="-1.550466008484364">
        <ele>56.859999999999999</ele>
        <time>2025-04-27T08:24:14Z</time>
      </trkpt>
      <trkpt lat="43.461276032030582" lon="-1.54949001967907">
        <ele>52.049999999999997</ele>
        <time>2025-04-27T08:24:27Z</time>
      </trkpt>
      <trkpt lat="43.460760964080691" lon="-1.548510007560253">
        <ele>48.68</ele>
        <time>2025-04-27T08:24:40Z</time>
      </trkpt>
      <trkpt lat="43.460645964369178" lon="-1.54828897677362">
        <ele>45.799999999999997</ele>
        <time>2025-04-27T08:24:48Z</time>
      </trkpt>
      <trkpt lat="43.46060698851943" lon="-1.548214964568615">
        <ele>44.359999999999999</ele>
        <time>2025-04-27T08:25:01Z</time>
      </trkpt>
      <trkpt lat="43.46047698520124" lon="-1.547978008165956">
        <ele>41.950000000000003</ele>
        <time>2025-04-27T08:25:07Z</time>
      </trkpt>
      <trkpt lat="43.460443038493395" lon="-1.547943977639079">
        <ele>41.469999999999999</ele>
        <time>2025-04-27T08:25:08Z</time>
      </trkpt>
      <trkpt lat="43.46041202545166" lon="-1.547912964597344">
        <ele>41.469999999999999</ele>
        <time>2025-04-27T08:25:09Z</time>
      </trkpt>
      <trkpt lat="43.460384029895067" lon="-1.547884969040752">
        <ele>40.990000000000002</ele>
        <time>2025-04-27T08:25:10Z</time>
      </trkpt>
      <trkpt lat="43.460284033790231" lon="-1.547935009002686">
        <ele>40.509999999999998</ele>
        <time>2025-04-27T08:25:11Z</time>
      </trkpt>
      <trkpt lat="43.460284033790231" lon="-1.547935009002686">
        <ele>40.030000000000001</ele>
        <time>2025-04-27T08:25:12Z</time>
      </trkpt>
      <trkpt lat="43.460247991606593" lon="-1.547943977639079">
        <ele>39.549999999999997</ele>
        <time>2025-04-27T08:25:13Z</time>
      </trkpt>
      <trkpt lat="43.460198035463691" lon="-1.547955963760614">
        <ele>39.549999999999997</ele>
        <time>2025-04-27T08:25:14Z</time>
      </trkpt>
      <trkpt lat="43.46015696413815" lon="-1.54794598929584">
        <ele>39.07</ele>
        <time>2025-04-27T08:25:15Z</time>
      </trkpt>
      <trkpt lat="43.460099967196584" lon="-1.547891004011035">
        <ele>38.590000000000003</ele>
        <time>2025-04-27T08:25:16Z</time>
      </trkpt>
      <trkpt lat="43.460084963589907" lon="-1.547835012897849">
        <ele>38.109999999999999</ele>
        <time>2025-04-27T08:25:17Z</time>
      </trkpt>
      <trkpt lat="43.460071971639991" lon="-1.547788996249437">
        <ele>37.149999999999999</ele>
        <time>2025-04-27T08:25:18Z</time>
      </trkpt>
      <trkpt lat="43.46000399440527" lon="-1.547696962952614">
        <ele>36.670000000000002</ele>
        <time>2025-04-27T08:25:19Z</time>
      </trkpt>
      <trkpt lat="43.459950014948845" lon="-1.547694029286504">
        <ele>35.710000000000001</ele>
        <time>2025-04-27T08:25:20Z</time>
      </trkpt>
      <trkpt lat="43.45918801613152" lon="-1.547541981562972">
        <ele>34.740000000000002</ele>
        <time>2025-04-27T08:25:30Z</time>
      </trkpt>
      <trkpt lat="43.458683006465435" lon="-1.547397980466485">
        <ele>38.109999999999999</ele>
        <time>2025-04-27T08:25:37Z</time>
      </trkpt>
      <trkpt lat="43.458575969561934" lon="-1.547398986294866">
        <ele>39.07</ele>
        <time>2025-04-27T08:25:38Z</time>
      </trkpt>
      <trkpt lat="43.458539005368948" lon="-1.547464029863477">
        <ele>39.549999999999997</ele>
        <time>2025-04-27T08:25:39Z</time>
      </trkpt>
      <trkpt lat="43.45850296318531" lon="-1.547526977956295">
        <ele>40.509999999999998</ele>
        <time>2025-04-27T08:25:40Z</time>
      </trkpt>
      <trkpt lat="43.45850296318531" lon="-1.547526977956295">
        <ele>40.509999999999998</ele>
        <time>2025-04-27T08:25:41Z</time>
      </trkpt>
      <trkpt lat="43.458396010100842" lon="-1.547710038721561">
        <ele>40.990000000000002</ele>
        <time>2025-04-27T08:25:42Z</time>
      </trkpt>
      <trkpt lat="43.458396010100842" lon="-1.547827972099185">
        <ele>40.509999999999998</ele>
        <time>2025-04-27T08:25:43Z</time>
      </trkpt>
      <trkpt lat="43.458396010100842" lon="-1.547979013994336">
        <ele>41.469999999999999</ele>
        <time>2025-04-27T08:25:44Z</time>
      </trkpt>
      <trkpt lat="43.458429034799337" lon="-1.548113040626049">
        <ele>42.439999999999998</ele>
        <time>2025-04-27T08:25:45Z</time>
      </trkpt>
      <trkpt lat="43.458481002599001" lon="-1.548400958999991">
        <ele>42.920000000000002</ele>
        <time>2025-04-27T08:25:47Z</time>
      </trkpt>
      <trkpt lat="43.458481002599001" lon="-1.548554012551904">
        <ele>42.439999999999998</ele>
        <time>2025-04-27T08:25:48Z</time>
      </trkpt>
      <trkpt lat="43.45847899094224" lon="-1.54871704056859">
        <ele>41.950000000000003</ele>
        <time>2025-04-27T08:25:49Z</time>
      </trkpt>
      <trkpt lat="43.458432974293828" lon="-1.54886799864471">
        <ele>41.950000000000003</ele>
        <time>2025-04-27T08:25:50Z</time>
      </trkpt>
      <trkpt lat="43.458386035636067" lon="-1.549024991691113">
        <ele>41.950000000000003</ele>
        <time>2025-04-27T08:25:51Z</time>
      </trkpt>
      <trkpt lat="43.458335995674133" lon="-1.549181984737515">
        <ele>41.469999999999999</ele>
        <time>2025-04-27T08:25:52Z</time>
      </trkpt>
      <trkpt lat="43.458277992904186" lon="-1.54934098944068">
        <ele>41.469999999999999</ele>
        <time>2025-04-27T08:25:53Z</time>
      </trkpt>
      <trkpt lat="43.458219990134239" lon="-1.549502005800605">
        <ele>40.990000000000002</ele>
        <time>2025-04-27T08:25:54Z</time>
      </trkpt>
      <trkpt lat="43.45815603621304" lon="-1.549652041867375">
        <ele>41.469999999999999</ele>
        <time>2025-04-27T08:25:55Z</time>
      </trkpt>
      <trkpt lat="43.458083029836416" lon="-1.549776010215282">
        <ele>41.469999999999999</ele>
        <time>2025-04-27T08:25:56Z</time>
      </trkpt>
      <trkpt lat="43.458000971004367" lon="-1.549896039068699">
        <ele>41.469999999999999</ele>
        <time>2025-04-27T08:25:57Z</time>
      </trkpt>
      <trkpt lat="43.457902986556292" lon="-1.549994023516774">
        <ele>41.950000000000003</ele>
        <time>2025-04-27T08:25:58Z</time>
      </trkpt>
      <trkpt lat="43.457808019593358" lon="-1.550088990479708">
        <ele>42.439999999999998</ele>
        <time>2025-04-27T08:25:59Z</time>
      </trkpt>
      <trkpt lat="43.456608988344669" lon="-1.551288021728396">
        <ele>45.32</ele>
        <time>2025-04-27T08:26:11Z</time>
      </trkpt>
      <trkpt lat="43.455726038664579" lon="-1.552071981132031">
        <ele>48.200000000000003</ele>
        <time>2025-04-27T08:26:20Z</time>
      </trkpt>
      <trkpt lat="43.454555002972484" lon="-1.55323002487421">
        <ele>53.009999999999998</ele>
        <time>2025-04-27T08:26:31Z</time>
      </trkpt>
      <trkpt lat="43.45366601832211" lon="-1.554101994261146">
        <ele>56.369999999999997</ele>
        <time>2025-04-27T08:26:40Z</time>
      </trkpt>
      <trkpt lat="43.453381033614278" lon="-1.554386978968978">
        <ele>56.369999999999997</ele>
        <time>2025-04-27T08:26:43Z</time>
      </trkpt>
      <trkpt lat="43.452863031998277" lon="-1.55490598641336">
        <ele>59.259999999999998</ele>
        <time>2025-04-27T08:26:49Z</time>
      </trkpt>
      <trkpt lat="43.45278600230813" lon="-1.554982010275126">
        <ele>59.740000000000002</ele>
        <time>2025-04-27T08:26:50Z</time>
      </trkpt>
      <trkpt lat="43.452478973194957" lon="-1.555289039388299">
        <ele>61.659999999999997</ele>
        <time>2025-04-27T08:26:54Z</time>
      </trkpt>
      <trkpt lat="43.452403033152223" lon="-1.555364979431033">
        <ele>62.140000000000001</ele>
        <time>2025-04-27T08:26:55Z</time>
      </trkpt>
      <trkpt lat="43.451675986871123" lon="-1.556070987135172">
        <ele>67.909999999999997</ele>
        <time>2025-04-27T08:27:05Z</time>
      </trkpt>
      <trkpt lat="43.451343979686499" lon="-1.556402994319797">
        <ele>72.719999999999999</ele>
        <time>2025-04-27T08:27:13Z</time>
      </trkpt>
      <trkpt lat="43.451336016878486" lon="-1.556411040946841">
        <ele>73.200000000000003</ele>
        <time>2025-04-27T08:27:14Z</time>
      </trkpt>
      <trkpt lat="43.451442969962955" lon="-1.556635005399585">
        <ele>75.120000000000005</ele>
        <time>2025-04-27T08:27:17Z</time>
      </trkpt>
      <trkpt lat="43.451322019100189" lon="-1.556420009583235">
        <ele>76.079999999999998</ele>
        <time>2025-04-27T08:27:20Z</time>
      </trkpt>
      <trkpt lat="43.451306009665132" lon="-1.55643098987639">
        <ele>76.079999999999998</ele>
        <time>2025-04-27T08:27:21Z</time>
      </trkpt>
      <trkpt lat="43.451298968866467" lon="-1.556435013189912">
        <ele>76.079999999999998</ele>
        <time>2025-04-27T08:27:22Z</time>
      </trkpt>
      <trkpt lat="43.451360994949937" lon="-1.556628970429301">
        <ele>76.079999999999998</ele>
        <time>2025-04-27T08:27:23Z</time>
      </trkpt>
      <trkpt lat="43.451360994949937" lon="-1.556628970429301">
        <ele>76.079999999999998</ele>
        <time>2025-04-27T08:27:38Z</time>
      </trkpt>
      <trkpt lat="43.451360994949937" lon="-1.556628970429301">
        <ele>76.079999999999998</ele>
        <time>2025-04-27T08:28:25Z</time>
      </trkpt>
      <trkpt lat="43.451360994949937" lon="-1.556628970429301">
        <ele>76.560000000000002</ele>
        <time>2025-04-27T08:29:05Z</time>
      </trkpt>
      <trkpt lat="43.451360994949937" lon="-1.556628970429301">
        <ele>76.560000000000002</ele>
        <time>2025-04-27T08:29:44Z</time>
      </trkpt>
      <trkpt lat="43.451360994949937" lon="-1.556628970429301">
        <ele>76.079999999999998</ele>
        <time>2025-04-27T08:30:23Z</time>
      </trkpt>
      <trkpt lat="43.451375998556614" lon="-1.556596029549837">
        <ele>76.560000000000002</ele>
        <time>2025-04-27T08:30:27Z</time>
      </trkpt>
      <trkpt lat="43.451384967193007" lon="-1.556573985144496">
        <ele>77.040000000000006</ele>
        <time>2025-04-27T08:30:28Z</time>
      </trkpt>
      <trkpt lat="43.451386978849769" lon="-1.556513970717788">
        <ele>78</ele>
        <time>2025-04-27T08:30:29Z</time>
      </trkpt>
      <trkpt lat="43.451372981071472" lon="-1.556483963504434">
        <ele>77.519999999999996</ele>
        <time>2025-04-27T08:30:30Z</time>
      </trkpt>
      <trkpt lat="43.451360994949937" lon="-1.556460997089744">
        <ele>78</ele>
        <time>2025-04-27T08:30:31Z</time>
      </trkpt>
      <trkpt lat="43.451360994949937" lon="-1.556460997089744">
        <ele>78.480000000000004</ele>
        <time>2025-04-27T08:30:38Z</time>
      </trkpt>
      <trkpt lat="43.451311038807034" lon="-1.556426966562867">
        <ele>78.480000000000004</ele>
        <time>2025-04-27T08:30:39Z</time>
      </trkpt>
      <trkpt lat="43.451282037422061" lon="-1.556446999311447">
        <ele>78</ele>
        <time>2025-04-27T08:30:40Z</time>
      </trkpt>
      <trkpt lat="43.451234009116888" lon="-1.556479018181562">
        <ele>78</ele>
        <time>2025-04-27T08:30:41Z</time>
      </trkpt>
      <trkpt lat="43.451176006346941" lon="-1.55651698820293">
        <ele>78</ele>
        <time>2025-04-27T08:30:42Z</time>
      </trkpt>
      <trkpt lat="43.451142981648445" lon="-1.556540038436651">
        <ele>78</ele>
        <time>2025-04-27T08:30:43Z</time>
      </trkpt>
      <trkpt lat="43.451112974435091" lon="-1.556669035926461">
        <ele>78.480000000000004</ele>
        <time>2025-04-27T08:30:44Z</time>
      </trkpt>
      <trkpt lat="43.451092019677162" lon="-1.556758973747492">
        <ele>78.480000000000004</ele>
        <time>2025-04-27T08:30:45Z</time>
      </trkpt>
      <trkpt lat="43.451037034392357" lon="-1.556868022307754">
        <ele>78</ele>
        <time>2025-04-27T08:30:46Z</time>
      </trkpt>
      <trkpt lat="43.450983976945281" lon="-1.556930970400572">
        <ele>78</ele>
        <time>2025-04-27T08:30:47Z</time>
      </trkpt>
      <trkpt lat="43.450879035517573" lon="-1.556958965957165">
        <ele>78</ele>
        <time>2025-04-27T08:30:48Z</time>
      </trkpt>
      <trkpt lat="43.450808962807059" lon="-1.556967012584209">
        <ele>78</ele>
        <time>2025-04-27T08:30:49Z</time>
      </trkpt>
      <trkpt lat="43.450727993622422" lon="-1.556897023692727">
        <ele>78.480000000000004</ele>
        <time>2025-04-27T08:30:50Z</time>
      </trkpt>
      <trkpt lat="43.450673008337617" lon="-1.556842960417271">
        <ele>78</ele>
        <time>2025-04-27T08:30:51Z</time>
      </trkpt>
      <trkpt lat="43.450630009174347" lon="-1.556758973747492">
        <ele>78</ele>
        <time>2025-04-27T08:30:52Z</time>
      </trkpt>
      <trkpt lat="43.450600001960993" lon="-1.556671969592571">
        <ele>77.519999999999996</ele>
        <time>2025-04-27T08:30:53Z</time>
      </trkpt>
      <trkpt lat="43.45059203915298" lon="-1.556569039821625">
        <ele>77.040000000000006</ele>
        <time>2025-04-27T08:30:54Z</time>
      </trkpt>
      <trkpt lat="43.450606036931276" lon="-1.556454040110111">
        <ele>77.040000000000006</ele>
        <time>2025-04-27T08:30:55Z</time>
      </trkpt>
      <trkpt lat="43.45063897781074" lon="-1.556377010419965">
        <ele>77.040000000000006</ele>
        <time>2025-04-27T08:30:56Z</time>
      </trkpt>
      <trkpt lat="43.45070100389421" lon="-1.556291012093425">
        <ele>76.560000000000002</ele>
        <time>2025-04-27T08:30:57Z</time>
      </trkpt>
      <trkpt lat="43.450768981128931" lon="-1.556261004880071">
        <ele>76.560000000000002</ele>
        <time>2025-04-27T08:30:58Z</time>
      </trkpt>
      <trkpt lat="43.450846010819077" lon="-1.556242983788252">
        <ele>76.560000000000002</ele>
        <time>2025-04-27T08:30:59Z</time>
      </trkpt>
      <trkpt lat="43.450924968346953" lon="-1.556253964081407">
        <ele>76.560000000000002</ele>
        <time>2025-04-27T08:31:00Z</time>
      </trkpt>
      <trkpt lat="43.451005015522242" lon="-1.556294029578567">
        <ele>77.040000000000006</ele>
        <time>2025-04-27T08:31:01Z</time>
      </trkpt>
      <trkpt lat="43.451064024120569" lon="-1.556353960186243">
        <ele>77.040000000000006</ele>
        <time>2025-04-27T08:31:02Z</time>
      </trkpt>
      <trkpt lat="43.451099982485175" lon="-1.5563889965415">
        <ele>77.040000000000006</ele>
        <time>2025-04-27T08:31:03Z</time>
      </trkpt>
      <trkpt lat="43.4512800257653" lon="-1.556448005139828">
        <ele>77.519999999999996</ele>
        <time>2025-04-27T08:31:04Z</time>
      </trkpt>
      <trkpt lat="43.451369041576982" lon="-1.556378016248345">
        <ele>77.519999999999996</ele>
        <time>2025-04-27T08:31:05Z</time>
      </trkpt>
      <trkpt lat="43.451443975791335" lon="-1.55630299821496">
        <ele>77.519999999999996</ele>
        <time>2025-04-27T08:31:06Z</time>
      </trkpt>
      <trkpt lat="43.451525028795004" lon="-1.556222029030323">
        <ele>77.519999999999996</ele>
        <time>2025-04-27T08:31:07Z</time>
      </trkpt>
      <trkpt lat="43.451608009636402" lon="-1.556138964369893">
        <ele>77.519999999999996</ele>
        <time>2025-04-27T08:31:08Z</time>
      </trkpt>
      <trkpt lat="43.452462963759899" lon="-1.555305970832706">
        <ele>77.040000000000006</ele>
        <time>2025-04-27T08:31:17Z</time>
      </trkpt>
      <trkpt lat="43.45267896540463" lon="-1.555088963359594">
        <ele>76.560000000000002</ele>
        <time>2025-04-27T08:31:19Z</time>
      </trkpt>
      <trkpt lat="43.453006027266383" lon="-1.554761985316873">
        <ele>75.599999999999994</ele>
        <time>2025-04-27T08:31:22Z</time>
      </trkpt>
      <trkpt lat="43.453103005886078" lon="-1.554665006697178">
        <ele>74.640000000000001</ele>
        <time>2025-04-27T08:31:23Z</time>
      </trkpt>
      <trkpt lat="43.453895011916757" lon="-1.55387400649488">
        <ele>71.269999999999996</ele>
        <time>2025-04-27T08:31:31Z</time>
      </trkpt>
      <trkpt lat="43.455050960183144" lon="-1.552742030471563">
        <ele>65.030000000000001</ele>
        <time>2025-04-27T08:31:42Z</time>
      </trkpt>
      <trkpt lat="43.456301037222147" lon="-1.551372008398175">
        <ele>59.259999999999998</ele>
        <time>2025-04-27T08:31:54Z</time>
      </trkpt>
      <trkpt lat="43.457497972995043" lon="-1.550139030441642">
        <ele>53.490000000000002</ele>
        <time>2025-04-27T08:32:06Z</time>
      </trkpt>
      <trkpt lat="43.458232982084155" lon="-1.549311988055706">
        <ele>48.200000000000003</ele>
        <time>2025-04-27T08:32:14Z</time>
      </trkpt>
      <trkpt lat="43.458311017602682" lon="-1.549197994172573">
        <ele>47.719999999999999</ele>
        <time>2025-04-27T08:32:15Z</time>
      </trkpt>
      <trkpt lat="43.458375977352262" lon="-1.549058016389608">
        <ele>46.759999999999998</ele>
        <time>2025-04-27T08:32:16Z</time>
      </trkpt>
      <trkpt lat="43.458417970687151" lon="-1.548918038606644">
        <ele>46.280000000000001</ele>
        <time>2025-04-27T08:32:17Z</time>
      </trkpt>
      <trkpt lat="43.45845602452755" lon="-1.548790968954563">
        <ele>46.280000000000001</ele>
        <time>2025-04-27T08:32:18Z</time>
      </trkpt>
      <trkpt lat="43.458481002599001" lon="-1.548656020313501">
        <ele>46.280000000000001</ele>
        <time>2025-04-27T08:32:19Z</time>
      </trkpt>
      <trkpt lat="43.458481002599001" lon="-1.548540014773607">
        <ele>46.280000000000001</ele>
        <time>2025-04-27T08:32:20Z</time>
      </trkpt>
      <trkpt lat="43.458481002599001" lon="-1.548429038375616">
        <ele>46.280000000000001</ele>
        <time>2025-04-27T08:32:21Z</time>
      </trkpt>
      <trkpt lat="43.458474967628717" lon="-1.548294005915523">
        <ele>46.759999999999998</ele>
        <time>2025-04-27T08:32:22Z</time>
      </trkpt>
      <trkpt lat="43.458447977900505" lon="-1.548186969012022">
        <ele>47.240000000000002</ele>
        <time>2025-04-27T08:32:23Z</time>
      </trkpt>
      <trkpt lat="43.458407996222377" lon="-1.548027964308858">
        <ele>47.719999999999999</ele>
        <time>2025-04-27T08:32:25Z</time>
      </trkpt>
      <trkpt lat="43.458396010100842" lon="-1.547590009868145">
        <ele>52.530000000000001</ele>
        <time>2025-04-27T08:32:34Z</time>
      </trkpt>
      <trkpt lat="43.458396010100842" lon="-1.547524966299534">
        <ele>52.530000000000001</ele>
        <time>2025-04-27T08:32:35Z</time>
      </trkpt>
      <trkpt lat="43.458360973745584" lon="-1.547381971031427">
        <ele>53.490000000000002</ele>
        <time>2025-04-27T08:32:37Z</time>
      </trkpt>
      <trkpt lat="43.458380000665784" lon="-1.547298990190029">
        <ele>53.969999999999999</ele>
        <time>2025-04-27T08:32:38Z</time>
      </trkpt>
      <trkpt lat="43.458396010100842" lon="-1.547226989641786">
        <ele>54.450000000000003</ele>
        <time>2025-04-27T08:32:39Z</time>
      </trkpt>
      <trkpt lat="43.458465998992324" lon="-1.547226989641786">
        <ele>54.450000000000003</ele>
        <time>2025-04-27T08:32:40Z</time>
      </trkpt>
      <trkpt lat="43.458527019247413" lon="-1.547226989641786">
        <ele>54.93</ele>
        <time>2025-04-27T08:32:41Z</time>
      </trkpt>
      <trkpt lat="43.458602037280798" lon="-1.547080976888537">
        <ele>54.93</ele>
        <time>2025-04-27T08:32:42Z</time>
      </trkpt>
      <trkpt lat="43.458632966503501" lon="-1.5470000077039">
        <ele>54.93</ele>
        <time>2025-04-27T08:32:43Z</time>
      </trkpt>
      <trkpt lat="43.458652999252081" lon="-1.546948039904237">
        <ele>55.409999999999997</ele>
        <time>2025-04-27T08:32:44Z</time>
      </trkpt>
      <trkpt lat="43.458676971495152" lon="-1.546800015494227">
        <ele>55.890000000000001</ele>
        <time>2025-04-27T08:32:45Z</time>
      </trkpt>
      <trkpt lat="43.458699015900493" lon="-1.546669006347656">
        <ele>55.890000000000001</ele>
        <time>2025-04-27T08:32:46Z</time>
      </trkpt>
      <trkpt lat="43.458784008398652" lon="-1.54614295810461">
        <ele>54.93</ele>
        <time>2025-04-27T08:32:50Z</time>
      </trkpt>
      <trkpt lat="43.458803035318851" lon="-1.546030975878239">
        <ele>54.93</ele>
        <time>2025-04-27T08:32:51Z</time>
      </trkpt>
      <trkpt lat="43.458971008658409" lon="-1.544978963211179">
        <ele>55.890000000000001</ele>
        <time>2025-04-27T08:33:02Z</time>
      </trkpt>
      <trkpt lat="43.45899598672986" lon="-1.544823981821537">
        <ele>55.890000000000001</ele>
        <time>2025-04-27T08:33:04Z</time>
      </trkpt>
      <trkpt lat="43.45912397839129" lon="-1.544063994660974">
        <ele>56.369999999999997</ele>
        <time>2025-04-27T08:33:12Z</time>
      </trkpt>
      <trkpt lat="43.459172006696463" lon="-1.543796025216579">
        <ele>57.340000000000003</ele>
        <time>2025-04-27T08:33:15Z</time>
      </trkpt>
      <trkpt lat="43.45918701030314" lon="-1.54371103271842">
        <ele>57.82</ele>
        <time>2025-04-27T08:33:16Z</time>
      </trkpt>
      <trkpt lat="43.459205031394958" lon="-1.543613970279694">
        <ele>58.299999999999997</ele>
        <time>2025-04-27T08:33:17Z</time>
      </trkpt>
      <trkpt lat="43.459224980324507" lon="-1.543511040508747">
        <ele>58.299999999999997</ele>
        <time>2025-04-27T08:33:18Z</time>
      </trkpt>
      <trkpt lat="43.459245013073087" lon="-1.543410960584879">
        <ele>58.780000000000001</ele>
        <time>2025-04-27T08:33:19Z</time>
      </trkpt>
      <trkpt lat="43.459265967831016" lon="-1.543309036642313">
        <ele>58.780000000000001</ele>
        <time>2025-04-27T08:33:20Z</time>
      </trkpt>
      <trkpt lat="43.459287006407976" lon="-1.543208034709096">
        <ele>58.780000000000001</ele>
        <time>2025-04-27T08:33:21Z</time>
      </trkpt>
      <trkpt lat="43.459307039156556" lon="-1.54311097227037">
        <ele>58.780000000000001</ele>
        <time>2025-04-27T08:33:22Z</time>
      </trkpt>
      <trkpt lat="43.459409968927503" lon="-1.542614009231329">
        <ele>59.259999999999998</ele>
        <time>2025-04-27T08:33:27Z</time>
      </trkpt>
      <trkpt lat="43.45942597836256" lon="-1.542518958449364">
        <ele>58.780000000000001</ele>
        <time>2025-04-27T08:33:28Z</time>
      </trkpt>
      <trkpt lat="43.459447016939521" lon="-1.542255012318492">
        <ele>58.780000000000001</ele>
        <time>2025-04-27T08:33:31Z</time>
      </trkpt>
      <trkpt lat="43.459449028596282" lon="-1.542178988456726">
        <ele>58.780000000000001</ele>
        <time>2025-04-27T08:33:32Z</time>
      </trkpt>
      <trkpt lat="43.45946797169745" lon="-1.541710020974279">
        <ele>57.82</ele>
        <time>2025-04-27T08:33:43Z</time>
      </trkpt>
      <trkpt lat="43.45946797169745" lon="-1.541347000747919">
        <ele>55.409999999999997</ele>
        <time>2025-04-27T08:33:55Z</time>
      </trkpt>
      <trkpt lat="43.459459003061056" lon="-1.540847020223737">
        <ele>51.57</ele>
        <time>2025-04-27T08:34:08Z</time>
      </trkpt>
      <trkpt lat="43.459439976140857" lon="-1.54035902582109">
        <ele>49.649999999999999</ele>
        <time>2025-04-27T08:34:18Z</time>
      </trkpt>
      <trkpt lat="43.45942497253418" lon="-1.53997496701777">
        <ele>47.240000000000002</ele>
        <time>2025-04-27T08:34:31Z</time>
      </trkpt>
      <trkpt lat="43.459406029433012" lon="-1.539208022877574">
        <ele>46.759999999999998</ele>
        <time>2025-04-27T08:34:42Z</time>
      </trkpt>
      <trkpt lat="43.459365963935852" lon="-1.538324989378452">
        <ele>46.759999999999998</ele>
        <time>2025-04-27T08:34:51Z</time>
      </trkpt>
      <trkpt lat="43.45933604054153" lon="-1.537841018289328">
        <ele>46.759999999999998</ele>
        <time>2025-04-27T08:34:56Z</time>
      </trkpt>
      <trkpt lat="43.459322964772582" lon="-1.53773901052773">
        <ele>46.759999999999998</ele>
        <time>2025-04-27T08:34:57Z</time>
      </trkpt>
      <trkpt lat="43.459308966994286" lon="-1.537644965574145">
        <ele>46.759999999999998</ele>
        <time>2025-04-27T08:34:58Z</time>
      </trkpt>
      <trkpt lat="43.45929698087275" lon="-1.537571037188172">
        <ele>47.240000000000002</ele>
        <time>2025-04-27T08:34:59Z</time>
      </trkpt>
      <trkpt lat="43.459266973659396" lon="-1.53748101554811">
        <ele>47.240000000000002</ele>
        <time>2025-04-27T08:35:00Z</time>
      </trkpt>
      <trkpt lat="43.459238978102803" lon="-1.537397028878331">
        <ele>47.240000000000002</ele>
        <time>2025-04-27T08:35:01Z</time>
      </trkpt>
      <trkpt lat="43.458894984796643" lon="-1.536566969007254">
        <ele>51.57</ele>
        <time>2025-04-27T08:35:11Z</time>
      </trkpt>
      <trkpt lat="43.458682000637054" lon="-1.536288019269705">
        <ele>52.530000000000001</ele>
        <time>2025-04-27T08:35:15Z</time>
      </trkpt>
      <trkpt lat="43.458623997867107" lon="-1.536226999014616">
        <ele>53.009999999999998</ele>
        <time>2025-04-27T08:35:16Z</time>
      </trkpt>
      <trkpt lat="43.458052016794682" lon="-1.535618975758553">
        <ele>53.490000000000002</ele>
        <time>2025-04-27T08:35:23Z</time>
      </trkpt>
      <trkpt lat="43.457476012408733" lon="-1.535085970535874">
        <ele>56.369999999999997</ele>
        <time>2025-04-27T08:35:29Z</time>
      </trkpt>
      <trkpt lat="43.457380961626768" lon="-1.535006007179618">
        <ele>56.859999999999999</ele>
        <time>2025-04-27T08:35:30Z</time>
      </trkpt>
      <trkpt lat="43.457259004935622" lon="-1.53496602550149">
        <ele>57.340000000000003</ele>
        <time>2025-04-27T08:35:31Z</time>
      </trkpt>
      <trkpt lat="43.457144005224109" lon="-1.534954961389303">
        <ele>57.82</ele>
        <time>2025-04-27T08:35:32Z</time>
      </trkpt>
      <trkpt lat="43.457030011340976" lon="-1.534968037158251">
        <ele>58.299999999999997</ele>
        <time>2025-04-27T08:35:33Z</time>
      </trkpt>
      <trkpt lat="43.456924986094236" lon="-1.534983962774277">
        <ele>58.780000000000001</ele>
        <time>2025-04-27T08:35:34Z</time>
      </trkpt>
      <trkpt lat="43.456819960847497" lon="-1.534998966380954">
        <ele>59.259999999999998</ele>
        <time>2025-04-27T08:35:35Z</time>
      </trkpt>
      <trkpt lat="43.456713007763028" lon="-1.535015981644392">
        <ele>59.740000000000002</ele>
        <time>2025-04-27T08:35:36Z</time>
      </trkpt>
      <trkpt lat="43.456614017486572" lon="-1.534984968602657">
        <ele>60.700000000000003</ele>
        <time>2025-04-27T08:35:37Z</time>
      </trkpt>
      <trkpt lat="43.456517038866878" lon="-1.534944986924529">
        <ele>61.18</ele>
        <time>2025-04-27T08:35:38Z</time>
      </trkpt>
      <trkpt lat="43.456422993913293" lon="-1.534879021346569">
        <ele>62.140000000000001</ele>
        <time>2025-04-27T08:35:39Z</time>
      </trkpt>
      <trkpt lat="43.456314029172063" lon="-1.534802997484803">
        <ele>62.619999999999997</ele>
        <time>2025-04-27T08:35:40Z</time>
      </trkpt>
      <trkpt lat="43.456253008916974" lon="-1.534725967794657">
        <ele>63.100000000000001</ele>
        <time>2025-04-27T08:35:41Z</time>
      </trkpt>
      <trkpt lat="43.456170028075576" lon="-1.534639969468117">
        <ele>63.579999999999998</ele>
        <time>2025-04-27T08:35:42Z</time>
      </trkpt>
      <trkpt lat="43.456086963415146" lon="-1.534563023597002">
        <ele>63.579999999999998</ele>
        <time>2025-04-27T08:35:43Z</time>
      </trkpt>
      <trkpt lat="43.455410040915012" lon="-1.533918036147952">
        <ele>67.909999999999997</ele>
        <time>2025-04-27T08:35:53Z</time>
      </trkpt>
      <trkpt lat="43.454950964078307" lon="-1.533440016210079">
        <ele>71.760000000000005</ele>
        <time>2025-04-27T08:36:01Z</time>
      </trkpt>
      <trkpt lat="43.454906959086657" lon="-1.533396011218429">
        <ele>72.239999999999995</ele>
        <time>2025-04-27T08:36:02Z</time>
      </trkpt>
      <trkpt lat="43.454791037365794" lon="-1.533450996503234">
        <ele>72.719999999999999</ele>
        <time>2025-04-27T08:36:03Z</time>
      </trkpt>
      <trkpt lat="43.454765975475311" lon="-1.533427024260163">
        <ele>73.680000000000007</ele>
        <time>2025-04-27T08:36:04Z</time>
      </trkpt>
      <trkpt lat="43.454757006838918" lon="-1.533341025933623">
        <ele>74.640000000000001</ele>
        <time>2025-04-27T08:36:05Z</time>
      </trkpt>
      <trkpt lat="43.454764969646931" lon="-1.533246980980039">
        <ele>75.120000000000005</ele>
        <time>2025-04-27T08:36:06Z</time>
      </trkpt>
      <trkpt lat="43.454735968261957" lon="-1.533174980431795">
        <ele>75.599999999999994</ele>
        <time>2025-04-27T08:36:07Z</time>
      </trkpt>
      <trkpt lat="43.454704033210874" lon="-1.533095017075539">
        <ele>76.079999999999998</ele>
        <time>2025-04-27T08:36:08Z</time>
      </trkpt>
      <trkpt lat="43.454670002683997" lon="-1.533010024577379">
        <ele>77.040000000000006</ele>
        <time>2025-04-27T08:36:09Z</time>
      </trkpt>
      <trkpt lat="43.454627003520727" lon="-1.532920002937317">
        <ele>77.040000000000006</ele>
        <time>2025-04-27T08:36:10Z</time>
      </trkpt>
      <trkpt lat="43.454562965780497" lon="-1.532846996560693">
        <ele>77.040000000000006</ele>
        <time>2025-04-27T08:36:11Z</time>
      </trkpt>
      <trkpt lat="43.454493982717395" lon="-1.532768039032817">
        <ele>77.519999999999996</ele>
        <time>2025-04-27T08:36:12Z</time>
      </trkpt>
      <trkpt lat="43.453615978360176" lon="-1.531833959743381">
        <ele>77.519999999999996</ele>
        <time>2025-04-27T08:36:22Z</time>
      </trkpt>
      <trkpt lat="43.452608976513147" lon="-1.530732996761799">
        <ele>79.450000000000003</ele>
        <time>2025-04-27T08:36:33Z</time>
      </trkpt>
      <trkpt lat="43.452554997056723" lon="-1.530591007322073">
        <ele>78.969999999999999</ele>
        <time>2025-04-27T08:36:34Z</time>
      </trkpt>
      <trkpt lat="43.452516021206975" lon="-1.530490005388856">
        <ele>78.480000000000004</ele>
        <time>2025-04-27T08:36:35Z</time>
      </trkpt>
      <trkpt lat="43.452505962923169" lon="-1.530298981815577">
        <ele>78</ele>
        <time>2025-04-27T08:36:36Z</time>
      </trkpt>
      <trkpt lat="43.452496994286776" lon="-1.530139977112413">
        <ele>77.519999999999996</ele>
        <time>2025-04-27T08:36:37Z</time>
      </trkpt>
      <trkpt lat="43.452489031478763" lon="-1.529978960752487">
        <ele>77.040000000000006</ele>
        <time>2025-04-27T08:36:38Z</time>
      </trkpt>
      <trkpt lat="43.452479979023337" lon="-1.529815010726452">
        <ele>76.560000000000002</ele>
        <time>2025-04-27T08:36:39Z</time>
      </trkpt>
      <trkpt lat="43.452365985140204" lon="-1.528714969754219">
        <ele>74.159999999999997</ele>
        <time>2025-04-27T08:36:46Z</time>
      </trkpt>
      <trkpt lat="43.452261965721846" lon="-1.52843501418829">
        <ele>73.680000000000007</ele>
        <time>2025-04-27T08:36:48Z</time>
      </trkpt>
      <trkpt lat="43.451781012117863" lon="-1.526995003223419">
        <ele>75.120000000000005</ele>
        <time>2025-04-27T08:36:58Z</time>
      </trkpt>
      <trkpt lat="43.451757961884141" lon="-1.526840021833777">
        <ele>75.599999999999994</ele>
        <time>2025-04-27T08:36:59Z</time>
      </trkpt>
      <trkpt lat="43.451599041000009" lon="-1.525088958442211">
        <ele>78</ele>
        <time>2025-04-27T08:37:10Z</time>
      </trkpt>
      <trkpt lat="43.451329981908202" lon="-1.5238790307194">
        <ele>76.079999999999998</ele>
        <time>2025-04-27T08:37:18Z</time>
      </trkpt>
      <trkpt lat="43.451274996623397" lon="-1.523733017966151">
        <ele>76.079999999999998</ele>
        <time>2025-04-27T08:37:19Z</time>
      </trkpt>
      <trkpt lat="43.451222022995353" lon="-1.523590022698045">
        <ele>75.599999999999994</ele>
        <time>2025-04-27T08:37:20Z</time>
      </trkpt>
      <trkpt lat="43.451076010242105" lon="-1.523247035220265">
        <ele>74.640000000000001</ele>
        <time>2025-04-27T08:37:23Z</time>
      </trkpt>
      <trkpt lat="43.450908958911896" lon="-1.522961966693401">
        <ele>74.159999999999997</ele>
        <time>2025-04-27T08:37:27Z</time>
      </trkpt>
      <trkpt lat="43.450929997488856" lon="-1.522866999730468">
        <ele>74.159999999999997</ele>
        <time>2025-04-27T08:37:28Z</time>
      </trkpt>
      <trkpt lat="43.450949024409056" lon="-1.52278795838356">
        <ele>74.640000000000001</ele>
        <time>2025-04-27T08:37:29Z</time>
      </trkpt>
      <trkpt lat="43.450974002480507" lon="-1.522689973935485">
        <ele>74.640000000000001</ele>
        <time>2025-04-27T08:37:30Z</time>
      </trkpt>
      <trkpt lat="43.450996968895197" lon="-1.522582015022636">
        <ele>74.159999999999997</ele>
        <time>2025-04-27T08:37:31Z</time>
      </trkpt>
      <trkpt lat="43.451164020225406" lon="-1.521584987640381">
        <ele>72.239999999999995</ele>
        <time>2025-04-27T08:37:38Z</time>
      </trkpt>
      <trkpt lat="43.451254041865468" lon="-1.520972019061446">
        <ele>71.269999999999996</ele>
        <time>2025-04-27T08:37:42Z</time>
      </trkpt>
      <trkpt lat="43.451299974694848" lon="-1.520833969116211">
        <ele>71.269999999999996</ele>
        <time>2025-04-27T08:37:43Z</time>
      </trkpt>
      <trkpt lat="43.451808001846075" lon="-1.519590010866523">
        <ele>72.239999999999995</ele>
        <time>2025-04-27T08:37:52Z</time>
      </trkpt>
      <trkpt lat="43.452130034565926" lon="-1.518344962969422">
        <ele>71.760000000000005</ele>
        <time>2025-04-27T08:38:01Z</time>
      </trkpt>
      <trkpt lat="43.452136991545558" lon="-1.518282014876604">
        <ele>72.239999999999995</ele>
        <time>2025-04-27T08:38:02Z</time>
      </trkpt>
      <trkpt lat="43.452145038172603" lon="-1.518206996843219">
        <ele>73.200000000000003</ele>
        <time>2025-04-27T08:38:03Z</time>
      </trkpt>
      <trkpt lat="43.452044036239386" lon="-1.518035000190139">
        <ele>74.640000000000001</ele>
        <time>2025-04-27T08:38:05Z</time>
      </trkpt>
      <trkpt lat="43.452173033729196" lon="-1.517937015742064">
        <ele>75.120000000000005</ele>
        <time>2025-04-27T08:38:06Z</time>
      </trkpt>
      <trkpt lat="43.452176973223686" lon="-1.517927963286638">
        <ele>75.599999999999994</ele>
        <time>2025-04-27T08:38:07Z</time>
      </trkpt>
      <trkpt lat="43.452285015955567" lon="-1.517683966085315">
        <ele>77.040000000000006</ele>
        <time>2025-04-27T08:38:10Z</time>
      </trkpt>
      <trkpt lat="43.452328015118837" lon="-1.517588999122381">
        <ele>77.519999999999996</ele>
        <time>2025-04-27T08:38:11Z</time>
      </trkpt>
      <trkpt lat="43.452405966818333" lon="-1.517366962507367">
        <ele>78</ele>
        <time>2025-04-27T08:38:13Z</time>
      </trkpt>
      <trkpt lat="43.452445026487112" lon="-1.517248023301363">
        <ele>78</ele>
        <time>2025-04-27T08:38:14Z</time>
      </trkpt>
      <trkpt lat="43.452487019822001" lon="-1.517123971134424">
        <ele>78</ele>
        <time>2025-04-27T08:38:15Z</time>
      </trkpt>
      <trkpt lat="43.45267603173852" lon="-1.516186036169529">
        <ele>77.519999999999996</ele>
        <time>2025-04-27T08:38:24Z</time>
      </trkpt>
      <trkpt lat="43.452878035604954" lon="-1.515035033226013">
        <ele>78.969999999999999</ele>
        <time>2025-04-27T08:38:35Z</time>
      </trkpt>
      <trkpt lat="43.453057995066047" lon="-1.514044962823391">
        <ele>77.519999999999996</ele>
        <time>2025-04-27T08:38:42Z</time>
      </trkpt>
      <trkpt lat="43.453177018091083" lon="-1.513435011729598">
        <ele>76.079999999999998</ele>
        <time>2025-04-27T08:38:46Z</time>
      </trkpt>
      <trkpt lat="43.453211970627308" lon="-1.513284975662828">
        <ele>75.599999999999994</ele>
        <time>2025-04-27T08:38:47Z</time>
      </trkpt>
      <trkpt lat="43.45328195951879" lon="-1.513155978173018">
        <ele>75.120000000000005</ele>
        <time>2025-04-27T08:38:48Z</time>
      </trkpt>
      <trkpt lat="43.453349014744163" lon="-1.51303100399673">
        <ele>74.640000000000001</ele>
        <time>2025-04-27T08:38:49Z</time>
      </trkpt>
      <trkpt lat="43.453442975878716" lon="-1.512948023155332">
        <ele>74.159999999999997</ele>
        <time>2025-04-27T08:38:50Z</time>
      </trkpt>
      <trkpt lat="43.453539032489061" lon="-1.512867975980043">
        <ele>74.159999999999997</ele>
        <time>2025-04-27T08:38:51Z</time>
      </trkpt>
      <trkpt lat="43.453637016937137" lon="-1.512792035937309">
        <ele>74.159999999999997</ele>
        <time>2025-04-27T08:38:52Z</time>
      </trkpt>
      <trkpt lat="43.453742964193225" lon="-1.512724980711937">
        <ele>74.640000000000001</ele>
        <time>2025-04-27T08:38:53Z</time>
      </trkpt>
      <trkpt lat="43.454143032431602" lon="-1.512404959648848">
        <ele>76.079999999999998</ele>
        <time>2025-04-27T08:38:57Z</time>
      </trkpt>
      <trkpt lat="43.454936966300011" lon="-1.511241970583797">
        <ele>79.450000000000003</ele>
        <time>2025-04-27T08:39:07Z</time>
      </trkpt>
      <trkpt lat="43.455488998442888" lon="-1.510174032300711">
        <ele>79.450000000000003</ele>
        <time>2025-04-27T08:39:16Z</time>
      </trkpt>
      <trkpt lat="43.456052010878921" lon="-1.508937031030655">
        <ele>76.560000000000002</ele>
        <time>2025-04-27T08:39:28Z</time>
      </trkpt>
      <trkpt lat="43.456455012783408" lon="-1.507310019806027">
        <ele>65.989999999999995</ele>
        <time>2025-04-27T08:39:39Z</time>
      </trkpt>
      <trkpt lat="43.456935966387391" lon="-1.505857016891241">
        <ele>56.369999999999997</ele>
        <time>2025-04-27T08:39:49Z</time>
      </trkpt>
      <trkpt lat="43.457234026864171" lon="-1.505026035010815">
        <ele>51.57</ele>
        <time>2025-04-27T08:39:55Z</time>
      </trkpt>
      <trkpt lat="43.457257999107242" lon="-1.50486895814538">
        <ele>50.609999999999999</ele>
        <time>2025-04-27T08:39:56Z</time>
      </trkpt>
      <trkpt lat="43.457257999107242" lon="-1.504711965098977">
        <ele>50.130000000000003</ele>
        <time>2025-04-27T08:39:57Z</time>
      </trkpt>
      <trkpt lat="43.457257999107242" lon="-1.504556983709335">
        <ele>49.649999999999999</ele>
        <time>2025-04-27T08:39:58Z</time>
      </trkpt>
      <trkpt lat="43.457226986065507" lon="-1.504402002319694">
        <ele>49.159999999999997</ele>
        <time>2025-04-27T08:39:59Z</time>
      </trkpt>
      <trkpt lat="43.457196978852153" lon="-1.504262024536729">
        <ele>48.68</ele>
        <time>2025-04-27T08:40:00Z</time>
      </trkpt>
      <trkpt lat="43.457111986353993" lon="-1.503862040117383">
        <ele>47.240000000000002</ele>
        <time>2025-04-27T08:40:06Z</time>
      </trkpt>
      <trkpt lat="43.457021964713931" lon="-1.503250999376178">
        <ele>45.32</ele>
        <time>2025-04-27T08:40:16Z</time>
      </trkpt>
      <trkpt lat="43.457006961107254" lon="-1.503060981631279">
        <ele>45.32</ele>
        <time>2025-04-27T08:40:18Z</time>
      </trkpt>
      <trkpt lat="43.457023976370692" lon="-1.50284699164331">
        <ele>45.799999999999997</ele>
        <time>2025-04-27T08:40:20Z</time>
      </trkpt>
      <trkpt lat="43.457064041867852" lon="-1.502619003877044">
        <ele>45.32</ele>
        <time>2025-04-27T08:40:22Z</time>
      </trkpt>
      <trkpt lat="43.457087008282542" lon="-1.502487994730473">
        <ele>44.840000000000003</ele>
        <time>2025-04-27T08:40:23Z</time>
      </trkpt>
      <trkpt lat="43.457119027152658" lon="-1.502385986968875">
        <ele>44.840000000000003</ele>
        <time>2025-04-27T08:40:24Z</time>
      </trkpt>
      <trkpt lat="43.457607021555305" lon="-1.500875987112522">
        <ele>41.950000000000003</ele>
        <time>2025-04-27T08:40:35Z</time>
      </trkpt>
      <trkpt lat="43.458150001242757" lon="-1.49919499643147">
        <ele>37.149999999999999</ele>
        <time>2025-04-27T08:40:47Z</time>
      </trkpt>
      <trkpt lat="43.458527019247413" lon="-1.498039970174432">
        <ele>35.229999999999997</ele>
        <time>2025-04-27T08:40:58Z</time>
      </trkpt>
      <trkpt lat="43.458905965089798" lon="-1.497362963855267">
        <ele>31.859999999999999</ele>
        <time>2025-04-27T08:41:06Z</time>
      </trkpt>
      <trkpt lat="43.458970002830029" lon="-1.497253999114037">
        <ele>30.899999999999999</ele>
        <time>2025-04-27T08:41:08Z</time>
      </trkpt>
      <trkpt lat="43.459061030298471" lon="-1.497079990804195">
        <ele>28.98</ele>
        <time>2025-04-27T08:41:13Z</time>
      </trkpt>
      <trkpt lat="43.459061030298471" lon="-1.497079990804195">
        <ele>28.98</ele>
        <time>2025-04-27T08:41:14Z</time>
      </trkpt>
      <trkpt lat="43.459069998934865" lon="-1.496899025514722">
        <ele>28.5</ele>
        <time>2025-04-27T08:41:15Z</time>
      </trkpt>
      <trkpt lat="43.459110986441374" lon="-1.496858960017562">
        <ele>28.02</ele>
        <time>2025-04-27T08:41:16Z</time>
      </trkpt>
      <trkpt lat="43.459232021123171" lon="-1.496887039393187">
        <ele>28.02</ele>
        <time>2025-04-27T08:41:17Z</time>
      </trkpt>
      <trkpt lat="43.459255993366241" lon="-1.496871029958129">
        <ele>27.530000000000001</ele>
        <time>2025-04-27T08:41:18Z</time>
      </trkpt>
      <trkpt lat="43.459318019449711" lon="-1.49682903662324">
        <ele>27.050000000000001</ele>
        <time>2025-04-27T08:41:19Z</time>
      </trkpt>
      <trkpt lat="43.459384990856051" lon="-1.496784025803208">
        <ele>27.050000000000001</ele>
        <time>2025-04-27T08:41:20Z</time>
      </trkpt>
      <trkpt lat="43.459847001358867" lon="-1.496443971991539">
        <ele>28.02</ele>
        <time>2025-04-27T08:41:27Z</time>
      </trkpt>
      <trkpt lat="43.459886983036995" lon="-1.496403990313411">
        <ele>28.02</ele>
        <time>2025-04-27T08:41:28Z</time>
      </trkpt>
      <trkpt lat="43.459915984421968" lon="-1.496374988928437">
        <ele>27.530000000000001</ele>
        <time>2025-04-27T08:41:29Z</time>
      </trkpt>
      <trkpt lat="43.459971975535154" lon="-1.496326960623264">
        <ele>26.09</ele>
        <time>2025-04-27T08:41:38Z</time>
      </trkpt>
      <trkpt lat="43.46004799939692" lon="-1.496114982292056">
        <ele>25.609999999999999</ele>
        <time>2025-04-27T08:41:42Z</time>
      </trkpt>
      <trkpt lat="43.460039030760527" lon="-1.496068965643644">
        <ele>25.129999999999999</ele>
        <time>2025-04-27T08:41:43Z</time>
      </trkpt>
      <trkpt lat="43.46002796664834" lon="-1.496005011722446">
        <ele>24.649999999999999</ele>
        <time>2025-04-27T08:41:44Z</time>
      </trkpt>
      <trkpt lat="43.459920007735491" lon="-1.495879031717777">
        <ele>24.649999999999999</ele>
        <time>2025-04-27T08:41:45Z</time>
      </trkpt>
      <trkpt lat="43.459857981652021" lon="-1.495879031717777">
        <ele>24.170000000000002</ele>
        <time>2025-04-27T08:41:46Z</time>
      </trkpt>
      <trkpt lat="43.459785981103778" lon="-1.495872996747494">
        <ele>24.170000000000002</ele>
        <time>2025-04-27T08:41:47Z</time>
      </trkpt>
      <trkpt lat="43.459700988605618" lon="-1.495861010625958">
        <ele>23.690000000000001</ele>
        <time>2025-04-27T08:41:48Z</time>
      </trkpt>
      <trkpt lat="43.458718964830041" lon="-1.495731007307768">
        <ele>22.73</ele>
        <time>2025-04-27T08:41:56Z</time>
      </trkpt>
      <trkpt lat="43.457293035462499" lon="-1.495448034256697">
        <ele>20.809999999999999</ele>
        <time>2025-04-27T08:42:04Z</time>
      </trkpt>
      <trkpt lat="43.455142993479967" lon="-1.494821989908814">
        <ele>10.710000000000001</ele>
        <time>2025-04-27T08:42:15Z</time>
      </trkpt>
      <trkpt lat="43.453017007559538" lon="-1.494098966941237">
        <ele>1.58</ele>
        <time>2025-04-27T08:42:25Z</time>
      </trkpt>
      <trkpt lat="43.450365979224443" lon="-1.492863977327943">
        <ele>-5.15</ele>
        <time>2025-04-27T08:42:37Z</time>
      </trkpt>
      <trkpt lat="43.448104038834572" lon="-1.491741975769401">
        <ele>0.14</ele>
        <time>2025-04-27T08:42:48Z</time>
      </trkpt>
      <trkpt lat="43.446200005710125" lon="-1.490505980327725">
        <ele>11.67</ele>
        <time>2025-04-27T08:42:58Z</time>
      </trkpt>
      <trkpt lat="43.444307958707213" lon="-1.48920401930809">
        <ele>22.73</ele>
        <time>2025-04-27T08:43:08Z</time>
      </trkpt>
      <trkpt lat="43.442637026309967" lon="-1.488607982173562">
        <ele>32.340000000000003</ele>
        <time>2025-04-27T08:43:16Z</time>
      </trkpt>
      <trkpt lat="43.440822008997202" lon="-1.488369014114142">
        <ele>38.109999999999999</ele>
        <time>2025-04-27T08:43:25Z</time>
      </trkpt>
      <trkpt lat="43.439415022730827" lon="-1.488374965265393">
        <ele>40.030000000000001</ele>
        <time>2025-04-27T08:43:35Z</time>
      </trkpt>
      <trkpt lat="43.439316032454371" lon="-1.488383011892438">
        <ele>40.509999999999998</ele>
        <time>2025-04-27T08:43:36Z</time>
      </trkpt>
      <trkpt lat="43.439201032742858" lon="-1.488427016884089">
        <ele>40.509999999999998</ele>
        <time>2025-04-27T08:43:37Z</time>
      </trkpt>
      <trkpt lat="43.439026018604636" lon="-1.488578980788589">
        <ele>40.509999999999998</ele>
        <time>2025-04-27T08:43:39Z</time>
      </trkpt>
      <trkpt lat="43.438920993357897" lon="-1.488565988838673">
        <ele>40.509999999999998</ele>
        <time>2025-04-27T08:43:40Z</time>
      </trkpt>
      <trkpt lat="43.438889980316162" lon="-1.48856196552515">
        <ele>40.030000000000001</ele>
        <time>2025-04-27T08:43:41Z</time>
      </trkpt>
      <trkpt lat="43.438587980344892" lon="-1.488396003842354">
        <ele>39.07</ele>
        <time>2025-04-27T08:43:43Z</time>
      </trkpt>
      <trkpt lat="43.43845697119832" lon="-1.488401032984257">
        <ele>39.07</ele>
        <time>2025-04-27T08:43:44Z</time>
      </trkpt>
      <trkpt lat="43.436996005475521" lon="-1.488526007160544">
        <ele>36.189999999999998</ele>
        <time>2025-04-27T08:43:53Z</time>
      </trkpt>
      <trkpt lat="43.434873959049582" lon="-1.488972008228302">
        <ele>34.740000000000002</ele>
        <time>2025-04-27T08:44:04Z</time>
      </trkpt>
      <trkpt lat="43.432280011475086" lon="-1.489602997899056">
        <ele>35.229999999999997</ele>
        <time>2025-04-27T08:44:17Z</time>
      </trkpt>
      <trkpt lat="43.432065015658736" lon="-1.489596962928772">
        <ele>35.710000000000001</ele>
        <time>2025-04-27T08:44:18Z</time>
      </trkpt>
      <trkpt lat="43.431850019842386" lon="-1.489546000957489">
        <ele>36.189999999999998</ele>
        <time>2025-04-27T08:44:19Z</time>
      </trkpt>
      <trkpt lat="43.431631000712514" lon="-1.48948397487402">
        <ele>36.189999999999998</ele>
        <time>2025-04-27T08:44:20Z</time>
      </trkpt>
      <trkpt lat="43.42960299924016" lon="-1.48855802603066">
        <ele>40.990000000000002</ele>
        <time>2025-04-27T08:44:30Z</time>
      </trkpt>
      <trkpt lat="43.427781024947762" lon="-1.487699970602989">
        <ele>42.920000000000002</ele>
        <time>2025-04-27T08:44:40Z</time>
      </trkpt>
      <trkpt lat="43.427381040528417" lon="-1.487471982836723">
        <ele>43.399999999999999</ele>
        <time>2025-04-27T08:44:44Z</time>
      </trkpt>
      <trkpt lat="43.427311973646283" lon="-1.487433006986976">
        <ele>43.399999999999999</ele>
        <time>2025-04-27T08:44:45Z</time>
      </trkpt>
      <trkpt lat="43.427069988101721" lon="-1.487410962581635">
        <ele>42.439999999999998</ele>
        <time>2025-04-27T08:44:48Z</time>
      </trkpt>
      <trkpt lat="43.427005028352141" lon="-1.487353965640068">
        <ele>41.950000000000003</ele>
        <time>2025-04-27T08:44:49Z</time>
      </trkpt>
      <trkpt lat="43.42693897895515" lon="-1.487295962870121">
        <ele>41.469999999999999</ele>
        <time>2025-04-27T08:44:50Z</time>
      </trkpt>
      <trkpt lat="43.426910983398557" lon="-1.487157996743918">
        <ele>41.469999999999999</ele>
        <time>2025-04-27T08:44:51Z</time>
      </trkpt>
      <trkpt lat="43.426849963143468" lon="-1.487070992588997">
        <ele>41.469999999999999</ele>
        <time>2025-04-27T08:44:52Z</time>
      </trkpt>
      <trkpt lat="43.426789026707411" lon="-1.486982982605696">
        <ele>41.469999999999999</ele>
        <time>2025-04-27T08:44:53Z</time>
      </trkpt>
      <trkpt lat="43.426709985360503" lon="-1.486909976229072">
        <ele>41.950000000000003</ele>
        <time>2025-04-27T08:44:54Z</time>
      </trkpt>
      <trkpt lat="43.425737014040351" lon="-1.486244034022093">
        <ele>41.950000000000003</ele>
        <time>2025-04-27T08:45:02Z</time>
      </trkpt>
      <trkpt lat="43.424452990293503" lon="-1.485942034050822">
        <ele>39.549999999999997</ele>
        <time>2025-04-27T08:45:09Z</time>
      </trkpt>
      <trkpt lat="43.422392969951034" lon="-1.485622012987733">
        <ele>31.859999999999999</ele>
        <time>2025-04-27T08:45:19Z</time>
      </trkpt>
      <trkpt lat="43.420947007834911" lon="-1.484824977815151">
        <ele>28.02</ele>
        <time>2025-04-27T08:45:27Z</time>
      </trkpt>
      <trkpt lat="43.419770020991564" lon="-1.48348999209702">
        <ele>32.82</ele>
        <time>2025-04-27T08:45:35Z</time>
      </trkpt>
      <trkpt lat="43.418941972777247" lon="-1.481789974495769">
        <ele>38.590000000000003</ele>
        <time>2025-04-27T08:45:43Z</time>
      </trkpt>
      <trkpt lat="43.418782968074083" lon="-1.48138496093452">
        <ele>39.07</ele>
        <time>2025-04-27T08:45:45Z</time>
      </trkpt>
      <trkpt lat="43.41870803385973" lon="-1.481185974553227">
        <ele>39.549999999999997</ele>
        <time>2025-04-27T08:45:46Z</time>
      </trkpt>
      <trkpt lat="43.417860036715865" lon="-1.47966499440372">
        <ele>40.509999999999998</ele>
        <time>2025-04-27T08:45:54Z</time>
      </trkpt>
      <trkpt lat="43.417704971507192" lon="-1.479530967772007">
        <ele>39.549999999999997</ele>
        <time>2025-04-27T08:45:55Z</time>
      </trkpt>
      <trkpt lat="43.417535992339253" lon="-1.479419991374016">
        <ele>39.07</ele>
        <time>2025-04-27T08:45:56Z</time>
      </trkpt>
      <trkpt lat="43.417368018999696" lon="-1.479310020804405">
        <ele>38.590000000000003</ele>
        <time>2025-04-27T08:45:57Z</time>
      </trkpt>
      <trkpt lat="43.417198034003377" lon="-1.479198960587382">
        <ele>38.109999999999999</ele>
        <time>2025-04-27T08:45:58Z</time>
      </trkpt>
      <trkpt lat="43.415770009160042" lon="-1.478477027267218">
        <ele>32.340000000000003</ele>
        <time>2025-04-27T08:46:06Z</time>
      </trkpt>
      <trkpt lat="43.415604969486594" lon="-1.478312993422151">
        <ele>31.379999999999999</ele>
        <time>2025-04-27T08:46:07Z</time>
      </trkpt>
      <trkpt lat="43.415436996147037" lon="-1.478133033961058">
        <ele>30.899999999999999</ele>
        <time>2025-04-27T08:46:08Z</time>
      </trkpt>
      <trkpt lat="43.415298024192452" lon="-1.477919965982437">
        <ele>29.940000000000001</ele>
        <time>2025-04-27T08:46:09Z</time>
      </trkpt>
      <trkpt lat="43.415158968418837" lon="-1.477706981822848">
        <ele>28.98</ele>
        <time>2025-04-27T08:46:10Z</time>
      </trkpt>
      <trkpt lat="43.415032988414168" lon="-1.47747497074306">
        <ele>27.530000000000001</ele>
        <time>2025-04-27T08:46:11Z</time>
      </trkpt>
      <trkpt lat="43.414933998137712" lon="-1.477217981591821">
        <ele>26.09</ele>
        <time>2025-04-27T08:46:12Z</time>
      </trkpt>
      <trkpt lat="43.414832996204495" lon="-1.47695898078382">
        <ele>24.649999999999999</ele>
        <time>2025-04-27T08:46:13Z</time>
      </trkpt>
      <trkpt lat="43.414740962907672" lon="-1.476695034652948">
        <ele>23.210000000000001</ele>
        <time>2025-04-27T08:46:14Z</time>
      </trkpt>
      <trkpt lat="43.414066974073648" lon="-1.474628979340196">
        <ele>12.630000000000001</ele>
        <time>2025-04-27T08:46:22Z</time>
      </trkpt>
      <trkpt lat="43.41318603605032" lon="-1.473529022186995">
        <ele>12.15</ele>
        <time>2025-04-27T08:46:28Z</time>
      </trkpt>
      <trkpt lat="43.41136397793889" lon="-1.47193000651896">
        <ele>20.32</ele>
        <time>2025-04-27T08:46:39Z</time>
      </trkpt>
      <trkpt lat="43.410443980246782" lon="-1.470574988052249">
        <ele>28.02</ele>
        <time>2025-04-27T08:46:47Z</time>
      </trkpt>
      <trkpt lat="43.410163018852472" lon="-1.470148013904691">
        <ele>29.940000000000001</ele>
        <time>2025-04-27T08:46:50Z</time>
      </trkpt>
      <trkpt lat="43.410060005262494" lon="-1.470013987272978">
        <ele>30.420000000000002</ele>
        <time>2025-04-27T08:46:51Z</time>
      </trkpt>
      <trkpt lat="43.409029031172395" lon="-1.469338992610574">
        <ele>33.299999999999997</ele>
        <time>2025-04-27T08:46:59Z</time>
      </trkpt>
      <trkpt lat="43.408273989334702" lon="-1.469183005392551">
        <ele>35.710000000000001</ele>
        <time>2025-04-27T08:47:06Z</time>
      </trkpt>
      <trkpt lat="43.407863024622202" lon="-1.469100024551153">
        <ele>38.109999999999999</ele>
        <time>2025-04-27T08:47:12Z</time>
      </trkpt>
      <trkpt lat="43.407728997990489" lon="-1.469165990129113">
        <ele>39.549999999999997</ele>
        <time>2025-04-27T08:47:15Z</time>
      </trkpt>
      <trkpt lat="43.40766403824091" lon="-1.469161966815591">
        <ele>39.549999999999997</ele>
        <time>2025-04-27T08:47:16Z</time>
      </trkpt>
      <trkpt lat="43.407606035470963" lon="-1.469112010672689">
        <ele>39.549999999999997</ele>
        <time>2025-04-27T08:47:17Z</time>
      </trkpt>
      <trkpt lat="43.407543003559113" lon="-1.469059037044644">
        <ele>39.549999999999997</ele>
        <time>2025-04-27T08:47:18Z</time>
      </trkpt>
      <trkpt lat="43.407540991902351" lon="-1.469057025387883">
        <ele>40.030000000000001</ele>
        <time>2025-04-27T08:47:19Z</time>
      </trkpt>
      <trkpt lat="43.407392967492342" lon="-1.468871030956507">
        <ele>39.549999999999997</ele>
        <time>2025-04-27T08:47:20Z</time>
      </trkpt>
      <trkpt lat="43.407307974994183" lon="-1.468877987936139">
        <ele>39.549999999999997</ele>
        <time>2025-04-27T08:47:21Z</time>
      </trkpt>
      <trkpt lat="43.407210996374488" lon="-1.468885028734803">
        <ele>39.549999999999997</ele>
        <time>2025-04-27T08:47:22Z</time>
      </trkpt>
      <trkpt lat="43.4062709659338" lon="-1.468777991831303">
        <ele>44.359999999999999</ele>
        <time>2025-04-27T08:47:29Z</time>
      </trkpt>
      <trkpt lat="43.404782004654408" lon="-1.468072989955545">
        <ele>48.68</ele>
        <time>2025-04-27T08:47:39Z</time>
      </trkpt>
      <trkpt lat="43.402685020118952" lon="-1.466962974518538">
        <ele>50.130000000000003</ele>
        <time>2025-04-27T08:47:53Z</time>
      </trkpt>
      <trkpt lat="43.401565030217171" lon="-1.465990003198385">
        <ele>49.649999999999999</ele>
        <time>2025-04-27T08:48:01Z</time>
      </trkpt>
      <trkpt lat="43.400760032236576" lon="-1.465193973854184">
        <ele>49.649999999999999</ele>
        <time>2025-04-27T08:48:09Z</time>
      </trkpt>
      <trkpt lat="43.400346972048283" lon="-1.465051984414458">
        <ele>50.130000000000003</ele>
        <time>2025-04-27T08:48:13Z</time>
      </trkpt>
      <trkpt lat="43.40027597732842" lon="-1.465027006343007">
        <ele>50.130000000000003</ele>
        <time>2025-04-27T08:48:14Z</time>
      </trkpt>
      <trkpt lat="43.400138011202216" lon="-1.464979983866215">
        <ele>50.130000000000003</ele>
        <time>2025-04-27T08:48:16Z</time>
      </trkpt>
      <trkpt lat="43.400109009817243" lon="-1.464975960552692">
        <ele>50.609999999999999</ele>
        <time>2025-04-27T08:48:17Z</time>
      </trkpt>
      <trkpt lat="43.400054024532437" lon="-1.46496900357306">
        <ele>50.609999999999999</ele>
        <time>2025-04-27T08:48:18Z</time>
      </trkpt>
      <trkpt lat="43.399987975135446" lon="-1.464961040765047">
        <ele>51.090000000000003</ele>
        <time>2025-04-27T08:48:19Z</time>
      </trkpt>
      <trkpt lat="43.399921003729105" lon="-1.464952994138002">
        <ele>51.090000000000003</ele>
        <time>2025-04-27T08:48:20Z</time>
      </trkpt>
      <trkpt lat="43.399859983474016" lon="-1.464945031329989">
        <ele>51.090000000000003</ele>
        <time>2025-04-27T08:48:21Z</time>
      </trkpt>
      <trkpt lat="43.399795023724437" lon="-1.464936984702945">
        <ele>51.090000000000003</ele>
        <time>2025-04-27T08:48:22Z</time>
      </trkpt>
      <trkpt lat="43.399671977385879" lon="-1.464977972209454">
        <ele>51.57</ele>
        <time>2025-04-27T08:48:24Z</time>
      </trkpt>
      <trkpt lat="43.399597965180874" lon="-1.464999010786414">
        <ele>52.049999999999997</ele>
        <time>2025-04-27T08:48:25Z</time>
      </trkpt>
      <trkpt lat="43.399538034573197" lon="-1.464964980259538">
        <ele>52.049999999999997</ele>
        <time>2025-04-27T08:48:26Z</time>
      </trkpt>
      <trkpt lat="43.399475002661347" lon="-1.464929021894932">
        <ele>52.530000000000001</ele>
        <time>2025-04-27T08:48:27Z</time>
      </trkpt>
      <trkpt lat="43.399428986012936" lon="-1.464844029396772">
        <ele>53.009999999999998</ele>
        <time>2025-04-27T08:48:28Z</time>
      </trkpt>
      <trkpt lat="43.399404007941484" lon="-1.464761970564723">
        <ele>53.009999999999998</ele>
        <time>2025-04-27T08:48:29Z</time>
      </trkpt>
      <trkpt lat="43.399378024041653" lon="-1.464675972238183">
        <ele>53.490000000000002</ele>
        <time>2025-04-27T08:48:30Z</time>
      </trkpt>
      <trkpt lat="43.399378024041653" lon="-1.464572036638856">
        <ele>53.969999999999999</ele>
        <time>2025-04-27T08:48:31Z</time>
      </trkpt>
      <trkpt lat="43.399398978799582" lon="-1.464470028877258">
        <ele>53.969999999999999</ele>
        <time>2025-04-27T08:48:32Z</time>
      </trkpt>
      <trkpt lat="43.399408031255007" lon="-1.464422000572085">
        <ele>54.450000000000003</ele>
        <time>2025-04-27T08:48:33Z</time>
      </trkpt>
      <trkpt lat="43.399408031255007" lon="-1.464422000572085">
        <ele>54.450000000000003</ele>
        <time>2025-04-27T08:48:34Z</time>
      </trkpt>
      <trkpt lat="43.399507021531463" lon="-1.46432301029563">
        <ele>54.450000000000003</ele>
        <time>2025-04-27T08:48:35Z</time>
      </trkpt>
      <trkpt lat="43.399539040401578" lon="-1.464158976450563">
        <ele>54.450000000000003</ele>
        <time>2025-04-27T08:48:36Z</time>
      </trkpt>
      <trkpt lat="43.39952495880425" lon="-1.464080018922687">
        <ele>54.450000000000003</ele>
        <time>2025-04-27T08:48:37Z</time>
      </trkpt>
      <trkpt lat="43.399509033188224" lon="-1.463988991454244">
        <ele>54.450000000000003</ele>
        <time>2025-04-27T08:48:38Z</time>
      </trkpt>
      <trkpt lat="43.399494029581547" lon="-1.463907016441226">
        <ele>54.450000000000003</ele>
        <time>2025-04-27T08:48:39Z</time>
      </trkpt>
      <trkpt lat="43.39943703263998" lon="-1.463784975931048">
        <ele>54.450000000000003</ele>
        <time>2025-04-27T08:48:40Z</time>
      </trkpt>
      <trkpt lat="43.399387998506427" lon="-1.46367902867496">
        <ele>54.450000000000003</ele>
        <time>2025-04-27T08:48:41Z</time>
      </trkpt>
      <trkpt lat="43.398834960535169" lon="-1.46243498660624">
        <ele>53.009999999999998</ele>
        <time>2025-04-27T08:48:50Z</time>
      </trkpt>
      <trkpt lat="43.398768994957209" lon="-1.462266007438302">
        <ele>53.009999999999998</ele>
        <time>2025-04-27T08:48:51Z</time>
      </trkpt>
      <trkpt lat="43.398592974990606" lon="-1.461954033002257">
        <ele>51.57</ele>
        <time>2025-04-27T08:48:53Z</time>
      </trkpt>
      <trkpt lat="43.398479986935854" lon="-1.461819000542164">
        <ele>51.090000000000003</ele>
        <time>2025-04-27T08:48:54Z</time>
      </trkpt>
      <trkpt lat="43.398369010537863" lon="-1.461684973910451">
        <ele>50.609999999999999</ele>
        <time>2025-04-27T08:48:55Z</time>
      </trkpt>
      <trkpt lat="43.398253004997969" lon="-1.46155396476388">
        <ele>49.649999999999999</ele>
        <time>2025-04-27T08:48:56Z</time>
      </trkpt>
      <trkpt lat="43.398119984194636" lon="-1.461451034992933">
        <ele>48.68</ele>
        <time>2025-04-27T08:48:57Z</time>
      </trkpt>
      <trkpt lat="43.397986041381955" lon="-1.461347015574575">
        <ele>48.200000000000003</ele>
        <time>2025-04-27T08:48:58Z</time>
      </trkpt>
      <trkpt lat="43.397851008921862" lon="-1.461242996156216">
        <ele>47.240000000000002</ele>
        <time>2025-04-27T08:48:59Z</time>
      </trkpt>
      <trkpt lat="43.396541001275182" lon="-1.460390975698829">
        <ele>38.109999999999999</ele>
        <time>2025-04-27T08:49:09Z</time>
      </trkpt>
      <trkpt lat="43.395330989733338" lon="-1.459890995174646">
        <ele>32.340000000000003</ele>
        <time>2025-04-27T08:49:19Z</time>
      </trkpt>
      <trkpt lat="43.395008035004139" lon="-1.459718998521566">
        <ele>30.899999999999999</ele>
        <time>2025-04-27T08:49:22Z</time>
      </trkpt>
      <trkpt lat="43.394653983414173" lon="-1.459410041570664">
        <ele>29.940000000000001</ele>
        <time>2025-04-27T08:49:26Z</time>
      </trkpt>
      <trkpt lat="43.394569996744394" lon="-1.459312979131937">
        <ele>29.940000000000001</ele>
        <time>2025-04-27T08:49:27Z</time>
      </trkpt>
      <trkpt lat="43.393781008198857" lon="-1.45811595954001">
        <ele>32.340000000000003</ele>
        <time>2025-04-27T08:49:38Z</time>
      </trkpt>
      <trkpt lat="43.392765037715435" lon="-1.456571007147431">
        <ele>33.299999999999997</ele>
        <time>2025-04-27T08:49:51Z</time>
      </trkpt>
      <trkpt lat="43.39178997091949" lon="-1.455447999760509">
        <ele>34.740000000000002</ele>
        <time>2025-04-27T08:50:02Z</time>
      </trkpt>
      <trkpt lat="43.391131991520524" lon="-1.454319041222334">
        <ele>37.149999999999999</ele>
        <time>2025-04-27T08:50:11Z</time>
      </trkpt>
      <trkpt lat="43.390605021268129" lon="-1.453053960576654">
        <ele>35.229999999999997</ele>
        <time>2025-04-27T08:50:20Z</time>
      </trkpt>
      <trkpt lat="43.390254992991686" lon="-1.452536964789033">
        <ele>32.82</ele>
        <time>2025-04-27T08:50:25Z</time>
      </trkpt>
      <trkpt lat="43.390203025192022" lon="-1.452467981725931">
        <ele>31.859999999999999</ele>
        <time>2025-04-27T08:50:26Z</time>
      </trkpt>
      <trkpt lat="43.390052989125252" lon="-1.452469993382692">
        <ele>31.859999999999999</ele>
        <time>2025-04-27T08:50:27Z</time>
      </trkpt>
      <trkpt lat="43.389970008283854" lon="-1.452428000047803">
        <ele>30.420000000000002</ele>
        <time>2025-04-27T08:50:29Z</time>
      </trkpt>
      <trkpt lat="43.389923991635442" lon="-1.452320041134954">
        <ele>29.940000000000001</ele>
        <time>2025-04-27T08:50:30Z</time>
      </trkpt>
      <trkpt lat="43.389927009120584" lon="-1.45216497592628">
        <ele>29.460000000000001</ele>
        <time>2025-04-27T08:50:31Z</time>
      </trkpt>
      <trkpt lat="43.389872023835778" lon="-1.452086018398404">
        <ele>28.5</ele>
        <time>2025-04-27T08:50:32Z</time>
      </trkpt>
      <trkpt lat="43.389813015237451" lon="-1.452001025900245">
        <ele>28.02</ele>
        <time>2025-04-27T08:50:33Z</time>
      </trkpt>
      <trkpt lat="43.389731040224433" lon="-1.451932964846492">
        <ele>27.050000000000001</ele>
        <time>2025-04-27T08:50:34Z</time>
      </trkpt>
      <trkpt lat="43.389645041897893" lon="-1.451869010925293">
        <ele>26.09</ele>
        <time>2025-04-27T08:50:35Z</time>
      </trkpt>
      <trkpt lat="43.388826968148351" lon="-1.451449999585748">
        <ele>18.879999999999999</ele>
        <time>2025-04-27T08:50:42Z</time>
      </trkpt>
      <trkpt lat="43.388283988460898" lon="-1.451210025697947">
        <ele>15.52</ele>
        <time>2025-04-27T08:50:46Z</time>
      </trkpt>
      <trkpt lat="43.388143004849553" lon="-1.4511329960078">
        <ele>15.039999999999999</ele>
        <time>2025-04-27T08:50:47Z</time>
      </trkpt>
      <trkpt lat="43.387843016535044" lon="-1.450968040153384">
        <ele>13.6</ele>
        <time>2025-04-27T08:50:49Z</time>
      </trkpt>
      <trkpt lat="43.386528985574841" lon="-1.449531968683004">
        <ele>10.710000000000001</ele>
        <time>2025-04-27T08:50:59Z</time>
      </trkpt>
      <trkpt lat="43.385629020631313" lon="-1.447987016290426">
        <ele>9.75</ele>
        <time>2025-04-27T08:51:08Z</time>
      </trkpt>
      <trkpt lat="43.384838020429015" lon="-1.446213992312551">
        <ele>8.310000000000001</ele>
        <time>2025-04-27T08:51:19Z</time>
      </trkpt>
      <trkpt lat="43.384617995470762" lon="-1.445720968768001">
        <ele>6.87</ele>
        <time>2025-04-27T08:51:23Z</time>
      </trkpt>
      <trkpt lat="43.38457097299397" lon="-1.445615021511912">
        <ele>6.39</ele>
        <time>2025-04-27T08:51:24Z</time>
      </trkpt>
      <trkpt lat="43.384430995211005" lon="-1.445603035390377">
        <ele>5.91</ele>
        <time>2025-04-27T08:51:25Z</time>
      </trkpt>
      <trkpt lat="43.384249024093151" lon="-1.44552499987185">
        <ele>5.42</ele>
        <time>2025-04-27T08:51:27Z</time>
      </trkpt>
      <trkpt lat="43.384191021323204" lon="-1.445443024858832">
        <ele>5.42</ele>
        <time>2025-04-27T08:51:28Z</time>
      </trkpt>
      <trkpt lat="43.384137963876128" lon="-1.445293994620442">
        <ele>5.42</ele>
        <time>2025-04-27T08:51:29Z</time>
      </trkpt>
      <trkpt lat="43.384164031594992" lon="-1.44513700157404">
        <ele>5.91</ele>
        <time>2025-04-27T08:51:30Z</time>
      </trkpt>
      <trkpt lat="43.384194960817695" lon="-1.445044968277216">
        <ele>5.91</ele>
        <time>2025-04-27T08:51:31Z</time>
      </trkpt>
      <trkpt lat="43.384227985516191" lon="-1.444833995774388">
        <ele>6.39</ele>
        <time>2025-04-27T08:51:32Z</time>
      </trkpt>
      <trkpt lat="43.384167971089482" lon="-1.444713966920972">
        <ele>6.87</ele>
        <time>2025-04-27T08:51:33Z</time>
      </trkpt>
      <trkpt lat="43.384103011339903" lon="-1.444577006623149">
        <ele>7.35</ele>
        <time>2025-04-27T08:51:34Z</time>
      </trkpt>
      <trkpt lat="43.383229030296206" lon="-1.442670961841941">
        <ele>10.23</ele>
        <time>2025-04-27T08:51:45Z</time>
      </trkpt>
      <trkpt lat="43.382037961855531" lon="-1.440016999840736">
        <ele>9.75</ele>
        <time>2025-04-27T08:51:59Z</time>
      </trkpt>
      <trkpt lat="43.381015034392476" lon="-1.437751958146691">
        <ele>12.15</ele>
        <time>2025-04-27T08:52:10Z</time>
      </trkpt>
      <trkpt lat="43.379837963730097" lon="-1.435566041618586">
        <ele>13.6</ele>
        <time>2025-04-27T08:52:21Z</time>
      </trkpt>
      <trkpt lat="43.378695007413626" lon="-1.43471997231245">
        <ele>14.08</ele>
        <time>2025-04-27T08:52:28Z</time>
      </trkpt>
      <trkpt lat="43.376432983204722" lon="-1.433536028489471">
        <ele>12.15</ele>
        <time>2025-04-27T08:52:40Z</time>
      </trkpt>
      <trkpt lat="43.374375980347395" lon="-1.432814011350274">
        <ele>9.75</ele>
        <time>2025-04-27T08:52:51Z</time>
      </trkpt>
      <trkpt lat="43.372944016009569" lon="-1.432173969224095">
        <ele>8.789999999999999</ele>
        <time>2025-04-27T08:53:00Z</time>
      </trkpt>
      <trkpt lat="43.372231973335147" lon="-1.431748000904918">
        <ele>8.789999999999999</ele>
        <time>2025-04-27T08:53:07Z</time>
      </trkpt>
      <trkpt lat="43.372157039120793" lon="-1.431698966771364">
        <ele>8.789999999999999</ele>
        <time>2025-04-27T08:53:08Z</time>
      </trkpt>
      <trkpt lat="43.371967021375895" lon="-1.43171195872128">
        <ele>9.27</ele>
        <time>2025-04-27T08:53:10Z</time>
      </trkpt>
      <trkpt lat="43.371890997514129" lon="-1.431620009243488">
        <ele>9.75</ele>
        <time>2025-04-27T08:53:11Z</time>
      </trkpt>
      <trkpt lat="43.371867025271058" lon="-1.43151699565351">
        <ele>10.23</ele>
        <time>2025-04-27T08:53:12Z</time>
      </trkpt>
      <trkpt lat="43.371840035542846" lon="-1.431412976235151">
        <ele>10.23</ele>
        <time>2025-04-27T08:53:13Z</time>
      </trkpt>
      <trkpt lat="43.371801981702447" lon="-1.431307028979063">
        <ele>10.710000000000001</ele>
        <time>2025-04-27T08:53:14Z</time>
      </trkpt>
      <trkpt lat="43.371756970882416" lon="-1.431197980418801">
        <ele>11.19</ele>
        <time>2025-04-27T08:53:15Z</time>
      </trkpt>
      <trkpt lat="43.371707014739513" lon="-1.431077029556036">
        <ele>11.67</ele>
        <time>2025-04-27T08:53:16Z</time>
      </trkpt>
      <trkpt lat="43.371637025848031" lon="-1.430990025401115">
        <ele>12.15</ele>
        <time>2025-04-27T08:53:17Z</time>
      </trkpt>
      <trkpt lat="43.371562007814646" lon="-1.430895980447531">
        <ele>12.630000000000001</ele>
        <time>2025-04-27T08:53:18Z</time>
      </trkpt>
      <trkpt lat="43.370751980692148" lon="-1.429838016629219">
        <ele>13.6</ele>
        <time>2025-04-27T08:53:27Z</time>
      </trkpt>
      <trkpt lat="43.369985036551952" lon="-1.428355006501079">
        <ele>12.15</ele>
        <time>2025-04-27T08:53:37Z</time>
      </trkpt>
      <trkpt lat="43.369466029107571" lon="-1.427420005202293">
        <ele>13.119999999999999</ele>
        <time>2025-04-27T08:53:43Z</time>
      </trkpt>
      <trkpt lat="43.369108038023114" lon="-1.427033012732863">
        <ele>13.6</ele>
        <time>2025-04-27T08:53:46Z</time>
      </trkpt>
      <trkpt lat="43.368040015920997" lon="-1.426207982003689">
        <ele>13.6</ele>
        <time>2025-04-27T08:53:54Z</time>
      </trkpt>
      <trkpt lat="43.366883983835578" lon="-1.425073994323611">
        <ele>19.84</ele>
        <time>2025-04-27T08:54:03Z</time>
      </trkpt>
      <trkpt lat="43.365673972293735" lon="-1.42382500693202">
        <ele>25.609999999999999</ele>
        <time>2025-04-27T08:54:12Z</time>
      </trkpt>
      <trkpt lat="43.365408014506102" lon="-1.42348101362586">
        <ele>26.57</ele>
        <time>2025-04-27T08:54:14Z</time>
      </trkpt>
      <trkpt lat="43.36529997177422" lon="-1.423275992274284">
        <ele>27.050000000000001</ele>
        <time>2025-04-27T08:54:15Z</time>
      </trkpt>
      <trkpt lat="43.365193018689752" lon="-1.423076000064611">
        <ele>27.050000000000001</ele>
        <time>2025-04-27T08:54:16Z</time>
      </trkpt>
      <trkpt lat="43.365085981786251" lon="-1.422873996198177">
        <ele>27.050000000000001</ele>
        <time>2025-04-27T08:54:17Z</time>
      </trkpt>
      <trkpt lat="43.365012975409627" lon="-1.422649025917053">
        <ele>27.530000000000001</ele>
        <time>2025-04-27T08:54:18Z</time>
      </trkpt>
      <trkpt lat="43.364953966811299" lon="-1.422412991523743">
        <ele>27.530000000000001</ele>
        <time>2025-04-27T08:54:19Z</time>
      </trkpt>
      <trkpt lat="43.364372011274099" lon="-1.420421032235026">
        <ele>30.899999999999999</ele>
        <time>2025-04-27T08:54:28Z</time>
      </trkpt>
      <trkpt lat="43.364275032654405" lon="-1.420226991176605">
        <ele>30.899999999999999</ele>
        <time>2025-04-27T08:54:29Z</time>
      </trkpt>
      <trkpt lat="43.364181993529201" lon="-1.420039990916848">
        <ele>31.379999999999999</ele>
        <time>2025-04-27T08:54:30Z</time>
      </trkpt>
      <trkpt lat="43.363671032711864" lon="-1.41944102011621">
        <ele>33.780000000000001</ele>
        <time>2025-04-27T08:54:34Z</time>
      </trkpt>
      <trkpt lat="43.363380013033748" lon="-1.41918302513659">
        <ele>35.229999999999997</ele>
        <time>2025-04-27T08:54:36Z</time>
      </trkpt>
      <trkpt lat="43.363064015284181" lon="-1.419009016826749">
        <ele>36.189999999999998</ele>
        <time>2025-04-27T08:54:38Z</time>
      </trkpt>
      <trkpt lat="43.361572036519647" lon="-1.418406022712588">
        <ele>39.549999999999997</ele>
        <time>2025-04-27T08:54:47Z</time>
      </trkpt>
      <trkpt lat="43.359633972868323" lon="-1.41774301417172">
        <ele>43.880000000000003</ele>
        <time>2025-04-27T08:54:58Z</time>
      </trkpt>
      <trkpt lat="43.358174012973905" lon="-1.417317967861891">
        <ele>43.880000000000003</ele>
        <time>2025-04-27T08:55:06Z</time>
      </trkpt>
      <trkpt lat="43.356683040037751" lon="-1.417334983125329">
        <ele>41.950000000000003</ele>
        <time>2025-04-27T08:55:14Z</time>
      </trkpt>
      <trkpt lat="43.355351993814111" lon="-1.417838986963034">
        <ele>42.920000000000002</ele>
        <time>2025-04-27T08:55:22Z</time>
      </trkpt>
      <trkpt lat="43.354496033862233" lon="-1.418228996917605">
        <ele>45.799999999999997</ele>
        <time>2025-04-27T08:55:27Z</time>
      </trkpt>
      <trkpt lat="43.354316996410489" lon="-1.418291023001075">
        <ele>45.799999999999997</ele>
        <time>2025-04-27T08:55:28Z</time>
      </trkpt>
      <trkpt lat="43.354153968393803" lon="-1.418308960273862">
        <ele>46.280000000000001</ele>
        <time>2025-04-27T08:55:29Z</time>
      </trkpt>
      <trkpt lat="43.353951964527369" lon="-1.41828297637403">
        <ele>46.759999999999998</ele>
        <time>2025-04-27T08:55:30Z</time>
      </trkpt>
      <trkpt lat="43.353769993409514" lon="-1.41825900413096">
        <ele>46.759999999999998</ele>
        <time>2025-04-27T08:55:31Z</time>
      </trkpt>
      <trkpt lat="43.353581987321377" lon="-1.418219022452831">
        <ele>47.240000000000002</ele>
        <time>2025-04-27T08:55:32Z</time>
      </trkpt>
      <trkpt lat="43.353393981233239" lon="-1.418155990540981">
        <ele>48.200000000000003</ele>
        <time>2025-04-27T08:55:33Z</time>
      </trkpt>
      <trkpt lat="43.353219972923398" lon="-1.418079966679215">
        <ele>48.68</ele>
        <time>2025-04-27T08:55:34Z</time>
      </trkpt>
      <trkpt lat="43.353054011240602" lon="-1.417975025251508">
        <ele>49.649999999999999</ele>
        <time>2025-04-27T08:55:35Z</time>
      </trkpt>
      <trkpt lat="43.352890983223915" lon="-1.417861031368375">
        <ele>50.609999999999999</ele>
        <time>2025-04-27T08:55:36Z</time>
      </trkpt>
      <trkpt lat="43.352746982127428" lon="-1.417713006958365">
        <ele>51.090000000000003</ele>
        <time>2025-04-27T08:55:37Z</time>
      </trkpt>
      <trkpt lat="43.35259904153645" lon="-1.417561965063214">
        <ele>52.049999999999997</ele>
        <time>2025-04-27T08:55:38Z</time>
      </trkpt>
      <trkpt lat="43.351109996438026" lon="-1.415822971612215">
        <ele>62.140000000000001</ele>
        <time>2025-04-27T08:55:49Z</time>
      </trkpt>
      <trkpt lat="43.35038797929883" lon="-1.414443980902433">
        <ele>67.909999999999997</ele>
        <time>2025-04-27T08:55:57Z</time>
      </trkpt>
      <trkpt lat="43.349667973816395" lon="-1.412470964714885">
        <ele>75.120000000000005</ele>
        <time>2025-04-27T08:56:06Z</time>
      </trkpt>
      <trkpt lat="43.349022986367345" lon="-1.410174993798137">
        <ele>82.329999999999998</ele>
        <time>2025-04-27T08:56:15Z</time>
      </trkpt>
      <trkpt lat="43.34860498085618" lon="-1.40749697573483">
        <ele>92.420000000000002</ele>
        <time>2025-04-27T08:56:25Z</time>
      </trkpt>
      <trkpt lat="43.348285965621471" lon="-1.406234996393323">
        <ele>96.75</ele>
        <time>2025-04-27T08:56:30Z</time>
      </trkpt>
      <trkpt lat="43.347984971478581" lon="-1.405590008944273">
        <ele>98.189999999999998</ele>
        <time>2025-04-27T08:56:33Z</time>
      </trkpt>
      <trkpt lat="43.346851989626884" lon="-1.404029969125986">
        <ele>98.189999999999998</ele>
        <time>2025-04-27T08:56:42Z</time>
      </trkpt>
      <trkpt lat="43.346371036022902" lon="-1.403409959748387">
        <ele>95.790000000000006</ele>
        <time>2025-04-27T08:56:48Z</time>
      </trkpt>
      <trkpt lat="43.346343962475657" lon="-1.403375007212162">
        <ele>95.310000000000002</ele>
        <time>2025-04-27T08:56:49Z</time>
      </trkpt>
      <trkpt lat="43.346314039081335" lon="-1.403341982513666">
        <ele>94.829999999999998</ele>
        <time>2025-04-27T08:56:56Z</time>
      </trkpt>
      <trkpt lat="43.346314039081335" lon="-1.403341982513666">
        <ele>94.349999999999994</ele>
        <time>2025-04-27T08:57:41Z</time>
      </trkpt>
      <trkpt lat="43.346314039081335" lon="-1.403341982513666">
        <ele>93.390000000000001</ele>
        <time>2025-04-27T08:58:33Z</time>
      </trkpt>
      <trkpt lat="43.346314039081335" lon="-1.403341982513666">
        <ele>93.390000000000001</ele>
        <time>2025-04-27T08:58:50Z</time>
      </trkpt>
      <trkpt lat="43.346228962764144" lon="-1.403247015550733">
        <ele>91.939999999999998</ele>
        <time>2025-04-27T08:58:54Z</time>
      </trkpt>
      <trkpt lat="43.345785979181528" lon="-1.402751980349422">
        <ele>90.980000000000004</ele>
        <time>2025-04-27T08:59:00Z</time>
      </trkpt>
      <trkpt lat="43.345460006967187" lon="-1.402562968432903">
        <ele>90.5</ele>
        <time>2025-04-27T08:59:03Z</time>
      </trkpt>
      <trkpt lat="43.344981987029314" lon="-1.402285024523735">
        <ele>90.019999999999996</ele>
        <time>2025-04-27T08:59:08Z</time>
      </trkpt>
      <trkpt lat="43.34490898065269" lon="-1.402243031188846">
        <ele>90.019999999999996</ele>
        <time>2025-04-27T08:59:09Z</time>
      </trkpt>
      <trkpt lat="43.344694990664721" lon="-1.402348978444934">
        <ele>90.5</ele>
        <time>2025-04-27T08:59:11Z</time>
      </trkpt>
      <trkpt lat="43.344621984288096" lon="-1.402274966239929">
        <ele>90.5</ele>
        <time>2025-04-27T08:59:12Z</time>
      </trkpt>
      <trkpt lat="43.344523999840021" lon="-1.402179999276996">
        <ele>90.019999999999996</ele>
        <time>2025-04-27T08:59:13Z</time>
      </trkpt>
      <trkpt lat="43.344424003735185" lon="-1.402191985398531">
        <ele>90.019999999999996</ele>
        <time>2025-04-27T08:59:14Z</time>
      </trkpt>
      <trkpt lat="43.344314033165574" lon="-1.402204977348447">
        <ele>90.019999999999996</ele>
        <time>2025-04-27T08:59:15Z</time>
      </trkpt>
      <trkpt lat="43.344194004312158" lon="-1.402218975126743">
        <ele>90.5</ele>
        <time>2025-04-27T08:59:16Z</time>
      </trkpt>
      <trkpt lat="43.344067018479109" lon="-1.40223397873342">
        <ele>90.5</ele>
        <time>2025-04-27T08:59:17Z</time>
      </trkpt>
      <trkpt lat="43.342701019719243" lon="-1.402451992034912">
        <ele>92.420000000000002</ele>
        <time>2025-04-27T08:59:27Z</time>
      </trkpt>
      <trkpt lat="43.342431038618088" lon="-1.402459032833576">
        <ele>92.420000000000002</ele>
        <time>2025-04-27T08:59:29Z</time>
      </trkpt>
      <trkpt lat="43.342302963137627" lon="-1.402431959286332">
        <ele>92.420000000000002</ele>
        <time>2025-04-27T08:59:30Z</time>
      </trkpt>
      <trkpt lat="43.342182012274861" lon="-1.40238200314343">
        <ele>91.939999999999998</ele>
        <time>2025-04-27T08:59:31Z</time>
      </trkpt>
      <trkpt lat="43.34091198630631" lon="-1.401855032891035">
        <ele>90.980000000000004</ele>
        <time>2025-04-27T08:59:41Z</time>
      </trkpt>
      <trkpt lat="43.339840024709702" lon="-1.402022000402212">
        <ele>86.659999999999997</ele>
        <time>2025-04-27T08:59:48Z</time>
      </trkpt>
      <trkpt lat="43.338631018996239" lon="-1.402796991169453">
        <ele>83.290000000000006</ele>
        <time>2025-04-27T08:59:57Z</time>
      </trkpt>
      <trkpt lat="43.337997011840343" lon="-1.403246009722352">
        <ele>83.769999999999996</ele>
        <time>2025-04-27T09:00:02Z</time>
      </trkpt>
      <trkpt lat="43.337291004136205" lon="-1.403510039672256">
        <ele>84.730000000000004</ele>
        <time>2025-04-27T09:00:10Z</time>
      </trkpt>
      <trkpt lat="43.336677029728889" lon="-1.403622021898627">
        <ele>84.25</ele>
        <time>2025-04-27T09:00:20Z</time>
      </trkpt>
      <trkpt lat="43.336622966453433" lon="-1.403613975271583">
        <ele>83.769999999999996</ele>
        <time>2025-04-27T09:00:21Z</time>
      </trkpt>
      <trkpt lat="43.336536968126893" lon="-1.403782032430172">
        <ele>83.769999999999996</ele>
        <time>2025-04-27T09:00:22Z</time>
      </trkpt>
      <trkpt lat="43.336495980620384" lon="-1.403775997459889">
        <ele>83.769999999999996</ele>
        <time>2025-04-27T09:00:23Z</time>
      </trkpt>
      <trkpt lat="43.336437977850437" lon="-1.403766022995114">
        <ele>83.769999999999996</ele>
        <time>2025-04-27T09:00:24Z</time>
      </trkpt>
      <trkpt lat="43.336387015879154" lon="-1.403717994689941">
        <ele>84.25</ele>
        <time>2025-04-27T09:00:25Z</time>
      </trkpt>
      <trkpt lat="43.336352985352278" lon="-1.40364901162684">
        <ele>84.25</ele>
        <time>2025-04-27T09:00:26Z</time>
      </trkpt>
      <trkpt lat="43.336299005895853" lon="-1.403577011078596">
        <ele>84.25</ele>
        <time>2025-04-27T09:00:27Z</time>
      </trkpt>
      <trkpt lat="43.336236979812384" lon="-1.403547003865242">
        <ele>84.25</ele>
        <time>2025-04-27T09:00:28Z</time>
      </trkpt>
      <trkpt lat="43.336167996749282" lon="-1.403511967509985">
        <ele>84.730000000000004</ele>
        <time>2025-04-27T09:00:29Z</time>
      </trkpt>
      <trkpt lat="43.336094990372658" lon="-1.403475003316999">
        <ele>84.730000000000004</ele>
        <time>2025-04-27T09:00:30Z</time>
      </trkpt>
      <trkpt lat="43.336018966510892" lon="-1.403438039124012">
        <ele>84.25</ele>
        <time>2025-04-27T09:00:31Z</time>
      </trkpt>
      <trkpt lat="43.335035014897585" lon="-1.402903022244573">
        <ele>80.409999999999997</ele>
        <time>2025-04-27T09:00:42Z</time>
      </trkpt>
      <trkpt lat="43.3339290227741" lon="-1.40203800983727">
        <ele>72.239999999999995</ele>
        <time>2025-04-27T09:00:55Z</time>
      </trkpt>
      <trkpt lat="43.332863012328744" lon="-1.400925982743502">
        <ele>60.700000000000003</ele>
        <time>2025-04-27T09:01:05Z</time>
      </trkpt>
      <trkpt lat="43.332441989332438" lon="-1.400288958102465">
        <ele>55.409999999999997</ele>
        <time>2025-04-27T09:01:09Z</time>
      </trkpt>
      <trkpt lat="43.331491984426975" lon="-1.39819297939539">
        <ele>45.32</ele>
        <time>2025-04-27T09:01:20Z</time>
      </trkpt>
      <trkpt lat="43.330670977011323" lon="-1.395802963525057">
        <ele>38.590000000000003</ele>
        <time>2025-04-27T09:01:31Z</time>
      </trkpt>
      <trkpt lat="43.329909984022379" lon="-1.393319992348552">
        <ele>33.780000000000001</ele>
        <time>2025-04-27T09:01:42Z</time>
      </trkpt>
      <trkpt lat="43.329086964949965" lon="-1.390627976506949">
        <ele>37.630000000000003</ele>
        <time>2025-04-27T09:01:54Z</time>
      </trkpt>
      <trkpt lat="43.328350028023124" lon="-1.388262016698718">
        <ele>39.07</ele>
        <time>2025-04-27T09:02:04Z</time>
      </trkpt>
      <trkpt lat="43.327521979808807" lon="-1.386471977457404">
        <ele>40.030000000000001</ele>
        <time>2025-04-27T09:02:12Z</time>
      </trkpt>
      <trkpt lat="43.326508020982146" lon="-1.384905986487865">
        <ele>41.469999999999999</ele>
        <time>2025-04-27T09:02:20Z</time>
      </trkpt>
      <trkpt lat="43.325277976691723" lon="-1.38257103972137">
        <ele>43.399999999999999</ele>
        <time>2025-04-27T09:02:31Z</time>
      </trkpt>
      <trkpt lat="43.324471972882748" lon="-1.380411023274064">
        <ele>48.200000000000003</ele>
        <time>2025-04-27T09:02:40Z</time>
      </trkpt>
      <trkpt lat="43.323877025395632" lon="-1.378118991851807">
        <ele>56.369999999999997</ele>
        <time>2025-04-27T09:02:49Z</time>
      </trkpt>
      <trkpt lat="43.323393976315856" lon="-1.376699013635516">
        <ele>65.030000000000001</ele>
        <time>2025-04-27T09:02:55Z</time>
      </trkpt>
      <trkpt lat="43.323288029059768" lon="-1.376488041132689">
        <ele>66.469999999999999</ele>
        <time>2025-04-27T09:02:56Z</time>
      </trkpt>
      <trkpt lat="43.322358978912234" lon="-1.374747036024928">
        <ele>77.519999999999996</ele>
        <time>2025-04-27T09:03:05Z</time>
      </trkpt>
      <trkpt lat="43.321708040311933" lon="-1.37305498123169">
        <ele>82.810000000000002</ele>
        <time>2025-04-27T09:03:14Z</time>
      </trkpt>
      <trkpt lat="43.32097202539444" lon="-1.371650006622076">
        <ele>90.019999999999996</ele>
        <time>2025-04-27T09:03:22Z</time>
      </trkpt>
      <trkpt lat="43.320412030443549" lon="-1.370078986510634">
        <ele>100.11</ele>
        <time>2025-04-27T09:03:30Z</time>
      </trkpt>
      <trkpt lat="43.320017997175455" lon="-1.368449963629246">
        <ele>109.73</ele>
        <time>2025-04-27T09:03:37Z</time>
      </trkpt>
      <trkpt lat="43.319892017170787" lon="-1.367414966225624">
        <ele>115.98</ele>
        <time>2025-04-27T09:03:41Z</time>
      </trkpt>
      <trkpt lat="43.319910038262606" lon="-1.367153031751514">
        <ele>117.42</ele>
        <time>2025-04-27T09:03:42Z</time>
      </trkpt>
      <trkpt lat="43.319898974150419" lon="-1.365423006936908">
        <ele>128.94999999999999</ele>
        <time>2025-04-27T09:03:48Z</time>
      </trkpt>
      <trkpt lat="43.319607032462955" lon="-1.363677978515625">
        <ele>143.37</ele>
        <time>2025-04-27T09:03:55Z</time>
      </trkpt>
      <trkpt lat="43.319071009755135" lon="-1.362133026123047">
        <ele>146.74000000000001</ele>
        <time>2025-04-27T09:04:03Z</time>
      </trkpt>
      <trkpt lat="43.318488970398903" lon="-1.360775995999575">
        <ele>140.00999999999999</ele>
        <time>2025-04-27T09:04:13Z</time>
      </trkpt>
      <trkpt lat="43.318089991807938" lon="-1.360008968040347">
        <ele>136.63999999999999</ele>
        <time>2025-04-27T09:04:19Z</time>
      </trkpt>
      <trkpt lat="43.317847000434995" lon="-1.359457019716501">
        <ele>133.28</ele>
        <time>2025-04-27T09:04:23Z</time>
      </trkpt>
      <trkpt lat="43.317240988835692" lon="-1.357917012646794">
        <ele>122.22</ele>
        <time>2025-04-27T09:04:34Z</time>
      </trkpt>
      <trkpt lat="43.316617961972952" lon="-1.356742959469557">
        <ele>116.45999999999999</ele>
        <time>2025-04-27T09:04:43Z</time>
      </trkpt>
      <trkpt lat="43.316416963934898" lon="-1.356373988091946">
        <ele>115.01000000000001</ele>
        <time>2025-04-27T09:04:46Z</time>
      </trkpt>
      <trkpt lat="43.316356027498841" lon="-1.356244990602136">
        <ele>115.01000000000001</ele>
        <time>2025-04-27T09:04:47Z</time>
      </trkpt>
      <trkpt lat="43.316292995586991" lon="-1.356114987283945">
        <ele>115.01000000000001</ele>
        <time>2025-04-27T09:04:48Z</time>
      </trkpt>
      <trkpt lat="43.316228035837412" lon="-1.355978026986122">
        <ele>114.53</ele>
        <time>2025-04-27T09:04:49Z</time>
      </trkpt>
      <trkpt lat="43.316177995875478" lon="-1.355836037546396">
        <ele>114.53</ele>
        <time>2025-04-27T09:04:50Z</time>
      </trkpt>
      <trkpt lat="43.31613801419735" lon="-1.355668986216188">
        <ele>114.05</ele>
        <time>2025-04-27T09:04:51Z</time>
      </trkpt>
      <trkpt lat="43.316097026690841" lon="-1.355495983734727">
        <ele>114.05</ele>
        <time>2025-04-27T09:04:52Z</time>
      </trkpt>
      <trkpt lat="43.316019997000694" lon="-1.355170011520386">
        <ele>113.56999999999999</ele>
        <time>2025-04-27T09:04:54Z</time>
      </trkpt>
      <trkpt lat="43.315873984247446" lon="-1.353693036362529">
        <ele>110.69</ele>
        <time>2025-04-27T09:05:03Z</time>
      </trkpt>
      <trkpt lat="43.31573098897934" lon="-1.35300999507308">
        <ele>109.25</ele>
        <time>2025-04-27T09:05:07Z</time>
      </trkpt>
      <trkpt lat="43.315641973167658" lon="-1.351994024589658">
        <ele>106.36</ele>
        <time>2025-04-27T09:05:13Z</time>
      </trkpt>
      <trkpt lat="43.315581036731601" lon="-1.351649025455117">
        <ele>105.88</ele>
        <time>2025-04-27T09:05:15Z</time>
      </trkpt>
      <trkpt lat="43.315552035346627" lon="-1.351510975509882">
        <ele>105.88</ele>
        <time>2025-04-27T09:05:16Z</time>
      </trkpt>
      <trkpt lat="43.315458996221423" lon="-1.351351970806718">
        <ele>105.40000000000001</ele>
        <time>2025-04-27T09:05:17Z</time>
      </trkpt>
      <trkpt lat="43.315378027036786" lon="-1.351214004680514">
        <ele>104.92</ele>
        <time>2025-04-27T09:05:18Z</time>
      </trkpt>
      <trkpt lat="43.315297979861498" lon="-1.35107696056366">
        <ele>104.92</ele>
        <time>2025-04-27T09:05:19Z</time>
      </trkpt>
      <trkpt lat="43.315211981534958" lon="-1.350953998044133">
        <ele>104.44</ele>
        <time>2025-04-27T09:05:20Z</time>
      </trkpt>
      <trkpt lat="43.315118020400405" lon="-1.350849978625774">
        <ele>103.95999999999999</ele>
        <time>2025-04-27T09:05:21Z</time>
      </trkpt>
      <trkpt lat="43.315029004588723" lon="-1.350756017491221">
        <ele>103.48</ele>
        <time>2025-04-27T09:05:22Z</time>
      </trkpt>
      <trkpt lat="43.3149369712919" lon="-1.350704971700907">
        <ele>103</ele>
        <time>2025-04-27T09:05:23Z</time>
      </trkpt>
      <trkpt lat="43.314846027642488" lon="-1.350655015558004">
        <ele>102.52</ele>
        <time>2025-04-27T09:05:24Z</time>
      </trkpt>
      <trkpt lat="43.314710995182395" lon="-1.350713018327951">
        <ele>102.52</ele>
        <time>2025-04-27T09:05:25Z</time>
      </trkpt>
      <trkpt lat="43.314650980755687" lon="-1.350653003901243">
        <ele>102.04000000000001</ele>
        <time>2025-04-27T09:05:26Z</time>
      </trkpt>
      <trkpt lat="43.314459035173059" lon="-1.350503973662853">
        <ele>101.08</ele>
        <time>2025-04-27T09:05:28Z</time>
      </trkpt>
      <trkpt lat="43.314347974956036" lon="-1.35047203861177">
        <ele>100.59999999999999</ele>
        <time>2025-04-27T09:05:29Z</time>
      </trkpt>
      <trkpt lat="43.314242027699947" lon="-1.350424010306597">
        <ele>100.11</ele>
        <time>2025-04-27T09:05:30Z</time>
      </trkpt>
      <trkpt lat="43.314134990796447" lon="-1.350363995879889">
        <ele>99.629999999999995</ele>
        <time>2025-04-27T09:05:31Z</time>
      </trkpt>
      <trkpt lat="43.314028959721327" lon="-1.350296018645167">
        <ele>99.150000000000006</ele>
        <time>2025-04-27T09:05:32Z</time>
      </trkpt>
      <trkpt lat="43.313928041607141" lon="-1.350228963419795">
        <ele>98.670000000000002</ele>
        <time>2025-04-27T09:05:33Z</time>
      </trkpt>
      <trkpt lat="43.31381899304688" lon="-1.350193005055189">
        <ele>98.189999999999998</ele>
        <time>2025-04-27T09:05:34Z</time>
      </trkpt>
      <trkpt lat="43.313702987506986" lon="-1.350156962871552">
        <ele>97.709999999999994</ele>
        <time>2025-04-27T09:05:35Z</time>
      </trkpt>
      <trkpt lat="43.313593016937375" lon="-1.350150005891919">
        <ele>97.230000000000004</ele>
        <time>2025-04-27T09:05:36Z</time>
      </trkpt>
      <trkpt lat="43.313472988083959" lon="-1.350180013105273">
        <ele>96.75</ele>
        <time>2025-04-27T09:05:37Z</time>
      </trkpt>
      <trkpt lat="43.313357988372445" lon="-1.350225023925304">
        <ele>96.75</ele>
        <time>2025-04-27T09:05:38Z</time>
      </trkpt>
      <trkpt lat="43.313242988660932" lon="-1.350317979231477">
        <ele>96.75</ele>
        <time>2025-04-27T09:05:39Z</time>
      </trkpt>
      <trkpt lat="43.31313100643456" lon="-1.350401965901256">
        <ele>96.75</ele>
        <time>2025-04-27T09:05:40Z</time>
      </trkpt>
      <trkpt lat="43.31302204169333" lon="-1.350489975884557">
        <ele>96.75</ele>
        <time>2025-04-27T09:05:41Z</time>
      </trkpt>
      <trkpt lat="43.312907963991165" lon="-1.35058200918138">
        <ele>96.75</ele>
        <time>2025-04-27T09:05:42Z</time>
      </trkpt>
      <trkpt lat="43.312786007300019" lon="-1.350680999457836">
        <ele>96.269999999999996</ele>
        <time>2025-04-27T09:05:43Z</time>
      </trkpt>
      <trkpt lat="43.312633037567139" lon="-1.350727016106248">
        <ele>96.269999999999996</ele>
        <time>2025-04-27T09:05:44Z</time>
      </trkpt>
      <trkpt lat="43.312490964308381" lon="-1.350740008056164">
        <ele>96.269999999999996</ele>
        <time>2025-04-27T09:05:45Z</time>
      </trkpt>
      <trkpt lat="43.312347969040275" lon="-1.35075300000608">
        <ele>96.269999999999996</ele>
        <time>2025-04-27T09:05:46Z</time>
      </trkpt>
      <trkpt lat="43.312196005135775" lon="-1.350758029147983">
        <ele>96.269999999999996</ele>
        <time>2025-04-27T09:05:47Z</time>
      </trkpt>
      <trkpt lat="43.312045969069004" lon="-1.350751994177699">
        <ele>96.75</ele>
        <time>2025-04-27T09:05:48Z</time>
      </trkpt>
      <trkpt lat="43.311919989064336" lon="-1.350746965035796">
        <ele>97.230000000000004</ele>
        <time>2025-04-27T09:05:49Z</time>
      </trkpt>
      <trkpt lat="43.31179803237319" lon="-1.350742019712925">
        <ele>97.230000000000004</ele>
        <time>2025-04-27T09:05:50Z</time>
      </trkpt>
      <trkpt lat="43.311550011858344" lon="-1.35081703774631">
        <ele>97.709999999999994</ele>
        <time>2025-04-27T09:05:52Z</time>
      </trkpt>
      <trkpt lat="43.311431994661689" lon="-1.350867999717593">
        <ele>97.230000000000004</ele>
        <time>2025-04-27T09:05:53Z</time>
      </trkpt>
      <trkpt lat="43.311331998556852" lon="-1.350978976115584">
        <ele>97.230000000000004</ele>
        <time>2025-04-27T09:05:54Z</time>
      </trkpt>
      <trkpt lat="43.311121026054025" lon="-1.351231019943953">
        <ele>97.709999999999994</ele>
        <time>2025-04-27T09:05:56Z</time>
      </trkpt>
      <trkpt lat="43.310631019994617" lon="-1.352154035121203">
        <ele>98.670000000000002</ele>
        <time>2025-04-27T09:06:01Z</time>
      </trkpt>
      <trkpt lat="43.310523983091116" lon="-1.35232200846076">
        <ele>98.670000000000002</ele>
        <time>2025-04-27T09:06:02Z</time>
      </trkpt>
      <trkpt lat="43.310401020571589" lon="-1.35247103869915">
        <ele>99.150000000000006</ele>
        <time>2025-04-27T09:06:03Z</time>
      </trkpt>
      <trkpt lat="43.310286020860076" lon="-1.352610010653734">
        <ele>99.150000000000006</ele>
        <time>2025-04-27T09:06:04Z</time>
      </trkpt>
      <trkpt lat="43.310175966471434" lon="-1.352743031457067">
        <ele>99.629999999999995</ele>
        <time>2025-04-27T09:06:05Z</time>
      </trkpt>
      <trkpt lat="43.310059038922191" lon="-1.352885020896792">
        <ele>100.11</ele>
        <time>2025-04-27T09:06:06Z</time>
      </trkpt>
      <trkpt lat="43.309962982311845" lon="-1.353059029206634">
        <ele>100.59999999999999</ele>
        <time>2025-04-27T09:06:07Z</time>
      </trkpt>
      <trkpt lat="43.30915798433125" lon="-1.354644969105721">
        <ele>99.150000000000006</ele>
        <time>2025-04-27T09:06:16Z</time>
      </trkpt>
      <trkpt lat="43.308604024350643" lon="-1.356545984745026">
        <ele>97.709999999999994</ele>
        <time>2025-04-27T09:06:25Z</time>
      </trkpt>
      <trkpt lat="43.3078049775213" lon="-1.359171029180288">
        <ele>96.75</ele>
        <time>2025-04-27T09:06:37Z</time>
      </trkpt>
      <trkpt lat="43.307686038315296" lon="-1.359345959499478">
        <ele>96.75</ele>
        <time>2025-04-27T09:06:38Z</time>
      </trkpt>
      <trkpt lat="43.30756600946188" lon="-1.359524996951222">
        <ele>96.75</ele>
        <time>2025-04-27T09:06:39Z</time>
      </trkpt>
      <trkpt lat="43.307441035285592" lon="-1.359707973897457">
        <ele>96.269999999999996</ele>
        <time>2025-04-27T09:06:40Z</time>
      </trkpt>
      <trkpt lat="43.307299967855215" lon="-1.359837977215648">
        <ele>95.790000000000006</ele>
        <time>2025-04-27T09:06:41Z</time>
      </trkpt>
      <trkpt lat="43.307154960930347" lon="-1.35997099801898">
        <ele>95.310000000000002</ele>
        <time>2025-04-27T09:06:42Z</time>
      </trkpt>
      <trkpt lat="43.306723041459918" lon="-1.360297976061702">
        <ele>94.349999999999994</ele>
        <time>2025-04-27T09:06:45Z</time>
      </trkpt>
      <trkpt lat="43.306571999564767" lon="-1.360348016023636">
        <ele>93.870000000000005</ele>
        <time>2025-04-27T09:06:46Z</time>
      </trkpt>
      <trkpt lat="43.306432021781802" lon="-1.360395038500428">
        <ele>93.870000000000005</ele>
        <time>2025-04-27T09:06:47Z</time>
      </trkpt>
      <trkpt lat="43.30629900097847" lon="-1.360362013801932">
        <ele>93.390000000000001</ele>
        <time>2025-04-27T09:06:48Z</time>
      </trkpt>
      <trkpt lat="43.306152988225222" lon="-1.360324965789914">
        <ele>93.870000000000005</ele>
        <time>2025-04-27T09:06:49Z</time>
      </trkpt>
      <trkpt lat="43.30602197907865" lon="-1.360252965241671">
        <ele>93.390000000000001</ele>
        <time>2025-04-27T09:06:50Z</time>
      </trkpt>
      <trkpt lat="43.305887030437589" lon="-1.360138971358538">
        <ele>92.900000000000006</ele>
        <time>2025-04-27T09:06:51Z</time>
      </trkpt>
      <trkpt lat="43.305745040997863" lon="-1.360020032152534">
        <ele>92.900000000000006</ele>
        <time>2025-04-27T09:06:52Z</time>
      </trkpt>
      <trkpt lat="43.305615959689021" lon="-1.35988499969244">
        <ele>92.420000000000002</ele>
        <time>2025-04-27T09:06:53Z</time>
      </trkpt>
      <trkpt lat="43.305487968027592" lon="-1.359728006646037">
        <ele>92.420000000000002</ele>
        <time>2025-04-27T09:06:54Z</time>
      </trkpt>
      <trkpt lat="43.305365005508065" lon="-1.359565984457731">
        <ele>91.939999999999998</ele>
        <time>2025-04-27T09:06:55Z</time>
      </trkpt>
      <trkpt lat="43.305256040766835" lon="-1.359383007511497">
        <ele>91.939999999999998</ele>
        <time>2025-04-27T09:06:56Z</time>
      </trkpt>
      <trkpt lat="43.30466796644032" lon="-1.357877030968666">
        <ele>90.5</ele>
        <time>2025-04-27T09:07:03Z</time>
      </trkpt>
      <trkpt lat="43.304446013644338" lon="-1.356716975569725">
        <ele>89.060000000000002</ele>
        <time>2025-04-27T09:07:08Z</time>
      </trkpt>
      <trkpt lat="43.30445003695786" lon="-1.35648999363184">
        <ele>88.579999999999998</ele>
        <time>2025-04-27T09:07:09Z</time>
      </trkpt>
      <trkpt lat="43.304469985887408" lon="-1.35625597089529">
        <ele>88.579999999999998</ele>
        <time>2025-04-27T09:07:10Z</time>
      </trkpt>
      <trkpt lat="43.304505022242665" lon="-1.356034018099308">
        <ele>88.579999999999998</ele>
        <time>2025-04-27T09:07:11Z</time>
      </trkpt>
      <trkpt lat="43.304556990042329" lon="-1.355804018676281">
        <ele>88.579999999999998</ele>
        <time>2025-04-27T09:07:12Z</time>
      </trkpt>
      <trkpt lat="43.304612981155515" lon="-1.355577958747745">
        <ele>88.579999999999998</ele>
        <time>2025-04-27T09:07:13Z</time>
      </trkpt>
      <trkpt lat="43.304674001410604" lon="-1.355350976809859">
        <ele>88.579999999999998</ele>
        <time>2025-04-27T09:07:14Z</time>
      </trkpt>
      <trkpt lat="43.304973989725113" lon="-1.354222018271685">
        <ele>89.060000000000002</ele>
        <time>2025-04-27T09:07:19Z</time>
      </trkpt>
      <trkpt lat="43.304986981675029" lon="-1.353992018848658">
        <ele>89.060000000000002</ele>
        <time>2025-04-27T09:07:20Z</time>
      </trkpt>
      <trkpt lat="43.304981030523777" lon="-1.353760007768869">
        <ele>89.060000000000002</ele>
        <time>2025-04-27T09:07:21Z</time>
      </trkpt>
      <trkpt lat="43.304946999996901" lon="-1.353539982810617">
        <ele>88.579999999999998</ele>
        <time>2025-04-27T09:07:22Z</time>
      </trkpt>
      <trkpt lat="43.304912969470024" lon="-1.353320963680744">
        <ele>88.579999999999998</ele>
        <time>2025-04-27T09:07:23Z</time>
      </trkpt>
      <trkpt lat="43.3048399630934" lon="-1.35311502031982">
        <ele>87.620000000000005</ele>
        <time>2025-04-27T09:07:24Z</time>
      </trkpt>
      <trkpt lat="43.304758993908763" lon="-1.352906981483102">
        <ele>87.140000000000001</ele>
        <time>2025-04-27T09:07:25Z</time>
      </trkpt>
      <trkpt lat="43.304678024724126" lon="-1.352696008980274">
        <ele>86.659999999999997</ele>
        <time>2025-04-27T09:07:26Z</time>
      </trkpt>
      <trkpt lat="43.304239986464381" lon="-1.351671991869807">
        <ele>83.769999999999996</ele>
        <time>2025-04-27T09:07:31Z</time>
      </trkpt>
      <trkpt lat="43.304133033379912" lon="-1.351501001045108">
        <ele>83.769999999999996</ele>
        <time>2025-04-27T09:07:32Z</time>
      </trkpt>
      <trkpt lat="43.304016022011638" lon="-1.351335039362311">
        <ele>83.769999999999996</ele>
        <time>2025-04-27T09:07:33Z</time>
      </trkpt>
      <trkpt lat="43.303888030350208" lon="-1.351190032437444">
        <ele>83.769999999999996</ele>
        <time>2025-04-27T09:07:34Z</time>
      </trkpt>
      <trkpt lat="43.303734976798296" lon="-1.351070003584027">
        <ele>84.25</ele>
        <time>2025-04-27T09:07:35Z</time>
      </trkpt>
      <trkpt lat="43.303577983751893" lon="-1.35094796307385">
        <ele>83.290000000000006</ele>
        <time>2025-04-27T09:07:36Z</time>
      </trkpt>
      <trkpt lat="43.30341998487711" lon="-1.350823994725943">
        <ele>82.810000000000002</ele>
        <time>2025-04-27T09:07:37Z</time>
      </trkpt>
      <trkpt lat="43.303257040679455" lon="-1.350696003064513">
        <ele>82.329999999999998</ele>
        <time>2025-04-27T09:07:38Z</time>
      </trkpt>
      <trkpt lat="43.303081020712852" lon="-1.350615033879876">
        <ele>81.370000000000005</ele>
        <time>2025-04-27T09:07:39Z</time>
      </trkpt>
      <trkpt lat="43.301479993388057" lon="-1.349950013682246">
        <ele>77.519999999999996</ele>
        <time>2025-04-27T09:07:48Z</time>
      </trkpt>
      <trkpt lat="43.301299028098583" lon="-1.349913971498609">
        <ele>77.519999999999996</ele>
        <time>2025-04-27T09:07:49Z</time>
      </trkpt>
      <trkpt lat="43.30056301318109" lon="-1.349920006468892">
        <ele>78.480000000000004</ele>
        <time>2025-04-27T09:07:53Z</time>
      </trkpt>
      <trkpt lat="43.300374001264572" lon="-1.349930986762047">
        <ele>78.480000000000004</ele>
        <time>2025-04-27T09:07:54Z</time>
      </trkpt>
      <trkpt lat="43.300187001004815" lon="-1.349956970661879">
        <ele>78.969999999999999</ele>
        <time>2025-04-27T09:07:55Z</time>
      </trkpt>
      <trkpt lat="43.299995977431536" lon="-1.349984966218472">
        <ele>79.450000000000003</ele>
        <time>2025-04-27T09:07:56Z</time>
      </trkpt>
      <trkpt lat="43.299807971343398" lon="-1.350009022280574">
        <ele>79.450000000000003</ele>
        <time>2025-04-27T09:07:57Z</time>
      </trkpt>
      <trkpt lat="43.298321021720767" lon="-1.350138019770384">
        <ele>77.040000000000006</ele>
        <time>2025-04-27T09:08:05Z</time>
      </trkpt>
      <trkpt lat="43.296767016872764" lon="-1.35015201754868">
        <ele>74.159999999999997</ele>
        <time>2025-04-27T09:08:13Z</time>
      </trkpt>
      <trkpt lat="43.295993031933904" lon="-1.350301969796419">
        <ele>73.200000000000003</ele>
        <time>2025-04-27T09:08:17Z</time>
      </trkpt>
      <trkpt lat="43.295807037502527" lon="-1.35036701336503">
        <ele>72.719999999999999</ele>
        <time>2025-04-27T09:08:18Z</time>
      </trkpt>
      <trkpt lat="43.2946100179106" lon="-1.351208975538611">
        <ele>72.239999999999995</ele>
        <time>2025-04-27T09:08:25Z</time>
      </trkpt>
      <trkpt lat="43.292816039174795" lon="-1.352832969278097">
        <ele>70.310000000000002</ele>
        <time>2025-04-27T09:08:36Z</time>
      </trkpt>
      <trkpt lat="43.292288985103369" lon="-1.35316195897758">
        <ele>69.829999999999998</ele>
        <time>2025-04-27T09:08:39Z</time>
      </trkpt>
      <trkpt lat="43.292099973186851" lon="-1.353210993111134">
        <ele>69.829999999999998</ele>
        <time>2025-04-27T09:08:40Z</time>
      </trkpt>
      <trkpt lat="43.291907021775842" lon="-1.353229014202952">
        <ele>69.829999999999998</ele>
        <time>2025-04-27T09:08:41Z</time>
      </trkpt>
      <trkpt lat="43.291691020131111" lon="-1.353249968960881">
        <ele>69.349999999999994</ele>
        <time>2025-04-27T09:08:42Z</time>
      </trkpt>
      <trkpt lat="43.291516005992889" lon="-1.353225996717811">
        <ele>69.349999999999994</ele>
        <time>2025-04-27T09:08:43Z</time>
      </trkpt>
      <trkpt lat="43.290736991912127" lon="-1.353017035871744">
        <ele>67.909999999999997</ele>
        <time>2025-04-27T09:08:47Z</time>
      </trkpt>
      <trkpt lat="43.288694992661476" lon="-1.35195697657764">
        <ele>65.510000000000005</ele>
        <time>2025-04-27T09:08:58Z</time>
      </trkpt>
      <trkpt lat="43.287141993641853" lon="-1.351619018241763">
        <ele>66.950000000000003</ele>
        <time>2025-04-27T09:09:06Z</time>
      </trkpt>
      <trkpt lat="43.28655400313437" lon="-1.351678026840091">
        <ele>67.430000000000007</ele>
        <time>2025-04-27T09:09:09Z</time>
      </trkpt>
      <trkpt lat="43.286360967904329" lon="-1.351736029610038">
        <ele>67.909999999999997</ele>
        <time>2025-04-27T09:09:10Z</time>
      </trkpt>
      <trkpt lat="43.285169983282685" lon="-1.352575980126858">
        <ele>68.390000000000001</ele>
        <time>2025-04-27T09:09:17Z</time>
      </trkpt>
      <trkpt lat="43.28339503146708" lon="-1.353745004162192">
        <ele>68.390000000000001</ele>
        <time>2025-04-27T09:09:27Z</time>
      </trkpt>
      <trkpt lat="43.283018013462424" lon="-1.353905014693737">
        <ele>67.909999999999997</ele>
        <time>2025-04-27T09:09:29Z</time>
      </trkpt>
      <trkpt lat="43.282823972404003" lon="-1.353937033563852">
        <ele>68.390000000000001</ele>
        <time>2025-04-27T09:09:30Z</time>
      </trkpt>
      <trkpt lat="43.282630015164614" lon="-1.353968968614936">
        <ele>68.390000000000001</ele>
        <time>2025-04-27T09:09:31Z</time>
      </trkpt>
      <trkpt lat="43.282438991591334" lon="-1.353962011635304">
        <ele>68.870000000000005</ele>
        <time>2025-04-27T09:09:32Z</time>
      </trkpt>
      <trkpt lat="43.282242016866803" lon="-1.353936027735472">
        <ele>69.349999999999994</ele>
        <time>2025-04-27T09:09:33Z</time>
      </trkpt>
      <trkpt lat="43.282043030485511" lon="-1.353900991380215">
        <ele>69.829999999999998</ele>
        <time>2025-04-27T09:09:34Z</time>
      </trkpt>
      <trkpt lat="43.281852006912231" lon="-1.35382697917521">
        <ele>69.829999999999998</ele>
        <time>2025-04-27T09:09:35Z</time>
      </trkpt>
      <trkpt lat="43.280187025666237" lon="-1.352993985638022">
        <ele>72.719999999999999</ele>
        <time>2025-04-27T09:09:44Z</time>
      </trkpt>
      <trkpt lat="43.27987102791667" lon="-1.352730039507151">
        <ele>73.200000000000003</ele>
        <time>2025-04-27T09:09:46Z</time>
      </trkpt>
      <trkpt lat="43.279714034870267" lon="-1.352591989561915">
        <ele>73.200000000000003</ele>
        <time>2025-04-27T09:09:47Z</time>
      </trkpt>
      <trkpt lat="43.27881901524961" lon="-1.351518016308546">
        <ele>72.719999999999999</ele>
        <time>2025-04-27T09:09:53Z</time>
      </trkpt>
      <trkpt lat="43.27864701859653" lon="-1.351386001333594">
        <ele>73.200000000000003</ele>
        <time>2025-04-27T09:09:54Z</time>
      </trkpt>
      <trkpt lat="43.278463035821915" lon="-1.351277036592364">
        <ele>73.200000000000003</ele>
        <time>2025-04-27T09:09:55Z</time>
      </trkpt>
      <trkpt lat="43.276445008814335" lon="-1.350155035033822">
        <ele>73.200000000000003</ele>
        <time>2025-04-27T09:10:06Z</time>
      </trkpt>
      <trkpt lat="43.274261020123959" lon="-1.349005959928036">
        <ele>74.159999999999997</ele>
        <time>2025-04-27T09:10:18Z</time>
      </trkpt>
      <trkpt lat="43.272724030539393" lon="-1.348062995821238">
        <ele>75.120000000000005</ele>
        <time>2025-04-27T09:10:27Z</time>
      </trkpt>
      <trkpt lat="43.271421985700727" lon="-1.347162025049329">
        <ele>77.040000000000006</ele>
        <time>2025-04-27T09:10:36Z</time>
      </trkpt>
      <trkpt lat="43.269991027191281" lon="-1.346285026520491">
        <ele>76.560000000000002</ele>
        <time>2025-04-27T09:10:46Z</time>
      </trkpt>
      <trkpt lat="43.26887296512723" lon="-1.345067974179983">
        <ele>78</ele>
        <time>2025-04-27T09:10:55Z</time>
      </trkpt>
      <trkpt lat="43.26773202046752" lon="-1.34333903901279">
        <ele>78.969999999999999</ele>
        <time>2025-04-27T09:11:05Z</time>
      </trkpt>
      <trkpt lat="43.267149981111288" lon="-1.341374991461635">
        <ele>79.450000000000003</ele>
        <time>2025-04-27T09:11:14Z</time>
      </trkpt>
      <trkpt lat="43.266501976177096" lon="-1.339427959173918">
        <ele>78</ele>
        <time>2025-04-27T09:11:23Z</time>
      </trkpt>
      <trkpt lat="43.266124958172441" lon="-1.338042011484504">
        <ele>78</ele>
        <time>2025-04-27T09:11:29Z</time>
      </trkpt>
      <trkpt lat="43.266098974272609" lon="-1.337789967656136">
        <ele>78.480000000000004</ele>
        <time>2025-04-27T09:11:30Z</time>
      </trkpt>
      <trkpt lat="43.266087993979454" lon="-1.337543958798051">
        <ele>78.480000000000004</ele>
        <time>2025-04-27T09:11:31Z</time>
      </trkpt>
      <trkpt lat="43.266081959009171" lon="-1.337289987131953">
        <ele>78.969999999999999</ele>
        <time>2025-04-27T09:11:32Z</time>
      </trkpt>
      <trkpt lat="43.266077013686299" lon="-1.337036015465856">
        <ele>78.969999999999999</ele>
        <time>2025-04-27T09:11:33Z</time>
      </trkpt>
      <trkpt lat="43.266377002000809" lon="-1.335320994257927">
        <ele>81.370000000000005</ele>
        <time>2025-04-27T09:11:40Z</time>
      </trkpt>
      <trkpt lat="43.266642037779093" lon="-1.334116011857987">
        <ele>82.810000000000002</ele>
        <time>2025-04-27T09:11:45Z</time>
      </trkpt>
      <trkpt lat="43.266671961173415" lon="-1.333871008828282">
        <ele>82.810000000000002</ele>
        <time>2025-04-27T09:11:46Z</time>
      </trkpt>
      <trkpt lat="43.266728958114982" lon="-1.331576965749264">
        <ele>83.290000000000006</ele>
        <time>2025-04-27T09:11:55Z</time>
      </trkpt>
      <trkpt lat="43.266704985871911" lon="-1.331325005739927">
        <ele>83.290000000000006</ele>
        <time>2025-04-27T09:11:56Z</time>
      </trkpt>
      <trkpt lat="43.26668000780046" lon="-1.33107103407383">
        <ele>83.290000000000006</ele>
        <time>2025-04-27T09:11:57Z</time>
      </trkpt>
      <trkpt lat="43.266627034172416" lon="-1.330834999680519">
        <ele>83.290000000000006</ele>
        <time>2025-04-27T09:11:58Z</time>
      </trkpt>
      <trkpt lat="43.266553021967411" lon="-1.330598965287209">
        <ele>83.769999999999996</ele>
        <time>2025-04-27T09:11:59Z</time>
      </trkpt>
      <trkpt lat="43.266479009762406" lon="-1.330359997227788">
        <ele>83.769999999999996</ele>
        <time>2025-04-27T09:12:00Z</time>
      </trkpt>
      <trkpt lat="43.266403991729021" lon="-1.330122034996748">
        <ele>83.769999999999996</ele>
        <time>2025-04-27T09:12:01Z</time>
      </trkpt>
      <trkpt lat="43.265509977936745" lon="-1.328149018809199">
        <ele>83.769999999999996</ele>
        <time>2025-04-27T09:12:10Z</time>
      </trkpt>
      <trkpt lat="43.264408009126782" lon="-1.326701967045665">
        <ele>84.25</ele>
        <time>2025-04-27T09:12:18Z</time>
      </trkpt>
      <trkpt lat="43.263076962903142" lon="-1.324678994715214">
        <ele>86.659999999999997</ele>
        <time>2025-04-27T09:12:28Z</time>
      </trkpt>
      <trkpt lat="43.262251010164618" lon="-1.32323001511395">
        <ele>88.099999999999994</ele>
        <time>2025-04-27T09:12:35Z</time>
      </trkpt>
      <trkpt lat="43.26210499741137" lon="-1.323074027895927">
        <ele>88.099999999999994</ele>
        <time>2025-04-27T09:12:36Z</time>
      </trkpt>
      <trkpt lat="43.261065976694226" lon="-1.321882037445903">
        <ele>89.060000000000002</ele>
        <time>2025-04-27T09:12:43Z</time>
      </trkpt>
      <trkpt lat="43.260946031659842" lon="-1.321677016094327">
        <ele>89.060000000000002</ele>
        <time>2025-04-27T09:12:44Z</time>
      </trkpt>
      <trkpt lat="43.260831031948328" lon="-1.321459002792835">
        <ele>89.540000000000006</ele>
        <time>2025-04-27T09:12:45Z</time>
      </trkpt>
      <trkpt lat="43.260228959843516" lon="-1.320392992347479">
        <ele>90.980000000000004</ele>
        <time>2025-04-27T09:12:50Z</time>
      </trkpt>
      <trkpt lat="43.260073978453875" lon="-1.320239016786218">
        <ele>90.980000000000004</ele>
        <time>2025-04-27T09:12:51Z</time>
      </trkpt>
      <trkpt lat="43.259916985407472" lon="-1.320096021518111">
        <ele>91.459999999999994</ele>
        <time>2025-04-27T09:12:52Z</time>
      </trkpt>
      <trkpt lat="43.259743982926011" lon="-1.319990996271372">
        <ele>91.459999999999994</ele>
        <time>2025-04-27T09:12:53Z</time>
      </trkpt>
      <trkpt lat="43.259571986272931" lon="-1.319886976853013">
        <ele>91.939999999999998</ele>
        <time>2025-04-27T09:12:54Z</time>
      </trkpt>
      <trkpt lat="43.257952015846968" lon="-1.31914802826941">
        <ele>92.420000000000002</ele>
        <time>2025-04-27T09:13:03Z</time>
      </trkpt>
      <trkpt lat="43.256682995706797" lon="-1.319158002734184">
        <ele>92.420000000000002</ele>
        <time>2025-04-27T09:13:10Z</time>
      </trkpt>
      <trkpt lat="43.256514016538858" lon="-1.319202007725835">
        <ele>92.420000000000002</ele>
        <time>2025-04-27T09:13:11Z</time>
      </trkpt>
      <trkpt lat="43.256340008229017" lon="-1.319267973303795">
        <ele>92.420000000000002</ele>
        <time>2025-04-27T09:13:12Z</time>
      </trkpt>
      <trkpt lat="43.256199024617672" lon="-1.319400994107127">
        <ele>93.390000000000001</ele>
        <time>2025-04-27T09:13:13Z</time>
      </trkpt>
      <trkpt lat="43.256055023521185" lon="-1.319536026567221">
        <ele>93.390000000000001</ele>
        <time>2025-04-27T09:13:14Z</time>
      </trkpt>
      <trkpt lat="43.255923008546233" lon="-1.31970601156354">
        <ele>94.349999999999994</ele>
        <time>2025-04-27T09:13:15Z</time>
      </trkpt>
      <trkpt lat="43.255813959985971" lon="-1.3198980409652">
        <ele>94.829999999999998</ele>
        <time>2025-04-27T09:13:16Z</time>
      </trkpt>
      <trkpt lat="43.255727039650083" lon="-1.320102978497744">
        <ele>95.790000000000006</ele>
        <time>2025-04-27T09:13:17Z</time>
      </trkpt>
      <trkpt lat="43.255639029666781" lon="-1.320310011506081">
        <ele>96.75</ele>
        <time>2025-04-27T09:13:18Z</time>
      </trkpt>
      <trkpt lat="43.25555101968348" lon="-1.320522995665669">
        <ele>97.230000000000004</ele>
        <time>2025-04-27T09:13:19Z</time>
      </trkpt>
      <trkpt lat="43.255494022741914" lon="-1.320736985653639">
        <ele>97.709999999999994</ele>
        <time>2025-04-27T09:13:20Z</time>
      </trkpt>
      <trkpt lat="43.255439037457108" lon="-1.320938989520073">
        <ele>98.189999999999998</ele>
        <time>2025-04-27T09:13:21Z</time>
      </trkpt>
      <trkpt lat="43.255380028858781" lon="-1.321116015315056">
        <ele>98.189999999999998</ele>
        <time>2025-04-27T09:13:22Z</time>
      </trkpt>
      <trkpt lat="43.255290007218719" lon="-1.321263033896685">
        <ele>98.189999999999998</ele>
        <time>2025-04-27T09:13:23Z</time>
      </trkpt>
      <trkpt lat="43.255170984193683" lon="-1.321370992809534">
        <ele>98.189999999999998</ele>
        <time>2025-04-27T09:13:24Z</time>
      </trkpt>
      <trkpt lat="43.255052966997027" lon="-1.321462020277977">
        <ele>98.189999999999998</ele>
        <time>2025-04-27T09:13:25Z</time>
      </trkpt>
      <trkpt lat="43.254916006699204" lon="-1.321515999734402">
        <ele>98.189999999999998</ele>
        <time>2025-04-27T09:13:26Z</time>
      </trkpt>
      <trkpt lat="43.254768988117576" lon="-1.321535026654601">
        <ele>98.189999999999998</ele>
        <time>2025-04-27T09:13:27Z</time>
      </trkpt>
      <trkpt lat="43.254617024213076" lon="-1.321511976420879">
        <ele>98.189999999999998</ele>
        <time>2025-04-27T09:13:28Z</time>
      </trkpt>
      <trkpt lat="43.254453996196389" lon="-1.321446010842919">
        <ele>97.709999999999994</ele>
        <time>2025-04-27T09:13:29Z</time>
      </trkpt>
      <trkpt lat="43.254286022856832" lon="-1.321363030001521">
        <ele>97.709999999999994</ele>
        <time>2025-04-27T09:13:30Z</time>
      </trkpt>
      <trkpt lat="43.254131963476539" lon="-1.321248030290008">
        <ele>97.230000000000004</ele>
        <time>2025-04-27T09:13:31Z</time>
      </trkpt>
      <trkpt lat="43.254001038148999" lon="-1.321117021143436">
        <ele>97.230000000000004</ele>
        <time>2025-04-27T09:13:32Z</time>
      </trkpt>
      <trkpt lat="43.253877991810441" lon="-1.320993974804878">
        <ele>97.230000000000004</ele>
        <time>2025-04-27T09:13:33Z</time>
      </trkpt>
      <trkpt lat="43.253780007362366" lon="-1.320851985365152">
        <ele>96.75</ele>
        <time>2025-04-27T09:13:34Z</time>
      </trkpt>
      <trkpt lat="43.253668025135994" lon="-1.320676971226931">
        <ele>96.269999999999996</ele>
        <time>2025-04-27T09:13:35Z</time>
      </trkpt>
      <trkpt lat="43.253603987395763" lon="-1.320559959858656">
        <ele>96.269999999999996</ele>
        <time>2025-04-27T09:13:36Z</time>
      </trkpt>
      <trkpt lat="43.253525029867887" lon="-1.32041797041893">
        <ele>96.269999999999996</ele>
        <time>2025-04-27T09:13:37Z</time>
      </trkpt>
      <trkpt lat="43.253434002399445" lon="-1.320272963494062">
        <ele>95.790000000000006</ele>
        <time>2025-04-27T09:13:38Z</time>
      </trkpt>
      <trkpt lat="43.253340041264892" lon="-1.320123011246324">
        <ele>95.790000000000006</ele>
        <time>2025-04-27T09:13:39Z</time>
      </trkpt>
      <trkpt lat="43.252788009122014" lon="-1.319423960521817">
        <ele>95.310000000000002</ele>
        <time>2025-04-27T09:13:44Z</time>
      </trkpt>
      <trkpt lat="43.251412035897374" lon="-1.318488037213683">
        <ele>93.870000000000005</ele>
        <time>2025-04-27T09:13:54Z</time>
      </trkpt>
      <trkpt lat="43.250489020720124" lon="-1.318326015025377">
        <ele>93.870000000000005</ele>
        <time>2025-04-27T09:14:01Z</time>
      </trkpt>
      <trkpt lat="43.249141965061426" lon="-1.318488037213683">
        <ele>98.670000000000002</ele>
        <time>2025-04-27T09:14:10Z</time>
      </trkpt>
      <trkpt lat="43.248985977843404" lon="-1.318431040272117">
        <ele>99.629999999999995</ele>
        <time>2025-04-27T09:14:11Z</time>
      </trkpt>
      <trkpt lat="43.248836025595665" lon="-1.318373959511519">
        <ele>100.11</ele>
        <time>2025-04-27T09:14:12Z</time>
      </trkpt>
      <trkpt lat="43.248689007014036" lon="-1.318295001983643">
        <ele>100.59999999999999</ele>
        <time>2025-04-27T09:14:13Z</time>
      </trkpt>
      <trkpt lat="43.247362989932299" lon="-1.317413980141282">
        <ele>102.04000000000001</ele>
        <time>2025-04-27T09:14:23Z</time>
      </trkpt>
      <trkpt lat="43.246693024411798" lon="-1.316271023824811">
        <ele>103.48</ele>
        <time>2025-04-27T09:14:30Z</time>
      </trkpt>
      <trkpt lat="43.246125988662243" lon="-1.315150028094649">
        <ele>105.88</ele>
        <time>2025-04-27T09:14:36Z</time>
      </trkpt>
      <trkpt lat="43.246052982285619" lon="-1.314897984266281">
        <ele>105.88</ele>
        <time>2025-04-27T09:14:37Z</time>
      </trkpt>
      <trkpt lat="43.245975030586123" lon="-1.314630014821887">
        <ele>106.36</ele>
        <time>2025-04-27T09:14:38Z</time>
      </trkpt>
      <trkpt lat="43.245296012610197" lon="-1.312674013897777">
        <ele>107.81</ele>
        <time>2025-04-27T09:14:45Z</time>
      </trkpt>
      <trkpt lat="43.244364028796554" lon="-1.310090962797403">
        <ele>109.73</ele>
        <time>2025-04-27T09:14:54Z</time>
      </trkpt>
      <trkpt lat="43.244027998298407" lon="-1.308282986283302">
        <ele>111.65000000000001</ele>
        <time>2025-04-27T09:15:02Z</time>
      </trkpt>
      <trkpt lat="43.244088012725115" lon="-1.30608499981463">
        <ele>115.01000000000001</ele>
        <time>2025-04-27T09:15:11Z</time>
      </trkpt>
      <trkpt lat="43.244151966646314" lon="-1.303973011672497">
        <ele>120.78</ele>
        <time>2025-04-27T09:15:20Z</time>
      </trkpt>
      <trkpt lat="43.243964966386557" lon="-1.302485978230834">
        <ele>122.22</ele>
        <time>2025-04-27T09:15:27Z</time>
      </trkpt>
      <trkpt lat="43.243249990046024" lon="-1.30054104141891">
        <ele>121.26000000000001</ele>
        <time>2025-04-27T09:15:37Z</time>
      </trkpt>
      <trkpt lat="43.242868026718497" lon="-1.299796979874373">
        <ele>119.34</ele>
        <time>2025-04-27T09:15:41Z</time>
      </trkpt>
      <trkpt lat="43.241960015147924" lon="-1.298761982470751">
        <ele>115.5</ele>
        <time>2025-04-27T09:15:49Z</time>
      </trkpt>
      <trkpt lat="43.241216959431767" lon="-1.297969976440072">
        <ele>112.13</ele>
        <time>2025-04-27T09:15:57Z</time>
      </trkpt>
      <trkpt lat="43.240286987274885" lon="-1.297023994848132">
        <ele>109.73</ele>
        <time>2025-04-27T09:16:07Z</time>
      </trkpt>
      <trkpt lat="43.240181962028146" lon="-1.29695501178503">
        <ele>109.25</ele>
        <time>2025-04-27T09:16:08Z</time>
      </trkpt>
      <trkpt lat="43.238907996565104" lon="-1.296168034896255">
        <ele>102.52</ele>
        <time>2025-04-27T09:16:20Z</time>
      </trkpt>
      <trkpt lat="43.238799031823874" lon="-1.296122018247843">
        <ele>102.04000000000001</ele>
        <time>2025-04-27T09:16:21Z</time>
      </trkpt>
      <trkpt lat="43.238687971606851" lon="-1.296074995771051">
        <ele>101.56</ele>
        <time>2025-04-27T09:16:22Z</time>
      </trkpt>
      <trkpt lat="43.238561991602182" lon="-1.296022022143006">
        <ele>101.56</ele>
        <time>2025-04-27T09:16:23Z</time>
      </trkpt>
      <trkpt lat="43.238451015204191" lon="-1.296013975515962">
        <ele>101.56</ele>
        <time>2025-04-27T09:16:24Z</time>
      </trkpt>
      <trkpt lat="43.238331992179155" lon="-1.296005006879568">
        <ele>101.08</ele>
        <time>2025-04-27T09:16:25Z</time>
      </trkpt>
      <trkpt lat="43.2382139749825" lon="-1.296012969687581">
        <ele>101.08</ele>
        <time>2025-04-27T09:16:26Z</time>
      </trkpt>
      <trkpt lat="43.237294983118773" lon="-1.296243974938989">
        <ele>101.08</ele>
        <time>2025-04-27T09:16:34Z</time>
      </trkpt>
      <trkpt lat="43.235906017944217" lon="-1.296455031260848">
        <ele>102.04000000000001</ele>
        <time>2025-04-27T09:16:46Z</time>
      </trkpt>
      <trkpt lat="43.235222976654768" lon="-1.296600038185716">
        <ele>103</ele>
        <time>2025-04-27T09:16:52Z</time>
      </trkpt>
      <trkpt lat="43.235116023570299" lon="-1.296661980450153">
        <ele>103</ele>
        <time>2025-04-27T09:16:53Z</time>
      </trkpt>
      <trkpt lat="43.235004963353276" lon="-1.296727024018765">
        <ele>102.52</ele>
        <time>2025-04-27T09:16:54Z</time>
      </trkpt>
      <trkpt lat="43.234898010268807" lon="-1.296788966283202">
        <ele>102.52</ele>
        <time>2025-04-27T09:16:55Z</time>
      </trkpt>
      <trkpt lat="43.234793990850449" lon="-1.296849986538291">
        <ele>102.52</ele>
        <time>2025-04-27T09:16:56Z</time>
      </trkpt>
      <trkpt lat="43.234691983088851" lon="-1.296923998743296">
        <ele>103</ele>
        <time>2025-04-27T09:16:57Z</time>
      </trkpt>
      <trkpt lat="43.233226994052529" lon="-1.298268958926201">
        <ele>103.48</ele>
        <time>2025-04-27T09:17:12Z</time>
      </trkpt>
      <trkpt lat="43.231771979480982" lon="-1.299612997099757">
        <ele>103.95999999999999</ele>
        <time>2025-04-27T09:17:27Z</time>
      </trkpt>
      <trkpt lat="43.231673995032907" lon="-1.299696983769536">
        <ele>103.95999999999999</ele>
        <time>2025-04-27T09:17:28Z</time>
      </trkpt>
      <trkpt lat="43.230621982365847" lon="-1.300673978403211">
        <ele>103.95999999999999</ele>
        <time>2025-04-27T09:17:39Z</time>
      </trkpt>
      <trkpt lat="43.230312019586563" lon="-1.300860978662968">
        <ele>104.44</ele>
        <time>2025-04-27T09:17:43Z</time>
      </trkpt>
      <trkpt lat="43.230255022644997" lon="-1.30088503472507">
        <ele>104.44</ele>
        <time>2025-04-27T09:17:44Z</time>
      </trkpt>
      <trkpt lat="43.230235995724797" lon="-1.301074968650937">
        <ele>104.44</ele>
        <time>2025-04-27T09:17:45Z</time>
      </trkpt>
      <trkpt lat="43.230235995724797" lon="-1.301174964755774">
        <ele>104.44</ele>
        <time>2025-04-27T09:17:46Z</time>
      </trkpt>
      <trkpt lat="43.230235995724797" lon="-1.301277978345752">
        <ele>104.44</ele>
        <time>2025-04-27T09:17:47Z</time>
      </trkpt>
      <trkpt lat="43.230243036523461" lon="-1.301375040784478">
        <ele>103.95999999999999</ele>
        <time>2025-04-27T09:17:48Z</time>
      </trkpt>
      <trkpt lat="43.230258040130138" lon="-1.301775025203824">
        <ele>103.48</ele>
        <time>2025-04-27T09:17:52Z</time>
      </trkpt>
      <trkpt lat="43.230225015431643" lon="-1.301869992166758">
        <ele>103</ele>
        <time>2025-04-27T09:17:53Z</time>
      </trkpt>
      <trkpt lat="43.230184027925134" lon="-1.301954984664917">
        <ele>103</ele>
        <time>2025-04-27T09:17:54Z</time>
      </trkpt>
      <trkpt lat="43.230125019326806" lon="-1.302028996869922">
        <ele>103</ele>
        <time>2025-04-27T09:17:55Z</time>
      </trkpt>
      <trkpt lat="43.230056958273053" lon="-1.302067972719669">
        <ele>103</ele>
        <time>2025-04-27T09:17:56Z</time>
      </trkpt>
      <trkpt lat="43.229970959946513" lon="-1.302096974104643">
        <ele>103.95999999999999</ele>
        <time>2025-04-27T09:17:57Z</time>
      </trkpt>
      <trkpt lat="43.229880016297102" lon="-1.302122035995126">
        <ele>103.95999999999999</ele>
        <time>2025-04-27T09:17:58Z</time>
      </trkpt>
      <trkpt lat="43.229783959686756" lon="-1.302137961611152">
        <ele>104.92</ele>
        <time>2025-04-27T09:17:59Z</time>
      </trkpt>
      <trkpt lat="43.229160010814667" lon="-1.302315993234515">
        <ele>110.20999999999999</ele>
        <time>2025-04-27T09:18:05Z</time>
      </trkpt>
      <trkpt lat="43.2288249861449" lon="-1.302496958523989">
        <ele>114.05</ele>
        <time>2025-04-27T09:18:09Z</time>
      </trkpt>
      <trkpt lat="43.228310002014041" lon="-1.303011020645499">
        <ele>117.90000000000001</ele>
        <time>2025-04-27T09:18:14Z</time>
      </trkpt>
      <trkpt lat="43.228235989809036" lon="-1.303172037005425">
        <ele>118.38</ele>
        <time>2025-04-27T09:18:15Z</time>
      </trkpt>
      <trkpt lat="43.228162983432412" lon="-1.30333699285984">
        <ele>118.86</ele>
        <time>2025-04-27T09:18:16Z</time>
      </trkpt>
      <trkpt lat="43.228104980662465" lon="-1.30350798368454">
        <ele>119.34</ele>
        <time>2025-04-27T09:18:17Z</time>
      </trkpt>
      <trkpt lat="43.228057036176324" lon="-1.303689032793045">
        <ele>119.81999999999999</ele>
        <time>2025-04-27T09:18:18Z</time>
      </trkpt>
      <trkpt lat="43.228042032569647" lon="-1.303883995860815">
        <ele>120.3</ele>
        <time>2025-04-27T09:18:19Z</time>
      </trkpt>
      <trkpt lat="43.228033985942602" lon="-1.304093040525913">
        <ele>120.3</ele>
        <time>2025-04-27T09:18:20Z</time>
      </trkpt>
      <trkpt lat="43.228026023134589" lon="-1.304305018857122">
        <ele>120.3</ele>
        <time>2025-04-27T09:18:21Z</time>
      </trkpt>
      <trkpt lat="43.227999033406377" lon="-1.304741967469454">
        <ele>119.81999999999999</ele>
        <time>2025-04-27T09:18:23Z</time>
      </trkpt>
      <trkpt lat="43.22764397598803" lon="-1.306864013895392">
        <ele>114.05</ele>
        <time>2025-04-27T09:18:32Z</time>
      </trkpt>
      <trkpt lat="43.227480025961995" lon="-1.307320995256305">
        <ele>113.09</ele>
        <time>2025-04-27T09:18:34Z</time>
      </trkpt>
      <trkpt lat="43.227397967129946" lon="-1.307546971365809">
        <ele>112.61</ele>
        <time>2025-04-27T09:18:35Z</time>
      </trkpt>
      <trkpt lat="43.226886000484228" lon="-1.309361988678575">
        <ele>107.81</ele>
        <time>2025-04-27T09:18:43Z</time>
      </trkpt>
      <trkpt lat="43.226562961935997" lon="-1.310788001865149">
        <ele>106.84</ele>
        <time>2025-04-27T09:18:49Z</time>
      </trkpt>
      <trkpt lat="43.225775985047221" lon="-1.313336016610265">
        <ele>107.31999999999999</ele>
        <time>2025-04-27T09:19:00Z</time>
      </trkpt>
      <trkpt lat="43.225709013640881" lon="-1.313510024920106">
        <ele>107.81</ele>
        <time>2025-04-27T09:19:01Z</time>
      </trkpt>
      <trkpt lat="43.225585967302322" lon="-1.313684033229947">
        <ele>107.81</ele>
        <time>2025-04-27T09:19:02Z</time>
      </trkpt>
      <trkpt lat="43.225469039753079" lon="-1.313848989084363">
        <ele>108.29000000000001</ele>
        <time>2025-04-27T09:19:03Z</time>
      </trkpt>
      <trkpt lat="43.225325960665941" lon="-1.313959965482354">
        <ele>108.77</ele>
        <time>2025-04-27T09:19:04Z</time>
      </trkpt>
      <trkpt lat="43.225167039781809" lon="-1.314069014042616">
        <ele>109.73</ele>
        <time>2025-04-27T09:19:05Z</time>
      </trkpt>
      <trkpt lat="43.225007029250264" lon="-1.314163981005549">
        <ele>110.69</ele>
        <time>2025-04-27T09:19:06Z</time>
      </trkpt>
      <trkpt lat="43.224830003455281" lon="-1.314216032624245">
        <ele>111.17</ele>
        <time>2025-04-27T09:19:07Z</time>
      </trkpt>
      <trkpt lat="43.22465498931706" lon="-1.314266994595528">
        <ele>112.13</ele>
        <time>2025-04-27T09:19:08Z</time>
      </trkpt>
      <trkpt lat="43.224488021805882" lon="-1.314299013465643">
        <ele>113.09</ele>
        <time>2025-04-27T09:19:09Z</time>
      </trkpt>
      <trkpt lat="43.224318036809564" lon="-1.314280992373824">
        <ele>113.56999999999999</ele>
        <time>2025-04-27T09:19:10Z</time>
      </trkpt>
      <trkpt lat="43.224142016842961" lon="-1.314260959625244">
        <ele>114.53</ele>
        <time>2025-04-27T09:19:11Z</time>
      </trkpt>
      <trkpt lat="43.223999021574855" lon="-1.314161969348788">
        <ele>115.5</ele>
        <time>2025-04-27T09:19:12Z</time>
      </trkpt>
      <trkpt lat="43.223843034356833" lon="-1.314043030142784">
        <ele>116.45999999999999</ele>
        <time>2025-04-27T09:19:13Z</time>
      </trkpt>
      <trkpt lat="43.223712025210261" lon="-1.313885031268001">
        <ele>117.42</ele>
        <time>2025-04-27T09:19:14Z</time>
      </trkpt>
      <trkpt lat="43.223587973043323" lon="-1.31373499520123">
        <ele>118.38</ele>
        <time>2025-04-27T09:19:15Z</time>
      </trkpt>
      <trkpt lat="43.223461993038654" lon="-1.31358303129673">
        <ele>119.34</ele>
        <time>2025-04-27T09:19:16Z</time>
      </trkpt>
      <trkpt lat="43.223314974457026" lon="-1.313485968858004">
        <ele>119.81999999999999</ele>
        <time>2025-04-27T09:19:17Z</time>
      </trkpt>
      <trkpt lat="43.223165022209287" lon="-1.31339100189507">
        <ele>120.78</ele>
        <time>2025-04-27T09:19:18Z</time>
      </trkpt>
      <trkpt lat="43.223048010841012" lon="-1.313316989690065">
        <ele>121.73999999999999</ele>
        <time>2025-04-27T09:19:19Z</time>
      </trkpt>
      <trkpt lat="43.222838966175914" lon="-1.313295029103756">
        <ele>122.70999999999999</ele>
        <time>2025-04-27T09:19:20Z</time>
      </trkpt>
      <trkpt lat="43.222655989229679" lon="-1.313276002183557">
        <ele>123.67</ele>
        <time>2025-04-27T09:19:21Z</time>
      </trkpt>
      <trkpt lat="43.222494972869754" lon="-1.313329981639981">
        <ele>124.63</ele>
        <time>2025-04-27T09:19:22Z</time>
      </trkpt>
      <trkpt lat="43.222334962338209" lon="-1.313392007723451">
        <ele>125.59</ele>
        <time>2025-04-27T09:19:23Z</time>
      </trkpt>
      <trkpt lat="43.22220797650516" lon="-1.313487980514765">
        <ele>126.06999999999999</ele>
        <time>2025-04-27T09:19:24Z</time>
      </trkpt>
      <trkpt lat="43.222095994278789" lon="-1.313644973561168">
        <ele>126.55</ele>
        <time>2025-04-27T09:19:25Z</time>
      </trkpt>
      <trkpt lat="43.221986023709178" lon="-1.313815964385867">
        <ele>127.03</ele>
        <time>2025-04-27T09:19:26Z</time>
      </trkpt>
      <trkpt lat="43.221875969320536" lon="-1.314006987959147">
        <ele>127.51000000000001</ele>
        <time>2025-04-27T09:19:27Z</time>
      </trkpt>
      <trkpt lat="43.221653010696173" lon="-1.314390040934086">
        <ele>127.03</ele>
        <time>2025-04-27T09:19:29Z</time>
      </trkpt>
      <trkpt lat="43.221483025699854" lon="-1.314568994566798">
        <ele>127.03</ele>
        <time>2025-04-27T09:19:30Z</time>
      </trkpt>
      <trkpt lat="43.221329972147942" lon="-1.314731016755104">
        <ele>126.55</ele>
        <time>2025-04-27T09:19:31Z</time>
      </trkpt>
      <trkpt lat="43.220964018255472" lon="-1.314917011186481">
        <ele>125.59</ele>
        <time>2025-04-27T09:19:33Z</time>
      </trkpt>
      <trkpt lat="43.220781041309237" lon="-1.314995968714356">
        <ele>125.11</ele>
        <time>2025-04-27T09:19:34Z</time>
      </trkpt>
      <trkpt lat="43.219464998692274" lon="-1.315155979245901">
        <ele>121.73999999999999</ele>
        <time>2025-04-27T09:19:41Z</time>
      </trkpt>
      <trkpt lat="43.218351965770125" lon="-1.315336022526026">
        <ele>120.3</ele>
        <time>2025-04-27T09:19:47Z</time>
      </trkpt>
      <trkpt lat="43.218177035450935" lon="-1.315400982275605">
        <ele>119.81999999999999</ele>
        <time>2025-04-27T09:19:48Z</time>
      </trkpt>
      <trkpt lat="43.218005038797855" lon="-1.315507013350725">
        <ele>119.81999999999999</ele>
        <time>2025-04-27T09:19:49Z</time>
      </trkpt>
      <trkpt lat="43.217860031872988" lon="-1.315656965598464">
        <ele>119.34</ele>
        <time>2025-04-27T09:19:50Z</time>
      </trkpt>
      <trkpt lat="43.217713013291359" lon="-1.315808007493615">
        <ele>119.34</ele>
        <time>2025-04-27T09:19:51Z</time>
      </trkpt>
      <trkpt lat="43.217563983052969" lon="-1.315960977226496">
        <ele>119.34</ele>
        <time>2025-04-27T09:19:52Z</time>
      </trkpt>
      <trkpt lat="43.21741403080523" lon="-1.316115958616138">
        <ele>119.34</ele>
        <time>2025-04-27T09:19:53Z</time>
      </trkpt>
      <trkpt lat="43.216093964874744" lon="-1.317269979044795">
        <ele>115.5</ele>
        <time>2025-04-27T09:20:01Z</time>
      </trkpt>
      <trkpt lat="43.214467959478498" lon="-1.318090986460447">
        <ele>110.69</ele>
        <time>2025-04-27T09:20:10Z</time>
      </trkpt>
      <trkpt lat="43.213615017011762" lon="-1.318702027201653">
        <ele>109.25</ele>
        <time>2025-04-27T09:20:15Z</time>
      </trkpt>
      <trkpt lat="43.213466992601752" lon="-1.318871006369591">
        <ele>108.77</ele>
        <time>2025-04-27T09:20:16Z</time>
      </trkpt>
      <trkpt lat="43.213323997333646" lon="-1.319049037992954">
        <ele>108.77</ele>
        <time>2025-04-27T09:20:17Z</time>
      </trkpt>
      <trkpt lat="43.213191982358694" lon="-1.319237966090441">
        <ele>108.77</ele>
        <time>2025-04-27T09:20:18Z</time>
      </trkpt>
      <trkpt lat="43.213059967383742" lon="-1.31942798383534">
        <ele>108.77</ele>
        <time>2025-04-27T09:20:19Z</time>
      </trkpt>
      <trkpt lat="43.212005021050572" lon="-1.320956004783511">
        <ele>109.25</ele>
        <time>2025-04-27T09:20:27Z</time>
      </trkpt>
      <trkpt lat="43.211218966171145" lon="-1.322449995204806">
        <ele>109.25</ele>
        <time>2025-04-27T09:20:34Z</time>
      </trkpt>
      <trkpt lat="43.211083011701703" lon="-1.322627020999789">
        <ele>109.73</ele>
        <time>2025-04-27T09:20:35Z</time>
      </trkpt>
      <trkpt lat="43.210408017039299" lon="-1.323512988165021">
        <ele>111.17</ele>
        <time>2025-04-27T09:20:40Z</time>
      </trkpt>
      <trkpt lat="43.210266027599573" lon="-1.323664030060172">
        <ele>111.65000000000001</ele>
        <time>2025-04-27T09:20:41Z</time>
      </trkpt>
      <trkpt lat="43.21010903455317" lon="-1.323800990357995">
        <ele>112.61</ele>
        <time>2025-04-27T09:20:42Z</time>
      </trkpt>
      <trkpt lat="43.209951035678387" lon="-1.32391800172627">
        <ele>113.56999999999999</ele>
        <time>2025-04-27T09:20:43Z</time>
      </trkpt>
      <trkpt lat="43.209773004055023" lon="-1.323991008102894">
        <ele>114.05</ele>
        <time>2025-04-27T09:20:44Z</time>
      </trkpt>
      <trkpt lat="43.209587009623647" lon="-1.324043981730938">
        <ele>114.53</ele>
        <time>2025-04-27T09:20:45Z</time>
      </trkpt>
      <trkpt lat="43.209403026849031" lon="-1.324097039178014">
        <ele>114.53</ele>
        <time>2025-04-27T09:20:46Z</time>
      </trkpt>
      <trkpt lat="43.209220971912146" lon="-1.324149006977677">
        <ele>115.01000000000001</ele>
        <time>2025-04-27T09:20:47Z</time>
      </trkpt>
      <trkpt lat="43.208672041073442" lon="-1.324211033061147">
        <ele>116.45999999999999</ele>
        <time>2025-04-27T09:20:50Z</time>
      </trkpt>
      <trkpt lat="43.207824965938926" lon="-1.324272975325584">
        <ele>118.86</ele>
        <time>2025-04-27T09:20:55Z</time>
      </trkpt>
      <trkpt lat="43.207707032561302" lon="-1.324302982538939">
        <ele>119.34</ele>
        <time>2025-04-27T09:20:56Z</time>
      </trkpt>
      <trkpt lat="43.207619022578001" lon="-1.324424017220736">
        <ele>119.81999999999999</ele>
        <time>2025-04-27T09:20:57Z</time>
      </trkpt>
      <trkpt lat="43.207533024251461" lon="-1.324544968083501">
        <ele>119.81999999999999</ele>
        <time>2025-04-27T09:20:58Z</time>
      </trkpt>
      <trkpt lat="43.207470998167992" lon="-1.324725011363626">
        <ele>119.81999999999999</ele>
        <time>2025-04-27T09:20:59Z</time>
      </trkpt>
      <trkpt lat="43.207436967641115" lon="-1.324925003573299">
        <ele>119.81999999999999</ele>
        <time>2025-04-27T09:21:00Z</time>
      </trkpt>
      <trkpt lat="43.207401009276509" lon="-1.325145028531551">
        <ele>119.81999999999999</ele>
        <time>2025-04-27T09:21:01Z</time>
      </trkpt>
      <trkpt lat="43.207376031205058" lon="-1.325383996590972">
        <ele>119.81999999999999</ele>
        <time>2025-04-27T09:21:02Z</time>
      </trkpt>
      <trkpt lat="43.207363039255142" lon="-1.325620030984283">
        <ele>119.81999999999999</ele>
        <time>2025-04-27T09:21:03Z</time>
      </trkpt>
      <trkpt lat="43.207349963486195" lon="-1.325851958245039">
        <ele>119.81999999999999</ele>
        <time>2025-04-27T09:21:04Z</time>
      </trkpt>
      <trkpt lat="43.207321967929602" lon="-1.326080029830337">
        <ele>119.81999999999999</ele>
        <time>2025-04-27T09:21:05Z</time>
      </trkpt>
      <trkpt lat="43.207259019836783" lon="-1.326284967362881">
        <ele>119.81999999999999</ele>
        <time>2025-04-27T09:21:06Z</time>
      </trkpt>
      <trkpt lat="43.207173021510243" lon="-1.326462998986244">
        <ele>119.81999999999999</ele>
        <time>2025-04-27T09:21:07Z</time>
      </trkpt>
      <trkpt lat="43.207055004313588" lon="-1.326598031446338">
        <ele>119.81999999999999</ele>
        <time>2025-04-27T09:21:08Z</time>
      </trkpt>
      <trkpt lat="43.206925000995398" lon="-1.326715964823961">
        <ele>119.81999999999999</ele>
        <time>2025-04-27T09:21:09Z</time>
      </trkpt>
      <trkpt lat="43.206769013777375" lon="-1.326777990907431">
        <ele>120.3</ele>
        <time>2025-04-27T09:21:10Z</time>
      </trkpt>
      <trkpt lat="43.206603974103928" lon="-1.326836999505758">
        <ele>120.3</ele>
        <time>2025-04-27T09:21:11Z</time>
      </trkpt>
      <trkpt lat="43.205718006938696" lon="-1.327115027233958">
        <ele>120.3</ele>
        <time>2025-04-27T09:21:16Z</time>
      </trkpt>
      <trkpt lat="43.205373007804155" lon="-1.327295992523432">
        <ele>120.3</ele>
        <time>2025-04-27T09:21:18Z</time>
      </trkpt>
      <trkpt lat="43.204020000994205" lon="-1.328679006546736">
        <ele>120.3</ele>
        <time>2025-04-27T09:21:27Z</time>
      </trkpt>
      <trkpt lat="43.203060021623969" lon="-1.330597037449479">
        <ele>121.26000000000001</ele>
        <time>2025-04-27T09:21:36Z</time>
      </trkpt>
      <trkpt lat="43.202278995886445" lon="-1.332077030092478">
        <ele>120.78</ele>
        <time>2025-04-27T09:21:43Z</time>
      </trkpt>
      <trkpt lat="43.202137006446719" lon="-1.332251960411668">
        <ele>121.26000000000001</ele>
        <time>2025-04-27T09:21:44Z</time>
      </trkpt>
      <trkpt lat="43.201991999521852" lon="-1.332422029227018">
        <ele>121.26000000000001</ele>
        <time>2025-04-27T09:21:45Z</time>
      </trkpt>
      <trkpt lat="43.201846992596984" lon="-1.332593020051718">
        <ele>121.26000000000001</ele>
        <time>2025-04-27T09:21:46Z</time>
      </trkpt>
      <trkpt lat="43.201691005378962" lon="-1.332735009491444">
        <ele>121.73999999999999</ele>
        <time>2025-04-27T09:21:47Z</time>
      </trkpt>
      <trkpt lat="43.201524037867785" lon="-1.332831988111138">
        <ele>122.22</ele>
        <time>2025-04-27T09:21:48Z</time>
      </trkpt>
      <trkpt lat="43.201358998194337" lon="-1.332928966730833">
        <ele>122.22</ele>
        <time>2025-04-27T09:21:49Z</time>
      </trkpt>
      <trkpt lat="43.201196976006031" lon="-1.333024017512798">
        <ele>122.70999999999999</ele>
        <time>2025-04-27T09:21:50Z</time>
      </trkpt>
      <trkpt lat="43.201025985181332" lon="-1.333089983090758">
        <ele>123.19</ele>
        <time>2025-04-27T09:21:51Z</time>
      </trkpt>
      <trkpt lat="43.200862035155296" lon="-1.33313599973917">
        <ele>123.67</ele>
        <time>2025-04-27T09:21:52Z</time>
      </trkpt>
      <trkpt lat="43.200125014409423" lon="-1.333340015262365">
        <ele>125.11</ele>
        <time>2025-04-27T09:21:58Z</time>
      </trkpt>
      <trkpt lat="43.199866013601422" lon="-1.333429031074047">
        <ele>125.11</ele>
        <time>2025-04-27T09:22:01Z</time>
      </trkpt>
      <trkpt lat="43.199220020323992" lon="-1.333719966933131">
        <ele>125.59</ele>
        <time>2025-04-27T09:22:10Z</time>
      </trkpt>
      <trkpt lat="43.199009969830513" lon="-1.333817029371858">
        <ele>125.59</ele>
        <time>2025-04-27T09:22:13Z</time>
      </trkpt>
      <trkpt lat="43.198940986767411" lon="-1.333847958594561">
        <ele>125.59</ele>
        <time>2025-04-27T09:22:14Z</time>
      </trkpt>
      <trkpt lat="43.198818024247885" lon="-1.333873020485044">
        <ele>126.06999999999999</ele>
        <time>2025-04-27T09:22:16Z</time>
      </trkpt>
      <trkpt lat="43.198751974850893" lon="-1.333873020485044">
        <ele>126.06999999999999</ele>
        <time>2025-04-27T09:22:17Z</time>
      </trkpt>
      <trkpt lat="43.198681985959411" lon="-1.333873020485044">
        <ele>126.06999999999999</ele>
        <time>2025-04-27T09:22:18Z</time>
      </trkpt>
      <trkpt lat="43.197920992970467" lon="-1.333623994141817">
        <ele>127.98999999999999</ele>
        <time>2025-04-27T09:22:28Z</time>
      </trkpt>
      <trkpt lat="43.196930000558496" lon="-1.33324395865202">
        <ele>130.88</ele>
        <time>2025-04-27T09:22:41Z</time>
      </trkpt>
      <trkpt lat="43.196765966713428" lon="-1.333249993622303">
        <ele>131.36000000000001</ele>
        <time>2025-04-27T09:22:43Z</time>
      </trkpt>
      <trkpt lat="43.196688015013933" lon="-1.333262985572219">
        <ele>131.84</ele>
        <time>2025-04-27T09:22:44Z</time>
      </trkpt>
      <trkpt lat="43.196434965357184" lon="-1.333421990275383">
        <ele>132.80000000000001</ele>
        <time>2025-04-27T09:22:47Z</time>
      </trkpt>
      <trkpt lat="43.196206977590919" lon="-1.333573032170534">
        <ele>135.19999999999999</ele>
        <time>2025-04-27T09:22:50Z</time>
      </trkpt>
      <trkpt lat="43.196131959557533" lon="-1.333616031333804">
        <ele>136.16</ele>
        <time>2025-04-27T09:22:51Z</time>
      </trkpt>
      <trkpt lat="43.196044033393264" lon="-1.333616031333804">
        <ele>137.13</ele>
        <time>2025-04-27T09:22:52Z</time>
      </trkpt>
      <trkpt lat="43.19595200009644" lon="-1.333616031333804">
        <ele>137.61000000000001</ele>
        <time>2025-04-27T09:22:53Z</time>
      </trkpt>
      <trkpt lat="43.195854015648365" lon="-1.333616031333804">
        <ele>138.09</ele>
        <time>2025-04-27T09:22:54Z</time>
      </trkpt>
      <trkpt lat="43.195634996518493" lon="-1.333616031333804">
        <ele>138.56999999999999</ele>
        <time>2025-04-27T09:22:56Z</time>
      </trkpt>
      <trkpt lat="43.19552100263536" lon="-1.333616031333804">
        <ele>139.05000000000001</ele>
        <time>2025-04-27T09:22:57Z</time>
      </trkpt>
      <trkpt lat="43.195406002923846" lon="-1.333669004961848">
        <ele>139.53</ele>
        <time>2025-04-27T09:22:58Z</time>
      </trkpt>
      <trkpt lat="43.195293014869094" lon="-1.333721978589892">
        <ele>140.00999999999999</ele>
        <time>2025-04-27T09:22:59Z</time>
      </trkpt>
      <trkpt lat="43.195180026814342" lon="-1.333776041865349">
        <ele>140.49000000000001</ele>
        <time>2025-04-27T09:23:00Z</time>
      </trkpt>
      <trkpt lat="43.195068966597319" lon="-1.333846030756831">
        <ele>140.97</ele>
        <time>2025-04-27T09:23:01Z</time>
      </trkpt>
      <trkpt lat="43.194961007684469" lon="-1.333943009376526">
        <ele>141.44999999999999</ele>
        <time>2025-04-27T09:23:02Z</time>
      </trkpt>
      <trkpt lat="43.194849025458097" lon="-1.334044011309743">
        <ele>141.93000000000001</ele>
        <time>2025-04-27T09:23:03Z</time>
      </trkpt>
      <trkpt lat="43.194736037403345" lon="-1.33414501324296">
        <ele>142.41</ele>
        <time>2025-04-27T09:23:04Z</time>
      </trkpt>
      <trkpt lat="43.19416900165379" lon="-1.334712971001864">
        <ele>141.44999999999999</ele>
        <time>2025-04-27T09:23:09Z</time>
      </trkpt>
      <trkpt lat="43.194086020812392" lon="-1.334845991805196">
        <ele>141.44999999999999</ele>
        <time>2025-04-27T09:23:10Z</time>
      </trkpt>
      <trkpt lat="43.194017959758639" lon="-1.334993010386825">
        <ele>141.93000000000001</ele>
        <time>2025-04-27T09:23:11Z</time>
      </trkpt>
      <trkpt lat="43.193968003615737" lon="-1.335165007039905">
        <ele>141.93000000000001</ele>
        <time>2025-04-27T09:23:12Z</time>
      </trkpt>
      <trkpt lat="43.193919975310564" lon="-1.335333986207843">
        <ele>141.93000000000001</ele>
        <time>2025-04-27T09:23:13Z</time>
      </trkpt>
      <trkpt lat="43.193817967548966" lon="-1.335620982572436">
        <ele>142.41</ele>
        <time>2025-04-27T09:23:15Z</time>
      </trkpt>
      <trkpt lat="43.19373800419271" lon="-1.33569398894906">
        <ele>143.37</ele>
        <time>2025-04-27T09:23:16Z</time>
      </trkpt>
      <trkpt lat="43.193646976724267" lon="-1.335749980062246">
        <ele>143.37</ele>
        <time>2025-04-27T09:23:17Z</time>
      </trkpt>
      <trkpt lat="43.193549998104572" lon="-1.335769006982446">
        <ele>144.34</ele>
        <time>2025-04-27T09:23:18Z</time>
      </trkpt>
      <trkpt lat="43.193431980907917" lon="-1.3357799872756">
        <ele>144.81999999999999</ele>
        <time>2025-04-27T09:23:19Z</time>
      </trkpt>
      <trkpt lat="43.193298038095236" lon="-1.335792979225516">
        <ele>144.81999999999999</ele>
        <time>2025-04-27T09:23:20Z</time>
      </trkpt>
      <trkpt lat="43.193152025341988" lon="-1.335801025852561">
        <ele>144.81999999999999</ele>
        <time>2025-04-27T09:23:21Z</time>
      </trkpt>
      <trkpt lat="43.192240996286273" lon="-1.335688959807158">
        <ele>143.37</ele>
        <time>2025-04-27T09:23:27Z</time>
      </trkpt>
      <trkpt lat="43.192093977704644" lon="-1.335722990334034">
        <ele>143.84999999999999</ele>
        <time>2025-04-27T09:23:28Z</time>
      </trkpt>
      <trkpt lat="43.191787032410502" lon="-1.335793985053897">
        <ele>144.81999999999999</ele>
        <time>2025-04-27T09:23:30Z</time>
      </trkpt>
      <trkpt lat="43.191628027707338" lon="-1.3357990141958">
        <ele>145.30000000000001</ele>
        <time>2025-04-27T09:23:31Z</time>
      </trkpt>
      <trkpt lat="43.191472040489316" lon="-1.335790967568755">
        <ele>145.78</ele>
        <time>2025-04-27T09:23:32Z</time>
      </trkpt>
      <trkpt lat="43.191320998594165" lon="-1.335784010589123">
        <ele>146.25999999999999</ele>
        <time>2025-04-27T09:23:33Z</time>
      </trkpt>
      <trkpt lat="43.191174985840917" lon="-1.335762972012162">
        <ele>146.74000000000001</ele>
        <time>2025-04-27T09:23:34Z</time>
      </trkpt>
      <trkpt lat="43.191029978916049" lon="-1.335741011425853">
        <ele>147.22</ele>
        <time>2025-04-27T09:23:35Z</time>
      </trkpt>
      <trkpt lat="43.190733008086681" lon="-1.335697006434202">
        <ele>148.66</ele>
        <time>2025-04-27T09:23:37Z</time>
      </trkpt>
      <trkpt lat="43.190610967576504" lon="-1.335631962865591">
        <ele>149.13999999999999</ele>
        <time>2025-04-27T09:23:38Z</time>
      </trkpt>
      <trkpt lat="43.190476018935442" lon="-1.335559962317348">
        <ele>149.62</ele>
        <time>2025-04-27T09:23:39Z</time>
      </trkpt>
      <trkpt lat="43.190203020349145" lon="-1.335415039211512">
        <ele>150.58000000000001</ele>
        <time>2025-04-27T09:23:41Z</time>
      </trkpt>
      <trkpt lat="43.19006597623229" lon="-1.335357958450913">
        <ele>150.58000000000001</ele>
        <time>2025-04-27T09:23:42Z</time>
      </trkpt>
      <trkpt lat="43.189928010106087" lon="-1.335383020341396">
        <ele>150.09999999999999</ele>
        <time>2025-04-27T09:23:43Z</time>
      </trkpt>
      <trkpt lat="43.189795995131135" lon="-1.335424007847905">
        <ele>150.09999999999999</ele>
        <time>2025-04-27T09:23:44Z</time>
      </trkpt>
      <trkpt lat="43.189662974327803" lon="-1.335486033931375">
        <ele>150.09999999999999</ele>
        <time>2025-04-27T09:23:45Z</time>
      </trkpt>
      <trkpt lat="43.189387964084744" lon="-1.335588041692972">
        <ele>150.09999999999999</ele>
        <time>2025-04-27T09:23:47Z</time>
      </trkpt>
      <trkpt lat="43.189272964373231" lon="-1.335611008107662">
        <ele>150.09999999999999</ele>
        <time>2025-04-27T09:23:48Z</time>
      </trkpt>
      <trkpt lat="43.189111026003957" lon="-1.335590975359082">
        <ele>150.09999999999999</ele>
        <time>2025-04-27T09:23:49Z</time>
      </trkpt>
      <trkpt lat="43.18897096440196" lon="-1.335573960095644">
        <ele>150.58000000000001</ele>
        <time>2025-04-27T09:23:50Z</time>
      </trkpt>
      <trkpt lat="43.188836015760899" lon="-1.335530960932374">
        <ele>150.58000000000001</ele>
        <time>2025-04-27T09:23:51Z</time>
      </trkpt>
      <trkpt lat="43.188696037977934" lon="-1.335476981475949">
        <ele>151.06</ele>
        <time>2025-04-27T09:23:52Z</time>
      </trkpt>
      <trkpt lat="43.187772016972303" lon="-1.335115972906351">
        <ele>152.99000000000001</ele>
        <time>2025-04-27T09:24:00Z</time>
      </trkpt>
      <trkpt lat="43.186966013163328" lon="-1.334936013445258">
        <ele>153.94999999999999</ele>
        <time>2025-04-27T09:24:10Z</time>
      </trkpt>
      <trkpt lat="43.186880014836788" lon="-1.334945987910032">
        <ele>153.94999999999999</ele>
        <time>2025-04-27T09:24:11Z</time>
      </trkpt>
      <trkpt lat="43.186792004853487" lon="-1.334955962374806">
        <ele>154.43000000000001</ele>
        <time>2025-04-27T09:24:12Z</time>
      </trkpt>
      <trkpt lat="43.186702989041805" lon="-1.334966020658612">
        <ele>154.43000000000001</ele>
        <time>2025-04-27T09:24:13Z</time>
      </trkpt>
      <trkpt lat="43.185778968036175" lon="-1.335184033960104">
        <ele>153.94999999999999</ele>
        <time>2025-04-27T09:24:24Z</time>
      </trkpt>
      <trkpt lat="43.185706967487931" lon="-1.335210017859936">
        <ele>153.94999999999999</ele>
        <time>2025-04-27T09:24:25Z</time>
      </trkpt>
      <trkpt lat="43.185635972768068" lon="-1.335257040336728">
        <ele>153.47</ele>
        <time>2025-04-27T09:24:26Z</time>
      </trkpt>
      <trkpt lat="43.185517033562064" lon="-1.335375979542732">
        <ele>153.47</ele>
        <time>2025-04-27T09:24:28Z</time>
      </trkpt>
      <trkpt lat="43.185455007478595" lon="-1.335439011454582">
        <ele>153.47</ele>
        <time>2025-04-27T09:24:29Z</time>
      </trkpt>
      <trkpt lat="43.18542399443686" lon="-1.335530960932374">
        <ele>152.99000000000001</ele>
        <time>2025-04-27T09:24:30Z</time>
      </trkpt>
      <trkpt lat="43.185411002486944" lon="-1.335632968693972">
        <ele>152.99000000000001</ele>
        <time>2025-04-27T09:24:31Z</time>
      </trkpt>
      <trkpt lat="43.185425000265241" lon="-1.335730031132698">
        <ele>152.50999999999999</ele>
        <time>2025-04-27T09:24:32Z</time>
      </trkpt>
      <trkpt lat="43.18544402718544" lon="-1.335832960903645">
        <ele>152.50999999999999</ele>
        <time>2025-04-27T09:24:33Z</time>
      </trkpt>
      <trkpt lat="43.18546699360013" lon="-1.335935974493623">
        <ele>152.03</ele>
        <time>2025-04-27T09:24:34Z</time>
      </trkpt>
      <trkpt lat="43.185539999976754" lon="-1.336254989728332">
        <ele>152.03</ele>
        <time>2025-04-27T09:24:37Z</time>
      </trkpt>
      <trkpt lat="43.18553295917809" lon="-1.336355991661549">
        <ele>152.03</ele>
        <time>2025-04-27T09:24:38Z</time>
      </trkpt>
      <trkpt lat="43.185395998880267" lon="-1.337102986872196">
        <ele>151.53999999999999</ele>
        <time>2025-04-27T09:24:44Z</time>
      </trkpt>
      <trkpt lat="43.185343025252223" lon="-1.337227961048484">
        <ele>151.06</ele>
        <time>2025-04-27T09:24:45Z</time>
      </trkpt>
      <trkpt lat="43.185259038582444" lon="-1.337326029315591">
        <ele>150.09999999999999</ele>
        <time>2025-04-27T09:24:46Z</time>
      </trkpt>
      <trkpt lat="43.185167005285621" lon="-1.337376991286874">
        <ele>149.13999999999999</ele>
        <time>2025-04-27T09:24:47Z</time>
      </trkpt>
      <trkpt lat="43.185060974210501" lon="-1.337415967136622">
        <ele>148.18000000000001</ele>
        <time>2025-04-27T09:24:48Z</time>
      </trkpt>
      <trkpt lat="43.184954021126032" lon="-1.337456032633781">
        <ele>147.22</ele>
        <time>2025-04-27T09:24:49Z</time>
      </trkpt>
      <trkpt lat="43.184847990050912" lon="-1.33749601431191">
        <ele>145.78</ele>
        <time>2025-04-27T09:24:50Z</time>
      </trkpt>
      <trkpt lat="43.184658978134394" lon="-1.337533984333277">
        <ele>143.37</ele>
        <time>2025-04-27T09:24:52Z</time>
      </trkpt>
      <trkpt lat="43.18456300534308" lon="-1.337520992383361">
        <ele>142.88999999999999</ele>
        <time>2025-04-27T09:24:53Z</time>
      </trkpt>
      <trkpt lat="43.184468038380146" lon="-1.337508000433445">
        <ele>141.93000000000001</ele>
        <time>2025-04-27T09:24:54Z</time>
      </trkpt>
      <trkpt lat="43.1843719817698" lon="-1.337495008483529">
        <ele>141.44999999999999</ele>
        <time>2025-04-27T09:24:55Z</time>
      </trkpt>
      <trkpt lat="43.184279026463628" lon="-1.337482016533613">
        <ele>140.49000000000001</ele>
        <time>2025-04-27T09:24:56Z</time>
      </trkpt>
      <trkpt lat="43.184205014258623" lon="-1.337440023198724">
        <ele>140.00999999999999</ele>
        <time>2025-04-27T09:24:57Z</time>
      </trkpt>
      <trkpt lat="43.184121027588844" lon="-1.337371040135622">
        <ele>139.53</ele>
        <time>2025-04-27T09:24:58Z</time>
      </trkpt>
      <trkpt lat="43.184035029262304" lon="-1.337301973253489">
        <ele>139.05000000000001</ele>
        <time>2025-04-27T09:24:59Z</time>
      </trkpt>
      <trkpt lat="43.183951964601874" lon="-1.337235001847148">
        <ele>139.05000000000001</ele>
        <time>2025-04-27T09:25:00Z</time>
      </trkpt>
      <trkpt lat="43.183873007073998" lon="-1.337165012955666">
        <ele>139.05000000000001</ele>
        <time>2025-04-27T09:25:01Z</time>
      </trkpt>
      <trkpt lat="43.183793965727091" lon="-1.337092006579042">
        <ele>138.56999999999999</ele>
        <time>2025-04-27T09:25:02Z</time>
      </trkpt>
      <trkpt lat="43.183543011546135" lon="-1.336879022419453">
        <ele>138.56999999999999</ele>
        <time>2025-04-27T09:25:05Z</time>
      </trkpt>
      <trkpt lat="43.1833600345999" lon="-1.336807021871209">
        <ele>139.05000000000001</ele>
        <time>2025-04-27T09:25:07Z</time>
      </trkpt>
      <trkpt lat="43.183142021298409" lon="-1.33676896803081">
        <ele>140.00999999999999</ele>
        <time>2025-04-27T09:25:10Z</time>
      </trkpt>
      <trkpt lat="43.182829041033983" lon="-1.336773997172713">
        <ele>141.44999999999999</ele>
        <time>2025-04-27T09:25:19Z</time>
      </trkpt>
      <trkpt lat="43.182625025510788" lon="-1.336781037971377">
        <ele>145.30000000000001</ele>
        <time>2025-04-27T09:25:29Z</time>
      </trkpt>
      <trkpt lat="43.182546989992261" lon="-1.336736027151346">
        <ele>146.25999999999999</ele>
        <time>2025-04-27T09:25:33Z</time>
      </trkpt>
      <trkpt lat="43.182528968900442" lon="-1.336669977754355">
        <ele>146.74000000000001</ele>
        <time>2025-04-27T09:25:34Z</time>
      </trkpt>
      <trkpt lat="43.182512959465384" lon="-1.336602000519633">
        <ele>147.22</ele>
        <time>2025-04-27T09:25:35Z</time>
      </trkpt>
      <trkpt lat="43.182509019970894" lon="-1.33651097305119">
        <ele>147.69999999999999</ele>
        <time>2025-04-27T09:25:36Z</time>
      </trkpt>
      <trkpt lat="43.182504996657372" lon="-1.336416006088257">
        <ele>147.69999999999999</ele>
        <time>2025-04-27T09:25:37Z</time>
      </trkpt>
      <trkpt lat="43.182490998879075" lon="-1.336118029430509">
        <ele>148.18000000000001</ele>
        <time>2025-04-27T09:25:40Z</time>
      </trkpt>
      <trkpt lat="43.182470966130495" lon="-1.3355209864676">
        <ele>148.18000000000001</ele>
        <time>2025-04-27T09:25:49Z</time>
      </trkpt>
      <trkpt lat="43.18245998583734" lon="-1.335357958450913">
        <ele>147.69999999999999</ele>
        <time>2025-04-27T09:25:53Z</time>
      </trkpt>
      <trkpt lat="43.182442970573902" lon="-1.335332980379462">
        <ele>147.69999999999999</ele>
        <time>2025-04-27T09:25:54Z</time>
      </trkpt>
      <trkpt lat="43.182427966967225" lon="-1.335311019793153">
        <ele>147.69999999999999</ele>
        <time>2025-04-27T09:25:55Z</time>
      </trkpt>
      <trkpt lat="43.182364013046026" lon="-1.335230972617865">
        <ele>147.69999999999999</ele>
        <time>2025-04-27T09:25:56Z</time>
      </trkpt>
      <trkpt lat="43.182310033589602" lon="-1.335214963182807">
        <ele>147.69999999999999</ele>
        <time>2025-04-27T09:25:57Z</time>
      </trkpt>
      <trkpt lat="43.182251024991274" lon="-1.33519702591002">
        <ele>147.69999999999999</ele>
        <time>2025-04-27T09:25:58Z</time>
      </trkpt>
      <trkpt lat="43.182193022221327" lon="-1.335179004818201">
        <ele>147.69999999999999</ele>
        <time>2025-04-27T09:25:59Z</time>
      </trkpt>
      <trkpt lat="43.182033011689782" lon="-1.335109015926719">
        <ele>148.18000000000001</ele>
        <time>2025-04-27T09:26:02Z</time>
      </trkpt>
      <trkpt lat="43.181981965899467" lon="-1.335057970136404">
        <ele>148.18000000000001</ele>
        <time>2025-04-27T09:26:03Z</time>
      </trkpt>
      <trkpt lat="43.181807035580277" lon="-1.334820007905364">
        <ele>149.62</ele>
        <time>2025-04-27T09:26:07Z</time>
      </trkpt>
      <trkpt lat="43.181720031425357" lon="-1.334796035662293">
        <ele>150.09999999999999</ele>
        <time>2025-04-27T09:26:08Z</time>
      </trkpt>
      <trkpt lat="43.1816659681499" lon="-1.334796035662293">
        <ele>151.06</ele>
        <time>2025-04-27T09:26:09Z</time>
      </trkpt>
      <trkpt lat="43.18157703615725" lon="-1.334815984591842">
        <ele>151.06</ele>
        <time>2025-04-27T09:26:10Z</time>
      </trkpt>
      <trkpt lat="43.181530013680458" lon="-1.334879016503692">
        <ele>151.53999999999999</ele>
        <time>2025-04-27T09:26:11Z</time>
      </trkpt>
      <trkpt lat="43.181478967890143" lon="-1.334946993738413">
        <ele>152.03</ele>
        <time>2025-04-27T09:26:12Z</time>
      </trkpt>
      <trkpt lat="43.181424988433719" lon="-1.335020000115037">
        <ele>152.03</ele>
        <time>2025-04-27T09:26:13Z</time>
      </trkpt>
      <trkpt lat="43.181068003177643" lon="-1.335501037538052">
        <ele>152.99000000000001</ele>
        <time>2025-04-27T09:26:18Z</time>
      </trkpt>
      <trkpt lat="43.180972030386329" lon="-1.335590975359082">
        <ele>153.47</ele>
        <time>2025-04-27T09:26:19Z</time>
      </trkpt>
      <trkpt lat="43.180629964917898" lon="-1.335809994488955">
        <ele>155.38999999999999</ele>
        <time>2025-04-27T09:26:22Z</time>
      </trkpt>
      <trkpt lat="43.179187020286918" lon="-1.336263958364725">
        <ele>159.24000000000001</ele>
        <time>2025-04-27T09:26:33Z</time>
      </trkpt>
      <trkpt lat="43.178109023720026" lon="-1.336814984679222">
        <ele>158.27000000000001</ele>
        <time>2025-04-27T09:26:42Z</time>
      </trkpt>
      <trkpt lat="43.177306959405541" lon="-1.337944027036429">
        <ele>157.78999999999999</ele>
        <time>2025-04-27T09:26:51Z</time>
      </trkpt>
      <trkpt lat="43.176624001935124" lon="-1.33986096829176">
        <ele>160.19999999999999</ele>
        <time>2025-04-27T09:27:03Z</time>
      </trkpt>
      <trkpt lat="43.175951018929482" lon="-1.341714039444923">
        <ele>161.16</ele>
        <time>2025-04-27T09:27:14Z</time>
      </trkpt>
      <trkpt lat="43.175011994317174" lon="-1.344099026173353">
        <ele>162.59999999999999</ele>
        <time>2025-04-27T09:27:29Z</time>
      </trkpt>
      <trkpt lat="43.174678981304169" lon="-1.344943000003696">
        <ele>162.59999999999999</ele>
        <time>2025-04-27T09:27:36Z</time>
      </trkpt>
      <trkpt lat="43.174650985747576" lon="-1.345019023865461">
        <ele>162.59999999999999</ele>
        <time>2025-04-27T09:27:37Z</time>
      </trkpt>
      <trkpt lat="43.174695996567607" lon="-1.34520803578198">
        <ele>162.59999999999999</ele>
        <time>2025-04-27T09:27:39Z</time>
      </trkpt>
      <trkpt lat="43.174673030152917" lon="-1.345286993309856">
        <ele>162.59999999999999</ele>
        <time>2025-04-27T09:27:40Z</time>
      </trkpt>
      <trkpt lat="43.17453196272254" lon="-1.345375003293157">
        <ele>162.59999999999999</ele>
        <time>2025-04-27T09:27:41Z</time>
      </trkpt>
      <trkpt lat="43.174412017688155" lon="-1.345729976892471">
        <ele>162.12</ele>
        <time>2025-04-27T09:27:45Z</time>
      </trkpt>
      <trkpt lat="43.173986971378326" lon="-1.346991034224629">
        <ele>161.16</ele>
        <time>2025-04-27T09:27:55Z</time>
      </trkpt>
      <trkpt lat="43.173639038577676" lon="-1.348022008314729">
        <ele>163.08000000000001</ele>
        <time>2025-04-27T09:28:07Z</time>
      </trkpt>
      <trkpt lat="43.173639038577676" lon="-1.348022008314729">
        <ele>163.56</ele>
        <time>2025-04-27T09:28:17Z</time>
      </trkpt>
      <trkpt lat="43.173639038577676" lon="-1.348022008314729">
        <ele>163.56</ele>
        <time>2025-04-27T09:29:12Z</time>
      </trkpt>
      <trkpt lat="43.173639038577676" lon="-1.348022008314729">
        <ele>163.56</ele>
        <time>2025-04-27T09:29:16Z</time>
      </trkpt>
      <trkpt lat="43.173626968637109" lon="-1.348056038841605">
        <ele>163.56</ele>
        <time>2025-04-27T09:29:17Z</time>
      </trkpt>
      <trkpt lat="43.173624034970999" lon="-1.348065007477999">
        <ele>163.56</ele>
        <time>2025-04-27T09:29:19Z</time>
      </trkpt>
      <trkpt lat="43.173639960587025" lon="-1.348018990829587">
        <ele>163.56</ele>
        <time>2025-04-27T09:29:20Z</time>
      </trkpt>
      <trkpt lat="43.173660999163985" lon="-1.347954031080008">
        <ele>163.56</ele>
        <time>2025-04-27T09:29:21Z</time>
      </trkpt>
      <trkpt lat="43.173690000548959" lon="-1.347870966419578">
        <ele>163.08000000000001</ele>
        <time>2025-04-27T09:29:22Z</time>
      </trkpt>
      <trkpt lat="43.174022007733583" lon="-1.346885003149509">
        <ele>163.08000000000001</ele>
        <time>2025-04-27T09:29:30Z</time>
      </trkpt>
      <trkpt lat="43.174476977437735" lon="-1.345537025481463">
        <ele>162.59999999999999</ele>
        <time>2025-04-27T09:29:40Z</time>
      </trkpt>
      <trkpt lat="43.174507990479469" lon="-1.345444992184639">
        <ele>162.59999999999999</ele>
        <time>2025-04-27T09:29:41Z</time>
      </trkpt>
      <trkpt lat="43.17451000213623" lon="-1.345303002744913">
        <ele>163.08000000000001</ele>
        <time>2025-04-27T09:29:42Z</time>
      </trkpt>
      <trkpt lat="43.174468008801341" lon="-1.345160007476807">
        <ele>163.08000000000001</ele>
        <time>2025-04-27T09:29:43Z</time>
      </trkpt>
      <trkpt lat="43.17448703572154" lon="-1.345135029405356">
        <ele>163.08000000000001</ele>
        <time>2025-04-27T09:29:44Z</time>
      </trkpt>
      <trkpt lat="43.174543026834726" lon="-1.345071997493506">
        <ele>163.08000000000001</ele>
        <time>2025-04-27T09:29:45Z</time>
      </trkpt>
      <trkpt lat="43.17459499463439" lon="-1.345062023028731">
        <ele>163.08000000000001</ele>
        <time>2025-04-27T09:29:46Z</time>
      </trkpt>
      <trkpt lat="43.174676969647408" lon="-1.345128994435072">
        <ele>163.56</ele>
        <time>2025-04-27T09:29:47Z</time>
      </trkpt>
      <trkpt lat="43.17470395937562" lon="-1.345180962234736">
        <ele>163.56</ele>
        <time>2025-04-27T09:29:48Z</time>
      </trkpt>
      <trkpt lat="43.17470395937562" lon="-1.345180962234736">
        <ele>163.56</ele>
        <time>2025-04-27T09:29:49Z</time>
      </trkpt>
      <trkpt lat="43.174783000722528" lon="-1.345349019393325">
        <ele>163.56</ele>
        <time>2025-04-27T09:29:51Z</time>
      </trkpt>
      <trkpt lat="43.174818959087133" lon="-1.345353964716196">
        <ele>163.08000000000001</ele>
        <time>2025-04-27T09:29:52Z</time>
      </trkpt>
      <trkpt lat="43.174851983785629" lon="-1.345358993858099">
        <ele>163.08000000000001</ele>
        <time>2025-04-27T09:29:53Z</time>
      </trkpt>
      <trkpt lat="43.175116013735533" lon="-1.345358993858099">
        <ele>161.16</ele>
        <time>2025-04-27T09:30:03Z</time>
      </trkpt>
      <trkpt lat="43.175164964050055" lon="-1.345353964716196">
        <ele>161.16</ele>
        <time>2025-04-27T09:30:04Z</time>
      </trkpt>
      <trkpt lat="43.17521802149713" lon="-1.345352958887816">
        <ele>160.68000000000001</ele>
        <time>2025-04-27T09:30:05Z</time>
      </trkpt>
      <trkpt lat="43.175273006781936" lon="-1.345379026606679">
        <ele>160.68000000000001</ele>
        <time>2025-04-27T09:30:06Z</time>
      </trkpt>
      <trkpt lat="43.17530401982367" lon="-1.34540299884975">
        <ele>160.19999999999999</ele>
        <time>2025-04-27T09:30:07Z</time>
      </trkpt>
      <trkpt lat="43.175327992066741" lon="-1.345422025769949">
        <ele>157.31</ele>
        <time>2025-04-27T09:30:16Z</time>
      </trkpt>
      <trkpt lat="43.175327992066741" lon="-1.345422025769949">
        <ele>156.83000000000001</ele>
        <time>2025-04-27T09:30:25Z</time>
      </trkpt>
      <trkpt lat="43.175350958481431" lon="-1.345439963042736">
        <ele>156.83000000000001</ele>
        <time>2025-04-27T09:30:26Z</time>
      </trkpt>
      <trkpt lat="43.175250962376595" lon="-1.345362011343241">
        <ele>156.83000000000001</ele>
        <time>2025-04-27T09:30:30Z</time>
      </trkpt>
      <trkpt lat="43.175176028162241" lon="-1.345352958887816">
        <ele>157.31</ele>
        <time>2025-04-27T09:30:31Z</time>
      </trkpt>
      <trkpt lat="43.174763973802328" lon="-1.345347007736564">
        <ele>157.78999999999999</ele>
        <time>2025-04-27T09:30:38Z</time>
      </trkpt>
      <trkpt lat="43.174706976860762" lon="-1.34533803910017">
        <ele>157.78999999999999</ele>
        <time>2025-04-27T09:30:39Z</time>
      </trkpt>
      <trkpt lat="43.174634976312518" lon="-1.3453399669379">
        <ele>157.31</ele>
        <time>2025-04-27T09:30:40Z</time>
      </trkpt>
      <trkpt lat="43.174577979370952" lon="-1.345358993858099">
        <ele>157.31</ele>
        <time>2025-04-27T09:30:41Z</time>
      </trkpt>
      <trkpt lat="43.174502039328218" lon="-1.345465024933219">
        <ele>156.83000000000001</ele>
        <time>2025-04-27T09:30:42Z</time>
      </trkpt>
      <trkpt lat="43.174471026286483" lon="-1.34555496275425">
        <ele>156.83000000000001</ele>
        <time>2025-04-27T09:30:43Z</time>
      </trkpt>
      <trkpt lat="43.174099959433079" lon="-1.346655003726482">
        <ele>158.75</ele>
        <time>2025-04-27T09:30:53Z</time>
      </trkpt>
      <trkpt lat="43.173637026920915" lon="-1.348027959465981">
        <ele>161.16</ele>
        <time>2025-04-27T09:31:05Z</time>
      </trkpt>
      <trkpt lat="43.173011988401413" lon="-1.349735017865896">
        <ele>162.12</ele>
        <time>2025-04-27T09:31:17Z</time>
      </trkpt>
      <trkpt lat="43.172498010098934" lon="-1.350669013336301">
        <ele>159.72</ele>
        <time>2025-04-27T09:31:27Z</time>
      </trkpt>
      <trkpt lat="43.172240015119314" lon="-1.351292040199041">
        <ele>160.19999999999999</ele>
        <time>2025-04-27T09:31:34Z</time>
      </trkpt>
      <trkpt lat="43.172206990420818" lon="-1.351394969969988">
        <ele>160.19999999999999</ele>
        <time>2025-04-27T09:31:35Z</time>
      </trkpt>
      <trkpt lat="43.171721007674932" lon="-1.352937994524837">
        <ele>168.84999999999999</ele>
        <time>2025-04-27T09:31:49Z</time>
      </trkpt>
      <trkpt lat="43.171597039327025" lon="-1.353438980877399">
        <ele>170.77000000000001</ele>
        <time>2025-04-27T09:31:53Z</time>
      </trkpt>
      <trkpt lat="43.171175010502338" lon="-1.355180991813541">
        <ele>174.13999999999999</ele>
        <time>2025-04-27T09:32:05Z</time>
      </trkpt>
      <trkpt lat="43.170458022505045" lon="-1.356699038296938">
        <ele>171.72999999999999</ele>
        <time>2025-04-27T09:32:15Z</time>
      </trkpt>
      <trkpt lat="43.169682025909424" lon="-1.357567990198731">
        <ele>168.37</ele>
        <time>2025-04-27T09:32:23Z</time>
      </trkpt>
      <trkpt lat="43.169560991227627" lon="-1.357663962990046">
        <ele>167.88999999999999</ele>
        <time>2025-04-27T09:32:24Z</time>
      </trkpt>
      <trkpt lat="43.169445991516113" lon="-1.357755996286869">
        <ele>167.41</ele>
        <time>2025-04-27T09:32:25Z</time>
      </trkpt>
      <trkpt lat="43.169178022071719" lon="-1.35786697268486">
        <ele>165.47999999999999</ele>
        <time>2025-04-27T09:32:27Z</time>
      </trkpt>
      <trkpt lat="43.169041983783245" lon="-1.357922041788697">
        <ele>164.52000000000001</ele>
        <time>2025-04-27T09:32:28Z</time>
      </trkpt>
      <trkpt lat="43.168265987187624" lon="-1.358355972915888">
        <ele>161.16</ele>
        <time>2025-04-27T09:32:34Z</time>
      </trkpt>
      <trkpt lat="43.168154004961252" lon="-1.358506008982658">
        <ele>160.68000000000001</ele>
        <time>2025-04-27T09:32:35Z</time>
      </trkpt>
      <trkpt lat="43.168048979714513" lon="-1.358646992594004">
        <ele>159.72</ele>
        <time>2025-04-27T09:32:36Z</time>
      </trkpt>
      <trkpt lat="43.167944038286805" lon="-1.358785964548588">
        <ele>159.72</ele>
        <time>2025-04-27T09:32:37Z</time>
      </trkpt>
      <trkpt lat="43.167872037738562" lon="-1.358957961201668">
        <ele>159.24000000000001</ele>
        <time>2025-04-27T09:32:38Z</time>
      </trkpt>
      <trkpt lat="43.167795008048415" lon="-1.359143033623695">
        <ele>159.24000000000001</ele>
        <time>2025-04-27T09:32:39Z</time>
      </trkpt>
      <trkpt lat="43.167715966701508" lon="-1.359330033883452">
        <ele>158.75</ele>
        <time>2025-04-27T09:32:40Z</time>
      </trkpt>
      <trkpt lat="43.167381025850773" lon="-1.360020032152534">
        <ele>158.75</ele>
        <time>2025-04-27T09:32:44Z</time>
      </trkpt>
      <trkpt lat="43.167300978675485" lon="-1.360179958865047">
        <ele>158.75</ele>
        <time>2025-04-27T09:32:45Z</time>
      </trkpt>
      <trkpt lat="43.167198970913887" lon="-1.360281966626644">
        <ele>158.75</ele>
        <time>2025-04-27T09:32:46Z</time>
      </trkpt>
      <trkpt lat="43.167171981185675" lon="-1.360309040173888">
        <ele>158.75</ele>
        <time>2025-04-27T09:32:47Z</time>
      </trkpt>
      <trkpt lat="43.166999984532595" lon="-1.360331000760198">
        <ele>158.75</ele>
        <time>2025-04-27T09:32:48Z</time>
      </trkpt>
      <trkpt lat="43.166906023398042" lon="-1.360304011031985">
        <ele>158.75</ele>
        <time>2025-04-27T09:32:49Z</time>
      </trkpt>
      <trkpt lat="43.166818013414741" lon="-1.360254976898432">
        <ele>158.75</ele>
        <time>2025-04-27T09:32:50Z</time>
      </trkpt>
      <trkpt lat="43.16671097651124" lon="-1.360148023813963">
        <ele>158.75</ele>
        <time>2025-04-27T09:32:51Z</time>
      </trkpt>
      <trkpt lat="43.166633024811745" lon="-1.360015003010631">
        <ele>159.24000000000001</ele>
        <time>2025-04-27T09:32:52Z</time>
      </trkpt>
      <trkpt lat="43.166577033698559" lon="-1.359825991094112">
        <ele>159.24000000000001</ele>
        <time>2025-04-27T09:32:53Z</time>
      </trkpt>
      <trkpt lat="43.166518025100231" lon="-1.359628010541201">
        <ele>159.24000000000001</ele>
        <time>2025-04-27T09:32:54Z</time>
      </trkpt>
      <trkpt lat="43.166263969615102" lon="-1.358818989247084">
        <ele>159.24000000000001</ele>
        <time>2025-04-27T09:32:58Z</time>
      </trkpt>
      <trkpt lat="43.166164979338646" lon="-1.358639029785991">
        <ele>159.24000000000001</ele>
        <time>2025-04-27T09:32:59Z</time>
      </trkpt>
      <trkpt lat="43.165455032140017" lon="-1.357626998797059">
        <ele>158.27000000000001</ele>
        <time>2025-04-27T09:33:05Z</time>
      </trkpt>
      <trkpt lat="43.165322011336684" lon="-1.357493977993727">
        <ele>157.78999999999999</ele>
        <time>2025-04-27T09:33:06Z</time>
      </trkpt>
      <trkpt lat="43.165166024118662" lon="-1.357426000759006">
        <ele>157.78999999999999</ele>
        <time>2025-04-27T09:33:07Z</time>
      </trkpt>
      <trkpt lat="43.165005007758737" lon="-1.357367997989059">
        <ele>157.78999999999999</ele>
        <time>2025-04-27T09:33:08Z</time>
      </trkpt>
      <trkpt lat="43.164846003055573" lon="-1.357309995219111">
        <ele>157.78999999999999</ele>
        <time>2025-04-27T09:33:09Z</time>
      </trkpt>
      <trkpt lat="43.164692027494311" lon="-1.357348971068859">
        <ele>157.78999999999999</ele>
        <time>2025-04-27T09:33:10Z</time>
      </trkpt>
      <trkpt lat="43.164538973942399" lon="-1.357396999374032">
        <ele>157.31</ele>
        <time>2025-04-27T09:33:11Z</time>
      </trkpt>
      <trkpt lat="43.164400001987815" lon="-1.357496995478869">
        <ele>157.31</ele>
        <time>2025-04-27T09:33:12Z</time>
      </trkpt>
      <trkpt lat="43.164258012548089" lon="-1.357630016282201">
        <ele>157.31</ele>
        <time>2025-04-27T09:33:13Z</time>
      </trkpt>
      <trkpt lat="43.164114011451602" lon="-1.357767982408404">
        <ele>157.78999999999999</ele>
        <time>2025-04-27T09:33:14Z</time>
      </trkpt>
      <trkpt lat="43.163475980982184" lon="-1.358437025919557">
        <ele>159.72</ele>
        <time>2025-04-27T09:33:19Z</time>
      </trkpt>
      <trkpt lat="43.163348995149136" lon="-1.358505003154278">
        <ele>160.19999999999999</ele>
        <time>2025-04-27T09:33:20Z</time>
      </trkpt>
      <trkpt lat="43.163205999881029" lon="-1.35853199288249">
        <ele>160.68000000000001</ele>
        <time>2025-04-27T09:33:21Z</time>
      </trkpt>
      <trkpt lat="43.163071973249316" lon="-1.358494022861123">
        <ele>161.16</ele>
        <time>2025-04-27T09:33:22Z</time>
      </trkpt>
      <trkpt lat="43.162935012951493" lon="-1.358436020091176">
        <ele>161.63999999999999</ele>
        <time>2025-04-27T09:33:23Z</time>
      </trkpt>
      <trkpt lat="43.162811966612935" lon="-1.358328983187676">
        <ele>162.12</ele>
        <time>2025-04-27T09:33:24Z</time>
      </trkpt>
      <trkpt lat="43.162682969123125" lon="-1.358215995132923">
        <ele>162.59999999999999</ele>
        <time>2025-04-27T09:33:25Z</time>
      </trkpt>
      <trkpt lat="43.162565035745502" lon="-1.358064031228423">
        <ele>163.08000000000001</ele>
        <time>2025-04-27T09:33:26Z</time>
      </trkpt>
      <trkpt lat="43.162461016327143" lon="-1.357884993776679">
        <ele>164.03999999999999</ele>
        <time>2025-04-27T09:33:27Z</time>
      </trkpt>
      <trkpt lat="43.1623509619385" lon="-1.35769497603178">
        <ele>164.52000000000001</ele>
        <time>2025-04-27T09:33:28Z</time>
      </trkpt>
      <trkpt lat="43.161594998091459" lon="-1.356584960594773">
        <ele>169.33000000000001</ele>
        <time>2025-04-27T09:33:34Z</time>
      </trkpt>
      <trkpt lat="43.161438005045056" lon="-1.356454035267234">
        <ele>169.81</ele>
        <time>2025-04-27T09:33:35Z</time>
      </trkpt>
      <trkpt lat="43.160610962659121" lon="-1.355943996459246">
        <ele>173.16999999999999</ele>
        <time>2025-04-27T09:33:40Z</time>
      </trkpt>
      <trkpt lat="43.160253977403045" lon="-1.355891022831202">
        <ele>174.13999999999999</ele>
        <time>2025-04-27T09:33:42Z</time>
      </trkpt>
      <trkpt lat="43.160083992406726" lon="-1.355929998680949">
        <ele>174.62</ele>
        <time>2025-04-27T09:33:43Z</time>
      </trkpt>
      <trkpt lat="43.159918030723929" lon="-1.356003005057573">
        <ele>175.09999999999999</ele>
        <time>2025-04-27T09:33:44Z</time>
      </trkpt>
      <trkpt lat="43.159763971343637" lon="-1.356118004769087">
        <ele>175.58000000000001</ele>
        <time>2025-04-27T09:33:45Z</time>
      </trkpt>
      <trkpt lat="43.159623993560672" lon="-1.356242978945375">
        <ele>176.53999999999999</ele>
        <time>2025-04-27T09:33:46Z</time>
      </trkpt>
      <trkpt lat="43.159530032426119" lon="-1.356422016397119">
        <ele>177.02000000000001</ele>
        <time>2025-04-27T09:33:47Z</time>
      </trkpt>
      <trkpt lat="43.159433975815773" lon="-1.356604993343353">
        <ele>177.5</ele>
        <time>2025-04-27T09:33:48Z</time>
      </trkpt>
      <trkpt lat="43.159374967217445" lon="-1.356835998594761">
        <ele>177.97999999999999</ele>
        <time>2025-04-27T09:33:49Z</time>
      </trkpt>
      <trkpt lat="43.159333979710937" lon="-1.357081001624465">
        <ele>178.46000000000001</ele>
        <time>2025-04-27T09:33:50Z</time>
      </trkpt>
      <trkpt lat="43.159317970275879" lon="-1.357346037402749">
        <ele>178.94</ele>
        <time>2025-04-27T09:33:51Z</time>
      </trkpt>
      <trkpt lat="43.159317970275879" lon="-1.357620041817427">
        <ele>179.90000000000001</ele>
        <time>2025-04-27T09:33:52Z</time>
      </trkpt>
      <trkpt lat="43.159403968602419" lon="-1.359727000817657">
        <ele>186.63</ele>
        <time>2025-04-27T09:34:00Z</time>
      </trkpt>
      <trkpt lat="43.159388964995742" lon="-1.359979966655374">
        <ele>187.11000000000001</ele>
        <time>2025-04-27T09:34:01Z</time>
      </trkpt>
      <trkpt lat="43.159360969439149" lon="-1.360217006877065">
        <ele>188.08000000000001</ele>
        <time>2025-04-27T09:34:02Z</time>
      </trkpt>
      <trkpt lat="43.159329034388065" lon="-1.360434014350176">
        <ele>188.56</ele>
        <time>2025-04-27T09:34:03Z</time>
      </trkpt>
      <trkpt lat="43.159261979162693" lon="-1.360614979639649">
        <ele>189.03999999999999</ele>
        <time>2025-04-27T09:34:04Z</time>
      </trkpt>
      <trkpt lat="43.159178998321295" lon="-1.360780019313097">
        <ele>189.03999999999999</ele>
        <time>2025-04-27T09:34:05Z</time>
      </trkpt>
      <trkpt lat="43.159066010266542" lon="-1.360879009589553">
        <ele>190</ele>
        <time>2025-04-27T09:34:06Z</time>
      </trkpt>
      <trkpt lat="43.15895302221179" lon="-1.360936006531119">
        <ele>190.47999999999999</ele>
        <time>2025-04-27T09:34:07Z</time>
      </trkpt>
      <trkpt lat="43.158818995580077" lon="-1.360951010137796">
        <ele>190.96000000000001</ele>
        <time>2025-04-27T09:34:08Z</time>
      </trkpt>
      <trkpt lat="43.15869796089828" lon="-1.360899964347482">
        <ele>190.96000000000001</ele>
        <time>2025-04-27T09:34:09Z</time>
      </trkpt>
      <trkpt lat="43.158574998378754" lon="-1.36083098128438">
        <ele>191.44</ele>
        <time>2025-04-27T09:34:10Z</time>
      </trkpt>
      <trkpt lat="43.158448012545705" lon="-1.360705001279712">
        <ele>191.44</ele>
        <time>2025-04-27T09:34:11Z</time>
      </trkpt>
      <trkpt lat="43.158334018662572" lon="-1.360573992133141">
        <ele>191.44</ele>
        <time>2025-04-27T09:34:12Z</time>
      </trkpt>
      <trkpt lat="43.158237040042877" lon="-1.360387997701764">
        <ele>191.44</ele>
        <time>2025-04-27T09:34:13Z</time>
      </trkpt>
      <trkpt lat="43.15813503228128" lon="-1.360193034633994">
        <ele>191.44</ele>
        <time>2025-04-27T09:34:14Z</time>
      </trkpt>
      <trkpt lat="43.15807300619781" lon="-1.359979966655374">
        <ele>191.44</ele>
        <time>2025-04-27T09:34:15Z</time>
      </trkpt>
      <trkpt lat="43.158013997599483" lon="-1.359736975282431">
        <ele>190.96000000000001</ele>
        <time>2025-04-27T09:34:16Z</time>
      </trkpt>
      <trkpt lat="43.157952977344394" lon="-1.359488032758236">
        <ele>190.47999999999999</ele>
        <time>2025-04-27T09:34:17Z</time>
      </trkpt>
      <trkpt lat="43.157898997887969" lon="-1.35924001224339">
        <ele>190.47999999999999</ele>
        <time>2025-04-27T09:34:18Z</time>
      </trkpt>
      <trkpt lat="43.157757008448243" lon="-1.357798995450139">
        <ele>188.08000000000001</ele>
        <time>2025-04-27T09:34:24Z</time>
      </trkpt>
      <trkpt lat="43.157692970708013" lon="-1.357633033767343">
        <ele>187.59</ele>
        <time>2025-04-27T09:34:25Z</time>
      </trkpt>
      <trkpt lat="43.157604960724711" lon="-1.357484003528953">
        <ele>187.59</ele>
        <time>2025-04-27T09:34:26Z</time>
      </trkpt>
      <trkpt lat="43.157498007640243" lon="-1.357348971068859">
        <ele>187.59</ele>
        <time>2025-04-27T09:34:27Z</time>
      </trkpt>
      <trkpt lat="43.157374039292336" lon="-1.357236988842487">
        <ele>187.11000000000001</ele>
        <time>2025-04-27T09:34:28Z</time>
      </trkpt>
      <trkpt lat="43.157230038195848" lon="-1.357172029092908">
        <ele>187.11000000000001</ele>
        <time>2025-04-27T09:34:29Z</time>
      </trkpt>
      <trkpt lat="43.157082013785839" lon="-1.357174962759018">
        <ele>186.63</ele>
        <time>2025-04-27T09:34:30Z</time>
      </trkpt>
      <trkpt lat="43.156932983547449" lon="-1.357201030477881">
        <ele>186.63</ele>
        <time>2025-04-27T09:34:31Z</time>
      </trkpt>
      <trkpt lat="43.156789988279343" lon="-1.357248974964023">
        <ele>186.63</ele>
        <time>2025-04-27T09:34:32Z</time>
      </trkpt>
      <trkpt lat="43.156659984961152" lon="-1.35735098272562">
        <ele>186.63</ele>
        <time>2025-04-27T09:34:33Z</time>
      </trkpt>
      <trkpt lat="43.156557977199554" lon="-1.357510993257165">
        <ele>187.11000000000001</ele>
        <time>2025-04-27T09:34:34Z</time>
      </trkpt>
      <trkpt lat="43.156465021893382" lon="-1.357680978253484">
        <ele>187.59</ele>
        <time>2025-04-27T09:34:35Z</time>
      </trkpt>
      <trkpt lat="43.156367037445307" lon="-1.357856998220086">
        <ele>188.08000000000001</ele>
        <time>2025-04-27T09:34:36Z</time>
      </trkpt>
      <trkpt lat="43.1562689691782" lon="-1.358051039278507">
        <ele>188.56</ele>
        <time>2025-04-27T09:34:37Z</time>
      </trkpt>
      <trkpt lat="43.155519962310791" lon="-1.359621975570917">
        <ele>192.88</ele>
        <time>2025-04-27T09:34:45Z</time>
      </trkpt>
      <trkpt lat="43.154074000194669" lon="-1.361211016774178">
        <ele>194.80000000000001</ele>
        <time>2025-04-27T09:34:55Z</time>
      </trkpt>
      <trkpt lat="43.153602015227079" lon="-1.361629022285342">
        <ele>194.80000000000001</ele>
        <time>2025-04-27T09:34:58Z</time>
      </trkpt>
      <trkpt lat="43.153419960290194" lon="-1.361721977591515">
        <ele>194.80000000000001</ele>
        <time>2025-04-27T09:34:59Z</time>
      </trkpt>
      <trkpt lat="43.15130696631968" lon="-1.362811038270593">
        <ele>196.25</ele>
        <time>2025-04-27T09:35:10Z</time>
      </trkpt>
      <trkpt lat="43.14993099309504" lon="-1.363716032356024">
        <ele>197.69</ele>
        <time>2025-04-27T09:35:18Z</time>
      </trkpt>
      <trkpt lat="43.149811970070004" lon="-1.363869002088904">
        <ele>198.16999999999999</ele>
        <time>2025-04-27T09:35:19Z</time>
      </trkpt>
      <trkpt lat="43.14971499145031" lon="-1.364014009013772">
        <ele>198.16999999999999</ele>
        <time>2025-04-27T09:35:20Z</time>
      </trkpt>
      <trkpt lat="43.149654977023602" lon="-1.364193968474865">
        <ele>199.13</ele>
        <time>2025-04-27T09:35:21Z</time>
      </trkpt>
      <trkpt lat="43.149594040587544" lon="-1.364376023411751">
        <ele>199.61000000000001</ele>
        <time>2025-04-27T09:35:22Z</time>
      </trkpt>
      <trkpt lat="43.149577025324106" lon="-1.364579033106566">
        <ele>200.09</ele>
        <time>2025-04-27T09:35:23Z</time>
      </trkpt>
      <trkpt lat="43.149577025324106" lon="-1.364787993952632">
        <ele>200.56999999999999</ele>
        <time>2025-04-27T09:35:24Z</time>
      </trkpt>
      <trkpt lat="43.149626981467009" lon="-1.364985974505544">
        <ele>201.05000000000001</ele>
        <time>2025-04-27T09:35:25Z</time>
      </trkpt>
      <trkpt lat="43.149683978408575" lon="-1.365200970321894">
        <ele>201.53</ele>
        <time>2025-04-27T09:35:26Z</time>
      </trkpt>
      <trkpt lat="43.14977802336216" lon="-1.365394005551934">
        <ele>202.00999999999999</ele>
        <time>2025-04-27T09:35:27Z</time>
      </trkpt>
      <trkpt lat="43.150143977254629" lon="-1.366149969398975">
        <ele>205.38</ele>
        <time>2025-04-27T09:35:31Z</time>
      </trkpt>
      <trkpt lat="43.150227963924408" lon="-1.366325989365578">
        <ele>205.86000000000001</ele>
        <time>2025-04-27T09:35:32Z</time>
      </trkpt>
      <trkpt lat="43.150370037183166" lon="-1.366660008206964">
        <ele>206.81999999999999</ele>
        <time>2025-04-27T09:35:34Z</time>
      </trkpt>
      <trkpt lat="43.150439020246267" lon="-1.366830999031663">
        <ele>207.30000000000001</ele>
        <time>2025-04-27T09:35:35Z</time>
      </trkpt>
      <trkpt lat="43.150481013581157" lon="-1.367013975977898">
        <ele>207.78</ele>
        <time>2025-04-27T09:35:36Z</time>
      </trkpt>
      <trkpt lat="43.150511020794511" lon="-1.367186978459358">
        <ele>208.25999999999999</ele>
        <time>2025-04-27T09:35:37Z</time>
      </trkpt>
      <trkpt lat="43.150500962510705" lon="-1.367352018132806">
        <ele>208.25999999999999</ele>
        <time>2025-04-27T09:35:38Z</time>
      </trkpt>
      <trkpt lat="43.15046701580286" lon="-1.36749099008739">
        <ele>208.25999999999999</ele>
        <time>2025-04-27T09:35:39Z</time>
      </trkpt>
      <trkpt lat="43.150394009426236" lon="-1.367592997848988">
        <ele>208.25999999999999</ele>
        <time>2025-04-27T09:35:40Z</time>
      </trkpt>
      <trkpt lat="43.15029501914978" lon="-1.367638008669019">
        <ele>208.25999999999999</ele>
        <time>2025-04-27T09:35:41Z</time>
      </trkpt>
      <trkpt lat="43.150168033316731" lon="-1.367657035589218">
        <ele>208.74000000000001</ele>
        <time>2025-04-27T09:35:42Z</time>
      </trkpt>
      <trkpt lat="43.150025960057974" lon="-1.367659969255328">
        <ele>208.74000000000001</ele>
        <time>2025-04-27T09:35:43Z</time>
      </trkpt>
      <trkpt lat="43.149859998375177" lon="-1.367635997012258">
        <ele>208.74000000000001</ele>
        <time>2025-04-27T09:35:44Z</time>
      </trkpt>
      <trkpt lat="43.14949999563396" lon="-1.367545975372195">
        <ele>208.74000000000001</ele>
        <time>2025-04-27T09:35:46Z</time>
      </trkpt>
      <trkpt lat="43.149311989545822" lon="-1.367469029501081">
        <ele>208.74000000000001</ele>
        <time>2025-04-27T09:35:47Z</time>
      </trkpt>
      <trkpt lat="43.147949008271098" lon="-1.367100980132818">
        <ele>209.22</ele>
        <time>2025-04-27T09:35:54Z</time>
      </trkpt>
      <trkpt lat="43.147765025496483" lon="-1.367039959877729">
        <ele>209.22</ele>
        <time>2025-04-27T09:35:55Z</time>
      </trkpt>
      <trkpt lat="43.147592023015022" lon="-1.366966031491756">
        <ele>209.69999999999999</ele>
        <time>2025-04-27T09:35:56Z</time>
      </trkpt>
      <trkpt lat="43.147435029968619" lon="-1.366823958232999">
        <ele>210.19</ele>
        <time>2025-04-27T09:35:57Z</time>
      </trkpt>
      <trkpt lat="43.147285999730229" lon="-1.366684986278415">
        <ele>210.66999999999999</ele>
        <time>2025-04-27T09:35:58Z</time>
      </trkpt>
      <trkpt lat="43.147146021947265" lon="-1.366553977131844">
        <ele>210.66999999999999</ele>
        <time>2025-04-27T09:35:59Z</time>
      </trkpt>
      <trkpt lat="43.147019036114216" lon="-1.366435037925839">
        <ele>210.66999999999999</ele>
        <time>2025-04-27T09:36:00Z</time>
      </trkpt>
      <trkpt lat="43.146894983947277" lon="-1.366335963830352">
        <ele>210.66999999999999</ele>
        <time>2025-04-27T09:36:01Z</time>
      </trkpt>
      <trkpt lat="43.146733967587352" lon="-1.366310985758901">
        <ele>210.66999999999999</ele>
        <time>2025-04-27T09:36:02Z</time>
      </trkpt>
      <trkpt lat="43.146558031439781" lon="-1.366283996030688">
        <ele>210.66999999999999</ele>
        <time>2025-04-27T09:36:03Z</time>
      </trkpt>
      <trkpt lat="43.145619006827474" lon="-1.366141000762582">
        <ele>210.66999999999999</ele>
        <time>2025-04-27T09:36:08Z</time>
      </trkpt>
      <trkpt lat="43.145424965769053" lon="-1.366110993549228">
        <ele>210.66999999999999</ele>
        <time>2025-04-27T09:36:09Z</time>
      </trkpt>
      <trkpt lat="43.14522597938776" lon="-1.366103030741215">
        <ele>210.66999999999999</ele>
        <time>2025-04-27T09:36:10Z</time>
      </trkpt>
      <trkpt lat="43.145032022148371" lon="-1.366103030741215">
        <ele>210.66999999999999</ele>
        <time>2025-04-27T09:36:11Z</time>
      </trkpt>
      <trkpt lat="43.144842004403472" lon="-1.366104958578944">
        <ele>210.19</ele>
        <time>2025-04-27T09:36:12Z</time>
      </trkpt>
      <trkpt lat="43.144147982820868" lon="-1.366231022402644">
        <ele>209.69999999999999</ele>
        <time>2025-04-27T09:36:16Z</time>
      </trkpt>
      <trkpt lat="43.144003981724381" lon="-1.366195986047387">
        <ele>209.22</ele>
        <time>2025-04-27T09:36:17Z</time>
      </trkpt>
      <trkpt lat="43.143875990062952" lon="-1.366106970235705">
        <ele>208.74000000000001</ele>
        <time>2025-04-27T09:36:18Z</time>
      </trkpt>
      <trkpt lat="43.143738023936749" lon="-1.365991970524192">
        <ele>208.25999999999999</ele>
        <time>2025-04-27T09:36:19Z</time>
      </trkpt>
      <trkpt lat="43.143588993698359" lon="-1.365870013833046">
        <ele>207.78</ele>
        <time>2025-04-27T09:36:20Z</time>
      </trkpt>
      <trkpt lat="43.14311801455915" lon="-1.365483021363616">
        <ele>206.34</ele>
        <time>2025-04-27T09:36:23Z</time>
      </trkpt>
      <trkpt lat="43.142960015684366" lon="-1.365379001945257">
        <ele>205.86000000000001</ele>
        <time>2025-04-27T09:36:24Z</time>
      </trkpt>
      <trkpt lat="43.142791958525777" lon="-1.365326028317213">
        <ele>205.38</ele>
        <time>2025-04-27T09:36:25Z</time>
      </trkpt>
      <trkpt lat="43.142133979126811" lon="-1.365180015563965">
        <ele>205.38</ele>
        <time>2025-04-27T09:36:29Z</time>
      </trkpt>
      <trkpt lat="43.141970029100776" lon="-1.365180015563965">
        <ele>205.86000000000001</ele>
        <time>2025-04-27T09:36:30Z</time>
      </trkpt>
      <trkpt lat="43.141631986945868" lon="-1.365198958665133">
        <ele>207.30000000000001</ele>
        <time>2025-04-27T09:36:32Z</time>
      </trkpt>
      <trkpt lat="43.141278019174933" lon="-1.365221003070474">
        <ele>208.74000000000001</ele>
        <time>2025-04-27T09:36:34Z</time>
      </trkpt>
      <trkpt lat="43.141113985329866" lon="-1.365193007513881">
        <ele>209.22</ele>
        <time>2025-04-27T09:36:35Z</time>
      </trkpt>
      <trkpt lat="43.140076976269484" lon="-1.36493400670588">
        <ele>214.03</ele>
        <time>2025-04-27T09:36:42Z</time>
      </trkpt>
      <trkpt lat="43.139949990436435" lon="-1.364882960915566">
        <ele>214.03</ele>
        <time>2025-04-27T09:36:43Z</time>
      </trkpt>
      <trkpt lat="43.139847982674837" lon="-1.364748012274504">
        <ele>214.03</ele>
        <time>2025-04-27T09:36:44Z</time>
      </trkpt>
      <trkpt lat="43.139741029590368" lon="-1.364607028663158">
        <ele>214.03</ele>
        <time>2025-04-27T09:36:45Z</time>
      </trkpt>
      <trkpt lat="43.139633992686868" lon="-1.364465039223433">
        <ele>214.03</ele>
        <time>2025-04-27T09:36:46Z</time>
      </trkpt>
      <trkpt lat="43.139055976644158" lon="-1.363719971850514">
        <ele>215.94999999999999</ele>
        <time>2025-04-27T09:36:51Z</time>
      </trkpt>
      <trkpt lat="43.138923961669207" lon="-1.363612012937665">
        <ele>216.43000000000001</ele>
        <time>2025-04-27T09:36:52Z</time>
      </trkpt>
      <trkpt lat="43.138782978057861" lon="-1.363528026267886">
        <ele>216.43000000000001</ele>
        <time>2025-04-27T09:36:53Z</time>
      </trkpt>
      <trkpt lat="43.138624979183078" lon="-1.36347496882081">
        <ele>216.91</ele>
        <time>2025-04-27T09:36:54Z</time>
      </trkpt>
      <trkpt lat="43.138463962823153" lon="-1.363448984920979">
        <ele>216.91</ele>
        <time>2025-04-27T09:36:55Z</time>
      </trkpt>
      <trkpt lat="43.138292971998453" lon="-1.363430041819811">
        <ele>216.91</ele>
        <time>2025-04-27T09:36:56Z</time>
      </trkpt>
      <trkpt lat="43.138123992830515" lon="-1.363432975485921">
        <ele>217.40000000000001</ele>
        <time>2025-04-27T09:36:57Z</time>
      </trkpt>
      <trkpt lat="43.137954007834196" lon="-1.363460971042514">
        <ele>217.88</ele>
        <time>2025-04-27T09:36:58Z</time>
      </trkpt>
      <trkpt lat="43.137496020644903" lon="-1.363555015996099">
        <ele>218.36000000000001</ele>
        <time>2025-04-27T09:37:01Z</time>
      </trkpt>
      <trkpt lat="43.137367023155093" lon="-1.363635985180736">
        <ele>218.84</ele>
        <time>2025-04-27T09:37:02Z</time>
      </trkpt>
      <trkpt lat="43.137240959331393" lon="-1.363716032356024">
        <ele>219.31999999999999</ele>
        <time>2025-04-27T09:37:03Z</time>
      </trkpt>
      <trkpt lat="43.136753970757127" lon="-1.364105958491564">
        <ele>220.75999999999999</ele>
        <time>2025-04-27T09:37:07Z</time>
      </trkpt>
      <trkpt lat="43.136636037379503" lon="-1.364239985123277">
        <ele>220.75999999999999</ele>
        <time>2025-04-27T09:37:08Z</time>
      </trkpt>
      <trkpt lat="43.13617997802794" lon="-1.364794028922916">
        <ele>220.75999999999999</ele>
        <time>2025-04-27T09:37:12Z</time>
      </trkpt>
      <trkpt lat="43.136041006073356" lon="-1.364897964522243">
        <ele>220.75999999999999</ele>
        <time>2025-04-27T09:37:13Z</time>
      </trkpt>
      <trkpt lat="43.13589901663363" lon="-1.364980023354292">
        <ele>220.75999999999999</ele>
        <time>2025-04-27T09:37:14Z</time>
      </trkpt>
      <trkpt lat="43.135743029415607" lon="-1.365022016689181">
        <ele>221.24000000000001</ele>
        <time>2025-04-27T09:37:15Z</time>
      </trkpt>
      <trkpt lat="43.135581007227302" lon="-1.365040037781">
        <ele>221.24000000000001</ele>
        <time>2025-04-27T09:37:16Z</time>
      </trkpt>
      <trkpt lat="43.135413033887744" lon="-1.365048000589013">
        <ele>221.24000000000001</ele>
        <time>2025-04-27T09:37:17Z</time>
      </trkpt>
      <trkpt lat="43.135241037234664" lon="-1.36501899920404">
        <ele>221.24000000000001</ele>
        <time>2025-04-27T09:37:18Z</time>
      </trkpt>
      <trkpt lat="43.135070968419313" lon="-1.364991003647447">
        <ele>221.72</ele>
        <time>2025-04-27T09:37:19Z</time>
      </trkpt>
      <trkpt lat="43.134739967063069" lon="-1.364965019747615">
        <ele>221.72</ele>
        <time>2025-04-27T09:37:21Z</time>
      </trkpt>
      <trkpt lat="43.134581968188286" lon="-1.365027967840433">
        <ele>221.72</ele>
        <time>2025-04-27T09:37:22Z</time>
      </trkpt>
      <trkpt lat="43.134420029819012" lon="-1.365093011409044">
        <ele>222.19999999999999</ele>
        <time>2025-04-27T09:37:23Z</time>
      </trkpt>
      <trkpt lat="43.134273011237383" lon="-1.365198958665133">
        <ele>222.68000000000001</ele>
        <time>2025-04-27T09:37:24Z</time>
      </trkpt>
      <trkpt lat="43.134131021797657" lon="-1.365330973640084">
        <ele>223.16</ele>
        <time>2025-04-27T09:37:25Z</time>
      </trkpt>
      <trkpt lat="43.133988026529551" lon="-1.365463994443417">
        <ele>224.12</ele>
        <time>2025-04-27T09:37:26Z</time>
      </trkpt>
      <trkpt lat="43.133841007947922" lon="-1.365600032731891">
        <ele>224.61000000000001</ele>
        <time>2025-04-27T09:37:27Z</time>
      </trkpt>
      <trkpt lat="43.132356991991401" lon="-1.366815995424986">
        <ele>231.33000000000001</ele>
        <time>2025-04-27T09:37:37Z</time>
      </trkpt>
      <trkpt lat="43.1314089987427" lon="-1.367456037551165">
        <ele>235.18000000000001</ele>
        <time>2025-04-27T09:37:44Z</time>
      </trkpt>
      <trkpt lat="43.131288969889283" lon="-1.367582017555833">
        <ele>235.18000000000001</ele>
        <time>2025-04-27T09:37:45Z</time>
      </trkpt>
      <trkpt lat="43.131171958521008" lon="-1.367715960368514">
        <ele>235.18000000000001</ele>
        <time>2025-04-27T09:37:46Z</time>
      </trkpt>
      <trkpt lat="43.131009014323354" lon="-1.368034975603223">
        <ele>235.18000000000001</ele>
        <time>2025-04-27T09:37:48Z</time>
      </trkpt>
      <trkpt lat="43.130951011553407" lon="-1.368205966427922">
        <ele>235.18000000000001</ele>
        <time>2025-04-27T09:37:49Z</time>
      </trkpt>
      <trkpt lat="43.130942964926362" lon="-1.368396990001202">
        <ele>235.18000000000001</ele>
        <time>2025-04-27T09:37:50Z</time>
      </trkpt>
      <trkpt lat="43.130935002118349" lon="-1.368591031059623">
        <ele>234.69999999999999</ele>
        <time>2025-04-27T09:37:51Z</time>
      </trkpt>
      <trkpt lat="43.130927039310336" lon="-1.368785994127393">
        <ele>234.69999999999999</ele>
        <time>2025-04-27T09:37:52Z</time>
      </trkpt>
      <trkpt lat="43.130911029875278" lon="-1.369184972718358">
        <ele>235.18000000000001</ele>
        <time>2025-04-27T09:37:54Z</time>
      </trkpt>
      <trkpt lat="43.130895020440221" lon="-1.369583029299974">
        <ele>235.66</ele>
        <time>2025-04-27T09:37:56Z</time>
      </trkpt>
      <trkpt lat="43.130696034058928" lon="-1.370517024770379">
        <ele>236.13999999999999</ele>
        <time>2025-04-27T09:38:01Z</time>
      </trkpt>
      <trkpt lat="43.130612969398499" lon="-1.370676029473543">
        <ele>236.13999999999999</ele>
        <time>2025-04-27T09:38:02Z</time>
      </trkpt>
      <trkpt lat="43.13052898272872" lon="-1.370835034176707">
        <ele>236.13999999999999</ele>
        <time>2025-04-27T09:38:03Z</time>
      </trkpt>
      <trkpt lat="43.130353968590498" lon="-1.371169975027442">
        <ele>236.13999999999999</ele>
        <time>2025-04-27T09:38:05Z</time>
      </trkpt>
      <trkpt lat="43.130265036597848" lon="-1.371339038014412">
        <ele>236.13999999999999</ele>
        <time>2025-04-27T09:38:06Z</time>
      </trkpt>
      <trkpt lat="43.130196975544095" lon="-1.371512962505221">
        <ele>236.13999999999999</ele>
        <time>2025-04-27T09:38:07Z</time>
      </trkpt>
      <trkpt lat="43.130138972774148" lon="-1.371676996350288">
        <ele>235.66</ele>
        <time>2025-04-27T09:38:08Z</time>
      </trkpt>
      <trkpt lat="43.130117012187839" lon="-1.37183197773993">
        <ele>235.18000000000001</ele>
        <time>2025-04-27T09:38:09Z</time>
      </trkpt>
      <trkpt lat="43.130121035501361" lon="-1.371996011584997">
        <ele>235.18000000000001</ele>
        <time>2025-04-27T09:38:10Z</time>
      </trkpt>
      <trkpt lat="43.130124974995852" lon="-1.372162979096174">
        <ele>234.69999999999999</ele>
        <time>2025-04-27T09:38:11Z</time>
      </trkpt>
      <trkpt lat="43.130128998309374" lon="-1.372330030426383">
        <ele>234.69999999999999</ele>
        <time>2025-04-27T09:38:12Z</time>
      </trkpt>
      <trkpt lat="43.130126986652613" lon="-1.372677041217685">
        <ele>234.22</ele>
        <time>2025-04-27T09:38:14Z</time>
      </trkpt>
      <trkpt lat="43.130108965560794" lon="-1.372834034264088">
        <ele>233.74000000000001</ele>
        <time>2025-04-27T09:38:15Z</time>
      </trkpt>
      <trkpt lat="43.130089016631246" lon="-1.372994966804981">
        <ele>233.25999999999999</ele>
        <time>2025-04-27T09:38:16Z</time>
      </trkpt>
      <trkpt lat="43.130050962790847" lon="-1.373175010085106">
        <ele>232.78</ele>
        <time>2025-04-27T09:38:17Z</time>
      </trkpt>
      <trkpt lat="43.129972005262971" lon="-1.373304007574916">
        <ele>232.78</ele>
        <time>2025-04-27T09:38:18Z</time>
      </trkpt>
      <trkpt lat="43.129893969744444" lon="-1.373431999236345">
        <ele>232.78</ele>
        <time>2025-04-27T09:38:19Z</time>
      </trkpt>
      <trkpt lat="43.129783999174833" lon="-1.373553033918142">
        <ele>232.78</ele>
        <time>2025-04-27T09:38:20Z</time>
      </trkpt>
      <trkpt lat="43.129662964493036" lon="-1.373612964525819">
        <ele>232.78</ele>
        <time>2025-04-27T09:38:21Z</time>
      </trkpt>
      <trkpt lat="43.129543019458652" lon="-1.373673984780908">
        <ele>232.78</ele>
        <time>2025-04-27T09:38:22Z</time>
      </trkpt>
      <trkpt lat="43.12941201031208" lon="-1.373702986165881">
        <ele>232.78</ele>
        <time>2025-04-27T09:38:23Z</time>
      </trkpt>
      <trkpt lat="43.129291981458664" lon="-1.373709021136165">
        <ele>232.78</ele>
        <time>2025-04-27T09:38:24Z</time>
      </trkpt>
      <trkpt lat="43.129179999232292" lon="-1.373714972287417">
        <ele>232.78</ele>
        <time>2025-04-27T09:38:25Z</time>
      </trkpt>
      <trkpt lat="43.129071034491062" lon="-1.373718995600939">
        <ele>232.78</ele>
        <time>2025-04-27T09:38:26Z</time>
      </trkpt>
      <trkpt lat="43.128963997587562" lon="-1.373711032792926">
        <ele>233.25999999999999</ele>
        <time>2025-04-27T09:38:27Z</time>
      </trkpt>
      <trkpt lat="43.128856038674712" lon="-1.373702986165881">
        <ele>233.25999999999999</ele>
        <time>2025-04-27T09:38:28Z</time>
      </trkpt>
      <trkpt lat="43.128756964579225" lon="-1.373670967295766">
        <ele>233.74000000000001</ele>
        <time>2025-04-27T09:38:29Z</time>
      </trkpt>
      <trkpt lat="43.128677001222968" lon="-1.373624028638005">
        <ele>233.74000000000001</ele>
        <time>2025-04-27T09:38:30Z</time>
      </trkpt>
      <trkpt lat="43.128603994846344" lon="-1.373581029474735">
        <ele>234.22</ele>
        <time>2025-04-27T09:38:31Z</time>
      </trkpt>
      <trkpt lat="43.128548003733158" lon="-1.373548004776239">
        <ele>234.69999999999999</ele>
        <time>2025-04-27T09:38:32Z</time>
      </trkpt>
      <trkpt lat="43.128520008176565" lon="-1.373468963429332">
        <ele>235.18000000000001</ele>
        <time>2025-04-27T09:38:33Z</time>
      </trkpt>
      <trkpt lat="43.128495030105114" lon="-1.373398974537849">
        <ele>235.66</ele>
        <time>2025-04-27T09:38:34Z</time>
      </trkpt>
      <trkpt lat="43.128470974043012" lon="-1.373329991474748">
        <ele>236.13999999999999</ele>
        <time>2025-04-27T09:38:35Z</time>
      </trkpt>
      <trkpt lat="43.12844599597156" lon="-1.373260002583265">
        <ele>236.13999999999999</ele>
        <time>2025-04-27T09:38:36Z</time>
      </trkpt>
      <trkpt lat="43.12840199097991" lon="-1.373182972893119">
        <ele>236.13999999999999</ele>
        <time>2025-04-27T09:38:37Z</time>
      </trkpt>
      <trkpt lat="43.128333007916808" lon="-1.373179033398628">
        <ele>236.62</ele>
        <time>2025-04-27T09:38:38Z</time>
      </trkpt>
      <trkpt lat="43.128253966569901" lon="-1.373175010085106">
        <ele>236.62</ele>
        <time>2025-04-27T09:38:39Z</time>
      </trkpt>
      <trkpt lat="43.12816503457725" lon="-1.373169980943203">
        <ele>237.09999999999999</ele>
        <time>2025-04-27T09:38:40Z</time>
      </trkpt>
      <trkpt lat="43.128066966310143" lon="-1.373165035620332">
        <ele>237.09999999999999</ele>
        <time>2025-04-27T09:38:41Z</time>
      </trkpt>
      <trkpt lat="43.127251993864775" lon="-1.373191019520164">
        <ele>242.87</ele>
        <time>2025-04-27T09:38:48Z</time>
      </trkpt>
      <trkpt lat="43.127130037173629" lon="-1.373217003419995">
        <ele>244.31</ele>
        <time>2025-04-27T09:38:49Z</time>
      </trkpt>
      <trkpt lat="43.127015959471464" lon="-1.373274000361562">
        <ele>245.27000000000001</ele>
        <time>2025-04-27T09:38:50Z</time>
      </trkpt>
      <trkpt lat="43.126915963366628" lon="-1.373365027830005">
        <ele>246.22999999999999</ele>
        <time>2025-04-27T09:38:51Z</time>
      </trkpt>
      <trkpt lat="43.126826025545597" lon="-1.373466029763222">
        <ele>247.19999999999999</ele>
        <time>2025-04-27T09:38:52Z</time>
      </trkpt>
      <trkpt lat="43.126748995855451" lon="-1.373553033918142">
        <ele>248.16</ele>
        <time>2025-04-27T09:38:53Z</time>
      </trkpt>
      <trkpt lat="43.126589991152287" lon="-1.373795019462705">
        <ele>251.03999999999999</ele>
        <time>2025-04-27T09:38:56Z</time>
      </trkpt>
      <trkpt lat="43.126487983390689" lon="-1.37404203414917">
        <ele>253.44</ele>
        <time>2025-04-27T09:38:59Z</time>
      </trkpt>
      <trkpt lat="43.126473985612392" lon="-1.374140018597245">
        <ele>254.41</ele>
        <time>2025-04-27T09:39:00Z</time>
      </trkpt>
      <trkpt lat="43.126459987834096" lon="-1.374235991388559">
        <ele>255.37</ele>
        <time>2025-04-27T09:39:01Z</time>
      </trkpt>
      <trkpt lat="43.126331996172667" lon="-1.375138973817229">
        <ele>263.06</ele>
        <time>2025-04-27T09:39:11Z</time>
      </trkpt>
      <trkpt lat="43.126312969252467" lon="-1.375213991850615">
        <ele>263.54000000000002</ele>
        <time>2025-04-27T09:39:12Z</time>
      </trkpt>
      <trkpt lat="43.126293020322919" lon="-1.375293033197522">
        <ele>264.5</ele>
        <time>2025-04-27T09:39:13Z</time>
      </trkpt>
      <trkpt lat="43.126267958432436" lon="-1.37537500821054">
        <ele>264.98000000000002</ele>
        <time>2025-04-27T09:39:14Z</time>
      </trkpt>
      <trkpt lat="43.126242980360985" lon="-1.37546100653708">
        <ele>265.45999999999998</ele>
        <time>2025-04-27T09:39:15Z</time>
      </trkpt>
      <trkpt lat="43.126240968704224" lon="-1.375541975721717">
        <ele>265.94</ele>
        <time>2025-04-27T09:39:16Z</time>
      </trkpt>
      <trkpt lat="43.126262007281184" lon="-1.375627974048257">
        <ele>266.42000000000002</ele>
        <time>2025-04-27T09:39:17Z</time>
      </trkpt>
      <trkpt lat="43.126290002837777" lon="-1.375695029273629">
        <ele>266.89999999999998</ele>
        <time>2025-04-27T09:39:18Z</time>
      </trkpt>
      <trkpt lat="43.126344988122582" lon="-1.375771975144744">
        <ele>267.38</ele>
        <time>2025-04-27T09:39:19Z</time>
      </trkpt>
      <trkpt lat="43.126407014206052" lon="-1.375855961814523">
        <ele>267.38</ele>
        <time>2025-04-27T09:39:20Z</time>
      </trkpt>
      <trkpt lat="43.126475997269154" lon="-1.375956041738391">
        <ele>267.38</ele>
        <time>2025-04-27T09:39:21Z</time>
      </trkpt>
      <trkpt lat="43.126546991989017" lon="-1.376067018136382">
        <ele>267.38</ele>
        <time>2025-04-27T09:39:22Z</time>
      </trkpt>
      <trkpt lat="43.126615975052118" lon="-1.376174977049232">
        <ele>267.38</ele>
        <time>2025-04-27T09:39:23Z</time>
      </trkpt>
      <trkpt lat="43.12666199170053" lon="-1.376297017559409">
        <ele>267.38</ele>
        <time>2025-04-27T09:39:24Z</time>
      </trkpt>
      <trkpt lat="43.126699039712548" lon="-1.376431966200471">
        <ele>267.38</ele>
        <time>2025-04-27T09:39:25Z</time>
      </trkpt>
      <trkpt lat="43.126713959500194" lon="-1.376582002267242">
        <ele>266.89999999999998</ele>
        <time>2025-04-27T09:39:26Z</time>
      </trkpt>
      <trkpt lat="43.126727035269141" lon="-1.376740001142025">
        <ele>266.89999999999998</ele>
        <time>2025-04-27T09:39:27Z</time>
      </trkpt>
      <trkpt lat="43.126838011667132" lon="-1.377670979127288">
        <ele>264.5</ele>
        <time>2025-04-27T09:39:33Z</time>
      </trkpt>
      <trkpt lat="43.126880005002022" lon="-1.377817997708917">
        <ele>264.5</ele>
        <time>2025-04-27T09:39:34Z</time>
      </trkpt>
      <trkpt lat="43.126923004165292" lon="-1.377966022118926">
        <ele>264.98000000000002</ele>
        <time>2025-04-27T09:39:35Z</time>
      </trkpt>
      <trkpt lat="43.126964997500181" lon="-1.378114968538284">
        <ele>264.98000000000002</ele>
        <time>2025-04-27T09:39:36Z</time>
      </trkpt>
      <trkpt lat="43.127001961693168" lon="-1.378268022090197">
        <ele>265.45999999999998</ele>
        <time>2025-04-27T09:39:37Z</time>
      </trkpt>
      <trkpt lat="43.126993998885155" lon="-1.378432977944613">
        <ele>265.45999999999998</ele>
        <time>2025-04-27T09:39:38Z</time>
      </trkpt>
      <trkpt lat="43.126987041905522" lon="-1.378596005961299">
        <ele>265.45999999999998</ele>
        <time>2025-04-27T09:39:39Z</time>
      </trkpt>
      <trkpt lat="43.126967009156942" lon="-1.378751993179321">
        <ele>265.45999999999998</ele>
        <time>2025-04-27T09:39:40Z</time>
      </trkpt>
      <trkpt lat="43.126928033307195" lon="-1.378897000104189">
        <ele>264.98000000000002</ele>
        <time>2025-04-27T09:39:41Z</time>
      </trkpt>
      <trkpt lat="43.126888973638415" lon="-1.379039995372295">
        <ele>264.98000000000002</ele>
        <time>2025-04-27T09:39:42Z</time>
      </trkpt>
      <trkpt lat="43.126849997788668" lon="-1.37917603366077">
        <ele>264.98000000000002</ele>
        <time>2025-04-27T09:39:43Z</time>
      </trkpt>
      <trkpt lat="43.126785960048437" lon="-1.379304025322199">
        <ele>264.98000000000002</ele>
        <time>2025-04-27T09:39:44Z</time>
      </trkpt>
      <trkpt lat="43.126721000298858" lon="-1.37943503446877">
        <ele>265.45999999999998</ele>
        <time>2025-04-27T09:39:45Z</time>
      </trkpt>
      <trkpt lat="43.126652017235756" lon="-1.379550034180284">
        <ele>265.45999999999998</ele>
        <time>2025-04-27T09:39:46Z</time>
      </trkpt>
      <trkpt lat="43.126563001424074" lon="-1.379657993093133">
        <ele>265.45999999999998</ele>
        <time>2025-04-27T09:39:47Z</time>
      </trkpt>
      <trkpt lat="43.126472979784012" lon="-1.379766035825014">
        <ele>265.94</ele>
        <time>2025-04-27T09:39:48Z</time>
      </trkpt>
      <trkpt lat="43.126374995335937" lon="-1.379869971424341">
        <ele>265.94</ele>
        <time>2025-04-27T09:39:49Z</time>
      </trkpt>
      <trkpt lat="43.125304039567709" lon="-1.380915027111769">
        <ele>261.13999999999999</ele>
        <time>2025-04-27T09:39:59Z</time>
      </trkpt>
      <trkpt lat="43.124454030767083" lon="-1.381521038711071">
        <ele>255.37</ele>
        <time>2025-04-27T09:40:06Z</time>
      </trkpt>
      <trkpt lat="43.12436300329864" lon="-1.381636038422585">
        <ele>254.41</ele>
        <time>2025-04-27T09:40:07Z</time>
      </trkpt>
      <trkpt lat="43.124272981658578" lon="-1.381750032305718">
        <ele>253.44</ele>
        <time>2025-04-27T09:40:08Z</time>
      </trkpt>
      <trkpt lat="43.124086987227201" lon="-1.38199302367866">
        <ele>252.47999999999999</ele>
        <time>2025-04-27T09:40:10Z</time>
      </trkpt>
      <trkpt lat="43.124011969193816" lon="-1.382134007290006">
        <ele>252</ele>
        <time>2025-04-27T09:40:11Z</time>
      </trkpt>
      <trkpt lat="43.123956983909011" lon="-1.382284965366125">
        <ele>251.52000000000001</ele>
        <time>2025-04-27T09:40:12Z</time>
      </trkpt>
      <trkpt lat="43.123905016109347" lon="-1.382429972290993">
        <ele>251.52000000000001</ele>
        <time>2025-04-27T09:40:13Z</time>
      </trkpt>
      <trkpt lat="43.123854976147413" lon="-1.382569028064609">
        <ele>251.52000000000001</ele>
        <time>2025-04-27T09:40:14Z</time>
      </trkpt>
      <trkpt lat="43.123731007799506" lon="-1.383034978061914">
        <ele>252.96000000000001</ele>
        <time>2025-04-27T09:40:18Z</time>
      </trkpt>
      <trkpt lat="43.123722961172462" lon="-1.383137991651893">
        <ele>252.96000000000001</ele>
        <time>2025-04-27T09:40:19Z</time>
      </trkpt>
      <trkpt lat="43.123736958950758" lon="-1.383224995806813">
        <ele>253.44</ele>
        <time>2025-04-27T09:40:20Z</time>
      </trkpt>
      <trkpt lat="43.123773001134396" lon="-1.383319040760398">
        <ele>253.44</ele>
        <time>2025-04-27T09:40:21Z</time>
      </trkpt>
      <trkpt lat="43.123813988640904" lon="-1.383424988016486">
        <ele>253.93000000000001</ele>
        <time>2025-04-27T09:40:22Z</time>
      </trkpt>
      <trkpt lat="43.124158987775445" lon="-1.384471971541643">
        <ele>258.73000000000002</ele>
        <time>2025-04-27T09:40:29Z</time>
      </trkpt>
      <trkpt lat="43.124411031603813" lon="-1.385271018370986">
        <ele>262.10000000000002</ele>
        <time>2025-04-27T09:40:33Z</time>
      </trkpt>
      <trkpt lat="43.124452019110322" lon="-1.38549598865211">
        <ele>263.06</ele>
        <time>2025-04-27T09:40:34Z</time>
      </trkpt>
      <trkpt lat="43.124457970261574" lon="-1.385723976418376">
        <ele>264.01999999999998</ele>
        <time>2025-04-27T09:40:35Z</time>
      </trkpt>
      <trkpt lat="43.12446802854538" lon="-1.386177018284798">
        <ele>266.42000000000002</ele>
        <time>2025-04-27T09:40:37Z</time>
      </trkpt>
      <trkpt lat="43.124397033825517" lon="-1.386561999097467">
        <ele>268.82999999999998</ele>
        <time>2025-04-27T09:40:39Z</time>
      </trkpt>
      <trkpt lat="43.124337019398808" lon="-1.386724021285772">
        <ele>269.79000000000002</ele>
        <time>2025-04-27T09:40:40Z</time>
      </trkpt>
      <trkpt lat="43.124241968616843" lon="-1.386875985190272">
        <ele>270.75</ele>
        <time>2025-04-27T09:40:41Z</time>
      </trkpt>
      <trkpt lat="43.12414800748229" lon="-1.387027027085424">
        <ele>272.19</ele>
        <time>2025-04-27T09:40:42Z</time>
      </trkpt>
      <trkpt lat="43.124053962528706" lon="-1.387176979333162">
        <ele>273.14999999999998</ele>
        <time>2025-04-27T09:40:43Z</time>
      </trkpt>
      <trkpt lat="43.12397500500083" lon="-1.387350987643004">
        <ele>274.11000000000001</ele>
        <time>2025-04-27T09:40:44Z</time>
      </trkpt>
      <trkpt lat="43.123903004452586" lon="-1.387519966810942">
        <ele>275.06999999999999</ele>
        <time>2025-04-27T09:40:45Z</time>
      </trkpt>
      <trkpt lat="43.123575020581484" lon="-1.388344997540116">
        <ele>279.88</ele>
        <time>2025-04-27T09:40:51Z</time>
      </trkpt>
      <trkpt lat="43.123547025024891" lon="-1.388513976708055">
        <ele>280.83999999999997</ele>
        <time>2025-04-27T09:40:52Z</time>
      </trkpt>
      <trkpt lat="43.123517017811537" lon="-1.388691002503038">
        <ele>281.80000000000001</ele>
        <time>2025-04-27T09:40:53Z</time>
      </trkpt>
      <trkpt lat="43.12350302003324" lon="-1.388881020247936">
        <ele>282.76999999999998</ele>
        <time>2025-04-27T09:40:54Z</time>
      </trkpt>
      <trkpt lat="43.123500002548099" lon="-1.38908201828599">
        <ele>283.25</ele>
        <time>2025-04-27T09:40:55Z</time>
      </trkpt>
      <trkpt lat="43.123488016426563" lon="-1.389692975208163">
        <ele>286.13</ele>
        <time>2025-04-27T09:40:58Z</time>
      </trkpt>
      <trkpt lat="43.12348198145628" lon="-1.389888022094965">
        <ele>287.08999999999997</ele>
        <time>2025-04-27T09:40:59Z</time>
      </trkpt>
      <trkpt lat="43.12343998812139" lon="-1.39007200486958">
        <ele>288.05000000000001</ele>
        <time>2025-04-27T09:41:00Z</time>
      </trkpt>
      <trkpt lat="43.123296992853284" lon="-1.390695031732321">
        <ele>292.38</ele>
        <time>2025-04-27T09:41:04Z</time>
      </trkpt>
      <trkpt lat="43.123270003125072" lon="-1.390814976766706">
        <ele>293.33999999999997</ele>
        <time>2025-04-27T09:41:05Z</time>
      </trkpt>
      <trkpt lat="43.123256005346775" lon="-1.390942968428135">
        <ele>294.30000000000001</ele>
        <time>2025-04-27T09:41:06Z</time>
      </trkpt>
      <trkpt lat="43.123282995074987" lon="-1.391068026423454">
        <ele>295.25999999999999</ele>
        <time>2025-04-27T09:41:07Z</time>
      </trkpt>
      <trkpt lat="43.123311996459961" lon="-1.391200041398406">
        <ele>296.22000000000003</ele>
        <time>2025-04-27T09:41:08Z</time>
      </trkpt>
      <trkpt lat="43.123501008376479" lon="-1.391947036609054">
        <ele>300.55000000000001</ele>
        <time>2025-04-27T09:41:13Z</time>
      </trkpt>
      <trkpt lat="43.123543001711369" lon="-1.39209003187716">
        <ele>301.02999999999997</ele>
        <time>2025-04-27T09:41:14Z</time>
      </trkpt>
      <trkpt lat="43.123536966741085" lon="-1.392239984124899">
        <ele>301.50999999999999</ele>
        <time>2025-04-27T09:41:15Z</time>
      </trkpt>
      <trkpt lat="43.123521963134408" lon="-1.392399994656444">
        <ele>302.47000000000003</ele>
        <time>2025-04-27T09:41:16Z</time>
      </trkpt>
      <trkpt lat="43.123506959527731" lon="-1.39256302267313">
        <ele>302.94999999999999</ele>
        <time>2025-04-27T09:41:17Z</time>
      </trkpt>
      <trkpt lat="43.123492039740086" lon="-1.392729990184307">
        <ele>303.43000000000001</ele>
        <time>2025-04-27T09:41:18Z</time>
      </trkpt>
      <trkpt lat="43.123489022254944" lon="-1.393070966005325">
        <ele>303.43000000000001</ele>
        <time>2025-04-27T09:41:20Z</time>
      </trkpt>
      <trkpt lat="43.123492039740086" lon="-1.394102023914456">
        <ele>301.50999999999999</ele>
        <time>2025-04-27T09:41:26Z</time>
      </trkpt>
      <trkpt lat="43.123436970636249" lon="-1.394266979768872">
        <ele>301.02999999999997</ele>
        <time>2025-04-27T09:41:27Z</time>
      </trkpt>
      <trkpt lat="43.123378967866302" lon="-1.394442999735475">
        <ele>300.55000000000001</ele>
        <time>2025-04-27T09:41:28Z</time>
      </trkpt>
      <trkpt lat="43.122790977358818" lon="-1.396101024001837">
        <ele>299.58999999999997</ele>
        <time>2025-04-27T09:41:37Z</time>
      </trkpt>
      <trkpt lat="43.122603977099061" lon="-1.396616008132696">
        <ele>296.69999999999999</ele>
        <time>2025-04-27T09:41:40Z</time>
      </trkpt>
      <trkpt lat="43.122596014291048" lon="-1.39714197255671">
        <ele>292.86000000000001</ele>
        <time>2025-04-27T09:41:43Z</time>
      </trkpt>
      <trkpt lat="43.122619986534119" lon="-1.397322015836835">
        <ele>291.42000000000002</ele>
        <time>2025-04-27T09:41:44Z</time>
      </trkpt>
      <trkpt lat="43.122652005404234" lon="-1.397841023281217">
        <ele>289.49000000000001</ele>
        <time>2025-04-27T09:41:47Z</time>
      </trkpt>
      <trkpt lat="43.122600959613919" lon="-1.397973960265517">
        <ele>289.00999999999999</ele>
        <time>2025-04-27T09:41:48Z</time>
      </trkpt>
      <trkpt lat="43.122531976550817" lon="-1.398112010210753">
        <ele>288.52999999999997</ele>
        <time>2025-04-27T09:41:49Z</time>
      </trkpt>
      <trkpt lat="43.122456958517432" lon="-1.398246036842465">
        <ele>288.52999999999997</ele>
        <time>2025-04-27T09:41:50Z</time>
      </trkpt>
      <trkpt lat="43.122352017089725" lon="-1.398361958563328">
        <ele>288.52999999999997</ele>
        <time>2025-04-27T09:41:51Z</time>
      </trkpt>
      <trkpt lat="43.122244980186224" lon="-1.398479975759983">
        <ele>288.52999999999997</ele>
        <time>2025-04-27T09:41:52Z</time>
      </trkpt>
      <trkpt lat="43.121920013800263" lon="-1.398840984329581">
        <ele>289.00999999999999</ele>
        <time>2025-04-27T09:41:55Z</time>
      </trkpt>
      <trkpt lat="43.121824963018298" lon="-1.398980040103197">
        <ele>289.00999999999999</ele>
        <time>2025-04-27T09:41:56Z</time>
      </trkpt>
      <trkpt lat="43.1217419821769" lon="-1.399130998179317">
        <ele>289.49000000000001</ele>
        <time>2025-04-27T09:41:57Z</time>
      </trkpt>
      <trkpt lat="43.12165598385036" lon="-1.399285979568958">
        <ele>289.49000000000001</ele>
        <time>2025-04-27T09:41:58Z</time>
      </trkpt>
      <trkpt lat="43.121570991352201" lon="-1.399440038949251">
        <ele>289.49000000000001</ele>
        <time>2025-04-27T09:41:59Z</time>
      </trkpt>
      <trkpt lat="43.121490022167563" lon="-1.399586973711848">
        <ele>289.49000000000001</ele>
        <time>2025-04-27T09:42:00Z</time>
      </trkpt>
      <trkpt lat="43.121407963335514" lon="-1.399725023657084">
        <ele>289.49000000000001</ele>
        <time>2025-04-27T09:42:01Z</time>
      </trkpt>
      <trkpt lat="43.120866995304823" lon="-1.400282001122832">
        <ele>290.94</ele>
        <time>2025-04-27T09:42:06Z</time>
      </trkpt>
      <trkpt lat="43.120742021128535" lon="-1.400355007499456">
        <ele>291.42000000000002</ele>
        <time>2025-04-27T09:42:07Z</time>
      </trkpt>
      <trkpt lat="43.120609000325203" lon="-1.400375040248036">
        <ele>291.89999999999998</ele>
        <time>2025-04-27T09:42:08Z</time>
      </trkpt>
      <trkpt lat="43.120476985350251" lon="-1.400395995005965">
        <ele>292.38</ele>
        <time>2025-04-27T09:42:09Z</time>
      </trkpt>
      <trkpt lat="43.120340025052428" lon="-1.400417033582926">
        <ele>292.86000000000001</ele>
        <time>2025-04-27T09:42:10Z</time>
      </trkpt>
      <trkpt lat="43.120196023955941" lon="-1.400438994169235">
        <ele>293.33999999999997</ele>
        <time>2025-04-27T09:42:11Z</time>
      </trkpt>
      <trkpt lat="43.120050011202693" lon="-1.400461960583925">
        <ele>293.33999999999997</ele>
        <time>2025-04-27T09:42:12Z</time>
      </trkpt>
      <trkpt lat="43.119908021762967" lon="-1.400507977232337">
        <ele>293.81999999999999</ele>
        <time>2025-04-27T09:42:13Z</time>
      </trkpt>
      <trkpt lat="43.119785981252789" lon="-1.400613002479076">
        <ele>293.81999999999999</ele>
        <time>2025-04-27T09:42:14Z</time>
      </trkpt>
      <trkpt lat="43.119642985984683" lon="-1.400734959170222">
        <ele>293.81999999999999</ele>
        <time>2025-04-27T09:42:15Z</time>
      </trkpt>
      <trkpt lat="43.11957098543644" lon="-1.400884995236993">
        <ele>293.81999999999999</ele>
        <time>2025-04-27T09:42:16Z</time>
      </trkpt>
      <trkpt lat="43.1194849871099" lon="-1.401062021031976">
        <ele>293.81999999999999</ele>
        <time>2025-04-27T09:42:17Z</time>
      </trkpt>
      <trkpt lat="43.119396977126598" lon="-1.40124399214983">
        <ele>293.81999999999999</ele>
        <time>2025-04-27T09:42:18Z</time>
      </trkpt>
      <trkpt lat="43.119111992418766" lon="-1.401997022330761">
        <ele>293.81999999999999</ele>
        <time>2025-04-27T09:42:22Z</time>
      </trkpt>
      <trkpt lat="43.119048038497567" lon="-1.402177987620235">
        <ele>293.81999999999999</ele>
        <time>2025-04-27T09:42:23Z</time>
      </trkpt>
      <trkpt lat="43.118962962180376" lon="-1.402327017858625">
        <ele>293.81999999999999</ele>
        <time>2025-04-27T09:42:24Z</time>
      </trkpt>
      <trkpt lat="43.118885010480881" lon="-1.402457021176815">
        <ele>293.81999999999999</ele>
        <time>2025-04-27T09:42:25Z</time>
      </trkpt>
      <trkpt lat="43.118787026032805" lon="-1.402544025331736">
        <ele>294.30000000000001</ele>
        <time>2025-04-27T09:42:26Z</time>
      </trkpt>
      <trkpt lat="43.118670014664531" lon="-1.402594987303019">
        <ele>294.77999999999997</ele>
        <time>2025-04-27T09:42:27Z</time>
      </trkpt>
      <trkpt lat="43.118550991639495" lon="-1.402647038921714">
        <ele>294.77999999999997</ele>
        <time>2025-04-27T09:42:28Z</time>
      </trkpt>
      <trkpt lat="43.118431968614459" lon="-1.402650978416205">
        <ele>295.25999999999999</ele>
        <time>2025-04-27T09:42:29Z</time>
      </trkpt>
      <trkpt lat="43.118294002488256" lon="-1.402621977031231">
        <ele>295.74000000000001</ele>
        <time>2025-04-27T09:42:30Z</time>
      </trkpt>
      <trkpt lat="43.11815201304853" lon="-1.402591969817877">
        <ele>295.74000000000001</ele>
        <time>2025-04-27T09:42:31Z</time>
      </trkpt>
      <trkpt lat="43.116976032033563" lon="-1.402358030900359">
        <ele>300.06999999999999</ele>
        <time>2025-04-27T09:42:39Z</time>
      </trkpt>
      <trkpt lat="43.116690963506699" lon="-1.402363982051611">
        <ele>301.50999999999999</ele>
        <time>2025-04-27T09:42:41Z</time>
      </trkpt>
      <trkpt lat="43.116549979895353" lon="-1.402392983436585">
        <ele>301.99000000000001</ele>
        <time>2025-04-27T09:42:42Z</time>
      </trkpt>
      <trkpt lat="43.11585403047502" lon="-1.402744017541409">
        <ele>305.83999999999997</ele>
        <time>2025-04-27T09:42:47Z</time>
      </trkpt>
      <trkpt lat="43.115732995793223" lon="-1.402864968404174">
        <ele>306.31999999999999</ele>
        <time>2025-04-27T09:42:48Z</time>
      </trkpt>
      <trkpt lat="43.115634005516768" lon="-1.403021039441228">
        <ele>306.80000000000001</ele>
        <time>2025-04-27T09:42:49Z</time>
      </trkpt>
      <trkpt lat="43.11553199775517" lon="-1.403191024437547">
        <ele>307.27999999999997</ele>
        <time>2025-04-27T09:42:50Z</time>
      </trkpt>
      <trkpt lat="43.11542697250843" lon="-1.403366960585117">
        <ele>307.75999999999999</ele>
        <time>2025-04-27T09:42:51Z</time>
      </trkpt>
      <trkpt lat="43.114988012239337" lon="-1.404067017138004">
        <ele>310.16000000000003</ele>
        <time>2025-04-27T09:42:55Z</time>
      </trkpt>
      <trkpt lat="43.114869995042682" lon="-1.40423096716404">
        <ele>310.63999999999999</ele>
        <time>2025-04-27T09:42:56Z</time>
      </trkpt>
      <trkpt lat="43.114356016740203" lon="-1.404814012348652">
        <ele>313.52999999999997</ele>
        <time>2025-04-27T09:43:00Z</time>
      </trkpt>
      <trkpt lat="43.113509025424719" lon="-1.405481966212392">
        <ele>317.85000000000002</ele>
        <time>2025-04-27T09:43:06Z</time>
      </trkpt>
      <trkpt lat="43.113413974642754" lon="-1.405653040856123">
        <ele>318.81</ele>
        <time>2025-04-27T09:43:07Z</time>
      </trkpt>
      <trkpt lat="43.113348009064794" lon="-1.405821014195681">
        <ele>319.77999999999997</ele>
        <time>2025-04-27T09:43:08Z</time>
      </trkpt>
      <trkpt lat="43.113313978537917" lon="-1.406002985313535">
        <ele>320.25999999999999</ele>
        <time>2025-04-27T09:43:09Z</time>
      </trkpt>
      <trkpt lat="43.113297969102859" lon="-1.406198032200337">
        <ele>321.22000000000003</ele>
        <time>2025-04-27T09:43:10Z</time>
      </trkpt>
      <trkpt lat="43.113314984366298" lon="-1.4064019639045">
        <ele>322.18000000000001</ele>
        <time>2025-04-27T09:43:11Z</time>
      </trkpt>
      <trkpt lat="43.113333005458117" lon="-1.406619977205992">
        <ele>323.13999999999999</ele>
        <time>2025-04-27T09:43:12Z</time>
      </trkpt>
      <trkpt lat="43.113352032378316" lon="-1.406845031306148">
        <ele>324.10000000000002</ele>
        <time>2025-04-27T09:43:13Z</time>
      </trkpt>
      <trkpt lat="43.113370975479484" lon="-1.407070001587272">
        <ele>324.57999999999998</ele>
        <time>2025-04-27T09:43:14Z</time>
      </trkpt>
      <trkpt lat="43.113358989357948" lon="-1.407293966040015">
        <ele>325.54000000000002</ele>
        <time>2025-04-27T09:43:15Z</time>
      </trkpt>
      <trkpt lat="43.113329987972975" lon="-1.407520025968552">
        <ele>326.99000000000001</ele>
        <time>2025-04-27T09:43:16Z</time>
      </trkpt>
      <trkpt lat="43.113300986588001" lon="-1.407744996249676">
        <ele>327.94999999999999</ele>
        <time>2025-04-27T09:43:17Z</time>
      </trkpt>
      <trkpt lat="43.113269973546267" lon="-1.407987987622619">
        <ele>329.38999999999999</ele>
        <time>2025-04-27T09:43:18Z</time>
      </trkpt>
      <trkpt lat="43.113197972998023" lon="-1.408164007589221">
        <ele>330.82999999999998</ele>
        <time>2025-04-27T09:43:19Z</time>
      </trkpt>
      <trkpt lat="43.113115997985005" lon="-1.408358970656991">
        <ele>332.26999999999998</ele>
        <time>2025-04-27T09:43:20Z</time>
      </trkpt>
      <trkpt lat="43.113006027415395" lon="-1.408524010330439">
        <ele>333.70999999999998</ele>
        <time>2025-04-27T09:43:21Z</time>
      </trkpt>
      <trkpt lat="43.11288801021874" lon="-1.408682009205222">
        <ele>335.16000000000003</ele>
        <time>2025-04-27T09:43:22Z</time>
      </trkpt>
      <trkpt lat="43.112766975536942" lon="-1.408840008080006">
        <ele>336.12</ele>
        <time>2025-04-27T09:43:23Z</time>
      </trkpt>
      <trkpt lat="43.112648036330938" lon="-1.408994989469647">
        <ele>337.56</ele>
        <time>2025-04-27T09:43:24Z</time>
      </trkpt>
      <trkpt lat="43.112312005832791" lon="-1.409375024959445">
        <ele>341.41000000000003</ele>
        <time>2025-04-27T09:43:27Z</time>
      </trkpt>
      <trkpt lat="43.112197006121278" lon="-1.409468986093998">
        <ele>342.37</ele>
        <time>2025-04-27T09:43:28Z</time>
      </trkpt>
      <trkpt lat="43.112062979489565" lon="-1.40951600857079">
        <ele>343.81</ele>
        <time>2025-04-27T09:43:29Z</time>
      </trkpt>
      <trkpt lat="43.111373987048864" lon="-1.409724969416857">
        <ele>349.10000000000002</ele>
        <time>2025-04-27T09:43:34Z</time>
      </trkpt>
      <trkpt lat="43.111243983730674" lon="-1.409741984680295">
        <ele>350.06</ele>
        <time>2025-04-27T09:43:35Z</time>
      </trkpt>
      <trkpt lat="43.110996969044209" lon="-1.409783978015184">
        <ele>351.98000000000002</ele>
        <time>2025-04-27T09:43:37Z</time>
      </trkpt>
      <trkpt lat="43.110880963504314" lon="-1.409827983006835">
        <ele>352.94</ele>
        <time>2025-04-27T09:43:38Z</time>
      </trkpt>
      <trkpt lat="43.110797982662916" lon="-1.409942982718349">
        <ele>353.42000000000002</ele>
        <time>2025-04-27T09:43:39Z</time>
      </trkpt>
      <trkpt lat="43.11071801930666" lon="-1.410070974379778">
        <ele>354.38</ele>
        <time>2025-04-27T09:43:40Z</time>
      </trkpt>
      <trkpt lat="43.110645012930036" lon="-1.410200977697969">
        <ele>355.33999999999997</ele>
        <time>2025-04-27T09:43:41Z</time>
      </trkpt>
      <trkpt lat="43.110594972968102" lon="-1.41037498600781">
        <ele>356.31</ele>
        <time>2025-04-27T09:43:42Z</time>
      </trkpt>
      <trkpt lat="43.110371008515358" lon="-1.411111000925303">
        <ele>360.63</ele>
        <time>2025-04-27T09:43:46Z</time>
      </trkpt>
      <trkpt lat="43.11029096134007" lon="-1.411288026720285">
        <ele>361.58999999999997</ele>
        <time>2025-04-27T09:43:47Z</time>
      </trkpt>
      <trkpt lat="43.110215021297336" lon="-1.411459017544985">
        <ele>362.55000000000001</ele>
        <time>2025-04-27T09:43:48Z</time>
      </trkpt>
      <trkpt lat="43.110137991607189" lon="-1.411631014198065">
        <ele>363.51999999999998</ele>
        <time>2025-04-27T09:43:49Z</time>
      </trkpt>
      <trkpt lat="43.110060039907694" lon="-1.411805022507906">
        <ele>364.48000000000002</ele>
        <time>2025-04-27T09:43:50Z</time>
      </trkpt>
      <trkpt lat="43.109859963878989" lon="-1.412110961973667">
        <ele>365.44</ele>
        <time>2025-04-27T09:43:52Z</time>
      </trkpt>
      <trkpt lat="43.109314972534776" lon="-1.412806995213032">
        <ele>367.83999999999997</ele>
        <time>2025-04-27T09:43:57Z</time>
      </trkpt>
      <trkpt lat="43.10919402167201" lon="-1.412913026288152">
        <ele>368.31999999999999</ele>
        <time>2025-04-27T09:43:58Z</time>
      </trkpt>
      <trkpt lat="43.109072986990213" lon="-1.413015034049749">
        <ele>368.31999999999999</ele>
        <time>2025-04-27T09:43:59Z</time>
      </trkpt>
      <trkpt lat="43.108930997550488" lon="-1.413075970485807">
        <ele>368.31999999999999</ele>
        <time>2025-04-27T09:44:00Z</time>
      </trkpt>
      <trkpt lat="43.108783978968859" lon="-1.413140008226037">
        <ele>368.31999999999999</ele>
        <time>2025-04-27T09:44:01Z</time>
      </trkpt>
      <trkpt lat="43.107256963849068" lon="-1.413730010390282">
        <ele>362.06999999999999</ele>
        <time>2025-04-27T09:44:11Z</time>
      </trkpt>
      <trkpt lat="43.107138024643064" lon="-1.413801005110145">
        <ele>361.58999999999997</ele>
        <time>2025-04-27T09:44:12Z</time>
      </trkpt>
      <trkpt lat="43.107072981074452" lon="-1.413922961801291">
        <ele>361.11000000000001</ele>
        <time>2025-04-27T09:44:13Z</time>
      </trkpt>
      <trkpt lat="43.107011038810015" lon="-1.414049025624991">
        <ele>359.67000000000002</ele>
        <time>2025-04-27T09:44:14Z</time>
      </trkpt>
      <trkpt lat="43.106979019939899" lon="-1.414167964830995">
        <ele>358.70999999999998</ele>
        <time>2025-04-27T09:44:15Z</time>
      </trkpt>
      <trkpt lat="43.106968961656094" lon="-1.414334010332823">
        <ele>357.75</ele>
        <time>2025-04-27T09:44:16Z</time>
      </trkpt>
      <trkpt lat="43.106956975534558" lon="-1.414514975622296">
        <ele>356.31</ele>
        <time>2025-04-27T09:44:17Z</time>
      </trkpt>
      <trkpt lat="43.106919005513191" lon="-1.415112018585205">
        <ele>352.94</ele>
        <time>2025-04-27T09:44:20Z</time>
      </trkpt>
      <trkpt lat="43.106867959722877" lon="-1.415278986096382">
        <ele>351.98000000000002</ele>
        <time>2025-04-27T09:44:21Z</time>
      </trkpt>
      <trkpt lat="43.106811968609691" lon="-1.415461963042617">
        <ele>351.01999999999998</ele>
        <time>2025-04-27T09:44:22Z</time>
      </trkpt>
      <trkpt lat="43.106734016910195" lon="-1.415651980787516">
        <ele>349.57999999999998</ele>
        <time>2025-04-27T09:44:23Z</time>
      </trkpt>
      <trkpt lat="43.106631003320217" lon="-1.41578902490437">
        <ele>348.62</ele>
        <time>2025-04-27T09:44:24Z</time>
      </trkpt>
      <trkpt lat="43.106517009437084" lon="-1.415916010737419">
        <ele>347.64999999999998</ele>
        <time>2025-04-27T09:44:25Z</time>
      </trkpt>
      <trkpt lat="43.106402009725571" lon="-1.416019024327397">
        <ele>347.17000000000002</ele>
        <time>2025-04-27T09:44:26Z</time>
      </trkpt>
      <trkpt lat="43.106268988922238" lon="-1.416108040139079">
        <ele>346.69</ele>
        <time>2025-04-27T09:44:27Z</time>
      </trkpt>
      <trkpt lat="43.106133034452796" lon="-1.416183980181813">
        <ele>346.20999999999998</ele>
        <time>2025-04-27T09:44:28Z</time>
      </trkpt>
      <trkpt lat="43.10599003918469" lon="-1.416255980730057">
        <ele>345.73000000000002</ele>
        <time>2025-04-27T09:44:29Z</time>
      </trkpt>
      <trkpt lat="43.105851989239454" lon="-1.416287999600172">
        <ele>345.73000000000002</ele>
        <time>2025-04-27T09:44:30Z</time>
      </trkpt>
      <trkpt lat="43.105357959866524" lon="-1.416492015123367">
        <ele>345.73000000000002</ele>
        <time>2025-04-27T09:44:34Z</time>
      </trkpt>
      <trkpt lat="43.105267016217113" lon="-1.416596034541726">
        <ele>345.73000000000002</ele>
        <time>2025-04-27T09:44:35Z</time>
      </trkpt>
      <trkpt lat="43.105179006233811" lon="-1.416716985404491">
        <ele>345.25</ele>
        <time>2025-04-27T09:44:36Z</time>
      </trkpt>
      <trkpt lat="43.105092002078891" lon="-1.416837014257908">
        <ele>344.76999999999998</ele>
        <time>2025-04-27T09:44:37Z</time>
      </trkpt>
      <trkpt lat="43.105026036500931" lon="-1.416967017576098">
        <ele>344.76999999999998</ele>
        <time>2025-04-27T09:44:38Z</time>
      </trkpt>
      <trkpt lat="43.104972979053855" lon="-1.417115963995457">
        <ele>344.29000000000002</ele>
        <time>2025-04-27T09:44:39Z</time>
      </trkpt>
      <trkpt lat="43.104923022910953" lon="-1.417258037254214">
        <ele>344.29000000000002</ele>
        <time>2025-04-27T09:44:40Z</time>
      </trkpt>
      <trkpt lat="43.104920005425811" lon="-1.417377982288599">
        <ele>343.81</ele>
        <time>2025-04-27T09:44:41Z</time>
      </trkpt>
      <trkpt lat="43.104915982112288" lon="-1.417532041668892">
        <ele>343.81</ele>
        <time>2025-04-27T09:44:42Z</time>
      </trkpt>
      <trkpt lat="43.104911036789417" lon="-1.417715018615127">
        <ele>343.32999999999998</ele>
        <time>2025-04-27T09:44:43Z</time>
      </trkpt>
      <trkpt lat="43.104905001819134" lon="-1.417905036360025">
        <ele>343.32999999999998</ele>
        <time>2025-04-27T09:44:44Z</time>
      </trkpt>
      <trkpt lat="43.104867031797767" lon="-1.418144004419446">
        <ele>342.85000000000002</ele>
        <time>2025-04-27T09:44:45Z</time>
      </trkpt>
      <trkpt lat="43.10481296852231" lon="-1.41832304187119">
        <ele>342.37</ele>
        <time>2025-04-27T09:44:46Z</time>
      </trkpt>
      <trkpt lat="43.104756977409124" lon="-1.418505012989044">
        <ele>341.88999999999999</ele>
        <time>2025-04-27T09:44:47Z</time>
      </trkpt>
      <trkpt lat="43.104647006839514" lon="-1.418672986328602">
        <ele>341.41000000000003</ele>
        <time>2025-04-27T09:44:48Z</time>
      </trkpt>
      <trkpt lat="43.104547010734677" lon="-1.418815981596708">
        <ele>340.92000000000002</ele>
        <time>2025-04-27T09:44:49Z</time>
      </trkpt>
      <trkpt lat="43.104451037943363" lon="-1.418953025713563">
        <ele>340.44</ele>
        <time>2025-04-27T09:44:50Z</time>
      </trkpt>
      <trkpt lat="43.104323968291283" lon="-1.419056039303541">
        <ele>339.95999999999998</ele>
        <time>2025-04-27T09:44:51Z</time>
      </trkpt>
      <trkpt lat="43.104203017428517" lon="-1.419153017923236">
        <ele>339.95999999999998</ele>
        <time>2025-04-27T09:44:52Z</time>
      </trkpt>
      <trkpt lat="43.10408097691834" lon="-1.419252008199692">
        <ele>339.48000000000002</ele>
        <time>2025-04-27T09:44:53Z</time>
      </trkpt>
      <trkpt lat="43.103962037712336" lon="-1.419339012354612">
        <ele>339.48000000000002</ele>
        <time>2025-04-27T09:44:54Z</time>
      </trkpt>
      <trkpt lat="43.103123009204865" lon="-1.419804962351918">
        <ele>340.92000000000002</ele>
        <time>2025-04-27T09:45:01Z</time>
      </trkpt>
      <trkpt lat="43.103003986179829" lon="-1.419895989820361">
        <ele>341.41000000000003</ele>
        <time>2025-04-27T09:45:02Z</time>
      </trkpt>
      <trkpt lat="43.102928968146443" lon="-1.419995985925198">
        <ele>341.88999999999999</ele>
        <time>2025-04-27T09:45:03Z</time>
      </trkpt>
      <trkpt lat="43.102869037538767" lon="-1.420174017548561">
        <ele>342.37</ele>
        <time>2025-04-27T09:45:04Z</time>
      </trkpt>
      <trkpt lat="43.102855961769819" lon="-1.42036696895957">
        <ele>342.85000000000002</ele>
        <time>2025-04-27T09:45:05Z</time>
      </trkpt>
      <trkpt lat="43.102882029488683" lon="-1.420514993369579">
        <ele>343.32999999999998</ele>
        <time>2025-04-27T09:45:06Z</time>
      </trkpt>
      <trkpt lat="43.102910025045276" lon="-1.420673998072743">
        <ele>343.81</ele>
        <time>2025-04-27T09:45:07Z</time>
      </trkpt>
      <trkpt lat="43.102949000895023" lon="-1.420840965583921">
        <ele>343.81</ele>
        <time>2025-04-27T09:45:08Z</time>
      </trkpt>
      <trkpt lat="43.103002980351448" lon="-1.421001981943846">
        <ele>344.29000000000002</ele>
        <time>2025-04-27T09:45:09Z</time>
      </trkpt>
      <trkpt lat="43.103057965636253" lon="-1.421166015788913">
        <ele>344.29000000000002</ele>
        <time>2025-04-27T09:45:10Z</time>
      </trkpt>
      <trkpt lat="43.103130972012877" lon="-1.421304987743497">
        <ele>344.29000000000002</ele>
        <time>2025-04-27T09:45:11Z</time>
      </trkpt>
      <trkpt lat="43.103223005309701" lon="-1.42143901437521">
        <ele>344.29000000000002</ele>
        <time>2025-04-27T09:45:12Z</time>
      </trkpt>
      <trkpt lat="43.103314032778144" lon="-1.421571029350162">
        <ele>343.81</ele>
        <time>2025-04-27T09:45:13Z</time>
      </trkpt>
      <trkpt lat="43.103431966155767" lon="-1.421675970777869">
        <ele>343.81</ele>
        <time>2025-04-27T09:45:14Z</time>
      </trkpt>
      <trkpt lat="43.103557024151087" lon="-1.421787030994892">
        <ele>343.81</ele>
        <time>2025-04-27T09:45:15Z</time>
      </trkpt>
      <trkpt lat="43.103685015812516" lon="-1.421901024878025">
        <ele>343.81</ele>
        <time>2025-04-27T09:45:16Z</time>
      </trkpt>
      <trkpt lat="43.104204023256898" lon="-1.422395976260305">
        <ele>342.85000000000002</ele>
        <time>2025-04-27T09:45:20Z</time>
      </trkpt>
      <trkpt lat="43.104404015466571" lon="-1.422714991495013">
        <ele>342.85000000000002</ele>
        <time>2025-04-27T09:45:22Z</time>
      </trkpt>
      <trkpt lat="43.104466963559389" lon="-1.422867039218545">
        <ele>343.32999999999998</ele>
        <time>2025-04-27T09:45:23Z</time>
      </trkpt>
      <trkpt lat="43.104484984651208" lon="-1.423046998679638">
        <ele>344.29000000000002</ele>
        <time>2025-04-27T09:45:24Z</time>
      </trkpt>
      <trkpt lat="43.10448800213635" lon="-1.423209020867944">
        <ele>345.25</ele>
        <time>2025-04-27T09:45:25Z</time>
      </trkpt>
      <trkpt lat="43.10446796938777" lon="-1.423371965065599">
        <ele>346.20999999999998</ele>
        <time>2025-04-27T09:45:26Z</time>
      </trkpt>
      <trkpt lat="43.104447014629841" lon="-1.423547985032201">
        <ele>347.17000000000002</ele>
        <time>2025-04-27T09:45:27Z</time>
      </trkpt>
      <trkpt lat="43.104421030730009" lon="-1.423725010827184">
        <ele>348.62</ele>
        <time>2025-04-27T09:45:28Z</time>
      </trkpt>
      <trkpt lat="43.104369984939694" lon="-1.42388703301549">
        <ele>349.57999999999998</ele>
        <time>2025-04-27T09:45:29Z</time>
      </trkpt>
      <trkpt lat="43.104322040453553" lon="-1.424037991091609">
        <ele>350.06</ele>
        <time>2025-04-27T09:45:30Z</time>
      </trkpt>
      <trkpt lat="43.104238975793123" lon="-1.424214011058211">
        <ele>351.01999999999998</ele>
        <time>2025-04-27T09:45:31Z</time>
      </trkpt>
      <trkpt lat="43.104163035750389" lon="-1.424374021589756">
        <ele>351.5</ele>
        <time>2025-04-27T09:45:32Z</time>
      </trkpt>
      <trkpt lat="43.104074019938707" lon="-1.424525985494256">
        <ele>351.98000000000002</ele>
        <time>2025-04-27T09:45:33Z</time>
      </trkpt>
      <trkpt lat="43.10397201217711" lon="-1.424676021561027">
        <ele>352.94</ele>
        <time>2025-04-27T09:45:34Z</time>
      </trkpt>
      <trkpt lat="43.103872016072273" lon="-1.424822034314275">
        <ele>353.89999999999998</ele>
        <time>2025-04-27T09:45:35Z</time>
      </trkpt>
      <trkpt lat="43.103243038058281" lon="-1.425697021186352">
        <ele>358.23000000000002</ele>
        <time>2025-04-27T09:45:41Z</time>
      </trkpt>
      <trkpt lat="43.103117980062962" lon="-1.425821995362639">
        <ele>359.19</ele>
        <time>2025-04-27T09:45:42Z</time>
      </trkpt>
      <trkpt lat="43.102195970714092" lon="-1.426614001393318">
        <ele>362.55000000000001</ele>
        <time>2025-04-27T09:45:49Z</time>
      </trkpt>
      <trkpt lat="43.102051969617605" lon="-1.426687007769942">
        <ele>363.04000000000002</ele>
        <time>2025-04-27T09:45:50Z</time>
      </trkpt>
      <trkpt lat="43.100929968059063" lon="-1.427367031574249">
        <ele>365.44</ele>
        <time>2025-04-27T09:45:59Z</time>
      </trkpt>
      <trkpt lat="43.10057801194489" lon="-1.427629971876741">
        <ele>366.88</ele>
        <time>2025-04-27T09:46:03Z</time>
      </trkpt>
      <trkpt lat="43.100104015320539" lon="-1.427932977676392">
        <ele>366.88</ele>
        <time>2025-04-27T09:46:09Z</time>
      </trkpt>
      <trkpt lat="43.100060010328889" lon="-1.427952004596591">
        <ele>366.88</ele>
        <time>2025-04-27T09:46:10Z</time>
      </trkpt>
      <trkpt lat="43.100031008943915" lon="-1.427964996546507">
        <ele>366.88</ele>
        <time>2025-04-27T09:46:11Z</time>
      </trkpt>
      <trkpt lat="43.100031008943915" lon="-1.427964996546507">
        <ele>366.88</ele>
        <time>2025-04-27T09:46:19Z</time>
      </trkpt>
      <trkpt lat="43.100031008943915" lon="-1.427964996546507">
        <ele>366.88</ele>
        <time>2025-04-27T09:47:14Z</time>
      </trkpt>
      <trkpt lat="43.100031008943915" lon="-1.427964996546507">
        <ele>366.88</ele>
        <time>2025-04-27T09:48:03Z</time>
      </trkpt>
      <trkpt lat="43.099990021437407" lon="-1.427972037345171">
        <ele>367.36000000000001</ele>
        <time>2025-04-27T09:48:25Z</time>
      </trkpt>
      <trkpt lat="43.099938975647092" lon="-1.427981005981565">
        <ele>367.36000000000001</ele>
        <time>2025-04-27T09:48:26Z</time>
      </trkpt>
      <trkpt lat="43.099658014252782" lon="-1.428026016801596">
        <ele>367.36000000000001</ele>
        <time>2025-04-27T09:48:30Z</time>
      </trkpt>
      <trkpt lat="43.099580984562635" lon="-1.4279929921031">
        <ele>366.88</ele>
        <time>2025-04-27T09:48:31Z</time>
      </trkpt>
      <trkpt lat="43.09950496070087" lon="-1.427958961576223">
        <ele>366.39999999999998</ele>
        <time>2025-04-27T09:48:32Z</time>
      </trkpt>
      <trkpt lat="43.099255012348294" lon="-1.427834993228316">
        <ele>365.92000000000002</ele>
        <time>2025-04-27T09:48:35Z</time>
      </trkpt>
      <trkpt lat="43.098956029862165" lon="-1.427646987140179">
        <ele>365.44</ele>
        <time>2025-04-27T09:48:39Z</time>
      </trkpt>
      <trkpt lat="43.098670961335301" lon="-1.427482031285763">
        <ele>365.44</ele>
        <time>2025-04-27T09:48:44Z</time>
      </trkpt>
      <trkpt lat="43.098607007414103" lon="-1.427515977993608">
        <ele>364.95999999999998</ele>
        <time>2025-04-27T09:48:45Z</time>
      </trkpt>
      <trkpt lat="43.098599966615438" lon="-1.427568029612303">
        <ele>364.95999999999998</ele>
        <time>2025-04-27T09:48:46Z</time>
      </trkpt>
      <trkpt lat="43.098590997979045" lon="-1.427638018503785">
        <ele>364.95999999999998</ele>
        <time>2025-04-27T09:48:47Z</time>
      </trkpt>
      <trkpt lat="43.098581023514271" lon="-1.427724016830325">
        <ele>364.95999999999998</ele>
        <time>2025-04-27T09:48:48Z</time>
      </trkpt>
      <trkpt lat="43.098522014915943" lon="-1.428139004856348">
        <ele>365.92000000000002</ele>
        <time>2025-04-27T09:48:55Z</time>
      </trkpt>
      <trkpt lat="43.098489996045828" lon="-1.428141016513109">
        <ele>365.92000000000002</ele>
        <time>2025-04-27T09:48:56Z</time>
      </trkpt>
      <trkpt lat="43.098448002710938" lon="-1.428144033998251">
        <ele>365.92000000000002</ele>
        <time>2025-04-27T09:48:57Z</time>
      </trkpt>
      <trkpt lat="43.098397962749004" lon="-1.428146967664361">
        <ele>365.92000000000002</ele>
        <time>2025-04-27T09:48:58Z</time>
      </trkpt>
      <trkpt lat="43.098339959979057" lon="-1.428150990977883">
        <ele>365.92000000000002</ele>
        <time>2025-04-27T09:48:59Z</time>
      </trkpt>
      <trkpt lat="43.098283968865871" lon="-1.428154008463025">
        <ele>365.92000000000002</ele>
        <time>2025-04-27T09:49:00Z</time>
      </trkpt>
      <trkpt lat="43.098121024668217" lon="-1.428302032873035">
        <ele>366.88</ele>
        <time>2025-04-27T09:49:05Z</time>
      </trkpt>
      <trkpt lat="43.09808598831296" lon="-1.428347965702415">
        <ele>366.88</ele>
        <time>2025-04-27T09:49:06Z</time>
      </trkpt>
      <trkpt lat="43.097973000258207" lon="-1.428499007597566">
        <ele>366.39999999999998</ele>
        <time>2025-04-27T09:49:09Z</time>
      </trkpt>
      <trkpt lat="43.097927989438176" lon="-1.428519040346146">
        <ele>366.39999999999998</ele>
        <time>2025-04-27T09:49:10Z</time>
      </trkpt>
      <trkpt lat="43.097878033295274" lon="-1.428539995104075">
        <ele>366.39999999999998</ele>
        <time>2025-04-27T09:49:11Z</time>
      </trkpt>
      <trkpt lat="43.097820030525327" lon="-1.428563967347145">
        <ele>366.39999999999998</ele>
        <time>2025-04-27T09:49:12Z</time>
      </trkpt>
      <trkpt lat="43.09776496142149" lon="-1.428587017580867">
        <ele>366.39999999999998</ele>
        <time>2025-04-27T09:49:13Z</time>
      </trkpt>
      <trkpt lat="43.097712993621826" lon="-1.428608978167176">
        <ele>366.39999999999998</ele>
        <time>2025-04-27T09:49:14Z</time>
      </trkpt>
      <trkpt lat="43.097659014165401" lon="-1.428632028400898">
        <ele>366.88</ele>
        <time>2025-04-27T09:49:15Z</time>
      </trkpt>
      <trkpt lat="43.097603023052216" lon="-1.428654994815588">
        <ele>367.36000000000001</ele>
        <time>2025-04-27T09:49:16Z</time>
      </trkpt>
      <trkpt lat="43.097544014453888" lon="-1.428679972887039">
        <ele>367.36000000000001</ele>
        <time>2025-04-27T09:49:17Z</time>
      </trkpt>
      <trkpt lat="43.097480982542038" lon="-1.428706040605903">
        <ele>367.83999999999997</ele>
        <time>2025-04-27T09:49:18Z</time>
      </trkpt>
      <trkpt lat="43.097419962286949" lon="-1.428761025890708">
        <ele>367.83999999999997</ele>
        <time>2025-04-27T09:49:19Z</time>
      </trkpt>
      <trkpt lat="43.097362965345383" lon="-1.42883101478219">
        <ele>368.31999999999999</ele>
        <time>2025-04-27T09:49:20Z</time>
      </trkpt>
      <trkpt lat="43.097072029486299" lon="-1.429192023351789">
        <ele>371.20999999999998</ele>
        <time>2025-04-27T09:49:25Z</time>
      </trkpt>
      <trkpt lat="43.096999023109674" lon="-1.429276010021567">
        <ele>372.17000000000002</ele>
        <time>2025-04-27T09:49:26Z</time>
      </trkpt>
      <trkpt lat="43.096919981762767" lon="-1.429307023063302">
        <ele>372.64999999999998</ele>
        <time>2025-04-27T09:49:27Z</time>
      </trkpt>
      <trkpt lat="43.09666802175343" lon="-1.429406013339758">
        <ele>375.52999999999997</ele>
        <time>2025-04-27T09:49:30Z</time>
      </trkpt>
      <trkpt lat="43.096583029255271" lon="-1.429439038038254">
        <ele>376.97000000000003</ele>
        <time>2025-04-27T09:49:31Z</time>
      </trkpt>
      <trkpt lat="43.096500970423222" lon="-1.429468961432576">
        <ele>378.42000000000002</ele>
        <time>2025-04-27T09:49:32Z</time>
      </trkpt>
      <trkpt lat="43.096271976828575" lon="-1.429500980302692">
        <ele>381.77999999999997</ele>
        <time>2025-04-27T09:49:35Z</time>
      </trkpt>
      <trkpt lat="43.096205005422235" lon="-1.429512966424227">
        <ele>382.74000000000001</ele>
        <time>2025-04-27T09:49:36Z</time>
      </trkpt>
      <trkpt lat="43.096138034015894" lon="-1.429542973637581">
        <ele>383.69999999999999</ele>
        <time>2025-04-27T09:49:37Z</time>
      </trkpt>
      <trkpt lat="43.095940975472331" lon="-1.429629977792501">
        <ele>386.58999999999997</ele>
        <time>2025-04-27T09:49:40Z</time>
      </trkpt>
      <trkpt lat="43.095824969932437" lon="-1.429682029411197">
        <ele>388.50999999999999</ele>
        <time>2025-04-27T09:49:42Z</time>
      </trkpt>
      <trkpt lat="43.095754981040955" lon="-1.429765010252595">
        <ele>388.99000000000001</ele>
        <time>2025-04-27T09:49:43Z</time>
      </trkpt>
      <trkpt lat="43.095699995756149" lon="-1.429829970002174">
        <ele>389.47000000000003</ele>
        <time>2025-04-27T09:49:44Z</time>
      </trkpt>
      <trkpt lat="43.095579966902733" lon="-1.429967014119029">
        <ele>389.94999999999999</ele>
        <time>2025-04-27T09:49:46Z</time>
      </trkpt>
      <trkpt lat="43.095506960526109" lon="-1.43001202493906">
        <ele>390.43000000000001</ele>
        <time>2025-04-27T09:49:47Z</time>
      </trkpt>
      <trkpt lat="43.095368994399905" lon="-1.430099029093981">
        <ele>391.38999999999999</ele>
        <time>2025-04-27T09:49:49Z</time>
      </trkpt>
      <trkpt lat="43.095305962488055" lon="-1.430138004943728">
        <ele>391.38999999999999</ele>
        <time>2025-04-27T09:49:50Z</time>
      </trkpt>
      <trkpt lat="43.095246031880379" lon="-1.430174969136715">
        <ele>391.87</ele>
        <time>2025-04-27T09:49:51Z</time>
      </trkpt>
      <trkpt lat="43.095218958333135" lon="-1.430202964693308">
        <ele>392.36000000000001</ele>
        <time>2025-04-27T09:49:52Z</time>
      </trkpt>
      <trkpt lat="43.095246031880379" lon="-1.430174969136715">
        <ele>392.36000000000001</ele>
        <time>2025-04-27T09:49:53Z</time>
      </trkpt>
      <trkpt lat="43.095189034938812" lon="-1.430231966078281">
        <ele>392.83999999999997</ele>
        <time>2025-04-27T09:49:54Z</time>
      </trkpt>
      <trkpt lat="43.095165984705091" lon="-1.430255016312003">
        <ele>393.31999999999999</ele>
        <time>2025-04-27T09:49:55Z</time>
      </trkpt>
      <trkpt lat="43.095130026340485" lon="-1.430290974676609">
        <ele>393.31999999999999</ele>
        <time>2025-04-27T09:49:56Z</time>
      </trkpt>
      <trkpt lat="43.095074035227299" lon="-1.430346965789795">
        <ele>393.80000000000001</ele>
        <time>2025-04-27T09:49:57Z</time>
      </trkpt>
      <trkpt lat="43.095020977780223" lon="-1.430362975224853">
        <ele>394.27999999999997</ele>
        <time>2025-04-27T09:49:58Z</time>
      </trkpt>
      <trkpt lat="43.094947971403599" lon="-1.430385019630194">
        <ele>394.27999999999997</ele>
        <time>2025-04-27T09:49:59Z</time>
      </trkpt>
      <trkpt lat="43.094873959198594" lon="-1.430406980216503">
        <ele>394.75999999999999</ele>
        <time>2025-04-27T09:50:00Z</time>
      </trkpt>
      <trkpt lat="43.094788966700435" lon="-1.430403040722013">
        <ele>394.75999999999999</ele>
        <time>2025-04-27T09:50:01Z</time>
      </trkpt>
      <trkpt lat="43.094613030552864" lon="-1.43033497966826">
        <ele>395.24000000000001</ele>
        <time>2025-04-27T09:50:03Z</time>
      </trkpt>
      <trkpt lat="43.094448996707797" lon="-1.430215034633875">
        <ele>395.24000000000001</ele>
        <time>2025-04-27T09:50:05Z</time>
      </trkpt>
      <trkpt lat="43.094366015866399" lon="-1.430154014378786">
        <ele>394.75999999999999</ele>
        <time>2025-04-27T09:50:06Z</time>
      </trkpt>
      <trkpt lat="43.09428496286273" lon="-1.430071033537388">
        <ele>394.75999999999999</ele>
        <time>2025-04-27T09:50:07Z</time>
      </trkpt>
      <trkpt lat="43.093880033120513" lon="-1.429655961692333">
        <ele>393.80000000000001</ele>
        <time>2025-04-27T09:50:12Z</time>
      </trkpt>
      <trkpt lat="43.093425985425711" lon="-1.42921700142324">
        <ele>393.80000000000001</ele>
        <time>2025-04-27T09:50:18Z</time>
      </trkpt>
      <trkpt lat="43.093345016241074" lon="-1.429168973118067">
        <ele>393.80000000000001</ele>
        <time>2025-04-27T09:50:19Z</time>
      </trkpt>
      <trkpt lat="43.093267986550927" lon="-1.429123962298036">
        <ele>393.31999999999999</ele>
        <time>2025-04-27T09:50:20Z</time>
      </trkpt>
      <trkpt lat="43.092672033235431" lon="-1.428806036710739">
        <ele>389.47000000000003</ele>
        <time>2025-04-27T09:50:27Z</time>
      </trkpt>
      <trkpt lat="43.092576982453465" lon="-1.428822968155146">
        <ele>388.99000000000001</ele>
        <time>2025-04-27T09:50:28Z</time>
      </trkpt>
      <trkpt lat="43.092075996100903" lon="-1.428901003673673">
        <ele>388.02999999999997</ele>
        <time>2025-04-27T09:50:33Z</time>
      </trkpt>
      <trkpt lat="43.091975999996066" lon="-1.428878959268332">
        <ele>388.02999999999997</ele>
        <time>2025-04-27T09:50:34Z</time>
      </trkpt>
      <trkpt lat="43.091878015547991" lon="-1.428856998682022">
        <ele>387.55000000000001</ele>
        <time>2025-04-27T09:50:35Z</time>
      </trkpt>
      <trkpt lat="43.091793023049831" lon="-1.428837971761823">
        <ele>387.06999999999999</ele>
        <time>2025-04-27T09:50:36Z</time>
      </trkpt>
      <trkpt lat="43.09172697365284" lon="-1.428822968155146">
        <ele>387.06999999999999</ele>
        <time>2025-04-27T09:50:37Z</time>
      </trkpt>
      <trkpt lat="43.091665031388402" lon="-1.42876798287034">
        <ele>387.06999999999999</ele>
        <time>2025-04-27T09:50:38Z</time>
      </trkpt>
      <trkpt lat="43.091604011133313" lon="-1.428714003413916">
        <ele>387.06999999999999</ele>
        <time>2025-04-27T09:50:39Z</time>
      </trkpt>
      <trkpt lat="43.091537961736321" lon="-1.428654994815588">
        <ele>387.55000000000001</ele>
        <time>2025-04-27T09:50:40Z</time>
      </trkpt>
      <trkpt lat="43.09146897867322" lon="-1.428592968732119">
        <ele>387.55000000000001</ele>
        <time>2025-04-27T09:50:41Z</time>
      </trkpt>
      <trkpt lat="43.091406030580401" lon="-1.428536977618933">
        <ele>387.55000000000001</ele>
        <time>2025-04-27T09:50:42Z</time>
      </trkpt>
      <trkpt lat="43.091353978961706" lon="-1.428490038961172">
        <ele>388.02999999999997</ele>
        <time>2025-04-27T09:50:43Z</time>
      </trkpt>
      <trkpt lat="43.09127502143383" lon="-1.428459025919437">
        <ele>388.02999999999997</ele>
        <time>2025-04-27T09:50:44Z</time>
      </trkpt>
      <trkpt lat="43.091201009228826" lon="-1.428459025919437">
        <ele>388.50999999999999</ele>
        <time>2025-04-27T09:50:45Z</time>
      </trkpt>
      <trkpt lat="43.09084796346724" lon="-1.428459025919437">
        <ele>388.99000000000001</ele>
        <time>2025-04-27T09:50:50Z</time>
      </trkpt>
      <trkpt lat="43.090774035081267" lon="-1.428504036739469">
        <ele>388.99000000000001</ele>
        <time>2025-04-27T09:50:51Z</time>
      </trkpt>
      <trkpt lat="43.090719971805811" lon="-1.428550975397229">
        <ele>389.47000000000003</ele>
        <time>2025-04-27T09:50:52Z</time>
      </trkpt>
      <trkpt lat="43.090579994022846" lon="-1.42865801230073">
        <ele>389.94999999999999</ele>
        <time>2025-04-27T09:50:55Z</time>
      </trkpt>
      <trkpt lat="43.09052400290966" lon="-1.428694976493716">
        <ele>390.43000000000001</ele>
        <time>2025-04-27T09:50:56Z</time>
      </trkpt>
      <trkpt lat="43.090447979047894" lon="-1.428689025342464">
        <ele>390.91000000000003</ele>
        <time>2025-04-27T09:50:57Z</time>
      </trkpt>
      <trkpt lat="43.090362986549735" lon="-1.428682990372181">
        <ele>391.87</ele>
        <time>2025-04-27T09:50:58Z</time>
      </trkpt>
      <trkpt lat="43.090273970738053" lon="-1.428676033392549">
        <ele>392.83999999999997</ele>
        <time>2025-04-27T09:50:59Z</time>
      </trkpt>
      <trkpt lat="43.0901800096035" lon="-1.428668992593885">
        <ele>393.80000000000001</ele>
        <time>2025-04-27T09:51:00Z</time>
      </trkpt>
      <trkpt lat="43.089678017422557" lon="-1.428631022572517">
        <ele>401.49000000000001</ele>
        <time>2025-04-27T09:51:05Z</time>
      </trkpt>
      <trkpt lat="43.08957701548934" lon="-1.42863898538053">
        <ele>402.44999999999999</ele>
        <time>2025-04-27T09:51:06Z</time>
      </trkpt>
      <trkpt lat="43.089480958878994" lon="-1.428648037835956">
        <ele>403.41000000000003</ele>
        <time>2025-04-27T09:51:07Z</time>
      </trkpt>
      <trkpt lat="43.08938498608768" lon="-1.428657006472349">
        <ele>404.37</ele>
        <time>2025-04-27T09:51:08Z</time>
      </trkpt>
      <trkpt lat="43.089290019124746" lon="-1.428665975108743">
        <ele>404.85000000000002</ele>
        <time>2025-04-27T09:51:09Z</time>
      </trkpt>
      <trkpt lat="43.089193040505052" lon="-1.428685002028942">
        <ele>405.81</ele>
        <time>2025-04-27T09:51:10Z</time>
      </trkpt>
      <trkpt lat="43.088679984211922" lon="-1.428822968155146">
        <ele>412.54000000000002</ele>
        <time>2025-04-27T09:51:17Z</time>
      </trkpt>
      <trkpt lat="43.088679984211922" lon="-1.428822968155146">
        <ele>413.01999999999998</ele>
        <time>2025-04-27T09:51:18Z</time>
      </trkpt>
      <trkpt lat="43.088560039177537" lon="-1.428806036710739">
        <ele>414.47000000000003</ele>
        <time>2025-04-27T09:51:20Z</time>
      </trkpt>
      <trkpt lat="43.088286034762859" lon="-1.428764965385199">
        <ele>414.94999999999999</ele>
        <time>2025-04-27T09:51:23Z</time>
      </trkpt>
      <trkpt lat="43.088114960119128" lon="-1.428694976493716">
        <ele>413.98000000000002</ele>
        <time>2025-04-27T09:51:25Z</time>
      </trkpt>
      <trkpt lat="43.087415993213654" lon="-1.428362969309092">
        <ele>408.69999999999999</ele>
        <time>2025-04-27T09:51:32Z</time>
      </trkpt>
      <trkpt lat="43.087308034300804" lon="-1.42827202565968">
        <ele>407.74000000000001</ele>
        <time>2025-04-27T09:51:33Z</time>
      </trkpt>
      <trkpt lat="43.087195968255401" lon="-1.428163982927799">
        <ele>406.29000000000002</ele>
        <time>2025-04-27T09:51:34Z</time>
      </trkpt>
      <trkpt lat="43.087079040706158" lon="-1.428053006529808">
        <ele>404.85000000000002</ele>
        <time>2025-04-27T09:51:35Z</time>
      </trkpt>
      <trkpt lat="43.086960017681122" lon="-1.427940018475056">
        <ele>403.41000000000003</ele>
        <time>2025-04-27T09:51:36Z</time>
      </trkpt>
      <trkpt lat="43.086043037474155" lon="-1.427135020494461">
        <ele>393.31999999999999</ele>
        <time>2025-04-27T09:51:45Z</time>
      </trkpt>
      <trkpt lat="43.085846984758973" lon="-1.426978027448058">
        <ele>390.43000000000001</ele>
        <time>2025-04-27T09:51:48Z</time>
      </trkpt>
      <trkpt lat="43.085846984758973" lon="-1.426978027448058">
        <ele>389.47000000000003</ele>
        <time>2025-04-27T09:51:49Z</time>
      </trkpt>
      <trkpt lat="43.085811026394367" lon="-1.426905021071434">
        <ele>388.50999999999999</ele>
        <time>2025-04-27T09:51:50Z</time>
      </trkpt>
      <trkpt lat="43.085800968110561" lon="-1.426884988322854">
        <ele>387.06999999999999</ele>
        <time>2025-04-27T09:51:51Z</time>
      </trkpt>
      <trkpt lat="43.085800968110561" lon="-1.426884988322854">
        <ele>383.22000000000003</ele>
        <time>2025-04-27T09:52:04Z</time>
      </trkpt>
      <trkpt lat="43.085800968110561" lon="-1.426884988322854">
        <ele>383.22000000000003</ele>
        <time>2025-04-27T09:52:28Z</time>
      </trkpt>
      <trkpt lat="43.085783030837774" lon="-1.426849029958248">
        <ele>379.38</ele>
        <time>2025-04-27T09:52:29Z</time>
      </trkpt>
      <trkpt lat="43.085783030837774" lon="-1.426784992218018">
        <ele>377.94</ele>
        <time>2025-04-27T09:52:30Z</time>
      </trkpt>
      <trkpt lat="43.085855031386018" lon="-1.42698397859931">
        <ele>378.42000000000002</ele>
        <time>2025-04-27T09:52:32Z</time>
      </trkpt>
      <trkpt lat="43.086399016901851" lon="-1.427420005202293">
        <ele>382.74000000000001</ele>
        <time>2025-04-27T09:52:39Z</time>
      </trkpt>
      <trkpt lat="43.087186999619007" lon="-1.428156020119786">
        <ele>391.38999999999999</ele>
        <time>2025-04-27T09:52:47Z</time>
      </trkpt>
      <trkpt lat="43.087392020970583" lon="-1.428350983187556">
        <ele>393.80000000000001</ele>
        <time>2025-04-27T09:52:49Z</time>
      </trkpt>
      <trkpt lat="43.087513977661729" lon="-1.428408985957503">
        <ele>395.24000000000001</ele>
        <time>2025-04-27T09:52:50Z</time>
      </trkpt>
      <trkpt lat="43.088063998147845" lon="-1.428669998422265">
        <ele>400.52999999999997</ele>
        <time>2025-04-27T09:52:55Z</time>
      </trkpt>
      <trkpt lat="43.088372033089399" lon="-1.428777035325766">
        <ele>402.93000000000001</ele>
        <time>2025-04-27T09:52:58Z</time>
      </trkpt>
      <trkpt lat="43.088468005880713" lon="-1.428792038932443">
        <ele>403.88999999999999</ele>
        <time>2025-04-27T09:52:59Z</time>
      </trkpt>
      <trkpt lat="43.088637990877032" lon="-1.428817017003894">
        <ele>405.32999999999998</ele>
        <time>2025-04-27T09:53:01Z</time>
      </trkpt>
      <trkpt lat="43.088702028617263" lon="-1.428846018388867">
        <ele>405.81</ele>
        <time>2025-04-27T09:53:02Z</time>
      </trkpt>
      <trkpt lat="43.088759025558829" lon="-1.428903015330434">
        <ele>406.29000000000002</ele>
        <time>2025-04-27T09:53:03Z</time>
      </trkpt>
      <trkpt lat="43.088757013902068" lon="-1.428992031142116">
        <ele>406.76999999999998</ele>
        <time>2025-04-27T09:53:04Z</time>
      </trkpt>
      <trkpt lat="43.088747961446643" lon="-1.42908900976181">
        <ele>406.76999999999998</ele>
        <time>2025-04-27T09:53:05Z</time>
      </trkpt>
      <trkpt lat="43.088744021952152" lon="-1.429123962298036">
        <ele>407.25999999999999</ele>
        <time>2025-04-27T09:53:06Z</time>
      </trkpt>
      <trkpt lat="43.088662968948483" lon="-1.429165033623576">
        <ele>407.74000000000001</ele>
        <time>2025-04-27T09:53:07Z</time>
      </trkpt>
      <trkpt lat="43.088615024462342" lon="-1.429188000038266">
        <ele>407.74000000000001</ele>
        <time>2025-04-27T09:53:08Z</time>
      </trkpt>
      <trkpt lat="43.088615024462342" lon="-1.429188000038266">
        <ele>407.74000000000001</ele>
        <time>2025-04-27T09:53:09Z</time>
      </trkpt>
      <trkpt lat="43.088506981730461" lon="-1.429138965904713">
        <ele>407.74000000000001</ele>
        <time>2025-04-27T09:53:10Z</time>
      </trkpt>
      <trkpt lat="43.088290980085731" lon="-1.429040981456637">
        <ele>407.74000000000001</ele>
        <time>2025-04-27T09:53:12Z</time>
      </trkpt>
      <trkpt lat="43.087102007120848" lon="-1.428775023669004">
        <ele>408.69999999999999</ele>
        <time>2025-04-27T09:53:19Z</time>
      </trkpt>
      <trkpt lat="43.086632033810019" lon="-1.428693970665336">
        <ele>411.57999999999998</ele>
        <time>2025-04-27T09:53:22Z</time>
      </trkpt>
      <trkpt lat="43.086455008015037" lon="-1.428691036999226">
        <ele>412.54000000000002</ele>
        <time>2025-04-27T09:53:23Z</time>
      </trkpt>
      <trkpt lat="43.086302960291505" lon="-1.428738981485367">
        <ele>413.5</ele>
        <time>2025-04-27T09:53:24Z</time>
      </trkpt>
      <trkpt lat="43.085844973102212" lon="-1.42898297868669">
        <ele>417.35000000000002</ele>
        <time>2025-04-27T09:53:27Z</time>
      </trkpt>
      <trkpt lat="43.085723016411066" lon="-1.42906797118485">
        <ele>418.79000000000002</ele>
        <time>2025-04-27T09:53:28Z</time>
      </trkpt>
      <trkpt lat="43.085592007264495" lon="-1.429168973118067">
        <ele>420.70999999999998</ele>
        <time>2025-04-27T09:53:29Z</time>
      </trkpt>
      <trkpt lat="43.085484970360994" lon="-1.429298976436257">
        <ele>421.68000000000001</ele>
        <time>2025-04-27T09:53:30Z</time>
      </trkpt>
      <trkpt lat="43.085373993963003" lon="-1.429434008896351">
        <ele>423.12</ele>
        <time>2025-04-27T09:53:31Z</time>
      </trkpt>
      <trkpt lat="43.085032012313604" lon="-1.429850002750754">
        <ele>427.44</ele>
        <time>2025-04-27T09:53:34Z</time>
      </trkpt>
      <trkpt lat="43.084918018430471" lon="-1.429988974705339">
        <ele>428.88999999999999</ele>
        <time>2025-04-27T09:53:35Z</time>
      </trkpt>
      <trkpt lat="43.084475034847856" lon="-1.430472023785114">
        <ele>434.64999999999998</ele>
        <time>2025-04-27T09:53:39Z</time>
      </trkpt>
      <trkpt lat="43.084373027086258" lon="-1.430634967982769">
        <ele>435.61000000000001</ele>
        <time>2025-04-27T09:53:40Z</time>
      </trkpt>
      <trkpt lat="43.084290968254209" lon="-1.430800007656217">
        <ele>437.06</ele>
        <time>2025-04-27T09:53:41Z</time>
      </trkpt>
      <trkpt lat="43.084217961877584" lon="-1.430944008752704">
        <ele>438.01999999999998</ele>
        <time>2025-04-27T09:53:42Z</time>
      </trkpt>
      <trkpt lat="43.084158031269908" lon="-1.431064959615469">
        <ele>439.45999999999998</ele>
        <time>2025-04-27T09:53:43Z</time>
      </trkpt>
      <trkpt lat="43.084073038771749" lon="-1.431164033710957">
        <ele>440.42000000000002</ele>
        <time>2025-04-27T09:53:44Z</time>
      </trkpt>
      <trkpt lat="43.08397295884788" lon="-1.431239973753691">
        <ele>441.86000000000001</ele>
        <time>2025-04-27T09:53:45Z</time>
      </trkpt>
      <trkpt lat="43.083852007985115" lon="-1.431334018707275">
        <ele>442.81999999999999</ele>
        <time>2025-04-27T09:53:46Z</time>
      </trkpt>
      <trkpt lat="43.083806997165084" lon="-1.431401995941997">
        <ele>444.26999999999998</ele>
        <time>2025-04-27T09:53:47Z</time>
      </trkpt>
      <trkpt lat="43.083752011880279" lon="-1.431531999260187">
        <ele>445.23000000000002</ele>
        <time>2025-04-27T09:53:48Z</time>
      </trkpt>
      <trkpt lat="43.083720998838544" lon="-1.431676000356674">
        <ele>446.19</ele>
        <time>2025-04-27T09:53:49Z</time>
      </trkpt>
      <trkpt lat="43.083680011332035" lon="-1.431870041415095">
        <ele>447.63</ele>
        <time>2025-04-27T09:53:50Z</time>
      </trkpt>
      <trkpt lat="43.083612034097314" lon="-1.431956961750984">
        <ele>448.58999999999997</ele>
        <time>2025-04-27T09:53:51Z</time>
      </trkpt>
      <trkpt lat="43.083529975265265" lon="-1.432060981169343">
        <ele>449.55000000000001</ele>
        <time>2025-04-27T09:53:52Z</time>
      </trkpt>
      <trkpt lat="43.083459986373782" lon="-1.432148991152644">
        <ele>450.51999999999998</ele>
        <time>2025-04-27T09:53:53Z</time>
      </trkpt>
      <trkpt lat="43.083357978612185" lon="-1.432277988642454">
        <ele>451.48000000000002</ele>
        <time>2025-04-27T09:53:54Z</time>
      </trkpt>
      <trkpt lat="43.083353033289313" lon="-1.432306990027428">
        <ele>452.44</ele>
        <time>2025-04-27T09:53:55Z</time>
      </trkpt>
      <trkpt lat="43.083333000540733" lon="-1.432404974475503">
        <ele>453.39999999999998</ele>
        <time>2025-04-27T09:53:56Z</time>
      </trkpt>
      <trkpt lat="43.083294024690986" lon="-1.432600021362305">
        <ele>453.88</ele>
        <time>2025-04-27T09:53:57Z</time>
      </trkpt>
      <trkpt lat="43.083323026075959" lon="-1.432678978890181">
        <ele>454.83999999999997</ele>
        <time>2025-04-27T09:53:58Z</time>
      </trkpt>
      <trkpt lat="43.083363007754087" lon="-1.432788027450442">
        <ele>455.80000000000001</ele>
        <time>2025-04-27T09:53:59Z</time>
      </trkpt>
      <trkpt lat="43.083399971947074" lon="-1.432888023555279">
        <ele>457.24000000000001</ele>
        <time>2025-04-27T09:54:00Z</time>
      </trkpt>
      <trkpt lat="43.083443976938725" lon="-1.433007968589664">
        <ele>458.20999999999998</ele>
        <time>2025-04-27T09:54:01Z</time>
      </trkpt>
      <trkpt lat="43.083443976938725" lon="-1.433054991066456">
        <ele>459.64999999999998</ele>
        <time>2025-04-27T09:54:02Z</time>
      </trkpt>
      <trkpt lat="43.083443976938725" lon="-1.433221958577633">
        <ele>461.08999999999997</ele>
        <time>2025-04-27T09:54:03Z</time>
      </trkpt>
      <trkpt lat="43.083425033837557" lon="-1.433269986882806">
        <ele>462.05000000000001</ele>
        <time>2025-04-27T09:54:04Z</time>
      </trkpt>
      <trkpt lat="43.083357978612185" lon="-1.433437038213015">
        <ele>463.00999999999999</ele>
        <time>2025-04-27T09:54:05Z</time>
      </trkpt>
      <trkpt lat="43.083293018862605" lon="-1.433479031547904">
        <ele>464.44999999999999</ele>
        <time>2025-04-27T09:54:06Z</time>
      </trkpt>
      <trkpt lat="43.082994036376476" lon="-1.433672988787293">
        <ele>470.22000000000003</ele>
        <time>2025-04-27T09:54:12Z</time>
      </trkpt>
      <trkpt lat="43.082870990037918" lon="-1.433812966570258">
        <ele>473.58999999999997</ele>
        <time>2025-04-27T09:54:16Z</time>
      </trkpt>
      <trkpt lat="43.082842994481325" lon="-1.433844985440373">
        <ele>474.55000000000001</ele>
        <time>2025-04-27T09:54:17Z</time>
      </trkpt>
      <trkpt lat="43.082841988652945" lon="-1.433923020958901">
        <ele>475.50999999999999</ele>
        <time>2025-04-27T09:54:18Z</time>
      </trkpt>
      <trkpt lat="43.082838971167803" lon="-1.434025028720498">
        <ele>475.99000000000001</ele>
        <time>2025-04-27T09:54:19Z</time>
      </trkpt>
      <trkpt lat="43.082836959511042" lon="-1.434128964319825">
        <ele>476.94999999999999</ele>
        <time>2025-04-27T09:54:20Z</time>
      </trkpt>
      <trkpt lat="43.082824973389506" lon="-1.434655012562871">
        <ele>481.27999999999997</ele>
        <time>2025-04-27T09:54:25Z</time>
      </trkpt>
      <trkpt lat="43.082717014476657" lon="-1.43579201772809">
        <ele>488.49000000000001</ele>
        <time>2025-04-27T09:54:34Z</time>
      </trkpt>
      <trkpt lat="43.082692958414555" lon="-1.435946999117732">
        <ele>489.44999999999999</ele>
        <time>2025-04-27T09:54:35Z</time>
      </trkpt>
      <trkpt lat="43.082651970908046" lon="-1.436060993000865">
        <ele>490.41000000000003</ele>
        <time>2025-04-27T09:54:36Z</time>
      </trkpt>
      <trkpt lat="43.082606038078666" lon="-1.436186973005533">
        <ele>490.88999999999999</ele>
        <time>2025-04-27T09:54:37Z</time>
      </trkpt>
      <trkpt lat="43.082561027258635" lon="-1.436312031000853">
        <ele>491.37</ele>
        <time>2025-04-27T09:54:38Z</time>
      </trkpt>
      <trkpt lat="43.08250998146832" lon="-1.436443040147424">
        <ele>492.32999999999998</ele>
        <time>2025-04-27T09:54:39Z</time>
      </trkpt>
      <trkpt lat="43.082343013957143" lon="-1.436793990433216">
        <ele>493.76999999999998</ele>
        <time>2025-04-27T09:54:42Z</time>
      </trkpt>
      <trkpt lat="43.082274030894041" lon="-1.436923993751407">
        <ele>494.74000000000001</ele>
        <time>2025-04-27T09:54:43Z</time>
      </trkpt>
      <trkpt lat="43.082189038395882" lon="-1.437009992077947">
        <ele>495.22000000000003</ele>
        <time>2025-04-27T09:54:44Z</time>
      </trkpt>
      <trkpt lat="43.081739014014602" lon="-1.437472002580762">
        <ele>499.54000000000002</ele>
        <time>2025-04-27T09:54:49Z</time>
      </trkpt>
      <trkpt lat="43.081642035394907" lon="-1.437578033655882">
        <ele>500.01999999999998</ele>
        <time>2025-04-27T09:54:50Z</time>
      </trkpt>
      <trkpt lat="43.081613034009933" lon="-1.437679035589099">
        <ele>500.98000000000002</ele>
        <time>2025-04-27T09:54:51Z</time>
      </trkpt>
      <trkpt lat="43.081556037068367" lon="-1.437879027798772">
        <ele>501.94999999999999</ele>
        <time>2025-04-27T09:54:52Z</time>
      </trkpt>
      <trkpt lat="43.081567017361522" lon="-1.437967959791422">
        <ele>503.38999999999999</ele>
        <time>2025-04-27T09:54:53Z</time>
      </trkpt>
      <trkpt lat="43.081611022353172" lon="-1.438126964494586">
        <ele>504.35000000000002</ele>
        <time>2025-04-27T09:54:54Z</time>
      </trkpt>
      <trkpt lat="43.081673970445991" lon="-1.438270965591073">
        <ele>505.79000000000002</ele>
        <time>2025-04-27T09:54:55Z</time>
      </trkpt>
      <trkpt lat="43.081737002357841" lon="-1.438413038849831">
        <ele>507.23000000000002</ele>
        <time>2025-04-27T09:54:56Z</time>
      </trkpt>
      <trkpt lat="43.081795005127788" lon="-1.438545975834131">
        <ele>508.67000000000002</ele>
        <time>2025-04-27T09:54:57Z</time>
      </trkpt>
      <trkpt lat="43.081818977370858" lon="-1.438672039657831">
        <ele>510.60000000000002</ele>
        <time>2025-04-27T09:54:58Z</time>
      </trkpt>
      <trkpt lat="43.081827023997903" lon="-1.438801037147641">
        <ele>511.56</ele>
        <time>2025-04-27T09:54:59Z</time>
      </trkpt>
      <trkpt lat="43.081834986805916" lon="-1.438930034637451">
        <ele>513</ele>
        <time>2025-04-27T09:55:00Z</time>
      </trkpt>
      <trkpt lat="43.081802967935801" lon="-1.439042016863823">
        <ele>514.44000000000005</ele>
        <time>2025-04-27T09:55:01Z</time>
      </trkpt>
      <trkpt lat="43.081748988479376" lon="-1.43916598521173">
        <ele>515.88</ele>
        <time>2025-04-27T09:55:02Z</time>
      </trkpt>
      <trkpt lat="43.08167296461761" lon="-1.439277967438102">
        <ele>516.85000000000002</ele>
        <time>2025-04-27T09:55:03Z</time>
      </trkpt>
      <trkpt lat="43.081588977947831" lon="-1.439382992684841">
        <ele>518.28999999999996</ele>
        <time>2025-04-27T09:55:04Z</time>
      </trkpt>
      <trkpt lat="43.080886993557215" lon="-1.440227972343564">
        <ele>525.01999999999998</ele>
        <time>2025-04-27T09:55:12Z</time>
      </trkpt>
      <trkpt lat="43.080807030200958" lon="-1.440288992598653">
        <ele>525.5</ele>
        <time>2025-04-27T09:55:13Z</time>
      </trkpt>
      <trkpt lat="43.080723965540528" lon="-1.440336015075445">
        <ele>525.5</ele>
        <time>2025-04-27T09:55:14Z</time>
      </trkpt>
      <trkpt lat="43.080639978870749" lon="-1.440360993146896">
        <ele>525.5</ele>
        <time>2025-04-27T09:55:15Z</time>
      </trkpt>
      <trkpt lat="43.0799949914217" lon="-1.440388988703489">
        <ele>524.53999999999996</ele>
        <time>2025-04-27T09:55:22Z</time>
      </trkpt>
      <trkpt lat="43.079882003366947" lon="-1.440388988703489">
        <ele>524.53999999999996</ele>
        <time>2025-04-27T09:55:23Z</time>
      </trkpt>
      <trkpt lat="43.079831041395664" lon="-1.440428970381618">
        <ele>524.53999999999996</ele>
        <time>2025-04-27T09:55:24Z</time>
      </trkpt>
      <trkpt lat="43.07975702919066" lon="-1.440486973151565">
        <ele>524.53999999999996</ele>
        <time>2025-04-27T09:55:25Z</time>
      </trkpt>
      <trkpt lat="43.079677987843752" lon="-1.440552016720176">
        <ele>524.53999999999996</ele>
        <time>2025-04-27T09:55:26Z</time>
      </trkpt>
      <trkpt lat="43.079356038942933" lon="-1.440925011411309">
        <ele>525.98000000000002</ele>
        <time>2025-04-27T09:55:30Z</time>
      </trkpt>
      <trkpt lat="43.079289989545941" lon="-1.441046968102455">
        <ele>526.46000000000004</ele>
        <time>2025-04-27T09:55:31Z</time>
      </trkpt>
      <trkpt lat="43.079229975119233" lon="-1.441174959763885">
        <ele>526.94000000000005</ele>
        <time>2025-04-27T09:55:32Z</time>
      </trkpt>
      <trkpt lat="43.079194016754627" lon="-1.441323990002275">
        <ele>527.89999999999998</ele>
        <time>2025-04-27T09:55:33Z</time>
      </trkpt>
      <trkpt lat="43.07915797457099" lon="-1.441476037725806">
        <ele>528.86000000000001</ele>
        <time>2025-04-27T09:55:34Z</time>
      </trkpt>
      <trkpt lat="43.079122016206384" lon="-1.441625989973545">
        <ele>529.82000000000005</ele>
        <time>2025-04-27T09:55:35Z</time>
      </trkpt>
      <trkpt lat="43.079088991507888" lon="-1.44176403991878">
        <ele>531.26999999999998</ele>
        <time>2025-04-27T09:55:36Z</time>
      </trkpt>
      <trkpt lat="43.079054960981011" lon="-1.441906029358506">
        <ele>532.23000000000002</ele>
        <time>2025-04-27T09:55:37Z</time>
      </trkpt>
      <trkpt lat="43.079017996788025" lon="-1.442056987434626">
        <ele>533.19000000000005</ele>
        <time>2025-04-27T09:55:38Z</time>
      </trkpt>
      <trkpt lat="43.078981032595038" lon="-1.442212974652648">
        <ele>534.14999999999998</ele>
        <time>2025-04-27T09:55:39Z</time>
      </trkpt>
      <trkpt lat="43.078901991248131" lon="-1.442305007949472">
        <ele>535.59000000000003</ele>
        <time>2025-04-27T09:55:40Z</time>
      </trkpt>
      <trkpt lat="43.078465964645147" lon="-1.442814040929079">
        <ele>540.88</ele>
        <time>2025-04-27T09:55:45Z</time>
      </trkpt>
      <trkpt lat="43.07838499546051" lon="-1.442849999293685">
        <ele>541.84000000000003</ele>
        <time>2025-04-27T09:55:46Z</time>
      </trkpt>
      <trkpt lat="43.078289022669196" lon="-1.442894004285336">
        <ele>542.32000000000005</ele>
        <time>2025-04-27T09:55:47Z</time>
      </trkpt>
      <trkpt lat="43.078186009079218" lon="-1.442927028983831">
        <ele>543.27999999999997</ele>
        <time>2025-04-27T09:55:48Z</time>
      </trkpt>
      <trkpt lat="43.078079978004098" lon="-1.442941026762128">
        <ele>544.24000000000001</ele>
        <time>2025-04-27T09:55:49Z</time>
      </trkpt>
      <trkpt lat="43.07797403074801" lon="-1.442954018712044">
        <ele>545.20000000000005</ele>
        <time>2025-04-27T09:55:50Z</time>
      </trkpt>
      <trkpt lat="43.077790969982743" lon="-1.442977990955114">
        <ele>546.64999999999998</ele>
        <time>2025-04-27T09:55:52Z</time>
      </trkpt>
      <trkpt lat="43.077717963606119" lon="-1.442996012046933">
        <ele>547.13</ele>
        <time>2025-04-27T09:55:53Z</time>
      </trkpt>
      <trkpt lat="43.077635988593102" lon="-1.443043034523726">
        <ele>547.61000000000001</ele>
        <time>2025-04-27T09:55:54Z</time>
      </trkpt>
      <trkpt lat="43.0771179869771" lon="-1.443585008382797">
        <ele>554.34000000000003</ele>
        <time>2025-04-27T09:56:00Z</time>
      </trkpt>
      <trkpt lat="43.077041963115335" lon="-1.443668995052576">
        <ele>555.77999999999997</ele>
        <time>2025-04-27T09:56:01Z</time>
      </trkpt>
      <trkpt lat="43.076921012252569" lon="-1.443824982270598">
        <ele>557.70000000000005</ele>
        <time>2025-04-27T09:56:02Z</time>
      </trkpt>
      <trkpt lat="43.076921012252569" lon="-1.443950962275267">
        <ele>559.62</ele>
        <time>2025-04-27T09:56:03Z</time>
      </trkpt>
      <trkpt lat="43.076956970617175" lon="-1.444088006392121">
        <ele>561.54999999999995</ele>
        <time>2025-04-27T09:56:04Z</time>
      </trkpt>
      <trkpt lat="43.076981026679277" lon="-1.444180039688945">
        <ele>563.47000000000003</ele>
        <time>2025-04-27T09:56:05Z</time>
      </trkpt>
      <trkpt lat="43.076997958123684" lon="-1.444244999438524">
        <ele>565.38999999999999</ele>
        <time>2025-04-27T09:56:06Z</time>
      </trkpt>
      <trkpt lat="43.077011033892632" lon="-1.44449301995337">
        <ele>567.32000000000005</ele>
        <time>2025-04-27T09:56:07Z</time>
      </trkpt>
      <trkpt lat="43.076972980052233" lon="-1.444540964439511">
        <ele>568.75999999999999</ele>
        <time>2025-04-27T09:56:08Z</time>
      </trkpt>
      <trkpt lat="43.076856974512339" lon="-1.444530989974737">
        <ele>570.67999999999995</ele>
        <time>2025-04-27T09:56:09Z</time>
      </trkpt>
      <trkpt lat="43.076776005327702" lon="-1.444490002468228">
        <ele>572.12</ele>
        <time>2025-04-27T09:56:10Z</time>
      </trkpt>
      <trkpt lat="43.076709033921361" lon="-1.444456977769733">
        <ele>574.03999999999996</ele>
        <time>2025-04-27T09:56:11Z</time>
      </trkpt>
      <trkpt lat="43.076628986746073" lon="-1.444416996091604">
        <ele>575.49000000000001</ele>
        <time>2025-04-27T09:56:12Z</time>
      </trkpt>
      <trkpt lat="43.075794987380505" lon="-1.444081971421838">
        <ele>589.42999999999995</ele>
        <time>2025-04-27T09:56:20Z</time>
      </trkpt>
      <trkpt lat="43.075687028467655" lon="-1.44406202249229">
        <ele>591.35000000000002</ele>
        <time>2025-04-27T09:56:21Z</time>
      </trkpt>
      <trkpt lat="43.075598012655973" lon="-1.444069985300303">
        <ele>592.78999999999996</ele>
        <time>2025-04-27T09:56:22Z</time>
      </trkpt>
      <trkpt lat="43.07548301294446" lon="-1.444118013605475">
        <ele>594.23000000000002</ele>
        <time>2025-04-27T09:56:23Z</time>
      </trkpt>
      <trkpt lat="43.075433978810906" lon="-1.444204011932015">
        <ele>595.66999999999996</ele>
        <time>2025-04-27T09:56:24Z</time>
      </trkpt>
      <trkpt lat="43.075412018224597" lon="-1.44434398971498">
        <ele>597.60000000000002</ele>
        <time>2025-04-27T09:56:25Z</time>
      </trkpt>
      <trkpt lat="43.075403971597552" lon="-1.444483967497945">
        <ele>599.51999999999998</ele>
        <time>2025-04-27T09:56:26Z</time>
      </trkpt>
      <trkpt lat="43.075393997132778" lon="-1.444640960544348">
        <ele>601.44000000000005</ele>
        <time>2025-04-27T09:56:27Z</time>
      </trkpt>
      <trkpt lat="43.075318979099393" lon="-1.446123970672488">
        <ele>614.41999999999996</ele>
        <time>2025-04-27T09:56:36Z</time>
      </trkpt>
      <trkpt lat="43.075327025726438" lon="-1.446274006739259">
        <ele>615.86000000000001</ele>
        <time>2025-04-27T09:56:37Z</time>
      </trkpt>
      <trkpt lat="43.075344040989876" lon="-1.446432005614042">
        <ele>617.29999999999995</ele>
        <time>2025-04-27T09:56:38Z</time>
      </trkpt>
      <trkpt lat="43.075439007952809" lon="-1.446730988100171">
        <ele>620.66999999999996</ele>
        <time>2025-04-27T09:56:40Z</time>
      </trkpt>
      <trkpt lat="43.075465997681022" lon="-1.446885969489813">
        <ele>622.11000000000001</ele>
        <time>2025-04-27T09:56:41Z</time>
      </trkpt>
      <trkpt lat="43.075474966317415" lon="-1.447047991678119">
        <ele>623.54999999999995</ele>
        <time>2025-04-27T09:56:42Z</time>
      </trkpt>
      <trkpt lat="43.07548301294446" lon="-1.447215965017676">
        <ele>624.50999999999999</ele>
        <time>2025-04-27T09:56:43Z</time>
      </trkpt>
      <trkpt lat="43.07548301294446" lon="-1.447389973327518">
        <ele>625.47000000000003</ele>
        <time>2025-04-27T09:56:44Z</time>
      </trkpt>
      <trkpt lat="43.07548301294446" lon="-1.4475669991225">
        <ele>625.96000000000004</ele>
        <time>2025-04-27T09:56:45Z</time>
      </trkpt>
      <trkpt lat="43.07548301294446" lon="-1.447915015742183">
        <ele>626.91999999999996</ele>
        <time>2025-04-27T09:56:47Z</time>
      </trkpt>
      <trkpt lat="43.075465997681022" lon="-1.44810201600194">
        <ele>626.91999999999996</ele>
        <time>2025-04-27T09:56:48Z</time>
      </trkpt>
      <trkpt lat="43.075338006019592" lon="-1.449316972866654">
        <ele>628.84000000000003</ele>
        <time>2025-04-27T09:56:54Z</time>
      </trkpt>
      <trkpt lat="43.075287966057658" lon="-1.44952098838985">
        <ele>629.32000000000005</ele>
        <time>2025-04-27T09:56:55Z</time>
      </trkpt>
      <trkpt lat="43.075233986601233" lon="-1.44971402361989">
        <ele>629.79999999999995</ele>
        <time>2025-04-27T09:56:56Z</time>
      </trkpt>
      <trkpt lat="43.074633004143834" lon="-1.450948007404804">
        <ele>638.45000000000005</ele>
        <time>2025-04-27T09:57:04Z</time>
      </trkpt>
      <trkpt lat="43.074554968625307" lon="-1.451054038479924">
        <ele>639.88999999999999</ele>
        <time>2025-04-27T09:57:05Z</time>
      </trkpt>
      <trkpt lat="43.074449021369219" lon="-1.451125033199787">
        <ele>640.86000000000001</ele>
        <time>2025-04-27T09:57:06Z</time>
      </trkpt>
      <trkpt lat="43.074323963373899" lon="-1.451156968250871">
        <ele>641.82000000000005</ele>
        <time>2025-04-27T09:57:07Z</time>
      </trkpt>
      <trkpt lat="43.074194965884089" lon="-1.451189992949367">
        <ele>642.29999999999995</ele>
        <time>2025-04-27T09:57:08Z</time>
      </trkpt>
      <trkpt lat="43.073793975636363" lon="-1.45130499266088">
        <ele>644.22000000000003</ele>
        <time>2025-04-27T09:57:11Z</time>
      </trkpt>
      <trkpt lat="43.07370001450181" lon="-1.451399959623814">
        <ele>644.70000000000005</ele>
        <time>2025-04-27T09:57:12Z</time>
      </trkpt>
      <trkpt lat="43.073628013953567" lon="-1.451517976820469">
        <ele>645.17999999999995</ele>
        <time>2025-04-27T09:57:13Z</time>
      </trkpt>
      <trkpt lat="43.073574034497142" lon="-1.451654015108943">
        <ele>646.13999999999999</ele>
        <time>2025-04-27T09:57:14Z</time>
      </trkpt>
      <trkpt lat="43.073514020070434" lon="-1.451802961528301">
        <ele>646.62</ele>
        <time>2025-04-27T09:57:15Z</time>
      </trkpt>
      <trkpt lat="43.073287038132548" lon="-1.452257009223104">
        <ele>649.50999999999999</ele>
        <time>2025-04-27T09:57:18Z</time>
      </trkpt>
      <trkpt lat="43.073191987350583" lon="-1.452389024198055">
        <ele>650.95000000000005</ele>
        <time>2025-04-27T09:57:19Z</time>
      </trkpt>
      <trkpt lat="43.072436023503542" lon="-1.453264011070132">
        <ele>659.12</ele>
        <time>2025-04-27T09:57:26Z</time>
      </trkpt>
      <trkpt lat="43.072028998285532" lon="-1.453499961644411">
        <ele>662.49000000000001</ele>
        <time>2025-04-27T09:57:29Z</time>
      </trkpt>
      <trkpt lat="43.071510996669531" lon="-1.453628959134221">
        <ele>668.25</ele>
        <time>2025-04-27T09:57:33Z</time>
      </trkpt>
      <trkpt lat="43.071374036371708" lon="-1.453628959134221">
        <ele>670.17999999999995</ele>
        <time>2025-04-27T09:57:34Z</time>
      </trkpt>
      <trkpt lat="43.070877995342016" lon="-1.453573973849416">
        <ele>676.90999999999997</ele>
        <time>2025-04-27T09:57:38Z</time>
      </trkpt>
      <trkpt lat="43.070776993408799" lon="-1.453509014099836">
        <ele>678.35000000000002</ele>
        <time>2025-04-27T09:57:39Z</time>
      </trkpt>
      <trkpt lat="43.070678003132343" lon="-1.453430978581309">
        <ele>679.30999999999995</ele>
        <time>2025-04-27T09:57:40Z</time>
      </trkpt>
      <trkpt lat="43.070610025897622" lon="-1.453339029103518">
        <ele>680.26999999999998</ele>
        <time>2025-04-27T09:57:41Z</time>
      </trkpt>
      <trkpt lat="43.070544982329011" lon="-1.453230986371636">
        <ele>681.23000000000002</ele>
        <time>2025-04-27T09:57:42Z</time>
      </trkpt>
      <trkpt lat="43.070517992600799" lon="-1.453111041337252">
        <ele>682.19000000000005</ele>
        <time>2025-04-27T09:57:43Z</time>
      </trkpt>
      <trkpt lat="43.070502988994122" lon="-1.452952958643436">
        <ele>682.66999999999996</ele>
        <time>2025-04-27T09:57:44Z</time>
      </trkpt>
      <trkpt lat="43.070485973730683" lon="-1.452781967818737">
        <ele>683.14999999999998</ele>
        <time>2025-04-27T09:57:45Z</time>
      </trkpt>
      <trkpt lat="43.070468958467245" lon="-1.452606031671166">
        <ele>683.63</ele>
        <time>2025-04-27T09:57:46Z</time>
      </trkpt>
      <trkpt lat="43.070423025637865" lon="-1.452262038365006">
        <ele>684.60000000000002</ele>
        <time>2025-04-27T09:57:48Z</time>
      </trkpt>
      <trkpt lat="43.070373991504312" lon="-1.452102027833462">
        <ele>684.60000000000002</ele>
        <time>2025-04-27T09:57:49Z</time>
      </trkpt>
      <trkpt lat="43.070312971249223" lon="-1.451956015080214">
        <ele>685.08000000000004</ele>
        <time>2025-04-27T09:57:50Z</time>
      </trkpt>
      <trkpt lat="43.07024197652936" lon="-1.451816037297249">
        <ele>685.08000000000004</ele>
        <time>2025-04-27T09:57:51Z</time>
      </trkpt>
      <trkpt lat="43.070147009566426" lon="-1.451703971251845">
        <ele>685.08000000000004</ele>
        <time>2025-04-27T09:57:52Z</time>
      </trkpt>
      <trkpt lat="43.070046007633209" lon="-1.451602969318628">
        <ele>685.55999999999995</ele>
        <time>2025-04-27T09:57:53Z</time>
      </trkpt>
      <trkpt lat="43.069937964901328" lon="-1.451531974598765">
        <ele>685.55999999999995</ele>
        <time>2025-04-27T09:57:54Z</time>
      </trkpt>
      <trkpt lat="43.069825982674956" lon="-1.451500039547682">
        <ele>685.55999999999995</ele>
        <time>2025-04-27T09:57:55Z</time>
      </trkpt>
      <trkpt lat="43.069712994620204" lon="-1.451468020677567">
        <ele>686.03999999999996</ele>
        <time>2025-04-27T09:57:56Z</time>
      </trkpt>
      <trkpt lat="43.069591037929058" lon="-1.451499033719301">
        <ele>686.51999999999998</ele>
        <time>2025-04-27T09:57:57Z</time>
      </trkpt>
      <trkpt lat="43.069475032389164" lon="-1.451543960720301">
        <ele>687</ele>
        <time>2025-04-27T09:57:58Z</time>
      </trkpt>
      <trkpt lat="43.069361038506031" lon="-1.451587965711951">
        <ele>687.48000000000002</ele>
        <time>2025-04-27T09:57:59Z</time>
      </trkpt>
      <trkpt lat="43.069131961092353" lon="-1.451675975695252">
        <ele>688.91999999999996</ele>
        <time>2025-04-27T09:58:01Z</time>
      </trkpt>
      <trkpt lat="43.068902967497706" lon="-1.45169198513031">
        <ele>690.36000000000001</ele>
        <time>2025-04-27T09:58:03Z</time>
      </trkpt>
      <trkpt lat="43.068784028291702" lon="-1.451701037585735">
        <ele>690.84000000000003</ele>
        <time>2025-04-27T09:58:04Z</time>
      </trkpt>
      <trkpt lat="43.068241970613599" lon="-1.451702965423465">
        <ele>694.21000000000004</ele>
        <time>2025-04-27T09:58:09Z</time>
      </trkpt>
      <trkpt lat="43.068149015307426" lon="-1.451698020100594">
        <ele>694.69000000000005</ele>
        <time>2025-04-27T09:58:10Z</time>
      </trkpt>
      <trkpt lat="43.068080032244325" lon="-1.451657032594085">
        <ele>695.16999999999996</ele>
        <time>2025-04-27T09:58:11Z</time>
      </trkpt>
      <trkpt lat="43.068012977018952" lon="-1.451615039259195">
        <ele>695.64999999999998</ele>
        <time>2025-04-27T09:58:12Z</time>
      </trkpt>
      <trkpt lat="43.067964026704431" lon="-1.45149601623416">
        <ele>696.13</ele>
        <time>2025-04-27T09:58:13Z</time>
      </trkpt>
      <trkpt lat="43.067953968420625" lon="-1.451360983774066">
        <ele>697.09000000000003</ele>
        <time>2025-04-27T09:58:14Z</time>
      </trkpt>
      <trkpt lat="43.067976012825966" lon="-1.451223017647862">
        <ele>697.57000000000005</ele>
        <time>2025-04-27T09:58:15Z</time>
      </trkpt>
      <trkpt lat="43.067998979240656" lon="-1.451073987409473">
        <ele>698.04999999999995</ele>
        <time>2025-04-27T09:58:16Z</time>
      </trkpt>
      <trkpt lat="43.068051030859351" lon="-1.450747009366751">
        <ele>699.5</ele>
        <time>2025-04-27T09:58:18Z</time>
      </trkpt>
      <trkpt lat="43.068077014759183" lon="-1.450579036027193">
        <ele>699.5</ele>
        <time>2025-04-27T09:58:19Z</time>
      </trkpt>
      <trkpt lat="43.068098975345492" lon="-1.450243005529046">
        <ele>700.46000000000004</ele>
        <time>2025-04-27T09:58:21Z</time>
      </trkpt>
      <trkpt lat="43.068015994504094" lon="-1.448943978175521">
        <ele>703.82000000000005</ele>
        <time>2025-04-27T09:58:29Z</time>
      </trkpt>
      <trkpt lat="43.067966960370541" lon="-1.448779022321105">
        <ele>703.82000000000005</ele>
        <time>2025-04-27T09:58:30Z</time>
      </trkpt>
      <trkpt lat="43.06792002171278" lon="-1.448624040931463">
        <ele>704.29999999999995</ele>
        <time>2025-04-27T09:58:31Z</time>
      </trkpt>
      <trkpt lat="43.067872999235988" lon="-1.448467969894409">
        <ele>704.29999999999995</ele>
        <time>2025-04-27T09:58:32Z</time>
      </trkpt>
      <trkpt lat="43.06781399063766" lon="-1.448330003768206">
        <ele>705.25999999999999</ele>
        <time>2025-04-27T09:58:33Z</time>
      </trkpt>
      <trkpt lat="43.067730003967881" lon="-1.448213998228312">
        <ele>705.25999999999999</ele>
        <time>2025-04-27T09:58:34Z</time>
      </trkpt>
      <trkpt lat="43.067649034783244" lon="-1.44810201600194">
        <ele>705.75</ele>
        <time>2025-04-27T09:58:35Z</time>
      </trkpt>
      <trkpt lat="43.067567981779575" lon="-1.447991961613298">
        <ele>706.23000000000002</ele>
        <time>2025-04-27T09:58:36Z</time>
      </trkpt>
      <trkpt lat="43.067391039803624" lon="-1.44778098911047">
        <ele>707.19000000000005</ele>
        <time>2025-04-27T09:58:38Z</time>
      </trkpt>
      <trkpt lat="43.066407004371285" lon="-1.446716990321875">
        <ele>710.54999999999995</ele>
        <time>2025-04-27T09:58:47Z</time>
      </trkpt>
      <trkpt lat="43.066120008006692" lon="-1.446436028927565">
        <ele>711.99000000000001</ele>
        <time>2025-04-27T09:58:50Z</time>
      </trkpt>
      <trkpt lat="43.066023029386997" lon="-1.446396969258785">
        <ele>711.99000000000001</ele>
        <time>2025-04-27T09:58:51Z</time>
      </trkpt>
      <trkpt lat="43.065923033282161" lon="-1.446396969258785">
        <ele>712.95000000000005</ele>
        <time>2025-04-27T09:58:52Z</time>
      </trkpt>
      <trkpt lat="43.065832005813718" lon="-1.446423958986998">
        <ele>713.44000000000005</ele>
        <time>2025-04-27T09:58:53Z</time>
      </trkpt>
      <trkpt lat="43.065739972516894" lon="-1.446486990898848">
        <ele>713.91999999999996</ele>
        <time>2025-04-27T09:58:54Z</time>
      </trkpt>
      <trkpt lat="43.0656429938972" lon="-1.446553962305188">
        <ele>714.39999999999998</ele>
        <time>2025-04-27T09:58:55Z</time>
      </trkpt>
      <trkpt lat="43.065550038591027" lon="-1.446653958410025">
        <ele>714.88</ele>
        <time>2025-04-27T09:58:56Z</time>
      </trkpt>
      <trkpt lat="43.06547099724412" lon="-1.446773987263441">
        <ele>715.36000000000001</ele>
        <time>2025-04-27T09:58:57Z</time>
      </trkpt>
      <trkpt lat="43.065390028059483" lon="-1.446897033601999">
        <ele>715.84000000000003</ele>
        <time>2025-04-27T09:58:58Z</time>
      </trkpt>
      <trkpt lat="43.064860962331295" lon="-1.447793981060386">
        <ele>719.67999999999995</ele>
        <time>2025-04-27T09:59:05Z</time>
      </trkpt>
      <trkpt lat="43.064595004543662" lon="-1.448364034295082">
        <ele>721.13</ele>
        <time>2025-04-27T09:59:09Z</time>
      </trkpt>
      <trkpt lat="43.064510012045503" lon="-1.448478028178215">
        <ele>721.61000000000001</ele>
        <time>2025-04-27T09:59:10Z</time>
      </trkpt>
      <trkpt lat="43.064408004283905" lon="-1.448562014847994">
        <ele>722.09000000000003</ele>
        <time>2025-04-27T09:59:11Z</time>
      </trkpt>
      <trkpt lat="43.063632007688284" lon="-1.449136007577181">
        <ele>725.45000000000005</ele>
        <time>2025-04-27T09:59:20Z</time>
      </trkpt>
      <trkpt lat="43.063553972169757" lon="-1.449127038940787">
        <ele>725.45000000000005</ele>
        <time>2025-04-27T09:59:21Z</time>
      </trkpt>
      <trkpt lat="43.063507033511996" lon="-1.449116980656982">
        <ele>725.92999999999995</ele>
        <time>2025-04-27T09:59:22Z</time>
      </trkpt>
      <trkpt lat="43.063454981893301" lon="-1.449029976502061">
        <ele>726.88999999999999</ele>
        <time>2025-04-27T09:59:23Z</time>
      </trkpt>
      <trkpt lat="43.063396979123354" lon="-1.448935009539127">
        <ele>727.37</ele>
        <time>2025-04-27T09:59:24Z</time>
      </trkpt>
      <trkpt lat="43.063336964696646" lon="-1.448835013434291">
        <ele>727.86000000000001</ele>
        <time>2025-04-27T09:59:25Z</time>
      </trkpt>
      <trkpt lat="43.063317015767097" lon="-1.448800982907414">
        <ele>728.82000000000005</ele>
        <time>2025-04-27T09:59:26Z</time>
      </trkpt>
      <trkpt lat="43.063154993578792" lon="-1.44872697070241">
        <ele>728.82000000000005</ele>
        <time>2025-04-27T09:59:27Z</time>
      </trkpt>
      <trkpt lat="43.063080981373787" lon="-1.448693023994565">
        <ele>729.29999999999995</ele>
        <time>2025-04-27T09:59:28Z</time>
      </trkpt>
      <trkpt lat="43.062974028289318" lon="-1.448710039258003">
        <ele>729.77999999999997</ele>
        <time>2025-04-27T09:59:29Z</time>
      </trkpt>
      <trkpt lat="43.062877971678972" lon="-1.4487240370363">
        <ele>729.77999999999997</ele>
        <time>2025-04-27T09:59:30Z</time>
      </trkpt>
      <trkpt lat="43.062776969745755" lon="-1.448739962652326">
        <ele>730.25999999999999</ele>
        <time>2025-04-27T09:59:31Z</time>
      </trkpt>
      <trkpt lat="43.062677979469299" lon="-1.448754966259003">
        <ele>731.22000000000003</ele>
        <time>2025-04-27T09:59:32Z</time>
      </trkpt>
      <trkpt lat="43.062578989192843" lon="-1.44876996986568">
        <ele>732.17999999999995</ele>
        <time>2025-04-27T09:59:33Z</time>
      </trkpt>
      <trkpt lat="43.062389977276325" lon="-1.448854962363839">
        <ele>733.62</ele>
        <time>2025-04-27T09:59:35Z</time>
      </trkpt>
      <trkpt lat="43.062300039455295" lon="-1.448906008154154">
        <ele>734.10000000000002</ele>
        <time>2025-04-27T09:59:36Z</time>
      </trkpt>
      <trkpt lat="43.062223009765148" lon="-1.448951018974185">
        <ele>734.58000000000004</ele>
        <time>2025-04-27T09:59:37Z</time>
      </trkpt>
      <trkpt lat="43.062159977853298" lon="-1.44906903617084">
        <ele>735.54999999999995</ele>
        <time>2025-04-27T09:59:38Z</time>
      </trkpt>
      <trkpt lat="43.062099041417241" lon="-1.449185041710734">
        <ele>736.02999999999997</ele>
        <time>2025-04-27T09:59:39Z</time>
      </trkpt>
      <trkpt lat="43.062039026990533" lon="-1.449300041422248">
        <ele>736.50999999999999</ele>
        <time>2025-04-27T09:59:40Z</time>
      </trkpt>
      <trkpt lat="43.061986975371838" lon="-1.449423003941774">
        <ele>736.99000000000001</ele>
        <time>2025-04-27T09:59:41Z</time>
      </trkpt>
      <trkpt lat="43.061940958723426" lon="-1.449559964239597">
        <ele>736.99000000000001</ele>
        <time>2025-04-27T09:59:42Z</time>
      </trkpt>
      <trkpt lat="43.061365960165858" lon="-1.45089503377676">
        <ele>740.83000000000004</ele>
        <time>2025-04-27T09:59:52Z</time>
      </trkpt>
      <trkpt lat="43.061248026788235" lon="-1.451135007664561">
        <ele>741.30999999999995</ele>
        <time>2025-04-27T09:59:54Z</time>
      </trkpt>
      <trkpt lat="43.061207039281726" lon="-1.451265010982752">
        <ele>741.30999999999995</ele>
        <time>2025-04-27T09:59:55Z</time>
      </trkpt>
      <trkpt lat="43.061170997098088" lon="-1.451393002644181">
        <ele>741.78999999999996</ele>
        <time>2025-04-27T09:59:56Z</time>
      </trkpt>
      <trkpt lat="43.061050968244672" lon="-1.451822994276881">
        <ele>743.72000000000003</ele>
        <time>2025-04-27T10:00:00Z</time>
      </trkpt>
      <trkpt lat="43.061026996001601" lon="-1.451909998431802">
        <ele>744.20000000000005</ele>
        <time>2025-04-27T10:00:01Z</time>
      </trkpt>
      <trkpt lat="43.060977039858699" lon="-1.451966995373368">
        <ele>744.67999999999995</ele>
        <time>2025-04-27T10:00:02Z</time>
      </trkpt>
      <trkpt lat="43.060921970754862" lon="-1.452009994536638">
        <ele>745.15999999999997</ele>
        <time>2025-04-27T10:00:03Z</time>
      </trkpt>
      <trkpt lat="43.060862040147185" lon="-1.452057017013431">
        <ele>746.12</ele>
        <time>2025-04-27T10:00:04Z</time>
      </trkpt>
      <trkpt lat="43.060802025720477" lon="-1.452104039490223">
        <ele>746.60000000000002</ele>
        <time>2025-04-27T10:00:05Z</time>
      </trkpt>
      <trkpt lat="43.060746034607291" lon="-1.452147038653493">
        <ele>747.08000000000004</ele>
        <time>2025-04-27T10:00:06Z</time>
      </trkpt>
      <trkpt lat="43.060695994645357" lon="-1.452186014503241">
        <ele>748.03999999999996</ele>
        <time>2025-04-27T10:00:07Z</time>
      </trkpt>
      <trkpt lat="43.060652995482087" lon="-1.452219039201737">
        <ele>748.51999999999998</ele>
        <time>2025-04-27T10:00:08Z</time>
      </trkpt>
      <trkpt lat="43.060569008812308" lon="-1.452364968135953">
        <ele>749.97000000000003</ele>
        <time>2025-04-27T10:00:11Z</time>
      </trkpt>
      <trkpt lat="43.060539001598954" lon="-1.452424982562661">
        <ele>750.92999999999995</ele>
        <time>2025-04-27T10:00:12Z</time>
      </trkpt>
      <trkpt lat="43.060522992163897" lon="-1.452483991160989">
        <ele>751.40999999999997</ele>
        <time>2025-04-27T10:00:13Z</time>
      </trkpt>
      <trkpt lat="43.060488039627671" lon="-1.452771993353963">
        <ele>754.76999999999998</ele>
        <time>2025-04-27T10:00:21Z</time>
      </trkpt>
      <trkpt lat="43.060488039627671" lon="-1.452771993353963">
        <ele>754.76999999999998</ele>
        <time>2025-04-27T10:00:50Z</time>
      </trkpt>
      <trkpt lat="43.060488039627671" lon="-1.452771993353963">
        <ele>754.76999999999998</ele>
        <time>2025-04-27T10:01:39Z</time>
      </trkpt>
      <trkpt lat="43.060488039627671" lon="-1.452771993353963">
        <ele>755.73000000000002</ele>
        <time>2025-04-27T10:02:12Z</time>
      </trkpt>
      <trkpt lat="43.060449985787272" lon="-1.453090002760291">
        <ele>754.76999999999998</ele>
        <time>2025-04-27T10:02:30Z</time>
      </trkpt>
      <trkpt lat="43.060442022979259" lon="-1.453604986891151">
        <ele>755.25</ele>
        <time>2025-04-27T10:02:36Z</time>
      </trkpt>
      <trkpt lat="43.060442022979259" lon="-1.453678999096155">
        <ele>755.25</ele>
        <time>2025-04-27T10:02:37Z</time>
      </trkpt>
      <trkpt lat="43.060412015765905" lon="-1.454189037904143">
        <ele>756.69000000000005</ele>
        <time>2025-04-27T10:02:46Z</time>
      </trkpt>
      <trkpt lat="43.060347978025675" lon="-1.454288028180599">
        <ele>757.17999999999995</ele>
        <time>2025-04-27T10:02:49Z</time>
      </trkpt>
      <trkpt lat="43.060328029096127" lon="-1.45431200042367">
        <ele>757.17999999999995</ele>
        <time>2025-04-27T10:02:50Z</time>
      </trkpt>
      <trkpt lat="43.06031302548945" lon="-1.454330021515489">
        <ele>757.17999999999995</ele>
        <time>2025-04-27T10:02:51Z</time>
      </trkpt>
      <trkpt lat="43.060399023815989" lon="-1.454229019582272">
        <ele>757.17999999999995</ele>
        <time>2025-04-27T10:02:52Z</time>
      </trkpt>
      <trkpt lat="43.060399023815989" lon="-1.454229019582272">
        <ele>757.17999999999995</ele>
        <time>2025-04-27T10:02:53Z</time>
      </trkpt>
      <trkpt lat="43.060399023815989" lon="-1.454229019582272">
        <ele>757.17999999999995</ele>
        <time>2025-04-27T10:02:54Z</time>
      </trkpt>
      <trkpt lat="43.060402041301131" lon="-1.454218039289117">
        <ele>757.17999999999995</ele>
        <time>2025-04-27T10:02:55Z</time>
      </trkpt>
      <trkpt lat="43.060442022979259" lon="-1.454101027920842">
        <ele>757.17999999999995</ele>
        <time>2025-04-27T10:02:56Z</time>
      </trkpt>
      <trkpt lat="43.060442022979259" lon="-1.454101027920842">
        <ele>757.17999999999995</ele>
        <time>2025-04-27T10:03:08Z</time>
      </trkpt>
      <trkpt lat="43.060202971100807" lon="-1.454002959653735">
        <ele>758.62</ele>
        <time>2025-04-27T10:15:34Z</time>
      </trkpt>
      <trkpt lat="43.060282012447715" lon="-1.45401100628078">
        <ele>760.05999999999995</ele>
        <time>2025-04-27T10:15:58Z</time>
      </trkpt>
      <trkpt lat="43.060239013284445" lon="-1.454046964645386">
        <ele>757.17999999999995</ele>
        <time>2025-04-27T10:16:43Z</time>
      </trkpt>
      <trkpt lat="43.060221998021007" lon="-1.454066997393966">
        <ele>757.17999999999995</ele>
        <time>2025-04-27T10:17:25Z</time>
      </trkpt>
      <trkpt lat="43.060427019372582" lon="-1.454146038740873">
        <ele>759.58000000000004</ele>
        <time>2025-04-27T10:17:46Z</time>
      </trkpt>
      <trkpt lat="43.060439005494118" lon="-1.454109996557236">
        <ele>760.05999999999995</ele>
        <time>2025-04-27T10:17:47Z</time>
      </trkpt>
      <trkpt lat="43.060442022979259" lon="-1.454101027920842">
        <ele>760.05999999999995</ele>
        <time>2025-04-27T10:17:48Z</time>
      </trkpt>
      <trkpt lat="43.060442022979259" lon="-1.454101027920842">
        <ele>760.05999999999995</ele>
        <time>2025-04-27T10:17:49Z</time>
      </trkpt>
      <trkpt lat="43.060442022979259" lon="-1.454101027920842">
        <ele>760.05999999999995</ele>
        <time>2025-04-27T10:17:50Z</time>
      </trkpt>
      <trkpt lat="43.060399023815989" lon="-1.454229019582272">
        <ele>760.05999999999995</ele>
        <time>2025-04-27T10:17:51Z</time>
      </trkpt>
      <trkpt lat="43.060442022979259" lon="-1.454006982967258">
        <ele>759.58000000000004</ele>
        <time>2025-04-27T10:17:52Z</time>
      </trkpt>
      <trkpt lat="43.060442022979259" lon="-1.454006982967258">
        <ele>759.58000000000004</ele>
        <time>2025-04-27T10:17:53Z</time>
      </trkpt>
      <trkpt lat="43.060442022979259" lon="-1.454039001837373">
        <ele>758.62</ele>
        <time>2025-04-27T10:17:54Z</time>
      </trkpt>
      <trkpt lat="43.060442022979259" lon="-1.454069009050727">
        <ele>758.13999999999999</ele>
        <time>2025-04-27T10:17:55Z</time>
      </trkpt>
      <trkpt lat="43.060204982757568" lon="-1.454454995691776">
        <ele>754.28999999999996</ele>
        <time>2025-04-27T10:18:06Z</time>
      </trkpt>
      <trkpt lat="43.060161983594298" lon="-1.45450503565371">
        <ele>753.80999999999995</ele>
        <time>2025-04-27T10:18:07Z</time>
      </trkpt>
      <trkpt lat="43.060115966945887" lon="-1.454604025930166">
        <ele>753.33000000000004</ele>
        <time>2025-04-27T10:18:08Z</time>
      </trkpt>
      <trkpt lat="43.060088977217674" lon="-1.454684995114803">
        <ele>752.85000000000002</ele>
        <time>2025-04-27T10:18:09Z</time>
      </trkpt>
      <trkpt lat="43.060060981661081" lon="-1.454768981784582">
        <ele>752.85000000000002</ele>
        <time>2025-04-27T10:18:10Z</time>
      </trkpt>
      <trkpt lat="43.060031980276108" lon="-1.454857997596264">
        <ele>752.85000000000002</ele>
        <time>2025-04-27T10:18:11Z</time>
      </trkpt>
      <trkpt lat="43.059999961405993" lon="-1.454953970387578">
        <ele>753.33000000000004</ele>
        <time>2025-04-27T10:18:12Z</time>
      </trkpt>
      <trkpt lat="43.059937013313174" lon="-1.455140970647335">
        <ele>753.80999999999995</ele>
        <time>2025-04-27T10:18:14Z</time>
      </trkpt>
      <trkpt lat="43.0599270388484" lon="-1.455173995345831">
        <ele>754.28999999999996</ele>
        <time>2025-04-27T10:18:15Z</time>
      </trkpt>
      <trkpt lat="43.05988697335124" lon="-1.455205008387566">
        <ele>754.76999999999998</ele>
        <time>2025-04-27T10:18:16Z</time>
      </trkpt>
      <trkpt lat="43.059850009158254" lon="-1.4552360214293">
        <ele>755.25</ele>
        <time>2025-04-27T10:18:17Z</time>
      </trkpt>
      <trkpt lat="43.059807009994984" lon="-1.455270973965526">
        <ele>755.73000000000002</ele>
        <time>2025-04-27T10:18:18Z</time>
      </trkpt>
      <trkpt lat="43.059750013053417" lon="-1.455317996442318">
        <ele>755.73000000000002</ele>
        <time>2025-04-27T10:18:19Z</time>
      </trkpt>
      <trkpt lat="43.059626966714859" lon="-1.455418998375535">
        <ele>757.17999999999995</ele>
        <time>2025-04-27T10:18:21Z</time>
      </trkpt>
      <trkpt lat="43.059556977823377" lon="-1.455475995317102">
        <ele>757.17999999999995</ele>
        <time>2025-04-27T10:18:22Z</time>
      </trkpt>
      <trkpt lat="43.059481959789991" lon="-1.45553701557219">
        <ele>757.65999999999997</ele>
        <time>2025-04-27T10:18:23Z</time>
      </trkpt>
      <trkpt lat="43.059409037232399" lon="-1.455652015283704">
        <ele>757.65999999999997</ele>
        <time>2025-04-27T10:18:24Z</time>
      </trkpt>
      <trkpt lat="43.059352962300181" lon="-1.455761985853314">
        <ele>758.13999999999999</ele>
        <time>2025-04-27T10:18:25Z</time>
      </trkpt>
      <trkpt lat="43.059295965358615" lon="-1.455876985564828">
        <ele>758.13999999999999</ele>
        <time>2025-04-27T10:18:26Z</time>
      </trkpt>
      <trkpt lat="43.059259001165628" lon="-1.456012018024921">
        <ele>758.62</ele>
        <time>2025-04-27T10:18:27Z</time>
      </trkpt>
      <trkpt lat="43.059254977852106" lon="-1.456145960837603">
        <ele>759.10000000000002</ele>
        <time>2025-04-27T10:18:28Z</time>
      </trkpt>
      <trkpt lat="43.05924198590219" lon="-1.456595985218883">
        <ele>760.53999999999996</ele>
        <time>2025-04-27T10:18:31Z</time>
      </trkpt>
      <trkpt lat="43.059384981170297" lon="-1.457765009254217">
        <ele>763.89999999999998</ele>
        <time>2025-04-27T10:18:38Z</time>
      </trkpt>
      <trkpt lat="43.059406019747257" lon="-1.457925019785762">
        <ele>764.87</ele>
        <time>2025-04-27T10:18:39Z</time>
      </trkpt>
      <trkpt lat="43.059389004483819" lon="-1.458062985911965">
        <ele>765.35000000000002</ele>
        <time>2025-04-27T10:18:40Z</time>
      </trkpt>
      <trkpt lat="43.059353968128562" lon="-1.458185026422143">
        <ele>766.30999999999995</ele>
        <time>2025-04-27T10:18:41Z</time>
      </trkpt>
      <trkpt lat="43.059292025864124" lon="-1.458300026133657">
        <ele>766.78999999999996</ele>
        <time>2025-04-27T10:18:42Z</time>
      </trkpt>
      <trkpt lat="43.059207033365965" lon="-1.458400022238493">
        <ele>767.75</ele>
        <time>2025-04-27T10:18:43Z</time>
      </trkpt>
      <trkpt lat="43.058305978775024" lon="-1.45946997217834">
        <ele>775.91999999999996</ele>
        <time>2025-04-27T10:18:53Z</time>
      </trkpt>
      <trkpt lat="43.058204976841807" lon="-1.459564017131925">
        <ele>776.39999999999998</ele>
        <time>2025-04-27T10:18:54Z</time>
      </trkpt>
      <trkpt lat="43.0581000354141" lon="-1.459646997973323">
        <ele>777.36000000000001</ele>
        <time>2025-04-27T10:18:55Z</time>
      </trkpt>
      <trkpt lat="43.05799501016736" lon="-1.459686979651451">
        <ele>778.32000000000005</ele>
        <time>2025-04-27T10:18:56Z</time>
      </trkpt>
      <trkpt lat="43.057764004915953" lon="-1.459714975208044">
        <ele>779.28999999999996</ele>
        <time>2025-04-27T10:18:58Z</time>
      </trkpt>
      <trkpt lat="43.057653028517962" lon="-1.45972796715796">
        <ele>780.25</ele>
        <time>2025-04-27T10:18:59Z</time>
      </trkpt>
      <trkpt lat="43.057425040751696" lon="-1.45972796715796">
        <ele>781.69000000000005</ele>
        <time>2025-04-27T10:19:01Z</time>
      </trkpt>
      <trkpt lat="43.05730601772666" lon="-1.459708018228412">
        <ele>782.64999999999998</ele>
        <time>2025-04-27T10:19:02Z</time>
      </trkpt>
      <trkpt lat="43.057195963338017" lon="-1.459660995751619">
        <ele>783.13</ele>
        <time>2025-04-27T10:19:03Z</time>
      </trkpt>
      <trkpt lat="43.057081969454885" lon="-1.45959603600204">
        <ele>784.09000000000003</ele>
        <time>2025-04-27T10:19:04Z</time>
      </trkpt>
      <trkpt lat="43.056966969743371" lon="-1.459529986605048">
        <ele>785.04999999999995</ele>
        <time>2025-04-27T10:19:05Z</time>
      </trkpt>
      <trkpt lat="43.056849958375096" lon="-1.459464021027088">
        <ele>785.52999999999997</ele>
        <time>2025-04-27T10:19:06Z</time>
      </trkpt>
      <trkpt lat="43.056739987805486" lon="-1.459400989115238">
        <ele>786.5</ele>
        <time>2025-04-27T10:19:07Z</time>
      </trkpt>
      <trkpt lat="43.056635968387127" lon="-1.459351032972336">
        <ele>787.46000000000004</ele>
        <time>2025-04-27T10:19:08Z</time>
      </trkpt>
      <trkpt lat="43.056530021131039" lon="-1.459323959425092">
        <ele>787.94000000000005</ele>
        <time>2025-04-27T10:19:09Z</time>
      </trkpt>
      <trkpt lat="43.056422984227538" lon="-1.459342986345291">
        <ele>788.41999999999996</ele>
        <time>2025-04-27T10:19:10Z</time>
      </trkpt>
      <trkpt lat="43.056318964809179" lon="-1.459384979680181">
        <ele>789.38</ele>
        <time>2025-04-27T10:19:11Z</time>
      </trkpt>
      <trkpt lat="43.056229026988149" lon="-1.459450023248792">
        <ele>790.34000000000003</ele>
        <time>2025-04-27T10:19:12Z</time>
      </trkpt>
      <trkpt lat="43.056141017004848" lon="-1.459548007696867">
        <ele>790.82000000000005</ele>
        <time>2025-04-27T10:19:13Z</time>
      </trkpt>
      <trkpt lat="43.056074967607856" lon="-1.459688991308212">
        <ele>791.77999999999997</ele>
        <time>2025-04-27T10:19:14Z</time>
      </trkpt>
      <trkpt lat="43.056012019515038" lon="-1.459825029596686">
        <ele>792.74000000000001</ele>
        <time>2025-04-27T10:19:15Z</time>
      </trkpt>
      <trkpt lat="43.055947981774807" lon="-1.459959978237748">
        <ele>793.22000000000003</ele>
        <time>2025-04-27T10:19:16Z</time>
      </trkpt>
      <trkpt lat="43.055828036740422" lon="-1.460215961560607">
        <ele>793.71000000000004</ele>
        <time>2025-04-27T10:19:18Z</time>
      </trkpt>
      <trkpt lat="43.055780008435249" lon="-1.460419977083802">
        <ele>794.19000000000005</ele>
        <time>2025-04-27T10:19:19Z</time>
      </trkpt>
      <trkpt lat="43.05573801510036" lon="-1.460592979565263">
        <ele>794.19000000000005</ele>
        <time>2025-04-27T10:19:20Z</time>
      </trkpt>
      <trkpt lat="43.05573801510036" lon="-1.460961028933525">
        <ele>794.19000000000005</ele>
        <time>2025-04-27T10:19:22Z</time>
      </trkpt>
      <trkpt lat="43.055750001221895" lon="-1.461160015314817">
        <ele>793.71000000000004</ele>
        <time>2025-04-27T10:19:23Z</time>
      </trkpt>
      <trkpt lat="43.055763999000192" lon="-1.4613819681108">
        <ele>793.22000000000003</ele>
        <time>2025-04-27T10:19:24Z</time>
      </trkpt>
      <trkpt lat="43.055789982900023" lon="-1.461817994713783">
        <ele>791.77999999999997</ele>
        <time>2025-04-27T10:19:26Z</time>
      </trkpt>
      <trkpt lat="43.055802974849939" lon="-1.462038019672036">
        <ele>790.82000000000005</ele>
        <time>2025-04-27T10:19:27Z</time>
      </trkpt>
      <trkpt lat="43.055841028690338" lon="-1.462878976017237">
        <ele>788.89999999999998</ele>
        <time>2025-04-27T10:19:31Z</time>
      </trkpt>
      <trkpt lat="43.055817978456616" lon="-1.463062958791852">
        <ele>788.89999999999998</ele>
        <time>2025-04-27T10:19:32Z</time>
      </trkpt>
      <trkpt lat="43.055783025920391" lon="-1.4632089715451">
        <ele>788.89999999999998</ele>
        <time>2025-04-27T10:19:33Z</time>
      </trkpt>
      <trkpt lat="43.05571798235178" lon="-1.463350960984826">
        <ele>788.89999999999998</ele>
        <time>2025-04-27T10:19:34Z</time>
      </trkpt>
      <trkpt lat="43.05563198402524" lon="-1.463477024808526">
        <ele>788.89999999999998</ele>
        <time>2025-04-27T10:19:35Z</time>
      </trkpt>
      <trkpt lat="43.055435009300709" lon="-1.463725967332721">
        <ele>788.89999999999998</ele>
        <time>2025-04-27T10:19:37Z</time>
      </trkpt>
      <trkpt lat="43.055344987660646" lon="-1.463821018114686">
        <ele>788.41999999999996</ele>
        <time>2025-04-27T10:19:38Z</time>
      </trkpt>
      <trkpt lat="43.054933017119765" lon="-1.463823029771447">
        <ele>788.41999999999996</ele>
        <time>2025-04-27T10:19:42Z</time>
      </trkpt>
      <trkpt lat="43.054715003818274" lon="-1.463778018951416">
        <ele>788.41999999999996</ele>
        <time>2025-04-27T10:19:44Z</time>
      </trkpt>
      <trkpt lat="43.054611990228295" lon="-1.463778018951416">
        <ele>788.41999999999996</ele>
        <time>2025-04-27T10:19:45Z</time>
      </trkpt>
      <trkpt lat="43.054531021043658" lon="-1.463834010064602">
        <ele>788.41999999999996</ele>
        <time>2025-04-27T10:19:46Z</time>
      </trkpt>
      <trkpt lat="43.054451979696751" lon="-1.463917996734381">
        <ele>788.41999999999996</ele>
        <time>2025-04-27T10:19:47Z</time>
      </trkpt>
      <trkpt lat="43.05436204187572" lon="-1.464013969525695">
        <ele>787.94000000000005</ele>
        <time>2025-04-27T10:19:48Z</time>
      </trkpt>
      <trkpt lat="43.0542560108006" lon="-1.464125029742718">
        <ele>787.94000000000005</ele>
        <time>2025-04-27T10:19:49Z</time>
      </trkpt>
      <trkpt lat="43.054130030795932" lon="-1.464212033897638">
        <ele>787.94000000000005</ele>
        <time>2025-04-27T10:19:50Z</time>
      </trkpt>
      <trkpt lat="43.054000027477741" lon="-1.464300965890288">
        <ele>787.94000000000005</ele>
        <time>2025-04-27T10:19:51Z</time>
      </trkpt>
      <trkpt lat="43.053873041644692" lon="-1.464387970045209">
        <ele>787.46000000000004</ele>
        <time>2025-04-27T10:19:52Z</time>
      </trkpt>
      <trkpt lat="43.053634995594621" lon="-1.464552003890276">
        <ele>787.46000000000004</ele>
        <time>2025-04-27T10:19:54Z</time>
      </trkpt>
      <trkpt lat="43.053542040288448" lon="-1.464655017480254">
        <ele>786.98000000000002</ele>
        <time>2025-04-27T10:19:55Z</time>
      </trkpt>
      <trkpt lat="43.053458975628018" lon="-1.464807987213135">
        <ele>786.98000000000002</ele>
        <time>2025-04-27T10:19:56Z</time>
      </trkpt>
      <trkpt lat="43.053377000615001" lon="-1.464961962774396">
        <ele>786.5</ele>
        <time>2025-04-27T10:19:57Z</time>
      </trkpt>
      <trkpt lat="43.053303994238377" lon="-1.465096995234489">
        <ele>786.5</ele>
        <time>2025-04-27T10:19:58Z</time>
      </trkpt>
      <trkpt lat="43.053274992853403" lon="-1.465213000774384">
        <ele>786.01999999999998</ele>
        <time>2025-04-27T10:19:59Z</time>
      </trkpt>
      <trkpt lat="43.053274992853403" lon="-1.465347027406097">
        <ele>785.52999999999997</ele>
        <time>2025-04-27T10:20:00Z</time>
      </trkpt>
      <trkpt lat="43.053307011723518" lon="-1.465488011017442">
        <ele>785.04999999999995</ele>
        <time>2025-04-27T10:20:01Z</time>
      </trkpt>
      <trkpt lat="43.053340958431363" lon="-1.465635029599071">
        <ele>784.57000000000005</ele>
        <time>2025-04-27T10:20:02Z</time>
      </trkpt>
      <trkpt lat="43.053357973694801" lon="-1.465887995436788">
        <ele>784.09000000000003</ele>
        <time>2025-04-27T10:20:04Z</time>
      </trkpt>
      <trkpt lat="43.053317992016673" lon="-1.465961001813412">
        <ele>783.61000000000001</ele>
        <time>2025-04-27T10:20:05Z</time>
      </trkpt>
      <trkpt lat="43.053257977589965" lon="-1.466006012633443">
        <ele>783.13</ele>
        <time>2025-04-27T10:20:06Z</time>
      </trkpt>
      <trkpt lat="43.05318002589047" lon="-1.465980028733611">
        <ele>782.64999999999998</ele>
        <time>2025-04-27T10:20:07Z</time>
      </trkpt>
      <trkpt lat="43.053110959008336" lon="-1.465924037620425">
        <ele>781.69000000000005</ele>
        <time>2025-04-27T10:20:08Z</time>
      </trkpt>
      <trkpt lat="43.053042981773615" lon="-1.465838961303234">
        <ele>781.21000000000004</ele>
        <time>2025-04-27T10:20:09Z</time>
      </trkpt>
      <trkpt lat="43.052972992882133" lon="-1.465752040967345">
        <ele>780.25</ele>
        <time>2025-04-27T10:20:10Z</time>
      </trkpt>
      <trkpt lat="43.052895041182637" lon="-1.465655984356999">
        <ele>779.76999999999998</ele>
        <time>2025-04-27T10:20:11Z</time>
      </trkpt>
      <trkpt lat="43.052809964865446" lon="-1.46555095911026">
        <ele>778.80999999999995</ele>
        <time>2025-04-27T10:20:12Z</time>
      </trkpt>
      <trkpt lat="43.052719021216035" lon="-1.465437971055508">
        <ele>777.84000000000003</ele>
        <time>2025-04-27T10:20:13Z</time>
      </trkpt>
      <trkpt lat="43.05260100401938" lon="-1.465350966900587">
        <ele>776.39999999999998</ele>
        <time>2025-04-27T10:20:14Z</time>
      </trkpt>
      <trkpt lat="43.052156008780003" lon="-1.46507696248591">
        <ele>772.08000000000004</ele>
        <time>2025-04-27T10:20:18Z</time>
      </trkpt>
      <trkpt lat="43.051719982177019" lon="-1.464949976652861">
        <ele>770.14999999999998</ele>
        <time>2025-04-27T10:20:21Z</time>
      </trkpt>
      <trkpt lat="43.051606994122267" lon="-1.464944025501609">
        <ele>768.71000000000004</ele>
        <time>2025-04-27T10:20:23Z</time>
      </trkpt>
      <trkpt lat="43.051500963047147" lon="-1.464938996359706">
        <ele>767.75</ele>
        <time>2025-04-27T10:20:24Z</time>
      </trkpt>
      <trkpt lat="43.051403984427452" lon="-1.464917035773397">
        <ele>767.26999999999998</ele>
        <time>2025-04-27T10:20:25Z</time>
      </trkpt>
      <trkpt lat="43.051300970837474" lon="-1.464872024953365">
        <ele>766.30999999999995</ele>
        <time>2025-04-27T10:20:26Z</time>
      </trkpt>
      <trkpt lat="43.051223019137979" lon="-1.464794995263219">
        <ele>765.35000000000002</ele>
        <time>2025-04-27T10:20:27Z</time>
      </trkpt>
      <trkpt lat="43.051157975569367" lon="-1.46466800943017">
        <ele>764.87</ele>
        <time>2025-04-27T10:20:28Z</time>
      </trkpt>
      <trkpt lat="43.051107013598084" lon="-1.464529037475586">
        <ele>764.38999999999999</ele>
        <time>2025-04-27T10:20:29Z</time>
      </trkpt>
      <trkpt lat="43.051091004163027" lon="-1.464387970045209">
        <ele>764.38999999999999</ele>
        <time>2025-04-27T10:20:30Z</time>
      </trkpt>
      <trkpt lat="43.051072983071208" lon="-1.46423701196909">
        <ele>764.38999999999999</ele>
        <time>2025-04-27T10:20:31Z</time>
      </trkpt>
      <trkpt lat="43.051035013049841" lon="-1.463914979249239">
        <ele>763.89999999999998</ele>
        <time>2025-04-27T10:20:33Z</time>
      </trkpt>
      <trkpt lat="43.051007017493248" lon="-1.463753962889314">
        <ele>763.41999999999996</ele>
        <time>2025-04-27T10:20:34Z</time>
      </trkpt>
      <trkpt lat="43.050899980589747" lon="-1.463412987068296">
        <ele>761.98000000000002</ele>
        <time>2025-04-27T10:20:36Z</time>
      </trkpt>
      <trkpt lat="43.050852036103606" lon="-1.463259011507034">
        <ele>761.5</ele>
        <time>2025-04-27T10:20:37Z</time>
      </trkpt>
      <trkpt lat="43.050806019455194" lon="-1.463112998753786">
        <ele>761.01999999999998</ele>
        <time>2025-04-27T10:20:38Z</time>
      </trkpt>
      <trkpt lat="43.050753967836499" lon="-1.4629499707371">
        <ele>760.53999999999996</ele>
        <time>2025-04-27T10:20:39Z</time>
      </trkpt>
      <trkpt lat="43.050704011693597" lon="-1.462790966033936">
        <ele>760.05999999999995</ele>
        <time>2025-04-27T10:20:40Z</time>
      </trkpt>
      <trkpt lat="43.050656989216805" lon="-1.462641013786197">
        <ele>759.10000000000002</ele>
        <time>2025-04-27T10:20:41Z</time>
      </trkpt>
      <trkpt lat="43.050629999488592" lon="-1.462464993819594">
        <ele>758.62</ele>
        <time>2025-04-27T10:20:42Z</time>
      </trkpt>
      <trkpt lat="43.050516005605459" lon="-1.461727973073721">
        <ele>756.69000000000005</ele>
        <time>2025-04-27T10:20:46Z</time>
      </trkpt>
      <trkpt lat="43.050409974530339" lon="-1.461044009774923">
        <ele>757.17999999999995</ele>
        <time>2025-04-27T10:20:50Z</time>
      </trkpt>
      <trkpt lat="43.05038801394403" lon="-1.460905959829688">
        <ele>757.17999999999995</ele>
        <time>2025-04-27T10:20:51Z</time>
      </trkpt>
      <trkpt lat="43.05019598454237" lon="-1.46058602258563">
        <ele>759.10000000000002</ele>
        <time>2025-04-27T10:20:54Z</time>
      </trkpt>
      <trkpt lat="43.050099005922675" lon="-1.460451995953918">
        <ele>759.58000000000004</ele>
        <time>2025-04-27T10:20:55Z</time>
      </trkpt>
      <trkpt lat="43.050080984830856" lon="-1.460375972092152">
        <ele>760.05999999999995</ele>
        <time>2025-04-27T10:20:56Z</time>
      </trkpt>
      <trkpt lat="43.050048965960741" lon="-1.460235994309187">
        <ele>760.53999999999996</ele>
        <time>2025-04-27T10:20:57Z</time>
      </trkpt>
      <trkpt lat="43.050015019252896" lon="-1.460089981555939">
        <ele>761.01999999999998</ele>
        <time>2025-04-27T10:20:58Z</time>
      </trkpt>
      <trkpt lat="43.0499819945544" lon="-1.459943968802691">
        <ele>761.5</ele>
        <time>2025-04-27T10:20:59Z</time>
      </trkpt>
      <trkpt lat="43.049930026754737" lon="-1.459821006283164">
        <ele>761.98000000000002</ele>
        <time>2025-04-27T10:21:00Z</time>
      </trkpt>
      <trkpt lat="43.04987302981317" lon="-1.459715981036425">
        <ele>761.98000000000002</ele>
        <time>2025-04-27T10:21:01Z</time>
      </trkpt>
      <trkpt lat="43.049797005951405" lon="-1.45964196883142">
        <ele>762.46000000000004</ele>
        <time>2025-04-27T10:21:02Z</time>
      </trkpt>
      <trkpt lat="43.049708995968103" lon="-1.459609027951956">
        <ele>762.94000000000005</ele>
        <time>2025-04-27T10:21:03Z</time>
      </trkpt>
      <trkpt lat="43.04873401299119" lon="-1.45968496799469">
        <ele>769.66999999999996</ele>
        <time>2025-04-27T10:21:11Z</time>
      </trkpt>
      <trkpt lat="43.048603003844619" lon="-1.459703994914889">
        <ele>770.63</ele>
        <time>2025-04-27T10:21:12Z</time>
      </trkpt>
      <trkpt lat="43.048467971384525" lon="-1.459723021835089">
        <ele>770.63</ele>
        <time>2025-04-27T10:21:13Z</time>
      </trkpt>
      <trkpt lat="43.048346014693379" lon="-1.459685973823071">
        <ele>771.60000000000002</ele>
        <time>2025-04-27T10:21:14Z</time>
      </trkpt>
      <trkpt lat="43.048221962526441" lon="-1.459634006023407">
        <ele>772.55999999999995</ele>
        <time>2025-04-27T10:21:15Z</time>
      </trkpt>
      <trkpt lat="43.048108974471688" lon="-1.459547001868486">
        <ele>773.51999999999998</ele>
        <time>2025-04-27T10:21:16Z</time>
      </trkpt>
      <trkpt lat="43.047769004479051" lon="-1.459283977746964">
        <ele>775.91999999999996</ele>
        <time>2025-04-27T10:21:19Z</time>
      </trkpt>
      <trkpt lat="43.047662973403931" lon="-1.459200996905565">
        <ele>776.88</ele>
        <time>2025-04-27T10:21:20Z</time>
      </trkpt>
      <trkpt lat="43.047554008662701" lon="-1.459139976650477">
        <ele>777.36000000000001</ele>
        <time>2025-04-27T10:21:21Z</time>
      </trkpt>
      <trkpt lat="43.047453006729484" lon="-1.459130002185702">
        <ele>778.32000000000005</ele>
        <time>2025-04-27T10:21:22Z</time>
      </trkpt>
      <trkpt lat="43.047354016453028" lon="-1.459138970822096">
        <ele>779.28999999999996</ele>
        <time>2025-04-27T10:21:23Z</time>
      </trkpt>
      <trkpt lat="43.04727204144001" lon="-1.459206026047468">
        <ele>780.25</ele>
        <time>2025-04-27T10:21:24Z</time>
      </trkpt>
      <trkpt lat="43.047194005921483" lon="-1.459313984960318">
        <ele>780.73000000000002</ele>
        <time>2025-04-27T10:21:25Z</time>
      </trkpt>
      <trkpt lat="43.047125022858381" lon="-1.459428984671831">
        <ele>781.21000000000004</ele>
        <time>2025-04-27T10:21:26Z</time>
      </trkpt>
      <trkpt lat="43.046787986531854" lon="-1.460014041513205">
        <ele>784.09000000000003</ele>
        <time>2025-04-27T10:21:31Z</time>
      </trkpt>
      <trkpt lat="43.046727972105145" lon="-1.46013499237597">
        <ele>784.09000000000003</ele>
        <time>2025-04-27T10:21:32Z</time>
      </trkpt>
      <trkpt lat="43.046584976837039" lon="-1.460796995088458">
        <ele>783.13</ele>
        <time>2025-04-27T10:21:36Z</time>
      </trkpt>
      <trkpt lat="43.04654298350215" lon="-1.460978966206312">
        <ele>782.64999999999998</ele>
        <time>2025-04-27T10:21:37Z</time>
      </trkpt>
      <trkpt lat="43.046468971297145" lon="-1.461135959252715">
        <ele>782.16999999999996</ele>
        <time>2025-04-27T10:21:38Z</time>
      </trkpt>
      <trkpt lat="43.046395964920521" lon="-1.461292030289769">
        <ele>781.69000000000005</ele>
        <time>2025-04-27T10:21:39Z</time>
      </trkpt>
      <trkpt lat="43.046316001564264" lon="-1.461429996415973">
        <ele>780.73000000000002</ele>
        <time>2025-04-27T10:21:40Z</time>
      </trkpt>
      <trkpt lat="43.046166971325874" lon="-1.46168296225369">
        <ele>779.76999999999998</ele>
        <time>2025-04-27T10:21:42Z</time>
      </trkpt>
      <trkpt lat="43.046107962727547" lon="-1.461782036349177">
        <ele>778.80999999999995</ele>
        <time>2025-04-27T10:21:43Z</time>
      </trkpt>
      <trkpt lat="43.04609002545476" lon="-1.461922014132142">
        <ele>778.32000000000005</ele>
        <time>2025-04-27T10:21:44Z</time>
      </trkpt>
      <trkpt lat="43.046107040718198" lon="-1.462030978873372">
        <ele>777.36000000000001</ele>
        <time>2025-04-27T10:21:45Z</time>
      </trkpt>
      <trkpt lat="43.046150961890817" lon="-1.462189983576536">
        <ele>776.88</ele>
        <time>2025-04-27T10:21:46Z</time>
      </trkpt>
      <trkpt lat="43.046207958832383" lon="-1.462255027145147">
        <ele>775.91999999999996</ele>
        <time>2025-04-27T10:21:47Z</time>
      </trkpt>
      <trkpt lat="43.046294962987304" lon="-1.462354017421603">
        <ele>775.44000000000005</ele>
        <time>2025-04-27T10:21:48Z</time>
      </trkpt>
      <trkpt lat="43.046384984627366" lon="-1.462456025183201">
        <ele>774.96000000000004</ele>
        <time>2025-04-27T10:21:49Z</time>
      </trkpt>
      <trkpt lat="43.046472994610667" lon="-1.462555015459657">
        <ele>774.48000000000002</ele>
        <time>2025-04-27T10:21:50Z</time>
      </trkpt>
      <trkpt lat="43.04656301625073" lon="-1.462686024606228">
        <ele>774</ele>
        <time>2025-04-27T10:21:51Z</time>
      </trkpt>
      <trkpt lat="43.046666029840708" lon="-1.462833965197206">
        <ele>773.51999999999998</ele>
        <time>2025-04-27T10:21:52Z</time>
      </trkpt>
      <trkpt lat="43.046719003468752" lon="-1.46297000348568">
        <ele>773.03999999999996</ele>
        <time>2025-04-27T10:21:53Z</time>
      </trkpt>
      <trkpt lat="43.04690801538527" lon="-1.463449029251933">
        <ele>771.60000000000002</ele>
        <time>2025-04-27T10:21:56Z</time>
      </trkpt>
      <trkpt lat="43.046954032033682" lon="-1.463604010641575">
        <ele>771.11000000000001</ele>
        <time>2025-04-27T10:21:57Z</time>
      </trkpt>
      <trkpt lat="43.046978004276752" lon="-1.463776007294655">
        <ele>770.63</ele>
        <time>2025-04-27T10:21:58Z</time>
      </trkpt>
      <trkpt lat="43.046987978741527" lon="-1.46395999006927">
        <ele>770.14999999999998</ele>
        <time>2025-04-27T10:21:59Z</time>
      </trkpt>
      <trkpt lat="43.046987978741527" lon="-1.464153025299311">
        <ele>769.66999999999996</ele>
        <time>2025-04-27T10:22:00Z</time>
      </trkpt>
      <trkpt lat="43.046987978741527" lon="-1.4643469825387">
        <ele>769.66999999999996</ele>
        <time>2025-04-27T10:22:01Z</time>
      </trkpt>
      <trkpt lat="43.046987978741527" lon="-1.464540017768741">
        <ele>769.19000000000005</ele>
        <time>2025-04-27T10:22:02Z</time>
      </trkpt>
      <trkpt lat="43.046970963478088" lon="-1.46473003551364">
        <ele>768.71000000000004</ele>
        <time>2025-04-27T10:22:03Z</time>
      </trkpt>
      <trkpt lat="43.046943973749876" lon="-1.464917035773397">
        <ele>768.71000000000004</ele>
        <time>2025-04-27T10:22:04Z</time>
      </trkpt>
      <trkpt lat="43.046894017606974" lon="-1.465268991887569">
        <ele>767.75</ele>
        <time>2025-04-27T10:22:06Z</time>
      </trkpt>
      <trkpt lat="43.046889994293451" lon="-1.465433025732637">
        <ele>767.26999999999998</ele>
        <time>2025-04-27T10:22:07Z</time>
      </trkpt>
      <trkpt lat="43.046913966536522" lon="-1.465599993243814">
        <ele>767.26999999999998</ele>
        <time>2025-04-27T10:22:08Z</time>
      </trkpt>
      <trkpt lat="43.047027038410306" lon="-1.465925965458155">
        <ele>766.78999999999996</ele>
        <time>2025-04-27T10:22:10Z</time>
      </trkpt>
      <trkpt lat="43.047083029523492" lon="-1.466067032888532">
        <ele>766.30999999999995</ele>
        <time>2025-04-27T10:22:11Z</time>
      </trkpt>
      <trkpt lat="43.047095015645027" lon="-1.466214973479509">
        <ele>765.83000000000004</ele>
        <time>2025-04-27T10:22:12Z</time>
      </trkpt>
      <trkpt lat="43.047095015645027" lon="-1.466370960697532">
        <ele>765.35000000000002</ele>
        <time>2025-04-27T10:22:13Z</time>
      </trkpt>
      <trkpt lat="43.047054028138518" lon="-1.466512028127909">
        <ele>764.87</ele>
        <time>2025-04-27T10:22:14Z</time>
      </trkpt>
      <trkpt lat="43.047001976519823" lon="-1.466661980375648">
        <ele>764.38999999999999</ele>
        <time>2025-04-27T10:22:15Z</time>
      </trkpt>
      <trkpt lat="43.046943973749876" lon="-1.466825008392334">
        <ele>764.38999999999999</ele>
        <time>2025-04-27T10:22:16Z</time>
      </trkpt>
      <trkpt lat="43.046837020665407" lon="-1.466929027810693">
        <ele>763.89999999999998</ele>
        <time>2025-04-27T10:22:17Z</time>
      </trkpt>
      <trkpt lat="43.046494033187628" lon="-1.467259023338556">
        <ele>763.41999999999996</ele>
        <time>2025-04-27T10:22:20Z</time>
      </trkpt>
      <trkpt lat="43.04639202542603" lon="-1.467357007786632">
        <ele>763.41999999999996</ele>
        <time>2025-04-27T10:22:21Z</time>
      </trkpt>
      <trkpt lat="43.046317007392645" lon="-1.467471001669765">
        <ele>763.41999999999996</ele>
        <time>2025-04-27T10:22:22Z</time>
      </trkpt>
      <trkpt lat="43.046244001016021" lon="-1.467606034129858">
        <ele>762.94000000000005</ele>
        <time>2025-04-27T10:22:23Z</time>
      </trkpt>
      <trkpt lat="43.046169988811016" lon="-1.46774098277092">
        <ele>762.46000000000004</ele>
        <time>2025-04-27T10:22:24Z</time>
      </trkpt>
      <trkpt lat="43.046106034889817" lon="-1.46787098608911">
        <ele>761.98000000000002</ele>
        <time>2025-04-27T10:22:25Z</time>
      </trkpt>
      <trkpt lat="43.046086002141237" lon="-1.468026973307133">
        <ele>761.98000000000002</ele>
        <time>2025-04-27T10:22:26Z</time>
      </trkpt>
      <trkpt lat="43.046064963564277" lon="-1.468197964131832">
        <ele>761.5</ele>
        <time>2025-04-27T10:22:27Z</time>
      </trkpt>
      <trkpt lat="43.046081978827715" lon="-1.468367027118802">
        <ele>761.01999999999998</ele>
        <time>2025-04-27T10:22:28Z</time>
      </trkpt>
      <trkpt lat="43.046119026839733" lon="-1.46872996352613">
        <ele>760.53999999999996</ele>
        <time>2025-04-27T10:22:30Z</time>
      </trkpt>
      <trkpt lat="43.04613696411252" lon="-1.46890196017921">
        <ele>760.53999999999996</ele>
        <time>2025-04-27T10:22:31Z</time>
      </trkpt>
      <trkpt lat="43.046147022396326" lon="-1.469066999852657">
        <ele>761.01999999999998</ele>
        <time>2025-04-27T10:22:32Z</time>
      </trkpt>
      <trkpt lat="43.046117015182972" lon="-1.469230027869344">
        <ele>761.01999999999998</ele>
        <time>2025-04-27T10:22:33Z</time>
      </trkpt>
      <trkpt lat="43.046040991321206" lon="-1.469364976510406">
        <ele>761.5</ele>
        <time>2025-04-27T10:22:34Z</time>
      </trkpt>
      <trkpt lat="43.045963039621711" lon="-1.469506965950131">
        <ele>761.98000000000002</ele>
        <time>2025-04-27T10:22:35Z</time>
      </trkpt>
      <trkpt lat="43.045885004103184" lon="-1.469647027552128">
        <ele>761.98000000000002</ele>
        <time>2025-04-27T10:22:36Z</time>
      </trkpt>
      <trkpt lat="43.045807974413037" lon="-1.469784993678331">
        <ele>761.98000000000002</ele>
        <time>2025-04-27T10:22:37Z</time>
      </trkpt>
      <trkpt lat="43.045760029926896" lon="-1.469942992553115">
        <ele>761.98000000000002</ele>
        <time>2025-04-27T10:22:38Z</time>
      </trkpt>
      <trkpt lat="43.045670008286834" lon="-1.470239041373134">
        <ele>761.5</ele>
        <time>2025-04-27T10:22:40Z</time>
      </trkpt>
      <trkpt lat="43.045612005516887" lon="-1.470359992235899">
        <ele>761.5</ele>
        <time>2025-04-27T10:22:41Z</time>
      </trkpt>
      <trkpt lat="43.04553497582674" lon="-1.470451019704342">
        <ele>761.98000000000002</ele>
        <time>2025-04-27T10:22:42Z</time>
      </trkpt>
      <trkpt lat="43.045433973893523" lon="-1.470508016645908">
        <ele>761.98000000000002</ele>
        <time>2025-04-27T10:22:43Z</time>
      </trkpt>
      <trkpt lat="43.045329032465816" lon="-1.470569036900997">
        <ele>761.98000000000002</ele>
        <time>2025-04-27T10:22:44Z</time>
      </trkpt>
      <trkpt lat="43.045228030532598" lon="-1.470646988600493">
        <ele>762.46000000000004</ele>
        <time>2025-04-27T10:22:45Z</time>
      </trkpt>
      <trkpt lat="43.045132979750633" lon="-1.470746984705329">
        <ele>762.46000000000004</ele>
        <time>2025-04-27T10:22:46Z</time>
      </trkpt>
      <trkpt lat="43.044862998649478" lon="-1.471030963584781">
        <ele>762.94000000000005</ele>
        <time>2025-04-27T10:22:49Z</time>
      </trkpt>
      <trkpt lat="43.044761996716261" lon="-1.471188962459564">
        <ele>762.94000000000005</ele>
        <time>2025-04-27T10:22:50Z</time>
      </trkpt>
      <trkpt lat="43.044669963419437" lon="-1.471331035718322">
        <ele>762.94000000000005</ele>
        <time>2025-04-27T10:22:51Z</time>
      </trkpt>
      <trkpt lat="43.044639034196734" lon="-1.471444023773074">
        <ele>762.94000000000005</ele>
        <time>2025-04-27T10:22:52Z</time>
      </trkpt>
      <trkpt lat="43.044608021155" lon="-1.471587019041181">
        <ele>763.41999999999996</ele>
        <time>2025-04-27T10:22:53Z</time>
      </trkpt>
      <trkpt lat="43.044621013104916" lon="-1.4717379771173">
        <ele>763.41999999999996</ele>
        <time>2025-04-27T10:22:54Z</time>
      </trkpt>
      <trkpt lat="43.044655965641141" lon="-1.471884995698929">
        <ele>763.41999999999996</ele>
        <time>2025-04-27T10:22:55Z</time>
      </trkpt>
      <trkpt lat="43.044711034744978" lon="-1.472036959603429">
        <ele>763.41999999999996</ele>
        <time>2025-04-27T10:22:56Z</time>
      </trkpt>
      <trkpt lat="43.044766020029783" lon="-1.472189007326961">
        <ele>763.41999999999996</ele>
        <time>2025-04-27T10:22:57Z</time>
      </trkpt>
      <trkpt lat="43.044818993657827" lon="-1.472338037565351">
        <ele>763.41999999999996</ele>
        <time>2025-04-27T10:22:58Z</time>
      </trkpt>
      <trkpt lat="43.044868027791381" lon="-1.472472986206412">
        <ele>763.41999999999996</ele>
        <time>2025-04-27T10:22:59Z</time>
      </trkpt>
      <trkpt lat="43.044911026954651" lon="-1.472594020888209">
        <ele>763.41999999999996</ele>
        <time>2025-04-27T10:23:00Z</time>
      </trkpt>
      <trkpt lat="43.044899962842464" lon="-1.472722012549639">
        <ele>763.41999999999996</ele>
        <time>2025-04-27T10:23:01Z</time>
      </trkpt>
      <trkpt lat="43.044862998649478" lon="-1.47283298894763">
        <ele>763.41999999999996</ele>
        <time>2025-04-27T10:23:02Z</time>
      </trkpt>
      <trkpt lat="43.044785968959332" lon="-1.472899038344622">
        <ele>763.41999999999996</ele>
        <time>2025-04-27T10:23:03Z</time>
      </trkpt>
      <trkpt lat="43.044699970632792" lon="-1.472971038892865">
        <ele>763.41999999999996</ele>
        <time>2025-04-27T10:23:04Z</time>
      </trkpt>
      <trkpt lat="43.044607015326619" lon="-1.473039016127586">
        <ele>762.94000000000005</ele>
        <time>2025-04-27T10:23:05Z</time>
      </trkpt>
      <trkpt lat="43.044434012845159" lon="-1.473205983638763">
        <ele>762.94000000000005</ele>
        <time>2025-04-27T10:23:07Z</time>
      </trkpt>
      <trkpt lat="43.044363018125296" lon="-1.473322995007038">
        <ele>762.94000000000005</ele>
        <time>2025-04-27T10:23:08Z</time>
      </trkpt>
      <trkpt lat="43.044283976778388" lon="-1.47345500998199">
        <ele>763.41999999999996</ele>
        <time>2025-04-27T10:23:09Z</time>
      </trkpt>
      <trkpt lat="43.044262016192079" lon="-1.47360697388649">
        <ele>763.41999999999996</ele>
        <time>2025-04-27T10:23:10Z</time>
      </trkpt>
      <trkpt lat="43.044241983443499" lon="-1.47377897053957">
        <ele>763.41999999999996</ele>
        <time>2025-04-27T10:23:11Z</time>
      </trkpt>
      <trkpt lat="43.044249024242163" lon="-1.473957002162933">
        <ele>763.41999999999996</ele>
        <time>2025-04-27T10:23:12Z</time>
      </trkpt>
      <trkpt lat="43.0443299934268" lon="-1.475434983149171">
        <ele>763.41999999999996</ele>
        <time>2025-04-27T10:23:20Z</time>
      </trkpt>
      <trkpt lat="43.044344997033477" lon="-1.47562500089407">
        <ele>763.89999999999998</ele>
        <time>2025-04-27T10:23:21Z</time>
      </trkpt>
      <trkpt lat="43.044360000640154" lon="-1.475816024467349">
        <ele>763.89999999999998</ele>
        <time>2025-04-27T10:23:22Z</time>
      </trkpt>
      <trkpt lat="43.044470977038145" lon="-1.476385993883014">
        <ele>764.87</ele>
        <time>2025-04-27T10:23:25Z</time>
      </trkpt>
      <trkpt lat="43.044543983414769" lon="-1.476542986929417">
        <ele>764.87</ele>
        <time>2025-04-27T10:23:26Z</time>
      </trkpt>
      <trkpt lat="43.044620007276535" lon="-1.476702997460961">
        <ele>764.87</ele>
        <time>2025-04-27T10:23:27Z</time>
      </trkpt>
      <trkpt lat="43.045463981106877" lon="-1.478368984535337">
        <ele>769.19000000000005</ele>
        <time>2025-04-27T10:23:37Z</time>
      </trkpt>
      <trkpt lat="43.045531958341599" lon="-1.478571994230151">
        <ele>770.63</ele>
        <time>2025-04-27T10:23:38Z</time>
      </trkpt>
      <trkpt lat="43.045846028253436" lon="-1.479588970541954">
        <ele>777.36000000000001</ele>
        <time>2025-04-27T10:23:43Z</time>
      </trkpt>
      <trkpt lat="43.04605096578598" lon="-1.480297995731235">
        <ele>782.64999999999998</ele>
        <time>2025-04-27T10:23:47Z</time>
      </trkpt>
      <trkpt lat="43.046087007969618" lon="-1.480421964079142">
        <ele>784.09000000000003</ele>
        <time>2025-04-27T10:23:48Z</time>
      </trkpt>
      <trkpt lat="43.046103017404675" lon="-1.480529000982642">
        <ele>785.04999999999995</ele>
        <time>2025-04-27T10:23:49Z</time>
      </trkpt>
      <trkpt lat="43.046082984656096" lon="-1.48065104149282">
        <ele>786.5</ele>
        <time>2025-04-27T10:23:50Z</time>
      </trkpt>
      <trkpt lat="43.046031016856432" lon="-1.480753971263766">
        <ele>787.94000000000005</ele>
        <time>2025-04-27T10:23:51Z</time>
      </trkpt>
      <trkpt lat="43.045939989387989" lon="-1.48080300539732">
        <ele>788.89999999999998</ele>
        <time>2025-04-27T10:23:52Z</time>
      </trkpt>
      <trkpt lat="43.045853991061449" lon="-1.480836030095816">
        <ele>790.34000000000003</ele>
        <time>2025-04-27T10:23:53Z</time>
      </trkpt>
      <trkpt lat="43.045775033533573" lon="-1.480774004012346">
        <ele>791.29999999999995</ele>
        <time>2025-04-27T10:23:54Z</time>
      </trkpt>
      <trkpt lat="43.045708984136581" lon="-1.480703009292483">
        <ele>792.74000000000001</ele>
        <time>2025-04-27T10:23:55Z</time>
      </trkpt>
      <trkpt lat="43.045650981366634" lon="-1.480585997924209">
        <ele>793.71000000000004</ele>
        <time>2025-04-27T10:23:56Z</time>
      </trkpt>
      <trkpt lat="43.045143960043788" lon="-1.479558041319251">
        <ele>801.39999999999998</ele>
        <time>2025-04-27T10:24:03Z</time>
      </trkpt>
      <trkpt lat="43.045077994465828" lon="-1.479442035779357">
        <ele>802.36000000000001</ele>
        <time>2025-04-27T10:24:04Z</time>
      </trkpt>
      <trkpt lat="43.045010017231107" lon="-1.479324018582702">
        <ele>802.84000000000003</ele>
        <time>2025-04-27T10:24:05Z</time>
      </trkpt>
      <trkpt lat="43.044913038611412" lon="-1.479262998327613">
        <ele>803.79999999999995</ele>
        <time>2025-04-27T10:24:06Z</time>
      </trkpt>
      <trkpt lat="43.044723020866513" lon="-1.479270961135626">
        <ele>805.24000000000001</ele>
        <time>2025-04-27T10:24:08Z</time>
      </trkpt>
      <trkpt lat="43.044597962871194" lon="-1.479326030239463">
        <ele>806.20000000000005</ele>
        <time>2025-04-27T10:24:09Z</time>
      </trkpt>
      <trkpt lat="43.044211976230145" lon="-1.479496015235782">
        <ele>808.13</ele>
        <time>2025-04-27T10:24:12Z</time>
      </trkpt>
      <trkpt lat="43.044098988175392" lon="-1.479545971378684">
        <ele>809.09000000000003</ele>
        <time>2025-04-27T10:24:13Z</time>
      </trkpt>
      <trkpt lat="43.04398600012064" lon="-1.479539014399052">
        <ele>810.04999999999995</ele>
        <time>2025-04-27T10:24:14Z</time>
      </trkpt>
      <trkpt lat="43.043847028166056" lon="-1.479525016620755">
        <ele>811.00999999999999</ele>
        <time>2025-04-27T10:24:15Z</time>
      </trkpt>
      <trkpt lat="43.043711995705962" lon="-1.479512024670839">
        <ele>811.97000000000003</ele>
        <time>2025-04-27T10:24:16Z</time>
      </trkpt>
      <trkpt lat="43.043586015701294" lon="-1.479455027729273">
        <ele>812.92999999999995</ele>
        <time>2025-04-27T10:24:17Z</time>
      </trkpt>
      <trkpt lat="43.043455006554723" lon="-1.47936400026083">
        <ele>813.88999999999999</ele>
        <time>2025-04-27T10:24:18Z</time>
      </trkpt>
      <trkpt lat="43.042920995503664" lon="-1.478926967829466">
        <ele>817.25999999999999</ele>
        <time>2025-04-27T10:24:22Z</time>
      </trkpt>
      <trkpt lat="43.042583959177136" lon="-1.478499993681908">
        <ele>819.65999999999997</ele>
        <time>2025-04-27T10:24:25Z</time>
      </trkpt>
      <trkpt lat="43.042214987799525" lon="-1.478259013965726">
        <ele>822.05999999999995</ele>
        <time>2025-04-27T10:24:28Z</time>
      </trkpt>
      <trkpt lat="43.041799999773502" lon="-1.478064972907305">
        <ele>824.47000000000003</ele>
        <time>2025-04-27T10:24:31Z</time>
      </trkpt>
      <trkpt lat="43.041295995935798" lon="-1.477632969617844">
        <ele>830.24000000000001</ele>
        <time>2025-04-27T10:24:35Z</time>
      </trkpt>
      <trkpt lat="43.041199017316103" lon="-1.477489974349737">
        <ele>831.67999999999995</ele>
        <time>2025-04-27T10:24:36Z</time>
      </trkpt>
      <trkpt lat="43.041092986240983" lon="-1.477334992960095">
        <ele>833.12</ele>
        <time>2025-04-27T10:24:37Z</time>
      </trkpt>
      <trkpt lat="43.040650002658367" lon="-1.476474003866315">
        <ele>844.17999999999995</ele>
        <time>2025-04-27T10:24:42Z</time>
      </trkpt>
      <trkpt lat="43.040583031252027" lon="-1.47633302025497">
        <ele>847.05999999999995</ele>
        <time>2025-04-27T10:24:43Z</time>
      </trkpt>
      <trkpt lat="43.04057196713984" lon="-1.476308964192867">
        <ele>849.94000000000005</ele>
        <time>2025-04-27T10:24:44Z</time>
      </trkpt>
      <trkpt lat="43.04057196713984" lon="-1.476111989468336">
        <ele>852.83000000000004</ele>
        <time>2025-04-27T10:24:45Z</time>
      </trkpt>
      <trkpt lat="43.04057196713984" lon="-1.475922977551818">
        <ele>855.71000000000004</ele>
        <time>2025-04-27T10:24:46Z</time>
      </trkpt>
      <trkpt lat="43.040601974353194" lon="-1.475781993940473">
        <ele>859.08000000000004</ele>
        <time>2025-04-27T10:24:47Z</time>
      </trkpt>
      <trkpt lat="43.040642961859703" lon="-1.475586025044322">
        <ele>861.96000000000004</ele>
        <time>2025-04-27T10:24:48Z</time>
      </trkpt>
      <trkpt lat="43.040683027356863" lon="-1.475397013127804">
        <ele>864.84000000000003</ele>
        <time>2025-04-27T10:24:49Z</time>
      </trkpt>
      <trkpt lat="43.04072099737823" lon="-1.475214958190918">
        <ele>867.73000000000002</ele>
        <time>2025-04-27T10:24:50Z</time>
      </trkpt>
      <trkpt lat="43.040730971843004" lon="-1.475031981244683">
        <ele>870.61000000000001</ele>
        <time>2025-04-27T10:24:51Z</time>
      </trkpt>
      <trkpt lat="43.040705993771553" lon="-1.474881023168564">
        <ele>873.5</ele>
        <time>2025-04-27T10:24:52Z</time>
      </trkpt>
      <trkpt lat="43.04069995880127" lon="-1.474850010126829">
        <ele>875.89999999999998</ele>
        <time>2025-04-27T10:24:53Z</time>
      </trkpt>
      <trkpt lat="43.04061496630311" lon="-1.474721012637019">
        <ele>878.29999999999995</ele>
        <time>2025-04-27T10:24:54Z</time>
      </trkpt>
      <trkpt lat="43.040503989905119" lon="-1.474643982946873">
        <ele>880.22000000000003</ele>
        <time>2025-04-27T10:24:55Z</time>
      </trkpt>
      <trkpt lat="43.040400976315141" lon="-1.474571982398629">
        <ele>882.63</ele>
        <time>2025-04-27T10:24:56Z</time>
      </trkpt>
      <trkpt lat="43.040288994088769" lon="-1.474494030699134">
        <ele>885.02999999999997</ele>
        <time>2025-04-27T10:24:57Z</time>
      </trkpt>
      <trkpt lat="43.04018497467041" lon="-1.47442102432251">
        <ele>886.95000000000005</ele>
        <time>2025-04-27T10:24:58Z</time>
      </trkpt>
      <trkpt lat="43.040041979402304" lon="-1.474397974088788">
        <ele>889.36000000000001</ele>
        <time>2025-04-27T10:24:59Z</time>
      </trkpt>
      <trkpt lat="43.039586003869772" lon="-1.474323039874435">
        <ele>895.12</ele>
        <time>2025-04-27T10:25:02Z</time>
      </trkpt>
      <trkpt lat="43.039213009178638" lon="-1.474262019619346">
        <ele>900.88999999999999</ele>
        <time>2025-04-27T10:25:05Z</time>
      </trkpt>
      <trkpt lat="43.039102032780647" lon="-1.474194964393973">
        <ele>902.33000000000004</ele>
        <time>2025-04-27T10:25:06Z</time>
      </trkpt>
      <trkpt lat="43.039052998647094" lon="-1.474115001037717">
        <ele>904.25999999999999</ele>
        <time>2025-04-27T10:25:07Z</time>
      </trkpt>
      <trkpt lat="43.03900103084743" lon="-1.473898999392986">
        <ele>907.62</ele>
        <time>2025-04-27T10:25:09Z</time>
      </trkpt>
      <trkpt lat="43.038996001705527" lon="-1.473746029660106">
        <ele>909.53999999999996</ele>
        <time>2025-04-27T10:25:10Z</time>
      </trkpt>
      <trkpt lat="43.038990972563624" lon="-1.473579984158278">
        <ele>911.47000000000003</ele>
        <time>2025-04-27T10:25:11Z</time>
      </trkpt>
      <trkpt lat="43.038984015583992" lon="-1.473370017483831">
        <ele>915.78999999999996</ele>
        <time>2025-04-27T10:25:13Z</time>
      </trkpt>
      <trkpt lat="43.038984015583992" lon="-1.473370017483831">
        <ele>917.72000000000003</ele>
        <time>2025-04-27T10:25:14Z</time>
      </trkpt>
      <trkpt lat="43.038848983123899" lon="-1.473125014454126">
        <ele>919.63999999999999</ele>
        <time>2025-04-27T10:25:15Z</time>
      </trkpt>
      <trkpt lat="43.038773965090513" lon="-1.472988976165652">
        <ele>921.08000000000004</ele>
        <time>2025-04-27T10:25:16Z</time>
      </trkpt>
      <trkpt lat="43.038747981190681" lon="-1.472940025851131">
        <ele>923</ele>
        <time>2025-04-27T10:25:17Z</time>
      </trkpt>
      <trkpt lat="43.03865603171289" lon="-1.472854027524591">
        <ele>924.45000000000005</ele>
        <time>2025-04-27T10:25:18Z</time>
      </trkpt>
      <trkpt lat="43.038558969274163" lon="-1.472764005884528">
        <ele>925.88999999999999</ele>
        <time>2025-04-27T10:25:19Z</time>
      </trkpt>
      <trkpt lat="43.038452016189694" lon="-1.472664009779692">
        <ele>927.33000000000004</ele>
        <time>2025-04-27T10:25:20Z</time>
      </trkpt>
      <trkpt lat="43.037679959088564" lon="-1.472106026485562">
        <ele>934.53999999999996</ele>
        <time>2025-04-27T10:25:26Z</time>
      </trkpt>
      <trkpt lat="43.036621995270252" lon="-1.470986036583781">
        <ele>941.26999999999998</ele>
        <time>2025-04-27T10:25:34Z</time>
      </trkpt>
      <trkpt lat="43.036323012784123" lon="-1.470627039670944">
        <ele>943.19000000000005</ele>
        <time>2025-04-27T10:25:37Z</time>
      </trkpt>
      <trkpt lat="43.036257969215512" lon="-1.470549004152417">
        <ele>944.14999999999998</ele>
        <time>2025-04-27T10:25:38Z</time>
      </trkpt>
      <trkpt lat="43.035855973139405" lon="-1.470261001959443">
        <ele>946.07000000000005</ele>
        <time>2025-04-27T10:25:43Z</time>
      </trkpt>
      <trkpt lat="43.035288015380502" lon="-1.469957996159792">
        <ele>943.66999999999996</ele>
        <time>2025-04-27T10:25:48Z</time>
      </trkpt>
      <trkpt lat="43.035206962376833" lon="-1.469914996996522">
        <ele>943.19000000000005</ele>
        <time>2025-04-27T10:25:49Z</time>
      </trkpt>
      <trkpt lat="43.035132028162479" lon="-1.469841990619898">
        <ele>942.71000000000004</ele>
        <time>2025-04-27T10:25:50Z</time>
      </trkpt>
      <trkpt lat="43.034538002684712" lon="-1.46926598623395">
        <ele>936.94000000000005</ele>
        <time>2025-04-27T10:25:56Z</time>
      </trkpt>
      <trkpt lat="43.034476982429624" lon="-1.469189962372184">
        <ele>935.5</ele>
        <time>2025-04-27T10:25:57Z</time>
      </trkpt>
      <trkpt lat="43.034302974119782" lon="-1.468895003199577">
        <ele>933.10000000000002</ele>
        <time>2025-04-27T10:25:59Z</time>
      </trkpt>
      <trkpt lat="43.034217981621623" lon="-1.46874999627471">
        <ele>931.64999999999998</ele>
        <time>2025-04-27T10:26:00Z</time>
      </trkpt>
      <trkpt lat="43.033625967800617" lon="-1.46774098277092">
        <ele>921.08000000000004</ele>
        <time>2025-04-27T10:26:07Z</time>
      </trkpt>
      <trkpt lat="43.03339596837759" lon="-1.467349966987968">
        <ele>915.78999999999996</ele>
        <time>2025-04-27T10:26:10Z</time>
      </trkpt>
      <trkpt lat="43.03330703638494" lon="-1.467242008075118">
        <ele>914.35000000000002</ele>
        <time>2025-04-27T10:26:11Z</time>
      </trkpt>
      <trkpt lat="43.033206034451723" lon="-1.4672049600631">
        <ele>912.90999999999997</ele>
        <time>2025-04-27T10:26:12Z</time>
      </trkpt>
      <trkpt lat="43.033104026690125" lon="-1.467167995870113">
        <ele>911.47000000000003</ele>
        <time>2025-04-27T10:26:13Z</time>
      </trkpt>
      <trkpt lat="43.032992966473103" lon="-1.467188028618693">
        <ele>910.02999999999997</ele>
        <time>2025-04-27T10:26:14Z</time>
      </trkpt>
      <trkpt lat="43.03287897258997" lon="-1.467206971719861">
        <ele>909.53999999999996</ele>
        <time>2025-04-27T10:26:15Z</time>
      </trkpt>
      <trkpt lat="43.032752992585301" lon="-1.467229016125202">
        <ele>909.05999999999995</ele>
        <time>2025-04-27T10:26:16Z</time>
      </trkpt>
      <trkpt lat="43.032626006752253" lon="-1.467251982539892">
        <ele>908.58000000000004</ele>
        <time>2025-04-27T10:26:17Z</time>
      </trkpt>
      <trkpt lat="43.032525004819036" lon="-1.467216024175286">
        <ele>907.62</ele>
        <time>2025-04-27T10:26:18Z</time>
      </trkpt>
      <trkpt lat="43.032401036471128" lon="-1.467161038890481">
        <ele>906.65999999999997</ele>
        <time>2025-04-27T10:26:19Z</time>
      </trkpt>
      <trkpt lat="43.032266004011035" lon="-1.467101024463773">
        <ele>906.17999999999995</ele>
        <time>2025-04-27T10:26:20Z</time>
      </trkpt>
      <trkpt lat="43.031666027382016" lon="-1.466707997024059">
        <ele>901.85000000000002</ele>
        <time>2025-04-27T10:26:25Z</time>
      </trkpt>
      <trkpt lat="43.031553039327264" lon="-1.466617975383997">
        <ele>900.88999999999999</ele>
        <time>2025-04-27T10:26:26Z</time>
      </trkpt>
      <trkpt lat="43.03070998750627" lon="-1.465640980750322">
        <ele>893.20000000000005</ele>
        <time>2025-04-27T10:26:34Z</time>
      </trkpt>
      <trkpt lat="43.030583001673222" lon="-1.465531010180712">
        <ele>892.24000000000001</ele>
        <time>2025-04-27T10:26:35Z</time>
      </trkpt>
      <trkpt lat="43.030456015840173" lon="-1.465420033782721">
        <ele>891.75999999999999</ele>
        <time>2025-04-27T10:26:36Z</time>
      </trkpt>
      <trkpt lat="43.030158039182425" lon="-1.465298999100924">
        <ele>891.27999999999997</ele>
        <time>2025-04-27T10:26:38Z</time>
      </trkpt>
      <trkpt lat="43.029074007645249" lon="-1.4649479649961">
        <ele>890.79999999999995</ele>
        <time>2025-04-27T10:26:45Z</time>
      </trkpt>
      <trkpt lat="43.028503032401204" lon="-1.464799018576741">
        <ele>890.32000000000005</ele>
        <time>2025-04-27T10:26:49Z</time>
      </trkpt>
      <trkpt lat="43.027573982253671" lon="-1.464556027203798">
        <ele>894.15999999999997</ele>
        <time>2025-04-27T10:26:55Z</time>
      </trkpt>
      <trkpt lat="43.026294987648726" lon="-1.464222008362413">
        <ele>899.92999999999995</ele>
        <time>2025-04-27T10:27:03Z</time>
      </trkpt>
      <trkpt lat="43.024951033294201" lon="-1.464121006429195">
        <ele>904.74000000000001</ele>
        <time>2025-04-27T10:27:12Z</time>
      </trkpt>
      <trkpt lat="43.024828992784023" lon="-1.464213039726019">
        <ele>905.22000000000003</ele>
        <time>2025-04-27T10:27:13Z</time>
      </trkpt>
      <trkpt lat="43.02469396032393" lon="-1.464314041659236">
        <ele>905.70000000000005</ele>
        <time>2025-04-27T10:27:14Z</time>
      </trkpt>
      <trkpt lat="43.024567980319262" lon="-1.464408002793789">
        <ele>905.70000000000005</ele>
        <time>2025-04-27T10:27:15Z</time>
      </trkpt>
      <trkpt lat="43.024452980607748" lon="-1.464494001120329">
        <ele>905.70000000000005</ele>
        <time>2025-04-27T10:27:16Z</time>
      </trkpt>
      <trkpt lat="43.024233039468527" lon="-1.464553009718657">
        <ele>905.70000000000005</ele>
        <time>2025-04-27T10:27:17Z</time>
      </trkpt>
      <trkpt lat="43.02408903837204" lon="-1.464584022760391">
        <ele>906.17999999999995</ele>
        <time>2025-04-27T10:27:18Z</time>
      </trkpt>
      <trkpt lat="43.023971021175385" lon="-1.464622998610139">
        <ele>906.65999999999997</ele>
        <time>2025-04-27T10:27:19Z</time>
      </trkpt>
      <trkpt lat="43.023831965401769" lon="-1.464676978066564">
        <ele>907.13999999999999</ele>
        <time>2025-04-27T10:27:20Z</time>
      </trkpt>
      <trkpt lat="43.022884977981448" lon="-1.465009991079569">
        <ele>908.10000000000002</ele>
        <time>2025-04-27T10:27:26Z</time>
      </trkpt>
      <trkpt lat="43.021644037216902" lon="-1.465177964419127">
        <ele>909.53999999999996</ele>
        <time>2025-04-27T10:27:34Z</time>
      </trkpt>
      <trkpt lat="43.021559966728091" lon="-1.465173019096255">
        <ele>909.53999999999996</ele>
        <time>2025-04-27T10:27:35Z</time>
      </trkpt>
      <trkpt lat="43.021241035312414" lon="-1.465061958879232">
        <ele>909.05999999999995</ele>
        <time>2025-04-27T10:27:37Z</time>
      </trkpt>
      <trkpt lat="43.021090999245644" lon="-1.465009991079569">
        <ele>909.05999999999995</ele>
        <time>2025-04-27T10:27:38Z</time>
      </trkpt>
      <trkpt lat="43.020572997629642" lon="-1.464829025790095">
        <ele>909.05999999999995</ele>
        <time>2025-04-27T10:27:42Z</time>
      </trkpt>
      <trkpt lat="43.020336963236332" lon="-1.464829025790095">
        <ele>909.05999999999995</ele>
        <time>2025-04-27T10:27:43Z</time>
      </trkpt>
      <trkpt lat="43.020336963236332" lon="-1.464829025790095">
        <ele>908.10000000000002</ele>
        <time>2025-04-27T10:27:44Z</time>
      </trkpt>
      <trkpt lat="43.020187010988593" lon="-1.464893985539675">
        <ele>909.05999999999995</ele>
        <time>2025-04-27T10:27:45Z</time>
      </trkpt>
      <trkpt lat="43.020136971026659" lon="-1.464964980259538">
        <ele>909.05999999999995</ele>
        <time>2025-04-27T10:27:46Z</time>
      </trkpt>
      <trkpt lat="43.02009497769177" lon="-1.465026000514627">
        <ele>909.05999999999995</ele>
        <time>2025-04-27T10:27:47Z</time>
      </trkpt>
      <trkpt lat="43.020036974921823" lon="-1.465107975527644">
        <ele>908.58000000000004</ele>
        <time>2025-04-27T10:27:48Z</time>
      </trkpt>
      <trkpt lat="43.020001016557217" lon="-1.465233033522964">
        <ele>908.58000000000004</ele>
        <time>2025-04-27T10:27:49Z</time>
      </trkpt>
      <trkpt lat="43.019946031272411" lon="-1.465422967448831">
        <ele>907.62</ele>
        <time>2025-04-27T10:27:50Z</time>
      </trkpt>
      <trkpt lat="43.0198809877038" lon="-1.465647015720606">
        <ele>906.65999999999997</ele>
        <time>2025-04-27T10:27:51Z</time>
      </trkpt>
      <trkpt lat="43.019810998812318" lon="-1.465889001265168">
        <ele>904.74000000000001</ele>
        <time>2025-04-27T10:27:52Z</time>
      </trkpt>
      <trkpt lat="43.019731035456061" lon="-1.466080024838448">
        <ele>902.33000000000004</ele>
        <time>2025-04-27T10:27:53Z</time>
      </trkpt>
      <trkpt lat="43.01964302547276" lon="-1.466280017048121">
        <ele>899.92999999999995</ele>
        <time>2025-04-27T10:27:54Z</time>
      </trkpt>
      <trkpt lat="43.019544035196304" lon="-1.466433992609382">
        <ele>898.97000000000003</ele>
        <time>2025-04-27T10:27:55Z</time>
      </trkpt>
      <trkpt lat="43.019429035484791" lon="-1.466601965948939">
        <ele>898.00999999999999</ele>
        <time>2025-04-27T10:27:56Z</time>
      </trkpt>
      <trkpt lat="43.019349994137883" lon="-1.466717971488833">
        <ele>896.09000000000003</ele>
        <time>2025-04-27T10:27:57Z</time>
      </trkpt>
      <trkpt lat="43.019223008304834" lon="-1.466806987300515">
        <ele>895.12</ele>
        <time>2025-04-27T10:27:58Z</time>
      </trkpt>
      <trkpt lat="43.019136004149914" lon="-1.466868007555604">
        <ele>894.63999999999999</ele>
        <time>2025-04-27T10:27:59Z</time>
      </trkpt>
      <trkpt lat="43.019136004149914" lon="-1.466868007555604">
        <ele>893.67999999999995</ele>
        <time>2025-04-27T10:28:00Z</time>
      </trkpt>
      <trkpt lat="43.01899803802371" lon="-1.466874964535236">
        <ele>892.72000000000003</ele>
        <time>2025-04-27T10:28:01Z</time>
      </trkpt>
      <trkpt lat="43.018900975584984" lon="-1.466878987848759">
        <ele>892.24000000000001</ele>
        <time>2025-04-27T10:28:02Z</time>
      </trkpt>
      <trkpt lat="43.018797961995006" lon="-1.466884016990662">
        <ele>892.24000000000001</ele>
        <time>2025-04-27T10:28:03Z</time>
      </trkpt>
      <trkpt lat="43.018670976161957" lon="-1.466890973970294">
        <ele>891.75999999999999</ele>
        <time>2025-04-27T10:28:04Z</time>
      </trkpt>
      <trkpt lat="43.018520018085837" lon="-1.466898014768958">
        <ele>891.27999999999997</ele>
        <time>2025-04-27T10:28:05Z</time>
      </trkpt>
      <trkpt lat="43.018368976190686" lon="-1.466904971748591">
        <ele>891.27999999999997</ele>
        <time>2025-04-27T10:28:06Z</time>
      </trkpt>
      <trkpt lat="43.018255988135934" lon="-1.466911006718874">
        <ele>891.27999999999997</ele>
        <time>2025-04-27T10:28:07Z</time>
      </trkpt>
      <trkpt lat="43.018068987876177" lon="-1.466993987560272">
        <ele>890.79999999999995</ele>
        <time>2025-04-27T10:28:08Z</time>
      </trkpt>
      <trkpt lat="43.017921969294548" lon="-1.467059031128883">
        <ele>890.32000000000005</ele>
        <time>2025-04-27T10:28:09Z</time>
      </trkpt>
      <trkpt lat="43.017751984298229" lon="-1.467134971171618">
        <ele>890.32000000000005</ele>
        <time>2025-04-27T10:28:10Z</time>
      </trkpt>
      <trkpt lat="43.017614018172026" lon="-1.467204038053751">
        <ele>890.79999999999995</ele>
        <time>2025-04-27T10:28:11Z</time>
      </trkpt>
      <trkpt lat="43.017471022903919" lon="-1.467287018895149">
        <ele>890.32000000000005</ele>
        <time>2025-04-27T10:28:12Z</time>
      </trkpt>
      <trkpt lat="43.017157036811113" lon="-1.467467984184623">
        <ele>890.32000000000005</ele>
        <time>2025-04-27T10:28:14Z</time>
      </trkpt>
      <trkpt lat="43.017014041543007" lon="-1.467550965026021">
        <ele>890.32000000000005</ele>
        <time>2025-04-27T10:28:15Z</time>
      </trkpt>
      <trkpt lat="43.016711035743356" lon="-1.467725979164243">
        <ele>889.84000000000003</ele>
        <time>2025-04-27T10:28:18Z</time>
      </trkpt>
      <trkpt lat="43.016487993299961" lon="-1.467909961938858">
        <ele>889.84000000000003</ele>
        <time>2025-04-27T10:28:19Z</time>
      </trkpt>
      <trkpt lat="43.016354972496629" lon="-1.4680200163275">
        <ele>889.36000000000001</ele>
        <time>2025-04-27T10:28:20Z</time>
      </trkpt>
      <trkpt lat="43.016228992491961" lon="-1.468124035745859">
        <ele>888.88</ele>
        <time>2025-04-27T10:28:21Z</time>
      </trkpt>
      <trkpt lat="43.016132013872266" lon="-1.468217996880412">
        <ele>888.88</ele>
        <time>2025-04-27T10:28:22Z</time>
      </trkpt>
      <trkpt lat="43.016021037474275" lon="-1.468327967450023">
        <ele>888.39999999999998</ele>
        <time>2025-04-27T10:28:23Z</time>
      </trkpt>
      <trkpt lat="43.015900002792478" lon="-1.468446990475059">
        <ele>887.90999999999997</ele>
        <time>2025-04-27T10:28:24Z</time>
      </trkpt>
      <trkpt lat="43.015659023076296" lon="-1.46868503652513">
        <ele>887.90999999999997</ele>
        <time>2025-04-27T10:28:26Z</time>
      </trkpt>
      <trkpt lat="43.014790993183851" lon="-1.469542002305389">
        <ele>885.50999999999999</ele>
        <time>2025-04-27T10:28:33Z</time>
      </trkpt>
      <trkpt lat="43.014354966580868" lon="-1.47008003666997">
        <ele>884.07000000000005</ele>
        <time>2025-04-27T10:28:37Z</time>
      </trkpt>
      <trkpt lat="43.014350021257997" lon="-1.470086993649602">
        <ele>883.59000000000003</ele>
        <time>2025-04-27T10:28:38Z</time>
      </trkpt>
      <trkpt lat="43.014287995174527" lon="-1.47038497030735">
        <ele>883.11000000000001</ele>
        <time>2025-04-27T10:28:39Z</time>
      </trkpt>
      <trkpt lat="43.014255976304412" lon="-1.470538023859263">
        <ele>882.63</ele>
        <time>2025-04-27T10:28:40Z</time>
      </trkpt>
      <trkpt lat="43.014242984354496" lon="-1.470601977780461">
        <ele>882.14999999999998</ele>
        <time>2025-04-27T10:28:41Z</time>
      </trkpt>
      <trkpt lat="43.014267040416598" lon="-1.47083499468863">
        <ele>879.74000000000001</ele>
        <time>2025-04-27T10:28:42Z</time>
      </trkpt>
      <trkpt lat="43.01429201848805" lon="-1.471072034910321">
        <ele>877.34000000000003</ele>
        <time>2025-04-27T10:28:43Z</time>
      </trkpt>
      <trkpt lat="43.014320014044642" lon="-1.471347967162728">
        <ele>875.41999999999996</ele>
        <time>2025-04-27T10:28:44Z</time>
      </trkpt>
      <trkpt lat="43.014344992116094" lon="-1.471589030697942">
        <ele>873.98000000000002</ele>
        <time>2025-04-27T10:28:45Z</time>
      </trkpt>
      <trkpt lat="43.014370976015925" lon="-1.47184400819242">
        <ele>873.00999999999999</ele>
        <time>2025-04-27T10:28:46Z</time>
      </trkpt>
      <trkpt lat="43.014646992087364" lon="-1.473500020802021">
        <ele>863.88</ele>
        <time>2025-04-27T10:28:53Z</time>
      </trkpt>
      <trkpt lat="43.014836004003882" lon="-1.474390011280775">
        <ele>859.55999999999995</ele>
        <time>2025-04-27T10:28:57Z</time>
      </trkpt>
      <trkpt lat="43.014865005388856" lon="-1.474527977406979">
        <ele>858.11000000000001</ele>
        <time>2025-04-27T10:28:58Z</time>
      </trkpt>
      <trkpt lat="43.014837009832263" lon="-1.47500297985971">
        <ele>853.30999999999995</ele>
        <time>2025-04-27T10:29:01Z</time>
      </trkpt>
      <trkpt lat="43.014770960435271" lon="-1.476123975589871">
        <ele>845.62</ele>
        <time>2025-04-27T10:29:08Z</time>
      </trkpt>
      <trkpt lat="43.014739025384188" lon="-1.476653041318059">
        <ele>844.17999999999995</ele>
        <time>2025-04-27T10:29:11Z</time>
      </trkpt>
      <trkpt lat="43.014717986807227" lon="-1.477016983553767">
        <ele>842.73000000000002</ele>
        <time>2025-04-27T10:29:13Z</time>
      </trkpt>
      <trkpt lat="43.014698959887028" lon="-1.477165007963777">
        <ele>842.25</ele>
        <time>2025-04-27T10:29:14Z</time>
      </trkpt>
      <trkpt lat="43.014671970158815" lon="-1.477339016273618">
        <ele>840.80999999999995</ele>
        <time>2025-04-27T10:29:16Z</time>
      </trkpt>
      <trkpt lat="43.014522017911077" lon="-1.477746963500977">
        <ele>839.85000000000002</ele>
        <time>2025-04-27T10:29:18Z</time>
      </trkpt>
      <trkpt lat="43.01446502096951" lon="-1.477918960154057">
        <ele>839.37</ele>
        <time>2025-04-27T10:29:19Z</time>
      </trkpt>
      <trkpt lat="43.014436019584537" lon="-1.478004036471248">
        <ele>838.88999999999999</ele>
        <time>2025-04-27T10:29:20Z</time>
      </trkpt>
      <trkpt lat="43.014436019584537" lon="-1.478305030614138">
        <ele>838.40999999999997</ele>
        <time>2025-04-27T10:29:21Z</time>
      </trkpt>
      <trkpt lat="43.014436019584537" lon="-1.478305030614138">
        <ele>837.92999999999995</ele>
        <time>2025-04-27T10:29:22Z</time>
      </trkpt>
      <trkpt lat="43.014589995145798" lon="-1.47861298173666">
        <ele>837.45000000000005</ele>
        <time>2025-04-27T10:29:23Z</time>
      </trkpt>
      <trkpt lat="43.014651015400887" lon="-1.478734016418457">
        <ele>836</ele>
        <time>2025-04-27T10:29:24Z</time>
      </trkpt>
      <trkpt lat="43.014651015400887" lon="-1.478734016418457">
        <ele>835.51999999999998</ele>
        <time>2025-04-27T10:29:25Z</time>
      </trkpt>
      <trkpt lat="43.014787975698709" lon="-1.478867037221789">
        <ele>834.08000000000004</ele>
        <time>2025-04-27T10:29:26Z</time>
      </trkpt>
      <trkpt lat="43.014871962368488" lon="-1.478947000578046">
        <ele>833.12</ele>
        <time>2025-04-27T10:29:27Z</time>
      </trkpt>
      <trkpt lat="43.014966007322073" lon="-1.479037022218108">
        <ele>832.63999999999999</ele>
        <time>2025-04-27T10:29:28Z</time>
      </trkpt>
      <trkpt lat="43.015508987009525" lon="-1.479634987190366">
        <ele>827.35000000000002</ele>
        <time>2025-04-27T10:29:34Z</time>
      </trkpt>
      <trkpt lat="43.01560596562922" lon="-1.479889964684844">
        <ele>825.90999999999997</ele>
        <time>2025-04-27T10:29:35Z</time>
      </trkpt>
      <trkpt lat="43.015660028904676" lon="-1.48003002628684">
        <ele>824.47000000000003</ele>
        <time>2025-04-27T10:29:36Z</time>
      </trkpt>
      <trkpt lat="43.015680983662605" lon="-1.480086017400026">
        <ele>823.02999999999997</ele>
        <time>2025-04-27T10:29:37Z</time>
      </trkpt>
      <trkpt lat="43.015705961734056" lon="-1.480276035144925">
        <ele>822.05999999999995</ele>
        <time>2025-04-27T10:29:38Z</time>
      </trkpt>
      <trkpt lat="43.015723982825875" lon="-1.48041701875627">
        <ele>821.10000000000002</ele>
        <time>2025-04-27T10:29:39Z</time>
      </trkpt>
      <trkpt lat="43.015731023624539" lon="-1.480573005974293">
        <ele>820.13999999999999</ele>
        <time>2025-04-27T10:29:40Z</time>
      </trkpt>
      <trkpt lat="43.015737980604172" lon="-1.480745002627373">
        <ele>818.70000000000005</ele>
        <time>2025-04-27T10:29:41Z</time>
      </trkpt>
      <trkpt lat="43.015745021402836" lon="-1.480913981795311">
        <ele>817.74000000000001</ele>
        <time>2025-04-27T10:29:42Z</time>
      </trkpt>
      <trkpt lat="43.015739992260933" lon="-1.481111962348223">
        <ele>816.29999999999995</ele>
        <time>2025-04-27T10:29:43Z</time>
      </trkpt>
      <trkpt lat="43.015725994482636" lon="-1.481676986441016">
        <ele>811.49000000000001</ele>
        <time>2025-04-27T10:29:46Z</time>
      </trkpt>
      <trkpt lat="43.015708979219198" lon="-1.481829034164548">
        <ele>810.04999999999995</ele>
        <time>2025-04-27T10:29:47Z</time>
      </trkpt>
      <trkpt lat="43.015670003369451" lon="-1.482018968090415">
        <ele>809.09000000000003</ele>
        <time>2025-04-27T10:29:48Z</time>
      </trkpt>
      <trkpt lat="43.015488032251596" lon="-1.482896972447634">
        <ele>803.79999999999995</ele>
        <time>2025-04-27T10:29:53Z</time>
      </trkpt>
      <trkpt lat="43.015499012544751" lon="-1.483149016276002">
        <ele>802.84000000000003</ele>
        <time>2025-04-27T10:29:54Z</time>
      </trkpt>
      <trkpt lat="43.015507981181145" lon="-1.483342973515391">
        <ele>801.88</ele>
        <time>2025-04-27T10:29:55Z</time>
      </trkpt>
      <trkpt lat="43.015518039464951" lon="-1.483550006523728">
        <ele>800.91999999999996</ele>
        <time>2025-04-27T10:29:56Z</time>
      </trkpt>
      <trkpt lat="43.015528013929725" lon="-1.483753016218543">
        <ele>799.95000000000005</ele>
        <time>2025-04-27T10:29:57Z</time>
      </trkpt>
      <trkpt lat="43.01564603112638" lon="-1.484300019219518">
        <ele>798.02999999999997</ele>
        <time>2025-04-27T10:30:00Z</time>
      </trkpt>
      <trkpt lat="43.015659023076296" lon="-1.484356010332704">
        <ele>797.07000000000005</ele>
        <time>2025-04-27T10:30:01Z</time>
      </trkpt>
      <trkpt lat="43.015777040272951" lon="-1.484529012814164">
        <ele>796.11000000000001</ele>
        <time>2025-04-27T10:30:02Z</time>
      </trkpt>
      <trkpt lat="43.015943001955748" lon="-1.484774015843868">
        <ele>794.66999999999996</ele>
        <time>2025-04-27T10:30:04Z</time>
      </trkpt>
      <trkpt lat="43.016022965312004" lon="-1.484891027212143">
        <ele>793.22000000000003</ele>
        <time>2025-04-27T10:30:05Z</time>
      </trkpt>
      <trkpt lat="43.016090020537376" lon="-1.485042991116643">
        <ele>792.74000000000001</ele>
        <time>2025-04-27T10:30:06Z</time>
      </trkpt>
      <trkpt lat="43.016151040792465" lon="-1.485181963071227">
        <ele>791.77999999999997</ele>
        <time>2025-04-27T10:30:07Z</time>
      </trkpt>
      <trkpt lat="43.016188004985452" lon="-1.485339961946011">
        <ele>790.82000000000005</ele>
        <time>2025-04-27T10:30:08Z</time>
      </trkpt>
      <trkpt lat="43.016206026077271" lon="-1.485476000234485">
        <ele>789.86000000000001</ele>
        <time>2025-04-27T10:30:09Z</time>
      </trkpt>
      <trkpt lat="43.016223041340709" lon="-1.485607009381056">
        <ele>788.89999999999998</ele>
        <time>2025-04-27T10:30:10Z</time>
      </trkpt>
      <trkpt lat="43.016237961128354" lon="-1.485740030184388">
        <ele>788.89999999999998</ele>
        <time>2025-04-27T10:30:11Z</time>
      </trkpt>
      <trkpt lat="43.016224969178438" lon="-1.485889982432127">
        <ele>788.89999999999998</ele>
        <time>2025-04-27T10:30:12Z</time>
      </trkpt>
      <trkpt lat="43.016211977228522" lon="-1.486055022105575">
        <ele>789.38</ele>
        <time>2025-04-27T10:30:13Z</time>
      </trkpt>
      <trkpt lat="43.016197979450226" lon="-1.486221989616752">
        <ele>789.86000000000001</ele>
        <time>2025-04-27T10:30:14Z</time>
      </trkpt>
      <trkpt lat="43.016027994453907" lon="-1.487042997032404">
        <ele>792.25999999999999</ele>
        <time>2025-04-27T10:30:19Z</time>
      </trkpt>
      <trkpt lat="43.015989018604159" lon="-1.487209964543581">
        <ele>792.25999999999999</ele>
        <time>2025-04-27T10:30:20Z</time>
      </trkpt>
      <trkpt lat="43.01594995893538" lon="-1.487372992560267">
        <ele>792.74000000000001</ele>
        <time>2025-04-27T10:30:21Z</time>
      </trkpt>
      <trkpt lat="43.015851974487305" lon="-1.487788986414671">
        <ele>792.74000000000001</ele>
        <time>2025-04-27T10:30:24Z</time>
      </trkpt>
      <trkpt lat="43.01590695977211" lon="-1.487973975017667">
        <ele>792.25999999999999</ele>
        <time>2025-04-27T10:30:25Z</time>
      </trkpt>
      <trkpt lat="43.015935961157084" lon="-1.488071959465742">
        <ele>792.25999999999999</ele>
        <time>2025-04-27T10:30:26Z</time>
      </trkpt>
      <trkpt lat="43.015993963927031" lon="-1.488266000524163">
        <ele>790.82000000000005</ele>
        <time>2025-04-27T10:30:28Z</time>
      </trkpt>
      <trkpt lat="43.016054984182119" lon="-1.488505974411964">
        <ele>790.34000000000003</ele>
        <time>2025-04-27T10:30:29Z</time>
      </trkpt>
      <trkpt lat="43.016085997223854" lon="-1.488641006872058">
        <ele>787.46000000000004</ele>
        <time>2025-04-27T10:30:31Z</time>
      </trkpt>
      <trkpt lat="43.016120027750731" lon="-1.488790037110448">
        <ele>786.5</ele>
        <time>2025-04-27T10:30:32Z</time>
      </trkpt>
      <trkpt lat="43.016147017478943" lon="-1.488960022106767">
        <ele>785.52999999999997</ele>
        <time>2025-04-27T10:30:33Z</time>
      </trkpt>
      <trkpt lat="43.016194039955735" lon="-1.489319019019604">
        <ele>784.09000000000003</ele>
        <time>2025-04-27T10:30:34Z</time>
      </trkpt>
      <trkpt lat="43.016209965571761" lon="-1.489515993744135">
        <ele>783.61000000000001</ele>
        <time>2025-04-27T10:30:35Z</time>
      </trkpt>
      <trkpt lat="43.016209965571761" lon="-1.489515993744135">
        <ele>783.13</ele>
        <time>2025-04-27T10:30:36Z</time>
      </trkpt>
      <trkpt lat="43.016222035512328" lon="-1.489716991782188">
        <ele>782.64999999999998</ele>
        <time>2025-04-27T10:30:37Z</time>
      </trkpt>
      <trkpt lat="43.016276014968753" lon="-1.490964973345399">
        <ele>779.28999999999996</ele>
        <time>2025-04-27T10:30:43Z</time>
      </trkpt>
      <trkpt lat="43.016284983605146" lon="-1.49118198081851">
        <ele>778.80999999999995</ele>
        <time>2025-04-27T10:30:44Z</time>
      </trkpt>
      <trkpt lat="43.016295041888952" lon="-1.491393037140369">
        <ele>778.80999999999995</ele>
        <time>2025-04-27T10:30:45Z</time>
      </trkpt>
      <trkpt lat="43.016303004696965" lon="-1.491586994379759">
        <ele>778.32000000000005</ele>
        <time>2025-04-27T10:30:46Z</time>
      </trkpt>
      <trkpt lat="43.016249025240541" lon="-1.491762008517981">
        <ele>777.84000000000003</ele>
        <time>2025-04-27T10:30:47Z</time>
      </trkpt>
      <trkpt lat="43.016196973621845" lon="-1.491929981857538">
        <ele>777.36000000000001</ele>
        <time>2025-04-27T10:30:48Z</time>
      </trkpt>
      <trkpt lat="43.016143999993801" lon="-1.492100972682238">
        <ele>776.88</ele>
        <time>2025-04-27T10:30:49Z</time>
      </trkpt>
      <trkpt lat="43.016093038022518" lon="-1.492265006527305">
        <ele>776.88</ele>
        <time>2025-04-27T10:30:50Z</time>
      </trkpt>
      <trkpt lat="43.016041992232203" lon="-1.492430968210101">
        <ele>776.88</ele>
        <time>2025-04-27T10:30:51Z</time>
      </trkpt>
      <trkpt lat="43.016018019989133" lon="-1.492621991783381">
        <ele>776.39999999999998</ele>
        <time>2025-04-27T10:30:52Z</time>
      </trkpt>
      <trkpt lat="43.016008967533708" lon="-1.492811003699899">
        <ele>775.91999999999996</ele>
        <time>2025-04-27T10:30:53Z</time>
      </trkpt>
      <trkpt lat="43.016017014160752" lon="-1.492978977039456">
        <ele>775.44000000000005</ele>
        <time>2025-04-27T10:30:54Z</time>
      </trkpt>
      <trkpt lat="43.016077028587461" lon="-1.493139993399382">
        <ele>774.96000000000004</ele>
        <time>2025-04-27T10:30:55Z</time>
      </trkpt>
      <trkpt lat="43.016137965023518" lon="-1.49330603890121">
        <ele>774.48000000000002</ele>
        <time>2025-04-27T10:30:56Z</time>
      </trkpt>
      <trkpt lat="43.016231004148722" lon="-1.493448028340936">
        <ele>774</ele>
        <time>2025-04-27T10:30:57Z</time>
      </trkpt>
      <trkpt lat="43.016338041052222" lon="-1.4935880061239">
        <ele>773.03999999999996</ele>
        <time>2025-04-27T10:30:58Z</time>
      </trkpt>
      <trkpt lat="43.016456980258226" lon="-1.49369403719902">
        <ele>772.55999999999995</ele>
        <time>2025-04-27T10:30:59Z</time>
      </trkpt>
      <trkpt lat="43.016591006889939" lon="-1.493795961141586">
        <ele>771.60000000000002</ele>
        <time>2025-04-27T10:31:00Z</time>
      </trkpt>
      <trkpt lat="43.01672201603651" lon="-1.493896963074803">
        <ele>770.63</ele>
        <time>2025-04-27T10:31:01Z</time>
      </trkpt>
      <trkpt lat="43.016844978556037" lon="-1.493991008028388">
        <ele>769.66999999999996</ele>
        <time>2025-04-27T10:31:02Z</time>
      </trkpt>
      <trkpt lat="43.017097022384405" lon="-1.494183959439397">
        <ele>768.71000000000004</ele>
        <time>2025-04-27T10:31:03Z</time>
      </trkpt>
      <trkpt lat="43.017142033204436" lon="-1.494244979694486">
        <ele>767.75</ele>
        <time>2025-04-27T10:31:04Z</time>
      </trkpt>
      <trkpt lat="43.017228031530976" lon="-1.494362996891141">
        <ele>766.30999999999995</ele>
        <time>2025-04-27T10:31:05Z</time>
      </trkpt>
      <trkpt lat="43.017289973795414" lon="-1.494633983820677">
        <ele>765.35000000000002</ele>
        <time>2025-04-27T10:31:06Z</time>
      </trkpt>
      <trkpt lat="43.017234988510609" lon="-1.494909999892116">
        <ele>764.38999999999999</ele>
        <time>2025-04-27T10:31:07Z</time>
      </trkpt>
      <trkpt lat="43.017226019874215" lon="-1.494956016540527">
        <ele>763.89999999999998</ele>
        <time>2025-04-27T10:31:09Z</time>
      </trkpt>
      <trkpt lat="43.017226019874215" lon="-1.494956016540527">
        <ele>763.41999999999996</ele>
        <time>2025-04-27T10:31:10Z</time>
      </trkpt>
      <trkpt lat="43.017226019874215" lon="-1.494956016540527">
        <ele>762.46000000000004</ele>
        <time>2025-04-27T10:31:11Z</time>
      </trkpt>
      <trkpt lat="43.017054023221135" lon="-1.495214011520147">
        <ele>760.53999999999996</ele>
        <time>2025-04-27T10:31:12Z</time>
      </trkpt>
      <trkpt lat="43.017054023221135" lon="-1.495214011520147">
        <ele>759.10000000000002</ele>
        <time>2025-04-27T10:31:13Z</time>
      </trkpt>
      <trkpt lat="43.016870962455869" lon="-1.495396988466382">
        <ele>757.65999999999997</ele>
        <time>2025-04-27T10:31:14Z</time>
      </trkpt>
      <trkpt lat="43.016734002158046" lon="-1.495548030361533">
        <ele>756.69000000000005</ele>
        <time>2025-04-27T10:31:15Z</time>
      </trkpt>
      <trkpt lat="43.016419010236859" lon="-1.495983973145485">
        <ele>753.80999999999995</ele>
        <time>2025-04-27T10:31:18Z</time>
      </trkpt>
      <trkpt lat="43.016146011650562" lon="-1.496370965614915">
        <ele>750.45000000000005</ele>
        <time>2025-04-27T10:31:21Z</time>
      </trkpt>
      <trkpt lat="43.015789026394486" lon="-1.496899025514722">
        <ele>749</ele>
        <time>2025-04-27T10:31:25Z</time>
      </trkpt>
      <trkpt lat="43.015692969784141" lon="-1.497041014954448">
        <ele>748.51999999999998</ele>
        <time>2025-04-27T10:31:26Z</time>
      </trkpt>
      <trkpt lat="43.015217967331409" lon="-1.497773006558418">
        <ele>747.08000000000004</ele>
        <time>2025-04-27T10:31:31Z</time>
      </trkpt>
      <trkpt lat="43.015012023970485" lon="-1.497983979061246">
        <ele>746.12</ele>
        <time>2025-04-27T10:31:33Z</time>
      </trkpt>
      <trkpt lat="43.014657972380519" lon="-1.498336018994451">
        <ele>744.67999999999995</ele>
        <time>2025-04-27T10:31:37Z</time>
      </trkpt>
      <trkpt lat="43.014651015400887" lon="-1.498345993459225">
        <ele>744.20000000000005</ele>
        <time>2025-04-27T10:31:38Z</time>
      </trkpt>
      <trkpt lat="43.01465998403728" lon="-1.498496029525995">
        <ele>744.20000000000005</ele>
        <time>2025-04-27T10:31:39Z</time>
      </trkpt>
      <trkpt lat="43.014669958502054" lon="-1.498654028400779">
        <ele>743.72000000000003</ele>
        <time>2025-04-27T10:31:40Z</time>
      </trkpt>
      <trkpt lat="43.014696026220918" lon="-1.498769028112292">
        <ele>743.72000000000003</ele>
        <time>2025-04-27T10:31:41Z</time>
      </trkpt>
      <trkpt lat="43.014743970707059" lon="-1.498934989795089">
        <ele>742.75999999999999</ele>
        <time>2025-04-27T10:31:42Z</time>
      </trkpt>
      <trkpt lat="43.014786969870329" lon="-1.499157026410103">
        <ele>742.75999999999999</ele>
        <time>2025-04-27T10:31:43Z</time>
      </trkpt>
      <trkpt lat="43.014793004840612" lon="-1.499393982812762">
        <ele>742.75999999999999</ele>
        <time>2025-04-27T10:31:44Z</time>
      </trkpt>
      <trkpt lat="43.014769032597542" lon="-1.499562039971352">
        <ele>743.72000000000003</ele>
        <time>2025-04-27T10:31:45Z</time>
      </trkpt>
      <trkpt lat="43.014743970707059" lon="-1.499745016917586">
        <ele>744.67999999999995</ele>
        <time>2025-04-27T10:31:46Z</time>
      </trkpt>
      <trkpt lat="43.014714969322085" lon="-1.499952971935272">
        <ele>745.15999999999997</ele>
        <time>2025-04-27T10:31:47Z</time>
      </trkpt>
      <trkpt lat="43.014684962108731" lon="-1.500164028257132">
        <ele>746.12</ele>
        <time>2025-04-27T10:31:48Z</time>
      </trkpt>
      <trkpt lat="43.014563005417585" lon="-1.500574992969632">
        <ele>746.60000000000002</ele>
        <time>2025-04-27T10:31:50Z</time>
      </trkpt>
      <trkpt lat="43.014393020421267" lon="-1.501071033999324">
        <ele>747.55999999999995</ele>
        <time>2025-04-27T10:31:53Z</time>
      </trkpt>
      <trkpt lat="43.014361001551151" lon="-1.501330034807324">
        <ele>748.03999999999996</ele>
        <time>2025-04-27T10:31:54Z</time>
      </trkpt>
      <trkpt lat="43.014350021257997" lon="-1.501415027305484">
        <ele>748.51999999999998</ele>
        <time>2025-04-27T10:31:55Z</time>
      </trkpt>
      <trkpt lat="43.014368964359164" lon="-1.501689031720161">
        <ele>748.51999999999998</ele>
        <time>2025-04-27T10:31:56Z</time>
      </trkpt>
      <trkpt lat="43.014382962137461" lon="-1.501910984516144">
        <ele>748.51999999999998</ele>
        <time>2025-04-27T10:31:57Z</time>
      </trkpt>
      <trkpt lat="43.01437801681459" lon="-1.503516035154462">
        <ele>742.27999999999997</ele>
        <time>2025-04-27T10:32:04Z</time>
      </trkpt>
      <trkpt lat="43.014276009052992" lon="-1.50435196235776">
        <ele>737.47000000000003</ele>
        <time>2025-04-27T10:32:08Z</time>
      </trkpt>
      <trkpt lat="43.014227980747819" lon="-1.504751024767757">
        <ele>734.58000000000004</ele>
        <time>2025-04-27T10:32:10Z</time>
      </trkpt>
      <trkpt lat="43.014199985191226" lon="-1.504977000877261">
        <ele>733.62</ele>
        <time>2025-04-27T10:32:11Z</time>
      </trkpt>
      <trkpt lat="43.014210965484381" lon="-1.505184033885598">
        <ele>731.70000000000005</ele>
        <time>2025-04-27T10:32:12Z</time>
      </trkpt>
      <trkpt lat="43.014644980430603" lon="-1.507262997329235">
        <ele>720.64999999999998</ele>
        <time>2025-04-27T10:32:22Z</time>
      </trkpt>
      <trkpt lat="43.014679010957479" lon="-1.507412027567625">
        <ele>720.15999999999997</ele>
        <time>2025-04-27T10:32:23Z</time>
      </trkpt>
      <trkpt lat="43.014714969322085" lon="-1.507572960108519">
        <ele>719.67999999999995</ele>
        <time>2025-04-27T10:32:24Z</time>
      </trkpt>
      <trkpt lat="43.014718992635608" lon="-1.507611013948917">
        <ele>718.72000000000003</ele>
        <time>2025-04-27T10:32:25Z</time>
      </trkpt>
      <trkpt lat="43.014737013727427" lon="-1.507808994501829">
        <ele>718.24000000000001</ele>
        <time>2025-04-27T10:32:26Z</time>
      </trkpt>
      <trkpt lat="43.014731984585524" lon="-1.507831960916519">
        <ele>717.27999999999997</ele>
        <time>2025-04-27T10:32:27Z</time>
      </trkpt>
      <trkpt lat="43.014710023999214" lon="-1.507952995598316">
        <ele>716.79999999999995</ele>
        <time>2025-04-27T10:32:28Z</time>
      </trkpt>
      <trkpt lat="43.014671970158815" lon="-1.508323978632689">
        <ele>715.84000000000003</ele>
        <time>2025-04-27T10:32:30Z</time>
      </trkpt>
      <trkpt lat="43.014726033434272" lon="-1.508381981402636">
        <ele>715.36000000000001</ele>
        <time>2025-04-27T10:32:31Z</time>
      </trkpt>
      <trkpt lat="43.014893000945449" lon="-1.50856202468276">
        <ele>713.91999999999996</ele>
        <time>2025-04-27T10:32:33Z</time>
      </trkpt>
      <trkpt lat="43.015039013698697" lon="-1.508665038272739">
        <ele>712.95000000000005</ele>
        <time>2025-04-27T10:32:34Z</time>
      </trkpt>
      <trkpt lat="43.015149990096688" lon="-1.508716000244021">
        <ele>711.99000000000001</ele>
        <time>2025-04-27T10:32:35Z</time>
      </trkpt>
      <trkpt lat="43.015480991452932" lon="-1.50869102217257">
        <ele>710.07000000000005</ele>
        <time>2025-04-27T10:32:37Z</time>
      </trkpt>
      <trkpt lat="43.015724988654256" lon="-1.508599994704127">
        <ele>708.14999999999998</ele>
        <time>2025-04-27T10:32:39Z</time>
      </trkpt>
      <trkpt lat="43.015792965888977" lon="-1.508592031896114">
        <ele>707.19000000000005</ele>
        <time>2025-04-27T10:32:40Z</time>
      </trkpt>
      <trkpt lat="43.015873013064265" lon="-1.508623966947198">
        <ele>705.75</ele>
        <time>2025-04-27T10:32:41Z</time>
      </trkpt>
      <trkpt lat="43.015890028327703" lon="-1.508660009130836">
        <ele>704.29999999999995</ele>
        <time>2025-04-27T10:32:42Z</time>
      </trkpt>
      <trkpt lat="43.015930010005832" lon="-1.508748019114137">
        <ele>702.86000000000001</ele>
        <time>2025-04-27T10:32:43Z</time>
      </trkpt>
      <trkpt lat="43.015980971977115" lon="-1.508861007168889">
        <ele>701.89999999999998</ele>
        <time>2025-04-27T10:32:44Z</time>
      </trkpt>
      <trkpt lat="43.015980971977115" lon="-1.508924039080739">
        <ele>700.46000000000004</ele>
        <time>2025-04-27T10:32:45Z</time>
      </trkpt>
      <trkpt lat="43.015980971977115" lon="-1.509038032963872">
        <ele>699.5</ele>
        <time>2025-04-27T10:32:46Z</time>
      </trkpt>
      <trkpt lat="43.015980971977115" lon="-1.509160995483398">
        <ele>699.01999999999998</ele>
        <time>2025-04-27T10:32:47Z</time>
      </trkpt>
      <trkpt lat="43.015935961157084" lon="-1.509221009910107">
        <ele>698.04999999999995</ele>
        <time>2025-04-27T10:32:48Z</time>
      </trkpt>
      <trkpt lat="43.015851974487305" lon="-1.509332992136478">
        <ele>697.57000000000005</ele>
        <time>2025-04-27T10:32:49Z</time>
      </trkpt>
      <trkpt lat="43.015791038051248" lon="-1.509344978258014">
        <ele>697.09000000000003</ele>
        <time>2025-04-27T10:32:50Z</time>
      </trkpt>
      <trkpt lat="43.015548968687654" lon="-1.509396024048328">
        <ele>695.64999999999998</ele>
        <time>2025-04-27T10:32:52Z</time>
      </trkpt>
      <trkpt lat="43.015405973419547" lon="-1.509426031261683">
        <ele>694.69000000000005</ele>
        <time>2025-04-27T10:32:53Z</time>
      </trkpt>
      <trkpt lat="43.015113025903702" lon="-1.509518986567855">
        <ele>692.76999999999998</ele>
        <time>2025-04-27T10:32:55Z</time>
      </trkpt>
      <trkpt lat="43.014961984008551" lon="-1.509571960195899">
        <ele>692.28999999999996</ele>
        <time>2025-04-27T10:32:56Z</time>
      </trkpt>
      <trkpt lat="43.014667024835944" lon="-1.5096789970994">
        <ele>690.84000000000003</ele>
        <time>2025-04-27T10:32:58Z</time>
      </trkpt>
      <trkpt lat="43.014523023739457" lon="-1.509729959070683">
        <ele>690.36000000000001</ele>
        <time>2025-04-27T10:32:59Z</time>
      </trkpt>
      <trkpt lat="43.01440198905766" lon="-1.50978796184063">
        <ele>689.39999999999998</ele>
        <time>2025-04-27T10:33:00Z</time>
      </trkpt>
      <trkpt lat="43.014289001002908" lon="-1.509875971823931">
        <ele>688.91999999999996</ele>
        <time>2025-04-27T10:33:01Z</time>
      </trkpt>
      <trkpt lat="43.014203002676368" lon="-1.509991977363825">
        <ele>688.44000000000005</ele>
        <time>2025-04-27T10:33:02Z</time>
      </trkpt>
      <trkpt lat="43.014129996299744" lon="-1.510138995945454">
        <ele>687.96000000000004</ele>
        <time>2025-04-27T10:33:03Z</time>
      </trkpt>
      <trkpt lat="43.014081967994571" lon="-1.510311998426914">
        <ele>687.48000000000002</ele>
        <time>2025-04-27T10:33:04Z</time>
      </trkpt>
      <trkpt lat="43.014048021286726" lon="-1.510493969544768">
        <ele>687.48000000000002</ele>
        <time>2025-04-27T10:33:05Z</time>
      </trkpt>
      <trkpt lat="43.014039974659681" lon="-1.51068801060319">
        <ele>687</ele>
        <time>2025-04-27T10:33:06Z</time>
      </trkpt>
      <trkpt lat="43.014028994366527" lon="-1.510941982269287">
        <ele>687</ele>
        <time>2025-04-27T10:33:07Z</time>
      </trkpt>
      <trkpt lat="43.01403796300292" lon="-1.511104004457593">
        <ele>686.51999999999998</ele>
        <time>2025-04-27T10:33:08Z</time>
      </trkpt>
      <trkpt lat="43.014084985479712" lon="-1.511909002438188">
        <ele>685.55999999999995</ele>
        <time>2025-04-27T10:33:12Z</time>
      </trkpt>
      <trkpt lat="43.014086997136474" lon="-1.512087034061551">
        <ele>685.55999999999995</ele>
        <time>2025-04-27T10:33:13Z</time>
      </trkpt>
      <trkpt lat="43.014065036550164" lon="-1.51225701905787">
        <ele>685.08000000000004</ele>
        <time>2025-04-27T10:33:14Z</time>
      </trkpt>
      <trkpt lat="43.014045003801584" lon="-1.512417029589415">
        <ele>685.55999999999995</ele>
        <time>2025-04-27T10:33:15Z</time>
      </trkpt>
      <trkpt lat="43.014024971053004" lon="-1.512577962130308">
        <ele>685.55999999999995</ele>
        <time>2025-04-27T10:33:16Z</time>
      </trkpt>
      <trkpt lat="43.014005022123456" lon="-1.512740990146995">
        <ele>685.55999999999995</ele>
        <time>2025-04-27T10:33:17Z</time>
      </trkpt>
      <trkpt lat="43.013980966061354" lon="-1.512910975143313">
        <ele>685.55999999999995</ele>
        <time>2025-04-27T10:33:18Z</time>
      </trkpt>
      <trkpt lat="43.013937966898084" lon="-1.513084983453155">
        <ele>685.08000000000004</ele>
        <time>2025-04-27T10:33:19Z</time>
      </trkpt>
      <trkpt lat="43.013769993558526" lon="-1.513627963140607">
        <ele>684.12</ele>
        <time>2025-04-27T10:33:22Z</time>
      </trkpt>
      <trkpt lat="43.013681983575225" lon="-1.513797026127577">
        <ele>684.12</ele>
        <time>2025-04-27T10:33:23Z</time>
      </trkpt>
      <trkpt lat="43.012584960088134" lon="-1.515147015452385">
        <ele>680.26999999999998</ele>
        <time>2025-04-27T10:33:32Z</time>
      </trkpt>
      <trkpt lat="43.012460991740227" lon="-1.515283975750208">
        <ele>679.30999999999995</ele>
        <time>2025-04-27T10:33:33Z</time>
      </trkpt>
      <trkpt lat="43.012181958183646" lon="-1.515524033457041">
        <ele>678.35000000000002</ele>
        <time>2025-04-27T10:33:35Z</time>
      </trkpt>
      <trkpt lat="43.012028988450766" lon="-1.515600979328156">
        <ele>677.87</ele>
        <time>2025-04-27T10:33:36Z</time>
      </trkpt>
      <trkpt lat="43.011869983747602" lon="-1.515620006248355">
        <ele>676.90999999999997</ele>
        <time>2025-04-27T10:33:37Z</time>
      </trkpt>
      <trkpt lat="43.011704022064805" lon="-1.515620006248355">
        <ele>676.41999999999996</ele>
        <time>2025-04-27T10:33:38Z</time>
      </trkpt>
      <trkpt lat="43.011534037068486" lon="-1.515584969893098">
        <ele>676.41999999999996</ele>
        <time>2025-04-27T10:33:39Z</time>
      </trkpt>
      <trkpt lat="43.011362040415406" lon="-1.515530990436673">
        <ele>675.46000000000004</ele>
        <time>2025-04-27T10:33:40Z</time>
      </trkpt>
      <trkpt lat="43.011205969378352" lon="-1.515433005988598">
        <ele>674.98000000000002</ele>
        <time>2025-04-27T10:33:41Z</time>
      </trkpt>
      <trkpt lat="43.010338023304939" lon="-1.514911986887455">
        <ele>672.58000000000004</ele>
        <time>2025-04-27T10:33:47Z</time>
      </trkpt>
      <trkpt lat="43.010171977803111" lon="-1.514886002987623">
        <ele>672.10000000000002</ele>
        <time>2025-04-27T10:33:48Z</time>
      </trkpt>
      <trkpt lat="43.01001800224185" lon="-1.514868987724185">
        <ele>671.62</ele>
        <time>2025-04-27T10:33:49Z</time>
      </trkpt>
      <trkpt lat="43.009860003367066" lon="-1.514868987724185">
        <ele>671.13999999999999</ele>
        <time>2025-04-27T10:33:50Z</time>
      </trkpt>
      <trkpt lat="43.00973704084754" lon="-1.514868987724185">
        <ele>670.17999999999995</ele>
        <time>2025-04-27T10:33:51Z</time>
      </trkpt>
      <trkpt lat="43.009387012571096" lon="-1.514972001314163">
        <ele>669.22000000000003</ele>
        <time>2025-04-27T10:33:53Z</time>
      </trkpt>
      <trkpt lat="43.008956015110016" lon="-1.515263020992279">
        <ele>668.25</ele>
        <time>2025-04-27T10:33:56Z</time>
      </trkpt>
      <trkpt lat="43.008815031498671" lon="-1.515405010432005">
        <ele>667.76999999999998</ele>
        <time>2025-04-27T10:33:57Z</time>
      </trkpt>
      <trkpt lat="43.008564999327064" lon="-1.515704998746514">
        <ele>666.80999999999995</ele>
        <time>2025-04-27T10:33:59Z</time>
      </trkpt>
      <trkpt lat="43.008310021832585" lon="-1.51612401008606">
        <ele>666.33000000000004</ele>
        <time>2025-04-27T10:34:01Z</time>
      </trkpt>
      <trkpt lat="43.007985977455974" lon="-1.516776960343123">
        <ele>663.45000000000005</ele>
        <time>2025-04-27T10:34:04Z</time>
      </trkpt>
      <trkpt lat="43.00786997191608" lon="-1.517015006393194">
        <ele>662.97000000000003</ele>
        <time>2025-04-27T10:34:05Z</time>
      </trkpt>
      <trkpt lat="43.007763018831611" lon="-1.517179040238261">
        <ele>662.00999999999999</ele>
        <time>2025-04-27T10:34:06Z</time>
      </trkpt>
      <trkpt lat="43.007645001634955" lon="-1.517360005527735">
        <ele>661.51999999999998</ele>
        <time>2025-04-27T10:34:07Z</time>
      </trkpt>
      <trkpt lat="43.007531007751822" lon="-1.517523033544421">
        <ele>661.03999999999996</ele>
        <time>2025-04-27T10:34:08Z</time>
      </trkpt>
      <trkpt lat="43.007386000826955" lon="-1.51765001937747">
        <ele>661.03999999999996</ele>
        <time>2025-04-27T10:34:09Z</time>
      </trkpt>
      <trkpt lat="43.007236970588565" lon="-1.517780022695661">
        <ele>660.55999999999995</ele>
        <time>2025-04-27T10:34:10Z</time>
      </trkpt>
      <trkpt lat="43.006037017330527" lon="-1.518315961584449">
        <ele>657.67999999999995</ele>
        <time>2025-04-27T10:34:17Z</time>
      </trkpt>
      <trkpt lat="43.005854040384293" lon="-1.518373964354396">
        <ele>657.67999999999995</ele>
        <time>2025-04-27T10:34:18Z</time>
      </trkpt>
      <trkpt lat="43.005659999325871" lon="-1.518410006538034">
        <ele>657.20000000000005</ele>
        <time>2025-04-27T10:34:19Z</time>
      </trkpt>
      <trkpt lat="43.005274012684822" lon="-1.518481001257896">
        <ele>657.20000000000005</ele>
        <time>2025-04-27T10:34:21Z</time>
      </trkpt>
      <trkpt lat="43.004890959709883" lon="-1.518507990986109">
        <ele>656.72000000000003</ele>
        <time>2025-04-27T10:34:23Z</time>
      </trkpt>
      <trkpt lat="43.003504006192088" lon="-1.518095014616847">
        <ele>655.27999999999997</ele>
        <time>2025-04-27T10:34:29Z</time>
      </trkpt>
      <trkpt lat="43.002033988013864" lon="-1.517332009971142">
        <ele>649.02999999999997</ele>
        <time>2025-04-27T10:34:37Z</time>
      </trkpt>
      <trkpt lat="43.000890025869012" lon="-1.517277024686337">
        <ele>642.77999999999997</ele>
        <time>2025-04-27T10:34:43Z</time>
      </trkpt>
      <trkpt lat="43.000723980367184" lon="-1.517310971394181">
        <ele>641.34000000000003</ele>
        <time>2025-04-27T10:34:44Z</time>
      </trkpt>
      <trkpt lat="42.999430987983942" lon="-1.517813969403505">
        <ele>633.16999999999996</ele>
        <time>2025-04-27T10:34:52Z</time>
      </trkpt>
      <trkpt lat="42.998940981924534" lon="-1.517983032390475">
        <ele>630.75999999999999</ele>
        <time>2025-04-27T10:34:55Z</time>
      </trkpt>
      <trkpt lat="42.998940981924534" lon="-1.517983032390475">
        <ele>630.27999999999997</ele>
        <time>2025-04-27T10:34:56Z</time>
      </trkpt>
      <trkpt lat="42.998750964179635" lon="-1.518023014068604">
        <ele>629.79999999999995</ele>
        <time>2025-04-27T10:34:57Z</time>
      </trkpt>
      <trkpt lat="42.998616015538573" lon="-1.517996024340391">
        <ele>629.32000000000005</ele>
        <time>2025-04-27T10:34:58Z</time>
      </trkpt>
      <trkpt lat="42.998429015278816" lon="-1.517958976328373">
        <ele>628.84000000000003</ele>
        <time>2025-04-27T10:34:59Z</time>
      </trkpt>
      <trkpt lat="42.998288031667471" lon="-1.517898039892316">
        <ele>628.36000000000001</ele>
        <time>2025-04-27T10:35:00Z</time>
      </trkpt>
      <trkpt lat="42.998145036399364" lon="-1.517796032130718">
        <ele>628.36000000000001</ele>
        <time>2025-04-27T10:35:01Z</time>
      </trkpt>
      <trkpt lat="42.998003968968987" lon="-1.517692012712359">
        <ele>628.36000000000001</ele>
        <time>2025-04-27T10:35:02Z</time>
      </trkpt>
      <trkpt lat="42.9978599678725" lon="-1.517581958323717">
        <ele>628.36000000000001</ele>
        <time>2025-04-27T10:35:03Z</time>
      </trkpt>
      <trkpt lat="42.996648028492928" lon="-1.516199028119445">
        <ele>627.88</ele>
        <time>2025-04-27T10:35:12Z</time>
      </trkpt>
      <trkpt lat="42.996370000764728" lon="-1.515891999006271">
        <ele>628.84000000000003</ele>
        <time>2025-04-27T10:35:14Z</time>
      </trkpt>
      <trkpt lat="42.996230022981763" lon="-1.515736011788249">
        <ele>629.32000000000005</ele>
        <time>2025-04-27T10:35:15Z</time>
      </trkpt>
      <trkpt lat="42.996090967208147" lon="-1.515582036226988">
        <ele>629.79999999999995</ele>
        <time>2025-04-27T10:35:16Z</time>
      </trkpt>
      <trkpt lat="42.995942020788789" lon="-1.515443986281753">
        <ele>630.27999999999997</ele>
        <time>2025-04-27T10:35:17Z</time>
      </trkpt>
      <trkpt lat="42.995786033570766" lon="-1.51530995965004">
        <ele>631.24000000000001</ele>
        <time>2025-04-27T10:35:18Z</time>
      </trkpt>
      <trkpt lat="42.995431981980801" lon="-1.515154978260398">
        <ele>631.72000000000003</ele>
        <time>2025-04-27T10:35:19Z</time>
      </trkpt>
      <trkpt lat="42.995253028348088" lon="-1.515084989368916">
        <ele>632.20000000000005</ele>
        <time>2025-04-27T10:35:20Z</time>
      </trkpt>
      <trkpt lat="42.995062004774809" lon="-1.515019023790956">
        <ele>632.67999999999995</ele>
        <time>2025-04-27T10:35:21Z</time>
      </trkpt>
      <trkpt lat="42.994867041707039" lon="-1.515019023790956">
        <ele>632.67999999999995</ele>
        <time>2025-04-27T10:35:22Z</time>
      </trkpt>
      <trkpt lat="42.994688004255295" lon="-1.515019023790956">
        <ele>633.16999999999996</ele>
        <time>2025-04-27T10:35:24Z</time>
      </trkpt>
      <trkpt lat="42.994338981807232" lon="-1.51504903100431">
        <ele>633.64999999999998</ele>
        <time>2025-04-27T10:35:26Z</time>
      </trkpt>
      <trkpt lat="42.994165979325771" lon="-1.51509203016758">
        <ele>634.13</ele>
        <time>2025-04-27T10:35:27Z</time>
      </trkpt>
      <trkpt lat="42.993998005986214" lon="-1.515169981867075">
        <ele>634.61000000000001</ele>
        <time>2025-04-27T10:35:28Z</time>
      </trkpt>
      <trkpt lat="42.99366700462997" lon="-1.515364022925496">
        <ele>635.09000000000003</ele>
        <time>2025-04-27T10:35:30Z</time>
      </trkpt>
      <trkpt lat="42.992160022258759" lon="-1.516418969258666">
        <ele>635.57000000000005</ele>
        <time>2025-04-27T10:35:39Z</time>
      </trkpt>
      <trkpt lat="42.991995988413692" lon="-1.51651200838387">
        <ele>635.57000000000005</ele>
        <time>2025-04-27T10:35:40Z</time>
      </trkpt>
      <trkpt lat="42.99184201285243" lon="-1.516600018367171">
        <ele>635.57000000000005</ele>
        <time>2025-04-27T10:35:41Z</time>
      </trkpt>
      <trkpt lat="42.991693988442421" lon="-1.516646035015583">
        <ele>635.57000000000005</ele>
        <time>2025-04-27T10:35:42Z</time>
      </trkpt>
      <trkpt lat="42.991533977910876" lon="-1.516637988388538">
        <ele>635.09000000000003</ele>
        <time>2025-04-27T10:35:43Z</time>
      </trkpt>
      <trkpt lat="42.99136902205646" lon="-1.516628013923764">
        <ele>634.61000000000001</ele>
        <time>2025-04-27T10:35:44Z</time>
      </trkpt>
      <trkpt lat="42.991099040955305" lon="-1.51657504029572">
        <ele>634.13</ele>
        <time>2025-04-27T10:35:46Z</time>
      </trkpt>
      <trkpt lat="42.990980017930269" lon="-1.516538998112083">
        <ele>633.64999999999998</ele>
        <time>2025-04-27T10:35:47Z</time>
      </trkpt>
      <trkpt lat="42.990891002118587" lon="-1.516482001170516">
        <ele>633.64999999999998</ele>
        <time>2025-04-27T10:35:48Z</time>
      </trkpt>
      <trkpt lat="42.990824030712247" lon="-1.516388962045312">
        <ele>633.16999999999996</ele>
        <time>2025-04-27T10:35:49Z</time>
      </trkpt>
      <trkpt lat="42.990811038762331" lon="-1.516286032274365">
        <ele>632.67999999999995</ele>
        <time>2025-04-27T10:35:50Z</time>
      </trkpt>
      <trkpt lat="42.990821013227105" lon="-1.516154017299414">
        <ele>632.67999999999995</ele>
        <time>2025-04-27T10:35:51Z</time>
      </trkpt>
      <trkpt lat="42.990842973813415" lon="-1.516004987061024">
        <ele>632.67999999999995</ele>
        <time>2025-04-27T10:35:52Z</time>
      </trkpt>
      <trkpt lat="42.990972977131605" lon="-1.515710027888417">
        <ele>632.67999999999995</ele>
        <time>2025-04-27T10:35:54Z</time>
      </trkpt>
      <trkpt lat="42.991038020700216" lon="-1.515559991821647">
        <ele>632.67999999999995</ele>
        <time>2025-04-27T10:35:55Z</time>
      </trkpt>
      <trkpt lat="42.991079008206725" lon="-1.515402998775244">
        <ele>632.67999999999995</ele>
        <time>2025-04-27T10:35:56Z</time>
      </trkpt>
      <trkpt lat="42.991084959357977" lon="-1.515247011557221">
        <ele>632.20000000000005</ele>
        <time>2025-04-27T10:35:57Z</time>
      </trkpt>
      <trkpt lat="42.991070039570332" lon="-1.515098987147212">
        <ele>632.20000000000005</ele>
        <time>2025-04-27T10:35:58Z</time>
      </trkpt>
      <trkpt lat="42.991011030972004" lon="-1.514977030456066">
        <ele>631.72000000000003</ele>
        <time>2025-04-27T10:35:59Z</time>
      </trkpt>
      <trkpt lat="42.990940036252141" lon="-1.514847027137876">
        <ele>631.72000000000003</ele>
        <time>2025-04-27T10:36:00Z</time>
      </trkpt>
      <trkpt lat="42.990854037925601" lon="-1.514761028811336">
        <ele>631.72000000000003</ele>
        <time>2025-04-27T10:36:01Z</time>
      </trkpt>
      <trkpt lat="42.99079000018537" lon="-1.514696991071105">
        <ele>631.72000000000003</ele>
        <time>2025-04-27T10:36:02Z</time>
      </trkpt>
      <trkpt lat="42.990648010745645" lon="-1.514633959159255">
        <ele>631.72000000000003</ele>
        <time>2025-04-27T10:36:03Z</time>
      </trkpt>
      <trkpt lat="42.990543991327286" lon="-1.514631025493145">
        <ele>632.20000000000005</ele>
        <time>2025-04-27T10:36:04Z</time>
      </trkpt>
      <trkpt lat="42.990443995222449" lon="-1.514670001342893">
        <ele>632.67999999999995</ele>
        <time>2025-04-27T10:36:05Z</time>
      </trkpt>
      <trkpt lat="42.990318015217781" lon="-1.514719035476446">
        <ele>633.16999999999996</ele>
        <time>2025-04-27T10:36:06Z</time>
      </trkpt>
      <trkpt lat="42.990242997184396" lon="-1.514838980510831">
        <ele>633.64999999999998</ele>
        <time>2025-04-27T10:36:07Z</time>
      </trkpt>
      <trkpt lat="42.989871008321643" lon="-1.515443986281753">
        <ele>636.52999999999997</ele>
        <time>2025-04-27T10:36:11Z</time>
      </trkpt>
      <trkpt lat="42.989692976698279" lon="-1.515744980424643">
        <ele>637.97000000000003</ele>
        <time>2025-04-27T10:36:13Z</time>
      </trkpt>
      <trkpt lat="42.989593986421824" lon="-1.515864003449678">
        <ele>638.45000000000005</ele>
        <time>2025-04-27T10:36:14Z</time>
      </trkpt>
      <trkpt lat="42.989479992538691" lon="-1.515962993726134">
        <ele>639.40999999999997</ele>
        <time>2025-04-27T10:36:15Z</time>
      </trkpt>
      <trkpt lat="42.989346971735358" lon="-1.515971040353179">
        <ele>639.88999999999999</ele>
        <time>2025-04-27T10:36:16Z</time>
      </trkpt>
      <trkpt lat="42.989207999780774" lon="-1.515980008989573">
        <ele>640.38</ele>
        <time>2025-04-27T10:36:17Z</time>
      </trkpt>
      <trkpt lat="42.989059975370765" lon="-1.515960982069373">
        <ele>640.86000000000001</ele>
        <time>2025-04-27T10:36:18Z</time>
      </trkpt>
      <trkpt lat="42.988908011466265" lon="-1.515913959592581">
        <ele>641.34000000000003</ele>
        <time>2025-04-27T10:36:19Z</time>
      </trkpt>
      <trkpt lat="42.987433969974518" lon="-1.515379026532173">
        <ele>644.22000000000003</ele>
        <time>2025-04-27T10:36:28Z</time>
      </trkpt>
      <trkpt lat="42.986959973350167" lon="-1.515197977423668">
        <ele>645.65999999999997</ele>
        <time>2025-04-27T10:36:31Z</time>
      </trkpt>
      <trkpt lat="42.986807003617287" lon="-1.515102004632354">
        <ele>646.13999999999999</ele>
        <time>2025-04-27T10:36:32Z</time>
      </trkpt>
      <trkpt lat="42.986240973696113" lon="-1.514595989137888">
        <ele>647.10000000000002</ele>
        <time>2025-04-27T10:36:36Z</time>
      </trkpt>
      <trkpt lat="42.986108958721161" lon="-1.514477971941233">
        <ele>647.59000000000003</ele>
        <time>2025-04-27T10:36:37Z</time>
      </trkpt>
      <trkpt lat="42.985949032008648" lon="-1.514443019405007">
        <ele>648.07000000000005</ele>
        <time>2025-04-27T10:36:38Z</time>
      </trkpt>
      <trkpt lat="42.985784998163581" lon="-1.514422986656427">
        <ele>648.54999999999995</ele>
        <time>2025-04-27T10:36:39Z</time>
      </trkpt>
      <trkpt lat="42.985620964318514" lon="-1.514432961121202">
        <ele>648.54999999999995</ele>
        <time>2025-04-27T10:36:40Z</time>
      </trkpt>
      <trkpt lat="42.985453996807337" lon="-1.514451988041401">
        <ele>649.02999999999997</ele>
        <time>2025-04-27T10:36:41Z</time>
      </trkpt>
      <trkpt lat="42.985284011811018" lon="-1.514472020789981">
        <ele>649.50999999999999</ele>
        <time>2025-04-27T10:36:42Z</time>
      </trkpt>
      <trkpt lat="42.985106986016035" lon="-1.514460034668446">
        <ele>649.50999999999999</ele>
        <time>2025-04-27T10:36:43Z</time>
      </trkpt>
      <trkpt lat="42.984040975570679" lon="-1.514173038303852">
        <ele>651.90999999999997</ele>
        <time>2025-04-27T10:36:49Z</time>
      </trkpt>
      <trkpt lat="42.98387099057436" lon="-1.51412702165544">
        <ele>652.38999999999999</ele>
        <time>2025-04-27T10:36:50Z</time>
      </trkpt>
      <trkpt lat="42.983701005578041" lon="-1.514139007776976">
        <ele>652.87</ele>
        <time>2025-04-27T10:36:51Z</time>
      </trkpt>
      <trkpt lat="42.983534960076213" lon="-1.514173038303852">
        <ele>652.87</ele>
        <time>2025-04-27T10:36:52Z</time>
      </trkpt>
      <trkpt lat="42.983378972858191" lon="-1.51425501331687">
        <ele>653.35000000000002</ele>
        <time>2025-04-27T10:36:53Z</time>
      </trkpt>
      <trkpt lat="42.983079990372062" lon="-1.514380993321538">
        <ele>653.35000000000002</ele>
        <time>2025-04-27T10:36:55Z</time>
      </trkpt>
      <trkpt lat="42.982940012589097" lon="-1.514392979443073">
        <ele>653.35000000000002</ele>
        <time>2025-04-27T10:36:56Z</time>
      </trkpt>
      <trkpt lat="42.98283901065588" lon="-1.514355009421706">
        <ele>652.38999999999999</ele>
        <time>2025-04-27T10:36:57Z</time>
      </trkpt>
      <trkpt lat="42.982731973752379" lon="-1.514273034408689">
        <ele>651.90999999999997</ele>
        <time>2025-04-27T10:36:58Z</time>
      </trkpt>
      <trkpt lat="42.982614962384105" lon="-1.514182006940246">
        <ele>651.42999999999995</ele>
        <time>2025-04-27T10:36:59Z</time>
      </trkpt>
      <trkpt lat="42.982112970203161" lon="-1.513415984809399">
        <ele>649.02999999999997</ele>
        <time>2025-04-27T10:37:04Z</time>
      </trkpt>
      <trkpt lat="42.981632016599178" lon="-1.512874010950327">
        <ele>646.62</ele>
        <time>2025-04-27T10:37:08Z</time>
      </trkpt>
      <trkpt lat="42.981521040201187" lon="-1.512735038995743">
        <ele>646.62</ele>
        <time>2025-04-27T10:37:09Z</time>
      </trkpt>
      <trkpt lat="42.98142003826797" lon="-1.512589026242495">
        <ele>646.62</ele>
        <time>2025-04-27T10:37:10Z</time>
      </trkpt>
      <trkpt lat="42.981340996921062" lon="-1.512420969083905">
        <ele>647.10000000000002</ele>
        <time>2025-04-27T10:37:11Z</time>
      </trkpt>
      <trkpt lat="42.981281988322735" lon="-1.512238997966051">
        <ele>646.62</ele>
        <time>2025-04-27T10:37:12Z</time>
      </trkpt>
      <trkpt lat="42.981109991669655" lon="-1.511709010228515">
        <ele>647.10000000000002</ele>
        <time>2025-04-27T10:37:15Z</time>
      </trkpt>
      <trkpt lat="42.981043020263314" lon="-1.511544976383448">
        <ele>647.10000000000002</ele>
        <time>2025-04-27T10:37:16Z</time>
      </trkpt>
      <trkpt lat="42.980951992794871" lon="-1.511404998600483">
        <ele>647.10000000000002</ele>
        <time>2025-04-27T10:37:17Z</time>
      </trkpt>
      <trkpt lat="42.98086398281157" lon="-1.51126803830266">
        <ele>647.59000000000003</ele>
        <time>2025-04-27T10:37:18Z</time>
      </trkpt>
      <trkpt lat="42.98075501807034" lon="-1.511202994734049">
        <ele>647.59000000000003</ele>
        <time>2025-04-27T10:37:19Z</time>
      </trkpt>
      <trkpt lat="42.980629960075021" lon="-1.511172987520695">
        <ele>648.07000000000005</ele>
        <time>2025-04-27T10:37:20Z</time>
      </trkpt>
      <trkpt lat="42.980502974241972" lon="-1.511142980307341">
        <ele>648.07000000000005</ele>
        <time>2025-04-27T10:37:21Z</time>
      </trkpt>
      <trkpt lat="42.980376994237304" lon="-1.511116996407509">
        <ele>648.54999999999995</ele>
        <time>2025-04-27T10:37:22Z</time>
      </trkpt>
      <trkpt lat="42.980254031717777" lon="-1.511092018336058">
        <ele>649.02999999999997</ele>
        <time>2025-04-27T10:37:23Z</time>
      </trkpt>
      <trkpt lat="42.980126040056348" lon="-1.511027980595827">
        <ele>649.50999999999999</ele>
        <time>2025-04-27T10:37:24Z</time>
      </trkpt>
      <trkpt lat="42.979993019253016" lon="-1.510962015017867">
        <ele>649.99000000000001</ele>
        <time>2025-04-27T10:37:25Z</time>
      </trkpt>
      <trkpt lat="42.979275025427341" lon="-1.510374024510384">
        <ele>652.87</ele>
        <time>2025-04-27T10:37:31Z</time>
      </trkpt>
      <trkpt lat="42.979185003787279" lon="-1.510272016748786">
        <ele>653.83000000000004</ele>
        <time>2025-04-27T10:37:32Z</time>
      </trkpt>
      <trkpt lat="42.978918962180614" lon="-1.50978502817452">
        <ele>655.27999999999997</ele>
        <time>2025-04-27T10:37:36Z</time>
      </trkpt>
      <trkpt lat="42.978859031572938" lon="-1.509655024856329">
        <ele>655.75999999999999</ele>
        <time>2025-04-27T10:37:37Z</time>
      </trkpt>
      <trkpt lat="42.978849979117513" lon="-1.509511023759842">
        <ele>656.24000000000001</ele>
        <time>2025-04-27T10:37:38Z</time>
      </trkpt>
      <trkpt lat="42.978841010481119" lon="-1.509361993521452">
        <ele>656.72000000000003</ele>
        <time>2025-04-27T10:37:39Z</time>
      </trkpt>
      <trkpt lat="42.978846961632371" lon="-1.509217992424965">
        <ele>656.72000000000003</ele>
        <time>2025-04-27T10:37:40Z</time>
      </trkpt>
      <trkpt lat="42.978861965239048" lon="-1.509064016863704">
        <ele>657.20000000000005</ele>
        <time>2025-04-27T10:37:41Z</time>
      </trkpt>
      <trkpt lat="42.978904964402318" lon="-1.508608041331172">
        <ele>658.15999999999997</ele>
        <time>2025-04-27T10:37:44Z</time>
      </trkpt>
      <trkpt lat="42.978918962180614" lon="-1.50845599360764">
        <ele>658.63999999999999</ele>
        <time>2025-04-27T10:37:45Z</time>
      </trkpt>
      <trkpt lat="42.97890898771584" lon="-1.508308975026012">
        <ele>659.12</ele>
        <time>2025-04-27T10:37:46Z</time>
      </trkpt>
      <trkpt lat="42.978889038786292" lon="-1.508164973929524">
        <ele>659.60000000000002</ele>
        <time>2025-04-27T10:37:47Z</time>
      </trkpt>
      <trkpt lat="42.978841010481119" lon="-1.508033964782953">
        <ele>659.60000000000002</ele>
        <time>2025-04-27T10:37:48Z</time>
      </trkpt>
      <trkpt lat="42.978775966912508" lon="-1.507909996435046">
        <ele>659.60000000000002</ele>
        <time>2025-04-27T10:37:49Z</time>
      </trkpt>
      <trkpt lat="42.978706983849406" lon="-1.507778987288475">
        <ele>659.60000000000002</ele>
        <time>2025-04-27T10:37:50Z</time>
      </trkpt>
      <trkpt lat="42.978636994957924" lon="-1.507647978141904">
        <ele>659.60000000000002</ele>
        <time>2025-04-27T10:37:51Z</time>
      </trkpt>
      <trkpt lat="42.97856499440968" lon="-1.507515963166952">
        <ele>659.60000000000002</ele>
        <time>2025-04-27T10:37:52Z</time>
      </trkpt>
      <trkpt lat="42.978491988033056" lon="-1.50738000869751">
        <ele>659.60000000000002</ele>
        <time>2025-04-27T10:37:53Z</time>
      </trkpt>
      <trkpt lat="42.978416969999671" lon="-1.507241958752275">
        <ele>659.12</ele>
        <time>2025-04-27T10:37:54Z</time>
      </trkpt>
      <trkpt lat="42.978151012212038" lon="-1.506522037088871">
        <ele>658.15999999999997</ele>
        <time>2025-04-27T10:37:58Z</time>
      </trkpt>
      <trkpt lat="42.978151012212038" lon="-1.506522037088871">
        <ele>657.67999999999995</ele>
        <time>2025-04-27T10:37:59Z</time>
      </trkpt>
      <trkpt lat="42.978044981136918" lon="-1.506356997415423">
        <ele>657.20000000000005</ele>
        <time>2025-04-27T10:38:00Z</time>
      </trkpt>
      <trkpt lat="42.977964011952281" lon="-1.506232023239136">
        <ele>656.72000000000003</ele>
        <time>2025-04-27T10:38:01Z</time>
      </trkpt>
      <trkpt lat="42.97787600196898" lon="-1.506118029356003">
        <ele>656.24000000000001</ele>
        <time>2025-04-27T10:38:02Z</time>
      </trkpt>
      <trkpt lat="42.977277031168342" lon="-1.505512017756701">
        <ele>652.87</ele>
        <time>2025-04-27T10:38:08Z</time>
      </trkpt>
      <trkpt lat="42.977172005921602" lon="-1.505411015823484">
        <ele>652.38999999999999</ele>
        <time>2025-04-27T10:38:09Z</time>
      </trkpt>
      <trkpt lat="42.977061029523611" lon="-1.505332980304956">
        <ele>651.42999999999995</ele>
        <time>2025-04-27T10:38:10Z</time>
      </trkpt>
      <trkpt lat="42.976938989013433" lon="-1.505299033597112">
        <ele>650.95000000000005</ele>
        <time>2025-04-27T10:38:11Z</time>
      </trkpt>
      <trkpt lat="42.976680994033813" lon="-1.505315965041518">
        <ele>649.99000000000001</ele>
        <time>2025-04-27T10:38:12Z</time>
      </trkpt>
      <trkpt lat="42.976555014029145" lon="-1.505384026095271">
        <ele>649.50999999999999</ele>
        <time>2025-04-27T10:38:13Z</time>
      </trkpt>
      <trkpt lat="42.976554008200765" lon="-1.505384026095271">
        <ele>649.02999999999997</ele>
        <time>2025-04-27T10:38:14Z</time>
      </trkpt>
      <trkpt lat="42.976427022367716" lon="-1.505455020815134">
        <ele>648.54999999999995</ele>
        <time>2025-04-27T10:38:15Z</time>
      </trkpt>
      <trkpt lat="42.975570978596807" lon="-1.506181983277202">
        <ele>644.70000000000005</ele>
        <time>2025-04-27T10:38:22Z</time>
      </trkpt>
      <trkpt lat="42.975455978885293" lon="-1.506280973553658">
        <ele>644.22000000000003</ele>
        <time>2025-04-27T10:38:23Z</time>
      </trkpt>
      <trkpt lat="42.975366963073611" lon="-1.506425980478525">
        <ele>643.74000000000001</ele>
        <time>2025-04-27T10:38:24Z</time>
      </trkpt>
      <trkpt lat="42.975294040516019" lon="-1.506588002666831">
        <ele>643.74000000000001</ele>
        <time>2025-04-27T10:38:25Z</time>
      </trkpt>
      <trkpt lat="42.975264033302665" lon="-1.506767040118575">
        <ele>643.25999999999999</ele>
        <time>2025-04-27T10:38:26Z</time>
      </trkpt>
      <trkpt lat="42.975232014432549" lon="-1.506956974044442">
        <ele>642.77999999999997</ele>
        <time>2025-04-27T10:38:27Z</time>
      </trkpt>
      <trkpt lat="42.975189015269279" lon="-1.507137017324567">
        <ele>642.77999999999997</ele>
        <time>2025-04-27T10:38:28Z</time>
      </trkpt>
      <trkpt lat="42.975121038034558" lon="-1.507307002320886">
        <ele>642.77999999999997</ele>
        <time>2025-04-27T10:38:29Z</time>
      </trkpt>
      <trkpt lat="42.975038979202509" lon="-1.507449997588992">
        <ele>642.77999999999997</ele>
        <time>2025-04-27T10:38:30Z</time>
      </trkpt>
      <trkpt lat="42.974925991147757" lon="-1.507576983422041">
        <ele>642.29999999999995</ele>
        <time>2025-04-27T10:38:31Z</time>
      </trkpt>
      <trkpt lat="42.9745870269835" lon="-1.5079590305686">
        <ele>641.82000000000005</ele>
        <time>2025-04-27T10:38:34Z</time>
      </trkpt>
      <trkpt lat="42.974499017000198" lon="-1.508109988644719">
        <ele>641.82000000000005</ele>
        <time>2025-04-27T10:38:35Z</time>
      </trkpt>
      <trkpt lat="42.97441503033042" lon="-1.508273016661406">
        <ele>641.82000000000005</ele>
        <time>2025-04-27T10:38:36Z</time>
      </trkpt>
      <trkpt lat="42.974263988435268" lon="-1.509086983278394">
        <ele>641.82000000000005</ele>
        <time>2025-04-27T10:38:40Z</time>
      </trkpt>
      <trkpt lat="42.974211014807224" lon="-1.509269960224628">
        <ele>641.34000000000003</ele>
        <time>2025-04-27T10:38:41Z</time>
      </trkpt>
      <trkpt lat="42.974135996773839" lon="-1.509424019604921">
        <ele>640.86000000000001</ele>
        <time>2025-04-27T10:38:42Z</time>
      </trkpt>
      <trkpt lat="42.97403197735548" lon="-1.509541030973196">
        <ele>640.86000000000001</ele>
        <time>2025-04-27T10:38:43Z</time>
      </trkpt>
      <trkpt lat="42.97390197403729" lon="-1.509632980450988">
        <ele>640.38</ele>
        <time>2025-04-27T10:38:44Z</time>
      </trkpt>
      <trkpt lat="42.973757972940803" lon="-1.50970296934247">
        <ele>640.38</ele>
        <time>2025-04-27T10:38:45Z</time>
      </trkpt>
      <trkpt lat="42.973611038178205" lon="-1.509752003476024">
        <ele>639.88999999999999</ele>
        <time>2025-04-27T10:38:46Z</time>
      </trkpt>
      <trkpt lat="42.973479023203254" lon="-1.509846970438957">
        <ele>639.88999999999999</ele>
        <time>2025-04-27T10:38:47Z</time>
      </trkpt>
      <trkpt lat="42.973366035148501" lon="-1.509991977363825">
        <ele>639.88999999999999</ele>
        <time>2025-04-27T10:38:48Z</time>
      </trkpt>
      <trkpt lat="42.973252041265368" lon="-1.51015198789537">
        <ele>639.40999999999997</ele>
        <time>2025-04-27T10:38:49Z</time>
      </trkpt>
      <trkpt lat="42.973146010190248" lon="-1.510317027568817">
        <ele>639.88999999999999</ele>
        <time>2025-04-27T10:38:50Z</time>
      </trkpt>
      <trkpt lat="42.972593978047371" lon="-1.511254962533712">
        <ele>639.88999999999999</ele>
        <time>2025-04-27T10:38:55Z</time>
      </trkpt>
      <trkpt lat="42.9724629689008" lon="-1.511426959186792">
        <ele>639.88999999999999</ele>
        <time>2025-04-27T10:38:56Z</time>
      </trkpt>
      <trkpt lat="42.971436018124223" lon="-1.512548038735986">
        <ele>638.45000000000005</ele>
        <time>2025-04-27T10:39:03Z</time>
      </trkpt>
      <trkpt lat="42.970992028713226" lon="-1.513100992888212">
        <ele>636.52999999999997</ele>
        <time>2025-04-27T10:39:07Z</time>
      </trkpt>
      <trkpt lat="42.97089203260839" lon="-1.513216998428106">
        <ele>636.04999999999995</ele>
        <time>2025-04-27T10:39:08Z</time>
      </trkpt>
      <trkpt lat="42.970781978219748" lon="-1.513276007026434">
        <ele>635.09000000000003</ele>
        <time>2025-04-27T10:39:09Z</time>
      </trkpt>
      <trkpt lat="42.970663039013743" lon="-1.513301990926266">
        <ele>634.61000000000001</ele>
        <time>2025-04-27T10:39:10Z</time>
      </trkpt>
      <trkpt lat="42.970531024038792" lon="-1.513281036168337">
        <ele>634.13</ele>
        <time>2025-04-27T10:39:11Z</time>
      </trkpt>
      <trkpt lat="42.970402026548982" lon="-1.513258991762996">
        <ele>633.64999999999998</ele>
        <time>2025-04-27T10:39:12Z</time>
      </trkpt>
      <trkpt lat="42.970256013795733" lon="-1.513218004256487">
        <ele>633.16999999999996</ele>
        <time>2025-04-27T10:39:13Z</time>
      </trkpt>
      <trkpt lat="42.970088040456176" lon="-1.513170981779695">
        <ele>633.16999999999996</ele>
        <time>2025-04-27T10:39:14Z</time>
      </trkpt>
      <trkpt lat="42.969515975564718" lon="-1.513041984289885">
        <ele>631.24000000000001</ele>
        <time>2025-04-27T10:39:18Z</time>
      </trkpt>
      <trkpt lat="42.969417991116643" lon="-1.513023041188717">
        <ele>630.27999999999997</ele>
        <time>2025-04-27T10:39:19Z</time>
      </trkpt>
      <trkpt lat="42.969319000840187" lon="-1.513072997331619">
        <ele>629.32000000000005</ele>
        <time>2025-04-27T10:39:20Z</time>
      </trkpt>
      <trkpt lat="42.969268038868904" lon="-1.513123959302902">
        <ele>628.36000000000001</ele>
        <time>2025-04-27T10:39:21Z</time>
      </trkpt>
      <trkpt lat="42.969202995300293" lon="-1.513301990926266">
        <ele>626.44000000000005</ele>
        <time>2025-04-27T10:39:23Z</time>
      </trkpt>
      <trkpt lat="42.969202995300293" lon="-1.513453032821417">
        <ele>625.96000000000004</ele>
        <time>2025-04-27T10:39:24Z</time>
      </trkpt>
      <trkpt lat="42.969263009727001" lon="-1.51356702670455">
        <ele>624.99000000000001</ele>
        <time>2025-04-27T10:39:25Z</time>
      </trkpt>
      <trkpt lat="42.969336016103625" lon="-1.513707004487515">
        <ele>624.02999999999997</ele>
        <time>2025-04-27T10:39:26Z</time>
      </trkpt>
      <trkpt lat="42.969412039965391" lon="-1.513853017240763">
        <ele>623.07000000000005</ele>
        <time>2025-04-27T10:39:27Z</time>
      </trkpt>
      <trkpt lat="42.969478005543351" lon="-1.514007998630405">
        <ele>622.11000000000001</ele>
        <time>2025-04-27T10:39:28Z</time>
      </trkpt>
      <trkpt lat="42.969525028020144" lon="-1.514532035216689">
        <ele>619.71000000000004</ele>
        <time>2025-04-27T10:39:30Z</time>
      </trkpt>
      <trkpt lat="42.969495020806789" lon="-1.514659021049738">
        <ele>617.29999999999995</ele>
        <time>2025-04-27T10:39:32Z</time>
      </trkpt>
      <trkpt lat="42.969439029693604" lon="-1.514748958870769">
        <ele>615.86000000000001</ele>
        <time>2025-04-27T10:39:33Z</time>
      </trkpt>
      <trkpt lat="42.969370968639851" lon="-1.514806039631367">
        <ele>614.41999999999996</ele>
        <time>2025-04-27T10:39:34Z</time>
      </trkpt>
      <trkpt lat="42.969284970313311" lon="-1.514806039631367">
        <ele>612.98000000000002</ele>
        <time>2025-04-27T10:39:35Z</time>
      </trkpt>
      <trkpt lat="42.969199977815151" lon="-1.514768991619349">
        <ele>611.53999999999996</ele>
        <time>2025-04-27T10:39:36Z</time>
      </trkpt>
      <trkpt lat="42.969122026115656" lon="-1.514692967757583">
        <ele>610.09000000000003</ele>
        <time>2025-04-27T10:39:37Z</time>
      </trkpt>
      <trkpt lat="42.969033010303974" lon="-1.514592971652746">
        <ele>609.13</ele>
        <time>2025-04-27T10:39:38Z</time>
      </trkpt>
      <trkpt lat="42.968934020027518" lon="-1.514479983597994">
        <ele>607.69000000000005</ele>
        <time>2025-04-27T10:39:39Z</time>
      </trkpt>
      <trkpt lat="42.968813991174102" lon="-1.514376970008016">
        <ele>606.73000000000002</ele>
        <time>2025-04-27T10:39:40Z</time>
      </trkpt>
      <trkpt lat="42.968677030876279" lon="-1.514317961409688">
        <ele>605.28999999999996</ele>
        <time>2025-04-27T10:39:41Z</time>
      </trkpt>
      <trkpt lat="42.968535041436553" lon="-1.514274962246418">
        <ele>603.85000000000002</ele>
        <time>2025-04-27T10:39:42Z</time>
      </trkpt>
      <trkpt lat="42.968386011198163" lon="-1.514319973066449">
        <ele>602.88</ele>
        <time>2025-04-27T10:39:43Z</time>
      </trkpt>
      <trkpt lat="42.968233041465282" lon="-1.51436498388648">
        <ele>601.91999999999996</ele>
        <time>2025-04-27T10:39:44Z</time>
      </trkpt>
      <trkpt lat="42.968081999570131" lon="-1.514409994706512">
        <ele>600.96000000000004</ele>
        <time>2025-04-27T10:39:45Z</time>
      </trkpt>
      <trkpt lat="42.967766001820564" lon="-1.514504039660096">
        <ele>599.03999999999996</ele>
        <time>2025-04-27T10:39:47Z</time>
      </trkpt>
      <trkpt lat="42.967637004330754" lon="-1.514580985531211">
        <ele>598.55999999999995</ele>
        <time>2025-04-27T10:39:48Z</time>
      </trkpt>
      <trkpt lat="42.967502977699041" lon="-1.514696991071105">
        <ele>598.08000000000004</ele>
        <time>2025-04-27T10:39:49Z</time>
      </trkpt>
      <trkpt lat="42.967395018786192" lon="-1.514840992167592">
        <ele>597.60000000000002</ele>
        <time>2025-04-27T10:39:50Z</time>
      </trkpt>
      <trkpt lat="42.967298040166497" lon="-1.51500997133553">
        <ele>597.12</ele>
        <time>2025-04-27T10:39:51Z</time>
      </trkpt>
      <trkpt lat="42.966616004705429" lon="-1.516332970932126">
        <ele>595.19000000000005</ele>
        <time>2025-04-27T10:39:58Z</time>
      </trkpt>
      <trkpt lat="42.966483989730477" lon="-1.516472026705742">
        <ele>595.19000000000005</ele>
        <time>2025-04-27T10:39:59Z</time>
      </trkpt>
      <trkpt lat="42.966349041089416" lon="-1.516606975346804">
        <ele>595.19000000000005</ele>
        <time>2025-04-27T10:40:00Z</time>
      </trkpt>
      <trkpt lat="42.966215014457703" lon="-1.516741001978517">
        <ele>595.19000000000005</ele>
        <time>2025-04-27T10:40:01Z</time>
      </trkpt>
      <trkpt lat="42.966071013361216" lon="-1.516843009740114">
        <ele>595.19000000000005</ele>
        <time>2025-04-27T10:40:02Z</time>
      </trkpt>
      <trkpt lat="42.96592902392149" lon="-1.516914004459977">
        <ele>595.19000000000005</ele>
        <time>2025-04-27T10:40:03Z</time>
      </trkpt>
      <trkpt lat="42.965794997289777" lon="-1.51694099418819">
        <ele>595.19000000000005</ele>
        <time>2025-04-27T10:40:04Z</time>
      </trkpt>
      <trkpt lat="42.965670023113489" lon="-1.516965972259641">
        <ele>595.19000000000005</ele>
        <time>2025-04-27T10:40:05Z</time>
      </trkpt>
      <trkpt lat="42.965559968724847" lon="-1.516951974481344">
        <ele>595.19000000000005</ele>
        <time>2025-04-27T10:40:06Z</time>
      </trkpt>
      <trkpt lat="42.965455027297139" lon="-1.516926996409893">
        <ele>595.19000000000005</ele>
        <time>2025-04-27T10:40:07Z</time>
      </trkpt>
      <trkpt lat="42.96511597931385" lon="-1.516837980598211">
        <ele>596.63999999999999</ele>
        <time>2025-04-27T10:40:11Z</time>
      </trkpt>
      <trkpt lat="42.965044984593987" lon="-1.51681199669838">
        <ele>597.12</ele>
        <time>2025-04-27T10:40:12Z</time>
      </trkpt>
      <trkpt lat="42.964794030413032" lon="-1.516704959794879">
        <ele>599.03999999999996</ele>
        <time>2025-04-27T10:40:17Z</time>
      </trkpt>
      <trkpt lat="42.96468598768115" lon="-1.516646035015583">
        <ele>601.44000000000005</ele>
        <time>2025-04-27T10:40:38Z</time>
      </trkpt>
      <trkpt lat="42.964080981910229" lon="-1.516218977048993">
        <ele>603.85000000000002</ele>
        <time>2025-04-27T10:40:46Z</time>
      </trkpt>
      <trkpt lat="42.964003030210733" lon="-1.516162985935807">
        <ele>604.33000000000004</ele>
        <time>2025-04-27T10:40:47Z</time>
      </trkpt>
      <trkpt lat="42.963861040771008" lon="-1.516177989542484">
        <ele>604.33000000000004</ele>
        <time>2025-04-27T10:40:48Z</time>
      </trkpt>
      <trkpt lat="42.963855005800724" lon="-1.516177989542484">
        <ele>604.33000000000004</ele>
        <time>2025-04-27T10:40:49Z</time>
      </trkpt>
      <trkpt lat="42.963861040771008" lon="-1.516177989542484">
        <ele>604.80999999999995</ele>
        <time>2025-04-27T10:40:50Z</time>
      </trkpt>
      <trkpt lat="42.963774958625436" lon="-1.516311010345817">
        <ele>604.80999999999995</ele>
        <time>2025-04-27T10:40:51Z</time>
      </trkpt>
      <trkpt lat="42.963774958625436" lon="-1.516410000622273">
        <ele>605.28999999999996</ele>
        <time>2025-04-27T10:40:52Z</time>
      </trkpt>
      <trkpt lat="42.963774958625436" lon="-1.516527011990547">
        <ele>605.28999999999996</ele>
        <time>2025-04-27T10:40:53Z</time>
      </trkpt>
      <trkpt lat="42.963774958625436" lon="-1.51666003279388">
        <ele>605.28999999999996</ele>
        <time>2025-04-27T10:40:54Z</time>
      </trkpt>
      <trkpt lat="42.963774958625436" lon="-1.51709295809269">
        <ele>606.25</ele>
        <time>2025-04-27T10:40:57Z</time>
      </trkpt>
      <trkpt lat="42.963721984997392" lon="-1.517325975000858">
        <ele>607.21000000000004</ele>
        <time>2025-04-27T10:40:59Z</time>
      </trkpt>
      <trkpt lat="42.963676974177361" lon="-1.517404010519385">
        <ele>607.69000000000005</ele>
        <time>2025-04-27T10:41:00Z</time>
      </trkpt>
      <trkpt lat="42.963590975850821" lon="-1.517423037439585">
        <ele>608.16999999999996</ele>
        <time>2025-04-27T10:41:01Z</time>
      </trkpt>
      <trkpt lat="42.962988987565041" lon="-1.517539964988828">
        <ele>610.09000000000003</ele>
        <time>2025-04-27T10:41:06Z</time>
      </trkpt>
      <trkpt lat="42.962852027267218" lon="-1.517551029101014">
        <ele>611.05999999999995</ele>
        <time>2025-04-27T10:41:07Z</time>
      </trkpt>
      <trkpt lat="42.962722023949027" lon="-1.517523033544421">
        <ele>611.05999999999995</ele>
        <time>2025-04-27T10:41:08Z</time>
      </trkpt>
      <trkpt lat="42.962605012580752" lon="-1.517497971653938">
        <ele>611.53999999999996</ele>
        <time>2025-04-27T10:41:09Z</time>
      </trkpt>
      <trkpt lat="42.962512979283929" lon="-1.517501994967461">
        <ele>612.01999999999998</ele>
        <time>2025-04-27T10:41:10Z</time>
      </trkpt>
      <trkpt lat="42.962457993999124" lon="-1.517524039372802">
        <ele>612.98000000000002</ele>
        <time>2025-04-27T10:41:11Z</time>
      </trkpt>
      <trkpt lat="42.962452964857221" lon="-1.517596961930394">
        <ele>613.46000000000004</ele>
        <time>2025-04-27T10:41:12Z</time>
      </trkpt>
      <trkpt lat="42.962460005655885" lon="-1.517658988013864">
        <ele>614.41999999999996</ele>
        <time>2025-04-27T10:41:13Z</time>
      </trkpt>
      <trkpt lat="42.962524965405464" lon="-1.517710033804178">
        <ele>614.89999999999998</ele>
        <time>2025-04-27T10:41:14Z</time>
      </trkpt>
      <trkpt lat="42.962599983438849" lon="-1.517720008268952">
        <ele>615.86000000000001</ele>
        <time>2025-04-27T10:41:15Z</time>
      </trkpt>
      <trkpt lat="42.962692016735673" lon="-1.517733000218868">
        <ele>616.34000000000003</ele>
        <time>2025-04-27T10:41:16Z</time>
      </trkpt>
      <trkpt lat="42.962794024497271" lon="-1.517755966633558">
        <ele>617.29999999999995</ele>
        <time>2025-04-27T10:41:17Z</time>
      </trkpt>
      <trkpt lat="42.963406993076205" lon="-1.518039023503661">
        <ele>621.14999999999998</ele>
        <time>2025-04-27T10:41:22Z</time>
      </trkpt>
      <trkpt lat="42.963528027758002" lon="-1.518142959102988">
        <ele>622.11000000000001</ele>
        <time>2025-04-27T10:41:23Z</time>
      </trkpt>
      <trkpt lat="42.964161029085517" lon="-1.518688034266233">
        <ele>626.44000000000005</ele>
        <time>2025-04-27T10:41:28Z</time>
      </trkpt>
      <trkpt lat="42.964301006868482" lon="-1.518738996237516">
        <ele>627.39999999999998</ele>
        <time>2025-04-27T10:41:29Z</time>
      </trkpt>
      <trkpt lat="42.964424975216389" lon="-1.518775960430503">
        <ele>627.88</ele>
        <time>2025-04-27T10:41:30Z</time>
      </trkpt>
      <trkpt lat="42.964643994346261" lon="-1.518789036199451">
        <ele>629.32000000000005</ele>
        <time>2025-04-27T10:41:32Z</time>
      </trkpt>
      <trkpt lat="42.964734015986323" lon="-1.518793981522322">
        <ele>629.79999999999995</ele>
        <time>2025-04-27T10:41:33Z</time>
      </trkpt>
      <trkpt lat="42.964784977957606" lon="-1.518843015655875">
        <ele>630.27999999999997</ele>
        <time>2025-04-27T10:41:34Z</time>
      </trkpt>
      <trkpt lat="42.964805010706186" lon="-1.518880985677242">
        <ele>630.75999999999999</ele>
        <time>2025-04-27T10:41:35Z</time>
      </trkpt>
      <trkpt lat="42.964783972129226" lon="-1.518942005932331">
        <ele>631.72000000000003</ele>
        <time>2025-04-27T10:41:36Z</time>
      </trkpt>
      <trkpt lat="42.964782966300845" lon="-1.518946029245853">
        <ele>632.20000000000005</ele>
        <time>2025-04-27T10:41:37Z</time>
      </trkpt>
      <trkpt lat="42.964701997116208" lon="-1.518946029245853">
        <ele>632.67999999999995</ele>
        <time>2025-04-27T10:41:38Z</time>
      </trkpt>
      <trkpt lat="42.96462002210319" lon="-1.518934965133667">
        <ele>633.64999999999998</ele>
        <time>2025-04-27T10:41:39Z</time>
      </trkpt>
      <trkpt lat="42.963700024411082" lon="-1.518644029274583">
        <ele>639.40999999999997</ele>
        <time>2025-04-27T10:41:46Z</time>
      </trkpt>
      <trkpt lat="42.963543031364679" lon="-1.518594995141029">
        <ele>640.86000000000001</ele>
        <time>2025-04-27T10:41:47Z</time>
      </trkpt>
      <trkpt lat="42.963239019736648" lon="-1.518559036776424">
        <ele>642.77999999999997</ele>
        <time>2025-04-27T10:41:49Z</time>
      </trkpt>
      <trkpt lat="42.963114967569709" lon="-1.518559036776424">
        <ele>643.74000000000001</ele>
        <time>2025-04-27T10:41:50Z</time>
      </trkpt>
      <trkpt lat="42.963017988950014" lon="-1.518591977655888">
        <ele>644.22000000000003</ele>
        <time>2025-04-27T10:41:51Z</time>
      </trkpt>
      <trkpt lat="42.962937019765377" lon="-1.518646040931344">
        <ele>645.17999999999995</ele>
        <time>2025-04-27T10:41:52Z</time>
      </trkpt>
      <trkpt lat="42.962885973975062" lon="-1.518734972923994">
        <ele>646.13999999999999</ele>
        <time>2025-04-27T10:41:53Z</time>
      </trkpt>
      <trkpt lat="42.96285898424685" lon="-1.518861958757043">
        <ele>647.10000000000002</ele>
        <time>2025-04-27T10:41:54Z</time>
      </trkpt>
      <trkpt lat="42.962869964540005" lon="-1.518979975953698">
        <ele>648.07000000000005</ele>
        <time>2025-04-27T10:41:55Z</time>
      </trkpt>
      <trkpt lat="42.962912963703275" lon="-1.519108973443508">
        <ele>649.02999999999997</ele>
        <time>2025-04-27T10:41:56Z</time>
      </trkpt>
      <trkpt lat="42.963315965607762" lon="-1.520305993035436">
        <ele>655.75999999999999</ele>
        <time>2025-04-27T10:42:03Z</time>
      </trkpt>
      <trkpt lat="42.963828016072512" lon="-1.522000981494784">
        <ele>662.49000000000001</ele>
        <time>2025-04-27T10:42:11Z</time>
      </trkpt>
      <trkpt lat="42.96384503133595" lon="-1.522217988967896">
        <ele>662.97000000000003</ele>
        <time>2025-04-27T10:42:12Z</time>
      </trkpt>
      <trkpt lat="42.963869003579021" lon="-1.522901030257344">
        <ele>665.85000000000002</ele>
        <time>2025-04-27T10:42:15Z</time>
      </trkpt>
      <trkpt lat="42.963877972215414" lon="-1.523135975003243">
        <ele>666.80999999999995</ele>
        <time>2025-04-27T10:42:16Z</time>
      </trkpt>
      <trkpt lat="42.963948966935277" lon="-1.523832008242607">
        <ele>669.22000000000003</ele>
        <time>2025-04-27T10:42:19Z</time>
      </trkpt>
      <trkpt lat="42.963977968320251" lon="-1.524029988795519">
        <ele>669.70000000000005</ele>
        <time>2025-04-27T10:42:20Z</time>
      </trkpt>
      <trkpt lat="42.964016022160649" lon="-1.524196034297347">
        <ele>670.65999999999997</ele>
        <time>2025-04-27T10:42:21Z</time>
      </trkpt>
      <trkpt lat="42.964052986353636" lon="-1.524354033172131">
        <ele>671.13999999999999</ele>
        <time>2025-04-27T10:42:22Z</time>
      </trkpt>
      <trkpt lat="42.964091040194035" lon="-1.524516977369785">
        <ele>672.10000000000002</ele>
        <time>2025-04-27T10:42:23Z</time>
      </trkpt>
      <trkpt lat="42.964115012437105" lon="-1.524685034528375">
        <ele>673.05999999999995</ele>
        <time>2025-04-27T10:42:24Z</time>
      </trkpt>
      <trkpt lat="42.964076036587358" lon="-1.524988040328026">
        <ele>674.5</ele>
        <time>2025-04-27T10:42:26Z</time>
      </trkpt>
      <trkpt lat="42.96393203549087" lon="-1.525229020044208">
        <ele>676.41999999999996</ele>
        <time>2025-04-27T10:42:28Z</time>
      </trkpt>
      <trkpt lat="42.963887024670839" lon="-1.525360029190779">
        <ele>677.38999999999999</ele>
        <time>2025-04-27T10:42:29Z</time>
      </trkpt>
      <trkpt lat="42.963856011629105" lon="-1.525512998923659">
        <ele>678.35000000000002</ele>
        <time>2025-04-27T10:42:30Z</time>
      </trkpt>
      <trkpt lat="42.963874032720923" lon="-1.526659978553653">
        <ele>682.66999999999996</ele>
        <time>2025-04-27T10:42:36Z</time>
      </trkpt>
      <trkpt lat="42.963880989700556" lon="-1.526864999905229">
        <ele>683.63</ele>
        <time>2025-04-27T10:42:37Z</time>
      </trkpt>
      <trkpt lat="42.963920971378684" lon="-1.527055017650127">
        <ele>684.12</ele>
        <time>2025-04-27T10:42:38Z</time>
      </trkpt>
      <trkpt lat="42.963967993855476" lon="-1.527236988767982">
        <ele>685.08000000000004</ele>
        <time>2025-04-27T10:42:39Z</time>
      </trkpt>
      <trkpt lat="42.964013004675508" lon="-1.527412002906203">
        <ele>686.03999999999996</ele>
        <time>2025-04-27T10:42:40Z</time>
      </trkpt>
      <trkpt lat="42.964029014110565" lon="-1.527607971802354">
        <ele>687</ele>
        <time>2025-04-27T10:42:41Z</time>
      </trkpt>
      <trkpt lat="42.964022979140282" lon="-1.527802012860775">
        <ele>687.96000000000004</ele>
        <time>2025-04-27T10:42:42Z</time>
      </trkpt>
      <trkpt lat="42.96401803381741" lon="-1.527992030605674">
        <ele>688.91999999999996</ele>
        <time>2025-04-27T10:42:43Z</time>
      </trkpt>
      <trkpt lat="42.964013004675508" lon="-1.528166960924864">
        <ele>689.88</ele>
        <time>2025-04-27T10:42:44Z</time>
      </trkpt>
      <trkpt lat="42.963999006897211" lon="-1.528323031961918">
        <ele>690.36000000000001</ele>
        <time>2025-04-27T10:42:45Z</time>
      </trkpt>
      <trkpt lat="42.963980985805392" lon="-1.52845898643136">
        <ele>691.80999999999995</ele>
        <time>2025-04-27T10:42:46Z</time>
      </trkpt>
      <trkpt lat="42.963942009955645" lon="-1.52858798392117">
        <ele>692.76999999999998</ele>
        <time>2025-04-27T10:42:47Z</time>
      </trkpt>
      <trkpt lat="42.963856011629105" lon="-1.528684962540865">
        <ele>693.73000000000002</ele>
        <time>2025-04-27T10:42:48Z</time>
      </trkpt>
      <trkpt lat="42.963765989989042" lon="-1.528787976130843">
        <ele>694.69000000000005</ele>
        <time>2025-04-27T10:42:49Z</time>
      </trkpt>
      <trkpt lat="42.963674962520599" lon="-1.528889983892441">
        <ele>695.64999999999998</ele>
        <time>2025-04-27T10:42:50Z</time>
      </trkpt>
      <trkpt lat="42.963615031912923" lon="-1.529021998867393">
        <ele>696.61000000000001</ele>
        <time>2025-04-27T10:42:51Z</time>
      </trkpt>
      <trkpt lat="42.963565997779369" lon="-1.529177986085415">
        <ele>697.57000000000005</ele>
        <time>2025-04-27T10:42:52Z</time>
      </trkpt>
      <trkpt lat="42.963516963645816" lon="-1.529331039637327">
        <ele>698.52999999999997</ele>
        <time>2025-04-27T10:42:53Z</time>
      </trkpt>
      <trkpt lat="42.963516963645816" lon="-1.529504964128137">
        <ele>699.01999999999998</ele>
        <time>2025-04-27T10:42:54Z</time>
      </trkpt>
      <trkpt lat="42.963516963645816" lon="-1.529675032943487">
        <ele>699.98000000000002</ele>
        <time>2025-04-27T10:42:55Z</time>
      </trkpt>
      <trkpt lat="42.963545965030789" lon="-1.529849041253328">
        <ele>700.46000000000004</ele>
        <time>2025-04-27T10:42:56Z</time>
      </trkpt>
      <trkpt lat="42.963575972244143" lon="-1.530024977400899">
        <ele>701.41999999999996</ele>
        <time>2025-04-27T10:42:57Z</time>
      </trkpt>
      <trkpt lat="42.963601034134626" lon="-1.53019898571074">
        <ele>701.89999999999998</ele>
        <time>2025-04-27T10:42:58Z</time>
      </trkpt>
      <trkpt lat="42.963569015264511" lon="-1.530366037040949">
        <ele>702.38</ele>
        <time>2025-04-27T10:42:59Z</time>
      </trkpt>
      <trkpt lat="42.963534984737635" lon="-1.53054197318852">
        <ele>703.34000000000003</ele>
        <time>2025-04-27T10:43:00Z</time>
      </trkpt>
      <trkpt lat="42.963500032201409" lon="-1.530720004811883">
        <ele>704.29999999999995</ele>
        <time>2025-04-27T10:43:01Z</time>
      </trkpt>
      <trkpt lat="42.963476981967688" lon="-1.530888983979821">
        <ele>704.77999999999997</ele>
        <time>2025-04-27T10:43:02Z</time>
      </trkpt>
      <trkpt lat="42.963492991402745" lon="-1.531065003946424">
        <ele>705.75</ele>
        <time>2025-04-27T10:43:03Z</time>
      </trkpt>
      <trkpt lat="42.963526016101241" lon="-1.531450990587473">
        <ele>708.14999999999998</ele>
        <time>2025-04-27T10:43:05Z</time>
      </trkpt>
      <trkpt lat="42.963543031364679" lon="-1.531642014160752">
        <ele>709.11000000000001</ele>
        <time>2025-04-27T10:43:06Z</time>
      </trkpt>
      <trkpt lat="42.963559962809086" lon="-1.531842006370425">
        <ele>710.07000000000005</ele>
        <time>2025-04-27T10:43:07Z</time>
      </trkpt>
      <trkpt lat="42.963520986959338" lon="-1.532000005245209">
        <ele>711.50999999999999</ele>
        <time>2025-04-27T10:43:08Z</time>
      </trkpt>
      <trkpt lat="42.963477987796068" lon="-1.532172001898289">
        <ele>712.47000000000003</ele>
        <time>2025-04-27T10:43:09Z</time>
      </trkpt>
      <trkpt lat="42.963459966704249" lon="-1.532362019643188">
        <ele>713.44000000000005</ele>
        <time>2025-04-27T10:43:10Z</time>
      </trkpt>
      <trkpt lat="42.963444963097572" lon="-1.532554971054196">
        <ele>714.39999999999998</ele>
        <time>2025-04-27T10:43:11Z</time>
      </trkpt>
      <trkpt lat="42.963426019996405" lon="-1.532742977142334">
        <ele>715.36000000000001</ele>
        <time>2025-04-27T10:43:12Z</time>
      </trkpt>
      <trkpt lat="42.963301967829466" lon="-1.533276988193393">
        <ele>717.75999999999999</ele>
        <time>2025-04-27T10:43:15Z</time>
      </trkpt>
      <trkpt lat="42.963281013071537" lon="-1.533453008159995">
        <ele>718.24000000000001</ele>
        <time>2025-04-27T10:43:16Z</time>
      </trkpt>
      <trkpt lat="42.963281013071537" lon="-1.533628022298217">
        <ele>719.67999999999995</ele>
        <time>2025-04-27T10:43:17Z</time>
      </trkpt>
      <trkpt lat="42.963281013071537" lon="-1.533790966495872">
        <ele>720.64999999999998</ele>
        <time>2025-04-27T10:43:18Z</time>
      </trkpt>
      <trkpt lat="42.963176993653178" lon="-1.534076035022736">
        <ele>721.61000000000001</ele>
        <time>2025-04-27T10:43:19Z</time>
      </trkpt>
      <trkpt lat="42.963045984506607" lon="-1.534349033609033">
        <ele>723.04999999999995</ele>
        <time>2025-04-27T10:43:21Z</time>
      </trkpt>
      <trkpt lat="42.963004997000098" lon="-1.534525975584984">
        <ele>724.49000000000001</ele>
        <time>2025-04-27T10:43:23Z</time>
      </trkpt>
      <trkpt lat="42.962980018928647" lon="-1.534699983894825">
        <ele>724.97000000000003</ele>
        <time>2025-04-27T10:43:24Z</time>
      </trkpt>
      <trkpt lat="42.9629220161587" lon="-1.535040037706494">
        <ele>726.40999999999997</ele>
        <time>2025-04-27T10:43:26Z</time>
      </trkpt>
      <trkpt lat="42.962864013388753" lon="-1.535199964419007">
        <ele>727.37</ele>
        <time>2025-04-27T10:43:27Z</time>
      </trkpt>
      <trkpt lat="42.962808022275567" lon="-1.53535301797092">
        <ele>727.86000000000001</ele>
        <time>2025-04-27T10:43:28Z</time>
      </trkpt>
      <trkpt lat="42.962720012292266" lon="-1.535900020971894">
        <ele>729.77999999999997</ele>
        <time>2025-04-27T10:43:31Z</time>
      </trkpt>
      <trkpt lat="42.962704002857208" lon="-1.536101019009948">
        <ele>730.25999999999999</ele>
        <time>2025-04-27T10:43:32Z</time>
      </trkpt>
      <trkpt lat="42.962713977321982" lon="-1.536293970420957">
        <ele>730.74000000000001</ele>
        <time>2025-04-27T10:43:33Z</time>
      </trkpt>
      <trkpt lat="42.963025029748678" lon="-1.537926010787487">
        <ele>736.50999999999999</ele>
        <time>2025-04-27T10:43:41Z</time>
      </trkpt>
      <trkpt lat="42.963174981996417" lon="-1.538290036842227">
        <ele>737.95000000000005</ele>
        <time>2025-04-27T10:43:43Z</time>
      </trkpt>
      <trkpt lat="42.963246982544661" lon="-1.538463961333036">
        <ele>738.90999999999997</ele>
        <time>2025-04-27T10:43:44Z</time>
      </trkpt>
      <trkpt lat="42.963338010013103" lon="-1.538615003228188">
        <ele>739.87</ele>
        <time>2025-04-27T10:43:45Z</time>
      </trkpt>
      <trkpt lat="42.963426019996405" lon="-1.538752969354391">
        <ele>740.83000000000004</ele>
        <time>2025-04-27T10:43:46Z</time>
      </trkpt>
      <trkpt lat="42.963549988344312" lon="-1.538871992379427">
        <ele>741.78999999999996</ele>
        <time>2025-04-27T10:43:47Z</time>
      </trkpt>
      <trkpt lat="42.963686026632786" lon="-1.538981040939689">
        <ele>742.75999999999999</ele>
        <time>2025-04-27T10:43:48Z</time>
      </trkpt>
      <trkpt lat="42.96410403214395" lon="-1.539316987618804">
        <ele>745.63999999999999</ele>
        <time>2025-04-27T10:43:51Z</time>
      </trkpt>
      <trkpt lat="42.964895032346249" lon="-1.54023103415966">
        <ele>752.37</ele>
        <time>2025-04-27T10:43:57Z</time>
      </trkpt>
      <trkpt lat="42.965025035664439" lon="-1.54038199223578">
        <ele>753.33000000000004</ele>
        <time>2025-04-27T10:43:58Z</time>
      </trkpt>
      <trkpt lat="42.965140035375953" lon="-1.540547031909227">
        <ele>754.76999999999998</ele>
        <time>2025-04-27T10:43:59Z</time>
      </trkpt>
      <trkpt lat="42.96524397097528" lon="-1.540735960006714">
        <ele>755.73000000000002</ele>
        <time>2025-04-27T10:44:00Z</time>
      </trkpt>
      <trkpt lat="42.965332986786962" lon="-1.540949027985334">
        <ele>756.69000000000005</ele>
        <time>2025-04-27T10:44:01Z</time>
      </trkpt>
      <trkpt lat="42.965424014255404" lon="-1.541167041286826">
        <ele>757.65999999999997</ele>
        <time>2025-04-27T10:44:02Z</time>
      </trkpt>
      <trkpt lat="42.96593296341598" lon="-1.542213018983603">
        <ele>762.94000000000005</ele>
        <time>2025-04-27T10:44:07Z</time>
      </trkpt>
      <trkpt lat="42.966021979227662" lon="-1.542424997314811">
        <ele>763.89999999999998</ele>
        <time>2025-04-27T10:44:08Z</time>
      </trkpt>
      <trkpt lat="42.966228006407619" lon="-1.543071996420622">
        <ele>766.78999999999996</ele>
        <time>2025-04-27T10:44:11Z</time>
      </trkpt>
      <trkpt lat="42.966310987249017" lon="-1.543451026082039">
        <ele>768.23000000000002</ele>
        <time>2025-04-27T10:44:13Z</time>
      </trkpt>
      <trkpt lat="42.966346023604274" lon="-1.543615981936455">
        <ele>768.71000000000004</ele>
        <time>2025-04-27T10:44:14Z</time>
      </trkpt>
      <trkpt lat="42.966393968090415" lon="-1.543758977204561">
        <ele>769.66999999999996</ele>
        <time>2025-04-27T10:44:15Z</time>
      </trkpt>
      <trkpt lat="42.966484995558858" lon="-1.543875988572836">
        <ele>770.14999999999998</ele>
        <time>2025-04-27T10:44:16Z</time>
      </trkpt>
      <trkpt lat="42.966717006638646" lon="-1.544058965519071">
        <ele>770.63</ele>
        <time>2025-04-27T10:44:17Z</time>
      </trkpt>
      <trkpt lat="42.967709004878998" lon="-1.544831022620201">
        <ele>774.96000000000004</ele>
        <time>2025-04-27T10:44:26Z</time>
      </trkpt>
      <trkpt lat="42.968118963763118" lon="-1.545240981504321">
        <ele>775.91999999999996</ele>
        <time>2025-04-27T10:44:31Z</time>
      </trkpt>
      <trkpt lat="42.968190964311361" lon="-1.545334020629525">
        <ele>775.91999999999996</ele>
        <time>2025-04-27T10:44:32Z</time>
      </trkpt>
      <trkpt lat="42.968244021758437" lon="-1.545449020341039">
        <ele>775.91999999999996</ele>
        <time>2025-04-27T10:44:33Z</time>
      </trkpt>
      <trkpt lat="42.968299007043242" lon="-1.545567959547043">
        <ele>775.91999999999996</ele>
        <time>2025-04-27T10:44:34Z</time>
      </trkpt>
      <trkpt lat="42.968366984277964" lon="-1.545854033902288">
        <ele>775.91999999999996</ele>
        <time>2025-04-27T10:44:36Z</time>
      </trkpt>
      <trkpt lat="42.968431022018194" lon="-1.546652996912599">
        <ele>776.39999999999998</ele>
        <time>2025-04-27T10:44:43Z</time>
      </trkpt>
      <trkpt lat="42.968408977612853" lon="-1.546722985804081">
        <ele>776.39999999999998</ele>
        <time>2025-04-27T10:44:44Z</time>
      </trkpt>
      <trkpt lat="42.968388022854924" lon="-1.546775959432125">
        <ele>776.88</ele>
        <time>2025-04-27T10:44:45Z</time>
      </trkpt>
      <trkpt lat="42.968333959579468" lon="-1.546775959432125">
        <ele>776.39999999999998</ele>
        <time>2025-04-27T10:44:46Z</time>
      </trkpt>
      <trkpt lat="42.968275034800172" lon="-1.546772019937635">
        <ele>776.39999999999998</ele>
        <time>2025-04-27T10:44:47Z</time>
      </trkpt>
      <trkpt lat="42.968200016766787" lon="-1.546712005510926">
        <ele>776.39999999999998</ele>
        <time>2025-04-27T10:44:48Z</time>
      </trkpt>
      <trkpt lat="42.96775502152741" lon="-1.546336999163032">
        <ele>775.91999999999996</ele>
        <time>2025-04-27T10:44:53Z</time>
      </trkpt>
      <trkpt lat="42.967663994058967" lon="-1.546244965866208">
        <ele>776.39999999999998</ele>
        <time>2025-04-27T10:44:54Z</time>
      </trkpt>
      <trkpt lat="42.967579001560807" lon="-1.546153016388416">
        <ele>776.88</ele>
        <time>2025-04-27T10:44:55Z</time>
      </trkpt>
      <trkpt lat="42.9674999602139" lon="-1.54603399336338">
        <ele>777.36000000000001</ele>
        <time>2025-04-27T10:44:56Z</time>
      </trkpt>
      <trkpt lat="42.967398036271334" lon="-1.54592402279377">
        <ele>777.84000000000003</ele>
        <time>2025-04-27T10:44:57Z</time>
      </trkpt>
      <trkpt lat="42.967293011024594" lon="-1.545832995325327">
        <ele>778.32000000000005</ele>
        <time>2025-04-27T10:44:58Z</time>
      </trkpt>
      <trkpt lat="42.967183962464333" lon="-1.545739034190774">
        <ele>778.80999999999995</ele>
        <time>2025-04-27T10:44:59Z</time>
      </trkpt>
      <trkpt lat="42.965921983122826" lon="-1.545166969299316">
        <ele>789.86000000000001</ele>
        <time>2025-04-27T10:45:08Z</time>
      </trkpt>
      <trkpt lat="42.965808995068073" lon="-1.545117013156414">
        <ele>790.82000000000005</ele>
        <time>2025-04-27T10:45:09Z</time>
      </trkpt>
      <trkpt lat="42.965727020055056" lon="-1.545080970972776">
        <ele>791.77999999999997</ele>
        <time>2025-04-27T10:45:10Z</time>
      </trkpt>
      <trkpt lat="42.965639010071754" lon="-1.545093962922692">
        <ele>793.22000000000003</ele>
        <time>2025-04-27T10:45:11Z</time>
      </trkpt>
      <trkpt lat="42.965576983988285" lon="-1.545120030641556">
        <ele>794.19000000000005</ele>
        <time>2025-04-27T10:45:12Z</time>
      </trkpt>
      <trkpt lat="42.96558897010982" lon="-1.545250033959746">
        <ele>795.63</ele>
        <time>2025-04-27T10:45:13Z</time>
      </trkpt>
      <trkpt lat="42.965644039213657" lon="-1.545307030901313">
        <ele>797.07000000000005</ele>
        <time>2025-04-27T10:45:14Z</time>
      </trkpt>
      <trkpt lat="42.965712016448379" lon="-1.545338965952396">
        <ele>798.02999999999997</ele>
        <time>2025-04-27T10:45:15Z</time>
      </trkpt>
      <trkpt lat="42.965890970081091" lon="-1.545424964278936">
        <ele>801.88</ele>
        <time>2025-04-27T10:45:18Z</time>
      </trkpt>
      <trkpt lat="42.966098003089428" lon="-1.545538036152721">
        <ele>802.84000000000003</ele>
        <time>2025-04-27T10:45:19Z</time>
      </trkpt>
      <trkpt lat="42.966196993365884" lon="-1.545639960095286">
        <ele>805.24000000000001</ele>
        <time>2025-04-27T10:45:21Z</time>
      </trkpt>
      <trkpt lat="42.966865031048656" lon="-1.546326018869877">
        <ele>811.49000000000001</ele>
        <time>2025-04-27T10:45:27Z</time>
      </trkpt>
      <trkpt lat="42.966925967484713" lon="-1.546478988602758">
        <ele>812.45000000000005</ele>
        <time>2025-04-27T10:45:28Z</time>
      </trkpt>
      <trkpt lat="42.967039039358497" lon="-1.54678501188755">
        <ele>813.40999999999997</ele>
        <time>2025-04-27T10:45:29Z</time>
      </trkpt>
      <trkpt lat="42.967055970802903" lon="-1.546972012147307">
        <ele>815.34000000000003</ele>
        <time>2025-04-27T10:45:31Z</time>
      </trkpt>
      <trkpt lat="42.967116991057992" lon="-1.547998040914536">
        <ele>820.13999999999999</ele>
        <time>2025-04-27T10:45:36Z</time>
      </trkpt>
      <trkpt lat="42.967169964686036" lon="-1.548340022563934">
        <ele>822.54999999999995</ele>
        <time>2025-04-27T10:45:38Z</time>
      </trkpt>
      <trkpt lat="42.96723903156817" lon="-1.548478994518518">
        <ele>823.50999999999999</ele>
        <time>2025-04-27T10:45:39Z</time>
      </trkpt>
      <trkpt lat="42.967329975217581" lon="-1.548602962866426">
        <ele>824.47000000000003</ele>
        <time>2025-04-27T10:45:40Z</time>
      </trkpt>
      <trkpt lat="42.967423014342785" lon="-1.548729026690126">
        <ele>825.42999999999995</ele>
        <time>2025-04-27T10:45:41Z</time>
      </trkpt>
      <trkpt lat="42.967547988519073" lon="-1.548786023631692">
        <ele>826.38999999999999</ele>
        <time>2025-04-27T10:45:42Z</time>
      </trkpt>
      <trkpt lat="42.967680003494024" lon="-1.548837991431356">
        <ele>827.83000000000004</ele>
        <time>2025-04-27T10:45:43Z</time>
      </trkpt>
      <trkpt lat="42.967807995155454" lon="-1.548850983381271">
        <ele>828.78999999999996</ele>
        <time>2025-04-27T10:45:44Z</time>
      </trkpt>
      <trkpt lat="42.967920983210206" lon="-1.54888803139329">
        <ele>829.75999999999999</ele>
        <time>2025-04-27T10:45:45Z</time>
      </trkpt>
      <trkpt lat="42.968039000406861" lon="-1.548962965607643">
        <ele>830.72000000000003</ele>
        <time>2025-04-27T10:45:46Z</time>
      </trkpt>
      <trkpt lat="42.96816498041153" lon="-1.549043012782931">
        <ele>831.67999999999995</ele>
        <time>2025-04-27T10:45:47Z</time>
      </trkpt>
      <trkpt lat="42.968276962637901" lon="-1.549114007502794">
        <ele>832.63999999999999</ele>
        <time>2025-04-27T10:45:48Z</time>
      </trkpt>
      <trkpt lat="42.968365978449583" lon="-1.549206962808967">
        <ele>833.60000000000002</ele>
        <time>2025-04-27T10:45:49Z</time>
      </trkpt>
      <trkpt lat="42.968409983441234" lon="-1.549307964742184">
        <ele>834.08000000000004</ele>
        <time>2025-04-27T10:45:50Z</time>
      </trkpt>
      <trkpt lat="42.968390034511685" lon="-1.549463029950857">
        <ele>835.03999999999996</ele>
        <time>2025-04-27T10:45:51Z</time>
      </trkpt>
      <trkpt lat="42.968334965407848" lon="-1.549584986642003">
        <ele>835.51999999999998</ele>
        <time>2025-04-27T10:45:52Z</time>
      </trkpt>
      <trkpt lat="42.968264976516366" lon="-1.549722030758858">
        <ele>836.48000000000002</ele>
        <time>2025-04-27T10:45:53Z</time>
      </trkpt>
      <trkpt lat="42.967729037627578" lon="-1.550794998183847">
        <ele>840.80999999999995</ele>
        <time>2025-04-27T10:45:58Z</time>
      </trkpt>
      <trkpt lat="42.967599034309387" lon="-1.551220966503024">
        <ele>842.73000000000002</ele>
        <time>2025-04-27T10:46:00Z</time>
      </trkpt>
      <trkpt lat="42.967537008225918" lon="-1.551424982026219">
        <ele>844.17999999999995</ele>
        <time>2025-04-27T10:46:02Z</time>
      </trkpt>
      <trkpt lat="42.96741203404963" lon="-1.551836030557752">
        <ele>845.13999999999999</ele>
        <time>2025-04-27T10:46:03Z</time>
      </trkpt>
      <trkpt lat="42.967341039329767" lon="-1.552044991403818">
        <ele>845.62</ele>
        <time>2025-04-27T10:46:04Z</time>
      </trkpt>
      <trkpt lat="42.967037027701735" lon="-1.552640022709966">
        <ele>848.01999999999998</ele>
        <time>2025-04-27T10:46:08Z</time>
      </trkpt>
      <trkpt lat="42.966930996626616" lon="-1.552847977727652">
        <ele>848.01999999999998</ele>
        <time>2025-04-27T10:46:09Z</time>
      </trkpt>
      <trkpt lat="42.96627402305603" lon="-1.554161002859473">
        <ele>851.38</ele>
        <time>2025-04-27T10:46:14Z</time>
      </trkpt>
      <trkpt lat="42.965492997318506" lon="-1.556038968265057">
        <ele>859.08000000000004</ele>
        <time>2025-04-27T10:46:23Z</time>
      </trkpt>
      <trkpt lat="42.965169958770275" lon="-1.556668030098081">
        <ele>861.48000000000002</ele>
        <time>2025-04-27T10:46:26Z</time>
      </trkpt>
      <trkpt lat="42.965113967657089" lon="-1.556870033964515">
        <ele>862.44000000000005</ele>
        <time>2025-04-27T10:46:27Z</time>
      </trkpt>
      <trkpt lat="42.965056970715523" lon="-1.55707698315382">
        <ele>863.88</ele>
        <time>2025-04-27T10:46:28Z</time>
      </trkpt>
      <trkpt lat="42.964994022622705" lon="-1.557306982576847">
        <ele>864.84000000000003</ele>
        <time>2025-04-27T10:46:29Z</time>
      </trkpt>
      <trkpt lat="42.964449031278491" lon="-1.559086041525006">
        <ele>875.41999999999996</ele>
        <time>2025-04-27T10:46:36Z</time>
      </trkpt>
      <trkpt lat="42.964105037972331" lon="-1.560121038928628">
        <ele>881.66999999999996</ele>
        <time>2025-04-27T10:46:40Z</time>
      </trkpt>
      <trkpt lat="42.963685020804405" lon="-1.561521990224719">
        <ele>890.79999999999995</ele>
        <time>2025-04-27T10:46:46Z</time>
      </trkpt>
      <trkpt lat="42.963656019419432" lon="-1.561730029061437">
        <ele>892.72000000000003</ele>
        <time>2025-04-27T10:46:47Z</time>
      </trkpt>
      <trkpt lat="42.963650990277529" lon="-1.561944019049406">
        <ele>893.67999999999995</ele>
        <time>2025-04-27T10:46:48Z</time>
      </trkpt>
      <trkpt lat="42.963659958913922" lon="-1.562178963795304">
        <ele>894.63999999999999</ele>
        <time>2025-04-27T10:46:49Z</time>
      </trkpt>
      <trkpt lat="42.963670017197728" lon="-1.562411980703473">
        <ele>895.12</ele>
        <time>2025-04-27T10:46:50Z</time>
      </trkpt>
      <trkpt lat="42.963714022189379" lon="-1.562635023146868">
        <ele>895.61000000000001</ele>
        <time>2025-04-27T10:46:51Z</time>
      </trkpt>
      <trkpt lat="42.963749980553985" lon="-1.562823029235005">
        <ele>896.09000000000003</ele>
        <time>2025-04-27T10:46:52Z</time>
      </trkpt>
      <trkpt lat="42.963783005252481" lon="-1.562991002574563">
        <ele>896.57000000000005</ele>
        <time>2025-04-27T10:46:53Z</time>
      </trkpt>
      <trkpt lat="42.963812006637454" lon="-1.563140032812953">
        <ele>896.57000000000005</ele>
        <time>2025-04-27T10:46:54Z</time>
      </trkpt>
      <trkpt lat="42.963818041607738" lon="-1.563170040026307">
        <ele>896.57000000000005</ele>
        <time>2025-04-27T10:46:55Z</time>
      </trkpt>
      <trkpt lat="42.963770013302565" lon="-1.563312029466033">
        <ele>896.09000000000003</ele>
        <time>2025-04-27T10:46:56Z</time>
      </trkpt>
      <trkpt lat="42.963752998039126" lon="-1.563362991437316">
        <ele>896.09000000000003</ele>
        <time>2025-04-27T10:46:57Z</time>
      </trkpt>
      <trkpt lat="42.963702036067843" lon="-1.563414037227631">
        <ele>896.09000000000003</ele>
        <time>2025-04-27T10:46:58Z</time>
      </trkpt>
      <trkpt lat="42.963526016101241" lon="-1.563589973375201">
        <ele>894.63999999999999</ele>
        <time>2025-04-27T10:47:00Z</time>
      </trkpt>
      <trkpt lat="42.963311020284891" lon="-1.563820978626609">
        <ele>892.72000000000003</ele>
        <time>2025-04-27T10:47:02Z</time>
      </trkpt>
      <trkpt lat="42.963203983381391" lon="-1.563962968066335">
        <ele>892.24000000000001</ele>
        <time>2025-04-27T10:47:03Z</time>
      </trkpt>
      <trkpt lat="42.963111028075218" lon="-1.564134964719415">
        <ele>891.27999999999997</ele>
        <time>2025-04-27T10:47:04Z</time>
      </trkpt>
      <trkpt lat="42.962719006463885" lon="-1.564858993515372">
        <ele>887.90999999999997</ele>
        <time>2025-04-27T10:47:08Z</time>
      </trkpt>
      <trkpt lat="42.962603000923991" lon="-1.565007017925382">
        <ele>886.95000000000005</ele>
        <time>2025-04-27T10:47:09Z</time>
      </trkpt>
      <trkpt lat="42.962207961827517" lon="-1.565401973202825">
        <ele>883.11000000000001</ele>
        <time>2025-04-27T10:47:13Z</time>
      </trkpt>
      <trkpt lat="42.962144007906318" lon="-1.565529964864254">
        <ele>882.14999999999998</ele>
        <time>2025-04-27T10:47:14Z</time>
      </trkpt>
      <trkpt lat="42.962144007906318" lon="-1.565529964864254">
        <ele>881.66999999999996</ele>
        <time>2025-04-27T10:47:15Z</time>
      </trkpt>
      <trkpt lat="42.962162028998137" lon="-1.565567012876272">
        <ele>880.71000000000004</ele>
        <time>2025-04-27T10:47:16Z</time>
      </trkpt>
      <trkpt lat="42.96219103038311" lon="-1.565624009817839">
        <ele>879.74000000000001</ele>
        <time>2025-04-27T10:47:17Z</time>
      </trkpt>
      <trkpt lat="42.962216008454561" lon="-1.565658040344715">
        <ele>878.77999999999997</ele>
        <time>2025-04-27T10:47:18Z</time>
      </trkpt>
      <trkpt lat="42.962316004559398" lon="-1.565638007596135">
        <ele>878.29999999999995</ele>
        <time>2025-04-27T10:47:19Z</time>
      </trkpt>
      <trkpt lat="42.962411977350712" lon="-1.565561983734369">
        <ele>877.34000000000003</ele>
        <time>2025-04-27T10:47:20Z</time>
      </trkpt>
      <trkpt lat="42.962518008425832" lon="-1.565477997064591">
        <ele>876.38</ele>
        <time>2025-04-27T10:47:21Z</time>
      </trkpt>
      <trkpt lat="42.962651029229164" lon="-1.565371965989471">
        <ele>874.94000000000005</ele>
        <time>2025-04-27T10:47:22Z</time>
      </trkpt>
      <trkpt lat="42.963414033874869" lon="-1.564799984917045">
        <ele>868.69000000000005</ele>
        <time>2025-04-27T10:47:28Z</time>
      </trkpt>
      <trkpt lat="42.963516963645816" lon="-1.564737036824226">
        <ele>867.73000000000002</ele>
        <time>2025-04-27T10:47:29Z</time>
      </trkpt>
      <trkpt lat="42.96361000277102" lon="-1.564752040430903">
        <ele>866.76999999999998</ele>
        <time>2025-04-27T10:47:30Z</time>
      </trkpt>
      <trkpt lat="42.963674962520599" lon="-1.564820017665625">
        <ele>865.79999999999995</ele>
        <time>2025-04-27T10:47:31Z</time>
      </trkpt>
      <trkpt lat="42.963732965290546" lon="-1.564941974356771">
        <ele>864.84000000000003</ele>
        <time>2025-04-27T10:47:32Z</time>
      </trkpt>
      <trkpt lat="42.963876966387033" lon="-1.565249003469944">
        <ele>862.91999999999996</ele>
        <time>2025-04-27T10:47:34Z</time>
      </trkpt>
      <trkpt lat="42.96395399607718" lon="-1.565413037315011">
        <ele>862.44000000000005</ele>
        <time>2025-04-27T10:47:35Z</time>
      </trkpt>
      <trkpt lat="42.964030019938946" lon="-1.565572964027524">
        <ele>861</ele>
        <time>2025-04-27T10:47:36Z</time>
      </trkpt>
      <trkpt lat="42.964102020487189" lon="-1.565726017579436">
        <ele>860.03999999999996</ele>
        <time>2025-04-27T10:47:37Z</time>
      </trkpt>
      <trkpt lat="42.964162034913898" lon="-1.565875969827175">
        <ele>859.08000000000004</ele>
        <time>2025-04-27T10:47:38Z</time>
      </trkpt>
      <trkpt lat="42.964171003550291" lon="-1.566052995622158">
        <ele>858.59000000000003</ele>
        <time>2025-04-27T10:47:39Z</time>
      </trkpt>
      <trkpt lat="42.964181983843446" lon="-1.566260028630495">
        <ele>858.11000000000001</ele>
        <time>2025-04-27T10:47:40Z</time>
      </trkpt>
      <trkpt lat="42.96414602547884" lon="-1.566391037777066">
        <ele>857.14999999999998</ele>
        <time>2025-04-27T10:47:41Z</time>
      </trkpt>
      <trkpt lat="42.964099003002048" lon="-1.566558005288243">
        <ele>856.19000000000005</ele>
        <time>2025-04-27T10:47:42Z</time>
      </trkpt>
      <trkpt lat="42.964051980525255" lon="-1.56672396697104">
        <ele>855.71000000000004</ele>
        <time>2025-04-27T10:47:43Z</time>
      </trkpt>
      <trkpt lat="42.964028008282185" lon="-1.56689596362412">
        <ele>854.75</ele>
        <time>2025-04-27T10:47:44Z</time>
      </trkpt>
      <trkpt lat="42.964020967483521" lon="-1.56706502661109">
        <ele>853.78999999999996</ele>
        <time>2025-04-27T10:47:45Z</time>
      </trkpt>
      <trkpt lat="42.964014010503888" lon="-1.567232999950647">
        <ele>852.35000000000002</ele>
        <time>2025-04-27T10:47:46Z</time>
      </trkpt>
      <trkpt lat="42.964033037424088" lon="-1.567377001047134">
        <ele>850.89999999999998</ele>
        <time>2025-04-27T10:47:47Z</time>
      </trkpt>
      <trkpt lat="42.964071007445455" lon="-1.567490994930267">
        <ele>849.46000000000004</ele>
        <time>2025-04-27T10:47:48Z</time>
      </trkpt>
      <trkpt lat="42.964216014370322" lon="-1.567644970491529">
        <ele>848.01999999999998</ele>
        <time>2025-04-27T10:47:50Z</time>
      </trkpt>
      <trkpt lat="42.964290026575327" lon="-1.567718982696533">
        <ele>847.05999999999995</ele>
        <time>2025-04-27T10:47:51Z</time>
      </trkpt>
      <trkpt lat="42.964354986324906" lon="-1.567848986014724">
        <ele>846.58000000000004</ele>
        <time>2025-04-27T10:47:52Z</time>
      </trkpt>
      <trkpt lat="42.964363032951951" lon="-1.567950993776321">
        <ele>845.62</ele>
        <time>2025-04-27T10:47:53Z</time>
      </trkpt>
      <trkpt lat="42.964332019910216" lon="-1.568091977387667">
        <ele>844.65999999999997</ele>
        <time>2025-04-27T10:47:54Z</time>
      </trkpt>
      <trkpt lat="42.964294971898198" lon="-1.568259028717876">
        <ele>843.69000000000005</ele>
        <time>2025-04-27T10:47:55Z</time>
      </trkpt>
      <trkpt lat="42.964167986065149" lon="-1.569007029756904">
        <ele>837.45000000000005</ele>
        <time>2025-04-27T10:47:59Z</time>
      </trkpt>
      <trkpt lat="42.964177038520575" lon="-1.569178020581603">
        <ele>835.51999999999998</ele>
        <time>2025-04-27T10:48:00Z</time>
      </trkpt>
      <trkpt lat="42.964203022420406" lon="-1.569325039163232">
        <ele>834.08000000000004</ele>
        <time>2025-04-27T10:48:01Z</time>
      </trkpt>
      <trkpt lat="42.964346017688513" lon="-1.569607006385922">
        <ele>831.67999999999995</ele>
        <time>2025-04-27T10:48:03Z</time>
      </trkpt>
      <trkpt lat="42.964433021843433" lon="-1.569776991382241">
        <ele>830.24000000000001</ele>
        <time>2025-04-27T10:48:04Z</time>
      </trkpt>
      <trkpt lat="42.964522037655115" lon="-1.569952005520463">
        <ele>828.78999999999996</ele>
        <time>2025-04-27T10:48:05Z</time>
      </trkpt>
      <trkpt lat="42.964609041810036" lon="-1.570121990516782">
        <ele>827.35000000000002</ele>
        <time>2025-04-27T10:48:06Z</time>
      </trkpt>
      <trkpt lat="42.964693028479815" lon="-1.570287030190229">
        <ele>825.90999999999997</ele>
        <time>2025-04-27T10:48:07Z</time>
      </trkpt>
      <trkpt lat="42.964786989614367" lon="-1.570443017408252">
        <ele>824.47000000000003</ele>
        <time>2025-04-27T10:48:08Z</time>
      </trkpt>
      <trkpt lat="42.96489997766912" lon="-1.570534966886044">
        <ele>823.02999999999997</ele>
        <time>2025-04-27T10:48:09Z</time>
      </trkpt>
      <trkpt lat="42.965012965723872" lon="-1.570627000182867">
        <ele>822.05999999999995</ele>
        <time>2025-04-27T10:48:10Z</time>
      </trkpt>
      <trkpt lat="42.965245982632041" lon="-1.570816012099385">
        <ele>819.17999999999995</ele>
        <time>2025-04-27T10:48:12Z</time>
      </trkpt>
      <trkpt lat="42.965355031192303" lon="-1.570905027911067">
        <ele>818.22000000000003</ele>
        <time>2025-04-27T10:48:13Z</time>
      </trkpt>
      <trkpt lat="42.965451003983617" lon="-1.570991026237607">
        <ele>816.77999999999997</ele>
        <time>2025-04-27T10:48:14Z</time>
      </trkpt>
      <trkpt lat="42.965485034510493" lon="-1.571109965443611">
        <ele>815.82000000000005</ele>
        <time>2025-04-27T10:48:15Z</time>
      </trkpt>
      <trkpt lat="42.965476987883449" lon="-1.571223959326744">
        <ele>814.85000000000002</ele>
        <time>2025-04-27T10:48:16Z</time>
      </trkpt>
      <trkpt lat="42.96545896679163" lon="-1.571344994008541">
        <ele>813.88999999999999</ele>
        <time>2025-04-27T10:48:17Z</time>
      </trkpt>
      <trkpt lat="42.96543700620532" lon="-1.571490000933409">
        <ele>812.45000000000005</ele>
        <time>2025-04-27T10:48:18Z</time>
      </trkpt>
      <trkpt lat="42.965411022305489" lon="-1.571659985929728">
        <ele>811.49000000000001</ele>
        <time>2025-04-27T10:48:19Z</time>
      </trkpt>
      <trkpt lat="42.965384032577276" lon="-1.571845980361104">
        <ele>810.04999999999995</ele>
        <time>2025-04-27T10:48:20Z</time>
      </trkpt>
      <trkpt lat="42.965404987335205" lon="-1.572397006675601">
        <ele>806.67999999999995</ele>
        <time>2025-04-27T10:48:23Z</time>
      </trkpt>
      <trkpt lat="42.965451003983617" lon="-1.572562968358398">
        <ele>805.72000000000003</ele>
        <time>2025-04-27T10:48:24Z</time>
      </trkpt>
      <trkpt lat="42.965491991490126" lon="-1.572657013311982">
        <ele>804.75999999999999</ele>
        <time>2025-04-27T10:48:25Z</time>
      </trkpt>
      <trkpt lat="42.965580001473427" lon="-1.572750974446535">
        <ele>804.27999999999997</ele>
        <time>2025-04-27T10:48:26Z</time>
      </trkpt>
      <trkpt lat="42.965678991749883" lon="-1.572855999693275">
        <ele>803.32000000000005</ele>
        <time>2025-04-27T10:48:27Z</time>
      </trkpt>
      <trkpt lat="42.965789968147874" lon="-1.572963036596775">
        <ele>802.84000000000003</ele>
        <time>2025-04-27T10:48:28Z</time>
      </trkpt>
      <trkpt lat="42.965928018093109" lon="-1.573021961376071">
        <ele>801.88</ele>
        <time>2025-04-27T10:48:29Z</time>
      </trkpt>
      <trkpt lat="42.966071013361216" lon="-1.57308298163116">
        <ele>801.39999999999998</ele>
        <time>2025-04-27T10:48:30Z</time>
      </trkpt>
      <trkpt lat="42.967402981594205" lon="-1.573256989941001">
        <ele>794.19000000000005</ele>
        <time>2025-04-27T10:48:39Z</time>
      </trkpt>
      <trkpt lat="42.967675980180502" lon="-1.57327501103282">
        <ele>792.25999999999999</ele>
        <time>2025-04-27T10:48:41Z</time>
      </trkpt>
      <trkpt lat="42.967807995155454" lon="-1.573235029354692">
        <ele>791.29999999999995</ele>
        <time>2025-04-27T10:48:42Z</time>
      </trkpt>
      <trkpt lat="42.967932969331741" lon="-1.573187001049519">
        <ele>790.34000000000003</ele>
        <time>2025-04-27T10:48:43Z</time>
      </trkpt>
      <trkpt lat="42.968184007331729" lon="-1.573016010224819">
        <ele>788.41999999999996</ele>
        <time>2025-04-27T10:48:45Z</time>
      </trkpt>
      <trkpt lat="42.968864031136036" lon="-1.572204977273941">
        <ele>782.16999999999996</ele>
        <time>2025-04-27T10:48:51Z</time>
      </trkpt>
      <trkpt lat="42.969095036387444" lon="-1.571786971762776">
        <ele>779.76999999999998</ele>
        <time>2025-04-27T10:48:54Z</time>
      </trkpt>
      <trkpt lat="42.969161001965404" lon="-1.571667026728392">
        <ele>778.80999999999995</ele>
        <time>2025-04-27T10:48:55Z</time>
      </trkpt>
      <trkpt lat="42.969254041090608" lon="-1.571599971503019">
        <ele>777.84000000000003</ele>
        <time>2025-04-27T10:48:56Z</time>
      </trkpt>
      <trkpt lat="42.969334004446864" lon="-1.571563007310033">
        <ele>776.88</ele>
        <time>2025-04-27T10:48:57Z</time>
      </trkpt>
      <trkpt lat="42.96943299472332" lon="-1.571577005088329">
        <ele>775.91999999999996</ele>
        <time>2025-04-27T10:48:58Z</time>
      </trkpt>
      <trkpt lat="42.969589987769723" lon="-1.571731986477971">
        <ele>774.48000000000002</ele>
        <time>2025-04-27T10:48:59Z</time>
      </trkpt>
      <trkpt lat="42.969596022740006" lon="-1.571746990084648">
        <ele>773.51999999999998</ele>
        <time>2025-04-27T10:49:00Z</time>
      </trkpt>
      <trkpt lat="42.969658970832825" lon="-1.571894008666277">
        <ele>772.55999999999995</ele>
        <time>2025-04-27T10:49:01Z</time>
      </trkpt>
      <trkpt lat="42.969723008573055" lon="-1.572043038904667">
        <ele>771.60000000000002</ele>
        <time>2025-04-27T10:49:02Z</time>
      </trkpt>
      <trkpt lat="42.969786040484905" lon="-1.572188967838883">
        <ele>770.14999999999998</ele>
        <time>2025-04-27T10:49:03Z</time>
      </trkpt>
      <trkpt lat="42.969844965264201" lon="-1.572327017784119">
        <ele>769.19000000000005</ele>
        <time>2025-04-27T10:49:04Z</time>
      </trkpt>
      <trkpt lat="42.969901040196419" lon="-1.572457021102309">
        <ele>768.23000000000002</ele>
        <time>2025-04-27T10:49:05Z</time>
      </trkpt>
      <trkpt lat="42.970005981624126" lon="-1.572526004165411">
        <ele>767.26999999999998</ele>
        <time>2025-04-27T10:49:06Z</time>
      </trkpt>
      <trkpt lat="42.970122992992401" lon="-1.572579983621836">
        <ele>765.83000000000004</ele>
        <time>2025-04-27T10:49:07Z</time>
      </trkpt>
      <trkpt lat="42.970190970227122" lon="-1.57261099666357">
        <ele>764.38999999999999</ele>
        <time>2025-04-27T10:49:08Z</time>
      </trkpt>
      <trkpt lat="42.970319967716932" lon="-1.572593981400132">
        <ele>762.94000000000005</ele>
        <time>2025-04-27T10:49:09Z</time>
      </trkpt>
      <trkpt lat="42.97042197547853" lon="-1.572580989450216">
        <ele>761.5</ele>
        <time>2025-04-27T10:49:10Z</time>
      </trkpt>
      <trkpt lat="42.970506967976689" lon="-1.572569003328681">
        <ele>760.53999999999996</ele>
        <time>2025-04-27T10:49:11Z</time>
      </trkpt>
      <trkpt lat="42.970597995445132" lon="-1.572590041905642">
        <ele>757.65999999999997</ele>
        <time>2025-04-27T10:49:13Z</time>
      </trkpt>
      <trkpt lat="42.970597995445132" lon="-1.572590041905642">
        <ele>756.21000000000004</ele>
        <time>2025-04-27T10:49:14Z</time>
      </trkpt>
      <trkpt lat="42.970597995445132" lon="-1.572590041905642">
        <ele>754.28999999999996</ele>
        <time>2025-04-27T10:49:16Z</time>
      </trkpt>
      <trkpt lat="42.970587015151978" lon="-1.572623988613486">
        <ele>753.33000000000004</ele>
        <time>2025-04-27T10:49:29Z</time>
      </trkpt>
      <trkpt lat="42.970703020691872" lon="-1.572561040520668">
        <ele>773.51999999999998</ele>
        <time>2025-04-27T11:02:13Z</time>
      </trkpt>
      <trkpt lat="42.970734033733606" lon="-1.572735970839858">
        <ele>765.35000000000002</ele>
        <time>2025-04-27T11:02:50Z</time>
      </trkpt>
      <trkpt lat="42.970704026520252" lon="-1.572666987776756">
        <ele>766.30999999999995</ele>
        <time>2025-04-27T11:03:39Z</time>
      </trkpt>
      <trkpt lat="42.970691034570336" lon="-1.572648966684938">
        <ele>768.23000000000002</ele>
        <time>2025-04-27T11:04:14Z</time>
      </trkpt>
      <trkpt lat="42.970690028741956" lon="-1.572648966684938">
        <ele>768.23000000000002</ele>
        <time>2025-04-27T11:04:48Z</time>
      </trkpt>
      <trkpt lat="42.970585003495216" lon="-1.572628011927009">
        <ele>769.19000000000005</ele>
        <time>2025-04-27T11:05:27Z</time>
      </trkpt>
      <trkpt lat="42.970554996281862" lon="-1.572719039395452">
        <ele>769.19000000000005</ele>
        <time>2025-04-27T11:05:28Z</time>
      </trkpt>
      <trkpt lat="42.970554996281862" lon="-1.572719039395452">
        <ele>769.19000000000005</ele>
        <time>2025-04-27T11:05:29Z</time>
      </trkpt>
      <trkpt lat="42.970535969361663" lon="-1.572724990546703">
        <ele>769.66999999999996</ele>
        <time>2025-04-27T11:05:30Z</time>
      </trkpt>
      <trkpt lat="42.970478972420096" lon="-1.572744017466903">
        <ele>769.19000000000005</ele>
        <time>2025-04-27T11:05:31Z</time>
      </trkpt>
      <trkpt lat="42.970085022971034" lon="-1.572789028286934">
        <ele>768.23000000000002</ele>
        <time>2025-04-27T11:05:36Z</time>
      </trkpt>
      <trkpt lat="42.969581019133329" lon="-1.572644021362066">
        <ele>767.75</ele>
        <time>2025-04-27T11:05:41Z</time>
      </trkpt>
      <trkpt lat="42.969482028856874" lon="-1.57261099666357">
        <ele>767.26999999999998</ele>
        <time>2025-04-27T11:05:42Z</time>
      </trkpt>
      <trkpt lat="42.969391001388431" lon="-1.572662964463234">
        <ele>766.78999999999996</ele>
        <time>2025-04-27T11:05:43Z</time>
      </trkpt>
      <trkpt lat="42.969331992790103" lon="-1.57269699499011">
        <ele>766.78999999999996</ele>
        <time>2025-04-27T11:05:44Z</time>
      </trkpt>
      <trkpt lat="42.969278013333678" lon="-1.572844013571739">
        <ele>766.30999999999995</ele>
        <time>2025-04-27T11:05:45Z</time>
      </trkpt>
      <trkpt lat="42.969229985028505" lon="-1.57297401688993">
        <ele>765.83000000000004</ele>
        <time>2025-04-27T11:05:46Z</time>
      </trkpt>
      <trkpt lat="42.969178017228842" lon="-1.573112988844514">
        <ele>765.35000000000002</ele>
        <time>2025-04-27T11:05:47Z</time>
      </trkpt>
      <trkpt lat="42.969124037772417" lon="-1.573260007426143">
        <ele>764.87</ele>
        <time>2025-04-27T11:05:48Z</time>
      </trkpt>
      <trkpt lat="42.969040973111987" lon="-1.573380958288908">
        <ele>764.38999999999999</ele>
        <time>2025-04-27T11:05:49Z</time>
      </trkpt>
      <trkpt lat="42.968857996165752" lon="-1.57362001016736">
        <ele>762.46000000000004</ele>
        <time>2025-04-27T11:05:51Z</time>
      </trkpt>
      <trkpt lat="42.967775976285338" lon="-1.574632041156292">
        <ele>752.37</ele>
        <time>2025-04-27T11:06:00Z</time>
      </trkpt>
      <trkpt lat="42.967427959665656" lon="-1.575043005868793">
        <ele>748.51999999999998</ele>
        <time>2025-04-27T11:06:03Z</time>
      </trkpt>
      <trkpt lat="42.967193014919758" lon="-1.575356991961598">
        <ele>744.20000000000005</ele>
        <time>2025-04-27T11:06:06Z</time>
      </trkpt>
      <trkpt lat="42.96709000132978" lon="-1.575432009994984">
        <ele>742.75999999999999</ele>
        <time>2025-04-27T11:06:07Z</time>
      </trkpt>
      <trkpt lat="42.966649029403925" lon="-1.575667960569263">
        <ele>736.50999999999999</ele>
        <time>2025-04-27T11:06:11Z</time>
      </trkpt>
      <trkpt lat="42.966536963358521" lon="-1.575677013024688">
        <ele>735.07000000000005</ele>
        <time>2025-04-27T11:06:12Z</time>
      </trkpt>
      <trkpt lat="42.966429004445672" lon="-1.575653040781617">
        <ele>733.13999999999999</ele>
        <time>2025-04-27T11:06:13Z</time>
      </trkpt>
      <trkpt lat="42.966303024441004" lon="-1.575604006648064">
        <ele>731.22000000000003</ele>
        <time>2025-04-27T11:06:14Z</time>
      </trkpt>
      <trkpt lat="42.966165980324149" lon="-1.57555103302002">
        <ele>729.77999999999997</ele>
        <time>2025-04-27T11:06:15Z</time>
      </trkpt>
      <trkpt lat="42.965002991259098" lon="-1.575294965878129">
        <ele>719.67999999999995</ele>
        <time>2025-04-27T11:06:22Z</time>
      </trkpt>
      <trkpt lat="42.96472898684442" lon="-1.575191030278802">
        <ele>716.79999999999995</ele>
        <time>2025-04-27T11:06:24Z</time>
      </trkpt>
      <trkpt lat="42.964594960212708" lon="-1.575112994760275">
        <ele>715.36000000000001</ele>
        <time>2025-04-27T11:06:25Z</time>
      </trkpt>
      <trkpt lat="42.964454982429743" lon="-1.575031019747257">
        <ele>713.91999999999996</ele>
        <time>2025-04-27T11:06:26Z</time>
      </trkpt>
      <trkpt lat="42.964173015207052" lon="-1.574852988123894">
        <ele>711.02999999999997</ele>
        <time>2025-04-27T11:06:28Z</time>
      </trkpt>
      <trkpt lat="42.964035971090198" lon="-1.574789034202695">
        <ele>709.59000000000003</ele>
        <time>2025-04-27T11:06:29Z</time>
      </trkpt>
      <trkpt lat="42.963894987478852" lon="-1.57475701533258">
        <ele>708.14999999999998</ele>
        <time>2025-04-27T11:06:30Z</time>
      </trkpt>
      <trkpt lat="42.963746041059494" lon="-1.57475701533258">
        <ele>706.71000000000004</ele>
        <time>2025-04-27T11:06:31Z</time>
      </trkpt>
      <trkpt lat="42.963599022477865" lon="-1.574762966483831">
        <ele>705.25999999999999</ele>
        <time>2025-04-27T11:06:32Z</time>
      </trkpt>
      <trkpt lat="42.963254023343325" lon="-1.574796997010708">
        <ele>700.94000000000005</ele>
        <time>2025-04-27T11:06:35Z</time>
      </trkpt>
      <trkpt lat="42.963195014744997" lon="-1.574848964810371">
        <ele>699.98000000000002</ele>
        <time>2025-04-27T11:06:36Z</time>
      </trkpt>
      <trkpt lat="42.963153021410108" lon="-1.574944015592337">
        <ele>698.52999999999997</ele>
        <time>2025-04-27T11:06:37Z</time>
      </trkpt>
      <trkpt lat="42.963107004761696" lon="-1.575048035010696">
        <ele>697.57000000000005</ele>
        <time>2025-04-27T11:06:38Z</time>
      </trkpt>
      <trkpt lat="42.963056964799762" lon="-1.575161023065448">
        <ele>696.61000000000001</ele>
        <time>2025-04-27T11:06:39Z</time>
      </trkpt>
      <trkpt lat="42.962866025045514" lon="-1.575634013861418">
        <ele>692.28999999999996</ele>
        <time>2025-04-27T11:06:43Z</time>
      </trkpt>
      <trkpt lat="42.962834006175399" lon="-1.575754964724183">
        <ele>691.80999999999995</ele>
        <time>2025-04-27T11:06:44Z</time>
      </trkpt>
      <trkpt lat="42.962723029777408" lon="-1.576158972457051">
        <ele>690.36000000000001</ele>
        <time>2025-04-27T11:06:48Z</time>
      </trkpt>
      <trkpt lat="42.962702997028828" lon="-1.576233990490437">
        <ele>690.36000000000001</ele>
        <time>2025-04-27T11:06:49Z</time>
      </trkpt>
      <trkpt lat="42.962635019794106" lon="-1.576361982151866">
        <ele>689.88</ele>
        <time>2025-04-27T11:06:52Z</time>
      </trkpt>
      <trkpt lat="42.962539969012141" lon="-1.576539007946849">
        <ele>689.88</ele>
        <time>2025-04-27T11:06:54Z</time>
      </trkpt>
      <trkpt lat="42.962480960413814" lon="-1.57664998434484">
        <ele>689.88</ele>
        <time>2025-04-27T11:06:55Z</time>
      </trkpt>
      <trkpt lat="42.962423041462898" lon="-1.576759032905102">
        <ele>689.39999999999998</ele>
        <time>2025-04-27T11:06:56Z</time>
      </trkpt>
      <trkpt lat="42.962366966530681" lon="-1.576890964061022">
        <ele>689.39999999999998</ele>
        <time>2025-04-27T11:06:57Z</time>
      </trkpt>
      <trkpt lat="42.962338970974088" lon="-1.577004035934806">
        <ele>689.88</ele>
        <time>2025-04-27T11:06:58Z</time>
      </trkpt>
      <trkpt lat="42.962316004559398" lon="-1.577147031202912">
        <ele>689.88</ele>
        <time>2025-04-27T11:06:59Z</time>
      </trkpt>
      <trkpt lat="42.962324973195791" lon="-1.577325984835625">
        <ele>690.36000000000001</ele>
        <time>2025-04-27T11:07:00Z</time>
      </trkpt>
      <trkpt lat="42.962366966530681" lon="-1.577395973727107">
        <ele>689.88</ele>
        <time>2025-04-27T11:07:01Z</time>
      </trkpt>
      <trkpt lat="42.962458999827504" lon="-1.577463028952479">
        <ele>689.88</ele>
        <time>2025-04-27T11:07:02Z</time>
      </trkpt>
      <trkpt lat="42.962529994547367" lon="-1.577504016458988">
        <ele>689.39999999999998</ele>
        <time>2025-04-27T11:07:03Z</time>
      </trkpt>
      <trkpt lat="42.962584979832172" lon="-1.577568976208568">
        <ele>688.44000000000005</ele>
        <time>2025-04-27T11:07:04Z</time>
      </trkpt>
      <trkpt lat="42.962649017572403" lon="-1.577652962878346">
        <ele>687.96000000000004</ele>
        <time>2025-04-27T11:07:05Z</time>
      </trkpt>
      <trkpt lat="42.962711965665221" lon="-1.577771985903382">
        <ele>687.48000000000002</ele>
        <time>2025-04-27T11:07:06Z</time>
      </trkpt>
      <trkpt lat="42.962790001183748" lon="-1.577912969514728">
        <ele>686.51999999999998</ele>
        <time>2025-04-27T11:07:07Z</time>
      </trkpt>
      <trkpt lat="42.962891003116965" lon="-1.577996034175158">
        <ele>686.03999999999996</ele>
        <time>2025-04-27T11:07:08Z</time>
      </trkpt>
      <trkpt lat="42.962997034192085" lon="-1.578083960339427">
        <ele>685.08000000000004</ele>
        <time>2025-04-27T11:07:09Z</time>
      </trkpt>
      <trkpt lat="42.963300962001085" lon="-1.578347990289331">
        <ele>682.66999999999996</ele>
        <time>2025-04-27T11:07:12Z</time>
      </trkpt>
      <trkpt lat="42.963378997519612" lon="-1.578459972515702">
        <ele>681.71000000000004</ele>
        <time>2025-04-27T11:07:13Z</time>
      </trkpt>
      <trkpt lat="42.963458960875869" lon="-1.578575978055596">
        <ele>680.75</ele>
        <time>2025-04-27T11:07:14Z</time>
      </trkpt>
      <trkpt lat="42.963510006666183" lon="-1.578716039657593">
        <ele>679.78999999999996</ele>
        <time>2025-04-27T11:07:15Z</time>
      </trkpt>
      <trkpt lat="42.963559040799737" lon="-1.578877978026867">
        <ele>678.83000000000004</ele>
        <time>2025-04-27T11:07:16Z</time>
      </trkpt>
      <trkpt lat="42.96361000277102" lon="-1.579043017700315">
        <ele>677.38999999999999</ele>
        <time>2025-04-27T11:07:17Z</time>
      </trkpt>
      <trkpt lat="42.963682003319263" lon="-1.579200010746718">
        <ele>675.94000000000005</ele>
        <time>2025-04-27T11:07:18Z</time>
      </trkpt>
      <trkpt lat="42.96376196667552" lon="-1.579349962994456">
        <ele>674.98000000000002</ele>
        <time>2025-04-27T11:07:19Z</time>
      </trkpt>
      <trkpt lat="42.963851988315582" lon="-1.579492036253214">
        <ele>673.53999999999996</ele>
        <time>2025-04-27T11:07:20Z</time>
      </trkpt>
      <trkpt lat="42.963947961106896" lon="-1.579625979065895">
        <ele>672.58000000000004</ele>
        <time>2025-04-27T11:07:21Z</time>
      </trkpt>
      <trkpt lat="42.964049968868494" lon="-1.579757994040847">
        <ele>671.13999999999999</ele>
        <time>2025-04-27T11:07:22Z</time>
      </trkpt>
      <trkpt lat="42.964485995471478" lon="-1.580267027020454">
        <ele>666.33000000000004</ele>
        <time>2025-04-27T11:07:26Z</time>
      </trkpt>
      <trkpt lat="42.964769974350929" lon="-1.580701963976026">
        <ele>662.49000000000001</ele>
        <time>2025-04-27T11:07:29Z</time>
      </trkpt>
      <trkpt lat="42.964840969070792" lon="-1.58088200725615">
        <ele>661.03999999999996</ele>
        <time>2025-04-27T11:07:30Z</time>
      </trkpt>
      <trkpt lat="42.964896960183978" lon="-1.581081999465823">
        <ele>659.60000000000002</ele>
        <time>2025-04-27T11:07:31Z</time>
      </trkpt>
      <trkpt lat="42.96494398266077" lon="-1.581293977797031">
        <ele>658.63999999999999</ele>
        <time>2025-04-27T11:07:32Z</time>
      </trkpt>
      <trkpt lat="42.964960997924209" lon="-1.581532023847103">
        <ele>657.20000000000005</ele>
        <time>2025-04-27T11:07:33Z</time>
      </trkpt>
      <trkpt lat="42.965126959607005" lon="-1.582775982096791">
        <ele>649.50999999999999</ele>
        <time>2025-04-27T11:07:39Z</time>
      </trkpt>
      <trkpt lat="42.965126959607005" lon="-1.582915037870407">
        <ele>648.54999999999995</ele>
        <time>2025-04-27T11:07:40Z</time>
      </trkpt>
      <trkpt lat="42.96506904065609" lon="-1.583058033138514">
        <ele>647.59000000000003</ele>
        <time>2025-04-27T11:07:41Z</time>
      </trkpt>
      <trkpt lat="42.964993016794324" lon="-1.583195999264717">
        <ele>647.10000000000002</ele>
        <time>2025-04-27T11:07:42Z</time>
      </trkpt>
      <trkpt lat="42.964909030124545" lon="-1.583349974825978">
        <ele>646.13999999999999</ele>
        <time>2025-04-27T11:07:43Z</time>
      </trkpt>
      <trkpt lat="42.964790007099509" lon="-1.583477966487408">
        <ele>645.17999999999995</ele>
        <time>2025-04-27T11:07:44Z</time>
      </trkpt>
      <trkpt lat="42.964655980467796" lon="-1.583604030311108">
        <ele>644.70000000000005</ele>
        <time>2025-04-27T11:07:45Z</time>
      </trkpt>
      <trkpt lat="42.964514996856451" lon="-1.583736967295408">
        <ele>644.22000000000003</ele>
        <time>2025-04-27T11:07:46Z</time>
      </trkpt>
      <trkpt lat="42.964368984103203" lon="-1.583874011412263">
        <ele>643.74000000000001</ele>
        <time>2025-04-27T11:07:47Z</time>
      </trkpt>
      <trkpt lat="42.964081987738609" lon="-1.584101999178529">
        <ele>642.29999999999995</ele>
        <time>2025-04-27T11:07:49Z</time>
      </trkpt>
      <trkpt lat="42.963935974985361" lon="-1.584162013605237">
        <ele>641.82000000000005</ele>
        <time>2025-04-27T11:07:50Z</time>
      </trkpt>
      <trkpt lat="42.963795997202396" lon="-1.584220016375184">
        <ele>641.34000000000003</ele>
        <time>2025-04-27T11:07:51Z</time>
      </trkpt>
      <trkpt lat="42.963649984449148" lon="-1.584225967526436">
        <ele>641.34000000000003</ele>
        <time>2025-04-27T11:07:52Z</time>
      </trkpt>
      <trkpt lat="42.963515035808086" lon="-1.584232002496719">
        <ele>641.34000000000003</ele>
        <time>2025-04-27T11:07:53Z</time>
      </trkpt>
      <trkpt lat="42.96339500695467" lon="-1.584237031638622">
        <ele>641.82000000000005</ele>
        <time>2025-04-27T11:07:54Z</time>
      </trkpt>
      <trkpt lat="42.963273972272873" lon="-1.584266033023596">
        <ele>641.34000000000003</ele>
        <time>2025-04-27T11:07:55Z</time>
      </trkpt>
      <trkpt lat="42.963173976168036" lon="-1.584352031350136">
        <ele>641.82000000000005</ele>
        <time>2025-04-27T11:07:56Z</time>
      </trkpt>
      <trkpt lat="42.963074985891581" lon="-1.584492009133101">
        <ele>641.82000000000005</ele>
        <time>2025-04-27T11:07:57Z</time>
      </trkpt>
      <trkpt lat="42.962984964251518" lon="-1.584636010229588">
        <ele>641.82000000000005</ele>
        <time>2025-04-27T11:07:58Z</time>
      </trkpt>
      <trkpt lat="42.962900977581739" lon="-1.584768025204539">
        <ele>642.29999999999995</ele>
        <time>2025-04-27T11:07:59Z</time>
      </trkpt>
      <trkpt lat="42.962782038375735" lon="-1.584801971912384">
        <ele>642.77999999999997</ele>
        <time>2025-04-27T11:08:00Z</time>
      </trkpt>
      <trkpt lat="42.962641976773739" lon="-1.584831979125738">
        <ele>643.25999999999999</ele>
        <time>2025-04-27T11:08:01Z</time>
      </trkpt>
      <trkpt lat="42.962492024526" lon="-1.584865003824234">
        <ele>643.74000000000001</ele>
        <time>2025-04-27T11:08:02Z</time>
      </trkpt>
      <trkpt lat="42.962356992065907" lon="-1.584894005209208">
        <ele>644.22000000000003</ele>
        <time>2025-04-27T11:08:03Z</time>
      </trkpt>
      <trkpt lat="42.962239980697632" lon="-1.584919989109039">
        <ele>644.70000000000005</ele>
        <time>2025-04-27T11:08:04Z</time>
      </trkpt>
      <trkpt lat="42.962063038721681" lon="-1.585002969950438">
        <ele>645.65999999999997</ele>
        <time>2025-04-27T11:08:06Z</time>
      </trkpt>
      <trkpt lat="42.961993971839547" lon="-1.585100032389164">
        <ele>645.17999999999995</ele>
        <time>2025-04-27T11:08:07Z</time>
      </trkpt>
      <trkpt lat="42.961972011253238" lon="-1.585173960775137">
        <ele>645.17999999999995</ele>
        <time>2025-04-27T11:08:08Z</time>
      </trkpt>
      <trkpt lat="42.96182700432837" lon="-1.585662961006165">
        <ele>645.17999999999995</ele>
        <time>2025-04-27T11:08:12Z</time>
      </trkpt>
      <trkpt lat="42.961734971031547" lon="-1.585761029273272">
        <ele>645.17999999999995</ele>
        <time>2025-04-27T11:08:13Z</time>
      </trkpt>
      <trkpt lat="42.961643021553755" lon="-1.585848033428192">
        <ele>645.17999999999995</ele>
        <time>2025-04-27T11:08:14Z</time>
      </trkpt>
      <trkpt lat="42.961559034883976" lon="-1.585925985127688">
        <ele>645.65999999999997</ele>
        <time>2025-04-27T11:08:15Z</time>
      </trkpt>
      <trkpt lat="42.96148200519383" lon="-1.585998991504312">
        <ele>645.65999999999997</ele>
        <time>2025-04-27T11:08:16Z</time>
      </trkpt>
      <trkpt lat="42.961448980495334" lon="-1.586096975952387">
        <ele>645.17999999999995</ele>
        <time>2025-04-27T11:08:17Z</time>
      </trkpt>
      <trkpt lat="42.961435988545418" lon="-1.586219016462565">
        <ele>644.70000000000005</ele>
        <time>2025-04-27T11:08:18Z</time>
      </trkpt>
      <trkpt lat="42.961420984938741" lon="-1.586362011730671">
        <ele>644.22000000000003</ele>
        <time>2025-04-27T11:08:19Z</time>
      </trkpt>
      <trkpt lat="42.961392989382148" lon="-1.586623024195433">
        <ele>643.74000000000001</ele>
        <time>2025-04-27T11:08:21Z</time>
      </trkpt>
      <trkpt lat="42.961319983005524" lon="-1.586751015856862">
        <ele>643.74000000000001</ele>
        <time>2025-04-27T11:08:22Z</time>
      </trkpt>
      <trkpt lat="42.961239013820887" lon="-1.586808012798429">
        <ele>643.74000000000001</ele>
        <time>2025-04-27T11:08:23Z</time>
      </trkpt>
      <trkpt lat="42.961148992180824" lon="-1.586831985041499">
        <ele>643.74000000000001</ele>
        <time>2025-04-27T11:08:24Z</time>
      </trkpt>
      <trkpt lat="42.961041033267975" lon="-1.586812036111951">
        <ele>644.22000000000003</ele>
        <time>2025-04-27T11:08:25Z</time>
      </trkpt>
      <trkpt lat="42.960927039384842" lon="-1.58679099753499">
        <ele>644.22000000000003</ele>
        <time>2025-04-27T11:08:26Z</time>
      </trkpt>
      <trkpt lat="42.960835006088018" lon="-1.586772976443172">
        <ele>644.70000000000005</ele>
        <time>2025-04-27T11:08:27Z</time>
      </trkpt>
      <trkpt lat="42.96068798750639" lon="-1.58681002445519">
        <ele>645.17999999999995</ele>
        <time>2025-04-27T11:08:28Z</time>
      </trkpt>
      <trkpt lat="42.960574999451637" lon="-1.586882025003433">
        <ele>645.65999999999997</ele>
        <time>2025-04-27T11:08:29Z</time>
      </trkpt>
      <trkpt lat="42.960455976426601" lon="-1.586971962824464">
        <ele>646.13999999999999</ele>
        <time>2025-04-27T11:08:30Z</time>
      </trkpt>
      <trkpt lat="42.960340976715088" lon="-1.587057961151004">
        <ele>647.10000000000002</ele>
        <time>2025-04-27T11:08:31Z</time>
      </trkpt>
      <trkpt lat="42.960239974781871" lon="-1.58713398501277">
        <ele>647.59000000000003</ele>
        <time>2025-04-27T11:08:32Z</time>
      </trkpt>
      <trkpt lat="42.960148025304079" lon="-1.587202968075872">
        <ele>648.07000000000005</ele>
        <time>2025-04-27T11:08:33Z</time>
      </trkpt>
      <trkpt lat="42.960123969241977" lon="-1.587313022464514">
        <ele>648.54999999999995</ele>
        <time>2025-04-27T11:08:34Z</time>
      </trkpt>
      <trkpt lat="42.960115000605583" lon="-1.587423998862505">
        <ele>649.02999999999997</ele>
        <time>2025-04-27T11:08:35Z</time>
      </trkpt>
      <trkpt lat="42.960155988112092" lon="-1.587540004402399">
        <ele>649.50999999999999</ele>
        <time>2025-04-27T11:08:36Z</time>
      </trkpt>
      <trkpt lat="42.960205022245646" lon="-1.587679982185364">
        <ele>649.99000000000001</ele>
        <time>2025-04-27T11:08:37Z</time>
      </trkpt>
      <trkpt lat="42.96025799587369" lon="-1.587838986888528">
        <ele>649.99000000000001</ele>
        <time>2025-04-27T11:08:38Z</time>
      </trkpt>
      <trkpt lat="42.960291020572186" lon="-1.588019030168653">
        <ele>649.50999999999999</ele>
        <time>2025-04-27T11:08:39Z</time>
      </trkpt>
      <trkpt lat="42.960394034162164" lon="-1.588552035391331">
        <ele>648.07000000000005</ele>
        <time>2025-04-27T11:08:42Z</time>
      </trkpt>
      <trkpt lat="42.960461005568504" lon="-1.588693019002676">
        <ele>647.10000000000002</ele>
        <time>2025-04-27T11:08:43Z</time>
      </trkpt>
      <trkpt lat="42.960619004443288" lon="-1.589022008702159">
        <ele>645.65999999999997</ele>
        <time>2025-04-27T11:08:46Z</time>
      </trkpt>
      <trkpt lat="42.960612969473004" lon="-1.589140025898814">
        <ele>645.17999999999995</ele>
        <time>2025-04-27T11:08:47Z</time>
      </trkpt>
      <trkpt lat="42.960598971694708" lon="-1.589176990091801">
        <ele>644.70000000000005</ele>
        <time>2025-04-27T11:08:48Z</time>
      </trkpt>
      <trkpt lat="42.960522025823593" lon="-1.589196017012">
        <ele>644.70000000000005</ele>
        <time>2025-04-27T11:08:49Z</time>
      </trkpt>
      <trkpt lat="42.960442984476686" lon="-1.589215965941548">
        <ele>644.70000000000005</ele>
        <time>2025-04-27T11:08:50Z</time>
      </trkpt>
      <trkpt lat="42.960353968665004" lon="-1.58923801034689">
        <ele>644.70000000000005</ele>
        <time>2025-04-27T11:08:51Z</time>
      </trkpt>
      <trkpt lat="42.960271993651986" lon="-1.589310010895133">
        <ele>644.70000000000005</ele>
        <time>2025-04-27T11:08:52Z</time>
      </trkpt>
      <trkpt lat="42.960208039730787" lon="-1.589413024485111">
        <ele>644.22000000000003</ele>
        <time>2025-04-27T11:08:53Z</time>
      </trkpt>
      <trkpt lat="42.960153976455331" lon="-1.589543027803302">
        <ele>644.22000000000003</ele>
        <time>2025-04-27T11:08:54Z</time>
      </trkpt>
      <trkpt lat="42.960093040019274" lon="-1.58968904055655">
        <ele>643.74000000000001</ele>
        <time>2025-04-27T11:08:55Z</time>
      </trkpt>
      <trkpt lat="42.959945015609264" lon="-1.590106962248683">
        <ele>644.22000000000003</ele>
        <time>2025-04-27T11:08:58Z</time>
      </trkpt>
      <trkpt lat="42.959919031709433" lon="-1.590222967788577">
        <ele>644.22000000000003</ele>
        <time>2025-04-27T11:08:59Z</time>
      </trkpt>
      <trkpt lat="42.959954990074039" lon="-1.590325981378555">
        <ele>644.22000000000003</ele>
        <time>2025-04-27T11:09:00Z</time>
      </trkpt>
      <trkpt lat="42.960002012550831" lon="-1.590410973876715">
        <ele>644.70000000000005</ele>
        <time>2025-04-27T11:09:01Z</time>
      </trkpt>
      <trkpt lat="42.960074013099074" lon="-1.590475011616945">
        <ele>644.70000000000005</ele>
        <time>2025-04-27T11:09:02Z</time>
      </trkpt>
      <trkpt lat="42.960168980062008" lon="-1.590531002730131">
        <ele>644.70000000000005</ele>
        <time>2025-04-27T11:09:03Z</time>
      </trkpt>
      <trkpt lat="42.960557984188199" lon="-1.590762007981539">
        <ele>645.17999999999995</ele>
        <time>2025-04-27T11:09:07Z</time>
      </trkpt>
      <trkpt lat="42.96060198917985" lon="-1.590814981609583">
        <ele>645.17999999999995</ele>
        <time>2025-04-27T11:09:08Z</time>
      </trkpt>
      <trkpt lat="42.960611963644624" lon="-1.590906009078026">
        <ele>644.70000000000005</ele>
        <time>2025-04-27T11:09:09Z</time>
      </trkpt>
      <trkpt lat="42.960620010271668" lon="-1.59097901545465">
        <ele>644.70000000000005</ele>
        <time>2025-04-27T11:09:10Z</time>
      </trkpt>
      <trkpt lat="42.960574999451637" lon="-1.591035006567836">
        <ele>644.70000000000005</ele>
        <time>2025-04-27T11:09:11Z</time>
      </trkpt>
      <trkpt lat="42.960508028045297" lon="-1.591096026822925">
        <ele>644.70000000000005</ele>
        <time>2025-04-27T11:09:12Z</time>
      </trkpt>
      <trkpt lat="42.960397973656654" lon="-1.591136008501053">
        <ele>644.70000000000005</ele>
        <time>2025-04-27T11:09:13Z</time>
      </trkpt>
      <trkpt lat="42.960266964510083" lon="-1.591184036806226">
        <ele>644.70000000000005</ele>
        <time>2025-04-27T11:09:14Z</time>
      </trkpt>
      <trkpt lat="42.960131010040641" lon="-1.591232987120748">
        <ele>645.17999999999995</ele>
        <time>2025-04-27T11:09:15Z</time>
      </trkpt>
      <trkpt lat="42.959860023111105" lon="-1.591331977397203">
        <ele>645.65999999999997</ele>
        <time>2025-04-27T11:09:17Z</time>
      </trkpt>
      <trkpt lat="42.959728008136153" lon="-1.591328959912062">
        <ele>646.13999999999999</ele>
        <time>2025-04-27T11:09:18Z</time>
      </trkpt>
      <trkpt lat="42.959600016474724" lon="-1.591310016810894">
        <ele>646.13999999999999</ele>
        <time>2025-04-27T11:09:19Z</time>
      </trkpt>
      <trkpt lat="42.959383009001613" lon="-1.591277997940779">
        <ele>646.62</ele>
        <time>2025-04-27T11:09:21Z</time>
      </trkpt>
      <trkpt lat="42.959293993189931" lon="-1.591265005990863">
        <ele>646.13999999999999</ele>
        <time>2025-04-27T11:09:22Z</time>
      </trkpt>
      <trkpt lat="42.959210006520152" lon="-1.591291995719075">
        <ele>646.13999999999999</ele>
        <time>2025-04-27T11:09:23Z</time>
      </trkpt>
      <trkpt lat="42.959124008193612" lon="-1.591370031237602">
        <ele>646.13999999999999</ele>
        <time>2025-04-27T11:09:24Z</time>
      </trkpt>
      <trkpt lat="42.959023006260395" lon="-1.591462986543775">
        <ele>646.13999999999999</ele>
        <time>2025-04-27T11:09:25Z</time>
      </trkpt>
      <trkpt lat="42.958695022389293" lon="-1.59179700538516">
        <ele>645.65999999999997</ele>
        <time>2025-04-27T11:09:28Z</time>
      </trkpt>
      <trkpt lat="42.958620004355907" lon="-1.591908987611532">
        <ele>645.17999999999995</ele>
        <time>2025-04-27T11:09:29Z</time>
      </trkpt>
      <trkpt lat="42.958588991314173" lon="-1.592042008414865">
        <ele>645.17999999999995</ele>
        <time>2025-04-27T11:09:30Z</time>
      </trkpt>
      <trkpt lat="42.958600977435708" lon="-1.592154996469617">
        <ele>645.17999999999995</ele>
        <time>2025-04-27T11:09:31Z</time>
      </trkpt>
      <trkpt lat="42.95866996049881" lon="-1.592261027544737">
        <ele>645.65999999999997</ele>
        <time>2025-04-27T11:09:32Z</time>
      </trkpt>
      <trkpt lat="42.958769034594297" lon="-1.592357000336051">
        <ele>645.65999999999997</ele>
        <time>2025-04-27T11:09:33Z</time>
      </trkpt>
      <trkpt lat="42.958888979628682" lon="-1.592456996440888">
        <ele>645.65999999999997</ele>
        <time>2025-04-27T11:09:34Z</time>
      </trkpt>
      <trkpt lat="42.959015965461731" lon="-1.592562021687627">
        <ele>645.17999999999995</ele>
        <time>2025-04-27T11:09:35Z</time>
      </trkpt>
      <trkpt lat="42.959138005971909" lon="-1.592663023620844">
        <ele>645.17999999999995</ele>
        <time>2025-04-27T11:09:36Z</time>
      </trkpt>
      <trkpt lat="42.959346966817975" lon="-1.592837031930685">
        <ele>643.74000000000001</ele>
        <time>2025-04-27T11:09:38Z</time>
      </trkpt>
      <trkpt lat="42.959461966529489" lon="-1.592931998893619">
        <ele>642.77999999999997</ele>
        <time>2025-04-27T11:09:39Z</time>
      </trkpt>
      <trkpt lat="42.959495997056365" lon="-1.593072982504964">
        <ele>642.29999999999995</ele>
        <time>2025-04-27T11:09:40Z</time>
      </trkpt>
      <trkpt lat="42.95971903949976" lon="-1.594004966318607">
        <ele>639.88999999999999</ele>
        <time>2025-04-27T11:09:45Z</time>
      </trkpt>
      <trkpt lat="42.959805959835649" lon="-1.594136981293559">
        <ele>639.40999999999997</ele>
        <time>2025-04-27T11:09:46Z</time>
      </trkpt>
      <trkpt lat="42.960220025852323" lon="-1.5947409812361">
        <ele>637.00999999999999</ele>
        <time>2025-04-27T11:09:50Z</time>
      </trkpt>
      <trkpt lat="42.960318010300398" lon="-1.594862015917897">
        <ele>636.04999999999995</ele>
        <time>2025-04-27T11:09:51Z</time>
      </trkpt>
      <trkpt lat="42.960404008626938" lon="-1.594968969002366">
        <ele>635.57000000000005</ele>
        <time>2025-04-27T11:09:52Z</time>
      </trkpt>
      <trkpt lat="42.960492018610239" lon="-1.595078017562628">
        <ele>634.61000000000001</ele>
        <time>2025-04-27T11:09:53Z</time>
      </trkpt>
      <trkpt lat="42.960495036095381" lon="-1.595197040587664">
        <ele>634.13</ele>
        <time>2025-04-27T11:09:54Z</time>
      </trkpt>
      <trkpt lat="42.960498975589871" lon="-1.595355961471796">
        <ele>633.64999999999998</ele>
        <time>2025-04-27T11:09:55Z</time>
      </trkpt>
      <trkpt lat="42.960504004731774" lon="-1.595540028065443">
        <ele>633.16999999999996</ele>
        <time>2025-04-27T11:09:56Z</time>
      </trkpt>
      <trkpt lat="42.960523031651974" lon="-1.595926014706492">
        <ele>632.20000000000005</ele>
        <time>2025-04-27T11:09:58Z</time>
      </trkpt>
      <trkpt lat="42.960555972531438" lon="-1.596103962510824">
        <ele>631.72000000000003</ele>
        <time>2025-04-27T11:09:59Z</time>
      </trkpt>
      <trkpt lat="42.96062202192843" lon="-1.596478968858719">
        <ele>630.27999999999997</ele>
        <time>2025-04-27T11:10:01Z</time>
      </trkpt>
      <trkpt lat="42.960634008049965" lon="-1.596686001867056">
        <ele>629.32000000000005</ele>
        <time>2025-04-27T11:10:02Z</time>
      </trkpt>
      <trkpt lat="42.960633002221584" lon="-1.596899991855025">
        <ele>628.84000000000003</ele>
        <time>2025-04-27T11:10:03Z</time>
      </trkpt>
      <trkpt lat="42.960605006664991" lon="-1.59710300154984">
        <ele>627.88</ele>
        <time>2025-04-27T11:10:04Z</time>
      </trkpt>
      <trkpt lat="42.960578016936779" lon="-1.59729796461761">
        <ele>627.39999999999998</ele>
        <time>2025-04-27T11:10:05Z</time>
      </trkpt>
      <trkpt lat="42.960553960874677" lon="-1.597472978755832">
        <ele>626.44000000000005</ele>
        <time>2025-04-27T11:10:06Z</time>
      </trkpt>
      <trkpt lat="42.960519008338451" lon="-1.597627960145474">
        <ele>625.47000000000003</ele>
        <time>2025-04-27T11:10:07Z</time>
      </trkpt>
      <trkpt lat="42.960441978648305" lon="-1.597719993442297">
        <ele>624.99000000000001</ele>
        <time>2025-04-27T11:10:08Z</time>
      </trkpt>
      <trkpt lat="42.960337037220597" lon="-1.597791993990541">
        <ele>624.50999999999999</ele>
        <time>2025-04-27T11:10:09Z</time>
      </trkpt>
      <trkpt lat="42.960209967568517" lon="-1.597866006195545">
        <ele>623.54999999999995</ele>
        <time>2025-04-27T11:10:10Z</time>
      </trkpt>
      <trkpt lat="42.960079964250326" lon="-1.597942030057311">
        <ele>623.07000000000005</ele>
        <time>2025-04-27T11:10:11Z</time>
      </trkpt>
      <trkpt lat="42.959998995065689" lon="-1.598072033375502">
        <ele>622.11000000000001</ele>
        <time>2025-04-27T11:10:12Z</time>
      </trkpt>
      <trkpt lat="42.959922971203923" lon="-1.598212011158466">
        <ele>621.14999999999998</ele>
        <time>2025-04-27T11:10:13Z</time>
      </trkpt>
      <trkpt lat="42.959911990910769" lon="-1.598231960088015">
        <ele>620.66999999999996</ele>
        <time>2025-04-27T11:10:14Z</time>
      </trkpt>
      <trkpt lat="42.959901010617614" lon="-1.598432036116719">
        <ele>619.71000000000004</ele>
        <time>2025-04-27T11:10:15Z</time>
      </trkpt>
      <trkpt lat="42.959891958162189" lon="-1.598597997799516">
        <ele>619.23000000000002</ele>
        <time>2025-04-27T11:10:16Z</time>
      </trkpt>
      <trkpt lat="42.959908973425627" lon="-1.59871400333941">
        <ele>618.25999999999999</ele>
        <time>2025-04-27T11:10:17Z</time>
      </trkpt>
      <trkpt lat="42.959944009780884" lon="-1.59890703856945">
        <ele>616.82000000000005</ele>
        <time>2025-04-27T11:10:18Z</time>
      </trkpt>
      <trkpt lat="42.959993965923786" lon="-1.599225969985127">
        <ele>615.38</ele>
        <time>2025-04-27T11:10:19Z</time>
      </trkpt>
      <trkpt lat="42.95989103615284" lon="-1.599862994626164">
        <ele>611.05999999999995</ele>
        <time>2025-04-27T11:10:22Z</time>
      </trkpt>
      <trkpt lat="42.95989103615284" lon="-1.599990986287594">
        <ele>610.09000000000003</ele>
        <time>2025-04-27T11:10:23Z</time>
      </trkpt>
      <trkpt lat="42.959897993132472" lon="-1.600113026797772">
        <ele>609.13</ele>
        <time>2025-04-27T11:10:24Z</time>
      </trkpt>
      <trkpt lat="42.959963036701083" lon="-1.600257027894259">
        <ele>608.16999999999996</ele>
        <time>2025-04-27T11:10:25Z</time>
      </trkpt>
      <trkpt lat="42.960021961480379" lon="-1.600387031212449">
        <ele>607.21000000000004</ele>
        <time>2025-04-27T11:10:26Z</time>
      </trkpt>
      <trkpt lat="42.960105026140809" lon="-1.600573025643826">
        <ele>605.76999999999998</ele>
        <time>2025-04-27T11:10:27Z</time>
      </trkpt>
      <trkpt lat="42.960105026140809" lon="-1.600706968456507">
        <ele>604.80999999999995</ele>
        <time>2025-04-27T11:10:28Z</time>
      </trkpt>
      <trkpt lat="42.960055992007256" lon="-1.600900003686547">
        <ele>603.85000000000002</ele>
        <time>2025-04-27T11:10:29Z</time>
      </trkpt>
      <trkpt lat="42.96000100672245" lon="-1.601050039753318">
        <ele>602.88</ele>
        <time>2025-04-27T11:10:30Z</time>
      </trkpt>
      <trkpt lat="42.9599379748106" lon="-1.601222036406398">
        <ele>602.39999999999998</ele>
        <time>2025-04-27T11:10:31Z</time>
      </trkpt>
      <trkpt lat="42.959873015061021" lon="-1.60140099003911">
        <ele>601.91999999999996</ele>
        <time>2025-04-27T11:10:32Z</time>
      </trkpt>
      <trkpt lat="42.959691965952516" lon="-1.601950004696846">
        <ele>599.51999999999998</ele>
        <time>2025-04-27T11:10:35Z</time>
      </trkpt>
      <trkpt lat="42.95967604033649" lon="-1.602153014391661">
        <ele>598.55999999999995</ele>
        <time>2025-04-27T11:10:36Z</time>
      </trkpt>
      <trkpt lat="42.959449980407953" lon="-1.603927966207266">
        <ele>594.23000000000002</ele>
        <time>2025-04-27T11:10:45Z</time>
      </trkpt>
      <trkpt lat="42.959415027871728" lon="-1.604109015315771">
        <ele>593.75</ele>
        <time>2025-04-27T11:10:46Z</time>
      </trkpt>
      <trkpt lat="42.959370017051697" lon="-1.604277994483709">
        <ele>593.26999999999998</ele>
        <time>2025-04-27T11:10:47Z</time>
      </trkpt>
      <trkpt lat="42.95914102345705" lon="-1.604951983317733">
        <ele>590.87</ele>
        <time>2025-04-27T11:10:51Z</time>
      </trkpt>
      <trkpt lat="42.959086960181594" lon="-1.605109982192516">
        <ele>590.38999999999999</ele>
        <time>2025-04-27T11:10:52Z</time>
      </trkpt>
      <trkpt lat="42.959042033180594" lon="-1.605240991339088">
        <ele>589.42999999999995</ele>
        <time>2025-04-27T11:10:53Z</time>
      </trkpt>
      <trkpt lat="42.95899199321866" lon="-1.605304023250938">
        <ele>588.46000000000004</ele>
        <time>2025-04-27T11:10:54Z</time>
      </trkpt>
      <trkpt lat="42.958922004327178" lon="-1.605363031849265">
        <ele>587.98000000000002</ele>
        <time>2025-04-27T11:10:55Z</time>
      </trkpt>
      <trkpt lat="42.958852015435696" lon="-1.605422040447593">
        <ele>587.01999999999998</ele>
        <time>2025-04-27T11:10:56Z</time>
      </trkpt>
      <trkpt lat="42.95875403098762" lon="-1.605506027117372">
        <ele>586.05999999999995</ele>
        <time>2025-04-27T11:10:57Z</time>
      </trkpt>
      <trkpt lat="42.958730980753899" lon="-1.605572998523712">
        <ele>585.10000000000002</ele>
        <time>2025-04-27T11:10:58Z</time>
      </trkpt>
      <trkpt lat="42.958727041259408" lon="-1.605732003226876">
        <ele>584.62</ele>
        <time>2025-04-27T11:10:59Z</time>
      </trkpt>
      <trkpt lat="42.958750007674098" lon="-1.605872986838222">
        <ele>584.13999999999999</ele>
        <time>2025-04-27T11:11:00Z</time>
      </trkpt>
      <trkpt lat="42.95877699740231" lon="-1.606035009026527">
        <ele>583.17999999999995</ele>
        <time>2025-04-27T11:11:01Z</time>
      </trkpt>
      <trkpt lat="42.958827959373593" lon="-1.606229972094297">
        <ele>582.70000000000005</ele>
        <time>2025-04-27T11:11:02Z</time>
      </trkpt>
      <trkpt lat="42.958889985457063" lon="-1.606391994282603">
        <ele>582.22000000000003</ele>
        <time>2025-04-27T11:11:03Z</time>
      </trkpt>
      <trkpt lat="42.95894899405539" lon="-1.606544964015484">
        <ele>581.73000000000002</ele>
        <time>2025-04-27T11:11:04Z</time>
      </trkpt>
      <trkpt lat="42.95901102013886" lon="-1.60670799203217">
        <ele>581.25</ele>
        <time>2025-04-27T11:11:05Z</time>
      </trkpt>
      <trkpt lat="42.95901102013886" lon="-1.606830032542348">
        <ele>580.76999999999998</ele>
        <time>2025-04-27T11:11:06Z</time>
      </trkpt>
      <trkpt lat="42.958998028188944" lon="-1.606989959254861">
        <ele>580.28999999999996</ele>
        <time>2025-04-27T11:11:07Z</time>
      </trkpt>
      <trkpt lat="42.95894899405539" lon="-1.607162039726973">
        <ele>579.80999999999995</ele>
        <time>2025-04-27T11:11:08Z</time>
      </trkpt>
      <trkpt lat="42.958900965750217" lon="-1.607328001409769">
        <ele>578.85000000000002</ele>
        <time>2025-04-27T11:11:09Z</time>
      </trkpt>
      <trkpt lat="42.958893002942204" lon="-1.607537968084216">
        <ele>578.37</ele>
        <time>2025-04-27T11:11:10Z</time>
      </trkpt>
      <trkpt lat="42.958922004327178" lon="-1.60773703828454">
        <ele>577.40999999999997</ele>
        <time>2025-04-27T11:11:11Z</time>
      </trkpt>
      <trkpt lat="42.958970032632351" lon="-1.60791096277535">
        <ele>576.92999999999995</ele>
        <time>2025-04-27T11:11:12Z</time>
      </trkpt>
      <trkpt lat="42.959039015695453" lon="-1.608096035197377">
        <ele>575.97000000000003</ele>
        <time>2025-04-27T11:11:13Z</time>
      </trkpt>
      <trkpt lat="42.959131971001625" lon="-1.608221009373665">
        <ele>575.49000000000001</ele>
        <time>2025-04-27T11:11:14Z</time>
      </trkpt>
      <trkpt lat="42.95922601595521" lon="-1.608345983549953">
        <ele>575.00999999999999</ele>
        <time>2025-04-27T11:11:15Z</time>
      </trkpt>
      <trkpt lat="42.959316037595272" lon="-1.608466012403369">
        <ele>574.52999999999997</ele>
        <time>2025-04-27T11:11:16Z</time>
      </trkpt>
      <trkpt lat="42.959366999566555" lon="-1.60859601572156">
        <ele>574.03999999999996</ele>
        <time>2025-04-27T11:11:17Z</time>
      </trkpt>
      <trkpt lat="42.959415027871728" lon="-1.60874898545444">
        <ele>574.03999999999996</ele>
        <time>2025-04-27T11:11:18Z</time>
      </trkpt>
      <trkpt lat="42.959461966529489" lon="-1.608896004036069">
        <ele>573.08000000000004</ele>
        <time>2025-04-27T11:11:19Z</time>
      </trkpt>
      <trkpt lat="42.959439000114799" lon="-1.609050985425711">
        <ele>572.60000000000002</ele>
        <time>2025-04-27T11:11:20Z</time>
      </trkpt>
      <trkpt lat="42.959414022043347" lon="-1.60922097042203">
        <ele>572.12</ele>
        <time>2025-04-27T11:11:21Z</time>
      </trkpt>
      <trkpt lat="42.959388960152864" lon="-1.609386010095477">
        <ele>571.15999999999997</ele>
        <time>2025-04-27T11:11:22Z</time>
      </trkpt>
      <trkpt lat="42.959388038143516" lon="-1.609568987041712">
        <ele>570.67999999999995</ele>
        <time>2025-04-27T11:11:23Z</time>
      </trkpt>
      <trkpt lat="42.959413016214967" lon="-1.609755987301469">
        <ele>569.72000000000003</ele>
        <time>2025-04-27T11:11:24Z</time>
      </trkpt>
      <trkpt lat="42.959439000114799" lon="-1.609947010874748">
        <ele>569.24000000000001</ele>
        <time>2025-04-27T11:11:25Z</time>
      </trkpt>
      <trkpt lat="42.959487028419971" lon="-1.610270971432328">
        <ele>567.79999999999995</ele>
        <time>2025-04-27T11:11:27Z</time>
      </trkpt>
      <trkpt lat="42.959503037855029" lon="-1.610382031649351">
        <ele>567.79999999999995</ele>
        <time>2025-04-27T11:11:28Z</time>
      </trkpt>
      <trkpt lat="42.959468001499772" lon="-1.610469035804272">
        <ele>567.32000000000005</ele>
        <time>2025-04-27T11:11:29Z</time>
      </trkpt>
      <trkpt lat="42.959426008164883" lon="-1.610519997775555">
        <ele>567.79999999999995</ele>
        <time>2025-04-27T11:11:30Z</time>
      </trkpt>
      <trkpt lat="42.959375968202949" lon="-1.610544975847006">
        <ele>567.79999999999995</ele>
        <time>2025-04-27T11:11:31Z</time>
      </trkpt>
      <trkpt lat="42.959301033988595" lon="-1.610532989725471">
        <ele>567.79999999999995</ele>
        <time>2025-04-27T11:11:32Z</time>
      </trkpt>
      <trkpt lat="42.959222998470068" lon="-1.61048898473382">
        <ele>567.79999999999995</ele>
        <time>2025-04-27T11:11:33Z</time>
      </trkpt>
      <trkpt lat="42.959135994315147" lon="-1.610415978357196">
        <ele>567.79999999999995</ele>
        <time>2025-04-27T11:11:34Z</time>
      </trkpt>
      <trkpt lat="42.958482960239053" lon="-1.609868975356221">
        <ele>566.35000000000002</ele>
        <time>2025-04-27T11:11:40Z</time>
      </trkpt>
      <trkpt lat="42.9583699721843" lon="-1.609816001728177">
        <ele>565.38999999999999</ele>
        <time>2025-04-27T11:11:41Z</time>
      </trkpt>
      <trkpt lat="42.958281962200999" lon="-1.609776020050049">
        <ele>565.38999999999999</ele>
        <time>2025-04-27T11:11:42Z</time>
      </trkpt>
      <trkpt lat="42.958177020773292" lon="-1.609765961766243">
        <ele>565.38999999999999</ele>
        <time>2025-04-27T11:11:43Z</time>
      </trkpt>
      <trkpt lat="42.958106026053429" lon="-1.609759004786611">
        <ele>564.90999999999997</ele>
        <time>2025-04-27T11:11:44Z</time>
      </trkpt>
      <trkpt lat="42.958036959171295" lon="-1.609783982858062">
        <ele>564.90999999999997</ele>
        <time>2025-04-27T11:11:45Z</time>
      </trkpt>
      <trkpt lat="42.957995971664786" lon="-1.609881967306137">
        <ele>564.42999999999995</ele>
        <time>2025-04-27T11:11:46Z</time>
      </trkpt>
      <trkpt lat="42.957984991371632" lon="-1.609976012259722">
        <ele>564.42999999999995</ele>
        <time>2025-04-27T11:11:47Z</time>
      </trkpt>
      <trkpt lat="42.958001000806689" lon="-1.610110038891435">
        <ele>563.95000000000005</ele>
        <time>2025-04-27T11:11:48Z</time>
      </trkpt>
      <trkpt lat="42.958027990534902" lon="-1.610239958390594">
        <ele>563.47000000000003</ele>
        <time>2025-04-27T11:11:49Z</time>
      </trkpt>
      <trkpt lat="42.95813100412488" lon="-1.610826021060348">
        <ele>561.54999999999995</ele>
        <time>2025-04-27T11:11:53Z</time>
      </trkpt>
      <trkpt lat="42.95813100412488" lon="-1.610976979136467">
        <ele>561.54999999999995</ele>
        <time>2025-04-27T11:11:54Z</time>
      </trkpt>
      <trkpt lat="42.95813100412488" lon="-1.611467991024256">
        <ele>560.59000000000003</ele>
        <time>2025-04-27T11:11:58Z</time>
      </trkpt>
      <trkpt lat="42.958141984418035" lon="-1.611595982685685">
        <ele>560.11000000000001</ele>
        <time>2025-04-27T11:11:59Z</time>
      </trkpt>
      <trkpt lat="42.95819504186511" lon="-1.61169002763927">
        <ele>559.62</ele>
        <time>2025-04-27T11:12:00Z</time>
      </trkpt>
      <trkpt lat="42.958787977695465" lon="-1.612715972587466">
        <ele>557.70000000000005</ele>
        <time>2025-04-27T11:12:08Z</time>
      </trkpt>
      <trkpt lat="42.959149992093444" lon="-1.613358026370406">
        <ele>555.29999999999995</ele>
        <time>2025-04-27T11:12:13Z</time>
      </trkpt>
      <trkpt lat="42.959210006520152" lon="-1.613506972789764">
        <ele>554.82000000000005</ele>
        <time>2025-04-27T11:12:14Z</time>
      </trkpt>
      <trkpt lat="42.959265997633338" lon="-1.613673018291593">
        <ele>553.38</ele>
        <time>2025-04-27T11:12:15Z</time>
      </trkpt>
      <trkpt lat="42.959281001240015" lon="-1.613844009116292">
        <ele>551.92999999999995</ele>
        <time>2025-04-27T11:12:16Z</time>
      </trkpt>
      <trkpt lat="42.959296004846692" lon="-1.614037966355681">
        <ele>550.97000000000003</ele>
        <time>2025-04-27T11:12:17Z</time>
      </trkpt>
      <trkpt lat="42.959311008453369" lon="-1.614232007414103">
        <ele>550.00999999999999</ele>
        <time>2025-04-27T11:12:18Z</time>
      </trkpt>
      <trkpt lat="42.95931201428175" lon="-1.614427976310253">
        <ele>549.04999999999995</ele>
        <time>2025-04-27T11:12:19Z</time>
      </trkpt>
      <trkpt lat="42.959331963211298" lon="-1.615707976743579">
        <ele>542.79999999999995</ele>
        <time>2025-04-27T11:12:27Z</time>
      </trkpt>
      <trkpt lat="42.959332969039679" lon="-1.615908974781632">
        <ele>541.84000000000003</ele>
        <time>2025-04-27T11:12:30Z</time>
      </trkpt>
      <trkpt lat="42.959274966269732" lon="-1.615977035835385">
        <ele>541.36000000000001</ele>
        <time>2025-04-27T11:12:31Z</time>
      </trkpt>
      <trkpt lat="42.959239007905126" lon="-1.615963038057089">
        <ele>540.88</ele>
        <time>2025-04-27T11:12:32Z</time>
      </trkpt>
      <trkpt lat="42.959179999306798" lon="-1.615939987823367">
        <ele>540.39999999999998</ele>
        <time>2025-04-27T11:12:33Z</time>
      </trkpt>
      <trkpt lat="42.959103975445032" lon="-1.615910986438394">
        <ele>539.91999999999996</ele>
        <time>2025-04-27T11:12:34Z</time>
      </trkpt>
      <trkpt lat="42.959009008482099" lon="-1.615888020023704">
        <ele>538.96000000000004</ele>
        <time>2025-04-27T11:12:35Z</time>
      </trkpt>
      <trkpt lat="42.95800301246345" lon="-1.615848960354924">
        <ele>534.63</ele>
        <time>2025-04-27T11:12:43Z</time>
      </trkpt>
      <trkpt lat="42.957278983667493" lon="-1.615787018090487">
        <ele>532.71000000000004</ele>
        <time>2025-04-27T11:12:48Z</time>
      </trkpt>
      <trkpt lat="42.957154009491205" lon="-1.615724992007017">
        <ele>532.23000000000002</ele>
        <time>2025-04-27T11:12:49Z</time>
      </trkpt>
      <trkpt lat="42.956823008134961" lon="-1.615559030324221">
        <ele>531.75</ele>
        <time>2025-04-27T11:12:52Z</time>
      </trkpt>
      <trkpt lat="42.956711025908589" lon="-1.615503039211035">
        <ele>531.75</ele>
        <time>2025-04-27T11:12:53Z</time>
      </trkpt>
      <trkpt lat="42.956528970971704" lon="-1.615489963442087">
        <ele>531.75</ele>
        <time>2025-04-27T11:12:54Z</time>
      </trkpt>
      <trkpt lat="42.955248970538378" lon="-1.615676963701844">
        <ele>529.82000000000005</ele>
        <time>2025-04-27T11:13:01Z</time>
      </trkpt>
      <trkpt lat="42.952917963266373" lon="-1.615770002827048">
        <ele>527.41999999999996</ele>
        <time>2025-04-27T11:13:13Z</time>
      </trkpt>
      <trkpt lat="42.95131903141737" lon="-1.616428988054395">
        <ele>527.41999999999996</ele>
        <time>2025-04-27T11:13:22Z</time>
      </trkpt>
      <trkpt lat="42.949949009343982" lon="-1.616635015234351">
        <ele>527.41999999999996</ele>
        <time>2025-04-27T11:13:29Z</time>
      </trkpt>
      <trkpt lat="42.948558032512665" lon="-1.6162249725312">
        <ele>525.5</ele>
        <time>2025-04-27T11:13:36Z</time>
      </trkpt>
      <trkpt lat="42.947147022932768" lon="-1.614991994574666">
        <ele>520.69000000000005</ele>
        <time>2025-04-27T11:13:44Z</time>
      </trkpt>
      <trkpt lat="42.944765975698829" lon="-1.612564008682966">
        <ele>516.85000000000002</ele>
        <time>2025-04-27T11:13:59Z</time>
      </trkpt>
      <trkpt lat="42.942868983373046" lon="-1.610804982483387">
        <ele>513.48000000000002</ele>
        <time>2025-04-27T11:14:11Z</time>
      </trkpt>
      <trkpt lat="42.941103000193834" lon="-1.609883978962898">
        <ele>509.63999999999999</ele>
        <time>2025-04-27T11:14:21Z</time>
      </trkpt>
      <trkpt lat="42.939282031729817" lon="-1.60915601067245">
        <ele>510.12</ele>
        <time>2025-04-27T11:14:30Z</time>
      </trkpt>
      <trkpt lat="42.93709603138268" lon="-1.60833802074194">
        <ele>513</ele>
        <time>2025-04-27T11:14:40Z</time>
      </trkpt>
      <trkpt lat="42.935346979647875" lon="-1.607883973047137">
        <ele>513</ele>
        <time>2025-04-27T11:14:48Z</time>
      </trkpt>
      <trkpt lat="42.933730026707053" lon="-1.608072984963656">
        <ele>509.63999999999999</ele>
        <time>2025-04-27T11:14:56Z</time>
      </trkpt>
      <trkpt lat="42.932380959391594" lon="-1.608369033783674">
        <ele>509.16000000000003</ele>
        <time>2025-04-27T11:15:04Z</time>
      </trkpt>
      <trkpt lat="42.930636014789343" lon="-1.608727024868131">
        <ele>510.60000000000002</ele>
        <time>2025-04-27T11:15:15Z</time>
      </trkpt>
      <trkpt lat="42.928509023040533" lon="-1.609219964593649">
        <ele>507.70999999999998</ele>
        <time>2025-04-27T11:15:27Z</time>
      </trkpt>
      <trkpt lat="42.927094995975494" lon="-1.609947010874748">
        <ele>509.16000000000003</ele>
        <time>2025-04-27T11:15:35Z</time>
      </trkpt>
      <trkpt lat="42.92577400803566" lon="-1.611266992986202">
        <ele>511.07999999999998</ele>
        <time>2025-04-27T11:15:44Z</time>
      </trkpt>
      <trkpt lat="42.925506038591266" lon="-1.61160503514111">
        <ele>511.56</ele>
        <time>2025-04-27T11:15:46Z</time>
      </trkpt>
      <trkpt lat="42.924514040350914" lon="-1.613459028303623">
        <ele>510.12</ele>
        <time>2025-04-27T11:15:55Z</time>
      </trkpt>
      <trkpt lat="42.923246026039124" lon="-1.615586020052433">
        <ele>505.31</ele>
        <time>2025-04-27T11:16:06Z</time>
      </trkpt>
      <trkpt lat="42.9220159817487" lon="-1.616567960008979">
        <ele>503.87</ele>
        <time>2025-04-27T11:16:14Z</time>
      </trkpt>
      <trkpt lat="42.920826002955437" lon="-1.616984959691763">
        <ele>507.23000000000002</ele>
        <time>2025-04-27T11:16:21Z</time>
      </trkpt>
      <trkpt lat="42.919513983651996" lon="-1.616901978850365">
        <ele>512.51999999999998</ele>
        <time>2025-04-27T11:16:29Z</time>
      </trkpt>
      <trkpt lat="42.917950004339218" lon="-1.61616001278162">
        <ele>518.28999999999996</ele>
        <time>2025-04-27T11:16:38Z</time>
      </trkpt>
      <trkpt lat="42.916369009763002" lon="-1.615561963990331">
        <ele>523.58000000000004</ele>
        <time>2025-04-27T11:16:47Z</time>
      </trkpt>
      <trkpt lat="42.914265990257263" lon="-1.615313021466136">
        <ele>526.46000000000004</ele>
        <time>2025-04-27T11:16:58Z</time>
      </trkpt>
      <trkpt lat="42.912965035066009" lon="-1.614630986005068">
        <ele>524.53999999999996</ele>
        <time>2025-04-27T11:17:05Z</time>
      </trkpt>
      <trkpt lat="42.911450006067753" lon="-1.613274039700627">
        <ele>516.37</ele>
        <time>2025-04-27T11:17:14Z</time>
      </trkpt>
      <trkpt lat="42.909929025918245" lon="-1.612497037276626">
        <ele>504.35000000000002</ele>
        <time>2025-04-27T11:17:22Z</time>
      </trkpt>
      <trkpt lat="42.908579958602786" lon="-1.612424030900002">
        <ele>492.81</ele>
        <time>2025-04-27T11:17:29Z</time>
      </trkpt>
      <trkpt lat="42.90652496740222" lon="-1.612629974260926">
        <ele>480.31999999999999</ele>
        <time>2025-04-27T11:17:41Z</time>
      </trkpt>
      <trkpt lat="42.904799971729517" lon="-1.612370973452926">
        <ele>476.47000000000003</ele>
        <time>2025-04-27T11:17:51Z</time>
      </trkpt>
      <trkpt lat="42.903167009353638" lon="-1.612270977348089">
        <ele>479.35000000000002</ele>
        <time>2025-04-27T11:18:00Z</time>
      </trkpt>
      <trkpt lat="42.902641966938972" lon="-1.612071990966797">
        <ele>479.83999999999997</ele>
        <time>2025-04-27T11:18:03Z</time>
      </trkpt>
      <trkpt lat="42.90246301330626" lon="-1.611937964335084">
        <ele>479.83999999999997</ele>
        <time>2025-04-27T11:18:04Z</time>
      </trkpt>
      <trkpt lat="42.902295039966702" lon="-1.611811984330416">
        <ele>480.31999999999999</ele>
        <time>2025-04-27T11:18:05Z</time>
      </trkpt>
      <trkpt lat="42.900150027126074" lon="-1.610082965344191">
        <ele>478.87</ele>
        <time>2025-04-27T11:18:18Z</time>
      </trkpt>
      <trkpt lat="42.898903973400593" lon="-1.609557000920177">
        <ele>477.91000000000003</ele>
        <time>2025-04-27T11:18:25Z</time>
      </trkpt>
      <trkpt lat="42.896341038867831" lon="-1.60915601067245">
        <ele>477.91000000000003</ele>
        <time>2025-04-27T11:18:39Z</time>
      </trkpt>
      <trkpt lat="42.895065983757377" lon="-1.608853004872799">
        <ele>477.43000000000001</ele>
        <time>2025-04-27T11:18:46Z</time>
      </trkpt>
      <trkpt lat="42.89337401278317" lon="-1.607666965574026">
        <ele>473.58999999999997</ele>
        <time>2025-04-27T11:18:56Z</time>
      </trkpt>
      <trkpt lat="42.891707019880414" lon="-1.606687037274241">
        <ele>473.58999999999997</ele>
        <time>2025-04-27T11:19:06Z</time>
      </trkpt>
      <trkpt lat="42.88974397815764" lon="-1.605709036812186">
        <ele>473.11000000000001</ele>
        <time>2025-04-27T11:19:18Z</time>
      </trkpt>
      <trkpt lat="42.888414021581411" lon="-1.605120962485671">
        <ele>472.63</ele>
        <time>2025-04-27T11:19:29Z</time>
      </trkpt>
      <trkpt lat="42.886916007846594" lon="-1.604464994743466">
        <ele>471.66000000000003</ele>
        <time>2025-04-27T11:19:42Z</time>
      </trkpt>
      <trkpt lat="42.885368037968874" lon="-1.604054030030966">
        <ele>471.66000000000003</ele>
        <time>2025-04-27T11:19:55Z</time>
      </trkpt>
      <trkpt lat="42.884644009172916" lon="-1.604186967015266">
        <ele>473.11000000000001</ele>
        <time>2025-04-27T11:20:01Z</time>
      </trkpt>
      <trkpt lat="42.884423984214664" lon="-1.604313030838966">
        <ele>473.58999999999997</ele>
        <time>2025-04-27T11:20:03Z</time>
      </trkpt>
      <trkpt lat="42.884316025301814" lon="-1.604390982538462">
        <ele>473.58999999999997</ele>
        <time>2025-04-27T11:20:04Z</time>
      </trkpt>
      <trkpt lat="42.883230987936258" lon="-1.605164967477322">
        <ele>475.50999999999999</ele>
        <time>2025-04-27T11:20:12Z</time>
      </trkpt>
      <trkpt lat="42.88164303638041" lon="-1.606176998466253">
        <ele>475.99000000000001</ele>
        <time>2025-04-27T11:20:21Z</time>
      </trkpt>
      <trkpt lat="42.878975998610258" lon="-1.607695966959">
        <ele>472.13999999999999</ele>
        <time>2025-04-27T11:20:35Z</time>
      </trkpt>
      <trkpt lat="42.876463020220399" lon="-1.608442040160298">
        <ele>466.86000000000001</ele>
        <time>2025-04-27T11:20:47Z</time>
      </trkpt>
      <trkpt lat="42.874076021835208" lon="-1.609314009547234">
        <ele>462.05000000000001</ele>
        <time>2025-04-27T11:20:59Z</time>
      </trkpt>
      <trkpt lat="42.872905991971493" lon="-1.609494974836707">
        <ele>461.56999999999999</ele>
        <time>2025-04-27T11:21:05Z</time>
      </trkpt>
      <trkpt lat="42.871341006830335" lon="-1.609282996505499">
        <ele>461.56999999999999</ele>
        <time>2025-04-27T11:21:14Z</time>
      </trkpt>
      <trkpt lat="42.870757039636374" lon="-1.609376035630703">
        <ele>461.56999999999999</ele>
        <time>2025-04-27T11:21:19Z</time>
      </trkpt>
      <trkpt lat="42.870652014389634" lon="-1.60947896540165">
        <ele>461.56999999999999</ele>
        <time>2025-04-27T11:21:20Z</time>
      </trkpt>
      <trkpt lat="42.870584959164262" lon="-1.609592959284782">
        <ele>461.56999999999999</ele>
        <time>2025-04-27T11:21:21Z</time>
      </trkpt>
      <trkpt lat="42.870519999414682" lon="-1.609625983983278">
        <ele>461.56999999999999</ele>
        <time>2025-04-27T11:21:22Z</time>
      </trkpt>
      <trkpt lat="42.870340039953589" lon="-1.609588013961911">
        <ele>461.56999999999999</ele>
        <time>2025-04-27T11:21:23Z</time>
      </trkpt>
      <trkpt lat="42.870227973908186" lon="-1.609663031995297">
        <ele>461.56999999999999</ele>
        <time>2025-04-27T11:21:24Z</time>
      </trkpt>
      <trkpt lat="42.870112974196672" lon="-1.609745007008314">
        <ele>461.56999999999999</ele>
        <time>2025-04-27T11:21:25Z</time>
      </trkpt>
      <trkpt lat="42.869997974485159" lon="-1.609841985628009">
        <ele>461.56999999999999</ele>
        <time>2025-04-27T11:21:26Z</time>
      </trkpt>
      <trkpt lat="42.868870021775365" lon="-1.610722001641989">
        <ele>462.52999999999997</ele>
        <time>2025-04-27T11:21:35Z</time>
      </trkpt>
      <trkpt lat="42.867501005530357" lon="-1.611403031274676">
        <ele>463.49000000000001</ele>
        <time>2025-04-27T11:21:44Z</time>
      </trkpt>
      <trkpt lat="42.865663021802902" lon="-1.61216402426362">
        <ele>460.61000000000001</ele>
        <time>2025-04-27T11:21:55Z</time>
      </trkpt>
      <trkpt lat="42.864674963057041" lon="-1.612183973193169">
        <ele>461.08999999999997</ele>
        <time>2025-04-27T11:22:01Z</time>
      </trkpt>
      <trkpt lat="42.863862002268434" lon="-1.612170981243253">
        <ele>463.97000000000003</ele>
        <time>2025-04-27T11:22:07Z</time>
      </trkpt>
      <trkpt lat="42.863756977021694" lon="-1.612175004556775">
        <ele>463.97000000000003</ele>
        <time>2025-04-27T11:22:08Z</time>
      </trkpt>
      <trkpt lat="42.863609958440065" lon="-1.612371979281306">
        <ele>464.44999999999999</ele>
        <time>2025-04-27T11:22:09Z</time>
      </trkpt>
      <trkpt lat="42.863572994247079" lon="-1.612405003979802">
        <ele>464.44999999999999</ele>
        <time>2025-04-27T11:22:10Z</time>
      </trkpt>
      <trkpt lat="42.863484984263778" lon="-1.612480022013187">
        <ele>464.44999999999999</ele>
        <time>2025-04-27T11:22:11Z</time>
      </trkpt>
      <trkpt lat="42.863370990380645" lon="-1.612466024234891">
        <ele>464.93000000000001</ele>
        <time>2025-04-27T11:22:12Z</time>
      </trkpt>
      <trkpt lat="42.863352969288826" lon="-1.612457977607846">
        <ele>465.42000000000002</ele>
        <time>2025-04-27T11:22:13Z</time>
      </trkpt>
      <trkpt lat="42.863135961815715" lon="-1.612367033958435">
        <ele>465.89999999999998</ele>
        <time>2025-04-27T11:22:14Z</time>
      </trkpt>
      <trkpt lat="42.863017022609711" lon="-1.61242201924324">
        <ele>465.89999999999998</ele>
        <time>2025-04-27T11:22:15Z</time>
      </trkpt>
      <trkpt lat="42.862882995977998" lon="-1.612482033669949">
        <ele>466.38</ele>
        <time>2025-04-27T11:22:16Z</time>
      </trkpt>
      <trkpt lat="42.862742012366652" lon="-1.612568031996489">
        <ele>466.38</ele>
        <time>2025-04-27T11:22:17Z</time>
      </trkpt>
      <trkpt lat="42.862606979906559" lon="-1.612684037536383">
        <ele>466.86000000000001</ele>
        <time>2025-04-27T11:22:18Z</time>
      </trkpt>
      <trkpt lat="42.861281968653202" lon="-1.613970994949341">
        <ele>467.33999999999997</ele>
        <time>2025-04-27T11:22:27Z</time>
      </trkpt>
      <trkpt lat="42.858964959159493" lon="-1.616374002769589">
        <ele>465.89999999999998</ele>
        <time>2025-04-27T11:22:42Z</time>
      </trkpt>
      <trkpt lat="42.856972999870777" lon="-1.618365962058306">
        <ele>464.44999999999999</ele>
        <time>2025-04-27T11:22:55Z</time>
      </trkpt>
      <trkpt lat="42.855683024972677" lon="-1.619656020775437">
        <ele>463.97000000000003</ele>
        <time>2025-04-27T11:23:06Z</time>
      </trkpt>
      <trkpt lat="42.855332996696234" lon="-1.619998002424836">
        <ele>463.00999999999999</ele>
        <time>2025-04-27T11:23:10Z</time>
      </trkpt>
      <trkpt lat="42.855306006968021" lon="-1.620268989354372">
        <ele>463.00999999999999</ele>
        <time>2025-04-27T11:23:11Z</time>
      </trkpt>
      <trkpt lat="42.855242975056171" lon="-1.62039496935904">
        <ele>463.00999999999999</ele>
        <time>2025-04-27T11:23:13Z</time>
      </trkpt>
      <trkpt lat="42.855144990608096" lon="-1.620440986007452">
        <ele>462.52999999999997</ele>
        <time>2025-04-27T11:23:14Z</time>
      </trkpt>
      <trkpt lat="42.855052035301924" lon="-1.620440986007452">
        <ele>462.52999999999997</ele>
        <time>2025-04-27T11:23:15Z</time>
      </trkpt>
      <trkpt lat="42.854834022000432" lon="-1.620554979890585">
        <ele>462.52999999999997</ele>
        <time>2025-04-27T11:23:17Z</time>
      </trkpt>
      <trkpt lat="42.854727990925312" lon="-1.620624968782067">
        <ele>462.05000000000001</ele>
        <time>2025-04-27T11:23:18Z</time>
      </trkpt>
      <trkpt lat="42.853530971333385" lon="-1.621586959809065">
        <ele>461.08999999999997</ele>
        <time>2025-04-27T11:23:28Z</time>
      </trkpt>
      <trkpt lat="42.85205801948905" lon="-1.622401010245085">
        <ele>458.69</ele>
        <time>2025-04-27T11:23:39Z</time>
      </trkpt>
      <trkpt lat="42.850523041561246" lon="-1.623300975188613">
        <ele>456.75999999999999</ele>
        <time>2025-04-27T11:23:49Z</time>
      </trkpt>
      <trkpt lat="42.849227031692863" lon="-1.624413002282381">
        <ele>453.88</ele>
        <time>2025-04-27T11:23:58Z</time>
      </trkpt>
      <trkpt lat="42.848152974620461" lon="-1.625104006379843">
        <ele>451</ele>
        <time>2025-04-27T11:24:06Z</time>
      </trkpt>
      <trkpt lat="42.847378989681602" lon="-1.625274997204542">
        <ele>449.06999999999999</ele>
        <time>2025-04-27T11:24:11Z</time>
      </trkpt>
      <trkpt lat="42.846220023930073" lon="-1.624984983354807">
        <ele>446.19</ele>
        <time>2025-04-27T11:24:19Z</time>
      </trkpt>
      <trkpt lat="42.845428017899394" lon="-1.624158024787903">
        <ele>444.26999999999998</ele>
        <time>2025-04-27T11:24:26Z</time>
      </trkpt>
      <trkpt lat="42.845268007367849" lon="-1.623838003724814">
        <ele>443.79000000000002</ele>
        <time>2025-04-27T11:24:28Z</time>
      </trkpt>
      <trkpt lat="42.845190977677703" lon="-1.623686039820314">
        <ele>443.31</ele>
        <time>2025-04-27T11:24:29Z</time>
      </trkpt>
      <trkpt lat="42.844682028517127" lon="-1.622852040454745">
        <ele>442.81999999999999</ele>
        <time>2025-04-27T11:24:37Z</time>
      </trkpt>
      <trkpt lat="42.844568034633994" lon="-1.622731005772948">
        <ele>442.81999999999999</ele>
        <time>2025-04-27T11:24:45Z</time>
      </trkpt>
      <trkpt lat="42.844435013830662" lon="-1.62260795943439">
        <ele>443.31</ele>
        <time>2025-04-27T11:24:53Z</time>
      </trkpt>
      <trkpt lat="42.844406012445688" lon="-1.622585998848081">
        <ele>443.31</ele>
        <time>2025-04-27T11:24:54Z</time>
      </trkpt>
      <trkpt lat="42.844041986390948" lon="-1.622289028018713">
        <ele>443.31</ele>
        <time>2025-04-27T11:24:58Z</time>
      </trkpt>
      <trkpt lat="42.843071026727557" lon="-1.621929025277495">
        <ele>442.33999999999997</ele>
        <time>2025-04-27T11:25:07Z</time>
      </trkpt>
      <trkpt lat="42.842441964894533" lon="-1.621701959520578">
        <ele>443.79000000000002</ele>
        <time>2025-04-27T11:25:12Z</time>
      </trkpt>
      <trkpt lat="42.841962017118931" lon="-1.621491992846131">
        <ele>442.81999999999999</ele>
        <time>2025-04-27T11:25:15Z</time>
      </trkpt>
      <trkpt lat="42.836572034284472" lon="-1.618685983121395">
        <ele>442.81999999999999</ele>
        <time>2025-04-27T11:25:46Z</time>
      </trkpt>
      <trkpt lat="42.835369985550642" lon="-1.618101010099053">
        <ele>442.81999999999999</ele>
        <time>2025-04-27T11:25:52Z</time>
      </trkpt>
      <trkpt lat="42.835183991119266" lon="-1.618079971522093">
        <ele>442.81999999999999</ele>
        <time>2025-04-27T11:25:53Z</time>
      </trkpt>
      <trkpt lat="42.836301969364285" lon="-1.618539970368147">
        <ele>434.64999999999998</ele>
        <time>2025-04-27T11:25:56Z</time>
      </trkpt>
      <trkpt lat="42.835206035524607" lon="-1.618079971522093">
        <ele>435.13</ele>
        <time>2025-04-27T11:26:04Z</time>
      </trkpt>
      <trkpt lat="42.83508600667119" lon="-1.618079971522093">
        <ele>435.61000000000001</ele>
        <time>2025-04-27T11:26:05Z</time>
      </trkpt>
      <trkpt lat="42.834973018616438" lon="-1.618079971522093">
        <ele>435.61000000000001</ele>
        <time>2025-04-27T11:26:06Z</time>
      </trkpt>
      <trkpt lat="42.834792975336313" lon="-1.618079971522093">
        <ele>436.10000000000002</ele>
        <time>2025-04-27T11:26:07Z</time>
      </trkpt>
      <trkpt lat="42.834766991436481" lon="-1.618090029805899">
        <ele>436.57999999999998</ele>
        <time>2025-04-27T11:26:08Z</time>
      </trkpt>
      <trkpt lat="42.834675963968039" lon="-1.618123976513743">
        <ele>437.54000000000002</ele>
        <time>2025-04-27T11:26:09Z</time>
      </trkpt>
      <trkpt lat="42.834577979519963" lon="-1.61822397261858">
        <ele>438.5</ele>
        <time>2025-04-27T11:26:10Z</time>
      </trkpt>
      <trkpt lat="42.834524000063539" lon="-1.618324974551797">
        <ele>438.98000000000002</ele>
        <time>2025-04-27T11:26:11Z</time>
      </trkpt>
      <trkpt lat="42.834471026435494" lon="-1.618422958999872">
        <ele>438.98000000000002</ele>
        <time>2025-04-27T11:26:12Z</time>
      </trkpt>
      <trkpt lat="42.834367007017136" lon="-1.618432011455298">
        <ele>438.98000000000002</ele>
        <time>2025-04-27T11:26:13Z</time>
      </trkpt>
      <trkpt lat="42.834272040054202" lon="-1.61843997426331">
        <ele>438.5</ele>
        <time>2025-04-27T11:26:14Z</time>
      </trkpt>
      <trkpt lat="42.834192998707294" lon="-1.618429999798536">
        <ele>438.01999999999998</ele>
        <time>2025-04-27T11:26:15Z</time>
      </trkpt>
      <trkpt lat="42.83409995958209" lon="-1.618364034220576">
        <ele>437.54000000000002</ele>
        <time>2025-04-27T11:26:16Z</time>
      </trkpt>
      <trkpt lat="42.834043968468904" lon="-1.618269989266992">
        <ele>437.54000000000002</ele>
        <time>2025-04-27T11:26:17Z</time>
      </trkpt>
      <trkpt lat="42.833999041467905" lon="-1.618122970685363">
        <ele>437.06</ele>
        <time>2025-04-27T11:26:18Z</time>
      </trkpt>
      <trkpt lat="42.833943972364068" lon="-1.617977041751146">
        <ele>437.06</ele>
        <time>2025-04-27T11:26:19Z</time>
      </trkpt>
      <trkpt lat="42.833884041756392" lon="-1.617829017341137">
        <ele>436.57999999999998</ele>
        <time>2025-04-27T11:26:20Z</time>
      </trkpt>
      <trkpt lat="42.833820004016161" lon="-1.617673030123115">
        <ele>436.57999999999998</ele>
        <time>2025-04-27T11:26:21Z</time>
      </trkpt>
      <trkpt lat="42.83375496044755" lon="-1.61751301959157">
        <ele>436.57999999999998</ele>
        <time>2025-04-27T11:26:22Z</time>
      </trkpt>
      <trkpt lat="42.833642978221178" lon="-1.617381004616618">
        <ele>436.57999999999998</ele>
        <time>2025-04-27T11:26:23Z</time>
      </trkpt>
      <trkpt lat="42.833527978509665" lon="-1.617267010733485">
        <ele>436.57999999999998</ele>
        <time>2025-04-27T11:26:24Z</time>
      </trkpt>
      <trkpt lat="42.83341096714139" lon="-1.617157962173224">
        <ele>436.57999999999998</ele>
        <time>2025-04-27T11:26:25Z</time>
      </trkpt>
      <trkpt lat="42.833286998793483" lon="-1.617070036008954">
        <ele>436.10000000000002</ele>
        <time>2025-04-27T11:26:26Z</time>
      </trkpt>
      <trkpt lat="42.832785006612539" lon="-1.616778010502458">
        <ele>436.10000000000002</ele>
        <time>2025-04-27T11:26:30Z</time>
      </trkpt>
      <trkpt lat="42.832676963880658" lon="-1.61674196831882">
        <ele>436.10000000000002</ele>
        <time>2025-04-27T11:26:31Z</time>
      </trkpt>
      <trkpt lat="42.832608986645937" lon="-1.616726964712143">
        <ele>436.10000000000002</ele>
        <time>2025-04-27T11:26:32Z</time>
      </trkpt>
      <trkpt lat="42.83257101662457" lon="-1.61671900190413">
        <ele>436.10000000000002</ele>
        <time>2025-04-27T11:26:33Z</time>
      </trkpt>
      <trkpt lat="42.832504967227578" lon="-1.616714978590608">
        <ele>435.61000000000001</ele>
        <time>2025-04-27T11:26:34Z</time>
      </trkpt>
      <trkpt lat="42.832283014431596" lon="-1.616889992728829">
        <ele>435.61000000000001</ele>
        <time>2025-04-27T11:26:38Z</time>
      </trkpt>
      <trkpt lat="42.832219982519746" lon="-1.616959981620312">
        <ele>436.10000000000002</ele>
        <time>2025-04-27T11:26:39Z</time>
      </trkpt>
      <trkpt lat="42.832149993628263" lon="-1.617039022967219">
        <ele>436.57999999999998</ele>
        <time>2025-04-27T11:26:40Z</time>
      </trkpt>
      <trkpt lat="42.831848999485373" lon="-1.617490975186229">
        <ele>438.01999999999998</ele>
        <time>2025-04-27T11:26:45Z</time>
      </trkpt>
      <trkpt lat="42.831693012267351" lon="-1.617799010127783">
        <ele>439.45999999999998</ele>
        <time>2025-04-27T11:26:52Z</time>
      </trkpt>
      <trkpt lat="42.831683959811926" lon="-1.617816025391221">
        <ele>441.86000000000001</ele>
        <time>2025-04-27T11:27:04Z</time>
      </trkpt>
      <trkpt lat="42.831683959811926" lon="-1.617816025391221">
        <ele>446.19</ele>
        <time>2025-04-27T11:27:45Z</time>
      </trkpt>
      <trkpt lat="42.831556973978877" lon="-1.618146020919085">
        <ele>445.70999999999998</ele>
        <time>2025-04-27T11:27:56Z</time>
      </trkpt>
      <trkpt lat="42.831520009785891" lon="-1.618289016187191">
        <ele>445.23000000000002</ele>
        <time>2025-04-27T11:27:57Z</time>
      </trkpt>
      <trkpt lat="42.831402998417616" lon="-1.618342995643616">
        <ele>444.75</ele>
        <time>2025-04-27T11:27:58Z</time>
      </trkpt>
      <trkpt lat="42.831305013969541" lon="-1.618412984535098">
        <ele>444.75</ele>
        <time>2025-04-27T11:27:59Z</time>
      </trkpt>
      <trkpt lat="42.831021035090089" lon="-1.618657987564802">
        <ele>444.26999999999998</ele>
        <time>2025-04-27T11:28:02Z</time>
      </trkpt>
      <trkpt lat="42.830181000754237" lon="-1.619370030239224">
        <ele>442.33999999999997</ele>
        <time>2025-04-27T11:28:11Z</time>
      </trkpt>
      <trkpt lat="42.829029997810721" lon="-1.620036978274584">
        <ele>440.42000000000002</ele>
        <time>2025-04-27T11:28:24Z</time>
      </trkpt>
      <trkpt lat="42.828970989212394" lon="-1.620153989642859">
        <ele>439.94</ele>
        <time>2025-04-27T11:28:27Z</time>
      </trkpt>
      <trkpt lat="42.828931007534266" lon="-1.620212998241186">
        <ele>439.45999999999998</ele>
        <time>2025-04-27T11:28:28Z</time>
      </trkpt>
      <trkpt lat="42.82885598950088" lon="-1.620237976312637">
        <ele>439.45999999999998</ele>
        <time>2025-04-27T11:28:29Z</time>
      </trkpt>
      <trkpt lat="42.828765967860818" lon="-1.620267983525991">
        <ele>438.5</ele>
        <time>2025-04-27T11:28:30Z</time>
      </trkpt>
      <trkpt lat="42.828663038089871" lon="-1.620302014052868">
        <ele>438.01999999999998</ele>
        <time>2025-04-27T11:28:31Z</time>
      </trkpt>
      <trkpt lat="42.828548038378358" lon="-1.620345013216138">
        <ele>437.54000000000002</ele>
        <time>2025-04-27T11:28:32Z</time>
      </trkpt>
      <trkpt lat="42.828430021181703" lon="-1.620410978794098">
        <ele>437.06</ele>
        <time>2025-04-27T11:28:33Z</time>
      </trkpt>
      <trkpt lat="42.828304041177034" lon="-1.62048096768558">
        <ele>436.57999999999998</ele>
        <time>2025-04-27T11:28:34Z</time>
      </trkpt>
      <trkpt lat="42.827038960531354" lon="-1.621218994259834">
        <ele>430.81</ele>
        <time>2025-04-27T11:28:44Z</time>
      </trkpt>
      <trkpt lat="42.826350973919034" lon="-1.62161503918469">
        <ele>427.44</ele>
        <time>2025-04-27T11:28:51Z</time>
      </trkpt>
      <trkpt lat="42.826264975592494" lon="-1.621685028076172">
        <ele>426.95999999999998</ele>
        <time>2025-04-27T11:28:52Z</time>
      </trkpt>
      <trkpt lat="42.826219964772463" lon="-1.62178996950388">
        <ele>426.95999999999998</ele>
        <time>2025-04-27T11:28:53Z</time>
      </trkpt>
      <trkpt lat="42.826138995587826" lon="-1.621836991980672">
        <ele>426.95999999999998</ele>
        <time>2025-04-27T11:28:54Z</time>
      </trkpt>
      <trkpt lat="42.826043022796512" lon="-1.621869010850787">
        <ele>426.48000000000002</ele>
        <time>2025-04-27T11:28:55Z</time>
      </trkpt>
      <trkpt lat="42.825942020863295" lon="-1.621903041377664">
        <ele>426.48000000000002</ele>
        <time>2025-04-27T11:28:56Z</time>
      </trkpt>
      <trkpt lat="42.825833978131413" lon="-1.62193899974227">
        <ele>426.48000000000002</ele>
        <time>2025-04-27T11:28:57Z</time>
      </trkpt>
      <trkpt lat="42.825721995905042" lon="-1.621986022219062">
        <ele>426.48000000000002</ele>
        <time>2025-04-27T11:28:58Z</time>
      </trkpt>
      <trkpt lat="42.824762016534805" lon="-1.622334960848093">
        <ele>424.56</ele>
        <time>2025-04-27T11:29:06Z</time>
      </trkpt>
      <trkpt lat="42.824240997433662" lon="-1.622332027181983">
        <ele>423.60000000000002</ele>
        <time>2025-04-27T11:29:11Z</time>
      </trkpt>
      <trkpt lat="42.823570026084781" lon="-1.622135974466801">
        <ele>421.19</ele>
        <time>2025-04-27T11:29:18Z</time>
      </trkpt>
      <trkpt lat="42.82316199503839" lon="-1.621843026950955">
        <ele>419.75</ele>
        <time>2025-04-27T11:29:25Z</time>
      </trkpt>
      <trkpt lat="42.822948005050421" lon="-1.621663989499211">
        <ele>418.31</ele>
        <time>2025-04-27T11:29:36Z</time>
      </trkpt>
      <trkpt lat="42.822897965088487" lon="-1.621614033356309">
        <ele>418.31</ele>
        <time>2025-04-27T11:29:37Z</time>
      </trkpt>
      <trkpt lat="42.822377029806376" lon="-1.621193010360003">
        <ele>418.79000000000002</ele>
        <time>2025-04-27T11:29:45Z</time>
      </trkpt>
      <trkpt lat="42.822317015379667" lon="-1.621158979833126">
        <ele>418.79000000000002</ele>
        <time>2025-04-27T11:29:46Z</time>
      </trkpt>
      <trkpt lat="42.822251971811056" lon="-1.621132995933294">
        <ele>418.79000000000002</ele>
        <time>2025-04-27T11:29:47Z</time>
      </trkpt>
      <trkpt lat="42.822174020111561" lon="-1.62116501480341">
        <ele>418.79000000000002</ele>
        <time>2025-04-27T11:29:48Z</time>
      </trkpt>
      <trkpt lat="42.822092967107892" lon="-1.621149005368352">
        <ele>419.26999999999998</ele>
        <time>2025-04-27T11:29:49Z</time>
      </trkpt>
      <trkpt lat="42.822014009580016" lon="-1.621136013418436">
        <ele>419.26999999999998</ele>
        <time>2025-04-27T11:29:50Z</time>
      </trkpt>
      <trkpt lat="42.821930022910237" lon="-1.62112201564014">
        <ele>419.75</ele>
        <time>2025-04-27T11:29:51Z</time>
      </trkpt>
      <trkpt lat="42.821838995441794" lon="-1.621105000376701">
        <ele>420.23000000000002</ele>
        <time>2025-04-27T11:29:52Z</time>
      </trkpt>
      <trkpt lat="42.821723995730281" lon="-1.621084967628121">
        <ele>420.23000000000002</ele>
        <time>2025-04-27T11:29:53Z</time>
      </trkpt>
      <trkpt lat="42.821640009060502" lon="-1.621169038116932">
        <ele>421.19</ele>
        <time>2025-04-27T11:29:54Z</time>
      </trkpt>
      <trkpt lat="42.821559039875865" lon="-1.621278002858162">
        <ele>421.68000000000001</ele>
        <time>2025-04-27T11:29:55Z</time>
      </trkpt>
      <trkpt lat="42.820657985284925" lon="-1.62230403162539">
        <ele>428.39999999999998</ele>
        <time>2025-04-27T11:30:05Z</time>
      </trkpt>
      <trkpt lat="42.820050967857242" lon="-1.622866038233042">
        <ele>433.69</ele>
        <time>2025-04-27T11:30:11Z</time>
      </trkpt>
      <trkpt lat="42.818885967135429" lon="-1.623339029029012">
        <ele>438.98000000000002</ele>
        <time>2025-04-27T11:30:21Z</time>
      </trkpt>
      <trkpt lat="42.817635973915458" lon="-1.623993990942836">
        <ele>444.26999999999998</ele>
        <time>2025-04-27T11:30:32Z</time>
      </trkpt>
      <trkpt lat="42.816425040364265" lon="-1.625081039965153">
        <ele>452.44</ele>
        <time>2025-04-27T11:30:44Z</time>
      </trkpt>
      <trkpt lat="42.816154975444078" lon="-1.62542000412941">
        <ele>454.83999999999997</ele>
        <time>2025-04-27T11:30:47Z</time>
      </trkpt>
      <trkpt lat="42.816082974895835" lon="-1.625553024932742">
        <ele>455.31999999999999</ele>
        <time>2025-04-27T11:30:48Z</time>
      </trkpt>
      <trkpt lat="42.815266996622086" lon="-1.627187998965383">
        <ele>462.52999999999997</ele>
        <time>2025-04-27T11:31:00Z</time>
      </trkpt>
      <trkpt lat="42.814669031649828" lon="-1.628670003265142">
        <ele>465.89999999999998</ele>
        <time>2025-04-27T11:31:11Z</time>
      </trkpt>
      <trkpt lat="42.814598036929965" lon="-1.628860021010041">
        <ele>465.89999999999998</ele>
        <time>2025-04-27T11:31:17Z</time>
      </trkpt>
      <trkpt lat="42.81454598531127" lon="-1.629018019884825">
        <ele>465.42000000000002</ele>
        <time>2025-04-27T11:31:39Z</time>
      </trkpt>
      <trkpt lat="42.814386980608106" lon="-1.629485981538892">
        <ele>464.93000000000001</ele>
        <time>2025-04-27T11:31:44Z</time>
      </trkpt>
      <trkpt lat="42.814133008942008" lon="-1.630691969767213">
        <ele>464.44999999999999</ele>
        <time>2025-04-27T11:31:52Z</time>
      </trkpt>
      <trkpt lat="42.813939973711967" lon="-1.631880020722747">
        <ele>464.44999999999999</ele>
        <time>2025-04-27T11:32:00Z</time>
      </trkpt>
      <trkpt lat="42.813739981502295" lon="-1.633825041353703">
        <ele>462.52999999999997</ele>
        <time>2025-04-27T11:32:13Z</time>
      </trkpt>
      <trkpt lat="42.813646020367742" lon="-1.634973026812077">
        <ele>463.00999999999999</ele>
        <time>2025-04-27T11:32:21Z</time>
      </trkpt>
      <trkpt lat="42.81353797763586" lon="-1.635963013395667">
        <ele>461.08999999999997</ele>
        <time>2025-04-27T11:32:29Z</time>
      </trkpt>
      <trkpt lat="42.813500007614493" lon="-1.636355035007">
        <ele>459.17000000000002</ele>
        <time>2025-04-27T11:32:36Z</time>
      </trkpt>
      <trkpt lat="42.813500007614493" lon="-1.636355035007">
        <ele>458.69</ele>
        <time>2025-04-27T11:32:48Z</time>
      </trkpt>
      <trkpt lat="42.813485004007816" lon="-1.636504987254739">
        <ele>457.24000000000001</ele>
        <time>2025-04-27T11:33:34Z</time>
      </trkpt>
      <trkpt lat="42.813474023714662" lon="-1.636621998623014">
        <ele>457.24000000000001</ele>
        <time>2025-04-27T11:33:35Z</time>
      </trkpt>
      <trkpt lat="42.813347959890962" lon="-1.637690020725131">
        <ele>455.80000000000001</ele>
        <time>2025-04-27T11:33:44Z</time>
      </trkpt>
      <trkpt lat="42.81323698349297" lon="-1.63880598731339">
        <ele>456.27999999999997</ele>
        <time>2025-04-27T11:33:53Z</time>
      </trkpt>
      <trkpt lat="42.813224997371435" lon="-1.638916041702032">
        <ele>455.80000000000001</ele>
        <time>2025-04-27T11:33:54Z</time>
      </trkpt>
      <trkpt lat="42.813212005421519" lon="-1.63902198895812">
        <ele>455.80000000000001</ele>
        <time>2025-04-27T11:33:55Z</time>
      </trkpt>
      <trkpt lat="42.813314013183117" lon="-1.639173030853272">
        <ele>455.80000000000001</ele>
        <time>2025-04-27T11:33:56Z</time>
      </trkpt>
      <trkpt lat="42.813314013183117" lon="-1.63925701752305">
        <ele>455.80000000000001</ele>
        <time>2025-04-27T11:33:57Z</time>
      </trkpt>
      <trkpt lat="42.813296997919679" lon="-1.639376962557435">
        <ele>455.80000000000001</ele>
        <time>2025-04-27T11:33:58Z</time>
      </trkpt>
      <trkpt lat="42.813271014019847" lon="-1.639431025832892">
        <ele>455.80000000000001</ele>
        <time>2025-04-27T11:33:59Z</time>
      </trkpt>
      <trkpt lat="42.813173029571772" lon="-1.639562034979463">
        <ele>455.80000000000001</ele>
        <time>2025-04-27T11:34:00Z</time>
      </trkpt>
      <trkpt lat="42.813161965459585" lon="-1.63966597057879">
        <ele>455.80000000000001</ele>
        <time>2025-04-27T11:34:01Z</time>
      </trkpt>
      <trkpt lat="42.81314997933805" lon="-1.639774013310671">
        <ele>455.31999999999999</ele>
        <time>2025-04-27T11:34:02Z</time>
      </trkpt>
      <trkpt lat="42.813137993216515" lon="-1.639892030507326">
        <ele>454.83999999999997</ele>
        <time>2025-04-27T11:34:03Z</time>
      </trkpt>
      <trkpt lat="42.813114020973444" lon="-1.640121024101973">
        <ele>453.88</ele>
        <time>2025-04-27T11:34:05Z</time>
      </trkpt>
      <trkpt lat="42.813102034851909" lon="-1.640226971358061">
        <ele>453.88</ele>
        <time>2025-04-27T11:34:06Z</time>
      </trkpt>
      <trkpt lat="42.813034979626536" lon="-1.64080398157239">
        <ele>454.36000000000001</ele>
        <time>2025-04-27T11:34:11Z</time>
      </trkpt>
      <trkpt lat="42.813013019040227" lon="-1.641017971560359">
        <ele>455.31999999999999</ele>
        <time>2025-04-27T11:34:12Z</time>
      </trkpt>
      <trkpt lat="42.812968008220196" lon="-1.641604034230113">
        <ele>458.69</ele>
        <time>2025-04-27T11:34:17Z</time>
      </trkpt>
      <trkpt lat="42.812948981299996" lon="-1.641768990084529">
        <ele>459.17000000000002</ele>
        <time>2025-04-27T11:34:18Z</time>
      </trkpt>
      <trkpt lat="42.812876980751753" lon="-1.642497964203358">
        <ele>464.44999999999999</ele>
        <time>2025-04-27T11:34:24Z</time>
      </trkpt>
      <trkpt lat="42.812867006286979" lon="-1.642606006935239">
        <ele>465.42000000000002</ele>
        <time>2025-04-27T11:34:25Z</time>
      </trkpt>
      <trkpt lat="42.812991980463266" lon="-1.642713965848088">
        <ele>465.89999999999998</ele>
        <time>2025-04-27T11:34:26Z</time>
      </trkpt>
      <trkpt lat="42.813007989898324" lon="-1.642761994153261">
        <ele>466.38</ele>
        <time>2025-04-27T11:34:27Z</time>
      </trkpt>
      <trkpt lat="42.813028022646904" lon="-1.642822008579969">
        <ele>466.86000000000001</ele>
        <time>2025-04-27T11:34:28Z</time>
      </trkpt>
      <trkpt lat="42.813050989061594" lon="-1.642889985814691">
        <ele>468.30000000000001</ele>
        <time>2025-04-27T11:34:36Z</time>
      </trkpt>
      <trkpt lat="42.813280988484621" lon="-1.642907001078129">
        <ele>469.74000000000001</ele>
        <time>2025-04-27T11:34:44Z</time>
      </trkpt>
      <trkpt lat="42.813961012288928" lon="-1.642981013283134">
        <ele>471.66000000000003</ele>
        <time>2025-04-27T11:34:55Z</time>
      </trkpt>
      <trkpt lat="42.814006023108959" lon="-1.642991993576288">
        <ele>471.66000000000003</ele>
        <time>2025-04-27T11:34:56Z</time>
      </trkpt>
      <trkpt lat="42.814348004758358" lon="-1.643046978861094">
        <ele>471.18000000000001</ele>
        <time>2025-04-27T11:35:03Z</time>
      </trkpt>
      <trkpt lat="42.814389998093247" lon="-1.643052008002996">
        <ele>471.18000000000001</ele>
        <time>2025-04-27T11:35:04Z</time>
      </trkpt>
      <trkpt lat="42.814425034448504" lon="-1.643057037144899">
        <ele>471.18000000000001</ele>
        <time>2025-04-27T11:35:05Z</time>
      </trkpt>
      <trkpt lat="42.814580015838146" lon="-1.643077991902828">
        <ele>471.18000000000001</ele>
        <time>2025-04-27T11:35:06Z</time>
      </trkpt>
      <trkpt lat="42.814496029168367" lon="-1.643067011609674">
        <ele>471.18000000000001</ele>
        <time>2025-04-27T11:35:07Z</time>
      </trkpt>
      <trkpt lat="42.814512960612774" lon="-1.643069023266435">
        <ele>471.66000000000003</ele>
        <time>2025-04-27T11:35:08Z</time>
      </trkpt>
      <trkpt lat="42.814561994746327" lon="-1.643155021592975">
        <ele>470.69999999999999</ele>
        <time>2025-04-27T11:35:09Z</time>
      </trkpt>
      <trkpt lat="42.814549002796412" lon="-1.643207995221019">
        <ele>470.22000000000003</ele>
        <time>2025-04-27T11:35:10Z</time>
      </trkpt>
      <trkpt lat="42.814538022503257" lon="-1.643256023526192">
        <ele>469.74000000000001</ele>
        <time>2025-04-27T11:35:11Z</time>
      </trkpt>
      <trkpt lat="42.814526036381721" lon="-1.643306985497475">
        <ele>469.25999999999999</ele>
        <time>2025-04-27T11:35:12Z</time>
      </trkpt>
      <trkpt lat="42.814513966441154" lon="-1.643356019631028">
        <ele>468.77999999999997</ele>
        <time>2025-04-27T11:35:13Z</time>
      </trkpt>
      <trkpt lat="42.814396033063531" lon="-1.64383496157825">
        <ele>466.38</ele>
        <time>2025-04-27T11:35:22Z</time>
      </trkpt>
      <trkpt lat="42.814249014481902" lon="-1.644421024248004">
        <ele>463.49000000000001</ele>
        <time>2025-04-27T11:35:30Z</time>
      </trkpt>
      <trkpt lat="42.814205009490252" lon="-1.644441979005933">
        <ele>462.52999999999997</ele>
        <time>2025-04-27T11:35:31Z</time>
      </trkpt>
      <trkpt lat="42.814169973134995" lon="-1.644407026469708">
        <ele>461.56999999999999</ele>
        <time>2025-04-27T11:35:32Z</time>
      </trkpt>
      <trkpt lat="42.814127979800105" lon="-1.644365033134818">
        <ele>461.08999999999997</ele>
        <time>2025-04-27T11:35:33Z</time>
      </trkpt>
      <trkpt lat="42.814085986465216" lon="-1.644323039799929">
        <ele>460.61000000000001</ele>
        <time>2025-04-27T11:35:34Z</time>
      </trkpt>
      <trkpt lat="42.814046004787087" lon="-1.644282974302769">
        <ele>460.13</ele>
        <time>2025-04-27T11:35:35Z</time>
      </trkpt>
      <trkpt lat="42.814004011452198" lon="-1.644240980967879">
        <ele>459.17000000000002</ele>
        <time>2025-04-27T11:35:36Z</time>
      </trkpt>
      <trkpt lat="42.813963023945689" lon="-1.644199993461371">
        <ele>458.69</ele>
        <time>2025-04-27T11:35:37Z</time>
      </trkpt>
      <trkpt lat="42.81392497010529" lon="-1.644162023440003">
        <ele>457.72000000000003</ele>
        <time>2025-04-27T11:35:38Z</time>
      </trkpt>
      <trkpt lat="42.813888005912304" lon="-1.644124975427985">
        <ele>457.24000000000001</ele>
        <time>2025-04-27T11:35:39Z</time>
      </trkpt>
      <trkpt lat="42.813853975385427" lon="-1.644091028720141">
        <ele>456.27999999999997</ele>
        <time>2025-04-27T11:35:40Z</time>
      </trkpt>
      <trkpt lat="42.8136430028826" lon="-1.643879972398281">
        <ele>452.92000000000002</ele>
        <time>2025-04-27T11:35:46Z</time>
      </trkpt>
      <trkpt lat="42.813571002334356" lon="-1.643807971850038">
        <ele>452.44</ele>
        <time>2025-04-27T11:35:47Z</time>
      </trkpt>
      <trkpt lat="42.813571002334356" lon="-1.643807971850038">
        <ele>451.48000000000002</ele>
        <time>2025-04-27T11:35:49Z</time>
      </trkpt>
      <trkpt lat="42.813465977087617" lon="-1.643692972138524">
        <ele>450.02999999999997</ele>
        <time>2025-04-27T11:35:51Z</time>
      </trkpt>
      <trkpt lat="42.813119972124696" lon="-1.643314026296139">
        <ele>444.75</ele>
        <time>2025-04-27T11:36:01Z</time>
      </trkpt>
      <trkpt lat="42.812905982136726" lon="-1.643229033797979">
        <ele>443.79000000000002</ele>
        <time>2025-04-27T11:36:14Z</time>
      </trkpt>
      <trkpt lat="42.813099017366767" lon="-1.643371023237705">
        <ele>476.94999999999999</ele>
        <time>2025-04-27T11:51:53Z</time>
      </trkpt>
      <trkpt lat="42.812971025705338" lon="-1.643416034057736">
        <ele>462.52999999999997</ele>
        <time>2025-04-27T11:52:19Z</time>
      </trkpt>
      <trkpt lat="42.812905982136726" lon="-1.643229033797979">
        <ele>459.64999999999998</ele>
        <time>2025-04-27T11:52:21Z</time>
      </trkpt>
      <trkpt lat="42.812774972990155" lon="-1.643450986593962">
        <ele>459.17000000000002</ele>
        <time>2025-04-27T11:52:22Z</time>
      </trkpt>
      <trkpt lat="42.812763992697001" lon="-1.643579984083772">
        <ele>454.83999999999997</ele>
        <time>2025-04-27T11:52:31Z</time>
      </trkpt>
      <trkpt lat="42.812760975211859" lon="-1.643610997125506">
        <ele>453.88</ele>
        <time>2025-04-27T11:52:32Z</time>
      </trkpt>
      <trkpt lat="42.812758041545749" lon="-1.643652990460396">
        <ele>453.39999999999998</ele>
        <time>2025-04-27T11:52:33Z</time>
      </trkpt>
      <trkpt lat="42.812724011018872" lon="-1.644059009850025">
        <ele>451</ele>
        <time>2025-04-27T11:52:42Z</time>
      </trkpt>
      <trkpt lat="42.812724011018872" lon="-1.644059009850025">
        <ele>456.75999999999999</ele>
        <time>2025-04-27T11:53:01Z</time>
      </trkpt>
      <trkpt lat="42.812716970220208" lon="-1.644147019833326">
        <ele>462.05000000000001</ele>
        <time>2025-04-27T11:53:15Z</time>
      </trkpt>
      <trkpt lat="42.812645975500345" lon="-1.644911030307412">
        <ele>462.52999999999997</ele>
        <time>2025-04-27T11:53:25Z</time>
      </trkpt>
      <trkpt lat="42.812604987993836" lon="-1.645518969744444">
        <ele>462.05000000000001</ele>
        <time>2025-04-27T11:53:31Z</time>
      </trkpt>
      <trkpt lat="42.812604987993836" lon="-1.645629024133086">
        <ele>461.56999999999999</ele>
        <time>2025-04-27T11:53:32Z</time>
      </trkpt>
      <trkpt lat="42.812945963814855" lon="-1.646840963512659">
        <ele>458.69</ele>
        <time>2025-04-27T11:53:43Z</time>
      </trkpt>
      <trkpt lat="42.813390037044883" lon="-1.64847300387919">
        <ele>457.72000000000003</ele>
        <time>2025-04-27T11:53:56Z</time>
      </trkpt>
      <trkpt lat="42.813425995409489" lon="-1.64860300719738">
        <ele>457.72000000000003</ele>
        <time>2025-04-27T11:53:57Z</time>
      </trkpt>
      <trkpt lat="42.813699999824166" lon="-1.649624006822705">
        <ele>456.27999999999997</ele>
        <time>2025-04-27T11:54:05Z</time>
      </trkpt>
      <trkpt lat="42.813721038401127" lon="-1.649708999320865">
        <ele>456.27999999999997</ele>
        <time>2025-04-27T11:54:06Z</time>
      </trkpt>
      <trkpt lat="42.814027983695269" lon="-1.650818008929491">
        <ele>455.80000000000001</ele>
        <time>2025-04-27T11:54:15Z</time>
      </trkpt>
      <trkpt lat="42.814257983118296" lon="-1.65165401995182">
        <ele>454.83999999999997</ele>
        <time>2025-04-27T11:54:25Z</time>
      </trkpt>
      <trkpt lat="42.814321015030146" lon="-1.651878990232945">
        <ele>451.95999999999998</ele>
        <time>2025-04-27T11:54:35Z</time>
      </trkpt>
      <trkpt lat="42.814321015030146" lon="-1.651878990232945">
        <ele>452.44</ele>
        <time>2025-04-27T11:55:15Z</time>
      </trkpt>
      <trkpt lat="42.814428973942995" lon="-1.652261959388852">
        <ele>449.55000000000001</ele>
        <time>2025-04-27T11:55:46Z</time>
      </trkpt>
      <trkpt lat="42.814428973942995" lon="-1.652261959388852">
        <ele>448.58999999999997</ele>
        <time>2025-04-27T11:55:48Z</time>
      </trkpt>
      <trkpt lat="42.814431991428137" lon="-1.652290960773826">
        <ele>448.11000000000001</ele>
        <time>2025-04-27T11:55:49Z</time>
      </trkpt>
      <trkpt lat="42.81445998698473" lon="-1.65255700238049">
        <ele>446.19</ele>
        <time>2025-04-27T11:55:52Z</time>
      </trkpt>
      <trkpt lat="42.814471973106265" lon="-1.652669990435243">
        <ele>445.23000000000002</ele>
        <time>2025-04-27T11:55:53Z</time>
      </trkpt>
      <trkpt lat="42.814434003084898" lon="-1.652741990983486">
        <ele>444.75</ele>
        <time>2025-04-27T11:55:54Z</time>
      </trkpt>
      <trkpt lat="42.814385974779725" lon="-1.652832012623549">
        <ele>444.26999999999998</ele>
        <time>2025-04-27T11:55:55Z</time>
      </trkpt>
      <trkpt lat="42.814338030293584" lon="-1.652922034263611">
        <ele>443.79000000000002</ele>
        <time>2025-04-27T11:55:56Z</time>
      </trkpt>
      <trkpt lat="42.81428799033165" lon="-1.653005015105009">
        <ele>443.31</ele>
        <time>2025-04-27T11:55:57Z</time>
      </trkpt>
      <trkpt lat="42.814216995611787" lon="-1.653080033138394">
        <ele>442.81999999999999</ele>
        <time>2025-04-27T11:55:58Z</time>
      </trkpt>
      <trkpt lat="42.813830003142357" lon="-1.653489992022514">
        <ele>441.38</ele>
        <time>2025-04-27T11:56:03Z</time>
      </trkpt>
      <trkpt lat="42.813763031736016" lon="-1.653559980913997">
        <ele>441.38</ele>
        <time>2025-04-27T11:56:04Z</time>
      </trkpt>
      <trkpt lat="42.813248969614506" lon="-1.654107989743352">
        <ele>442.33999999999997</ele>
        <time>2025-04-27T11:56:14Z</time>
      </trkpt>
      <trkpt lat="42.813131036236882" lon="-1.654225001111627">
        <ele>442.33999999999997</ele>
        <time>2025-04-27T11:56:16Z</time>
      </trkpt>
      <trkpt lat="42.813070015981793" lon="-1.654281998053193">
        <ele>442.33999999999997</ele>
        <time>2025-04-27T11:56:17Z</time>
      </trkpt>
      <trkpt lat="42.812366019934416" lon="-1.65504802018404">
        <ele>444.75</ele>
        <time>2025-04-27T11:56:28Z</time>
      </trkpt>
      <trkpt lat="42.811553981155157" lon="-1.655953014269471">
        <ele>445.23000000000002</ele>
        <time>2025-04-27T11:56:37Z</time>
      </trkpt>
      <trkpt lat="42.811392964795232" lon="-1.656134985387325">
        <ele>445.70999999999998</ele>
        <time>2025-04-27T11:56:40Z</time>
      </trkpt>
      <trkpt lat="42.811315013095737" lon="-1.656222995370626">
        <ele>446.19</ele>
        <time>2025-04-27T11:56:41Z</time>
      </trkpt>
      <trkpt lat="42.811060035601258" lon="-1.656489036977291">
        <ele>446.67000000000002</ele>
        <time>2025-04-27T11:56:44Z</time>
      </trkpt>
      <trkpt lat="42.810835987329483" lon="-1.656762035563588">
        <ele>446.19</ele>
        <time>2025-04-27T11:56:47Z</time>
      </trkpt>
      <trkpt lat="42.810749989002943" lon="-1.656862031668425">
        <ele>446.19</ele>
        <time>2025-04-27T11:56:48Z</time>
      </trkpt>
      <trkpt lat="42.810645969584584" lon="-1.656949035823345">
        <ele>446.19</ele>
        <time>2025-04-27T11:56:49Z</time>
      </trkpt>
      <trkpt lat="42.810036018490791" lon="-1.657595029100776">
        <ele>448.11000000000001</ele>
        <time>2025-04-27T11:56:56Z</time>
      </trkpt>
      <trkpt lat="42.80986100435257" lon="-1.657775994390249">
        <ele>450.02999999999997</ele>
        <time>2025-04-27T11:56:58Z</time>
      </trkpt>
      <trkpt lat="42.809177041053772" lon="-1.658544028177857">
        <ele>454.83999999999997</ele>
        <time>2025-04-27T11:57:06Z</time>
      </trkpt>
      <trkpt lat="42.809097999706864" lon="-1.658627009019256">
        <ele>454.83999999999997</ele>
        <time>2025-04-27T11:57:07Z</time>
      </trkpt>
      <trkpt lat="42.809035973623395" lon="-1.658694986253977">
        <ele>454.83999999999997</ele>
        <time>2025-04-27T11:57:08Z</time>
      </trkpt>
      <trkpt lat="42.808892978355289" lon="-1.658849967643619">
        <ele>455.80000000000001</ele>
        <time>2025-04-27T11:57:14Z</time>
      </trkpt>
      <trkpt lat="42.808892978355289" lon="-1.658849967643619">
        <ele>456.27999999999997</ele>
        <time>2025-04-27T11:57:17Z</time>
      </trkpt>
      <trkpt lat="42.808892978355289" lon="-1.658849967643619">
        <ele>456.75999999999999</ele>
        <time>2025-04-27T11:57:35Z</time>
      </trkpt>
      <trkpt lat="42.808763980865479" lon="-1.658977959305048">
        <ele>458.20999999999998</ele>
        <time>2025-04-27T11:57:57Z</time>
      </trkpt>
      <trkpt lat="42.808763980865479" lon="-1.658977959305048">
        <ele>458.20999999999998</ele>
        <time>2025-04-27T11:57:58Z</time>
      </trkpt>
      <trkpt lat="42.808185964822769" lon="-1.65960299782455">
        <ele>454.36000000000001</ele>
        <time>2025-04-27T11:58:08Z</time>
      </trkpt>
      <trkpt lat="42.807999970391393" lon="-1.659811958670616">
        <ele>453.88</ele>
        <time>2025-04-27T11:58:11Z</time>
      </trkpt>
      <trkpt lat="42.807941967621446" lon="-1.659877002239227">
        <ele>453.88</ele>
        <time>2025-04-27T11:58:12Z</time>
      </trkpt>
      <trkpt lat="42.80788597650826" lon="-1.659940034151077">
        <ele>453.88</ele>
        <time>2025-04-27T11:58:13Z</time>
      </trkpt>
      <trkpt lat="42.807565033435822" lon="-1.660298025235534">
        <ele>452.92000000000002</ele>
        <time>2025-04-27T11:58:19Z</time>
      </trkpt>
      <trkpt lat="42.807518010959029" lon="-1.660348987206817">
        <ele>452.44</ele>
        <time>2025-04-27T11:58:20Z</time>
      </trkpt>
      <trkpt lat="42.80747702345252" lon="-1.660395003855228">
        <ele>452.44</ele>
        <time>2025-04-27T11:58:21Z</time>
      </trkpt>
      <trkpt lat="42.807416003197432" lon="-1.660456024110317">
        <ele>452.44</ele>
        <time>2025-04-27T11:58:22Z</time>
      </trkpt>
      <trkpt lat="42.807363029569387" lon="-1.660507991909981">
        <ele>451.95999999999998</ele>
        <time>2025-04-27T11:58:23Z</time>
      </trkpt>
      <trkpt lat="42.807311983779073" lon="-1.660559959709644">
        <ele>451.95999999999998</ele>
        <time>2025-04-27T11:58:24Z</time>
      </trkpt>
      <trkpt lat="42.80726202763617" lon="-1.660620979964733">
        <ele>451.48000000000002</ele>
        <time>2025-04-27T11:58:25Z</time>
      </trkpt>
      <trkpt lat="42.807149039581418" lon="-1.660744026303291">
        <ele>451.48000000000002</ele>
        <time>2025-04-27T11:58:27Z</time>
      </trkpt>
      <trkpt lat="42.80709003098309" lon="-1.660812003538013">
        <ele>451.95999999999998</ele>
        <time>2025-04-27T11:58:28Z</time>
      </trkpt>
      <trkpt lat="42.806964972987771" lon="-1.660954998806119">
        <ele>452.44</ele>
        <time>2025-04-27T11:58:30Z</time>
      </trkpt>
      <trkpt lat="42.806893978267908" lon="-1.661032028496265">
        <ele>451.95999999999998</ele>
        <time>2025-04-27T11:58:31Z</time>
      </trkpt>
      <trkpt lat="42.806417969986796" lon="-1.661540977656841">
        <ele>452.44</ele>
        <time>2025-04-27T11:58:37Z</time>
      </trkpt>
      <trkpt lat="42.806346975266933" lon="-1.66162203066051">
        <ele>452.92000000000002</ele>
        <time>2025-04-27T11:58:38Z</time>
      </trkpt>
      <trkpt lat="42.806177996098995" lon="-1.661810958757997">
        <ele>453.88</ele>
        <time>2025-04-27T11:58:41Z</time>
      </trkpt>
      <trkpt lat="42.806143965572119" lon="-1.661848006770015">
        <ele>453.88</ele>
        <time>2025-04-27T11:58:42Z</time>
      </trkpt>
      <trkpt lat="42.806120999157429" lon="-1.661872984841466">
        <ele>454.36000000000001</ele>
        <time>2025-04-27T11:58:43Z</time>
      </trkpt>
      <trkpt lat="42.806120999157429" lon="-1.661872984841466">
        <ele>454.83999999999997</ele>
        <time>2025-04-27T11:58:52Z</time>
      </trkpt>
      <trkpt lat="42.806120999157429" lon="-1.661872984841466">
        <ele>454.83999999999997</ele>
        <time>2025-04-27T11:59:42Z</time>
      </trkpt>
      <trkpt lat="42.806060984730721" lon="-1.661940040066838">
        <ele>455.31999999999999</ele>
        <time>2025-04-27T12:00:01Z</time>
      </trkpt>
      <trkpt lat="42.805625963956118" lon="-1.662427028641105">
        <ele>454.36000000000001</ele>
        <time>2025-04-27T12:00:07Z</time>
      </trkpt>
      <trkpt lat="42.805031016469002" lon="-1.663191039115191">
        <ele>451.48000000000002</ele>
        <time>2025-04-27T12:00:15Z</time>
      </trkpt>
      <trkpt lat="42.804968990385532" lon="-1.663294974714518">
        <ele>451</ele>
        <time>2025-04-27T12:00:16Z</time>
      </trkpt>
      <trkpt lat="42.804613010957837" lon="-1.663709040731192">
        <ele>447.63</ele>
        <time>2025-04-27T12:00:20Z</time>
      </trkpt>
      <trkpt lat="42.804517960175872" lon="-1.663804007694125">
        <ele>447.14999999999998</ele>
        <time>2025-04-27T12:00:21Z</time>
      </trkpt>
      <trkpt lat="42.804016973823309" lon="-1.664229976013303">
        <ele>444.26999999999998</ele>
        <time>2025-04-27T12:00:26Z</time>
      </trkpt>
      <trkpt lat="42.803172999992967" lon="-1.665545012801886">
        <ele>437.54000000000002</ele>
        <time>2025-04-27T12:00:37Z</time>
      </trkpt>
      <trkpt lat="42.802206985652447" lon="-1.667126007378101">
        <ele>427.92000000000002</ele>
        <time>2025-04-27T12:00:50Z</time>
      </trkpt>
      <trkpt lat="42.801627963781357" lon="-1.668166033923626">
        <ele>421.19</ele>
        <time>2025-04-27T12:00:59Z</time>
      </trkpt>
      <trkpt lat="42.801475999876857" lon="-1.668440038338304">
        <ele>418.31</ele>
        <time>2025-04-27T12:01:03Z</time>
      </trkpt>
      <trkpt lat="42.801451021805406" lon="-1.668484965339303">
        <ele>417.82999999999998</ele>
        <time>2025-04-27T12:01:04Z</time>
      </trkpt>
      <trkpt lat="42.801393019035459" lon="-1.668590996414423">
        <ele>415.43000000000001</ele>
        <time>2025-04-27T12:01:13Z</time>
      </trkpt>
      <trkpt lat="42.801366029307246" lon="-1.668639024719596">
        <ele>414.94999999999999</ele>
        <time>2025-04-27T12:01:55Z</time>
      </trkpt>
      <trkpt lat="42.80133300460875" lon="-1.668698033317924">
        <ele>414.47000000000003</ele>
        <time>2025-04-27T12:01:56Z</time>
      </trkpt>
      <trkpt lat="42.800741996616125" lon="-1.669740993529558">
        <ele>415.43000000000001</ele>
        <time>2025-04-27T12:02:08Z</time>
      </trkpt>
      <trkpt lat="42.800479978322983" lon="-1.670225970447063">
        <ele>416.38999999999999</ele>
        <time>2025-04-27T12:02:13Z</time>
      </trkpt>
      <trkpt lat="42.800427004694939" lon="-1.670332001522183">
        <ele>416.38999999999999</ele>
        <time>2025-04-27T12:02:14Z</time>
      </trkpt>
      <trkpt lat="42.800375036895275" lon="-1.670436020940542">
        <ele>416.38999999999999</ele>
        <time>2025-04-27T12:02:15Z</time>
      </trkpt>
      <trkpt lat="42.799967005848885" lon="-1.671172035858035">
        <ele>415.91000000000003</ele>
        <time>2025-04-27T12:02:22Z</time>
      </trkpt>
      <trkpt lat="42.799902968108654" lon="-1.671284018084407">
        <ele>415.91000000000003</ele>
        <time>2025-04-27T12:02:23Z</time>
      </trkpt>
      <trkpt lat="42.799080032855272" lon="-1.672855038195849">
        <ele>417.35000000000002</ele>
        <time>2025-04-27T12:02:36Z</time>
      </trkpt>
      <trkpt lat="42.798292972147465" lon="-1.67444902472198">
        <ele>416.87</ele>
        <time>2025-04-27T12:02:48Z</time>
      </trkpt>
      <trkpt lat="42.797525022178888" lon="-1.675815023481846">
        <ele>417.82999999999998</ele>
        <time>2025-04-27T12:02:59Z</time>
      </trkpt>
      <trkpt lat="42.796968966722488" lon="-1.676623038947582">
        <ele>415.91000000000003</ele>
        <time>2025-04-27T12:03:06Z</time>
      </trkpt>
      <trkpt lat="42.796883974224329" lon="-1.676725968718529">
        <ele>415.43000000000001</ele>
        <time>2025-04-27T12:03:07Z</time>
      </trkpt>
      <trkpt lat="42.796796970069408" lon="-1.676830993965268">
        <ele>415.43000000000001</ele>
        <time>2025-04-27T12:03:08Z</time>
      </trkpt>
      <trkpt lat="42.796081993728876" lon="-1.678056009113789">
        <ele>418.31</ele>
        <time>2025-04-27T12:03:18Z</time>
      </trkpt>
      <trkpt lat="42.795794997364283" lon="-1.678935019299388">
        <ele>419.26999999999998</ele>
        <time>2025-04-27T12:03:24Z</time>
      </trkpt>
      <trkpt lat="42.795625012367964" lon="-1.678948011249304">
        <ele>419.75</ele>
        <time>2025-04-27T12:03:25Z</time>
      </trkpt>
      <trkpt lat="42.795562986284494" lon="-1.679072985425592">
        <ele>420.23000000000002</ele>
        <time>2025-04-27T12:03:26Z</time>
      </trkpt>
      <trkpt lat="42.795498026534915" lon="-1.679202988743782">
        <ele>420.70999999999998</ele>
        <time>2025-04-27T12:03:27Z</time>
      </trkpt>
      <trkpt lat="42.795432982966304" lon="-1.679336009547114">
        <ele>421.68000000000001</ele>
        <time>2025-04-27T12:03:28Z</time>
      </trkpt>
      <trkpt lat="42.794623961672187" lon="-1.680894959717989">
        <ele>428.88999999999999</ele>
        <time>2025-04-27T12:03:40Z</time>
      </trkpt>
      <trkpt lat="42.793605979532003" lon="-1.682797987014055">
        <ele>437.54000000000002</ele>
        <time>2025-04-27T12:03:55Z</time>
      </trkpt>
      <trkpt lat="42.793452003970742" lon="-1.683175005018711">
        <ele>437.54000000000002</ele>
        <time>2025-04-27T12:04:02Z</time>
      </trkpt>
      <trkpt lat="42.793442029505968" lon="-1.683197971433401">
        <ele>437.54000000000002</ele>
        <time>2025-04-27T12:04:14Z</time>
      </trkpt>
      <trkpt lat="42.793411016464233" lon="-1.683270977810025">
        <ele>438.01999999999998</ele>
        <time>2025-04-27T12:04:54Z</time>
      </trkpt>
      <trkpt lat="42.793370028957725" lon="-1.683364016935229">
        <ele>438.01999999999998</ele>
        <time>2025-04-27T12:04:55Z</time>
      </trkpt>
      <trkpt lat="42.793317977339029" lon="-1.683489996939898">
        <ele>438.01999999999998</ele>
        <time>2025-04-27T12:04:56Z</time>
      </trkpt>
      <trkpt lat="42.793271960690618" lon="-1.683616982772946">
        <ele>438.01999999999998</ele>
        <time>2025-04-27T12:04:57Z</time>
      </trkpt>
      <trkpt lat="42.793242959305644" lon="-1.683770036324859">
        <ele>438.01999999999998</ele>
        <time>2025-04-27T12:04:58Z</time>
      </trkpt>
      <trkpt lat="42.793162995949388" lon="-1.684062983840704">
        <ele>438.01999999999998</ele>
        <time>2025-04-27T12:05:00Z</time>
      </trkpt>
      <trkpt lat="42.793121002614498" lon="-1.684217965230346">
        <ele>438.01999999999998</ele>
        <time>2025-04-27T12:05:01Z</time>
      </trkpt>
      <trkpt lat="42.792734010145068" lon="-1.685912031680346">
        <ele>442.81999999999999</ele>
        <time>2025-04-27T12:05:12Z</time>
      </trkpt>
      <trkpt lat="42.792176026850939" lon="-1.688138013705611">
        <ele>451.95999999999998</ele>
        <time>2025-04-27T12:05:25Z</time>
      </trkpt>
      <trkpt lat="42.791501032188535" lon="-1.689781034365296">
        <ele>460.13</ele>
        <time>2025-04-27T12:05:36Z</time>
      </trkpt>
      <trkpt lat="42.790813967585564" lon="-1.691475016996265">
        <ele>465.42000000000002</ele>
        <time>2025-04-27T12:05:48Z</time>
      </trkpt>
      <trkpt lat="42.790283979848027" lon="-1.692880997434259">
        <ele>465.42000000000002</ele>
        <time>2025-04-27T12:05:58Z</time>
      </trkpt>
      <trkpt lat="42.79026797041297" lon="-1.69294604100287">
        <ele>464.93000000000001</ele>
        <time>2025-04-27T12:05:59Z</time>
      </trkpt>
      <trkpt lat="42.79026797041297" lon="-1.69294604100287">
        <ele>463.49000000000001</ele>
        <time>2025-04-27T12:06:00Z</time>
      </trkpt>
      <trkpt lat="42.790314992889762" lon="-1.693015024065971">
        <ele>462.52999999999997</ele>
        <time>2025-04-27T12:06:01Z</time>
      </trkpt>
      <trkpt lat="42.790363021194935" lon="-1.693086018785834">
        <ele>462.05000000000001</ele>
        <time>2025-04-27T12:06:02Z</time>
      </trkpt>
      <trkpt lat="42.790419012308121" lon="-1.693167993798852">
        <ele>462.05000000000001</ele>
        <time>2025-04-27T12:06:03Z</time>
      </trkpt>
      <trkpt lat="42.790476009249687" lon="-1.693252986297011">
        <ele>462.05000000000001</ele>
        <time>2025-04-27T12:06:04Z</time>
      </trkpt>
      <trkpt lat="42.790476009249687" lon="-1.693252986297011">
        <ele>462.05000000000001</ele>
        <time>2025-04-27T12:06:05Z</time>
      </trkpt>
      <trkpt lat="42.79074196703732" lon="-1.693612989038229">
        <ele>462.05000000000001</ele>
        <time>2025-04-27T12:06:09Z</time>
      </trkpt>
      <trkpt lat="42.790826037526131" lon="-1.693696975708008">
        <ele>462.52999999999997</ele>
        <time>2025-04-27T12:06:10Z</time>
      </trkpt>
      <trkpt lat="42.790899965912104" lon="-1.693696975708008">
        <ele>462.52999999999997</ele>
        <time>2025-04-27T12:06:11Z</time>
      </trkpt>
      <trkpt lat="42.791071040555835" lon="-1.6936369612813">
        <ele>463.00999999999999</ele>
        <time>2025-04-27T12:06:13Z</time>
      </trkpt>
      <trkpt lat="42.79110498726368" lon="-1.693653976544738">
        <ele>463.00999999999999</ele>
        <time>2025-04-27T12:06:14Z</time>
      </trkpt>
      <trkpt lat="42.79112602584064" lon="-1.693761013448238">
        <ele>463.00999999999999</ele>
        <time>2025-04-27T12:06:15Z</time>
      </trkpt>
      <trkpt lat="42.791140023618937" lon="-1.693861009553075">
        <ele>462.52999999999997</ele>
        <time>2025-04-27T12:06:16Z</time>
      </trkpt>
      <trkpt lat="42.791161984205246" lon="-1.693953964859247">
        <ele>462.52999999999997</ele>
        <time>2025-04-27T12:06:17Z</time>
      </trkpt>
      <trkpt lat="42.791428025811911" lon="-1.695073032751679">
        <ele>459.64999999999998</ele>
        <time>2025-04-27T12:06:26Z</time>
      </trkpt>
      <trkpt lat="42.791662970557809" lon="-1.696055978536606">
        <ele>459.17000000000002</ele>
        <time>2025-04-27T12:06:35Z</time>
      </trkpt>
      <trkpt lat="42.791687026619911" lon="-1.696194028481841">
        <ele>460.13</ele>
        <time>2025-04-27T12:06:37Z</time>
      </trkpt>
      <trkpt lat="42.791726002469659" lon="-1.696285977959633">
        <ele>460.61000000000001</ele>
        <time>2025-04-27T12:06:38Z</time>
      </trkpt>
      <trkpt lat="42.791770007461309" lon="-1.696268962696195">
        <ele>461.08999999999997</ele>
        <time>2025-04-27T12:06:39Z</time>
      </trkpt>
      <trkpt lat="42.791838990524411" lon="-1.696242978796363">
        <ele>461.56999999999999</ele>
        <time>2025-04-27T12:06:40Z</time>
      </trkpt>
      <trkpt lat="42.791928006336093" lon="-1.696210037916899">
        <ele>462.05000000000001</ele>
        <time>2025-04-27T12:06:41Z</time>
      </trkpt>
      <trkpt lat="42.792743984609842" lon="-1.695928992703557">
        <ele>465.42000000000002</ele>
        <time>2025-04-27T12:06:50Z</time>
      </trkpt>
      <trkpt lat="42.792821014299989" lon="-1.695907032117248">
        <ele>465.42000000000002</ele>
        <time>2025-04-27T12:06:51Z</time>
      </trkpt>
      <trkpt lat="42.792877005413175" lon="-1.69589102268219">
        <ele>464.93000000000001</ele>
        <time>2025-04-27T12:06:52Z</time>
      </trkpt>
      <trkpt lat="42.792921010404825" lon="-1.695879036560655">
        <ele>464.44999999999999</ele>
        <time>2025-04-27T12:06:53Z</time>
      </trkpt>
      <trkpt lat="42.792921010404825" lon="-1.695879036560655">
        <ele>463.97000000000003</ele>
        <time>2025-04-27T12:06:54Z</time>
      </trkpt>
      <trkpt lat="42.792970966547728" lon="-1.695865038782358">
        <ele>463.97000000000003</ele>
        <time>2025-04-27T12:07:01Z</time>
      </trkpt>
      <trkpt lat="42.792969960719347" lon="-1.695885993540287">
        <ele>463.49000000000001</ele>
        <time>2025-04-27T12:07:02Z</time>
      </trkpt>
      <trkpt lat="42.792964009568095" lon="-1.695966040715575">
        <ele>463.49000000000001</ele>
        <time>2025-04-27T12:07:03Z</time>
      </trkpt>
      <trkpt lat="42.792899971827865" lon="-1.696934988722205">
        <ele>462.05000000000001</ele>
        <time>2025-04-27T12:07:15Z</time>
      </trkpt>
      <trkpt lat="42.792874993756413" lon="-1.69722500257194">
        <ele>461.08999999999997</ele>
        <time>2025-04-27T12:07:23Z</time>
      </trkpt>
      <trkpt lat="42.792864013463259" lon="-1.697302032262087">
        <ele>461.08999999999997</ele>
        <time>2025-04-27T12:07:30Z</time>
      </trkpt>
      <trkpt lat="42.792858984321356" lon="-1.697383001446724">
        <ele>461.08999999999997</ele>
        <time>2025-04-27T12:07:31Z</time>
      </trkpt>
      <trkpt lat="42.792830988764763" lon="-1.698060007765889">
        <ele>459.64999999999998</ele>
        <time>2025-04-27T12:07:38Z</time>
      </trkpt>
      <trkpt lat="42.792922016233206" lon="-1.698417998850346">
        <ele>459.17000000000002</ele>
        <time>2025-04-27T12:07:41Z</time>
      </trkpt>
      <trkpt lat="42.792907012626529" lon="-1.698503997176886">
        <ele>459.17000000000002</ele>
        <time>2025-04-27T12:07:42Z</time>
      </trkpt>
      <trkpt lat="42.792785977944732" lon="-1.698773978278041">
        <ele>458.69</ele>
        <time>2025-04-27T12:07:44Z</time>
      </trkpt>
      <trkpt lat="42.792779020965099" lon="-1.698889983817935">
        <ele>458.69</ele>
        <time>2025-04-27T12:07:45Z</time>
      </trkpt>
      <trkpt lat="42.792723029851913" lon="-1.699601020663977">
        <ele>458.69</ele>
        <time>2025-04-27T12:07:53Z</time>
      </trkpt>
      <trkpt lat="42.792668966576457" lon="-1.700557982549071">
        <ele>456.75999999999999</ele>
        <time>2025-04-27T12:08:04Z</time>
      </trkpt>
      <trkpt lat="42.792614987120032" lon="-1.701410003006458">
        <ele>456.75999999999999</ele>
        <time>2025-04-27T12:08:14Z</time>
      </trkpt>
      <trkpt lat="42.792576011270285" lon="-1.701846029609442">
        <ele>457.72000000000003</ele>
        <time>2025-04-27T12:08:19Z</time>
      </trkpt>
      <trkpt lat="42.792570982128382" lon="-1.701939990743995">
        <ele>457.72000000000003</ele>
        <time>2025-04-27T12:08:20Z</time>
      </trkpt>
      <trkpt lat="42.792566036805511" lon="-1.702033029869199">
        <ele>457.72000000000003</ele>
        <time>2025-04-27T12:08:21Z</time>
      </trkpt>
      <trkpt lat="42.792670978233218" lon="-1.702135037630796">
        <ele>457.72000000000003</ele>
        <time>2025-04-27T12:08:22Z</time>
      </trkpt>
      <trkpt lat="42.792670978233218" lon="-1.702232016250491">
        <ele>457.72000000000003</ele>
        <time>2025-04-27T12:08:23Z</time>
      </trkpt>
      <trkpt lat="42.792655974626541" lon="-1.702333018183708">
        <ele>458.20999999999998</ele>
        <time>2025-04-27T12:08:24Z</time>
      </trkpt>
      <trkpt lat="42.792650023475289" lon="-1.702365959063172">
        <ele>458.20999999999998</ele>
        <time>2025-04-27T12:08:25Z</time>
      </trkpt>
      <trkpt lat="42.792552039027214" lon="-1.70250803232193">
        <ele>458.69</ele>
        <time>2025-04-27T12:08:26Z</time>
      </trkpt>
      <trkpt lat="42.792538041248918" lon="-1.70261699706316">
        <ele>458.69</ele>
        <time>2025-04-27T12:08:27Z</time>
      </trkpt>
      <trkpt lat="42.792523037642241" lon="-1.702733002603054">
        <ele>458.69</ele>
        <time>2025-04-27T12:08:28Z</time>
      </trkpt>
      <trkpt lat="42.792515996843576" lon="-1.702857976779342">
        <ele>459.17000000000002</ele>
        <time>2025-04-27T12:08:29Z</time>
      </trkpt>
      <trkpt lat="42.792410971596837" lon="-1.704547014087439">
        <ele>461.08999999999997</ele>
        <time>2025-04-27T12:08:42Z</time>
      </trkpt>
      <trkpt lat="42.792349029332399" lon="-1.705693993717432">
        <ele>462.52999999999997</ele>
        <time>2025-04-27T12:08:51Z</time>
      </trkpt>
      <trkpt lat="42.792349029332399" lon="-1.7058199737221">
        <ele>463.00999999999999</ele>
        <time>2025-04-27T12:08:52Z</time>
      </trkpt>
      <trkpt lat="42.792478026822209" lon="-1.70594897121191">
        <ele>463.00999999999999</ele>
        <time>2025-04-27T12:08:53Z</time>
      </trkpt>
      <trkpt lat="42.792494036257267" lon="-1.70607796870172">
        <ele>463.49000000000001</ele>
        <time>2025-04-27T12:08:54Z</time>
      </trkpt>
      <trkpt lat="42.792456988245249" lon="-1.706219958141446">
        <ele>463.97000000000003</ele>
        <time>2025-04-27T12:08:55Z</time>
      </trkpt>
      <trkpt lat="42.792435027658939" lon="-1.706271003931761">
        <ele>463.97000000000003</ele>
        <time>2025-04-27T12:08:56Z</time>
      </trkpt>
      <trkpt lat="42.792295971885324" lon="-1.706445012241602">
        <ele>463.49000000000001</ele>
        <time>2025-04-27T12:08:57Z</time>
      </trkpt>
      <trkpt lat="42.792281974107027" lon="-1.70659102499485">
        <ele>463.49000000000001</ele>
        <time>2025-04-27T12:08:58Z</time>
      </trkpt>
      <trkpt lat="42.792268982157111" lon="-1.706746006384492">
        <ele>463.49000000000001</ele>
        <time>2025-04-27T12:08:59Z</time>
      </trkpt>
      <trkpt lat="42.792254984378815" lon="-1.70691498555243">
        <ele>463.49000000000001</ele>
        <time>2025-04-27T12:09:00Z</time>
      </trkpt>
      <trkpt lat="42.792241992428899" lon="-1.707089999690652">
        <ele>463.49000000000001</ele>
        <time>2025-04-27T12:09:01Z</time>
      </trkpt>
      <trkpt lat="42.792120035737753" lon="-1.709241969510913">
        <ele>462.05000000000001</ele>
        <time>2025-04-27T12:09:12Z</time>
      </trkpt>
      <trkpt lat="42.791942004114389" lon="-1.711943037807941">
        <ele>461.08999999999997</ele>
        <time>2025-04-27T12:09:25Z</time>
      </trkpt>
      <trkpt lat="42.791809989139438" lon="-1.713384976610541">
        <ele>459.64999999999998</ele>
        <time>2025-04-27T12:09:33Z</time>
      </trkpt>
      <trkpt lat="42.791393995285034" lon="-1.714612003415823">
        <ele>456.27999999999997</ele>
        <time>2025-04-27T12:09:40Z</time>
      </trkpt>
      <trkpt lat="42.791307996958494" lon="-1.714771008118987">
        <ele>455.80000000000001</ele>
        <time>2025-04-27T12:09:41Z</time>
      </trkpt>
      <trkpt lat="42.790426975116134" lon="-1.715984959155321">
        <ele>449.55000000000001</ele>
        <time>2025-04-27T12:09:50Z</time>
      </trkpt>
      <trkpt lat="42.790279034525156" lon="-1.716315038502216">
        <ele>447.63</ele>
        <time>2025-04-27T12:09:52Z</time>
      </trkpt>
      <trkpt lat="42.790234023705125" lon="-1.716500027105212">
        <ele>446.67000000000002</ele>
        <time>2025-04-27T12:09:53Z</time>
      </trkpt>
      <trkpt lat="42.790189012885094" lon="-1.71668903902173">
        <ele>445.23000000000002</ele>
        <time>2025-04-27T12:09:54Z</time>
      </trkpt>
      <trkpt lat="42.79013897292316" lon="-1.716892970725894">
        <ele>444.26999999999998</ele>
        <time>2025-04-27T12:09:55Z</time>
      </trkpt>
      <trkpt lat="42.79013897292316" lon="-1.71707896515727">
        <ele>443.31</ele>
        <time>2025-04-27T12:09:56Z</time>
      </trkpt>
      <trkpt lat="42.79013897292316" lon="-1.717281974852085">
        <ele>441.86000000000001</ele>
        <time>2025-04-27T12:09:57Z</time>
      </trkpt>
      <trkpt lat="42.790170991793275" lon="-1.717480961233378">
        <ele>440.89999999999998</ele>
        <time>2025-04-27T12:09:58Z</time>
      </trkpt>
      <trkpt lat="42.790204016491771" lon="-1.717665027827025">
        <ele>439.94</ele>
        <time>2025-04-27T12:09:59Z</time>
      </trkpt>
      <trkpt lat="42.790272999554873" lon="-1.717855967581272">
        <ele>438.98000000000002</ele>
        <time>2025-04-27T12:10:00Z</time>
      </trkpt>
      <trkpt lat="42.790339970961213" lon="-1.718040034174919">
        <ele>438.01999999999998</ele>
        <time>2025-04-27T12:10:01Z</time>
      </trkpt>
      <trkpt lat="42.790408032014966" lon="-1.718224016949534">
        <ele>436.57999999999998</ele>
        <time>2025-04-27T12:10:02Z</time>
      </trkpt>
      <trkpt lat="42.790972972288728" lon="-1.720091002061963">
        <ele>426.95999999999998</ele>
        <time>2025-04-27T12:10:12Z</time>
      </trkpt>
      <trkpt lat="42.791195008903742" lon="-1.721722958609462">
        <ele>424.56</ele>
        <time>2025-04-27T12:10:22Z</time>
      </trkpt>
      <trkpt lat="42.791273966431618" lon="-1.722657959908247">
        <ele>426.48000000000002</ele>
        <time>2025-04-27T12:10:31Z</time>
      </trkpt>
      <trkpt lat="42.791226021945477" lon="-1.723431022837758">
        <ele>426</ele>
        <time>2025-04-27T12:10:39Z</time>
      </trkpt>
      <trkpt lat="42.791208000853658" lon="-1.72356597147882">
        <ele>426</ele>
        <time>2025-04-27T12:10:40Z</time>
      </trkpt>
      <trkpt lat="42.790735010057688" lon="-1.724780006334186">
        <ele>423.12</ele>
        <time>2025-04-27T12:10:48Z</time>
      </trkpt>
      <trkpt lat="42.789738988503814" lon="-1.72713004052639">
        <ele>417.82999999999998</ele>
        <time>2025-04-27T12:11:01Z</time>
      </trkpt>
      <trkpt lat="42.789292987436056" lon="-1.729212021455169">
        <ele>415.91000000000003</ele>
        <time>2025-04-27T12:11:10Z</time>
      </trkpt>
      <trkpt lat="42.788788983598351" lon="-1.733053028583527">
        <ele>416.87</ele>
        <time>2025-04-27T12:11:26Z</time>
      </trkpt>
      <trkpt lat="42.788257990032434" lon="-1.736117033287883">
        <ele>419.75</ele>
        <time>2025-04-27T12:11:39Z</time>
      </trkpt>
      <trkpt lat="42.787356013432145" lon="-1.738335974514484">
        <ele>419.75</ele>
        <time>2025-04-27T12:11:49Z</time>
      </trkpt>
      <trkpt lat="42.786713959649205" lon="-1.74015099182725">
        <ele>425.51999999999998</ele>
        <time>2025-04-27T12:11:58Z</time>
      </trkpt>
      <trkpt lat="42.786346999928355" lon="-1.741380030289292">
        <ele>432.25</ele>
        <time>2025-04-27T12:12:07Z</time>
      </trkpt>
      <trkpt lat="42.786326967179775" lon="-1.741696028038859">
        <ele>434.64999999999998</ele>
        <time>2025-04-27T12:12:11Z</time>
      </trkpt>
      <trkpt lat="42.786234011873603" lon="-1.741784038022161">
        <ele>435.13</ele>
        <time>2025-04-27T12:12:12Z</time>
      </trkpt>
      <trkpt lat="42.786213979125023" lon="-1.741859978064895">
        <ele>435.61000000000001</ele>
        <time>2025-04-27T12:12:13Z</time>
      </trkpt>
      <trkpt lat="42.786184977740049" lon="-1.741971038281918">
        <ele>436.10000000000002</ele>
        <time>2025-04-27T12:12:14Z</time>
      </trkpt>
      <trkpt lat="42.786152958869934" lon="-1.742094000801444">
        <ele>436.10000000000002</ele>
        <time>2025-04-27T12:12:15Z</time>
      </trkpt>
      <trkpt lat="42.786119012162089" lon="-1.742224004119635">
        <ele>436.57999999999998</ele>
        <time>2025-04-27T12:12:16Z</time>
      </trkpt>
      <trkpt lat="42.785887001082301" lon="-1.743064960464835">
        <ele>436.10000000000002</ele>
        <time>2025-04-27T12:12:23Z</time>
      </trkpt>
      <trkpt lat="42.785453991964459" lon="-1.744574960321188">
        <ele>431.29000000000002</ele>
        <time>2025-04-27T12:12:37Z</time>
      </trkpt>
      <trkpt lat="42.785418033599854" lon="-1.74466498196125">
        <ele>431.29000000000002</ele>
        <time>2025-04-27T12:12:38Z</time>
      </trkpt>
      <trkpt lat="42.785381991416216" lon="-1.744745029136539">
        <ele>431.76999999999998</ele>
        <time>2025-04-27T12:12:39Z</time>
      </trkpt>
      <trkpt lat="42.785108992829919" lon="-1.745178960263729">
        <ele>434.64999999999998</ele>
        <time>2025-04-27T12:12:45Z</time>
      </trkpt>
      <trkpt lat="42.785030035302043" lon="-1.745239980518818">
        <ele>435.13</ele>
        <time>2025-04-27T12:12:46Z</time>
      </trkpt>
      <trkpt lat="42.784944036975503" lon="-1.745297983288765">
        <ele>435.13</ele>
        <time>2025-04-27T12:12:47Z</time>
      </trkpt>
      <trkpt lat="42.784093022346497" lon="-1.745854038745165">
        <ele>431.29000000000002</ele>
        <time>2025-04-27T12:12:56Z</time>
      </trkpt>
      <trkpt lat="42.784010963514447" lon="-1.745957974344492">
        <ele>430.81</ele>
        <time>2025-04-27T12:12:57Z</time>
      </trkpt>
      <trkpt lat="42.783915996551514" lon="-1.746074985712767">
        <ele>430.32999999999998</ele>
        <time>2025-04-27T12:12:58Z</time>
      </trkpt>
      <trkpt lat="42.783230021595955" lon="-1.747495969757438">
        <ele>424.56</ele>
        <time>2025-04-27T12:13:07Z</time>
      </trkpt>
      <trkpt lat="42.782907988876104" lon="-1.748477993533015">
        <ele>420.70999999999998</ele>
        <time>2025-04-27T12:13:12Z</time>
      </trkpt>
      <trkpt lat="42.782603977248073" lon="-1.750537008047104">
        <ele>418.79000000000002</ele>
        <time>2025-04-27T12:13:22Z</time>
      </trkpt>
      <trkpt lat="42.782366015017033" lon="-1.751672001555562">
        <ele>424.07999999999998</ele>
        <time>2025-04-27T12:13:27Z</time>
      </trkpt>
      <trkpt lat="42.782285967841744" lon="-1.751911975443363">
        <ele>425.51999999999998</ele>
        <time>2025-04-27T12:13:28Z</time>
      </trkpt>
      <trkpt lat="42.782182032242417" lon="-1.752130994573236">
        <ele>426.48000000000002</ele>
        <time>2025-04-27T12:13:29Z</time>
      </trkpt>
      <trkpt lat="42.78139497153461" lon="-1.754079032689333">
        <ele>426</ele>
        <time>2025-04-27T12:13:37Z</time>
      </trkpt>
      <trkpt lat="42.780918041244149" lon="-1.756706004962325">
        <ele>428.39999999999998</ele>
        <time>2025-04-27T12:13:47Z</time>
      </trkpt>
      <trkpt lat="42.780658034607768" lon="-1.757932025939226">
        <ele>428.88999999999999</ele>
        <time>2025-04-27T12:13:52Z</time>
      </trkpt>
      <trkpt lat="42.780574969947338" lon="-1.758169988170266">
        <ele>428.88999999999999</ele>
        <time>2025-04-27T12:13:53Z</time>
      </trkpt>
      <trkpt lat="42.780471034348011" lon="-1.758404010906816">
        <ele>428.39999999999998</ele>
        <time>2025-04-27T12:13:54Z</time>
      </trkpt>
      <trkpt lat="42.779461015015841" lon="-1.760666035115719">
        <ele>420.23000000000002</ele>
        <time>2025-04-27T12:14:04Z</time>
      </trkpt>
      <trkpt lat="42.778672026470304" lon="-1.762526985257864">
        <ele>411.10000000000002</ele>
        <time>2025-04-27T12:14:13Z</time>
      </trkpt>
      <trkpt lat="42.778396010398865" lon="-1.763264006003737">
        <ele>407.74000000000001</ele>
        <time>2025-04-27T12:14:17Z</time>
      </trkpt>
      <trkpt lat="42.778350999578834" lon="-1.763465004041791">
        <ele>406.76999999999998</ele>
        <time>2025-04-27T12:14:18Z</time>
      </trkpt>
      <trkpt lat="42.778318980708718" lon="-1.763676982372999">
        <ele>405.81</ele>
        <time>2025-04-27T12:14:19Z</time>
      </trkpt>
      <trkpt lat="42.778297020122409" lon="-1.763888038694859">
        <ele>405.32999999999998</ele>
        <time>2025-04-27T12:14:20Z</time>
      </trkpt>
      <trkpt lat="42.778309006243944" lon="-1.764110997319222">
        <ele>404.85000000000002</ele>
        <time>2025-04-27T12:14:21Z</time>
      </trkpt>
      <trkpt lat="42.778335995972157" lon="-1.764326998963952">
        <ele>404.37</ele>
        <time>2025-04-27T12:14:22Z</time>
      </trkpt>
      <trkpt lat="42.778392992913723" lon="-1.764547023922205">
        <ele>404.37</ele>
        <time>2025-04-27T12:14:23Z</time>
      </trkpt>
      <trkpt lat="42.77845099568367" lon="-1.764771994203329">
        <ele>403.88999999999999</ele>
        <time>2025-04-27T12:14:24Z</time>
      </trkpt>
      <trkpt lat="42.778543028980494" lon="-1.764973998069763">
        <ele>403.41000000000003</ele>
        <time>2025-04-27T12:14:25Z</time>
      </trkpt>
      <trkpt lat="42.778648976236582" lon="-1.765173990279436">
        <ele>403.41000000000003</ele>
        <time>2025-04-27T12:14:26Z</time>
      </trkpt>
      <trkpt lat="42.778757018968463" lon="-1.765369959175587">
        <ele>402.93000000000001</ele>
        <time>2025-04-27T12:14:27Z</time>
      </trkpt>
      <trkpt lat="42.779580960050225" lon="-1.767031000927091">
        <ele>402.93000000000001</ele>
        <time>2025-04-27T12:14:36Z</time>
      </trkpt>
      <trkpt lat="42.780586034059525" lon="-1.769511960446835">
        <ele>400.05000000000001</ele>
        <time>2025-04-27T12:14:49Z</time>
      </trkpt>
      <trkpt lat="42.781510977074504" lon="-1.771461004391313">
        <ele>397.16000000000003</ele>
        <time>2025-04-27T12:15:00Z</time>
      </trkpt>
      <trkpt lat="42.781714992597699" lon="-1.772108003497124">
        <ele>396.68000000000001</ele>
        <time>2025-04-27T12:15:04Z</time>
      </trkpt>
      <trkpt lat="42.781811971217394" lon="-1.772237000986934">
        <ele>396.68000000000001</ele>
        <time>2025-04-27T12:15:05Z</time>
      </trkpt>
      <trkpt lat="42.78298401273787" lon="-1.774036008864641">
        <ele>395.24000000000001</ele>
        <time>2025-04-27T12:15:16Z</time>
      </trkpt>
      <trkpt lat="42.784483032301068" lon="-1.777207972481847">
        <ele>391.38999999999999</ele>
        <time>2025-04-27T12:15:33Z</time>
      </trkpt>
      <trkpt lat="42.785590030252934" lon="-1.779655991122127">
        <ele>389.47000000000003</ele>
        <time>2025-04-27T12:15:48Z</time>
      </trkpt>
      <trkpt lat="42.785729002207518" lon="-1.780180027708411">
        <ele>388.99000000000001</ele>
        <time>2025-04-27T12:15:52Z</time>
      </trkpt>
      <trkpt lat="42.785852970555425" lon="-1.780632985755801">
        <ele>388.99000000000001</ele>
        <time>2025-04-27T12:15:58Z</time>
      </trkpt>
      <trkpt lat="42.785871997475624" lon="-1.780701968818903">
        <ele>388.99000000000001</ele>
        <time>2025-04-27T12:15:59Z</time>
      </trkpt>
      <trkpt lat="42.785894041880965" lon="-1.78078000433743">
        <ele>388.99000000000001</ele>
        <time>2025-04-27T12:16:00Z</time>
      </trkpt>
      <trkpt lat="42.785995965823531" lon="-1.78114403039217">
        <ele>388.99000000000001</ele>
        <time>2025-04-27T12:16:04Z</time>
      </trkpt>
      <trkpt lat="42.786021027714014" lon="-1.781233968213201">
        <ele>388.99000000000001</ele>
        <time>2025-04-27T12:16:05Z</time>
      </trkpt>
      <trkpt lat="42.786041982471943" lon="-1.781307980418205">
        <ele>388.50999999999999</ele>
        <time>2025-04-27T12:16:06Z</time>
      </trkpt>
      <trkpt lat="42.786176009103656" lon="-1.781819025054574">
        <ele>386.58999999999997</ele>
        <time>2025-04-27T12:16:12Z</time>
      </trkpt>
      <trkpt lat="42.786196963861585" lon="-1.781909968703985">
        <ele>386.11000000000001</ele>
        <time>2025-04-27T12:16:13Z</time>
      </trkpt>
      <trkpt lat="42.786218002438545" lon="-1.781996972858906">
        <ele>386.11000000000001</ele>
        <time>2025-04-27T12:16:14Z</time>
      </trkpt>
      <trkpt lat="42.786239963024855" lon="-1.782092023640871">
        <ele>385.63</ele>
        <time>2025-04-27T12:16:15Z</time>
      </trkpt>
      <trkpt lat="42.786262007430196" lon="-1.782182967290282">
        <ele>385.63</ele>
        <time>2025-04-27T12:16:16Z</time>
      </trkpt>
      <trkpt lat="42.786282962188125" lon="-1.782273994758725">
        <ele>385.63</ele>
        <time>2025-04-27T12:16:17Z</time>
      </trkpt>
      <trkpt lat="42.786330990493298" lon="-1.78288696333766">
        <ele>384.66000000000003</ele>
        <time>2025-04-27T12:16:22Z</time>
      </trkpt>
      <trkpt lat="42.786339959129691" lon="-1.783020989969373">
        <ele>384.18000000000001</ele>
        <time>2025-04-27T12:16:23Z</time>
      </trkpt>
      <trkpt lat="42.786348005756736" lon="-1.783418962731957">
        <ele>383.69999999999999</ele>
        <time>2025-04-27T12:16:26Z</time>
      </trkpt>
      <trkpt lat="42.786350017413497" lon="-1.783523987978697">
        <ele>383.22000000000003</ele>
        <time>2025-04-27T12:16:27Z</time>
      </trkpt>
      <trkpt lat="42.786352029070258" lon="-1.783601017668843">
        <ele>382.74000000000001</ele>
        <time>2025-04-27T12:16:28Z</time>
      </trkpt>
      <trkpt lat="42.786353034898639" lon="-1.783656002953649">
        <ele>382.74000000000001</ele>
        <time>2025-04-27T12:16:29Z</time>
      </trkpt>
      <trkpt lat="42.786353034898639" lon="-1.783686010167003">
        <ele>382.25999999999999</ele>
        <time>2025-04-27T12:16:30Z</time>
      </trkpt>
      <trkpt lat="42.786353034898639" lon="-1.783686010167003">
        <ele>381.30000000000001</ele>
        <time>2025-04-27T12:16:42Z</time>
      </trkpt>
      <trkpt lat="42.786353034898639" lon="-1.783686010167003">
        <ele>380.81999999999999</ele>
        <time>2025-04-27T12:17:40Z</time>
      </trkpt>
      <trkpt lat="42.786362003535032" lon="-1.784152965992689">
        <ele>380.81999999999999</ele>
        <time>2025-04-27T12:17:46Z</time>
      </trkpt>
      <trkpt lat="42.786391004920006" lon="-1.784386988729239">
        <ele>380.81999999999999</ele>
        <time>2025-04-27T12:17:48Z</time>
      </trkpt>
      <trkpt lat="42.786402991041541" lon="-1.784485979005694">
        <ele>380.81999999999999</ele>
        <time>2025-04-27T12:17:49Z</time>
      </trkpt>
      <trkpt lat="42.786489995196462" lon="-1.784566026180983">
        <ele>380.81999999999999</ele>
        <time>2025-04-27T12:17:50Z</time>
      </trkpt>
      <trkpt lat="42.786569958552718" lon="-1.78462402895093">
        <ele>381.30000000000001</ele>
        <time>2025-04-27T12:17:51Z</time>
      </trkpt>
      <trkpt lat="42.7866589743644" lon="-1.784688988700509">
        <ele>381.30000000000001</ele>
        <time>2025-04-27T12:17:52Z</time>
      </trkpt>
      <trkpt lat="42.786757964640856" lon="-1.784759983420372">
        <ele>381.77999999999997</ele>
        <time>2025-04-27T12:17:53Z</time>
      </trkpt>
      <trkpt lat="42.787835961207747" lon="-1.785349985584617">
        <ele>383.22000000000003</ele>
        <time>2025-04-27T12:18:03Z</time>
      </trkpt>
      <trkpt lat="42.788493018597364" lon="-1.785705965012312">
        <ele>384.18000000000001</ele>
        <time>2025-04-27T12:18:14Z</time>
      </trkpt>
      <trkpt lat="42.789101963862777" lon="-1.786035038530827">
        <ele>384.18000000000001</ele>
        <time>2025-04-27T12:18:19Z</time>
      </trkpt>
      <trkpt lat="42.790763005614281" lon="-1.786983031779528">
        <ele>380.81999999999999</ele>
        <time>2025-04-27T12:18:31Z</time>
      </trkpt>
      <trkpt lat="42.791289975866675" lon="-1.78729098290205">
        <ele>381.30000000000001</ele>
        <time>2025-04-27T12:18:38Z</time>
      </trkpt>
      <trkpt lat="42.791617959737778" lon="-1.787431966513395">
        <ele>382.25999999999999</ele>
        <time>2025-04-27T12:18:46Z</time>
      </trkpt>
      <trkpt lat="42.791660036891699" lon="-1.787450993433595">
        <ele>382.25999999999999</ele>
        <time>2025-04-27T12:18:47Z</time>
      </trkpt>
      <trkpt lat="42.791795991361141" lon="-1.787508996203542">
        <ele>382.25999999999999</ele>
        <time>2025-04-27T12:18:50Z</time>
      </trkpt>
      <trkpt lat="42.791999001055956" lon="-1.787606980651617">
        <ele>381.77999999999997</ele>
        <time>2025-04-27T12:18:55Z</time>
      </trkpt>
      <trkpt lat="42.792434021830559" lon="-1.787857012823224">
        <ele>381.30000000000001</ele>
        <time>2025-04-27T12:19:04Z</time>
      </trkpt>
      <trkpt lat="42.792523959651589" lon="-1.787927001714706">
        <ele>381.77999999999997</ele>
        <time>2025-04-27T12:19:07Z</time>
      </trkpt>
      <trkpt lat="42.792566958814859" lon="-1.787980981171131">
        <ele>381.77999999999997</ele>
        <time>2025-04-27T12:19:08Z</time>
      </trkpt>
      <trkpt lat="42.792611969634891" lon="-1.788036972284317">
        <ele>382.25999999999999</ele>
        <time>2025-04-27T12:19:09Z</time>
      </trkpt>
      <trkpt lat="42.792670978233218" lon="-1.788110984489322">
        <ele>382.25999999999999</ele>
        <time>2025-04-27T12:19:10Z</time>
      </trkpt>
      <trkpt lat="42.792682964354753" lon="-1.788160018622875">
        <ele>382.74000000000001</ele>
        <time>2025-04-27T12:19:11Z</time>
      </trkpt>
      <trkpt lat="42.792720012366772" lon="-1.78832002915442">
        <ele>383.22000000000003</ele>
        <time>2025-04-27T12:19:13Z</time>
      </trkpt>
      <trkpt lat="42.792736021801829" lon="-1.788390018045902">
        <ele>383.69999999999999</ele>
        <time>2025-04-27T12:19:14Z</time>
      </trkpt>
      <trkpt lat="42.792803999036551" lon="-1.789231980219483">
        <ele>387.55000000000001</ele>
        <time>2025-04-27T12:19:24Z</time>
      </trkpt>
      <trkpt lat="42.792821014299989" lon="-1.789577985182405">
        <ele>390.43000000000001</ele>
        <time>2025-04-27T12:19:28Z</time>
      </trkpt>
      <trkpt lat="42.792816990986466" lon="-1.789656020700932">
        <ele>390.91000000000003</ele>
        <time>2025-04-27T12:19:29Z</time>
      </trkpt>
      <trkpt lat="42.792810034006834" lon="-1.789736989885569">
        <ele>391.87</ele>
        <time>2025-04-27T12:19:30Z</time>
      </trkpt>
      <trkpt lat="42.792749013751745" lon="-1.790290027856827">
        <ele>398.12</ele>
        <time>2025-04-27T12:19:36Z</time>
      </trkpt>
      <trkpt lat="42.792678019031882" lon="-1.791216982528567">
        <ele>408.22000000000003</ele>
        <time>2025-04-27T12:19:47Z</time>
      </trkpt>
      <trkpt lat="42.792672989889979" lon="-1.791293006390333">
        <ele>408.69999999999999</ele>
        <time>2025-04-27T12:19:48Z</time>
      </trkpt>
      <trkpt lat="42.792684976011515" lon="-1.79137104190886">
        <ele>408.69999999999999</ele>
        <time>2025-04-27T12:19:49Z</time>
      </trkpt>
      <trkpt lat="42.792693022638559" lon="-1.79139400832355">
        <ele>409.18000000000001</ele>
        <time>2025-04-27T12:19:50Z</time>
      </trkpt>
      <trkpt lat="42.792750019580126" lon="-1.791441030800343">
        <ele>409.18000000000001</ele>
        <time>2025-04-27T12:19:51Z</time>
      </trkpt>
      <trkpt lat="42.792786983773112" lon="-1.791472965851426">
        <ele>409.66000000000003</ele>
        <time>2025-04-27T12:19:52Z</time>
      </trkpt>
      <trkpt lat="42.792811039835215" lon="-1.791553013026714">
        <ele>410.13999999999999</ele>
        <time>2025-04-27T12:19:53Z</time>
      </trkpt>
      <trkpt lat="42.792798969894648" lon="-1.791612021625042">
        <ele>410.62</ele>
        <time>2025-04-27T12:19:54Z</time>
      </trkpt>
      <trkpt lat="42.792785977944732" lon="-1.791679998859763">
        <ele>411.10000000000002</ele>
        <time>2025-04-27T12:19:55Z</time>
      </trkpt>
      <trkpt lat="42.792770974338055" lon="-1.791754011064768">
        <ele>411.57999999999998</ele>
        <time>2025-04-27T12:19:56Z</time>
      </trkpt>
      <trkpt lat="42.792754964902997" lon="-1.791834980249405">
        <ele>412.06</ele>
        <time>2025-04-27T12:19:57Z</time>
      </trkpt>
      <trkpt lat="42.792739039286971" lon="-1.791913015767932">
        <ele>412.54000000000002</ele>
        <time>2025-04-27T12:19:58Z</time>
      </trkpt>
      <trkpt lat="42.792736021801829" lon="-1.79193003103137">
        <ele>413.5</ele>
        <time>2025-04-27T12:19:59Z</time>
      </trkpt>
      <trkpt lat="42.792710037901998" lon="-1.792032960802317">
        <ele>413.5</ele>
        <time>2025-04-27T12:20:00Z</time>
      </trkpt>
      <trkpt lat="42.792672989889979" lon="-1.792180985212326">
        <ele>415.43000000000001</ele>
        <time>2025-04-27T12:20:03Z</time>
      </trkpt>
      <trkpt lat="42.792742978781462" lon="-1.792206969112158">
        <ele>415.43000000000001</ele>
        <time>2025-04-27T12:20:04Z</time>
      </trkpt>
      <trkpt lat="42.792797964066267" lon="-1.792220966890454">
        <ele>415.91000000000003</ele>
        <time>2025-04-27T12:20:05Z</time>
      </trkpt>
      <trkpt lat="42.792853033170104" lon="-1.792235970497131">
        <ele>416.38999999999999</ele>
        <time>2025-04-27T12:20:06Z</time>
      </trkpt>
      <trkpt lat="42.792911035940051" lon="-1.792250974103808">
        <ele>416.38999999999999</ele>
        <time>2025-04-27T12:20:07Z</time>
      </trkpt>
      <trkpt lat="42.793157966807485" lon="-1.79240201599896">
        <ele>417.82999999999998</ele>
        <time>2025-04-27T12:20:12Z</time>
      </trkpt>
      <trkpt lat="42.793204989284277" lon="-1.792439986020327">
        <ele>417.82999999999998</ele>
        <time>2025-04-27T12:20:13Z</time>
      </trkpt>
      <trkpt lat="42.793366005644202" lon="-1.792565966024995">
        <ele>418.31</ele>
        <time>2025-04-27T12:20:16Z</time>
      </trkpt>
      <trkpt lat="42.793415961787105" lon="-1.792604019865394">
        <ele>418.79000000000002</ele>
        <time>2025-04-27T12:20:17Z</time>
      </trkpt>
      <trkpt lat="42.793487040325999" lon="-1.79266001097858">
        <ele>418.79000000000002</ele>
        <time>2025-04-27T12:20:18Z</time>
      </trkpt>
      <trkpt lat="42.793487040325999" lon="-1.79266001097858">
        <ele>418.31</ele>
        <time>2025-04-27T12:20:20Z</time>
      </trkpt>
      <trkpt lat="42.793502965942025" lon="-1.792914988473058">
        <ele>418.31</ele>
        <time>2025-04-27T12:20:21Z</time>
      </trkpt>
      <trkpt lat="42.793564992025495" lon="-1.792946001514792">
        <ele>418.31</ele>
        <time>2025-04-27T12:20:22Z</time>
      </trkpt>
      <trkpt lat="42.793630035594106" lon="-1.792978020384908">
        <ele>417.82999999999998</ele>
        <time>2025-04-27T12:20:23Z</time>
      </trkpt>
      <trkpt lat="42.793697007000446" lon="-1.793011967092753">
        <ele>417.82999999999998</ele>
        <time>2025-04-27T12:20:24Z</time>
      </trkpt>
      <trkpt lat="42.793766995891929" lon="-1.79304700344801">
        <ele>417.82999999999998</ele>
        <time>2025-04-27T12:20:25Z</time>
      </trkpt>
      <trkpt lat="42.793831033632159" lon="-1.793079022318125">
        <ele>417.35000000000002</ele>
        <time>2025-04-27T12:20:26Z</time>
      </trkpt>
      <trkpt lat="42.793893981724977" lon="-1.79311003535986">
        <ele>417.82999999999998</ele>
        <time>2025-04-27T12:20:27Z</time>
      </trkpt>
      <trkpt lat="42.793924994766712" lon="-1.793167032301426">
        <ele>417.82999999999998</ele>
        <time>2025-04-27T12:20:28Z</time>
      </trkpt>
      <trkpt lat="42.79396103695035" lon="-1.793232997879386">
        <ele>418.31</ele>
        <time>2025-04-27T12:20:29Z</time>
      </trkpt>
      <trkpt lat="42.794058015570045" lon="-1.793367024511099">
        <ele>418.79000000000002</ele>
        <time>2025-04-27T12:20:31Z</time>
      </trkpt>
      <trkpt lat="42.794094979763031" lon="-1.793387979269028">
        <ele>419.26999999999998</ele>
        <time>2025-04-27T12:20:32Z</time>
      </trkpt>
      <trkpt lat="42.794121969491243" lon="-1.793402982875705">
        <ele>420.70999999999998</ele>
        <time>2025-04-27T12:20:40Z</time>
      </trkpt>
      <trkpt lat="42.794173015281558" lon="-1.793439025059342">
        <ele>421.19</ele>
        <time>2025-04-27T12:20:44Z</time>
      </trkpt>
      <trkpt lat="42.794173015281558" lon="-1.793528040871024">
        <ele>421.19</ele>
        <time>2025-04-27T12:20:45Z</time>
      </trkpt>
      <trkpt lat="42.794130016118288" lon="-1.794814998283982">
        <ele>418.31</ele>
        <time>2025-04-27T12:20:55Z</time>
      </trkpt>
      <trkpt lat="42.794130016118288" lon="-1.79646598175168">
        <ele>415.91000000000003</ele>
        <time>2025-04-27T12:21:05Z</time>
      </trkpt>
      <trkpt lat="42.794134961441159" lon="-1.796674020588398">
        <ele>415.91000000000003</ele>
        <time>2025-04-27T12:21:06Z</time>
      </trkpt>
      <trkpt lat="42.794150970876217" lon="-1.796888010576367">
        <ele>415.91000000000003</ele>
        <time>2025-04-27T12:21:07Z</time>
      </trkpt>
      <trkpt lat="42.794374013319612" lon="-1.798560032621026">
        <ele>417.82999999999998</ele>
        <time>2025-04-27T12:21:14Z</time>
      </trkpt>
      <trkpt lat="42.794462023302913" lon="-1.798779973760247">
        <ele>418.31</ele>
        <time>2025-04-27T12:21:15Z</time>
      </trkpt>
      <trkpt lat="42.794893020763993" lon="-1.799864005297422">
        <ele>424.56</ele>
        <time>2025-04-27T12:21:20Z</time>
      </trkpt>
      <trkpt lat="42.794963009655476" lon="-1.800040025264025">
        <ele>426</ele>
        <time>2025-04-27T12:21:21Z</time>
      </trkpt>
      <trkpt lat="42.795013971626759" lon="-1.800232976675034">
        <ele>427.44</ele>
        <time>2025-04-27T12:21:22Z</time>
      </trkpt>
      <trkpt lat="42.795348996296525" lon="-1.802138015627861">
        <ele>438.5</ele>
        <time>2025-04-27T12:21:31Z</time>
      </trkpt>
      <trkpt lat="42.795363999903202" lon="-1.802357034757733">
        <ele>439.45999999999998</ele>
        <time>2025-04-27T12:21:32Z</time>
      </trkpt>
      <trkpt lat="42.795371040701866" lon="-1.802598014473915">
        <ele>440.42000000000002</ele>
        <time>2025-04-27T12:21:33Z</time>
      </trkpt>
      <trkpt lat="42.795356037095189" lon="-1.802860032767057">
        <ele>441.38</ele>
        <time>2025-04-27T12:21:34Z</time>
      </trkpt>
      <trkpt lat="42.795341033488512" lon="-1.803128002211452">
        <ele>442.81999999999999</ele>
        <time>2025-04-27T12:21:35Z</time>
      </trkpt>
      <trkpt lat="42.795325024053454" lon="-1.80340301245451">
        <ele>443.31</ele>
        <time>2025-04-27T12:21:36Z</time>
      </trkpt>
      <trkpt lat="42.795304991304874" lon="-1.804136009886861">
        <ele>446.19</ele>
        <time>2025-04-27T12:21:39Z</time>
      </trkpt>
      <trkpt lat="42.795341033488512" lon="-1.80437003262341">
        <ele>447.14999999999998</ele>
        <time>2025-04-27T12:21:40Z</time>
      </trkpt>
      <trkpt lat="42.795457961037755" lon="-1.805119961500168">
        <ele>450.51999999999998</ele>
        <time>2025-04-27T12:21:43Z</time>
      </trkpt>
      <trkpt lat="42.795625012367964" lon="-1.806872030720115">
        <ele>461.08999999999997</ele>
        <time>2025-04-27T12:21:51Z</time>
      </trkpt>
      <trkpt lat="42.795654013752937" lon="-1.807048972696066">
        <ele>462.05000000000001</ele>
        <time>2025-04-27T12:21:52Z</time>
      </trkpt>
      <trkpt lat="42.795701958239079" lon="-1.807215018197894">
        <ele>463.00999999999999</ele>
        <time>2025-04-27T12:21:53Z</time>
      </trkpt>
      <trkpt lat="42.79576800763607" lon="-1.80735700763762">
        <ele>464.44999999999999</ele>
        <time>2025-04-27T12:21:54Z</time>
      </trkpt>
      <trkpt lat="42.795837996527553" lon="-1.807478964328766">
        <ele>465.42000000000002</ele>
        <time>2025-04-27T12:21:55Z</time>
      </trkpt>
      <trkpt lat="42.795911002904177" lon="-1.807561023160815">
        <ele>465.89999999999998</ele>
        <time>2025-04-27T12:21:56Z</time>
      </trkpt>
      <trkpt lat="42.796000018715858" lon="-1.807625982910395">
        <ele>466.86000000000001</ele>
        <time>2025-04-27T12:21:57Z</time>
      </trkpt>
      <trkpt lat="42.796096997335553" lon="-1.807695971801877">
        <ele>467.81999999999999</ele>
        <time>2025-04-27T12:21:58Z</time>
      </trkpt>
      <trkpt lat="42.796203028410673" lon="-1.807773001492024">
        <ele>468.30000000000001</ele>
        <time>2025-04-27T12:21:59Z</time>
      </trkpt>
      <trkpt lat="42.796315010637045" lon="-1.807854976505041">
        <ele>469.25999999999999</ele>
        <time>2025-04-27T12:22:00Z</time>
      </trkpt>
      <trkpt lat="42.796381982043386" lon="-1.807972993701696">
        <ele>469.74000000000001</ele>
        <time>2025-04-27T12:22:01Z</time>
      </trkpt>
      <trkpt lat="42.796431016176939" lon="-1.808086987584829">
        <ele>470.22000000000003</ele>
        <time>2025-04-27T12:22:02Z</time>
      </trkpt>
      <trkpt lat="42.796474015340209" lon="-1.808187989518046">
        <ele>470.69999999999999</ele>
        <time>2025-04-27T12:22:03Z</time>
      </trkpt>
      <trkpt lat="42.796512991189957" lon="-1.808282034471631">
        <ele>471.18000000000001</ele>
        <time>2025-04-27T12:22:04Z</time>
      </trkpt>
      <trkpt lat="42.796593960374594" lon="-1.808626027777791">
        <ele>473.58999999999997</ele>
        <time>2025-04-27T12:22:08Z</time>
      </trkpt>
      <trkpt lat="42.796594966202974" lon="-1.80871001444757">
        <ele>474.55000000000001</ele>
        <time>2025-04-27T12:22:09Z</time>
      </trkpt>
      <trkpt lat="42.796581974253058" lon="-1.808872958645225">
        <ele>475.50999999999999</ele>
        <time>2025-04-27T12:22:11Z</time>
      </trkpt>
      <trkpt lat="42.796577028930187" lon="-1.808945965021849">
        <ele>476.47000000000003</ele>
        <time>2025-04-27T12:22:12Z</time>
      </trkpt>
      <trkpt lat="42.796507962048054" lon="-1.809045039117336">
        <ele>476.94999999999999</ele>
        <time>2025-04-27T12:22:13Z</time>
      </trkpt>
      <trkpt lat="42.796435039490461" lon="-1.809150986373425">
        <ele>477.43000000000001</ele>
        <time>2025-04-27T12:22:14Z</time>
      </trkpt>
      <trkpt lat="42.796353986486793" lon="-1.809266991913319">
        <ele>478.38999999999999</ele>
        <time>2025-04-27T12:22:15Z</time>
      </trkpt>
      <trkpt lat="42.796269999817014" lon="-1.809389032423496">
        <ele>478.87</ele>
        <time>2025-04-27T12:22:16Z</time>
      </trkpt>
      <trkpt lat="42.796181989833713" lon="-1.809536973014474">
        <ele>479.35000000000002</ele>
        <time>2025-04-27T12:22:17Z</time>
      </trkpt>
      <trkpt lat="42.796138990670443" lon="-1.809721039608121">
        <ele>480.31999999999999</ele>
        <time>2025-04-27T12:22:18Z</time>
      </trkpt>
      <trkpt lat="42.79609196819365" lon="-1.80991499684751">
        <ele>480.80000000000001</ele>
        <time>2025-04-27T12:22:19Z</time>
      </trkpt>
      <trkpt lat="42.796076964586973" lon="-1.81012898683548">
        <ele>481.75999999999999</ele>
        <time>2025-04-27T12:22:20Z</time>
      </trkpt>
      <trkpt lat="42.79606900177896" lon="-1.810354962944984">
        <ele>482.72000000000003</ele>
        <time>2025-04-27T12:22:21Z</time>
      </trkpt>
      <trkpt lat="42.796020973473787" lon="-1.811792040243745">
        <ele>490.88999999999999</ele>
        <time>2025-04-27T12:22:27Z</time>
      </trkpt>
      <trkpt lat="42.796055004000664" lon="-1.812022961676121">
        <ele>492.32999999999998</ele>
        <time>2025-04-27T12:22:28Z</time>
      </trkpt>
      <trkpt lat="42.79608903452754" lon="-1.812249021604657">
        <ele>493.76999999999998</ele>
        <time>2025-04-27T12:22:29Z</time>
      </trkpt>
      <trkpt lat="42.796185007318854" lon="-1.812888979911804">
        <ele>497.13999999999999</ele>
        <time>2025-04-27T12:22:32Z</time>
      </trkpt>
      <trkpt lat="42.796211997047067" lon="-1.813066005706787">
        <ele>498.57999999999998</ele>
        <time>2025-04-27T12:22:33Z</time>
      </trkpt>
      <trkpt lat="42.796164974570274" lon="-1.81324596516788">
        <ele>500.01999999999998</ele>
        <time>2025-04-27T12:22:34Z</time>
      </trkpt>
      <trkpt lat="42.796114012598991" lon="-1.813439000397921">
        <ele>501.45999999999998</ele>
        <time>2025-04-27T12:22:35Z</time>
      </trkpt>
      <trkpt lat="42.796062966808677" lon="-1.813633041456342">
        <ele>502.91000000000003</ele>
        <time>2025-04-27T12:22:36Z</time>
      </trkpt>
      <trkpt lat="42.796009993180633" lon="-1.813836973160505">
        <ele>504.35000000000002</ele>
        <time>2025-04-27T12:22:37Z</time>
      </trkpt>
      <trkpt lat="42.795969005674124" lon="-1.814048029482365">
        <ele>505.31</ele>
        <time>2025-04-27T12:22:38Z</time>
      </trkpt>
      <trkpt lat="42.795949978753924" lon="-1.814280962571502">
        <ele>507.23000000000002</ele>
        <time>2025-04-27T12:22:39Z</time>
      </trkpt>
      <trkpt lat="42.795792985707521" lon="-1.816353974863887">
        <ele>518.76999999999998</ele>
        <time>2025-04-27T12:22:47Z</time>
      </trkpt>
      <trkpt lat="42.795619983226061" lon="-1.818282986059785">
        <ele>528.86000000000001</ele>
        <time>2025-04-27T12:22:54Z</time>
      </trkpt>
      <trkpt lat="42.795543959364295" lon="-1.819252017885447">
        <ele>535.59000000000003</ele>
        <time>2025-04-27T12:22:58Z</time>
      </trkpt>
      <trkpt lat="42.795576984062791" lon="-1.819482017308474">
        <ele>537.02999999999997</ele>
        <time>2025-04-27T12:22:59Z</time>
      </trkpt>
      <trkpt lat="42.795632975175977" lon="-1.819720985367894">
        <ele>538.96000000000004</ele>
        <time>2025-04-27T12:23:00Z</time>
      </trkpt>
      <trkpt lat="42.796252984553576" lon="-1.822047969326377">
        <ele>555.77999999999997</ele>
        <time>2025-04-27T12:23:09Z</time>
      </trkpt>
      <trkpt lat="42.796694040298462" lon="-1.824121987447143">
        <ele>572.60000000000002</ele>
        <time>2025-04-27T12:23:18Z</time>
      </trkpt>
      <trkpt lat="42.796751959249377" lon="-1.825568033382297">
        <ele>582.70000000000005</ele>
        <time>2025-04-27T12:23:26Z</time>
      </trkpt>
      <trkpt lat="42.796609969809651" lon="-1.827472988516092">
        <ele>592.30999999999995</ele>
        <time>2025-04-27T12:23:34Z</time>
      </trkpt>
      <trkpt lat="42.796593038365245" lon="-1.828131973743439">
        <ele>596.14999999999998</ele>
        <time>2025-04-27T12:23:37Z</time>
      </trkpt>
      <trkpt lat="42.796856984496117" lon="-1.830355022102594">
        <ele>608.16999999999996</ele>
        <time>2025-04-27T12:23:46Z</time>
      </trkpt>
      <trkpt lat="42.796876011416316" lon="-1.830619974061847">
        <ele>610.09000000000003</ele>
        <time>2025-04-27T12:23:47Z</time>
      </trkpt>
      <trkpt lat="42.796895038336515" lon="-1.83088299818337">
        <ele>612.01999999999998</ele>
        <time>2025-04-27T12:23:48Z</time>
      </trkpt>
      <trkpt lat="42.796936025843024" lon="-1.832518978044391">
        <ele>620.66999999999996</ele>
        <time>2025-04-27T12:23:54Z</time>
      </trkpt>
      <trkpt lat="42.796901995316148" lon="-1.833522962406278">
        <ele>624.99000000000001</ele>
        <time>2025-04-27T12:23:58Z</time>
      </trkpt>
      <trkpt lat="42.79688598588109" lon="-1.833766959607601">
        <ele>626.44000000000005</ele>
        <time>2025-04-27T12:23:59Z</time>
      </trkpt>
      <trkpt lat="42.796704014763236" lon="-1.834585033357143">
        <ele>631.72000000000003</ele>
        <time>2025-04-27T12:24:03Z</time>
      </trkpt>
      <trkpt lat="42.796135973185301" lon="-1.83606100268662">
        <ele>640.86000000000001</ele>
        <time>2025-04-27T12:24:10Z</time>
      </trkpt>
      <trkpt lat="42.795673962682486" lon="-1.837188033387065">
        <ele>649.50999999999999</ele>
        <time>2025-04-27T12:24:15Z</time>
      </trkpt>
      <trkpt lat="42.795621994882822" lon="-1.837423983961344">
        <ele>651.42999999999995</ele>
        <time>2025-04-27T12:24:16Z</time>
      </trkpt>
      <trkpt lat="42.795576984062791" lon="-1.837668986991048">
        <ele>652.87</ele>
        <time>2025-04-27T12:24:17Z</time>
      </trkpt>
      <trkpt lat="42.795218992978334" lon="-1.839570002630353">
        <ele>662.49000000000001</ele>
        <time>2025-04-27T12:24:25Z</time>
      </trkpt>
      <trkpt lat="42.794920010492206" lon="-1.84108997695148">
        <ele>672.10000000000002</ele>
        <time>2025-04-27T12:24:32Z</time>
      </trkpt>
      <trkpt lat="42.794682970270514" lon="-1.841893969103694">
        <ele>678.83000000000004</ele>
        <time>2025-04-27T12:24:38Z</time>
      </trkpt>
      <trkpt lat="42.79467198997736" lon="-1.841981979086995">
        <ele>679.78999999999996</ele>
        <time>2025-04-27T12:24:39Z</time>
      </trkpt>
      <trkpt lat="42.794687999412417" lon="-1.84207702986896">
        <ele>680.26999999999998</ele>
        <time>2025-04-27T12:24:40Z</time>
      </trkpt>
      <trkpt lat="42.794722029939294" lon="-1.842109970748425">
        <ele>681.71000000000004</ele>
        <time>2025-04-27T12:24:41Z</time>
      </trkpt>
      <trkpt lat="42.79478196054697" lon="-1.842080969363451">
        <ele>682.66999999999996</ele>
        <time>2025-04-27T12:24:42Z</time>
      </trkpt>
      <trkpt lat="42.794830994680524" lon="-1.84199295938015">
        <ele>683.63</ele>
        <time>2025-04-27T12:24:43Z</time>
      </trkpt>
      <trkpt lat="42.79486401937902" lon="-1.841851975768805">
        <ele>684.60000000000002</ele>
        <time>2025-04-27T12:24:44Z</time>
      </trkpt>
      <trkpt lat="42.794921016320586" lon="-1.841687019914389">
        <ele>686.03999999999996</ele>
        <time>2025-04-27T12:24:45Z</time>
      </trkpt>
      <trkpt lat="42.795000979676843" lon="-1.841505970805883">
        <ele>687</ele>
        <time>2025-04-27T12:24:46Z</time>
      </trkpt>
      <trkpt lat="42.795088989660144" lon="-1.841305978596211">
        <ele>687.96000000000004</ele>
        <time>2025-04-27T12:24:47Z</time>
      </trkpt>
      <trkpt lat="42.795184962451458" lon="-1.841087965294719">
        <ele>688.91999999999996</ele>
        <time>2025-04-27T12:24:48Z</time>
      </trkpt>
      <trkpt lat="42.795992977917194" lon="-1.839114027097821">
        <ele>698.52999999999997</ele>
        <time>2025-04-27T12:24:56Z</time>
      </trkpt>
      <trkpt lat="42.796458005905151" lon="-1.837916001677513">
        <ele>704.29999999999995</ele>
        <time>2025-04-27T12:25:01Z</time>
      </trkpt>
      <trkpt lat="42.7973120380193" lon="-1.836311034858227">
        <ele>713.91999999999996</ele>
        <time>2025-04-27T12:25:09Z</time>
      </trkpt>
      <trkpt lat="42.797843031585217" lon="-1.835325993597508">
        <ele>723.04999999999995</ele>
        <time>2025-04-27T12:25:17Z</time>
      </trkpt>
      <trkpt lat="42.797908997163177" lon="-1.835204036906362">
        <ele>724.97000000000003</ele>
        <time>2025-04-27T12:25:19Z</time>
      </trkpt>
      <trkpt lat="42.797928024083376" lon="-1.835166988894343">
        <ele>725.92999999999995</ele>
        <time>2025-04-27T12:25:20Z</time>
      </trkpt>
      <trkpt lat="42.797945039346814" lon="-1.835173023864627">
        <ele>726.88999999999999</ele>
        <time>2025-04-27T12:25:21Z</time>
      </trkpt>
      <trkpt lat="42.797969011589885" lon="-1.83518098667264">
        <ele>727.86000000000001</ele>
        <time>2025-04-27T12:25:22Z</time>
      </trkpt>
      <trkpt lat="42.797987032681704" lon="-1.835187021642923">
        <ele>728.82000000000005</ele>
        <time>2025-04-27T12:25:23Z</time>
      </trkpt>
      <trkpt lat="42.797992983832955" lon="-1.835189033299685">
        <ele>729.77999999999997</ele>
        <time>2025-04-27T12:25:24Z</time>
      </trkpt>
      <trkpt lat="42.797992983832955" lon="-1.835189033299685">
        <ele>730.25999999999999</ele>
        <time>2025-04-27T12:25:35Z</time>
      </trkpt>
      <trkpt lat="42.798011004924774" lon="-1.835062969475985">
        <ele>731.22000000000003</ele>
        <time>2025-04-27T12:27:39Z</time>
      </trkpt>
      <trkpt lat="42.798031037673354" lon="-1.8350949883461">
        <ele>725.92999999999995</ele>
        <time>2025-04-27T12:28:07Z</time>
      </trkpt>
      <trkpt lat="42.797992983832955" lon="-1.835189033299685">
        <ele>724.00999999999999</ele>
        <time>2025-04-27T12:28:26Z</time>
      </trkpt>
      <trkpt lat="42.797988038510084" lon="-1.835326999425888">
        <ele>723.52999999999997</ele>
        <time>2025-04-27T12:28:29Z</time>
      </trkpt>
      <trkpt lat="42.797950990498066" lon="-1.835389025509358">
        <ele>723.52999999999997</ele>
        <time>2025-04-27T12:28:30Z</time>
      </trkpt>
      <trkpt lat="42.797824004665017" lon="-1.835607038810849">
        <ele>724.49000000000001</ele>
        <time>2025-04-27T12:28:33Z</time>
      </trkpt>
      <trkpt lat="42.797775976359844" lon="-1.835689013823867">
        <ele>724.49000000000001</ele>
        <time>2025-04-27T12:28:34Z</time>
      </trkpt>
      <trkpt lat="42.797408010810614" lon="-1.836716970428824">
        <ele>727.86000000000001</ele>
        <time>2025-04-27T12:28:42Z</time>
      </trkpt>
      <trkpt lat="42.79699201695621" lon="-1.838472979143262">
        <ele>733.13999999999999</ele>
        <time>2025-04-27T12:28:52Z</time>
      </trkpt>
      <trkpt lat="42.7965849917382" lon="-1.840626960620284">
        <ele>745.63999999999999</ele>
        <time>2025-04-27T12:29:01Z</time>
      </trkpt>
      <trkpt lat="42.796441996470094" lon="-1.841576965525746">
        <ele>750.45000000000005</ele>
        <time>2025-04-27T12:29:05Z</time>
      </trkpt>
      <trkpt lat="42.796381982043386" lon="-1.841795984655619">
        <ele>752.37</ele>
        <time>2025-04-27T12:29:06Z</time>
      </trkpt>
      <trkpt lat="42.796161035075784" lon="-1.842711959034205">
        <ele>757.17999999999995</ele>
        <time>2025-04-27T12:29:10Z</time>
      </trkpt>
      <trkpt lat="42.796092974022031" lon="-1.843188973143697">
        <ele>759.58000000000004</ele>
        <time>2025-04-27T12:29:12Z</time>
      </trkpt>
      <trkpt lat="42.796061960980296" lon="-1.843404974788427">
        <ele>760.53999999999996</ele>
        <time>2025-04-27T12:29:13Z</time>
      </trkpt>
      <trkpt lat="42.796019967645407" lon="-1.843600021675229">
        <ele>761.98000000000002</ele>
        <time>2025-04-27T12:29:14Z</time>
      </trkpt>
      <trkpt lat="42.795937992632389" lon="-1.84377696365118">
        <ele>763.41999999999996</ele>
        <time>2025-04-27T12:29:15Z</time>
      </trkpt>
      <trkpt lat="42.795835984870791" lon="-1.843954995274544">
        <ele>764.38999999999999</ele>
        <time>2025-04-27T12:29:16Z</time>
      </trkpt>
      <trkpt lat="42.795490985736251" lon="-1.844422034919262">
        <ele>768.71000000000004</ele>
        <time>2025-04-27T12:29:19Z</time>
      </trkpt>
      <trkpt lat="42.795396018773317" lon="-1.844501998275518">
        <ele>770.14999999999998</ele>
        <time>2025-04-27T12:29:20Z</time>
      </trkpt>
      <trkpt lat="42.795256962999701" lon="-1.844501998275518">
        <ele>771.60000000000002</ele>
        <time>2025-04-27T12:29:21Z</time>
      </trkpt>
      <trkpt lat="42.795159984380007" lon="-1.844501998275518">
        <ele>772.55999999999995</ele>
        <time>2025-04-27T12:29:22Z</time>
      </trkpt>
      <trkpt lat="42.795005002990365" lon="-1.844414994120598">
        <ele>773.51999999999998</ele>
        <time>2025-04-27T12:29:23Z</time>
      </trkpt>
      <trkpt lat="42.794859996065497" lon="-1.844335030764341">
        <ele>774.48000000000002</ele>
        <time>2025-04-27T12:29:24Z</time>
      </trkpt>
      <trkpt lat="42.794703003019094" lon="-1.844248026609421">
        <ele>775.91999999999996</ele>
        <time>2025-04-27T12:29:25Z</time>
      </trkpt>
      <trkpt lat="42.793937986716628" lon="-1.843836978077889">
        <ele>780.73000000000002</ele>
        <time>2025-04-27T12:29:30Z</time>
      </trkpt>
      <trkpt lat="42.793784011155367" lon="-1.843804037198424">
        <ele>781.69000000000005</ele>
        <time>2025-04-27T12:29:31Z</time>
      </trkpt>
      <trkpt lat="42.7936199773103" lon="-1.843789033591747">
        <ele>782.64999999999998</ele>
        <time>2025-04-27T12:29:32Z</time>
      </trkpt>
      <trkpt lat="42.793455021455884" lon="-1.84377302415669">
        <ele>783.61000000000001</ele>
        <time>2025-04-27T12:29:33Z</time>
      </trkpt>
      <trkpt lat="42.793313032016158" lon="-1.843835972249508">
        <ele>784.57000000000005</ele>
        <time>2025-04-27T12:29:34Z</time>
      </trkpt>
      <trkpt lat="42.793158972635865" lon="-1.843909984454513">
        <ele>785.52999999999997</ele>
        <time>2025-04-27T12:29:35Z</time>
      </trkpt>
      <trkpt lat="42.792992005124688" lon="-1.84399195946753">
        <ele>786.5</ele>
        <time>2025-04-27T12:29:36Z</time>
      </trkpt>
      <trkpt lat="42.792663015425205" lon="-1.844151969999075">
        <ele>788.41999999999996</ele>
        <time>2025-04-27T12:29:38Z</time>
      </trkpt>
      <trkpt lat="42.792506022378802" lon="-1.844158004969358">
        <ele>789.38</ele>
        <time>2025-04-27T12:29:39Z</time>
      </trkpt>
      <trkpt lat="42.792359003797174" lon="-1.844137972220779">
        <ele>790.34000000000003</ele>
        <time>2025-04-27T12:29:40Z</time>
      </trkpt>
      <trkpt lat="42.792204022407532" lon="-1.844080975279212">
        <ele>791.77999999999997</ele>
        <time>2025-04-27T12:29:41Z</time>
      </trkpt>
      <trkpt lat="42.792033031582832" lon="-1.844018027186394">
        <ele>792.74000000000001</ele>
        <time>2025-04-27T12:29:42Z</time>
      </trkpt>
      <trkpt lat="42.791845025494695" lon="-1.84394896030426">
        <ele>793.22000000000003</ele>
        <time>2025-04-27T12:29:43Z</time>
      </trkpt>
      <trkpt lat="42.791655007749796" lon="-1.843878971412778">
        <ele>794.19000000000005</ele>
        <time>2025-04-27T12:29:44Z</time>
      </trkpt>
      <trkpt lat="42.791454009711742" lon="-1.843805965036154">
        <ele>794.66999999999996</ele>
        <time>2025-04-27T12:29:45Z</time>
      </trkpt>
      <trkpt lat="42.790393028408289" lon="-1.843384020030499">
        <ele>798.02999999999997</ele>
        <time>2025-04-27T12:29:50Z</time>
      </trkpt>
      <trkpt lat="42.790197981521487" lon="-1.843267008662224">
        <ele>799.47000000000003</ele>
        <time>2025-04-27T12:29:51Z</time>
      </trkpt>
      <trkpt lat="42.789225010201335" lon="-1.842822013422847">
        <ele>806.20000000000005</ele>
        <time>2025-04-27T12:29:56Z</time>
      </trkpt>
      <trkpt lat="42.789026023820043" lon="-1.842793012037873">
        <ele>807.63999999999999</ele>
        <time>2025-04-27T12:29:57Z</time>
      </trkpt>
      <trkpt lat="42.788851009681821" lon="-1.842813966795802">
        <ele>809.09000000000003</ele>
        <time>2025-04-27T12:29:58Z</time>
      </trkpt>
      <trkpt lat="42.788687981665134" lon="-1.842841040343046">
        <ele>810.52999999999997</ele>
        <time>2025-04-27T12:29:59Z</time>
      </trkpt>
      <trkpt lat="42.78852797113359" lon="-1.842876998707652">
        <ele>811.97000000000003</ele>
        <time>2025-04-27T12:30:00Z</time>
      </trkpt>
      <trkpt lat="42.788385981693864" lon="-1.842909017577767">
        <ele>813.88999999999999</ele>
        <time>2025-04-27T12:30:01Z</time>
      </trkpt>
      <trkpt lat="42.788258995860815" lon="-1.842933995649219">
        <ele>815.34000000000003</ele>
        <time>2025-04-27T12:30:02Z</time>
      </trkpt>
      <trkpt lat="42.788116000592709" lon="-1.842923015356064">
        <ele>816.29999999999995</ele>
        <time>2025-04-27T12:30:03Z</time>
      </trkpt>
      <trkpt lat="42.787955990061164" lon="-1.842910023406148">
        <ele>817.25999999999999</ele>
        <time>2025-04-27T12:30:04Z</time>
      </trkpt>
      <trkpt lat="42.787779970094562" lon="-1.842896025627852">
        <ele>818.70000000000005</ele>
        <time>2025-04-27T12:30:05Z</time>
      </trkpt>
      <trkpt lat="42.787590958178043" lon="-1.842880016192794">
        <ele>819.65999999999997</ele>
        <time>2025-04-27T12:30:06Z</time>
      </trkpt>
      <trkpt lat="42.78683097101748" lon="-1.842822013422847">
        <ele>823.99000000000001</ele>
        <time>2025-04-27T12:30:10Z</time>
      </trkpt>
      <trkpt lat="42.786469040438533" lon="-1.842836011201143">
        <ele>827.83000000000004</ele>
        <time>2025-04-27T12:30:13Z</time>
      </trkpt>
      <trkpt lat="42.786372983828187" lon="-1.842902982607484">
        <ele>829.26999999999998</ele>
        <time>2025-04-27T12:30:14Z</time>
      </trkpt>
      <trkpt lat="42.786272987723351" lon="-1.842971965670586">
        <ele>830.72000000000003</ele>
        <time>2025-04-27T12:30:15Z</time>
      </trkpt>
      <trkpt lat="42.786110965535045" lon="-1.843146979808807">
        <ele>833.12</ele>
        <time>2025-04-27T12:30:17Z</time>
      </trkpt>
      <trkpt lat="42.786044999957085" lon="-1.843227026984096">
        <ele>834.08000000000004</ele>
        <time>2025-04-27T12:30:18Z</time>
      </trkpt>
      <trkpt lat="42.786019016057253" lon="-1.84325703419745">
        <ele>835.03999999999996</ele>
        <time>2025-04-27T12:30:19Z</time>
      </trkpt>
      <trkpt lat="42.785986997187138" lon="-1.843379996716976">
        <ele>836</ele>
        <time>2025-04-27T12:30:20Z</time>
      </trkpt>
      <trkpt lat="42.785954978317022" lon="-1.843503965064883">
        <ele>836.48000000000002</ele>
        <time>2025-04-27T12:30:21Z</time>
      </trkpt>
      <trkpt lat="42.785919019952416" lon="-1.843642015010119">
        <ele>837.45000000000005</ele>
        <time>2025-04-27T12:30:22Z</time>
      </trkpt>
      <trkpt lat="42.785893036052585" lon="-1.84377696365118">
        <ele>837.92999999999995</ele>
        <time>2025-04-27T12:30:23Z</time>
      </trkpt>
      <trkpt lat="42.78590502217412" lon="-1.843943009153009">
        <ele>838.40999999999997</ele>
        <time>2025-04-27T12:30:24Z</time>
      </trkpt>
      <trkpt lat="42.785937041044235" lon="-1.844092039391398">
        <ele>838.88999999999999</ele>
        <time>2025-04-27T12:30:25Z</time>
      </trkpt>
      <trkpt lat="42.785992026329041" lon="-1.844230005517602">
        <ele>839.37</ele>
        <time>2025-04-27T12:30:26Z</time>
      </trkpt>
      <trkpt lat="42.786066038534045" lon="-1.844346011057496">
        <ele>839.85000000000002</ele>
        <time>2025-04-27T12:30:27Z</time>
      </trkpt>
      <trkpt lat="42.786152036860585" lon="-1.844475008547306">
        <ele>840.33000000000004</ele>
        <time>2025-04-27T12:30:28Z</time>
      </trkpt>
      <trkpt lat="42.787104975432158" lon="-1.845704969018698">
        <ele>839.37</ele>
        <time>2025-04-27T12:30:36Z</time>
      </trkpt>
      <trkpt lat="42.788208033889532" lon="-1.846995027735829">
        <ele>833.12</ele>
        <time>2025-04-27T12:30:44Z</time>
      </trkpt>
      <trkpt lat="42.788328984752297" lon="-1.847072979435325">
        <ele>832.15999999999997</ele>
        <time>2025-04-27T12:30:45Z</time>
      </trkpt>
      <trkpt lat="42.788416994735599" lon="-1.847130982205272">
        <ele>831.20000000000005</ele>
        <time>2025-04-27T12:30:46Z</time>
      </trkpt>
      <trkpt lat="42.788470974192023" lon="-1.84719099663198">
        <ele>829.75999999999999</ele>
        <time>2025-04-27T12:30:47Z</time>
      </trkpt>
      <trkpt lat="42.78848497197032" lon="-1.847259979695082">
        <ele>828.78999999999996</ele>
        <time>2025-04-27T12:30:48Z</time>
      </trkpt>
      <trkpt lat="42.788423029705882" lon="-1.847312031313777">
        <ele>827.35000000000002</ele>
        <time>2025-04-27T12:30:49Z</time>
      </trkpt>
      <trkpt lat="42.788344994187355" lon="-1.847293004393578">
        <ele>826.38999999999999</ele>
        <time>2025-04-27T12:30:50Z</time>
      </trkpt>
      <trkpt lat="42.788246003910899" lon="-1.847268026322126">
        <ele>825.42999999999995</ele>
        <time>2025-04-27T12:30:51Z</time>
      </trkpt>
      <trkpt lat="42.788122035562992" lon="-1.847237013280392">
        <ele>824.47000000000003</ele>
        <time>2025-04-27T12:30:52Z</time>
      </trkpt>
      <trkpt lat="42.787177981808782" lon="-1.847054958343506">
        <ele>817.74000000000001</ele>
        <time>2025-04-27T12:30:58Z</time>
      </trkpt>
      <trkpt lat="42.787035992369056" lon="-1.847108015790582">
        <ele>816.77999999999997</ele>
        <time>2025-04-27T12:30:59Z</time>
      </trkpt>
      <trkpt lat="42.786956029012799" lon="-1.847182027995586">
        <ele>815.82000000000005</ele>
        <time>2025-04-27T12:31:00Z</time>
      </trkpt>
      <trkpt lat="42.786920992657542" lon="-1.847227038815618">
        <ele>814.85000000000002</ele>
        <time>2025-04-27T12:31:01Z</time>
      </trkpt>
      <trkpt lat="42.786898026242852" lon="-1.847397023811936">
        <ele>813.88999999999999</ele>
        <time>2025-04-27T12:31:02Z</time>
      </trkpt>
      <trkpt lat="42.786877993494272" lon="-1.847548987716436">
        <ele>811.97000000000003</ele>
        <time>2025-04-27T12:31:03Z</time>
      </trkpt>
      <trkpt lat="42.786920992657542" lon="-1.847643032670021">
        <ele>809.57000000000005</ele>
        <time>2025-04-27T12:31:04Z</time>
      </trkpt>
      <trkpt lat="42.786989975720644" lon="-1.847790973260999">
        <ele>807.63999999999999</ele>
        <time>2025-04-27T12:31:05Z</time>
      </trkpt>
      <trkpt lat="42.787061976268888" lon="-1.847948972135782">
        <ele>804.75999999999999</ele>
        <time>2025-04-27T12:31:06Z</time>
      </trkpt>
      <trkpt lat="42.78713297098875" lon="-1.848150976002216">
        <ele>802.36000000000001</ele>
        <time>2025-04-27T12:31:07Z</time>
      </trkpt>
      <trkpt lat="42.787125008180737" lon="-1.848337976261973">
        <ele>800.44000000000005</ele>
        <time>2025-04-27T12:31:08Z</time>
      </trkpt>
      <trkpt lat="42.787061976268888" lon="-1.848795041441917">
        <ele>797.54999999999995</ele>
        <time>2025-04-27T12:31:10Z</time>
      </trkpt>
      <trkpt lat="42.78700003400445" lon="-1.849044989794493">
        <ele>795.63</ele>
        <time>2025-04-27T12:31:11Z</time>
      </trkpt>
      <trkpt lat="42.786902971565723" lon="-1.849270965903997">
        <ele>794.19000000000005</ele>
        <time>2025-04-27T12:31:12Z</time>
      </trkpt>
      <trkpt lat="42.786541040986776" lon="-1.849942021071911">
        <ele>789.86000000000001</ele>
        <time>2025-04-27T12:31:15Z</time>
      </trkpt>
      <trkpt lat="42.786277011036873" lon="-1.850323984399438">
        <ele>787.46000000000004</ele>
        <time>2025-04-27T12:31:17Z</time>
      </trkpt>
      <trkpt lat="42.786141978576779" lon="-1.850467985495925">
        <ele>786.5</ele>
        <time>2025-04-27T12:31:18Z</time>
      </trkpt>
      <trkpt lat="42.786062015220523" lon="-1.850552977994084">
        <ele>785.52999999999997</ele>
        <time>2025-04-27T12:31:19Z</time>
      </trkpt>
      <trkpt lat="42.786012981086969" lon="-1.850718017667532">
        <ele>784.09000000000003</ele>
        <time>2025-04-27T12:31:20Z</time>
      </trkpt>
      <trkpt lat="42.786007029935718" lon="-1.850792029872537">
        <ele>782.64999999999998</ele>
        <time>2025-04-27T12:31:21Z</time>
      </trkpt>
      <trkpt lat="42.786083975806832" lon="-1.851003002375364">
        <ele>782.16999999999996</ele>
        <time>2025-04-27T12:31:22Z</time>
      </trkpt>
      <trkpt lat="42.786149019375443" lon="-1.851044995710254">
        <ele>781.69000000000005</ele>
        <time>2025-04-27T12:31:23Z</time>
      </trkpt>
      <trkpt lat="42.786281034350395" lon="-1.851129988208413">
        <ele>781.21000000000004</ele>
        <time>2025-04-27T12:31:24Z</time>
      </trkpt>
      <trkpt lat="42.787179993465543" lon="-1.85170004144311">
        <ele>776.39999999999998</ele>
        <time>2025-04-27T12:31:30Z</time>
      </trkpt>
      <trkpt lat="42.787442011758685" lon="-1.851920988410711">
        <ele>774</ele>
        <time>2025-04-27T12:31:32Z</time>
      </trkpt>
      <trkpt lat="42.787586012855172" lon="-1.852055015042424">
        <ele>773.51999999999998</ele>
        <time>2025-04-27T12:31:33Z</time>
      </trkpt>
      <trkpt lat="42.787765972316265" lon="-1.852334970608354">
        <ele>771.60000000000002</ele>
        <time>2025-04-27T12:31:35Z</time>
      </trkpt>
      <trkpt lat="42.787835961207747" lon="-1.852491963654757">
        <ele>770.63</ele>
        <time>2025-04-27T12:31:36Z</time>
      </trkpt>
      <trkpt lat="42.787890024483204" lon="-1.852635964751244">
        <ele>769.66999999999996</ele>
        <time>2025-04-27T12:31:37Z</time>
      </trkpt>
      <trkpt lat="42.787911985069513" lon="-1.852793963626027">
        <ele>768.23000000000002</ele>
        <time>2025-04-27T12:31:38Z</time>
      </trkpt>
      <trkpt lat="42.787918020039797" lon="-1.852950034663081">
        <ele>767.26999999999998</ele>
        <time>2025-04-27T12:31:39Z</time>
      </trkpt>
      <trkpt lat="42.787866974249482" lon="-1.8531200196594">
        <ele>766.30999999999995</ele>
        <time>2025-04-27T12:31:40Z</time>
      </trkpt>
      <trkpt lat="42.787811988964677" lon="-1.853301990777254">
        <ele>765.35000000000002</ele>
        <time>2025-04-27T12:31:41Z</time>
      </trkpt>
      <trkpt lat="42.787752980366349" lon="-1.853497959673405">
        <ele>764.87</ele>
        <time>2025-04-27T12:31:42Z</time>
      </trkpt>
      <trkpt lat="42.787691038101912" lon="-1.853708010166884">
        <ele>764.38999999999999</ele>
        <time>2025-04-27T12:31:43Z</time>
      </trkpt>
      <trkpt lat="42.787116961553693" lon="-1.855277018621564">
        <ele>760.53999999999996</ele>
        <time>2025-04-27T12:31:50Z</time>
      </trkpt>
      <trkpt lat="42.786211967468262" lon="-1.856796992942691">
        <ele>755.73000000000002</ele>
        <time>2025-04-27T12:31:57Z</time>
      </trkpt>
      <trkpt lat="42.786098979413509" lon="-1.857039984315634">
        <ele>754.76999999999998</ele>
        <time>2025-04-27T12:31:58Z</time>
      </trkpt>
      <trkpt lat="42.785769989714026" lon="-1.857745992019773">
        <ele>751.40999999999997</ele>
        <time>2025-04-27T12:32:01Z</time>
      </trkpt>
      <trkpt lat="42.785631017759442" lon="-1.857939027249813">
        <ele>749.97000000000003</ele>
        <time>2025-04-27T12:32:02Z</time>
      </trkpt>
      <trkpt lat="42.785163978114724" lon="-1.858585020527244">
        <ele>745.63999999999999</ele>
        <time>2025-04-27T12:32:05Z</time>
      </trkpt>
      <trkpt lat="42.785030035302043" lon="-1.858827006071806">
        <ele>744.20000000000005</ele>
        <time>2025-04-27T12:32:06Z</time>
      </trkpt>
      <trkpt lat="42.7849390078336" lon="-1.859077038243413">
        <ele>742.27999999999997</ele>
        <time>2025-04-27T12:32:07Z</time>
      </trkpt>
      <trkpt lat="42.784873964264989" lon="-1.859304020181298">
        <ele>740.35000000000002</ele>
        <time>2025-04-27T12:32:08Z</time>
      </trkpt>
      <trkpt lat="42.784849992021918" lon="-1.859542988240719">
        <ele>738.90999999999997</ele>
        <time>2025-04-27T12:32:09Z</time>
      </trkpt>
      <trkpt lat="42.784837000072002" lon="-1.859769970178604">
        <ele>737.47000000000003</ele>
        <time>2025-04-27T12:32:10Z</time>
      </trkpt>
      <trkpt lat="42.784823002293706" lon="-1.860001981258392">
        <ele>736.02999999999997</ele>
        <time>2025-04-27T12:32:11Z</time>
      </trkpt>
      <trkpt lat="42.784773968160152" lon="-1.860218988731504">
        <ele>734.58000000000004</ele>
        <time>2025-04-27T12:32:12Z</time>
      </trkpt>
      <trkpt lat="42.784527037292719" lon="-1.860866993665695">
        <ele>731.22000000000003</ele>
        <time>2025-04-27T12:32:15Z</time>
      </trkpt>
      <trkpt lat="42.784388987347484" lon="-1.861045025289059">
        <ele>730.25999999999999</ele>
        <time>2025-04-27T12:32:16Z</time>
      </trkpt>
      <trkpt lat="42.784219002351165" lon="-1.861158013343811">
        <ele>729.77999999999997</ele>
        <time>2025-04-27T12:32:17Z</time>
      </trkpt>
      <trkpt lat="42.782799024134874" lon="-1.862001987174153">
        <ele>724.97000000000003</ele>
        <time>2025-04-27T12:32:24Z</time>
      </trkpt>
      <trkpt lat="42.782649993896484" lon="-1.862117992714047">
        <ele>724.49000000000001</ele>
        <time>2025-04-27T12:32:25Z</time>
      </trkpt>
      <trkpt lat="42.782562989741564" lon="-1.862293006852269">
        <ele>723.52999999999997</ele>
        <time>2025-04-27T12:32:26Z</time>
      </trkpt>
      <trkpt lat="42.782479003071785" lon="-1.862461986020207">
        <ele>723.04999999999995</ele>
        <time>2025-04-27T12:32:27Z</time>
      </trkpt>
      <trkpt lat="42.782442960888147" lon="-1.86266197822988">
        <ele>722.57000000000005</ele>
        <time>2025-04-27T12:32:28Z</time>
      </trkpt>
      <trkpt lat="42.782401973381639" lon="-1.862898012623191">
        <ele>722.57000000000005</ele>
        <time>2025-04-27T12:32:29Z</time>
      </trkpt>
      <trkpt lat="42.782250009477139" lon="-1.863770987838507">
        <ele>721.13</ele>
        <time>2025-04-27T12:32:33Z</time>
      </trkpt>
      <trkpt lat="42.782223019748926" lon="-1.863930998370051">
        <ele>721.13</ele>
        <time>2025-04-27T12:32:34Z</time>
      </trkpt>
      <trkpt lat="42.782116988673806" lon="-1.864770026877523">
        <ele>723.52999999999997</ele>
        <time>2025-04-27T12:32:41Z</time>
      </trkpt>
      <trkpt lat="42.782113971188664" lon="-1.864898018538952">
        <ele>724.00999999999999</ele>
        <time>2025-04-27T12:32:42Z</time>
      </trkpt>
      <trkpt lat="42.782113971188664" lon="-1.865036990493536">
        <ele>724.00999999999999</ele>
        <time>2025-04-27T12:32:43Z</time>
      </trkpt>
      <trkpt lat="42.782153030857444" lon="-1.866408018395305">
        <ele>721.13</ele>
        <time>2025-04-27T12:32:53Z</time>
      </trkpt>
      <trkpt lat="42.782138027250767" lon="-1.866580015048385">
        <ele>720.64999999999998</ele>
        <time>2025-04-27T12:32:54Z</time>
      </trkpt>
      <trkpt lat="42.782086981460452" lon="-1.866728961467743">
        <ele>720.15999999999997</ele>
        <time>2025-04-27T12:32:55Z</time>
      </trkpt>
      <trkpt lat="42.782025961205363" lon="-1.866885032504797">
        <ele>719.20000000000005</ele>
        <time>2025-04-27T12:32:56Z</time>
      </trkpt>
      <trkpt lat="42.781955972313881" lon="-1.867016041651368">
        <ele>718.72000000000003</ele>
        <time>2025-04-27T12:32:57Z</time>
      </trkpt>
      <trkpt lat="42.781848013401031" lon="-1.867116959765554">
        <ele>718.24000000000001</ele>
        <time>2025-04-27T12:32:58Z</time>
      </trkpt>
      <trkpt lat="42.781734019517899" lon="-1.867223996669054">
        <ele>717.27999999999997</ele>
        <time>2025-04-27T12:32:59Z</time>
      </trkpt>
      <trkpt lat="42.781606027856469" lon="-1.867326004430652">
        <ele>716.32000000000005</ele>
        <time>2025-04-27T12:33:00Z</time>
      </trkpt>
      <trkpt lat="42.781135970726609" lon="-1.867637978866696">
        <ele>711.99000000000001</ele>
        <time>2025-04-27T12:33:04Z</time>
      </trkpt>
      <trkpt lat="42.781086014583707" lon="-1.867749961093068">
        <ele>711.02999999999997</ele>
        <time>2025-04-27T12:33:05Z</time>
      </trkpt>
      <trkpt lat="42.781047038733959" lon="-1.867866972461343">
        <ele>710.07000000000005</ele>
        <time>2025-04-27T12:33:06Z</time>
      </trkpt>
      <trkpt lat="42.781078973785043" lon="-1.867983983829618">
        <ele>709.11000000000001</ele>
        <time>2025-04-27T12:33:07Z</time>
      </trkpt>
      <trkpt lat="42.781119039282203" lon="-1.868114992976189">
        <ele>708.63</ele>
        <time>2025-04-27T12:33:08Z</time>
      </trkpt>
      <trkpt lat="42.78117997571826" lon="-1.868256982415915">
        <ele>708.14999999999998</ele>
        <time>2025-04-27T12:33:09Z</time>
      </trkpt>
      <trkpt lat="42.781311990693212" lon="-1.868566023185849">
        <ele>706.71000000000004</ele>
        <time>2025-04-27T12:33:11Z</time>
      </trkpt>
      <trkpt lat="42.781363958492875" lon="-1.868715975433588">
        <ele>705.75</ele>
        <time>2025-04-27T12:33:12Z</time>
      </trkpt>
      <trkpt lat="42.781368987634778" lon="-1.868885960429907">
        <ele>705.25999999999999</ele>
        <time>2025-04-27T12:33:13Z</time>
      </trkpt>
      <trkpt lat="42.781374016776681" lon="-1.869047982618213">
        <ele>704.29999999999995</ele>
        <time>2025-04-27T12:33:14Z</time>
      </trkpt>
      <trkpt lat="42.781378962099552" lon="-1.869205981492996">
        <ele>703.82000000000005</ele>
        <time>2025-04-27T12:33:15Z</time>
      </trkpt>
      <trkpt lat="42.781382985413074" lon="-1.869359035044909">
        <ele>703.34000000000003</ele>
        <time>2025-04-27T12:33:16Z</time>
      </trkpt>
      <trkpt lat="42.781422967091203" lon="-1.8694700114429">
        <ele>702.86000000000001</ele>
        <time>2025-04-27T12:33:17Z</time>
      </trkpt>
      <trkpt lat="42.781487004831433" lon="-1.869580987840891">
        <ele>702.38</ele>
        <time>2025-04-27T12:33:18Z</time>
      </trkpt>
      <trkpt lat="42.78158700093627" lon="-1.869680983945727">
        <ele>701.89999999999998</ele>
        <time>2025-04-27T12:33:19Z</time>
      </trkpt>
      <trkpt lat="42.781706023961306" lon="-1.869800006970763">
        <ele>701.41999999999996</ele>
        <time>2025-04-27T12:33:20Z</time>
      </trkpt>
      <trkpt lat="42.78206099756062" lon="-1.870140982791781">
        <ele>700.46000000000004</ele>
        <time>2025-04-27T12:33:23Z</time>
      </trkpt>
      <trkpt lat="42.782298037782311" lon="-1.870390009135008">
        <ele>699.5</ele>
        <time>2025-04-27T12:33:25Z</time>
      </trkpt>
      <trkpt lat="42.782388981431723" lon="-1.870536021888256">
        <ele>699.01999999999998</ele>
        <time>2025-04-27T12:33:26Z</time>
      </trkpt>
      <trkpt lat="42.782614035531878" lon="-1.870971964672208">
        <ele>696.13</ele>
        <time>2025-04-27T12:33:29Z</time>
      </trkpt>
      <trkpt lat="42.782650999724865" lon="-1.871129041537643">
        <ele>695.16999999999996</ele>
        <time>2025-04-27T12:33:30Z</time>
      </trkpt>
      <trkpt lat="42.782681006938219" lon="-1.871288968250155">
        <ele>694.21000000000004</ele>
        <time>2025-04-27T12:33:31Z</time>
      </trkpt>
      <trkpt lat="42.782702967524529" lon="-1.871456019580364">
        <ele>693.25</ele>
        <time>2025-04-27T12:33:32Z</time>
      </trkpt>
      <trkpt lat="42.782724006101489" lon="-1.871614018455148">
        <ele>691.80999999999995</ele>
        <time>2025-04-27T12:33:33Z</time>
      </trkpt>
      <trkpt lat="42.782749990001321" lon="-1.87174997292459">
        <ele>690.36000000000001</ele>
        <time>2025-04-27T12:33:34Z</time>
      </trkpt>
      <trkpt lat="42.782801035791636" lon="-1.871903026476502">
        <ele>689.39999999999998</ele>
        <time>2025-04-27T12:33:35Z</time>
      </trkpt>
      <trkpt lat="42.782862978056073" lon="-1.871960023418069">
        <ele>688.44000000000005</ele>
        <time>2025-04-27T12:33:36Z</time>
      </trkpt>
      <trkpt lat="42.782947970554233" lon="-1.872037975117564">
        <ele>687</ele>
        <time>2025-04-27T12:33:37Z</time>
      </trkpt>
      <trkpt lat="42.783025000244379" lon="-1.872107964009047">
        <ele>686.03999999999996</ele>
        <time>2025-04-27T12:33:38Z</time>
      </trkpt>
      <trkpt lat="42.783058024942875" lon="-1.872182982042432">
        <ele>685.08000000000004</ele>
        <time>2025-04-27T12:33:39Z</time>
      </trkpt>
      <trkpt lat="42.783058024942875" lon="-1.872265040874481">
        <ele>684.12</ele>
        <time>2025-04-27T12:33:40Z</time>
      </trkpt>
      <trkpt lat="42.783058024942875" lon="-1.872310973703861">
        <ele>683.63</ele>
        <time>2025-04-27T12:33:41Z</time>
      </trkpt>
      <trkpt lat="42.783020976930857" lon="-1.872310973703861">
        <ele>683.14999999999998</ele>
        <time>2025-04-27T12:33:42Z</time>
      </trkpt>
      <trkpt lat="42.782950988039374" lon="-1.872310973703861">
        <ele>682.66999999999996</ele>
        <time>2025-04-27T12:33:43Z</time>
      </trkpt>
      <trkpt lat="42.782864989712834" lon="-1.872238973155618">
        <ele>682.19000000000005</ele>
        <time>2025-04-27T12:33:44Z</time>
      </trkpt>
      <trkpt lat="42.782775973901153" lon="-1.872144006192684">
        <ele>681.71000000000004</ele>
        <time>2025-04-27T12:33:45Z</time>
      </trkpt>
      <trkpt lat="42.782680001109838" lon="-1.872020037844777">
        <ele>680.75</ele>
        <time>2025-04-27T12:33:46Z</time>
      </trkpt>
      <trkpt lat="42.782039036974311" lon="-1.871227025985718">
        <ele>674.01999999999998</ele>
        <time>2025-04-27T12:33:53Z</time>
      </trkpt>
      <trkpt lat="42.781984973698854" lon="-1.871195007115603">
        <ele>673.53999999999996</ele>
        <time>2025-04-27T12:33:54Z</time>
      </trkpt>
      <trkpt lat="42.781916996464133" lon="-1.871235994622111">
        <ele>672.58000000000004</ele>
        <time>2025-04-27T12:33:55Z</time>
      </trkpt>
      <trkpt lat="42.781878020614386" lon="-1.871258961036801">
        <ele>672.10000000000002</ele>
        <time>2025-04-27T12:33:56Z</time>
      </trkpt>
      <trkpt lat="42.781878020614386" lon="-1.871321992948651">
        <ele>671.62</ele>
        <time>2025-04-27T12:33:57Z</time>
      </trkpt>
      <trkpt lat="42.781879026442766" lon="-1.871432969346643">
        <ele>670.65999999999997</ele>
        <time>2025-04-27T12:33:58Z</time>
      </trkpt>
      <trkpt lat="42.781924037262797" lon="-1.871561966836453">
        <ele>669.70000000000005</ele>
        <time>2025-04-27T12:33:59Z</time>
      </trkpt>
      <trkpt lat="42.782370960339904" lon="-1.872884966433048">
        <ele>659.60000000000002</ele>
        <time>2025-04-27T12:34:06Z</time>
      </trkpt>
      <trkpt lat="42.782542034983635" lon="-1.873287968337536">
        <ele>656.72000000000003</ele>
        <time>2025-04-27T12:34:08Z</time>
      </trkpt>
      <trkpt lat="42.782643036916852" lon="-1.873468011617661">
        <ele>655.75999999999999</ele>
        <time>2025-04-27T12:34:09Z</time>
      </trkpt>
      <trkpt lat="42.783008990809321" lon="-1.873898003250361">
        <ele>652.87</ele>
        <time>2025-04-27T12:34:12Z</time>
      </trkpt>
      <trkpt lat="42.78347896412015" lon="-1.874421034008265">
        <ele>649.02999999999997</ele>
        <time>2025-04-27T12:34:16Z</time>
      </trkpt>
      <trkpt lat="42.783573009073734" lon="-1.874521030113101">
        <ele>648.07000000000005</ele>
        <time>2025-04-27T12:34:17Z</time>
      </trkpt>
      <trkpt lat="42.783618019893765" lon="-1.874647010117769">
        <ele>647.10000000000002</ele>
        <time>2025-04-27T12:34:18Z</time>
      </trkpt>
      <trkpt lat="42.783663030713797" lon="-1.874770978465676">
        <ele>646.13999999999999</ele>
        <time>2025-04-27T12:34:19Z</time>
      </trkpt>
      <trkpt lat="42.783654984086752" lon="-1.874898970127106">
        <ele>645.17999999999995</ele>
        <time>2025-04-27T12:34:20Z</time>
      </trkpt>
      <trkpt lat="42.78360603377223" lon="-1.875043977051973">
        <ele>644.22000000000003</ele>
        <time>2025-04-27T12:34:21Z</time>
      </trkpt>
      <trkpt lat="42.783550964668393" lon="-1.87520801089704">
        <ele>643.74000000000001</ele>
        <time>2025-04-27T12:34:22Z</time>
      </trkpt>
      <trkpt lat="42.783475024625659" lon="-1.875382019206882">
        <ele>643.25999999999999</ele>
        <time>2025-04-27T12:34:23Z</time>
      </trkpt>
      <trkpt lat="42.782709002494812" lon="-1.877164011821151">
        <ele>637.49000000000001</ele>
        <time>2025-04-27T12:34:32Z</time>
      </trkpt>
      <trkpt lat="42.781830998137593" lon="-1.879024039953947">
        <ele>636.04999999999995</ele>
        <time>2025-04-27T12:34:43Z</time>
      </trkpt>
      <trkpt lat="42.781719015911222" lon="-1.879122024402022">
        <ele>636.04999999999995</ele>
        <time>2025-04-27T12:34:44Z</time>
      </trkpt>
      <trkpt lat="42.781604016199708" lon="-1.879221014678478">
        <ele>636.04999999999995</ele>
        <time>2025-04-27T12:34:45Z</time>
      </trkpt>
      <trkpt lat="42.78148197568953" lon="-1.879307013005018">
        <ele>636.52999999999997</ele>
        <time>2025-04-27T12:34:46Z</time>
      </trkpt>
      <trkpt lat="42.781347027048469" lon="-1.879387982189655">
        <ele>636.52999999999997</ele>
        <time>2025-04-27T12:34:47Z</time>
      </trkpt>
      <trkpt lat="42.78051202185452" lon="-1.879942025989294">
        <ele>638.45000000000005</ele>
        <time>2025-04-27T12:34:53Z</time>
      </trkpt>
      <trkpt lat="42.779484987258911" lon="-1.881091017276049">
        <ele>643.25999999999999</ele>
        <time>2025-04-27T12:35:01Z</time>
      </trkpt>
      <trkpt lat="42.778789037838578" lon="-1.882063988596201">
        <ele>646.13999999999999</ele>
        <time>2025-04-27T12:35:09Z</time>
      </trkpt>
      <trkpt lat="42.778555015102029" lon="-1.882412005215883">
        <ele>647.10000000000002</ele>
        <time>2025-04-27T12:35:12Z</time>
      </trkpt>
      <trkpt lat="42.778458958491683" lon="-1.882500015199184">
        <ele>647.59000000000003</ele>
        <time>2025-04-27T12:35:13Z</time>
      </trkpt>
      <trkpt lat="42.778353011235595" lon="-1.882590036839247">
        <ele>648.07000000000005</ele>
        <time>2025-04-27T12:35:14Z</time>
      </trkpt>
      <trkpt lat="42.778230970725417" lon="-1.882610991597176">
        <ele>648.54999999999995</ele>
        <time>2025-04-27T12:35:15Z</time>
      </trkpt>
      <trkpt lat="42.778103984892368" lon="-1.882633036002517">
        <ele>649.50999999999999</ele>
        <time>2025-04-27T12:35:16Z</time>
      </trkpt>
      <trkpt lat="42.777973981574178" lon="-1.882656002417207">
        <ele>649.50999999999999</ele>
        <time>2025-04-27T12:35:17Z</time>
      </trkpt>
      <trkpt lat="42.777851019054651" lon="-1.882682992145419">
        <ele>649.50999999999999</ele>
        <time>2025-04-27T12:35:18Z</time>
      </trkpt>
      <trkpt lat="42.777734007686377" lon="-1.88274996355176">
        <ele>649.99000000000001</ele>
        <time>2025-04-27T12:35:19Z</time>
      </trkpt>
      <trkpt lat="42.777643986046314" lon="-1.882862029597163">
        <ele>649.99000000000001</ele>
        <time>2025-04-27T12:35:20Z</time>
      </trkpt>
      <trkpt lat="42.777555976063013" lon="-1.882989015430212">
        <ele>649.99000000000001</ele>
        <time>2025-04-27T12:35:21Z</time>
      </trkpt>
      <trkpt lat="42.777466960251331" lon="-1.883116001263261">
        <ele>649.99000000000001</ele>
        <time>2025-04-27T12:35:22Z</time>
      </trkpt>
      <trkpt lat="42.777371993288398" lon="-1.88322002068162">
        <ele>650.47000000000003</ele>
        <time>2025-04-27T12:35:23Z</time>
      </trkpt>
      <trkpt lat="42.777265040203929" lon="-1.883296966552734">
        <ele>650.47000000000003</ele>
        <time>2025-04-27T12:35:24Z</time>
      </trkpt>
      <trkpt lat="42.77713998220861" lon="-1.883308030664921">
        <ele>650.47000000000003</ele>
        <time>2025-04-27T12:35:25Z</time>
      </trkpt>
      <trkpt lat="42.777006961405277" lon="-1.883320016786456">
        <ele>650.95000000000005</ele>
        <time>2025-04-27T12:35:26Z</time>
      </trkpt>
      <trkpt lat="42.776872012764215" lon="-1.883333008736372">
        <ele>651.90999999999997</ele>
        <time>2025-04-27T12:35:27Z</time>
      </trkpt>
      <trkpt lat="42.77673002332449" lon="-1.883346000686288">
        <ele>652.38999999999999</ele>
        <time>2025-04-27T12:35:28Z</time>
      </trkpt>
      <trkpt lat="42.776584010571241" lon="-1.883358992636204">
        <ele>653.35000000000002</ele>
        <time>2025-04-27T12:35:29Z</time>
      </trkpt>
      <trkpt lat="42.776456018909812" lon="-1.883427975699306">
        <ele>654.30999999999995</ele>
        <time>2025-04-27T12:35:30Z</time>
      </trkpt>
      <trkpt lat="42.776335990056396" lon="-1.883524032309651">
        <ele>654.79999999999995</ele>
        <time>2025-04-27T12:35:31Z</time>
      </trkpt>
      <trkpt lat="42.776226019486785" lon="-1.883661998435855">
        <ele>655.75999999999999</ele>
        <time>2025-04-27T12:35:32Z</time>
      </trkpt>
      <trkpt lat="42.776141026988626" lon="-1.883828965947032">
        <ele>656.24000000000001</ele>
        <time>2025-04-27T12:35:33Z</time>
      </trkpt>
      <trkpt lat="42.776060979813337" lon="-1.884022001177073">
        <ele>657.20000000000005</ele>
        <time>2025-04-27T12:35:34Z</time>
      </trkpt>
      <trkpt lat="42.775981016457081" lon="-1.884216964244843">
        <ele>657.67999999999995</ele>
        <time>2025-04-27T12:35:35Z</time>
      </trkpt>
      <trkpt lat="42.775900969281793" lon="-1.884411005303264">
        <ele>658.63999999999999</ele>
        <time>2025-04-27T12:35:36Z</time>
      </trkpt>
      <trkpt lat="42.775783035904169" lon="-1.88457302749157">
        <ele>659.60000000000002</ele>
        <time>2025-04-27T12:35:37Z</time>
      </trkpt>
      <trkpt lat="42.775656972080469" lon="-1.884733038023114">
        <ele>660.55999999999995</ele>
        <time>2025-04-27T12:35:38Z</time>
      </trkpt>
      <trkpt lat="42.775535015389323" lon="-1.884889025241137">
        <ele>661.51999999999998</ele>
        <time>2025-04-27T12:35:39Z</time>
      </trkpt>
      <trkpt lat="42.775412974879146" lon="-1.885027997195721">
        <ele>662.49000000000001</ele>
        <time>2025-04-27T12:35:40Z</time>
      </trkpt>
      <trkpt lat="42.775297975167632" lon="-1.885151965543628">
        <ele>663.45000000000005</ele>
        <time>2025-04-27T12:35:41Z</time>
      </trkpt>
      <trkpt lat="42.775214994326234" lon="-1.885278029367328">
        <ele>664.40999999999997</ele>
        <time>2025-04-27T12:35:42Z</time>
      </trkpt>
      <trkpt lat="42.775151962414384" lon="-1.885417001321912">
        <ele>664.88999999999999</ele>
        <time>2025-04-27T12:35:43Z</time>
      </trkpt>
      <trkpt lat="42.775139976292849" lon="-1.885573994368315">
        <ele>665.85000000000002</ele>
        <time>2025-04-27T12:35:44Z</time>
      </trkpt>
      <trkpt lat="42.775139976292849" lon="-1.885762000456452">
        <ele>666.33000000000004</ele>
        <time>2025-04-27T12:35:45Z</time>
      </trkpt>
      <trkpt lat="42.775151040405035" lon="-1.885947994887829">
        <ele>666.33000000000004</ele>
        <time>2025-04-27T12:35:46Z</time>
      </trkpt>
      <trkpt lat="42.775297975167632" lon="-1.886952985078096">
        <ele>664.40999999999997</ele>
        <time>2025-04-27T12:35:53Z</time>
      </trkpt>
      <trkpt lat="42.775310967117548" lon="-1.887514991685748">
        <ele>662.97000000000003</ele>
        <time>2025-04-27T12:35:58Z</time>
      </trkpt>
      <trkpt lat="42.775291018188" lon="-1.887621022760868">
        <ele>662.97000000000003</ele>
        <time>2025-04-27T12:35:59Z</time>
      </trkpt>
      <trkpt lat="42.775268973782659" lon="-1.887739039957523">
        <ele>662.97000000000003</ele>
        <time>2025-04-27T12:36:00Z</time>
      </trkpt>
      <trkpt lat="42.775224968791008" lon="-1.887791007757187">
        <ele>662.97000000000003</ele>
        <time>2025-04-27T12:36:01Z</time>
      </trkpt>
      <trkpt lat="42.775154979899526" lon="-1.887872982770205">
        <ele>662.97000000000003</ele>
        <time>2025-04-27T12:36:02Z</time>
      </trkpt>
      <trkpt lat="42.775084991008043" lon="-1.887956969439983">
        <ele>662.97000000000003</ele>
        <time>2025-04-27T12:36:03Z</time>
      </trkpt>
      <trkpt lat="42.774135991930962" lon="-1.888998001813889">
        <ele>661.51999999999998</ele>
        <time>2025-04-27T12:36:15Z</time>
      </trkpt>
      <trkpt lat="42.774011017754674" lon="-1.889208974316716">
        <ele>661.51999999999998</ele>
        <time>2025-04-27T12:36:17Z</time>
      </trkpt>
      <trkpt lat="42.773967012763023" lon="-1.889321962371469">
        <ele>661.03999999999996</ele>
        <time>2025-04-27T12:36:18Z</time>
      </trkpt>
      <trkpt lat="42.773932982236147" lon="-1.889454983174801">
        <ele>661.03999999999996</ele>
        <time>2025-04-27T12:36:19Z</time>
      </trkpt>
      <trkpt lat="42.773924013599753" lon="-1.889590015634894">
        <ele>661.03999999999996</ele>
        <time>2025-04-27T12:36:20Z</time>
      </trkpt>
      <trkpt lat="42.77393801137805" lon="-1.889736028388143">
        <ele>660.55999999999995</ele>
        <time>2025-04-27T12:36:21Z</time>
      </trkpt>
      <trkpt lat="42.773952009156346" lon="-1.889885980635881">
        <ele>660.08000000000004</ele>
        <time>2025-04-27T12:36:22Z</time>
      </trkpt>
      <trkpt lat="42.773975981399417" lon="-1.890040962025523">
        <ele>659.60000000000002</ele>
        <time>2025-04-27T12:36:23Z</time>
      </trkpt>
      <trkpt lat="42.774329027161002" lon="-1.891817003488541">
        <ele>655.75999999999999</ele>
        <time>2025-04-27T12:36:33Z</time>
      </trkpt>
      <trkpt lat="42.774343024939299" lon="-1.891993023455143">
        <ele>655.75999999999999</ele>
        <time>2025-04-27T12:36:34Z</time>
      </trkpt>
      <trkpt lat="42.774319974705577" lon="-1.892149010673165">
        <ele>655.27999999999997</ele>
        <time>2025-04-27T12:36:35Z</time>
      </trkpt>
      <trkpt lat="42.774267001077533" lon="-1.892296029254794">
        <ele>655.27999999999997</ele>
        <time>2025-04-27T12:36:36Z</time>
      </trkpt>
      <trkpt lat="42.774185026064515" lon="-1.892416980117559">
        <ele>654.79999999999995</ele>
        <time>2025-04-27T12:36:37Z</time>
      </trkpt>
      <trkpt lat="42.774088969454169" lon="-1.89248101785779">
        <ele>654.79999999999995</ele>
        <time>2025-04-27T12:36:38Z</time>
      </trkpt>
      <trkpt lat="42.773919990286231" lon="-1.892513036727905">
        <ele>654.30999999999995</ele>
        <time>2025-04-27T12:36:39Z</time>
      </trkpt>
      <trkpt lat="42.773765008896589" lon="-1.892542038112879">
        <ele>653.35000000000002</ele>
        <time>2025-04-27T12:36:40Z</time>
      </trkpt>
      <trkpt lat="42.772314017638564" lon="-1.892855018377304">
        <ele>645.65999999999997</ele>
        <time>2025-04-27T12:36:48Z</time>
      </trkpt>
      <trkpt lat="42.771975975483656" lon="-1.892988039180636">
        <ele>643.25999999999999</ele>
        <time>2025-04-27T12:36:50Z</time>
      </trkpt>
      <trkpt lat="42.771844966337085" lon="-1.893080994486809">
        <ele>642.29999999999995</ele>
        <time>2025-04-27T12:36:51Z</time>
      </trkpt>
      <trkpt lat="42.771726027131081" lon="-1.893216026946902">
        <ele>641.34000000000003</ele>
        <time>2025-04-27T12:36:52Z</time>
      </trkpt>
      <trkpt lat="42.771096965298057" lon="-1.894037034362555">
        <ele>635.57000000000005</ele>
        <time>2025-04-27T12:36:57Z</time>
      </trkpt>
      <trkpt lat="42.770897978916764" lon="-1.894367029890418">
        <ele>633.16999999999996</ele>
        <time>2025-04-27T12:36:59Z</time>
      </trkpt>
      <trkpt lat="42.770793037489057" lon="-1.894457973539829">
        <ele>632.20000000000005</ele>
        <time>2025-04-27T12:37:00Z</time>
      </trkpt>
      <trkpt lat="42.770668985322118" lon="-1.894530979916453">
        <ele>631.72000000000003</ele>
        <time>2025-04-27T12:37:01Z</time>
      </trkpt>
      <trkpt lat="42.770538982003927" lon="-1.89460901543498">
        <ele>631.24000000000001</ele>
        <time>2025-04-27T12:37:02Z</time>
      </trkpt>
      <trkpt lat="42.770402021706104" lon="-1.894689984619618">
        <ele>630.27999999999997</ele>
        <time>2025-04-27T12:37:03Z</time>
      </trkpt>
      <trkpt lat="42.770269000902772" lon="-1.894769025966525">
        <ele>629.79999999999995</ele>
        <time>2025-04-27T12:37:04Z</time>
      </trkpt>
      <trkpt lat="42.770160958170891" lon="-1.894856030121446">
        <ele>629.32000000000005</ele>
        <time>2025-04-27T12:37:05Z</time>
      </trkpt>
      <trkpt lat="42.770075965672731" lon="-1.894990978762507">
        <ele>628.84000000000003</ele>
        <time>2025-04-27T12:37:06Z</time>
      </trkpt>
      <trkpt lat="42.770043024793267" lon="-1.895127017050982">
        <ele>628.36000000000001</ele>
        <time>2025-04-27T12:37:07Z</time>
      </trkpt>
      <trkpt lat="42.770022992044687" lon="-1.895301025360823">
        <ele>627.39999999999998</ele>
        <time>2025-04-27T12:37:08Z</time>
      </trkpt>
      <trkpt lat="42.770060962066054" lon="-1.895482996478677">
        <ele>626.44000000000005</ele>
        <time>2025-04-27T12:37:09Z</time>
      </trkpt>
      <trkpt lat="42.770101027563214" lon="-1.895676031708717">
        <ele>625.47000000000003</ele>
        <time>2025-04-27T12:37:10Z</time>
      </trkpt>
      <trkpt lat="42.770142015069723" lon="-1.895869988948107">
        <ele>624.50999999999999</ele>
        <time>2025-04-27T12:37:11Z</time>
      </trkpt>
      <trkpt lat="42.770204963162541" lon="-1.896235020831227">
        <ele>623.54999999999995</ele>
        <time>2025-04-27T12:37:13Z</time>
      </trkpt>
      <trkpt lat="42.770204963162541" lon="-1.896410034969449">
        <ele>622.59000000000003</ele>
        <time>2025-04-27T12:37:14Z</time>
      </trkpt>
      <trkpt lat="42.770186020061374" lon="-1.896551018580794">
        <ele>622.11000000000001</ele>
        <time>2025-04-27T12:37:15Z</time>
      </trkpt>
      <trkpt lat="42.770141009241343" lon="-1.896686973050237">
        <ele>621.14999999999998</ele>
        <time>2025-04-27T12:37:16Z</time>
      </trkpt>
      <trkpt lat="42.770042018964887" lon="-1.896770959720016">
        <ele>620.66999999999996</ele>
        <time>2025-04-27T12:37:17Z</time>
      </trkpt>
      <trkpt lat="42.769924001768231" lon="-1.896851006895304">
        <ele>620.19000000000005</ele>
        <time>2025-04-27T12:37:18Z</time>
      </trkpt>
      <trkpt lat="42.769788969308138" lon="-1.896925019100308">
        <ele>619.23000000000002</ele>
        <time>2025-04-27T12:37:19Z</time>
      </trkpt>
      <trkpt lat="42.768837958574295" lon="-1.897519966587424">
        <ele>614.41999999999996</ele>
        <time>2025-04-27T12:37:26Z</time>
      </trkpt>
      <trkpt lat="42.768756989389658" lon="-1.897647036239505">
        <ele>613.46000000000004</ele>
        <time>2025-04-27T12:37:27Z</time>
      </trkpt>
      <trkpt lat="42.768676020205021" lon="-1.897801011800766">
        <ele>612.5</ele>
        <time>2025-04-27T12:37:28Z</time>
      </trkpt>
      <trkpt lat="42.76822498999536" lon="-1.898654960095882">
        <ele>607.69000000000005</ele>
        <time>2025-04-27T12:37:33Z</time>
      </trkpt>
      <trkpt lat="42.76811895892024" lon="-1.89879703335464">
        <ele>607.21000000000004</ele>
        <time>2025-04-27T12:37:34Z</time>
      </trkpt>
      <trkpt lat="42.767992978915572" lon="-1.89892603084445">
        <ele>606.73000000000002</ele>
        <time>2025-04-27T12:37:35Z</time>
      </trkpt>
      <trkpt lat="42.767869010567665" lon="-1.899054022505879">
        <ele>606.73000000000002</ele>
        <time>2025-04-27T12:37:36Z</time>
      </trkpt>
      <trkpt lat="42.767747975885868" lon="-1.899177990853787">
        <ele>606.25</ele>
        <time>2025-04-27T12:37:37Z</time>
      </trkpt>
      <trkpt lat="42.767526023089886" lon="-1.899406984448433">
        <ele>604.80999999999995</ele>
        <time>2025-04-27T12:37:39Z</time>
      </trkpt>
      <trkpt lat="42.767457962036133" lon="-1.899475967511535">
        <ele>604.33000000000004</ele>
        <time>2025-04-27T12:37:40Z</time>
      </trkpt>
      <trkpt lat="42.76740700006485" lon="-1.899638995528221">
        <ele>603.85000000000002</ele>
        <time>2025-04-27T12:37:41Z</time>
      </trkpt>
      <trkpt lat="42.767351008951664" lon="-1.899819038808346">
        <ele>603.36000000000001</ele>
        <time>2025-04-27T12:37:42Z</time>
      </trkpt>
      <trkpt lat="42.767351008951664" lon="-1.899987012147903">
        <ele>602.39999999999998</ele>
        <time>2025-04-27T12:37:43Z</time>
      </trkpt>
      <trkpt lat="42.767351008951664" lon="-1.900194967165589">
        <ele>601.44000000000005</ele>
        <time>2025-04-27T12:37:44Z</time>
      </trkpt>
      <trkpt lat="42.767319995909929" lon="-1.901008011773229">
        <ele>599.03999999999996</ele>
        <time>2025-04-27T12:37:48Z</time>
      </trkpt>
      <trkpt lat="42.767299041152" lon="-1.901160981506109">
        <ele>598.55999999999995</ele>
        <time>2025-04-27T12:37:49Z</time>
      </trkpt>
      <trkpt lat="42.76721497066319" lon="-1.901261983439326">
        <ele>598.55999999999995</ele>
        <time>2025-04-27T12:37:50Z</time>
      </trkpt>
      <trkpt lat="42.767095025628805" lon="-1.901326021179557">
        <ele>597.60000000000002</ele>
        <time>2025-04-27T12:37:51Z</time>
      </trkpt>
      <trkpt lat="42.76695798151195" lon="-1.901386035606265">
        <ele>596.63999999999999</ele>
        <time>2025-04-27T12:37:52Z</time>
      </trkpt>
      <trkpt lat="42.766660004854202" lon="-1.901518972590566">
        <ele>594.71000000000004</ele>
        <time>2025-04-27T12:37:54Z</time>
      </trkpt>
      <trkpt lat="42.766528995707631" lon="-1.901628021150827">
        <ele>594.23000000000002</ele>
        <time>2025-04-27T12:37:55Z</time>
      </trkpt>
      <trkpt lat="42.766405027359724" lon="-1.901765987277031">
        <ele>593.26999999999998</ele>
        <time>2025-04-27T12:37:56Z</time>
      </trkpt>
      <trkpt lat="42.765755010768771" lon="-1.902995025739074">
        <ele>589.42999999999995</ele>
        <time>2025-04-27T12:38:03Z</time>
      </trkpt>
      <trkpt lat="42.76568996720016" lon="-1.903176996856928">
        <ele>588.95000000000005</ele>
        <time>2025-04-27T12:38:04Z</time>
      </trkpt>
      <trkpt lat="42.765463991090655" lon="-1.90436102449894">
        <ele>586.05999999999995</ele>
        <time>2025-04-27T12:38:10Z</time>
      </trkpt>
      <trkpt lat="42.765516964718699" lon="-1.905070971697569">
        <ele>584.62</ele>
        <time>2025-04-27T12:38:14Z</time>
      </trkpt>
      <trkpt lat="42.765578990802169" lon="-1.905181026086211">
        <ele>583.65999999999997</ele>
        <time>2025-04-27T12:38:15Z</time>
      </trkpt>
      <trkpt lat="42.765647973865271" lon="-1.905302982777357">
        <ele>583.17999999999995</ele>
        <time>2025-04-27T12:38:16Z</time>
      </trkpt>
      <trkpt lat="42.765751993283629" lon="-1.905403984710574">
        <ele>582.70000000000005</ele>
        <time>2025-04-27T12:38:17Z</time>
      </trkpt>
      <trkpt lat="42.765870010480285" lon="-1.905482020229101">
        <ele>581.73000000000002</ele>
        <time>2025-04-27T12:38:18Z</time>
      </trkpt>
      <trkpt lat="42.765991967171431" lon="-1.905560977756977">
        <ele>581.25</ele>
        <time>2025-04-27T12:38:19Z</time>
      </trkpt>
      <trkpt lat="42.766115013509989" lon="-1.905642030760646">
        <ele>580.76999999999998</ele>
        <time>2025-04-27T12:38:20Z</time>
      </trkpt>
      <trkpt lat="42.766238981857896" lon="-1.905722999945283">
        <ele>580.28999999999996</ele>
        <time>2025-04-27T12:38:21Z</time>
      </trkpt>
      <trkpt lat="42.766335038468242" lon="-1.905827019363642">
        <ele>579.80999999999995</ele>
        <time>2025-04-27T12:38:22Z</time>
      </trkpt>
      <trkpt lat="42.766409972682595" lon="-1.905969008803368">
        <ele>578.85000000000002</ele>
        <time>2025-04-27T12:38:23Z</time>
      </trkpt>
      <trkpt lat="42.766450038179755" lon="-1.906142011284828">
        <ele>578.37</ele>
        <time>2025-04-27T12:38:24Z</time>
      </trkpt>
      <trkpt lat="42.766463030129671" lon="-1.906304033473134">
        <ele>577.88999999999999</ele>
        <time>2025-04-27T12:38:25Z</time>
      </trkpt>
      <trkpt lat="42.76644098572433" lon="-1.906478963792324">
        <ele>577.40999999999997</ele>
        <time>2025-04-27T12:38:26Z</time>
      </trkpt>
      <trkpt lat="42.766394969075918" lon="-1.906636962667108">
        <ele>576.45000000000005</ele>
        <time>2025-04-27T12:38:27Z</time>
      </trkpt>
      <trkpt lat="42.766307964920998" lon="-1.906788004562259">
        <ele>575.97000000000003</ele>
        <time>2025-04-27T12:38:28Z</time>
      </trkpt>
      <trkpt lat="42.766216015443206" lon="-1.906946003437042">
        <ele>575.00999999999999</ele>
        <time>2025-04-27T12:38:29Z</time>
      </trkpt>
      <trkpt lat="42.765152016654611" lon="-1.908847019076347">
        <ele>571.15999999999997</ele>
        <time>2025-04-27T12:38:40Z</time>
      </trkpt>
      <trkpt lat="42.764994017779827" lon="-1.909221019595861">
        <ele>570.20000000000005</ele>
        <time>2025-04-27T12:38:42Z</time>
      </trkpt>
      <trkpt lat="42.764905001968145" lon="-1.909431992098689">
        <ele>570.20000000000005</ele>
        <time>2025-04-27T12:38:43Z</time>
      </trkpt>
      <trkpt lat="42.764814980328083" lon="-1.909575993195176">
        <ele>570.20000000000005</ele>
        <time>2025-04-27T12:38:44Z</time>
      </trkpt>
      <trkpt lat="42.764318017289042" lon="-1.910407980903983">
        <ele>571.63999999999999</ele>
        <time>2025-04-27T12:38:49Z</time>
      </trkpt>
      <trkpt lat="42.764250040054321" lon="-1.910566985607147">
        <ele>571.63999999999999</ele>
        <time>2025-04-27T12:38:50Z</time>
      </trkpt>
      <trkpt lat="42.764235036447644" lon="-1.910734958946705">
        <ele>571.63999999999999</ele>
        <time>2025-04-27T12:38:51Z</time>
      </trkpt>
      <trkpt lat="42.764230007305741" lon="-1.910912990570068">
        <ele>571.15999999999997</ele>
        <time>2025-04-27T12:38:52Z</time>
      </trkpt>
      <trkpt lat="42.764223972335458" lon="-1.911093033850193">
        <ele>571.15999999999997</ele>
        <time>2025-04-27T12:38:53Z</time>
      </trkpt>
      <trkpt lat="42.764220032840967" lon="-1.91127902828157">
        <ele>570.67999999999995</ele>
        <time>2025-04-27T12:38:54Z</time>
      </trkpt>
      <trkpt lat="42.764432011172175" lon="-1.91289103589952">
        <ele>562.99000000000001</ele>
        <time>2025-04-27T12:39:02Z</time>
      </trkpt>
      <trkpt lat="42.764468975365162" lon="-1.913068983703852">
        <ele>561.54999999999995</ele>
        <time>2025-04-27T12:39:03Z</time>
      </trkpt>
      <trkpt lat="42.764541981741786" lon="-1.913217008113861">
        <ele>560.59000000000003</ele>
        <time>2025-04-27T12:39:04Z</time>
      </trkpt>
      <trkpt lat="42.764629991725087" lon="-1.913368972018361">
        <ele>559.62</ele>
        <time>2025-04-27T12:39:05Z</time>
      </trkpt>
      <trkpt lat="42.764715990051627" lon="-1.913519008085132">
        <ele>558.17999999999995</ele>
        <time>2025-04-27T12:39:06Z</time>
      </trkpt>
      <trkpt lat="42.764792013913393" lon="-1.913650017231703">
        <ele>557.22000000000003</ele>
        <time>2025-04-27T12:39:07Z</time>
      </trkpt>
      <trkpt lat="42.764810035005212" lon="-1.913780020549893">
        <ele>555.77999999999997</ele>
        <time>2025-04-27T12:39:08Z</time>
      </trkpt>
      <trkpt lat="42.764811962842941" lon="-1.913910023868084">
        <ele>554.82000000000005</ele>
        <time>2025-04-27T12:39:09Z</time>
      </trkpt>
      <trkpt lat="42.764776004478335" lon="-1.914088977500796">
        <ele>553.38</ele>
        <time>2025-04-27T12:39:10Z</time>
      </trkpt>
      <trkpt lat="42.764724036678672" lon="-1.914223004132509">
        <ele>552.40999999999997</ele>
        <time>2025-04-27T12:39:11Z</time>
      </trkpt>
      <trkpt lat="42.764071002602577" lon="-1.915783965960145">
        <ele>542.79999999999995</ele>
        <time>2025-04-27T12:39:19Z</time>
      </trkpt>
      <trkpt lat="42.763977041468024" lon="-1.915940959006548">
        <ele>541.36000000000001</ele>
        <time>2025-04-27T12:39:20Z</time>
      </trkpt>
      <trkpt lat="42.763849971815944" lon="-1.916074985638261">
        <ele>539.91999999999996</ele>
        <time>2025-04-27T12:39:21Z</time>
      </trkpt>
      <trkpt lat="42.763718962669373" lon="-1.916214041411877">
        <ele>538.48000000000002</ele>
        <time>2025-04-27T12:39:22Z</time>
      </trkpt>
      <trkpt lat="42.763584014028311" lon="-1.9163319747895">
        <ele>536.54999999999995</ele>
        <time>2025-04-27T12:39:23Z</time>
      </trkpt>
      <trkpt lat="42.763441018760204" lon="-1.91641797311604">
        <ele>535.11000000000001</ele>
        <time>2025-04-27T12:39:24Z</time>
      </trkpt>
      <trkpt lat="42.76330104097724" lon="-1.916501959785819">
        <ele>534.14999999999998</ele>
        <time>2025-04-27T12:39:25Z</time>
      </trkpt>
      <trkpt lat="42.763165002688766" lon="-1.916583012789488">
        <ele>532.71000000000004</ele>
        <time>2025-04-27T12:39:26Z</time>
      </trkpt>
      <trkpt lat="42.762537030503154" lon="-1.91695298999548">
        <ele>527.41999999999996</ele>
        <time>2025-04-27T12:39:32Z</time>
      </trkpt>
      <trkpt lat="42.762513980269432" lon="-1.91701702773571">
        <ele>526.94000000000005</ele>
        <time>2025-04-27T12:39:33Z</time>
      </trkpt>
      <trkpt lat="42.762505011633039" lon="-1.917074024677277">
        <ele>526.46000000000004</ele>
        <time>2025-04-27T12:39:34Z</time>
      </trkpt>
      <trkpt lat="42.762556979432702" lon="-1.917104031890631">
        <ele>525.98000000000002</ele>
        <time>2025-04-27T12:39:35Z</time>
      </trkpt>
      <trkpt lat="42.762620011344552" lon="-1.917116018012166">
        <ele>525.5</ele>
        <time>2025-04-27T12:39:36Z</time>
      </trkpt>
      <trkpt lat="42.762715984135866" lon="-1.917135966941714">
        <ele>525.5</ele>
        <time>2025-04-27T12:39:37Z</time>
      </trkpt>
      <trkpt lat="42.762797959148884" lon="-1.917107971385121">
        <ele>525.01999999999998</ele>
        <time>2025-04-27T12:39:38Z</time>
      </trkpt>
      <trkpt lat="42.763405982404947" lon="-1.916905967518687">
        <ele>524.05999999999995</ele>
        <time>2025-04-27T12:39:44Z</time>
      </trkpt>
      <trkpt lat="42.763444036245346" lon="-1.916929017752409">
        <ele>523.58000000000004</ele>
        <time>2025-04-27T12:39:45Z</time>
      </trkpt>
      <trkpt lat="42.763483012095094" lon="-1.916987020522356">
        <ele>523.09000000000003</ele>
        <time>2025-04-27T12:39:46Z</time>
      </trkpt>
      <trkpt lat="42.763510001823306" lon="-1.917028008028865">
        <ele>522.61000000000001</ele>
        <time>2025-04-27T12:39:47Z</time>
      </trkpt>
      <trkpt lat="42.763489969074726" lon="-1.917079975828528">
        <ele>521.64999999999998</ele>
        <time>2025-04-27T12:39:48Z</time>
      </trkpt>
      <trkpt lat="42.763444958254695" lon="-1.91716899164021">
        <ele>521.16999999999996</ele>
        <time>2025-04-27T12:39:49Z</time>
      </trkpt>
      <trkpt lat="42.763369018211961" lon="-1.917280973866582">
        <ele>520.21000000000004</ele>
        <time>2025-04-27T12:39:50Z</time>
      </trkpt>
      <trkpt lat="42.76268295943737" lon="-1.918363999575377">
        <ele>510.60000000000002</ele>
        <time>2025-04-27T12:39:57Z</time>
      </trkpt>
      <trkpt lat="42.762184990569949" lon="-1.919261030852795">
        <ele>507.70999999999998</ele>
        <time>2025-04-27T12:40:02Z</time>
      </trkpt>
      <trkpt lat="42.762049036100507" lon="-1.919412994757295">
        <ele>507.70999999999998</ele>
        <time>2025-04-27T12:40:03Z</time>
      </trkpt>
      <trkpt lat="42.760666022077203" lon="-1.920946966856718">
        <ele>506.26999999999998</ele>
        <time>2025-04-27T12:40:12Z</time>
      </trkpt>
      <trkpt lat="42.758478010073304" lon="-1.923404037952423">
        <ele>501.94999999999999</ele>
        <time>2025-04-27T12:40:26Z</time>
      </trkpt>
      <trkpt lat="42.757305968552828" lon="-1.924914037808776">
        <ele>500.98000000000002</ele>
        <time>2025-04-27T12:40:34Z</time>
      </trkpt>
      <trkpt lat="42.756249010562897" lon="-1.926485979929566">
        <ele>504.35000000000002</ele>
        <time>2025-04-27T12:40:43Z</time>
      </trkpt>
      <trkpt lat="42.756177010014653" lon="-1.926648002117872">
        <ele>504.82999999999998</ele>
        <time>2025-04-27T12:40:44Z</time>
      </trkpt>
      <trkpt lat="42.756113978102803" lon="-1.92683600820601">
        <ele>505.79000000000002</ele>
        <time>2025-04-27T12:40:45Z</time>
      </trkpt>
      <trkpt lat="42.755616009235382" lon="-1.928613977506757">
        <ele>513.48000000000002</ele>
        <time>2025-04-27T12:40:53Z</time>
      </trkpt>
      <trkpt lat="42.75559295900166" lon="-1.928821010515094">
        <ele>514.44000000000005</ele>
        <time>2025-04-27T12:40:54Z</time>
      </trkpt>
      <trkpt lat="42.755570998415351" lon="-1.929023014381528">
        <ele>514.44000000000005</ele>
        <time>2025-04-27T12:40:55Z</time>
      </trkpt>
      <trkpt lat="42.755598993971944" lon="-1.929212026298046">
        <ele>513.96000000000004</ele>
        <time>2025-04-27T12:40:56Z</time>
      </trkpt>
      <trkpt lat="42.75582798756659" lon="-1.930718002840877">
        <ele>510.12</ele>
        <time>2025-04-27T12:41:04Z</time>
      </trkpt>
      <trkpt lat="42.75582798756659" lon="-1.930927969515324">
        <ele>509.63999999999999</ele>
        <time>2025-04-27T12:41:05Z</time>
      </trkpt>
      <trkpt lat="42.75582798756659" lon="-1.931083034723997">
        <ele>509.16000000000003</ele>
        <time>2025-04-27T12:41:06Z</time>
      </trkpt>
      <trkpt lat="42.755807032808661" lon="-1.931207003071904">
        <ele>508.67000000000002</ele>
        <time>2025-04-27T12:41:07Z</time>
      </trkpt>
      <trkpt lat="42.755745006725192" lon="-1.931318985298276">
        <ele>508.19</ele>
        <time>2025-04-27T12:41:08Z</time>
      </trkpt>
      <trkpt lat="42.75567501783371" lon="-1.931408001109958">
        <ele>508.19</ele>
        <time>2025-04-27T12:41:09Z</time>
      </trkpt>
      <trkpt lat="42.755588013678789" lon="-1.931495005264878">
        <ele>508.19</ele>
        <time>2025-04-27T12:41:10Z</time>
      </trkpt>
      <trkpt lat="42.755485000088811" lon="-1.931598018854857">
        <ele>508.19</ele>
        <time>2025-04-27T12:41:11Z</time>
      </trkpt>
      <trkpt lat="42.754918970167637" lon="-1.931947963312268">
        <ele>506.75</ele>
        <time>2025-04-27T12:41:19Z</time>
      </trkpt>
      <trkpt lat="42.754442961886525" lon="-1.932239988818765">
        <ele>506.26999999999998</ele>
        <time>2025-04-27T12:41:26Z</time>
      </trkpt>
      <trkpt lat="42.753776013851166" lon="-1.932639973238111">
        <ele>505.31</ele>
        <time>2025-04-27T12:41:35Z</time>
      </trkpt>
      <trkpt lat="42.753210989758372" lon="-1.9329599943012">
        <ele>506.26999999999998</ele>
        <time>2025-04-27T12:41:43Z</time>
      </trkpt>
      <trkpt lat="42.752371039241552" lon="-1.933447988703847">
        <ele>497.62</ele>
        <time>2025-04-27T12:41:53Z</time>
      </trkpt>
      <trkpt lat="42.752319993451238" lon="-1.933552008122206">
        <ele>496.18000000000001</ele>
        <time>2025-04-27T12:41:54Z</time>
      </trkpt>
      <trkpt lat="42.752274982631207" lon="-1.933674970641732">
        <ele>494.74000000000001</ele>
        <time>2025-04-27T12:41:55Z</time>
      </trkpt>
      <trkpt lat="42.752229971811175" lon="-1.93379801698029">
        <ele>493.29000000000002</ele>
        <time>2025-04-27T12:41:56Z</time>
      </trkpt>
      <trkpt lat="42.752211028710008" lon="-1.933923996984959">
        <ele>491.85000000000002</ele>
        <time>2025-04-27T12:41:57Z</time>
      </trkpt>
      <trkpt lat="42.752232989296317" lon="-1.93405601195991">
        <ele>490.88999999999999</ele>
        <time>2025-04-27T12:41:58Z</time>
      </trkpt>
      <trkpt lat="42.752266013994813" lon="-1.934172017499805">
        <ele>490.41000000000003</ele>
        <time>2025-04-27T12:41:59Z</time>
      </trkpt>
      <trkpt lat="42.752330973744392" lon="-1.934302020817995">
        <ele>489.44999999999999</ele>
        <time>2025-04-27T12:42:00Z</time>
      </trkpt>
      <trkpt lat="42.752400962635875" lon="-1.934385001659393">
        <ele>488.97000000000003</ele>
        <time>2025-04-27T12:42:01Z</time>
      </trkpt>
      <trkpt lat="42.753259018063545" lon="-1.935414969921112">
        <ele>488.00999999999999</ele>
        <time>2025-04-27T12:42:09Z</time>
      </trkpt>
      <trkpt lat="42.753338981419802" lon="-1.935525024309754">
        <ele>487.05000000000001</ele>
        <time>2025-04-27T12:42:10Z</time>
      </trkpt>
      <trkpt lat="42.753410981968045" lon="-1.93572903983295">
        <ele>486.56</ele>
        <time>2025-04-27T12:42:11Z</time>
      </trkpt>
      <trkpt lat="42.753467978909612" lon="-1.935897013172507">
        <ele>485.60000000000002</ele>
        <time>2025-04-27T12:42:12Z</time>
      </trkpt>
      <trkpt lat="42.753472002223134" lon="-1.936105974018574">
        <ele>484.63999999999999</ele>
        <time>2025-04-27T12:42:13Z</time>
      </trkpt>
      <trkpt lat="42.753476025536656" lon="-1.936321975663304">
        <ele>483.68000000000001</ele>
        <time>2025-04-27T12:42:14Z</time>
      </trkpt>
      <trkpt lat="42.753478959202766" lon="-1.936538983136416">
        <ele>482.24000000000001</ele>
        <time>2025-04-27T12:42:15Z</time>
      </trkpt>
      <trkpt lat="42.7534219622612" lon="-1.93751597777009">
        <ele>475.99000000000001</ele>
        <time>2025-04-27T12:42:20Z</time>
      </trkpt>
      <trkpt lat="42.753382986411452" lon="-1.937658973038197">
        <ele>475.02999999999997</ele>
        <time>2025-04-27T12:42:21Z</time>
      </trkpt>
      <trkpt lat="42.753301011398435" lon="-1.937782019376755">
        <ele>473.58999999999997</ele>
        <time>2025-04-27T12:42:22Z</time>
      </trkpt>
      <trkpt lat="42.753209983929992" lon="-1.937904981896281">
        <ele>472.63</ele>
        <time>2025-04-27T12:42:23Z</time>
      </trkpt>
      <trkpt lat="42.753096995875239" lon="-1.938005983829498">
        <ele>471.66000000000003</ele>
        <time>2025-04-27T12:42:24Z</time>
      </trkpt>
      <trkpt lat="42.752983001992106" lon="-1.938107991591096">
        <ele>470.22000000000003</ele>
        <time>2025-04-27T12:42:25Z</time>
      </trkpt>
      <trkpt lat="42.752872025594115" lon="-1.938207987695932">
        <ele>468.77999999999997</ele>
        <time>2025-04-27T12:42:26Z</time>
      </trkpt>
      <trkpt lat="42.751997960731387" lon="-1.938990019261837">
        <ele>456.75999999999999</ele>
        <time>2025-04-27T12:42:34Z</time>
      </trkpt>
      <trkpt lat="42.751903999596834" lon="-1.93908398039639">
        <ele>455.31999999999999</ele>
        <time>2025-04-27T12:42:35Z</time>
      </trkpt>
      <trkpt lat="42.751853037625551" lon="-1.939195962622762">
        <ele>454.83999999999997</ele>
        <time>2025-04-27T12:42:36Z</time>
      </trkpt>
      <trkpt lat="42.751816995441914" lon="-1.939295958727598">
        <ele>454.36000000000001</ele>
        <time>2025-04-27T12:42:37Z</time>
      </trkpt>
      <trkpt lat="42.751828981563449" lon="-1.939425962045789">
        <ele>454.36000000000001</ele>
        <time>2025-04-27T12:42:38Z</time>
      </trkpt>
      <trkpt lat="42.751879021525383" lon="-1.939578009769321">
        <ele>454.83999999999997</ele>
        <time>2025-04-27T12:42:39Z</time>
      </trkpt>
      <trkpt lat="42.751969965174794" lon="-1.939714970067143">
        <ele>454.83999999999997</ele>
        <time>2025-04-27T12:42:40Z</time>
      </trkpt>
      <trkpt lat="42.752416972070932" lon="-1.940821968019009">
        <ele>457.72000000000003</ele>
        <time>2025-04-27T12:42:46Z</time>
      </trkpt>
      <trkpt lat="42.752443039789796" lon="-1.941022966057062">
        <ele>457.72000000000003</ele>
        <time>2025-04-27T12:42:47Z</time>
      </trkpt>
      <trkpt lat="42.752454020082951" lon="-1.941246008500457">
        <ele>457.24000000000001</ele>
        <time>2025-04-27T12:42:48Z</time>
      </trkpt>
      <trkpt lat="42.752463994547725" lon="-1.941473996266723">
        <ele>457.72000000000003</ele>
        <time>2025-04-27T12:42:49Z</time>
      </trkpt>
      <trkpt lat="42.752474974840879" lon="-1.941707013174892">
        <ele>458.20999999999998</ele>
        <time>2025-04-27T12:42:50Z</time>
      </trkpt>
      <trkpt lat="42.752523003146052" lon="-1.94193902425468">
        <ele>459.17000000000002</ele>
        <time>2025-04-27T12:42:51Z</time>
      </trkpt>
      <trkpt lat="42.752605983987451" lon="-1.942145973443985">
        <ele>460.13</ele>
        <time>2025-04-27T12:42:52Z</time>
      </trkpt>
      <trkpt lat="42.752691982313991" lon="-1.942359963431954">
        <ele>461.08999999999997</ele>
        <time>2025-04-27T12:42:53Z</time>
      </trkpt>
      <trkpt lat="42.752778986468911" lon="-1.942579988390207">
        <ele>461.08999999999997</ele>
        <time>2025-04-27T12:42:54Z</time>
      </trkpt>
      <trkpt lat="42.753246026113629" lon="-1.944179004058242">
        <ele>463.00999999999999</ele>
        <time>2025-04-27T12:43:01Z</time>
      </trkpt>
      <trkpt lat="42.753579039126635" lon="-1.946266014128923">
        <ele>466.86000000000001</ele>
        <time>2025-04-27T12:43:10Z</time>
      </trkpt>
      <trkpt lat="42.753912974148989" lon="-1.948327040299773">
        <ele>468.30000000000001</ele>
        <time>2025-04-27T12:43:19Z</time>
      </trkpt>
      <trkpt lat="42.75404398329556" lon="-1.94875099696219">
        <ele>467.81999999999999</ele>
        <time>2025-04-27T12:43:21Z</time>
      </trkpt>
      <trkpt lat="42.754140039905906" lon="-1.94892399944365">
        <ele>467.81999999999999</ele>
        <time>2025-04-27T12:43:22Z</time>
      </trkpt>
      <trkpt lat="42.754238024353981" lon="-1.949102031067014">
        <ele>467.81999999999999</ele>
        <time>2025-04-27T12:43:23Z</time>
      </trkpt>
      <trkpt lat="42.754528960213065" lon="-1.949630007147789">
        <ele>468.30000000000001</ele>
        <time>2025-04-27T12:43:26Z</time>
      </trkpt>
      <trkpt lat="42.754604984074831" lon="-1.949822958558798">
        <ele>468.77999999999997</ele>
        <time>2025-04-27T12:43:27Z</time>
      </trkpt>
      <trkpt lat="42.754655024036765" lon="-1.950039966031909">
        <ele>469.74000000000001</ele>
        <time>2025-04-27T12:43:28Z</time>
      </trkpt>
      <trkpt lat="42.75513899512589" lon="-1.952249016612768">
        <ele>482.24000000000001</ele>
        <time>2025-04-27T12:43:38Z</time>
      </trkpt>
      <trkpt lat="42.755142012611032" lon="-1.952432999387384">
        <ele>483.68000000000001</ele>
        <time>2025-04-27T12:43:39Z</time>
      </trkpt>
      <trkpt lat="42.755142012611032" lon="-1.952612958848476">
        <ele>484.63999999999999</ele>
        <time>2025-04-27T12:43:40Z</time>
      </trkpt>
      <trkpt lat="42.755114017054439" lon="-1.952783027663827">
        <ele>485.60000000000002</ele>
        <time>2025-04-27T12:43:41Z</time>
      </trkpt>
      <trkpt lat="42.755046961829066" lon="-1.952956030145288">
        <ele>486.56</ele>
        <time>2025-04-27T12:43:42Z</time>
      </trkpt>
      <trkpt lat="42.754972027614713" lon="-1.953145964071155">
        <ele>487.05000000000001</ele>
        <time>2025-04-27T12:43:43Z</time>
      </trkpt>
      <trkpt lat="42.75485803373158" lon="-1.95332701317966">
        <ele>487.52999999999997</ele>
        <time>2025-04-27T12:43:44Z</time>
      </trkpt>
      <trkpt lat="42.754720989614725" lon="-1.953509990125895">
        <ele>488.49000000000001</ele>
        <time>2025-04-27T12:43:45Z</time>
      </trkpt>
      <trkpt lat="42.753410981968045" lon="-1.955462973564863">
        <ele>495.69999999999999</ele>
        <time>2025-04-27T12:43:54Z</time>
      </trkpt>
      <trkpt lat="42.752008019015193" lon="-1.958251968026161">
        <ele>505.79000000000002</ele>
        <time>2025-04-27T12:44:05Z</time>
      </trkpt>
      <trkpt lat="42.751510972157121" lon="-1.959410011768341">
        <ele>507.23000000000002</ele>
        <time>2025-04-27T12:44:10Z</time>
      </trkpt>
      <trkpt lat="42.751456992700696" lon="-1.959654008969665">
        <ele>507.23000000000002</ele>
        <time>2025-04-27T12:44:11Z</time>
      </trkpt>
      <trkpt lat="42.751407958567142" lon="-1.95990202948451">
        <ele>506.75</ele>
        <time>2025-04-27T12:44:12Z</time>
      </trkpt>
      <trkpt lat="42.75139999575913" lon="-1.960174022242427">
        <ele>505.79000000000002</ele>
        <time>2025-04-27T12:44:13Z</time>
      </trkpt>
      <trkpt lat="42.751393038779497" lon="-1.960436962544918">
        <ele>505.31</ele>
        <time>2025-04-27T12:44:14Z</time>
      </trkpt>
      <trkpt lat="42.751387003809214" lon="-1.960651958361268">
        <ele>504.35000000000002</ele>
        <time>2025-04-27T12:44:15Z</time>
      </trkpt>
      <trkpt lat="42.751450035721064" lon="-1.960868965834379">
        <ele>503.87</ele>
        <time>2025-04-27T12:44:16Z</time>
      </trkpt>
      <trkpt lat="42.751517007127404" lon="-1.961065018549562">
        <ele>503.87</ele>
        <time>2025-04-27T12:44:17Z</time>
      </trkpt>
      <trkpt lat="42.751617003232241" lon="-1.961270039901137">
        <ele>504.35000000000002</ele>
        <time>2025-04-27T12:44:18Z</time>
      </trkpt>
      <trkpt lat="42.751823030412197" lon="-1.961691984906793">
        <ele>504.82999999999998</ele>
        <time>2025-04-27T12:44:20Z</time>
      </trkpt>
      <trkpt lat="42.751896036788821" lon="-1.9619229901582">
        <ele>504.82999999999998</ele>
        <time>2025-04-27T12:44:21Z</time>
      </trkpt>
      <trkpt lat="42.751929983496666" lon="-1.962168999016285">
        <ele>505.31</ele>
        <time>2025-04-27T12:44:22Z</time>
      </trkpt>
      <trkpt lat="42.752040037885308" lon="-1.963413041085005">
        <ele>509.63999999999999</ele>
        <time>2025-04-27T12:44:27Z</time>
      </trkpt>
      <trkpt lat="42.752029979601502" lon="-1.963676987215877">
        <ele>510.60000000000002</ele>
        <time>2025-04-27T12:44:28Z</time>
      </trkpt>
      <trkpt lat="42.751973988488317" lon="-1.963879996910691">
        <ele>511.56</ele>
        <time>2025-04-27T12:44:29Z</time>
      </trkpt>
      <trkpt lat="42.751907017081976" lon="-1.964122988283634">
        <ele>512.51999999999998</ele>
        <time>2025-04-27T12:44:30Z</time>
      </trkpt>
      <trkpt lat="42.751838034018874" lon="-1.964375032112002">
        <ele>513.48000000000002</ele>
        <time>2025-04-27T12:44:31Z</time>
      </trkpt>
      <trkpt lat="42.750887023285031" lon="-1.967655960470438">
        <ele>521.64999999999998</ele>
        <time>2025-04-27T12:44:44Z</time>
      </trkpt>
      <trkpt lat="42.750386036932468" lon="-1.969243995845318">
        <ele>526.46000000000004</ele>
        <time>2025-04-27T12:44:51Z</time>
      </trkpt>
      <trkpt lat="42.750268019735813" lon="-1.969438958913088">
        <ele>526.94000000000005</ele>
        <time>2025-04-27T12:44:52Z</time>
      </trkpt>
      <trkpt lat="42.748685013502836" lon="-1.972038019448519">
        <ele>534.63</ele>
        <time>2025-04-27T12:45:05Z</time>
      </trkpt>
      <trkpt lat="42.747134026139975" lon="-1.974528031423688">
        <ele>545.20000000000005</ele>
        <time>2025-04-27T12:45:17Z</time>
      </trkpt>
      <trkpt lat="42.74594203568995" lon="-1.976201981306076">
        <ele>553.86000000000001</ele>
        <time>2025-04-27T12:45:26Z</time>
      </trkpt>
      <trkpt lat="42.745215995237231" lon="-1.976991975679994">
        <ele>554.82000000000005</ele>
        <time>2025-04-27T12:45:33Z</time>
      </trkpt>
      <trkpt lat="42.74484702385962" lon="-1.977208983153105">
        <ele>554.34000000000003</ele>
        <time>2025-04-27T12:45:37Z</time>
      </trkpt>
      <trkpt lat="42.744762031361461" lon="-1.977258017286658">
        <ele>554.34000000000003</ele>
        <time>2025-04-27T12:45:38Z</time>
      </trkpt>
      <trkpt lat="42.743532992899418" lon="-1.977879032492638">
        <ele>551.92999999999995</ele>
        <time>2025-04-27T12:45:49Z</time>
      </trkpt>
      <trkpt lat="42.742257015779614" lon="-1.978553021326661">
        <ele>548.09000000000003</ele>
        <time>2025-04-27T12:45:58Z</time>
      </trkpt>
      <trkpt lat="42.740977015346289" lon="-1.979125002399087">
        <ele>543.75999999999999</ele>
        <time>2025-04-27T12:46:05Z</time>
      </trkpt>
      <trkpt lat="42.739297030493617" lon="-1.980197969824076">
        <ele>536.54999999999995</ele>
        <time>2025-04-27T12:46:14Z</time>
      </trkpt>
      <trkpt lat="42.737747970968485" lon="-1.981771001592279">
        <ele>528.86000000000001</ele>
        <time>2025-04-27T12:46:23Z</time>
      </trkpt>
      <trkpt lat="42.735213031992316" lon="-1.984667032957077">
        <ele>516.37</ele>
        <time>2025-04-27T12:46:38Z</time>
      </trkpt>
      <trkpt lat="42.734217010438442" lon="-1.985713010653853">
        <ele>515.39999999999998</ele>
        <time>2025-04-27T12:46:44Z</time>
      </trkpt>
      <trkpt lat="42.732870960608125" lon="-1.986894020810723">
        <ele>522.13</ele>
        <time>2025-04-27T12:46:52Z</time>
      </trkpt>
      <trkpt lat="42.732725031673908" lon="-1.987093007192016">
        <ele>522.61000000000001</ele>
        <time>2025-04-27T12:46:53Z</time>
      </trkpt>
      <trkpt lat="42.730793002992868" lon="-1.989734983071685">
        <ele>518.28999999999996</ele>
        <time>2025-04-27T12:47:06Z</time>
      </trkpt>
      <trkpt lat="42.729557007551193" lon="-1.991425026208162">
        <ele>518.28999999999996</ele>
        <time>2025-04-27T12:47:15Z</time>
      </trkpt>
      <trkpt lat="42.728543970733881" lon="-1.992679964751005">
        <ele>525.98000000000002</ele>
        <time>2025-04-27T12:47:22Z</time>
      </trkpt>
      <trkpt lat="42.728429976850748" lon="-1.992870988324285">
        <ele>526.94000000000005</ele>
        <time>2025-04-27T12:47:23Z</time>
      </trkpt>
      <trkpt lat="42.727458011358976" lon="-1.994508979842067">
        <ele>527.89999999999998</ele>
        <time>2025-04-27T12:47:31Z</time>
      </trkpt>
      <trkpt lat="42.726368028670549" lon="-1.996312011033297">
        <ele>518.76999999999998</ele>
        <time>2025-04-27T12:47:41Z</time>
      </trkpt>
      <trkpt lat="42.725314004346728" lon="-1.998042035847902">
        <ele>514.44000000000005</ele>
        <time>2025-04-27T12:47:51Z</time>
      </trkpt>
      <trkpt lat="42.725244015455246" lon="-1.998155023902655">
        <ele>515.39999999999998</ele>
        <time>2025-04-27T12:47:52Z</time>
      </trkpt>
      <trkpt lat="42.72518701851368" lon="-1.998245967552066">
        <ele>516.37</ele>
        <time>2025-04-27T12:47:53Z</time>
      </trkpt>
      <trkpt lat="42.725172014907002" lon="-1.998427016660571">
        <ele>516.85000000000002</ele>
        <time>2025-04-27T12:47:54Z</time>
      </trkpt>
      <trkpt lat="42.725121974945068" lon="-1.998460041359067">
        <ele>517.80999999999995</ele>
        <time>2025-04-27T12:47:55Z</time>
      </trkpt>
      <trkpt lat="42.725031031295657" lon="-1.998430034145713">
        <ele>518.28999999999996</ele>
        <time>2025-04-27T12:47:56Z</time>
      </trkpt>
      <trkpt lat="42.724917037412524" lon="-1.998474961146712">
        <ele>518.28999999999996</ele>
        <time>2025-04-27T12:47:57Z</time>
      </trkpt>
      <trkpt lat="42.72482299245894" lon="-1.998544028028846">
        <ele>518.28999999999996</ele>
        <time>2025-04-27T12:47:58Z</time>
      </trkpt>
      <trkpt lat="42.72471503354609" lon="-1.998622985556722">
        <ele>517.80999999999995</ele>
        <time>2025-04-27T12:47:59Z</time>
      </trkpt>
      <trkpt lat="42.723652040585876" lon="-1.99937098659575">
        <ele>513</ele>
        <time>2025-04-27T12:48:06Z</time>
      </trkpt>
      <trkpt lat="42.723150970414281" lon="-1.999645996838808">
        <ele>511.07999999999998</ele>
        <time>2025-04-27T12:48:09Z</time>
      </trkpt>
      <trkpt lat="42.722967993468046" lon="-1.999683966860175">
        <ele>510.60000000000002</ele>
        <time>2025-04-27T12:48:10Z</time>
      </trkpt>
      <trkpt lat="42.721474003046751" lon="-1.999712968245149">
        <ele>513</ele>
        <time>2025-04-27T12:48:17Z</time>
      </trkpt>
      <trkpt lat="42.721281973645091" lon="-1.999748004600406">
        <ele>513.48000000000002</ele>
        <time>2025-04-27T12:48:18Z</time>
      </trkpt>
      <trkpt lat="42.721098996698856" lon="-1.999863004311919">
        <ele>513.96000000000004</ele>
        <time>2025-04-27T12:48:19Z</time>
      </trkpt>
      <trkpt lat="42.72091300226748" lon="-1.999981021508575">
        <ele>513.96000000000004</ele>
        <time>2025-04-27T12:48:20Z</time>
      </trkpt>
      <trkpt lat="42.72071803919971" lon="-2.000104989856482">
        <ele>513.48000000000002</ele>
        <time>2025-04-27T12:48:21Z</time>
      </trkpt>
      <trkpt lat="42.718388959765434" lon="-2.001533014699817">
        <ele>510.12</ele>
        <time>2025-04-27T12:48:32Z</time>
      </trkpt>
      <trkpt lat="42.716720039024949" lon="-2.002476984634996">
        <ele>510.60000000000002</ele>
        <time>2025-04-27T12:48:41Z</time>
      </trkpt>
      <trkpt lat="42.716561034321785" lon="-2.00246499851346">
        <ele>511.07999999999998</ele>
        <time>2025-04-27T12:48:42Z</time>
      </trkpt>
      <trkpt lat="42.716404041275382" lon="-2.002394003793597">
        <ele>511.56</ele>
        <time>2025-04-27T12:48:43Z</time>
      </trkpt>
      <trkpt lat="42.716258028522134" lon="-2.002262994647026">
        <ele>512.03999999999996</ele>
        <time>2025-04-27T12:48:44Z</time>
      </trkpt>
      <trkpt lat="42.716119978576899" lon="-2.002131985500455">
        <ele>513</ele>
        <time>2025-04-27T12:48:45Z</time>
      </trkpt>
      <trkpt lat="42.715987963601947" lon="-2.002008017152548">
        <ele>513.48000000000002</ele>
        <time>2025-04-27T12:48:46Z</time>
      </trkpt>
      <trkpt lat="42.715818984434009" lon="-2.00197096914053">
        <ele>513.96000000000004</ele>
        <time>2025-04-27T12:48:47Z</time>
      </trkpt>
      <trkpt lat="42.715641958639026" lon="-2.001939034089446">
        <ele>514.91999999999996</ele>
        <time>2025-04-27T12:48:48Z</time>
      </trkpt>
      <trkpt lat="42.71380296908319" lon="-2.001640973612666">
        <ele>520.69000000000005</ele>
        <time>2025-04-27T12:48:57Z</time>
      </trkpt>
      <trkpt lat="42.712921025231481" lon="-2.00149797834456">
        <ele>519.25</ele>
        <time>2025-04-27T12:49:03Z</time>
      </trkpt>
      <trkpt lat="42.711505992338061" lon="-2.001276025548577">
        <ele>516.37</ele>
        <time>2025-04-27T12:49:16Z</time>
      </trkpt>
      <trkpt lat="42.710119038820267" lon="-2.001054994761944">
        <ele>510.60000000000002</ele>
        <time>2025-04-27T12:49:30Z</time>
      </trkpt>
      <trkpt lat="42.709845034405589" lon="-2.000991962850094">
        <ele>507.23000000000002</ele>
        <time>2025-04-27T12:49:34Z</time>
      </trkpt>
      <trkpt lat="42.709774039685726" lon="-2.000989029183984">
        <ele>506.26999999999998</ele>
        <time>2025-04-27T12:49:35Z</time>
      </trkpt>
      <trkpt lat="42.70969801582396" lon="-2.000977965071797">
        <ele>505.31</ele>
        <time>2025-04-27T12:49:36Z</time>
      </trkpt>
      <trkpt lat="42.709454018622637" lon="-2.000945024192333">
        <ele>502.91000000000003</ele>
        <time>2025-04-27T12:49:39Z</time>
      </trkpt>
      <trkpt lat="42.709222007542849" lon="-2.000915016978979">
        <ele>500.98000000000002</ele>
        <time>2025-04-27T12:49:42Z</time>
      </trkpt>
      <trkpt lat="42.709154030308127" lon="-2.000933960080147">
        <ele>500.01999999999998</ele>
        <time>2025-04-27T12:49:43Z</time>
      </trkpt>
      <trkpt lat="42.709101978689432" lon="-2.00100596062839">
        <ele>499.54000000000002</ele>
        <time>2025-04-27T12:49:44Z</time>
      </trkpt>
      <trkpt lat="42.709057973697782" lon="-2.001120038330555">
        <ele>499.06</ele>
        <time>2025-04-27T12:49:45Z</time>
      </trkpt>
      <trkpt lat="42.709081023931503" lon="-2.001246018335223">
        <ele>498.57999999999998</ele>
        <time>2025-04-27T12:49:46Z</time>
      </trkpt>
      <trkpt lat="42.709110025316477" lon="-2.001387001946569">
        <ele>498.57999999999998</ele>
        <time>2025-04-27T12:49:47Z</time>
      </trkpt>
      <trkpt lat="42.709299959242344" lon="-2.002233993262053">
        <ele>495.69999999999999</ele>
        <time>2025-04-27T12:49:52Z</time>
      </trkpt>
      <trkpt lat="42.709341030567884" lon="-2.002415964379907">
        <ele>495.22000000000003</ele>
        <time>2025-04-27T12:49:53Z</time>
      </trkpt>
      <trkpt lat="42.709544040262699" lon="-2.003164971247315">
        <ele>492.81</ele>
        <time>2025-04-27T12:49:57Z</time>
      </trkpt>
      <trkpt lat="42.709610005840659" lon="-2.003325987607241">
        <ele>492.32999999999998</ele>
        <time>2025-04-27T12:49:58Z</time>
      </trkpt>
      <trkpt lat="42.709688041359186" lon="-2.003461020067334">
        <ele>491.85000000000002</ele>
        <time>2025-04-27T12:49:59Z</time>
      </trkpt>
      <trkpt lat="42.709774039685726" lon="-2.003590017557144">
        <ele>491.37</ele>
        <time>2025-04-27T12:50:00Z</time>
      </trkpt>
      <trkpt lat="42.709860960021615" lon="-2.003720020875335">
        <ele>490.41000000000003</ele>
        <time>2025-04-27T12:50:01Z</time>
      </trkpt>
      <trkpt lat="42.709916029125452" lon="-2.003881959244609">
        <ele>489.93000000000001</ele>
        <time>2025-04-27T12:50:02Z</time>
      </trkpt>
      <trkpt lat="42.709951987490058" lon="-2.004039036110044">
        <ele>489.44999999999999</ele>
        <time>2025-04-27T12:50:03Z</time>
      </trkpt>
      <trkpt lat="42.709951987490058" lon="-2.00422503054142">
        <ele>488.97000000000003</ele>
        <time>2025-04-27T12:50:04Z</time>
      </trkpt>
      <trkpt lat="42.709929021075368" lon="-2.004372971132398">
        <ele>488.00999999999999</ele>
        <time>2025-04-27T12:50:05Z</time>
      </trkpt>
      <trkpt lat="42.709871018305421" lon="-2.004511021077633">
        <ele>487.52999999999997</ele>
        <time>2025-04-27T12:50:06Z</time>
      </trkpt>
      <trkpt lat="42.709809998050332" lon="-2.004656028002501">
        <ele>487.05000000000001</ele>
        <time>2025-04-27T12:50:07Z</time>
      </trkpt>
      <trkpt lat="42.709714025259018" lon="-2.004783013835549">
        <ele>487.05000000000001</ele>
        <time>2025-04-27T12:50:08Z</time>
      </trkpt>
      <trkpt lat="42.709630038589239" lon="-2.004855014383793">
        <ele>486.56</ele>
        <time>2025-04-27T12:50:09Z</time>
      </trkpt>
      <trkpt lat="42.709499029442668" lon="-2.004889966920018">
        <ele>486.07999999999998</ele>
        <time>2025-04-27T12:50:10Z</time>
      </trkpt>
      <trkpt lat="42.709394004195929" lon="-2.004918968304992">
        <ele>486.07999999999998</ele>
        <time>2025-04-27T12:50:11Z</time>
      </trkpt>
      <trkpt lat="42.709291996434331" lon="-2.004858031868935">
        <ele>486.07999999999998</ele>
        <time>2025-04-27T12:50:12Z</time>
      </trkpt>
      <trkpt lat="42.709170961752534" lon="-2.004786031320691">
        <ele>486.56</ele>
        <time>2025-04-27T12:50:13Z</time>
      </trkpt>
      <trkpt lat="42.709039030596614" lon="-2.004705984145403">
        <ele>487.05000000000001</ele>
        <time>2025-04-27T12:50:14Z</time>
      </trkpt>
      <trkpt lat="42.70864499732852" lon="-2.004532981663942">
        <ele>488.00999999999999</ele>
        <time>2025-04-27T12:50:17Z</time>
      </trkpt>
      <trkpt lat="42.708519017323852" lon="-2.004532981663942">
        <ele>488.49000000000001</ele>
        <time>2025-04-27T12:50:18Z</time>
      </trkpt>
      <trkpt lat="42.70840996876359" lon="-2.004625014960766">
        <ele>488.49000000000001</ele>
        <time>2025-04-27T12:50:19Z</time>
      </trkpt>
      <trkpt lat="42.708286000415683" lon="-2.004749989137054">
        <ele>488.97000000000003</ele>
        <time>2025-04-27T12:50:20Z</time>
      </trkpt>
      <trkpt lat="42.708163037896156" lon="-2.00491301715374">
        <ele>489.44999999999999</ele>
        <time>2025-04-27T12:50:21Z</time>
      </trkpt>
      <trkpt lat="42.707361979410052" lon="-2.005942985415459">
        <ele>494.74000000000001</ele>
        <time>2025-04-27T12:50:27Z</time>
      </trkpt>
      <trkpt lat="42.707247985526919" lon="-2.006055973470211">
        <ele>495.69999999999999</ele>
        <time>2025-04-27T12:50:28Z</time>
      </trkpt>
      <trkpt lat="42.7070970274508" lon="-2.006086986511946">
        <ele>496.66000000000003</ele>
        <time>2025-04-27T12:50:29Z</time>
      </trkpt>
      <trkpt lat="42.706966018304229" lon="-2.006071982905269">
        <ele>497.62</ele>
        <time>2025-04-27T12:50:30Z</time>
      </trkpt>
      <trkpt lat="42.706826962530613" lon="-2.006016997620463">
        <ele>498.57999999999998</ele>
        <time>2025-04-27T12:50:31Z</time>
      </trkpt>
      <trkpt lat="42.706679021939635" lon="-2.005957989022136">
        <ele>499.54000000000002</ele>
        <time>2025-04-27T12:50:32Z</time>
      </trkpt>
      <trkpt lat="42.706528985872865" lon="-2.005897974595428">
        <ele>500.5</ele>
        <time>2025-04-27T12:50:33Z</time>
      </trkpt>
      <trkpt lat="42.706384984776378" lon="-2.005884982645512">
        <ele>500.98000000000002</ele>
        <time>2025-04-27T12:50:34Z</time>
      </trkpt>
      <trkpt lat="42.706244001165032" lon="-2.005900992080569">
        <ele>501.94999999999999</ele>
        <time>2025-04-27T12:50:35Z</time>
      </trkpt>
      <trkpt lat="42.706123972311616" lon="-2.00600802898407">
        <ele>503.38999999999999</ele>
        <time>2025-04-27T12:50:36Z</time>
      </trkpt>
      <trkpt lat="42.706005033105612" lon="-2.006125962361693">
        <ele>504.35000000000002</ele>
        <time>2025-04-27T12:50:37Z</time>
      </trkpt>
      <trkpt lat="42.705887015908957" lon="-2.006263006478548">
        <ele>505.79000000000002</ele>
        <time>2025-04-27T12:50:38Z</time>
      </trkpt>
      <trkpt lat="42.704601986333728" lon="-2.00777200050652">
        <ele>517.80999999999995</ele>
        <time>2025-04-27T12:50:48Z</time>
      </trkpt>
      <trkpt lat="42.703718030825257" lon="-2.00884597375989">
        <ele>525.98000000000002</ele>
        <time>2025-04-27T12:50:55Z</time>
      </trkpt>
      <trkpt lat="42.703644018620253" lon="-2.00899500399828">
        <ele>526.94000000000005</ele>
        <time>2025-04-27T12:50:56Z</time>
      </trkpt>
      <trkpt lat="42.703591967001557" lon="-2.009179992601275">
        <ele>527.89999999999998</ele>
        <time>2025-04-27T12:50:57Z</time>
      </trkpt>
      <trkpt lat="42.703551985323429" lon="-2.009380990639329">
        <ele>529.34000000000003</ele>
        <time>2025-04-27T12:50:58Z</time>
      </trkpt>
      <trkpt lat="42.703523989766836" lon="-2.009576037526131">
        <ele>530.29999999999995</ele>
        <time>2025-04-27T12:50:59Z</time>
      </trkpt>
      <trkpt lat="42.703503035008907" lon="-2.009750967845321">
        <ele>531.26999999999998</ele>
        <time>2025-04-27T12:51:00Z</time>
      </trkpt>
      <trkpt lat="42.70335903391242" lon="-2.01090800575912">
        <ele>537.50999999999999</ele>
        <time>2025-04-27T12:51:08Z</time>
      </trkpt>
      <trkpt lat="42.703331038355827" lon="-2.011044966056943">
        <ele>538.48000000000002</ele>
        <time>2025-04-27T12:51:09Z</time>
      </trkpt>
      <trkpt lat="42.70267004147172" lon="-2.012250032275915">
        <ele>545.69000000000005</ele>
        <time>2025-04-27T12:51:18Z</time>
      </trkpt>
      <trkpt lat="42.701638983562589" lon="-2.013519974425435">
        <ele>557.70000000000005</ele>
        <time>2025-04-27T12:51:27Z</time>
      </trkpt>
      <trkpt lat="42.699919017031789" lon="-2.014677012339234">
        <ele>573.08000000000004</ele>
        <time>2025-04-27T12:51:37Z</time>
      </trkpt>
      <trkpt lat="42.699421970173717" lon="-2.014952022582293">
        <ele>577.88999999999999</ele>
        <time>2025-04-27T12:51:40Z</time>
      </trkpt>
      <trkpt lat="42.699259025976062" lon="-2.015027040615678">
        <ele>578.85000000000002</ele>
        <time>2025-04-27T12:51:41Z</time>
      </trkpt>
      <trkpt lat="42.698902040719986" lon="-2.015051012858748">
        <ele>581.73000000000002</ele>
        <time>2025-04-27T12:51:43Z</time>
      </trkpt>
      <trkpt lat="42.697712983936071" lon="-2.014912962913513">
        <ele>587.98000000000002</ele>
        <time>2025-04-27T12:51:50Z</time>
      </trkpt>
      <trkpt lat="42.697574011981487" lon="-2.014815984293819">
        <ele>588.95000000000005</ele>
        <time>2025-04-27T12:51:51Z</time>
      </trkpt>
      <trkpt lat="42.697455994784832" lon="-2.014717999845743">
        <ele>589.42999999999995</ele>
        <time>2025-04-27T12:51:52Z</time>
      </trkpt>
      <trkpt lat="42.69736697897315" lon="-2.014610040932894">
        <ele>589.90999999999997</ele>
        <time>2025-04-27T12:51:53Z</time>
      </trkpt>
      <trkpt lat="42.697294978424907" lon="-2.014521025121212">
        <ele>590.38999999999999</ele>
        <time>2025-04-27T12:51:54Z</time>
      </trkpt>
      <trkpt lat="42.697191964834929" lon="-2.014391021803021">
        <ele>591.83000000000004</ele>
        <time>2025-04-27T12:51:56Z</time>
      </trkpt>
      <trkpt lat="42.697133040055633" lon="-2.01436897739768">
        <ele>592.30999999999995</ele>
        <time>2025-04-27T12:51:57Z</time>
      </trkpt>
      <trkpt lat="42.697102027013898" lon="-2.014361014589667">
        <ele>592.78999999999996</ele>
        <time>2025-04-27T12:51:58Z</time>
      </trkpt>
      <trkpt lat="42.697099009528756" lon="-2.014470985159278">
        <ele>593.26999999999998</ele>
        <time>2025-04-27T12:51:59Z</time>
      </trkpt>
      <trkpt lat="42.697099009528756" lon="-2.014510966837406">
        <ele>594.23000000000002</ele>
        <time>2025-04-27T12:52:00Z</time>
      </trkpt>
      <trkpt lat="42.697142008692026" lon="-2.014618003740907">
        <ele>594.71000000000004</ele>
        <time>2025-04-27T12:52:01Z</time>
      </trkpt>
      <trkpt lat="42.69721501506865" lon="-2.014723028987646">
        <ele>595.19000000000005</ele>
        <time>2025-04-27T12:52:02Z</time>
      </trkpt>
      <trkpt lat="42.697376031428576" lon="-2.01498999260366">
        <ele>596.63999999999999</ele>
        <time>2025-04-27T12:52:04Z</time>
      </trkpt>
      <trkpt lat="42.697498993948102" lon="-2.015321999788284">
        <ele>598.08000000000004</ele>
        <time>2025-04-27T12:52:06Z</time>
      </trkpt>
      <trkpt lat="42.697525983676314" lon="-2.015512017533183">
        <ele>598.55999999999995</ele>
        <time>2025-04-27T12:52:07Z</time>
      </trkpt>
      <trkpt lat="42.69749597646296" lon="-2.015687031671405">
        <ele>599.51999999999998</ele>
        <time>2025-04-27T12:52:08Z</time>
      </trkpt>
      <trkpt lat="42.697443002834916" lon="-2.015865985304117">
        <ele>600.48000000000002</ele>
        <time>2025-04-27T12:52:09Z</time>
      </trkpt>
      <trkpt lat="42.697377959266305" lon="-2.016039993613958">
        <ele>600.48000000000002</ele>
        <time>2025-04-27T12:52:10Z</time>
      </trkpt>
      <trkpt lat="42.697305958718061" lon="-2.016231017187238">
        <ele>600.48000000000002</ele>
        <time>2025-04-27T12:52:11Z</time>
      </trkpt>
      <trkpt lat="42.69725700840354" lon="-2.016445007175207">
        <ele>600</ele>
        <time>2025-04-27T12:52:12Z</time>
      </trkpt>
      <trkpt lat="42.697222977876663" lon="-2.016672994941473">
        <ele>599.03999999999996</ele>
        <time>2025-04-27T12:52:13Z</time>
      </trkpt>
      <trkpt lat="42.697210991755128" lon="-2.016920009627938">
        <ele>598.08000000000004</ele>
        <time>2025-04-27T12:52:14Z</time>
      </trkpt>
      <trkpt lat="42.697197999805212" lon="-2.017174987122417">
        <ele>597.60000000000002</ele>
        <time>2025-04-27T12:52:15Z</time>
      </trkpt>
      <trkpt lat="42.697148965671659" lon="-2.018424980342388">
        <ele>595.19000000000005</ele>
        <time>2025-04-27T12:52:20Z</time>
      </trkpt>
      <trkpt lat="42.697159023955464" lon="-2.018646011129022">
        <ele>594.71000000000004</ele>
        <time>2025-04-27T12:52:21Z</time>
      </trkpt>
      <trkpt lat="42.697211997583508" lon="-2.018861006945372">
        <ele>594.23000000000002</ele>
        <time>2025-04-27T12:52:22Z</time>
      </trkpt>
      <trkpt lat="42.697285003960133" lon="-2.019042978063226">
        <ele>593.75</ele>
        <time>2025-04-27T12:52:23Z</time>
      </trkpt>
      <trkpt lat="42.697359016165137" lon="-2.019227966666222">
        <ele>593.26999999999998</ele>
        <time>2025-04-27T12:52:24Z</time>
      </trkpt>
      <trkpt lat="42.698173988610506" lon="-2.02064199373126">
        <ele>587.5</ele>
        <time>2025-04-27T12:52:32Z</time>
      </trkpt>
      <trkpt lat="42.698939004912972" lon="-2.021968010812998">
        <ele>579.80999999999995</ele>
        <time>2025-04-27T12:52:41Z</time>
      </trkpt>
      <trkpt lat="42.699014022946358" lon="-2.022064989432693">
        <ele>578.85000000000002</ele>
        <time>2025-04-27T12:52:42Z</time>
      </trkpt>
      <trkpt lat="42.699077976867557" lon="-2.022083010524511">
        <ele>578.37</ele>
        <time>2025-04-27T12:52:43Z</time>
      </trkpt>
      <trkpt lat="42.699202029034495" lon="-2.022116035223007">
        <ele>576.92999999999995</ele>
        <time>2025-04-27T12:52:46Z</time>
      </trkpt>
      <trkpt lat="42.699247039854527" lon="-2.022185018286109">
        <ele>576.45000000000005</ele>
        <time>2025-04-27T12:52:47Z</time>
      </trkpt>
      <trkpt lat="42.699249973520637" lon="-2.022266993299127">
        <ele>575.97000000000003</ele>
        <time>2025-04-27T12:52:48Z</time>
      </trkpt>
      <trkpt lat="42.699253996834159" lon="-2.022357014939189">
        <ele>575.97000000000003</ele>
        <time>2025-04-27T12:52:49Z</time>
      </trkpt>
      <trkpt lat="42.699259025976062" lon="-2.022462962195277">
        <ele>575.49000000000001</ele>
        <time>2025-04-27T12:52:50Z</time>
      </trkpt>
      <trkpt lat="42.699265982955694" lon="-2.022695979103446">
        <ele>574.52999999999997</ele>
        <time>2025-04-27T12:52:52Z</time>
      </trkpt>
      <trkpt lat="42.699265982955694" lon="-2.022828999906778">
        <ele>573.55999999999995</ele>
        <time>2025-04-27T12:52:53Z</time>
      </trkpt>
      <trkpt lat="42.699265982955694" lon="-2.022980963811278">
        <ele>572.60000000000002</ele>
        <time>2025-04-27T12:52:54Z</time>
      </trkpt>
      <trkpt lat="42.699265982955694" lon="-2.023137034848332">
        <ele>572.12</ele>
        <time>2025-04-27T12:52:55Z</time>
      </trkpt>
      <trkpt lat="42.699227007105947" lon="-2.023276006802917">
        <ele>571.15999999999997</ele>
        <time>2025-04-27T12:52:56Z</time>
      </trkpt>
      <trkpt lat="42.699183002114296" lon="-2.023436017334461">
        <ele>569.72000000000003</ele>
        <time>2025-04-27T12:52:57Z</time>
      </trkpt>
      <trkpt lat="42.699129022657871" lon="-2.02358303591609">
        <ele>568.75999999999999</ele>
        <time>2025-04-27T12:52:58Z</time>
      </trkpt>
      <trkpt lat="42.699052998796105" lon="-2.02373499982059">
        <ele>567.32000000000005</ele>
        <time>2025-04-27T12:52:59Z</time>
      </trkpt>
      <trkpt lat="42.698972029611468" lon="-2.02388403005898">
        <ele>565.87</ele>
        <time>2025-04-27T12:53:00Z</time>
      </trkpt>
      <trkpt lat="42.698435001075268" lon="-2.024471014738083">
        <ele>560.11000000000001</ele>
        <time>2025-04-27T12:53:05Z</time>
      </trkpt>
      <trkpt lat="42.69831296056509" lon="-2.024568999186158">
        <ele>559.13999999999999</ele>
        <time>2025-04-27T12:53:06Z</time>
      </trkpt>
      <trkpt lat="42.697122981771827" lon="-2.025122037157416">
        <ele>550.49000000000001</ele>
        <time>2025-04-27T12:53:14Z</time>
      </trkpt>
      <trkpt lat="42.695696968585253" lon="-2.025653030723333">
        <ele>541.84000000000003</ele>
        <time>2025-04-27T12:53:23Z</time>
      </trkpt>
      <trkpt lat="42.69431596621871" lon="-2.025962993502617">
        <ele>531.75</ele>
        <time>2025-04-27T12:53:32Z</time>
      </trkpt>
      <trkpt lat="42.693999968469143" lon="-2.02592896297574">
        <ele>528.86000000000001</ele>
        <time>2025-04-27T12:53:34Z</time>
      </trkpt>
      <trkpt lat="42.693839035928249" lon="-2.025912031531334">
        <ele>527.41999999999996</ele>
        <time>2025-04-27T12:53:35Z</time>
      </trkpt>
      <trkpt lat="42.692700019106269" lon="-2.025626040995121">
        <ele>516.85000000000002</ele>
        <time>2025-04-27T12:53:42Z</time>
      </trkpt>
      <trkpt lat="42.691741967573762" lon="-2.025885041803122">
        <ele>508.67000000000002</ele>
        <time>2025-04-27T12:53:48Z</time>
      </trkpt>
      <trkpt lat="42.691592015326023" lon="-2.025971040129662">
        <ele>506.75</ele>
        <time>2025-04-27T12:53:49Z</time>
      </trkpt>
      <trkpt lat="42.691452037543058" lon="-2.026080004870892">
        <ele>505.31</ele>
        <time>2025-04-27T12:53:50Z</time>
      </trkpt>
      <trkpt lat="42.690422991290689" lon="-2.027363022789359">
        <ele>494.74000000000001</ele>
        <time>2025-04-27T12:53:58Z</time>
      </trkpt>
      <trkpt lat="42.68926695920527" lon="-2.028628019616008">
        <ele>484.63999999999999</ele>
        <time>2025-04-27T12:54:07Z</time>
      </trkpt>
      <trkpt lat="42.689113989472389" lon="-2.028724998235703">
        <ele>483.19999999999999</ele>
        <time>2025-04-27T12:54:08Z</time>
      </trkpt>
      <trkpt lat="42.688954984769225" lon="-2.028778977692127">
        <ele>482.72000000000003</ele>
        <time>2025-04-27T12:54:09Z</time>
      </trkpt>
      <trkpt lat="42.68879204057157" lon="-2.028828011825681">
        <ele>481.75999999999999</ele>
        <time>2025-04-27T12:54:10Z</time>
      </trkpt>
      <trkpt lat="42.688627000898123" lon="-2.028876040130854">
        <ele>480.80000000000001</ele>
        <time>2025-04-27T12:54:11Z</time>
      </trkpt>
      <trkpt lat="42.68696503713727" lon="-2.029153984040022">
        <ele>472.63</ele>
        <time>2025-04-27T12:54:21Z</time>
      </trkpt>
      <trkpt lat="42.685497030615807" lon="-2.029404016211629">
        <ele>466.86000000000001</ele>
        <time>2025-04-27T12:54:30Z</time>
      </trkpt>
      <trkpt lat="42.683964986354113" lon="-2.030247990041971">
        <ele>459.64999999999998</ele>
        <time>2025-04-27T12:54:41Z</time>
      </trkpt>
      <trkpt lat="42.683203993365169" lon="-2.030808990821242">
        <ele>456.27999999999997</ele>
        <time>2025-04-27T12:54:47Z</time>
      </trkpt>
      <trkpt lat="42.682957984507084" lon="-2.030990039929748">
        <ele>455.31999999999999</ele>
        <time>2025-04-27T12:54:49Z</time>
      </trkpt>
      <trkpt lat="42.682848013937473" lon="-2.031075032427907">
        <ele>454.36000000000001</ele>
        <time>2025-04-27T12:54:50Z</time>
      </trkpt>
      <trkpt lat="42.681719977408648" lon="-2.031829990446568">
        <ele>447.63</ele>
        <time>2025-04-27T12:54:59Z</time>
      </trkpt>
      <trkpt lat="42.681183032691479" lon="-2.032149005681276">
        <ele>445.23000000000002</ele>
        <time>2025-04-27T12:55:05Z</time>
      </trkpt>
      <trkpt lat="42.681125029921532" lon="-2.032185969874263">
        <ele>444.75</ele>
        <time>2025-04-27T12:55:06Z</time>
      </trkpt>
      <trkpt lat="42.681069960817695" lon="-2.032385040074587">
        <ele>444.75</ele>
        <time>2025-04-27T12:55:07Z</time>
      </trkpt>
      <trkpt lat="42.681027967482805" lon="-2.032441031187773">
        <ele>444.26999999999998</ele>
        <time>2025-04-27T12:55:09Z</time>
      </trkpt>
      <trkpt lat="42.680968036875129" lon="-2.032483024522662">
        <ele>444.26999999999998</ele>
        <time>2025-04-27T12:55:10Z</time>
      </trkpt>
      <trkpt lat="42.680940963327885" lon="-2.032491993159056">
        <ele>443.79000000000002</ele>
        <time>2025-04-27T12:55:11Z</time>
      </trkpt>
      <trkpt lat="42.680940963327885" lon="-2.032491993159056">
        <ele>443.79000000000002</ele>
        <time>2025-04-27T12:55:12Z</time>
      </trkpt>
      <trkpt lat="42.680736025795341" lon="-2.032518982887268">
        <ele>443.79000000000002</ele>
        <time>2025-04-27T12:55:13Z</time>
      </trkpt>
      <trkpt lat="42.68067198805511" lon="-2.032590983435512">
        <ele>443.31</ele>
        <time>2025-04-27T12:55:14Z</time>
      </trkpt>
      <trkpt lat="42.680596970021725" lon="-2.032678993418813">
        <ele>443.31</ele>
        <time>2025-04-27T12:55:15Z</time>
      </trkpt>
      <trkpt lat="42.680511977523565" lon="-2.032784018665552">
        <ele>442.81999999999999</ele>
        <time>2025-04-27T12:55:16Z</time>
      </trkpt>
      <trkpt lat="42.680405024439096" lon="-2.032920978963375">
        <ele>442.33999999999997</ele>
        <time>2025-04-27T12:55:17Z</time>
      </trkpt>
      <trkpt lat="42.679690970107913" lon="-2.034122021868825">
        <ele>438.01999999999998</ele>
        <time>2025-04-27T12:55:26Z</time>
      </trkpt>
      <trkpt lat="42.67961704172194" lon="-2.034259987995029">
        <ele>437.54000000000002</ele>
        <time>2025-04-27T12:55:27Z</time>
      </trkpt>
      <trkpt lat="42.679061992093921" lon="-2.035265984013677">
        <ele>434.64999999999998</ele>
        <time>2025-04-27T12:55:36Z</time>
      </trkpt>
      <trkpt lat="42.678929977118969" lon="-2.03537997789681">
        <ele>434.17000000000002</ele>
        <time>2025-04-27T12:55:38Z</time>
      </trkpt>
      <trkpt lat="42.678794022649527" lon="-2.035489026457071">
        <ele>433.69</ele>
        <time>2025-04-27T12:55:40Z</time>
      </trkpt>
      <trkpt lat="42.67865002155304" lon="-2.035559015348554">
        <ele>432.73000000000002</ele>
        <time>2025-04-27T12:55:42Z</time>
      </trkpt>
      <trkpt lat="42.678577015176415" lon="-2.035577958449721">
        <ele>432.73000000000002</ele>
        <time>2025-04-27T12:55:43Z</time>
      </trkpt>
      <trkpt lat="42.678503002971411" lon="-2.03559597954154">
        <ele>432.25</ele>
        <time>2025-04-27T12:55:44Z</time>
      </trkpt>
      <trkpt lat="42.677807975560427" lon="-2.035581981763244">
        <ele>429.37</ele>
        <time>2025-04-27T12:55:54Z</time>
      </trkpt>
      <trkpt lat="42.677807975560427" lon="-2.035581981763244">
        <ele>428.88999999999999</ele>
        <time>2025-04-27T12:55:55Z</time>
      </trkpt>
      <trkpt lat="42.677593985572457" lon="-2.035694969817996">
        <ele>426</ele>
        <time>2025-04-27T12:56:00Z</time>
      </trkpt>
      <trkpt lat="42.677522990852594" lon="-2.035710979253054">
        <ele>425.51999999999998</ele>
        <time>2025-04-27T12:56:01Z</time>
      </trkpt>
      <trkpt lat="42.677480997517705" lon="-2.03567803837359">
        <ele>425.04000000000002</ele>
        <time>2025-04-27T12:56:02Z</time>
      </trkpt>
      <trkpt lat="42.67732098698616" lon="-2.035578964278102">
        <ele>423.60000000000002</ele>
        <time>2025-04-27T12:56:05Z</time>
      </trkpt>
      <trkpt lat="42.677187966182828" lon="-2.035567983984947">
        <ele>423.12</ele>
        <time>2025-04-27T12:56:07Z</time>
      </trkpt>
      <trkpt lat="42.676775995641947" lon="-2.035533031448722">
        <ele>422.16000000000003</ele>
        <time>2025-04-27T12:56:13Z</time>
      </trkpt>
      <trkpt lat="42.676707012578845" lon="-2.03553001396358">
        <ele>422.16000000000003</ele>
        <time>2025-04-27T12:56:14Z</time>
      </trkpt>
      <trkpt lat="42.676137965172529" lon="-2.035518027842045">
        <ele>420.70999999999998</ele>
        <time>2025-04-27T12:56:23Z</time>
      </trkpt>
      <trkpt lat="42.675820961594582" lon="-2.035546023398638">
        <ele>419.26999999999998</ele>
        <time>2025-04-27T12:56:29Z</time>
      </trkpt>
      <trkpt lat="42.675778968259692" lon="-2.035566978156567">
        <ele>418.31</ele>
        <time>2025-04-27T12:56:30Z</time>
      </trkpt>
      <trkpt lat="42.675736974924803" lon="-2.035588016733527">
        <ele>417.82999999999998</ele>
        <time>2025-04-27T12:56:31Z</time>
      </trkpt>
      <trkpt lat="42.675662962719798" lon="-2.035690024495125">
        <ele>417.35000000000002</ele>
        <time>2025-04-27T12:56:32Z</time>
      </trkpt>
      <trkpt lat="42.675662962719798" lon="-2.035818016156554">
        <ele>416.87</ele>
        <time>2025-04-27T12:56:33Z</time>
      </trkpt>
      <trkpt lat="42.675662962719798" lon="-2.035818016156554">
        <ele>416.38999999999999</ele>
        <time>2025-04-27T12:56:34Z</time>
      </trkpt>
      <trkpt lat="42.675598002970219" lon="-2.035881970077753">
        <ele>415.91000000000003</ele>
        <time>2025-04-27T12:56:35Z</time>
      </trkpt>
      <trkpt lat="42.675562966614962" lon="-2.035876018926501">
        <ele>415.43000000000001</ele>
        <time>2025-04-27T12:56:36Z</time>
      </trkpt>
      <trkpt lat="42.675486020743847" lon="-2.03585104085505">
        <ele>414.94999999999999</ele>
        <time>2025-04-27T12:56:37Z</time>
      </trkpt>
      <trkpt lat="42.675457019358873" lon="-2.035793038085103">
        <ele>414.47000000000003</ele>
        <time>2025-04-27T12:56:38Z</time>
      </trkpt>
      <trkpt lat="42.675447966903448" lon="-2.035775016993284">
        <ele>413.5</ele>
        <time>2025-04-27T12:56:39Z</time>
      </trkpt>
      <trkpt lat="42.675447966903448" lon="-2.035646019503474">
        <ele>413.01999999999998</ele>
        <time>2025-04-27T12:56:40Z</time>
      </trkpt>
      <trkpt lat="42.67538602463901" lon="-2.035593967884779">
        <ele>412.54000000000002</ele>
        <time>2025-04-27T12:56:41Z</time>
      </trkpt>
      <trkpt lat="42.675330033525825" lon="-2.035545017570257">
        <ele>412.06</ele>
        <time>2025-04-27T12:56:42Z</time>
      </trkpt>
      <trkpt lat="42.675269013270736" lon="-2.035509981215">
        <ele>412.06</ele>
        <time>2025-04-27T12:56:43Z</time>
      </trkpt>
      <trkpt lat="42.675203969702125" lon="-2.035491960123181">
        <ele>411.57999999999998</ele>
        <time>2025-04-27T12:56:44Z</time>
      </trkpt>
      <trkpt lat="42.675143033266068" lon="-2.035476034507155">
        <ele>411.57999999999998</ele>
        <time>2025-04-27T12:56:45Z</time>
      </trkpt>
      <trkpt lat="42.67508503049612" lon="-2.035460025072098">
        <ele>411.10000000000002</ele>
        <time>2025-04-27T12:56:46Z</time>
      </trkpt>
      <trkpt lat="42.675026021897793" lon="-2.035442003980279">
        <ele>411.10000000000002</ele>
        <time>2025-04-27T12:56:47Z</time>
      </trkpt>
      <trkpt lat="42.674969024956226" lon="-2.035432029515505">
        <ele>411.57999999999998</ele>
        <time>2025-04-27T12:56:48Z</time>
      </trkpt>
      <trkpt lat="42.674908004701138" lon="-2.035432029515505">
        <ele>411.57999999999998</ele>
        <time>2025-04-27T12:56:49Z</time>
      </trkpt>
      <trkpt lat="42.674666019156575" lon="-2.035413002595305">
        <ele>411.10000000000002</ele>
        <time>2025-04-27T12:56:53Z</time>
      </trkpt>
      <trkpt lat="42.674552025273442" lon="-2.03540001064539">
        <ele>410.62</ele>
        <time>2025-04-27T12:56:55Z</time>
      </trkpt>
      <trkpt lat="42.674306016415358" lon="-2.03537997789681">
        <ele>409.66000000000003</ele>
        <time>2025-04-27T12:56:59Z</time>
      </trkpt>
      <trkpt lat="42.674249019473791" lon="-2.035376038402319">
        <ele>409.66000000000003</ele>
        <time>2025-04-27T12:57:00Z</time>
      </trkpt>
      <trkpt lat="42.674195040017366" lon="-2.035373020917177">
        <ele>409.18000000000001</ele>
        <time>2025-04-27T12:57:01Z</time>
      </trkpt>
      <trkpt lat="42.674143994227052" lon="-2.035370003432035">
        <ele>408.69999999999999</ele>
        <time>2025-04-27T12:57:02Z</time>
      </trkpt>
      <trkpt lat="42.674094038084149" lon="-2.035366985946894">
        <ele>408.22000000000003</ele>
        <time>2025-04-27T12:57:03Z</time>
      </trkpt>
      <trkpt lat="42.674049027264118" lon="-2.035363968461752">
        <ele>408.22000000000003</ele>
        <time>2025-04-27T12:57:04Z</time>
      </trkpt>
      <trkpt lat="42.674007033929229" lon="-2.035362040624023">
        <ele>408.22000000000003</ele>
        <time>2025-04-27T12:57:05Z</time>
      </trkpt>
      <trkpt lat="42.673918018117547" lon="-2.035356005653739">
        <ele>408.22000000000003</ele>
        <time>2025-04-27T12:57:07Z</time>
      </trkpt>
      <trkpt lat="42.673762030899525" lon="-2.035347037017345">
        <ele>407.25999999999999</ele>
        <time>2025-04-27T12:57:11Z</time>
      </trkpt>
      <trkpt lat="42.673724982887506" lon="-2.035381989553571">
        <ele>407.25999999999999</ele>
        <time>2025-04-27T12:57:12Z</time>
      </trkpt>
      <trkpt lat="42.673514010384679" lon="-2.035307977348566">
        <ele>407.74000000000001</ele>
        <time>2025-04-27T12:57:16Z</time>
      </trkpt>
      <trkpt lat="42.673461958765984" lon="-2.035302026197314">
        <ele>407.74000000000001</ele>
        <time>2025-04-27T12:57:17Z</time>
      </trkpt>
      <trkpt lat="42.67340999096632" lon="-2.035295991227031">
        <ele>407.74000000000001</ele>
        <time>2025-04-27T12:57:18Z</time>
      </trkpt>
      <trkpt lat="42.67323799431324" lon="-2.035281993448734">
        <ele>408.69999999999999</ele>
        <time>2025-04-27T12:57:21Z</time>
      </trkpt>
      <trkpt lat="42.673180997371674" lon="-2.035281993448734">
        <ele>408.69999999999999</ele>
        <time>2025-04-27T12:57:22Z</time>
      </trkpt>
      <trkpt lat="42.673126012086868" lon="-2.035281993448734">
        <ele>408.69999999999999</ele>
        <time>2025-04-27T12:57:23Z</time>
      </trkpt>
      <trkpt lat="42.673027021810412" lon="-2.035281993448734">
        <ele>408.22000000000003</ele>
        <time>2025-04-27T12:57:25Z</time>
      </trkpt>
      <trkpt lat="42.67297999933362" lon="-2.035281993448734">
        <ele>408.22000000000003</ele>
        <time>2025-04-27T12:57:26Z</time>
      </trkpt>
      <trkpt lat="42.672769026830792" lon="-2.03531501814723">
        <ele>408.22000000000003</ele>
        <time>2025-04-27T12:57:30Z</time>
      </trkpt>
      <trkpt lat="42.67220601439476" lon="-2.035416020080447">
        <ele>404.85000000000002</ele>
        <time>2025-04-27T12:57:43Z</time>
      </trkpt>
      <trkpt lat="42.672046003863215" lon="-2.035456001758575">
        <ele>403.41000000000003</ele>
        <time>2025-04-27T12:57:47Z</time>
      </trkpt>
      <trkpt lat="42.672003004699945" lon="-2.03546597622335">
        <ele>403.41000000000003</ele>
        <time>2025-04-27T12:57:48Z</time>
      </trkpt>
      <trkpt lat="42.671963023021817" lon="-2.035476034507155">
        <ele>402.93000000000001</ele>
        <time>2025-04-27T12:57:49Z</time>
      </trkpt>
      <trkpt lat="42.671918012201786" lon="-2.03548600897193">
        <ele>402.93000000000001</ele>
        <time>2025-04-27T12:57:50Z</time>
      </trkpt>
      <trkpt lat="42.671870989724994" lon="-2.035496989265084">
        <ele>402.44999999999999</ele>
        <time>2025-04-27T12:57:51Z</time>
      </trkpt>
      <trkpt lat="42.671825978904963" lon="-2.035507969558239">
        <ele>401.97000000000003</ele>
        <time>2025-04-27T12:57:52Z</time>
      </trkpt>
      <trkpt lat="42.671654988080263" lon="-2.035545017570257">
        <ele>400.52999999999997</ele>
        <time>2025-04-27T12:57:56Z</time>
      </trkpt>
      <trkpt lat="42.67160402610898" lon="-2.03555197454989">
        <ele>400.05000000000001</ele>
        <time>2025-04-27T12:57:57Z</time>
      </trkpt>
      <trkpt lat="42.671554991975427" lon="-2.035559015348554">
        <ele>399.07999999999998</ele>
        <time>2025-04-27T12:57:58Z</time>
      </trkpt>
      <trkpt lat="42.671507969498634" lon="-2.035565972328186">
        <ele>398.60000000000002</ele>
        <time>2025-04-27T12:57:59Z</time>
      </trkpt>
      <trkpt lat="42.671465976163745" lon="-2.03557200729847">
        <ele>398.12</ele>
        <time>2025-04-27T12:58:00Z</time>
      </trkpt>
      <trkpt lat="42.671429011970758" lon="-2.035577036440373">
        <ele>397.63999999999999</ele>
        <time>2025-04-27T12:58:01Z</time>
      </trkpt>
      <trkpt lat="42.671298002824187" lon="-2.035601008683443">
        <ele>397.16000000000003</ele>
        <time>2025-04-27T12:58:06Z</time>
      </trkpt>
      <trkpt lat="42.671253997832537" lon="-2.035684995353222">
        <ele>397.63999999999999</ele>
        <time>2025-04-27T12:58:07Z</time>
      </trkpt>
      <trkpt lat="42.671199012547731" lon="-2.035561027005315">
        <ele>397.63999999999999</ele>
        <time>2025-04-27T12:58:08Z</time>
      </trkpt>
      <trkpt lat="42.671189038082957" lon="-2.035538982599974">
        <ele>397.63999999999999</ele>
        <time>2025-04-27T12:58:10Z</time>
      </trkpt>
      <trkpt lat="42.671165987849236" lon="-2.035494977608323">
        <ele>397.16000000000003</ele>
        <time>2025-04-27T12:58:11Z</time>
      </trkpt>
      <trkpt lat="42.671118965372443" lon="-2.035399004817009">
        <ele>396.68000000000001</ele>
        <time>2025-04-27T12:58:13Z</time>
      </trkpt>
      <trkpt lat="42.671094993129373" lon="-2.035347037017345">
        <ele>396.68000000000001</ele>
        <time>2025-04-27T12:58:14Z</time>
      </trkpt>
      <trkpt lat="42.67106800340116" lon="-2.035291967913508">
        <ele>397.16000000000003</ele>
        <time>2025-04-27T12:58:15Z</time>
      </trkpt>
      <trkpt lat="42.670902041718364" lon="-2.034944035112858">
        <ele>399.56999999999999</ele>
        <time>2025-04-27T12:58:26Z</time>
      </trkpt>
      <trkpt lat="42.670804979279637" lon="-2.034728033468127">
        <ele>401.00999999999999</ele>
        <time>2025-04-27T12:58:40Z</time>
      </trkpt>
      <trkpt lat="42.670599035918713" lon="-2.034295024350286">
        <ele>407.25999999999999</ele>
        <time>2025-04-27T12:58:48Z</time>
      </trkpt>
      <trkpt lat="42.670360989868641" lon="-2.033781968057156">
        <ele>407.74000000000001</ele>
        <time>2025-04-27T12:59:00Z</time>
      </trkpt>
      <trkpt lat="42.67031597904861" lon="-2.033804012462497">
        <ele>406.76999999999998</ele>
        <time>2025-04-27T12:59:04Z</time>
      </trkpt>
      <trkpt lat="42.670302987098694" lon="-2.033794037997723">
        <ele>406.76999999999998</ele>
        <time>2025-04-27T12:59:05Z</time>
      </trkpt>
      <trkpt lat="42.670285971835256" lon="-2.033565966412425">
        <ele>430.81</ele>
        <time>2025-04-27T14:12:23Z</time>
      </trkpt>
      <trkpt lat="42.670217994600534" lon="-2.03370401635766">
        <ele>438.5</ele>
        <time>2025-04-27T14:12:49Z</time>
      </trkpt>
      <trkpt lat="42.670312039554119" lon="-2.033563032746315">
        <ele>431.76999999999998</ele>
        <time>2025-04-27T14:12:56Z</time>
      </trkpt>
      <trkpt lat="42.670426033437252" lon="-2.033674009144306">
        <ele>427.92000000000002</ele>
        <time>2025-04-27T14:13:09Z</time>
      </trkpt>
      <trkpt lat="42.670462997630239" lon="-2.033763024955988">
        <ele>432.73000000000002</ele>
        <time>2025-04-27T14:13:26Z</time>
      </trkpt>
      <trkpt lat="42.670495016500354" lon="-2.03385497443378">
        <ele>432.25</ele>
        <time>2025-04-27T14:13:29Z</time>
      </trkpt>
      <trkpt lat="42.670523012056947" lon="-2.033905014395714">
        <ele>431.76999999999998</ele>
        <time>2025-04-27T14:13:30Z</time>
      </trkpt>
      <trkpt lat="42.67055100761354" lon="-2.033955976366997">
        <ele>431.76999999999998</ele>
        <time>2025-04-27T14:13:31Z</time>
      </trkpt>
      <trkpt lat="42.670619990676641" lon="-2.034080028533936">
        <ele>431.29000000000002</ele>
        <time>2025-04-27T14:13:34Z</time>
      </trkpt>
      <trkpt lat="42.670580008998513" lon="-2.034269962459803">
        <ele>431.29000000000002</ele>
        <time>2025-04-27T14:13:35Z</time>
      </trkpt>
      <trkpt lat="42.670599035918713" lon="-2.034295024350286">
        <ele>431.29000000000002</ele>
        <time>2025-04-27T14:13:36Z</time>
      </trkpt>
      <trkpt lat="42.670662989839911" lon="-2.034423016011715">
        <ele>430.81</ele>
        <time>2025-04-27T14:13:37Z</time>
      </trkpt>
      <trkpt lat="42.670670030638576" lon="-2.034439025446773">
        <ele>430.81</ele>
        <time>2025-04-27T14:13:38Z</time>
      </trkpt>
      <trkpt lat="42.670695008710027" lon="-2.0344980340451">
        <ele>430.32999999999998</ele>
        <time>2025-04-27T14:13:39Z</time>
      </trkpt>
      <trkpt lat="42.670719986781478" lon="-2.034556958824396">
        <ele>428.39999999999998</ele>
        <time>2025-04-27T14:13:46Z</time>
      </trkpt>
      <trkpt lat="42.670719986781478" lon="-2.034556958824396">
        <ele>427.44</ele>
        <time>2025-04-27T14:13:50Z</time>
      </trkpt>
      <trkpt lat="42.670747982338071" lon="-2.034615967422724">
        <ele>427.44</ele>
        <time>2025-04-27T14:13:51Z</time>
      </trkpt>
      <trkpt lat="42.670771032571793" lon="-2.034660978242755">
        <ele>426.95999999999998</ele>
        <time>2025-04-27T14:13:52Z</time>
      </trkpt>
      <trkpt lat="42.671022992581129" lon="-2.035198006778956">
        <ele>425.04000000000002</ele>
        <time>2025-04-27T14:14:00Z</time>
      </trkpt>
      <trkpt lat="42.671101028099656" lon="-2.035361034795642">
        <ele>423.12</ele>
        <time>2025-04-27T14:14:06Z</time>
      </trkpt>
      <trkpt lat="42.671121982857585" lon="-2.035405961796641">
        <ele>422.63999999999999</ele>
        <time>2025-04-27T14:14:07Z</time>
      </trkpt>
      <trkpt lat="42.671199012547731" lon="-2.035561027005315">
        <ele>421.68000000000001</ele>
        <time>2025-04-27T14:14:11Z</time>
      </trkpt>
      <trkpt lat="42.671199012547731" lon="-2.035561027005315">
        <ele>421.19</ele>
        <time>2025-04-27T14:14:12Z</time>
      </trkpt>
      <trkpt lat="42.671277970075607" lon="-2.035600002855063">
        <ele>420.70999999999998</ele>
        <time>2025-04-27T14:14:13Z</time>
      </trkpt>
      <trkpt lat="42.671285010874271" lon="-2.035604026168585">
        <ele>420.70999999999998</ele>
        <time>2025-04-27T14:14:14Z</time>
      </trkpt>
      <trkpt lat="42.671365980058908" lon="-2.035588016733527">
        <ele>420.70999999999998</ele>
        <time>2025-04-27T14:14:15Z</time>
      </trkpt>
      <trkpt lat="42.671433035284281" lon="-2.035576030611992">
        <ele>420.23000000000002</ele>
        <time>2025-04-27T14:14:16Z</time>
      </trkpt>
      <trkpt lat="42.672008033841848" lon="-2.035464970394969">
        <ele>417.35000000000002</ele>
        <time>2025-04-27T14:14:26Z</time>
      </trkpt>
      <trkpt lat="42.672499967738986" lon="-2.035362040624023">
        <ele>415.43000000000001</ele>
        <time>2025-04-27T14:14:34Z</time>
      </trkpt>
      <trkpt lat="42.672565011307597" lon="-2.035349970683456">
        <ele>414.94999999999999</ele>
        <time>2025-04-27T14:14:35Z</time>
      </trkpt>
      <trkpt lat="42.672627959400415" lon="-2.035338990390301">
        <ele>414.94999999999999</ele>
        <time>2025-04-27T14:14:36Z</time>
      </trkpt>
      <trkpt lat="42.672997014597058" lon="-2.035281993448734">
        <ele>415.43000000000001</ele>
        <time>2025-04-27T14:14:41Z</time>
      </trkpt>
      <trkpt lat="42.673071026802063" lon="-2.035281993448734">
        <ele>415.91000000000003</ele>
        <time>2025-04-27T14:14:42Z</time>
      </trkpt>
      <trkpt lat="42.67355902120471" lon="-2.035313006490469">
        <ele>415.43000000000001</ele>
        <time>2025-04-27T14:14:49Z</time>
      </trkpt>
      <trkpt lat="42.673628004267812" lon="-2.035319963470101">
        <ele>415.43000000000001</ele>
        <time>2025-04-27T14:14:50Z</time>
      </trkpt>
      <trkpt lat="42.673666980117559" lon="-2.035324992612004">
        <ele>415.43000000000001</ele>
        <time>2025-04-27T14:14:51Z</time>
      </trkpt>
      <trkpt lat="42.673765970394015" lon="-2.035347037017345">
        <ele>414.94999999999999</ele>
        <time>2025-04-27T14:14:52Z</time>
      </trkpt>
      <trkpt lat="42.673838976770639" lon="-2.035350976511836">
        <ele>414.94999999999999</ele>
        <time>2025-04-27T14:14:53Z</time>
      </trkpt>
      <trkpt lat="42.674267962574959" lon="-2.035376960411668">
        <ele>412.54000000000002</ele>
        <time>2025-04-27T14:14:59Z</time>
      </trkpt>
      <trkpt lat="42.674344992265105" lon="-2.035381989553571">
        <ele>411.57999999999998</ele>
        <time>2025-04-27T14:15:00Z</time>
      </trkpt>
      <trkpt lat="42.674421016126871" lon="-2.035386012867093">
        <ele>411.10000000000002</ele>
        <time>2025-04-27T14:15:01Z</time>
      </trkpt>
      <trkpt lat="42.674508020281792" lon="-2.035394981503487">
        <ele>410.13999999999999</ele>
        <time>2025-04-27T14:15:02Z</time>
      </trkpt>
      <trkpt lat="42.674608016386628" lon="-2.035405961796641">
        <ele>408.22000000000003</ele>
        <time>2025-04-27T14:15:03Z</time>
      </trkpt>
      <trkpt lat="42.674946980550885" lon="-2.035432029515505">
        <ele>400.52999999999997</ele>
        <time>2025-04-27T14:15:08Z</time>
      </trkpt>
      <trkpt lat="42.675121994689107" lon="-2.035469999536872">
        <ele>396.68000000000001</ele>
        <time>2025-04-27T14:15:11Z</time>
      </trkpt>
      <trkpt lat="42.67521402798593" lon="-2.035494977608323">
        <ele>394.75999999999999</ele>
        <time>2025-04-27T14:15:13Z</time>
      </trkpt>
      <trkpt lat="42.675447966903448" lon="-2.035646019503474">
        <ele>391.87</ele>
        <time>2025-04-27T14:15:18Z</time>
      </trkpt>
      <trkpt lat="42.675447966903448" lon="-2.035646019503474">
        <ele>391.38999999999999</ele>
        <time>2025-04-27T14:15:19Z</time>
      </trkpt>
      <trkpt lat="42.675662962719798" lon="-2.035624980926514">
        <ele>391.87</ele>
        <time>2025-04-27T14:15:20Z</time>
      </trkpt>
      <trkpt lat="42.675662962719798" lon="-2.035624980926514">
        <ele>392.36000000000001</ele>
        <time>2025-04-27T14:15:21Z</time>
      </trkpt>
      <trkpt lat="42.675703028216958" lon="-2.035605031996965">
        <ele>394.27999999999997</ele>
        <time>2025-04-27T14:15:22Z</time>
      </trkpt>
      <trkpt lat="42.675760025158525" lon="-2.035576030611992">
        <ele>394.27999999999997</ele>
        <time>2025-04-27T14:15:23Z</time>
      </trkpt>
      <trkpt lat="42.675806963816285" lon="-2.03555298037827">
        <ele>394.27999999999997</ele>
        <time>2025-04-27T14:15:24Z</time>
      </trkpt>
      <trkpt lat="42.675877036526799" lon="-2.035518027842045">
        <ele>394.75999999999999</ele>
        <time>2025-04-27T14:15:25Z</time>
      </trkpt>
      <trkpt lat="42.675906037911773" lon="-2.035518027842045">
        <ele>394.75999999999999</ele>
        <time>2025-04-27T14:15:26Z</time>
      </trkpt>
      <trkpt lat="42.676090020686388" lon="-2.035518027842045">
        <ele>394.75999999999999</ele>
        <time>2025-04-27T14:15:29Z</time>
      </trkpt>
      <trkpt lat="42.676162021234632" lon="-2.035518027842045">
        <ele>395.24000000000001</ele>
        <time>2025-04-27T14:15:30Z</time>
      </trkpt>
      <trkpt lat="42.676496040076017" lon="-2.035520039498806">
        <ele>394.75999999999999</ele>
        <time>2025-04-27T14:15:34Z</time>
      </trkpt>
      <trkpt lat="42.676582038402557" lon="-2.035523978993297">
        <ele>394.75999999999999</ele>
        <time>2025-04-27T14:15:35Z</time>
      </trkpt>
      <trkpt lat="42.676939023658633" lon="-2.035538982599974">
        <ele>397.16000000000003</ele>
        <time>2025-04-27T14:15:40Z</time>
      </trkpt>
      <trkpt lat="42.677004989236593" lon="-2.035545017570257">
        <ele>397.16000000000003</ele>
        <time>2025-04-27T14:15:41Z</time>
      </trkpt>
      <trkpt lat="42.677065003663301" lon="-2.035554992035031">
        <ele>397.16000000000003</ele>
        <time>2025-04-27T14:15:42Z</time>
      </trkpt>
      <trkpt lat="42.677258038893342" lon="-2.035574018955231">
        <ele>398.12</ele>
        <time>2025-04-27T14:15:45Z</time>
      </trkpt>
      <trkpt lat="42.677330039441586" lon="-2.035579970106483">
        <ele>398.60000000000002</ele>
        <time>2025-04-27T14:15:46Z</time>
      </trkpt>
      <trkpt lat="42.677420983090997" lon="-2.035632021725178">
        <ele>398.60000000000002</ele>
        <time>2025-04-27T14:15:47Z</time>
      </trkpt>
      <trkpt lat="42.677485020831227" lon="-2.0356809720397">
        <ele>399.56999999999999</ele>
        <time>2025-04-27T14:15:48Z</time>
      </trkpt>
      <trkpt lat="42.677550986409187" lon="-2.035732017830014">
        <ele>403.41000000000003</ele>
        <time>2025-04-27T14:15:49Z</time>
      </trkpt>
      <trkpt lat="42.677579987794161" lon="-2.035776022821665">
        <ele>407.25999999999999</ele>
        <time>2025-04-27T14:15:50Z</time>
      </trkpt>
      <trkpt lat="42.677627010270953" lon="-2.035847017541528">
        <ele>409.66000000000003</ele>
        <time>2025-04-27T14:15:51Z</time>
      </trkpt>
      <trkpt lat="42.677679983898997" lon="-2.035924969241023">
        <ele>411.10000000000002</ele>
        <time>2025-04-27T14:15:52Z</time>
      </trkpt>
      <trkpt lat="42.677923981100321" lon="-2.036457974463701">
        <ele>414.47000000000003</ele>
        <time>2025-04-27T14:15:57Z</time>
      </trkpt>
      <trkpt lat="42.677989024668932" lon="-2.036573980003595">
        <ele>414.94999999999999</ele>
        <time>2025-04-27T14:15:58Z</time>
      </trkpt>
      <trkpt lat="42.678055996075273" lon="-2.036677999421954">
        <ele>414.94999999999999</ele>
        <time>2025-04-27T14:15:59Z</time>
      </trkpt>
      <trkpt lat="42.678121961653233" lon="-2.036781013011932">
        <ele>415.43000000000001</ele>
        <time>2025-04-27T14:16:00Z</time>
      </trkpt>
      <trkpt lat="42.678213994950056" lon="-2.036885032430291">
        <ele>415.43000000000001</ele>
        <time>2025-04-27T14:16:01Z</time>
      </trkpt>
      <trkpt lat="42.678300999104977" lon="-2.036964995786548">
        <ele>415.43000000000001</ele>
        <time>2025-04-27T14:16:02Z</time>
      </trkpt>
      <trkpt lat="42.678386997431517" lon="-2.037044959142804">
        <ele>415.91000000000003</ele>
        <time>2025-04-27T14:16:03Z</time>
      </trkpt>
      <trkpt lat="42.67847802489996" lon="-2.037122994661331">
        <ele>415.91000000000003</ele>
        <time>2025-04-27T14:16:04Z</time>
      </trkpt>
      <trkpt lat="42.678566034883261" lon="-2.037180997431278">
        <ele>416.38999999999999</ele>
        <time>2025-04-27T14:16:05Z</time>
      </trkpt>
      <trkpt lat="42.679388970136642" lon="-2.037862027063966">
        <ele>421.19</ele>
        <time>2025-04-27T14:16:15Z</time>
      </trkpt>
      <trkpt lat="42.679458037018776" lon="-2.037920029833913">
        <ele>422.16000000000003</ele>
        <time>2025-04-27T14:16:16Z</time>
      </trkpt>
      <trkpt lat="42.67961704172194" lon="-2.038052966818214">
        <ele>425.04000000000002</ele>
        <time>2025-04-27T14:16:19Z</time>
      </trkpt>
      <trkpt lat="42.67966297455132" lon="-2.038093032315373">
        <ele>426</ele>
        <time>2025-04-27T14:16:20Z</time>
      </trkpt>
      <trkpt lat="42.679847041144967" lon="-2.038093032315373">
        <ele>428.39999999999998</ele>
        <time>2025-04-27T14:16:22Z</time>
      </trkpt>
      <trkpt lat="42.679910995066166" lon="-2.038113987073302">
        <ele>429.37</ele>
        <time>2025-04-27T14:16:23Z</time>
      </trkpt>
      <trkpt lat="42.679933961480856" lon="-2.038161009550095">
        <ele>430.32999999999998</ele>
        <time>2025-04-27T14:16:24Z</time>
      </trkpt>
      <trkpt lat="42.679976038634777" lon="-2.038242984563112">
        <ele>430.81</ele>
        <time>2025-04-27T14:16:25Z</time>
      </trkpt>
      <trkpt lat="42.679912000894547" lon="-2.038438031449914">
        <ele>431.29000000000002</ele>
        <time>2025-04-27T14:16:26Z</time>
      </trkpt>
      <trkpt lat="42.680189022794366" lon="-2.03948300331831">
        <ele>428.88999999999999</ele>
        <time>2025-04-27T14:16:35Z</time>
      </trkpt>
      <trkpt lat="42.680436037480831" lon="-2.041449984535575">
        <ele>426</ele>
        <time>2025-04-27T14:16:48Z</time>
      </trkpt>
      <trkpt lat="42.680580960586667" lon="-2.043395005166531">
        <ele>427.92000000000002</ele>
        <time>2025-04-27T14:17:00Z</time>
      </trkpt>
      <trkpt lat="42.680859994143248" lon="-2.045794995501638">
        <ele>427.92000000000002</ele>
        <time>2025-04-27T14:17:14Z</time>
      </trkpt>
      <trkpt lat="42.681120000779629" lon="-2.046641986817122">
        <ele>427.92000000000002</ele>
        <time>2025-04-27T14:17:19Z</time>
      </trkpt>
      <trkpt lat="42.681224020197988" lon="-2.046795040369034">
        <ele>427.92000000000002</ele>
        <time>2025-04-27T14:17:20Z</time>
      </trkpt>
      <trkpt lat="42.681327033787966" lon="-2.046933006495237">
        <ele>428.39999999999998</ele>
        <time>2025-04-27T14:17:21Z</time>
      </trkpt>
      <trkpt lat="42.681460976600647" lon="-2.047081030905247">
        <ele>428.39999999999998</ele>
        <time>2025-04-27T14:17:22Z</time>
      </trkpt>
      <trkpt lat="42.681603971868753" lon="-2.047206005081534">
        <ele>428.39999999999998</ele>
        <time>2025-04-27T14:17:23Z</time>
      </trkpt>
      <trkpt lat="42.681756019592285" lon="-2.047311030328274">
        <ele>428.88999999999999</ele>
        <time>2025-04-27T14:17:24Z</time>
      </trkpt>
      <trkpt lat="42.68191703595221" lon="-2.047399962320924">
        <ele>428.88999999999999</ele>
        <time>2025-04-27T14:17:25Z</time>
      </trkpt>
      <trkpt lat="42.682087020948529" lon="-2.047472968697548">
        <ele>428.88999999999999</ele>
        <time>2025-04-27T14:17:26Z</time>
      </trkpt>
      <trkpt lat="42.682259017601609" lon="-2.047493001446128">
        <ele>428.88999999999999</ele>
        <time>2025-04-27T14:17:27Z</time>
      </trkpt>
      <trkpt lat="42.683060998097062" lon="-2.047508005052805">
        <ele>429.85000000000002</ele>
        <time>2025-04-27T14:17:33Z</time>
      </trkpt>
      <trkpt lat="42.683157976716757" lon="-2.047500964254141">
        <ele>430.32999999999998</ele>
        <time>2025-04-27T14:17:34Z</time>
      </trkpt>
      <trkpt lat="42.683241963386536" lon="-2.047495013102889">
        <ele>430.32999999999998</ele>
        <time>2025-04-27T14:17:35Z</time>
      </trkpt>
      <trkpt lat="42.683343971148133" lon="-2.047341037541628">
        <ele>430.32999999999998</ele>
        <time>2025-04-27T14:17:36Z</time>
      </trkpt>
      <trkpt lat="42.683383030816913" lon="-2.047332990914583">
        <ele>430.32999999999998</ele>
        <time>2025-04-27T14:17:37Z</time>
      </trkpt>
      <trkpt lat="42.683461988344789" lon="-2.047329973429442">
        <ele>429.85000000000002</ele>
        <time>2025-04-27T14:17:38Z</time>
      </trkpt>
      <trkpt lat="42.683520996943116" lon="-2.047407003119588">
        <ele>429.37</ele>
        <time>2025-04-27T14:17:39Z</time>
      </trkpt>
      <trkpt lat="42.683538012206554" lon="-2.047490989789367">
        <ele>429.37</ele>
        <time>2025-04-27T14:17:40Z</time>
      </trkpt>
      <trkpt lat="42.683499958366156" lon="-2.047585034742951">
        <ele>429.37</ele>
        <time>2025-04-27T14:17:41Z</time>
      </trkpt>
      <trkpt lat="42.683495013043284" lon="-2.047598026692867">
        <ele>429.37</ele>
        <time>2025-04-27T14:17:42Z</time>
      </trkpt>
      <trkpt lat="42.683452013880014" lon="-2.047803970053792">
        <ele>428.88999999999999</ele>
        <time>2025-04-27T14:17:43Z</time>
      </trkpt>
      <trkpt lat="42.683452013880014" lon="-2.047899020835757">
        <ele>428.88999999999999</ele>
        <time>2025-04-27T14:17:44Z</time>
      </trkpt>
      <trkpt lat="42.683414965867996" lon="-2.048057019710541">
        <ele>428.88999999999999</ele>
        <time>2025-04-27T14:17:45Z</time>
      </trkpt>
      <trkpt lat="42.683384036645293" lon="-2.04818400554359">
        <ele>428.39999999999998</ele>
        <time>2025-04-27T14:17:46Z</time>
      </trkpt>
      <trkpt lat="42.683300971984863" lon="-2.048328006640077">
        <ele>428.39999999999998</ele>
        <time>2025-04-27T14:17:47Z</time>
      </trkpt>
      <trkpt lat="42.683237018063664" lon="-2.048417022451758">
        <ele>428.88999999999999</ele>
        <time>2025-04-27T14:17:48Z</time>
      </trkpt>
      <trkpt lat="42.683150013908744" lon="-2.048535961657763">
        <ele>428.88999999999999</ele>
        <time>2025-04-27T14:17:49Z</time>
      </trkpt>
      <trkpt lat="42.683063009753823" lon="-2.048655990511179">
        <ele>428.88999999999999</ele>
        <time>2025-04-27T14:17:50Z</time>
      </trkpt>
      <trkpt lat="42.682957984507084" lon="-2.048799991607666">
        <ele>428.39999999999998</ele>
        <time>2025-04-27T14:17:51Z</time>
      </trkpt>
      <trkpt lat="42.682911967858672" lon="-2.048934018239379">
        <ele>428.39999999999998</ele>
        <time>2025-04-27T14:17:52Z</time>
      </trkpt>
      <trkpt lat="42.682853965088725" lon="-2.049098974093795">
        <ele>428.39999999999998</ele>
        <time>2025-04-27T14:17:53Z</time>
      </trkpt>
      <trkpt lat="42.682785987854004" lon="-2.049294020980597">
        <ele>428.39999999999998</ele>
        <time>2025-04-27T14:17:54Z</time>
      </trkpt>
      <trkpt lat="42.682764027267694" lon="-2.049459982663393">
        <ele>427.92000000000002</ele>
        <time>2025-04-27T14:17:55Z</time>
      </trkpt>
      <trkpt lat="42.682743994519114" lon="-2.049662992358208">
        <ele>427.92000000000002</ele>
        <time>2025-04-27T14:17:56Z</time>
      </trkpt>
      <trkpt lat="42.682743994519114" lon="-2.049872037023306">
        <ele>427.92000000000002</ele>
        <time>2025-04-27T14:17:57Z</time>
      </trkpt>
      <trkpt lat="42.682742988690734" lon="-2.050093989819288">
        <ele>427.92000000000002</ele>
        <time>2025-04-27T14:17:58Z</time>
      </trkpt>
      <trkpt lat="42.682737959548831" lon="-2.050318960100412">
        <ele>427.92000000000002</ele>
        <time>2025-04-27T14:17:59Z</time>
      </trkpt>
      <trkpt lat="42.682727985084057" lon="-2.050768984481692">
        <ele>426.95999999999998</ele>
        <time>2025-04-27T14:18:01Z</time>
      </trkpt>
      <trkpt lat="42.68251902423799" lon="-2.052830010652542">
        <ele>424.56</ele>
        <time>2025-04-27T14:18:10Z</time>
      </trkpt>
      <trkpt lat="42.682507960125804" lon="-2.053053975105286">
        <ele>424.56</ele>
        <time>2025-04-27T14:18:11Z</time>
      </trkpt>
      <trkpt lat="42.682532016187906" lon="-2.053279029205442">
        <ele>424.56</ele>
        <time>2025-04-27T14:18:12Z</time>
      </trkpt>
      <trkpt lat="42.682559005916119" lon="-2.05349201336503">
        <ele>424.56</ele>
        <time>2025-04-27T14:18:13Z</time>
      </trkpt>
      <trkpt lat="42.682608962059021" lon="-2.053698962554336">
        <ele>425.04000000000002</ele>
        <time>2025-04-27T14:18:14Z</time>
      </trkpt>
      <trkpt lat="42.682660007849336" lon="-2.053908007219434">
        <ele>425.04000000000002</ele>
        <time>2025-04-27T14:18:15Z</time>
      </trkpt>
      <trkpt lat="42.682743994519114" lon="-2.05433196388185">
        <ele>426.48000000000002</ele>
        <time>2025-04-27T14:18:17Z</time>
      </trkpt>
      <trkpt lat="42.682743994519114" lon="-2.054550983011723">
        <ele>426.95999999999998</ele>
        <time>2025-04-27T14:18:18Z</time>
      </trkpt>
      <trkpt lat="42.682743994519114" lon="-2.054771007969976">
        <ele>426.95999999999998</ele>
        <time>2025-04-27T14:18:19Z</time>
      </trkpt>
      <trkpt lat="42.682686997577548" lon="-2.054988015443087">
        <ele>427.44</ele>
        <time>2025-04-27T14:18:20Z</time>
      </trkpt>
      <trkpt lat="42.682614997029305" lon="-2.05518901348114">
        <ele>427.92000000000002</ele>
        <time>2025-04-27T14:18:21Z</time>
      </trkpt>
      <trkpt lat="42.682517012581229" lon="-2.055366039276123">
        <ele>427.92000000000002</ele>
        <time>2025-04-27T14:18:22Z</time>
      </trkpt>
      <trkpt lat="42.682421961799264" lon="-2.055537030100822">
        <ele>428.39999999999998</ele>
        <time>2025-04-27T14:18:23Z</time>
      </trkpt>
      <trkpt lat="42.68234602175653" lon="-2.055722018703818">
        <ele>428.39999999999998</ele>
        <time>2025-04-27T14:18:24Z</time>
      </trkpt>
      <trkpt lat="42.682269997894764" lon="-2.055915975943208">
        <ele>428.39999999999998</ele>
        <time>2025-04-27T14:18:25Z</time>
      </trkpt>
      <trkpt lat="42.682251976802945" lon="-2.0561339892447">
        <ele>428.88999999999999</ele>
        <time>2025-04-27T14:18:26Z</time>
      </trkpt>
      <trkpt lat="42.682295981794596" lon="-2.056335993111134">
        <ele>428.88999999999999</ele>
        <time>2025-04-27T14:18:27Z</time>
      </trkpt>
      <trkpt lat="42.682351972907782" lon="-2.056546965613961">
        <ele>428.88999999999999</ele>
        <time>2025-04-27T14:18:28Z</time>
      </trkpt>
      <trkpt lat="42.682408969849348" lon="-2.056763973087072">
        <ele>428.88999999999999</ele>
        <time>2025-04-27T14:18:29Z</time>
      </trkpt>
      <trkpt lat="42.682466972619295" lon="-2.056986009702086">
        <ele>428.88999999999999</ele>
        <time>2025-04-27T14:18:30Z</time>
      </trkpt>
      <trkpt lat="42.682526987046003" lon="-2.057216009125114">
        <ele>429.37</ele>
        <time>2025-04-27T14:18:31Z</time>
      </trkpt>
      <trkpt lat="42.682593036442995" lon="-2.057468974962831">
        <ele>429.37</ele>
        <time>2025-04-27T14:18:32Z</time>
      </trkpt>
      <trkpt lat="42.68258498981595" lon="-2.057700986042619">
        <ele>429.85000000000002</ele>
        <time>2025-04-27T14:18:33Z</time>
      </trkpt>
      <trkpt lat="42.682576021179557" lon="-2.057959986850619">
        <ele>429.85000000000002</ele>
        <time>2025-04-27T14:18:34Z</time>
      </trkpt>
      <trkpt lat="42.682535033673048" lon="-2.05821898765862">
        <ele>430.32999999999998</ele>
        <time>2025-04-27T14:18:35Z</time>
      </trkpt>
      <trkpt lat="42.68232699483633" lon="-2.058932958170772">
        <ele>430.32999999999998</ele>
        <time>2025-04-27T14:18:38Z</time>
      </trkpt>
      <trkpt lat="42.682230016216636" lon="-2.059149965643883">
        <ele>429.85000000000002</ele>
        <time>2025-04-27T14:18:39Z</time>
      </trkpt>
      <trkpt lat="42.682096995413303" lon="-2.059344006702304">
        <ele>429.85000000000002</ele>
        <time>2025-04-27T14:18:40Z</time>
      </trkpt>
      <trkpt lat="42.68196296878159" lon="-2.059535030275583">
        <ele>429.85000000000002</ele>
        <time>2025-04-27T14:18:41Z</time>
      </trkpt>
      <trkpt lat="42.6817880384624" lon="-2.059664027765393">
        <ele>429.85000000000002</ele>
        <time>2025-04-27T14:18:42Z</time>
      </trkpt>
      <trkpt lat="42.681607995182276" lon="-2.059796964749694">
        <ele>429.85000000000002</ele>
        <time>2025-04-27T14:18:43Z</time>
      </trkpt>
      <trkpt lat="42.681419989094138" lon="-2.059907019138336">
        <ele>429.37</ele>
        <time>2025-04-27T14:18:44Z</time>
      </trkpt>
      <trkpt lat="42.681222008541226" lon="-2.059951024129987">
        <ele>429.37</ele>
        <time>2025-04-27T14:18:45Z</time>
      </trkpt>
      <trkpt lat="42.681034002453089" lon="-2.059993017464876">
        <ele>429.37</ele>
        <time>2025-04-27T14:18:46Z</time>
      </trkpt>
      <trkpt lat="42.680845996364951" lon="-2.060036016628146">
        <ele>428.88999999999999</ele>
        <time>2025-04-27T14:18:47Z</time>
      </trkpt>
      <trkpt lat="42.680657990276814" lon="-2.060078009963036">
        <ele>428.88999999999999</ele>
        <time>2025-04-27T14:18:48Z</time>
      </trkpt>
      <trkpt lat="42.680493034422398" lon="-2.060179011896253">
        <ele>429.37</ele>
        <time>2025-04-27T14:18:49Z</time>
      </trkpt>
      <trkpt lat="42.680322965607047" lon="-2.06030398607254">
        <ele>429.37</ele>
        <time>2025-04-27T14:18:50Z</time>
      </trkpt>
      <trkpt lat="42.680192040279508" lon="-2.060486041009426">
        <ele>429.37</ele>
        <time>2025-04-27T14:18:51Z</time>
      </trkpt>
      <trkpt lat="42.680059019476175" lon="-2.060688966885209">
        <ele>429.37</ele>
        <time>2025-04-27T14:18:52Z</time>
      </trkpt>
      <trkpt lat="42.679953994229436" lon="-2.060914020985365">
        <ele>429.37</ele>
        <time>2025-04-27T14:18:53Z</time>
      </trkpt>
      <trkpt lat="42.679859027266502" lon="-2.061149971559644">
        <ele>429.37</ele>
        <time>2025-04-27T14:18:54Z</time>
      </trkpt>
      <trkpt lat="42.678883960470557" lon="-2.06384701654315">
        <ele>432.25</ele>
        <time>2025-04-27T14:19:06Z</time>
      </trkpt>
      <trkpt lat="42.67848095856607" lon="-2.06498603336513">
        <ele>436.10000000000002</ele>
        <time>2025-04-27T14:19:14Z</time>
      </trkpt>
      <trkpt lat="42.678041998296976" lon="-2.066284976899624">
        <ele>438.5</ele>
        <time>2025-04-27T14:19:23Z</time>
      </trkpt>
      <trkpt lat="42.678022971376777" lon="-2.066438030451536">
        <ele>438.98000000000002</ele>
        <time>2025-04-27T14:19:24Z</time>
      </trkpt>
      <trkpt lat="42.678032023832202" lon="-2.066593011841178">
        <ele>438.98000000000002</ele>
        <time>2025-04-27T14:19:25Z</time>
      </trkpt>
      <trkpt lat="42.678040992468596" lon="-2.0667489990592">
        <ele>439.45999999999998</ele>
        <time>2025-04-27T14:19:26Z</time>
      </trkpt>
      <trkpt lat="42.678063958883286" lon="-2.0669009629637">
        <ele>439.94</ele>
        <time>2025-04-27T14:19:27Z</time>
      </trkpt>
      <trkpt lat="42.678087009117007" lon="-2.067382000386715">
        <ele>440.89999999999998</ele>
        <time>2025-04-27T14:19:30Z</time>
      </trkpt>
      <trkpt lat="42.678066976368427" lon="-2.067524995654821">
        <ele>441.38</ele>
        <time>2025-04-27T14:19:31Z</time>
      </trkpt>
      <trkpt lat="42.678014002740383" lon="-2.067662039771676">
        <ele>441.38</ele>
        <time>2025-04-27T14:19:32Z</time>
      </trkpt>
      <trkpt lat="42.677960023283958" lon="-2.067797994241118">
        <ele>441.86000000000001</ele>
        <time>2025-04-27T14:19:33Z</time>
      </trkpt>
      <trkpt lat="42.677895985543728" lon="-2.067923974245787">
        <ele>441.86000000000001</ele>
        <time>2025-04-27T14:19:34Z</time>
      </trkpt>
      <trkpt lat="42.677823984995484" lon="-2.068048026412725">
        <ele>442.33999999999997</ele>
        <time>2025-04-27T14:19:35Z</time>
      </trkpt>
      <trkpt lat="42.676972970366478" lon="-2.069463981315494">
        <ele>439.45999999999998</ele>
        <time>2025-04-27T14:19:45Z</time>
      </trkpt>
      <trkpt lat="42.675646031275392" lon="-2.071577981114388">
        <ele>435.61000000000001</ele>
        <time>2025-04-27T14:19:58Z</time>
      </trkpt>
      <trkpt lat="42.674601981416345" lon="-2.073227036744356">
        <ele>435.13</ele>
        <time>2025-04-27T14:20:08Z</time>
      </trkpt>
      <trkpt lat="42.673671003431082" lon="-2.074692025780678">
        <ele>436.57999999999998</ele>
        <time>2025-04-27T14:20:17Z</time>
      </trkpt>
      <trkpt lat="42.672348003834486" lon="-2.07635298371315">
        <ele>436.57999999999998</ele>
        <time>2025-04-27T14:20:28Z</time>
      </trkpt>
      <trkpt lat="42.670497028157115" lon="-2.077889973297715">
        <ele>437.54000000000002</ele>
        <time>2025-04-27T14:20:39Z</time>
      </trkpt>
      <trkpt lat="42.668379005044699" lon="-2.079652016982436">
        <ele>438.5</ele>
        <time>2025-04-27T14:20:51Z</time>
      </trkpt>
      <trkpt lat="42.66597599722445" lon="-2.081640036776662">
        <ele>440.89999999999998</ele>
        <time>2025-04-27T14:21:05Z</time>
      </trkpt>
      <trkpt lat="42.664702031761408" lon="-2.083121035248041">
        <ele>441.86000000000001</ele>
        <time>2025-04-27T14:21:13Z</time>
      </trkpt>
      <trkpt lat="42.663538958877325" lon="-2.084849970415235">
        <ele>441.86000000000001</ele>
        <time>2025-04-27T14:21:21Z</time>
      </trkpt>
      <trkpt lat="42.661704998463392" lon="-2.086830027401447">
        <ele>442.33999999999997</ele>
        <time>2025-04-27T14:21:32Z</time>
      </trkpt>
      <trkpt lat="42.660929001867771" lon="-2.088480005040765">
        <ele>443.31</ele>
        <time>2025-04-27T14:21:39Z</time>
      </trkpt>
      <trkpt lat="42.660348974168301" lon="-2.090993989259005">
        <ele>444.26999999999998</ele>
        <time>2025-04-27T14:21:48Z</time>
      </trkpt>
      <trkpt lat="42.659583035856485" lon="-2.094167964532971">
        <ele>446.67000000000002</ele>
        <time>2025-04-27T14:22:00Z</time>
      </trkpt>
      <trkpt lat="42.658962020650506" lon="-2.096796026453376">
        <ele>448.11000000000001</ele>
        <time>2025-04-27T14:22:10Z</time>
      </trkpt>
      <trkpt lat="42.65796197578311" lon="-2.100718002766371">
        <ele>449.55000000000001</ele>
        <time>2025-04-27T14:22:25Z</time>
      </trkpt>
      <trkpt lat="42.657487979158759" lon="-2.103030988946557">
        <ele>450.02999999999997</ele>
        <time>2025-04-27T14:22:35Z</time>
      </trkpt>
      <trkpt lat="42.657546987757087" lon="-2.103648986667395">
        <ele>450.02999999999997</ele>
        <time>2025-04-27T14:22:38Z</time>
      </trkpt>
      <trkpt lat="42.657573977485299" lon="-2.103859959170222">
        <ele>450.51999999999998</ele>
        <time>2025-04-27T14:22:39Z</time>
      </trkpt>
      <trkpt lat="42.657636003568769" lon="-2.104075038805604">
        <ele>450.51999999999998</ele>
        <time>2025-04-27T14:22:40Z</time>
      </trkpt>
      <trkpt lat="42.65770398080349" lon="-2.104291962459683">
        <ele>451</ele>
        <time>2025-04-27T14:22:41Z</time>
      </trkpt>
      <trkpt lat="42.657785033807158" lon="-2.104506958276033">
        <ele>451.48000000000002</ele>
        <time>2025-04-27T14:22:42Z</time>
      </trkpt>
      <trkpt lat="42.657872959971428" lon="-2.104727989062667">
        <ele>451.95999999999998</ele>
        <time>2025-04-27T14:22:43Z</time>
      </trkpt>
      <trkpt lat="42.657976979389787" lon="-2.104946002364159">
        <ele>451.95999999999998</ele>
        <time>2025-04-27T14:22:44Z</time>
      </trkpt>
      <trkpt lat="42.65808803960681" lon="-2.105167033150792">
        <ele>451.95999999999998</ele>
        <time>2025-04-27T14:22:45Z</time>
      </trkpt>
      <trkpt lat="42.659242982044816" lon="-2.107113981619477">
        <ele>451</ele>
        <time>2025-04-27T14:22:54Z</time>
      </trkpt>
      <trkpt lat="42.659536013379693" lon="-2.107837004587054">
        <ele>449.55000000000001</ele>
        <time>2025-04-27T14:22:57Z</time>
      </trkpt>
      <trkpt lat="42.659612959250808" lon="-2.108089970424771">
        <ele>449.55000000000001</ele>
        <time>2025-04-27T14:22:58Z</time>
      </trkpt>
      <trkpt lat="42.659657970070839" lon="-2.108356012031436">
        <ele>449.06999999999999</ele>
        <time>2025-04-27T14:22:59Z</time>
      </trkpt>
      <trkpt lat="42.659703986719251" lon="-2.108621969819069">
        <ele>449.06999999999999</ele>
        <time>2025-04-27T14:23:00Z</time>
      </trkpt>
      <trkpt lat="42.659718990325928" lon="-2.10890100337565">
        <ele>449.06999999999999</ele>
        <time>2025-04-27T14:23:01Z</time>
      </trkpt>
      <trkpt lat="42.659718990325928" lon="-2.10918297059834">
        <ele>448.58999999999997</ele>
        <time>2025-04-27T14:23:02Z</time>
      </trkpt>
      <trkpt lat="42.659717984497547" lon="-2.109470972791314">
        <ele>448.58999999999997</ele>
        <time>2025-04-27T14:23:03Z</time>
      </trkpt>
      <trkpt lat="42.659668028354645" lon="-2.111916979774833">
        <ele>448.11000000000001</ele>
        <time>2025-04-27T14:23:11Z</time>
      </trkpt>
      <trkpt lat="42.659365022554994" lon="-2.11534702219069">
        <ele>449.55000000000001</ele>
        <time>2025-04-27T14:23:22Z</time>
      </trkpt>
      <trkpt lat="42.658836962655187" lon="-2.117362031713128">
        <ele>451.95999999999998</ele>
        <time>2025-04-27T14:23:29Z</time>
      </trkpt>
      <trkpt lat="42.657092018052936" lon="-2.122927028685808">
        <ele>452.92000000000002</ele>
        <time>2025-04-27T14:23:48Z</time>
      </trkpt>
      <trkpt lat="42.65613698400557" lon="-2.126021040603519">
        <ele>453.88</ele>
        <time>2025-04-27T14:23:59Z</time>
      </trkpt>
      <trkpt lat="42.656086022034287" lon="-2.126294961199164">
        <ele>453.88</ele>
        <time>2025-04-27T14:24:00Z</time>
      </trkpt>
      <trkpt lat="42.656034976243973" lon="-2.126569971442223">
        <ele>453.88</ele>
        <time>2025-04-27T14:24:01Z</time>
      </trkpt>
      <trkpt lat="42.656029025092721" lon="-2.126852022483945">
        <ele>453.88</ele>
        <time>2025-04-27T14:24:02Z</time>
      </trkpt>
      <trkpt lat="42.656034976243973" lon="-2.127134995535016">
        <ele>454.36000000000001</ele>
        <time>2025-04-27T14:24:03Z</time>
      </trkpt>
      <trkpt lat="42.656079987064004" lon="-2.127406988292933">
        <ele>454.36000000000001</ele>
        <time>2025-04-27T14:24:04Z</time>
      </trkpt>
      <trkpt lat="42.656167997047305" lon="-2.12766095995903">
        <ele>454.83999999999997</ele>
        <time>2025-04-27T14:24:05Z</time>
      </trkpt>
      <trkpt lat="42.656272016465664" lon="-2.127906968817115">
        <ele>455.31999999999999</ele>
        <time>2025-04-27T14:24:06Z</time>
      </trkpt>
      <trkpt lat="42.656377041712403" lon="-2.128154989331961">
        <ele>455.31999999999999</ele>
        <time>2025-04-27T14:24:07Z</time>
      </trkpt>
      <trkpt lat="42.65645801089704" lon="-2.128408038988709">
        <ele>455.80000000000001</ele>
        <time>2025-04-27T14:24:08Z</time>
      </trkpt>
      <trkpt lat="42.656524982303381" lon="-2.128667961806059">
        <ele>455.80000000000001</ele>
        <time>2025-04-27T14:24:09Z</time>
      </trkpt>
      <trkpt lat="42.65654400922358" lon="-2.128943977877498">
        <ele>455.80000000000001</ele>
        <time>2025-04-27T14:24:10Z</time>
      </trkpt>
      <trkpt lat="42.656537974253297" lon="-2.129260981455445">
        <ele>455.80000000000001</ele>
        <time>2025-04-27T14:24:11Z</time>
      </trkpt>
      <trkpt lat="42.656531017273664" lon="-2.129574967548251">
        <ele>455.80000000000001</ele>
        <time>2025-04-27T14:24:12Z</time>
      </trkpt>
      <trkpt lat="42.656377041712403" lon="-2.13371504098177">
        <ele>457.24000000000001</ele>
        <time>2025-04-27T14:24:25Z</time>
      </trkpt>
      <trkpt lat="42.656224993988872" lon="-2.138005988672376">
        <ele>455.80000000000001</ele>
        <time>2025-04-27T14:24:39Z</time>
      </trkpt>
      <trkpt lat="42.656031958758831" lon="-2.142267012968659">
        <ele>456.27999999999997</ele>
        <time>2025-04-27T14:24:54Z</time>
      </trkpt>
      <trkpt lat="42.655977979302406" lon="-2.142529031261802">
        <ele>456.75999999999999</ele>
        <time>2025-04-27T14:24:55Z</time>
      </trkpt>
      <trkpt lat="42.655916037037969" lon="-2.142798006534576">
        <ele>456.75999999999999</ele>
        <time>2025-04-27T14:24:56Z</time>
      </trkpt>
      <trkpt lat="42.65525596216321" lon="-2.145248036831617">
        <ele>458.20999999999998</ele>
        <time>2025-04-27T14:25:05Z</time>
      </trkpt>
      <trkpt lat="42.655216986313462" lon="-2.145549030974507">
        <ele>457.72000000000003</ele>
        <time>2025-04-27T14:25:06Z</time>
      </trkpt>
      <trkpt lat="42.655235007405281" lon="-2.145867962390184">
        <ele>457.72000000000003</ele>
        <time>2025-04-27T14:25:07Z</time>
      </trkpt>
      <trkpt lat="42.655411027371883" lon="-2.148335007950664">
        <ele>458.69</ele>
        <time>2025-04-27T14:25:16Z</time>
      </trkpt>
      <trkpt lat="42.655505994334817" lon="-2.149636968970299">
        <ele>459.64999999999998</ele>
        <time>2025-04-27T14:25:23Z</time>
      </trkpt>
      <trkpt lat="42.655638009309769" lon="-2.151168007403612">
        <ele>460.13</ele>
        <time>2025-04-27T14:25:33Z</time>
      </trkpt>
      <trkpt lat="42.655767006799579" lon="-2.152885962277651">
        <ele>460.61000000000001</ele>
        <time>2025-04-27T14:25:44Z</time>
      </trkpt>
      <trkpt lat="42.655771030113101" lon="-2.153047984465957">
        <ele>460.61000000000001</ele>
        <time>2025-04-27T14:25:45Z</time>
      </trkpt>
      <trkpt lat="42.655824003741145" lon="-2.153679979965091">
        <ele>459.64999999999998</ele>
        <time>2025-04-27T14:25:49Z</time>
      </trkpt>
      <trkpt lat="42.655842024832964" lon="-2.153838984668255">
        <ele>459.17000000000002</ele>
        <time>2025-04-27T14:25:50Z</time>
      </trkpt>
      <trkpt lat="42.655919976532459" lon="-2.154839029535651">
        <ele>460.13</ele>
        <time>2025-04-27T14:25:56Z</time>
      </trkpt>
      <trkpt lat="42.656086022034287" lon="-2.156799975782633">
        <ele>464.44999999999999</ele>
        <time>2025-04-27T14:26:08Z</time>
      </trkpt>
      <trkpt lat="42.656252989545465" lon="-2.158620022237301">
        <ele>464.93000000000001</ele>
        <time>2025-04-27T14:26:17Z</time>
      </trkpt>
      <trkpt lat="42.656451975926757" lon="-2.160878023132682">
        <ele>463.97000000000003</ele>
        <time>2025-04-27T14:26:25Z</time>
      </trkpt>
      <trkpt lat="42.656920021399856" lon="-2.165882019326091">
        <ele>464.93000000000001</ele>
        <time>2025-04-27T14:26:41Z</time>
      </trkpt>
      <trkpt lat="42.657201988622546" lon="-2.169083990156651">
        <ele>465.42000000000002</ele>
        <time>2025-04-27T14:26:52Z</time>
      </trkpt>
      <trkpt lat="42.657598033547401" lon="-2.173536038026214">
        <ele>467.33999999999997</ele>
        <time>2025-04-27T14:27:08Z</time>
      </trkpt>
      <trkpt lat="42.658015033230186" lon="-2.178114987909794">
        <ele>469.25999999999999</ele>
        <time>2025-04-27T14:27:25Z</time>
      </trkpt>
      <trkpt lat="42.65839297324419" lon="-2.182484976947308">
        <ele>472.63</ele>
        <time>2025-04-27T14:27:41Z</time>
      </trkpt>
      <trkpt lat="42.658328013494611" lon="-2.184331007301807">
        <ele>474.55000000000001</ele>
        <time>2025-04-27T14:27:48Z</time>
      </trkpt>
      <trkpt lat="42.658404037356377" lon="-2.185956006869674">
        <ele>475.99000000000001</ele>
        <time>2025-04-27T14:27:55Z</time>
      </trkpt>
      <trkpt lat="42.65843203291297" lon="-2.187224021181464">
        <ele>477.91000000000003</ele>
        <time>2025-04-27T14:28:03Z</time>
      </trkpt>
      <trkpt lat="42.658452987670898" lon="-2.189154960215092">
        <ele>479.35000000000002</ele>
        <time>2025-04-27T14:28:15Z</time>
      </trkpt>
      <trkpt lat="42.658452987670898" lon="-2.192008998245001">
        <ele>479.35000000000002</ele>
        <time>2025-04-27T14:28:33Z</time>
      </trkpt>
      <trkpt lat="42.658554995432496" lon="-2.194003975018859">
        <ele>478.38999999999999</ele>
        <time>2025-04-27T14:28:44Z</time>
      </trkpt>
      <trkpt lat="42.658858001232147" lon="-2.196506978943944">
        <ele>477.43000000000001</ele>
        <time>2025-04-27T14:28:53Z</time>
      </trkpt>
      <trkpt lat="42.659386983141303" lon="-2.200873028486967">
        <ele>478.87</ele>
        <time>2025-04-27T14:29:08Z</time>
      </trkpt>
      <trkpt lat="42.659904984757304" lon="-2.20502701587975">
        <ele>485.12</ele>
        <time>2025-04-27T14:29:24Z</time>
      </trkpt>
      <trkpt lat="42.66047696582973" lon="-2.208670964464545">
        <ele>484.16000000000003</ele>
        <time>2025-04-27T14:29:38Z</time>
      </trkpt>
      <trkpt lat="42.661075014621019" lon="-2.2106540389359">
        <ele>482.24000000000001</ele>
        <time>2025-04-27T14:29:46Z</time>
      </trkpt>
      <trkpt lat="42.662357026711106" lon="-2.212952021509409">
        <ele>481.75999999999999</ele>
        <time>2025-04-27T14:29:56Z</time>
      </trkpt>
      <trkpt lat="42.664288971573114" lon="-2.21632900647819">
        <ele>483.19999999999999</ele>
        <time>2025-04-27T14:30:11Z</time>
      </trkpt>
      <trkpt lat="42.664617961272597" lon="-2.217008024454117">
        <ele>484.16000000000003</ele>
        <time>2025-04-27T14:30:14Z</time>
      </trkpt>
      <trkpt lat="42.664701025933027" lon="-2.217253027483821">
        <ele>484.63999999999999</ele>
        <time>2025-04-27T14:30:15Z</time>
      </trkpt>
      <trkpt lat="42.66472902148962" lon="-2.217519991099834">
        <ele>485.12</ele>
        <time>2025-04-27T14:30:16Z</time>
      </trkpt>
      <trkpt lat="42.664759028702974" lon="-2.217801958322525">
        <ele>485.60000000000002</ele>
        <time>2025-04-27T14:30:17Z</time>
      </trkpt>
      <trkpt lat="42.664783000946045" lon="-2.21809096634388">
        <ele>486.07999999999998</ele>
        <time>2025-04-27T14:30:18Z</time>
      </trkpt>
      <trkpt lat="42.664777971804142" lon="-2.218391038477421">
        <ele>487.05000000000001</ele>
        <time>2025-04-27T14:30:19Z</time>
      </trkpt>
      <trkpt lat="42.664704965427518" lon="-2.222380992025137">
        <ele>494.25999999999999</ele>
        <time>2025-04-27T14:30:32Z</time>
      </trkpt>
      <trkpt lat="42.664507990702987" lon="-2.225107960402966">
        <ele>500.5</ele>
        <time>2025-04-27T14:30:42Z</time>
      </trkpt>
      <trkpt lat="42.663904996588826" lon="-2.227324973791838">
        <ele>505.79000000000002</ele>
        <time>2025-04-27T14:30:51Z</time>
      </trkpt>
      <trkpt lat="42.663358999416232" lon="-2.229583980515599">
        <ele>510.60000000000002</ele>
        <time>2025-04-27T14:31:00Z</time>
      </trkpt>
      <trkpt lat="42.66266698949039" lon="-2.232888964936137">
        <ele>513</ele>
        <time>2025-04-27T14:31:13Z</time>
      </trkpt>
      <trkpt lat="42.662659026682377" lon="-2.233140002936125">
        <ele>513</ele>
        <time>2025-04-27T14:31:14Z</time>
      </trkpt>
      <trkpt lat="42.662676963955164" lon="-2.233391040936112">
        <ele>513</ele>
        <time>2025-04-27T14:31:15Z</time>
      </trkpt>
      <trkpt lat="42.662700014188886" lon="-2.233647024258971">
        <ele>512.51999999999998</ele>
        <time>2025-04-27T14:31:16Z</time>
      </trkpt>
      <trkpt lat="42.662723986431956" lon="-2.233917005360127">
        <ele>512.03999999999996</ele>
        <time>2025-04-27T14:31:17Z</time>
      </trkpt>
      <trkpt lat="42.662786012515426" lon="-2.234195033088327">
        <ele>511.07999999999998</ele>
        <time>2025-04-27T14:31:18Z</time>
      </trkpt>
      <trkpt lat="42.663674997165799" lon="-2.238104017451406">
        <ele>516.85000000000002</ele>
        <time>2025-04-27T14:31:32Z</time>
      </trkpt>
      <trkpt lat="42.664655009284616" lon="-2.242384990677238">
        <ele>520.21000000000004</ele>
        <time>2025-04-27T14:31:48Z</time>
      </trkpt>
      <trkpt lat="42.665040995925665" lon="-2.244051983579993">
        <ele>522.61000000000001</ele>
        <time>2025-04-27T14:31:56Z</time>
      </trkpt>
      <trkpt lat="42.66533000394702" lon="-2.245275992900133">
        <ele>525.5</ele>
        <time>2025-04-27T14:32:04Z</time>
      </trkpt>
      <trkpt lat="42.66582696698606" lon="-2.247485965490341">
        <ele>529.34000000000003</ele>
        <time>2025-04-27T14:32:18Z</time>
      </trkpt>
      <trkpt lat="42.665903996676207" lon="-2.247795006260276">
        <ele>529.34000000000003</ele>
        <time>2025-04-27T14:32:20Z</time>
      </trkpt>
      <trkpt lat="42.665940960869193" lon="-2.247944036498666">
        <ele>528.86000000000001</ele>
        <time>2025-04-27T14:32:21Z</time>
      </trkpt>
      <trkpt lat="42.666295012459159" lon="-2.249499969184399">
        <ele>529.34000000000003</ele>
        <time>2025-04-27T14:32:31Z</time>
      </trkpt>
      <trkpt lat="42.66631999053061" lon="-2.249656040221453">
        <ele>529.82000000000005</ele>
        <time>2025-04-27T14:32:32Z</time>
      </trkpt>
      <trkpt lat="42.66642602160573" lon="-2.250579977408052">
        <ele>533.19000000000005</ele>
        <time>2025-04-27T14:32:38Z</time>
      </trkpt>
      <trkpt lat="42.666482012718916" lon="-2.250728001818061">
        <ele>533.66999999999996</ele>
        <time>2025-04-27T14:32:39Z</time>
      </trkpt>
      <trkpt lat="42.667240994051099" lon="-2.252590963616967">
        <ele>541.84000000000003</ele>
        <time>2025-04-27T14:32:50Z</time>
      </trkpt>
      <trkpt lat="42.668114975094795" lon="-2.254895986989141">
        <ele>547.61000000000001</ele>
        <time>2025-04-27T14:33:01Z</time>
      </trkpt>
      <trkpt lat="42.668969007208943" lon="-2.257506027817726">
        <ele>549.04999999999995</ele>
        <time>2025-04-27T14:33:11Z</time>
      </trkpt>
      <trkpt lat="42.669983971863985" lon="-2.260622000321746">
        <ele>555.77999999999997</ele>
        <time>2025-04-27T14:33:23Z</time>
      </trkpt>
      <trkpt lat="42.671077977865934" lon="-2.26387501694262">
        <ele>572.12</ele>
        <time>2025-04-27T14:33:36Z</time>
      </trkpt>
      <trkpt lat="42.671181997284293" lon="-2.264093030244112">
        <ele>573.08000000000004</ele>
        <time>2025-04-27T14:33:37Z</time>
      </trkpt>
      <trkpt lat="42.671291967853904" lon="-2.264312971383333">
        <ele>574.03999999999996</ele>
        <time>2025-04-27T14:33:38Z</time>
      </trkpt>
      <trkpt lat="42.671606037765741" lon="-2.264632992446423">
        <ele>575.97000000000003</ele>
        <time>2025-04-27T14:33:40Z</time>
      </trkpt>
      <trkpt lat="42.671773005276918" lon="-2.264767019078136">
        <ele>576.92999999999995</ele>
        <time>2025-04-27T14:33:41Z</time>
      </trkpt>
      <trkpt lat="42.671961011365056" lon="-2.264857040718198">
        <ele>577.88999999999999</ele>
        <time>2025-04-27T14:33:42Z</time>
      </trkpt>
      <trkpt lat="42.672152034938335" lon="-2.264943961054087">
        <ele>578.37</ele>
        <time>2025-04-27T14:33:43Z</time>
      </trkpt>
      <trkpt lat="42.672351021319628" lon="-2.26497296243906">
        <ele>578.85000000000002</ele>
        <time>2025-04-27T14:33:44Z</time>
      </trkpt>
      <trkpt lat="42.672555036842823" lon="-2.264964999631047">
        <ele>579.33000000000004</ele>
        <time>2025-04-27T14:33:45Z</time>
      </trkpt>
      <trkpt lat="42.672760980203748" lon="-2.2649260237813">
        <ele>579.33000000000004</ele>
        <time>2025-04-27T14:33:46Z</time>
      </trkpt>
      <trkpt lat="42.672967007383704" lon="-2.264871038496494">
        <ele>579.33000000000004</ele>
        <time>2025-04-27T14:33:47Z</time>
      </trkpt>
      <trkpt lat="42.673160964623094" lon="-2.264759978279471">
        <ele>579.33000000000004</ele>
        <time>2025-04-27T14:33:48Z</time>
      </trkpt>
      <trkpt lat="42.673355005681515" lon="-2.264650007709861">
        <ele>578.85000000000002</ele>
        <time>2025-04-27T14:33:49Z</time>
      </trkpt>
      <trkpt lat="42.673548040911555" lon="-2.26453903131187">
        <ele>578.37</ele>
        <time>2025-04-27T14:33:50Z</time>
      </trkpt>
      <trkpt lat="42.67495796084404" lon="-2.263992028310895">
        <ele>573.08000000000004</ele>
        <time>2025-04-27T14:33:57Z</time>
      </trkpt>
      <trkpt lat="42.676424039527774" lon="-2.263648035004735">
        <ele>566.35000000000002</ele>
        <time>2025-04-27T14:34:04Z</time>
      </trkpt>
      <trkpt lat="42.676636017858982" lon="-2.263624984771013">
        <ele>565.38999999999999</ele>
        <time>2025-04-27T14:34:05Z</time>
      </trkpt>
      <trkpt lat="42.677488038316369" lon="-2.263472015038133">
        <ele>561.54999999999995</ele>
        <time>2025-04-27T14:34:09Z</time>
      </trkpt>
      <trkpt lat="42.677904032170773" lon="-2.26336196064949">
        <ele>559.62</ele>
        <time>2025-04-27T14:34:11Z</time>
      </trkpt>
      <trkpt lat="42.678103018552065" lon="-2.263321978971362">
        <ele>558.65999999999997</ele>
        <time>2025-04-27T14:34:12Z</time>
      </trkpt>
      <trkpt lat="42.678294964134693" lon="-2.263312004506588">
        <ele>557.70000000000005</ele>
        <time>2025-04-27T14:34:13Z</time>
      </trkpt>
      <trkpt lat="42.67847903072834" lon="-2.263323990628123">
        <ele>556.74000000000001</ele>
        <time>2025-04-27T14:34:14Z</time>
      </trkpt>
      <trkpt lat="42.678657984361053" lon="-2.263340000063181">
        <ele>556.25999999999999</ele>
        <time>2025-04-27T14:34:15Z</time>
      </trkpt>
      <trkpt lat="42.679439010098577" lon="-2.263462962582707">
        <ele>552.40999999999997</ele>
        <time>2025-04-27T14:34:20Z</time>
      </trkpt>
      <trkpt lat="42.679583011195064" lon="-2.263548960909247">
        <ele>551.45000000000005</ele>
        <time>2025-04-27T14:34:21Z</time>
      </trkpt>
      <trkpt lat="42.679713014513254" lon="-2.263626996427774">
        <ele>550.00999999999999</ele>
        <time>2025-04-27T14:34:22Z</time>
      </trkpt>
      <trkpt lat="42.679803036153316" lon="-2.263750964775682">
        <ele>549.04999999999995</ele>
        <time>2025-04-27T14:34:23Z</time>
      </trkpt>
      <trkpt lat="42.679874030873179" lon="-2.263909969478846">
        <ele>547.61000000000001</ele>
        <time>2025-04-27T14:34:24Z</time>
      </trkpt>
      <trkpt lat="42.679933039471507" lon="-2.264077020809054">
        <ele>546.16999999999996</ele>
        <time>2025-04-27T14:34:25Z</time>
      </trkpt>
      <trkpt lat="42.679933039471507" lon="-2.264278018847108">
        <ele>544.72000000000003</ele>
        <time>2025-04-27T14:34:26Z</time>
      </trkpt>
      <trkpt lat="42.679933039471507" lon="-2.26449997164309">
        <ele>542.79999999999995</ele>
        <time>2025-04-27T14:34:27Z</time>
      </trkpt>
      <trkpt lat="42.679933039471507" lon="-2.264737011864781">
        <ele>541.36000000000001</ele>
        <time>2025-04-27T14:34:28Z</time>
      </trkpt>
      <trkpt lat="42.679999005049467" lon="-2.265757005661726">
        <ele>537.02999999999997</ele>
        <time>2025-04-27T14:34:32Z</time>
      </trkpt>
      <trkpt lat="42.680048961192369" lon="-2.266032015904784">
        <ele>536.07000000000005</ele>
        <time>2025-04-27T14:34:33Z</time>
      </trkpt>
      <trkpt lat="42.680124985054135" lon="-2.266307026147842">
        <ele>535.11000000000001</ele>
        <time>2025-04-27T14:34:34Z</time>
      </trkpt>
      <trkpt lat="42.680229004472494" lon="-2.266579018905759">
        <ele>534.14999999999998</ele>
        <time>2025-04-27T14:34:35Z</time>
      </trkpt>
      <trkpt lat="42.680347021669149" lon="-2.266841037198901">
        <ele>532.71000000000004</ele>
        <time>2025-04-27T14:34:36Z</time>
      </trkpt>
      <trkpt lat="42.680494040250778" lon="-2.267063995823264">
        <ele>531.75</ele>
        <time>2025-04-27T14:34:37Z</time>
      </trkpt>
      <trkpt lat="42.680639969184995" lon="-2.267273962497711">
        <ele>530.78999999999996</ele>
        <time>2025-04-27T14:34:38Z</time>
      </trkpt>
      <trkpt lat="42.680790005251765" lon="-2.267449982464314">
        <ele>529.34000000000003</ele>
        <time>2025-04-27T14:34:39Z</time>
      </trkpt>
      <trkpt lat="42.680952027440071" lon="-2.267607981339097">
        <ele>528.38</ele>
        <time>2025-04-27T14:34:40Z</time>
      </trkpt>
      <trkpt lat="42.681432981044054" lon="-2.268078038468957">
        <ele>525.5</ele>
        <time>2025-04-27T14:34:43Z</time>
      </trkpt>
      <trkpt lat="42.681957017630339" lon="-2.268497971817851">
        <ele>523.58000000000004</ele>
        <time>2025-04-27T14:34:46Z</time>
      </trkpt>
      <trkpt lat="42.683179015293717" lon="-2.26922501809895">
        <ele>521.64999999999998</ele>
        <time>2025-04-27T14:34:53Z</time>
      </trkpt>
      <trkpt lat="42.684127008542418" lon="-2.270119031891227">
        <ele>524.53999999999996</ele>
        <time>2025-04-27T14:35:00Z</time>
      </trkpt>
      <trkpt lat="42.684127008542418" lon="-2.270119031891227">
        <ele>525.01999999999998</ele>
        <time>2025-04-27T14:35:01Z</time>
      </trkpt>
      <trkpt lat="42.684290958568454" lon="-2.270433017984033">
        <ele>525.5</ele>
        <time>2025-04-27T14:35:02Z</time>
      </trkpt>
      <trkpt lat="42.684349967166781" lon="-2.27059998549521">
        <ele>525.5</ele>
        <time>2025-04-27T14:35:03Z</time>
      </trkpt>
      <trkpt lat="42.684338986873627" lon="-2.270764019340277">
        <ele>525.5</ele>
        <time>2025-04-27T14:35:04Z</time>
      </trkpt>
      <trkpt lat="42.684297999367118" lon="-2.270931992679834">
        <ele>525.5</ele>
        <time>2025-04-27T14:35:05Z</time>
      </trkpt>
      <trkpt lat="42.684212001040578" lon="-2.271056966856122">
        <ele>525.5</ele>
        <time>2025-04-27T14:35:06Z</time>
      </trkpt>
      <trkpt lat="42.684089038521051" lon="-2.271149000152946">
        <ele>525.5</ele>
        <time>2025-04-27T14:35:07Z</time>
      </trkpt>
      <trkpt lat="42.683965992182493" lon="-2.271218989044428">
        <ele>525.5</ele>
        <time>2025-04-27T14:35:08Z</time>
      </trkpt>
      <trkpt lat="42.683811010792851" lon="-2.271256959065795">
        <ele>525.98000000000002</ele>
        <time>2025-04-27T14:35:09Z</time>
      </trkpt>
      <trkpt lat="42.683643037453294" lon="-2.271298030391336">
        <ele>526.46000000000004</ele>
        <time>2025-04-27T14:35:10Z</time>
      </trkpt>
      <trkpt lat="42.683467017486691" lon="-2.271341029554606">
        <ele>526.94000000000005</ele>
        <time>2025-04-27T14:35:11Z</time>
      </trkpt>
      <trkpt lat="42.683284040540457" lon="-2.271385034546256">
        <ele>527.41999999999996</ele>
        <time>2025-04-27T14:35:12Z</time>
      </trkpt>
      <trkpt lat="42.683095028623939" lon="-2.271473966538906">
        <ele>527.89999999999998</ele>
        <time>2025-04-27T14:35:13Z</time>
      </trkpt>
      <trkpt lat="42.682419028133154" lon="-2.271982999518514">
        <ele>528.86000000000001</ele>
        <time>2025-04-27T14:35:17Z</time>
      </trkpt>
      <trkpt lat="42.682287013158202" lon="-2.272153990343213">
        <ele>529.34000000000003</ele>
        <time>2025-04-27T14:35:18Z</time>
      </trkpt>
      <trkpt lat="42.682188022881746" lon="-2.272359011694789">
        <ele>529.82000000000005</ele>
        <time>2025-04-27T14:35:19Z</time>
      </trkpt>
      <trkpt lat="42.682104036211967" lon="-2.272583981975913">
        <ele>530.29999999999995</ele>
        <time>2025-04-27T14:35:20Z</time>
      </trkpt>
      <trkpt lat="42.682023989036679" lon="-2.272815993055701">
        <ele>530.29999999999995</ele>
        <time>2025-04-27T14:35:21Z</time>
      </trkpt>
      <trkpt lat="42.681413032114506" lon="-2.274598991498351">
        <ele>530.78999999999996</ele>
        <time>2025-04-27T14:35:29Z</time>
      </trkpt>
      <trkpt lat="42.681256961077452" lon="-2.274754978716373">
        <ele>530.78999999999996</ele>
        <time>2025-04-27T14:35:30Z</time>
      </trkpt>
      <trkpt lat="42.681133998557925" lon="-2.274878025054932">
        <ele>530.78999999999996</ele>
        <time>2025-04-27T14:35:31Z</time>
      </trkpt>
      <trkpt lat="42.680989997461438" lon="-2.274943990632892">
        <ele>530.78999999999996</ele>
        <time>2025-04-27T14:35:32Z</time>
      </trkpt>
      <trkpt lat="42.680845996364951" lon="-2.275008028373122">
        <ele>530.29999999999995</ele>
        <time>2025-04-27T14:35:33Z</time>
      </trkpt>
      <trkpt lat="42.680709036067128" lon="-2.275058990344405">
        <ele>530.29999999999995</ele>
        <time>2025-04-27T14:35:34Z</time>
      </trkpt>
      <trkpt lat="42.680560005828738" lon="-2.275096960365772">
        <ele>530.29999999999995</ele>
        <time>2025-04-27T14:35:35Z</time>
      </trkpt>
      <trkpt lat="42.680273009464145" lon="-2.27522000670433">
        <ele>529.82000000000005</ele>
        <time>2025-04-27T14:35:37Z</time>
      </trkpt>
      <trkpt lat="42.680146023631096" lon="-2.275301981717348">
        <ele>530.29999999999995</ele>
        <time>2025-04-27T14:35:38Z</time>
      </trkpt>
      <trkpt lat="42.680046027526259" lon="-2.275416981428862">
        <ele>529.82000000000005</ele>
        <time>2025-04-27T14:35:39Z</time>
      </trkpt>
      <trkpt lat="42.679958017542958" lon="-2.275547990575433">
        <ele>529.34000000000003</ele>
        <time>2025-04-27T14:35:40Z</time>
      </trkpt>
      <trkpt lat="42.679901020601392" lon="-2.275698026642203">
        <ele>529.34000000000003</ele>
        <time>2025-04-27T14:35:41Z</time>
      </trkpt>
      <trkpt lat="42.679849974811077" lon="-2.275873962789774">
        <ele>529.34000000000003</ele>
        <time>2025-04-27T14:35:42Z</time>
      </trkpt>
      <trkpt lat="42.679847041144967" lon="-2.276055011898279">
        <ele>528.86000000000001</ele>
        <time>2025-04-27T14:35:43Z</time>
      </trkpt>
      <trkpt lat="42.679847041144967" lon="-2.276249974966049">
        <ele>528.86000000000001</ele>
        <time>2025-04-27T14:35:44Z</time>
      </trkpt>
      <trkpt lat="42.679870007559657" lon="-2.276425994932652">
        <ele>528.38</ele>
        <time>2025-04-27T14:35:45Z</time>
      </trkpt>
      <trkpt lat="42.679901020601392" lon="-2.276606960222125">
        <ele>527.89999999999998</ele>
        <time>2025-04-27T14:35:46Z</time>
      </trkpt>
      <trkpt lat="42.679933039471507" lon="-2.27678800933063">
        <ele>527.89999999999998</ele>
        <time>2025-04-27T14:35:47Z</time>
      </trkpt>
      <trkpt lat="42.680019037798047" lon="-2.27693896740675">
        <ele>527.89999999999998</ele>
        <time>2025-04-27T14:35:48Z</time>
      </trkpt>
      <trkpt lat="42.680105958133936" lon="-2.277091015130281">
        <ele>527.89999999999998</ele>
        <time>2025-04-27T14:35:49Z</time>
      </trkpt>
      <trkpt lat="42.68019899725914" lon="-2.277253037318587">
        <ele>528.38</ele>
        <time>2025-04-27T14:35:50Z</time>
      </trkpt>
      <trkpt lat="42.680292036384344" lon="-2.277401983737946">
        <ele>527.89999999999998</ele>
        <time>2025-04-27T14:35:51Z</time>
      </trkpt>
      <trkpt lat="42.680427990853786" lon="-2.277522012591362">
        <ele>527.89999999999998</ele>
        <time>2025-04-27T14:35:52Z</time>
      </trkpt>
      <trkpt lat="42.680564029142261" lon="-2.277642041444778">
        <ele>527.41999999999996</ele>
        <time>2025-04-27T14:35:53Z</time>
      </trkpt>
      <trkpt lat="42.680699983611703" lon="-2.277761986479163">
        <ele>527.89999999999998</ele>
        <time>2025-04-27T14:35:54Z</time>
      </trkpt>
      <trkpt lat="42.68084398470819" lon="-2.277877992019057">
        <ele>528.38</ele>
        <time>2025-04-27T14:35:55Z</time>
      </trkpt>
      <trkpt lat="42.680998966097832" lon="-2.277961978688836">
        <ele>528.86000000000001</ele>
        <time>2025-04-27T14:35:56Z</time>
      </trkpt>
      <trkpt lat="42.681700028479099" lon="-2.278404962271452">
        <ele>529.82000000000005</ele>
        <time>2025-04-27T14:36:01Z</time>
      </trkpt>
      <trkpt lat="42.681817961856723" lon="-2.278546029701829">
        <ele>529.82000000000005</ele>
        <time>2025-04-27T14:36:02Z</time>
      </trkpt>
      <trkpt lat="42.681892979890108" lon="-2.278738981112838">
        <ele>529.82000000000005</ele>
        <time>2025-04-27T14:36:03Z</time>
      </trkpt>
      <trkpt lat="42.681935979053378" lon="-2.278952971100807">
        <ele>530.29999999999995</ele>
        <time>2025-04-27T14:36:04Z</time>
      </trkpt>
      <trkpt lat="42.681979984045029" lon="-2.279170984402299">
        <ele>529.82000000000005</ele>
        <time>2025-04-27T14:36:05Z</time>
      </trkpt>
      <trkpt lat="42.682018959894776" lon="-2.279402995482087">
        <ele>529.82000000000005</ele>
        <time>2025-04-27T14:36:06Z</time>
      </trkpt>
      <trkpt lat="42.682033963501453" lon="-2.280117971822619">
        <ele>528.86000000000001</ele>
        <time>2025-04-27T14:36:09Z</time>
      </trkpt>
      <trkpt lat="42.682020971551538" lon="-2.280355012044311">
        <ele>528.38</ele>
        <time>2025-04-27T14:36:10Z</time>
      </trkpt>
      <trkpt lat="42.681828020140529" lon="-2.282125018537045">
        <ele>525.5</ele>
        <time>2025-04-27T14:36:17Z</time>
      </trkpt>
      <trkpt lat="42.681473968550563" lon="-2.283951016142964">
        <ele>523.09000000000003</ele>
        <time>2025-04-27T14:36:25Z</time>
      </trkpt>
      <trkpt lat="42.681434992700815" lon="-2.28437002748251">
        <ele>523.09000000000003</ele>
        <time>2025-04-27T14:36:27Z</time>
      </trkpt>
      <trkpt lat="42.681434992700815" lon="-2.284576976671815">
        <ele>523.58000000000004</ele>
        <time>2025-04-27T14:36:28Z</time>
      </trkpt>
      <trkpt lat="42.681494001299143" lon="-2.284795995801687">
        <ele>523.58000000000004</ele>
        <time>2025-04-27T14:36:29Z</time>
      </trkpt>
      <trkpt lat="42.681562984362245" lon="-2.285048961639404">
        <ele>524.05999999999995</ele>
        <time>2025-04-27T14:36:30Z</time>
      </trkpt>
      <trkpt lat="42.681652000173926" lon="-2.285201009362936">
        <ele>524.53999999999996</ele>
        <time>2025-04-27T14:36:31Z</time>
      </trkpt>
      <trkpt lat="42.681763982400298" lon="-2.285374011844397">
        <ele>525.01999999999998</ele>
        <time>2025-04-27T14:36:32Z</time>
      </trkpt>
      <trkpt lat="42.681884011253715" lon="-2.285526981577277">
        <ele>525.5</ele>
        <time>2025-04-27T14:36:33Z</time>
      </trkpt>
      <trkpt lat="42.683384958654642" lon="-2.287490023300052">
        <ele>530.29999999999995</ele>
        <time>2025-04-27T14:36:46Z</time>
      </trkpt>
      <trkpt lat="42.684871992096305" lon="-2.289578039199114">
        <ele>535.11000000000001</ele>
        <time>2025-04-27T14:36:58Z</time>
      </trkpt>
      <trkpt lat="42.685321010649204" lon="-2.290899027138948">
        <ele>537.99000000000001</ele>
        <time>2025-04-27T14:37:04Z</time>
      </trkpt>
      <trkpt lat="42.685575988143682" lon="-2.29255897924304">
        <ele>540.39999999999998</ele>
        <time>2025-04-27T14:37:11Z</time>
      </trkpt>
      <trkpt lat="42.685734992846847" lon="-2.29298603720963">
        <ele>540.39999999999998</ele>
        <time>2025-04-27T14:37:13Z</time>
      </trkpt>
      <trkpt lat="42.685815040022135" lon="-2.293202038854361">
        <ele>540.88</ele>
        <time>2025-04-27T14:37:14Z</time>
      </trkpt>
      <trkpt lat="42.685912018641829" lon="-2.293405970558524">
        <ele>540.88</ele>
        <time>2025-04-27T14:37:15Z</time>
      </trkpt>
      <trkpt lat="42.686022995039821" lon="-2.293594982475042">
        <ele>541.36000000000001</ele>
        <time>2025-04-27T14:37:16Z</time>
      </trkpt>
      <trkpt lat="42.686136988922954" lon="-2.293786006048322">
        <ele>541.84000000000003</ele>
        <time>2025-04-27T14:37:17Z</time>
      </trkpt>
      <trkpt lat="42.686275960877538" lon="-2.293942999094725">
        <ele>541.84000000000003</ele>
        <time>2025-04-27T14:37:18Z</time>
      </trkpt>
      <trkpt lat="42.686411999166012" lon="-2.294094962999225">
        <ele>542.32000000000005</ele>
        <time>2025-04-27T14:37:19Z</time>
      </trkpt>
      <trkpt lat="42.686553988605738" lon="-2.294225972145796">
        <ele>542.79999999999995</ele>
        <time>2025-04-27T14:37:20Z</time>
      </trkpt>
      <trkpt lat="42.686706958338618" lon="-2.294340971857309">
        <ele>543.27999999999997</ele>
        <time>2025-04-27T14:37:21Z</time>
      </trkpt>
      <trkpt lat="42.687839018180966" lon="-2.295012027025223">
        <ele>547.13</ele>
        <time>2025-04-27T14:37:28Z</time>
      </trkpt>
      <trkpt lat="42.688021995127201" lon="-2.29515602812171">
        <ele>547.61000000000001</ele>
        <time>2025-04-27T14:37:29Z</time>
      </trkpt>
      <trkpt lat="42.688141018152237" lon="-2.295305980369449">
        <ele>548.09000000000003</ele>
        <time>2025-04-27T14:37:30Z</time>
      </trkpt>
      <trkpt lat="42.688269009813666" lon="-2.295486023649573">
        <ele>548.57000000000005</ele>
        <time>2025-04-27T14:37:31Z</time>
      </trkpt>
      <trkpt lat="42.688347967341542" lon="-2.295698001980782">
        <ele>549.04999999999995</ele>
        <time>2025-04-27T14:37:32Z</time>
      </trkpt>
      <trkpt lat="42.688423991203308" lon="-2.295905034989119">
        <ele>549.52999999999997</ele>
        <time>2025-04-27T14:37:33Z</time>
      </trkpt>
      <trkpt lat="42.68849297426641" lon="-2.296107038855553">
        <ele>550.00999999999999</ele>
        <time>2025-04-27T14:37:34Z</time>
      </trkpt>
      <trkpt lat="42.688531028106809" lon="-2.296324968338013">
        <ele>550.49000000000001</ele>
        <time>2025-04-27T14:37:35Z</time>
      </trkpt>
      <trkpt lat="42.688555000349879" lon="-2.296541975811124">
        <ele>550.49000000000001</ele>
        <time>2025-04-27T14:37:36Z</time>
      </trkpt>
      <trkpt lat="42.688544020056725" lon="-2.296760994940996">
        <ele>550.49000000000001</ele>
        <time>2025-04-27T14:37:37Z</time>
      </trkpt>
      <trkpt lat="42.688510995358229" lon="-2.296973979100585">
        <ele>550.97000000000003</ele>
        <time>2025-04-27T14:37:38Z</time>
      </trkpt>
      <trkpt lat="42.688465984538198" lon="-2.297187969088554">
        <ele>550.97000000000003</ele>
        <time>2025-04-27T14:37:39Z</time>
      </trkpt>
      <trkpt lat="42.688414016738534" lon="-2.297401959076524">
        <ele>551.45000000000005</ele>
        <time>2025-04-27T14:37:40Z</time>
      </trkpt>
      <trkpt lat="42.687788978219032" lon="-2.299616038799286">
        <ele>552.40999999999997</ele>
        <time>2025-04-27T14:37:49Z</time>
      </trkpt>
      <trkpt lat="42.686762027442455" lon="-2.303156973794103">
        <ele>557.70000000000005</ele>
        <time>2025-04-27T14:38:02Z</time>
      </trkpt>
      <trkpt lat="42.685593003407121" lon="-2.307121027261019">
        <ele>556.74000000000001</ele>
        <time>2025-04-27T14:38:17Z</time>
      </trkpt>
      <trkpt lat="42.684586001560092" lon="-2.309642974287272">
        <ele>554.34000000000003</ele>
        <time>2025-04-27T14:38:26Z</time>
      </trkpt>
      <trkpt lat="42.683544969186187" lon="-2.312038019299507">
        <ele>557.22000000000003</ele>
        <time>2025-04-27T14:38:34Z</time>
      </trkpt>
      <trkpt lat="42.682073023170233" lon="-2.315670987591147">
        <ele>560.59000000000003</ele>
        <time>2025-04-27T14:38:47Z</time>
      </trkpt>
      <trkpt lat="42.681005001068115" lon="-2.319545019418001">
        <ele>555.29999999999995</ele>
        <time>2025-04-27T14:39:00Z</time>
      </trkpt>
      <trkpt lat="42.679750984534621" lon="-2.324110977351666">
        <ele>550.97000000000003</ele>
        <time>2025-04-27T14:39:16Z</time>
      </trkpt>
      <trkpt lat="42.678572991862893" lon="-2.328382981941104">
        <ele>547.13</ele>
        <time>2025-04-27T14:39:31Z</time>
      </trkpt>
      <trkpt lat="42.677373960614204" lon="-2.332847015932202">
        <ele>547.13</ele>
        <time>2025-04-27T14:39:48Z</time>
      </trkpt>
      <trkpt lat="42.676193034276366" lon="-2.337217004969716">
        <ele>543.75999999999999</ele>
        <time>2025-04-27T14:40:03Z</time>
      </trkpt>
      <trkpt lat="42.675097016617656" lon="-2.341203019022942">
        <ele>546.16999999999996</ele>
        <time>2025-04-27T14:40:18Z</time>
      </trkpt>
      <trkpt lat="42.674084985628724" lon="-2.344902036711574">
        <ele>547.13</ele>
        <time>2025-04-27T14:40:35Z</time>
      </trkpt>
      <trkpt lat="42.673389036208391" lon="-2.346730967983604">
        <ele>547.13</ele>
        <time>2025-04-27T14:40:44Z</time>
      </trkpt>
      <trkpt lat="42.672424027696252" lon="-2.347724977880716">
        <ele>547.61000000000001</ele>
        <time>2025-04-27T14:40:51Z</time>
      </trkpt>
      <trkpt lat="42.671627998352051" lon="-2.348863994702697">
        <ele>549.04999999999995</ele>
        <time>2025-04-27T14:40:58Z</time>
      </trkpt>
      <trkpt lat="42.671106979250908" lon="-2.349953977391124">
        <ele>549.52999999999997</ele>
        <time>2025-04-27T14:41:06Z</time>
      </trkpt>
      <trkpt lat="42.670782012864947" lon="-2.351542012766004">
        <ele>552.40999999999997</ele>
        <time>2025-04-27T14:41:16Z</time>
      </trkpt>
      <trkpt lat="42.670431984588504" lon="-2.353954995051026">
        <ele>554.34000000000003</ele>
        <time>2025-04-27T14:41:31Z</time>
      </trkpt>
      <trkpt lat="42.67016502097249" lon="-2.356057008728385">
        <ele>555.29999999999995</ele>
        <time>2025-04-27T14:41:44Z</time>
      </trkpt>
      <trkpt lat="42.670284966006875" lon="-2.357498025521636">
        <ele>556.25999999999999</ele>
        <time>2025-04-27T14:41:53Z</time>
      </trkpt>
      <trkpt lat="42.670286977663636" lon="-2.357695000246167">
        <ele>556.25999999999999</ele>
        <time>2025-04-27T14:41:54Z</time>
      </trkpt>
      <trkpt lat="42.670232998207211" lon="-2.357814023271203">
        <ele>556.25999999999999</ele>
        <time>2025-04-27T14:41:55Z</time>
      </trkpt>
      <trkpt lat="42.670174995437264" lon="-2.357935979962349">
        <ele>556.74000000000001</ele>
        <time>2025-04-27T14:41:56Z</time>
      </trkpt>
      <trkpt lat="42.670116992667317" lon="-2.358078975230455">
        <ele>557.22000000000003</ele>
        <time>2025-04-27T14:41:57Z</time>
      </trkpt>
      <trkpt lat="42.670053960755467" lon="-2.358234962448478">
        <ele>558.17999999999995</ele>
        <time>2025-04-27T14:41:58Z</time>
      </trkpt>
      <trkpt lat="42.669986989349127" lon="-2.358400002121925">
        <ele>558.65999999999997</ele>
        <time>2025-04-27T14:41:59Z</time>
      </trkpt>
      <trkpt lat="42.669911971315742" lon="-2.358588008210063">
        <ele>559.13999999999999</ele>
        <time>2025-04-27T14:42:00Z</time>
      </trkpt>
      <trkpt lat="42.6697379630059" lon="-2.360465973615646">
        <ele>561.07000000000005</ele>
        <time>2025-04-27T14:42:09Z</time>
      </trkpt>
      <trkpt lat="42.669493965804577" lon="-2.362463967874646">
        <ele>562.02999999999997</ele>
        <time>2025-04-27T14:42:18Z</time>
      </trkpt>
      <trkpt lat="42.669426994398236" lon="-2.362679969519377">
        <ele>562.02999999999997</ele>
        <time>2025-04-27T14:42:19Z</time>
      </trkpt>
      <trkpt lat="42.669355999678373" lon="-2.362892031669617">
        <ele>562.02999999999997</ele>
        <time>2025-04-27T14:42:20Z</time>
      </trkpt>
      <trkpt lat="42.669277964159846" lon="-2.363095041364431">
        <ele>562.50999999999999</ele>
        <time>2025-04-27T14:42:21Z</time>
      </trkpt>
      <trkpt lat="42.669182997196913" lon="-2.363290004432201">
        <ele>562.50999999999999</ele>
        <time>2025-04-27T14:42:22Z</time>
      </trkpt>
      <trkpt lat="42.667596973478794" lon="-2.366604963317514">
        <ele>565.87</ele>
        <time>2025-04-27T14:42:39Z</time>
      </trkpt>
      <trkpt lat="42.666905969381332" lon="-2.368763973936439">
        <ele>566.35000000000002</ele>
        <time>2025-04-27T14:42:48Z</time>
      </trkpt>
      <trkpt lat="42.666031988337636" lon="-2.371403016149998">
        <ele>566.35000000000002</ele>
        <time>2025-04-27T14:42:59Z</time>
      </trkpt>
      <trkpt lat="42.664761040359735" lon="-2.375029027462006">
        <ele>568.27999999999997</ele>
        <time>2025-04-27T14:43:15Z</time>
      </trkpt>
      <trkpt lat="42.663236036896706" lon="-2.378129996359348">
        <ele>573.08000000000004</ele>
        <time>2025-04-27T14:43:30Z</time>
      </trkpt>
      <trkpt lat="42.662771008908749" lon="-2.378889983519912">
        <ele>574.03999999999996</ele>
        <time>2025-04-27T14:43:34Z</time>
      </trkpt>
      <trkpt lat="42.662632036954165" lon="-2.379050999879837">
        <ele>574.52999999999997</ele>
        <time>2025-04-27T14:43:35Z</time>
      </trkpt>
      <trkpt lat="42.660619961097836" lon="-2.381053017452359">
        <ele>582.22000000000003</ele>
        <time>2025-04-27T14:43:49Z</time>
      </trkpt>
      <trkpt lat="42.658635964617133" lon="-2.382825035601854">
        <ele>587.98000000000002</ele>
        <time>2025-04-27T14:44:02Z</time>
      </trkpt>
      <trkpt lat="42.656354997307062" lon="-2.384614991024137">
        <ele>592.30999999999995</ele>
        <time>2025-04-27T14:44:16Z</time>
      </trkpt>
      <trkpt lat="42.655198965221643" lon="-2.385168028995395">
        <ele>595.19000000000005</ele>
        <time>2025-04-27T14:44:24Z</time>
      </trkpt>
      <trkpt lat="42.652972983196378" lon="-2.386133037507534">
        <ele>599.03999999999996</ele>
        <time>2025-04-27T14:44:37Z</time>
      </trkpt>
      <trkpt lat="42.650285996496677" lon="-2.387293009087443">
        <ele>614.41999999999996</ele>
        <time>2025-04-27T14:44:52Z</time>
      </trkpt>
      <trkpt lat="42.648041993379593" lon="-2.388242008164525">
        <ele>621.63</ele>
        <time>2025-04-27T14:45:05Z</time>
      </trkpt>
      <trkpt lat="42.647883994504809" lon="-2.388259023427963">
        <ele>622.11000000000001</ele>
        <time>2025-04-27T14:45:06Z</time>
      </trkpt>
      <trkpt lat="42.647736975923181" lon="-2.388276038691402">
        <ele>623.07000000000005</ele>
        <time>2025-04-27T14:45:07Z</time>
      </trkpt>
      <trkpt lat="42.646952010691166" lon="-2.388229016214609">
        <ele>627.39999999999998</ele>
        <time>2025-04-27T14:45:14Z</time>
      </trkpt>
      <trkpt lat="42.646770961582661" lon="-2.388221975415945">
        <ele>627.88</ele>
        <time>2025-04-27T14:45:16Z</time>
      </trkpt>
      <trkpt lat="42.646682029590011" lon="-2.388218035921454">
        <ele>627.88</ele>
        <time>2025-04-27T14:45:17Z</time>
      </trkpt>
      <trkpt lat="42.646604999899864" lon="-2.388262040913105">
        <ele>628.36000000000001</ele>
        <time>2025-04-27T14:45:18Z</time>
      </trkpt>
      <trkpt lat="42.646521013230085" lon="-2.38831602036953">
        <ele>628.36000000000001</ele>
        <time>2025-04-27T14:45:19Z</time>
      </trkpt>
      <trkpt lat="42.646434009075165" lon="-2.388373017311096">
        <ele>627.88</ele>
        <time>2025-04-27T14:45:20Z</time>
      </trkpt>
      <trkpt lat="42.646343987435102" lon="-2.388431020081043">
        <ele>627.88</ele>
        <time>2025-04-27T14:45:21Z</time>
      </trkpt>
      <trkpt lat="42.645377973094583" lon="-2.389211039990187">
        <ele>625.96000000000004</ele>
        <time>2025-04-27T14:45:32Z</time>
      </trkpt>
      <trkpt lat="42.64511302113533" lon="-2.389350011944771">
        <ele>625.47000000000003</ele>
        <time>2025-04-27T14:45:35Z</time>
      </trkpt>
      <trkpt lat="42.645022999495268" lon="-2.389382030814886">
        <ele>625.47000000000003</ele>
        <time>2025-04-27T14:45:36Z</time>
      </trkpt>
      <trkpt lat="42.644937001168728" lon="-2.389384964480996">
        <ele>625.47000000000003</ele>
        <time>2025-04-27T14:45:37Z</time>
      </trkpt>
      <trkpt lat="42.644843040034175" lon="-2.389356968924403">
        <ele>625.96000000000004</ele>
        <time>2025-04-27T14:45:38Z</time>
      </trkpt>
      <trkpt lat="42.64474899508059" lon="-2.38932796753943">
        <ele>625.96000000000004</ele>
        <time>2025-04-27T14:45:39Z</time>
      </trkpt>
      <trkpt lat="42.643555998802185" lon="-2.389205005019903">
        <ele>628.84000000000003</ele>
        <time>2025-04-27T14:45:50Z</time>
      </trkpt>
      <trkpt lat="42.64311796054244" lon="-2.389227971434593">
        <ele>630.27999999999997</ele>
        <time>2025-04-27T14:45:54Z</time>
      </trkpt>
      <trkpt lat="42.643004972487688" lon="-2.389243980869651">
        <ele>630.75999999999999</ele>
        <time>2025-04-27T14:45:55Z</time>
      </trkpt>
      <trkpt lat="42.642895001918077" lon="-2.389301983639598">
        <ele>630.75999999999999</ele>
        <time>2025-04-27T14:45:56Z</time>
      </trkpt>
      <trkpt lat="42.642795005813241" lon="-2.389384964480996">
        <ele>631.24000000000001</ele>
        <time>2025-04-27T14:45:57Z</time>
      </trkpt>
      <trkpt lat="42.642725016921759" lon="-2.389516979455948">
        <ele>631.24000000000001</ele>
        <time>2025-04-27T14:45:58Z</time>
      </trkpt>
      <trkpt lat="42.642647987231612" lon="-2.389658968895674">
        <ele>631.24000000000001</ele>
        <time>2025-04-27T14:45:59Z</time>
      </trkpt>
      <trkpt lat="42.642569029703736" lon="-2.389806993305683">
        <ele>631.24000000000001</ele>
        <time>2025-04-27T14:46:00Z</time>
      </trkpt>
      <trkpt lat="42.641599997878075" lon="-2.391732987016439">
        <ele>635.57000000000005</ele>
        <time>2025-04-27T14:46:12Z</time>
      </trkpt>
      <trkpt lat="42.64075200073421" lon="-2.39349402487278">
        <ele>636.52999999999997</ele>
        <time>2025-04-27T14:46:21Z</time>
      </trkpt>
      <trkpt lat="42.64045100659132" lon="-2.394077992066741">
        <ele>638.92999999999995</ele>
        <time>2025-04-27T14:46:24Z</time>
      </trkpt>
      <trkpt lat="42.64038797467947" lon="-2.394260969012976">
        <ele>639.88999999999999</ele>
        <time>2025-04-27T14:46:25Z</time>
      </trkpt>
      <trkpt lat="42.640399038791656" lon="-2.394450986757875">
        <ele>640.38</ele>
        <time>2025-04-27T14:46:26Z</time>
      </trkpt>
      <trkpt lat="42.640411024913192" lon="-2.394643016159535">
        <ele>640.86000000000001</ele>
        <time>2025-04-27T14:46:27Z</time>
      </trkpt>
      <trkpt lat="42.640420999377966" lon="-2.394823981449008">
        <ele>641.34000000000003</ele>
        <time>2025-04-27T14:46:28Z</time>
      </trkpt>
      <trkpt lat="42.640418987721205" lon="-2.395001007243991">
        <ele>642.29999999999995</ele>
        <time>2025-04-27T14:46:29Z</time>
      </trkpt>
      <trkpt lat="42.640385963022709" lon="-2.39514802582562">
        <ele>642.77999999999997</ele>
        <time>2025-04-27T14:46:30Z</time>
      </trkpt>
      <trkpt lat="42.640283033251762" lon="-2.395293032750487">
        <ele>643.25999999999999</ele>
        <time>2025-04-27T14:46:31Z</time>
      </trkpt>
      <trkpt lat="42.640183959156275" lon="-2.395430998876691">
        <ele>643.25999999999999</ele>
        <time>2025-04-27T14:46:32Z</time>
      </trkpt>
      <trkpt lat="42.640079017728567" lon="-2.3955790232867">
        <ele>643.25999999999999</ele>
        <time>2025-04-27T14:46:33Z</time>
      </trkpt>
      <trkpt lat="42.639936022460461" lon="-2.395670972764492">
        <ele>643.74000000000001</ele>
        <time>2025-04-27T14:46:34Z</time>
      </trkpt>
      <trkpt lat="42.63978498056531" lon="-2.395755965262651">
        <ele>644.22000000000003</ele>
        <time>2025-04-27T14:46:35Z</time>
      </trkpt>
      <trkpt lat="42.639622036367655" lon="-2.395825032144785">
        <ele>644.70000000000005</ele>
        <time>2025-04-27T14:46:36Z</time>
      </trkpt>
      <trkpt lat="42.638234999030828" lon="-2.396445041522384">
        <ele>649.50999999999999</ele>
        <time>2025-04-27T14:46:44Z</time>
      </trkpt>
      <trkpt lat="42.637917995452881" lon="-2.396649979054928">
        <ele>650.95000000000005</ele>
        <time>2025-04-27T14:46:46Z</time>
      </trkpt>
      <trkpt lat="42.637783968821168" lon="-2.396777970716357">
        <ele>651.90999999999997</ele>
        <time>2025-04-27T14:46:47Z</time>
      </trkpt>
      <trkpt lat="42.63744399882853" lon="-2.397161023691297">
        <ele>653.83000000000004</ele>
        <time>2025-04-27T14:46:50Z</time>
      </trkpt>
      <trkpt lat="42.637375015765429" lon="-2.39731902256608">
        <ele>654.30999999999995</ele>
        <time>2025-04-27T14:46:51Z</time>
      </trkpt>
      <trkpt lat="42.6373350340873" lon="-2.397500993683934">
        <ele>655.75999999999999</ele>
        <time>2025-04-27T14:46:52Z</time>
      </trkpt>
      <trkpt lat="42.637317012995481" lon="-2.397940037772059">
        <ele>657.67999999999995</ele>
        <time>2025-04-27T14:46:54Z</time>
      </trkpt>
      <trkpt lat="42.637260016053915" lon="-2.39815603941679">
        <ele>658.15999999999997</ele>
        <time>2025-04-27T14:46:55Z</time>
      </trkpt>
      <trkpt lat="42.637188015505672" lon="-2.398375980556011">
        <ele>658.63999999999999</ele>
        <time>2025-04-27T14:46:56Z</time>
      </trkpt>
      <trkpt lat="42.636901019141078" lon="-2.399142002686858">
        <ele>659.12</ele>
        <time>2025-04-27T14:47:00Z</time>
      </trkpt>
      <trkpt lat="42.636846033856273" lon="-2.399290027096868">
        <ele>659.12</ele>
        <time>2025-04-27T14:47:01Z</time>
      </trkpt>
      <trkpt lat="42.636737991124392" lon="-2.399406032636762">
        <ele>659.12</ele>
        <time>2025-04-27T14:47:02Z</time>
      </trkpt>
      <trkpt lat="42.636628020554781" lon="-2.399523966014385">
        <ele>659.12</ele>
        <time>2025-04-27T14:47:03Z</time>
      </trkpt>
      <trkpt lat="42.63649701140821" lon="-2.399615999311209">
        <ele>658.63999999999999</ele>
        <time>2025-04-27T14:47:04Z</time>
      </trkpt>
      <trkpt lat="42.636352004483342" lon="-2.399670984596014">
        <ele>658.63999999999999</ele>
        <time>2025-04-27T14:47:05Z</time>
      </trkpt>
      <trkpt lat="42.636214960366488" lon="-2.399723036214709">
        <ele>658.63999999999999</ele>
        <time>2025-04-27T14:47:06Z</time>
      </trkpt>
      <trkpt lat="42.636083029210567" lon="-2.399773998185992">
        <ele>658.63999999999999</ele>
        <time>2025-04-27T14:47:07Z</time>
      </trkpt>
      <trkpt lat="42.635954031720757" lon="-2.399822026491165">
        <ele>658.63999999999999</ele>
        <time>2025-04-27T14:47:08Z</time>
      </trkpt>
      <trkpt lat="42.635861998423934" lon="-2.399936020374298">
        <ele>658.63999999999999</ele>
        <time>2025-04-27T14:47:09Z</time>
      </trkpt>
      <trkpt lat="42.63578899204731" lon="-2.400067029520869">
        <ele>658.63999999999999</ele>
        <time>2025-04-27T14:47:10Z</time>
      </trkpt>
      <trkpt lat="42.635729983448982" lon="-2.40021999925375">
        <ele>659.12</ele>
        <time>2025-04-27T14:47:11Z</time>
      </trkpt>
      <trkpt lat="42.635651025921106" lon="-2.400355031713843">
        <ele>659.12</ele>
        <time>2025-04-27T14:47:12Z</time>
      </trkpt>
      <trkpt lat="42.635567039251328" lon="-2.400471959263086">
        <ele>659.12</ele>
        <time>2025-04-27T14:47:13Z</time>
      </trkpt>
      <trkpt lat="42.635451033711433" lon="-2.400562986731529">
        <ele>659.12</ele>
        <time>2025-04-27T14:47:14Z</time>
      </trkpt>
      <trkpt lat="42.635194966569543" lon="-2.40071402862668">
        <ele>659.12</ele>
        <time>2025-04-27T14:47:16Z</time>
      </trkpt>
      <trkpt lat="42.635074015706778" lon="-2.400826010853052">
        <ele>659.12</ele>
        <time>2025-04-27T14:47:17Z</time>
      </trkpt>
      <trkpt lat="42.634958010166883" lon="-2.400948973372579">
        <ele>659.12</ele>
        <time>2025-04-27T14:47:18Z</time>
      </trkpt>
      <trkpt lat="42.634419975802302" lon="-2.401540987193584">
        <ele>661.03999999999996</ele>
        <time>2025-04-27T14:47:23Z</time>
      </trkpt>
      <trkpt lat="42.634308999404311" lon="-2.401626985520124">
        <ele>661.51999999999998</ele>
        <time>2025-04-27T14:47:24Z</time>
      </trkpt>
      <trkpt lat="42.634195005521178" lon="-2.401675013825297">
        <ele>662.00999999999999</ele>
        <time>2025-04-27T14:47:25Z</time>
      </trkpt>
      <trkpt lat="42.634084029123187" lon="-2.40172203630209">
        <ele>662.00999999999999</ele>
        <time>2025-04-27T14:47:26Z</time>
      </trkpt>
      <trkpt lat="42.633971041068435" lon="-2.401769980788231">
        <ele>662.49000000000001</ele>
        <time>2025-04-27T14:47:27Z</time>
      </trkpt>
      <trkpt lat="42.633856041356921" lon="-2.401823038235307">
        <ele>662.97000000000003</ele>
        <time>2025-04-27T14:47:28Z</time>
      </trkpt>
      <trkpt lat="42.633650014176965" lon="-2.401920016855001">
        <ele>663.92999999999995</ele>
        <time>2025-04-27T14:47:30Z</time>
      </trkpt>
      <trkpt lat="42.633526967838407" lon="-2.401944994926453">
        <ele>664.40999999999997</ele>
        <time>2025-04-27T14:47:31Z</time>
      </trkpt>
      <trkpt lat="42.633368968963623" lon="-2.401928985491395">
        <ele>664.88999999999999</ele>
        <time>2025-04-27T14:47:32Z</time>
      </trkpt>
      <trkpt lat="42.633269978687167" lon="-2.401951029896736">
        <ele>665.85000000000002</ele>
        <time>2025-04-27T14:47:33Z</time>
      </trkpt>
      <trkpt lat="42.633120026439428" lon="-2.401999980211258">
        <ele>666.80999999999995</ele>
        <time>2025-04-27T14:47:34Z</time>
      </trkpt>
      <trkpt lat="42.632978959009051" lon="-2.402091007679701">
        <ele>667.76999999999998</ele>
        <time>2025-04-27T14:47:35Z</time>
      </trkpt>
      <trkpt lat="42.632835963740945" lon="-2.402189997956157">
        <ele>668.73000000000002</ele>
        <time>2025-04-27T14:47:36Z</time>
      </trkpt>
      <trkpt lat="42.632697997614741" lon="-2.402293011546135">
        <ele>670.17999999999995</ele>
        <time>2025-04-27T14:47:37Z</time>
      </trkpt>
      <trkpt lat="42.632564976811409" lon="-2.402407005429268">
        <ele>671.13999999999999</ele>
        <time>2025-04-27T14:47:38Z</time>
      </trkpt>
      <trkpt lat="42.632421981543303" lon="-2.402515970170498">
        <ele>671.62</ele>
        <time>2025-04-27T14:47:39Z</time>
      </trkpt>
      <trkpt lat="42.632259037345648" lon="-2.402568021789193">
        <ele>672.10000000000002</ele>
        <time>2025-04-27T14:47:40Z</time>
      </trkpt>
      <trkpt lat="42.632098020985723" lon="-2.402618983760476">
        <ele>672.58000000000004</ele>
        <time>2025-04-27T14:47:41Z</time>
      </trkpt>
      <trkpt lat="42.631947984918952" lon="-2.402677992358804">
        <ele>673.53999999999996</ele>
        <time>2025-04-27T14:47:42Z</time>
      </trkpt>
      <trkpt lat="42.631825022399426" lon="-2.402766002342105">
        <ele>674.01999999999998</ele>
        <time>2025-04-27T14:47:43Z</time>
      </trkpt>
      <trkpt lat="42.631717985495925" lon="-2.40290698595345">
        <ele>675.46000000000004</ele>
        <time>2025-04-27T14:47:44Z</time>
      </trkpt>
      <trkpt lat="42.631482034921646" lon="-2.40320404060185">
        <ele>677.38999999999999</ele>
        <time>2025-04-27T14:47:46Z</time>
      </trkpt>
      <trkpt lat="42.630467992275953" lon="-2.404285976663232">
        <ele>687.96000000000004</ele>
        <time>2025-04-27T14:47:53Z</time>
      </trkpt>
      <trkpt lat="42.629484962671995" lon="-2.405256014317274">
        <ele>697.09000000000003</ele>
        <time>2025-04-27T14:48:00Z</time>
      </trkpt>
      <trkpt lat="42.629399970173836" lon="-2.405431028455496">
        <ele>698.04999999999995</ele>
        <time>2025-04-27T14:48:01Z</time>
      </trkpt>
      <trkpt lat="42.629332998767495" lon="-2.405634960159659">
        <ele>699.5</ele>
        <time>2025-04-27T14:48:02Z</time>
      </trkpt>
      <trkpt lat="42.62927901931107" lon="-2.405864959582686">
        <ele>700.94000000000005</ele>
        <time>2025-04-27T14:48:03Z</time>
      </trkpt>
      <trkpt lat="42.629224034026265" lon="-2.406101999804378">
        <ele>701.89999999999998</ele>
        <time>2025-04-27T14:48:04Z</time>
      </trkpt>
      <trkpt lat="42.628749031573534" lon="-2.407725993543863">
        <ele>711.02999999999997</ele>
        <time>2025-04-27T14:48:11Z</time>
      </trkpt>
      <trkpt lat="42.628391040489078" lon="-2.408538032323122">
        <ele>717.27999999999997</ele>
        <time>2025-04-27T14:48:15Z</time>
      </trkpt>
      <trkpt lat="42.628323985263705" lon="-2.408767025917769">
        <ele>719.20000000000005</ele>
        <time>2025-04-27T14:48:16Z</time>
      </trkpt>
      <trkpt lat="42.628255002200603" lon="-2.409002976492047">
        <ele>720.64999999999998</ele>
        <time>2025-04-27T14:48:17Z</time>
      </trkpt>
      <trkpt lat="42.62818300165236" lon="-2.409249991178513">
        <ele>722.57000000000005</ele>
        <time>2025-04-27T14:48:18Z</time>
      </trkpt>
      <trkpt lat="42.628107983618975" lon="-2.409506980329752">
        <ele>724.00999999999999</ele>
        <time>2025-04-27T14:48:19Z</time>
      </trkpt>
      <trkpt lat="42.627588976174593" lon="-2.411341024562717">
        <ele>733.62</ele>
        <time>2025-04-27T14:48:27Z</time>
      </trkpt>
      <trkpt lat="42.627513958141208" lon="-2.411514027044177">
        <ele>734.58000000000004</ele>
        <time>2025-04-27T14:48:28Z</time>
      </trkpt>
      <trkpt lat="42.6274090167135" lon="-2.411648975685239">
        <ele>735.07000000000005</ele>
        <time>2025-04-27T14:48:29Z</time>
      </trkpt>
      <trkpt lat="42.627283036708832" lon="-2.411787025630474">
        <ele>736.02999999999997</ele>
        <time>2025-04-27T14:48:30Z</time>
      </trkpt>
      <trkpt lat="42.627134006470442" lon="-2.411921974271536">
        <ele>736.99000000000001</ele>
        <time>2025-04-27T14:48:31Z</time>
      </trkpt>
      <trkpt lat="42.625831961631775" lon="-2.413103990256786">
        <ele>744.67999999999995</ele>
        <time>2025-04-27T14:48:40Z</time>
      </trkpt>
      <trkpt lat="42.625615959987044" lon="-2.413379000499845">
        <ele>746.60000000000002</ele>
        <time>2025-04-27T14:48:42Z</time>
      </trkpt>
      <trkpt lat="42.625529039651155" lon="-2.413538005203009">
        <ele>747.55999999999995</ele>
        <time>2025-04-27T14:48:43Z</time>
      </trkpt>
      <trkpt lat="42.625460978597403" lon="-2.413727017119527">
        <ele>748.51999999999998</ele>
        <time>2025-04-27T14:48:44Z</time>
      </trkpt>
      <trkpt lat="42.625183034688234" lon="-2.414494967088103">
        <ele>752.37</ele>
        <time>2025-04-27T14:48:48Z</time>
      </trkpt>
      <trkpt lat="42.625092007219791" lon="-2.414629999548197">
        <ele>753.33000000000004</ele>
        <time>2025-04-27T14:48:49Z</time>
      </trkpt>
      <trkpt lat="42.625092007219791" lon="-2.414629999548197">
        <ele>754.76999999999998</ele>
        <time>2025-04-27T14:48:50Z</time>
      </trkpt>
      <trkpt lat="42.624884974211454" lon="-2.414895035326481">
        <ele>755.73000000000002</ele>
        <time>2025-04-27T14:48:51Z</time>
      </trkpt>
      <trkpt lat="42.624743990600109" lon="-2.414992013946176">
        <ele>756.69000000000005</ele>
        <time>2025-04-27T14:48:52Z</time>
      </trkpt>
      <trkpt lat="42.624610969796777" lon="-2.415083963423967">
        <ele>758.13999999999999</ele>
        <time>2025-04-27T14:48:53Z</time>
      </trkpt>
      <trkpt lat="42.62448700144887" lon="-2.415139032527804">
        <ele>759.10000000000002</ele>
        <time>2025-04-27T14:48:54Z</time>
      </trkpt>
      <trkpt lat="42.624362027272582" lon="-2.415166022256017">
        <ele>760.05999999999995</ele>
        <time>2025-04-27T14:48:55Z</time>
      </trkpt>
      <trkpt lat="42.624249961227179" lon="-2.415189994499087">
        <ele>761.01999999999998</ele>
        <time>2025-04-27T14:48:56Z</time>
      </trkpt>
      <trkpt lat="42.62416304089129" lon="-2.415110031142831">
        <ele>761.98000000000002</ele>
        <time>2025-04-27T14:48:57Z</time>
      </trkpt>
      <trkpt lat="42.624062038958073" lon="-2.415017997846007">
        <ele>763.41999999999996</ele>
        <time>2025-04-27T14:48:58Z</time>
      </trkpt>
      <trkpt lat="42.623965982347727" lon="-2.414911966770887">
        <ele>764.38999999999999</ele>
        <time>2025-04-27T14:48:59Z</time>
      </trkpt>
      <trkpt lat="42.62386598624289" lon="-2.414753967896104">
        <ele>765.83000000000004</ele>
        <time>2025-04-27T14:49:00Z</time>
      </trkpt>
      <trkpt lat="42.623572032898664" lon="-2.414259016513825">
        <ele>769.19000000000005</ele>
        <time>2025-04-27T14:49:03Z</time>
      </trkpt>
      <trkpt lat="42.623525010421872" lon="-2.414062963798642">
        <ele>770.63</ele>
        <time>2025-04-27T14:49:04Z</time>
      </trkpt>
      <trkpt lat="42.62347798794508" lon="-2.413873029872775">
        <ele>772.08000000000004</ele>
        <time>2025-04-27T14:49:05Z</time>
      </trkpt>
      <trkpt lat="42.623343039304018" lon="-2.413428034633398">
        <ele>774.96000000000004</ele>
        <time>2025-04-27T14:49:08Z</time>
      </trkpt>
      <trkpt lat="42.62326399795711" lon="-2.413323009386659">
        <ele>775.44000000000005</ele>
        <time>2025-04-27T14:49:09Z</time>
      </trkpt>
      <trkpt lat="42.623167019337416" lon="-2.413323009386659">
        <ele>775.91999999999996</ele>
        <time>2025-04-27T14:49:10Z</time>
      </trkpt>
      <trkpt lat="42.623054031282663" lon="-2.413333989679813">
        <ele>776.39999999999998</ele>
        <time>2025-04-27T14:49:11Z</time>
      </trkpt>
      <trkpt lat="42.62294003739953" lon="-2.413414958864451">
        <ele>776.88</ele>
        <time>2025-04-27T14:49:12Z</time>
      </trkpt>
      <trkpt lat="42.62281103990972" lon="-2.413507997989655">
        <ele>777.84000000000003</ele>
        <time>2025-04-27T14:49:13Z</time>
      </trkpt>
      <trkpt lat="42.622432010248303" lon="-2.413760963827372">
        <ele>779.76999999999998</ele>
        <time>2025-04-27T14:49:16Z</time>
      </trkpt>
      <trkpt lat="42.622432010248303" lon="-2.413760963827372">
        <ele>780.25</ele>
        <time>2025-04-27T14:49:17Z</time>
      </trkpt>
      <trkpt lat="42.622083993628621" lon="-2.413683012127876">
        <ele>781.69000000000005</ele>
        <time>2025-04-27T14:49:19Z</time>
      </trkpt>
      <trkpt lat="42.621169025078416" lon="-2.413146989420056">
        <ele>786.01999999999998</ele>
        <time>2025-04-27T14:49:26Z</time>
      </trkpt>
      <trkpt lat="42.620996022596955" lon="-2.413102984428406">
        <ele>786.5</ele>
        <time>2025-04-27T14:49:27Z</time>
      </trkpt>
      <trkpt lat="42.620886974036694" lon="-2.41317599080503">
        <ele>786.98000000000002</ele>
        <time>2025-04-27T14:49:28Z</time>
      </trkpt>
      <trkpt lat="42.620764011517167" lon="-2.413257965818048">
        <ele>787.46000000000004</ele>
        <time>2025-04-27T14:49:29Z</time>
      </trkpt>
      <trkpt lat="42.620630990713835" lon="-2.413346981629729">
        <ele>787.46000000000004</ele>
        <time>2025-04-27T14:49:30Z</time>
      </trkpt>
      <trkpt lat="42.620495036244392" lon="-2.413441026583314">
        <ele>787.46000000000004</ele>
        <time>2025-04-27T14:49:31Z</time>
      </trkpt>
      <trkpt lat="42.619777964428067" lon="-2.414020970463753">
        <ele>787.46000000000004</ele>
        <time>2025-04-27T14:49:36Z</time>
      </trkpt>
      <trkpt lat="42.619633041322231" lon="-2.414147034287453">
        <ele>787.46000000000004</ele>
        <time>2025-04-27T14:49:37Z</time>
      </trkpt>
      <trkpt lat="42.619541008025408" lon="-2.414349960163236">
        <ele>787.46000000000004</ele>
        <time>2025-04-27T14:49:38Z</time>
      </trkpt>
      <trkpt lat="42.619443023577332" lon="-2.414565961807966">
        <ele>787.46000000000004</ele>
        <time>2025-04-27T14:49:39Z</time>
      </trkpt>
      <trkpt lat="42.619341015815735" lon="-2.414792021736503">
        <ele>787.46000000000004</ele>
        <time>2025-04-27T14:49:40Z</time>
      </trkpt>
      <trkpt lat="42.618266958743334" lon="-2.417246997356415">
        <ele>790.34000000000003</ele>
        <time>2025-04-27T14:49:50Z</time>
      </trkpt>
      <trkpt lat="42.617249982431531" lon="-2.418923964723945">
        <ele>797.54999999999995</ele>
        <time>2025-04-27T14:49:58Z</time>
      </trkpt>
      <trkpt lat="42.615818018093705" lon="-2.420350983738899">
        <ele>809.57000000000005</ele>
        <time>2025-04-27T14:50:07Z</time>
      </trkpt>
      <trkpt lat="42.614511027932167" lon="-2.421325966715813">
        <ele>818.70000000000005</ele>
        <time>2025-04-27T14:50:15Z</time>
      </trkpt>
      <trkpt lat="42.614380018785596" lon="-2.421418000012636">
        <ele>820.13999999999999</ele>
        <time>2025-04-27T14:50:16Z</time>
      </trkpt>
      <trkpt lat="42.614229982718825" lon="-2.421441972255707">
        <ele>821.58000000000004</ele>
        <time>2025-04-27T14:50:17Z</time>
      </trkpt>
      <trkpt lat="42.614062009379268" lon="-2.421452030539513">
        <ele>823.02999999999997</ele>
        <time>2025-04-27T14:50:18Z</time>
      </trkpt>
      <trkpt lat="42.613888001069427" lon="-2.421419005841017">
        <ele>824.47000000000003</ele>
        <time>2025-04-27T14:50:19Z</time>
      </trkpt>
      <trkpt lat="42.613708041608334" lon="-2.421367960050702">
        <ele>825.42999999999995</ele>
        <time>2025-04-27T14:50:20Z</time>
      </trkpt>
      <trkpt lat="42.613402018323541" lon="-2.421219013631344">
        <ele>828.30999999999995</ele>
        <time>2025-04-27T14:50:22Z</time>
      </trkpt>
      <trkpt lat="42.613260028883815" lon="-2.421123962849379">
        <ele>829.26999999999998</ele>
        <time>2025-04-27T14:50:23Z</time>
      </trkpt>
      <trkpt lat="42.613147040829062" lon="-2.420969987288117">
        <ele>830.24000000000001</ele>
        <time>2025-04-27T14:50:24Z</time>
      </trkpt>
      <trkpt lat="42.612787038087845" lon="-2.42045902647078">
        <ele>833.12</ele>
        <time>2025-04-27T14:50:27Z</time>
      </trkpt>
      <trkpt lat="42.612671032547951" lon="-2.420334974303842">
        <ele>833.60000000000002</ele>
        <time>2025-04-27T14:50:28Z</time>
      </trkpt>
      <trkpt lat="42.612566007301211" lon="-2.42022399790585">
        <ele>834.08000000000004</ele>
        <time>2025-04-27T14:50:29Z</time>
      </trkpt>
      <trkpt lat="42.612452013418078" lon="-2.420196002349258">
        <ele>834.55999999999995</ele>
        <time>2025-04-27T14:50:30Z</time>
      </trkpt>
      <trkpt lat="42.612345982342958" lon="-2.42020396515727">
        <ele>834.55999999999995</ele>
        <time>2025-04-27T14:50:31Z</time>
      </trkpt>
      <trkpt lat="42.612247997894883" lon="-2.420218968763948">
        <ele>834.55999999999995</ele>
        <time>2025-04-27T14:50:32Z</time>
      </trkpt>
      <trkpt lat="42.612166022881866" lon="-2.420317959040403">
        <ele>834.55999999999995</ele>
        <time>2025-04-27T14:50:33Z</time>
      </trkpt>
      <trkpt lat="42.612077007070184" lon="-2.420424995943904">
        <ele>835.03999999999996</ele>
        <time>2025-04-27T14:50:34Z</time>
      </trkpt>
      <trkpt lat="42.61202403344214" lon="-2.420576959848404">
        <ele>835.03999999999996</ele>
        <time>2025-04-27T14:50:35Z</time>
      </trkpt>
      <trkpt lat="42.611993020400405" lon="-2.420780975371599">
        <ele>835.51999999999998</ele>
        <time>2025-04-27T14:50:36Z</time>
      </trkpt>
      <trkpt lat="42.611957984045148" lon="-2.421006029471755">
        <ele>836.48000000000002</ele>
        <time>2025-04-27T14:50:37Z</time>
      </trkpt>
      <trkpt lat="42.611922025680542" lon="-2.421242985874414">
        <ele>836.96000000000004</ele>
        <time>2025-04-27T14:50:38Z</time>
      </trkpt>
      <trkpt lat="42.611731002107263" lon="-2.423371989279985">
        <ele>851.38</ele>
        <time>2025-04-27T14:50:46Z</time>
      </trkpt>
      <trkpt lat="42.611724967136979" lon="-2.42389602586627">
        <ele>855.71000000000004</ele>
        <time>2025-04-27T14:50:48Z</time>
      </trkpt>
      <trkpt lat="42.611798979341984" lon="-2.424961030483246">
        <ele>864.84000000000003</ele>
        <time>2025-04-27T14:50:52Z</time>
      </trkpt>
      <trkpt lat="42.611782969906926" lon="-2.42522899992764">
        <ele>866.76999999999998</ele>
        <time>2025-04-27T14:50:53Z</time>
      </trkpt>
      <trkpt lat="42.611744999885559" lon="-2.426675967872143">
        <ele>873.98000000000002</ele>
        <time>2025-04-27T14:50:58Z</time>
      </trkpt>
      <trkpt lat="42.611766960471869" lon="-2.426976040005684">
        <ele>874.94000000000005</ele>
        <time>2025-04-27T14:50:59Z</time>
      </trkpt>
      <trkpt lat="42.61180903762579" lon="-2.427567970007658">
        <ele>877.34000000000003</ele>
        <time>2025-04-27T14:51:01Z</time>
      </trkpt>
      <trkpt lat="42.612092010676861" lon="-2.429454987868667">
        <ele>882.14999999999998</ele>
        <time>2025-04-27T14:51:08Z</time>
      </trkpt>
      <trkpt lat="42.61228202842176" lon="-2.430135011672974">
        <ele>884.07000000000005</ele>
        <time>2025-04-27T14:51:11Z</time>
      </trkpt>
      <trkpt lat="42.612296026200056" lon="-2.430327041074634">
        <ele>884.07000000000005</ele>
        <time>2025-04-27T14:51:12Z</time>
      </trkpt>
      <trkpt lat="42.612269036471844" lon="-2.430518986657262">
        <ele>885.02999999999997</ele>
        <time>2025-04-27T14:51:13Z</time>
      </trkpt>
      <trkpt lat="42.612235005944967" lon="-2.43070799857378">
        <ele>885.50999999999999</ele>
        <time>2025-04-27T14:51:14Z</time>
      </trkpt>
      <trkpt lat="42.612188989296556" lon="-2.430873960256577">
        <ele>885.50999999999999</ele>
        <time>2025-04-27T14:51:15Z</time>
      </trkpt>
      <trkpt lat="42.612117994576693" lon="-2.431003963574767">
        <ele>885.99000000000001</ele>
        <time>2025-04-27T14:51:16Z</time>
      </trkpt>
      <trkpt lat="42.612037025392056" lon="-2.431074036285281">
        <ele>885.99000000000001</ele>
        <time>2025-04-27T14:51:17Z</time>
      </trkpt>
      <trkpt lat="42.61193904094398" lon="-2.431084010750055">
        <ele>885.99000000000001</ele>
        <time>2025-04-27T14:51:18Z</time>
      </trkpt>
      <trkpt lat="42.611813982948661" lon="-2.431081999093294">
        <ele>885.99000000000001</ele>
        <time>2025-04-27T14:51:19Z</time>
      </trkpt>
      <trkpt lat="42.611663024872541" lon="-2.431065989658237">
        <ele>885.99000000000001</ele>
        <time>2025-04-27T14:51:20Z</time>
      </trkpt>
      <trkpt lat="42.611505025997758" lon="-2.431048974394798">
        <ele>885.99000000000001</ele>
        <time>2025-04-27T14:51:21Z</time>
      </trkpt>
      <trkpt lat="42.611351972445846" lon="-2.43103195913136">
        <ele>885.99000000000001</ele>
        <time>2025-04-27T14:51:22Z</time>
      </trkpt>
      <trkpt lat="42.61120998300612" lon="-2.431055009365082">
        <ele>886.47000000000003</ele>
        <time>2025-04-27T14:51:23Z</time>
      </trkpt>
      <trkpt lat="42.611118033528328" lon="-2.431089961901307">
        <ele>886.95000000000005</ele>
        <time>2025-04-27T14:51:24Z</time>
      </trkpt>
      <trkpt lat="42.610987024381757" lon="-2.431220971047878">
        <ele>886.95000000000005</ele>
        <time>2025-04-27T14:51:25Z</time>
      </trkpt>
      <trkpt lat="42.610899014398456" lon="-2.431353991851211">
        <ele>887.42999999999995</ele>
        <time>2025-04-27T14:51:26Z</time>
      </trkpt>
      <trkpt lat="42.610803041607141" lon="-2.431515008211136">
        <ele>887.42999999999995</ele>
        <time>2025-04-27T14:51:27Z</time>
      </trkpt>
      <trkpt lat="42.610429963096976" lon="-2.432178016752005">
        <ele>886.95000000000005</ele>
        <time>2025-04-27T14:51:31Z</time>
      </trkpt>
      <trkpt lat="42.610376989468932" lon="-2.432369040325284">
        <ele>886.95000000000005</ele>
        <time>2025-04-27T14:51:32Z</time>
      </trkpt>
      <trkpt lat="42.610344970598817" lon="-2.432585963979363">
        <ele>886.95000000000005</ele>
        <time>2025-04-27T14:51:33Z</time>
      </trkpt>
      <trkpt lat="42.610344970598817" lon="-2.432839013636112">
        <ele>886.95000000000005</ele>
        <time>2025-04-27T14:51:34Z</time>
      </trkpt>
      <trkpt lat="42.610377995297313" lon="-2.433110000565648">
        <ele>887.42999999999995</ele>
        <time>2025-04-27T14:51:35Z</time>
      </trkpt>
      <trkpt lat="42.610581004992127" lon="-2.434521010145545">
        <ele>890.79999999999995</ele>
        <time>2025-04-27T14:51:41Z</time>
      </trkpt>
      <trkpt lat="42.610572036355734" lon="-2.434713961556554">
        <ele>890.79999999999995</ele>
        <time>2025-04-27T14:51:42Z</time>
      </trkpt>
      <trkpt lat="42.610534988343716" lon="-2.434882018715143">
        <ele>891.27999999999997</ele>
        <time>2025-04-27T14:51:43Z</time>
      </trkpt>
      <trkpt lat="42.610494000837207" lon="-2.435060972347856">
        <ele>891.75999999999999</ele>
        <time>2025-04-27T14:51:44Z</time>
      </trkpt>
      <trkpt lat="42.610399033874273" lon="-2.435156023129821">
        <ele>891.75999999999999</ele>
        <time>2025-04-27T14:51:45Z</time>
      </trkpt>
      <trkpt lat="42.610281016677618" lon="-2.435274040326476">
        <ele>891.75999999999999</ele>
        <time>2025-04-27T14:51:46Z</time>
      </trkpt>
      <trkpt lat="42.610124023631215" lon="-2.435368001461029">
        <ele>891.75999999999999</ele>
        <time>2025-04-27T14:51:47Z</time>
      </trkpt>
      <trkpt lat="42.609955966472626" lon="-2.435466991737485">
        <ele>891.75999999999999</ele>
        <time>2025-04-27T14:51:48Z</time>
      </trkpt>
      <trkpt lat="42.609799979254603" lon="-2.435559025034308">
        <ele>892.24000000000001</ele>
        <time>2025-04-27T14:51:49Z</time>
      </trkpt>
      <trkpt lat="42.609664024785161" lon="-2.435662960633636">
        <ele>892.24000000000001</ele>
        <time>2025-04-27T14:51:50Z</time>
      </trkpt>
      <trkpt lat="42.609551958739758" lon="-2.435801010578871">
        <ele>892.72000000000003</ele>
        <time>2025-04-27T14:51:51Z</time>
      </trkpt>
      <trkpt lat="42.609475012868643" lon="-2.435968983918428">
        <ele>893.20000000000005</ele>
        <time>2025-04-27T14:51:52Z</time>
      </trkpt>
      <trkpt lat="42.609417010098696" lon="-2.436167970299721">
        <ele>893.20000000000005</ele>
        <time>2025-04-27T14:51:53Z</time>
      </trkpt>
      <trkpt lat="42.609358001500368" lon="-2.436367962509394">
        <ele>892.72000000000003</ele>
        <time>2025-04-27T14:51:54Z</time>
      </trkpt>
      <trkpt lat="42.609307039529085" lon="-2.436574995517731">
        <ele>891.75999999999999</ele>
        <time>2025-04-27T14:51:55Z</time>
      </trkpt>
      <trkpt lat="42.609130013734102" lon="-2.437178995460272">
        <ele>888.39999999999998</ele>
        <time>2025-04-27T14:51:58Z</time>
      </trkpt>
      <trkpt lat="42.609094977378845" lon="-2.4373899679631">
        <ele>887.42999999999995</ele>
        <time>2025-04-27T14:51:59Z</time>
      </trkpt>
      <trkpt lat="42.609086008742452" lon="-2.437590966001153">
        <ele>886.47000000000003</ele>
        <time>2025-04-27T14:52:00Z</time>
      </trkpt>
      <trkpt lat="42.609095983207226" lon="-2.437805039808154">
        <ele>885.99000000000001</ele>
        <time>2025-04-27T14:52:01Z</time>
      </trkpt>
      <trkpt lat="42.609162032604218" lon="-2.438006959855557">
        <ele>886.47000000000003</ele>
        <time>2025-04-27T14:52:02Z</time>
      </trkpt>
      <trkpt lat="42.609251970425248" lon="-2.438169987872243">
        <ele>886.47000000000003</ele>
        <time>2025-04-27T14:52:03Z</time>
      </trkpt>
      <trkpt lat="42.609349032863975" lon="-2.438346007838845">
        <ele>886.95000000000005</ele>
        <time>2025-04-27T14:52:04Z</time>
      </trkpt>
      <trkpt lat="42.609451040625572" lon="-2.438529990613461">
        <ele>886.95000000000005</ele>
        <time>2025-04-27T14:52:05Z</time>
      </trkpt>
      <trkpt lat="42.609522035345435" lon="-2.438754038885236">
        <ele>886.95000000000005</ele>
        <time>2025-04-27T14:52:06Z</time>
      </trkpt>
      <trkpt lat="42.609582971781492" lon="-2.43900197558105">
        <ele>887.42999999999995</ele>
        <time>2025-04-27T14:52:07Z</time>
      </trkpt>
      <trkpt lat="42.609695037826896" lon="-2.439512014389038">
        <ele>887.42999999999995</ele>
        <time>2025-04-27T14:52:09Z</time>
      </trkpt>
      <trkpt lat="42.609757985919714" lon="-2.439770009368658">
        <ele>887.90999999999997</ele>
        <time>2025-04-27T14:52:10Z</time>
      </trkpt>
      <trkpt lat="42.61022100225091" lon="-2.440948002040386">
        <ele>889.36000000000001</ele>
        <time>2025-04-27T14:52:15Z</time>
      </trkpt>
      <trkpt lat="42.610253021121025" lon="-2.44117297232151">
        <ele>889.36000000000001</ele>
        <time>2025-04-27T14:52:16Z</time>
      </trkpt>
      <trkpt lat="42.61028503999114" lon="-2.441404983401299">
        <ele>890.32000000000005</ele>
        <time>2025-04-27T14:52:17Z</time>
      </trkpt>
      <trkpt lat="42.610317980870605" lon="-2.441635988652706">
        <ele>891.27999999999997</ele>
        <time>2025-04-27T14:52:18Z</time>
      </trkpt>
      <trkpt lat="42.610348993912339" lon="-2.441856013610959">
        <ele>892.24000000000001</ele>
        <time>2025-04-27T14:52:19Z</time>
      </trkpt>
      <trkpt lat="42.610616963356733" lon="-2.443410018458962">
        <ele>899.45000000000005</ele>
        <time>2025-04-27T14:52:26Z</time>
      </trkpt>
      <trkpt lat="42.610710002481937" lon="-2.44409297592938">
        <ele>902.82000000000005</ele>
        <time>2025-04-27T14:52:29Z</time>
      </trkpt>
      <trkpt lat="42.61069499887526" lon="-2.444306965917349">
        <ele>904.25999999999999</ele>
        <time>2025-04-27T14:52:30Z</time>
      </trkpt>
      <trkpt lat="42.610648982226849" lon="-2.444527996703982">
        <ele>905.70000000000005</ele>
        <time>2025-04-27T14:52:31Z</time>
      </trkpt>
      <trkpt lat="42.610581004992127" lon="-2.444757996127009">
        <ele>907.13999999999999</ele>
        <time>2025-04-27T14:52:32Z</time>
      </trkpt>
      <trkpt lat="42.610462987795472" lon="-2.444935021921992">
        <ele>908.10000000000002</ele>
        <time>2025-04-27T14:52:33Z</time>
      </trkpt>
      <trkpt lat="42.610315969213843" lon="-2.445121016353369">
        <ele>909.53999999999996</ele>
        <time>2025-04-27T14:52:34Z</time>
      </trkpt>
      <trkpt lat="42.610154030844569" lon="-2.445302987471223">
        <ele>910.50999999999999</ele>
        <time>2025-04-27T14:52:35Z</time>
      </trkpt>
      <trkpt lat="42.608924992382526" lon="-2.446833020076156">
        <ele>920.60000000000002</ele>
        <time>2025-04-27T14:52:43Z</time>
      </trkpt>
      <trkpt lat="42.608778979629278" lon="-2.447033012285829">
        <ele>921.55999999999995</ele>
        <time>2025-04-27T14:52:44Z</time>
      </trkpt>
      <trkpt lat="42.608727011829615" lon="-2.447188999503851">
        <ele>922.51999999999998</ele>
        <time>2025-04-27T14:52:45Z</time>
      </trkpt>
      <trkpt lat="42.608689041808248" lon="-2.447397960349917">
        <ele>923.48000000000002</ele>
        <time>2025-04-27T14:52:46Z</time>
      </trkpt>
      <trkpt lat="42.608683006837964" lon="-2.447585966438055">
        <ele>923.96000000000004</ele>
        <time>2025-04-27T14:52:47Z</time>
      </trkpt>
      <trkpt lat="42.608676971867681" lon="-2.447756035253406">
        <ele>924.92999999999995</ele>
        <time>2025-04-27T14:52:48Z</time>
      </trkpt>
      <trkpt lat="42.608672026544809" lon="-2.447913028299809">
        <ele>925.40999999999997</ele>
        <time>2025-04-27T14:52:49Z</time>
      </trkpt>
      <trkpt lat="42.608580999076366" lon="-2.448010006919503">
        <ele>925.40999999999997</ele>
        <time>2025-04-27T14:52:50Z</time>
      </trkpt>
      <trkpt lat="42.608471028506756" lon="-2.448128024116159">
        <ele>925.88999999999999</ele>
        <time>2025-04-27T14:52:51Z</time>
      </trkpt>
      <trkpt lat="42.608358040452003" lon="-2.448248974978924">
        <ele>925.88999999999999</ele>
        <time>2025-04-27T14:52:52Z</time>
      </trkpt>
      <trkpt lat="42.608248991891742" lon="-2.448365986347199">
        <ele>925.88999999999999</ele>
        <time>2025-04-27T14:52:53Z</time>
      </trkpt>
      <trkpt lat="42.608248991891742" lon="-2.448365986347199">
        <ele>925.88999999999999</ele>
        <time>2025-04-27T14:52:54Z</time>
      </trkpt>
      <trkpt lat="42.608043970540166" lon="-2.448654994368553">
        <ele>925.88999999999999</ele>
        <time>2025-04-27T14:52:55Z</time>
      </trkpt>
      <trkpt lat="42.607810031622648" lon="-2.449526963755488">
        <ele>923.48000000000002</ele>
        <time>2025-04-27T14:52:59Z</time>
      </trkpt>
      <trkpt lat="42.607731996104121" lon="-2.449745982885361">
        <ele>923</ele>
        <time>2025-04-27T14:53:00Z</time>
      </trkpt>
      <trkpt lat="42.607394959777594" lon="-2.450403040274978">
        <ele>922.03999999999996</ele>
        <time>2025-04-27T14:53:03Z</time>
      </trkpt>
      <trkpt lat="42.607309967279434" lon="-2.450658017769456">
        <ele>922.51999999999998</ele>
        <time>2025-04-27T14:53:04Z</time>
      </trkpt>
      <trkpt lat="42.607246013358235" lon="-2.450934033840895">
        <ele>922.51999999999998</ele>
        <time>2025-04-27T14:53:05Z</time>
      </trkpt>
      <trkpt lat="42.607219023630023" lon="-2.451218012720347">
        <ele>922.51999999999998</ele>
        <time>2025-04-27T14:53:06Z</time>
      </trkpt>
      <trkpt lat="42.607192033901811" lon="-2.451508026570082">
        <ele>922.51999999999998</ele>
        <time>2025-04-27T14:53:07Z</time>
      </trkpt>
      <trkpt lat="42.606951976194978" lon="-2.453495962545276">
        <ele>925.40999999999997</ele>
        <time>2025-04-27T14:53:14Z</time>
      </trkpt>
      <trkpt lat="42.606878969818354" lon="-2.453745994716883">
        <ele>925.40999999999997</ele>
        <time>2025-04-27T14:53:15Z</time>
      </trkpt>
      <trkpt lat="42.606772016733885" lon="-2.453990997746587">
        <ele>925.88999999999999</ele>
        <time>2025-04-27T14:53:16Z</time>
      </trkpt>
      <trkpt lat="42.606226019561291" lon="-2.45520000346005">
        <ele>929.25</ele>
        <time>2025-04-27T14:53:21Z</time>
      </trkpt>
      <trkpt lat="42.606097022071481" lon="-2.455399995669723">
        <ele>930.21000000000004</ele>
        <time>2025-04-27T14:53:22Z</time>
      </trkpt>
      <trkpt lat="42.605356983840466" lon="-2.456865990534425">
        <ele>937.41999999999996</ele>
        <time>2025-04-27T14:53:29Z</time>
      </trkpt>
      <trkpt lat="42.605182975530624" lon="-2.457468984648585">
        <ele>941.26999999999998</ele>
        <time>2025-04-27T14:53:32Z</time>
      </trkpt>
      <trkpt lat="42.605119021609426" lon="-2.457636035978794">
        <ele>942.23000000000002</ele>
        <time>2025-04-27T14:53:33Z</time>
      </trkpt>
      <trkpt lat="42.604746026918292" lon="-2.458471963182092">
        <ele>948.96000000000004</ele>
        <time>2025-04-27T14:53:40Z</time>
      </trkpt>
      <trkpt lat="42.604747032746673" lon="-2.458674972876906">
        <ele>950.39999999999998</ele>
        <time>2025-04-27T14:53:42Z</time>
      </trkpt>
      <trkpt lat="42.604768993332982" lon="-2.458783015608788">
        <ele>950.39999999999998</ele>
        <time>2025-04-27T14:53:43Z</time>
      </trkpt>
      <trkpt lat="42.604788020253181" lon="-2.458897009491921">
        <ele>950.88</ele>
        <time>2025-04-27T14:53:44Z</time>
      </trkpt>
      <trkpt lat="42.604788020253181" lon="-2.459008991718292">
        <ele>950.88</ele>
        <time>2025-04-27T14:53:45Z</time>
      </trkpt>
      <trkpt lat="42.604758013039827" lon="-2.459123991429806">
        <ele>950.88</ele>
        <time>2025-04-27T14:53:46Z</time>
      </trkpt>
      <trkpt lat="42.604725994169712" lon="-2.459230022504926">
        <ele>950.88</ele>
        <time>2025-04-27T14:53:47Z</time>
      </trkpt>
      <trkpt lat="42.604686012491584" lon="-2.459345022216439">
        <ele>951.36000000000001</ele>
        <time>2025-04-27T14:53:48Z</time>
      </trkpt>
      <trkpt lat="42.60463697835803" lon="-2.459459016099572">
        <ele>951.36000000000001</ele>
        <time>2025-04-27T14:53:49Z</time>
      </trkpt>
      <trkpt lat="42.604576963931322" lon="-2.459563035517931">
        <ele>951.36000000000001</ele>
        <time>2025-04-27T14:53:50Z</time>
      </trkpt>
      <trkpt lat="42.604520972818136" lon="-2.459672000259161">
        <ele>950.88</ele>
        <time>2025-04-27T14:53:51Z</time>
      </trkpt>
      <trkpt lat="42.604419970884919" lon="-2.459886996075511">
        <ele>950.88</ele>
        <time>2025-04-27T14:53:53Z</time>
      </trkpt>
      <trkpt lat="42.604379989206791" lon="-2.45997198857367">
        <ele>950.88</ele>
        <time>2025-04-27T14:53:54Z</time>
      </trkpt>
      <trkpt lat="42.604243028908968" lon="-2.460406003519893">
        <ele>949.91999999999996</ele>
        <time>2025-04-27T14:53:58Z</time>
      </trkpt>
      <trkpt lat="42.60420598089695" lon="-2.460526032373309">
        <ele>949.91999999999996</ele>
        <time>2025-04-27T14:53:59Z</time>
      </trkpt>
      <trkpt lat="42.604165999218822" lon="-2.46065896935761">
        <ele>949.44000000000005</ele>
        <time>2025-04-27T14:54:00Z</time>
      </trkpt>
      <trkpt lat="42.604070026427507" lon="-2.461241008713841">
        <ele>947.51999999999998</ele>
        <time>2025-04-27T14:54:05Z</time>
      </trkpt>
      <trkpt lat="42.604050999507308" lon="-2.461351985111833">
        <ele>947.51999999999998</ele>
        <time>2025-04-27T14:54:06Z</time>
      </trkpt>
      <trkpt lat="42.604118976742029" lon="-2.461643004789949">
        <ele>947.03999999999996</ele>
        <time>2025-04-27T14:54:08Z</time>
      </trkpt>
      <trkpt lat="42.604060973972082" lon="-2.461815001443029">
        <ele>947.51999999999998</ele>
        <time>2025-04-27T14:54:09Z</time>
      </trkpt>
      <trkpt lat="42.603986961767077" lon="-2.461992027238011">
        <ele>948</ele>
        <time>2025-04-27T14:54:10Z</time>
      </trkpt>
      <trkpt lat="42.60362402535975" lon="-2.46327898465097">
        <ele>949.91999999999996</ele>
        <time>2025-04-27T14:54:16Z</time>
      </trkpt>
      <trkpt lat="42.603612039238214" lon="-2.463504960760474">
        <ele>950.39999999999998</ele>
        <time>2025-04-27T14:54:17Z</time>
      </trkpt>
      <trkpt lat="42.603612961247563" lon="-2.463726997375488">
        <ele>950.88</ele>
        <time>2025-04-27T14:54:18Z</time>
      </trkpt>
      <trkpt lat="42.603628970682621" lon="-2.464069984853268">
        <ele>952.32000000000005</ele>
        <time>2025-04-27T14:54:20Z</time>
      </trkpt>
      <trkpt lat="42.603708012029529" lon="-2.464280035346746">
        <ele>952.79999999999995</ele>
        <time>2025-04-27T14:54:21Z</time>
      </trkpt>
      <trkpt lat="42.603757968172431" lon="-2.464413978159428">
        <ele>953.27999999999997</ele>
        <time>2025-04-27T14:54:22Z</time>
      </trkpt>
      <trkpt lat="42.60388302616775" lon="-2.464525038376451">
        <ele>953.76999999999998</ele>
        <time>2025-04-27T14:54:23Z</time>
      </trkpt>
      <trkpt lat="42.604005988687277" lon="-2.464634003117681">
        <ele>954.25</ele>
        <time>2025-04-27T14:54:24Z</time>
      </trkpt>
      <trkpt lat="42.604138003662229" lon="-2.464751014485955">
        <ele>954.73000000000002</ele>
        <time>2025-04-27T14:54:25Z</time>
      </trkpt>
      <trkpt lat="42.604273958131671" lon="-2.464871965348721">
        <ele>955.69000000000005</ele>
        <time>2025-04-27T14:54:26Z</time>
      </trkpt>
      <trkpt lat="42.604409996420145" lon="-2.465032981708646">
        <ele>956.16999999999996</ele>
        <time>2025-04-27T14:54:27Z</time>
      </trkpt>
      <trkpt lat="42.60452700778842" lon="-2.465221993625164">
        <ele>956.64999999999998</ele>
        <time>2025-04-27T14:54:28Z</time>
      </trkpt>
      <trkpt lat="42.604604037478566" lon="-2.465446041896939">
        <ele>957.61000000000001</ele>
        <time>2025-04-27T14:54:29Z</time>
      </trkpt>
      <trkpt lat="42.604667991399765" lon="-2.465658020228148">
        <ele>958.57000000000005</ele>
        <time>2025-04-27T14:54:30Z</time>
      </trkpt>
      <trkpt lat="42.604732029139996" lon="-2.465871004387736">
        <ele>959.52999999999997</ele>
        <time>2025-04-27T14:54:31Z</time>
      </trkpt>
      <trkpt lat="42.604767987504601" lon="-2.466122964397073">
        <ele>960.49000000000001</ele>
        <time>2025-04-27T14:54:32Z</time>
      </trkpt>
      <trkpt lat="42.604794977232814" lon="-2.466369979083538">
        <ele>960.98000000000002</ele>
        <time>2025-04-27T14:54:33Z</time>
      </trkpt>
      <trkpt lat="42.604822972789407" lon="-2.466627974063158">
        <ele>961.94000000000005</ele>
        <time>2025-04-27T14:54:34Z</time>
      </trkpt>
      <trkpt lat="42.605131007730961" lon="-2.468662010505796">
        <ele>967.22000000000003</ele>
        <time>2025-04-27T14:54:42Z</time>
      </trkpt>
      <trkpt lat="42.60521600022912" lon="-2.469004997983575">
        <ele>969.14999999999998</ele>
        <time>2025-04-27T14:54:44Z</time>
      </trkpt>
      <trkpt lat="42.60528196580708" lon="-2.469135001301765">
        <ele>970.11000000000001</ele>
        <time>2025-04-27T14:54:45Z</time>
      </trkpt>
      <trkpt lat="42.605347009375691" lon="-2.469262992963195">
        <ele>971.07000000000005</ele>
        <time>2025-04-27T14:54:46Z</time>
      </trkpt>
      <trkpt lat="42.605438958853483" lon="-2.46929400600493">
        <ele>972.50999999999999</ele>
        <time>2025-04-27T14:54:47Z</time>
      </trkpt>
      <trkpt lat="42.605542978271842" lon="-2.469328958541155">
        <ele>973.47000000000003</ele>
        <time>2025-04-27T14:54:48Z</time>
      </trkpt>
      <trkpt lat="42.606152007356286" lon="-2.46944596990943">
        <ele>975.38999999999999</ele>
        <time>2025-04-27T14:54:53Z</time>
      </trkpt>
      <trkpt lat="42.606250997632742" lon="-2.469511013478041">
        <ele>975.38999999999999</ele>
        <time>2025-04-27T14:54:54Z</time>
      </trkpt>
      <trkpt lat="42.606341019272804" lon="-2.469620984047651">
        <ele>975.38999999999999</ele>
        <time>2025-04-27T14:54:55Z</time>
      </trkpt>
      <trkpt lat="42.606341019272804" lon="-2.469620984047651">
        <ele>975.38999999999999</ele>
        <time>2025-04-27T14:54:56Z</time>
      </trkpt>
      <trkpt lat="42.606507986783981" lon="-2.469961037859321">
        <ele>975.38999999999999</ele>
        <time>2025-04-27T14:54:57Z</time>
      </trkpt>
      <trkpt lat="42.60659096762538" lon="-2.470157006755471">
        <ele>974.42999999999995</ele>
        <time>2025-04-27T14:54:58Z</time>
      </trkpt>
      <trkpt lat="42.606688030064106" lon="-2.470340989530087">
        <ele>972.99000000000001</ele>
        <time>2025-04-27T14:54:59Z</time>
      </trkpt>
      <trkpt lat="42.60686899535358" lon="-2.470657993108034">
        <ele>970.11000000000001</ele>
        <time>2025-04-27T14:55:01Z</time>
      </trkpt>
      <trkpt lat="42.607130007818341" lon="-2.470865026116371">
        <ele>966.25999999999999</ele>
        <time>2025-04-27T14:55:03Z</time>
      </trkpt>
      <trkpt lat="42.607263028621674" lon="-2.470969967544079">
        <ele>963.86000000000001</ele>
        <time>2025-04-27T14:55:04Z</time>
      </trkpt>
      <trkpt lat="42.607558993622661" lon="-2.471204996109009">
        <ele>958.09000000000003</ele>
        <time>2025-04-27T14:55:06Z</time>
      </trkpt>
      <trkpt lat="42.607854958623648" lon="-2.471437007188797">
        <ele>950.39999999999998</ele>
        <time>2025-04-27T14:55:08Z</time>
      </trkpt>
      <trkpt lat="42.607993008568883" lon="-2.471544966101646">
        <ele>946.07000000000005</ele>
        <time>2025-04-27T14:55:09Z</time>
      </trkpt>
      <trkpt lat="42.608000971376896" lon="-2.472400004044175">
        <ele>936.94000000000005</ele>
        <time>2025-04-27T14:55:11Z</time>
      </trkpt>
      <trkpt lat="42.608645958825946" lon="-2.473028982058168">
        <ele>919.63999999999999</ele>
        <time>2025-04-27T14:55:15Z</time>
      </trkpt>
      <trkpt lat="42.609193967655301" lon="-2.473771031945944">
        <ele>904.74000000000001</ele>
        <time>2025-04-27T14:55:19Z</time>
      </trkpt>
      <trkpt lat="42.609539972618222" lon="-2.474562032148242">
        <ele>893.67999999999995</ele>
        <time>2025-04-27T14:55:23Z</time>
      </trkpt>
      <trkpt lat="42.609951021149755" lon="-2.475468032062054">
        <ele>886.95000000000005</ele>
        <time>2025-04-27T14:55:28Z</time>
      </trkpt>
      <trkpt lat="42.610488971695304" lon="-2.475939011201263">
        <ele>882.14999999999998</ele>
        <time>2025-04-27T14:55:31Z</time>
      </trkpt>
      <trkpt lat="42.611036980524659" lon="-2.476332038640976">
        <ele>877.82000000000005</ele>
        <time>2025-04-27T14:55:34Z</time>
      </trkpt>
      <trkpt lat="42.612184965983033" lon="-2.477501984685659">
        <ele>869.16999999999996</ele>
        <time>2025-04-27T14:55:41Z</time>
      </trkpt>
      <trkpt lat="42.613342003896832" lon="-2.478709984570742">
        <ele>856.66999999999996</ele>
        <time>2025-04-27T14:55:48Z</time>
      </trkpt>
      <trkpt lat="42.613979028537869" lon="-2.479603998363018">
        <ele>848.98000000000002</ele>
        <time>2025-04-27T14:55:53Z</time>
      </trkpt>
      <trkpt lat="42.614486971870065" lon="-2.479540966451168">
        <ele>844.17999999999995</ele>
        <time>2025-04-27T14:55:56Z</time>
      </trkpt>
      <trkpt lat="42.614700961858034" lon="-2.479692008346319">
        <ele>842.73000000000002</ele>
        <time>2025-04-27T14:55:57Z</time>
      </trkpt>
      <trkpt lat="42.614700961858034" lon="-2.479692008346319">
        <ele>840.80999999999995</ele>
        <time>2025-04-27T14:55:58Z</time>
      </trkpt>
      <trkpt lat="42.61516397818923" lon="-2.479649009183049">
        <ele>836.96000000000004</ele>
        <time>2025-04-27T14:56:01Z</time>
      </trkpt>
      <trkpt lat="42.615433037281036" lon="-2.479600980877876">
        <ele>835.03999999999996</ele>
        <time>2025-04-27T14:56:03Z</time>
      </trkpt>
      <trkpt lat="42.615577960386872" lon="-2.479595029726625">
        <ele>834.08000000000004</ele>
        <time>2025-04-27T14:56:04Z</time>
      </trkpt>
      <trkpt lat="42.615838972851634" lon="-2.479598969221115">
        <ele>833.12</ele>
        <time>2025-04-27T14:56:05Z</time>
      </trkpt>
      <trkpt lat="42.617141017690301" lon="-2.480816021561623">
        <ele>826.87</ele>
        <time>2025-04-27T14:56:13Z</time>
      </trkpt>
      <trkpt lat="42.617597999051213" lon="-2.481264034286141">
        <ele>824.47000000000003</ele>
        <time>2025-04-27T14:56:16Z</time>
      </trkpt>
      <trkpt lat="42.617726996541023" lon="-2.481432007625699">
        <ele>823.50999999999999</ele>
        <time>2025-04-27T14:56:17Z</time>
      </trkpt>
      <trkpt lat="42.617859011515975" lon="-2.481604004278779">
        <ele>823.02999999999997</ele>
        <time>2025-04-27T14:56:18Z</time>
      </trkpt>
      <trkpt lat="42.617989014834166" lon="-2.481773989275098">
        <ele>822.05999999999995</ele>
        <time>2025-04-27T14:56:19Z</time>
      </trkpt>
      <trkpt lat="42.61810895986855" lon="-2.48192997649312">
        <ele>821.10000000000002</ele>
        <time>2025-04-27T14:56:20Z</time>
      </trkpt>
      <trkpt lat="42.618284979835153" lon="-2.482158970087767">
        <ele>820.13999999999999</ele>
        <time>2025-04-27T14:56:21Z</time>
      </trkpt>
      <trkpt lat="42.618355974555016" lon="-2.482193000614643">
        <ele>818.70000000000005</ele>
        <time>2025-04-27T14:56:22Z</time>
      </trkpt>
      <trkpt lat="42.618503998965025" lon="-2.482265001162887">
        <ele>818.22000000000003</ele>
        <time>2025-04-27T14:56:23Z</time>
      </trkpt>
      <trkpt lat="42.61864397674799" lon="-2.482331972569227">
        <ele>817.74000000000001</ele>
        <time>2025-04-27T14:56:24Z</time>
      </trkpt>
      <trkpt lat="42.618864001706243" lon="-2.482438003644347">
        <ele>816.77999999999997</ele>
        <time>2025-04-27T14:56:25Z</time>
      </trkpt>
      <trkpt lat="42.618932984769344" lon="-2.482545962557197">
        <ele>815.82000000000005</ele>
        <time>2025-04-27T14:56:26Z</time>
      </trkpt>
      <trkpt lat="42.619263986125588" lon="-2.48306798748672">
        <ele>812.92999999999995</ele>
        <time>2025-04-27T14:56:29Z</time>
      </trkpt>
      <trkpt lat="42.619421985000372" lon="-2.483318019658327">
        <ele>811.97000000000003</ele>
        <time>2025-04-27T14:56:30Z</time>
      </trkpt>
      <trkpt lat="42.619465989992023" lon="-2.483333023265004">
        <ele>811.00999999999999</ele>
        <time>2025-04-27T14:56:31Z</time>
      </trkpt>
      <trkpt lat="42.619583001360297" lon="-2.483370993286371">
        <ele>809.57000000000005</ele>
        <time>2025-04-27T14:56:32Z</time>
      </trkpt>
      <trkpt lat="42.619699006900191" lon="-2.483409969136119">
        <ele>808.61000000000001</ele>
        <time>2025-04-27T14:56:33Z</time>
      </trkpt>
      <trkpt lat="42.619817024096847" lon="-2.483450034633279">
        <ele>807.63999999999999</ele>
        <time>2025-04-27T14:56:34Z</time>
      </trkpt>
      <trkpt lat="42.620001006871462" lon="-2.483510971069336">
        <ele>806.67999999999995</ele>
        <time>2025-04-27T14:56:35Z</time>
      </trkpt>
      <trkpt lat="42.620059009641409" lon="-2.48358397744596">
        <ele>806.20000000000005</ele>
        <time>2025-04-27T14:56:36Z</time>
      </trkpt>
      <trkpt lat="42.620171997696161" lon="-2.483729990199208">
        <ele>805.72000000000003</ele>
        <time>2025-04-27T14:56:37Z</time>
      </trkpt>
      <trkpt lat="42.620302001014352" lon="-2.483897041529417">
        <ele>804.75999999999999</ele>
        <time>2025-04-27T14:56:38Z</time>
      </trkpt>
      <trkpt lat="42.620548009872437" lon="-2.484155958518386">
        <ele>803.79999999999995</ele>
        <time>2025-04-27T14:56:40Z</time>
      </trkpt>
      <trkpt lat="42.620709026232362" lon="-2.484326027333736">
        <ele>802.84000000000003</ele>
        <time>2025-04-27T14:56:41Z</time>
      </trkpt>
      <trkpt lat="42.620885968208313" lon="-2.484598020091653">
        <ele>800.91999999999996</ele>
        <time>2025-04-27T14:56:43Z</time>
      </trkpt>
      <trkpt lat="42.620989987626672" lon="-2.484757024794817">
        <ele>799.95000000000005</ele>
        <time>2025-04-27T14:56:44Z</time>
      </trkpt>
      <trkpt lat="42.621084032580256" lon="-2.484902031719685">
        <ele>799.47000000000003</ele>
        <time>2025-04-27T14:56:45Z</time>
      </trkpt>
      <trkpt lat="42.621166007593274" lon="-2.485029017552733">
        <ele>798.50999999999999</ele>
        <time>2025-04-27T14:56:46Z</time>
      </trkpt>
      <trkpt lat="42.621267009526491" lon="-2.485185004770756">
        <ele>798.02999999999997</ele>
        <time>2025-04-27T14:56:47Z</time>
      </trkpt>
      <trkpt lat="42.621288970112801" lon="-2.485283995047212">
        <ele>797.54999999999995</ele>
        <time>2025-04-27T14:56:48Z</time>
      </trkpt>
      <trkpt lat="42.621316965669394" lon="-2.485417015850544">
        <ele>796.59000000000003</ele>
        <time>2025-04-27T14:56:49Z</time>
      </trkpt>
      <trkpt lat="42.621346972882748" lon="-2.485555987805128">
        <ele>795.63</ele>
        <time>2025-04-27T14:56:50Z</time>
      </trkpt>
      <trkpt lat="42.62137396261096" lon="-2.485681967809796">
        <ele>795.14999999999998</ele>
        <time>2025-04-27T14:56:51Z</time>
      </trkpt>
      <trkpt lat="42.621403969824314" lon="-2.485792022198439">
        <ele>794.19000000000005</ele>
        <time>2025-04-27T14:56:52Z</time>
      </trkpt>
      <trkpt lat="42.62158895842731" lon="-2.485956978052855">
        <ele>793.71000000000004</ele>
        <time>2025-04-27T14:56:53Z</time>
      </trkpt>
      <trkpt lat="42.621960025280714" lon="-2.486129980534315">
        <ele>791.77999999999997</ele>
        <time>2025-04-27T14:56:56Z</time>
      </trkpt>
      <trkpt lat="42.622190024703741" lon="-2.486236011609435">
        <ele>790.82000000000005</ele>
        <time>2025-04-27T14:56:57Z</time>
      </trkpt>
      <trkpt lat="42.622266970574856" lon="-2.48633399605751">
        <ele>789.86000000000001</ele>
        <time>2025-04-27T14:56:58Z</time>
      </trkpt>
      <trkpt lat="42.622655974701047" lon="-2.486824002116919">
        <ele>786.5</ele>
        <time>2025-04-27T14:57:01Z</time>
      </trkpt>
      <trkpt lat="42.62332702986896" lon="-2.487973999232054">
        <ele>777.84000000000003</ele>
        <time>2025-04-27T14:57:08Z</time>
      </trkpt>
      <trkpt lat="42.623347984626889" lon="-2.48809302225709">
        <ele>776.88</ele>
        <time>2025-04-27T14:57:09Z</time>
      </trkpt>
      <trkpt lat="42.62339198961854" lon="-2.488339031115174">
        <ele>776.39999999999998</ele>
        <time>2025-04-27T14:57:10Z</time>
      </trkpt>
      <trkpt lat="42.623368017375469" lon="-2.488367026671767">
        <ele>775.91999999999996</ele>
        <time>2025-04-27T14:57:11Z</time>
      </trkpt>
      <trkpt lat="42.62326299212873" lon="-2.488488983362913">
        <ele>775.44000000000005</ele>
        <time>2025-04-27T14:57:12Z</time>
      </trkpt>
      <trkpt lat="42.623228039592505" lon="-2.488516978919506">
        <ele>775.44000000000005</ele>
        <time>2025-04-27T14:57:13Z</time>
      </trkpt>
      <trkpt lat="42.623152015730739" lon="-2.488576993346214">
        <ele>774.96000000000004</ele>
        <time>2025-04-27T14:57:14Z</time>
      </trkpt>
      <trkpt lat="42.62307196855545" lon="-2.488640025258064">
        <ele>774.48000000000002</ele>
        <time>2025-04-27T14:57:15Z</time>
      </trkpt>
      <trkpt lat="42.623015977442265" lon="-2.488684030249715">
        <ele>773.51999999999998</ele>
        <time>2025-04-27T14:57:16Z</time>
      </trkpt>
      <trkpt lat="42.622969038784504" lon="-2.488720994442701">
        <ele>772.55999999999995</ele>
        <time>2025-04-27T14:57:17Z</time>
      </trkpt>
      <trkpt lat="42.622937019914389" lon="-2.488746978342533">
        <ele>772.08000000000004</ele>
        <time>2025-04-27T14:57:18Z</time>
      </trkpt>
      <trkpt lat="42.622914975509048" lon="-2.488763993605971">
        <ele>770.63</ele>
        <time>2025-04-27T14:57:19Z</time>
      </trkpt>
      <trkpt lat="42.622854961082339" lon="-2.488811016082764">
        <ele>765.83000000000004</ele>
        <time>2025-04-27T14:57:24Z</time>
      </trkpt>
      <trkpt lat="42.622854961082339" lon="-2.488811016082764">
        <ele>763.89999999999998</ele>
        <time>2025-04-27T14:57:35Z</time>
      </trkpt>
      <trkpt lat="42.622854961082339" lon="-2.488811016082764">
        <ele>763.89999999999998</ele>
        <time>2025-04-27T14:57:59Z</time>
      </trkpt>
      <trkpt lat="42.622937019914389" lon="-2.489022994413972">
        <ele>828.30999999999995</ele>
        <time>2025-04-27T15:05:42Z</time>
      </trkpt>
      <trkpt lat="42.622850015759468" lon="-2.489046966657043">
        <ele>802.36000000000001</ele>
        <time>2025-04-27T15:06:16Z</time>
      </trkpt>
      <trkpt lat="42.6228759996593" lon="-2.489075968042016">
        <ele>800.91999999999996</ele>
        <time>2025-04-27T15:06:57Z</time>
      </trkpt>
      <trkpt lat="42.622871976345778" lon="-2.489092983305454">
        <ele>802.36000000000001</ele>
        <time>2025-04-27T15:07:12Z</time>
      </trkpt>
      <trkpt lat="42.622811961919069" lon="-2.489154003560543">
        <ele>802.36000000000001</ele>
        <time>2025-04-27T15:07:14Z</time>
      </trkpt>
      <trkpt lat="42.622864013537765" lon="-2.489236984401941">
        <ele>802.36000000000001</ele>
        <time>2025-04-27T15:07:15Z</time>
      </trkpt>
      <trkpt lat="42.622901983559132" lon="-2.48929800465703">
        <ele>802.36000000000001</ele>
        <time>2025-04-27T15:07:16Z</time>
      </trkpt>
      <trkpt lat="42.622966021299362" lon="-2.489373022690415">
        <ele>802.36000000000001</ele>
        <time>2025-04-27T15:07:17Z</time>
      </trkpt>
      <trkpt lat="42.623032992705703" lon="-2.489438988268375">
        <ele>802.36000000000001</ele>
        <time>2025-04-27T15:07:18Z</time>
      </trkpt>
      <trkpt lat="42.623121002689004" lon="-2.489474024623632">
        <ele>801.88</ele>
        <time>2025-04-27T15:07:19Z</time>
      </trkpt>
      <trkpt lat="42.623228039592505" lon="-2.489503026008606">
        <ele>801.39999999999998</ele>
        <time>2025-04-27T15:07:20Z</time>
      </trkpt>
      <trkpt lat="42.623605979606509" lon="-2.489603022113442">
        <ele>799.95000000000005</ele>
        <time>2025-04-27T15:07:23Z</time>
      </trkpt>
      <trkpt lat="42.623725002631545" lon="-2.489663036540151">
        <ele>799.47000000000003</ele>
        <time>2025-04-27T15:07:24Z</time>
      </trkpt>
      <trkpt lat="42.623832039535046" lon="-2.489779964089394">
        <ele>798.02999999999997</ele>
        <time>2025-04-27T15:07:25Z</time>
      </trkpt>
      <trkpt lat="42.624063966795802" lon="-2.490034019574523">
        <ele>794.19000000000005</ele>
        <time>2025-04-27T15:07:27Z</time>
      </trkpt>
      <trkpt lat="42.624173015356064" lon="-2.490173997357488">
        <ele>792.25999999999999</ele>
        <time>2025-04-27T15:07:28Z</time>
      </trkpt>
      <trkpt lat="42.624260019510984" lon="-2.490334007889032">
        <ele>790.34000000000003</ele>
        <time>2025-04-27T15:07:29Z</time>
      </trkpt>
      <trkpt lat="42.624348029494286" lon="-2.490494018420577">
        <ele>788.41999999999996</ele>
        <time>2025-04-27T15:07:30Z</time>
      </trkpt>
      <trkpt lat="42.624412989243865" lon="-2.490669032558799">
        <ele>786.5</ele>
        <time>2025-04-27T15:07:31Z</time>
      </trkpt>
      <trkpt lat="42.62446504086256" lon="-2.490852009505034">
        <ele>784.09000000000003</ele>
        <time>2025-04-27T15:07:32Z</time>
      </trkpt>
      <trkpt lat="42.624516002833843" lon="-2.491028029471636">
        <ele>783.13</ele>
        <time>2025-04-27T15:07:33Z</time>
      </trkpt>
      <trkpt lat="42.624564031139016" lon="-2.491352995857596">
        <ele>780.25</ele>
        <time>2025-04-27T15:07:35Z</time>
      </trkpt>
      <trkpt lat="42.624571993947029" lon="-2.491472018882632">
        <ele>778.80999999999995</ele>
        <time>2025-04-27T15:07:36Z</time>
      </trkpt>
      <trkpt lat="42.624514997005463" lon="-2.491614008322358">
        <ele>777.36000000000001</ele>
        <time>2025-04-27T15:07:37Z</time>
      </trkpt>
      <trkpt lat="42.624451965093613" lon="-2.491717021912336">
        <ele>775.91999999999996</ele>
        <time>2025-04-27T15:07:38Z</time>
      </trkpt>
      <trkpt lat="42.624361021444201" lon="-2.491803020238876">
        <ele>774.48000000000002</ele>
        <time>2025-04-27T15:07:39Z</time>
      </trkpt>
      <trkpt lat="42.624264964833856" lon="-2.491891030222178">
        <ele>773.51999999999998</ele>
        <time>2025-04-27T15:07:40Z</time>
      </trkpt>
      <trkpt lat="42.62418600730598" lon="-2.491964958608151">
        <ele>772.55999999999995</ele>
        <time>2025-04-27T15:07:41Z</time>
      </trkpt>
      <trkpt lat="42.624157005921006" lon="-2.492094961926341">
        <ele>771.11000000000001</ele>
        <time>2025-04-27T15:07:42Z</time>
      </trkpt>
      <trkpt lat="42.62414300814271" lon="-2.492157993838191">
        <ele>770.14999999999998</ele>
        <time>2025-04-27T15:07:43Z</time>
      </trkpt>
      <trkpt lat="42.624196987599134" lon="-2.492266958579421">
        <ele>769.19000000000005</ele>
        <time>2025-04-27T15:07:44Z</time>
      </trkpt>
      <trkpt lat="42.624250967055559" lon="-2.492375001311302">
        <ele>768.23000000000002</ele>
        <time>2025-04-27T15:07:45Z</time>
      </trkpt>
      <trkpt lat="42.62431500479579" lon="-2.492502992972732">
        <ele>766.78999999999996</ele>
        <time>2025-04-27T15:07:46Z</time>
      </trkpt>
      <trkpt lat="42.624356998130679" lon="-2.492674989625812">
        <ele>765.83000000000004</ele>
        <time>2025-04-27T15:07:47Z</time>
      </trkpt>
      <trkpt lat="42.624385999515653" lon="-2.492856038734317">
        <ele>764.87</ele>
        <time>2025-04-27T15:07:48Z</time>
      </trkpt>
      <trkpt lat="42.624418018385768" lon="-2.493055025115609">
        <ele>763.89999999999998</ele>
        <time>2025-04-27T15:07:49Z</time>
      </trkpt>
      <trkpt lat="42.62446403503418" lon="-2.493260968476534">
        <ele>762.94000000000005</ele>
        <time>2025-04-27T15:07:50Z</time>
      </trkpt>
      <trkpt lat="42.624548021703959" lon="-2.493469007313252">
        <ele>761.98000000000002</ele>
        <time>2025-04-27T15:07:51Z</time>
      </trkpt>
      <trkpt lat="42.62463997118175" lon="-2.493694983422756">
        <ele>761.01999999999998</ele>
        <time>2025-04-27T15:07:52Z</time>
      </trkpt>
      <trkpt lat="42.624732004478574" lon="-2.493921965360642">
        <ele>759.58000000000004</ele>
        <time>2025-04-27T15:07:53Z</time>
      </trkpt>
      <trkpt lat="42.624944988638163" lon="-2.494272999465466">
        <ele>757.65999999999997</ele>
        <time>2025-04-27T15:07:55Z</time>
      </trkpt>
      <trkpt lat="42.625049008056521" lon="-2.494421023875475">
        <ele>756.21000000000004</ele>
        <time>2025-04-27T15:07:56Z</time>
      </trkpt>
      <trkpt lat="42.62536701746285" lon="-2.494785971939564">
        <ele>753.80999999999995</ele>
        <time>2025-04-27T15:07:59Z</time>
      </trkpt>
      <trkpt lat="42.625462990254164" lon="-2.494912035763264">
        <ele>752.37</ele>
        <time>2025-04-27T15:08:00Z</time>
      </trkpt>
      <trkpt lat="42.625527027994394" lon="-2.495062993839383">
        <ele>751.88999999999999</ele>
        <time>2025-04-27T15:08:01Z</time>
      </trkpt>
      <trkpt lat="42.625735988840461" lon="-2.495562974363565">
        <ele>749</ele>
        <time>2025-04-27T15:08:04Z</time>
      </trkpt>
      <trkpt lat="42.625807989388704" lon="-2.495735976845026">
        <ele>748.03999999999996</ele>
        <time>2025-04-27T15:08:05Z</time>
      </trkpt>
      <trkpt lat="42.625904968008399" lon="-2.495861034840345">
        <ele>747.08000000000004</ele>
        <time>2025-04-27T15:08:06Z</time>
      </trkpt>
      <trkpt lat="42.626006975769997" lon="-2.495945021510124">
        <ele>745.63999999999999</ele>
        <time>2025-04-27T15:08:07Z</time>
      </trkpt>
      <trkpt lat="42.626107977703214" lon="-2.495985003188252">
        <ele>745.15999999999997</ele>
        <time>2025-04-27T15:08:08Z</time>
      </trkpt>
      <trkpt lat="42.626223983243108" lon="-2.495934963226318">
        <ele>744.20000000000005</ele>
        <time>2025-04-27T15:08:09Z</time>
      </trkpt>
      <trkpt lat="42.626307969912887" lon="-2.495843013748527">
        <ele>743.24000000000001</ele>
        <time>2025-04-27T15:08:10Z</time>
      </trkpt>
      <trkpt lat="42.626408971846104" lon="-2.495732959359884">
        <ele>742.27999999999997</ele>
        <time>2025-04-27T15:08:11Z</time>
      </trkpt>
      <trkpt lat="42.626503016799688" lon="-2.495602034032345">
        <ele>741.30999999999995</ele>
        <time>2025-04-27T15:08:12Z</time>
      </trkpt>
      <trkpt lat="42.626554984599352" lon="-2.495444035157561">
        <ele>740.35000000000002</ele>
        <time>2025-04-27T15:08:13Z</time>
      </trkpt>
      <trkpt lat="42.626566970720887" lon="-2.495333980768919">
        <ele>739.38999999999999</ele>
        <time>2025-04-27T15:08:14Z</time>
      </trkpt>
      <trkpt lat="42.626493964344263" lon="-2.495203977450728">
        <ele>738.42999999999995</ele>
        <time>2025-04-27T15:08:15Z</time>
      </trkpt>
      <trkpt lat="42.626425987109542" lon="-2.495082020759583">
        <ele>737.47000000000003</ele>
        <time>2025-04-27T15:08:16Z</time>
      </trkpt>
      <trkpt lat="42.626348035410047" lon="-2.494941037148237">
        <ele>736.50999999999999</ele>
        <time>2025-04-27T15:08:17Z</time>
      </trkpt>
      <trkpt lat="42.626260025426745" lon="-2.494783960282803">
        <ele>735.54999999999995</ele>
        <time>2025-04-27T15:08:18Z</time>
      </trkpt>
      <trkpt lat="42.626166986301541" lon="-2.494617998600006">
        <ele>734.58000000000004</ele>
        <time>2025-04-27T15:08:19Z</time>
      </trkpt>
      <trkpt lat="42.626093979924917" lon="-2.494437033310533">
        <ele>733.13999999999999</ele>
        <time>2025-04-27T15:08:20Z</time>
      </trkpt>
      <trkpt lat="42.625918965786695" lon="-2.493907967582345">
        <ele>729.77999999999997</ele>
        <time>2025-04-27T15:08:23Z</time>
      </trkpt>
      <trkpt lat="42.625886024907231" lon="-2.493771007284522">
        <ele>728.82000000000005</ele>
        <time>2025-04-27T15:08:24Z</time>
      </trkpt>
      <trkpt lat="42.625921983271837" lon="-2.493671011179686">
        <ele>727.86000000000001</ele>
        <time>2025-04-27T15:08:25Z</time>
      </trkpt>
      <trkpt lat="42.625975040718913" lon="-2.493574032559991">
        <ele>726.88999999999999</ele>
        <time>2025-04-27T15:08:26Z</time>
      </trkpt>
      <trkpt lat="42.626038994640112" lon="-2.493505971506238">
        <ele>725.92999999999995</ele>
        <time>2025-04-27T15:08:27Z</time>
      </trkpt>
      <trkpt lat="42.626139996573329" lon="-2.493491973727942">
        <ele>724.97000000000003</ele>
        <time>2025-04-27T15:08:28Z</time>
      </trkpt>
      <trkpt lat="42.626267988234758" lon="-2.49355198815465">
        <ele>724.49000000000001</ele>
        <time>2025-04-27T15:08:29Z</time>
      </trkpt>
      <trkpt lat="42.626417018473148" lon="-2.49363899230957">
        <ele>723.52999999999997</ele>
        <time>2025-04-27T15:08:30Z</time>
      </trkpt>
      <trkpt lat="42.626525983214378" lon="-2.493727002292872">
        <ele>722.57000000000005</ele>
        <time>2025-04-27T15:08:31Z</time>
      </trkpt>
      <trkpt lat="42.626766040921211" lon="-2.493923977017403">
        <ele>721.13</ele>
        <time>2025-04-27T15:08:33Z</time>
      </trkpt>
      <trkpt lat="42.626865031197667" lon="-2.494036965072155">
        <ele>720.15999999999997</ele>
        <time>2025-04-27T15:08:34Z</time>
      </trkpt>
      <trkpt lat="42.627135012298822" lon="-2.494362015277147">
        <ele>717.27999999999997</ele>
        <time>2025-04-27T15:08:37Z</time>
      </trkpt>
      <trkpt lat="42.627227967604995" lon="-2.494456982240081">
        <ele>716.32000000000005</ele>
        <time>2025-04-27T15:08:38Z</time>
      </trkpt>
      <trkpt lat="42.627333998680115" lon="-2.494471985846758">
        <ele>715.84000000000003</ele>
        <time>2025-04-27T15:08:39Z</time>
      </trkpt>
      <trkpt lat="42.627423014491796" lon="-2.494438039138913">
        <ele>714.88</ele>
        <time>2025-04-27T15:08:40Z</time>
      </trkpt>
      <trkpt lat="42.627532985061407" lon="-2.49436897225678">
        <ele>713.91999999999996</ele>
        <time>2025-04-27T15:08:41Z</time>
      </trkpt>
      <trkpt lat="42.627594005316496" lon="-2.494313986971974">
        <ele>712.95000000000005</ele>
        <time>2025-04-27T15:08:42Z</time>
      </trkpt>
      <trkpt lat="42.627687966451049" lon="-2.494231006130576">
        <ele>712.47000000000003</ele>
        <time>2025-04-27T15:08:43Z</time>
      </trkpt>
      <trkpt lat="42.627773964777589" lon="-2.494120029732585">
        <ele>711.50999999999999</ele>
        <time>2025-04-27T15:08:44Z</time>
      </trkpt>
      <trkpt lat="42.627842025831342" lon="-2.493984997272492">
        <ele>710.54999999999995</ele>
        <time>2025-04-27T15:08:45Z</time>
      </trkpt>
      <trkpt lat="42.627876978367567" lon="-2.493828004226089">
        <ele>710.07000000000005</ele>
        <time>2025-04-27T15:08:46Z</time>
      </trkpt>
      <trkpt lat="42.62790204025805" lon="-2.493662964552641">
        <ele>709.11000000000001</ele>
        <time>2025-04-27T15:08:47Z</time>
      </trkpt>
      <trkpt lat="42.62792500667274" lon="-2.493504965677857">
        <ele>708.14999999999998</ele>
        <time>2025-04-27T15:08:48Z</time>
      </trkpt>
      <trkpt lat="42.627963982522488" lon="-2.49336096458137">
        <ele>707.66999999999996</ele>
        <time>2025-04-27T15:08:49Z</time>
      </trkpt>
      <trkpt lat="42.628025002777576" lon="-2.49325099401176">
        <ele>706.71000000000004</ele>
        <time>2025-04-27T15:08:50Z</time>
      </trkpt>
      <trkpt lat="42.628089040517807" lon="-2.493204977363348">
        <ele>706.23000000000002</ele>
        <time>2025-04-27T15:08:51Z</time>
      </trkpt>
      <trkpt lat="42.628170009702444" lon="-2.493196008726955">
        <ele>705.75</ele>
        <time>2025-04-27T15:08:52Z</time>
      </trkpt>
      <trkpt lat="42.628241004422307" lon="-2.49318796209991">
        <ele>705.25999999999999</ele>
        <time>2025-04-27T15:08:53Z</time>
      </trkpt>
      <trkpt lat="42.628327002748847" lon="-2.493253005668521">
        <ele>705.25999999999999</ele>
        <time>2025-04-27T15:08:54Z</time>
      </trkpt>
      <trkpt lat="42.628366984426975" lon="-2.493333974853158">
        <ele>704.77999999999997</ele>
        <time>2025-04-27T15:08:55Z</time>
      </trkpt>
      <trkpt lat="42.628386011347175" lon="-2.493445035070181">
        <ele>704.29999999999995</ele>
        <time>2025-04-27T15:08:56Z</time>
      </trkpt>
      <trkpt lat="42.628376036882401" lon="-2.493570009246469">
        <ele>703.34000000000003</ele>
        <time>2025-04-27T15:08:57Z</time>
      </trkpt>
      <trkpt lat="42.628356004133821" lon="-2.493685008957982">
        <ele>702.86000000000001</ele>
        <time>2025-04-27T15:08:58Z</time>
      </trkpt>
      <trkpt lat="42.628322979435325" lon="-2.493795985355973">
        <ele>701.89999999999998</ele>
        <time>2025-04-27T15:08:59Z</time>
      </trkpt>
      <trkpt lat="42.628287021070719" lon="-2.493906039744616">
        <ele>701.41999999999996</ele>
        <time>2025-04-27T15:09:00Z</time>
      </trkpt>
      <trkpt lat="42.628223989158869" lon="-2.494081975892186">
        <ele>700.46000000000004</ele>
        <time>2025-04-27T15:09:02Z</time>
      </trkpt>
      <trkpt lat="42.628198005259037" lon="-2.49415397644043">
        <ele>699.98000000000002</ele>
        <time>2025-04-27T15:09:03Z</time>
      </trkpt>
      <trkpt lat="42.628176966682076" lon="-2.494291020557284">
        <ele>699.01999999999998</ele>
        <time>2025-04-27T15:09:05Z</time>
      </trkpt>
      <trkpt lat="42.628155006095767" lon="-2.49443300999701">
        <ele>699.01999999999998</ele>
        <time>2025-04-27T15:09:06Z</time>
      </trkpt>
      <trkpt lat="42.627804977819324" lon="-2.495496002957225">
        <ele>698.52999999999997</ele>
        <time>2025-04-27T15:09:14Z</time>
      </trkpt>
      <trkpt lat="42.627563998103142" lon="-2.496776003390551">
        <ele>699.98000000000002</ele>
        <time>2025-04-27T15:09:25Z</time>
      </trkpt>
      <trkpt lat="42.627512030303478" lon="-2.497094012796879">
        <ele>699.98000000000002</ele>
        <time>2025-04-27T15:09:28Z</time>
      </trkpt>
      <trkpt lat="42.627491997554898" lon="-2.497428031638265">
        <ele>700.46000000000004</ele>
        <time>2025-04-27T15:09:32Z</time>
      </trkpt>
      <trkpt lat="42.627498032525182" lon="-2.497530961409211">
        <ele>700.46000000000004</ele>
        <time>2025-04-27T15:09:33Z</time>
      </trkpt>
      <trkpt lat="42.627525022253394" lon="-2.497855005785823">
        <ele>700.46000000000004</ele>
        <time>2025-04-27T15:09:36Z</time>
      </trkpt>
      <trkpt lat="42.627567015588284" lon="-2.499222010374069">
        <ele>696.61000000000001</ele>
        <time>2025-04-27T15:09:48Z</time>
      </trkpt>
      <trkpt lat="42.627402981743217" lon="-2.500603012740612">
        <ele>688.91999999999996</ele>
        <time>2025-04-27T15:09:59Z</time>
      </trkpt>
      <trkpt lat="42.62734598480165" lon="-2.502367990091443">
        <ele>684.60000000000002</ele>
        <time>2025-04-27T15:10:11Z</time>
      </trkpt>
      <trkpt lat="42.627349002286792" lon="-2.504377970471978">
        <ele>679.78999999999996</ele>
        <time>2025-04-27T15:10:21Z</time>
      </trkpt>
      <trkpt lat="42.627433994784951" lon="-2.506648963317275">
        <ele>675.46000000000004</ele>
        <time>2025-04-27T15:10:31Z</time>
      </trkpt>
      <trkpt lat="42.62749501504004" lon="-2.507161013782024">
        <ele>674.01999999999998</ele>
        <time>2025-04-27T15:10:34Z</time>
      </trkpt>
      <trkpt lat="42.627528039738536" lon="-2.507304009050131">
        <ele>673.53999999999996</ele>
        <time>2025-04-27T15:10:35Z</time>
      </trkpt>
      <trkpt lat="42.627515969797969" lon="-2.50751699320972">
        <ele>673.05999999999995</ele>
        <time>2025-04-27T15:10:36Z</time>
      </trkpt>
      <trkpt lat="42.627424020320177" lon="-2.507635010406375">
        <ele>673.05999999999995</ele>
        <time>2025-04-27T15:10:37Z</time>
      </trkpt>
      <trkpt lat="42.627361994236708" lon="-2.50779896043241">
        <ele>673.05999999999995</ele>
        <time>2025-04-27T15:10:38Z</time>
      </trkpt>
      <trkpt lat="42.626609969884157" lon="-2.509817993268371">
        <ele>675.94000000000005</ele>
        <time>2025-04-27T15:10:48Z</time>
      </trkpt>
      <trkpt lat="42.625751998275518" lon="-2.512433985248208">
        <ele>680.75</ele>
        <time>2025-04-27T15:10:59Z</time>
      </trkpt>
      <trkpt lat="42.625115979462862" lon="-2.51505802385509">
        <ele>687.96000000000004</ele>
        <time>2025-04-27T15:11:10Z</time>
      </trkpt>
      <trkpt lat="42.625130983069539" lon="-2.515292968600988">
        <ele>687.96000000000004</ele>
        <time>2025-04-27T15:11:11Z</time>
      </trkpt>
      <trkpt lat="42.625147998332977" lon="-2.515537971630693">
        <ele>688.44000000000005</ele>
        <time>2025-04-27T15:11:12Z</time>
      </trkpt>
      <trkpt lat="42.625285964459181" lon="-2.51813099719584">
        <ele>691.33000000000004</ele>
        <time>2025-04-27T15:11:22Z</time>
      </trkpt>
      <trkpt lat="42.625537002459168" lon="-2.520495029166341">
        <ele>691.33000000000004</ele>
        <time>2025-04-27T15:11:31Z</time>
      </trkpt>
      <trkpt lat="42.625770019367337" lon="-2.52354403026402">
        <ele>690.36000000000001</ele>
        <time>2025-04-27T15:11:42Z</time>
      </trkpt>
      <trkpt lat="42.625639010220766" lon="-2.525912001729012">
        <ele>695.64999999999998</ele>
        <time>2025-04-27T15:11:51Z</time>
      </trkpt>
      <trkpt lat="42.62545301578939" lon="-2.529048006981611">
        <ele>697.57000000000005</ele>
        <time>2025-04-27T15:12:02Z</time>
      </trkpt>
      <trkpt lat="42.625231985002756" lon="-2.531243981793523">
        <ele>699.98000000000002</ele>
        <time>2025-04-27T15:12:10Z</time>
      </trkpt>
      <trkpt lat="42.625168031081557" lon="-2.531514968723059">
        <ele>699.5</ele>
        <time>2025-04-27T15:12:11Z</time>
      </trkpt>
      <trkpt lat="42.624489013105631" lon="-2.533925017341971">
        <ele>700.46000000000004</ele>
        <time>2025-04-27T15:12:21Z</time>
      </trkpt>
      <trkpt lat="42.624142002314329" lon="-2.535148020833731">
        <ele>705.25999999999999</ele>
        <time>2025-04-27T15:12:29Z</time>
      </trkpt>
      <trkpt lat="42.623960031196475" lon="-2.536426009610295">
        <ele>709.11000000000001</ele>
        <time>2025-04-27T15:12:38Z</time>
      </trkpt>
      <trkpt lat="42.623970005661249" lon="-2.537864008918405">
        <ele>705.75</ele>
        <time>2025-04-27T15:12:47Z</time>
      </trkpt>
      <trkpt lat="42.624233029782772" lon="-2.540035005658865">
        <ele>709.11000000000001</ele>
        <time>2025-04-27T15:13:01Z</time>
      </trkpt>
      <trkpt lat="42.624397985637188" lon="-2.542068958282471">
        <ele>709.59000000000003</ele>
        <time>2025-04-27T15:13:13Z</time>
      </trkpt>
      <trkpt lat="42.624566964805126" lon="-2.544195028021932">
        <ele>705.25999999999999</ele>
        <time>2025-04-27T15:13:22Z</time>
      </trkpt>
      <trkpt lat="42.624805010855198" lon="-2.547375038266182">
        <ele>698.52999999999997</ele>
        <time>2025-04-27T15:13:33Z</time>
      </trkpt>
      <trkpt lat="42.624943982809782" lon="-2.549737980589271">
        <ele>699.5</ele>
        <time>2025-04-27T15:13:42Z</time>
      </trkpt>
      <trkpt lat="42.624762011691928" lon="-2.551880981773138">
        <ele>701.89999999999998</ele>
        <time>2025-04-27T15:13:51Z</time>
      </trkpt>
      <trkpt lat="42.624376025050879" lon="-2.555390987545252">
        <ele>703.82000000000005</ele>
        <time>2025-04-27T15:14:05Z</time>
      </trkpt>
      <trkpt lat="42.62405700981617" lon="-2.559193018823862">
        <ele>704.77999999999997</ele>
        <time>2025-04-27T15:14:19Z</time>
      </trkpt>
      <trkpt lat="42.623914014548063" lon="-2.562759015709162">
        <ele>709.59000000000003</ele>
        <time>2025-04-27T15:14:33Z</time>
      </trkpt>
      <trkpt lat="42.623846037313342" lon="-2.56451703608036">
        <ele>715.36000000000001</ele>
        <time>2025-04-27T15:14:42Z</time>
      </trkpt>
      <trkpt lat="42.623785017058253" lon="-2.56593600846827">
        <ele>718.72000000000003</ele>
        <time>2025-04-27T15:14:51Z</time>
      </trkpt>
      <trkpt lat="42.62375601567328" lon="-2.568518975749612">
        <ele>720.64999999999998</ele>
        <time>2025-04-27T15:15:04Z</time>
      </trkpt>
      <trkpt lat="42.623786022886634" lon="-2.569648018106818">
        <ele>725.45000000000005</ele>
        <time>2025-04-27T15:15:10Z</time>
      </trkpt>
      <trkpt lat="42.623813012614846" lon="-2.569810962304473">
        <ele>726.88999999999999</ele>
        <time>2025-04-27T15:15:11Z</time>
      </trkpt>
      <trkpt lat="42.623894987627864" lon="-2.569948006421328">
        <ele>727.86000000000001</ele>
        <time>2025-04-27T15:15:12Z</time>
      </trkpt>
      <trkpt lat="42.624004958197474" lon="-2.57008396089077">
        <ele>728.82000000000005</ele>
        <time>2025-04-27T15:15:13Z</time>
      </trkpt>
      <trkpt lat="42.62412004172802" lon="-2.570224022492766">
        <ele>729.77999999999997</ele>
        <time>2025-04-27T15:15:14Z</time>
      </trkpt>
      <trkpt lat="42.624542992562056" lon="-2.570745963603258">
        <ele>733.13999999999999</ele>
        <time>2025-04-27T15:15:18Z</time>
      </trkpt>
      <trkpt lat="42.624632008373737" lon="-2.57085501216352">
        <ele>734.10000000000002</ele>
        <time>2025-04-27T15:15:19Z</time>
      </trkpt>
      <trkpt lat="42.624685987830162" lon="-2.571001024916768">
        <ele>734.58000000000004</ele>
        <time>2025-04-27T15:15:20Z</time>
      </trkpt>
      <trkpt lat="42.62472496367991" lon="-2.571153994649649">
        <ele>735.07000000000005</ele>
        <time>2025-04-27T15:15:21Z</time>
      </trkpt>
      <trkpt lat="42.624763017520308" lon="-2.571309981867671">
        <ele>735.54999999999995</ele>
        <time>2025-04-27T15:15:22Z</time>
      </trkpt>
      <trkpt lat="42.624802999198437" lon="-2.571466974914074">
        <ele>736.02999999999997</ele>
        <time>2025-04-27T15:15:23Z</time>
      </trkpt>
      <trkpt lat="42.625224022194743" lon="-2.573382994160056">
        <ele>728.34000000000003</ele>
        <time>2025-04-27T15:15:33Z</time>
      </trkpt>
      <trkpt lat="42.625557035207748" lon="-2.574755027890205">
        <ele>725.92999999999995</ele>
        <time>2025-04-27T15:15:39Z</time>
      </trkpt>
      <trkpt lat="42.625635992735624" lon="-2.574964994564652">
        <ele>726.88999999999999</ele>
        <time>2025-04-27T15:15:40Z</time>
      </trkpt>
      <trkpt lat="42.626147959381342" lon="-2.576441969722509">
        <ele>736.50999999999999</ele>
        <time>2025-04-27T15:15:48Z</time>
      </trkpt>
      <trkpt lat="42.626177966594696" lon="-2.576601980254054">
        <ele>737.47000000000003</ele>
        <time>2025-04-27T15:15:49Z</time>
      </trkpt>
      <trkpt lat="42.626231024041772" lon="-2.577652987092733">
        <ele>740.83000000000004</ele>
        <time>2025-04-27T15:15:57Z</time>
      </trkpt>
      <trkpt lat="42.62616497464478" lon="-2.578989984467626">
        <ele>744.67999999999995</ele>
        <time>2025-04-27T15:16:08Z</time>
      </trkpt>
      <trkpt lat="42.625902034342289" lon="-2.581162992864847">
        <ele>743.24000000000001</ele>
        <time>2025-04-27T15:16:25Z</time>
      </trkpt>
      <trkpt lat="42.625716961920261" lon="-2.582498984411359">
        <ele>735.54999999999995</ele>
        <time>2025-04-27T15:16:36Z</time>
      </trkpt>
      <trkpt lat="42.625686032697558" lon="-2.582837026566267">
        <ele>736.02999999999997</ele>
        <time>2025-04-27T15:16:39Z</time>
      </trkpt>
      <trkpt lat="42.625665999948978" lon="-2.583654010668397">
        <ele>735.54999999999995</ele>
        <time>2025-04-27T15:16:47Z</time>
      </trkpt>
      <trkpt lat="42.625665999948978" lon="-2.58372500538826">
        <ele>736.02999999999997</ele>
        <time>2025-04-27T15:16:48Z</time>
      </trkpt>
      <trkpt lat="42.625623000785708" lon="-2.584425983950496">
        <ele>737.47000000000003</ele>
        <time>2025-04-27T15:16:55Z</time>
      </trkpt>
      <trkpt lat="42.625534990802407" lon="-2.584797972813249">
        <ele>739.38999999999999</ele>
        <time>2025-04-27T15:16:59Z</time>
      </trkpt>
      <trkpt lat="42.625473970547318" lon="-2.584982039406896">
        <ele>740.35000000000002</ele>
        <time>2025-04-27T15:17:01Z</time>
      </trkpt>
      <trkpt lat="42.625429965555668" lon="-2.585081029683352">
        <ele>740.83000000000004</ele>
        <time>2025-04-27T15:17:02Z</time>
      </trkpt>
      <trkpt lat="42.625372968614101" lon="-2.585169961676002">
        <ele>740.83000000000004</ele>
        <time>2025-04-27T15:17:03Z</time>
      </trkpt>
      <trkpt lat="42.625129977241158" lon="-2.585540022701025">
        <ele>738.90999999999997</ele>
        <time>2025-04-27T15:17:07Z</time>
      </trkpt>
      <trkpt lat="42.625072980299592" lon="-2.585642030462623">
        <ele>738.90999999999997</ele>
        <time>2025-04-27T15:17:08Z</time>
      </trkpt>
      <trkpt lat="42.625029981136322" lon="-2.585758036002517">
        <ele>738.90999999999997</ele>
        <time>2025-04-27T15:17:09Z</time>
      </trkpt>
      <trkpt lat="42.624814985319972" lon="-2.586455997079611">
        <ele>737.95000000000005</ele>
        <time>2025-04-27T15:17:15Z</time>
      </trkpt>
      <trkpt lat="42.624783972278237" lon="-2.586707035079598">
        <ele>737.95000000000005</ele>
        <time>2025-04-27T15:17:17Z</time>
      </trkpt>
      <trkpt lat="42.624779026955366" lon="-2.586834020912647">
        <ele>737.95000000000005</ele>
        <time>2025-04-27T15:17:18Z</time>
      </trkpt>
      <trkpt lat="42.624798975884914" lon="-2.587706996127963">
        <ele>739.38999999999999</ele>
        <time>2025-04-27T15:17:24Z</time>
      </trkpt>
      <trkpt lat="42.625222010537982" lon="-2.58954799734056">
        <ele>740.83000000000004</ele>
        <time>2025-04-27T15:17:35Z</time>
      </trkpt>
      <trkpt lat="42.625865992158651" lon="-2.592070028185844">
        <ele>742.75999999999999</ele>
        <time>2025-04-27T15:17:47Z</time>
      </trkpt>
      <trkpt lat="42.626609969884157" lon="-2.594935968518257">
        <ele>747.08000000000004</ele>
        <time>2025-04-27T15:17:58Z</time>
      </trkpt>
      <trkpt lat="42.627137023955584" lon="-2.597007974982262">
        <ele>756.21000000000004</ele>
        <time>2025-04-27T15:18:06Z</time>
      </trkpt>
      <trkpt lat="42.627731971442699" lon="-2.599363960325718">
        <ele>764.38999999999999</ele>
        <time>2025-04-27T15:18:15Z</time>
      </trkpt>
      <trkpt lat="42.628361033275723" lon="-2.601812984794378">
        <ele>768.23000000000002</ele>
        <time>2025-04-27T15:18:25Z</time>
      </trkpt>
      <trkpt lat="42.629032004624605" lon="-2.60435102507472">
        <ele>777.36000000000001</ele>
        <time>2025-04-27T15:18:36Z</time>
      </trkpt>
      <trkpt lat="42.629142981022596" lon="-2.604721002280712">
        <ele>779.28999999999996</ele>
        <time>2025-04-27T15:18:38Z</time>
      </trkpt>
      <trkpt lat="42.629296034574509" lon="-2.605006992816925">
        <ele>781.21000000000004</ele>
        <time>2025-04-27T15:18:40Z</time>
      </trkpt>
      <trkpt lat="42.6294070109725" lon="-2.605106988921762">
        <ele>782.16999999999996</ele>
        <time>2025-04-27T15:18:41Z</time>
      </trkpt>
      <trkpt lat="42.62964203953743" lon="-2.605315027758479">
        <ele>784.57000000000005</ele>
        <time>2025-04-27T15:18:43Z</time>
      </trkpt>
      <trkpt lat="42.62973097153008" lon="-2.605461962521076">
        <ele>785.52999999999997</ele>
        <time>2025-04-27T15:18:44Z</time>
      </trkpt>
      <trkpt lat="42.629790985956788" lon="-2.605635970830917">
        <ele>786.01999999999998</ele>
        <time>2025-04-27T15:18:45Z</time>
      </trkpt>
      <trkpt lat="42.629810012876987" lon="-2.605821965262294">
        <ele>787.46000000000004</ele>
        <time>2025-04-27T15:18:46Z</time>
      </trkpt>
      <trkpt lat="42.629827028140426" lon="-2.606033021584153">
        <ele>788.41999999999996</ele>
        <time>2025-04-27T15:18:47Z</time>
      </trkpt>
      <trkpt lat="42.629808001220226" lon="-2.6062429882586">
        <ele>789.38</ele>
        <time>2025-04-27T15:18:48Z</time>
      </trkpt>
      <trkpt lat="42.629700964316726" lon="-2.608265960589051">
        <ele>795.14999999999998</ele>
        <time>2025-04-27T15:18:56Z</time>
      </trkpt>
      <trkpt lat="42.62985703535378" lon="-2.610091958194971">
        <ele>801.39999999999998</ele>
        <time>2025-04-27T15:19:03Z</time>
      </trkpt>
      <trkpt lat="42.629864998161793" lon="-2.610325980931521">
        <ele>802.84000000000003</ele>
        <time>2025-04-27T15:19:04Z</time>
      </trkpt>
      <trkpt lat="42.6298370026052" lon="-2.610571989789605">
        <ele>803.79999999999995</ele>
        <time>2025-04-27T15:19:05Z</time>
      </trkpt>
      <trkpt lat="42.629481023177505" lon="-2.612379966303706">
        <ele>811.49000000000001</ele>
        <time>2025-04-27T15:19:12Z</time>
      </trkpt>
      <trkpt lat="42.629009038209915" lon="-2.614239994436503">
        <ele>820.62</ele>
        <time>2025-04-27T15:19:20Z</time>
      </trkpt>
      <trkpt lat="42.628949023783207" lon="-2.614956982433796">
        <ele>823.50999999999999</ele>
        <time>2025-04-27T15:19:23Z</time>
      </trkpt>
      <trkpt lat="42.628974001854658" lon="-2.615186981856823">
        <ele>824.47000000000003</ele>
        <time>2025-04-27T15:19:24Z</time>
      </trkpt>
      <trkpt lat="42.629139041528106" lon="-2.617469038814306">
        <ele>833.12</ele>
        <time>2025-04-27T15:19:33Z</time>
      </trkpt>
      <trkpt lat="42.629148010164499" lon="-2.619868023321033">
        <ele>843.69000000000005</ele>
        <time>2025-04-27T15:19:42Z</time>
      </trkpt>
      <trkpt lat="42.629196038469672" lon="-2.620130963623524">
        <ele>844.65999999999997</ele>
        <time>2025-04-27T15:19:43Z</time>
      </trkpt>
      <trkpt lat="42.629259992390871" lon="-2.620388958603144">
        <ele>845.62</ele>
        <time>2025-04-27T15:19:44Z</time>
      </trkpt>
      <trkpt lat="42.629630975425243" lon="-2.621835004538298">
        <ele>851.38</ele>
        <time>2025-04-27T15:19:50Z</time>
      </trkpt>
      <trkpt lat="42.629727032035589" lon="-2.622010018676519">
        <ele>852.35000000000002</ele>
        <time>2025-04-27T15:19:51Z</time>
      </trkpt>
      <trkpt lat="42.629818981513381" lon="-2.622178997844458">
        <ele>853.30999999999995</ele>
        <time>2025-04-27T15:19:52Z</time>
      </trkpt>
      <trkpt lat="42.629910008981824" lon="-2.622344037517905">
        <ele>854.26999999999998</ele>
        <time>2025-04-27T15:19:53Z</time>
      </trkpt>
      <trkpt lat="42.629991983994842" lon="-2.622517962008715">
        <ele>854.75</ele>
        <time>2025-04-27T15:19:54Z</time>
      </trkpt>
      <trkpt lat="42.630044035613537" lon="-2.622706973925233">
        <ele>855.71000000000004</ele>
        <time>2025-04-27T15:19:55Z</time>
      </trkpt>
      <trkpt lat="42.630067002028227" lon="-2.622937979176641">
        <ele>856.19000000000005</ele>
        <time>2025-04-27T15:19:56Z</time>
      </trkpt>
      <trkpt lat="42.630089968442917" lon="-2.623164961114526">
        <ele>856.66999999999996</ele>
        <time>2025-04-27T15:19:57Z</time>
      </trkpt>
      <trkpt lat="42.630388028919697" lon="-2.625456992536783">
        <ele>860.51999999999998</ele>
        <time>2025-04-27T15:20:06Z</time>
      </trkpt>
      <trkpt lat="42.630721963942051" lon="-2.627801997587085">
        <ele>862.44000000000005</ele>
        <time>2025-04-27T15:20:15Z</time>
      </trkpt>
      <trkpt lat="42.630816008895636" lon="-2.628306001424789">
        <ele>863.39999999999998</ele>
        <time>2025-04-27T15:20:17Z</time>
      </trkpt>
      <trkpt lat="42.630816008895636" lon="-2.628561984747648">
        <ele>863.39999999999998</ele>
        <time>2025-04-27T15:20:18Z</time>
      </trkpt>
      <trkpt lat="42.630805028602481" lon="-2.628818973898888">
        <ele>863.88</ele>
        <time>2025-04-27T15:20:19Z</time>
      </trkpt>
      <trkpt lat="42.630776027217507" lon="-2.629075963050127">
        <ele>864.36000000000001</ele>
        <time>2025-04-27T15:20:20Z</time>
      </trkpt>
      <trkpt lat="42.63071802444756" lon="-2.629331024363637">
        <ele>865.32000000000005</ele>
        <time>2025-04-27T15:20:21Z</time>
      </trkpt>
      <trkpt lat="42.630655998364091" lon="-2.629588013514876">
        <ele>865.79999999999995</ele>
        <time>2025-04-27T15:20:22Z</time>
      </trkpt>
      <trkpt lat="42.63056798838079" lon="-2.629837961867452">
        <ele>866.76999999999998</ele>
        <time>2025-04-27T15:20:23Z</time>
      </trkpt>
      <trkpt lat="42.630472015589476" lon="-2.630087994039059">
        <ele>867.73000000000002</ele>
        <time>2025-04-27T15:20:24Z</time>
      </trkpt>
      <trkpt lat="42.629876984283328" lon="-2.631547031924129">
        <ele>871.57000000000005</ele>
        <time>2025-04-27T15:20:30Z</time>
      </trkpt>
      <trkpt lat="42.628951035439968" lon="-2.633096007630229">
        <ele>870.13</ele>
        <time>2025-04-27T15:20:37Z</time>
      </trkpt>
      <trkpt lat="42.628842992708087" lon="-2.633322989568114">
        <ele>869.64999999999998</ele>
        <time>2025-04-27T15:20:38Z</time>
      </trkpt>
      <trkpt lat="42.628781972452998" lon="-2.633566986769438">
        <ele>869.16999999999996</ele>
        <time>2025-04-27T15:20:39Z</time>
      </trkpt>
      <trkpt lat="42.62872003018856" lon="-2.633814001455903">
        <ele>868.21000000000004</ele>
        <time>2025-04-27T15:20:40Z</time>
      </trkpt>
      <trkpt lat="42.628692034631968" lon="-2.634081970900297">
        <ele>867.25</ele>
        <time>2025-04-27T15:20:41Z</time>
      </trkpt>
      <trkpt lat="42.628692034631968" lon="-2.6343650277704">
        <ele>866.76999999999998</ele>
        <time>2025-04-27T15:20:42Z</time>
      </trkpt>
      <trkpt lat="42.628724975511432" lon="-2.634640038013458">
        <ele>865.32000000000005</ele>
        <time>2025-04-27T15:20:43Z</time>
      </trkpt>
      <trkpt lat="42.628764035180211" lon="-2.634913958609104">
        <ele>864.36000000000001</ele>
        <time>2025-04-27T15:20:44Z</time>
      </trkpt>
      <trkpt lat="42.628880962729454" lon="-2.635745024308562">
        <ele>860.51999999999998</ele>
        <time>2025-04-27T15:20:47Z</time>
      </trkpt>
      <trkpt lat="42.628865959122777" lon="-2.636038977652788">
        <ele>859.08000000000004</ele>
        <time>2025-04-27T15:20:48Z</time>
      </trkpt>
      <trkpt lat="42.628845004364848" lon="-2.636325974017382">
        <ele>857.63</ele>
        <time>2025-04-27T15:20:49Z</time>
      </trkpt>
      <trkpt lat="42.628804016858339" lon="-2.636601990088821">
        <ele>855.71000000000004</ele>
        <time>2025-04-27T15:20:50Z</time>
      </trkpt>
      <trkpt lat="42.628760011866689" lon="-2.636867025867105">
        <ele>854.26999999999998</ele>
        <time>2025-04-27T15:20:51Z</time>
      </trkpt>
      <trkpt lat="42.628651969134808" lon="-2.637882996350527">
        <ele>849.46000000000004</ele>
        <time>2025-04-27T15:20:55Z</time>
      </trkpt>
      <trkpt lat="42.628679964691401" lon="-2.638140991330147">
        <ele>848.5</ele>
        <time>2025-04-27T15:20:56Z</time>
      </trkpt>
      <trkpt lat="42.62872003018856" lon="-2.63840502128005">
        <ele>847.05999999999995</ele>
        <time>2025-04-27T15:20:57Z</time>
      </trkpt>
      <trkpt lat="42.628812985494733" lon="-2.638927968218923">
        <ele>845.13999999999999</ele>
        <time>2025-04-27T15:20:59Z</time>
      </trkpt>
      <trkpt lat="42.628811979666352" lon="-2.639167020097375">
        <ele>843.69000000000005</ele>
        <time>2025-04-27T15:21:00Z</time>
      </trkpt>
      <trkpt lat="42.628802005201578" lon="-2.639396013692021">
        <ele>842.73000000000002</ele>
        <time>2025-04-27T15:21:01Z</time>
      </trkpt>
      <trkpt lat="42.628739979118109" lon="-2.639584019780159">
        <ele>841.76999999999998</ele>
        <time>2025-04-27T15:21:02Z</time>
      </trkpt>
      <trkpt lat="42.628647023811936" lon="-2.639768002554774">
        <ele>840.33000000000004</ele>
        <time>2025-04-27T15:21:03Z</time>
      </trkpt>
      <trkpt lat="42.628525989130139" lon="-2.63990898616612">
        <ele>838.88999999999999</ele>
        <time>2025-04-27T15:21:04Z</time>
      </trkpt>
      <trkpt lat="42.628379976376891" lon="-2.640008982270956">
        <ele>837.92999999999995</ele>
        <time>2025-04-27T15:21:05Z</time>
      </trkpt>
      <trkpt lat="42.628206973895431" lon="-2.640074025839567">
        <ele>836.48000000000002</ele>
        <time>2025-04-27T15:21:06Z</time>
      </trkpt>
      <trkpt lat="42.628029026091099" lon="-2.640142003074288">
        <ele>835.51999999999998</ele>
        <time>2025-04-27T15:21:07Z</time>
      </trkpt>
      <trkpt lat="42.626725975424051" lon="-2.6407699752599">
        <ele>830.72000000000003</ele>
        <time>2025-04-27T15:21:14Z</time>
      </trkpt>
      <trkpt lat="42.626197999343276" lon="-2.640974996611476">
        <ele>829.26999999999998</ele>
        <time>2025-04-27T15:21:17Z</time>
      </trkpt>
      <trkpt lat="42.626052992418408" lon="-2.641095025464892">
        <ele>828.30999999999995</ele>
        <time>2025-04-27T15:21:18Z</time>
      </trkpt>
      <trkpt lat="42.625923994928598" lon="-2.641225028783083">
        <ele>828.30999999999995</ele>
        <time>2025-04-27T15:21:19Z</time>
      </trkpt>
      <trkpt lat="42.625845959410071" lon="-2.64141496270895">
        <ele>827.35000000000002</ele>
        <time>2025-04-27T15:21:20Z</time>
      </trkpt>
      <trkpt lat="42.625764990225434" lon="-2.641613027080894">
        <ele>826.87</ele>
        <time>2025-04-27T15:21:21Z</time>
      </trkpt>
      <trkpt lat="42.625682009384036" lon="-2.641819976270199">
        <ele>826.38999999999999</ele>
        <time>2025-04-27T15:21:22Z</time>
      </trkpt>
      <trkpt lat="42.625188985839486" lon="-2.643256969749928">
        <ele>822.54999999999995</ele>
        <time>2025-04-27T15:21:29Z</time>
      </trkpt>
      <trkpt lat="42.625170964747667" lon="-2.643457967787981">
        <ele>822.05999999999995</ele>
        <time>2025-04-27T15:21:30Z</time>
      </trkpt>
      <trkpt lat="42.625151015818119" lon="-2.643671035766602">
        <ele>822.05999999999995</ele>
        <time>2025-04-27T15:21:31Z</time>
      </trkpt>
      <trkpt lat="42.625151015818119" lon="-2.643887959420681">
        <ele>821.58000000000004</ele>
        <time>2025-04-27T15:21:32Z</time>
      </trkpt>
      <trkpt lat="42.625200971961021" lon="-2.644117958843708">
        <ele>821.58000000000004</ele>
        <time>2025-04-27T15:21:33Z</time>
      </trkpt>
      <trkpt lat="42.625259980559349" lon="-2.644341001287103">
        <ele>821.58000000000004</ele>
        <time>2025-04-27T15:21:34Z</time>
      </trkpt>
      <trkpt lat="42.625644961372018" lon="-2.645902968943119">
        <ele>821.58000000000004</ele>
        <time>2025-04-27T15:21:41Z</time>
      </trkpt>
      <trkpt lat="42.625638004392385" lon="-2.646129028871656">
        <ele>821.58000000000004</ele>
        <time>2025-04-27T15:21:42Z</time>
      </trkpt>
      <trkpt lat="42.625630963593721" lon="-2.646349975839257">
        <ele>821.58000000000004</ele>
        <time>2025-04-27T15:21:43Z</time>
      </trkpt>
      <trkpt lat="42.625623000785708" lon="-2.64658902771771">
        <ele>821.58000000000004</ele>
        <time>2025-04-27T15:21:44Z</time>
      </trkpt>
      <trkpt lat="42.625584024935961" lon="-2.646796982735395">
        <ele>822.05999999999995</ele>
        <time>2025-04-27T15:21:45Z</time>
      </trkpt>
      <trkpt lat="42.625336004421115" lon="-2.648109002038837">
        <ele>824.95000000000005</ele>
        <time>2025-04-27T15:21:51Z</time>
      </trkpt>
      <trkpt lat="42.625078009441495" lon="-2.650346970185638">
        <ele>831.67999999999995</ele>
        <time>2025-04-27T15:22:00Z</time>
      </trkpt>
      <trkpt lat="42.624957980588078" lon="-2.651160014793277">
        <ele>833.60000000000002</ele>
        <time>2025-04-27T15:22:03Z</time>
      </trkpt>
      <trkpt lat="42.624964015558362" lon="-2.651419015601277">
        <ele>834.08000000000004</ele>
        <time>2025-04-27T15:22:04Z</time>
      </trkpt>
      <trkpt lat="42.624948006123304" lon="-2.652227031067014">
        <ele>836</ele>
        <time>2025-04-27T15:22:07Z</time>
      </trkpt>
      <trkpt lat="42.62489796616137" lon="-2.652482008561492">
        <ele>836.96000000000004</ele>
        <time>2025-04-27T15:22:08Z</time>
      </trkpt>
      <trkpt lat="42.624818002805114" lon="-2.652727011591196">
        <ele>837.45000000000005</ele>
        <time>2025-04-27T15:22:09Z</time>
      </trkpt>
      <trkpt lat="42.624354986473918" lon="-2.654446978121996">
        <ele>841.76999999999998</ele>
        <time>2025-04-27T15:22:16Z</time>
      </trkpt>
      <trkpt lat="42.62433897703886" lon="-2.654716037213802">
        <ele>842.25</ele>
        <time>2025-04-27T15:22:17Z</time>
      </trkpt>
      <trkpt lat="42.624270999804139" lon="-2.656637001782656">
        <ele>847.53999999999996</ele>
        <time>2025-04-27T15:22:24Z</time>
      </trkpt>
      <trkpt lat="42.624290026724339" lon="-2.656902959570289">
        <ele>848.01999999999998</ele>
        <time>2025-04-27T15:22:25Z</time>
      </trkpt>
      <trkpt lat="42.624330008402467" lon="-2.657165983691812">
        <ele>848.5</ele>
        <time>2025-04-27T15:22:26Z</time>
      </trkpt>
      <trkpt lat="42.624404020607471" lon="-2.657652972266078">
        <ele>849.46000000000004</ele>
        <time>2025-04-27T15:22:28Z</time>
      </trkpt>
      <trkpt lat="42.624404020607471" lon="-2.657872997224331">
        <ele>849.94000000000005</ele>
        <time>2025-04-27T15:22:29Z</time>
      </trkpt>
      <trkpt lat="42.624367978423834" lon="-2.658088998869062">
        <ele>849.94000000000005</ele>
        <time>2025-04-27T15:22:30Z</time>
      </trkpt>
      <trkpt lat="42.624325985088944" lon="-2.658312041312456">
        <ele>850.89999999999998</ele>
        <time>2025-04-27T15:22:31Z</time>
      </trkpt>
      <trkpt lat="42.624248033389449" lon="-2.658533994108439">
        <ele>850.89999999999998</ele>
        <time>2025-04-27T15:22:32Z</time>
      </trkpt>
      <trkpt lat="42.623774036765099" lon="-2.659949027001858">
        <ele>855.71000000000004</ele>
        <time>2025-04-27T15:22:38Z</time>
      </trkpt>
      <trkpt lat="42.623730031773448" lon="-2.660198975354433">
        <ele>856.66999999999996</ele>
        <time>2025-04-27T15:22:39Z</time>
      </trkpt>
      <trkpt lat="42.623712010681629" lon="-2.660463005304337">
        <ele>857.63</ele>
        <time>2025-04-27T15:22:40Z</time>
      </trkpt>
      <trkpt lat="42.623674962669611" lon="-2.660992993041873">
        <ele>859.55999999999995</ele>
        <time>2025-04-27T15:22:42Z</time>
      </trkpt>
      <trkpt lat="42.62360698543489" lon="-2.661254005506635">
        <ele>860.03999999999996</ele>
        <time>2025-04-27T15:22:43Z</time>
      </trkpt>
      <trkpt lat="42.623526016250253" lon="-2.661509988829494">
        <ele>860.51999999999998</ele>
        <time>2025-04-27T15:22:44Z</time>
      </trkpt>
      <trkpt lat="42.623446974903345" lon="-2.661762032657862">
        <ele>860.51999999999998</ele>
        <time>2025-04-27T15:22:45Z</time>
      </trkpt>
      <trkpt lat="42.62336902320385" lon="-2.662010975182056">
        <ele>860.51999999999998</ele>
        <time>2025-04-27T15:22:46Z</time>
      </trkpt>
      <trkpt lat="42.623078003525734" lon="-2.663004985079169">
        <ele>861.48000000000002</ele>
        <time>2025-04-27T15:22:50Z</time>
      </trkpt>
      <trkpt lat="42.62302603572607" lon="-2.663238001987338">
        <ele>861.96000000000004</ele>
        <time>2025-04-27T15:22:51Z</time>
      </trkpt>
      <trkpt lat="42.62300600297749" lon="-2.663766983896494">
        <ele>862.44000000000005</ele>
        <time>2025-04-27T15:22:53Z</time>
      </trkpt>
      <trkpt lat="42.623146986588836" lon="-2.665331969037652">
        <ele>866.28999999999996</ele>
        <time>2025-04-27T15:22:59Z</time>
      </trkpt>
      <trkpt lat="42.62328403070569" lon="-2.666341988369823">
        <ele>869.16999999999996</ele>
        <time>2025-04-27T15:23:03Z</time>
      </trkpt>
      <trkpt lat="42.623462984338403" lon="-2.667285036295652">
        <ele>870.61000000000001</ele>
        <time>2025-04-27T15:23:07Z</time>
      </trkpt>
      <trkpt lat="42.623525010421872" lon="-2.667486034333706">
        <ele>870.61000000000001</ele>
        <time>2025-04-27T15:23:08Z</time>
      </trkpt>
      <trkpt lat="42.623598016798496" lon="-2.667675968259573">
        <ele>871.57000000000005</ele>
        <time>2025-04-27T15:23:09Z</time>
      </trkpt>
      <trkpt lat="42.623701030388474" lon="-2.667861962690949">
        <ele>872.04999999999995</ele>
        <time>2025-04-27T15:23:10Z</time>
      </trkpt>
      <trkpt lat="42.623828016221523" lon="-2.667990038171411">
        <ele>872.52999999999997</ele>
        <time>2025-04-27T15:23:11Z</time>
      </trkpt>
      <trkpt lat="42.623981991782784" lon="-2.668089028447866">
        <ele>873.5</ele>
        <time>2025-04-27T15:23:12Z</time>
      </trkpt>
      <trkpt lat="42.624149965122342" lon="-2.668178966268897">
        <ele>874.46000000000004</ele>
        <time>2025-04-27T15:23:13Z</time>
      </trkpt>
      <trkpt lat="42.624320033937693" lon="-2.668270999565721">
        <ele>874.94000000000005</ele>
        <time>2025-04-27T15:23:14Z</time>
      </trkpt>
      <trkpt lat="42.624646006152034" lon="-2.668445007875562">
        <ele>875.89999999999998</ele>
        <time>2025-04-27T15:23:16Z</time>
      </trkpt>
      <trkpt lat="42.624794030562043" lon="-2.668553972616792">
        <ele>875.41999999999996</ele>
        <time>2025-04-27T15:23:17Z</time>
      </trkpt>
      <trkpt lat="42.624914981424809" lon="-2.668691016733646">
        <ele>874.46000000000004</ele>
        <time>2025-04-27T15:23:18Z</time>
      </trkpt>
      <trkpt lat="42.624998968094587" lon="-2.668907018378377">
        <ele>873.5</ele>
        <time>2025-04-27T15:23:19Z</time>
      </trkpt>
      <trkpt lat="42.625078009441495" lon="-2.669126959517598">
        <ele>872.04999999999995</ele>
        <time>2025-04-27T15:23:20Z</time>
      </trkpt>
      <trkpt lat="42.625140035524964" lon="-2.669373974204063">
        <ele>870.61000000000001</ele>
        <time>2025-04-27T15:23:21Z</time>
      </trkpt>
      <trkpt lat="42.625212036073208" lon="-2.66962300054729">
        <ele>869.16999999999996</ele>
        <time>2025-04-27T15:23:22Z</time>
      </trkpt>
      <trkpt lat="42.625429965555668" lon="-2.670278968289495">
        <ele>863.39999999999998</ele>
        <time>2025-04-27T15:23:25Z</time>
      </trkpt>
      <trkpt lat="42.625577989965677" lon="-2.670476026833057">
        <ele>861.96000000000004</ele>
        <time>2025-04-27T15:23:26Z</time>
      </trkpt>
      <trkpt lat="42.625705981627107" lon="-2.67063301987946">
        <ele>861</ele>
        <time>2025-04-27T15:23:27Z</time>
      </trkpt>
      <trkpt lat="42.625876972451806" lon="-2.670737961307168">
        <ele>859.55999999999995</ele>
        <time>2025-04-27T15:23:28Z</time>
      </trkpt>
      <trkpt lat="42.626049974933267" lon="-2.670818008482456">
        <ele>858.59000000000003</ele>
        <time>2025-04-27T15:23:29Z</time>
      </trkpt>
      <trkpt lat="42.626240998506546" lon="-2.670873999595642">
        <ele>857.63</ele>
        <time>2025-04-27T15:23:30Z</time>
      </trkpt>
      <trkpt lat="42.626430010423064" lon="-2.670929990708828">
        <ele>856.19000000000005</ele>
        <time>2025-04-27T15:23:31Z</time>
      </trkpt>
      <trkpt lat="42.626609969884157" lon="-2.670982964336872">
        <ele>854.75</ele>
        <time>2025-04-27T15:23:32Z</time>
      </trkpt>
      <trkpt lat="42.626782972365618" lon="-2.671101987361908">
        <ele>853.30999999999995</ele>
        <time>2025-04-27T15:23:33Z</time>
      </trkpt>
      <trkpt lat="42.626918004825711" lon="-2.671246994286776">
        <ele>850.89999999999998</ele>
        <time>2025-04-27T15:23:34Z</time>
      </trkpt>
      <trkpt lat="42.627015989273787" lon="-2.671440029516816">
        <ele>848.98000000000002</ele>
        <time>2025-04-27T15:23:35Z</time>
      </trkpt>
      <trkpt lat="42.627082038670778" lon="-2.671645972877741">
        <ele>847.53999999999996</ele>
        <time>2025-04-27T15:23:36Z</time>
      </trkpt>
      <trkpt lat="42.627103999257088" lon="-2.671876978129149">
        <ele>846.10000000000002</ele>
        <time>2025-04-27T15:23:37Z</time>
      </trkpt>
      <trkpt lat="42.627099975943565" lon="-2.672122986987233">
        <ele>844.65999999999997</ele>
        <time>2025-04-27T15:23:38Z</time>
      </trkpt>
      <trkpt lat="42.627077009528875" lon="-2.672376958653331">
        <ele>843.21000000000004</ele>
        <time>2025-04-27T15:23:39Z</time>
      </trkpt>
      <trkpt lat="42.627053037285805" lon="-2.672638976946473">
        <ele>841.76999999999998</ele>
        <time>2025-04-27T15:23:40Z</time>
      </trkpt>
      <trkpt lat="42.627035016193986" lon="-2.673777993768454">
        <ele>836.48000000000002</ele>
        <time>2025-04-27T15:23:44Z</time>
      </trkpt>
      <trkpt lat="42.627050019800663" lon="-2.674067001789808">
        <ele>835.51999999999998</ele>
        <time>2025-04-27T15:23:45Z</time>
      </trkpt>
      <trkpt lat="42.627090001478791" lon="-2.674361960962415">
        <ele>834.55999999999995</ele>
        <time>2025-04-27T15:23:46Z</time>
      </trkpt>
      <trkpt lat="42.627209024503827" lon="-2.675236025825143">
        <ele>830.72000000000003</ele>
        <time>2025-04-27T15:23:49Z</time>
      </trkpt>
      <trkpt lat="42.627220004796982" lon="-2.675522016361356">
        <ele>829.26999999999998</ele>
        <time>2025-04-27T15:23:50Z</time>
      </trkpt>
      <trkpt lat="42.627187985926867" lon="-2.675802977755666">
        <ele>827.35000000000002</ele>
        <time>2025-04-27T15:23:51Z</time>
      </trkpt>
      <trkpt lat="42.627129983156919" lon="-2.676073964685202">
        <ele>825.42999999999995</ele>
        <time>2025-04-27T15:23:52Z</time>
      </trkpt>
      <trkpt lat="42.627073992043734" lon="-2.676337994635105">
        <ele>823.50999999999999</ele>
        <time>2025-04-27T15:23:53Z</time>
      </trkpt>
      <trkpt lat="42.626977013424039" lon="-2.676829006522894">
        <ele>821.10000000000002</ele>
        <time>2025-04-27T15:23:55Z</time>
      </trkpt>
      <trkpt lat="42.626996040344238" lon="-2.677089013159275">
        <ele>819.65999999999997</ele>
        <time>2025-04-27T15:23:56Z</time>
      </trkpt>
      <trkpt lat="42.627050019800663" lon="-2.677329992875457">
        <ele>818.22000000000003</ele>
        <time>2025-04-27T15:23:57Z</time>
      </trkpt>
      <trkpt lat="42.627127971500158" lon="-2.677552029490471">
        <ele>816.29999999999995</ele>
        <time>2025-04-27T15:23:58Z</time>
      </trkpt>
      <trkpt lat="42.627243977040052" lon="-2.677770964801312">
        <ele>814.85000000000002</ele>
        <time>2025-04-27T15:23:59Z</time>
      </trkpt>
      <trkpt lat="42.627380015328526" lon="-2.677955031394959">
        <ele>813.40999999999997</ele>
        <time>2025-04-27T15:24:00Z</time>
      </trkpt>
      <trkpt lat="42.627512030303478" lon="-2.678111018612981">
        <ele>811.97000000000003</ele>
        <time>2025-04-27T15:24:01Z</time>
      </trkpt>
      <trkpt lat="42.627714034169912" lon="-2.678257031366229">
        <ele>810.52999999999997</ele>
        <time>2025-04-27T15:24:02Z</time>
      </trkpt>
      <trkpt lat="42.627899022772908" lon="-2.67839097417891">
        <ele>808.61000000000001</ele>
        <time>2025-04-27T15:24:03Z</time>
      </trkpt>
      <trkpt lat="42.629230991005898" lon="-2.679069992154837">
        <ele>798.02999999999997</ele>
        <time>2025-04-27T15:24:10Z</time>
      </trkpt>
      <trkpt lat="42.629958037286997" lon="-2.679407028481364">
        <ele>793.71000000000004</ele>
        <time>2025-04-27T15:24:14Z</time>
      </trkpt>
      <trkpt lat="42.630088962614536" lon="-2.679573995992541">
        <ele>792.74000000000001</ele>
        <time>2025-04-27T15:24:15Z</time>
      </trkpt>
      <trkpt lat="42.630209997296333" lon="-2.679754961282015">
        <ele>792.25999999999999</ele>
        <time>2025-04-27T15:24:16Z</time>
      </trkpt>
      <trkpt lat="42.630278980359435" lon="-2.679969035089016">
        <ele>791.77999999999997</ele>
        <time>2025-04-27T15:24:17Z</time>
      </trkpt>
      <trkpt lat="42.630349975079298" lon="-2.680198028683662">
        <ele>791.77999999999997</ele>
        <time>2025-04-27T15:24:18Z</time>
      </trkpt>
      <trkpt lat="42.630406972020864" lon="-2.680432973429561">
        <ele>791.29999999999995</ele>
        <time>2025-04-27T15:24:19Z</time>
      </trkpt>
      <trkpt lat="42.63039599172771" lon="-2.680692980065942">
        <ele>790.82000000000005</ele>
        <time>2025-04-27T15:24:20Z</time>
      </trkpt>
      <trkpt lat="42.630387023091316" lon="-2.680943012237549">
        <ele>790.34000000000003</ele>
        <time>2025-04-27T15:24:21Z</time>
      </trkpt>
      <trkpt lat="42.630324997007847" lon="-2.68122598528862">
        <ele>788.89999999999998</ele>
        <time>2025-04-27T15:24:22Z</time>
      </trkpt>
      <trkpt lat="42.630263976752758" lon="-2.681506024673581">
        <ele>787.94000000000005</ele>
        <time>2025-04-27T15:24:23Z</time>
      </trkpt>
      <trkpt lat="42.629786040633917" lon="-2.683798978105187">
        <ele>777.84000000000003</ele>
        <time>2025-04-27T15:24:31Z</time>
      </trkpt>
      <trkpt lat="42.629786040633917" lon="-2.684072982519865">
        <ele>776.39999999999998</ele>
        <time>2025-04-27T15:24:32Z</time>
      </trkpt>
      <trkpt lat="42.629820993170142" lon="-2.684345981106162">
        <ele>774.96000000000004</ele>
        <time>2025-04-27T15:24:33Z</time>
      </trkpt>
      <trkpt lat="42.629898022860289" lon="-2.684590984135866">
        <ele>774</ele>
        <time>2025-04-27T15:24:34Z</time>
      </trkpt>
      <trkpt lat="42.62998603284359" lon="-2.684829030185938">
        <ele>772.55999999999995</ele>
        <time>2025-04-27T15:24:35Z</time>
      </trkpt>
      <trkpt lat="42.630114024505019" lon="-2.685038996860385">
        <ele>771.11000000000001</ele>
        <time>2025-04-27T15:24:36Z</time>
      </trkpt>
      <trkpt lat="42.630276968702674" lon="-2.685204036533833">
        <ele>770.14999999999998</ele>
        <time>2025-04-27T15:24:37Z</time>
      </trkpt>
      <trkpt lat="42.630445025861263" lon="-2.685363963246346">
        <ele>769.66999999999996</ele>
        <time>2025-04-27T15:24:38Z</time>
      </trkpt>
      <trkpt lat="42.630612999200821" lon="-2.685524979606271">
        <ele>768.71000000000004</ele>
        <time>2025-04-27T15:24:39Z</time>
      </trkpt>
      <trkpt lat="42.631079033017159" lon="-2.686020014807582">
        <ele>768.23000000000002</ele>
        <time>2025-04-27T15:24:42Z</time>
      </trkpt>
      <trkpt lat="42.631197972223163" lon="-2.686226963996887">
        <ele>768.71000000000004</ele>
        <time>2025-04-27T15:24:43Z</time>
      </trkpt>
      <trkpt lat="42.631310960277915" lon="-2.68642402254045">
        <ele>768.23000000000002</ele>
        <time>2025-04-27T15:24:44Z</time>
      </trkpt>
      <trkpt lat="42.631394024938345" lon="-2.686636000871658">
        <ele>768.23000000000002</ele>
        <time>2025-04-27T15:24:45Z</time>
      </trkpt>
      <trkpt lat="42.631469964981079" lon="-2.68685300834477">
        <ele>768.23000000000002</ele>
        <time>2025-04-27T15:24:46Z</time>
      </trkpt>
      <trkpt lat="42.631546994671226" lon="-2.687073033303022">
        <ele>767.75</ele>
        <time>2025-04-27T15:24:47Z</time>
      </trkpt>
      <trkpt lat="42.631624024361372" lon="-2.687290962785482">
        <ele>767.26999999999998</ele>
        <time>2025-04-27T15:24:48Z</time>
      </trkpt>
      <trkpt lat="42.631700970232487" lon="-2.687509981915355">
        <ele>766.30999999999995</ele>
        <time>2025-04-27T15:24:49Z</time>
      </trkpt>
      <trkpt lat="42.631820999085903" lon="-2.687712991610169">
        <ele>765.35000000000002</ele>
        <time>2025-04-27T15:24:50Z</time>
      </trkpt>
      <trkpt lat="42.631971035152674" lon="-2.687891023233533">
        <ele>764.38999999999999</ele>
        <time>2025-04-27T15:24:51Z</time>
      </trkpt>
      <trkpt lat="42.632145965471864" lon="-2.688040975481272">
        <ele>763.89999999999998</ele>
        <time>2025-04-27T15:24:52Z</time>
      </trkpt>
      <trkpt lat="42.632325002923608" lon="-2.688193023204804">
        <ele>762.94000000000005</ele>
        <time>2025-04-27T15:24:53Z</time>
      </trkpt>
      <trkpt lat="42.633683038875461" lon="-2.689638985320926">
        <ele>752.37</ele>
        <time>2025-04-27T15:25:01Z</time>
      </trkpt>
      <trkpt lat="42.634172039106488" lon="-2.690194034948945">
        <ele>747.55999999999995</ele>
        <time>2025-04-27T15:25:04Z</time>
      </trkpt>
      <trkpt lat="42.634345963597298" lon="-2.690354967489839">
        <ele>746.12</ele>
        <time>2025-04-27T15:25:05Z</time>
      </trkpt>
      <trkpt lat="42.634528018534184" lon="-2.690492011606693">
        <ele>744.67999999999995</ele>
        <time>2025-04-27T15:25:06Z</time>
      </trkpt>
      <trkpt lat="42.635911032557487" lon="-2.691091988235712">
        <ele>739.87</ele>
        <time>2025-04-27T15:25:13Z</time>
      </trkpt>
      <trkpt lat="42.637003026902676" lon="-2.691578976809979">
        <ele>739.87</ele>
        <time>2025-04-27T15:25:19Z</time>
      </trkpt>
      <trkpt lat="42.637144010514021" lon="-2.691727001219988">
        <ele>739.87</ele>
        <time>2025-04-27T15:25:20Z</time>
      </trkpt>
      <trkpt lat="42.637284994125366" lon="-2.69188298843801">
        <ele>739.87</ele>
        <time>2025-04-27T15:25:21Z</time>
      </trkpt>
      <trkpt lat="42.63742103241384" lon="-2.69205397926271">
        <ele>739.87</ele>
        <time>2025-04-27T15:25:22Z</time>
      </trkpt>
      <trkpt lat="42.637512981891632" lon="-2.692285990342498">
        <ele>739.87</ele>
        <time>2025-04-27T15:25:23Z</time>
      </trkpt>
      <trkpt lat="42.637587999925017" lon="-2.692534010857344">
        <ele>739.87</ele>
        <time>2025-04-27T15:25:24Z</time>
      </trkpt>
      <trkpt lat="42.637665029615164" lon="-2.692787982523441">
        <ele>739.38999999999999</ele>
        <time>2025-04-27T15:25:25Z</time>
      </trkpt>
      <trkpt lat="42.638696003705263" lon="-2.696378035470843">
        <ele>742.75999999999999</ele>
        <time>2025-04-27T15:25:39Z</time>
      </trkpt>
      <trkpt lat="42.63873397372663" lon="-2.696606023237109">
        <ele>742.75999999999999</ele>
        <time>2025-04-27T15:25:40Z</time>
      </trkpt>
      <trkpt lat="42.638708995655179" lon="-2.69682202488184">
        <ele>742.75999999999999</ele>
        <time>2025-04-27T15:25:41Z</time>
      </trkpt>
      <trkpt lat="42.638684017583728" lon="-2.697042971849442">
        <ele>742.27999999999997</ele>
        <time>2025-04-27T15:25:42Z</time>
      </trkpt>
      <trkpt lat="42.638617968186736" lon="-2.697250004857779">
        <ele>741.78999999999996</ele>
        <time>2025-04-27T15:25:43Z</time>
      </trkpt>
      <trkpt lat="42.638503974303603" lon="-2.697441028431058">
        <ele>741.78999999999996</ele>
        <time>2025-04-27T15:25:44Z</time>
      </trkpt>
      <trkpt lat="42.638363996520638" lon="-2.69761897623539">
        <ele>741.30999999999995</ele>
        <time>2025-04-27T15:25:45Z</time>
      </trkpt>
      <trkpt lat="42.638215972110629" lon="-2.697792984545231">
        <ele>740.35000000000002</ele>
        <time>2025-04-27T15:25:46Z</time>
      </trkpt>
      <trkpt lat="42.637935010716319" lon="-2.698145024478436">
        <ele>738.90999999999997</ele>
        <time>2025-04-27T15:25:48Z</time>
      </trkpt>
      <trkpt lat="42.637816993519664" lon="-2.698334958404303">
        <ele>738.42999999999995</ele>
        <time>2025-04-27T15:25:49Z</time>
      </trkpt>
      <trkpt lat="42.637769971042871" lon="-2.698579039424658">
        <ele>737.95000000000005</ele>
        <time>2025-04-27T15:25:50Z</time>
      </trkpt>
      <trkpt lat="42.637752033770084" lon="-2.698834016919136">
        <ele>737.47000000000003</ele>
        <time>2025-04-27T15:25:51Z</time>
      </trkpt>
      <trkpt lat="42.637763014063239" lon="-2.699108021333814">
        <ele>737.47000000000003</ele>
        <time>2025-04-27T15:25:52Z</time>
      </trkpt>
      <trkpt lat="42.637800984084606" lon="-2.699394011870027">
        <ele>737.47000000000003</ele>
        <time>2025-04-27T15:25:53Z</time>
      </trkpt>
      <trkpt lat="42.637864015996456" lon="-2.699682014063001">
        <ele>737.95000000000005</ele>
        <time>2025-04-27T15:25:54Z</time>
      </trkpt>
      <trkpt lat="42.638428034260869" lon="-2.702094996348023">
        <ele>740.35000000000002</ele>
        <time>2025-04-27T15:26:03Z</time>
      </trkpt>
      <trkpt lat="42.639349959790707" lon="-2.70479497499764">
        <ele>742.27999999999997</ele>
        <time>2025-04-27T15:26:14Z</time>
      </trkpt>
      <trkpt lat="42.640539016574621" lon="-2.707192031666637">
        <ele>749.49000000000001</ele>
        <time>2025-04-27T15:26:25Z</time>
      </trkpt>
      <trkpt lat="42.641275031492114" lon="-2.70919899456203">
        <ele>749</ele>
        <time>2025-04-27T15:26:34Z</time>
      </trkpt>
      <trkpt lat="42.641722960397601" lon="-2.710539009422064">
        <ele>745.63999999999999</ele>
        <time>2025-04-27T15:26:42Z</time>
      </trkpt>
      <trkpt lat="42.641780041158199" lon="-2.71070396527648">
        <ele>743.72000000000003</ele>
        <time>2025-04-27T15:26:48Z</time>
      </trkpt>
      <trkpt lat="42.641790015622973" lon="-2.710734978318214">
        <ele>742.75999999999999</ele>
        <time>2025-04-27T15:27:05Z</time>
      </trkpt>
      <trkpt lat="42.641794960945845" lon="-2.710749981924892">
        <ele>742.75999999999999</ele>
        <time>2025-04-27T15:27:06Z</time>
      </trkpt>
      <trkpt lat="42.641803007572889" lon="-2.710772026330233">
        <ele>742.75999999999999</ele>
        <time>2025-04-27T15:27:07Z</time>
      </trkpt>
      <trkpt lat="42.641812982037663" lon="-2.710803039371967">
        <ele>742.27999999999997</ele>
        <time>2025-04-27T15:27:08Z</time>
      </trkpt>
      <trkpt lat="42.641800995916128" lon="-2.710859030485153">
        <ele>741.78999999999996</ele>
        <time>2025-04-27T15:27:09Z</time>
      </trkpt>
      <trkpt lat="42.641756990924478" lon="-2.710909992456436">
        <ele>741.78999999999996</ele>
        <time>2025-04-27T15:27:10Z</time>
      </trkpt>
      <trkpt lat="42.641695970669389" lon="-2.710978975519538">
        <ele>741.78999999999996</ele>
        <time>2025-04-27T15:27:11Z</time>
      </trkpt>
      <trkpt lat="42.641622964292765" lon="-2.711061034351587">
        <ele>741.30999999999995</ele>
        <time>2025-04-27T15:27:12Z</time>
      </trkpt>
      <trkpt lat="42.641539983451366" lon="-2.711156001314521">
        <ele>740.83000000000004</ele>
        <time>2025-04-27T15:27:13Z</time>
      </trkpt>
      <trkpt lat="42.640684023499489" lon="-2.711964016780257">
        <ele>738.90999999999997</ele>
        <time>2025-04-27T15:27:20Z</time>
      </trkpt>
      <trkpt lat="42.640174990519881" lon="-2.712455028668046">
        <ele>738.90999999999997</ele>
        <time>2025-04-27T15:27:24Z</time>
      </trkpt>
      <trkpt lat="42.64010701328516" lon="-2.712529040873051">
        <ele>738.90999999999997</ele>
        <time>2025-04-27T15:27:25Z</time>
      </trkpt>
      <trkpt lat="42.640096032992005" lon="-2.712669018656015">
        <ele>738.90999999999997</ele>
        <time>2025-04-27T15:27:26Z</time>
      </trkpt>
      <trkpt lat="42.640088992193341" lon="-2.712793992832303">
        <ele>738.42999999999995</ele>
        <time>2025-04-27T15:27:27Z</time>
      </trkpt>
      <trkpt lat="42.640134003013372" lon="-2.712919972836971">
        <ele>737.95000000000005</ele>
        <time>2025-04-27T15:27:28Z</time>
      </trkpt>
      <trkpt lat="42.640184964984655" lon="-2.713064979761839">
        <ele>737.95000000000005</ele>
        <time>2025-04-27T15:27:29Z</time>
      </trkpt>
      <trkpt lat="42.640830036252737" lon="-2.714093020185828">
        <ele>732.65999999999997</ele>
        <time>2025-04-27T15:27:37Z</time>
      </trkpt>
      <trkpt lat="42.640939000993967" lon="-2.714228974655271">
        <ele>731.22000000000003</ele>
        <time>2025-04-27T15:27:39Z</time>
      </trkpt>
      <trkpt lat="42.640977976843715" lon="-2.714318996295333">
        <ele>730.25999999999999</ele>
        <time>2025-04-27T15:27:40Z</time>
      </trkpt>
      <trkpt lat="42.640951992943883" lon="-2.71439996547997">
        <ele>729.77999999999997</ele>
        <time>2025-04-27T15:27:41Z</time>
      </trkpt>
      <trkpt lat="42.640919974073768" lon="-2.71450599655509">
        <ele>729.29999999999995</ele>
        <time>2025-04-27T15:27:42Z</time>
      </trkpt>
      <trkpt lat="42.640862977132201" lon="-2.714617978781462">
        <ele>728.82000000000005</ele>
        <time>2025-04-27T15:27:43Z</time>
      </trkpt>
      <trkpt lat="42.640773961320519" lon="-2.714737001806498">
        <ele>728.34000000000003</ele>
        <time>2025-04-27T15:27:44Z</time>
      </trkpt>
      <trkpt lat="42.640663990750909" lon="-2.714858958497644">
        <ele>727.37</ele>
        <time>2025-04-27T15:27:45Z</time>
      </trkpt>
      <trkpt lat="42.640534993261099" lon="-2.714959038421512">
        <ele>727.37</ele>
        <time>2025-04-27T15:27:46Z</time>
      </trkpt>
      <trkpt lat="42.639166982844472" lon="-2.715994035825133">
        <ele>726.40999999999997</ele>
        <time>2025-04-27T15:27:56Z</time>
      </trkpt>
      <trkpt lat="42.637484986335039" lon="-2.717305971309543">
        <ele>731.70000000000005</ele>
        <time>2025-04-27T15:28:07Z</time>
      </trkpt>
      <trkpt lat="42.636120999231935" lon="-2.718334011733532">
        <ele>742.27999999999997</ele>
        <time>2025-04-27T15:28:17Z</time>
      </trkpt>
      <trkpt lat="42.635980015620589" lon="-2.718365024775267">
        <ele>743.72000000000003</ele>
        <time>2025-04-27T15:28:18Z</time>
      </trkpt>
      <trkpt lat="42.63583199121058" lon="-2.718363013118506">
        <ele>744.67999999999995</ele>
        <time>2025-04-27T15:28:19Z</time>
      </trkpt>
      <trkpt lat="42.634658021852374" lon="-2.71835002116859">
        <ele>753.33000000000004</ele>
        <time>2025-04-27T15:28:26Z</time>
      </trkpt>
      <trkpt lat="42.634488958865404" lon="-2.718349015340209">
        <ele>754.28999999999996</ele>
        <time>2025-04-27T15:28:27Z</time>
      </trkpt>
      <trkpt lat="42.634056033566594" lon="-2.718343986198306">
        <ele>757.17999999999995</ele>
        <time>2025-04-27T15:28:30Z</time>
      </trkpt>
      <trkpt lat="42.633943967521191" lon="-2.718444988131523">
        <ele>758.13999999999999</ele>
        <time>2025-04-27T15:28:31Z</time>
      </trkpt>
      <trkpt lat="42.633826034143567" lon="-2.718553030863404">
        <ele>758.62</ele>
        <time>2025-04-27T15:28:32Z</time>
      </trkpt>
      <trkpt lat="42.633714973926544" lon="-2.718687979504466">
        <ele>759.58000000000004</ele>
        <time>2025-04-27T15:28:33Z</time>
      </trkpt>
      <trkpt lat="42.63359796255827" lon="-2.718832986429334">
        <ele>760.53999999999996</ele>
        <time>2025-04-27T15:28:34Z</time>
      </trkpt>
      <trkpt lat="42.63310301117599" lon="-2.719444027170539">
        <ele>764.38999999999999</ele>
        <time>2025-04-27T15:28:38Z</time>
      </trkpt>
      <trkpt lat="42.632945012301207" lon="-2.719566989690065">
        <ele>765.35000000000002</ele>
        <time>2025-04-27T15:28:39Z</time>
      </trkpt>
      <trkpt lat="42.632791036739945" lon="-2.719680983573198">
        <ele>766.78999999999996</ele>
        <time>2025-04-27T15:28:40Z</time>
      </trkpt>
      <trkpt lat="42.632636977359653" lon="-2.719794977456331">
        <ele>768.23000000000002</ele>
        <time>2025-04-27T15:28:41Z</time>
      </trkpt>
      <trkpt lat="42.632499011233449" lon="-2.719939984381199">
        <ele>769.66999999999996</ele>
        <time>2025-04-27T15:28:42Z</time>
      </trkpt>
      <trkpt lat="42.632365990430117" lon="-2.720096977427602">
        <ele>771.11000000000001</ele>
        <time>2025-04-27T15:28:43Z</time>
      </trkpt>
      <trkpt lat="42.631863998249173" lon="-2.72067298181355">
        <ele>775.91999999999996</ele>
        <time>2025-04-27T15:28:47Z</time>
      </trkpt>
      <trkpt lat="42.631711028516293" lon="-2.720741964876652">
        <ele>777.36000000000001</ele>
        <time>2025-04-27T15:28:48Z</time>
      </trkpt>
      <trkpt lat="42.631140975281596" lon="-2.720974981784821">
        <ele>781.69000000000005</ele>
        <time>2025-04-27T15:28:52Z</time>
      </trkpt>
      <trkpt lat="42.631023041903973" lon="-2.720952015370131">
        <ele>782.64999999999998</ele>
        <time>2025-04-27T15:28:53Z</time>
      </trkpt>
      <trkpt lat="42.630892032757401" lon="-2.720925025641918">
        <ele>784.09000000000003</ele>
        <time>2025-04-27T15:28:54Z</time>
      </trkpt>
      <trkpt lat="42.630751971155405" lon="-2.720897030085325">
        <ele>785.52999999999997</ele>
        <time>2025-04-27T15:28:55Z</time>
      </trkpt>
      <trkpt lat="42.630606964230537" lon="-2.720868028700352">
        <ele>786.98000000000002</ele>
        <time>2025-04-27T15:28:56Z</time>
      </trkpt>
      <trkpt lat="42.630465980619192" lon="-2.720879008993506">
        <ele>788.41999999999996</ele>
        <time>2025-04-27T15:28:57Z</time>
      </trkpt>
      <trkpt lat="42.630328014492989" lon="-2.720927037298679">
        <ele>789.86000000000001</ele>
        <time>2025-04-27T15:28:58Z</time>
      </trkpt>
      <trkpt lat="42.630200022831559" lon="-2.720971964299679">
        <ele>791.29999999999995</ele>
        <time>2025-04-27T15:28:59Z</time>
      </trkpt>
      <trkpt lat="42.630078988149762" lon="-2.721042037010193">
        <ele>792.74000000000001</ele>
        <time>2025-04-27T15:29:00Z</time>
      </trkpt>
      <trkpt lat="42.629976980388165" lon="-2.721180003136396">
        <ele>794.19000000000005</ele>
        <time>2025-04-27T15:29:01Z</time>
      </trkpt>
      <trkpt lat="42.629869021475315" lon="-2.721322998404503">
        <ele>795.63</ele>
        <time>2025-04-27T15:29:02Z</time>
      </trkpt>
      <trkpt lat="42.629778999835253" lon="-2.721490971744061">
        <ele>797.07000000000005</ele>
        <time>2025-04-27T15:29:03Z</time>
      </trkpt>
      <trkpt lat="42.629699958488345" lon="-2.721647964790463">
        <ele>798.50999999999999</ele>
        <time>2025-04-27T15:29:04Z</time>
      </trkpt>
      <trkpt lat="42.629656959325075" lon="-2.721892967820168">
        <ele>799.95000000000005</ele>
        <time>2025-04-27T15:29:05Z</time>
      </trkpt>
      <trkpt lat="42.629617983475327" lon="-2.722115004435182">
        <ele>801.39999999999998</ele>
        <time>2025-04-27T15:29:06Z</time>
      </trkpt>
      <trkpt lat="42.62957900762558" lon="-2.722337963059545">
        <ele>802.84000000000003</ele>
        <time>2025-04-27T15:29:07Z</time>
      </trkpt>
      <trkpt lat="42.629469959065318" lon="-2.722936011850834">
        <ele>807.15999999999997</ele>
        <time>2025-04-27T15:29:10Z</time>
      </trkpt>
      <trkpt lat="42.629418997094035" lon="-2.723132986575365">
        <ele>808.13</ele>
        <time>2025-04-27T15:29:11Z</time>
      </trkpt>
      <trkpt lat="42.62932201847434" lon="-2.723299032077193">
        <ele>808.61000000000001</ele>
        <time>2025-04-27T15:29:12Z</time>
      </trkpt>
      <trkpt lat="42.629225961863995" lon="-2.723463987931609">
        <ele>809.09000000000003</ele>
        <time>2025-04-27T15:29:13Z</time>
      </trkpt>
      <trkpt lat="42.629134012386203" lon="-2.723620980978012">
        <ele>809.57000000000005</ele>
        <time>2025-04-27T15:29:14Z</time>
      </trkpt>
      <trkpt lat="42.629029992967844" lon="-2.72374402731657">
        <ele>810.52999999999997</ele>
        <time>2025-04-27T15:29:15Z</time>
      </trkpt>
      <trkpt lat="42.628927985206246" lon="-2.723855003714562">
        <ele>811.49000000000001</ele>
        <time>2025-04-27T15:29:16Z</time>
      </trkpt>
      <trkpt lat="42.628821032121778" lon="-2.723917029798031">
        <ele>812.45000000000005</ele>
        <time>2025-04-27T15:29:17Z</time>
      </trkpt>
      <trkpt lat="42.628709971904755" lon="-2.723964974284172">
        <ele>813.40999999999997</ele>
        <time>2025-04-27T15:29:18Z</time>
      </trkpt>
      <trkpt lat="42.628586003556848" lon="-2.723947959020734">
        <ele>814.37</ele>
        <time>2025-04-27T15:29:19Z</time>
      </trkpt>
      <trkpt lat="42.628462035208941" lon="-2.723898002877832">
        <ele>815.82000000000005</ele>
        <time>2025-04-27T15:29:20Z</time>
      </trkpt>
      <trkpt lat="42.628325996920466" lon="-2.723835976794362">
        <ele>816.77999999999997</ele>
        <time>2025-04-27T15:29:21Z</time>
      </trkpt>
      <trkpt lat="42.628192976117134" lon="-2.723775040358305">
        <ele>817.74000000000001</ele>
        <time>2025-04-27T15:29:22Z</time>
      </trkpt>
      <trkpt lat="42.628069007769227" lon="-2.723717959597707">
        <ele>818.70000000000005</ele>
        <time>2025-04-27T15:29:23Z</time>
      </trkpt>
      <trkpt lat="42.627957025542855" lon="-2.72370002232492">
        <ele>819.17999999999995</ele>
        <time>2025-04-27T15:29:24Z</time>
      </trkpt>
      <trkpt lat="42.627873038873076" lon="-2.723691975697875">
        <ele>820.13999999999999</ele>
        <time>2025-04-27T15:29:25Z</time>
      </trkpt>
      <trkpt lat="42.627800032496452" lon="-2.723709996789694">
        <ele>820.62</ele>
        <time>2025-04-27T15:29:26Z</time>
      </trkpt>
      <trkpt lat="42.627759966999292" lon="-2.72378996014595">
        <ele>821.58000000000004</ele>
        <time>2025-04-27T15:29:27Z</time>
      </trkpt>
      <trkpt lat="42.627758039161563" lon="-2.723899008706212">
        <ele>822.05999999999995</ele>
        <time>2025-04-27T15:29:28Z</time>
      </trkpt>
      <trkpt lat="42.62777597643435" lon="-2.724042003974319">
        <ele>823.02999999999997</ele>
        <time>2025-04-27T15:29:29Z</time>
      </trkpt>
      <trkpt lat="42.62779600918293" lon="-2.724206959828734">
        <ele>823.50999999999999</ele>
        <time>2025-04-27T15:29:30Z</time>
      </trkpt>
      <trkpt lat="42.627816963940859" lon="-2.724374011158943">
        <ele>823.99000000000001</ele>
        <time>2025-04-27T15:29:31Z</time>
      </trkpt>
      <trkpt lat="42.627832973375916" lon="-2.724502002820373">
        <ele>824.95000000000005</ele>
        <time>2025-04-27T15:29:32Z</time>
      </trkpt>
      <trkpt lat="42.627805983647704" lon="-2.724676011130214">
        <ele>825.42999999999995</ele>
        <time>2025-04-27T15:29:33Z</time>
      </trkpt>
      <trkpt lat="42.627786034718156" lon="-2.724805008620024">
        <ele>825.90999999999997</ele>
        <time>2025-04-27T15:29:34Z</time>
      </trkpt>
      <trkpt lat="42.62775301001966" lon="-2.724928976967931">
        <ele>826.87</ele>
        <time>2025-04-27T15:29:35Z</time>
      </trkpt>
      <trkpt lat="42.627665000036359" lon="-2.725031990557909">
        <ele>827.35000000000002</ele>
        <time>2025-04-27T15:29:36Z</time>
      </trkpt>
      <trkpt lat="42.627566009759903" lon="-2.725149001926184">
        <ele>827.83000000000004</ele>
        <time>2025-04-27T15:29:37Z</time>
      </trkpt>
      <trkpt lat="42.627458972856402" lon="-2.725274981930852">
        <ele>828.78999999999996</ele>
        <time>2025-04-27T15:29:38Z</time>
      </trkpt>
      <trkpt lat="42.626627990975976" lon="-2.725927010178566">
        <ele>833.60000000000002</ele>
        <time>2025-04-27T15:29:44Z</time>
      </trkpt>
      <trkpt lat="42.626496981829405" lon="-2.725988030433655">
        <ele>834.55999999999995</ele>
        <time>2025-04-27T15:29:45Z</time>
      </trkpt>
      <trkpt lat="42.626358009874821" lon="-2.726047961041331">
        <ele>835.51999999999998</ele>
        <time>2025-04-27T15:29:46Z</time>
      </trkpt>
      <trkpt lat="42.626208979636431" lon="-2.726080985739827">
        <ele>836.48000000000002</ele>
        <time>2025-04-27T15:29:47Z</time>
      </trkpt>
      <trkpt lat="42.626053998246789" lon="-2.726100012660027">
        <ele>837.45000000000005</ele>
        <time>2025-04-27T15:29:48Z</time>
      </trkpt>
      <trkpt lat="42.625888958573341" lon="-2.726120967417955">
        <ele>837.92999999999995</ele>
        <time>2025-04-27T15:29:49Z</time>
      </trkpt>
      <trkpt lat="42.625725008547306" lon="-2.726142005994916">
        <ele>838.40999999999997</ele>
        <time>2025-04-27T15:29:50Z</time>
      </trkpt>
      <trkpt lat="42.625570027157664" lon="-2.726161032915115">
        <ele>839.37</ele>
        <time>2025-04-27T15:29:51Z</time>
      </trkpt>
      <trkpt lat="42.625418985262513" lon="-2.726165978237987">
        <ele>839.85000000000002</ele>
        <time>2025-04-27T15:29:52Z</time>
      </trkpt>
      <trkpt lat="42.625274984166026" lon="-2.726122979074717">
        <ele>839.85000000000002</ele>
        <time>2025-04-27T15:29:53Z</time>
      </trkpt>
      <trkpt lat="42.625127965584397" lon="-2.726057013496757">
        <ele>840.33000000000004</ele>
        <time>2025-04-27T15:29:54Z</time>
      </trkpt>
      <trkpt lat="42.624985976144671" lon="-2.72595701739192">
        <ele>840.80999999999995</ele>
        <time>2025-04-27T15:29:55Z</time>
      </trkpt>
      <trkpt lat="42.624878017231822" lon="-2.725815027952194">
        <ele>841.28999999999996</ele>
        <time>2025-04-27T15:29:56Z</time>
      </trkpt>
      <trkpt lat="42.624776009470224" lon="-2.725682007148862">
        <ele>842.25</ele>
        <time>2025-04-27T15:29:57Z</time>
      </trkpt>
      <trkpt lat="42.624663021415472" lon="-2.725588968023658">
        <ele>842.25</ele>
        <time>2025-04-27T15:29:58Z</time>
      </trkpt>
      <trkpt lat="42.624542992562056" lon="-2.725529037415981">
        <ele>843.21000000000004</ele>
        <time>2025-04-27T15:29:59Z</time>
      </trkpt>
      <trkpt lat="42.62440200895071" lon="-2.725511016324163">
        <ele>843.69000000000005</ele>
        <time>2025-04-27T15:30:00Z</time>
      </trkpt>
      <trkpt lat="42.624262031167746" lon="-2.725552003830671">
        <ele>845.13999999999999</ele>
        <time>2025-04-27T15:30:01Z</time>
      </trkpt>
      <trkpt lat="42.624120963737369" lon="-2.725593997165561">
        <ele>846.10000000000002</ele>
        <time>2025-04-27T15:30:02Z</time>
      </trkpt>
      <trkpt lat="42.623996995389462" lon="-2.725631967186928">
        <ele>847.05999999999995</ele>
        <time>2025-04-27T15:30:03Z</time>
      </trkpt>
      <trkpt lat="42.623873027041554" lon="-2.725589973852038">
        <ele>847.53999999999996</ele>
        <time>2025-04-27T15:30:04Z</time>
      </trkpt>
      <trkpt lat="42.62375601567328" lon="-2.725530965253711">
        <ele>848.5</ele>
        <time>2025-04-27T15:30:05Z</time>
      </trkpt>
      <trkpt lat="42.623666999861598" lon="-2.725396016612649">
        <ele>848.98000000000002</ele>
        <time>2025-04-27T15:30:06Z</time>
      </trkpt>
      <trkpt lat="42.623565997928381" lon="-2.725242041051388">
        <ele>849.46000000000004</ele>
        <time>2025-04-27T15:30:07Z</time>
      </trkpt>
      <trkpt lat="42.623457033187151" lon="-2.72507599554956">
        <ele>849.94000000000005</ele>
        <time>2025-04-27T15:30:08Z</time>
      </trkpt>
      <trkpt lat="42.62334899045527" lon="-2.724911961704493">
        <ele>849.94000000000005</ele>
        <time>2025-04-27T15:30:09Z</time>
      </trkpt>
      <trkpt lat="42.62326299212873" lon="-2.724781036376953">
        <ele>850.41999999999996</ele>
        <time>2025-04-27T15:30:10Z</time>
      </trkpt>
      <trkpt lat="42.623107004910707" lon="-2.724735019728541">
        <ele>850.89999999999998</ele>
        <time>2025-04-27T15:30:11Z</time>
      </trkpt>
      <trkpt lat="42.622965015470982" lon="-2.724694032222033">
        <ele>850.89999999999998</ele>
        <time>2025-04-27T15:30:12Z</time>
      </trkpt>
      <trkpt lat="42.622835012152791" lon="-2.724679028615356">
        <ele>850.41999999999996</ele>
        <time>2025-04-27T15:30:13Z</time>
      </trkpt>
      <trkpt lat="42.622695034369826" lon="-2.724691014736891">
        <ele>850.41999999999996</ele>
        <time>2025-04-27T15:30:14Z</time>
      </trkpt>
      <trkpt lat="42.622571988031268" lon="-2.72473300807178">
        <ele>850.89999999999998</ele>
        <time>2025-04-27T15:30:15Z</time>
      </trkpt>
      <trkpt lat="42.622448019683361" lon="-2.724802996963263">
        <ele>851.38</ele>
        <time>2025-04-27T15:30:16Z</time>
      </trkpt>
      <trkpt lat="42.622338971123099" lon="-2.724925959482789">
        <ele>852.35000000000002</ele>
        <time>2025-04-27T15:30:17Z</time>
      </trkpt>
      <trkpt lat="42.622225983068347" lon="-2.725055040791631">
        <ele>853.30999999999995</ele>
        <time>2025-04-27T15:30:18Z</time>
      </trkpt>
      <trkpt lat="42.622109977528453" lon="-2.725187977775931">
        <ele>853.78999999999996</ele>
        <time>2025-04-27T15:30:19Z</time>
      </trkpt>
      <trkpt lat="42.622000006958842" lon="-2.725314041599631">
        <ele>854.75</ele>
        <time>2025-04-27T15:30:20Z</time>
      </trkpt>
      <trkpt lat="42.621751986443996" lon="-2.725494001060724">
        <ele>856.66999999999996</ele>
        <time>2025-04-27T15:30:22Z</time>
      </trkpt>
      <trkpt lat="42.621646961197257" lon="-2.72557002492249">
        <ele>857.14999999999998</ele>
        <time>2025-04-27T15:30:23Z</time>
      </trkpt>
      <trkpt lat="42.621530033648014" lon="-2.725588968023658">
        <ele>858.11000000000001</ele>
        <time>2025-04-27T15:30:24Z</time>
      </trkpt>
      <trkpt lat="42.621374968439341" lon="-2.725574970245361">
        <ele>858.11000000000001</ele>
        <time>2025-04-27T15:30:25Z</time>
      </trkpt>
      <trkpt lat="42.621261980384588" lon="-2.725524008274078">
        <ele>858.59000000000003</ele>
        <time>2025-04-27T15:30:26Z</time>
      </trkpt>
      <trkpt lat="42.621116973459721" lon="-2.725457036867738">
        <ele>859.08000000000004</ele>
        <time>2025-04-27T15:30:27Z</time>
      </trkpt>
      <trkpt lat="42.620956040918827" lon="-2.725383024662733">
        <ele>859.55999999999995</ele>
        <time>2025-04-27T15:30:28Z</time>
      </trkpt>
      <trkpt lat="42.619834039360285" lon="-2.72484096698463">
        <ele>862.44000000000005</ele>
        <time>2025-04-27T15:30:35Z</time>
      </trkpt>
      <trkpt lat="42.619584007188678" lon="-2.7247129753232">
        <ele>862.44000000000005</ele>
        <time>2025-04-27T15:30:37Z</time>
      </trkpt>
      <trkpt lat="42.619449980556965" lon="-2.724683973938227">
        <ele>862.44000000000005</ele>
        <time>2025-04-27T15:30:38Z</time>
      </trkpt>
      <trkpt lat="42.619302039965987" lon="-2.72471196949482">
        <ele>862.91999999999996</ele>
        <time>2025-04-27T15:30:39Z</time>
      </trkpt>
      <trkpt lat="42.61915703304112" lon="-2.724738959223032">
        <ele>862.91999999999996</ele>
        <time>2025-04-27T15:30:40Z</time>
      </trkpt>
      <trkpt lat="42.619015965610743" lon="-2.724765026941896">
        <ele>862.91999999999996</ele>
        <time>2025-04-27T15:30:41Z</time>
      </trkpt>
      <trkpt lat="42.618870958685875" lon="-2.724792016670108">
        <ele>862.91999999999996</ele>
        <time>2025-04-27T15:30:42Z</time>
      </trkpt>
      <trkpt lat="42.618613969534636" lon="-2.724839961156249">
        <ele>862.91999999999996</ele>
        <time>2025-04-27T15:30:44Z</time>
      </trkpt>
      <trkpt lat="42.618454964831471" lon="-2.724938029423356">
        <ele>862.91999999999996</ele>
        <time>2025-04-27T15:30:46Z</time>
      </trkpt>
      <trkpt lat="42.618435015901923" lon="-2.724953033030033">
        <ele>862.91999999999996</ele>
        <time>2025-04-27T15:30:47Z</time>
      </trkpt>
      <trkpt lat="42.618409032002091" lon="-2.725029978901148">
        <ele>862.91999999999996</ele>
        <time>2025-04-27T15:30:48Z</time>
      </trkpt>
      <trkpt lat="42.618396962061524" lon="-2.72509896196425">
        <ele>862.91999999999996</ele>
        <time>2025-04-27T15:30:49Z</time>
      </trkpt>
      <trkpt lat="42.61842998676002" lon="-2.725207004696131">
        <ele>863.39999999999998</ele>
        <time>2025-04-27T15:30:50Z</time>
      </trkpt>
      <trkpt lat="42.618486983701587" lon="-2.725317981094122">
        <ele>863.88</ele>
        <time>2025-04-27T15:30:51Z</time>
      </trkpt>
      <trkpt lat="42.618589997291565" lon="-2.725388975813985">
        <ele>864.84000000000003</ele>
        <time>2025-04-27T15:30:52Z</time>
      </trkpt>
      <trkpt lat="42.618698040023446" lon="-2.72546399384737">
        <ele>865.79999999999995</ele>
        <time>2025-04-27T15:30:53Z</time>
      </trkpt>
      <trkpt lat="42.618819996714592" lon="-2.72554898634553">
        <ele>867.25</ele>
        <time>2025-04-27T15:30:54Z</time>
      </trkpt>
      <trkpt lat="42.618950000032783" lon="-2.725639007985592">
        <ele>868.21000000000004</ele>
        <time>2025-04-27T15:30:55Z</time>
      </trkpt>
      <trkpt lat="42.619058964774013" lon="-2.725755013525486">
        <ele>869.64999999999998</ele>
        <time>2025-04-27T15:30:56Z</time>
      </trkpt>
      <trkpt lat="42.619167007505894" lon="-2.725870013237">
        <ele>870.61000000000001</ele>
        <time>2025-04-27T15:30:57Z</time>
      </trkpt>
      <trkpt lat="42.619271026924253" lon="-2.72597998380661">
        <ele>872.04999999999995</ele>
        <time>2025-04-27T15:30:58Z</time>
      </trkpt>
      <trkpt lat="42.61963102966547" lon="-2.726437970995903">
        <ele>878.77999999999997</ele>
        <time>2025-04-27T15:31:02Z</time>
      </trkpt>
      <trkpt lat="42.619707975536585" lon="-2.72653796710074">
        <ele>880.71000000000004</ele>
        <time>2025-04-27T15:31:03Z</time>
      </trkpt>
      <trkpt lat="42.619766984134912" lon="-2.726659001782537">
        <ele>881.66999999999996</ele>
        <time>2025-04-27T15:31:04Z</time>
      </trkpt>
      <trkpt lat="42.619808977469802" lon="-2.726793028414249">
        <ele>883.11000000000001</ele>
        <time>2025-04-27T15:31:05Z</time>
      </trkpt>
      <trkpt lat="42.619848037138581" lon="-2.726949015632272">
        <ele>884.54999999999995</ele>
        <time>2025-04-27T15:31:06Z</time>
      </trkpt>
      <trkpt lat="42.619820963591337" lon="-2.727107014507055">
        <ele>885.50999999999999</ele>
        <time>2025-04-27T15:31:07Z</time>
      </trkpt>
      <trkpt lat="42.61978198774159" lon="-2.727271970361471">
        <ele>886.95000000000005</ele>
        <time>2025-04-27T15:31:08Z</time>
      </trkpt>
      <trkpt lat="42.619733959436417" lon="-2.727433992549777">
        <ele>887.90999999999997</ele>
        <time>2025-04-27T15:31:09Z</time>
      </trkpt>
      <trkpt lat="42.619661036878824" lon="-2.727683018893004">
        <ele>889.36000000000001</ele>
        <time>2025-04-27T15:31:11Z</time>
      </trkpt>
      <trkpt lat="42.619636980816722" lon="-2.727763988077641">
        <ele>889.84000000000003</ele>
        <time>2025-04-27T15:31:12Z</time>
      </trkpt>
      <trkpt lat="42.619672017171979" lon="-2.727865995839238">
        <ele>890.32000000000005</ele>
        <time>2025-04-27T15:31:13Z</time>
      </trkpt>
      <trkpt lat="42.619703030213714" lon="-2.727954005822539">
        <ele>890.79999999999995</ele>
        <time>2025-04-27T15:31:14Z</time>
      </trkpt>
      <trkpt lat="42.619736976921558" lon="-2.728052996098995">
        <ele>891.27999999999997</ele>
        <time>2025-04-27T15:31:15Z</time>
      </trkpt>
      <trkpt lat="42.619810989126563" lon="-2.728293975815177">
        <ele>893.20000000000005</ele>
        <time>2025-04-27T15:31:17Z</time>
      </trkpt>
      <trkpt lat="42.619830016046762" lon="-2.7285569999367">
        <ele>894.15999999999997</ele>
        <time>2025-04-27T15:31:19Z</time>
      </trkpt>
      <trkpt lat="42.619840996339917" lon="-2.728697983548045">
        <ele>894.63999999999999</ele>
        <time>2025-04-27T15:31:20Z</time>
      </trkpt>
      <trkpt lat="42.619844013825059" lon="-2.728869980201125">
        <ele>894.63999999999999</ele>
        <time>2025-04-27T15:31:21Z</time>
      </trkpt>
      <trkpt lat="42.619808977469802" lon="-2.729023033753038">
        <ele>895.12</ele>
        <time>2025-04-27T15:31:22Z</time>
      </trkpt>
      <trkpt lat="42.619773019105196" lon="-2.729183966293931">
        <ele>895.12</ele>
        <time>2025-04-27T15:31:23Z</time>
      </trkpt>
      <trkpt lat="42.619412010535598" lon="-2.730794968083501">
        <ele>899.92999999999995</ele>
        <time>2025-04-27T15:31:31Z</time>
      </trkpt>
      <trkpt lat="42.61937202885747" lon="-2.730971993878484">
        <ele>900.40999999999997</ele>
        <time>2025-04-27T15:31:32Z</time>
      </trkpt>
      <trkpt lat="42.619335986673832" lon="-2.731133010238409">
        <ele>901.37</ele>
        <time>2025-04-27T15:31:33Z</time>
      </trkpt>
      <trkpt lat="42.619363982230425" lon="-2.731273993849754">
        <ele>902.33000000000004</ele>
        <time>2025-04-27T15:31:34Z</time>
      </trkpt>
      <trkpt lat="42.619420979171991" lon="-2.731568031013012">
        <ele>904.25999999999999</ele>
        <time>2025-04-27T15:31:36Z</time>
      </trkpt>
      <trkpt lat="42.619405975565314" lon="-2.731738016009331">
        <ele>905.22000000000003</ele>
        <time>2025-04-27T15:31:37Z</time>
      </trkpt>
      <trkpt lat="42.619374040514231" lon="-2.732095001265407">
        <ele>907.62</ele>
        <time>2025-04-27T15:31:39Z</time>
      </trkpt>
      <trkpt lat="42.619358031079173" lon="-2.732270015403628">
        <ele>908.58000000000004</ele>
        <time>2025-04-27T15:31:40Z</time>
      </trkpt>
      <trkpt lat="42.619398012757301" lon="-2.732435977086425">
        <ele>910.02999999999997</ele>
        <time>2025-04-27T15:31:41Z</time>
      </trkpt>
      <trkpt lat="42.619466995820403" lon="-2.732723979279399">
        <ele>912.42999999999995</ele>
        <time>2025-04-27T15:31:43Z</time>
      </trkpt>
      <trkpt lat="42.619491973891854" lon="-2.732825987040997">
        <ele>913.38999999999999</ele>
        <time>2025-04-27T15:31:44Z</time>
      </trkpt>
      <trkpt lat="42.619489040225744" lon="-2.732922965660691">
        <ele>914.35000000000002</ele>
        <time>2025-04-27T15:31:45Z</time>
      </trkpt>
      <trkpt lat="42.619443023577332" lon="-2.732998989522457">
        <ele>915.78999999999996</ele>
        <time>2025-04-27T15:31:46Z</time>
      </trkpt>
      <trkpt lat="42.619382003322244" lon="-2.732998989522457">
        <ele>917.24000000000001</ele>
        <time>2025-04-27T15:31:47Z</time>
      </trkpt>
      <trkpt lat="42.619324000552297" lon="-2.732952972874045">
        <ele>918.67999999999995</ele>
        <time>2025-04-27T15:31:48Z</time>
      </trkpt>
      <trkpt lat="42.619264991953969" lon="-2.732873009517789">
        <ele>920.12</ele>
        <time>2025-04-27T15:31:49Z</time>
      </trkpt>
      <trkpt lat="42.619188968092203" lon="-2.73276899009943">
        <ele>921.08000000000004</ele>
        <time>2025-04-27T15:31:50Z</time>
      </trkpt>
      <trkpt lat="42.618854027241468" lon="-2.73227202706039">
        <ele>926.85000000000002</ele>
        <time>2025-04-27T15:31:54Z</time>
      </trkpt>
      <trkpt lat="42.618765011429787" lon="-2.732135988771915">
        <ele>928.28999999999996</ele>
        <time>2025-04-27T15:31:55Z</time>
      </trkpt>
      <trkpt lat="42.618620004504919" lon="-2.731956029310823">
        <ele>930.69000000000005</ele>
        <time>2025-04-27T15:31:57Z</time>
      </trkpt>
      <trkpt lat="42.618513973429799" lon="-2.731883022934198">
        <ele>931.64999999999998</ele>
        <time>2025-04-27T15:31:58Z</time>
      </trkpt>
      <trkpt lat="42.618296965956688" lon="-2.731733992695808">
        <ele>933.58000000000004</ele>
        <time>2025-04-27T15:32:00Z</time>
      </trkpt>
      <trkpt lat="42.618204010650516" lon="-2.73167003877461">
        <ele>934.53999999999996</ele>
        <time>2025-04-27T15:32:01Z</time>
      </trkpt>
      <trkpt lat="42.618124969303608" lon="-2.731614969670773">
        <ele>935.01999999999998</ele>
        <time>2025-04-27T15:32:02Z</time>
      </trkpt>
      <trkpt lat="42.617980968207121" lon="-2.731515979394317">
        <ele>935.98000000000002</ele>
        <time>2025-04-27T15:32:04Z</time>
      </trkpt>
      <trkpt lat="42.617917014285922" lon="-2.731440039351583">
        <ele>935.98000000000002</ele>
        <time>2025-04-27T15:32:05Z</time>
      </trkpt>
      <trkpt lat="42.617845013737679" lon="-2.731335014104843">
        <ele>936.46000000000004</ele>
        <time>2025-04-27T15:32:06Z</time>
      </trkpt>
      <trkpt lat="42.61780402623117" lon="-2.731204004958272">
        <ele>936.94000000000005</ele>
        <time>2025-04-27T15:32:07Z</time>
      </trkpt>
      <trkpt lat="42.61776396073401" lon="-2.731076013296843">
        <ele>936.94000000000005</ele>
        <time>2025-04-27T15:32:08Z</time>
      </trkpt>
      <trkpt lat="42.617714004591107" lon="-2.730970988050103">
        <ele>936.94000000000005</ele>
        <time>2025-04-27T15:32:09Z</time>
      </trkpt>
      <trkpt lat="42.617640998214483" lon="-2.730853976681829">
        <ele>936.94000000000005</ele>
        <time>2025-04-27T15:32:10Z</time>
      </trkpt>
      <trkpt lat="42.617559023201466" lon="-2.730798991397023">
        <ele>936.94000000000005</ele>
        <time>2025-04-27T15:32:11Z</time>
      </trkpt>
      <trkpt lat="42.617446035146713" lon="-2.730759009718895">
        <ele>936.94000000000005</ele>
        <time>2025-04-27T15:32:12Z</time>
      </trkpt>
      <trkpt lat="42.617326006293297" lon="-2.730746017768979">
        <ele>936.46000000000004</ele>
        <time>2025-04-27T15:32:13Z</time>
      </trkpt>
      <trkpt lat="42.617005985230207" lon="-2.730721039697528">
        <ele>935.01999999999998</ele>
        <time>2025-04-27T15:32:16Z</time>
      </trkpt>
      <trkpt lat="42.616900037974119" lon="-2.730692960321903">
        <ele>934.53999999999996</ele>
        <time>2025-04-27T15:32:17Z</time>
      </trkpt>
      <trkpt lat="42.616787971928716" lon="-2.73066395893693">
        <ele>934.05999999999995</ele>
        <time>2025-04-27T15:32:18Z</time>
      </trkpt>
      <trkpt lat="42.616673978045583" lon="-2.730635041370988">
        <ele>933.10000000000002</ele>
        <time>2025-04-27T15:32:19Z</time>
      </trkpt>
      <trkpt lat="42.616556966677308" lon="-2.730605034157634">
        <ele>932.62</ele>
        <time>2025-04-27T15:32:20Z</time>
      </trkpt>
      <trkpt lat="42.616426963359118" lon="-2.730608973652124">
        <ele>932.13999999999999</ele>
        <time>2025-04-27T15:32:21Z</time>
      </trkpt>
      <trkpt lat="42.616306012496352" lon="-2.730624983087182">
        <ele>931.16999999999996</ele>
        <time>2025-04-27T15:32:22Z</time>
      </trkpt>
      <trkpt lat="42.616183971986175" lon="-2.73064099252224">
        <ele>930.69000000000005</ele>
        <time>2025-04-27T15:32:23Z</time>
      </trkpt>
      <trkpt lat="42.6160669606179" lon="-2.730655996128917">
        <ele>930.21000000000004</ele>
        <time>2025-04-27T15:32:24Z</time>
      </trkpt>
      <trkpt lat="42.615956990048289" lon="-2.730625988915563">
        <ele>929.25</ele>
        <time>2025-04-27T15:32:25Z</time>
      </trkpt>
      <trkpt lat="42.615835033357143" lon="-2.730569997802377">
        <ele>928.76999999999998</ele>
        <time>2025-04-27T15:32:26Z</time>
      </trkpt>
      <trkpt lat="42.615708969533443" lon="-2.73051300086081">
        <ele>928.28999999999996</ele>
        <time>2025-04-27T15:32:27Z</time>
      </trkpt>
      <trkpt lat="42.615586007013917" lon="-2.730456003919244">
        <ele>927.80999999999995</ele>
        <time>2025-04-27T15:32:28Z</time>
      </trkpt>
      <trkpt lat="42.615443011745811" lon="-2.73044896312058">
        <ele>927.33000000000004</ele>
        <time>2025-04-27T15:32:29Z</time>
      </trkpt>
      <trkpt lat="42.615309990942478" lon="-2.73049296811223">
        <ele>926.85000000000002</ele>
        <time>2025-04-27T15:32:30Z</time>
      </trkpt>
      <trkpt lat="42.615181999281049" lon="-2.7305359672755">
        <ele>925.88999999999999</ele>
        <time>2025-04-27T15:32:31Z</time>
      </trkpt>
      <trkpt lat="42.615065993741155" lon="-2.73057502694428">
        <ele>925.40999999999997</ele>
        <time>2025-04-27T15:32:32Z</time>
      </trkpt>
      <trkpt lat="42.614941019564867" lon="-2.730567986145616">
        <ele>924.45000000000005</ele>
        <time>2025-04-27T15:32:33Z</time>
      </trkpt>
      <trkpt lat="42.614383958280087" lon="-2.730471007525921">
        <ele>921.55999999999995</ele>
        <time>2025-04-27T15:32:37Z</time>
      </trkpt>
      <trkpt lat="42.614234006032348" lon="-2.730429014191032">
        <ele>920.60000000000002</ele>
        <time>2025-04-27T15:32:38Z</time>
      </trkpt>
      <trkpt lat="42.614083969965577" lon="-2.730367993935943">
        <ele>919.63999999999999</ele>
        <time>2025-04-27T15:32:39Z</time>
      </trkpt>
      <trkpt lat="42.613577032461762" lon="-2.730065993964672">
        <ele>916.75</ele>
        <time>2025-04-27T15:32:44Z</time>
      </trkpt>
      <trkpt lat="42.612897008657455" lon="-2.729530977085233">
        <ele>913.87</ele>
        <time>2025-04-27T15:32:51Z</time>
      </trkpt>
      <trkpt lat="42.61161801405251" lon="-2.728474019095302">
        <ele>908.58000000000004</ele>
        <time>2025-04-27T15:33:01Z</time>
      </trkpt>
      <trkpt lat="42.611485999077559" lon="-2.728408975526691">
        <ele>907.62</ele>
        <time>2025-04-27T15:33:02Z</time>
      </trkpt>
      <trkpt lat="42.611349960789084" lon="-2.728416016325355">
        <ele>906.65999999999997</ele>
        <time>2025-04-27T15:33:03Z</time>
      </trkpt>
      <trkpt lat="42.611219035461545" lon="-2.728421967476606">
        <ele>905.70000000000005</ele>
        <time>2025-04-27T15:33:04Z</time>
      </trkpt>
      <trkpt lat="42.611075034365058" lon="-2.728429008275271">
        <ele>904.74000000000001</ele>
        <time>2025-04-27T15:33:05Z</time>
      </trkpt>
      <trkpt lat="42.610986018553376" lon="-2.728479970246553">
        <ele>903.77999999999997</ele>
        <time>2025-04-27T15:33:06Z</time>
      </trkpt>
      <trkpt lat="42.610900020226836" lon="-2.728588012978435">
        <ele>902.82000000000005</ele>
        <time>2025-04-27T15:33:07Z</time>
      </trkpt>
      <trkpt lat="42.610860038548708" lon="-2.728708041831851">
        <ele>901.85000000000002</ele>
        <time>2025-04-27T15:33:08Z</time>
      </trkpt>
      <trkpt lat="42.610860038548708" lon="-2.728865034878254">
        <ele>900.88999999999999</ele>
        <time>2025-04-27T15:33:09Z</time>
      </trkpt>
      <trkpt lat="42.610875964164734" lon="-2.729032002389431">
        <ele>899.92999999999995</ele>
        <time>2025-04-27T15:33:10Z</time>
      </trkpt>
      <trkpt lat="42.610918041318655" lon="-2.729207016527653">
        <ele>899.45000000000005</ele>
        <time>2025-04-27T15:33:11Z</time>
      </trkpt>
      <trkpt lat="42.610989036038518" lon="-2.729571964591742">
        <ele>897.52999999999997</ele>
        <time>2025-04-27T15:33:13Z</time>
      </trkpt>
      <trkpt lat="42.610989036038518" lon="-2.729759970679879">
        <ele>896.57000000000005</ele>
        <time>2025-04-27T15:33:14Z</time>
      </trkpt>
      <trkpt lat="42.610989036038518" lon="-2.729930961504579">
        <ele>895.61000000000001</ele>
        <time>2025-04-27T15:33:15Z</time>
      </trkpt>
      <trkpt lat="42.611033041030169" lon="-2.730077980086207">
        <ele>894.63999999999999</ele>
        <time>2025-04-27T15:33:16Z</time>
      </trkpt>
      <trkpt lat="42.611075034365058" lon="-2.730218041688204">
        <ele>893.67999999999995</ele>
        <time>2025-04-27T15:33:17Z</time>
      </trkpt>
      <trkpt lat="42.611118033528328" lon="-2.73036003112793">
        <ele>892.24000000000001</ele>
        <time>2025-04-27T15:33:18Z</time>
      </trkpt>
      <trkpt lat="42.611110992729664" lon="-2.730558011680841">
        <ele>891.27999999999997</ele>
        <time>2025-04-27T15:33:19Z</time>
      </trkpt>
      <trkpt lat="42.611105041578412" lon="-2.730760015547276">
        <ele>890.32000000000005</ele>
        <time>2025-04-27T15:33:20Z</time>
      </trkpt>
      <trkpt lat="42.611076040193439" lon="-2.731128986924887">
        <ele>888.88</ele>
        <time>2025-04-27T15:33:22Z</time>
      </trkpt>
      <trkpt lat="42.611034968867898" lon="-2.731255972757936">
        <ele>887.90999999999997</ele>
        <time>2025-04-27T15:33:23Z</time>
      </trkpt>
      <trkpt lat="42.610957017168403" lon="-2.731323027983308">
        <ele>887.42999999999995</ele>
        <time>2025-04-27T15:33:24Z</time>
      </trkpt>
      <trkpt lat="42.610903037711978" lon="-2.731368960812688">
        <ele>885.99000000000001</ele>
        <time>2025-04-27T15:33:25Z</time>
      </trkpt>
      <trkpt lat="42.610817961394787" lon="-2.731314981356263">
        <ele>885.02999999999997</ele>
        <time>2025-04-27T15:33:26Z</time>
      </trkpt>
      <trkpt lat="42.610731963068247" lon="-2.731261001899838">
        <ele>883.59000000000003</ele>
        <time>2025-04-27T15:33:27Z</time>
      </trkpt>
      <trkpt lat="42.610696004703641" lon="-2.731189001351595">
        <ele>882.14999999999998</ele>
        <time>2025-04-27T15:33:28Z</time>
      </trkpt>
      <trkpt lat="42.610644036903977" lon="-2.731086993589997">
        <ele>881.19000000000005</ele>
        <time>2025-04-27T15:33:29Z</time>
      </trkpt>
      <trkpt lat="42.610596008598804" lon="-2.730990014970303">
        <ele>880.22000000000003</ele>
        <time>2025-04-27T15:33:30Z</time>
      </trkpt>
      <trkpt lat="42.610495006665587" lon="-2.730972999706864">
        <ele>879.25999999999999</ele>
        <time>2025-04-27T15:33:31Z</time>
      </trkpt>
      <trkpt lat="42.610418982803822" lon="-2.731003006920219">
        <ele>878.29999999999995</ele>
        <time>2025-04-27T15:33:32Z</time>
      </trkpt>
      <trkpt lat="42.61037296615541" lon="-2.731079030781984">
        <ele>877.34000000000003</ele>
        <time>2025-04-27T15:33:33Z</time>
      </trkpt>
      <trkpt lat="42.610353017225862" lon="-2.731209034100175">
        <ele>876.38</ele>
        <time>2025-04-27T15:33:34Z</time>
      </trkpt>
      <trkpt lat="42.610332984477282" lon="-2.73137197829783">
        <ele>875.41999999999996</ele>
        <time>2025-04-27T15:33:35Z</time>
      </trkpt>
      <trkpt lat="42.610314041376114" lon="-2.731532994657755">
        <ele>874.46000000000004</ele>
        <time>2025-04-27T15:33:36Z</time>
      </trkpt>
      <trkpt lat="42.61030700057745" lon="-2.731668027117848">
        <ele>873.5</ele>
        <time>2025-04-27T15:33:37Z</time>
      </trkpt>
      <trkpt lat="42.610315969213843" lon="-2.731751007959247">
        <ele>872.52999999999997</ele>
        <time>2025-04-27T15:33:38Z</time>
      </trkpt>
      <trkpt lat="42.610324015840888" lon="-2.731818985193968">
        <ele>871.57000000000005</ele>
        <time>2025-04-27T15:33:39Z</time>
      </trkpt>
      <trkpt lat="42.610342036932707" lon="-2.731852009892464">
        <ele>870.61000000000001</ele>
        <time>2025-04-27T15:33:40Z</time>
      </trkpt>
      <trkpt lat="42.610361985862255" lon="-2.73188604041934">
        <ele>870.13</ele>
        <time>2025-04-27T15:33:41Z</time>
      </trkpt>
      <trkpt lat="42.610386963933706" lon="-2.731929961591959">
        <ele>869.16999999999996</ele>
        <time>2025-04-27T15:33:42Z</time>
      </trkpt>
      <trkpt lat="42.610420994460583" lon="-2.731990981847048">
        <ele>868.21000000000004</ele>
        <time>2025-04-27T15:33:43Z</time>
      </trkpt>
      <trkpt lat="42.610457958653569" lon="-2.732056025415659">
        <ele>867.25</ele>
        <time>2025-04-27T15:33:44Z</time>
      </trkpt>
      <trkpt lat="42.610492995008826" lon="-2.732118973508477">
        <ele>866.28999999999996</ele>
        <time>2025-04-27T15:33:45Z</time>
      </trkpt>
      <trkpt lat="42.610529959201813" lon="-2.732183011248708">
        <ele>865.79999999999995</ele>
        <time>2025-04-27T15:33:46Z</time>
      </trkpt>
      <trkpt lat="42.610562983900309" lon="-2.732243025675416">
        <ele>864.84000000000003</ele>
        <time>2025-04-27T15:33:47Z</time>
      </trkpt>
      <trkpt lat="42.610602965578437" lon="-2.732313014566898">
        <ele>863.88</ele>
        <time>2025-04-27T15:33:48Z</time>
      </trkpt>
      <trkpt lat="42.610689969733357" lon="-2.73240395821631">
        <ele>862.44000000000005</ele>
        <time>2025-04-27T15:33:50Z</time>
      </trkpt>
      <trkpt lat="42.610741015523672" lon="-2.732456009835005">
        <ele>861.48000000000002</ele>
        <time>2025-04-27T15:33:51Z</time>
      </trkpt>
      <trkpt lat="42.610784014686942" lon="-2.732502026483417">
        <ele>861</ele>
        <time>2025-04-27T15:33:52Z</time>
      </trkpt>
      <trkpt lat="42.610826008021832" lon="-2.732545025646687">
        <ele>858.59000000000003</ele>
        <time>2025-04-27T15:34:00Z</time>
      </trkpt>
      <trkpt lat="42.610826008021832" lon="-2.732545025646687">
        <ele>858.59000000000003</ele>
        <time>2025-04-27T15:34:22Z</time>
      </trkpt>
      <trkpt lat="42.610826008021832" lon="-2.732545025646687">
        <ele>856.66999999999996</ele>
        <time>2025-04-27T15:35:06Z</time>
      </trkpt>
      <trkpt lat="42.610826008021832" lon="-2.732545025646687">
        <ele>856.19000000000005</ele>
        <time>2025-04-27T15:35:44Z</time>
      </trkpt>
      <trkpt lat="42.610988030210137" lon="-2.732712998986244">
        <ele>856.66999999999996</ele>
        <time>2025-04-27T15:36:10Z</time>
      </trkpt>
      <trkpt lat="42.611245019361377" lon="-2.732981974259019">
        <ele>856.19000000000005</ele>
        <time>2025-04-27T15:36:13Z</time>
      </trkpt>
      <trkpt lat="42.611440988257527" lon="-2.733185989782214">
        <ele>855.23000000000002</ele>
        <time>2025-04-27T15:36:15Z</time>
      </trkpt>
      <trkpt lat="42.611547019332647" lon="-2.733295960351825">
        <ele>855.23000000000002</ele>
        <time>2025-04-27T15:36:16Z</time>
      </trkpt>
      <trkpt lat="42.611646009609103" lon="-2.73341397754848">
        <ele>854.75</ele>
        <time>2025-04-27T15:36:17Z</time>
      </trkpt>
      <trkpt lat="42.611784981563687" lon="-2.73371497169137">
        <ele>854.26999999999998</ele>
        <time>2025-04-27T15:36:19Z</time>
      </trkpt>
      <trkpt lat="42.611849019303918" lon="-2.733854027464986">
        <ele>853.78999999999996</ele>
        <time>2025-04-27T15:36:20Z</time>
      </trkpt>
      <trkpt lat="42.611894030123949" lon="-2.734006997197866">
        <ele>853.30999999999995</ele>
        <time>2025-04-27T15:36:21Z</time>
      </trkpt>
      <trkpt lat="42.611901992931962" lon="-2.734156027436256">
        <ele>852.83000000000004</ele>
        <time>2025-04-27T15:36:22Z</time>
      </trkpt>
      <trkpt lat="42.611909033730626" lon="-2.734297011047602">
        <ele>852.35000000000002</ele>
        <time>2025-04-27T15:36:23Z</time>
      </trkpt>
      <trkpt lat="42.611916996538639" lon="-2.734441012144089">
        <ele>851.87</ele>
        <time>2025-04-27T15:36:24Z</time>
      </trkpt>
      <trkpt lat="42.611924959346652" lon="-2.734593981876969">
        <ele>851.38</ele>
        <time>2025-04-27T15:36:25Z</time>
      </trkpt>
      <trkpt lat="42.611933005973697" lon="-2.734736977145076">
        <ele>850.89999999999998</ele>
        <time>2025-04-27T15:36:26Z</time>
      </trkpt>
      <trkpt lat="42.61200400069356" lon="-2.734847031533718">
        <ele>849.94000000000005</ele>
        <time>2025-04-27T15:36:27Z</time>
      </trkpt>
      <trkpt lat="42.612074995413423" lon="-2.734958007931709">
        <ele>848.98000000000002</ele>
        <time>2025-04-27T15:36:28Z</time>
      </trkpt>
      <trkpt lat="42.61215403676033" lon="-2.735060015693307">
        <ele>848.5</ele>
        <time>2025-04-27T15:36:29Z</time>
      </trkpt>
      <trkpt lat="42.612247997894883" lon="-2.735135033726692">
        <ele>847.53999999999996</ele>
        <time>2025-04-27T15:36:30Z</time>
      </trkpt>
      <trkpt lat="42.612486965954304" lon="-2.735306024551392">
        <ele>845.62</ele>
        <time>2025-04-27T15:36:33Z</time>
      </trkpt>
      <trkpt lat="42.612556032836437" lon="-2.73532597348094">
        <ele>845.13999999999999</ele>
        <time>2025-04-27T15:36:34Z</time>
      </trkpt>
      <trkpt lat="42.612630967050791" lon="-2.735323961824179">
        <ele>844.65999999999997</ele>
        <time>2025-04-27T15:36:35Z</time>
      </trkpt>
      <trkpt lat="42.612707996740937" lon="-2.735291020944715">
        <ele>844.17999999999995</ele>
        <time>2025-04-27T15:36:36Z</time>
      </trkpt>
      <trkpt lat="42.612788965925574" lon="-2.735235029831529">
        <ele>843.69000000000005</ele>
        <time>2025-04-27T15:36:37Z</time>
      </trkpt>
      <trkpt lat="42.612868007272482" lon="-2.735161017626524">
        <ele>843.21000000000004</ele>
        <time>2025-04-27T15:36:38Z</time>
      </trkpt>
      <trkpt lat="42.612946964800358" lon="-2.735085999593139">
        <ele>842.73000000000002</ele>
        <time>2025-04-27T15:36:39Z</time>
      </trkpt>
      <trkpt lat="42.613025000318885" lon="-2.735011987388134">
        <ele>842.73000000000002</ele>
        <time>2025-04-27T15:36:40Z</time>
      </trkpt>
      <trkpt lat="42.613107981160283" lon="-2.734933029860258">
        <ele>842.25</ele>
        <time>2025-04-27T15:36:41Z</time>
      </trkpt>
      <trkpt lat="42.613204037770629" lon="-2.734878966584802">
        <ele>841.76999999999998</ele>
        <time>2025-04-27T15:36:42Z</time>
      </trkpt>
      <trkpt lat="42.613310990855098" lon="-2.734859017655253">
        <ele>841.28999999999996</ele>
        <time>2025-04-27T15:36:43Z</time>
      </trkpt>
      <trkpt lat="42.613430013880134" lon="-2.734835967421532">
        <ele>840.80999999999995</ele>
        <time>2025-04-27T15:36:44Z</time>
      </trkpt>
      <trkpt lat="42.613819018006325" lon="-2.734762039035559">
        <ele>838.88999999999999</ele>
        <time>2025-04-27T15:36:47Z</time>
      </trkpt>
      <trkpt lat="42.614072989672422" lon="-2.734756004065275">
        <ele>837.45000000000005</ele>
        <time>2025-04-27T15:36:49Z</time>
      </trkpt>
      <trkpt lat="42.61419796384871" lon="-2.734776036813855">
        <ele>836.96000000000004</ele>
        <time>2025-04-27T15:36:50Z</time>
      </trkpt>
      <trkpt lat="42.614314975216985" lon="-2.734824987128377">
        <ele>836</ele>
        <time>2025-04-27T15:36:51Z</time>
      </trkpt>
      <trkpt lat="42.614637007936835" lon="-2.734994972124696">
        <ele>833.60000000000002</ele>
        <time>2025-04-27T15:36:54Z</time>
      </trkpt>
      <trkpt lat="42.614727029576898" lon="-2.735084993764758">
        <ele>832.63999999999999</ele>
        <time>2025-04-27T15:36:55Z</time>
      </trkpt>
      <trkpt lat="42.614803975448012" lon="-2.735181972384453">
        <ele>832.15999999999997</ele>
        <time>2025-04-27T15:36:56Z</time>
      </trkpt>
      <trkpt lat="42.614863989874721" lon="-2.735313987359405">
        <ele>831.20000000000005</ele>
        <time>2025-04-27T15:36:57Z</time>
      </trkpt>
      <trkpt lat="42.614900032058358" lon="-2.735435022041202">
        <ele>830.72000000000003</ele>
        <time>2025-04-27T15:36:58Z</time>
      </trkpt>
      <trkpt lat="42.614912018179893" lon="-2.735557984560728">
        <ele>830.24000000000001</ele>
        <time>2025-04-27T15:36:59Z</time>
      </trkpt>
      <trkpt lat="42.614889973774552" lon="-2.735656974837184">
        <ele>829.75999999999999</ele>
        <time>2025-04-27T15:37:00Z</time>
      </trkpt>
      <trkpt lat="42.614839011803269" lon="-2.73575697094202">
        <ele>829.26999999999998</ele>
        <time>2025-04-27T15:37:01Z</time>
      </trkpt>
      <trkpt lat="42.614751001819968" lon="-2.735835006460547">
        <ele>829.26999999999998</ele>
        <time>2025-04-27T15:37:02Z</time>
      </trkpt>
      <trkpt lat="42.614663997665048" lon="-2.735912036150694">
        <ele>828.78999999999996</ele>
        <time>2025-04-27T15:37:03Z</time>
      </trkpt>
      <trkpt lat="42.614501975476742" lon="-2.73605695925653">
        <ele>827.83000000000004</ele>
        <time>2025-04-27T15:37:05Z</time>
      </trkpt>
      <trkpt lat="42.614452019333839" lon="-2.736172964796424">
        <ele>827.83000000000004</ele>
        <time>2025-04-27T15:37:06Z</time>
      </trkpt>
      <trkpt lat="42.614431986585259" lon="-2.736299028620124">
        <ele>827.35000000000002</ele>
        <time>2025-04-27T15:37:07Z</time>
      </trkpt>
      <trkpt lat="42.614407008513808" lon="-2.736455015838146">
        <ele>826.87</ele>
        <time>2025-04-27T15:37:08Z</time>
      </trkpt>
      <trkpt lat="42.614375995472074" lon="-2.736648973077536">
        <ele>826.38999999999999</ele>
        <time>2025-04-27T15:37:09Z</time>
      </trkpt>
      <trkpt lat="42.614340959116817" lon="-2.736866986379027">
        <ele>825.42999999999995</ele>
        <time>2025-04-27T15:37:10Z</time>
      </trkpt>
      <trkpt lat="42.614155970513821" lon="-2.737770974636078">
        <ele>821.10000000000002</ele>
        <time>2025-04-27T15:37:14Z</time>
      </trkpt>
      <trkpt lat="42.614085981622338" lon="-2.737965015694499">
        <ele>820.62</ele>
        <time>2025-04-27T15:37:15Z</time>
      </trkpt>
      <trkpt lat="42.613987997174263" lon="-2.738119997084141">
        <ele>819.65999999999997</ele>
        <time>2025-04-27T15:37:16Z</time>
      </trkpt>
      <trkpt lat="42.613885989412665" lon="-2.738234996795654">
        <ele>819.17999999999995</ele>
        <time>2025-04-27T15:37:17Z</time>
      </trkpt>
      <trkpt lat="42.613749029114842" lon="-2.738320995122194">
        <ele>818.70000000000005</ele>
        <time>2025-04-27T15:37:18Z</time>
      </trkpt>
      <trkpt lat="42.613610979169607" lon="-2.738407999277115">
        <ele>818.22000000000003</ele>
        <time>2025-04-27T15:37:19Z</time>
      </trkpt>
      <trkpt lat="42.61333798058331" lon="-2.738521993160248">
        <ele>816.77999999999997</ele>
        <time>2025-04-27T15:37:21Z</time>
      </trkpt>
      <trkpt lat="42.613212000578642" lon="-2.73854797706008">
        <ele>816.29999999999995</ele>
        <time>2025-04-27T15:37:22Z</time>
      </trkpt>
      <trkpt lat="42.613102030009031" lon="-2.738571027293801">
        <ele>815.82000000000005</ele>
        <time>2025-04-27T15:37:23Z</time>
      </trkpt>
      <trkpt lat="42.613003961741924" lon="-2.73859097622335">
        <ele>815.34000000000003</ele>
        <time>2025-04-27T15:37:24Z</time>
      </trkpt>
      <trkpt lat="42.612962974235415" lon="-2.738600028678775">
        <ele>814.85000000000002</ele>
        <time>2025-04-27T15:37:25Z</time>
      </trkpt>
      <trkpt lat="42.612894997000694" lon="-2.738786023110151">
        <ele>813.88999999999999</ele>
        <time>2025-04-27T15:37:26Z</time>
      </trkpt>
      <trkpt lat="42.612834982573986" lon="-2.738952990621328">
        <ele>812.45000000000005</ele>
        <time>2025-04-27T15:37:27Z</time>
      </trkpt>
      <trkpt lat="42.612773040309548" lon="-2.739123981446028">
        <ele>811.49000000000001</ele>
        <time>2025-04-27T15:37:28Z</time>
      </trkpt>
      <trkpt lat="42.612705985084176" lon="-2.739307964220643">
        <ele>810.52999999999997</ele>
        <time>2025-04-27T15:37:29Z</time>
      </trkpt>
      <trkpt lat="42.612615041434765" lon="-2.739424975588918">
        <ele>810.04999999999995</ele>
        <time>2025-04-27T15:37:30Z</time>
      </trkpt>
      <trkpt lat="42.612422006204724" lon="-2.739675007760525">
        <ele>808.13</ele>
        <time>2025-04-27T15:37:32Z</time>
      </trkpt>
      <trkpt lat="42.612341037020087" lon="-2.739780033007264">
        <ele>807.15999999999997</ele>
        <time>2025-04-27T15:37:33Z</time>
      </trkpt>
      <trkpt lat="42.612309018149972" lon="-2.739985976368189">
        <ele>806.67999999999995</ele>
        <time>2025-04-27T15:37:34Z</time>
      </trkpt>
      <trkpt lat="42.612317986786366" lon="-2.740175994113088">
        <ele>805.72000000000003</ele>
        <time>2025-04-27T15:37:35Z</time>
      </trkpt>
      <trkpt lat="42.6123680267483" lon="-2.740357965230942">
        <ele>805.24000000000001</ele>
        <time>2025-04-27T15:37:36Z</time>
      </trkpt>
      <trkpt lat="42.612419994547963" lon="-2.740540020167828">
        <ele>804.75999999999999</ele>
        <time>2025-04-27T15:37:37Z</time>
      </trkpt>
      <trkpt lat="42.612474979832768" lon="-2.740730959922075">
        <ele>803.32000000000005</ele>
        <time>2025-04-27T15:37:38Z</time>
      </trkpt>
      <trkpt lat="42.612576987594366" lon="-2.741089034825563">
        <ele>801.88</ele>
        <time>2025-04-27T15:37:40Z</time>
      </trkpt>
      <trkpt lat="42.612663991749287" lon="-2.741248039528728">
        <ele>800.44000000000005</ele>
        <time>2025-04-27T15:37:41Z</time>
      </trkpt>
      <trkpt lat="42.612752001732588" lon="-2.741393968462944">
        <ele>799.47000000000003</ele>
        <time>2025-04-27T15:37:42Z</time>
      </trkpt>
      <trkpt lat="42.612853003665805" lon="-2.741545010358095">
        <ele>798.50999999999999</ele>
        <time>2025-04-27T15:37:43Z</time>
      </trkpt>
      <trkpt lat="42.612954005599022" lon="-2.741696974262595">
        <ele>797.54999999999995</ele>
        <time>2025-04-27T15:37:44Z</time>
      </trkpt>
      <trkpt lat="42.613113010302186" lon="-2.741936026141048">
        <ele>795.14999999999998</ele>
        <time>2025-04-27T15:37:46Z</time>
      </trkpt>
      <trkpt lat="42.613138994202018" lon="-2.742052031680942">
        <ele>794.66999999999996</ele>
        <time>2025-04-27T15:37:47Z</time>
      </trkpt>
      <trkpt lat="42.613147040829062" lon="-2.742193015292287">
        <ele>793.71000000000004</ele>
        <time>2025-04-27T15:37:48Z</time>
      </trkpt>
      <trkpt lat="42.613156009465456" lon="-2.742356965318322">
        <ele>792.74000000000001</ele>
        <time>2025-04-27T15:37:49Z</time>
      </trkpt>
      <trkpt lat="42.613119967281818" lon="-2.742528961971402">
        <ele>792.25999999999999</ele>
        <time>2025-04-27T15:37:50Z</time>
      </trkpt>
      <trkpt lat="42.613084008917212" lon="-2.742700958624482">
        <ele>791.77999999999997</ele>
        <time>2025-04-27T15:37:51Z</time>
      </trkpt>
      <trkpt lat="42.613050984218717" lon="-2.742859963327646">
        <ele>790.82000000000005</ele>
        <time>2025-04-27T15:37:52Z</time>
      </trkpt>
      <trkpt lat="42.613061964511871" lon="-2.74301502853632">
        <ele>790.34000000000003</ele>
        <time>2025-04-27T15:37:53Z</time>
      </trkpt>
      <trkpt lat="42.613086020573974" lon="-2.74314402602613">
        <ele>789.38</ele>
        <time>2025-04-27T15:37:54Z</time>
      </trkpt>
      <trkpt lat="42.613141005858779" lon="-2.74323396384716">
        <ele>788.89999999999998</ele>
        <time>2025-04-27T15:37:55Z</time>
      </trkpt>
      <trkpt lat="42.6132280100137" lon="-2.743299007415772">
        <ele>787.46000000000004</ele>
        <time>2025-04-27T15:37:56Z</time>
      </trkpt>
      <trkpt lat="42.613330017775297" lon="-2.743357010185719">
        <ele>786.5</ele>
        <time>2025-04-27T15:37:57Z</time>
      </trkpt>
      <trkpt lat="42.613458009436727" lon="-2.743399003520608">
        <ele>785.52999999999997</ele>
        <time>2025-04-27T15:37:58Z</time>
      </trkpt>
      <trkpt lat="42.614499041810632" lon="-2.743908036500216">
        <ele>780.73000000000002</ele>
        <time>2025-04-27T15:38:06Z</time>
      </trkpt>
      <trkpt lat="42.614562995731831" lon="-2.74400400929153">
        <ele>780.73000000000002</ele>
        <time>2025-04-27T15:38:07Z</time>
      </trkpt>
      <trkpt lat="42.614607000723481" lon="-2.744114985689521">
        <ele>780.73000000000002</ele>
        <time>2025-04-27T15:38:08Z</time>
      </trkpt>
      <trkpt lat="42.614628039300442" lon="-2.74422001093626">
        <ele>780.73000000000002</ele>
        <time>2025-04-27T15:38:09Z</time>
      </trkpt>
      <trkpt lat="42.614623010158539" lon="-2.744340039789677">
        <ele>780.25</ele>
        <time>2025-04-27T15:38:10Z</time>
      </trkpt>
      <trkpt lat="42.614602977409959" lon="-2.744453027844429">
        <ele>780.25</ele>
        <time>2025-04-27T15:38:11Z</time>
      </trkpt>
      <trkpt lat="42.614594008773565" lon="-2.74450097233057">
        <ele>779.76999999999998</ele>
        <time>2025-04-27T15:38:12Z</time>
      </trkpt>
      <trkpt lat="42.614493006840348" lon="-2.744601974263787">
        <ele>779.28999999999996</ele>
        <time>2025-04-27T15:38:13Z</time>
      </trkpt>
      <trkpt lat="42.614428969100118" lon="-2.744636004790664">
        <ele>778.32000000000005</ele>
        <time>2025-04-27T15:38:14Z</time>
      </trkpt>
      <trkpt lat="42.614329978823662" lon="-2.744654025882483">
        <ele>776.88</ele>
        <time>2025-04-27T15:38:15Z</time>
      </trkpt>
      <trkpt lat="42.614206010475755" lon="-2.74467196315527">
        <ele>775.44000000000005</ele>
        <time>2025-04-27T15:38:16Z</time>
      </trkpt>
      <trkpt lat="42.613482987508178" lon="-2.744654025882483">
        <ele>773.03999999999996</ele>
        <time>2025-04-27T15:38:21Z</time>
      </trkpt>
      <trkpt lat="42.613340998068452" lon="-2.744658971205354">
        <ele>772.55999999999995</ele>
        <time>2025-04-27T15:38:22Z</time>
      </trkpt>
      <trkpt lat="42.613247958943248" lon="-2.744753016158938">
        <ele>772.55999999999995</ele>
        <time>2025-04-27T15:38:23Z</time>
      </trkpt>
      <trkpt lat="42.613133965060115" lon="-2.744868015870452">
        <ele>772.08000000000004</ele>
        <time>2025-04-27T15:38:24Z</time>
      </trkpt>
      <trkpt lat="42.613071016967297" lon="-2.745025008916855">
        <ele>771.60000000000002</ele>
        <time>2025-04-27T15:38:25Z</time>
      </trkpt>
      <trkpt lat="42.613006979227066" lon="-2.74518602527678">
        <ele>770.63</ele>
        <time>2025-04-27T15:38:26Z</time>
      </trkpt>
      <trkpt lat="42.612935984507203" lon="-2.745317034423351">
        <ele>770.14999999999998</ele>
        <time>2025-04-27T15:38:27Z</time>
      </trkpt>
      <trkpt lat="42.612816039472818" lon="-2.745416024699807">
        <ele>769.66999999999996</ele>
        <time>2025-04-27T15:38:28Z</time>
      </trkpt>
      <trkpt lat="42.612687963992357" lon="-2.745520966127515">
        <ele>769.19000000000005</ele>
        <time>2025-04-27T15:38:29Z</time>
      </trkpt>
      <trkpt lat="42.611398994922638" lon="-2.746512964367867">
        <ele>763.41999999999996</ele>
        <time>2025-04-27T15:38:38Z</time>
      </trkpt>
      <trkpt lat="42.610947964712977" lon="-2.746779005974531">
        <ele>761.01999999999998</ele>
        <time>2025-04-27T15:38:41Z</time>
      </trkpt>
      <trkpt lat="42.610805975273252" lon="-2.746897023171186">
        <ele>760.05999999999995</ele>
        <time>2025-04-27T15:38:42Z</time>
      </trkpt>
      <trkpt lat="42.610677983611822" lon="-2.747031971812248">
        <ele>759.10000000000002</ele>
        <time>2025-04-27T15:38:43Z</time>
      </trkpt>
      <trkpt lat="42.610227959230542" lon="-2.747605964541435">
        <ele>756.21000000000004</ele>
        <time>2025-04-27T15:38:47Z</time>
      </trkpt>
      <trkpt lat="42.610142966732383" lon="-2.747762035578489">
        <ele>755.25</ele>
        <time>2025-04-27T15:38:48Z</time>
      </trkpt>
      <trkpt lat="42.610106002539396" lon="-2.747936965897679">
        <ele>754.76999999999998</ele>
        <time>2025-04-27T15:38:49Z</time>
      </trkpt>
      <trkpt lat="42.6100920047611" lon="-2.748110974207521">
        <ele>753.80999999999995</ele>
        <time>2025-04-27T15:38:50Z</time>
      </trkpt>
      <trkpt lat="42.610098961740732" lon="-2.74828196503222">
        <ele>752.85000000000002</ele>
        <time>2025-04-27T15:38:51Z</time>
      </trkpt>
      <trkpt lat="42.610104996711016" lon="-2.748438036069274">
        <ele>751.88999999999999</ele>
        <time>2025-04-27T15:38:52Z</time>
      </trkpt>
      <trkpt lat="42.610080018639565" lon="-2.74858295917511">
        <ele>751.40999999999997</ele>
        <time>2025-04-27T15:38:53Z</time>
      </trkpt>
      <trkpt lat="42.610003994777799" lon="-2.748707011342049">
        <ele>750.45000000000005</ele>
        <time>2025-04-27T15:38:54Z</time>
      </trkpt>
      <trkpt lat="42.609919002279639" lon="-2.748845983296633">
        <ele>749.97000000000003</ele>
        <time>2025-04-27T15:38:55Z</time>
      </trkpt>
      <trkpt lat="42.609844990074635" lon="-2.748995013535023">
        <ele>749.49000000000001</ele>
        <time>2025-04-27T15:38:56Z</time>
      </trkpt>
      <trkpt lat="42.609465960413218" lon="-2.750030010938644">
        <ele>744.20000000000005</ele>
        <time>2025-04-27T15:39:02Z</time>
      </trkpt>
      <trkpt lat="42.609465960413218" lon="-2.750207958742976">
        <ele>743.72000000000003</ele>
        <time>2025-04-27T15:39:03Z</time>
      </trkpt>
      <trkpt lat="42.609489010646939" lon="-2.75032295845449">
        <ele>742.75999999999999</ele>
        <time>2025-04-27T15:39:04Z</time>
      </trkpt>
      <trkpt lat="42.609523041173816" lon="-2.750496966764331">
        <ele>741.78999999999996</ele>
        <time>2025-04-27T15:39:05Z</time>
      </trkpt>
      <trkpt lat="42.609537960961461" lon="-2.750696958974004">
        <ele>740.83000000000004</ele>
        <time>2025-04-27T15:39:06Z</time>
      </trkpt>
      <trkpt lat="42.609547013416886" lon="-2.750898040831089">
        <ele>740.35000000000002</ele>
        <time>2025-04-27T15:39:07Z</time>
      </trkpt>
      <trkpt lat="42.609535027295351" lon="-2.751088980585337">
        <ele>739.38999999999999</ele>
        <time>2025-04-27T15:39:08Z</time>
      </trkpt>
      <trkpt lat="42.609508959576488" lon="-2.751257959753275">
        <ele>738.42999999999995</ele>
        <time>2025-04-27T15:39:09Z</time>
      </trkpt>
      <trkpt lat="42.609451040625572" lon="-2.751389974728227">
        <ele>737.95000000000005</ele>
        <time>2025-04-27T15:39:10Z</time>
      </trkpt>
      <trkpt lat="42.609370993450284" lon="-2.751497011631727">
        <ele>737.47000000000003</ele>
        <time>2025-04-27T15:39:11Z</time>
      </trkpt>
      <trkpt lat="42.609259011223912" lon="-2.751592984423041">
        <ele>736.99000000000001</ele>
        <time>2025-04-27T15:39:12Z</time>
      </trkpt>
      <trkpt lat="42.609136970713735" lon="-2.751698009669781">
        <ele>736.50999999999999</ele>
        <time>2025-04-27T15:39:13Z</time>
      </trkpt>
      <trkpt lat="42.608880987390876" lon="-2.751876041293144">
        <ele>735.07000000000005</ele>
        <time>2025-04-27T15:39:15Z</time>
      </trkpt>
      <trkpt lat="42.60873899795115" lon="-2.751933038234711">
        <ele>734.58000000000004</ele>
        <time>2025-04-27T15:39:16Z</time>
      </trkpt>
      <trkpt lat="42.608473040163517" lon="-2.751995986327529">
        <ele>733.13999999999999</ele>
        <time>2025-04-27T15:39:18Z</time>
      </trkpt>
      <trkpt lat="42.608356028795242" lon="-2.751970002427697">
        <ele>732.65999999999997</ele>
        <time>2025-04-27T15:39:19Z</time>
      </trkpt>
      <trkpt lat="42.608254021033645" lon="-2.751884004101157">
        <ele>732.17999999999995</ele>
        <time>2025-04-27T15:39:20Z</time>
      </trkpt>
      <trkpt lat="42.607872979715466" lon="-2.751550991088152">
        <ele>730.25999999999999</ele>
        <time>2025-04-27T15:39:23Z</time>
      </trkpt>
      <trkpt lat="42.607713975012302" lon="-2.751463986933231">
        <ele>729.29999999999995</ele>
        <time>2025-04-27T15:39:24Z</time>
      </trkpt>
      <trkpt lat="42.607255987823009" lon="-2.751259971410036">
        <ele>726.88999999999999</ele>
        <time>2025-04-27T15:39:27Z</time>
      </trkpt>
      <trkpt lat="42.607103018090129" lon="-2.751259971410036">
        <ele>725.92999999999995</ele>
        <time>2025-04-27T15:39:28Z</time>
      </trkpt>
      <trkpt lat="42.606947030872107" lon="-2.751277992501855">
        <ele>725.45000000000005</ele>
        <time>2025-04-27T15:39:29Z</time>
      </trkpt>
      <trkpt lat="42.606781991198659" lon="-2.751338006928563">
        <ele>724.49000000000001</ele>
        <time>2025-04-27T15:39:30Z</time>
      </trkpt>
      <trkpt lat="42.606616029515862" lon="-2.751397015526891">
        <ele>723.52999999999997</ele>
        <time>2025-04-27T15:39:31Z</time>
      </trkpt>
      <trkpt lat="42.606341019272804" lon="-2.75154403410852">
        <ele>721.61000000000001</ele>
        <time>2025-04-27T15:39:33Z</time>
      </trkpt>
      <trkpt lat="42.606245968490839" lon="-2.75165400467813">
        <ele>720.15999999999997</ele>
        <time>2025-04-27T15:39:34Z</time>
      </trkpt>
      <trkpt lat="42.606158964335918" lon="-2.751801023259759">
        <ele>719.20000000000005</ele>
        <time>2025-04-27T15:39:35Z</time>
      </trkpt>
      <trkpt lat="42.606080006808043" lon="-2.751985006034374">
        <ele>718.24000000000001</ele>
        <time>2025-04-27T15:39:36Z</time>
      </trkpt>
      <trkpt lat="42.605997025966644" lon="-2.752178963273764">
        <ele>717.27999999999997</ele>
        <time>2025-04-27T15:39:37Z</time>
      </trkpt>
      <trkpt lat="42.605868028476834" lon="-2.752566961571574">
        <ele>714.88</ele>
        <time>2025-04-27T15:39:39Z</time>
      </trkpt>
      <trkpt lat="42.605824023485184" lon="-2.75277097709477">
        <ele>713.44000000000005</ele>
        <time>2025-04-27T15:39:40Z</time>
      </trkpt>
      <trkpt lat="42.605734001845121" lon="-2.753144977614284">
        <ele>711.02999999999997</ele>
        <time>2025-04-27T15:39:42Z</time>
      </trkpt>
      <trkpt lat="42.60566895827651" lon="-2.753273975104094">
        <ele>710.07000000000005</ele>
        <time>2025-04-27T15:39:43Z</time>
      </trkpt>
      <trkpt lat="42.605567034333944" lon="-2.753327032551169">
        <ele>709.11000000000001</ele>
        <time>2025-04-27T15:39:44Z</time>
      </trkpt>
      <trkpt lat="42.605458991602063" lon="-2.753381012007594">
        <ele>708.63</ele>
        <time>2025-04-27T15:39:45Z</time>
      </trkpt>
      <trkpt lat="42.605339968577027" lon="-2.753441026434302">
        <ele>708.14999999999998</ele>
        <time>2025-04-27T15:39:46Z</time>
      </trkpt>
      <trkpt lat="42.604559026658535" lon="-2.753892978653312">
        <ele>705.75</ele>
        <time>2025-04-27T15:39:52Z</time>
      </trkpt>
      <trkpt lat="42.604486020281911" lon="-2.754021976143122">
        <ele>705.75</ele>
        <time>2025-04-27T15:39:53Z</time>
      </trkpt>
      <trkpt lat="42.604411002248526" lon="-2.754162959754467">
        <ele>705.25999999999999</ele>
        <time>2025-04-27T15:39:54Z</time>
      </trkpt>
      <trkpt lat="42.60435501113534" lon="-2.754310984164476">
        <ele>704.77999999999997</ele>
        <time>2025-04-27T15:39:55Z</time>
      </trkpt>
      <trkpt lat="42.604307988658547" lon="-2.754480969160795">
        <ele>703.82000000000005</ele>
        <time>2025-04-27T15:39:56Z</time>
      </trkpt>
      <trkpt lat="42.604259038344026" lon="-2.75466101244092">
        <ele>703.34000000000003</ele>
        <time>2025-04-27T15:39:57Z</time>
      </trkpt>
      <trkpt lat="42.604211010038853" lon="-2.75483401492238">
        <ele>702.38</ele>
        <time>2025-04-27T15:39:58Z</time>
      </trkpt>
      <trkpt lat="42.604214027523994" lon="-2.755013974383473">
        <ele>701.41999999999996</ele>
        <time>2025-04-27T15:39:59Z</time>
      </trkpt>
      <trkpt lat="42.604219978675246" lon="-2.755183037370443">
        <ele>700.46000000000004</ele>
        <time>2025-04-27T15:40:00Z</time>
      </trkpt>
      <trkpt lat="42.60422601364553" lon="-2.755344975739718">
        <ele>699.98000000000002</ele>
        <time>2025-04-27T15:40:01Z</time>
      </trkpt>
      <trkpt lat="42.604230036959052" lon="-2.755466010421515">
        <ele>699.01999999999998</ele>
        <time>2025-04-27T15:40:02Z</time>
      </trkpt>
      <trkpt lat="42.604187037795782" lon="-2.755551002919674">
        <ele>698.04999999999995</ele>
        <time>2025-04-27T15:40:03Z</time>
      </trkpt>
      <trkpt lat="42.604114031419158" lon="-2.755605988204479">
        <ele>697.09000000000003</ele>
        <time>2025-04-27T15:40:04Z</time>
      </trkpt>
      <trkpt lat="42.604071032255888" lon="-2.755598025396466">
        <ele>696.13</ele>
        <time>2025-04-27T15:40:05Z</time>
      </trkpt>
      <trkpt lat="42.603994002565742" lon="-2.755551002919674">
        <ele>695.64999999999998</ele>
        <time>2025-04-27T15:40:06Z</time>
      </trkpt>
      <trkpt lat="42.603974975645542" lon="-2.75545796379447">
        <ele>694.69000000000005</ele>
        <time>2025-04-27T15:40:07Z</time>
      </trkpt>
      <trkpt lat="42.603953015059233" lon="-2.755315974354744">
        <ele>693.73000000000002</ele>
        <time>2025-04-27T15:40:08Z</time>
      </trkpt>
      <trkpt lat="42.603967012837529" lon="-2.755148001015186">
        <ele>692.76999999999998</ele>
        <time>2025-04-27T15:40:09Z</time>
      </trkpt>
      <trkpt lat="42.603982016444206" lon="-2.75496200658381">
        <ele>692.28999999999996</ele>
        <time>2025-04-27T15:40:10Z</time>
      </trkpt>
      <trkpt lat="42.604128029197454" lon="-2.753926003351808">
        <ele>687.96000000000004</ele>
        <time>2025-04-27T15:40:15Z</time>
      </trkpt>
      <trkpt lat="42.604187037795782" lon="-2.753736991435289">
        <ele>687</ele>
        <time>2025-04-27T15:40:16Z</time>
      </trkpt>
      <trkpt lat="42.604247974231839" lon="-2.753564994782209">
        <ele>686.03999999999996</ele>
        <time>2025-04-27T15:40:17Z</time>
      </trkpt>
      <trkpt lat="42.604323998093605" lon="-2.753424011170864">
        <ele>685.08000000000004</ele>
        <time>2025-04-27T15:40:18Z</time>
      </trkpt>
      <trkpt lat="42.604397004470229" lon="-2.753306999802589">
        <ele>684.60000000000002</ele>
        <time>2025-04-27T15:40:19Z</time>
      </trkpt>
      <trkpt lat="42.60450404137373" lon="-2.753224018961191">
        <ele>683.14999999999998</ele>
        <time>2025-04-27T15:40:20Z</time>
      </trkpt>
      <trkpt lat="42.604619963094592" lon="-2.753135003149509">
        <ele>682.19000000000005</ele>
        <time>2025-04-27T15:40:21Z</time>
      </trkpt>
      <trkpt lat="42.604840993881226" lon="-2.752963006496429">
        <ele>680.75</ele>
        <time>2025-04-27T15:40:23Z</time>
      </trkpt>
      <trkpt lat="42.60489396750927" lon="-2.752851024270058">
        <ele>680.26999999999998</ele>
        <time>2025-04-27T15:40:24Z</time>
      </trkpt>
      <trkpt lat="42.60493797250092" lon="-2.752739964053035">
        <ele>679.78999999999996</ele>
        <time>2025-04-27T15:40:25Z</time>
      </trkpt>
      <trkpt lat="42.60493797250092" lon="-2.75261901319027">
        <ele>679.78999999999996</ele>
        <time>2025-04-27T15:40:26Z</time>
      </trkpt>
      <trkpt lat="42.60493797250092" lon="-2.752451039850712">
        <ele>679.30999999999995</ele>
        <time>2025-04-27T15:40:27Z</time>
      </trkpt>
      <trkpt lat="42.60493797250092" lon="-2.752273008227348">
        <ele>678.83000000000004</ele>
        <time>2025-04-27T15:40:28Z</time>
      </trkpt>
      <trkpt lat="42.60493797250092" lon="-2.752096988260746">
        <ele>678.35000000000002</ele>
        <time>2025-04-27T15:40:29Z</time>
      </trkpt>
      <trkpt lat="42.60497996583581" lon="-2.751876041293144">
        <ele>678.35000000000002</ele>
        <time>2025-04-27T15:40:30Z</time>
      </trkpt>
      <trkpt lat="42.605017013847828" lon="-2.751684011891484">
        <ele>677.87</ele>
        <time>2025-04-27T15:40:31Z</time>
      </trkpt>
      <trkpt lat="42.605036962777376" lon="-2.751498017460108">
        <ele>677.38999999999999</ele>
        <time>2025-04-27T15:40:32Z</time>
      </trkpt>
      <trkpt lat="42.605053978040814" lon="-2.751319985836744">
        <ele>676.90999999999997</ele>
        <time>2025-04-27T15:40:33Z</time>
      </trkpt>
      <trkpt lat="42.60506696999073" lon="-2.751173973083496">
        <ele>675.94000000000005</ele>
        <time>2025-04-27T15:40:34Z</time>
      </trkpt>
      <trkpt lat="42.605113992467523" lon="-2.751016980037093">
        <ele>674.98000000000002</ele>
        <time>2025-04-27T15:40:35Z</time>
      </trkpt>
      <trkpt lat="42.605155985802412" lon="-2.750873984768987">
        <ele>674.01999999999998</ele>
        <time>2025-04-27T15:40:36Z</time>
      </trkpt>
      <trkpt lat="42.605366036295891" lon="-2.750160014256835">
        <ele>669.22000000000003</ele>
        <time>2025-04-27T15:40:41Z</time>
      </trkpt>
      <trkpt lat="42.605349021032453" lon="-2.750074015930295">
        <ele>668.25</ele>
        <time>2025-04-27T15:40:42Z</time>
      </trkpt>
      <trkpt lat="42.605296969413757" lon="-2.750029005110264">
        <ele>667.28999999999996</ele>
        <time>2025-04-27T15:40:43Z</time>
      </trkpt>
      <trkpt lat="42.605241984128952" lon="-2.749995980411768">
        <ele>666.80999999999995</ele>
        <time>2025-04-27T15:40:44Z</time>
      </trkpt>
      <trkpt lat="42.605166966095567" lon="-2.750040991231799">
        <ele>665.85000000000002</ele>
        <time>2025-04-27T15:40:45Z</time>
      </trkpt>
      <trkpt lat="42.605083985254169" lon="-2.750096982344985">
        <ele>664.88999999999999</ele>
        <time>2025-04-27T15:40:46Z</time>
      </trkpt>
      <trkpt lat="42.60498097166419" lon="-2.750164959579706">
        <ele>663.92999999999995</ele>
        <time>2025-04-27T15:40:47Z</time>
      </trkpt>
      <trkpt lat="42.604904025793076" lon="-2.750249030068517">
        <ele>662.97000000000003</ele>
        <time>2025-04-27T15:40:48Z</time>
      </trkpt>
      <trkpt lat="42.604548968374729" lon="-2.75070701725781">
        <ele>660.08000000000004</ele>
        <time>2025-04-27T15:40:53Z</time>
      </trkpt>
      <trkpt lat="42.604501023888588" lon="-2.750803995877504">
        <ele>659.60000000000002</ele>
        <time>2025-04-27T15:40:54Z</time>
      </trkpt>
      <trkpt lat="42.604457018896937" lon="-2.750912960618734">
        <ele>659.12</ele>
        <time>2025-04-27T15:40:55Z</time>
      </trkpt>
      <trkpt lat="42.604403039440513" lon="-2.751136003062129">
        <ele>657.67999999999995</ele>
        <time>2025-04-27T15:40:57Z</time>
      </trkpt>
      <trkpt lat="42.604276975616813" lon="-2.751592984423041">
        <ele>654.79999999999995</ele>
        <time>2025-04-27T15:41:01Z</time>
      </trkpt>
      <trkpt lat="42.604232970625162" lon="-2.751702032983303">
        <ele>653.83000000000004</ele>
        <time>2025-04-27T15:41:02Z</time>
      </trkpt>
      <trkpt lat="42.604172034189105" lon="-2.751785013824701">
        <ele>652.87</ele>
        <time>2025-04-27T15:41:03Z</time>
      </trkpt>
      <trkpt lat="42.604103973135352" lon="-2.751872017979622">
        <ele>651.90999999999997</ele>
        <time>2025-04-27T15:41:04Z</time>
      </trkpt>
      <trkpt lat="42.604035995900631" lon="-2.751947036013007">
        <ele>650.95000000000005</ele>
        <time>2025-04-27T15:41:05Z</time>
      </trkpt>
      <trkpt lat="42.603972963988781" lon="-2.752035968005657">
        <ele>650.47000000000003</ele>
        <time>2025-04-27T15:41:06Z</time>
      </trkpt>
      <trkpt lat="42.603918984532356" lon="-2.752124983817339">
        <ele>649.99000000000001</ele>
        <time>2025-04-27T15:41:07Z</time>
      </trkpt>
      <trkpt lat="42.603860981762409" lon="-2.752219028770924">
        <ele>649.50999999999999</ele>
        <time>2025-04-27T15:41:08Z</time>
      </trkpt>
      <trkpt lat="42.603782024234533" lon="-2.752288011834025">
        <ele>649.02999999999997</ele>
        <time>2025-04-27T15:41:09Z</time>
      </trkpt>
      <trkpt lat="42.603698959574103" lon="-2.752344002947211">
        <ele>649.02999999999997</ele>
        <time>2025-04-27T15:41:10Z</time>
      </trkpt>
      <trkpt lat="42.603614972904325" lon="-2.752424972131848">
        <ele>649.02999999999997</ele>
        <time>2025-04-27T15:41:11Z</time>
      </trkpt>
      <trkpt lat="42.603550013154745" lon="-2.752517005428672">
        <ele>648.54999999999995</ele>
        <time>2025-04-27T15:41:12Z</time>
      </trkpt>
      <trkpt lat="42.603359995409846" lon="-2.752804001793265">
        <ele>646.13999999999999</ele>
        <time>2025-04-27T15:41:15Z</time>
      </trkpt>
      <trkpt lat="42.603299980983138" lon="-2.752912966534495">
        <ele>645.17999999999995</ele>
        <time>2025-04-27T15:41:16Z</time>
      </trkpt>
      <trkpt lat="42.603252036496997" lon="-2.753037018701434">
        <ele>644.70000000000005</ele>
        <time>2025-04-27T15:41:17Z</time>
      </trkpt>
      <trkpt lat="42.603220017626882" lon="-2.753184959292412">
        <ele>643.74000000000001</ele>
        <time>2025-04-27T15:41:18Z</time>
      </trkpt>
      <trkpt lat="42.603185987100005" lon="-2.753347987309098">
        <ele>643.25999999999999</ele>
        <time>2025-04-27T15:41:19Z</time>
      </trkpt>
      <trkpt lat="42.60315103456378" lon="-2.753512021154165">
        <ele>642.29999999999995</ele>
        <time>2025-04-27T15:41:20Z</time>
      </trkpt>
      <trkpt lat="42.603113986551762" lon="-2.753685023635626">
        <ele>641.82000000000005</ele>
        <time>2025-04-27T15:41:21Z</time>
      </trkpt>
      <trkpt lat="42.603054977953434" lon="-2.753814021125436">
        <ele>641.34000000000003</ele>
        <time>2025-04-27T15:41:22Z</time>
      </trkpt>
      <trkpt lat="42.602988006547093" lon="-2.753961961716414">
        <ele>640.86000000000001</ele>
        <time>2025-04-27T15:41:23Z</time>
      </trkpt>
      <trkpt lat="42.602918017655611" lon="-2.754116021096706">
        <ele>640.38</ele>
        <time>2025-04-27T15:41:24Z</time>
      </trkpt>
      <trkpt lat="42.602730011567473" lon="-2.754402011632919">
        <ele>639.40999999999997</ele>
        <time>2025-04-27T15:41:26Z</time>
      </trkpt>
      <trkpt lat="42.602610988542438" lon="-2.754510976374149">
        <ele>638.92999999999995</ele>
        <time>2025-04-27T15:41:27Z</time>
      </trkpt>
      <trkpt lat="42.602490959689021" lon="-2.754606027156115">
        <ele>638.45000000000005</ele>
        <time>2025-04-27T15:41:28Z</time>
      </trkpt>
      <trkpt lat="42.602260960265994" lon="-2.754797972738743">
        <ele>637.97000000000003</ele>
        <time>2025-04-27T15:41:30Z</time>
      </trkpt>
      <trkpt lat="42.602163981646299" lon="-2.754904003813863">
        <ele>637.97000000000003</ele>
        <time>2025-04-27T15:41:31Z</time>
      </trkpt>
      <trkpt lat="42.602076977491379" lon="-2.754997964948416">
        <ele>637.49000000000001</ele>
        <time>2025-04-27T15:41:32Z</time>
      </trkpt>
      <trkpt lat="42.602027021348476" lon="-2.755136014893651">
        <ele>637.49000000000001</ele>
        <time>2025-04-27T15:41:33Z</time>
      </trkpt>
      <trkpt lat="42.602003971114755" lon="-2.75530599988997">
        <ele>637.00999999999999</ele>
        <time>2025-04-27T15:41:34Z</time>
      </trkpt>
      <trkpt lat="42.601976981386542" lon="-2.755493000149727">
        <ele>637.00999999999999</ele>
        <time>2025-04-27T15:41:35Z</time>
      </trkpt>
      <trkpt lat="42.601948985829949" lon="-2.755695004016161">
        <ele>636.52999999999997</ele>
        <time>2025-04-27T15:41:36Z</time>
      </trkpt>
      <trkpt lat="42.601919984444976" lon="-2.755901031196117">
        <ele>636.04999999999995</ele>
        <time>2025-04-27T15:41:37Z</time>
      </trkpt>
      <trkpt lat="42.601890983060002" lon="-2.756108986213803">
        <ele>636.04999999999995</ele>
        <time>2025-04-27T15:41:38Z</time>
      </trkpt>
      <trkpt lat="42.601799033582211" lon="-2.75625298731029">
        <ele>635.57000000000005</ele>
        <time>2025-04-27T15:41:39Z</time>
      </trkpt>
      <trkpt lat="42.600820027291775" lon="-2.757633989676833">
        <ele>631.24000000000001</ele>
        <time>2025-04-27T15:41:47Z</time>
      </trkpt>
      <trkpt lat="42.600434040650725" lon="-2.758112009614706">
        <ele>627.88</ele>
        <time>2025-04-27T15:41:50Z</time>
      </trkpt>
      <trkpt lat="42.600328009575605" lon="-2.758296998217702">
        <ele>626.44000000000005</ele>
        <time>2025-04-27T15:41:51Z</time>
      </trkpt>
      <trkpt lat="42.600265983492136" lon="-2.758517023175955">
        <ele>625.47000000000003</ele>
        <time>2025-04-27T15:41:52Z</time>
      </trkpt>
      <trkpt lat="42.600217033177614" lon="-2.758748028427362">
        <ele>624.50999999999999</ele>
        <time>2025-04-27T15:41:53Z</time>
      </trkpt>
      <trkpt lat="42.600169004872441" lon="-2.75897903367877">
        <ele>623.07000000000005</ele>
        <time>2025-04-27T15:41:54Z</time>
      </trkpt>
      <trkpt lat="42.599996002390981" lon="-2.759627960622311">
        <ele>619.71000000000004</ele>
        <time>2025-04-27T15:41:57Z</time>
      </trkpt>
      <trkpt lat="42.599916961044073" lon="-2.759800041094422">
        <ele>618.25999999999999</ele>
        <time>2025-04-27T15:41:58Z</time>
      </trkpt>
      <trkpt lat="42.599804978817701" lon="-2.759928032755852">
        <ele>617.77999999999997</ele>
        <time>2025-04-27T15:41:59Z</time>
      </trkpt>
      <trkpt lat="42.598803006112576" lon="-2.760894969105721">
        <ele>612.98000000000002</ele>
        <time>2025-04-27T15:42:06Z</time>
      </trkpt>
      <trkpt lat="42.598680965602398" lon="-2.761036958545446">
        <ele>612.01999999999998</ele>
        <time>2025-04-27T15:42:07Z</time>
      </trkpt>
      <trkpt lat="42.598573006689548" lon="-2.761188000440598">
        <ele>612.01999999999998</ele>
        <time>2025-04-27T15:42:08Z</time>
      </trkpt>
      <trkpt lat="42.598492037504911" lon="-2.761351028457284">
        <ele>611.05999999999995</ele>
        <time>2025-04-27T15:42:09Z</time>
      </trkpt>
      <trkpt lat="42.598429005593061" lon="-2.761540040373802">
        <ele>610.57000000000005</ele>
        <time>2025-04-27T15:42:10Z</time>
      </trkpt>
      <trkpt lat="42.598373014479876" lon="-2.761747995391488">
        <ele>610.09000000000003</ele>
        <time>2025-04-27T15:42:11Z</time>
      </trkpt>
      <trkpt lat="42.597788963466883" lon="-2.763892002403736">
        <ele>600.96000000000004</ele>
        <time>2025-04-27T15:42:21Z</time>
      </trkpt>
      <trkpt lat="42.597763985395432" lon="-2.764084031805396">
        <ele>600.48000000000002</ele>
        <time>2025-04-27T15:42:22Z</time>
      </trkpt>
      <trkpt lat="42.597751999273896" lon="-2.764275977388024">
        <ele>599.51999999999998</ele>
        <time>2025-04-27T15:42:23Z</time>
      </trkpt>
      <trkpt lat="42.597894994542003" lon="-2.765874993056059">
        <ele>590.87</ele>
        <time>2025-04-27T15:42:31Z</time>
      </trkpt>
      <trkpt lat="42.598034972324967" lon="-2.766425013542175">
        <ele>588.46000000000004</ele>
        <time>2025-04-27T15:42:34Z</time>
      </trkpt>
      <trkpt lat="42.598072020336986" lon="-2.766559040173888">
        <ele>587.5</ele>
        <time>2025-04-27T15:42:35Z</time>
      </trkpt>
      <trkpt lat="42.598163969814777" lon="-2.766639003530145">
        <ele>586.53999999999996</ele>
        <time>2025-04-27T15:42:36Z</time>
      </trkpt>
      <trkpt lat="42.598250973969698" lon="-2.766694994643331">
        <ele>585.58000000000004</ele>
        <time>2025-04-27T15:42:37Z</time>
      </trkpt>
      <trkpt lat="42.598359016701579" lon="-2.766694994643331">
        <ele>584.62</ele>
        <time>2025-04-27T15:42:38Z</time>
      </trkpt>
      <trkpt lat="42.598470998927951" lon="-2.766663981601596">
        <ele>584.13999999999999</ele>
        <time>2025-04-27T15:42:39Z</time>
      </trkpt>
      <trkpt lat="42.598591027781367" lon="-2.766630034893751">
        <ele>583.65999999999997</ele>
        <time>2025-04-27T15:42:40Z</time>
      </trkpt>
      <trkpt lat="42.598815998062491" lon="-2.766567002981901">
        <ele>582.22000000000003</ele>
        <time>2025-04-27T15:42:42Z</time>
      </trkpt>
      <trkpt lat="42.598912976682186" lon="-2.766582006588578">
        <ele>582.22000000000003</ele>
        <time>2025-04-27T15:42:43Z</time>
      </trkpt>
      <trkpt lat="42.599001992493868" lon="-2.766612013801932">
        <ele>581.73000000000002</ele>
        <time>2025-04-27T15:42:44Z</time>
      </trkpt>
      <trkpt lat="42.599080028012395" lon="-2.766679991036654">
        <ele>581.25</ele>
        <time>2025-04-27T15:42:45Z</time>
      </trkpt>
      <trkpt lat="42.5991540402174" lon="-2.766775041818619">
        <ele>581.25</ele>
        <time>2025-04-27T15:42:46Z</time>
      </trkpt>
      <trkpt lat="42.599223023280501" lon="-2.76686598546803">
        <ele>580.76999999999998</ele>
        <time>2025-04-27T15:42:47Z</time>
      </trkpt>
      <trkpt lat="42.59924397803843" lon="-2.766965981572866">
        <ele>580.76999999999998</ele>
        <time>2025-04-27T15:42:48Z</time>
      </trkpt>
      <trkpt lat="42.599229980260134" lon="-2.767074024304748">
        <ele>580.76999999999998</ele>
        <time>2025-04-27T15:42:49Z</time>
      </trkpt>
      <trkpt lat="42.599165020510554" lon="-2.767183994874358">
        <ele>580.76999999999998</ele>
        <time>2025-04-27T15:42:50Z</time>
      </trkpt>
      <trkpt lat="42.599085979163647" lon="-2.767315004020929">
        <ele>581.25</ele>
        <time>2025-04-27T15:42:51Z</time>
      </trkpt>
      <trkpt lat="42.599001992493868" lon="-2.767461016774178">
        <ele>581.25</ele>
        <time>2025-04-27T15:42:52Z</time>
      </trkpt>
      <trkpt lat="42.598195988684893" lon="-2.76905600912869">
        <ele>577.40999999999997</ele>
        <time>2025-04-27T15:43:02Z</time>
      </trkpt>
      <trkpt lat="42.59784797206521" lon="-2.769953040406108">
        <ele>572.12</ele>
        <time>2025-04-27T15:43:07Z</time>
      </trkpt>
      <trkpt lat="42.597777983173728" lon="-2.770069967955351">
        <ele>571.15999999999997</ele>
        <time>2025-04-27T15:43:08Z</time>
      </trkpt>
      <trkpt lat="42.597679998725653" lon="-2.770155966281891">
        <ele>570.20000000000005</ele>
        <time>2025-04-27T15:43:09Z</time>
      </trkpt>
      <trkpt lat="42.597571033984423" lon="-2.770229978486896">
        <ele>569.24000000000001</ele>
        <time>2025-04-27T15:43:10Z</time>
      </trkpt>
      <trkpt lat="42.597440024837852" lon="-2.770289992913604">
        <ele>568.27999999999997</ele>
        <time>2025-04-27T15:43:11Z</time>
      </trkpt>
      <trkpt lat="42.595989033579826" lon="-2.771025002002716">
        <ele>563.47000000000003</ele>
        <time>2025-04-27T15:43:21Z</time>
      </trkpt>
      <trkpt lat="42.595885014161468" lon="-2.77114000171423">
        <ele>562.50999999999999</ele>
        <time>2025-04-27T15:43:22Z</time>
      </trkpt>
      <trkpt lat="42.595777977257967" lon="-2.77127000503242">
        <ele>561.54999999999995</ele>
        <time>2025-04-27T15:43:23Z</time>
      </trkpt>
      <trkpt lat="42.595689967274666" lon="-2.771473014727235">
        <ele>560.59000000000003</ele>
        <time>2025-04-27T15:43:24Z</time>
      </trkpt>
      <trkpt lat="42.595612015575171" lon="-2.771664038300514">
        <ele>559.62</ele>
        <time>2025-04-27T15:43:25Z</time>
      </trkpt>
      <trkpt lat="42.595362989231944" lon="-2.772271977737546">
        <ele>557.22000000000003</ele>
        <time>2025-04-27T15:43:28Z</time>
      </trkpt>
      <trkpt lat="42.595245977863669" lon="-2.772410027682781">
        <ele>556.25999999999999</ele>
        <time>2025-04-27T15:43:29Z</time>
      </trkpt>
      <trkpt lat="42.595133995637298" lon="-2.772541958838701">
        <ele>556.25999999999999</ele>
        <time>2025-04-27T15:43:30Z</time>
      </trkpt>
      <trkpt lat="42.595027964562178" lon="-2.772667016834021">
        <ele>555.77999999999997</ele>
        <time>2025-04-27T15:43:31Z</time>
      </trkpt>
      <trkpt lat="42.594943977892399" lon="-2.772801965475082">
        <ele>555.29999999999995</ele>
        <time>2025-04-27T15:43:32Z</time>
      </trkpt>
      <trkpt lat="42.594885975122452" lon="-2.772961976006627">
        <ele>554.82000000000005</ele>
        <time>2025-04-27T15:43:33Z</time>
      </trkpt>
      <trkpt lat="42.594860997051001" lon="-2.773146964609623">
        <ele>553.86000000000001</ele>
        <time>2025-04-27T15:43:34Z</time>
      </trkpt>
      <trkpt lat="42.594853034242988" lon="-2.773358020931482">
        <ele>553.38</ele>
        <time>2025-04-27T15:43:35Z</time>
      </trkpt>
      <trkpt lat="42.594853034242988" lon="-2.773577962070704">
        <ele>552.40999999999997</ele>
        <time>2025-04-27T15:43:36Z</time>
      </trkpt>
      <trkpt lat="42.594826966524124" lon="-2.774474993348122">
        <ele>548.09000000000003</ele>
        <time>2025-04-27T15:43:40Z</time>
      </trkpt>
      <trkpt lat="42.594788996502757" lon="-2.774689989164472">
        <ele>547.13</ele>
        <time>2025-04-27T15:43:41Z</time>
      </trkpt>
      <trkpt lat="42.594681959599257" lon="-2.774886041879654">
        <ele>546.16999999999996</ele>
        <time>2025-04-27T15:43:42Z</time>
      </trkpt>
      <trkpt lat="42.594566959887743" lon="-2.77509399689734">
        <ele>545.69000000000005</ele>
        <time>2025-04-27T15:43:43Z</time>
      </trkpt>
      <trkpt lat="42.594447014853358" lon="-2.775312010198832">
        <ele>544.72000000000003</ele>
        <time>2025-04-27T15:43:44Z</time>
      </trkpt>
      <trkpt lat="42.59333498775959" lon="-2.777373036369681">
        <ele>540.88</ele>
        <time>2025-04-27T15:43:54Z</time>
      </trkpt>
      <trkpt lat="42.592249028384686" lon="-2.779629025608301">
        <ele>534.14999999999998</ele>
        <time>2025-04-27T15:44:05Z</time>
      </trkpt>
      <trkpt lat="42.591971000656486" lon="-2.780236965045333">
        <ele>533.66999999999996</ele>
        <time>2025-04-27T15:44:08Z</time>
      </trkpt>
      <trkpt lat="42.591928001493216" lon="-2.780447015538812">
        <ele>533.66999999999996</ele>
        <time>2025-04-27T15:44:09Z</time>
      </trkpt>
      <trkpt lat="42.591893970966339" lon="-2.780665028840303">
        <ele>533.66999999999996</ele>
        <time>2025-04-27T15:44:10Z</time>
      </trkpt>
      <trkpt lat="42.591885002329946" lon="-2.781598018482328">
        <ele>532.71000000000004</ele>
        <time>2025-04-27T15:44:14Z</time>
      </trkpt>
      <trkpt lat="42.591940993443131" lon="-2.781792981550098">
        <ele>532.71000000000004</ele>
        <time>2025-04-27T15:44:15Z</time>
      </trkpt>
      <trkpt lat="42.592525966465473" lon="-2.78343197889626">
        <ele>529.82000000000005</ele>
        <time>2025-04-27T15:44:23Z</time>
      </trkpt>
      <trkpt lat="42.592724030837417" lon="-2.783937994390726">
        <ele>527.41999999999996</ele>
        <time>2025-04-27T15:44:26Z</time>
      </trkpt>
      <trkpt lat="42.592750014737248" lon="-2.784107979387045">
        <ele>526.46000000000004</ele>
        <time>2025-04-27T15:44:27Z</time>
      </trkpt>
      <trkpt lat="42.592728976160288" lon="-2.784272013232112">
        <ele>525.5</ele>
        <time>2025-04-27T15:44:28Z</time>
      </trkpt>
      <trkpt lat="42.592684971168637" lon="-2.784426994621754">
        <ele>525.01999999999998</ele>
        <time>2025-04-27T15:44:29Z</time>
      </trkpt>
      <trkpt lat="42.592625040560961" lon="-2.784553980454803">
        <ele>524.53999999999996</ele>
        <time>2025-04-27T15:44:30Z</time>
      </trkpt>
      <trkpt lat="42.592550022527575" lon="-2.784661017358303">
        <ele>524.05999999999995</ele>
        <time>2025-04-27T15:44:31Z</time>
      </trkpt>
      <trkpt lat="42.592455977573991" lon="-2.784734023734927">
        <ele>523.58000000000004</ele>
        <time>2025-04-27T15:44:32Z</time>
      </trkpt>
      <trkpt lat="42.592334020882845" lon="-2.784776017069817">
        <ele>523.58000000000004</ele>
        <time>2025-04-27T15:44:33Z</time>
      </trkpt>
      <trkpt lat="42.592206029221416" lon="-2.784765958786011">
        <ele>524.05999999999995</ele>
        <time>2025-04-27T15:44:34Z</time>
      </trkpt>
      <trkpt lat="42.592064961791039" lon="-2.784754978492856">
        <ele>524.53999999999996</ele>
        <time>2025-04-27T15:44:35Z</time>
      </trkpt>
      <trkpt lat="42.591628013178706" lon="-2.784765036776662">
        <ele>526.46000000000004</ele>
        <time>2025-04-27T15:44:38Z</time>
      </trkpt>
      <trkpt lat="42.591478982940316" lon="-2.784794960170984">
        <ele>526.94000000000005</ele>
        <time>2025-04-27T15:44:39Z</time>
      </trkpt>
      <trkpt lat="42.591328024864197" lon="-2.784836031496525">
        <ele>526.94000000000005</ele>
        <time>2025-04-27T15:44:40Z</time>
      </trkpt>
      <trkpt lat="42.591183017939329" lon="-2.784927980974317">
        <ele>527.41999999999996</ele>
        <time>2025-04-27T15:44:41Z</time>
      </trkpt>
      <trkpt lat="42.591032981872559" lon="-2.785022025927901">
        <ele>527.41999999999996</ele>
        <time>2025-04-27T15:44:42Z</time>
      </trkpt>
      <trkpt lat="42.590120024979115" lon="-2.785719987004995">
        <ele>526.46000000000004</ele>
        <time>2025-04-27T15:44:49Z</time>
      </trkpt>
      <trkpt lat="42.590027991682291" lon="-2.785868011415005">
        <ele>526.46000000000004</ele>
        <time>2025-04-27T15:44:50Z</time>
      </trkpt>
      <trkpt lat="42.589556006714702" lon="-2.786572007462382">
        <ele>526.94000000000005</ele>
        <time>2025-04-27T15:44:55Z</time>
      </trkpt>
      <trkpt lat="42.588995005935431" lon="-2.787156980484724">
        <ele>529.82000000000005</ele>
        <time>2025-04-27T15:45:02Z</time>
      </trkpt>
      <trkpt lat="42.588931974023581" lon="-2.787236021831632">
        <ele>529.82000000000005</ele>
        <time>2025-04-27T15:45:03Z</time>
      </trkpt>
      <trkpt lat="42.588883023709059" lon="-2.787327971309423">
        <ele>529.82000000000005</ele>
        <time>2025-04-27T15:45:04Z</time>
      </trkpt>
      <trkpt lat="42.588531989604235" lon="-2.788197007030249">
        <ele>528.86000000000001</ele>
        <time>2025-04-27T15:45:11Z</time>
      </trkpt>
      <trkpt lat="42.588483961299062" lon="-2.788327010348439">
        <ele>528.38</ele>
        <time>2025-04-27T15:45:12Z</time>
      </trkpt>
      <trkpt lat="42.588480021804571" lon="-2.788473023101687">
        <ele>527.89999999999998</ele>
        <time>2025-04-27T15:45:13Z</time>
      </trkpt>
      <trkpt lat="42.588480021804571" lon="-2.788614006713033">
        <ele>527.41999999999996</ele>
        <time>2025-04-27T15:45:14Z</time>
      </trkpt>
      <trkpt lat="42.588484967127442" lon="-2.788744010031223">
        <ele>526.94000000000005</ele>
        <time>2025-04-27T15:45:15Z</time>
      </trkpt>
      <trkpt lat="42.588494019582868" lon="-2.78886797837913">
        <ele>526.46000000000004</ele>
        <time>2025-04-27T15:45:16Z</time>
      </trkpt>
      <trkpt lat="42.588503994047642" lon="-2.788984989747405">
        <ele>525.98000000000002</ele>
        <time>2025-04-27T15:45:17Z</time>
      </trkpt>
      <trkpt lat="42.588566020131111" lon="-2.789701977744699">
        <ele>523.09000000000003</ele>
        <time>2025-04-27T15:45:26Z</time>
      </trkpt>
      <trkpt lat="42.588588986545801" lon="-2.789788981899619">
        <ele>523.09000000000003</ele>
        <time>2025-04-27T15:45:27Z</time>
      </trkpt>
      <trkpt lat="42.588623017072678" lon="-2.789841033518314">
        <ele>523.09000000000003</ele>
        <time>2025-04-27T15:45:28Z</time>
      </trkpt>
      <trkpt lat="42.588800964877009" lon="-2.790117971599102">
        <ele>522.61000000000001</ele>
        <time>2025-04-27T15:45:32Z</time>
      </trkpt>
      <trkpt lat="42.588825020939112" lon="-2.790210004895926">
        <ele>523.09000000000003</ele>
        <time>2025-04-27T15:45:33Z</time>
      </trkpt>
      <trkpt lat="42.588849999010563" lon="-2.790311006829143">
        <ele>524.05999999999995</ele>
        <time>2025-04-27T15:45:34Z</time>
      </trkpt>
      <trkpt lat="42.588874977082014" lon="-2.790414020419121">
        <ele>524.53999999999996</ele>
        <time>2025-04-27T15:45:35Z</time>
      </trkpt>
      <trkpt lat="42.588909007608891" lon="-2.790548969060183">
        <ele>525.5</ele>
        <time>2025-04-27T15:45:36Z</time>
      </trkpt>
      <trkpt lat="42.5889309681952" lon="-2.790866978466511">
        <ele>527.41999999999996</ele>
        <time>2025-04-27T15:45:39Z</time>
      </trkpt>
      <trkpt lat="42.5889309681952" lon="-2.790974015370011">
        <ele>527.89999999999998</ele>
        <time>2025-04-27T15:45:40Z</time>
      </trkpt>
      <trkpt lat="42.5889309681952" lon="-2.791079040616751">
        <ele>528.38</ele>
        <time>2025-04-27T15:45:41Z</time>
      </trkpt>
      <trkpt lat="42.5889309681952" lon="-2.791182976216078">
        <ele>528.86000000000001</ele>
        <time>2025-04-27T15:45:42Z</time>
      </trkpt>
      <trkpt lat="42.5889309681952" lon="-2.791283978149295">
        <ele>528.86000000000001</ele>
        <time>2025-04-27T15:45:43Z</time>
      </trkpt>
      <trkpt lat="42.588904984295368" lon="-2.791382968425751">
        <ele>528.86000000000001</ele>
        <time>2025-04-27T15:45:44Z</time>
      </trkpt>
      <trkpt lat="42.588871959596872" lon="-2.791490005329251">
        <ele>528.86000000000001</ele>
        <time>2025-04-27T15:45:45Z</time>
      </trkpt>
      <trkpt lat="42.588786967098713" lon="-2.791812038049102">
        <ele>528.38</ele>
        <time>2025-04-27T15:45:48Z</time>
      </trkpt>
      <trkpt lat="42.588756959885359" lon="-2.791915973648429">
        <ele>527.89999999999998</ele>
        <time>2025-04-27T15:45:49Z</time>
      </trkpt>
      <trkpt lat="42.588681019842625" lon="-2.792247980833054">
        <ele>527.41999999999996</ele>
        <time>2025-04-27T15:45:52Z</time>
      </trkpt>
      <trkpt lat="42.588658975437284" lon="-2.792358035221696">
        <ele>526.94000000000005</ele>
        <time>2025-04-27T15:45:53Z</time>
      </trkpt>
      <trkpt lat="42.588665010407567" lon="-2.792485021054745">
        <ele>526.46000000000004</ele>
        <time>2025-04-27T15:45:54Z</time>
      </trkpt>
      <trkpt lat="42.588684037327766" lon="-2.792593985795975">
        <ele>525.98000000000002</ele>
        <time>2025-04-27T15:45:55Z</time>
      </trkpt>
      <trkpt lat="42.588707003742456" lon="-2.792695993557572">
        <ele>525.5</ele>
        <time>2025-04-27T15:45:56Z</time>
      </trkpt>
      <trkpt lat="42.588737010955811" lon="-2.792791966348887">
        <ele>525.01999999999998</ele>
        <time>2025-04-27T15:45:57Z</time>
      </trkpt>
      <trkpt lat="42.588769029825926" lon="-2.792879976332188">
        <ele>524.53999999999996</ele>
        <time>2025-04-27T15:45:58Z</time>
      </trkpt>
      <trkpt lat="42.588989976793528" lon="-2.793419016525149">
        <ele>523.58000000000004</ele>
        <time>2025-04-27T15:46:05Z</time>
      </trkpt>
      <trkpt lat="42.589296000078321" lon="-2.794165005907416">
        <ele>522.13</ele>
        <time>2025-04-27T15:46:16Z</time>
      </trkpt>
      <trkpt lat="42.589415023103356" lon="-2.794392993673682">
        <ele>522.13</ele>
        <time>2025-04-27T15:46:21Z</time>
      </trkpt>
      <trkpt lat="42.589437989518046" lon="-2.794445967301726">
        <ele>522.13</ele>
        <time>2025-04-27T15:46:22Z</time>
      </trkpt>
      <trkpt lat="42.589461961761117" lon="-2.794505981728435">
        <ele>522.61000000000001</ele>
        <time>2025-04-27T15:46:23Z</time>
      </trkpt>
      <trkpt lat="42.58948802947998" lon="-2.794563984498382">
        <ele>522.61000000000001</ele>
        <time>2025-04-27T15:46:24Z</time>
      </trkpt>
      <trkpt lat="42.589514013379812" lon="-2.794621987268329">
        <ele>522.61000000000001</ele>
        <time>2025-04-27T15:46:25Z</time>
      </trkpt>
      <trkpt lat="42.58970201946795" lon="-2.795064970850945">
        <ele>523.09000000000003</ele>
        <time>2025-04-27T15:46:32Z</time>
      </trkpt>
      <trkpt lat="42.589722974225879" lon="-2.795116016641259">
        <ele>523.58000000000004</ele>
        <time>2025-04-27T15:46:33Z</time>
      </trkpt>
      <trkpt lat="42.589843003079295" lon="-2.795395972207189">
        <ele>525.5</ele>
        <time>2025-04-27T15:46:42Z</time>
      </trkpt>
      <trkpt lat="42.589923972263932" lon="-2.795624965801835">
        <ele>525.5</ele>
        <time>2025-04-27T15:46:47Z</time>
      </trkpt>
      <trkpt lat="42.58989698253572" lon="-2.795647010207176">
        <ele>525.5</ele>
        <time>2025-04-27T15:46:48Z</time>
      </trkpt>
      <trkpt lat="42.589865969493985" lon="-2.795671988278627">
        <ele>525.5</ele>
        <time>2025-04-27T15:46:49Z</time>
      </trkpt>
      <trkpt lat="42.589834034442902" lon="-2.795696966350079">
        <ele>525.5</ele>
        <time>2025-04-27T15:46:50Z</time>
      </trkpt>
      <trkpt lat="42.589805033057928" lon="-2.795721022412181">
        <ele>525.98000000000002</ele>
        <time>2025-04-27T15:46:51Z</time>
      </trkpt>
      <trkpt lat="42.589562963694334" lon="-2.796015981584787">
        <ele>527.41999999999996</ele>
        <time>2025-04-27T15:46:57Z</time>
      </trkpt>
      <trkpt lat="42.589508984237909" lon="-2.796097034588456">
        <ele>527.41999999999996</ele>
        <time>2025-04-27T15:46:58Z</time>
      </trkpt>
      <trkpt lat="42.58946699090302" lon="-2.796187978237867">
        <ele>526.94000000000005</ele>
        <time>2025-04-27T15:46:59Z</time>
      </trkpt>
      <trkpt lat="42.58923196233809" lon="-2.797059025615454">
        <ele>525.98000000000002</ele>
        <time>2025-04-27T15:47:10Z</time>
      </trkpt>
      <trkpt lat="42.589063988998532" lon="-2.797807026654482">
        <ele>524.53999999999996</ele>
        <time>2025-04-27T15:47:21Z</time>
      </trkpt>
      <trkpt lat="42.58882200345397" lon="-2.79917998239398">
        <ele>521.64999999999998</ele>
        <time>2025-04-27T15:47:33Z</time>
      </trkpt>
      <trkpt lat="42.588539030402899" lon="-2.800783021375537">
        <ele>518.28999999999996</ele>
        <time>2025-04-27T15:47:44Z</time>
      </trkpt>
      <trkpt lat="42.588458983227611" lon="-2.802382037043572">
        <ele>513.96000000000004</ele>
        <time>2025-04-27T15:47:54Z</time>
      </trkpt>
      <trkpt lat="42.588455965742469" lon="-2.804367961362004">
        <ele>508.67000000000002</ele>
        <time>2025-04-27T15:48:05Z</time>
      </trkpt>
      <trkpt lat="42.588342977687716" lon="-2.807056037709117">
        <ele>502.43000000000001</ele>
        <time>2025-04-27T15:48:16Z</time>
      </trkpt>
      <trkpt lat="42.587905023247004" lon="-2.809015978127718">
        <ele>500.5</ele>
        <time>2025-04-27T15:48:24Z</time>
      </trkpt>
      <trkpt lat="42.586728036403656" lon="-2.811955008655787">
        <ele>498.57999999999998</ele>
        <time>2025-04-27T15:48:36Z</time>
      </trkpt>
      <trkpt lat="42.585445018485188" lon="-2.815026976168156">
        <ele>493.29000000000002</ele>
        <time>2025-04-27T15:48:49Z</time>
      </trkpt>
      <trkpt lat="42.584403986111283" lon="-2.816789019852877">
        <ele>489.44999999999999</ele>
        <time>2025-04-27T15:48:57Z</time>
      </trkpt>
      <trkpt lat="42.582877976819873" lon="-2.818620968610048">
        <ele>484.63999999999999</ele>
        <time>2025-04-27T15:49:07Z</time>
      </trkpt>
      <trkpt lat="42.581422962248325" lon="-2.819929970428348">
        <ele>481.27999999999997</ele>
        <time>2025-04-27T15:49:16Z</time>
      </trkpt>
      <trkpt lat="42.58061301894486" lon="-2.821442987769842">
        <ele>475.99000000000001</ele>
        <time>2025-04-27T15:49:23Z</time>
      </trkpt>
      <trkpt lat="42.580309007316828" lon="-2.82324199564755">
        <ele>471.18000000000001</ele>
        <time>2025-04-27T15:49:30Z</time>
      </trkpt>
      <trkpt lat="42.580344965681434" lon="-2.826371965929866">
        <ele>464.93000000000001</ele>
        <time>2025-04-27T15:49:42Z</time>
      </trkpt>
      <trkpt lat="42.580546969547868" lon="-2.828778997063637">
        <ele>460.13</ele>
        <time>2025-04-27T15:49:52Z</time>
      </trkpt>
      <trkpt lat="42.58061695843935" lon="-2.829013019800186">
        <ele>459.64999999999998</ele>
        <time>2025-04-27T15:49:53Z</time>
      </trkpt>
      <trkpt lat="42.580690970644355" lon="-2.82925802282989">
        <ele>459.17000000000002</ele>
        <time>2025-04-27T15:49:54Z</time>
      </trkpt>
      <trkpt lat="42.580799013376236" lon="-2.829448040574789">
        <ele>458.20999999999998</ele>
        <time>2025-04-27T15:49:55Z</time>
      </trkpt>
      <trkpt lat="42.580918036401272" lon="-2.829637974500656">
        <ele>457.24000000000001</ele>
        <time>2025-04-27T15:49:56Z</time>
      </trkpt>
      <trkpt lat="42.581036975607276" lon="-2.829828998073936">
        <ele>456.27999999999997</ele>
        <time>2025-04-27T15:49:57Z</time>
      </trkpt>
      <trkpt lat="42.581172008067369" lon="-2.829998983070254">
        <ele>455.80000000000001</ele>
        <time>2025-04-27T15:49:58Z</time>
      </trkpt>
      <trkpt lat="42.581309974193573" lon="-2.830164022743702">
        <ele>454.83999999999997</ele>
        <time>2025-04-27T15:49:59Z</time>
      </trkpt>
      <trkpt lat="42.581448024138808" lon="-2.830329984426498">
        <ele>453.88</ele>
        <time>2025-04-27T15:50:00Z</time>
      </trkpt>
      <trkpt lat="42.583106970414519" lon="-2.831764966249466">
        <ele>447.14999999999998</ele>
        <time>2025-04-27T15:50:11Z</time>
      </trkpt>
      <trkpt lat="42.584628034383059" lon="-2.832726035267115">
        <ele>446.67000000000002</ele>
        <time>2025-04-27T15:50:21Z</time>
      </trkpt>
      <trkpt lat="42.585000023245811" lon="-2.832965003326535">
        <ele>446.19</ele>
        <time>2025-04-27T15:50:24Z</time>
      </trkpt>
      <trkpt lat="42.585104964673519" lon="-2.833062987774611">
        <ele>446.19</ele>
        <time>2025-04-27T15:50:25Z</time>
      </trkpt>
      <trkpt lat="42.585209989920259" lon="-2.833160972222686">
        <ele>445.70999999999998</ele>
        <time>2025-04-27T15:50:26Z</time>
      </trkpt>
      <trkpt lat="42.585310991853476" lon="-2.833271026611328">
        <ele>445.23000000000002</ele>
        <time>2025-04-27T15:50:27Z</time>
      </trkpt>
      <trkpt lat="42.585360025987029" lon="-2.833438999950886">
        <ele>444.75</ele>
        <time>2025-04-27T15:50:28Z</time>
      </trkpt>
      <trkpt lat="42.585411993786693" lon="-2.833617031574249">
        <ele>444.26999999999998</ele>
        <time>2025-04-27T15:50:29Z</time>
      </trkpt>
      <trkpt lat="42.585411993786693" lon="-2.833816017955542">
        <ele>443.31</ele>
        <time>2025-04-27T15:50:30Z</time>
      </trkpt>
      <trkpt lat="42.58540503680706" lon="-2.834025984629989">
        <ele>442.81999999999999</ele>
        <time>2025-04-27T15:50:31Z</time>
      </trkpt>
      <trkpt lat="42.585353991016746" lon="-2.834224971011281">
        <ele>442.81999999999999</ele>
        <time>2025-04-27T15:50:32Z</time>
      </trkpt>
      <trkpt lat="42.585301017388701" lon="-2.834432004019618">
        <ele>442.33999999999997</ele>
        <time>2025-04-27T15:50:33Z</time>
      </trkpt>
      <trkpt lat="42.584402980282903" lon="-2.838128004223108">
        <ele>441.38</ele>
        <time>2025-04-27T15:50:50Z</time>
      </trkpt>
      <trkpt lat="42.583762016147375" lon="-2.840790012851358">
        <ele>441.38</ele>
        <time>2025-04-27T15:51:01Z</time>
      </trkpt>
      <trkpt lat="42.583113005384803" lon="-2.843242976814508">
        <ele>439.45999999999998</ele>
        <time>2025-04-27T15:51:12Z</time>
      </trkpt>
      <trkpt lat="42.582734981551766" lon="-2.844782983884215">
        <ele>440.42000000000002</ele>
        <time>2025-04-27T15:51:21Z</time>
      </trkpt>
      <trkpt lat="42.582556027919054" lon="-2.845557974651456">
        <ele>440.42000000000002</ele>
        <time>2025-04-27T15:51:29Z</time>
      </trkpt>
      <trkpt lat="42.582456031814218" lon="-2.845934992656112">
        <ele>440.42000000000002</ele>
        <time>2025-04-27T15:51:33Z</time>
      </trkpt>
      <trkpt lat="42.582427030429244" lon="-2.846003975719214">
        <ele>440.42000000000002</ele>
        <time>2025-04-27T15:51:34Z</time>
      </trkpt>
      <trkpt lat="42.582325022667646" lon="-2.846249984577298">
        <ele>440.89999999999998</ele>
        <time>2025-04-27T15:51:40Z</time>
      </trkpt>
      <trkpt lat="42.582258973270655" lon="-2.846408989280462">
        <ele>441.38</ele>
        <time>2025-04-27T15:51:43Z</time>
      </trkpt>
      <trkpt lat="42.582236006855965" lon="-2.84646799787879">
        <ele>441.86000000000001</ele>
        <time>2025-04-27T15:51:44Z</time>
      </trkpt>
      <trkpt lat="42.582211028784513" lon="-2.846530023962259">
        <ele>441.86000000000001</ele>
        <time>2025-04-27T15:51:45Z</time>
      </trkpt>
      <trkpt lat="42.582193007692695" lon="-2.846575034782291">
        <ele>441.86000000000001</ele>
        <time>2025-04-27T15:51:46Z</time>
      </trkpt>
      <trkpt lat="42.582147996872663" lon="-2.8465969953686">
        <ele>442.33999999999997</ele>
        <time>2025-04-27T15:51:47Z</time>
      </trkpt>
      <trkpt lat="42.582086976617575" lon="-2.846628008410335">
        <ele>442.33999999999997</ele>
        <time>2025-04-27T15:51:48Z</time>
      </trkpt>
      <trkpt lat="42.582025034353137" lon="-2.846648963168263">
        <ele>442.33999999999997</ele>
        <time>2025-04-27T15:51:49Z</time>
      </trkpt>
      <trkpt lat="42.581978011876345" lon="-2.846661033108831">
        <ele>442.33999999999997</ele>
        <time>2025-04-27T15:51:50Z</time>
      </trkpt>
      <trkpt lat="42.581978011876345" lon="-2.846661033108831">
        <ele>441.86000000000001</ele>
        <time>2025-04-27T15:51:51Z</time>
      </trkpt>
      <trkpt lat="42.581782964989543" lon="-2.846670001745224">
        <ele>441.86000000000001</ele>
        <time>2025-04-27T15:51:52Z</time>
      </trkpt>
      <trkpt lat="42.581743989139795" lon="-2.846738984808326">
        <ele>441.38</ele>
        <time>2025-04-27T15:51:53Z</time>
      </trkpt>
      <trkpt lat="42.581697972491384" lon="-2.846818026155233">
        <ele>441.38</ele>
        <time>2025-04-27T15:51:54Z</time>
      </trkpt>
      <trkpt lat="42.581651033833623" lon="-2.846896983683109">
        <ele>441.38</ele>
        <time>2025-04-27T15:51:55Z</time>
      </trkpt>
      <trkpt lat="42.581606023013592" lon="-2.846970995888114">
        <ele>440.89999999999998</ele>
        <time>2025-04-27T15:51:56Z</time>
      </trkpt>
      <trkpt lat="42.581060025840998" lon="-2.847841959446669">
        <ele>441.38</ele>
        <time>2025-04-27T15:52:05Z</time>
      </trkpt>
      <trkpt lat="42.580503970384598" lon="-2.848907969892025">
        <ele>441.86000000000001</ele>
        <time>2025-04-27T15:52:14Z</time>
      </trkpt>
      <trkpt lat="42.580268019810319" lon="-2.849537031725049">
        <ele>440.89999999999998</ele>
        <time>2025-04-27T15:52:22Z</time>
      </trkpt>
      <trkpt lat="42.580171963199973" lon="-2.84977599978447">
        <ele>440.42000000000002</ele>
        <time>2025-04-27T15:52:25Z</time>
      </trkpt>
      <trkpt lat="42.580126030370593" lon="-2.849848000332713">
        <ele>439.94</ele>
        <time>2025-04-27T15:52:26Z</time>
      </trkpt>
      <trkpt lat="42.580069033429027" lon="-2.849912960082293">
        <ele>439.94</ele>
        <time>2025-04-27T15:52:27Z</time>
      </trkpt>
      <trkpt lat="42.580003989860415" lon="-2.849986972287297">
        <ele>440.42000000000002</ele>
        <time>2025-04-27T15:52:28Z</time>
      </trkpt>
      <trkpt lat="42.579943975433707" lon="-2.850038018077612">
        <ele>440.42000000000002</ele>
        <time>2025-04-27T15:52:29Z</time>
      </trkpt>
      <trkpt lat="42.579221036285162" lon="-2.850583009421825">
        <ele>442.81999999999999</ele>
        <time>2025-04-27T15:52:39Z</time>
      </trkpt>
      <trkpt lat="42.579134032130241" lon="-2.850630031898618">
        <ele>443.31</ele>
        <time>2025-04-27T15:52:40Z</time>
      </trkpt>
      <trkpt lat="42.579049039632082" lon="-2.850630031898618">
        <ele>443.79000000000002</ele>
        <time>2025-04-27T15:52:41Z</time>
      </trkpt>
      <trkpt lat="42.578972009941936" lon="-2.850603964179754">
        <ele>444.26999999999998</ele>
        <time>2025-04-27T15:52:42Z</time>
      </trkpt>
      <trkpt lat="42.578901015222073" lon="-2.850563982501626">
        <ele>444.26999999999998</ele>
        <time>2025-04-27T15:52:43Z</time>
      </trkpt>
      <trkpt lat="42.578832032158971" lon="-2.850510003045201">
        <ele>444.75</ele>
        <time>2025-04-27T15:52:44Z</time>
      </trkpt>
      <trkpt lat="42.578771011903882" lon="-2.850447976961732">
        <ele>444.75</ele>
        <time>2025-04-27T15:52:45Z</time>
      </trkpt>
      <trkpt lat="42.578536989167333" lon="-2.850214038044214">
        <ele>444.75</ele>
        <time>2025-04-27T15:52:49Z</time>
      </trkpt>
      <trkpt lat="42.578115966171026" lon="-2.849793015047908">
        <ele>444.75</ele>
        <time>2025-04-27T15:52:57Z</time>
      </trkpt>
      <trkpt lat="42.578027034178376" lon="-2.849767031148076">
        <ele>444.75</ele>
        <time>2025-04-27T15:52:58Z</time>
      </trkpt>
      <trkpt lat="42.577988980337977" lon="-2.849754961207509">
        <ele>444.75</ele>
        <time>2025-04-27T15:52:59Z</time>
      </trkpt>
      <trkpt lat="42.577923014760017" lon="-2.849736018106341">
        <ele>444.75</ele>
        <time>2025-04-27T15:53:01Z</time>
      </trkpt>
      <trkpt lat="42.577867023646832" lon="-2.849703999236226">
        <ele>444.75</ele>
        <time>2025-04-27T15:53:02Z</time>
      </trkpt>
      <trkpt lat="42.577823018655181" lon="-2.849671980366111">
        <ele>444.75</ele>
        <time>2025-04-27T15:53:03Z</time>
      </trkpt>
      <trkpt lat="42.577665019780397" lon="-2.849556980654597">
        <ele>444.75</ele>
        <time>2025-04-27T15:53:04Z</time>
      </trkpt>
      <trkpt lat="42.57764901034534" lon="-2.849482968449593">
        <ele>444.26999999999998</ele>
        <time>2025-04-27T15:53:05Z</time>
      </trkpt>
      <trkpt lat="42.577342987060547" lon="-2.848439002409577">
        <ele>447.63</ele>
        <time>2025-04-27T15:53:18Z</time>
      </trkpt>
      <trkpt lat="42.577189011499286" lon="-2.84782201051712">
        <ele>452.44</ele>
        <time>2025-04-27T15:53:27Z</time>
      </trkpt>
      <trkpt lat="42.577171996235847" lon="-2.84775503911078">
        <ele>452.92000000000002</ele>
        <time>2025-04-27T15:53:28Z</time>
      </trkpt>
      <trkpt lat="42.577165961265564" lon="-2.84771203994751">
        <ele>452.92000000000002</ele>
        <time>2025-04-27T15:53:29Z</time>
      </trkpt>
      <trkpt lat="42.577159004285932" lon="-2.84764900803566">
        <ele>453.39999999999998</ele>
        <time>2025-04-27T15:53:30Z</time>
      </trkpt>
      <trkpt lat="42.577151041477919" lon="-2.847584970295429">
        <ele>453.88</ele>
        <time>2025-04-27T15:53:31Z</time>
      </trkpt>
      <trkpt lat="42.577150035649538" lon="-2.847582958638668">
        <ele>454.36000000000001</ele>
        <time>2025-04-27T15:53:32Z</time>
      </trkpt>
      <trkpt lat="42.577243996784091" lon="-2.847378021106124">
        <ele>455.31999999999999</ele>
        <time>2025-04-27T15:53:34Z</time>
      </trkpt>
      <trkpt lat="42.577235028147697" lon="-2.847319012507796">
        <ele>455.80000000000001</ele>
        <time>2025-04-27T15:53:35Z</time>
      </trkpt>
      <trkpt lat="42.577225975692272" lon="-2.847266960889101">
        <ele>456.27999999999997</ele>
        <time>2025-04-27T15:53:36Z</time>
      </trkpt>
      <trkpt lat="42.577218012884259" lon="-2.847213987261057">
        <ele>456.75999999999999</ele>
        <time>2025-04-27T15:53:37Z</time>
      </trkpt>
      <trkpt lat="42.577208960428834" lon="-2.847164031118155">
        <ele>456.75999999999999</ele>
        <time>2025-04-27T15:53:38Z</time>
      </trkpt>
      <trkpt lat="42.577203009277582" lon="-2.847128994762898">
        <ele>457.24000000000001</ele>
        <time>2025-04-27T15:53:39Z</time>
      </trkpt>
      <trkpt lat="42.577106030657887" lon="-2.847088007256389">
        <ele>457.24000000000001</ele>
        <time>2025-04-27T15:53:40Z</time>
      </trkpt>
      <trkpt lat="42.577083986252546" lon="-2.847093036398292">
        <ele>457.72000000000003</ele>
        <time>2025-04-27T15:53:41Z</time>
      </trkpt>
      <trkpt lat="42.577065965160728" lon="-2.847096975892782">
        <ele>457.72000000000003</ele>
        <time>2025-04-27T15:53:42Z</time>
      </trkpt>
      <trkpt lat="42.57704702205956" lon="-2.847100999206305">
        <ele>457.72000000000003</ele>
        <time>2025-04-27T15:53:43Z</time>
      </trkpt>
      <trkpt lat="42.576995976269245" lon="-2.847196971997619">
        <ele>458.69</ele>
        <time>2025-04-27T15:53:48Z</time>
      </trkpt>
      <trkpt lat="42.576991030946374" lon="-2.847292022779584">
        <ele>458.69</ele>
        <time>2025-04-27T15:53:50Z</time>
      </trkpt>
      <trkpt lat="42.576988013461232" lon="-2.847350025549531">
        <ele>458.69</ele>
        <time>2025-04-27T15:53:51Z</time>
      </trkpt>
      <trkpt lat="42.57698499597609" lon="-2.847405010834336">
        <ele>458.69</ele>
        <time>2025-04-27T15:53:52Z</time>
      </trkpt>
      <trkpt lat="42.576981978490949" lon="-2.847453039139509">
        <ele>458.69</ele>
        <time>2025-04-27T15:53:53Z</time>
      </trkpt>
      <trkpt lat="42.576978961005807" lon="-2.847519004717469">
        <ele>458.20999999999998</ele>
        <time>2025-04-27T15:53:54Z</time>
      </trkpt>
      <trkpt lat="42.576987007632852" lon="-2.84762897528708">
        <ele>459.17000000000002</ele>
        <time>2025-04-27T15:54:04Z</time>
      </trkpt>
      <trkpt lat="42.576987007632852" lon="-2.84762897528708">
        <ele>459.17000000000002</ele>
        <time>2025-04-27T15:54:32Z</time>
      </trkpt>
      <trkpt lat="42.576990025117993" lon="-2.847670968621969">
        <ele>462.05000000000001</ele>
        <time>2025-04-27T15:54:46Z</time>
      </trkpt>
      <trkpt lat="42.576990025117993" lon="-2.847670968621969">
        <ele>462.05000000000001</ele>
        <time>2025-04-27T15:54:59Z</time>
      </trkpt>
      <trkpt lat="42.576990025117993" lon="-2.847670968621969">
        <ele>461.08999999999997</ele>
        <time>2025-04-27T15:55:20Z</time>
      </trkpt>
      <trkpt lat="42.576990025117993" lon="-2.847670968621969">
        <ele>461.08999999999997</ele>
        <time>2025-04-27T15:55:45Z</time>
      </trkpt>
      <trkpt lat="42.57689799182117" lon="-2.848330959677696">
        <ele>472.13999999999999</ele>
        <time>2025-04-28T07:03:14Z</time>
      </trkpt>
      <trkpt lat="42.576806964352727" lon="-2.848485019057989">
        <ele>474.06999999999999</ele>
        <time>2025-04-28T07:03:37Z</time>
      </trkpt>
      <trkpt lat="42.576806964352727" lon="-2.848485019057989">
        <ele>474.55000000000001</ele>
        <time>2025-04-28T07:03:38Z</time>
      </trkpt>
      <trkpt lat="42.576806964352727" lon="-2.848485019057989">
        <ele>474.55000000000001</ele>
        <time>2025-04-28T07:03:39Z</time>
      </trkpt>
      <trkpt lat="42.577078035101295" lon="-2.848891038447619">
        <ele>474.06999999999999</ele>
        <time>2025-04-28T07:03:50Z</time>
      </trkpt>
      <trkpt lat="42.577064959332347" lon="-2.849191026762128">
        <ele>474.06999999999999</ele>
        <time>2025-04-28T07:03:57Z</time>
      </trkpt>
      <trkpt lat="42.577049033716321" lon="-2.849250035360456">
        <ele>474.55000000000001</ele>
        <time>2025-04-28T07:03:58Z</time>
      </trkpt>
      <trkpt lat="42.577029000967741" lon="-2.849294040352106">
        <ele>475.02999999999997</ele>
        <time>2025-04-28T07:03:59Z</time>
      </trkpt>
      <trkpt lat="42.577008968219161" lon="-2.849338967353106">
        <ele>475.02999999999997</ele>
        <time>2025-04-28T07:04:00Z</time>
      </trkpt>
      <trkpt lat="42.576992036774755" lon="-2.849379032850266">
        <ele>475.50999999999999</ele>
        <time>2025-04-28T07:04:01Z</time>
      </trkpt>
      <trkpt lat="42.576972004026175" lon="-2.849423959851265">
        <ele>475.50999999999999</ele>
        <time>2025-04-28T07:04:02Z</time>
      </trkpt>
      <trkpt lat="42.576883994042873" lon="-2.849623030051589">
        <ele>475.50999999999999</ele>
        <time>2025-04-28T07:04:06Z</time>
      </trkpt>
      <trkpt lat="42.576822973787785" lon="-2.849760996177793">
        <ele>475.50999999999999</ele>
        <time>2025-04-28T07:04:09Z</time>
      </trkpt>
      <trkpt lat="42.576729012653232" lon="-2.849980015307665">
        <ele>474.55000000000001</ele>
        <time>2025-04-28T07:04:13Z</time>
      </trkpt>
      <trkpt lat="42.576681990176439" lon="-2.850101971998811">
        <ele>474.06999999999999</ele>
        <time>2025-04-28T07:04:15Z</time>
      </trkpt>
      <trkpt lat="42.576659023761749" lon="-2.850161986425519">
        <ele>474.06999999999999</ele>
        <time>2025-04-28T07:04:16Z</time>
      </trkpt>
      <trkpt lat="42.576635973528028" lon="-2.850222000852227">
        <ele>474.06999999999999</ele>
        <time>2025-04-28T07:04:17Z</time>
      </trkpt>
      <trkpt lat="42.576497001573443" lon="-2.850537998601794">
        <ele>472.13999999999999</ele>
        <time>2025-04-28T07:04:22Z</time>
      </trkpt>
      <trkpt lat="42.576373033225536" lon="-2.850704966112971">
        <ele>471.18000000000001</ele>
        <time>2025-04-28T07:04:26Z</time>
      </trkpt>
      <trkpt lat="42.576366998255253" lon="-2.850746959447861">
        <ele>471.18000000000001</ele>
        <time>2025-04-28T07:04:27Z</time>
      </trkpt>
      <trkpt lat="42.576315030455589" lon="-2.850884003564715">
        <ele>469.74000000000001</ele>
        <time>2025-04-28T07:04:30Z</time>
      </trkpt>
      <trkpt lat="42.57627597078681" lon="-2.850938988849521">
        <ele>469.25999999999999</ele>
        <time>2025-04-28T07:04:31Z</time>
      </trkpt>
      <trkpt lat="42.57616801187396" lon="-2.851095981895924">
        <ele>467.81999999999999</ele>
        <time>2025-04-28T07:04:34Z</time>
      </trkpt>
      <trkpt lat="42.576162982732058" lon="-2.851102016866207">
        <ele>467.33999999999997</ele>
        <time>2025-04-28T07:04:35Z</time>
      </trkpt>
      <trkpt lat="42.576187960803509" lon="-2.851131018251181">
        <ele>467.33999999999997</ele>
        <time>2025-04-28T07:04:36Z</time>
      </trkpt>
      <trkpt lat="42.57623003795743" lon="-2.851181980222464">
        <ele>467.33999999999997</ele>
        <time>2025-04-28T07:04:37Z</time>
      </trkpt>
      <trkpt lat="42.576268007978797" lon="-2.851225985214114">
        <ele>467.33999999999997</ele>
        <time>2025-04-28T07:04:38Z</time>
      </trkpt>
      <trkpt lat="42.576306983828545" lon="-2.851272001862526">
        <ele>467.33999999999997</ele>
        <time>2025-04-28T07:04:39Z</time>
      </trkpt>
      <trkpt lat="42.576388958841562" lon="-2.851368980482221">
        <ele>466.38</ele>
        <time>2025-04-28T07:04:41Z</time>
      </trkpt>
      <trkpt lat="42.576420977711678" lon="-2.85138700157404">
        <ele>466.38</ele>
        <time>2025-04-28T07:04:42Z</time>
      </trkpt>
      <trkpt lat="42.576462971046567" lon="-2.851398987695575">
        <ele>465.89999999999998</ele>
        <time>2025-04-28T07:04:43Z</time>
      </trkpt>
      <trkpt lat="42.576495995745063" lon="-2.851408962160349">
        <ele>465.42000000000002</ele>
        <time>2025-04-28T07:04:44Z</time>
      </trkpt>
      <trkpt lat="42.576549975201488" lon="-2.851423965767026">
        <ele>464.93000000000001</ele>
        <time>2025-04-28T07:04:45Z</time>
      </trkpt>
      <trkpt lat="42.57655399851501" lon="-2.851421032100916">
        <ele>463.97000000000003</ele>
        <time>2025-04-28T07:04:46Z</time>
      </trkpt>
      <trkpt lat="42.576599009335041" lon="-2.851390019059181">
        <ele>463.49000000000001</ele>
        <time>2025-04-28T07:04:47Z</time>
      </trkpt>
      <trkpt lat="42.576744016259909" lon="-2.851289017125964">
        <ele>462.05000000000001</ele>
        <time>2025-04-28T07:04:49Z</time>
      </trkpt>
      <trkpt lat="42.576815010979772" lon="-2.851239982992411">
        <ele>461.56999999999999</ele>
        <time>2025-04-28T07:04:50Z</time>
      </trkpt>
      <trkpt lat="42.577042998746037" lon="-2.851080978289247">
        <ele>459.64999999999998</ele>
        <time>2025-04-28T07:04:54Z</time>
      </trkpt>
      <trkpt lat="42.577125979587436" lon="-2.851080978289247">
        <ele>459.17000000000002</ele>
        <time>2025-04-28T07:04:55Z</time>
      </trkpt>
      <trkpt lat="42.577214995399117" lon="-2.851080978289247">
        <ele>458.69</ele>
        <time>2025-04-28T07:04:57Z</time>
      </trkpt>
      <trkpt lat="42.577265035361052" lon="-2.850919039919972">
        <ele>457.72000000000003</ele>
        <time>2025-04-28T07:04:58Z</time>
      </trkpt>
      <trkpt lat="42.577290013432503" lon="-2.850841004401445">
        <ele>457.24000000000001</ele>
        <time>2025-04-28T07:04:59Z</time>
      </trkpt>
      <trkpt lat="42.577319014817476" lon="-2.850746037438512">
        <ele>455.80000000000001</ele>
        <time>2025-04-28T07:05:00Z</time>
      </trkpt>
      <trkpt lat="42.577351033687592" lon="-2.850644029676914">
        <ele>455.31999999999999</ele>
        <time>2025-04-28T07:05:01Z</time>
      </trkpt>
      <trkpt lat="42.577501991763711" lon="-2.850212026387453">
        <ele>452.92000000000002</ele>
        <time>2025-04-28T07:05:05Z</time>
      </trkpt>
      <trkpt lat="42.57773601450026" lon="-2.849827967584133">
        <ele>451.95999999999998</ele>
        <time>2025-04-28T07:05:10Z</time>
      </trkpt>
      <trkpt lat="42.577811032533646" lon="-2.849783962592483">
        <ele>452.44</ele>
        <time>2025-04-28T07:05:11Z</time>
      </trkpt>
      <trkpt lat="42.577900970354676" lon="-2.849728977307677">
        <ele>452.92000000000002</ele>
        <time>2025-04-28T07:05:12Z</time>
      </trkpt>
      <trkpt lat="42.577946987003088" lon="-2.849742975085974">
        <ele>453.88</ele>
        <time>2025-04-28T07:05:13Z</time>
      </trkpt>
      <trkpt lat="42.57803700864315" lon="-2.849769964814186">
        <ele>454.36000000000001</ele>
        <time>2025-04-28T07:05:14Z</time>
      </trkpt>
      <trkpt lat="42.578133987262845" lon="-2.849811036139727">
        <ele>454.36000000000001</ele>
        <time>2025-04-28T07:05:15Z</time>
      </trkpt>
      <trkpt lat="42.578848041594028" lon="-2.850525006651878">
        <ele>451</ele>
        <time>2025-04-28T07:05:24Z</time>
      </trkpt>
      <trkpt lat="42.579017020761967" lon="-2.850689962506294">
        <ele>450.02999999999997</ele>
        <time>2025-04-28T07:05:27Z</time>
      </trkpt>
      <trkpt lat="42.579017020761967" lon="-2.850770009681583">
        <ele>450.02999999999997</ele>
        <time>2025-04-28T07:05:28Z</time>
      </trkpt>
      <trkpt lat="42.579012997448444" lon="-2.850861037150025">
        <ele>450.02999999999997</ele>
        <time>2025-04-28T07:05:29Z</time>
      </trkpt>
      <trkpt lat="42.579005034640431" lon="-2.850966984406114">
        <ele>449.55000000000001</ele>
        <time>2025-04-28T07:05:30Z</time>
      </trkpt>
      <trkpt lat="42.578996988013387" lon="-2.851081984117627">
        <ele>449.55000000000001</ele>
        <time>2025-04-28T07:05:31Z</time>
      </trkpt>
      <trkpt lat="42.578929010778666" lon="-2.852360978722572">
        <ele>448.11000000000001</ele>
        <time>2025-04-28T07:05:40Z</time>
      </trkpt>
      <trkpt lat="42.578958012163639" lon="-2.852472960948944">
        <ele>448.58999999999997</ele>
        <time>2025-04-28T07:05:41Z</time>
      </trkpt>
      <trkpt lat="42.578992964699864" lon="-2.852577986195684">
        <ele>448.58999999999997</ele>
        <time>2025-04-28T07:05:42Z</time>
      </trkpt>
      <trkpt lat="42.579047027975321" lon="-2.852686028927565">
        <ele>448.58999999999997</ele>
        <time>2025-04-28T07:05:43Z</time>
      </trkpt>
      <trkpt lat="42.579102013260126" lon="-2.852794993668795">
        <ele>449.06999999999999</ele>
        <time>2025-04-28T07:05:44Z</time>
      </trkpt>
      <trkpt lat="42.579167978838086" lon="-2.852905970066786">
        <ele>449.06999999999999</ele>
        <time>2025-04-28T07:05:45Z</time>
      </trkpt>
      <trkpt lat="42.579723028466105" lon="-2.853992013260722">
        <ele>451.48000000000002</ele>
        <time>2025-04-28T07:05:54Z</time>
      </trkpt>
      <trkpt lat="42.580360975116491" lon="-2.855228008702397">
        <ele>453.39999999999998</ele>
        <time>2025-04-28T07:06:04Z</time>
      </trkpt>
      <trkpt lat="42.580934967845678" lon="-2.856275998055935">
        <ele>455.80000000000001</ele>
        <time>2025-04-28T07:06:14Z</time>
      </trkpt>
      <trkpt lat="42.580976039171219" lon="-2.856400972232223">
        <ele>456.27999999999997</ele>
        <time>2025-04-28T07:06:15Z</time>
      </trkpt>
      <trkpt lat="42.581015015020967" lon="-2.856527036055923">
        <ele>456.27999999999997</ele>
        <time>2025-04-28T07:06:16Z</time>
      </trkpt>
      <trkpt lat="42.581052985042334" lon="-2.856934983283281">
        <ele>456.27999999999997</ele>
        <time>2025-04-28T07:06:19Z</time>
      </trkpt>
      <trkpt lat="42.581047033891082" lon="-2.857068004086614">
        <ele>456.75999999999999</ele>
        <time>2025-04-28T07:06:20Z</time>
      </trkpt>
      <trkpt lat="42.581034963950515" lon="-2.857350977137685">
        <ele>457.24000000000001</ele>
        <time>2025-04-28T07:06:22Z</time>
      </trkpt>
      <trkpt lat="42.581042004749179" lon="-2.857503024861217">
        <ele>457.24000000000001</ele>
        <time>2025-04-28T07:06:23Z</time>
      </trkpt>
      <trkpt lat="42.581050973385572" lon="-2.85766001790762">
        <ele>457.72000000000003</ele>
        <time>2025-04-28T07:06:24Z</time>
      </trkpt>
      <trkpt lat="42.581092966720462" lon="-2.857827991247177">
        <ele>458.20999999999998</ele>
        <time>2025-04-28T07:06:25Z</time>
      </trkpt>
      <trkpt lat="42.58115298114717" lon="-2.857982972636819">
        <ele>458.69</ele>
        <time>2025-04-28T07:06:26Z</time>
      </trkpt>
      <trkpt lat="42.581220036372542" lon="-2.858138959854841">
        <ele>459.17000000000002</ele>
        <time>2025-04-28T07:06:27Z</time>
      </trkpt>
      <trkpt lat="42.581308968365192" lon="-2.858264017850161">
        <ele>460.13</ele>
        <time>2025-04-28T07:06:28Z</time>
      </trkpt>
      <trkpt lat="42.581401001662016" lon="-2.85839200951159">
        <ele>460.13</ele>
        <time>2025-04-28T07:06:29Z</time>
      </trkpt>
      <trkpt lat="42.581520024687052" lon="-2.858474990352988">
        <ele>460.61000000000001</ele>
        <time>2025-04-28T07:06:30Z</time>
      </trkpt>
      <trkpt lat="42.581639969721437" lon="-2.858525030314922">
        <ele>460.61000000000001</ele>
        <time>2025-04-28T07:06:31Z</time>
      </trkpt>
      <trkpt lat="42.581764021888375" lon="-2.858513966202736">
        <ele>460.61000000000001</ele>
        <time>2025-04-28T07:06:32Z</time>
      </trkpt>
      <trkpt lat="42.581892013549805" lon="-2.858502985909581">
        <ele>461.08999999999997</ele>
        <time>2025-04-28T07:06:33Z</time>
      </trkpt>
      <trkpt lat="42.582021011039615" lon="-2.858489993959665">
        <ele>461.56999999999999</ele>
        <time>2025-04-28T07:06:34Z</time>
      </trkpt>
      <trkpt lat="42.582155959680676" lon="-2.858510026708245">
        <ele>462.05000000000001</ele>
        <time>2025-04-28T07:06:35Z</time>
      </trkpt>
      <trkpt lat="42.582285040989518" lon="-2.858566017821431">
        <ele>462.52999999999997</ele>
        <time>2025-04-28T07:06:36Z</time>
      </trkpt>
      <trkpt lat="42.582411020994186" lon="-2.858645981177688">
        <ele>462.52999999999997</ele>
        <time>2025-04-28T07:06:37Z</time>
      </trkpt>
      <trkpt lat="42.583674006164074" lon="-2.859420971944928">
        <ele>467.81999999999999</ele>
        <time>2025-04-28T07:06:47Z</time>
      </trkpt>
      <trkpt lat="42.584641026332974" lon="-2.860052967444062">
        <ele>469.74000000000001</ele>
        <time>2025-04-28T07:06:57Z</time>
      </trkpt>
      <trkpt lat="42.58534200489521" lon="-2.860464015975595">
        <ele>471.66000000000003</ele>
        <time>2025-04-28T07:07:03Z</time>
      </trkpt>
      <trkpt lat="42.585472008213401" lon="-2.860509026795626">
        <ele>472.13999999999999</ele>
        <time>2025-04-28T07:07:04Z</time>
      </trkpt>
      <trkpt lat="42.585605029016733" lon="-2.860535010695458">
        <ele>472.63</ele>
        <time>2025-04-28T07:07:05Z</time>
      </trkpt>
      <trkpt lat="42.585742995142937" lon="-2.860528975725174">
        <ele>473.11000000000001</ele>
        <time>2025-04-28T07:07:06Z</time>
      </trkpt>
      <trkpt lat="42.585889007896185" lon="-2.860507015138865">
        <ele>473.11000000000001</ele>
        <time>2025-04-28T07:07:07Z</time>
      </trkpt>
      <trkpt lat="42.586038038134575" lon="-2.860452029854059">
        <ele>473.11000000000001</ele>
        <time>2025-04-28T07:07:08Z</time>
      </trkpt>
      <trkpt lat="42.586186984553933" lon="-2.860385980457068">
        <ele>473.58999999999997</ele>
        <time>2025-04-28T07:07:09Z</time>
      </trkpt>
      <trkpt lat="42.586337020620704" lon="-2.860320014879108">
        <ele>473.58999999999997</ele>
        <time>2025-04-28T07:07:10Z</time>
      </trkpt>
      <trkpt lat="42.587851965799928" lon="-2.859652983024716">
        <ele>476.47000000000003</ele>
        <time>2025-04-28T07:07:20Z</time>
      </trkpt>
      <trkpt lat="42.588225966319442" lon="-2.859391970559955">
        <ele>475.50999999999999</ele>
        <time>2025-04-28T07:07:23Z</time>
      </trkpt>
      <trkpt lat="42.588338032364845" lon="-2.859356012195349">
        <ele>475.50999999999999</ele>
        <time>2025-04-28T07:07:24Z</time>
      </trkpt>
      <trkpt lat="42.588458983227611" lon="-2.859342014417052">
        <ele>475.50999999999999</ele>
        <time>2025-04-28T07:07:25Z</time>
      </trkpt>
      <trkpt lat="42.588580017909408" lon="-2.859383001923561">
        <ele>475.50999999999999</ele>
        <time>2025-04-28T07:07:26Z</time>
      </trkpt>
      <trkpt lat="42.588710021227598" lon="-2.859426001086831">
        <ele>475.50999999999999</ele>
        <time>2025-04-28T07:07:27Z</time>
      </trkpt>
      <trkpt lat="42.588948989287019" lon="-2.859590034931898">
        <ele>475.50999999999999</ele>
        <time>2025-04-28T07:07:29Z</time>
      </trkpt>
      <trkpt lat="42.589050997048616" lon="-2.859692964702845">
        <ele>475.02999999999997</ele>
        <time>2025-04-28T07:07:30Z</time>
      </trkpt>
      <trkpt lat="42.589116962626576" lon="-2.859837971627712">
        <ele>474.55000000000001</ele>
        <time>2025-04-28T07:07:31Z</time>
      </trkpt>
      <trkpt lat="42.589157028123736" lon="-2.860010974109173">
        <ele>474.55000000000001</ele>
        <time>2025-04-28T07:07:32Z</time>
      </trkpt>
      <trkpt lat="42.589175971224904" lon="-2.860199986025691">
        <ele>474.06999999999999</ele>
        <time>2025-04-28T07:07:33Z</time>
      </trkpt>
      <trkpt lat="42.589196003973484" lon="-2.860394027084112">
        <ele>473.58999999999997</ele>
        <time>2025-04-28T07:07:34Z</time>
      </trkpt>
      <trkpt lat="42.589216958731413" lon="-2.860592007637024">
        <ele>473.11000000000001</ele>
        <time>2025-04-28T07:07:35Z</time>
      </trkpt>
      <trkpt lat="42.589274039492011" lon="-2.86114496178925">
        <ele>471.18000000000001</ele>
        <time>2025-04-28T07:07:38Z</time>
      </trkpt>
      <trkpt lat="42.589334975928068" lon="-2.861267002299428">
        <ele>470.69999999999999</ele>
        <time>2025-04-28T07:07:39Z</time>
      </trkpt>
      <trkpt lat="42.589400019496679" lon="-2.861375967040658">
        <ele>469.74000000000001</ele>
        <time>2025-04-28T07:07:40Z</time>
      </trkpt>
      <trkpt lat="42.589503033086658" lon="-2.86146598868072">
        <ele>469.25999999999999</ele>
        <time>2025-04-28T07:07:41Z</time>
      </trkpt>
      <trkpt lat="42.58961602114141" lon="-2.861538995057344">
        <ele>468.30000000000001</ele>
        <time>2025-04-28T07:07:42Z</time>
      </trkpt>
      <trkpt lat="42.589744012802839" lon="-2.861599009484053">
        <ele>467.33999999999997</ele>
        <time>2025-04-28T07:07:43Z</time>
      </trkpt>
      <trkpt lat="42.58987502194941" lon="-2.861660029739142">
        <ele>466.86000000000001</ele>
        <time>2025-04-28T07:07:44Z</time>
      </trkpt>
      <trkpt lat="42.590010976418853" lon="-2.861663969233632">
        <ele>465.89999999999998</ele>
        <time>2025-04-28T07:07:45Z</time>
      </trkpt>
      <trkpt lat="42.590149026364088" lon="-2.861668998375535">
        <ele>464.44999999999999</ele>
        <time>2025-04-28T07:07:46Z</time>
      </trkpt>
      <trkpt lat="42.590287998318672" lon="-2.861674027517438">
        <ele>463.49000000000001</ele>
        <time>2025-04-28T07:07:47Z</time>
      </trkpt>
      <trkpt lat="42.590554039925337" lon="-2.861697999760509">
        <ele>462.05000000000001</ele>
        <time>2025-04-28T07:07:49Z</time>
      </trkpt>
      <trkpt lat="42.590683959424496" lon="-2.861736975610256">
        <ele>461.08999999999997</ele>
        <time>2025-04-28T07:07:50Z</time>
      </trkpt>
      <trkpt lat="42.590807005763054" lon="-2.861805958673358">
        <ele>460.61000000000001</ele>
        <time>2025-04-28T07:07:51Z</time>
      </trkpt>
      <trkpt lat="42.59092996828258" lon="-2.861883994191885">
        <ele>460.13</ele>
        <time>2025-04-28T07:07:52Z</time>
      </trkpt>
      <trkpt lat="42.591026024892926" lon="-2.861997988075018">
        <ele>459.64999999999998</ele>
        <time>2025-04-28T07:07:53Z</time>
      </trkpt>
      <trkpt lat="42.591117974370718" lon="-2.862120028585196">
        <ele>458.20999999999998</ele>
        <time>2025-04-28T07:07:54Z</time>
      </trkpt>
      <trkpt lat="42.591300029307604" lon="-2.862360002472997">
        <ele>456.75999999999999</ele>
        <time>2025-04-28T07:07:56Z</time>
      </trkpt>
      <trkpt lat="42.591392984613776" lon="-2.86245203576982">
        <ele>456.27999999999997</ele>
        <time>2025-04-28T07:07:57Z</time>
      </trkpt>
      <trkpt lat="42.591502033174038" lon="-2.862511966377497">
        <ele>455.31999999999999</ele>
        <time>2025-04-28T07:07:58Z</time>
      </trkpt>
      <trkpt lat="42.59161502122879" lon="-2.862552031874657">
        <ele>454.36000000000001</ele>
        <time>2025-04-28T07:07:59Z</time>
      </trkpt>
      <trkpt lat="42.591728009283543" lon="-2.862510960549116">
        <ele>453.88</ele>
        <time>2025-04-28T07:08:00Z</time>
      </trkpt>
      <trkpt lat="42.591843008995056" lon="-2.862450024113059">
        <ele>453.39999999999998</ele>
        <time>2025-04-28T07:08:01Z</time>
      </trkpt>
      <trkpt lat="42.591920038685203" lon="-2.862326977774501">
        <ele>452.92000000000002</ele>
        <time>2025-04-28T07:08:02Z</time>
      </trkpt>
      <trkpt lat="42.591962032020092" lon="-2.862166967242956">
        <ele>452.92000000000002</ele>
        <time>2025-04-28T07:08:03Z</time>
      </trkpt>
      <trkpt lat="42.591998996213078" lon="-2.86198097281158">
        <ele>452.92000000000002</ele>
        <time>2025-04-28T07:08:04Z</time>
      </trkpt>
      <trkpt lat="42.591973012313247" lon="-2.861797995865345">
        <ele>452.92000000000002</ele>
        <time>2025-04-28T07:08:05Z</time>
      </trkpt>
      <trkpt lat="42.591947028413415" lon="-2.861605966463685">
        <ele>452.92000000000002</ele>
        <time>2025-04-28T07:08:06Z</time>
      </trkpt>
      <trkpt lat="42.591897994279861" lon="-2.861200030893087">
        <ele>452.92000000000002</ele>
        <time>2025-04-28T07:08:08Z</time>
      </trkpt>
      <trkpt lat="42.591912997886539" lon="-2.861010013148189">
        <ele>452.44</ele>
        <time>2025-04-28T07:08:09Z</time>
      </trkpt>
      <trkpt lat="42.591944010928273" lon="-2.860812032595277">
        <ele>452.44</ele>
        <time>2025-04-28T07:08:10Z</time>
      </trkpt>
      <trkpt lat="42.592009976506233" lon="-2.860641963779926">
        <ele>451.95999999999998</ele>
        <time>2025-04-28T07:08:11Z</time>
      </trkpt>
      <trkpt lat="42.592102009803057" lon="-2.860482037067413">
        <ele>451.95999999999998</ele>
        <time>2025-04-28T07:08:12Z</time>
      </trkpt>
      <trkpt lat="42.592189013957977" lon="-2.860328983515501">
        <ele>451.48000000000002</ele>
        <time>2025-04-28T07:08:13Z</time>
      </trkpt>
      <trkpt lat="42.592294039204717" lon="-2.860242985188961">
        <ele>451.48000000000002</ele>
        <time>2025-04-28T07:08:14Z</time>
      </trkpt>
      <trkpt lat="42.592413984239101" lon="-2.860179031267762">
        <ele>451.48000000000002</ele>
        <time>2025-04-28T07:08:15Z</time>
      </trkpt>
      <trkpt lat="42.592534013092518" lon="-2.860126979649067">
        <ele>451.48000000000002</ele>
        <time>2025-04-28T07:08:16Z</time>
      </trkpt>
      <trkpt lat="42.592662004753947" lon="-2.860096972435713">
        <ele>452.44</ele>
        <time>2025-04-28T07:08:17Z</time>
      </trkpt>
      <trkpt lat="42.593719968572259" lon="-2.859690031036735">
        <ele>452.44</ele>
        <time>2025-04-28T07:08:25Z</time>
      </trkpt>
      <trkpt lat="42.594793019816279" lon="-2.858681017532945">
        <ele>452.92000000000002</ele>
        <time>2025-04-28T07:08:33Z</time>
      </trkpt>
      <trkpt lat="42.595312027260661" lon="-2.857759008184075">
        <ele>452.92000000000002</ele>
        <time>2025-04-28T07:08:38Z</time>
      </trkpt>
      <trkpt lat="42.595412023365498" lon="-2.857573013752699">
        <ele>452.44</ele>
        <time>2025-04-28T07:08:39Z</time>
      </trkpt>
      <trkpt lat="42.596908025443554" lon="-2.855635033920407">
        <ele>453.39999999999998</ele>
        <time>2025-04-28T07:08:51Z</time>
      </trkpt>
      <trkpt lat="42.597057977691293" lon="-2.855515005066991">
        <ele>454.36000000000001</ele>
        <time>2025-04-28T07:08:52Z</time>
      </trkpt>
      <trkpt lat="42.597218994051218" lon="-2.855401011183858">
        <ele>455.31999999999999</ele>
        <time>2025-04-28T07:08:53Z</time>
      </trkpt>
      <trkpt lat="42.598076965659857" lon="-2.85499700345099">
        <ele>460.13</ele>
        <time>2025-04-28T07:08:58Z</time>
      </trkpt>
      <trkpt lat="42.598259020596743" lon="-2.854959033429623">
        <ele>461.56999999999999</ele>
        <time>2025-04-28T07:08:59Z</time>
      </trkpt>
      <trkpt lat="42.600164981558919" lon="-2.854853002354503">
        <ele>466.38</ele>
        <time>2025-04-28T07:09:09Z</time>
      </trkpt>
      <trkpt lat="42.601426960900426" lon="-2.854709001258016">
        <ele>466.86000000000001</ele>
        <time>2025-04-28T07:09:16Z</time>
      </trkpt>
      <trkpt lat="42.602396998554468" lon="-2.854442959651351">
        <ele>466.86000000000001</ele>
        <time>2025-04-28T07:09:22Z</time>
      </trkpt>
      <trkpt lat="42.602514009922743" lon="-2.854315973818302">
        <ele>466.86000000000001</ele>
        <time>2025-04-28T07:09:23Z</time>
      </trkpt>
      <trkpt lat="42.602621968835592" lon="-2.854174990206957">
        <ele>467.33999999999997</ele>
        <time>2025-04-28T07:09:24Z</time>
      </trkpt>
      <trkpt lat="42.602727999910712" lon="-2.854037024080753">
        <ele>467.81999999999999</ele>
        <time>2025-04-28T07:09:25Z</time>
      </trkpt>
      <trkpt lat="42.602832019329071" lon="-2.85390299744904">
        <ele>468.30000000000001</ele>
        <time>2025-04-28T07:09:26Z</time>
      </trkpt>
      <trkpt lat="42.602907037362456" lon="-2.853741981089115">
        <ele>469.25999999999999</ele>
        <time>2025-04-28T07:09:27Z</time>
      </trkpt>
      <trkpt lat="42.602970991283655" lon="-2.85357803106308">
        <ele>469.74000000000001</ele>
        <time>2025-04-28T07:09:28Z</time>
      </trkpt>
      <trkpt lat="42.603034023195505" lon="-2.853418020531535">
        <ele>470.69999999999999</ele>
        <time>2025-04-28T07:09:29Z</time>
      </trkpt>
      <trkpt lat="42.603095965459943" lon="-2.853260021656752">
        <ele>471.66000000000003</ele>
        <time>2025-04-28T07:09:30Z</time>
      </trkpt>
      <trkpt lat="42.603160003200173" lon="-2.853093976154923">
        <ele>472.13999999999999</ele>
        <time>2025-04-28T07:09:31Z</time>
      </trkpt>
      <trkpt lat="42.603784035891294" lon="-2.851519016548991">
        <ele>475.99000000000001</ele>
        <time>2025-04-28T07:09:39Z</time>
      </trkpt>
      <trkpt lat="42.604000037536025" lon="-2.850909987464547">
        <ele>475.50999999999999</ele>
        <time>2025-04-28T07:09:42Z</time>
      </trkpt>
      <trkpt lat="42.604101039469242" lon="-2.850694991648197">
        <ele>475.02999999999997</ele>
        <time>2025-04-28T07:09:43Z</time>
      </trkpt>
      <trkpt lat="42.604202963411808" lon="-2.85057001747191">
        <ele>474.55000000000001</ele>
        <time>2025-04-28T07:09:44Z</time>
      </trkpt>
      <trkpt lat="42.605614978820086" lon="-2.84879095852375">
        <ele>471.18000000000001</ele>
        <time>2025-04-28T07:09:54Z</time>
      </trkpt>
      <trkpt lat="42.606960022822022" lon="-2.846820037811995">
        <ele>467.33999999999997</ele>
        <time>2025-04-28T07:10:04Z</time>
      </trkpt>
      <trkpt lat="42.607231009751558" lon="-2.846492975950241">
        <ele>467.33999999999997</ele>
        <time>2025-04-28T07:10:06Z</time>
      </trkpt>
      <trkpt lat="42.607391020283103" lon="-2.84636196680367">
        <ele>467.81999999999999</ele>
        <time>2025-04-28T07:10:07Z</time>
      </trkpt>
      <trkpt lat="42.607554970309138" lon="-2.846228023990989">
        <ele>467.81999999999999</ele>
        <time>2025-04-28T07:10:08Z</time>
      </trkpt>
      <trkpt lat="42.609354984015226" lon="-2.845248011872172">
        <ele>462.05000000000001</ele>
        <time>2025-04-28T07:10:18Z</time>
      </trkpt>
      <trkpt lat="42.610025033354759" lon="-2.845180034637451">
        <ele>461.08999999999997</ele>
        <time>2025-04-28T07:10:22Z</time>
      </trkpt>
      <trkpt lat="42.610138021409512" lon="-2.845241976901889">
        <ele>461.08999999999997</ele>
        <time>2025-04-28T07:10:23Z</time>
      </trkpt>
      <trkpt lat="42.610238017514348" lon="-2.845309032127261">
        <ele>461.08999999999997</ele>
        <time>2025-04-28T07:10:24Z</time>
      </trkpt>
      <trkpt lat="42.610272970050573" lon="-2.845446998253465">
        <ele>460.61000000000001</ele>
        <time>2025-04-28T07:10:25Z</time>
      </trkpt>
      <trkpt lat="42.610281016677618" lon="-2.845575995743275">
        <ele>460.13</ele>
        <time>2025-04-28T07:10:26Z</time>
      </trkpt>
      <trkpt lat="42.610281016677618" lon="-2.845733994618058">
        <ele>459.64999999999998</ele>
        <time>2025-04-28T07:10:27Z</time>
      </trkpt>
      <trkpt lat="42.610281016677618" lon="-2.845901967957616">
        <ele>459.17000000000002</ele>
        <time>2025-04-28T07:10:28Z</time>
      </trkpt>
      <trkpt lat="42.610281016677618" lon="-2.84621000289917">
        <ele>458.20999999999998</ele>
        <time>2025-04-28T07:10:30Z</time>
      </trkpt>
      <trkpt lat="42.610334996134043" lon="-2.846335982903838">
        <ele>457.72000000000003</ele>
        <time>2025-04-28T07:10:31Z</time>
      </trkpt>
      <trkpt lat="42.610398028045893" lon="-2.846412006765604">
        <ele>457.24000000000001</ele>
        <time>2025-04-28T07:10:32Z</time>
      </trkpt>
      <trkpt lat="42.610473968088627" lon="-2.846489036455751">
        <ele>456.75999999999999</ele>
        <time>2025-04-28T07:10:33Z</time>
      </trkpt>
      <trkpt lat="42.610559966415167" lon="-2.846489036455751">
        <ele>456.27999999999997</ele>
        <time>2025-04-28T07:10:34Z</time>
      </trkpt>
      <trkpt lat="42.610659040510654" lon="-2.846489036455751">
        <ele>455.80000000000001</ele>
        <time>2025-04-28T07:10:35Z</time>
      </trkpt>
      <trkpt lat="42.61073799803853" lon="-2.846429022029042">
        <ele>455.80000000000001</ele>
        <time>2025-04-28T07:10:36Z</time>
      </trkpt>
      <trkpt lat="42.610819973051548" lon="-2.846328020095825">
        <ele>455.80000000000001</ele>
        <time>2025-04-28T07:10:37Z</time>
      </trkpt>
      <trkpt lat="42.610913012176752" lon="-2.846234980970621">
        <ele>455.80000000000001</ele>
        <time>2025-04-28T07:10:38Z</time>
      </trkpt>
      <trkpt lat="42.611012002453208" lon="-2.846178989857435">
        <ele>455.80000000000001</ele>
        <time>2025-04-28T07:10:39Z</time>
      </trkpt>
      <trkpt lat="42.61112499050796" lon="-2.846194999292493">
        <ele>456.75999999999999</ele>
        <time>2025-04-28T07:10:40Z</time>
      </trkpt>
      <trkpt lat="42.611247031018138" lon="-2.846231041476131">
        <ele>457.72000000000003</ele>
        <time>2025-04-28T07:10:41Z</time>
      </trkpt>
      <trkpt lat="42.61135901324451" lon="-2.84631603397429">
        <ele>457.72000000000003</ele>
        <time>2025-04-28T07:10:42Z</time>
      </trkpt>
      <trkpt lat="42.611474012956023" lon="-2.846431033685803">
        <ele>457.24000000000001</ele>
        <time>2025-04-28T07:10:43Z</time>
      </trkpt>
      <trkpt lat="42.611583983525634" lon="-2.846568999812007">
        <ele>457.24000000000001</ele>
        <time>2025-04-28T07:10:44Z</time>
      </trkpt>
      <trkpt lat="42.611698983237147" lon="-2.846714006736875">
        <ele>456.75999999999999</ele>
        <time>2025-04-28T07:10:45Z</time>
      </trkpt>
      <trkpt lat="42.612792989239097" lon="-2.848012028262019">
        <ele>457.24000000000001</ele>
        <time>2025-04-28T07:10:54Z</time>
      </trkpt>
      <trkpt lat="42.612939001992345" lon="-2.848106995224953">
        <ele>457.24000000000001</ele>
        <time>2025-04-28T07:10:55Z</time>
      </trkpt>
      <trkpt lat="42.613090965896845" lon="-2.848195005208254">
        <ele>457.72000000000003</ele>
        <time>2025-04-28T07:10:56Z</time>
      </trkpt>
      <trkpt lat="42.613961007446051" lon="-2.848806967958808">
        <ele>458.20999999999998</ele>
        <time>2025-04-28T07:11:02Z</time>
      </trkpt>
      <trkpt lat="42.614108026027679" lon="-2.848871005699039">
        <ele>458.69</ele>
        <time>2025-04-28T07:11:03Z</time>
      </trkpt>
      <trkpt lat="42.614258984103799" lon="-2.848905958235264">
        <ele>458.69</ele>
        <time>2025-04-28T07:11:04Z</time>
      </trkpt>
      <trkpt lat="42.614412037655711" lon="-2.848899001255631">
        <ele>458.69</ele>
        <time>2025-04-28T07:11:05Z</time>
      </trkpt>
      <trkpt lat="42.614572970196605" lon="-2.848878968507052">
        <ele>458.20999999999998</ele>
        <time>2025-04-28T07:11:06Z</time>
      </trkpt>
      <trkpt lat="42.614720994606614" lon="-2.848862037062645">
        <ele>457.72000000000003</ele>
        <time>2025-04-28T07:11:07Z</time>
      </trkpt>
      <trkpt lat="42.615773007273674" lon="-2.848794981837273">
        <ele>458.20999999999998</ele>
        <time>2025-04-28T07:11:15Z</time>
      </trkpt>
      <trkpt lat="42.615906028077006" lon="-2.848800010979176">
        <ele>459.17000000000002</ele>
        <time>2025-04-28T07:11:16Z</time>
      </trkpt>
      <trkpt lat="42.616042988374829" lon="-2.848805962130427">
        <ele>459.64999999999998</ele>
        <time>2025-04-28T07:11:17Z</time>
      </trkpt>
      <trkpt lat="42.616271981969476" lon="-2.848815014585853">
        <ele>460.13</ele>
        <time>2025-04-28T07:11:19Z</time>
      </trkpt>
      <trkpt lat="42.616717983037233" lon="-2.848862037062645">
        <ele>460.61000000000001</ele>
        <time>2025-04-28T07:11:22Z</time>
      </trkpt>
      <trkpt lat="42.616800963878632" lon="-2.848881985992193">
        <ele>461.08999999999997</ele>
        <time>2025-04-28T07:11:23Z</time>
      </trkpt>
      <trkpt lat="42.61690397746861" lon="-2.848949041217566">
        <ele>461.56999999999999</ele>
        <time>2025-04-28T07:11:24Z</time>
      </trkpt>
      <trkpt lat="42.617266997694969" lon="-2.849279036745429">
        <ele>462.05000000000001</ele>
        <time>2025-04-28T07:11:29Z</time>
      </trkpt>
      <trkpt lat="42.617381997406483" lon="-2.849323963746429">
        <ele>462.52999999999997</ele>
        <time>2025-04-28T07:11:30Z</time>
      </trkpt>
      <trkpt lat="42.617837972939014" lon="-2.849499983713031">
        <ele>462.05000000000001</ele>
        <time>2025-04-28T07:11:34Z</time>
      </trkpt>
      <trkpt lat="42.617967976257205" lon="-2.849549017846584">
        <ele>461.56999999999999</ele>
        <time>2025-04-28T07:11:35Z</time>
      </trkpt>
      <trkpt lat="42.618107032030821" lon="-2.84956100396812">
        <ele>461.08999999999997</ele>
        <time>2025-04-28T07:11:36Z</time>
      </trkpt>
      <trkpt lat="42.618237035349011" lon="-2.849523033946753">
        <ele>461.08999999999997</ele>
        <time>2025-04-28T07:11:37Z</time>
      </trkpt>
      <trkpt lat="42.618365027010441" lon="-2.849483974277973">
        <ele>460.61000000000001</ele>
        <time>2025-04-28T07:11:38Z</time>
      </trkpt>
      <trkpt lat="42.618494024500251" lon="-2.849444998428226">
        <ele>460.61000000000001</ele>
        <time>2025-04-28T07:11:39Z</time>
      </trkpt>
      <trkpt lat="42.619635974988341" lon="-2.8490249812603">
        <ele>459.64999999999998</ele>
        <time>2025-04-28T07:11:48Z</time>
      </trkpt>
      <trkpt lat="42.619766984134912" lon="-2.848954992368817">
        <ele>460.13</ele>
        <time>2025-04-28T07:11:49Z</time>
      </trkpt>
      <trkpt lat="42.619875026866794" lon="-2.848847033455968">
        <ele>460.13</ele>
        <time>2025-04-28T07:11:50Z</time>
      </trkpt>
      <trkpt lat="42.62008398771286" lon="-2.848600018769503">
        <ele>461.56999999999999</ele>
        <time>2025-04-28T07:11:52Z</time>
      </trkpt>
      <trkpt lat="42.621169025078416" lon="-2.847252963110805">
        <ele>462.05000000000001</ele>
        <time>2025-04-28T07:12:02Z</time>
      </trkpt>
      <trkpt lat="42.622229000553489" lon="-2.846315028145909">
        <ele>461.08999999999997</ele>
        <time>2025-04-28T07:12:11Z</time>
      </trkpt>
      <trkpt lat="42.6228759996593" lon="-2.845496032387018">
        <ele>464.44999999999999</ele>
        <time>2025-04-28T07:12:17Z</time>
      </trkpt>
      <trkpt lat="42.622995022684336" lon="-2.845380026847124">
        <ele>464.44999999999999</ele>
        <time>2025-04-28T07:12:18Z</time>
      </trkpt>
      <trkpt lat="42.623590975999832" lon="-2.844884991645813">
        <ele>463.00999999999999</ele>
        <time>2025-04-28T07:12:23Z</time>
      </trkpt>
      <trkpt lat="42.62375601567328" lon="-2.84470796585083">
        <ele>462.05000000000001</ele>
        <time>2025-04-28T07:12:25Z</time>
      </trkpt>
      <trkpt lat="42.623863974586129" lon="-2.844635965302587">
        <ele>462.05000000000001</ele>
        <time>2025-04-28T07:12:26Z</time>
      </trkpt>
      <trkpt lat="42.62397201731801" lon="-2.844568993896246">
        <ele>461.56999999999999</ele>
        <time>2025-04-28T07:12:27Z</time>
      </trkpt>
      <trkpt lat="42.625343967229128" lon="-2.844057027250528">
        <ele>459.17000000000002</ele>
        <time>2025-04-28T07:12:37Z</time>
      </trkpt>
      <trkpt lat="42.626187019050121" lon="-2.844003969803453">
        <ele>463.00999999999999</ele>
        <time>2025-04-28T07:12:43Z</time>
      </trkpt>
      <trkpt lat="42.626320961862803" lon="-2.844044035300612">
        <ele>463.97000000000003</ele>
        <time>2025-04-28T07:12:44Z</time>
      </trkpt>
      <trkpt lat="42.626437973231077" lon="-2.844123998656869">
        <ele>463.97000000000003</ele>
        <time>2025-04-28T07:12:45Z</time>
      </trkpt>
      <trkpt lat="42.626564959064126" lon="-2.84421100281179">
        <ele>463.97000000000003</ele>
        <time>2025-04-28T07:12:46Z</time>
      </trkpt>
      <trkpt lat="42.626696974039078" lon="-2.844302030280232">
        <ele>463.49000000000001</ele>
        <time>2025-04-28T07:12:47Z</time>
      </trkpt>
      <trkpt lat="42.626834018155932" lon="-2.844395991414785">
        <ele>463.00999999999999</ele>
        <time>2025-04-28T07:12:48Z</time>
      </trkpt>
      <trkpt lat="42.627986026927829" lon="-2.845304002985358">
        <ele>453.88</ele>
        <time>2025-04-28T07:12:57Z</time>
      </trkpt>
      <trkpt lat="42.628922034054995" lon="-2.846403960138559">
        <ele>449.06999999999999</ele>
        <time>2025-04-28T07:13:06Z</time>
      </trkpt>
      <trkpt lat="42.629960970953107" lon="-2.848170027136803">
        <ele>452.44</ele>
        <time>2025-04-28T07:13:18Z</time>
      </trkpt>
      <trkpt lat="42.630085023120046" lon="-2.848485019057989">
        <ele>453.88</ele>
        <time>2025-04-28T07:13:20Z</time>
      </trkpt>
      <trkpt lat="42.630131039768457" lon="-2.848649974912405">
        <ele>454.36000000000001</ele>
        <time>2025-04-28T07:13:21Z</time>
      </trkpt>
      <trkpt lat="42.630604030564427" lon="-2.850317973643541">
        <ele>459.17000000000002</ele>
        <time>2025-04-28T07:13:31Z</time>
      </trkpt>
      <trkpt lat="42.630919022485614" lon="-2.851222967728972">
        <ele>463.00999999999999</ele>
        <time>2025-04-28T07:13:37Z</time>
      </trkpt>
      <trkpt lat="42.630994040518999" lon="-2.851354982703924">
        <ele>463.49000000000001</ele>
        <time>2025-04-28T07:13:38Z</time>
      </trkpt>
      <trkpt lat="42.631069980561733" lon="-2.851488003507257">
        <ele>463.97000000000003</ele>
        <time>2025-04-28T07:13:39Z</time>
      </trkpt>
      <trkpt lat="42.63204999268055" lon="-2.852735985070467">
        <ele>464.93000000000001</ele>
        <time>2025-04-28T07:13:48Z</time>
      </trkpt>
      <trkpt lat="42.632551984861493" lon="-2.853277958929539">
        <ele>464.93000000000001</ele>
        <time>2025-04-28T07:13:53Z</time>
      </trkpt>
      <trkpt lat="42.633367041125894" lon="-2.854336006566882">
        <ele>465.42000000000002</ele>
        <time>2025-04-28T07:14:00Z</time>
      </trkpt>
      <trkpt lat="42.633482962846756" lon="-2.85446198657155">
        <ele>464.93000000000001</ele>
        <time>2025-04-28T07:14:01Z</time>
      </trkpt>
      <trkpt lat="42.633621012791991" lon="-2.854520995169878">
        <ele>464.93000000000001</ele>
        <time>2025-04-28T07:14:02Z</time>
      </trkpt>
      <trkpt lat="42.633758978918195" lon="-2.854581009596586">
        <ele>463.97000000000003</ele>
        <time>2025-04-28T07:14:03Z</time>
      </trkpt>
      <trkpt lat="42.634421987459064" lon="-2.854902958497405">
        <ele>461.56999999999999</ele>
        <time>2025-04-28T07:14:08Z</time>
      </trkpt>
      <trkpt lat="42.634532963857055" lon="-2.855021981522441">
        <ele>460.61000000000001</ele>
        <time>2025-04-28T07:14:09Z</time>
      </trkpt>
      <trkpt lat="42.634648969396949" lon="-2.855145027860999">
        <ele>460.13</ele>
        <time>2025-04-28T07:14:10Z</time>
      </trkpt>
      <trkpt lat="42.634761035442352" lon="-2.855276959016919">
        <ele>459.64999999999998</ele>
        <time>2025-04-28T07:14:11Z</time>
      </trkpt>
      <trkpt lat="42.634871006011963" lon="-2.85542800091207">
        <ele>458.69</ele>
        <time>2025-04-28T07:14:12Z</time>
      </trkpt>
      <trkpt lat="42.63598102144897" lon="-2.856834987178445">
        <ele>456.75999999999999</ele>
        <time>2025-04-28T07:14:22Z</time>
      </trkpt>
      <trkpt lat="42.636904958635569" lon="-2.858009040355682">
        <ele>457.24000000000001</ele>
        <time>2025-04-28T07:14:31Z</time>
      </trkpt>
      <trkpt lat="42.63697000220418" lon="-2.858164021745324">
        <ele>457.72000000000003</ele>
        <time>2025-04-28T07:14:32Z</time>
      </trkpt>
      <trkpt lat="42.637182986363769" lon="-2.858617985621095">
        <ele>458.20999999999998</ele>
        <time>2025-04-28T07:14:35Z</time>
      </trkpt>
      <trkpt lat="42.637273008003831" lon="-2.858745977282524">
        <ele>459.17000000000002</ele>
        <time>2025-04-28T07:14:36Z</time>
      </trkpt>
      <trkpt lat="42.6373799610883" lon="-2.858868017792702">
        <ele>459.64999999999998</ele>
        <time>2025-04-28T07:14:37Z</time>
      </trkpt>
      <trkpt lat="42.637772988528013" lon="-2.859307983890176">
        <ele>462.52999999999997</ele>
        <time>2025-04-28T07:14:41Z</time>
      </trkpt>
      <trkpt lat="42.637864015996456" lon="-2.859438993036747">
        <ele>463.49000000000001</ele>
        <time>2025-04-28T07:14:42Z</time>
      </trkpt>
      <trkpt lat="42.637960994616151" lon="-2.859577964991331">
        <ele>463.97000000000003</ele>
        <time>2025-04-28T07:14:43Z</time>
      </trkpt>
      <trkpt lat="42.638012962415814" lon="-2.859769994392991">
        <ele>464.44999999999999</ele>
        <time>2025-04-28T07:14:44Z</time>
      </trkpt>
      <trkpt lat="42.63806501403451" lon="-2.85996101796627">
        <ele>465.42000000000002</ele>
        <time>2025-04-28T07:14:45Z</time>
      </trkpt>
      <trkpt lat="42.638112036511302" lon="-2.860136032104492">
        <ele>465.42000000000002</ele>
        <time>2025-04-28T07:14:46Z</time>
      </trkpt>
      <trkpt lat="42.638164004310966" lon="-2.860349016264081">
        <ele>465.42000000000002</ele>
        <time>2025-04-28T07:14:47Z</time>
      </trkpt>
      <trkpt lat="42.638187976554036" lon="-2.860552025958896">
        <ele>465.89999999999998</ele>
        <time>2025-04-28T07:14:48Z</time>
      </trkpt>
      <trkpt lat="42.638208009302616" lon="-2.860759980976582">
        <ele>466.38</ele>
        <time>2025-04-28T07:14:49Z</time>
      </trkpt>
      <trkpt lat="42.638226030394435" lon="-2.86096902564168">
        <ele>466.86000000000001</ele>
        <time>2025-04-28T07:14:50Z</time>
      </trkpt>
      <trkpt lat="42.638242039829493" lon="-2.861168012022972">
        <ele>467.33999999999997</ele>
        <time>2025-04-28T07:14:51Z</time>
      </trkpt>
      <trkpt lat="42.638286966830492" lon="-2.861512005329132">
        <ele>468.77999999999997</ele>
        <time>2025-04-28T07:14:53Z</time>
      </trkpt>
      <trkpt lat="42.638318985700607" lon="-2.861653994768858">
        <ele>469.25999999999999</ele>
        <time>2025-04-28T07:14:54Z</time>
      </trkpt>
      <trkpt lat="42.638347987085581" lon="-2.861782992258668">
        <ele>470.22000000000003</ele>
        <time>2025-04-28T07:14:55Z</time>
      </trkpt>
      <trkpt lat="42.638369025662541" lon="-2.861874019727111">
        <ele>471.18000000000001</ele>
        <time>2025-04-28T07:14:56Z</time>
      </trkpt>
      <trkpt lat="42.638313034549356" lon="-2.862048028036952">
        <ele>472.13999999999999</ele>
        <time>2025-04-28T07:14:57Z</time>
      </trkpt>
      <trkpt lat="42.638264000415802" lon="-2.862200997769833">
        <ele>472.63</ele>
        <time>2025-04-28T07:14:58Z</time>
      </trkpt>
      <trkpt lat="42.638215972110629" lon="-2.862350028008223">
        <ele>473.58999999999997</ele>
        <time>2025-04-28T07:14:59Z</time>
      </trkpt>
      <trkpt lat="42.638175990432501" lon="-2.86247500218451">
        <ele>475.02999999999997</ele>
        <time>2025-04-28T07:15:00Z</time>
      </trkpt>
      <trkpt lat="42.638175990432501" lon="-2.862613974139094">
        <ele>475.99000000000001</ele>
        <time>2025-04-28T07:15:01Z</time>
      </trkpt>
      <trkpt lat="42.638175990432501" lon="-2.862742971628904">
        <ele>477.43000000000001</ele>
        <time>2025-04-28T07:15:02Z</time>
      </trkpt>
      <trkpt lat="42.638175990432501" lon="-2.862867023795843">
        <ele>477.91000000000003</ele>
        <time>2025-04-28T07:15:03Z</time>
      </trkpt>
      <trkpt lat="42.638154029846191" lon="-2.862965008243918">
        <ele>478.38999999999999</ele>
        <time>2025-04-28T07:15:04Z</time>
      </trkpt>
      <trkpt lat="42.638097032904625" lon="-2.863063998520374">
        <ele>478.87</ele>
        <time>2025-04-28T07:15:05Z</time>
      </trkpt>
      <trkpt lat="42.638029977679253" lon="-2.863181009888649">
        <ele>478.87</ele>
        <time>2025-04-28T07:15:06Z</time>
      </trkpt>
      <trkpt lat="42.637962000444531" lon="-2.863300032913685">
        <ele>478.87</ele>
        <time>2025-04-28T07:15:07Z</time>
      </trkpt>
      <trkpt lat="42.637917995452881" lon="-2.863447973504663">
        <ele>479.35000000000002</ele>
        <time>2025-04-28T07:15:08Z</time>
      </trkpt>
      <trkpt lat="42.637917995452881" lon="-2.863633967936039">
        <ele>479.35000000000002</ele>
        <time>2025-04-28T07:15:09Z</time>
      </trkpt>
      <trkpt lat="42.637948002666235" lon="-2.863779980689287">
        <ele>480.31999999999999</ele>
        <time>2025-04-28T07:15:10Z</time>
      </trkpt>
      <trkpt lat="42.63797901570797" lon="-2.86393404006958">
        <ele>480.80000000000001</ele>
        <time>2025-04-28T07:15:11Z</time>
      </trkpt>
      <trkpt lat="42.638007011264563" lon="-2.864078041166067">
        <ele>481.27999999999997</ele>
        <time>2025-04-28T07:15:12Z</time>
      </trkpt>
      <trkpt lat="42.638026038184762" lon="-2.864221036434174">
        <ele>482.24000000000001</ele>
        <time>2025-04-28T07:15:13Z</time>
      </trkpt>
      <trkpt lat="42.638026038184762" lon="-2.864375011995435">
        <ele>483.19999999999999</ele>
        <time>2025-04-28T07:15:14Z</time>
      </trkpt>
      <trkpt lat="42.637993013486266" lon="-2.864525970071554">
        <ele>484.16000000000003</ele>
        <time>2025-04-28T07:15:15Z</time>
      </trkpt>
      <trkpt lat="42.637950014322996" lon="-2.864683968946338">
        <ele>484.63999999999999</ele>
        <time>2025-04-28T07:15:16Z</time>
      </trkpt>
      <trkpt lat="42.637909026816487" lon="-2.864835010841489">
        <ele>485.12</ele>
        <time>2025-04-28T07:15:17Z</time>
      </trkpt>
      <trkpt lat="42.637845994904637" lon="-2.86494598723948">
        <ele>485.60000000000002</ele>
        <time>2025-04-28T07:15:18Z</time>
      </trkpt>
      <trkpt lat="42.637752033770084" lon="-2.865069033578038">
        <ele>485.60000000000002</ele>
        <time>2025-04-28T07:15:19Z</time>
      </trkpt>
      <trkpt lat="42.63765899464488" lon="-2.865190990269184">
        <ele>486.07999999999998</ele>
        <time>2025-04-28T07:15:20Z</time>
      </trkpt>
      <trkpt lat="42.637567967176437" lon="-2.865311019122601">
        <ele>486.07999999999998</ele>
        <time>2025-04-28T07:15:21Z</time>
      </trkpt>
      <trkpt lat="42.637478029355407" lon="-2.865444039925933">
        <ele>486.07999999999998</ele>
        <time>2025-04-28T07:15:22Z</time>
      </trkpt>
      <trkpt lat="42.637416003271937" lon="-2.865599021315575">
        <ele>486.07999999999998</ele>
        <time>2025-04-28T07:15:23Z</time>
      </trkpt>
      <trkpt lat="42.637355988845229" lon="-2.865746961906552">
        <ele>486.07999999999998</ele>
        <time>2025-04-28T07:15:24Z</time>
      </trkpt>
      <trkpt lat="42.637302009388804" lon="-2.865884006023407">
        <ele>485.60000000000002</ele>
        <time>2025-04-28T07:15:25Z</time>
      </trkpt>
      <trkpt lat="42.637275019660592" lon="-2.866038987413049">
        <ele>485.60000000000002</ele>
        <time>2025-04-28T07:15:26Z</time>
      </trkpt>
      <trkpt lat="42.637275019660592" lon="-2.866193968802691">
        <ele>485.60000000000002</ele>
        <time>2025-04-28T07:15:27Z</time>
      </trkpt>
      <trkpt lat="42.637316007167101" lon="-2.866344004869461">
        <ele>485.60000000000002</ele>
        <time>2025-04-28T07:15:28Z</time>
      </trkpt>
      <trkpt lat="42.637366969138384" lon="-2.866487000137568">
        <ele>486.07999999999998</ele>
        <time>2025-04-28T07:15:29Z</time>
      </trkpt>
      <trkpt lat="42.63742103241384" lon="-2.866637036204338">
        <ele>486.07999999999998</ele>
        <time>2025-04-28T07:15:30Z</time>
      </trkpt>
      <trkpt lat="42.637467971071601" lon="-2.866766033694148">
        <ele>486.07999999999998</ele>
        <time>2025-04-28T07:15:31Z</time>
      </trkpt>
      <trkpt lat="42.637492027133703" lon="-2.866958985105157">
        <ele>485.60000000000002</ele>
        <time>2025-04-28T07:15:32Z</time>
      </trkpt>
      <trkpt lat="42.637510970234871" lon="-2.867110027000308">
        <ele>485.60000000000002</ele>
        <time>2025-04-28T07:15:33Z</time>
      </trkpt>
      <trkpt lat="42.637488003820181" lon="-2.867315970361233">
        <ele>485.12</ele>
        <time>2025-04-28T07:15:34Z</time>
      </trkpt>
      <trkpt lat="42.63746696524322" lon="-2.86750397644937">
        <ele>485.12</ele>
        <time>2025-04-28T07:15:35Z</time>
      </trkpt>
      <trkpt lat="42.637446010485291" lon="-2.867693994194269">
        <ele>484.63999999999999</ele>
        <time>2025-04-28T07:15:36Z</time>
      </trkpt>
      <trkpt lat="42.637424971908331" lon="-2.867885017767549">
        <ele>484.63999999999999</ele>
        <time>2025-04-28T07:15:37Z</time>
      </trkpt>
      <trkpt lat="42.637404017150402" lon="-2.868067994713783">
        <ele>484.63999999999999</ele>
        <time>2025-04-28T07:15:38Z</time>
      </trkpt>
      <trkpt lat="42.637384990230203" lon="-2.868238985538483">
        <ele>484.63999999999999</ele>
        <time>2025-04-28T07:15:39Z</time>
      </trkpt>
      <trkpt lat="42.637398988008499" lon="-2.868413999676704">
        <ele>484.16000000000003</ele>
        <time>2025-04-28T07:15:40Z</time>
      </trkpt>
      <trkpt lat="42.637445004656911" lon="-2.868795040994883">
        <ele>484.63999999999999</ele>
        <time>2025-04-28T07:15:42Z</time>
      </trkpt>
      <trkpt lat="42.637469982728362" lon="-2.869000984355807">
        <ele>484.63999999999999</ele>
        <time>2025-04-28T07:15:43Z</time>
      </trkpt>
      <trkpt lat="42.637494960799813" lon="-2.869212962687016">
        <ele>484.63999999999999</ele>
        <time>2025-04-28T07:15:44Z</time>
      </trkpt>
      <trkpt lat="42.637538965791464" lon="-2.869413960725069">
        <ele>484.63999999999999</ele>
        <time>2025-04-28T07:15:45Z</time>
      </trkpt>
      <trkpt lat="42.637601997703314" lon="-2.869583023712039">
        <ele>485.12</ele>
        <time>2025-04-28T07:15:46Z</time>
      </trkpt>
      <trkpt lat="42.637663017958403" lon="-2.869744040071964">
        <ele>485.12</ele>
        <time>2025-04-28T07:15:47Z</time>
      </trkpt>
      <trkpt lat="42.637720014899969" lon="-2.869893992319703">
        <ele>485.12</ele>
        <time>2025-04-28T07:15:48Z</time>
      </trkpt>
      <trkpt lat="42.637753039598465" lon="-2.870063977316022">
        <ele>485.12</ele>
        <time>2025-04-28T07:15:49Z</time>
      </trkpt>
      <trkpt lat="42.63776502572" lon="-2.870257012546063">
        <ele>485.12</ele>
        <time>2025-04-28T07:15:50Z</time>
      </trkpt>
      <trkpt lat="42.637828979641199" lon="-2.871278012171388">
        <ele>484.16000000000003</ele>
        <time>2025-04-28T07:15:55Z</time>
      </trkpt>
      <trkpt lat="42.637862004339695" lon="-2.871451014652848">
        <ele>484.16000000000003</ele>
        <time>2025-04-28T07:15:56Z</time>
      </trkpt>
      <trkpt lat="42.637909026816487" lon="-2.871632985770702">
        <ele>484.16000000000003</ele>
        <time>2025-04-28T07:15:57Z</time>
      </trkpt>
      <trkpt lat="42.63795898295939" lon="-2.871826021000743">
        <ele>484.16000000000003</ele>
        <time>2025-04-28T07:15:58Z</time>
      </trkpt>
      <trkpt lat="42.638003993779421" lon="-2.872002040967345">
        <ele>484.16000000000003</ele>
        <time>2025-04-28T07:15:59Z</time>
      </trkpt>
      <trkpt lat="42.638085968792439" lon="-2.872182000428438">
        <ele>484.63999999999999</ele>
        <time>2025-04-28T07:16:00Z</time>
      </trkpt>
      <trkpt lat="42.638156963512301" lon="-2.872337987646461">
        <ele>484.63999999999999</ele>
        <time>2025-04-28T07:16:01Z</time>
      </trkpt>
      <trkpt lat="42.638226030394435" lon="-2.872491041198373">
        <ele>484.63999999999999</ele>
        <time>2025-04-28T07:16:02Z</time>
      </trkpt>
      <trkpt lat="42.638300964608788" lon="-2.872654991224408">
        <ele>485.12</ele>
        <time>2025-04-28T07:16:03Z</time>
      </trkpt>
      <trkpt lat="42.638353016227484" lon="-2.872838973999023">
        <ele>485.12</ele>
        <time>2025-04-28T07:16:04Z</time>
      </trkpt>
      <trkpt lat="42.638390986248851" lon="-2.873021028935909">
        <ele>485.12</ele>
        <time>2025-04-28T07:16:05Z</time>
      </trkpt>
      <trkpt lat="42.63842904008925" lon="-2.873204005882144">
        <ele>485.12</ele>
        <time>2025-04-28T07:16:06Z</time>
      </trkpt>
      <trkpt lat="42.638464998453856" lon="-2.873373990878463">
        <ele>485.60000000000002</ele>
        <time>2025-04-28T07:16:07Z</time>
      </trkpt>
      <trkpt lat="42.638499028980732" lon="-2.873537018895149">
        <ele>485.60000000000002</ele>
        <time>2025-04-28T07:16:08Z</time>
      </trkpt>
      <trkpt lat="42.638543033972383" lon="-2.873660987243056">
        <ele>486.56</ele>
        <time>2025-04-28T07:16:09Z</time>
      </trkpt>
      <trkpt lat="42.638633977621794" lon="-2.873769029974937">
        <ele>487.05000000000001</ele>
        <time>2025-04-28T07:16:10Z</time>
      </trkpt>
      <trkpt lat="42.638834975659847" lon="-2.874007998034358">
        <ele>488.00999999999999</ele>
        <time>2025-04-28T07:16:12Z</time>
      </trkpt>
      <trkpt lat="42.638930026441813" lon="-2.874159039929509">
        <ele>488.97000000000003</ele>
        <time>2025-04-28T07:16:13Z</time>
      </trkpt>
      <trkpt lat="42.639258010312915" lon="-2.874769996851683">
        <ele>489.93000000000001</ele>
        <time>2025-04-28T07:16:17Z</time>
      </trkpt>
      <trkpt lat="42.639320036396384" lon="-2.874944005161524">
        <ele>489.93000000000001</ele>
        <time>2025-04-28T07:16:18Z</time>
      </trkpt>
      <trkpt lat="42.640084968879819" lon="-2.8771470207721">
        <ele>491.85000000000002</ele>
        <time>2025-04-28T07:16:30Z</time>
      </trkpt>
      <trkpt lat="42.640233999118209" lon="-2.877499982714653">
        <ele>492.32999999999998</ele>
        <time>2025-04-28T07:16:32Z</time>
      </trkpt>
      <trkpt lat="42.640591990202665" lon="-2.878145975992084">
        <ele>492.32999999999998</ele>
        <time>2025-04-28T07:16:36Z</time>
      </trkpt>
      <trkpt lat="42.640662984922528" lon="-2.878323001787067">
        <ele>492.32999999999998</ele>
        <time>2025-04-28T07:16:37Z</time>
      </trkpt>
      <trkpt lat="42.641349965706468" lon="-2.879907013848424">
        <ele>493.29000000000002</ele>
        <time>2025-04-28T07:16:46Z</time>
      </trkpt>
      <trkpt lat="42.642187988385558" lon="-2.881149966269732">
        <ele>498.57999999999998</ele>
        <time>2025-04-28T07:16:54Z</time>
      </trkpt>
      <trkpt lat="42.642273986712098" lon="-2.881249962374568">
        <ele>499.06</ele>
        <time>2025-04-28T07:16:55Z</time>
      </trkpt>
      <trkpt lat="42.642324026674032" lon="-2.881375020369887">
        <ele>499.54000000000002</ele>
        <time>2025-04-28T07:16:56Z</time>
      </trkpt>
      <trkpt lat="42.642367025837302" lon="-2.881505023688078">
        <ele>499.54000000000002</ele>
        <time>2025-04-28T07:16:57Z</time>
      </trkpt>
      <trkpt lat="42.642396027222276" lon="-2.881671991199255">
        <ele>499.54000000000002</ele>
        <time>2025-04-28T07:16:58Z</time>
      </trkpt>
      <trkpt lat="42.64242603443563" lon="-2.88185203447938">
        <ele>499.54000000000002</ele>
        <time>2025-04-28T07:16:59Z</time>
      </trkpt>
      <trkpt lat="42.642589984461665" lon="-2.88258402608335">
        <ele>499.54000000000002</ele>
        <time>2025-04-28T07:17:03Z</time>
      </trkpt>
      <trkpt lat="42.642671959474683" lon="-2.882741019129753">
        <ele>499.54000000000002</ele>
        <time>2025-04-28T07:17:04Z</time>
      </trkpt>
      <trkpt lat="42.642983011901379" lon="-2.883332027122378">
        <ele>499.06</ele>
        <time>2025-04-28T07:17:08Z</time>
      </trkpt>
      <trkpt lat="42.64298896305263" lon="-2.883472004905343">
        <ele>499.06</ele>
        <time>2025-04-28T07:17:09Z</time>
      </trkpt>
      <trkpt lat="42.642997009679675" lon="-2.883628997951746">
        <ele>499.06</ele>
        <time>2025-04-28T07:17:10Z</time>
      </trkpt>
      <trkpt lat="42.643003966659307" lon="-2.883791020140052">
        <ele>498.57999999999998</ele>
        <time>2025-04-28T07:17:11Z</time>
      </trkpt>
      <trkpt lat="42.643012013286352" lon="-2.883952036499977">
        <ele>498.57999999999998</ele>
        <time>2025-04-28T07:17:12Z</time>
      </trkpt>
      <trkpt lat="42.643018970265985" lon="-2.88410902954638">
        <ele>498.10000000000002</ele>
        <time>2025-04-28T07:17:13Z</time>
      </trkpt>
      <trkpt lat="42.643059035763144" lon="-2.884267028421164">
        <ele>498.10000000000002</ele>
        <time>2025-04-28T07:17:14Z</time>
      </trkpt>
      <trkpt lat="42.643143022432923" lon="-2.884351015090942">
        <ele>498.10000000000002</ele>
        <time>2025-04-28T07:17:15Z</time>
      </trkpt>
      <trkpt lat="42.643236983567476" lon="-2.884444976225495">
        <ele>497.62</ele>
        <time>2025-04-28T07:17:16Z</time>
      </trkpt>
      <trkpt lat="42.643339997157454" lon="-2.884547989815474">
        <ele>497.62</ele>
        <time>2025-04-28T07:17:17Z</time>
      </trkpt>
      <trkpt lat="42.644007029011846" lon="-2.885318035259843">
        <ele>499.06</ele>
        <time>2025-04-28T07:17:24Z</time>
      </trkpt>
      <trkpt lat="42.644029995426536" lon="-2.885435968637466">
        <ele>499.06</ele>
        <time>2025-04-28T07:17:25Z</time>
      </trkpt>
      <trkpt lat="42.644054973497987" lon="-2.885584998875856">
        <ele>498.57999999999998</ele>
        <time>2025-04-28T07:17:26Z</time>
      </trkpt>
      <trkpt lat="42.644042987376451" lon="-2.885705027729273">
        <ele>498.57999999999998</ele>
        <time>2025-04-28T07:17:27Z</time>
      </trkpt>
      <trkpt lat="42.644027983769774" lon="-2.885848022997379">
        <ele>498.57999999999998</ele>
        <time>2025-04-28T07:17:28Z</time>
      </trkpt>
      <trkpt lat="42.644013985991478" lon="-2.885975008830428">
        <ele>498.57999999999998</ele>
        <time>2025-04-28T07:17:29Z</time>
      </trkpt>
      <trkpt lat="42.644066959619522" lon="-2.886060001328588">
        <ele>499.06</ele>
        <time>2025-04-28T07:17:30Z</time>
      </trkpt>
      <trkpt lat="42.644127979874611" lon="-2.886138036847115">
        <ele>499.06</ele>
        <time>2025-04-28T07:17:31Z</time>
      </trkpt>
      <trkpt lat="42.644200986251235" lon="-2.886228980496526">
        <ele>499.54000000000002</ele>
        <time>2025-04-28T07:17:32Z</time>
      </trkpt>
      <trkpt lat="42.644286984577775" lon="-2.886336017400026">
        <ele>499.54000000000002</ele>
        <time>2025-04-28T07:17:33Z</time>
      </trkpt>
      <trkpt lat="42.644373988732696" lon="-2.886459985747933">
        <ele>499.54000000000002</ele>
        <time>2025-04-28T07:17:34Z</time>
      </trkpt>
      <trkpt lat="42.644451018422842" lon="-2.886617984622717">
        <ele>499.06</ele>
        <time>2025-04-28T07:17:35Z</time>
      </trkpt>
      <trkpt lat="42.64453299343586" lon="-2.886789981275797">
        <ele>498.57999999999998</ele>
        <time>2025-04-28T07:17:36Z</time>
      </trkpt>
      <trkpt lat="42.644621003419161" lon="-2.886971030384302">
        <ele>498.10000000000002</ele>
        <time>2025-04-28T07:17:37Z</time>
      </trkpt>
      <trkpt lat="42.645372021943331" lon="-2.888559987768531">
        <ele>498.10000000000002</ele>
        <time>2025-04-28T07:17:46Z</time>
      </trkpt>
      <trkpt lat="42.645374033600092" lon="-2.888695020228624">
        <ele>498.10000000000002</ele>
        <time>2025-04-28T07:17:47Z</time>
      </trkpt>
      <trkpt lat="42.645356012508273" lon="-2.888846984133124">
        <ele>497.62</ele>
        <time>2025-04-28T07:17:48Z</time>
      </trkpt>
      <trkpt lat="42.645336985588074" lon="-2.889010012149811">
        <ele>497.62</ele>
        <time>2025-04-28T07:17:49Z</time>
      </trkpt>
      <trkpt lat="42.645320976153016" lon="-2.889146972447634">
        <ele>497.13999999999999</ele>
        <time>2025-04-28T07:17:50Z</time>
      </trkpt>
      <trkpt lat="42.645337991416454" lon="-2.889300025999546">
        <ele>497.13999999999999</ele>
        <time>2025-04-28T07:17:51Z</time>
      </trkpt>
      <trkpt lat="42.645376967266202" lon="-2.889380995184183">
        <ele>496.66000000000003</ele>
        <time>2025-04-28T07:17:52Z</time>
      </trkpt>
      <trkpt lat="42.645449973642826" lon="-2.889469005167484">
        <ele>496.66000000000003</ele>
        <time>2025-04-28T07:17:53Z</time>
      </trkpt>
      <trkpt lat="42.645525997504592" lon="-2.889507981017232">
        <ele>496.18000000000001</ele>
        <time>2025-04-28T07:17:54Z</time>
      </trkpt>
      <trkpt lat="42.645645020529628" lon="-2.889569001272321">
        <ele>495.22000000000003</ele>
        <time>2025-04-28T07:17:55Z</time>
      </trkpt>
      <trkpt lat="42.645771000534296" lon="-2.8896339610219">
        <ele>494.25999999999999</ele>
        <time>2025-04-28T07:17:56Z</time>
      </trkpt>
      <trkpt lat="42.646112982183695" lon="-2.889809980988503">
        <ele>492.81</ele>
        <time>2025-04-28T07:17:59Z</time>
      </trkpt>
      <trkpt lat="42.64621096663177" lon="-2.889930009841919">
        <ele>492.81</ele>
        <time>2025-04-28T07:18:00Z</time>
      </trkpt>
      <trkpt lat="42.646284978836775" lon="-2.890066970139742">
        <ele>492.32999999999998</ele>
        <time>2025-04-28T07:18:01Z</time>
      </trkpt>
      <trkpt lat="42.647030968219042" lon="-2.891614018008113">
        <ele>490.88999999999999</ele>
        <time>2025-04-28T07:18:10Z</time>
      </trkpt>
      <trkpt lat="42.647267002612352" lon="-2.892225980758667">
        <ele>491.85000000000002</ele>
        <time>2025-04-28T07:18:14Z</time>
      </trkpt>
      <trkpt lat="42.647284017875791" lon="-2.892398983240128">
        <ele>491.85000000000002</ele>
        <time>2025-04-28T07:18:15Z</time>
      </trkpt>
      <trkpt lat="42.647340008988976" lon="-2.89293902926147">
        <ele>492.81</ele>
        <time>2025-04-28T07:18:18Z</time>
      </trkpt>
      <trkpt lat="42.647354006767273" lon="-2.893079007044435">
        <ele>492.81</ele>
        <time>2025-04-28T07:18:19Z</time>
      </trkpt>
      <trkpt lat="42.647403040900826" lon="-2.893169028684497">
        <ele>492.81</ele>
        <time>2025-04-28T07:18:20Z</time>
      </trkpt>
      <trkpt lat="42.647483004257083" lon="-2.893226025626063">
        <ele>492.81</ele>
        <time>2025-04-28T07:18:21Z</time>
      </trkpt>
      <trkpt lat="42.647579982876778" lon="-2.89326298981905">
        <ele>493.29000000000002</ele>
        <time>2025-04-28T07:18:22Z</time>
      </trkpt>
      <trkpt lat="42.647696994245052" lon="-2.893285034224391">
        <ele>493.29000000000002</ele>
        <time>2025-04-28T07:18:23Z</time>
      </trkpt>
      <trkpt lat="42.647823980078101" lon="-2.893259972333908">
        <ele>493.29000000000002</ele>
        <time>2025-04-28T07:18:24Z</time>
      </trkpt>
      <trkpt lat="42.647946020588279" lon="-2.893234994262457">
        <ele>493.29000000000002</ele>
        <time>2025-04-28T07:18:25Z</time>
      </trkpt>
      <trkpt lat="42.648054985329509" lon="-2.893214039504528">
        <ele>493.29000000000002</ele>
        <time>2025-04-28T07:18:26Z</time>
      </trkpt>
      <trkpt lat="42.6481659617275" lon="-2.893190989270806">
        <ele>493.76999999999998</ele>
        <time>2025-04-28T07:18:27Z</time>
      </trkpt>
      <trkpt lat="42.648281967267394" lon="-2.893223008140922">
        <ele>494.25999999999999</ele>
        <time>2025-04-28T07:18:28Z</time>
      </trkpt>
      <trkpt lat="42.648405013605952" lon="-2.893304983153939">
        <ele>494.74000000000001</ele>
        <time>2025-04-28T07:18:29Z</time>
      </trkpt>
      <trkpt lat="42.648536022752523" lon="-2.89339299313724">
        <ele>495.22000000000003</ele>
        <time>2025-04-28T07:18:30Z</time>
      </trkpt>
      <trkpt lat="42.648657979443669" lon="-2.893502041697502">
        <ele>495.69999999999999</ele>
        <time>2025-04-28T07:18:31Z</time>
      </trkpt>
      <trkpt lat="42.649083025753498" lon="-2.893925998359919">
        <ele>496.66000000000003</ele>
        <time>2025-04-28T07:18:35Z</time>
      </trkpt>
      <trkpt lat="42.649126024916768" lon="-2.894006967544556">
        <ele>496.66000000000003</ele>
        <time>2025-04-28T07:18:36Z</time>
      </trkpt>
      <trkpt lat="42.649151002988219" lon="-2.894126996397972">
        <ele>496.18000000000001</ele>
        <time>2025-04-28T07:18:37Z</time>
      </trkpt>
      <trkpt lat="42.649176986888051" lon="-2.894249958917499">
        <ele>495.69999999999999</ele>
        <time>2025-04-28T07:18:38Z</time>
      </trkpt>
      <trkpt lat="42.649201964959502" lon="-2.894368981942534">
        <ele>495.22000000000003</ele>
        <time>2025-04-28T07:18:39Z</time>
      </trkpt>
      <trkpt lat="42.649243958294392" lon="-2.894499991089106">
        <ele>494.74000000000001</ele>
        <time>2025-04-28T07:18:40Z</time>
      </trkpt>
      <trkpt lat="42.649327022954822" lon="-2.89455003105104">
        <ele>494.25999999999999</ele>
        <time>2025-04-28T07:18:41Z</time>
      </trkpt>
      <trkpt lat="42.649424001574516" lon="-2.89455397054553">
        <ele>493.29000000000002</ele>
        <time>2025-04-28T07:18:42Z</time>
      </trkpt>
      <trkpt lat="42.649507988244295" lon="-2.89455397054553">
        <ele>492.81</ele>
        <time>2025-04-28T07:18:43Z</time>
      </trkpt>
      <trkpt lat="42.649587029591203" lon="-2.89455397054553">
        <ele>492.81</ele>
        <time>2025-04-28T07:18:44Z</time>
      </trkpt>
      <trkpt lat="42.649637991562486" lon="-2.89459596388042">
        <ele>492.81</ele>
        <time>2025-04-28T07:18:45Z</time>
      </trkpt>
      <trkpt lat="42.649676967412233" lon="-2.894661007449031">
        <ele>493.29000000000002</ele>
        <time>2025-04-28T07:18:46Z</time>
      </trkpt>
      <trkpt lat="42.649676967412233" lon="-2.894791010767222">
        <ele>493.29000000000002</ele>
        <time>2025-04-28T07:18:47Z</time>
      </trkpt>
      <trkpt lat="42.649676967412233" lon="-2.894935011863709">
        <ele>493.29000000000002</ele>
        <time>2025-04-28T07:18:48Z</time>
      </trkpt>
      <trkpt lat="42.649654000997543" lon="-2.895082030445337">
        <ele>493.29000000000002</ele>
        <time>2025-04-28T07:18:49Z</time>
      </trkpt>
      <trkpt lat="42.649622987955809" lon="-2.895242040976882">
        <ele>492.81</ele>
        <time>2025-04-28T07:18:50Z</time>
      </trkpt>
      <trkpt lat="42.649592980742455" lon="-2.895399034023285">
        <ele>492.81</ele>
        <time>2025-04-28T07:18:51Z</time>
      </trkpt>
      <trkpt lat="42.649570014327765" lon="-2.89551998488605">
        <ele>492.81</ele>
        <time>2025-04-28T07:18:52Z</time>
      </trkpt>
      <trkpt lat="42.649607984349132" lon="-2.895660968497396">
        <ele>492.81</ele>
        <time>2025-04-28T07:18:53Z</time>
      </trkpt>
      <trkpt lat="42.649637991562486" lon="-2.895757025107741">
        <ele>492.81</ele>
        <time>2025-04-28T07:18:54Z</time>
      </trkpt>
      <trkpt lat="42.649714015424252" lon="-2.895788038149476">
        <ele>492.32999999999998</ele>
        <time>2025-04-28T07:18:55Z</time>
      </trkpt>
      <trkpt lat="42.649795990437269" lon="-2.89577697403729">
        <ele>492.32999999999998</ele>
        <time>2025-04-28T07:18:56Z</time>
      </trkpt>
      <trkpt lat="42.64988400042057" lon="-2.895716959610581">
        <ele>491.85000000000002</ele>
        <time>2025-04-28T07:18:57Z</time>
      </trkpt>
      <trkpt lat="42.649972010403872" lon="-2.895619980990887">
        <ele>491.85000000000002</ele>
        <time>2025-04-28T07:18:58Z</time>
      </trkpt>
      <trkpt lat="42.650244003161788" lon="-2.895318986847997">
        <ele>490.88999999999999</ele>
        <time>2025-04-28T07:19:01Z</time>
      </trkpt>
      <trkpt lat="42.650326984003186" lon="-2.895262995734811">
        <ele>490.88999999999999</ele>
        <time>2025-04-28T07:19:02Z</time>
      </trkpt>
      <trkpt lat="42.650411976501346" lon="-2.895268024876714">
        <ele>490.88999999999999</ele>
        <time>2025-04-28T07:19:03Z</time>
      </trkpt>
      <trkpt lat="42.650513984262943" lon="-2.895327033475041">
        <ele>490.41000000000003</ele>
        <time>2025-04-28T07:19:04Z</time>
      </trkpt>
      <trkpt lat="42.650568969547749" lon="-2.895426023751497">
        <ele>490.41000000000003</ele>
        <time>2025-04-28T07:19:05Z</time>
      </trkpt>
      <trkpt lat="42.650638036429882" lon="-2.895567007362843">
        <ele>490.41000000000003</ele>
        <time>2025-04-28T07:19:06Z</time>
      </trkpt>
      <trkpt lat="42.650696961209178" lon="-2.895731963217259">
        <ele>490.41000000000003</ele>
        <time>2025-04-28T07:19:07Z</time>
      </trkpt>
      <trkpt lat="42.651426019147038" lon="-2.897829031571746">
        <ele>489.44999999999999</ele>
        <time>2025-04-28T07:19:19Z</time>
      </trkpt>
      <trkpt lat="42.651737993583083" lon="-2.898616008460522">
        <ele>488.49000000000001</ele>
        <time>2025-04-28T07:19:24Z</time>
      </trkpt>
      <trkpt lat="42.651828015223145" lon="-2.898754980415106">
        <ele>488.49000000000001</ele>
        <time>2025-04-28T07:19:25Z</time>
      </trkpt>
      <trkpt lat="42.651936979964375" lon="-2.898857994005084">
        <ele>488.49000000000001</ele>
        <time>2025-04-28T07:19:26Z</time>
      </trkpt>
      <trkpt lat="42.652641981840134" lon="-2.89942997507751">
        <ele>490.41000000000003</ele>
        <time>2025-04-28T07:19:33Z</time>
      </trkpt>
      <trkpt lat="42.653313037008047" lon="-2.899990975856781">
        <ele>491.85000000000002</ele>
        <time>2025-04-28T07:19:42Z</time>
      </trkpt>
      <trkpt lat="42.653411021456122" lon="-2.900069011375308">
        <ele>492.32999999999998</ele>
        <time>2025-04-28T07:19:43Z</time>
      </trkpt>
      <trkpt lat="42.65347296372056" lon="-2.900131037458777">
        <ele>493.29000000000002</ele>
        <time>2025-04-28T07:19:44Z</time>
      </trkpt>
      <trkpt lat="42.653626017272472" lon="-2.900284007191658">
        <ele>494.25999999999999</ele>
        <time>2025-04-28T07:19:46Z</time>
      </trkpt>
      <trkpt lat="42.654013009741902" lon="-2.900695977732539">
        <ele>495.22000000000003</ele>
        <time>2025-04-28T07:19:52Z</time>
      </trkpt>
      <trkpt lat="42.654182994738221" lon="-2.900907034054399">
        <ele>495.69999999999999</ele>
        <time>2025-04-28T07:19:55Z</time>
      </trkpt>
      <trkpt lat="42.654268993064761" lon="-2.901012981310487">
        <ele>495.69999999999999</ele>
        <time>2025-04-28T07:19:56Z</time>
      </trkpt>
      <trkpt lat="42.654318027198315" lon="-2.901045000180602">
        <ele>496.18000000000001</ele>
        <time>2025-04-28T07:19:57Z</time>
      </trkpt>
      <trkpt lat="42.654476026073098" lon="-2.901146002113819">
        <ele>496.66000000000003</ele>
        <time>2025-04-28T07:19:59Z</time>
      </trkpt>
      <trkpt lat="42.654559006914496" lon="-2.901195036247373">
        <ele>496.66000000000003</ele>
        <time>2025-04-28T07:20:00Z</time>
      </trkpt>
      <trkpt lat="42.654725974425673" lon="-2.901295032352209">
        <ele>496.66000000000003</ele>
        <time>2025-04-28T07:20:02Z</time>
      </trkpt>
      <trkpt lat="42.654826976358891" lon="-2.901355968788266">
        <ele>496.66000000000003</ele>
        <time>2025-04-28T07:20:03Z</time>
      </trkpt>
      <trkpt lat="42.654878022149205" lon="-2.901416989043355">
        <ele>496.18000000000001</ele>
        <time>2025-04-28T07:20:04Z</time>
      </trkpt>
      <trkpt lat="42.654950022697449" lon="-2.901523020118475">
        <ele>496.18000000000001</ele>
        <time>2025-04-28T07:20:05Z</time>
      </trkpt>
      <trkpt lat="42.65499796718359" lon="-2.90164397098124">
        <ele>495.69999999999999</ele>
        <time>2025-04-28T07:20:06Z</time>
      </trkpt>
      <trkpt lat="42.655187984928489" lon="-2.902118973433971">
        <ele>494.74000000000001</ele>
        <time>2025-04-28T07:20:10Z</time>
      </trkpt>
      <trkpt lat="42.655269037932158" lon="-2.902227016165853">
        <ele>494.25999999999999</ele>
        <time>2025-04-28T07:20:11Z</time>
      </trkpt>
      <trkpt lat="42.655532984063029" lon="-2.902600010856986">
        <ele>491.85000000000002</ele>
        <time>2025-04-28T07:20:14Z</time>
      </trkpt>
      <trkpt lat="42.655609007924795" lon="-2.90275901556015">
        <ele>491.37</ele>
        <time>2025-04-28T07:20:15Z</time>
      </trkpt>
      <trkpt lat="42.655688971281052" lon="-2.902926988899708">
        <ele>490.41000000000003</ele>
        <time>2025-04-28T07:20:16Z</time>
      </trkpt>
      <trkpt lat="42.655759966000915" lon="-2.903112983331084">
        <ele>489.44999999999999</ele>
        <time>2025-04-28T07:20:17Z</time>
      </trkpt>
      <trkpt lat="42.655819980427623" lon="-2.903313981369138">
        <ele>488.97000000000003</ele>
        <time>2025-04-28T07:20:18Z</time>
      </trkpt>
      <trkpt lat="42.656253995373845" lon="-2.905140984803438">
        <ele>481.27999999999997</ele>
        <time>2025-04-28T07:20:27Z</time>
      </trkpt>
      <trkpt lat="42.656760010868311" lon="-2.906568003818393">
        <ele>477.43000000000001</ele>
        <time>2025-04-28T07:20:36Z</time>
      </trkpt>
      <trkpt lat="42.656829999759793" lon="-2.906663976609707">
        <ele>476.94999999999999</ele>
        <time>2025-04-28T07:20:37Z</time>
      </trkpt>
      <trkpt lat="42.656913986429572" lon="-2.906751986593008">
        <ele>476.94999999999999</ele>
        <time>2025-04-28T07:20:38Z</time>
      </trkpt>
      <trkpt lat="42.657005013898015" lon="-2.906786017119885">
        <ele>476.94999999999999</ele>
        <time>2025-04-28T07:20:39Z</time>
      </trkpt>
      <trkpt lat="42.657084977254272" lon="-2.906911997124553">
        <ele>476.94999999999999</ele>
        <time>2025-04-28T07:20:40Z</time>
      </trkpt>
      <trkpt lat="42.65712303109467" lon="-2.907063961029053">
        <ele>476.47000000000003</ele>
        <time>2025-04-28T07:20:41Z</time>
      </trkpt>
      <trkpt lat="42.65716603025794" lon="-2.907174015417695">
        <ele>476.47000000000003</ele>
        <time>2025-04-28T07:20:42Z</time>
      </trkpt>
      <trkpt lat="42.657711021602154" lon="-2.908574966713786">
        <ele>475.50999999999999</ele>
        <time>2025-04-28T07:20:52Z</time>
      </trkpt>
      <trkpt lat="42.658608974888921" lon="-2.910835985094309">
        <ele>471.18000000000001</ele>
        <time>2025-04-28T07:21:06Z</time>
      </trkpt>
      <trkpt lat="42.659823009744287" lon="-2.913894038647413">
        <ele>465.42000000000002</ele>
        <time>2025-04-28T07:21:24Z</time>
      </trkpt>
      <trkpt lat="42.660130960866809" lon="-2.914669029414654">
        <ele>464.93000000000001</ele>
        <time>2025-04-28T07:21:30Z</time>
      </trkpt>
      <trkpt lat="42.660513008013368" lon="-2.915513003244996">
        <ele>465.42000000000002</ele>
        <time>2025-04-28T07:21:37Z</time>
      </trkpt>
      <trkpt lat="42.661501988768578" lon="-2.917382000014186">
        <ele>466.86000000000001</ele>
        <time>2025-04-28T07:21:49Z</time>
      </trkpt>
      <trkpt lat="42.662750976160169" lon="-2.919741002842784">
        <ele>469.25999999999999</ele>
        <time>2025-04-28T07:22:03Z</time>
      </trkpt>
      <trkpt lat="42.663625963032246" lon="-2.921393997967243">
        <ele>472.13999999999999</ele>
        <time>2025-04-28T07:22:14Z</time>
      </trkpt>
      <trkpt lat="42.663754038512707" lon="-2.921633971855044">
        <ele>471.66000000000003</ele>
        <time>2025-04-28T07:22:17Z</time>
      </trkpt>
      <trkpt lat="42.663867026567459" lon="-2.921792976558209">
        <ele>471.66000000000003</ele>
        <time>2025-04-28T07:22:18Z</time>
      </trkpt>
      <trkpt lat="42.663879012688994" lon="-2.92192499153316">
        <ele>471.66000000000003</ele>
        <time>2025-04-28T07:22:19Z</time>
      </trkpt>
      <trkpt lat="42.663918994367123" lon="-2.922210982069373">
        <ele>471.66000000000003</ele>
        <time>2025-04-28T07:22:21Z</time>
      </trkpt>
      <trkpt lat="42.66395696438849" lon="-2.922352971509099">
        <ele>472.13999999999999</ele>
        <time>2025-04-28T07:22:22Z</time>
      </trkpt>
      <trkpt lat="42.664031982421875" lon="-2.922621024772525">
        <ele>472.13999999999999</ele>
        <time>2025-04-28T07:22:24Z</time>
      </trkpt>
      <trkpt lat="42.664054026827216" lon="-2.922819005325437">
        <ele>472.13999999999999</ele>
        <time>2025-04-28T07:22:25Z</time>
      </trkpt>
      <trkpt lat="42.664071964100003" lon="-2.922992007806897">
        <ele>472.63</ele>
        <time>2025-04-28T07:22:26Z</time>
      </trkpt>
      <trkpt lat="42.664366001263261" lon="-2.924959994852543">
        <ele>472.63</ele>
        <time>2025-04-28T07:22:36Z</time>
      </trkpt>
      <trkpt lat="42.664835974574089" lon="-2.926814993843436">
        <ele>471.66000000000003</ele>
        <time>2025-04-28T07:22:45Z</time>
      </trkpt>
      <trkpt lat="42.665105033665895" lon="-2.928981967270374">
        <ele>468.30000000000001</ele>
        <time>2025-04-28T07:22:55Z</time>
      </trkpt>
      <trkpt lat="42.665638960897923" lon="-2.930802013725042">
        <ele>468.30000000000001</ele>
        <time>2025-04-28T07:23:05Z</time>
      </trkpt>
      <trkpt lat="42.666394002735615" lon="-2.932325005531311">
        <ele>470.69999999999999</ele>
        <time>2025-04-28T07:23:15Z</time>
      </trkpt>
      <trkpt lat="42.666917033493519" lon="-2.933232011273503">
        <ele>472.13999999999999</ele>
        <time>2025-04-28T07:23:23Z</time>
      </trkpt>
      <trkpt lat="42.668057978153229" lon="-2.935038981959224">
        <ele>471.66000000000003</ele>
        <time>2025-04-28T07:23:38Z</time>
      </trkpt>
      <trkpt lat="42.668587965890765" lon="-2.935937019065023">
        <ele>470.22000000000003</ele>
        <time>2025-04-28T07:23:46Z</time>
      </trkpt>
      <trkpt lat="42.668658960610628" lon="-2.936080014333129">
        <ele>470.22000000000003</ele>
        <time>2025-04-28T07:23:47Z</time>
      </trkpt>
      <trkpt lat="42.6696050260216" lon="-2.937235962599516">
        <ele>467.33999999999997</ele>
        <time>2025-04-28T07:23:56Z</time>
      </trkpt>
      <trkpt lat="42.670675981789827" lon="-2.938227038830519">
        <ele>466.38</ele>
        <time>2025-04-28T07:24:07Z</time>
      </trkpt>
      <trkpt lat="42.672110963612795" lon="-2.939582979306579">
        <ele>465.89999999999998</ele>
        <time>2025-04-28T07:24:22Z</time>
      </trkpt>
      <trkpt lat="42.67323799431324" lon="-2.940699029713869">
        <ele>465.89999999999998</ele>
        <time>2025-04-28T07:24:34Z</time>
      </trkpt>
      <trkpt lat="42.674554036930203" lon="-2.942246999591589">
        <ele>466.86000000000001</ele>
        <time>2025-04-28T07:24:49Z</time>
      </trkpt>
      <trkpt lat="42.675574030727148" lon="-2.944171987473965">
        <ele>465.42000000000002</ele>
        <time>2025-04-28T07:25:04Z</time>
      </trkpt>
      <trkpt lat="42.67643803730607" lon="-2.945845015347004">
        <ele>464.44999999999999</ele>
        <time>2025-04-28T07:25:17Z</time>
      </trkpt>
      <trkpt lat="42.67716902308166" lon="-2.946808012202382">
        <ele>463.97000000000003</ele>
        <time>2025-04-28T07:25:26Z</time>
      </trkpt>
      <trkpt lat="42.677266001701355" lon="-2.94684698805213">
        <ele>463.49000000000001</ele>
        <time>2025-04-28T07:25:27Z</time>
      </trkpt>
      <trkpt lat="42.677359040826559" lon="-2.94684698805213">
        <ele>463.49000000000001</ele>
        <time>2025-04-28T07:25:28Z</time>
      </trkpt>
      <trkpt lat="42.677453001961112" lon="-2.94684698805213">
        <ele>463.49000000000001</ele>
        <time>2025-04-28T07:25:29Z</time>
      </trkpt>
      <trkpt lat="42.677544029429555" lon="-2.946873977780342">
        <ele>463.00999999999999</ele>
        <time>2025-04-28T07:25:30Z</time>
      </trkpt>
      <trkpt lat="42.677617035806179" lon="-2.946936003863812">
        <ele>463.00999999999999</ele>
        <time>2025-04-28T07:25:31Z</time>
      </trkpt>
      <trkpt lat="42.677689958363771" lon="-2.947014961391687">
        <ele>463.00999999999999</ele>
        <time>2025-04-28T07:25:32Z</time>
      </trkpt>
      <trkpt lat="42.677765982225537" lon="-2.947098026052117">
        <ele>463.00999999999999</ele>
        <time>2025-04-28T07:25:33Z</time>
      </trkpt>
      <trkpt lat="42.677935967221856" lon="-2.947258036583662">
        <ele>463.00999999999999</ele>
        <time>2025-04-28T07:25:35Z</time>
      </trkpt>
      <trkpt lat="42.678024983033538" lon="-2.947329031303525">
        <ele>463.00999999999999</ele>
        <time>2025-04-28T07:25:36Z</time>
      </trkpt>
      <trkpt lat="42.678116010501981" lon="-2.947373958304524">
        <ele>463.00999999999999</ele>
        <time>2025-04-28T07:25:37Z</time>
      </trkpt>
      <trkpt lat="42.678447011858225" lon="-2.947462974116206">
        <ele>462.52999999999997</ele>
        <time>2025-04-28T07:25:41Z</time>
      </trkpt>
      <trkpt lat="42.678512977436185" lon="-2.94749197550118">
        <ele>462.05000000000001</ele>
        <time>2025-04-28T07:25:42Z</time>
      </trkpt>
      <trkpt lat="42.678571986034513" lon="-2.947517037391663">
        <ele>462.05000000000001</ele>
        <time>2025-04-28T07:25:43Z</time>
      </trkpt>
      <trkpt lat="42.678812965750694" lon="-2.947605969384313">
        <ele>461.56999999999999</ele>
        <time>2025-04-28T07:25:47Z</time>
      </trkpt>
      <trkpt lat="42.678882032632828" lon="-2.947624996304512">
        <ele>461.56999999999999</ele>
        <time>2025-04-28T07:25:48Z</time>
      </trkpt>
      <trkpt lat="42.679589968174696" lon="-2.94781300239265">
        <ele>462.05000000000001</ele>
        <time>2025-04-28T07:25:57Z</time>
      </trkpt>
      <trkpt lat="42.680253982543945" lon="-2.947935964912176">
        <ele>463.49000000000001</ele>
        <time>2025-04-28T07:26:08Z</time>
      </trkpt>
      <trkpt lat="42.680373005568981" lon="-2.947949040681124">
        <ele>463.97000000000003</ele>
        <time>2025-04-28T07:26:10Z</time>
      </trkpt>
      <trkpt lat="42.681117989122868" lon="-2.947949962690473">
        <ele>464.44999999999999</ele>
        <time>2025-04-28T07:26:22Z</time>
      </trkpt>
      <trkpt lat="42.681870013475418" lon="-2.947940994054079">
        <ele>465.42000000000002</ele>
        <time>2025-04-28T07:26:34Z</time>
      </trkpt>
      <trkpt lat="42.682636035606265" lon="-2.947894977405667">
        <ele>465.42000000000002</ele>
        <time>2025-04-28T07:26:46Z</time>
      </trkpt>
      <trkpt lat="42.682703007012606" lon="-2.947891037911177">
        <ele>465.42000000000002</ele>
        <time>2025-04-28T07:26:47Z</time>
      </trkpt>
      <trkpt lat="42.682902999222279" lon="-2.947880979627371">
        <ele>465.42000000000002</ele>
        <time>2025-04-28T07:26:50Z</time>
      </trkpt>
      <trkpt lat="42.682964019477367" lon="-2.94787704013288">
        <ele>464.93000000000001</ele>
        <time>2025-04-28T07:26:51Z</time>
      </trkpt>
      <trkpt lat="42.683019004762173" lon="-2.9478760343045">
        <ele>464.93000000000001</ele>
        <time>2025-04-28T07:26:52Z</time>
      </trkpt>
      <trkpt lat="42.683166023343801" lon="-2.9478760343045">
        <ele>465.42000000000002</ele>
        <time>2025-04-28T07:26:55Z</time>
      </trkpt>
      <trkpt lat="42.683281023055315" lon="-2.947875028476119">
        <ele>465.42000000000002</ele>
        <time>2025-04-28T07:26:57Z</time>
      </trkpt>
      <trkpt lat="42.683342965319753" lon="-2.947873016819358">
        <ele>465.89999999999998</ele>
        <time>2025-04-28T07:26:58Z</time>
      </trkpt>
      <trkpt lat="42.683404991403222" lon="-2.947872010990977">
        <ele>465.89999999999998</ele>
        <time>2025-04-28T07:26:59Z</time>
      </trkpt>
      <trkpt lat="42.683513034135103" lon="-2.947868993505836">
        <ele>466.38</ele>
        <time>2025-04-28T07:27:01Z</time>
      </trkpt>
      <trkpt lat="42.683556033298373" lon="-2.947867987677455">
        <ele>466.86000000000001</ele>
        <time>2025-04-28T07:27:02Z</time>
      </trkpt>
      <trkpt lat="42.683596014976501" lon="-2.947866981849074">
        <ele>466.86000000000001</ele>
        <time>2025-04-28T07:27:03Z</time>
      </trkpt>
      <trkpt lat="42.683698022738099" lon="-2.947863964363933">
        <ele>467.81999999999999</ele>
        <time>2025-04-28T07:27:06Z</time>
      </trkpt>
      <trkpt lat="42.683739010244608" lon="-2.947862958535552">
        <ele>469.74000000000001</ele>
        <time>2025-04-28T07:27:15Z</time>
      </trkpt>
      <trkpt lat="42.683777986094356" lon="-2.947862036526203">
        <ele>470.22000000000003</ele>
        <time>2025-04-28T07:27:23Z</time>
      </trkpt>
      <trkpt lat="42.683797013014555" lon="-2.947862036526203">
        <ele>470.22000000000003</ele>
        <time>2025-04-28T07:27:24Z</time>
      </trkpt>
      <trkpt lat="42.683817967772484" lon="-2.947861030697823">
        <ele>470.22000000000003</ele>
        <time>2025-04-28T07:27:25Z</time>
      </trkpt>
      <trkpt lat="42.683943025767803" lon="-2.947858013212681">
        <ele>471.66000000000003</ele>
        <time>2025-04-28T07:27:35Z</time>
      </trkpt>
      <trkpt lat="42.684348961338401" lon="-2.947844015434384">
        <ele>473.11000000000001</ele>
        <time>2025-04-28T07:27:42Z</time>
      </trkpt>
      <trkpt lat="42.684416016563773" lon="-2.947840997949243">
        <ele>473.11000000000001</ele>
        <time>2025-04-28T07:27:43Z</time>
      </trkpt>
      <trkpt lat="42.684487011283636" lon="-2.947837980464101">
        <ele>473.58999999999997</ele>
        <time>2025-04-28T07:27:44Z</time>
      </trkpt>
      <trkpt lat="42.684749029576778" lon="-2.94783404096961">
        <ele>473.58999999999997</ele>
        <time>2025-04-28T07:27:48Z</time>
      </trkpt>
      <trkpt lat="42.684813989326358" lon="-2.94783404096961">
        <ele>473.58999999999997</ele>
        <time>2025-04-28T07:27:49Z</time>
      </trkpt>
      <trkpt lat="42.684871992096305" lon="-2.947838986292481">
        <ele>474.06999999999999</ele>
        <time>2025-04-28T07:27:50Z</time>
      </trkpt>
      <trkpt lat="42.684918008744717" lon="-2.947842003777623">
        <ele>474.06999999999999</ele>
        <time>2025-04-28T07:27:51Z</time>
      </trkpt>
      <trkpt lat="42.684956984594464" lon="-2.947845021262765">
        <ele>474.06999999999999</ele>
        <time>2025-04-28T07:27:52Z</time>
      </trkpt>
      <trkpt lat="42.685014987364411" lon="-2.947849966585636">
        <ele>474.55000000000001</ele>
        <time>2025-04-28T07:28:00Z</time>
      </trkpt>
      <trkpt lat="42.685081958770752" lon="-2.947854995727539">
        <ele>474.55000000000001</ele>
        <time>2025-04-28T07:28:34Z</time>
      </trkpt>
      <trkpt lat="42.685214979574084" lon="-2.947834962978959">
        <ele>476.47000000000003</ele>
        <time>2025-04-28T07:28:40Z</time>
      </trkpt>
      <trkpt lat="42.685259990394115" lon="-2.947828005999327">
        <ele>476.47000000000003</ele>
        <time>2025-04-28T07:28:41Z</time>
      </trkpt>
      <trkpt lat="42.685307012870908" lon="-2.947820965200663">
        <ele>476.47000000000003</ele>
        <time>2025-04-28T07:28:42Z</time>
      </trkpt>
      <trkpt lat="42.68548496067524" lon="-2.9477499704808">
        <ele>475.99000000000001</ele>
        <time>2025-04-28T07:28:46Z</time>
      </trkpt>
      <trkpt lat="42.685575988143682" lon="-2.947704959660769">
        <ele>475.50999999999999</ele>
        <time>2025-04-28T07:28:47Z</time>
      </trkpt>
      <trkpt lat="42.685603983700275" lon="-2.947723986580968">
        <ele>475.50999999999999</ele>
        <time>2025-04-28T07:28:48Z</time>
      </trkpt>
      <trkpt lat="42.685660980641842" lon="-2.947808979079127">
        <ele>475.02999999999997</ele>
        <time>2025-04-28T07:28:49Z</time>
      </trkpt>
      <trkpt lat="42.685642959550023" lon="-2.947907969355583">
        <ele>475.02999999999997</ele>
        <time>2025-04-28T07:28:50Z</time>
      </trkpt>
      <trkpt lat="42.685593003407121" lon="-2.947957003489137">
        <ele>474.55000000000001</ele>
        <time>2025-04-28T07:28:51Z</time>
      </trkpt>
      <trkpt lat="42.685556039214134" lon="-2.94798600487411">
        <ele>474.55000000000001</ele>
        <time>2025-04-28T07:28:52Z</time>
      </trkpt>
      <trkpt lat="42.685518991202116" lon="-2.948015006259084">
        <ele>474.06999999999999</ele>
        <time>2025-04-28T07:28:53Z</time>
      </trkpt>
      <trkpt lat="42.68535596318543" lon="-2.948144003748894">
        <ele>472.63</ele>
        <time>2025-04-28T07:28:57Z</time>
      </trkpt>
      <trkpt lat="42.685275999829173" lon="-2.948207035660744">
        <ele>472.13999999999999</ele>
        <time>2025-04-28T07:28:59Z</time>
      </trkpt>
      <trkpt lat="42.685240041464567" lon="-2.948236037045717">
        <ele>472.13999999999999</ele>
        <time>2025-04-28T07:29:00Z</time>
      </trkpt>
      <trkpt lat="42.685213973745704" lon="-2.948213992640376">
        <ele>472.13999999999999</ele>
        <time>2025-04-28T07:29:01Z</time>
      </trkpt>
      <trkpt lat="42.685190001502633" lon="-2.94817702844739">
        <ele>472.13999999999999</ele>
        <time>2025-04-28T07:29:02Z</time>
      </trkpt>
      <trkpt lat="42.685190001502633" lon="-2.94817702844739">
        <ele>471.66000000000003</ele>
        <time>2025-04-28T07:29:03Z</time>
      </trkpt>
      <trkpt lat="42.685190001502633" lon="-2.94817702844739">
        <ele>471.18000000000001</ele>
        <time>2025-04-28T07:29:04Z</time>
      </trkpt>
      <trkpt lat="42.685167035087943" lon="-2.947928002104163">
        <ele>471.18000000000001</ele>
        <time>2025-04-28T07:29:05Z</time>
      </trkpt>
      <trkpt lat="42.685126969590783" lon="-2.947893971577287">
        <ele>471.18000000000001</ele>
        <time>2025-04-28T07:29:06Z</time>
      </trkpt>
      <trkpt lat="42.685087993741035" lon="-2.947860024869442">
        <ele>470.69999999999999</ele>
        <time>2025-04-28T07:29:07Z</time>
      </trkpt>
      <trkpt lat="42.68500903621316" lon="-2.947848960757256">
        <ele>470.69999999999999</ele>
        <time>2025-04-28T07:29:08Z</time>
      </trkpt>
      <trkpt lat="42.684986991807818" lon="-2.947848038747907">
        <ele>470.22000000000003</ele>
        <time>2025-04-28T07:29:09Z</time>
      </trkpt>
      <trkpt lat="42.684938963502645" lon="-2.947844015434384">
        <ele>469.25999999999999</ele>
        <time>2025-04-28T07:29:12Z</time>
      </trkpt>
      <trkpt lat="42.684917002916336" lon="-2.947842003777623">
        <ele>469.25999999999999</ele>
        <time>2025-04-28T07:29:13Z</time>
      </trkpt>
      <trkpt lat="42.684888001531363" lon="-2.947839992120862">
        <ele>468.77999999999997</ele>
        <time>2025-04-28T07:29:14Z</time>
      </trkpt>
      <trkpt lat="42.684400007128716" lon="-2.947842003777623">
        <ele>464.44999999999999</ele>
        <time>2025-04-28T07:29:24Z</time>
      </trkpt>
      <trkpt lat="42.684351978823543" lon="-2.947843009606004">
        <ele>463.97000000000003</ele>
        <time>2025-04-28T07:29:25Z</time>
      </trkpt>
      <trkpt lat="42.684213006868958" lon="-2.947848960757256">
        <ele>463.97000000000003</ele>
        <time>2025-04-28T07:29:28Z</time>
      </trkpt>
      <trkpt lat="42.684166990220547" lon="-2.947850972414017">
        <ele>463.49000000000001</ele>
        <time>2025-04-28T07:29:29Z</time>
      </trkpt>
      <trkpt lat="42.684123991057277" lon="-2.947851978242397">
        <ele>463.49000000000001</ele>
        <time>2025-04-28T07:29:30Z</time>
      </trkpt>
      <trkpt lat="42.684090966358781" lon="-2.947853989899159">
        <ele>463.49000000000001</ele>
        <time>2025-04-28T07:29:31Z</time>
      </trkpt>
      <trkpt lat="42.684051990509033" lon="-2.947854995727539">
        <ele>463.49000000000001</ele>
        <time>2025-04-28T07:29:32Z</time>
      </trkpt>
      <trkpt lat="42.683974038809538" lon="-2.9478570073843">
        <ele>464.44999999999999</ele>
        <time>2025-04-28T07:29:36Z</time>
      </trkpt>
      <trkpt lat="42.683959035202861" lon="-2.9478570073843">
        <ele>464.44999999999999</ele>
        <time>2025-04-28T07:29:37Z</time>
      </trkpt>
      <trkpt lat="42.683955011889338" lon="-2.9478570073843">
        <ele>464.44999999999999</ele>
        <time>2025-04-28T07:29:38Z</time>
      </trkpt>
      <trkpt lat="42.683955011889338" lon="-2.9478570073843">
        <ele>464.93000000000001</ele>
        <time>2025-04-28T07:29:55Z</time>
      </trkpt>
      <trkpt lat="42.684033969417214" lon="-2.947850972414017">
        <ele>489.93000000000001</ele>
        <time>2025-04-28T07:51:12Z</time>
      </trkpt>
      <trkpt lat="42.683933973312378" lon="-2.947971001267433">
        <ele>462.05000000000001</ele>
        <time>2025-04-28T07:51:42Z</time>
      </trkpt>
      <trkpt lat="42.68391402438283" lon="-2.948038978502154">
        <ele>463.00999999999999</ele>
        <time>2025-04-28T07:52:13Z</time>
      </trkpt>
      <trkpt lat="42.683855015784502" lon="-2.947989022359252">
        <ele>465.42000000000002</ele>
        <time>2025-04-28T07:52:26Z</time>
      </trkpt>
      <trkpt lat="42.683826014399529" lon="-2.947861030697823">
        <ele>465.42000000000002</ele>
        <time>2025-04-28T07:52:29Z</time>
      </trkpt>
      <trkpt lat="42.68378796055913" lon="-2.947862036526203">
        <ele>465.42000000000002</ele>
        <time>2025-04-28T07:52:30Z</time>
      </trkpt>
      <trkpt lat="42.683568019419909" lon="-2.947866981849074">
        <ele>464.44999999999999</ele>
        <time>2025-04-28T07:52:34Z</time>
      </trkpt>
      <trkpt lat="42.683317987248302" lon="-2.947874022647739">
        <ele>463.49000000000001</ele>
        <time>2025-04-28T07:52:42Z</time>
      </trkpt>
      <trkpt lat="42.683312958106399" lon="-2.947874022647739">
        <ele>464.44999999999999</ele>
        <time>2025-04-28T07:52:44Z</time>
      </trkpt>
      <trkpt lat="42.683652006089687" lon="-2.947864970192313">
        <ele>466.38</ele>
        <time>2025-04-28T07:52:51Z</time>
      </trkpt>
      <trkpt lat="42.683784021064639" lon="-2.947862036526203">
        <ele>466.86000000000001</ele>
        <time>2025-04-28T07:52:58Z</time>
      </trkpt>
      <trkpt lat="42.683991976082325" lon="-2.9478570073843">
        <ele>466.38</ele>
        <time>2025-04-28T07:53:08Z</time>
      </trkpt>
      <trkpt lat="42.684282995760441" lon="-2.947846027091146">
        <ele>466.86000000000001</ele>
        <time>2025-04-28T07:53:12Z</time>
      </trkpt>
      <trkpt lat="42.684698989614844" lon="-2.94783404096961">
        <ele>467.33999999999997</ele>
        <time>2025-04-28T07:53:20Z</time>
      </trkpt>
      <trkpt lat="42.68475397489965" lon="-2.94783404096961">
        <ele>467.81999999999999</ele>
        <time>2025-04-28T07:53:21Z</time>
      </trkpt>
      <trkpt lat="42.684804014861584" lon="-2.94783404096961">
        <ele>467.81999999999999</ele>
        <time>2025-04-28T07:53:22Z</time>
      </trkpt>
      <trkpt lat="42.684940975159407" lon="-2.947844015434384">
        <ele>471.18000000000001</ele>
        <time>2025-04-28T07:53:32Z</time>
      </trkpt>
      <trkpt lat="42.685059998184443" lon="-2.947852984070778">
        <ele>474.55000000000001</ele>
        <time>2025-04-28T07:54:12Z</time>
      </trkpt>
      <trkpt lat="42.685110960155725" lon="-2.947850972414017">
        <ele>474.06999999999999</ele>
        <time>2025-04-28T07:54:13Z</time>
      </trkpt>
      <trkpt lat="42.685168962925673" lon="-2.947842003777623">
        <ele>474.06999999999999</ele>
        <time>2025-04-28T07:54:14Z</time>
      </trkpt>
      <trkpt lat="42.685228977352381" lon="-2.94783303514123">
        <ele>473.58999999999997</ele>
        <time>2025-04-28T07:54:15Z</time>
      </trkpt>
      <trkpt lat="42.685286980122328" lon="-2.947823982685804">
        <ele>473.11000000000001</ele>
        <time>2025-04-28T07:54:16Z</time>
      </trkpt>
      <trkpt lat="42.685402985662222" lon="-2.94779104180634">
        <ele>473.11000000000001</ele>
        <time>2025-04-28T07:54:17Z</time>
      </trkpt>
      <trkpt lat="42.685402985662222" lon="-2.94779104180634">
        <ele>473.58999999999997</ele>
        <time>2025-04-28T07:54:18Z</time>
      </trkpt>
      <trkpt lat="42.685499964281917" lon="-2.947743013501167">
        <ele>473.11000000000001</ele>
        <time>2025-04-28T07:54:19Z</time>
      </trkpt>
      <trkpt lat="42.685499964281917" lon="-2.947743013501167">
        <ele>473.11000000000001</ele>
        <time>2025-04-28T07:54:20Z</time>
      </trkpt>
      <trkpt lat="42.685540029779077" lon="-2.947722980752587">
        <ele>473.58999999999997</ele>
        <time>2025-04-28T07:54:21Z</time>
      </trkpt>
      <trkpt lat="42.685575988143682" lon="-2.947704959660769">
        <ele>473.58999999999997</ele>
        <time>2025-04-28T07:54:22Z</time>
      </trkpt>
      <trkpt lat="42.685618987306952" lon="-2.947733961045742">
        <ele>473.58999999999997</ele>
        <time>2025-04-28T07:54:23Z</time>
      </trkpt>
      <trkpt lat="42.685640025883913" lon="-2.947747958824039">
        <ele>474.06999999999999</ele>
        <time>2025-04-28T07:54:24Z</time>
      </trkpt>
      <trkpt lat="42.685713032260537" lon="-2.947805961593986">
        <ele>474.55000000000001</ele>
        <time>2025-04-28T07:54:25Z</time>
      </trkpt>
      <trkpt lat="42.685766005888581" lon="-2.947800010442734">
        <ele>475.02999999999997</ele>
        <time>2025-04-28T07:54:26Z</time>
      </trkpt>
      <trkpt lat="42.685821997001767" lon="-2.94779397547245">
        <ele>475.02999999999997</ele>
        <time>2025-04-28T07:54:27Z</time>
      </trkpt>
      <trkpt lat="42.686166996136308" lon="-2.947754999622703">
        <ele>476.94999999999999</ele>
        <time>2025-04-28T07:54:32Z</time>
      </trkpt>
      <trkpt lat="42.686270009726286" lon="-2.947743013501167">
        <ele>476.94999999999999</ele>
        <time>2025-04-28T07:54:34Z</time>
      </trkpt>
      <trkpt lat="42.68632298335433" lon="-2.947736978530884">
        <ele>476.94999999999999</ele>
        <time>2025-04-28T07:54:35Z</time>
      </trkpt>
      <trkpt lat="42.686445023864508" lon="-2.947797998785973">
        <ele>476.94999999999999</ele>
        <time>2025-04-28T07:54:36Z</time>
      </trkpt>
      <trkpt lat="42.686481988057494" lon="-2.947880979627371">
        <ele>476.47000000000003</ele>
        <time>2025-04-28T07:54:37Z</time>
      </trkpt>
      <trkpt lat="42.686521969735622" lon="-2.947961026802659">
        <ele>475.99000000000001</ele>
        <time>2025-04-28T07:54:38Z</time>
      </trkpt>
      <trkpt lat="42.686565974727273" lon="-2.948040990158916">
        <ele>475.99000000000001</ele>
        <time>2025-04-28T07:54:39Z</time>
      </trkpt>
      <trkpt lat="42.686565974727273" lon="-2.948040990158916">
        <ele>475.50999999999999</ele>
        <time>2025-04-28T07:54:40Z</time>
      </trkpt>
      <trkpt lat="42.686634035781026" lon="-2.948139980435371">
        <ele>475.02999999999997</ele>
        <time>2025-04-28T07:54:41Z</time>
      </trkpt>
      <trkpt lat="42.686724979430437" lon="-2.948231007903814">
        <ele>473.58999999999997</ele>
        <time>2025-04-28T07:54:48Z</time>
      </trkpt>
      <trkpt lat="42.686804020777345" lon="-2.948310971260071">
        <ele>472.63</ele>
        <time>2025-04-28T07:54:52Z</time>
      </trkpt>
      <trkpt lat="42.686834027990699" lon="-2.948338966816664">
        <ele>472.13999999999999</ele>
        <time>2025-04-28T07:54:53Z</time>
      </trkpt>
      <trkpt lat="42.686871998012066" lon="-2.94837299734354">
        <ele>471.66000000000003</ele>
        <time>2025-04-28T07:54:54Z</time>
      </trkpt>
      <trkpt lat="42.686918014660478" lon="-2.948412979021668">
        <ele>471.18000000000001</ele>
        <time>2025-04-28T07:54:55Z</time>
      </trkpt>
      <trkpt lat="42.686960007995367" lon="-2.948451032862067">
        <ele>471.18000000000001</ele>
        <time>2025-04-28T07:54:56Z</time>
      </trkpt>
      <trkpt lat="42.686996972188354" lon="-2.948483973741531">
        <ele>470.69999999999999</ele>
        <time>2025-04-28T07:54:57Z</time>
      </trkpt>
      <trkpt lat="42.687024967744946" lon="-2.948507023975253">
        <ele>470.69999999999999</ele>
        <time>2025-04-28T07:54:58Z</time>
      </trkpt>
      <trkpt lat="42.687052041292191" lon="-2.948527978733182">
        <ele>470.22000000000003</ele>
        <time>2025-04-28T07:54:59Z</time>
      </trkpt>
      <trkpt lat="42.687149019911885" lon="-2.948601990938187">
        <ele>468.77999999999997</ele>
        <time>2025-04-28T07:55:03Z</time>
      </trkpt>
      <trkpt lat="42.687233006581664" lon="-2.948667034506798">
        <ele>467.81999999999999</ele>
        <time>2025-04-28T07:55:05Z</time>
      </trkpt>
      <trkpt lat="42.68763299100101" lon="-2.948972973972559">
        <ele>466.38</ele>
        <time>2025-04-28T07:55:14Z</time>
      </trkpt>
      <trkpt lat="42.687650006264448" lon="-2.948985965922475">
        <ele>466.38</ele>
        <time>2025-04-28T07:55:15Z</time>
      </trkpt>
      <trkpt lat="42.687717983499169" lon="-2.949101971462369">
        <ele>466.38</ele>
        <time>2025-04-28T07:55:16Z</time>
      </trkpt>
      <trkpt lat="42.687704991549253" lon="-2.949126027524471">
        <ele>465.42000000000002</ele>
        <time>2025-04-28T07:55:17Z</time>
      </trkpt>
      <trkpt lat="42.687685964629054" lon="-2.949158968403935">
        <ele>464.93000000000001</ele>
        <time>2025-04-28T07:55:18Z</time>
      </trkpt>
      <trkpt lat="42.687664004042745" lon="-2.949200039729476">
        <ele>464.44999999999999</ele>
        <time>2025-04-28T07:55:19Z</time>
      </trkpt>
      <trkpt lat="42.687630979344249" lon="-2.949257958680391">
        <ele>463.49000000000001</ele>
        <time>2025-04-28T07:55:20Z</time>
      </trkpt>
      <trkpt lat="42.687430987134576" lon="-2.94961896724999">
        <ele>460.61000000000001</ele>
        <time>2025-04-28T07:55:25Z</time>
      </trkpt>
      <trkpt lat="42.687253039330244" lon="-2.949938988313079">
        <ele>455.31999999999999</ele>
        <time>2025-04-28T07:55:33Z</time>
      </trkpt>
      <trkpt lat="42.687238035723567" lon="-2.949966983869672">
        <ele>454.36000000000001</ele>
        <time>2025-04-28T07:55:34Z</time>
      </trkpt>
      <trkpt lat="42.687226971611381" lon="-2.949986010789871">
        <ele>451</ele>
        <time>2025-04-28T07:55:44Z</time>
      </trkpt>
      <trkpt lat="42.687181038782001" lon="-2.95006899163127">
        <ele>450.02999999999997</ele>
        <time>2025-04-28T07:55:46Z</time>
      </trkpt>
      <trkpt lat="42.687164023518562" lon="-2.950097993016243">
        <ele>450.02999999999997</ele>
        <time>2025-04-28T07:55:47Z</time>
      </trkpt>
      <trkpt lat="42.687130998820066" lon="-2.950250962749124">
        <ele>449.55000000000001</ele>
        <time>2025-04-28T07:55:49Z</time>
      </trkpt>
      <trkpt lat="42.687181038782001" lon="-2.95030795969069">
        <ele>449.55000000000001</ele>
        <time>2025-04-28T07:55:50Z</time>
      </trkpt>
      <trkpt lat="42.68735496327281" lon="-2.950500994920731">
        <ele>449.55000000000001</ele>
        <time>2025-04-28T07:55:53Z</time>
      </trkpt>
      <trkpt lat="42.68741799518466" lon="-2.950569977983832">
        <ele>450.02999999999997</ele>
        <time>2025-04-28T07:55:54Z</time>
      </trkpt>
      <trkpt lat="42.687827032059431" lon="-2.950985971838236">
        <ele>451.95999999999998</ele>
        <time>2025-04-28T07:56:00Z</time>
      </trkpt>
      <trkpt lat="42.688297005370259" lon="-2.951483018696308">
        <ele>451</ele>
        <time>2025-04-28T07:56:04Z</time>
      </trkpt>
      <trkpt lat="42.688373029232025" lon="-2.951568011194468">
        <ele>451.95999999999998</ele>
        <time>2025-04-28T07:56:06Z</time>
      </trkpt>
      <trkpt lat="42.688631024211645" lon="-2.951880991458893">
        <ele>457.72000000000003</ele>
        <time>2025-04-28T07:56:13Z</time>
      </trkpt>
      <trkpt lat="42.688672011718154" lon="-2.951929019764066">
        <ele>459.17000000000002</ele>
        <time>2025-04-28T07:56:15Z</time>
      </trkpt>
      <trkpt lat="42.688816012814641" lon="-2.951932037249208">
        <ele>460.13</ele>
        <time>2025-04-28T07:56:16Z</time>
      </trkpt>
      <trkpt lat="42.688816012814641" lon="-2.951932037249208">
        <ele>460.61000000000001</ele>
        <time>2025-04-28T07:56:17Z</time>
      </trkpt>
      <trkpt lat="42.688816012814641" lon="-2.951932037249208">
        <ele>461.08999999999997</ele>
        <time>2025-04-28T07:56:18Z</time>
      </trkpt>
      <trkpt lat="42.688816012814641" lon="-2.951932037249208">
        <ele>462.05000000000001</ele>
        <time>2025-04-28T07:56:19Z</time>
      </trkpt>
      <trkpt lat="42.68903000280261" lon="-2.951837992295623">
        <ele>462.52999999999997</ele>
        <time>2025-04-28T07:56:20Z</time>
      </trkpt>
      <trkpt lat="42.689055986702442" lon="-2.951752999797463">
        <ele>463.00999999999999</ele>
        <time>2025-04-28T07:56:21Z</time>
      </trkpt>
      <trkpt lat="42.689120024442673" lon="-2.95157203450799">
        <ele>463.49000000000001</ele>
        <time>2025-04-28T07:56:22Z</time>
      </trkpt>
      <trkpt lat="42.689120024442673" lon="-2.95157203450799">
        <ele>464.93000000000001</ele>
        <time>2025-04-28T07:56:23Z</time>
      </trkpt>
      <trkpt lat="42.689154976978898" lon="-2.951477989554405">
        <ele>465.89999999999998</ele>
        <time>2025-04-28T07:56:24Z</time>
      </trkpt>
      <trkpt lat="42.689597038552165" lon="-2.95022196136415">
        <ele>470.22000000000003</ele>
        <time>2025-04-28T07:56:34Z</time>
      </trkpt>
      <trkpt lat="42.690178994089365" lon="-2.948288004845381">
        <ele>471.18000000000001</ele>
        <time>2025-04-28T07:56:46Z</time>
      </trkpt>
      <trkpt lat="42.690601022914052" lon="-2.946842964738607">
        <ele>473.58999999999997</ele>
        <time>2025-04-28T07:56:55Z</time>
      </trkpt>
      <trkpt lat="42.690647961571813" lon="-2.946712961420417">
        <ele>473.58999999999997</ele>
        <time>2025-04-28T07:56:56Z</time>
      </trkpt>
      <trkpt lat="42.69070697017014" lon="-2.946602990850806">
        <ele>473.58999999999997</ele>
        <time>2025-04-28T07:56:57Z</time>
      </trkpt>
      <trkpt lat="42.690748041495681" lon="-2.946347007527947">
        <ele>473.58999999999997</ele>
        <time>2025-04-28T07:56:59Z</time>
      </trkpt>
      <trkpt lat="42.690763967111707" lon="-2.946236031129956">
        <ele>473.58999999999997</ele>
        <time>2025-04-28T07:57:00Z</time>
      </trkpt>
      <trkpt lat="42.69083496183157" lon="-2.946150032803416">
        <ele>473.58999999999997</ele>
        <time>2025-04-28T07:57:01Z</time>
      </trkpt>
      <trkpt lat="42.69087603315711" lon="-2.94611700810492">
        <ele>473.58999999999997</ele>
        <time>2025-04-28T07:57:02Z</time>
      </trkpt>
      <trkpt lat="42.690958008170128" lon="-2.946124970912933">
        <ele>474.06999999999999</ele>
        <time>2025-04-28T07:57:03Z</time>
      </trkpt>
      <trkpt lat="42.691034032031894" lon="-2.946133017539978">
        <ele>473.58999999999997</ele>
        <time>2025-04-28T07:57:04Z</time>
      </trkpt>
      <trkpt lat="42.691094968467951" lon="-2.946146009489894">
        <ele>473.58999999999997</ele>
        <time>2025-04-28T07:57:05Z</time>
      </trkpt>
      <trkpt lat="42.691166969016194" lon="-2.94633200392127">
        <ele>473.11000000000001</ele>
        <time>2025-04-28T07:57:06Z</time>
      </trkpt>
      <trkpt lat="42.691184990108013" lon="-2.946450021117926">
        <ele>473.11000000000001</ele>
        <time>2025-04-28T07:57:07Z</time>
      </trkpt>
      <trkpt lat="42.691205022856593" lon="-2.946568038314581">
        <ele>472.63</ele>
        <time>2025-04-28T07:57:08Z</time>
      </trkpt>
      <trkpt lat="42.691223965957761" lon="-2.946692006662488">
        <ele>472.13999999999999</ele>
        <time>2025-04-28T07:57:09Z</time>
      </trkpt>
      <trkpt lat="42.691240981221199" lon="-2.94684698805213">
        <ele>472.13999999999999</ele>
        <time>2025-04-28T07:57:10Z</time>
      </trkpt>
      <trkpt lat="42.691277023404837" lon="-2.94695402495563">
        <ele>471.66000000000003</ele>
        <time>2025-04-28T07:57:11Z</time>
      </trkpt>
      <trkpt lat="42.691683964803815" lon="-2.947936970740557">
        <ele>473.58999999999997</ele>
        <time>2025-04-28T07:57:20Z</time>
      </trkpt>
      <trkpt lat="42.692281007766724" lon="-2.9495769739151">
        <ele>474.55000000000001</ele>
        <time>2025-04-28T07:57:32Z</time>
      </trkpt>
      <trkpt lat="42.692816024646163" lon="-2.950967028737068">
        <ele>475.99000000000001</ele>
        <time>2025-04-28T07:57:43Z</time>
      </trkpt>
      <trkpt lat="42.693509040400386" lon="-2.952783973887563">
        <ele>475.99000000000001</ele>
        <time>2025-04-28T07:57:56Z</time>
      </trkpt>
      <trkpt lat="42.693954035639763" lon="-2.953903963789344">
        <ele>475.99000000000001</ele>
        <time>2025-04-28T07:58:05Z</time>
      </trkpt>
      <trkpt lat="42.694045985117555" lon="-2.954118037596345">
        <ele>476.47000000000003</ele>
        <time>2025-04-28T07:58:11Z</time>
      </trkpt>
      <trkpt lat="42.694181017577648" lon="-2.954142009839416">
        <ele>476.47000000000003</ele>
        <time>2025-04-28T07:58:12Z</time>
      </trkpt>
      <trkpt lat="42.694181017577648" lon="-2.954142009839416">
        <ele>476.47000000000003</ele>
        <time>2025-04-28T07:58:13Z</time>
      </trkpt>
      <trkpt lat="42.694225022569299" lon="-2.954179979860783">
        <ele>476.47000000000003</ele>
        <time>2025-04-28T07:58:14Z</time>
      </trkpt>
      <trkpt lat="42.694279002025723" lon="-2.954227002337575">
        <ele>476.47000000000003</ele>
        <time>2025-04-28T07:58:15Z</time>
      </trkpt>
      <trkpt lat="42.694341028109193" lon="-2.954307971522212">
        <ele>476.47000000000003</ele>
        <time>2025-04-28T07:58:16Z</time>
      </trkpt>
      <trkpt lat="42.694373968988657" lon="-2.954420959576964">
        <ele>475.50999999999999</ele>
        <time>2025-04-28T07:58:18Z</time>
      </trkpt>
      <trkpt lat="42.694285959005356" lon="-2.954703010618687">
        <ele>475.02999999999997</ele>
        <time>2025-04-28T07:58:19Z</time>
      </trkpt>
      <trkpt lat="42.694328036159277" lon="-2.954802000895143">
        <ele>474.55000000000001</ele>
        <time>2025-04-28T07:58:20Z</time>
      </trkpt>
      <trkpt lat="42.694376986473799" lon="-2.954915994778276">
        <ele>474.06999999999999</ele>
        <time>2025-04-28T07:58:21Z</time>
      </trkpt>
      <trkpt lat="42.694431971758604" lon="-2.955038035288453">
        <ele>473.58999999999997</ele>
        <time>2025-04-28T07:58:22Z</time>
      </trkpt>
      <trkpt lat="42.695072013884783" lon="-2.956504030153155">
        <ele>475.02999999999997</ele>
        <time>2025-04-28T07:58:32Z</time>
      </trkpt>
      <trkpt lat="42.696003997698426" lon="-2.958412002772093">
        <ele>474.55000000000001</ele>
        <time>2025-04-28T07:58:44Z</time>
      </trkpt>
      <trkpt lat="42.697160029783845" lon="-2.960107997059822">
        <ele>475.99000000000001</ele>
        <time>2025-04-28T07:58:55Z</time>
      </trkpt>
      <trkpt lat="42.69835202023387" lon="-2.961410963907838">
        <ele>476.94999999999999</ele>
        <time>2025-04-28T07:59:05Z</time>
      </trkpt>
      <trkpt lat="42.69945097155869" lon="-2.962589040398598">
        <ele>477.43000000000001</ele>
        <time>2025-04-28T07:59:17Z</time>
      </trkpt>
      <trkpt lat="42.699517020955682" lon="-2.962655005976558">
        <ele>477.43000000000001</ele>
        <time>2025-04-28T07:59:18Z</time>
      </trkpt>
      <trkpt lat="42.699645012617111" lon="-2.962664980441332">
        <ele>477.43000000000001</ele>
        <time>2025-04-28T07:59:19Z</time>
      </trkpt>
      <trkpt lat="42.699721958488226" lon="-2.962626004591584">
        <ele>476.94999999999999</ele>
        <time>2025-04-28T07:59:21Z</time>
      </trkpt>
      <trkpt lat="42.699811980128288" lon="-2.962606977671385">
        <ele>476.47000000000003</ele>
        <time>2025-04-28T07:59:22Z</time>
      </trkpt>
      <trkpt lat="42.69992396235466" lon="-2.962657017633319">
        <ele>475.50999999999999</ele>
        <time>2025-04-28T07:59:23Z</time>
      </trkpt>
      <trkpt lat="42.700006021186709" lon="-2.962798001244664">
        <ele>475.50999999999999</ele>
        <time>2025-04-28T07:59:24Z</time>
      </trkpt>
      <trkpt lat="42.700033010914922" lon="-2.962933033704758">
        <ele>475.02999999999997</ele>
        <time>2025-04-28T07:59:25Z</time>
      </trkpt>
      <trkpt lat="42.700038040056825" lon="-2.962961029261351">
        <ele>475.02999999999997</ele>
        <time>2025-04-28T07:59:26Z</time>
      </trkpt>
      <trkpt lat="42.700017001479864" lon="-2.963291024789214">
        <ele>475.02999999999997</ele>
        <time>2025-04-28T07:59:27Z</time>
      </trkpt>
      <trkpt lat="42.700124038383365" lon="-2.963411975651979">
        <ele>474.55000000000001</ele>
        <time>2025-04-28T07:59:28Z</time>
      </trkpt>
      <trkpt lat="42.700930964201689" lon="-2.964341025799513">
        <ele>475.50999999999999</ele>
        <time>2025-04-28T07:59:36Z</time>
      </trkpt>
      <trkpt lat="42.702043997123837" lon="-2.965652961283922">
        <ele>477.43000000000001</ele>
        <time>2025-04-28T07:59:44Z</time>
      </trkpt>
      <trkpt lat="42.703705038875341" lon="-2.967632012441754">
        <ele>479.35000000000002</ele>
        <time>2025-04-28T07:59:54Z</time>
      </trkpt>
      <trkpt lat="42.70510096102953" lon="-2.969429008662701">
        <ele>478.87</ele>
        <time>2025-04-28T08:00:05Z</time>
      </trkpt>
      <trkpt lat="42.706872979179025" lon="-2.972066039219499">
        <ele>480.80000000000001</ele>
        <time>2025-04-28T08:00:18Z</time>
      </trkpt>
      <trkpt lat="42.708531003445387" lon="-2.974428981542587">
        <ele>480.80000000000001</ele>
        <time>2025-04-28T08:00:29Z</time>
      </trkpt>
      <trkpt lat="42.710142005234957" lon="-2.976213991641998">
        <ele>476.94999999999999</ele>
        <time>2025-04-28T08:00:40Z</time>
      </trkpt>
      <trkpt lat="42.712668981403112" lon="-2.978724958375096">
        <ele>475.02999999999997</ele>
        <time>2025-04-28T08:00:58Z</time>
      </trkpt>
      <trkpt lat="42.71444602869451" lon="-2.980500999838114">
        <ele>475.50999999999999</ele>
        <time>2025-04-28T08:01:11Z</time>
      </trkpt>
      <trkpt lat="42.715311963111162" lon="-2.981345979496837">
        <ele>475.02999999999997</ele>
        <time>2025-04-28T08:01:20Z</time>
      </trkpt>
      <trkpt lat="42.71657302044332" lon="-2.982627991586924">
        <ele>475.99000000000001</ele>
        <time>2025-04-28T08:01:33Z</time>
      </trkpt>
      <trkpt lat="42.71676798351109" lon="-2.982823960483074">
        <ele>475.99000000000001</ele>
        <time>2025-04-28T08:01:35Z</time>
      </trkpt>
      <trkpt lat="42.716865967959166" lon="-2.982922028750181">
        <ele>475.99000000000001</ele>
        <time>2025-04-28T08:01:36Z</time>
      </trkpt>
      <trkpt lat="42.717870958149433" lon="-2.983804978430271">
        <ele>483.68000000000001</ele>
        <time>2025-04-28T08:01:46Z</time>
      </trkpt>
      <trkpt lat="42.719075018540025" lon="-2.984190965071321">
        <ele>486.56</ele>
        <time>2025-04-28T08:01:56Z</time>
      </trkpt>
      <trkpt lat="42.720737988129258" lon="-2.984793959185481">
        <ele>486.07999999999998</ele>
        <time>2025-04-28T08:02:08Z</time>
      </trkpt>
      <trkpt lat="42.722688959911466" lon="-2.985610021278262">
        <ele>485.60000000000002</ele>
        <time>2025-04-28T08:02:19Z</time>
      </trkpt>
      <trkpt lat="42.724339021369815" lon="-2.986824978142977">
        <ele>487.52999999999997</ele>
        <time>2025-04-28T08:02:28Z</time>
      </trkpt>
      <trkpt lat="42.725840974599123" lon="-2.988447966054082">
        <ele>488.97000000000003</ele>
        <time>2025-04-28T08:02:39Z</time>
      </trkpt>
      <trkpt lat="42.725942982360721" lon="-2.988611999899149">
        <ele>488.97000000000003</ele>
        <time>2025-04-28T08:02:41Z</time>
      </trkpt>
      <trkpt lat="42.726042978465557" lon="-2.988771004602313">
        <ele>488.97000000000003</ele>
        <time>2025-04-28T08:02:42Z</time>
      </trkpt>
      <trkpt lat="42.726152027025819" lon="-2.988946018740535">
        <ele>488.97000000000003</ele>
        <time>2025-04-28T08:02:43Z</time>
      </trkpt>
      <trkpt lat="42.72622000426054" lon="-2.98912899568677">
        <ele>488.49000000000001</ele>
        <time>2025-04-28T08:02:44Z</time>
      </trkpt>
      <trkpt lat="42.726292004808784" lon="-2.989325970411301">
        <ele>488.97000000000003</ele>
        <time>2025-04-28T08:02:45Z</time>
      </trkpt>
      <trkpt lat="42.726784022524953" lon="-2.991400994360447">
        <ele>486.07999999999998</ele>
        <time>2025-04-28T08:02:53Z</time>
      </trkpt>
      <trkpt lat="42.727565970271826" lon="-2.993387002497912">
        <ele>478.87</ele>
        <time>2025-04-28T08:03:03Z</time>
      </trkpt>
      <trkpt lat="42.729232963174582" lon="-2.996784020215273">
        <ele>479.35000000000002</ele>
        <time>2025-04-28T08:03:20Z</time>
      </trkpt>
      <trkpt lat="42.730972040444613" lon="-2.999756997451186">
        <ele>477.91000000000003</ele>
        <time>2025-04-28T08:03:35Z</time>
      </trkpt>
      <trkpt lat="42.733032982796431" lon="-3.002999033778906">
        <ele>477.91000000000003</ele>
        <time>2025-04-28T08:03:50Z</time>
      </trkpt>
      <trkpt lat="42.735198028385639" lon="-3.006312986835837">
        <ele>479.35000000000002</ele>
        <time>2025-04-28T08:04:07Z</time>
      </trkpt>
      <trkpt lat="42.73666201159358" lon="-3.008395973592997">
        <ele>481.75999999999999</ele>
        <time>2025-04-28T08:04:19Z</time>
      </trkpt>
      <trkpt lat="42.738178968429565" lon="-3.010359015315771">
        <ele>478.38999999999999</ele>
        <time>2025-04-28T08:04:31Z</time>
      </trkpt>
      <trkpt lat="42.739342041313648" lon="-3.012275034561753">
        <ele>477.91000000000003</ele>
        <time>2025-04-28T08:04:41Z</time>
      </trkpt>
      <trkpt lat="42.740907026454806" lon="-3.015152961015701">
        <ele>477.43000000000001</ele>
        <time>2025-04-28T08:04:54Z</time>
      </trkpt>
      <trkpt lat="42.741583026945591" lon="-3.016421981155872">
        <ele>478.38999999999999</ele>
        <time>2025-04-28T08:05:00Z</time>
      </trkpt>
      <trkpt lat="42.741674976423383" lon="-3.016632031649351">
        <ele>478.38999999999999</ele>
        <time>2025-04-28T08:05:01Z</time>
      </trkpt>
      <trkpt lat="42.741749994456768" lon="-3.016857001930475">
        <ele>478.87</ele>
        <time>2025-04-28T08:05:02Z</time>
      </trkpt>
      <trkpt lat="42.741810008883476" lon="-3.017095969989896">
        <ele>479.83999999999997</ele>
        <time>2025-04-28T08:05:03Z</time>
      </trkpt>
      <trkpt lat="42.74186298251152" lon="-3.017347007989883">
        <ele>480.80000000000001</ele>
        <time>2025-04-28T08:05:04Z</time>
      </trkpt>
      <trkpt lat="42.74229004047811" lon="-3.019421026110649">
        <ele>489.44999999999999</ele>
        <time>2025-04-28T08:05:12Z</time>
      </trkpt>
      <trkpt lat="42.742879036813974" lon="-3.021842977032065">
        <ele>493.76999999999998</ele>
        <time>2025-04-28T08:05:21Z</time>
      </trkpt>
      <trkpt lat="42.743331994861364" lon="-3.023396981880069">
        <ele>494.74000000000001</ele>
        <time>2025-04-28T08:05:27Z</time>
      </trkpt>
      <trkpt lat="42.743413969874382" lon="-3.023632010444999">
        <ele>494.74000000000001</ele>
        <time>2025-04-28T08:05:28Z</time>
      </trkpt>
      <trkpt lat="42.744028028100729" lon="-3.024927014485002">
        <ele>493.76999999999998</ele>
        <time>2025-04-28T08:05:34Z</time>
      </trkpt>
      <trkpt lat="42.744324998930097" lon="-3.025511987507343">
        <ele>492.32999999999998</ele>
        <time>2025-04-28T08:05:38Z</time>
      </trkpt>
      <trkpt lat="42.744391970336437" lon="-3.025639979168773">
        <ele>492.32999999999998</ele>
        <time>2025-04-28T08:05:39Z</time>
      </trkpt>
      <trkpt lat="42.744948025792837" lon="-3.026710012927651">
        <ele>492.32999999999998</ele>
        <time>2025-04-28T08:05:49Z</time>
      </trkpt>
      <trkpt lat="42.745269974693656" lon="-3.02735298871994">
        <ele>496.18000000000001</ele>
        <time>2025-04-28T08:05:58Z</time>
      </trkpt>
      <trkpt lat="42.745415987446904" lon="-3.027598997578025">
        <ele>497.62</ele>
        <time>2025-04-28T08:06:02Z</time>
      </trkpt>
      <trkpt lat="42.745464015752077" lon="-3.027678038924933">
        <ele>498.10000000000002</ele>
        <time>2025-04-28T08:06:03Z</time>
      </trkpt>
      <trkpt lat="42.745531992986798" lon="-3.027724977582693">
        <ele>498.57999999999998</ele>
        <time>2025-04-28T08:06:04Z</time>
      </trkpt>
      <trkpt lat="42.745607011020184" lon="-3.027777029201388">
        <ele>499.54000000000002</ele>
        <time>2025-04-28T08:06:05Z</time>
      </trkpt>
      <trkpt lat="42.745682029053569" lon="-3.027830002829433">
        <ele>500.01999999999998</ele>
        <time>2025-04-28T08:06:06Z</time>
      </trkpt>
      <trkpt lat="42.745754029601812" lon="-3.027878031134605">
        <ele>500.5</ele>
        <time>2025-04-28T08:06:07Z</time>
      </trkpt>
      <trkpt lat="42.745814966037869" lon="-3.027924969792366">
        <ele>500.98000000000002</ele>
        <time>2025-04-28T08:06:08Z</time>
      </trkpt>
      <trkpt lat="42.745865005999804" lon="-3.027999987825751">
        <ele>501.94999999999999</ele>
        <time>2025-04-28T08:06:09Z</time>
      </trkpt>
      <trkpt lat="42.745914962142706" lon="-3.028075005859137">
        <ele>502.43000000000001</ele>
        <time>2025-04-28T08:06:10Z</time>
      </trkpt>
      <trkpt lat="42.745955027639866" lon="-3.028143988922238">
        <ele>502.91000000000003</ele>
        <time>2025-04-28T08:06:11Z</time>
      </trkpt>
      <trkpt lat="42.745978999882936" lon="-3.028222024440765">
        <ele>503.38999999999999</ele>
        <time>2025-04-28T08:06:12Z</time>
      </trkpt>
      <trkpt lat="42.746002972126007" lon="-3.028310034424067">
        <ele>503.87</ele>
        <time>2025-04-28T08:06:13Z</time>
      </trkpt>
      <trkpt lat="42.746254010125995" lon="-3.029701011255384">
        <ele>503.38999999999999</ele>
        <time>2025-04-28T08:06:24Z</time>
      </trkpt>
      <trkpt lat="42.746524997055531" lon="-3.031353000551462">
        <ele>501.45999999999998</ele>
        <time>2025-04-28T08:06:33Z</time>
      </trkpt>
      <trkpt lat="42.747274003922939" lon="-3.035377990454435">
        <ele>503.38999999999999</ele>
        <time>2025-04-28T08:06:51Z</time>
      </trkpt>
      <trkpt lat="42.747667031362653" lon="-3.036468978971243">
        <ele>501.45999999999998</ele>
        <time>2025-04-28T08:06:56Z</time>
      </trkpt>
      <trkpt lat="42.74789996445179" lon="-3.036836022511125">
        <ele>500.01999999999998</ele>
        <time>2025-04-28T08:06:58Z</time>
      </trkpt>
      <trkpt lat="42.750101974233985" lon="-3.039325028657913">
        <ele>495.69999999999999</ele>
        <time>2025-04-28T08:07:13Z</time>
      </trkpt>
      <trkpt lat="42.752240030094981" lon="-3.041730970144272">
        <ele>491.85000000000002</ele>
        <time>2025-04-28T08:07:27Z</time>
      </trkpt>
      <trkpt lat="42.754340032115579" lon="-3.044069018214941">
        <ele>484.63999999999999</ele>
        <time>2025-04-28T08:07:41Z</time>
      </trkpt>
      <trkpt lat="42.75524795986712" lon="-3.045096974819899">
        <ele>482.72000000000003</ele>
        <time>2025-04-28T08:07:49Z</time>
      </trkpt>
      <trkpt lat="42.756422013044357" lon="-3.046411005780101">
        <ele>482.24000000000001</ele>
        <time>2025-04-28T08:08:02Z</time>
      </trkpt>
      <trkpt lat="42.756787966936827" lon="-3.046805039048195">
        <ele>481.75999999999999</ele>
        <time>2025-04-28T08:08:06Z</time>
      </trkpt>
      <trkpt lat="42.756876982748508" lon="-3.046901011839509">
        <ele>481.75999999999999</ele>
        <time>2025-04-28T08:08:07Z</time>
      </trkpt>
      <trkpt lat="42.756987037137151" lon="-3.046951973810792">
        <ele>481.75999999999999</ele>
        <time>2025-04-28T08:08:08Z</time>
      </trkpt>
      <trkpt lat="42.757092984393239" lon="-3.047001007944346">
        <ele>481.75999999999999</ele>
        <time>2025-04-28T08:08:09Z</time>
      </trkpt>
      <trkpt lat="42.757216030731797" lon="-3.046978041529656">
        <ele>481.27999999999997</ele>
        <time>2025-04-28T08:08:10Z</time>
      </trkpt>
      <trkpt lat="42.757332036271691" lon="-3.046938981860876">
        <ele>480.80000000000001</ele>
        <time>2025-04-28T08:08:11Z</time>
      </trkpt>
      <trkpt lat="42.758899033069611" lon="-3.046446964144707">
        <ele>479.35000000000002</ele>
        <time>2025-04-28T08:08:23Z</time>
      </trkpt>
      <trkpt lat="42.760478015989065" lon="-3.045975985005498">
        <ele>478.38999999999999</ele>
        <time>2025-04-28T08:08:33Z</time>
      </trkpt>
      <trkpt lat="42.762176021933556" lon="-3.045817986130714">
        <ele>476.94999999999999</ele>
        <time>2025-04-28T08:08:43Z</time>
      </trkpt>
      <trkpt lat="42.763900011777878" lon="-3.046190980821848">
        <ele>478.38999999999999</ele>
        <time>2025-04-28T08:08:53Z</time>
      </trkpt>
      <trkpt lat="42.765402970835567" lon="-3.046875027939677">
        <ele>478.38999999999999</ele>
        <time>2025-04-28T08:09:01Z</time>
      </trkpt>
      <trkpt lat="42.766214003786445" lon="-3.046995978802443">
        <ele>477.43000000000001</ele>
        <time>2025-04-28T08:09:08Z</time>
      </trkpt>
      <trkpt lat="42.766302013769746" lon="-3.047001007944346">
        <ele>477.43000000000001</ele>
        <time>2025-04-28T08:09:09Z</time>
      </trkpt>
      <trkpt lat="42.766373008489609" lon="-3.047005031257868">
        <ele>477.43000000000001</ele>
        <time>2025-04-28T08:09:10Z</time>
      </trkpt>
      <trkpt lat="42.766425982117653" lon="-3.047007964923978">
        <ele>477.43000000000001</ele>
        <time>2025-04-28T08:09:11Z</time>
      </trkpt>
      <trkpt lat="42.766470992937684" lon="-3.04722597822547">
        <ele>476.94999999999999</ele>
        <time>2025-04-28T08:09:12Z</time>
      </trkpt>
      <trkpt lat="42.766470992937684" lon="-3.04722597822547">
        <ele>476.94999999999999</ele>
        <time>2025-04-28T08:09:13Z</time>
      </trkpt>
      <trkpt lat="42.766449032351375" lon="-3.04741901345551">
        <ele>476.94999999999999</ele>
        <time>2025-04-28T08:09:14Z</time>
      </trkpt>
      <trkpt lat="42.766449032351375" lon="-3.04741901345551">
        <ele>476.47000000000003</ele>
        <time>2025-04-28T08:09:15Z</time>
      </trkpt>
      <trkpt lat="42.766435034573078" lon="-3.047514986246824">
        <ele>476.94999999999999</ele>
        <time>2025-04-28T08:09:16Z</time>
      </trkpt>
      <trkpt lat="42.766259014606476" lon="-3.048716029152274">
        <ele>478.38999999999999</ele>
        <time>2025-04-28T08:09:26Z</time>
      </trkpt>
      <trkpt lat="42.765916027128696" lon="-3.050842015072703">
        <ele>479.35000000000002</ele>
        <time>2025-04-28T08:09:37Z</time>
      </trkpt>
      <trkpt lat="42.765392996370792" lon="-3.053593961521983">
        <ele>480.80000000000001</ele>
        <time>2025-04-28T08:09:49Z</time>
      </trkpt>
      <trkpt lat="42.764599984511733" lon="-3.057502023875713">
        <ele>483.19999999999999</ele>
        <time>2025-04-28T08:10:05Z</time>
      </trkpt>
      <trkpt lat="42.763829017058015" lon="-3.061385024338961">
        <ele>483.19999999999999</ele>
        <time>2025-04-28T08:10:20Z</time>
      </trkpt>
      <trkpt lat="42.763234991580248" lon="-3.064753962680697">
        <ele>489.44999999999999</ele>
        <time>2025-04-28T08:10:33Z</time>
      </trkpt>
      <trkpt lat="42.763090990483761" lon="-3.067243974655867">
        <ele>494.25999999999999</ele>
        <time>2025-04-28T08:10:43Z</time>
      </trkpt>
      <trkpt lat="42.763079004362226" lon="-3.06819498538971">
        <ele>496.18000000000001</ele>
        <time>2025-04-28T08:10:48Z</time>
      </trkpt>
      <trkpt lat="42.763373041525483" lon="-3.070051996037364">
        <ele>497.62</ele>
        <time>2025-04-28T08:10:56Z</time>
      </trkpt>
      <trkpt lat="42.763416040688753" lon="-3.070270009338856">
        <ele>497.62</ele>
        <time>2025-04-28T08:10:57Z</time>
      </trkpt>
      <trkpt lat="42.763502039015293" lon="-3.070467989891768">
        <ele>497.62</ele>
        <time>2025-04-28T08:10:58Z</time>
      </trkpt>
      <trkpt lat="42.763599017634988" lon="-3.070662030950189">
        <ele>497.13999999999999</ele>
        <time>2025-04-28T08:10:59Z</time>
      </trkpt>
      <trkpt lat="42.763701025396585" lon="-3.070849031209946">
        <ele>497.13999999999999</ele>
        <time>2025-04-28T08:11:00Z</time>
      </trkpt>
      <trkpt lat="42.764778016135097" lon="-3.072474030777812">
        <ele>493.76999999999998</ele>
        <time>2025-04-28T08:11:10Z</time>
      </trkpt>
      <trkpt lat="42.764901984483004" lon="-3.072657007724047">
        <ele>492.81</ele>
        <time>2025-04-28T08:11:11Z</time>
      </trkpt>
      <trkpt lat="42.766347024589777" lon="-3.074809983372688">
        <ele>489.44999999999999</ele>
        <time>2025-04-28T08:11:22Z</time>
      </trkpt>
      <trkpt lat="42.76725796982646" lon="-3.076259968802333">
        <ele>488.49000000000001</ele>
        <time>2025-04-28T08:11:32Z</time>
      </trkpt>
      <trkpt lat="42.767612021416426" lon="-3.077513985335827">
        <ele>486.07999999999998</ele>
        <time>2025-04-28T08:11:38Z</time>
      </trkpt>
      <trkpt lat="42.767652003094554" lon="-3.077718000859022">
        <ele>485.60000000000002</ele>
        <time>2025-04-28T08:11:39Z</time>
      </trkpt>
      <trkpt lat="42.767659965902567" lon="-3.077937019988895">
        <ele>485.12</ele>
        <time>2025-04-28T08:11:40Z</time>
      </trkpt>
      <trkpt lat="42.767669018357992" lon="-3.07816500775516">
        <ele>484.63999999999999</ele>
        <time>2025-04-28T08:11:41Z</time>
      </trkpt>
      <trkpt lat="42.767673041671515" lon="-3.078398024663329">
        <ele>484.16000000000003</ele>
        <time>2025-04-28T08:11:42Z</time>
      </trkpt>
      <trkpt lat="42.767673041671515" lon="-3.078859029337764">
        <ele>483.19999999999999</ele>
        <time>2025-04-28T08:11:44Z</time>
      </trkpt>
      <trkpt lat="42.767673041671515" lon="-3.079077964648604">
        <ele>483.19999999999999</ele>
        <time>2025-04-28T08:11:45Z</time>
      </trkpt>
      <trkpt lat="42.767673041671515" lon="-3.079514997079969">
        <ele>483.19999999999999</ele>
        <time>2025-04-28T08:11:47Z</time>
      </trkpt>
      <trkpt lat="42.767673041671515" lon="-3.079727981239557">
        <ele>483.19999999999999</ele>
        <time>2025-04-28T08:11:48Z</time>
      </trkpt>
      <trkpt lat="42.767670024186373" lon="-3.079933002591133">
        <ele>483.68000000000001</ele>
        <time>2025-04-28T08:11:49Z</time>
      </trkpt>
      <trkpt lat="42.767655020579696" lon="-3.08014003559947">
        <ele>484.16000000000003</ele>
        <time>2025-04-28T08:11:50Z</time>
      </trkpt>
      <trkpt lat="42.767641022801399" lon="-3.080348996445537">
        <ele>484.63999999999999</ele>
        <time>2025-04-28T08:11:51Z</time>
      </trkpt>
      <trkpt lat="42.767614033073187" lon="-3.080551000311971">
        <ele>485.12</ele>
        <time>2025-04-28T08:11:52Z</time>
      </trkpt>
      <trkpt lat="42.767543960362673" lon="-3.080745963379741">
        <ele>485.12</ele>
        <time>2025-04-28T08:11:53Z</time>
      </trkpt>
      <trkpt lat="42.76747296564281" lon="-3.080944027751684">
        <ele>485.60000000000002</ele>
        <time>2025-04-28T08:11:54Z</time>
      </trkpt>
      <trkpt lat="42.767274985089898" lon="-3.081277962774038">
        <ele>485.60000000000002</ele>
        <time>2025-04-28T08:11:55Z</time>
      </trkpt>
      <trkpt lat="42.767274985089898" lon="-3.081277962774038">
        <ele>486.07999999999998</ele>
        <time>2025-04-28T08:11:56Z</time>
      </trkpt>
      <trkpt lat="42.767156967893243" lon="-3.081421963870525">
        <ele>486.56</ele>
        <time>2025-04-28T08:11:57Z</time>
      </trkpt>
      <trkpt lat="42.767011960968375" lon="-3.081539981067181">
        <ele>486.56</ele>
        <time>2025-04-28T08:11:58Z</time>
      </trkpt>
      <trkpt lat="42.766865026205778" lon="-3.081660009920597">
        <ele>487.05000000000001</ele>
        <time>2025-04-28T08:11:59Z</time>
      </trkpt>
      <trkpt lat="42.766579035669565" lon="-3.08188003487885">
        <ele>487.52999999999997</ele>
        <time>2025-04-28T08:12:00Z</time>
      </trkpt>
      <trkpt lat="42.766426987946033" lon="-3.081951029598713">
        <ele>488.00999999999999</ele>
        <time>2025-04-28T08:12:01Z</time>
      </trkpt>
      <trkpt lat="42.766426987946033" lon="-3.081951029598713">
        <ele>488.49000000000001</ele>
        <time>2025-04-28T08:12:02Z</time>
      </trkpt>
      <trkpt lat="42.765592988580465" lon="-3.082140041515231">
        <ele>489.44999999999999</ele>
        <time>2025-04-28T08:12:09Z</time>
      </trkpt>
      <trkpt lat="42.76450602337718" lon="-3.082248000428081">
        <ele>489.44999999999999</ele>
        <time>2025-04-28T08:12:18Z</time>
      </trkpt>
      <trkpt lat="42.763072969391942" lon="-3.08231296017766">
        <ele>488.97000000000003</ele>
        <time>2025-04-28T08:12:30Z</time>
      </trkpt>
      <trkpt lat="42.761638993397355" lon="-3.082485040649772">
        <ele>488.00999999999999</ele>
        <time>2025-04-28T08:12:42Z</time>
      </trkpt>
      <trkpt lat="42.761405976489186" lon="-3.082571960985661">
        <ele>487.52999999999997</ele>
        <time>2025-04-28T08:12:43Z</time>
      </trkpt>
      <trkpt lat="42.761405976489186" lon="-3.082571960985661">
        <ele>487.52999999999997</ele>
        <time>2025-04-28T08:12:44Z</time>
      </trkpt>
      <trkpt lat="42.761295000091195" lon="-3.082631975412369">
        <ele>487.52999999999997</ele>
        <time>2025-04-28T08:12:45Z</time>
      </trkpt>
      <trkpt lat="42.761187963187695" lon="-3.082700036466122">
        <ele>487.05000000000001</ele>
        <time>2025-04-28T08:12:46Z</time>
      </trkpt>
      <trkpt lat="42.761084027588367" lon="-3.082782011479139">
        <ele>487.05000000000001</ele>
        <time>2025-04-28T08:12:47Z</time>
      </trkpt>
      <trkpt lat="42.76098595932126" lon="-3.082879995927215">
        <ele>487.05000000000001</ele>
        <time>2025-04-28T08:12:48Z</time>
      </trkpt>
      <trkpt lat="42.760452032089233" lon="-3.083562031388283">
        <ele>487.05000000000001</ele>
        <time>2025-04-28T08:12:54Z</time>
      </trkpt>
      <trkpt lat="42.760355975478888" lon="-3.083646018058062">
        <ele>487.05000000000001</ele>
        <time>2025-04-28T08:12:55Z</time>
      </trkpt>
      <trkpt lat="42.76025203987956" lon="-3.083731010556221">
        <ele>487.05000000000001</ele>
        <time>2025-04-28T08:12:56Z</time>
      </trkpt>
      <trkpt lat="42.760150032117963" lon="-3.08381600305438">
        <ele>487.05000000000001</ele>
        <time>2025-04-28T08:12:57Z</time>
      </trkpt>
      <trkpt lat="42.760044001042843" lon="-3.083886997774243">
        <ele>487.52999999999997</ele>
        <time>2025-04-28T08:12:58Z</time>
      </trkpt>
      <trkpt lat="42.759812995791435" lon="-3.08396796695888">
        <ele>487.52999999999997</ele>
        <time>2025-04-28T08:13:00Z</time>
      </trkpt>
      <trkpt lat="42.759239003062248" lon="-3.084234008565545">
        <ele>487.52999999999997</ele>
        <time>2025-04-28T08:13:04Z</time>
      </trkpt>
      <trkpt lat="42.759239003062248" lon="-3.084234008565545">
        <ele>487.52999999999997</ele>
        <time>2025-04-28T08:13:05Z</time>
      </trkpt>
      <trkpt lat="42.759030964225531" lon="-3.084429977461696">
        <ele>487.05000000000001</ele>
        <time>2025-04-28T08:13:06Z</time>
      </trkpt>
      <trkpt lat="42.759030964225531" lon="-3.084429977461696">
        <ele>487.05000000000001</ele>
        <time>2025-04-28T08:13:07Z</time>
      </trkpt>
      <trkpt lat="42.758959969505668" lon="-3.084581019356847">
        <ele>486.56</ele>
        <time>2025-04-28T08:13:08Z</time>
      </trkpt>
      <trkpt lat="42.758903978392482" lon="-3.084743963554502">
        <ele>486.56</ele>
        <time>2025-04-28T08:13:09Z</time>
      </trkpt>
      <trkpt lat="42.758846981450915" lon="-3.084905985742807">
        <ele>486.07999999999998</ele>
        <time>2025-04-28T08:13:10Z</time>
      </trkpt>
      <trkpt lat="42.758819991722703" lon="-3.085086029022932">
        <ele>486.07999999999998</ele>
        <time>2025-04-28T08:13:11Z</time>
      </trkpt>
      <trkpt lat="42.758817980065942" lon="-3.085271017625928">
        <ele>486.07999999999998</ele>
        <time>2025-04-28T08:13:12Z</time>
      </trkpt>
      <trkpt lat="42.75883499532938" lon="-3.085457012057304">
        <ele>486.07999999999998</ele>
        <time>2025-04-28T08:13:13Z</time>
      </trkpt>
      <trkpt lat="42.758851004764438" lon="-3.085649041458964">
        <ele>486.07999999999998</ele>
        <time>2025-04-28T08:13:14Z</time>
      </trkpt>
      <trkpt lat="42.758929040282965" lon="-3.085821038112044">
        <ele>486.56</ele>
        <time>2025-04-28T08:13:15Z</time>
      </trkpt>
      <trkpt lat="42.759011015295982" lon="-3.085979036986828">
        <ele>487.05000000000001</ele>
        <time>2025-04-28T08:13:16Z</time>
      </trkpt>
      <trkpt lat="42.759111011400819" lon="-3.086170982569456">
        <ele>488.00999999999999</ele>
        <time>2025-04-28T08:13:17Z</time>
      </trkpt>
      <trkpt lat="42.75919902138412" lon="-3.086301991716027">
        <ele>488.49000000000001</ele>
        <time>2025-04-28T08:13:18Z</time>
      </trkpt>
      <trkpt lat="42.759798998013139" lon="-3.08718603104353">
        <ele>490.88999999999999</ele>
        <time>2025-04-28T08:13:24Z</time>
      </trkpt>
      <trkpt lat="42.759897988289595" lon="-3.087320979684591">
        <ele>491.37</ele>
        <time>2025-04-28T08:13:25Z</time>
      </trkpt>
      <trkpt lat="42.760136034339666" lon="-3.087518960237503">
        <ele>491.85000000000002</ele>
        <time>2025-04-28T08:13:27Z</time>
      </trkpt>
      <trkpt lat="42.761117974296212" lon="-3.088033022359014">
        <ele>494.25999999999999</ele>
        <time>2025-04-28T08:13:34Z</time>
      </trkpt>
      <trkpt lat="42.761246971786022" lon="-3.088135030120611">
        <ele>494.25999999999999</ele>
        <time>2025-04-28T08:13:35Z</time>
      </trkpt>
      <trkpt lat="42.761365994811058" lon="-3.088254975154996">
        <ele>494.25999999999999</ele>
        <time>2025-04-28T08:13:36Z</time>
      </trkpt>
      <trkpt lat="42.761879973113537" lon="-3.088939022272825">
        <ele>494.74000000000001</ele>
        <time>2025-04-28T08:13:40Z</time>
      </trkpt>
      <trkpt lat="42.761997990310192" lon="-3.089019991457462">
        <ele>494.74000000000001</ele>
        <time>2025-04-28T08:13:41Z</time>
      </trkpt>
      <trkpt lat="42.762132016941905" lon="-3.089086962863803">
        <ele>494.74000000000001</ele>
        <time>2025-04-28T08:13:42Z</time>
      </trkpt>
      <trkpt lat="42.763253012672067" lon="-3.089390974491835">
        <ele>496.66000000000003</ele>
        <time>2025-04-28T08:13:51Z</time>
      </trkpt>
      <trkpt lat="42.763516958802938" lon="-3.089464986696839">
        <ele>496.66000000000003</ele>
        <time>2025-04-28T08:13:53Z</time>
      </trkpt>
      <trkpt lat="42.763641010969877" lon="-3.089521983638406">
        <ele>496.66000000000003</ele>
        <time>2025-04-28T08:13:54Z</time>
      </trkpt>
      <trkpt lat="42.763762967661023" lon="-3.089576968923211">
        <ele>496.18000000000001</ele>
        <time>2025-04-28T08:13:55Z</time>
      </trkpt>
      <trkpt lat="42.764115007594228" lon="-3.089794982224703">
        <ele>495.69999999999999</ele>
        <time>2025-04-28T08:13:58Z</time>
      </trkpt>
      <trkpt lat="42.764881029725075" lon="-3.090149033814669">
        <ele>492.32999999999998</ele>
        <time>2025-04-28T08:14:05Z</time>
      </trkpt>
      <trkpt lat="42.764971973374486" lon="-3.090198989957571">
        <ele>491.85000000000002</ele>
        <time>2025-04-28T08:14:06Z</time>
      </trkpt>
      <trkpt lat="42.765070963650942" lon="-3.090253975242376">
        <ele>491.85000000000002</ele>
        <time>2025-04-28T08:14:07Z</time>
      </trkpt>
      <trkpt lat="42.765156961977482" lon="-3.090336034074426">
        <ele>491.85000000000002</ele>
        <time>2025-04-28T08:14:08Z</time>
      </trkpt>
      <trkpt lat="42.765251006931067" lon="-3.090441981330514">
        <ele>491.85000000000002</ele>
        <time>2025-04-28T08:14:09Z</time>
      </trkpt>
      <trkpt lat="42.765310015529394" lon="-3.090565027669072">
        <ele>491.85000000000002</ele>
        <time>2025-04-28T08:14:10Z</time>
      </trkpt>
      <trkpt lat="42.765817036852241" lon="-3.092009983956814">
        <ele>493.29000000000002</ele>
        <time>2025-04-28T08:14:20Z</time>
      </trkpt>
      <trkpt lat="42.766407039016485" lon="-3.094039997085929">
        <ele>501.94999999999999</ele>
        <time>2025-04-28T08:14:33Z</time>
      </trkpt>
      <trkpt lat="42.766445009037852" lon="-3.094188021495938">
        <ele>502.91000000000003</ele>
        <time>2025-04-28T08:14:34Z</time>
      </trkpt>
      <trkpt lat="42.7664839848876" lon="-3.094344008713961">
        <ele>503.87</ele>
        <time>2025-04-28T08:14:35Z</time>
      </trkpt>
      <trkpt lat="42.766527989879251" lon="-3.09451499953866">
        <ele>504.82999999999998</ele>
        <time>2025-04-28T08:14:36Z</time>
      </trkpt>
      <trkpt lat="42.766527989879251" lon="-3.09451499953866">
        <ele>505.79000000000002</ele>
        <time>2025-04-28T08:14:37Z</time>
      </trkpt>
      <trkpt lat="42.766622034832835" lon="-3.094882965087891">
        <ele>506.26999999999998</ele>
        <time>2025-04-28T08:14:38Z</time>
      </trkpt>
      <trkpt lat="42.766704009845853" lon="-3.095000982284546">
        <ele>506.75</ele>
        <time>2025-04-28T08:14:39Z</time>
      </trkpt>
      <trkpt lat="42.76680501177907" lon="-3.095117993652821">
        <ele>507.23000000000002</ele>
        <time>2025-04-28T08:14:40Z</time>
      </trkpt>
      <trkpt lat="42.766924034804106" lon="-3.095191000029445">
        <ele>507.70999999999998</ele>
        <time>2025-04-28T08:14:41Z</time>
      </trkpt>
      <trkpt lat="42.767050014808774" lon="-3.095267023891211">
        <ele>508.19</ele>
        <time>2025-04-28T08:14:42Z</time>
      </trkpt>
      <trkpt lat="42.76738503947854" lon="-3.095520995557308">
        <ele>510.12</ele>
        <time>2025-04-28T08:14:45Z</time>
      </trkpt>
      <trkpt lat="42.767479000613093" lon="-3.095598025247455">
        <ele>510.60000000000002</ele>
        <time>2025-04-28T08:14:46Z</time>
      </trkpt>
      <trkpt lat="42.76755603030324" lon="-3.095701038837433">
        <ele>511.07999999999998</ele>
        <time>2025-04-28T08:14:47Z</time>
      </trkpt>
      <trkpt lat="42.767618978396058" lon="-3.095827018842101">
        <ele>512.03999999999996</ele>
        <time>2025-04-28T08:14:48Z</time>
      </trkpt>
      <trkpt lat="42.767676981166005" lon="-3.095961967483163">
        <ele>512.51999999999998</ele>
        <time>2025-04-28T08:14:49Z</time>
      </trkpt>
      <trkpt lat="42.767698019742966" lon="-3.096119966357946">
        <ele>513.48000000000002</ele>
        <time>2025-04-28T08:14:50Z</time>
      </trkpt>
      <trkpt lat="42.767713023349643" lon="-3.096285006031394">
        <ele>513.96000000000004</ele>
        <time>2025-04-28T08:14:51Z</time>
      </trkpt>
      <trkpt lat="42.767692990601063" lon="-3.096444010734558">
        <ele>514.44000000000005</ele>
        <time>2025-04-28T08:14:52Z</time>
      </trkpt>
      <trkpt lat="42.767674969509244" lon="-3.096599997952581">
        <ele>514.91999999999996</ele>
        <time>2025-04-28T08:14:53Z</time>
      </trkpt>
      <trkpt lat="42.76764303445816" lon="-3.09739401564002">
        <ele>516.37</ele>
        <time>2025-04-28T08:14:58Z</time>
      </trkpt>
      <trkpt lat="42.767671030014753" lon="-3.097543967887759">
        <ele>516.85000000000002</ele>
        <time>2025-04-28T08:14:59Z</time>
      </trkpt>
      <trkpt lat="42.767700031399727" lon="-3.09769400395453">
        <ele>516.85000000000002</ele>
        <time>2025-04-28T08:15:00Z</time>
      </trkpt>
      <trkpt lat="42.767730038613081" lon="-3.09784697368741">
        <ele>516.85000000000002</ele>
        <time>2025-04-28T08:15:01Z</time>
      </trkpt>
      <trkpt lat="42.76777496561408" lon="-3.097992986440659">
        <ele>517.33000000000004</ele>
        <time>2025-04-28T08:15:02Z</time>
      </trkpt>
      <trkpt lat="42.767865993082523" lon="-3.098279982805252">
        <ele>517.80999999999995</ele>
        <time>2025-04-28T08:15:04Z</time>
      </trkpt>
      <trkpt lat="42.767999013885856" lon="-3.09889898635447">
        <ele>517.80999999999995</ele>
        <time>2025-04-28T08:15:08Z</time>
      </trkpt>
      <trkpt lat="42.768012005835772" lon="-3.099053967744112">
        <ele>517.33000000000004</ele>
        <time>2025-04-28T08:15:09Z</time>
      </trkpt>
      <trkpt lat="42.768023991957307" lon="-3.099208027124405">
        <ele>517.33000000000004</ele>
        <time>2025-04-28T08:15:10Z</time>
      </trkpt>
      <trkpt lat="42.768049975857139" lon="-3.09952000156045">
        <ele>517.33000000000004</ele>
        <time>2025-04-28T08:15:12Z</time>
      </trkpt>
      <trkpt lat="42.768049975857139" lon="-3.09952000156045">
        <ele>516.85000000000002</ele>
        <time>2025-04-28T08:15:13Z</time>
      </trkpt>
      <trkpt lat="42.768062967807055" lon="-3.099673977121711">
        <ele>516.85000000000002</ele>
        <time>2025-04-28T08:15:14Z</time>
      </trkpt>
      <trkpt lat="42.768080988898873" lon="-3.099883021786809">
        <ele>516.37</ele>
        <time>2025-04-28T08:15:15Z</time>
      </trkpt>
      <trkpt lat="42.768098004162312" lon="-3.100153002887964">
        <ele>516.37</ele>
        <time>2025-04-28T08:15:16Z</time>
      </trkpt>
      <trkpt lat="42.768107978627086" lon="-3.100308990105987">
        <ele>515.88</ele>
        <time>2025-04-28T08:15:17Z</time>
      </trkpt>
      <trkpt lat="42.768107978627086" lon="-3.100309995934367">
        <ele>515.88</ele>
        <time>2025-04-28T08:15:18Z</time>
      </trkpt>
      <trkpt lat="42.768118036910892" lon="-3.100462965667248">
        <ele>515.88</ele>
        <time>2025-04-28T08:15:19Z</time>
      </trkpt>
      <trkpt lat="42.767872028052807" lon="-3.102468000724912">
        <ele>515.39999999999998</ele>
        <time>2025-04-28T08:15:31Z</time>
      </trkpt>
      <trkpt lat="42.76781796477735" lon="-3.102570008486509">
        <ele>515.88</ele>
        <time>2025-04-28T08:15:32Z</time>
      </trkpt>
      <trkpt lat="42.767724003642797" lon="-3.102663969621062">
        <ele>515.88</ele>
        <time>2025-04-28T08:15:33Z</time>
      </trkpt>
      <trkpt lat="42.767629036679864" lon="-3.102759020403028">
        <ele>516.37</ele>
        <time>2025-04-28T08:15:34Z</time>
      </trkpt>
      <trkpt lat="42.767534991726279" lon="-3.102853987365961">
        <ele>516.37</ele>
        <time>2025-04-28T08:15:35Z</time>
      </trkpt>
      <trkpt lat="42.767343968153" lon="-3.10306697152555">
        <ele>516.37</ele>
        <time>2025-04-28T08:15:37Z</time>
      </trkpt>
      <trkpt lat="42.767264004796743" lon="-3.103180965408683">
        <ele>516.85000000000002</ele>
        <time>2025-04-28T08:15:38Z</time>
      </trkpt>
      <trkpt lat="42.766804005950689" lon="-3.104066010564566">
        <ele>518.28999999999996</ele>
        <time>2025-04-28T08:15:45Z</time>
      </trkpt>
      <trkpt lat="42.766740974038839" lon="-3.104192996397615">
        <ele>518.28999999999996</ele>
        <time>2025-04-28T08:15:46Z</time>
      </trkpt>
      <trkpt lat="42.766650030389428" lon="-3.104285029694438">
        <ele>518.76999999999998</ele>
        <time>2025-04-28T08:15:47Z</time>
      </trkpt>
      <trkpt lat="42.766548022627831" lon="-3.104373039677739">
        <ele>518.76999999999998</ele>
        <time>2025-04-28T08:15:48Z</time>
      </trkpt>
      <trkpt lat="42.766449032351375" lon="-3.104458032175899">
        <ele>518.76999999999998</ele>
        <time>2025-04-28T08:15:49Z</time>
      </trkpt>
      <trkpt lat="42.765602963045239" lon="-3.105274010449648">
        <ele>517.80999999999995</ele>
        <time>2025-04-28T08:15:58Z</time>
      </trkpt>
      <trkpt lat="42.765520988032222" lon="-3.105380041524768">
        <ele>517.80999999999995</ele>
        <time>2025-04-28T08:15:59Z</time>
      </trkpt>
      <trkpt lat="42.765441024675965" lon="-3.105482971295714">
        <ele>517.33000000000004</ele>
        <time>2025-04-28T08:16:00Z</time>
      </trkpt>
      <trkpt lat="42.765389978885651" lon="-3.105623032897711">
        <ele>516.85000000000002</ele>
        <time>2025-04-28T08:16:01Z</time>
      </trkpt>
      <trkpt lat="42.765338011085987" lon="-3.105763010680676">
        <ele>516.37</ele>
        <time>2025-04-28T08:16:02Z</time>
      </trkpt>
      <trkpt lat="42.765296017751098" lon="-3.105921009555459">
        <ele>515.88</ele>
        <time>2025-04-28T08:16:03Z</time>
      </trkpt>
      <trkpt lat="42.765319989994168" lon="-3.106071967631578">
        <ele>515.88</ele>
        <time>2025-04-28T08:16:04Z</time>
      </trkpt>
      <trkpt lat="42.765343962237239" lon="-3.106226027011871">
        <ele>515.39999999999998</ele>
        <time>2025-04-28T08:16:05Z</time>
      </trkpt>
      <trkpt lat="42.765419986099005" lon="-3.106705974787474">
        <ele>515.39999999999998</ele>
        <time>2025-04-28T08:16:08Z</time>
      </trkpt>
      <trkpt lat="42.765419986099005" lon="-3.106850981712341">
        <ele>515.39999999999998</ele>
        <time>2025-04-28T08:16:09Z</time>
      </trkpt>
      <trkpt lat="42.765400959178805" lon="-3.107962002977729">
        <ele>513.96000000000004</ele>
        <time>2025-04-28T08:16:16Z</time>
      </trkpt>
      <trkpt lat="42.765358965843916" lon="-3.108261991292238">
        <ele>513.48000000000002</ele>
        <time>2025-04-28T08:16:18Z</time>
      </trkpt>
      <trkpt lat="42.765294006094337" lon="-3.108549993485212">
        <ele>512.51999999999998</ele>
        <time>2025-04-28T08:16:20Z</time>
      </trkpt>
      <trkpt lat="42.765241032466292" lon="-3.108691982924938">
        <ele>512.51999999999998</ele>
        <time>2025-04-28T08:16:21Z</time>
      </trkpt>
      <trkpt lat="42.764849010854959" lon="-3.109844997525215">
        <ele>513</ele>
        <time>2025-04-28T08:16:29Z</time>
      </trkpt>
      <trkpt lat="42.764814980328083" lon="-3.11000500805676">
        <ele>513</ele>
        <time>2025-04-28T08:16:30Z</time>
      </trkpt>
      <trkpt lat="42.764741973951459" lon="-3.110309019684792">
        <ele>513</ele>
        <time>2025-04-28T08:16:32Z</time>
      </trkpt>
      <trkpt lat="42.764667961746454" lon="-3.110419996082783">
        <ele>512.51999999999998</ele>
        <time>2025-04-28T08:16:33Z</time>
      </trkpt>
      <trkpt lat="42.764581963419914" lon="-3.110527032986283">
        <ele>512.51999999999998</ele>
        <time>2025-04-28T08:16:34Z</time>
      </trkpt>
      <trkpt lat="42.7644859906286" lon="-3.110621999949217">
        <ele>512.51999999999998</ele>
        <time>2025-04-28T08:16:36Z</time>
      </trkpt>
      <trkpt lat="42.764389012008905" lon="-3.110719984397292">
        <ele>512.51999999999998</ele>
        <time>2025-04-28T08:16:37Z</time>
      </trkpt>
      <trkpt lat="42.764203017577529" lon="-3.110905978828669">
        <ele>512.03999999999996</ele>
        <time>2025-04-28T08:16:38Z</time>
      </trkpt>
      <trkpt lat="42.76411802507937" lon="-3.110990971326828">
        <ele>511.56</ele>
        <time>2025-04-28T08:16:39Z</time>
      </trkpt>
      <trkpt lat="42.764024985954165" lon="-3.111084010452032">
        <ele>511.56</ele>
        <time>2025-04-28T08:16:40Z</time>
      </trkpt>
      <trkpt lat="42.763286959379911" lon="-3.11206896789372">
        <ele>511.07999999999998</ele>
        <time>2025-04-28T08:16:49Z</time>
      </trkpt>
      <trkpt lat="42.763211019337177" lon="-3.112186985090375">
        <ele>511.56</ele>
        <time>2025-04-28T08:16:51Z</time>
      </trkpt>
      <trkpt lat="42.763085961341858" lon="-3.112452020868659">
        <ele>511.56</ele>
        <time>2025-04-28T08:16:52Z</time>
      </trkpt>
      <trkpt lat="42.763027036562562" lon="-3.112587975338101">
        <ele>512.03999999999996</ele>
        <time>2025-04-28T08:16:53Z</time>
      </trkpt>
      <trkpt lat="42.762906001880765" lon="-3.112861979752779">
        <ele>512.51999999999998</ele>
        <time>2025-04-28T08:16:55Z</time>
      </trkpt>
      <trkpt lat="42.762906001880765" lon="-3.112861979752779">
        <ele>513</ele>
        <time>2025-04-28T08:16:56Z</time>
      </trkpt>
      <trkpt lat="42.76276501826942" lon="-3.113102037459612">
        <ele>513.48000000000002</ele>
        <time>2025-04-28T08:16:57Z</time>
      </trkpt>
      <trkpt lat="42.76229596696794" lon="-3.113816007971764">
        <ele>514.44000000000005</ele>
        <time>2025-04-28T08:17:03Z</time>
      </trkpt>
      <trkpt lat="42.762203011661768" lon="-3.11389303766191">
        <ele>514.44000000000005</ele>
        <time>2025-04-28T08:17:04Z</time>
      </trkpt>
      <trkpt lat="42.762002013623714" lon="-3.114060005173087">
        <ele>515.39999999999998</ele>
        <time>2025-04-28T08:17:06Z</time>
      </trkpt>
      <trkpt lat="42.76169297285378" lon="-3.114272989332676">
        <ele>517.33000000000004</ele>
        <time>2025-04-28T08:17:09Z</time>
      </trkpt>
      <trkpt lat="42.76169297285378" lon="-3.114272989332676">
        <ele>517.80999999999995</ele>
        <time>2025-04-28T08:17:10Z</time>
      </trkpt>
      <trkpt lat="42.760664010420442" lon="-3.114873971790075">
        <ele>520.21000000000004</ele>
        <time>2025-04-28T08:17:18Z</time>
      </trkpt>
      <trkpt lat="42.760554039850831" lon="-3.114984026178718">
        <ele>520.21000000000004</ele>
        <time>2025-04-28T08:17:19Z</time>
      </trkpt>
      <trkpt lat="42.760468041524291" lon="-3.115084022283554">
        <ele>520.21000000000004</ele>
        <time>2025-04-28T08:17:20Z</time>
      </trkpt>
      <trkpt lat="42.76038397103548" lon="-3.115240009501576">
        <ele>520.21000000000004</ele>
        <time>2025-04-28T08:17:21Z</time>
      </trkpt>
      <trkpt lat="42.760298978537321" lon="-3.11539800837636">
        <ele>520.69000000000005</ele>
        <time>2025-04-28T08:17:22Z</time>
      </trkpt>
      <trkpt lat="42.760214991867542" lon="-3.115553995594382">
        <ele>520.69000000000005</ele>
        <time>2025-04-28T08:17:23Z</time>
      </trkpt>
      <trkpt lat="42.760163024067879" lon="-3.11572196893394">
        <ele>521.16999999999996</ele>
        <time>2025-04-28T08:17:24Z</time>
      </trkpt>
      <trkpt lat="42.760126981884241" lon="-3.115917015820742">
        <ele>521.64999999999998</ele>
        <time>2025-04-28T08:17:25Z</time>
      </trkpt>
      <trkpt lat="42.760091023519635" lon="-3.11610602773726">
        <ele>521.64999999999998</ele>
        <time>2025-04-28T08:17:26Z</time>
      </trkpt>
      <trkpt lat="42.759840991348028" lon="-3.118073008954525">
        <ele>521.64999999999998</ele>
        <time>2025-04-28T08:17:37Z</time>
      </trkpt>
      <trkpt lat="42.759852977469563" lon="-3.1184490211308">
        <ele>522.13</ele>
        <time>2025-04-28T08:17:39Z</time>
      </trkpt>
      <trkpt lat="42.759875021874905" lon="-3.118639038875699">
        <ele>522.13</ele>
        <time>2025-04-28T08:17:40Z</time>
      </trkpt>
      <trkpt lat="42.760025979951024" lon="-3.119518971070647">
        <ele>521.64999999999998</ele>
        <time>2025-04-28T08:17:45Z</time>
      </trkpt>
      <trkpt lat="42.760094041004777" lon="-3.119663977995515">
        <ele>521.64999999999998</ele>
        <time>2025-04-28T08:17:46Z</time>
      </trkpt>
      <trkpt lat="42.760169981047511" lon="-3.119798004627228">
        <ele>521.64999999999998</ele>
        <time>2025-04-28T08:17:47Z</time>
      </trkpt>
      <trkpt lat="42.760256985202432" lon="-3.119901018217206">
        <ele>522.13</ele>
        <time>2025-04-28T08:17:48Z</time>
      </trkpt>
      <trkpt lat="42.760364022105932" lon="-3.119988022372127">
        <ele>522.13</ele>
        <time>2025-04-28T08:17:49Z</time>
      </trkpt>
      <trkpt lat="42.76046996936202" lon="-3.120074020698667">
        <ele>522.61000000000001</ele>
        <time>2025-04-28T08:17:50Z</time>
      </trkpt>
      <trkpt lat="42.760549010708928" lon="-3.120138980448246">
        <ele>523.09000000000003</ele>
        <time>2025-04-28T08:17:51Z</time>
      </trkpt>
      <trkpt lat="42.760629979893565" lon="-3.120290022343397">
        <ele>523.58000000000004</ele>
        <time>2025-04-28T08:17:52Z</time>
      </trkpt>
      <trkpt lat="42.760696029290557" lon="-3.120410973206163">
        <ele>523.58000000000004</ele>
        <time>2025-04-28T08:17:53Z</time>
      </trkpt>
      <trkpt lat="42.760686976835132" lon="-3.120540976524353">
        <ele>524.05999999999995</ele>
        <time>2025-04-28T08:17:54Z</time>
      </trkpt>
      <trkpt lat="42.760666022077203" lon="-3.120657987892628">
        <ele>524.53999999999996</ele>
        <time>2025-04-28T08:17:55Z</time>
      </trkpt>
      <trkpt lat="42.760609025135636" lon="-3.120782962068915">
        <ele>525.5</ele>
        <time>2025-04-28T08:17:56Z</time>
      </trkpt>
      <trkpt lat="42.760545993223786" lon="-3.12092000618577">
        <ele>526.46000000000004</ele>
        <time>2025-04-28T08:17:57Z</time>
      </trkpt>
      <trkpt lat="42.76042403653264" lon="-3.121207002550364">
        <ele>528.86000000000001</ele>
        <time>2025-04-28T08:17:59Z</time>
      </trkpt>
      <trkpt lat="42.760377014055848" lon="-3.121369024738669">
        <ele>529.82000000000005</ele>
        <time>2025-04-28T08:18:00Z</time>
      </trkpt>
      <trkpt lat="42.760325968265533" lon="-3.121530041098595">
        <ele>531.26999999999998</ele>
        <time>2025-04-28T08:18:01Z</time>
      </trkpt>
      <trkpt lat="42.760254973545671" lon="-3.121675970032811">
        <ele>532.23000000000002</ele>
        <time>2025-04-28T08:18:02Z</time>
      </trkpt>
      <trkpt lat="42.760186996310949" lon="-3.121817037463188">
        <ele>533.19000000000005</ele>
        <time>2025-04-28T08:18:03Z</time>
      </trkpt>
      <trkpt lat="42.760052969679236" lon="-3.122093975543976">
        <ele>535.11000000000001</ele>
        <time>2025-04-28T08:18:05Z</time>
      </trkpt>
      <trkpt lat="42.75999597273767" lon="-3.122249040752649">
        <ele>536.07000000000005</ele>
        <time>2025-04-28T08:18:06Z</time>
      </trkpt>
      <trkpt lat="42.759883990511298" lon="-3.122735023498535">
        <ele>538.48000000000002</ele>
        <time>2025-04-28T08:18:09Z</time>
      </trkpt>
      <trkpt lat="42.759811989963055" lon="-3.122905008494854">
        <ele>538.96000000000004</ele>
        <time>2025-04-28T08:18:10Z</time>
      </trkpt>
      <trkpt lat="42.759574027732015" lon="-3.123573968186975">
        <ele>540.88</ele>
        <time>2025-04-28T08:18:14Z</time>
      </trkpt>
      <trkpt lat="42.759542008861899" lon="-3.12375501729548">
        <ele>541.84000000000003</ele>
        <time>2025-04-28T08:18:15Z</time>
      </trkpt>
      <trkpt lat="42.759548965841532" lon="-3.123945035040379">
        <ele>542.32000000000005</ele>
        <time>2025-04-28T08:18:16Z</time>
      </trkpt>
      <trkpt lat="42.759518958628178" lon="-3.124858997762203">
        <ele>543.75999999999999</ele>
        <time>2025-04-28T08:18:21Z</time>
      </trkpt>
      <trkpt lat="42.759530022740364" lon="-3.125038035213947">
        <ele>543.75999999999999</ele>
        <time>2025-04-28T08:18:22Z</time>
      </trkpt>
      <trkpt lat="42.759541003033519" lon="-3.125202991068363">
        <ele>543.27999999999997</ele>
        <time>2025-04-28T08:18:23Z</time>
      </trkpt>
      <trkpt lat="42.75958601385355" lon="-3.12534699216485">
        <ele>542.32000000000005</ele>
        <time>2025-04-28T08:18:24Z</time>
      </trkpt>
      <trkpt lat="42.759633036330342" lon="-3.12549501657486">
        <ele>541.84000000000003</ele>
        <time>2025-04-28T08:18:25Z</time>
      </trkpt>
      <trkpt lat="42.759687015786767" lon="-3.125645974650979">
        <ele>541.36000000000001</ele>
        <time>2025-04-28T08:18:26Z</time>
      </trkpt>
      <trkpt lat="42.759820036590099" lon="-3.12592601403594">
        <ele>539.44000000000005</ele>
        <time>2025-04-28T08:18:28Z</time>
      </trkpt>
      <trkpt lat="42.759888013824821" lon="-3.126068003475666">
        <ele>538.96000000000004</ele>
        <time>2025-04-28T08:18:29Z</time>
      </trkpt>
      <trkpt lat="42.760094963014126" lon="-3.126502018421888">
        <ele>537.50999999999999</ele>
        <time>2025-04-28T08:18:32Z</time>
      </trkpt>
      <trkpt lat="42.760123964399099" lon="-3.126646019518375">
        <ele>537.02999999999997</ele>
        <time>2025-04-28T08:18:33Z</time>
      </trkpt>
      <trkpt lat="42.760133016854525" lon="-3.126822039484978">
        <ele>537.02999999999997</ele>
        <time>2025-04-28T08:18:34Z</time>
      </trkpt>
      <trkpt lat="42.760140979662538" lon="-3.126983977854252">
        <ele>536.54999999999995</ele>
        <time>2025-04-28T08:18:35Z</time>
      </trkpt>
      <trkpt lat="42.76010200381279" lon="-3.127163015305996">
        <ele>536.54999999999995</ele>
        <time>2025-04-28T08:18:36Z</time>
      </trkpt>
      <trkpt lat="42.760063027963042" lon="-3.12734398059547">
        <ele>536.07000000000005</ele>
        <time>2025-04-28T08:18:37Z</time>
      </trkpt>
      <trkpt lat="42.760023968294263" lon="-3.127526035532355">
        <ele>536.07000000000005</ele>
        <time>2025-04-28T08:18:38Z</time>
      </trkpt>
      <trkpt lat="42.759983986616135" lon="-3.127710018306971">
        <ele>536.07000000000005</ele>
        <time>2025-04-28T08:18:39Z</time>
      </trkpt>
      <trkpt lat="42.759849037975073" lon="-3.128203963860869">
        <ele>535.11000000000001</ele>
        <time>2025-04-28T08:18:42Z</time>
      </trkpt>
      <trkpt lat="42.759797992184758" lon="-3.128359029069543">
        <ele>535.11000000000001</ele>
        <time>2025-04-28T08:18:43Z</time>
      </trkpt>
      <trkpt lat="42.759747030213475" lon="-3.128509987145662">
        <ele>534.63</ele>
        <time>2025-04-28T08:18:44Z</time>
      </trkpt>
      <trkpt lat="42.759697996079922" lon="-3.128655999898911">
        <ele>534.63</ele>
        <time>2025-04-28T08:18:45Z</time>
      </trkpt>
      <trkpt lat="42.759657008573413" lon="-3.128800000995398">
        <ele>534.63</ele>
        <time>2025-04-28T08:18:46Z</time>
      </trkpt>
      <trkpt lat="42.759624989703298" lon="-3.128947019577026">
        <ele>534.63</ele>
        <time>2025-04-28T08:18:47Z</time>
      </trkpt>
      <trkpt lat="42.759592970833182" lon="-3.129094960168004">
        <ele>534.63</ele>
        <time>2025-04-28T08:18:48Z</time>
      </trkpt>
      <trkpt lat="42.759529016911983" lon="-3.129391008988023">
        <ele>534.63</ele>
        <time>2025-04-28T08:18:50Z</time>
      </trkpt>
      <trkpt lat="42.759498003870249" lon="-3.129537021741271">
        <ele>534.63</ele>
        <time>2025-04-28T08:18:51Z</time>
      </trkpt>
      <trkpt lat="42.759437989443541" lon="-3.129669958725572">
        <ele>535.11000000000001</ele>
        <time>2025-04-28T08:18:52Z</time>
      </trkpt>
      <trkpt lat="42.759437989443541" lon="-3.129669958725572">
        <ele>535.11000000000001</ele>
        <time>2025-04-28T08:18:53Z</time>
      </trkpt>
      <trkpt lat="42.759361965581775" lon="-3.129783030599356">
        <ele>535.11000000000001</ele>
        <time>2025-04-28T08:18:54Z</time>
      </trkpt>
      <trkpt lat="42.759182006120682" lon="-3.129972964525223">
        <ele>535.11000000000001</ele>
        <time>2025-04-28T08:18:55Z</time>
      </trkpt>
      <trkpt lat="42.759097013622522" lon="-3.130062986165285">
        <ele>535.59000000000003</ele>
        <time>2025-04-28T08:18:57Z</time>
      </trkpt>
      <trkpt lat="42.759046973660588" lon="-3.130115959793329">
        <ele>535.11000000000001</ele>
        <time>2025-04-28T08:18:58Z</time>
      </trkpt>
      <trkpt lat="42.758987965062261" lon="-3.130250992253423">
        <ele>535.59000000000003</ele>
        <time>2025-04-28T08:18:59Z</time>
      </trkpt>
      <trkpt lat="42.758914958685637" lon="-3.13041896559298">
        <ele>535.59000000000003</ele>
        <time>2025-04-28T08:19:00Z</time>
      </trkpt>
      <trkpt lat="42.758897021412849" lon="-3.130483003333211">
        <ele>535.11000000000001</ele>
        <time>2025-04-28T08:19:01Z</time>
      </trkpt>
      <trkpt lat="42.758897021412849" lon="-3.13054502941668">
        <ele>535.11000000000001</ele>
        <time>2025-04-28T08:19:02Z</time>
      </trkpt>
      <trkpt lat="42.758897021412849" lon="-3.130599008873105">
        <ele>535.11000000000001</ele>
        <time>2025-04-28T08:19:03Z</time>
      </trkpt>
      <trkpt lat="42.758897021412849" lon="-3.130599008873105">
        <ele>534.63</ele>
        <time>2025-04-28T08:19:04Z</time>
      </trkpt>
      <trkpt lat="42.758897021412849" lon="-3.130723983049393">
        <ele>533.19000000000005</ele>
        <time>2025-04-28T08:19:07Z</time>
      </trkpt>
      <trkpt lat="42.758897021412849" lon="-3.130723983049393">
        <ele>530.78999999999996</ele>
        <time>2025-04-28T08:19:19Z</time>
      </trkpt>
      <trkpt lat="42.758905990049243" lon="-3.130829008296132">
        <ele>531.26999999999998</ele>
        <time>2025-04-28T08:25:13Z</time>
      </trkpt>
      <trkpt lat="42.758906995877624" lon="-3.130876030772924">
        <ele>486.56</ele>
        <time>2025-04-28T08:25:35Z</time>
      </trkpt>
      <trkpt lat="42.759029036387801" lon="-3.131122039631009">
        <ele>498.57999999999998</ele>
        <time>2025-04-28T08:25:43Z</time>
      </trkpt>
      <trkpt lat="42.759058037772775" lon="-3.131173001602292">
        <ele>499.06</ele>
        <time>2025-04-28T08:25:44Z</time>
      </trkpt>
      <trkpt lat="42.759261969476938" lon="-3.13153300434351">
        <ele>502.91000000000003</ele>
        <time>2025-04-28T08:25:50Z</time>
      </trkpt>
      <trkpt lat="42.759305974468589" lon="-3.131710030138493">
        <ele>504.35000000000002</ele>
        <time>2025-04-28T08:25:52Z</time>
      </trkpt>
      <trkpt lat="42.759326007217169" lon="-3.13179099932313">
        <ele>505.31</ele>
        <time>2025-04-28T08:25:53Z</time>
      </trkpt>
      <trkpt lat="42.759317038580775" lon="-3.132014963775873">
        <ele>506.26999999999998</ele>
        <time>2025-04-28T08:25:55Z</time>
      </trkpt>
      <trkpt lat="42.759257024154067" lon="-3.133413987234235">
        <ele>513</ele>
        <time>2025-04-28T08:26:04Z</time>
      </trkpt>
      <trkpt lat="42.759107993915677" lon="-3.135196985676885">
        <ele>519.25</ele>
        <time>2025-04-28T08:26:13Z</time>
      </trkpt>
      <trkpt lat="42.758860979229212" lon="-3.137148041278124">
        <ele>525.01999999999998</ele>
        <time>2025-04-28T08:26:22Z</time>
      </trkpt>
      <trkpt lat="42.758803982287645" lon="-3.137565962970257">
        <ele>525.98000000000002</ele>
        <time>2025-04-28T08:26:24Z</time>
      </trkpt>
      <trkpt lat="42.758757965639234" lon="-3.13774298876524">
        <ele>526.46000000000004</ele>
        <time>2025-04-28T08:26:25Z</time>
      </trkpt>
      <trkpt lat="42.758701974526048" lon="-3.137952033430338">
        <ele>526.46000000000004</ele>
        <time>2025-04-28T08:26:26Z</time>
      </trkpt>
      <trkpt lat="42.758628968149424" lon="-3.138123024255037">
        <ele>526.46000000000004</ele>
        <time>2025-04-28T08:26:27Z</time>
      </trkpt>
      <trkpt lat="42.758550010621548" lon="-3.138306001201272">
        <ele>526.94000000000005</ele>
        <time>2025-04-28T08:26:28Z</time>
      </trkpt>
      <trkpt lat="42.757995966821909" lon="-3.139601005241275">
        <ele>526.46000000000004</ele>
        <time>2025-04-28T08:26:36Z</time>
      </trkpt>
      <trkpt lat="42.757794968783855" lon="-3.141227010637522">
        <ele>527.41999999999996</ele>
        <time>2025-04-28T08:26:44Z</time>
      </trkpt>
      <trkpt lat="42.757745012640953" lon="-3.141399007290602">
        <ele>527.41999999999996</ele>
        <time>2025-04-28T08:26:45Z</time>
      </trkpt>
      <trkpt lat="42.757710982114077" lon="-3.141519958153367">
        <ele>526.94000000000005</ele>
        <time>2025-04-28T08:26:46Z</time>
      </trkpt>
      <trkpt lat="42.757675023749471" lon="-3.141647027805448">
        <ele>526.94000000000005</ele>
        <time>2025-04-28T08:26:47Z</time>
      </trkpt>
      <trkpt lat="42.757629007101059" lon="-3.141807038336992">
        <ele>526.94000000000005</ele>
        <time>2025-04-28T08:26:48Z</time>
      </trkpt>
      <trkpt lat="42.757608974352479" lon="-3.141875015571713">
        <ele>526.94000000000005</ele>
        <time>2025-04-28T08:26:49Z</time>
      </trkpt>
      <trkpt lat="42.757608974352479" lon="-3.142069978639484">
        <ele>526.94000000000005</ele>
        <time>2025-04-28T08:26:50Z</time>
      </trkpt>
      <trkpt lat="42.757608974352479" lon="-3.142291009426117">
        <ele>527.41999999999996</ele>
        <time>2025-04-28T08:26:51Z</time>
      </trkpt>
      <trkpt lat="42.75763101875782" lon="-3.144218008965254">
        <ele>532.71000000000004</ele>
        <time>2025-04-28T08:26:59Z</time>
      </trkpt>
      <trkpt lat="42.75763101875782" lon="-3.144450020045042">
        <ele>533.19000000000005</ele>
        <time>2025-04-28T08:27:00Z</time>
      </trkpt>
      <trkpt lat="42.757586007937789" lon="-3.144670967012644">
        <ele>533.19000000000005</ele>
        <time>2025-04-28T08:27:01Z</time>
      </trkpt>
      <trkpt lat="42.757538985460997" lon="-3.14489996060729">
        <ele>533.66999999999996</ele>
        <time>2025-04-28T08:27:02Z</time>
      </trkpt>
      <trkpt lat="42.757491962984204" lon="-3.145129038020968">
        <ele>533.66999999999996</ele>
        <time>2025-04-28T08:27:03Z</time>
      </trkpt>
      <trkpt lat="42.757445024326444" lon="-3.145359037443996">
        <ele>533.66999999999996</ele>
        <time>2025-04-28T08:27:04Z</time>
      </trkpt>
      <trkpt lat="42.757171019911766" lon="-3.147280002012849">
        <ele>534.63</ele>
        <time>2025-04-28T08:27:13Z</time>
      </trkpt>
      <trkpt lat="42.757100025191903" lon="-3.148108972236514">
        <ele>534.14999999999998</ele>
        <time>2025-04-28T08:27:18Z</time>
      </trkpt>
      <trkpt lat="42.757155010476708" lon="-3.148400997743011">
        <ele>534.14999999999998</ele>
        <time>2025-04-28T08:27:21Z</time>
      </trkpt>
      <trkpt lat="42.757163979113102" lon="-3.148537036031485">
        <ele>534.14999999999998</ele>
        <time>2025-04-28T08:27:22Z</time>
      </trkpt>
      <trkpt lat="42.757241008803248" lon="-3.149444963783026">
        <ele>533.66999999999996</ele>
        <time>2025-04-28T08:27:28Z</time>
      </trkpt>
      <trkpt lat="42.757665971294045" lon="-3.150947000831366">
        <ele>533.66999999999996</ele>
        <time>2025-04-28T08:27:36Z</time>
      </trkpt>
      <trkpt lat="42.758684959262609" lon="-3.15323299728334">
        <ele>531.75</ele>
        <time>2025-04-28T08:27:48Z</time>
      </trkpt>
      <trkpt lat="42.758759977295995" lon="-3.153421003371477">
        <ele>531.26999999999998</ele>
        <time>2025-04-28T08:27:49Z</time>
      </trkpt>
      <trkpt lat="42.759200027212501" lon="-3.154623974114656">
        <ele>528.38</ele>
        <time>2025-04-28T08:27:56Z</time>
      </trkpt>
      <trkpt lat="42.759297005832195" lon="-3.154721036553383">
        <ele>527.89999999999998</ele>
        <time>2025-04-28T08:27:57Z</time>
      </trkpt>
      <trkpt lat="42.759635969996452" lon="-3.155090007930994">
        <ele>527.89999999999998</ele>
        <time>2025-04-28T08:28:00Z</time>
      </trkpt>
      <trkpt lat="42.759749041870236" lon="-3.155228979885578">
        <ele>527.89999999999998</ele>
        <time>2025-04-28T08:28:01Z</time>
      </trkpt>
      <trkpt lat="42.759863035753369" lon="-3.155368035659194">
        <ele>527.89999999999998</ele>
        <time>2025-04-28T08:28:02Z</time>
      </trkpt>
      <trkpt lat="42.759944004938006" lon="-3.155537014827132">
        <ele>527.41999999999996</ele>
        <time>2025-04-28T08:28:03Z</time>
      </trkpt>
      <trkpt lat="42.760022962465882" lon="-3.15572602674365">
        <ele>527.41999999999996</ele>
        <time>2025-04-28T08:28:04Z</time>
      </trkpt>
      <trkpt lat="42.760103009641171" lon="-3.155918978154659">
        <ele>526.94000000000005</ele>
        <time>2025-04-28T08:28:05Z</time>
      </trkpt>
      <trkpt lat="42.760264026001096" lon="-3.156305970624089">
        <ele>526.46000000000004</ele>
        <time>2025-04-28T08:28:07Z</time>
      </trkpt>
      <trkpt lat="42.760841036215425" lon="-3.157414980232716">
        <ele>524.05999999999995</ele>
        <time>2025-04-28T08:28:13Z</time>
      </trkpt>
      <trkpt lat="42.760968022048473" lon="-3.157529979944229">
        <ele>523.58000000000004</ele>
        <time>2025-04-28T08:28:14Z</time>
      </trkpt>
      <trkpt lat="42.761131972074509" lon="-3.157567027956247">
        <ele>523.09000000000003</ele>
        <time>2025-04-28T08:28:15Z</time>
      </trkpt>
      <trkpt lat="42.761293994262815" lon="-3.157596029341221">
        <ele>522.61000000000001</ele>
        <time>2025-04-28T08:28:16Z</time>
      </trkpt>
      <trkpt lat="42.761448975652456" lon="-3.157623019069433">
        <ele>522.61000000000001</ele>
        <time>2025-04-28T08:28:17Z</time>
      </trkpt>
      <trkpt lat="42.761578978970647" lon="-3.157646991312504">
        <ele>523.09000000000003</ele>
        <time>2025-04-28T08:28:18Z</time>
      </trkpt>
      <trkpt lat="42.761741001158953" lon="-3.157772971317172">
        <ele>523.09000000000003</ele>
        <time>2025-04-28T08:28:19Z</time>
      </trkpt>
      <trkpt lat="42.761877961456776" lon="-3.157879002392292">
        <ele>523.09000000000003</ele>
        <time>2025-04-28T08:28:20Z</time>
      </trkpt>
      <trkpt lat="42.762003019452095" lon="-3.158000959083438">
        <ele>523.58000000000004</ele>
        <time>2025-04-28T08:28:21Z</time>
      </trkpt>
      <trkpt lat="42.762112990021706" lon="-3.158158035948873">
        <ele>524.05999999999995</ele>
        <time>2025-04-28T08:28:22Z</time>
      </trkpt>
      <trkpt lat="42.762180967256427" lon="-3.15834897570312">
        <ele>524.53999999999996</ele>
        <time>2025-04-28T08:28:23Z</time>
      </trkpt>
      <trkpt lat="42.76225003413856" lon="-3.158547040075064">
        <ele>525.01999999999998</ele>
        <time>2025-04-28T08:28:24Z</time>
      </trkpt>
      <trkpt lat="42.762321028858423" lon="-3.158748038113117">
        <ele>525.5</ele>
        <time>2025-04-28T08:28:25Z</time>
      </trkpt>
      <trkpt lat="42.763012032955885" lon="-3.160751983523369">
        <ele>527.89999999999998</ele>
        <time>2025-04-28T08:28:35Z</time>
      </trkpt>
      <trkpt lat="42.763085039332509" lon="-3.16094602458179">
        <ele>527.89999999999998</ele>
        <time>2025-04-28T08:28:36Z</time>
      </trkpt>
      <trkpt lat="42.763183023780584" lon="-3.161124978214502">
        <ele>527.89999999999998</ele>
        <time>2025-04-28T08:28:37Z</time>
      </trkpt>
      <trkpt lat="42.763297017663717" lon="-3.161287000402808">
        <ele>528.38</ele>
        <time>2025-04-28T08:28:38Z</time>
      </trkpt>
      <trkpt lat="42.763416040688753" lon="-3.161439970135689">
        <ele>528.38</ele>
        <time>2025-04-28T08:28:39Z</time>
      </trkpt>
      <trkpt lat="42.764279963448644" lon="-3.162550991401076">
        <ele>527.89999999999998</ele>
        <time>2025-04-28T08:28:46Z</time>
      </trkpt>
      <trkpt lat="42.764664022251964" lon="-3.163045020774007">
        <ele>527.89999999999998</ele>
        <time>2025-04-28T08:28:49Z</time>
      </trkpt>
      <trkpt lat="42.764776004478335" lon="-3.163221040740609">
        <ele>527.41999999999996</ele>
        <time>2025-04-28T08:28:50Z</time>
      </trkpt>
      <trkpt lat="42.764854962006211" lon="-3.16344098187983">
        <ele>526.46000000000004</ele>
        <time>2025-04-28T08:28:51Z</time>
      </trkpt>
      <trkpt lat="42.765484023839235" lon="-3.165368987247348">
        <ele>523.09000000000003</ele>
        <time>2025-04-28T08:29:00Z</time>
      </trkpt>
      <trkpt lat="42.765466002747416" lon="-3.165579959750176">
        <ele>523.09000000000003</ele>
        <time>2025-04-28T08:29:01Z</time>
      </trkpt>
      <trkpt lat="42.765446975827217" lon="-3.165797973051667">
        <ele>523.09000000000003</ele>
        <time>2025-04-28T08:29:02Z</time>
      </trkpt>
      <trkpt lat="42.765395008027554" lon="-3.16599695943296">
        <ele>523.09000000000003</ele>
        <time>2025-04-28T08:29:03Z</time>
      </trkpt>
      <trkpt lat="42.765324013307691" lon="-3.166198963299394">
        <ele>523.09000000000003</ele>
        <time>2025-04-28T08:29:04Z</time>
      </trkpt>
      <trkpt lat="42.765236003324389" lon="-3.166384035721421">
        <ele>522.61000000000001</ele>
        <time>2025-04-28T08:29:05Z</time>
      </trkpt>
      <trkpt lat="42.765129972249269" lon="-3.166556032374501">
        <ele>522.61000000000001</ele>
        <time>2025-04-28T08:29:06Z</time>
      </trkpt>
      <trkpt lat="42.764823026955128" lon="-3.167102029547095">
        <ele>522.13</ele>
        <time>2025-04-28T08:29:09Z</time>
      </trkpt>
      <trkpt lat="42.764736022800207" lon="-3.167276959866285">
        <ele>522.13</ele>
        <time>2025-04-28T08:29:10Z</time>
      </trkpt>
      <trkpt lat="42.764679025858641" lon="-3.167475024238229">
        <ele>522.13</ele>
        <time>2025-04-28T08:29:11Z</time>
      </trkpt>
      <trkpt lat="42.764633009210229" lon="-3.167685996741056">
        <ele>521.64999999999998</ele>
        <time>2025-04-28T08:29:12Z</time>
      </trkpt>
      <trkpt lat="42.764615993946791" lon="-3.167904010042548">
        <ele>521.16999999999996</ele>
        <time>2025-04-28T08:29:13Z</time>
      </trkpt>
      <trkpt lat="42.764647006988525" lon="-3.168135015293956">
        <ele>521.16999999999996</ele>
        <time>2025-04-28T08:29:14Z</time>
      </trkpt>
      <trkpt lat="42.76467802003026" lon="-3.168360991403461">
        <ele>520.69000000000005</ele>
        <time>2025-04-28T08:29:15Z</time>
      </trkpt>
      <trkpt lat="42.76470098644495" lon="-3.168530976399779">
        <ele>520.21000000000004</ele>
        <time>2025-04-28T08:29:16Z</time>
      </trkpt>
      <trkpt lat="42.764761000871658" lon="-3.168799029663205">
        <ele>518.76999999999998</ele>
        <time>2025-04-28T08:29:21Z</time>
      </trkpt>
      <trkpt lat="42.764815986156464" lon="-3.169005978852511">
        <ele>516.37</ele>
        <time>2025-04-28T08:29:26Z</time>
      </trkpt>
      <trkpt lat="42.764819003641605" lon="-3.169018970802426">
        <ele>515.88</ele>
        <time>2025-04-28T08:29:27Z</time>
      </trkpt>
      <trkpt lat="42.764862002804875" lon="-3.169103963300586">
        <ele>515.88</ele>
        <time>2025-04-28T08:29:28Z</time>
      </trkpt>
      <trkpt lat="42.764894021674991" lon="-3.169168001040816">
        <ele>515.88</ele>
        <time>2025-04-28T08:29:29Z</time>
      </trkpt>
      <trkpt lat="42.764926040545106" lon="-3.169232960790396">
        <ele>515.88</ele>
        <time>2025-04-28T08:29:30Z</time>
      </trkpt>
      <trkpt lat="42.764956969767809" lon="-3.169294986873865">
        <ele>515.88</ele>
        <time>2025-04-28T08:29:31Z</time>
      </trkpt>
      <trkpt lat="42.764986976981163" lon="-3.169356007128954">
        <ele>515.88</ele>
        <time>2025-04-28T08:29:32Z</time>
      </trkpt>
      <trkpt lat="42.765026958659291" lon="-3.169419039040804">
        <ele>515.39999999999998</ele>
        <time>2025-04-28T08:29:33Z</time>
      </trkpt>
      <trkpt lat="42.765086973085999" lon="-3.169472012668848">
        <ele>515.39999999999998</ele>
        <time>2025-04-28T08:29:34Z</time>
      </trkpt>
      <trkpt lat="42.765477988868952" lon="-3.16982296295464">
        <ele>513.96000000000004</ele>
        <time>2025-04-28T08:29:39Z</time>
      </trkpt>
      <trkpt lat="42.765573039650917" lon="-3.169908039271832">
        <ele>513.48000000000002</ele>
        <time>2025-04-28T08:29:40Z</time>
      </trkpt>
      <trkpt lat="42.766220960766077" lon="-3.171013025566936">
        <ele>511.07999999999998</ele>
        <time>2025-04-28T08:29:48Z</time>
      </trkpt>
      <trkpt lat="42.766420030966401" lon="-3.171961018815637">
        <ele>510.60000000000002</ele>
        <time>2025-04-28T08:29:53Z</time>
      </trkpt>
      <trkpt lat="42.766424976289272" lon="-3.172165034338832">
        <ele>510.60000000000002</ele>
        <time>2025-04-28T08:29:54Z</time>
      </trkpt>
      <trkpt lat="42.766405027359724" lon="-3.172381035983563">
        <ele>510.60000000000002</ele>
        <time>2025-04-28T08:29:55Z</time>
      </trkpt>
      <trkpt lat="42.76618299074471" lon="-3.174465028569102">
        <ele>510.60000000000002</ele>
        <time>2025-04-28T08:30:04Z</time>
      </trkpt>
      <trkpt lat="42.765901023522019" lon="-3.176706014201045">
        <ele>511.07999999999998</ele>
        <time>2025-04-28T08:30:14Z</time>
      </trkpt>
      <trkpt lat="42.765588965266943" lon="-3.178029013797641">
        <ele>513</ele>
        <time>2025-04-28T08:30:21Z</time>
      </trkpt>
      <trkpt lat="42.765498021617532" lon="-3.178403014317155">
        <ele>513</ele>
        <time>2025-04-28T08:30:23Z</time>
      </trkpt>
      <trkpt lat="42.765461979433894" lon="-3.178610969334841">
        <ele>513</ele>
        <time>2025-04-28T08:30:24Z</time>
      </trkpt>
      <trkpt lat="42.765458039939404" lon="-3.178827976807952">
        <ele>513</ele>
        <time>2025-04-28T08:30:25Z</time>
      </trkpt>
      <trkpt lat="42.765445969998837" lon="-3.180896965786815">
        <ele>509.16000000000003</ele>
        <time>2025-04-28T08:30:34Z</time>
      </trkpt>
      <trkpt lat="42.765659037977457" lon="-3.18284098058939">
        <ele>508.67000000000002</ele>
        <time>2025-04-28T08:30:43Z</time>
      </trkpt>
      <trkpt lat="42.766321040689945" lon="-3.184534963220358">
        <ele>510.12</ele>
        <time>2025-04-28T08:30:51Z</time>
      </trkpt>
      <trkpt lat="42.766588004305959" lon="-3.185191014781594">
        <ele>510.60000000000002</ele>
        <time>2025-04-28T08:30:54Z</time>
      </trkpt>
      <trkpt lat="42.766643995419145" lon="-3.185433000326157">
        <ele>511.07999999999998</ele>
        <time>2025-04-28T08:30:55Z</time>
      </trkpt>
      <trkpt lat="42.766694035381079" lon="-3.1856759916991">
        <ele>511.07999999999998</ele>
        <time>2025-04-28T08:30:56Z</time>
      </trkpt>
      <trkpt lat="42.767184963449836" lon="-3.18808201700449">
        <ele>513</ele>
        <time>2025-04-28T08:31:06Z</time>
      </trkpt>
      <trkpt lat="42.76781402528286" lon="-3.190197022631764">
        <ele>515.88</ele>
        <time>2025-04-28T08:31:15Z</time>
      </trkpt>
      <trkpt lat="42.767850989475846" lon="-3.190442025661469">
        <ele>516.37</ele>
        <time>2025-04-28T08:31:16Z</time>
      </trkpt>
      <trkpt lat="42.76787999086082" lon="-3.190690968185663">
        <ele>517.33000000000004</ele>
        <time>2025-04-28T08:31:17Z</time>
      </trkpt>
      <trkpt lat="42.767990967258811" lon="-3.192060990259051">
        <ele>519.25</ele>
        <time>2025-04-28T08:31:23Z</time>
      </trkpt>
      <trkpt lat="42.768014017492533" lon="-3.192258970811963">
        <ele>519.73000000000002</ele>
        <time>2025-04-28T08:31:24Z</time>
      </trkpt>
      <trkpt lat="42.768099009990692" lon="-3.192424010485411">
        <ele>519.73000000000002</ele>
        <time>2025-04-28T08:31:25Z</time>
      </trkpt>
      <trkpt lat="42.768190959468484" lon="-3.192584021016955">
        <ele>519.73000000000002</ele>
        <time>2025-04-28T08:31:26Z</time>
      </trkpt>
      <trkpt lat="42.768293973058462" lon="-3.192749982699752">
        <ele>520.21000000000004</ele>
        <time>2025-04-28T08:31:27Z</time>
      </trkpt>
      <trkpt lat="42.768423976376653" lon="-3.192879986017942">
        <ele>520.69000000000005</ele>
        <time>2025-04-28T08:31:28Z</time>
      </trkpt>
      <trkpt lat="42.768536964431405" lon="-3.193033961579204">
        <ele>520.69000000000005</ele>
        <time>2025-04-28T08:31:29Z</time>
      </trkpt>
      <trkpt lat="42.768630003556609" lon="-3.193221967667341">
        <ele>520.69000000000005</ele>
        <time>2025-04-28T08:31:30Z</time>
      </trkpt>
      <trkpt lat="42.76867501437664" lon="-3.193435035645962">
        <ele>520.69000000000005</ele>
        <time>2025-04-28T08:31:31Z</time>
      </trkpt>
      <trkpt lat="42.768723964691162" lon="-3.193674003705382">
        <ele>520.69000000000005</ele>
        <time>2025-04-28T08:31:32Z</time>
      </trkpt>
      <trkpt lat="42.768757995218039" lon="-3.193864021450281">
        <ele>520.69000000000005</ele>
        <time>2025-04-28T08:31:33Z</time>
      </trkpt>
      <trkpt lat="42.768832007423043" lon="-3.194274986162782">
        <ele>520.69000000000005</ele>
        <time>2025-04-28T08:31:35Z</time>
      </trkpt>
      <trkpt lat="42.768918005749583" lon="-3.194438014179468">
        <ele>520.69000000000005</ele>
        <time>2025-04-28T08:31:36Z</time>
      </trkpt>
      <trkpt lat="42.769102994352579" lon="-3.194794999435544">
        <ele>520.69000000000005</ele>
        <time>2025-04-28T08:31:38Z</time>
      </trkpt>
      <trkpt lat="42.769193015992641" lon="-3.194993985816836">
        <ele>520.21000000000004</ele>
        <time>2025-04-28T08:31:39Z</time>
      </trkpt>
      <trkpt lat="42.769861975684762" lon="-3.197044031694531">
        <ele>520.69000000000005</ele>
        <time>2025-04-28T08:31:48Z</time>
      </trkpt>
      <trkpt lat="42.770141009241343" lon="-3.197879958897829">
        <ele>522.13</ele>
        <time>2025-04-28T08:31:52Z</time>
      </trkpt>
      <trkpt lat="42.770253997296095" lon="-3.198064025491476">
        <ele>522.61000000000001</ele>
        <time>2025-04-28T08:31:53Z</time>
      </trkpt>
      <trkpt lat="42.770368997007608" lon="-3.198204003274441">
        <ele>523.09000000000003</ele>
        <time>2025-04-28T08:31:54Z</time>
      </trkpt>
      <trkpt lat="42.770503023639321" lon="-3.198311040177941">
        <ele>524.05999999999995</ele>
        <time>2025-04-28T08:31:55Z</time>
      </trkpt>
      <trkpt lat="42.770649958401918" lon="-3.198353033512831">
        <ele>524.53999999999996</ele>
        <time>2025-04-28T08:31:56Z</time>
      </trkpt>
      <trkpt lat="42.770794965326786" lon="-3.198357978835702">
        <ele>525.01999999999998</ele>
        <time>2025-04-28T08:31:57Z</time>
      </trkpt>
      <trkpt lat="42.77092999778688" lon="-3.198290001600981">
        <ele>525.5</ele>
        <time>2025-04-28T08:31:58Z</time>
      </trkpt>
      <trkpt lat="42.771069975569844" lon="-3.198220012709498">
        <ele>525.98000000000002</ele>
        <time>2025-04-28T08:31:59Z</time>
      </trkpt>
      <trkpt lat="42.771219005808234" lon="-3.198152035474777">
        <ele>526.46000000000004</ele>
        <time>2025-04-28T08:32:00Z</time>
      </trkpt>
      <trkpt lat="42.771372981369495" lon="-3.198087997734547">
        <ele>526.94000000000005</ele>
        <time>2025-04-28T08:32:01Z</time>
      </trkpt>
      <trkpt lat="42.771528968587518" lon="-3.198028989136219">
        <ele>526.94000000000005</ele>
        <time>2025-04-28T08:32:02Z</time>
      </trkpt>
      <trkpt lat="42.771699037402868" lon="-3.198014991357923">
        <ele>527.41999999999996</ele>
        <time>2025-04-28T08:32:03Z</time>
      </trkpt>
      <trkpt lat="42.772620040923357" lon="-3.198021026328206">
        <ele>528.86000000000001</ele>
        <time>2025-04-28T08:32:08Z</time>
      </trkpt>
      <trkpt lat="42.772801006212831" lon="-3.19805103354156">
        <ele>528.86000000000001</ele>
        <time>2025-04-28T08:32:09Z</time>
      </trkpt>
      <trkpt lat="42.772966967895627" lon="-3.198150023818016">
        <ele>528.86000000000001</ele>
        <time>2025-04-28T08:32:10Z</time>
      </trkpt>
      <trkpt lat="42.773137958720326" lon="-3.198251025751233">
        <ele>528.86000000000001</ele>
        <time>2025-04-28T08:32:11Z</time>
      </trkpt>
      <trkpt lat="42.773307021707296" lon="-3.19835202768445">
        <ele>528.38</ele>
        <time>2025-04-28T08:32:12Z</time>
      </trkpt>
      <trkpt lat="42.773472983390093" lon="-3.198451017960906">
        <ele>528.38</ele>
        <time>2025-04-28T08:32:13Z</time>
      </trkpt>
      <trkpt lat="42.773652020841837" lon="-3.198498040437698">
        <ele>528.38</ele>
        <time>2025-04-28T08:32:14Z</time>
      </trkpt>
      <trkpt lat="42.773828962817788" lon="-3.198539027944207">
        <ele>527.89999999999998</ele>
        <time>2025-04-28T08:32:15Z</time>
      </trkpt>
      <trkpt lat="42.774002971127629" lon="-3.198513966053724">
        <ele>527.89999999999998</ele>
        <time>2025-04-28T08:32:16Z</time>
      </trkpt>
      <trkpt lat="42.774179996922612" lon="-3.198475996032357">
        <ele>527.89999999999998</ele>
        <time>2025-04-28T08:32:17Z</time>
      </trkpt>
      <trkpt lat="42.774359034374356" lon="-3.198414975777268">
        <ele>527.41999999999996</ele>
        <time>2025-04-28T08:32:18Z</time>
      </trkpt>
      <trkpt lat="42.774536982178688" lon="-3.198336018249393">
        <ele>527.41999999999996</ele>
        <time>2025-04-28T08:32:19Z</time>
      </trkpt>
      <trkpt lat="42.775577008724213" lon="-3.197956988587976">
        <ele>526.46000000000004</ele>
        <time>2025-04-28T08:32:25Z</time>
      </trkpt>
      <trkpt lat="42.77574498206377" lon="-3.197953971102834">
        <ele>526.46000000000004</ele>
        <time>2025-04-28T08:32:26Z</time>
      </trkpt>
      <trkpt lat="42.775910021737218" lon="-3.197970986366272">
        <ele>526.46000000000004</ele>
        <time>2025-04-28T08:32:27Z</time>
      </trkpt>
      <trkpt lat="42.776228031143546" lon="-3.198063019663096">
        <ele>526.94000000000005</ele>
        <time>2025-04-28T08:32:29Z</time>
      </trkpt>
      <trkpt lat="42.77638703584671" lon="-3.1981370318681">
        <ele>526.94000000000005</ele>
        <time>2025-04-28T08:32:30Z</time>
      </trkpt>
      <trkpt lat="42.776544028893113" lon="-3.198209032416344">
        <ele>526.94000000000005</ele>
        <time>2025-04-28T08:32:31Z</time>
      </trkpt>
      <trkpt lat="42.7766880299896" lon="-3.19831196218729">
        <ele>527.41999999999996</ele>
        <time>2025-04-28T08:32:32Z</time>
      </trkpt>
      <trkpt lat="42.776822978630662" lon="-3.198445988819003">
        <ele>526.94000000000005</ele>
        <time>2025-04-28T08:32:33Z</time>
      </trkpt>
      <trkpt lat="42.776963040232658" lon="-3.198586972430348">
        <ele>526.94000000000005</ele>
        <time>2025-04-28T08:32:34Z</time>
      </trkpt>
      <trkpt lat="42.777101006358862" lon="-3.198728961870074">
        <ele>526.94000000000005</ele>
        <time>2025-04-28T08:32:35Z</time>
      </trkpt>
      <trkpt lat="42.777222963050008" lon="-3.198912022635341">
        <ele>526.46000000000004</ele>
        <time>2025-04-28T08:32:36Z</time>
      </trkpt>
      <trkpt lat="42.777348021045327" lon="-3.199099022895098">
        <ele>525.98000000000002</ele>
        <time>2025-04-28T08:32:37Z</time>
      </trkpt>
      <trkpt lat="42.77746100910008" lon="-3.199302032589912">
        <ele>525.98000000000002</ele>
        <time>2025-04-28T08:32:38Z</time>
      </trkpt>
      <trkpt lat="42.778629027307034" lon="-3.2017030287534">
        <ele>525.5</ele>
        <time>2025-04-28T08:32:49Z</time>
      </trkpt>
      <trkpt lat="42.778818039223552" lon="-3.202166967093945">
        <ele>525.5</ele>
        <time>2025-04-28T08:32:51Z</time>
      </trkpt>
      <trkpt lat="42.77888098731637" lon="-3.202424040064216">
        <ele>525.5</ele>
        <time>2025-04-28T08:32:52Z</time>
      </trkpt>
      <trkpt lat="42.779631000012159" lon="-3.20548402145505">
        <ele>526.46000000000004</ele>
        <time>2025-04-28T08:33:04Z</time>
      </trkpt>
      <trkpt lat="42.779693026095629" lon="-3.205729024484754">
        <ele>526.94000000000005</ele>
        <time>2025-04-28T08:33:05Z</time>
      </trkpt>
      <trkpt lat="42.779782963916659" lon="-3.2059580180794">
        <ele>527.89999999999998</ele>
        <time>2025-04-28T08:33:06Z</time>
      </trkpt>
      <trkpt lat="42.779881032183766" lon="-3.206174019724131">
        <ele>528.38</ele>
        <time>2025-04-28T08:33:07Z</time>
      </trkpt>
      <trkpt lat="42.779979016631842" lon="-3.206392033025622">
        <ele>529.34000000000003</ele>
        <time>2025-04-28T08:33:08Z</time>
      </trkpt>
      <trkpt lat="42.780047999694943" lon="-3.206629995256662">
        <ele>529.82000000000005</ele>
        <time>2025-04-28T08:33:09Z</time>
      </trkpt>
      <trkpt lat="42.780101979151368" lon="-3.206869969144464">
        <ele>530.29999999999995</ele>
        <time>2025-04-28T08:33:10Z</time>
      </trkpt>
      <trkpt lat="42.780392998829484" lon="-3.208156004548073">
        <ele>531.26999999999998</ele>
        <time>2025-04-28T08:33:17Z</time>
      </trkpt>
      <trkpt lat="42.780418982729316" lon="-3.208440989255905">
        <ele>530.29999999999995</ele>
        <time>2025-04-28T08:33:19Z</time>
      </trkpt>
      <trkpt lat="42.780418982729316" lon="-3.208593036979437">
        <ele>529.82000000000005</ele>
        <time>2025-04-28T08:33:20Z</time>
      </trkpt>
      <trkpt lat="42.780400961637497" lon="-3.208723962306976">
        <ele>529.34000000000003</ele>
        <time>2025-04-28T08:33:21Z</time>
      </trkpt>
      <trkpt lat="42.780352011322975" lon="-3.208861006423831">
        <ele>528.38</ele>
        <time>2025-04-28T08:33:22Z</time>
      </trkpt>
      <trkpt lat="42.780299037694931" lon="-3.208991009742022">
        <ele>527.41999999999996</ele>
        <time>2025-04-28T08:33:23Z</time>
      </trkpt>
      <trkpt lat="42.780215973034501" lon="-3.209111960604787">
        <ele>526.46000000000004</ele>
        <time>2025-04-28T08:33:24Z</time>
      </trkpt>
      <trkpt lat="42.780130980536342" lon="-3.209236012771726">
        <ele>525.5</ele>
        <time>2025-04-28T08:33:25Z</time>
      </trkpt>
      <trkpt lat="42.780043976381421" lon="-3.209360986948013">
        <ele>524.53999999999996</ele>
        <time>2025-04-28T08:33:26Z</time>
      </trkpt>
      <trkpt lat="42.779954960569739" lon="-3.209490990266204">
        <ele>524.05999999999995</ele>
        <time>2025-04-28T08:33:27Z</time>
      </trkpt>
      <trkpt lat="42.779873991385102" lon="-3.209628034383059">
        <ele>523.58000000000004</ele>
        <time>2025-04-28T08:33:28Z</time>
      </trkpt>
      <trkpt lat="42.779829986393452" lon="-3.209788966923952">
        <ele>523.09000000000003</ele>
        <time>2025-04-28T08:33:29Z</time>
      </trkpt>
      <trkpt lat="42.779785981401801" lon="-3.209948977455497">
        <ele>522.61000000000001</ele>
        <time>2025-04-28T08:33:30Z</time>
      </trkpt>
      <trkpt lat="42.779747005552053" lon="-3.210109993815422">
        <ele>522.61000000000001</ele>
        <time>2025-04-28T08:33:31Z</time>
      </trkpt>
      <trkpt lat="42.779325982555747" lon="-3.212738977745175">
        <ele>528.38</ele>
        <time>2025-04-28T08:33:46Z</time>
      </trkpt>
      <trkpt lat="42.779074022546411" lon="-3.214653991162777">
        <ele>529.82000000000005</ele>
        <time>2025-04-28T08:33:56Z</time>
      </trkpt>
      <trkpt lat="42.778907977044582" lon="-3.216407988220453">
        <ele>531.75</ele>
        <time>2025-04-28T08:34:05Z</time>
      </trkpt>
      <trkpt lat="42.778790965676308" lon="-3.217887980863452">
        <ele>532.71000000000004</ele>
        <time>2025-04-28T08:34:15Z</time>
      </trkpt>
      <trkpt lat="42.778617041185498" lon="-3.219897039234638">
        <ele>530.29999999999995</ele>
        <time>2025-04-28T08:34:28Z</time>
      </trkpt>
      <trkpt lat="42.778610000386834" lon="-3.220357960090041">
        <ele>529.82000000000005</ele>
        <time>2025-04-28T08:34:31Z</time>
      </trkpt>
      <trkpt lat="42.778633972629905" lon="-3.220513025298715">
        <ele>528.86000000000001</ele>
        <time>2025-04-28T08:34:32Z</time>
      </trkpt>
      <trkpt lat="42.778659034520388" lon="-3.220677981153131">
        <ele>528.86000000000001</ele>
        <time>2025-04-28T08:34:33Z</time>
      </trkpt>
      <trkpt lat="42.778693987056613" lon="-3.220854001119733">
        <ele>528.38</ele>
        <time>2025-04-28T08:34:34Z</time>
      </trkpt>
      <trkpt lat="42.778758024796844" lon="-3.221029015257955">
        <ele>527.89999999999998</ele>
        <time>2025-04-28T08:34:35Z</time>
      </trkpt>
      <trkpt lat="42.779457997530699" lon="-3.22293296456337">
        <ele>525.01999999999998</ele>
        <time>2025-04-28T08:34:44Z</time>
      </trkpt>
      <trkpt lat="42.780818967148662" lon="-3.226501978933811">
        <ele>526.94000000000005</ele>
        <time>2025-04-28T08:35:00Z</time>
      </trkpt>
      <trkpt lat="42.782131992280483" lon="-3.229960016906261">
        <ele>533.19000000000005</ele>
        <time>2025-04-28T08:35:15Z</time>
      </trkpt>
      <trkpt lat="42.783202026039362" lon="-3.232795028015971">
        <ele>534.63</ele>
        <time>2025-04-28T08:35:27Z</time>
      </trkpt>
      <trkpt lat="42.784451013430953" lon="-3.236107975244522">
        <ele>535.59000000000003</ele>
        <time>2025-04-28T08:35:40Z</time>
      </trkpt>
      <trkpt lat="42.785436976701021" lon="-3.238719021901488">
        <ele>536.54999999999995</ele>
        <time>2025-04-28T08:35:50Z</time>
      </trkpt>
      <trkpt lat="42.786920992657542" lon="-3.242666982114315">
        <ele>542.32000000000005</ele>
        <time>2025-04-28T08:36:06Z</time>
      </trkpt>
      <trkpt lat="42.788486983627081" lon="-3.246834967285395">
        <ele>552.40999999999997</ele>
        <time>2025-04-28T08:36:23Z</time>
      </trkpt>
      <trkpt lat="42.788680018857121" lon="-3.247529994696379">
        <ele>553.86000000000001</ele>
        <time>2025-04-28T08:36:26Z</time>
      </trkpt>
      <trkpt lat="42.788701979443431" lon="-3.247773991897702">
        <ele>554.34000000000003</ele>
        <time>2025-04-28T08:36:27Z</time>
      </trkpt>
      <trkpt lat="42.788701979443431" lon="-3.24802603572607">
        <ele>554.82000000000005</ele>
        <time>2025-04-28T08:36:28Z</time>
      </trkpt>
      <trkpt lat="42.788655962795019" lon="-3.24826399795711">
        <ele>555.29999999999995</ele>
        <time>2025-04-28T08:36:29Z</time>
      </trkpt>
      <trkpt lat="42.788583040237427" lon="-3.248502966016531">
        <ele>555.77999999999997</ele>
        <time>2025-04-28T08:36:30Z</time>
      </trkpt>
      <trkpt lat="42.788509028032422" lon="-3.248746963217855">
        <ele>556.25999999999999</ele>
        <time>2025-04-28T08:36:31Z</time>
      </trkpt>
      <trkpt lat="42.788406014442444" lon="-3.248975034803152">
        <ele>556.25999999999999</ele>
        <time>2025-04-28T08:36:32Z</time>
      </trkpt>
      <trkpt lat="42.788286991417408" lon="-3.249201010912657">
        <ele>556.74000000000001</ele>
        <time>2025-04-28T08:36:33Z</time>
      </trkpt>
      <trkpt lat="42.7870889659971" lon="-3.251550039276481">
        <ele>557.70000000000005</ele>
        <time>2025-04-28T08:36:44Z</time>
      </trkpt>
      <trkpt lat="42.787014031782746" lon="-3.251765035092831">
        <ele>558.17999999999995</ele>
        <time>2025-04-28T08:36:45Z</time>
      </trkpt>
      <trkpt lat="42.786967009305954" lon="-3.25200098566711">
        <ele>558.17999999999995</ele>
        <time>2025-04-28T08:36:46Z</time>
      </trkpt>
      <trkpt lat="42.786920992657542" lon="-3.252231990918517">
        <ele>558.17999999999995</ele>
        <time>2025-04-28T08:36:47Z</time>
      </trkpt>
      <trkpt lat="42.786920992657542" lon="-3.252493003383279">
        <ele>558.17999999999995</ele>
        <time>2025-04-28T08:36:48Z</time>
      </trkpt>
      <trkpt lat="42.786929039284587" lon="-3.252744963392615">
        <ele>558.17999999999995</ele>
        <time>2025-04-28T08:36:49Z</time>
      </trkpt>
      <trkpt lat="42.786956029012799" lon="-3.253001030534506">
        <ele>558.17999999999995</ele>
        <time>2025-04-28T08:36:50Z</time>
      </trkpt>
      <trkpt lat="42.787001961842179" lon="-3.253250978887081">
        <ele>557.70000000000005</ele>
        <time>2025-04-28T08:36:51Z</time>
      </trkpt>
      <trkpt lat="42.787055019289255" lon="-3.253501011058688">
        <ele>557.22000000000003</ele>
        <time>2025-04-28T08:36:52Z</time>
      </trkpt>
      <trkpt lat="42.787535972893238" lon="-3.255908964201808">
        <ele>550.97000000000003</ele>
        <time>2025-04-28T08:37:01Z</time>
      </trkpt>
      <trkpt lat="42.787889018654823" lon="-3.258981015533209">
        <ele>544.24000000000001</ele>
        <time>2025-04-28T08:37:12Z</time>
      </trkpt>
      <trkpt lat="42.788035031408072" lon="-3.261032989248633">
        <ele>543.27999999999997</ele>
        <time>2025-04-28T08:37:20Z</time>
      </trkpt>
      <trkpt lat="42.788143996149302" lon="-3.261479996144772">
        <ele>543.27999999999997</ele>
        <time>2025-04-28T08:37:22Z</time>
      </trkpt>
      <trkpt lat="42.788252960890532" lon="-3.261684011667967">
        <ele>543.27999999999997</ele>
        <time>2025-04-28T08:37:23Z</time>
      </trkpt>
      <trkpt lat="42.788357986137271" lon="-3.261877968907356">
        <ele>543.27999999999997</ele>
        <time>2025-04-28T08:37:24Z</time>
      </trkpt>
      <trkpt lat="42.789758015424013" lon="-3.263870012015104">
        <ele>541.84000000000003</ele>
        <time>2025-04-28T08:37:35Z</time>
      </trkpt>
      <trkpt lat="42.791082020848989" lon="-3.26570900157094">
        <ele>545.20000000000005</ele>
        <time>2025-04-28T08:37:47Z</time>
      </trkpt>
      <trkpt lat="42.791781993582845" lon="-3.266469994559884">
        <ele>545.69000000000005</ele>
        <time>2025-04-28T08:37:55Z</time>
      </trkpt>
      <trkpt lat="42.791873021051288" lon="-3.266562027856708">
        <ele>546.16999999999996</ele>
        <time>2025-04-28T08:37:56Z</time>
      </trkpt>
      <trkpt lat="42.791948039084673" lon="-3.266688007861376">
        <ele>546.16999999999996</ele>
        <time>2025-04-28T08:37:57Z</time>
      </trkpt>
      <trkpt lat="42.791996989399195" lon="-3.266827985644341">
        <ele>546.16999999999996</ele>
        <time>2025-04-28T08:37:58Z</time>
      </trkpt>
      <trkpt lat="42.792047029361129" lon="-3.266969975084066">
        <ele>546.16999999999996</ele>
        <time>2025-04-28T08:37:59Z</time>
      </trkpt>
      <trkpt lat="42.79247903265059" lon="-3.268234971910715">
        <ele>548.57000000000005</ele>
        <time>2025-04-28T08:38:08Z</time>
      </trkpt>
      <trkpt lat="42.792506022378802" lon="-3.268384002149105">
        <ele>549.04999999999995</ele>
        <time>2025-04-28T08:38:09Z</time>
      </trkpt>
      <trkpt lat="42.792519014328718" lon="-3.268538983538747">
        <ele>549.04999999999995</ele>
        <time>2025-04-28T08:38:10Z</time>
      </trkpt>
      <trkpt lat="42.792655974626541" lon="-3.270390965044498">
        <ele>550.49000000000001</ele>
        <time>2025-04-28T08:38:22Z</time>
      </trkpt>
      <trkpt lat="42.792695034295321" lon="-3.271462004631758">
        <ele>552.89999999999998</ele>
        <time>2025-04-28T08:38:29Z</time>
      </trkpt>
      <trkpt lat="42.79267399571836" lon="-3.271608017385006">
        <ele>553.38</ele>
        <time>2025-04-28T08:38:30Z</time>
      </trkpt>
      <trkpt lat="42.792649017646909" lon="-3.271756963804364">
        <ele>553.86000000000001</ele>
        <time>2025-04-28T08:38:31Z</time>
      </trkpt>
      <trkpt lat="42.792596966028214" lon="-3.272062987089157">
        <ele>554.34000000000003</ele>
        <time>2025-04-28T08:38:33Z</time>
      </trkpt>
      <trkpt lat="42.792570982128382" lon="-3.272213023155928">
        <ele>554.82000000000005</ele>
        <time>2025-04-28T08:38:34Z</time>
      </trkpt>
      <trkpt lat="42.792541980743408" lon="-3.272380996495485">
        <ele>554.82000000000005</ele>
        <time>2025-04-28T08:38:35Z</time>
      </trkpt>
      <trkpt lat="42.792493030428886" lon="-3.272504964843392">
        <ele>555.29999999999995</ele>
        <time>2025-04-28T08:38:36Z</time>
      </trkpt>
      <trkpt lat="42.792437039315701" lon="-3.272644020617008">
        <ele>555.29999999999995</ele>
        <time>2025-04-28T08:38:37Z</time>
      </trkpt>
      <trkpt lat="42.792380964383483" lon="-3.272779975086451">
        <ele>555.77999999999997</ele>
        <time>2025-04-28T08:38:38Z</time>
      </trkpt>
      <trkpt lat="42.792051974684" lon="-3.273597965016961">
        <ele>558.17999999999995</ele>
        <time>2025-04-28T08:38:44Z</time>
      </trkpt>
      <trkpt lat="42.792000006884336" lon="-3.273735009133816">
        <ele>558.65999999999997</ele>
        <time>2025-04-28T08:38:45Z</time>
      </trkpt>
      <trkpt lat="42.791646961122751" lon="-3.274523997679353">
        <ele>562.50999999999999</ele>
        <time>2025-04-28T08:38:51Z</time>
      </trkpt>
      <trkpt lat="42.790912035852671" lon="-3.275618003681302">
        <ele>565.38999999999999</ele>
        <time>2025-04-28T08:39:00Z</time>
      </trkpt>
      <trkpt lat="42.790826037526131" lon="-3.275750018656254">
        <ele>565.87</ele>
        <time>2025-04-28T08:39:01Z</time>
      </trkpt>
      <trkpt lat="42.790783038362861" lon="-3.275947999209166">
        <ele>566.35000000000002</ele>
        <time>2025-04-28T08:39:02Z</time>
      </trkpt>
      <trkpt lat="42.790742972865701" lon="-3.276136005297303">
        <ele>566.35000000000002</ele>
        <time>2025-04-28T08:39:03Z</time>
      </trkpt>
      <trkpt lat="42.790697040036321" lon="-3.276351001113653">
        <ele>566.83000000000004</ele>
        <time>2025-04-28T08:39:04Z</time>
      </trkpt>
      <trkpt lat="42.790697040036321" lon="-3.276541018858552">
        <ele>566.83000000000004</ele>
        <time>2025-04-28T08:39:05Z</time>
      </trkpt>
      <trkpt lat="42.790685975924134" lon="-3.276758026331663">
        <ele>567.32000000000005</ele>
        <time>2025-04-28T08:39:06Z</time>
      </trkpt>
      <trkpt lat="42.790726963430643" lon="-3.277686992660165">
        <ele>569.72000000000003</ele>
        <time>2025-04-28T08:39:10Z</time>
      </trkpt>
      <trkpt lat="42.790768034756184" lon="-3.277928978204727">
        <ele>570.67999999999995</ele>
        <time>2025-04-28T08:39:11Z</time>
      </trkpt>
      <trkpt lat="42.790902983397245" lon="-3.278665998950601">
        <ele>573.55999999999995</ele>
        <time>2025-04-28T08:39:14Z</time>
      </trkpt>
      <trkpt lat="42.79112895950675" lon="-3.281438983976841">
        <ele>582.22000000000003</ele>
        <time>2025-04-28T08:39:25Z</time>
      </trkpt>
      <trkpt lat="42.791093001142144" lon="-3.281642999500036">
        <ele>583.17999999999995</ele>
        <time>2025-04-28T08:39:26Z</time>
      </trkpt>
      <trkpt lat="42.791048996150494" lon="-3.281852966174483">
        <ele>583.65999999999997</ele>
        <time>2025-04-28T08:39:27Z</time>
      </trkpt>
      <trkpt lat="42.790966015309095" lon="-3.282055975869298">
        <ele>584.62</ele>
        <time>2025-04-28T08:39:28Z</time>
      </trkpt>
      <trkpt lat="42.790882028639317" lon="-3.282263008877635">
        <ele>585.10000000000002</ele>
        <time>2025-04-28T08:39:29Z</time>
      </trkpt>
      <trkpt lat="42.789789028465748" lon="-3.28493700362742">
        <ele>589.90999999999997</ele>
        <time>2025-04-28T08:39:41Z</time>
      </trkpt>
      <trkpt lat="42.789743011817336" lon="-3.285171026363969">
        <ele>590.38999999999999</ele>
        <time>2025-04-28T08:39:42Z</time>
      </trkpt>
      <trkpt lat="42.789720967411995" lon="-3.285414017736912">
        <ele>590.87</ele>
        <time>2025-04-28T08:39:43Z</time>
      </trkpt>
      <trkpt lat="42.789435982704163" lon="-3.288746997714043">
        <ele>594.71000000000004</ele>
        <time>2025-04-28T08:39:56Z</time>
      </trkpt>
      <trkpt lat="42.789161978289485" lon="-3.291661972180009">
        <ele>598.08000000000004</ele>
        <time>2025-04-28T08:40:07Z</time>
      </trkpt>
      <trkpt lat="42.788835000246763" lon="-3.295166026800871">
        <ele>594.23000000000002</ele>
        <time>2025-04-28T08:40:20Z</time>
      </trkpt>
      <trkpt lat="42.788597960025072" lon="-3.297826023772359">
        <ele>587.5</ele>
        <time>2025-04-28T08:40:31Z</time>
      </trkpt>
      <trkpt lat="42.788478014990687" lon="-3.299103006720543">
        <ele>587.98000000000002</ele>
        <time>2025-04-28T08:40:39Z</time>
      </trkpt>
      <trkpt lat="42.788416994735599" lon="-3.3005799818784">
        <ele>589.90999999999997</ele>
        <time>2025-04-28T08:40:48Z</time>
      </trkpt>
      <trkpt lat="42.788453958928585" lon="-3.300735969096422">
        <ele>590.38999999999999</ele>
        <time>2025-04-28T08:40:49Z</time>
      </trkpt>
      <trkpt lat="42.788938013836741" lon="-3.302421988919377">
        <ele>588.46000000000004</ele>
        <time>2025-04-28T08:40:58Z</time>
      </trkpt>
      <trkpt lat="42.78981601819396" lon="-3.305427990853787">
        <ele>586.05999999999995</ele>
        <time>2025-04-28T08:41:10Z</time>
      </trkpt>
      <trkpt lat="42.790789995342493" lon="-3.308770023286343">
        <ele>582.70000000000005</ele>
        <time>2025-04-28T08:41:23Z</time>
      </trkpt>
      <trkpt lat="42.790906000882387" lon="-3.30925902351737">
        <ele>582.70000000000005</ele>
        <time>2025-04-28T08:41:25Z</time>
      </trkpt>
      <trkpt lat="42.7909329906106" lon="-3.309476030990481">
        <ele>582.22000000000003</ele>
        <time>2025-04-28T08:41:26Z</time>
      </trkpt>
      <trkpt lat="42.790915975347161" lon="-3.309679040685296">
        <ele>581.73000000000002</ele>
        <time>2025-04-28T08:41:27Z</time>
      </trkpt>
      <trkpt lat="42.790866019204259" lon="-3.309880960732698">
        <ele>581.73000000000002</ele>
        <time>2025-04-28T08:41:28Z</time>
      </trkpt>
      <trkpt lat="42.79080399312079" lon="-3.310091011226177">
        <ele>581.25</ele>
        <time>2025-04-28T08:41:29Z</time>
      </trkpt>
      <trkpt lat="42.789958007633686" lon="-3.312122030183673">
        <ele>578.37</ele>
        <time>2025-04-28T08:41:38Z</time>
      </trkpt>
      <trkpt lat="42.78865504078567" lon="-3.315263986587524">
        <ele>570.20000000000005</ele>
        <time>2025-04-28T08:41:52Z</time>
      </trkpt>
      <trkpt lat="42.78818397782743" lon="-3.31639101728797">
        <ele>565.87</ele>
        <time>2025-04-28T08:42:00Z</time>
      </trkpt>
      <trkpt lat="42.787415022030473" lon="-3.31826101988554">
        <ele>563.47000000000003</ele>
        <time>2025-04-28T08:42:13Z</time>
      </trkpt>
      <trkpt lat="42.78665998019278" lon="-3.320133034139872">
        <ele>557.70000000000005</ele>
        <time>2025-04-28T08:42:26Z</time>
      </trkpt>
      <trkpt lat="42.786468034610152" lon="-3.32073301076889">
        <ele>555.77999999999997</ele>
        <time>2025-04-28T08:42:30Z</time>
      </trkpt>
      <trkpt lat="42.786426963284612" lon="-3.320896960794926">
        <ele>555.29999999999995</ele>
        <time>2025-04-28T08:42:31Z</time>
      </trkpt>
      <trkpt lat="42.786415982991457" lon="-3.32105697132647">
        <ele>555.29999999999995</ele>
        <time>2025-04-28T08:42:32Z</time>
      </trkpt>
      <trkpt lat="42.786328978836536" lon="-3.322844998911023">
        <ele>552.40999999999997</ele>
        <time>2025-04-28T08:42:41Z</time>
      </trkpt>
      <trkpt lat="42.786349011585116" lon="-3.325484963133931">
        <ele>546.16999999999996</ele>
        <time>2025-04-28T08:42:52Z</time>
      </trkpt>
      <trkpt lat="42.786781014874578" lon="-3.32814697176218">
        <ele>546.16999999999996</ele>
        <time>2025-04-28T08:43:02Z</time>
      </trkpt>
      <trkpt lat="42.787707969546318" lon="-3.331503001973033">
        <ele>549.52999999999997</ele>
        <time>2025-04-28T08:43:15Z</time>
      </trkpt>
      <trkpt lat="42.788772974163294" lon="-3.33510403521359">
        <ele>550.00999999999999</ele>
        <time>2025-04-28T08:43:29Z</time>
      </trkpt>
      <trkpt lat="42.7894720248878" lon="-3.337495978921652">
        <ele>544.24000000000001</ele>
        <time>2025-04-28T08:43:39Z</time>
      </trkpt>
      <trkpt lat="42.789667993783951" lon="-3.338115988299251">
        <ele>543.75999999999999</ele>
        <time>2025-04-28T08:43:42Z</time>
      </trkpt>
      <trkpt lat="42.789766984060407" lon="-3.338300976902247">
        <ele>543.27999999999997</ele>
        <time>2025-04-28T08:43:43Z</time>
      </trkpt>
      <trkpt lat="42.789887012913823" lon="-3.338454030454159">
        <ele>543.27999999999997</ele>
        <time>2025-04-28T08:43:44Z</time>
      </trkpt>
      <trkpt lat="42.791054025292397" lon="-3.340110965073109">
        <ele>543.27999999999997</ele>
        <time>2025-04-28T08:43:54Z</time>
      </trkpt>
      <trkpt lat="42.791465995833278" lon="-3.340814961120486">
        <ele>543.27999999999997</ele>
        <time>2025-04-28T08:43:58Z</time>
      </trkpt>
      <trkpt lat="42.792084999382496" lon="-3.342332001775503">
        <ele>541.84000000000003</ele>
        <time>2025-04-28T08:44:05Z</time>
      </trkpt>
      <trkpt lat="42.792718000710011" lon="-3.344786977395415">
        <ele>534.14999999999998</ele>
        <time>2025-04-28T08:44:15Z</time>
      </trkpt>
      <trkpt lat="42.792741972953081" lon="-3.345036003738642">
        <ele>533.66999999999996</ele>
        <time>2025-04-28T08:44:16Z</time>
      </trkpt>
      <trkpt lat="42.792750019580126" lon="-3.345275977626443">
        <ele>533.19000000000005</ele>
        <time>2025-04-28T08:44:17Z</time>
      </trkpt>
      <trkpt lat="42.792728981003165" lon="-3.345519974827766">
        <ele>532.71000000000004</ele>
        <time>2025-04-28T08:44:18Z</time>
      </trkpt>
      <trkpt lat="42.792709032073617" lon="-3.345764977857471">
        <ele>531.75</ele>
        <time>2025-04-28T08:44:19Z</time>
      </trkpt>
      <trkpt lat="42.792269987985492" lon="-3.347344966605306">
        <ele>530.29999999999995</ele>
        <time>2025-04-28T08:44:26Z</time>
      </trkpt>
      <trkpt lat="42.79106299392879" lon="-3.349225027486682">
        <ele>531.26999999999998</ele>
        <time>2025-04-28T08:44:36Z</time>
      </trkpt>
      <trkpt lat="42.789409998804331" lon="-3.351651001721621">
        <ele>530.29999999999995</ele>
        <time>2025-04-28T08:44:49Z</time>
      </trkpt>
      <trkpt lat="42.789305979385972" lon="-3.351865997537971">
        <ele>529.82000000000005</ele>
        <time>2025-04-28T08:44:50Z</time>
      </trkpt>
      <trkpt lat="42.789210006594658" lon="-3.352089961990714">
        <ele>529.34000000000003</ele>
        <time>2025-04-28T08:44:51Z</time>
      </trkpt>
      <trkpt lat="42.788788983598351" lon="-3.353192014619708">
        <ele>528.38</ele>
        <time>2025-04-28T08:44:56Z</time>
      </trkpt>
      <trkpt lat="42.78874296694994" lon="-3.353420002385974">
        <ele>528.38</ele>
        <time>2025-04-28T08:44:57Z</time>
      </trkpt>
      <trkpt lat="42.788709020242095" lon="-3.353666011244059">
        <ele>528.38</ele>
        <time>2025-04-28T08:44:58Z</time>
      </trkpt>
      <trkpt lat="42.788673983886838" lon="-3.353918977081776">
        <ele>528.38</ele>
        <time>2025-04-28T08:44:59Z</time>
      </trkpt>
      <trkpt lat="42.788664009422064" lon="-3.354178983718157">
        <ele>528.38</ele>
        <time>2025-04-28T08:45:00Z</time>
      </trkpt>
      <trkpt lat="42.788672978058457" lon="-3.354446031153202">
        <ele>528.38</ele>
        <time>2025-04-28T08:45:01Z</time>
      </trkpt>
      <trkpt lat="42.788682030513883" lon="-3.35472003556788">
        <ele>528.38</ele>
        <time>2025-04-28T08:45:02Z</time>
      </trkpt>
      <trkpt lat="42.788644982501864" lon="-3.357564015313983">
        <ele>530.78999999999996</ele>
        <time>2025-04-28T08:45:12Z</time>
      </trkpt>
      <trkpt lat="42.788560995832086" lon="-3.360399026423693">
        <ele>534.14999999999998</ele>
        <time>2025-04-28T08:45:23Z</time>
      </trkpt>
      <trkpt lat="42.788466028869152" lon="-3.361558998003602">
        <ele>536.54999999999995</ele>
        <time>2025-04-28T08:45:30Z</time>
      </trkpt>
      <trkpt lat="42.788049029186368" lon="-3.36305701173842">
        <ele>537.99000000000001</ele>
        <time>2025-04-28T08:45:40Z</time>
      </trkpt>
      <trkpt lat="42.788039976730943" lon="-3.363218028098345">
        <ele>538.48000000000002</ele>
        <time>2025-04-28T08:45:41Z</time>
      </trkpt>
      <trkpt lat="42.788051040843129" lon="-3.363365968689323">
        <ele>538.96000000000004</ele>
        <time>2025-04-28T08:45:42Z</time>
      </trkpt>
      <trkpt lat="42.788100996986032" lon="-3.363533020019531">
        <ele>539.44000000000005</ele>
        <time>2025-04-28T08:45:43Z</time>
      </trkpt>
      <trkpt lat="42.788157993927598" lon="-3.363648019731045">
        <ele>539.91999999999996</ele>
        <time>2025-04-28T08:45:44Z</time>
      </trkpt>
      <trkpt lat="42.788246003910899" lon="-3.363763019442558">
        <ele>540.39999999999998</ele>
        <time>2025-04-28T08:45:45Z</time>
      </trkpt>
      <trkpt lat="42.788329990580678" lon="-3.363890005275607">
        <ele>541.36000000000001</ele>
        <time>2025-04-28T08:45:46Z</time>
      </trkpt>
      <trkpt lat="42.788429986685514" lon="-3.363991007208824">
        <ele>541.36000000000001</ele>
        <time>2025-04-28T08:45:47Z</time>
      </trkpt>
      <trkpt lat="42.788530988618731" lon="-3.364083962514997">
        <ele>541.84000000000003</ele>
        <time>2025-04-28T08:45:48Z</time>
      </trkpt>
      <trkpt lat="42.788631990551949" lon="-3.364173984155059">
        <ele>542.79999999999995</ele>
        <time>2025-04-28T08:45:49Z</time>
      </trkpt>
      <trkpt lat="42.789038009941578" lon="-3.364534992724657">
        <ele>544.72000000000003</ele>
        <time>2025-04-28T08:45:53Z</time>
      </trkpt>
      <trkpt lat="42.789113027974963" lon="-3.364664996042848">
        <ele>545.20000000000005</ele>
        <time>2025-04-28T08:45:54Z</time>
      </trkpt>
      <trkpt lat="42.789158038794994" lon="-3.364811008796096">
        <ele>545.69000000000005</ele>
        <time>2025-04-28T08:45:55Z</time>
      </trkpt>
      <trkpt lat="42.789191985502839" lon="-3.364957021549344">
        <ele>546.16999999999996</ele>
        <time>2025-04-28T08:45:56Z</time>
      </trkpt>
      <trkpt lat="42.789177987724543" lon="-3.365113008767366">
        <ele>546.64999999999998</ele>
        <time>2025-04-28T08:45:57Z</time>
      </trkpt>
      <trkpt lat="42.789144041016698" lon="-3.365268995985389">
        <ele>547.13</ele>
        <time>2025-04-28T08:45:58Z</time>
      </trkpt>
      <trkpt lat="42.78908796608448" lon="-3.365463959053159">
        <ele>547.61000000000001</ele>
        <time>2025-04-28T08:45:59Z</time>
      </trkpt>
      <trkpt lat="42.789027029648423" lon="-3.365622041746974">
        <ele>548.57000000000005</ele>
        <time>2025-04-28T08:46:00Z</time>
      </trkpt>
      <trkpt lat="42.788598965853453" lon="-3.366857031360269">
        <ele>553.38</ele>
        <time>2025-04-28T08:46:06Z</time>
      </trkpt>
      <trkpt lat="42.788565019145608" lon="-3.367083007469773">
        <ele>553.86000000000001</ele>
        <time>2025-04-28T08:46:07Z</time>
      </trkpt>
      <trkpt lat="42.788551021367311" lon="-3.367309989407659">
        <ele>555.29999999999995</ele>
        <time>2025-04-28T08:46:08Z</time>
      </trkpt>
      <trkpt lat="42.788599971681833" lon="-3.36752800270915">
        <ele>556.25999999999999</ele>
        <time>2025-04-28T08:46:09Z</time>
      </trkpt>
      <trkpt lat="42.788659986108541" lon="-3.367752972990274">
        <ele>557.70000000000005</ele>
        <time>2025-04-28T08:46:10Z</time>
      </trkpt>
      <trkpt lat="42.788750007748604" lon="-3.367975009605289">
        <ele>558.65999999999997</ele>
        <time>2025-04-28T08:46:11Z</time>
      </trkpt>
      <trkpt lat="42.789818029850721" lon="-3.370544984936714">
        <ele>569.24000000000001</ele>
        <time>2025-04-28T08:46:22Z</time>
      </trkpt>
      <trkpt lat="42.789961025118828" lon="-3.37070700712502">
        <ele>569.72000000000003</ele>
        <time>2025-04-28T08:46:23Z</time>
      </trkpt>
      <trkpt lat="42.790120029821992" lon="-3.37085603736341">
        <ele>570.20000000000005</ele>
        <time>2025-04-28T08:46:24Z</time>
      </trkpt>
      <trkpt lat="42.791562974452972" lon="-3.372175013646483">
        <ele>569.24000000000001</ele>
        <time>2025-04-28T08:46:32Z</time>
      </trkpt>
      <trkpt lat="42.791881989687681" lon="-3.372502997517586">
        <ele>567.79999999999995</ele>
        <time>2025-04-28T08:46:34Z</time>
      </trkpt>
      <trkpt lat="42.792026996612549" lon="-3.372677005827427">
        <ele>567.32000000000005</ele>
        <time>2025-04-28T08:46:35Z</time>
      </trkpt>
      <trkpt lat="42.792131016030908" lon="-3.372902981936932">
        <ele>566.35000000000002</ele>
        <time>2025-04-28T08:46:36Z</time>
      </trkpt>
      <trkpt lat="42.792748007923365" lon="-3.374106036499143">
        <ele>560.59000000000003</ele>
        <time>2025-04-28T08:46:42Z</time>
      </trkpt>
      <trkpt lat="42.792882034555078" lon="-3.374247020110488">
        <ele>559.62</ele>
        <time>2025-04-28T08:46:43Z</time>
      </trkpt>
      <trkpt lat="42.793031986802816" lon="-3.37438196875155">
        <ele>559.13999999999999</ele>
        <time>2025-04-28T08:46:44Z</time>
      </trkpt>
      <trkpt lat="42.794609041884542" lon="-3.375662975013256">
        <ele>552.89999999999998</ele>
        <time>2025-04-28T08:46:54Z</time>
      </trkpt>
      <trkpt lat="42.796179978176951" lon="-3.37667902931571">
        <ele>548.09000000000003</ele>
        <time>2025-04-28T08:47:03Z</time>
      </trkpt>
      <trkpt lat="42.79634602367878" lon="-3.376825964078307">
        <ele>548.09000000000003</ele>
        <time>2025-04-28T08:47:04Z</time>
      </trkpt>
      <trkpt lat="42.79679898172617" lon="-3.377368021756411">
        <ele>547.61000000000001</ele>
        <time>2025-04-28T08:47:07Z</time>
      </trkpt>
      <trkpt lat="42.796926973387599" lon="-3.377567008137703">
        <ele>547.61000000000001</ele>
        <time>2025-04-28T08:47:08Z</time>
      </trkpt>
      <trkpt lat="42.797042978927493" lon="-3.377775968983769">
        <ele>547.61000000000001</ele>
        <time>2025-04-28T08:47:09Z</time>
      </trkpt>
      <trkpt lat="42.79821602627635" lon="-3.38046002201736">
        <ele>547.61000000000001</ele>
        <time>2025-04-28T08:47:21Z</time>
      </trkpt>
      <trkpt lat="42.799188997596502" lon="-3.38303703814745">
        <ele>549.04999999999995</ele>
        <time>2025-04-28T08:47:32Z</time>
      </trkpt>
      <trkpt lat="42.800115030258894" lon="-3.385320017114282">
        <ele>550.00999999999999</ele>
        <time>2025-04-28T08:47:42Z</time>
      </trkpt>
      <trkpt lat="42.80060201883316" lon="-3.386085033416748">
        <ele>551.92999999999995</ele>
        <time>2025-04-28T08:47:47Z</time>
      </trkpt>
      <trkpt lat="42.800700003281236" lon="-3.386172959581018">
        <ele>552.40999999999997</ele>
        <time>2025-04-28T08:47:48Z</time>
      </trkpt>
      <trkpt lat="42.800896978005767" lon="-3.386304974555969">
        <ele>553.38</ele>
        <time>2025-04-28T08:47:50Z</time>
      </trkpt>
      <trkpt lat="42.801340967416763" lon="-3.386600017547607">
        <ele>555.29999999999995</ele>
        <time>2025-04-28T08:47:54Z</time>
      </trkpt>
      <trkpt lat="42.801436018198729" lon="-3.386695990338922">
        <ele>555.77999999999997</ele>
        <time>2025-04-28T08:47:55Z</time>
      </trkpt>
      <trkpt lat="42.801510030403733" lon="-3.38681903667748">
        <ele>556.25999999999999</ele>
        <time>2025-04-28T08:47:56Z</time>
      </trkpt>
      <trkpt lat="42.801555963233113" lon="-3.386958008632064">
        <ele>556.74000000000001</ele>
        <time>2025-04-28T08:47:57Z</time>
      </trkpt>
      <trkpt lat="42.80159099958837" lon="-3.387112990021706">
        <ele>557.22000000000003</ele>
        <time>2025-04-28T08:47:58Z</time>
      </trkpt>
      <trkpt lat="42.801627041772008" lon="-3.387267971411347">
        <ele>557.22000000000003</ele>
        <time>2025-04-28T08:47:59Z</time>
      </trkpt>
      <trkpt lat="42.801659982651472" lon="-3.38742496445775">
        <ele>557.70000000000005</ele>
        <time>2025-04-28T08:48:00Z</time>
      </trkpt>
      <trkpt lat="42.801944967359304" lon="-3.389134034514427">
        <ele>560.59000000000003</ele>
        <time>2025-04-28T08:48:11Z</time>
      </trkpt>
      <trkpt lat="42.801962988451123" lon="-3.389245010912418">
        <ele>560.59000000000003</ele>
        <time>2025-04-28T08:48:12Z</time>
      </trkpt>
      <trkpt lat="42.801981009542942" lon="-3.389349030330777">
        <ele>560.59000000000003</ele>
        <time>2025-04-28T08:48:13Z</time>
      </trkpt>
      <trkpt lat="42.801999030634761" lon="-3.389454977586865">
        <ele>560.59000000000003</ele>
        <time>2025-04-28T08:48:14Z</time>
      </trkpt>
      <trkpt lat="42.802074970677495" lon="-3.389894021674991">
        <ele>560.59000000000003</ele>
        <time>2025-04-28T08:48:18Z</time>
      </trkpt>
      <trkpt lat="42.802112018689513" lon="-3.390063000842929">
        <ele>560.11000000000001</ele>
        <time>2025-04-28T08:48:20Z</time>
      </trkpt>
      <trkpt lat="42.802125010639429" lon="-3.39010700583458">
        <ele>560.11000000000001</ele>
        <time>2025-04-28T08:48:21Z</time>
      </trkpt>
      <trkpt lat="42.802133979275823" lon="-3.390141036361456">
        <ele>560.11000000000001</ele>
        <time>2025-04-28T08:48:22Z</time>
      </trkpt>
      <trkpt lat="42.802143031731248" lon="-3.390352008864284">
        <ele>560.11000000000001</ele>
        <time>2025-04-28T08:48:28Z</time>
      </trkpt>
      <trkpt lat="42.802113024517894" lon="-3.390404982492328">
        <ele>560.11000000000001</ele>
        <time>2025-04-28T08:48:29Z</time>
      </trkpt>
      <trkpt lat="42.802088968455791" lon="-3.390470026060939">
        <ele>560.11000000000001</ele>
        <time>2025-04-28T08:48:30Z</time>
      </trkpt>
      <trkpt lat="42.802033983170986" lon="-3.390501961112022">
        <ele>560.11000000000001</ele>
        <time>2025-04-28T08:48:31Z</time>
      </trkpt>
      <trkpt lat="42.801972040906549" lon="-3.390556024387479">
        <ele>560.11000000000001</ele>
        <time>2025-04-28T08:48:32Z</time>
      </trkpt>
      <trkpt lat="42.801909008994699" lon="-3.390615032985807">
        <ele>560.11000000000001</ele>
        <time>2025-04-28T08:48:33Z</time>
      </trkpt>
      <trkpt lat="42.8016999643296" lon="-3.390807984396815">
        <ele>558.65999999999997</ele>
        <time>2025-04-28T08:48:36Z</time>
      </trkpt>
      <trkpt lat="42.801616983488202" lon="-3.390880990773439">
        <ele>556.74000000000001</ele>
        <time>2025-04-28T08:48:37Z</time>
      </trkpt>
      <trkpt lat="42.801167964935303" lon="-3.391212997958064">
        <ele>549.52999999999997</ele>
        <time>2025-04-28T08:48:42Z</time>
      </trkpt>
      <trkpt lat="42.8010109718889" lon="-3.391259014606476">
        <ele>547.61000000000001</ele>
        <time>2025-04-28T08:48:44Z</time>
      </trkpt>
      <trkpt lat="42.800923967733979" lon="-3.391281981021166">
        <ele>546.64999999999998</ele>
        <time>2025-04-28T08:48:45Z</time>
      </trkpt>
      <trkpt lat="42.800833024084568" lon="-3.391293967142701">
        <ele>546.16999999999996</ele>
        <time>2025-04-28T08:48:46Z</time>
      </trkpt>
      <trkpt lat="42.800639988854527" lon="-3.391320034861565">
        <ele>545.20000000000005</ele>
        <time>2025-04-28T08:48:48Z</time>
      </trkpt>
      <trkpt lat="42.800281997770071" lon="-3.391327997669578">
        <ele>544.24000000000001</ele>
        <time>2025-04-28T08:48:52Z</time>
      </trkpt>
      <trkpt lat="42.80021502636373" lon="-3.391276029869914">
        <ele>543.75999999999999</ele>
        <time>2025-04-28T08:48:53Z</time>
      </trkpt>
      <trkpt lat="42.800173033028841" lon="-3.391172010451555">
        <ele>543.27999999999997</ele>
        <time>2025-04-28T08:48:54Z</time>
      </trkpt>
      <trkpt lat="42.800134979188442" lon="-3.391057010740042">
        <ele>542.79999999999995</ele>
        <time>2025-04-28T08:48:55Z</time>
      </trkpt>
      <trkpt lat="42.800117963925004" lon="-3.390914015471935">
        <ele>542.32000000000005</ele>
        <time>2025-04-28T08:48:56Z</time>
      </trkpt>
      <trkpt lat="42.800059961155057" lon="-3.390356032177806">
        <ele>539.44000000000005</ele>
        <time>2025-04-28T08:49:00Z</time>
      </trkpt>
      <trkpt lat="42.800035988911986" lon="-3.390247989445925">
        <ele>538.96000000000004</ele>
        <time>2025-04-28T08:49:01Z</time>
      </trkpt>
      <trkpt lat="42.799941021949053" lon="-3.390197027474642">
        <ele>538.96000000000004</ele>
        <time>2025-04-28T08:49:02Z</time>
      </trkpt>
      <trkpt lat="42.799859968945384" lon="-3.390213958919048">
        <ele>537.99000000000001</ele>
        <time>2025-04-28T08:49:03Z</time>
      </trkpt>
      <trkpt lat="42.79978503473103" lon="-3.390268022194505">
        <ele>537.50999999999999</ele>
        <time>2025-04-28T08:49:04Z</time>
      </trkpt>
      <trkpt lat="42.799714040011168" lon="-3.390358965843916">
        <ele>537.02999999999997</ele>
        <time>2025-04-28T08:49:05Z</time>
      </trkpt>
      <trkpt lat="42.799644973129034" lon="-3.390484023839235">
        <ele>536.54999999999995</ele>
        <time>2025-04-28T08:49:06Z</time>
      </trkpt>
      <trkpt lat="42.79959300532937" lon="-3.390602041035891">
        <ele>536.07000000000005</ele>
        <time>2025-04-28T08:49:07Z</time>
      </trkpt>
      <trkpt lat="42.798995040357113" lon="-3.392034005373716">
        <ele>534.63</ele>
        <time>2025-04-28T08:49:17Z</time>
      </trkpt>
      <trkpt lat="42.798343012109399" lon="-3.393505029380322">
        <ele>531.75</ele>
        <time>2025-04-28T08:49:25Z</time>
      </trkpt>
      <trkpt lat="42.797469031065702" lon="-3.394686039537191">
        <ele>528.38</ele>
        <time>2025-04-28T08:49:32Z</time>
      </trkpt>
      <trkpt lat="42.795941010117531" lon="-3.396268961951137">
        <ele>532.23000000000002</ele>
        <time>2025-04-28T08:49:43Z</time>
      </trkpt>
      <trkpt lat="42.794711971655488" lon="-3.397565977647901">
        <ele>531.75</ele>
        <time>2025-04-28T08:49:51Z</time>
      </trkpt>
      <trkpt lat="42.794484989717603" lon="-3.397933021187782">
        <ele>531.26999999999998</ele>
        <time>2025-04-28T08:49:53Z</time>
      </trkpt>
      <trkpt lat="42.793873026967049" lon="-3.399587022140622">
        <ele>530.78999999999996</ele>
        <time>2025-04-28T08:50:00Z</time>
      </trkpt>
      <trkpt lat="42.793258968740702" lon="-3.402365958318114">
        <ele>534.63</ele>
        <time>2025-04-28T08:50:10Z</time>
      </trkpt>
      <trkpt lat="42.793228039517999" lon="-3.40265597216785">
        <ele>534.63</ele>
        <time>2025-04-28T08:50:11Z</time>
      </trkpt>
      <trkpt lat="42.793218987062573" lon="-3.402932994067669">
        <ele>535.11000000000001</ele>
        <time>2025-04-28T08:50:12Z</time>
      </trkpt>
      <trkpt lat="42.793325018137693" lon="-3.405209016054869">
        <ele>535.11000000000001</ele>
        <time>2025-04-28T08:50:20Z</time>
      </trkpt>
      <trkpt lat="42.793364999815822" lon="-3.406353984028101">
        <ele>526.46000000000004</ele>
        <time>2025-04-28T08:50:24Z</time>
      </trkpt>
      <trkpt lat="42.793343961238861" lon="-3.406624970957637">
        <ele>524.05999999999995</ele>
        <time>2025-04-28T08:50:25Z</time>
      </trkpt>
      <trkpt lat="42.793287970125675" lon="-3.406896963715553">
        <ele>521.64999999999998</ele>
        <time>2025-04-28T08:50:26Z</time>
      </trkpt>
      <trkpt lat="42.793088983744383" lon="-3.407658962532878">
        <ele>517.33000000000004</ele>
        <time>2025-04-28T08:50:29Z</time>
      </trkpt>
      <trkpt lat="42.792986975982785" lon="-3.407873036339879">
        <ele>516.37</ele>
        <time>2025-04-28T08:50:30Z</time>
      </trkpt>
      <trkpt lat="42.792863007634878" lon="-3.408044027164578">
        <ele>515.39999999999998</ele>
        <time>2025-04-28T08:50:31Z</time>
      </trkpt>
      <trkpt lat="42.792704002931714" lon="-3.408214012160897">
        <ele>514.44000000000005</ele>
        <time>2025-04-28T08:50:32Z</time>
      </trkpt>
      <trkpt lat="42.792534017935395" lon="-3.40834703296423">
        <ele>513.48000000000002</ele>
        <time>2025-04-28T08:50:33Z</time>
      </trkpt>
      <trkpt lat="42.792339976876974" lon="-3.408474018797278">
        <ele>512.51999999999998</ele>
        <time>2025-04-28T08:50:34Z</time>
      </trkpt>
      <trkpt lat="42.792143002152443" lon="-3.408577032387257">
        <ele>511.56</ele>
        <time>2025-04-28T08:50:35Z</time>
      </trkpt>
      <trkpt lat="42.791929012164474" lon="-3.408647021278739">
        <ele>511.07999999999998</ele>
        <time>2025-04-28T08:50:36Z</time>
      </trkpt>
      <trkpt lat="42.790903989225626" lon="-3.409006018191576">
        <ele>507.23000000000002</ele>
        <time>2025-04-28T08:50:41Z</time>
      </trkpt>
      <trkpt lat="42.790710031986237" lon="-3.409120012074709">
        <ele>506.26999999999998</ele>
        <time>2025-04-28T08:50:42Z</time>
      </trkpt>
      <trkpt lat="42.790519008412957" lon="-3.409260995686054">
        <ele>505.79000000000002</ele>
        <time>2025-04-28T08:50:43Z</time>
      </trkpt>
      <trkpt lat="42.790148025378585" lon="-3.409536005929112">
        <ele>504.82999999999998</ele>
        <time>2025-04-28T08:50:45Z</time>
      </trkpt>
      <trkpt lat="42.789790034294128" lon="-3.409801041707397">
        <ele>503.38999999999999</ele>
        <time>2025-04-28T08:50:47Z</time>
      </trkpt>
      <trkpt lat="42.789619965478778" lon="-3.409967003390193">
        <ele>502.91000000000003</ele>
        <time>2025-04-28T08:50:48Z</time>
      </trkpt>
      <trkpt lat="42.788758976384997" lon="-3.411164022982121">
        <ele>500.5</ele>
        <time>2025-04-28T08:50:54Z</time>
      </trkpt>
      <trkpt lat="42.788647999987006" lon="-3.411408020183444">
        <ele>500.5</ele>
        <time>2025-04-28T08:50:55Z</time>
      </trkpt>
      <trkpt lat="42.788138967007399" lon="-3.412550976499915">
        <ele>499.06</ele>
        <time>2025-04-28T08:51:00Z</time>
      </trkpt>
      <trkpt lat="42.788104014471173" lon="-3.412795979529619">
        <ele>498.57999999999998</ele>
        <time>2025-04-28T08:51:01Z</time>
      </trkpt>
      <trkpt lat="42.788068978115916" lon="-3.413042994216085">
        <ele>498.10000000000002</ele>
        <time>2025-04-28T08:51:02Z</time>
      </trkpt>
      <trkpt lat="42.788069983944297" lon="-3.41326997615397">
        <ele>497.62</ele>
        <time>2025-04-28T08:51:03Z</time>
      </trkpt>
      <trkpt lat="42.788090016692877" lon="-3.413515985012054">
        <ele>497.13999999999999</ele>
        <time>2025-04-28T08:51:04Z</time>
      </trkpt>
      <trkpt lat="42.788110971450806" lon="-3.413767023012042">
        <ele>496.18000000000001</ele>
        <time>2025-04-28T08:51:05Z</time>
      </trkpt>
      <trkpt lat="42.788129998371005" lon="-3.414002973586321">
        <ele>497.13999999999999</ele>
        <time>2025-04-28T08:51:06Z</time>
      </trkpt>
      <trkpt lat="42.788150031119585" lon="-3.414242025464773">
        <ele>498.10000000000002</ele>
        <time>2025-04-28T08:51:07Z</time>
      </trkpt>
      <trkpt lat="42.788149025291204" lon="-3.414518041536212">
        <ele>499.06</ele>
        <time>2025-04-28T08:51:08Z</time>
      </trkpt>
      <trkpt lat="42.788099991157651" lon="-3.414776958525181">
        <ele>499.06</ele>
        <time>2025-04-28T08:51:09Z</time>
      </trkpt>
      <trkpt lat="42.788051962852478" lon="-3.415026990696788">
        <ele>499.54000000000002</ele>
        <time>2025-04-28T08:51:10Z</time>
      </trkpt>
      <trkpt lat="42.787992032244802" lon="-3.41528800316155">
        <ele>500.5</ele>
        <time>2025-04-28T08:51:11Z</time>
      </trkpt>
      <trkpt lat="42.787607973441482" lon="-3.41621202416718">
        <ele>500.98000000000002</ele>
        <time>2025-04-28T08:51:15Z</time>
      </trkpt>
      <trkpt lat="42.786958962678909" lon="-3.417204022407532">
        <ele>501.94999999999999</ele>
        <time>2025-04-28T08:51:20Z</time>
      </trkpt>
      <trkpt lat="42.786814961582422" lon="-3.417374007403851">
        <ele>501.94999999999999</ele>
        <time>2025-04-28T08:51:21Z</time>
      </trkpt>
      <trkpt lat="42.786672972142696" lon="-3.417539969086647">
        <ele>501.94999999999999</ele>
        <time>2025-04-28T08:51:22Z</time>
      </trkpt>
      <trkpt lat="42.786526037380099" lon="-3.417711965739727">
        <ele>501.45999999999998</ele>
        <time>2025-04-28T08:51:23Z</time>
      </trkpt>
      <trkpt lat="42.786373989656568" lon="-3.417898965999484">
        <ele>501.94999999999999</ele>
        <time>2025-04-28T08:51:24Z</time>
      </trkpt>
      <trkpt lat="42.785482993349433" lon="-3.419361021369696">
        <ele>500.98000000000002</ele>
        <time>2025-04-28T08:51:31Z</time>
      </trkpt>
      <trkpt lat="42.785398000851274" lon="-3.419604012742639">
        <ele>500.5</ele>
        <time>2025-04-28T08:51:32Z</time>
      </trkpt>
      <trkpt lat="42.78508803807199" lon="-3.420625012367964">
        <ele>498.10000000000002</ele>
        <time>2025-04-28T08:51:36Z</time>
      </trkpt>
      <trkpt lat="42.785062976181507" lon="-3.420908991247416">
        <ele>497.13999999999999</ele>
        <time>2025-04-28T08:51:37Z</time>
      </trkpt>
      <trkpt lat="42.784799030050635" lon="-3.423705026507378">
        <ele>487.52999999999997</ele>
        <time>2025-04-28T08:51:47Z</time>
      </trkpt>
      <trkpt lat="42.784464005380869" lon="-3.42588197439909">
        <ele>482.24000000000001</ele>
        <time>2025-04-28T08:51:55Z</time>
      </trkpt>
      <trkpt lat="42.784385969862342" lon="-3.426129994913936">
        <ele>481.75999999999999</ele>
        <time>2025-04-28T08:51:56Z</time>
      </trkpt>
      <trkpt lat="42.784279016777873" lon="-3.426344990730286">
        <ele>481.75999999999999</ele>
        <time>2025-04-28T08:51:57Z</time>
      </trkpt>
      <trkpt lat="42.784160999581218" lon="-3.426554035395384">
        <ele>481.27999999999997</ele>
        <time>2025-04-28T08:51:58Z</time>
      </trkpt>
      <trkpt lat="42.784040970727801" lon="-3.426727959886193">
        <ele>481.27999999999997</ele>
        <time>2025-04-28T08:51:59Z</time>
      </trkpt>
      <trkpt lat="42.783880960196257" lon="-3.426881013438106">
        <ele>480.80000000000001</ele>
        <time>2025-04-28T08:52:00Z</time>
      </trkpt>
      <trkpt lat="42.783721033483744" lon="-3.427033983170986">
        <ele>480.80000000000001</ele>
        <time>2025-04-28T08:52:01Z</time>
      </trkpt>
      <trkpt lat="42.783570997416973" lon="-3.427164992317557">
        <ele>480.80000000000001</ele>
        <time>2025-04-28T08:52:02Z</time>
      </trkpt>
      <trkpt lat="42.783380979672074" lon="-3.427246967330575">
        <ele>480.80000000000001</ele>
        <time>2025-04-28T08:52:03Z</time>
      </trkpt>
      <trkpt lat="42.783192973583937" lon="-3.427327014505863">
        <ele>480.80000000000001</ele>
        <time>2025-04-28T08:52:04Z</time>
      </trkpt>
      <trkpt lat="42.78300697915256" lon="-3.42740697786212">
        <ele>480.80000000000001</ele>
        <time>2025-04-28T08:52:05Z</time>
      </trkpt>
      <trkpt lat="42.781642992049456" lon="-3.427934031933546">
        <ele>480.31999999999999</ele>
        <time>2025-04-28T08:52:12Z</time>
      </trkpt>
      <trkpt lat="42.780267018824816" lon="-3.428284982219338">
        <ele>478.87</ele>
        <time>2025-04-28T08:52:19Z</time>
      </trkpt>
      <trkpt lat="42.779677016660571" lon="-3.428488997742534">
        <ele>478.87</ele>
        <time>2025-04-28T08:52:22Z</time>
      </trkpt>
      <trkpt lat="42.779465960338712" lon="-3.42850198969245">
        <ele>478.87</ele>
        <time>2025-04-28T08:52:23Z</time>
      </trkpt>
      <trkpt lat="42.779265968129039" lon="-3.428478017449379">
        <ele>479.83999999999997</ele>
        <time>2025-04-28T08:52:24Z</time>
      </trkpt>
      <trkpt lat="42.779060024768114" lon="-3.428429989144206">
        <ele>480.31999999999999</ele>
        <time>2025-04-28T08:52:25Z</time>
      </trkpt>
      <trkpt lat="42.77885802090168" lon="-3.428322030231357">
        <ele>481.75999999999999</ele>
        <time>2025-04-28T08:52:26Z</time>
      </trkpt>
      <trkpt lat="42.778659034520388" lon="-3.428204013034701">
        <ele>482.24000000000001</ele>
        <time>2025-04-28T08:52:27Z</time>
      </trkpt>
      <trkpt lat="42.778455018997192" lon="-3.428081972524524">
        <ele>483.68000000000001</ele>
        <time>2025-04-28T08:52:28Z</time>
      </trkpt>
      <trkpt lat="42.778248991817236" lon="-3.427960015833378">
        <ele>484.16000000000003</ele>
        <time>2025-04-28T08:52:29Z</time>
      </trkpt>
      <trkpt lat="42.777207037433982" lon="-3.427631026133895">
        <ele>486.07999999999998</ele>
        <time>2025-04-28T08:52:34Z</time>
      </trkpt>
      <trkpt lat="42.775305015966296" lon="-3.427431033924222">
        <ele>489.44999999999999</ele>
        <time>2025-04-28T08:52:43Z</time>
      </trkpt>
      <trkpt lat="42.773922001942992" lon="-3.427970996126533">
        <ele>490.41000000000003</ele>
        <time>2025-04-28T08:52:50Z</time>
      </trkpt>
      <trkpt lat="42.773564010858536" lon="-3.428291017189622">
        <ele>491.37</ele>
        <time>2025-04-28T08:52:52Z</time>
      </trkpt>
      <trkpt lat="42.773405006155372" lon="-3.428481034934521">
        <ele>491.85000000000002</ele>
        <time>2025-04-28T08:52:53Z</time>
      </trkpt>
      <trkpt lat="42.772923968732357" lon="-3.429055027663708">
        <ele>495.22000000000003</ele>
        <time>2025-04-28T08:52:56Z</time>
      </trkpt>
      <trkpt lat="42.772762030363083" lon="-3.429209003224969">
        <ele>496.66000000000003</ele>
        <time>2025-04-28T08:52:57Z</time>
      </trkpt>
      <trkpt lat="42.772578969597816" lon="-3.429338000714779">
        <ele>497.62</ele>
        <time>2025-04-28T08:52:58Z</time>
      </trkpt>
      <trkpt lat="42.772399010136724" lon="-3.429465992376208">
        <ele>499.06</ele>
        <time>2025-04-28T08:52:59Z</time>
      </trkpt>
      <trkpt lat="42.772208992391825" lon="-3.429559031501412">
        <ele>500.5</ele>
        <time>2025-04-28T08:53:00Z</time>
      </trkpt>
      <trkpt lat="42.772006988525391" lon="-3.429633965715766">
        <ele>501.45999999999998</ele>
        <time>2025-04-28T08:53:01Z</time>
      </trkpt>
      <trkpt lat="42.770358016714454" lon="-3.429891038686037">
        <ele>509.16000000000003</ele>
        <time>2025-04-28T08:53:09Z</time>
      </trkpt>
      <trkpt lat="42.769345985725522" lon="-3.429968990385532">
        <ele>518.76999999999998</ele>
        <time>2025-04-28T08:53:14Z</time>
      </trkpt>
      <trkpt lat="42.769160997122526" lon="-3.430021964013577">
        <ele>520.21000000000004</ele>
        <time>2025-04-28T08:53:15Z</time>
      </trkpt>
      <trkpt lat="42.769012972712517" lon="-3.430129000917077">
        <ele>521.16999999999996</ele>
        <time>2025-04-28T08:53:16Z</time>
      </trkpt>
      <trkpt lat="42.768858997151256" lon="-3.430257998406887">
        <ele>521.64999999999998</ele>
        <time>2025-04-28T08:53:17Z</time>
      </trkpt>
      <trkpt lat="42.768714996054769" lon="-3.430395964533091">
        <ele>522.61000000000001</ele>
        <time>2025-04-28T08:53:18Z</time>
      </trkpt>
      <trkpt lat="42.768585998564959" lon="-3.430582964792848">
        <ele>523.09000000000003</ele>
        <time>2025-04-28T08:53:19Z</time>
      </trkpt>
      <trkpt lat="42.768497988581657" lon="-3.430795026943088">
        <ele>523.58000000000004</ele>
        <time>2025-04-28T08:53:20Z</time>
      </trkpt>
      <trkpt lat="42.768419031053782" lon="-3.431031983345747">
        <ele>524.53999999999996</ele>
        <time>2025-04-28T08:53:21Z</time>
      </trkpt>
      <trkpt lat="42.768359016627073" lon="-3.431285033002496">
        <ele>525.01999999999998</ele>
        <time>2025-04-28T08:53:22Z</time>
      </trkpt>
      <trkpt lat="42.768304031342268" lon="-3.431543027982116">
        <ele>525.98000000000002</ele>
        <time>2025-04-28T08:53:23Z</time>
      </trkpt>
      <trkpt lat="42.768064979463816" lon="-3.432582970708609">
        <ele>528.86000000000001</ele>
        <time>2025-04-28T08:53:27Z</time>
      </trkpt>
      <trkpt lat="42.767988033592701" lon="-3.432836020365357">
        <ele>529.82000000000005</ele>
        <time>2025-04-28T08:53:28Z</time>
      </trkpt>
      <trkpt lat="42.767851995304227" lon="-3.433055961504579">
        <ele>530.29999999999995</ele>
        <time>2025-04-28T08:53:29Z</time>
      </trkpt>
      <trkpt lat="42.767716962844133" lon="-3.433245979249477">
        <ele>529.82000000000005</ele>
        <time>2025-04-28T08:53:30Z</time>
      </trkpt>
      <trkpt lat="42.767586959525943" lon="-3.433416970074177">
        <ele>529.34000000000003</ele>
        <time>2025-04-28T08:53:31Z</time>
      </trkpt>
      <trkpt lat="42.767431978136301" lon="-3.433540016412735">
        <ele>528.86000000000001</ele>
        <time>2025-04-28T08:53:32Z</time>
      </trkpt>
      <trkpt lat="42.767275990918279" lon="-3.433630038052797">
        <ele>528.86000000000001</ele>
        <time>2025-04-28T08:53:33Z</time>
      </trkpt>
      <trkpt lat="42.767121009528637" lon="-3.433706983923912">
        <ele>528.38</ele>
        <time>2025-04-28T08:53:34Z</time>
      </trkpt>
      <trkpt lat="42.766966028138995" lon="-3.433769010007381">
        <ele>527.89999999999998</ele>
        <time>2025-04-28T08:53:35Z</time>
      </trkpt>
      <trkpt lat="42.766814986243844" lon="-3.433785019442439">
        <ele>527.41999999999996</ele>
        <time>2025-04-28T08:53:36Z</time>
      </trkpt>
      <trkpt lat="42.766643995419145" lon="-3.433755012229085">
        <ele>526.94000000000005</ele>
        <time>2025-04-28T08:53:37Z</time>
      </trkpt>
      <trkpt lat="42.766469987109303" lon="-3.43372299335897">
        <ele>526.94000000000005</ele>
        <time>2025-04-28T08:53:38Z</time>
      </trkpt>
      <trkpt lat="42.766295978799462" lon="-3.433670019730926">
        <ele>526.94000000000005</ele>
        <time>2025-04-28T08:53:39Z</time>
      </trkpt>
      <trkpt lat="42.766128005459905" lon="-3.433561976999044">
        <ele>526.94000000000005</ele>
        <time>2025-04-28T08:53:40Z</time>
      </trkpt>
      <trkpt lat="42.765953997150064" lon="-3.433458963409066">
        <ele>527.41999999999996</ele>
        <time>2025-04-28T08:53:41Z</time>
      </trkpt>
      <trkpt lat="42.7657759655267" lon="-3.433362990617752">
        <ele>527.89999999999998</ele>
        <time>2025-04-28T08:53:42Z</time>
      </trkpt>
      <trkpt lat="42.765587959438562" lon="-3.433326026424766">
        <ele>527.89999999999998</ele>
        <time>2025-04-28T08:53:43Z</time>
      </trkpt>
      <trkpt lat="42.765390984714031" lon="-3.43329400755465">
        <ele>528.86000000000001</ele>
        <time>2025-04-28T08:53:44Z</time>
      </trkpt>
      <trkpt lat="42.765190992504358" lon="-3.43333700671792">
        <ele>528.38</ele>
        <time>2025-04-28T08:53:45Z</time>
      </trkpt>
      <trkpt lat="42.764993011951447" lon="-3.433381011709571">
        <ele>528.86000000000001</ele>
        <time>2025-04-28T08:53:46Z</time>
      </trkpt>
      <trkpt lat="42.764797965064645" lon="-3.43342300504446">
        <ele>530.78999999999996</ele>
        <time>2025-04-28T08:53:47Z</time>
      </trkpt>
      <trkpt lat="42.764466963708401" lon="-3.43359399586916">
        <ele>534.63</ele>
        <time>2025-04-28T08:53:49Z</time>
      </trkpt>
      <trkpt lat="42.764304019510746" lon="-3.433694997802377">
        <ele>536.54999999999995</ele>
        <time>2025-04-28T08:53:50Z</time>
      </trkpt>
      <trkpt lat="42.764179967343807" lon="-3.433838998898864">
        <ele>537.50999999999999</ele>
        <time>2025-04-28T08:53:51Z</time>
      </trkpt>
      <trkpt lat="42.764060022309422" lon="-3.434016024693847">
        <ele>538.96000000000004</ele>
        <time>2025-04-28T08:53:52Z</time>
      </trkpt>
      <trkpt lat="42.763958014547825" lon="-3.434193972498179">
        <ele>540.88</ele>
        <time>2025-04-28T08:53:53Z</time>
      </trkpt>
      <trkpt lat="42.763877967372537" lon="-3.434407962486148">
        <ele>542.79999999999995</ele>
        <time>2025-04-28T08:53:54Z</time>
      </trkpt>
      <trkpt lat="42.763789035379887" lon="-3.434643996879458">
        <ele>544.24000000000001</ele>
        <time>2025-04-28T08:53:55Z</time>
      </trkpt>
      <trkpt lat="42.763741007074714" lon="-3.434870978817344">
        <ele>545.69000000000005</ele>
        <time>2025-04-28T08:53:56Z</time>
      </trkpt>
      <trkpt lat="42.763724997639656" lon="-3.43512000516057">
        <ele>547.61000000000001</ele>
        <time>2025-04-28T08:53:57Z</time>
      </trkpt>
      <trkpt lat="42.763724997639656" lon="-3.43537800014019">
        <ele>549.04999999999995</ele>
        <time>2025-04-28T08:53:58Z</time>
      </trkpt>
      <trkpt lat="42.763763973489404" lon="-3.435619985684753">
        <ele>550.97000000000003</ele>
        <time>2025-04-28T08:53:59Z</time>
      </trkpt>
      <trkpt lat="42.763813007622957" lon="-3.435868006199598">
        <ele>552.89999999999998</ele>
        <time>2025-04-28T08:54:00Z</time>
      </trkpt>
      <trkpt lat="42.763862041756511" lon="-3.436120972037315">
        <ele>554.34000000000003</ele>
        <time>2025-04-28T08:54:01Z</time>
      </trkpt>
      <trkpt lat="42.76431399397552" lon="-3.438157020136714">
        <ele>571.15999999999997</ele>
        <time>2025-04-28T08:54:10Z</time>
      </trkpt>
      <trkpt lat="42.764667039737105" lon="-3.439106019213796">
        <ele>580.28999999999996</ele>
        <time>2025-04-28T08:54:17Z</time>
      </trkpt>
      <trkpt lat="42.764707021415234" lon="-3.439209032803774">
        <ele>581.25</ele>
        <time>2025-04-28T08:54:18Z</time>
      </trkpt>
      <trkpt lat="42.764733005315065" lon="-3.439313974231482">
        <ele>582.22000000000003</ele>
        <time>2025-04-28T08:54:19Z</time>
      </trkpt>
      <trkpt lat="42.764733005315065" lon="-3.439450012519956">
        <ele>582.70000000000005</ele>
        <time>2025-04-28T08:54:20Z</time>
      </trkpt>
      <trkpt lat="42.764713978394866" lon="-3.439479013904929">
        <ele>583.65999999999997</ele>
        <time>2025-04-28T08:54:21Z</time>
      </trkpt>
      <trkpt lat="42.764695035293698" lon="-3.439506003633142">
        <ele>584.62</ele>
        <time>2025-04-28T08:54:22Z</time>
      </trkpt>
      <trkpt lat="42.764682965353131" lon="-3.439522013068199">
        <ele>585.10000000000002</ele>
        <time>2025-04-28T08:54:23Z</time>
      </trkpt>
      <trkpt lat="42.764682965353131" lon="-3.439522013068199">
        <ele>585.58000000000004</ele>
        <time>2025-04-28T08:54:24Z</time>
      </trkpt>
      <trkpt lat="42.764664022251964" lon="-3.439550008624792">
        <ele>586.53999999999996</ele>
        <time>2025-04-28T08:54:25Z</time>
      </trkpt>
      <trkpt lat="42.764648012816906" lon="-3.439573980867863">
        <ele>587.01999999999998</ele>
        <time>2025-04-28T08:54:26Z</time>
      </trkpt>
      <trkpt lat="42.764625968411565" lon="-3.439605999737978">
        <ele>587.5</ele>
        <time>2025-04-28T08:54:27Z</time>
      </trkpt>
      <trkpt lat="42.764604007825255" lon="-3.439637012779713">
        <ele>587.98000000000002</ele>
        <time>2025-04-28T08:54:28Z</time>
      </trkpt>
      <trkpt lat="42.764496970921755" lon="-3.439643969759345">
        <ele>588.46000000000004</ele>
        <time>2025-04-28T08:54:29Z</time>
      </trkpt>
      <trkpt lat="42.764459000900388" lon="-3.43956702388823">
        <ele>588.95000000000005</ele>
        <time>2025-04-28T08:54:30Z</time>
      </trkpt>
      <trkpt lat="42.764406027272344" lon="-3.43945998698473">
        <ele>588.95000000000005</ele>
        <time>2025-04-28T08:54:31Z</time>
      </trkpt>
      <trkpt lat="42.764345007017255" lon="-3.439338030293584">
        <ele>589.42999999999995</ele>
        <time>2025-04-28T08:54:32Z</time>
      </trkpt>
      <trkpt lat="42.764288010075688" lon="-3.439196040853858">
        <ele>589.90999999999997</ele>
        <time>2025-04-28T08:54:33Z</time>
      </trkpt>
      <trkpt lat="42.76371099986136" lon="-3.437703978270292">
        <ele>592.78999999999996</ele>
        <time>2025-04-28T08:54:41Z</time>
      </trkpt>
      <trkpt lat="42.762755965813994" lon="-3.435821989551187">
        <ele>596.63999999999999</ele>
        <time>2025-04-28T08:54:50Z</time>
      </trkpt>
      <trkpt lat="42.762033026665449" lon="-3.434163965284824">
        <ele>601.91999999999996</ele>
        <time>2025-04-28T08:54:57Z</time>
      </trkpt>
      <trkpt lat="42.761959014460444" lon="-3.433899013325572">
        <ele>602.88</ele>
        <time>2025-04-28T08:54:58Z</time>
      </trkpt>
      <trkpt lat="42.761417040601373" lon="-3.431357033550739">
        <ele>612.01999999999998</ele>
        <time>2025-04-28T08:55:07Z</time>
      </trkpt>
      <trkpt lat="42.760946983471513" lon="-3.42976899817586">
        <ele>617.29999999999995</ele>
        <time>2025-04-28T08:55:13Z</time>
      </trkpt>
      <trkpt lat="42.760848999023438" lon="-3.429540004581213">
        <ele>617.77999999999997</ele>
        <time>2025-04-28T08:55:14Z</time>
      </trkpt>
      <trkpt lat="42.760699968785048" lon="-3.429363984614611">
        <ele>618.75</ele>
        <time>2025-04-28T08:55:15Z</time>
      </trkpt>
      <trkpt lat="42.760529983788729" lon="-3.42919098213315">
        <ele>619.23000000000002</ele>
        <time>2025-04-28T08:55:16Z</time>
      </trkpt>
      <trkpt lat="42.760355975478888" lon="-3.429012028500438">
        <ele>619.23000000000002</ele>
        <time>2025-04-28T08:55:17Z</time>
      </trkpt>
      <trkpt lat="42.759678969159722" lon="-3.428261009976268">
        <ele>618.75</ele>
        <time>2025-04-28T08:55:21Z</time>
      </trkpt>
      <trkpt lat="42.759544020518661" lon="-3.428054982796311">
        <ele>618.25999999999999</ele>
        <time>2025-04-28T08:55:22Z</time>
      </trkpt>
      <trkpt lat="42.759416028857231" lon="-3.427860019728541">
        <ele>617.77999999999997</ele>
        <time>2025-04-28T08:55:23Z</time>
      </trkpt>
      <trkpt lat="42.759278984740376" lon="-3.427725993096829">
        <ele>617.29999999999995</ele>
        <time>2025-04-28T08:55:24Z</time>
      </trkpt>
      <trkpt lat="42.759120985865593" lon="-3.427656004205346">
        <ele>617.29999999999995</ele>
        <time>2025-04-28T08:55:25Z</time>
      </trkpt>
      <trkpt lat="42.758956030011177" lon="-3.427584003657103">
        <ele>616.82000000000005</ele>
        <time>2025-04-28T08:55:26Z</time>
      </trkpt>
      <trkpt lat="42.758811023086309" lon="-3.427519965916872">
        <ele>616.34000000000003</ele>
        <time>2025-04-28T08:55:27Z</time>
      </trkpt>
      <trkpt lat="42.758633997291327" lon="-3.427387028932571">
        <ele>615.86000000000001</ele>
        <time>2025-04-28T08:55:28Z</time>
      </trkpt>
      <trkpt lat="42.758480021730065" lon="-3.427216960117221">
        <ele>615.38</ele>
        <time>2025-04-28T08:55:29Z</time>
      </trkpt>
      <trkpt lat="42.758338032290339" lon="-3.427003975957632">
        <ele>614.89999999999998</ele>
        <time>2025-04-28T08:55:30Z</time>
      </trkpt>
      <trkpt lat="42.758193025365472" lon="-3.426772970706224">
        <ele>613.94000000000005</ele>
        <time>2025-04-28T08:55:31Z</time>
      </trkpt>
      <trkpt lat="42.758051035925746" lon="-3.426529979333282">
        <ele>613.46000000000004</ele>
        <time>2025-04-28T08:55:32Z</time>
      </trkpt>
      <trkpt lat="42.757174959406257" lon="-3.425092985853553">
        <ele>607.21000000000004</ele>
        <time>2025-04-28T08:55:38Z</time>
      </trkpt>
      <trkpt lat="42.756082965061069" lon="-3.423071019351482">
        <ele>597.60000000000002</ele>
        <time>2025-04-28T08:55:46Z</time>
      </trkpt>
      <trkpt lat="42.755522970110178" lon="-3.421186013147235">
        <ele>589.90999999999997</ele>
        <time>2025-04-28T08:55:53Z</time>
      </trkpt>
      <trkpt lat="42.75533496402204" lon="-3.419787995517254">
        <ele>586.05999999999995</ele>
        <time>2025-04-28T08:55:58Z</time>
      </trkpt>
      <trkpt lat="42.755146035924554" lon="-3.41780299320817">
        <ele>582.22000000000003</ele>
        <time>2025-04-28T08:56:05Z</time>
      </trkpt>
      <trkpt lat="42.755079986527562" lon="-3.417526977136731">
        <ele>581.73000000000002</ele>
        <time>2025-04-28T08:56:06Z</time>
      </trkpt>
      <trkpt lat="42.754931962117553" lon="-3.416981985792518">
        <ele>580.76999999999998</ele>
        <time>2025-04-28T08:56:08Z</time>
      </trkpt>
      <trkpt lat="42.754819979891181" lon="-3.416727008298039">
        <ele>580.28999999999996</ele>
        <time>2025-04-28T08:56:09Z</time>
      </trkpt>
      <trkpt lat="42.754669021815062" lon="-3.416503965854645">
        <ele>580.28999999999996</ele>
        <time>2025-04-28T08:56:10Z</time>
      </trkpt>
      <trkpt lat="42.753723962232471" lon="-3.415254978463054">
        <ele>577.40999999999997</ele>
        <time>2025-04-28T08:56:16Z</time>
      </trkpt>
      <trkpt lat="42.753561018034816" lon="-3.415047023445368">
        <ele>576.45000000000005</ele>
        <time>2025-04-28T08:56:17Z</time>
      </trkpt>
      <trkpt lat="42.752184960991144" lon="-3.413534006103873">
        <ele>568.75999999999999</ele>
        <time>2025-04-28T08:56:25Z</time>
      </trkpt>
      <trkpt lat="42.751043010503054" lon="-3.412329023703933">
        <ele>564.42999999999995</ele>
        <time>2025-04-28T08:56:32Z</time>
      </trkpt>
      <trkpt lat="42.750921975821257" lon="-3.412116039544344">
        <ele>564.42999999999995</ele>
        <time>2025-04-28T08:56:33Z</time>
      </trkpt>
      <trkpt lat="42.750806976109743" lon="-3.411912024021149">
        <ele>563.95000000000005</ele>
        <time>2025-04-28T08:56:34Z</time>
      </trkpt>
      <trkpt lat="42.750485027208924" lon="-3.411353034898639">
        <ele>563.47000000000003</ele>
        <time>2025-04-28T08:56:37Z</time>
      </trkpt>
      <trkpt lat="42.750373966991901" lon="-3.411164022982121">
        <ele>563.47000000000003</ele>
        <time>2025-04-28T08:56:38Z</time>
      </trkpt>
      <trkpt lat="42.750229965895414" lon="-3.410994037985802">
        <ele>562.99000000000001</ele>
        <time>2025-04-28T08:56:39Z</time>
      </trkpt>
      <trkpt lat="42.750072972849011" lon="-3.410825980827212">
        <ele>562.99000000000001</ele>
        <time>2025-04-28T08:56:40Z</time>
      </trkpt>
      <trkpt lat="42.749906005337834" lon="-3.41066999360919">
        <ele>562.99000000000001</ele>
        <time>2025-04-28T08:56:41Z</time>
      </trkpt>
      <trkpt lat="42.7497230283916" lon="-3.410559017211199">
        <ele>562.99000000000001</ele>
        <time>2025-04-28T08:56:42Z</time>
      </trkpt>
      <trkpt lat="42.749184994027019" lon="-3.41041199862957">
        <ele>562.50999999999999</ele>
        <time>2025-04-28T08:56:45Z</time>
      </trkpt>
      <trkpt lat="42.748211016878486" lon="-3.410139000043273">
        <ele>561.07000000000005</ele>
        <time>2025-04-28T08:56:50Z</time>
      </trkpt>
      <trkpt lat="42.748087970539927" lon="-3.410069011151791">
        <ele>561.07000000000005</ele>
        <time>2025-04-28T08:56:51Z</time>
      </trkpt>
      <trkpt lat="42.747925026342273" lon="-3.409975972026587">
        <ele>560.59000000000003</ele>
        <time>2025-04-28T08:56:52Z</time>
      </trkpt>
      <trkpt lat="42.747527975589037" lon="-3.409553021192551">
        <ele>560.59000000000003</ele>
        <time>2025-04-28T08:56:55Z</time>
      </trkpt>
      <trkpt lat="42.74738498032093" lon="-3.409366020932794">
        <ele>560.59000000000003</ele>
        <time>2025-04-28T08:56:56Z</time>
      </trkpt>
      <trkpt lat="42.746687019243836" lon="-3.408459015190601">
        <ele>560.11000000000001</ele>
        <time>2025-04-28T08:57:01Z</time>
      </trkpt>
      <trkpt lat="42.746530026197433" lon="-3.408323982730508">
        <ele>560.11000000000001</ele>
        <time>2025-04-28T08:57:02Z</time>
      </trkpt>
      <trkpt lat="42.746371021494269" lon="-3.408188028261066">
        <ele>560.11000000000001</ele>
        <time>2025-04-28T08:57:03Z</time>
      </trkpt>
      <trkpt lat="42.746189972385764" lon="-3.408106975257397">
        <ele>560.11000000000001</ele>
        <time>2025-04-28T08:57:04Z</time>
      </trkpt>
      <trkpt lat="42.746001966297626" lon="-3.408034974709153">
        <ele>560.11000000000001</ele>
        <time>2025-04-28T08:57:05Z</time>
      </trkpt>
      <trkpt lat="42.745811026543379" lon="-3.40796297416091">
        <ele>560.59000000000003</ele>
        <time>2025-04-28T08:57:06Z</time>
      </trkpt>
      <trkpt lat="42.745451023802161" lon="-3.407871024683118">
        <ele>560.59000000000003</ele>
        <time>2025-04-28T08:57:08Z</time>
      </trkpt>
      <trkpt lat="42.745261006057262" lon="-3.407830959185958">
        <ele>560.59000000000003</ele>
        <time>2025-04-28T08:57:09Z</time>
      </trkpt>
      <trkpt lat="42.744626998901367" lon="-3.407864989712834">
        <ele>561.07000000000005</ele>
        <time>2025-04-28T08:57:13Z</time>
      </trkpt>
      <trkpt lat="42.743758969008923" lon="-3.408301016315818">
        <ele>563.95000000000005</ele>
        <time>2025-04-28T08:57:17Z</time>
      </trkpt>
      <trkpt lat="42.742407973855734" lon="-3.409378007054329">
        <ele>563.47000000000003</ele>
        <time>2025-04-28T08:57:25Z</time>
      </trkpt>
      <trkpt lat="42.742214016616344" lon="-3.409436009824276">
        <ele>563.47000000000003</ele>
        <time>2025-04-28T08:57:26Z</time>
      </trkpt>
      <trkpt lat="42.742022993043065" lon="-3.409493006765842">
        <ele>563.47000000000003</ele>
        <time>2025-04-28T08:57:27Z</time>
      </trkpt>
      <trkpt lat="42.74181998334825" lon="-3.40950801037252">
        <ele>562.99000000000001</ele>
        <time>2025-04-28T08:57:28Z</time>
      </trkpt>
      <trkpt lat="42.741632983088493" lon="-3.409493006765842">
        <ele>562.50999999999999</ele>
        <time>2025-04-28T08:57:29Z</time>
      </trkpt>
      <trkpt lat="42.74145201779902" lon="-3.409453025087714">
        <ele>562.50999999999999</ele>
        <time>2025-04-28T08:57:30Z</time>
      </trkpt>
      <trkpt lat="42.741070976480842" lon="-3.409369038417935">
        <ele>562.50999999999999</ele>
        <time>2025-04-28T08:57:32Z</time>
      </trkpt>
      <trkpt lat="42.740667974576354" lon="-3.409281028434634">
        <ele>562.50999999999999</ele>
        <time>2025-04-28T08:57:34Z</time>
      </trkpt>
      <trkpt lat="42.740277964621782" lon="-3.409258984029293">
        <ele>562.50999999999999</ele>
        <time>2025-04-28T08:57:36Z</time>
      </trkpt>
      <trkpt lat="42.740077972412109" lon="-3.409264013171196">
        <ele>562.50999999999999</ele>
        <time>2025-04-28T08:57:37Z</time>
      </trkpt>
      <trkpt lat="42.73988401517272" lon="-3.409308018162847">
        <ele>562.50999999999999</ele>
        <time>2025-04-28T08:57:38Z</time>
      </trkpt>
      <trkpt lat="42.739139031618834" lon="-3.409528965130448">
        <ele>562.50999999999999</ele>
        <time>2025-04-28T08:57:42Z</time>
      </trkpt>
      <trkpt lat="42.738963011652231" lon="-3.409596020355821">
        <ele>562.02999999999997</ele>
        <time>2025-04-28T08:57:43Z</time>
      </trkpt>
      <trkpt lat="42.738463031128049" lon="-3.409815039485693">
        <ele>562.02999999999997</ele>
        <time>2025-04-28T08:57:46Z</time>
      </trkpt>
      <trkpt lat="42.73833797313273" lon="-3.409901959821582">
        <ele>562.02999999999997</ele>
        <time>2025-04-28T08:57:47Z</time>
      </trkpt>
      <trkpt lat="42.738211993128061" lon="-3.409988963976502">
        <ele>561.54999999999995</ele>
        <time>2025-04-28T08:57:48Z</time>
      </trkpt>
      <trkpt lat="42.738129012286663" lon="-3.410059036687017">
        <ele>561.07000000000005</ele>
        <time>2025-04-28T08:57:49Z</time>
      </trkpt>
      <trkpt lat="42.738039996474981" lon="-3.41013397090137">
        <ele>561.07000000000005</ele>
        <time>2025-04-28T08:57:50Z</time>
      </trkpt>
      <trkpt lat="42.73745502345264" lon="-3.410855988040566">
        <ele>562.50999999999999</ele>
        <time>2025-04-28T08:57:57Z</time>
      </trkpt>
      <trkpt lat="42.737397020682693" lon="-3.410933017730713">
        <ele>562.99000000000001</ele>
        <time>2025-04-28T08:57:58Z</time>
      </trkpt>
      <trkpt lat="42.737141037359834" lon="-3.411187995225191">
        <ele>565.87</ele>
        <time>2025-04-28T08:58:02Z</time>
      </trkpt>
      <trkpt lat="42.737081022933125" lon="-3.411248009651899">
        <ele>566.35000000000002</ele>
        <time>2025-04-28T08:58:03Z</time>
      </trkpt>
      <trkpt lat="42.736796038225293" lon="-3.411419000476599">
        <ele>567.32000000000005</ele>
        <time>2025-04-28T08:58:07Z</time>
      </trkpt>
      <trkpt lat="42.73672403767705" lon="-3.411467028781772">
        <ele>566.83000000000004</ele>
        <time>2025-04-28T08:58:08Z</time>
      </trkpt>
      <trkpt lat="42.736063962802291" lon="-3.411900037899613">
        <ele>567.79999999999995</ele>
        <time>2025-04-28T08:58:17Z</time>
      </trkpt>
      <trkpt lat="42.735992968082428" lon="-3.411953011527658">
        <ele>568.27999999999997</ele>
        <time>2025-04-28T08:58:18Z</time>
      </trkpt>
      <trkpt lat="42.73586698807776" lon="-3.412098018452525">
        <ele>569.72000000000003</ele>
        <time>2025-04-28T08:58:20Z</time>
      </trkpt>
      <trkpt lat="42.735804039984941" lon="-3.412177981808782">
        <ele>570.67999999999995</ele>
        <time>2025-04-28T08:58:21Z</time>
      </trkpt>
      <trkpt lat="42.735701026394963" lon="-3.412305973470211">
        <ele>571.15999999999997</ele>
        <time>2025-04-28T08:58:22Z</time>
      </trkpt>
      <trkpt lat="42.735416041687131" lon="-3.412909973412752">
        <ele>572.12</ele>
        <time>2025-04-28T08:58:28Z</time>
      </trkpt>
      <trkpt lat="42.735362984240055" lon="-3.413026984781027">
        <ele>572.12</ele>
        <time>2025-04-28T08:58:29Z</time>
      </trkpt>
      <trkpt lat="42.735312022268772" lon="-3.413139972835779">
        <ele>572.12</ele>
        <time>2025-04-28T08:58:30Z</time>
      </trkpt>
      <trkpt lat="42.735213031992316" lon="-3.413502993062139">
        <ele>573.08000000000004</ele>
        <time>2025-04-28T08:58:33Z</time>
      </trkpt>
      <trkpt lat="42.735181013122201" lon="-3.413616986945272">
        <ele>573.55999999999995</ele>
        <time>2025-04-28T08:58:34Z</time>
      </trkpt>
      <trkpt lat="42.735148994252086" lon="-3.413732992485166">
        <ele>574.03999999999996</ele>
        <time>2025-04-28T08:58:35Z</time>
      </trkpt>
      <trkpt lat="42.735086968168616" lon="-3.41395896859467">
        <ele>575.00999999999999</ele>
        <time>2025-04-28T08:58:37Z</time>
      </trkpt>
      <trkpt lat="42.735013039782643" lon="-3.414179999381304">
        <ele>575.97000000000003</ele>
        <time>2025-04-28T08:58:39Z</time>
      </trkpt>
      <trkpt lat="42.734832996502519" lon="-3.414607979357243">
        <ele>578.37</ele>
        <time>2025-04-28T08:58:43Z</time>
      </trkpt>
      <trkpt lat="42.734783962368965" lon="-3.414711998775601">
        <ele>578.85000000000002</ele>
        <time>2025-04-28T08:58:44Z</time>
      </trkpt>
      <trkpt lat="42.734735012054443" lon="-3.41481501236558">
        <ele>579.33000000000004</ele>
        <time>2025-04-28T08:58:45Z</time>
      </trkpt>
      <trkpt lat="42.734688995406032" lon="-3.414931017905474">
        <ele>579.80999999999995</ele>
        <time>2025-04-28T08:58:46Z</time>
      </trkpt>
      <trkpt lat="42.734649013727903" lon="-3.415048029273748">
        <ele>579.33000000000004</ele>
        <time>2025-04-28T08:58:47Z</time>
      </trkpt>
      <trkpt lat="42.734610037878156" lon="-3.41516001150012">
        <ele>579.33000000000004</ele>
        <time>2025-04-28T08:58:48Z</time>
      </trkpt>
      <trkpt lat="42.734571984037757" lon="-3.415271993726492">
        <ele>579.33000000000004</ele>
        <time>2025-04-28T08:58:49Z</time>
      </trkpt>
      <trkpt lat="42.734530996531248" lon="-3.415389005094767">
        <ele>579.33000000000004</ele>
        <time>2025-04-28T08:58:50Z</time>
      </trkpt>
      <trkpt lat="42.73449101485312" lon="-3.415505010634661">
        <ele>579.33000000000004</ele>
        <time>2025-04-28T08:58:51Z</time>
      </trkpt>
      <trkpt lat="42.734452039003372" lon="-3.415617998689413">
        <ele>579.33000000000004</ele>
        <time>2025-04-28T08:58:52Z</time>
      </trkpt>
      <trkpt lat="42.734412979334593" lon="-3.415731992572546">
        <ele>579.33000000000004</ele>
        <time>2025-04-28T08:58:53Z</time>
      </trkpt>
      <trkpt lat="42.734332010149956" lon="-3.415967021137476">
        <ele>579.33000000000004</ele>
        <time>2025-04-28T08:58:55Z</time>
      </trkpt>
      <trkpt lat="42.734291022643447" lon="-3.416087972000241">
        <ele>579.33000000000004</ele>
        <time>2025-04-28T08:58:56Z</time>
      </trkpt>
      <trkpt lat="42.733777966350317" lon="-3.417562013491988">
        <ele>582.70000000000005</ele>
        <time>2025-04-28T08:59:08Z</time>
      </trkpt>
      <trkpt lat="42.733770003542304" lon="-3.41769402846694">
        <ele>582.70000000000005</ele>
        <time>2025-04-28T08:59:09Z</time>
      </trkpt>
      <trkpt lat="42.733830017969012" lon="-3.418826004490256">
        <ele>584.62</ele>
        <time>2025-04-28T08:59:17Z</time>
      </trkpt>
      <trkpt lat="42.734189014881849" lon="-3.420078009366989">
        <ele>583.17999999999995</ele>
        <time>2025-04-28T08:59:27Z</time>
      </trkpt>
      <trkpt lat="42.734365034848452" lon="-3.421171009540558">
        <ele>582.70000000000005</ele>
        <time>2025-04-28T08:59:36Z</time>
      </trkpt>
      <trkpt lat="42.734423959627748" lon="-3.42158398590982">
        <ele>582.22000000000003</ele>
        <time>2025-04-28T08:59:39Z</time>
      </trkpt>
      <trkpt lat="42.734454972669482" lon="-3.421725975349546">
        <ele>582.22000000000003</ele>
        <time>2025-04-28T08:59:40Z</time>
      </trkpt>
      <trkpt lat="42.734538037329912" lon="-3.42201397754252">
        <ele>582.22000000000003</ele>
        <time>2025-04-28T08:59:42Z</time>
      </trkpt>
      <trkpt lat="42.734597967937589" lon="-3.422152027487755">
        <ele>582.70000000000005</ele>
        <time>2025-04-28T08:59:43Z</time>
      </trkpt>
      <trkpt lat="42.735131978988647" lon="-3.423708966001868">
        <ele>588.95000000000005</ele>
        <time>2025-04-28T08:59:52Z</time>
      </trkpt>
      <trkpt lat="42.735165003687143" lon="-3.423957992345095">
        <ele>589.90999999999997</ele>
        <time>2025-04-28T08:59:53Z</time>
      </trkpt>
      <trkpt lat="42.735172966495156" lon="-3.424199977889657">
        <ele>590.87</ele>
        <time>2025-04-28T08:59:54Z</time>
      </trkpt>
      <trkpt lat="42.735183024778962" lon="-3.424461996182799">
        <ele>591.83000000000004</ele>
        <time>2025-04-28T08:59:55Z</time>
      </trkpt>
      <trkpt lat="42.735171038657427" lon="-3.424734994769096">
        <ele>592.30999999999995</ele>
        <time>2025-04-28T08:59:56Z</time>
      </trkpt>
      <trkpt lat="42.735146982595325" lon="-3.425015034154058">
        <ele>592.78999999999996</ele>
        <time>2025-04-28T08:59:57Z</time>
      </trkpt>
      <trkpt lat="42.734869038686156" lon="-3.427806962281466">
        <ele>593.26999999999998</ele>
        <time>2025-04-28T09:00:06Z</time>
      </trkpt>
      <trkpt lat="42.735036006197333" lon="-3.429644023999572">
        <ele>594.23000000000002</ele>
        <time>2025-04-28T09:00:12Z</time>
      </trkpt>
      <trkpt lat="42.735444037243724" lon="-3.431609999388456">
        <ele>593.75</ele>
        <time>2025-04-28T09:00:19Z</time>
      </trkpt>
      <trkpt lat="42.735441019758582" lon="-3.431905964389443">
        <ele>593.26999999999998</ele>
        <time>2025-04-28T09:00:20Z</time>
      </trkpt>
      <trkpt lat="42.735416041687131" lon="-3.432202013209462">
        <ele>592.78999999999996</ele>
        <time>2025-04-28T09:00:21Z</time>
      </trkpt>
      <trkpt lat="42.735377987846732" lon="-3.432494038715959">
        <ele>592.30999999999995</ele>
        <time>2025-04-28T09:00:22Z</time>
      </trkpt>
      <trkpt lat="42.735313028097153" lon="-3.432783968746662">
        <ele>592.30999999999995</ele>
        <time>2025-04-28T09:00:23Z</time>
      </trkpt>
      <trkpt lat="42.735237004235387" lon="-3.433065013960004">
        <ele>591.83000000000004</ele>
        <time>2025-04-28T09:00:24Z</time>
      </trkpt>
      <trkpt lat="42.73513600230217" lon="-3.433340024203062">
        <ele>591.35000000000002</ele>
        <time>2025-04-28T09:00:25Z</time>
      </trkpt>
      <trkpt lat="42.735016979277134" lon="-3.433601958677173">
        <ele>590.87</ele>
        <time>2025-04-28T09:00:26Z</time>
      </trkpt>
      <trkpt lat="42.734871972352266" lon="-3.433834975585342">
        <ele>590.87</ele>
        <time>2025-04-28T09:00:27Z</time>
      </trkpt>
      <trkpt lat="42.734711039811373" lon="-3.434053994715214">
        <ele>590.87</ele>
        <time>2025-04-28T09:00:28Z</time>
      </trkpt>
      <trkpt lat="42.734549017623067" lon="-3.434274019673467">
        <ele>590.87</ele>
        <time>2025-04-28T09:00:29Z</time>
      </trkpt>
      <trkpt lat="42.734388001263142" lon="-3.434487003833056">
        <ele>590.87</ele>
        <time>2025-04-28T09:00:30Z</time>
      </trkpt>
      <trkpt lat="42.732368968427181" lon="-3.436823962256312">
        <ele>593.75</ele>
        <time>2025-04-28T09:00:42Z</time>
      </trkpt>
      <trkpt lat="42.730739023536444" lon="-3.438322981819511">
        <ele>597.12</ele>
        <time>2025-04-28T09:00:51Z</time>
      </trkpt>
      <trkpt lat="42.729117041453719" lon="-3.439172990620136">
        <ele>596.63999999999999</ele>
        <time>2025-04-28T09:00:59Z</time>
      </trkpt>
      <trkpt lat="42.726619988679886" lon="-3.440063986927271">
        <ele>590.87</ele>
        <time>2025-04-28T09:01:11Z</time>
      </trkpt>
      <trkpt lat="42.724554017186165" lon="-3.441206021234393">
        <ele>590.87</ele>
        <time>2025-04-28T09:01:22Z</time>
      </trkpt>
      <trkpt lat="42.723465040326118" lon="-3.441854026168585">
        <ele>590.87</ele>
        <time>2025-04-28T09:01:30Z</time>
      </trkpt>
      <trkpt lat="42.723370995372534" lon="-3.441911023110151">
        <ele>590.87</ele>
        <time>2025-04-28T09:01:31Z</time>
      </trkpt>
      <trkpt lat="42.723288014531136" lon="-3.441961985081434">
        <ele>590.87</ele>
        <time>2025-04-28T09:01:32Z</time>
      </trkpt>
      <trkpt lat="42.723267981782556" lon="-3.442097017541528">
        <ele>590.87</ele>
        <time>2025-04-28T09:01:33Z</time>
      </trkpt>
      <trkpt lat="42.723281979560852" lon="-3.442221991717815">
        <ele>590.87</ele>
        <time>2025-04-28T09:01:34Z</time>
      </trkpt>
      <trkpt lat="42.72329899482429" lon="-3.442370016127825">
        <ele>590.87</ele>
        <time>2025-04-28T09:01:35Z</time>
      </trkpt>
      <trkpt lat="42.723317015916109" lon="-3.44253396615386">
        <ele>591.35000000000002</ele>
        <time>2025-04-28T09:01:36Z</time>
      </trkpt>
      <trkpt lat="42.723519019782543" lon="-3.444194002076984">
        <ele>592.30999999999995</ele>
        <time>2025-04-28T09:01:44Z</time>
      </trkpt>
      <trkpt lat="42.723578028380871" lon="-3.444782998412848">
        <ele>593.75</ele>
        <time>2025-04-28T09:01:47Z</time>
      </trkpt>
      <trkpt lat="42.723539974540472" lon="-3.444948038086295">
        <ele>594.23000000000002</ele>
        <time>2025-04-28T09:01:48Z</time>
      </trkpt>
      <trkpt lat="42.723479038104415" lon="-3.445105031132698">
        <ele>594.23000000000002</ele>
        <time>2025-04-28T09:01:49Z</time>
      </trkpt>
      <trkpt lat="42.723368983715773" lon="-3.445207038894296">
        <ele>594.71000000000004</ele>
        <time>2025-04-28T09:01:50Z</time>
      </trkpt>
      <trkpt lat="42.723247027024627" lon="-3.445320026949048">
        <ele>594.71000000000004</ele>
        <time>2025-04-28T09:01:51Z</time>
      </trkpt>
      <trkpt lat="42.723133033141494" lon="-3.445456987246871">
        <ele>595.19000000000005</ele>
        <time>2025-04-28T09:01:52Z</time>
      </trkpt>
      <trkpt lat="42.723031025379896" lon="-3.445621021091938">
        <ele>595.66999999999996</ele>
        <time>2025-04-28T09:01:53Z</time>
      </trkpt>
      <trkpt lat="42.722201971337199" lon="-3.447225987911224">
        <ele>599.51999999999998</ele>
        <time>2025-04-28T09:02:02Z</time>
      </trkpt>
      <trkpt lat="42.722130976617336" lon="-3.447379041463137">
        <ele>599.51999999999998</ele>
        <time>2025-04-28T09:02:03Z</time>
      </trkpt>
      <trkpt lat="42.722087977454066" lon="-3.447545003145933">
        <ele>599.51999999999998</ele>
        <time>2025-04-28T09:02:04Z</time>
      </trkpt>
      <trkpt lat="42.722047995775938" lon="-3.447700990363956">
        <ele>599.51999999999998</ele>
        <time>2025-04-28T09:02:05Z</time>
      </trkpt>
      <trkpt lat="42.72200901992619" lon="-3.447858989238739">
        <ele>599.51999999999998</ele>
        <time>2025-04-28T09:02:06Z</time>
      </trkpt>
      <trkpt lat="42.721990998834372" lon="-3.448026040568948">
        <ele>599.51999999999998</ele>
        <time>2025-04-28T09:02:07Z</time>
      </trkpt>
      <trkpt lat="42.721971971914172" lon="-3.448193008080125">
        <ele>599.03999999999996</ele>
        <time>2025-04-28T09:02:08Z</time>
      </trkpt>
      <trkpt lat="42.721911035478115" lon="-3.448340026661754">
        <ele>599.03999999999996</ele>
        <time>2025-04-28T09:02:09Z</time>
      </trkpt>
      <trkpt lat="42.721831994131207" lon="-3.44846298918128">
        <ele>598.55999999999995</ele>
        <time>2025-04-28T09:02:10Z</time>
      </trkpt>
      <trkpt lat="42.721723029389977" lon="-3.448543958365917">
        <ele>597.60000000000002</ele>
        <time>2025-04-28T09:02:11Z</time>
      </trkpt>
      <trkpt lat="42.721610041335225" lon="-3.448628028854728">
        <ele>597.12</ele>
        <time>2025-04-28T09:02:12Z</time>
      </trkpt>
      <trkpt lat="42.720599016174674" lon="-3.449326995760202">
        <ele>595.66999999999996</ele>
        <time>2025-04-28T09:02:22Z</time>
      </trkpt>
      <trkpt lat="42.720545958727598" lon="-3.449439983814955">
        <ele>595.19000000000005</ele>
        <time>2025-04-28T09:02:23Z</time>
      </trkpt>
      <trkpt lat="42.720563979819417" lon="-3.449525982141495">
        <ele>595.19000000000005</ele>
        <time>2025-04-28T09:02:24Z</time>
      </trkpt>
      <trkpt lat="42.720586024224758" lon="-3.449633019044995">
        <ele>595.19000000000005</ele>
        <time>2025-04-28T09:02:25Z</time>
      </trkpt>
      <trkpt lat="42.720609996467829" lon="-3.449751036241651">
        <ele>595.19000000000005</ele>
        <time>2025-04-28T09:02:26Z</time>
      </trkpt>
      <trkpt lat="42.72063497453928" lon="-3.449870981276035">
        <ele>595.19000000000005</ele>
        <time>2025-04-28T09:02:27Z</time>
      </trkpt>
      <trkpt lat="42.720680991187692" lon="-3.450097041204572">
        <ele>595.66999999999996</ele>
        <time>2025-04-28T09:02:29Z</time>
      </trkpt>
      <trkpt lat="42.720702029764652" lon="-3.450222015380859">
        <ele>595.66999999999996</ele>
        <time>2025-04-28T09:02:30Z</time>
      </trkpt>
      <trkpt lat="42.720747962594032" lon="-3.450324023142457">
        <ele>595.66999999999996</ele>
        <time>2025-04-28T09:02:31Z</time>
      </trkpt>
      <trkpt lat="42.720928005874157" lon="-3.450625017285347">
        <ele>596.14999999999998</ele>
        <time>2025-04-28T09:02:34Z</time>
      </trkpt>
      <trkpt lat="42.721003023907542" lon="-3.450736999511719">
        <ele>596.63999999999999</ele>
        <time>2025-04-28T09:02:35Z</time>
      </trkpt>
      <trkpt lat="42.721048034727573" lon="-3.450793996453285">
        <ele>597.12</ele>
        <time>2025-04-28T09:02:36Z</time>
      </trkpt>
      <trkpt lat="42.72110603749752" lon="-3.450867002829909">
        <ele>597.60000000000002</ele>
        <time>2025-04-28T09:02:37Z</time>
      </trkpt>
      <trkpt lat="42.721162028610706" lon="-3.450935985893011">
        <ele>598.08000000000004</ele>
        <time>2025-04-28T09:02:38Z</time>
      </trkpt>
      <trkpt lat="42.721252972260118" lon="-3.451077975332737">
        <ele>599.03999999999996</ele>
        <time>2025-04-28T09:02:40Z</time>
      </trkpt>
      <trkpt lat="42.721284991130233" lon="-3.451149975880981">
        <ele>599.51999999999998</ele>
        <time>2025-04-28T09:02:41Z</time>
      </trkpt>
      <trkpt lat="42.721297983080149" lon="-3.451242009177804">
        <ele>600</ele>
        <time>2025-04-28T09:02:42Z</time>
      </trkpt>
      <trkpt lat="42.721310975030065" lon="-3.451333036646247">
        <ele>600.48000000000002</ele>
        <time>2025-04-28T09:02:43Z</time>
      </trkpt>
      <trkpt lat="42.721325978636742" lon="-3.451433032751083">
        <ele>600.96000000000004</ele>
        <time>2025-04-28T09:02:44Z</time>
      </trkpt>
      <trkpt lat="42.721340982243419" lon="-3.451540991663933">
        <ele>601.44000000000005</ele>
        <time>2025-04-28T09:02:45Z</time>
      </trkpt>
      <trkpt lat="42.721394961699843" lon="-3.451759004965425">
        <ele>602.39999999999998</ele>
        <time>2025-04-28T09:02:47Z</time>
      </trkpt>
      <trkpt lat="42.721523037180305" lon="-3.452094029635191">
        <ele>603.85000000000002</ele>
        <time>2025-04-28T09:02:50Z</time>
      </trkpt>
      <trkpt lat="42.721577016636729" lon="-3.452199976891279">
        <ele>603.85000000000002</ele>
        <time>2025-04-28T09:02:51Z</time>
      </trkpt>
      <trkpt lat="42.721899971365929" lon="-3.452683025971055">
        <ele>605.28999999999996</ele>
        <time>2025-04-28T09:02:56Z</time>
      </trkpt>
      <trkpt lat="42.721963003277779" lon="-3.452774975448847">
        <ele>605.28999999999996</ele>
        <time>2025-04-28T09:02:57Z</time>
      </trkpt>
      <trkpt lat="42.722147991880774" lon="-3.453046968206763">
        <ele>605.76999999999998</ele>
        <time>2025-04-28T09:03:00Z</time>
      </trkpt>
      <trkpt lat="42.722211023792624" lon="-3.453141013160348">
        <ele>605.76999999999998</ele>
        <time>2025-04-28T09:03:01Z</time>
      </trkpt>
      <trkpt lat="42.722529033198953" lon="-3.453666977584362">
        <ele>605.28999999999996</ele>
        <time>2025-04-28T09:03:06Z</time>
      </trkpt>
      <trkpt lat="42.722922982648015" lon="-3.454488990828395">
        <ele>604.80999999999995</ele>
        <time>2025-04-28T09:03:12Z</time>
      </trkpt>
      <trkpt lat="42.723776008933783" lon="-3.45591701567173">
        <ele>605.28999999999996</ele>
        <time>2025-04-28T09:03:21Z</time>
      </trkpt>
      <trkpt lat="42.723972983658314" lon="-3.456210969015956">
        <ele>605.28999999999996</ele>
        <time>2025-04-28T09:03:23Z</time>
      </trkpt>
      <trkpt lat="42.724070968106389" lon="-3.456358993425965">
        <ele>605.28999999999996</ele>
        <time>2025-04-28T09:03:24Z</time>
      </trkpt>
      <trkpt lat="42.724790973588824" lon="-3.457320984452963">
        <ele>606.73000000000002</ele>
        <time>2025-04-28T09:03:33Z</time>
      </trkpt>
      <trkpt lat="42.725074030458927" lon="-3.457719041034579">
        <ele>605.76999999999998</ele>
        <time>2025-04-28T09:03:38Z</time>
      </trkpt>
      <trkpt lat="42.725390028208494" lon="-3.457993967458606">
        <ele>603.85000000000002</ele>
        <time>2025-04-28T09:03:43Z</time>
      </trkpt>
      <trkpt lat="42.725508967414498" lon="-3.458096981048584">
        <ele>603.36000000000001</ele>
        <time>2025-04-28T09:03:45Z</time>
      </trkpt>
      <trkpt lat="42.725548027083278" lon="-3.458194965496659">
        <ele>602.88</ele>
        <time>2025-04-28T09:03:46Z</time>
      </trkpt>
      <trkpt lat="42.725584991276264" lon="-3.458286998793483">
        <ele>602.88</ele>
        <time>2025-04-28T09:03:47Z</time>
      </trkpt>
      <trkpt lat="42.725606029853225" lon="-3.458383977413178">
        <ele>602.88</ele>
        <time>2025-04-28T09:03:48Z</time>
      </trkpt>
      <trkpt lat="42.725625978782773" lon="-3.458510041236877">
        <ele>602.39999999999998</ele>
        <time>2025-04-28T09:03:49Z</time>
      </trkpt>
      <trkpt lat="42.725647017359734" lon="-3.458642978221178">
        <ele>602.39999999999998</ele>
        <time>2025-04-28T09:03:50Z</time>
      </trkpt>
      <trkpt lat="42.725669983774424" lon="-3.45877599902451">
        <ele>601.91999999999996</ele>
        <time>2025-04-28T09:03:51Z</time>
      </trkpt>
      <trkpt lat="42.725696973502636" lon="-3.458917988464236">
        <ele>601.91999999999996</ele>
        <time>2025-04-28T09:03:52Z</time>
      </trkpt>
      <trkpt lat="42.72572698071599" lon="-3.45907598733902">
        <ele>601.91999999999996</ele>
        <time>2025-04-28T09:03:53Z</time>
      </trkpt>
      <trkpt lat="42.725775009021163" lon="-3.459241027012467">
        <ele>601.91999999999996</ele>
        <time>2025-04-28T09:03:54Z</time>
      </trkpt>
      <trkpt lat="42.725844997912645" lon="-3.459406988695264">
        <ele>601.91999999999996</ele>
        <time>2025-04-28T09:03:55Z</time>
      </trkpt>
      <trkpt lat="42.725918004289269" lon="-3.459580997005105">
        <ele>601.91999999999996</ele>
        <time>2025-04-28T09:03:56Z</time>
      </trkpt>
      <trkpt lat="42.726006014272571" lon="-3.459745030850172">
        <ele>601.44000000000005</ele>
        <time>2025-04-28T09:03:57Z</time>
      </trkpt>
      <trkpt lat="42.726431982591748" lon="-3.460414996370673">
        <ele>601.44000000000005</ele>
        <time>2025-04-28T09:04:02Z</time>
      </trkpt>
      <trkpt lat="42.726496020331979" lon="-3.460479034110904">
        <ele>601.44000000000005</ele>
        <time>2025-04-28T09:04:03Z</time>
      </trkpt>
      <trkpt lat="42.726496020331979" lon="-3.460479034110904">
        <ele>601.44000000000005</ele>
        <time>2025-04-28T09:04:04Z</time>
      </trkpt>
      <trkpt lat="42.726656030863523" lon="-3.460431005805731">
        <ele>600.96000000000004</ele>
        <time>2025-04-28T09:04:05Z</time>
      </trkpt>
      <trkpt lat="42.726744962856174" lon="-3.460404016077519">
        <ele>600.48000000000002</ele>
        <time>2025-04-28T09:04:06Z</time>
      </trkpt>
      <trkpt lat="42.726955013349652" lon="-3.460326986387372">
        <ele>599.51999999999998</ele>
        <time>2025-04-28T09:04:08Z</time>
      </trkpt>
      <trkpt lat="42.727074036374688" lon="-3.4602340310812">
        <ele>599.03999999999996</ele>
        <time>2025-04-28T09:04:09Z</time>
      </trkpt>
      <trkpt lat="42.727668983861804" lon="-3.459817031398416">
        <ele>598.55999999999995</ele>
        <time>2025-04-28T09:04:14Z</time>
      </trkpt>
      <trkpt lat="42.727750958874822" lon="-3.459834968671203">
        <ele>598.55999999999995</ele>
        <time>2025-04-28T09:04:15Z</time>
      </trkpt>
      <trkpt lat="42.727861013263464" lon="-3.459880985319614">
        <ele>599.03999999999996</ele>
        <time>2025-04-28T09:04:16Z</time>
      </trkpt>
      <trkpt lat="42.727909963577986" lon="-3.459968995302916">
        <ele>599.51999999999998</ele>
        <time>2025-04-28T09:04:17Z</time>
      </trkpt>
      <trkpt lat="42.727958997711539" lon="-3.460073014721274">
        <ele>600</ele>
        <time>2025-04-28T09:04:18Z</time>
      </trkpt>
      <trkpt lat="42.727984981611371" lon="-3.46021399833262">
        <ele>600.48000000000002</ele>
        <time>2025-04-28T09:04:19Z</time>
      </trkpt>
      <trkpt lat="42.728001996874809" lon="-3.460371997207403">
        <ele>600.48000000000002</ele>
        <time>2025-04-28T09:04:20Z</time>
      </trkpt>
      <trkpt lat="42.728009959682822" lon="-3.460523961111903">
        <ele>600.96000000000004</ele>
        <time>2025-04-28T09:04:21Z</time>
      </trkpt>
      <trkpt lat="42.728033009916544" lon="-3.460979014635086">
        <ele>602.39999999999998</ele>
        <time>2025-04-28T09:04:24Z</time>
      </trkpt>
      <trkpt lat="42.72804600186646" lon="-3.461142964661121">
        <ele>602.39999999999998</ele>
        <time>2025-04-28T09:04:25Z</time>
      </trkpt>
      <trkpt lat="42.72808900102973" lon="-3.461304986849427">
        <ele>602.88</ele>
        <time>2025-04-28T09:04:26Z</time>
      </trkpt>
      <trkpt lat="42.728382032364607" lon="-3.462791014462709">
        <ele>605.28999999999996</ele>
        <time>2025-04-28T09:04:34Z</time>
      </trkpt>
      <trkpt lat="42.728378009051085" lon="-3.462969968095422">
        <ele>605.76999999999998</ele>
        <time>2025-04-28T09:04:35Z</time>
      </trkpt>
      <trkpt lat="42.728365017101169" lon="-3.463514037430286">
        <ele>605.76999999999998</ele>
        <time>2025-04-28T09:04:38Z</time>
      </trkpt>
      <trkpt lat="42.728386977687478" lon="-3.463692991062999">
        <ele>605.76999999999998</ele>
        <time>2025-04-28T09:04:39Z</time>
      </trkpt>
      <trkpt lat="42.728566015139222" lon="-3.464481979608536">
        <ele>608.16999999999996</ele>
        <time>2025-04-28T09:04:44Z</time>
      </trkpt>
      <trkpt lat="42.728617982938886" lon="-3.464607037603855">
        <ele>609.13</ele>
        <time>2025-04-28T09:04:45Z</time>
      </trkpt>
      <trkpt lat="42.728708004578948" lon="-3.464723965153098">
        <ele>609.61000000000001</ele>
        <time>2025-04-28T09:04:46Z</time>
      </trkpt>
      <trkpt lat="42.728806994855404" lon="-3.46481398679316">
        <ele>610.09000000000003</ele>
        <time>2025-04-28T09:04:47Z</time>
      </trkpt>
      <trkpt lat="42.728899028152227" lon="-3.46489897929132">
        <ele>610.57000000000005</ele>
        <time>2025-04-28T09:04:48Z</time>
      </trkpt>
      <trkpt lat="42.729032970964909" lon="-3.464952958747745">
        <ele>611.05999999999995</ele>
        <time>2025-04-28T09:04:49Z</time>
      </trkpt>
      <trkpt lat="42.72918501868844" lon="-3.464987995103002">
        <ele>611.05999999999995</ele>
        <time>2025-04-28T09:04:50Z</time>
      </trkpt>
      <trkpt lat="42.729346035048366" lon="-3.464994030073285">
        <ele>611.05999999999995</ele>
        <time>2025-04-28T09:04:51Z</time>
      </trkpt>
      <trkpt lat="42.729509985074401" lon="-3.465000987052918">
        <ele>611.53999999999996</ele>
        <time>2025-04-28T09:04:52Z</time>
      </trkpt>
      <trkpt lat="42.73088101297617" lon="-3.465512031689286">
        <ele>614.41999999999996</ele>
        <time>2025-04-28T09:05:00Z</time>
      </trkpt>
      <trkpt lat="42.731185024604201" lon="-3.465769020840526">
        <ele>615.38</ele>
        <time>2025-04-28T09:05:02Z</time>
      </trkpt>
      <trkpt lat="42.731328019872308" lon="-3.465912016108632">
        <ele>615.86000000000001</ele>
        <time>2025-04-28T09:05:03Z</time>
      </trkpt>
      <trkpt lat="42.731448970735073" lon="-3.466091975569725">
        <ele>616.82000000000005</ele>
        <time>2025-04-28T09:05:04Z</time>
      </trkpt>
      <trkpt lat="42.732055988162756" lon="-3.467113981023431">
        <ele>621.14999999999998</ele>
        <time>2025-04-28T09:05:10Z</time>
      </trkpt>
      <trkpt lat="42.73215196095407" lon="-3.467229986563325">
        <ele>621.63</ele>
        <time>2025-04-28T09:05:11Z</time>
      </trkpt>
      <trkpt lat="42.732270983979106" lon="-3.467258987948299">
        <ele>622.59000000000003</ele>
        <time>2025-04-28T09:05:12Z</time>
      </trkpt>
      <trkpt lat="42.732383972033858" lon="-3.467258987948299">
        <ele>623.54999999999995</ele>
        <time>2025-04-28T09:05:13Z</time>
      </trkpt>
      <trkpt lat="42.732500983402133" lon="-3.467226969078183">
        <ele>624.02999999999997</ele>
        <time>2025-04-28T09:05:14Z</time>
      </trkpt>
      <trkpt lat="42.732599973678589" lon="-3.46717500127852">
        <ele>624.99000000000001</ele>
        <time>2025-04-28T09:05:15Z</time>
      </trkpt>
      <trkpt lat="42.732685972005129" lon="-3.467129990458489">
        <ele>625.96000000000004</ele>
        <time>2025-04-28T09:05:16Z</time>
      </trkpt>
      <trkpt lat="42.732765013352036" lon="-3.46708900295198">
        <ele>626.44000000000005</ele>
        <time>2025-04-28T09:05:17Z</time>
      </trkpt>
      <trkpt lat="42.732846988365054" lon="-3.467044997960329">
        <ele>627.39999999999998</ele>
        <time>2025-04-28T09:05:18Z</time>
      </trkpt>
      <trkpt lat="42.732927035540342" lon="-3.467056984081864">
        <ele>628.36000000000001</ele>
        <time>2025-04-28T09:05:19Z</time>
      </trkpt>
      <trkpt lat="42.733028037473559" lon="-3.467072993516922">
        <ele>628.84000000000003</ele>
        <time>2025-04-28T09:05:20Z</time>
      </trkpt>
      <trkpt lat="42.733437996357679" lon="-3.467106018215418">
        <ele>633.16999999999996</ele>
        <time>2025-04-28T09:05:25Z</time>
      </trkpt>
      <trkpt lat="42.733575962483883" lon="-3.46710903570056">
        <ele>635.09000000000003</ele>
        <time>2025-04-28T09:05:27Z</time>
      </trkpt>
      <trkpt lat="42.733727004379034" lon="-3.46710903570056">
        <ele>636.52999999999997</ele>
        <time>2025-04-28T09:05:29Z</time>
      </trkpt>
      <trkpt lat="42.73378299549222" lon="-3.467119010165334">
        <ele>637.49000000000001</ele>
        <time>2025-04-28T09:05:30Z</time>
      </trkpt>
      <trkpt lat="42.733881985768676" lon="-3.467137031257153">
        <ele>639.40999999999997</ele>
        <time>2025-04-28T09:05:32Z</time>
      </trkpt>
      <trkpt lat="42.733920039609075" lon="-3.467143988236785">
        <ele>640.38</ele>
        <time>2025-04-28T09:05:33Z</time>
      </trkpt>
      <trkpt lat="42.734008971601725" lon="-3.46715496852994">
        <ele>643.25999999999999</ele>
        <time>2025-04-28T09:05:36Z</time>
      </trkpt>
      <trkpt lat="42.734047025442123" lon="-3.467156980186701">
        <ele>643.74000000000001</ele>
        <time>2025-04-28T09:05:37Z</time>
      </trkpt>
      <trkpt lat="42.734094969928265" lon="-3.467158991843462">
        <ele>644.70000000000005</ele>
        <time>2025-04-28T09:05:38Z</time>
      </trkpt>
      <trkpt lat="42.734138974919915" lon="-3.467162009328604">
        <ele>645.65999999999997</ele>
        <time>2025-04-28T09:05:39Z</time>
      </trkpt>
      <trkpt lat="42.734192032366991" lon="-3.467165026813746">
        <ele>646.13999999999999</ele>
        <time>2025-04-28T09:05:40Z</time>
      </trkpt>
      <trkpt lat="42.734249029308558" lon="-3.467167960479856">
        <ele>647.10000000000002</ele>
        <time>2025-04-28T09:05:41Z</time>
      </trkpt>
      <trkpt lat="42.734309965744615" lon="-3.467170977964997">
        <ele>647.59000000000003</ele>
        <time>2025-04-28T09:05:42Z</time>
      </trkpt>
      <trkpt lat="42.734368974342942" lon="-3.467193022370338">
        <ele>648.07000000000005</ele>
        <time>2025-04-28T09:05:43Z</time>
      </trkpt>
      <trkpt lat="42.73442798294127" lon="-3.467252030968666">
        <ele>648.54999999999995</ele>
        <time>2025-04-28T09:05:44Z</time>
      </trkpt>
      <trkpt lat="42.734479028731585" lon="-3.467331994324923">
        <ele>649.02999999999997</ele>
        <time>2025-04-28T09:05:45Z</time>
      </trkpt>
      <trkpt lat="42.734586987644434" lon="-3.467508014291525">
        <ele>649.02999999999997</ele>
        <time>2025-04-28T09:05:47Z</time>
      </trkpt>
      <trkpt lat="42.734635015949607" lon="-3.46758596599102">
        <ele>648.54999999999995</ele>
        <time>2025-04-28T09:05:48Z</time>
      </trkpt>
      <trkpt lat="42.734682038426399" lon="-3.467667018994689">
        <ele>648.54999999999995</ele>
        <time>2025-04-28T09:05:49Z</time>
      </trkpt>
      <trkpt lat="42.734810030087829" lon="-3.46794999204576">
        <ele>647.10000000000002</ele>
        <time>2025-04-28T09:05:52Z</time>
      </trkpt>
      <trkpt lat="42.734951013699174" lon="-3.468488026410341">
        <ele>645.17999999999995</ele>
        <time>2025-04-28T09:05:57Z</time>
      </trkpt>
      <trkpt lat="42.73496501147747" lon="-3.468617023900151">
        <ele>645.17999999999995</ele>
        <time>2025-04-28T09:05:58Z</time>
      </trkpt>
      <trkpt lat="42.734956964850426" lon="-3.468746021389961">
        <ele>644.70000000000005</ele>
        <time>2025-04-28T09:05:59Z</time>
      </trkpt>
      <trkpt lat="42.734929975122213" lon="-3.468882981687784">
        <ele>644.22000000000003</ele>
        <time>2025-04-28T09:06:00Z</time>
      </trkpt>
      <trkpt lat="42.734898962080479" lon="-3.469014996662736">
        <ele>643.74000000000001</ele>
        <time>2025-04-28T09:06:01Z</time>
      </trkpt>
      <trkpt lat="42.734840959310532" lon="-3.469135025516152">
        <ele>642.77999999999997</ele>
        <time>2025-04-28T09:06:02Z</time>
      </trkpt>
      <trkpt lat="42.734783040359616" lon="-3.469254970550537">
        <ele>642.77999999999997</ele>
        <time>2025-04-28T09:06:03Z</time>
      </trkpt>
      <trkpt lat="42.734726965427399" lon="-3.469369970262051">
        <ele>642.77999999999997</ele>
        <time>2025-04-28T09:06:04Z</time>
      </trkpt>
      <trkpt lat="42.734670974314213" lon="-3.469484969973564">
        <ele>642.29999999999995</ele>
        <time>2025-04-28T09:06:05Z</time>
      </trkpt>
      <trkpt lat="42.734615989029408" lon="-3.469599969685078">
        <ele>641.82000000000005</ele>
        <time>2025-04-28T09:06:06Z</time>
      </trkpt>
      <trkpt lat="42.734504006803036" lon="-3.469844972714782">
        <ele>641.34000000000003</ele>
        <time>2025-04-28T09:06:08Z</time>
      </trkpt>
      <trkpt lat="42.734446004033089" lon="-3.469975981861353">
        <ele>640.86000000000001</ele>
        <time>2025-04-28T09:06:09Z</time>
      </trkpt>
      <trkpt lat="42.734414990991354" lon="-3.470130041241646">
        <ele>640.38</ele>
        <time>2025-04-28T09:06:10Z</time>
      </trkpt>
      <trkpt lat="42.734418008476496" lon="-3.47029197961092">
        <ele>640.38</ele>
        <time>2025-04-28T09:06:11Z</time>
      </trkpt>
      <trkpt lat="42.734420020133257" lon="-3.470467999577522">
        <ele>639.88999999999999</ele>
        <time>2025-04-28T09:06:12Z</time>
      </trkpt>
      <trkpt lat="42.734423037618399" lon="-3.470650976523757">
        <ele>639.40999999999997</ele>
        <time>2025-04-28T09:06:13Z</time>
      </trkpt>
      <trkpt lat="42.734419014304876" lon="-3.471588995307684">
        <ele>635.57000000000005</ele>
        <time>2025-04-28T09:06:18Z</time>
      </trkpt>
      <trkpt lat="42.734382972121239" lon="-3.472392987459898">
        <ele>631.72000000000003</ele>
        <time>2025-04-28T09:06:22Z</time>
      </trkpt>
      <trkpt lat="42.734420020133257" lon="-3.472593985497952">
        <ele>631.24000000000001</ele>
        <time>2025-04-28T09:06:23Z</time>
      </trkpt>
      <trkpt lat="42.734487997367978" lon="-3.472786014899612">
        <ele>630.75999999999999</ele>
        <time>2025-04-28T09:06:24Z</time>
      </trkpt>
      <trkpt lat="42.734881024807692" lon="-3.473753035068512">
        <ele>627.88</ele>
        <time>2025-04-28T09:06:29Z</time>
      </trkpt>
      <trkpt lat="42.734985966235399" lon="-3.473928971216083">
        <ele>627.39999999999998</ele>
        <time>2025-04-28T09:06:30Z</time>
      </trkpt>
      <trkpt lat="42.735090991482139" lon="-3.474132986739278">
        <ele>626.91999999999996</ele>
        <time>2025-04-28T09:06:31Z</time>
      </trkpt>
      <trkpt lat="42.735146982595325" lon="-3.474355023354292">
        <ele>625.96000000000004</ele>
        <time>2025-04-28T09:06:32Z</time>
      </trkpt>
      <trkpt lat="42.735215965658426" lon="-3.474563984200358">
        <ele>625.47000000000003</ele>
        <time>2025-04-28T09:06:33Z</time>
      </trkpt>
      <trkpt lat="42.7353520039469" lon="-3.474932033568621">
        <ele>625.47000000000003</ele>
        <time>2025-04-28T09:06:35Z</time>
      </trkpt>
      <trkpt lat="42.735421992838383" lon="-3.475031023845077">
        <ele>625.47000000000003</ele>
        <time>2025-04-28T09:06:36Z</time>
      </trkpt>
      <trkpt lat="42.735533975064754" lon="-3.475095983594656">
        <ele>624.99000000000001</ele>
        <time>2025-04-28T09:06:37Z</time>
      </trkpt>
      <trkpt lat="42.735660038888454" lon="-3.475169995799661">
        <ele>624.99000000000001</ele>
        <time>2025-04-28T09:06:38Z</time>
      </trkpt>
      <trkpt lat="42.735790964215994" lon="-3.475247025489807">
        <ele>624.99000000000001</ele>
        <time>2025-04-28T09:06:39Z</time>
      </trkpt>
      <trkpt lat="42.735921973362565" lon="-3.475323971360922">
        <ele>624.99000000000001</ele>
        <time>2025-04-28T09:06:40Z</time>
      </trkpt>
      <trkpt lat="42.736053988337517" lon="-3.475433019921184">
        <ele>624.50999999999999</ele>
        <time>2025-04-28T09:06:41Z</time>
      </trkpt>
      <trkpt lat="42.73616898804903" lon="-3.475570986047387">
        <ele>624.50999999999999</ele>
        <time>2025-04-28T09:06:42Z</time>
      </trkpt>
      <trkpt lat="42.736394964158535" lon="-3.475805008783937">
        <ele>624.02999999999997</ele>
        <time>2025-04-28T09:06:44Z</time>
      </trkpt>
      <trkpt lat="42.73651197552681" lon="-3.475885977968574">
        <ele>624.02999999999997</ele>
        <time>2025-04-28T09:06:45Z</time>
      </trkpt>
      <trkpt lat="42.736988989636302" lon="-3.476212034001946">
        <ele>623.54999999999995</ele>
        <time>2025-04-28T09:06:49Z</time>
      </trkpt>
      <trkpt lat="42.737216977402568" lon="-3.476431975141168">
        <ele>624.99000000000001</ele>
        <time>2025-04-28T09:06:51Z</time>
      </trkpt>
      <trkpt lat="42.737315967679024" lon="-3.476586034521461">
        <ele>625.47000000000003</ele>
        <time>2025-04-28T09:06:52Z</time>
      </trkpt>
      <trkpt lat="42.737385034561157" lon="-3.476764988154173">
        <ele>625.96000000000004</ele>
        <time>2025-04-28T09:06:53Z</time>
      </trkpt>
      <trkpt lat="42.737453011795878" lon="-3.476942013949156">
        <ele>626.44000000000005</ele>
        <time>2025-04-28T09:06:54Z</time>
      </trkpt>
      <trkpt lat="42.737525012344122" lon="-3.477130020037293">
        <ele>626.91999999999996</ele>
        <time>2025-04-28T09:06:55Z</time>
      </trkpt>
      <trkpt lat="42.737601958215237" lon="-3.477250970900059">
        <ele>627.39999999999998</ele>
        <time>2025-04-28T09:06:56Z</time>
      </trkpt>
      <trkpt lat="42.737852996215224" lon="-3.477708036080003">
        <ele>629.32000000000005</ele>
        <time>2025-04-28T09:06:59Z</time>
      </trkpt>
      <trkpt lat="42.737902030348778" lon="-3.477892018854618">
        <ele>629.32000000000005</ele>
        <time>2025-04-28T09:07:00Z</time>
      </trkpt>
      <trkpt lat="42.73792801424861" lon="-3.478082036599517">
        <ele>629.32000000000005</ele>
        <time>2025-04-28T09:07:01Z</time>
      </trkpt>
      <trkpt lat="42.737915022298694" lon="-3.478280017152429">
        <ele>629.32000000000005</ele>
        <time>2025-04-28T09:07:02Z</time>
      </trkpt>
      <trkpt lat="42.737854002043605" lon="-3.47845796495676">
        <ele>629.79999999999995</ele>
        <time>2025-04-28T09:07:03Z</time>
      </trkpt>
      <trkpt lat="42.737773032858968" lon="-3.478638008236885">
        <ele>629.79999999999995</ele>
        <time>2025-04-28T09:07:04Z</time>
      </trkpt>
      <trkpt lat="42.737688962370157" lon="-3.478826014325023">
        <ele>629.32000000000005</ele>
        <time>2025-04-28T09:07:05Z</time>
      </trkpt>
      <trkpt lat="42.737603969871998" lon="-3.47901301458478">
        <ele>628.84000000000003</ele>
        <time>2025-04-28T09:07:06Z</time>
      </trkpt>
      <trkpt lat="42.737525012344122" lon="-3.479190040379763">
        <ele>628.36000000000001</ele>
        <time>2025-04-28T09:07:07Z</time>
      </trkpt>
      <trkpt lat="42.73741202428937" lon="-3.479360025376082">
        <ele>628.36000000000001</ele>
        <time>2025-04-28T09:07:08Z</time>
      </trkpt>
      <trkpt lat="42.737299036234617" lon="-3.47952900454402">
        <ele>627.88</ele>
        <time>2025-04-28T09:07:09Z</time>
      </trkpt>
      <trkpt lat="42.737162997946143" lon="-3.479671999812126">
        <ele>627.39999999999998</ele>
        <time>2025-04-28T09:07:10Z</time>
      </trkpt>
      <trkpt lat="42.737021008506417" lon="-3.479804014787078">
        <ele>626.91999999999996</ele>
        <time>2025-04-28T09:07:11Z</time>
      </trkpt>
      <trkpt lat="42.736862003803253" lon="-3.479888001456857">
        <ele>626.44000000000005</ele>
        <time>2025-04-28T09:07:12Z</time>
      </trkpt>
      <trkpt lat="42.736698975786567" lon="-3.47995899617672">
        <ele>626.91999999999996</ele>
        <time>2025-04-28T09:07:13Z</time>
      </trkpt>
      <trkpt lat="42.736531002447009" lon="-3.480032002553344">
        <ele>626.91999999999996</ele>
        <time>2025-04-28T09:07:14Z</time>
      </trkpt>
      <trkpt lat="42.736227996647358" lon="-3.480190001428127">
        <ele>626.91999999999996</ele>
        <time>2025-04-28T09:07:16Z</time>
      </trkpt>
      <trkpt lat="42.736087013036013" lon="-3.48028396256268">
        <ele>626.91999999999996</ele>
        <time>2025-04-28T09:07:17Z</time>
      </trkpt>
      <trkpt lat="42.73597402498126" lon="-3.480440033599734">
        <ele>626.91999999999996</ele>
        <time>2025-04-28T09:07:18Z</time>
      </trkpt>
      <trkpt lat="42.735870005562901" lon="-3.480615969747305">
        <ele>626.91999999999996</ele>
        <time>2025-04-28T09:07:19Z</time>
      </trkpt>
      <trkpt lat="42.735777972266078" lon="-3.480811016634107">
        <ele>626.91999999999996</ele>
        <time>2025-04-28T09:07:20Z</time>
      </trkpt>
      <trkpt lat="42.735711000859737" lon="-3.481006985530257">
        <ele>626.91999999999996</ele>
        <time>2025-04-28T09:07:21Z</time>
      </trkpt>
      <trkpt lat="42.735677976161242" lon="-3.481230027973652">
        <ele>627.39999999999998</ele>
        <time>2025-04-28T09:07:22Z</time>
      </trkpt>
      <trkpt lat="42.735644029453397" lon="-3.48146203905344">
        <ele>627.39999999999998</ele>
        <time>2025-04-28T09:07:23Z</time>
      </trkpt>
      <trkpt lat="42.735636988654733" lon="-3.481689020991325">
        <ele>627.88</ele>
        <time>2025-04-28T09:07:24Z</time>
      </trkpt>
      <trkpt lat="42.735636988654733" lon="-3.482108032330871">
        <ele>627.88</ele>
        <time>2025-04-28T09:07:26Z</time>
      </trkpt>
      <trkpt lat="42.735678981989622" lon="-3.482250021770597">
        <ele>628.36000000000001</ele>
        <time>2025-04-28T09:07:27Z</time>
      </trkpt>
      <trkpt lat="42.735754000023007" lon="-3.482374995946884">
        <ele>628.36000000000001</ele>
        <time>2025-04-28T09:07:28Z</time>
      </trkpt>
      <trkpt lat="42.735862964764237" lon="-3.482477003708482">
        <ele>629.32000000000005</ele>
        <time>2025-04-28T09:07:29Z</time>
      </trkpt>
      <trkpt lat="42.736002020537853" lon="-3.482523020356894">
        <ele>629.79999999999995</ele>
        <time>2025-04-28T09:07:30Z</time>
      </trkpt>
      <trkpt lat="42.736152978613973" lon="-3.482572976499796">
        <ele>630.27999999999997</ele>
        <time>2025-04-28T09:07:31Z</time>
      </trkpt>
      <trkpt lat="42.737556025385857" lon="-3.48305300809443">
        <ele>635.09000000000003</ele>
        <time>2025-04-28T09:07:39Z</time>
      </trkpt>
      <trkpt lat="42.737875040620565" lon="-3.483188040554524">
        <ele>636.52999999999997</ele>
        <time>2025-04-28T09:07:41Z</time>
      </trkpt>
      <trkpt lat="42.738004960119724" lon="-3.483278984203935">
        <ele>637.00999999999999</ele>
        <time>2025-04-28T09:07:42Z</time>
      </trkpt>
      <trkpt lat="42.738076038658619" lon="-3.483408987522125">
        <ele>637.00999999999999</ele>
        <time>2025-04-28T09:07:43Z</time>
      </trkpt>
      <trkpt lat="42.738134963437915" lon="-3.483532033860683">
        <ele>637.49000000000001</ele>
        <time>2025-04-28T09:07:44Z</time>
      </trkpt>
      <trkpt lat="42.738188020884991" lon="-3.483643010258675">
        <ele>637.49000000000001</ele>
        <time>2025-04-28T09:07:45Z</time>
      </trkpt>
      <trkpt lat="42.738244011998177" lon="-3.483762033283711">
        <ele>637.49000000000001</ele>
        <time>2025-04-28T09:07:46Z</time>
      </trkpt>
      <trkpt lat="42.738307965919375" lon="-3.483895976096392">
        <ele>637.49000000000001</ele>
        <time>2025-04-28T09:07:47Z</time>
      </trkpt>
      <trkpt lat="42.738380972296" lon="-3.484048023819923">
        <ele>637.00999999999999</ele>
        <time>2025-04-28T09:07:48Z</time>
      </trkpt>
      <trkpt lat="42.738685989752412" lon="-3.48455797880888">
        <ele>637.00999999999999</ele>
        <time>2025-04-28T09:07:51Z</time>
      </trkpt>
      <trkpt lat="42.739014979451895" lon="-3.485146975144744">
        <ele>637.49000000000001</ele>
        <time>2025-04-28T09:07:54Z</time>
      </trkpt>
      <trkpt lat="42.739109024405479" lon="-3.4853720292449">
        <ele>637.49000000000001</ele>
        <time>2025-04-28T09:07:55Z</time>
      </trkpt>
      <trkpt lat="42.739203991368413" lon="-3.485599011182785">
        <ele>637.00999999999999</ele>
        <time>2025-04-28T09:07:56Z</time>
      </trkpt>
      <trkpt lat="42.739300969988108" lon="-3.485830016434193">
        <ele>637.00999999999999</ele>
        <time>2025-04-28T09:07:57Z</time>
      </trkpt>
      <trkpt lat="42.739398032426834" lon="-3.486063033342362">
        <ele>637.00999999999999</ele>
        <time>2025-04-28T09:07:58Z</time>
      </trkpt>
      <trkpt lat="42.740555992349982" lon="-3.488282980397344">
        <ele>641.82000000000005</ele>
        <time>2025-04-28T09:08:08Z</time>
      </trkpt>
      <trkpt lat="42.740661017596722" lon="-3.488484984263778">
        <ele>642.29999999999995</ele>
        <time>2025-04-28T09:08:09Z</time>
      </trkpt>
      <trkpt lat="42.740759002044797" lon="-3.488671984523535">
        <ele>642.29999999999995</ele>
        <time>2025-04-28T09:08:10Z</time>
      </trkpt>
      <trkpt lat="42.741080028936267" lon="-3.489263998344541">
        <ele>642.77999999999997</ele>
        <time>2025-04-28T09:08:13Z</time>
      </trkpt>
      <trkpt lat="42.742114020511508" lon="-3.490664027631283">
        <ele>644.22000000000003</ele>
        <time>2025-04-28T09:08:22Z</time>
      </trkpt>
      <trkpt lat="42.742170011624694" lon="-3.490763017907739">
        <ele>644.22000000000003</ele>
        <time>2025-04-28T09:08:23Z</time>
      </trkpt>
      <trkpt lat="42.742208987474442" lon="-3.490866031497717">
        <ele>644.22000000000003</ele>
        <time>2025-04-28T09:08:24Z</time>
      </trkpt>
      <trkpt lat="42.742391964420676" lon="-3.491434995085001">
        <ele>643.74000000000001</ele>
        <time>2025-04-28T09:08:29Z</time>
      </trkpt>
      <trkpt lat="42.742408979684114" lon="-3.491558041423559">
        <ele>644.22000000000003</ele>
        <time>2025-04-28T09:08:30Z</time>
      </trkpt>
      <trkpt lat="42.742425994947553" lon="-3.491677986457944">
        <ele>644.22000000000003</ele>
        <time>2025-04-28T09:08:31Z</time>
      </trkpt>
      <trkpt lat="42.742434041574597" lon="-3.491791980341077">
        <ele>644.22000000000003</ele>
        <time>2025-04-28T09:08:32Z</time>
      </trkpt>
      <trkpt lat="42.742415014654398" lon="-3.491908991709352">
        <ele>645.17999999999995</ele>
        <time>2025-04-28T09:08:33Z</time>
      </trkpt>
      <trkpt lat="42.742394981905818" lon="-3.492026003077626">
        <ele>645.17999999999995</ele>
        <time>2025-04-28T09:08:34Z</time>
      </trkpt>
      <trkpt lat="42.742318036034703" lon="-3.492491031065583">
        <ele>647.10000000000002</ele>
        <time>2025-04-28T09:08:38Z</time>
      </trkpt>
      <trkpt lat="42.742300014942884" lon="-3.492595972493291">
        <ele>647.59000000000003</ele>
        <time>2025-04-28T09:08:39Z</time>
      </trkpt>
      <trkpt lat="42.742267996072769" lon="-3.492790013551712">
        <ele>649.02999999999997</ele>
        <time>2025-04-28T09:08:41Z</time>
      </trkpt>
      <trkpt lat="42.742253998294473" lon="-3.492870982736349">
        <ele>649.50999999999999</ele>
        <time>2025-04-28T09:08:42Z</time>
      </trkpt>
      <trkpt lat="42.74224603548646" lon="-3.492949018254876">
        <ele>649.99000000000001</ele>
        <time>2025-04-28T09:08:43Z</time>
      </trkpt>
      <trkpt lat="42.74224603548646" lon="-3.493020012974739">
        <ele>650.47000000000003</ele>
        <time>2025-04-28T09:08:44Z</time>
      </trkpt>
      <trkpt lat="42.742304960265756" lon="-3.493085978552699">
        <ele>650.95000000000005</ele>
        <time>2025-04-28T09:08:45Z</time>
      </trkpt>
      <trkpt lat="42.742363968864083" lon="-3.493119003251195">
        <ele>651.42999999999995</ele>
        <time>2025-04-28T09:08:46Z</time>
      </trkpt>
      <trkpt lat="42.742429012432694" lon="-3.493155967444181">
        <ele>651.42999999999995</ele>
        <time>2025-04-28T09:08:47Z</time>
      </trkpt>
      <trkpt lat="42.74276596494019" lon="-3.49340801127255">
        <ele>652.38999999999999</ele>
        <time>2025-04-28T09:08:52Z</time>
      </trkpt>
      <trkpt lat="42.742830002680421" lon="-3.493468025699258">
        <ele>651.90999999999997</ele>
        <time>2025-04-28T09:08:53Z</time>
      </trkpt>
      <trkpt lat="42.74293502792716" lon="-3.493653014302254">
        <ele>651.90999999999997</ele>
        <time>2025-04-28T09:08:55Z</time>
      </trkpt>
      <trkpt lat="42.742986995726824" lon="-3.493744963780046">
        <ele>651.42999999999995</ele>
        <time>2025-04-28T09:08:56Z</time>
      </trkpt>
      <trkpt lat="42.74304298684001" lon="-3.493844037875533">
        <ele>650.95000000000005</ele>
        <time>2025-04-28T09:08:57Z</time>
      </trkpt>
      <trkpt lat="42.743225041776896" lon="-3.494145032018423">
        <ele>650.95000000000005</ele>
        <time>2025-04-28T09:09:00Z</time>
      </trkpt>
      <trkpt lat="42.74330098181963" lon="-3.494236981496215">
        <ele>650.95000000000005</ele>
        <time>2025-04-28T09:09:01Z</time>
      </trkpt>
      <trkpt lat="42.74347398430109" lon="-3.494437979534268">
        <ele>650.47000000000003</ele>
        <time>2025-04-28T09:09:03Z</time>
      </trkpt>
      <trkpt lat="42.743575992062688" lon="-3.494553985074163">
        <ele>649.99000000000001</ele>
        <time>2025-04-28T09:09:04Z</time>
      </trkpt>
      <trkpt lat="42.743670959025621" lon="-3.494659010320902">
        <ele>649.02999999999997</ele>
        <time>2025-04-28T09:09:05Z</time>
      </trkpt>
      <trkpt lat="42.744723977521062" lon="-3.49568503908813">
        <ele>645.65999999999997</ele>
        <time>2025-04-28T09:09:14Z</time>
      </trkpt>
      <trkpt lat="42.744989013299346" lon="-3.495781011879444">
        <ele>646.13999999999999</ele>
        <time>2025-04-28T09:09:16Z</time>
      </trkpt>
      <trkpt lat="42.745122034102678" lon="-3.495800960808992">
        <ele>646.13999999999999</ele>
        <time>2025-04-28T09:09:17Z</time>
      </trkpt>
      <trkpt lat="42.746126018464565" lon="-3.495924007147551">
        <ele>648.07000000000005</ele>
        <time>2025-04-28T09:09:25Z</time>
      </trkpt>
      <trkpt lat="42.747334018349648" lon="-3.496046969667077">
        <ele>650.47000000000003</ele>
        <time>2025-04-28T09:09:34Z</time>
      </trkpt>
      <trkpt lat="42.748859021812677" lon="-3.496404038742185">
        <ele>655.27999999999997</ele>
        <time>2025-04-28T09:09:44Z</time>
      </trkpt>
      <trkpt lat="42.749285995960236" lon="-3.496666979044676">
        <ele>655.75999999999999</ele>
        <time>2025-04-28T09:09:47Z</time>
      </trkpt>
      <trkpt lat="42.749414993450046" lon="-3.496755994856358">
        <ele>655.75999999999999</ele>
        <time>2025-04-28T09:09:48Z</time>
      </trkpt>
      <trkpt lat="42.749543990939856" lon="-3.496853979304433">
        <ele>656.24000000000001</ele>
        <time>2025-04-28T09:09:49Z</time>
      </trkpt>
      <trkpt lat="42.749666031450033" lon="-3.496948024258018">
        <ele>656.72000000000003</ele>
        <time>2025-04-28T09:09:50Z</time>
      </trkpt>
      <trkpt lat="42.749773990362883" lon="-3.497052965685725">
        <ele>656.72000000000003</ele>
        <time>2025-04-28T09:09:51Z</time>
      </trkpt>
      <trkpt lat="42.749867029488087" lon="-3.497181963175535">
        <ele>657.67999999999995</ele>
        <time>2025-04-28T09:09:52Z</time>
      </trkpt>
      <trkpt lat="42.749932995066047" lon="-3.497344991192222">
        <ele>658.15999999999997</ele>
        <time>2025-04-28T09:09:53Z</time>
      </trkpt>
      <trkpt lat="42.749968031421304" lon="-3.497544983401895">
        <ele>658.63999999999999</ele>
        <time>2025-04-28T09:09:54Z</time>
      </trkpt>
      <trkpt lat="42.749993009492755" lon="-3.497758973389864">
        <ele>659.60000000000002</ele>
        <time>2025-04-28T09:09:55Z</time>
      </trkpt>
      <trkpt lat="42.750098034739494" lon="-3.498577969148755">
        <ele>662.49000000000001</ele>
        <time>2025-04-28T09:09:59Z</time>
      </trkpt>
      <trkpt lat="42.750157965347171" lon="-3.498714007437229">
        <ele>662.97000000000003</ele>
        <time>2025-04-28T09:10:00Z</time>
      </trkpt>
      <trkpt lat="42.750225020572543" lon="-3.498861026018858">
        <ele>663.45000000000005</ele>
        <time>2025-04-28T09:10:01Z</time>
      </trkpt>
      <trkpt lat="42.750330967828631" lon="-3.498969990760088">
        <ele>663.92999999999995</ele>
        <time>2025-04-28T09:10:02Z</time>
      </trkpt>
      <trkpt lat="42.750458037480712" lon="-3.499095970764756">
        <ele>664.88999999999999</ele>
        <time>2025-04-28T09:10:03Z</time>
      </trkpt>
      <trkpt lat="42.750958018004894" lon="-3.49959603510797">
        <ele>667.28999999999996</ele>
        <time>2025-04-28T09:10:07Z</time>
      </trkpt>
      <trkpt lat="42.751064971089363" lon="-3.499757973477244">
        <ele>667.76999999999998</ele>
        <time>2025-04-28T09:10:08Z</time>
      </trkpt>
      <trkpt lat="42.751152981072664" lon="-3.499889988452196">
        <ele>667.76999999999998</ele>
        <time>2025-04-28T09:10:09Z</time>
      </trkpt>
      <trkpt lat="42.751190029084682" lon="-3.500032983720303">
        <ele>668.25</ele>
        <time>2025-04-28T09:10:10Z</time>
      </trkpt>
      <trkpt lat="42.751215007156134" lon="-3.500195005908608">
        <ele>668.25</ele>
        <time>2025-04-28T09:10:11Z</time>
      </trkpt>
      <trkpt lat="42.751244008541107" lon="-3.500383011996746">
        <ele>668.25</ele>
        <time>2025-04-28T09:10:12Z</time>
      </trkpt>
      <trkpt lat="42.751198997721076" lon="-3.500793976709247">
        <ele>668.25</ele>
        <time>2025-04-28T09:10:14Z</time>
      </trkpt>
      <trkpt lat="42.751116016879678" lon="-3.501246012747288">
        <ele>667.76999999999998</ele>
        <time>2025-04-28T09:10:16Z</time>
      </trkpt>
      <trkpt lat="42.751087015494704" lon="-3.501491015776992">
        <ele>666.80999999999995</ele>
        <time>2025-04-28T09:10:17Z</time>
      </trkpt>
      <trkpt lat="42.751064971089363" lon="-3.501698970794678">
        <ele>666.33000000000004</ele>
        <time>2025-04-28T09:10:18Z</time>
      </trkpt>
      <trkpt lat="42.751091038808227" lon="-3.501872979104519">
        <ele>665.85000000000002</ele>
        <time>2025-04-28T09:10:19Z</time>
      </trkpt>
      <trkpt lat="42.751107970252633" lon="-3.501978004351258">
        <ele>665.37</ele>
        <time>2025-04-28T09:10:20Z</time>
      </trkpt>
      <trkpt lat="42.751203021034598" lon="-3.502125022932887">
        <ele>664.88999999999999</ele>
        <time>2025-04-28T09:10:21Z</time>
      </trkpt>
      <trkpt lat="42.751301005482674" lon="-3.502277992665768">
        <ele>664.88999999999999</ele>
        <time>2025-04-28T09:10:22Z</time>
      </trkpt>
      <trkpt lat="42.751426985487342" lon="-3.502346975728869">
        <ele>664.40999999999997</ele>
        <time>2025-04-28T09:10:23Z</time>
      </trkpt>
      <trkpt lat="42.751584984362125" lon="-3.502424005419016">
        <ele>664.40999999999997</ele>
        <time>2025-04-28T09:10:24Z</time>
      </trkpt>
      <trkpt lat="42.751931995153427" lon="-3.502533975988627">
        <ele>663.92999999999995</ele>
        <time>2025-04-28T09:10:26Z</time>
      </trkpt>
      <trkpt lat="42.752116983756423" lon="-3.502525007352233">
        <ele>663.92999999999995</ele>
        <time>2025-04-28T09:10:27Z</time>
      </trkpt>
      <trkpt lat="42.752294009551406" lon="-3.502516038715839">
        <ele>662.97000000000003</ele>
        <time>2025-04-28T09:10:28Z</time>
      </trkpt>
      <trkpt lat="42.752454020082951" lon="-3.502543028444052">
        <ele>662.00999999999999</ele>
        <time>2025-04-28T09:10:29Z</time>
      </trkpt>
      <trkpt lat="42.752622999250889" lon="-3.502588961273432">
        <ele>661.03999999999996</ele>
        <time>2025-04-28T09:10:30Z</time>
      </trkpt>
      <trkpt lat="42.752770017832518" lon="-3.502699015662074">
        <ele>660.55999999999995</ele>
        <time>2025-04-28T09:10:31Z</time>
      </trkpt>
      <trkpt lat="42.753446018323302" lon="-3.50316496565938">
        <ele>660.55999999999995</ele>
        <time>2025-04-28T09:10:37Z</time>
      </trkpt>
      <trkpt lat="42.753511983901262" lon="-3.503202013671398">
        <ele>660.55999999999995</ele>
        <time>2025-04-28T09:10:38Z</time>
      </trkpt>
      <trkpt lat="42.753612985834479" lon="-3.503260016441345">
        <ele>660.55999999999995</ele>
        <time>2025-04-28T09:10:40Z</time>
      </trkpt>
      <trkpt lat="42.753651961684227" lon="-3.503282982856035">
        <ele>660.55999999999995</ele>
        <time>2025-04-28T09:10:41Z</time>
      </trkpt>
      <trkpt lat="42.753770984709263" lon="-3.503350960090756">
        <ele>661.03999999999996</ele>
        <time>2025-04-28T09:10:46Z</time>
      </trkpt>
      <trkpt lat="42.753770984709263" lon="-3.503350960090756">
        <ele>661.51999999999998</ele>
        <time>2025-04-28T09:10:47Z</time>
      </trkpt>
      <trkpt lat="42.753770984709263" lon="-3.503350960090756">
        <ele>661.51999999999998</ele>
        <time>2025-04-28T09:11:01Z</time>
      </trkpt>
      <trkpt lat="42.753749024122953" lon="-3.503419021144509">
        <ele>682.19000000000005</ele>
        <time>2025-04-28T09:19:26Z</time>
      </trkpt>
      <trkpt lat="42.753792023286223" lon="-3.503387002274394">
        <ele>673.53999999999996</ele>
        <time>2025-04-28T09:20:23Z</time>
      </trkpt>
      <trkpt lat="42.753777019679546" lon="-3.503381973132491">
        <ele>673.05999999999995</ele>
        <time>2025-04-28T09:21:21Z</time>
      </trkpt>
      <trkpt lat="42.753777019679546" lon="-3.503381973132491">
        <ele>673.05999999999995</ele>
        <time>2025-04-28T09:21:27Z</time>
      </trkpt>
      <trkpt lat="42.753809960559011" lon="-3.503374010324478">
        <ele>673.53999999999996</ele>
        <time>2025-04-28T09:21:29Z</time>
      </trkpt>
      <trkpt lat="42.753852959722281" lon="-3.503397982567549">
        <ele>673.53999999999996</ele>
        <time>2025-04-28T09:21:30Z</time>
      </trkpt>
      <trkpt lat="42.753909034654498" lon="-3.503430001437664">
        <ele>673.53999999999996</ele>
        <time>2025-04-28T09:21:31Z</time>
      </trkpt>
      <trkpt lat="42.753972988575697" lon="-3.503466965630651">
        <ele>673.53999999999996</ele>
        <time>2025-04-28T09:21:32Z</time>
      </trkpt>
      <trkpt lat="42.754690982401371" lon="-3.503952026367188">
        <ele>675.94000000000005</ele>
        <time>2025-04-28T09:21:40Z</time>
      </trkpt>
      <trkpt lat="42.755350973457098" lon="-3.504675971344113">
        <ele>679.30999999999995</ele>
        <time>2025-04-28T09:21:49Z</time>
      </trkpt>
      <trkpt lat="42.75597701780498" lon="-3.505825968459249">
        <ele>686.51999999999998</ele>
        <time>2025-04-28T09:21:58Z</time>
      </trkpt>
      <trkpt lat="42.756138034164906" lon="-3.50612604059279">
        <ele>687.96000000000004</ele>
        <time>2025-04-28T09:22:00Z</time>
      </trkpt>
      <trkpt lat="42.7562350127846" lon="-3.50625897757709">
        <ele>688.91999999999996</ele>
        <time>2025-04-28T09:22:01Z</time>
      </trkpt>
      <trkpt lat="42.756334003061056" lon="-3.506388980895281">
        <ele>689.39999999999998</ele>
        <time>2025-04-28T09:22:02Z</time>
      </trkpt>
      <trkpt lat="42.756442967802286" lon="-3.506508003920317">
        <ele>689.88</ele>
        <time>2025-04-28T09:22:03Z</time>
      </trkpt>
      <trkpt lat="42.756553022190928" lon="-3.506626021116972">
        <ele>690.36000000000001</ele>
        <time>2025-04-28T09:22:04Z</time>
      </trkpt>
      <trkpt lat="42.757464973255992" lon="-3.507712986320257">
        <ele>693.25</ele>
        <time>2025-04-28T09:22:12Z</time>
      </trkpt>
      <trkpt lat="42.757597994059324" lon="-3.507827986031771">
        <ele>693.25</ele>
        <time>2025-04-28T09:22:13Z</time>
      </trkpt>
      <trkpt lat="42.757849032059312" lon="-3.508067037910223">
        <ele>693.73000000000002</ele>
        <time>2025-04-28T09:22:15Z</time>
      </trkpt>
      <trkpt lat="42.757965037599206" lon="-3.50821296684444">
        <ele>693.25</ele>
        <time>2025-04-28T09:22:16Z</time>
      </trkpt>
      <trkpt lat="42.758199982345104" lon="-3.508510021492839">
        <ele>693.25</ele>
        <time>2025-04-28T09:22:18Z</time>
      </trkpt>
      <trkpt lat="42.758331997320056" lon="-3.508631978183985">
        <ele>692.76999999999998</ele>
        <time>2025-04-28T09:22:19Z</time>
      </trkpt>
      <trkpt lat="42.758838012814522" lon="-3.509087031707168">
        <ele>692.28999999999996</ele>
        <time>2025-04-28T09:22:23Z</time>
      </trkpt>
      <trkpt lat="42.758928034454584" lon="-3.509236983954907">
        <ele>691.80999999999995</ele>
        <time>2025-04-28T09:22:24Z</time>
      </trkpt>
      <trkpt lat="42.759852977469563" lon="-3.511174963787198">
        <ele>690.36000000000001</ele>
        <time>2025-04-28T09:22:35Z</time>
      </trkpt>
      <trkpt lat="42.760180961340666" lon="-3.511913996189833">
        <ele>688.91999999999996</ele>
        <time>2025-04-28T09:22:39Z</time>
      </trkpt>
      <trkpt lat="42.760298978537321" lon="-3.512062020599842">
        <ele>688.91999999999996</ele>
        <time>2025-04-28T09:22:40Z</time>
      </trkpt>
      <trkpt lat="42.760415989905596" lon="-3.51220803335309">
        <ele>688.91999999999996</ele>
        <time>2025-04-28T09:22:41Z</time>
      </trkpt>
      <trkpt lat="42.761074975132942" lon="-3.513053013011813">
        <ele>692.28999999999996</ele>
        <time>2025-04-28T09:22:47Z</time>
      </trkpt>
      <trkpt lat="42.761175977066159" lon="-3.513201959431171">
        <ele>692.28999999999996</ele>
        <time>2025-04-28T09:22:48Z</time>
      </trkpt>
      <trkpt lat="42.761216964572668" lon="-3.513399017974734">
        <ele>692.76999999999998</ele>
        <time>2025-04-28T09:22:49Z</time>
      </trkpt>
      <trkpt lat="42.761260969564319" lon="-3.513617031276226">
        <ele>693.25</ele>
        <time>2025-04-28T09:22:50Z</time>
      </trkpt>
      <trkpt lat="42.761307992041111" lon="-3.51384200155735">
        <ele>693.25</ele>
        <time>2025-04-28T09:22:51Z</time>
      </trkpt>
      <trkpt lat="42.761710993945599" lon="-3.51575399748981">
        <ele>697.09000000000003</ele>
        <time>2025-04-28T09:22:59Z</time>
      </trkpt>
      <trkpt lat="42.761807972565293" lon="-3.515967987477779">
        <ele>697.57000000000005</ele>
        <time>2025-04-28T09:23:00Z</time>
      </trkpt>
      <trkpt lat="42.762450026348233" lon="-3.517267014831305">
        <ele>699.98000000000002</ele>
        <time>2025-04-28T09:23:06Z</time>
      </trkpt>
      <trkpt lat="42.762643983587623" lon="-3.517977967858315">
        <ele>700.46000000000004</ele>
        <time>2025-04-28T09:23:09Z</time>
      </trkpt>
      <trkpt lat="42.76270198635757" lon="-3.518192041665316">
        <ele>700.94000000000005</ele>
        <time>2025-04-28T09:23:10Z</time>
      </trkpt>
      <trkpt lat="42.762806005775928" lon="-3.518368983641267">
        <ele>700.94000000000005</ele>
        <time>2025-04-28T09:23:11Z</time>
      </trkpt>
      <trkpt lat="42.762923017144203" lon="-3.518533017486334">
        <ele>701.41999999999996</ele>
        <time>2025-04-28T09:23:12Z</time>
      </trkpt>
      <trkpt lat="42.76304698549211" lon="-3.518707025796175">
        <ele>701.41999999999996</ele>
        <time>2025-04-28T09:23:13Z</time>
      </trkpt>
      <trkpt lat="42.763660037890077" lon="-3.519569020718336">
        <ele>703.34000000000003</ele>
        <time>2025-04-28T09:23:18Z</time>
      </trkpt>
      <trkpt lat="42.763748969882727" lon="-3.519745040684938">
        <ele>704.29999999999995</ele>
        <time>2025-04-28T09:23:19Z</time>
      </trkpt>
      <trkpt lat="42.763808984309435" lon="-3.519956013187766">
        <ele>705.25999999999999</ele>
        <time>2025-04-28T09:23:20Z</time>
      </trkpt>
      <trkpt lat="42.763866987079382" lon="-3.52017997764051">
        <ele>706.23000000000002</ele>
        <time>2025-04-28T09:23:21Z</time>
      </trkpt>
      <trkpt lat="42.763910992071033" lon="-3.520409977063537">
        <ele>707.19000000000005</ele>
        <time>2025-04-28T09:23:22Z</time>
      </trkpt>
      <trkpt lat="42.763954997062683" lon="-3.520636036992073">
        <ele>708.14999999999998</ele>
        <time>2025-04-28T09:23:23Z</time>
      </trkpt>
      <trkpt lat="42.763961032032967" lon="-3.5208660364151">
        <ele>709.11000000000001</ele>
        <time>2025-04-28T09:23:24Z</time>
      </trkpt>
      <trkpt lat="42.764006964862347" lon="-3.521814029663801">
        <ele>712.47000000000003</ele>
        <time>2025-04-28T09:23:28Z</time>
      </trkpt>
      <trkpt lat="42.764023980125785" lon="-3.522028019651771">
        <ele>712.95000000000005</ele>
        <time>2025-04-28T09:23:29Z</time>
      </trkpt>
      <trkpt lat="42.764090029522777" lon="-3.522226000204682">
        <ele>713.44000000000005</ele>
        <time>2025-04-28T09:23:30Z</time>
      </trkpt>
      <trkpt lat="42.764151971787214" lon="-3.522400008514524">
        <ele>713.91999999999996</ele>
        <time>2025-04-28T09:23:31Z</time>
      </trkpt>
      <trkpt lat="42.764278035610914" lon="-3.522498998790979">
        <ele>713.91999999999996</ele>
        <time>2025-04-28T09:23:32Z</time>
      </trkpt>
      <trkpt lat="42.764374008402228" lon="-3.522570999339223">
        <ele>714.88</ele>
        <time>2025-04-28T09:23:33Z</time>
      </trkpt>
      <trkpt lat="42.7644859906286" lon="-3.52260896936059">
        <ele>715.36000000000001</ele>
        <time>2025-04-28T09:23:34Z</time>
      </trkpt>
      <trkpt lat="42.76463401503861" lon="-3.522630007937551">
        <ele>716.32000000000005</ele>
        <time>2025-04-28T09:23:35Z</time>
      </trkpt>
      <trkpt lat="42.764792013913393" lon="-3.522652974352241">
        <ele>716.79999999999995</ele>
        <time>2025-04-28T09:23:36Z</time>
      </trkpt>
      <trkpt lat="42.765099965035915" lon="-3.522710977122188">
        <ele>718.24000000000001</ele>
        <time>2025-04-28T09:23:38Z</time>
      </trkpt>
      <trkpt lat="42.765250001102686" lon="-3.522765040397644">
        <ele>718.72000000000003</ele>
        <time>2025-04-28T09:23:39Z</time>
      </trkpt>
      <trkpt lat="42.765387967228889" lon="-3.522860007360578">
        <ele>718.72000000000003</ele>
        <time>2025-04-28T09:23:40Z</time>
      </trkpt>
      <trkpt lat="42.765769008547068" lon="-3.523204000666738">
        <ele>719.20000000000005</ele>
        <time>2025-04-28T09:23:43Z</time>
      </trkpt>
      <trkpt lat="42.765847966074944" lon="-3.523357976227999">
        <ele>719.20000000000005</ele>
        <time>2025-04-28T09:23:44Z</time>
      </trkpt>
      <trkpt lat="42.765914015471935" lon="-3.523499965667725">
        <ele>718.72000000000003</ele>
        <time>2025-04-28T09:23:45Z</time>
      </trkpt>
      <trkpt lat="42.765918960794806" lon="-3.523676991462708">
        <ele>718.72000000000003</ele>
        <time>2025-04-28T09:23:46Z</time>
      </trkpt>
      <trkpt lat="42.76592499576509" lon="-3.52385301142931">
        <ele>718.72000000000003</ele>
        <time>2025-04-28T09:23:47Z</time>
      </trkpt>
      <trkpt lat="42.765931030735373" lon="-3.524033976718783">
        <ele>719.20000000000005</ele>
        <time>2025-04-28T09:23:48Z</time>
      </trkpt>
      <trkpt lat="42.765903035178781" lon="-3.524403031915426">
        <ele>719.20000000000005</ele>
        <time>2025-04-28T09:23:50Z</time>
      </trkpt>
      <trkpt lat="42.765874033793807" lon="-3.524617021903396">
        <ele>719.67999999999995</ele>
        <time>2025-04-28T09:23:51Z</time>
      </trkpt>
      <trkpt lat="42.765734978020191" lon="-3.525715973228216">
        <ele>720.15999999999997</ele>
        <time>2025-04-28T09:23:56Z</time>
      </trkpt>
      <trkpt lat="42.765711005777121" lon="-3.525925017893314">
        <ele>720.64999999999998</ele>
        <time>2025-04-28T09:23:57Z</time>
      </trkpt>
      <trkpt lat="42.765731960535049" lon="-3.526135990396142">
        <ele>720.64999999999998</ele>
        <time>2025-04-28T09:23:58Z</time>
      </trkpt>
      <trkpt lat="42.765791974961758" lon="-3.526327013969421">
        <ele>720.64999999999998</ele>
        <time>2025-04-28T09:23:59Z</time>
      </trkpt>
      <trkpt lat="42.765872022137046" lon="-3.526507979258895">
        <ele>721.13</ele>
        <time>2025-04-28T09:24:00Z</time>
      </trkpt>
      <trkpt lat="42.765972018241882" lon="-3.526662960648537">
        <ele>721.61000000000001</ele>
        <time>2025-04-28T09:24:01Z</time>
      </trkpt>
      <trkpt lat="42.766070002689958" lon="-3.52681702002883">
        <ele>721.61000000000001</ele>
        <time>2025-04-28T09:24:02Z</time>
      </trkpt>
      <trkpt lat="42.766151977702975" lon="-3.526980970054865">
        <ele>721.61000000000001</ele>
        <time>2025-04-28T09:24:03Z</time>
      </trkpt>
      <trkpt lat="42.766193971037865" lon="-3.527150033041835">
        <ele>722.09000000000003</ele>
        <time>2025-04-28T09:24:04Z</time>
      </trkpt>
      <trkpt lat="42.76622598990798" lon="-3.527337033301592">
        <ele>722.09000000000003</ele>
        <time>2025-04-28T09:24:05Z</time>
      </trkpt>
      <trkpt lat="42.766257002949715" lon="-3.527531996369362">
        <ele>722.57000000000005</ele>
        <time>2025-04-28T09:24:06Z</time>
      </trkpt>
      <trkpt lat="42.766241999343038" lon="-3.528609992936254">
        <ele>722.57000000000005</ele>
        <time>2025-04-28T09:24:11Z</time>
      </trkpt>
      <trkpt lat="42.766191959381104" lon="-3.528817025944591">
        <ele>723.04999999999995</ele>
        <time>2025-04-28T09:24:12Z</time>
      </trkpt>
      <trkpt lat="42.766041001304984" lon="-3.529455978423357">
        <ele>723.52999999999997</ele>
        <time>2025-04-28T09:24:15Z</time>
      </trkpt>
      <trkpt lat="42.765845032408834" lon="-3.531129006296396">
        <ele>724.49000000000001</ele>
        <time>2025-04-28T09:24:22Z</time>
      </trkpt>
      <trkpt lat="42.765785017982125" lon="-3.5318040009588">
        <ele>721.61000000000001</ele>
        <time>2025-04-28T09:24:25Z</time>
      </trkpt>
      <trkpt lat="42.765802033245564" lon="-3.532076999545097">
        <ele>720.15999999999997</ele>
        <time>2025-04-28T09:24:26Z</time>
      </trkpt>
      <trkpt lat="42.765817036852241" lon="-3.532311022281647">
        <ele>719.20000000000005</ele>
        <time>2025-04-28T09:24:27Z</time>
      </trkpt>
      <trkpt lat="42.765844026580453" lon="-3.532530041411519">
        <ele>718.24000000000001</ele>
        <time>2025-04-28T09:24:28Z</time>
      </trkpt>
      <trkpt lat="42.76590496301651" lon="-3.532760962843895">
        <ele>717.27999999999997</ele>
        <time>2025-04-28T09:24:29Z</time>
      </trkpt>
      <trkpt lat="42.765964977443218" lon="-3.532988028600812">
        <ele>716.32000000000005</ele>
        <time>2025-04-28T09:24:30Z</time>
      </trkpt>
      <trkpt lat="42.766020968556404" lon="-3.533233031630516">
        <ele>715.36000000000001</ele>
        <time>2025-04-28T09:24:31Z</time>
      </trkpt>
      <trkpt lat="42.766020968556404" lon="-3.533461019396782">
        <ele>714.39999999999998</ele>
        <time>2025-04-28T09:24:32Z</time>
      </trkpt>
      <trkpt lat="42.766020968556404" lon="-3.533685989677906">
        <ele>713.91999999999996</ele>
        <time>2025-04-28T09:24:33Z</time>
      </trkpt>
      <trkpt lat="42.765976041555405" lon="-3.533921018242836">
        <ele>713.44000000000005</ele>
        <time>2025-04-28T09:24:34Z</time>
      </trkpt>
      <trkpt lat="42.765912003815174" lon="-3.534096032381058">
        <ele>713.44000000000005</ele>
        <time>2025-04-28T09:24:35Z</time>
      </trkpt>
      <trkpt lat="42.765805972740054" lon="-3.534249002113938">
        <ele>713.44000000000005</ele>
        <time>2025-04-28T09:24:36Z</time>
      </trkpt>
      <trkpt lat="42.765683010220528" lon="-3.534327959641814">
        <ele>713.44000000000005</ele>
        <time>2025-04-28T09:24:37Z</time>
      </trkpt>
      <trkpt lat="42.765554012730718" lon="-3.534407000988722">
        <ele>713.44000000000005</ele>
        <time>2025-04-28T09:24:38Z</time>
      </trkpt>
      <trkpt lat="42.765433983877301" lon="-3.534459974616766">
        <ele>713.44000000000005</ele>
        <time>2025-04-28T09:24:39Z</time>
      </trkpt>
      <trkpt lat="42.765328958630562" lon="-3.534505991265178">
        <ele>713.91999999999996</ele>
        <time>2025-04-28T09:24:40Z</time>
      </trkpt>
      <trkpt lat="42.765245977789164" lon="-3.534542033448815">
        <ele>714.39999999999998</ele>
        <time>2025-04-28T09:24:41Z</time>
      </trkpt>
      <trkpt lat="42.765236003324389" lon="-3.534649992361665">
        <ele>714.88</ele>
        <time>2025-04-28T09:24:42Z</time>
      </trkpt>
      <trkpt lat="42.765245977789164" lon="-3.534756023436785">
        <ele>715.36000000000001</ele>
        <time>2025-04-28T09:24:43Z</time>
      </trkpt>
      <trkpt lat="42.76525997556746" lon="-3.534893989562988">
        <ele>715.84000000000003</ele>
        <time>2025-04-28T09:24:44Z</time>
      </trkpt>
      <trkpt lat="42.765277996659279" lon="-3.535030027851462">
        <ele>716.79999999999995</ele>
        <time>2025-04-28T09:24:45Z</time>
      </trkpt>
      <trkpt lat="42.765325019136071" lon="-3.535186015069485">
        <ele>717.27999999999997</ele>
        <time>2025-04-28T09:24:46Z</time>
      </trkpt>
      <trkpt lat="42.765512019395828" lon="-3.535808958113194">
        <ele>721.13</ele>
        <time>2025-04-28T09:24:51Z</time>
      </trkpt>
      <trkpt lat="42.765547977760434" lon="-3.535891016945243">
        <ele>722.09000000000003</ele>
        <time>2025-04-28T09:24:52Z</time>
      </trkpt>
      <trkpt lat="42.765602041035891" lon="-3.535970980301499">
        <ele>723.04999999999995</ele>
        <time>2025-04-28T09:24:53Z</time>
      </trkpt>
      <trkpt lat="42.765656020492315" lon="-3.536053039133549">
        <ele>723.52999999999997</ele>
        <time>2025-04-28T09:24:54Z</time>
      </trkpt>
      <trkpt lat="42.765699019655585" lon="-3.536112969741225">
        <ele>724.97000000000003</ele>
        <time>2025-04-28T09:24:55Z</time>
      </trkpt>
      <trkpt lat="42.765735983848572" lon="-3.536165021359921">
        <ele>725.45000000000005</ele>
        <time>2025-04-28T09:24:56Z</time>
      </trkpt>
      <trkpt lat="42.765765991061926" lon="-3.536206008866429">
        <ele>726.40999999999997</ele>
        <time>2025-04-28T09:24:57Z</time>
      </trkpt>
      <trkpt lat="42.765799015760422" lon="-3.536252025514841">
        <ele>733.13999999999999</ele>
        <time>2025-04-28T09:25:05Z</time>
      </trkpt>
      <trkpt lat="42.765799015760422" lon="-3.536252025514841">
        <ele>736.50999999999999</ele>
        <time>2025-04-28T09:25:13Z</time>
      </trkpt>
      <trkpt lat="42.765585025772452" lon="-3.535947008058429">
        <ele>735.54999999999995</ele>
        <time>2025-04-28T09:25:21Z</time>
      </trkpt>
      <trkpt lat="42.765519982203841" lon="-3.535837037488818">
        <ele>735.07000000000005</ele>
        <time>2025-04-28T09:25:22Z</time>
      </trkpt>
      <trkpt lat="42.765478994697332" lon="-3.535697981715202">
        <ele>735.07000000000005</ele>
        <time>2025-04-28T09:25:23Z</time>
      </trkpt>
      <trkpt lat="42.765244971960783" lon="-3.534745965152979">
        <ele>726.88999999999999</ele>
        <time>2025-04-28T09:25:30Z</time>
      </trkpt>
      <trkpt lat="42.76523700915277" lon="-3.53466097265482">
        <ele>725.45000000000005</ele>
        <time>2025-04-28T09:25:31Z</time>
      </trkpt>
      <trkpt lat="42.765230974182487" lon="-3.534592995420098">
        <ele>724.00999999999999</ele>
        <time>2025-04-28T09:25:32Z</time>
      </trkpt>
      <trkpt lat="42.765125026926398" lon="-3.534519989043474">
        <ele>722.09000000000003</ele>
        <time>2025-04-28T09:25:33Z</time>
      </trkpt>
      <trkpt lat="42.765032993629575" lon="-3.534491993486881">
        <ele>720.64999999999998</ele>
        <time>2025-04-28T09:25:34Z</time>
      </trkpt>
      <trkpt lat="42.764916988089681" lon="-3.534457040950656">
        <ele>719.20000000000005</ele>
        <time>2025-04-28T09:25:35Z</time>
      </trkpt>
      <trkpt lat="42.764795031398535" lon="-3.534418987110257">
        <ele>717.75999999999999</ele>
        <time>2025-04-28T09:25:36Z</time>
      </trkpt>
      <trkpt lat="42.764679025858641" lon="-3.534408006817102">
        <ele>716.79999999999995</ele>
        <time>2025-04-28T09:25:37Z</time>
      </trkpt>
      <trkpt lat="42.764582969248295" lon="-3.534422004595399">
        <ele>715.84000000000003</ele>
        <time>2025-04-28T09:25:38Z</time>
      </trkpt>
      <trkpt lat="42.764514992013574" lon="-3.534524012356997">
        <ele>714.88</ele>
        <time>2025-04-28T09:25:39Z</time>
      </trkpt>
      <trkpt lat="42.764452965930104" lon="-3.534635994583368">
        <ele>714.39999999999998</ele>
        <time>2025-04-28T09:25:40Z</time>
      </trkpt>
      <trkpt lat="42.764443997293711" lon="-3.534764992073178">
        <ele>713.91999999999996</ele>
        <time>2025-04-28T09:25:41Z</time>
      </trkpt>
      <trkpt lat="42.764433017000556" lon="-3.534912010654807">
        <ele>713.44000000000005</ele>
        <time>2025-04-28T09:25:42Z</time>
      </trkpt>
      <trkpt lat="42.764432011172175" lon="-3.536550002172589">
        <ele>712.47000000000003</ele>
        <time>2025-04-28T09:25:51Z</time>
      </trkpt>
      <trkpt lat="42.764456989243627" lon="-3.536748988553882">
        <ele>712.47000000000003</ele>
        <time>2025-04-28T09:25:52Z</time>
      </trkpt>
      <trkpt lat="42.764601996168494" lon="-3.537737969309092">
        <ele>713.91999999999996</ele>
        <time>2025-04-28T09:25:57Z</time>
      </trkpt>
      <trkpt lat="42.764623034745455" lon="-3.537925975397229">
        <ele>714.39999999999998</ele>
        <time>2025-04-28T09:25:58Z</time>
      </trkpt>
      <trkpt lat="42.764600990340114" lon="-3.538122028112412">
        <ele>714.88</ele>
        <time>2025-04-28T09:25:59Z</time>
      </trkpt>
      <trkpt lat="42.76448498480022" lon="-3.539407979696989">
        <ele>716.32000000000005</ele>
        <time>2025-04-28T09:26:05Z</time>
      </trkpt>
      <trkpt lat="42.764496970921755" lon="-3.539615012705326">
        <ele>716.79999999999995</ele>
        <time>2025-04-28T09:26:06Z</time>
      </trkpt>
      <trkpt lat="42.764537958428264" lon="-3.539846017956734">
        <ele>717.27999999999997</ele>
        <time>2025-04-28T09:26:07Z</time>
      </trkpt>
      <trkpt lat="42.764744991436601" lon="-3.5414710175246">
        <ele>720.15999999999997</ele>
        <time>2025-04-28T09:26:15Z</time>
      </trkpt>
      <trkpt lat="42.764736022800207" lon="-3.541637985035777">
        <ele>721.13</ele>
        <time>2025-04-28T09:26:16Z</time>
      </trkpt>
      <trkpt lat="42.764666033908725" lon="-3.541788021102548">
        <ele>722.09000000000003</ele>
        <time>2025-04-28T09:26:17Z</time>
      </trkpt>
      <trkpt lat="42.764586992561817" lon="-3.54192104190588">
        <ele>723.52999999999997</ele>
        <time>2025-04-28T09:26:18Z</time>
      </trkpt>
      <trkpt lat="42.764504011720419" lon="-3.542061019688845">
        <ele>724.49000000000001</ele>
        <time>2025-04-28T09:26:19Z</time>
      </trkpt>
      <trkpt lat="42.764421030879021" lon="-3.542200997471809">
        <ele>725.45000000000005</ele>
        <time>2025-04-28T09:26:20Z</time>
      </trkpt>
      <trkpt lat="42.764319023117423" lon="-3.542309040203691">
        <ele>726.40999999999997</ele>
        <time>2025-04-28T09:26:21Z</time>
      </trkpt>
      <trkpt lat="42.764217015355825" lon="-3.542386991903186">
        <ele>727.86000000000001</ele>
        <time>2025-04-28T09:26:22Z</time>
      </trkpt>
      <trkpt lat="42.764110984280705" lon="-3.542468966916204">
        <ele>729.29999999999995</ele>
        <time>2025-04-28T09:26:23Z</time>
      </trkpt>
      <trkpt lat="42.764031020924449" lon="-3.542438959702849">
        <ele>730.25999999999999</ele>
        <time>2025-04-28T09:26:24Z</time>
      </trkpt>
      <trkpt lat="42.763931024819613" lon="-3.54239696636796">
        <ele>731.22000000000003</ele>
        <time>2025-04-28T09:26:25Z</time>
      </trkpt>
      <trkpt lat="42.763833962380886" lon="-3.542319014668465">
        <ele>732.17999999999995</ele>
        <time>2025-04-28T09:26:26Z</time>
      </trkpt>
      <trkpt lat="42.76373103260994" lon="-3.542236033827066">
        <ele>732.65999999999997</ele>
        <time>2025-04-28T09:26:27Z</time>
      </trkpt>
      <trkpt lat="42.763622989878058" lon="-3.542148023843765">
        <ele>733.62</ele>
        <time>2025-04-28T09:26:28Z</time>
      </trkpt>
      <trkpt lat="42.763397013768554" lon="-3.541965968906879">
        <ele>735.07000000000005</ele>
        <time>2025-04-28T09:26:30Z</time>
      </trkpt>
      <trkpt lat="42.763312021270394" lon="-3.54183797724545">
        <ele>736.02999999999997</ele>
        <time>2025-04-28T09:26:31Z</time>
      </trkpt>
      <trkpt lat="42.763232979923487" lon="-3.541689030826092">
        <ele>736.99000000000001</ele>
        <time>2025-04-28T09:26:32Z</time>
      </trkpt>
      <trkpt lat="42.763169026002288" lon="-3.541523991152644">
        <ele>737.47000000000003</ele>
        <time>2025-04-28T09:26:33Z</time>
      </trkpt>
      <trkpt lat="42.763102976605296" lon="-3.541353000327945">
        <ele>738.42999999999995</ele>
        <time>2025-04-28T09:26:34Z</time>
      </trkpt>
      <trkpt lat="42.762882029637694" lon="-3.540831981226802">
        <ele>740.35000000000002</ele>
        <time>2025-04-28T09:26:37Z</time>
      </trkpt>
      <trkpt lat="42.762792007997632" lon="-3.540660990402103">
        <ele>741.30999999999995</ele>
        <time>2025-04-28T09:26:38Z</time>
      </trkpt>
      <trkpt lat="42.762697041034698" lon="-3.540494022890925">
        <ele>742.27999999999997</ele>
        <time>2025-04-28T09:26:39Z</time>
      </trkpt>
      <trkpt lat="42.76257399469614" lon="-3.540359996259213">
        <ele>743.24000000000001</ele>
        <time>2025-04-28T09:26:40Z</time>
      </trkpt>
      <trkpt lat="42.762451032176614" lon="-3.54022404178977">
        <ele>744.20000000000005</ele>
        <time>2025-04-28T09:26:41Z</time>
      </trkpt>
      <trkpt lat="42.7620580047369" lon="-3.539852974936366">
        <ele>746.60000000000002</ele>
        <time>2025-04-28T09:26:44Z</time>
      </trkpt>
      <trkpt lat="42.761904029175639" lon="-3.539780974388123">
        <ele>747.55999999999995</ele>
        <time>2025-04-28T09:26:45Z</time>
      </trkpt>
      <trkpt lat="42.761750975623727" lon="-3.539721965789795">
        <ele>748.03999999999996</ele>
        <time>2025-04-28T09:26:46Z</time>
      </trkpt>
      <trkpt lat="42.761571016162634" lon="-3.53973101824522">
        <ele>748.51999999999998</ele>
        <time>2025-04-28T09:26:47Z</time>
      </trkpt>
      <trkpt lat="42.761397007852793" lon="-3.539738981053233">
        <ele>749.49000000000001</ele>
        <time>2025-04-28T09:26:48Z</time>
      </trkpt>
      <trkpt lat="42.760092029348016" lon="-3.539706962183118">
        <ele>757.17999999999995</ele>
        <time>2025-04-28T09:26:55Z</time>
      </trkpt>
      <trkpt lat="42.759924978017807" lon="-3.539726994931698">
        <ele>757.17999999999995</ele>
        <time>2025-04-28T09:26:56Z</time>
      </trkpt>
      <trkpt lat="42.759763961657882" lon="-3.539783991873264">
        <ele>758.13999999999999</ele>
        <time>2025-04-28T09:26:57Z</time>
      </trkpt>
      <trkpt lat="42.759605040773749" lon="-3.539875019341707">
        <ele>759.10000000000002</ele>
        <time>2025-04-28T09:26:58Z</time>
      </trkpt>
      <trkpt lat="42.759444024413824" lon="-3.53996797464788">
        <ele>760.53999999999996</ele>
        <time>2025-04-28T09:26:59Z</time>
      </trkpt>
      <trkpt lat="42.758852010592818" lon="-3.540280032902956">
        <ele>766.30999999999995</ele>
        <time>2025-04-28T09:27:03Z</time>
      </trkpt>
      <trkpt lat="42.758713038638234" lon="-3.540261005982757">
        <ele>767.75</ele>
        <time>2025-04-28T09:27:04Z</time>
      </trkpt>
      <trkpt lat="42.758557973429561" lon="-3.540239967405796">
        <ele>768.71000000000004</ele>
        <time>2025-04-28T09:27:05Z</time>
      </trkpt>
      <trkpt lat="42.758398968726397" lon="-3.540218006819487">
        <ele>769.66999999999996</ele>
        <time>2025-04-28T09:27:06Z</time>
      </trkpt>
      <trkpt lat="42.75825597345829" lon="-3.540243990719318">
        <ele>770.63</ele>
        <time>2025-04-28T09:27:07Z</time>
      </trkpt>
      <trkpt lat="42.758112978190184" lon="-3.540278021246195">
        <ele>771.60000000000002</ele>
        <time>2025-04-28T09:27:08Z</time>
      </trkpt>
      <trkpt lat="42.757982974871993" lon="-3.540344992652535">
        <ele>772.08000000000004</ele>
        <time>2025-04-28T09:27:09Z</time>
      </trkpt>
      <trkpt lat="42.757854983210564" lon="-3.540424033999443">
        <ele>773.03999999999996</ele>
        <time>2025-04-28T09:27:10Z</time>
      </trkpt>
      <trkpt lat="42.757744006812572" lon="-3.540572980418801">
        <ele>774.48000000000002</ele>
        <time>2025-04-28T09:27:11Z</time>
      </trkpt>
      <trkpt lat="42.757640993222594" lon="-3.540729973465204">
        <ele>775.91999999999996</ele>
        <time>2025-04-28T09:27:12Z</time>
      </trkpt>
      <trkpt lat="42.757549965754151" lon="-3.540902975946665">
        <ele>776.88</ele>
        <time>2025-04-28T09:27:13Z</time>
      </trkpt>
      <trkpt lat="42.757457010447979" lon="-3.54108301922679">
        <ele>778.32000000000005</ele>
        <time>2025-04-28T09:27:14Z</time>
      </trkpt>
      <trkpt lat="42.75717998854816" lon="-3.541596997529268">
        <ele>782.16999999999996</ele>
        <time>2025-04-28T09:27:17Z</time>
      </trkpt>
      <trkpt lat="42.757073035463691" lon="-3.541738986968994">
        <ele>783.13</ele>
        <time>2025-04-28T09:27:18Z</time>
      </trkpt>
      <trkpt lat="42.75694596581161" lon="-3.54181501083076">
        <ele>784.57000000000005</ele>
        <time>2025-04-28T09:27:19Z</time>
      </trkpt>
      <trkpt lat="42.756801964715123" lon="-3.541875025257468">
        <ele>785.04999999999995</ele>
        <time>2025-04-28T09:27:20Z</time>
      </trkpt>
      <trkpt lat="42.756648994982243" lon="-3.541895980015397">
        <ele>786.01999999999998</ele>
        <time>2025-04-28T09:27:21Z</time>
      </trkpt>
      <trkpt lat="42.756334003061056" lon="-3.541953982785344">
        <ele>787.94000000000005</ele>
        <time>2025-04-28T09:27:23Z</time>
      </trkpt>
      <trkpt lat="42.756174998357892" lon="-3.542021038010716">
        <ele>788.89999999999998</ele>
        <time>2025-04-28T09:27:24Z</time>
      </trkpt>
      <trkpt lat="42.755345022305846" lon="-3.542364025488496">
        <ele>793.22000000000003</ele>
        <time>2025-04-28T09:27:29Z</time>
      </trkpt>
      <trkpt lat="42.753952033817768" lon="-3.542438959702849">
        <ele>802.84000000000003</ele>
        <time>2025-04-28T09:27:37Z</time>
      </trkpt>
      <trkpt lat="42.753364965319633" lon="-3.542319014668465">
        <ele>808.61000000000001</ele>
        <time>2025-04-28T09:27:41Z</time>
      </trkpt>
      <trkpt lat="42.752981996163726" lon="-3.542334018275142">
        <ele>810.04999999999995</ele>
        <time>2025-04-28T09:27:44Z</time>
      </trkpt>
      <trkpt lat="42.752846041694283" lon="-3.542275009676814">
        <ele>810.04999999999995</ele>
        <time>2025-04-28T09:27:45Z</time>
      </trkpt>
      <trkpt lat="42.752664992585778" lon="-3.542124973610044">
        <ele>809.57000000000005</ele>
        <time>2025-04-28T09:27:47Z</time>
      </trkpt>
      <trkpt lat="42.752571031451225" lon="-3.542046016082168">
        <ele>809.57000000000005</ele>
        <time>2025-04-28T09:27:48Z</time>
      </trkpt>
      <trkpt lat="42.752459971234202" lon="-3.541953982785344">
        <ele>809.09000000000003</ele>
        <time>2025-04-28T09:27:49Z</time>
      </trkpt>
      <trkpt lat="42.752414038404822" lon="-3.541830014437437">
        <ele>809.09000000000003</ele>
        <time>2025-04-28T09:27:50Z</time>
      </trkpt>
      <trkpt lat="42.752359975129366" lon="-3.541684001684189">
        <ele>808.61000000000001</ele>
        <time>2025-04-28T09:27:51Z</time>
      </trkpt>
      <trkpt lat="42.752054035663605" lon="-3.540877997875214">
        <ele>804.75999999999999</ele>
        <time>2025-04-28T09:27:57Z</time>
      </trkpt>
      <trkpt lat="42.751982035115361" lon="-3.54078495875001">
        <ele>803.79999999999995</ele>
        <time>2025-04-28T09:27:58Z</time>
      </trkpt>
      <trkpt lat="42.751907017081976" lon="-3.540700972080231">
        <ele>803.32000000000005</ele>
        <time>2025-04-28T09:27:59Z</time>
      </trkpt>
      <trkpt lat="42.751806015148759" lon="-3.540674988180399">
        <ele>802.36000000000001</ele>
        <time>2025-04-28T09:28:00Z</time>
      </trkpt>
      <trkpt lat="42.751686992123723" lon="-3.540709018707275">
        <ele>801.39999999999998</ele>
        <time>2025-04-28T09:28:01Z</time>
      </trkpt>
      <trkpt lat="42.751620020717382" lon="-3.540757969021797">
        <ele>800.44000000000005</ele>
        <time>2025-04-28T09:28:02Z</time>
      </trkpt>
      <trkpt lat="42.751029012724757" lon="-3.541217967867851">
        <ele>795.63</ele>
        <time>2025-04-28T09:28:08Z</time>
      </trkpt>
      <trkpt lat="42.750951983034611" lon="-3.541316958144307">
        <ele>795.14999999999998</ele>
        <time>2025-04-28T09:28:09Z</time>
      </trkpt>
      <trkpt lat="42.750888029113412" lon="-3.541402034461498">
        <ele>794.66999999999996</ele>
        <time>2025-04-28T09:28:10Z</time>
      </trkpt>
      <trkpt lat="42.750829020515084" lon="-3.541480991989374">
        <ele>794.19000000000005</ele>
        <time>2025-04-28T09:28:11Z</time>
      </trkpt>
      <trkpt lat="42.750764982774854" lon="-3.541565984487534">
        <ele>793.71000000000004</ele>
        <time>2025-04-28T09:28:12Z</time>
      </trkpt>
      <trkpt lat="42.750693988054991" lon="-3.541623987257481">
        <ele>793.22000000000003</ele>
        <time>2025-04-28T09:28:13Z</time>
      </trkpt>
      <trkpt lat="42.750617964193225" lon="-3.541657011955977">
        <ele>793.22000000000003</ele>
        <time>2025-04-28T09:28:14Z</time>
      </trkpt>
      <trkpt lat="42.75052098557353" lon="-3.541666986420751">
        <ele>793.22000000000003</ele>
        <time>2025-04-28T09:28:15Z</time>
      </trkpt>
      <trkpt lat="42.750429036095738" lon="-3.541671009734273">
        <ele>793.71000000000004</ele>
        <time>2025-04-28T09:28:16Z</time>
      </trkpt>
      <trkpt lat="42.750331973657012" lon="-3.541645025834441">
        <ele>793.71000000000004</ele>
        <time>2025-04-28T09:28:17Z</time>
      </trkpt>
      <trkpt lat="42.750233989208937" lon="-3.541618036106229">
        <ele>794.19000000000005</ele>
        <time>2025-04-28T09:28:18Z</time>
      </trkpt>
      <trkpt lat="42.749821012839675" lon="-3.541504964232445">
        <ele>794.19000000000005</ele>
        <time>2025-04-28T09:28:22Z</time>
      </trkpt>
      <trkpt lat="42.74972696788609" lon="-3.541474035009742">
        <ele>794.66999999999996</ele>
        <time>2025-04-28T09:28:23Z</time>
      </trkpt>
      <trkpt lat="42.749644992873073" lon="-3.541391976177692">
        <ele>794.66999999999996</ele>
        <time>2025-04-28T09:28:24Z</time>
      </trkpt>
      <trkpt lat="42.749555977061391" lon="-3.541303966194391">
        <ele>794.66999999999996</ele>
        <time>2025-04-28T09:28:25Z</time>
      </trkpt>
      <trkpt lat="42.749463021755219" lon="-3.541210005059838">
        <ele>794.19000000000005</ele>
        <time>2025-04-28T09:28:26Z</time>
      </trkpt>
      <trkpt lat="42.749367970973253" lon="-3.541115038096905">
        <ele>793.71000000000004</ele>
        <time>2025-04-28T09:28:27Z</time>
      </trkpt>
      <trkpt lat="42.749270992353559" lon="-3.541014958173037">
        <ele>793.22000000000003</ele>
        <time>2025-04-28T09:28:28Z</time>
      </trkpt>
      <trkpt lat="42.749180970713496" lon="-3.540904987603426">
        <ele>792.74000000000001</ele>
        <time>2025-04-28T09:28:29Z</time>
      </trkpt>
      <trkpt lat="42.749091032892466" lon="-3.540796022862196">
        <ele>792.25999999999999</ele>
        <time>2025-04-28T09:28:30Z</time>
      </trkpt>
      <trkpt lat="42.7489959821105" lon="-3.540680017322302">
        <ele>792.25999999999999</ele>
        <time>2025-04-28T09:28:31Z</time>
      </trkpt>
      <trkpt lat="42.748698005452752" lon="-3.540306016802788">
        <ele>791.29999999999995</ele>
        <time>2025-04-28T09:28:34Z</time>
      </trkpt>
      <trkpt lat="42.748631034046412" lon="-3.54013997130096">
        <ele>791.29999999999995</ele>
        <time>2025-04-28T09:28:35Z</time>
      </trkpt>
      <trkpt lat="42.74856498464942" lon="-3.539975015446544">
        <ele>790.82000000000005</ele>
        <time>2025-04-28T09:28:36Z</time>
      </trkpt>
      <trkpt lat="42.74850002489984" lon="-3.539811987429857">
        <ele>790.82000000000005</ele>
        <time>2025-04-28T09:28:37Z</time>
      </trkpt>
      <trkpt lat="42.74843598715961" lon="-3.539650971069932">
        <ele>790.34000000000003</ele>
        <time>2025-04-28T09:28:38Z</time>
      </trkpt>
      <trkpt lat="42.748249992728233" lon="-3.539186026901007">
        <ele>790.34000000000003</ele>
        <time>2025-04-28T09:28:41Z</time>
      </trkpt>
      <trkpt lat="42.748219985514879" lon="-3.53900296613574">
        <ele>789.86000000000001</ele>
        <time>2025-04-28T09:28:42Z</time>
      </trkpt>
      <trkpt lat="42.748191989958286" lon="-3.538274997845292">
        <ele>789.86000000000001</ele>
        <time>2025-04-28T09:28:46Z</time>
      </trkpt>
      <trkpt lat="42.748160976916552" lon="-3.538140971213579">
        <ele>790.34000000000003</ele>
        <time>2025-04-28T09:28:47Z</time>
      </trkpt>
      <trkpt lat="42.748098028823733" lon="-3.538014991208911">
        <ele>790.34000000000003</ele>
        <time>2025-04-28T09:28:48Z</time>
      </trkpt>
      <trkpt lat="42.748010018840432" lon="-3.537893034517765">
        <ele>790.82000000000005</ele>
        <time>2025-04-28T09:28:49Z</time>
      </trkpt>
      <trkpt lat="42.747908011078835" lon="-3.537763031199575">
        <ele>790.82000000000005</ele>
        <time>2025-04-28T09:28:50Z</time>
      </trkpt>
      <trkpt lat="42.747010979801416" lon="-3.536656033247709">
        <ele>791.29999999999995</ele>
        <time>2025-04-28T09:28:58Z</time>
      </trkpt>
      <trkpt lat="42.746905032545328" lon="-3.536562994122505">
        <ele>791.29999999999995</ele>
        <time>2025-04-28T09:28:59Z</time>
      </trkpt>
      <trkpt lat="42.746782992035151" lon="-3.53652804158628">
        <ele>791.29999999999995</ele>
        <time>2025-04-28T09:29:00Z</time>
      </trkpt>
      <trkpt lat="42.746651982888579" lon="-3.536562994122505">
        <ele>791.29999999999995</ele>
        <time>2025-04-28T09:29:01Z</time>
      </trkpt>
      <trkpt lat="42.746507981792092" lon="-3.536609010770917">
        <ele>790.82000000000005</ele>
        <time>2025-04-28T09:29:02Z</time>
      </trkpt>
      <trkpt lat="42.746365992352366" lon="-3.536654021590948">
        <ele>790.34000000000003</ele>
        <time>2025-04-28T09:29:03Z</time>
      </trkpt>
      <trkpt lat="42.746193995699286" lon="-3.536641029641032">
        <ele>789.86000000000001</ele>
        <time>2025-04-28T09:29:04Z</time>
      </trkpt>
      <trkpt lat="42.746034990996122" lon="-3.536629965528846">
        <ele>788.41999999999996</ele>
        <time>2025-04-28T09:29:05Z</time>
      </trkpt>
      <trkpt lat="42.745881015434861" lon="-3.536623008549213">
        <ele>787.46000000000004</ele>
        <time>2025-04-28T09:29:06Z</time>
      </trkpt>
      <trkpt lat="42.745569963008165" lon="-3.536632983013988">
        <ele>785.04999999999995</ele>
        <time>2025-04-28T09:29:08Z</time>
      </trkpt>
      <trkpt lat="42.745417999103665" lon="-3.536709006875753">
        <ele>783.61000000000001</ele>
        <time>2025-04-28T09:29:09Z</time>
      </trkpt>
      <trkpt lat="42.745270980522037" lon="-3.536782013252378">
        <ele>781.69000000000005</ele>
        <time>2025-04-28T09:29:10Z</time>
      </trkpt>
      <trkpt lat="42.745110969990492" lon="-3.536858959123492">
        <ele>780.25</ele>
        <time>2025-04-28T09:29:11Z</time>
      </trkpt>
      <trkpt lat="42.744965963065624" lon="-3.536928026005626">
        <ele>778.80999999999995</ele>
        <time>2025-04-28T09:29:12Z</time>
      </trkpt>
      <trkpt lat="42.744821039959788" lon="-3.536997009068728">
        <ele>777.84000000000003</ele>
        <time>2025-04-28T09:29:13Z</time>
      </trkpt>
      <trkpt lat="42.744666980579495" lon="-3.537014024332166">
        <ele>777.36000000000001</ele>
        <time>2025-04-28T09:29:14Z</time>
      </trkpt>
      <trkpt lat="42.744507975876331" lon="-3.537031961604953">
        <ele>775.91999999999996</ele>
        <time>2025-04-28T09:29:15Z</time>
      </trkpt>
      <trkpt lat="42.74420103058219" lon="-3.537008995190263">
        <ele>774.48000000000002</ele>
        <time>2025-04-28T09:29:17Z</time>
      </trkpt>
      <trkpt lat="42.744050994515419" lon="-3.53695803321898">
        <ele>774</ele>
        <time>2025-04-28T09:29:18Z</time>
      </trkpt>
      <trkpt lat="42.743905987590551" lon="-3.536865999922156">
        <ele>773.51999999999998</ele>
        <time>2025-04-28T09:29:19Z</time>
      </trkpt>
      <trkpt lat="42.743757041171193" lon="-3.536772038787603">
        <ele>773.03999999999996</ele>
        <time>2025-04-28T09:29:20Z</time>
      </trkpt>
      <trkpt lat="42.743604993447661" lon="-3.536674976348877">
        <ele>772.55999999999995</ele>
        <time>2025-04-28T09:29:21Z</time>
      </trkpt>
      <trkpt lat="42.742393976077437" lon="-3.535823961719871">
        <ele>773.51999999999998</ele>
        <time>2025-04-28T09:29:29Z</time>
      </trkpt>
      <trkpt lat="42.741972031071782" lon="-3.535492960363627">
        <ele>776.39999999999998</ele>
        <time>2025-04-28T09:29:32Z</time>
      </trkpt>
      <trkpt lat="42.741720993071795" lon="-3.535244017839432">
        <ele>778.80999999999995</ele>
        <time>2025-04-28T09:29:34Z</time>
      </trkpt>
      <trkpt lat="42.741573974490166" lon="-3.535174028947949">
        <ele>779.76999999999998</ele>
        <time>2025-04-28T09:29:35Z</time>
      </trkpt>
      <trkpt lat="42.741427961736917" lon="-3.535104962065816">
        <ele>781.21000000000004</ele>
        <time>2025-04-28T09:29:36Z</time>
      </trkpt>
      <trkpt lat="42.741272980347276" lon="-3.535008989274502">
        <ele>783.13</ele>
        <time>2025-04-28T09:29:37Z</time>
      </trkpt>
      <trkpt lat="42.741153035312891" lon="-3.534858031198382">
        <ele>784.57000000000005</ele>
        <time>2025-04-28T09:29:38Z</time>
      </trkpt>
      <trkpt lat="42.741032000631094" lon="-3.534706989303231">
        <ele>786.01999999999998</ele>
        <time>2025-04-28T09:29:39Z</time>
      </trkpt>
      <trkpt lat="42.740907026454806" lon="-3.534587966278195">
        <ele>787.46000000000004</ele>
        <time>2025-04-28T09:29:40Z</time>
      </trkpt>
      <trkpt lat="42.740763025358319" lon="-3.534513032063842">
        <ele>788.89999999999998</ele>
        <time>2025-04-28T09:29:41Z</time>
      </trkpt>
      <trkpt lat="42.740622041746974" lon="-3.534439019858837">
        <ele>790.82000000000005</ele>
        <time>2025-04-28T09:29:42Z</time>
      </trkpt>
      <trkpt lat="42.740507964044809" lon="-3.534379005432129">
        <ele>792.74000000000001</ele>
        <time>2025-04-28T09:29:43Z</time>
      </trkpt>
      <trkpt lat="42.740354994311929" lon="-3.534206002950668">
        <ele>794.66999999999996</ele>
        <time>2025-04-28T09:29:44Z</time>
      </trkpt>
      <trkpt lat="42.740222979336977" lon="-3.534055966883898">
        <ele>796.11000000000001</ele>
        <time>2025-04-28T09:29:45Z</time>
      </trkpt>
      <trkpt lat="42.739964984357357" lon="-3.533797971904278">
        <ele>799.47000000000003</ele>
        <time>2025-04-28T09:29:47Z</time>
      </trkpt>
      <trkpt lat="42.739824000746012" lon="-3.533708034083247">
        <ele>800.91999999999996</ele>
        <time>2025-04-28T09:29:48Z</time>
      </trkpt>
      <trkpt lat="42.739681005477905" lon="-3.533617006614804">
        <ele>802.36000000000001</ele>
        <time>2025-04-28T09:29:49Z</time>
      </trkpt>
      <trkpt lat="42.739031994715333" lon="-3.533379966393113">
        <ele>810.52999999999997</ele>
        <time>2025-04-28T09:29:54Z</time>
      </trkpt>
      <trkpt lat="42.73889503441751" lon="-3.533392958343029">
        <ele>811.97000000000003</ele>
        <time>2025-04-28T09:29:55Z</time>
      </trkpt>
      <trkpt lat="42.738750027492642" lon="-3.533440986648202">
        <ele>813.40999999999997</ele>
        <time>2025-04-28T09:29:56Z</time>
      </trkpt>
      <trkpt lat="42.738447021692991" lon="-3.533541988581419">
        <ele>815.34000000000003</ele>
        <time>2025-04-28T09:29:58Z</time>
      </trkpt>
      <trkpt lat="42.738320035859942" lon="-3.533552968874574">
        <ele>816.29999999999995</ele>
        <time>2025-04-28T09:29:59Z</time>
      </trkpt>
      <trkpt lat="42.738199001178145" lon="-3.533533019945025">
        <ele>817.25999999999999</ele>
        <time>2025-04-28T09:30:00Z</time>
      </trkpt>
      <trkpt lat="42.738125994801521" lon="-3.53352103382349">
        <ele>817.74000000000001</ele>
        <time>2025-04-28T09:30:01Z</time>
      </trkpt>
      <trkpt lat="42.738046031445265" lon="-3.533408967778087">
        <ele>818.70000000000005</ele>
        <time>2025-04-28T09:30:02Z</time>
      </trkpt>
      <trkpt lat="42.738012000918388" lon="-3.533322969451547">
        <ele>819.17999999999995</ele>
        <time>2025-04-28T09:30:03Z</time>
      </trkpt>
      <trkpt lat="42.737990040332079" lon="-3.53315700776875">
        <ele>819.17999999999995</ele>
        <time>2025-04-28T09:30:04Z</time>
      </trkpt>
      <trkpt lat="42.737964978441596" lon="-3.532965984195471">
        <ele>819.65999999999997</ele>
        <time>2025-04-28T09:30:05Z</time>
      </trkpt>
      <trkpt lat="42.737906975671649" lon="-3.532539010047913">
        <ele>819.17999999999995</ele>
        <time>2025-04-28T09:30:07Z</time>
      </trkpt>
      <trkpt lat="42.737766997888684" lon="-3.532095020636916">
        <ele>818.70000000000005</ele>
        <time>2025-04-28T09:30:09Z</time>
      </trkpt>
      <trkpt lat="42.737030982971191" lon="-3.530537998303771">
        <ele>813.88999999999999</ele>
        <time>2025-04-28T09:30:17Z</time>
      </trkpt>
      <trkpt lat="42.73689896799624" lon="-3.530424004420638">
        <ele>812.92999999999995</ele>
        <time>2025-04-28T09:30:18Z</time>
      </trkpt>
      <trkpt lat="42.73679100908339" lon="-3.530331971123815">
        <ele>811.97000000000003</ele>
        <time>2025-04-28T09:30:19Z</time>
      </trkpt>
      <trkpt lat="42.736673997715116" lon="-3.530268017202616">
        <ele>811.49000000000001</ele>
        <time>2025-04-28T09:30:20Z</time>
      </trkpt>
      <trkpt lat="42.736537959426641" lon="-3.530239015817642">
        <ele>811.00999999999999</ele>
        <time>2025-04-28T09:30:21Z</time>
      </trkpt>
      <trkpt lat="42.736399993300438" lon="-3.530230969190598">
        <ele>810.52999999999997</ele>
        <time>2025-04-28T09:30:22Z</time>
      </trkpt>
      <trkpt lat="42.736273007467389" lon="-3.530295006930828">
        <ele>810.04999999999995</ele>
        <time>2025-04-28T09:30:23Z</time>
      </trkpt>
      <trkpt lat="42.73614501580596" lon="-3.530358960852027">
        <ele>810.04999999999995</ele>
        <time>2025-04-28T09:30:24Z</time>
      </trkpt>
      <trkpt lat="42.736006965860724" lon="-3.530366001650691">
        <ele>809.09000000000003</ele>
        <time>2025-04-28T09:30:25Z</time>
      </trkpt>
      <trkpt lat="42.735877968370914" lon="-3.530339011922479">
        <ele>809.09000000000003</ele>
        <time>2025-04-28T09:30:26Z</time>
      </trkpt>
      <trkpt lat="42.735746037214994" lon="-3.530275980010629">
        <ele>808.61000000000001</ele>
        <time>2025-04-28T09:30:27Z</time>
      </trkpt>
      <trkpt lat="42.735603963956237" lon="-3.530210014432669">
        <ele>808.61000000000001</ele>
        <time>2025-04-28T09:30:28Z</time>
      </trkpt>
      <trkpt lat="42.735452000051737" lon="-3.53016902692616">
        <ele>808.13</ele>
        <time>2025-04-28T09:30:29Z</time>
      </trkpt>
      <trkpt lat="42.735296012833714" lon="-3.530136002227664">
        <ele>808.13</ele>
        <time>2025-04-28T09:30:30Z</time>
      </trkpt>
      <trkpt lat="42.735148994252086" lon="-3.530051009729505">
        <ele>808.13</ele>
        <time>2025-04-28T09:30:31Z</time>
      </trkpt>
      <trkpt lat="42.735002981498837" lon="-3.529957970604301">
        <ele>808.13</ele>
        <time>2025-04-28T09:30:32Z</time>
      </trkpt>
      <trkpt lat="42.734860992059112" lon="-3.529866021126509">
        <ele>808.13</ele>
        <time>2025-04-28T09:30:33Z</time>
      </trkpt>
      <trkpt lat="42.734725037589669" lon="-3.529779016971588">
        <ele>808.13</ele>
        <time>2025-04-28T09:30:34Z</time>
      </trkpt>
      <trkpt lat="42.734581036493182" lon="-3.529740041121841">
        <ele>807.63999999999999</ele>
        <time>2025-04-28T09:30:35Z</time>
      </trkpt>
      <trkpt lat="42.734443992376328" lon="-3.529733000323176">
        <ele>807.15999999999997</ele>
        <time>2025-04-28T09:30:36Z</time>
      </trkpt>
      <trkpt lat="42.734306026250124" lon="-3.529725959524512">
        <ele>806.67999999999995</ele>
        <time>2025-04-28T09:30:37Z</time>
      </trkpt>
      <trkpt lat="42.734156996011734" lon="-3.529720008373261">
        <ele>806.20000000000005</ele>
        <time>2025-04-28T09:30:38Z</time>
      </trkpt>
      <trkpt lat="42.733830017969012" lon="-3.529707016423345">
        <ele>803.79999999999995</ele>
        <time>2025-04-28T09:30:40Z</time>
      </trkpt>
      <trkpt lat="42.733242027461529" lon="-3.529742974787951">
        <ele>799.47000000000003</ele>
        <time>2025-04-28T09:30:44Z</time>
      </trkpt>
      <trkpt lat="42.733118981122971" lon="-3.529809024184942">
        <ele>798.50999999999999</ele>
        <time>2025-04-28T09:30:45Z</time>
      </trkpt>
      <trkpt lat="42.732991995289922" lon="-3.529883958399296">
        <ele>797.54999999999995</ele>
        <time>2025-04-28T09:30:46Z</time>
      </trkpt>
      <trkpt lat="42.732724025845528" lon="-3.530011028051376">
        <ele>794.19000000000005</ele>
        <time>2025-04-28T09:30:48Z</time>
      </trkpt>
      <trkpt lat="42.73260198533535" lon="-3.529998958110809">
        <ele>792.74000000000001</ele>
        <time>2025-04-28T09:30:49Z</time>
      </trkpt>
      <trkpt lat="42.732500983402133" lon="-3.529931986704469">
        <ele>791.29999999999995</ele>
        <time>2025-04-28T09:30:50Z</time>
      </trkpt>
      <trkpt lat="42.732397969812155" lon="-3.529824027791619">
        <ele>789.86000000000001</ele>
        <time>2025-04-28T09:30:51Z</time>
      </trkpt>
      <trkpt lat="42.732294034212828" lon="-3.529714979231358">
        <ele>788.89999999999998</ele>
        <time>2025-04-28T09:30:52Z</time>
      </trkpt>
      <trkpt lat="42.732193032279611" lon="-3.529609031975269">
        <ele>788.41999999999996</ele>
        <time>2025-04-28T09:30:53Z</time>
      </trkpt>
      <trkpt lat="42.732118014246225" lon="-3.529529990628362">
        <ele>787.46000000000004</ele>
        <time>2025-04-28T09:30:54Z</time>
      </trkpt>
      <trkpt lat="42.731978036463261" lon="-3.529487997293472">
        <ele>786.98000000000002</ele>
        <time>2025-04-28T09:30:55Z</time>
      </trkpt>
      <trkpt lat="42.731859013438225" lon="-3.529468970373273">
        <ele>786.5</ele>
        <time>2025-04-28T09:30:56Z</time>
      </trkpt>
      <trkpt lat="42.731730015948415" lon="-3.529479028657079">
        <ele>785.52999999999997</ele>
        <time>2025-04-28T09:30:57Z</time>
      </trkpt>
      <trkpt lat="42.73158903233707" lon="-3.529492020606995">
        <ele>784.57000000000005</ele>
        <time>2025-04-28T09:30:58Z</time>
      </trkpt>
      <trkpt lat="42.731317039579153" lon="-3.529550023376942">
        <ele>783.13</ele>
        <time>2025-04-28T09:31:00Z</time>
      </trkpt>
      <trkpt lat="42.731192987412214" lon="-3.529598973691464">
        <ele>782.16999999999996</ele>
        <time>2025-04-28T09:31:01Z</time>
      </trkpt>
      <trkpt lat="42.730876989662647" lon="-3.529754960909486">
        <ele>779.28999999999996</ele>
        <time>2025-04-28T09:31:04Z</time>
      </trkpt>
      <trkpt lat="42.730820998549461" lon="-3.52980500087142">
        <ele>777.84000000000003</ele>
        <time>2025-04-28T09:31:05Z</time>
      </trkpt>
      <trkpt lat="42.730743968859315" lon="-3.529872978106141">
        <ele>776.88</ele>
        <time>2025-04-28T09:31:06Z</time>
      </trkpt>
      <trkpt lat="42.730735000222921" lon="-3.529897034168243">
        <ele>775.91999999999996</ele>
        <time>2025-04-28T09:31:07Z</time>
      </trkpt>
      <trkpt lat="42.730800965800881" lon="-3.529972974210978">
        <ele>774.96000000000004</ele>
        <time>2025-04-28T09:31:08Z</time>
      </trkpt>
      <trkpt lat="42.730833990499377" lon="-3.530031982809305">
        <ele>774.48000000000002</ele>
        <time>2025-04-28T09:31:09Z</time>
      </trkpt>
      <trkpt lat="42.730877995491028" lon="-3.530110018327832">
        <ele>773.51999999999998</ele>
        <time>2025-04-28T09:31:10Z</time>
      </trkpt>
      <trkpt lat="42.730938009917736" lon="-3.530218983069062">
        <ele>773.03999999999996</ele>
        <time>2025-04-28T09:31:11Z</time>
      </trkpt>
      <trkpt lat="42.730949996039271" lon="-3.530343035236001">
        <ele>772.55999999999995</ele>
        <time>2025-04-28T09:31:12Z</time>
      </trkpt>
      <trkpt lat="42.730962987989187" lon="-3.53047102689743">
        <ele>772.55999999999995</ele>
        <time>2025-04-28T09:31:13Z</time>
      </trkpt>
      <trkpt lat="42.730975979939103" lon="-3.530602036044002">
        <ele>772.08000000000004</ele>
        <time>2025-04-28T09:31:14Z</time>
      </trkpt>
      <trkpt lat="42.73094798438251" lon="-3.530742013826966">
        <ele>771.60000000000002</ele>
        <time>2025-04-28T09:31:15Z</time>
      </trkpt>
      <trkpt lat="42.730906996876001" lon="-3.530865982174873">
        <ele>771.11000000000001</ele>
        <time>2025-04-28T09:31:16Z</time>
      </trkpt>
      <trkpt lat="42.73086198605597" lon="-3.531001014634967">
        <ele>770.63</ele>
        <time>2025-04-28T09:31:17Z</time>
      </trkpt>
      <trkpt lat="42.730815969407558" lon="-3.53113898076117">
        <ele>769.66999999999996</ele>
        <time>2025-04-28T09:31:18Z</time>
      </trkpt>
      <trkpt lat="42.730637015774846" lon="-3.531500995159149">
        <ele>766.78999999999996</ele>
        <time>2025-04-28T09:31:21Z</time>
      </trkpt>
      <trkpt lat="42.730574989691377" lon="-3.531617000699043">
        <ele>766.30999999999995</ele>
        <time>2025-04-28T09:31:22Z</time>
      </trkpt>
      <trkpt lat="42.730514975264668" lon="-3.531726971268654">
        <ele>765.35000000000002</ele>
        <time>2025-04-28T09:31:23Z</time>
      </trkpt>
      <trkpt lat="42.730477005243301" lon="-3.531836019828916">
        <ele>764.87</ele>
        <time>2025-04-28T09:31:24Z</time>
      </trkpt>
      <trkpt lat="42.730444986373186" lon="-3.531939033418894">
        <ele>764.38999999999999</ele>
        <time>2025-04-28T09:31:25Z</time>
      </trkpt>
      <trkpt lat="42.730341972783208" lon="-3.532367013394833">
        <ele>763.89999999999998</ele>
        <time>2025-04-28T09:31:29Z</time>
      </trkpt>
      <trkpt lat="42.730349013581872" lon="-3.532493999227881">
        <ele>763.89999999999998</ele>
        <time>2025-04-28T09:31:30Z</time>
      </trkpt>
      <trkpt lat="42.730328980833292" lon="-3.533863015472889">
        <ele>767.26999999999998</ele>
        <time>2025-04-28T09:31:38Z</time>
      </trkpt>
      <trkpt lat="42.730228984728456" lon="-3.535566972568631">
        <ele>777.84000000000003</ele>
        <time>2025-04-28T09:31:47Z</time>
      </trkpt>
      <trkpt lat="42.730251029133797" lon="-3.536525024101138">
        <ele>783.13</ele>
        <time>2025-04-28T09:31:52Z</time>
      </trkpt>
      <trkpt lat="42.730218004435301" lon="-3.536674976348877">
        <ele>784.09000000000003</ele>
        <time>2025-04-28T09:31:53Z</time>
      </trkpt>
      <trkpt lat="42.730176011100411" lon="-3.536860970780253">
        <ele>785.04999999999995</ele>
        <time>2025-04-28T09:31:54Z</time>
      </trkpt>
      <trkpt lat="42.730135023593903" lon="-3.537045959383249">
        <ele>786.01999999999998</ele>
        <time>2025-04-28T09:31:55Z</time>
      </trkpt>
      <trkpt lat="42.730094036087394" lon="-3.537229020148516">
        <ele>787.46000000000004</ele>
        <time>2025-04-28T09:31:56Z</time>
      </trkpt>
      <trkpt lat="42.730079032480717" lon="-3.537428006529808">
        <ele>788.89999999999998</ele>
        <time>2025-04-28T09:31:57Z</time>
      </trkpt>
      <trkpt lat="42.730079032480717" lon="-3.537618024274707">
        <ele>790.34000000000003</ele>
        <time>2025-04-28T09:31:58Z</time>
      </trkpt>
      <trkpt lat="42.730079032480717" lon="-3.537803012877703">
        <ele>791.77999999999997</ele>
        <time>2025-04-28T09:31:59Z</time>
      </trkpt>
      <trkpt lat="42.730079032480717" lon="-3.537989007309079">
        <ele>793.22000000000003</ele>
        <time>2025-04-28T09:32:00Z</time>
      </trkpt>
      <trkpt lat="42.730079032480717" lon="-3.538351021707058">
        <ele>796.59000000000003</ele>
        <time>2025-04-28T09:32:02Z</time>
      </trkpt>
      <trkpt lat="42.730056988075376" lon="-3.538503991439939">
        <ele>798.02999999999997</ele>
        <time>2025-04-28T09:32:03Z</time>
      </trkpt>
      <trkpt lat="42.73002203553915" lon="-3.538652015849948">
        <ele>799.95000000000005</ele>
        <time>2025-04-28T09:32:04Z</time>
      </trkpt>
      <trkpt lat="42.729990016669035" lon="-3.53878797031939">
        <ele>801.39999999999998</ele>
        <time>2025-04-28T09:32:05Z</time>
      </trkpt>
      <trkpt lat="42.72997903637588" lon="-3.53891596198082">
        <ele>802.84000000000003</ele>
        <time>2025-04-28T09:32:06Z</time>
      </trkpt>
      <trkpt lat="42.729996973648667" lon="-3.539056023582816">
        <ele>804.27999999999997</ele>
        <time>2025-04-28T09:32:07Z</time>
      </trkpt>
      <trkpt lat="42.730079032480717" lon="-3.540219012647867">
        <ele>813.40999999999997</ele>
        <time>2025-04-28T09:32:13Z</time>
      </trkpt>
      <trkpt lat="42.730028992518783" lon="-3.541015964001417">
        <ele>820.62</ele>
        <time>2025-04-28T09:32:17Z</time>
      </trkpt>
      <trkpt lat="42.729947017505765" lon="-3.541876031085849">
        <ele>829.26999999999998</ele>
        <time>2025-04-28T09:32:22Z</time>
      </trkpt>
      <trkpt lat="42.729932013899088" lon="-3.54207300581038">
        <ele>835.03999999999996</ele>
        <time>2025-04-28T09:32:26Z</time>
      </trkpt>
      <trkpt lat="42.729932013899088" lon="-3.54207300581038">
        <ele>839.85000000000002</ele>
        <time>2025-04-28T09:32:43Z</time>
      </trkpt>
      <trkpt lat="42.729932013899088" lon="-3.54207300581038">
        <ele>839.85000000000002</ele>
        <time>2025-04-28T09:33:07Z</time>
      </trkpt>
      <trkpt lat="42.729928996413946" lon="-3.542104018852115">
        <ele>841.76999999999998</ele>
        <time>2025-04-28T09:33:19Z</time>
      </trkpt>
      <trkpt lat="42.729928996413946" lon="-3.542104018852115">
        <ele>843.21000000000004</ele>
        <time>2025-04-28T09:33:20Z</time>
      </trkpt>
      <trkpt lat="42.729928996413946" lon="-3.542104018852115">
        <ele>844.17999999999995</ele>
        <time>2025-04-28T09:33:21Z</time>
      </trkpt>
      <trkpt lat="42.72995799779892" lon="-3.542126985266805">
        <ele>845.13999999999999</ele>
        <time>2025-04-28T09:33:22Z</time>
      </trkpt>
      <trkpt lat="42.73002102971077" lon="-3.542177025228739">
        <ele>845.62</ele>
        <time>2025-04-28T09:33:23Z</time>
      </trkpt>
      <trkpt lat="42.730113985016942" lon="-3.542251959443092">
        <ele>845.62</ele>
        <time>2025-04-28T09:33:24Z</time>
      </trkpt>
      <trkpt lat="42.730213981121778" lon="-3.542332006618381">
        <ele>846.10000000000002</ele>
        <time>2025-04-28T09:33:25Z</time>
      </trkpt>
      <trkpt lat="42.730310959741473" lon="-3.542409036308527">
        <ele>846.58000000000004</ele>
        <time>2025-04-28T09:33:26Z</time>
      </trkpt>
      <trkpt lat="42.730391006916761" lon="-3.542504003271461">
        <ele>847.05999999999995</ele>
        <time>2025-04-28T09:33:27Z</time>
      </trkpt>
      <trkpt lat="42.730456972494721" lon="-3.542615985497832">
        <ele>848.01999999999998</ele>
        <time>2025-04-28T09:33:28Z</time>
      </trkpt>
      <trkpt lat="42.730518998578191" lon="-3.542735008522868">
        <ele>848.98000000000002</ele>
        <time>2025-04-28T09:33:29Z</time>
      </trkpt>
      <trkpt lat="42.730569038540125" lon="-3.542872974649072">
        <ele>849.94000000000005</ele>
        <time>2025-04-28T09:33:30Z</time>
      </trkpt>
      <trkpt lat="42.730643972754478" lon="-3.543181009590626">
        <ele>851.38</ele>
        <time>2025-04-28T09:33:32Z</time>
      </trkpt>
      <trkpt lat="42.730684038251638" lon="-3.543375972658396">
        <ele>851.38</ele>
        <time>2025-04-28T09:33:33Z</time>
      </trkpt>
      <trkpt lat="42.730726031586528" lon="-3.54357797652483">
        <ele>851.87</ele>
        <time>2025-04-28T09:33:34Z</time>
      </trkpt>
      <trkpt lat="42.730770036578178" lon="-3.54379003867507">
        <ele>851.87</ele>
        <time>2025-04-28T09:33:35Z</time>
      </trkpt>
      <trkpt lat="42.730814963579178" lon="-3.544006962329149">
        <ele>851.87</ele>
        <time>2025-04-28T09:33:36Z</time>
      </trkpt>
      <trkpt lat="42.730913031846285" lon="-3.544234028086066">
        <ele>851.87</ele>
        <time>2025-04-28T09:33:37Z</time>
      </trkpt>
      <trkpt lat="42.73101001046598" lon="-3.544417005032301">
        <ele>851.87</ele>
        <time>2025-04-28T09:33:38Z</time>
      </trkpt>
      <trkpt lat="42.731905030086637" lon="-3.545888029038906">
        <ele>852.83000000000004</ele>
        <time>2025-04-28T09:33:47Z</time>
      </trkpt>
      <trkpt lat="42.732721008360386" lon="-3.547021010890603">
        <ele>859.55999999999995</ele>
        <time>2025-04-28T09:33:55Z</time>
      </trkpt>
      <trkpt lat="42.732878001406789" lon="-3.547460976988077">
        <ele>866.28999999999996</ele>
        <time>2025-04-28T09:33:57Z</time>
      </trkpt>
      <trkpt lat="42.732946984469891" lon="-3.547684019431472">
        <ele>868.21000000000004</ele>
        <time>2025-04-28T09:33:58Z</time>
      </trkpt>
      <trkpt lat="42.733184024691582" lon="-3.548522964119911">
        <ele>870.13</ele>
        <time>2025-04-28T09:34:02Z</time>
      </trkpt>
      <trkpt lat="42.733249990269542" lon="-3.548720022663474">
        <ele>870.13</ele>
        <time>2025-04-28T09:34:03Z</time>
      </trkpt>
      <trkpt lat="42.733316039666533" lon="-3.548919009044766">
        <ele>870.61000000000001</ele>
        <time>2025-04-28T09:34:04Z</time>
      </trkpt>
      <trkpt lat="42.733359038829803" lon="-3.549135010689497">
        <ele>870.61000000000001</ele>
        <time>2025-04-28T09:34:05Z</time>
      </trkpt>
      <trkpt lat="42.733397008851171" lon="-3.549337014555931">
        <ele>870.61000000000001</ele>
        <time>2025-04-28T09:34:06Z</time>
      </trkpt>
      <trkpt lat="42.733431961387396" lon="-3.549525020644069">
        <ele>871.09000000000003</ele>
        <time>2025-04-28T09:34:07Z</time>
      </trkpt>
      <trkpt lat="42.733464986085892" lon="-3.549698023125529">
        <ele>871.57000000000005</ele>
        <time>2025-04-28T09:34:08Z</time>
      </trkpt>
      <trkpt lat="42.733532963320613" lon="-3.549841018393636">
        <ele>872.04999999999995</ele>
        <time>2025-04-28T09:34:09Z</time>
      </trkpt>
      <trkpt lat="42.733609993010759" lon="-3.549985019490123">
        <ele>872.04999999999995</ele>
        <time>2025-04-28T09:34:10Z</time>
      </trkpt>
      <trkpt lat="42.733822977170348" lon="-3.550420962274075">
        <ele>873.00999999999999</ele>
        <time>2025-04-28T09:34:13Z</time>
      </trkpt>
      <trkpt lat="42.733851978555322" lon="-3.550578961148858">
        <ele>873.5</ele>
        <time>2025-04-28T09:34:14Z</time>
      </trkpt>
      <trkpt lat="42.733863964676857" lon="-3.550740983337164">
        <ele>873.98000000000002</ele>
        <time>2025-04-28T09:34:15Z</time>
      </trkpt>
      <trkpt lat="42.733877040445805" lon="-3.550943993031979">
        <ele>874.94000000000005</ele>
        <time>2025-04-28T09:34:17Z</time>
      </trkpt>
      <trkpt lat="42.733946023508906" lon="-3.55101297609508">
        <ele>876.38</ele>
        <time>2025-04-28T09:34:18Z</time>
      </trkpt>
      <trkpt lat="42.734049037098885" lon="-3.551115989685059">
        <ele>877.34000000000003</ele>
        <time>2025-04-28T09:34:19Z</time>
      </trkpt>
      <trkpt lat="42.734075020998716" lon="-3.551127975806594">
        <ele>877.82000000000005</ele>
        <time>2025-04-28T09:34:20Z</time>
      </trkpt>
      <trkpt lat="42.734171999618411" lon="-3.551171980798245">
        <ele>878.29999999999995</ele>
        <time>2025-04-28T09:34:21Z</time>
      </trkpt>
      <trkpt lat="42.734275013208389" lon="-3.551219003275037">
        <ele>879.25999999999999</ele>
        <time>2025-04-28T09:34:22Z</time>
      </trkpt>
      <trkpt lat="42.734391018748283" lon="-3.551271976903081">
        <ele>879.74000000000001</ele>
        <time>2025-04-28T09:34:23Z</time>
      </trkpt>
      <trkpt lat="42.734786979854107" lon="-3.551469035446644">
        <ele>881.66999999999996</ele>
        <time>2025-04-28T09:34:26Z</time>
      </trkpt>
      <trkpt lat="42.734893010929227" lon="-3.551583029329777">
        <ele>882.14999999999998</ele>
        <time>2025-04-28T09:34:27Z</time>
      </trkpt>
      <trkpt lat="42.734995018690825" lon="-3.551691994071007">
        <ele>883.11000000000001</ele>
        <time>2025-04-28T09:34:28Z</time>
      </trkpt>
      <trkpt lat="42.735096020624042" lon="-3.551847981289029">
        <ele>884.07000000000005</ele>
        <time>2025-04-28T09:34:29Z</time>
      </trkpt>
      <trkpt lat="42.735129967331886" lon="-3.551987037062645">
        <ele>884.07000000000005</ele>
        <time>2025-04-28T09:34:30Z</time>
      </trkpt>
      <trkpt lat="42.735114963725209" lon="-3.552156016230583">
        <ele>884.54999999999995</ele>
        <time>2025-04-28T09:34:31Z</time>
      </trkpt>
      <trkpt lat="42.735081017017365" lon="-3.552302028983831">
        <ele>884.54999999999995</ele>
        <time>2025-04-28T09:34:32Z</time>
      </trkpt>
      <trkpt lat="42.735042041167617" lon="-3.552462039515376">
        <ele>885.02999999999997</ele>
        <time>2025-04-28T09:34:33Z</time>
      </trkpt>
      <trkpt lat="42.735036006197333" lon="-3.552612997591496">
        <ele>885.50999999999999</ele>
        <time>2025-04-28T09:34:34Z</time>
      </trkpt>
      <trkpt lat="42.735036006197333" lon="-3.552767978981137">
        <ele>885.99000000000001</ele>
        <time>2025-04-28T09:34:35Z</time>
      </trkpt>
      <trkpt lat="42.7350739762187" lon="-3.552891025319696">
        <ele>886.47000000000003</ele>
        <time>2025-04-28T09:34:36Z</time>
      </trkpt>
      <trkpt lat="42.735128039494157" lon="-3.553066039457917">
        <ele>886.47000000000003</ele>
        <time>2025-04-28T09:34:37Z</time>
      </trkpt>
      <trkpt lat="42.735184030607343" lon="-3.553248010575771">
        <ele>886.95000000000005</ele>
        <time>2025-04-28T09:34:38Z</time>
      </trkpt>
      <trkpt lat="42.73571896366775" lon="-3.555113989859819">
        <ele>888.39999999999998</ele>
        <time>2025-04-28T09:34:47Z</time>
      </trkpt>
      <trkpt lat="42.735799010843039" lon="-3.5552669595927">
        <ele>888.39999999999998</ele>
        <time>2025-04-28T09:34:48Z</time>
      </trkpt>
      <trkpt lat="42.735892971977592" lon="-3.555435016751289">
        <ele>888.88</ele>
        <time>2025-04-28T09:34:49Z</time>
      </trkpt>
      <trkpt lat="42.735994979739189" lon="-3.555618999525905">
        <ele>888.88</ele>
        <time>2025-04-28T09:34:50Z</time>
      </trkpt>
      <trkpt lat="42.736950013786554" lon="-3.557326979935169">
        <ele>889.84000000000003</ele>
        <time>2025-04-28T09:34:59Z</time>
      </trkpt>
      <trkpt lat="42.737285038456321" lon="-3.558057965710759">
        <ele>890.79999999999995</ele>
        <time>2025-04-28T09:35:03Z</time>
      </trkpt>
      <trkpt lat="42.73732703179121" lon="-3.558246977627277">
        <ele>890.79999999999995</ele>
        <time>2025-04-28T09:35:04Z</time>
      </trkpt>
      <trkpt lat="42.737400038167834" lon="-3.558632964268327">
        <ele>891.27999999999997</ele>
        <time>2025-04-28T09:35:06Z</time>
      </trkpt>
      <trkpt lat="42.737481007352471" lon="-3.558794986456633">
        <ele>891.27999999999997</ele>
        <time>2025-04-28T09:35:07Z</time>
      </trkpt>
      <trkpt lat="42.738271001726389" lon="-3.560147993266583">
        <ele>891.75999999999999</ele>
        <time>2025-04-28T09:35:15Z</time>
      </trkpt>
      <trkpt lat="42.738296985626221" lon="-3.560193004086614">
        <ele>891.75999999999999</ele>
        <time>2025-04-28T09:35:16Z</time>
      </trkpt>
      <trkpt lat="42.738432018086314" lon="-3.560252012684941">
        <ele>891.75999999999999</ele>
        <time>2025-04-28T09:35:17Z</time>
      </trkpt>
      <trkpt lat="42.738522039726377" lon="-3.56029199436307">
        <ele>891.75999999999999</ele>
        <time>2025-04-28T09:35:18Z</time>
      </trkpt>
      <trkpt lat="42.738618012517691" lon="-3.56033499352634">
        <ele>891.75999999999999</ele>
        <time>2025-04-28T09:35:19Z</time>
      </trkpt>
      <trkpt lat="42.738713985309005" lon="-3.560424009338021">
        <ele>892.24000000000001</ele>
        <time>2025-04-28T09:35:20Z</time>
      </trkpt>
      <trkpt lat="42.738775005564094" lon="-3.560546971857548">
        <ele>892.24000000000001</ele>
        <time>2025-04-28T09:35:21Z</time>
      </trkpt>
      <trkpt lat="42.738840971142054" lon="-3.560687033459544">
        <ele>892.72000000000003</ele>
        <time>2025-04-28T09:35:22Z</time>
      </trkpt>
      <trkpt lat="42.738913977518678" lon="-3.560854000970721">
        <ele>893.20000000000005</ele>
        <time>2025-04-28T09:35:23Z</time>
      </trkpt>
      <trkpt lat="42.738992013037205" lon="-3.561033038422465">
        <ele>893.67999999999995</ele>
        <time>2025-04-28T09:35:24Z</time>
      </trkpt>
      <trkpt lat="42.739340029656887" lon="-3.56173200532794">
        <ele>896.09000000000003</ele>
        <time>2025-04-28T09:35:28Z</time>
      </trkpt>
      <trkpt lat="42.739450000226498" lon="-3.561847005039454">
        <ele>896.09000000000003</ele>
        <time>2025-04-28T09:35:29Z</time>
      </trkpt>
      <trkpt lat="42.739687040448189" lon="-3.562094019725919">
        <ele>897.04999999999995</ele>
        <time>2025-04-28T09:35:31Z</time>
      </trkpt>
      <trkpt lat="42.739787036553025" lon="-3.562231985852122">
        <ele>897.52999999999997</ele>
        <time>2025-04-28T09:35:32Z</time>
      </trkpt>
      <trkpt lat="42.739869011566043" lon="-3.562408005818725">
        <ele>897.52999999999997</ele>
        <time>2025-04-28T09:35:33Z</time>
      </trkpt>
      <trkpt lat="42.739928020164371" lon="-3.562582014128566">
        <ele>898.00999999999999</ele>
        <time>2025-04-28T09:35:34Z</time>
      </trkpt>
      <trkpt lat="42.739971019327641" lon="-3.562773959711194">
        <ele>898.00999999999999</ele>
        <time>2025-04-28T09:35:35Z</time>
      </trkpt>
      <trkpt lat="42.739956015720963" lon="-3.562985016033053">
        <ele>898.49000000000001</ele>
        <time>2025-04-28T09:35:36Z</time>
      </trkpt>
      <trkpt lat="42.739943023771048" lon="-3.563184002414346">
        <ele>898.49000000000001</ele>
        <time>2025-04-28T09:35:37Z</time>
      </trkpt>
      <trkpt lat="42.739929025992751" lon="-3.563378965482116">
        <ele>898.49000000000001</ele>
        <time>2025-04-28T09:35:38Z</time>
      </trkpt>
      <trkpt lat="42.739960039034486" lon="-3.56358096934855">
        <ele>898.49000000000001</ele>
        <time>2025-04-28T09:35:39Z</time>
      </trkpt>
      <trkpt lat="42.740117032080889" lon="-3.564413962885737">
        <ele>899.45000000000005</ele>
        <time>2025-04-28T09:35:43Z</time>
      </trkpt>
      <trkpt lat="42.740167994052172" lon="-3.564623007550836">
        <ele>899.92999999999995</ele>
        <time>2025-04-28T09:35:44Z</time>
      </trkpt>
      <trkpt lat="42.740252986550331" lon="-3.564832974225283">
        <ele>900.40999999999997</ele>
        <time>2025-04-28T09:35:45Z</time>
      </trkpt>
      <trkpt lat="42.740364968776703" lon="-3.565026009455323">
        <ele>900.88999999999999</ele>
        <time>2025-04-28T09:35:46Z</time>
      </trkpt>
      <trkpt lat="42.74048700928688" lon="-3.565194988623262">
        <ele>901.37</ele>
        <time>2025-04-28T09:35:47Z</time>
      </trkpt>
      <trkpt lat="42.740608965978026" lon="-3.5653639677912">
        <ele>901.37</ele>
        <time>2025-04-28T09:35:48Z</time>
      </trkpt>
      <trkpt lat="42.74085103534162" lon="-3.565698992460966">
        <ele>902.33000000000004</ele>
        <time>2025-04-28T09:35:50Z</time>
      </trkpt>
      <trkpt lat="42.740920018404722" lon="-3.565898984670639">
        <ele>902.33000000000004</ele>
        <time>2025-04-28T09:35:51Z</time>
      </trkpt>
      <trkpt lat="42.74098196066916" lon="-3.566122027114034">
        <ele>901.85000000000002</ele>
        <time>2025-04-28T09:35:52Z</time>
      </trkpt>
      <trkpt lat="42.741464003920555" lon="-3.567927991971374">
        <ele>902.33000000000004</ele>
        <time>2025-04-28T09:36:00Z</time>
      </trkpt>
      <trkpt lat="42.741585038602352" lon="-3.568333005532622">
        <ele>901.85000000000002</ele>
        <time>2025-04-28T09:36:02Z</time>
      </trkpt>
      <trkpt lat="42.741599958389997" lon="-3.56856401078403">
        <ele>901.37</ele>
        <time>2025-04-28T09:36:03Z</time>
      </trkpt>
      <trkpt lat="42.741630971431732" lon="-3.569028032943606">
        <ele>901.37</ele>
        <time>2025-04-28T09:36:05Z</time>
      </trkpt>
      <trkpt lat="42.741648992523551" lon="-3.569257026538253">
        <ele>900.88999999999999</ele>
        <time>2025-04-28T09:36:06Z</time>
      </trkpt>
      <trkpt lat="42.74173297919333" lon="-3.569440003484488">
        <ele>900.88999999999999</ele>
        <time>2025-04-28T09:36:07Z</time>
      </trkpt>
      <trkpt lat="42.741813026368618" lon="-3.56961602345109">
        <ele>900.88999999999999</ele>
        <time>2025-04-28T09:36:08Z</time>
      </trkpt>
      <trkpt lat="42.741893995553255" lon="-3.569792965427041">
        <ele>900.88999999999999</ele>
        <time>2025-04-28T09:36:09Z</time>
      </trkpt>
      <trkpt lat="42.741975970566273" lon="-3.569972002878785">
        <ele>901.37</ele>
        <time>2025-04-28T09:36:10Z</time>
      </trkpt>
      <trkpt lat="42.742013018578291" lon="-3.570179035887122">
        <ele>901.37</ele>
        <time>2025-04-28T09:36:11Z</time>
      </trkpt>
      <trkpt lat="42.742042019963264" lon="-3.570397971197963">
        <ele>901.37</ele>
        <time>2025-04-28T09:36:12Z</time>
      </trkpt>
      <trkpt lat="42.742347959429026" lon="-3.572495961561799">
        <ele>904.74000000000001</ele>
        <time>2025-04-28T09:36:21Z</time>
      </trkpt>
      <trkpt lat="42.742582987993956" lon="-3.573299031704664">
        <ele>906.17999999999995</ele>
        <time>2025-04-28T09:36:25Z</time>
      </trkpt>
      <trkpt lat="42.742672003805637" lon="-3.573474967852235">
        <ele>907.13999999999999</ele>
        <time>2025-04-28T09:36:26Z</time>
      </trkpt>
      <trkpt lat="42.743699038401246" lon="-3.574710041284561">
        <ele>913.87</ele>
        <time>2025-04-28T09:36:34Z</time>
      </trkpt>
      <trkpt lat="42.743808003142476" lon="-3.57490299269557">
        <ele>915.30999999999995</ele>
        <time>2025-04-28T09:36:35Z</time>
      </trkpt>
      <trkpt lat="42.743897018954158" lon="-3.575110025703907">
        <ele>916.75</ele>
        <time>2025-04-28T09:36:36Z</time>
      </trkpt>
      <trkpt lat="42.743977988138795" lon="-3.575317980721593">
        <ele>918.20000000000005</ele>
        <time>2025-04-28T09:36:37Z</time>
      </trkpt>
      <trkpt lat="42.744047977030277" lon="-3.575513027608395">
        <ele>919.63999999999999</ele>
        <time>2025-04-28T09:36:38Z</time>
      </trkpt>
      <trkpt lat="42.744083013385534" lon="-3.575760964304209">
        <ele>921.08000000000004</ele>
        <time>2025-04-28T09:36:39Z</time>
      </trkpt>
      <trkpt lat="42.74411603808403" lon="-3.576004961505532">
        <ele>922.51999999999998</ele>
        <time>2025-04-28T09:36:40Z</time>
      </trkpt>
      <trkpt lat="42.744149984791875" lon="-3.576248036697507">
        <ele>923.48000000000002</ele>
        <time>2025-04-28T09:36:41Z</time>
      </trkpt>
      <trkpt lat="42.744262972846627" lon="-3.578603016212583">
        <ele>935.01999999999998</ele>
        <time>2025-04-28T09:36:51Z</time>
      </trkpt>
      <trkpt lat="42.744090976193547" lon="-3.579646982252598">
        <ele>938.38</ele>
        <time>2025-04-28T09:36:57Z</time>
      </trkpt>
      <trkpt lat="42.744021993130445" lon="-3.579979995265603">
        <ele>938.86000000000001</ele>
        <time>2025-04-28T09:37:00Z</time>
      </trkpt>
      <trkpt lat="42.74396600201726" lon="-3.580290041863918">
        <ele>938.86000000000001</ele>
        <time>2025-04-28T09:37:03Z</time>
      </trkpt>
      <trkpt lat="42.743695015087724" lon="-3.581243986263871">
        <ele>937.89999999999998</ele>
        <time>2025-04-28T09:37:13Z</time>
      </trkpt>
      <trkpt lat="42.743677999824286" lon="-3.581328978762031">
        <ele>938.38</ele>
        <time>2025-04-28T09:37:14Z</time>
      </trkpt>
      <trkpt lat="42.743667019531131" lon="-3.58143400400877">
        <ele>938.38</ele>
        <time>2025-04-28T09:37:15Z</time>
      </trkpt>
      <trkpt lat="42.743656039237976" lon="-3.581539029255509">
        <ele>938.38</ele>
        <time>2025-04-28T09:37:16Z</time>
      </trkpt>
      <trkpt lat="42.74364598095417" lon="-3.581643970683217">
        <ele>938.86000000000001</ele>
        <time>2025-04-28T09:37:17Z</time>
      </trkpt>
      <trkpt lat="42.743636006489396" lon="-3.581750001758337">
        <ele>939.35000000000002</ele>
        <time>2025-04-28T09:37:18Z</time>
      </trkpt>
      <trkpt lat="42.743626032024622" lon="-3.581856032833457">
        <ele>940.30999999999995</ele>
        <time>2025-04-28T09:37:19Z</time>
      </trkpt>
      <trkpt lat="42.743611028417945" lon="-3.581963991746306">
        <ele>940.78999999999996</ele>
        <time>2025-04-28T09:37:20Z</time>
      </trkpt>
      <trkpt lat="42.74334498681128" lon="-3.583140978589654">
        <ele>940.78999999999996</ele>
        <time>2025-04-28T09:37:29Z</time>
      </trkpt>
      <trkpt lat="42.742968974635005" lon="-3.584944009780884">
        <ele>938.86000000000001</ele>
        <time>2025-04-28T09:37:39Z</time>
      </trkpt>
      <trkpt lat="42.742648031562567" lon="-3.585936008021236">
        <ele>939.35000000000002</ele>
        <time>2025-04-28T09:37:44Z</time>
      </trkpt>
      <trkpt lat="42.742567984387279" lon="-3.586645033210516">
        <ele>938.86000000000001</ele>
        <time>2025-04-28T09:37:47Z</time>
      </trkpt>
      <trkpt lat="42.742567984387279" lon="-3.586895987391472">
        <ele>938.86000000000001</ele>
        <time>2025-04-28T09:37:48Z</time>
      </trkpt>
      <trkpt lat="42.742579970508814" lon="-3.587141996249557">
        <ele>939.35000000000002</ele>
        <time>2025-04-28T09:37:49Z</time>
      </trkpt>
      <trkpt lat="42.742627998813987" lon="-3.587389010936022">
        <ele>939.35000000000002</ele>
        <time>2025-04-28T09:37:50Z</time>
      </trkpt>
      <trkpt lat="42.74267602711916" lon="-3.587638037279248">
        <ele>939.83000000000004</ele>
        <time>2025-04-28T09:37:51Z</time>
      </trkpt>
      <trkpt lat="42.742896974086761" lon="-3.588305991142988">
        <ele>940.30999999999995</ele>
        <time>2025-04-28T09:37:54Z</time>
      </trkpt>
      <trkpt lat="42.742995964363217" lon="-3.588501960039139">
        <ele>940.78999999999996</ele>
        <time>2025-04-28T09:37:55Z</time>
      </trkpt>
      <trkpt lat="42.743095960468054" lon="-3.588684014976025">
        <ele>940.78999999999996</ele>
        <time>2025-04-28T09:37:56Z</time>
      </trkpt>
      <trkpt lat="42.74319302290678" lon="-3.588848970830441">
        <ele>940.78999999999996</ele>
        <time>2025-04-28T09:37:57Z</time>
      </trkpt>
      <trkpt lat="42.743313973769546" lon="-3.589006969705224">
        <ele>941.26999999999998</ele>
        <time>2025-04-28T09:37:58Z</time>
      </trkpt>
      <trkpt lat="42.743443977087736" lon="-3.589175026863813">
        <ele>941.75</ele>
        <time>2025-04-28T09:37:59Z</time>
      </trkpt>
      <trkpt lat="42.74357900954783" lon="-3.589349035173655">
        <ele>941.75</ele>
        <time>2025-04-28T09:38:00Z</time>
      </trkpt>
      <trkpt lat="42.744001960381866" lon="-3.589822025969625">
        <ele>943.19000000000005</ele>
        <time>2025-04-28T09:38:03Z</time>
      </trkpt>
      <trkpt lat="42.744155013933778" lon="-3.589976001530886">
        <ele>944.14999999999998</ele>
        <time>2025-04-28T09:38:04Z</time>
      </trkpt>
      <trkpt lat="42.744291974231601" lon="-3.59002604149282">
        <ele>944.63</ele>
        <time>2025-04-28T09:38:05Z</time>
      </trkpt>
      <trkpt lat="42.744775023311377" lon="-3.590202983468771">
        <ele>946.07000000000005</ele>
        <time>2025-04-28T09:38:08Z</time>
      </trkpt>
      <trkpt lat="42.744903014972806" lon="-3.590198960155249">
        <ele>946.07000000000005</ele>
        <time>2025-04-28T09:38:09Z</time>
      </trkpt>
      <trkpt lat="42.745018014684319" lon="-3.590184962376952">
        <ele>946.07000000000005</ele>
        <time>2025-04-28T09:38:10Z</time>
      </trkpt>
      <trkpt lat="42.74607396684587" lon="-3.589861001819372">
        <ele>947.03999999999996</ele>
        <time>2025-04-28T09:38:17Z</time>
      </trkpt>
      <trkpt lat="42.746862033382058" lon="-3.589195981621742">
        <ele>948</ele>
        <time>2025-04-28T09:38:22Z</time>
      </trkpt>
      <trkpt lat="42.746991030871868" lon="-3.589037982746959">
        <ele>948</ele>
        <time>2025-04-28T09:38:23Z</time>
      </trkpt>
      <trkpt lat="42.747777001932263" lon="-3.588071968406439">
        <ele>949.44000000000005</ele>
        <time>2025-04-28T09:38:29Z</time>
      </trkpt>
      <trkpt lat="42.747913040220737" lon="-3.588042967021465">
        <ele>949.91999999999996</ele>
        <time>2025-04-28T09:38:30Z</time>
      </trkpt>
      <trkpt lat="42.748055029660463" lon="-3.588027963414788">
        <ele>949.91999999999996</ele>
        <time>2025-04-28T09:38:31Z</time>
      </trkpt>
      <trkpt lat="42.748212022706866" lon="-3.588049001991749">
        <ele>950.39999999999998</ele>
        <time>2025-04-28T09:38:32Z</time>
      </trkpt>
      <trkpt lat="42.748379996046424" lon="-3.588070962578058">
        <ele>950.88</ele>
        <time>2025-04-28T09:38:33Z</time>
      </trkpt>
      <trkpt lat="42.749236039817333" lon="-3.588242959231138">
        <ele>953.76999999999998</ele>
        <time>2025-04-28T09:38:38Z</time>
      </trkpt>
      <trkpt lat="42.749392027035356" lon="-3.588314037770033">
        <ele>954.25</ele>
        <time>2025-04-28T09:38:39Z</time>
      </trkpt>
      <trkpt lat="42.749549020081758" lon="-3.588415961712599">
        <ele>954.73000000000002</ele>
        <time>2025-04-28T09:38:40Z</time>
      </trkpt>
      <trkpt lat="42.750695999711752" lon="-3.589658997952938">
        <ele>960.49000000000001</ele>
        <time>2025-04-28T09:38:48Z</time>
      </trkpt>
      <trkpt lat="42.751215007156134" lon="-3.590447986498475">
        <ele>965.77999999999997</ele>
        <time>2025-04-28T09:38:53Z</time>
      </trkpt>
      <trkpt lat="42.751204026862979" lon="-3.590534990653396">
        <ele>966.25999999999999</ele>
        <time>2025-04-28T09:38:54Z</time>
      </trkpt>
      <trkpt lat="42.751181982457638" lon="-3.590642027556896">
        <ele>966.74000000000001</ele>
        <time>2025-04-28T09:38:55Z</time>
      </trkpt>
      <trkpt lat="42.751109981909394" lon="-3.590777982026339">
        <ele>966.74000000000001</ele>
        <time>2025-04-28T09:38:56Z</time>
      </trkpt>
      <trkpt lat="42.75103303603828" lon="-3.590925000607967">
        <ele>966.25999999999999</ele>
        <time>2025-04-28T09:38:57Z</time>
      </trkpt>
      <trkpt lat="42.750901021063328" lon="-3.591211996972561">
        <ele>966.25999999999999</ele>
        <time>2025-04-28T09:38:59Z</time>
      </trkpt>
      <trkpt lat="42.750573959201574" lon="-3.592102993279696">
        <ele>968.17999999999995</ele>
        <time>2025-04-28T09:39:06Z</time>
      </trkpt>
      <trkpt lat="42.750420989468694" lon="-3.592916037887335">
        <ele>971.07000000000005</ele>
        <time>2025-04-28T09:39:12Z</time>
      </trkpt>
      <trkpt lat="42.750471029430628" lon="-3.593330020084977">
        <ele>972.02999999999997</ele>
        <time>2025-04-28T09:39:15Z</time>
      </trkpt>
      <trkpt lat="42.750491984188557" lon="-3.593475027009845">
        <ele>972.02999999999997</ele>
        <time>2025-04-28T09:39:16Z</time>
      </trkpt>
      <trkpt lat="42.750599021092057" lon="-3.594339033588767">
        <ele>975.38999999999999</ele>
        <time>2025-04-28T09:39:21Z</time>
      </trkpt>
      <trkpt lat="42.750614024698734" lon="-3.594739018008113">
        <ele>977.32000000000005</ele>
        <time>2025-04-28T09:39:23Z</time>
      </trkpt>
      <trkpt lat="42.750657023862004" lon="-3.594944961369038">
        <ele>978.27999999999997</ele>
        <time>2025-04-28T09:39:24Z</time>
      </trkpt>
      <trkpt lat="42.750701028853655" lon="-3.595158029347658">
        <ele>979.72000000000003</ele>
        <time>2025-04-28T09:39:25Z</time>
      </trkpt>
      <trkpt lat="42.75075500831008" lon="-3.595376964658499">
        <ele>981.15999999999997</ele>
        <time>2025-04-28T09:39:26Z</time>
      </trkpt>
      <trkpt lat="42.750813011080027" lon="-3.595597995445132">
        <ele>983.09000000000003</ele>
        <time>2025-04-28T09:39:27Z</time>
      </trkpt>
      <trkpt lat="42.751109981909394" lon="-3.597273034974933">
        <ele>992.22000000000003</ele>
        <time>2025-04-28T09:39:34Z</time>
      </trkpt>
      <trkpt lat="42.751887990161777" lon="-3.599785007536411">
        <ele>1003.75</ele>
        <time>2025-04-28T09:39:44Z</time>
      </trkpt>
      <trkpt lat="42.752139028161764" lon="-3.600463019683957">
        <ele>1008.08</ele>
        <time>2025-04-28T09:39:47Z</time>
      </trkpt>
      <trkpt lat="42.752251010388136" lon="-3.600654965266585">
        <ele>1009.52</ele>
        <time>2025-04-28T09:39:48Z</time>
      </trkpt>
      <trkpt lat="42.752392999827862" lon="-3.60081497579813">
        <ele>1010.48</ele>
        <time>2025-04-28T09:39:49Z</time>
      </trkpt>
      <trkpt lat="42.752840006724" lon="-3.601316967979074">
        <ele>1014.33</ele>
        <time>2025-04-28T09:39:52Z</time>
      </trkpt>
      <trkpt lat="42.752957018092275" lon="-3.601529030129314">
        <ele>1015.29</ele>
        <time>2025-04-28T09:39:53Z</time>
      </trkpt>
      <trkpt lat="42.754146996885538" lon="-3.603861965239048">
        <ele>1027.3099999999999</ele>
        <time>2025-04-28T09:40:03Z</time>
      </trkpt>
      <trkpt lat="42.754326034337282" lon="-3.60423001460731">
        <ele>1030.1900000000001</ele>
        <time>2025-04-28T09:40:05Z</time>
      </trkpt>
      <trkpt lat="42.754369033500552" lon="-3.604374015703797">
        <ele>1031.6300000000001</ele>
        <time>2025-04-28T09:40:06Z</time>
      </trkpt>
      <trkpt lat="42.75432301685214" lon="-3.604557998478413">
        <ele>1032.5899999999999</ele>
        <time>2025-04-28T09:40:07Z</time>
      </trkpt>
      <trkpt lat="42.754282029345632" lon="-3.60472303815186">
        <ele>1034.04</ele>
        <time>2025-04-28T09:40:08Z</time>
      </trkpt>
      <trkpt lat="42.7542370185256" lon="-3.604902997612953">
        <ele>1035</ele>
        <time>2025-04-28T09:40:09Z</time>
      </trkpt>
      <trkpt lat="42.754188990220428" lon="-3.605093015357852">
        <ele>1036.4400000000001</ele>
        <time>2025-04-28T09:40:10Z</time>
      </trkpt>
      <trkpt lat="42.754179015755653" lon="-3.605298958718777">
        <ele>1037.8800000000001</ele>
        <time>2025-04-28T09:40:11Z</time>
      </trkpt>
      <trkpt lat="42.754183039069176" lon="-3.605523006990552">
        <ele>1039.3199999999999</ele>
        <time>2025-04-28T09:40:12Z</time>
      </trkpt>
      <trkpt lat="42.754238024353981" lon="-3.607716970145702">
        <ele>1049.4200000000001</ele>
        <time>2025-04-28T09:40:21Z</time>
      </trkpt>
      <trkpt lat="42.7541299816221" lon="-3.609725022688508">
        <ele>1056.6300000000001</ele>
        <time>2025-04-28T09:40:30Z</time>
      </trkpt>
      <trkpt lat="42.753996960818768" lon="-3.611211972311139">
        <ele>1060.95</ele>
        <time>2025-04-28T09:40:38Z</time>
      </trkpt>
      <trkpt lat="42.753707030788064" lon="-3.612859016284347">
        <ele>1054.7</ele>
        <time>2025-04-28T09:40:49Z</time>
      </trkpt>
      <trkpt lat="42.753694960847497" lon="-3.612949037924409">
        <ele>1054.22</ele>
        <time>2025-04-28T09:40:50Z</time>
      </trkpt>
      <trkpt lat="42.753683980554342" lon="-3.613027995452285">
        <ele>1053.74</ele>
        <time>2025-04-28T09:40:51Z</time>
      </trkpt>
      <trkpt lat="42.753675011917949" lon="-3.613094966858625">
        <ele>1052.78</ele>
        <time>2025-04-28T09:40:52Z</time>
      </trkpt>
      <trkpt lat="42.753797974437475" lon="-3.613199992105365">
        <ele>1052.78</ele>
        <time>2025-04-28T09:40:53Z</time>
      </trkpt>
      <trkpt lat="42.753855977207422" lon="-3.613203009590507">
        <ele>1052.3</ele>
        <time>2025-04-28T09:40:54Z</time>
      </trkpt>
      <trkpt lat="42.753948010504246" lon="-3.613207032904029">
        <ele>1052.3</ele>
        <time>2025-04-28T09:40:55Z</time>
      </trkpt>
      <trkpt lat="42.754068961367011" lon="-3.613212984055281">
        <ele>1051.3399999999999</ele>
        <time>2025-04-28T09:40:56Z</time>
      </trkpt>
      <trkpt lat="42.75500999763608" lon="-3.613367965444922">
        <ele>1047.97</ele>
        <time>2025-04-28T09:41:02Z</time>
      </trkpt>
      <trkpt lat="42.75703095830977" lon="-3.61394195817411">
        <ele>1047.49</ele>
        <time>2025-04-28T09:41:12Z</time>
      </trkpt>
      <trkpt lat="42.759935036301613" lon="-3.614838989451528">
        <ele>1041.73</ele>
        <time>2025-04-28T09:41:25Z</time>
      </trkpt>
      <trkpt lat="42.763659032061696" lon="-3.615992004051805">
        <ele>1022.98</ele>
        <time>2025-04-28T09:41:41Z</time>
      </trkpt>
      <trkpt lat="42.765497015789151" lon="-3.616432975977659">
        <ele>1021.0599999999999</ele>
        <time>2025-04-28T09:41:50Z</time>
      </trkpt>
      <trkpt lat="42.765672029927373" lon="-3.616458959877491">
        <ele>1020.58</ele>
        <time>2025-04-28T09:41:51Z</time>
      </trkpt>
      <trkpt lat="42.766150971874595" lon="-3.616444962099195">
        <ele>1018.17</ele>
        <time>2025-04-28T09:41:55Z</time>
      </trkpt>
      <trkpt lat="42.766196988523006" lon="-3.616440016776323">
        <ele>1017.6900000000001</ele>
        <time>2025-04-28T09:41:56Z</time>
      </trkpt>
      <trkpt lat="42.766264965757728" lon="-3.616574965417385">
        <ele>1017.6900000000001</ele>
        <time>2025-04-28T09:41:57Z</time>
      </trkpt>
      <trkpt lat="42.766257002949715" lon="-3.616662975400686">
        <ele>1017.21</ele>
        <time>2025-04-28T09:41:58Z</time>
      </trkpt>
      <trkpt lat="42.766247028484941" lon="-3.616780992597342">
        <ele>1016.73</ele>
        <time>2025-04-28T09:41:59Z</time>
      </trkpt>
      <trkpt lat="42.766233030706644" lon="-3.616929017007351">
        <ele>1016.73</ele>
        <time>2025-04-28T09:42:00Z</time>
      </trkpt>
      <trkpt lat="42.766104033216834" lon="-3.618374979123473">
        <ele>1016.25</ele>
        <time>2025-04-28T09:42:07Z</time>
      </trkpt>
      <trkpt lat="42.765821982175112" lon="-3.621661020442843">
        <ele>1022.02</ele>
        <time>2025-04-28T09:42:20Z</time>
      </trkpt>
      <trkpt lat="42.76566700078547" lon="-3.623783988878131">
        <ele>1024.9000000000001</ele>
        <time>2025-04-28T09:42:28Z</time>
      </trkpt>
      <trkpt lat="42.765675969421864" lon="-3.624005019664764">
        <ele>1025.3800000000001</ele>
        <time>2025-04-28T09:42:29Z</time>
      </trkpt>
      <trkpt lat="42.765717040747404" lon="-3.624224960803986">
        <ele>1025.8599999999999</ele>
        <time>2025-04-28T09:42:30Z</time>
      </trkpt>
      <trkpt lat="42.76624602265656" lon="-3.626494025811553">
        <ele>1028.27</ele>
        <time>2025-04-28T09:42:39Z</time>
      </trkpt>
      <trkpt lat="42.766609964892268" lon="-3.628121959045529">
        <ele>1027.3099999999999</ele>
        <time>2025-04-28T09:42:46Z</time>
      </trkpt>
      <trkpt lat="42.766640977934003" lon="-3.628291022032499">
        <ele>1026.8299999999999</ele>
        <time>2025-04-28T09:42:47Z</time>
      </trkpt>
      <trkpt lat="42.766619017347693" lon="-3.628432005643845">
        <ele>1026.8299999999999</ele>
        <time>2025-04-28T09:42:48Z</time>
      </trkpt>
      <trkpt lat="42.766584986820817" lon="-3.6285500228405">
        <ele>1026.3399999999999</ele>
        <time>2025-04-28T09:42:49Z</time>
      </trkpt>
      <trkpt lat="42.766508040949702" lon="-3.628626968711615">
        <ele>1025.8599999999999</ele>
        <time>2025-04-28T09:42:50Z</time>
      </trkpt>
      <trkpt lat="42.766430005431175" lon="-3.628668962046504">
        <ele>1025.3800000000001</ele>
        <time>2025-04-28T09:42:51Z</time>
      </trkpt>
      <trkpt lat="42.766300002112985" lon="-3.628685977309942">
        <ele>1024.9000000000001</ele>
        <time>2025-04-28T09:42:52Z</time>
      </trkpt>
      <trkpt lat="42.766193971037865" lon="-3.628659993410111">
        <ele>1023.9400000000001</ele>
        <time>2025-04-28T09:42:53Z</time>
      </trkpt>
      <trkpt lat="42.766046030446887" lon="-3.628623029217124">
        <ele>1023.46</ele>
        <time>2025-04-28T09:42:54Z</time>
      </trkpt>
      <trkpt lat="42.765093008056283" lon="-3.628429993987083">
        <ele>1016.73</ele>
        <time>2025-04-28T09:43:00Z</time>
      </trkpt>
      <trkpt lat="42.764968033879995" lon="-3.628471987321973">
        <ele>1015.77</ele>
        <time>2025-04-28T09:43:01Z</time>
      </trkpt>
      <trkpt lat="42.764860996976495" lon="-3.628554968163371">
        <ele>1014.8099999999999</ele>
        <time>2025-04-28T09:43:02Z</time>
      </trkpt>
      <trkpt lat="42.764772986993194" lon="-3.628681031987071">
        <ele>1014.33</ele>
        <time>2025-04-28T09:43:03Z</time>
      </trkpt>
      <trkpt lat="42.764702998101711" lon="-3.628843976184726">
        <ele>1013.37</ele>
        <time>2025-04-28T09:43:04Z</time>
      </trkpt>
      <trkpt lat="42.764625968411565" lon="-3.629050003364682">
        <ele>1012.41</ele>
        <time>2025-04-28T09:43:05Z</time>
      </trkpt>
      <trkpt lat="42.764577018097043" lon="-3.629231974482536">
        <ele>1011.9299999999999</ele>
        <time>2025-04-28T09:43:06Z</time>
      </trkpt>
      <trkpt lat="42.764521026983857" lon="-3.629440013319254">
        <ele>1010.96</ele>
        <time>2025-04-28T09:43:07Z</time>
      </trkpt>
      <trkpt lat="42.76446302421391" lon="-3.629652997478843">
        <ele>1010</ele>
        <time>2025-04-28T09:43:08Z</time>
      </trkpt>
      <trkpt lat="42.764404015615582" lon="-3.62986396998167">
        <ele>1009.04</ele>
        <time>2025-04-28T09:43:09Z</time>
      </trkpt>
      <trkpt lat="42.764331009238958" lon="-3.630069997161627">
        <ele>1008.08</ele>
        <time>2025-04-28T09:43:10Z</time>
      </trkpt>
      <trkpt lat="42.763762967661023" lon="-3.631659038364887">
        <ele>999.90999999999997</ele>
        <time>2025-04-28T09:43:17Z</time>
      </trkpt>
      <trkpt lat="42.763628019019961" lon="-3.632099004462361">
        <ele>997.01999999999998</ele>
        <time>2025-04-28T09:43:19Z</time>
      </trkpt>
      <trkpt lat="42.763596000149846" lon="-3.632321041077375">
        <ele>995.10000000000002</ele>
        <time>2025-04-28T09:43:20Z</time>
      </trkpt>
      <trkpt lat="42.763596000149846" lon="-3.632556991651654">
        <ele>993.65999999999997</ele>
        <time>2025-04-28T09:43:21Z</time>
      </trkpt>
      <trkpt lat="42.7636260073632" lon="-3.633496016263962">
        <ele>986.45000000000005</ele>
        <time>2025-04-28T09:43:25Z</time>
      </trkpt>
      <trkpt lat="42.763673029839993" lon="-3.63368796184659">
        <ele>985.00999999999999</ele>
        <time>2025-04-28T09:43:26Z</time>
      </trkpt>
      <trkpt lat="42.763793980702758" lon="-3.634181991219521">
        <ele>980.67999999999995</ele>
        <time>2025-04-28T09:43:29Z</time>
      </trkpt>
      <trkpt lat="42.763810995966196" lon="-3.634286010637879">
        <ele>979.72000000000003</ele>
        <time>2025-04-28T09:43:30Z</time>
      </trkpt>
      <trkpt lat="42.763764979317784" lon="-3.634377038106322">
        <ele>978.75999999999999</ele>
        <time>2025-04-28T09:43:31Z</time>
      </trkpt>
      <trkpt lat="42.763724997639656" lon="-3.634458007290959">
        <ele>977.79999999999995</ele>
        <time>2025-04-28T09:43:32Z</time>
      </trkpt>
      <trkpt lat="42.763687027618289" lon="-3.634448032826185">
        <ele>977.32000000000005</ele>
        <time>2025-04-28T09:43:33Z</time>
      </trkpt>
      <trkpt lat="42.763606980443001" lon="-3.634428000077605">
        <ele>976.84000000000003</ele>
        <time>2025-04-28T09:43:34Z</time>
      </trkpt>
      <trkpt lat="42.763523999601603" lon="-3.634392041712999">
        <ele>975.88</ele>
        <time>2025-04-28T09:43:35Z</time>
      </trkpt>
      <trkpt lat="42.763425009325147" lon="-3.634314006194472">
        <ele>975.38999999999999</ele>
        <time>2025-04-28T09:43:36Z</time>
      </trkpt>
      <trkpt lat="42.763319984078407" lon="-3.634231025353074">
        <ele>974.90999999999997</ele>
        <time>2025-04-28T09:43:37Z</time>
      </trkpt>
      <trkpt lat="42.762685976922512" lon="-3.633751999586821">
        <ele>971.07000000000005</ele>
        <time>2025-04-28T09:43:42Z</time>
      </trkpt>
      <trkpt lat="42.762533007189631" lon="-3.633677987381816">
        <ele>970.11000000000001</ele>
        <time>2025-04-28T09:43:43Z</time>
      </trkpt>
      <trkpt lat="42.762053981423378" lon="-3.633528035134077">
        <ele>966.74000000000001</ele>
        <time>2025-04-28T09:43:46Z</time>
      </trkpt>
      <trkpt lat="42.761882990598679" lon="-3.633501967415214">
        <ele>965.29999999999995</ele>
        <time>2025-04-28T09:43:47Z</time>
      </trkpt>
      <trkpt lat="42.761535979807377" lon="-3.63344899378717">
        <ele>962.41999999999996</ele>
        <time>2025-04-28T09:43:49Z</time>
      </trkpt>
      <trkpt lat="42.761374041438103" lon="-3.633376993238926">
        <ele>960.98000000000002</ele>
        <time>2025-04-28T09:43:50Z</time>
      </trkpt>
      <trkpt lat="42.761211013421416" lon="-3.633304992690682">
        <ele>959.52999999999997</ele>
        <time>2025-04-28T09:43:51Z</time>
      </trkpt>
      <trkpt lat="42.761052008718252" lon="-3.63323399797082">
        <ele>958.09000000000003</ele>
        <time>2025-04-28T09:43:52Z</time>
      </trkpt>
      <trkpt lat="42.760895015671849" lon="-3.633164009079337">
        <ele>956.16999999999996</ele>
        <time>2025-04-28T09:43:53Z</time>
      </trkpt>
      <trkpt lat="42.760764006525278" lon="-3.63310600630939">
        <ele>954.73000000000002</ele>
        <time>2025-04-28T09:43:54Z</time>
      </trkpt>
      <trkpt lat="42.760597039014101" lon="-3.633069964125752">
        <ele>953.76999999999998</ele>
        <time>2025-04-28T09:43:55Z</time>
      </trkpt>
      <trkpt lat="42.760463012382388" lon="-3.633040962740779">
        <ele>952.32000000000005</ele>
        <time>2025-04-28T09:43:56Z</time>
      </trkpt>
      <trkpt lat="42.7603380382061" lon="-3.633040962740779">
        <ele>950.88</ele>
        <time>2025-04-28T09:43:57Z</time>
      </trkpt>
      <trkpt lat="42.760238964110613" lon="-3.63308597356081">
        <ele>949.44000000000005</ele>
        <time>2025-04-28T09:43:58Z</time>
      </trkpt>
      <trkpt lat="42.760170986875892" lon="-3.633167026564479">
        <ele>948</ele>
        <time>2025-04-28T09:43:59Z</time>
      </trkpt>
      <trkpt lat="42.760119019076228" lon="-3.633268028497696">
        <ele>946.55999999999995</ele>
        <time>2025-04-28T09:44:00Z</time>
      </trkpt>
      <trkpt lat="42.760103009641171" lon="-3.6334059946239">
        <ele>945.11000000000001</ele>
        <time>2025-04-28T09:44:01Z</time>
      </trkpt>
      <trkpt lat="42.760118013247848" lon="-3.633545972406864">
        <ele>944.14999999999998</ele>
        <time>2025-04-28T09:44:02Z</time>
      </trkpt>
      <trkpt lat="42.760156989097595" lon="-3.633691985160112">
        <ele>943.19000000000005</ele>
        <time>2025-04-28T09:44:03Z</time>
      </trkpt>
      <trkpt lat="42.760226977989078" lon="-3.633818970993161">
        <ele>942.71000000000004</ele>
        <time>2025-04-28T09:44:04Z</time>
      </trkpt>
      <trkpt lat="42.760327979922295" lon="-3.633917961269617">
        <ele>942.23000000000002</ele>
        <time>2025-04-28T09:44:05Z</time>
      </trkpt>
      <trkpt lat="42.760441973805428" lon="-3.634006977081299">
        <ele>942.23000000000002</ele>
        <time>2025-04-28T09:44:06Z</time>
      </trkpt>
      <trkpt lat="42.760566025972366" lon="-3.634066991508007">
        <ele>942.23000000000002</ele>
        <time>2025-04-28T09:44:07Z</time>
      </trkpt>
      <trkpt lat="42.760695023462176" lon="-3.634129017591476">
        <ele>942.71000000000004</ele>
        <time>2025-04-28T09:44:08Z</time>
      </trkpt>
      <trkpt lat="42.760825026780367" lon="-3.634190959855914">
        <ele>943.66999999999996</ele>
        <time>2025-04-28T09:44:09Z</time>
      </trkpt>
      <trkpt lat="42.761572021991014" lon="-3.634721031412482">
        <ele>948.96000000000004</ele>
        <time>2025-04-28T09:44:15Z</time>
      </trkpt>
      <trkpt lat="42.761687021702528" lon="-3.634854974225164">
        <ele>950.39999999999998</ele>
        <time>2025-04-28T09:44:16Z</time>
      </trkpt>
      <trkpt lat="42.762548010796309" lon="-3.63602802157402">
        <ele>957.13</ele>
        <time>2025-04-28T09:44:24Z</time>
      </trkpt>
      <trkpt lat="42.762620011344552" lon="-3.636155007407069">
        <ele>957.13</ele>
        <time>2025-04-28T09:44:25Z</time>
      </trkpt>
      <trkpt lat="42.762736016884446" lon="-3.636194989085197">
        <ele>957.61000000000001</ele>
        <time>2025-04-28T09:44:26Z</time>
      </trkpt>
      <trkpt lat="42.762854034081101" lon="-3.636218961328268">
        <ele>958.09000000000003</ele>
        <time>2025-04-28T09:44:27Z</time>
      </trkpt>
      <trkpt lat="42.762983031570911" lon="-3.636245029047132">
        <ele>958.57000000000005</ele>
        <time>2025-04-28T09:44:28Z</time>
      </trkpt>
      <trkpt lat="42.763112029060721" lon="-3.636299008503556">
        <ele>959.04999999999995</ele>
        <time>2025-04-28T09:44:29Z</time>
      </trkpt>
      <trkpt lat="42.763230968266726" lon="-3.636389030143619">
        <ele>959.52999999999997</ele>
        <time>2025-04-28T09:44:30Z</time>
      </trkpt>
      <trkpt lat="42.763315960764885" lon="-3.636545017361641">
        <ele>960.49000000000001</ele>
        <time>2025-04-28T09:44:31Z</time>
      </trkpt>
      <trkpt lat="42.763401037082076" lon="-3.636703016236424">
        <ele>961.94000000000005</ele>
        <time>2025-04-28T09:44:32Z</time>
      </trkpt>
      <trkpt lat="42.763489969074726" lon="-3.636865960434079">
        <ele>963.38</ele>
        <time>2025-04-28T09:44:33Z</time>
      </trkpt>
      <trkpt lat="42.764307959005237" lon="-3.638998987153173">
        <ele>978.27999999999997</ele>
        <time>2025-04-28T09:44:43Z</time>
      </trkpt>
      <trkpt lat="42.764578023925424" lon="-3.639865005388856">
        <ele>984.52999999999997</ele>
        <time>2025-04-28T09:44:47Z</time>
      </trkpt>
      <trkpt lat="42.764625968411565" lon="-3.640068015083671">
        <ele>985.97000000000003</ele>
        <time>2025-04-28T09:44:48Z</time>
      </trkpt>
      <trkpt lat="42.764616999775171" lon="-3.640276975929737">
        <ele>987.88999999999999</ele>
        <time>2025-04-28T09:44:49Z</time>
      </trkpt>
      <trkpt lat="42.764609036967158" lon="-3.640490965917707">
        <ele>989.33000000000004</ele>
        <time>2025-04-28T09:44:50Z</time>
      </trkpt>
      <trkpt lat="42.764599984511733" lon="-3.640715014189482">
        <ele>991.25999999999999</ele>
        <time>2025-04-28T09:44:51Z</time>
      </trkpt>
      <trkpt lat="42.764481967315078" lon="-3.643216006457806">
        <ele>1004.23</ele>
        <time>2025-04-28T09:45:01Z</time>
      </trkpt>
      <trkpt lat="42.764481967315078" lon="-3.64344198256731">
        <ele>1005.2</ele>
        <time>2025-04-28T09:45:02Z</time>
      </trkpt>
      <trkpt lat="42.764556985348463" lon="-3.643629988655448">
        <ele>1005.6799999999999</ele>
        <time>2025-04-28T09:45:03Z</time>
      </trkpt>
      <trkpt lat="42.765275985002518" lon="-3.645376022905111">
        <ele>1013.37</ele>
        <time>2025-04-28T09:45:11Z</time>
      </trkpt>
      <trkpt lat="42.765404982492328" lon="-3.645735019817948">
        <ele>1014.33</ele>
        <time>2025-04-28T09:45:13Z</time>
      </trkpt>
      <trkpt lat="42.765417974442244" lon="-3.645897964015603">
        <ele>1015.29</ele>
        <time>2025-04-28T09:45:14Z</time>
      </trkpt>
      <trkpt lat="42.765391990542412" lon="-3.646074989810586">
        <ele>1015.77</ele>
        <time>2025-04-28T09:45:15Z</time>
      </trkpt>
      <trkpt lat="42.765356032177806" lon="-3.646281016990542">
        <ele>1016.25</ele>
        <time>2025-04-28T09:45:16Z</time>
      </trkpt>
      <trkpt lat="42.765301968902349" lon="-3.646464999765158">
        <ele>1016.73</ele>
        <time>2025-04-28T09:45:17Z</time>
      </trkpt>
      <trkpt lat="42.764733005315065" lon="-3.648533988744021">
        <ele>1024.4200000000001</ele>
        <time>2025-04-28T09:45:26Z</time>
      </trkpt>
      <trkpt lat="42.764414995908737" lon="-3.649637969210744">
        <ele>1028.27</ele>
        <time>2025-04-28T09:45:31Z</time>
      </trkpt>
      <trkpt lat="42.76435598731041" lon="-3.649816000834107">
        <ele>1029.23</ele>
        <time>2025-04-28T09:45:32Z</time>
      </trkpt>
      <trkpt lat="42.76424802839756" lon="-3.649931000545621">
        <ele>1030.1900000000001</ele>
        <time>2025-04-28T09:45:33Z</time>
      </trkpt>
      <trkpt lat="42.764112995937467" lon="-3.650024039670825">
        <ele>1031.1500000000001</ele>
        <time>2025-04-28T09:45:34Z</time>
      </trkpt>
      <trkpt lat="42.76397000066936" lon="-3.650123029947281">
        <ele>1032.1099999999999</ele>
        <time>2025-04-28T09:45:35Z</time>
      </trkpt>
      <trkpt lat="42.7635189704597" lon="-3.650436010211706">
        <ele>1035.48</ele>
        <time>2025-04-28T09:45:38Z</time>
      </trkpt>
      <trkpt lat="42.763391984626651" lon="-3.650582022964954">
        <ele>1036.4400000000001</ele>
        <time>2025-04-28T09:45:39Z</time>
      </trkpt>
      <trkpt lat="42.763286959379911" lon="-3.650771034881473">
        <ele>1037.4000000000001</ele>
        <time>2025-04-28T09:45:40Z</time>
      </trkpt>
      <trkpt lat="42.763177994638681" lon="-3.650967003777623">
        <ele>1038.8399999999999</ele>
        <time>2025-04-28T09:45:41Z</time>
      </trkpt>
      <trkpt lat="42.763070035725832" lon="-3.651160961017013">
        <ele>1040.28</ele>
        <time>2025-04-28T09:45:42Z</time>
      </trkpt>
      <trkpt lat="42.762872977182269" lon="-3.651514006778598">
        <ele>1043.1700000000001</ele>
        <time>2025-04-28T09:45:44Z</time>
      </trkpt>
      <trkpt lat="42.762752026319504" lon="-3.651655996218324">
        <ele>1045.0899999999999</ele>
        <time>2025-04-28T09:45:45Z</time>
      </trkpt>
      <trkpt lat="42.762609031051397" lon="-3.651764038950205">
        <ele>1047.01</ele>
        <time>2025-04-28T09:45:46Z</time>
      </trkpt>
      <trkpt lat="42.76083399541676" lon="-3.653099024668336">
        <ele>1059.03</ele>
        <time>2025-04-28T09:45:57Z</time>
      </trkpt>
      <trkpt lat="42.759087961167097" lon="-3.654362009838224">
        <ele>1060.95</ele>
        <time>2025-04-28T09:46:07Z</time>
      </trkpt>
      <trkpt lat="42.758890986442566" lon="-3.654420012608171">
        <ele>1060.95</ele>
        <time>2025-04-28T09:46:08Z</time>
      </trkpt>
      <trkpt lat="42.757442006841302" lon="-3.654894009232521">
        <ele>1066.24</ele>
        <time>2025-04-28T09:46:16Z</time>
      </trkpt>
      <trkpt lat="42.757336981594563" lon="-3.655012026429176">
        <ele>1066.24</ele>
        <time>2025-04-28T09:46:17Z</time>
      </trkpt>
      <trkpt lat="42.757234973832965" lon="-3.655148986726999">
        <ele>1066.72</ele>
        <time>2025-04-28T09:46:18Z</time>
      </trkpt>
      <trkpt lat="42.757141012698412" lon="-3.655302962288261">
        <ele>1066.72</ele>
        <time>2025-04-28T09:46:19Z</time>
      </trkpt>
      <trkpt lat="42.757073035463691" lon="-3.655503038316965">
        <ele>1066.72</ele>
        <time>2025-04-28T09:46:20Z</time>
      </trkpt>
      <trkpt lat="42.756999023258686" lon="-3.655719961971045">
        <ele>1066.72</ele>
        <time>2025-04-28T09:46:21Z</time>
      </trkpt>
      <trkpt lat="42.7563869766891" lon="-3.65757898427546">
        <ele>1062.8699999999999</ele>
        <time>2025-04-28T09:46:28Z</time>
      </trkpt>
      <trkpt lat="42.755387015640736" lon="-3.660677019506693">
        <ele>1059.03</ele>
        <time>2025-04-28T09:46:38Z</time>
      </trkpt>
      <trkpt lat="42.755036987364292" lon="-3.661760967224836">
        <ele>1059.99</ele>
        <time>2025-04-28T09:46:43Z</time>
      </trkpt>
      <trkpt lat="42.754479004070163" lon="-3.663489986211062">
        <ele>1063.3599999999999</ele>
        <time>2025-04-28T09:46:50Z</time>
      </trkpt>
      <trkpt lat="42.753336969763041" lon="-3.666993035003543">
        <ele>1074.8900000000001</ele>
        <time>2025-04-28T09:47:03Z</time>
      </trkpt>
      <trkpt lat="42.752373972907662" lon="-3.668936965987086">
        <ele>1077.29</ele>
        <time>2025-04-28T09:47:11Z</time>
      </trkpt>
      <trkpt lat="42.750417971983552" lon="-3.672722987830639">
        <ele>1072.01</ele>
        <time>2025-04-28T09:47:26Z</time>
      </trkpt>
      <trkpt lat="42.748771011829376" lon="-3.675685990601778">
        <ele>1068.1600000000001</ele>
        <time>2025-04-28T09:47:38Z</time>
      </trkpt>
      <trkpt lat="42.74693101644516" lon="-3.678599037230015">
        <ele>1057.1099999999999</ele>
        <time>2025-04-28T09:47:50Z</time>
      </trkpt>
      <trkpt lat="42.745079034939408" lon="-3.681500013917685">
        <ele>1046.05</ele>
        <time>2025-04-28T09:48:02Z</time>
      </trkpt>
      <trkpt lat="42.744219973683357" lon="-3.682819996029139">
        <ele>1043.6500000000001</ele>
        <time>2025-04-28T09:48:09Z</time>
      </trkpt>
      <trkpt lat="42.744110003113747" lon="-3.682969026267529">
        <ele>1043.1700000000001</ele>
        <time>2025-04-28T09:48:10Z</time>
      </trkpt>
      <trkpt lat="42.743970025330782" lon="-3.683066004887223">
        <ele>1042.6900000000001</ele>
        <time>2025-04-28T09:48:11Z</time>
      </trkpt>
      <trkpt lat="42.743829041719437" lon="-3.683164995163679">
        <ele>1042.21</ele>
        <time>2025-04-28T09:48:12Z</time>
      </trkpt>
      <trkpt lat="42.743684034794569" lon="-3.683259962126613">
        <ele>1042.21</ele>
        <time>2025-04-28T09:48:13Z</time>
      </trkpt>
      <trkpt lat="42.743527963757515" lon="-3.68331503123045">
        <ele>1042.21</ele>
        <time>2025-04-28T09:48:14Z</time>
      </trkpt>
      <trkpt lat="42.74143198505044" lon="-3.684088010340929">
        <ele>1040.76</ele>
        <time>2025-04-28T09:48:26Z</time>
      </trkpt>
      <trkpt lat="42.740784985944629" lon="-3.684438038617373">
        <ele>1039.3199999999999</ele>
        <time>2025-04-28T09:48:30Z</time>
      </trkpt>
      <trkpt lat="42.740652970969677" lon="-3.684555971994996">
        <ele>1039.3199999999999</ele>
        <time>2025-04-28T09:48:31Z</time>
      </trkpt>
      <trkpt lat="42.740538977086544" lon="-3.684717994183302">
        <ele>1038.8399999999999</ele>
        <time>2025-04-28T09:48:32Z</time>
      </trkpt>
      <trkpt lat="42.740421965718269" lon="-3.68488303385675">
        <ele>1038.3599999999999</ele>
        <time>2025-04-28T09:48:33Z</time>
      </trkpt>
      <trkpt lat="42.740371003746986" lon="-3.685073973610997">
        <ele>1038.3599999999999</ele>
        <time>2025-04-28T09:48:34Z</time>
      </trkpt>
      <trkpt lat="42.740313000977039" lon="-3.685288969427347">
        <ele>1037.8800000000001</ele>
        <time>2025-04-28T09:48:35Z</time>
      </trkpt>
      <trkpt lat="42.740253992378712" lon="-3.685511006042361">
        <ele>1037.8800000000001</ele>
        <time>2025-04-28T09:48:36Z</time>
      </trkpt>
      <trkpt lat="42.739946041256189" lon="-3.686662008985877">
        <ele>1037.4000000000001</ele>
        <time>2025-04-28T09:48:41Z</time>
      </trkpt>
      <trkpt lat="42.739845039322972" lon="-3.686863007023931">
        <ele>1036.9200000000001</ele>
        <time>2025-04-28T09:48:42Z</time>
      </trkpt>
      <trkpt lat="42.739729033783078" lon="-3.687051013112068">
        <ele>1036.9200000000001</ele>
        <time>2025-04-28T09:48:43Z</time>
      </trkpt>
      <trkpt lat="42.738661011680961" lon="-3.688734015449882">
        <ele>1033.0699999999999</ele>
        <time>2025-04-28T09:48:52Z</time>
      </trkpt>
      <trkpt lat="42.738421037793159" lon="-3.68900902569294">
        <ele>1032.1099999999999</ele>
        <time>2025-04-28T09:48:54Z</time>
      </trkpt>
      <trkpt lat="42.738081989809871" lon="-3.689347989857197">
        <ele>1030.1900000000001</ele>
        <time>2025-04-28T09:48:57Z</time>
      </trkpt>
      <trkpt lat="42.738017030060291" lon="-3.689463995397091">
        <ele>1029.71</ele>
        <time>2025-04-28T09:48:58Z</time>
      </trkpt>
      <trkpt lat="42.737996997311711" lon="-3.689582012593746">
        <ele>1029.23</ele>
        <time>2025-04-28T09:48:59Z</time>
      </trkpt>
      <trkpt lat="42.738021975383162" lon="-3.689710004255176">
        <ele>1028.27</ele>
        <time>2025-04-28T09:49:00Z</time>
      </trkpt>
      <trkpt lat="42.738070003688335" lon="-3.68982701562345">
        <ele>1027.3099999999999</ele>
        <time>2025-04-28T09:49:01Z</time>
      </trkpt>
      <trkpt lat="42.738174023106694" lon="-3.689931035041809">
        <ele>1026.8299999999999</ele>
        <time>2025-04-28T09:49:02Z</time>
      </trkpt>
      <trkpt lat="42.738286005333066" lon="-3.690043017268181">
        <ele>1025.8599999999999</ele>
        <time>2025-04-28T09:49:03Z</time>
      </trkpt>
      <trkpt lat="42.738405028358102" lon="-3.690162040293217">
        <ele>1024.9000000000001</ele>
        <time>2025-04-28T09:49:04Z</time>
      </trkpt>
      <trkpt lat="42.738892016932368" lon="-3.690670989453793">
        <ele>1022.02</ele>
        <time>2025-04-28T09:49:08Z</time>
      </trkpt>
      <trkpt lat="42.738963011652231" lon="-3.690791018307209">
        <ele>1021.0599999999999</ele>
        <time>2025-04-28T09:49:09Z</time>
      </trkpt>
      <trkpt lat="42.738978015258908" lon="-3.690938036888838">
        <ele>1020.58</ele>
        <time>2025-04-28T09:49:10Z</time>
      </trkpt>
      <trkpt lat="42.738953959196806" lon="-3.69107399135828">
        <ele>1019.62</ele>
        <time>2025-04-28T09:49:11Z</time>
      </trkpt>
      <trkpt lat="42.738896962255239" lon="-3.691214974969626">
        <ele>1019.13</ele>
        <time>2025-04-28T09:49:12Z</time>
      </trkpt>
      <trkpt lat="42.738800989463925" lon="-3.69133098050952">
        <ele>1018.17</ele>
        <time>2025-04-28T09:49:13Z</time>
      </trkpt>
      <trkpt lat="42.738075032830238" lon="-3.692207979038358">
        <ele>1011.4400000000001</ele>
        <time>2025-04-28T09:49:19Z</time>
      </trkpt>
      <trkpt lat="42.737975958734751" lon="-3.692329013720155">
        <ele>1010.48</ele>
        <time>2025-04-28T09:49:20Z</time>
      </trkpt>
      <trkpt lat="42.737814020365477" lon="-3.692392967641354">
        <ele>1009.04</ele>
        <time>2025-04-28T09:49:21Z</time>
      </trkpt>
      <trkpt lat="42.737690974026918" lon="-3.692443007603288">
        <ele>1008.08</ele>
        <time>2025-04-28T09:49:22Z</time>
      </trkpt>
      <trkpt lat="42.737573962658644" lon="-3.692432027310133">
        <ele>1006.64</ele>
        <time>2025-04-28T09:49:23Z</time>
      </trkpt>
      <trkpt lat="42.737439014017582" lon="-3.692388022318482">
        <ele>1005.6799999999999</ele>
        <time>2025-04-28T09:49:24Z</time>
      </trkpt>
      <trkpt lat="42.737289983779192" lon="-3.69233999401331">
        <ele>1004.72</ele>
        <time>2025-04-28T09:49:25Z</time>
      </trkpt>
      <trkpt lat="42.736974991858006" lon="-3.692237986251712">
        <ele>1002.79</ele>
        <time>2025-04-28T09:49:27Z</time>
      </trkpt>
      <trkpt lat="42.736816992983222" lon="-3.692221976816654">
        <ele>1001.83</ele>
        <time>2025-04-28T09:49:28Z</time>
      </trkpt>
      <trkpt lat="42.736663017421961" lon="-3.692230023443699">
        <ele>1000.87</ele>
        <time>2025-04-28T09:49:29Z</time>
      </trkpt>
      <trkpt lat="42.736514993011951" lon="-3.692281991243362">
        <ele>999.90999999999997</ele>
        <time>2025-04-28T09:49:30Z</time>
      </trkpt>
      <trkpt lat="42.736369986087084" lon="-3.692333037033677">
        <ele>998.95000000000005</ele>
        <time>2025-04-28T09:49:31Z</time>
      </trkpt>
      <trkpt lat="42.736244006082416" lon="-3.692368995398283">
        <ele>997.99000000000001</ele>
        <time>2025-04-28T09:49:32Z</time>
      </trkpt>
      <trkpt lat="42.736119031906128" lon="-3.692338988184929">
        <ele>997.50999999999999</ele>
        <time>2025-04-28T09:49:33Z</time>
      </trkpt>
      <trkpt lat="42.735531041398644" lon="-3.692201022058725">
        <ele>993.17999999999995</ele>
        <time>2025-04-28T09:49:37Z</time>
      </trkpt>
      <trkpt lat="42.735369019210339" lon="-3.692223988473415">
        <ele>991.74000000000001</ele>
        <time>2025-04-28T09:49:38Z</time>
      </trkpt>
      <trkpt lat="42.734875995665789" lon="-3.692299006506801">
        <ele>986.92999999999995</ele>
        <time>2025-04-28T09:49:41Z</time>
      </trkpt>
      <trkpt lat="42.734719002619386" lon="-3.692352985963225">
        <ele>985.49000000000001</ele>
        <time>2025-04-28T09:49:42Z</time>
      </trkpt>
      <trkpt lat="42.734294962137938" lon="-3.692543003708124">
        <ele>980.67999999999995</ele>
        <time>2025-04-28T09:49:45Z</time>
      </trkpt>
      <trkpt lat="42.734163030982018" lon="-3.692578040063381">
        <ele>978.75999999999999</ele>
        <time>2025-04-28T09:49:46Z</time>
      </trkpt>
      <trkpt lat="42.734031016007066" lon="-3.692546021193266">
        <ele>976.84000000000003</ele>
        <time>2025-04-28T09:49:47Z</time>
      </trkpt>
      <trkpt lat="42.733896989375353" lon="-3.692514002323151">
        <ele>975.38999999999999</ele>
        <time>2025-04-28T09:49:48Z</time>
      </trkpt>
      <trkpt lat="42.733765980228782" lon="-3.692482989281416">
        <ele>973.95000000000005</ele>
        <time>2025-04-28T09:49:49Z</time>
      </trkpt>
      <trkpt lat="42.733646035194397" lon="-3.692462034523487">
        <ele>972.50999999999999</ele>
        <time>2025-04-28T09:49:50Z</time>
      </trkpt>
      <trkpt lat="42.733534974977374" lon="-3.69249296374619">
        <ele>971.07000000000005</ele>
        <time>2025-04-28T09:49:51Z</time>
      </trkpt>
      <trkpt lat="42.733421986922622" lon="-3.692535040900111">
        <ele>969.63</ele>
        <time>2025-04-28T09:49:52Z</time>
      </trkpt>
      <trkpt lat="42.733384016901255" lon="-3.692638976499438">
        <ele>968.17999999999995</ele>
        <time>2025-04-28T09:49:53Z</time>
      </trkpt>
      <trkpt lat="42.733344035223126" lon="-3.6927480250597">
        <ele>967.22000000000003</ele>
        <time>2025-04-28T09:49:54Z</time>
      </trkpt>
      <trkpt lat="42.733360966667533" lon="-3.692900994792581">
        <ele>966.25999999999999</ele>
        <time>2025-04-28T09:49:55Z</time>
      </trkpt>
      <trkpt lat="42.733384016901255" lon="-3.693058993667364">
        <ele>965.29999999999995</ele>
        <time>2025-04-28T09:49:56Z</time>
      </trkpt>
      <trkpt lat="42.733450988307595" lon="-3.693225961178541">
        <ele>964.34000000000003</ele>
        <time>2025-04-28T09:49:57Z</time>
      </trkpt>
      <trkpt lat="42.733512008562684" lon="-3.693380020558834">
        <ele>963.38</ele>
        <time>2025-04-28T09:49:58Z</time>
      </trkpt>
      <trkpt lat="42.733616027981043" lon="-3.693507006391883">
        <ele>962.41999999999996</ele>
        <time>2025-04-28T09:49:59Z</time>
      </trkpt>
      <trkpt lat="42.733728010207415" lon="-3.693643966689706">
        <ele>961.46000000000004</ele>
        <time>2025-04-28T09:50:00Z</time>
      </trkpt>
      <trkpt lat="42.73384703323245" lon="-3.693788973614574">
        <ele>960.98000000000002</ele>
        <time>2025-04-28T09:50:01Z</time>
      </trkpt>
      <trkpt lat="42.733951974660158" lon="-3.693958036601543">
        <ele>960.00999999999999</ele>
        <time>2025-04-28T09:50:02Z</time>
      </trkpt>
      <trkpt lat="42.73404099047184" lon="-3.694136990234256">
        <ele>959.04999999999995</ele>
        <time>2025-04-28T09:50:03Z</time>
      </trkpt>
      <trkpt lat="42.734111985191703" lon="-3.694331031292677">
        <ele>958.09000000000003</ele>
        <time>2025-04-28T09:50:04Z</time>
      </trkpt>
      <trkpt lat="42.734160013496876" lon="-3.694550972431898">
        <ele>956.64999999999998</ele>
        <time>2025-04-28T09:50:05Z</time>
      </trkpt>
      <trkpt lat="42.734209969639778" lon="-3.694779966026545">
        <ele>955.69000000000005</ele>
        <time>2025-04-28T09:50:06Z</time>
      </trkpt>
      <trkpt lat="42.734284987673163" lon="-3.69537097401917">
        <ele>950.88</ele>
        <time>2025-04-28T09:50:09Z</time>
      </trkpt>
      <trkpt lat="42.734284987673163" lon="-3.69554397650063">
        <ele>948.96000000000004</ele>
        <time>2025-04-28T09:50:10Z</time>
      </trkpt>
      <trkpt lat="42.734207035973668" lon="-3.695681020617485">
        <ele>947.03999999999996</ele>
        <time>2025-04-28T09:50:11Z</time>
      </trkpt>
      <trkpt lat="42.73412799462676" lon="-3.695814963430166">
        <ele>945.11000000000001</ele>
        <time>2025-04-28T09:50:12Z</time>
      </trkpt>
      <trkpt lat="42.734029004350305" lon="-3.695931974798441">
        <ele>943.19000000000005</ele>
        <time>2025-04-28T09:50:13Z</time>
      </trkpt>
      <trkpt lat="42.733892966061831" lon="-3.695995006710291">
        <ele>941.26999999999998</ele>
        <time>2025-04-28T09:50:14Z</time>
      </trkpt>
      <trkpt lat="42.733746031299233" lon="-3.696063989773393">
        <ele>939.35000000000002</ele>
        <time>2025-04-28T09:50:15Z</time>
      </trkpt>
      <trkpt lat="42.733589960262179" lon="-3.696138001978397">
        <ele>937.89999999999998</ele>
        <time>2025-04-28T09:50:16Z</time>
      </trkpt>
      <trkpt lat="42.733427016064525" lon="-3.696214025840163">
        <ele>936.46000000000004</ele>
        <time>2025-04-28T09:50:17Z</time>
      </trkpt>
      <trkpt lat="42.733269017189741" lon="-3.696329025551677">
        <ele>935.01999999999998</ele>
        <time>2025-04-28T09:50:18Z</time>
      </trkpt>
      <trkpt lat="42.732477011159062" lon="-3.69700200855732">
        <ele>927.80999999999995</ele>
        <time>2025-04-28T09:50:23Z</time>
      </trkpt>
      <trkpt lat="42.732356982305646" lon="-3.697177022695541">
        <ele>926.85000000000002</ele>
        <time>2025-04-28T09:50:24Z</time>
      </trkpt>
      <trkpt lat="42.732240976765752" lon="-3.697375003248453">
        <ele>925.40999999999997</ele>
        <time>2025-04-28T09:50:25Z</time>
      </trkpt>
      <trkpt lat="42.731890026479959" lon="-3.698017979040742">
        <ele>921.08000000000004</ele>
        <time>2025-04-28T09:50:28Z</time>
      </trkpt>
      <trkpt lat="42.73174200206995" lon="-3.698210008442402">
        <ele>919.15999999999997</ele>
        <time>2025-04-28T09:50:29Z</time>
      </trkpt>
      <trkpt lat="42.73159003816545" lon="-3.698408994823694">
        <ele>917.72000000000003</ele>
        <time>2025-04-28T09:50:30Z</time>
      </trkpt>
      <trkpt lat="42.731436984613538" lon="-3.698607981204987">
        <ele>915.78999999999996</ele>
        <time>2025-04-28T09:50:31Z</time>
      </trkpt>
      <trkpt lat="42.731302035972476" lon="-3.698815014213324">
        <ele>913.87</ele>
        <time>2025-04-28T09:50:32Z</time>
      </trkpt>
      <trkpt lat="42.731169015169144" lon="-3.699020035564899">
        <ele>912.42999999999995</ele>
        <time>2025-04-28T09:50:33Z</time>
      </trkpt>
      <trkpt lat="42.730742963030934" lon="-3.699604002758861">
        <ele>906.65999999999997</ele>
        <time>2025-04-28T09:50:36Z</time>
      </trkpt>
      <trkpt lat="42.730575995519757" lon="-3.699770970270038">
        <ele>904.74000000000001</ele>
        <time>2025-04-28T09:50:37Z</time>
      </trkpt>
      <trkpt lat="42.730402993038297" lon="-3.699913965538144">
        <ele>902.82000000000005</ele>
        <time>2025-04-28T09:50:38Z</time>
      </trkpt>
      <trkpt lat="42.730254968628287" lon="-3.700026031583548">
        <ele>900.88999999999999</ele>
        <time>2025-04-28T09:50:39Z</time>
      </trkpt>
      <trkpt lat="42.730149021372199" lon="-3.700107000768185">
        <ele>898.97000000000003</ele>
        <time>2025-04-28T09:50:40Z</time>
      </trkpt>
      <trkpt lat="42.729993034154177" lon="-3.70022501796484">
        <ele>894.63999999999999</ele>
        <time>2025-04-28T09:50:45Z</time>
      </trkpt>
      <trkpt lat="42.729942994192243" lon="-3.700239015743136">
        <ele>891.75999999999999</ele>
        <time>2025-04-28T09:50:57Z</time>
      </trkpt>
      <trkpt lat="42.729776026681066" lon="-3.700283020734787">
        <ele>889.84000000000003</ele>
        <time>2025-04-28T09:51:01Z</time>
      </trkpt>
      <trkpt lat="42.729205973446369" lon="-3.700396008789539">
        <ele>884.07000000000005</ele>
        <time>2025-04-28T09:51:08Z</time>
      </trkpt>
      <trkpt lat="42.728921994566917" lon="-3.700461974367499">
        <ele>880.71000000000004</ele>
        <time>2025-04-28T09:51:12Z</time>
      </trkpt>
      <trkpt lat="42.728818980976939" lon="-3.700516037642956">
        <ele>880.71000000000004</ele>
        <time>2025-04-28T09:51:13Z</time>
      </trkpt>
      <trkpt lat="42.728244988247752" lon="-3.700818037614226">
        <ele>877.34000000000003</ele>
        <time>2025-04-28T09:51:18Z</time>
      </trkpt>
      <trkpt lat="42.72811003960669" lon="-3.700874028727412">
        <ele>876.86000000000001</ele>
        <time>2025-04-28T09:51:19Z</time>
      </trkpt>
      <trkpt lat="42.727490030229092" lon="-3.700948962941766">
        <ele>873.98000000000002</ele>
        <time>2025-04-28T09:51:23Z</time>
      </trkpt>
      <trkpt lat="42.727189036086202" lon="-3.701032027602196">
        <ele>872.04999999999995</ele>
        <time>2025-04-28T09:51:25Z</time>
      </trkpt>
      <trkpt lat="42.727060960605741" lon="-3.701120037585497">
        <ele>871.57000000000005</ele>
        <time>2025-04-28T09:51:26Z</time>
      </trkpt>
      <trkpt lat="42.726338021457195" lon="-3.701748009771109">
        <ele>867.73000000000002</ele>
        <time>2025-04-28T09:51:32Z</time>
      </trkpt>
      <trkpt lat="42.726253028959036" lon="-3.70187901891768">
        <ele>867.25</ele>
        <time>2025-04-28T09:51:33Z</time>
      </trkpt>
      <trkpt lat="42.726205000653863" lon="-3.702058978378773">
        <ele>866.76999999999998</ele>
        <time>2025-04-28T09:51:34Z</time>
      </trkpt>
      <trkpt lat="42.726157978177071" lon="-3.702257964760065">
        <ele>865.79999999999995</ele>
        <time>2025-04-28T09:51:35Z</time>
      </trkpt>
      <trkpt lat="42.726107016205788" lon="-3.702473966404796">
        <ele>865.32000000000005</ele>
        <time>2025-04-28T09:51:36Z</time>
      </trkpt>
      <trkpt lat="42.725564958527684" lon="-3.70426501147449">
        <ele>860.03999999999996</ele>
        <time>2025-04-28T09:51:44Z</time>
      </trkpt>
      <trkpt lat="42.725320039317012" lon="-3.705043019726872">
        <ele>858.11000000000001</ele>
        <time>2025-04-28T09:51:48Z</time>
      </trkpt>
      <trkpt lat="42.725244015455246" lon="-3.70518702082336">
        <ele>857.63</ele>
        <time>2025-04-28T09:51:49Z</time>
      </trkpt>
      <trkpt lat="42.725172014907002" lon="-3.705322975292802">
        <ele>857.14999999999998</ele>
        <time>2025-04-28T09:51:50Z</time>
      </trkpt>
      <trkpt lat="42.725138990208507" lon="-3.705474017187953">
        <ele>856.66999999999996</ele>
        <time>2025-04-28T09:51:51Z</time>
      </trkpt>
      <trkpt lat="42.725131027400494" lon="-3.705638973042369">
        <ele>856.66999999999996</ele>
        <time>2025-04-28T09:51:52Z</time>
      </trkpt>
      <trkpt lat="42.725122980773449" lon="-3.705808036029339">
        <ele>856.19000000000005</ele>
        <time>2025-04-28T09:51:53Z</time>
      </trkpt>
      <trkpt lat="42.725115017965436" lon="-3.705977015197277">
        <ele>856.19000000000005</ele>
        <time>2025-04-28T09:51:54Z</time>
      </trkpt>
      <trkpt lat="42.725107977166772" lon="-3.706129984930158">
        <ele>855.71000000000004</ele>
        <time>2025-04-28T09:51:55Z</time>
      </trkpt>
      <trkpt lat="42.725098002701998" lon="-3.706283960491419">
        <ele>855.23000000000002</ele>
        <time>2025-04-28T09:51:56Z</time>
      </trkpt>
      <trkpt lat="42.725048968568444" lon="-3.706426033750176">
        <ele>854.75</ele>
        <time>2025-04-28T09:51:57Z</time>
      </trkpt>
      <trkpt lat="42.724992977455258" lon="-3.706585960462689">
        <ele>853.78999999999996</ele>
        <time>2025-04-28T09:51:58Z</time>
      </trkpt>
      <trkpt lat="42.72492902353406" lon="-3.706771032884717">
        <ele>853.78999999999996</ele>
        <time>2025-04-28T09:51:59Z</time>
      </trkpt>
      <trkpt lat="42.724835984408855" lon="-3.706947974860668">
        <ele>853.30999999999995</ele>
        <time>2025-04-28T09:52:00Z</time>
      </trkpt>
      <trkpt lat="42.724583018571138" lon="-3.707559015601873">
        <ele>851.87</ele>
        <time>2025-04-28T09:52:03Z</time>
      </trkpt>
      <trkpt lat="42.724525015801191" lon="-3.707799995318055">
        <ele>851.38</ele>
        <time>2025-04-28T09:52:04Z</time>
      </trkpt>
      <trkpt lat="42.724274983629584" lon="-3.70873399078846">
        <ele>847.53999999999996</ele>
        <time>2025-04-28T09:52:08Z</time>
      </trkpt>
      <trkpt lat="42.724193008616567" lon="-3.708944041281939">
        <ele>846.58000000000004</ele>
        <time>2025-04-28T09:52:09Z</time>
      </trkpt>
      <trkpt lat="42.724084965884686" lon="-3.709134981036186">
        <ele>845.62</ele>
        <time>2025-04-28T09:52:10Z</time>
      </trkpt>
      <trkpt lat="42.723974995315075" lon="-3.709329022094607">
        <ele>845.13999999999999</ele>
        <time>2025-04-28T09:52:11Z</time>
      </trkpt>
      <trkpt lat="42.723859995603561" lon="-3.709532031789422">
        <ele>844.17999999999995</ele>
        <time>2025-04-28T09:52:12Z</time>
      </trkpt>
      <trkpt lat="42.723134038969874" lon="-3.711015963926911">
        <ele>837.45000000000005</ele>
        <time>2025-04-28T09:52:19Z</time>
      </trkpt>
      <trkpt lat="42.72308399900794" lon="-3.711193995550275">
        <ele>836.48000000000002</ele>
        <time>2025-04-28T09:52:20Z</time>
      </trkpt>
      <trkpt lat="42.723049968481064" lon="-3.711372027173638">
        <ele>835.51999999999998</ele>
        <time>2025-04-28T09:52:21Z</time>
      </trkpt>
      <trkpt lat="42.72301803342998" lon="-3.711540000513196">
        <ele>834.08000000000004</ele>
        <time>2025-04-28T09:52:22Z</time>
      </trkpt>
      <trkpt lat="42.722968999296427" lon="-3.711681989952922">
        <ele>833.12</ele>
        <time>2025-04-28T09:52:23Z</time>
      </trkpt>
      <trkpt lat="42.722881995141506" lon="-3.71180796995759">
        <ele>831.67999999999995</ele>
        <time>2025-04-28T09:52:24Z</time>
      </trkpt>
      <trkpt lat="42.722773030400276" lon="-3.711921041831374">
        <ele>830.72000000000003</ele>
        <time>2025-04-28T09:52:25Z</time>
      </trkpt>
      <trkpt lat="42.722645960748196" lon="-3.712032018229365">
        <ele>829.75999999999999</ele>
        <time>2025-04-28T09:52:26Z</time>
      </trkpt>
      <trkpt lat="42.722400035709143" lon="-3.712290013208985">
        <ele>828.30999999999995</ele>
        <time>2025-04-28T09:52:28Z</time>
      </trkpt>
      <trkpt lat="42.722285035997629" lon="-3.712435020133853">
        <ele>827.35000000000002</ele>
        <time>2025-04-28T09:52:29Z</time>
      </trkpt>
      <trkpt lat="42.722199037671089" lon="-3.712617997080088">
        <ele>826.87</ele>
        <time>2025-04-28T09:52:30Z</time>
      </trkpt>
      <trkpt lat="42.722127959132195" lon="-3.712809020653367">
        <ele>825.90999999999997</ele>
        <time>2025-04-28T09:52:31Z</time>
      </trkpt>
      <trkpt lat="42.722076997160912" lon="-3.713026028126478">
        <ele>825.42999999999995</ele>
        <time>2025-04-28T09:52:32Z</time>
      </trkpt>
      <trkpt lat="42.722026035189629" lon="-3.71324697509408">
        <ele>824.47000000000003</ele>
        <time>2025-04-28T09:52:33Z</time>
      </trkpt>
      <trkpt lat="42.721974989399314" lon="-3.713465994223952">
        <ele>823.99000000000001</ele>
        <time>2025-04-28T09:52:34Z</time>
      </trkpt>
      <trkpt lat="42.721530999988317" lon="-3.715208005160093">
        <ele>816.77999999999997</ele>
        <time>2025-04-28T09:52:42Z</time>
      </trkpt>
      <trkpt lat="42.721443995833397" lon="-3.715619975700975">
        <ele>814.85000000000002</ele>
        <time>2025-04-28T09:52:44Z</time>
      </trkpt>
      <trkpt lat="42.721418011933565" lon="-3.715791972354055">
        <ele>814.37</ele>
        <time>2025-04-28T09:52:45Z</time>
      </trkpt>
      <trkpt lat="42.721395967528224" lon="-3.715970003977418">
        <ele>813.40999999999997</ele>
        <time>2025-04-28T09:52:46Z</time>
      </trkpt>
      <trkpt lat="42.721376018598676" lon="-3.716137977316976">
        <ele>812.92999999999995</ele>
        <time>2025-04-28T09:52:47Z</time>
      </trkpt>
      <trkpt lat="42.721333019435406" lon="-3.716305028647184">
        <ele>812.45000000000005</ele>
        <time>2025-04-28T09:52:48Z</time>
      </trkpt>
      <trkpt lat="42.721270993351936" lon="-3.716463027521968">
        <ele>811.49000000000001</ele>
        <time>2025-04-28T09:52:49Z</time>
      </trkpt>
      <trkpt lat="42.721179965883493" lon="-3.716605016961694">
        <ele>811.00999999999999</ele>
        <time>2025-04-28T09:52:50Z</time>
      </trkpt>
      <trkpt lat="42.721087010577321" lon="-3.716751029714942">
        <ele>810.52999999999997</ele>
        <time>2025-04-28T09:52:51Z</time>
      </trkpt>
      <trkpt lat="42.720607984811068" lon="-3.717598021030426">
        <ele>807.15999999999997</ele>
        <time>2025-04-28T09:52:58Z</time>
      </trkpt>
      <trkpt lat="42.720256028696895" lon="-3.718353984877467">
        <ele>806.20000000000005</ele>
        <time>2025-04-28T09:53:06Z</time>
      </trkpt>
      <trkpt lat="42.720206994563341" lon="-3.718452975153923">
        <ele>806.20000000000005</ele>
        <time>2025-04-28T09:53:07Z</time>
      </trkpt>
      <trkpt lat="42.719668038189411" lon="-3.719645971432328">
        <ele>802.84000000000003</ele>
        <time>2025-04-28T09:53:19Z</time>
      </trkpt>
      <trkpt lat="42.719444995746017" lon="-3.720322977751494">
        <ele>802.84000000000003</ele>
        <time>2025-04-28T09:53:26Z</time>
      </trkpt>
      <trkpt lat="42.719293031841516" lon="-3.720778031274676">
        <ele>803.32000000000005</ele>
        <time>2025-04-28T09:53:31Z</time>
      </trkpt>
      <trkpt lat="42.719262018799782" lon="-3.720861012116075">
        <ele>803.32000000000005</ele>
        <time>2025-04-28T09:53:32Z</time>
      </trkpt>
      <trkpt lat="42.719227988272905" lon="-3.720951033756137">
        <ele>803.32000000000005</ele>
        <time>2025-04-28T09:53:33Z</time>
      </trkpt>
      <trkpt lat="42.719192029908299" lon="-3.721048012375832">
        <ele>802.84000000000003</ele>
        <time>2025-04-28T09:53:34Z</time>
      </trkpt>
      <trkpt lat="42.719151964411139" lon="-3.721153037622571">
        <ele>802.36000000000001</ele>
        <time>2025-04-28T09:53:35Z</time>
      </trkpt>
      <trkpt lat="42.719068983569741" lon="-3.721374990418553">
        <ele>801.88</ele>
        <time>2025-04-28T09:53:37Z</time>
      </trkpt>
      <trkpt lat="42.71902397274971" lon="-3.721494013443589">
        <ele>801.88</ele>
        <time>2025-04-28T09:53:38Z</time>
      </trkpt>
      <trkpt lat="42.718982985243201" lon="-3.721612030640245">
        <ele>801.39999999999998</ele>
        <time>2025-04-28T09:53:39Z</time>
      </trkpt>
      <trkpt lat="42.718963958323002" lon="-3.721747985109687">
        <ele>800.91999999999996</ele>
        <time>2025-04-28T09:53:40Z</time>
      </trkpt>
      <trkpt lat="42.718944009393454" lon="-3.721891986206174">
        <ele>800.91999999999996</ele>
        <time>2025-04-28T09:53:41Z</time>
      </trkpt>
      <trkpt lat="42.718867985531688" lon="-3.722552983090282">
        <ele>799.95000000000005</ele>
        <time>2025-04-28T09:53:45Z</time>
      </trkpt>
      <trkpt lat="42.718823980540037" lon="-3.722727997228503">
        <ele>799.47000000000003</ele>
        <time>2025-04-28T09:53:46Z</time>
      </trkpt>
      <trkpt lat="42.718758014962077" lon="-3.722889013588429">
        <ele>799.47000000000003</ele>
        <time>2025-04-28T09:53:47Z</time>
      </trkpt>
      <trkpt lat="42.718675034120679" lon="-3.723054975271225">
        <ele>798.99000000000001</ele>
        <time>2025-04-28T09:53:48Z</time>
      </trkpt>
      <trkpt lat="42.718566991388798" lon="-3.72319201938808">
        <ele>798.50999999999999</ele>
        <time>2025-04-28T09:53:49Z</time>
      </trkpt>
      <trkpt lat="42.718457020819187" lon="-3.723333002999425">
        <ele>798.02999999999997</ele>
        <time>2025-04-28T09:53:50Z</time>
      </trkpt>
      <trkpt lat="42.718345960602164" lon="-3.72347398661077">
        <ele>797.54999999999995</ele>
        <time>2025-04-28T09:53:51Z</time>
      </trkpt>
      <trkpt lat="42.71824898198247" lon="-3.723624022677541">
        <ele>797.54999999999995</ele>
        <time>2025-04-28T09:53:52Z</time>
      </trkpt>
      <trkpt lat="42.718060975894332" lon="-3.723951000720263">
        <ele>797.07000000000005</ele>
        <time>2025-04-28T09:53:54Z</time>
      </trkpt>
      <trkpt lat="42.717980006709695" lon="-3.724144035950303">
        <ele>796.59000000000003</ele>
        <time>2025-04-28T09:53:55Z</time>
      </trkpt>
      <trkpt lat="42.717897025868297" lon="-3.724345033988357">
        <ele>796.59000000000003</ele>
        <time>2025-04-28T09:53:56Z</time>
      </trkpt>
      <trkpt lat="42.71749896928668" lon="-3.725306019186974">
        <ele>795.63</ele>
        <time>2025-04-28T09:54:01Z</time>
      </trkpt>
      <trkpt lat="42.717396961525083" lon="-3.72547198086977">
        <ele>795.63</ele>
        <time>2025-04-28T09:54:02Z</time>
      </trkpt>
      <trkpt lat="42.716923970729113" lon="-3.726042034104466">
        <ele>794.66999999999996</ele>
        <time>2025-04-28T09:54:06Z</time>
      </trkpt>
      <trkpt lat="42.716844007372856" lon="-3.726201960816979">
        <ele>794.19000000000005</ele>
        <time>2025-04-28T09:54:07Z</time>
      </trkpt>
      <trkpt lat="42.716805031523108" lon="-3.726397007703781">
        <ele>793.71000000000004</ele>
        <time>2025-04-28T09:54:08Z</time>
      </trkpt>
      <trkpt lat="42.716435976326466" lon="-3.728075986728072">
        <ele>788.89999999999998</ele>
        <time>2025-04-28T09:54:15Z</time>
      </trkpt>
      <trkpt lat="42.715852009132504" lon="-3.730462985113263">
        <ele>782.16999999999996</ele>
        <time>2025-04-28T09:54:24Z</time>
      </trkpt>
      <trkpt lat="42.715766010805964" lon="-3.730690972879529">
        <ele>782.16999999999996</ele>
        <time>2025-04-28T09:54:25Z</time>
      </trkpt>
      <trkpt lat="42.715128986164927" lon="-3.732619984075427">
        <ele>776.39999999999998</ele>
        <time>2025-04-28T09:54:33Z</time>
      </trkpt>
      <trkpt lat="42.714801002293825" lon="-3.734042979776859">
        <ele>770.63</ele>
        <time>2025-04-28T09:54:39Z</time>
      </trkpt>
      <trkpt lat="42.714822962880135" lon="-3.734325030818582">
        <ele>769.66999999999996</ele>
        <time>2025-04-28T09:54:40Z</time>
      </trkpt>
      <trkpt lat="42.714851964265108" lon="-3.734584031626582">
        <ele>769.19000000000005</ele>
        <time>2025-04-28T09:54:41Z</time>
      </trkpt>
      <trkpt lat="42.714988002553582" lon="-3.735791025683284">
        <ele>767.26999999999998</ele>
        <time>2025-04-28T09:54:46Z</time>
      </trkpt>
      <trkpt lat="42.714965958148241" lon="-3.736008033156395">
        <ele>767.75</ele>
        <time>2025-04-28T09:54:47Z</time>
      </trkpt>
      <trkpt lat="42.714931005612016" lon="-3.736202996224165">
        <ele>767.75</ele>
        <time>2025-04-28T09:54:48Z</time>
      </trkpt>
      <trkpt lat="42.71485598757863" lon="-3.736383961513639">
        <ele>768.23000000000002</ele>
        <time>2025-04-28T09:54:49Z</time>
      </trkpt>
      <trkpt lat="42.714779041707516" lon="-3.736561993137002">
        <ele>768.23000000000002</ele>
        <time>2025-04-28T09:54:50Z</time>
      </trkpt>
      <trkpt lat="42.71470301784575" lon="-3.736741030588746">
        <ele>767.75</ele>
        <time>2025-04-28T09:54:51Z</time>
      </trkpt>
      <trkpt lat="42.714659012854099" lon="-3.736930964514613">
        <ele>767.26999999999998</ele>
        <time>2025-04-28T09:54:52Z</time>
      </trkpt>
      <trkpt lat="42.714637974277139" lon="-3.737126011401415">
        <ele>766.78999999999996</ele>
        <time>2025-04-28T09:54:53Z</time>
      </trkpt>
      <trkpt lat="42.714637974277139" lon="-3.737304965034127">
        <ele>766.78999999999996</ele>
        <time>2025-04-28T09:54:54Z</time>
      </trkpt>
      <trkpt lat="42.714652977883816" lon="-3.73748199082911">
        <ele>766.30999999999995</ele>
        <time>2025-04-28T09:54:55Z</time>
      </trkpt>
      <trkpt lat="42.714708968997002" lon="-3.737661028280854">
        <ele>766.30999999999995</ele>
        <time>2025-04-28T09:54:56Z</time>
      </trkpt>
      <trkpt lat="42.714765965938568" lon="-3.737842999398708">
        <ele>766.30999999999995</ele>
        <time>2025-04-28T09:54:57Z</time>
      </trkpt>
      <trkpt lat="42.714994037523866" lon="-3.738569961860776">
        <ele>766.30999999999995</ele>
        <time>2025-04-28T09:55:01Z</time>
      </trkpt>
      <trkpt lat="42.715095039457083" lon="-3.739663967862725">
        <ele>765.83000000000004</ele>
        <time>2025-04-28T09:55:07Z</time>
      </trkpt>
      <trkpt lat="42.715229988098145" lon="-3.740984033793211">
        <ele>762.46000000000004</ele>
        <time>2025-04-28T09:55:15Z</time>
      </trkpt>
      <trkpt lat="42.715229988098145" lon="-3.741108002141118">
        <ele>761.98000000000002</ele>
        <time>2025-04-28T09:55:16Z</time>
      </trkpt>
      <trkpt lat="42.715229988098145" lon="-3.741604965180159">
        <ele>759.10000000000002</ele>
        <time>2025-04-28T09:55:20Z</time>
      </trkpt>
      <trkpt lat="42.715229988098145" lon="-3.741722982376814">
        <ele>758.62</ele>
        <time>2025-04-28T09:55:21Z</time>
      </trkpt>
      <trkpt lat="42.715229988098145" lon="-3.741833958774805">
        <ele>757.65999999999997</ele>
        <time>2025-04-28T09:55:22Z</time>
      </trkpt>
      <trkpt lat="42.715208027511835" lon="-3.742119027301669">
        <ele>755.25</ele>
        <time>2025-04-28T09:55:25Z</time>
      </trkpt>
      <trkpt lat="42.71515698172152" lon="-3.742491016164422">
        <ele>752.37</ele>
        <time>2025-04-28T09:55:29Z</time>
      </trkpt>
      <trkpt lat="42.71517600864172" lon="-3.742578020319343">
        <ele>751.88999999999999</ele>
        <time>2025-04-28T09:55:30Z</time>
      </trkpt>
      <trkpt lat="42.715197969228029" lon="-3.742678016424179">
        <ele>750.92999999999995</ele>
        <time>2025-04-28T09:55:31Z</time>
      </trkpt>
      <trkpt lat="42.715221019461751" lon="-3.742783963680267">
        <ele>750.45000000000005</ele>
        <time>2025-04-28T09:55:32Z</time>
      </trkpt>
      <trkpt lat="42.715245997533202" lon="-3.742898041382432">
        <ele>750.45000000000005</ele>
        <time>2025-04-28T09:55:33Z</time>
      </trkpt>
      <trkpt lat="42.715343981981277" lon="-3.743248991668224">
        <ele>749.97000000000003</ele>
        <time>2025-04-28T09:55:36Z</time>
      </trkpt>
      <trkpt lat="42.715387986972928" lon="-3.743366003036499">
        <ele>749.49000000000001</ele>
        <time>2025-04-28T09:55:37Z</time>
      </trkpt>
      <trkpt lat="42.716015037149191" lon="-3.744536032900214">
        <ele>748.03999999999996</ele>
        <time>2025-04-28T09:55:49Z</time>
      </trkpt>
      <trkpt lat="42.71605895832181" lon="-3.744609961286187">
        <ele>748.03999999999996</ele>
        <time>2025-04-28T09:55:50Z</time>
      </trkpt>
      <trkpt lat="42.71610296331346" lon="-3.744681961834431">
        <ele>748.03999999999996</ele>
        <time>2025-04-28T09:55:51Z</time>
      </trkpt>
      <trkpt lat="42.716131964698434" lon="-3.744728984311223">
        <ele>748.03999999999996</ele>
        <time>2025-04-28T09:55:52Z</time>
      </trkpt>
      <trkpt lat="42.716153003275394" lon="-3.744856975972652">
        <ele>748.03999999999996</ele>
        <time>2025-04-28T09:55:53Z</time>
      </trkpt>
      <trkpt lat="42.716174963861704" lon="-3.744985973462462">
        <ele>748.51999999999998</ele>
        <time>2025-04-28T09:55:54Z</time>
      </trkpt>
      <trkpt lat="42.716169012710452" lon="-3.745056968182325">
        <ele>748.51999999999998</ele>
        <time>2025-04-28T09:55:55Z</time>
      </trkpt>
      <trkpt lat="42.716160966083407" lon="-3.745171967893839">
        <ele>748.51999999999998</ele>
        <time>2025-04-28T09:55:56Z</time>
      </trkpt>
      <trkpt lat="42.716151997447014" lon="-3.745288979262114">
        <ele>748.03999999999996</ele>
        <time>2025-04-28T09:55:57Z</time>
      </trkpt>
      <trkpt lat="42.716128025203943" lon="-3.745630960911512">
        <ele>746.12</ele>
        <time>2025-04-28T09:56:00Z</time>
      </trkpt>
      <trkpt lat="42.716116961091757" lon="-3.745975960046053">
        <ele>744.67999999999995</ele>
        <time>2025-04-28T09:56:03Z</time>
      </trkpt>
      <trkpt lat="42.716125007718801" lon="-3.74609699472785">
        <ele>744.20000000000005</ele>
        <time>2025-04-28T09:56:04Z</time>
      </trkpt>
      <trkpt lat="42.716145040467381" lon="-3.746245019137859">
        <ele>743.72000000000003</ele>
        <time>2025-04-28T09:56:05Z</time>
      </trkpt>
      <trkpt lat="42.716188039630651" lon="-3.746367981657386">
        <ele>743.24000000000001</ele>
        <time>2025-04-28T09:56:06Z</time>
      </trkpt>
      <trkpt lat="42.716233972460032" lon="-3.746496979147196">
        <ele>743.24000000000001</ele>
        <time>2025-04-28T09:56:07Z</time>
      </trkpt>
      <trkpt lat="42.716308990493417" lon="-3.746610973030329">
        <ele>742.75999999999999</ele>
        <time>2025-04-28T09:56:08Z</time>
      </trkpt>
      <trkpt lat="42.716384008526802" lon="-3.746720021590591">
        <ele>742.27999999999997</ele>
        <time>2025-04-28T09:56:09Z</time>
      </trkpt>
      <trkpt lat="42.716461960226297" lon="-3.746833009645343">
        <ele>741.78999999999996</ele>
        <time>2025-04-28T09:56:10Z</time>
      </trkpt>
      <trkpt lat="42.716542007401586" lon="-3.746949015185237">
        <ele>741.30999999999995</ele>
        <time>2025-04-28T09:56:11Z</time>
      </trkpt>
      <trkpt lat="42.716693971306086" lon="-3.747185971587896">
        <ele>740.83000000000004</ele>
        <time>2025-04-28T09:56:13Z</time>
      </trkpt>
      <trkpt lat="42.716754991561174" lon="-3.747313041239977">
        <ele>740.35000000000002</ele>
        <time>2025-04-28T09:56:14Z</time>
      </trkpt>
      <trkpt lat="42.717102002352476" lon="-3.748315013945103">
        <ele>736.99000000000001</ele>
        <time>2025-04-28T09:56:23Z</time>
      </trkpt>
      <trkpt lat="42.717306017875671" lon="-3.749209027737379">
        <ele>737.95000000000005</ele>
        <time>2025-04-28T09:56:33Z</time>
      </trkpt>
      <trkpt lat="42.717364020645618" lon="-3.749264013022184">
        <ele>738.42999999999995</ele>
        <time>2025-04-28T09:56:34Z</time>
      </trkpt>
      <trkpt lat="42.717414982616901" lon="-3.749292008578777">
        <ele>738.42999999999995</ele>
        <time>2025-04-28T09:56:35Z</time>
      </trkpt>
      <trkpt lat="42.717686975374818" lon="-3.749462999403477">
        <ele>738.90999999999997</ele>
        <time>2025-04-28T09:56:39Z</time>
      </trkpt>
      <trkpt lat="42.717771967872977" lon="-3.749519996345043">
        <ele>738.42999999999995</ele>
        <time>2025-04-28T09:56:40Z</time>
      </trkpt>
      <trkpt lat="42.717876993119717" lon="-3.74955696053803">
        <ele>738.42999999999995</ele>
        <time>2025-04-28T09:56:41Z</time>
      </trkpt>
      <trkpt lat="42.717983024194837" lon="-3.74955696053803">
        <ele>738.42999999999995</ele>
        <time>2025-04-28T09:56:42Z</time>
      </trkpt>
      <trkpt lat="42.718103975057602" lon="-3.749548997730017">
        <ele>737.95000000000005</ele>
        <time>2025-04-28T09:56:43Z</time>
      </trkpt>
      <trkpt lat="42.718213023617864" lon="-3.749502981081605">
        <ele>737.95000000000005</ele>
        <time>2025-04-28T09:56:44Z</time>
      </trkpt>
      <trkpt lat="42.718324000015855" lon="-3.749456964433193">
        <ele>737.47000000000003</ele>
        <time>2025-04-28T09:56:45Z</time>
      </trkpt>
      <trkpt lat="42.719099996611476" lon="-3.749219002202153">
        <ele>736.99000000000001</ele>
        <time>2025-04-28T09:56:52Z</time>
      </trkpt>
      <trkpt lat="42.719207033514977" lon="-3.749193018302321">
        <ele>736.99000000000001</ele>
        <time>2025-04-28T09:56:53Z</time>
      </trkpt>
      <trkpt lat="42.719331001862884" lon="-3.74921003356576">
        <ele>736.99000000000001</ele>
        <time>2025-04-28T09:56:54Z</time>
      </trkpt>
      <trkpt lat="42.720942003652453" lon="-3.749510021880269">
        <ele>736.50999999999999</ele>
        <time>2025-04-28T09:57:06Z</time>
      </trkpt>
      <trkpt lat="42.722269026562572" lon="-3.750064987689257">
        <ele>734.58000000000004</ele>
        <time>2025-04-28T09:57:16Z</time>
      </trkpt>
      <trkpt lat="42.722497014328837" lon="-3.750201025977731">
        <ele>734.10000000000002</ele>
        <time>2025-04-28T09:57:18Z</time>
      </trkpt>
      <trkpt lat="42.723369989544153" lon="-3.75097400508821">
        <ele>738.42999999999995</ele>
        <time>2025-04-28T09:57:27Z</time>
      </trkpt>
      <trkpt lat="42.724253023043275" lon="-3.751349011436105">
        <ele>739.87</ele>
        <time>2025-04-28T09:57:34Z</time>
      </trkpt>
      <trkpt lat="42.724402975291014" lon="-3.751439033076167">
        <ele>740.35000000000002</ele>
        <time>2025-04-28T09:57:35Z</time>
      </trkpt>
      <trkpt lat="42.72454597055912" lon="-3.751551015302539">
        <ele>740.83000000000004</ele>
        <time>2025-04-28T09:57:36Z</time>
      </trkpt>
      <trkpt lat="42.725591026246548" lon="-3.752416027709842">
        <ele>739.38999999999999</ele>
        <time>2025-04-28T09:57:43Z</time>
      </trkpt>
      <trkpt lat="42.725728992372751" lon="-3.752587018534541">
        <ele>738.90999999999997</ele>
        <time>2025-04-28T09:57:44Z</time>
      </trkpt>
      <trkpt lat="42.725867964327335" lon="-3.752759015187621">
        <ele>738.42999999999995</ele>
        <time>2025-04-28T09:57:45Z</time>
      </trkpt>
      <trkpt lat="42.726528961211443" lon="-3.753738021478057">
        <ele>735.54999999999995</ele>
        <time>2025-04-28T09:57:50Z</time>
      </trkpt>
      <trkpt lat="42.726646978408098" lon="-3.753962991759181">
        <ele>734.58000000000004</ele>
        <time>2025-04-28T09:57:51Z</time>
      </trkpt>
      <trkpt lat="42.726749991998076" lon="-3.754205983132124">
        <ele>734.10000000000002</ele>
        <time>2025-04-28T09:57:52Z</time>
      </trkpt>
      <trkpt lat="42.727338988333941" lon="-3.756328029558063">
        <ele>730.74000000000001</ele>
        <time>2025-04-28T09:58:00Z</time>
      </trkpt>
      <trkpt lat="42.727613998576999" lon="-3.757538041099906">
        <ele>731.22000000000003</ele>
        <time>2025-04-28T09:58:05Z</time>
      </trkpt>
      <trkpt lat="42.727706031873822" lon="-3.757765023037791">
        <ele>731.22000000000003</ele>
        <time>2025-04-28T09:58:06Z</time>
      </trkpt>
      <trkpt lat="42.728300979360938" lon="-3.759122975170612">
        <ele>731.70000000000005</ele>
        <time>2025-04-28T09:58:12Z</time>
      </trkpt>
      <trkpt lat="42.728340961039066" lon="-3.759361021220684">
        <ele>731.70000000000005</ele>
        <time>2025-04-28T09:58:13Z</time>
      </trkpt>
      <trkpt lat="42.728332998231053" lon="-3.759605018422008">
        <ele>731.22000000000003</ele>
        <time>2025-04-28T09:58:14Z</time>
      </trkpt>
      <trkpt lat="42.728244988247752" lon="-3.760890970006585">
        <ele>728.34000000000003</ele>
        <time>2025-04-28T09:58:19Z</time>
      </trkpt>
      <trkpt lat="42.728252029046416" lon="-3.761123986914754">
        <ele>727.86000000000001</ele>
        <time>2025-04-28T09:58:20Z</time>
      </trkpt>
      <trkpt lat="42.728312965482473" lon="-3.761343006044626">
        <ele>727.86000000000001</ele>
        <time>2025-04-28T09:58:21Z</time>
      </trkpt>
      <trkpt lat="42.728384966030717" lon="-3.76156697049737">
        <ele>727.37</ele>
        <time>2025-04-28T09:58:22Z</time>
      </trkpt>
      <trkpt lat="42.728467024862766" lon="-3.761795964092016">
        <ele>726.88999999999999</ele>
        <time>2025-04-28T09:58:23Z</time>
      </trkpt>
      <trkpt lat="42.72884395904839" lon="-3.762978985905647">
        <ele>725.45000000000005</ele>
        <time>2025-04-28T09:58:28Z</time>
      </trkpt>
      <trkpt lat="42.728850999847054" lon="-3.763224994763732">
        <ele>724.97000000000003</ele>
        <time>2025-04-28T09:58:29Z</time>
      </trkpt>
      <trkpt lat="42.728844964876771" lon="-3.763475026935339">
        <ele>724.97000000000003</ele>
        <time>2025-04-28T09:58:30Z</time>
      </trkpt>
      <trkpt lat="42.728748992085457" lon="-3.764684032648802">
        <ele>724.97000000000003</ele>
        <time>2025-04-28T09:58:35Z</time>
      </trkpt>
      <trkpt lat="42.728657964617014" lon="-3.764911014586687">
        <ele>724.97000000000003</ele>
        <time>2025-04-28T09:58:36Z</time>
      </trkpt>
      <trkpt lat="42.728571966290474" lon="-3.765123998746276">
        <ele>724.97000000000003</ele>
        <time>2025-04-28T09:58:37Z</time>
      </trkpt>
      <trkpt lat="42.727496987208724" lon="-3.767210002988577">
        <ele>722.57000000000005</ele>
        <time>2025-04-28T09:58:47Z</time>
      </trkpt>
      <trkpt lat="42.727138996124268" lon="-3.767923973500729">
        <ele>722.57000000000005</ele>
        <time>2025-04-28T09:58:51Z</time>
      </trkpt>
      <trkpt lat="42.727118041366339" lon="-3.768186997622252">
        <ele>722.09000000000003</ele>
        <time>2025-04-28T09:58:52Z</time>
      </trkpt>
      <trkpt lat="42.72710002027452" lon="-3.768395958468318">
        <ele>722.09000000000003</ele>
        <time>2025-04-28T09:58:53Z</time>
      </trkpt>
      <trkpt lat="42.727120975032449" lon="-3.768601985648274">
        <ele>722.09000000000003</ele>
        <time>2025-04-28T09:58:54Z</time>
      </trkpt>
      <trkpt lat="42.727152993902564" lon="-3.76882703974843">
        <ele>722.09000000000003</ele>
        <time>2025-04-28T09:58:55Z</time>
      </trkpt>
      <trkpt lat="42.72718702442944" lon="-3.769057961180806">
        <ele>721.61000000000001</ele>
        <time>2025-04-28T09:58:56Z</time>
      </trkpt>
      <trkpt lat="42.727255001664162" lon="-3.769269017502666">
        <ele>721.61000000000001</ele>
        <time>2025-04-28T09:58:57Z</time>
      </trkpt>
      <trkpt lat="42.727360026910901" lon="-3.769474038854241">
        <ele>721.61000000000001</ele>
        <time>2025-04-28T09:58:58Z</time>
      </trkpt>
      <trkpt lat="42.727464968338609" lon="-3.769680988043547">
        <ele>721.61000000000001</ele>
        <time>2025-04-28T09:58:59Z</time>
      </trkpt>
      <trkpt lat="42.727666972205043" lon="-3.770076027140021">
        <ele>720.64999999999998</ele>
        <time>2025-04-28T09:59:01Z</time>
      </trkpt>
      <trkpt lat="42.727723969146609" lon="-3.770295968279243">
        <ele>720.15999999999997</ele>
        <time>2025-04-28T09:59:02Z</time>
      </trkpt>
      <trkpt lat="42.727744001895189" lon="-3.770528985187411">
        <ele>719.67999999999995</ele>
        <time>2025-04-28T09:59:03Z</time>
      </trkpt>
      <trkpt lat="42.727750036865473" lon="-3.770771976560354">
        <ele>719.20000000000005</ele>
        <time>2025-04-28T09:59:04Z</time>
      </trkpt>
      <trkpt lat="42.727755988016725" lon="-3.771017985418439">
        <ele>718.72000000000003</ele>
        <time>2025-04-28T09:59:05Z</time>
      </trkpt>
      <trkpt lat="42.727790018543601" lon="-3.772715991362929">
        <ele>716.32000000000005</ele>
        <time>2025-04-28T09:59:12Z</time>
      </trkpt>
      <trkpt lat="42.72791801020503" lon="-3.773680999875069">
        <ele>715.36000000000001</ele>
        <time>2025-04-28T09:59:16Z</time>
      </trkpt>
      <trkpt lat="42.727932007983327" lon="-3.773922985419631">
        <ele>714.88</ele>
        <time>2025-04-28T09:59:17Z</time>
      </trkpt>
      <trkpt lat="42.727699996903539" lon="-3.776179980486631">
        <ele>712.47000000000003</ele>
        <time>2025-04-28T09:59:26Z</time>
      </trkpt>
      <trkpt lat="42.727664038538933" lon="-3.778230026364327">
        <ele>712.95000000000005</ele>
        <time>2025-04-28T09:59:34Z</time>
      </trkpt>
      <trkpt lat="42.727762022987008" lon="-3.781756041571498">
        <ele>713.44000000000005</ele>
        <time>2025-04-28T09:59:47Z</time>
      </trkpt>
      <trkpt lat="42.727762022987008" lon="-3.782010013237596">
        <ele>713.91999999999996</ele>
        <time>2025-04-28T09:59:48Z</time>
      </trkpt>
      <trkpt lat="42.727730004116893" lon="-3.782998993992806">
        <ele>713.44000000000005</ele>
        <time>2025-04-28T09:59:52Z</time>
      </trkpt>
      <trkpt lat="42.72776897996664" lon="-3.783237962052226">
        <ele>712.95000000000005</ele>
        <time>2025-04-28T09:59:53Z</time>
      </trkpt>
      <trkpt lat="42.727819019928575" lon="-3.78347902558744">
        <ele>712.95000000000005</ele>
        <time>2025-04-28T09:59:54Z</time>
      </trkpt>
      <trkpt lat="42.728052036836743" lon="-3.784675039350987">
        <ele>711.50999999999999</ele>
        <time>2025-04-28T09:59:59Z</time>
      </trkpt>
      <trkpt lat="42.728065028786659" lon="-3.784931022673845">
        <ele>711.02999999999997</ele>
        <time>2025-04-28T10:00:00Z</time>
      </trkpt>
      <trkpt lat="42.728287987411022" lon="-3.78730502910912">
        <ele>709.59000000000003</ele>
        <time>2025-04-28T10:00:09Z</time>
      </trkpt>
      <trkpt lat="42.728298967704177" lon="-3.789108982309699">
        <ele>708.63</ele>
        <time>2025-04-28T10:00:16Z</time>
      </trkpt>
      <trkpt lat="42.728274995461106" lon="-3.789363037794828">
        <ele>708.14999999999998</ele>
        <time>2025-04-28T10:00:17Z</time>
      </trkpt>
      <trkpt lat="42.727891020476818" lon="-3.791485000401735">
        <ele>705.75</ele>
        <time>2025-04-28T10:00:26Z</time>
      </trkpt>
      <trkpt lat="42.727929996326566" lon="-3.791653979569674">
        <ele>705.25999999999999</ele>
        <time>2025-04-28T10:00:27Z</time>
      </trkpt>
      <trkpt lat="42.727976012974977" lon="-3.791850032284856">
        <ele>704.29999999999995</ele>
        <time>2025-04-28T10:00:28Z</time>
      </trkpt>
      <trkpt lat="42.728040972724557" lon="-3.791967965662479">
        <ele>703.82000000000005</ele>
        <time>2025-04-28T10:00:29Z</time>
      </trkpt>
      <trkpt lat="42.728129988536239" lon="-3.792116995900869">
        <ele>703.34000000000003</ele>
        <time>2025-04-28T10:00:30Z</time>
      </trkpt>
      <trkpt lat="42.7282390370965" lon="-3.792254962027073">
        <ele>703.34000000000003</ele>
        <time>2025-04-28T10:00:31Z</time>
      </trkpt>
      <trkpt lat="42.728560985997319" lon="-3.792704986408353">
        <ele>701.41999999999996</ele>
        <time>2025-04-28T10:00:34Z</time>
      </trkpt>
      <trkpt lat="42.728834990411997" lon="-3.793136989697814">
        <ele>699.5</ele>
        <time>2025-04-28T10:00:37Z</time>
      </trkpt>
      <trkpt lat="42.728954013437033" lon="-3.793205972760916">
        <ele>699.01999999999998</ele>
        <time>2025-04-28T10:00:38Z</time>
      </trkpt>
      <trkpt lat="42.729219971224666" lon="-3.793366989120841">
        <ele>697.57000000000005</ele>
        <time>2025-04-28T10:00:40Z</time>
      </trkpt>
      <trkpt lat="42.730484968051314" lon="-3.794496031478047">
        <ele>693.73000000000002</ele>
        <time>2025-04-28T10:00:49Z</time>
      </trkpt>
      <trkpt lat="42.73103398270905" lon="-3.795064995065332">
        <ele>692.28999999999996</ele>
        <time>2025-04-28T10:00:53Z</time>
      </trkpt>
      <trkpt lat="42.731165997684002" lon="-3.795205978676677">
        <ele>692.28999999999996</ele>
        <time>2025-04-28T10:00:54Z</time>
      </trkpt>
      <trkpt lat="42.731282003223896" lon="-3.795371018350124">
        <ele>691.80999999999995</ele>
        <time>2025-04-28T10:00:55Z</time>
      </trkpt>
      <trkpt lat="42.731512002646923" lon="-3.795908968895674">
        <ele>691.80999999999995</ele>
        <time>2025-04-28T10:00:58Z</time>
      </trkpt>
      <trkpt lat="42.731560030952096" lon="-3.796097980812192">
        <ele>691.33000000000004</ele>
        <time>2025-04-28T10:00:59Z</time>
      </trkpt>
      <trkpt lat="42.731576040387154" lon="-3.796278024092317">
        <ele>691.33000000000004</ele>
        <time>2025-04-28T10:01:00Z</time>
      </trkpt>
      <trkpt lat="42.73156899958849" lon="-3.796472987160087">
        <ele>691.80999999999995</ele>
        <time>2025-04-28T10:01:01Z</time>
      </trkpt>
      <trkpt lat="42.731551984325051" lon="-3.796655964106321">
        <ele>691.80999999999995</ele>
        <time>2025-04-28T10:01:02Z</time>
      </trkpt>
      <trkpt lat="42.731537986546755" lon="-3.796806000173092">
        <ele>691.33000000000004</ele>
        <time>2025-04-28T10:01:03Z</time>
      </trkpt>
      <trkpt lat="42.73156899958849" lon="-3.797010015696287">
        <ele>690.84000000000003</ele>
        <time>2025-04-28T10:01:04Z</time>
      </trkpt>
      <trkpt lat="42.731621973216534" lon="-3.797197015956044">
        <ele>689.88</ele>
        <time>2025-04-28T10:01:05Z</time>
      </trkpt>
      <trkpt lat="42.7316979970783" lon="-3.797357026487589">
        <ele>689.39999999999998</ele>
        <time>2025-04-28T10:01:06Z</time>
      </trkpt>
      <trkpt lat="42.731800004839897" lon="-3.79751100204885">
        <ele>689.39999999999998</ele>
        <time>2025-04-28T10:01:07Z</time>
      </trkpt>
      <trkpt lat="42.73197895847261" lon="-3.797818031162024">
        <ele>687.96000000000004</ele>
        <time>2025-04-28T10:01:09Z</time>
      </trkpt>
      <trkpt lat="42.732037967070937" lon="-3.79800695925951">
        <ele>687.48000000000002</ele>
        <time>2025-04-28T10:01:10Z</time>
      </trkpt>
      <trkpt lat="42.732084989547729" lon="-3.798194965347648">
        <ele>687</ele>
        <time>2025-04-28T10:01:11Z</time>
      </trkpt>
      <trkpt lat="42.732121031731367" lon="-3.798386994749308">
        <ele>686.51999999999998</ele>
        <time>2025-04-28T10:01:12Z</time>
      </trkpt>
      <trkpt lat="42.732157995924354" lon="-3.798586986958981">
        <ele>685.55999999999995</ele>
        <time>2025-04-28T10:01:13Z</time>
      </trkpt>
      <trkpt lat="42.732289005070925" lon="-3.799171037971973">
        <ele>684.12</ele>
        <time>2025-04-28T10:01:16Z</time>
      </trkpt>
      <trkpt lat="42.732484973967075" lon="-3.799987016245723">
        <ele>682.66999999999996</ele>
        <time>2025-04-28T10:01:20Z</time>
      </trkpt>
      <trkpt lat="42.732573989778757" lon="-3.80058498121798">
        <ele>681.71000000000004</ele>
        <time>2025-04-28T10:01:23Z</time>
      </trkpt>
      <trkpt lat="42.732629980891943" lon="-3.800783967599273">
        <ele>681.23000000000002</ele>
        <time>2025-04-28T10:01:24Z</time>
      </trkpt>
      <trkpt lat="42.732861991971731" lon="-3.801373969763517">
        <ele>681.23000000000002</ele>
        <time>2025-04-28T10:01:27Z</time>
      </trkpt>
      <trkpt lat="42.73292301222682" lon="-3.80157396197319">
        <ele>681.23000000000002</ele>
        <time>2025-04-28T10:01:28Z</time>
      </trkpt>
      <trkpt lat="42.732954025268555" lon="-3.801787029951811">
        <ele>681.71000000000004</ele>
        <time>2025-04-28T10:01:29Z</time>
      </trkpt>
      <trkpt lat="42.733012028038502" lon="-3.802206041291356">
        <ele>682.66999999999996</ele>
        <time>2025-04-28T10:01:31Z</time>
      </trkpt>
      <trkpt lat="42.733045974746346" lon="-3.802422964945436">
        <ele>683.14999999999998</ele>
        <time>2025-04-28T10:01:32Z</time>
      </trkpt>
      <trkpt lat="42.733118981122971" lon="-3.802618011832237">
        <ele>683.63</ele>
        <time>2025-04-28T10:01:33Z</time>
      </trkpt>
      <trkpt lat="42.73341603577137" lon="-3.803537003695965">
        <ele>686.51999999999998</ele>
        <time>2025-04-28T10:01:39Z</time>
      </trkpt>
      <trkpt lat="42.733427016064525" lon="-3.803607998415828">
        <ele>687.48000000000002</ele>
        <time>2025-04-28T10:01:41Z</time>
      </trkpt>
      <trkpt lat="42.733498010784388" lon="-3.803818970918655">
        <ele>687.96000000000004</ele>
        <time>2025-04-28T10:01:42Z</time>
      </trkpt>
      <trkpt lat="42.733533969148993" lon="-3.803822994232178">
        <ele>688.44000000000005</ele>
        <time>2025-04-28T10:01:43Z</time>
      </trkpt>
      <trkpt lat="42.733617033809423" lon="-3.803822994232178">
        <ele>688.91999999999996</ele>
        <time>2025-04-28T10:01:44Z</time>
      </trkpt>
      <trkpt lat="42.73369699716568" lon="-3.803822994232178">
        <ele>689.39999999999998</ele>
        <time>2025-04-28T10:01:45Z</time>
      </trkpt>
      <trkpt lat="42.733788024634123" lon="-3.803822994232178">
        <ele>689.88</ele>
        <time>2025-04-28T10:01:46Z</time>
      </trkpt>
      <trkpt lat="42.73389196023345" lon="-3.803822994232178">
        <ele>690.36000000000001</ele>
        <time>2025-04-28T10:01:47Z</time>
      </trkpt>
      <trkpt lat="42.734011989086866" lon="-3.803822994232178">
        <ele>690.84000000000003</ele>
        <time>2025-04-28T10:01:48Z</time>
      </trkpt>
      <trkpt lat="42.734695030376315" lon="-3.803563993424177">
        <ele>692.28999999999996</ele>
        <time>2025-04-28T10:01:53Z</time>
      </trkpt>
      <trkpt lat="42.735784007236362" lon="-3.802372002974153">
        <ele>691.80999999999995</ele>
        <time>2025-04-28T10:02:03Z</time>
      </trkpt>
      <trkpt lat="42.736263033002615" lon="-3.801426021382213">
        <ele>691.80999999999995</ele>
        <time>2025-04-28T10:02:11Z</time>
      </trkpt>
      <trkpt lat="42.736369986087084" lon="-3.801202978938818">
        <ele>692.28999999999996</ele>
        <time>2025-04-28T10:02:13Z</time>
      </trkpt>
      <trkpt lat="42.73642597720027" lon="-3.80110097117722">
        <ele>692.76999999999998</ele>
        <time>2025-04-28T10:02:14Z</time>
      </trkpt>
      <trkpt lat="42.7365090418607" lon="-3.800998041406274">
        <ele>693.25</ele>
        <time>2025-04-28T10:02:15Z</time>
      </trkpt>
      <trkpt lat="42.736591016873717" lon="-3.800916988402605">
        <ele>693.73000000000002</ele>
        <time>2025-04-28T10:02:16Z</time>
      </trkpt>
      <trkpt lat="42.736675003543496" lon="-3.800839958712459">
        <ele>694.21000000000004</ele>
        <time>2025-04-28T10:02:17Z</time>
      </trkpt>
      <trkpt lat="42.736764019355178" lon="-3.800774998962879">
        <ele>694.69000000000005</ele>
        <time>2025-04-28T10:02:18Z</time>
      </trkpt>
      <trkpt lat="42.736858986318111" lon="-3.800706015899777">
        <ele>694.69000000000005</ele>
        <time>2025-04-28T10:02:19Z</time>
      </trkpt>
      <trkpt lat="42.737846961244941" lon="-3.80019698292017">
        <ele>696.13</ele>
        <time>2025-04-28T10:02:27Z</time>
      </trkpt>
      <trkpt lat="42.738003032281995" lon="-3.800180973485112">
        <ele>696.61000000000001</ele>
        <time>2025-04-28T10:02:28Z</time>
      </trkpt>
      <trkpt lat="42.738142004236579" lon="-3.800183990970254">
        <ele>696.61000000000001</ele>
        <time>2025-04-28T10:02:29Z</time>
      </trkpt>
      <trkpt lat="42.738289022818208" lon="-3.800200000405312">
        <ele>696.61000000000001</ele>
        <time>2025-04-28T10:02:30Z</time>
      </trkpt>
      <trkpt lat="42.738448027521372" lon="-3.80021802149713">
        <ele>697.09000000000003</ele>
        <time>2025-04-28T10:02:31Z</time>
      </trkpt>
      <trkpt lat="42.738582976162434" lon="-3.800278035923839">
        <ele>697.09000000000003</ele>
        <time>2025-04-28T10:02:32Z</time>
      </trkpt>
      <trkpt lat="42.738727983087301" lon="-3.800371997058392">
        <ele>697.57000000000005</ele>
        <time>2025-04-28T10:02:33Z</time>
      </trkpt>
      <trkpt lat="42.738871984183788" lon="-3.800485990941525">
        <ele>697.57000000000005</ele>
        <time>2025-04-28T10:02:34Z</time>
      </trkpt>
      <trkpt lat="42.739006010815501" lon="-3.800623035058379">
        <ele>698.04999999999995</ele>
        <time>2025-04-28T10:02:35Z</time>
      </trkpt>
      <trkpt lat="42.739121010527015" lon="-3.800794025883079">
        <ele>698.04999999999995</ele>
        <time>2025-04-28T10:02:36Z</time>
      </trkpt>
      <trkpt lat="42.73921899497509" lon="-3.800997035577893">
        <ele>698.04999999999995</ele>
        <time>2025-04-28T10:02:37Z</time>
      </trkpt>
      <trkpt lat="42.739318991079926" lon="-3.801204990595579">
        <ele>698.52999999999997</ele>
        <time>2025-04-28T10:02:38Z</time>
      </trkpt>
      <trkpt lat="42.74018500931561" lon="-3.803323013707995">
        <ele>699.01999999999998</ele>
        <time>2025-04-28T10:02:47Z</time>
      </trkpt>
      <trkpt lat="42.740780040621758" lon="-3.80444903858006">
        <ele>698.04999999999995</ele>
        <time>2025-04-28T10:02:52Z</time>
      </trkpt>
      <trkpt lat="42.740910965949297" lon="-3.804651964455843">
        <ele>697.57000000000005</ele>
        <time>2025-04-28T10:02:53Z</time>
      </trkpt>
      <trkpt lat="42.741055972874165" lon="-3.804837958887219">
        <ele>697.09000000000003</ele>
        <time>2025-04-28T10:02:54Z</time>
      </trkpt>
      <trkpt lat="42.742707040160894" lon="-3.806334966793656">
        <ele>692.28999999999996</ele>
        <time>2025-04-28T10:03:04Z</time>
      </trkpt>
      <trkpt lat="42.743403995409608" lon="-3.806783985346556">
        <ele>690.36000000000001</ele>
        <time>2025-04-28T10:03:08Z</time>
      </trkpt>
      <trkpt lat="42.743785036727786" lon="-3.806849028915167">
        <ele>689.88</ele>
        <time>2025-04-28T10:03:10Z</time>
      </trkpt>
      <trkpt lat="42.743984023109078" lon="-3.806849028915167">
        <ele>689.39999999999998</ele>
        <time>2025-04-28T10:03:11Z</time>
      </trkpt>
      <trkpt lat="42.744177980348468" lon="-3.806787002831698">
        <ele>688.91999999999996</ele>
        <time>2025-04-28T10:03:12Z</time>
      </trkpt>
      <trkpt lat="42.744369003921747" lon="-3.806726988404989">
        <ele>688.44000000000005</ele>
        <time>2025-04-28T10:03:13Z</time>
      </trkpt>
      <trkpt lat="42.74454502388835" lon="-3.806625986471772">
        <ele>687.96000000000004</ele>
        <time>2025-04-28T10:03:14Z</time>
      </trkpt>
      <trkpt lat="42.744721965864301" lon="-3.806518027558923">
        <ele>687.48000000000002</ele>
        <time>2025-04-28T10:03:15Z</time>
      </trkpt>
      <trkpt lat="42.744874013587832" lon="-3.8063620403409">
        <ele>687.48000000000002</ele>
        <time>2025-04-28T10:03:16Z</time>
      </trkpt>
      <trkpt lat="42.745020026341081" lon="-3.806177973747253">
        <ele>687</ele>
        <time>2025-04-28T10:03:17Z</time>
      </trkpt>
      <trkpt lat="42.745165033265948" lon="-3.805993990972638">
        <ele>687</ele>
        <time>2025-04-28T10:03:18Z</time>
      </trkpt>
      <trkpt lat="42.745276009663939" lon="-3.805771032348275">
        <ele>687</ele>
        <time>2025-04-28T10:03:19Z</time>
      </trkpt>
      <trkpt lat="42.745381034910679" lon="-3.805539021268487">
        <ele>687</ele>
        <time>2025-04-28T10:03:20Z</time>
      </trkpt>
      <trkpt lat="42.745484970510006" lon="-3.805312039330602">
        <ele>687</ele>
        <time>2025-04-28T10:03:21Z</time>
      </trkpt>
      <trkpt lat="42.745871962979436" lon="-3.804418025538325">
        <ele>686.51999999999998</ele>
        <time>2025-04-28T10:03:25Z</time>
      </trkpt>
      <trkpt lat="42.745926026254892" lon="-3.804182996973395">
        <ele>686.51999999999998</ele>
        <time>2025-04-28T10:03:26Z</time>
      </trkpt>
      <trkpt lat="42.745980005711317" lon="-3.803947968408465">
        <ele>686.51999999999998</ele>
        <time>2025-04-28T10:03:27Z</time>
      </trkpt>
      <trkpt lat="42.746205981820822" lon="-3.801890965551138">
        <ele>687.96000000000004</ele>
        <time>2025-04-28T10:03:35Z</time>
      </trkpt>
      <trkpt lat="42.746272031217813" lon="-3.801639005541802">
        <ele>687.96000000000004</ele>
        <time>2025-04-28T10:03:36Z</time>
      </trkpt>
      <trkpt lat="42.746349982917309" lon="-3.801392996683717">
        <ele>687.48000000000002</ele>
        <time>2025-04-28T10:03:37Z</time>
      </trkpt>
      <trkpt lat="42.746472023427486" lon="-3.801171965897083">
        <ele>687.48000000000002</ele>
        <time>2025-04-28T10:03:38Z</time>
      </trkpt>
      <trkpt lat="42.746594985947013" lon="-3.800951018929482">
        <ele>687.48000000000002</ele>
        <time>2025-04-28T10:03:39Z</time>
      </trkpt>
      <trkpt lat="42.746742004528642" lon="-3.80075697787106">
        <ele>687.48000000000002</ele>
        <time>2025-04-28T10:03:40Z</time>
      </trkpt>
      <trkpt lat="42.746906038373709" lon="-3.800580035895109">
        <ele>687.48000000000002</ele>
        <time>2025-04-28T10:03:41Z</time>
      </trkpt>
      <trkpt lat="42.747085997834802" lon="-3.800437962636352">
        <ele>687.48000000000002</ele>
        <time>2025-04-28T10:03:42Z</time>
      </trkpt>
      <trkpt lat="42.747267968952656" lon="-3.800298990681768">
        <ele>687.48000000000002</ele>
        <time>2025-04-28T10:03:43Z</time>
      </trkpt>
      <trkpt lat="42.747980011627078" lon="-3.79978702403605">
        <ele>687</ele>
        <time>2025-04-28T10:03:47Z</time>
      </trkpt>
      <trkpt lat="42.748173968866467" lon="-3.799722986295819">
        <ele>687</ele>
        <time>2025-04-28T10:03:48Z</time>
      </trkpt>
      <trkpt lat="42.748552998527884" lon="-3.799613015726209">
        <ele>687</ele>
        <time>2025-04-28T10:03:50Z</time>
      </trkpt>
      <trkpt lat="42.749529993161559" lon="-3.799729021266103">
        <ele>686.51999999999998</ele>
        <time>2025-04-28T10:03:55Z</time>
      </trkpt>
      <trkpt lat="42.749710036441684" lon="-3.799825999885798">
        <ele>686.51999999999998</ele>
        <time>2025-04-28T10:03:56Z</time>
      </trkpt>
      <trkpt lat="42.749884966760874" lon="-3.79993898794055">
        <ele>686.51999999999998</ele>
        <time>2025-04-28T10:03:57Z</time>
      </trkpt>
      <trkpt lat="42.750062998384237" lon="-3.800052981823683">
        <ele>686.03999999999996</ele>
        <time>2025-04-28T10:03:58Z</time>
      </trkpt>
      <trkpt lat="42.750231977552176" lon="-3.800192959606648">
        <ele>686.03999999999996</ele>
        <time>2025-04-28T10:03:59Z</time>
      </trkpt>
      <trkpt lat="42.751215007156134" lon="-3.80114103667438">
        <ele>685.08000000000004</ele>
        <time>2025-04-28T10:04:06Z</time>
      </trkpt>
      <trkpt lat="42.7518539596349" lon="-3.801860958337784">
        <ele>683.63</ele>
        <time>2025-04-28T10:04:13Z</time>
      </trkpt>
      <trkpt lat="42.751928977668285" lon="-3.801939999684691">
        <ele>683.63</ele>
        <time>2025-04-28T10:04:14Z</time>
      </trkpt>
      <trkpt lat="42.752336002886295" lon="-3.802368985489011">
        <ele>683.14999999999998</ele>
        <time>2025-04-28T10:04:19Z</time>
      </trkpt>
      <trkpt lat="42.752610007300973" lon="-3.802642989903688">
        <ele>682.66999999999996</ele>
        <time>2025-04-28T10:04:22Z</time>
      </trkpt>
      <trkpt lat="42.75271100923419" lon="-3.802693029865623">
        <ele>682.19000000000005</ele>
        <time>2025-04-28T10:04:23Z</time>
      </trkpt>
      <trkpt lat="42.752835983410478" lon="-3.802734017372131">
        <ele>681.71000000000004</ele>
        <time>2025-04-28T10:04:24Z</time>
      </trkpt>
      <trkpt lat="42.752956012263894" lon="-3.802746003493667">
        <ele>681.23000000000002</ele>
        <time>2025-04-28T10:04:25Z</time>
      </trkpt>
      <trkpt lat="42.753073023632169" lon="-3.802757989615202">
        <ele>681.23000000000002</ele>
        <time>2025-04-28T10:04:26Z</time>
      </trkpt>
      <trkpt lat="42.753190035000443" lon="-3.802768969908357">
        <ele>681.23000000000002</ele>
        <time>2025-04-28T10:04:27Z</time>
      </trkpt>
      <trkpt lat="42.753662019968033" lon="-3.802738962695003">
        <ele>680.75</ele>
        <time>2025-04-28T10:04:31Z</time>
      </trkpt>
      <trkpt lat="42.753986986353993" lon="-3.802614994347096">
        <ele>680.75</ele>
        <time>2025-04-28T10:04:34Z</time>
      </trkpt>
      <trkpt lat="42.754312958568335" lon="-3.802450960502029">
        <ele>680.75</ele>
        <time>2025-04-28T10:04:37Z</time>
      </trkpt>
      <trkpt lat="42.755295988172293" lon="-3.801989033818245">
        <ele>681.71000000000004</ele>
        <time>2025-04-28T10:04:46Z</time>
      </trkpt>
      <trkpt lat="42.755678035318851" lon="-3.801805973052979">
        <ele>683.14999999999998</ele>
        <time>2025-04-28T10:04:50Z</time>
      </trkpt>
      <trkpt lat="42.755739977583289" lon="-3.801803961396217">
        <ele>683.14999999999998</ele>
        <time>2025-04-28T10:04:51Z</time>
      </trkpt>
      <trkpt lat="42.75578498840332" lon="-3.801888031885028">
        <ele>683.14999999999998</ele>
        <time>2025-04-28T10:04:52Z</time>
      </trkpt>
      <trkpt lat="42.755766967311502" lon="-3.8019809871912">
        <ele>683.14999999999998</ele>
        <time>2025-04-28T10:04:53Z</time>
      </trkpt>
      <trkpt lat="42.755728997290134" lon="-3.802076037973166">
        <ele>683.14999999999998</ele>
        <time>2025-04-28T10:04:54Z</time>
      </trkpt>
      <trkpt lat="42.755681974813342" lon="-3.802178967744112">
        <ele>683.63</ele>
        <time>2025-04-28T10:04:55Z</time>
      </trkpt>
      <trkpt lat="42.755619026720524" lon="-3.802287010475993">
        <ele>684.12</ele>
        <time>2025-04-28T10:04:56Z</time>
      </trkpt>
      <trkpt lat="42.755549037829041" lon="-3.80240703932941">
        <ele>684.60000000000002</ele>
        <time>2025-04-28T10:04:57Z</time>
      </trkpt>
      <trkpt lat="42.755464967340231" lon="-3.802498988807201">
        <ele>685.08000000000004</ele>
        <time>2025-04-28T10:04:58Z</time>
      </trkpt>
      <trkpt lat="42.755373017862439" lon="-3.802598984912038">
        <ele>686.03999999999996</ele>
        <time>2025-04-28T10:04:59Z</time>
      </trkpt>
      <trkpt lat="42.755277967080474" lon="-3.802701998502016">
        <ele>687</ele>
        <time>2025-04-28T10:05:00Z</time>
      </trkpt>
      <trkpt lat="42.755178976804018" lon="-3.802810041233897">
        <ele>687.96000000000004</ele>
        <time>2025-04-28T10:05:01Z</time>
      </trkpt>
      <trkpt lat="42.75423601269722" lon="-3.803825005888939">
        <ele>699.01999999999998</ele>
        <time>2025-04-28T10:05:10Z</time>
      </trkpt>
      <trkpt lat="42.753002028912306" lon="-3.804597984999418">
        <ele>710.54999999999995</ele>
        <time>2025-04-28T10:05:19Z</time>
      </trkpt>
      <trkpt lat="42.752459971234202" lon="-3.804874001070857">
        <ele>715.36000000000001</ele>
        <time>2025-04-28T10:05:23Z</time>
      </trkpt>
      <trkpt lat="42.752328962087631" lon="-3.804856985807419">
        <ele>716.32000000000005</ele>
        <time>2025-04-28T10:05:24Z</time>
      </trkpt>
      <trkpt lat="42.752194013446569" lon="-3.8048389647156">
        <ele>717.27999999999997</ele>
        <time>2025-04-28T10:05:25Z</time>
      </trkpt>
      <trkpt lat="42.752065015956759" lon="-3.804788002744317">
        <ele>718.24000000000001</ele>
        <time>2025-04-28T10:05:26Z</time>
      </trkpt>
      <trkpt lat="42.751923026517034" lon="-3.804703010246158">
        <ele>719.67999999999995</ele>
        <time>2025-04-28T10:05:27Z</time>
      </trkpt>
      <trkpt lat="42.751814983785152" lon="-3.804608965292573">
        <ele>720.64999999999998</ele>
        <time>2025-04-28T10:05:28Z</time>
      </trkpt>
      <trkpt lat="42.751709958538413" lon="-3.80449396558106">
        <ele>722.09000000000003</ele>
        <time>2025-04-28T10:05:29Z</time>
      </trkpt>
      <trkpt lat="42.751617003232241" lon="-3.804362034425139">
        <ele>723.04999999999995</ele>
        <time>2025-04-28T10:05:30Z</time>
      </trkpt>
      <trkpt lat="42.751526981592178" lon="-3.804233036935329">
        <ele>724.00999999999999</ele>
        <time>2025-04-28T10:05:31Z</time>
      </trkpt>
      <trkpt lat="42.750909989699721" lon="-3.803103994578123">
        <ele>734.10000000000002</ele>
        <time>2025-04-28T10:05:40Z</time>
      </trkpt>
      <trkpt lat="42.750815022736788" lon="-3.80286100320518">
        <ele>736.02999999999997</ele>
        <time>2025-04-28T10:05:42Z</time>
      </trkpt>
      <trkpt lat="42.750438004732132" lon="-3.801916027441621">
        <ele>744.67999999999995</ele>
        <time>2025-04-28T10:05:52Z</time>
      </trkpt>
      <trkpt lat="42.750334991142154" lon="-3.801726009696722">
        <ele>749.49000000000001</ele>
        <time>2025-04-28T10:06:00Z</time>
      </trkpt>
      <trkpt lat="42.750334991142154" lon="-3.801726009696722">
        <ele>749.97000000000003</ele>
        <time>2025-04-28T10:06:01Z</time>
      </trkpt>
      <trkpt lat="42.750228038057685" lon="-3.801547978073359">
        <ele>730.25999999999999</ele>
        <time>2025-04-28T10:08:17Z</time>
      </trkpt>
      <trkpt lat="42.750318981707096" lon="-3.801624001935124">
        <ele>746.12</ele>
        <time>2025-04-28T10:08:53Z</time>
      </trkpt>
      <trkpt lat="42.75030598975718" lon="-3.801600029692054">
        <ele>742.75999999999999</ele>
        <time>2025-04-28T10:09:42Z</time>
      </trkpt>
      <trkpt lat="42.750321999192238" lon="-3.801629031077027">
        <ele>744.20000000000005</ele>
        <time>2025-04-28T10:10:31Z</time>
      </trkpt>
      <trkpt lat="42.750308001413941" lon="-3.801629031077027">
        <ele>743.24000000000001</ele>
        <time>2025-04-28T10:11:31Z</time>
      </trkpt>
      <trkpt lat="42.750308001413941" lon="-3.801630958914757">
        <ele>743.72000000000003</ele>
        <time>2025-04-28T10:12:19Z</time>
      </trkpt>
      <trkpt lat="42.750310013070703" lon="-3.801633976399899">
        <ele>743.72000000000003</ele>
        <time>2025-04-28T10:13:16Z</time>
      </trkpt>
      <trkpt lat="42.75030598975718" lon="-3.801633976399899">
        <ele>743.24000000000001</ele>
        <time>2025-04-28T10:14:14Z</time>
      </trkpt>
      <trkpt lat="42.750266008079052" lon="-3.80174595862627">
        <ele>743.72000000000003</ele>
        <time>2025-04-28T10:14:45Z</time>
      </trkpt>
      <trkpt lat="42.750205993652344" lon="-3.801762973889709">
        <ele>743.72000000000003</ele>
        <time>2025-04-28T10:14:46Z</time>
      </trkpt>
      <trkpt lat="42.750205993652344" lon="-3.8018290232867">
        <ele>743.72000000000003</ele>
        <time>2025-04-28T10:14:47Z</time>
      </trkpt>
      <trkpt lat="42.750205993652344" lon="-3.801934970542789">
        <ele>744.20000000000005</ele>
        <time>2025-04-28T10:14:48Z</time>
      </trkpt>
      <trkpt lat="42.750259973108768" lon="-3.802052987739444">
        <ele>744.67999999999995</ele>
        <time>2025-04-28T10:14:49Z</time>
      </trkpt>
      <trkpt lat="42.750314036384225" lon="-3.80217201076448">
        <ele>745.15999999999997</ele>
        <time>2025-04-28T10:14:50Z</time>
      </trkpt>
      <trkpt lat="42.750372961163521" lon="-3.80230100825429">
        <ele>745.15999999999997</ele>
        <time>2025-04-28T10:14:51Z</time>
      </trkpt>
      <trkpt lat="42.750466000288725" lon="-3.802607031539083">
        <ele>746.60000000000002</ele>
        <time>2025-04-28T10:14:53Z</time>
      </trkpt>
      <trkpt lat="42.750502964481711" lon="-3.802768969908357">
        <ele>747.08000000000004</ele>
        <time>2025-04-28T10:14:54Z</time>
      </trkpt>
      <trkpt lat="42.750936979427934" lon="-3.804706027731299">
        <ele>756.69000000000005</ele>
        <time>2025-04-28T10:15:05Z</time>
      </trkpt>
      <trkpt lat="42.751067988574505" lon="-3.805230986326933">
        <ele>759.58000000000004</ele>
        <time>2025-04-28T10:15:08Z</time>
      </trkpt>
      <trkpt lat="42.75112297385931" lon="-3.805383034050465">
        <ele>761.01999999999998</ele>
        <time>2025-04-28T10:15:09Z</time>
      </trkpt>
      <trkpt lat="42.751844990998507" lon="-3.80687803030014">
        <ele>771.11000000000001</ele>
        <time>2025-04-28T10:15:18Z</time>
      </trkpt>
      <trkpt lat="42.752140033990145" lon="-3.807366024702787">
        <ele>775.44000000000005</ele>
        <time>2025-04-28T10:15:21Z</time>
      </trkpt>
      <trkpt lat="42.752255033701658" lon="-3.807454034686089">
        <ele>776.88</ele>
        <time>2025-04-28T10:15:22Z</time>
      </trkpt>
      <trkpt lat="42.752392999827862" lon="-3.807475995272398">
        <ele>777.84000000000003</ele>
        <time>2025-04-28T10:15:23Z</time>
      </trkpt>
      <trkpt lat="42.753616003319621" lon="-3.807722004130483">
        <ele>786.98000000000002</ele>
        <time>2025-04-28T10:15:30Z</time>
      </trkpt>
      <trkpt lat="42.754518985748291" lon="-3.808115031570196">
        <ele>795.63</ele>
        <time>2025-04-28T10:15:36Z</time>
      </trkpt>
      <trkpt lat="42.754608001559973" lon="-3.808070020750165">
        <ele>796.59000000000003</ele>
        <time>2025-04-28T10:15:37Z</time>
      </trkpt>
      <trkpt lat="42.754668015986681" lon="-3.807989973574877">
        <ele>798.02999999999997</ele>
        <time>2025-04-28T10:15:38Z</time>
      </trkpt>
      <trkpt lat="42.754713026806712" lon="-3.807857036590576">
        <ele>798.99000000000001</ele>
        <time>2025-04-28T10:15:39Z</time>
      </trkpt>
      <trkpt lat="42.754713026806712" lon="-3.807724015787244">
        <ele>799.95000000000005</ele>
        <time>2025-04-28T10:15:40Z</time>
      </trkpt>
      <trkpt lat="42.754713026806712" lon="-3.807542966678739">
        <ele>800.91999999999996</ele>
        <time>2025-04-28T10:15:41Z</time>
      </trkpt>
      <trkpt lat="42.754724007099867" lon="-3.807341968640685">
        <ele>801.88</ele>
        <time>2025-04-28T10:15:42Z</time>
      </trkpt>
      <trkpt lat="42.754778992384672" lon="-3.807144993916154">
        <ele>802.84000000000003</ele>
        <time>2025-04-28T10:15:43Z</time>
      </trkpt>
      <trkpt lat="42.754847975447774" lon="-3.806953970342875">
        <ele>803.79999999999995</ele>
        <time>2025-04-28T10:15:44Z</time>
      </trkpt>
      <trkpt lat="42.754958029836416" lon="-3.806778034195304">
        <ele>805.24000000000001</ele>
        <time>2025-04-28T10:15:45Z</time>
      </trkpt>
      <trkpt lat="42.75507596321404" lon="-3.806614000350237">
        <ele>806.67999999999995</ele>
        <time>2025-04-28T10:15:46Z</time>
      </trkpt>
      <trkpt lat="42.755220970138907" lon="-3.806468993425369">
        <ele>808.13</ele>
        <time>2025-04-28T10:15:47Z</time>
      </trkpt>
      <trkpt lat="42.755378969013691" lon="-3.806335972622037">
        <ele>809.57000000000005</ele>
        <time>2025-04-28T10:15:48Z</time>
      </trkpt>
      <trkpt lat="42.755550965666771" lon="-3.806220972910523">
        <ele>810.52999999999997</ele>
        <time>2025-04-28T10:15:49Z</time>
      </trkpt>
      <trkpt lat="42.755721034482121" lon="-3.806098010390997">
        <ele>811.49000000000001</ele>
        <time>2025-04-28T10:15:50Z</time>
      </trkpt>
      <trkpt lat="42.755880961194634" lon="-3.805917967110872">
        <ele>812.45000000000005</ele>
        <time>2025-04-28T10:15:51Z</time>
      </trkpt>
      <trkpt lat="42.756040971726179" lon="-3.805738007649779">
        <ele>813.40999999999997</ele>
        <time>2025-04-28T10:15:52Z</time>
      </trkpt>
      <trkpt lat="42.757384004071355" lon="-3.804372008889914">
        <ele>825.42999999999995</ele>
        <time>2025-04-28T10:16:00Z</time>
      </trkpt>
      <trkpt lat="42.758555039763451" lon="-3.803645968437195">
        <ele>836</ele>
        <time>2025-04-28T10:16:07Z</time>
      </trkpt>
      <trkpt lat="42.758692000061274" lon="-3.80361101590097">
        <ele>837.45000000000005</ele>
        <time>2025-04-28T10:16:08Z</time>
      </trkpt>
      <trkpt lat="42.758842958137393" lon="-3.803619984537363">
        <ele>838.40999999999997</ele>
        <time>2025-04-28T10:16:09Z</time>
      </trkpt>
      <trkpt lat="42.759013026952744" lon="-3.803629959002137">
        <ele>839.85000000000002</ele>
        <time>2025-04-28T10:16:10Z</time>
      </trkpt>
      <trkpt lat="42.759197009727359" lon="-3.803640017285943">
        <ele>840.80999999999995</ele>
        <time>2025-04-28T10:16:11Z</time>
      </trkpt>
      <trkpt lat="42.759385015815496" lon="-3.803650997579098">
        <ele>842.25</ele>
        <time>2025-04-28T10:16:12Z</time>
      </trkpt>
      <trkpt lat="42.759567992761731" lon="-3.803703971207142">
        <ele>843.21000000000004</ele>
        <time>2025-04-28T10:16:13Z</time>
      </trkpt>
      <trkpt lat="42.75973797775805" lon="-3.803754011169076">
        <ele>844.65999999999997</ele>
        <time>2025-04-28T10:16:14Z</time>
      </trkpt>
      <trkpt lat="42.759886002168059" lon="-3.803842021152377">
        <ele>846.10000000000002</ele>
        <time>2025-04-28T10:16:15Z</time>
      </trkpt>
      <trkpt lat="42.760034026578069" lon="-3.80393598228693">
        <ele>847.53999999999996</ele>
        <time>2025-04-28T10:16:16Z</time>
      </trkpt>
      <trkpt lat="42.760184984654188" lon="-3.804032038897276">
        <ele>848.98000000000002</ele>
        <time>2025-04-28T10:16:17Z</time>
      </trkpt>
      <trkpt lat="42.760846987366676" lon="-3.804523972794414">
        <ele>855.23000000000002</ele>
        <time>2025-04-28T10:16:22Z</time>
      </trkpt>
      <trkpt lat="42.760927034541965" lon="-3.804670991376042">
        <ele>856.66999999999996</ele>
        <time>2025-04-28T10:16:23Z</time>
      </trkpt>
      <trkpt lat="42.760989982634783" lon="-3.804842988029122">
        <ele>857.63</ele>
        <time>2025-04-28T10:16:24Z</time>
      </trkpt>
      <trkpt lat="42.761020995676517" lon="-3.80505396053195">
        <ele>859.08000000000004</ele>
        <time>2025-04-28T10:16:25Z</time>
      </trkpt>
      <trkpt lat="42.761056032031775" lon="-3.805280020460486">
        <ele>860.51999999999998</ele>
        <time>2025-04-28T10:16:26Z</time>
      </trkpt>
      <trkpt lat="42.761190980672836" lon="-3.806012012064457">
        <ele>864.36000000000001</ele>
        <time>2025-04-28T10:16:29Z</time>
      </trkpt>
      <trkpt lat="42.761279996484518" lon="-3.806247040629387">
        <ele>865.79999999999995</ele>
        <time>2025-04-28T10:16:30Z</time>
      </trkpt>
      <trkpt lat="42.761372029781342" lon="-3.80649003200233">
        <ele>867.25</ele>
        <time>2025-04-28T10:16:31Z</time>
      </trkpt>
      <trkpt lat="42.76197100058198" lon="-3.807915961369872">
        <ele>876.38</ele>
        <time>2025-04-28T10:16:37Z</time>
      </trkpt>
      <trkpt lat="42.76208097115159" lon="-3.808114025741816">
        <ele>877.82000000000005</ele>
        <time>2025-04-28T10:16:38Z</time>
      </trkpt>
      <trkpt lat="42.762275012210011" lon="-3.808465981855989">
        <ele>880.22000000000003</ele>
        <time>2025-04-28T10:16:40Z</time>
      </trkpt>
      <trkpt lat="42.762345001101494" lon="-3.808643007650971">
        <ele>881.19000000000005</ele>
        <time>2025-04-28T10:16:41Z</time>
      </trkpt>
      <trkpt lat="42.76238196529448" lon="-3.808844005689025">
        <ele>882.14999999999998</ele>
        <time>2025-04-28T10:16:42Z</time>
      </trkpt>
      <trkpt lat="42.762394035235047" lon="-3.809060007333756">
        <ele>883.11000000000001</ele>
        <time>2025-04-28T10:16:43Z</time>
      </trkpt>
      <trkpt lat="42.762394035235047" lon="-3.809296041727066">
        <ele>883.59000000000003</ele>
        <time>2025-04-28T10:16:44Z</time>
      </trkpt>
      <trkpt lat="42.762299990281463" lon="-3.810288961976767">
        <ele>885.99000000000001</ele>
        <time>2025-04-28T10:16:48Z</time>
      </trkpt>
      <trkpt lat="42.76195197366178" lon="-3.812182014808059">
        <ele>886.95000000000005</ele>
        <time>2025-04-28T10:16:55Z</time>
      </trkpt>
      <trkpt lat="42.762052975594997" lon="-3.814027039334178">
        <ele>889.36000000000001</ele>
        <time>2025-04-28T10:17:02Z</time>
      </trkpt>
      <trkpt lat="42.762076025828719" lon="-3.814691975712776">
        <ele>890.32000000000005</ele>
        <time>2025-04-28T10:17:05Z</time>
      </trkpt>
      <trkpt lat="42.762041995301843" lon="-3.814919963479042">
        <ele>890.79999999999995</ele>
        <time>2025-04-28T10:17:06Z</time>
      </trkpt>
      <trkpt lat="42.761974018067122" lon="-3.815146023407579">
        <ele>891.75999999999999</ele>
        <time>2025-04-28T10:17:07Z</time>
      </trkpt>
      <trkpt lat="42.761887013912201" lon="-3.815370993688703">
        <ele>892.24000000000001</ele>
        <time>2025-04-28T10:17:08Z</time>
      </trkpt>
      <trkpt lat="42.761793974786997" lon="-3.815610967576504">
        <ele>892.24000000000001</ele>
        <time>2025-04-28T10:17:09Z</time>
      </trkpt>
      <trkpt lat="42.761357026174664" lon="-3.817199002951384">
        <ele>891.27999999999997</ele>
        <time>2025-04-28T10:17:15Z</time>
      </trkpt>
      <trkpt lat="42.761292988434434" lon="-3.817443000152707">
        <ele>890.79999999999995</ele>
        <time>2025-04-28T10:17:16Z</time>
      </trkpt>
      <trkpt lat="42.761193998157978" lon="-3.817669982090592">
        <ele>890.32000000000005</ele>
        <time>2025-04-28T10:17:17Z</time>
      </trkpt>
      <trkpt lat="42.760998029261827" lon="-3.818120006471872">
        <ele>889.36000000000001</ele>
        <time>2025-04-28T10:17:19Z</time>
      </trkpt>
      <trkpt lat="42.76091898791492" lon="-3.818352017551661">
        <ele>888.88</ele>
        <time>2025-04-28T10:17:20Z</time>
      </trkpt>
      <trkpt lat="42.76089702732861" lon="-3.818583022803068">
        <ele>888.39999999999998</ele>
        <time>2025-04-28T10:17:21Z</time>
      </trkpt>
      <trkpt lat="42.760910019278526" lon="-3.818808998912573">
        <ele>887.90999999999997</ele>
        <time>2025-04-28T10:17:22Z</time>
      </trkpt>
      <trkpt lat="42.76094296015799" lon="-3.819035980850458">
        <ele>887.42999999999995</ele>
        <time>2025-04-28T10:17:23Z</time>
      </trkpt>
      <trkpt lat="42.760986965149641" lon="-3.819264974445105">
        <ele>886.95000000000005</ele>
        <time>2025-04-28T10:17:24Z</time>
      </trkpt>
      <trkpt lat="42.761038010939956" lon="-3.819679040461779">
        <ele>886.47000000000003</ele>
        <time>2025-04-28T10:17:26Z</time>
      </trkpt>
      <trkpt lat="42.761086039245129" lon="-3.819809965789318">
        <ele>886.47000000000003</ele>
        <time>2025-04-28T10:17:27Z</time>
      </trkpt>
      <trkpt lat="42.761128032580018" lon="-3.819872997701168">
        <ele>886.47000000000003</ele>
        <time>2025-04-28T10:17:28Z</time>
      </trkpt>
      <trkpt lat="42.761200033128262" lon="-3.819866962730885">
        <ele>885.99000000000001</ele>
        <time>2025-04-28T10:17:29Z</time>
      </trkpt>
      <trkpt lat="42.761279996484518" lon="-3.819860005751252">
        <ele>885.50999999999999</ele>
        <time>2025-04-28T10:17:30Z</time>
      </trkpt>
      <trkpt lat="42.761379992589355" lon="-3.819847013801336">
        <ele>885.02999999999997</ele>
        <time>2025-04-28T10:17:31Z</time>
      </trkpt>
      <trkpt lat="42.761814007535577" lon="-3.819745006039739">
        <ele>882.14999999999998</ele>
        <time>2025-04-28T10:17:35Z</time>
      </trkpt>
      <trkpt lat="42.761861030012369" lon="-3.819802002981305">
        <ele>881.66999999999996</ele>
        <time>2025-04-28T10:17:36Z</time>
      </trkpt>
      <trkpt lat="42.761900005862117" lon="-3.81985698826611">
        <ele>880.71000000000004</ele>
        <time>2025-04-28T10:17:37Z</time>
      </trkpt>
      <trkpt lat="42.761888019740582" lon="-3.819979028776288">
        <ele>879.25999999999999</ele>
        <time>2025-04-28T10:17:38Z</time>
      </trkpt>
      <trkpt lat="42.761872010305524" lon="-3.820125041529536">
        <ele>878.77999999999997</ele>
        <time>2025-04-28T10:17:39Z</time>
      </trkpt>
      <trkpt lat="42.761854995042086" lon="-3.820289997383952">
        <ele>877.82000000000005</ele>
        <time>2025-04-28T10:17:40Z</time>
      </trkpt>
      <trkpt lat="42.761835968121886" lon="-3.820469034835696">
        <ele>876.86000000000001</ele>
        <time>2025-04-28T10:17:41Z</time>
      </trkpt>
      <trkpt lat="42.761816019192338" lon="-3.820663997903466">
        <ele>875.41999999999996</ele>
        <time>2025-04-28T10:17:42Z</time>
      </trkpt>
      <trkpt lat="42.761847032234073" lon="-3.820858038961887">
        <ele>874.46000000000004</ele>
        <time>2025-04-28T10:17:43Z</time>
      </trkpt>
      <trkpt lat="42.761881984770298" lon="-3.821066999807954">
        <ele>873.00999999999999</ele>
        <time>2025-04-28T10:17:44Z</time>
      </trkpt>
      <trkpt lat="42.761917021125555" lon="-3.821277972310782">
        <ele>872.04999999999995</ele>
        <time>2025-04-28T10:17:45Z</time>
      </trkpt>
      <trkpt lat="42.762045012786984" lon="-3.821933018043637">
        <ele>870.13</ele>
        <time>2025-04-28T10:17:48Z</time>
      </trkpt>
      <trkpt lat="42.762093041092157" lon="-3.822141978889704">
        <ele>869.64999999999998</ele>
        <time>2025-04-28T10:17:49Z</time>
      </trkpt>
      <trkpt lat="42.762408033013344" lon="-3.822897020727396">
        <ele>868.21000000000004</ele>
        <time>2025-04-28T10:17:53Z</time>
      </trkpt>
      <trkpt lat="42.762514986097813" lon="-3.823050996288657">
        <ele>867.73000000000002</ele>
        <time>2025-04-28T10:17:54Z</time>
      </trkpt>
      <trkpt lat="42.762642977759242" lon="-3.823197009041905">
        <ele>867.25</ele>
        <time>2025-04-28T10:17:55Z</time>
      </trkpt>
      <trkpt lat="42.762773986905813" lon="-3.823343021795154">
        <ele>867.25</ele>
        <time>2025-04-28T10:17:56Z</time>
      </trkpt>
      <trkpt lat="42.762913964688778" lon="-3.823482999578118">
        <ele>867.25</ele>
        <time>2025-04-28T10:17:57Z</time>
      </trkpt>
      <trkpt lat="42.763366000726819" lon="-3.823805032297969">
        <ele>867.25</ele>
        <time>2025-04-28T10:18:00Z</time>
      </trkpt>
      <trkpt lat="42.763504972681403" lon="-3.823891030624509">
        <ele>867.25</ele>
        <time>2025-04-28T10:18:01Z</time>
      </trkpt>
      <trkpt lat="42.763651991263032" lon="-3.823884995654225">
        <ele>867.25</ele>
        <time>2025-04-28T10:18:02Z</time>
      </trkpt>
      <trkpt lat="42.763794986531138" lon="-3.823857000097632">
        <ele>867.25</ele>
        <time>2025-04-28T10:18:03Z</time>
      </trkpt>
      <trkpt lat="42.763931024819613" lon="-3.823831016197801">
        <ele>867.25</ele>
        <time>2025-04-28T10:18:04Z</time>
      </trkpt>
      <trkpt lat="42.764050969853997" lon="-3.823849037289619">
        <ele>867.25</ele>
        <time>2025-04-28T10:18:05Z</time>
      </trkpt>
      <trkpt lat="42.764159012585878" lon="-3.823925983160734">
        <ele>867.73000000000002</ele>
        <time>2025-04-28T10:18:06Z</time>
      </trkpt>
      <trkpt lat="42.764274012297392" lon="-3.824027990922332">
        <ele>867.73000000000002</ele>
        <time>2025-04-28T10:18:07Z</time>
      </trkpt>
      <trkpt lat="42.764365961775184" lon="-3.824171992018819">
        <ele>867.73000000000002</ele>
        <time>2025-04-28T10:18:08Z</time>
      </trkpt>
      <trkpt lat="42.76446302421391" lon="-3.824333008378744">
        <ele>868.21000000000004</ele>
        <time>2025-04-28T10:18:09Z</time>
      </trkpt>
      <trkpt lat="42.76454801671207" lon="-3.824513973668218">
        <ele>868.69000000000005</ele>
        <time>2025-04-28T10:18:10Z</time>
      </trkpt>
      <trkpt lat="42.764727976173162" lon="-3.824844975024462">
        <ele>868.69000000000005</ele>
        <time>2025-04-28T10:18:12Z</time>
      </trkpt>
      <trkpt lat="42.764830989763141" lon="-3.824989981949329">
        <ele>868.69000000000005</ele>
        <time>2025-04-28T10:18:13Z</time>
      </trkpt>
      <trkpt lat="42.764957975596189" lon="-3.825111016631126">
        <ele>868.69000000000005</ele>
        <time>2025-04-28T10:18:14Z</time>
      </trkpt>
      <trkpt lat="42.765218988060951" lon="-3.825361970812082">
        <ele>869.16999999999996</ele>
        <time>2025-04-28T10:18:16Z</time>
      </trkpt>
      <trkpt lat="42.765332981944084" lon="-3.825504966080189">
        <ele>869.64999999999998</ele>
        <time>2025-04-28T10:18:17Z</time>
      </trkpt>
      <trkpt lat="42.765414034947753" lon="-3.825677968561649">
        <ele>870.13</ele>
        <time>2025-04-28T10:18:18Z</time>
      </trkpt>
      <trkpt lat="42.765469020232558" lon="-3.825852982699871">
        <ele>870.61000000000001</ele>
        <time>2025-04-28T10:18:19Z</time>
      </trkpt>
      <trkpt lat="42.765498021617532" lon="-3.826038977131248">
        <ele>871.09000000000003</ele>
        <time>2025-04-28T10:18:20Z</time>
      </trkpt>
      <trkpt lat="42.765518976375461" lon="-3.826237041503191">
        <ele>871.57000000000005</ele>
        <time>2025-04-28T10:18:21Z</time>
      </trkpt>
      <trkpt lat="42.765540014952421" lon="-3.826438961550593">
        <ele>872.04999999999995</ele>
        <time>2025-04-28T10:18:22Z</time>
      </trkpt>
      <trkpt lat="42.765539009124041" lon="-3.82664498873055">
        <ele>872.52999999999997</ele>
        <time>2025-04-28T10:18:23Z</time>
      </trkpt>
      <trkpt lat="42.765521993860602" lon="-3.826844980940223">
        <ele>873.5</ele>
        <time>2025-04-28T10:18:24Z</time>
      </trkpt>
      <trkpt lat="42.765503972768784" lon="-3.827043967321515">
        <ele>873.98000000000002</ele>
        <time>2025-04-28T10:18:25Z</time>
      </trkpt>
      <trkpt lat="42.765429960563779" lon="-3.827233985066414">
        <ele>874.46000000000004</ele>
        <time>2025-04-28T10:18:26Z</time>
      </trkpt>
      <trkpt lat="42.765352008864284" lon="-3.827430959790945">
        <ele>874.94000000000005</ele>
        <time>2025-04-28T10:18:27Z</time>
      </trkpt>
      <trkpt lat="42.765012960880995" lon="-3.828293038532138">
        <ele>876.86000000000001</ele>
        <time>2025-04-28T10:18:31Z</time>
      </trkpt>
      <trkpt lat="42.764926040545106" lon="-3.828778015449643">
        <ele>877.34000000000003</ele>
        <time>2025-04-28T10:18:33Z</time>
      </trkpt>
      <trkpt lat="42.764806011691689" lon="-3.829340022057295">
        <ele>878.29999999999995</ele>
        <time>2025-04-28T10:18:36Z</time>
      </trkpt>
      <trkpt lat="42.764716995880008" lon="-3.82947999984026">
        <ele>878.77999999999997</ele>
        <time>2025-04-28T10:18:37Z</time>
      </trkpt>
      <trkpt lat="42.76461498811841" lon="-3.829607991501689">
        <ele>879.25999999999999</ele>
        <time>2025-04-28T10:18:38Z</time>
      </trkpt>
      <trkpt lat="42.764500994235277" lon="-3.829730032011867">
        <ele>879.25999999999999</ele>
        <time>2025-04-28T10:18:39Z</time>
      </trkpt>
      <trkpt lat="42.764363028109074" lon="-3.829832039773464">
        <ele>879.74000000000001</ele>
        <time>2025-04-28T10:18:40Z</time>
      </trkpt>
      <trkpt lat="42.763771014288068" lon="-3.830313999205828">
        <ele>880.22000000000003</ele>
        <time>2025-04-28T10:18:44Z</time>
      </trkpt>
      <trkpt lat="42.763652997091413" lon="-3.830479038879275">
        <ele>880.22000000000003</ele>
        <time>2025-04-28T10:18:45Z</time>
      </trkpt>
      <trkpt lat="42.763534979894757" lon="-3.830643994733691">
        <ele>880.71000000000004</ele>
        <time>2025-04-28T10:18:46Z</time>
      </trkpt>
      <trkpt lat="42.762571983039379" lon="-3.832277040928602">
        <ele>884.07000000000005</ele>
        <time>2025-04-28T10:18:55Z</time>
      </trkpt>
      <trkpt lat="42.762423036620021" lon="-3.83261701092124">
        <ele>885.02999999999997</ele>
        <time>2025-04-28T10:18:57Z</time>
      </trkpt>
      <trkpt lat="42.762332009151578" lon="-3.832738967612386">
        <ele>885.99000000000001</ele>
        <time>2025-04-28T10:18:58Z</time>
      </trkpt>
      <trkpt lat="42.762202005833387" lon="-3.832806022837758">
        <ele>886.95000000000005</ele>
        <time>2025-04-28T10:18:59Z</time>
      </trkpt>
      <trkpt lat="42.762045012786984" lon="-3.832860002294183">
        <ele>887.42999999999995</ele>
        <time>2025-04-28T10:19:00Z</time>
      </trkpt>
      <trkpt lat="42.761878967285156" lon="-3.832916999235749">
        <ele>888.39999999999998</ele>
        <time>2025-04-28T10:19:01Z</time>
      </trkpt>
      <trkpt lat="42.76158501394093" lon="-3.833072986453772">
        <ele>889.84000000000003</ele>
        <time>2025-04-28T10:19:03Z</time>
      </trkpt>
      <trkpt lat="42.761515025049448" lon="-3.83313400670886">
        <ele>890.32000000000005</ele>
        <time>2025-04-28T10:19:04Z</time>
      </trkpt>
      <trkpt lat="42.761445036157966" lon="-3.833316983655095">
        <ele>890.79999999999995</ele>
        <time>2025-04-28T10:19:05Z</time>
      </trkpt>
      <trkpt lat="42.761405976489186" lon="-3.833428965881467">
        <ele>891.27999999999997</ele>
        <time>2025-04-28T10:19:06Z</time>
      </trkpt>
      <trkpt lat="42.76139298453927" lon="-3.833604985848069">
        <ele>891.75999999999999</ele>
        <time>2025-04-28T10:19:07Z</time>
      </trkpt>
      <trkpt lat="42.761377980932593" lon="-3.83379902690649">
        <ele>891.75999999999999</ele>
        <time>2025-04-28T10:19:08Z</time>
      </trkpt>
      <trkpt lat="42.761355014517903" lon="-3.834922034293413">
        <ele>893.20000000000005</ele>
        <time>2025-04-28T10:19:13Z</time>
      </trkpt>
      <trkpt lat="42.761336993426085" lon="-3.835126971825957">
        <ele>893.20000000000005</ele>
        <time>2025-04-28T10:19:14Z</time>
      </trkpt>
      <trkpt lat="42.76130698621273" lon="-3.835335010662675">
        <ele>893.67999999999995</ele>
        <time>2025-04-28T10:19:15Z</time>
      </trkpt>
      <trkpt lat="42.761230040341616" lon="-3.835513964295387">
        <ele>894.15999999999997</ele>
        <time>2025-04-28T10:19:16Z</time>
      </trkpt>
      <trkpt lat="42.761128032580018" lon="-3.835752010345459">
        <ele>894.63999999999999</ele>
        <time>2025-04-28T10:19:17Z</time>
      </trkpt>
      <trkpt lat="42.76102602481842" lon="-3.835871033370495">
        <ele>895.61000000000001</ele>
        <time>2025-04-28T10:19:18Z</time>
      </trkpt>
      <trkpt lat="42.760868025943637" lon="-3.835979998111725">
        <ele>896.57000000000005</ele>
        <time>2025-04-28T10:19:19Z</time>
      </trkpt>
      <trkpt lat="42.760700974613428" lon="-3.8360779825598">
        <ele>897.52999999999997</ele>
        <time>2025-04-28T10:19:20Z</time>
      </trkpt>
      <trkpt lat="42.760221026837826" lon="-3.836391968652606">
        <ele>899.45000000000005</ele>
        <time>2025-04-28T10:19:23Z</time>
      </trkpt>
      <trkpt lat="42.760080965235829" lon="-3.83654803968966">
        <ele>899.92999999999995</ele>
        <time>2025-04-28T10:19:24Z</time>
      </trkpt>
      <trkpt lat="42.759847026318312" lon="-3.836920028552413">
        <ele>900.88999999999999</ele>
        <time>2025-04-28T10:19:26Z</time>
      </trkpt>
      <trkpt lat="42.759744012728333" lon="-3.837125971913338">
        <ele>901.85000000000002</ele>
        <time>2025-04-28T10:19:27Z</time>
      </trkpt>
      <trkpt lat="42.759570004418492" lon="-3.837560992687941">
        <ele>902.33000000000004</ele>
        <time>2025-04-28T10:19:29Z</time>
      </trkpt>
      <trkpt lat="42.759509989991784" lon="-3.837802978232503">
        <ele>902.82000000000005</ele>
        <time>2025-04-28T10:19:30Z</time>
      </trkpt>
      <trkpt lat="42.759283008053899" lon="-3.839007960632443">
        <ele>904.25999999999999</ele>
        <time>2025-04-28T10:19:35Z</time>
      </trkpt>
      <trkpt lat="42.759283008053899" lon="-3.839242989197373">
        <ele>904.25999999999999</ele>
        <time>2025-04-28T10:19:36Z</time>
      </trkpt>
      <trkpt lat="42.759283008053899" lon="-3.839478017762303">
        <ele>904.25999999999999</ele>
        <time>2025-04-28T10:19:37Z</time>
      </trkpt>
      <trkpt lat="42.75930798612535" lon="-3.839712040498853">
        <ele>904.25999999999999</ele>
        <time>2025-04-28T10:19:38Z</time>
      </trkpt>
      <trkpt lat="42.759359031915665" lon="-3.839919995516539">
        <ele>904.25999999999999</ele>
        <time>2025-04-28T10:19:39Z</time>
      </trkpt>
      <trkpt lat="42.75941401720047" lon="-3.840111019089818">
        <ele>904.25999999999999</ele>
        <time>2025-04-28T10:19:40Z</time>
      </trkpt>
      <trkpt lat="42.759464979171753" lon="-3.840284021571279">
        <ele>904.25999999999999</ele>
        <time>2025-04-28T10:19:41Z</time>
      </trkpt>
      <trkpt lat="42.759551983326674" lon="-3.840422993525863">
        <ele>904.25999999999999</ele>
        <time>2025-04-28T10:19:42Z</time>
      </trkpt>
      <trkpt lat="42.759637981653214" lon="-3.840537993237376">
        <ele>904.25999999999999</ele>
        <time>2025-04-28T10:19:43Z</time>
      </trkpt>
      <trkpt lat="42.759753987193108" lon="-3.840621979907155">
        <ele>904.25999999999999</ele>
        <time>2025-04-28T10:19:44Z</time>
      </trkpt>
      <trkpt lat="42.759879967197776" lon="-3.840686017647386">
        <ele>904.74000000000001</ele>
        <time>2025-04-28T10:19:45Z</time>
      </trkpt>
      <trkpt lat="42.760024974122643" lon="-3.840684005990624">
        <ele>905.22000000000003</ele>
        <time>2025-04-28T10:19:46Z</time>
      </trkpt>
      <trkpt lat="42.760170986875892" lon="-3.840647963806987">
        <ele>905.70000000000005</ele>
        <time>2025-04-28T10:19:47Z</time>
      </trkpt>
      <trkpt lat="42.760312976315618" lon="-3.840612005442381">
        <ele>905.70000000000005</ele>
        <time>2025-04-28T10:19:48Z</time>
      </trkpt>
      <trkpt lat="42.760441973805428" lon="-3.840594990178943">
        <ele>906.17999999999995</ele>
        <time>2025-04-28T10:19:49Z</time>
      </trkpt>
      <trkpt lat="42.760572982951999" lon="-3.840586021542549">
        <ele>907.13999999999999</ele>
        <time>2025-04-28T10:19:50Z</time>
      </trkpt>
      <trkpt lat="42.760687982663512" lon="-3.840598007664084">
        <ele>908.10000000000002</ele>
        <time>2025-04-28T10:19:51Z</time>
      </trkpt>
      <trkpt lat="42.760808011516929" lon="-3.840663973242044">
        <ele>908.58000000000004</ele>
        <time>2025-04-28T10:19:52Z</time>
      </trkpt>
      <trkpt lat="42.760907001793385" lon="-3.8407819904387">
        <ele>909.53999999999996</ele>
        <time>2025-04-28T10:19:53Z</time>
      </trkpt>
      <trkpt lat="42.760999035090208" lon="-3.84093496017158">
        <ele>910.02999999999997</ele>
        <time>2025-04-28T10:19:54Z</time>
      </trkpt>
      <trkpt lat="42.761096013709903" lon="-3.841095976531506">
        <ele>910.99000000000001</ele>
        <time>2025-04-28T10:19:55Z</time>
      </trkpt>
      <trkpt lat="42.761512007564306" lon="-3.841734007000923">
        <ele>914.35000000000002</ele>
        <time>2025-04-28T10:19:59Z</time>
      </trkpt>
      <trkpt lat="42.761632958427072" lon="-3.84187700226903">
        <ele>914.83000000000004</ele>
        <time>2025-04-28T10:20:00Z</time>
      </trkpt>
      <trkpt lat="42.761774025857449" lon="-3.841973980888724">
        <ele>915.78999999999996</ele>
        <time>2025-04-28T10:20:01Z</time>
      </trkpt>
      <trkpt lat="42.76190503500402" lon="-3.842057967558503">
        <ele>916.75</ele>
        <time>2025-04-28T10:20:02Z</time>
      </trkpt>
      <trkpt lat="42.762031015008688" lon="-3.842127034440637">
        <ele>917.24000000000001</ele>
        <time>2025-04-28T10:20:03Z</time>
      </trkpt>
      <trkpt lat="42.762178033590317" lon="-3.842142960056663">
        <ele>918.20000000000005</ele>
        <time>2025-04-28T10:20:04Z</time>
      </trkpt>
      <trkpt lat="42.762346006929874" lon="-3.842160981148481">
        <ele>918.67999999999995</ele>
        <time>2025-04-28T10:20:05Z</time>
      </trkpt>
      <trkpt lat="42.763630030676723" lon="-3.842315040528774">
        <ele>923</ele>
        <time>2025-04-28T10:20:12Z</time>
      </trkpt>
      <trkpt lat="42.763771014288068" lon="-3.842391986399889">
        <ele>923.96000000000004</ele>
        <time>2025-04-28T10:20:13Z</time>
      </trkpt>
      <trkpt lat="42.763918032869697" lon="-3.842489970847964">
        <ele>924.45000000000005</ele>
        <time>2025-04-28T10:20:14Z</time>
      </trkpt>
      <trkpt lat="42.764031020924449" lon="-3.842668002471328">
        <ele>924.92999999999995</ele>
        <time>2025-04-28T10:20:15Z</time>
      </trkpt>
      <trkpt lat="42.764150965958834" lon="-3.842858020216227">
        <ele>925.88999999999999</ele>
        <time>2025-04-28T10:20:16Z</time>
      </trkpt>
      <trkpt lat="42.764278035610914" lon="-3.84305901825428">
        <ele>926.37</ele>
        <time>2025-04-28T10:20:17Z</time>
      </trkpt>
      <trkpt lat="42.764394041150808" lon="-3.843286000192165">
        <ele>927.33000000000004</ele>
        <time>2025-04-28T10:20:18Z</time>
      </trkpt>
      <trkpt lat="42.764843981713057" lon="-3.844173979014158">
        <ele>929.25</ele>
        <time>2025-04-28T10:20:22Z</time>
      </trkpt>
      <trkpt lat="42.764969961717725" lon="-3.84434899315238">
        <ele>929.73000000000002</ele>
        <time>2025-04-28T10:20:23Z</time>
      </trkpt>
      <trkpt lat="42.765095019713044" lon="-3.844483019784093">
        <ele>930.21000000000004</ele>
        <time>2025-04-28T10:20:24Z</time>
      </trkpt>
      <trkpt lat="42.765213958919048" lon="-3.844526018947363">
        <ele>930.69000000000005</ele>
        <time>2025-04-28T10:20:25Z</time>
      </trkpt>
      <trkpt lat="42.765333987772465" lon="-3.844549991190434">
        <ele>931.64999999999998</ele>
        <time>2025-04-28T10:20:26Z</time>
      </trkpt>
      <trkpt lat="42.765446975827217" lon="-3.844497017562389">
        <ele>932.62</ele>
        <time>2025-04-28T10:20:27Z</time>
      </trkpt>
      <trkpt lat="42.765586031600833" lon="-3.844431973993778">
        <ele>933.58000000000004</ele>
        <time>2025-04-28T10:20:28Z</time>
      </trkpt>
      <trkpt lat="42.765717962756753" lon="-3.844356033951044">
        <ele>934.53999999999996</ele>
        <time>2025-04-28T10:20:29Z</time>
      </trkpt>
      <trkpt lat="42.76583899743855" lon="-3.844271041452885">
        <ele>935.5</ele>
        <time>2025-04-28T10:20:30Z</time>
      </trkpt>
      <trkpt lat="42.765972018241882" lon="-3.844238016754389">
        <ele>936.94000000000005</ele>
        <time>2025-04-28T10:20:31Z</time>
      </trkpt>
      <trkpt lat="42.766063967719674" lon="-3.844227958470583">
        <ele>937.89999999999998</ele>
        <time>2025-04-28T10:20:32Z</time>
      </trkpt>
      <trkpt lat="42.766169998794794" lon="-3.844323009252548">
        <ele>938.86000000000001</ele>
        <time>2025-04-28T10:20:33Z</time>
      </trkpt>
      <trkpt lat="42.766265971586108" lon="-3.844410013407469">
        <ele>939.83000000000004</ele>
        <time>2025-04-28T10:20:34Z</time>
      </trkpt>
      <trkpt lat="42.766278041526675" lon="-3.844420993700624">
        <ele>940.78999999999996</ele>
        <time>2025-04-28T10:20:35Z</time>
      </trkpt>
      <trkpt lat="42.766320034861565" lon="-3.844656022265554">
        <ele>941.26999999999998</ele>
        <time>2025-04-28T10:20:36Z</time>
      </trkpt>
      <trkpt lat="42.766343001276255" lon="-3.844786025583744">
        <ele>942.23000000000002</ele>
        <time>2025-04-28T10:20:37Z</time>
      </trkpt>
      <trkpt lat="42.766350964084268" lon="-3.844998003914952">
        <ele>943.19000000000005</ele>
        <time>2025-04-28T10:20:38Z</time>
      </trkpt>
      <trkpt lat="42.766359010711312" lon="-3.845212999731302">
        <ele>943.66999999999996</ele>
        <time>2025-04-28T10:20:39Z</time>
      </trkpt>
      <trkpt lat="42.766343001276255" lon="-3.845435036346316">
        <ele>944.14999999999998</ele>
        <time>2025-04-28T10:20:40Z</time>
      </trkpt>
      <trkpt lat="42.766283992677927" lon="-3.845694959163666">
        <ele>945.11000000000001</ele>
        <time>2025-04-28T10:20:41Z</time>
      </trkpt>
      <trkpt lat="42.766228001564741" lon="-3.84593996219337">
        <ele>946.07000000000005</ele>
        <time>2025-04-28T10:20:42Z</time>
      </trkpt>
      <trkpt lat="42.766191959381104" lon="-3.846180019900203">
        <ele>947.03999999999996</ele>
        <time>2025-04-28T10:20:43Z</time>
      </trkpt>
      <trkpt lat="42.766191959381104" lon="-3.846372971311212">
        <ele>947.51999999999998</ele>
        <time>2025-04-28T10:20:44Z</time>
      </trkpt>
      <trkpt lat="42.766230013221502" lon="-3.846553014591336">
        <ele>948.48000000000002</ele>
        <time>2025-04-28T10:20:45Z</time>
      </trkpt>
      <trkpt lat="42.766278041526675" lon="-3.846673965454102">
        <ele>949.44000000000005</ele>
        <time>2025-04-28T10:20:46Z</time>
      </trkpt>
      <trkpt lat="42.766386000439525" lon="-3.846787959337235">
        <ele>950.88</ele>
        <time>2025-04-28T10:20:47Z</time>
      </trkpt>
      <trkpt lat="42.766517009586096" lon="-3.846872029826045">
        <ele>951.84000000000003</ele>
        <time>2025-04-28T10:20:48Z</time>
      </trkpt>
      <trkpt lat="42.766663022339344" lon="-3.846964985132217">
        <ele>952.79999999999995</ele>
        <time>2025-04-28T10:20:49Z</time>
      </trkpt>
      <trkpt lat="42.766816997900605" lon="-3.847057018429041">
        <ele>953.76999999999998</ele>
        <time>2025-04-28T10:20:50Z</time>
      </trkpt>
      <trkpt lat="42.766965022310615" lon="-3.847218034788966">
        <ele>954.73000000000002</ele>
        <time>2025-04-28T10:20:51Z</time>
      </trkpt>
      <trkpt lat="42.767105000093579" lon="-3.847406962886453">
        <ele>955.69000000000005</ele>
        <time>2025-04-28T10:20:52Z</time>
      </trkpt>
      <trkpt lat="42.767202984541655" lon="-3.847623970359564">
        <ele>956.64999999999998</ele>
        <time>2025-04-28T10:20:53Z</time>
      </trkpt>
      <trkpt lat="42.767311027273536" lon="-3.847868973389268">
        <ele>957.61000000000001</ele>
        <time>2025-04-28T10:20:54Z</time>
      </trkpt>
      <trkpt lat="42.767357965931296" lon="-3.848123028874397">
        <ele>958.57000000000005</ele>
        <time>2025-04-28T10:20:55Z</time>
      </trkpt>
      <trkpt lat="42.767404988408089" lon="-3.848373983055353">
        <ele>960.00999999999999</ele>
        <time>2025-04-28T10:20:56Z</time>
      </trkpt>
      <trkpt lat="42.767415968701243" lon="-3.848648993298411">
        <ele>961.46000000000004</ele>
        <time>2025-04-28T10:20:57Z</time>
      </trkpt>
      <trkpt lat="42.767415968701243" lon="-3.848907994106412">
        <ele>962.89999999999998</ele>
        <time>2025-04-28T10:20:58Z</time>
      </trkpt>
      <trkpt lat="42.767415968701243" lon="-3.849169006571174">
        <ele>964.82000000000005</ele>
        <time>2025-04-28T10:20:59Z</time>
      </trkpt>
      <trkpt lat="42.767388978973031" lon="-3.84944099932909">
        <ele>967.22000000000003</ele>
        <time>2025-04-28T10:21:00Z</time>
      </trkpt>
      <trkpt lat="42.767343968153" lon="-3.849695976823568">
        <ele>968.66999999999996</ele>
        <time>2025-04-28T10:21:01Z</time>
      </trkpt>
      <trkpt lat="42.767297029495239" lon="-3.849954977631569">
        <ele>970.59000000000003</ele>
        <time>2025-04-28T10:21:02Z</time>
      </trkpt>
      <trkpt lat="42.767111035063863" lon="-3.851663041859865">
        <ele>980.20000000000005</ele>
        <time>2025-04-28T10:21:09Z</time>
      </trkpt>
      <trkpt lat="42.767126960679889" lon="-3.851884994655848">
        <ele>981.63999999999999</ele>
        <time>2025-04-28T10:21:10Z</time>
      </trkpt>
      <trkpt lat="42.767486041411757" lon="-3.853940991684794">
        <ele>990.29999999999995</ele>
        <time>2025-04-28T10:21:18Z</time>
      </trkpt>
      <trkpt lat="42.76783799752593" lon="-3.855226021260023">
        <ele>995.10000000000002</ele>
        <time>2025-04-28T10:21:23Z</time>
      </trkpt>
      <trkpt lat="42.767877979204059" lon="-3.855493990704417">
        <ele>995.58000000000004</ele>
        <time>2025-04-28T10:21:24Z</time>
      </trkpt>
      <trkpt lat="42.768058022484183" lon="-3.857721984386444">
        <ele>995.10000000000002</ele>
        <time>2025-04-28T10:21:31Z</time>
      </trkpt>
      <trkpt lat="42.768265977501869" lon="-3.860951028764248">
        <ele>997.99000000000001</ele>
        <time>2025-04-28T10:21:40Z</time>
      </trkpt>
      <trkpt lat="42.768579963594675" lon="-3.86581202968955">
        <ele>1010.96</ele>
        <time>2025-04-28T10:21:54Z</time>
      </trkpt>
      <trkpt lat="42.76871801353991" lon="-3.86783198453486">
        <ele>1010</ele>
        <time>2025-04-28T10:22:02Z</time>
      </trkpt>
      <trkpt lat="42.768798982724547" lon="-3.869188008829951">
        <ele>1010.48</ele>
        <time>2025-04-28T10:22:10Z</time>
      </trkpt>
      <trkpt lat="42.768913982436061" lon="-3.870478989556432">
        <ele>1011.9299999999999</ele>
        <time>2025-04-28T10:22:20Z</time>
      </trkpt>
      <trkpt lat="42.768903002142906" lon="-3.870593989267945">
        <ele>1011.9299999999999</ele>
        <time>2025-04-28T10:22:21Z</time>
      </trkpt>
      <trkpt lat="42.768882969394326" lon="-3.870704965665937">
        <ele>1011.9299999999999</ele>
        <time>2025-04-28T10:22:22Z</time>
      </trkpt>
      <trkpt lat="42.768840976059437" lon="-3.87079699896276">
        <ele>1012.41</ele>
        <time>2025-04-28T10:22:23Z</time>
      </trkpt>
      <trkpt lat="42.76878397911787" lon="-3.870876040309668">
        <ele>1012.41</ele>
        <time>2025-04-28T10:22:24Z</time>
      </trkpt>
      <trkpt lat="42.768725976347923" lon="-3.870958015322685">
        <ele>1012.41</ele>
        <time>2025-04-28T10:22:25Z</time>
      </trkpt>
      <trkpt lat="42.768665039911866" lon="-3.871042001992464">
        <ele>1012.89</ele>
        <time>2025-04-28T10:22:26Z</time>
      </trkpt>
      <trkpt lat="42.768604019656777" lon="-3.871129006147385">
        <ele>1012.89</ele>
        <time>2025-04-28T10:22:27Z</time>
      </trkpt>
      <trkpt lat="42.767715035006404" lon="-3.872167021036148">
        <ele>1016.25</ele>
        <time>2025-04-28T10:22:39Z</time>
      </trkpt>
      <trkpt lat="42.767457962036133" lon="-3.872401965782046">
        <ele>1015.77</ele>
        <time>2025-04-28T10:22:42Z</time>
      </trkpt>
      <trkpt lat="42.767345979809761" lon="-3.872458040714264">
        <ele>1015.29</ele>
        <time>2025-04-28T10:22:43Z</time>
      </trkpt>
      <trkpt lat="42.767225028946996" lon="-3.87251403182745">
        <ele>1014.8099999999999</ele>
        <time>2025-04-28T10:22:44Z</time>
      </trkpt>
      <trkpt lat="42.767091002315283" lon="-3.872545966878533">
        <ele>1014.33</ele>
        <time>2025-04-28T10:22:45Z</time>
      </trkpt>
      <trkpt lat="42.766950018703938" lon="-3.87257999740541">
        <ele>1013.37</ele>
        <time>2025-04-28T10:22:46Z</time>
      </trkpt>
      <trkpt lat="42.766666961833835" lon="-3.872647974640131">
        <ele>1011.4400000000001</ele>
        <time>2025-04-28T10:22:48Z</time>
      </trkpt>
      <trkpt lat="42.766543999314308" lon="-3.872736990451813">
        <ele>1010.48</ele>
        <time>2025-04-28T10:22:49Z</time>
      </trkpt>
      <trkpt lat="42.766434028744698" lon="-3.872863976284862">
        <ele>1009.52</ele>
        <time>2025-04-28T10:22:50Z</time>
      </trkpt>
      <trkpt lat="42.766349036246538" lon="-3.873038990423083">
        <ele>1008.5599999999999</ele>
        <time>2025-04-28T10:22:51Z</time>
      </trkpt>
      <trkpt lat="42.766255997121334" lon="-3.873232025653124">
        <ele>1008.08</ele>
        <time>2025-04-28T10:22:52Z</time>
      </trkpt>
      <trkpt lat="42.765755010768771" lon="-3.874630965292454">
        <ele>1008.08</ele>
        <time>2025-04-28T10:22:59Z</time>
      </trkpt>
      <trkpt lat="42.765128966420889" lon="-3.876757035031915">
        <ele>1008.08</ele>
        <time>2025-04-28T10:23:09Z</time>
      </trkpt>
      <trkpt lat="42.764370990917087" lon="-3.879416026175022">
        <ele>1005.2</ele>
        <time>2025-04-28T10:23:18Z</time>
      </trkpt>
      <trkpt lat="42.763438001275063" lon="-3.882669964805245">
        <ele>1004.23</ele>
        <time>2025-04-28T10:23:28Z</time>
      </trkpt>
      <trkpt lat="42.763181012123823" lon="-3.883488960564137">
        <ele>1006.16</ele>
        <time>2025-04-28T10:23:31Z</time>
      </trkpt>
      <trkpt lat="42.763074981048703" lon="-3.883714014664292">
        <ele>1006.64</ele>
        <time>2025-04-28T10:23:32Z</time>
      </trkpt>
      <trkpt lat="42.762939026579261" lon="-3.883928004652262">
        <ele>1007.12</ele>
        <time>2025-04-28T10:23:33Z</time>
      </trkpt>
      <trkpt lat="42.761451993137598" lon="-3.88613797724247">
        <ele>1007.12</ele>
        <time>2025-04-28T10:23:43Z</time>
      </trkpt>
      <trkpt lat="42.759794974699616" lon="-3.888568980619311">
        <ele>1009.04</ele>
        <time>2025-04-28T10:23:55Z</time>
      </trkpt>
      <trkpt lat="42.759062983095646" lon="-3.889571959152818">
        <ele>1009.52</ele>
        <time>2025-04-28T10:24:01Z</time>
      </trkpt>
      <trkpt lat="42.758921999484301" lon="-3.889726018533111">
        <ele>1010</ele>
        <time>2025-04-28T10:24:02Z</time>
      </trkpt>
      <trkpt lat="42.75728601962328" lon="-3.891277005895972">
        <ele>1011.4400000000001</ele>
        <time>2025-04-28T10:24:12Z</time>
      </trkpt>
      <trkpt lat="42.756467023864388" lon="-3.89204696752131">
        <ele>1013.37</ele>
        <time>2025-04-28T10:24:18Z</time>
      </trkpt>
      <trkpt lat="42.756393011659384" lon="-3.892117040231824">
        <ele>1013.85</ele>
        <time>2025-04-28T10:24:19Z</time>
      </trkpt>
      <trkpt lat="42.756395023316145" lon="-3.892212007194758">
        <ele>1013.85</ele>
        <time>2025-04-28T10:24:20Z</time>
      </trkpt>
      <trkpt lat="42.756423018872738" lon="-3.892275961115956">
        <ele>1013.37</ele>
        <time>2025-04-28T10:24:21Z</time>
      </trkpt>
      <trkpt lat="42.756459983065724" lon="-3.892362965270877">
        <ele>1012.89</ele>
        <time>2025-04-28T10:24:22Z</time>
      </trkpt>
      <trkpt lat="42.756508011370897" lon="-3.892473019659519">
        <ele>1012.89</ele>
        <time>2025-04-28T10:24:23Z</time>
      </trkpt>
      <trkpt lat="42.75698896497488" lon="-3.893462000414729">
        <ele>1012.41</ele>
        <time>2025-04-28T10:24:29Z</time>
      </trkpt>
      <trkpt lat="42.758173998445272" lon="-3.89591203071177">
        <ele>1019.62</ele>
        <time>2025-04-28T10:24:40Z</time>
      </trkpt>
      <trkpt lat="42.7583849709481" lon="-3.896312015131116">
        <ele>1021.54</ele>
        <time>2025-04-28T10:24:42Z</time>
      </trkpt>
      <trkpt lat="42.75851396843791" lon="-3.896459033712745">
        <ele>1022.98</ele>
        <time>2025-04-28T10:24:43Z</time>
      </trkpt>
      <trkpt lat="42.758637014776468" lon="-3.896598005667329">
        <ele>1023.9400000000001</ele>
        <time>2025-04-28T10:24:44Z</time>
      </trkpt>
      <trkpt lat="42.758789984509349" lon="-3.896693978458643">
        <ele>1025.3800000000001</ele>
        <time>2025-04-28T10:24:45Z</time>
      </trkpt>
      <trkpt lat="42.758946977555752" lon="-3.896760027855635">
        <ele>1026.3399999999999</ele>
        <time>2025-04-28T10:24:46Z</time>
      </trkpt>
      <trkpt lat="42.760776998475194" lon="-3.89752596616745">
        <ele>1035</ele>
        <time>2025-04-28T10:24:56Z</time>
      </trkpt>
      <trkpt lat="42.76216302998364" lon="-3.898131977766752">
        <ele>1041.25</ele>
        <time>2025-04-28T10:25:03Z</time>
      </trkpt>
      <trkpt lat="42.762328991666436" lon="-3.898257035762072">
        <ele>1042.6900000000001</ele>
        <time>2025-04-28T10:25:04Z</time>
      </trkpt>
      <trkpt lat="42.762469975277781" lon="-3.898422997444868">
        <ele>1043.6500000000001</ele>
        <time>2025-04-28T10:25:05Z</time>
      </trkpt>
      <trkpt lat="42.762582041323185" lon="-3.898618966341019">
        <ele>1045.5699999999999</ele>
        <time>2025-04-28T10:25:06Z</time>
      </trkpt>
      <trkpt lat="42.7626399602741" lon="-3.898864975199103">
        <ele>1047.01</ele>
        <time>2025-04-28T10:25:07Z</time>
      </trkpt>
      <trkpt lat="42.762674996629357" lon="-3.89911500737071">
        <ele>1048.9400000000001</ele>
        <time>2025-04-28T10:25:08Z</time>
      </trkpt>
      <trkpt lat="42.762684971094131" lon="-3.899377025663853">
        <ele>1050.8599999999999</ele>
        <time>2025-04-28T10:25:09Z</time>
      </trkpt>
      <trkpt lat="42.762695029377937" lon="-3.899653041735292">
        <ele>1052.78</ele>
        <time>2025-04-28T10:25:10Z</time>
      </trkpt>
      <trkpt lat="42.762691006064415" lon="-3.899910030886531">
        <ele>1054.7</ele>
        <time>2025-04-28T10:25:11Z</time>
      </trkpt>
      <trkpt lat="42.762641971930861" lon="-3.90371298417449">
        <ele>1068.6400000000001</ele>
        <time>2025-04-28T10:25:24Z</time>
      </trkpt>
      <trkpt lat="42.76261598803103" lon="-3.908543977886438">
        <ele>1076.3299999999999</ele>
        <time>2025-04-28T10:25:40Z</time>
      </trkpt>
      <trkpt lat="42.762725036591291" lon="-3.90906197950244">
        <ele>1077.29</ele>
        <time>2025-04-28T10:25:42Z</time>
      </trkpt>
      <trkpt lat="42.762795025482774" lon="-3.909312011674047">
        <ele>1077.78</ele>
        <time>2025-04-28T10:25:43Z</time>
      </trkpt>
      <trkpt lat="42.76360304094851" lon="-3.911851979792118">
        <ele>1080.6600000000001</ele>
        <time>2025-04-28T10:25:52Z</time>
      </trkpt>
      <trkpt lat="42.764432011172175" lon="-3.914488004520536">
        <ele>1080.1800000000001</ele>
        <time>2025-04-28T10:26:01Z</time>
      </trkpt>
      <trkpt lat="42.765636993572116" lon="-3.918270003050566">
        <ele>1076.8099999999999</ele>
        <time>2025-04-28T10:26:15Z</time>
      </trkpt>
      <trkpt lat="42.766449032351375" lon="-3.920824974775314">
        <ele>1073.45</ele>
        <time>2025-04-28T10:26:25Z</time>
      </trkpt>
      <trkpt lat="42.766624968498945" lon="-3.921382036060095">
        <ele>1072.01</ele>
        <time>2025-04-28T10:26:30Z</time>
      </trkpt>
      <trkpt lat="42.766624968498945" lon="-3.921382036060095">
        <ele>1071.53</ele>
        <time>2025-04-28T10:26:31Z</time>
      </trkpt>
      <trkpt lat="42.766624968498945" lon="-3.921382036060095">
        <ele>1071.05</ele>
        <time>2025-04-28T10:26:44Z</time>
      </trkpt>
      <trkpt lat="42.766624968498945" lon="-3.921382036060095">
        <ele>1070.5699999999999</ele>
        <time>2025-04-28T10:27:17Z</time>
      </trkpt>
      <trkpt lat="42.766737034544349" lon="-3.921733992174268">
        <ele>1067.6800000000001</ele>
        <time>2025-04-28T10:27:37Z</time>
      </trkpt>
      <trkpt lat="42.767113968729973" lon="-3.922922965139151">
        <ele>1064.3199999999999</ele>
        <time>2025-04-28T10:27:44Z</time>
      </trkpt>
      <trkpt lat="42.767853001132607" lon="-3.925252966582775">
        <ele>1063.3599999999999</ele>
        <time>2025-04-28T10:27:54Z</time>
      </trkpt>
      <trkpt lat="42.768151983618736" lon="-3.926263991743326">
        <ele>1063.8399999999999</ele>
        <time>2025-04-28T10:27:58Z</time>
      </trkpt>
      <trkpt lat="42.768176039680839" lon="-3.926543025299907">
        <ele>1063.8399999999999</ele>
        <time>2025-04-28T10:27:59Z</time>
      </trkpt>
      <trkpt lat="42.768501006066799" lon="-3.930457960814238">
        <ele>1063.8399999999999</ele>
        <time>2025-04-28T10:28:12Z</time>
      </trkpt>
      <trkpt lat="42.768992017954588" lon="-3.936425037682056">
        <ele>1064.8</ele>
        <time>2025-04-28T10:28:31Z</time>
      </trkpt>
      <trkpt lat="42.769423015415668" lon="-3.941629026085138">
        <ele>1065.76</ele>
        <time>2025-04-28T10:28:47Z</time>
      </trkpt>
      <trkpt lat="42.76957699097693" lon="-3.943480001762509">
        <ele>1066.72</ele>
        <time>2025-04-28T10:28:55Z</time>
      </trkpt>
      <trkpt lat="42.769660977646708" lon="-3.944222973659635">
        <ele>1066.24</ele>
        <time>2025-04-28T10:28:59Z</time>
      </trkpt>
      <trkpt lat="42.769689979031682" lon="-3.944327998906374">
        <ele>1066.24</ele>
        <time>2025-04-28T10:29:00Z</time>
      </trkpt>
      <trkpt lat="42.769804978743196" lon="-3.944458002224565">
        <ele>1065.76</ele>
        <time>2025-04-28T10:29:01Z</time>
      </trkpt>
      <trkpt lat="42.769885025918484" lon="-3.944531008601189">
        <ele>1065.76</ele>
        <time>2025-04-28T10:29:02Z</time>
      </trkpt>
      <trkpt lat="42.769976975396276" lon="-3.944570990279317">
        <ele>1065.76</ele>
        <time>2025-04-28T10:29:03Z</time>
      </trkpt>
      <trkpt lat="42.770079988986254" lon="-3.944563027471304">
        <ele>1065.28</ele>
        <time>2025-04-28T10:29:04Z</time>
      </trkpt>
      <trkpt lat="42.770175961777568" lon="-3.944507036358118">
        <ele>1065.28</ele>
        <time>2025-04-28T10:29:05Z</time>
      </trkpt>
      <trkpt lat="42.770262965932488" lon="-3.944421038031578">
        <ele>1065.76</ele>
        <time>2025-04-28T10:29:06Z</time>
      </trkpt>
      <trkpt lat="42.770356005057693" lon="-3.944325987249613">
        <ele>1066.24</ele>
        <time>2025-04-28T10:29:07Z</time>
      </trkpt>
      <trkpt lat="42.770420964807272" lon="-3.94418902695179">
        <ele>1066.24</ele>
        <time>2025-04-28T10:29:08Z</time>
      </trkpt>
      <trkpt lat="42.770488020032644" lon="-3.944047959521413">
        <ele>1066.72</ele>
        <time>2025-04-28T10:29:09Z</time>
      </trkpt>
      <trkpt lat="42.770554991438985" lon="-3.943907981738448">
        <ele>1067.2</ele>
        <time>2025-04-28T10:29:10Z</time>
      </trkpt>
      <trkpt lat="42.77060997672379" lon="-3.943750988692045">
        <ele>1067.2</ele>
        <time>2025-04-28T10:29:11Z</time>
      </trkpt>
      <trkpt lat="42.770980959758162" lon="-3.942453972995281">
        <ele>1062.3900000000001</ele>
        <time>2025-04-28T10:29:20Z</time>
      </trkpt>
      <trkpt lat="42.771301986649632" lon="-3.941346975043416">
        <ele>1051.8199999999999</ele>
        <time>2025-04-28T10:29:27Z</time>
      </trkpt>
      <trkpt lat="42.771325958892703" lon="-3.941175984218717">
        <ele>1050.3800000000001</ele>
        <time>2025-04-28T10:29:28Z</time>
      </trkpt>
      <trkpt lat="42.771450011059642" lon="-3.93978601321578">
        <ele>1038.8399999999999</ele>
        <time>2025-04-28T10:29:36Z</time>
      </trkpt>
      <trkpt lat="42.771497033536434" lon="-3.939626002684236">
        <ele>1037.4000000000001</ele>
        <time>2025-04-28T10:29:37Z</time>
      </trkpt>
      <trkpt lat="42.771573979407549" lon="-3.939488036558032">
        <ele>1035.96</ele>
        <time>2025-04-28T10:29:38Z</time>
      </trkpt>
      <trkpt lat="42.771656038239598" lon="-3.939343029633164">
        <ele>1034.52</ele>
        <time>2025-04-28T10:29:39Z</time>
      </trkpt>
      <trkpt lat="42.771738013252616" lon="-3.939197016879916">
        <ele>1033.0699999999999</ele>
        <time>2025-04-28T10:29:40Z</time>
      </trkpt>
      <trkpt lat="42.772219972684979" lon="-3.93858103081584">
        <ele>1025.8599999999999</ele>
        <time>2025-04-28T10:29:45Z</time>
      </trkpt>
      <trkpt lat="42.772336984053254" lon="-3.938530990853906">
        <ele>1024.4200000000001</ele>
        <time>2025-04-28T10:29:46Z</time>
      </trkpt>
      <trkpt lat="42.772450977936387" lon="-3.938482040539384">
        <ele>1022.98</ele>
        <time>2025-04-28T10:29:47Z</time>
      </trkpt>
      <trkpt lat="42.77256497181952" lon="-3.938427977263928">
        <ele>1021.0599999999999</ele>
        <time>2025-04-28T10:29:48Z</time>
      </trkpt>
      <trkpt lat="42.772675026208162" lon="-3.938372991979122">
        <ele>1019.13</ele>
        <time>2025-04-28T10:29:49Z</time>
      </trkpt>
      <trkpt lat="42.772891027852893" lon="-3.938269978389144">
        <ele>1015.29</ele>
        <time>2025-04-28T10:29:51Z</time>
      </trkpt>
      <trkpt lat="42.772998986765742" lon="-3.938219016417861">
        <ele>1012.89</ele>
        <time>2025-04-28T10:29:52Z</time>
      </trkpt>
      <trkpt lat="42.773096971213818" lon="-3.938171993941069">
        <ele>1011.4400000000001</ele>
        <time>2025-04-28T10:29:53Z</time>
      </trkpt>
      <trkpt lat="42.77318699285388" lon="-3.938179034739733">
        <ele>1009.52</ele>
        <time>2025-04-28T10:29:54Z</time>
      </trkpt>
      <trkpt lat="42.773266034200788" lon="-3.938188003376126">
        <ele>1008.08</ele>
        <time>2025-04-28T10:29:55Z</time>
      </trkpt>
      <trkpt lat="42.773335017263889" lon="-3.938198983669281">
        <ele>1006.64</ele>
        <time>2025-04-28T10:29:56Z</time>
      </trkpt>
      <trkpt lat="42.773572979494929" lon="-3.938251035287976">
        <ele>1001.35</ele>
        <time>2025-04-28T10:30:00Z</time>
      </trkpt>
      <trkpt lat="42.773709017783403" lon="-3.938207030296326">
        <ele>998.95000000000005</ele>
        <time>2025-04-28T10:30:02Z</time>
      </trkpt>
      <trkpt lat="42.773778000846505" lon="-3.938177023082972">
        <ele>997.50999999999999</ele>
        <time>2025-04-28T10:30:03Z</time>
      </trkpt>
      <trkpt lat="42.773851007223129" lon="-3.938146010041237">
        <ele>996.05999999999995</ele>
        <time>2025-04-28T10:30:04Z</time>
      </trkpt>
      <trkpt lat="42.773920996114612" lon="-3.93808901309967">
        <ele>995.10000000000002</ele>
        <time>2025-04-28T10:30:05Z</time>
      </trkpt>
      <trkpt lat="42.773980004712939" lon="-3.938004020601511">
        <ele>994.13999999999999</ele>
        <time>2025-04-28T10:30:06Z</time>
      </trkpt>
      <trkpt lat="42.774040019139647" lon="-3.93791601061821">
        <ele>993.17999999999995</ele>
        <time>2025-04-28T10:30:07Z</time>
      </trkpt>
      <trkpt lat="42.774103973060846" lon="-3.937821965664625">
        <ele>992.22000000000003</ele>
        <time>2025-04-28T10:30:08Z</time>
      </trkpt>
      <trkpt lat="42.774169016629457" lon="-3.937726998701692">
        <ele>991.25999999999999</ele>
        <time>2025-04-28T10:30:09Z</time>
      </trkpt>
      <trkpt lat="42.774182008579373" lon="-3.937606969848275">
        <ele>990.29999999999995</ele>
        <time>2025-04-28T10:30:10Z</time>
      </trkpt>
      <trkpt lat="42.774189971387386" lon="-3.937477972358465">
        <ele>988.85000000000002</ele>
        <time>2025-04-28T10:30:11Z</time>
      </trkpt>
      <trkpt lat="42.77419600635767" lon="-3.937375964596868">
        <ele>987.88999999999999</ele>
        <time>2025-04-28T10:30:12Z</time>
      </trkpt>
      <trkpt lat="42.774144038558006" lon="-3.937189970165491">
        <ele>986.92999999999995</ele>
        <time>2025-04-28T10:30:13Z</time>
      </trkpt>
      <trkpt lat="42.774088969454169" lon="-3.936997018754482">
        <ele>985.97000000000003</ele>
        <time>2025-04-28T10:30:14Z</time>
      </trkpt>
      <trkpt lat="42.774030966684222" lon="-3.936791997402906">
        <ele>984.52999999999997</ele>
        <time>2025-04-28T10:30:15Z</time>
      </trkpt>
      <trkpt lat="42.773914039134979" lon="-3.936357982456684">
        <ele>981.63999999999999</ele>
        <time>2025-04-28T10:30:17Z</time>
      </trkpt>
      <trkpt lat="42.773890988901258" lon="-3.936162013560534">
        <ele>980.67999999999995</ele>
        <time>2025-04-28T10:30:18Z</time>
      </trkpt>
      <trkpt lat="42.773900041356683" lon="-3.935930002480745">
        <ele>979.24000000000001</ele>
        <time>2025-04-28T10:30:19Z</time>
      </trkpt>
      <trkpt lat="42.773951003327966" lon="-3.935750965029001">
        <ele>978.27999999999997</ele>
        <time>2025-04-28T10:30:20Z</time>
      </trkpt>
      <trkpt lat="42.774002971127629" lon="-3.935562958940864">
        <ele>976.84000000000003</ele>
        <time>2025-04-28T10:30:21Z</time>
      </trkpt>
      <trkpt lat="42.774105984717607" lon="-3.935375958681107">
        <ele>975.38999999999999</ele>
        <time>2025-04-28T10:30:22Z</time>
      </trkpt>
      <trkpt lat="42.77421603910625" lon="-3.935223994776607">
        <ele>973.95000000000005</ele>
        <time>2025-04-28T10:30:23Z</time>
      </trkpt>
      <trkpt lat="42.774330032989383" lon="-3.935067001730204">
        <ele>972.99000000000001</ele>
        <time>2025-04-28T10:30:24Z</time>
      </trkpt>
      <trkpt lat="42.774445032700896" lon="-3.93490900285542">
        <ele>971.07000000000005</ele>
        <time>2025-04-28T10:30:25Z</time>
      </trkpt>
      <trkpt lat="42.775252964347601" lon="-3.933797981590033">
        <ele>960.00999999999999</ele>
        <time>2025-04-28T10:30:32Z</time>
      </trkpt>
      <trkpt lat="42.775348015129566" lon="-3.933667978271842">
        <ele>958.09000000000003</ele>
        <time>2025-04-28T10:30:33Z</time>
      </trkpt>
      <trkpt lat="42.77546402066946" lon="-3.933593966066837">
        <ele>956.16999999999996</ele>
        <time>2025-04-28T10:30:34Z</time>
      </trkpt>
      <trkpt lat="42.775577008724213" lon="-3.933586003258824">
        <ele>954.25</ele>
        <time>2025-04-28T10:30:35Z</time>
      </trkpt>
      <trkpt lat="42.775697959586978" lon="-3.933578040450811">
        <ele>952.79999999999995</ele>
        <time>2025-04-28T10:30:36Z</time>
      </trkpt>
      <trkpt lat="42.775797033682466" lon="-3.933601006865501">
        <ele>951.36000000000001</ele>
        <time>2025-04-28T10:30:37Z</time>
      </trkpt>
      <trkpt lat="42.775903986766934" lon="-3.933627996593714">
        <ele>949.91999999999996</ele>
        <time>2025-04-28T10:30:38Z</time>
      </trkpt>
      <trkpt lat="42.776115965098143" lon="-3.933678958564997">
        <ele>947.51999999999998</ele>
        <time>2025-04-28T10:30:40Z</time>
      </trkpt>
      <trkpt lat="42.77621403336525" lon="-3.933703014627099">
        <ele>946.07000000000005</ele>
        <time>2025-04-28T10:30:41Z</time>
      </trkpt>
      <trkpt lat="42.776301959529519" lon="-3.933723969385028">
        <ele>944.63</ele>
        <time>2025-04-28T10:30:42Z</time>
      </trkpt>
      <trkpt lat="42.776405978947878" lon="-3.933749031275511">
        <ele>943.66999999999996</ele>
        <time>2025-04-28T10:30:43Z</time>
      </trkpt>
      <trkpt lat="42.77647596783936" lon="-3.933720029890537">
        <ele>942.23000000000002</ele>
        <time>2025-04-28T10:30:44Z</time>
      </trkpt>
      <trkpt lat="42.776771010830998" lon="-3.93359899520874">
        <ele>938.38</ele>
        <time>2025-04-28T10:30:48Z</time>
      </trkpt>
      <trkpt lat="42.776799006387591" lon="-3.933616010472179">
        <ele>937.41999999999996</ele>
        <time>2025-04-28T10:30:49Z</time>
      </trkpt>
      <trkpt lat="42.776857009157538" lon="-3.933712989091873">
        <ele>935.98000000000002</ele>
        <time>2025-04-28T10:30:50Z</time>
      </trkpt>
      <trkpt lat="42.776835970580578" lon="-3.933763029053807">
        <ele>935.01999999999998</ele>
        <time>2025-04-28T10:30:51Z</time>
      </trkpt>
      <trkpt lat="42.776788026094437" lon="-3.93383301794529">
        <ele>934.05999999999995</ele>
        <time>2025-04-28T10:30:52Z</time>
      </trkpt>
      <trkpt lat="42.776728011667728" lon="-3.933878028765321">
        <ele>933.10000000000002</ele>
        <time>2025-04-28T10:30:53Z</time>
      </trkpt>
      <trkpt lat="42.776652993634343" lon="-3.933934019878507">
        <ele>932.13999999999999</ele>
        <time>2025-04-28T10:30:54Z</time>
      </trkpt>
      <trkpt lat="42.776565989479423" lon="-3.933995962142944">
        <ele>931.16999999999996</ele>
        <time>2025-04-28T10:30:55Z</time>
      </trkpt>
      <trkpt lat="42.776249991729856" lon="-3.934191009029746">
        <ele>927.80999999999995</ele>
        <time>2025-04-28T10:30:58Z</time>
      </trkpt>
      <trkpt lat="42.776120994240046" lon="-3.934226967394352">
        <ele>926.85000000000002</ele>
        <time>2025-04-28T10:30:59Z</time>
      </trkpt>
      <trkpt lat="42.775854030624032" lon="-3.934257980436087">
        <ele>924.92999999999995</ele>
        <time>2025-04-28T10:31:01Z</time>
      </trkpt>
      <trkpt lat="42.775728972628713" lon="-3.934310032054782">
        <ele>923.96000000000004</ele>
        <time>2025-04-28T10:31:02Z</time>
      </trkpt>
      <trkpt lat="42.775625037029386" lon="-3.9343729801476">
        <ele>923</ele>
        <time>2025-04-28T10:31:03Z</time>
      </trkpt>
      <trkpt lat="42.775591006502509" lon="-3.934502983465791">
        <ele>922.03999999999996</ele>
        <time>2025-04-28T10:31:04Z</time>
      </trkpt>
      <trkpt lat="42.775591006502509" lon="-3.934637010097504">
        <ele>921.08000000000004</ele>
        <time>2025-04-28T10:31:05Z</time>
      </trkpt>
      <trkpt lat="42.77559201233089" lon="-3.934783022850752">
        <ele>920.12</ele>
        <time>2025-04-28T10:31:06Z</time>
      </trkpt>
      <trkpt lat="42.775637023150921" lon="-3.934942027553916">
        <ele>918.67999999999995</ele>
        <time>2025-04-28T10:31:07Z</time>
      </trkpt>
      <trkpt lat="42.775689996778965" lon="-3.9351000264287">
        <ele>916.75</ele>
        <time>2025-04-28T10:31:08Z</time>
      </trkpt>
      <trkpt lat="42.77578404173255" lon="-3.935245033353567">
        <ele>915.30999999999995</ele>
        <time>2025-04-28T10:31:09Z</time>
      </trkpt>
      <trkpt lat="42.775881020352244" lon="-3.935394985601306">
        <ele>913.38999999999999</ele>
        <time>2025-04-28T10:31:10Z</time>
      </trkpt>
      <trkpt lat="42.7759800106287" lon="-3.935548039153218">
        <ele>911.47000000000003</ele>
        <time>2025-04-28T10:31:11Z</time>
      </trkpt>
      <trkpt lat="42.776203975081444" lon="-3.935840986669064">
        <ele>906.65999999999997</ele>
        <time>2025-04-28T10:31:13Z</time>
      </trkpt>
      <trkpt lat="42.776348982006311" lon="-3.935917010530829">
        <ele>904.25999999999999</ele>
        <time>2025-04-28T10:31:14Z</time>
      </trkpt>
      <trkpt lat="42.776789031922817" lon="-3.936258992180228">
        <ele>894.63999999999999</ele>
        <time>2025-04-28T10:31:17Z</time>
      </trkpt>
      <trkpt lat="42.776939989998937" lon="-3.936393018811941">
        <ele>891.75999999999999</ele>
        <time>2025-04-28T10:31:18Z</time>
      </trkpt>
      <trkpt lat="42.778121000155807" lon="-3.937341012060642">
        <ele>868.21000000000004</ele>
        <time>2025-04-28T10:31:25Z</time>
      </trkpt>
      <trkpt lat="42.778311017900705" lon="-3.937434973195195">
        <ele>865.32000000000005</ele>
        <time>2025-04-28T10:31:26Z</time>
      </trkpt>
      <trkpt lat="42.780311023816466" lon="-3.938001003116369">
        <ele>841.76999999999998</ele>
        <time>2025-04-28T10:31:35Z</time>
      </trkpt>
      <trkpt lat="42.782193012535572" lon="-3.938406016677618">
        <ele>821.58000000000004</ele>
        <time>2025-04-28T10:31:44Z</time>
      </trkpt>
      <trkpt lat="42.782600037753582" lon="-3.93836997449398">
        <ele>817.74000000000001</ele>
        <time>2025-04-28T10:31:46Z</time>
      </trkpt>
      <trkpt lat="42.782797012478113" lon="-3.93832697533071">
        <ele>815.82000000000005</ele>
        <time>2025-04-28T10:31:47Z</time>
      </trkpt>
      <trkpt lat="42.782991975545883" lon="-3.938250029459596">
        <ele>813.88999999999999</ele>
        <time>2025-04-28T10:31:48Z</time>
      </trkpt>
      <trkpt lat="42.783173024654388" lon="-3.938108962029219">
        <ele>812.45000000000005</ele>
        <time>2025-04-28T10:31:49Z</time>
      </trkpt>
      <trkpt lat="42.783358013257384" lon="-3.937964960932732">
        <ele>810.52999999999997</ele>
        <time>2025-04-28T10:31:50Z</time>
      </trkpt>
      <trkpt lat="42.78392999432981" lon="-3.937596995383501">
        <ele>804.27999999999997</ele>
        <time>2025-04-28T10:31:53Z</time>
      </trkpt>
      <trkpt lat="42.784120012074709" lon="-3.937513008713722">
        <ele>802.36000000000001</ele>
        <time>2025-04-28T10:31:54Z</time>
      </trkpt>
      <trkpt lat="42.785093989223242" lon="-3.937212014570832">
        <ele>792.74000000000001</ele>
        <time>2025-04-28T10:31:59Z</time>
      </trkpt>
      <trkpt lat="42.785256011411548" lon="-3.937104977667332">
        <ele>791.29999999999995</ele>
        <time>2025-04-28T10:32:00Z</time>
      </trkpt>
      <trkpt lat="42.785373022779822" lon="-3.936938010156155">
        <ele>789.86000000000001</ele>
        <time>2025-04-28T10:32:01Z</time>
      </trkpt>
      <trkpt lat="42.785488022491336" lon="-3.936773976311088">
        <ele>788.41999999999996</ele>
        <time>2025-04-28T10:32:02Z</time>
      </trkpt>
      <trkpt lat="42.785587012767792" lon="-3.936602985486388">
        <ele>786.98000000000002</ele>
        <time>2025-04-28T10:32:03Z</time>
      </trkpt>
      <trkpt lat="42.785670999437571" lon="-3.936420008540154">
        <ele>786.01999999999998</ele>
        <time>2025-04-28T10:32:04Z</time>
      </trkpt>
      <trkpt lat="42.785732019692659" lon="-3.936225967481732">
        <ele>785.04999999999995</ele>
        <time>2025-04-28T10:32:05Z</time>
      </trkpt>
      <trkpt lat="42.785790022462606" lon="-3.936036033555865">
        <ele>784.09000000000003</ele>
        <time>2025-04-28T10:32:06Z</time>
      </trkpt>
      <trkpt lat="42.785952966660261" lon="-3.935500010848045">
        <ele>781.69000000000005</ele>
        <time>2025-04-28T10:32:09Z</time>
      </trkpt>
      <trkpt lat="42.786017004400492" lon="-3.935341006144881">
        <ele>781.21000000000004</ele>
        <time>2025-04-28T10:32:10Z</time>
      </trkpt>
      <trkpt lat="42.786113983020186" lon="-3.93518895842135">
        <ele>780.25</ele>
        <time>2025-04-28T10:32:11Z</time>
      </trkpt>
      <trkpt lat="42.786239963024855" lon="-3.935108995065093">
        <ele>779.76999999999998</ele>
        <time>2025-04-28T10:32:12Z</time>
      </trkpt>
      <trkpt lat="42.786384969949722" lon="-3.93503699451685">
        <ele>779.28999999999996</ele>
        <time>2025-04-28T10:32:13Z</time>
      </trkpt>
      <trkpt lat="42.786534000188112" lon="-3.934987038373947">
        <ele>778.80999999999995</ele>
        <time>2025-04-28T10:32:14Z</time>
      </trkpt>
      <trkpt lat="42.786683030426502" lon="-3.934936998412013">
        <ele>778.32000000000005</ele>
        <time>2025-04-28T10:32:15Z</time>
      </trkpt>
      <trkpt lat="42.786825019866228" lon="-3.934862986207008">
        <ele>777.84000000000003</ele>
        <time>2025-04-28T10:32:16Z</time>
      </trkpt>
      <trkpt lat="42.786970026791096" lon="-3.934783022850752">
        <ele>777.36000000000001</ele>
        <time>2025-04-28T10:32:17Z</time>
      </trkpt>
      <trkpt lat="42.787116961553693" lon="-3.934698030352593">
        <ele>776.88</ele>
        <time>2025-04-28T10:32:18Z</time>
      </trkpt>
      <trkpt lat="42.788469968363643" lon="-3.933912981301546">
        <ele>772.55999999999995</ele>
        <time>2025-04-28T10:32:27Z</time>
      </trkpt>
      <trkpt lat="42.788602989166975" lon="-3.933773003518581">
        <ele>772.08000000000004</ele>
        <time>2025-04-28T10:32:28Z</time>
      </trkpt>
      <trkpt lat="42.788736009970307" lon="-3.933634031563997">
        <ele>771.11000000000001</ele>
        <time>2025-04-28T10:32:29Z</time>
      </trkpt>
      <trkpt lat="42.789776036515832" lon="-3.932666005566716">
        <ele>762.46000000000004</ele>
        <time>2025-04-28T10:32:36Z</time>
      </trkpt>
      <trkpt lat="42.789925988763571" lon="-3.932550000026822">
        <ele>760.53999999999996</ele>
        <time>2025-04-28T10:32:37Z</time>
      </trkpt>
      <trkpt lat="42.79009597375989" lon="-3.932418990880251">
        <ele>759.10000000000002</ele>
        <time>2025-04-28T10:32:38Z</time>
      </trkpt>
      <trkpt lat="42.790228994563222" lon="-3.932372974231839">
        <ele>757.17999999999995</ele>
        <time>2025-04-28T10:32:39Z</time>
      </trkpt>
      <trkpt lat="42.791215041652322" lon="-3.932208018377423">
        <ele>747.08000000000004</ele>
        <time>2025-04-28T10:32:46Z</time>
      </trkpt>
      <trkpt lat="42.791313026100397" lon="-3.932182034477592">
        <ele>745.63999999999999</ele>
        <time>2025-04-28T10:32:47Z</time>
      </trkpt>
      <trkpt lat="42.791405981406569" lon="-3.932145992293954">
        <ele>744.20000000000005</ele>
        <time>2025-04-28T10:32:48Z</time>
      </trkpt>
      <trkpt lat="42.791491979733109" lon="-3.932112967595458">
        <ele>743.24000000000001</ele>
        <time>2025-04-28T10:32:49Z</time>
      </trkpt>
      <trkpt lat="42.79157898388803" lon="-3.932057982310653">
        <ele>742.27999999999997</ele>
        <time>2025-04-28T10:32:50Z</time>
      </trkpt>
      <trkpt lat="42.791659031063318" lon="-3.931990005075932">
        <ele>741.30999999999995</ele>
        <time>2025-04-28T10:32:51Z</time>
      </trkpt>
      <trkpt lat="42.791733965277672" lon="-3.931897971779108">
        <ele>740.35000000000002</ele>
        <time>2025-04-28T10:32:52Z</time>
      </trkpt>
      <trkpt lat="42.791801020503044" lon="-3.931791018694639">
        <ele>739.87</ele>
        <time>2025-04-28T10:32:53Z</time>
      </trkpt>
      <trkpt lat="42.791838990524411" lon="-3.931675013154745">
        <ele>738.90999999999997</ele>
        <time>2025-04-28T10:32:54Z</time>
      </trkpt>
      <trkpt lat="42.791877966374159" lon="-3.93155699595809">
        <ele>737.95000000000005</ele>
        <time>2025-04-28T10:32:55Z</time>
      </trkpt>
      <trkpt lat="42.791918031871319" lon="-3.931436967104673">
        <ele>737.47000000000003</ele>
        <time>2025-04-28T10:32:56Z</time>
      </trkpt>
      <trkpt lat="42.791951978579164" lon="-3.931318027898669">
        <ele>736.50999999999999</ele>
        <time>2025-04-28T10:32:57Z</time>
      </trkpt>
      <trkpt lat="42.791977040469646" lon="-3.931200010702014">
        <ele>735.54999999999995</ele>
        <time>2025-04-28T10:32:58Z</time>
      </trkpt>
      <trkpt lat="42.792003024369478" lon="-3.931075958535075">
        <ele>734.58000000000004</ele>
        <time>2025-04-28T10:32:59Z</time>
      </trkpt>
      <trkpt lat="42.792032025754452" lon="-3.930951990187168">
        <ele>734.10000000000002</ele>
        <time>2025-04-28T10:33:00Z</time>
      </trkpt>
      <trkpt lat="42.792089022696018" lon="-3.930837996304035">
        <ele>733.13999999999999</ele>
        <time>2025-04-28T10:33:01Z</time>
      </trkpt>
      <trkpt lat="42.792179966345429" lon="-3.930750992149115">
        <ele>732.17999999999995</ele>
        <time>2025-04-28T10:33:02Z</time>
      </trkpt>
      <trkpt lat="42.792280968278646" lon="-3.930695001035929">
        <ele>731.22000000000003</ele>
        <time>2025-04-28T10:33:03Z</time>
      </trkpt>
      <trkpt lat="42.792380964383483" lon="-3.930639009922743">
        <ele>730.25999999999999</ele>
        <time>2025-04-28T10:33:04Z</time>
      </trkpt>
      <trkpt lat="42.792499987408519" lon="-3.930573966354132">
        <ele>729.77999999999997</ele>
        <time>2025-04-28T10:33:05Z</time>
      </trkpt>
      <trkpt lat="42.792594032362103" lon="-3.930544964969158">
        <ele>728.82000000000005</ele>
        <time>2025-04-28T10:33:06Z</time>
      </trkpt>
      <trkpt lat="42.79370698146522" lon="-3.930188985541463">
        <ele>719.20000000000005</ele>
        <time>2025-04-28T10:33:18Z</time>
      </trkpt>
      <trkpt lat="42.794504016637802" lon="-3.929852033033967">
        <ele>716.79999999999995</ele>
        <time>2025-04-28T10:33:27Z</time>
      </trkpt>
      <trkpt lat="42.7945869974792" lon="-3.9298399630934">
        <ele>716.79999999999995</ele>
        <time>2025-04-28T10:33:28Z</time>
      </trkpt>
      <trkpt lat="42.794670984148979" lon="-3.929827976971865">
        <ele>716.79999999999995</ele>
        <time>2025-04-28T10:33:29Z</time>
      </trkpt>
      <trkpt lat="42.794768968597054" lon="-3.929870976135135">
        <ele>717.27999999999997</ele>
        <time>2025-04-28T10:33:30Z</time>
      </trkpt>
      <trkpt lat="42.794849015772343" lon="-3.929936019703746">
        <ele>717.27999999999997</ele>
        <time>2025-04-28T10:33:31Z</time>
      </trkpt>
      <trkpt lat="42.794931996613741" lon="-3.930002991110086">
        <ele>717.27999999999997</ele>
        <time>2025-04-28T10:33:32Z</time>
      </trkpt>
      <trkpt lat="42.7950169891119" lon="-3.930071974173188">
        <ele>717.27999999999997</ele>
        <time>2025-04-28T10:33:33Z</time>
      </trkpt>
      <trkpt lat="42.79510198161006" lon="-3.930142968893051">
        <ele>717.27999999999997</ele>
        <time>2025-04-28T10:33:34Z</time>
      </trkpt>
      <trkpt lat="42.795190997421741" lon="-3.930219998583198">
        <ele>717.27999999999997</ele>
        <time>2025-04-28T10:33:35Z</time>
      </trkpt>
      <trkpt lat="42.795400964096189" lon="-3.930317983031273">
        <ele>717.27999999999997</ele>
        <time>2025-04-28T10:33:37Z</time>
      </trkpt>
      <trkpt lat="42.795634986832738" lon="-3.930388977751136">
        <ele>716.79999999999995</ele>
        <time>2025-04-28T10:33:39Z</time>
      </trkpt>
      <trkpt lat="42.795740012079477" lon="-3.930358970537782">
        <ele>716.32000000000005</ele>
        <time>2025-04-28T10:33:40Z</time>
      </trkpt>
      <trkpt lat="42.795862974599004" lon="-3.930297028273344">
        <ele>715.84000000000003</ele>
        <time>2025-04-28T10:33:41Z</time>
      </trkpt>
      <trkpt lat="42.796265976503491" lon="-3.930184962227941">
        <ele>715.36000000000001</ele>
        <time>2025-04-28T10:33:44Z</time>
      </trkpt>
      <trkpt lat="42.797456961125135" lon="-3.929543998092413">
        <ele>714.88</ele>
        <time>2025-04-28T10:33:52Z</time>
      </trkpt>
      <trkpt lat="42.798975007608533" lon="-3.928461978211999">
        <ele>715.84000000000003</ele>
        <time>2025-04-28T10:34:02Z</time>
      </trkpt>
      <trkpt lat="42.799282958731055" lon="-3.928286964073777">
        <ele>715.84000000000003</ele>
        <time>2025-04-28T10:34:04Z</time>
      </trkpt>
      <trkpt lat="42.79944003559649" lon="-3.928230972960591">
        <ele>715.84000000000003</ele>
        <time>2025-04-28T10:34:05Z</time>
      </trkpt>
      <trkpt lat="42.800040012225509" lon="-3.928004996851087">
        <ele>716.32000000000005</ele>
        <time>2025-04-28T10:34:09Z</time>
      </trkpt>
      <trkpt lat="42.800202034413815" lon="-3.92792402766645">
        <ele>716.79999999999995</ele>
        <time>2025-04-28T10:34:10Z</time>
      </trkpt>
      <trkpt lat="42.800361039116979" lon="-3.927843980491161">
        <ele>716.32000000000005</ele>
        <time>2025-04-28T10:34:11Z</time>
      </trkpt>
      <trkpt lat="42.800517026335001" lon="-3.927777009084821">
        <ele>716.32000000000005</ele>
        <time>2025-04-28T10:34:12Z</time>
      </trkpt>
      <trkpt lat="42.800672007724643" lon="-3.927742978557944">
        <ele>715.36000000000001</ele>
        <time>2025-04-28T10:34:13Z</time>
      </trkpt>
      <trkpt lat="42.800830006599426" lon="-3.927738033235073">
        <ele>714.39999999999998</ele>
        <time>2025-04-28T10:34:14Z</time>
      </trkpt>
      <trkpt lat="42.800979036837816" lon="-3.92779603600502">
        <ele>713.44000000000005</ele>
        <time>2025-04-28T10:34:15Z</time>
      </trkpt>
      <trkpt lat="42.801134018227458" lon="-3.927855966612697">
        <ele>711.99000000000001</ele>
        <time>2025-04-28T10:34:16Z</time>
      </trkpt>
      <trkpt lat="42.801575995981693" lon="-3.928026035428047">
        <ele>708.14999999999998</ele>
        <time>2025-04-28T10:34:19Z</time>
      </trkpt>
      <trkpt lat="42.801726032048464" lon="-3.928084038197994">
        <ele>706.71000000000004</ele>
        <time>2025-04-28T10:34:20Z</time>
      </trkpt>
      <trkpt lat="42.801854023709893" lon="-3.928060987964273">
        <ele>705.75</ele>
        <time>2025-04-28T10:34:21Z</time>
      </trkpt>
      <trkpt lat="42.801986960694194" lon="-3.928036009892821">
        <ele>704.77999999999997</ele>
        <time>2025-04-28T10:34:22Z</time>
      </trkpt>
      <trkpt lat="42.802128028124571" lon="-3.92792696133256">
        <ele>703.82000000000005</ele>
        <time>2025-04-28T10:34:23Z</time>
      </trkpt>
      <trkpt lat="42.802218971773982" lon="-3.927783966064453">
        <ele>703.34000000000003</ele>
        <time>2025-04-28T10:34:24Z</time>
      </trkpt>
      <trkpt lat="42.802307987585664" lon="-3.927643988281488">
        <ele>702.86000000000001</ele>
        <time>2025-04-28T10:34:25Z</time>
      </trkpt>
      <trkpt lat="42.802393985912204" lon="-3.927507027983666">
        <ele>702.38</ele>
        <time>2025-04-28T10:34:26Z</time>
      </trkpt>
      <trkpt lat="42.802548967301846" lon="-3.927256995812058">
        <ele>701.89999999999998</ele>
        <time>2025-04-28T10:34:28Z</time>
      </trkpt>
      <trkpt lat="42.802605964243412" lon="-3.927163034677506">
        <ele>701.41999999999996</ele>
        <time>2025-04-28T10:34:29Z</time>
      </trkpt>
      <trkpt lat="42.802671007812023" lon="-3.927053986117244">
        <ele>701.41999999999996</ele>
        <time>2025-04-28T10:34:30Z</time>
      </trkpt>
      <trkpt lat="42.802768992260098" lon="-3.927137972787023">
        <ele>700.94000000000005</ele>
        <time>2025-04-28T10:34:31Z</time>
      </trkpt>
      <trkpt lat="42.80281500890851" lon="-3.927177032455802">
        <ele>700.94000000000005</ele>
        <time>2025-04-28T10:34:32Z</time>
      </trkpt>
      <trkpt lat="42.802865970879793" lon="-3.927220031619072">
        <ele>700.46000000000004</ele>
        <time>2025-04-28T10:34:33Z</time>
      </trkpt>
      <trkpt lat="42.802918022498488" lon="-3.927264958620071">
        <ele>699.98000000000002</ele>
        <time>2025-04-28T10:34:34Z</time>
      </trkpt>
      <trkpt lat="42.802973007783294" lon="-3.927311981096864">
        <ele>699.5</ele>
        <time>2025-04-28T10:34:35Z</time>
      </trkpt>
      <trkpt lat="42.80303000472486" lon="-3.927360009402037">
        <ele>699.01999999999998</ele>
        <time>2025-04-28T10:34:36Z</time>
      </trkpt>
      <trkpt lat="42.803084990009665" lon="-3.927407031878829">
        <ele>698.52999999999997</ele>
        <time>2025-04-28T10:34:37Z</time>
      </trkpt>
      <trkpt lat="42.803442981094122" lon="-3.927891002967954">
        <ele>696.13</ele>
        <time>2025-04-28T10:34:45Z</time>
      </trkpt>
      <trkpt lat="42.803445998579264" lon="-3.927917992696166">
        <ele>696.13</ele>
        <time>2025-04-28T10:34:46Z</time>
      </trkpt>
      <trkpt lat="42.803457984700799" lon="-3.928004996851087">
        <ele>695.64999999999998</ele>
        <time>2025-04-28T10:34:47Z</time>
      </trkpt>
      <trkpt lat="42.803472988307476" lon="-3.928110022097826">
        <ele>695.16999999999996</ele>
        <time>2025-04-28T10:34:48Z</time>
      </trkpt>
      <trkpt lat="42.803487991914153" lon="-3.928224015980959">
        <ele>695.16999999999996</ele>
        <time>2025-04-28T10:34:49Z</time>
      </trkpt>
      <trkpt lat="42.803521016612649" lon="-3.928472036495805">
        <ele>694.69000000000005</ele>
        <time>2025-04-28T10:34:51Z</time>
      </trkpt>
      <trkpt lat="42.803800972178578" lon="-3.929586997255683">
        <ele>696.13</ele>
        <time>2025-04-28T10:35:01Z</time>
      </trkpt>
      <trkpt lat="42.803858974948525" lon="-3.929674001410604">
        <ele>696.13</ele>
        <time>2025-04-28T10:35:02Z</time>
      </trkpt>
      <trkpt lat="42.803916977718472" lon="-3.929761005565524">
        <ele>697.09000000000003</ele>
        <time>2025-04-28T10:35:03Z</time>
      </trkpt>
      <trkpt lat="42.803979003801942" lon="-3.929835017770529">
        <ele>697.57000000000005</ele>
        <time>2025-04-28T10:35:04Z</time>
      </trkpt>
      <trkpt lat="42.804054021835327" lon="-3.929877011105418">
        <ele>698.04999999999995</ele>
        <time>2025-04-28T10:35:05Z</time>
      </trkpt>
      <trkpt lat="42.804126022383571" lon="-3.929919004440308">
        <ele>698.52999999999997</ele>
        <time>2025-04-28T10:35:06Z</time>
      </trkpt>
      <trkpt lat="42.804191987961531" lon="-3.929955968633294">
        <ele>699.01999999999998</ele>
        <time>2025-04-28T10:35:07Z</time>
      </trkpt>
      <trkpt lat="42.804264994338155" lon="-3.929992010816932">
        <ele>699.5</ele>
        <time>2025-04-28T10:35:08Z</time>
      </trkpt>
      <trkpt lat="42.804311010986567" lon="-3.929973989725113">
        <ele>699.98000000000002</ele>
        <time>2025-04-28T10:35:09Z</time>
      </trkpt>
      <trkpt lat="42.804391980171204" lon="-3.929943982511759">
        <ele>701.41999999999996</ele>
        <time>2025-04-28T10:35:12Z</time>
      </trkpt>
      <trkpt lat="42.804437996819615" lon="-3.929984970018268">
        <ele>701.41999999999996</ele>
        <time>2025-04-28T10:35:13Z</time>
      </trkpt>
      <trkpt lat="42.804446965456009" lon="-3.93005202524364">
        <ele>701.89999999999998</ele>
        <time>2025-04-28T10:35:14Z</time>
      </trkpt>
      <trkpt lat="42.804450988769531" lon="-3.930137017741799">
        <ele>701.89999999999998</ele>
        <time>2025-04-28T10:35:15Z</time>
      </trkpt>
      <trkpt lat="42.804458029568195" lon="-3.930240031331778">
        <ele>702.38</ele>
        <time>2025-04-28T10:35:16Z</time>
      </trkpt>
      <trkpt lat="42.804527012631297" lon="-3.930553011596203">
        <ele>702.38</ele>
        <time>2025-04-28T10:35:19Z</time>
      </trkpt>
      <trkpt lat="42.804767992347479" lon="-3.93170602619648">
        <ele>703.34000000000003</ele>
        <time>2025-04-28T10:35:27Z</time>
      </trkpt>
      <trkpt lat="42.805072003975511" lon="-3.933389028534293">
        <ele>709.11000000000001</ele>
        <time>2025-04-28T10:35:38Z</time>
      </trkpt>
      <trkpt lat="42.805207036435604" lon="-3.934046002104878">
        <ele>711.02999999999997</ele>
        <time>2025-04-28T10:35:44Z</time>
      </trkpt>
      <trkpt lat="42.80522002838552" lon="-3.934095036238432">
        <ele>711.02999999999997</ele>
        <time>2025-04-28T10:35:45Z</time>
      </trkpt>
      <trkpt lat="42.805231008678675" lon="-3.934138035401702">
        <ele>711.02999999999997</ele>
        <time>2025-04-28T10:35:46Z</time>
      </trkpt>
      <trkpt lat="42.805239977315068" lon="-3.934172987937927">
        <ele>711.02999999999997</ele>
        <time>2025-04-28T10:35:47Z</time>
      </trkpt>
      <trkpt lat="42.805249029770494" lon="-3.934209030121565">
        <ele>711.50999999999999</ele>
        <time>2025-04-28T10:35:48Z</time>
      </trkpt>
      <trkpt lat="42.805256992578506" lon="-3.93424297682941">
        <ele>711.50999999999999</ele>
        <time>2025-04-28T10:35:49Z</time>
      </trkpt>
      <trkpt lat="42.8052659612149" lon="-3.934274995699525">
        <ele>711.50999999999999</ele>
        <time>2025-04-28T10:35:50Z</time>
      </trkpt>
      <trkpt lat="42.805273002013564" lon="-3.934302991256118">
        <ele>711.99000000000001</ele>
        <time>2025-04-28T10:35:51Z</time>
      </trkpt>
      <trkpt lat="42.805279036983848" lon="-3.93432897515595">
        <ele>711.99000000000001</ele>
        <time>2025-04-28T10:35:52Z</time>
      </trkpt>
      <trkpt lat="42.805283982306719" lon="-3.934345990419388">
        <ele>711.99000000000001</ele>
        <time>2025-04-28T10:35:53Z</time>
      </trkpt>
      <trkpt lat="42.805210975930095" lon="-3.934355964884162">
        <ele>712.95000000000005</ele>
        <time>2025-04-28T10:36:00Z</time>
      </trkpt>
      <trkpt lat="42.805169988423586" lon="-3.934258986264467">
        <ele>715.36000000000001</ele>
        <time>2025-04-28T10:36:11Z</time>
      </trkpt>
      <trkpt lat="42.805169988423586" lon="-3.934258986264467">
        <ele>715.36000000000001</ele>
        <time>2025-04-28T10:36:27Z</time>
      </trkpt>
      <trkpt lat="42.80509396456182" lon="-3.934303997084498">
        <ele>711.99000000000001</ele>
        <time>2025-04-28T10:36:48Z</time>
      </trkpt>
      <trkpt lat="42.80509396456182" lon="-3.934303997084498">
        <ele>711.99000000000001</ele>
        <time>2025-04-28T10:37:03Z</time>
      </trkpt>
      <trkpt lat="42.805235031992197" lon="-3.934154966846108">
        <ele>711.50999999999999</ele>
        <time>2025-04-28T10:37:06Z</time>
      </trkpt>
      <trkpt lat="42.805203013122082" lon="-3.93402798101306">
        <ele>712.95000000000005</ele>
        <time>2025-04-28T10:37:07Z</time>
      </trkpt>
      <trkpt lat="42.80522002838552" lon="-3.934095958247781">
        <ele>713.44000000000005</ele>
        <time>2025-04-28T10:37:10Z</time>
      </trkpt>
      <trkpt lat="42.805231008678675" lon="-3.934139963239431">
        <ele>713.91999999999996</ele>
        <time>2025-04-28T10:37:11Z</time>
      </trkpt>
      <trkpt lat="42.805251041427255" lon="-3.934219004586339">
        <ele>713.44000000000005</ele>
        <time>2025-04-28T10:37:12Z</time>
      </trkpt>
      <trkpt lat="42.805275013670325" lon="-3.934312965720892">
        <ele>712.95000000000005</ele>
        <time>2025-04-28T10:37:13Z</time>
      </trkpt>
      <trkpt lat="42.805568967014551" lon="-3.935462040826678">
        <ele>710.54999999999995</ele>
        <time>2025-04-28T10:37:21Z</time>
      </trkpt>
      <trkpt lat="42.805976998060942" lon="-3.937152000144124">
        <ele>710.54999999999995</ele>
        <time>2025-04-28T10:37:32Z</time>
      </trkpt>
      <trkpt lat="42.805997030809522" lon="-3.937278985977173">
        <ele>711.02999999999997</ele>
        <time>2025-04-28T10:37:33Z</time>
      </trkpt>
      <trkpt lat="42.805938022211194" lon="-3.938757972791791">
        <ele>712.47000000000003</ele>
        <time>2025-04-28T10:37:45Z</time>
      </trkpt>
      <trkpt lat="42.805925030261278" lon="-3.938876995816827">
        <ele>712.95000000000005</ele>
        <time>2025-04-28T10:37:46Z</time>
      </trkpt>
      <trkpt lat="42.80586501583457" lon="-3.939231969416142">
        <ele>713.44000000000005</ele>
        <time>2025-04-28T10:37:49Z</time>
      </trkpt>
      <trkpt lat="42.805842971429229" lon="-3.939324002712965">
        <ele>714.39999999999998</ele>
        <time>2025-04-28T10:37:50Z</time>
      </trkpt>
      <trkpt lat="42.80577901750803" lon="-3.93967897631228">
        <ele>717.75999999999999</ele>
        <time>2025-04-28T10:37:54Z</time>
      </trkpt>
      <trkpt lat="42.805772982537746" lon="-3.939882991835475">
        <ele>719.67999999999995</ele>
        <time>2025-04-28T10:37:56Z</time>
      </trkpt>
      <trkpt lat="42.805769965052605" lon="-3.939987011253834">
        <ele>720.15999999999997</ele>
        <time>2025-04-28T10:37:57Z</time>
      </trkpt>
      <trkpt lat="42.805759990587831" lon="-3.940478023141623">
        <ele>722.57000000000005</ele>
        <time>2025-04-28T10:38:02Z</time>
      </trkpt>
      <trkpt lat="42.805759990587831" lon="-3.940695030614734">
        <ele>723.04999999999995</ele>
        <time>2025-04-28T10:38:04Z</time>
      </trkpt>
      <trkpt lat="42.805746998637915" lon="-3.940796032547951">
        <ele>723.52999999999997</ele>
        <time>2025-04-28T10:38:05Z</time>
      </trkpt>
      <trkpt lat="42.805674998089671" lon="-3.941173972561956">
        <ele>724.00999999999999</ele>
        <time>2025-04-28T10:38:09Z</time>
      </trkpt>
      <trkpt lat="42.805634010583162" lon="-3.941269023343921">
        <ele>724.00999999999999</ele>
        <time>2025-04-28T10:38:10Z</time>
      </trkpt>
      <trkpt lat="42.805563015863299" lon="-3.94143900834024">
        <ele>724.00999999999999</ele>
        <time>2025-04-28T10:38:12Z</time>
      </trkpt>
      <trkpt lat="42.805450027808547" lon="-3.941669007763267">
        <ele>722.57000000000005</ele>
        <time>2025-04-28T10:38:15Z</time>
      </trkpt>
      <trkpt lat="42.805300997570157" lon="-3.941923985257745">
        <ele>722.09000000000003</ele>
        <time>2025-04-28T10:38:18Z</time>
      </trkpt>
      <trkpt lat="42.805267972871661" lon="-3.942039990797639">
        <ele>722.09000000000003</ele>
        <time>2025-04-28T10:38:19Z</time>
      </trkpt>
      <trkpt lat="42.805241988971829" lon="-3.942157002165914">
        <ele>721.61000000000001</ele>
        <time>2025-04-28T10:38:20Z</time>
      </trkpt>
      <trkpt lat="42.805216005071998" lon="-3.942280970513821">
        <ele>721.13</ele>
        <time>2025-04-28T10:38:21Z</time>
      </trkpt>
      <trkpt lat="42.805189015343785" lon="-3.942405022680759">
        <ele>720.64999999999998</ele>
        <time>2025-04-28T10:38:22Z</time>
      </trkpt>
      <trkpt lat="42.804973013699055" lon="-3.944050977006555">
        <ele>717.27999999999997</ele>
        <time>2025-04-28T10:38:33Z</time>
      </trkpt>
      <trkpt lat="42.804877962917089" lon="-3.944998970255256">
        <ele>715.36000000000001</ele>
        <time>2025-04-28T10:38:39Z</time>
      </trkpt>
      <trkpt lat="42.804830018430948" lon="-3.945182031020522">
        <ele>714.88</ele>
        <time>2025-04-28T10:38:40Z</time>
      </trkpt>
      <trkpt lat="42.804777966812253" lon="-3.945375988259912">
        <ele>714.39999999999998</ele>
        <time>2025-04-28T10:38:41Z</time>
      </trkpt>
      <trkpt lat="42.804428022354841" lon="-3.947084974497557">
        <ele>711.02999999999997</ele>
        <time>2025-04-28T10:38:48Z</time>
      </trkpt>
      <trkpt lat="42.804423999041319" lon="-3.949076011776924">
        <ele>707.66999999999996</ele>
        <time>2025-04-28T10:38:55Z</time>
      </trkpt>
      <trkpt lat="42.804473033174872" lon="-3.949618991464376">
        <ele>707.19000000000005</ele>
        <time>2025-04-28T10:38:57Z</time>
      </trkpt>
      <trkpt lat="42.804473033174872" lon="-3.949899030849338">
        <ele>707.19000000000005</ele>
        <time>2025-04-28T10:38:58Z</time>
      </trkpt>
      <trkpt lat="42.804454006254673" lon="-3.950185021385551">
        <ele>707.19000000000005</ele>
        <time>2025-04-28T10:38:59Z</time>
      </trkpt>
      <trkpt lat="42.804392985999584" lon="-3.95046497695148">
        <ele>707.19000000000005</ele>
        <time>2025-04-28T10:39:00Z</time>
      </trkpt>
      <trkpt lat="42.804330037906766" lon="-3.950748033821583">
        <ele>707.66999999999996</ele>
        <time>2025-04-28T10:39:01Z</time>
      </trkpt>
      <trkpt lat="42.804028959944844" lon="-3.951871041208506">
        <ele>708.14999999999998</ele>
        <time>2025-04-28T10:39:05Z</time>
      </trkpt>
      <trkpt lat="42.803928963840008" lon="-3.952131969854236">
        <ele>708.63</ele>
        <time>2025-04-28T10:39:06Z</time>
      </trkpt>
      <trkpt lat="42.803807007148862" lon="-3.952386025339365">
        <ele>709.11000000000001</ele>
        <time>2025-04-28T10:39:07Z</time>
      </trkpt>
      <trkpt lat="42.802949035540223" lon="-3.95403097383678">
        <ele>709.11000000000001</ele>
        <time>2025-04-28T10:39:14Z</time>
      </trkpt>
      <trkpt lat="42.802349980920553" lon="-3.955333018675447">
        <ele>709.59000000000003</ele>
        <time>2025-04-28T10:39:20Z</time>
      </trkpt>
      <trkpt lat="42.802104977890849" lon="-3.955754963681102">
        <ele>709.11000000000001</ele>
        <time>2025-04-28T10:39:22Z</time>
      </trkpt>
      <trkpt lat="42.801978997886181" lon="-3.955967025831342">
        <ele>709.11000000000001</ele>
        <time>2025-04-28T10:39:23Z</time>
      </trkpt>
      <trkpt lat="42.801855029538274" lon="-3.956172969192267">
        <ele>709.11000000000001</ele>
        <time>2025-04-28T10:39:24Z</time>
      </trkpt>
      <trkpt lat="42.80176199041307" lon="-3.956415960565209">
        <ele>709.11000000000001</ele>
        <time>2025-04-28T10:39:25Z</time>
      </trkpt>
      <trkpt lat="42.801669035106897" lon="-3.956655012443662">
        <ele>709.11000000000001</ele>
        <time>2025-04-28T10:39:26Z</time>
      </trkpt>
      <trkpt lat="42.80161103233695" lon="-3.956915019080043">
        <ele>709.59000000000003</ele>
        <time>2025-04-28T10:39:27Z</time>
      </trkpt>
      <trkpt lat="42.80156803317368" lon="-3.957186006009579">
        <ele>709.59000000000003</ele>
        <time>2025-04-28T10:39:28Z</time>
      </trkpt>
      <trkpt lat="42.80152402818203" lon="-3.957460010424256">
        <ele>709.59000000000003</ele>
        <time>2025-04-28T10:39:29Z</time>
      </trkpt>
      <trkpt lat="42.801207024604082" lon="-3.959451969712973">
        <ele>709.11000000000001</ele>
        <time>2025-04-28T10:39:37Z</time>
      </trkpt>
      <trkpt lat="42.801170982420444" lon="-3.959677023813129">
        <ele>709.11000000000001</ele>
        <time>2025-04-28T10:39:38Z</time>
      </trkpt>
      <trkpt lat="42.801071992143989" lon="-3.959871986880899">
        <ele>708.63</ele>
        <time>2025-04-28T10:39:39Z</time>
      </trkpt>
      <trkpt lat="42.800963027402759" lon="-3.960074996575713">
        <ele>709.11000000000001</ele>
        <time>2025-04-28T10:39:40Z</time>
      </trkpt>
      <trkpt lat="42.800510991364717" lon="-3.960945960134268">
        <ele>710.54999999999995</ele>
        <time>2025-04-28T10:39:44Z</time>
      </trkpt>
      <trkpt lat="42.800445025786757" lon="-3.961204960942268">
        <ele>711.50999999999999</ele>
        <time>2025-04-28T10:39:45Z</time>
      </trkpt>
      <trkpt lat="42.800157023593783" lon="-3.962240964174271">
        <ele>711.50999999999999</ele>
        <time>2025-04-28T10:39:49Z</time>
      </trkpt>
      <trkpt lat="42.800060966983438" lon="-3.962473981082439">
        <ele>711.50999999999999</ele>
        <time>2025-04-28T10:39:50Z</time>
      </trkpt>
      <trkpt lat="42.799926018342376" lon="-3.962654024362564">
        <ele>711.02999999999997</ele>
        <time>2025-04-28T10:39:51Z</time>
      </trkpt>
      <trkpt lat="42.79976500198245" lon="-3.962819986045361">
        <ele>710.54999999999995</ele>
        <time>2025-04-28T10:39:52Z</time>
      </trkpt>
      <trkpt lat="42.799602979794145" lon="-3.962986031547189">
        <ele>710.54999999999995</ele>
        <time>2025-04-28T10:39:53Z</time>
      </trkpt>
      <trkpt lat="42.798166992142797" lon="-3.964328980073333">
        <ele>708.63</ele>
        <time>2025-04-28T10:40:02Z</time>
      </trkpt>
      <trkpt lat="42.797441035509109" lon="-3.964662998914719">
        <ele>708.63</ele>
        <time>2025-04-28T10:40:08Z</time>
      </trkpt>
      <trkpt lat="42.796459011733532" lon="-3.965043034404516">
        <ele>708.63</ele>
        <time>2025-04-28T10:40:17Z</time>
      </trkpt>
      <trkpt lat="42.796149970963597" lon="-3.965251995250583">
        <ele>710.07000000000005</ele>
        <time>2025-04-28T10:40:20Z</time>
      </trkpt>
      <trkpt lat="42.796003958210349" lon="-3.965452993288636">
        <ele>710.54999999999995</ele>
        <time>2025-04-28T10:40:22Z</time>
      </trkpt>
      <trkpt lat="42.79594000428915" lon="-3.965564975515008">
        <ele>711.02999999999997</ele>
        <time>2025-04-28T10:40:23Z</time>
      </trkpt>
      <trkpt lat="42.795400964096189" lon="-3.967149993404746">
        <ele>717.75999999999999</ele>
        <time>2025-04-28T10:40:34Z</time>
      </trkpt>
      <trkpt lat="42.795118996873498" lon="-3.968604002147913">
        <ele>718.24000000000001</ele>
        <time>2025-04-28T10:40:43Z</time>
      </trkpt>
      <trkpt lat="42.795132994651794" lon="-3.96881396882236">
        <ele>718.24000000000001</ele>
        <time>2025-04-28T10:40:44Z</time>
      </trkpt>
      <trkpt lat="42.795151015743613" lon="-3.969032987952232">
        <ele>718.72000000000003</ele>
        <time>2025-04-28T10:40:45Z</time>
      </trkpt>
      <trkpt lat="42.795190997421741" lon="-3.969264999032021">
        <ele>718.72000000000003</ele>
        <time>2025-04-28T10:40:46Z</time>
      </trkpt>
      <trkpt lat="42.795254029333591" lon="-3.969492986798286">
        <ele>718.72000000000003</ele>
        <time>2025-04-28T10:40:47Z</time>
      </trkpt>
      <trkpt lat="42.79531697742641" lon="-3.969722986221314">
        <ele>718.24000000000001</ele>
        <time>2025-04-28T10:40:48Z</time>
      </trkpt>
      <trkpt lat="42.795429965481162" lon="-3.969930019229651">
        <ele>718.24000000000001</ele>
        <time>2025-04-28T10:40:49Z</time>
      </trkpt>
      <trkpt lat="42.79555200599134" lon="-3.970120036974549">
        <ele>717.75999999999999</ele>
        <time>2025-04-28T10:40:50Z</time>
      </trkpt>
      <trkpt lat="42.79568200930953" lon="-3.970319023355842">
        <ele>717.27999999999997</ele>
        <time>2025-04-28T10:40:51Z</time>
      </trkpt>
      <trkpt lat="42.795846965163946" lon="-3.970454977825284">
        <ele>717.27999999999997</ele>
        <time>2025-04-28T10:40:52Z</time>
      </trkpt>
      <trkpt lat="42.796012004837394" lon="-3.970590010285378">
        <ele>716.79999999999995</ele>
        <time>2025-04-28T10:40:53Z</time>
      </trkpt>
      <trkpt lat="42.796190958470106" lon="-3.970700986683369">
        <ele>716.32000000000005</ele>
        <time>2025-04-28T10:40:54Z</time>
      </trkpt>
      <trkpt lat="42.796382987871766" lon="-3.970787990838289">
        <ele>715.84000000000003</ele>
        <time>2025-04-28T10:40:55Z</time>
      </trkpt>
      <trkpt lat="42.796582980081439" lon="-3.970843981951475">
        <ele>715.36000000000001</ele>
        <time>2025-04-28T10:40:56Z</time>
      </trkpt>
      <trkpt lat="42.798268999904394" lon="-3.971162997186184">
        <ele>712.95000000000005</ele>
        <time>2025-04-28T10:41:04Z</time>
      </trkpt>
      <trkpt lat="42.79995996505022" lon="-3.971312027424574">
        <ele>713.44000000000005</ele>
        <time>2025-04-28T10:41:12Z</time>
      </trkpt>
      <trkpt lat="42.800970990210772" lon="-3.971466002985835">
        <ele>712.95000000000005</ele>
        <time>2025-04-28T10:41:17Z</time>
      </trkpt>
      <trkpt lat="42.801156984642148" lon="-3.971555018797517">
        <ele>712.95000000000005</ele>
        <time>2025-04-28T10:41:18Z</time>
      </trkpt>
      <trkpt lat="42.801335016265512" lon="-3.971650991588831">
        <ele>712.95000000000005</ele>
        <time>2025-04-28T10:41:19Z</time>
      </trkpt>
      <trkpt lat="42.802633959800005" lon="-3.972953036427498">
        <ele>711.50999999999999</ele>
        <time>2025-04-28T10:41:27Z</time>
      </trkpt>
      <trkpt lat="42.803582036867738" lon="-3.973995996639133">
        <ele>711.50999999999999</ele>
        <time>2025-04-28T10:41:33Z</time>
      </trkpt>
      <trkpt lat="42.803708016872406" lon="-3.974219039082527">
        <ele>711.99000000000001</ele>
        <time>2025-04-28T10:41:34Z</time>
      </trkpt>
      <trkpt lat="42.803812036290765" lon="-3.974458007141948">
        <ele>711.99000000000001</ele>
        <time>2025-04-28T10:41:35Z</time>
      </trkpt>
      <trkpt lat="42.803894011303782" lon="-3.974668979644775">
        <ele>712.47000000000003</ele>
        <time>2025-04-28T10:41:36Z</time>
      </trkpt>
      <trkpt lat="42.803943967446685" lon="-3.974971985444427">
        <ele>712.47000000000003</ele>
        <time>2025-04-28T10:41:37Z</time>
      </trkpt>
      <trkpt lat="42.803988978266716" lon="-3.975240038707852">
        <ele>712.95000000000005</ele>
        <time>2025-04-28T10:41:38Z</time>
      </trkpt>
      <trkpt lat="42.804000964388251" lon="-3.975511025637388">
        <ele>712.95000000000005</ele>
        <time>2025-04-28T10:41:39Z</time>
      </trkpt>
      <trkpt lat="42.803999958559871" lon="-3.975790981203318">
        <ele>712.95000000000005</ele>
        <time>2025-04-28T10:41:40Z</time>
      </trkpt>
      <trkpt lat="42.803954025730491" lon="-3.976060040295124">
        <ele>712.95000000000005</ele>
        <time>2025-04-28T10:41:41Z</time>
      </trkpt>
      <trkpt lat="42.80390901491046" lon="-3.976330021396279">
        <ele>712.95000000000005</ele>
        <time>2025-04-28T10:41:42Z</time>
      </trkpt>
      <trkpt lat="42.803784962743521" lon="-3.977138036862016">
        <ele>712.47000000000003</ele>
        <time>2025-04-28T10:41:45Z</time>
      </trkpt>
      <trkpt lat="42.80378001742065" lon="-3.977415980771184">
        <ele>712.47000000000003</ele>
        <time>2025-04-28T10:41:46Z</time>
      </trkpt>
      <trkpt lat="42.803663006052375" lon="-3.979088002815843">
        <ele>712.47000000000003</ele>
        <time>2025-04-28T10:41:52Z</time>
      </trkpt>
      <trkpt lat="42.803597040474415" lon="-3.979352032765746">
        <ele>712.47000000000003</ele>
        <time>2025-04-28T10:41:53Z</time>
      </trkpt>
      <trkpt lat="42.803527973592281" lon="-3.979626959189773">
        <ele>712.95000000000005</ele>
        <time>2025-04-28T10:41:54Z</time>
      </trkpt>
      <trkpt lat="42.803404005244374" lon="-3.979850001633167">
        <ele>712.95000000000005</ele>
        <time>2025-04-28T10:41:55Z</time>
      </trkpt>
      <trkpt lat="42.803279031068087" lon="-3.980075977742672">
        <ele>712.95000000000005</ele>
        <time>2025-04-28T10:41:56Z</time>
      </trkpt>
      <trkpt lat="42.803137041628361" lon="-3.980276975780726">
        <ele>712.95000000000005</ele>
        <time>2025-04-28T10:41:57Z</time>
      </trkpt>
      <trkpt lat="42.802974013611674" lon="-3.980446960777044">
        <ele>712.95000000000005</ele>
        <time>2025-04-28T10:41:58Z</time>
      </trkpt>
      <trkpt lat="42.802807968109846" lon="-3.980617029592395">
        <ele>712.95000000000005</ele>
        <time>2025-04-28T10:41:59Z</time>
      </trkpt>
      <trkpt lat="42.80264200642705" lon="-3.980789026245475">
        <ele>712.47000000000003</ele>
        <time>2025-04-28T10:42:00Z</time>
      </trkpt>
      <trkpt lat="42.801136029884219" lon="-3.982333978638053">
        <ele>711.02999999999997</ele>
        <time>2025-04-28T10:42:09Z</time>
      </trkpt>
      <trkpt lat="42.80025701969862" lon="-3.983050966635346">
        <ele>710.54999999999995</ele>
        <time>2025-04-28T10:42:14Z</time>
      </trkpt>
      <trkpt lat="42.800069013610482" lon="-3.983150962740183">
        <ele>711.02999999999997</ele>
        <time>2025-04-28T10:42:15Z</time>
      </trkpt>
      <trkpt lat="42.798806028440595" lon="-3.983461009338498">
        <ele>711.50999999999999</ele>
        <time>2025-04-28T10:42:22Z</time>
      </trkpt>
      <trkpt lat="42.797787040472031" lon="-3.983676005154848">
        <ele>713.44000000000005</ele>
        <time>2025-04-28T10:42:30Z</time>
      </trkpt>
      <trkpt lat="42.796567976474762" lon="-3.983823023736477">
        <ele>714.88</ele>
        <time>2025-04-28T10:42:40Z</time>
      </trkpt>
      <trkpt lat="42.79561897739768" lon="-3.983825035393238">
        <ele>714.88</ele>
        <time>2025-04-28T10:42:48Z</time>
      </trkpt>
      <trkpt lat="42.795501966029406" lon="-3.983829980716109">
        <ele>714.88</ele>
        <time>2025-04-28T10:42:49Z</time>
      </trkpt>
      <trkpt lat="42.795388977974653" lon="-3.983878009021282">
        <ele>714.39999999999998</ele>
        <time>2025-04-28T10:42:50Z</time>
      </trkpt>
      <trkpt lat="42.795268027111888" lon="-3.983939029276371">
        <ele>714.88</ele>
        <time>2025-04-28T10:42:51Z</time>
      </trkpt>
      <trkpt lat="42.795170964673162" lon="-3.984010023996234">
        <ele>714.39999999999998</ele>
        <time>2025-04-28T10:42:52Z</time>
      </trkpt>
      <trkpt lat="42.794115012511611" lon="-3.984844023361802">
        <ele>717.27999999999997</ele>
        <time>2025-04-28T10:43:02Z</time>
      </trkpt>
      <trkpt lat="42.793181017041206" lon="-3.985842978581786">
        <ele>718.72000000000003</ele>
        <time>2025-04-28T10:43:11Z</time>
      </trkpt>
      <trkpt lat="42.792049963027239" lon="-3.986671026796103">
        <ele>719.67999999999995</ele>
        <time>2025-04-28T10:43:18Z</time>
      </trkpt>
      <trkpt lat="42.790387999266386" lon="-3.987959995865822">
        <ele>720.64999999999998</ele>
        <time>2025-04-28T10:43:27Z</time>
      </trkpt>
      <trkpt lat="42.788929967209697" lon="-3.989291964098811">
        <ele>721.13</ele>
        <time>2025-04-28T10:43:35Z</time>
      </trkpt>
      <trkpt lat="42.788792001083493" lon="-3.989512994885445">
        <ele>721.13</ele>
        <time>2025-04-28T10:43:36Z</time>
      </trkpt>
      <trkpt lat="42.788673983886838" lon="-3.989762021228671">
        <ele>721.61000000000001</ele>
        <time>2025-04-28T10:43:37Z</time>
      </trkpt>
      <trkpt lat="42.787822969257832" lon="-3.992138961330056">
        <ele>720.64999999999998</ele>
        <time>2025-04-28T10:43:46Z</time>
      </trkpt>
      <trkpt lat="42.78777401894331" lon="-3.99242402985692">
        <ele>720.64999999999998</ele>
        <time>2025-04-28T10:43:47Z</time>
      </trkpt>
      <trkpt lat="42.787784999236465" lon="-3.992715971544385">
        <ele>720.15999999999997</ele>
        <time>2025-04-28T10:43:48Z</time>
      </trkpt>
      <trkpt lat="42.787825986742973" lon="-3.993003973737359">
        <ele>719.67999999999995</ele>
        <time>2025-04-28T10:43:49Z</time>
      </trkpt>
      <trkpt lat="42.787869991734624" lon="-3.993286024779081">
        <ele>719.67999999999995</ele>
        <time>2025-04-28T10:43:50Z</time>
      </trkpt>
      <trkpt lat="42.787974011152983" lon="-3.99354200810194">
        <ele>719.20000000000005</ele>
        <time>2025-04-28T10:43:51Z</time>
      </trkpt>
      <trkpt lat="42.788078030571342" lon="-3.993795979768038">
        <ele>719.20000000000005</ele>
        <time>2025-04-28T10:43:52Z</time>
      </trkpt>
      <trkpt lat="42.788223959505558" lon="-3.994006030261517">
        <ele>718.72000000000003</ele>
        <time>2025-04-28T10:43:53Z</time>
      </trkpt>
      <trkpt lat="42.788381036370993" lon="-3.994203004986048">
        <ele>718.72000000000003</ele>
        <time>2025-04-28T10:43:54Z</time>
      </trkpt>
      <trkpt lat="42.788556972518563" lon="-3.994355974718928">
        <ele>718.24000000000001</ele>
        <time>2025-04-28T10:43:55Z</time>
      </trkpt>
      <trkpt lat="42.788746990263462" lon="-3.994482960551977">
        <ele>718.24000000000001</ele>
        <time>2025-04-28T10:43:56Z</time>
      </trkpt>
      <trkpt lat="42.788941031321883" lon="-3.994598966091871">
        <ele>717.75999999999999</ele>
        <time>2025-04-28T10:43:57Z</time>
      </trkpt>
      <trkpt lat="42.790276017040014" lon="-3.995127025991678">
        <ele>717.75999999999999</ele>
        <time>2025-04-28T10:44:04Z</time>
      </trkpt>
      <trkpt lat="42.792302006855607" lon="-3.995274966582656">
        <ele>715.36000000000001</ele>
        <time>2025-04-28T10:44:13Z</time>
      </trkpt>
      <trkpt lat="42.794354986399412" lon="-3.995035998523235">
        <ele>715.36000000000001</ele>
        <time>2025-04-28T10:44:22Z</time>
      </trkpt>
      <trkpt lat="42.795135006308556" lon="-3.995005991309881">
        <ele>715.84000000000003</ele>
        <time>2025-04-28T10:44:26Z</time>
      </trkpt>
      <trkpt lat="42.795311026275158" lon="-3.995031975209713">
        <ele>716.32000000000005</ele>
        <time>2025-04-28T10:44:27Z</time>
      </trkpt>
      <trkpt lat="42.795459972694516" lon="-3.995173964649439">
        <ele>716.32000000000005</ele>
        <time>2025-04-28T10:44:28Z</time>
      </trkpt>
      <trkpt lat="42.7956179715693" lon="-3.995326012372971">
        <ele>715.84000000000003</ele>
        <time>2025-04-28T10:44:29Z</time>
      </trkpt>
      <trkpt lat="42.795773958787322" lon="-3.995474958792329">
        <ele>715.84000000000003</ele>
        <time>2025-04-28T10:44:30Z</time>
      </trkpt>
      <trkpt lat="42.796080987900496" lon="-3.995788022875786">
        <ele>715.84000000000003</ele>
        <time>2025-04-28T10:44:32Z</time>
      </trkpt>
      <trkpt lat="42.796257007867098" lon="-3.995903022587299">
        <ele>716.32000000000005</ele>
        <time>2025-04-28T10:44:33Z</time>
      </trkpt>
      <trkpt lat="42.796437973156571" lon="-3.996021039783955">
        <ele>716.32000000000005</ele>
        <time>2025-04-28T10:44:34Z</time>
      </trkpt>
      <trkpt lat="42.796640982851386" lon="-3.996094968169928">
        <ele>716.32000000000005</ele>
        <time>2025-04-28T10:44:35Z</time>
      </trkpt>
      <trkpt lat="42.796846004202962" lon="-3.996161017566919">
        <ele>716.79999999999995</ele>
        <time>2025-04-28T10:44:36Z</time>
      </trkpt>
      <trkpt lat="42.797058988362551" lon="-3.996191024780273">
        <ele>716.79999999999995</ele>
        <time>2025-04-28T10:44:37Z</time>
      </trkpt>
      <trkpt lat="42.797280019149184" lon="-3.996187001466751">
        <ele>716.79999999999995</ele>
        <time>2025-04-28T10:44:38Z</time>
      </trkpt>
      <trkpt lat="42.797496020793915" lon="-3.996161017566919">
        <ele>716.79999999999995</ele>
        <time>2025-04-28T10:44:39Z</time>
      </trkpt>
      <trkpt lat="42.797706993296742" lon="-3.996136039495468">
        <ele>716.32000000000005</ele>
        <time>2025-04-28T10:44:40Z</time>
      </trkpt>
      <trkpt lat="42.798343012109399" lon="-3.996064038947225">
        <ele>716.32000000000005</ele>
        <time>2025-04-28T10:44:43Z</time>
      </trkpt>
      <trkpt lat="42.798552978783846" lon="-3.996107038110495">
        <ele>715.84000000000003</ele>
        <time>2025-04-28T10:44:44Z</time>
      </trkpt>
      <trkpt lat="42.798763029277325" lon="-3.996150959283114">
        <ele>715.84000000000003</ele>
        <time>2025-04-28T10:44:45Z</time>
      </trkpt>
      <trkpt lat="42.800414012745023" lon="-3.996662003919482">
        <ele>714.39999999999998</ele>
        <time>2025-04-28T10:44:53Z</time>
      </trkpt>
      <trkpt lat="42.801405005156994" lon="-3.99755802936852">
        <ele>711.50999999999999</ele>
        <time>2025-04-28T10:44:59Z</time>
      </trkpt>
      <trkpt lat="42.801943961530924" lon="-3.99822698906064">
        <ele>710.07000000000005</ele>
        <time>2025-04-28T10:45:03Z</time>
      </trkpt>
      <trkpt lat="42.802032977342606" lon="-3.998409966006875">
        <ele>709.59000000000003</ele>
        <time>2025-04-28T10:45:04Z</time>
      </trkpt>
      <trkpt lat="42.802119981497526" lon="-3.998607024550438">
        <ele>709.11000000000001</ele>
        <time>2025-04-28T10:45:05Z</time>
      </trkpt>
      <trkpt lat="42.802161974832416" lon="-3.998820008710027">
        <ele>709.11000000000001</ele>
        <time>2025-04-28T10:45:06Z</time>
      </trkpt>
      <trkpt lat="42.802176978439093" lon="-3.99904296733439">
        <ele>709.11000000000001</ele>
        <time>2025-04-28T10:45:07Z</time>
      </trkpt>
      <trkpt lat="42.802176978439093" lon="-3.999259974807501">
        <ele>709.11000000000001</ele>
        <time>2025-04-28T10:45:08Z</time>
      </trkpt>
      <trkpt lat="42.802100032567978" lon="-3.999468013644218">
        <ele>709.11000000000001</ele>
        <time>2025-04-28T10:45:09Z</time>
      </trkpt>
      <trkpt lat="42.802027026191354" lon="-3.999667000025511">
        <ele>709.11000000000001</ele>
        <time>2025-04-28T10:45:10Z</time>
      </trkpt>
      <trkpt lat="42.801901968196034" lon="-3.999803038313985">
        <ele>709.59000000000003</ele>
        <time>2025-04-28T10:45:11Z</time>
      </trkpt>
      <trkpt lat="42.801770037040114" lon="-3.999946033582091">
        <ele>710.07000000000005</ele>
        <time>2025-04-28T10:45:12Z</time>
      </trkpt>
      <trkpt lat="42.801628969609737" lon="-4.000100009143353">
        <ele>710.54999999999995</ele>
        <time>2025-04-28T10:45:13Z</time>
      </trkpt>
      <trkpt lat="42.801483040675521" lon="-4.000258008018136">
        <ele>711.50999999999999</ele>
        <time>2025-04-28T10:45:14Z</time>
      </trkpt>
      <trkpt lat="42.800907958298922" lon="-4.000810040161014">
        <ele>713.91999999999996</ele>
        <time>2025-04-28T10:45:18Z</time>
      </trkpt>
      <trkpt lat="42.800757000222802" lon="-4.000873994082212">
        <ele>714.88</ele>
        <time>2025-04-28T10:45:19Z</time>
      </trkpt>
      <trkpt lat="42.800591960549355" lon="-4.00093300268054">
        <ele>714.88</ele>
        <time>2025-04-28T10:45:20Z</time>
      </trkpt>
      <trkpt lat="42.798853972926736" lon="-4.001489980146289">
        <ele>713.91999999999996</ele>
        <time>2025-04-28T10:45:30Z</time>
      </trkpt>
      <trkpt lat="42.798695974051952" lon="-4.001610008999705">
        <ele>713.91999999999996</ele>
        <time>2025-04-28T10:45:31Z</time>
      </trkpt>
      <trkpt lat="42.798537975177169" lon="-4.001732971519232">
        <ele>713.44000000000005</ele>
        <time>2025-04-28T10:45:32Z</time>
      </trkpt>
      <trkpt lat="42.79742200858891" lon="-4.002667972818017">
        <ele>712.95000000000005</ele>
        <time>2025-04-28T10:45:39Z</time>
      </trkpt>
      <trkpt lat="42.797290999442339" lon="-4.002848016098142">
        <ele>712.47000000000003</ele>
        <time>2025-04-28T10:45:40Z</time>
      </trkpt>
      <trkpt lat="42.797191003337502" lon="-4.003088995814323">
        <ele>712.47000000000003</ele>
        <time>2025-04-28T10:45:41Z</time>
      </trkpt>
      <trkpt lat="42.797107016667724" lon="-4.003323018550873">
        <ele>712.47000000000003</ele>
        <time>2025-04-28T10:45:42Z</time>
      </trkpt>
      <trkpt lat="42.79703501611948" lon="-4.003568021580577">
        <ele>711.99000000000001</ele>
        <time>2025-04-28T10:45:43Z</time>
      </trkpt>
      <trkpt lat="42.79699201695621" lon="-4.003827022388578">
        <ele>711.99000000000001</ele>
        <time>2025-04-28T10:45:44Z</time>
      </trkpt>
      <trkpt lat="42.796947006136179" lon="-4.004099015146494">
        <ele>711.50999999999999</ele>
        <time>2025-04-28T10:45:45Z</time>
      </trkpt>
      <trkpt lat="42.796435039490461" lon="-4.007812030613422">
        <ele>711.99000000000001</ele>
        <time>2025-04-28T10:45:59Z</time>
      </trkpt>
      <trkpt lat="42.796591026708484" lon="-4.009253969416022">
        <ele>712.47000000000003</ele>
        <time>2025-04-28T10:46:06Z</time>
      </trkpt>
      <trkpt lat="42.796613993123174" lon="-4.009404005482793">
        <ele>712.47000000000003</ele>
        <time>2025-04-28T10:46:07Z</time>
      </trkpt>
      <trkpt lat="42.796681970357895" lon="-4.009786974638701">
        <ele>712.95000000000005</ele>
        <time>2025-04-28T10:46:10Z</time>
      </trkpt>
      <trkpt lat="42.796724969521165" lon="-4.009908009320498">
        <ele>712.95000000000005</ele>
        <time>2025-04-28T10:46:11Z</time>
      </trkpt>
      <trkpt lat="42.796765035018325" lon="-4.01002200320363">
        <ele>712.95000000000005</ele>
        <time>2025-04-28T10:46:12Z</time>
      </trkpt>
      <trkpt lat="42.796805016696453" lon="-4.010121999308467">
        <ele>713.44000000000005</ele>
        <time>2025-04-28T10:46:13Z</time>
      </trkpt>
      <trkpt lat="42.796866036951542" lon="-4.0102359931916">
        <ele>713.44000000000005</ele>
        <time>2025-04-28T10:46:14Z</time>
      </trkpt>
      <trkpt lat="42.797433994710445" lon="-4.011381966993213">
        <ele>715.84000000000003</ele>
        <time>2025-04-28T10:46:24Z</time>
      </trkpt>
      <trkpt lat="42.79759299941361" lon="-4.011597968637943">
        <ele>715.36000000000001</ele>
        <time>2025-04-28T10:46:26Z</time>
      </trkpt>
      <trkpt lat="42.797682015225291" lon="-4.01171799749136">
        <ele>715.36000000000001</ele>
        <time>2025-04-28T10:46:27Z</time>
      </trkpt>
      <trkpt lat="42.797787040472031" lon="-4.01182696223259">
        <ele>715.84000000000003</ele>
        <time>2025-04-28T10:46:28Z</time>
      </trkpt>
      <trkpt lat="42.797911008819938" lon="-4.01191396638751">
        <ele>715.84000000000003</ele>
        <time>2025-04-28T10:46:29Z</time>
      </trkpt>
      <trkpt lat="42.798042017966509" lon="-4.012004993855953">
        <ele>716.32000000000005</ele>
        <time>2025-04-28T10:46:30Z</time>
      </trkpt>
      <trkpt lat="42.798561025410891" lon="-4.012432973831892">
        <ele>717.27999999999997</ele>
        <time>2025-04-28T10:46:34Z</time>
      </trkpt>
      <trkpt lat="42.799556041136384" lon="-4.013341991230846">
        <ele>717.75999999999999</ele>
        <time>2025-04-28T10:46:41Z</time>
      </trkpt>
      <trkpt lat="42.800762029364705" lon="-4.014039030298591">
        <ele>718.72000000000003</ele>
        <time>2025-04-28T10:46:48Z</time>
      </trkpt>
      <trkpt lat="42.800939977169037" lon="-4.014135003089905">
        <ele>718.72000000000003</ele>
        <time>2025-04-28T10:46:49Z</time>
      </trkpt>
      <trkpt lat="42.801131000742316" lon="-4.014147995039821">
        <ele>718.24000000000001</ele>
        <time>2025-04-28T10:46:50Z</time>
      </trkpt>
      <trkpt lat="42.801316995173693" lon="-4.014135003089905">
        <ele>718.24000000000001</ele>
        <time>2025-04-28T10:46:51Z</time>
      </trkpt>
      <trkpt lat="42.801507012918591" lon="-4.014122011139989">
        <ele>718.24000000000001</ele>
        <time>2025-04-28T10:46:52Z</time>
      </trkpt>
      <trkpt lat="42.803065041080117" lon="-4.014055039733648">
        <ele>717.27999999999997</ele>
        <time>2025-04-28T10:47:00Z</time>
      </trkpt>
      <trkpt lat="42.805082984268665" lon="-4.014086974784732">
        <ele>719.20000000000005</ele>
        <time>2025-04-28T10:47:10Z</time>
      </trkpt>
      <trkpt lat="42.806548979133368" lon="-4.014279004186392">
        <ele>720.64999999999998</ele>
        <time>2025-04-28T10:47:18Z</time>
      </trkpt>
      <trkpt lat="42.806695997714996" lon="-4.014371037483215">
        <ele>720.64999999999998</ele>
        <time>2025-04-28T10:47:19Z</time>
      </trkpt>
      <trkpt lat="42.806839998811483" lon="-4.014463992789388">
        <ele>720.64999999999998</ele>
        <time>2025-04-28T10:47:20Z</time>
      </trkpt>
      <trkpt lat="42.806967990472913" lon="-4.014586033299565">
        <ele>721.13</ele>
        <time>2025-04-28T10:47:21Z</time>
      </trkpt>
      <trkpt lat="42.807095982134342" lon="-4.014716958627105">
        <ele>721.13</ele>
        <time>2025-04-28T10:47:22Z</time>
      </trkpt>
      <trkpt lat="42.807211987674236" lon="-4.014884009957314">
        <ele>721.61000000000001</ele>
        <time>2025-04-28T10:47:23Z</time>
      </trkpt>
      <trkpt lat="42.807322964072227" lon="-4.015058018267155">
        <ele>721.61000000000001</ele>
        <time>2025-04-28T10:47:24Z</time>
      </trkpt>
      <trkpt lat="42.807410974055529" lon="-4.01526203379035">
        <ele>721.61000000000001</ele>
        <time>2025-04-28T10:47:25Z</time>
      </trkpt>
      <trkpt lat="42.807468976825476" lon="-4.015491027384996">
        <ele>722.09000000000003</ele>
        <time>2025-04-28T10:47:26Z</time>
      </trkpt>
      <trkpt lat="42.807526979595423" lon="-4.015725972130895">
        <ele>722.09000000000003</ele>
        <time>2025-04-28T10:47:27Z</time>
      </trkpt>
      <trkpt lat="42.80756302177906" lon="-4.015977010130882">
        <ele>722.09000000000003</ele>
        <time>2025-04-28T10:47:28Z</time>
      </trkpt>
      <trkpt lat="42.807892011478543" lon="-4.01842201128602">
        <ele>723.04999999999995</ele>
        <time>2025-04-28T10:47:37Z</time>
      </trkpt>
      <trkpt lat="42.807927969843149" lon="-4.020988969132304">
        <ele>723.04999999999995</ele>
        <time>2025-04-28T10:47:46Z</time>
      </trkpt>
      <trkpt lat="42.807805007323623" lon="-4.024314992129803">
        <ele>727.86000000000001</ele>
        <time>2025-04-28T10:47:59Z</time>
      </trkpt>
      <trkpt lat="42.807205030694604" lon="-4.025751985609531">
        <ele>729.29999999999995</ele>
        <time>2025-04-28T10:48:06Z</time>
      </trkpt>
      <trkpt lat="42.806678982451558" lon="-4.026406025514007">
        <ele>728.34000000000003</ele>
        <time>2025-04-28T10:48:10Z</time>
      </trkpt>
      <trkpt lat="42.805423038080335" lon="-4.027405986562371">
        <ele>726.40999999999997</ele>
        <time>2025-04-28T10:48:18Z</time>
      </trkpt>
      <trkpt lat="42.804456017911434" lon="-4.028714988380671">
        <ele>724.49000000000001</ele>
        <time>2025-04-28T10:48:26Z</time>
      </trkpt>
      <trkpt lat="42.804347975179553" lon="-4.02888597920537">
        <ele>724.49000000000001</ele>
        <time>2025-04-28T10:48:27Z</time>
      </trkpt>
      <trkpt lat="42.804260971024632" lon="-4.029073985293508">
        <ele>724.00999999999999</ele>
        <time>2025-04-28T10:48:28Z</time>
      </trkpt>
      <trkpt lat="42.803476005792618" lon="-4.03109704144299">
        <ele>724.00999999999999</ele>
        <time>2025-04-28T10:48:38Z</time>
      </trkpt>
      <trkpt lat="42.803227985277772" lon="-4.033319000154734">
        <ele>725.45000000000005</ele>
        <time>2025-04-28T10:48:48Z</time>
      </trkpt>
      <trkpt lat="42.803227985277772" lon="-4.033533995971084">
        <ele>725.92999999999995</ele>
        <time>2025-04-28T10:48:49Z</time>
      </trkpt>
      <trkpt lat="42.803263021633029" lon="-4.033734994009137">
        <ele>725.92999999999995</ele>
        <time>2025-04-28T10:48:50Z</time>
      </trkpt>
      <trkpt lat="42.80330803245306" lon="-4.033945966511965">
        <ele>725.92999999999995</ele>
        <time>2025-04-28T10:48:51Z</time>
      </trkpt>
      <trkpt lat="42.80335295945406" lon="-4.034156017005444">
        <ele>725.45000000000005</ele>
        <time>2025-04-28T10:48:52Z</time>
      </trkpt>
      <trkpt lat="42.803414985537529" lon="-4.034356009215117">
        <ele>725.45000000000005</ele>
        <time>2025-04-28T10:48:53Z</time>
      </trkpt>
      <trkpt lat="42.80350299552083" lon="-4.034539991989732">
        <ele>725.45000000000005</ele>
        <time>2025-04-28T10:48:54Z</time>
      </trkpt>
      <trkpt lat="42.803594022989273" lon="-4.034717017784715">
        <ele>724.97000000000003</ele>
        <time>2025-04-28T10:48:55Z</time>
      </trkpt>
      <trkpt lat="42.803709022700787" lon="-4.034873005002737">
        <ele>724.97000000000003</ele>
        <time>2025-04-28T10:48:56Z</time>
      </trkpt>
      <trkpt lat="42.803825028240681" lon="-4.035021029412746">
        <ele>724.49000000000001</ele>
        <time>2025-04-28T10:48:57Z</time>
      </trkpt>
      <trkpt lat="42.803961988538504" lon="-4.035123037174344">
        <ele>724.97000000000003</ele>
        <time>2025-04-28T10:48:58Z</time>
      </trkpt>
      <trkpt lat="42.804095009341836" lon="-4.035223033279181">
        <ele>724.97000000000003</ele>
        <time>2025-04-28T10:48:59Z</time>
      </trkpt>
      <trkpt lat="42.805448016151786" lon="-4.035973967984319">
        <ele>726.40999999999997</ele>
        <time>2025-04-28T10:49:09Z</time>
      </trkpt>
      <trkpt lat="42.806200040504336" lon="-4.036772008985281">
        <ele>726.40999999999997</ele>
        <time>2025-04-28T10:49:16Z</time>
      </trkpt>
      <trkpt lat="42.806265000253916" lon="-4.036926990374923">
        <ele>726.88999999999999</ele>
        <time>2025-04-28T10:49:17Z</time>
      </trkpt>
      <trkpt lat="42.806325014680624" lon="-4.037081971764565">
        <ele>726.88999999999999</ele>
        <time>2025-04-28T10:49:18Z</time>
      </trkpt>
      <trkpt lat="42.806376982480288" lon="-4.037241982296109">
        <ele>727.37</ele>
        <time>2025-04-28T10:49:19Z</time>
      </trkpt>
      <trkpt lat="42.806415036320686" lon="-4.037408027797937">
        <ele>727.37</ele>
        <time>2025-04-28T10:49:20Z</time>
      </trkpt>
      <trkpt lat="42.806453006342053" lon="-4.037574995309115">
        <ele>727.86000000000001</ele>
        <time>2025-04-28T10:49:21Z</time>
      </trkpt>
      <trkpt lat="42.806775961071253" lon="-4.039053982123733">
        <ele>729.29999999999995</ele>
        <time>2025-04-28T10:49:30Z</time>
      </trkpt>
      <trkpt lat="42.806830024346709" lon="-4.039165964350104">
        <ele>728.82000000000005</ele>
        <time>2025-04-28T10:49:31Z</time>
      </trkpt>
      <trkpt lat="42.806919040158391" lon="-4.039299990981817">
        <ele>728.82000000000005</ele>
        <time>2025-04-28T10:49:32Z</time>
      </trkpt>
      <trkpt lat="42.807035967707634" lon="-4.039396969601512">
        <ele>729.29999999999995</ele>
        <time>2025-04-28T10:49:34Z</time>
      </trkpt>
      <trkpt lat="42.807056000456214" lon="-4.039510041475296">
        <ele>729.29999999999995</ele>
        <time>2025-04-28T10:49:35Z</time>
      </trkpt>
      <trkpt lat="42.807063963264227" lon="-4.039621017873287">
        <ele>729.77999999999997</ele>
        <time>2025-04-28T10:49:36Z</time>
      </trkpt>
      <trkpt lat="42.807048037648201" lon="-4.039711961522698">
        <ele>729.77999999999997</ele>
        <time>2025-04-28T10:49:37Z</time>
      </trkpt>
      <trkpt lat="42.80698399990797" lon="-4.039787985384464">
        <ele>729.77999999999997</ele>
        <time>2025-04-28T10:49:38Z</time>
      </trkpt>
      <trkpt lat="42.806907976046205" lon="-4.039823021739721">
        <ele>729.77999999999997</ele>
        <time>2025-04-28T10:49:39Z</time>
      </trkpt>
      <trkpt lat="42.806803034618497" lon="-4.039855962619185">
        <ele>729.77999999999997</ele>
        <time>2025-04-28T10:49:40Z</time>
      </trkpt>
      <trkpt lat="42.806716030463576" lon="-4.039911031723023">
        <ele>729.77999999999997</ele>
        <time>2025-04-28T10:49:41Z</time>
      </trkpt>
      <trkpt lat="42.806622991338372" lon="-4.039970962330699">
        <ele>729.77999999999997</ele>
        <time>2025-04-28T10:49:42Z</time>
      </trkpt>
      <trkpt lat="42.806514026597142" lon="-4.040062995627523">
        <ele>729.77999999999997</ele>
        <time>2025-04-28T10:49:43Z</time>
      </trkpt>
      <trkpt lat="42.806439008563757" lon="-4.040200961753726">
        <ele>729.77999999999997</ele>
        <time>2025-04-28T10:49:44Z</time>
      </trkpt>
      <trkpt lat="42.806371031329036" lon="-4.040364995598793">
        <ele>730.25999999999999</ele>
        <time>2025-04-28T10:49:45Z</time>
      </trkpt>
      <trkpt lat="42.806314034387469" lon="-4.040536992251873">
        <ele>730.25999999999999</ele>
        <time>2025-04-28T10:49:46Z</time>
      </trkpt>
      <trkpt lat="42.806257037445903" lon="-4.040717035531998">
        <ele>730.25999999999999</ele>
        <time>2025-04-28T10:49:47Z</time>
      </trkpt>
      <trkpt lat="42.80567298643291" lon="-4.042706983163953">
        <ele>730.74000000000001</ele>
        <time>2025-04-28T10:49:58Z</time>
      </trkpt>
      <trkpt lat="42.805109973996878" lon="-4.044307004660368">
        <ele>730.25999999999999</ele>
        <time>2025-04-28T10:50:08Z</time>
      </trkpt>
      <trkpt lat="42.804787019267678" lon="-4.044937994331121">
        <ele>729.29999999999995</ele>
        <time>2025-04-28T10:50:13Z</time>
      </trkpt>
      <trkpt lat="42.804743014276028" lon="-4.045056011527777">
        <ele>729.29999999999995</ele>
        <time>2025-04-28T10:50:14Z</time>
      </trkpt>
      <trkpt lat="42.804695991799235" lon="-4.0453000087291">
        <ele>729.77999999999997</ele>
        <time>2025-04-28T10:50:16Z</time>
      </trkpt>
      <trkpt lat="42.804671013727784" lon="-4.04542800039053">
        <ele>729.29999999999995</ele>
        <time>2025-04-28T10:50:17Z</time>
      </trkpt>
      <trkpt lat="42.804647963494062" lon="-4.045549035072327">
        <ele>729.29999999999995</ele>
        <time>2025-04-28T10:50:18Z</time>
      </trkpt>
      <trkpt lat="42.804602030664682" lon="-4.045646013692021">
        <ele>729.77999999999997</ele>
        <time>2025-04-28T10:50:19Z</time>
      </trkpt>
      <trkpt lat="42.804550984874368" lon="-4.045741986483336">
        <ele>729.77999999999997</ele>
        <time>2025-04-28T10:50:20Z</time>
      </trkpt>
      <trkpt lat="42.804499017074704" lon="-4.045839970931411">
        <ele>730.25999999999999</ele>
        <time>2025-04-28T10:50:21Z</time>
      </trkpt>
      <trkpt lat="42.804445959627628" lon="-4.045946002006531">
        <ele>730.74000000000001</ele>
        <time>2025-04-28T10:50:22Z</time>
      </trkpt>
      <trkpt lat="42.804406983777881" lon="-4.046068964526057">
        <ele>731.22000000000003</ele>
        <time>2025-04-28T10:50:23Z</time>
      </trkpt>
      <trkpt lat="42.804368007928133" lon="-4.046192010864615">
        <ele>731.70000000000005</ele>
        <time>2025-04-28T10:50:24Z</time>
      </trkpt>
      <trkpt lat="42.804289972409606" lon="-4.046433996409178">
        <ele>732.65999999999997</ele>
        <time>2025-04-28T10:50:26Z</time>
      </trkpt>
      <trkpt lat="42.804234987124801" lon="-4.046536004170775">
        <ele>733.62</ele>
        <time>2025-04-28T10:50:27Z</time>
      </trkpt>
      <trkpt lat="42.804172039031982" lon="-4.046633988618851">
        <ele>734.10000000000002</ele>
        <time>2025-04-28T10:50:28Z</time>
      </trkpt>
      <trkpt lat="42.804106995463371" lon="-4.046733984723687">
        <ele>734.58000000000004</ele>
        <time>2025-04-28T10:50:29Z</time>
      </trkpt>
      <trkpt lat="42.804037006571889" lon="-4.046832975000143">
        <ele>734.58000000000004</ele>
        <time>2025-04-28T10:50:30Z</time>
      </trkpt>
      <trkpt lat="42.803913960233331" lon="-4.047042019665241">
        <ele>735.54999999999995</ele>
        <time>2025-04-28T10:50:32Z</time>
      </trkpt>
      <trkpt lat="42.803864004090428" lon="-4.047159031033516">
        <ele>736.02999999999997</ele>
        <time>2025-04-28T10:50:33Z</time>
      </trkpt>
      <trkpt lat="42.803828967735171" lon="-4.047294985502958">
        <ele>736.50999999999999</ele>
        <time>2025-04-28T10:50:34Z</time>
      </trkpt>
      <trkpt lat="42.803828967735171" lon="-4.047436974942684">
        <ele>736.99000000000001</ele>
        <time>2025-04-28T10:50:35Z</time>
      </trkpt>
      <trkpt lat="42.803818993270397" lon="-4.047586005181074">
        <ele>737.47000000000003</ele>
        <time>2025-04-28T10:50:36Z</time>
      </trkpt>
      <trkpt lat="42.803798038512468" lon="-4.047737969085574">
        <ele>737.47000000000003</ele>
        <time>2025-04-28T10:50:37Z</time>
      </trkpt>
      <trkpt lat="42.80375998467207" lon="-4.047888005152345">
        <ele>737.95000000000005</ele>
        <time>2025-04-28T10:50:38Z</time>
      </trkpt>
      <trkpt lat="42.803295962512493" lon="-4.049306977540255">
        <ele>739.87</ele>
        <time>2025-04-28T10:50:47Z</time>
      </trkpt>
      <trkpt lat="42.803301997482777" lon="-4.049475034698844">
        <ele>739.87</ele>
        <time>2025-04-28T10:50:48Z</time>
      </trkpt>
      <trkpt lat="42.803311971947551" lon="-4.049646025523543">
        <ele>739.87</ele>
        <time>2025-04-28T10:50:49Z</time>
      </trkpt>
      <trkpt lat="42.803322030231357" lon="-4.049821039661765">
        <ele>739.87</ele>
        <time>2025-04-28T10:50:50Z</time>
      </trkpt>
      <trkpt lat="42.803333010524511" lon="-4.050002004951239">
        <ele>739.87</ele>
        <time>2025-04-28T10:50:51Z</time>
      </trkpt>
      <trkpt lat="42.803507018834352" lon="-4.052090020850301">
        <ele>741.30999999999995</ele>
        <time>2025-04-28T10:51:01Z</time>
      </trkpt>
      <trkpt lat="42.803528979420662" lon="-4.052559994161129">
        <ele>741.78999999999996</ele>
        <time>2025-04-28T10:51:03Z</time>
      </trkpt>
      <trkpt lat="42.803474999964237" lon="-4.052795022726059">
        <ele>741.78999999999996</ele>
        <time>2025-04-28T10:51:04Z</time>
      </trkpt>
      <trkpt lat="42.803399981930852" lon="-4.05301203019917">
        <ele>741.78999999999996</ele>
        <time>2025-04-28T10:51:05Z</time>
      </trkpt>
      <trkpt lat="42.803163025528193" lon="-4.053684007376432">
        <ele>742.27999999999997</ele>
        <time>2025-04-28T10:51:08Z</time>
      </trkpt>
      <trkpt lat="42.803106028586626" lon="-4.053922975435853">
        <ele>742.27999999999997</ele>
        <time>2025-04-28T10:51:09Z</time>
      </trkpt>
      <trkpt lat="42.803068980574608" lon="-4.054167978465557">
        <ele>742.27999999999997</ele>
        <time>2025-04-28T10:51:10Z</time>
      </trkpt>
      <trkpt lat="42.803050959482789" lon="-4.054424967616797">
        <ele>742.27999999999997</ele>
        <time>2025-04-28T10:51:11Z</time>
      </trkpt>
      <trkpt lat="42.803033022210002" lon="-4.054682962596417">
        <ele>741.78999999999996</ele>
        <time>2025-04-28T10:51:12Z</time>
      </trkpt>
      <trkpt lat="42.802892960608006" lon="-4.05627703294158">
        <ele>740.83000000000004</ele>
        <time>2025-04-28T10:51:18Z</time>
      </trkpt>
      <trkpt lat="42.802825989201665" lon="-4.056533016264439">
        <ele>740.83000000000004</ele>
        <time>2025-04-28T10:51:19Z</time>
      </trkpt>
      <trkpt lat="42.802717024460435" lon="-4.056741977110505">
        <ele>740.35000000000002</ele>
        <time>2025-04-28T10:51:20Z</time>
      </trkpt>
      <trkpt lat="42.802571011707187" lon="-4.05692595988512">
        <ele>740.35000000000002</ele>
        <time>2025-04-28T10:51:21Z</time>
      </trkpt>
      <trkpt lat="42.802417958155274" lon="-4.057092005386949">
        <ele>740.35000000000002</ele>
        <time>2025-04-28T10:51:22Z</time>
      </trkpt>
      <trkpt lat="42.802245039492846" lon="-4.057231983169913">
        <ele>740.35000000000002</ele>
        <time>2025-04-28T10:51:23Z</time>
      </trkpt>
      <trkpt lat="42.802072037011385" lon="-4.057371038943529">
        <ele>740.35000000000002</ele>
        <time>2025-04-28T10:51:24Z</time>
      </trkpt>
      <trkpt lat="42.801723014563322" lon="-4.057652000337839">
        <ele>740.35000000000002</ele>
        <time>2025-04-28T10:51:26Z</time>
      </trkpt>
      <trkpt lat="42.801563004031777" lon="-4.057806981727481">
        <ele>740.35000000000002</ele>
        <time>2025-04-28T10:51:27Z</time>
      </trkpt>
      <trkpt lat="42.801440041512251" lon="-4.058006973937154">
        <ele>740.83000000000004</ele>
        <time>2025-04-28T10:51:28Z</time>
      </trkpt>
      <trkpt lat="42.800447959452868" lon="-4.06048801727593">
        <ele>740.83000000000004</ele>
        <time>2025-04-28T10:51:38Z</time>
      </trkpt>
      <trkpt lat="42.799900034442544" lon="-4.062687009572983">
        <ele>741.78999999999996</ele>
        <time>2025-04-28T10:51:46Z</time>
      </trkpt>
      <trkpt lat="42.799455039203167" lon="-4.066435983404517">
        <ele>746.60000000000002</ele>
        <time>2025-04-28T10:51:59Z</time>
      </trkpt>
      <trkpt lat="42.799167037010193" lon="-4.069676008075476">
        <ele>748.03999999999996</ele>
        <time>2025-04-28T10:52:10Z</time>
      </trkpt>
      <trkpt lat="42.798789013177156" lon="-4.072652002796531">
        <ele>751.40999999999997</ele>
        <time>2025-04-28T10:52:20Z</time>
      </trkpt>
      <trkpt lat="42.798421969637275" lon="-4.075069008395076">
        <ele>751.88999999999999</ele>
        <time>2025-04-28T10:52:29Z</time>
      </trkpt>
      <trkpt lat="42.798236981034279" lon="-4.076413968577981">
        <ele>752.85000000000002</ele>
        <time>2025-04-28T10:52:37Z</time>
      </trkpt>
      <trkpt lat="42.798120975494385" lon="-4.078531991690397">
        <ele>754.76999999999998</ele>
        <time>2025-04-28T10:52:49Z</time>
      </trkpt>
      <trkpt lat="42.798051992431283" lon="-4.080951008945704">
        <ele>756.21000000000004</ele>
        <time>2025-04-28T10:52:59Z</time>
      </trkpt>
      <trkpt lat="42.798057021573186" lon="-4.082772983238101">
        <ele>754.28999999999996</ele>
        <time>2025-04-28T10:53:06Z</time>
      </trkpt>
      <trkpt lat="42.798123992979527" lon="-4.084697971120477">
        <ele>753.80999999999995</ele>
        <time>2025-04-28T10:53:13Z</time>
      </trkpt>
      <trkpt lat="42.798060961067677" lon="-4.087788965553045">
        <ele>757.17999999999995</ele>
        <time>2025-04-28T10:53:24Z</time>
      </trkpt>
      <trkpt lat="42.797819981351495" lon="-4.090579971671104">
        <ele>763.89999999999998</ele>
        <time>2025-04-28T10:53:34Z</time>
      </trkpt>
      <trkpt lat="42.797337016090751" lon="-4.093129998072982">
        <ele>770.14999999999998</ele>
        <time>2025-04-28T10:53:43Z</time>
      </trkpt>
      <trkpt lat="42.797327963635325" lon="-4.093411965295672">
        <ele>770.63</ele>
        <time>2025-04-28T10:53:44Z</time>
      </trkpt>
      <trkpt lat="42.797339027747512" lon="-4.093686975538731">
        <ele>771.60000000000002</ele>
        <time>2025-04-28T10:53:45Z</time>
      </trkpt>
      <trkpt lat="42.79735797084868" lon="-4.093952011317015">
        <ele>772.08000000000004</ele>
        <time>2025-04-28T10:53:46Z</time>
      </trkpt>
      <trkpt lat="42.797374986112118" lon="-4.094212017953396">
        <ele>773.03999999999996</ele>
        <time>2025-04-28T10:53:47Z</time>
      </trkpt>
      <trkpt lat="42.797428965568542" lon="-4.094983991235495">
        <ele>774.96000000000004</ele>
        <time>2025-04-28T10:53:50Z</time>
      </trkpt>
      <trkpt lat="42.797456039115787" lon="-4.096127031370997">
        <ele>777.36000000000001</ele>
        <time>2025-04-28T10:53:55Z</time>
      </trkpt>
      <trkpt lat="42.797495014965534" lon="-4.09630699083209">
        <ele>777.84000000000003</ele>
        <time>2025-04-28T10:53:56Z</time>
      </trkpt>
      <trkpt lat="42.797543965280056" lon="-4.096462978050113">
        <ele>778.32000000000005</ele>
        <time>2025-04-28T10:53:57Z</time>
      </trkpt>
      <trkpt lat="42.79761403799057" lon="-4.096588036045432">
        <ele>778.80999999999995</ele>
        <time>2025-04-28T10:53:58Z</time>
      </trkpt>
      <trkpt lat="42.797682015225291" lon="-4.096712004393339">
        <ele>779.28999999999996</ele>
        <time>2025-04-28T10:53:59Z</time>
      </trkpt>
      <trkpt lat="42.797899022698402" lon="-4.097105031833053">
        <ele>781.21000000000004</ele>
        <time>2025-04-28T10:54:02Z</time>
      </trkpt>
      <trkpt lat="42.797971023246646" lon="-4.097235035151243">
        <ele>782.16999999999996</ele>
        <time>2025-04-28T10:54:03Z</time>
      </trkpt>
      <trkpt lat="42.798004969954491" lon="-4.097386999055743">
        <ele>782.64999999999998</ele>
        <time>2025-04-28T10:54:04Z</time>
      </trkpt>
      <trkpt lat="42.798039000481367" lon="-4.097540974617004">
        <ele>783.61000000000001</ele>
        <time>2025-04-28T10:54:05Z</time>
      </trkpt>
      <trkpt lat="42.798057021573186" lon="-4.097697967663407">
        <ele>784.57000000000005</ele>
        <time>2025-04-28T10:54:06Z</time>
      </trkpt>
      <trkpt lat="42.798057021573186" lon="-4.097862001508474">
        <ele>785.52999999999997</ele>
        <time>2025-04-28T10:54:07Z</time>
      </trkpt>
      <trkpt lat="42.798042017966509" lon="-4.09802402369678">
        <ele>786.01999999999998</ele>
        <time>2025-04-28T10:54:08Z</time>
      </trkpt>
      <trkpt lat="42.797841019928455" lon="-4.099855972453952">
        <ele>789.38</ele>
        <time>2025-04-28T10:54:18Z</time>
      </trkpt>
      <trkpt lat="42.797763990238309" lon="-4.100480005145073">
        <ele>789.38</ele>
        <time>2025-04-28T10:54:21Z</time>
      </trkpt>
      <trkpt lat="42.797781005501747" lon="-4.100683014839888">
        <ele>789.38</ele>
        <time>2025-04-28T10:54:22Z</time>
      </trkpt>
      <trkpt lat="42.797814030200243" lon="-4.100880995392799">
        <ele>789.86000000000001</ele>
        <time>2025-04-28T10:54:23Z</time>
      </trkpt>
      <trkpt lat="42.797854011878371" lon="-4.101075958460569">
        <ele>789.86000000000001</ele>
        <time>2025-04-28T10:54:24Z</time>
      </trkpt>
      <trkpt lat="42.797898016870022" lon="-4.101274022832513">
        <ele>790.34000000000003</ele>
        <time>2025-04-28T10:54:25Z</time>
      </trkpt>
      <trkpt lat="42.798160035163164" lon="-4.103043023496866">
        <ele>794.19000000000005</ele>
        <time>2025-04-28T10:54:34Z</time>
      </trkpt>
      <trkpt lat="42.798143019899726" lon="-4.103235974907875">
        <ele>794.66999999999996</ele>
        <time>2025-04-28T10:54:35Z</time>
      </trkpt>
      <trkpt lat="42.798115024343133" lon="-4.103420041501522">
        <ele>795.63</ele>
        <time>2025-04-28T10:54:36Z</time>
      </trkpt>
      <trkpt lat="42.798064984381199" lon="-4.103595977649093">
        <ele>796.11000000000001</ele>
        <time>2025-04-28T10:54:37Z</time>
      </trkpt>
      <trkpt lat="42.797990972176194" lon="-4.103752970695496">
        <ele>797.07000000000005</ele>
        <time>2025-04-28T10:54:38Z</time>
      </trkpt>
      <trkpt lat="42.79791503213346" lon="-4.10391298122704">
        <ele>798.02999999999997</ele>
        <time>2025-04-28T10:54:39Z</time>
      </trkpt>
      <trkpt lat="42.797835990786552" lon="-4.104072991758585">
        <ele>798.99000000000001</ele>
        <time>2025-04-28T10:54:40Z</time>
      </trkpt>
      <trkpt lat="42.797192009165883" lon="-4.105337988585234">
        <ele>806.20000000000005</ele>
        <time>2025-04-28T10:54:48Z</time>
      </trkpt>
      <trkpt lat="42.797136018052697" lon="-4.105519037693739">
        <ele>806.67999999999995</ele>
        <time>2025-04-28T10:54:49Z</time>
      </trkpt>
      <trkpt lat="42.797098970040679" lon="-4.10571500658989">
        <ele>807.63999999999999</ele>
        <time>2025-04-28T10:54:50Z</time>
      </trkpt>
      <trkpt lat="42.797116991132498" lon="-4.105922039598227">
        <ele>808.61000000000001</ele>
        <time>2025-04-28T10:54:51Z</time>
      </trkpt>
      <trkpt lat="42.797169964760542" lon="-4.106108034029603">
        <ele>809.09000000000003</ele>
        <time>2025-04-28T10:54:52Z</time>
      </trkpt>
      <trkpt lat="42.797254035249352" lon="-4.106284976005554">
        <ele>810.04999999999995</ele>
        <time>2025-04-28T10:54:53Z</time>
      </trkpt>
      <trkpt lat="42.79733601026237" lon="-4.106449009850621">
        <ele>810.52999999999997</ele>
        <time>2025-04-28T10:54:54Z</time>
      </trkpt>
      <trkpt lat="42.7974640019238" lon="-4.106577001512051">
        <ele>811.97000000000003</ele>
        <time>2025-04-28T10:54:55Z</time>
      </trkpt>
      <trkpt lat="42.797600040212274" lon="-4.106713039800525">
        <ele>812.92999999999995</ele>
        <time>2025-04-28T10:54:56Z</time>
      </trkpt>
      <trkpt lat="42.797737000510097" lon="-4.106850000098348">
        <ele>813.40999999999997</ele>
        <time>2025-04-28T10:54:57Z</time>
      </trkpt>
      <trkpt lat="42.797862980514765" lon="-4.106997018679977">
        <ele>814.37</ele>
        <time>2025-04-28T10:54:58Z</time>
      </trkpt>
      <trkpt lat="42.797956019639969" lon="-4.107182007282972">
        <ele>815.34000000000003</ele>
        <time>2025-04-28T10:54:59Z</time>
      </trkpt>
      <trkpt lat="42.798049980774522" lon="-4.10737001337111">
        <ele>816.29999999999995</ele>
        <time>2025-04-28T10:55:00Z</time>
      </trkpt>
      <trkpt lat="42.798133967444301" lon="-4.10756497643888">
        <ele>817.74000000000001</ele>
        <time>2025-04-28T10:55:01Z</time>
      </trkpt>
      <trkpt lat="42.798189036548138" lon="-4.107789024710655">
        <ele>818.70000000000005</ele>
        <time>2025-04-28T10:55:02Z</time>
      </trkpt>
      <trkpt lat="42.798244021832943" lon="-4.108017012476921">
        <ele>819.65999999999997</ele>
        <time>2025-04-28T10:55:03Z</time>
      </trkpt>
      <trkpt lat="42.79836799018085" lon="-4.108700975775719">
        <ele>823.02999999999997</ele>
        <time>2025-04-28T10:55:06Z</time>
      </trkpt>
      <trkpt lat="42.798363966867328" lon="-4.108934998512268">
        <ele>823.99000000000001</ele>
        <time>2025-04-28T10:55:07Z</time>
      </trkpt>
      <trkpt lat="42.798338988795877" lon="-4.109162986278534">
        <ele>824.95000000000005</ele>
        <time>2025-04-28T10:55:08Z</time>
      </trkpt>
      <trkpt lat="42.798280986025929" lon="-4.109380999580026">
        <ele>825.42999999999995</ele>
        <time>2025-04-28T10:55:09Z</time>
      </trkpt>
      <trkpt lat="42.798218037933111" lon="-4.109601024538279">
        <ele>825.90999999999997</ele>
        <time>2025-04-28T10:55:10Z</time>
      </trkpt>
      <trkpt lat="42.798155006021261" lon="-4.1098209656775">
        <ele>826.87</ele>
        <time>2025-04-28T10:55:11Z</time>
      </trkpt>
      <trkpt lat="42.798090968281031" lon="-4.110045013949275">
        <ele>827.35000000000002</ele>
        <time>2025-04-28T10:55:12Z</time>
      </trkpt>
      <trkpt lat="42.797604985535145" lon="-4.112201007083058">
        <ele>831.67999999999995</ele>
        <time>2025-04-28T10:55:21Z</time>
      </trkpt>
      <trkpt lat="42.797532984986901" lon="-4.112425977364183">
        <ele>831.67999999999995</ele>
        <time>2025-04-28T10:55:22Z</time>
      </trkpt>
      <trkpt lat="42.797442963346839" lon="-4.112642984837294">
        <ele>832.15999999999997</ele>
        <time>2025-04-28T10:55:23Z</time>
      </trkpt>
      <trkpt lat="42.797312960028648" lon="-4.112821016460657">
        <ele>832.15999999999997</ele>
        <time>2025-04-28T10:55:24Z</time>
      </trkpt>
      <trkpt lat="42.797181028872728" lon="-4.112991001456976">
        <ele>832.63999999999999</ele>
        <time>2025-04-28T10:55:25Z</time>
      </trkpt>
      <trkpt lat="42.797069968655705" lon="-4.113135002553463">
        <ele>833.12</ele>
        <time>2025-04-28T10:55:26Z</time>
      </trkpt>
      <trkpt lat="42.796966033056378" lon="-4.113360978662968">
        <ele>833.12</ele>
        <time>2025-04-28T10:55:27Z</time>
      </trkpt>
      <trkpt lat="42.796919010579586" lon="-4.113582009449601">
        <ele>833.12</ele>
        <time>2025-04-28T10:55:28Z</time>
      </trkpt>
      <trkpt lat="42.796889003366232" lon="-4.11381502635777">
        <ele>833.12</ele>
        <time>2025-04-28T10:55:29Z</time>
      </trkpt>
      <trkpt lat="42.79690501280129" lon="-4.114049971103668">
        <ele>832.63999999999999</ele>
        <time>2025-04-28T10:55:30Z</time>
      </trkpt>
      <trkpt lat="42.796952035278082" lon="-4.114280976355076">
        <ele>832.63999999999999</ele>
        <time>2025-04-28T10:55:31Z</time>
      </trkpt>
      <trkpt lat="42.796988999471068" lon="-4.114516004920006">
        <ele>832.63999999999999</ele>
        <time>2025-04-28T10:55:32Z</time>
      </trkpt>
      <trkpt lat="42.797004003077745" lon="-4.11476100794971">
        <ele>832.63999999999999</ele>
        <time>2025-04-28T10:55:33Z</time>
      </trkpt>
      <trkpt lat="42.796953963115811" lon="-4.115008022636175">
        <ele>832.63999999999999</ele>
        <time>2025-04-28T10:55:34Z</time>
      </trkpt>
      <trkpt lat="42.796886991709471" lon="-4.115250008180738">
        <ele>833.12</ele>
        <time>2025-04-28T10:55:35Z</time>
      </trkpt>
      <trkpt lat="42.796806022524834" lon="-4.11549299955368">
        <ele>833.12</ele>
        <time>2025-04-28T10:55:36Z</time>
      </trkpt>
      <trkpt lat="42.79649798758328" lon="-4.116493966430426">
        <ele>834.55999999999995</ele>
        <time>2025-04-28T10:55:40Z</time>
      </trkpt>
      <trkpt lat="42.796452976763248" lon="-4.11675900220871">
        <ele>834.55999999999995</ele>
        <time>2025-04-28T10:55:41Z</time>
      </trkpt>
      <trkpt lat="42.796410983428359" lon="-4.117025965824723">
        <ele>834.55999999999995</ele>
        <time>2025-04-28T10:55:42Z</time>
      </trkpt>
      <trkpt lat="42.796147037297487" lon="-4.120297003537417">
        <ele>842.73000000000002</ele>
        <time>2025-04-28T10:55:54Z</time>
      </trkpt>
      <trkpt lat="42.796247033402324" lon="-4.122268008068204">
        <ele>842.73000000000002</ele>
        <time>2025-04-28T10:56:02Z</time>
      </trkpt>
      <trkpt lat="42.796276034787297" lon="-4.122898997738957">
        <ele>840.33000000000004</ele>
        <time>2025-04-28T10:56:05Z</time>
      </trkpt>
      <trkpt lat="42.796244015917182" lon="-4.1231419891119">
        <ele>839.37</ele>
        <time>2025-04-28T10:56:06Z</time>
      </trkpt>
      <trkpt lat="42.796216020360589" lon="-4.123362014070153">
        <ele>838.40999999999997</ele>
        <time>2025-04-28T10:56:07Z</time>
      </trkpt>
      <trkpt lat="42.796161035075784" lon="-4.12354901432991">
        <ele>837.92999999999995</ele>
        <time>2025-04-28T10:56:08Z</time>
      </trkpt>
      <trkpt lat="42.796103032305837" lon="-4.123729979619384">
        <ele>837.45000000000005</ele>
        <time>2025-04-28T10:56:09Z</time>
      </trkpt>
      <trkpt lat="42.795978980138898" lon="-4.124233983457089">
        <ele>835.51999999999998</ele>
        <time>2025-04-28T10:56:12Z</time>
      </trkpt>
      <trkpt lat="42.795955007895827" lon="-4.124399023130536">
        <ele>835.03999999999996</ele>
        <time>2025-04-28T10:56:13Z</time>
      </trkpt>
      <trkpt lat="42.79593899846077" lon="-4.126022011041641">
        <ele>837.92999999999995</ele>
        <time>2025-04-28T10:56:23Z</time>
      </trkpt>
      <trkpt lat="42.795900022611022" lon="-4.126173974946141">
        <ele>837.92999999999995</ele>
        <time>2025-04-28T10:56:24Z</time>
      </trkpt>
      <trkpt lat="42.795840008184314" lon="-4.126312024891377">
        <ele>837.92999999999995</ele>
        <time>2025-04-28T10:56:25Z</time>
      </trkpt>
      <trkpt lat="42.795760966837406" lon="-4.126436999067664">
        <ele>837.92999999999995</ele>
        <time>2025-04-28T10:56:26Z</time>
      </trkpt>
      <trkpt lat="42.79568100348115" lon="-4.126563984900713">
        <ele>837.92999999999995</ele>
        <time>2025-04-28T10:56:27Z</time>
      </trkpt>
      <trkpt lat="42.795611014589667" lon="-4.126674961298704">
        <ele>837.92999999999995</ele>
        <time>2025-04-28T10:56:28Z</time>
      </trkpt>
      <trkpt lat="42.795562986284494" lon="-4.126866990700364">
        <ele>837.45000000000005</ele>
        <time>2025-04-28T10:56:29Z</time>
      </trkpt>
      <trkpt lat="42.795521998777986" lon="-4.127030018717051">
        <ele>836.96000000000004</ele>
        <time>2025-04-28T10:56:30Z</time>
      </trkpt>
      <trkpt lat="42.795516969636083" lon="-4.127209978178144">
        <ele>836.48000000000002</ele>
        <time>2025-04-28T10:56:31Z</time>
      </trkpt>
      <trkpt lat="42.795540019869804" lon="-4.127392033115029">
        <ele>836</ele>
        <time>2025-04-28T10:56:32Z</time>
      </trkpt>
      <trkpt lat="42.795562986284494" lon="-4.127580961212516">
        <ele>835.51999999999998</ele>
        <time>2025-04-28T10:56:33Z</time>
      </trkpt>
      <trkpt lat="42.795609002932906" lon="-4.127983041107655">
        <ele>834.08000000000004</ele>
        <time>2025-04-28T10:56:35Z</time>
      </trkpt>
      <trkpt lat="42.795588970184326" lon="-4.128184039145708">
        <ele>833.12</ele>
        <time>2025-04-28T10:56:36Z</time>
      </trkpt>
      <trkpt lat="42.795568015426397" lon="-4.128391994163394">
        <ele>832.63999999999999</ele>
        <time>2025-04-28T10:56:37Z</time>
      </trkpt>
      <trkpt lat="42.795508000999689" lon="-4.128601038828492">
        <ele>831.67999999999995</ele>
        <time>2025-04-28T10:56:38Z</time>
      </trkpt>
      <trkpt lat="42.795448992401361" lon="-4.128806982189417">
        <ele>830.72000000000003</ele>
        <time>2025-04-28T10:56:39Z</time>
      </trkpt>
      <trkpt lat="42.795356959104538" lon="-4.128992976620793">
        <ele>830.72000000000003</ele>
        <time>2025-04-28T10:56:40Z</time>
      </trkpt>
      <trkpt lat="42.795256962999701" lon="-4.129174025729299">
        <ele>830.24000000000001</ele>
        <time>2025-04-28T10:56:41Z</time>
      </trkpt>
      <trkpt lat="42.795155961066484" lon="-4.129358008503914">
        <ele>830.24000000000001</ele>
        <time>2025-04-28T10:56:42Z</time>
      </trkpt>
      <trkpt lat="42.794430004432797" lon="-4.13123999722302">
        <ele>833.12</ele>
        <time>2025-04-28T10:56:51Z</time>
      </trkpt>
      <trkpt lat="42.79426496475935" lon="-4.132974967360497">
        <ele>836.48000000000002</ele>
        <time>2025-04-28T10:56:58Z</time>
      </trkpt>
      <trkpt lat="42.794485995545983" lon="-4.135776031762362">
        <ele>838.88999999999999</ele>
        <time>2025-04-28T10:57:09Z</time>
      </trkpt>
      <trkpt lat="42.79469302855432" lon="-4.13674003444612">
        <ele>842.25</ele>
        <time>2025-04-28T10:57:13Z</time>
      </trkpt>
      <trkpt lat="42.794708032160997" lon="-4.136982019990683">
        <ele>843.69000000000005</ele>
        <time>2025-04-28T10:57:14Z</time>
      </trkpt>
      <trkpt lat="42.794722029939294" lon="-4.137221993878484">
        <ele>844.65999999999997</ele>
        <time>2025-04-28T10:57:15Z</time>
      </trkpt>
      <trkpt lat="42.794723035767674" lon="-4.137462973594666">
        <ele>845.62</ele>
        <time>2025-04-28T10:57:16Z</time>
      </trkpt>
      <trkpt lat="42.794700991362333" lon="-4.137687021866441">
        <ele>846.58000000000004</ele>
        <time>2025-04-28T10:57:17Z</time>
      </trkpt>
      <trkpt lat="42.794680036604404" lon="-4.137896988540888">
        <ele>847.53999999999996</ele>
        <time>2025-04-28T10:57:18Z</time>
      </trkpt>
      <trkpt lat="42.794393040239811" lon="-4.139630030840635">
        <ele>852.83000000000004</ele>
        <time>2025-04-28T10:57:28Z</time>
      </trkpt>
      <trkpt lat="42.794358003884554" lon="-4.139775959774852">
        <ele>853.30999999999995</ele>
        <time>2025-04-28T10:57:29Z</time>
      </trkpt>
      <trkpt lat="42.794312993064523" lon="-4.139914009720087">
        <ele>853.78999999999996</ele>
        <time>2025-04-28T10:57:30Z</time>
      </trkpt>
      <trkpt lat="42.794261025264859" lon="-4.140051975846291">
        <ele>854.26999999999998</ele>
        <time>2025-04-28T10:57:31Z</time>
      </trkpt>
      <trkpt lat="42.794099003076553" lon="-4.140483979135752">
        <ele>855.23000000000002</ele>
        <time>2025-04-28T10:57:34Z</time>
      </trkpt>
      <trkpt lat="42.794076036661863" lon="-4.140652036294341">
        <ele>855.23000000000002</ele>
        <time>2025-04-28T10:57:35Z</time>
      </trkpt>
      <trkpt lat="42.794062038883567" lon="-4.140821015462279">
        <ele>855.23000000000002</ele>
        <time>2025-04-28T10:57:36Z</time>
      </trkpt>
      <trkpt lat="42.79404804110527" lon="-4.140986977145076">
        <ele>854.75</ele>
        <time>2025-04-28T10:57:37Z</time>
      </trkpt>
      <trkpt lat="42.794052986428142" lon="-4.141156040132046">
        <ele>854.75</ele>
        <time>2025-04-28T10:57:38Z</time>
      </trkpt>
      <trkpt lat="42.794064972549677" lon="-4.141327030956745">
        <ele>854.26999999999998</ele>
        <time>2025-04-28T10:57:39Z</time>
      </trkpt>
      <trkpt lat="42.794076958671212" lon="-4.141501039266586">
        <ele>854.26999999999998</ele>
        <time>2025-04-28T10:57:40Z</time>
      </trkpt>
      <trkpt lat="42.794079976156354" lon="-4.141680998727679">
        <ele>854.26999999999998</ele>
        <time>2025-04-28T10:57:41Z</time>
      </trkpt>
      <trkpt lat="42.794033037498593" lon="-4.141849977895618">
        <ele>853.78999999999996</ele>
        <time>2025-04-28T10:57:42Z</time>
      </trkpt>
      <trkpt lat="42.79398500919342" lon="-4.142021974548698">
        <ele>853.30999999999995</ele>
        <time>2025-04-28T10:57:43Z</time>
      </trkpt>
      <trkpt lat="42.793934969231486" lon="-4.142195982858539">
        <ele>853.30999999999995</ele>
        <time>2025-04-28T10:57:44Z</time>
      </trkpt>
      <trkpt lat="42.793887024745345" lon="-4.142365967854857">
        <ele>853.30999999999995</ele>
        <time>2025-04-28T10:57:45Z</time>
      </trkpt>
      <trkpt lat="42.793854000046849" lon="-4.142533019185066">
        <ele>853.30999999999995</ele>
        <time>2025-04-28T10:57:46Z</time>
      </trkpt>
      <trkpt lat="42.793866991996765" lon="-4.142712978646159">
        <ele>853.30999999999995</ele>
        <time>2025-04-28T10:57:47Z</time>
      </trkpt>
      <trkpt lat="42.79391803778708" lon="-4.142881035804749">
        <ele>852.83000000000004</ele>
        <time>2025-04-28T10:57:48Z</time>
      </trkpt>
      <trkpt lat="42.794002024456859" lon="-4.143046997487545">
        <ele>852.83000000000004</ele>
        <time>2025-04-28T10:57:49Z</time>
      </trkpt>
      <trkpt lat="42.794094979763031" lon="-4.143179012462497">
        <ele>852.35000000000002</ele>
        <time>2025-04-28T10:57:50Z</time>
      </trkpt>
      <trkpt lat="42.794287009164691" lon="-4.143500961363316">
        <ele>851.87</ele>
        <time>2025-04-28T10:57:52Z</time>
      </trkpt>
      <trkpt lat="42.79437099583447" lon="-4.143683016300201">
        <ele>851.38</ele>
        <time>2025-04-28T10:57:53Z</time>
      </trkpt>
      <trkpt lat="42.794454982504249" lon="-4.143865993246436">
        <ele>851.38</ele>
        <time>2025-04-28T10:57:54Z</time>
      </trkpt>
      <trkpt lat="42.794504016637802" lon="-4.144079983234406">
        <ele>851.38</ele>
        <time>2025-04-28T10:57:55Z</time>
      </trkpt>
      <trkpt lat="42.794539975002408" lon="-4.144295984879136">
        <ele>851.38</ele>
        <time>2025-04-28T10:57:56Z</time>
      </trkpt>
      <trkpt lat="42.794576017186046" lon="-4.144504023715854">
        <ele>851.38</ele>
        <time>2025-04-28T10:57:57Z</time>
      </trkpt>
      <trkpt lat="42.794776009395719" lon="-4.14552703499794">
        <ele>850.41999999999996</ele>
        <time>2025-04-28T10:58:02Z</time>
      </trkpt>
      <trkpt lat="42.794850021600723" lon="-4.145724009722471">
        <ele>849.94000000000005</ele>
        <time>2025-04-28T10:58:03Z</time>
      </trkpt>
      <trkpt lat="42.794935014098883" lon="-4.145890977233648">
        <ele>849.94000000000005</ele>
        <time>2025-04-28T10:58:04Z</time>
      </trkpt>
      <trkpt lat="42.795010032132268" lon="-4.146030033007264">
        <ele>850.41999999999996</ele>
        <time>2025-04-28T10:58:05Z</time>
      </trkpt>
      <trkpt lat="42.795120002701879" lon="-4.146130029112101">
        <ele>850.41999999999996</ele>
        <time>2025-04-28T10:58:06Z</time>
      </trkpt>
      <trkpt lat="42.795216981321573" lon="-4.146218039095402">
        <ele>850.89999999999998</ele>
        <time>2025-04-28T10:58:07Z</time>
      </trkpt>
      <trkpt lat="42.795319994911551" lon="-4.146276041865349">
        <ele>850.89999999999998</ele>
        <time>2025-04-28T10:58:08Z</time>
      </trkpt>
      <trkpt lat="42.795429965481162" lon="-4.146316023543477">
        <ele>851.38</ele>
        <time>2025-04-28T10:58:09Z</time>
      </trkpt>
      <trkpt lat="42.795548988506198" lon="-4.146339995786548">
        <ele>851.87</ele>
        <time>2025-04-28T10:58:10Z</time>
      </trkpt>
      <trkpt lat="42.795669017359614" lon="-4.146362962201238">
        <ele>852.35000000000002</ele>
        <time>2025-04-28T10:58:11Z</time>
      </trkpt>
      <trkpt lat="42.795826010406017" lon="-4.146394981071353">
        <ele>852.83000000000004</ele>
        <time>2025-04-28T10:58:12Z</time>
      </trkpt>
      <trkpt lat="42.795911002904177" lon="-4.146388024091721">
        <ele>853.30999999999995</ele>
        <time>2025-04-28T10:58:13Z</time>
      </trkpt>
      <trkpt lat="42.796333031728864" lon="-4.146352987736464">
        <ele>855.71000000000004</ele>
        <time>2025-04-28T10:58:17Z</time>
      </trkpt>
      <trkpt lat="42.796414000913501" lon="-4.146415013819933">
        <ele>856.19000000000005</ele>
        <time>2025-04-28T10:58:18Z</time>
      </trkpt>
      <trkpt lat="42.796492036432028" lon="-4.146481985226274">
        <ele>856.66999999999996</ele>
        <time>2025-04-28T10:58:19Z</time>
      </trkpt>
      <trkpt lat="42.796576023101807" lon="-4.146553985774517">
        <ele>857.14999999999998</ele>
        <time>2025-04-28T10:58:20Z</time>
      </trkpt>
      <trkpt lat="42.796654980629683" lon="-4.146635038778186">
        <ele>857.63</ele>
        <time>2025-04-28T10:58:21Z</time>
      </trkpt>
      <trkpt lat="42.796717006713152" lon="-4.146750038489699">
        <ele>858.59000000000003</ele>
        <time>2025-04-28T10:58:22Z</time>
      </trkpt>
      <trkpt lat="42.796780960634351" lon="-4.146865960210562">
        <ele>859.55999999999995</ele>
        <time>2025-04-28T10:58:23Z</time>
      </trkpt>
      <trkpt lat="42.796847010031343" lon="-4.146985989063978">
        <ele>860.03999999999996</ele>
        <time>2025-04-28T10:58:24Z</time>
      </trkpt>
      <trkpt lat="42.797568021342158" lon="-4.148065997287631">
        <ele>866.28999999999996</ele>
        <time>2025-04-28T10:58:33Z</time>
      </trkpt>
      <trkpt lat="42.797629963606596" lon="-4.148225001990795">
        <ele>866.76999999999998</ele>
        <time>2025-04-28T10:58:34Z</time>
      </trkpt>
      <trkpt lat="42.797687966376543" lon="-4.148399010300636">
        <ele>867.25</ele>
        <time>2025-04-28T10:58:35Z</time>
      </trkpt>
      <trkpt lat="42.797892987728119" lon="-4.148949030786753">
        <ele>867.25</ele>
        <time>2025-04-28T10:58:38Z</time>
      </trkpt>
      <trkpt lat="42.797990972176194" lon="-4.149118009954691">
        <ele>866.76999999999998</ele>
        <time>2025-04-28T10:58:39Z</time>
      </trkpt>
      <trkpt lat="42.798101026564837" lon="-4.14928900077939">
        <ele>866.76999999999998</ele>
        <time>2025-04-28T10:58:40Z</time>
      </trkpt>
      <trkpt lat="42.798237986862659" lon="-4.149399977177382">
        <ele>867.25</ele>
        <time>2025-04-28T10:58:41Z</time>
      </trkpt>
      <trkpt lat="42.798376958817244" lon="-4.149513971060515">
        <ele>867.25</ele>
        <time>2025-04-28T10:58:42Z</time>
      </trkpt>
      <trkpt lat="42.798519032076001" lon="-4.149628970772028">
        <ele>867.73000000000002</ele>
        <time>2025-04-28T10:58:43Z</time>
      </trkpt>
      <trkpt lat="42.798936031758785" lon="-4.149998025968671">
        <ele>869.16999999999996</ele>
        <time>2025-04-28T10:58:46Z</time>
      </trkpt>
      <trkpt lat="42.799052037298679" lon="-4.150167005136609">
        <ele>869.16999999999996</ele>
        <time>2025-04-28T10:58:47Z</time>
      </trkpt>
      <trkpt lat="42.799170976504683" lon="-4.150342019274831">
        <ele>869.64999999999998</ele>
        <time>2025-04-28T10:58:48Z</time>
      </trkpt>
      <trkpt lat="42.799280025064945" lon="-4.150544023141265">
        <ele>869.64999999999998</ele>
        <time>2025-04-28T10:58:49Z</time>
      </trkpt>
      <trkpt lat="42.799351019784808" lon="-4.150779973715544">
        <ele>869.16999999999996</ele>
        <time>2025-04-28T10:58:50Z</time>
      </trkpt>
      <trkpt lat="42.799424026161432" lon="-4.151021037250757">
        <ele>868.69000000000005</ele>
        <time>2025-04-28T10:58:51Z</time>
      </trkpt>
      <trkpt lat="42.799486974254251" lon="-4.151272997260094">
        <ele>868.21000000000004</ele>
        <time>2025-04-28T10:58:52Z</time>
      </trkpt>
      <trkpt lat="42.799671040847898" lon="-4.152330961078405">
        <ele>866.28999999999996</ele>
        <time>2025-04-28T10:58:56Z</time>
      </trkpt>
      <trkpt lat="42.799675986170769" lon="-4.152611000463367">
        <ele>866.28999999999996</ele>
        <time>2025-04-28T10:58:57Z</time>
      </trkpt>
      <trkpt lat="42.799681015312672" lon="-4.152883999049664">
        <ele>865.79999999999995</ele>
        <time>2025-04-28T10:58:58Z</time>
      </trkpt>
      <trkpt lat="42.79965796507895" lon="-4.154489971697331">
        <ele>865.32000000000005</ele>
        <time>2025-04-28T10:59:05Z</time>
      </trkpt>
      <trkpt lat="42.799701970070601" lon="-4.154654005542398">
        <ele>865.32000000000005</ele>
        <time>2025-04-28T10:59:06Z</time>
      </trkpt>
      <trkpt lat="42.799758967012167" lon="-4.154804041609168">
        <ele>865.79999999999995</ele>
        <time>2025-04-28T10:59:07Z</time>
      </trkpt>
      <trkpt lat="42.799845971167088" lon="-4.154928009957075">
        <ele>865.79999999999995</ele>
        <time>2025-04-28T10:59:08Z</time>
      </trkpt>
      <trkpt lat="42.799952002242208" lon="-4.155007973313332">
        <ele>866.28999999999996</ele>
        <time>2025-04-28T10:59:09Z</time>
      </trkpt>
      <trkpt lat="42.800074964761734" lon="-4.155061030760407">
        <ele>866.76999999999998</ele>
        <time>2025-04-28T10:59:10Z</time>
      </trkpt>
      <trkpt lat="42.800200022757053" lon="-4.155106963589788">
        <ele>867.25</ele>
        <time>2025-04-28T10:59:11Z</time>
      </trkpt>
      <trkpt lat="42.800332037732005" lon="-4.155106963589788">
        <ele>868.69000000000005</ele>
        <time>2025-04-28T10:59:12Z</time>
      </trkpt>
      <trkpt lat="42.800468998029828" lon="-4.155106963589788">
        <ele>869.64999999999998</ele>
        <time>2025-04-28T10:59:13Z</time>
      </trkpt>
      <trkpt lat="42.800608975812793" lon="-4.155106963589788">
        <ele>870.13</ele>
        <time>2025-04-28T10:59:14Z</time>
      </trkpt>
      <trkpt lat="42.800750965252519" lon="-4.155172007158399">
        <ele>871.09000000000003</ele>
        <time>2025-04-28T10:59:15Z</time>
      </trkpt>
      <trkpt lat="42.800893038511276" lon="-4.155238978564739">
        <ele>872.04999999999995</ele>
        <time>2025-04-28T10:59:16Z</time>
      </trkpt>
      <trkpt lat="42.801629975438118" lon="-4.155865022912622">
        <ele>877.34000000000003</ele>
        <time>2025-04-28T10:59:23Z</time>
      </trkpt>
      <trkpt lat="42.80195502564311" lon="-4.156175991520286">
        <ele>878.29999999999995</ele>
        <time>2025-04-28T10:59:27Z</time>
      </trkpt>
      <trkpt lat="42.80210598371923" lon="-4.156373972073197">
        <ele>878.29999999999995</ele>
        <time>2025-04-28T10:59:29Z</time>
      </trkpt>
      <trkpt lat="42.80216901563108" lon="-4.156494000926614">
        <ele>878.29999999999995</ele>
        <time>2025-04-28T10:59:30Z</time>
      </trkpt>
      <trkpt lat="42.802231963723898" lon="-4.15661302395165">
        <ele>878.29999999999995</ele>
        <time>2025-04-28T10:59:31Z</time>
      </trkpt>
      <trkpt lat="42.802265994250774" lon="-4.156763982027769">
        <ele>877.82000000000005</ele>
        <time>2025-04-28T10:59:32Z</time>
      </trkpt>
      <trkpt lat="42.802297007292509" lon="-4.156924998387694">
        <ele>877.34000000000003</ele>
        <time>2025-04-28T10:59:33Z</time>
      </trkpt>
      <trkpt lat="42.802327014505863" lon="-4.157092971727252">
        <ele>876.86000000000001</ele>
        <time>2025-04-28T10:59:34Z</time>
      </trkpt>
      <trkpt lat="42.802357021719217" lon="-4.157267985865474">
        <ele>876.38</ele>
        <time>2025-04-28T10:59:35Z</time>
      </trkpt>
      <trkpt lat="42.802391974255443" lon="-4.157466972246766">
        <ele>875.41999999999996</ele>
        <time>2025-04-28T10:59:36Z</time>
      </trkpt>
      <trkpt lat="42.802447965368629" lon="-4.157822029665113">
        <ele>873.98000000000002</ele>
        <time>2025-04-28T10:59:38Z</time>
      </trkpt>
      <trkpt lat="42.802496999502182" lon="-4.158186977729201">
        <ele>872.52999999999997</ele>
        <time>2025-04-28T10:59:40Z</time>
      </trkpt>
      <trkpt lat="42.802517032250762" lon="-4.158374983817339">
        <ele>872.04999999999995</ele>
        <time>2025-04-28T10:59:41Z</time>
      </trkpt>
      <trkpt lat="42.80253698118031" lon="-4.158558966591954">
        <ele>871.57000000000005</ele>
        <time>2025-04-28T10:59:42Z</time>
      </trkpt>
      <trkpt lat="42.802611999213696" lon="-4.158710008487105">
        <ele>871.09000000000003</ele>
        <time>2025-04-28T10:59:43Z</time>
      </trkpt>
      <trkpt lat="42.802697997540236" lon="-4.158839005976915">
        <ele>870.61000000000001</ele>
        <time>2025-04-28T10:59:44Z</time>
      </trkpt>
      <trkpt lat="42.802802016958594" lon="-4.158931961283088">
        <ele>870.61000000000001</ele>
        <time>2025-04-28T10:59:45Z</time>
      </trkpt>
      <trkpt lat="42.802919028326869" lon="-4.158947970718145">
        <ele>870.13</ele>
        <time>2025-04-28T10:59:46Z</time>
      </trkpt>
      <trkpt lat="42.803036961704493" lon="-4.158962974324822">
        <ele>869.64999999999998</ele>
        <time>2025-04-28T10:59:47Z</time>
      </trkpt>
      <trkpt lat="42.803151039406657" lon="-4.158942019566894">
        <ele>869.64999999999998</ele>
        <time>2025-04-28T10:59:48Z</time>
      </trkpt>
      <trkpt lat="42.803269978612661" lon="-4.158898014575243">
        <ele>869.64999999999998</ele>
        <time>2025-04-28T10:59:49Z</time>
      </trkpt>
      <trkpt lat="42.8033940307796" lon="-4.158853003755212">
        <ele>870.13</ele>
        <time>2025-04-28T10:59:50Z</time>
      </trkpt>
      <trkpt lat="42.803784040734172" lon="-4.158734986558557">
        <ele>871.09000000000003</ele>
        <time>2025-04-28T10:59:53Z</time>
      </trkpt>
      <trkpt lat="42.803915971890092" lon="-4.15869802236557">
        <ele>871.57000000000005</ele>
        <time>2025-04-28T10:59:54Z</time>
      </trkpt>
      <trkpt lat="42.804057961329818" lon="-4.158678995445371">
        <ele>871.57000000000005</ele>
        <time>2025-04-28T10:59:55Z</time>
      </trkpt>
      <trkpt lat="42.80418997630477" lon="-4.158718977123499">
        <ele>871.57000000000005</ele>
        <time>2025-04-28T10:59:56Z</time>
      </trkpt>
      <trkpt lat="42.804325008764863" lon="-4.158758958801627">
        <ele>871.57000000000005</ele>
        <time>2025-04-28T10:59:57Z</time>
      </trkpt>
      <trkpt lat="42.804455012083054" lon="-4.158798018470407">
        <ele>871.57000000000005</ele>
        <time>2025-04-28T10:59:58Z</time>
      </trkpt>
      <trkpt lat="42.805033028125763" lon="-4.158991975709796">
        <ele>872.04999999999995</ele>
        <time>2025-04-28T11:00:03Z</time>
      </trkpt>
      <trkpt lat="42.805121960118413" lon="-4.159076968207955">
        <ele>872.04999999999995</ele>
        <time>2025-04-28T11:00:04Z</time>
      </trkpt>
      <trkpt lat="42.805214999243617" lon="-4.159155003726482">
        <ele>872.04999999999995</ele>
        <time>2025-04-28T11:00:05Z</time>
      </trkpt>
      <trkpt lat="42.805302003398538" lon="-4.159256005659699">
        <ele>872.04999999999995</ele>
        <time>2025-04-28T11:00:06Z</time>
      </trkpt>
      <trkpt lat="42.805376015603542" lon="-4.159380979835987">
        <ele>871.57000000000005</ele>
        <time>2025-04-28T11:00:07Z</time>
      </trkpt>
      <trkpt lat="42.805442987009883" lon="-4.1595150064677">
        <ele>871.09000000000003</ele>
        <time>2025-04-28T11:00:08Z</time>
      </trkpt>
      <trkpt lat="42.805512975901365" lon="-4.159653978422284">
        <ele>870.61000000000001</ele>
        <time>2025-04-28T11:00:09Z</time>
      </trkpt>
      <trkpt lat="42.805581036955118" lon="-4.159796973690391">
        <ele>870.13</ele>
        <time>2025-04-28T11:00:10Z</time>
      </trkpt>
      <trkpt lat="42.805641973391175" lon="-4.159952960908413">
        <ele>869.16999999999996</ele>
        <time>2025-04-28T11:00:11Z</time>
      </trkpt>
      <trkpt lat="42.806369019672275" lon="-4.161242013797164">
        <ele>864.36000000000001</ele>
        <time>2025-04-28T11:00:19Z</time>
      </trkpt>
      <trkpt lat="42.80769201926887" lon="-4.163028029724956">
        <ele>864.84000000000003</ele>
        <time>2025-04-28T11:00:31Z</time>
      </trkpt>
      <trkpt lat="42.808687034994364" lon="-4.16460600681603">
        <ele>870.13</ele>
        <time>2025-04-28T11:00:41Z</time>
      </trkpt>
      <trkpt lat="42.809249963611364" lon="-4.165532039478421">
        <ele>873.00999999999999</ele>
        <time>2025-04-28T11:00:48Z</time>
      </trkpt>
      <trkpt lat="42.809277959167957" lon="-4.16557596065104">
        <ele>873.00999999999999</ele>
        <time>2025-04-28T11:00:54Z</time>
      </trkpt>
      <trkpt lat="42.809277959167957" lon="-4.16557596065104">
        <ele>873.00999999999999</ele>
        <time>2025-04-28T11:01:29Z</time>
      </trkpt>
      <trkpt lat="42.809277959167957" lon="-4.16557596065104">
        <ele>873.98000000000002</ele>
        <time>2025-04-28T11:02:18Z</time>
      </trkpt>
      <trkpt lat="42.809305032715201" lon="-4.165618037804961">
        <ele>873.98000000000002</ele>
        <time>2025-04-28T11:02:47Z</time>
      </trkpt>
      <trkpt lat="42.809322969987988" lon="-4.165645027533174">
        <ele>874.46000000000004</ele>
        <time>2025-04-28T11:02:48Z</time>
      </trkpt>
      <trkpt lat="42.809350965544581" lon="-4.165689032524824">
        <ele>874.46000000000004</ele>
        <time>2025-04-28T11:02:49Z</time>
      </trkpt>
      <trkpt lat="42.809390025213361" lon="-4.165750974789262">
        <ele>874.94000000000005</ele>
        <time>2025-04-28T11:02:50Z</time>
      </trkpt>
      <trkpt lat="42.809439981356263" lon="-4.165828004479408">
        <ele>874.94000000000005</ele>
        <time>2025-04-28T11:02:51Z</time>
      </trkpt>
      <trkpt lat="42.81003300100565" lon="-4.166778009384871">
        <ele>874.94000000000005</ele>
        <time>2025-04-28T11:02:59Z</time>
      </trkpt>
      <trkpt lat="42.811178974807262" lon="-4.168620016425848">
        <ele>876.86000000000001</ele>
        <time>2025-04-28T11:03:11Z</time>
      </trkpt>
      <trkpt lat="42.811981961131096" lon="-4.170049969106913">
        <ele>883.59000000000003</ele>
        <time>2025-04-28T11:03:20Z</time>
      </trkpt>
      <trkpt lat="42.81312701292336" lon="-4.172807028517127">
        <ele>886.95000000000005</ele>
        <time>2025-04-28T11:03:36Z</time>
      </trkpt>
      <trkpt lat="42.813505958765745" lon="-4.173558969050646">
        <ele>890.32000000000005</ele>
        <time>2025-04-28T11:03:41Z</time>
      </trkpt>
      <trkpt lat="42.81355801038444" lon="-4.173728032037616">
        <ele>890.79999999999995</ele>
        <time>2025-04-28T11:03:42Z</time>
      </trkpt>
      <trkpt lat="42.814119011163712" lon="-4.175717979669571">
        <ele>891.27999999999997</ele>
        <time>2025-04-28T11:03:52Z</time>
      </trkpt>
      <trkpt lat="42.814752012491226" lon="-4.177608015015721">
        <ele>894.15999999999997</ele>
        <time>2025-04-28T11:04:01Z</time>
      </trkpt>
      <trkpt lat="42.815823974087834" lon="-4.18082901276648">
        <ele>901.85000000000002</ele>
        <time>2025-04-28T11:04:14Z</time>
      </trkpt>
      <trkpt lat="42.816856959834695" lon="-4.184290990233421">
        <ele>909.05999999999995</ele>
        <time>2025-04-28T11:04:27Z</time>
      </trkpt>
      <trkpt lat="42.817290974780917" lon="-4.186261994764209">
        <ele>915.30999999999995</ele>
        <time>2025-04-28T11:04:36Z</time>
      </trkpt>
      <trkpt lat="42.817538995295763" lon="-4.188593002036214">
        <ele>912.42999999999995</ele>
        <time>2025-04-28T11:04:45Z</time>
      </trkpt>
      <trkpt lat="42.817904027178884" lon="-4.192836005240679">
        <ele>904.74000000000001</ele>
        <time>2025-04-28T11:05:00Z</time>
      </trkpt>
      <trkpt lat="42.818441977724433" lon="-4.197083031758666">
        <ele>903.77999999999997</ele>
        <time>2025-04-28T11:05:16Z</time>
      </trkpt>
      <trkpt lat="42.818787982687354" lon="-4.198300000280142">
        <ele>902.33000000000004</ele>
        <time>2025-04-28T11:05:24Z</time>
      </trkpt>
      <trkpt lat="42.819362981244922" lon="-4.199418984353542">
        <ele>903.29999999999995</ele>
        <time>2025-04-28T11:05:34Z</time>
      </trkpt>
      <trkpt lat="42.819436993449926" lon="-4.199548987671733">
        <ele>903.77999999999997</ele>
        <time>2025-04-28T11:05:35Z</time>
      </trkpt>
      <trkpt lat="42.819459959864616" lon="-4.199685025960207">
        <ele>904.25999999999999</ele>
        <time>2025-04-28T11:05:36Z</time>
      </trkpt>
      <trkpt lat="42.819483010098338" lon="-4.199818968772888">
        <ele>904.74000000000001</ele>
        <time>2025-04-28T11:05:37Z</time>
      </trkpt>
      <trkpt lat="42.819504970684648" lon="-4.199943020939827">
        <ele>905.70000000000005</ele>
        <time>2025-04-28T11:05:38Z</time>
      </trkpt>
      <trkpt lat="42.819525003433228" lon="-4.200063971802592">
        <ele>906.17999999999995</ele>
        <time>2025-04-28T11:05:39Z</time>
      </trkpt>
      <trkpt lat="42.819761037826538" lon="-4.201532984152436">
        <ele>907.13999999999999</ele>
        <time>2025-04-28T11:05:50Z</time>
      </trkpt>
      <trkpt lat="42.819919036701322" lon="-4.202765040099621">
        <ele>911.47000000000003</ele>
        <time>2025-04-28T11:05:58Z</time>
      </trkpt>
      <trkpt lat="42.819904033094645" lon="-4.202919015660882">
        <ele>911.47000000000003</ele>
        <time>2025-04-28T11:05:59Z</time>
      </trkpt>
      <trkpt lat="42.819890035316348" lon="-4.203081037849188">
        <ele>911.95000000000005</ele>
        <time>2025-04-28T11:06:00Z</time>
      </trkpt>
      <trkpt lat="42.819862039759755" lon="-4.203241970390081">
        <ele>911.95000000000005</ele>
        <time>2025-04-28T11:06:01Z</time>
      </trkpt>
      <trkpt lat="42.819804958999157" lon="-4.203398963436484">
        <ele>911.95000000000005</ele>
        <time>2025-04-28T11:06:02Z</time>
      </trkpt>
      <trkpt lat="42.8197249956429" lon="-4.203528966754675">
        <ele>911.95000000000005</ele>
        <time>2025-04-28T11:06:03Z</time>
      </trkpt>
      <trkpt lat="42.819631034508348" lon="-4.20366601087153">
        <ele>911.47000000000003</ele>
        <time>2025-04-28T11:06:04Z</time>
      </trkpt>
      <trkpt lat="42.819535983726382" lon="-4.203792996704578">
        <ele>911.47000000000003</ele>
        <time>2025-04-28T11:06:05Z</time>
      </trkpt>
      <trkpt lat="42.819416960701346" lon="-4.20390397310257">
        <ele>910.99000000000001</ele>
        <time>2025-04-28T11:06:06Z</time>
      </trkpt>
      <trkpt lat="42.819295004010201" lon="-4.204017966985703">
        <ele>910.50999999999999</ele>
        <time>2025-04-28T11:06:07Z</time>
      </trkpt>
      <trkpt lat="42.818002011626959" lon="-4.205148015171289">
        <ele>905.70000000000005</ele>
        <time>2025-04-28T11:06:16Z</time>
      </trkpt>
      <trkpt lat="42.817545030266047" lon="-4.205554034560919">
        <ele>906.65999999999997</ele>
        <time>2025-04-28T11:06:19Z</time>
      </trkpt>
      <trkpt lat="42.817396000027657" lon="-4.205653024837375">
        <ele>907.13999999999999</ele>
        <time>2025-04-28T11:06:20Z</time>
      </trkpt>
      <trkpt lat="42.81723297201097" lon="-4.205729970708489">
        <ele>907.13999999999999</ele>
        <time>2025-04-28T11:06:21Z</time>
      </trkpt>
      <trkpt lat="42.817069021984935" lon="-4.205789985135198">
        <ele>907.13999999999999</ele>
        <time>2025-04-28T11:06:22Z</time>
      </trkpt>
      <trkpt lat="42.816894007846713" lon="-4.205775987356901">
        <ele>907.13999999999999</ele>
        <time>2025-04-28T11:06:23Z</time>
      </trkpt>
      <trkpt lat="42.816718993708491" lon="-4.205762995406985">
        <ele>907.62</ele>
        <time>2025-04-28T11:06:24Z</time>
      </trkpt>
      <trkpt lat="42.816546997055411" lon="-4.205750003457069">
        <ele>908.10000000000002</ele>
        <time>2025-04-28T11:06:25Z</time>
      </trkpt>
      <trkpt lat="42.816377012059093" lon="-4.205746985971928">
        <ele>909.05999999999995</ele>
        <time>2025-04-28T11:06:26Z</time>
      </trkpt>
      <trkpt lat="42.81622102484107" lon="-4.205746985971928">
        <ele>909.53999999999996</ele>
        <time>2025-04-28T11:06:27Z</time>
      </trkpt>
      <trkpt lat="42.816078029572964" lon="-4.205746985971928">
        <ele>910.50999999999999</ele>
        <time>2025-04-28T11:06:28Z</time>
      </trkpt>
      <trkpt lat="42.815948026254773" lon="-4.205787973478437">
        <ele>910.99000000000001</ele>
        <time>2025-04-28T11:06:29Z</time>
      </trkpt>
      <trkpt lat="42.815832020714879" lon="-4.205857962369919">
        <ele>911.95000000000005</ele>
        <time>2025-04-28T11:06:30Z</time>
      </trkpt>
      <trkpt lat="42.815746022388339" lon="-4.206007998436689">
        <ele>912.90999999999997</ele>
        <time>2025-04-28T11:06:31Z</time>
      </trkpt>
      <trkpt lat="42.81568500213325" lon="-4.206148982048035">
        <ele>913.87</ele>
        <time>2025-04-28T11:06:32Z</time>
      </trkpt>
      <trkpt lat="42.815660024061799" lon="-4.20628703199327">
        <ele>914.35000000000002</ele>
        <time>2025-04-28T11:06:33Z</time>
      </trkpt>
      <trkpt lat="42.815665975213051" lon="-4.206421980634332">
        <ele>914.83000000000004</ele>
        <time>2025-04-28T11:06:34Z</time>
      </trkpt>
      <trkpt lat="42.81570503488183" lon="-4.20659095980227">
        <ele>915.78999999999996</ele>
        <time>2025-04-28T11:06:35Z</time>
      </trkpt>
      <trkpt lat="42.815789021551609" lon="-4.20665399171412">
        <ele>916.26999999999998</ele>
        <time>2025-04-28T11:06:36Z</time>
      </trkpt>
      <trkpt lat="42.815870996564627" lon="-4.206734960898757">
        <ele>916.26999999999998</ele>
        <time>2025-04-28T11:06:37Z</time>
      </trkpt>
      <trkpt lat="42.815893962979317" lon="-4.206874016672373">
        <ele>916.75</ele>
        <time>2025-04-28T11:06:38Z</time>
      </trkpt>
      <trkpt lat="42.81587703153491" lon="-4.207024974748492">
        <ele>916.75</ele>
        <time>2025-04-28T11:06:39Z</time>
      </trkpt>
      <trkpt lat="42.815811987966299" lon="-4.207133017480373">
        <ele>916.75</ele>
        <time>2025-04-28T11:06:40Z</time>
      </trkpt>
      <trkpt lat="42.815802013501525" lon="-4.207338038831949">
        <ele>916.75</ele>
        <time>2025-04-28T11:06:41Z</time>
      </trkpt>
      <trkpt lat="42.815824979916215" lon="-4.207506012171507">
        <ele>917.24000000000001</ele>
        <time>2025-04-28T11:06:42Z</time>
      </trkpt>
      <trkpt lat="42.815851969644427" lon="-4.20768697746098">
        <ele>917.24000000000001</ele>
        <time>2025-04-28T11:06:43Z</time>
      </trkpt>
      <trkpt lat="42.815891029313207" lon="-4.207870960235596">
        <ele>917.72000000000003</ele>
        <time>2025-04-28T11:06:44Z</time>
      </trkpt>
      <trkpt lat="42.815928999334574" lon="-4.208055026829243">
        <ele>918.20000000000005</ele>
        <time>2025-04-28T11:06:45Z</time>
      </trkpt>
      <trkpt lat="42.816060008481145" lon="-4.208601024001837">
        <ele>917.72000000000003</ele>
        <time>2025-04-28T11:06:48Z</time>
      </trkpt>
      <trkpt lat="42.816115999594331" lon="-4.209107961505652">
        <ele>918.20000000000005</ele>
        <time>2025-04-28T11:06:51Z</time>
      </trkpt>
      <trkpt lat="42.816090015694499" lon="-4.20929697342217">
        <ele>918.67999999999995</ele>
        <time>2025-04-28T11:06:52Z</time>
      </trkpt>
      <trkpt lat="42.816022038459778" lon="-4.209461007267237">
        <ele>919.63999999999999</ele>
        <time>2025-04-28T11:06:53Z</time>
      </trkpt>
      <trkpt lat="42.815937967970967" lon="-4.209611965343356">
        <ele>921.08000000000004</ele>
        <time>2025-04-28T11:06:54Z</time>
      </trkpt>
      <trkpt lat="42.815848030149937" lon="-4.209751021116972">
        <ele>922.03999999999996</ele>
        <time>2025-04-28T11:06:55Z</time>
      </trkpt>
      <trkpt lat="42.815757002681494" lon="-4.209892004728317">
        <ele>923.48000000000002</ele>
        <time>2025-04-28T11:06:56Z</time>
      </trkpt>
      <trkpt lat="42.814529975876212" lon="-4.211611971259117">
        <ele>937.41999999999996</ele>
        <time>2025-04-28T11:07:08Z</time>
      </trkpt>
      <trkpt lat="42.814450012519956" lon="-4.211790002882481">
        <ele>938.86000000000001</ele>
        <time>2025-04-28T11:07:09Z</time>
      </trkpt>
      <trkpt lat="42.814250020310283" lon="-4.212342035025358">
        <ele>942.71000000000004</ele>
        <time>2025-04-28T11:07:12Z</time>
      </trkpt>
      <trkpt lat="42.814205009490252" lon="-4.212536998093128">
        <ele>944.14999999999998</ele>
        <time>2025-04-28T11:07:13Z</time>
      </trkpt>
      <trkpt lat="42.81415999867022" lon="-4.212733972817659">
        <ele>945.59000000000003</ele>
        <time>2025-04-28T11:07:14Z</time>
      </trkpt>
      <trkpt lat="42.814121022820473" lon="-4.214139031246305">
        <ele>953.27999999999997</ele>
        <time>2025-04-28T11:07:21Z</time>
      </trkpt>
      <trkpt lat="42.814155975356698" lon="-4.214270962402225">
        <ele>953.76999999999998</ele>
        <time>2025-04-28T11:07:22Z</time>
      </trkpt>
      <trkpt lat="42.814205009490252" lon="-4.214374981820583">
        <ele>955.21000000000004</ele>
        <time>2025-04-28T11:07:23Z</time>
      </trkpt>
      <trkpt lat="42.814257983118296" lon="-4.214447988197208">
        <ele>956.16999999999996</ele>
        <time>2025-04-28T11:07:24Z</time>
      </trkpt>
      <trkpt lat="42.814389998093247" lon="-4.21451898291707">
        <ele>957.13</ele>
        <time>2025-04-28T11:07:25Z</time>
      </trkpt>
      <trkpt lat="42.814451018348336" lon="-4.214457962661982">
        <ele>958.57000000000005</ele>
        <time>2025-04-28T11:07:26Z</time>
      </trkpt>
      <trkpt lat="42.814554031938314" lon="-4.214407000690699">
        <ele>959.52999999999997</ele>
        <time>2025-04-28T11:07:27Z</time>
      </trkpt>
      <trkpt lat="42.814651010558009" lon="-4.214440025389195">
        <ele>960.49000000000001</ele>
        <time>2025-04-28T11:07:28Z</time>
      </trkpt>
      <trkpt lat="42.814750000834465" lon="-4.214514037594199">
        <ele>960.49000000000001</ele>
        <time>2025-04-28T11:07:29Z</time>
      </trkpt>
      <trkpt lat="42.814823007211089" lon="-4.214612022042275">
        <ele>960.98000000000002</ele>
        <time>2025-04-28T11:07:30Z</time>
      </trkpt>
      <trkpt lat="42.81484697945416" lon="-4.214759962633252">
        <ele>961.46000000000004</ele>
        <time>2025-04-28T11:07:31Z</time>
      </trkpt>
      <trkpt lat="42.814857037737966" lon="-4.214888960123062">
        <ele>961.46000000000004</ele>
        <time>2025-04-28T11:07:32Z</time>
      </trkpt>
      <trkpt lat="42.814809009432793" lon="-4.214992979541421">
        <ele>961.94000000000005</ele>
        <time>2025-04-28T11:07:33Z</time>
      </trkpt>
      <trkpt lat="42.814752012491226" lon="-4.215091969817877">
        <ele>961.94000000000005</ele>
        <time>2025-04-28T11:07:34Z</time>
      </trkpt>
      <trkpt lat="42.814708007499576" lon="-4.215166987851262">
        <ele>962.41999999999996</ele>
        <time>2025-04-28T11:07:35Z</time>
      </trkpt>
      <trkpt lat="42.814586972817779" lon="-4.215176962316036">
        <ele>962.41999999999996</ele>
        <time>2025-04-28T11:07:36Z</time>
      </trkpt>
      <trkpt lat="42.81435202807188" lon="-4.215409979224205">
        <ele>962.41999999999996</ele>
        <time>2025-04-28T11:07:38Z</time>
      </trkpt>
      <trkpt lat="42.814282039180398" lon="-4.215564038604498">
        <ele>962.89999999999998</ele>
        <time>2025-04-28T11:07:39Z</time>
      </trkpt>
      <trkpt lat="42.813418032601476" lon="-4.216977981850505">
        <ele>962.89999999999998</ele>
        <time>2025-04-28T11:07:47Z</time>
      </trkpt>
      <trkpt lat="42.811991013586521" lon="-4.21924302354455">
        <ele>961.46000000000004</ele>
        <time>2025-04-28T11:07:58Z</time>
      </trkpt>
      <trkpt lat="42.811007983982563" lon="-4.221731023862958">
        <ele>956.64999999999998</ele>
        <time>2025-04-28T11:08:08Z</time>
      </trkpt>
      <trkpt lat="42.810342963784933" lon="-4.223796995356679">
        <ele>943.66999999999996</ele>
        <time>2025-04-28T11:08:17Z</time>
      </trkpt>
      <trkpt lat="42.810254031792283" lon="-4.224132020026445">
        <ele>942.23000000000002</ele>
        <time>2025-04-28T11:08:19Z</time>
      </trkpt>
      <trkpt lat="42.810218995437026" lon="-4.224265040829778">
        <ele>941.75</ele>
        <time>2025-04-28T11:08:20Z</time>
      </trkpt>
      <trkpt lat="42.810209020972252" lon="-4.224517000839114">
        <ele>940.78999999999996</ele>
        <time>2025-04-28T11:08:22Z</time>
      </trkpt>
      <trkpt lat="42.810134002938867" lon="-4.224656978622079">
        <ele>940.78999999999996</ele>
        <time>2025-04-28T11:08:23Z</time>
      </trkpt>
      <trkpt lat="42.810050016269088" lon="-4.224708024412394">
        <ele>940.78999999999996</ele>
        <time>2025-04-28T11:08:24Z</time>
      </trkpt>
      <trkpt lat="42.809955971315503" lon="-4.22476502135396">
        <ele>940.78999999999996</ele>
        <time>2025-04-28T11:08:25Z</time>
      </trkpt>
      <trkpt lat="42.809852035716176" lon="-4.224838027730584">
        <ele>940.78999999999996</ele>
        <time>2025-04-28T11:08:26Z</time>
      </trkpt>
      <trkpt lat="42.809740975499153" lon="-4.224921008571982">
        <ele>940.78999999999996</ele>
        <time>2025-04-28T11:08:27Z</time>
      </trkpt>
      <trkpt lat="42.809636034071445" lon="-4.225050006061792">
        <ele>940.78999999999996</ele>
        <time>2025-04-28T11:08:28Z</time>
      </trkpt>
      <trkpt lat="42.808667002245784" lon="-4.226126996800304">
        <ele>936.46000000000004</ele>
        <time>2025-04-28T11:08:35Z</time>
      </trkpt>
      <trkpt lat="42.8076490201056" lon="-4.227325022220612">
        <ele>938.86000000000001</ele>
        <time>2025-04-28T11:08:42Z</time>
      </trkpt>
      <trkpt lat="42.807552041485906" lon="-4.22751696780324">
        <ele>939.35000000000002</ele>
        <time>2025-04-28T11:08:43Z</time>
      </trkpt>
      <trkpt lat="42.807461014017463" lon="-4.227716038003564">
        <ele>940.30999999999995</ele>
        <time>2025-04-28T11:08:44Z</time>
      </trkpt>
      <trkpt lat="42.807365963235497" lon="-4.22792499884963">
        <ele>940.30999999999995</ele>
        <time>2025-04-28T11:08:45Z</time>
      </trkpt>
      <trkpt lat="42.807298991829157" lon="-4.228149969130755">
        <ele>940.30999999999995</ele>
        <time>2025-04-28T11:08:46Z</time>
      </trkpt>
      <trkpt lat="42.806746959686279" lon="-4.230015026405454">
        <ele>938.86000000000001</ele>
        <time>2025-04-28T11:08:54Z</time>
      </trkpt>
      <trkpt lat="42.806656016036868" lon="-4.230198003351688">
        <ele>937.89999999999998</ele>
        <time>2025-04-28T11:08:55Z</time>
      </trkpt>
      <trkpt lat="42.80550098977983" lon="-4.231952000409365">
        <ele>927.80999999999995</ele>
        <time>2025-04-28T11:09:04Z</time>
      </trkpt>
      <trkpt lat="42.803685972467065" lon="-4.234547959640622">
        <ele>912.90999999999997</ele>
        <time>2025-04-28T11:09:17Z</time>
      </trkpt>
      <trkpt lat="42.800884991884232" lon="-4.238440012559295">
        <ele>902.82000000000005</ele>
        <time>2025-04-28T11:09:36Z</time>
      </trkpt>
      <trkpt lat="42.79896997846663" lon="-4.241007976233959">
        <ele>903.29999999999995</ele>
        <time>2025-04-28T11:09:49Z</time>
      </trkpt>
      <trkpt lat="42.797129983082414" lon="-4.243626985698938">
        <ele>908.58000000000004</ele>
        <time>2025-04-28T11:10:03Z</time>
      </trkpt>
      <trkpt lat="42.795458966866136" lon="-4.245692035183311">
        <ele>906.65999999999997</ele>
        <time>2025-04-28T11:10:15Z</time>
      </trkpt>
      <trkpt lat="42.793732965365052" lon="-4.24708996899426">
        <ele>906.17999999999995</ele>
        <time>2025-04-28T11:10:26Z</time>
      </trkpt>
      <trkpt lat="42.792525971308351" lon="-4.247786002233625">
        <ele>906.17999999999995</ele>
        <time>2025-04-28T11:10:36Z</time>
      </trkpt>
      <trkpt lat="42.790904995054007" lon="-4.248516988009214">
        <ele>907.62</ele>
        <time>2025-04-28T11:10:47Z</time>
      </trkpt>
      <trkpt lat="42.788780014961958" lon="-4.249149989336729">
        <ele>910.02999999999997</ele>
        <time>2025-04-28T11:11:01Z</time>
      </trkpt>
      <trkpt lat="42.787266997620463" lon="-4.24994601868093">
        <ele>904.74000000000001</ele>
        <time>2025-04-28T11:11:11Z</time>
      </trkpt>
      <trkpt lat="42.786470968276262" lon="-4.250945979729295">
        <ele>899.92999999999995</ele>
        <time>2025-04-28T11:11:19Z</time>
      </trkpt>
      <trkpt lat="42.786259995773435" lon="-4.251346969977021">
        <ele>898.49000000000001</ele>
        <time>2025-04-28T11:11:22Z</time>
      </trkpt>
      <trkpt lat="42.786225965246558" lon="-4.251485019922257">
        <ele>898.49000000000001</ele>
        <time>2025-04-28T11:11:23Z</time>
      </trkpt>
      <trkpt lat="42.786192018538713" lon="-4.251629021018744">
        <ele>898.00999999999999</ele>
        <time>2025-04-28T11:11:24Z</time>
      </trkpt>
      <trkpt lat="42.786211967468262" lon="-4.251785008236766">
        <ele>898.00999999999999</ele>
        <time>2025-04-28T11:11:25Z</time>
      </trkpt>
      <trkpt lat="42.786233006045222" lon="-4.251948958262801">
        <ele>897.52999999999997</ele>
        <time>2025-04-28T11:11:26Z</time>
      </trkpt>
      <trkpt lat="42.786254966631532" lon="-4.252117015421391">
        <ele>897.52999999999997</ele>
        <time>2025-04-28T11:11:27Z</time>
      </trkpt>
      <trkpt lat="42.786225965246558" lon="-4.252295969054103">
        <ele>897.52999999999997</ele>
        <time>2025-04-28T11:11:28Z</time>
      </trkpt>
      <trkpt lat="42.786196041852236" lon="-4.252470983192325">
        <ele>898.00999999999999</ele>
        <time>2025-04-28T11:11:29Z</time>
      </trkpt>
      <trkpt lat="42.786148013547063" lon="-4.252642979845405">
        <ele>897.52999999999997</ele>
        <time>2025-04-28T11:11:30Z</time>
      </trkpt>
      <trkpt lat="42.786095039919019" lon="-4.252817993983626">
        <ele>897.52999999999997</ele>
        <time>2025-04-28T11:11:31Z</time>
      </trkpt>
      <trkpt lat="42.786039970815182" lon="-4.25299703143537">
        <ele>898.00999999999999</ele>
        <time>2025-04-28T11:11:32Z</time>
      </trkpt>
      <trkpt lat="42.785842996090651" lon="-4.253697004169226">
        <ele>897.52999999999997</ele>
        <time>2025-04-28T11:11:36Z</time>
      </trkpt>
      <trkpt lat="42.785839978605509" lon="-4.253863971680403">
        <ele>897.52999999999997</ele>
        <time>2025-04-28T11:11:37Z</time>
      </trkpt>
      <trkpt lat="42.785870991647243" lon="-4.25402901135385">
        <ele>897.52999999999997</ele>
        <time>2025-04-28T11:11:38Z</time>
      </trkpt>
      <trkpt lat="42.785933017730713" lon="-4.25417996942997">
        <ele>897.04999999999995</ele>
        <time>2025-04-28T11:11:39Z</time>
      </trkpt>
      <trkpt lat="42.786031002178788" lon="-4.25428600050509">
        <ele>897.04999999999995</ele>
        <time>2025-04-28T11:11:40Z</time>
      </trkpt>
      <trkpt lat="42.786128986626863" lon="-4.25439203158021">
        <ele>897.52999999999997</ele>
        <time>2025-04-28T11:11:41Z</time>
      </trkpt>
      <trkpt lat="42.786255972459912" lon="-4.254419021308422">
        <ele>898.00999999999999</ele>
        <time>2025-04-28T11:11:42Z</time>
      </trkpt>
      <trkpt lat="42.786382958292961" lon="-4.254426984116435">
        <ele>898.00999999999999</ele>
        <time>2025-04-28T11:11:43Z</time>
      </trkpt>
      <trkpt lat="42.786491001024842" lon="-4.254434024915099">
        <ele>898.49000000000001</ele>
        <time>2025-04-28T11:11:44Z</time>
      </trkpt>
      <trkpt lat="42.786613963544369" lon="-4.254488004371524">
        <ele>898.97000000000003</ele>
        <time>2025-04-28T11:11:45Z</time>
      </trkpt>
      <trkpt lat="42.786714965477586" lon="-4.25454500131309">
        <ele>899.45000000000005</ele>
        <time>2025-04-28T11:11:46Z</time>
      </trkpt>
      <trkpt lat="42.786813033744693" lon="-4.254658995196223">
        <ele>899.92999999999995</ele>
        <time>2025-04-28T11:11:47Z</time>
      </trkpt>
      <trkpt lat="42.786863995715976" lon="-4.254786986857653">
        <ele>899.92999999999995</ele>
        <time>2025-04-28T11:11:48Z</time>
      </trkpt>
      <trkpt lat="42.786886962130666" lon="-4.254941968247294">
        <ele>899.92999999999995</ele>
        <time>2025-04-28T11:11:49Z</time>
      </trkpt>
      <trkpt lat="42.786897020414472" lon="-4.255066020414233">
        <ele>899.92999999999995</ele>
        <time>2025-04-28T11:11:50Z</time>
      </trkpt>
      <trkpt lat="42.78687397018075" lon="-4.255170961841941">
        <ele>899.92999999999995</ele>
        <time>2025-04-28T11:11:51Z</time>
      </trkpt>
      <trkpt lat="42.786846980452538" lon="-4.255243968218565">
        <ele>899.92999999999995</ele>
        <time>2025-04-28T11:11:52Z</time>
      </trkpt>
      <trkpt lat="42.786823008209467" lon="-4.255314040929079">
        <ele>899.45000000000005</ele>
        <time>2025-04-28T11:11:53Z</time>
      </trkpt>
      <trkpt lat="42.786727035418153" lon="-4.255357040092349">
        <ele>899.92999999999995</ele>
        <time>2025-04-28T11:11:54Z</time>
      </trkpt>
      <trkpt lat="42.786651011556387" lon="-4.255312029272318">
        <ele>899.92999999999995</ele>
        <time>2025-04-28T11:11:55Z</time>
      </trkpt>
      <trkpt lat="42.786556966602802" lon="-4.255256038159132">
        <ele>900.40999999999997</ele>
        <time>2025-04-28T11:11:56Z</time>
      </trkpt>
      <trkpt lat="42.786454958841205" lon="-4.255196023732424">
        <ele>900.88999999999999</ele>
        <time>2025-04-28T11:11:57Z</time>
      </trkpt>
      <trkpt lat="42.786351023241878" lon="-4.255135003477335">
        <ele>901.37</ele>
        <time>2025-04-28T11:11:58Z</time>
      </trkpt>
      <trkpt lat="42.785261040553451" lon="-4.25426697358489">
        <ele>906.65999999999997</ele>
        <time>2025-04-28T11:12:07Z</time>
      </trkpt>
      <trkpt lat="42.784447995945811" lon="-4.253665991127491">
        <ele>902.33000000000004</ele>
        <time>2025-04-28T11:12:15Z</time>
      </trkpt>
      <trkpt lat="42.784393010661006" lon="-4.253629026934505">
        <ele>901.37</ele>
        <time>2025-04-28T11:12:16Z</time>
      </trkpt>
      <trkpt lat="42.784162005409598" lon="-4.253699015825987">
        <ele>899.45000000000005</ele>
        <time>2025-04-28T11:12:19Z</time>
      </trkpt>
      <trkpt lat="42.784097967669368" lon="-4.253640007227659">
        <ele>898.97000000000003</ele>
        <time>2025-04-28T11:12:20Z</time>
      </trkpt>
      <trkpt lat="42.784067038446665" lon="-4.253597008064389">
        <ele>898.49000000000001</ele>
        <time>2025-04-28T11:12:21Z</time>
      </trkpt>
      <trkpt lat="42.784067038446665" lon="-4.253475973382592">
        <ele>898.00999999999999</ele>
        <time>2025-04-28T11:12:22Z</time>
      </trkpt>
      <trkpt lat="42.784067038446665" lon="-4.253391986712813">
        <ele>897.52999999999997</ele>
        <time>2025-04-28T11:12:23Z</time>
      </trkpt>
      <trkpt lat="42.784096961840987" lon="-4.253321997821331">
        <ele>897.04999999999995</ele>
        <time>2025-04-28T11:12:24Z</time>
      </trkpt>
      <trkpt lat="42.784159993752837" lon="-4.253274975344539">
        <ele>896.57000000000005</ele>
        <time>2025-04-28T11:12:25Z</time>
      </trkpt>
      <trkpt lat="42.784240962937474" lon="-4.253274975344539">
        <ele>896.57000000000005</ele>
        <time>2025-04-28T11:12:26Z</time>
      </trkpt>
      <trkpt lat="42.784332996234298" lon="-4.253274975344539">
        <ele>896.09000000000003</ele>
        <time>2025-04-28T11:12:27Z</time>
      </trkpt>
      <trkpt lat="42.784436009824276" lon="-4.253274975344539">
        <ele>896.09000000000003</ele>
        <time>2025-04-28T11:12:28Z</time>
      </trkpt>
      <trkpt lat="42.784543968737125" lon="-4.253274975344539">
        <ele>896.09000000000003</ele>
        <time>2025-04-28T11:12:29Z</time>
      </trkpt>
      <trkpt lat="42.784669026732445" lon="-4.253237005323172">
        <ele>896.09000000000003</ele>
        <time>2025-04-28T11:12:30Z</time>
      </trkpt>
      <trkpt lat="42.784761982038617" lon="-4.253157963976264">
        <ele>896.09000000000003</ele>
        <time>2025-04-28T11:12:31Z</time>
      </trkpt>
      <trkpt lat="42.784844040870667" lon="-4.253017986193299">
        <ele>896.57000000000005</ele>
        <time>2025-04-28T11:12:32Z</time>
      </trkpt>
      <trkpt lat="42.784925010055304" lon="-4.252868033945561">
        <ele>896.57000000000005</ele>
        <time>2025-04-28T11:12:33Z</time>
      </trkpt>
      <trkpt lat="42.784990975633264" lon="-4.252701988443732">
        <ele>896.57000000000005</ele>
        <time>2025-04-28T11:12:34Z</time>
      </trkpt>
      <trkpt lat="42.785128019750118" lon="-4.252360006794334">
        <ele>897.04999999999995</ele>
        <time>2025-04-28T11:12:36Z</time>
      </trkpt>
      <trkpt lat="42.785231033340096" lon="-4.252251964062452">
        <ele>897.04999999999995</ele>
        <time>2025-04-28T11:12:37Z</time>
      </trkpt>
      <trkpt lat="42.785334968939424" lon="-4.252173006534576">
        <ele>896.57000000000005</ele>
        <time>2025-04-28T11:12:38Z</time>
      </trkpt>
      <trkpt lat="42.785456003621221" lon="-4.252130007371306">
        <ele>896.57000000000005</ele>
        <time>2025-04-28T11:12:39Z</time>
      </trkpt>
      <trkpt lat="42.785588018596172" lon="-4.252081979066134">
        <ele>896.57000000000005</ele>
        <time>2025-04-28T11:12:40Z</time>
      </trkpt>
      <trkpt lat="42.785705029964447" lon="-4.251990029588342">
        <ele>896.57000000000005</ele>
        <time>2025-04-28T11:12:41Z</time>
      </trkpt>
      <trkpt lat="42.785831009969115" lon="-4.251877963542938">
        <ele>896.09000000000003</ele>
        <time>2025-04-28T11:12:42Z</time>
      </trkpt>
      <trkpt lat="42.786019016057253" lon="-4.251708984375">
        <ele>896.57000000000005</ele>
        <time>2025-04-28T11:12:43Z</time>
      </trkpt>
      <trkpt lat="42.786086993291974" lon="-4.251585016027093">
        <ele>896.57000000000005</ele>
        <time>2025-04-28T11:12:44Z</time>
      </trkpt>
      <trkpt lat="42.78698000125587" lon="-4.250233015045524">
        <ele>899.45000000000005</ele>
        <time>2025-04-28T11:12:51Z</time>
      </trkpt>
      <trkpt lat="42.788157993927598" lon="-4.249374959617853">
        <ele>905.22000000000003</ele>
        <time>2025-04-28T11:12:58Z</time>
      </trkpt>
      <trkpt lat="42.789863040670753" lon="-4.248831979930401">
        <ele>912.42999999999995</ele>
        <time>2025-04-28T11:13:08Z</time>
      </trkpt>
      <trkpt lat="42.790342988446355" lon="-4.248522017151117">
        <ele>913.38999999999999</ele>
        <time>2025-04-28T11:13:12Z</time>
      </trkpt>
      <trkpt lat="42.790436027571559" lon="-4.248429983854294">
        <ele>913.87</ele>
        <time>2025-04-28T11:13:13Z</time>
      </trkpt>
      <trkpt lat="42.790493024513125" lon="-4.248363012447953">
        <ele>913.87</ele>
        <time>2025-04-28T11:13:14Z</time>
      </trkpt>
      <trkpt lat="42.790567958727479" lon="-4.248210964724422">
        <ele>914.35000000000002</ele>
        <time>2025-04-28T11:13:15Z</time>
      </trkpt>
      <trkpt lat="42.790570976212621" lon="-4.248172994703054">
        <ele>914.35000000000002</ele>
        <time>2025-04-28T11:13:16Z</time>
      </trkpt>
      <trkpt lat="42.790579022839665" lon="-4.248048020526767">
        <ele>914.83000000000004</ele>
        <time>2025-04-28T11:13:17Z</time>
      </trkpt>
      <trkpt lat="42.79059000313282" lon="-4.247890021651983">
        <ele>915.30999999999995</ele>
        <time>2025-04-28T11:13:18Z</time>
      </trkpt>
      <trkpt lat="42.79056703671813" lon="-4.247812991961837">
        <ele>915.78999999999996</ele>
        <time>2025-04-28T11:13:19Z</time>
      </trkpt>
      <trkpt lat="42.790535017848015" lon="-4.247706960886717">
        <ele>916.26999999999998</ele>
        <time>2025-04-28T11:13:20Z</time>
      </trkpt>
      <trkpt lat="42.790500987321138" lon="-4.247592967003584">
        <ele>916.26999999999998</ele>
        <time>2025-04-28T11:13:21Z</time>
      </trkpt>
      <trkpt lat="42.78985801152885" lon="-4.246431989595294">
        <ele>910.99000000000001</ele>
        <time>2025-04-28T11:13:30Z</time>
      </trkpt>
      <trkpt lat="42.789692971855402" lon="-4.245902001857758">
        <ele>908.10000000000002</ele>
        <time>2025-04-28T11:13:34Z</time>
      </trkpt>
      <trkpt lat="42.789677968248725" lon="-4.245767975226045">
        <ele>907.62</ele>
        <time>2025-04-28T11:13:35Z</time>
      </trkpt>
      <trkpt lat="42.789663970470428" lon="-4.245635038241744">
        <ele>907.62</ele>
        <time>2025-04-28T11:13:36Z</time>
      </trkpt>
      <trkpt lat="42.789631029590964" lon="-4.245371008291841">
        <ele>907.13999999999999</ele>
        <time>2025-04-28T11:13:38Z</time>
      </trkpt>
      <trkpt lat="42.789608985185623" lon="-4.245232958346605">
        <ele>907.13999999999999</ele>
        <time>2025-04-28T11:13:39Z</time>
      </trkpt>
      <trkpt lat="42.789589036256075" lon="-4.245107984170318">
        <ele>907.13999999999999</ele>
        <time>2025-04-28T11:13:40Z</time>
      </trkpt>
      <trkpt lat="42.789545031264424" lon="-4.24500597640872">
        <ele>907.13999999999999</ele>
        <time>2025-04-28T11:13:41Z</time>
      </trkpt>
      <trkpt lat="42.789488034322858" lon="-4.244927018880844">
        <ele>907.13999999999999</ele>
        <time>2025-04-28T11:13:42Z</time>
      </trkpt>
      <trkpt lat="42.789430031552911" lon="-4.244878990575671">
        <ele>906.65999999999997</ele>
        <time>2025-04-28T11:13:43Z</time>
      </trkpt>
      <trkpt lat="42.789373034611344" lon="-4.244844038039446">
        <ele>907.13999999999999</ele>
        <time>2025-04-28T11:13:44Z</time>
      </trkpt>
      <trkpt lat="42.789302039891481" lon="-4.244800033047795">
        <ele>907.13999999999999</ele>
        <time>2025-04-28T11:13:45Z</time>
      </trkpt>
      <trkpt lat="42.789259040728211" lon="-4.244792992249131">
        <ele>906.65999999999997</ele>
        <time>2025-04-28T11:13:46Z</time>
      </trkpt>
      <trkpt lat="42.789135994389653" lon="-4.244860969483852">
        <ele>906.65999999999997</ele>
        <time>2025-04-28T11:13:47Z</time>
      </trkpt>
      <trkpt lat="42.789094001054764" lon="-4.244954008609057">
        <ele>906.65999999999997</ele>
        <time>2025-04-28T11:13:48Z</time>
      </trkpt>
      <trkpt lat="42.789066005498171" lon="-4.245014023035765">
        <ele>906.65999999999997</ele>
        <time>2025-04-28T11:13:49Z</time>
      </trkpt>
      <trkpt lat="42.788945976644754" lon="-4.245262965559959">
        <ele>906.17999999999995</ele>
        <time>2025-04-28T11:13:51Z</time>
      </trkpt>
      <trkpt lat="42.788940025493503" lon="-4.245364973321557">
        <ele>906.65999999999997</ele>
        <time>2025-04-28T11:13:52Z</time>
      </trkpt>
      <trkpt lat="42.788939019665122" lon="-4.245473016053438">
        <ele>907.13999999999999</ele>
        <time>2025-04-28T11:13:53Z</time>
      </trkpt>
      <trkpt lat="42.788940025493503" lon="-4.24558499827981">
        <ele>907.13999999999999</ele>
        <time>2025-04-28T11:13:54Z</time>
      </trkpt>
      <trkpt lat="42.788942037150264" lon="-4.245696980506182">
        <ele>907.13999999999999</ele>
        <time>2025-04-28T11:13:55Z</time>
      </trkpt>
      <trkpt lat="42.788943964987993" lon="-4.245805023238063">
        <ele>907.13999999999999</ele>
        <time>2025-04-28T11:13:56Z</time>
      </trkpt>
      <trkpt lat="42.788957040756941" lon="-4.246642040088773">
        <ele>908.10000000000002</ele>
        <time>2025-04-28T11:14:05Z</time>
      </trkpt>
      <trkpt lat="42.788947988301516" lon="-4.246753016486764">
        <ele>908.10000000000002</ele>
        <time>2025-04-28T11:14:06Z</time>
      </trkpt>
      <trkpt lat="42.788904989138246" lon="-4.246755028143525">
        <ele>908.10000000000002</ele>
        <time>2025-04-28T11:14:07Z</time>
      </trkpt>
      <trkpt lat="42.788842963054776" lon="-4.246757961809635">
        <ele>908.10000000000002</ele>
        <time>2025-04-28T11:14:08Z</time>
      </trkpt>
      <trkpt lat="42.788781020790339" lon="-4.246760979294777">
        <ele>908.10000000000002</ele>
        <time>2025-04-28T11:14:09Z</time>
      </trkpt>
      <trkpt lat="42.788716983050108" lon="-4.246763996779919">
        <ele>908.58000000000004</ele>
        <time>2025-04-28T11:14:10Z</time>
      </trkpt>
      <trkpt lat="42.7886120416224" lon="-4.246769025921822">
        <ele>908.58000000000004</ele>
        <time>2025-04-28T11:14:12Z</time>
      </trkpt>
      <trkpt lat="42.788581028580666" lon="-4.246771037578583">
        <ele>908.58000000000004</ele>
        <time>2025-04-28T11:14:13Z</time>
      </trkpt>
      <trkpt lat="42.788586979731917" lon="-4.246962983161211">
        <ele>908.58000000000004</ele>
        <time>2025-04-28T11:14:16Z</time>
      </trkpt>
      <trkpt lat="42.788601983338594" lon="-4.246987039223313">
        <ele>908.58000000000004</ele>
        <time>2025-04-28T11:14:23Z</time>
      </trkpt>
      <trkpt lat="42.788704996928573" lon="-4.247073959559202">
        <ele>910.02999999999997</ele>
        <time>2025-04-28T11:14:39Z</time>
      </trkpt>
      <trkpt lat="42.788709020242095" lon="-4.24706700257957">
        <ele>910.02999999999997</ele>
        <time>2025-04-28T11:15:24Z</time>
      </trkpt>
      <trkpt lat="42.788713965564966" lon="-4.247073959559202">
        <ele>910.02999999999997</ele>
        <time>2025-04-28T11:16:16Z</time>
      </trkpt>
      <trkpt lat="42.788711031898856" lon="-4.247077982872725">
        <ele>910.50999999999999</ele>
        <time>2025-04-28T11:17:16Z</time>
      </trkpt>
      <trkpt lat="42.78878697194159" lon="-4.246958959847689">
        <ele>913.87</ele>
        <time>2025-04-28T16:19:11Z</time>
      </trkpt>
      <trkpt lat="42.788710026070476" lon="-4.247069014236331">
        <ele>906.17999999999995</ele>
        <time>2025-04-28T16:19:48Z</time>
      </trkpt>
      <trkpt lat="42.78874397277832" lon="-4.247032972052693">
        <ele>904.74000000000001</ele>
        <time>2025-04-28T16:20:39Z</time>
      </trkpt>
      <trkpt lat="42.788970032706857" lon="-4.247171021997929">
        <ele>903.77999999999997</ele>
        <time>2025-04-28T16:20:59Z</time>
      </trkpt>
      <trkpt lat="42.788880011066794" lon="-4.247190970927477">
        <ele>906.65999999999997</ele>
        <time>2025-04-28T16:21:03Z</time>
      </trkpt>
      <trkpt lat="42.788967015221715" lon="-4.247073959559202">
        <ele>909.05999999999995</ele>
        <time>2025-04-28T16:21:08Z</time>
      </trkpt>
      <trkpt lat="42.788966009393334" lon="-4.247010005638003">
        <ele>909.05999999999995</ele>
        <time>2025-04-28T16:21:09Z</time>
      </trkpt>
      <trkpt lat="42.78895896859467" lon="-4.246752010658383">
        <ele>909.05999999999995</ele>
        <time>2025-04-28T16:21:10Z</time>
      </trkpt>
      <trkpt lat="42.788945976644754" lon="-4.245926979929209">
        <ele>906.65999999999997</ele>
        <time>2025-04-28T16:21:20Z</time>
      </trkpt>
      <trkpt lat="42.788938013836741" lon="-4.245401015505195">
        <ele>904.74000000000001</ele>
        <time>2025-04-28T16:21:25Z</time>
      </trkpt>
      <trkpt lat="42.788943964987993" lon="-4.245298001915216">
        <ele>904.74000000000001</ele>
        <time>2025-04-28T16:21:26Z</time>
      </trkpt>
      <trkpt lat="42.788951005786657" lon="-4.245189037173986">
        <ele>904.25999999999999</ele>
        <time>2025-04-28T16:21:27Z</time>
      </trkpt>
      <trkpt lat="42.788774985820055" lon="-4.244845965877175">
        <ele>903.29999999999995</ele>
        <time>2025-04-28T16:21:30Z</time>
      </trkpt>
      <trkpt lat="42.788761993870139" lon="-4.244718980044127">
        <ele>903.77999999999997</ele>
        <time>2025-04-28T16:21:31Z</time>
      </trkpt>
      <trkpt lat="42.788794012740254" lon="-4.244614038616419">
        <ele>903.77999999999997</ele>
        <time>2025-04-28T16:21:32Z</time>
      </trkpt>
      <trkpt lat="42.788846986368299" lon="-4.244541032239795">
        <ele>904.25999999999999</ele>
        <time>2025-04-28T16:21:33Z</time>
      </trkpt>
      <trkpt lat="42.7889159694314" lon="-4.244499038904905">
        <ele>904.74000000000001</ele>
        <time>2025-04-28T16:21:34Z</time>
      </trkpt>
      <trkpt lat="42.788994004949927" lon="-4.244480011984706">
        <ele>905.22000000000003</ele>
        <time>2025-04-28T16:21:35Z</time>
      </trkpt>
      <trkpt lat="42.789048990234733" lon="-4.24453298561275">
        <ele>905.22000000000003</ele>
        <time>2025-04-28T16:21:36Z</time>
      </trkpt>
      <trkpt lat="42.789113027974963" lon="-4.244608003646135">
        <ele>905.22000000000003</ele>
        <time>2025-04-28T16:21:37Z</time>
      </trkpt>
      <trkpt lat="42.78913096524775" lon="-4.244628036394715">
        <ele>905.22000000000003</ele>
        <time>2025-04-28T16:21:38Z</time>
      </trkpt>
      <trkpt lat="42.789302039891481" lon="-4.244800033047795">
        <ele>905.22000000000003</ele>
        <time>2025-04-28T16:21:39Z</time>
      </trkpt>
      <trkpt lat="42.789598004892468" lon="-4.245162969455123">
        <ele>905.22000000000003</ele>
        <time>2025-04-28T16:21:44Z</time>
      </trkpt>
      <trkpt lat="42.789598004892468" lon="-4.245162969455123">
        <ele>905.22000000000003</ele>
        <time>2025-04-28T16:21:45Z</time>
      </trkpt>
      <trkpt lat="42.789656007662416" lon="-4.245563037693501">
        <ele>905.22000000000003</ele>
        <time>2025-04-28T16:21:47Z</time>
      </trkpt>
      <trkpt lat="42.789671011269093" lon="-4.245705027133226">
        <ele>905.22000000000003</ele>
        <time>2025-04-28T16:21:48Z</time>
      </trkpt>
      <trkpt lat="42.78968702070415" lon="-4.245850034058094">
        <ele>905.22000000000003</ele>
        <time>2025-04-28T16:21:49Z</time>
      </trkpt>
      <trkpt lat="42.789703030139208" lon="-4.245998980477452">
        <ele>905.22000000000003</ele>
        <time>2025-04-28T16:21:50Z</time>
      </trkpt>
      <trkpt lat="42.789741000160575" lon="-4.246152034029365">
        <ele>905.22000000000003</ele>
        <time>2025-04-28T16:21:51Z</time>
      </trkpt>
      <trkpt lat="42.789790034294128" lon="-4.246288994327188">
        <ele>905.22000000000003</ele>
        <time>2025-04-28T16:21:52Z</time>
      </trkpt>
      <trkpt lat="42.789857005700469" lon="-4.246429977938533">
        <ele>904.74000000000001</ele>
        <time>2025-04-28T16:21:53Z</time>
      </trkpt>
      <trkpt lat="42.790898038074374" lon="-4.248297968879342">
        <ele>912.42999999999995</ele>
        <time>2025-04-28T16:22:07Z</time>
      </trkpt>
      <trkpt lat="42.791153015568852" lon="-4.248767020180821">
        <ele>913.38999999999999</ele>
        <time>2025-04-28T16:22:11Z</time>
      </trkpt>
      <trkpt lat="42.791263991966844" lon="-4.248833991587162">
        <ele>913.38999999999999</ele>
        <time>2025-04-28T16:22:12Z</time>
      </trkpt>
      <trkpt lat="42.791354013606906" lon="-4.248861987143755">
        <ele>913.87</ele>
        <time>2025-04-28T16:22:13Z</time>
      </trkpt>
      <trkpt lat="42.791399024426937" lon="-4.248963994905353">
        <ele>913.87</ele>
        <time>2025-04-28T16:22:14Z</time>
      </trkpt>
      <trkpt lat="42.79142701998353" lon="-4.249027026817203">
        <ele>913.87</ele>
        <time>2025-04-28T16:22:15Z</time>
      </trkpt>
      <trkpt lat="42.791404975578189" lon="-4.249133979901671">
        <ele>913.87</ele>
        <time>2025-04-28T16:22:16Z</time>
      </trkpt>
      <trkpt lat="42.791404975578189" lon="-4.249133979901671">
        <ele>913.87</ele>
        <time>2025-04-28T16:22:17Z</time>
      </trkpt>
      <trkpt lat="42.791375974193215" lon="-4.249404966831207">
        <ele>913.87</ele>
        <time>2025-04-28T16:22:18Z</time>
      </trkpt>
      <trkpt lat="42.791415033861995" lon="-4.24951502121985">
        <ele>913.87</ele>
        <time>2025-04-28T16:22:19Z</time>
      </trkpt>
      <trkpt lat="42.791457027196884" lon="-4.249636977910996">
        <ele>913.87</ele>
        <time>2025-04-28T16:22:20Z</time>
      </trkpt>
      <trkpt lat="42.791501032188535" lon="-4.249765975400806">
        <ele>913.87</ele>
        <time>2025-04-28T16:22:21Z</time>
      </trkpt>
      <trkpt lat="42.791543025523424" lon="-4.249898996204138">
        <ele>913.87</ele>
        <time>2025-04-28T16:22:22Z</time>
      </trkpt>
      <trkpt lat="42.792019033804536" lon="-4.251371026039124">
        <ele>913.87</ele>
        <time>2025-04-28T16:22:34Z</time>
      </trkpt>
      <trkpt lat="42.792053986340761" lon="-4.251490971073508">
        <ele>913.87</ele>
        <time>2025-04-28T16:22:35Z</time>
      </trkpt>
      <trkpt lat="42.792635019868612" lon="-4.253302970901132">
        <ele>911.95000000000005</ele>
        <time>2025-04-28T16:22:50Z</time>
      </trkpt>
      <trkpt lat="42.793208006769419" lon="-4.254906009882689">
        <ele>905.70000000000005</ele>
        <time>2025-04-28T16:23:03Z</time>
      </trkpt>
      <trkpt lat="42.793316971510649" lon="-4.255201974883676">
        <ele>905.22000000000003</ele>
        <time>2025-04-28T16:23:06Z</time>
      </trkpt>
      <trkpt lat="42.793559962883592" lon="-4.256036980077624">
        <ele>906.17999999999995</ele>
        <time>2025-04-28T16:23:15Z</time>
      </trkpt>
      <trkpt lat="42.793670017272234" lon="-4.256505025550723">
        <ele>906.65999999999997</ele>
        <time>2025-04-28T16:23:21Z</time>
      </trkpt>
      <trkpt lat="42.793686026707292" lon="-4.256574008613825">
        <ele>906.65999999999997</ele>
        <time>2025-04-28T16:23:22Z</time>
      </trkpt>
      <trkpt lat="42.793700024485588" lon="-4.256639974191785">
        <ele>907.13999999999999</ele>
        <time>2025-04-28T16:23:23Z</time>
      </trkpt>
      <trkpt lat="42.793707987293601" lon="-4.256696971133351">
        <ele>907.13999999999999</ele>
        <time>2025-04-28T16:23:24Z</time>
      </trkpt>
      <trkpt lat="42.793715028092265" lon="-4.256753968074918">
        <ele>907.13999999999999</ele>
        <time>2025-04-28T16:23:25Z</time>
      </trkpt>
      <trkpt lat="42.793720979243517" lon="-4.256806019693613">
        <ele>907.13999999999999</ele>
        <time>2025-04-28T16:23:26Z</time>
      </trkpt>
      <trkpt lat="42.793722990900278" lon="-4.256815994158387">
        <ele>906.65999999999997</ele>
        <time>2025-04-28T16:23:27Z</time>
      </trkpt>
      <trkpt lat="42.793693989515305" lon="-4.25684398971498">
        <ele>906.65999999999997</ele>
        <time>2025-04-28T16:23:28Z</time>
      </trkpt>
      <trkpt lat="42.793679991737008" lon="-4.256858993321657">
        <ele>906.65999999999997</ele>
        <time>2025-04-28T16:23:29Z</time>
      </trkpt>
      <trkpt lat="42.793651996180415" lon="-4.256858993321657">
        <ele>906.65999999999997</ele>
        <time>2025-04-28T16:23:30Z</time>
      </trkpt>
      <trkpt lat="42.793636992573738" lon="-4.256858993321657">
        <ele>906.65999999999997</ele>
        <time>2025-04-28T16:23:31Z</time>
      </trkpt>
      <trkpt lat="42.793636992573738" lon="-4.256858993321657">
        <ele>906.17999999999995</ele>
        <time>2025-04-28T16:23:32Z</time>
      </trkpt>
      <trkpt lat="42.793503971770406" lon="-4.256857987493277">
        <ele>906.17999999999995</ele>
        <time>2025-04-28T16:23:33Z</time>
      </trkpt>
      <trkpt lat="42.793487040325999" lon="-4.256880031898618">
        <ele>906.17999999999995</ele>
        <time>2025-04-28T16:23:34Z</time>
      </trkpt>
      <trkpt lat="42.793473964557052" lon="-4.256980028003454">
        <ele>905.70000000000005</ele>
        <time>2025-04-28T16:23:35Z</time>
      </trkpt>
      <trkpt lat="42.79346901923418" lon="-4.25701598636806">
        <ele>905.22000000000003</ele>
        <time>2025-04-28T16:23:36Z</time>
      </trkpt>
      <trkpt lat="42.793463990092278" lon="-4.257054040208459">
        <ele>905.22000000000003</ele>
        <time>2025-04-28T16:23:37Z</time>
      </trkpt>
      <trkpt lat="42.793459966778755" lon="-4.257086981087923">
        <ele>904.74000000000001</ele>
        <time>2025-04-28T16:23:38Z</time>
      </trkpt>
      <trkpt lat="42.793456027284265" lon="-4.257118999958038">
        <ele>904.74000000000001</ele>
        <time>2025-04-28T16:23:39Z</time>
      </trkpt>
      <trkpt lat="42.793450998142362" lon="-4.257154958322644">
        <ele>904.25999999999999</ele>
        <time>2025-04-28T16:23:40Z</time>
      </trkpt>
      <trkpt lat="42.793446974828839" lon="-4.25718798302114">
        <ele>904.25999999999999</ele>
        <time>2025-04-28T16:23:41Z</time>
      </trkpt>
      <trkpt lat="42.793443035334349" lon="-4.257217990234494">
        <ele>903.77999999999997</ele>
        <time>2025-04-28T16:23:42Z</time>
      </trkpt>
      <trkpt lat="42.793439012020826" lon="-4.25725101493299">
        <ele>903.77999999999997</ele>
        <time>2025-04-28T16:23:43Z</time>
      </trkpt>
      <trkpt lat="42.793433982878923" lon="-4.257286973297596">
        <ele>903.29999999999995</ele>
        <time>2025-04-28T16:23:44Z</time>
      </trkpt>
      <trkpt lat="42.793401964008808" lon="-4.257538011297584">
        <ele>901.85000000000002</ele>
        <time>2025-04-28T16:23:51Z</time>
      </trkpt>
      <trkpt lat="42.793400958180428" lon="-4.257545974105597">
        <ele>901.37</ele>
        <time>2025-04-28T16:23:52Z</time>
      </trkpt>
      <trkpt lat="42.793400958180428" lon="-4.257545974105597">
        <ele>901.37</ele>
        <time>2025-04-28T16:23:53Z</time>
      </trkpt>
      <trkpt lat="42.79327598400414" lon="-4.257768010720611">
        <ele>900.40999999999997</ele>
        <time>2025-04-28T16:23:59Z</time>
      </trkpt>
      <trkpt lat="42.79325402341783" lon="-4.257806986570358">
        <ele>900.40999999999997</ele>
        <time>2025-04-28T16:24:00Z</time>
      </trkpt>
      <trkpt lat="42.793229967355728" lon="-4.257848979905248">
        <ele>899.92999999999995</ele>
        <time>2025-04-28T16:24:01Z</time>
      </trkpt>
      <trkpt lat="42.793208006769419" lon="-4.257888961583376">
        <ele>899.92999999999995</ele>
        <time>2025-04-28T16:24:02Z</time>
      </trkpt>
      <trkpt lat="42.793198032304645" lon="-4.257910000160337">
        <ele>899.92999999999995</ele>
        <time>2025-04-28T16:24:03Z</time>
      </trkpt>
      <trkpt lat="42.793185040354729" lon="-4.257940007373691">
        <ele>899.92999999999995</ele>
        <time>2025-04-28T16:24:04Z</time>
      </trkpt>
      <trkpt lat="42.793170036748052" lon="-4.257971020415425">
        <ele>899.92999999999995</ele>
        <time>2025-04-28T16:24:05Z</time>
      </trkpt>
      <trkpt lat="42.793154027312994" lon="-4.258006978780031">
        <ele>899.92999999999995</ele>
        <time>2025-04-28T16:24:06Z</time>
      </trkpt>
      <trkpt lat="42.793022012338042" lon="-4.258319959044457">
        <ele>897.04999999999995</ele>
        <time>2025-04-28T16:24:16Z</time>
      </trkpt>
      <trkpt lat="42.792977001518011" lon="-4.258434036746621">
        <ele>895.61000000000001</ele>
        <time>2025-04-28T16:24:20Z</time>
      </trkpt>
      <trkpt lat="42.792960992082953" lon="-4.258474018424749">
        <ele>895.12</ele>
        <time>2025-04-28T16:24:21Z</time>
      </trkpt>
      <trkpt lat="42.792940037325025" lon="-4.258525986224413">
        <ele>894.63999999999999</ele>
        <time>2025-04-28T16:24:22Z</time>
      </trkpt>
      <trkpt lat="42.792885974049568" lon="-4.258661018684506">
        <ele>894.15999999999997</ele>
        <time>2025-04-28T16:24:23Z</time>
      </trkpt>
      <trkpt lat="42.792885974049568" lon="-4.258661018684506">
        <ele>893.67999999999995</ele>
        <time>2025-04-28T16:24:24Z</time>
      </trkpt>
      <trkpt lat="42.792885974049568" lon="-4.258661018684506">
        <ele>893.20000000000005</ele>
        <time>2025-04-28T16:24:25Z</time>
      </trkpt>
      <trkpt lat="42.792855966836214" lon="-4.258649032562971">
        <ele>893.20000000000005</ele>
        <time>2025-04-28T16:24:26Z</time>
      </trkpt>
      <trkpt lat="42.792829982936382" lon="-4.258636962622404">
        <ele>893.20000000000005</ele>
        <time>2025-04-28T16:24:27Z</time>
      </trkpt>
      <trkpt lat="42.792829982936382" lon="-4.258636962622404">
        <ele>895.61000000000001</ele>
        <time>2025-04-28T16:24:38Z</time>
      </trkpt>
      <trkpt lat="42.792885974049568" lon="-4.258661018684506">
        <ele>943.19000000000005</ele>
        <time>2025-04-29T07:07:53Z</time>
      </trkpt>
      <trkpt lat="42.792885974049568" lon="-4.258661018684506">
        <ele>949.91999999999996</ele>
        <time>2025-04-29T07:08:23Z</time>
      </trkpt>
      <trkpt lat="42.792885974049568" lon="-4.258661018684506">
        <ele>927.80999999999995</ele>
        <time>2025-04-29T07:09:07Z</time>
      </trkpt>
      <trkpt lat="42.792584979906678" lon="-4.258533027023077">
        <ele>926.85000000000002</ele>
        <time>2025-04-29T07:09:24Z</time>
      </trkpt>
      <trkpt lat="42.792578022927046" lon="-4.258524980396032">
        <ele>926.85000000000002</ele>
        <time>2025-04-29T07:09:25Z</time>
      </trkpt>
      <trkpt lat="42.792521025985479" lon="-4.258467983454466">
        <ele>926.37</ele>
        <time>2025-04-29T07:09:26Z</time>
      </trkpt>
      <trkpt lat="42.792384987697005" lon="-4.258026005700231">
        <ele>924.92999999999995</ele>
        <time>2025-04-29T07:09:32Z</time>
      </trkpt>
      <trkpt lat="42.792357997968793" lon="-4.257936989888549">
        <ele>923.48000000000002</ele>
        <time>2025-04-29T07:09:33Z</time>
      </trkpt>
      <trkpt lat="42.792353974655271" lon="-4.257813021540642">
        <ele>922.51999999999998</ele>
        <time>2025-04-29T07:09:34Z</time>
      </trkpt>
      <trkpt lat="42.792357997968793" lon="-4.25772400572896">
        <ele>921.55999999999995</ele>
        <time>2025-04-29T07:09:35Z</time>
      </trkpt>
      <trkpt lat="42.792361015453935" lon="-4.257649993523955">
        <ele>920.60000000000002</ele>
        <time>2025-04-29T07:09:36Z</time>
      </trkpt>
      <trkpt lat="42.792364032939076" lon="-4.257598025724292">
        <ele>920.60000000000002</ele>
        <time>2025-04-29T07:09:37Z</time>
      </trkpt>
      <trkpt lat="42.792365038767457" lon="-4.257561983540654">
        <ele>920.60000000000002</ele>
        <time>2025-04-29T07:09:38Z</time>
      </trkpt>
      <trkpt lat="42.792365960776806" lon="-4.257535999640822">
        <ele>920.12</ele>
        <time>2025-04-29T07:09:39Z</time>
      </trkpt>
      <trkpt lat="42.792365960776806" lon="-4.257535999640822">
        <ele>920.12</ele>
        <time>2025-04-29T07:09:54Z</time>
      </trkpt>
      <trkpt lat="42.792367972433567" lon="-4.257499035447836">
        <ele>920.12</ele>
        <time>2025-04-29T07:10:00Z</time>
      </trkpt>
      <trkpt lat="42.792435027658939" lon="-4.257470034062862">
        <ele>919.63999999999999</ele>
        <time>2025-04-29T07:10:01Z</time>
      </trkpt>
      <trkpt lat="42.79250199906528" lon="-4.257503980770707">
        <ele>919.63999999999999</ele>
        <time>2025-04-29T07:10:03Z</time>
      </trkpt>
      <trkpt lat="42.792547009885311" lon="-4.257526025176048">
        <ele>919.15999999999997</ele>
        <time>2025-04-29T07:10:04Z</time>
      </trkpt>
      <trkpt lat="42.792719006538391" lon="-4.257612023502588">
        <ele>918.67999999999995</ele>
        <time>2025-04-29T07:10:07Z</time>
      </trkpt>
      <trkpt lat="42.792779020965099" lon="-4.257645970210433">
        <ele>918.20000000000005</ele>
        <time>2025-04-29T07:10:08Z</time>
      </trkpt>
      <trkpt lat="42.792834006249905" lon="-4.257677989080548">
        <ele>917.72000000000003</ele>
        <time>2025-04-29T07:10:09Z</time>
      </trkpt>
      <trkpt lat="42.79308202676475" lon="-4.257817966863513">
        <ele>914.83000000000004</ele>
        <time>2025-04-29T07:10:13Z</time>
      </trkpt>
      <trkpt lat="42.793162995949388" lon="-4.257863983511925">
        <ele>913.87</ele>
        <time>2025-04-29T07:10:15Z</time>
      </trkpt>
      <trkpt lat="42.793194008991122" lon="-4.257880998775363">
        <ele>913.38999999999999</ele>
        <time>2025-04-29T07:10:16Z</time>
      </trkpt>
      <trkpt lat="42.793194008991122" lon="-4.257880998775363">
        <ele>910.50999999999999</ele>
        <time>2025-04-29T07:10:26Z</time>
      </trkpt>
      <trkpt lat="42.793208006769419" lon="-4.257888961583376">
        <ele>909.05999999999995</ele>
        <time>2025-04-29T07:10:28Z</time>
      </trkpt>
      <trkpt lat="42.793208006769419" lon="-4.257888961583376">
        <ele>908.10000000000002</ele>
        <time>2025-04-29T07:10:29Z</time>
      </trkpt>
      <trkpt lat="42.793099964037538" lon="-4.258124995976687">
        <ele>904.25999999999999</ele>
        <time>2025-04-29T07:10:39Z</time>
      </trkpt>
      <trkpt lat="42.793145980685949" lon="-4.258166989311576">
        <ele>903.77999999999997</ele>
        <time>2025-04-29T07:10:40Z</time>
      </trkpt>
      <trkpt lat="42.793170036748052" lon="-4.258189033716917">
        <ele>903.29999999999995</ele>
        <time>2025-04-29T07:10:41Z</time>
      </trkpt>
      <trkpt lat="42.793199960142374" lon="-4.25821702927351">
        <ele>902.82000000000005</ele>
        <time>2025-04-29T07:10:42Z</time>
      </trkpt>
      <trkpt lat="42.793230973184109" lon="-4.258245024830103">
        <ele>902.33000000000004</ele>
        <time>2025-04-29T07:10:43Z</time>
      </trkpt>
      <trkpt lat="42.793266009539366" lon="-4.258276959881187">
        <ele>901.85000000000002</ele>
        <time>2025-04-29T07:10:44Z</time>
      </trkpt>
      <trkpt lat="42.793378997594118" lon="-4.258381985127926">
        <ele>900.88999999999999</ele>
        <time>2025-04-29T07:10:46Z</time>
      </trkpt>
      <trkpt lat="42.793541019782424" lon="-4.258624976500869">
        <ele>898.97000000000003</ele>
        <time>2025-04-29T07:10:51Z</time>
      </trkpt>
      <trkpt lat="42.793567003682256" lon="-4.258634028956294">
        <ele>898.49000000000001</ele>
        <time>2025-04-29T07:10:52Z</time>
      </trkpt>
      <trkpt lat="42.793603967875242" lon="-4.258620031177998">
        <ele>898.49000000000001</ele>
        <time>2025-04-29T07:10:53Z</time>
      </trkpt>
      <trkpt lat="42.793660964816809" lon="-4.258598992601037">
        <ele>898.00999999999999</ele>
        <time>2025-04-29T07:10:54Z</time>
      </trkpt>
      <trkpt lat="42.793719973415136" lon="-4.258576026186347">
        <ele>897.52999999999997</ele>
        <time>2025-04-29T07:10:55Z</time>
      </trkpt>
      <trkpt lat="42.793779987841845" lon="-4.258553981781006">
        <ele>897.04999999999995</ele>
        <time>2025-04-29T07:10:56Z</time>
      </trkpt>
      <trkpt lat="42.79383597895503" lon="-4.258533027023077">
        <ele>896.57000000000005</ele>
        <time>2025-04-29T07:10:57Z</time>
      </trkpt>
      <trkpt lat="42.793917031958699" lon="-4.25845499150455">
        <ele>896.09000000000003</ele>
        <time>2025-04-29T07:10:58Z</time>
      </trkpt>
      <trkpt lat="42.793946033343673" lon="-4.258394977077842">
        <ele>895.61000000000001</ele>
        <time>2025-04-29T07:10:59Z</time>
      </trkpt>
      <trkpt lat="42.794008981436491" lon="-4.258332028985024">
        <ele>895.61000000000001</ele>
        <time>2025-04-29T07:11:00Z</time>
      </trkpt>
      <trkpt lat="42.794062960892916" lon="-4.258277965709567">
        <ele>896.09000000000003</ele>
        <time>2025-04-29T07:11:01Z</time>
      </trkpt>
      <trkpt lat="42.794110989198089" lon="-4.258231027051806">
        <ele>896.09000000000003</ele>
        <time>2025-04-29T07:11:02Z</time>
      </trkpt>
      <trkpt lat="42.794158011674881" lon="-4.258190039545298">
        <ele>896.09000000000003</ele>
        <time>2025-04-29T07:11:03Z</time>
      </trkpt>
      <trkpt lat="42.79419899918139" lon="-4.258152991533279">
        <ele>896.57000000000005</ele>
        <time>2025-04-29T07:11:04Z</time>
      </trkpt>
      <trkpt lat="42.794235963374376" lon="-4.258120972663164">
        <ele>897.04999999999995</ele>
        <time>2025-04-29T07:11:10Z</time>
      </trkpt>
      <trkpt lat="42.794274017214775" lon="-4.2580880317837">
        <ele>897.04999999999995</ele>
        <time>2025-04-29T07:11:29Z</time>
      </trkpt>
      <trkpt lat="42.79426303692162" lon="-4.25804796628654">
        <ele>897.04999999999995</ele>
        <time>2025-04-29T07:11:30Z</time>
      </trkpt>
      <trkpt lat="42.794233029708266" lon="-4.257989963516593">
        <ele>897.52999999999997</ele>
        <time>2025-04-29T07:11:31Z</time>
      </trkpt>
      <trkpt lat="42.793967993929982" lon="-4.257472967728972">
        <ele>904.25999999999999</ele>
        <time>2025-04-29T07:11:40Z</time>
      </trkpt>
      <trkpt lat="42.793946033343673" lon="-4.257429968565702">
        <ele>905.22000000000003</ele>
        <time>2025-04-29T07:11:49Z</time>
      </trkpt>
      <trkpt lat="42.793820975348353" lon="-4.257169039919972">
        <ele>906.17999999999995</ele>
        <time>2025-04-29T07:11:59Z</time>
      </trkpt>
      <trkpt lat="42.793679991737008" lon="-4.256858993321657">
        <ele>906.65999999999997</ele>
        <time>2025-04-29T07:12:07Z</time>
      </trkpt>
      <trkpt lat="42.793572032824159" lon="-4.256665958091617">
        <ele>906.65999999999997</ele>
        <time>2025-04-29T07:12:08Z</time>
      </trkpt>
      <trkpt lat="42.793572032824159" lon="-4.256665958091617">
        <ele>906.65999999999997</ele>
        <time>2025-04-29T07:12:09Z</time>
      </trkpt>
      <trkpt lat="42.793564992025495" lon="-4.25656596198678">
        <ele>906.65999999999997</ele>
        <time>2025-04-29T07:12:10Z</time>
      </trkpt>
      <trkpt lat="42.793559040874243" lon="-4.256470995023847">
        <ele>906.65999999999997</ele>
        <time>2025-04-29T07:12:11Z</time>
      </trkpt>
      <trkpt lat="42.793507995083928" lon="-4.255678988993168">
        <ele>906.65999999999997</ele>
        <time>2025-04-29T07:12:20Z</time>
      </trkpt>
      <trkpt lat="42.793507995083928" lon="-4.255678988993168">
        <ele>906.65999999999997</ele>
        <time>2025-04-29T07:12:21Z</time>
      </trkpt>
      <trkpt lat="42.793507995083928" lon="-4.255678988993168">
        <ele>906.65999999999997</ele>
        <time>2025-04-29T07:12:22Z</time>
      </trkpt>
      <trkpt lat="42.793507995083928" lon="-4.255678988993168">
        <ele>907.13999999999999</ele>
        <time>2025-04-29T07:12:23Z</time>
      </trkpt>
      <trkpt lat="42.793507995083928" lon="-4.255678988993168">
        <ele>907.13999999999999</ele>
        <time>2025-04-29T07:12:24Z</time>
      </trkpt>
      <trkpt lat="42.793507995083928" lon="-4.255678988993168">
        <ele>906.65999999999997</ele>
        <time>2025-04-29T07:12:32Z</time>
      </trkpt>
      <trkpt lat="42.793263997882605" lon="-4.255574969574809">
        <ele>971.54999999999995</ele>
        <time>2025-04-29T07:15:57Z</time>
      </trkpt>
      <trkpt lat="42.79340598732233" lon="-4.255602965131402">
        <ele>957.61000000000001</ele>
        <time>2025-04-29T07:16:19Z</time>
      </trkpt>
      <trkpt lat="42.793418979272246" lon="-4.255456030368805">
        <ele>929.25</ele>
        <time>2025-04-29T07:17:08Z</time>
      </trkpt>
      <trkpt lat="42.793429959565401" lon="-4.255342958495021">
        <ele>923.48000000000002</ele>
        <time>2025-04-29T07:17:14Z</time>
      </trkpt>
      <trkpt lat="42.793357959017158" lon="-4.255303982645273">
        <ele>923.48000000000002</ele>
        <time>2025-04-29T07:17:16Z</time>
      </trkpt>
      <trkpt lat="42.793341027572751" lon="-4.255261989310384">
        <ele>923.48000000000002</ele>
        <time>2025-04-29T07:17:17Z</time>
      </trkpt>
      <trkpt lat="42.793330969288945" lon="-4.255234999582171">
        <ele>923.96000000000004</ele>
        <time>2025-04-29T07:17:18Z</time>
      </trkpt>
      <trkpt lat="42.793330969288945" lon="-4.255234999582171">
        <ele>924.45000000000005</ele>
        <time>2025-04-29T07:17:19Z</time>
      </trkpt>
      <trkpt lat="42.793299034237862" lon="-4.255155958235264">
        <ele>923.96000000000004</ele>
        <time>2025-04-29T07:17:21Z</time>
      </trkpt>
      <trkpt lat="42.793273972347379" lon="-4.255087981000543">
        <ele>923.96000000000004</ele>
        <time>2025-04-29T07:17:22Z</time>
      </trkpt>
      <trkpt lat="42.793244970962405" lon="-4.255009023472667">
        <ele>923.96000000000004</ele>
        <time>2025-04-29T07:17:23Z</time>
      </trkpt>
      <trkpt lat="42.793502965942025" lon="-4.254798972979188">
        <ele>922.51999999999998</ele>
        <time>2025-04-29T07:17:24Z</time>
      </trkpt>
      <trkpt lat="42.793497014790773" lon="-4.25467299297452">
        <ele>921.55999999999995</ele>
        <time>2025-04-29T07:17:25Z</time>
      </trkpt>
      <trkpt lat="42.793449992313981" lon="-4.253310011699796">
        <ele>916.26999999999998</ele>
        <time>2025-04-29T07:17:34Z</time>
      </trkpt>
      <trkpt lat="42.793574966490269" lon="-4.251993969082832">
        <ele>916.26999999999998</ele>
        <time>2025-04-29T07:17:43Z</time>
      </trkpt>
      <trkpt lat="42.794042006134987" lon="-4.250026987865567">
        <ele>915.30999999999995</ele>
        <time>2025-04-29T07:17:55Z</time>
      </trkpt>
      <trkpt lat="42.7950360160321" lon="-4.247642001137137">
        <ele>912.42999999999995</ele>
        <time>2025-04-29T07:18:09Z</time>
      </trkpt>
      <trkpt lat="42.795803966000676" lon="-4.245827989652753">
        <ele>910.99000000000001</ele>
        <time>2025-04-29T07:18:21Z</time>
      </trkpt>
      <trkpt lat="42.795825004577637" lon="-4.245726987719536">
        <ele>910.99000000000001</ele>
        <time>2025-04-29T07:18:22Z</time>
      </trkpt>
      <trkpt lat="42.795786028727889" lon="-4.245651969686151">
        <ele>911.47000000000003</ele>
        <time>2025-04-29T07:18:23Z</time>
      </trkpt>
      <trkpt lat="42.795763984322548" lon="-4.245600001886487">
        <ele>911.47000000000003</ele>
        <time>2025-04-29T07:18:24Z</time>
      </trkpt>
      <trkpt lat="42.795711010694504" lon="-4.245579969137907">
        <ele>911.95000000000005</ele>
        <time>2025-04-29T07:18:25Z</time>
      </trkpt>
      <trkpt lat="42.795672034844756" lon="-4.245567983016372">
        <ele>911.95000000000005</ele>
        <time>2025-04-29T07:18:26Z</time>
      </trkpt>
      <trkpt lat="42.795607997104526" lon="-4.245552979409695">
        <ele>911.95000000000005</ele>
        <time>2025-04-29T07:18:27Z</time>
      </trkpt>
      <trkpt lat="42.795547982677817" lon="-4.245608970522881">
        <ele>911.95000000000005</ele>
        <time>2025-04-29T07:18:28Z</time>
      </trkpt>
      <trkpt lat="42.795444969087839" lon="-4.245704021304846">
        <ele>911.47000000000003</ele>
        <time>2025-04-29T07:18:29Z</time>
      </trkpt>
      <trkpt lat="42.795297028496861" lon="-4.245841987431049">
        <ele>910.99000000000001</ele>
        <time>2025-04-29T07:18:30Z</time>
      </trkpt>
      <trkpt lat="42.793927006423473" lon="-4.246948985382915">
        <ele>908.58000000000004</ele>
        <time>2025-04-29T07:18:38Z</time>
      </trkpt>
      <trkpt lat="42.79207200743258" lon="-4.248352032154799">
        <ele>910.50999999999999</ele>
        <time>2025-04-29T07:18:49Z</time>
      </trkpt>
      <trkpt lat="42.791574960574508" lon="-4.248770959675312">
        <ele>913.87</ele>
        <time>2025-04-29T07:18:53Z</time>
      </trkpt>
      <trkpt lat="42.791526010259986" lon="-4.248844971880317">
        <ele>914.35000000000002</ele>
        <time>2025-04-29T07:18:54Z</time>
      </trkpt>
      <trkpt lat="42.79149298556149" lon="-4.248905992135406">
        <ele>914.83000000000004</ele>
        <time>2025-04-29T07:18:55Z</time>
      </trkpt>
      <trkpt lat="42.791408998891711" lon="-4.249113025143743">
        <ele>916.26999999999998</ele>
        <time>2025-04-29T07:18:58Z</time>
      </trkpt>
      <trkpt lat="42.791383014991879" lon="-4.249161975458264">
        <ele>916.75</ele>
        <time>2025-04-29T07:18:59Z</time>
      </trkpt>
      <trkpt lat="42.791344039142132" lon="-4.249210003763437">
        <ele>917.24000000000001</ele>
        <time>2025-04-29T07:19:00Z</time>
      </trkpt>
      <trkpt lat="42.791311014443636" lon="-4.249240010976791">
        <ele>917.72000000000003</ele>
        <time>2025-04-29T07:19:01Z</time>
      </trkpt>
      <trkpt lat="42.79125502333045" lon="-4.249230958521366">
        <ele>918.20000000000005</ele>
        <time>2025-04-29T07:19:02Z</time>
      </trkpt>
      <trkpt lat="42.791190985590219" lon="-4.249219978228211">
        <ele>918.20000000000005</ele>
        <time>2025-04-29T07:19:03Z</time>
      </trkpt>
      <trkpt lat="42.791166007518768" lon="-4.249164992943406">
        <ele>918.67999999999995</ele>
        <time>2025-04-29T07:19:04Z</time>
      </trkpt>
      <trkpt lat="42.791136000305414" lon="-4.249098021537066">
        <ele>918.67999999999995</ele>
        <time>2025-04-29T07:19:05Z</time>
      </trkpt>
      <trkpt lat="42.79110599309206" lon="-4.249029038473964">
        <ele>918.67999999999995</ele>
        <time>2025-04-29T07:19:06Z</time>
      </trkpt>
      <trkpt lat="42.791128037497401" lon="-4.248973969370127">
        <ele>919.15999999999997</ele>
        <time>2025-04-29T07:19:07Z</time>
      </trkpt>
      <trkpt lat="42.791158966720104" lon="-4.248903980478644">
        <ele>919.15999999999997</ele>
        <time>2025-04-29T07:19:08Z</time>
      </trkpt>
      <trkpt lat="42.791123008355498" lon="-4.248713962733746">
        <ele>919.15999999999997</ele>
        <time>2025-04-29T07:19:09Z</time>
      </trkpt>
      <trkpt lat="42.791073974221945" lon="-4.248626958578825">
        <ele>919.15999999999997</ele>
        <time>2025-04-29T07:19:10Z</time>
      </trkpt>
      <trkpt lat="42.79101898893714" lon="-4.24852897413075">
        <ele>919.15999999999997</ele>
        <time>2025-04-29T07:19:11Z</time>
      </trkpt>
      <trkpt lat="42.79046100564301" lon="-4.247460030019283">
        <ele>917.72000000000003</ele>
        <time>2025-04-29T07:19:19Z</time>
      </trkpt>
      <trkpt lat="42.789698000997305" lon="-4.245954975485802">
        <ele>910.02999999999997</ele>
        <time>2025-04-29T07:19:28Z</time>
      </trkpt>
      <trkpt lat="42.789678974077106" lon="-4.245771998539567">
        <ele>909.53999999999996</ele>
        <time>2025-04-29T07:19:29Z</time>
      </trkpt>
      <trkpt lat="42.789659025147557" lon="-4.245587009936571">
        <ele>909.53999999999996</ele>
        <time>2025-04-29T07:19:30Z</time>
      </trkpt>
      <trkpt lat="42.789634969085455" lon="-4.245396992191672">
        <ele>909.05999999999995</ele>
        <time>2025-04-29T07:19:31Z</time>
      </trkpt>
      <trkpt lat="42.789605967700481" lon="-4.245214015245438">
        <ele>908.58000000000004</ele>
        <time>2025-04-29T07:19:33Z</time>
      </trkpt>
      <trkpt lat="42.789501026272774" lon="-4.244945039972663">
        <ele>908.58000000000004</ele>
        <time>2025-04-29T07:19:34Z</time>
      </trkpt>
      <trkpt lat="42.789431037381291" lon="-4.244879996404052">
        <ele>908.10000000000002</ele>
        <time>2025-04-29T07:19:35Z</time>
      </trkpt>
      <trkpt lat="42.789359036833048" lon="-4.244834985584021">
        <ele>908.10000000000002</ele>
        <time>2025-04-29T07:19:36Z</time>
      </trkpt>
      <trkpt lat="42.789291981607676" lon="-4.244798021391034">
        <ele>908.10000000000002</ele>
        <time>2025-04-29T07:19:37Z</time>
      </trkpt>
      <trkpt lat="42.789230039343238" lon="-4.244787963107228">
        <ele>908.10000000000002</ele>
        <time>2025-04-29T07:19:38Z</time>
      </trkpt>
      <trkpt lat="42.789124008268118" lon="-4.244886031374335">
        <ele>908.10000000000002</ele>
        <time>2025-04-29T07:19:39Z</time>
      </trkpt>
      <trkpt lat="42.789076985791326" lon="-4.244991978630424">
        <ele>908.10000000000002</ele>
        <time>2025-04-29T07:19:40Z</time>
      </trkpt>
      <trkpt lat="42.789066005498171" lon="-4.245014023035765">
        <ele>908.58000000000004</ele>
        <time>2025-04-29T07:19:41Z</time>
      </trkpt>
      <trkpt lat="42.788947988301516" lon="-4.245230024680495">
        <ele>908.58000000000004</ele>
        <time>2025-04-29T07:19:42Z</time>
      </trkpt>
      <trkpt lat="42.788940025493503" lon="-4.245356004685164">
        <ele>909.05999999999995</ele>
        <time>2025-04-29T07:19:43Z</time>
      </trkpt>
      <trkpt lat="42.788939019665122" lon="-4.245485002174974">
        <ele>909.53999999999996</ele>
        <time>2025-04-29T07:19:44Z</time>
      </trkpt>
      <trkpt lat="42.788941031321883" lon="-4.2456079646945">
        <ele>910.02999999999997</ele>
        <time>2025-04-29T07:19:45Z</time>
      </trkpt>
      <trkpt lat="42.788942959159613" lon="-4.245731011033058">
        <ele>910.50999999999999</ele>
        <time>2025-04-29T07:19:46Z</time>
      </trkpt>
      <trkpt lat="42.788944970816374" lon="-4.245854979380965">
        <ele>910.50999999999999</ele>
        <time>2025-04-29T07:19:47Z</time>
      </trkpt>
      <trkpt lat="42.788957040756941" lon="-4.246610021218658">
        <ele>912.42999999999995</ele>
        <time>2025-04-29T07:19:54Z</time>
      </trkpt>
      <trkpt lat="42.788930973038077" lon="-4.246754022315145">
        <ele>912.90999999999997</ele>
        <time>2025-04-29T07:19:55Z</time>
      </trkpt>
      <trkpt lat="42.788861989974976" lon="-4.246757039800286">
        <ele>912.90999999999997</ele>
        <time>2025-04-29T07:19:56Z</time>
      </trkpt>
      <trkpt lat="42.788788983598351" lon="-4.246760979294777">
        <ele>912.90999999999997</ele>
        <time>2025-04-29T07:19:57Z</time>
      </trkpt>
      <trkpt lat="42.788716983050108" lon="-4.246763996779919">
        <ele>912.90999999999997</ele>
        <time>2025-04-29T07:19:58Z</time>
      </trkpt>
      <trkpt lat="42.7886120416224" lon="-4.246769025921822">
        <ele>913.38999999999999</ele>
        <time>2025-04-29T07:20:00Z</time>
      </trkpt>
      <trkpt lat="42.788589997217059" lon="-4.246770031750202">
        <ele>913.38999999999999</ele>
        <time>2025-04-29T07:20:01Z</time>
      </trkpt>
      <trkpt lat="42.788683036342263" lon="-4.247081000357866">
        <ele>912.42999999999995</ele>
        <time>2025-04-29T07:20:08Z</time>
      </trkpt>
      <trkpt lat="42.788816979154944" lon="-4.247044958174229">
        <ele>882.14999999999998</ele>
        <time>2025-04-29T07:22:42Z</time>
      </trkpt>
      <trkpt lat="42.788790995255113" lon="-4.247019980102778">
        <ele>889.36000000000001</ele>
        <time>2025-04-29T07:23:07Z</time>
      </trkpt>
      <trkpt lat="42.788750007748604" lon="-4.247041018679738">
        <ele>896.57000000000005</ele>
        <time>2025-04-29T07:23:47Z</time>
      </trkpt>
      <trkpt lat="42.788744978606701" lon="-4.24704696983099">
        <ele>900.88999999999999</ele>
        <time>2025-04-29T07:24:54Z</time>
      </trkpt>
      <trkpt lat="42.788739027455449" lon="-4.247048981487751">
        <ele>900.40999999999997</ele>
        <time>2025-04-29T07:25:07Z</time>
      </trkpt>
      <trkpt lat="42.788802981376648" lon="-4.246959965676069">
        <ele>899.45000000000005</ele>
        <time>2025-04-29T07:25:36Z</time>
      </trkpt>
      <trkpt lat="42.788793006911874" lon="-4.246999025344849">
        <ele>899.45000000000005</ele>
        <time>2025-04-29T07:26:13Z</time>
      </trkpt>
      <trkpt lat="42.788793006911874" lon="-4.246999025344849">
        <ele>899.45000000000005</ele>
        <time>2025-04-29T07:26:28Z</time>
      </trkpt>
      <trkpt lat="42.788799041882157" lon="-4.247137997299433">
        <ele>902.33000000000004</ele>
        <time>2025-04-29T07:26:45Z</time>
      </trkpt>
      <trkpt lat="42.788799041882157" lon="-4.247137997299433">
        <ele>902.33000000000004</ele>
        <time>2025-04-29T07:26:46Z</time>
      </trkpt>
      <trkpt lat="42.788914041593671" lon="-4.247168004512787">
        <ele>904.74000000000001</ele>
        <time>2025-04-29T07:26:51Z</time>
      </trkpt>
      <trkpt lat="42.788968021050096" lon="-4.24711100757122">
        <ele>906.65999999999997</ele>
        <time>2025-04-29T07:26:54Z</time>
      </trkpt>
      <trkpt lat="42.788967015221715" lon="-4.247061973437667">
        <ele>906.17999999999995</ele>
        <time>2025-04-29T07:26:55Z</time>
      </trkpt>
      <trkpt lat="42.788965003564954" lon="-4.246984021738172">
        <ele>906.17999999999995</ele>
        <time>2025-04-29T07:26:56Z</time>
      </trkpt>
      <trkpt lat="42.78895896859467" lon="-4.246752010658383">
        <ele>905.70000000000005</ele>
        <time>2025-04-29T07:26:57Z</time>
      </trkpt>
      <trkpt lat="42.78895896859467" lon="-4.246741030365229">
        <ele>905.70000000000005</ele>
        <time>2025-04-29T07:26:58Z</time>
      </trkpt>
      <trkpt lat="42.788938013836741" lon="-4.245414007455111">
        <ele>905.70000000000005</ele>
        <time>2025-04-29T07:27:07Z</time>
      </trkpt>
      <trkpt lat="42.788943964987993" lon="-4.245300013571978">
        <ele>905.70000000000005</ele>
        <time>2025-04-29T07:27:08Z</time>
      </trkpt>
      <trkpt lat="42.788852015510201" lon="-4.245014023035765">
        <ele>905.22000000000003</ele>
        <time>2025-04-29T07:27:09Z</time>
      </trkpt>
      <trkpt lat="42.788852015510201" lon="-4.245014023035765">
        <ele>904.74000000000001</ele>
        <time>2025-04-29T07:27:10Z</time>
      </trkpt>
      <trkpt lat="42.788800969719887" lon="-4.244902040809393">
        <ele>904.25999999999999</ele>
        <time>2025-04-29T07:27:11Z</time>
      </trkpt>
      <trkpt lat="42.788754031062126" lon="-4.244799027219415">
        <ele>904.25999999999999</ele>
        <time>2025-04-29T07:27:12Z</time>
      </trkpt>
      <trkpt lat="42.788770040497184" lon="-4.244691990315914">
        <ele>904.25999999999999</ele>
        <time>2025-04-29T07:27:13Z</time>
      </trkpt>
      <trkpt lat="42.788799963891506" lon="-4.244593000039458">
        <ele>904.25999999999999</ele>
        <time>2025-04-29T07:27:14Z</time>
      </trkpt>
      <trkpt lat="42.788854027166963" lon="-4.244537008926272">
        <ele>904.25999999999999</ele>
        <time>2025-04-29T07:27:15Z</time>
      </trkpt>
      <trkpt lat="42.788923010230064" lon="-4.244498033076525">
        <ele>904.74000000000001</ele>
        <time>2025-04-29T07:27:16Z</time>
      </trkpt>
      <trkpt lat="42.78900196775794" lon="-4.244478000327945">
        <ele>904.74000000000001</ele>
        <time>2025-04-29T07:27:17Z</time>
      </trkpt>
      <trkpt lat="42.789049996063113" lon="-4.244533991441131">
        <ele>905.22000000000003</ele>
        <time>2025-04-29T07:27:18Z</time>
      </trkpt>
      <trkpt lat="42.789115961641073" lon="-4.244610015302897">
        <ele>905.22000000000003</ele>
        <time>2025-04-29T07:27:19Z</time>
      </trkpt>
      <trkpt lat="42.78913096524775" lon="-4.244628036394715">
        <ele>905.70000000000005</ele>
        <time>2025-04-29T07:27:20Z</time>
      </trkpt>
      <trkpt lat="42.789302039891481" lon="-4.244800033047795">
        <ele>905.70000000000005</ele>
        <time>2025-04-29T07:27:21Z</time>
      </trkpt>
      <trkpt lat="42.789474036544561" lon="-4.244906986132264">
        <ele>905.70000000000005</ele>
        <time>2025-04-29T07:27:23Z</time>
      </trkpt>
      <trkpt lat="42.789553999900818" lon="-4.245018968358636">
        <ele>905.70000000000005</ele>
        <time>2025-04-29T07:27:24Z</time>
      </trkpt>
      <trkpt lat="42.789595993235707" lon="-4.245147965848446">
        <ele>905.70000000000005</ele>
        <time>2025-04-29T07:27:25Z</time>
      </trkpt>
      <trkpt lat="42.789621977135539" lon="-4.245314011350274">
        <ele>905.70000000000005</ele>
        <time>2025-04-29T07:27:26Z</time>
      </trkpt>
      <trkpt lat="42.789647039026022" lon="-4.245481984689832">
        <ele>906.17999999999995</ele>
        <time>2025-04-29T07:27:27Z</time>
      </trkpt>
      <trkpt lat="42.78966598212719" lon="-4.245659010484815">
        <ele>906.17999999999995</ele>
        <time>2025-04-29T07:27:28Z</time>
      </trkpt>
      <trkpt lat="42.78968702070415" lon="-4.245846010744572">
        <ele>906.65999999999997</ele>
        <time>2025-04-29T07:27:29Z</time>
      </trkpt>
      <trkpt lat="42.78970998711884" lon="-4.246066035702825">
        <ele>906.65999999999997</ele>
        <time>2025-04-29T07:27:30Z</time>
      </trkpt>
      <trkpt lat="42.789764972403646" lon="-4.246217999607325">
        <ele>907.13999999999999</ele>
        <time>2025-04-29T07:27:31Z</time>
      </trkpt>
      <trkpt lat="42.789836972951889" lon="-4.246397037059069">
        <ele>907.13999999999999</ele>
        <time>2025-04-29T07:27:32Z</time>
      </trkpt>
      <trkpt lat="42.789931017905474" lon="-4.246550006791949">
        <ele>907.13999999999999</ele>
        <time>2025-04-29T07:27:33Z</time>
      </trkpt>
      <trkpt lat="42.790994010865688" lon="-4.24848304130137">
        <ele>917.24000000000001</ele>
        <time>2025-04-29T07:27:46Z</time>
      </trkpt>
      <trkpt lat="42.791128037497401" lon="-4.24872200936079">
        <ele>917.24000000000001</ele>
        <time>2025-04-29T07:27:48Z</time>
      </trkpt>
      <trkpt lat="42.791188973933458" lon="-4.24882996827364">
        <ele>917.72000000000003</ele>
        <time>2025-04-29T07:27:49Z</time>
      </trkpt>
      <trkpt lat="42.791387960314751" lon="-4.248940022662282">
        <ele>917.24000000000001</ele>
        <time>2025-04-29T07:27:51Z</time>
      </trkpt>
      <trkpt lat="42.79142701998353" lon="-4.249027026817203">
        <ele>916.75</ele>
        <time>2025-04-29T07:27:52Z</time>
      </trkpt>
      <trkpt lat="42.79140698723495" lon="-4.249122999608517">
        <ele>916.75</ele>
        <time>2025-04-29T07:27:53Z</time>
      </trkpt>
      <trkpt lat="42.791371028870344" lon="-4.24938996322453">
        <ele>916.26999999999998</ele>
        <time>2025-04-29T07:27:55Z</time>
      </trkpt>
      <trkpt lat="42.791410004720092" lon="-4.249503035098314">
        <ele>916.26999999999998</ele>
        <time>2025-04-29T07:27:56Z</time>
      </trkpt>
      <trkpt lat="42.791845025494695" lon="-4.250774988904595">
        <ele>912.90999999999997</ele>
        <time>2025-04-29T07:28:05Z</time>
      </trkpt>
      <trkpt lat="42.792176026850939" lon="-4.251905959099531">
        <ele>913.38999999999999</ele>
        <time>2025-04-29T07:28:16Z</time>
      </trkpt>
      <trkpt lat="42.792594032362103" lon="-4.253184031695128">
        <ele>911.95000000000005</ele>
        <time>2025-04-29T07:28:28Z</time>
      </trkpt>
      <trkpt lat="42.792626973241568" lon="-4.253278998658061">
        <ele>911.95000000000005</ele>
        <time>2025-04-29T07:28:29Z</time>
      </trkpt>
      <trkpt lat="42.792662009596825" lon="-4.253380000591278">
        <ele>911.47000000000003</ele>
        <time>2025-04-29T07:28:30Z</time>
      </trkpt>
      <trkpt lat="42.793078003451228" lon="-4.254515999928117">
        <ele>909.53999999999996</ele>
        <time>2025-04-29T07:28:42Z</time>
      </trkpt>
      <trkpt lat="42.793493997305632" lon="-4.255643030628562">
        <ele>907.62</ele>
        <time>2025-04-29T07:28:54Z</time>
      </trkpt>
      <trkpt lat="42.793514030054212" lon="-4.255744032561779">
        <ele>907.62</ele>
        <time>2025-04-29T07:28:55Z</time>
      </trkpt>
      <trkpt lat="42.793522998690605" lon="-4.255846962332726">
        <ele>907.62</ele>
        <time>2025-04-29T07:28:56Z</time>
      </trkpt>
      <trkpt lat="42.793592987582088" lon="-4.256168995052576">
        <ele>907.62</ele>
        <time>2025-04-29T07:28:59Z</time>
      </trkpt>
      <trkpt lat="42.7936199773103" lon="-4.256277037784457">
        <ele>907.62</ele>
        <time>2025-04-29T07:29:00Z</time>
      </trkpt>
      <trkpt lat="42.793666999787092" lon="-4.256490021944046">
        <ele>907.62</ele>
        <time>2025-04-29T07:29:02Z</time>
      </trkpt>
      <trkpt lat="42.793689966201782" lon="-4.256594963371754">
        <ele>907.62</ele>
        <time>2025-04-29T07:29:03Z</time>
      </trkpt>
      <trkpt lat="42.793719973415136" lon="-4.256796967238188">
        <ele>907.62</ele>
        <time>2025-04-29T07:29:05Z</time>
      </trkpt>
      <trkpt lat="42.793729025870562" lon="-4.256956977769733">
        <ele>907.62</ele>
        <time>2025-04-29T07:29:06Z</time>
      </trkpt>
      <trkpt lat="42.79376900754869" lon="-4.257039036601782">
        <ele>908.10000000000002</ele>
        <time>2025-04-29T07:29:07Z</time>
      </trkpt>
      <trkpt lat="42.793936980888247" lon="-4.257158981636167">
        <ele>909.05999999999995</ele>
        <time>2025-04-29T07:29:08Z</time>
      </trkpt>
      <trkpt lat="42.793945027515292" lon="-4.257174991071224">
        <ele>909.53999999999996</ele>
        <time>2025-04-29T07:29:09Z</time>
      </trkpt>
      <trkpt lat="42.794440984725952" lon="-4.258149974048138">
        <ele>914.35000000000002</ele>
        <time>2025-04-29T07:29:20Z</time>
      </trkpt>
      <trkpt lat="42.79456595890224" lon="-4.258408974856138">
        <ele>915.30999999999995</ele>
        <time>2025-04-29T07:29:23Z</time>
      </trkpt>
      <trkpt lat="42.794678024947643" lon="-4.258681973442435">
        <ele>916.26999999999998</ele>
        <time>2025-04-29T07:29:26Z</time>
      </trkpt>
      <trkpt lat="42.794751031324267" lon="-4.258863022550941">
        <ele>917.24000000000001</ele>
        <time>2025-04-29T07:29:28Z</time>
      </trkpt>
      <trkpt lat="42.794773997738957" lon="-4.258919013664126">
        <ele>918.20000000000005</ele>
        <time>2025-04-29T07:29:29Z</time>
      </trkpt>
      <trkpt lat="42.79497398994863" lon="-4.259531982243061">
        <ele>922.03999999999996</ele>
        <time>2025-04-29T07:29:38Z</time>
      </trkpt>
      <trkpt lat="42.795182028785348" lon="-4.259927021339536">
        <ele>923.96000000000004</ele>
        <time>2025-04-29T07:29:45Z</time>
      </trkpt>
      <trkpt lat="42.795212035998702" lon="-4.259987035766244">
        <ele>923.96000000000004</ele>
        <time>2025-04-29T07:29:46Z</time>
      </trkpt>
      <trkpt lat="42.795241037383676" lon="-4.26004596054554">
        <ele>924.45000000000005</ele>
        <time>2025-04-29T07:29:47Z</time>
      </trkpt>
      <trkpt lat="42.795271966606379" lon="-4.260106980800629">
        <ele>924.45000000000005</ele>
        <time>2025-04-29T07:29:48Z</time>
      </trkpt>
      <trkpt lat="42.795302979648113" lon="-4.260170012712479">
        <ele>924.92999999999995</ele>
        <time>2025-04-29T07:29:49Z</time>
      </trkpt>
      <trkpt lat="42.795336004346609" lon="-4.260235978290439">
        <ele>924.92999999999995</ele>
        <time>2025-04-29T07:29:50Z</time>
      </trkpt>
      <trkpt lat="42.795406999066472" lon="-4.260377967730165">
        <ele>924.92999999999995</ele>
        <time>2025-04-29T07:29:52Z</time>
      </trkpt>
      <trkpt lat="42.79544304125011" lon="-4.260449968278408">
        <ele>924.92999999999995</ele>
        <time>2025-04-29T07:29:53Z</time>
      </trkpt>
      <trkpt lat="42.795533984899521" lon="-4.260684996843338">
        <ele>925.40999999999997</ele>
        <time>2025-04-29T07:29:56Z</time>
      </trkpt>
      <trkpt lat="42.795559968799353" lon="-4.260760014876723">
        <ele>924.92999999999995</ele>
        <time>2025-04-29T07:29:57Z</time>
      </trkpt>
      <trkpt lat="42.79559500515461" lon="-4.260905021801591">
        <ele>925.40999999999997</ele>
        <time>2025-04-29T07:29:59Z</time>
      </trkpt>
      <trkpt lat="42.795603973791003" lon="-4.260993031784892">
        <ele>925.40999999999997</ele>
        <time>2025-04-29T07:30:00Z</time>
      </trkpt>
      <trkpt lat="42.795611014589667" lon="-4.261065032333136">
        <ele>925.88999999999999</ele>
        <time>2025-04-29T07:30:01Z</time>
      </trkpt>
      <trkpt lat="42.795593999326229" lon="-4.261136027052999">
        <ele>925.88999999999999</ele>
        <time>2025-04-29T07:30:02Z</time>
      </trkpt>
      <trkpt lat="42.79557203873992" lon="-4.261231999844313">
        <ele>926.37</ele>
        <time>2025-04-29T07:30:03Z</time>
      </trkpt>
      <trkpt lat="42.795549994334579" lon="-4.261329984292388">
        <ele>925.88999999999999</ele>
        <time>2025-04-29T07:30:04Z</time>
      </trkpt>
      <trkpt lat="42.795514035969973" lon="-4.261401984840632">
        <ele>925.40999999999997</ele>
        <time>2025-04-29T07:30:05Z</time>
      </trkpt>
      <trkpt lat="42.795468019321561" lon="-4.261487983167172">
        <ele>925.40999999999997</ele>
        <time>2025-04-29T07:30:06Z</time>
      </trkpt>
      <trkpt lat="42.794980024918914" lon="-4.262313013896346">
        <ele>921.08000000000004</ele>
        <time>2025-04-29T07:30:16Z</time>
      </trkpt>
      <trkpt lat="42.794920010492206" lon="-4.262503031641245">
        <ele>920.12</ele>
        <time>2025-04-29T07:30:18Z</time>
      </trkpt>
      <trkpt lat="42.794890003278852" lon="-4.262597998604178">
        <ele>920.12</ele>
        <time>2025-04-29T07:30:19Z</time>
      </trkpt>
      <trkpt lat="42.794858990237117" lon="-4.262694977223873">
        <ele>919.63999999999999</ele>
        <time>2025-04-29T07:30:20Z</time>
      </trkpt>
      <trkpt lat="42.794794030487537" lon="-4.263105019927025">
        <ele>918.67999999999995</ele>
        <time>2025-04-29T07:30:24Z</time>
      </trkpt>
      <trkpt lat="42.794784978032112" lon="-4.263209039345384">
        <ele>918.67999999999995</ele>
        <time>2025-04-29T07:30:25Z</time>
      </trkpt>
      <trkpt lat="42.794777015224099" lon="-4.26331096328795">
        <ele>918.67999999999995</ele>
        <time>2025-04-29T07:30:26Z</time>
      </trkpt>
      <trkpt lat="42.794859996065497" lon="-4.263425040990114">
        <ele>918.67999999999995</ele>
        <time>2025-04-29T07:30:27Z</time>
      </trkpt>
      <trkpt lat="42.794859996065497" lon="-4.263511039316654">
        <ele>918.67999999999995</ele>
        <time>2025-04-29T07:30:28Z</time>
      </trkpt>
      <trkpt lat="42.794936019927263" lon="-4.263813961297274">
        <ele>918.20000000000005</ele>
        <time>2025-04-29T07:30:31Z</time>
      </trkpt>
      <trkpt lat="42.794977007433772" lon="-4.263981012627482">
        <ele>917.24000000000001</ele>
        <time>2025-04-29T07:30:33Z</time>
      </trkpt>
      <trkpt lat="42.795046996325254" lon="-4.26438401453197">
        <ele>915.30999999999995</ele>
        <time>2025-04-29T07:30:41Z</time>
      </trkpt>
      <trkpt lat="42.795087983831763" lon="-4.264588030055165">
        <ele>914.83000000000004</ele>
        <time>2025-04-29T07:30:45Z</time>
      </trkpt>
      <trkpt lat="42.795099969953299" lon="-4.264645026996732">
        <ele>914.83000000000004</ele>
        <time>2025-04-29T07:30:46Z</time>
      </trkpt>
      <trkpt lat="42.795110028237104" lon="-4.264696994796395">
        <ele>914.83000000000004</ele>
        <time>2025-04-29T07:30:47Z</time>
      </trkpt>
      <trkpt lat="42.795121008530259" lon="-4.264749968424439">
        <ele>914.83000000000004</ele>
        <time>2025-04-29T07:30:48Z</time>
      </trkpt>
      <trkpt lat="42.795134000480175" lon="-4.264802020043135">
        <ele>914.35000000000002</ele>
        <time>2025-04-29T07:30:49Z</time>
      </trkpt>
      <trkpt lat="42.795147998258471" lon="-4.264855999499559">
        <ele>914.35000000000002</ele>
        <time>2025-04-29T07:30:50Z</time>
      </trkpt>
      <trkpt lat="42.795190997421741" lon="-4.265126986429095">
        <ele>913.87</ele>
        <time>2025-04-29T07:30:59Z</time>
      </trkpt>
      <trkpt lat="42.79525101184845" lon="-4.265482965856791">
        <ele>912.90999999999997</ele>
        <time>2025-04-29T07:31:07Z</time>
      </trkpt>
      <trkpt lat="42.795262997969985" lon="-4.265545997768641">
        <ele>912.90999999999997</ele>
        <time>2025-04-29T07:31:08Z</time>
      </trkpt>
      <trkpt lat="42.79527397826314" lon="-4.265610035508871">
        <ele>912.90999999999997</ele>
        <time>2025-04-29T07:31:09Z</time>
      </trkpt>
      <trkpt lat="42.795284958556294" lon="-4.265683963894844">
        <ele>912.90999999999997</ele>
        <time>2025-04-29T07:31:10Z</time>
      </trkpt>
      <trkpt lat="42.795328041538596" lon="-4.265942964702845">
        <ele>912.42999999999995</ele>
        <time>2025-04-29T07:31:13Z</time>
      </trkpt>
      <trkpt lat="42.795344972983003" lon="-4.266030974686146">
        <ele>912.42999999999995</ele>
        <time>2025-04-29T07:31:14Z</time>
      </trkpt>
      <trkpt lat="42.795497020706534" lon="-4.266845025122166">
        <ele>910.99000000000001</ele>
        <time>2025-04-29T07:31:22Z</time>
      </trkpt>
      <trkpt lat="42.795516969636083" lon="-4.266951978206635">
        <ele>910.50999999999999</ele>
        <time>2025-04-29T07:31:23Z</time>
      </trkpt>
      <trkpt lat="42.795769013464451" lon="-4.268355024978519">
        <ele>909.05999999999995</ele>
        <time>2025-04-29T07:31:36Z</time>
      </trkpt>
      <trkpt lat="42.795805977657437" lon="-4.268558034673333">
        <ele>909.05999999999995</ele>
        <time>2025-04-29T07:31:38Z</time>
      </trkpt>
      <trkpt lat="42.795825004577637" lon="-4.26866096444428">
        <ele>909.05999999999995</ele>
        <time>2025-04-29T07:31:39Z</time>
      </trkpt>
      <trkpt lat="42.795899016782641" lon="-4.269063966348767">
        <ele>908.58000000000004</ele>
        <time>2025-04-29T07:31:43Z</time>
      </trkpt>
      <trkpt lat="42.79591703787446" lon="-4.269163040444255">
        <ele>908.58000000000004</ele>
        <time>2025-04-29T07:31:44Z</time>
      </trkpt>
      <trkpt lat="42.796115018427372" lon="-4.270295016467571">
        <ele>910.02999999999997</ele>
        <time>2025-04-29T07:31:54Z</time>
      </trkpt>
      <trkpt lat="42.79613496735692" lon="-4.270411022007465">
        <ele>910.02999999999997</ele>
        <time>2025-04-29T07:31:55Z</time>
      </trkpt>
      <trkpt lat="42.796156005933881" lon="-4.270529039204121">
        <ele>910.50999999999999</ele>
        <time>2025-04-29T07:31:56Z</time>
      </trkpt>
      <trkpt lat="42.796382987871766" lon="-4.271749025210738">
        <ele>913.87</ele>
        <time>2025-04-29T07:32:07Z</time>
      </trkpt>
      <trkpt lat="42.796400003135204" lon="-4.271856984123588">
        <ele>913.38999999999999</ele>
        <time>2025-04-29T07:32:08Z</time>
      </trkpt>
      <trkpt lat="42.796417018398643" lon="-4.271966032683849">
        <ele>913.38999999999999</ele>
        <time>2025-04-29T07:32:09Z</time>
      </trkpt>
      <trkpt lat="42.796435039490461" lon="-4.272079020738602">
        <ele>913.87</ele>
        <time>2025-04-29T07:32:10Z</time>
      </trkpt>
      <trkpt lat="42.796450965106487" lon="-4.272200977429748">
        <ele>913.87</ele>
        <time>2025-04-29T07:32:11Z</time>
      </trkpt>
      <trkpt lat="42.796460017561913" lon="-4.272328969091177">
        <ele>913.87</ele>
        <time>2025-04-29T07:32:12Z</time>
      </trkpt>
      <trkpt lat="42.796469992026687" lon="-4.272468024864793">
        <ele>913.87</ele>
        <time>2025-04-29T07:32:13Z</time>
      </trkpt>
      <trkpt lat="42.796480972319841" lon="-4.272617977112532">
        <ele>913.87</ele>
        <time>2025-04-29T07:32:14Z</time>
      </trkpt>
      <trkpt lat="42.796445013955235" lon="-4.274112973362207">
        <ele>913.38999999999999</ele>
        <time>2025-04-29T07:32:22Z</time>
      </trkpt>
      <trkpt lat="42.796329008415341" lon="-4.275865964591503">
        <ele>912.90999999999997</ele>
        <time>2025-04-29T07:32:30Z</time>
      </trkpt>
      <trkpt lat="42.796363038942218" lon="-4.276075009256601">
        <ele>912.90999999999997</ele>
        <time>2025-04-29T07:32:31Z</time>
      </trkpt>
      <trkpt lat="42.796395979821682" lon="-4.276283970102668">
        <ele>912.90999999999997</ele>
        <time>2025-04-29T07:32:32Z</time>
      </trkpt>
      <trkpt lat="42.796430010348558" lon="-4.276489997282624">
        <ele>912.90999999999997</ele>
        <time>2025-04-29T07:32:33Z</time>
      </trkpt>
      <trkpt lat="42.796492036432028" lon="-4.276688983663917">
        <ele>912.90999999999997</ele>
        <time>2025-04-29T07:32:34Z</time>
      </trkpt>
      <trkpt lat="42.796580968424678" lon="-4.27686701528728">
        <ele>912.90999999999997</ele>
        <time>2025-04-29T07:32:35Z</time>
      </trkpt>
      <trkpt lat="42.796685993671417" lon="-4.277033982798457">
        <ele>912.90999999999997</ele>
        <time>2025-04-29T07:32:36Z</time>
      </trkpt>
      <trkpt lat="42.796797975897789" lon="-4.27718703635037">
        <ele>912.42999999999995</ele>
        <time>2025-04-29T07:32:37Z</time>
      </trkpt>
      <trkpt lat="42.79692797921598" lon="-4.277320979163051">
        <ele>912.42999999999995</ele>
        <time>2025-04-29T07:32:38Z</time>
      </trkpt>
      <trkpt lat="42.797068962827325" lon="-4.277431033551693">
        <ele>912.42999999999995</ele>
        <time>2025-04-29T07:32:39Z</time>
      </trkpt>
      <trkpt lat="42.797241965308785" lon="-4.277565982192755">
        <ele>912.90999999999997</ele>
        <time>2025-04-29T07:32:40Z</time>
      </trkpt>
      <trkpt lat="42.797381021082401" lon="-4.27762096747756">
        <ele>912.90999999999997</ele>
        <time>2025-04-29T07:32:41Z</time>
      </trkpt>
      <trkpt lat="42.797552011907101" lon="-4.277662038803101">
        <ele>913.38999999999999</ele>
        <time>2025-04-29T07:32:42Z</time>
      </trkpt>
      <trkpt lat="42.797728031873703" lon="-4.277703026309609">
        <ele>914.35000000000002</ele>
        <time>2025-04-29T07:32:43Z</time>
      </trkpt>
      <trkpt lat="42.799418997019529" lon="-4.278104016557336">
        <ele>920.12</ele>
        <time>2025-04-29T07:32:52Z</time>
      </trkpt>
      <trkpt lat="42.80017102137208" lon="-4.278137963265181">
        <ele>921.55999999999995</ele>
        <time>2025-04-29T07:32:56Z</time>
      </trkpt>
      <trkpt lat="42.800362966954708" lon="-4.27811399102211">
        <ele>922.03999999999996</ele>
        <time>2025-04-29T07:32:57Z</time>
      </trkpt>
      <trkpt lat="42.800552984699607" lon="-4.278060011565685">
        <ele>922.51999999999998</ele>
        <time>2025-04-29T07:32:58Z</time>
      </trkpt>
      <trkpt lat="42.801598040387034" lon="-4.277587020769715">
        <ele>923</ele>
        <time>2025-04-29T07:33:04Z</time>
      </trkpt>
      <trkpt lat="42.801775988191366" lon="-4.277553996071219">
        <ele>923</ele>
        <time>2025-04-29T07:33:05Z</time>
      </trkpt>
      <trkpt lat="42.80195401981473" lon="-4.277524994686246">
        <ele>923.48000000000002</ele>
        <time>2025-04-29T07:33:06Z</time>
      </trkpt>
      <trkpt lat="42.802134985104203" lon="-4.277561036869884">
        <ele>923</ele>
        <time>2025-04-29T07:33:07Z</time>
      </trkpt>
      <trkpt lat="42.802316034212708" lon="-4.27759800106287">
        <ele>923.48000000000002</ele>
        <time>2025-04-29T07:33:08Z</time>
      </trkpt>
      <trkpt lat="42.802495993673801" lon="-4.277633959427476">
        <ele>923.96000000000004</ele>
        <time>2025-04-29T07:33:09Z</time>
      </trkpt>
      <trkpt lat="42.804065002128482" lon="-4.2777069658041">
        <ele>925.88999999999999</ele>
        <time>2025-04-29T07:33:17Z</time>
      </trkpt>
      <trkpt lat="42.805893011391163" lon="-4.277681987732649">
        <ele>924.92999999999995</ele>
        <time>2025-04-29T07:33:26Z</time>
      </trkpt>
      <trkpt lat="42.807897962629795" lon="-4.277908969670534">
        <ele>923.96000000000004</ele>
        <time>2025-04-29T07:33:36Z</time>
      </trkpt>
      <trkpt lat="42.810260988771915" lon="-4.277734961360693">
        <ele>925.40999999999997</ele>
        <time>2025-04-29T07:33:48Z</time>
      </trkpt>
      <trkpt lat="42.812706995755434" lon="-4.277631025761366">
        <ele>927.33000000000004</ele>
        <time>2025-04-29T07:34:00Z</time>
      </trkpt>
      <trkpt lat="42.814034018665552" lon="-4.278137041255832">
        <ele>929.25</ele>
        <time>2025-04-29T07:34:07Z</time>
      </trkpt>
      <trkpt lat="42.815289963036776" lon="-4.279384016990662">
        <ele>927.80999999999995</ele>
        <time>2025-04-29T07:34:15Z</time>
      </trkpt>
      <trkpt lat="42.816934995353222" lon="-4.28097196854651">
        <ele>927.80999999999995</ele>
        <time>2025-04-29T07:34:25Z</time>
      </trkpt>
      <trkpt lat="42.818605005741119" lon="-4.282077038660646">
        <ele>932.13999999999999</ele>
        <time>2025-04-29T07:34:34Z</time>
      </trkpt>
      <trkpt lat="42.821061993017793" lon="-4.283424010500312">
        <ele>937.89999999999998</ele>
        <time>2025-04-29T07:34:46Z</time>
      </trkpt>
      <trkpt lat="42.824581973254681" lon="-4.285022020339966">
        <ele>943.66999999999996</ele>
        <time>2025-04-29T07:35:03Z</time>
      </trkpt>
      <trkpt lat="42.827656958252192" lon="-4.286463959142566">
        <ele>951.84000000000003</ele>
        <time>2025-04-29T07:35:18Z</time>
      </trkpt>
      <trkpt lat="42.829139968380332" lon="-4.287714036181569">
        <ele>954.25</ele>
        <time>2025-04-29T07:35:26Z</time>
      </trkpt>
      <trkpt lat="42.832167008891702" lon="-4.291053973138332">
        <ele>948.96000000000004</ele>
        <time>2025-04-29T07:35:43Z</time>
      </trkpt>
      <trkpt lat="42.833985965698957" lon="-4.293362013995647">
        <ele>952.32000000000005</ele>
        <time>2025-04-29T07:35:54Z</time>
      </trkpt>
      <trkpt lat="42.835733005777001" lon="-4.296226026490331">
        <ele>953.76999999999998</ele>
        <time>2025-04-29T07:36:06Z</time>
      </trkpt>
      <trkpt lat="42.837167987599969" lon="-4.29916899651289">
        <ele>954.25</ele>
        <time>2025-04-29T07:36:18Z</time>
      </trkpt>
      <trkpt lat="42.838729033246636" lon="-4.302345989271998">
        <ele>960.49000000000001</ele>
        <time>2025-04-29T07:36:31Z</time>
      </trkpt>
      <trkpt lat="42.839620029553771" lon="-4.304201994091272">
        <ele>962.41999999999996</ele>
        <time>2025-04-29T07:36:37Z</time>
      </trkpt>
      <trkpt lat="42.840772038325667" lon="-4.30662302300334">
        <ele>961.46000000000004</ele>
        <time>2025-04-29T07:36:46Z</time>
      </trkpt>
      <trkpt lat="42.841492965817451" lon="-4.308196976780891">
        <ele>961.94000000000005</ele>
        <time>2025-04-29T07:36:54Z</time>
      </trkpt>
      <trkpt lat="42.842130996286869" lon="-4.309000968933106">
        <ele>962.41999999999996</ele>
        <time>2025-04-29T07:37:01Z</time>
      </trkpt>
      <trkpt lat="42.843062980100513" lon="-4.309671018272638">
        <ele>965.29999999999995</ele>
        <time>2025-04-29T07:37:10Z</time>
      </trkpt>
      <trkpt lat="42.844016002491117" lon="-4.310687994584441">
        <ele>968.66999999999996</ele>
        <time>2025-04-29T07:37:20Z</time>
      </trkpt>
      <trkpt lat="42.844526963308454" lon="-4.31214602664113">
        <ele>972.50999999999999</ele>
        <time>2025-04-29T07:37:30Z</time>
      </trkpt>
      <trkpt lat="42.844614973291755" lon="-4.312627986073494">
        <ele>973.47000000000003</ele>
        <time>2025-04-29T07:37:33Z</time>
      </trkpt>
      <trkpt lat="42.844539033249021" lon="-4.314176961779594">
        <ele>974.42999999999995</ele>
        <time>2025-04-29T07:37:41Z</time>
      </trkpt>
      <trkpt lat="42.844199985265732" lon="-4.317018007859588">
        <ele>973.95000000000005</ele>
        <time>2025-04-29T07:37:52Z</time>
      </trkpt>
      <trkpt lat="42.843654993921518" lon="-4.3215970415622">
        <ele>979.72000000000003</ele>
        <time>2025-04-29T07:38:07Z</time>
      </trkpt>
      <trkpt lat="42.8436369728297" lon="-4.323181975632906">
        <ele>978.27999999999997</ele>
        <time>2025-04-29T07:38:12Z</time>
      </trkpt>
      <trkpt lat="42.843700004741549" lon="-4.323495961725712">
        <ele>977.79999999999995</ele>
        <time>2025-04-29T07:38:13Z</time>
      </trkpt>
      <trkpt lat="42.843777034431696" lon="-4.323803996667266">
        <ele>976.84000000000003</ele>
        <time>2025-04-29T07:38:14Z</time>
      </trkpt>
      <trkpt lat="42.843879964202642" lon="-4.324098033830524">
        <ele>976.36000000000001</ele>
        <time>2025-04-29T07:38:15Z</time>
      </trkpt>
      <trkpt lat="42.843983983621001" lon="-4.32439299300313">
        <ele>975.38999999999999</ele>
        <time>2025-04-29T07:38:16Z</time>
      </trkpt>
      <trkpt lat="42.844124967232347" lon="-4.324661968275905">
        <ele>974.42999999999995</ele>
        <time>2025-04-29T07:38:17Z</time>
      </trkpt>
      <trkpt lat="42.844281038269401" lon="-4.324909988790751">
        <ele>973.95000000000005</ele>
        <time>2025-04-29T07:38:18Z</time>
      </trkpt>
      <trkpt lat="42.844438031315804" lon="-4.325160020962358">
        <ele>973.47000000000003</ele>
        <time>2025-04-29T07:38:19Z</time>
      </trkpt>
      <trkpt lat="42.844594018533826" lon="-4.325408963486552">
        <ele>973.47000000000003</ele>
        <time>2025-04-29T07:38:20Z</time>
      </trkpt>
      <trkpt lat="42.845467999577522" lon="-4.326893985271454">
        <ele>975.38999999999999</ele>
        <time>2025-04-29T07:38:26Z</time>
      </trkpt>
      <trkpt lat="42.845555003732443" lon="-4.327177964150906">
        <ele>975.88</ele>
        <time>2025-04-29T07:38:27Z</time>
      </trkpt>
      <trkpt lat="42.845628010109067" lon="-4.327468983829022">
        <ele>976.84000000000003</ele>
        <time>2025-04-29T07:38:28Z</time>
      </trkpt>
      <trkpt lat="42.845677966251969" lon="-4.327771989628673">
        <ele>977.79999999999995</ele>
        <time>2025-04-29T07:38:29Z</time>
      </trkpt>
      <trkpt lat="42.845729012042284" lon="-4.328077007085085">
        <ele>978.27999999999997</ele>
        <time>2025-04-29T07:38:30Z</time>
      </trkpt>
      <trkpt lat="42.846275009214878" lon="-4.332033013924956">
        <ele>981.15999999999997</ele>
        <time>2025-04-29T07:38:43Z</time>
      </trkpt>
      <trkpt lat="42.846926031634212" lon="-4.33614500798285">
        <ele>988.85000000000002</ele>
        <time>2025-04-29T07:38:56Z</time>
      </trkpt>
      <trkpt lat="42.848020037636161" lon="-4.339145980775356">
        <ele>989.33000000000004</ele>
        <time>2025-04-29T07:39:06Z</time>
      </trkpt>
      <trkpt lat="42.849231977015734" lon="-4.342733016237617">
        <ele>983.09000000000003</ele>
        <time>2025-04-29T07:39:18Z</time>
      </trkpt>
      <trkpt lat="42.849942008033395" lon="-4.34667200781405">
        <ele>983.09000000000003</ele>
        <time>2025-04-29T07:39:31Z</time>
      </trkpt>
      <trkpt lat="42.850202014669776" lon="-4.349771970883012">
        <ele>985.00999999999999</ele>
        <time>2025-04-29T07:39:41Z</time>
      </trkpt>
      <trkpt lat="42.85006295889616" lon="-4.354990040883422">
        <ele>977.79999999999995</ele>
        <time>2025-04-29T07:39:57Z</time>
      </trkpt>
      <trkpt lat="42.849774034693837" lon="-4.359362041577697">
        <ele>966.25999999999999</ele>
        <time>2025-04-29T07:40:10Z</time>
      </trkpt>
      <trkpt lat="42.84913600422442" lon="-4.361515017226338">
        <ele>963.38</ele>
        <time>2025-04-29T07:40:17Z</time>
      </trkpt>
      <trkpt lat="42.847555009648204" lon="-4.365180004388094">
        <ele>959.04999999999995</ele>
        <time>2025-04-29T07:40:30Z</time>
      </trkpt>
      <trkpt lat="42.847062991932034" lon="-4.36695696786046">
        <ele>958.57000000000005</ele>
        <time>2025-04-29T07:40:36Z</time>
      </trkpt>
      <trkpt lat="42.847044970840216" lon="-4.367266008630395">
        <ele>958.57000000000005</ele>
        <time>2025-04-29T07:40:37Z</time>
      </trkpt>
      <trkpt lat="42.847057962790132" lon="-4.367573959752917">
        <ele>958.09000000000003</ele>
        <time>2025-04-29T07:40:38Z</time>
      </trkpt>
      <trkpt lat="42.847090987488627" lon="-4.367881994694471">
        <ele>958.09000000000003</ele>
        <time>2025-04-29T07:40:39Z</time>
      </trkpt>
      <trkpt lat="42.847125018015504" lon="-4.368189023807645">
        <ele>957.61000000000001</ele>
        <time>2025-04-29T07:40:40Z</time>
      </trkpt>
      <trkpt lat="42.847211016342044" lon="-4.368473002687097">
        <ele>957.61000000000001</ele>
        <time>2025-04-29T07:40:41Z</time>
      </trkpt>
      <trkpt lat="42.8473100066185" lon="-4.368753964081407">
        <ele>957.13</ele>
        <time>2025-04-29T07:40:42Z</time>
      </trkpt>
      <trkpt lat="42.847417965531349" lon="-4.369024029001594">
        <ele>956.16999999999996</ele>
        <time>2025-04-29T07:40:43Z</time>
      </trkpt>
      <trkpt lat="42.847562972456217" lon="-4.369266014546156">
        <ele>955.69000000000005</ele>
        <time>2025-04-29T07:40:44Z</time>
      </trkpt>
      <trkpt lat="42.847730023786426" lon="-4.369476987048984">
        <ele>954.73000000000002</ele>
        <time>2025-04-29T07:40:45Z</time>
      </trkpt>
      <trkpt lat="42.847901014611125" lon="-4.36968301422894">
        <ele>953.76999999999998</ele>
        <time>2025-04-29T07:40:46Z</time>
      </trkpt>
      <trkpt lat="42.848070999607444" lon="-4.369889041408896">
        <ele>952.79999999999995</ele>
        <time>2025-04-29T07:40:47Z</time>
      </trkpt>
      <trkpt lat="42.848267974331975" lon="-4.370046034455299">
        <ele>951.36000000000001</ele>
        <time>2025-04-29T07:40:48Z</time>
      </trkpt>
      <trkpt lat="42.848467966541648" lon="-4.370192969217897">
        <ele>950.39999999999998</ele>
        <time>2025-04-29T07:40:49Z</time>
      </trkpt>
      <trkpt lat="42.848671982064843" lon="-4.370320038869977">
        <ele>949.91999999999996</ele>
        <time>2025-04-29T07:40:50Z</time>
      </trkpt>
      <trkpt lat="42.850949009880424" lon="-4.371656030416489">
        <ele>948.96000000000004</ele>
        <time>2025-04-29T07:41:01Z</time>
      </trkpt>
      <trkpt lat="42.852416010573506" lon="-4.372968971729279">
        <ele>950.39999999999998</ele>
        <time>2025-04-29T07:41:09Z</time>
      </trkpt>
      <trkpt lat="42.853331984952092" lon="-4.374510990455747">
        <ele>952.79999999999995</ele>
        <time>2025-04-29T07:41:16Z</time>
      </trkpt>
      <trkpt lat="42.853826014325023" lon="-4.376564975827932">
        <ele>953.76999999999998</ele>
        <time>2025-04-29T07:41:24Z</time>
      </trkpt>
      <trkpt lat="42.853803969919682" lon="-4.378609992563725">
        <ele>955.69000000000005</ele>
        <time>2025-04-29T07:41:31Z</time>
      </trkpt>
      <trkpt lat="42.853163005784154" lon="-4.38143502920866">
        <ele>961.46000000000004</ele>
        <time>2025-04-29T07:41:41Z</time>
      </trkpt>
      <trkpt lat="42.851871019229293" lon="-4.386293012648821">
        <ele>965.29999999999995</ele>
        <time>2025-04-29T07:41:58Z</time>
      </trkpt>
      <trkpt lat="42.851130980998278" lon="-4.389976020902395">
        <ele>961.94000000000005</ele>
        <time>2025-04-29T07:42:10Z</time>
      </trkpt>
      <trkpt lat="42.850971976295114" lon="-4.393248986452818">
        <ele>958.09000000000003</ele>
        <time>2025-04-29T07:42:21Z</time>
      </trkpt>
      <trkpt lat="42.850971976295114" lon="-4.397069960832596">
        <ele>956.16999999999996</ele>
        <time>2025-04-29T07:42:33Z</time>
      </trkpt>
      <trkpt lat="42.851086976006627" lon="-4.401651006191969">
        <ele>959.04999999999995</ele>
        <time>2025-04-29T07:42:47Z</time>
      </trkpt>
      <trkpt lat="42.851722994819283" lon="-4.403296960517764">
        <ele>960.00999999999999</ele>
        <time>2025-04-29T07:42:53Z</time>
      </trkpt>
      <trkpt lat="42.853761976584792" lon="-4.407897032797337">
        <ele>963.86000000000001</ele>
        <time>2025-04-29T07:43:10Z</time>
      </trkpt>
      <trkpt lat="42.855815961956978" lon="-4.412506995722652">
        <ele>970.11000000000001</ele>
        <time>2025-04-29T07:43:27Z</time>
      </trkpt>
      <trkpt lat="42.856536973267794" lon="-4.414106011390686">
        <ele>967.70000000000005</ele>
        <time>2025-04-29T07:43:34Z</time>
      </trkpt>
      <trkpt lat="42.857025973498821" lon="-4.41521099768579">
        <ele>966.74000000000001</ele>
        <time>2025-04-29T07:43:41Z</time>
      </trkpt>
      <trkpt lat="42.857576999813318" lon="-4.416671041399241">
        <ele>966.74000000000001</ele>
        <time>2025-04-29T07:43:51Z</time>
      </trkpt>
      <trkpt lat="42.85764598287642" lon="-4.417962022125721">
        <ele>966.74000000000001</ele>
        <time>2025-04-29T07:43:59Z</time>
      </trkpt>
      <trkpt lat="42.857338031753898" lon="-4.420062024146318">
        <ele>966.74000000000001</ele>
        <time>2025-04-29T07:44:12Z</time>
      </trkpt>
      <trkpt lat="42.856998983770609" lon="-4.422179963439703">
        <ele>971.07000000000005</ele>
        <time>2025-04-29T07:44:25Z</time>
      </trkpt>
      <trkpt lat="42.85665700212121" lon="-4.424114003777504">
        <ele>973.47000000000003</ele>
        <time>2025-04-29T07:44:37Z</time>
      </trkpt>
      <trkpt lat="42.856385009363294" lon="-4.425894990563393">
        <ele>973.47000000000003</ele>
        <time>2025-04-29T07:44:46Z</time>
      </trkpt>
      <trkpt lat="42.856201026588678" lon="-4.427917962893844">
        <ele>973.95000000000005</ele>
        <time>2025-04-29T07:44:53Z</time>
      </trkpt>
      <trkpt lat="42.855963986366987" lon="-4.4305519759655">
        <ele>969.63</ele>
        <time>2025-04-29T07:45:01Z</time>
      </trkpt>
      <trkpt lat="42.855972032994032" lon="-4.433823013678193">
        <ele>965.29999999999995</ele>
        <time>2025-04-29T07:45:11Z</time>
      </trkpt>
      <trkpt lat="42.856597993522882" lon="-4.438849976286292">
        <ele>964.34000000000003</ele>
        <time>2025-04-29T07:45:27Z</time>
      </trkpt>
      <trkpt lat="42.857106020674109" lon="-4.44279701448977">
        <ele>968.17999999999995</ele>
        <time>2025-04-29T07:45:40Z</time>
      </trkpt>
      <trkpt lat="42.857787972316146" lon="-4.448184985667467">
        <ele>969.63</ele>
        <time>2025-04-29T07:45:57Z</time>
      </trkpt>
      <trkpt lat="42.858409993350506" lon="-4.453170038759708">
        <ele>971.07000000000005</ele>
        <time>2025-04-29T07:46:13Z</time>
      </trkpt>
      <trkpt lat="42.859157994389534" lon="-4.458663035184145">
        <ele>975.38999999999999</ele>
        <time>2025-04-29T07:46:31Z</time>
      </trkpt>
      <trkpt lat="42.859916975721717" lon="-4.462660029530525">
        <ele>980.20000000000005</ele>
        <time>2025-04-29T07:46:44Z</time>
      </trkpt>
      <trkpt lat="42.860780982300639" lon="-4.465710036456585">
        <ele>985.97000000000003</ele>
        <time>2025-04-29T07:46:54Z</time>
      </trkpt>
      <trkpt lat="42.861670972779393" lon="-4.467259012162685">
        <ele>987.40999999999997</ele>
        <time>2025-04-29T07:47:00Z</time>
      </trkpt>
      <trkpt lat="42.861789995804429" lon="-4.467545002698898">
        <ele>987.40999999999997</ele>
        <time>2025-04-29T07:47:01Z</time>
      </trkpt>
      <trkpt lat="42.861870964989066" lon="-4.467853037640452">
        <ele>987.40999999999997</ele>
        <time>2025-04-29T07:47:02Z</time>
      </trkpt>
      <trkpt lat="42.861932991072536" lon="-4.46817297488451">
        <ele>987.40999999999997</ele>
        <time>2025-04-29T07:47:03Z</time>
      </trkpt>
      <trkpt lat="42.861980013549328" lon="-4.468496013432741">
        <ele>986.92999999999995</ele>
        <time>2025-04-29T07:47:04Z</time>
      </trkpt>
      <trkpt lat="42.861980013549328" lon="-4.468825003132224">
        <ele>986.45000000000005</ele>
        <time>2025-04-29T07:47:05Z</time>
      </trkpt>
      <trkpt lat="42.861980013549328" lon="-4.46915902197361">
        <ele>985.97000000000003</ele>
        <time>2025-04-29T07:47:06Z</time>
      </trkpt>
      <trkpt lat="42.861931985244155" lon="-4.469484994187951">
        <ele>985.49000000000001</ele>
        <time>2025-04-29T07:47:07Z</time>
      </trkpt>
      <trkpt lat="42.861858978867531" lon="-4.469795962795615">
        <ele>985.00999999999999</ele>
        <time>2025-04-29T07:47:08Z</time>
      </trkpt>
      <trkpt lat="42.861752025783062" lon="-4.470093017444015">
        <ele>984.52999999999997</ele>
        <time>2025-04-29T07:47:09Z</time>
      </trkpt>
      <trkpt lat="42.861645994707942" lon="-4.470389988273382">
        <ele>983.57000000000005</ele>
        <time>2025-04-29T07:47:10Z</time>
      </trkpt>
      <trkpt lat="42.861521020531654" lon="-4.470667010173202">
        <ele>983.09000000000003</ele>
        <time>2025-04-29T07:47:11Z</time>
      </trkpt>
      <trkpt lat="42.861346006393433" lon="-4.470903966575861">
        <ele>982.60000000000002</ele>
        <time>2025-04-29T07:47:12Z</time>
      </trkpt>
      <trkpt lat="42.86116898059845" lon="-4.471143018454313">
        <ele>981.63999999999999</ele>
        <time>2025-04-29T07:47:13Z</time>
      </trkpt>
      <trkpt lat="42.860964965075254" lon="-4.471331024542451">
        <ele>981.15999999999997</ele>
        <time>2025-04-29T07:47:14Z</time>
      </trkpt>
      <trkpt lat="42.860753992572427" lon="-4.471510984003544">
        <ele>981.15999999999997</ele>
        <time>2025-04-29T07:47:15Z</time>
      </trkpt>
      <trkpt lat="42.860527010634542" lon="-4.471640987321734">
        <ele>980.67999999999995</ele>
        <time>2025-04-29T07:47:16Z</time>
      </trkpt>
      <trkpt lat="42.860290976241231" lon="-4.471750035881996">
        <ele>980.67999999999995</ele>
        <time>2025-04-29T07:47:17Z</time>
      </trkpt>
      <trkpt lat="42.860058965161443" lon="-4.471855983138084">
        <ele>980.67999999999995</ele>
        <time>2025-04-29T07:47:18Z</time>
      </trkpt>
      <trkpt lat="42.85820497199893" lon="-4.472716972231865">
        <ele>982.12</ele>
        <time>2025-04-29T07:47:26Z</time>
      </trkpt>
      <trkpt lat="42.858003973960876" lon="-4.47289802134037">
        <ele>982.12</ele>
        <time>2025-04-29T07:47:27Z</time>
      </trkpt>
      <trkpt lat="42.857816973701119" lon="-4.473065994679928">
        <ele>982.12</ele>
        <time>2025-04-29T07:47:28Z</time>
      </trkpt>
      <trkpt lat="42.857652017846704" lon="-4.473322983831167">
        <ele>982.12</ele>
        <time>2025-04-29T07:47:29Z</time>
      </trkpt>
      <trkpt lat="42.857495024800301" lon="-4.473566981032491">
        <ele>982.12</ele>
        <time>2025-04-29T07:47:30Z</time>
      </trkpt>
      <trkpt lat="42.857367033138871" lon="-4.473830005154014">
        <ele>982.12</ele>
        <time>2025-04-29T07:47:31Z</time>
      </trkpt>
      <trkpt lat="42.857259996235371" lon="-4.474109038710594">
        <ele>982.60000000000002</ele>
        <time>2025-04-29T07:47:32Z</time>
      </trkpt>
      <trkpt lat="42.857163017615676" lon="-4.474386982619762">
        <ele>982.60000000000002</ele>
        <time>2025-04-29T07:47:33Z</time>
      </trkpt>
      <trkpt lat="42.857106020674109" lon="-4.474695017561317">
        <ele>983.09000000000003</ele>
        <time>2025-04-29T07:47:34Z</time>
      </trkpt>
      <trkpt lat="42.857058998197317" lon="-4.475009003654122">
        <ele>983.57000000000005</ele>
        <time>2025-04-29T07:47:35Z</time>
      </trkpt>
      <trkpt lat="42.857026979327202" lon="-4.475319972261787">
        <ele>983.57000000000005</ele>
        <time>2025-04-29T07:47:36Z</time>
      </trkpt>
      <trkpt lat="42.857045000419021" lon="-4.475638987496495">
        <ele>984.04999999999995</ele>
        <time>2025-04-29T07:47:37Z</time>
      </trkpt>
      <trkpt lat="42.85706402733922" lon="-4.475959008559585">
        <ele>984.04999999999995</ele>
        <time>2025-04-29T07:47:38Z</time>
      </trkpt>
      <trkpt lat="42.857082970440388" lon="-4.476281041279435">
        <ele>984.52999999999997</ele>
        <time>2025-04-29T07:47:39Z</time>
      </trkpt>
      <trkpt lat="42.857262007892132" lon="-4.479555012658238">
        <ele>985.49000000000001</ele>
        <time>2025-04-29T07:47:50Z</time>
      </trkpt>
      <trkpt lat="42.857432998716831" lon="-4.482286004349589">
        <ele>987.40999999999997</ele>
        <time>2025-04-29T07:48:01Z</time>
      </trkpt>
      <trkpt lat="42.857708008959889" lon="-4.484591027721763">
        <ele>988.85000000000002</ele>
        <time>2025-04-29T07:48:11Z</time>
      </trkpt>
      <trkpt lat="42.858357019722462" lon="-4.486146038398147">
        <ele>990.77999999999997</ele>
        <time>2025-04-29T07:48:18Z</time>
      </trkpt>
      <trkpt lat="42.859694017097354" lon="-4.487854018807411">
        <ele>994.62</ele>
        <time>2025-04-29T07:48:27Z</time>
      </trkpt>
      <trkpt lat="42.861214997246861" lon="-4.48976400308311">
        <ele>997.01999999999998</ele>
        <time>2025-04-29T07:48:39Z</time>
      </trkpt>
      <trkpt lat="42.861904995515943" lon="-4.490629015490413">
        <ele>997.99000000000001</ele>
        <time>2025-04-29T07:48:46Z</time>
      </trkpt>
      <trkpt lat="42.862947033718228" lon="-4.492231970652938">
        <ele>1002.3099999999999</ele>
        <time>2025-04-29T07:48:59Z</time>
      </trkpt>
      <trkpt lat="42.863857978954911" lon="-4.493987979367375">
        <ele>1004.72</ele>
        <time>2025-04-29T07:49:12Z</time>
      </trkpt>
      <trkpt lat="42.864001980051398" lon="-4.494259972125292">
        <ele>1005.2</ele>
        <time>2025-04-29T07:49:14Z</time>
      </trkpt>
      <trkpt lat="42.864066017791629" lon="-4.494398022070527">
        <ele>1005.2</ele>
        <time>2025-04-29T07:49:15Z</time>
      </trkpt>
      <trkpt lat="42.864182023331523" lon="-4.494649982079864">
        <ele>1005.6799999999999</ele>
        <time>2025-04-29T07:49:17Z</time>
      </trkpt>
      <trkpt lat="42.864232985302806" lon="-4.494760036468506">
        <ele>1005.6799999999999</ele>
        <time>2025-04-29T07:49:18Z</time>
      </trkpt>
      <trkpt lat="42.864259975031018" lon="-4.494870007038117">
        <ele>1005.6799999999999</ele>
        <time>2025-04-29T07:49:19Z</time>
      </trkpt>
      <trkpt lat="42.864269027486444" lon="-4.494995987042785">
        <ele>1005.2</ele>
        <time>2025-04-29T07:49:20Z</time>
      </trkpt>
      <trkpt lat="42.864257963374257" lon="-4.495106963440776">
        <ele>1005.2</ele>
        <time>2025-04-29T07:49:21Z</time>
      </trkpt>
      <trkpt lat="42.864241031929851" lon="-4.495216012001038">
        <ele>1004.72</ele>
        <time>2025-04-29T07:49:22Z</time>
      </trkpt>
      <trkpt lat="42.864146986976266" lon="-4.495837027207017">
        <ele>1001.83</ele>
        <time>2025-04-29T07:49:28Z</time>
      </trkpt>
      <trkpt lat="42.864166013896465" lon="-4.495938029140234">
        <ele>1001.35</ele>
        <time>2025-04-29T07:49:29Z</time>
      </trkpt>
      <trkpt lat="42.864195015281439" lon="-4.496036013588309">
        <ele>1000.87</ele>
        <time>2025-04-29T07:49:30Z</time>
      </trkpt>
      <trkpt lat="42.86424295976758" lon="-4.496116982772946">
        <ele>999.90999999999997</ele>
        <time>2025-04-29T07:49:31Z</time>
      </trkpt>
      <trkpt lat="42.864312026649714" lon="-4.496176997199655">
        <ele>999.42999999999995</ele>
        <time>2025-04-29T07:49:32Z</time>
      </trkpt>
      <trkpt lat="42.864387966692448" lon="-4.496236005797982">
        <ele>998.95000000000005</ele>
        <time>2025-04-29T07:49:33Z</time>
      </trkpt>
      <trkpt lat="42.864472037181258" lon="-4.496287973597646">
        <ele>998.47000000000003</ele>
        <time>2025-04-29T07:49:34Z</time>
      </trkpt>
      <trkpt lat="42.864554012194276" lon="-4.496340025216341">
        <ele>998.47000000000003</ele>
        <time>2025-04-29T07:49:35Z</time>
      </trkpt>
      <trkpt lat="42.864798009395599" lon="-4.496492994949222">
        <ele>998.47000000000003</ele>
        <time>2025-04-29T07:49:38Z</time>
      </trkpt>
      <trkpt lat="42.864876966923475" lon="-4.496543034911156">
        <ele>998.47000000000003</ele>
        <time>2025-04-29T07:49:39Z</time>
      </trkpt>
      <trkpt lat="42.865420030429959" lon="-4.496903959661722">
        <ele>998.95000000000005</ele>
        <time>2025-04-29T07:49:46Z</time>
      </trkpt>
      <trkpt lat="42.865465963259339" lon="-4.496990963816643">
        <ele>998.95000000000005</ele>
        <time>2025-04-29T07:49:47Z</time>
      </trkpt>
      <trkpt lat="42.865483984351158" lon="-4.497098000720143">
        <ele>999.42999999999995</ele>
        <time>2025-04-29T07:49:48Z</time>
      </trkpt>
      <trkpt lat="42.865498987957835" lon="-4.497195985168219">
        <ele>999.42999999999995</ele>
        <time>2025-04-29T07:49:49Z</time>
      </trkpt>
      <trkpt lat="42.865497982129455" lon="-4.497293969616294">
        <ele>999.90999999999997</ele>
        <time>2025-04-29T07:49:50Z</time>
      </trkpt>
      <trkpt lat="42.865485996007919" lon="-4.497402012348175">
        <ele>999.90999999999997</ele>
        <time>2025-04-29T07:49:51Z</time>
      </trkpt>
      <trkpt lat="42.865473004058003" lon="-4.497511982917786">
        <ele>999.90999999999997</ele>
        <time>2025-04-29T07:49:52Z</time>
      </trkpt>
      <trkpt lat="42.865460012108088" lon="-4.497622037306428">
        <ele>1000.39</ele>
        <time>2025-04-29T07:49:53Z</time>
      </trkpt>
      <trkpt lat="42.865412989631295" lon="-4.498022021725774">
        <ele>1000.39</ele>
        <time>2025-04-29T07:49:56Z</time>
      </trkpt>
      <trkpt lat="42.865410977974534" lon="-4.498041970655322">
        <ele>1000.87</ele>
        <time>2025-04-29T07:49:57Z</time>
      </trkpt>
      <trkpt lat="42.865404020994902" lon="-4.498132998123765">
        <ele>1000.87</ele>
        <time>2025-04-29T07:49:58Z</time>
      </trkpt>
      <trkpt lat="42.865391029044986" lon="-4.49835604056716">
        <ele>1000.39</ele>
        <time>2025-04-29T07:50:02Z</time>
      </trkpt>
      <trkpt lat="42.865410977974534" lon="-4.498475985601544">
        <ele>1000.39</ele>
        <time>2025-04-29T07:50:03Z</time>
      </trkpt>
      <trkpt lat="42.865498987957835" lon="-4.498494006693363">
        <ele>999.42999999999995</ele>
        <time>2025-04-29T07:50:05Z</time>
      </trkpt>
      <trkpt lat="42.865533018484712" lon="-4.498510016128421">
        <ele>999.42999999999995</ele>
        <time>2025-04-29T07:50:06Z</time>
      </trkpt>
      <trkpt lat="42.865926967933774" lon="-4.498690981417894">
        <ele>998.95000000000005</ele>
        <time>2025-04-29T07:50:12Z</time>
      </trkpt>
      <trkpt lat="42.866529040038586" lon="-4.498816039413214">
        <ele>1000.87</ele>
        <time>2025-04-29T07:50:21Z</time>
      </trkpt>
      <trkpt lat="42.866616966202855" lon="-4.498869013041258">
        <ele>1000.87</ele>
        <time>2025-04-29T07:50:22Z</time>
      </trkpt>
      <trkpt lat="42.866619983687997" lon="-4.498944031074643">
        <ele>1001.35</ele>
        <time>2025-04-29T07:50:23Z</time>
      </trkpt>
      <trkpt lat="42.866624007001519" lon="-4.499020976945758">
        <ele>1001.35</ele>
        <time>2025-04-29T07:50:24Z</time>
      </trkpt>
      <trkpt lat="42.866628030315042" lon="-4.499107981100678">
        <ele>1001.35</ele>
        <time>2025-04-29T07:50:25Z</time>
      </trkpt>
      <trkpt lat="42.866683015599847" lon="-4.499356001615524">
        <ele>1002.3099999999999</ele>
        <time>2025-04-29T07:50:28Z</time>
      </trkpt>
      <trkpt lat="42.866735989227891" lon="-4.49943101964891">
        <ele>1002.79</ele>
        <time>2025-04-29T07:50:29Z</time>
      </trkpt>
      <trkpt lat="42.867423975840211" lon="-4.500418994575739">
        <ele>1011.4400000000001</ele>
        <time>2025-04-29T07:50:39Z</time>
      </trkpt>
      <trkpt lat="42.86750796250999" lon="-4.500502981245518">
        <ele>1012.41</ele>
        <time>2025-04-29T07:50:40Z</time>
      </trkpt>
      <trkpt lat="42.867593038827181" lon="-4.500588979572058">
        <ele>1012.89</ele>
        <time>2025-04-29T07:50:41Z</time>
      </trkpt>
      <trkpt lat="42.867923034355044" lon="-4.500917969271541">
        <ele>1015.77</ele>
        <time>2025-04-29T07:50:45Z</time>
      </trkpt>
      <trkpt lat="42.868002997711301" lon="-4.500998016446829">
        <ele>1016.73</ele>
        <time>2025-04-29T07:50:46Z</time>
      </trkpt>
      <trkpt lat="42.868049014359713" lon="-4.501100024208427">
        <ele>1017.21</ele>
        <time>2025-04-29T07:50:47Z</time>
      </trkpt>
      <trkpt lat="42.868063012138009" lon="-4.501228015869856">
        <ele>1018.17</ele>
        <time>2025-04-29T07:50:48Z</time>
      </trkpt>
      <trkpt lat="42.86802101880312" lon="-4.501356007531285">
        <ele>1018.65</ele>
        <time>2025-04-29T07:50:49Z</time>
      </trkpt>
      <trkpt lat="42.867966033518314" lon="-4.501519035547972">
        <ele>1019.62</ele>
        <time>2025-04-29T07:50:50Z</time>
      </trkpt>
      <trkpt lat="42.867914987728" lon="-4.501609979197383">
        <ele>1020.58</ele>
        <time>2025-04-29T07:50:51Z</time>
      </trkpt>
      <trkpt lat="42.867344012483954" lon="-4.502549003809691">
        <ele>1026.8299999999999</ele>
        <time>2025-04-29T07:50:59Z</time>
      </trkpt>
      <trkpt lat="42.867236975580454" lon="-4.502592002972961">
        <ele>1027.3099999999999</ele>
        <time>2025-04-29T07:51:00Z</time>
      </trkpt>
      <trkpt lat="42.867135973647237" lon="-4.502581022679806">
        <ele>1028.27</ele>
        <time>2025-04-29T07:51:01Z</time>
      </trkpt>
      <trkpt lat="42.867044024169445" lon="-4.502570964396">
        <ele>1028.75</ele>
        <time>2025-04-29T07:51:02Z</time>
      </trkpt>
      <trkpt lat="42.86696900613606" lon="-4.50248496606946">
        <ele>1029.23</ele>
        <time>2025-04-29T07:51:03Z</time>
      </trkpt>
      <trkpt lat="42.866892982274294" lon="-4.50239896774292">
        <ele>1030.1900000000001</ele>
        <time>2025-04-29T07:51:04Z</time>
      </trkpt>
      <trkpt lat="42.866832967847586" lon="-4.502268964424729">
        <ele>1030.6700000000001</ele>
        <time>2025-04-29T07:51:05Z</time>
      </trkpt>
      <trkpt lat="42.866771025583148" lon="-4.502136027440429">
        <ele>1031.1500000000001</ele>
        <time>2025-04-29T07:51:06Z</time>
      </trkpt>
      <trkpt lat="42.866706987842917" lon="-4.502004012465477">
        <ele>1032.1099999999999</ele>
        <time>2025-04-29T07:51:07Z</time>
      </trkpt>
      <trkpt lat="42.866580002009869" lon="-4.501750962808728">
        <ele>1033.55</ele>
        <time>2025-04-29T07:51:09Z</time>
      </trkpt>
      <trkpt lat="42.866549994796515" lon="-4.501691032201052">
        <ele>1034.04</ele>
        <time>2025-04-29T07:51:10Z</time>
      </trkpt>
      <trkpt lat="42.866408005356789" lon="-4.501664964482188">
        <ele>1035</ele>
        <time>2025-04-29T07:51:11Z</time>
      </trkpt>
      <trkpt lat="42.866313960403204" lon="-4.501648033037782">
        <ele>1035.48</ele>
        <time>2025-04-29T07:51:12Z</time>
      </trkpt>
      <trkpt lat="42.866235002875328" lon="-4.501707041636109">
        <ele>1035.96</ele>
        <time>2025-04-29T07:51:13Z</time>
      </trkpt>
      <trkpt lat="42.866141041740775" lon="-4.501782981678844">
        <ele>1036.4400000000001</ele>
        <time>2025-04-29T07:51:14Z</time>
      </trkpt>
      <trkpt lat="42.86610902287066" lon="-4.501910973340273">
        <ele>1036.9200000000001</ele>
        <time>2025-04-29T07:51:15Z</time>
      </trkpt>
      <trkpt lat="42.866086978465319" lon="-4.502070983871818">
        <ele>1037.4000000000001</ele>
        <time>2025-04-29T07:51:16Z</time>
      </trkpt>
      <trkpt lat="42.866122014820576" lon="-4.502210961654782">
        <ele>1038.3599999999999</ele>
        <time>2025-04-29T07:51:17Z</time>
      </trkpt>
      <trkpt lat="42.866183035075665" lon="-4.502368038520217">
        <ele>1038.8399999999999</ele>
        <time>2025-04-29T07:51:18Z</time>
      </trkpt>
      <trkpt lat="42.866255035623908" lon="-4.50250499881804">
        <ele>1039.8</ele>
        <time>2025-04-29T07:51:19Z</time>
      </trkpt>
      <trkpt lat="42.866327036172152" lon="-4.502641959115863">
        <ele>1041.25</ele>
        <time>2025-04-29T07:51:20Z</time>
      </trkpt>
      <trkpt lat="42.866373974829912" lon="-4.50278403237462">
        <ele>1042.21</ele>
        <time>2025-04-29T07:51:21Z</time>
      </trkpt>
      <trkpt lat="42.866406999528408" lon="-4.502949994057417">
        <ele>1043.6500000000001</ele>
        <time>2025-04-29T07:51:22Z</time>
      </trkpt>
      <trkpt lat="42.866413034498692" lon="-4.503115033730865">
        <ele>1044.6099999999999</ele>
        <time>2025-04-29T07:51:23Z</time>
      </trkpt>
      <trkpt lat="42.866396019235253" lon="-4.503298010677099">
        <ele>1046.05</ele>
        <time>2025-04-29T07:51:24Z</time>
      </trkpt>
      <trkpt lat="42.866377998143435" lon="-4.503492973744869">
        <ele>1047.01</ele>
        <time>2025-04-29T07:51:25Z</time>
      </trkpt>
      <trkpt lat="42.866334998980165" lon="-4.503664970397949">
        <ele>1048.45</ele>
        <time>2025-04-29T07:51:26Z</time>
      </trkpt>
      <trkpt lat="42.866286970674992" lon="-4.50385901145637">
        <ele>1049.4200000000001</ele>
        <time>2025-04-29T07:51:27Z</time>
      </trkpt>
      <trkpt lat="42.865879023447633" lon="-4.50551200658083">
        <ele>1058.55</ele>
        <time>2025-04-29T07:51:35Z</time>
      </trkpt>
      <trkpt lat="42.865869970992208" lon="-4.505739994347096">
        <ele>1059.99</ele>
        <time>2025-04-29T07:51:36Z</time>
      </trkpt>
      <trkpt lat="42.865881035104394" lon="-4.5059659704566">
        <ele>1061.4300000000001</ele>
        <time>2025-04-29T07:51:37Z</time>
      </trkpt>
      <trkpt lat="42.865933002904058" lon="-4.50617702677846">
        <ele>1062.3900000000001</ele>
        <time>2025-04-29T07:51:38Z</time>
      </trkpt>
      <trkpt lat="42.866009026765823" lon="-4.506385987624526">
        <ele>1063.3599999999999</ele>
        <time>2025-04-29T07:51:39Z</time>
      </trkpt>
      <trkpt lat="42.866121008992195" lon="-4.506558990105987">
        <ele>1064.3199999999999</ele>
        <time>2025-04-29T07:51:40Z</time>
      </trkpt>
      <trkpt lat="42.866269033402205" lon="-4.506684970110655">
        <ele>1065.76</ele>
        <time>2025-04-29T07:51:41Z</time>
      </trkpt>
      <trkpt lat="42.866424014791846" lon="-4.506770968437195">
        <ele>1066.72</ele>
        <time>2025-04-29T07:51:42Z</time>
      </trkpt>
      <trkpt lat="42.866587964817882" lon="-4.506841041147709">
        <ele>1067.6800000000001</ele>
        <time>2025-04-29T07:51:43Z</time>
      </trkpt>
      <trkpt lat="42.866759039461613" lon="-4.506824025884271">
        <ele>1069.1199999999999</ele>
        <time>2025-04-29T07:51:44Z</time>
      </trkpt>
      <trkpt lat="42.866919972002506" lon="-4.506751019507647">
        <ele>1070.5699999999999</ele>
        <time>2025-04-29T07:51:45Z</time>
      </trkpt>
      <trkpt lat="42.867090962827206" lon="-4.50667298398912">
        <ele>1072.01</ele>
        <time>2025-04-29T07:51:46Z</time>
      </trkpt>
      <trkpt lat="42.867725975811481" lon="-4.506440972909331">
        <ele>1077.29</ele>
        <time>2025-04-29T07:51:50Z</time>
      </trkpt>
      <trkpt lat="42.867837036028504" lon="-4.506411971524358">
        <ele>1078.74</ele>
        <time>2025-04-29T07:51:51Z</time>
      </trkpt>
      <trkpt lat="42.867963016033173" lon="-4.506462011486292">
        <ele>1080.1800000000001</ele>
        <time>2025-04-29T07:51:52Z</time>
      </trkpt>
      <trkpt lat="42.868073992431164" lon="-4.506525965407491">
        <ele>1081.1400000000001</ele>
        <time>2025-04-29T07:51:53Z</time>
      </trkpt>
      <trkpt lat="42.868174994364381" lon="-4.506654040887952">
        <ele>1082.0999999999999</ele>
        <time>2025-04-29T07:51:54Z</time>
      </trkpt>
      <trkpt lat="42.868287982419133" lon="-4.506797958165407">
        <ele>1083.0599999999999</ele>
        <time>2025-04-29T07:51:55Z</time>
      </trkpt>
      <trkpt lat="42.8683449793607" lon="-4.506969032809138">
        <ele>1084.02</ele>
        <time>2025-04-29T07:51:56Z</time>
      </trkpt>
      <trkpt lat="42.868412034586072" lon="-4.507169025018811">
        <ele>1084.99</ele>
        <time>2025-04-29T07:51:57Z</time>
      </trkpt>
      <trkpt lat="42.868587970733643" lon="-4.507838990539312">
        <ele>1087.8699999999999</ele>
        <time>2025-04-29T07:52:00Z</time>
      </trkpt>
      <trkpt lat="42.868629964068532" lon="-4.508075024932623">
        <ele>1088.8299999999999</ele>
        <time>2025-04-29T07:52:01Z</time>
      </trkpt>
      <trkpt lat="42.868618983775377" lon="-4.508323967456818">
        <ele>1090.27</ele>
        <time>2025-04-29T07:52:02Z</time>
      </trkpt>
      <trkpt lat="42.868601968511939" lon="-4.508575005456805">
        <ele>1091.23</ele>
        <time>2025-04-29T07:52:03Z</time>
      </trkpt>
      <trkpt lat="42.868554024025798" lon="-4.508834006264806">
        <ele>1092.2</ele>
        <time>2025-04-29T07:52:04Z</time>
      </trkpt>
      <trkpt lat="42.868400970473886" lon="-4.509641015902162">
        <ele>1095.5599999999999</ele>
        <time>2025-04-29T07:52:07Z</time>
      </trkpt>
      <trkpt lat="42.868428966030478" lon="-4.509920971468091">
        <ele>1097</ele>
        <time>2025-04-29T07:52:08Z</time>
      </trkpt>
      <trkpt lat="42.868466014042497" lon="-4.510192964226008">
        <ele>1098.4400000000001</ele>
        <time>2025-04-29T07:52:09Z</time>
      </trkpt>
      <trkpt lat="42.868502978235483" lon="-4.510466968640685">
        <ele>1099.8900000000001</ele>
        <time>2025-04-29T07:52:10Z</time>
      </trkpt>
      <trkpt lat="42.868590988218784" lon="-4.510710965842009">
        <ele>1100.8499999999999</ele>
        <time>2025-04-29T07:52:11Z</time>
      </trkpt>
      <trkpt lat="42.868682015687227" lon="-4.510962003841996">
        <ele>1102.29</ele>
        <time>2025-04-29T07:52:12Z</time>
      </trkpt>
      <trkpt lat="42.8687749709934" lon="-4.511218992993236">
        <ele>1103.73</ele>
        <time>2025-04-29T07:52:13Z</time>
      </trkpt>
      <trkpt lat="42.86982798948884" lon="-4.51344296336174">
        <ele>1117.1900000000001</ele>
        <time>2025-04-29T07:52:22Z</time>
      </trkpt>
      <trkpt lat="42.870871033519506" lon="-4.515833985060453">
        <ele>1132.5699999999999</ele>
        <time>2025-04-29T07:52:31Z</time>
      </trkpt>
      <trkpt lat="42.870955020189285" lon="-4.516119975596666">
        <ele>1134.49</ele>
        <time>2025-04-29T07:52:32Z</time>
      </trkpt>
      <trkpt lat="42.8715880215168" lon="-4.518763041123748">
        <ele>1143.1400000000001</ele>
        <time>2025-04-29T07:52:41Z</time>
      </trkpt>
      <trkpt lat="42.872411962598562" lon="-4.5204889588058">
        <ele>1148.9100000000001</ele>
        <time>2025-04-29T07:52:48Z</time>
      </trkpt>
      <trkpt lat="42.873239004984498" lon="-4.522003987804055">
        <ele>1153.24</ele>
        <time>2025-04-29T07:52:55Z</time>
      </trkpt>
      <trkpt lat="42.874625958502293" lon="-4.52360400930047">
        <ele>1149.3900000000001</ele>
        <time>2025-04-29T07:53:04Z</time>
      </trkpt>
      <trkpt lat="42.875575963407755" lon="-4.524746965616942">
        <ele>1144.5899999999999</ele>
        <time>2025-04-29T07:53:11Z</time>
      </trkpt>
      <trkpt lat="42.875631032511592" lon="-4.524927008897066">
        <ele>1143.6300000000001</ele>
        <time>2025-04-29T07:53:12Z</time>
      </trkpt>
      <trkpt lat="42.875641006976366" lon="-4.52510898001492">
        <ele>1143.1400000000001</ele>
        <time>2025-04-29T07:53:13Z</time>
      </trkpt>
      <trkpt lat="42.875589039176702" lon="-4.525278965011239">
        <ele>1142.6600000000001</ele>
        <time>2025-04-29T07:53:14Z</time>
      </trkpt>
      <trkpt lat="42.875496000051498" lon="-4.525438975542784">
        <ele>1142.1800000000001</ele>
        <time>2025-04-29T07:53:15Z</time>
      </trkpt>
      <trkpt lat="42.875402038916945" lon="-4.52560200355947">
        <ele>1141.7</ele>
        <time>2025-04-29T07:53:16Z</time>
      </trkpt>
      <trkpt lat="42.875307993963361" lon="-4.525763019919395">
        <ele>1141.22</ele>
        <time>2025-04-29T07:53:17Z</time>
      </trkpt>
      <trkpt lat="42.875218978151679" lon="-4.525916995480657">
        <ele>1140.26</ele>
        <time>2025-04-29T07:53:18Z</time>
      </trkpt>
      <trkpt lat="42.87519701756537" lon="-4.526096032932401">
        <ele>1139.78</ele>
        <time>2025-04-29T07:53:19Z</time>
      </trkpt>
      <trkpt lat="42.875173967331648" lon="-4.526294013485313">
        <ele>1139.78</ele>
        <time>2025-04-29T07:53:20Z</time>
      </trkpt>
      <trkpt lat="42.87515502423048" lon="-4.528016997501254">
        <ele>1135.9400000000001</ele>
        <time>2025-04-29T07:53:27Z</time>
      </trkpt>
      <trkpt lat="42.875160975381732" lon="-4.528268035501242">
        <ele>1134.97</ele>
        <time>2025-04-29T07:53:28Z</time>
      </trkpt>
      <trkpt lat="42.875186959281564" lon="-4.528503986075521">
        <ele>1134.97</ele>
        <time>2025-04-29T07:53:29Z</time>
      </trkpt>
      <trkpt lat="42.875246973708272" lon="-4.528699032962322">
        <ele>1134.49</ele>
        <time>2025-04-29T07:53:30Z</time>
      </trkpt>
      <trkpt lat="42.875329032540321" lon="-4.528860971331596">
        <ele>1134.01</ele>
        <time>2025-04-29T07:53:31Z</time>
      </trkpt>
      <trkpt lat="42.875416958704591" lon="-4.528998015448451">
        <ele>1133.05</ele>
        <time>2025-04-29T07:53:32Z</time>
      </trkpt>
      <trkpt lat="42.875562971457839" lon="-4.529065992683172">
        <ele>1132.5699999999999</ele>
        <time>2025-04-29T07:53:33Z</time>
      </trkpt>
      <trkpt lat="42.875722981989384" lon="-4.529140004888177">
        <ele>1131.6099999999999</ele>
        <time>2025-04-29T07:53:34Z</time>
      </trkpt>
      <trkpt lat="42.875891039147973" lon="-4.529218962416053">
        <ele>1131.1300000000001</ele>
        <time>2025-04-29T07:53:35Z</time>
      </trkpt>
      <trkpt lat="42.876711962744594" lon="-4.529605032876134">
        <ele>1126.3199999999999</ele>
        <time>2025-04-29T07:53:40Z</time>
      </trkpt>
      <trkpt lat="42.876842971891165" lon="-4.529707040637732">
        <ele>1125.3599999999999</ele>
        <time>2025-04-29T07:53:41Z</time>
      </trkpt>
      <trkpt lat="42.876952020451427" lon="-4.529819022864103">
        <ele>1124.8800000000001</ele>
        <time>2025-04-29T07:53:42Z</time>
      </trkpt>
      <trkpt lat="42.877015974372625" lon="-4.529979033395648">
        <ele>1123.9200000000001</ele>
        <time>2025-04-29T07:53:43Z</time>
      </trkpt>
      <trkpt lat="42.87702402099967" lon="-4.530151030048728">
        <ele>1123.4400000000001</ele>
        <time>2025-04-29T07:53:44Z</time>
      </trkpt>
      <trkpt lat="42.877027038484812" lon="-4.530343981459737">
        <ele>1122.48</ele>
        <time>2025-04-29T07:53:45Z</time>
      </trkpt>
      <trkpt lat="42.877030977979302" lon="-4.530554031953216">
        <ele>1122</ele>
        <time>2025-04-29T07:53:46Z</time>
      </trkpt>
      <trkpt lat="42.877033995464444" lon="-4.530772967264056">
        <ele>1121.52</ele>
        <time>2025-04-29T07:53:47Z</time>
      </trkpt>
      <trkpt lat="42.877038018777966" lon="-4.530992992222309">
        <ele>1120.55</ele>
        <time>2025-04-29T07:53:48Z</time>
      </trkpt>
      <trkpt lat="42.877041958272457" lon="-4.531203964725137">
        <ele>1119.5899999999999</ele>
        <time>2025-04-29T07:53:49Z</time>
      </trkpt>
      <trkpt lat="42.877086969092488" lon="-4.531400017440319">
        <ele>1118.6300000000001</ele>
        <time>2025-04-29T07:53:50Z</time>
      </trkpt>
      <trkpt lat="42.877142038196325" lon="-4.531576037406921">
        <ele>1117.6700000000001</ele>
        <time>2025-04-29T07:53:51Z</time>
      </trkpt>
      <trkpt lat="42.877233987674117" lon="-4.531722972169519">
        <ele>1117.1900000000001</ele>
        <time>2025-04-29T07:53:52Z</time>
      </trkpt>
      <trkpt lat="42.877358039841056" lon="-4.531859010457993">
        <ele>1117.1900000000001</ele>
        <time>2025-04-29T07:53:53Z</time>
      </trkpt>
      <trkpt lat="42.877515032887459" lon="-4.531971998512745">
        <ele>1116.71</ele>
        <time>2025-04-29T07:53:54Z</time>
      </trkpt>
      <trkpt lat="42.877819966524839" lon="-4.532191017642617">
        <ele>1115.75</ele>
        <time>2025-04-29T07:53:56Z</time>
      </trkpt>
      <trkpt lat="42.877902025356889" lon="-4.532324960455298">
        <ele>1115.27</ele>
        <time>2025-04-29T07:53:57Z</time>
      </trkpt>
      <trkpt lat="42.877972014248371" lon="-4.53245404176414">
        <ele>1115.27</ele>
        <time>2025-04-29T07:53:58Z</time>
      </trkpt>
      <trkpt lat="42.877981988713145" lon="-4.53258496709168">
        <ele>1114.3099999999999</ele>
        <time>2025-04-29T07:53:59Z</time>
      </trkpt>
      <trkpt lat="42.877974025905132" lon="-4.532749000936747">
        <ele>1113.8199999999999</ele>
        <time>2025-04-29T07:54:00Z</time>
      </trkpt>
      <trkpt lat="42.877961033955216" lon="-4.53292703256011">
        <ele>1113.3399999999999</ele>
        <time>2025-04-29T07:54:01Z</time>
      </trkpt>
      <trkpt lat="42.877901019528508" lon="-4.533112021163106">
        <ele>1112.8599999999999</ele>
        <time>2025-04-29T07:54:02Z</time>
      </trkpt>
      <trkpt lat="42.877836981788278" lon="-4.53331301920116">
        <ele>1112.3800000000001</ele>
        <time>2025-04-29T07:54:03Z</time>
      </trkpt>
      <trkpt lat="42.877623997628689" lon="-4.533975021913648">
        <ele>1110.46</ele>
        <time>2025-04-29T07:54:06Z</time>
      </trkpt>
      <trkpt lat="42.877585021778941" lon="-4.534211978316307">
        <ele>1109.02</ele>
        <time>2025-04-29T07:54:07Z</time>
      </trkpt>
      <trkpt lat="42.877560965716839" lon="-4.534455975517631">
        <ele>1108.0599999999999</ele>
        <time>2025-04-29T07:54:08Z</time>
      </trkpt>
      <trkpt lat="42.877537999302149" lon="-4.534697039052844">
        <ele>1107.0999999999999</ele>
        <time>2025-04-29T07:54:09Z</time>
      </trkpt>
      <trkpt lat="42.877573035657406" lon="-4.534936007112265">
        <ele>1105.6500000000001</ele>
        <time>2025-04-29T07:54:10Z</time>
      </trkpt>
      <trkpt lat="42.877612011507154" lon="-4.535166006535292">
        <ele>1104.21</ele>
        <time>2025-04-29T07:54:11Z</time>
      </trkpt>
      <trkpt lat="42.877657022327185" lon="-4.535387037321925">
        <ele>1102.77</ele>
        <time>2025-04-29T07:54:12Z</time>
      </trkpt>
      <trkpt lat="42.877747965976596" lon="-4.535577977076173">
        <ele>1101.3299999999999</ele>
        <time>2025-04-29T07:54:13Z</time>
      </trkpt>
      <trkpt lat="42.877839999273419" lon="-4.535772018134594">
        <ele>1099.8900000000001</ele>
        <time>2025-04-29T07:54:14Z</time>
      </trkpt>
      <trkpt lat="42.877934966236353" lon="-4.535971004515886">
        <ele>1098.4400000000001</ele>
        <time>2025-04-29T07:54:15Z</time>
      </trkpt>
      <trkpt lat="42.878032028675079" lon="-4.536175020039082">
        <ele>1096.52</ele>
        <time>2025-04-29T07:54:16Z</time>
      </trkpt>
      <trkpt lat="42.878116015344858" lon="-4.536393033340573">
        <ele>1094.5999999999999</ele>
        <time>2025-04-29T07:54:17Z</time>
      </trkpt>
      <trkpt lat="42.878202013671398" lon="-4.536624038591981">
        <ele>1093.1600000000001</ele>
        <time>2025-04-29T07:54:18Z</time>
      </trkpt>
      <trkpt lat="42.878355989232659" lon="-4.537631962448359">
        <ele>1086.4300000000001</ele>
        <time>2025-04-29T07:54:23Z</time>
      </trkpt>
      <trkpt lat="42.878369987010956" lon="-4.537717960774899">
        <ele>1084.99</ele>
        <time>2025-04-29T07:54:24Z</time>
      </trkpt>
      <trkpt lat="42.878379039466381" lon="-4.537779986858368">
        <ele>1084.5</ele>
        <time>2025-04-29T07:54:25Z</time>
      </trkpt>
      <trkpt lat="42.878385996446013" lon="-4.53782600350678">
        <ele>1083.54</ele>
        <time>2025-04-29T07:54:26Z</time>
      </trkpt>
      <trkpt lat="42.878393037244678" lon="-4.537867996841669">
        <ele>1083.0599999999999</ele>
        <time>2025-04-29T07:54:27Z</time>
      </trkpt>
      <trkpt lat="42.878398988395929" lon="-4.537905966863036">
        <ele>1082.0999999999999</ele>
        <time>2025-04-29T07:54:28Z</time>
      </trkpt>
      <trkpt lat="42.878434024751186" lon="-4.538135966286063">
        <ele>1077.29</ele>
        <time>2025-04-29T07:54:39Z</time>
      </trkpt>
      <trkpt lat="42.878381973132491" lon="-4.538294970989227">
        <ele>1068.1600000000001</ele>
        <time>2025-04-29T07:57:23Z</time>
      </trkpt>
      <trkpt lat="42.878407035022974" lon="-4.538195980712771">
        <ele>1082.0999999999999</ele>
        <time>2025-04-29T07:57:52Z</time>
      </trkpt>
      <trkpt lat="42.878368981182575" lon="-4.538208972662687">
        <ele>1082.5799999999999</ele>
        <time>2025-04-29T07:58:41Z</time>
      </trkpt>
      <trkpt lat="42.878467971459031" lon="-4.538360014557838">
        <ele>1081.1400000000001</ele>
        <time>2025-04-29T07:59:09Z</time>
      </trkpt>
      <trkpt lat="42.878478029742837" lon="-4.538418017327786">
        <ele>1081.1400000000001</ele>
        <time>2025-04-29T07:59:10Z</time>
      </trkpt>
      <trkpt lat="42.878502001985908" lon="-4.53857702203095">
        <ele>1080.1800000000001</ele>
        <time>2025-04-29T07:59:13Z</time>
      </trkpt>
      <trkpt lat="42.878494039177895" lon="-4.538743989542127">
        <ele>1079.7</ele>
        <time>2025-04-29T07:59:14Z</time>
      </trkpt>
      <trkpt lat="42.878488004207611" lon="-4.538861000910401">
        <ele>1079.22</ele>
        <time>2025-04-29T07:59:15Z</time>
      </trkpt>
      <trkpt lat="42.878480963408947" lon="-4.538992010056973">
        <ele>1078.74</ele>
        <time>2025-04-29T07:59:16Z</time>
      </trkpt>
      <trkpt lat="42.878474006429315" lon="-4.53913601115346">
        <ele>1078.26</ele>
        <time>2025-04-29T07:59:17Z</time>
      </trkpt>
      <trkpt lat="42.87846595980227" lon="-4.539295015856624">
        <ele>1077.29</ele>
        <time>2025-04-29T07:59:18Z</time>
      </trkpt>
      <trkpt lat="42.878467971459031" lon="-4.539487967267633">
        <ele>1076.8099999999999</ele>
        <time>2025-04-29T07:59:19Z</time>
      </trkpt>
      <trkpt lat="42.878497978672385" lon="-4.539667004719377">
        <ele>1076.3299999999999</ele>
        <time>2025-04-29T07:59:20Z</time>
      </trkpt>
      <trkpt lat="42.87852899171412" lon="-4.539857022464275">
        <ele>1075.3699999999999</ele>
        <time>2025-04-29T07:59:21Z</time>
      </trkpt>
      <trkpt lat="42.878608033061028" lon="-4.540058020502329">
        <ele>1074.8900000000001</ele>
        <time>2025-04-29T07:59:22Z</time>
      </trkpt>
      <trkpt lat="42.878703000023961" lon="-4.540222976356745">
        <ele>1073.45</ele>
        <time>2025-04-29T07:59:23Z</time>
      </trkpt>
      <trkpt lat="42.87882998585701" lon="-4.540393967181444">
        <ele>1072.01</ele>
        <time>2025-04-29T07:59:24Z</time>
      </trkpt>
      <trkpt lat="42.878975998610258" lon="-4.540501004084945">
        <ele>1071.05</ele>
        <time>2025-04-29T07:59:25Z</time>
      </trkpt>
      <trkpt lat="42.879143971949816" lon="-4.540597982704639">
        <ele>1069.5999999999999</ele>
        <time>2025-04-29T07:59:26Z</time>
      </trkpt>
      <trkpt lat="42.879311023280025" lon="-4.540617009624839">
        <ele>1068.6400000000001</ele>
        <time>2025-04-29T07:59:27Z</time>
      </trkpt>
      <trkpt lat="42.879490982741117" lon="-4.540636036545038">
        <ele>1067.2</ele>
        <time>2025-04-29T07:59:28Z</time>
      </trkpt>
      <trkpt lat="42.879658034071326" lon="-4.540567975491285">
        <ele>1065.76</ele>
        <time>2025-04-29T07:59:29Z</time>
      </trkpt>
      <trkpt lat="42.879823995754123" lon="-4.540499998256564">
        <ele>1064.3199999999999</ele>
        <time>2025-04-29T07:59:30Z</time>
      </trkpt>
      <trkpt lat="42.879961039870977" lon="-4.540443001314998">
        <ele>1062.8699999999999</ele>
        <time>2025-04-29T07:59:31Z</time>
      </trkpt>
      <trkpt lat="42.880134964361787" lon="-4.540443001314998">
        <ele>1061.4300000000001</ele>
        <time>2025-04-29T07:59:32Z</time>
      </trkpt>
      <trkpt lat="42.880279971286654" lon="-4.540443001314998">
        <ele>1059.99</ele>
        <time>2025-04-29T07:59:33Z</time>
      </trkpt>
      <trkpt lat="42.88039899431169" lon="-4.540499998256564">
        <ele>1059.03</ele>
        <time>2025-04-29T07:59:34Z</time>
      </trkpt>
      <trkpt lat="42.880519023165107" lon="-4.540571998804808">
        <ele>1057.5899999999999</ele>
        <time>2025-04-29T07:59:35Z</time>
      </trkpt>
      <trkpt lat="42.880584988743067" lon="-4.540720023214817">
        <ele>1055.6700000000001</ele>
        <time>2025-04-29T07:59:36Z</time>
      </trkpt>
      <trkpt lat="42.880653971806169" lon="-4.540876010432839">
        <ele>1054.22</ele>
        <time>2025-04-29T07:59:37Z</time>
      </trkpt>
      <trkpt lat="42.880681967362761" lon="-4.541039038449526">
        <ele>1053.26</ele>
        <time>2025-04-29T07:59:38Z</time>
      </trkpt>
      <trkpt lat="42.880662018433213" lon="-4.541218997910619">
        <ele>1051.8199999999999</ele>
        <time>2025-04-29T07:59:39Z</time>
      </trkpt>
      <trkpt lat="42.880622958764434" lon="-4.541384959593415">
        <ele>1050.8599999999999</ele>
        <time>2025-04-29T07:59:40Z</time>
      </trkpt>
      <trkpt lat="42.880535032600164" lon="-4.541527032852173">
        <ele>1050.3800000000001</ele>
        <time>2025-04-29T07:59:41Z</time>
      </trkpt>
      <trkpt lat="42.880435958504677" lon="-4.541655024513602">
        <ele>1049.9000000000001</ele>
        <time>2025-04-29T07:59:42Z</time>
      </trkpt>
      <trkpt lat="42.880305033177137" lon="-4.541756026446819">
        <ele>1049.4200000000001</ele>
        <time>2025-04-29T07:59:43Z</time>
      </trkpt>
      <trkpt lat="42.880168994888663" lon="-4.541860967874527">
        <ele>1048.9400000000001</ele>
        <time>2025-04-29T07:59:44Z</time>
      </trkpt>
      <trkpt lat="42.879080018028617" lon="-4.542839974164963">
        <ele>1045.0899999999999</ele>
        <time>2025-04-29T07:59:52Z</time>
      </trkpt>
      <trkpt lat="42.879014974460006" lon="-4.542997973039746">
        <ele>1044.6099999999999</ele>
        <time>2025-04-29T07:59:53Z</time>
      </trkpt>
      <trkpt lat="42.878968035802245" lon="-4.543172987177968">
        <ele>1044.6099999999999</ele>
        <time>2025-04-29T07:59:54Z</time>
      </trkpt>
      <trkpt lat="42.878941968083382" lon="-4.543361999094486">
        <ele>1044.6099999999999</ele>
        <time>2025-04-29T07:59:55Z</time>
      </trkpt>
      <trkpt lat="42.878939034417272" lon="-4.543569032102823">
        <ele>1044.6099999999999</ele>
        <time>2025-04-29T07:59:56Z</time>
      </trkpt>
      <trkpt lat="42.878963006660342" lon="-4.543785033747554">
        <ele>1044.6099999999999</ele>
        <time>2025-04-29T07:59:57Z</time>
      </trkpt>
      <trkpt lat="42.878986978903413" lon="-4.54401302151382">
        <ele>1044.6099999999999</ele>
        <time>2025-04-29T07:59:58Z</time>
      </trkpt>
      <trkpt lat="42.879208009690046" lon="-4.544903011992574">
        <ele>1044.1300000000001</ele>
        <time>2025-04-29T08:00:02Z</time>
      </trkpt>
      <trkpt lat="42.879311023280025" lon="-4.54506503418088">
        <ele>1043.6500000000001</ele>
        <time>2025-04-29T08:00:03Z</time>
      </trkpt>
      <trkpt lat="42.879448989406228" lon="-4.54517500475049">
        <ele>1043.6500000000001</ele>
        <time>2025-04-29T08:00:04Z</time>
      </trkpt>
      <trkpt lat="42.879723999649286" lon="-4.545402992516756">
        <ele>1043.6500000000001</ele>
        <time>2025-04-29T08:00:06Z</time>
      </trkpt>
      <trkpt lat="42.879827013239264" lon="-4.545555962249637">
        <ele>1043.6500000000001</ele>
        <time>2025-04-29T08:00:07Z</time>
      </trkpt>
      <trkpt lat="42.879889039322734" lon="-4.545742962509394">
        <ele>1043.6500000000001</ele>
        <time>2025-04-29T08:00:08Z</time>
      </trkpt>
      <trkpt lat="42.880089031532407" lon="-4.546342017129064">
        <ele>1044.6099999999999</ele>
        <time>2025-04-29T08:00:11Z</time>
      </trkpt>
      <trkpt lat="42.880195984616876" lon="-4.546521976590157">
        <ele>1044.6099999999999</ele>
        <time>2025-04-29T08:00:12Z</time>
      </trkpt>
      <trkpt lat="42.880589012056589" lon="-4.547024974599481">
        <ele>1044.1300000000001</ele>
        <time>2025-04-29T08:00:15Z</time>
      </trkpt>
      <trkpt lat="42.880758997052908" lon="-4.547119019553065">
        <ele>1044.1300000000001</ele>
        <time>2025-04-29T08:00:16Z</time>
      </trkpt>
      <trkpt lat="42.880930993705988" lon="-4.547213986515999">
        <ele>1044.1300000000001</ele>
        <time>2025-04-29T08:00:17Z</time>
      </trkpt>
      <trkpt lat="42.881102990359068" lon="-4.547309959307313">
        <ele>1044.1300000000001</ele>
        <time>2025-04-29T08:00:18Z</time>
      </trkpt>
      <trkpt lat="42.88127901032567" lon="-4.547341978177428">
        <ele>1044.6099999999999</ele>
        <time>2025-04-29T08:00:19Z</time>
      </trkpt>
      <trkpt lat="42.88145100697875" lon="-4.547353964298964">
        <ele>1044.6099999999999</ele>
        <time>2025-04-29T08:00:20Z</time>
      </trkpt>
      <trkpt lat="42.881605988368392" lon="-4.547366034239531">
        <ele>1045.0899999999999</ele>
        <time>2025-04-29T08:00:21Z</time>
      </trkpt>
      <trkpt lat="42.881739009171724" lon="-4.547392018139362">
        <ele>1045.0899999999999</ele>
        <time>2025-04-29T08:00:22Z</time>
      </trkpt>
      <trkpt lat="42.881832970306277" lon="-4.547486985102296">
        <ele>1045.5699999999999</ele>
        <time>2025-04-29T08:00:23Z</time>
      </trkpt>
      <trkpt lat="42.881891978904605" lon="-4.547545993700624">
        <ele>1045.5699999999999</ele>
        <time>2025-04-29T08:00:24Z</time>
      </trkpt>
      <trkpt lat="42.881927015259862" lon="-4.547740034759045">
        <ele>1046.05</ele>
        <time>2025-04-29T08:00:25Z</time>
      </trkpt>
      <trkpt lat="42.881955010816455" lon="-4.547899039462209">
        <ele>1046.53</ele>
        <time>2025-04-29T08:00:26Z</time>
      </trkpt>
      <trkpt lat="42.881915029138327" lon="-4.548019990324974">
        <ele>1046.53</ele>
        <time>2025-04-29T08:00:27Z</time>
      </trkpt>
      <trkpt lat="42.881862977519631" lon="-4.548155022785068">
        <ele>1047.01</ele>
        <time>2025-04-29T08:00:28Z</time>
      </trkpt>
      <trkpt lat="42.881789971143007" lon="-4.548235991969705">
        <ele>1047.01</ele>
        <time>2025-04-29T08:00:29Z</time>
      </trkpt>
      <trkpt lat="42.881676983088255" lon="-4.548322996124625">
        <ele>1047.01</ele>
        <time>2025-04-29T08:00:30Z</time>
      </trkpt>
      <trkpt lat="42.881545973941684" lon="-4.548344034701586">
        <ele>1047.49</ele>
        <time>2025-04-29T08:00:31Z</time>
      </trkpt>
      <trkpt lat="42.881390992552042" lon="-4.548349985852838">
        <ele>1047.49</ele>
        <time>2025-04-29T08:00:32Z</time>
      </trkpt>
      <trkpt lat="42.881227964535356" lon="-4.548357026651502">
        <ele>1047.49</ele>
        <time>2025-04-29T08:00:33Z</time>
      </trkpt>
      <trkpt lat="42.881070971488953" lon="-4.548373036086559">
        <ele>1047.49</ele>
        <time>2025-04-29T08:00:34Z</time>
      </trkpt>
      <trkpt lat="42.880924958735704" lon="-4.548405976966023">
        <ele>1047.97</ele>
        <time>2025-04-29T08:00:35Z</time>
      </trkpt>
      <trkpt lat="42.880790010094643" lon="-4.548476971685886">
        <ele>1047.97</ele>
        <time>2025-04-29T08:00:36Z</time>
      </trkpt>
      <trkpt lat="42.880675010383129" lon="-4.5485919713974">
        <ele>1048.45</ele>
        <time>2025-04-29T08:00:37Z</time>
      </trkpt>
      <trkpt lat="42.880595969036222" lon="-4.548730021342635">
        <ele>1048.45</ele>
        <time>2025-04-29T08:00:38Z</time>
      </trkpt>
      <trkpt lat="42.880539977923036" lon="-4.548897994682193">
        <ele>1048.45</ele>
        <time>2025-04-29T08:00:39Z</time>
      </trkpt>
      <trkpt lat="42.88050795905292" lon="-4.549116007983685">
        <ele>1048.9400000000001</ele>
        <time>2025-04-29T08:00:40Z</time>
      </trkpt>
      <trkpt lat="42.880475018173456" lon="-4.549339972436428">
        <ele>1048.9400000000001</ele>
        <time>2025-04-29T08:00:41Z</time>
      </trkpt>
      <trkpt lat="42.88044098764658" lon="-4.549575001001358">
        <ele>1049.4200000000001</ele>
        <time>2025-04-29T08:00:42Z</time>
      </trkpt>
      <trkpt lat="42.880446016788483" lon="-4.549813969060779">
        <ele>1049.4200000000001</ele>
        <time>2025-04-29T08:00:43Z</time>
      </trkpt>
      <trkpt lat="42.880463032051921" lon="-4.550065007060766">
        <ele>1049.4200000000001</ele>
        <time>2025-04-29T08:00:44Z</time>
      </trkpt>
      <trkpt lat="42.880480969324708" lon="-4.550318978726864">
        <ele>1048.9400000000001</ele>
        <time>2025-04-29T08:00:45Z</time>
      </trkpt>
      <trkpt lat="42.880514999851584" lon="-4.550817031413317">
        <ele>1048.45</ele>
        <time>2025-04-29T08:00:47Z</time>
      </trkpt>
      <trkpt lat="42.880481975153089" lon="-4.55106396228075">
        <ele>1047.97</ele>
        <time>2025-04-29T08:00:48Z</time>
      </trkpt>
      <trkpt lat="42.880433024838567" lon="-4.551322963088751">
        <ele>1047.97</ele>
        <time>2025-04-29T08:00:49Z</time>
      </trkpt>
      <trkpt lat="42.880288017913699" lon="-4.551757983863354">
        <ele>1047.49</ele>
        <time>2025-04-29T08:00:51Z</time>
      </trkpt>
      <trkpt lat="42.880234960466623" lon="-4.551986977458">
        <ele>1047.97</ele>
        <time>2025-04-29T08:00:52Z</time>
      </trkpt>
      <trkpt lat="42.880220962688327" lon="-4.552234997972846">
        <ele>1048.45</ele>
        <time>2025-04-29T08:00:53Z</time>
      </trkpt>
      <trkpt lat="42.880230015143752" lon="-4.552487963810563">
        <ele>1048.9400000000001</ele>
        <time>2025-04-29T08:00:54Z</time>
      </trkpt>
      <trkpt lat="42.880245018750429" lon="-4.552739001810551">
        <ele>1049.4200000000001</ele>
        <time>2025-04-29T08:00:55Z</time>
      </trkpt>
      <trkpt lat="42.880259016528726" lon="-4.552984004840255">
        <ele>1050.3800000000001</ele>
        <time>2025-04-29T08:00:56Z</time>
      </trkpt>
      <trkpt lat="42.880274020135403" lon="-4.55323001369834">
        <ele>1051.3399999999999</ele>
        <time>2025-04-29T08:00:57Z</time>
      </trkpt>
      <trkpt lat="42.880263039842248" lon="-4.553476022556424">
        <ele>1052.3</ele>
        <time>2025-04-29T08:00:58Z</time>
      </trkpt>
      <trkpt lat="42.880210988223553" lon="-4.553712978959084">
        <ele>1053.26</ele>
        <time>2025-04-29T08:00:59Z</time>
      </trkpt>
      <trkpt lat="42.88016002625227" lon="-4.553951025009155">
        <ele>1054.22</ele>
        <time>2025-04-29T08:01:00Z</time>
      </trkpt>
      <trkpt lat="42.880106968805194" lon="-4.554189993068576">
        <ele>1054.7</ele>
        <time>2025-04-29T08:01:01Z</time>
      </trkpt>
      <trkpt lat="42.879507998004556" lon="-4.556495016440749">
        <ele>1056.1500000000001</ele>
        <time>2025-04-29T08:01:11Z</time>
      </trkpt>
      <trkpt lat="42.879399033263326" lon="-4.55778700299561">
        <ele>1056.6300000000001</ele>
        <time>2025-04-29T08:01:19Z</time>
      </trkpt>
      <trkpt lat="42.879411019384861" lon="-4.558177012950182">
        <ele>1056.1500000000001</ele>
        <time>2025-04-29T08:01:22Z</time>
      </trkpt>
      <trkpt lat="42.87943197414279" lon="-4.558295030146837">
        <ele>1056.1500000000001</ele>
        <time>2025-04-29T08:01:23Z</time>
      </trkpt>
      <trkpt lat="42.879454018548131" lon="-4.558412963524461">
        <ele>1056.6300000000001</ele>
        <time>2025-04-29T08:01:24Z</time>
      </trkpt>
      <trkpt lat="42.879569018259645" lon="-4.558773972094059">
        <ele>1057.1099999999999</ele>
        <time>2025-04-29T08:01:27Z</time>
      </trkpt>
      <trkpt lat="42.879639007151127" lon="-4.558886038139463">
        <ele>1057.5899999999999</ele>
        <time>2025-04-29T08:01:28Z</time>
      </trkpt>
      <trkpt lat="42.879763981327415" lon="-4.559074966236949">
        <ele>1058.55</ele>
        <time>2025-04-29T08:01:30Z</time>
      </trkpt>
      <trkpt lat="42.879805974662304" lon="-4.559190971776843">
        <ele>1059.03</ele>
        <time>2025-04-29T08:01:31Z</time>
      </trkpt>
      <trkpt lat="42.879835981875658" lon="-4.559293985366821">
        <ele>1059.51</ele>
        <time>2025-04-29T08:01:32Z</time>
      </trkpt>
      <trkpt lat="42.879850985482335" lon="-4.55941996537149">
        <ele>1060.47</ele>
        <time>2025-04-29T08:01:33Z</time>
      </trkpt>
      <trkpt lat="42.879865989089012" lon="-4.55954703502357">
        <ele>1061.4300000000001</ele>
        <time>2025-04-29T08:01:34Z</time>
      </trkpt>
      <trkpt lat="42.87988199852407" lon="-4.55967796035111">
        <ele>1061.9100000000001</ele>
        <time>2025-04-29T08:01:35Z</time>
      </trkpt>
      <trkpt lat="42.879906976595521" lon="-4.559822967275977">
        <ele>1062.3900000000001</ele>
        <time>2025-04-29T08:01:36Z</time>
      </trkpt>
      <trkpt lat="42.879959028214216" lon="-4.559944001957774">
        <ele>1062.3900000000001</ele>
        <time>2025-04-29T08:01:37Z</time>
      </trkpt>
      <trkpt lat="42.880024993792176" lon="-4.560051038861275">
        <ele>1062.8699999999999</ele>
        <time>2025-04-29T08:01:38Z</time>
      </trkpt>
      <trkpt lat="42.880092971026897" lon="-4.560140976682305">
        <ele>1063.3599999999999</ele>
        <time>2025-04-29T08:01:39Z</time>
      </trkpt>
      <trkpt lat="42.880176035687327" lon="-4.560209037736058">
        <ele>1063.8399999999999</ele>
        <time>2025-04-29T08:01:40Z</time>
      </trkpt>
      <trkpt lat="42.880266979336739" lon="-4.560285983607173">
        <ele>1063.8399999999999</ele>
        <time>2025-04-29T08:01:41Z</time>
      </trkpt>
      <trkpt lat="42.880369992926717" lon="-4.560347003862262">
        <ele>1063.8399999999999</ele>
        <time>2025-04-29T08:01:42Z</time>
      </trkpt>
      <trkpt lat="42.880478035658598" lon="-4.560377011075616">
        <ele>1063.8399999999999</ele>
        <time>2025-04-29T08:01:43Z</time>
      </trkpt>
      <trkpt lat="42.880588006228209" lon="-4.560408024117351">
        <ele>1063.8399999999999</ele>
        <time>2025-04-29T08:01:44Z</time>
      </trkpt>
      <trkpt lat="42.880704011768103" lon="-4.560440964996815">
        <ele>1063.3599999999999</ele>
        <time>2025-04-29T08:01:45Z</time>
      </trkpt>
      <trkpt lat="42.880822028964758" lon="-4.560473989695311">
        <ele>1063.3599999999999</ele>
        <time>2025-04-29T08:01:46Z</time>
      </trkpt>
      <trkpt lat="42.880922025069594" lon="-4.560570968315005">
        <ele>1063.3599999999999</ele>
        <time>2025-04-29T08:01:47Z</time>
      </trkpt>
      <trkpt lat="42.881012968719006" lon="-4.560702983289957">
        <ele>1062.8699999999999</ele>
        <time>2025-04-29T08:01:48Z</time>
      </trkpt>
      <trkpt lat="42.881110031157732" lon="-4.560842961072922">
        <ele>1061.9100000000001</ele>
        <time>2025-04-29T08:01:49Z</time>
      </trkpt>
      <trkpt lat="42.88121203891933" lon="-4.560990985482931">
        <ele>1060.95</ele>
        <time>2025-04-29T08:01:50Z</time>
      </trkpt>
      <trkpt lat="42.881313040852547" lon="-4.561147978529334">
        <ele>1059.99</ele>
        <time>2025-04-29T08:01:51Z</time>
      </trkpt>
      <trkpt lat="42.881770022213459" lon="-4.562021959573031">
        <ele>1054.22</ele>
        <time>2025-04-29T08:01:56Z</time>
      </trkpt>
      <trkpt lat="42.881808998063207" lon="-4.562236033380032">
        <ele>1054.22</ele>
        <time>2025-04-29T08:01:57Z</time>
      </trkpt>
      <trkpt lat="42.882110998034477" lon="-4.564164038747549">
        <ele>1052.78</ele>
        <time>2025-04-29T08:02:05Z</time>
      </trkpt>
      <trkpt lat="42.882190039381385" lon="-4.564405018463731">
        <ele>1052.78</ele>
        <time>2025-04-29T08:02:06Z</time>
      </trkpt>
      <trkpt lat="42.882297998294234" lon="-4.564615990966559">
        <ele>1052.78</ele>
        <time>2025-04-29T08:02:07Z</time>
      </trkpt>
      <trkpt lat="42.88360096514225" lon="-4.567285040393472">
        <ele>1056.1500000000001</ele>
        <time>2025-04-29T08:02:19Z</time>
      </trkpt>
      <trkpt lat="42.884706035256386" lon="-4.570823041722179">
        <ele>1059.51</ele>
        <time>2025-04-29T08:02:32Z</time>
      </trkpt>
      <trkpt lat="42.885810015723109" lon="-4.573658974841237">
        <ele>1060.95</ele>
        <time>2025-04-29T08:02:43Z</time>
      </trkpt>
      <trkpt lat="42.887109965085983" lon="-4.575560996308923">
        <ele>1062.8699999999999</ele>
        <time>2025-04-29T08:02:52Z</time>
      </trkpt>
      <trkpt lat="42.888834960758686" lon="-4.578167013823986">
        <ele>1066.24</ele>
        <time>2025-04-29T08:03:04Z</time>
      </trkpt>
      <trkpt lat="42.89073396474123" lon="-4.581263037398458">
        <ele>1067.2</ele>
        <time>2025-04-29T08:03:18Z</time>
      </trkpt>
      <trkpt lat="42.892503971233964" lon="-4.58421397022903">
        <ele>1071.05</ele>
        <time>2025-04-29T08:03:32Z</time>
      </trkpt>
      <trkpt lat="42.892659036442637" lon="-4.584365012124181">
        <ele>1071.53</ele>
        <time>2025-04-29T08:03:33Z</time>
      </trkpt>
      <trkpt lat="42.893778020516038" lon="-4.585323985666037">
        <ele>1074.8900000000001</ele>
        <time>2025-04-29T08:03:40Z</time>
      </trkpt>
      <trkpt lat="42.893915986642241" lon="-4.585483996197581">
        <ele>1075.3699999999999</ele>
        <time>2025-04-29T08:03:41Z</time>
      </trkpt>
      <trkpt lat="42.894030986353755" lon="-4.585679965093732">
        <ele>1076.3299999999999</ele>
        <time>2025-04-29T08:03:42Z</time>
      </trkpt>
      <trkpt lat="42.895295983180404" lon="-4.588119015097618">
        <ele>1086.9100000000001</ele>
        <time>2025-04-29T08:03:53Z</time>
      </trkpt>
      <trkpt lat="42.895735027268529" lon="-4.588966006413102">
        <ele>1090.27</ele>
        <time>2025-04-29T08:03:57Z</time>
      </trkpt>
      <trkpt lat="42.895875005051494" lon="-4.589122999459505">
        <ele>1090.75</ele>
        <time>2025-04-29T08:03:58Z</time>
      </trkpt>
      <trkpt lat="42.896026968955994" lon="-4.589275969192386">
        <ele>1091.23</ele>
        <time>2025-04-29T08:03:59Z</time>
      </trkpt>
      <trkpt lat="42.896732976660132" lon="-4.589820960536599">
        <ele>1095.5599999999999</ele>
        <time>2025-04-29T08:04:03Z</time>
      </trkpt>
      <trkpt lat="42.896929029375315" lon="-4.589918022975326">
        <ele>1096.52</ele>
        <time>2025-04-29T08:04:04Z</time>
      </trkpt>
      <trkpt lat="42.897131033241749" lon="-4.589998992159963">
        <ele>1097.96</ele>
        <time>2025-04-29T08:04:05Z</time>
      </trkpt>
      <trkpt lat="42.897693039849401" lon="-4.590223962441087">
        <ele>1101.8099999999999</ele>
        <time>2025-04-29T08:04:08Z</time>
      </trkpt>
      <trkpt lat="42.897834023460746" lon="-4.590307027101517">
        <ele>1103.25</ele>
        <time>2025-04-29T08:04:09Z</time>
      </trkpt>
      <trkpt lat="42.897939970716834" lon="-4.590453039854765">
        <ele>1104.6900000000001</ele>
        <time>2025-04-29T08:04:10Z</time>
      </trkpt>
      <trkpt lat="42.898017000406981" lon="-4.590638028457761">
        <ele>1105.6500000000001</ele>
        <time>2025-04-29T08:04:11Z</time>
      </trkpt>
      <trkpt lat="42.898098975419998" lon="-4.590837014839053">
        <ele>1106.6099999999999</ele>
        <time>2025-04-29T08:04:12Z</time>
      </trkpt>
      <trkpt lat="42.898182040080428" lon="-4.591039018705487">
        <ele>1108.0599999999999</ele>
        <time>2025-04-29T08:04:13Z</time>
      </trkpt>
      <trkpt lat="42.898297961801291" lon="-4.591214032843709">
        <ele>1109.02</ele>
        <time>2025-04-29T08:04:14Z</time>
      </trkpt>
      <trkpt lat="42.898436011746526" lon="-4.591365996748209">
        <ele>1110.46</ele>
        <time>2025-04-29T08:04:15Z</time>
      </trkpt>
      <trkpt lat="42.898603985086083" lon="-4.591465992853046">
        <ele>1111.4200000000001</ele>
        <time>2025-04-29T08:04:16Z</time>
      </trkpt>
      <trkpt lat="42.898778999224305" lon="-4.591569006443024">
        <ele>1112.3800000000001</ele>
        <time>2025-04-29T08:04:17Z</time>
      </trkpt>
      <trkpt lat="42.898977985605597" lon="-4.591621980071068">
        <ele>1113.3399999999999</ele>
        <time>2025-04-29T08:04:18Z</time>
      </trkpt>
      <trkpt lat="42.899182001128793" lon="-4.59162600338459">
        <ele>1113.8199999999999</ele>
        <time>2025-04-29T08:04:19Z</time>
      </trkpt>
      <trkpt lat="42.89939196780324" lon="-4.591630026698113">
        <ele>1114.79</ele>
        <time>2025-04-29T08:04:20Z</time>
      </trkpt>
      <trkpt lat="42.899823971092701" lon="-4.591638995334506">
        <ele>1116.23</ele>
        <time>2025-04-29T08:04:22Z</time>
      </trkpt>
      <trkpt lat="42.900039972737432" lon="-4.591670008376241">
        <ele>1116.71</ele>
        <time>2025-04-29T08:04:23Z</time>
      </trkpt>
      <trkpt lat="42.901498004794121" lon="-4.592083990573883">
        <ele>1123.4400000000001</ele>
        <time>2025-04-29T08:04:31Z</time>
      </trkpt>
      <trkpt lat="42.901639994233847" lon="-4.592124978080392">
        <ele>1123.9200000000001</ele>
        <time>2025-04-29T08:04:32Z</time>
      </trkpt>
      <trkpt lat="42.901766980066895" lon="-4.592225980013609">
        <ele>1124.4000000000001</ele>
        <time>2025-04-29T08:04:33Z</time>
      </trkpt>
      <trkpt lat="42.901865970343351" lon="-4.592378027737141">
        <ele>1125.3599999999999</ele>
        <time>2025-04-29T08:04:34Z</time>
      </trkpt>
      <trkpt lat="42.901908969506621" lon="-4.592552036046982">
        <ele>1125.8399999999999</ele>
        <time>2025-04-29T08:04:35Z</time>
      </trkpt>
      <trkpt lat="42.901911986991763" lon="-4.592739036306739">
        <ele>1126.8</ele>
        <time>2025-04-29T08:04:36Z</time>
      </trkpt>
      <trkpt lat="42.901877034455538" lon="-4.592910027131438">
        <ele>1127.76</ele>
        <time>2025-04-29T08:04:37Z</time>
      </trkpt>
      <trkpt lat="42.901803022250533" lon="-4.593064002692699">
        <ele>1128.24</ele>
        <time>2025-04-29T08:04:38Z</time>
      </trkpt>
      <trkpt lat="42.90169196203351" lon="-4.593196017667651">
        <ele>1129.21</ele>
        <time>2025-04-29T08:04:39Z</time>
      </trkpt>
      <trkpt lat="42.901579979807138" lon="-4.593329038470984">
        <ele>1129.6900000000001</ele>
        <time>2025-04-29T08:04:40Z</time>
      </trkpt>
      <trkpt lat="42.901483001187444" lon="-4.593444038182497">
        <ele>1130.6500000000001</ele>
        <time>2025-04-29T08:04:41Z</time>
      </trkpt>
      <trkpt lat="42.901349980384111" lon="-4.593449989333749">
        <ele>1131.1300000000001</ele>
        <time>2025-04-29T08:04:42Z</time>
      </trkpt>
      <trkpt lat="42.901208996772766" lon="-4.593456024304032">
        <ele>1132.0899999999999</ele>
        <time>2025-04-29T08:04:43Z</time>
      </trkpt>
      <trkpt lat="42.901064995676279" lon="-4.593461975455284">
        <ele>1132.5699999999999</ele>
        <time>2025-04-29T08:04:44Z</time>
      </trkpt>
      <trkpt lat="42.900934992358088" lon="-4.593484019860625">
        <ele>1133.05</ele>
        <time>2025-04-29T08:04:45Z</time>
      </trkpt>
      <trkpt lat="42.900822004303336" lon="-4.593562977388501">
        <ele>1133.53</ele>
        <time>2025-04-29T08:04:46Z</time>
      </trkpt>
      <trkpt lat="42.900726031512022" lon="-4.593697004020214">
        <ele>1134.01</ele>
        <time>2025-04-29T08:04:47Z</time>
      </trkpt>
      <trkpt lat="42.900641039013863" lon="-4.593841005116701">
        <ele>1134.49</ele>
        <time>2025-04-29T08:04:48Z</time>
      </trkpt>
      <trkpt lat="42.900609020143747" lon="-4.594034040346742">
        <ele>1134.97</ele>
        <time>2025-04-29T08:04:49Z</time>
      </trkpt>
      <trkpt lat="42.900622012093663" lon="-4.594215005636215">
        <ele>1135.9400000000001</ele>
        <time>2025-04-29T08:04:50Z</time>
      </trkpt>
      <trkpt lat="42.900645984336734" lon="-4.594409968703985">
        <ele>1136.9000000000001</ele>
        <time>2025-04-29T08:04:51Z</time>
      </trkpt>
      <trkpt lat="42.90072301402688" lon="-4.594578025862575">
        <ele>1137.8599999999999</ele>
        <time>2025-04-29T08:04:52Z</time>
      </trkpt>
      <trkpt lat="42.900820998474956" lon="-4.594749016687274">
        <ele>1138.8199999999999</ele>
        <time>2025-04-29T08:04:53Z</time>
      </trkpt>
      <trkpt lat="42.90093700401485" lon="-4.594927970319986">
        <ele>1139.78</ele>
        <time>2025-04-29T08:04:54Z</time>
      </trkpt>
      <trkpt lat="42.901197010651231" lon="-4.595239022746682">
        <ele>1141.7</ele>
        <time>2025-04-29T08:04:56Z</time>
      </trkpt>
      <trkpt lat="42.901340005919337" lon="-4.595382018014789">
        <ele>1142.6600000000001</ele>
        <time>2025-04-29T08:04:57Z</time>
      </trkpt>
      <trkpt lat="42.901503033936024" lon="-4.59549400024116">
        <ele>1143.6300000000001</ele>
        <time>2025-04-29T08:04:58Z</time>
      </trkpt>
      <trkpt lat="42.901679975911975" lon="-4.595586033537984">
        <ele>1144.5899999999999</ele>
        <time>2025-04-29T08:04:59Z</time>
      </trkpt>
      <trkpt lat="42.90186395868659" lon="-4.595681000500917">
        <ele>1145.55</ele>
        <time>2025-04-29T08:05:00Z</time>
      </trkpt>
      <trkpt lat="42.903686016798019" lon="-4.596692025661469">
        <ele>1149.8699999999999</ele>
        <time>2025-04-29T08:05:09Z</time>
      </trkpt>
      <trkpt lat="42.904832996428013" lon="-4.59747196175158">
        <ele>1155.6400000000001</ele>
        <time>2025-04-29T08:05:15Z</time>
      </trkpt>
      <trkpt lat="42.905013961717486" lon="-4.597524013370276">
        <ele>1156.5999999999999</ele>
        <time>2025-04-29T08:05:16Z</time>
      </trkpt>
      <trkpt lat="42.905202973634005" lon="-4.59755796007812">
        <ele>1158.05</ele>
        <time>2025-04-29T08:05:17Z</time>
      </trkpt>
      <trkpt lat="42.905401960015297" lon="-4.59753499366343">
        <ele>1159.01</ele>
        <time>2025-04-29T08:05:18Z</time>
      </trkpt>
      <trkpt lat="42.905594995245337" lon="-4.597501968964934">
        <ele>1159.97</ele>
        <time>2025-04-29T08:05:19Z</time>
      </trkpt>
      <trkpt lat="42.905779983848333" lon="-4.597452012822032">
        <ele>1161.4100000000001</ele>
        <time>2025-04-29T08:05:20Z</time>
      </trkpt>
      <trkpt lat="42.905951980501413" lon="-4.597359979525209">
        <ele>1162.3699999999999</ele>
        <time>2025-04-29T08:05:21Z</time>
      </trkpt>
      <trkpt lat="42.906122971326113" lon="-4.59725403226912">
        <ele>1163.8099999999999</ele>
        <time>2025-04-29T08:05:22Z</time>
      </trkpt>
      <trkpt lat="42.906280970200896" lon="-4.597132997587323">
        <ele>1164.77</ele>
        <time>2025-04-29T08:05:23Z</time>
      </trkpt>
      <trkpt lat="42.906562015414238" lon="-4.596920013427734">
        <ele>1166.7</ele>
        <time>2025-04-29T08:05:25Z</time>
      </trkpt>
      <trkpt lat="42.906692018732429" lon="-4.59691003896296">
        <ele>1167.6600000000001</ele>
        <time>2025-04-29T08:05:26Z</time>
      </trkpt>
      <trkpt lat="42.906820010393858" lon="-4.596939040347934">
        <ele>1168.6199999999999</ele>
        <time>2025-04-29T08:05:27Z</time>
      </trkpt>
      <trkpt lat="42.907074987888336" lon="-4.597072983160615">
        <ele>1171.02</ele>
        <time>2025-04-29T08:05:29Z</time>
      </trkpt>
      <trkpt lat="42.907197028398514" lon="-4.597137020900846">
        <ele>1171.98</ele>
        <time>2025-04-29T08:05:30Z</time>
      </trkpt>
      <trkpt lat="42.907342035323381" lon="-4.597117993980646">
        <ele>1173.4300000000001</ele>
        <time>2025-04-29T08:05:31Z</time>
      </trkpt>
      <trkpt lat="42.907492993399501" lon="-4.597066026180983">
        <ele>1174.3900000000001</ele>
        <time>2025-04-29T08:05:32Z</time>
      </trkpt>
      <trkpt lat="42.907646968960762" lon="-4.597011962905526">
        <ele>1174.8699999999999</ele>
        <time>2025-04-29T08:05:33Z</time>
      </trkpt>
      <trkpt lat="42.907799016684294" lon="-4.597016992047429">
        <ele>1175.8299999999999</ele>
        <time>2025-04-29T08:05:34Z</time>
      </trkpt>
      <trkpt lat="42.90794100612402" lon="-4.59703903645277">
        <ele>1176.3099999999999</ele>
        <time>2025-04-29T08:05:35Z</time>
      </trkpt>
      <trkpt lat="42.90807100944221" lon="-4.597112964838743">
        <ele>1176.79</ele>
        <time>2025-04-29T08:05:36Z</time>
      </trkpt>
      <trkpt lat="42.908148039132357" lon="-4.597252020612359">
        <ele>1177.27</ele>
        <time>2025-04-29T08:05:37Z</time>
      </trkpt>
      <trkpt lat="42.908201012760401" lon="-4.597427034750581">
        <ele>1177.75</ele>
        <time>2025-04-29T08:05:38Z</time>
      </trkpt>
      <trkpt lat="42.908235965296626" lon="-4.597617974504829">
        <ele>1178.23</ele>
        <time>2025-04-29T08:05:39Z</time>
      </trkpt>
      <trkpt lat="42.90843503549695" lon="-4.598679961636663">
        <ele>1179.6700000000001</ele>
        <time>2025-04-29T08:05:44Z</time>
      </trkpt>
      <trkpt lat="42.908404022455215" lon="-4.59891096688807">
        <ele>1180.1600000000001</ele>
        <time>2025-04-29T08:05:45Z</time>
      </trkpt>
      <trkpt lat="42.908378038555384" lon="-4.59910299628973">
        <ele>1180.6400000000001</ele>
        <time>2025-04-29T08:05:46Z</time>
      </trkpt>
      <trkpt lat="42.908306960016489" lon="-4.599257977679372">
        <ele>1181.5999999999999</ele>
        <time>2025-04-29T08:05:47Z</time>
      </trkpt>
      <trkpt lat="42.908215010538697" lon="-4.59938102401793">
        <ele>1182.5599999999999</ele>
        <time>2025-04-29T08:05:48Z</time>
      </trkpt>
      <trkpt lat="42.908082995563745" lon="-4.599452018737793">
        <ele>1184</ele>
        <time>2025-04-29T08:05:49Z</time>
      </trkpt>
      <trkpt lat="42.907940000295639" lon="-4.599528964608908">
        <ele>1184.48</ele>
        <time>2025-04-29T08:05:50Z</time>
      </trkpt>
      <trkpt lat="42.907070964574814" lon="-4.600056018680334">
        <ele>1188.8099999999999</ele>
        <time>2025-04-29T08:05:56Z</time>
      </trkpt>
      <trkpt lat="42.906981026753783" lon="-4.600191973149777">
        <ele>1189.77</ele>
        <time>2025-04-29T08:05:57Z</time>
      </trkpt>
      <trkpt lat="42.906926963478327" lon="-4.600366987287998">
        <ele>1190.73</ele>
        <time>2025-04-29T08:05:58Z</time>
      </trkpt>
      <trkpt lat="42.90691195987165" lon="-4.600548036396503">
        <ele>1191.21</ele>
        <time>2025-04-29T08:05:59Z</time>
      </trkpt>
      <trkpt lat="42.90691195987165" lon="-4.600739981979132">
        <ele>1192.1700000000001</ele>
        <time>2025-04-29T08:06:00Z</time>
      </trkpt>
      <trkpt lat="42.90695202536881" lon="-4.600966041907668">
        <ele>1192.6500000000001</ele>
        <time>2025-04-29T08:06:01Z</time>
      </trkpt>
      <trkpt lat="42.906993012875319" lon="-4.601196041330695">
        <ele>1192.6500000000001</ele>
        <time>2025-04-29T08:06:02Z</time>
      </trkpt>
      <trkpt lat="42.907123016193509" lon="-4.601923003792763">
        <ele>1192.6500000000001</ele>
        <time>2025-04-29T08:06:05Z</time>
      </trkpt>
      <trkpt lat="42.907109018415213" lon="-4.602172030135989">
        <ele>1193.1300000000001</ele>
        <time>2025-04-29T08:06:06Z</time>
      </trkpt>
      <trkpt lat="42.907050009816885" lon="-4.602400017902255">
        <ele>1193.6099999999999</ele>
        <time>2025-04-29T08:06:07Z</time>
      </trkpt>
      <trkpt lat="42.906982032582164" lon="-4.602622976526618">
        <ele>1194.0899999999999</ele>
        <time>2025-04-29T08:06:08Z</time>
      </trkpt>
      <trkpt lat="42.906885975971818" lon="-4.602835038676858">
        <ele>1194.5799999999999</ele>
        <time>2025-04-29T08:06:09Z</time>
      </trkpt>
      <trkpt lat="42.906773993745446" lon="-4.60303301922977">
        <ele>1195.54</ele>
        <time>2025-04-29T08:06:10Z</time>
      </trkpt>
      <trkpt lat="42.906590010970831" lon="-4.60335697978735">
        <ele>1196.98</ele>
        <time>2025-04-29T08:06:12Z</time>
      </trkpt>
      <trkpt lat="42.906542988494039" lon="-4.60361204110086">
        <ele>1197.46</ele>
        <time>2025-04-29T08:06:13Z</time>
      </trkpt>
      <trkpt lat="42.90650300681591" lon="-4.603825025260449">
        <ele>1197.9400000000001</ele>
        <time>2025-04-29T08:06:14Z</time>
      </trkpt>
      <trkpt lat="42.906499989330769" lon="-4.604035997763276">
        <ele>1198.4200000000001</ele>
        <time>2025-04-29T08:06:15Z</time>
      </trkpt>
      <trkpt lat="42.906540976837277" lon="-4.604264991357923">
        <ele>1198.9000000000001</ele>
        <time>2025-04-29T08:06:16Z</time>
      </trkpt>
      <trkpt lat="42.906590010970831" lon="-4.60453798994422">
        <ele>1198.9000000000001</ele>
        <time>2025-04-29T08:06:17Z</time>
      </trkpt>
      <trkpt lat="42.906669974327087" lon="-4.604727001860738">
        <ele>1199.3800000000001</ele>
        <time>2025-04-29T08:06:18Z</time>
      </trkpt>
      <trkpt lat="42.907199962064624" lon="-4.605736015364528">
        <ele>1202.75</ele>
        <time>2025-04-29T08:06:23Z</time>
      </trkpt>
      <trkpt lat="42.907334994524717" lon="-4.605894014239311">
        <ele>1203.71</ele>
        <time>2025-04-29T08:06:24Z</time>
      </trkpt>
      <trkpt lat="42.907489975914359" lon="-4.60602100007236">
        <ele>1204.6700000000001</ele>
        <time>2025-04-29T08:06:25Z</time>
      </trkpt>
      <trkpt lat="42.908172011375427" lon="-4.606646960601211">
        <ele>1209.48</ele>
        <time>2025-04-29T08:06:31Z</time>
      </trkpt>
      <trkpt lat="42.908464036881924" lon="-4.607023978605866">
        <ele>1212.3599999999999</ele>
        <time>2025-04-29T08:06:36Z</time>
      </trkpt>
      <trkpt lat="42.90852103382349" lon="-4.607111988589168">
        <ele>1212.8399999999999</ele>
        <time>2025-04-29T08:06:37Z</time>
      </trkpt>
      <trkpt lat="42.9085239674896" lon="-4.607192035764456">
        <ele>1212.8399999999999</ele>
        <time>2025-04-29T08:06:38Z</time>
      </trkpt>
      <trkpt lat="42.908526984974742" lon="-4.607285996899009">
        <ele>1213.3199999999999</ele>
        <time>2025-04-29T08:06:39Z</time>
      </trkpt>
      <trkpt lat="42.908530002459884" lon="-4.607379036024213">
        <ele>1213.3199999999999</ele>
        <time>2025-04-29T08:06:40Z</time>
      </trkpt>
      <trkpt lat="42.908533019945025" lon="-4.607470985502005">
        <ele>1213.3199999999999</ele>
        <time>2025-04-29T08:06:41Z</time>
      </trkpt>
      <trkpt lat="42.908536037430167" lon="-4.607557989656925">
        <ele>1213.3199999999999</ele>
        <time>2025-04-29T08:06:42Z</time>
      </trkpt>
      <trkpt lat="42.908538971096277" lon="-4.607639964669943">
        <ele>1212.8399999999999</ele>
        <time>2025-04-29T08:06:43Z</time>
      </trkpt>
      <trkpt lat="42.908540982753038" lon="-4.607721017673612">
        <ele>1212.8399999999999</ele>
        <time>2025-04-29T08:06:44Z</time>
      </trkpt>
      <trkpt lat="42.9085429944098" lon="-4.607755970209837">
        <ele>1212.8399999999999</ele>
        <time>2025-04-29T08:06:45Z</time>
      </trkpt>
      <trkpt lat="42.908503012731671" lon="-4.607854960486293">
        <ele>1212.8399999999999</ele>
        <time>2025-04-29T08:06:46Z</time>
      </trkpt>
      <trkpt lat="42.908470993861556" lon="-4.607935007661581">
        <ele>1212.8399999999999</ele>
        <time>2025-04-29T08:06:47Z</time>
      </trkpt>
      <trkpt lat="42.90843402966857" lon="-4.607981024309993">
        <ele>1212.8399999999999</ele>
        <time>2025-04-29T08:06:48Z</time>
      </trkpt>
      <trkpt lat="42.908361023291945" lon="-4.608013965189457">
        <ele>1212.8399999999999</ele>
        <time>2025-04-29T08:06:49Z</time>
      </trkpt>
      <trkpt lat="42.90828499943018" lon="-4.608047995716333">
        <ele>1212.8399999999999</ele>
        <time>2025-04-29T08:06:50Z</time>
      </trkpt>
      <trkpt lat="42.908215010538697" lon="-4.608079008758068">
        <ele>1212.8399999999999</ele>
        <time>2025-04-29T08:06:51Z</time>
      </trkpt>
      <trkpt lat="42.908001020550728" lon="-4.608177999034524">
        <ele>1212.3599999999999</ele>
        <time>2025-04-29T08:06:54Z</time>
      </trkpt>
      <trkpt lat="42.907851990312338" lon="-4.608260979875922">
        <ele>1211.8800000000001</ele>
        <time>2025-04-29T08:06:56Z</time>
      </trkpt>
      <trkpt lat="42.907774960622191" lon="-4.608303979039192">
        <ele>1211.8800000000001</ele>
        <time>2025-04-29T08:06:57Z</time>
      </trkpt>
      <trkpt lat="42.907696003094316" lon="-4.608347984030843">
        <ele>1211.8800000000001</ele>
        <time>2025-04-29T08:06:58Z</time>
      </trkpt>
      <trkpt lat="42.90764101780951" lon="-4.608377991244197">
        <ele>1211.8800000000001</ele>
        <time>2025-04-29T08:06:59Z</time>
      </trkpt>
      <trkpt lat="42.907545967027545" lon="-4.608395006507635">
        <ele>1211.8800000000001</ele>
        <time>2025-04-29T08:07:00Z</time>
      </trkpt>
      <trkpt lat="42.907467009499669" lon="-4.608409004285932">
        <ele>1212.3599999999999</ele>
        <time>2025-04-29T08:07:01Z</time>
      </trkpt>
      <trkpt lat="42.907390985637903" lon="-4.608423002064228">
        <ele>1212.8399999999999</ele>
        <time>2025-04-29T08:07:02Z</time>
      </trkpt>
      <trkpt lat="42.907315967604518" lon="-4.608435994014144">
        <ele>1212.8399999999999</ele>
        <time>2025-04-29T08:07:03Z</time>
      </trkpt>
      <trkpt lat="42.907238015905023" lon="-4.60844999179244">
        <ele>1213.3199999999999</ele>
        <time>2025-04-29T08:07:04Z</time>
      </trkpt>
      <trkpt lat="42.90648297406733" lon="-4.608657024800777">
        <ele>1216.21</ele>
        <time>2025-04-29T08:07:14Z</time>
      </trkpt>
      <trkpt lat="42.906409967690706" lon="-4.608693988993764">
        <ele>1217.1700000000001</ele>
        <time>2025-04-29T08:07:15Z</time>
      </trkpt>
      <trkpt lat="42.906338972970843" lon="-4.608729025349021">
        <ele>1217.6500000000001</ele>
        <time>2025-04-29T08:07:16Z</time>
      </trkpt>
      <trkpt lat="42.906297985464334" lon="-4.608816029503942">
        <ele>1218.1300000000001</ele>
        <time>2025-04-29T08:07:17Z</time>
      </trkpt>
      <trkpt lat="42.906280970200896" lon="-4.608907978981733">
        <ele>1218.6099999999999</ele>
        <time>2025-04-29T08:07:18Z</time>
      </trkpt>
      <trkpt lat="42.906276024878025" lon="-4.608998000621796">
        <ele>1219.0899999999999</ele>
        <time>2025-04-29T08:07:19Z</time>
      </trkpt>
      <trkpt lat="42.906322041526437" lon="-4.609105959534645">
        <ele>1220.05</ele>
        <time>2025-04-29T08:07:20Z</time>
      </trkpt>
      <trkpt lat="42.906399993225932" lon="-4.609212996438146">
        <ele>1221.01</ele>
        <time>2025-04-29T08:07:21Z</time>
      </trkpt>
      <trkpt lat="42.906496971845627" lon="-4.609333025291562">
        <ele>1221.97</ele>
        <time>2025-04-29T08:07:22Z</time>
      </trkpt>
      <trkpt lat="42.907386040315032" lon="-4.610442034900188">
        <ele>1229.6600000000001</ele>
        <time>2025-04-29T08:07:29Z</time>
      </trkpt>
      <trkpt lat="42.907513026148081" lon="-4.610673962160945">
        <ele>1231.1099999999999</ele>
        <time>2025-04-29T08:07:30Z</time>
      </trkpt>
      <trkpt lat="42.908032033592463" lon="-4.611833011731505">
        <ele>1238.3199999999999</ele>
        <time>2025-04-29T08:07:35Z</time>
      </trkpt>
      <trkpt lat="42.908103028312325" lon="-4.612083965912461">
        <ele>1239.76</ele>
        <time>2025-04-29T08:07:36Z</time>
      </trkpt>
      <trkpt lat="42.908310983330011" lon="-4.612970016896725">
        <ele>1245.53</ele>
        <time>2025-04-29T08:07:40Z</time>
      </trkpt>
      <trkpt lat="42.908395975828171" lon="-4.613146036863327">
        <ele>1246.49</ele>
        <time>2025-04-29T08:07:41Z</time>
      </trkpt>
      <trkpt lat="42.908513993024826" lon="-4.613263970240951">
        <ele>1247.9300000000001</ele>
        <time>2025-04-29T08:07:42Z</time>
      </trkpt>
      <trkpt lat="42.908646007999778" lon="-4.613371007144451">
        <ele>1248.8900000000001</ele>
        <time>2025-04-29T08:07:43Z</time>
      </trkpt>
      <trkpt lat="42.908786991611123" lon="-4.61345499381423">
        <ele>1250.3299999999999</ele>
        <time>2025-04-29T08:07:44Z</time>
      </trkpt>
      <trkpt lat="42.909046998247504" lon="-4.613608969375491">
        <ele>1252.25</ele>
        <time>2025-04-29T08:07:46Z</time>
      </trkpt>
      <trkpt lat="42.90916501544416" lon="-4.613678958266974">
        <ele>1253.22</ele>
        <time>2025-04-29T08:07:47Z</time>
      </trkpt>
      <trkpt lat="42.909241961315274" lon="-4.613794041797519">
        <ele>1254.6600000000001</ele>
        <time>2025-04-29T08:07:48Z</time>
      </trkpt>
      <trkpt lat="42.909285966306925" lon="-4.613947011530399">
        <ele>1255.6199999999999</ele>
        <time>2025-04-29T08:07:49Z</time>
      </trkpt>
      <trkpt lat="42.909284960478544" lon="-4.614102998748422">
        <ele>1257.0599999999999</ele>
        <time>2025-04-29T08:07:50Z</time>
      </trkpt>
      <trkpt lat="42.909272974357009" lon="-4.614266026765108">
        <ele>1258.02</ele>
        <time>2025-04-29T08:07:51Z</time>
      </trkpt>
      <trkpt lat="42.909212959930301" lon="-4.614407010376453">
        <ele>1258.98</ele>
        <time>2025-04-29T08:07:52Z</time>
      </trkpt>
      <trkpt lat="42.909143976867199" lon="-4.614556040614843">
        <ele>1259.9400000000001</ele>
        <time>2025-04-29T08:07:53Z</time>
      </trkpt>
      <trkpt lat="42.909040041267872" lon="-4.614674979820848">
        <ele>1260.4300000000001</ele>
        <time>2025-04-29T08:07:54Z</time>
      </trkpt>
      <trkpt lat="42.908925041556358" lon="-4.614803977310658">
        <ele>1261.3900000000001</ele>
        <time>2025-04-29T08:07:55Z</time>
      </trkpt>
      <trkpt lat="42.908167988061905" lon="-4.615659015253186">
        <ele>1265.23</ele>
        <time>2025-04-29T08:08:01Z</time>
      </trkpt>
      <trkpt lat="42.908089030534029" lon="-4.615834029391408">
        <ele>1265.71</ele>
        <time>2025-04-29T08:08:02Z</time>
      </trkpt>
      <trkpt lat="42.90802801027894" lon="-4.616017006337643">
        <ele>1266.6700000000001</ele>
        <time>2025-04-29T08:08:03Z</time>
      </trkpt>
      <trkpt lat="42.908018035814166" lon="-4.61622797884047">
        <ele>1267.6400000000001</ele>
        <time>2025-04-29T08:08:04Z</time>
      </trkpt>
      <trkpt lat="42.908036978915334" lon="-4.616454038769007">
        <ele>1268.5999999999999</ele>
        <time>2025-04-29T08:08:05Z</time>
      </trkpt>
      <trkpt lat="42.908056005835533" lon="-4.616684960201383">
        <ele>1269.0799999999999</ele>
        <time>2025-04-29T08:08:06Z</time>
      </trkpt>
      <trkpt lat="42.908062962815166" lon="-4.616922000423074">
        <ele>1270.04</ele>
        <time>2025-04-29T08:08:07Z</time>
      </trkpt>
      <trkpt lat="42.908034967258573" lon="-4.617159040644765">
        <ele>1271</ele>
        <time>2025-04-29T08:08:08Z</time>
      </trkpt>
      <trkpt lat="42.907970007508993" lon="-4.617390967905521">
        <ele>1271.96</ele>
        <time>2025-04-29T08:08:09Z</time>
      </trkpt>
      <trkpt lat="42.907860036939383" lon="-4.617590038105846">
        <ele>1272.9200000000001</ele>
        <time>2025-04-29T08:08:10Z</time>
      </trkpt>
      <trkpt lat="42.907742019742727" lon="-4.617793969810009">
        <ele>1274.3599999999999</ele>
        <time>2025-04-29T08:08:11Z</time>
      </trkpt>
      <trkpt lat="42.907622996717691" lon="-4.617998991161585">
        <ele>1275.8099999999999</ele>
        <time>2025-04-29T08:08:12Z</time>
      </trkpt>
      <trkpt lat="42.907504979521036" lon="-4.6182020008564">
        <ele>1276.77</ele>
        <time>2025-04-29T08:08:13Z</time>
      </trkpt>
      <trkpt lat="42.90738201700151" lon="-4.618414985015988">
        <ele>1277.73</ele>
        <time>2025-04-29T08:08:14Z</time>
      </trkpt>
      <trkpt lat="42.906708028167486" lon="-4.62037299759686">
        <ele>1286.3800000000001</ele>
        <time>2025-04-29T08:08:22Z</time>
      </trkpt>
      <trkpt lat="42.9066969640553" lon="-4.620634010061622">
        <ele>1287.8199999999999</ele>
        <time>2025-04-29T08:08:23Z</time>
      </trkpt>
      <trkpt lat="42.9066969640553" lon="-4.620898040011525">
        <ele>1288.78</ele>
        <time>2025-04-29T08:08:24Z</time>
      </trkpt>
      <trkpt lat="42.906719008460641" lon="-4.621152011677623">
        <ele>1290.23</ele>
        <time>2025-04-29T08:08:25Z</time>
      </trkpt>
      <trkpt lat="42.906779022887349" lon="-4.621406989172101">
        <ele>1291.6700000000001</ele>
        <time>2025-04-29T08:08:26Z</time>
      </trkpt>
      <trkpt lat="42.906839037314057" lon="-4.621661966666579">
        <ele>1293.1099999999999</ele>
        <time>2025-04-29T08:08:27Z</time>
      </trkpt>
      <trkpt lat="42.906922018155456" lon="-4.62189900688827">
        <ele>1294.55</ele>
        <time>2025-04-29T08:08:28Z</time>
      </trkpt>
      <trkpt lat="42.907027965411544" lon="-4.622118026018143">
        <ele>1295.99</ele>
        <time>2025-04-29T08:08:29Z</time>
      </trkpt>
      <trkpt lat="42.907128967344761" lon="-4.622326986864209">
        <ele>1297.4400000000001</ele>
        <time>2025-04-29T08:08:30Z</time>
      </trkpt>
      <trkpt lat="42.907219994813204" lon="-4.622525973245502">
        <ele>1298.8800000000001</ele>
        <time>2025-04-29T08:08:31Z</time>
      </trkpt>
      <trkpt lat="42.90727699175477" lon="-4.622734012082219">
        <ele>1300.3199999999999</ele>
        <time>2025-04-29T08:08:32Z</time>
      </trkpt>
      <trkpt lat="42.907289983704686" lon="-4.622943978756666">
        <ele>1301.76</ele>
        <time>2025-04-29T08:08:33Z</time>
      </trkpt>
      <trkpt lat="42.907282020896673" lon="-4.623137013986707">
        <ele>1303.2</ele>
        <time>2025-04-29T08:08:34Z</time>
      </trkpt>
      <trkpt lat="42.907231980934739" lon="-4.623323008418083">
        <ele>1304.6500000000001</ele>
        <time>2025-04-29T08:08:35Z</time>
      </trkpt>
      <trkpt lat="42.907156040892005" lon="-4.623484024778009">
        <ele>1305.6099999999999</ele>
        <time>2025-04-29T08:08:36Z</time>
      </trkpt>
      <trkpt lat="42.907056966796517" lon="-4.623630959540606">
        <ele>1306.5699999999999</ele>
        <time>2025-04-29T08:08:37Z</time>
      </trkpt>
      <trkpt lat="42.906942972913384" lon="-4.623736990615726">
        <ele>1307.53</ele>
        <time>2025-04-29T08:08:38Z</time>
      </trkpt>
      <trkpt lat="42.906827973201871" lon="-4.62383296340704">
        <ele>1308.49</ele>
        <time>2025-04-29T08:08:39Z</time>
      </trkpt>
      <trkpt lat="42.906728982925415" lon="-4.62391602806747">
        <ele>1309.45</ele>
        <time>2025-04-29T08:08:40Z</time>
      </trkpt>
      <trkpt lat="42.906639967113733" lon="-4.623990040272474">
        <ele>1309.9300000000001</ele>
        <time>2025-04-29T08:08:41Z</time>
      </trkpt>
      <trkpt lat="42.906555980443954" lon="-4.624060029163957">
        <ele>1310.9000000000001</ele>
        <time>2025-04-29T08:08:42Z</time>
      </trkpt>
      <trkpt lat="42.906498983502388" lon="-4.624193971976638">
        <ele>1311.3800000000001</ele>
        <time>2025-04-29T08:08:43Z</time>
      </trkpt>
      <trkpt lat="42.906457995995879" lon="-4.624355994164944">
        <ele>1311.8599999999999</ele>
        <time>2025-04-29T08:08:44Z</time>
      </trkpt>
      <trkpt lat="42.906422959640622" lon="-4.624537965282798">
        <ele>1312.8199999999999</ele>
        <time>2025-04-29T08:08:45Z</time>
      </trkpt>
      <trkpt lat="42.906207041814923" lon="-4.625725010409951">
        <ele>1318.0999999999999</ele>
        <time>2025-04-29T08:08:51Z</time>
      </trkpt>
      <trkpt lat="42.906146021559834" lon="-4.625886026769877">
        <ele>1319.0699999999999</ele>
        <time>2025-04-29T08:08:52Z</time>
      </trkpt>
      <trkpt lat="42.906074021011591" lon="-4.626033967360854">
        <ele>1320.03</ele>
        <time>2025-04-29T08:08:53Z</time>
      </trkpt>
      <trkpt lat="42.905953992158175" lon="-4.626123989000917">
        <ele>1320.99</ele>
        <time>2025-04-29T08:08:54Z</time>
      </trkpt>
      <trkpt lat="42.905830023810267" lon="-4.626217028126121">
        <ele>1321.95</ele>
        <time>2025-04-29T08:08:55Z</time>
      </trkpt>
      <trkpt lat="42.905701026320457" lon="-4.626274025067687">
        <ele>1322.9100000000001</ele>
        <time>2025-04-29T08:08:56Z</time>
      </trkpt>
      <trkpt lat="42.905568005517125" lon="-4.626274025067687">
        <ele>1324.3499999999999</ele>
        <time>2025-04-29T08:08:57Z</time>
      </trkpt>
      <trkpt lat="42.905444959178567" lon="-4.626274025067687">
        <ele>1325.3099999999999</ele>
        <time>2025-04-29T08:08:58Z</time>
      </trkpt>
      <trkpt lat="42.90534496307373" lon="-4.626274025067687">
        <ele>1325.8</ele>
        <time>2025-04-29T08:08:59Z</time>
      </trkpt>
      <trkpt lat="42.905224012210965" lon="-4.626320041716099">
        <ele>1326.76</ele>
        <time>2025-04-29T08:09:00Z</time>
      </trkpt>
      <trkpt lat="42.905116975307465" lon="-4.626394975930452">
        <ele>1327.72</ele>
        <time>2025-04-29T08:09:01Z</time>
      </trkpt>
      <trkpt lat="42.905037011951208" lon="-4.626522967591882">
        <ele>1328.6800000000001</ele>
        <time>2025-04-29T08:09:02Z</time>
      </trkpt>
      <trkpt lat="42.90497800335288" lon="-4.626675015315414">
        <ele>1329.6400000000001</ele>
        <time>2025-04-29T08:09:03Z</time>
      </trkpt>
      <trkpt lat="42.904953025281429" lon="-4.626850029453635">
        <ele>1330.5999999999999</ele>
        <time>2025-04-29T08:09:04Z</time>
      </trkpt>
      <trkpt lat="42.904941961169243" lon="-4.627044992521405">
        <ele>1331.5599999999999</ele>
        <time>2025-04-29T08:09:05Z</time>
      </trkpt>
      <trkpt lat="42.904970962554216" lon="-4.627238027751446">
        <ele>1332.52</ele>
        <time>2025-04-29T08:09:06Z</time>
      </trkpt>
      <trkpt lat="42.905027959495783" lon="-4.627416981384158">
        <ele>1333.97</ele>
        <time>2025-04-29T08:09:07Z</time>
      </trkpt>
      <trkpt lat="42.905098032206297" lon="-4.627584032714367">
        <ele>1335.4100000000001</ele>
        <time>2025-04-29T08:09:08Z</time>
      </trkpt>
      <trkpt lat="42.905208002775908" lon="-4.627709006890655">
        <ele>1336.3699999999999</ele>
        <time>2025-04-29T08:09:09Z</time>
      </trkpt>
      <trkpt lat="42.905330965295434" lon="-4.627773966640234">
        <ele>1337.3299999999999</ele>
        <time>2025-04-29T08:09:10Z</time>
      </trkpt>
      <trkpt lat="42.905458034947515" lon="-4.627841021865606">
        <ele>1338.29</ele>
        <time>2025-04-29T08:09:11Z</time>
      </trkpt>
      <trkpt lat="42.905596001073718" lon="-4.627915034070611">
        <ele>1338.77</ele>
        <time>2025-04-29T08:09:12Z</time>
      </trkpt>
      <trkpt lat="42.906036972999573" lon="-4.628180991858244">
        <ele>1340.7</ele>
        <time>2025-04-29T08:09:15Z</time>
      </trkpt>
      <trkpt lat="42.906184997409582" lon="-4.628304960206151">
        <ele>1341.6600000000001</ele>
        <time>2025-04-29T08:09:16Z</time>
      </trkpt>
      <trkpt lat="42.906303014606237" lon="-4.628478968515992">
        <ele>1342.6199999999999</ele>
        <time>2025-04-29T08:09:17Z</time>
      </trkpt>
      <trkpt lat="42.906422037631273" lon="-4.628655994310975">
        <ele>1344.0599999999999</ele>
        <time>2025-04-29T08:09:18Z</time>
      </trkpt>
      <trkpt lat="42.906547011807561" lon="-4.62883897125721">
        <ele>1345.02</ele>
        <time>2025-04-29T08:09:19Z</time>
      </trkpt>
      <trkpt lat="42.906655976548791" lon="-4.629049021750689">
        <ele>1346.46</ele>
        <time>2025-04-29T08:09:20Z</time>
      </trkpt>
      <trkpt lat="42.906745998188853" lon="-4.629281032830477">
        <ele>1347.4300000000001</ele>
        <time>2025-04-29T08:09:21Z</time>
      </trkpt>
      <trkpt lat="42.906822022050619" lon="-4.629535004496574">
        <ele>1349.3499999999999</ele>
        <time>2025-04-29T08:09:22Z</time>
      </trkpt>
      <trkpt lat="42.907453011721373" lon="-4.631680017337203">
        <ele>1360.4000000000001</ele>
        <time>2025-04-29T08:09:30Z</time>
      </trkpt>
      <trkpt lat="42.907573962584138" lon="-4.631893001496792">
        <ele>1361.8399999999999</ele>
        <time>2025-04-29T08:09:31Z</time>
      </trkpt>
      <trkpt lat="42.907691979780793" lon="-4.632101040333509">
        <ele>1363.29</ele>
        <time>2025-04-29T08:09:32Z</time>
      </trkpt>
      <trkpt lat="42.907804967835546" lon="-4.632299020886421">
        <ele>1364.73</ele>
        <time>2025-04-29T08:09:33Z</time>
      </trkpt>
      <trkpt lat="42.907884009182453" lon="-4.632520973682404">
        <ele>1366.1700000000001</ele>
        <time>2025-04-29T08:09:34Z</time>
      </trkpt>
      <trkpt lat="42.907933965325356" lon="-4.632754996418953">
        <ele>1367.6099999999999</ele>
        <time>2025-04-29T08:09:35Z</time>
      </trkpt>
      <trkpt lat="42.90798501111567" lon="-4.632990024983883">
        <ele>1368.5699999999999</ele>
        <time>2025-04-29T08:09:36Z</time>
      </trkpt>
      <trkpt lat="42.908064974471927" lon="-4.633151963353157">
        <ele>1369.54</ele>
        <time>2025-04-29T08:09:37Z</time>
      </trkpt>
      <trkpt lat="42.908196989446878" lon="-4.633280038833618">
        <ele>1370.5</ele>
        <time>2025-04-29T08:09:38Z</time>
      </trkpt>
      <trkpt lat="42.90835096500814" lon="-4.633390009403229">
        <ele>1371.46</ele>
        <time>2025-04-29T08:09:39Z</time>
      </trkpt>
      <trkpt lat="42.908513993024826" lon="-4.633506014943123">
        <ele>1372.9000000000001</ele>
        <time>2025-04-29T08:09:40Z</time>
      </trkpt>
      <trkpt lat="42.910050982609391" lon="-4.634431963786483">
        <ele>1383.47</ele>
        <time>2025-04-29T08:09:48Z</time>
      </trkpt>
      <trkpt lat="42.910717008635402" lon="-4.634646959602833">
        <ele>1389.24</ele>
        <time>2025-04-29T08:09:52Z</time>
      </trkpt>
      <trkpt lat="42.910843994468451" lon="-4.634718038141727">
        <ele>1390.6800000000001</ele>
        <time>2025-04-29T08:09:53Z</time>
      </trkpt>
      <trkpt lat="42.910967040807009" lon="-4.634814010933042">
        <ele>1392.1300000000001</ele>
        <time>2025-04-29T08:09:54Z</time>
      </trkpt>
      <trkpt lat="42.911038035526872" lon="-4.634966980665922">
        <ele>1393.5699999999999</ele>
        <time>2025-04-29T08:09:55Z</time>
      </trkpt>
      <trkpt lat="42.911101989448071" lon="-4.635139983147383">
        <ele>1395.01</ele>
        <time>2025-04-29T08:09:56Z</time>
      </trkpt>
      <trkpt lat="42.911127973347902" lon="-4.635335030034185">
        <ele>1396.45</ele>
        <time>2025-04-29T08:09:57Z</time>
      </trkpt>
      <trkpt lat="42.911154041066766" lon="-4.635526975616813">
        <ele>1397.4100000000001</ele>
        <time>2025-04-29T08:09:58Z</time>
      </trkpt>
      <trkpt lat="42.911178013309836" lon="-4.635709030553699">
        <ele>1398.8599999999999</ele>
        <time>2025-04-29T08:09:59Z</time>
      </trkpt>
      <trkpt lat="42.911140965297818" lon="-4.635882033035159">
        <ele>1399.8199999999999</ele>
        <time>2025-04-29T08:10:00Z</time>
      </trkpt>
      <trkpt lat="42.911087991669774" lon="-4.636049000546336">
        <ele>1400.78</ele>
        <time>2025-04-29T08:10:01Z</time>
      </trkpt>
      <trkpt lat="42.910994030535221" lon="-4.63618503883481">
        <ele>1402.22</ele>
        <time>2025-04-29T08:10:02Z</time>
      </trkpt>
      <trkpt lat="42.910903003066778" lon="-4.63631596416235">
        <ele>1403.1800000000001</ele>
        <time>2025-04-29T08:10:03Z</time>
      </trkpt>
      <trkpt lat="42.910840976983309" lon="-4.63646499440074">
        <ele>1404.1400000000001</ele>
        <time>2025-04-29T08:10:04Z</time>
      </trkpt>
      <trkpt lat="42.910796971991658" lon="-4.636610001325607">
        <ele>1405.0999999999999</ele>
        <time>2025-04-29T08:10:05Z</time>
      </trkpt>
      <trkpt lat="42.910800995305181" lon="-4.636793984100223">
        <ele>1406.0699999999999</ele>
        <time>2025-04-29T08:10:06Z</time>
      </trkpt>
      <trkpt lat="42.910807030275464" lon="-4.636990036815405">
        <ele>1407.03</ele>
        <time>2025-04-29T08:10:07Z</time>
      </trkpt>
      <trkpt lat="42.910811975598335" lon="-4.637181982398033">
        <ele>1407.99</ele>
        <time>2025-04-29T08:10:08Z</time>
      </trkpt>
      <trkpt lat="42.910815998911858" lon="-4.637355990707874">
        <ele>1408.95</ele>
        <time>2025-04-29T08:10:09Z</time>
      </trkpt>
      <trkpt lat="42.910771993920207" lon="-4.637507032603025">
        <ele>1409.9100000000001</ele>
        <time>2025-04-29T08:10:10Z</time>
      </trkpt>
      <trkpt lat="42.910709967836738" lon="-4.637667965143919">
        <ele>1410.8699999999999</ele>
        <time>2025-04-29T08:10:11Z</time>
      </trkpt>
      <trkpt lat="42.910622041672468" lon="-4.637758992612362">
        <ele>1412.3099999999999</ele>
        <time>2025-04-29T08:10:12Z</time>
      </trkpt>
      <trkpt lat="42.9105219617486" lon="-4.637865023687482">
        <ele>1413.28</ele>
        <time>2025-04-29T08:10:13Z</time>
      </trkpt>
      <trkpt lat="42.910415008664131" lon="-4.637974994257093">
        <ele>1414.24</ele>
        <time>2025-04-29T08:10:14Z</time>
      </trkpt>
      <trkpt lat="42.910307971760631" lon="-4.638086976483464">
        <ele>1415.2</ele>
        <time>2025-04-29T08:10:15Z</time>
      </trkpt>
      <trkpt lat="42.910216022282839" lon="-4.63818303309381">
        <ele>1416.1600000000001</ele>
        <time>2025-04-29T08:10:16Z</time>
      </trkpt>
      <trkpt lat="42.91015500202775" lon="-4.638383025303483">
        <ele>1416.6400000000001</ele>
        <time>2025-04-29T08:10:17Z</time>
      </trkpt>
      <trkpt lat="42.910103034228086" lon="-4.638557033613324">
        <ele>1417.1199999999999</ele>
        <time>2025-04-29T08:10:18Z</time>
      </trkpt>
      <trkpt lat="42.910065986216068" lon="-4.638733975589275">
        <ele>1417.5999999999999</ele>
        <time>2025-04-29T08:10:19Z</time>
      </trkpt>
      <trkpt lat="42.910065986216068" lon="-4.638930028304458">
        <ele>1418.0799999999999</ele>
        <time>2025-04-29T08:10:20Z</time>
      </trkpt>
      <trkpt lat="42.910104040056467" lon="-4.63912901468575">
        <ele>1418.5599999999999</ele>
        <time>2025-04-29T08:10:21Z</time>
      </trkpt>
      <trkpt lat="42.91017503477633" lon="-4.639330012723804">
        <ele>1419.52</ele>
        <time>2025-04-29T08:10:22Z</time>
      </trkpt>
      <trkpt lat="42.910249968990684" lon="-4.639542996883392">
        <ele>1420</ele>
        <time>2025-04-29T08:10:23Z</time>
      </trkpt>
      <trkpt lat="42.910512993112206" lon="-4.640340032055974">
        <ele>1422.8900000000001</ele>
        <time>2025-04-29T08:10:27Z</time>
      </trkpt>
      <trkpt lat="42.910535037517548" lon="-4.640498030930758">
        <ele>1423.3699999999999</ele>
        <time>2025-04-29T08:10:28Z</time>
      </trkpt>
      <trkpt lat="42.910506036132574" lon="-4.640653012320399">
        <ele>1423.3699999999999</ele>
        <time>2025-04-29T08:10:29Z</time>
      </trkpt>
      <trkpt lat="42.910474017262459" lon="-4.640821991488338">
        <ele>1423.3699999999999</ele>
        <time>2025-04-29T08:10:30Z</time>
      </trkpt>
      <trkpt lat="42.910397993400693" lon="-4.640953000634909">
        <ele>1423.8499999999999</ele>
        <time>2025-04-29T08:10:31Z</time>
      </trkpt>
      <trkpt lat="42.910318030044436" lon="-4.641090966761112">
        <ele>1423.8499999999999</ele>
        <time>2025-04-29T08:10:32Z</time>
      </trkpt>
      <trkpt lat="42.910234965384007" lon="-4.64123304001987">
        <ele>1423.8499999999999</ele>
        <time>2025-04-29T08:10:33Z</time>
      </trkpt>
      <trkpt lat="42.910119965672493" lon="-4.641339993104339">
        <ele>1424.3299999999999</ele>
        <time>2025-04-29T08:10:34Z</time>
      </trkpt>
      <trkpt lat="42.910002032294869" lon="-4.64145096950233">
        <ele>1424.3299999999999</ele>
        <time>2025-04-29T08:10:35Z</time>
      </trkpt>
      <trkpt lat="42.909879991784692" lon="-4.641564963385463">
        <ele>1424.3299999999999</ele>
        <time>2025-04-29T08:10:36Z</time>
      </trkpt>
      <trkpt lat="42.9092510137707" lon="-4.642153037711978">
        <ele>1424.8099999999999</ele>
        <time>2025-04-29T08:10:42Z</time>
      </trkpt>
      <trkpt lat="42.909207008779049" lon="-4.642276000231504">
        <ele>1425.29</ele>
        <time>2025-04-29T08:10:43Z</time>
      </trkpt>
      <trkpt lat="42.909159986302257" lon="-4.642406003549695">
        <ele>1425.77</ele>
        <time>2025-04-29T08:10:44Z</time>
      </trkpt>
      <trkpt lat="42.909150011837482" lon="-4.642558973282576">
        <ele>1426.25</ele>
        <time>2025-04-29T08:10:45Z</time>
      </trkpt>
      <trkpt lat="42.909160992130637" lon="-4.642730969935656">
        <ele>1426.73</ele>
        <time>2025-04-29T08:10:46Z</time>
      </trkpt>
      <trkpt lat="42.909212959930301" lon="-4.642897015437484">
        <ele>1426.73</ele>
        <time>2025-04-29T08:10:47Z</time>
      </trkpt>
      <trkpt lat="42.909297030419111" lon="-4.643071023747325">
        <ele>1427.21</ele>
        <time>2025-04-29T08:10:48Z</time>
      </trkpt>
      <trkpt lat="42.909388979896903" lon="-4.643262969329953">
        <ele>1427.7</ele>
        <time>2025-04-29T08:10:49Z</time>
      </trkpt>
      <trkpt lat="42.909571034833789" lon="-4.64364099316299">
        <ele>1428.6600000000001</ele>
        <time>2025-04-29T08:10:51Z</time>
      </trkpt>
      <trkpt lat="42.909647980704904" lon="-4.643799997866154">
        <ele>1429.1400000000001</ele>
        <time>2025-04-29T08:10:52Z</time>
      </trkpt>
      <trkpt lat="42.909701038151979" lon="-4.643951039761305">
        <ele>1429.6199999999999</ele>
        <time>2025-04-29T08:10:53Z</time>
      </trkpt>
      <trkpt lat="42.909701038151979" lon="-4.644117001444101">
        <ele>1430.5799999999999</ele>
        <time>2025-04-29T08:10:54Z</time>
      </trkpt>
      <trkpt lat="42.909681005403399" lon="-4.644275000318885">
        <ele>1431.0599999999999</ele>
        <time>2025-04-29T08:10:55Z</time>
      </trkpt>
      <trkpt lat="42.909611016511917" lon="-4.644413972273469">
        <ele>1431.54</ele>
        <time>2025-04-29T08:10:56Z</time>
      </trkpt>
      <trkpt lat="42.909541027620435" lon="-4.644555039703846">
        <ele>1432.02</ele>
        <time>2025-04-29T08:10:57Z</time>
      </trkpt>
      <trkpt lat="42.909199967980385" lon="-4.645121991634369">
        <ele>1433.9400000000001</ele>
        <time>2025-04-29T08:11:02Z</time>
      </trkpt>
      <trkpt lat="42.909163003787398" lon="-4.645179994404316">
        <ele>1434.4200000000001</ele>
        <time>2025-04-29T08:11:03Z</time>
      </trkpt>
      <trkpt lat="42.909038029611111" lon="-4.645375041291118">
        <ele>1433.9400000000001</ele>
        <time>2025-04-29T08:11:11Z</time>
      </trkpt>
      <trkpt lat="42.908968962728977" lon="-4.645486017689109">
        <ele>1434.9100000000001</ele>
        <time>2025-04-29T08:11:19Z</time>
      </trkpt>
      <trkpt lat="42.908884976059198" lon="-4.645271021872759">
        <ele>1431.0599999999999</ele>
        <time>2025-04-29T08:15:43Z</time>
      </trkpt>
      <trkpt lat="42.908881036564708" lon="-4.645369006320834">
        <ele>1432.5</ele>
        <time>2025-04-29T08:16:31Z</time>
      </trkpt>
      <trkpt lat="42.908897968009114" lon="-4.645357020199299">
        <ele>1432.5</ele>
        <time>2025-04-29T08:17:30Z</time>
      </trkpt>
      <trkpt lat="42.908971980214119" lon="-4.645477971062064">
        <ele>1432.98</ele>
        <time>2025-04-29T08:17:49Z</time>
      </trkpt>
      <trkpt lat="42.908971980214119" lon="-4.645478976890445">
        <ele>1432.98</ele>
        <time>2025-04-29T08:17:50Z</time>
      </trkpt>
      <trkpt lat="42.90895001962781" lon="-4.645541002973914">
        <ele>1432.98</ele>
        <time>2025-04-29T08:17:51Z</time>
      </trkpt>
      <trkpt lat="42.90882202796638" lon="-4.645921960473061">
        <ele>1432.02</ele>
        <time>2025-04-29T08:17:59Z</time>
      </trkpt>
      <trkpt lat="42.90882202796638" lon="-4.646005025133491">
        <ele>1432.02</ele>
        <time>2025-04-29T08:18:00Z</time>
      </trkpt>
      <trkpt lat="42.90892998687923" lon="-4.647033987566829">
        <ele>1428.6600000000001</ele>
        <time>2025-04-29T08:18:07Z</time>
      </trkpt>
      <trkpt lat="42.909020008519292" lon="-4.647587025538087">
        <ele>1427.21</ele>
        <time>2025-04-29T08:18:10Z</time>
      </trkpt>
      <trkpt lat="42.909068036824465" lon="-4.64776698499918">
        <ele>1426.73</ele>
        <time>2025-04-29T08:18:11Z</time>
      </trkpt>
      <trkpt lat="42.909127967432141" lon="-4.647920038551092">
        <ele>1425.77</ele>
        <time>2025-04-29T08:18:12Z</time>
      </trkpt>
      <trkpt lat="42.909225029870868" lon="-4.648077031597495">
        <ele>1424.8099999999999</ele>
        <time>2025-04-29T08:18:13Z</time>
      </trkpt>
      <trkpt lat="42.909333994612098" lon="-4.64819798246026">
        <ele>1423.8499999999999</ele>
        <time>2025-04-29T08:18:14Z</time>
      </trkpt>
      <trkpt lat="42.909444971010089" lon="-4.648320022970438">
        <ele>1423.3699999999999</ele>
        <time>2025-04-29T08:18:15Z</time>
      </trkpt>
      <trkpt lat="42.909552007913589" lon="-4.648438962176442">
        <ele>1422.8900000000001</ele>
        <time>2025-04-29T08:18:16Z</time>
      </trkpt>
      <trkpt lat="42.909623002633452" lon="-4.648580029606819">
        <ele>1421.9300000000001</ele>
        <time>2025-04-29T08:18:17Z</time>
      </trkpt>
      <trkpt lat="42.909650998190045" lon="-4.6487329993397">
        <ele>1421.45</ele>
        <time>2025-04-29T08:18:18Z</time>
      </trkpt>
      <trkpt lat="42.909672958776355" lon="-4.648908013477922">
        <ele>1420.49</ele>
        <time>2025-04-29T08:18:19Z</time>
      </trkpt>
      <trkpt lat="42.909693997353315" lon="-4.649085039272904">
        <ele>1419.52</ele>
        <time>2025-04-29T08:18:20Z</time>
      </trkpt>
      <trkpt lat="42.909733979031444" lon="-4.649263992905617">
        <ele>1418.5599999999999</ele>
        <time>2025-04-29T08:18:21Z</time>
      </trkpt>
      <trkpt lat="42.909778989851475" lon="-4.649426015093923">
        <ele>1417.1199999999999</ele>
        <time>2025-04-29T08:18:22Z</time>
      </trkpt>
      <trkpt lat="42.909985017031431" lon="-4.649862041696906">
        <ele>1413.28</ele>
        <time>2025-04-29T08:18:25Z</time>
      </trkpt>
      <trkpt lat="42.910089958459139" lon="-4.649981986731291">
        <ele>1411.8299999999999</ele>
        <time>2025-04-29T08:18:26Z</time>
      </trkpt>
      <trkpt lat="42.910208981484175" lon="-4.65008600614965">
        <ele>1410.8699999999999</ele>
        <time>2025-04-29T08:18:27Z</time>
      </trkpt>
      <trkpt lat="42.910330016165972" lon="-4.650192959234119">
        <ele>1409.9100000000001</ele>
        <time>2025-04-29T08:18:28Z</time>
      </trkpt>
      <trkpt lat="42.910450967028737" lon="-4.650299996137619">
        <ele>1408.95</ele>
        <time>2025-04-29T08:18:29Z</time>
      </trkpt>
      <trkpt lat="42.910570995882154" lon="-4.650405021384358">
        <ele>1408.47</ele>
        <time>2025-04-29T08:18:30Z</time>
      </trkpt>
      <trkpt lat="42.910646013915539" lon="-4.650542987510562">
        <ele>1407.51</ele>
        <time>2025-04-29T08:18:31Z</time>
      </trkpt>
      <trkpt lat="42.910695970058441" lon="-4.65070802718401">
        <ele>1407.03</ele>
        <time>2025-04-29T08:18:32Z</time>
      </trkpt>
      <trkpt lat="42.910731006413698" lon="-4.650822021067143">
        <ele>1406.55</ele>
        <time>2025-04-29T08:18:33Z</time>
      </trkpt>
      <trkpt lat="42.910698987543583" lon="-4.650970967486501">
        <ele>1406.0699999999999</ele>
        <time>2025-04-29T08:18:34Z</time>
      </trkpt>
      <trkpt lat="42.910666968673468" lon="-4.651122009381652">
        <ele>1405.0999999999999</ele>
        <time>2025-04-29T08:18:35Z</time>
      </trkpt>
      <trkpt lat="42.910598991438746" lon="-4.651228962466121">
        <ele>1404.6199999999999</ele>
        <time>2025-04-29T08:18:36Z</time>
      </trkpt>
      <trkpt lat="42.910517016425729" lon="-4.651357959955931">
        <ele>1403.6600000000001</ele>
        <time>2025-04-29T08:18:37Z</time>
      </trkpt>
      <trkpt lat="42.910395981743932" lon="-4.651390984654427">
        <ele>1403.1800000000001</ele>
        <time>2025-04-29T08:18:38Z</time>
      </trkpt>
      <trkpt lat="42.910259021446109" lon="-4.651428032666445">
        <ele>1402.7</ele>
        <time>2025-04-29T08:18:39Z</time>
      </trkpt>
      <trkpt lat="42.910119965672493" lon="-4.651466002687812">
        <ele>1402.22</ele>
        <time>2025-04-29T08:18:40Z</time>
      </trkpt>
      <trkpt lat="42.909692991524935" lon="-4.651583014056087">
        <ele>1400.78</ele>
        <time>2025-04-29T08:18:43Z</time>
      </trkpt>
      <trkpt lat="42.909543039277196" lon="-4.65163498185575">
        <ele>1400.3</ele>
        <time>2025-04-29T08:18:44Z</time>
      </trkpt>
      <trkpt lat="42.909443965181708" lon="-4.651702037081122">
        <ele>1399.8199999999999</ele>
        <time>2025-04-29T08:18:45Z</time>
      </trkpt>
      <trkpt lat="42.909308010712266" lon="-4.651881996542215">
        <ele>1399.3399999999999</ele>
        <time>2025-04-29T08:18:46Z</time>
      </trkpt>
      <trkpt lat="42.909227041527629" lon="-4.652038989588618">
        <ele>1398.3699999999999</ele>
        <time>2025-04-29T08:18:47Z</time>
      </trkpt>
      <trkpt lat="42.909172978252172" lon="-4.652221966534853">
        <ele>1397.8900000000001</ele>
        <time>2025-04-29T08:18:48Z</time>
      </trkpt>
      <trkpt lat="42.909135008230805" lon="-4.652404021471739">
        <ele>1397.4100000000001</ele>
        <time>2025-04-29T08:18:49Z</time>
      </trkpt>
      <trkpt lat="42.909112041816115" lon="-4.652608036994934">
        <ele>1396.9300000000001</ele>
        <time>2025-04-29T08:18:50Z</time>
      </trkpt>
      <trkpt lat="42.909115981310606" lon="-4.652797970920801">
        <ele>1396.9300000000001</ele>
        <time>2025-04-29T08:18:51Z</time>
      </trkpt>
      <trkpt lat="42.909152023494244" lon="-4.652998968958855">
        <ele>1396.9300000000001</ele>
        <time>2025-04-29T08:18:52Z</time>
      </trkpt>
      <trkpt lat="42.909220000728965" lon="-4.653179012238979">
        <ele>1396.9300000000001</ele>
        <time>2025-04-29T08:18:53Z</time>
      </trkpt>
      <trkpt lat="42.909313039854169" lon="-4.653354026377201">
        <ele>1396.9300000000001</ele>
        <time>2025-04-29T08:18:54Z</time>
      </trkpt>
      <trkpt lat="42.909418987110257" lon="-4.653520993888378">
        <ele>1396.9300000000001</ele>
        <time>2025-04-29T08:18:55Z</time>
      </trkpt>
      <trkpt lat="42.909539015963674" lon="-4.653682010248303">
        <ele>1396.45</ele>
        <time>2025-04-29T08:18:56Z</time>
      </trkpt>
      <trkpt lat="42.910245023667812" lon="-4.654649030417204">
        <ele>1395.01</ele>
        <time>2025-04-29T08:19:02Z</time>
      </trkpt>
      <trkpt lat="42.910378966480494" lon="-4.654775010421872">
        <ele>1395.01</ele>
        <time>2025-04-29T08:19:03Z</time>
      </trkpt>
      <trkpt lat="42.910534031689167" lon="-4.654846005141735">
        <ele>1395.01</ele>
        <time>2025-04-29T08:19:04Z</time>
      </trkpt>
      <trkpt lat="42.910688007250428" lon="-4.65487701818347">
        <ele>1395.49</ele>
        <time>2025-04-29T08:19:05Z</time>
      </trkpt>
      <trkpt lat="42.910841982811689" lon="-4.654820021241903">
        <ele>1395.49</ele>
        <time>2025-04-29T08:19:06Z</time>
      </trkpt>
      <trkpt lat="42.910980032756925" lon="-4.654767969623208">
        <ele>1395.97</ele>
        <time>2025-04-29T08:19:07Z</time>
      </trkpt>
      <trkpt lat="42.911095032468438" lon="-4.654674008488655">
        <ele>1395.97</ele>
        <time>2025-04-29T08:19:08Z</time>
      </trkpt>
      <trkpt lat="42.911192011088133" lon="-4.654529001563788">
        <ele>1396.45</ele>
        <time>2025-04-29T08:19:09Z</time>
      </trkpt>
      <trkpt lat="42.911266023293138" lon="-4.654368991032243">
        <ele>1396.45</ele>
        <time>2025-04-29T08:19:10Z</time>
      </trkpt>
      <trkpt lat="42.911341041326523" lon="-4.654207974672318">
        <ele>1397.4100000000001</ele>
        <time>2025-04-29T08:19:11Z</time>
      </trkpt>
      <trkpt lat="42.911418993026018" lon="-4.65404000133276">
        <ele>1397.4100000000001</ele>
        <time>2025-04-29T08:19:12Z</time>
      </trkpt>
      <trkpt lat="42.911544973030686" lon="-4.653960959985852">
        <ele>1397.8900000000001</ele>
        <time>2025-04-29T08:19:13Z</time>
      </trkpt>
      <trkpt lat="42.911682017147541" lon="-4.653908992186189">
        <ele>1398.3699999999999</ele>
        <time>2025-04-29T08:19:14Z</time>
      </trkpt>
      <trkpt lat="42.911820989102125" lon="-4.653857024386525">
        <ele>1398.8599999999999</ele>
        <time>2025-04-29T08:19:15Z</time>
      </trkpt>
      <trkpt lat="42.91226196102798" lon="-4.65371897444129">
        <ele>1399.8199999999999</ele>
        <time>2025-04-29T08:19:18Z</time>
      </trkpt>
      <trkpt lat="42.912416020408273" lon="-4.65371897444129">
        <ele>1400.3</ele>
        <time>2025-04-29T08:19:19Z</time>
      </trkpt>
      <trkpt lat="42.912566978484392" lon="-4.65371897444129">
        <ele>1400.3</ele>
        <time>2025-04-29T08:19:20Z</time>
      </trkpt>
      <trkpt lat="42.912707040086389" lon="-4.653822993859649">
        <ele>1400.78</ele>
        <time>2025-04-29T08:19:21Z</time>
      </trkpt>
      <trkpt lat="42.912834025919437" lon="-4.653923995792866">
        <ele>1400.78</ele>
        <time>2025-04-29T08:19:22Z</time>
      </trkpt>
      <trkpt lat="42.912937039509416" lon="-4.654057016596198">
        <ele>1401.26</ele>
        <time>2025-04-29T08:19:23Z</time>
      </trkpt>
      <trkpt lat="42.913017002865672" lon="-4.654224989935756">
        <ele>1402.22</ele>
        <time>2025-04-29T08:19:24Z</time>
      </trkpt>
      <trkpt lat="42.91309897787869" lon="-4.654395980760455">
        <ele>1403.1800000000001</ele>
        <time>2025-04-29T08:19:25Z</time>
      </trkpt>
      <trkpt lat="42.91316200979054" lon="-4.654587004333735">
        <ele>1403.6600000000001</ele>
        <time>2025-04-29T08:19:26Z</time>
      </trkpt>
      <trkpt lat="42.913450011983514" lon="-4.655411029234529">
        <ele>1405.5799999999999</ele>
        <time>2025-04-29T08:19:30Z</time>
      </trkpt>
      <trkpt lat="42.913564005866647" lon="-4.655593000352383">
        <ele>1406.0699999999999</ele>
        <time>2025-04-29T08:19:31Z</time>
      </trkpt>
      <trkpt lat="42.913691997528076" lon="-4.655740018934012">
        <ele>1405.5799999999999</ele>
        <time>2025-04-29T08:19:32Z</time>
      </trkpt>
      <trkpt lat="42.913819989189506" lon="-4.655873039737344">
        <ele>1405.5799999999999</ele>
        <time>2025-04-29T08:19:33Z</time>
      </trkpt>
      <trkpt lat="42.913970025256276" lon="-4.655940011143684">
        <ele>1406.0699999999999</ele>
        <time>2025-04-29T08:19:34Z</time>
      </trkpt>
      <trkpt lat="42.914116038009524" lon="-4.655943028628826">
        <ele>1406.0699999999999</ele>
        <time>2025-04-29T08:19:35Z</time>
      </trkpt>
      <trkpt lat="42.914273031055927" lon="-4.655934982001782">
        <ele>1406.55</ele>
        <time>2025-04-29T08:19:36Z</time>
      </trkpt>
      <trkpt lat="42.914432035759091" lon="-4.655899023637176">
        <ele>1406.55</ele>
        <time>2025-04-29T08:19:37Z</time>
      </trkpt>
      <trkpt lat="42.914572013542056" lon="-4.655797015875578">
        <ele>1407.03</ele>
        <time>2025-04-29T08:19:38Z</time>
      </trkpt>
      <trkpt lat="42.914700005203485" lon="-4.655656032264233">
        <ele>1407.03</ele>
        <time>2025-04-29T08:19:39Z</time>
      </trkpt>
      <trkpt lat="42.914825985208154" lon="-4.655517982318997">
        <ele>1407.03</ele>
        <time>2025-04-29T08:19:40Z</time>
      </trkpt>
      <trkpt lat="42.914942996576428" lon="-4.655389990657568">
        <ele>1407.03</ele>
        <time>2025-04-29T08:19:41Z</time>
      </trkpt>
      <trkpt lat="42.91507501155138" lon="-4.65530700981617">
        <ele>1406.55</ele>
        <time>2025-04-29T08:19:42Z</time>
      </trkpt>
      <trkpt lat="42.915213983505964" lon="-4.655283959582448">
        <ele>1406.55</ele>
        <time>2025-04-29T08:19:43Z</time>
      </trkpt>
      <trkpt lat="42.915335018187761" lon="-4.655343974009156">
        <ele>1406.55</ele>
        <time>2025-04-29T08:19:44Z</time>
      </trkpt>
      <trkpt lat="42.915451023727655" lon="-4.655423015356064">
        <ele>1406.0699999999999</ele>
        <time>2025-04-29T08:19:45Z</time>
      </trkpt>
      <trkpt lat="42.915544984862208" lon="-4.655563998967409">
        <ele>1406.0699999999999</ele>
        <time>2025-04-29T08:19:46Z</time>
      </trkpt>
      <trkpt lat="42.915612040087581" lon="-4.655720992013812">
        <ele>1406.0699999999999</ele>
        <time>2025-04-29T08:19:47Z</time>
      </trkpt>
      <trkpt lat="42.915638023987412" lon="-4.655915033072233">
        <ele>1405.5799999999999</ele>
        <time>2025-04-29T08:19:48Z</time>
      </trkpt>
      <trkpt lat="42.915667025372386" lon="-4.656122988089919">
        <ele>1405.5799999999999</ele>
        <time>2025-04-29T08:19:49Z</time>
      </trkpt>
      <trkpt lat="42.91565403342247" lon="-4.656352987512946">
        <ele>1405.0999999999999</ele>
        <time>2025-04-29T08:19:50Z</time>
      </trkpt>
      <trkpt lat="42.915636012330651" lon="-4.656595978885889">
        <ele>1404.6199999999999</ele>
        <time>2025-04-29T08:19:51Z</time>
      </trkpt>
      <trkpt lat="42.915387991815805" lon="-4.658925980329514">
        <ele>1396.9300000000001</ele>
        <time>2025-04-29T08:19:59Z</time>
      </trkpt>
      <trkpt lat="42.91498901322484" lon="-4.66293596662581">
        <ele>1389.24</ele>
        <time>2025-04-29T08:20:12Z</time>
      </trkpt>
      <trkpt lat="42.914996976032853" lon="-4.663188010454178">
        <ele>1389.72</ele>
        <time>2025-04-29T08:20:13Z</time>
      </trkpt>
      <trkpt lat="42.915040981024504" lon="-4.663431001827121">
        <ele>1390.2</ele>
        <time>2025-04-29T08:20:14Z</time>
      </trkpt>
      <trkpt lat="42.915104012936354" lon="-4.663677010685206">
        <ele>1390.6800000000001</ele>
        <time>2025-04-29T08:20:15Z</time>
      </trkpt>
      <trkpt lat="42.915189005434513" lon="-4.663924025371671">
        <ele>1390.6800000000001</ele>
        <time>2025-04-29T08:20:16Z</time>
      </trkpt>
      <trkpt lat="42.915273997932673" lon="-4.664171040058136">
        <ele>1390.6800000000001</ele>
        <time>2025-04-29T08:20:17Z</time>
      </trkpt>
      <trkpt lat="42.915941029787064" lon="-4.666055962443352">
        <ele>1384.9200000000001</ele>
        <time>2025-04-29T08:20:26Z</time>
      </trkpt>
      <trkpt lat="42.916503958404064" lon="-4.667611978948116">
        <ele>1380.5899999999999</ele>
        <time>2025-04-29T08:20:35Z</time>
      </trkpt>
      <trkpt lat="42.916575036942959" lon="-4.667734019458294">
        <ele>1380.1099999999999</ele>
        <time>2025-04-29T08:20:36Z</time>
      </trkpt>
      <trkpt lat="42.916649971157312" lon="-4.667823035269976">
        <ele>1379.6300000000001</ele>
        <time>2025-04-29T08:20:37Z</time>
      </trkpt>
      <trkpt lat="42.916744016110897" lon="-4.667890006676316">
        <ele>1379.1500000000001</ele>
        <time>2025-04-29T08:20:38Z</time>
      </trkpt>
      <trkpt lat="42.916855998337269" lon="-4.667878020554781">
        <ele>1378.6700000000001</ele>
        <time>2025-04-29T08:20:39Z</time>
      </trkpt>
      <trkpt lat="42.916969992220402" lon="-4.667837033048272">
        <ele>1377.71</ele>
        <time>2025-04-29T08:20:40Z</time>
      </trkpt>
      <trkpt lat="42.917092032730579" lon="-4.667765032500029">
        <ele>1377.23</ele>
        <time>2025-04-29T08:20:41Z</time>
      </trkpt>
      <trkpt lat="42.917213989421725" lon="-4.667692026123405">
        <ele>1376.26</ele>
        <time>2025-04-29T08:20:42Z</time>
      </trkpt>
      <trkpt lat="42.917347010225058" lon="-4.667612984776497">
        <ele>1375.3</ele>
        <time>2025-04-29T08:20:43Z</time>
      </trkpt>
      <trkpt lat="42.917757974937558" lon="-4.667367981746793">
        <ele>1372.9000000000001</ele>
        <time>2025-04-29T08:20:46Z</time>
      </trkpt>
      <trkpt lat="42.917892001569271" lon="-4.667322970926762">
        <ele>1372.4200000000001</ele>
        <time>2025-04-29T08:20:47Z</time>
      </trkpt>
      <trkpt lat="42.918014964088798" lon="-4.667366975918412">
        <ele>1371.46</ele>
        <time>2025-04-29T08:20:48Z</time>
      </trkpt>
      <trkpt lat="42.918127030134201" lon="-4.667434031143785">
        <ele>1370.98</ele>
        <time>2025-04-29T08:20:49Z</time>
      </trkpt>
      <trkpt lat="42.918207999318838" lon="-4.667540984228253">
        <ele>1370.02</ele>
        <time>2025-04-29T08:20:50Z</time>
      </trkpt>
      <trkpt lat="42.918284023180604" lon="-4.667671993374825">
        <ele>1369.54</ele>
        <time>2025-04-29T08:20:51Z</time>
      </trkpt>
      <trkpt lat="42.918324004858732" lon="-4.667838038876653">
        <ele>1369.05</ele>
        <time>2025-04-29T08:20:52Z</time>
      </trkpt>
      <trkpt lat="42.918339008465409" lon="-4.668024033308029">
        <ele>1368.5699999999999</ele>
        <time>2025-04-29T08:20:53Z</time>
      </trkpt>
      <trkpt lat="42.918353006243706" lon="-4.668216984719038">
        <ele>1367.6099999999999</ele>
        <time>2025-04-29T08:20:54Z</time>
      </trkpt>
      <trkpt lat="42.918468005955219" lon="-4.669065987691283">
        <ele>1364.25</ele>
        <time>2025-04-29T08:20:58Z</time>
      </trkpt>
      <trkpt lat="42.918527014553547" lon="-4.669291041791439">
        <ele>1362.8099999999999</ele>
        <time>2025-04-29T08:20:59Z</time>
      </trkpt>
      <trkpt lat="42.918611001223326" lon="-4.669500002637506">
        <ele>1361.8399999999999</ele>
        <time>2025-04-29T08:21:00Z</time>
      </trkpt>
      <trkpt lat="42.919191028922796" lon="-4.671027017757297">
        <ele>1352.71</ele>
        <time>2025-04-29T08:21:07Z</time>
      </trkpt>
      <trkpt lat="42.919193962588906" lon="-4.671232961118221">
        <ele>1352.23</ele>
        <time>2025-04-29T08:21:08Z</time>
      </trkpt>
      <trkpt lat="42.919173007830977" lon="-4.671456003561616">
        <ele>1351.27</ele>
        <time>2025-04-29T08:21:09Z</time>
      </trkpt>
      <trkpt lat="42.919080974534154" lon="-4.672399973496795">
        <ele>1348.3900000000001</ele>
        <time>2025-04-29T08:21:13Z</time>
      </trkpt>
      <trkpt lat="42.919058008119464" lon="-4.672635002061725">
        <ele>1346.9400000000001</ele>
        <time>2025-04-29T08:21:14Z</time>
      </trkpt>
      <trkpt lat="42.919106036424637" lon="-4.672872964292765">
        <ele>1345.98</ele>
        <time>2025-04-29T08:21:15Z</time>
      </trkpt>
      <trkpt lat="42.9191580042243" lon="-4.673114027827978">
        <ele>1345.02</ele>
        <time>2025-04-29T08:21:16Z</time>
      </trkpt>
      <trkpt lat="42.919210977852345" lon="-4.673359030857682">
        <ele>1343.5799999999999</ele>
        <time>2025-04-29T08:21:17Z</time>
      </trkpt>
      <trkpt lat="42.91939596645534" lon="-4.674350023269653">
        <ele>1338.77</ele>
        <time>2025-04-29T08:21:21Z</time>
      </trkpt>
      <trkpt lat="42.919417005032301" lon="-4.674592008814216">
        <ele>1337.8099999999999</ele>
        <time>2025-04-29T08:21:22Z</time>
      </trkpt>
      <trkpt lat="42.919384986162186" lon="-4.674835000187159">
        <ele>1336.8499999999999</ele>
        <time>2025-04-29T08:21:23Z</time>
      </trkpt>
      <trkpt lat="42.919255988672376" lon="-4.676097985357046">
        <ele>1331.0799999999999</ele>
        <time>2025-04-29T08:21:28Z</time>
      </trkpt>
      <trkpt lat="42.919262023642659" lon="-4.676356986165047">
        <ele>1329.6400000000001</ele>
        <time>2025-04-29T08:21:29Z</time>
      </trkpt>
      <trkpt lat="42.919268980622292" lon="-4.676617998629808">
        <ele>1328.2</ele>
        <time>2025-04-29T08:21:30Z</time>
      </trkpt>
      <trkpt lat="42.919311979785562" lon="-4.676870964467526">
        <ele>1326.76</ele>
        <time>2025-04-29T08:21:31Z</time>
      </trkpt>
      <trkpt lat="42.919369982555509" lon="-4.67711697332561">
        <ele>1325.3099999999999</ele>
        <time>2025-04-29T08:21:32Z</time>
      </trkpt>
      <trkpt lat="42.91969696059823" lon="-4.678497975692153">
        <ele>1318.0999999999999</ele>
        <time>2025-04-29T08:21:38Z</time>
      </trkpt>
      <trkpt lat="42.919743983075023" lon="-4.678695034235716">
        <ele>1316.6600000000001</ele>
        <time>2025-04-29T08:21:39Z</time>
      </trkpt>
      <trkpt lat="42.919832998886704" lon="-4.678810033947229">
        <ele>1315.22</ele>
        <time>2025-04-29T08:21:40Z</time>
      </trkpt>
      <trkpt lat="42.919935006648302" lon="-4.678894020617008">
        <ele>1314.74</ele>
        <time>2025-04-29T08:21:41Z</time>
      </trkpt>
      <trkpt lat="42.920040031895041" lon="-4.678909024223685">
        <ele>1313.78</ele>
        <time>2025-04-29T08:21:42Z</time>
      </trkpt>
      <trkpt lat="42.920137010514736" lon="-4.678868036717176">
        <ele>1312.8199999999999</ele>
        <time>2025-04-29T08:21:43Z</time>
      </trkpt>
      <trkpt lat="42.920244969427586" lon="-4.678816990926862">
        <ele>1311.8599999999999</ele>
        <time>2025-04-29T08:21:44Z</time>
      </trkpt>
      <trkpt lat="42.920355023816228" lon="-4.678723029792309">
        <ele>1311.3800000000001</ele>
        <time>2025-04-29T08:21:45Z</time>
      </trkpt>
      <trkpt lat="42.921143006533384" lon="-4.678100002929568">
        <ele>1306.0899999999999</ele>
        <time>2025-04-29T08:21:51Z</time>
      </trkpt>
      <trkpt lat="42.921288013458252" lon="-4.678051974624395">
        <ele>1305.1300000000001</ele>
        <time>2025-04-29T08:21:52Z</time>
      </trkpt>
      <trkpt lat="42.921427991241217" lon="-4.678008975461125">
        <ele>1304.1700000000001</ele>
        <time>2025-04-29T08:21:53Z</time>
      </trkpt>
      <trkpt lat="42.921567969024181" lon="-4.678019033744931">
        <ele>1303.2</ele>
        <time>2025-04-29T08:21:54Z</time>
      </trkpt>
      <trkpt lat="42.921705013141036" lon="-4.678028002381325">
        <ele>1302.24</ele>
        <time>2025-04-29T08:21:55Z</time>
      </trkpt>
      <trkpt lat="42.921836022287607" lon="-4.678089022636414">
        <ele>1301.28</ele>
        <time>2025-04-29T08:21:56Z</time>
      </trkpt>
      <trkpt lat="42.921956973150373" lon="-4.678163034841418">
        <ele>1300.3199999999999</ele>
        <time>2025-04-29T08:21:57Z</time>
      </trkpt>
      <trkpt lat="42.922070967033505" lon="-4.678233023732901">
        <ele>1299.3599999999999</ele>
        <time>2025-04-29T08:21:58Z</time>
      </trkpt>
      <trkpt lat="42.922173980623484" lon="-4.678322039544582">
        <ele>1298.4000000000001</ele>
        <time>2025-04-29T08:21:59Z</time>
      </trkpt>
      <trkpt lat="42.922264002263546" lon="-4.67842597514391">
        <ele>1297.9200000000001</ele>
        <time>2025-04-29T08:22:00Z</time>
      </trkpt>
      <trkpt lat="42.922354023903608" lon="-4.678528988733888">
        <ele>1297.4400000000001</ele>
        <time>2025-04-29T08:22:01Z</time>
      </trkpt>
      <trkpt lat="42.922442033886909" lon="-4.678635019809008">
        <ele>1296.96</ele>
        <time>2025-04-29T08:22:02Z</time>
      </trkpt>
      <trkpt lat="42.923265974968672" lon="-4.679765990003943">
        <ele>1295.99</ele>
        <time>2025-04-29T08:22:13Z</time>
      </trkpt>
      <trkpt lat="42.923316014930606" lon="-4.679862968623638">
        <ele>1295.99</ele>
        <time>2025-04-29T08:22:14Z</time>
      </trkpt>
      <trkpt lat="42.923360019922256" lon="-4.679966988041997">
        <ele>1295.99</ele>
        <time>2025-04-29T08:22:15Z</time>
      </trkpt>
      <trkpt lat="42.923406958580017" lon="-4.680076036602259">
        <ele>1295.99</ele>
        <time>2025-04-29T08:22:16Z</time>
      </trkpt>
      <trkpt lat="42.923417016863823" lon="-4.680204028263688">
        <ele>1295.99</ele>
        <time>2025-04-29T08:22:17Z</time>
      </trkpt>
      <trkpt lat="42.923422968015075" lon="-4.680337971076369">
        <ele>1295.99</ele>
        <time>2025-04-29T08:22:18Z</time>
      </trkpt>
      <trkpt lat="42.923427997156978" lon="-4.680479038506746">
        <ele>1295.99</ele>
        <time>2025-04-29T08:22:19Z</time>
      </trkpt>
      <trkpt lat="42.923433026298881" lon="-4.680627984926105">
        <ele>1295.99</ele>
        <time>2025-04-29T08:22:20Z</time>
      </trkpt>
      <trkpt lat="42.923378963023424" lon="-4.680752959102392">
        <ele>1295.99</ele>
        <time>2025-04-29T08:22:21Z</time>
      </trkpt>
      <trkpt lat="42.923326995223761" lon="-4.680872987955809">
        <ele>1295.99</ele>
        <time>2025-04-29T08:22:22Z</time>
      </trkpt>
      <trkpt lat="42.923275027424097" lon="-4.680994022637606">
        <ele>1295.99</ele>
        <time>2025-04-29T08:22:23Z</time>
      </trkpt>
      <trkpt lat="42.922919970005751" lon="-4.681718973442912">
        <ele>1295.99</ele>
        <time>2025-04-29T08:22:29Z</time>
      </trkpt>
      <trkpt lat="42.922716960310936" lon="-4.682438978925347">
        <ele>1295.99</ele>
        <time>2025-04-29T08:22:34Z</time>
      </trkpt>
      <trkpt lat="42.922664992511272" lon="-4.682579040527344">
        <ele>1295.51</ele>
        <time>2025-04-29T08:22:35Z</time>
      </trkpt>
      <trkpt lat="42.921996032819152" lon="-4.683911008760333">
        <ele>1293.1099999999999</ele>
        <time>2025-04-29T08:22:45Z</time>
      </trkpt>
      <trkpt lat="42.921518012881279" lon="-4.684688011184335">
        <ele>1293.1099999999999</ele>
        <time>2025-04-29T08:22:51Z</time>
      </trkpt>
      <trkpt lat="42.921411981806159" lon="-4.684794964268804">
        <ele>1292.6300000000001</ele>
        <time>2025-04-29T08:22:52Z</time>
      </trkpt>
      <trkpt lat="42.919987980276346" lon="-4.686119975522161">
        <ele>1293.1099999999999</ele>
        <time>2025-04-29T08:23:04Z</time>
      </trkpt>
      <trkpt lat="42.91847001761198" lon="-4.687518998980522">
        <ele>1293.1099999999999</ele>
        <time>2025-04-29T08:23:15Z</time>
      </trkpt>
      <trkpt lat="42.917375005781651" lon="-4.688462968915701">
        <ele>1295.03</ele>
        <time>2025-04-29T08:23:22Z</time>
      </trkpt>
      <trkpt lat="42.917218012735248" lon="-4.688552990555763">
        <ele>1295.03</ele>
        <time>2025-04-29T08:23:23Z</time>
      </trkpt>
      <trkpt lat="42.917071999981999" lon="-4.688632031902671">
        <ele>1295.51</ele>
        <time>2025-04-29T08:23:24Z</time>
      </trkpt>
      <trkpt lat="42.916903020814061" lon="-4.688662961125374">
        <ele>1295.99</ele>
        <time>2025-04-29T08:23:25Z</time>
      </trkpt>
      <trkpt lat="42.916734041646123" lon="-4.688662039116025">
        <ele>1295.99</ele>
        <time>2025-04-29T08:23:26Z</time>
      </trkpt>
      <trkpt lat="42.916566990315914" lon="-4.688646029680967">
        <ele>1296.48</ele>
        <time>2025-04-29T08:23:27Z</time>
      </trkpt>
      <trkpt lat="42.91640798561275" lon="-4.68863102607429">
        <ele>1296.48</ele>
        <time>2025-04-29T08:23:28Z</time>
      </trkpt>
      <trkpt lat="42.916249986737967" lon="-4.688615016639233">
        <ele>1296.96</ele>
        <time>2025-04-29T08:23:29Z</time>
      </trkpt>
      <trkpt lat="42.916091987863183" lon="-4.688658015802503">
        <ele>1297.4400000000001</ele>
        <time>2025-04-29T08:23:30Z</time>
      </trkpt>
      <trkpt lat="42.915939018130302" lon="-4.688742002472282">
        <ele>1297.4400000000001</ele>
        <time>2025-04-29T08:23:31Z</time>
      </trkpt>
      <trkpt lat="42.914524991065264" lon="-4.68955596908927">
        <ele>1298.4000000000001</ele>
        <time>2025-04-29T08:23:39Z</time>
      </trkpt>
      <trkpt lat="42.912830002605915" lon="-4.690699009224773">
        <ele>1298.4000000000001</ele>
        <time>2025-04-29T08:23:48Z</time>
      </trkpt>
      <trkpt lat="42.912683989852667" lon="-4.69086698256433">
        <ele>1297.9200000000001</ele>
        <time>2025-04-29T08:23:49Z</time>
      </trkpt>
      <trkpt lat="42.912547029554844" lon="-4.691049959510565">
        <ele>1297.9200000000001</ele>
        <time>2025-04-29T08:23:50Z</time>
      </trkpt>
      <trkpt lat="42.912440998479724" lon="-4.691262021660805">
        <ele>1297.4400000000001</ele>
        <time>2025-04-29T08:23:51Z</time>
      </trkpt>
      <trkpt lat="42.912373021245003" lon="-4.691495038568974">
        <ele>1297.4400000000001</ele>
        <time>2025-04-29T08:23:52Z</time>
      </trkpt>
      <trkpt lat="42.912312000989914" lon="-4.691729983314872">
        <ele>1296.96</ele>
        <time>2025-04-29T08:23:53Z</time>
      </trkpt>
      <trkpt lat="42.912280987948179" lon="-4.691959982737899">
        <ele>1296.96</ele>
        <time>2025-04-29T08:23:54Z</time>
      </trkpt>
      <trkpt lat="42.91226003319025" lon="-4.692183025181294">
        <ele>1296.48</ele>
        <time>2025-04-29T08:23:55Z</time>
      </trkpt>
      <trkpt lat="42.912241006270051" lon="-4.692387962713838">
        <ele>1296.48</ele>
        <time>2025-04-29T08:23:56Z</time>
      </trkpt>
      <trkpt lat="42.912191972136497" lon="-4.692569011822343">
        <ele>1296.48</ele>
        <time>2025-04-29T08:23:57Z</time>
      </trkpt>
      <trkpt lat="42.91208703070879" lon="-4.692687029018998">
        <ele>1296.48</ele>
        <time>2025-04-29T08:23:58Z</time>
      </trkpt>
      <trkpt lat="42.911970019340515" lon="-4.692779984325171">
        <ele>1295.99</ele>
        <time>2025-04-29T08:23:59Z</time>
      </trkpt>
      <trkpt lat="42.911846973001957" lon="-4.692784007638693">
        <ele>1295.99</ele>
        <time>2025-04-29T08:24:00Z</time>
      </trkpt>
      <trkpt lat="42.911713030189276" lon="-4.692773027345538">
        <ele>1295.99</ele>
        <time>2025-04-29T08:24:01Z</time>
      </trkpt>
      <trkpt lat="42.91159501299262" lon="-4.692704966291785">
        <ele>1295.99</ele>
        <time>2025-04-29T08:24:02Z</time>
      </trkpt>
      <trkpt lat="42.911459980532527" lon="-4.692616034299135">
        <ele>1295.51</ele>
        <time>2025-04-29T08:24:03Z</time>
      </trkpt>
      <trkpt lat="42.911316985264421" lon="-4.692522995173931">
        <ele>1295.51</ele>
        <time>2025-04-29T08:24:04Z</time>
      </trkpt>
      <trkpt lat="42.911170972511172" lon="-4.692427022382617">
        <ele>1295.51</ele>
        <time>2025-04-29T08:24:05Z</time>
      </trkpt>
      <trkpt lat="42.911010961979628" lon="-4.692353010177612">
        <ele>1295.03</ele>
        <time>2025-04-29T08:24:06Z</time>
      </trkpt>
      <trkpt lat="42.910841982811689" lon="-4.692282015457749">
        <ele>1295.03</ele>
        <time>2025-04-29T08:24:07Z</time>
      </trkpt>
      <trkpt lat="42.910667974501848" lon="-4.692233987152576">
        <ele>1295.03</ele>
        <time>2025-04-29T08:24:08Z</time>
      </trkpt>
      <trkpt lat="42.910487009212375" lon="-4.692229041829705">
        <ele>1294.55</ele>
        <time>2025-04-29T08:24:09Z</time>
      </trkpt>
      <trkpt lat="42.910301014780998" lon="-4.692225018516183">
        <ele>1294.55</ele>
        <time>2025-04-29T08:24:10Z</time>
      </trkpt>
      <trkpt lat="42.910118959844112" lon="-4.692220995202661">
        <ele>1294.0699999999999</ele>
        <time>2025-04-29T08:24:11Z</time>
      </trkpt>
      <trkpt lat="42.909787036478519" lon="-4.692233987152576">
        <ele>1294.0699999999999</ele>
        <time>2025-04-29T08:24:13Z</time>
      </trkpt>
      <trkpt lat="42.909643035382032" lon="-4.692300036549568">
        <ele>1293.5899999999999</ele>
        <time>2025-04-29T08:24:14Z</time>
      </trkpt>
      <trkpt lat="42.909518983215094" lon="-4.692397015169263">
        <ele>1293.5899999999999</ele>
        <time>2025-04-29T08:24:15Z</time>
      </trkpt>
      <trkpt lat="42.909428039565682" lon="-4.692554008215666">
        <ele>1293.5899999999999</ele>
        <time>2025-04-29T08:24:16Z</time>
      </trkpt>
      <trkpt lat="42.90936098434031" lon="-4.692719969898462">
        <ele>1293.1099999999999</ele>
        <time>2025-04-29T08:24:17Z</time>
      </trkpt>
      <trkpt lat="42.909294012933969" lon="-4.692921973764896">
        <ele>1293.5899999999999</ele>
        <time>2025-04-29T08:24:18Z</time>
      </trkpt>
      <trkpt lat="42.909281020984054" lon="-4.693107968196273">
        <ele>1294.0699999999999</ele>
        <time>2025-04-29T08:24:19Z</time>
      </trkpt>
      <trkpt lat="42.909267023205757" lon="-4.693317012861371">
        <ele>1295.03</ele>
        <time>2025-04-29T08:24:20Z</time>
      </trkpt>
      <trkpt lat="42.90912201628089" lon="-4.695605020970106">
        <ele>1299.8399999999999</ele>
        <time>2025-04-29T08:24:29Z</time>
      </trkpt>
      <trkpt lat="42.90901699103415" lon="-4.698096038773656">
        <ele>1304.1700000000001</ele>
        <time>2025-04-29T08:24:38Z</time>
      </trkpt>
      <trkpt lat="42.909041969105601" lon="-4.698349004611373">
        <ele>1304.1700000000001</ele>
        <time>2025-04-29T08:24:39Z</time>
      </trkpt>
      <trkpt lat="42.909114975482225" lon="-4.698586966842413">
        <ele>1303.6900000000001</ele>
        <time>2025-04-29T08:24:40Z</time>
      </trkpt>
      <trkpt lat="42.909189993515611" lon="-4.698829036206007">
        <ele>1303.2</ele>
        <time>2025-04-29T08:24:41Z</time>
      </trkpt>
      <trkpt lat="42.909305999055505" lon="-4.699049983173609">
        <ele>1302.72</ele>
        <time>2025-04-29T08:24:42Z</time>
      </trkpt>
      <trkpt lat="42.909433990716934" lon="-4.699261961504817">
        <ele>1302.24</ele>
        <time>2025-04-29T08:24:43Z</time>
      </trkpt>
      <trkpt lat="42.91051902808249" lon="-4.701090976595879">
        <ele>1295.99</ele>
        <time>2025-04-29T08:24:52Z</time>
      </trkpt>
      <trkpt lat="42.910565966740251" lon="-4.701271019876003">
        <ele>1295.99</ele>
        <time>2025-04-29T08:24:53Z</time>
      </trkpt>
      <trkpt lat="42.910578036680818" lon="-4.701447039842606">
        <ele>1295.99</ele>
        <time>2025-04-29T08:24:54Z</time>
      </trkpt>
      <trkpt lat="42.910544006153941" lon="-4.701603027060628">
        <ele>1295.99</ele>
        <time>2025-04-29T08:24:55Z</time>
      </trkpt>
      <trkpt lat="42.910493966192007" lon="-4.701762031763792">
        <ele>1296.48</ele>
        <time>2025-04-29T08:24:56Z</time>
      </trkpt>
      <trkpt lat="42.910405034199357" lon="-4.701882982626557">
        <ele>1296.48</ele>
        <time>2025-04-29T08:24:57Z</time>
      </trkpt>
      <trkpt lat="42.910293973982334" lon="-4.701974010095">
        <ele>1296.96</ele>
        <time>2025-04-29T08:24:58Z</time>
      </trkpt>
      <trkpt lat="42.910164976492524" lon="-4.702010974287987">
        <ele>1296.96</ele>
        <time>2025-04-29T08:24:59Z</time>
      </trkpt>
      <trkpt lat="42.910023992881179" lon="-4.701993959024549">
        <ele>1297.4400000000001</ele>
        <time>2025-04-29T08:25:00Z</time>
      </trkpt>
      <trkpt lat="42.90987404063344" lon="-4.701975015923381">
        <ele>1297.9200000000001</ele>
        <time>2025-04-29T08:25:01Z</time>
      </trkpt>
      <trkpt lat="42.908540982753038" lon="-4.701992031186819">
        <ele>1301.76</ele>
        <time>2025-04-29T08:25:09Z</time>
      </trkpt>
      <trkpt lat="42.908388013020158" lon="-4.702064031735063">
        <ele>1301.76</ele>
        <time>2025-04-29T08:25:10Z</time>
      </trkpt>
      <trkpt lat="42.908273013308644" lon="-4.702170984819531">
        <ele>1301.76</ele>
        <time>2025-04-29T08:25:11Z</time>
      </trkpt>
      <trkpt lat="42.908168993890285" lon="-4.702267041429877">
        <ele>1301.76</ele>
        <time>2025-04-29T08:25:12Z</time>
      </trkpt>
      <trkpt lat="42.908103028312325" lon="-4.702386986464262">
        <ele>1301.28</ele>
        <time>2025-04-29T08:25:13Z</time>
      </trkpt>
      <trkpt lat="42.908053994178772" lon="-4.702522018924356">
        <ele>1301.28</ele>
        <time>2025-04-29T08:25:14Z</time>
      </trkpt>
      <trkpt lat="42.908036978915334" lon="-4.702673982828856">
        <ele>1301.28</ele>
        <time>2025-04-29T08:25:15Z</time>
      </trkpt>
      <trkpt lat="42.908045025542378" lon="-4.702831981703639">
        <ele>1300.8</ele>
        <time>2025-04-29T08:25:16Z</time>
      </trkpt>
      <trkpt lat="42.908102022483945" lon="-4.702974976971746">
        <ele>1300.8</ele>
        <time>2025-04-29T08:25:17Z</time>
      </trkpt>
      <trkpt lat="42.908181985840201" lon="-4.7031120210886">
        <ele>1300.3199999999999</ele>
        <time>2025-04-29T08:25:18Z</time>
      </trkpt>
      <trkpt lat="42.908278964459896" lon="-4.703227020800114">
        <ele>1299.8399999999999</ele>
        <time>2025-04-29T08:25:19Z</time>
      </trkpt>
      <trkpt lat="42.908398993313313" lon="-4.70332701690495">
        <ele>1299.3599999999999</ele>
        <time>2025-04-29T08:25:20Z</time>
      </trkpt>
      <trkpt lat="42.9092510137707" lon="-4.70403696410358">
        <ele>1297.4400000000001</ele>
        <time>2025-04-29T08:25:26Z</time>
      </trkpt>
      <trkpt lat="42.909366013482213" lon="-4.704214995726943">
        <ele>1297.4400000000001</ele>
        <time>2025-04-29T08:25:27Z</time>
      </trkpt>
      <trkpt lat="42.909483024850488" lon="-4.704395039007068">
        <ele>1296.96</ele>
        <time>2025-04-29T08:25:28Z</time>
      </trkpt>
      <trkpt lat="42.909701960161328" lon="-4.704731991514564">
        <ele>1295.99</ele>
        <time>2025-04-29T08:25:30Z</time>
      </trkpt>
      <trkpt lat="42.909825006499887" lon="-4.704878004267812">
        <ele>1295.99</ele>
        <time>2025-04-29T08:25:31Z</time>
      </trkpt>
      <trkpt lat="42.909964984282851" lon="-4.704987974837422">
        <ele>1295.99</ele>
        <time>2025-04-29T08:25:32Z</time>
      </trkpt>
      <trkpt lat="42.910099010914564" lon="-4.705093000084162">
        <ele>1295.51</ele>
        <time>2025-04-29T08:25:33Z</time>
      </trkpt>
      <trkpt lat="42.910204958170652" lon="-4.705203976482153">
        <ele>1295.51</ele>
        <time>2025-04-29T08:25:34Z</time>
      </trkpt>
      <trkpt lat="42.910285005345941" lon="-4.705338003113866">
        <ele>1295.51</ele>
        <time>2025-04-29T08:25:35Z</time>
      </trkpt>
      <trkpt lat="42.910310989245772" lon="-4.705491978675127">
        <ele>1295.03</ele>
        <time>2025-04-29T08:25:36Z</time>
      </trkpt>
      <trkpt lat="42.910323981195688" lon="-4.705667998641729">
        <ele>1295.03</ele>
        <time>2025-04-29T08:25:37Z</time>
      </trkpt>
      <trkpt lat="42.910294979810715" lon="-4.705823985859752">
        <ele>1295.51</ele>
        <time>2025-04-29T08:25:38Z</time>
      </trkpt>
      <trkpt lat="42.910233959555626" lon="-4.705977961421013">
        <ele>1295.99</ele>
        <time>2025-04-29T08:25:39Z</time>
      </trkpt>
      <trkpt lat="42.910136980935931" lon="-4.706103019416332">
        <ele>1296.96</ele>
        <time>2025-04-29T08:25:40Z</time>
      </trkpt>
      <trkpt lat="42.910024998709559" lon="-4.706187006086111">
        <ele>1297.4400000000001</ele>
        <time>2025-04-29T08:25:41Z</time>
      </trkpt>
      <trkpt lat="42.909891977906227" lon="-4.706238973885775">
        <ele>1297.9200000000001</ele>
        <time>2025-04-29T08:25:42Z</time>
      </trkpt>
      <trkpt lat="42.909752000123262" lon="-4.706283984705806">
        <ele>1298.8800000000001</ele>
        <time>2025-04-29T08:25:43Z</time>
      </trkpt>
      <trkpt lat="42.909348998218775" lon="-4.706449024379253">
        <ele>1300.8</ele>
        <time>2025-04-29T08:25:46Z</time>
      </trkpt>
      <trkpt lat="42.909244978800416" lon="-4.706556983292103">
        <ele>1301.28</ele>
        <time>2025-04-29T08:25:47Z</time>
      </trkpt>
      <trkpt lat="42.909154035151005" lon="-4.706698972731829">
        <ele>1301.76</ele>
        <time>2025-04-29T08:25:48Z</time>
      </trkpt>
      <trkpt lat="42.909088991582394" lon="-4.706885972991586">
        <ele>1301.76</ele>
        <time>2025-04-29T08:25:49Z</time>
      </trkpt>
      <trkpt lat="42.909065019339323" lon="-4.7070889826864">
        <ele>1302.24</ele>
        <time>2025-04-29T08:25:50Z</time>
      </trkpt>
      <trkpt lat="42.909057978540659" lon="-4.707299033179879">
        <ele>1302.72</ele>
        <time>2025-04-29T08:25:51Z</time>
      </trkpt>
      <trkpt lat="42.909083962440491" lon="-4.707506988197565">
        <ele>1302.72</ele>
        <time>2025-04-29T08:25:52Z</time>
      </trkpt>
      <trkpt lat="42.90914598852396" lon="-4.707691976800561">
        <ele>1302.72</ele>
        <time>2025-04-29T08:25:53Z</time>
      </trkpt>
      <trkpt lat="42.90920902043581" lon="-4.707880988717079">
        <ele>1302.72</ele>
        <time>2025-04-29T08:25:54Z</time>
      </trkpt>
      <trkpt lat="42.909461986273527" lon="-4.708639970049262">
        <ele>1302.72</ele>
        <time>2025-04-29T08:25:58Z</time>
      </trkpt>
      <trkpt lat="42.909465003758669" lon="-4.708815990015864">
        <ele>1303.2</ele>
        <time>2025-04-29T08:25:59Z</time>
      </trkpt>
      <trkpt lat="42.909434996545315" lon="-4.708980023860931">
        <ele>1303.2</ele>
        <time>2025-04-29T08:26:00Z</time>
      </trkpt>
      <trkpt lat="42.909370958805084" lon="-4.709132993593812">
        <ele>1303.2</ele>
        <time>2025-04-29T08:26:01Z</time>
      </trkpt>
      <trkpt lat="42.909285966306925" lon="-4.70925503410399">
        <ele>1303.2</ele>
        <time>2025-04-29T08:26:02Z</time>
      </trkpt>
      <trkpt lat="42.909167027100921" lon="-4.709318988025188">
        <ele>1303.6900000000001</ele>
        <time>2025-04-29T08:26:03Z</time>
      </trkpt>
      <trkpt lat="42.909038029611111" lon="-4.709352012723684">
        <ele>1304.1700000000001</ele>
        <time>2025-04-29T08:26:04Z</time>
      </trkpt>
      <trkpt lat="42.908896040171385" lon="-4.709331979975104">
        <ele>1304.6500000000001</ele>
        <time>2025-04-29T08:26:05Z</time>
      </trkpt>
      <trkpt lat="42.908747009932995" lon="-4.709311025217176">
        <ele>1305.1300000000001</ele>
        <time>2025-04-29T08:26:06Z</time>
      </trkpt>
      <trkpt lat="42.908143009990454" lon="-4.709225026890636">
        <ele>1306.0899999999999</ele>
        <time>2025-04-29T08:26:10Z</time>
      </trkpt>
      <trkpt lat="42.90802801027894" lon="-4.709208011627197">
        <ele>1306.0899999999999</ele>
        <time>2025-04-29T08:26:11Z</time>
      </trkpt>
      <trkpt lat="42.907892977818847" lon="-4.709302978590131">
        <ele>1306.0899999999999</ele>
        <time>2025-04-29T08:26:12Z</time>
      </trkpt>
      <trkpt lat="42.907768003642559" lon="-4.709390988573432">
        <ele>1306.0899999999999</ele>
        <time>2025-04-29T08:26:13Z</time>
      </trkpt>
      <trkpt lat="42.907649986445904" lon="-4.709491990506649">
        <ele>1306.0899999999999</ele>
        <time>2025-04-29T08:26:14Z</time>
      </trkpt>
      <trkpt lat="42.907568011432886" lon="-4.709655018523336">
        <ele>1306.0899999999999</ele>
        <time>2025-04-29T08:26:15Z</time>
      </trkpt>
      <trkpt lat="42.907514031976461" lon="-4.709830032661557">
        <ele>1305.6099999999999</ele>
        <time>2025-04-29T08:26:16Z</time>
      </trkpt>
      <trkpt lat="42.907476983964443" lon="-4.710024995729327">
        <ele>1305.6099999999999</ele>
        <time>2025-04-29T08:26:17Z</time>
      </trkpt>
      <trkpt lat="42.907483018934727" lon="-4.710242003202438">
        <ele>1305.1300000000001</ele>
        <time>2025-04-29T08:26:18Z</time>
      </trkpt>
      <trkpt lat="42.907501040026546" lon="-4.710466973483563">
        <ele>1305.1300000000001</ele>
        <time>2025-04-29T08:26:19Z</time>
      </trkpt>
      <trkpt lat="42.907519983127713" lon="-4.710703007876873">
        <ele>1304.6500000000001</ele>
        <time>2025-04-29T08:26:20Z</time>
      </trkpt>
      <trkpt lat="42.907618973404169" lon="-4.712436972185969">
        <ele>1302.24</ele>
        <time>2025-04-29T08:26:27Z</time>
      </trkpt>
      <trkpt lat="42.907591983675957" lon="-4.712681975215673">
        <ele>1301.76</ele>
        <time>2025-04-29T08:26:28Z</time>
      </trkpt>
      <trkpt lat="42.907470026984811" lon="-4.714416023343802">
        <ele>1298.4000000000001</ele>
        <time>2025-04-29T08:26:35Z</time>
      </trkpt>
      <trkpt lat="42.907518977299333" lon="-4.714926984161139">
        <ele>1297.9200000000001</ele>
        <time>2025-04-29T08:26:37Z</time>
      </trkpt>
      <trkpt lat="42.907558036968112" lon="-4.715181039646268">
        <ele>1297.9200000000001</ele>
        <time>2025-04-29T08:26:38Z</time>
      </trkpt>
      <trkpt lat="42.907948968932033" lon="-4.716820036992431">
        <ele>1297.9200000000001</ele>
        <time>2025-04-29T08:26:45Z</time>
      </trkpt>
      <trkpt lat="42.907962966710329" lon="-4.717019023373723">
        <ele>1297.9200000000001</ele>
        <time>2025-04-29T08:26:46Z</time>
      </trkpt>
      <trkpt lat="42.907924996688962" lon="-4.717232007533312">
        <ele>1297.9200000000001</ele>
        <time>2025-04-29T08:26:47Z</time>
      </trkpt>
      <trkpt lat="42.907888032495975" lon="-4.717440968379378">
        <ele>1297.9200000000001</ele>
        <time>2025-04-29T08:26:48Z</time>
      </trkpt>
      <trkpt lat="42.90785601362586" lon="-4.717619000002742">
        <ele>1298.4000000000001</ele>
        <time>2025-04-29T08:26:49Z</time>
      </trkpt>
      <trkpt lat="42.907643029466271" lon="-4.718666989356279">
        <ele>1301.28</ele>
        <time>2025-04-29T08:26:55Z</time>
      </trkpt>
      <trkpt lat="42.907659038901329" lon="-4.718810990452766">
        <ele>1301.76</ele>
        <time>2025-04-29T08:26:56Z</time>
      </trkpt>
      <trkpt lat="42.907685022801161" lon="-4.718958009034395">
        <ele>1302.24</ele>
        <time>2025-04-29T08:26:57Z</time>
      </trkpt>
      <trkpt lat="42.90785601362586" lon="-4.719851016998291">
        <ele>1302.72</ele>
        <time>2025-04-29T08:27:03Z</time>
      </trkpt>
      <trkpt lat="42.907960033044219" lon="-4.72000096924603">
        <ele>1301.76</ele>
        <time>2025-04-29T08:27:04Z</time>
      </trkpt>
      <trkpt lat="42.908031027764082" lon="-4.720103982836008">
        <ele>1300.8</ele>
        <time>2025-04-29T08:27:05Z</time>
      </trkpt>
      <trkpt lat="42.908108979463577" lon="-4.720146981999278">
        <ele>1300.8</ele>
        <time>2025-04-29T08:27:06Z</time>
      </trkpt>
      <trkpt lat="42.908197995275259" lon="-4.72017296589911">
        <ele>1300.8</ele>
        <time>2025-04-29T08:27:07Z</time>
      </trkpt>
      <trkpt lat="42.908287011086941" lon="-4.720198027789593">
        <ele>1301.28</ele>
        <time>2025-04-29T08:27:08Z</time>
      </trkpt>
      <trkpt lat="42.908382983878255" lon="-4.72021596506238">
        <ele>1301.28</ele>
        <time>2025-04-29T08:27:09Z</time>
      </trkpt>
      <trkpt lat="42.908799983561039" lon="-4.72021596506238">
        <ele>1301.76</ele>
        <time>2025-04-29T08:27:13Z</time>
      </trkpt>
      <trkpt lat="42.908928981050849" lon="-4.720144970342517">
        <ele>1301.76</ele>
        <time>2025-04-29T08:27:14Z</time>
      </trkpt>
      <trkpt lat="42.909025037661195" lon="-4.720067018643022">
        <ele>1301.28</ele>
        <time>2025-04-29T08:27:15Z</time>
      </trkpt>
      <trkpt lat="42.909107012674212" lon="-4.719956964254379">
        <ele>1301.28</ele>
        <time>2025-04-29T08:27:16Z</time>
      </trkpt>
      <trkpt lat="42.909185970202088" lon="-4.719851016998291">
        <ele>1300.8</ele>
        <time>2025-04-29T08:27:17Z</time>
      </trkpt>
      <trkpt lat="42.909283032640815" lon="-4.719754038378596">
        <ele>1300.8</ele>
        <time>2025-04-29T08:27:18Z</time>
      </trkpt>
      <trkpt lat="42.909390991553664" lon="-4.719722019508481">
        <ele>1300.3199999999999</ele>
        <time>2025-04-29T08:27:19Z</time>
      </trkpt>
      <trkpt lat="42.909508002921939" lon="-4.719722019508481">
        <ele>1299.8399999999999</ele>
        <time>2025-04-29T08:27:20Z</time>
      </trkpt>
      <trkpt lat="42.909594001248479" lon="-4.719786979258061">
        <ele>1298.8800000000001</ele>
        <time>2025-04-29T08:27:21Z</time>
      </trkpt>
      <trkpt lat="42.909696009010077" lon="-4.719870965927839">
        <ele>1297.9200000000001</ele>
        <time>2025-04-29T08:27:22Z</time>
      </trkpt>
      <trkpt lat="42.909801034256816" lon="-4.71997800283134">
        <ele>1296.96</ele>
        <time>2025-04-29T08:27:23Z</time>
      </trkpt>
      <trkpt lat="42.910013012588024" lon="-4.720202973112464">
        <ele>1295.99</ele>
        <time>2025-04-29T08:27:25Z</time>
      </trkpt>
      <trkpt lat="42.910136980935931" lon="-4.720290983095765">
        <ele>1295.51</ele>
        <time>2025-04-29T08:27:26Z</time>
      </trkpt>
      <trkpt lat="42.910267990082502" lon="-4.720367006957531">
        <ele>1295.51</ele>
        <time>2025-04-29T08:27:27Z</time>
      </trkpt>
      <trkpt lat="42.910415008664131" lon="-4.720403971150518">
        <ele>1295.03</ele>
        <time>2025-04-29T08:27:28Z</time>
      </trkpt>
      <trkpt lat="42.91056202724576" lon="-4.720425009727478">
        <ele>1295.03</ele>
        <time>2025-04-29T08:27:29Z</time>
      </trkpt>
      <trkpt lat="42.910711979493499" lon="-4.720389973372221">
        <ele>1295.03</ele>
        <time>2025-04-29T08:27:30Z</time>
      </trkpt>
      <trkpt lat="42.910856986418366" lon="-4.720334988087416">
        <ele>1295.03</ele>
        <time>2025-04-29T08:27:31Z</time>
      </trkpt>
      <trkpt lat="42.911006016656756" lon="-4.72027899697423">
        <ele>1294.55</ele>
        <time>2025-04-29T08:27:32Z</time>
      </trkpt>
      <trkpt lat="42.911760974675417" lon="-4.719829978421331">
        <ele>1294.55</ele>
        <time>2025-04-29T08:27:37Z</time>
      </trkpt>
      <trkpt lat="42.911878991872072" lon="-4.719708021730185">
        <ele>1294.55</ele>
        <time>2025-04-29T08:27:38Z</time>
      </trkpt>
      <trkpt lat="42.912384001538157" lon="-4.719185996800661">
        <ele>1295.51</ele>
        <time>2025-04-29T08:27:42Z</time>
      </trkpt>
      <trkpt lat="42.912512999027967" lon="-4.719127994030714">
        <ele>1295.51</ele>
        <time>2025-04-29T08:27:43Z</time>
      </trkpt>
      <trkpt lat="42.912635039538145" lon="-4.719110978767276">
        <ele>1295.99</ele>
        <time>2025-04-29T08:27:44Z</time>
      </trkpt>
      <trkpt lat="42.912756996229291" lon="-4.719133023172617">
        <ele>1295.99</ele>
        <time>2025-04-29T08:27:45Z</time>
      </trkpt>
      <trkpt lat="42.912857998162508" lon="-4.719201000407338">
        <ele>1295.99</ele>
        <time>2025-04-29T08:27:46Z</time>
      </trkpt>
      <trkpt lat="42.91294701397419" lon="-4.719317005947232">
        <ele>1296.48</ele>
        <time>2025-04-29T08:27:47Z</time>
      </trkpt>
      <trkpt lat="42.913029994815588" lon="-4.719438040629029">
        <ele>1296.48</ele>
        <time>2025-04-29T08:27:48Z</time>
      </trkpt>
      <trkpt lat="42.913054972887039" lon="-4.7196139767766">
        <ele>1296.96</ele>
        <time>2025-04-29T08:27:49Z</time>
      </trkpt>
      <trkpt lat="42.913081962615252" lon="-4.719797959551215">
        <ele>1296.96</ele>
        <time>2025-04-29T08:27:50Z</time>
      </trkpt>
      <trkpt lat="42.913109958171844" lon="-4.719986971467733">
        <ele>1296.96</ele>
        <time>2025-04-29T08:27:51Z</time>
      </trkpt>
      <trkpt lat="42.913138959556818" lon="-4.720183024182916">
        <ele>1296.96</ele>
        <time>2025-04-29T08:27:52Z</time>
      </trkpt>
      <trkpt lat="42.913190005347133" lon="-4.720372958108783">
        <ele>1296.96</ele>
        <time>2025-04-29T08:27:53Z</time>
      </trkpt>
      <trkpt lat="42.913276003673673" lon="-4.720556018874049">
        <ele>1296.96</ele>
        <time>2025-04-29T08:27:54Z</time>
      </trkpt>
      <trkpt lat="42.91337801143527" lon="-4.720721980556846">
        <ele>1296.48</ele>
        <time>2025-04-29T08:27:55Z</time>
      </trkpt>
      <trkpt lat="42.913502985611558" lon="-4.720861036330462">
        <ele>1296.48</ele>
        <time>2025-04-29T08:27:56Z</time>
      </trkpt>
      <trkpt lat="42.913642041385174" lon="-4.720964971929789">
        <ele>1296.48</ele>
        <time>2025-04-29T08:27:57Z</time>
      </trkpt>
      <trkpt lat="42.913800040259957" lon="-4.72107402049005">
        <ele>1296.48</ele>
        <time>2025-04-29T08:27:58Z</time>
      </trkpt>
      <trkpt lat="42.913941023871303" lon="-4.721118025481701">
        <ele>1296.48</ele>
        <time>2025-04-29T08:27:59Z</time>
      </trkpt>
      <trkpt lat="42.914093993604183" lon="-4.721164964139462">
        <ele>1296.96</ele>
        <time>2025-04-29T08:28:00Z</time>
      </trkpt>
      <trkpt lat="42.91423698887229" lon="-4.721208969131112">
        <ele>1297.4400000000001</ele>
        <time>2025-04-29T08:28:01Z</time>
      </trkpt>
      <trkpt lat="42.914364980533719" lon="-4.721256997436285">
        <ele>1297.4400000000001</ele>
        <time>2025-04-29T08:28:02Z</time>
      </trkpt>
      <trkpt lat="42.914444021880627" lon="-4.721385994926095">
        <ele>1297.9200000000001</ele>
        <time>2025-04-29T08:28:03Z</time>
      </trkpt>
      <trkpt lat="42.914521973580122" lon="-4.721512980759144">
        <ele>1297.9200000000001</ele>
        <time>2025-04-29T08:28:04Z</time>
      </trkpt>
      <trkpt lat="42.91453798301518" lon="-4.721679026260972">
        <ele>1298.4000000000001</ele>
        <time>2025-04-29T08:28:05Z</time>
      </trkpt>
      <trkpt lat="42.914548963308334" lon="-4.721854040399194">
        <ele>1298.4000000000001</ele>
        <time>2025-04-29T08:28:06Z</time>
      </trkpt>
      <trkpt lat="42.914514010772109" lon="-4.722013967111707">
        <ele>1298.4000000000001</ele>
        <time>2025-04-29T08:28:07Z</time>
      </trkpt>
      <trkpt lat="42.914446033537388" lon="-4.722146987915039">
        <ele>1298.8800000000001</ele>
        <time>2025-04-29T08:28:08Z</time>
      </trkpt>
      <trkpt lat="42.91434402577579" lon="-4.722256036475301">
        <ele>1299.3599999999999</ele>
        <time>2025-04-29T08:28:09Z</time>
      </trkpt>
      <trkpt lat="42.914243023842573" lon="-4.72236298955977">
        <ele>1299.3599999999999</ele>
        <time>2025-04-29T08:28:10Z</time>
      </trkpt>
      <trkpt lat="42.914143027737737" lon="-4.72246902063489">
        <ele>1299.8399999999999</ele>
        <time>2025-04-29T08:28:11Z</time>
      </trkpt>
      <trkpt lat="42.914061974734068" lon="-4.722603969275951">
        <ele>1299.8399999999999</ele>
        <time>2025-04-29T08:28:12Z</time>
      </trkpt>
      <trkpt lat="42.914014030247927" lon="-4.722761968150735">
        <ele>1299.8399999999999</ele>
        <time>2025-04-29T08:28:13Z</time>
      </trkpt>
      <trkpt lat="42.914014030247927" lon="-4.722938993945718">
        <ele>1299.8399999999999</ele>
        <time>2025-04-29T08:28:14Z</time>
      </trkpt>
      <trkpt lat="42.914014030247927" lon="-4.723124988377094">
        <ele>1299.8399999999999</ele>
        <time>2025-04-29T08:28:15Z</time>
      </trkpt>
      <trkpt lat="42.914027022197843" lon="-4.72330997698009">
        <ele>1300.3199999999999</ele>
        <time>2025-04-29T08:28:16Z</time>
      </trkpt>
      <trkpt lat="42.914062980562449" lon="-4.723494965583086">
        <ele>1300.3199999999999</ele>
        <time>2025-04-29T08:28:17Z</time>
      </trkpt>
      <trkpt lat="42.914100028574467" lon="-4.723692024126649">
        <ele>1300.8</ele>
        <time>2025-04-29T08:28:18Z</time>
      </trkpt>
      <trkpt lat="42.91415199637413" lon="-4.723876006901264">
        <ele>1300.8</ele>
        <time>2025-04-29T08:28:19Z</time>
      </trkpt>
      <trkpt lat="42.914374032989144" lon="-4.724669018760324">
        <ele>1301.76</ele>
        <time>2025-04-29T08:28:23Z</time>
      </trkpt>
      <trkpt lat="42.91438702493906" lon="-4.724876973778009">
        <ele>1301.76</ele>
        <time>2025-04-29T08:28:24Z</time>
      </trkpt>
      <trkpt lat="42.914359029382467" lon="-4.725099010393024">
        <ele>1301.76</ele>
        <time>2025-04-29T08:28:25Z</time>
      </trkpt>
      <trkpt lat="42.91406499221921" lon="-4.726990973576903">
        <ele>1306.5699999999999</ele>
        <time>2025-04-29T08:28:34Z</time>
      </trkpt>
      <trkpt lat="42.913988968357444" lon="-4.727130029350519">
        <ele>1307.53</ele>
        <time>2025-04-29T08:28:35Z</time>
      </trkpt>
      <trkpt lat="42.913897018879652" lon="-4.727228013798595">
        <ele>1308.49</ele>
        <time>2025-04-29T08:28:36Z</time>
      </trkpt>
      <trkpt lat="42.913788976147771" lon="-4.727287022396922">
        <ele>1308.97</ele>
        <time>2025-04-29T08:28:37Z</time>
      </trkpt>
      <trkpt lat="42.913691997528076" lon="-4.727339996024966">
        <ele>1309.9300000000001</ele>
        <time>2025-04-29T08:28:38Z</time>
      </trkpt>
      <trkpt lat="42.913565011695027" lon="-4.727287022396922">
        <ele>1310.4100000000001</ele>
        <time>2025-04-29T08:28:39Z</time>
      </trkpt>
      <trkpt lat="42.913448000326753" lon="-4.727237988263369">
        <ele>1311.3800000000001</ele>
        <time>2025-04-29T08:28:40Z</time>
      </trkpt>
      <trkpt lat="42.913360996171832" lon="-4.727146960794926">
        <ele>1312.3399999999999</ele>
        <time>2025-04-29T08:28:41Z</time>
      </trkpt>
      <trkpt lat="42.913293018937111" lon="-4.727033972740173">
        <ele>1313.78</ele>
        <time>2025-04-29T08:28:42Z</time>
      </trkpt>
      <trkpt lat="42.91324800811708" lon="-4.726863987743855">
        <ele>1314.74</ele>
        <time>2025-04-29T08:28:43Z</time>
      </trkpt>
      <trkpt lat="42.913209032267332" lon="-4.726686039939523">
        <ele>1316.1800000000001</ele>
        <time>2025-04-29T08:28:44Z</time>
      </trkpt>
      <trkpt lat="42.913178019225597" lon="-4.726490993052721">
        <ele>1317.1400000000001</ele>
        <time>2025-04-29T08:28:45Z</time>
      </trkpt>
      <trkpt lat="42.912992024794221" lon="-4.725516010075808">
        <ele>1321.95</ele>
        <time>2025-04-29T08:28:50Z</time>
      </trkpt>
      <trkpt lat="42.912908960133791" lon="-4.725376032292843">
        <ele>1322.4300000000001</ele>
        <time>2025-04-29T08:28:51Z</time>
      </trkpt>
      <trkpt lat="42.91281902231276" lon="-4.725251980125904">
        <ele>1322.9100000000001</ele>
        <time>2025-04-29T08:28:52Z</time>
      </trkpt>
      <trkpt lat="42.912703016772866" lon="-4.725200012326241">
        <ele>1323.3900000000001</ele>
        <time>2025-04-29T08:28:53Z</time>
      </trkpt>
      <trkpt lat="42.912579970434308" lon="-4.725173022598028">
        <ele>1324.3499999999999</ele>
        <time>2025-04-29T08:28:54Z</time>
      </trkpt>
      <trkpt lat="42.912459019571543" lon="-4.725233959034085">
        <ele>1324.8299999999999</ele>
        <time>2025-04-29T08:28:55Z</time>
      </trkpt>
      <trkpt lat="42.91234603151679" lon="-4.725325992330909">
        <ele>1325.8</ele>
        <time>2025-04-29T08:28:56Z</time>
      </trkpt>
      <trkpt lat="42.912229020148516" lon="-4.725421965122223">
        <ele>1326.28</ele>
        <time>2025-04-29T08:28:57Z</time>
      </trkpt>
      <trkpt lat="42.912107985466719" lon="-4.725521039217711">
        <ele>1327.24</ele>
        <time>2025-04-29T08:28:58Z</time>
      </trkpt>
      <trkpt lat="42.911970019340515" lon="-4.725604020059109">
        <ele>1327.72</ele>
        <time>2025-04-29T08:28:59Z</time>
      </trkpt>
      <trkpt lat="42.911827024072409" lon="-4.725676020607352">
        <ele>1328.2</ele>
        <time>2025-04-29T08:29:00Z</time>
      </trkpt>
      <trkpt lat="42.91168101131916" lon="-4.725749026983976">
        <ele>1329.1600000000001</ele>
        <time>2025-04-29T08:29:01Z</time>
      </trkpt>
      <trkpt lat="42.91152804158628" lon="-4.725804012268782">
        <ele>1330.1199999999999</ele>
        <time>2025-04-29T08:29:02Z</time>
      </trkpt>
      <trkpt lat="42.911365013569593" lon="-4.725826978683472">
        <ele>1330.5999999999999</ele>
        <time>2025-04-29T08:29:03Z</time>
      </trkpt>
      <trkpt lat="42.911198968067765" lon="-4.725827984511852">
        <ele>1332.04</ele>
        <time>2025-04-29T08:29:04Z</time>
      </trkpt>
      <trkpt lat="42.911033006384969" lon="-4.725809963420034">
        <ele>1333.01</ele>
        <time>2025-04-29T08:29:05Z</time>
      </trkpt>
      <trkpt lat="42.910099010914564" lon="-4.725709967315197">
        <ele>1339.73</ele>
        <time>2025-04-29T08:29:12Z</time>
      </trkpt>
      <trkpt lat="42.909213965758681" lon="-4.72562899813056">
        <ele>1346.9400000000001</ele>
        <time>2025-04-29T08:29:22Z</time>
      </trkpt>
      <trkpt lat="42.909129979088902" lon="-4.725642995908856">
        <ele>1347.4300000000001</ele>
        <time>2025-04-29T08:29:23Z</time>
      </trkpt>
      <trkpt lat="42.909055966883898" lon="-4.725710973143578">
        <ele>1348.3900000000001</ele>
        <time>2025-04-29T08:29:24Z</time>
      </trkpt>
      <trkpt lat="42.908979021012783" lon="-4.725788002833724">
        <ele>1348.8699999999999</ele>
        <time>2025-04-29T08:29:25Z</time>
      </trkpt>
      <trkpt lat="42.908906014636159" lon="-4.725895961746573">
        <ele>1349.8299999999999</ele>
        <time>2025-04-29T08:29:26Z</time>
      </trkpt>
      <trkpt lat="42.908853963017464" lon="-4.726033005863428">
        <ele>1350.79</ele>
        <time>2025-04-29T08:29:27Z</time>
      </trkpt>
      <trkpt lat="42.90882202796638" lon="-4.726188993081451">
        <ele>1351.27</ele>
        <time>2025-04-29T08:29:28Z</time>
      </trkpt>
      <trkpt lat="42.90882202796638" lon="-4.726353026926518">
        <ele>1351.27</ele>
        <time>2025-04-29T08:29:29Z</time>
      </trkpt>
      <trkpt lat="42.90886502712965" lon="-4.726513959467411">
        <ele>1351.75</ele>
        <time>2025-04-29T08:29:30Z</time>
      </trkpt>
      <trkpt lat="42.908913977444172" lon="-4.726695008575916">
        <ele>1351.27</ele>
        <time>2025-04-29T08:29:31Z</time>
      </trkpt>
      <trkpt lat="42.908971980214119" lon="-4.726911010220647">
        <ele>1350.79</ele>
        <time>2025-04-29T08:29:32Z</time>
      </trkpt>
      <trkpt lat="42.909586960449815" lon="-4.728813031688333">
        <ele>1344.0599999999999</ele>
        <time>2025-04-29T08:29:40Z</time>
      </trkpt>
      <trkpt lat="42.909922990947962" lon="-4.729997981339693">
        <ele>1340.7</ele>
        <time>2025-04-29T08:29:45Z</time>
      </trkpt>
      <trkpt lat="42.909921985119581" lon="-4.730209959670901">
        <ele>1340.7</ele>
        <time>2025-04-29T08:29:46Z</time>
      </trkpt>
      <trkpt lat="42.909893989562988" lon="-4.730429984629154">
        <ele>1340.7</ele>
        <time>2025-04-29T08:29:47Z</time>
      </trkpt>
      <trkpt lat="42.909814026206732" lon="-4.730631988495588">
        <ele>1340.7</ele>
        <time>2025-04-29T08:29:48Z</time>
      </trkpt>
      <trkpt lat="42.909728027880192" lon="-4.730844972655177">
        <ele>1340.7</ele>
        <time>2025-04-29T08:29:49Z</time>
      </trkpt>
      <trkpt lat="42.909312034025788" lon="-4.731884999200702">
        <ele>1340.22</ele>
        <time>2025-04-29T08:29:54Z</time>
      </trkpt>
      <trkpt lat="42.90927398018539" lon="-4.732087003067136">
        <ele>1340.22</ele>
        <time>2025-04-29T08:29:55Z</time>
      </trkpt>
      <trkpt lat="42.9092510137707" lon="-4.732272997498512">
        <ele>1339.73</ele>
        <time>2025-04-29T08:29:56Z</time>
      </trkpt>
      <trkpt lat="42.909313961863518" lon="-4.732448011636734">
        <ele>1339.73</ele>
        <time>2025-04-29T08:29:57Z</time>
      </trkpt>
      <trkpt lat="42.909383028745651" lon="-4.732599975541234">
        <ele>1339.25</ele>
        <time>2025-04-29T08:29:58Z</time>
      </trkpt>
      <trkpt lat="42.909465003758669" lon="-4.732755962759256">
        <ele>1338.77</ele>
        <time>2025-04-29T08:29:59Z</time>
      </trkpt>
      <trkpt lat="42.910211998969316" lon="-4.73417803645134">
        <ele>1333.97</ele>
        <time>2025-04-29T08:30:06Z</time>
      </trkpt>
      <trkpt lat="42.910645008087158" lon="-4.735001977533102">
        <ele>1331.5599999999999</ele>
        <time>2025-04-29T08:30:10Z</time>
      </trkpt>
      <trkpt lat="42.910689013078809" lon="-4.735196018591523">
        <ele>1331.5599999999999</ele>
        <time>2025-04-29T08:30:11Z</time>
      </trkpt>
      <trkpt lat="42.910705022513866" lon="-4.735386036336422">
        <ele>1331.0799999999999</ele>
        <time>2025-04-29T08:30:12Z</time>
      </trkpt>
      <trkpt lat="42.910682978108525" lon="-4.735578987747431">
        <ele>1331.0799999999999</ele>
        <time>2025-04-29T08:30:13Z</time>
      </trkpt>
      <trkpt lat="42.910660011693835" lon="-4.735780991613865">
        <ele>1330.5999999999999</ele>
        <time>2025-04-29T08:30:14Z</time>
      </trkpt>
      <trkpt lat="42.910636039450765" lon="-4.735990036278963">
        <ele>1329.6400000000001</ele>
        <time>2025-04-29T08:30:15Z</time>
      </trkpt>
      <trkpt lat="42.910645008087158" lon="-4.736197991296649">
        <ele>1328.6800000000001</ele>
        <time>2025-04-29T08:30:16Z</time>
      </trkpt>
      <trkpt lat="42.910688007250428" lon="-4.73641499876976">
        <ele>1328.2</ele>
        <time>2025-04-29T08:30:17Z</time>
      </trkpt>
      <trkpt lat="42.910751039162278" lon="-4.736626977100968">
        <ele>1327.24</ele>
        <time>2025-04-29T08:30:18Z</time>
      </trkpt>
      <trkpt lat="42.910835025832057" lon="-4.736838033422828">
        <ele>1326.28</ele>
        <time>2025-04-29T08:30:19Z</time>
      </trkpt>
      <trkpt lat="42.910919012501836" lon="-4.737046994268894">
        <ele>1325.3099999999999</ele>
        <time>2025-04-29T08:30:20Z</time>
      </trkpt>
      <trkpt lat="42.911010039970279" lon="-4.73727498203516">
        <ele>1324.3499999999999</ele>
        <time>2025-04-29T08:30:21Z</time>
      </trkpt>
      <trkpt lat="42.91112101636827" lon="-4.737395010888577">
        <ele>1323.3900000000001</ele>
        <time>2025-04-29T08:30:22Z</time>
      </trkpt>
      <trkpt lat="42.911253031343222" lon="-4.737539011985064">
        <ele>1322.4300000000001</ele>
        <time>2025-04-29T08:30:23Z</time>
      </trkpt>
      <trkpt lat="42.911382028833032" lon="-4.737679995596409">
        <ele>1321.47</ele>
        <time>2025-04-29T08:30:24Z</time>
      </trkpt>
      <trkpt lat="42.911503985524178" lon="-4.737832965329289">
        <ele>1320.51</ele>
        <time>2025-04-29T08:30:25Z</time>
      </trkpt>
      <trkpt lat="42.911597024649382" lon="-4.738018959760666">
        <ele>1319.55</ele>
        <time>2025-04-29T08:30:26Z</time>
      </trkpt>
      <trkpt lat="42.911647986620665" lon="-4.738246025517583">
        <ele>1318.5899999999999</ele>
        <time>2025-04-29T08:30:27Z</time>
      </trkpt>
      <trkpt lat="42.911692997440696" lon="-4.738488011062145">
        <ele>1317.1400000000001</ele>
        <time>2025-04-29T08:30:28Z</time>
      </trkpt>
      <trkpt lat="42.911740019917488" lon="-4.738741982728243">
        <ele>1316.1800000000001</ele>
        <time>2025-04-29T08:30:29Z</time>
      </trkpt>
      <trkpt lat="42.912243017926812" lon="-4.741458976641297">
        <ele>1302.24</ele>
        <time>2025-04-29T08:30:39Z</time>
      </trkpt>
      <trkpt lat="42.912446027621627" lon="-4.742376962676644">
        <ele>1298.4000000000001</ele>
        <time>2025-04-29T08:30:43Z</time>
      </trkpt>
      <trkpt lat="42.91249698959291" lon="-4.742545019835234">
        <ele>1296.96</ele>
        <time>2025-04-29T08:30:44Z</time>
      </trkpt>
      <trkpt lat="42.912592040374875" lon="-4.74264401011169">
        <ele>1295.99</ele>
        <time>2025-04-29T08:30:45Z</time>
      </trkpt>
      <trkpt lat="42.912706034258008" lon="-4.742711987346411">
        <ele>1295.03</ele>
        <time>2025-04-29T08:30:46Z</time>
      </trkpt>
      <trkpt lat="42.912834025919437" lon="-4.742789017036557">
        <ele>1294.0699999999999</ele>
        <time>2025-04-29T08:30:47Z</time>
      </trkpt>
      <trkpt lat="42.912972997874022" lon="-4.742818018421531">
        <ele>1293.1099999999999</ele>
        <time>2025-04-29T08:30:48Z</time>
      </trkpt>
      <trkpt lat="42.913754023611546" lon="-4.742951039224863">
        <ele>1288.3</ele>
        <time>2025-04-29T08:30:53Z</time>
      </trkpt>
      <trkpt lat="42.913903975859284" lon="-4.742906028404832">
        <ele>1287.3399999999999</ele>
        <time>2025-04-29T08:30:54Z</time>
      </trkpt>
      <trkpt lat="42.91404596529901" lon="-4.742827992886305">
        <ele>1286.8599999999999</ele>
        <time>2025-04-29T08:30:55Z</time>
      </trkpt>
      <trkpt lat="42.91434301994741" lon="-4.742678040638566">
        <ele>1285.4200000000001</ele>
        <time>2025-04-29T08:30:57Z</time>
      </trkpt>
      <trkpt lat="42.914500012993813" lon="-4.742621965706348">
        <ele>1285.4200000000001</ele>
        <time>2025-04-29T08:30:58Z</time>
      </trkpt>
      <trkpt lat="42.91548203676939" lon="-4.742492968216538">
        <ele>1288.78</ele>
        <time>2025-04-29T08:31:04Z</time>
      </trkpt>
      <trkpt lat="42.915596030652523" lon="-4.742534961551428">
        <ele>1289.27</ele>
        <time>2025-04-29T08:31:05Z</time>
      </trkpt>
      <trkpt lat="42.915703989565372" lon="-4.742597993463278">
        <ele>1289.75</ele>
        <time>2025-04-29T08:31:06Z</time>
      </trkpt>
      <trkpt lat="42.91578596457839" lon="-4.742672005668283">
        <ele>1290.71</ele>
        <time>2025-04-29T08:31:07Z</time>
      </trkpt>
      <trkpt lat="42.915839022025466" lon="-4.74281600676477">
        <ele>1291.1900000000001</ele>
        <time>2025-04-29T08:31:08Z</time>
      </trkpt>
      <trkpt lat="42.915894007310271" lon="-4.74296503700316">
        <ele>1291.1900000000001</ele>
        <time>2025-04-29T08:31:09Z</time>
      </trkpt>
      <trkpt lat="42.915917979553342" lon="-4.74311700090766">
        <ele>1291.1900000000001</ele>
        <time>2025-04-29T08:31:10Z</time>
      </trkpt>
      <trkpt lat="42.915902975946665" lon="-4.743282962590456">
        <ele>1291.6700000000001</ele>
        <time>2025-04-29T08:31:11Z</time>
      </trkpt>
      <trkpt lat="42.915830975398421" lon="-4.743426041677594">
        <ele>1292.1500000000001</ele>
        <time>2025-04-29T08:31:12Z</time>
      </trkpt>
      <trkpt lat="42.915751012042165" lon="-4.743528971448541">
        <ele>1292.1500000000001</ele>
        <time>2025-04-29T08:31:13Z</time>
      </trkpt>
      <trkpt lat="42.915641963481903" lon="-4.743607006967068">
        <ele>1291.6700000000001</ele>
        <time>2025-04-29T08:31:14Z</time>
      </trkpt>
      <trkpt lat="42.915530987083912" lon="-4.743685964494944">
        <ele>1291.6700000000001</ele>
        <time>2025-04-29T08:31:15Z</time>
      </trkpt>
      <trkpt lat="42.915409030392766" lon="-4.743705997243524">
        <ele>1291.6700000000001</ele>
        <time>2025-04-29T08:31:16Z</time>
      </trkpt>
      <trkpt lat="42.915270980447531" lon="-4.74369602277875">
        <ele>1291.1900000000001</ele>
        <time>2025-04-29T08:31:17Z</time>
      </trkpt>
      <trkpt lat="42.915134020149708" lon="-4.743685964494944">
        <ele>1291.1900000000001</ele>
        <time>2025-04-29T08:31:18Z</time>
      </trkpt>
      <trkpt lat="42.915002005174756" lon="-4.74367699585855">
        <ele>1290.71</ele>
        <time>2025-04-29T08:31:19Z</time>
      </trkpt>
      <trkpt lat="42.914873007684946" lon="-4.743684958666563">
        <ele>1290.23</ele>
        <time>2025-04-29T08:31:20Z</time>
      </trkpt>
      <trkpt lat="42.914778040722013" lon="-4.743756037205458">
        <ele>1289.75</ele>
        <time>2025-04-29T08:31:21Z</time>
      </trkpt>
      <trkpt lat="42.914695981889963" lon="-4.743855027481914">
        <ele>1289.75</ele>
        <time>2025-04-29T08:31:22Z</time>
      </trkpt>
      <trkpt lat="42.914633033797145" lon="-4.743993999436498">
        <ele>1289.27</ele>
        <time>2025-04-29T08:31:23Z</time>
      </trkpt>
      <trkpt lat="42.914593974128366" lon="-4.744176976382732">
        <ele>1289.27</ele>
        <time>2025-04-29T08:31:24Z</time>
      </trkpt>
      <trkpt lat="42.914565978571773" lon="-4.744373029097915">
        <ele>1288.78</ele>
        <time>2025-04-29T08:31:25Z</time>
      </trkpt>
      <trkpt lat="42.914445027709007" lon="-4.745227983221412">
        <ele>1288.3</ele>
        <time>2025-04-29T08:31:29Z</time>
      </trkpt>
      <trkpt lat="42.914461959153414" lon="-4.745436022058129">
        <ele>1288.3</ele>
        <time>2025-04-29T08:31:30Z</time>
      </trkpt>
      <trkpt lat="42.914513004943728" lon="-4.745644982904196">
        <ele>1288.3</ele>
        <time>2025-04-29T08:31:31Z</time>
      </trkpt>
      <trkpt lat="42.914567990228534" lon="-4.745843969285488">
        <ele>1288.3</ele>
        <time>2025-04-29T08:31:32Z</time>
      </trkpt>
      <trkpt lat="42.914669997990131" lon="-4.746026024222374">
        <ele>1288.78</ele>
        <time>2025-04-29T08:31:33Z</time>
      </trkpt>
      <trkpt lat="42.914769994094968" lon="-4.746199026703835">
        <ele>1289.27</ele>
        <time>2025-04-29T08:31:34Z</time>
      </trkpt>
      <trkpt lat="42.914892034605145" lon="-4.746365994215012">
        <ele>1289.75</ele>
        <time>2025-04-29T08:31:35Z</time>
      </trkpt>
      <trkpt lat="42.915022037923336" lon="-4.746520975604653">
        <ele>1289.75</ele>
        <time>2025-04-29T08:31:36Z</time>
      </trkpt>
      <trkpt lat="42.916126018390059" lon="-4.747945982962847">
        <ele>1292.1500000000001</ele>
        <time>2025-04-29T08:31:44Z</time>
      </trkpt>
      <trkpt lat="42.917876997962594" lon="-4.749806011095643">
        <ele>1295.03</ele>
        <time>2025-04-29T08:31:55Z</time>
      </trkpt>
      <trkpt lat="42.918761959299445" lon="-4.751226995140314">
        <ele>1296.96</ele>
        <time>2025-04-29T08:32:02Z</time>
      </trkpt>
      <trkpt lat="42.918925993144512" lon="-4.751370996236801">
        <ele>1297.4400000000001</ele>
        <time>2025-04-29T08:32:03Z</time>
      </trkpt>
      <trkpt lat="42.91909103281796" lon="-4.751517008990049">
        <ele>1297.4400000000001</ele>
        <time>2025-04-29T08:32:04Z</time>
      </trkpt>
      <trkpt lat="42.919728979468346" lon="-4.752078009769321">
        <ele>1298.4000000000001</ele>
        <time>2025-04-29T08:32:08Z</time>
      </trkpt>
      <trkpt lat="42.919853031635284" lon="-4.752217987552285">
        <ele>1298.8800000000001</ele>
        <time>2025-04-29T08:32:09Z</time>
      </trkpt>
      <trkpt lat="42.91993098333478" lon="-4.752390990033746">
        <ele>1299.8399999999999</ele>
        <time>2025-04-29T08:32:10Z</time>
      </trkpt>
      <trkpt lat="42.919969959184527" lon="-4.752588970586658">
        <ele>1300.3199999999999</ele>
        <time>2025-04-29T08:32:11Z</time>
      </trkpt>
      <trkpt lat="42.920008013024926" lon="-4.752803966403008">
        <ele>1300.8</ele>
        <time>2025-04-29T08:32:12Z</time>
      </trkpt>
      <trkpt lat="42.920045983046293" lon="-4.753017034381628">
        <ele>1300.8</ele>
        <time>2025-04-29T08:32:13Z</time>
      </trkpt>
      <trkpt lat="42.920082025229931" lon="-4.753217026591301">
        <ele>1300.8</ele>
        <time>2025-04-29T08:32:14Z</time>
      </trkpt>
      <trkpt lat="42.920132987201214" lon="-4.753401009365916">
        <ele>1301.28</ele>
        <time>2025-04-29T08:32:15Z</time>
      </trkpt>
      <trkpt lat="42.920241029933095" lon="-4.753545010462403">
        <ele>1301.28</ele>
        <time>2025-04-29T08:32:16Z</time>
      </trkpt>
      <trkpt lat="42.920355023816228" lon="-4.753695968538523">
        <ele>1301.28</ele>
        <time>2025-04-29T08:32:17Z</time>
      </trkpt>
      <trkpt lat="42.920474968850613" lon="-4.753855979070067">
        <ele>1301.28</ele>
        <time>2025-04-29T08:32:18Z</time>
      </trkpt>
      <trkpt lat="42.920590974390507" lon="-4.754038034006953">
        <ele>1301.28</ele>
        <time>2025-04-29T08:32:19Z</time>
      </trkpt>
      <trkpt lat="42.920688036829233" lon="-4.754242971539497">
        <ele>1300.8</ele>
        <time>2025-04-29T08:32:20Z</time>
      </trkpt>
      <trkpt lat="42.920783003792167" lon="-4.754446987062693">
        <ele>1300.3199999999999</ele>
        <time>2025-04-29T08:32:21Z</time>
      </trkpt>
      <trkpt lat="42.920880988240242" lon="-4.75465502589941">
        <ele>1299.3599999999999</ele>
        <time>2025-04-29T08:32:22Z</time>
      </trkpt>
      <trkpt lat="42.920987019315362" lon="-4.754797015339136">
        <ele>1298.8800000000001</ele>
        <time>2025-04-29T08:32:23Z</time>
      </trkpt>
      <trkpt lat="42.921117022633553" lon="-4.754945961758494">
        <ele>1298.4000000000001</ele>
        <time>2025-04-29T08:32:24Z</time>
      </trkpt>
      <trkpt lat="42.922071972861886" lon="-4.755636965855956">
        <ele>1294.55</ele>
        <time>2025-04-29T08:32:30Z</time>
      </trkpt>
      <trkpt lat="42.922246987000108" lon="-4.755650963634253">
        <ele>1294.55</ele>
        <time>2025-04-29T08:32:31Z</time>
      </trkpt>
      <trkpt lat="42.922419989481568" lon="-4.755659010261297">
        <ele>1294.0699999999999</ele>
        <time>2025-04-29T08:32:32Z</time>
      </trkpt>
      <trkpt lat="42.924084970727563" lon="-4.755466980859637">
        <ele>1295.51</ele>
        <time>2025-04-29T08:32:41Z</time>
      </trkpt>
      <trkpt lat="42.924624010920525" lon="-4.755415013059974">
        <ele>1297.4400000000001</ele>
        <time>2025-04-29T08:32:44Z</time>
      </trkpt>
      <trkpt lat="42.924795001745224" lon="-4.755444014444947">
        <ele>1297.9200000000001</ele>
        <time>2025-04-29T08:32:45Z</time>
      </trkpt>
      <trkpt lat="42.926238030195236" lon="-4.756138036027551">
        <ele>1301.76</ele>
        <time>2025-04-29T08:32:53Z</time>
      </trkpt>
      <trkpt lat="42.92779304087162" lon="-4.756698030978441">
        <ele>1303.6900000000001</ele>
        <time>2025-04-29T08:33:02Z</time>
      </trkpt>
      <trkpt lat="42.928299978375435" lon="-4.756936999037862">
        <ele>1303.6900000000001</ele>
        <time>2025-04-29T08:33:05Z</time>
      </trkpt>
      <trkpt lat="42.928454959765077" lon="-4.757070019841194">
        <ele>1303.6900000000001</ele>
        <time>2025-04-29T08:33:06Z</time>
      </trkpt>
      <trkpt lat="42.928606001660228" lon="-4.757216032594442">
        <ele>1303.6900000000001</ele>
        <time>2025-04-29T08:33:07Z</time>
      </trkpt>
      <trkpt lat="42.929568998515606" lon="-4.758299980312586">
        <ele>1303.2</ele>
        <time>2025-04-29T08:33:15Z</time>
      </trkpt>
      <trkpt lat="42.929647034034133" lon="-4.758416991680861">
        <ele>1303.2</ele>
        <time>2025-04-29T08:33:16Z</time>
      </trkpt>
      <trkpt lat="42.929705958813429" lon="-4.75854498334229">
        <ele>1303.2</ele>
        <time>2025-04-29T08:33:17Z</time>
      </trkpt>
      <trkpt lat="42.929724985733628" lon="-4.758705999702215">
        <ele>1303.2</ele>
        <time>2025-04-29T08:33:18Z</time>
      </trkpt>
      <trkpt lat="42.929743006825447" lon="-4.758860981091857">
        <ele>1303.2</ele>
        <time>2025-04-29T08:33:19Z</time>
      </trkpt>
      <trkpt lat="42.929711993783712" lon="-4.759016968309879">
        <ele>1303.2</ele>
        <time>2025-04-29T08:33:20Z</time>
      </trkpt>
      <trkpt lat="42.929677963256836" lon="-4.759183013811708">
        <ele>1303.2</ele>
        <time>2025-04-29T08:33:21Z</time>
      </trkpt>
      <trkpt lat="42.929615015164018" lon="-4.759337995201349">
        <ele>1303.2</ele>
        <time>2025-04-29T08:33:22Z</time>
      </trkpt>
      <trkpt lat="42.929494986310601" lon="-4.759633038192987">
        <ele>1303.2</ele>
        <time>2025-04-29T08:33:24Z</time>
      </trkpt>
      <trkpt lat="42.929442012682557" lon="-4.759762035682797">
        <ele>1303.2</ele>
        <time>2025-04-29T08:33:25Z</time>
      </trkpt>
      <trkpt lat="42.929340004920959" lon="-4.759841999039054">
        <ele>1303.6900000000001</ele>
        <time>2025-04-29T08:33:26Z</time>
      </trkpt>
      <trkpt lat="42.929229028522968" lon="-4.759910982102156">
        <ele>1303.6900000000001</ele>
        <time>2025-04-29T08:33:27Z</time>
      </trkpt>
      <trkpt lat="42.929085027426481" lon="-4.759902013465762">
        <ele>1304.1700000000001</ele>
        <time>2025-04-29T08:33:28Z</time>
      </trkpt>
      <trkpt lat="42.928930968046188" lon="-4.759892961010337">
        <ele>1304.1700000000001</ele>
        <time>2025-04-29T08:33:29Z</time>
      </trkpt>
      <trkpt lat="42.928771963343024" lon="-4.759879969060421">
        <ele>1304.6500000000001</ele>
        <time>2025-04-29T08:33:30Z</time>
      </trkpt>
      <trkpt lat="42.927070017904043" lon="-4.759719958528876">
        <ele>1304.1700000000001</ele>
        <time>2025-04-29T08:33:39Z</time>
      </trkpt>
      <trkpt lat="42.925166990607977" lon="-4.759633960202336">
        <ele>1304.1700000000001</ele>
        <time>2025-04-29T08:33:48Z</time>
      </trkpt>
      <trkpt lat="42.922731041908264" lon="-4.759643012657762">
        <ele>1299.3599999999999</ele>
        <time>2025-04-29T08:34:00Z</time>
      </trkpt>
      <trkpt lat="42.922549992799759" lon="-4.75970596075058">
        <ele>1299.3599999999999</ele>
        <time>2025-04-29T08:34:01Z</time>
      </trkpt>
      <trkpt lat="42.921672994270921" lon="-4.76011399179697">
        <ele>1300.8</ele>
        <time>2025-04-29T08:34:06Z</time>
      </trkpt>
      <trkpt lat="42.921554977074265" lon="-4.760206025093794">
        <ele>1300.8</ele>
        <time>2025-04-29T08:34:07Z</time>
      </trkpt>
      <trkpt lat="42.921502003446221" lon="-4.760351032018662">
        <ele>1301.28</ele>
        <time>2025-04-29T08:34:08Z</time>
      </trkpt>
      <trkpt lat="42.921451963484287" lon="-4.760511964559555">
        <ele>1301.76</ele>
        <time>2025-04-29T08:34:09Z</time>
      </trkpt>
      <trkpt lat="42.921408964321017" lon="-4.760683961212635">
        <ele>1302.72</ele>
        <time>2025-04-29T08:34:10Z</time>
      </trkpt>
      <trkpt lat="42.921382980421185" lon="-4.760881019756198">
        <ele>1303.2</ele>
        <time>2025-04-29T08:34:11Z</time>
      </trkpt>
      <trkpt lat="42.921326989308" lon="-4.761299025267363">
        <ele>1304.6500000000001</ele>
        <time>2025-04-29T08:34:13Z</time>
      </trkpt>
      <trkpt lat="42.921302011236548" lon="-4.76148602552712">
        <ele>1305.6099999999999</ele>
        <time>2025-04-29T08:34:14Z</time>
      </trkpt>
      <trkpt lat="42.920849975198507" lon="-4.762659994885325">
        <ele>1310.4100000000001</ele>
        <time>2025-04-29T08:34:21Z</time>
      </trkpt>
      <trkpt lat="42.920764982700348" lon="-4.762749010697007">
        <ele>1310.9000000000001</ele>
        <time>2025-04-29T08:34:22Z</time>
      </trkpt>
      <trkpt lat="42.920663980767131" lon="-4.76279997266829">
        <ele>1311.3800000000001</ele>
        <time>2025-04-29T08:34:23Z</time>
      </trkpt>
      <trkpt lat="42.920559039339423" lon="-4.762852024286985">
        <ele>1312.3399999999999</ele>
        <time>2025-04-29T08:34:24Z</time>
      </trkpt>
      <trkpt lat="42.9204479791224" lon="-4.762908015400171">
        <ele>1312.3399999999999</ele>
        <time>2025-04-29T08:34:25Z</time>
      </trkpt>
      <trkpt lat="42.92021001689136" lon="-4.763041958212853">
        <ele>1313.3</ele>
        <time>2025-04-29T08:34:27Z</time>
      </trkpt>
      <trkpt lat="42.920084036886692" lon="-4.763114964589477">
        <ele>1313.78</ele>
        <time>2025-04-29T08:34:28Z</time>
      </trkpt>
      <trkpt lat="42.919740965589881" lon="-4.763315040618181">
        <ele>1315.22</ele>
        <time>2025-04-29T08:34:31Z</time>
      </trkpt>
      <trkpt lat="42.919641975313425" lon="-4.763372959569097">
        <ele>1315.22</ele>
        <time>2025-04-29T08:34:32Z</time>
      </trkpt>
      <trkpt lat="42.919553965330124" lon="-4.763388969004154">
        <ele>1315.22</ele>
        <time>2025-04-29T08:34:33Z</time>
      </trkpt>
      <trkpt lat="42.919454975053668" lon="-4.763388969004154">
        <ele>1315.7</ele>
        <time>2025-04-29T08:34:34Z</time>
      </trkpt>
      <trkpt lat="42.919353973120451" lon="-4.763367008417845">
        <ele>1315.7</ele>
        <time>2025-04-29T08:34:35Z</time>
      </trkpt>
      <trkpt lat="42.919262023642659" lon="-4.763288972899318">
        <ele>1315.7</ele>
        <time>2025-04-29T08:34:36Z</time>
      </trkpt>
      <trkpt lat="42.919193962588906" lon="-4.763167016208172">
        <ele>1315.7</ele>
        <time>2025-04-29T08:34:37Z</time>
      </trkpt>
      <trkpt lat="42.919139983132482" lon="-4.763023015111685">
        <ele>1315.7</ele>
        <time>2025-04-29T08:34:38Z</time>
      </trkpt>
      <trkpt lat="42.919082986190915" lon="-4.762871973216534">
        <ele>1316.1800000000001</ele>
        <time>2025-04-29T08:34:39Z</time>
      </trkpt>
      <trkpt lat="42.919026995077729" lon="-4.762711962684989">
        <ele>1316.1800000000001</ele>
        <time>2025-04-29T08:34:40Z</time>
      </trkpt>
      <trkpt lat="42.9188799764961" lon="-4.762254981324077">
        <ele>1315.22</ele>
        <time>2025-04-29T08:34:43Z</time>
      </trkpt>
      <trkpt lat="42.918129041790962" lon="-4.7609309758991">
        <ele>1311.8599999999999</ele>
        <time>2025-04-29T08:34:52Z</time>
      </trkpt>
      <trkpt lat="42.918030973523855" lon="-4.760772977024317">
        <ele>1311.3800000000001</ele>
        <time>2025-04-29T08:34:53Z</time>
      </trkpt>
      <trkpt lat="42.917913962155581" lon="-4.760642973706126">
        <ele>1311.3800000000001</ele>
        <time>2025-04-29T08:34:54Z</time>
      </trkpt>
      <trkpt lat="42.917780019342899" lon="-4.760555969551206">
        <ele>1310.9000000000001</ele>
        <time>2025-04-29T08:34:55Z</time>
      </trkpt>
      <trkpt lat="42.917626965790987" lon="-4.760510958731175">
        <ele>1310.9000000000001</ele>
        <time>2025-04-29T08:34:56Z</time>
      </trkpt>
      <trkpt lat="42.917472990229726" lon="-4.760476006194949">
        <ele>1310.9000000000001</ele>
        <time>2025-04-29T08:34:57Z</time>
      </trkpt>
      <trkpt lat="42.917320020496845" lon="-4.760526968166232">
        <ele>1310.4100000000001</ele>
        <time>2025-04-29T08:34:58Z</time>
      </trkpt>
      <trkpt lat="42.917165039107203" lon="-4.760579019784927">
        <ele>1310.4100000000001</ele>
        <time>2025-04-29T08:34:59Z</time>
      </trkpt>
      <trkpt lat="42.91700997389853" lon="-4.76062998175621">
        <ele>1309.9300000000001</ele>
        <time>2025-04-29T08:35:00Z</time>
      </trkpt>
      <trkpt lat="42.916848035529256" lon="-4.760684967041016">
        <ele>1309.45</ele>
        <time>2025-04-29T08:35:01Z</time>
      </trkpt>
      <trkpt lat="42.916689030826092" lon="-4.760724026709795">
        <ele>1308.97</ele>
        <time>2025-04-29T08:35:02Z</time>
      </trkpt>
      <trkpt lat="42.916523991152644" lon="-4.760703993961215">
        <ele>1308.97</ele>
        <time>2025-04-29T08:35:03Z</time>
      </trkpt>
      <trkpt lat="42.915510032325983" lon="-4.760539960116148">
        <ele>1307.05</ele>
        <time>2025-04-29T08:35:09Z</time>
      </trkpt>
      <trkpt lat="42.915366031229496" lon="-4.760492015630007">
        <ele>1306.5699999999999</ele>
        <time>2025-04-29T08:35:10Z</time>
      </trkpt>
      <trkpt lat="42.915214989334345" lon="-4.760355977341533">
        <ele>1305.6099999999999</ele>
        <time>2025-04-29T08:35:11Z</time>
      </trkpt>
      <trkpt lat="42.915071994066238" lon="-4.760227985680103">
        <ele>1305.6099999999999</ele>
        <time>2025-04-29T08:35:12Z</time>
      </trkpt>
      <trkpt lat="42.914927992969751" lon="-4.760098988190293">
        <ele>1305.1300000000001</ele>
        <time>2025-04-29T08:35:13Z</time>
      </trkpt>
      <trkpt lat="42.914636973291636" lon="-4.759837975725532">
        <ele>1304.1700000000001</ele>
        <time>2025-04-29T08:35:15Z</time>
      </trkpt>
      <trkpt lat="42.914477968588471" lon="-4.759721970185638">
        <ele>1304.1700000000001</ele>
        <time>2025-04-29T08:35:16Z</time>
      </trkpt>
      <trkpt lat="42.914309995248914" lon="-4.75966103374958">
        <ele>1304.1700000000001</ele>
        <time>2025-04-29T08:35:17Z</time>
      </trkpt>
      <trkpt lat="42.914142021909356" lon="-4.759600013494492">
        <ele>1303.6900000000001</ele>
        <time>2025-04-29T08:35:18Z</time>
      </trkpt>
      <trkpt lat="42.913971031084657" lon="-4.759537987411022">
        <ele>1303.6900000000001</ele>
        <time>2025-04-29T08:35:19Z</time>
      </trkpt>
      <trkpt lat="42.913820995017886" lon="-4.759483002126217">
        <ele>1303.2</ele>
        <time>2025-04-29T08:35:20Z</time>
      </trkpt>
      <trkpt lat="42.913681017234921" lon="-4.759323997423053">
        <ele>1303.2</ele>
        <time>2025-04-29T08:35:21Z</time>
      </trkpt>
      <trkpt lat="42.913547996431589" lon="-4.759172033518553">
        <ele>1302.72</ele>
        <time>2025-04-29T08:35:22Z</time>
      </trkpt>
      <trkpt lat="42.912005977705121" lon="-4.757356010377407">
        <ele>1301.76</ele>
        <time>2025-04-29T08:35:33Z</time>
      </trkpt>
      <trkpt lat="42.911877986043692" lon="-4.757160041481257">
        <ele>1301.76</ele>
        <time>2025-04-29T08:35:34Z</time>
      </trkpt>
      <trkpt lat="42.911777989938855" lon="-4.756930964067578">
        <ele>1302.24</ele>
        <time>2025-04-29T08:35:35Z</time>
      </trkpt>
      <trkpt lat="42.911697020754218" lon="-4.756677998229861">
        <ele>1302.72</ele>
        <time>2025-04-29T08:35:36Z</time>
      </trkpt>
      <trkpt lat="42.911614961922169" lon="-4.756422014907002">
        <ele>1302.72</ele>
        <time>2025-04-29T08:35:37Z</time>
      </trkpt>
      <trkpt lat="42.911288989707828" lon="-4.755403026938438">
        <ele>1304.1700000000001</ele>
        <time>2025-04-29T08:35:41Z</time>
      </trkpt>
      <trkpt lat="42.91125001385808" lon="-4.755132040008903">
        <ele>1304.1700000000001</ele>
        <time>2025-04-29T08:35:42Z</time>
      </trkpt>
      <trkpt lat="42.911211038008332" lon="-4.754859963431954">
        <ele>1304.6500000000001</ele>
        <time>2025-04-29T08:35:43Z</time>
      </trkpt>
      <trkpt lat="42.911171978339553" lon="-4.754587970674038">
        <ele>1304.6500000000001</ele>
        <time>2025-04-29T08:35:44Z</time>
      </trkpt>
      <trkpt lat="42.911124033853412" lon="-4.754326958209276">
        <ele>1305.1300000000001</ele>
        <time>2025-04-29T08:35:45Z</time>
      </trkpt>
      <trkpt lat="42.911069970577955" lon="-4.754066029563546">
        <ele>1304.6500000000001</ele>
        <time>2025-04-29T08:35:46Z</time>
      </trkpt>
      <trkpt lat="42.910983972251415" lon="-4.753530006855726">
        <ele>1305.6099999999999</ele>
        <time>2025-04-29T08:35:48Z</time>
      </trkpt>
      <trkpt lat="42.910972991958261" lon="-4.75325801409781">
        <ele>1305.6099999999999</ele>
        <time>2025-04-29T08:35:49Z</time>
      </trkpt>
      <trkpt lat="42.910963017493486" lon="-4.752990966662765">
        <ele>1305.6099999999999</ele>
        <time>2025-04-29T08:35:50Z</time>
      </trkpt>
      <trkpt lat="42.910946002230048" lon="-4.752530967816711">
        <ele>1305.6099999999999</ele>
        <time>2025-04-29T08:35:52Z</time>
      </trkpt>
      <trkpt lat="42.910900991410017" lon="-4.752279007807374">
        <ele>1305.6099999999999</ele>
        <time>2025-04-29T08:35:53Z</time>
      </trkpt>
      <trkpt lat="42.910837959498167" lon="-4.752087984234095">
        <ele>1305.1300000000001</ele>
        <time>2025-04-29T08:35:54Z</time>
      </trkpt>
      <trkpt lat="42.910730000585318" lon="-4.751893021166325">
        <ele>1305.1300000000001</ele>
        <time>2025-04-29T08:35:55Z</time>
      </trkpt>
      <trkpt lat="42.910612989217043" lon="-4.751683976501226">
        <ele>1305.1300000000001</ele>
        <time>2025-04-29T08:35:56Z</time>
      </trkpt>
      <trkpt lat="42.910492960363626" lon="-4.751467974856496">
        <ele>1304.6500000000001</ele>
        <time>2025-04-29T08:35:57Z</time>
      </trkpt>
      <trkpt lat="42.910377038642764" lon="-4.751258008182049">
        <ele>1304.1700000000001</ele>
        <time>2025-04-29T08:35:58Z</time>
      </trkpt>
      <trkpt lat="42.910264972597361" lon="-4.751056004315615">
        <ele>1304.1700000000001</ele>
        <time>2025-04-29T08:35:59Z</time>
      </trkpt>
      <trkpt lat="42.910194983705878" lon="-4.750814018771052">
        <ele>1304.6500000000001</ele>
        <time>2025-04-29T08:36:00Z</time>
      </trkpt>
      <trkpt lat="42.910147039219737" lon="-4.750549988821149">
        <ele>1304.6500000000001</ele>
        <time>2025-04-29T08:36:01Z</time>
      </trkpt>
      <trkpt lat="42.910130023956299" lon="-4.750280007719994">
        <ele>1304.6500000000001</ele>
        <time>2025-04-29T08:36:02Z</time>
      </trkpt>
      <trkpt lat="42.910113008692861" lon="-4.750012960284948">
        <ele>1304.6500000000001</ele>
        <time>2025-04-29T08:36:03Z</time>
      </trkpt>
      <trkpt lat="42.910095993429422" lon="-4.749747002497315">
        <ele>1304.6500000000001</ele>
        <time>2025-04-29T08:36:04Z</time>
      </trkpt>
      <trkpt lat="42.910049976781011" lon="-4.749480960890651">
        <ele>1304.1700000000001</ele>
        <time>2025-04-29T08:36:05Z</time>
      </trkpt>
      <trkpt lat="42.909977976232767" lon="-4.749227995052934">
        <ele>1304.1700000000001</ele>
        <time>2025-04-29T08:36:06Z</time>
      </trkpt>
      <trkpt lat="42.909877980127931" lon="-4.749009981751442">
        <ele>1304.1700000000001</ele>
        <time>2025-04-29T08:36:07Z</time>
      </trkpt>
      <trkpt lat="42.909787036478519" lon="-4.748839996755123">
        <ele>1303.6900000000001</ele>
        <time>2025-04-29T08:36:08Z</time>
      </trkpt>
      <trkpt lat="42.909614033997059" lon="-4.748694989830256">
        <ele>1303.6900000000001</ele>
        <time>2025-04-29T08:36:09Z</time>
      </trkpt>
      <trkpt lat="42.909469027072191" lon="-4.74857303313911">
        <ele>1303.6900000000001</ele>
        <time>2025-04-29T08:36:10Z</time>
      </trkpt>
      <trkpt lat="42.909327959641814" lon="-4.748455015942454">
        <ele>1303.2</ele>
        <time>2025-04-29T08:36:11Z</time>
      </trkpt>
      <trkpt lat="42.909206002950668" lon="-4.748299028724432">
        <ele>1303.2</ele>
        <time>2025-04-29T08:36:12Z</time>
      </trkpt>
      <trkpt lat="42.909112963825464" lon="-4.748114040121436">
        <ele>1303.2</ele>
        <time>2025-04-29T08:36:13Z</time>
      </trkpt>
      <trkpt lat="42.909054039046168" lon="-4.747901977971196">
        <ele>1303.2</ele>
        <time>2025-04-29T08:36:14Z</time>
      </trkpt>
      <trkpt lat="42.909011961892247" lon="-4.747681031003594">
        <ele>1303.2</ele>
        <time>2025-04-29T08:36:15Z</time>
      </trkpt>
      <trkpt lat="42.908999975770712" lon="-4.747446002438664">
        <ele>1303.2</ele>
        <time>2025-04-29T08:36:16Z</time>
      </trkpt>
      <trkpt lat="42.909006010740995" lon="-4.747211979702115">
        <ele>1303.2</ele>
        <time>2025-04-29T08:36:17Z</time>
      </trkpt>
      <trkpt lat="42.909035012125969" lon="-4.74696303717792">
        <ele>1303.2</ele>
        <time>2025-04-29T08:36:18Z</time>
      </trkpt>
      <trkpt lat="42.909094020724297" lon="-4.746222998946905">
        <ele>1303.6900000000001</ele>
        <time>2025-04-29T08:36:21Z</time>
      </trkpt>
      <trkpt lat="42.909085974097252" lon="-4.745983025059104">
        <ele>1304.1700000000001</ele>
        <time>2025-04-29T08:36:22Z</time>
      </trkpt>
      <trkpt lat="42.90907901711762" lon="-4.745793007314205">
        <ele>1304.6500000000001</ele>
        <time>2025-04-29T08:36:23Z</time>
      </trkpt>
      <trkpt lat="42.90912302210927" lon="-4.745524032041431">
        <ele>1304.6500000000001</ele>
        <time>2025-04-29T08:36:24Z</time>
      </trkpt>
      <trkpt lat="42.909159986302257" lon="-4.745295960456133">
        <ele>1304.6500000000001</ele>
        <time>2025-04-29T08:36:25Z</time>
      </trkpt>
      <trkpt lat="42.909197034314275" lon="-4.745067972689867">
        <ele>1305.1300000000001</ele>
        <time>2025-04-29T08:36:26Z</time>
      </trkpt>
      <trkpt lat="42.909225029870868" lon="-4.744840990751982">
        <ele>1305.6099999999999</ele>
        <time>2025-04-29T08:36:27Z</time>
      </trkpt>
      <trkpt lat="42.90927398018539" lon="-4.744389960542321">
        <ele>1306.0899999999999</ele>
        <time>2025-04-29T08:36:29Z</time>
      </trkpt>
      <trkpt lat="42.909322008490562" lon="-4.74395502358675">
        <ele>1306.5699999999999</ele>
        <time>2025-04-29T08:36:31Z</time>
      </trkpt>
      <trkpt lat="42.909327037632465" lon="-4.743746984750032">
        <ele>1306.5699999999999</ele>
        <time>2025-04-29T08:36:32Z</time>
      </trkpt>
      <trkpt lat="42.909298958256841" lon="-4.743536012247205">
        <ele>1307.05</ele>
        <time>2025-04-29T08:36:33Z</time>
      </trkpt>
      <trkpt lat="42.909270040690899" lon="-4.743323028087616">
        <ele>1307.05</ele>
        <time>2025-04-29T08:36:34Z</time>
      </trkpt>
      <trkpt lat="42.909226035699248" lon="-4.743114989250898">
        <ele>1307.05</ele>
        <time>2025-04-29T08:36:35Z</time>
      </trkpt>
      <trkpt lat="42.909149006009102" lon="-4.742928994819522">
        <ele>1306.5699999999999</ele>
        <time>2025-04-29T08:36:36Z</time>
      </trkpt>
      <trkpt lat="42.909064013510942" lon="-4.74275297485292">
        <ele>1306.5699999999999</ele>
        <time>2025-04-29T08:36:37Z</time>
      </trkpt>
      <trkpt lat="42.908959994092584" lon="-4.742591036483645">
        <ele>1306.5699999999999</ele>
        <time>2025-04-29T08:36:38Z</time>
      </trkpt>
      <trkpt lat="42.908834014087915" lon="-4.742446029558778">
        <ele>1306.5699999999999</ele>
        <time>2025-04-29T08:36:39Z</time>
      </trkpt>
      <trkpt lat="42.908689007163048" lon="-4.742318959906697">
        <ele>1306.0899999999999</ele>
        <time>2025-04-29T08:36:40Z</time>
      </trkpt>
      <trkpt lat="42.907919967547059" lon="-4.74161303602159">
        <ele>1306.0899999999999</ele>
        <time>2025-04-29T08:36:45Z</time>
      </trkpt>
      <trkpt lat="42.907778983935714" lon="-4.741451013833284">
        <ele>1306.0899999999999</ele>
        <time>2025-04-29T08:36:46Z</time>
      </trkpt>
      <trkpt lat="42.907668007537723" lon="-4.741250015795231">
        <ele>1306.0899999999999</ele>
        <time>2025-04-29T08:36:47Z</time>
      </trkpt>
      <trkpt lat="42.906967028975487" lon="-4.739510016515851">
        <ele>1307.05</ele>
        <time>2025-04-29T08:36:55Z</time>
      </trkpt>
      <trkpt lat="42.906488003209233" lon="-4.738469989970326">
        <ele>1308.49</ele>
        <time>2025-04-29T08:37:00Z</time>
      </trkpt>
      <trkpt lat="42.906368980184197" lon="-4.738294975832105">
        <ele>1308.49</ele>
        <time>2025-04-29T08:37:01Z</time>
      </trkpt>
      <trkpt lat="42.905305987223983" lon="-4.736823029816151">
        <ele>1310.4100000000001</ele>
        <time>2025-04-29T08:37:09Z</time>
      </trkpt>
      <trkpt lat="42.904915977269411" lon="-4.736331012099981">
        <ele>1311.8599999999999</ele>
        <time>2025-04-29T08:37:12Z</time>
      </trkpt>
      <trkpt lat="42.904770970344543" lon="-4.736244007945061">
        <ele>1311.8599999999999</ele>
        <time>2025-04-29T08:37:13Z</time>
      </trkpt>
      <trkpt lat="42.90461297146976" lon="-4.73617603071034">
        <ele>1312.3399999999999</ele>
        <time>2025-04-29T08:37:14Z</time>
      </trkpt>
      <trkpt lat="42.904452960938215" lon="-4.736154992133379">
        <ele>1312.8199999999999</ele>
        <time>2025-04-29T08:37:15Z</time>
      </trkpt>
      <trkpt lat="42.904277024790645" lon="-4.736149040982127">
        <ele>1312.8199999999999</ele>
        <time>2025-04-29T08:37:16Z</time>
      </trkpt>
      <trkpt lat="42.904089018702507" lon="-4.736142000183463">
        <ele>1312.8199999999999</ele>
        <time>2025-04-29T08:37:17Z</time>
      </trkpt>
      <trkpt lat="42.903905035927892" lon="-4.73613596521318">
        <ele>1312.8199999999999</ele>
        <time>2025-04-29T08:37:18Z</time>
      </trkpt>
      <trkpt lat="42.903718035668135" lon="-4.736130014061928">
        <ele>1313.3</ele>
        <time>2025-04-29T08:37:19Z</time>
      </trkpt>
      <trkpt lat="42.903358032926917" lon="-4.736117022112012">
        <ele>1313.3</ele>
        <time>2025-04-29T08:37:21Z</time>
      </trkpt>
      <trkpt lat="42.903177989646792" lon="-4.736142000183463">
        <ele>1313.78</ele>
        <time>2025-04-29T08:37:22Z</time>
      </trkpt>
      <trkpt lat="42.90257097221911" lon="-4.736259011551738">
        <ele>1313.78</ele>
        <time>2025-04-29T08:37:26Z</time>
      </trkpt>
      <trkpt lat="42.902471981942654" lon="-4.73630796186626">
        <ele>1313.78</ele>
        <time>2025-04-29T08:37:27Z</time>
      </trkpt>
      <trkpt lat="42.902394030243158" lon="-4.736369987949729">
        <ele>1313.78</ele>
        <time>2025-04-29T08:37:28Z</time>
      </trkpt>
      <trkpt lat="42.902328986674547" lon="-4.736445005983114">
        <ele>1313.3</ele>
        <time>2025-04-29T08:37:29Z</time>
      </trkpt>
      <trkpt lat="42.902289004996419" lon="-4.736532010138035">
        <ele>1313.3</ele>
        <time>2025-04-29T08:37:30Z</time>
      </trkpt>
      <trkpt lat="42.902267966419458" lon="-4.736643992364407">
        <ele>1313.3</ele>
        <time>2025-04-29T08:37:31Z</time>
      </trkpt>
      <trkpt lat="42.902243994176388" lon="-4.736773995682597">
        <ele>1313.3</ele>
        <time>2025-04-29T08:37:32Z</time>
      </trkpt>
      <trkpt lat="42.902218010276556" lon="-4.736915985122323">
        <ele>1312.8199999999999</ele>
        <time>2025-04-29T08:37:33Z</time>
      </trkpt>
      <trkpt lat="42.902189008891582" lon="-4.737065015360713">
        <ele>1312.3399999999999</ele>
        <time>2025-04-29T08:37:34Z</time>
      </trkpt>
      <trkpt lat="42.902138968929648" lon="-4.737203987315297">
        <ele>1311.8599999999999</ele>
        <time>2025-04-29T08:37:35Z</time>
      </trkpt>
      <trkpt lat="42.902060011401772" lon="-4.737328039482236">
        <ele>1311.3800000000001</ele>
        <time>2025-04-29T08:37:36Z</time>
      </trkpt>
      <trkpt lat="42.901961021125317" lon="-4.737399034202099">
        <ele>1311.3800000000001</ele>
        <time>2025-04-29T08:37:37Z</time>
      </trkpt>
      <trkpt lat="42.901851972565055" lon="-4.737414037808776">
        <ele>1310.9000000000001</ele>
        <time>2025-04-29T08:37:38Z</time>
      </trkpt>
      <trkpt lat="42.901742001995444" lon="-4.737425018101931">
        <ele>1310.9000000000001</ele>
        <time>2025-04-29T08:37:39Z</time>
      </trkpt>
      <trkpt lat="42.901633959263563" lon="-4.737435998395085">
        <ele>1310.4100000000001</ele>
        <time>2025-04-29T08:37:40Z</time>
      </trkpt>
      <trkpt lat="42.900711027905345" lon="-4.7373609803617">
        <ele>1308.97</ele>
        <time>2025-04-29T08:37:50Z</time>
      </trkpt>
      <trkpt lat="42.900612037628889" lon="-4.737392999231815">
        <ele>1309.45</ele>
        <time>2025-04-29T08:37:51Z</time>
      </trkpt>
      <trkpt lat="42.900517992675304" lon="-4.737425018101931">
        <ele>1309.45</ele>
        <time>2025-04-29T08:37:52Z</time>
      </trkpt>
      <trkpt lat="42.90022898465395" lon="-4.737771023064852">
        <ele>1309.9300000000001</ele>
        <time>2025-04-29T08:37:59Z</time>
      </trkpt>
      <trkpt lat="42.900158995762467" lon="-4.737883005291224">
        <ele>1308.01</ele>
        <time>2025-04-29T08:38:01Z</time>
      </trkpt>
      <trkpt lat="42.899810979142785" lon="-4.738438976928592">
        <ele>1305.1300000000001</ele>
        <time>2025-04-29T08:38:08Z</time>
      </trkpt>
      <trkpt lat="42.899763034656644" lon="-4.738517012447119">
        <ele>1305.1300000000001</ele>
        <time>2025-04-29T08:38:09Z</time>
      </trkpt>
      <trkpt lat="42.899663960561156" lon="-4.738661013543606">
        <ele>1304.6500000000001</ele>
        <time>2025-04-29T08:38:11Z</time>
      </trkpt>
      <trkpt lat="42.899615010246634" lon="-4.738700995221734">
        <ele>1304.6500000000001</ele>
        <time>2025-04-29T08:38:12Z</time>
      </trkpt>
      <trkpt lat="42.899247966706753" lon="-4.738997966051102">
        <ele>1303.2</ele>
        <time>2025-04-29T08:38:20Z</time>
      </trkpt>
      <trkpt lat="42.898986032232642" lon="-4.739255039021373">
        <ele>1303.6900000000001</ele>
        <time>2025-04-29T08:38:24Z</time>
      </trkpt>
      <trkpt lat="42.898903973400593" lon="-4.739329973235726">
        <ele>1303.6900000000001</ele>
        <time>2025-04-29T08:38:25Z</time>
      </trkpt>
      <trkpt lat="42.898815963417292" lon="-4.739407002925873">
        <ele>1304.1700000000001</ele>
        <time>2025-04-29T08:38:26Z</time>
      </trkpt>
      <trkpt lat="42.89872501976788" lon="-4.739486966282129">
        <ele>1304.6500000000001</ele>
        <time>2025-04-29T08:38:27Z</time>
      </trkpt>
      <trkpt lat="42.898633992299438" lon="-4.739567013457418">
        <ele>1305.1300000000001</ele>
        <time>2025-04-29T08:38:28Z</time>
      </trkpt>
      <trkpt lat="42.898379014804959" lon="-4.73978997208178">
        <ele>1305.6099999999999</ele>
        <time>2025-04-29T08:38:31Z</time>
      </trkpt>
      <trkpt lat="42.898325035348535" lon="-4.739835988730192">
        <ele>1305.6099999999999</ele>
        <time>2025-04-29T08:38:32Z</time>
      </trkpt>
      <trkpt lat="42.898287987336516" lon="-4.739869013428688">
        <ele>1306.0899999999999</ele>
        <time>2025-04-29T08:38:33Z</time>
      </trkpt>
      <trkpt lat="42.898258985951543" lon="-4.739893991500139">
        <ele>1306.0899999999999</ele>
        <time>2025-04-29T08:38:34Z</time>
      </trkpt>
      <trkpt lat="42.898236019536853" lon="-4.7399150300771">
        <ele>1306.5699999999999</ele>
        <time>2025-04-29T08:38:35Z</time>
      </trkpt>
      <trkpt lat="42.898214980959892" lon="-4.739932967349887">
        <ele>1307.05</ele>
        <time>2025-04-29T08:38:45Z</time>
      </trkpt>
      <trkpt lat="42.898214980959892" lon="-4.739932967349887">
        <ele>1307.53</ele>
        <time>2025-04-29T08:39:19Z</time>
      </trkpt>
      <trkpt lat="42.898214980959892" lon="-4.739932967349887">
        <ele>1307.05</ele>
        <time>2025-04-29T08:39:43Z</time>
      </trkpt>
      <trkpt lat="42.898214980959892" lon="-4.739932967349887">
        <ele>1306.5699999999999</ele>
        <time>2025-04-29T08:39:44Z</time>
      </trkpt>
      <trkpt lat="42.898214980959892" lon="-4.739932967349887">
        <ele>1305.6099999999999</ele>
        <time>2025-04-29T08:39:45Z</time>
      </trkpt>
      <trkpt lat="42.898069974035025" lon="-4.74008803255856">
        <ele>1301.76</ele>
        <time>2025-04-29T08:39:52Z</time>
      </trkpt>
      <trkpt lat="42.89803602732718" lon="-4.740138994529843">
        <ele>1300.8</ele>
        <time>2025-04-29T08:39:53Z</time>
      </trkpt>
      <trkpt lat="42.89799302816391" lon="-4.740203032270074">
        <ele>1299.3599999999999</ele>
        <time>2025-04-29T08:39:54Z</time>
      </trkpt>
      <trkpt lat="42.8977379668504" lon="-4.740720028057694">
        <ele>1296.96</ele>
        <time>2025-04-29T08:39:59Z</time>
      </trkpt>
      <trkpt lat="42.897682981565595" lon="-4.740868974477053">
        <ele>1295.99</ele>
        <time>2025-04-29T08:40:00Z</time>
      </trkpt>
      <trkpt lat="42.897486006841063" lon="-4.741559978574514">
        <ele>1292.6300000000001</ele>
        <time>2025-04-29T08:40:04Z</time>
      </trkpt>
      <trkpt lat="42.897449964657426" lon="-4.741748990491033">
        <ele>1292.1500000000001</ele>
        <time>2025-04-29T08:40:05Z</time>
      </trkpt>
      <trkpt lat="42.897247038781643" lon="-4.743593009188771">
        <ele>1284.9400000000001</ele>
        <time>2025-04-29T08:40:13Z</time>
      </trkpt>
      <trkpt lat="42.897195992991328" lon="-4.744073962792754">
        <ele>1282.54</ele>
        <time>2025-04-29T08:40:15Z</time>
      </trkpt>
      <trkpt lat="42.897210996598005" lon="-4.745061015710235">
        <ele>1277.25</ele>
        <time>2025-04-29T08:40:19Z</time>
      </trkpt>
      <trkpt lat="42.897190963849425" lon="-4.745304007083178">
        <ele>1275.8099999999999</ele>
        <time>2025-04-29T08:40:20Z</time>
      </trkpt>
      <trkpt lat="42.897149976342916" lon="-4.745552027598023">
        <ele>1274.8499999999999</ele>
        <time>2025-04-29T08:40:21Z</time>
      </trkpt>
      <trkpt lat="42.897021984681487" lon="-4.746315032243729">
        <ele>1270.04</ele>
        <time>2025-04-29T08:40:24Z</time>
      </trkpt>
      <trkpt lat="42.897007986903191" lon="-4.74657503888011">
        <ele>1268.5999999999999</ele>
        <time>2025-04-29T08:40:25Z</time>
      </trkpt>
      <trkpt lat="42.896982003003359" lon="-4.747084993869066">
        <ele>1265.71</ele>
        <time>2025-04-29T08:40:27Z</time>
      </trkpt>
      <trkpt lat="42.896943027153611" lon="-4.74734902381897">
        <ele>1264.75</ele>
        <time>2025-04-29T08:40:28Z</time>
      </trkpt>
      <trkpt lat="42.896682014688849" lon="-4.748313026502729">
        <ele>1258.5</ele>
        <time>2025-04-29T08:40:32Z</time>
      </trkpt>
      <trkpt lat="42.896590987220407" lon="-4.748540008440614">
        <ele>1257.0599999999999</ele>
        <time>2025-04-29T08:40:33Z</time>
      </trkpt>
      <trkpt lat="42.896498031914234" lon="-4.748714016750455">
        <ele>1255.6199999999999</ele>
        <time>2025-04-29T08:40:34Z</time>
      </trkpt>
      <trkpt lat="42.89616703055799" lon="-4.749213997274637">
        <ele>1251.29</ele>
        <time>2025-04-29T08:40:37Z</time>
      </trkpt>
      <trkpt lat="42.896056976169348" lon="-4.749306030571461">
        <ele>1249.8499999999999</ele>
        <time>2025-04-29T08:40:38Z</time>
      </trkpt>
      <trkpt lat="42.89593200199306" lon="-4.749351041391492">
        <ele>1248.4100000000001</ele>
        <time>2025-04-29T08:40:39Z</time>
      </trkpt>
      <trkpt lat="42.895852038636804" lon="-4.74936998449266">
        <ele>1247.9300000000001</ele>
        <time>2025-04-29T08:40:40Z</time>
      </trkpt>
      <trkpt lat="42.895763022825122" lon="-4.74930502474308">
        <ele>1246.49</ele>
        <time>2025-04-29T08:40:41Z</time>
      </trkpt>
      <trkpt lat="42.895624972879887" lon="-4.749205028638244">
        <ele>1246.01</ele>
        <time>2025-04-29T08:40:42Z</time>
      </trkpt>
      <trkpt lat="42.895581973716617" lon="-4.749118024483323">
        <ele>1245.04</ele>
        <time>2025-04-29T08:40:43Z</time>
      </trkpt>
      <trkpt lat="42.895504022017121" lon="-4.74896295927465">
        <ele>1244.0799999999999</ele>
        <time>2025-04-29T08:40:44Z</time>
      </trkpt>
      <trkpt lat="42.895423974841833" lon="-4.748802026733756">
        <ele>1243.1199999999999</ele>
        <time>2025-04-29T08:40:45Z</time>
      </trkpt>
      <trkpt lat="42.894772030413151" lon="-4.747519008815289">
        <ele>1240.24</ele>
        <time>2025-04-29T08:40:53Z</time>
      </trkpt>
      <trkpt lat="42.893992010504007" lon="-4.74632098339498">
        <ele>1240.24</ele>
        <time>2025-04-29T08:41:04Z</time>
      </trkpt>
      <trkpt lat="42.893951022997499" lon="-4.746287036687136">
        <ele>1240.24</ele>
        <time>2025-04-29T08:41:05Z</time>
      </trkpt>
      <trkpt lat="42.893843986093998" lon="-4.746287036687136">
        <ele>1239.76</ele>
        <time>2025-04-29T08:41:06Z</time>
      </trkpt>
      <trkpt lat="42.893773997202516" lon="-4.746314026415348">
        <ele>1239.76</ele>
        <time>2025-04-29T08:41:07Z</time>
      </trkpt>
      <trkpt lat="42.893699984997511" lon="-4.746388960629702">
        <ele>1239.28</ele>
        <time>2025-04-29T08:41:08Z</time>
      </trkpt>
      <trkpt lat="42.893608035519719" lon="-4.746479988098145">
        <ele>1239.28</ele>
        <time>2025-04-29T08:41:09Z</time>
      </trkpt>
      <trkpt lat="42.893553972244263" lon="-4.746579984202981">
        <ele>1238.8</ele>
        <time>2025-04-29T08:41:10Z</time>
      </trkpt>
      <trkpt lat="42.893485995009542" lon="-4.74670403636992">
        <ele>1238.3199999999999</ele>
        <time>2025-04-29T08:41:11Z</time>
      </trkpt>
      <trkpt lat="42.893416006118059" lon="-4.74683303385973">
        <ele>1237.8299999999999</ele>
        <time>2025-04-29T08:41:12Z</time>
      </trkpt>
      <trkpt lat="42.892572032287717" lon="-4.748374968767166">
        <ele>1233.51</ele>
        <time>2025-04-29T08:41:22Z</time>
      </trkpt>
      <trkpt lat="42.891607023775578" lon="-4.750245977193117">
        <ele>1228.22</ele>
        <time>2025-04-29T08:41:32Z</time>
      </trkpt>
      <trkpt lat="42.891532005742192" lon="-4.75044303573668">
        <ele>1227.74</ele>
        <time>2025-04-29T08:41:33Z</time>
      </trkpt>
      <trkpt lat="42.891496969386935" lon="-4.750659037381411">
        <ele>1227.26</ele>
        <time>2025-04-29T08:41:34Z</time>
      </trkpt>
      <trkpt lat="42.891483977437019" lon="-4.750885013490915">
        <ele>1226.78</ele>
        <time>2025-04-29T08:41:35Z</time>
      </trkpt>
      <trkpt lat="42.891471991315484" lon="-4.751114007085562">
        <ele>1226.3</ele>
        <time>2025-04-29T08:41:36Z</time>
      </trkpt>
      <trkpt lat="42.891221959143877" lon="-4.753844998776913">
        <ele>1223.4200000000001</ele>
        <time>2025-04-29T08:41:47Z</time>
      </trkpt>
      <trkpt lat="42.8909030277282" lon="-4.755640989169478">
        <ele>1221.97</ele>
        <time>2025-04-29T08:41:54Z</time>
      </trkpt>
      <trkpt lat="42.890814011916518" lon="-4.755875011906028">
        <ele>1221.97</ele>
        <time>2025-04-29T08:41:55Z</time>
      </trkpt>
      <trkpt lat="42.890697000548244" lon="-4.756087996065617">
        <ele>1221.97</ele>
        <time>2025-04-29T08:41:56Z</time>
      </trkpt>
      <trkpt lat="42.889555972069502" lon="-4.758299980312586">
        <ele>1221.01</ele>
        <time>2025-04-29T08:42:06Z</time>
      </trkpt>
      <trkpt lat="42.889467040076852" lon="-4.758538026362658">
        <ele>1221.01</ele>
        <time>2025-04-29T08:42:07Z</time>
      </trkpt>
      <trkpt lat="42.889391016215086" lon="-4.75878001190722">
        <ele>1221.01</ele>
        <time>2025-04-29T08:42:08Z</time>
      </trkpt>
      <trkpt lat="42.889350028708577" lon="-4.759037001058459">
        <ele>1221.01</ele>
        <time>2025-04-29T08:42:09Z</time>
      </trkpt>
      <trkpt lat="42.889082981273532" lon="-4.761161981150508">
        <ele>1221.01</ele>
        <time>2025-04-29T08:42:17Z</time>
      </trkpt>
      <trkpt lat="42.888427013531327" lon="-4.764396976679564">
        <ele>1229.6600000000001</ele>
        <time>2025-04-29T08:42:29Z</time>
      </trkpt>
      <trkpt lat="42.88843497633934" lon="-4.764665029942989">
        <ele>1230.6199999999999</ele>
        <time>2025-04-29T08:42:30Z</time>
      </trkpt>
      <trkpt lat="42.888470012694597" lon="-4.764940962195396">
        <ele>1231.5899999999999</ele>
        <time>2025-04-29T08:42:31Z</time>
      </trkpt>
      <trkpt lat="42.888688025996089" lon="-4.76759098470211">
        <ele>1238.8</ele>
        <time>2025-04-29T08:42:40Z</time>
      </trkpt>
      <trkpt lat="42.888770001009107" lon="-4.76836496964097">
        <ele>1241.2</ele>
        <time>2025-04-29T08:42:43Z</time>
      </trkpt>
      <trkpt lat="42.888832027092576" lon="-4.768624976277351">
        <ele>1242.1600000000001</ele>
        <time>2025-04-29T08:42:44Z</time>
      </trkpt>
      <trkpt lat="42.888892041519284" lon="-4.768909960985184">
        <ele>1242.1600000000001</ele>
        <time>2025-04-29T08:42:45Z</time>
      </trkpt>
      <trkpt lat="42.888918025419116" lon="-4.769208021461964">
        <ele>1242.6400000000001</ele>
        <time>2025-04-29T08:42:46Z</time>
      </trkpt>
      <trkpt lat="42.888945015147328" lon="-4.769515972584486">
        <ele>1243.1199999999999</ele>
        <time>2025-04-29T08:42:47Z</time>
      </trkpt>
      <trkpt lat="42.888951972126961" lon="-4.76982300169766">
        <ele>1243.5999999999999</ele>
        <time>2025-04-29T08:42:48Z</time>
      </trkpt>
      <trkpt lat="42.888951972126961" lon="-4.770120978355408">
        <ele>1243.5999999999999</ele>
        <time>2025-04-29T08:42:49Z</time>
      </trkpt>
      <trkpt lat="42.888922970741987" lon="-4.770410992205143">
        <ele>1243.5999999999999</ele>
        <time>2025-04-29T08:42:50Z</time>
      </trkpt>
      <trkpt lat="42.888869997113943" lon="-4.770943997427821">
        <ele>1243.1199999999999</ele>
        <time>2025-04-29T08:42:52Z</time>
      </trkpt>
      <trkpt lat="42.888886006549001" lon="-4.771195035427809">
        <ele>1242.6400000000001</ele>
        <time>2025-04-29T08:42:53Z</time>
      </trkpt>
      <trkpt lat="42.888953983783722" lon="-4.771423023194075">
        <ele>1242.1600000000001</ele>
        <time>2025-04-29T08:42:54Z</time>
      </trkpt>
      <trkpt lat="42.889467040076852" lon="-4.772979961708188">
        <ele>1238.3199999999999</ele>
        <time>2025-04-29T08:43:00Z</time>
      </trkpt>
      <trkpt lat="42.889513978734612" lon="-4.773247009143233">
        <ele>1237.8299999999999</ele>
        <time>2025-04-29T08:43:01Z</time>
      </trkpt>
      <trkpt lat="42.889557983726263" lon="-4.773497963324189">
        <ele>1237.8299999999999</ele>
        <time>2025-04-29T08:43:02Z</time>
      </trkpt>
      <trkpt lat="42.889587990939617" lon="-4.773746989667416">
        <ele>1237.3499999999999</ele>
        <time>2025-04-29T08:43:03Z</time>
      </trkpt>
      <trkpt lat="42.889539040625095" lon="-4.774002972990274">
        <ele>1236.3900000000001</ele>
        <time>2025-04-29T08:43:04Z</time>
      </trkpt>
      <trkpt lat="42.889487994834781" lon="-4.774265997111797">
        <ele>1235.4300000000001</ele>
        <time>2025-04-29T08:43:05Z</time>
      </trkpt>
      <trkpt lat="42.889436027035117" lon="-4.774532960727811">
        <ele>1234.95</ele>
        <time>2025-04-29T08:43:06Z</time>
      </trkpt>
      <trkpt lat="42.888998994603753" lon="-4.777072006836534">
        <ele>1234.95</ele>
        <time>2025-04-29T08:43:15Z</time>
      </trkpt>
      <trkpt lat="42.888951972126961" lon="-4.779441989958286">
        <ele>1234.95</ele>
        <time>2025-04-29T08:43:23Z</time>
      </trkpt>
      <trkpt lat="42.888987008482218" lon="-4.779704008251429">
        <ele>1234.95</ele>
        <time>2025-04-29T08:43:24Z</time>
      </trkpt>
      <trkpt lat="42.88903302513063" lon="-4.779953034594655">
        <ele>1235.4300000000001</ele>
        <time>2025-04-29T08:43:25Z</time>
      </trkpt>
      <trkpt lat="42.88909899070859" lon="-4.780197031795979">
        <ele>1235.9100000000001</ele>
        <time>2025-04-29T08:43:26Z</time>
      </trkpt>
      <trkpt lat="42.889381041750312" lon="-4.781240997835994">
        <ele>1236.3900000000001</ele>
        <time>2025-04-29T08:43:30Z</time>
      </trkpt>
      <trkpt lat="42.889394033700228" lon="-4.781506033614278">
        <ele>1236.3900000000001</ele>
        <time>2025-04-29T08:43:31Z</time>
      </trkpt>
      <trkpt lat="42.889407025650144" lon="-4.781794035807252">
        <ele>1236.3900000000001</ele>
        <time>2025-04-29T08:43:32Z</time>
      </trkpt>
      <trkpt lat="42.889396967366338" lon="-4.782365011051297">
        <ele>1235.9100000000001</ele>
        <time>2025-04-29T08:43:34Z</time>
      </trkpt>
      <trkpt lat="42.889363020658493" lon="-4.782646978273988">
        <ele>1235.4300000000001</ele>
        <time>2025-04-29T08:43:35Z</time>
      </trkpt>
      <trkpt lat="42.889308035373688" lon="-4.78292802348733">
        <ele>1234.95</ele>
        <time>2025-04-29T08:43:36Z</time>
      </trkpt>
      <trkpt lat="42.888823980465531" lon="-4.785480983555317">
        <ele>1235.9100000000001</ele>
        <time>2025-04-29T08:43:45Z</time>
      </trkpt>
      <trkpt lat="42.888802019879222" lon="-4.786627041175962">
        <ele>1237.3499999999999</ele>
        <time>2025-04-29T08:43:49Z</time>
      </trkpt>
      <trkpt lat="42.888874020427465" lon="-4.786885036155582">
        <ele>1237.8299999999999</ele>
        <time>2025-04-29T08:43:50Z</time>
      </trkpt>
      <trkpt lat="42.888941997662187" lon="-4.787130039185286">
        <ele>1238.3199999999999</ele>
        <time>2025-04-29T08:43:51Z</time>
      </trkpt>
      <trkpt lat="42.889041993767023" lon="-4.787351991981268">
        <ele>1238.3199999999999</ele>
        <time>2025-04-29T08:43:52Z</time>
      </trkpt>
      <trkpt lat="42.88914299570024" lon="-4.787561958655715">
        <ele>1239.28</ele>
        <time>2025-04-29T08:43:53Z</time>
      </trkpt>
      <trkpt lat="42.889250032603741" lon="-4.787754993885756">
        <ele>1239.76</ele>
        <time>2025-04-29T08:43:54Z</time>
      </trkpt>
      <trkpt lat="42.88937802426517" lon="-4.787926990538836">
        <ele>1240.72</ele>
        <time>2025-04-29T08:43:55Z</time>
      </trkpt>
      <trkpt lat="42.890617037191987" lon="-4.789595995098352">
        <ele>1240.24</ele>
        <time>2025-04-29T08:44:04Z</time>
      </trkpt>
      <trkpt lat="42.891474002972245" lon="-4.790769964456558">
        <ele>1238.3199999999999</ele>
        <time>2025-04-29T08:44:11Z</time>
      </trkpt>
      <trkpt lat="42.891577016562223" lon="-4.790939027443528">
        <ele>1237.8299999999999</ele>
        <time>2025-04-29T08:44:12Z</time>
      </trkpt>
      <trkpt lat="42.891823025420308" lon="-4.791505979374051">
        <ele>1236.8699999999999</ele>
        <time>2025-04-29T08:44:15Z</time>
      </trkpt>
      <trkpt lat="42.891916986554861" lon="-4.791661966592073">
        <ele>1236.3900000000001</ele>
        <time>2025-04-29T08:44:16Z</time>
      </trkpt>
      <trkpt lat="42.892026035115123" lon="-4.791775960475206">
        <ele>1235.9100000000001</ele>
        <time>2025-04-29T08:44:17Z</time>
      </trkpt>
      <trkpt lat="42.8923000395298" lon="-4.792071003466845">
        <ele>1233.99</ele>
        <time>2025-04-29T08:44:20Z</time>
      </trkpt>
      <trkpt lat="42.89236499927938" lon="-4.792173011228442">
        <ele>1233.51</ele>
        <time>2025-04-29T08:44:21Z</time>
      </trkpt>
      <trkpt lat="42.89242803119123" lon="-4.792270995676518">
        <ele>1233.51</ele>
        <time>2025-04-29T08:44:22Z</time>
      </trkpt>
      <trkpt lat="42.89245099760592" lon="-4.79238498955965">
        <ele>1233.03</ele>
        <time>2025-04-29T08:44:23Z</time>
      </trkpt>
      <trkpt lat="42.8924710303545" lon="-4.792484985664487">
        <ele>1232.55</ele>
        <time>2025-04-29T08:44:24Z</time>
      </trkpt>
      <trkpt lat="42.892448985949159" lon="-4.792656982317567">
        <ele>1232.0699999999999</ele>
        <time>2025-04-29T08:44:25Z</time>
      </trkpt>
      <trkpt lat="42.892423002049327" lon="-4.792764019221067">
        <ele>1231.5899999999999</ele>
        <time>2025-04-29T08:44:26Z</time>
      </trkpt>
      <trkpt lat="42.892326023429632" lon="-4.793152017518878">
        <ele>1231.1099999999999</ele>
        <time>2025-04-29T08:44:29Z</time>
      </trkpt>
      <trkpt lat="42.892240025103092" lon="-4.79324203915894">
        <ele>1230.6199999999999</ele>
        <time>2025-04-29T08:44:30Z</time>
      </trkpt>
      <trkpt lat="42.892153020948172" lon="-4.793318985030055">
        <ele>1230.6199999999999</ele>
        <time>2025-04-29T08:44:31Z</time>
      </trkpt>
      <trkpt lat="42.892047995701432" lon="-4.793353015556932">
        <ele>1231.1099999999999</ele>
        <time>2025-04-29T08:44:32Z</time>
      </trkpt>
      <trkpt lat="42.891940958797932" lon="-4.793386040255427">
        <ele>1231.1099999999999</ele>
        <time>2025-04-29T08:44:33Z</time>
      </trkpt>
      <trkpt lat="42.891836017370224" lon="-4.793402971699834">
        <ele>1231.5899999999999</ele>
        <time>2025-04-29T08:44:34Z</time>
      </trkpt>
      <trkpt lat="42.891726968809962" lon="-4.793386040255427">
        <ele>1231.5899999999999</ele>
        <time>2025-04-29T08:44:35Z</time>
      </trkpt>
      <trkpt lat="42.891615992411971" lon="-4.793369024991989">
        <ele>1232.0699999999999</ele>
        <time>2025-04-29T08:44:36Z</time>
      </trkpt>
      <trkpt lat="42.891511972993612" lon="-4.793315967544913">
        <ele>1232.0699999999999</ele>
        <time>2025-04-29T08:44:37Z</time>
      </trkpt>
      <trkpt lat="42.891404014080763" lon="-4.793246984481812">
        <ele>1232.55</ele>
        <time>2025-04-29T08:44:38Z</time>
      </trkpt>
      <trkpt lat="42.89129002019763" lon="-4.793175989761949">
        <ele>1233.03</ele>
        <time>2025-04-29T08:44:39Z</time>
      </trkpt>
      <trkpt lat="42.891173008829355" lon="-4.793101977556944">
        <ele>1233.51</ele>
        <time>2025-04-29T08:44:40Z</time>
      </trkpt>
      <trkpt lat="42.890926999971271" lon="-4.792969962581992">
        <ele>1233.99</ele>
        <time>2025-04-29T08:44:42Z</time>
      </trkpt>
      <trkpt lat="42.89079699665308" lon="-4.792924029752612">
        <ele>1234.47</ele>
        <time>2025-04-29T08:44:43Z</time>
      </trkpt>
      <trkpt lat="42.890536990016699" lon="-4.792831996455789">
        <ele>1235.9100000000001</ele>
        <time>2025-04-29T08:44:45Z</time>
      </trkpt>
      <trkpt lat="42.890406986698508" lon="-4.792785979807377">
        <ele>1236.8699999999999</ele>
        <time>2025-04-29T08:44:46Z</time>
      </trkpt>
      <trkpt lat="42.89030397310853" lon="-4.792693024501205">
        <ele>1237.8299999999999</ele>
        <time>2025-04-29T08:44:47Z</time>
      </trkpt>
      <trkpt lat="42.89021797478199" lon="-4.792549023404717">
        <ele>1238.8</ele>
        <time>2025-04-29T08:44:48Z</time>
      </trkpt>
      <trkpt lat="42.89013197645545" lon="-4.792406028136611">
        <ele>1239.28</ele>
        <time>2025-04-29T08:44:49Z</time>
      </trkpt>
      <trkpt lat="42.890044972300529" lon="-4.792262027040124">
        <ele>1239.76</ele>
        <time>2025-04-29T08:44:50Z</time>
      </trkpt>
      <trkpt lat="42.889956040307879" lon="-4.792114002630115">
        <ele>1240.24</ele>
        <time>2025-04-29T08:44:51Z</time>
      </trkpt>
      <trkpt lat="42.889842968434095" lon="-4.791980981826782">
        <ele>1240.72</ele>
        <time>2025-04-29T08:44:52Z</time>
      </trkpt>
      <trkpt lat="42.889707013964653" lon="-4.791894983500242">
        <ele>1240.72</ele>
        <time>2025-04-29T08:44:53Z</time>
      </trkpt>
      <trkpt lat="42.889565024524927" lon="-4.791806973516941">
        <ele>1241.2</ele>
        <time>2025-04-29T08:44:54Z</time>
      </trkpt>
      <trkpt lat="42.888379991054535" lon="-4.791214037686586">
        <ele>1242.6400000000001</ele>
        <time>2025-04-29T08:45:02Z</time>
      </trkpt>
      <trkpt lat="42.888155020773411" lon="-4.791171038523316">
        <ele>1243.1199999999999</ele>
        <time>2025-04-29T08:45:04Z</time>
      </trkpt>
      <trkpt lat="42.887775991111994" lon="-4.791098032146692">
        <ele>1243.1199999999999</ele>
        <time>2025-04-29T08:45:07Z</time>
      </trkpt>
      <trkpt lat="42.887629978358746" lon="-4.791069030761719">
        <ele>1243.1199999999999</ele>
        <time>2025-04-29T08:45:08Z</time>
      </trkpt>
      <trkpt lat="42.886832021176815" lon="-4.791111024096608">
        <ele>1243.5999999999999</ele>
        <time>2025-04-29T08:45:13Z</time>
      </trkpt>
      <trkpt lat="42.886703023687005" lon="-4.791204985231161">
        <ele>1243.5999999999999</ele>
        <time>2025-04-29T08:45:14Z</time>
      </trkpt>
      <trkpt lat="42.886573020368814" lon="-4.791302969679236">
        <ele>1243.5999999999999</ele>
        <time>2025-04-29T08:45:15Z</time>
      </trkpt>
      <trkpt lat="42.886484004557133" lon="-4.791369019076228">
        <ele>1244.0799999999999</ele>
        <time>2025-04-29T08:45:16Z</time>
      </trkpt>
      <trkpt lat="42.886372022330761" lon="-4.79158996604383">
        <ele>1244.0799999999999</ele>
        <time>2025-04-29T08:45:17Z</time>
      </trkpt>
      <trkpt lat="42.886276971548796" lon="-4.791777972131968">
        <ele>1244.0799999999999</ele>
        <time>2025-04-29T08:45:18Z</time>
      </trkpt>
      <trkpt lat="42.886174963787198" lon="-4.791978970170021">
        <ele>1244.5599999999999</ele>
        <time>2025-04-29T08:45:19Z</time>
      </trkpt>
      <trkpt lat="42.885388992726803" lon="-4.793665995821357">
        <ele>1245.53</ele>
        <time>2025-04-29T08:45:26Z</time>
      </trkpt>
      <trkpt lat="42.884961012750864" lon="-4.794674003496766">
        <ele>1246.01</ele>
        <time>2025-04-29T08:45:30Z</time>
      </trkpt>
      <trkpt lat="42.884832015261054" lon="-4.794857986271381">
        <ele>1246.01</ele>
        <time>2025-04-29T08:45:31Z</time>
      </trkpt>
      <trkpt lat="42.884678039699793" lon="-4.795006010681391">
        <ele>1246.01</ele>
        <time>2025-04-29T08:45:32Z</time>
      </trkpt>
      <trkpt lat="42.884388025850058" lon="-4.79526299983263">
        <ele>1246.01</ele>
        <time>2025-04-29T08:45:34Z</time>
      </trkpt>
      <trkpt lat="42.884249975904822" lon="-4.795389985665679">
        <ele>1246.49</ele>
        <time>2025-04-29T08:45:35Z</time>
      </trkpt>
      <trkpt lat="42.884178981184959" lon="-4.795595007017255">
        <ele>1246.49</ele>
        <time>2025-04-29T08:45:36Z</time>
      </trkpt>
      <trkpt lat="42.88390195928514" lon="-4.796536965295672">
        <ele>1247.9300000000001</ele>
        <time>2025-04-29T08:45:40Z</time>
      </trkpt>
      <trkpt lat="42.88379299454391" lon="-4.796967040747404">
        <ele>1248.8900000000001</ele>
        <time>2025-04-29T08:45:42Z</time>
      </trkpt>
      <trkpt lat="42.883714037016034" lon="-4.79713199660182">
        <ele>1249.3699999999999</ele>
        <time>2025-04-29T08:45:43Z</time>
      </trkpt>
      <trkpt lat="42.883586967363954" lon="-4.797226041555405">
        <ele>1249.8499999999999</ele>
        <time>2025-04-29T08:45:44Z</time>
      </trkpt>
      <trkpt lat="42.883325032889843" lon="-4.797435002401471">
        <ele>1250.8099999999999</ele>
        <time>2025-04-29T08:45:46Z</time>
      </trkpt>
      <trkpt lat="42.883223025128245" lon="-4.797571040689945">
        <ele>1251.29</ele>
        <time>2025-04-29T08:45:47Z</time>
      </trkpt>
      <trkpt lat="42.883171979337931" lon="-4.797761980444193">
        <ele>1251.77</ele>
        <time>2025-04-29T08:45:48Z</time>
      </trkpt>
      <trkpt lat="42.883120011538267" lon="-4.797973036766052">
        <ele>1252.25</ele>
        <time>2025-04-29T08:45:49Z</time>
      </trkpt>
      <trkpt lat="42.883069971576333" lon="-4.798210998997092">
        <ele>1252.25</ele>
        <time>2025-04-29T08:45:50Z</time>
      </trkpt>
      <trkpt lat="42.882661018520594" lon="-4.800175968557596">
        <ele>1254.1800000000001</ele>
        <time>2025-04-29T08:45:57Z</time>
      </trkpt>
      <trkpt lat="42.882386008277535" lon="-4.801497962325811">
        <ele>1254.1800000000001</ele>
        <time>2025-04-29T08:46:02Z</time>
      </trkpt>
      <trkpt lat="42.882268996909261" lon="-4.801675993949175">
        <ele>1254.6600000000001</ele>
        <time>2025-04-29T08:46:03Z</time>
      </trkpt>
      <trkpt lat="42.882151985540986" lon="-4.801855031400919">
        <ele>1254.6600000000001</ele>
        <time>2025-04-29T08:46:04Z</time>
      </trkpt>
      <trkpt lat="42.88203002884984" lon="-4.802042031660676">
        <ele>1255.1400000000001</ele>
        <time>2025-04-29T08:46:05Z</time>
      </trkpt>
      <trkpt lat="42.881874041631818" lon="-4.802185026928783">
        <ele>1255.1400000000001</ele>
        <time>2025-04-29T08:46:06Z</time>
      </trkpt>
      <trkpt lat="42.881714031100273" lon="-4.802327016368508">
        <ele>1255.1400000000001</ele>
        <time>2025-04-29T08:46:07Z</time>
      </trkpt>
      <trkpt lat="42.881557960063219" lon="-4.802463976666331">
        <ele>1255.6199999999999</ele>
        <time>2025-04-29T08:46:08Z</time>
      </trkpt>
      <trkpt lat="42.881410019472241" lon="-4.802593979984522">
        <ele>1255.6199999999999</ele>
        <time>2025-04-29T08:46:09Z</time>
      </trkpt>
      <trkpt lat="42.881290996447206" lon="-4.802699005231261">
        <ele>1256.0999999999999</ele>
        <time>2025-04-29T08:46:10Z</time>
      </trkpt>
      <trkpt lat="42.881198963150382" lon="-4.802873013541102">
        <ele>1256.5799999999999</ele>
        <time>2025-04-29T08:46:11Z</time>
      </trkpt>
      <trkpt lat="42.881120005622506" lon="-4.803021037951112">
        <ele>1256.5799999999999</ele>
        <time>2025-04-29T08:46:12Z</time>
      </trkpt>
      <trkpt lat="42.881041970103979" lon="-4.803247014060617">
        <ele>1257.0599999999999</ele>
        <time>2025-04-29T08:46:13Z</time>
      </trkpt>
      <trkpt lat="42.880962006747723" lon="-4.803479025140405">
        <ele>1257.54</ele>
        <time>2025-04-29T08:46:14Z</time>
      </trkpt>
      <trkpt lat="42.880675010383129" lon="-4.804440010339022">
        <ele>1256.0999999999999</ele>
        <time>2025-04-29T08:46:18Z</time>
      </trkpt>
      <trkpt lat="42.880680961534381" lon="-4.804652994498611">
        <ele>1255.6199999999999</ele>
        <time>2025-04-29T08:46:19Z</time>
      </trkpt>
      <trkpt lat="42.880708035081625" lon="-4.80486698448658">
        <ele>1255.1400000000001</ele>
        <time>2025-04-29T08:46:20Z</time>
      </trkpt>
      <trkpt lat="42.88097801618278" lon="-4.80643498711288">
        <ele>1253.22</ele>
        <time>2025-04-29T08:46:27Z</time>
      </trkpt>
      <trkpt lat="42.880942979827523" lon="-4.806582005694509">
        <ele>1253.22</ele>
        <time>2025-04-29T08:46:28Z</time>
      </trkpt>
      <trkpt lat="42.880864022299647" lon="-4.806708991527557">
        <ele>1252.25</ele>
        <time>2025-04-29T08:46:29Z</time>
      </trkpt>
      <trkpt lat="42.880766959860921" lon="-4.806795995682478">
        <ele>1250.8099999999999</ele>
        <time>2025-04-29T08:46:30Z</time>
      </trkpt>
      <trkpt lat="42.880668975412846" lon="-4.806882999837399">
        <ele>1249.3699999999999</ele>
        <time>2025-04-29T08:46:31Z</time>
      </trkpt>
      <trkpt lat="42.880544001236558" lon="-4.806895991787314">
        <ele>1247.9300000000001</ele>
        <time>2025-04-29T08:46:32Z</time>
      </trkpt>
      <trkpt lat="42.880411986261606" lon="-4.806893980130553">
        <ele>1246.49</ele>
        <time>2025-04-29T08:46:33Z</time>
      </trkpt>
      <trkpt lat="42.880277037620544" lon="-4.806859027594328">
        <ele>1245.04</ele>
        <time>2025-04-29T08:46:34Z</time>
      </trkpt>
      <trkpt lat="42.879626015201211" lon="-4.806691976264119">
        <ele>1240.24</ele>
        <time>2025-04-29T08:46:40Z</time>
      </trkpt>
      <trkpt lat="42.879532976076007" lon="-4.806644031777978">
        <ele>1239.76</ele>
        <time>2025-04-29T08:46:41Z</time>
      </trkpt>
      <trkpt lat="42.87943197414279" lon="-4.806588962674141">
        <ele>1239.28</ele>
        <time>2025-04-29T08:46:42Z</time>
      </trkpt>
      <trkpt lat="42.879338013008237" lon="-4.806519979611039">
        <ele>1239.28</ele>
        <time>2025-04-29T08:46:43Z</time>
      </trkpt>
      <trkpt lat="42.879242040216923" lon="-4.806428030133247">
        <ele>1238.8</ele>
        <time>2025-04-29T08:46:44Z</time>
      </trkpt>
      <trkpt lat="42.879142966121435" lon="-4.806333985179663">
        <ele>1238.8</ele>
        <time>2025-04-29T08:46:45Z</time>
      </trkpt>
      <trkpt lat="42.878727978095412" lon="-4.806010024622083">
        <ele>1238.8</ele>
        <time>2025-04-29T08:46:49Z</time>
      </trkpt>
      <trkpt lat="42.878613984212279" lon="-4.805957973003388">
        <ele>1238.8</ele>
        <time>2025-04-29T08:46:50Z</time>
      </trkpt>
      <trkpt lat="42.878493033349514" lon="-4.805913968011737">
        <ele>1239.28</ele>
        <time>2025-04-29T08:46:51Z</time>
      </trkpt>
      <trkpt lat="42.878268985077739" lon="-4.805883960798383">
        <ele>1240.72</ele>
        <time>2025-04-29T08:46:53Z</time>
      </trkpt>
      <trkpt lat="42.87816203199327" lon="-4.805904999375343">
        <ele>1241.2</ele>
        <time>2025-04-29T08:46:54Z</time>
      </trkpt>
      <trkpt lat="42.878069998696446" lon="-4.805975994095206">
        <ele>1241.2</ele>
        <time>2025-04-29T08:46:55Z</time>
      </trkpt>
      <trkpt lat="42.877976959571242" lon="-4.80604799464345">
        <ele>1241.2</ele>
        <time>2025-04-29T08:46:56Z</time>
      </trkpt>
      <trkpt lat="42.877887021750212" lon="-4.806171962991357">
        <ele>1241.2</ele>
        <time>2025-04-29T08:46:57Z</time>
      </trkpt>
      <trkpt lat="42.877793982625008" lon="-4.806389976292849">
        <ele>1241.6800000000001</ele>
        <time>2025-04-29T08:46:58Z</time>
      </trkpt>
      <trkpt lat="42.877774033695459" lon="-4.806524002924562">
        <ele>1241.6800000000001</ele>
        <time>2025-04-29T08:46:59Z</time>
      </trkpt>
      <trkpt lat="42.877639001235366" lon="-4.807307962328196">
        <ele>1241.2</ele>
        <time>2025-04-29T08:47:03Z</time>
      </trkpt>
      <trkpt lat="42.87734798155725" lon="-4.808843024075031">
        <ele>1240.72</ele>
        <time>2025-04-29T08:47:10Z</time>
      </trkpt>
      <trkpt lat="42.877355022355914" lon="-4.809057014063001">
        <ele>1240.72</ele>
        <time>2025-04-29T08:47:11Z</time>
      </trkpt>
      <trkpt lat="42.877381006255746" lon="-4.80926999822259">
        <ele>1240.72</ele>
        <time>2025-04-29T08:47:12Z</time>
      </trkpt>
      <trkpt lat="42.877521989867091" lon="-4.810368027538061">
        <ele>1240.24</ele>
        <time>2025-04-29T08:47:17Z</time>
      </trkpt>
      <trkpt lat="42.877526013180614" lon="-4.810558967292309">
        <ele>1240.24</ele>
        <time>2025-04-29T08:47:18Z</time>
      </trkpt>
      <trkpt lat="42.877486031502485" lon="-4.810744039714336">
        <ele>1240.24</ele>
        <time>2025-04-29T08:47:19Z</time>
      </trkpt>
      <trkpt lat="42.877421993762255" lon="-4.810900026932359">
        <ele>1240.24</ele>
        <time>2025-04-29T08:47:20Z</time>
      </trkpt>
      <trkpt lat="42.877326020970941" lon="-4.811042016372085">
        <ele>1240.24</ele>
        <time>2025-04-29T08:47:21Z</time>
      </trkpt>
      <trkpt lat="42.877214038744569" lon="-4.811132038012147">
        <ele>1239.76</ele>
        <time>2025-04-29T08:47:22Z</time>
      </trkpt>
      <trkpt lat="42.877061991021037" lon="-4.811177970841527">
        <ele>1239.76</ele>
        <time>2025-04-29T08:47:23Z</time>
      </trkpt>
      <trkpt lat="42.876926036551595" lon="-4.811163973063231">
        <ele>1239.28</ele>
        <time>2025-04-29T08:47:24Z</time>
      </trkpt>
      <trkpt lat="42.876792009919882" lon="-4.811100019142032">
        <ele>1239.28</ele>
        <time>2025-04-29T08:47:25Z</time>
      </trkpt>
      <trkpt lat="42.876657983288169" lon="-4.811003962531686">
        <ele>1238.8</ele>
        <time>2025-04-29T08:47:26Z</time>
      </trkpt>
      <trkpt lat="42.876514988020062" lon="-4.81090203858912">
        <ele>1238.3199999999999</ele>
        <time>2025-04-29T08:47:27Z</time>
      </trkpt>
      <trkpt lat="42.876367969438434" lon="-4.810797013342381">
        <ele>1238.3199999999999</ele>
        <time>2025-04-29T08:47:28Z</time>
      </trkpt>
      <trkpt lat="42.876219023019075" lon="-4.810743033885956">
        <ele>1237.8299999999999</ele>
        <time>2025-04-29T08:47:29Z</time>
      </trkpt>
      <trkpt lat="42.876064963638783" lon="-4.810691988095641">
        <ele>1237.8299999999999</ele>
        <time>2025-04-29T08:47:30Z</time>
      </trkpt>
      <trkpt lat="42.875904031097889" lon="-4.810652006417513">
        <ele>1237.8299999999999</ele>
        <time>2025-04-29T08:47:31Z</time>
      </trkpt>
      <trkpt lat="42.87573304027319" lon="-4.810629962012172">
        <ele>1237.8299999999999</ele>
        <time>2025-04-29T08:47:32Z</time>
      </trkpt>
      <trkpt lat="42.875566994771361" lon="-4.810629040002823">
        <ele>1237.8299999999999</ele>
        <time>2025-04-29T08:47:33Z</time>
      </trkpt>
      <trkpt lat="42.875400027260184" lon="-4.810663992539048">
        <ele>1237.3499999999999</ele>
        <time>2025-04-29T08:47:34Z</time>
      </trkpt>
      <trkpt lat="42.87524001672864" lon="-4.810697017237544">
        <ele>1237.3499999999999</ele>
        <time>2025-04-29T08:47:35Z</time>
      </trkpt>
      <trkpt lat="42.875088974833488" lon="-4.810740016400814">
        <ele>1236.8699999999999</ele>
        <time>2025-04-29T08:47:36Z</time>
      </trkpt>
      <trkpt lat="42.874943967908621" lon="-4.81083900667727">
        <ele>1236.3900000000001</ele>
        <time>2025-04-29T08:47:37Z</time>
      </trkpt>
      <trkpt lat="42.874311972409487" lon="-4.81131199747324">
        <ele>1234.95</ele>
        <time>2025-04-29T08:47:41Z</time>
      </trkpt>
      <trkpt lat="42.873537987470627" lon="-4.812104003503919">
        <ele>1232.55</ele>
        <time>2025-04-29T08:47:46Z</time>
      </trkpt>
      <trkpt lat="42.873352998867631" lon="-4.81223601847887">
        <ele>1232.55</ele>
        <time>2025-04-29T08:47:47Z</time>
      </trkpt>
      <trkpt lat="42.87315702997148" lon="-4.812350012362003">
        <ele>1232.0699999999999</ele>
        <time>2025-04-29T08:47:48Z</time>
      </trkpt>
      <trkpt lat="42.872025975957513" lon="-4.81303196400404">
        <ele>1230.1400000000001</ele>
        <time>2025-04-29T08:47:54Z</time>
      </trkpt>
      <trkpt lat="42.871842999011278" lon="-4.81315802782774">
        <ele>1230.1400000000001</ele>
        <time>2025-04-29T08:47:55Z</time>
      </trkpt>
      <trkpt lat="42.871542004868388" lon="-4.813530016690493">
        <ele>1229.1800000000001</ele>
        <time>2025-04-29T08:47:57Z</time>
      </trkpt>
      <trkpt lat="42.871404038742185" lon="-4.813702013343573">
        <ele>1228.7</ele>
        <time>2025-04-29T08:47:58Z</time>
      </trkpt>
      <trkpt lat="42.871324997395277" lon="-4.813914997503161">
        <ele>1228.22</ele>
        <time>2025-04-29T08:47:59Z</time>
      </trkpt>
      <trkpt lat="42.871264982968569" lon="-4.814151031896472">
        <ele>1227.74</ele>
        <time>2025-04-29T08:48:00Z</time>
      </trkpt>
      <trkpt lat="42.871218966320157" lon="-4.814398968592286">
        <ele>1227.26</ele>
        <time>2025-04-29T08:48:01Z</time>
      </trkpt>
      <trkpt lat="42.871172027662396" lon="-4.814647994935513">
        <ele>1226.3</ele>
        <time>2025-04-29T08:48:02Z</time>
      </trkpt>
      <trkpt lat="42.871082006022334" lon="-4.814876988530159">
        <ele>1225.8199999999999</ele>
        <time>2025-04-29T08:48:03Z</time>
      </trkpt>
      <trkpt lat="42.870983015745878" lon="-4.815099025145173">
        <ele>1225.3399999999999</ele>
        <time>2025-04-29T08:48:04Z</time>
      </trkpt>
      <trkpt lat="42.870889976620674" lon="-4.815309997648001">
        <ele>1225.3399999999999</ele>
        <time>2025-04-29T08:48:05Z</time>
      </trkpt>
      <trkpt lat="42.87081697024405" lon="-4.815494986250997">
        <ele>1224.8599999999999</ele>
        <time>2025-04-29T08:48:06Z</time>
      </trkpt>
      <trkpt lat="42.870804984122515" lon="-4.815693972632289">
        <ele>1224.8599999999999</ele>
        <time>2025-04-29T08:48:07Z</time>
      </trkpt>
      <trkpt lat="42.870839014649391" lon="-4.815890025347471">
        <ele>1224.8599999999999</ele>
        <time>2025-04-29T08:48:08Z</time>
      </trkpt>
      <trkpt lat="42.870887964963913" lon="-4.816097980365157">
        <ele>1224.8599999999999</ele>
        <time>2025-04-29T08:48:09Z</time>
      </trkpt>
      <trkpt lat="42.871520966291428" lon="-4.817615021020174">
        <ele>1227.74</ele>
        <time>2025-04-29T08:48:17Z</time>
      </trkpt>
      <trkpt lat="42.871605036780238" lon="-4.817799003794789">
        <ele>1228.22</ele>
        <time>2025-04-29T08:48:18Z</time>
      </trkpt>
      <trkpt lat="42.871669996529818" lon="-4.818005030974746">
        <ele>1228.22</ele>
        <time>2025-04-29T08:48:19Z</time>
      </trkpt>
      <trkpt lat="42.871703021228313" lon="-4.818233018741012">
        <ele>1228.7</ele>
        <time>2025-04-29T08:48:20Z</time>
      </trkpt>
      <trkpt lat="42.871704027056694" lon="-4.819137006998062">
        <ele>1232.55</ele>
        <time>2025-04-29T08:48:24Z</time>
      </trkpt>
      <trkpt lat="42.871681982651353" lon="-4.819340016692877">
        <ele>1233.51</ele>
        <time>2025-04-29T08:48:25Z</time>
      </trkpt>
      <trkpt lat="42.871591039001942" lon="-4.819511007517576">
        <ele>1234.47</ele>
        <time>2025-04-29T08:48:26Z</time>
      </trkpt>
      <trkpt lat="42.871490959078074" lon="-4.819684009999037">
        <ele>1235.4300000000001</ele>
        <time>2025-04-29T08:48:27Z</time>
      </trkpt>
      <trkpt lat="42.871381994336843" lon="-4.819845026358962">
        <ele>1235.9100000000001</ele>
        <time>2025-04-29T08:48:28Z</time>
      </trkpt>
      <trkpt lat="42.871073037385941" lon="-4.820225983858109">
        <ele>1238.3199999999999</ele>
        <time>2025-04-29T08:48:31Z</time>
      </trkpt>
      <trkpt lat="42.870958959683776" lon="-4.820302007719874">
        <ele>1239.28</ele>
        <time>2025-04-29T08:48:32Z</time>
      </trkpt>
      <trkpt lat="42.870844965800643" lon="-4.820323968306184">
        <ele>1239.76</ele>
        <time>2025-04-29T08:48:33Z</time>
      </trkpt>
      <trkpt lat="42.870718985795975" lon="-4.820295972749591">
        <ele>1240.24</ele>
        <time>2025-04-29T08:48:34Z</time>
      </trkpt>
      <trkpt lat="42.870599962770939" lon="-4.820221038535237">
        <ele>1240.72</ele>
        <time>2025-04-29T08:48:35Z</time>
      </trkpt>
      <trkpt lat="42.87047297693789" lon="-4.820137973874807">
        <ele>1241.2</ele>
        <time>2025-04-29T08:48:36Z</time>
      </trkpt>
      <trkpt lat="42.869962016120553" lon="-4.819865981116891">
        <ele>1242.6400000000001</ele>
        <time>2025-04-29T08:48:40Z</time>
      </trkpt>
      <trkpt lat="42.869830001145601" lon="-4.819878973066807">
        <ele>1243.1199999999999</ele>
        <time>2025-04-29T08:48:41Z</time>
      </trkpt>
      <trkpt lat="42.869707960635424" lon="-4.819944016635418">
        <ele>1243.5999999999999</ele>
        <time>2025-04-29T08:48:42Z</time>
      </trkpt>
      <trkpt lat="42.869582986459136" lon="-4.820009982213378">
        <ele>1244.0799999999999</ele>
        <time>2025-04-29T08:48:43Z</time>
      </trkpt>
      <trkpt lat="42.869453988969326" lon="-4.820077959448099">
        <ele>1244.5599999999999</ele>
        <time>2025-04-29T08:48:44Z</time>
      </trkpt>
      <trkpt lat="42.869099015370011" lon="-4.82029102742672">
        <ele>1245.53</ele>
        <time>2025-04-29T08:48:47Z</time>
      </trkpt>
      <trkpt lat="42.869014022871852" lon="-4.82042396441102">
        <ele>1246.01</ele>
        <time>2025-04-29T08:48:48Z</time>
      </trkpt>
      <trkpt lat="42.868930958211422" lon="-4.820557991042733">
        <ele>1246.49</ele>
        <time>2025-04-29T08:48:49Z</time>
      </trkpt>
      <trkpt lat="42.868892988190055" lon="-4.820736022666097">
        <ele>1246.97</ele>
        <time>2025-04-29T08:48:50Z</time>
      </trkpt>
      <trkpt lat="42.868854012340307" lon="-4.820925034582615">
        <ele>1246.97</ele>
        <time>2025-04-29T08:48:51Z</time>
      </trkpt>
      <trkpt lat="42.868814030662179" lon="-4.821118991822004">
        <ele>1247.9300000000001</ele>
        <time>2025-04-29T08:48:52Z</time>
      </trkpt>
      <trkpt lat="42.868737000972033" lon="-4.821486035361886">
        <ele>1249.3699999999999</ele>
        <time>2025-04-29T08:48:54Z</time>
      </trkpt>
      <trkpt lat="42.868674974888563" lon="-4.821642022579908">
        <ele>1249.8499999999999</ele>
        <time>2025-04-29T08:48:55Z</time>
      </trkpt>
      <trkpt lat="42.86858000792563" lon="-4.821777977049351">
        <ele>1250.3299999999999</ele>
        <time>2025-04-29T08:48:56Z</time>
      </trkpt>
      <trkpt lat="42.868483029305935" lon="-4.821916026994586">
        <ele>1250.8099999999999</ele>
        <time>2025-04-29T08:48:57Z</time>
      </trkpt>
      <trkpt lat="42.868384039029479" lon="-4.822056004777551">
        <ele>1250.8099999999999</ele>
        <time>2025-04-29T08:48:58Z</time>
      </trkpt>
      <trkpt lat="42.868119003251195" lon="-4.822448026388884">
        <ele>1252.25</ele>
        <time>2025-04-29T08:49:01Z</time>
      </trkpt>
      <trkpt lat="42.868053037673235" lon="-4.822565959766507">
        <ele>1253.22</ele>
        <time>2025-04-29T08:49:02Z</time>
      </trkpt>
      <trkpt lat="42.868052031844854" lon="-4.822733011096716">
        <ele>1253.7</ele>
        <time>2025-04-29T08:49:03Z</time>
      </trkpt>
      <trkpt lat="42.868052031844854" lon="-4.822888998314738">
        <ele>1254.1800000000001</ele>
        <time>2025-04-29T08:49:04Z</time>
      </trkpt>
      <trkpt lat="42.868096036836505" lon="-4.82304397970438">
        <ele>1255.1400000000001</ele>
        <time>2025-04-29T08:49:05Z</time>
      </trkpt>
      <trkpt lat="42.868169965222478" lon="-4.823190998286009">
        <ele>1255.1400000000001</ele>
        <time>2025-04-29T08:49:06Z</time>
      </trkpt>
      <trkpt lat="42.868257975205779" lon="-4.823338016867638">
        <ele>1255.1400000000001</ele>
        <time>2025-04-29T08:49:07Z</time>
      </trkpt>
      <trkpt lat="42.868355959653854" lon="-4.823482017964125">
        <ele>1255.1400000000001</ele>
        <time>2025-04-29T08:49:08Z</time>
      </trkpt>
      <trkpt lat="42.868850994855165" lon="-4.824087023735046">
        <ele>1255.1400000000001</ele>
        <time>2025-04-29T08:49:13Z</time>
      </trkpt>
      <trkpt lat="42.868959037587047" lon="-4.824190037325025">
        <ele>1255.1400000000001</ele>
        <time>2025-04-29T08:49:14Z</time>
      </trkpt>
      <trkpt lat="42.869070013985038" lon="-4.824295984581113">
        <ele>1255.1400000000001</ele>
        <time>2025-04-29T08:49:15Z</time>
      </trkpt>
      <trkpt lat="42.86916296929121" lon="-4.824431017041206">
        <ele>1254.6600000000001</ele>
        <time>2025-04-29T08:49:16Z</time>
      </trkpt>
      <trkpt lat="42.869253996759653" lon="-4.824585998430848">
        <ele>1254.1800000000001</ele>
        <time>2025-04-29T08:49:17Z</time>
      </trkpt>
      <trkpt lat="42.869300013408065" lon="-4.824791019782424">
        <ele>1254.1800000000001</ele>
        <time>2025-04-29T08:49:18Z</time>
      </trkpt>
      <trkpt lat="42.869357010349631" lon="-4.82503904029727">
        <ele>1253.22</ele>
        <time>2025-04-29T08:49:19Z</time>
      </trkpt>
      <trkpt lat="42.86971902474761" lon="-4.82673997990787">
        <ele>1248.4100000000001</ele>
        <time>2025-04-29T08:49:25Z</time>
      </trkpt>
      <trkpt lat="42.869706032797694" lon="-4.826967967674136">
        <ele>1247.9300000000001</ele>
        <time>2025-04-29T08:49:26Z</time>
      </trkpt>
      <trkpt lat="42.869682982563972" lon="-4.827138958498836">
        <ele>1246.97</ele>
        <time>2025-04-29T08:49:27Z</time>
      </trkpt>
      <trkpt lat="42.869605030864477" lon="-4.827311038970947">
        <ele>1246.49</ele>
        <time>2025-04-29T08:49:28Z</time>
      </trkpt>
      <trkpt lat="42.869511991739273" lon="-4.827429978176951">
        <ele>1246.01</ele>
        <time>2025-04-29T08:49:29Z</time>
      </trkpt>
      <trkpt lat="42.869391962885857" lon="-4.827508013695478">
        <ele>1245.53</ele>
        <time>2025-04-29T08:49:30Z</time>
      </trkpt>
      <trkpt lat="42.869259025901556" lon="-4.827523017302156">
        <ele>1244.5599999999999</ele>
        <time>2025-04-29T08:49:31Z</time>
      </trkpt>
      <trkpt lat="42.869142014533281" lon="-4.827481023967266">
        <ele>1244.0799999999999</ele>
        <time>2025-04-29T08:49:32Z</time>
      </trkpt>
      <trkpt lat="42.869034977629781" lon="-4.827402988448739">
        <ele>1243.5999999999999</ele>
        <time>2025-04-29T08:49:33Z</time>
      </trkpt>
      <trkpt lat="42.868936993181705" lon="-4.827264016494155">
        <ele>1243.1199999999999</ele>
        <time>2025-04-29T08:49:34Z</time>
      </trkpt>
      <trkpt lat="42.868834985420108" lon="-4.827116997912526">
        <ele>1242.1600000000001</ele>
        <time>2025-04-29T08:49:35Z</time>
      </trkpt>
      <trkpt lat="42.868726020678878" lon="-4.826966039836407">
        <ele>1241.6800000000001</ele>
        <time>2025-04-29T08:49:36Z</time>
      </trkpt>
      <trkpt lat="42.868438018485904" lon="-4.826581981033087">
        <ele>1239.76</ele>
        <time>2025-04-29T08:49:39Z</time>
      </trkpt>
      <trkpt lat="42.868272978812456" lon="-4.826457006856799">
        <ele>1239.28</ele>
        <time>2025-04-29T08:49:40Z</time>
      </trkpt>
      <trkpt lat="42.868141969665885" lon="-4.826359022408724">
        <ele>1238.3199999999999</ele>
        <time>2025-04-29T08:49:41Z</time>
      </trkpt>
      <trkpt lat="42.868016995489597" lon="-4.826314011588693">
        <ele>1237.8299999999999</ele>
        <time>2025-04-29T08:49:42Z</time>
      </trkpt>
      <trkpt lat="42.867880035191774" lon="-4.826296996325254">
        <ele>1236.8699999999999</ele>
        <time>2025-04-29T08:49:43Z</time>
      </trkpt>
      <trkpt lat="42.867757994681597" lon="-4.826281992718577">
        <ele>1236.3900000000001</ele>
        <time>2025-04-29T08:49:44Z</time>
      </trkpt>
      <trkpt lat="42.867751959711313" lon="-4.826280986890197">
        <ele>1236.3900000000001</ele>
        <time>2025-04-29T08:49:45Z</time>
      </trkpt>
      <trkpt lat="42.867597984150052" lon="-4.826391041278839">
        <ele>1235.9100000000001</ele>
        <time>2025-04-29T08:49:46Z</time>
      </trkpt>
      <trkpt lat="42.867457000538707" lon="-4.826491959393024">
        <ele>1235.4300000000001</ele>
        <time>2025-04-29T08:49:47Z</time>
      </trkpt>
      <trkpt lat="42.86731299944222" lon="-4.826593967154622">
        <ele>1235.4300000000001</ele>
        <time>2025-04-29T08:49:48Z</time>
      </trkpt>
      <trkpt lat="42.867107978090644" lon="-4.8267160076648">
        <ele>1234.95</ele>
        <time>2025-04-29T08:49:49Z</time>
      </trkpt>
      <trkpt lat="42.866874961182475" lon="-4.826664961874485">
        <ele>1234.47</ele>
        <time>2025-04-29T08:49:50Z</time>
      </trkpt>
      <trkpt lat="42.866743030026555" lon="-4.826593967154622">
        <ele>1233.03</ele>
        <time>2025-04-29T08:49:51Z</time>
      </trkpt>
      <trkpt lat="42.86658201366663" lon="-4.826478967443109">
        <ele>1231.5899999999999</ele>
        <time>2025-04-29T08:49:52Z</time>
      </trkpt>
      <trkpt lat="42.866436000913382" lon="-4.826356004923582">
        <ele>1230.1400000000001</ele>
        <time>2025-04-29T08:49:53Z</time>
      </trkpt>
      <trkpt lat="42.866288982331753" lon="-4.826232036575675">
        <ele>1229.1800000000001</ele>
        <time>2025-04-29T08:49:54Z</time>
      </trkpt>
      <trkpt lat="42.865695040673018" lon="-4.825745970010757">
        <ele>1227.26</ele>
        <time>2025-04-29T08:49:58Z</time>
      </trkpt>
      <trkpt lat="42.865560008212924" lon="-4.825701965019107">
        <ele>1226.78</ele>
        <time>2025-04-29T08:49:59Z</time>
      </trkpt>
      <trkpt lat="42.865412989631295" lon="-4.825701965019107">
        <ele>1226.78</ele>
        <time>2025-04-29T08:50:00Z</time>
      </trkpt>
      <trkpt lat="42.865297989919782" lon="-4.825787963345647">
        <ele>1226.78</ele>
        <time>2025-04-29T08:50:01Z</time>
      </trkpt>
      <trkpt lat="42.865192964673042" lon="-4.825927019119263">
        <ele>1226.3</ele>
        <time>2025-04-29T08:50:02Z</time>
      </trkpt>
      <trkpt lat="42.865109983831644" lon="-4.826099015772343">
        <ele>1226.3</ele>
        <time>2025-04-29T08:50:03Z</time>
      </trkpt>
      <trkpt lat="42.865068996325135" lon="-4.826313005760312">
        <ele>1225.8199999999999</ele>
        <time>2025-04-29T08:50:04Z</time>
      </trkpt>
      <trkpt lat="42.865022979676723" lon="-4.826549962162972">
        <ele>1225.8199999999999</ele>
        <time>2025-04-29T08:50:05Z</time>
      </trkpt>
      <trkpt lat="42.864800021052361" lon="-4.827535003423691">
        <ele>1222.9300000000001</ele>
        <time>2025-04-29T08:50:09Z</time>
      </trkpt>
      <trkpt lat="42.864722991362214" lon="-4.827759973704815">
        <ele>1221.97</ele>
        <time>2025-04-29T08:50:10Z</time>
      </trkpt>
      <trkpt lat="42.864368017762899" lon="-4.828620962798595">
        <ele>1218.1300000000001</ele>
        <time>2025-04-29T08:50:14Z</time>
      </trkpt>
      <trkpt lat="42.864246983081102" lon="-4.828819027170539">
        <ele>1217.1700000000001</ele>
        <time>2025-04-29T08:50:15Z</time>
      </trkpt>
      <trkpt lat="42.863279962912202" lon="-4.830531030893326">
        <ele>1210.4400000000001</ele>
        <time>2025-04-29T08:50:23Z</time>
      </trkpt>
      <trkpt lat="42.863180972635746" lon="-4.830658016726375">
        <ele>1209.48</ele>
        <time>2025-04-29T08:50:24Z</time>
      </trkpt>
      <trkpt lat="42.863073013722897" lon="-4.830711996182799">
        <ele>1208.51</ele>
        <time>2025-04-29T08:50:25Z</time>
      </trkpt>
      <trkpt lat="42.863008975982666" lon="-4.830744015052915">
        <ele>1208.51</ele>
        <time>2025-04-29T08:50:26Z</time>
      </trkpt>
      <trkpt lat="42.862897999584675" lon="-4.830710990354419">
        <ele>1208.03</ele>
        <time>2025-04-29T08:50:27Z</time>
      </trkpt>
      <trkpt lat="42.862794985994697" lon="-4.830679977312684">
        <ele>1207.55</ele>
        <time>2025-04-29T08:50:28Z</time>
      </trkpt>
      <trkpt lat="42.86271502263844" lon="-4.830620968714356">
        <ele>1207.0699999999999</ele>
        <time>2025-04-29T08:50:29Z</time>
      </trkpt>
      <trkpt lat="42.862613014876842" lon="-4.830545028671622">
        <ele>1207.55</ele>
        <time>2025-04-29T08:50:30Z</time>
      </trkpt>
      <trkpt lat="42.86179200746119" lon="-4.829933987930417">
        <ele>1204.1900000000001</ele>
        <time>2025-04-29T08:50:36Z</time>
      </trkpt>
      <trkpt lat="42.861020034179091" lon="-4.829450016841292">
        <ele>1202.75</ele>
        <time>2025-04-29T08:50:41Z</time>
      </trkpt>
      <trkpt lat="42.860885001718998" lon="-4.82946895994246">
        <ele>1203.23</ele>
        <time>2025-04-29T08:50:42Z</time>
      </trkpt>
      <trkpt lat="42.860745023936033" lon="-4.82951195910573">
        <ele>1203.71</ele>
        <time>2025-04-29T08:50:43Z</time>
      </trkpt>
      <trkpt lat="42.859908007085323" lon="-4.829885959625244">
        <ele>1207.55</ele>
        <time>2025-04-29T08:50:49Z</time>
      </trkpt>
      <trkpt lat="42.859177021309733" lon="-4.830489959567785">
        <ele>1208.03</ele>
        <time>2025-04-29T08:50:54Z</time>
      </trkpt>
      <trkpt lat="42.859073001891375" lon="-4.830678971484304">
        <ele>1208.03</ele>
        <time>2025-04-29T08:50:55Z</time>
      </trkpt>
      <trkpt lat="42.858672011643648" lon="-4.831354971975088">
        <ele>1208.03</ele>
        <time>2025-04-29T08:50:59Z</time>
      </trkpt>
      <trkpt lat="42.858578972518444" lon="-4.831423033028841">
        <ele>1208.03</ele>
        <time>2025-04-29T08:51:00Z</time>
      </trkpt>
      <trkpt lat="42.858473025262356" lon="-4.831449016928673">
        <ele>1207.55</ele>
        <time>2025-04-29T08:51:01Z</time>
      </trkpt>
      <trkpt lat="42.858375040814281" lon="-4.831473995000124">
        <ele>1207.55</ele>
        <time>2025-04-29T08:51:02Z</time>
      </trkpt>
      <trkpt lat="42.858276972547174" lon="-4.831393025815487">
        <ele>1207.0699999999999</ele>
        <time>2025-04-29T08:51:03Z</time>
      </trkpt>
      <trkpt lat="42.858173958957195" lon="-4.831307027488947">
        <ele>1206.5899999999999</ele>
        <time>2025-04-29T08:51:04Z</time>
      </trkpt>
      <trkpt lat="42.858078991994262" lon="-4.831227986142039">
        <ele>1206.5899999999999</ele>
        <time>2025-04-29T08:51:05Z</time>
      </trkpt>
      <trkpt lat="42.857991987839341" lon="-4.831154979765415">
        <ele>1206.5899999999999</ele>
        <time>2025-04-29T08:51:06Z</time>
      </trkpt>
      <trkpt lat="42.857914958149195" lon="-4.831090020015836">
        <ele>1206.1099999999999</ele>
        <time>2025-04-29T08:51:07Z</time>
      </trkpt>
      <trkpt lat="42.857820997014642" lon="-4.831050960347056">
        <ele>1206.1099999999999</ele>
        <time>2025-04-29T08:51:08Z</time>
      </trkpt>
      <trkpt lat="42.857718989253044" lon="-4.831065963953733">
        <ele>1206.1099999999999</ele>
        <time>2025-04-29T08:51:09Z</time>
      </trkpt>
      <trkpt lat="42.857483038678765" lon="-4.83116596005857">
        <ele>1205.6300000000001</ele>
        <time>2025-04-29T08:51:11Z</time>
      </trkpt>
      <trkpt lat="42.857355969026685" lon="-4.831268973648548">
        <ele>1205.6300000000001</ele>
        <time>2025-04-29T08:51:12Z</time>
      </trkpt>
      <trkpt lat="42.856932012364268" lon="-4.831611039116979">
        <ele>1205.1500000000001</ele>
        <time>2025-04-29T08:51:16Z</time>
      </trkpt>
      <trkpt lat="42.85680796019733" lon="-4.831844978034496">
        <ele>1205.1500000000001</ele>
        <time>2025-04-29T08:51:18Z</time>
      </trkpt>
      <trkpt lat="42.856744006276131" lon="-4.831975987181068">
        <ele>1204.6700000000001</ele>
        <time>2025-04-29T08:51:19Z</time>
      </trkpt>
      <trkpt lat="42.856620037928224" lon="-4.832231970503926">
        <ele>1203.71</ele>
        <time>2025-04-29T08:51:21Z</time>
      </trkpt>
      <trkpt lat="42.856566980481148" lon="-4.832339007407427">
        <ele>1203.23</ele>
        <time>2025-04-29T08:51:22Z</time>
      </trkpt>
      <trkpt lat="42.856493974104524" lon="-4.832431962713599">
        <ele>1202.75</ele>
        <time>2025-04-29T08:51:23Z</time>
      </trkpt>
      <trkpt lat="42.856401018798351" lon="-4.832469010725617">
        <ele>1202.27</ele>
        <time>2025-04-29T08:51:24Z</time>
      </trkpt>
      <trkpt lat="42.856290964409709" lon="-4.832503041252494">
        <ele>1201.79</ele>
        <time>2025-04-29T08:51:25Z</time>
      </trkpt>
      <trkpt lat="42.856178982183337" lon="-4.83249700628221">
        <ele>1201.3</ele>
        <time>2025-04-29T08:51:26Z</time>
      </trkpt>
      <trkpt lat="42.856065994128585" lon="-4.832491977140307">
        <ele>1201.3</ele>
        <time>2025-04-29T08:51:27Z</time>
      </trkpt>
      <trkpt lat="42.855953006073833" lon="-4.832487031817436">
        <ele>1200.8199999999999</ele>
        <time>2025-04-29T08:51:28Z</time>
      </trkpt>
      <trkpt lat="42.855838006362319" lon="-4.832493988797069">
        <ele>1200.3399999999999</ele>
        <time>2025-04-29T08:51:29Z</time>
      </trkpt>
      <trkpt lat="42.855725018307567" lon="-4.832544028759003">
        <ele>1199.3800000000001</ele>
        <time>2025-04-29T08:51:30Z</time>
      </trkpt>
      <trkpt lat="42.855619993060827" lon="-4.832618962973356">
        <ele>1198.9000000000001</ele>
        <time>2025-04-29T08:51:31Z</time>
      </trkpt>
      <trkpt lat="42.855188995599747" lon="-4.833049960434437">
        <ele>1195.54</ele>
        <time>2025-04-29T08:51:34Z</time>
      </trkpt>
      <trkpt lat="42.855011969804764" lon="-4.83322698622942">
        <ele>1194.5799999999999</ele>
        <time>2025-04-29T08:51:35Z</time>
      </trkpt>
      <trkpt lat="42.854608967900276" lon="-4.833728978410363">
        <ele>1191.6900000000001</ele>
        <time>2025-04-29T08:51:38Z</time>
      </trkpt>
      <trkpt lat="42.854539984837174" lon="-4.833909021690488">
        <ele>1190.25</ele>
        <time>2025-04-29T08:51:39Z</time>
      </trkpt>
      <trkpt lat="42.854511989280581" lon="-4.834296014159918">
        <ele>1187.8499999999999</ele>
        <time>2025-04-29T08:51:41Z</time>
      </trkpt>
      <trkpt lat="42.854511989280581" lon="-4.834498018026352">
        <ele>1186.4000000000001</ele>
        <time>2025-04-29T08:51:42Z</time>
      </trkpt>
      <trkpt lat="42.854511989280581" lon="-4.834705973044038">
        <ele>1184.96</ele>
        <time>2025-04-29T08:51:43Z</time>
      </trkpt>
      <trkpt lat="42.854481982067227" lon="-4.835552964359522">
        <ele>1179.1900000000001</ele>
        <time>2025-04-29T08:51:47Z</time>
      </trkpt>
      <trkpt lat="42.854411993175745" lon="-4.835749017074704">
        <ele>1177.27</ele>
        <time>2025-04-29T08:51:48Z</time>
      </trkpt>
      <trkpt lat="42.854319959878922" lon="-4.835930988192558">
        <ele>1175.8299999999999</ele>
        <time>2025-04-29T08:51:49Z</time>
      </trkpt>
      <trkpt lat="42.854006979614496" lon="-4.836546974256635">
        <ele>1171.02</ele>
        <time>2025-04-29T08:51:52Z</time>
      </trkpt>
      <trkpt lat="42.853894997388124" lon="-4.836766999214888">
        <ele>1169.0999999999999</ele>
        <time>2025-04-29T08:51:53Z</time>
      </trkpt>
      <trkpt lat="42.853789972141385" lon="-4.837001021951437">
        <ele>1167.1800000000001</ele>
        <time>2025-04-29T08:51:54Z</time>
      </trkpt>
      <trkpt lat="42.853723000735044" lon="-4.837263962253928">
        <ele>1165.26</ele>
        <time>2025-04-29T08:51:55Z</time>
      </trkpt>
      <trkpt lat="42.853657035157084" lon="-4.837519023567438">
        <ele>1163.8099999999999</ele>
        <time>2025-04-29T08:51:56Z</time>
      </trkpt>
      <trkpt lat="42.853595009073615" lon="-4.837762014940381">
        <ele>1162.3699999999999</ele>
        <time>2025-04-29T08:51:57Z</time>
      </trkpt>
      <trkpt lat="42.853508004918694" lon="-4.837967958301306">
        <ele>1160.45</ele>
        <time>2025-04-29T08:51:58Z</time>
      </trkpt>
      <trkpt lat="42.853439021855593" lon="-4.838083041831851">
        <ele>1158.53</ele>
        <time>2025-04-29T08:51:59Z</time>
      </trkpt>
      <trkpt lat="42.853313963860273" lon="-4.838166022673249">
        <ele>1156.5999999999999</ele>
        <time>2025-04-29T08:52:00Z</time>
      </trkpt>
      <trkpt lat="42.853210028260946" lon="-4.838215978816152">
        <ele>1155.1600000000001</ele>
        <time>2025-04-29T08:52:01Z</time>
      </trkpt>
      <trkpt lat="42.85306703299284" lon="-4.83823399990797">
        <ele>1153.72</ele>
        <time>2025-04-29T08:52:02Z</time>
      </trkpt>
      <trkpt lat="42.852906016632915" lon="-4.83825403265655">
        <ele>1151.8</ele>
        <time>2025-04-29T08:52:03Z</time>
      </trkpt>
      <trkpt lat="42.851686030626297" lon="-4.838368026539683">
        <ele>1141.7</ele>
        <time>2025-04-29T08:52:09Z</time>
      </trkpt>
      <trkpt lat="42.850607028231025" lon="-4.838409014046192">
        <ele>1134.97</ele>
        <time>2025-04-29T08:52:14Z</time>
      </trkpt>
      <trkpt lat="42.850422961637378" lon="-4.838364003226161">
        <ele>1134.01</ele>
        <time>2025-04-29T08:52:15Z</time>
      </trkpt>
      <trkpt lat="42.850245013833046" lon="-4.838283034041524">
        <ele>1133.05</ele>
        <time>2025-04-29T08:52:16Z</time>
      </trkpt>
      <trkpt lat="42.850077962502837" lon="-4.838153030723333">
        <ele>1132.5699999999999</ele>
        <time>2025-04-29T08:52:17Z</time>
      </trkpt>
      <trkpt lat="42.84990998916328" lon="-4.838022021576762">
        <ele>1131.6099999999999</ele>
        <time>2025-04-29T08:52:18Z</time>
      </trkpt>
      <trkpt lat="42.848480958491564" lon="-4.836891973391175">
        <ele>1127.76</ele>
        <time>2025-04-29T08:52:27Z</time>
      </trkpt>
      <trkpt lat="42.84832295961678" lon="-4.836806980893016">
        <ele>1128.24</ele>
        <time>2025-04-29T08:52:28Z</time>
      </trkpt>
      <trkpt lat="42.848154986277223" lon="-4.836776973679662">
        <ele>1128.24</ele>
        <time>2025-04-29T08:52:29Z</time>
      </trkpt>
      <trkpt lat="42.847991958260536" lon="-4.836838999763131">
        <ele>1128.73</ele>
        <time>2025-04-29T08:52:30Z</time>
      </trkpt>
      <trkpt lat="42.847808981314301" lon="-4.836920974776149">
        <ele>1129.21</ele>
        <time>2025-04-29T08:52:31Z</time>
      </trkpt>
      <trkpt lat="42.847617035731673" lon="-4.837005967274308">
        <ele>1130.1700000000001</ele>
        <time>2025-04-29T08:52:32Z</time>
      </trkpt>
      <trkpt lat="42.845903020352125" lon="-4.837786993011832">
        <ele>1139.78</ele>
        <time>2025-04-29T08:52:40Z</time>
      </trkpt>
      <trkpt lat="42.843634961172938" lon="-4.838729035109282">
        <ele>1144.5899999999999</ele>
        <time>2025-04-29T08:52:49Z</time>
      </trkpt>
      <trkpt lat="42.842611027881503" lon="-4.839011002331972">
        <ele>1144.5899999999999</ele>
        <time>2025-04-29T08:52:53Z</time>
      </trkpt>
      <trkpt lat="42.842364013195038" lon="-4.839127007871866">
        <ele>1144.1099999999999</ele>
        <time>2025-04-29T08:52:54Z</time>
      </trkpt>
      <trkpt lat="42.84213200211525" lon="-4.839293975383043">
        <ele>1143.6300000000001</ele>
        <time>2025-04-29T08:52:55Z</time>
      </trkpt>
      <trkpt lat="42.840059995651245" lon="-4.840777991339564">
        <ele>1141.22</ele>
        <time>2025-04-29T08:53:04Z</time>
      </trkpt>
      <trkpt lat="42.839851034805179" lon="-4.840904977172613">
        <ele>1140.74</ele>
        <time>2025-04-29T08:53:05Z</time>
      </trkpt>
      <trkpt lat="42.839611982926726" lon="-4.840959962457418">
        <ele>1139.78</ele>
        <time>2025-04-29T08:53:06Z</time>
      </trkpt>
      <trkpt lat="42.837481973692775" lon="-4.841452986001968">
        <ele>1135.9400000000001</ele>
        <time>2025-04-29T08:53:15Z</time>
      </trkpt>
      <trkpt lat="42.837292961776257" lon="-4.841491039842367">
        <ele>1135.45</ele>
        <time>2025-04-29T08:53:16Z</time>
      </trkpt>
      <trkpt lat="42.83712700009346" lon="-4.841429013758898">
        <ele>1134.97</ele>
        <time>2025-04-29T08:53:17Z</time>
      </trkpt>
      <trkpt lat="42.836960032582283" lon="-4.841365981847048">
        <ele>1134.01</ele>
        <time>2025-04-29T08:53:18Z</time>
      </trkpt>
      <trkpt lat="42.836812008172274" lon="-4.841236984357238">
        <ele>1133.53</ele>
        <time>2025-04-29T08:53:19Z</time>
      </trkpt>
      <trkpt lat="42.836663983762264" lon="-4.841106981039047">
        <ele>1133.53</ele>
        <time>2025-04-29T08:53:20Z</time>
      </trkpt>
      <trkpt lat="42.836616961285472" lon="-4.841064987704158">
        <ele>1133.05</ele>
        <time>2025-04-29T08:53:21Z</time>
      </trkpt>
      <trkpt lat="42.836401965469122" lon="-4.841022994369268">
        <ele>1132.5699999999999</ele>
        <time>2025-04-29T08:53:22Z</time>
      </trkpt>
      <trkpt lat="42.836268022656441" lon="-4.841050989925861">
        <ele>1132.0899999999999</ele>
        <time>2025-04-29T08:53:23Z</time>
      </trkpt>
      <trkpt lat="42.836084039881825" lon="-4.84109097160399">
        <ele>1131.6099999999999</ele>
        <time>2025-04-29T08:53:24Z</time>
      </trkpt>
      <trkpt lat="42.835888992995024" lon="-4.841131959110498">
        <ele>1131.1300000000001</ele>
        <time>2025-04-29T08:53:25Z</time>
      </trkpt>
      <trkpt lat="42.835748009383678" lon="-4.841187028214335">
        <ele>1130.6500000000001</ele>
        <time>2025-04-29T08:53:26Z</time>
      </trkpt>
      <trkpt lat="42.835577018558979" lon="-4.84130303375423">
        <ele>1130.1700000000001</ele>
        <time>2025-04-29T08:53:27Z</time>
      </trkpt>
      <trkpt lat="42.835405021905899" lon="-4.841419961303473">
        <ele>1129.21</ele>
        <time>2025-04-29T08:53:28Z</time>
      </trkpt>
      <trkpt lat="42.835200000554323" lon="-4.841559017077088">
        <ele>1128.73</ele>
        <time>2025-04-29T08:53:29Z</time>
      </trkpt>
      <trkpt lat="42.835053987801075" lon="-4.84160402789712">
        <ele>1127.76</ele>
        <time>2025-04-29T08:53:30Z</time>
      </trkpt>
      <trkpt lat="42.834831029176712" lon="-4.841615008190274">
        <ele>1127.28</ele>
        <time>2025-04-29T08:53:31Z</time>
      </trkpt>
      <trkpt lat="42.834668001160026" lon="-4.841560022905469">
        <ele>1126.8</ele>
        <time>2025-04-29T08:53:32Z</time>
      </trkpt>
      <trkpt lat="42.834479995071888" lon="-4.841424990445375">
        <ele>1126.3199999999999</ele>
        <time>2025-04-29T08:53:33Z</time>
      </trkpt>
      <trkpt lat="42.834338005632162" lon="-4.841291969642043">
        <ele>1126.3199999999999</ele>
        <time>2025-04-29T08:53:34Z</time>
      </trkpt>
      <trkpt lat="42.83420498482883" lon="-4.841187028214335">
        <ele>1126.3199999999999</ele>
        <time>2025-04-29T08:53:35Z</time>
      </trkpt>
      <trkpt lat="42.834024019539356" lon="-4.841146040707827">
        <ele>1126.3199999999999</ele>
        <time>2025-04-29T08:53:36Z</time>
      </trkpt>
      <trkpt lat="42.833846993744373" lon="-4.841130031272769">
        <ele>1125.8399999999999</ele>
        <time>2025-04-29T08:53:37Z</time>
      </trkpt>
      <trkpt lat="42.833649013191462" lon="-4.841145034879446">
        <ele>1125.8399999999999</ele>
        <time>2025-04-29T08:53:38Z</time>
      </trkpt>
      <trkpt lat="42.833457989618182" lon="-4.841249976307154">
        <ele>1125.8399999999999</ele>
        <time>2025-04-29T08:53:39Z</time>
      </trkpt>
      <trkpt lat="42.833265960216522" lon="-4.841355001553893">
        <ele>1125.8399999999999</ele>
        <time>2025-04-29T08:53:40Z</time>
      </trkpt>
      <trkpt lat="42.832488035783172" lon="-4.841644009575248">
        <ele>1125.8399999999999</ele>
        <time>2025-04-29T08:53:44Z</time>
      </trkpt>
      <trkpt lat="42.832322996109724" lon="-4.841665970161557">
        <ele>1125.8399999999999</ele>
        <time>2025-04-29T08:53:45Z</time>
      </trkpt>
      <trkpt lat="42.831827960908413" lon="-4.841702012345195">
        <ele>1124.8800000000001</ele>
        <time>2025-04-29T08:53:49Z</time>
      </trkpt>
      <trkpt lat="42.831735005602241" lon="-4.841707041487098">
        <ele>1124.4000000000001</ele>
        <time>2025-04-29T08:53:50Z</time>
      </trkpt>
      <trkpt lat="42.831620005890727" lon="-4.841763032600284">
        <ele>1123.9200000000001</ele>
        <time>2025-04-29T08:53:51Z</time>
      </trkpt>
      <trkpt lat="42.831536019220948" lon="-4.841836038976908">
        <ele>1123.4400000000001</ele>
        <time>2025-04-29T08:53:52Z</time>
      </trkpt>
      <trkpt lat="42.831452032551169" lon="-4.841922037303448">
        <ele>1122.96</ele>
        <time>2025-04-29T08:53:53Z</time>
      </trkpt>
      <trkpt lat="42.831370979547501" lon="-4.842008035629988">
        <ele>1122.96</ele>
        <time>2025-04-29T08:53:54Z</time>
      </trkpt>
      <trkpt lat="42.830624990165234" lon="-4.842640031129122">
        <ele>1122</ele>
        <time>2025-04-29T08:54:03Z</time>
      </trkpt>
      <trkpt lat="42.829645983874798" lon="-4.842941025272012">
        <ele>1123.9200000000001</ele>
        <time>2025-04-29T08:54:13Z</time>
      </trkpt>
      <trkpt lat="42.829451020807028" lon="-4.842984024435282">
        <ele>1123.9200000000001</ele>
        <time>2025-04-29T08:54:15Z</time>
      </trkpt>
      <trkpt lat="42.829355970025063" lon="-4.843004979193211">
        <ele>1123.9200000000001</ele>
        <time>2025-04-29T08:54:16Z</time>
      </trkpt>
      <trkpt lat="42.829257985576987" lon="-4.843058036640286">
        <ele>1123.9200000000001</ele>
        <time>2025-04-29T08:54:17Z</time>
      </trkpt>
      <trkpt lat="42.829175004735589" lon="-4.843136994168162">
        <ele>1124.4000000000001</ele>
        <time>2025-04-29T08:54:18Z</time>
      </trkpt>
      <trkpt lat="42.829093029722571" lon="-4.843215029686689">
        <ele>1123.9200000000001</ele>
        <time>2025-04-29T08:54:19Z</time>
      </trkpt>
      <trkpt lat="42.828936958685517" lon="-4.843363976106048">
        <ele>1123.9200000000001</ele>
        <time>2025-04-29T08:54:21Z</time>
      </trkpt>
      <trkpt lat="42.828858001157641" lon="-4.843439999967814">
        <ele>1123.9200000000001</ele>
        <time>2025-04-29T08:54:22Z</time>
      </trkpt>
      <trkpt lat="42.828775020316243" lon="-4.843473024666309">
        <ele>1123.9200000000001</ele>
        <time>2025-04-29T08:54:23Z</time>
      </trkpt>
      <trkpt lat="42.828678963705897" lon="-4.843479981645942">
        <ele>1123.9200000000001</ele>
        <time>2025-04-29T08:54:24Z</time>
      </trkpt>
      <trkpt lat="42.828580979257822" lon="-4.843487022444606">
        <ele>1123.9200000000001</ele>
        <time>2025-04-29T08:54:25Z</time>
      </trkpt>
      <trkpt lat="42.828184012323618" lon="-4.843553993850946">
        <ele>1123.4400000000001</ele>
        <time>2025-04-29T08:54:29Z</time>
      </trkpt>
      <trkpt lat="42.82799600623548" lon="-4.843615014106035">
        <ele>1123.4400000000001</ele>
        <time>2025-04-29T08:54:31Z</time>
      </trkpt>
      <trkpt lat="42.827945966273546" lon="-4.843704029917717">
        <ele>1123.4400000000001</ele>
        <time>2025-04-29T08:54:32Z</time>
      </trkpt>
      <trkpt lat="42.827901961281896" lon="-4.843789022415876">
        <ele>1123.4400000000001</ele>
        <time>2025-04-29T08:54:33Z</time>
      </trkpt>
      <trkpt lat="42.827855022624135" lon="-4.843878960236907">
        <ele>1123.4400000000001</ele>
        <time>2025-04-29T08:54:34Z</time>
      </trkpt>
      <trkpt lat="42.827806994318962" lon="-4.843970993533731">
        <ele>1123.4400000000001</ele>
        <time>2025-04-29T08:54:35Z</time>
      </trkpt>
      <trkpt lat="42.827640026807785" lon="-4.844352034851909">
        <ele>1122.96</ele>
        <time>2025-04-29T08:54:39Z</time>
      </trkpt>
      <trkpt lat="42.827500971034169" lon="-4.844713965430856">
        <ele>1122.96</ele>
        <time>2025-04-29T08:54:43Z</time>
      </trkpt>
      <trkpt lat="42.827460989356041" lon="-4.844801975414157">
        <ele>1122.96</ele>
        <time>2025-04-29T08:54:44Z</time>
      </trkpt>
      <trkpt lat="42.82722202129662" lon="-4.845305979251862">
        <ele>1122</ele>
        <time>2025-04-29T08:54:50Z</time>
      </trkpt>
      <trkpt lat="42.827187990769744" lon="-4.845384014770389">
        <ele>1121.52</ele>
        <time>2025-04-29T08:54:51Z</time>
      </trkpt>
      <trkpt lat="42.827119007706642" lon="-4.845546036958695">
        <ele>1121.03</ele>
        <time>2025-04-29T08:54:53Z</time>
      </trkpt>
      <trkpt lat="42.827040972188115" lon="-4.845704035833478">
        <ele>1120.55</ele>
        <time>2025-04-29T08:54:55Z</time>
      </trkpt>
      <trkpt lat="42.826998978853226" lon="-4.845780981704593">
        <ele>1120.0699999999999</ele>
        <time>2025-04-29T08:54:56Z</time>
      </trkpt>
      <trkpt lat="42.826952040195465" lon="-4.845869997516275">
        <ele>1119.5899999999999</ele>
        <time>2025-04-29T08:55:01Z</time>
      </trkpt>
      <trkpt lat="42.826944999396801" lon="-4.84588298946619">
        <ele>1119.5899999999999</ele>
        <time>2025-04-29T08:55:12Z</time>
      </trkpt>
      <trkpt lat="42.826929995790124" lon="-4.845910985022783">
        <ele>1118.6300000000001</ele>
        <time>2025-04-29T08:55:13Z</time>
      </trkpt>
      <trkpt lat="42.826690021902323" lon="-4.846369978040457">
        <ele>1117.6700000000001</ele>
        <time>2025-04-29T08:55:20Z</time>
      </trkpt>
      <trkpt lat="42.826650962233543" lon="-4.846448013558984">
        <ele>1117.6700000000001</ele>
        <time>2025-04-29T08:55:21Z</time>
      </trkpt>
      <trkpt lat="42.826611986383796" lon="-4.84652697108686">
        <ele>1117.1900000000001</ele>
        <time>2025-04-29T08:55:22Z</time>
      </trkpt>
      <trkpt lat="42.826241003349423" lon="-4.847237002104521">
        <ele>1116.71</ele>
        <time>2025-04-29T08:55:31Z</time>
      </trkpt>
      <trkpt lat="42.826204961165786" lon="-4.847304979339242">
        <ele>1117.1900000000001</ele>
        <time>2025-04-29T08:55:32Z</time>
      </trkpt>
      <trkpt lat="42.82616900280118" lon="-4.847373040392995">
        <ele>1118.1500000000001</ele>
        <time>2025-04-29T08:55:33Z</time>
      </trkpt>
      <trkpt lat="42.826049979776144" lon="-4.847512012347579">
        <ele>1118.6300000000001</ele>
        <time>2025-04-29T08:55:36Z</time>
      </trkpt>
      <trkpt lat="42.826004968956113" lon="-4.847607985138893">
        <ele>1118.1500000000001</ele>
        <time>2025-04-29T08:55:37Z</time>
      </trkpt>
      <trkpt lat="42.826021984219551" lon="-4.847674034535885">
        <ele>1118.6300000000001</ele>
        <time>2025-04-29T08:55:38Z</time>
      </trkpt>
      <trkpt lat="42.82604000531137" lon="-4.847747040912509">
        <ele>1118.6300000000001</ele>
        <time>2025-04-29T08:55:39Z</time>
      </trkpt>
      <trkpt lat="42.826060960069299" lon="-4.847821975126863">
        <ele>1119.1099999999999</ele>
        <time>2025-04-29T08:55:40Z</time>
      </trkpt>
      <trkpt lat="42.826242009177804" lon="-4.848490012809634">
        <ele>1120.0699999999999</ele>
        <time>2025-04-29T08:55:48Z</time>
      </trkpt>
      <trkpt lat="42.826280985027552" lon="-4.848576011136174">
        <ele>1120.0699999999999</ele>
        <time>2025-04-29T08:55:49Z</time>
      </trkpt>
      <trkpt lat="42.826352985575795" lon="-4.848633008077741">
        <ele>1119.5899999999999</ele>
        <time>2025-04-29T08:55:50Z</time>
      </trkpt>
      <trkpt lat="42.826434960588813" lon="-4.848682964220643">
        <ele>1119.5899999999999</ele>
        <time>2025-04-29T08:55:51Z</time>
      </trkpt>
      <trkpt lat="42.826520958915353" lon="-4.848736021667719">
        <ele>1119.5899999999999</ele>
        <time>2025-04-29T08:55:52Z</time>
      </trkpt>
      <trkpt lat="42.826615003868937" lon="-4.848785977810621">
        <ele>1119.5899999999999</ele>
        <time>2025-04-29T08:55:53Z</time>
      </trkpt>
      <trkpt lat="42.827829038724303" lon="-4.849185040220618">
        <ele>1118.6300000000001</ele>
        <time>2025-04-29T08:56:04Z</time>
      </trkpt>
      <trkpt lat="42.828766973689198" lon="-4.849437000229955">
        <ele>1118.6300000000001</ele>
        <time>2025-04-29T08:56:12Z</time>
      </trkpt>
      <trkpt lat="42.82887602224946" lon="-4.849509000778198">
        <ele>1118.6300000000001</ele>
        <time>2025-04-29T08:56:13Z</time>
      </trkpt>
      <trkpt lat="42.828981969505548" lon="-4.849579995498061">
        <ele>1118.6300000000001</ele>
        <time>2025-04-29T08:56:14Z</time>
      </trkpt>
      <trkpt lat="42.829074002802372" lon="-4.849676974117756">
        <ele>1119.1099999999999</ele>
        <time>2025-04-29T08:56:15Z</time>
      </trkpt>
      <trkpt lat="42.829161006957293" lon="-4.84979297965765">
        <ele>1119.5899999999999</ele>
        <time>2025-04-29T08:56:16Z</time>
      </trkpt>
      <trkpt lat="42.829237030819058" lon="-4.849917031824589">
        <ele>1120.0699999999999</ele>
        <time>2025-04-29T08:56:17Z</time>
      </trkpt>
      <trkpt lat="42.829298973083496" lon="-4.850057009607554">
        <ele>1120.55</ele>
        <time>2025-04-29T08:56:18Z</time>
      </trkpt>
      <trkpt lat="42.829363010823727" lon="-4.850203022360802">
        <ele>1121.52</ele>
        <time>2025-04-29T08:56:19Z</time>
      </trkpt>
      <trkpt lat="42.829708009958267" lon="-4.850968960672617">
        <ele>1123.4400000000001</ele>
        <time>2025-04-29T08:56:24Z</time>
      </trkpt>
      <trkpt lat="42.829789984971285" lon="-4.851086977869272">
        <ele>1123.4400000000001</ele>
        <time>2025-04-29T08:56:25Z</time>
      </trkpt>
      <trkpt lat="42.829862991347909" lon="-4.851192003116012">
        <ele>1123.9200000000001</ele>
        <time>2025-04-29T08:56:26Z</time>
      </trkpt>
      <trkpt lat="42.829946978017688" lon="-4.851271966472268">
        <ele>1123.9200000000001</ele>
        <time>2025-04-29T08:56:27Z</time>
      </trkpt>
      <trkpt lat="42.830043034628034" lon="-4.851353019475937">
        <ele>1123.9200000000001</ele>
        <time>2025-04-29T08:56:28Z</time>
      </trkpt>
      <trkpt lat="42.83014596439898" lon="-4.851441029459238">
        <ele>1123.9200000000001</ele>
        <time>2025-04-29T08:56:29Z</time>
      </trkpt>
      <trkpt lat="42.831104015931487" lon="-4.852516008540988">
        <ele>1125.8399999999999</ele>
        <time>2025-04-29T08:56:37Z</time>
      </trkpt>
      <trkpt lat="42.831228990107775" lon="-4.85269202850759">
        <ele>1125.8399999999999</ele>
        <time>2025-04-29T08:56:38Z</time>
      </trkpt>
      <trkpt lat="42.831853022798896" lon="-4.85357497818768">
        <ele>1128.24</ele>
        <time>2025-04-29T08:56:43Z</time>
      </trkpt>
      <trkpt lat="42.832018984481692" lon="-4.853701964020729">
        <ele>1128.73</ele>
        <time>2025-04-29T08:56:44Z</time>
      </trkpt>
      <trkpt lat="42.832176983356476" lon="-4.853821992874146">
        <ele>1129.21</ele>
        <time>2025-04-29T08:56:45Z</time>
      </trkpt>
      <trkpt lat="42.832340011373162" lon="-4.853931963443756">
        <ele>1130.1700000000001</ele>
        <time>2025-04-29T08:56:46Z</time>
      </trkpt>
      <trkpt lat="42.832520976662636" lon="-4.85400103032589">
        <ele>1130.6500000000001</ele>
        <time>2025-04-29T08:56:47Z</time>
      </trkpt>
      <trkpt lat="42.833901979029179" lon="-4.854512996971607">
        <ele>1132.5699999999999</ele>
        <time>2025-04-29T08:56:53Z</time>
      </trkpt>
      <trkpt lat="42.837551962584257" lon="-4.855852006003261">
        <ele>1137.3800000000001</ele>
        <time>2025-04-29T08:57:07Z</time>
      </trkpt>
      <trkpt lat="42.840227968990803" lon="-4.856816008687019">
        <ele>1140.74</ele>
        <time>2025-04-29T08:57:18Z</time>
      </trkpt>
      <trkpt lat="42.841132963076234" lon="-4.857062017545104">
        <ele>1142.1800000000001</ele>
        <time>2025-04-29T08:57:22Z</time>
      </trkpt>
      <trkpt lat="42.841366985812783" lon="-4.857048019766808">
        <ele>1142.6600000000001</ele>
        <time>2025-04-29T08:57:23Z</time>
      </trkpt>
      <trkpt lat="42.842225041240454" lon="-4.856850039213896">
        <ele>1143.6300000000001</ele>
        <time>2025-04-29T08:57:27Z</time>
      </trkpt>
      <trkpt lat="42.842403994873166" lon="-4.856735039502382">
        <ele>1143.6300000000001</ele>
        <time>2025-04-29T08:57:28Z</time>
      </trkpt>
      <trkpt lat="42.84258202649653" lon="-4.856558013707399">
        <ele>1144.1099999999999</ele>
        <time>2025-04-29T08:57:29Z</time>
      </trkpt>
      <trkpt lat="42.842714041471481" lon="-4.856356009840965">
        <ele>1145.0699999999999</ele>
        <time>2025-04-29T08:57:30Z</time>
      </trkpt>
      <trkpt lat="42.842817977070808" lon="-4.856096003204584">
        <ele>1146.51</ele>
        <time>2025-04-29T08:57:31Z</time>
      </trkpt>
      <trkpt lat="42.842918979004025" lon="-4.855843037366867">
        <ele>1147.47</ele>
        <time>2025-04-29T08:57:32Z</time>
      </trkpt>
      <trkpt lat="42.843159958720207" lon="-4.855388989672065">
        <ele>1148.9100000000001</ele>
        <time>2025-04-29T08:57:34Z</time>
      </trkpt>
      <trkpt lat="42.843309994786978" lon="-4.855192014947534">
        <ele>1149.3900000000001</ele>
        <time>2025-04-29T08:57:35Z</time>
      </trkpt>
      <trkpt lat="42.8434850089252" lon="-4.855038961395621">
        <ele>1149.8699999999999</ele>
        <time>2025-04-29T08:57:36Z</time>
      </trkpt>
      <trkpt lat="42.843667985871434" lon="-4.854900995269418">
        <ele>1149.8699999999999</ele>
        <time>2025-04-29T08:57:37Z</time>
      </trkpt>
      <trkpt lat="42.84387300722301" lon="-4.854833018034697">
        <ele>1149.8699999999999</ele>
        <time>2025-04-29T08:57:38Z</time>
      </trkpt>
      <trkpt lat="42.844081968069077" lon="-4.854770991951227">
        <ele>1149.8699999999999</ele>
        <time>2025-04-29T08:57:39Z</time>
      </trkpt>
      <trkpt lat="42.844297969713807" lon="-4.854736961424351">
        <ele>1150.3499999999999</ele>
        <time>2025-04-29T08:57:40Z</time>
      </trkpt>
      <trkpt lat="42.845156025141478" lon="-4.854664960876107">
        <ele>1151.3199999999999</ele>
        <time>2025-04-29T08:57:44Z</time>
      </trkpt>
      <trkpt lat="42.846672981977463" lon="-4.854447031393647">
        <ele>1153.24</ele>
        <time>2025-04-29T08:57:51Z</time>
      </trkpt>
      <trkpt lat="42.84834198653698" lon="-4.853662988170981">
        <ele>1159.97</ele>
        <time>2025-04-29T08:57:59Z</time>
      </trkpt>
      <trkpt lat="42.84930900670588" lon="-4.853227967396379">
        <ele>1163.3299999999999</ele>
        <time>2025-04-29T08:58:04Z</time>
      </trkpt>
      <trkpt lat="42.849513022229075" lon="-4.853188991546631">
        <ele>1163.8099999999999</ele>
        <time>2025-04-29T08:58:05Z</time>
      </trkpt>
      <trkpt lat="42.849721983075142" lon="-4.853188991546631">
        <ele>1163.8099999999999</ele>
        <time>2025-04-29T08:58:06Z</time>
      </trkpt>
      <trkpt lat="42.851289985701442" lon="-4.853141969069839">
        <ele>1161.4100000000001</ele>
        <time>2025-04-29T08:58:13Z</time>
      </trkpt>
      <trkpt lat="42.85150196403265" lon="-4.853063011541963">
        <ele>1161.8900000000001</ele>
        <time>2025-04-29T08:58:14Z</time>
      </trkpt>
      <trkpt lat="42.851705979555845" lon="-4.852953962981701">
        <ele>1162.3699999999999</ele>
        <time>2025-04-29T08:58:15Z</time>
      </trkpt>
      <trkpt lat="42.852902999147773" lon="-4.852308975532651">
        <ele>1168.1400000000001</ele>
        <time>2025-04-29T08:58:21Z</time>
      </trkpt>
      <trkpt lat="42.853096034377813" lon="-4.852282991632819">
        <ele>1169.0999999999999</ele>
        <time>2025-04-29T08:58:22Z</time>
      </trkpt>
      <trkpt lat="42.853302983567119" lon="-4.852253990247846">
        <ele>1170.0599999999999</ele>
        <time>2025-04-29T08:58:23Z</time>
      </trkpt>
      <trkpt lat="42.854137988761067" lon="-4.852174026891589">
        <ele>1174.8699999999999</ele>
        <time>2025-04-29T08:58:27Z</time>
      </trkpt>
      <trkpt lat="42.855815039947629" lon="-4.85258499160409">
        <ele>1184</ele>
        <time>2025-04-29T08:58:35Z</time>
      </trkpt>
      <trkpt lat="42.857261002063751" lon="-4.853369034826756">
        <ele>1192.1700000000001</ele>
        <time>2025-04-29T08:58:42Z</time>
      </trkpt>
      <trkpt lat="42.857483038678765" lon="-4.853424020111561">
        <ele>1192.6500000000001</ele>
        <time>2025-04-29T08:58:43Z</time>
      </trkpt>
      <trkpt lat="42.859297972172499" lon="-4.853526027873159">
        <ele>1202.75</ele>
        <time>2025-04-29T08:58:51Z</time>
      </trkpt>
      <trkpt lat="42.860578978434205" lon="-4.85363700427115">
        <ele>1206.5899999999999</ele>
        <time>2025-04-29T08:58:57Z</time>
      </trkpt>
      <trkpt lat="42.86078198812902" lon="-4.853717973455787">
        <ele>1207.55</ele>
        <time>2025-04-29T08:58:58Z</time>
      </trkpt>
      <trkpt lat="42.862747041508555" lon="-4.854522971436381">
        <ele>1217.6500000000001</ele>
        <time>2025-04-29T08:59:07Z</time>
      </trkpt>
      <trkpt lat="42.864871015772223" lon="-4.855542965233326">
        <ele>1232.55</ele>
        <time>2025-04-29T08:59:17Z</time>
      </trkpt>
      <trkpt lat="42.865793025121093" lon="-4.856080999597907">
        <ele>1239.28</ele>
        <time>2025-04-29T08:59:22Z</time>
      </trkpt>
      <trkpt lat="42.865945994853973" lon="-4.856251990422607">
        <ele>1240.72</ele>
        <time>2025-04-29T08:59:23Z</time>
      </trkpt>
      <trkpt lat="42.866075998172164" lon="-4.856471009552479">
        <ele>1242.1600000000001</ele>
        <time>2025-04-29T08:59:24Z</time>
      </trkpt>
      <trkpt lat="42.866201978176832" lon="-4.856700003147125">
        <ele>1243.1199999999999</ele>
        <time>2025-04-29T08:59:25Z</time>
      </trkpt>
      <trkpt lat="42.866328964009881" lon="-4.856932014226914">
        <ele>1245.04</ele>
        <time>2025-04-29T08:59:26Z</time>
      </trkpt>
      <trkpt lat="42.867085011675954" lon="-4.858672013506293">
        <ele>1253.7</ele>
        <time>2025-04-29T08:59:33Z</time>
      </trkpt>
      <trkpt lat="42.867225995287299" lon="-4.858889020979404">
        <ele>1255.1400000000001</ele>
        <time>2025-04-29T08:59:34Z</time>
      </trkpt>
      <trkpt lat="42.86737703718245" lon="-4.859097981825471">
        <ele>1256.0999999999999</ele>
        <time>2025-04-29T08:59:35Z</time>
      </trkpt>
      <trkpt lat="42.867535036057234" lon="-4.859296968206763">
        <ele>1257.54</ele>
        <time>2025-04-29T08:59:36Z</time>
      </trkpt>
      <trkpt lat="42.867717007175088" lon="-4.859453039243817">
        <ele>1258.5</ele>
        <time>2025-04-29T08:59:37Z</time>
      </trkpt>
      <trkpt lat="42.868459979072213" lon="-4.860025020316243">
        <ele>1263.79</ele>
        <time>2025-04-29T08:59:41Z</time>
      </trkpt>
      <trkpt lat="42.868660977110267" lon="-4.86010598950088">
        <ele>1264.75</ele>
        <time>2025-04-29T08:59:42Z</time>
      </trkpt>
      <trkpt lat="42.868871027603745" lon="-4.860145971179009">
        <ele>1266.1900000000001</ele>
        <time>2025-04-29T08:59:43Z</time>
      </trkpt>
      <trkpt lat="42.869430016726255" lon="-4.860283015295863">
        <ele>1270.04</ele>
        <time>2025-04-29T08:59:46Z</time>
      </trkpt>
      <trkpt lat="42.869561025872827" lon="-4.860368007794023">
        <ele>1271.48</ele>
        <time>2025-04-29T08:59:47Z</time>
      </trkpt>
      <trkpt lat="42.869666973128915" lon="-4.860493987798691">
        <ele>1272.4400000000001</ele>
        <time>2025-04-29T08:59:48Z</time>
      </trkpt>
      <trkpt lat="42.869768980890512" lon="-4.860613010823727">
        <ele>1273.8800000000001</ele>
        <time>2025-04-29T08:59:49Z</time>
      </trkpt>
      <trkpt lat="42.869814997538924" lon="-4.86077100969851">
        <ele>1274.3599999999999</ele>
        <time>2025-04-29T08:59:50Z</time>
      </trkpt>
      <trkpt lat="42.869865037500858" lon="-4.860939988866448">
        <ele>1275.3299999999999</ele>
        <time>2025-04-29T08:59:51Z</time>
      </trkpt>
      <trkpt lat="42.869876017794013" lon="-4.861107962206006">
        <ele>1276.29</ele>
        <time>2025-04-29T08:59:52Z</time>
      </trkpt>
      <trkpt lat="42.869866965338588" lon="-4.86126596108079">
        <ele>1276.29</ele>
        <time>2025-04-29T08:59:53Z</time>
      </trkpt>
      <trkpt lat="42.869817009195685" lon="-4.861431000754237">
        <ele>1276.77</ele>
        <time>2025-04-29T08:59:54Z</time>
      </trkpt>
      <trkpt lat="42.869765963405371" lon="-4.861604003235698">
        <ele>1276.77</ele>
        <time>2025-04-29T08:59:55Z</time>
      </trkpt>
      <trkpt lat="42.86969899199903" lon="-4.861771976575255">
        <ele>1276.77</ele>
        <time>2025-04-29T08:59:56Z</time>
      </trkpt>
      <trkpt lat="42.869619028642774" lon="-4.861949002370238">
        <ele>1276.77</ele>
        <time>2025-04-29T08:59:57Z</time>
      </trkpt>
      <trkpt lat="42.869275035336614" lon="-4.863017024472356">
        <ele>1274.3599999999999</ele>
        <time>2025-04-29T09:00:02Z</time>
      </trkpt>
      <trkpt lat="42.869275035336614" lon="-4.863278958946466">
        <ele>1273.8800000000001</ele>
        <time>2025-04-29T09:00:03Z</time>
      </trkpt>
      <trkpt lat="42.869287021458149" lon="-4.863524967804551">
        <ele>1273.4000000000001</ele>
        <time>2025-04-29T09:00:04Z</time>
      </trkpt>
      <trkpt lat="42.869323985651135" lon="-4.863777011632919">
        <ele>1272.9200000000001</ele>
        <time>2025-04-29T09:00:05Z</time>
      </trkpt>
      <trkpt lat="42.869362961500883" lon="-4.864037018269301">
        <ele>1272.4400000000001</ele>
        <time>2025-04-29T09:00:06Z</time>
      </trkpt>
      <trkpt lat="42.869985988363624" lon="-4.866187982261181">
        <ele>1268.1199999999999</ele>
        <time>2025-04-29T09:00:14Z</time>
      </trkpt>
      <trkpt lat="42.870964994654059" lon="-4.869442004710436">
        <ele>1262.8299999999999</ele>
        <time>2025-04-29T09:00:25Z</time>
      </trkpt>
      <trkpt lat="42.871657004579902" lon="-4.87247901968658">
        <ele>1261.8699999999999</ele>
        <time>2025-04-29T09:00:35Z</time>
      </trkpt>
      <trkpt lat="42.871787007898092" lon="-4.87278001382947">
        <ele>1261.8699999999999</ele>
        <time>2025-04-29T09:00:36Z</time>
      </trkpt>
      <trkpt lat="42.871903013437986" lon="-4.873047983273864">
        <ele>1261.8699999999999</ele>
        <time>2025-04-29T09:00:37Z</time>
      </trkpt>
      <trkpt lat="42.872028993442655" lon="-4.873317964375019">
        <ele>1261.8699999999999</ele>
        <time>2025-04-29T09:00:38Z</time>
      </trkpt>
      <trkpt lat="42.872637016698718" lon="-4.874277021735907">
        <ele>1261.3900000000001</ele>
        <time>2025-04-29T09:00:42Z</time>
      </trkpt>
      <trkpt lat="42.872746987268329" lon="-4.874524036422372">
        <ele>1260.9100000000001</ele>
        <time>2025-04-29T09:00:43Z</time>
      </trkpt>
      <trkpt lat="42.872832985594869" lon="-4.874771973118186">
        <ele>1260.9100000000001</ele>
        <time>2025-04-29T09:00:44Z</time>
      </trkpt>
      <trkpt lat="42.872904986143112" lon="-4.875029968097806">
        <ele>1260.4300000000001</ele>
        <time>2025-04-29T09:00:45Z</time>
      </trkpt>
      <trkpt lat="42.872933987528086" lon="-4.875318976119161">
        <ele>1260.4300000000001</ele>
        <time>2025-04-29T09:00:46Z</time>
      </trkpt>
      <trkpt lat="42.872962988913059" lon="-4.87561896443367">
        <ele>1259.9400000000001</ele>
        <time>2025-04-29T09:00:47Z</time>
      </trkpt>
      <trkpt lat="42.873032977804542" lon="-4.876238973811269">
        <ele>1259.46</ele>
        <time>2025-04-29T09:00:49Z</time>
      </trkpt>
      <trkpt lat="42.873096009716392" lon="-4.876554971560836">
        <ele>1258.98</ele>
        <time>2025-04-29T09:00:50Z</time>
      </trkpt>
      <trkpt lat="42.873202040791512" lon="-4.876844985410571">
        <ele>1258.5</ele>
        <time>2025-04-29T09:00:51Z</time>
      </trkpt>
      <trkpt lat="42.87330899387598" lon="-4.877136005088687">
        <ele>1258.02</ele>
        <time>2025-04-29T09:00:52Z</time>
      </trkpt>
      <trkpt lat="42.873447965830564" lon="-4.8774219956249">
        <ele>1257.54</ele>
        <time>2025-04-29T09:00:53Z</time>
      </trkpt>
      <trkpt lat="42.874281965196133" lon="-4.879095023497939">
        <ele>1255.1400000000001</ele>
        <time>2025-04-29T09:01:00Z</time>
      </trkpt>
      <trkpt lat="42.875399021431804" lon="-4.881314970552921">
        <ele>1258.5</ele>
        <time>2025-04-29T09:01:12Z</time>
      </trkpt>
      <trkpt lat="42.876126989722252" lon="-4.882655991241336">
        <ele>1259.46</ele>
        <time>2025-04-29T09:01:20Z</time>
      </trkpt>
      <trkpt lat="42.876255987212062" lon="-4.882777025923133">
        <ele>1259.46</ele>
        <time>2025-04-29T09:01:21Z</time>
      </trkpt>
      <trkpt lat="42.876385990530252" lon="-4.882899988442659">
        <ele>1259.9400000000001</ele>
        <time>2025-04-29T09:01:22Z</time>
      </trkpt>
      <trkpt lat="42.876522028818727" lon="-4.883010964840651">
        <ele>1259.9400000000001</ele>
        <time>2025-04-29T09:01:23Z</time>
      </trkpt>
      <trkpt lat="42.876671981066465" lon="-4.883083971217275">
        <ele>1259.46</ele>
        <time>2025-04-29T09:01:24Z</time>
      </trkpt>
      <trkpt lat="42.878037979826331" lon="-4.883820991963148">
        <ele>1258.02</ele>
        <time>2025-04-29T09:01:32Z</time>
      </trkpt>
      <trkpt lat="42.879463993012905" lon="-4.884414011612535">
        <ele>1255.6199999999999</ele>
        <time>2025-04-29T09:01:40Z</time>
      </trkpt>
      <trkpt lat="42.881505992263556" lon="-4.884666977450252">
        <ele>1251.77</ele>
        <time>2025-04-29T09:01:51Z</time>
      </trkpt>
      <trkpt lat="42.88168896920979" lon="-4.884743001312017">
        <ele>1251.77</ele>
        <time>2025-04-29T09:01:52Z</time>
      </trkpt>
      <trkpt lat="42.883334001526237" lon="-4.885422019287944">
        <ele>1250.8099999999999</ele>
        <time>2025-04-29T09:02:01Z</time>
      </trkpt>
      <trkpt lat="42.884922036901116" lon="-4.885804988443852">
        <ele>1248.8900000000001</ele>
        <time>2025-04-29T09:02:09Z</time>
      </trkpt>
      <trkpt lat="42.885496029630303" lon="-4.88592904061079">
        <ele>1247.9300000000001</ele>
        <time>2025-04-29T09:02:12Z</time>
      </trkpt>
      <trkpt lat="42.885689986869693" lon="-4.885998023673892">
        <ele>1247.9300000000001</ele>
        <time>2025-04-29T09:02:13Z</time>
      </trkpt>
      <trkpt lat="42.886759014800191" lon="-4.886686010286212">
        <ele>1246.97</ele>
        <time>2025-04-29T09:02:19Z</time>
      </trkpt>
      <trkpt lat="42.886893963441253" lon="-4.886829005554318">
        <ele>1246.49</ele>
        <time>2025-04-29T09:02:20Z</time>
      </trkpt>
      <trkpt lat="42.887276010587811" lon="-4.887231001630426">
        <ele>1246.97</ele>
        <time>2025-04-29T09:02:23Z</time>
      </trkpt>
      <trkpt lat="42.887399978935719" lon="-4.887361004948616">
        <ele>1246.97</ele>
        <time>2025-04-29T09:02:24Z</time>
      </trkpt>
      <trkpt lat="42.887537023052573" lon="-4.887453960254788">
        <ele>1247.45</ele>
        <time>2025-04-29T09:02:25Z</time>
      </trkpt>
      <trkpt lat="42.887694016098976" lon="-4.887526966631413">
        <ele>1247.45</ele>
        <time>2025-04-29T09:02:26Z</time>
      </trkpt>
      <trkpt lat="42.887855032458901" lon="-4.887600978836417">
        <ele>1247.9300000000001</ele>
        <time>2025-04-29T09:02:27Z</time>
      </trkpt>
      <trkpt lat="42.889425968751311" lon="-4.888317966833711">
        <ele>1250.8099999999999</ele>
        <time>2025-04-29T09:02:36Z</time>
      </trkpt>
      <trkpt lat="42.889621015638113" lon="-4.888337999582291">
        <ele>1250.3299999999999</ele>
        <time>2025-04-29T09:02:37Z</time>
      </trkpt>
      <trkpt lat="42.889820002019405" lon="-4.88835602067411">
        <ele>1250.3299999999999</ele>
        <time>2025-04-29T09:02:38Z</time>
      </trkpt>
      <trkpt lat="42.890016976743937" lon="-4.888318972662091">
        <ele>1249.8499999999999</ele>
        <time>2025-04-29T09:02:39Z</time>
      </trkpt>
      <trkpt lat="42.890209006145597" lon="-4.88827102817595">
        <ele>1250.3299999999999</ele>
        <time>2025-04-29T09:02:40Z</time>
      </trkpt>
      <trkpt lat="42.890401035547256" lon="-4.888189975172281">
        <ele>1250.3299999999999</ele>
        <time>2025-04-29T09:02:41Z</time>
      </trkpt>
      <trkpt lat="42.890592981129885" lon="-4.888110011816025">
        <ele>1250.3299999999999</ele>
        <time>2025-04-29T09:02:42Z</time>
      </trkpt>
      <trkpt lat="42.89146302267909" lon="-4.887770963832736">
        <ele>1249.8499999999999</ele>
        <time>2025-04-29T09:02:47Z</time>
      </trkpt>
      <trkpt lat="42.891636025160551" lon="-4.887731987982988">
        <ele>1250.3299999999999</ele>
        <time>2025-04-29T09:02:48Z</time>
      </trkpt>
      <trkpt lat="42.893080981448293" lon="-4.887601984664798">
        <ele>1252.74</ele>
        <time>2025-04-29T09:02:57Z</time>
      </trkpt>
      <trkpt lat="42.894969005137682" lon="-4.887803988531232">
        <ele>1260.4300000000001</ele>
        <time>2025-04-29T09:03:09Z</time>
      </trkpt>
      <trkpt lat="42.896174993366003" lon="-4.887941032648087">
        <ele>1264.75</ele>
        <time>2025-04-29T09:03:19Z</time>
      </trkpt>
      <trkpt lat="42.897009998559952" lon="-4.887931980192661">
        <ele>1265.71</ele>
        <time>2025-04-29T09:03:27Z</time>
      </trkpt>
      <trkpt lat="42.897019973024726" lon="-4.88792896270752">
        <ele>1266.1900000000001</ele>
        <time>2025-04-29T09:03:28Z</time>
      </trkpt>
      <trkpt lat="42.897127009928226" lon="-4.887974979355931">
        <ele>1266.6700000000001</ele>
        <time>2025-04-29T09:03:29Z</time>
      </trkpt>
      <trkpt lat="42.897147964686155" lon="-4.888065000995994">
        <ele>1267.1600000000001</ele>
        <time>2025-04-29T09:03:30Z</time>
      </trkpt>
      <trkpt lat="42.897172020748258" lon="-4.888169020414352">
        <ele>1267.6400000000001</ele>
        <time>2025-04-29T09:03:31Z</time>
      </trkpt>
      <trkpt lat="42.897191969677806" lon="-4.888298017904162">
        <ele>1267.6400000000001</ele>
        <time>2025-04-29T09:03:32Z</time>
      </trkpt>
      <trkpt lat="42.897191969677806" lon="-4.888437995687127">
        <ele>1268.1199999999999</ele>
        <time>2025-04-29T09:03:33Z</time>
      </trkpt>
      <trkpt lat="42.897210996598005" lon="-4.888717029243708">
        <ele>1268.5999999999999</ele>
        <time>2025-04-29T09:03:35Z</time>
      </trkpt>
      <trkpt lat="42.897247038781643" lon="-4.888858012855053">
        <ele>1269.5599999999999</ele>
        <time>2025-04-29T09:03:36Z</time>
      </trkpt>
      <trkpt lat="42.897301018238068" lon="-4.88898198120296">
        <ele>1270.04</ele>
        <time>2025-04-29T09:03:37Z</time>
      </trkpt>
      <trkpt lat="42.897374024614692" lon="-4.889120031148195">
        <ele>1270.52</ele>
        <time>2025-04-29T09:03:38Z</time>
      </trkpt>
      <trkpt lat="42.897447030991316" lon="-4.889261014759541">
        <ele>1271</ele>
        <time>2025-04-29T09:03:39Z</time>
      </trkpt>
      <trkpt lat="42.897759005427361" lon="-4.889858979731798">
        <ele>1273.4000000000001</ele>
        <time>2025-04-29T09:03:43Z</time>
      </trkpt>
      <trkpt lat="42.897798987105489" lon="-4.890043968334794">
        <ele>1273.8800000000001</ele>
        <time>2025-04-29T09:03:44Z</time>
      </trkpt>
      <trkpt lat="42.897830000147223" lon="-4.890229040756822">
        <ele>1274.3599999999999</ele>
        <time>2025-04-29T09:03:45Z</time>
      </trkpt>
      <trkpt lat="42.898025969043374" lon="-4.891445003449917">
        <ele>1279.1700000000001</ele>
        <time>2025-04-29T09:03:52Z</time>
      </trkpt>
      <trkpt lat="42.898070979863405" lon="-4.891608031466603">
        <ele>1280.1300000000001</ele>
        <time>2025-04-29T09:03:53Z</time>
      </trkpt>
      <trkpt lat="42.898136023432016" lon="-4.891769969835877">
        <ele>1281.0899999999999</ele>
        <time>2025-04-29T09:03:54Z</time>
      </trkpt>
      <trkpt lat="42.898536007851362" lon="-4.892829023301601">
        <ele>1286.3800000000001</ele>
        <time>2025-04-29T09:04:00Z</time>
      </trkpt>
      <trkpt lat="42.898566015064716" lon="-4.893034966662526">
        <ele>1286.8599999999999</ele>
        <time>2025-04-29T09:04:01Z</time>
      </trkpt>
      <trkpt lat="42.898585963994265" lon="-4.894326031208038">
        <ele>1291.6700000000001</ele>
        <time>2025-04-29T09:04:07Z</time>
      </trkpt>
      <trkpt lat="42.898556962609291" lon="-4.894525017589331">
        <ele>1292.6300000000001</ele>
        <time>2025-04-29T09:04:08Z</time>
      </trkpt>
      <trkpt lat="42.898415978997946" lon="-4.89527503028512">
        <ele>1295.99</ele>
        <time>2025-04-29T09:04:12Z</time>
      </trkpt>
      <trkpt lat="42.898399969562888" lon="-4.895468987524509">
        <ele>1296.48</ele>
        <time>2025-04-29T09:04:13Z</time>
      </trkpt>
      <trkpt lat="42.898578001186252" lon="-4.897464970126748">
        <ele>1304.6500000000001</ele>
        <time>2025-04-29T09:04:23Z</time>
      </trkpt>
      <trkpt lat="42.898762989789248" lon="-4.89953001961112">
        <ele>1314.26</ele>
        <time>2025-04-29T09:04:34Z</time>
      </trkpt>
      <trkpt lat="42.898800959810615" lon="-4.901233976706862">
        <ele>1322.9100000000001</ele>
        <time>2025-04-29T09:04:43Z</time>
      </trkpt>
      <trkpt lat="42.898770030587912" lon="-4.901964962482452">
        <ele>1327.24</ele>
        <time>2025-04-29T09:04:47Z</time>
      </trkpt>
      <trkpt lat="42.898670034483075" lon="-4.902922008186579">
        <ele>1331.5599999999999</ele>
        <time>2025-04-29T09:04:52Z</time>
      </trkpt>
      <trkpt lat="42.898688977584243" lon="-4.903115965425968">
        <ele>1332.52</ele>
        <time>2025-04-29T09:04:53Z</time>
      </trkpt>
      <trkpt lat="42.898736000061035" lon="-4.903310006484389">
        <ele>1333.01</ele>
        <time>2025-04-29T09:04:54Z</time>
      </trkpt>
      <trkpt lat="42.899165991693735" lon="-4.904623031616211">
        <ele>1337.3299999999999</ele>
        <time>2025-04-29T09:05:01Z</time>
      </trkpt>
      <trkpt lat="42.899270011112094" lon="-4.904693020507693">
        <ele>1337.8099999999999</ele>
        <time>2025-04-29T09:05:02Z</time>
      </trkpt>
      <trkpt lat="42.899501016363502" lon="-4.904846996068955">
        <ele>1339.25</ele>
        <time>2025-04-29T09:05:04Z</time>
      </trkpt>
      <trkpt lat="42.899577040225267" lon="-4.904936011880636">
        <ele>1339.25</ele>
        <time>2025-04-29T09:05:05Z</time>
      </trkpt>
      <trkpt lat="42.899637976661325" lon="-4.90507397800684">
        <ele>1339.73</ele>
        <time>2025-04-29T09:05:06Z</time>
      </trkpt>
      <trkpt lat="42.899620039388537" lon="-4.905216973274946">
        <ele>1340.22</ele>
        <time>2025-04-29T09:05:07Z</time>
      </trkpt>
      <trkpt lat="42.899556001648307" lon="-4.905367009341717">
        <ele>1341.1800000000001</ele>
        <time>2025-04-29T09:05:08Z</time>
      </trkpt>
      <trkpt lat="42.89947897195816" lon="-4.905519979074597">
        <ele>1341.6600000000001</ele>
        <time>2025-04-29T09:05:09Z</time>
      </trkpt>
      <trkpt lat="42.899408983066678" lon="-4.905688036233187">
        <ele>1341.6600000000001</ele>
        <time>2025-04-29T09:05:10Z</time>
      </trkpt>
      <trkpt lat="42.899364978075027" lon="-4.905864978209138">
        <ele>1342.6199999999999</ele>
        <time>2025-04-29T09:05:11Z</time>
      </trkpt>
      <trkpt lat="42.899338994175196" lon="-4.906044015660882">
        <ele>1343.5799999999999</ele>
        <time>2025-04-29T09:05:12Z</time>
      </trkpt>
      <trkpt lat="42.899343017488718" lon="-4.906240990385413">
        <ele>1344.54</ele>
        <time>2025-04-29T09:05:13Z</time>
      </trkpt>
      <trkpt lat="42.89934704080224" lon="-4.906451040878892">
        <ele>1345.5</ele>
        <time>2025-04-29T09:05:14Z</time>
      </trkpt>
      <trkpt lat="42.899351986125112" lon="-4.906669976189733">
        <ele>1347.4300000000001</ele>
        <time>2025-04-29T09:05:15Z</time>
      </trkpt>
      <trkpt lat="42.899447958916426" lon="-4.908852037042379">
        <ele>1365.6900000000001</ele>
        <time>2025-04-29T09:05:24Z</time>
      </trkpt>
      <trkpt lat="42.899548960849643" lon="-4.909567013382912">
        <ele>1370.02</ele>
        <time>2025-04-29T09:05:27Z</time>
      </trkpt>
      <trkpt lat="42.899524988606572" lon="-4.909806987270713">
        <ele>1371.46</ele>
        <time>2025-04-29T09:05:28Z</time>
      </trkpt>
      <trkpt lat="42.899390961974859" lon="-4.911441961303353">
        <ele>1379.6300000000001</ele>
        <time>2025-04-29T09:05:35Z</time>
      </trkpt>
      <trkpt lat="42.899405965581536" lon="-4.91167196072638">
        <ele>1380.5899999999999</ele>
        <time>2025-04-29T09:05:36Z</time>
      </trkpt>
      <trkpt lat="42.899793041869998" lon="-4.914212012663484">
        <ele>1390.6800000000001</ele>
        <time>2025-04-29T09:05:47Z</time>
      </trkpt>
      <trkpt lat="42.899854984134436" lon="-4.914428014308214">
        <ele>1392.1300000000001</ele>
        <time>2025-04-29T09:05:48Z</time>
      </trkpt>
      <trkpt lat="42.900234013795853" lon="-4.915399979799986">
        <ele>1397.8900000000001</ele>
        <time>2025-04-29T09:05:53Z</time>
      </trkpt>
      <trkpt lat="42.900321017950773" lon="-4.915566025301814">
        <ele>1398.8599999999999</ele>
        <time>2025-04-29T09:05:54Z</time>
      </trkpt>
      <trkpt lat="42.900441968813539" lon="-4.915695022791624">
        <ele>1400.3</ele>
        <time>2025-04-29T09:05:55Z</time>
      </trkpt>
      <trkpt lat="42.900564009323716" lon="-4.915825026109815">
        <ele>1401.26</ele>
        <time>2025-04-29T09:05:56Z</time>
      </trkpt>
      <trkpt lat="42.900704992935061" lon="-4.915931979194284">
        <ele>1402.7</ele>
        <time>2025-04-29T09:05:57Z</time>
      </trkpt>
      <trkpt lat="42.902499977499247" lon="-4.91708499379456">
        <ele>1414.72</ele>
        <time>2025-04-29T09:06:09Z</time>
      </trkpt>
      <trkpt lat="42.904286999255419" lon="-4.91828503087163">
        <ele>1425.77</ele>
        <time>2025-04-29T09:06:22Z</time>
      </trkpt>
      <trkpt lat="42.904353970661759" lon="-4.918390978127718">
        <ele>1426.73</ele>
        <time>2025-04-29T09:06:23Z</time>
      </trkpt>
      <trkpt lat="42.904406022280455" lon="-4.918504972010851">
        <ele>1427.21</ele>
        <time>2025-04-29T09:06:24Z</time>
      </trkpt>
      <trkpt lat="42.904443992301822" lon="-4.918656013906002">
        <ele>1428.1800000000001</ele>
        <time>2025-04-29T09:06:25Z</time>
      </trkpt>
      <trkpt lat="42.904427982866764" lon="-4.918799009174109">
        <ele>1428.6600000000001</ele>
        <time>2025-04-29T09:06:26Z</time>
      </trkpt>
      <trkpt lat="42.904409961774945" lon="-4.918966982513666">
        <ele>1429.1400000000001</ele>
        <time>2025-04-29T09:06:27Z</time>
      </trkpt>
      <trkpt lat="42.904380960389972" lon="-4.919138979166746">
        <ele>1429.6199999999999</ele>
        <time>2025-04-29T09:06:28Z</time>
      </trkpt>
      <trkpt lat="42.904313988983631" lon="-4.9194660410285">
        <ele>1430.5799999999999</ele>
        <time>2025-04-29T09:06:30Z</time>
      </trkpt>
      <trkpt lat="42.904273001477122" lon="-4.919665027409792">
        <ele>1431.0599999999999</ele>
        <time>2025-04-29T09:06:31Z</time>
      </trkpt>
      <trkpt lat="42.90420301258564" lon="-4.919734010472894">
        <ele>1432.02</ele>
        <time>2025-04-29T09:06:32Z</time>
      </trkpt>
      <trkpt lat="42.904092958196998" lon="-4.919822020456195">
        <ele>1432.98</ele>
        <time>2025-04-29T09:06:33Z</time>
      </trkpt>
      <trkpt lat="42.903965972363949" lon="-4.919893015176058">
        <ele>1433.9400000000001</ele>
        <time>2025-04-29T09:06:34Z</time>
      </trkpt>
      <trkpt lat="42.903837980702519" lon="-4.919965015724301">
        <ele>1434.9100000000001</ele>
        <time>2025-04-29T09:06:35Z</time>
      </trkpt>
      <trkpt lat="42.903495999053121" lon="-4.920253017917275">
        <ele>1438.27</ele>
        <time>2025-04-29T09:06:39Z</time>
      </trkpt>
      <trkpt lat="42.903457023203373" lon="-4.920309009030461">
        <ele>1438.75</ele>
        <time>2025-04-29T09:06:40Z</time>
      </trkpt>
      <trkpt lat="42.903437996283174" lon="-4.920385032892227">
        <ele>1439.71</ele>
        <time>2025-04-29T09:06:41Z</time>
      </trkpt>
      <trkpt lat="42.903418969362974" lon="-4.920461978763342">
        <ele>1440.1900000000001</ele>
        <time>2025-04-29T09:06:42Z</time>
      </trkpt>
      <trkpt lat="42.903428021818399" lon="-4.920528028160334">
        <ele>1440.6700000000001</ele>
        <time>2025-04-29T09:06:43Z</time>
      </trkpt>
      <trkpt lat="42.90345199406147" lon="-4.920613020658493">
        <ele>1441.1500000000001</ele>
        <time>2025-04-29T09:06:44Z</time>
      </trkpt>
      <trkpt lat="42.903488036245108" lon="-4.920685021206737">
        <ele>1441.6300000000001</ele>
        <time>2025-04-29T09:06:45Z</time>
      </trkpt>
      <trkpt lat="42.903541009873152" lon="-4.92077898234129">
        <ele>1441.6300000000001</ele>
        <time>2025-04-29T09:06:46Z</time>
      </trkpt>
      <trkpt lat="42.904155990108848" lon="-4.921732004731894">
        <ele>1438.27</ele>
        <time>2025-04-29T09:06:54Z</time>
      </trkpt>
      <trkpt lat="42.904313988983631" lon="-4.921952029690146">
        <ele>1436.3499999999999</ele>
        <time>2025-04-29T09:06:56Z</time>
      </trkpt>
      <trkpt lat="42.904413985088468" lon="-4.922014977782965">
        <ele>1435.8699999999999</ele>
        <time>2025-04-29T09:06:57Z</time>
      </trkpt>
      <trkpt lat="42.904523033648729" lon="-4.922057976946235">
        <ele>1434.9100000000001</ele>
        <time>2025-04-29T09:06:58Z</time>
      </trkpt>
      <trkpt lat="42.904637027531862" lon="-4.922081027179956">
        <ele>1433.9400000000001</ele>
        <time>2025-04-29T09:06:59Z</time>
      </trkpt>
      <trkpt lat="42.90476200170815" lon="-4.922054959461093">
        <ele>1433.46</ele>
        <time>2025-04-29T09:07:00Z</time>
      </trkpt>
      <trkpt lat="42.904879013076425" lon="-4.921989999711514">
        <ele>1432.5</ele>
        <time>2025-04-29T09:07:01Z</time>
      </trkpt>
      <trkpt lat="42.904995018616319" lon="-4.921905007213354">
        <ele>1432.02</ele>
        <time>2025-04-29T09:07:02Z</time>
      </trkpt>
      <trkpt lat="42.905114041641355" lon="-4.921802999451757">
        <ele>1431.0599999999999</ele>
        <time>2025-04-29T09:07:03Z</time>
      </trkpt>
      <trkpt lat="42.905903030186892" lon="-4.92095198482275">
        <ele>1425.77</ele>
        <time>2025-04-29T09:07:10Z</time>
      </trkpt>
      <trkpt lat="42.906034961342812" lon="-4.920894987881184">
        <ele>1424.8099999999999</ele>
        <time>2025-04-29T09:07:11Z</time>
      </trkpt>
      <trkpt lat="42.906164964661002" lon="-4.920838996767998">
        <ele>1424.3299999999999</ele>
        <time>2025-04-29T09:07:12Z</time>
      </trkpt>
      <trkpt lat="42.906298991292715" lon="-4.920780993998051">
        <ele>1423.8499999999999</ele>
        <time>2025-04-29T09:07:13Z</time>
      </trkpt>
      <trkpt lat="42.906431006267667" lon="-4.920711005106568">
        <ele>1423.3699999999999</ele>
        <time>2025-04-29T09:07:14Z</time>
      </trkpt>
      <trkpt lat="42.906552962958813" lon="-4.920616038143635">
        <ele>1422.8900000000001</ele>
        <time>2025-04-29T09:07:15Z</time>
      </trkpt>
      <trkpt lat="42.907022014260292" lon="-4.920228039845824">
        <ele>1421.9300000000001</ele>
        <time>2025-04-29T09:07:19Z</time>
      </trkpt>
      <trkpt lat="42.907111030071974" lon="-4.92011203430593">
        <ele>1421.45</ele>
        <time>2025-04-29T09:07:20Z</time>
      </trkpt>
      <trkpt lat="42.90719099342823" lon="-4.920008014887571">
        <ele>1421.45</ele>
        <time>2025-04-29T09:07:21Z</time>
      </trkpt>
      <trkpt lat="42.907247990369797" lon="-4.919841969385743">
        <ele>1421.45</ele>
        <time>2025-04-29T09:07:22Z</time>
      </trkpt>
      <trkpt lat="42.907302975654602" lon="-4.91968397051096">
        <ele>1421.45</ele>
        <time>2025-04-29T09:07:23Z</time>
      </trkpt>
      <trkpt lat="42.907960033044219" lon="-4.918118985369802">
        <ele>1420.97</ele>
        <time>2025-04-29T09:07:33Z</time>
      </trkpt>
      <trkpt lat="42.908044019713998" lon="-4.917813967913389">
        <ele>1420.97</ele>
        <time>2025-04-29T09:07:35Z</time>
      </trkpt>
      <trkpt lat="42.908089030534029" lon="-4.917649012058973">
        <ele>1420.97</ele>
        <time>2025-04-29T09:07:36Z</time>
      </trkpt>
      <trkpt lat="42.908175028860569" lon="-4.917336031794548">
        <ele>1420.97</ele>
        <time>2025-04-29T09:07:38Z</time>
      </trkpt>
      <trkpt lat="42.90824300609529" lon="-4.91725598461926">
        <ele>1420.49</ele>
        <time>2025-04-29T09:07:39Z</time>
      </trkpt>
      <trkpt lat="42.908316012471914" lon="-4.917176021263003">
        <ele>1420</ele>
        <time>2025-04-29T09:07:40Z</time>
      </trkpt>
      <trkpt lat="42.908654976636171" lon="-4.916808977723122">
        <ele>1419.52</ele>
        <time>2025-04-29T09:07:44Z</time>
      </trkpt>
      <trkpt lat="42.908739969134331" lon="-4.916701018810272">
        <ele>1419.04</ele>
        <time>2025-04-29T09:07:45Z</time>
      </trkpt>
      <trkpt lat="42.908958988264203" lon="-4.916371023282409">
        <ele>1419.04</ele>
        <time>2025-04-29T09:07:48Z</time>
      </trkpt>
      <trkpt lat="42.908990001305938" lon="-4.916259041056037">
        <ele>1418.5599999999999</ele>
        <time>2025-04-29T09:07:49Z</time>
      </trkpt>
      <trkpt lat="42.90901699103415" lon="-4.916127026081085">
        <ele>1418.5599999999999</ele>
        <time>2025-04-29T09:07:50Z</time>
      </trkpt>
      <trkpt lat="42.909033000469208" lon="-4.915835000574589">
        <ele>1418.5599999999999</ele>
        <time>2025-04-29T09:07:52Z</time>
      </trkpt>
      <trkpt lat="42.909063007682562" lon="-4.915711032226682">
        <ele>1419.04</ele>
        <time>2025-04-29T09:07:53Z</time>
      </trkpt>
      <trkpt lat="42.909112041816115" lon="-4.915583962574601">
        <ele>1419.04</ele>
        <time>2025-04-29T09:07:54Z</time>
      </trkpt>
      <trkpt lat="42.909174989908934" lon="-4.915469968691468">
        <ele>1419.04</ele>
        <time>2025-04-29T09:07:55Z</time>
      </trkpt>
      <trkpt lat="42.909268029034138" lon="-4.915378019213677">
        <ele>1419.04</ele>
        <time>2025-04-29T09:07:56Z</time>
      </trkpt>
      <trkpt lat="42.909376993775368" lon="-4.915306018665433">
        <ele>1419.52</ele>
        <time>2025-04-29T09:07:57Z</time>
      </trkpt>
      <trkpt lat="42.909487970173359" lon="-4.915234018117189">
        <ele>1420</ele>
        <time>2025-04-29T09:07:58Z</time>
      </trkpt>
      <trkpt lat="42.910000020638108" lon="-4.914965964853764">
        <ele>1421.45</ele>
        <time>2025-04-29T09:08:03Z</time>
      </trkpt>
      <trkpt lat="42.910085013136268" lon="-4.914953978732228">
        <ele>1421.45</ele>
        <time>2025-04-29T09:08:04Z</time>
      </trkpt>
      <trkpt lat="42.910172017291188" lon="-4.914976023137569">
        <ele>1421.9300000000001</ele>
        <time>2025-04-29T09:08:05Z</time>
      </trkpt>
      <trkpt lat="42.910262960940599" lon="-4.914998989552259">
        <ele>1421.9300000000001</ele>
        <time>2025-04-29T09:08:06Z</time>
      </trkpt>
      <trkpt lat="42.910348037257791" lon="-4.91502002812922">
        <ele>1422.4100000000001</ele>
        <time>2025-04-29T09:08:07Z</time>
      </trkpt>
      <trkpt lat="42.910422971472144" lon="-4.915038971230388">
        <ele>1422.4100000000001</ele>
        <time>2025-04-29T09:08:08Z</time>
      </trkpt>
      <trkpt lat="42.910491032525897" lon="-4.915041988715529">
        <ele>1422.4100000000001</ele>
        <time>2025-04-29T09:08:09Z</time>
      </trkpt>
      <trkpt lat="42.910556998103857" lon="-4.915003012865782">
        <ele>1422.4100000000001</ele>
        <time>2025-04-29T09:08:10Z</time>
      </trkpt>
      <trkpt lat="42.910631010308862" lon="-4.914960013702512">
        <ele>1422.4100000000001</ele>
        <time>2025-04-29T09:08:11Z</time>
      </trkpt>
      <trkpt lat="42.910716002807021" lon="-4.914909973740578">
        <ele>1422.4100000000001</ele>
        <time>2025-04-29T09:08:12Z</time>
      </trkpt>
      <trkpt lat="42.910808958113194" lon="-4.914876027032733">
        <ele>1422.4100000000001</ele>
        <time>2025-04-29T09:08:13Z</time>
      </trkpt>
      <trkpt lat="42.910908032208681" lon="-4.914843002334237">
        <ele>1422.4100000000001</ele>
        <time>2025-04-29T09:08:14Z</time>
      </trkpt>
      <trkpt lat="42.911179019138217" lon="-4.914751974865794">
        <ele>1422.8900000000001</ele>
        <time>2025-04-29T09:08:17Z</time>
      </trkpt>
      <trkpt lat="42.911265017464757" lon="-4.914734959602356">
        <ele>1422.8900000000001</ele>
        <time>2025-04-29T09:08:18Z</time>
      </trkpt>
      <trkpt lat="42.911361996084452" lon="-4.914763038977981">
        <ele>1422.8900000000001</ele>
        <time>2025-04-29T09:08:19Z</time>
      </trkpt>
      <trkpt lat="42.911470038816333" lon="-4.914794974029064">
        <ele>1422.4100000000001</ele>
        <time>2025-04-29T09:08:20Z</time>
      </trkpt>
      <trkpt lat="42.911589983850718" lon="-4.914829004555941">
        <ele>1421.9300000000001</ele>
        <time>2025-04-29T09:08:21Z</time>
      </trkpt>
      <trkpt lat="42.911963984370232" lon="-4.914927994832397">
        <ele>1420.49</ele>
        <time>2025-04-29T09:08:24Z</time>
      </trkpt>
      <trkpt lat="42.912612995132804" lon="-4.914950961247087">
        <ele>1417.1199999999999</ele>
        <time>2025-04-29T09:08:29Z</time>
      </trkpt>
      <trkpt lat="42.913193022832274" lon="-4.914801008999348">
        <ele>1413.28</ele>
        <time>2025-04-29T09:08:34Z</time>
      </trkpt>
      <trkpt lat="42.913276003673673" lon="-4.914724985137582">
        <ele>1412.79</ele>
        <time>2025-04-29T09:08:35Z</time>
      </trkpt>
      <trkpt lat="42.913355967029929" lon="-4.914651978760958">
        <ele>1411.8299999999999</ele>
        <time>2025-04-29T09:08:36Z</time>
      </trkpt>
      <trkpt lat="42.913435008376837" lon="-4.914578972384334">
        <ele>1411.3499999999999</ele>
        <time>2025-04-29T09:08:37Z</time>
      </trkpt>
      <trkpt lat="42.913524024188519" lon="-4.91454703733325">
        <ele>1410.8699999999999</ele>
        <time>2025-04-29T09:08:38Z</time>
      </trkpt>
      <trkpt lat="42.913607005029917" lon="-4.914517030119896">
        <ele>1409.9100000000001</ele>
        <time>2025-04-29T09:08:39Z</time>
      </trkpt>
      <trkpt lat="42.913695015013218" lon="-4.9145030323416">
        <ele>1409.4300000000001</ele>
        <time>2025-04-29T09:08:40Z</time>
      </trkpt>
      <trkpt lat="42.913781013339758" lon="-4.914534967392683">
        <ele>1408.95</ele>
        <time>2025-04-29T09:08:41Z</time>
      </trkpt>
      <trkpt lat="42.913859970867634" lon="-4.914572015404701">
        <ele>1408.47</ele>
        <time>2025-04-29T09:08:42Z</time>
      </trkpt>
      <trkpt lat="42.913932977244258" lon="-4.914634041488171">
        <ele>1408.47</ele>
        <time>2025-04-29T09:08:43Z</time>
      </trkpt>
      <trkpt lat="42.914004977792501" lon="-4.914694977924228">
        <ele>1407.51</ele>
        <time>2025-04-29T09:08:44Z</time>
      </trkpt>
      <trkpt lat="42.914153002202511" lon="-4.914809977635741">
        <ele>1406.55</ele>
        <time>2025-04-29T09:08:46Z</time>
      </trkpt>
      <trkpt lat="42.914231959730387" lon="-4.914849037304521">
        <ele>1405.5799999999999</ele>
        <time>2025-04-29T09:08:47Z</time>
      </trkpt>
      <trkpt lat="42.914314018562436" lon="-4.914833027869463">
        <ele>1405.0999999999999</ele>
        <time>2025-04-29T09:08:48Z</time>
      </trkpt>
      <trkpt lat="42.914402028545737" lon="-4.914778964594007">
        <ele>1404.6199999999999</ele>
        <time>2025-04-29T09:08:49Z</time>
      </trkpt>
      <trkpt lat="42.914490960538387" lon="-4.914705958217382">
        <ele>1404.1400000000001</ele>
        <time>2025-04-29T09:08:50Z</time>
      </trkpt>
      <trkpt lat="42.914578970521688" lon="-4.91463303565979">
        <ele>1403.6600000000001</ele>
        <time>2025-04-29T09:08:51Z</time>
      </trkpt>
      <trkpt lat="42.91466698050499" lon="-4.914561035111547">
        <ele>1403.1800000000001</ele>
        <time>2025-04-29T09:08:52Z</time>
      </trkpt>
      <trkpt lat="42.914755996316671" lon="-4.914502026513219">
        <ele>1402.7</ele>
        <time>2025-04-29T09:08:53Z</time>
      </trkpt>
      <trkpt lat="42.914836965501308" lon="-4.914471013471484">
        <ele>1402.22</ele>
        <time>2025-04-29T09:08:54Z</time>
      </trkpt>
      <trkpt lat="42.91490200906992" lon="-4.914446035400033">
        <ele>1401.74</ele>
        <time>2025-04-29T09:08:55Z</time>
      </trkpt>
      <trkpt lat="42.914962023496628" lon="-4.914422985166311">
        <ele>1400.78</ele>
        <time>2025-04-29T09:08:56Z</time>
      </trkpt>
      <trkpt lat="42.915037963539362" lon="-4.914422985166311">
        <ele>1400.3</ele>
        <time>2025-04-29T09:08:57Z</time>
      </trkpt>
      <trkpt lat="42.915128991007805" lon="-4.91446103900671">
        <ele>1399.8199999999999</ele>
        <time>2025-04-29T09:08:58Z</time>
      </trkpt>
      <trkpt lat="42.915234016254544" lon="-4.914504960179329">
        <ele>1398.8599999999999</ele>
        <time>2025-04-29T09:08:59Z</time>
      </trkpt>
      <trkpt lat="42.915343986824155" lon="-4.914550976827741">
        <ele>1397.8900000000001</ele>
        <time>2025-04-29T09:09:00Z</time>
      </trkpt>
      <trkpt lat="42.915453035384417" lon="-4.914595987647772">
        <ele>1397.4100000000001</ele>
        <time>2025-04-29T09:09:01Z</time>
      </trkpt>
      <trkpt lat="42.915559988468885" lon="-4.914621971547604">
        <ele>1396.45</ele>
        <time>2025-04-29T09:09:02Z</time>
      </trkpt>
      <trkpt lat="42.915657972916961" lon="-4.914621971547604">
        <ele>1395.49</ele>
        <time>2025-04-29T09:09:03Z</time>
      </trkpt>
      <trkpt lat="42.915738020092249" lon="-4.91456899791956">
        <ele>1395.01</ele>
        <time>2025-04-29T09:09:04Z</time>
      </trkpt>
      <trkpt lat="42.915838016197085" lon="-4.914493979886174">
        <ele>1394.05</ele>
        <time>2025-04-29T09:09:05Z</time>
      </trkpt>
      <trkpt lat="42.915920997038484" lon="-4.914406975731254">
        <ele>1393.5699999999999</ele>
        <time>2025-04-29T09:09:06Z</time>
      </trkpt>
      <trkpt lat="42.916019987314939" lon="-4.914304967969656">
        <ele>1393.0899999999999</ele>
        <time>2025-04-29T09:09:07Z</time>
      </trkpt>
      <trkpt lat="42.916200030595064" lon="-4.914116961881518">
        <ele>1391.6500000000001</ele>
        <time>2025-04-29T09:09:09Z</time>
      </trkpt>
      <trkpt lat="42.916288040578365" lon="-4.914026018232107">
        <ele>1391.1700000000001</ele>
        <time>2025-04-29T09:09:10Z</time>
      </trkpt>
      <trkpt lat="42.916392982006073" lon="-4.913927027955651">
        <ele>1390.6800000000001</ele>
        <time>2025-04-29T09:09:11Z</time>
      </trkpt>
      <trkpt lat="42.917163027450442" lon="-4.913614969700575">
        <ele>1385.8800000000001</ele>
        <time>2025-04-29T09:09:18Z</time>
      </trkpt>
      <trkpt lat="42.91726503521204" lon="-4.913635002449155">
        <ele>1384.9200000000001</ele>
        <time>2025-04-29T09:09:19Z</time>
      </trkpt>
      <trkpt lat="42.918009012937546" lon="-4.913721000775695">
        <ele>1379.1500000000001</ele>
        <time>2025-04-29T09:09:25Z</time>
      </trkpt>
      <trkpt lat="42.918102974072099" lon="-4.913649000227451">
        <ele>1378.6700000000001</ele>
        <time>2025-04-29T09:09:26Z</time>
      </trkpt>
      <trkpt lat="42.918189978227019" lon="-4.913567025214434">
        <ele>1377.71</ele>
        <time>2025-04-29T09:09:27Z</time>
      </trkpt>
      <trkpt lat="42.918359041213989" lon="-4.913407014682889">
        <ele>1375.78</ele>
        <time>2025-04-29T09:09:29Z</time>
      </trkpt>
      <trkpt lat="42.918444033712149" lon="-4.913351023569703">
        <ele>1374.8199999999999</ele>
        <time>2025-04-29T09:09:30Z</time>
      </trkpt>
      <trkpt lat="42.918542018160224" lon="-4.913334008306265">
        <ele>1373.8599999999999</ele>
        <time>2025-04-29T09:09:31Z</time>
      </trkpt>
      <trkpt lat="42.918649977073073" lon="-4.913314981386066">
        <ele>1372.9000000000001</ele>
        <time>2025-04-29T09:09:32Z</time>
      </trkpt>
      <trkpt lat="42.918756008148193" lon="-4.913296960294247">
        <ele>1372.4200000000001</ele>
        <time>2025-04-29T09:09:33Z</time>
      </trkpt>
      <trkpt lat="42.918858015909791" lon="-4.91327902302146">
        <ele>1371.46</ele>
        <time>2025-04-29T09:09:34Z</time>
      </trkpt>
      <trkpt lat="42.918925993144512" lon="-4.913243986666203">
        <ele>1370.5</ele>
        <time>2025-04-29T09:09:35Z</time>
      </trkpt>
      <trkpt lat="42.918994976207614" lon="-4.913148013874888">
        <ele>1370.02</ele>
        <time>2025-04-29T09:09:36Z</time>
      </trkpt>
      <trkpt lat="42.919073011726141" lon="-4.913038965314627">
        <ele>1369.54</ele>
        <time>2025-04-29T09:09:37Z</time>
      </trkpt>
      <trkpt lat="42.919162027537823" lon="-4.91291499696672">
        <ele>1369.05</ele>
        <time>2025-04-29T09:09:38Z</time>
      </trkpt>
      <trkpt lat="42.919541979208589" lon="-4.912368999794126">
        <ele>1367.6099999999999</ele>
        <time>2025-04-29T09:09:42Z</time>
      </trkpt>
      <trkpt lat="42.919707018882036" lon="-4.912118967622519">
        <ele>1366.6500000000001</ele>
        <time>2025-04-29T09:09:44Z</time>
      </trkpt>
      <trkpt lat="42.920073978602886" lon="-4.911570036783814">
        <ele>1364.25</ele>
        <time>2025-04-29T09:09:49Z</time>
      </trkpt>
      <trkpt lat="42.920158971101046" lon="-4.911516979336739">
        <ele>1363.29</ele>
        <time>2025-04-29T09:09:50Z</time>
      </trkpt>
      <trkpt lat="42.920248992741108" lon="-4.911459982395172">
        <ele>1362.8099999999999</ele>
        <time>2025-04-29T09:09:51Z</time>
      </trkpt>
      <trkpt lat="42.920348988845944" lon="-4.911398040130734">
        <ele>1361.8399999999999</ele>
        <time>2025-04-29T09:09:52Z</time>
      </trkpt>
      <trkpt lat="42.920445967465639" lon="-4.911312963813543">
        <ele>1361.3599999999999</ele>
        <time>2025-04-29T09:09:53Z</time>
      </trkpt>
      <trkpt lat="42.920529032126069" lon="-4.911209028214216">
        <ele>1360.8800000000001</ele>
        <time>2025-04-29T09:09:54Z</time>
      </trkpt>
      <trkpt lat="42.920606983825564" lon="-4.91111003793776">
        <ele>1359.9200000000001</ele>
        <time>2025-04-29T09:09:55Z</time>
      </trkpt>
      <trkpt lat="42.920676972717047" lon="-4.911022027954459">
        <ele>1359.4400000000001</ele>
        <time>2025-04-29T09:09:56Z</time>
      </trkpt>
      <trkpt lat="42.92074796743691" lon="-4.910948015749455">
        <ele>1358.96</ele>
        <time>2025-04-29T09:09:57Z</time>
      </trkpt>
      <trkpt lat="42.920841006562114" lon="-4.910923037678003">
        <ele>1358.48</ele>
        <time>2025-04-29T09:09:58Z</time>
      </trkpt>
      <trkpt lat="42.920935973525047" lon="-4.91089696995914">
        <ele>1357.52</ele>
        <time>2025-04-29T09:09:59Z</time>
      </trkpt>
      <trkpt lat="42.921035969629884" lon="-4.910912979394198">
        <ele>1357.04</ele>
        <time>2025-04-29T09:10:00Z</time>
      </trkpt>
      <trkpt lat="42.921136971563101" lon="-4.910949021577835">
        <ele>1356.5599999999999</ele>
        <time>2025-04-29T09:10:01Z</time>
      </trkpt>
      <trkpt lat="42.921244008466601" lon="-4.910986991599202">
        <ele>1356.0799999999999</ele>
        <time>2025-04-29T09:10:02Z</time>
      </trkpt>
      <trkpt lat="42.921356996521354" lon="-4.911041976884008">
        <ele>1355.1199999999999</ele>
        <time>2025-04-29T09:10:03Z</time>
      </trkpt>
      <trkpt lat="42.921451963484287" lon="-4.91113300435245">
        <ele>1354.6300000000001</ele>
        <time>2025-04-29T09:10:04Z</time>
      </trkpt>
      <trkpt lat="42.921736026182771" lon="-4.911403991281986">
        <ele>1352.23</ele>
        <time>2025-04-29T09:10:07Z</time>
      </trkpt>
      <trkpt lat="42.922141961753368" lon="-4.91199298761785">
        <ele>1349.3499999999999</ele>
        <time>2025-04-29T09:10:12Z</time>
      </trkpt>
      <trkpt lat="42.922260984778404" lon="-4.912278978154063">
        <ele>1348.3900000000001</ele>
        <time>2025-04-29T09:10:14Z</time>
      </trkpt>
      <trkpt lat="42.92229300364852" lon="-4.91244301199913">
        <ele>1347.9100000000001</ele>
        <time>2025-04-29T09:10:15Z</time>
      </trkpt>
      <trkpt lat="42.922653006389737" lon="-4.913412965834141">
        <ele>1344.54</ele>
        <time>2025-04-29T09:10:22Z</time>
      </trkpt>
      <trkpt lat="42.922704974189401" lon="-4.913507010787725">
        <ele>1344.0599999999999</ele>
        <time>2025-04-29T09:10:23Z</time>
      </trkpt>
      <trkpt lat="42.922764988616109" lon="-4.913530983030796">
        <ele>1343.5799999999999</ele>
        <time>2025-04-29T09:10:24Z</time>
      </trkpt>
      <trkpt lat="42.922849981114268" lon="-4.913567025214434">
        <ele>1343.0999999999999</ele>
        <time>2025-04-29T09:10:25Z</time>
      </trkpt>
      <trkpt lat="42.922944026067853" lon="-4.913606001064181">
        <ele>1342.6199999999999</ele>
        <time>2025-04-29T09:10:26Z</time>
      </trkpt>
      <trkpt lat="42.923043016344309" lon="-4.913694011047483">
        <ele>1341.6600000000001</ele>
        <time>2025-04-29T09:10:27Z</time>
      </trkpt>
      <trkpt lat="42.923125997185707" lon="-4.913777997717261">
        <ele>1340.22</ele>
        <time>2025-04-29T09:10:28Z</time>
      </trkpt>
      <trkpt lat="42.923220964148641" lon="-4.913902971893549">
        <ele>1339.25</ele>
        <time>2025-04-29T09:10:29Z</time>
      </trkpt>
      <trkpt lat="42.923277961090207" lon="-4.914036998525262">
        <ele>1338.29</ele>
        <time>2025-04-29T09:10:30Z</time>
      </trkpt>
      <trkpt lat="42.923333030194044" lon="-4.914164990186691">
        <ele>1337.3299999999999</ele>
        <time>2025-04-29T09:10:31Z</time>
      </trkpt>
      <trkpt lat="42.923382986336946" lon="-4.914282001554966">
        <ele>1336.8499999999999</ele>
        <time>2025-04-29T09:10:32Z</time>
      </trkpt>
      <trkpt lat="42.923427997156978" lon="-4.914386020973325">
        <ele>1335.8900000000001</ele>
        <time>2025-04-29T09:10:33Z</time>
      </trkpt>
      <trkpt lat="42.923455992713571" lon="-4.914450980722904">
        <ele>1334.9300000000001</ele>
        <time>2025-04-29T09:10:34Z</time>
      </trkpt>
      <trkpt lat="42.923541991040111" lon="-4.914473025128245">
        <ele>1334.45</ele>
        <time>2025-04-29T09:10:35Z</time>
      </trkpt>
      <trkpt lat="42.923621032387018" lon="-4.914493979886174">
        <ele>1333.97</ele>
        <time>2025-04-29T09:10:36Z</time>
      </trkpt>
      <trkpt lat="42.923717005178332" lon="-4.914519041776657">
        <ele>1333.97</ele>
        <time>2025-04-29T09:10:37Z</time>
      </trkpt>
      <trkpt lat="42.92381901293993" lon="-4.914545025676489">
        <ele>1333.49</ele>
        <time>2025-04-29T09:10:38Z</time>
      </trkpt>
      <trkpt lat="42.923919009044766" lon="-4.914572015404701">
        <ele>1333.01</ele>
        <time>2025-04-29T09:10:39Z</time>
      </trkpt>
      <trkpt lat="42.923996960744262" lon="-4.914643010124564">
        <ele>1332.04</ele>
        <time>2025-04-29T09:10:40Z</time>
      </trkpt>
      <trkpt lat="42.92407700791955" lon="-4.914749963209033">
        <ele>1331.0799999999999</ele>
        <time>2025-04-29T09:10:41Z</time>
      </trkpt>
      <trkpt lat="42.92416300624609" lon="-4.914864040911198">
        <ele>1329.6400000000001</ele>
        <time>2025-04-29T09:10:42Z</time>
      </trkpt>
      <trkpt lat="42.924251016229391" lon="-4.914981974288821">
        <ele>1328.2</ele>
        <time>2025-04-29T09:10:43Z</time>
      </trkpt>
      <trkpt lat="42.924316981807351" lon="-4.915137039497495">
        <ele>1327.24</ele>
        <time>2025-04-29T09:10:44Z</time>
      </trkpt>
      <trkpt lat="42.924376996234059" lon="-4.915306018665433">
        <ele>1325.8</ele>
        <time>2025-04-29T09:10:45Z</time>
      </trkpt>
      <trkpt lat="42.924438016489148" lon="-4.915474997833371">
        <ele>1324.3499999999999</ele>
        <time>2025-04-29T09:10:46Z</time>
      </trkpt>
      <trkpt lat="42.924603978171945" lon="-4.91598897613585">
        <ele>1321.47</ele>
        <time>2025-04-29T09:10:49Z</time>
      </trkpt>
      <trkpt lat="42.924629040062428" lon="-4.916168013587594">
        <ele>1320.51</ele>
        <time>2025-04-29T09:10:50Z</time>
      </trkpt>
      <trkpt lat="42.924672039225698" lon="-4.91667503491044">
        <ele>1317.1400000000001</ele>
        <time>2025-04-29T09:10:53Z</time>
      </trkpt>
      <trkpt lat="42.924664998427033" lon="-4.916828004643321">
        <ele>1315.7</ele>
        <time>2025-04-29T09:10:54Z</time>
      </trkpt>
      <trkpt lat="42.924658041447401" lon="-4.91697602905333">
        <ele>1314.74</ele>
        <time>2025-04-29T09:10:55Z</time>
      </trkpt>
      <trkpt lat="42.924624010920525" lon="-4.917118018493056">
        <ele>1313.78</ele>
        <time>2025-04-29T09:10:56Z</time>
      </trkpt>
      <trkpt lat="42.924587968736887" lon="-4.917251039296389">
        <ele>1312.3399999999999</ele>
        <time>2025-04-29T09:10:57Z</time>
      </trkpt>
      <trkpt lat="42.924538012593985" lon="-4.917350029572845">
        <ele>1311.3800000000001</ele>
        <time>2025-04-29T09:10:58Z</time>
      </trkpt>
      <trkpt lat="42.924494007602334" lon="-4.917438039556146">
        <ele>1310.4100000000001</ele>
        <time>2025-04-29T09:10:59Z</time>
      </trkpt>
      <trkpt lat="42.924415972083807" lon="-4.917525965720415">
        <ele>1309.45</ele>
        <time>2025-04-29T09:11:00Z</time>
      </trkpt>
      <trkpt lat="42.924328967928886" lon="-4.91757701151073">
        <ele>1308.49</ele>
        <time>2025-04-29T09:11:01Z</time>
      </trkpt>
      <trkpt lat="42.924229977652431" lon="-4.917636020109057">
        <ele>1307.53</ele>
        <time>2025-04-29T09:11:02Z</time>
      </trkpt>
      <trkpt lat="42.923613991588354" lon="-4.918012032285333">
        <ele>1303.6900000000001</ele>
        <time>2025-04-29T09:11:08Z</time>
      </trkpt>
      <trkpt lat="42.923547020182014" lon="-4.918120997026563">
        <ele>1303.2</ele>
        <time>2025-04-29T09:11:09Z</time>
      </trkpt>
      <trkpt lat="42.923476025462151" lon="-4.918234990909696">
        <ele>1302.72</ele>
        <time>2025-04-29T09:11:10Z</time>
      </trkpt>
      <trkpt lat="42.923397989943624" lon="-4.918359965085983">
        <ele>1301.76</ele>
        <time>2025-04-29T09:11:11Z</time>
      </trkpt>
      <trkpt lat="42.923316014930606" lon="-4.918491980060935">
        <ele>1301.28</ele>
        <time>2025-04-29T09:11:12Z</time>
      </trkpt>
      <trkpt lat="42.922743028029799" lon="-4.91912498138845">
        <ele>1297.9200000000001</ele>
        <time>2025-04-29T09:11:18Z</time>
      </trkpt>
      <trkpt lat="42.922640014439821" lon="-4.919213997200131">
        <ele>1297.4400000000001</ele>
        <time>2025-04-29T09:11:19Z</time>
      </trkpt>
      <trkpt lat="42.922539012506604" lon="-4.919246016070247">
        <ele>1296.48</ele>
        <time>2025-04-29T09:11:20Z</time>
      </trkpt>
      <trkpt lat="42.922433987259865" lon="-4.919279040768743">
        <ele>1295.99</ele>
        <time>2025-04-29T09:11:21Z</time>
      </trkpt>
      <trkpt lat="42.922319993376732" lon="-4.919314999133349">
        <ele>1295.51</ele>
        <time>2025-04-29T09:11:22Z</time>
      </trkpt>
      <trkpt lat="42.922200970351696" lon="-4.919346012175083">
        <ele>1295.03</ele>
        <time>2025-04-29T09:11:23Z</time>
      </trkpt>
      <trkpt lat="42.921857982873917" lon="-4.919374007731676">
        <ele>1293.1099999999999</ele>
        <time>2025-04-29T09:11:26Z</time>
      </trkpt>
      <trkpt lat="42.921718005090952" lon="-4.919385993853211">
        <ele>1292.6300000000001</ele>
        <time>2025-04-29T09:11:27Z</time>
      </trkpt>
      <trkpt lat="42.921658996492624" lon="-4.919443996623159">
        <ele>1292.6300000000001</ele>
        <time>2025-04-29T09:11:28Z</time>
      </trkpt>
      <trkpt lat="42.921588001772761" lon="-4.91955203935504">
        <ele>1292.1500000000001</ele>
        <time>2025-04-29T09:11:29Z</time>
      </trkpt>
      <trkpt lat="42.921552965417504" lon="-4.919700985774398">
        <ele>1291.6700000000001</ele>
        <time>2025-04-29T09:11:30Z</time>
      </trkpt>
      <trkpt lat="42.921575009822845" lon="-4.91981003433466">
        <ele>1291.1900000000001</ele>
        <time>2025-04-29T09:11:31Z</time>
      </trkpt>
      <trkpt lat="42.921644998714328" lon="-4.919955963268876">
        <ele>1291.1900000000001</ele>
        <time>2025-04-29T09:11:32Z</time>
      </trkpt>
      <trkpt lat="42.921728985384107" lon="-4.920070040971041">
        <ele>1290.71</ele>
        <time>2025-04-29T09:11:33Z</time>
      </trkpt>
      <trkpt lat="42.921816995367408" lon="-4.920188980177045">
        <ele>1290.71</ele>
        <time>2025-04-29T09:11:34Z</time>
      </trkpt>
      <trkpt lat="42.921888995915651" lon="-4.92028696462512">
        <ele>1290.71</ele>
        <time>2025-04-29T09:11:35Z</time>
      </trkpt>
      <trkpt lat="42.921897964552045" lon="-4.920381009578705">
        <ele>1290.71</ele>
        <time>2025-04-29T09:11:36Z</time>
      </trkpt>
      <trkpt lat="42.92190701700747" lon="-4.920472037047148">
        <ele>1290.71</ele>
        <time>2025-04-29T09:11:37Z</time>
      </trkpt>
      <trkpt lat="42.921915985643864" lon="-4.920562980696559">
        <ele>1290.71</ele>
        <time>2025-04-29T09:11:38Z</time>
      </trkpt>
      <trkpt lat="42.921925038099289" lon="-4.920659959316254">
        <ele>1290.23</ele>
        <time>2025-04-29T09:11:39Z</time>
      </trkpt>
      <trkpt lat="42.921931995078921" lon="-4.920737994834781">
        <ele>1290.23</ele>
        <time>2025-04-29T09:11:40Z</time>
      </trkpt>
      <trkpt lat="42.921988992020488" lon="-4.920814018696547">
        <ele>1290.23</ele>
        <time>2025-04-29T09:11:41Z</time>
      </trkpt>
      <trkpt lat="42.922041965648532" lon="-4.920817958191037">
        <ele>1290.71</ele>
        <time>2025-04-29T09:11:42Z</time>
      </trkpt>
      <trkpt lat="42.92212100699544" lon="-4.920808989554644">
        <ele>1290.71</ele>
        <time>2025-04-29T09:11:43Z</time>
      </trkpt>
      <trkpt lat="42.922203987836838" lon="-4.92079901508987">
        <ele>1290.71</ele>
        <time>2025-04-29T09:11:44Z</time>
      </trkpt>
      <trkpt lat="42.922289986163378" lon="-4.920789040625095">
        <ele>1291.6700000000001</ele>
        <time>2025-04-29T09:11:45Z</time>
      </trkpt>
      <trkpt lat="42.922388976439834" lon="-4.920792980119586">
        <ele>1292.1500000000001</ele>
        <time>2025-04-29T09:11:46Z</time>
      </trkpt>
      <trkpt lat="42.922489978373051" lon="-4.920836985111237">
        <ele>1292.6300000000001</ele>
        <time>2025-04-29T09:11:47Z</time>
      </trkpt>
      <trkpt lat="42.922599026933312" lon="-4.920884007588029">
        <ele>1293.1099999999999</ele>
        <time>2025-04-29T09:11:48Z</time>
      </trkpt>
      <trkpt lat="42.922817040234804" lon="-4.920978974550962">
        <ele>1293.5899999999999</ele>
        <time>2025-04-29T09:11:50Z</time>
      </trkpt>
      <trkpt lat="42.92291603051126" lon="-4.92097201757133">
        <ele>1293.5899999999999</ele>
        <time>2025-04-29T09:11:51Z</time>
      </trkpt>
      <trkpt lat="42.923022983595729" lon="-4.920930024236441">
        <ele>1293.5899999999999</ele>
        <time>2025-04-29T09:11:52Z</time>
      </trkpt>
      <trkpt lat="42.923127003014088" lon="-4.920889958739281">
        <ele>1293.5899999999999</ele>
        <time>2025-04-29T09:11:53Z</time>
      </trkpt>
      <trkpt lat="42.923231022432446" lon="-4.920848971232772">
        <ele>1293.5899999999999</ele>
        <time>2025-04-29T09:11:54Z</time>
      </trkpt>
      <trkpt lat="42.923355996608734" lon="-4.920845031738281">
        <ele>1294.0699999999999</ele>
        <time>2025-04-29T09:11:55Z</time>
      </trkpt>
      <trkpt lat="42.923476025462151" lon="-4.920845031738281">
        <ele>1294.0699999999999</ele>
        <time>2025-04-29T09:11:56Z</time>
      </trkpt>
      <trkpt lat="42.923603011295199" lon="-4.920845031738281">
        <ele>1293.5899999999999</ele>
        <time>2025-04-29T09:11:57Z</time>
      </trkpt>
      <trkpt lat="42.923737037926912" lon="-4.920863974839449">
        <ele>1293.5899999999999</ele>
        <time>2025-04-29T09:11:58Z</time>
      </trkpt>
      <trkpt lat="42.923858994618058" lon="-4.920916026458144">
        <ele>1293.1099999999999</ele>
        <time>2025-04-29T09:11:59Z</time>
      </trkpt>
      <trkpt lat="42.923973994329572" lon="-4.920964976772666">
        <ele>1293.1099999999999</ele>
        <time>2025-04-29T09:12:00Z</time>
      </trkpt>
      <trkpt lat="42.924082037061453" lon="-4.921009987592697">
        <ele>1292.6300000000001</ele>
        <time>2025-04-29T09:12:01Z</time>
      </trkpt>
      <trkpt lat="42.924250010401011" lon="-4.92108098231256">
        <ele>1292.1500000000001</ele>
        <time>2025-04-29T09:12:03Z</time>
      </trkpt>
      <trkpt lat="42.924315975978971" lon="-4.921190030872822">
        <ele>1292.1500000000001</ele>
        <time>2025-04-29T09:12:04Z</time>
      </trkpt>
      <trkpt lat="42.924373978748918" lon="-4.921283992007375">
        <ele>1291.6700000000001</ele>
        <time>2025-04-29T09:12:05Z</time>
      </trkpt>
      <trkpt lat="42.924423012882471" lon="-4.92138097062707">
        <ele>1290.71</ele>
        <time>2025-04-29T09:12:06Z</time>
      </trkpt>
      <trkpt lat="42.924432987347245" lon="-4.921511979773641">
        <ele>1289.75</ele>
        <time>2025-04-29T09:12:07Z</time>
      </trkpt>
      <trkpt lat="42.924442961812019" lon="-4.92163896560669">
        <ele>1288.3</ele>
        <time>2025-04-29T09:12:08Z</time>
      </trkpt>
      <trkpt lat="42.924429969862103" lon="-4.921808028593659">
        <ele>1287.3399999999999</ele>
        <time>2025-04-29T09:12:09Z</time>
      </trkpt>
      <trkpt lat="42.924409015104175" lon="-4.921964015811682">
        <ele>1286.8599999999999</ele>
        <time>2025-04-29T09:12:10Z</time>
      </trkpt>
      <trkpt lat="42.924366015940905" lon="-4.922130983322859">
        <ele>1285.9000000000001</ele>
        <time>2025-04-29T09:12:11Z</time>
      </trkpt>
      <trkpt lat="42.924317987635732" lon="-4.922311026602984">
        <ele>1284.9400000000001</ele>
        <time>2025-04-29T09:12:12Z</time>
      </trkpt>
      <trkpt lat="42.924130987375975" lon="-4.923022985458374">
        <ele>1281.0899999999999</ele>
        <time>2025-04-29T09:12:16Z</time>
      </trkpt>
      <trkpt lat="42.923906017094851" lon="-4.924074998125434">
        <ele>1276.77</ele>
        <time>2025-04-29T09:12:22Z</time>
      </trkpt>
      <trkpt lat="42.923892019316554" lon="-4.92475301027298">
        <ele>1273.4000000000001</ele>
        <time>2025-04-29T09:12:26Z</time>
      </trkpt>
      <trkpt lat="42.923890007659793" lon="-4.924885025247932">
        <ele>1272.9200000000001</ele>
        <time>2025-04-29T09:12:27Z</time>
      </trkpt>
      <trkpt lat="42.923886990174651" lon="-4.924994995817542">
        <ele>1271.96</ele>
        <time>2025-04-29T09:12:28Z</time>
      </trkpt>
      <trkpt lat="42.923885984346271" lon="-4.925085017457604">
        <ele>1271</ele>
        <time>2025-04-29T09:12:29Z</time>
      </trkpt>
      <trkpt lat="42.923894030973315" lon="-4.925131034106016">
        <ele>1270.04</ele>
        <time>2025-04-29T09:12:30Z</time>
      </trkpt>
      <trkpt lat="42.923923032358289" lon="-4.925178978592157">
        <ele>1269.0799999999999</ele>
        <time>2025-04-29T09:12:31Z</time>
      </trkpt>
      <trkpt lat="42.923949016258121" lon="-4.925221977755427">
        <ele>1268.1199999999999</ele>
        <time>2025-04-29T09:12:32Z</time>
      </trkpt>
      <trkpt lat="42.923996038734913" lon="-4.92520697414875">
        <ele>1267.6400000000001</ele>
        <time>2025-04-29T09:12:33Z</time>
      </trkpt>
      <trkpt lat="42.924078013747931" lon="-4.925179984420538">
        <ele>1267.6400000000001</ele>
        <time>2025-04-29T09:12:34Z</time>
      </trkpt>
      <trkpt lat="42.924114977940917" lon="-4.925107983872294">
        <ele>1266.6700000000001</ele>
        <time>2025-04-29T09:12:35Z</time>
      </trkpt>
      <trkpt lat="42.924171974882483" lon="-4.925000024959445">
        <ele>1265.71</ele>
        <time>2025-04-29T09:12:36Z</time>
      </trkpt>
      <trkpt lat="42.924300972372293" lon="-4.924750998616219">
        <ele>1264.75</ele>
        <time>2025-04-29T09:12:38Z</time>
      </trkpt>
      <trkpt lat="42.924525020644069" lon="-4.92445201613009">
        <ele>1263.79</ele>
        <time>2025-04-29T09:12:41Z</time>
      </trkpt>
      <trkpt lat="42.924590986222029" lon="-4.924371968954802">
        <ele>1263.3099999999999</ele>
        <time>2025-04-29T09:12:42Z</time>
      </trkpt>
      <trkpt lat="42.924687964841723" lon="-4.924313966184855">
        <ele>1263.3099999999999</ele>
        <time>2025-04-29T09:12:43Z</time>
      </trkpt>
      <trkpt lat="42.924768012017012" lon="-4.924282031133771">
        <ele>1262.8299999999999</ele>
        <time>2025-04-29T09:12:44Z</time>
      </trkpt>
      <trkpt lat="42.924882005900145" lon="-4.924270967021585">
        <ele>1262.3499999999999</ele>
        <time>2025-04-29T09:12:45Z</time>
      </trkpt>
      <trkpt lat="42.924985019490123" lon="-4.924298962578178">
        <ele>1261.3900000000001</ele>
        <time>2025-04-29T09:12:46Z</time>
      </trkpt>
      <trkpt lat="42.925068000331521" lon="-4.924321006983519">
        <ele>1260.4300000000001</ele>
        <time>2025-04-29T09:12:47Z</time>
      </trkpt>
      <trkpt lat="42.9251519870013" lon="-4.92430399172008">
        <ele>1259.46</ele>
        <time>2025-04-29T09:12:48Z</time>
      </trkpt>
      <trkpt lat="42.925189035013318" lon="-4.924267027527094">
        <ele>1258.5</ele>
        <time>2025-04-29T09:12:49Z</time>
      </trkpt>
      <trkpt lat="42.925245026126504" lon="-4.924160996451974">
        <ele>1258.02</ele>
        <time>2025-04-29T09:12:50Z</time>
      </trkpt>
      <trkpt lat="42.925305040553212" lon="-4.92404499091208">
        <ele>1257.54</ele>
        <time>2025-04-29T09:12:51Z</time>
      </trkpt>
      <trkpt lat="42.925373017787933" lon="-4.923912975937128">
        <ele>1257.0599999999999</ele>
        <time>2025-04-29T09:12:52Z</time>
      </trkpt>
      <trkpt lat="42.925450969487429" lon="-4.923763023689389">
        <ele>1256.5799999999999</ele>
        <time>2025-04-29T09:12:53Z</time>
      </trkpt>
      <trkpt lat="42.925541996955872" lon="-4.92368096485734">
        <ele>1256.0999999999999</ele>
        <time>2025-04-29T09:12:54Z</time>
      </trkpt>
      <trkpt lat="42.925638975575566" lon="-4.9235949665308">
        <ele>1255.6199999999999</ele>
        <time>2025-04-29T09:12:55Z</time>
      </trkpt>
      <trkpt lat="42.925811978057027" lon="-4.923438979312778">
        <ele>1255.1400000000001</ele>
        <time>2025-04-29T09:12:57Z</time>
      </trkpt>
      <trkpt lat="42.925892025232315" lon="-4.923352980986238">
        <ele>1255.1400000000001</ele>
        <time>2025-04-29T09:12:58Z</time>
      </trkpt>
      <trkpt lat="42.926093023270369" lon="-4.922951990738511">
        <ele>1253.22</ele>
        <time>2025-04-29T09:13:01Z</time>
      </trkpt>
      <trkpt lat="42.926158988848329" lon="-4.922818969935179">
        <ele>1253.22</ele>
        <time>2025-04-29T09:13:02Z</time>
      </trkpt>
      <trkpt lat="42.926211040467024" lon="-4.922792986035347">
        <ele>1252.74</ele>
        <time>2025-04-29T09:13:03Z</time>
      </trkpt>
      <trkpt lat="42.926311958581209" lon="-4.922763984650374">
        <ele>1252.74</ele>
        <time>2025-04-29T09:13:04Z</time>
      </trkpt>
      <trkpt lat="42.92639602907002" lon="-4.922794997692108">
        <ele>1251.77</ele>
        <time>2025-04-29T09:13:05Z</time>
      </trkpt>
      <trkpt lat="42.926492001861334" lon="-4.922850988805294">
        <ele>1250.8099999999999</ele>
        <time>2025-04-29T09:13:06Z</time>
      </trkpt>
      <trkpt lat="42.926574982702732" lon="-4.922933969646692">
        <ele>1249.8499999999999</ele>
        <time>2025-04-29T09:13:07Z</time>
      </trkpt>
      <trkpt lat="42.926659975200891" lon="-4.923018962144852">
        <ele>1249.3699999999999</ele>
        <time>2025-04-29T09:13:08Z</time>
      </trkpt>
      <trkpt lat="42.92674102820456" lon="-4.923129016533494">
        <ele>1248.8900000000001</ele>
        <time>2025-04-29T09:13:09Z</time>
      </trkpt>
      <trkpt lat="42.926809005439281" lon="-4.923238987103105">
        <ele>1248.8900000000001</ele>
        <time>2025-04-29T09:13:10Z</time>
      </trkpt>
      <trkpt lat="42.927016038447618" lon="-4.923576023429632">
        <ele>1249.3699999999999</ele>
        <time>2025-04-29T09:13:13Z</time>
      </trkpt>
      <trkpt lat="42.927069012075663" lon="-4.923725975677371">
        <ele>1249.8499999999999</ele>
        <time>2025-04-29T09:13:14Z</time>
      </trkpt>
      <trkpt lat="42.927291970700026" lon="-4.924556035548449">
        <ele>1249.3699999999999</ele>
        <time>2025-04-29T09:13:19Z</time>
      </trkpt>
      <trkpt lat="42.927453992888331" lon="-4.925149977207184">
        <ele>1247.9300000000001</ele>
        <time>2025-04-29T09:13:23Z</time>
      </trkpt>
      <trkpt lat="42.92751400731504" lon="-4.925260031595826">
        <ele>1247.45</ele>
        <time>2025-04-29T09:13:24Z</time>
      </trkpt>
      <trkpt lat="42.927576033398509" lon="-4.925373019650579">
        <ele>1247.45</ele>
        <time>2025-04-29T09:13:25Z</time>
      </trkpt>
      <trkpt lat="42.927811983972788" lon="-4.925630008801818">
        <ele>1247.45</ele>
        <time>2025-04-29T09:13:28Z</time>
      </trkpt>
      <trkpt lat="42.927926983684301" lon="-4.925852967426181">
        <ele>1246.97</ele>
        <time>2025-04-29T09:13:30Z</time>
      </trkpt>
      <trkpt lat="42.927969982847571" lon="-4.92599998600781">
        <ele>1246.97</ele>
        <time>2025-04-29T09:13:31Z</time>
      </trkpt>
      <trkpt lat="42.928013987839222" lon="-4.926152033731341">
        <ele>1246.49</ele>
        <time>2025-04-29T09:13:32Z</time>
      </trkpt>
      <trkpt lat="42.928107026964426" lon="-4.926471970975399">
        <ele>1245.53</ele>
        <time>2025-04-29T09:13:34Z</time>
      </trkpt>
      <trkpt lat="42.928154971450567" lon="-4.926637010648847">
        <ele>1245.04</ele>
        <time>2025-04-29T09:13:35Z</time>
      </trkpt>
      <trkpt lat="42.928455965593457" lon="-4.927845010533929">
        <ele>1241.2</ele>
        <time>2025-04-29T09:13:43Z</time>
      </trkpt>
      <trkpt lat="42.92848002165556" lon="-4.927963027730584">
        <ele>1241.2</ele>
        <time>2025-04-29T09:13:44Z</time>
      </trkpt>
      <trkpt lat="42.928513968363404" lon="-4.928072998300195">
        <ele>1240.72</ele>
        <time>2025-04-29T09:13:45Z</time>
      </trkpt>
      <trkpt lat="42.928570965304971" lon="-4.928139969706535">
        <ele>1240.72</ele>
        <time>2025-04-29T09:13:46Z</time>
      </trkpt>
      <trkpt lat="42.928666016086936" lon="-4.928200989961624">
        <ele>1240.72</ele>
        <time>2025-04-29T09:13:47Z</time>
      </trkpt>
      <trkpt lat="42.928746985271573" lon="-4.928193027153611">
        <ele>1240.72</ele>
        <time>2025-04-29T09:13:48Z</time>
      </trkpt>
      <trkpt lat="42.928849998861551" lon="-4.928178023546934">
        <ele>1240.72</ele>
        <time>2025-04-29T09:13:49Z</time>
      </trkpt>
      <trkpt lat="42.928930968046188" lon="-4.928122032433748">
        <ele>1240.24</ele>
        <time>2025-04-29T09:13:50Z</time>
      </trkpt>
      <trkpt lat="42.92901897802949" lon="-4.928061012178659">
        <ele>1240.24</ele>
        <time>2025-04-29T09:13:51Z</time>
      </trkpt>
      <trkpt lat="42.929179994389415" lon="-4.927983982488513">
        <ele>1240.24</ele>
        <time>2025-04-29T09:13:53Z</time>
      </trkpt>
      <trkpt lat="42.929265992715955" lon="-4.927974008023739">
        <ele>1239.76</ele>
        <time>2025-04-29T09:13:54Z</time>
      </trkpt>
      <trkpt lat="42.929329024627805" lon="-4.927985994145274">
        <ele>1240.24</ele>
        <time>2025-04-29T09:13:55Z</time>
      </trkpt>
      <trkpt lat="42.929394990205765" lon="-4.928064029663801">
        <ele>1240.24</ele>
        <time>2025-04-29T09:13:56Z</time>
      </trkpt>
      <trkpt lat="42.929453998804092" lon="-4.928152961656451">
        <ele>1240.24</ele>
        <time>2025-04-29T09:13:57Z</time>
      </trkpt>
      <trkpt lat="42.929494986310601" lon="-4.928278019651771">
        <ele>1240.24</ele>
        <time>2025-04-29T09:13:58Z</time>
      </trkpt>
      <trkpt lat="42.929538991302252" lon="-4.928409028798342">
        <ele>1240.24</ele>
        <time>2025-04-29T09:13:59Z</time>
      </trkpt>
      <trkpt lat="42.92957897298038" lon="-4.928528973832727">
        <ele>1240.24</ele>
        <time>2025-04-29T09:14:00Z</time>
      </trkpt>
      <trkpt lat="42.929674023762345" lon="-4.928604997694492">
        <ele>1239.76</ele>
        <time>2025-04-29T09:14:01Z</time>
      </trkpt>
      <trkpt lat="42.929768990725279" lon="-4.928626036271453">
        <ele>1239.76</ele>
        <time>2025-04-29T09:14:02Z</time>
      </trkpt>
      <trkpt lat="42.929855994880199" lon="-4.928597034886479">
        <ele>1239.76</ele>
        <time>2025-04-29T09:14:03Z</time>
      </trkpt>
      <trkpt lat="42.929946016520262" lon="-4.9285579752177">
        <ele>1239.76</ele>
        <time>2025-04-29T09:14:04Z</time>
      </trkpt>
      <trkpt lat="42.930036960169673" lon="-4.928517993539572">
        <ele>1239.76</ele>
        <time>2025-04-29T09:14:05Z</time>
      </trkpt>
      <trkpt lat="42.930179033428431" lon="-4.928437024354935">
        <ele>1239.28</ele>
        <time>2025-04-29T09:14:07Z</time>
      </trkpt>
      <trkpt lat="42.930222032591701" lon="-4.928411040455103">
        <ele>1238.8</ele>
        <time>2025-04-29T09:14:08Z</time>
      </trkpt>
      <trkpt lat="42.930248016491532" lon="-4.928288999944925">
        <ele>1238.3199999999999</ele>
        <time>2025-04-29T09:14:09Z</time>
      </trkpt>
      <trkpt lat="42.930227983742952" lon="-4.928235020488501">
        <ele>1237.8299999999999</ele>
        <time>2025-04-29T09:14:10Z</time>
      </trkpt>
      <trkpt lat="42.930198982357979" lon="-4.928151033818722">
        <ele>1236.8699999999999</ele>
        <time>2025-04-29T09:14:11Z</time>
      </trkpt>
      <trkpt lat="42.930164029821754" lon="-4.928035028278828">
        <ele>1236.3900000000001</ele>
        <time>2025-04-29T09:14:12Z</time>
      </trkpt>
      <trkpt lat="42.930026985704899" lon="-4.927098015323281">
        <ele>1233.51</ele>
        <time>2025-04-29T09:14:17Z</time>
      </trkpt>
      <trkpt lat="42.93004903011024" lon="-4.926840020343661">
        <ele>1232.55</ele>
        <time>2025-04-29T09:14:18Z</time>
      </trkpt>
      <trkpt lat="42.930094040930271" lon="-4.926571967080236">
        <ele>1231.5899999999999</ele>
        <time>2025-04-29T09:14:19Z</time>
      </trkpt>
      <trkpt lat="42.930300990119576" lon="-4.925074959173799">
        <ele>1226.78</ele>
        <time>2025-04-29T09:14:24Z</time>
      </trkpt>
      <trkpt lat="42.930300990119576" lon="-4.92477698251605">
        <ele>1225.3399999999999</ele>
        <time>2025-04-29T09:14:25Z</time>
      </trkpt>
      <trkpt lat="42.930258996784687" lon="-4.924494009464979">
        <ele>1223.9000000000001</ele>
        <time>2025-04-29T09:14:26Z</time>
      </trkpt>
      <trkpt lat="42.930192025378346" lon="-4.924224028363824">
        <ele>1222.45</ele>
        <time>2025-04-29T09:14:27Z</time>
      </trkpt>
      <trkpt lat="42.930104015395045" lon="-4.923949018120766">
        <ele>1221.01</ele>
        <time>2025-04-29T09:14:28Z</time>
      </trkpt>
      <trkpt lat="42.930018017068505" lon="-4.92367803119123">
        <ele>1219.5699999999999</ele>
        <time>2025-04-29T09:14:29Z</time>
      </trkpt>
      <trkpt lat="42.929778965190053" lon="-4.922837996855378">
        <ele>1215.24</ele>
        <time>2025-04-29T09:14:32Z</time>
      </trkpt>
      <trkpt lat="42.929762033745646" lon="-4.922544965520501">
        <ele>1213.8</ele>
        <time>2025-04-29T09:14:33Z</time>
      </trkpt>
      <trkpt lat="42.929744012653828" lon="-4.922251012176275">
        <ele>1212.3599999999999</ele>
        <time>2025-04-29T09:14:34Z</time>
      </trkpt>
      <trkpt lat="42.929725991562009" lon="-4.921954963356257">
        <ele>1210.4400000000001</ele>
        <time>2025-04-29T09:14:35Z</time>
      </trkpt>
      <trkpt lat="42.929681986570358" lon="-4.921663021668792">
        <ele>1209</ele>
        <time>2025-04-29T09:14:36Z</time>
      </trkpt>
      <trkpt lat="42.929610991850495" lon="-4.921370996162295">
        <ele>1208.03</ele>
        <time>2025-04-29T09:14:37Z</time>
      </trkpt>
      <trkpt lat="42.929529016837478" lon="-4.921085005626082">
        <ele>1207.0699999999999</ele>
        <time>2025-04-29T09:14:38Z</time>
      </trkpt>
      <trkpt lat="42.928913030773401" lon="-4.918836979195476">
        <ele>1199.3800000000001</ele>
        <time>2025-04-29T09:14:46Z</time>
      </trkpt>
      <trkpt lat="42.92888998053968" lon="-4.918603962287307">
        <ele>1198.4200000000001</ele>
        <time>2025-04-29T09:14:47Z</time>
      </trkpt>
      <trkpt lat="42.928918981924653" lon="-4.918369017541409">
        <ele>1197.46</ele>
        <time>2025-04-29T09:14:48Z</time>
      </trkpt>
      <trkpt lat="42.928967010229826" lon="-4.918120997026563">
        <ele>1196.02</ele>
        <time>2025-04-29T09:14:49Z</time>
      </trkpt>
      <trkpt lat="42.92901897802949" lon="-4.917860990390182">
        <ele>1195.0599999999999</ele>
        <time>2025-04-29T09:14:50Z</time>
      </trkpt>
      <trkpt lat="42.929091984406114" lon="-4.917593020945787">
        <ele>1194.0899999999999</ele>
        <time>2025-04-29T09:14:51Z</time>
      </trkpt>
      <trkpt lat="42.929572016000748" lon="-4.915961986407638">
        <ele>1187.8499999999999</ele>
        <time>2025-04-29T09:14:57Z</time>
      </trkpt>
      <trkpt lat="42.929661031812429" lon="-4.915723018348217">
        <ele>1186.4000000000001</ele>
        <time>2025-04-29T09:14:58Z</time>
      </trkpt>
      <trkpt lat="42.929809978231788" lon="-4.915508022531867">
        <ele>1184.96</ele>
        <time>2025-04-29T09:14:59Z</time>
      </trkpt>
      <trkpt lat="42.930848998948932" lon="-4.914079997688532">
        <ele>1177.27</ele>
        <time>2025-04-29T09:15:06Z</time>
      </trkpt>
      <trkpt lat="42.931018983945251" lon="-4.913958963006735">
        <ele>1176.3099999999999</ele>
        <time>2025-04-29T09:15:07Z</time>
      </trkpt>
      <trkpt lat="42.931213025003672" lon="-4.913886040449143">
        <ele>1174.8699999999999</ele>
        <time>2025-04-29T09:15:08Z</time>
      </trkpt>
      <trkpt lat="42.93142600916326" lon="-4.913844969123602">
        <ele>1173.9100000000001</ele>
        <time>2025-04-29T09:15:09Z</time>
      </trkpt>
      <trkpt lat="42.931652991101146" lon="-4.913832983002067">
        <ele>1172.95</ele>
        <time>2025-04-29T09:15:10Z</time>
      </trkpt>
      <trkpt lat="42.931885002180934" lon="-4.913819991052151">
        <ele>1171.98</ele>
        <time>2025-04-29T09:15:11Z</time>
      </trkpt>
      <trkpt lat="42.932116007432342" lon="-4.913808004930615">
        <ele>1171.02</ele>
        <time>2025-04-29T09:15:12Z</time>
      </trkpt>
      <trkpt lat="42.932342989370227" lon="-4.913870031014085">
        <ele>1170.0599999999999</ele>
        <time>2025-04-29T09:15:13Z</time>
      </trkpt>
      <trkpt lat="42.932577012106776" lon="-4.913938008248806">
        <ele>1169.0999999999999</ele>
        <time>2025-04-29T09:15:14Z</time>
      </trkpt>
      <trkpt lat="42.933060983195901" lon="-4.91403398104012">
        <ele>1166.7</ele>
        <time>2025-04-29T09:15:16Z</time>
      </trkpt>
      <trkpt lat="42.93329400010407" lon="-4.913995005190373">
        <ele>1165.26</ele>
        <time>2025-04-29T09:15:17Z</time>
      </trkpt>
      <trkpt lat="42.933522993698716" lon="-4.913926022127271">
        <ele>1163.8099999999999</ele>
        <time>2025-04-29T09:15:18Z</time>
      </trkpt>
      <trkpt lat="42.93396002613008" lon="-4.9137950129807">
        <ele>1161.4100000000001</ele>
        <time>2025-04-29T09:15:20Z</time>
      </trkpt>
      <trkpt lat="42.934192959219217" lon="-4.9137759860605">
        <ele>1159.97</ele>
        <time>2025-04-29T09:15:21Z</time>
      </trkpt>
      <trkpt lat="42.934435028582811" lon="-4.913765005767345">
        <ele>1159.01</ele>
        <time>2025-04-29T09:15:22Z</time>
      </trkpt>
      <trkpt lat="42.934679025784135" lon="-4.913754025474191">
        <ele>1157.5599999999999</ele>
        <time>2025-04-29T09:15:23Z</time>
      </trkpt>
      <trkpt lat="42.9349260404706" lon="-4.913742039352655">
        <ele>1156.5999999999999</ele>
        <time>2025-04-29T09:15:24Z</time>
      </trkpt>
      <trkpt lat="42.935175988823175" lon="-4.913737010210753">
        <ele>1156.1199999999999</ele>
        <time>2025-04-29T09:15:25Z</time>
      </trkpt>
      <trkpt lat="42.935433983802795" lon="-4.913730975240469">
        <ele>1155.1600000000001</ele>
        <time>2025-04-29T09:15:26Z</time>
      </trkpt>
      <trkpt lat="42.935694996267557" lon="-4.913725024089217">
        <ele>1154.2</ele>
        <time>2025-04-29T09:15:27Z</time>
      </trkpt>
      <trkpt lat="42.93595802038908" lon="-4.913701973855496">
        <ele>1152.76</ele>
        <time>2025-04-29T09:15:28Z</time>
      </trkpt>
      <trkpt lat="42.936224984005094" lon="-4.913638019934297">
        <ele>1152.28</ele>
        <time>2025-04-29T09:15:29Z</time>
      </trkpt>
      <trkpt lat="42.937629958614707" lon="-4.91341196000576">
        <ele>1147.47</ele>
        <time>2025-04-29T09:15:35Z</time>
      </trkpt>
      <trkpt lat="42.938340995460749" lon="-4.913373989984393">
        <ele>1146.51</ele>
        <time>2025-04-29T09:15:40Z</time>
      </trkpt>
      <trkpt lat="42.938422970473766" lon="-4.913365021348">
        <ele>1146.03</ele>
        <time>2025-04-29T09:15:41Z</time>
      </trkpt>
      <trkpt lat="42.938562026247382" lon="-4.913549004122615">
        <ele>1146.03</ele>
        <time>2025-04-29T09:15:42Z</time>
      </trkpt>
      <trkpt lat="42.938577029854059" lon="-4.913568031042814">
        <ele>1145.55</ele>
        <time>2025-04-29T09:15:43Z</time>
      </trkpt>
      <trkpt lat="42.938677025958896" lon="-4.913696022704244">
        <ele>1145.0699999999999</ele>
        <time>2025-04-29T09:15:44Z</time>
      </trkpt>
      <trkpt lat="42.938785990700126" lon="-4.913833988830447">
        <ele>1145.0699999999999</ele>
        <time>2025-04-29T09:15:45Z</time>
      </trkpt>
      <trkpt lat="42.938939966261387" lon="-4.913940019905567">
        <ele>1145.0699999999999</ele>
        <time>2025-04-29T09:15:46Z</time>
      </trkpt>
      <trkpt lat="42.939100982621312" lon="-4.914043033495545">
        <ele>1144.5899999999999</ele>
        <time>2025-04-29T09:15:47Z</time>
      </trkpt>
      <trkpt lat="42.939263004809618" lon="-4.914145963266492">
        <ele>1144.5899999999999</ele>
        <time>2025-04-29T09:15:48Z</time>
      </trkpt>
      <trkpt lat="42.939445981755853" lon="-4.914174964651465">
        <ele>1144.1099999999999</ele>
        <time>2025-04-29T09:15:49Z</time>
      </trkpt>
      <trkpt lat="42.939634993672371" lon="-4.91420203819871">
        <ele>1144.1099999999999</ele>
        <time>2025-04-29T09:15:50Z</time>
      </trkpt>
      <trkpt lat="42.939827023074031" lon="-4.91420203819871">
        <ele>1144.1099999999999</ele>
        <time>2025-04-29T09:15:51Z</time>
      </trkpt>
      <trkpt lat="42.940026009455323" lon="-4.914176976308227">
        <ele>1143.6300000000001</ele>
        <time>2025-04-29T09:15:52Z</time>
      </trkpt>
      <trkpt lat="42.942014029249549" lon="-4.914031969383359">
        <ele>1144.5899999999999</ele>
        <time>2025-04-29T09:16:01Z</time>
      </trkpt>
      <trkpt lat="42.943411041051149" lon="-4.914215030148625">
        <ele>1143.1400000000001</ele>
        <time>2025-04-29T09:16:07Z</time>
      </trkpt>
      <trkpt lat="42.943622013553977" lon="-4.914326006546617">
        <ele>1143.1400000000001</ele>
        <time>2025-04-29T09:16:08Z</time>
      </trkpt>
      <trkpt lat="42.943829968571663" lon="-4.914447041228414">
        <ele>1142.6600000000001</ele>
        <time>2025-04-29T09:16:09Z</time>
      </trkpt>
      <trkpt lat="42.944030966609716" lon="-4.914595987647772">
        <ele>1142.6600000000001</ele>
        <time>2025-04-29T09:16:10Z</time>
      </trkpt>
      <trkpt lat="42.944232970476151" lon="-4.914746023714542">
        <ele>1142.1800000000001</ele>
        <time>2025-04-29T09:16:11Z</time>
      </trkpt>
      <trkpt lat="42.945673987269402" lon="-4.91575101390481">
        <ele>1138.3399999999999</ele>
        <time>2025-04-29T09:16:18Z</time>
      </trkpt>
      <trkpt lat="42.945854030549526" lon="-4.915934996679425">
        <ele>1138.3399999999999</ele>
        <time>2025-04-29T09:16:19Z</time>
      </trkpt>
      <trkpt lat="42.94640002772212" lon="-4.916492979973555">
        <ele>1137.8599999999999</ele>
        <time>2025-04-29T09:16:22Z</time>
      </trkpt>
      <trkpt lat="42.946602031588554" lon="-4.916645027697086">
        <ele>1137.8599999999999</ele>
        <time>2025-04-29T09:16:23Z</time>
      </trkpt>
      <trkpt lat="42.947778012603521" lon="-4.917493024840951">
        <ele>1136.4200000000001</ele>
        <time>2025-04-29T09:16:29Z</time>
      </trkpt>
      <trkpt lat="42.94797096401453" lon="-4.917570976540446">
        <ele>1135.9400000000001</ele>
        <time>2025-04-29T09:16:30Z</time>
      </trkpt>
      <trkpt lat="42.948184031993151" lon="-4.917594026774168">
        <ele>1135.45</ele>
        <time>2025-04-29T09:16:31Z</time>
      </trkpt>
      <trkpt lat="42.948847962543368" lon="-4.917665021494031">
        <ele>1135.45</ele>
        <time>2025-04-29T09:16:34Z</time>
      </trkpt>
      <trkpt lat="42.949062958359718" lon="-4.917741967365146">
        <ele>1135.45</ele>
        <time>2025-04-29T09:16:35Z</time>
      </trkpt>
      <trkpt lat="42.949264040216804" lon="-4.917861996218562">
        <ele>1135.45</ele>
        <time>2025-04-29T09:16:36Z</time>
      </trkpt>
      <trkpt lat="42.949470989406109" lon="-4.917984958738089">
        <ele>1135.45</ele>
        <time>2025-04-29T09:16:37Z</time>
      </trkpt>
      <trkpt lat="42.949682967737317" lon="-4.918111022561789">
        <ele>1135.45</ele>
        <time>2025-04-29T09:16:38Z</time>
      </trkpt>
      <trkpt lat="42.951444005593657" lon="-4.919205028563738">
        <ele>1133.05</ele>
        <time>2025-04-29T09:16:46Z</time>
      </trkpt>
      <trkpt lat="42.952630966901779" lon="-4.919653963297606">
        <ele>1132.5699999999999</ele>
        <time>2025-04-29T09:16:51Z</time>
      </trkpt>
      <trkpt lat="42.952849986031651" lon="-4.91979000158608">
        <ele>1132.5699999999999</ele>
        <time>2025-04-29T09:16:52Z</time>
      </trkpt>
      <trkpt lat="42.953460020944476" lon="-4.920146986842156">
        <ele>1131.6099999999999</ele>
        <time>2025-04-29T09:16:55Z</time>
      </trkpt>
      <trkpt lat="42.953652972355485" lon="-4.920169031247497">
        <ele>1131.1300000000001</ele>
        <time>2025-04-29T09:16:56Z</time>
      </trkpt>
      <trkpt lat="42.953837960958481" lon="-4.920139024034143">
        <ele>1130.6500000000001</ele>
        <time>2025-04-29T09:16:57Z</time>
      </trkpt>
      <trkpt lat="42.95420098118484" lon="-4.920080015435815">
        <ele>1130.6500000000001</ele>
        <time>2025-04-29T09:16:59Z</time>
      </trkpt>
      <trkpt lat="42.954398039728403" lon="-4.920119997113943">
        <ele>1130.6500000000001</ele>
        <time>2025-04-29T09:17:00Z</time>
      </trkpt>
      <trkpt lat="42.955891024321318" lon="-4.920425014570355">
        <ele>1129.6900000000001</ele>
        <time>2025-04-29T09:17:07Z</time>
      </trkpt>
      <trkpt lat="42.956081964075565" lon="-4.920352008193731">
        <ele>1129.21</ele>
        <time>2025-04-29T09:17:08Z</time>
      </trkpt>
      <trkpt lat="42.956463005393744" lon="-4.920208007097244">
        <ele>1129.21</ele>
        <time>2025-04-29T09:17:10Z</time>
      </trkpt>
      <trkpt lat="42.956667020916939" lon="-4.92020096629858">
        <ele>1129.21</ele>
        <time>2025-04-29T09:17:11Z</time>
      </trkpt>
      <trkpt lat="42.956873970106244" lon="-4.920230973511934">
        <ele>1129.21</ele>
        <time>2025-04-29T09:17:12Z</time>
      </trkpt>
      <trkpt lat="42.958875987678766" lon="-4.920667000114918">
        <ele>1127.76</ele>
        <time>2025-04-29T09:17:21Z</time>
      </trkpt>
      <trkpt lat="42.959708981215954" lon="-4.921054998412728">
        <ele>1127.28</ele>
        <time>2025-04-29T09:17:25Z</time>
      </trkpt>
      <trkpt lat="42.960481038317084" lon="-4.921559002250433">
        <ele>1126.3199999999999</ele>
        <time>2025-04-29T09:17:29Z</time>
      </trkpt>
      <trkpt lat="42.960663009434938" lon="-4.92163896560669">
        <ele>1125.8399999999999</ele>
        <time>2025-04-29T09:17:30Z</time>
      </trkpt>
      <trkpt lat="42.960874987766147" lon="-4.921618010848761">
        <ele>1125.3599999999999</ele>
        <time>2025-04-29T09:17:31Z</time>
      </trkpt>
      <trkpt lat="42.962437961250544" lon="-4.92135800421238">
        <ele>1124.4000000000001</ele>
        <time>2025-04-29T09:17:38Z</time>
      </trkpt>
      <trkpt lat="42.964302012696862" lon="-4.921109983697534">
        <ele>1121.52</ele>
        <time>2025-04-29T09:17:46Z</time>
      </trkpt>
      <trkpt lat="42.965188985690475" lon="-4.921117024496198">
        <ele>1121.52</ele>
        <time>2025-04-29T09:17:50Z</time>
      </trkpt>
      <trkpt lat="42.965403981506824" lon="-4.921161029487848">
        <ele>1121.52</ele>
        <time>2025-04-29T09:17:51Z</time>
      </trkpt>
      <trkpt lat="42.965610008686781" lon="-4.921203022822738">
        <ele>1121.52</ele>
        <time>2025-04-29T09:17:52Z</time>
      </trkpt>
      <trkpt lat="42.965791979804635" lon="-4.921311987563968">
        <ele>1121.52</ele>
        <time>2025-04-29T09:17:53Z</time>
      </trkpt>
      <trkpt lat="42.965970011427999" lon="-4.921434028074145">
        <ele>1121.52</ele>
        <time>2025-04-29T09:17:54Z</time>
      </trkpt>
      <trkpt lat="42.966141002252698" lon="-4.921567970886827">
        <ele>1121.52</ele>
        <time>2025-04-29T09:17:55Z</time>
      </trkpt>
      <trkpt lat="42.966292966157198" lon="-4.921771986410022">
        <ele>1121.03</ele>
        <time>2025-04-29T09:17:56Z</time>
      </trkpt>
      <trkpt lat="42.966449037194252" lon="-4.921982036903501">
        <ele>1120.55</ele>
        <time>2025-04-29T09:17:57Z</time>
      </trkpt>
      <trkpt lat="42.966608041897416" lon="-4.922195021063089">
        <ele>1120.55</ele>
        <time>2025-04-29T09:17:58Z</time>
      </trkpt>
      <trkpt lat="42.967818975448608" lon="-4.923349963501096">
        <ele>1117.1900000000001</ele>
        <time>2025-04-29T09:18:05Z</time>
      </trkpt>
      <trkpt lat="42.968018967658281" lon="-4.923393968492746">
        <ele>1116.71</ele>
        <time>2025-04-29T09:18:06Z</time>
      </trkpt>
      <trkpt lat="42.968221977353096" lon="-4.923437973484397">
        <ele>1116.71</ele>
        <time>2025-04-29T09:18:07Z</time>
      </trkpt>
      <trkpt lat="42.968425992876291" lon="-4.923429004848003">
        <ele>1116.23</ele>
        <time>2025-04-29T09:18:08Z</time>
      </trkpt>
      <trkpt lat="42.969691995531321" lon="-4.923232030123472">
        <ele>1113.8199999999999</ele>
        <time>2025-04-29T09:18:15Z</time>
      </trkpt>
      <trkpt lat="42.970182001590729" lon="-4.923124993219972">
        <ele>1111.9000000000001</ele>
        <time>2025-04-29T09:18:19Z</time>
      </trkpt>
      <trkpt lat="42.970281997695565" lon="-4.923132034018636">
        <ele>1111.9000000000001</ele>
        <time>2025-04-29T09:18:20Z</time>
      </trkpt>
      <trkpt lat="42.970375036820769" lon="-4.923148965463042">
        <ele>1111.4200000000001</ele>
        <time>2025-04-29T09:18:21Z</time>
      </trkpt>
      <trkpt lat="42.9704649746418" lon="-4.923172015696764">
        <ele>1111.4200000000001</ele>
        <time>2025-04-29T09:18:22Z</time>
      </trkpt>
      <trkpt lat="42.970559019595385" lon="-4.923223983496428">
        <ele>1111.4200000000001</ele>
        <time>2025-04-29T09:18:23Z</time>
      </trkpt>
      <trkpt lat="42.970661027356982" lon="-4.923286009579897">
        <ele>1111.9000000000001</ele>
        <time>2025-04-29T09:18:24Z</time>
      </trkpt>
      <trkpt lat="42.971733994781971" lon="-4.924049014225602">
        <ele>1112.3800000000001</ele>
        <time>2025-04-29T09:18:34Z</time>
      </trkpt>
      <trkpt lat="42.971962988376617" lon="-4.92413098923862">
        <ele>1112.3800000000001</ele>
        <time>2025-04-29T09:18:36Z</time>
      </trkpt>
      <trkpt lat="42.972086034715176" lon="-4.924150016158819">
        <ele>1112.8599999999999</ele>
        <time>2025-04-29T09:18:37Z</time>
      </trkpt>
      <trkpt lat="42.972444025799632" lon="-4.924158984795213">
        <ele>1112.8599999999999</ele>
        <time>2025-04-29T09:18:40Z</time>
      </trkpt>
      <trkpt lat="42.972557013854384" lon="-4.924207013100386">
        <ele>1113.3399999999999</ele>
        <time>2025-04-29T09:18:41Z</time>
      </trkpt>
      <trkpt lat="42.972642006352544" lon="-4.924310026690364">
        <ele>1113.8199999999999</ele>
        <time>2025-04-29T09:18:42Z</time>
      </trkpt>
      <trkpt lat="42.972726998850703" lon="-4.924426032230258">
        <ele>1114.3099999999999</ele>
        <time>2025-04-29T09:18:43Z</time>
      </trkpt>
      <trkpt lat="42.972819032147527" lon="-4.924548994749785">
        <ele>1114.79</ele>
        <time>2025-04-29T09:18:44Z</time>
      </trkpt>
      <trkpt lat="42.973002009093761" lon="-4.924787962809205">
        <ele>1115.27</ele>
        <time>2025-04-29T09:18:46Z</time>
      </trkpt>
      <trkpt lat="42.973117008805275" lon="-4.924867004156113">
        <ele>1115.75</ele>
        <time>2025-04-29T09:18:47Z</time>
      </trkpt>
      <trkpt lat="42.973220022395253" lon="-4.924924001097679">
        <ele>1115.75</ele>
        <time>2025-04-29T09:18:48Z</time>
      </trkpt>
      <trkpt lat="42.973698964342475" lon="-4.925137991085649">
        <ele>1117.6700000000001</ele>
        <time>2025-04-29T09:18:55Z</time>
      </trkpt>
      <trkpt lat="42.973744980990887" lon="-4.925159029662609">
        <ele>1118.1500000000001</ele>
        <time>2025-04-29T09:18:56Z</time>
      </trkpt>
      <trkpt lat="42.973827961832285" lon="-4.925261037424207">
        <ele>1119.1099999999999</ele>
        <time>2025-04-29T09:19:00Z</time>
      </trkpt>
      <trkpt lat="42.97381597571075" lon="-4.925325997173786">
        <ele>1119.5899999999999</ele>
        <time>2025-04-29T09:19:01Z</time>
      </trkpt>
      <trkpt lat="42.973800972104073" lon="-4.925413001328707">
        <ele>1119.5899999999999</ele>
        <time>2025-04-29T09:19:02Z</time>
      </trkpt>
      <trkpt lat="42.973746992647648" lon="-4.925713995471597">
        <ele>1119.5899999999999</ele>
        <time>2025-04-29T09:19:05Z</time>
      </trkpt>
      <trkpt lat="42.973479023203254" lon="-4.927140008658171">
        <ele>1117.1900000000001</ele>
        <time>2025-04-29T09:19:15Z</time>
      </trkpt>
      <trkpt lat="42.973060011863708" lon="-4.929599007591605">
        <ele>1112.8599999999999</ele>
        <time>2025-04-29T09:19:30Z</time>
      </trkpt>
      <trkpt lat="42.972759017720819" lon="-4.931340012699366">
        <ele>1111.9000000000001</ele>
        <time>2025-04-29T09:19:37Z</time>
      </trkpt>
      <trkpt lat="42.972164992243052" lon="-4.934755973517895">
        <ele>1111.4200000000001</ele>
        <time>2025-04-29T09:19:48Z</time>
      </trkpt>
      <trkpt lat="42.971891993656754" lon="-4.93717297911644">
        <ele>1111.4200000000001</ele>
        <time>2025-04-29T09:19:56Z</time>
      </trkpt>
      <trkpt lat="42.971768025308847" lon="-4.940169006586075">
        <ele>1112.8599999999999</ele>
        <time>2025-04-29T09:20:06Z</time>
      </trkpt>
      <trkpt lat="42.97183902002871" lon="-4.940432030707598">
        <ele>1112.8599999999999</ele>
        <time>2025-04-29T09:20:07Z</time>
      </trkpt>
      <trkpt lat="42.971929963678122" lon="-4.940686002373695">
        <ele>1112.8599999999999</ele>
        <time>2025-04-29T09:20:08Z</time>
      </trkpt>
      <trkpt lat="42.973233014345169" lon="-4.943558983504772">
        <ele>1114.3099999999999</ele>
        <time>2025-04-29T09:20:19Z</time>
      </trkpt>
      <trkpt lat="42.973716985434294" lon="-4.945430997759104">
        <ele>1113.8199999999999</ele>
        <time>2025-04-29T09:20:25Z</time>
      </trkpt>
      <trkpt lat="42.974104983732104" lon="-4.948473963886499">
        <ele>1113.8199999999999</ele>
        <time>2025-04-29T09:20:34Z</time>
      </trkpt>
      <trkpt lat="42.97469599172473" lon="-4.951085010543466">
        <ele>1112.8599999999999</ele>
        <time>2025-04-29T09:20:42Z</time>
      </trkpt>
      <trkpt lat="42.974838986992836" lon="-4.954276001080871">
        <ele>1112.3800000000001</ele>
        <time>2025-04-29T09:20:52Z</time>
      </trkpt>
      <trkpt lat="42.974810991436243" lon="-4.956192020326853">
        <ele>1111.4200000000001</ele>
        <time>2025-04-29T09:20:58Z</time>
      </trkpt>
      <trkpt lat="42.97476002946496" lon="-4.956502988934517">
        <ele>1110.9400000000001</ele>
        <time>2025-04-29T09:20:59Z</time>
      </trkpt>
      <trkpt lat="42.974657015874982" lon="-4.957131966948509">
        <ele>1109.5</ele>
        <time>2025-04-29T09:21:01Z</time>
      </trkpt>
      <trkpt lat="42.974623991176486" lon="-4.957450982183218">
        <ele>1109.02</ele>
        <time>2025-04-29T09:21:02Z</time>
      </trkpt>
      <trkpt lat="42.974422993138433" lon="-4.959377981722355">
        <ele>1110.46</ele>
        <time>2025-04-29T09:21:08Z</time>
      </trkpt>
      <trkpt lat="42.973971962928772" lon="-4.96099996380508">
        <ele>1115.75</ele>
        <time>2025-04-29T09:21:14Z</time>
      </trkpt>
      <trkpt lat="42.973884036764503" lon="-4.961441019549966">
        <ele>1116.23</ele>
        <time>2025-04-29T09:21:16Z</time>
      </trkpt>
      <trkpt lat="42.973861992359161" lon="-4.961630031466484">
        <ele>1116.71</ele>
        <time>2025-04-29T09:21:17Z</time>
      </trkpt>
      <trkpt lat="42.973889987915754" lon="-4.961832035332918">
        <ele>1117.1900000000001</ele>
        <time>2025-04-29T09:21:18Z</time>
      </trkpt>
      <trkpt lat="42.973918989300728" lon="-4.962038984522224">
        <ele>1117.6700000000001</ele>
        <time>2025-04-29T09:21:19Z</time>
      </trkpt>
      <trkpt lat="42.973947990685701" lon="-4.962244005873799">
        <ele>1118.6300000000001</ele>
        <time>2025-04-29T09:21:20Z</time>
      </trkpt>
      <trkpt lat="42.97405201010406" lon="-4.963025031611323">
        <ele>1119.5899999999999</ele>
        <time>2025-04-29T09:21:24Z</time>
      </trkpt>
      <trkpt lat="42.974044969305396" lon="-4.963204991072416">
        <ele>1119.1099999999999</ele>
        <time>2025-04-29T09:21:25Z</time>
      </trkpt>
      <trkpt lat="42.973804995417595" lon="-4.964565960690379">
        <ele>1117.1900000000001</ele>
        <time>2025-04-29T09:21:33Z</time>
      </trkpt>
      <trkpt lat="42.973266961053014" lon="-4.965743031352758">
        <ele>1116.23</ele>
        <time>2025-04-29T09:21:41Z</time>
      </trkpt>
      <trkpt lat="42.973236031830311" lon="-4.965911004692316">
        <ele>1116.23</ele>
        <time>2025-04-29T09:21:42Z</time>
      </trkpt>
      <trkpt lat="42.973205018788576" lon="-4.966081995517016">
        <ele>1115.75</ele>
        <time>2025-04-29T09:21:43Z</time>
      </trkpt>
      <trkpt lat="42.973089013248682" lon="-4.966603014618158">
        <ele>1115.75</ele>
        <time>2025-04-29T09:21:46Z</time>
      </trkpt>
      <trkpt lat="42.973031010478735" lon="-4.966765958815813">
        <ele>1115.75</ele>
        <time>2025-04-29T09:21:47Z</time>
      </trkpt>
      <trkpt lat="42.972949035465717" lon="-4.96690702624619">
        <ele>1116.23</ele>
        <time>2025-04-29T09:21:48Z</time>
      </trkpt>
      <trkpt lat="42.9728480335325" lon="-4.96701599098742">
        <ele>1116.71</ele>
        <time>2025-04-29T09:21:49Z</time>
      </trkpt>
      <trkpt lat="42.972744014114141" lon="-4.967127973213792">
        <ele>1116.71</ele>
        <time>2025-04-29T09:21:50Z</time>
      </trkpt>
      <trkpt lat="42.972643012180924" lon="-4.967238027602434">
        <ele>1117.1900000000001</ele>
        <time>2025-04-29T09:21:51Z</time>
      </trkpt>
      <trkpt lat="42.972542010247707" lon="-4.967345986515284">
        <ele>1117.6700000000001</ele>
        <time>2025-04-29T09:21:52Z</time>
      </trkpt>
      <trkpt lat="42.972464980557561" lon="-4.967429973185062">
        <ele>1118.1500000000001</ele>
        <time>2025-04-29T09:21:53Z</time>
      </trkpt>
      <trkpt lat="42.972388034686446" lon="-4.967596018686891">
        <ele>1118.1500000000001</ele>
        <time>2025-04-29T09:21:54Z</time>
      </trkpt>
      <trkpt lat="42.972321985289454" lon="-4.967738008126617">
        <ele>1118.6300000000001</ele>
        <time>2025-04-29T09:21:55Z</time>
      </trkpt>
      <trkpt lat="42.972258031368256" lon="-4.967876980081201">
        <ele>1118.6300000000001</ele>
        <time>2025-04-29T09:21:56Z</time>
      </trkpt>
      <trkpt lat="42.972068013623357" lon="-4.968287022784352">
        <ele>1119.5899999999999</ele>
        <time>2025-04-29T09:21:59Z</time>
      </trkpt>
      <trkpt lat="42.971971035003662" lon="-4.968378972262144">
        <ele>1120.0699999999999</ele>
        <time>2025-04-29T09:22:00Z</time>
      </trkpt>
      <trkpt lat="42.971874978393316" lon="-4.968457007780671">
        <ele>1120.55</ele>
        <time>2025-04-29T09:22:01Z</time>
      </trkpt>
      <trkpt lat="42.971425037831068" lon="-4.968875013291836">
        <ele>1122.48</ele>
        <time>2025-04-29T09:22:06Z</time>
      </trkpt>
      <trkpt lat="42.971354965120554" lon="-4.968984983861446">
        <ele>1122.96</ele>
        <time>2025-04-29T09:22:07Z</time>
      </trkpt>
      <trkpt lat="42.971296962350607" lon="-4.969103001058102">
        <ele>1122.96</ele>
        <time>2025-04-29T09:22:08Z</time>
      </trkpt>
      <trkpt lat="42.971264021471143" lon="-4.969243984669447">
        <ele>1122.96</ele>
        <time>2025-04-29T09:22:09Z</time>
      </trkpt>
      <trkpt lat="42.97123895958066" lon="-4.969383962452412">
        <ele>1122.96</ele>
        <time>2025-04-29T09:22:10Z</time>
      </trkpt>
      <trkpt lat="42.971230996772647" lon="-4.969528969377279">
        <ele>1122.48</ele>
        <time>2025-04-29T09:22:11Z</time>
      </trkpt>
      <trkpt lat="42.971223033964634" lon="-4.969668025150895">
        <ele>1122.48</ele>
        <time>2025-04-29T09:22:12Z</time>
      </trkpt>
      <trkpt lat="42.971214987337589" lon="-4.969801967963576">
        <ele>1122.48</ele>
        <time>2025-04-29T09:22:13Z</time>
      </trkpt>
      <trkpt lat="42.971207024529576" lon="-4.969933982938528">
        <ele>1122.48</ele>
        <time>2025-04-29T09:22:14Z</time>
      </trkpt>
      <trkpt lat="42.971198977902532" lon="-4.970069015398622">
        <ele>1122.96</ele>
        <time>2025-04-29T09:22:15Z</time>
      </trkpt>
      <trkpt lat="42.971166037023067" lon="-4.970184015110135">
        <ele>1122.96</ele>
        <time>2025-04-29T09:22:16Z</time>
      </trkpt>
      <trkpt lat="42.971132006496191" lon="-4.9703049659729">
        <ele>1122.96</ele>
        <time>2025-04-29T09:22:17Z</time>
      </trkpt>
      <trkpt lat="42.971097975969315" lon="-4.970421977341175">
        <ele>1123.4400000000001</ele>
        <time>2025-04-29T09:22:18Z</time>
      </trkpt>
      <trkpt lat="42.970995968207717" lon="-4.970779968425632">
        <ele>1123.9200000000001</ele>
        <time>2025-04-29T09:22:21Z</time>
      </trkpt>
      <trkpt lat="42.970962021499872" lon="-4.970897985622287">
        <ele>1124.4000000000001</ele>
        <time>2025-04-29T09:22:22Z</time>
      </trkpt>
      <trkpt lat="42.970936959609389" lon="-4.971021031960845">
        <ele>1124.4000000000001</ele>
        <time>2025-04-29T09:22:23Z</time>
      </trkpt>
      <trkpt lat="42.970926985144615" lon="-4.971147011965513">
        <ele>1124.8800000000001</ele>
        <time>2025-04-29T09:22:24Z</time>
      </trkpt>
      <trkpt lat="42.97091600485146" lon="-4.971267962828279">
        <ele>1125.3599999999999</ele>
        <time>2025-04-29T09:22:25Z</time>
      </trkpt>
      <trkpt lat="42.970906030386686" lon="-4.971385980024934">
        <ele>1125.8399999999999</ele>
        <time>2025-04-29T09:22:26Z</time>
      </trkpt>
      <trkpt lat="42.970864959061146" lon="-4.9718729685992">
        <ele>1128.24</ele>
        <time>2025-04-29T09:22:30Z</time>
      </trkpt>
      <trkpt lat="42.97085297293961" lon="-4.971986040472984">
        <ele>1128.73</ele>
        <time>2025-04-29T09:22:31Z</time>
      </trkpt>
      <trkpt lat="42.97080997377634" lon="-4.972095005214214">
        <ele>1129.6900000000001</ele>
        <time>2025-04-29T09:22:32Z</time>
      </trkpt>
      <trkpt lat="42.97076697461307" lon="-4.972207993268967">
        <ele>1130.6500000000001</ele>
        <time>2025-04-29T09:22:33Z</time>
      </trkpt>
      <trkpt lat="42.970706038177013" lon="-4.97236498631537">
        <ele>1131.1300000000001</ele>
        <time>2025-04-29T09:22:34Z</time>
      </trkpt>
      <trkpt lat="42.97065800987184" lon="-4.972445033490658">
        <ele>1132.0899999999999</ele>
        <time>2025-04-29T09:22:35Z</time>
      </trkpt>
      <trkpt lat="42.970594977959991" lon="-4.972552992403507">
        <ele>1132.5699999999999</ele>
        <time>2025-04-29T09:22:36Z</time>
      </trkpt>
      <trkpt lat="42.970532029867172" lon="-4.972661035135388">
        <ele>1132.5699999999999</ele>
        <time>2025-04-29T09:22:37Z</time>
      </trkpt>
      <trkpt lat="42.970337988808751" lon="-4.972992036491633">
        <ele>1134.01</ele>
        <time>2025-04-29T09:22:40Z</time>
      </trkpt>
      <trkpt lat="42.970273029059172" lon="-4.973102007061243">
        <ele>1134.01</ele>
        <time>2025-04-29T09:22:41Z</time>
      </trkpt>
      <trkpt lat="42.969724014401436" lon="-4.974307995289564">
        <ele>1133.53</ele>
        <time>2025-04-29T09:22:51Z</time>
      </trkpt>
      <trkpt lat="42.969330986961722" lon="-4.97552496381104">
        <ele>1131.6099999999999</ele>
        <time>2025-04-29T09:23:00Z</time>
      </trkpt>
      <trkpt lat="42.968655992299318" lon="-4.97644898481667">
        <ele>1133.05</ele>
        <time>2025-04-29T09:23:09Z</time>
      </trkpt>
      <trkpt lat="42.968593966215849" lon="-4.976558033376932">
        <ele>1133.05</ele>
        <time>2025-04-29T09:23:10Z</time>
      </trkpt>
      <trkpt lat="42.968543004244566" lon="-4.976682001724839">
        <ele>1133.05</ele>
        <time>2025-04-29T09:23:11Z</time>
      </trkpt>
      <trkpt lat="42.968491036444902" lon="-4.976809993386269">
        <ele>1132.5699999999999</ele>
        <time>2025-04-29T09:23:12Z</time>
      </trkpt>
      <trkpt lat="42.968437978997827" lon="-4.97694100253284">
        <ele>1132.5699999999999</ele>
        <time>2025-04-29T09:23:13Z</time>
      </trkpt>
      <trkpt lat="42.968414006754756" lon="-4.977085003629327">
        <ele>1132.5699999999999</ele>
        <time>2025-04-29T09:23:14Z</time>
      </trkpt>
      <trkpt lat="42.968393974006176" lon="-4.977235961705446">
        <ele>1132.0899999999999</ele>
        <time>2025-04-29T09:23:15Z</time>
      </trkpt>
      <trkpt lat="42.968411995097995" lon="-4.977382980287075">
        <ele>1131.6099999999999</ele>
        <time>2025-04-29T09:23:16Z</time>
      </trkpt>
      <trkpt lat="42.968448959290981" lon="-4.977539973333478">
        <ele>1131.6099999999999</ele>
        <time>2025-04-29T09:23:17Z</time>
      </trkpt>
      <trkpt lat="42.968486007302999" lon="-4.977697972208262">
        <ele>1131.6099999999999</ele>
        <time>2025-04-29T09:23:18Z</time>
      </trkpt>
      <trkpt lat="42.968523977324367" lon="-4.977862006053329">
        <ele>1131.1300000000001</ele>
        <time>2025-04-29T09:23:19Z</time>
      </trkpt>
      <trkpt lat="42.968603018671274" lon="-4.978200970217586">
        <ele>1130.6500000000001</ele>
        <time>2025-04-29T09:23:21Z</time>
      </trkpt>
      <trkpt lat="42.96861601062119" lon="-4.97838101349771">
        <ele>1130.1700000000001</ele>
        <time>2025-04-29T09:23:22Z</time>
      </trkpt>
      <trkpt lat="42.968693962320685" lon="-4.979141000658274">
        <ele>1126.8</ele>
        <time>2025-04-29T09:23:26Z</time>
      </trkpt>
      <trkpt lat="42.968754982575774" lon="-4.979323977604508">
        <ele>1126.3199999999999</ele>
        <time>2025-04-29T09:23:27Z</time>
      </trkpt>
      <trkpt lat="42.968880040571094" lon="-4.979697978124023">
        <ele>1124.8800000000001</ele>
        <time>2025-04-29T09:23:29Z</time>
      </trkpt>
      <trkpt lat="42.968919016420841" lon="-4.97990501113236">
        <ele>1123.9200000000001</ele>
        <time>2025-04-29T09:23:30Z</time>
      </trkpt>
      <trkpt lat="42.968936031684279" lon="-4.980113971978426">
        <ele>1123.4400000000001</ele>
        <time>2025-04-29T09:23:31Z</time>
      </trkpt>
      <trkpt lat="42.968908036127687" lon="-4.980313964188099">
        <ele>1122.48</ele>
        <time>2025-04-29T09:23:32Z</time>
      </trkpt>
      <trkpt lat="42.968879034742713" lon="-4.980503981932998">
        <ele>1122</ele>
        <time>2025-04-29T09:23:33Z</time>
      </trkpt>
      <trkpt lat="42.968809967860579" lon="-4.980687964707613">
        <ele>1121.52</ele>
        <time>2025-04-29T09:23:34Z</time>
      </trkpt>
      <trkpt lat="42.968738973140717" lon="-4.980873959138989">
        <ele>1121.03</ele>
        <time>2025-04-29T09:23:35Z</time>
      </trkpt>
      <trkpt lat="42.968666972592473" lon="-4.981063976883888">
        <ele>1120.55</ele>
        <time>2025-04-29T09:23:36Z</time>
      </trkpt>
      <trkpt lat="42.96859497204423" lon="-4.981255000457168">
        <ele>1120.55</ele>
        <time>2025-04-29T09:23:37Z</time>
      </trkpt>
      <trkpt lat="42.968580974265933" lon="-4.981487011536956">
        <ele>1120.0699999999999</ele>
        <time>2025-04-29T09:23:38Z</time>
      </trkpt>
      <trkpt lat="42.96859597787261" lon="-4.981713993474841">
        <ele>1119.5899999999999</ele>
        <time>2025-04-29T09:23:39Z</time>
      </trkpt>
      <trkpt lat="42.968629002571106" lon="-4.981944998726249">
        <ele>1119.1099999999999</ele>
        <time>2025-04-29T09:23:40Z</time>
      </trkpt>
      <trkpt lat="42.968669990077615" lon="-4.982179021462798">
        <ele>1118.6300000000001</ele>
        <time>2025-04-29T09:23:41Z</time>
      </trkpt>
      <trkpt lat="42.968721035867929" lon="-4.982411032542586">
        <ele>1118.6300000000001</ele>
        <time>2025-04-29T09:23:42Z</time>
      </trkpt>
      <trkpt lat="42.968989005312324" lon="-4.983501015231013">
        <ele>1116.71</ele>
        <time>2025-04-29T09:23:47Z</time>
      </trkpt>
      <trkpt lat="42.969100987538695" lon="-4.983668988570571">
        <ele>1116.71</ele>
        <time>2025-04-29T09:23:48Z</time>
      </trkpt>
      <trkpt lat="42.969219004735351" lon="-4.983797986060381">
        <ele>1116.71</ele>
        <time>2025-04-29T09:23:49Z</time>
      </trkpt>
      <trkpt lat="42.969360994175076" lon="-4.98386001214385">
        <ele>1116.71</ele>
        <time>2025-04-29T09:23:50Z</time>
      </trkpt>
      <trkpt lat="42.969517987221479" lon="-4.983893958851695">
        <ele>1116.23</ele>
        <time>2025-04-29T09:23:51Z</time>
      </trkpt>
      <trkpt lat="42.969666011631489" lon="-4.98392597772181">
        <ele>1116.23</ele>
        <time>2025-04-29T09:23:52Z</time>
      </trkpt>
      <trkpt lat="42.969806995242834" lon="-4.983955984935165">
        <ele>1116.23</ele>
        <time>2025-04-29T09:23:53Z</time>
      </trkpt>
      <trkpt lat="42.970067001879215" lon="-4.984018011018634">
        <ele>1115.75</ele>
        <time>2025-04-29T09:23:55Z</time>
      </trkpt>
      <trkpt lat="42.970193987712264" lon="-4.98407400213182">
        <ele>1115.27</ele>
        <time>2025-04-29T09:23:56Z</time>
      </trkpt>
      <trkpt lat="42.970324996858835" lon="-4.984132004901767">
        <ele>1114.79</ele>
        <time>2025-04-29T09:23:57Z</time>
      </trkpt>
      <trkpt lat="42.97044301405549" lon="-4.984208028763533">
        <ele>1114.79</ele>
        <time>2025-04-29T09:23:58Z</time>
      </trkpt>
      <trkpt lat="42.970551978796721" lon="-4.984325962141156">
        <ele>1114.3099999999999</ele>
        <time>2025-04-29T09:23:59Z</time>
      </trkpt>
      <trkpt lat="42.970663039013743" lon="-4.984445990994573">
        <ele>1114.3099999999999</ele>
        <time>2025-04-29T09:24:00Z</time>
      </trkpt>
      <trkpt lat="42.970735961571336" lon="-4.984622010961175">
        <ele>1113.8199999999999</ele>
        <time>2025-04-29T09:24:01Z</time>
      </trkpt>
      <trkpt lat="42.970810979604721" lon="-4.984802976250649">
        <ele>1113.8199999999999</ele>
        <time>2025-04-29T09:24:02Z</time>
      </trkpt>
      <trkpt lat="42.970879962667823" lon="-4.984995005652309">
        <ele>1113.8199999999999</ele>
        <time>2025-04-29T09:24:03Z</time>
      </trkpt>
      <trkpt lat="42.970898989588022" lon="-4.985218970105052">
        <ele>1113.8199999999999</ele>
        <time>2025-04-29T09:24:04Z</time>
      </trkpt>
      <trkpt lat="42.970918016508222" lon="-4.985446035861969">
        <ele>1113.8199999999999</ele>
        <time>2025-04-29T09:24:05Z</time>
      </trkpt>
      <trkpt lat="42.970878034830093" lon="-4.985670000314713">
        <ele>1113.8199999999999</ele>
        <time>2025-04-29T09:24:06Z</time>
      </trkpt>
      <trkpt lat="42.970820032060146" lon="-4.985882984474301">
        <ele>1113.8199999999999</ele>
        <time>2025-04-29T09:24:07Z</time>
      </trkpt>
      <trkpt lat="42.970748031511903" lon="-4.986097980290651">
        <ele>1113.8199999999999</ele>
        <time>2025-04-29T09:24:08Z</time>
      </trkpt>
      <trkpt lat="42.970639988780022" lon="-4.986268971115351">
        <ele>1113.8199999999999</ele>
        <time>2025-04-29T09:24:09Z</time>
      </trkpt>
      <trkpt lat="42.970505962148309" lon="-4.986418001353741">
        <ele>1113.8199999999999</ele>
        <time>2025-04-29T09:24:10Z</time>
      </trkpt>
      <trkpt lat="42.970361961051822" lon="-4.986549010500312">
        <ele>1113.8199999999999</ele>
        <time>2025-04-29T09:24:11Z</time>
      </trkpt>
      <trkpt lat="42.970198011025786" lon="-4.986637020483613">
        <ele>1113.8199999999999</ele>
        <time>2025-04-29T09:24:12Z</time>
      </trkpt>
      <trkpt lat="42.9700349830091" lon="-4.986730981618166">
        <ele>1113.8199999999999</ele>
        <time>2025-04-29T09:24:13Z</time>
      </trkpt>
      <trkpt lat="42.969732983037829" lon="-4.98693197965622">
        <ele>1113.3399999999999</ele>
        <time>2025-04-29T09:24:15Z</time>
      </trkpt>
      <trkpt lat="42.969598034396768" lon="-4.987072041258216">
        <ele>1113.3399999999999</ele>
        <time>2025-04-29T09:24:16Z</time>
      </trkpt>
      <trkpt lat="42.969504995271564" lon="-4.987271027639508">
        <ele>1113.3399999999999</ele>
        <time>2025-04-29T09:24:17Z</time>
      </trkpt>
      <trkpt lat="42.969431988894939" lon="-4.987479988485575">
        <ele>1113.3399999999999</ele>
        <time>2025-04-29T09:24:18Z</time>
      </trkpt>
      <trkpt lat="42.969404999166727" lon="-4.987702025100589">
        <ele>1113.3399999999999</ele>
        <time>2025-04-29T09:24:19Z</time>
      </trkpt>
      <trkpt lat="42.969427965581417" lon="-4.987939987331629">
        <ele>1113.3399999999999</ele>
        <time>2025-04-29T09:24:20Z</time>
      </trkpt>
      <trkpt lat="42.969464007765055" lon="-4.988180967047811">
        <ele>1113.3399999999999</ele>
        <time>2025-04-29T09:24:21Z</time>
      </trkpt>
      <trkpt lat="42.969510024413466" lon="-4.988427981734276">
        <ele>1113.8199999999999</ele>
        <time>2025-04-29T09:24:22Z</time>
      </trkpt>
      <trkpt lat="42.969907997176051" lon="-4.990400997921825">
        <ele>1110.9400000000001</ele>
        <time>2025-04-29T09:24:31Z</time>
      </trkpt>
      <trkpt lat="42.970518032088876" lon="-4.993359977379441">
        <ele>1109.98</ele>
        <time>2025-04-29T09:24:47Z</time>
      </trkpt>
      <trkpt lat="42.971004014834762" lon="-4.9947539716959">
        <ele>1112.3800000000001</ele>
        <time>2025-04-29T09:24:55Z</time>
      </trkpt>
      <trkpt lat="42.9714319948107" lon="-4.995514964684844">
        <ele>1116.23</ele>
        <time>2025-04-29T09:25:01Z</time>
      </trkpt>
      <trkpt lat="42.971514975652099" lon="-4.99559098854661">
        <ele>1116.71</ele>
        <time>2025-04-29T09:25:02Z</time>
      </trkpt>
      <trkpt lat="42.971610026434064" lon="-4.995646979659796">
        <ele>1117.6700000000001</ele>
        <time>2025-04-29T09:25:03Z</time>
      </trkpt>
      <trkpt lat="42.971708010882139" lon="-4.995703976601362">
        <ele>1118.1500000000001</ele>
        <time>2025-04-29T09:25:04Z</time>
      </trkpt>
      <trkpt lat="42.971810018643737" lon="-4.995754016563296">
        <ele>1118.6300000000001</ele>
        <time>2025-04-29T09:25:05Z</time>
      </trkpt>
      <trkpt lat="42.971915965899825" lon="-4.995796009898186">
        <ele>1119.1099999999999</ele>
        <time>2025-04-29T09:25:06Z</time>
      </trkpt>
      <trkpt lat="42.972240010276437" lon="-4.995926013216376">
        <ele>1121.03</ele>
        <time>2025-04-29T09:25:09Z</time>
      </trkpt>
      <trkpt lat="42.972331959754229" lon="-4.995987033471465">
        <ele>1121.52</ele>
        <time>2025-04-29T09:25:10Z</time>
      </trkpt>
      <trkpt lat="42.97241703607142" lon="-4.996077977120876">
        <ele>1122</ele>
        <time>2025-04-29T09:25:11Z</time>
      </trkpt>
      <trkpt lat="42.97250303439796" lon="-4.996169004589319">
        <ele>1122.48</ele>
        <time>2025-04-29T09:25:12Z</time>
      </trkpt>
      <trkpt lat="42.972588026896119" lon="-4.996259026229382">
        <ele>1122.96</ele>
        <time>2025-04-29T09:25:13Z</time>
      </trkpt>
      <trkpt lat="42.972658015787601" lon="-4.996333038434386">
        <ele>1123.4400000000001</ele>
        <time>2025-04-29T09:25:14Z</time>
      </trkpt>
      <trkpt lat="42.972705038264394" lon="-4.996480979025364">
        <ele>1123.9200000000001</ele>
        <time>2025-04-29T09:25:15Z</time>
      </trkpt>
      <trkpt lat="42.972745019942522" lon="-4.996610982343555">
        <ele>1124.4000000000001</ele>
        <time>2025-04-29T09:25:16Z</time>
      </trkpt>
      <trkpt lat="42.972782989963889" lon="-4.996731011196971">
        <ele>1124.4000000000001</ele>
        <time>2025-04-29T09:25:17Z</time>
      </trkpt>
      <trkpt lat="42.972817020490766" lon="-4.996842993423343">
        <ele>1124.8800000000001</ele>
        <time>2025-04-29T09:25:18Z</time>
      </trkpt>
      <trkpt lat="42.97284996137023" lon="-4.996948018670082">
        <ele>1125.3599999999999</ele>
        <time>2025-04-29T09:25:19Z</time>
      </trkpt>
      <trkpt lat="42.972876029089093" lon="-4.997037034481764">
        <ele>1126.3199999999999</ele>
        <time>2025-04-29T09:25:20Z</time>
      </trkpt>
      <trkpt lat="42.97289002686739" lon="-4.997106017544866">
        <ele>1126.8</ele>
        <time>2025-04-29T09:25:21Z</time>
      </trkpt>
      <trkpt lat="42.972837975248694" lon="-4.997164020314813">
        <ele>1127.28</ele>
        <time>2025-04-29T09:25:22Z</time>
      </trkpt>
      <trkpt lat="42.972808973863721" lon="-4.997183969244361">
        <ele>1127.76</ele>
        <time>2025-04-29T09:25:23Z</time>
      </trkpt>
      <trkpt lat="42.97278399579227" lon="-4.997200984507799">
        <ele>1127.76</ele>
        <time>2025-04-29T09:25:24Z</time>
      </trkpt>
      <trkpt lat="42.972750971093774" lon="-4.99722202308476">
        <ele>1128.24</ele>
        <time>2025-04-29T09:25:25Z</time>
      </trkpt>
      <trkpt lat="42.97267897054553" lon="-4.997269967570901">
        <ele>1129.21</ele>
        <time>2025-04-29T09:25:27Z</time>
      </trkpt>
      <trkpt lat="42.972641000524163" lon="-4.997296035289764">
        <ele>1129.21</ele>
        <time>2025-04-29T09:25:28Z</time>
      </trkpt>
      <trkpt lat="42.972550978884101" lon="-4.997449005022645">
        <ele>1129.6900000000001</ele>
        <time>2025-04-29T09:25:37Z</time>
      </trkpt>
      <trkpt lat="42.972551984712481" lon="-4.997499966993928">
        <ele>1129.6900000000001</ele>
        <time>2025-04-29T09:25:54Z</time>
      </trkpt>
      <trkpt lat="42.972552990540862" lon="-4.99752402305603">
        <ele>1129.21</ele>
        <time>2025-04-29T09:25:55Z</time>
      </trkpt>
      <trkpt lat="42.972553996369243" lon="-4.997571967542172">
        <ele>1128.73</ele>
        <time>2025-04-29T09:25:56Z</time>
      </trkpt>
      <trkpt lat="42.972556008026004" lon="-4.997651008889079">
        <ele>1127.76</ele>
        <time>2025-04-29T09:25:57Z</time>
      </trkpt>
      <trkpt lat="42.972559025511146" lon="-4.997753016650677">
        <ele>1127.28</ele>
        <time>2025-04-29T09:25:58Z</time>
      </trkpt>
      <trkpt lat="42.9725890327245" lon="-4.99883403070271">
        <ele>1120.0699999999999</ele>
        <time>2025-04-29T09:26:06Z</time>
      </trkpt>
      <trkpt lat="42.972726998850703" lon="-4.999244995415211">
        <ele>1115.27</ele>
        <time>2025-04-29T09:26:13Z</time>
      </trkpt>
      <trkpt lat="42.972780978307128" lon="-4.999339040368795">
        <ele>1114.3099999999999</ele>
        <time>2025-04-29T09:26:15Z</time>
      </trkpt>
      <trkpt lat="42.972806040197611" lon="-4.999382039532065">
        <ele>1113.8199999999999</ele>
        <time>2025-04-29T09:26:16Z</time>
      </trkpt>
      <trkpt lat="42.972820037975907" lon="-4.999406011775136">
        <ele>1113.3399999999999</ele>
        <time>2025-04-29T09:26:17Z</time>
      </trkpt>
      <trkpt lat="42.972830012440681" lon="-4.999423027038574">
        <ele>1112.8599999999999</ele>
        <time>2025-04-29T09:26:18Z</time>
      </trkpt>
      <trkpt lat="42.972830012440681" lon="-4.999423027038574">
        <ele>1112.8599999999999</ele>
        <time>2025-04-29T09:26:19Z</time>
      </trkpt>
      <trkpt lat="42.972774021327496" lon="-4.999560993164778">
        <ele>1116.23</ele>
        <time>2025-04-29T09:49:43Z</time>
      </trkpt>
      <trkpt lat="42.97278399579227" lon="-4.999525034800172">
        <ele>1117.6700000000001</ele>
        <time>2025-04-29T09:50:14Z</time>
      </trkpt>
      <trkpt lat="42.97276102937758" lon="-4.99950097873807">
        <ele>1118.6300000000001</ele>
        <time>2025-04-29T09:51:04Z</time>
      </trkpt>
      <trkpt lat="42.972765974700451" lon="-4.999497961252928">
        <ele>1119.5899999999999</ele>
        <time>2025-04-29T09:51:48Z</time>
      </trkpt>
      <trkpt lat="42.972830012440681" lon="-4.999423027038574">
        <ele>1118.6300000000001</ele>
        <time>2025-04-29T09:51:51Z</time>
      </trkpt>
      <trkpt lat="42.972639994695783" lon="-4.999428978189826">
        <ele>1118.6300000000001</ele>
        <time>2025-04-29T09:51:52Z</time>
      </trkpt>
      <trkpt lat="42.97263203188777" lon="-4.999359995126724">
        <ele>1118.1500000000001</ele>
        <time>2025-04-29T09:51:53Z</time>
      </trkpt>
      <trkpt lat="42.972622979432344" lon="-4.999281959608197">
        <ele>1118.1500000000001</ele>
        <time>2025-04-29T09:51:54Z</time>
      </trkpt>
      <trkpt lat="42.972614010795951" lon="-4.999195039272308">
        <ele>1118.1500000000001</ele>
        <time>2025-04-29T09:51:55Z</time>
      </trkpt>
      <trkpt lat="42.972604036331177" lon="-4.999104011803865">
        <ele>1117.6700000000001</ele>
        <time>2025-04-29T09:51:56Z</time>
      </trkpt>
      <trkpt lat="42.972565982490778" lon="-4.997983016073704">
        <ele>1120.0699999999999</ele>
        <time>2025-04-29T09:52:05Z</time>
      </trkpt>
      <trkpt lat="42.972551984712481" lon="-4.997486975044012">
        <ele>1122.48</ele>
        <time>2025-04-29T09:52:09Z</time>
      </trkpt>
      <trkpt lat="42.972590960562229" lon="-4.997379016131163">
        <ele>1123.4400000000001</ele>
        <time>2025-04-29T09:52:10Z</time>
      </trkpt>
      <trkpt lat="42.972636977210641" lon="-4.997298968955874">
        <ele>1124.4000000000001</ele>
        <time>2025-04-29T09:52:11Z</time>
      </trkpt>
      <trkpt lat="42.972695985808969" lon="-4.997258987277746">
        <ele>1124.8800000000001</ele>
        <time>2025-04-29T09:52:12Z</time>
      </trkpt>
      <trkpt lat="42.972754994407296" lon="-4.997220011427999">
        <ele>1125.8399999999999</ele>
        <time>2025-04-29T09:52:13Z</time>
      </trkpt>
      <trkpt lat="42.972800005227327" lon="-4.997190004214644">
        <ele>1126.3199999999999</ele>
        <time>2025-04-29T09:52:14Z</time>
      </trkpt>
      <trkpt lat="42.972836969420314" lon="-4.997165026143193">
        <ele>1126.8</ele>
        <time>2025-04-29T09:52:15Z</time>
      </trkpt>
      <trkpt lat="42.972865970805287" lon="-4.997145999222994">
        <ele>1127.76</ele>
        <time>2025-04-29T09:52:16Z</time>
      </trkpt>
      <trkpt lat="42.972911987453699" lon="-4.997212970629334">
        <ele>1128.24</ele>
        <time>2025-04-29T09:52:17Z</time>
      </trkpt>
      <trkpt lat="42.97293302603066" lon="-4.997310033068061">
        <ele>1128.73</ele>
        <time>2025-04-29T09:52:18Z</time>
      </trkpt>
      <trkpt lat="42.972962027415633" lon="-4.997449005022645">
        <ele>1128.73</ele>
        <time>2025-04-29T09:52:19Z</time>
      </trkpt>
      <trkpt lat="42.972996979951859" lon="-4.997617984190583">
        <ele>1129.21</ele>
        <time>2025-04-29T09:52:20Z</time>
      </trkpt>
      <trkpt lat="42.973137963563204" lon="-4.998203963041306">
        <ele>1131.1300000000001</ele>
        <time>2025-04-29T09:52:23Z</time>
      </trkpt>
      <trkpt lat="42.973212981596589" lon="-4.998413007706404">
        <ele>1131.6099999999999</ele>
        <time>2025-04-29T09:52:24Z</time>
      </trkpt>
      <trkpt lat="42.97330099157989" lon="-4.998604031279683">
        <ele>1132.5699999999999</ele>
        <time>2025-04-29T09:52:25Z</time>
      </trkpt>
      <trkpt lat="42.973420014604926" lon="-4.998782984912396">
        <ele>1133.05</ele>
        <time>2025-04-29T09:52:26Z</time>
      </trkpt>
      <trkpt lat="42.973541971296072" lon="-4.998948024585843">
        <ele>1133.53</ele>
        <time>2025-04-29T09:52:27Z</time>
      </trkpt>
      <trkpt lat="42.973682032898068" lon="-4.999085990712047">
        <ele>1134.01</ele>
        <time>2025-04-29T09:52:28Z</time>
      </trkpt>
      <trkpt lat="42.973823016509414" lon="-4.999215994030237">
        <ele>1134.97</ele>
        <time>2025-04-29T09:52:29Z</time>
      </trkpt>
      <trkpt lat="42.97398797236383" lon="-4.999298974871635">
        <ele>1135.45</ele>
        <time>2025-04-29T09:52:30Z</time>
      </trkpt>
      <trkpt lat="42.974154017865658" lon="-4.999373992905021">
        <ele>1135.9400000000001</ele>
        <time>2025-04-29T09:52:31Z</time>
      </trkpt>
      <trkpt lat="42.974318973720074" lon="-4.999450016766787">
        <ele>1136.9000000000001</ele>
        <time>2025-04-29T09:52:32Z</time>
      </trkpt>
      <trkpt lat="42.974500022828579" lon="-4.999462002888322">
        <ele>1137.3800000000001</ele>
        <time>2025-04-29T09:52:33Z</time>
      </trkpt>
      <trkpt lat="42.974677970632911" lon="-4.9994579795748">
        <ele>1137.8599999999999</ele>
        <time>2025-04-29T09:52:34Z</time>
      </trkpt>
      <trkpt lat="42.974857008084655" lon="-4.999453034251928">
        <ele>1138.3399999999999</ele>
        <time>2025-04-29T09:52:35Z</time>
      </trkpt>
      <trkpt lat="42.975204018875957" lon="-4.999453034251928">
        <ele>1139.78</ele>
        <time>2025-04-29T09:52:37Z</time>
      </trkpt>
      <trkpt lat="42.975366041064262" lon="-4.999489998444915">
        <ele>1140.26</ele>
        <time>2025-04-29T09:52:38Z</time>
      </trkpt>
      <trkpt lat="42.975506018847227" lon="-4.999560993164778">
        <ele>1141.22</ele>
        <time>2025-04-29T09:52:39Z</time>
      </trkpt>
      <trkpt lat="42.975631998851895" lon="-4.999676998704672">
        <ele>1141.7</ele>
        <time>2025-04-29T09:52:40Z</time>
      </trkpt>
      <trkpt lat="42.975737024098635" lon="-4.999812031164765">
        <ele>1142.1800000000001</ele>
        <time>2025-04-29T09:52:41Z</time>
      </trkpt>
      <trkpt lat="42.975832996889949" lon="-4.99997204169631">
        <ele>1142.6600000000001</ele>
        <time>2025-04-29T09:52:42Z</time>
      </trkpt>
      <trkpt lat="42.975930981338024" lon="-5.000134985893965">
        <ele>1143.1400000000001</ele>
        <time>2025-04-29T09:52:43Z</time>
      </trkpt>
      <trkpt lat="42.976247984915972" lon="-5.000648964196444">
        <ele>1145.0699999999999</ele>
        <time>2025-04-29T09:52:46Z</time>
      </trkpt>
      <trkpt lat="42.977359006181359" lon="-5.002032984048128">
        <ele>1150.8399999999999</ele>
        <time>2025-04-29T09:52:55Z</time>
      </trkpt>
      <trkpt lat="42.977549023926258" lon="-5.002238005399704">
        <ele>1151.8</ele>
        <time>2025-04-29T09:52:57Z</time>
      </trkpt>
      <trkpt lat="42.977654971182346" lon="-5.002305982634425">
        <ele>1152.28</ele>
        <time>2025-04-29T09:52:58Z</time>
      </trkpt>
      <trkpt lat="42.977759996429086" lon="-5.002360967919231">
        <ele>1153.24</ele>
        <time>2025-04-29T09:52:59Z</time>
      </trkpt>
      <trkpt lat="42.977882958948612" lon="-5.002349987626076">
        <ele>1153.72</ele>
        <time>2025-04-29T09:53:00Z</time>
      </trkpt>
      <trkpt lat="42.978012040257454" lon="-5.00233699567616">
        <ele>1154.2</ele>
        <time>2025-04-29T09:53:01Z</time>
      </trkpt>
      <trkpt lat="42.978139026090503" lon="-5.002325009554625">
        <ele>1154.6800000000001</ele>
        <time>2025-04-29T09:53:02Z</time>
      </trkpt>
      <trkpt lat="42.978268023580313" lon="-5.002226019278169">
        <ele>1155.1600000000001</ele>
        <time>2025-04-29T09:53:03Z</time>
      </trkpt>
      <trkpt lat="42.978367013856769" lon="-5.0021000392735">
        <ele>1155.6400000000001</ele>
        <time>2025-04-29T09:53:04Z</time>
      </trkpt>
      <trkpt lat="42.978464998304844" lon="-5.001965006813407">
        <ele>1156.1199999999999</ele>
        <time>2025-04-29T09:53:05Z</time>
      </trkpt>
      <trkpt lat="42.978557031601667" lon="-5.00182100571692">
        <ele>1156.5999999999999</ele>
        <time>2025-04-29T09:53:06Z</time>
      </trkpt>
      <trkpt lat="42.978643029928207" lon="-5.001667030155659">
        <ele>1157.0799999999999</ele>
        <time>2025-04-29T09:53:07Z</time>
      </trkpt>
      <trkpt lat="42.978731961920857" lon="-5.001495033502579">
        <ele>1157.5599999999999</ele>
        <time>2025-04-29T09:53:08Z</time>
      </trkpt>
      <trkpt lat="42.978765992447734" lon="-5.001295041292906">
        <ele>1158.05</ele>
        <time>2025-04-29T09:53:09Z</time>
      </trkpt>
      <trkpt lat="42.978774039074779" lon="-5.001071998849511">
        <ele>1158.05</ele>
        <time>2025-04-29T09:53:10Z</time>
      </trkpt>
      <trkpt lat="42.978774039074779" lon="-5.000839987769723">
        <ele>1158.53</ele>
        <time>2025-04-29T09:53:11Z</time>
      </trkpt>
      <trkpt lat="42.978774039074779" lon="-5.000605965033174">
        <ele>1159.01</ele>
        <time>2025-04-29T09:53:12Z</time>
      </trkpt>
      <trkpt lat="42.978791976347566" lon="-5.000379988923669">
        <ele>1159.49</ele>
        <time>2025-04-29T09:53:13Z</time>
      </trkpt>
      <trkpt lat="42.978846961632371" lon="-5.000159963965416">
        <ele>1159.97</ele>
        <time>2025-04-29T09:53:14Z</time>
      </trkpt>
      <trkpt lat="42.978927008807659" lon="-4.999958965927362">
        <ele>1160.45</ele>
        <time>2025-04-29T09:53:15Z</time>
      </trkpt>
      <trkpt lat="42.97901401296258" lon="-4.999764002859592">
        <ele>1160.9300000000001</ele>
        <time>2025-04-29T09:53:16Z</time>
      </trkpt>
      <trkpt lat="42.97918701544404" lon="-4.999378016218543">
        <ele>1161.4100000000001</ele>
        <time>2025-04-29T09:53:18Z</time>
      </trkpt>
      <trkpt lat="42.979238983243704" lon="-4.999175006523728">
        <ele>1161.8900000000001</ele>
        <time>2025-04-29T09:53:19Z</time>
      </trkpt>
      <trkpt lat="42.979266978800297" lon="-4.998952969908714">
        <ele>1161.8900000000001</ele>
        <time>2025-04-29T09:53:20Z</time>
      </trkpt>
      <trkpt lat="42.979238983243704" lon="-4.998765969648957">
        <ele>1162.3699999999999</ele>
        <time>2025-04-29T09:53:21Z</time>
      </trkpt>
      <trkpt lat="42.979205958545208" lon="-4.998552985489368">
        <ele>1162.3699999999999</ele>
        <time>2025-04-29T09:53:22Z</time>
      </trkpt>
      <trkpt lat="42.979180980473757" lon="-4.998392974957824">
        <ele>1162.3699999999999</ele>
        <time>2025-04-29T09:53:23Z</time>
      </trkpt>
      <trkpt lat="42.979099005460739" lon="-4.998225001618266">
        <ele>1162.8499999999999</ele>
        <time>2025-04-29T09:53:24Z</time>
      </trkpt>
      <trkpt lat="42.979005966335535" lon="-4.998033978044987">
        <ele>1163.3299999999999</ele>
        <time>2025-04-29T09:53:25Z</time>
      </trkpt>
      <trkpt lat="42.978909993544221" lon="-4.997837003320456">
        <ele>1163.3299999999999</ele>
        <time>2025-04-29T09:53:26Z</time>
      </trkpt>
      <trkpt lat="42.978801028802991" lon="-4.997614966705442">
        <ele>1163.3299999999999</ele>
        <time>2025-04-29T09:53:27Z</time>
      </trkpt>
      <trkpt lat="42.978711007162929" lon="-4.99731196090579">
        <ele>1163.3299999999999</ele>
        <time>2025-04-29T09:53:28Z</time>
      </trkpt>
      <trkpt lat="42.978688040748239" lon="-4.997054971754551">
        <ele>1163.3299999999999</ele>
        <time>2025-04-29T09:53:29Z</time>
      </trkpt>
      <trkpt lat="42.978717964142561" lon="-4.996791025623679">
        <ele>1163.3299999999999</ele>
        <time>2025-04-29T09:53:30Z</time>
      </trkpt>
      <trkpt lat="42.978802034631371" lon="-4.996549040079117">
        <ele>1163.3299999999999</ele>
        <time>2025-04-29T09:53:31Z</time>
      </trkpt>
      <trkpt lat="42.978902030736208" lon="-4.996376037597656">
        <ele>1163.8099999999999</ele>
        <time>2025-04-29T09:53:32Z</time>
      </trkpt>
      <trkpt lat="42.979050977155566" lon="-4.996222984045744">
        <ele>1163.8099999999999</ele>
        <time>2025-04-29T09:53:33Z</time>
      </trkpt>
      <trkpt lat="42.97918701544404" lon="-4.996082000434399">
        <ele>1163.8099999999999</ele>
        <time>2025-04-29T09:53:34Z</time>
      </trkpt>
      <trkpt lat="42.979327999055386" lon="-4.99593598768115">
        <ele>1164.29</ele>
        <time>2025-04-29T09:53:35Z</time>
      </trkpt>
      <trkpt lat="42.979470994323492" lon="-4.995787041261792">
        <ele>1164.77</ele>
        <time>2025-04-29T09:53:36Z</time>
      </trkpt>
      <trkpt lat="42.979571996256709" lon="-4.995605992153287">
        <ele>1164.77</ele>
        <time>2025-04-29T09:53:37Z</time>
      </trkpt>
      <trkpt lat="42.97965900041163" lon="-4.995409017428756">
        <ele>1164.77</ele>
        <time>2025-04-29T09:53:38Z</time>
      </trkpt>
      <trkpt lat="42.979715997353196" lon="-4.99518102966249">
        <ele>1164.77</ele>
        <time>2025-04-29T09:53:39Z</time>
      </trkpt>
      <trkpt lat="42.979764025658369" lon="-4.994947006925941">
        <ele>1164.77</ele>
        <time>2025-04-29T09:53:40Z</time>
      </trkpt>
      <trkpt lat="42.979778023436666" lon="-4.994689011946321">
        <ele>1164.77</ele>
        <time>2025-04-29T09:53:41Z</time>
      </trkpt>
      <trkpt lat="42.979792021214962" lon="-4.994436968117952">
        <ele>1164.29</ele>
        <time>2025-04-29T09:53:42Z</time>
      </trkpt>
      <trkpt lat="42.979809958487749" lon="-4.994204035028815">
        <ele>1164.29</ele>
        <time>2025-04-29T09:53:43Z</time>
      </trkpt>
      <trkpt lat="42.979867039248347" lon="-4.993976969271898">
        <ele>1163.8099999999999</ele>
        <time>2025-04-29T09:53:44Z</time>
      </trkpt>
      <trkpt lat="42.979949014261365" lon="-4.993789969012141">
        <ele>1163.3299999999999</ele>
        <time>2025-04-29T09:53:45Z</time>
      </trkpt>
      <trkpt lat="42.980060996487737" lon="-4.993607997894287">
        <ele>1163.3299999999999</ele>
        <time>2025-04-29T09:53:46Z</time>
      </trkpt>
      <trkpt lat="42.98019502311945" lon="-4.993502972647548">
        <ele>1162.8499999999999</ele>
        <time>2025-04-29T09:53:47Z</time>
      </trkpt>
      <trkpt lat="42.980360984802246" lon="-4.993371963500977">
        <ele>1162.3699999999999</ele>
        <time>2025-04-29T09:53:48Z</time>
      </trkpt>
      <trkpt lat="42.980509009212255" lon="-4.993362994864583">
        <ele>1162.3699999999999</ele>
        <time>2025-04-29T09:53:49Z</time>
      </trkpt>
      <trkpt lat="42.980678994208574" lon="-4.993353020399809">
        <ele>1161.8900000000001</ele>
        <time>2025-04-29T09:53:50Z</time>
      </trkpt>
      <trkpt lat="42.980854008346796" lon="-4.993414962664247">
        <ele>1161.8900000000001</ele>
        <time>2025-04-29T09:53:51Z</time>
      </trkpt>
      <trkpt lat="42.981029022485018" lon="-4.993502972647548">
        <ele>1161.4100000000001</ele>
        <time>2025-04-29T09:53:52Z</time>
      </trkpt>
      <trkpt lat="42.981178974732757" lon="-4.993648985400796">
        <ele>1160.45</ele>
        <time>2025-04-29T09:53:53Z</time>
      </trkpt>
      <trkpt lat="42.98133303411305" lon="-4.993799021467567">
        <ele>1159.97</ele>
        <time>2025-04-29T09:53:54Z</time>
      </trkpt>
      <trkpt lat="42.981813987717032" lon="-4.994267988950014">
        <ele>1158.05</ele>
        <time>2025-04-29T09:53:57Z</time>
      </trkpt>
      <trkpt lat="42.981995958834887" lon="-4.994368990883231">
        <ele>1157.5599999999999</ele>
        <time>2025-04-29T09:53:58Z</time>
      </trkpt>
      <trkpt lat="42.982185976579785" lon="-4.994460018351674">
        <ele>1157.0799999999999</ele>
        <time>2025-04-29T09:53:59Z</time>
      </trkpt>
      <trkpt lat="42.982758963480592" lon="-4.994712984189391">
        <ele>1155.6400000000001</ele>
        <time>2025-04-29T09:54:02Z</time>
      </trkpt>
      <trkpt lat="42.982933977618814" lon="-4.994829995557666">
        <ele>1155.1600000000001</ele>
        <time>2025-04-29T09:54:03Z</time>
      </trkpt>
      <trkpt lat="42.983094993978739" lon="-4.995005009695888">
        <ele>1154.6800000000001</ele>
        <time>2025-04-29T09:54:04Z</time>
      </trkpt>
      <trkpt lat="42.983232038095593" lon="-4.995195027440786">
        <ele>1154.2</ele>
        <time>2025-04-29T09:54:05Z</time>
      </trkpt>
      <trkpt lat="42.983370004221797" lon="-4.995386973023415">
        <ele>1153.72</ele>
        <time>2025-04-29T09:54:06Z</time>
      </trkpt>
      <trkpt lat="42.983493972569704" lon="-4.995560981333256">
        <ele>1153.24</ele>
        <time>2025-04-29T09:54:07Z</time>
      </trkpt>
      <trkpt lat="42.98367602750659" lon="-4.995701964944601">
        <ele>1152.28</ele>
        <time>2025-04-29T09:54:08Z</time>
      </trkpt>
      <trkpt lat="42.983847018331289" lon="-4.995834985747933">
        <ele>1151.8</ele>
        <time>2025-04-29T09:54:09Z</time>
      </trkpt>
      <trkpt lat="42.984033012762666" lon="-4.995897011831403">
        <ele>1151.3199999999999</ele>
        <time>2025-04-29T09:54:10Z</time>
      </trkpt>
      <trkpt lat="42.98423602245748" lon="-4.995945040136576">
        <ele>1150.8399999999999</ele>
        <time>2025-04-29T09:54:11Z</time>
      </trkpt>
      <trkpt lat="42.984442971646786" lon="-4.995924001559615">
        <ele>1149.8699999999999</ele>
        <time>2025-04-29T09:54:12Z</time>
      </trkpt>
      <trkpt lat="42.984610022976995" lon="-4.995903968811035">
        <ele>1149.3900000000001</ele>
        <time>2025-04-29T09:54:13Z</time>
      </trkpt>
      <trkpt lat="42.984855026006699" lon="-4.99576399102807">
        <ele>1148.4300000000001</ele>
        <time>2025-04-29T09:54:14Z</time>
      </trkpt>
      <trkpt lat="42.985038002952933" lon="-4.995619989931583">
        <ele>1147.47</ele>
        <time>2025-04-29T09:54:15Z</time>
      </trkpt>
      <trkpt lat="42.985222991555929" lon="-4.995456961914897">
        <ele>1146.51</ele>
        <time>2025-04-29T09:54:16Z</time>
      </trkpt>
      <trkpt lat="42.985410997644067" lon="-4.995314972475171">
        <ele>1145.55</ele>
        <time>2025-04-29T09:54:17Z</time>
      </trkpt>
      <trkpt lat="42.985580982640386" lon="-4.995195027440786">
        <ele>1145.0699999999999</ele>
        <time>2025-04-29T09:54:18Z</time>
      </trkpt>
      <trkpt lat="42.9857839923352" lon="-4.995148004963994">
        <ele>1144.5899999999999</ele>
        <time>2025-04-29T09:54:19Z</time>
      </trkpt>
      <trkpt lat="42.985963029786944" lon="-4.99514096416533">
        <ele>1143.6300000000001</ele>
        <time>2025-04-29T09:54:20Z</time>
      </trkpt>
      <trkpt lat="42.986329989507794" lon="-4.995076004415751">
        <ele>1141.7</ele>
        <time>2025-04-29T09:54:22Z</time>
      </trkpt>
      <trkpt lat="42.986505003646016" lon="-4.99498900026083">
        <ele>1140.74</ele>
        <time>2025-04-29T09:54:23Z</time>
      </trkpt>
      <trkpt lat="42.986613968387246" lon="-4.994867965579033">
        <ele>1139.78</ele>
        <time>2025-04-29T09:54:24Z</time>
      </trkpt>
      <trkpt lat="42.986710024997592" lon="-4.994694963097572">
        <ele>1139.3</ele>
        <time>2025-04-29T09:54:25Z</time>
      </trkpt>
      <trkpt lat="42.986785965040326" lon="-4.994539981707931">
        <ele>1138.8199999999999</ele>
        <time>2025-04-29T09:54:26Z</time>
      </trkpt>
      <trkpt lat="42.986840028315783" lon="-4.994330015033484">
        <ele>1138.3399999999999</ele>
        <time>2025-04-29T09:54:27Z</time>
      </trkpt>
      <trkpt lat="42.986897025257349" lon="-4.994105966761708">
        <ele>1137.3800000000001</ele>
        <time>2025-04-29T09:54:28Z</time>
      </trkpt>
      <trkpt lat="42.98715703189373" lon="-4.993472965434194">
        <ele>1135.45</ele>
        <time>2025-04-29T09:54:31Z</time>
      </trkpt>
      <trkpt lat="42.987268008291721" lon="-4.993297029286623">
        <ele>1134.49</ele>
        <time>2025-04-29T09:54:32Z</time>
      </trkpt>
      <trkpt lat="42.987382002174854" lon="-4.993115980178118">
        <ele>1134.01</ele>
        <time>2025-04-29T09:54:33Z</time>
      </trkpt>
      <trkpt lat="42.987489961087704" lon="-4.992942977696657">
        <ele>1133.53</ele>
        <time>2025-04-29T09:54:34Z</time>
      </trkpt>
      <trkpt lat="42.987592974677682" lon="-4.992751032114029">
        <ele>1132.5699999999999</ele>
        <time>2025-04-29T09:54:35Z</time>
      </trkpt>
      <trkpt lat="42.987659024074674" lon="-4.992566965520382">
        <ele>1132.0899999999999</ele>
        <time>2025-04-29T09:54:36Z</time>
      </trkpt>
      <trkpt lat="42.987709986045957" lon="-4.992350041866303">
        <ele>1131.6099999999999</ele>
        <time>2025-04-29T09:54:37Z</time>
      </trkpt>
      <trkpt lat="42.987732030451298" lon="-4.992148960009217">
        <ele>1131.1300000000001</ele>
        <time>2025-04-29T09:54:38Z</time>
      </trkpt>
      <trkpt lat="42.987752985209227" lon="-4.991946034133434">
        <ele>1130.6500000000001</ele>
        <time>2025-04-29T09:54:39Z</time>
      </trkpt>
      <trkpt lat="42.987794978544116" lon="-4.991559041664004">
        <ele>1130.6500000000001</ele>
        <time>2025-04-29T09:54:41Z</time>
      </trkpt>
      <trkpt lat="42.987821968272328" lon="-4.991405988112092">
        <ele>1130.1700000000001</ele>
        <time>2025-04-29T09:54:42Z</time>
      </trkpt>
      <trkpt lat="42.987891035154462" lon="-4.991245977580547">
        <ele>1130.1700000000001</ele>
        <time>2025-04-29T09:54:43Z</time>
      </trkpt>
      <trkpt lat="42.987963035702705" lon="-4.991109017282724">
        <ele>1129.6900000000001</ele>
        <time>2025-04-29T09:54:44Z</time>
      </trkpt>
      <trkpt lat="42.98805900849402" lon="-4.990997035056353">
        <ele>1129.21</ele>
        <time>2025-04-29T09:54:45Z</time>
      </trkpt>
      <trkpt lat="42.988166967406869" lon="-4.990935008972883">
        <ele>1128.73</ele>
        <time>2025-04-29T09:54:46Z</time>
      </trkpt>
      <trkpt lat="42.988285990431905" lon="-4.990870971232653">
        <ele>1128.73</ele>
        <time>2025-04-29T09:54:47Z</time>
      </trkpt>
      <trkpt lat="42.988401995971799" lon="-4.990834007039666">
        <ele>1128.24</ele>
        <time>2025-04-29T09:54:48Z</time>
      </trkpt>
      <trkpt lat="42.988528981804848" lon="-4.99082000926137">
        <ele>1128.24</ele>
        <time>2025-04-29T09:54:49Z</time>
      </trkpt>
      <trkpt lat="42.988650016486645" lon="-4.990855967625976">
        <ele>1128.24</ele>
        <time>2025-04-29T09:54:50Z</time>
      </trkpt>
      <trkpt lat="42.9887680336833" lon="-4.990921011194587">
        <ele>1128.24</ele>
        <time>2025-04-29T09:54:51Z</time>
      </trkpt>
      <trkpt lat="42.988887978717685" lon="-4.991041040048003">
        <ele>1128.73</ele>
        <time>2025-04-29T09:54:52Z</time>
      </trkpt>
      <trkpt lat="42.989003984257579" lon="-4.991156961768866">
        <ele>1128.73</ele>
        <time>2025-04-29T09:54:53Z</time>
      </trkpt>
      <trkpt lat="42.989075984805822" lon="-4.991283025592566">
        <ele>1128.73</ele>
        <time>2025-04-29T09:54:54Z</time>
      </trkpt>
      <trkpt lat="42.989126024767756" lon="-4.991392996162176">
        <ele>1128.73</ele>
        <time>2025-04-29T09:54:55Z</time>
      </trkpt>
      <trkpt lat="42.989148991182446" lon="-4.99148796312511">
        <ele>1128.73</ele>
        <time>2025-04-29T09:54:56Z</time>
      </trkpt>
      <trkpt lat="42.989161983132362" lon="-4.991568010300398">
        <ele>1129.21</ele>
        <time>2025-04-29T09:54:57Z</time>
      </trkpt>
      <trkpt lat="42.989172963425517" lon="-4.991633975878358">
        <ele>1129.21</ele>
        <time>2025-04-29T09:54:58Z</time>
      </trkpt>
      <trkpt lat="42.989200036972761" lon="-4.991791974753141">
        <ele>1130.1700000000001</ele>
        <time>2025-04-29T09:55:02Z</time>
      </trkpt>
      <trkpt lat="42.989200036972761" lon="-4.991791974753141">
        <ele>1130.6500000000001</ele>
        <time>2025-04-29T09:55:17Z</time>
      </trkpt>
      <trkpt lat="42.989200036972761" lon="-4.991791974753141">
        <ele>1131.1300000000001</ele>
        <time>2025-04-29T09:56:12Z</time>
      </trkpt>
      <trkpt lat="42.989200036972761" lon="-4.991791974753141">
        <ele>1131.6099999999999</ele>
        <time>2025-04-29T09:57:04Z</time>
      </trkpt>
      <trkpt lat="42.989200036972761" lon="-4.991791974753141">
        <ele>1131.6099999999999</ele>
        <time>2025-04-29T09:57:55Z</time>
      </trkpt>
      <trkpt lat="42.989200036972761" lon="-4.991791974753141">
        <ele>1132.0899999999999</ele>
        <time>2025-04-29T09:58:50Z</time>
      </trkpt>
      <trkpt lat="42.989202970638871" lon="-4.991813013330102">
        <ele>1132.0899999999999</ele>
        <time>2025-04-29T09:59:13Z</time>
      </trkpt>
      <trkpt lat="42.989289974793792" lon="-4.99238901771605">
        <ele>1134.01</ele>
        <time>2025-04-29T09:59:19Z</time>
      </trkpt>
      <trkpt lat="42.989402962848544" lon="-4.993180017918348">
        <ele>1135.45</ele>
        <time>2025-04-29T09:59:24Z</time>
      </trkpt>
      <trkpt lat="42.989462977275252" lon="-4.993344973772764">
        <ele>1135.9400000000001</ele>
        <time>2025-04-29T09:59:25Z</time>
      </trkpt>
      <trkpt lat="42.989534977823496" lon="-4.993513030931354">
        <ele>1136.4200000000001</ele>
        <time>2025-04-29T09:59:26Z</time>
      </trkpt>
      <trkpt lat="42.989621981978416" lon="-4.993674969300628">
        <ele>1136.9000000000001</ele>
        <time>2025-04-29T09:59:27Z</time>
      </trkpt>
      <trkpt lat="42.989730024710298" lon="-4.993817964568734">
        <ele>1137.8599999999999</ele>
        <time>2025-04-29T09:59:28Z</time>
      </trkpt>
      <trkpt lat="42.989836977794766" lon="-4.993960959836841">
        <ele>1138.3399999999999</ele>
        <time>2025-04-29T09:59:29Z</time>
      </trkpt>
      <trkpt lat="42.989931022748351" lon="-4.994102027267218">
        <ele>1139.3</ele>
        <time>2025-04-29T09:59:30Z</time>
      </trkpt>
      <trkpt lat="42.990192035213113" lon="-4.994652969762683">
        <ele>1141.7</ele>
        <time>2025-04-29T09:59:34Z</time>
      </trkpt>
      <trkpt lat="42.990256994962692" lon="-4.994791019707918">
        <ele>1141.7</ele>
        <time>2025-04-29T09:59:35Z</time>
      </trkpt>
      <trkpt lat="42.99033997580409" lon="-4.99492303468287">
        <ele>1142.1800000000001</ele>
        <time>2025-04-29T09:59:36Z</time>
      </trkpt>
      <trkpt lat="42.990443995222449" lon="-4.995039962232113">
        <ele>1142.6600000000001</ele>
        <time>2025-04-29T09:59:37Z</time>
      </trkpt>
      <trkpt lat="42.990582967177033" lon="-4.99511799775064">
        <ele>1143.1400000000001</ele>
        <time>2025-04-29T09:59:38Z</time>
      </trkpt>
      <trkpt lat="42.990735014900565" lon="-4.995163008570671">
        <ele>1143.1400000000001</ele>
        <time>2025-04-29T09:59:39Z</time>
      </trkpt>
      <trkpt lat="42.99089502543211" lon="-4.995185974985361">
        <ele>1143.6300000000001</ele>
        <time>2025-04-29T09:59:40Z</time>
      </trkpt>
      <trkpt lat="42.991070039570332" lon="-4.995186980813742">
        <ele>1143.6300000000001</ele>
        <time>2025-04-29T09:59:41Z</time>
      </trkpt>
      <trkpt lat="42.9920369759202" lon="-4.995068041607738">
        <ele>1142.1800000000001</ele>
        <time>2025-04-29T09:59:47Z</time>
      </trkpt>
      <trkpt lat="42.992167985066772" lon="-4.994986988604069">
        <ele>1141.7</ele>
        <time>2025-04-29T09:59:48Z</time>
      </trkpt>
      <trkpt lat="42.992297988384962" lon="-4.994906019419432">
        <ele>1141.22</ele>
        <time>2025-04-29T09:59:49Z</time>
      </trkpt>
      <trkpt lat="42.992719011381269" lon="-4.99464500695467">
        <ele>1139.78</ele>
        <time>2025-04-29T09:59:52Z</time>
      </trkpt>
      <trkpt lat="42.992865024134517" lon="-4.994596978649497">
        <ele>1138.8199999999999</ele>
        <time>2025-04-29T09:59:53Z</time>
      </trkpt>
      <trkpt lat="42.993021011352539" lon="-4.994566971436143">
        <ele>1138.3399999999999</ele>
        <time>2025-04-29T09:59:54Z</time>
      </trkpt>
      <trkpt lat="42.993920976296067" lon="-4.994233958423138">
        <ele>1133.53</ele>
        <time>2025-04-29T10:00:00Z</time>
      </trkpt>
      <trkpt lat="42.9940539970994" lon="-4.994117030873895">
        <ele>1132.5699999999999</ele>
        <time>2025-04-29T10:00:01Z</time>
      </trkpt>
      <trkpt lat="42.994451969861984" lon="-4.99376499094069">
        <ele>1129.6900000000001</ele>
        <time>2025-04-29T10:00:04Z</time>
      </trkpt>
      <trkpt lat="42.994594965130091" lon="-4.993697013705969">
        <ele>1128.73</ele>
        <time>2025-04-29T10:00:05Z</time>
      </trkpt>
      <trkpt lat="42.994736032560468" lon="-4.993655020371079">
        <ele>1127.76</ele>
        <time>2025-04-29T10:00:06Z</time>
      </trkpt>
      <trkpt lat="42.994883973151445" lon="-4.993668012320995">
        <ele>1126.8</ele>
        <time>2025-04-29T10:00:07Z</time>
      </trkpt>
      <trkpt lat="42.995014982298017" lon="-4.993718974292278">
        <ele>1125.8399999999999</ele>
        <time>2025-04-29T10:00:08Z</time>
      </trkpt>
      <trkpt lat="42.995124030858278" lon="-4.993779994547367">
        <ele>1125.3599999999999</ele>
        <time>2025-04-29T10:00:09Z</time>
      </trkpt>
      <trkpt lat="42.995241964235902" lon="-4.993927013128996">
        <ele>1124.8800000000001</ele>
        <time>2025-04-29T10:00:10Z</time>
      </trkpt>
      <trkpt lat="42.995345983654261" lon="-4.994057016447187">
        <ele>1124.4000000000001</ele>
        <time>2025-04-29T10:00:11Z</time>
      </trkpt>
      <trkpt lat="42.995414966717362" lon="-4.994208980351687">
        <ele>1124.4000000000001</ele>
        <time>2025-04-29T10:00:12Z</time>
      </trkpt>
      <trkpt lat="42.995469029992819" lon="-4.994378965348005">
        <ele>1123.9200000000001</ele>
        <time>2025-04-29T10:00:13Z</time>
      </trkpt>
      <trkpt lat="42.995483027771115" lon="-4.994565965607762">
        <ele>1123.9200000000001</ele>
        <time>2025-04-29T10:00:14Z</time>
      </trkpt>
      <trkpt lat="42.99547397531569" lon="-4.994757995009422">
        <ele>1123.9200000000001</ele>
        <time>2025-04-29T10:00:15Z</time>
      </trkpt>
      <trkpt lat="42.995450003072619" lon="-4.994952036067843">
        <ele>1123.9200000000001</ele>
        <time>2025-04-29T10:00:16Z</time>
      </trkpt>
      <trkpt lat="42.995394011959434" lon="-4.995135013014078">
        <ele>1123.9200000000001</ele>
        <time>2025-04-29T10:00:17Z</time>
      </trkpt>
      <trkpt lat="42.995336009189487" lon="-4.995322013273835">
        <ele>1123.9200000000001</ele>
        <time>2025-04-29T10:00:18Z</time>
      </trkpt>
      <trkpt lat="42.995269037783146" lon="-4.995508007705212">
        <ele>1124.4000000000001</ele>
        <time>2025-04-29T10:00:19Z</time>
      </trkpt>
      <trkpt lat="42.994432020932436" lon="-4.996860008686781">
        <ele>1127.28</ele>
        <time>2025-04-29T10:00:27Z</time>
      </trkpt>
      <trkpt lat="42.994328001514077" lon="-4.997044997289777">
        <ele>1127.76</ele>
        <time>2025-04-29T10:00:28Z</time>
      </trkpt>
      <trkpt lat="42.994251977652311" lon="-4.997257981449366">
        <ele>1127.76</ele>
        <time>2025-04-29T10:00:29Z</time>
      </trkpt>
      <trkpt lat="42.994171008467674" lon="-4.997486975044012">
        <ele>1127.76</ele>
        <time>2025-04-29T10:00:30Z</time>
      </trkpt>
      <trkpt lat="42.994103031232953" lon="-4.997725021094084">
        <ele>1128.24</ele>
        <time>2025-04-29T10:00:31Z</time>
      </trkpt>
      <trkpt lat="42.994061037898064" lon="-4.997991984710097">
        <ele>1128.24</ele>
        <time>2025-04-29T10:00:32Z</time>
      </trkpt>
      <trkpt lat="42.994063971564174" lon="-4.998258026316762">
        <ele>1128.73</ele>
        <time>2025-04-29T10:00:33Z</time>
      </trkpt>
      <trkpt lat="42.994088027626276" lon="-4.998524989932776">
        <ele>1128.73</ele>
        <time>2025-04-29T10:00:34Z</time>
      </trkpt>
      <trkpt lat="42.994130020961165" lon="-4.998779967427254">
        <ele>1128.73</ele>
        <time>2025-04-29T10:00:35Z</time>
      </trkpt>
      <trkpt lat="42.994213001802564" lon="-4.999026982113719">
        <ele>1128.73</ele>
        <time>2025-04-29T10:00:36Z</time>
      </trkpt>
      <trkpt lat="42.994317021220922" lon="-4.999238038435578">
        <ele>1129.21</ele>
        <time>2025-04-29T10:00:37Z</time>
      </trkpt>
      <trkpt lat="42.994449036195874" lon="-4.999448005110025">
        <ele>1129.21</ele>
        <time>2025-04-29T10:00:38Z</time>
      </trkpt>
      <trkpt lat="42.994579961523414" lon="-4.999655038118362">
        <ele>1129.21</ele>
        <time>2025-04-29T10:00:39Z</time>
      </trkpt>
      <trkpt lat="42.994714993983507" lon="-4.999782023951411">
        <ele>1129.21</ele>
        <time>2025-04-29T10:00:40Z</time>
      </trkpt>
      <trkpt lat="42.994891013950109" lon="-4.999915966764092">
        <ele>1128.73</ele>
        <time>2025-04-29T10:00:41Z</time>
      </trkpt>
      <trkpt lat="42.995059993118048" lon="-5.000044964253902">
        <ele>1129.21</ele>
        <time>2025-04-29T10:00:42Z</time>
      </trkpt>
      <trkpt lat="42.995266020298004" lon="-5.000133980065584">
        <ele>1129.21</ele>
        <time>2025-04-29T10:00:43Z</time>
      </trkpt>
      <trkpt lat="42.995479004457593" lon="-5.000225007534027">
        <ele>1129.21</ele>
        <time>2025-04-29T10:00:44Z</time>
      </trkpt>
      <trkpt lat="42.995889969170094" lon="-5.000376971438527">
        <ele>1129.6900000000001</ele>
        <time>2025-04-29T10:00:46Z</time>
      </trkpt>
      <trkpt lat="42.996099013835192" lon="-5.000403039157391">
        <ele>1129.6900000000001</ele>
        <time>2025-04-29T10:00:47Z</time>
      </trkpt>
      <trkpt lat="42.996305041015148" lon="-5.000429023057222">
        <ele>1129.6900000000001</ele>
        <time>2025-04-29T10:00:48Z</time>
      </trkpt>
      <trkpt lat="42.996494974941015" lon="-5.000380994752049">
        <ele>1129.6900000000001</ele>
        <time>2025-04-29T10:00:49Z</time>
      </trkpt>
      <trkpt lat="42.996674012392759" lon="-5.000271024182439">
        <ele>1129.21</ele>
        <time>2025-04-29T10:00:50Z</time>
      </trkpt>
      <trkpt lat="42.99684701487422" lon="-5.000127023085952">
        <ele>1129.21</ele>
        <time>2025-04-29T10:00:51Z</time>
      </trkpt>
      <trkpt lat="42.997025968506932" lon="-4.999953014776111">
        <ele>1129.21</ele>
        <time>2025-04-29T10:00:52Z</time>
      </trkpt>
      <trkpt lat="42.997205005958676" lon="-4.99977900646627">
        <ele>1129.21</ele>
        <time>2025-04-29T10:00:53Z</time>
      </trkpt>
      <trkpt lat="42.997377002611756" lon="-4.999612960964441">
        <ele>1129.21</ele>
        <time>2025-04-29T10:00:54Z</time>
      </trkpt>
      <trkpt lat="42.997892992570996" lon="-4.999197972938418">
        <ele>1129.21</ele>
        <time>2025-04-29T10:00:57Z</time>
      </trkpt>
      <trkpt lat="42.998043028637767" lon="-4.999143993481994">
        <ele>1129.21</ele>
        <time>2025-04-29T10:00:58Z</time>
      </trkpt>
      <trkpt lat="42.99822399392724" lon="-4.999164026230574">
        <ele>1129.21</ele>
        <time>2025-04-29T10:00:59Z</time>
      </trkpt>
      <trkpt lat="42.998366989195347" lon="-4.999237032607198">
        <ele>1129.21</ele>
        <time>2025-04-29T10:01:00Z</time>
      </trkpt>
      <trkpt lat="42.998472014442086" lon="-4.999294029548764">
        <ele>1129.21</ele>
        <time>2025-04-29T10:01:01Z</time>
      </trkpt>
      <trkpt lat="42.998603023588657" lon="-4.9994579795748">
        <ele>1129.21</ele>
        <time>2025-04-29T10:01:02Z</time>
      </trkpt>
      <trkpt lat="42.998671000823379" lon="-4.999611033126712">
        <ele>1128.73</ele>
        <time>2025-04-29T10:01:03Z</time>
      </trkpt>
      <trkpt lat="42.998731015250087" lon="-4.999832985922694">
        <ele>1128.73</ele>
        <time>2025-04-29T10:01:04Z</time>
      </trkpt>
      <trkpt lat="42.998792035505176" lon="-5.000058962032199">
        <ele>1128.24</ele>
        <time>2025-04-29T10:01:05Z</time>
      </trkpt>
      <trkpt lat="42.998853977769613" lon="-5.000288039445877">
        <ele>1128.73</ele>
        <time>2025-04-29T10:01:06Z</time>
      </trkpt>
      <trkpt lat="42.998918015509844" lon="-5.000520972535014">
        <ele>1128.73</ele>
        <time>2025-04-29T10:01:07Z</time>
      </trkpt>
      <trkpt lat="42.999035026878119" lon="-5.000735968351364">
        <ele>1128.24</ele>
        <time>2025-04-29T10:01:08Z</time>
      </trkpt>
      <trkpt lat="42.99916603602469" lon="-5.000921040773392">
        <ele>1128.24</ele>
        <time>2025-04-29T10:01:09Z</time>
      </trkpt>
      <trkpt lat="42.999326968565583" lon="-5.001065963879228">
        <ele>1128.24</ele>
        <time>2025-04-29T10:01:10Z</time>
      </trkpt>
      <trkpt lat="42.999502988532186" lon="-5.001161014661193">
        <ele>1128.24</ele>
        <time>2025-04-29T10:01:11Z</time>
      </trkpt>
      <trkpt lat="42.999715972691774" lon="-5.001204013824463">
        <ele>1127.76</ele>
        <time>2025-04-29T10:01:12Z</time>
      </trkpt>
      <trkpt lat="42.999887969344854" lon="-5.001167971640825">
        <ele>1127.76</ele>
        <time>2025-04-29T10:01:13Z</time>
      </trkpt>
      <trkpt lat="43.000081004574895" lon="-5.001126984134316">
        <ele>1127.28</ele>
        <time>2025-04-29T10:01:14Z</time>
      </trkpt>
      <trkpt lat="43.000270016491413" lon="-5.001088008284569">
        <ele>1127.76</ele>
        <time>2025-04-29T10:01:15Z</time>
      </trkpt>
      <trkpt lat="43.000453999266028" lon="-5.001049032434821">
        <ele>1127.76</ele>
        <time>2025-04-29T10:01:16Z</time>
      </trkpt>
      <trkpt lat="43.00060898065567" lon="-5.001062024384737">
        <ele>1127.76</ele>
        <time>2025-04-29T10:01:17Z</time>
      </trkpt>
      <trkpt lat="43.000810984522104" lon="-5.001139976084232">
        <ele>1127.28</ele>
        <time>2025-04-29T10:01:18Z</time>
      </trkpt>
      <trkpt lat="43.00093000754714" lon="-5.00124198384583">
        <ele>1127.28</ele>
        <time>2025-04-29T10:01:19Z</time>
      </trkpt>
      <trkpt lat="43.001041989773512" lon="-5.001438958570361">
        <ele>1127.28</ele>
        <time>2025-04-29T10:01:20Z</time>
      </trkpt>
      <trkpt lat="43.00114500336349" lon="-5.001654038205743">
        <ele>1127.28</ele>
        <time>2025-04-29T10:01:21Z</time>
      </trkpt>
      <trkpt lat="43.001246005296707" lon="-5.001868028193712">
        <ele>1127.76</ele>
        <time>2025-04-29T10:01:22Z</time>
      </trkpt>
      <trkpt lat="43.001348013058305" lon="-5.002081012353301">
        <ele>1128.24</ele>
        <time>2025-04-29T10:01:23Z</time>
      </trkpt>
      <trkpt lat="43.001473993062973" lon="-5.002253009006381">
        <ele>1128.24</ele>
        <time>2025-04-29T10:01:24Z</time>
      </trkpt>
      <trkpt lat="43.001646995544434" lon="-5.002427017316222">
        <ele>1128.73</ele>
        <time>2025-04-29T10:01:25Z</time>
      </trkpt>
      <trkpt lat="43.001799965277314" lon="-5.002480996772647">
        <ele>1128.73</ele>
        <time>2025-04-29T10:01:26Z</time>
      </trkpt>
      <trkpt lat="43.001974979415536" lon="-5.002543022856116">
        <ele>1129.21</ele>
        <time>2025-04-29T10:01:27Z</time>
      </trkpt>
      <trkpt lat="43.002313021570444" lon="-5.002662967890501">
        <ele>1128.73</ele>
        <time>2025-04-29T10:01:29Z</time>
      </trkpt>
      <trkpt lat="43.002480994910002" lon="-5.002805041149259">
        <ele>1128.73</ele>
        <time>2025-04-29T10:01:30Z</time>
      </trkpt>
      <trkpt lat="43.002647962421179" lon="-5.002944013103843">
        <ele>1128.24</ele>
        <time>2025-04-29T10:01:31Z</time>
      </trkpt>
      <trkpt lat="43.003538036718965" lon="-5.003568967804313">
        <ele>1126.8</ele>
        <time>2025-04-29T10:01:36Z</time>
      </trkpt>
      <trkpt lat="43.003743980079889" lon="-5.003630993887782">
        <ele>1126.3199999999999</ele>
        <time>2025-04-29T10:01:37Z</time>
      </trkpt>
      <trkpt lat="43.003966016694903" lon="-5.003668963909149">
        <ele>1125.3599999999999</ele>
        <time>2025-04-29T10:01:38Z</time>
      </trkpt>
      <trkpt lat="43.004186041653156" lon="-5.003659995272756">
        <ele>1124.8800000000001</ele>
        <time>2025-04-29T10:01:39Z</time>
      </trkpt>
      <trkpt lat="43.0044100061059" lon="-5.003652032464743">
        <ele>1123.9200000000001</ele>
        <time>2025-04-29T10:01:40Z</time>
      </trkpt>
      <trkpt lat="43.004642017185688" lon="-5.003608027473092">
        <ele>1122.96</ele>
        <time>2025-04-29T10:01:41Z</time>
      </trkpt>
      <trkpt lat="43.004868999123573" lon="-5.003555975854397">
        <ele>1122</ele>
        <time>2025-04-29T10:01:42Z</time>
      </trkpt>
      <trkpt lat="43.005294967442751" lon="-5.003456985577941">
        <ele>1119.1099999999999</ele>
        <time>2025-04-29T10:01:44Z</time>
      </trkpt>
      <trkpt lat="43.00548498518765" lon="-5.003490010276437">
        <ele>1117.6700000000001</ele>
        <time>2025-04-29T10:01:45Z</time>
      </trkpt>
      <trkpt lat="43.005675002932549" lon="-5.003523034974933">
        <ele>1116.71</ele>
        <time>2025-04-29T10:01:46Z</time>
      </trkpt>
      <trkpt lat="43.005853034555912" lon="-5.003589000552893">
        <ele>1116.23</ele>
        <time>2025-04-29T10:01:47Z</time>
      </trkpt>
      <trkpt lat="43.00602201372385" lon="-5.003709029406309">
        <ele>1115.27</ele>
        <time>2025-04-29T10:01:48Z</time>
      </trkpt>
      <trkpt lat="43.006185963749886" lon="-5.003826040774584">
        <ele>1114.79</ele>
        <time>2025-04-29T10:01:49Z</time>
      </trkpt>
      <trkpt lat="43.006332982331514" lon="-5.003994014114142">
        <ele>1114.3099999999999</ele>
        <time>2025-04-29T10:01:50Z</time>
      </trkpt>
      <trkpt lat="43.006462985649705" lon="-5.004173973575234">
        <ele>1113.8199999999999</ele>
        <time>2025-04-29T10:01:51Z</time>
      </trkpt>
      <trkpt lat="43.006573962047696" lon="-5.004400033503771">
        <ele>1113.8199999999999</ele>
        <time>2025-04-29T10:01:52Z</time>
      </trkpt>
      <trkpt lat="43.006663983687758" lon="-5.004637995734811">
        <ele>1113.8199999999999</ele>
        <time>2025-04-29T10:01:53Z</time>
      </trkpt>
      <trkpt lat="43.006737995892763" lon="-5.004907976835966">
        <ele>1113.3399999999999</ele>
        <time>2025-04-29T10:01:54Z</time>
      </trkpt>
      <trkpt lat="43.006790969520807" lon="-5.005187010392547">
        <ele>1113.3399999999999</ele>
        <time>2025-04-29T10:01:55Z</time>
      </trkpt>
      <trkpt lat="43.006845032796264" lon="-5.005471995100379">
        <ele>1113.3399999999999</ele>
        <time>2025-04-29T10:01:56Z</time>
      </trkpt>
      <trkpt lat="43.007425982505083" lon="-5.007708035409451">
        <ele>1112.8599999999999</ele>
        <time>2025-04-29T10:02:04Z</time>
      </trkpt>
      <trkpt lat="43.008252019062638" lon="-5.009632017463446">
        <ele>1113.3399999999999</ele>
        <time>2025-04-29T10:02:12Z</time>
      </trkpt>
      <trkpt lat="43.009016029536724" lon="-5.011896975338459">
        <ele>1113.3399999999999</ele>
        <time>2025-04-29T10:02:21Z</time>
      </trkpt>
      <trkpt lat="43.009236976504326" lon="-5.014396039769054">
        <ele>1111.4200000000001</ele>
        <time>2025-04-29T10:02:30Z</time>
      </trkpt>
      <trkpt lat="43.009619023650885" lon="-5.01651800237596">
        <ele>1111.9000000000001</ele>
        <time>2025-04-29T10:02:38Z</time>
      </trkpt>
      <trkpt lat="43.010542038828135" lon="-5.019316971302033">
        <ele>1111.9000000000001</ele>
        <time>2025-04-29T10:02:48Z</time>
      </trkpt>
      <trkpt lat="43.010850995779037" lon="-5.020135967060924">
        <ele>1111.4200000000001</ele>
        <time>2025-04-29T10:02:51Z</time>
      </trkpt>
      <trkpt lat="43.010982004925609" lon="-5.020408965647221">
        <ele>1111.4200000000001</ele>
        <time>2025-04-29T10:02:52Z</time>
      </trkpt>
      <trkpt lat="43.011097004637122" lon="-5.020566964522004">
        <ele>1111.4200000000001</ele>
        <time>2025-04-29T10:02:53Z</time>
      </trkpt>
      <trkpt lat="43.011261038482189" lon="-5.020714988932014">
        <ele>1111.4200000000001</ele>
        <time>2025-04-29T10:02:54Z</time>
      </trkpt>
      <trkpt lat="43.011421971023083" lon="-5.020819008350372">
        <ele>1111.4200000000001</ele>
        <time>2025-04-29T10:02:55Z</time>
      </trkpt>
      <trkpt lat="43.011581981554627" lon="-5.020924033597112">
        <ele>1111.9000000000001</ele>
        <time>2025-04-29T10:02:56Z</time>
      </trkpt>
      <trkpt lat="43.011746015399694" lon="-5.020958986133337">
        <ele>1111.9000000000001</ele>
        <time>2025-04-29T10:02:57Z</time>
      </trkpt>
      <trkpt lat="43.011903008446097" lon="-5.020993016660214">
        <ele>1111.9000000000001</ele>
        <time>2025-04-29T10:02:58Z</time>
      </trkpt>
      <trkpt lat="43.012792998924851" lon="-5.021147998049855">
        <ele>1113.3399999999999</ele>
        <time>2025-04-29T10:03:05Z</time>
      </trkpt>
      <trkpt lat="43.012870028614998" lon="-5.021159984171391">
        <ele>1113.3399999999999</ele>
        <time>2025-04-29T10:03:06Z</time>
      </trkpt>
      <trkpt lat="43.01287698559463" lon="-5.021259980276227">
        <ele>1113.3399999999999</ele>
        <time>2025-04-29T10:03:07Z</time>
      </trkpt>
      <trkpt lat="43.012885032221675" lon="-5.021371962502599">
        <ele>1113.3399999999999</ele>
        <time>2025-04-29T10:03:08Z</time>
      </trkpt>
      <trkpt lat="43.012889977544546" lon="-5.021501965820789">
        <ele>1113.3399999999999</ele>
        <time>2025-04-29T10:03:09Z</time>
      </trkpt>
      <trkpt lat="43.012884026393294" lon="-5.021648984402418">
        <ele>1113.3399999999999</ele>
        <time>2025-04-29T10:03:10Z</time>
      </trkpt>
      <trkpt lat="43.01287698559463" lon="-5.021813018247485">
        <ele>1113.8199999999999</ele>
        <time>2025-04-29T10:03:11Z</time>
      </trkpt>
      <trkpt lat="43.012877991423011" lon="-5.022008987143636">
        <ele>1113.8199999999999</ele>
        <time>2025-04-29T10:03:12Z</time>
      </trkpt>
      <trkpt lat="43.012920990586281" lon="-5.022193975746632">
        <ele>1114.3099999999999</ele>
        <time>2025-04-29T10:03:13Z</time>
      </trkpt>
      <trkpt lat="43.012981005012989" lon="-5.022394973784685">
        <ele>1114.3099999999999</ele>
        <time>2025-04-29T10:03:14Z</time>
      </trkpt>
      <trkpt lat="43.013062980026007" lon="-5.02257602289319">
        <ele>1114.79</ele>
        <time>2025-04-29T10:03:15Z</time>
      </trkpt>
      <trkpt lat="43.013203041628003" lon="-5.02272798679769">
        <ele>1115.27</ele>
        <time>2025-04-29T10:03:16Z</time>
      </trkpt>
      <trkpt lat="43.013342013582587" lon="-5.022871987894177">
        <ele>1115.27</ele>
        <time>2025-04-29T10:03:17Z</time>
      </trkpt>
      <trkpt lat="43.013492971658707" lon="-5.022995034232736">
        <ele>1115.75</ele>
        <time>2025-04-29T10:03:18Z</time>
      </trkpt>
      <trkpt lat="43.013640996068716" lon="-5.02311497926712">
        <ele>1115.75</ele>
        <time>2025-04-29T10:03:19Z</time>
      </trkpt>
      <trkpt lat="43.013748032972217" lon="-5.023280018940568">
        <ele>1116.23</ele>
        <time>2025-04-29T10:03:20Z</time>
      </trkpt>
      <trkpt lat="43.013849034905434" lon="-5.023454027250409">
        <ele>1116.23</ele>
        <time>2025-04-29T10:03:21Z</time>
      </trkpt>
      <trkpt lat="43.013917012140155" lon="-5.023643961176276">
        <ele>1116.71</ele>
        <time>2025-04-29T10:03:22Z</time>
      </trkpt>
      <trkpt lat="43.013952970504761" lon="-5.023860968649387">
        <ele>1117.6700000000001</ele>
        <time>2025-04-29T10:03:23Z</time>
      </trkpt>
      <trkpt lat="43.013955987989902" lon="-5.024089040234685">
        <ele>1118.1500000000001</ele>
        <time>2025-04-29T10:03:24Z</time>
      </trkpt>
      <trkpt lat="43.013942996039987" lon="-5.024318033829331">
        <ele>1118.6300000000001</ele>
        <time>2025-04-29T10:03:25Z</time>
      </trkpt>
      <trkpt lat="43.013931009918451" lon="-5.024549961090088">
        <ele>1119.5899999999999</ele>
        <time>2025-04-29T10:03:26Z</time>
      </trkpt>
      <trkpt lat="43.013940984383225" lon="-5.02478800714016">
        <ele>1120.55</ele>
        <time>2025-04-29T10:03:27Z</time>
      </trkpt>
      <trkpt lat="43.014006027951837" lon="-5.025009037926793">
        <ele>1121.52</ele>
        <time>2025-04-29T10:03:28Z</time>
      </trkpt>
      <trkpt lat="43.014090014621615" lon="-5.025210035964847">
        <ele>1122</ele>
        <time>2025-04-29T10:03:29Z</time>
      </trkpt>
      <trkpt lat="43.014218006283045" lon="-5.025373985990882">
        <ele>1122.48</ele>
        <time>2025-04-29T10:03:30Z</time>
      </trkpt>
      <trkpt lat="43.014373993501067" lon="-5.025489991530776">
        <ele>1122.96</ele>
        <time>2025-04-29T10:03:31Z</time>
      </trkpt>
      <trkpt lat="43.014554036781192" lon="-5.025556962937117">
        <ele>1123.4400000000001</ele>
        <time>2025-04-29T10:03:32Z</time>
      </trkpt>
      <trkpt lat="43.014743970707059" lon="-5.025628041476011">
        <ele>1123.9200000000001</ele>
        <time>2025-04-29T10:03:33Z</time>
      </trkpt>
      <trkpt lat="43.014932982623577" lon="-5.025699036195874">
        <ele>1124.4000000000001</ele>
        <time>2025-04-29T10:03:34Z</time>
      </trkpt>
      <trkpt lat="43.015096010640264" lon="-5.025826022028923">
        <ele>1124.8800000000001</ele>
        <time>2025-04-29T10:03:35Z</time>
      </trkpt>
      <trkpt lat="43.015242023393512" lon="-5.025998018682003">
        <ele>1125.3599999999999</ele>
        <time>2025-04-29T10:03:36Z</time>
      </trkpt>
      <trkpt lat="43.015386024489999" lon="-5.026174038648605">
        <ele>1126.3199999999999</ele>
        <time>2025-04-29T10:03:37Z</time>
      </trkpt>
      <trkpt lat="43.015524996444583" lon="-5.026359027251601">
        <ele>1126.8</ele>
        <time>2025-04-29T10:03:38Z</time>
      </trkpt>
      <trkpt lat="43.015679977834225" lon="-5.026505962014198">
        <ele>1126.8</ele>
        <time>2025-04-29T10:03:39Z</time>
      </trkpt>
      <trkpt lat="43.01584099419415" lon="-5.026645017787814">
        <ele>1127.28</ele>
        <time>2025-04-29T10:03:40Z</time>
      </trkpt>
      <trkpt lat="43.016002010554075" lon="-5.026783989742398">
        <ele>1127.76</ele>
        <time>2025-04-29T10:03:41Z</time>
      </trkpt>
      <trkpt lat="43.016136959195137" lon="-5.026964033022523">
        <ele>1128.73</ele>
        <time>2025-04-29T10:03:42Z</time>
      </trkpt>
      <trkpt lat="43.016266962513328" lon="-5.027150027453899">
        <ele>1129.21</ele>
        <time>2025-04-29T10:03:43Z</time>
      </trkpt>
      <trkpt lat="43.016365030780435" lon="-5.027371980249882">
        <ele>1129.6900000000001</ele>
        <time>2025-04-29T10:03:44Z</time>
      </trkpt>
      <trkpt lat="43.016437031328678" lon="-5.027625029906631">
        <ele>1130.1700000000001</ele>
        <time>2025-04-29T10:03:45Z</time>
      </trkpt>
      <trkpt lat="43.016496039927006" lon="-5.027888976037502">
        <ele>1131.1300000000001</ele>
        <time>2025-04-29T10:03:46Z</time>
      </trkpt>
      <trkpt lat="43.01670198328793" lon="-5.028693974018097">
        <ele>1133.53</ele>
        <time>2025-04-29T10:03:49Z</time>
      </trkpt>
      <trkpt lat="43.016789993271232" lon="-5.028944006189704">
        <ele>1134.01</ele>
        <time>2025-04-29T10:03:50Z</time>
      </trkpt>
      <trkpt lat="43.01695897243917" lon="-5.029401993378997">
        <ele>1135.45</ele>
        <time>2025-04-29T10:03:52Z</time>
      </trkpt>
      <trkpt lat="43.017011024057865" lon="-5.029632998630405">
        <ele>1135.9400000000001</ele>
        <time>2025-04-29T10:03:53Z</time>
      </trkpt>
      <trkpt lat="43.017011024057865" lon="-5.02985998056829">
        <ele>1136.4200000000001</ele>
        <time>2025-04-29T10:03:54Z</time>
      </trkpt>
      <trkpt lat="43.01698001101613" lon="-5.030072964727879">
        <ele>1136.4200000000001</ele>
        <time>2025-04-29T10:03:55Z</time>
      </trkpt>
      <trkpt lat="43.016911027953029" lon="-5.030254013836384">
        <ele>1136.9000000000001</ele>
        <time>2025-04-29T10:03:56Z</time>
      </trkpt>
      <trkpt lat="43.016816982999444" lon="-5.030415030196309">
        <ele>1136.9000000000001</ele>
        <time>2025-04-29T10:03:57Z</time>
      </trkpt>
      <trkpt lat="43.016714975237846" lon="-5.030570011585951">
        <ele>1137.3800000000001</ele>
        <time>2025-04-29T10:03:58Z</time>
      </trkpt>
      <trkpt lat="43.016577009111643" lon="-5.030671013519168">
        <ele>1137.3800000000001</ele>
        <time>2025-04-29T10:03:59Z</time>
      </trkpt>
      <trkpt lat="43.016434013843536" lon="-5.030775032937527">
        <ele>1137.3800000000001</ele>
        <time>2025-04-29T10:04:00Z</time>
      </trkpt>
      <trkpt lat="43.016282971948385" lon="-5.030885003507137">
        <ele>1137.3800000000001</ele>
        <time>2025-04-29T10:04:01Z</time>
      </trkpt>
      <trkpt lat="43.016124973073602" lon="-5.03099899739027">
        <ele>1137.8599999999999</ele>
        <time>2025-04-29T10:04:02Z</time>
      </trkpt>
      <trkpt lat="43.015984995290637" lon="-5.031146015971899">
        <ele>1137.8599999999999</ele>
        <time>2025-04-29T10:04:03Z</time>
      </trkpt>
      <trkpt lat="43.01588399335742" lon="-5.031346008181572">
        <ele>1137.8599999999999</ele>
        <time>2025-04-29T10:04:04Z</time>
      </trkpt>
      <trkpt lat="43.015821967273951" lon="-5.031576007604599">
        <ele>1137.8599999999999</ele>
        <time>2025-04-29T10:04:05Z</time>
      </trkpt>
      <trkpt lat="43.015791960060596" lon="-5.031823022291064">
        <ele>1137.8599999999999</ele>
        <time>2025-04-29T10:04:06Z</time>
      </trkpt>
      <trkpt lat="43.015819033607841" lon="-5.032076993957162">
        <ele>1137.8599999999999</ele>
        <time>2025-04-29T10:04:07Z</time>
      </trkpt>
      <trkpt lat="43.015876030549407" lon="-5.032314034178853">
        <ele>1137.8599999999999</ele>
        <time>2025-04-29T10:04:08Z</time>
      </trkpt>
      <trkpt lat="43.015962028875947" lon="-5.032530035823584">
        <ele>1137.8599999999999</ele>
        <time>2025-04-29T10:04:09Z</time>
      </trkpt>
      <trkpt lat="43.016087003052235" lon="-5.032719969749451">
        <ele>1137.8599999999999</ele>
        <time>2025-04-29T10:04:10Z</time>
      </trkpt>
      <trkpt lat="43.016260005533695" lon="-5.032861959189177">
        <ele>1137.8599999999999</ele>
        <time>2025-04-29T10:04:11Z</time>
      </trkpt>
      <trkpt lat="43.016452034935355" lon="-5.032986011356115">
        <ele>1137.8599999999999</ele>
        <time>2025-04-29T10:04:12Z</time>
      </trkpt>
      <trkpt lat="43.016654960811138" lon="-5.033107968047261">
        <ele>1137.3800000000001</ele>
        <time>2025-04-29T10:04:13Z</time>
      </trkpt>
      <trkpt lat="43.017913000658154" lon="-5.034068031236529">
        <ele>1135.9400000000001</ele>
        <time>2025-04-29T10:04:19Z</time>
      </trkpt>
      <trkpt lat="43.01914899609983" lon="-5.035375021398068">
        <ele>1131.6099999999999</ele>
        <time>2025-04-29T10:04:26Z</time>
      </trkpt>
      <trkpt lat="43.020368982106447" lon="-5.035974998027086">
        <ele>1126.8</ele>
        <time>2025-04-29T10:04:32Z</time>
      </trkpt>
      <trkpt lat="43.02170698530972" lon="-5.035916995257139">
        <ele>1121.52</ele>
        <time>2025-04-29T10:04:38Z</time>
      </trkpt>
      <trkpt lat="43.021915024146438" lon="-5.035900985822082">
        <ele>1120.55</ele>
        <time>2025-04-29T10:04:39Z</time>
      </trkpt>
      <trkpt lat="43.022096995264292" lon="-5.035900985822082">
        <ele>1119.5899999999999</ele>
        <time>2025-04-29T10:04:40Z</time>
      </trkpt>
      <trkpt lat="43.022281983867288" lon="-5.036000981926918">
        <ele>1118.6300000000001</ele>
        <time>2025-04-29T10:04:41Z</time>
      </trkpt>
      <trkpt lat="43.022420033812523" lon="-5.036118999123573">
        <ele>1117.6700000000001</ele>
        <time>2025-04-29T10:04:42Z</time>
      </trkpt>
      <trkpt lat="43.022535033524036" lon="-5.036298036575317">
        <ele>1116.71</ele>
        <time>2025-04-29T10:04:43Z</time>
      </trkpt>
      <trkpt lat="43.022631006315351" lon="-5.03647799603641">
        <ele>1116.23</ele>
        <time>2025-04-29T10:04:44Z</time>
      </trkpt>
      <trkpt lat="43.022696971893311" lon="-5.036695003509522">
        <ele>1115.75</ele>
        <time>2025-04-29T10:04:45Z</time>
      </trkpt>
      <trkpt lat="43.022686997428536" lon="-5.036920979619026">
        <ele>1115.27</ele>
        <time>2025-04-29T10:04:46Z</time>
      </trkpt>
      <trkpt lat="43.022676017135382" lon="-5.037166988477111">
        <ele>1115.27</ele>
        <time>2025-04-29T10:04:47Z</time>
      </trkpt>
      <trkpt lat="43.022602004930377" lon="-5.037365974858403">
        <ele>1114.79</ele>
        <time>2025-04-29T10:04:48Z</time>
      </trkpt>
      <trkpt lat="43.022522963583469" lon="-5.037579964846373">
        <ele>1115.27</ele>
        <time>2025-04-29T10:04:49Z</time>
      </trkpt>
      <trkpt lat="43.022439982742071" lon="-5.037804013118148">
        <ele>1115.75</ele>
        <time>2025-04-29T10:04:50Z</time>
      </trkpt>
      <trkpt lat="43.022373011335731" lon="-5.038047004491091">
        <ele>1116.71</ele>
        <time>2025-04-29T10:04:51Z</time>
      </trkpt>
      <trkpt lat="43.022322971373796" lon="-5.038311034440994">
        <ele>1117.1900000000001</ele>
        <time>2025-04-29T10:04:52Z</time>
      </trkpt>
      <trkpt lat="43.022086014971137" lon="-5.039617018774152">
        <ele>1122.48</ele>
        <time>2025-04-29T10:04:57Z</time>
      </trkpt>
      <trkpt lat="43.02200797945261" lon="-5.039822962135077">
        <ele>1123.4400000000001</ele>
        <time>2025-04-29T10:04:58Z</time>
      </trkpt>
      <trkpt lat="43.021911000832915" lon="-5.040029995143414">
        <ele>1124.8800000000001</ele>
        <time>2025-04-29T10:04:59Z</time>
      </trkpt>
      <trkpt lat="43.021716037765145" lon="-5.040445988997817">
        <ele>1126.8</ele>
        <time>2025-04-29T10:05:01Z</time>
      </trkpt>
      <trkpt lat="43.021624004468322" lon="-5.040650004521012">
        <ele>1127.28</ele>
        <time>2025-04-29T10:05:02Z</time>
      </trkpt>
      <trkpt lat="43.021587962284684" lon="-5.040880003944039">
        <ele>1127.76</ele>
        <time>2025-04-29T10:05:03Z</time>
      </trkpt>
      <trkpt lat="43.021610006690025" lon="-5.041116960346699">
        <ele>1128.24</ele>
        <time>2025-04-29T10:05:04Z</time>
      </trkpt>
      <trkpt lat="43.021673038601875" lon="-5.041338996961713">
        <ele>1128.24</ele>
        <time>2025-04-29T10:05:05Z</time>
      </trkpt>
      <trkpt lat="43.021761970594525" lon="-5.041557010263205">
        <ele>1128.73</ele>
        <time>2025-04-29T10:05:06Z</time>
      </trkpt>
      <trkpt lat="43.021902032196522" lon="-5.0417419988662">
        <ele>1128.73</ele>
        <time>2025-04-29T10:05:07Z</time>
      </trkpt>
      <trkpt lat="43.022052990272641" lon="-5.041925981640816">
        <ele>1128.73</ele>
        <time>2025-04-29T10:05:08Z</time>
      </trkpt>
      <trkpt lat="43.022357001900673" lon="-5.042295958846808">
        <ele>1128.73</ele>
        <time>2025-04-29T10:05:10Z</time>
      </trkpt>
      <trkpt lat="43.02250100299716" lon="-5.042509026825428">
        <ele>1128.24</ele>
        <time>2025-04-29T10:05:11Z</time>
      </trkpt>
      <trkpt lat="43.022616002708673" lon="-5.042755035683513">
        <ele>1128.24</ele>
        <time>2025-04-29T10:05:12Z</time>
      </trkpt>
      <trkpt lat="43.022850025445223" lon="-5.043256022036076">
        <ele>1126.8</ele>
        <time>2025-04-29T10:05:14Z</time>
      </trkpt>
      <trkpt lat="43.022986985743046" lon="-5.043457020074129">
        <ele>1126.3199999999999</ele>
        <time>2025-04-29T10:05:15Z</time>
      </trkpt>
      <trkpt lat="43.023164011538029" lon="-5.043616024777293">
        <ele>1125.3599999999999</ele>
        <time>2025-04-29T10:05:16Z</time>
      </trkpt>
      <trkpt lat="43.023344976827502" lon="-5.043777963146567">
        <ele>1124.4000000000001</ele>
        <time>2025-04-29T10:05:17Z</time>
      </trkpt>
      <trkpt lat="43.023530971258879" lon="-5.043945014476776">
        <ele>1123.4400000000001</ele>
        <time>2025-04-29T10:05:18Z</time>
      </trkpt>
      <trkpt lat="43.023695005103946" lon="-5.044162021949887">
        <ele>1122.48</ele>
        <time>2025-04-29T10:05:19Z</time>
      </trkpt>
      <trkpt lat="43.023844035342336" lon="-5.044410964474082">
        <ele>1121.03</ele>
        <time>2025-04-29T10:05:20Z</time>
      </trkpt>
      <trkpt lat="43.023960962891579" lon="-5.044681029394269">
        <ele>1120.55</ele>
        <time>2025-04-29T10:05:21Z</time>
      </trkpt>
      <trkpt lat="43.024064982309937" lon="-5.044951010495424">
        <ele>1119.1099999999999</ele>
        <time>2025-04-29T10:05:22Z</time>
      </trkpt>
      <trkpt lat="43.024275032803416" lon="-5.045450991019607">
        <ele>1117.6700000000001</ele>
        <time>2025-04-29T10:05:24Z</time>
      </trkpt>
      <trkpt lat="43.024395983666182" lon="-5.045657018199563">
        <ele>1116.23</ele>
        <time>2025-04-29T10:05:25Z</time>
      </trkpt>
      <trkpt lat="43.025113977491856" lon="-5.046593025326729">
        <ele>1111.9000000000001</ele>
        <time>2025-04-29T10:05:31Z</time>
      </trkpt>
      <trkpt lat="43.025200981646776" lon="-5.046725962311029">
        <ele>1111.4200000000001</ele>
        <time>2025-04-29T10:05:32Z</time>
      </trkpt>
      <trkpt lat="43.025511028245091" lon="-5.047962963581085">
        <ele>1111.9000000000001</ele>
        <time>2025-04-29T10:05:40Z</time>
      </trkpt>
      <trkpt lat="43.025529971346259" lon="-5.048152981325984">
        <ele>1111.9000000000001</ele>
        <time>2025-04-29T10:05:41Z</time>
      </trkpt>
      <trkpt lat="43.025501975789666" lon="-5.050119962543249">
        <ele>1114.79</ele>
        <time>2025-04-29T10:05:53Z</time>
      </trkpt>
      <trkpt lat="43.025588979944587" lon="-5.051642032340169">
        <ele>1115.27</ele>
        <time>2025-04-29T10:06:00Z</time>
      </trkpt>
      <trkpt lat="43.025529971346259" lon="-5.052508972585201">
        <ele>1115.27</ele>
        <time>2025-04-29T10:06:04Z</time>
      </trkpt>
      <trkpt lat="43.025366021320224" lon="-5.053934985771775">
        <ele>1113.3399999999999</ele>
        <time>2025-04-29T10:06:11Z</time>
      </trkpt>
      <trkpt lat="43.025381024926901" lon="-5.054142018780112">
        <ele>1112.8599999999999</ele>
        <time>2025-04-29T10:06:12Z</time>
      </trkpt>
      <trkpt lat="43.025397034361959" lon="-5.054345028474927">
        <ele>1112.3800000000001</ele>
        <time>2025-04-29T10:06:13Z</time>
      </trkpt>
      <trkpt lat="43.025812022387981" lon="-5.056269010528922">
        <ele>1109.98</ele>
        <time>2025-04-29T10:06:23Z</time>
      </trkpt>
      <trkpt lat="43.025891985744238" lon="-5.056462967768312">
        <ele>1109.5</ele>
        <time>2025-04-29T10:06:24Z</time>
      </trkpt>
      <trkpt lat="43.026290964335203" lon="-5.057309037074447">
        <ele>1108.54</ele>
        <time>2025-04-29T10:06:28Z</time>
      </trkpt>
      <trkpt lat="43.026366988196969" lon="-5.057564014568925">
        <ele>1108.0599999999999</ele>
        <time>2025-04-29T10:06:29Z</time>
      </trkpt>
      <trkpt lat="43.026409987360239" lon="-5.057842964306474">
        <ele>1107.5799999999999</ele>
        <time>2025-04-29T10:06:30Z</time>
      </trkpt>
      <trkpt lat="43.026427002623677" lon="-5.058135995641351">
        <ele>1107.5799999999999</ele>
        <time>2025-04-29T10:06:31Z</time>
      </trkpt>
      <trkpt lat="43.026411999017" lon="-5.058436989784241">
        <ele>1107.0999999999999</ele>
        <time>2025-04-29T10:06:32Z</time>
      </trkpt>
      <trkpt lat="43.026409987360239" lon="-5.059017017483711">
        <ele>1106.1300000000001</ele>
        <time>2025-04-29T10:06:34Z</time>
      </trkpt>
      <trkpt lat="43.026437982916832" lon="-5.059253973886371">
        <ele>1106.1300000000001</ele>
        <time>2025-04-29T10:06:35Z</time>
      </trkpt>
      <trkpt lat="43.026505038142204" lon="-5.059476010501385">
        <ele>1105.1700000000001</ele>
        <time>2025-04-29T10:06:36Z</time>
      </trkpt>
      <trkpt lat="43.026628000661731" lon="-5.059916982427239">
        <ele>1104.21</ele>
        <time>2025-04-29T10:06:38Z</time>
      </trkpt>
      <trkpt lat="43.026641998440027" lon="-5.060155028477311">
        <ele>1103.73</ele>
        <time>2025-04-29T10:06:39Z</time>
      </trkpt>
      <trkpt lat="43.026610985398293" lon="-5.060406988486648">
        <ele>1103.73</ele>
        <time>2025-04-29T10:06:40Z</time>
      </trkpt>
      <trkpt lat="43.02647402510047" lon="-5.061499988660216">
        <ele>1101.8099999999999</ele>
        <time>2025-04-29T10:06:44Z</time>
      </trkpt>
      <trkpt lat="43.026493974030018" lon="-5.061777010560036">
        <ele>1101.8099999999999</ele>
        <time>2025-04-29T10:06:45Z</time>
      </trkpt>
      <trkpt lat="43.026514006778598" lon="-5.06206601858139">
        <ele>1101.3299999999999</ele>
        <time>2025-04-29T10:06:46Z</time>
      </trkpt>
      <trkpt lat="43.026581984013319" lon="-5.062352009117603">
        <ele>1101.3299999999999</ele>
        <time>2025-04-29T10:06:47Z</time>
      </trkpt>
      <trkpt lat="43.026654990389943" lon="-5.062636993825436">
        <ele>1100.8499999999999</ele>
        <time>2025-04-29T10:06:48Z</time>
      </trkpt>
      <trkpt lat="43.02675498649478" lon="-5.062909992411733">
        <ele>1100.8499999999999</ele>
        <time>2025-04-29T10:06:49Z</time>
      </trkpt>
      <trkpt lat="43.026877027004957" lon="-5.063177039846778">
        <ele>1101.3299999999999</ele>
        <time>2025-04-29T10:06:50Z</time>
      </trkpt>
      <trkpt lat="43.026995966210961" lon="-5.063437968492508">
        <ele>1101.3299999999999</ele>
        <time>2025-04-29T10:06:51Z</time>
      </trkpt>
      <trkpt lat="43.027359992265701" lon="-5.064102988690138">
        <ele>1100.8499999999999</ele>
        <time>2025-04-29T10:06:54Z</time>
      </trkpt>
      <trkpt lat="43.027516985312104" lon="-5.064259981736541">
        <ele>1100.8499999999999</ele>
        <time>2025-04-29T10:06:55Z</time>
      </trkpt>
      <trkpt lat="43.027671966701746" lon="-5.064414963126183">
        <ele>1100.8499999999999</ele>
        <time>2025-04-29T10:06:56Z</time>
      </trkpt>
      <trkpt lat="43.027826026082039" lon="-5.064569022506475">
        <ele>1100.8499999999999</ele>
        <time>2025-04-29T10:06:57Z</time>
      </trkpt>
      <trkpt lat="43.027941025793552" lon="-5.064787035807967">
        <ele>1101.3299999999999</ele>
        <time>2025-04-29T10:06:58Z</time>
      </trkpt>
      <trkpt lat="43.028039010241628" lon="-5.065013011917472">
        <ele>1101.3299999999999</ele>
        <time>2025-04-29T10:06:59Z</time>
      </trkpt>
      <trkpt lat="43.028101958334446" lon="-5.065263966098428">
        <ele>1101.8099999999999</ele>
        <time>2025-04-29T10:07:00Z</time>
      </trkpt>
      <trkpt lat="43.028167001903057" lon="-5.06552497856319">
        <ele>1101.8099999999999</ele>
        <time>2025-04-29T10:07:01Z</time>
      </trkpt>
      <trkpt lat="43.028490962460637" lon="-5.067903008311987">
        <ele>1104.21</ele>
        <time>2025-04-29T10:07:09Z</time>
      </trkpt>
      <trkpt lat="43.028514012694359" lon="-5.068841027095914">
        <ele>1106.1300000000001</ele>
        <time>2025-04-29T10:07:12Z</time>
      </trkpt>
      <trkpt lat="43.028565980494022" lon="-5.06973504088819">
        <ele>1109.5</ele>
        <time>2025-04-29T10:07:15Z</time>
      </trkpt>
      <trkpt lat="43.028545025736094" lon="-5.070039974525571">
        <ele>1110.9400000000001</ele>
        <time>2025-04-29T10:07:16Z</time>
      </trkpt>
      <trkpt lat="43.028506971895695" lon="-5.070610027760267">
        <ele>1113.3399999999999</ele>
        <time>2025-04-29T10:07:18Z</time>
      </trkpt>
      <trkpt lat="43.028496997430921" lon="-5.070885038003326">
        <ele>1114.79</ele>
        <time>2025-04-29T10:07:19Z</time>
      </trkpt>
      <trkpt lat="43.028550976887345" lon="-5.071136998012662">
        <ele>1115.75</ele>
        <time>2025-04-29T10:07:20Z</time>
      </trkpt>
      <trkpt lat="43.028640998527408" lon="-5.07136900909245">
        <ele>1116.71</ele>
        <time>2025-04-29T10:07:21Z</time>
      </trkpt>
      <trkpt lat="43.028743006289005" lon="-5.071593979373574">
        <ele>1118.1500000000001</ele>
        <time>2025-04-29T10:07:22Z</time>
      </trkpt>
      <trkpt lat="43.029611958190799" lon="-5.073312018066645">
        <ele>1124.8800000000001</ele>
        <time>2025-04-29T10:07:30Z</time>
      </trkpt>
      <trkpt lat="43.029714971780777" lon="-5.073487032204866">
        <ele>1125.3599999999999</ele>
        <time>2025-04-29T10:07:31Z</time>
      </trkpt>
      <trkpt lat="43.029831983149052" lon="-5.073632039129734">
        <ele>1125.3599999999999</ele>
        <time>2025-04-29T10:07:32Z</time>
      </trkpt>
      <trkpt lat="43.029969027265906" lon="-5.073742009699345">
        <ele>1125.8399999999999</ele>
        <time>2025-04-29T10:07:33Z</time>
      </trkpt>
      <trkpt lat="43.030118979513645" lon="-5.073843011632562">
        <ele>1126.3199999999999</ele>
        <time>2025-04-29T10:07:34Z</time>
      </trkpt>
      <trkpt lat="43.030281001701951" lon="-5.073937978595495">
        <ele>1126.3199999999999</ele>
        <time>2025-04-29T10:07:35Z</time>
      </trkpt>
      <trkpt lat="43.031516997143626" lon="-5.074897035956383">
        <ele>1125.3599999999999</ele>
        <time>2025-04-29T10:07:42Z</time>
      </trkpt>
      <trkpt lat="43.031666027382016" lon="-5.075133992359042">
        <ele>1124.8800000000001</ele>
        <time>2025-04-29T10:07:43Z</time>
      </trkpt>
      <trkpt lat="43.032439006492496" lon="-5.076255993917584">
        <ele>1126.3199999999999</ele>
        <time>2025-04-29T10:07:48Z</time>
      </trkpt>
      <trkpt lat="43.032794985920191" lon="-5.076577020809054">
        <ele>1127.76</ele>
        <time>2025-04-29T10:07:50Z</time>
      </trkpt>
      <trkpt lat="43.032938987016678" lon="-5.076786987483501">
        <ele>1128.24</ele>
        <time>2025-04-29T10:07:51Z</time>
      </trkpt>
      <trkpt lat="43.03412402048707" lon="-5.078183999285102">
        <ele>1130.6500000000001</ele>
        <time>2025-04-29T10:07:58Z</time>
      </trkpt>
      <trkpt lat="43.036484029144049" lon="-5.080420039594173">
        <ele>1134.97</ele>
        <time>2025-04-29T10:08:10Z</time>
      </trkpt>
      <trkpt lat="43.0377989821136" lon="-5.082015031948686">
        <ele>1139.3</ele>
        <time>2025-04-29T10:08:18Z</time>
      </trkpt>
      <trkpt lat="43.037895960733294" lon="-5.082275038585067">
        <ele>1139.78</ele>
        <time>2025-04-29T10:08:19Z</time>
      </trkpt>
      <trkpt lat="43.03799201734364" lon="-5.082550970837474">
        <ele>1140.26</ele>
        <time>2025-04-29T10:08:20Z</time>
      </trkpt>
      <trkpt lat="43.038756027817726" lon="-5.085631990805268">
        <ele>1140.74</ele>
        <time>2025-04-29T10:08:30Z</time>
      </trkpt>
      <trkpt lat="43.039519032463431" lon="-5.088660037145019">
        <ele>1140.74</ele>
        <time>2025-04-29T10:08:41Z</time>
      </trkpt>
      <trkpt lat="43.039755988866091" lon="-5.089615993201733">
        <ele>1142.6600000000001</ele>
        <time>2025-04-29T10:08:47Z</time>
      </trkpt>
      <trkpt lat="43.039999986067414" lon="-5.090629030019045">
        <ele>1145.0699999999999</ele>
        <time>2025-04-29T10:08:55Z</time>
      </trkpt>
      <trkpt lat="43.040272984653711" lon="-5.09173896163702">
        <ele>1145.55</ele>
        <time>2025-04-29T10:09:03Z</time>
      </trkpt>
      <trkpt lat="43.040255969390273" lon="-5.092756021767855">
        <ele>1145.55</ele>
        <time>2025-04-29T10:09:10Z</time>
      </trkpt>
      <trkpt lat="43.040231997147202" lon="-5.092909997329116">
        <ele>1145.0699999999999</ele>
        <time>2025-04-29T10:09:11Z</time>
      </trkpt>
      <trkpt lat="43.04018497467041" lon="-5.093215014785528">
        <ele>1145.0699999999999</ele>
        <time>2025-04-29T10:09:13Z</time>
      </trkpt>
      <trkpt lat="43.040145998820662" lon="-5.09384298697114">
        <ele>1145.0699999999999</ele>
        <time>2025-04-29T10:09:17Z</time>
      </trkpt>
      <trkpt lat="43.039981964975595" lon="-5.094777988269925">
        <ele>1147.95</ele>
        <time>2025-04-29T10:09:23Z</time>
      </trkpt>
      <trkpt lat="43.039920022711158" lon="-5.094911009073257">
        <ele>1148.4300000000001</ele>
        <time>2025-04-29T10:09:24Z</time>
      </trkpt>
      <trkpt lat="43.039838969707489" lon="-5.095032965764403">
        <ele>1148.4300000000001</ele>
        <time>2025-04-29T10:09:25Z</time>
      </trkpt>
      <trkpt lat="43.039740985259414" lon="-5.095103038474917">
        <ele>1148.9100000000001</ele>
        <time>2025-04-29T10:09:26Z</time>
      </trkpt>
      <trkpt lat="43.039636965841055" lon="-5.095159029588103">
        <ele>1149.3900000000001</ele>
        <time>2025-04-29T10:09:27Z</time>
      </trkpt>
      <trkpt lat="43.03953898139298" lon="-5.095210997387767">
        <ele>1149.8699999999999</ele>
        <time>2025-04-29T10:09:28Z</time>
      </trkpt>
      <trkpt lat="43.038746975362301" lon="-5.095572005957365">
        <ele>1152.28</ele>
        <time>2025-04-29T10:09:35Z</time>
      </trkpt>
      <trkpt lat="43.038630969822407" lon="-5.095677031204104">
        <ele>1152.28</ele>
        <time>2025-04-29T10:09:36Z</time>
      </trkpt>
      <trkpt lat="43.038524016737938" lon="-5.095808962360025">
        <ele>1152.28</ele>
        <time>2025-04-29T10:09:37Z</time>
      </trkpt>
      <trkpt lat="43.038438018411398" lon="-5.095980037003756">
        <ele>1152.28</ele>
        <time>2025-04-29T10:09:38Z</time>
      </trkpt>
      <trkpt lat="43.038370041176677" lon="-5.096175000071526">
        <ele>1152.28</ele>
        <time>2025-04-29T10:09:39Z</time>
      </trkpt>
      <trkpt lat="43.038318995386362" lon="-5.096392007544637">
        <ele>1151.8</ele>
        <time>2025-04-29T10:09:40Z</time>
      </trkpt>
      <trkpt lat="43.038318995386362" lon="-5.096629969775677">
        <ele>1151.8</ele>
        <time>2025-04-29T10:09:41Z</time>
      </trkpt>
      <trkpt lat="43.038349002599716" lon="-5.096869021654129">
        <ele>1151.8</ele>
        <time>2025-04-29T10:09:42Z</time>
      </trkpt>
      <trkpt lat="43.038384960964322" lon="-5.097122993320227">
        <ele>1151.3199999999999</ele>
        <time>2025-04-29T10:09:43Z</time>
      </trkpt>
      <trkpt lat="43.03842200897634" lon="-5.097390962764621">
        <ele>1151.3199999999999</ele>
        <time>2025-04-29T10:09:44Z</time>
      </trkpt>
      <trkpt lat="43.038993990048766" lon="-5.100079961121082">
        <ele>1145.0699999999999</ele>
        <time>2025-04-29T10:09:53Z</time>
      </trkpt>
      <trkpt lat="43.0391959939152" lon="-5.101202968508005">
        <ele>1142.6600000000001</ele>
        <time>2025-04-29T10:09:57Z</time>
      </trkpt>
      <trkpt lat="43.03917596116662" lon="-5.101485019549727">
        <ele>1142.6600000000001</ele>
        <time>2025-04-29T10:09:58Z</time>
      </trkpt>
      <trkpt lat="43.039156012237072" lon="-5.101776039227843">
        <ele>1142.1800000000001</ele>
        <time>2025-04-29T10:09:59Z</time>
      </trkpt>
      <trkpt lat="43.039012011140585" lon="-5.103442026302218">
        <ele>1143.1400000000001</ele>
        <time>2025-04-29T10:10:05Z</time>
      </trkpt>
      <trkpt lat="43.039017962291837" lon="-5.103722987696528">
        <ele>1143.1400000000001</ele>
        <time>2025-04-29T10:10:06Z</time>
      </trkpt>
      <trkpt lat="43.039079988375306" lon="-5.103995986282826">
        <ele>1143.1400000000001</ele>
        <time>2025-04-29T10:10:07Z</time>
      </trkpt>
      <trkpt lat="43.039363967254758" lon="-5.105112036690116">
        <ele>1143.1400000000001</ele>
        <time>2025-04-29T10:10:11Z</time>
      </trkpt>
      <trkpt lat="43.039478966966271" lon="-5.105342036113143">
        <ele>1143.1400000000001</ele>
        <time>2025-04-29T10:10:12Z</time>
      </trkpt>
      <trkpt lat="43.039622968062758" lon="-5.105538005009294">
        <ele>1143.1400000000001</ele>
        <time>2025-04-29T10:10:13Z</time>
      </trkpt>
      <trkpt lat="43.040509019047022" lon="-5.106790009886026">
        <ele>1143.6300000000001</ele>
        <time>2025-04-29T10:10:19Z</time>
      </trkpt>
      <trkpt lat="43.040589988231659" lon="-5.107042975723743">
        <ele>1143.6300000000001</ele>
        <time>2025-04-29T10:10:20Z</time>
      </trkpt>
      <trkpt lat="43.040641034021974" lon="-5.10731203481555">
        <ele>1144.1099999999999</ele>
        <time>2025-04-29T10:10:21Z</time>
      </trkpt>
      <trkpt lat="43.040661988779902" lon="-5.107596013695002">
        <ele>1144.1099999999999</ele>
        <time>2025-04-29T10:10:22Z</time>
      </trkpt>
      <trkpt lat="43.040685039013624" lon="-5.107889967039228">
        <ele>1144.5899999999999</ele>
        <time>2025-04-29T10:10:23Z</time>
      </trkpt>
      <trkpt lat="43.040815964341164" lon="-5.108705023303628">
        <ele>1144.1099999999999</ele>
        <time>2025-04-29T10:10:26Z</time>
      </trkpt>
      <trkpt lat="43.040927024558187" lon="-5.108877019956708">
        <ele>1143.6300000000001</ele>
        <time>2025-04-29T10:10:27Z</time>
      </trkpt>
      <trkpt lat="43.041045041754842" lon="-5.109030995517969">
        <ele>1143.6300000000001</ele>
        <time>2025-04-29T10:10:28Z</time>
      </trkpt>
      <trkpt lat="43.041304964572191" lon="-5.109369959682226">
        <ele>1142.6600000000001</ele>
        <time>2025-04-29T10:10:30Z</time>
      </trkpt>
      <trkpt lat="43.042187998071313" lon="-5.110637973994017">
        <ele>1142.6600000000001</ele>
        <time>2025-04-29T10:10:36Z</time>
      </trkpt>
      <trkpt lat="43.042357983067632" lon="-5.11079203337431">
        <ele>1142.6600000000001</ele>
        <time>2025-04-29T10:10:37Z</time>
      </trkpt>
      <trkpt lat="43.042508019134402" lon="-5.110927987843752">
        <ele>1142.6600000000001</ele>
        <time>2025-04-29T10:10:38Z</time>
      </trkpt>
      <trkpt lat="43.04261103272438" lon="-5.111109036952257">
        <ele>1142.6600000000001</ele>
        <time>2025-04-29T10:10:39Z</time>
      </trkpt>
      <trkpt lat="43.042681021615863" lon="-5.111315986141563">
        <ele>1142.6600000000001</ele>
        <time>2025-04-29T10:10:40Z</time>
      </trkpt>
      <trkpt lat="43.042759979143739" lon="-5.11154699139297">
        <ele>1142.6600000000001</ele>
        <time>2025-04-29T10:10:41Z</time>
      </trkpt>
      <trkpt lat="43.043254008516669" lon="-5.113149024546146">
        <ele>1142.1800000000001</ele>
        <time>2025-04-29T10:10:47Z</time>
      </trkpt>
      <trkpt lat="43.043786007910967" lon="-5.114850969985127">
        <ele>1143.6300000000001</ele>
        <time>2025-04-29T10:10:55Z</time>
      </trkpt>
      <trkpt lat="43.044422026723623" lon="-5.117466961964965">
        <ele>1147.47</ele>
        <time>2025-04-29T10:11:07Z</time>
      </trkpt>
      <trkpt lat="43.044387996196747" lon="-5.120069961994886">
        <ele>1154.2</ele>
        <time>2025-04-29T10:11:18Z</time>
      </trkpt>
      <trkpt lat="43.044395036995411" lon="-5.122284963726997">
        <ele>1157.5599999999999</ele>
        <time>2025-04-29T10:11:27Z</time>
      </trkpt>
      <trkpt lat="43.044419009238482" lon="-5.122548993676901">
        <ele>1157.5599999999999</ele>
        <time>2025-04-29T10:11:28Z</time>
      </trkpt>
      <trkpt lat="43.044492015615106" lon="-5.122802965342999">
        <ele>1157.5599999999999</ele>
        <time>2025-04-29T10:11:29Z</time>
      </trkpt>
      <trkpt lat="43.044847995042801" lon="-5.123895965516567">
        <ele>1155.6400000000001</ele>
        <time>2025-04-29T10:11:33Z</time>
      </trkpt>
      <trkpt lat="43.044985039159656" lon="-5.124147003516555">
        <ele>1155.6400000000001</ele>
        <time>2025-04-29T10:11:34Z</time>
      </trkpt>
      <trkpt lat="43.045119987800717" lon="-5.124395024031401">
        <ele>1155.1600000000001</ele>
        <time>2025-04-29T10:11:35Z</time>
      </trkpt>
      <trkpt lat="43.045694986358285" lon="-5.12536296620965">
        <ele>1153.72</ele>
        <time>2025-04-29T10:11:40Z</time>
      </trkpt>
      <trkpt lat="43.046728977933526" lon="-5.126942032948136">
        <ele>1154.6800000000001</ele>
        <time>2025-04-29T10:11:48Z</time>
      </trkpt>
      <trkpt lat="43.047711001709104" lon="-5.128319012001157">
        <ele>1158.05</ele>
        <time>2025-04-29T10:11:55Z</time>
      </trkpt>
      <trkpt lat="43.047886015847325" lon="-5.12845597229898">
        <ele>1158.53</ele>
        <time>2025-04-29T10:11:56Z</time>
      </trkpt>
      <trkpt lat="43.048077961429954" lon="-5.128568038344383">
        <ele>1158.53</ele>
        <time>2025-04-29T10:11:57Z</time>
      </trkpt>
      <trkpt lat="43.049267018213868" lon="-5.129157034680247">
        <ele>1159.01</ele>
        <time>2025-04-29T10:12:04Z</time>
      </trkpt>
      <trkpt lat="43.051230981945992" lon="-5.13006697408855">
        <ele>1161.4100000000001</ele>
        <time>2025-04-29T10:12:15Z</time>
      </trkpt>
      <trkpt lat="43.053494011983275" lon="-5.130849005654454">
        <ele>1168.1400000000001</ele>
        <time>2025-04-29T10:12:26Z</time>
      </trkpt>
      <trkpt lat="43.054845007136464" lon="-5.131868999451399">
        <ele>1171.02</ele>
        <time>2025-04-29T10:12:33Z</time>
      </trkpt>
      <trkpt lat="43.055253038182855" lon="-5.132119031623006">
        <ele>1171.98</ele>
        <time>2025-04-29T10:12:35Z</time>
      </trkpt>
      <trkpt lat="43.055467028170824" lon="-5.132225984707475">
        <ele>1172.47</ele>
        <time>2025-04-29T10:12:36Z</time>
      </trkpt>
      <trkpt lat="43.057362008839846" lon="-5.13298898935318">
        <ele>1175.3499999999999</ele>
        <time>2025-04-29T10:12:45Z</time>
      </trkpt>
      <trkpt lat="43.057523025199771" lon="-5.133162997663021">
        <ele>1176.3099999999999</ele>
        <time>2025-04-29T10:12:46Z</time>
      </trkpt>
      <trkpt lat="43.057679012417793" lon="-5.133373970165849">
        <ele>1176.79</ele>
        <time>2025-04-29T10:12:47Z</time>
      </trkpt>
      <trkpt lat="43.058936968445778" lon="-5.135140037164092">
        <ele>1184.96</ele>
        <time>2025-04-29T10:12:55Z</time>
      </trkpt>
      <trkpt lat="43.059199992567301" lon="-5.135562987998128">
        <ele>1186.4000000000001</ele>
        <time>2025-04-29T10:12:57Z</time>
      </trkpt>
      <trkpt lat="43.05934801697731" lon="-5.135722998529673">
        <ele>1186.8800000000001</ele>
        <time>2025-04-29T10:12:58Z</time>
      </trkpt>
      <trkpt lat="43.059510039165616" lon="-5.135885020717979">
        <ele>1187.3699999999999</ele>
        <time>2025-04-29T10:12:59Z</time>
      </trkpt>
      <trkpt lat="43.059838023036718" lon="-5.136213004589081">
        <ele>1188.3299999999999</ele>
        <time>2025-04-29T10:13:01Z</time>
      </trkpt>
      <trkpt lat="43.060000967234373" lon="-5.13638399541378">
        <ele>1189.29</ele>
        <time>2025-04-29T10:13:02Z</time>
      </trkpt>
      <trkpt lat="43.060119990259409" lon="-5.136589016765356">
        <ele>1189.77</ele>
        <time>2025-04-29T10:13:03Z</time>
      </trkpt>
      <trkpt lat="43.0602309666574" lon="-5.136781968176365">
        <ele>1190.25</ele>
        <time>2025-04-29T10:13:04Z</time>
      </trkpt>
      <trkpt lat="43.06033699773252" lon="-5.136965028941631">
        <ele>1191.21</ele>
        <time>2025-04-29T10:13:05Z</time>
      </trkpt>
      <trkpt lat="43.060598010197282" lon="-5.137465009465814">
        <ele>1192.6500000000001</ele>
        <time>2025-04-29T10:13:08Z</time>
      </trkpt>
      <trkpt lat="43.060778975486755" lon="-5.137934982776642">
        <ele>1194.5799999999999</ele>
        <time>2025-04-29T10:13:11Z</time>
      </trkpt>
      <trkpt lat="43.060854999348521" lon="-5.1380580291152">
        <ele>1195.0599999999999</ele>
        <time>2025-04-29T10:13:12Z</time>
      </trkpt>
      <trkpt lat="43.060951977968216" lon="-5.138146039098501">
        <ele>1195.54</ele>
        <time>2025-04-29T10:13:13Z</time>
      </trkpt>
      <trkpt lat="43.061055997386575" lon="-5.138227008283138">
        <ele>1196.02</ele>
        <time>2025-04-29T10:13:14Z</time>
      </trkpt>
      <trkpt lat="43.061168985441327" lon="-5.13827302493155">
        <ele>1196.02</ele>
        <time>2025-04-29T10:13:15Z</time>
      </trkpt>
      <trkpt lat="43.061279961839318" lon="-5.13831602409482">
        <ele>1196.02</ele>
        <time>2025-04-29T10:13:16Z</time>
      </trkpt>
      <trkpt lat="43.061386998742819" lon="-5.138339996337891">
        <ele>1196.02</ele>
        <time>2025-04-29T10:13:17Z</time>
      </trkpt>
      <trkpt lat="43.061490012332797" lon="-5.138339996337891">
        <ele>1195.54</ele>
        <time>2025-04-29T10:13:18Z</time>
      </trkpt>
      <trkpt lat="43.061592020094395" lon="-5.138324992731214">
        <ele>1195.54</ele>
        <time>2025-04-29T10:13:19Z</time>
      </trkpt>
      <trkpt lat="43.061687992885709" lon="-5.138306971639395">
        <ele>1195.54</ele>
        <time>2025-04-29T10:13:20Z</time>
      </trkpt>
      <trkpt lat="43.061973983421922" lon="-5.13825299218297">
        <ele>1195.0599999999999</ele>
        <time>2025-04-29T10:13:23Z</time>
      </trkpt>
      <trkpt lat="43.063165973871946" lon="-5.137975970283151">
        <ele>1193.1300000000001</ele>
        <time>2025-04-29T10:13:35Z</time>
      </trkpt>
      <trkpt lat="43.063365966081619" lon="-5.137869017198682">
        <ele>1193.1300000000001</ele>
        <time>2025-04-29T10:13:37Z</time>
      </trkpt>
      <trkpt lat="43.063465040177107" lon="-5.13782199472189">
        <ele>1192.6500000000001</ele>
        <time>2025-04-29T10:13:38Z</time>
      </trkpt>
      <trkpt lat="43.063566964119673" lon="-5.137781007215381">
        <ele>1192.6500000000001</ele>
        <time>2025-04-29T10:13:39Z</time>
      </trkpt>
      <trkpt lat="43.064174987375736" lon="-5.137568023055792">
        <ele>1194.0899999999999</ele>
        <time>2025-04-29T10:13:46Z</time>
      </trkpt>
      <trkpt lat="43.064371040090919" lon="-5.13745897449553">
        <ele>1194.0899999999999</ele>
        <time>2025-04-29T10:13:48Z</time>
      </trkpt>
      <trkpt lat="43.064564997330308" lon="-5.137398960068822">
        <ele>1194.0899999999999</ele>
        <time>2025-04-29T10:13:50Z</time>
      </trkpt>
      <trkpt lat="43.064787033945322" lon="-5.137353027239442">
        <ele>1194.0899999999999</ele>
        <time>2025-04-29T10:13:52Z</time>
      </trkpt>
      <trkpt lat="43.064908990636468" lon="-5.137365013360977">
        <ele>1193.6099999999999</ele>
        <time>2025-04-29T10:13:53Z</time>
      </trkpt>
      <trkpt lat="43.065316015854478" lon="-5.137406000867486">
        <ele>1192.6500000000001</ele>
        <time>2025-04-29T10:13:56Z</time>
      </trkpt>
      <trkpt lat="43.065438978374004" lon="-5.137351015582681">
        <ele>1191.6900000000001</ele>
        <time>2025-04-29T10:13:57Z</time>
      </trkpt>
      <trkpt lat="43.065561018884182" lon="-5.137288989499211">
        <ele>1191.21</ele>
        <time>2025-04-29T10:13:58Z</time>
      </trkpt>
      <trkpt lat="43.065679036080837" lon="-5.137225035578013">
        <ele>1190.25</ele>
        <time>2025-04-29T10:13:59Z</time>
      </trkpt>
      <trkpt lat="43.065788000822067" lon="-5.137185975909233">
        <ele>1189.77</ele>
        <time>2025-04-29T10:14:00Z</time>
      </trkpt>
      <trkpt lat="43.065884979441762" lon="-5.137162003666163">
        <ele>1188.8099999999999</ele>
        <time>2025-04-29T10:14:01Z</time>
      </trkpt>
      <trkpt lat="43.065958991646767" lon="-5.137213971465826">
        <ele>1188.8099999999999</ele>
        <time>2025-04-29T10:14:02Z</time>
      </trkpt>
      <trkpt lat="43.066023029386997" lon="-5.137298963963985">
        <ele>1188.8099999999999</ele>
        <time>2025-04-29T10:14:03Z</time>
      </trkpt>
      <trkpt lat="43.066082037985325" lon="-5.13743500225246">
        <ele>1188.8099999999999</ele>
        <time>2025-04-29T10:14:04Z</time>
      </trkpt>
      <trkpt lat="43.066144986078143" lon="-5.137579003348947">
        <ele>1189.29</ele>
        <time>2025-04-29T10:14:05Z</time>
      </trkpt>
      <trkpt lat="43.066182034090161" lon="-5.137751000002027">
        <ele>1189.29</ele>
        <time>2025-04-29T10:14:06Z</time>
      </trkpt>
      <trkpt lat="43.066221009939909" lon="-5.137947974726558">
        <ele>1189.29</ele>
        <time>2025-04-29T10:14:07Z</time>
      </trkpt>
      <trkpt lat="43.06626602075994" lon="-5.138150984421372">
        <ele>1189.77</ele>
        <time>2025-04-29T10:14:08Z</time>
      </trkpt>
      <trkpt lat="43.066313965246081" lon="-5.138356005772948">
        <ele>1190.25</ele>
        <time>2025-04-29T10:14:09Z</time>
      </trkpt>
      <trkpt lat="43.06637397967279" lon="-5.138557003811002">
        <ele>1190.73</ele>
        <time>2025-04-29T10:14:10Z</time>
      </trkpt>
      <trkpt lat="43.066442962735891" lon="-5.138769987970591">
        <ele>1191.6900000000001</ele>
        <time>2025-04-29T10:14:11Z</time>
      </trkpt>
      <trkpt lat="43.066515969112515" lon="-5.138989007100463">
        <ele>1192.6500000000001</ele>
        <time>2025-04-29T10:14:12Z</time>
      </trkpt>
      <trkpt lat="43.067264975979924" lon="-5.140563966706395">
        <ele>1198.9000000000001</ele>
        <time>2025-04-29T10:14:19Z</time>
      </trkpt>
      <trkpt lat="43.067894959822297" lon="-5.141428979113698">
        <ele>1204.1900000000001</ele>
        <time>2025-04-29T10:14:24Z</time>
      </trkpt>
      <trkpt lat="43.068039966747165" lon="-5.141568034887314">
        <ele>1205.1500000000001</ele>
        <time>2025-04-29T10:14:25Z</time>
      </trkpt>
      <trkpt lat="43.068187991157174" lon="-5.141709018498659">
        <ele>1206.1099999999999</ele>
        <time>2025-04-29T10:14:26Z</time>
      </trkpt>
      <trkpt lat="43.068354958668351" lon="-5.141775989905">
        <ele>1206.5899999999999</ele>
        <time>2025-04-29T10:14:27Z</time>
      </trkpt>
      <trkpt lat="43.068529972806573" lon="-5.14184002764523">
        <ele>1207.0699999999999</ele>
        <time>2025-04-29T10:14:28Z</time>
      </trkpt>
      <trkpt lat="43.068710016086698" lon="-5.141859976574779">
        <ele>1207.0699999999999</ele>
        <time>2025-04-29T10:14:29Z</time>
      </trkpt>
      <trkpt lat="43.068893998861313" lon="-5.141880009323359">
        <ele>1207.55</ele>
        <time>2025-04-29T10:14:30Z</time>
      </trkpt>
      <trkpt lat="43.069476960226893" lon="-5.141944969072938">
        <ele>1207.0699999999999</ele>
        <time>2025-04-29T10:14:33Z</time>
      </trkpt>
      <trkpt lat="43.069655997678638" lon="-5.142029961571097">
        <ele>1207.0699999999999</ele>
        <time>2025-04-29T10:14:34Z</time>
      </trkpt>
      <trkpt lat="43.069836040958762" lon="-5.142115037888289">
        <ele>1207.55</ele>
        <time>2025-04-29T10:14:35Z</time>
      </trkpt>
      <trkpt lat="43.069960009306669" lon="-5.142259038984776">
        <ele>1207.55</ele>
        <time>2025-04-29T10:14:36Z</time>
      </trkpt>
      <trkpt lat="43.070065034553409" lon="-5.142382001504302">
        <ele>1207.55</ele>
        <time>2025-04-29T10:14:37Z</time>
      </trkpt>
      <trkpt lat="43.070108033716679" lon="-5.142565984278917">
        <ele>1207.55</ele>
        <time>2025-04-29T10:14:38Z</time>
      </trkpt>
      <trkpt lat="43.070149021223187" lon="-5.142778968438506">
        <ele>1207.55</ele>
        <time>2025-04-29T10:14:39Z</time>
      </trkpt>
      <trkpt lat="43.070149021223187" lon="-5.143010979518294">
        <ele>1207.55</ele>
        <time>2025-04-29T10:14:40Z</time>
      </trkpt>
      <trkpt lat="43.070129994302988" lon="-5.143265035003424">
        <ele>1207.55</ele>
        <time>2025-04-29T10:14:41Z</time>
      </trkpt>
      <trkpt lat="43.070036033168435" lon="-5.145841967314482">
        <ele>1211.8800000000001</ele>
        <time>2025-04-29T10:14:50Z</time>
      </trkpt>
      <trkpt lat="43.070051958784461" lon="-5.146401040256023">
        <ele>1213.3199999999999</ele>
        <time>2025-04-29T10:14:52Z</time>
      </trkpt>
      <trkpt lat="43.070119014009833" lon="-5.146660963073373">
        <ele>1213.8</ele>
        <time>2025-04-29T10:14:53Z</time>
      </trkpt>
      <trkpt lat="43.070211969316006" lon="-5.146907977759838">
        <ele>1214.76</ele>
        <time>2025-04-29T10:14:54Z</time>
      </trkpt>
      <trkpt lat="43.070837007835507" lon="-5.148401968181133">
        <ele>1218.6099999999999</ele>
        <time>2025-04-29T10:15:00Z</time>
      </trkpt>
      <trkpt lat="43.070986960083246" lon="-5.148579999804497">
        <ele>1219.5699999999999</ele>
        <time>2025-04-29T10:15:01Z</time>
      </trkpt>
      <trkpt lat="43.071154011413455" lon="-5.148732969537377">
        <ele>1220.05</ele>
        <time>2025-04-29T10:15:02Z</time>
      </trkpt>
      <trkpt lat="43.071333970874548" lon="-5.148879988119006">
        <ele>1221.01</ele>
        <time>2025-04-29T10:15:03Z</time>
      </trkpt>
      <trkpt lat="43.071514014154673" lon="-5.149029018357396">
        <ele>1221.97</ele>
        <time>2025-04-29T10:15:04Z</time>
      </trkpt>
      <trkpt lat="43.072295039892197" lon="-5.14981197193265">
        <ele>1226.3</ele>
        <time>2025-04-29T10:15:09Z</time>
      </trkpt>
      <trkpt lat="43.072395035997033" lon="-5.149997966364026">
        <ele>1226.78</ele>
        <time>2025-04-29T10:15:10Z</time>
      </trkpt>
      <trkpt lat="43.072462007403374" lon="-5.150209022685885">
        <ele>1227.74</ele>
        <time>2025-04-29T10:15:11Z</time>
      </trkpt>
      <trkpt lat="43.072508024051785" lon="-5.150432987138629">
        <ele>1228.22</ele>
        <time>2025-04-29T10:15:12Z</time>
      </trkpt>
      <trkpt lat="43.072529984638095" lon="-5.150680001825094">
        <ele>1228.7</ele>
        <time>2025-04-29T10:15:13Z</time>
      </trkpt>
      <trkpt lat="43.072554962709546" lon="-5.150941014289856">
        <ele>1229.1800000000001</ele>
        <time>2025-04-29T10:15:14Z</time>
      </trkpt>
      <trkpt lat="43.07277599349618" lon="-5.153880966827273">
        <ele>1233.99</ele>
        <time>2025-04-29T10:15:24Z</time>
      </trkpt>
      <trkpt lat="43.072766019031405" lon="-5.154444985091686">
        <ele>1234.47</ele>
        <time>2025-04-29T10:15:26Z</time>
      </trkpt>
      <trkpt lat="43.072726037353277" lon="-5.154715972021222">
        <ele>1234.95</ele>
        <time>2025-04-29T10:15:27Z</time>
      </trkpt>
      <trkpt lat="43.072683038190007" lon="-5.156710026785731">
        <ele>1233.99</ele>
        <time>2025-04-29T10:15:34Z</time>
      </trkpt>
      <trkpt lat="43.072737017646432" lon="-5.157601023092866">
        <ele>1233.03</ele>
        <time>2025-04-29T10:15:37Z</time>
      </trkpt>
      <trkpt lat="43.072695024311543" lon="-5.157890031114221">
        <ele>1233.03</ele>
        <time>2025-04-29T10:15:38Z</time>
      </trkpt>
      <trkpt lat="43.072652025148273" lon="-5.158184990286827">
        <ele>1233.03</ele>
        <time>2025-04-29T10:15:39Z</time>
      </trkpt>
      <trkpt lat="43.072554040700197" lon="-5.158449020236731">
        <ele>1233.99</ele>
        <time>2025-04-29T10:15:40Z</time>
      </trkpt>
      <trkpt lat="43.0724520329386" lon="-5.158722018823028">
        <ele>1233.99</ele>
        <time>2025-04-29T10:15:41Z</time>
      </trkpt>
      <trkpt lat="43.072351031005383" lon="-5.158991999924183">
        <ele>1234.47</ele>
        <time>2025-04-29T10:15:42Z</time>
      </trkpt>
      <trkpt lat="43.0721549782902" lon="-5.159516958519816">
        <ele>1235.9100000000001</ele>
        <time>2025-04-29T10:15:44Z</time>
      </trkpt>
      <trkpt lat="43.072081971913576" lon="-5.159789035096765">
        <ele>1236.3900000000001</ele>
        <time>2025-04-29T10:15:45Z</time>
      </trkpt>
      <trkpt lat="43.07202598080039" lon="-5.160066979005933">
        <ele>1237.3499999999999</ele>
        <time>2025-04-29T10:15:46Z</time>
      </trkpt>
      <trkpt lat="43.071923973038793" lon="-5.16057601198554">
        <ele>1239.76</ele>
        <time>2025-04-29T10:15:48Z</time>
      </trkpt>
      <trkpt lat="43.071875022724271" lon="-5.160824032500386">
        <ele>1241.2</ele>
        <time>2025-04-29T10:15:49Z</time>
      </trkpt>
      <trkpt lat="43.071772009134293" lon="-5.161029975861311">
        <ele>1242.6400000000001</ele>
        <time>2025-04-29T10:15:50Z</time>
      </trkpt>
      <trkpt lat="43.071633959189057" lon="-5.161218987777829">
        <ele>1243.5999999999999</ele>
        <time>2025-04-29T10:15:51Z</time>
      </trkpt>
      <trkpt lat="43.071494987234473" lon="-5.161409005522728">
        <ele>1245.04</ele>
        <time>2025-04-29T10:15:52Z</time>
      </trkpt>
      <trkpt lat="43.07114596478641" lon="-5.161970006301999">
        <ele>1248.8900000000001</ele>
        <time>2025-04-29T10:15:55Z</time>
      </trkpt>
      <trkpt lat="43.071062983945012" lon="-5.162136973813176">
        <ele>1250.3299999999999</ele>
        <time>2025-04-29T10:15:56Z</time>
      </trkpt>
      <trkpt lat="43.071012021973729" lon="-5.162396980449557">
        <ele>1251.77</ele>
        <time>2025-04-29T10:15:57Z</time>
      </trkpt>
      <trkpt lat="43.070967011153698" lon="-5.162629997357726">
        <ele>1252.74</ele>
        <time>2025-04-29T10:15:58Z</time>
      </trkpt>
      <trkpt lat="43.070913031697273" lon="-5.162909030914307">
        <ele>1254.1800000000001</ele>
        <time>2025-04-29T10:15:59Z</time>
      </trkpt>
      <trkpt lat="43.07090800255537" lon="-5.163124026730657">
        <ele>1255.1400000000001</ele>
        <time>2025-04-29T10:16:00Z</time>
      </trkpt>
      <trkpt lat="43.07092803530395" lon="-5.164146032184362">
        <ele>1260.4300000000001</ele>
        <time>2025-04-29T10:16:04Z</time>
      </trkpt>
      <trkpt lat="43.070956030860543" lon="-5.164367984980345">
        <ele>1262.3499999999999</ele>
        <time>2025-04-29T10:16:05Z</time>
      </trkpt>
      <trkpt lat="43.071070024743676" lon="-5.164595972746611">
        <ele>1263.79</ele>
        <time>2025-04-29T10:16:06Z</time>
      </trkpt>
      <trkpt lat="43.071177983656526" lon="-5.164812980219722">
        <ele>1265.23</ele>
        <time>2025-04-29T10:16:07Z</time>
      </trkpt>
      <trkpt lat="43.071305975317955" lon="-5.16502202488482">
        <ele>1267.1600000000001</ele>
        <time>2025-04-29T10:16:08Z</time>
      </trkpt>
      <trkpt lat="43.071434972807765" lon="-5.165228974074125">
        <ele>1269.0799999999999</ele>
        <time>2025-04-29T10:16:09Z</time>
      </trkpt>
      <trkpt lat="43.071652986109257" lon="-5.165617978200316">
        <ele>1272.4400000000001</ele>
        <time>2025-04-29T10:16:11Z</time>
      </trkpt>
      <trkpt lat="43.071717023849487" lon="-5.165797015652061">
        <ele>1274.3599999999999</ele>
        <time>2025-04-29T10:16:12Z</time>
      </trkpt>
      <trkpt lat="43.071722975000739" lon="-5.165993990376592">
        <ele>1275.8099999999999</ele>
        <time>2025-04-29T10:16:13Z</time>
      </trkpt>
      <trkpt lat="43.071716018021107" lon="-5.1662059687078">
        <ele>1276.77</ele>
        <time>2025-04-29T10:16:14Z</time>
      </trkpt>
      <trkpt lat="43.071708977222443" lon="-5.166431022807956">
        <ele>1277.73</ele>
        <time>2025-04-29T10:16:15Z</time>
      </trkpt>
      <trkpt lat="43.071666983887553" lon="-5.166652975603938">
        <ele>1278.21</ele>
        <time>2025-04-29T10:16:16Z</time>
      </trkpt>
      <trkpt lat="43.071609986945987" lon="-5.166880963370204">
        <ele>1279.1700000000001</ele>
        <time>2025-04-29T10:16:17Z</time>
      </trkpt>
      <trkpt lat="43.071547960862517" lon="-5.167119009420276">
        <ele>1279.6500000000001</ele>
        <time>2025-04-29T10:16:18Z</time>
      </trkpt>
      <trkpt lat="43.071463974192739" lon="-5.167358983308077">
        <ele>1280.1300000000001</ele>
        <time>2025-04-29T10:16:19Z</time>
      </trkpt>
      <trkpt lat="43.070612037554383" lon="-5.169827034696937">
        <ele>1283.98</ele>
        <time>2025-04-29T10:16:28Z</time>
      </trkpt>
      <trkpt lat="43.069589026272297" lon="-5.172839993610978">
        <ele>1282.0599999999999</ele>
        <time>2025-04-29T10:16:38Z</time>
      </trkpt>
      <trkpt lat="43.069527000188828" lon="-5.173125984147191">
        <ele>1281.5699999999999</ele>
        <time>2025-04-29T10:16:39Z</time>
      </trkpt>
      <trkpt lat="43.069438990205526" lon="-5.173664018511772">
        <ele>1281.5699999999999</ele>
        <time>2025-04-29T10:16:41Z</time>
      </trkpt>
      <trkpt lat="43.069419041275978" lon="-5.17391799017787">
        <ele>1281.5699999999999</ele>
        <time>2025-04-29T10:16:42Z</time>
      </trkpt>
      <trkpt lat="43.069377969950438" lon="-5.175986979156733">
        <ele>1282.0599999999999</ele>
        <time>2025-04-29T10:16:49Z</time>
      </trkpt>
      <trkpt lat="43.06927596218884" lon="-5.179696977138519">
        <ele>1283.5</ele>
        <time>2025-04-29T10:17:01Z</time>
      </trkpt>
      <trkpt lat="43.06927696801722" lon="-5.180559977889061">
        <ele>1283.5</ele>
        <time>2025-04-29T10:17:04Z</time>
      </trkpt>
      <trkpt lat="43.069336982443929" lon="-5.180838005617261">
        <ele>1283.5</ele>
        <time>2025-04-29T10:17:05Z</time>
      </trkpt>
      <trkpt lat="43.069925978779793" lon="-5.183379985392094">
        <ele>1285.4200000000001</ele>
        <time>2025-04-29T10:17:13Z</time>
      </trkpt>
      <trkpt lat="43.070334009826183" lon="-5.185354007408023">
        <ele>1288.78</ele>
        <time>2025-04-29T10:17:20Z</time>
      </trkpt>
      <trkpt lat="43.070334009826183" lon="-5.185629017651081">
        <ele>1289.75</ele>
        <time>2025-04-29T10:17:21Z</time>
      </trkpt>
      <trkpt lat="43.070315988734365" lon="-5.185911990702152">
        <ele>1290.71</ele>
        <time>2025-04-29T10:17:22Z</time>
      </trkpt>
      <trkpt lat="43.070267960429192" lon="-5.188051974400878">
        <ele>1295.99</ele>
        <time>2025-04-29T10:17:29Z</time>
      </trkpt>
      <trkpt lat="43.070624023675919" lon="-5.19108597189188">
        <ele>1300.3199999999999</ele>
        <time>2025-04-29T10:17:38Z</time>
      </trkpt>
      <trkpt lat="43.070730976760387" lon="-5.191702963784337">
        <ele>1301.76</ele>
        <time>2025-04-29T10:17:40Z</time>
      </trkpt>
      <trkpt lat="43.070831978693604" lon="-5.191964982077479">
        <ele>1302.24</ele>
        <time>2025-04-29T10:17:41Z</time>
      </trkpt>
      <trkpt lat="43.070932980626822" lon="-5.192227000370622">
        <ele>1302.72</ele>
        <time>2025-04-29T10:17:42Z</time>
      </trkpt>
      <trkpt lat="43.07105996645987" lon="-5.192465968430042">
        <ele>1303.2</ele>
        <time>2025-04-29T10:17:43Z</time>
      </trkpt>
      <trkpt lat="43.071194998919964" lon="-5.192702002823353">
        <ele>1303.6900000000001</ele>
        <time>2025-04-29T10:17:44Z</time>
      </trkpt>
      <trkpt lat="43.071584003046155" lon="-5.193379009142518">
        <ele>1306.5699999999999</ele>
        <time>2025-04-29T10:17:47Z</time>
      </trkpt>
      <trkpt lat="43.071670001372695" lon="-5.193611020222306">
        <ele>1307.53</ele>
        <time>2025-04-29T10:17:48Z</time>
      </trkpt>
      <trkpt lat="43.071740996092558" lon="-5.19385501742363">
        <ele>1308.49</ele>
        <time>2025-04-29T10:17:49Z</time>
      </trkpt>
      <trkpt lat="43.071797993034124" lon="-5.194103037938476">
        <ele>1308.97</ele>
        <time>2025-04-29T10:17:50Z</time>
      </trkpt>
      <trkpt lat="43.071847027167678" lon="-5.194365978240967">
        <ele>1309.9300000000001</ele>
        <time>2025-04-29T10:17:51Z</time>
      </trkpt>
      <trkpt lat="43.071940988302231" lon="-5.194869982078672">
        <ele>1310.9000000000001</ele>
        <time>2025-04-29T10:17:53Z</time>
      </trkpt>
      <trkpt lat="43.072052970528603" lon="-5.195071985945106">
        <ele>1310.9000000000001</ele>
        <time>2025-04-29T10:17:54Z</time>
      </trkpt>
      <trkpt lat="43.072171993553638" lon="-5.195279018953443">
        <ele>1310.4100000000001</ele>
        <time>2025-04-29T10:17:55Z</time>
      </trkpt>
      <trkpt lat="43.072280958294868" lon="-5.195468030869961">
        <ele>1309.9300000000001</ele>
        <time>2025-04-29T10:17:56Z</time>
      </trkpt>
      <trkpt lat="43.07236704044044" lon="-5.195656958967447">
        <ele>1308.97</ele>
        <time>2025-04-29T10:17:57Z</time>
      </trkpt>
      <trkpt lat="43.072415990754962" lon="-5.195852005854249">
        <ele>1308.49</ele>
        <time>2025-04-29T10:17:58Z</time>
      </trkpt>
      <trkpt lat="43.07245597243309" lon="-5.196059960871935">
        <ele>1308.01</ele>
        <time>2025-04-29T10:17:59Z</time>
      </trkpt>
      <trkpt lat="43.072445997968316" lon="-5.19626397639513">
        <ele>1307.53</ele>
        <time>2025-04-29T10:18:00Z</time>
      </trkpt>
      <trkpt lat="43.072436023503542" lon="-5.196468997746706">
        <ele>1308.01</ele>
        <time>2025-04-29T10:18:01Z</time>
      </trkpt>
      <trkpt lat="43.072381960228086" lon="-5.196675024926662">
        <ele>1308.97</ele>
        <time>2025-04-29T10:18:02Z</time>
      </trkpt>
      <trkpt lat="43.072315994650126" lon="-5.196848027408123">
        <ele>1309.9300000000001</ele>
        <time>2025-04-29T10:18:03Z</time>
      </trkpt>
      <trkpt lat="43.072222033515573" lon="-5.197005020454526">
        <ele>1310.9000000000001</ele>
        <time>2025-04-29T10:18:04Z</time>
      </trkpt>
      <trkpt lat="43.07208901271224" lon="-5.19714298658073">
        <ele>1312.3399999999999</ele>
        <time>2025-04-29T10:18:05Z</time>
      </trkpt>
      <trkpt lat="43.071950962767005" lon="-5.197284976020455">
        <ele>1313.3</ele>
        <time>2025-04-29T10:18:06Z</time>
      </trkpt>
      <trkpt lat="43.071063989773393" lon="-5.198185024783015">
        <ele>1320.03</ele>
        <time>2025-04-29T10:18:12Z</time>
      </trkpt>
      <trkpt lat="43.070952007547021" lon="-5.198343023657799">
        <ele>1321.47</ele>
        <time>2025-04-29T10:18:13Z</time>
      </trkpt>
      <trkpt lat="43.070857040584087" lon="-5.198533963412046">
        <ele>1322.4300000000001</ele>
        <time>2025-04-29T10:18:14Z</time>
      </trkpt>
      <trkpt lat="43.070770036429167" lon="-5.1987349614501">
        <ele>1323.3900000000001</ele>
        <time>2025-04-29T10:18:15Z</time>
      </trkpt>
      <trkpt lat="43.07071203365922" lon="-5.198967978358269">
        <ele>1324.8299999999999</ele>
        <time>2025-04-29T10:18:16Z</time>
      </trkpt>
      <trkpt lat="43.070653025060892" lon="-5.199203006923199">
        <ele>1325.8</ele>
        <time>2025-04-29T10:18:17Z</time>
      </trkpt>
      <trkpt lat="43.070597033947706" lon="-5.199427977204323">
        <ele>1327.24</ele>
        <time>2025-04-29T10:18:18Z</time>
      </trkpt>
      <trkpt lat="43.070577001199126" lon="-5.199648002162576">
        <ele>1328.2</ele>
        <time>2025-04-29T10:18:19Z</time>
      </trkpt>
      <trkpt lat="43.070590998977423" lon="-5.199858974665403">
        <ele>1329.6400000000001</ele>
        <time>2025-04-29T10:18:20Z</time>
      </trkpt>
      <trkpt lat="43.070652019232512" lon="-5.200057039037347">
        <ele>1330.5999999999999</ele>
        <time>2025-04-29T10:18:21Z</time>
      </trkpt>
      <trkpt lat="43.070716978982091" lon="-5.200267005711794">
        <ele>1331.5599999999999</ele>
        <time>2025-04-29T10:18:22Z</time>
      </trkpt>
      <trkpt lat="43.071349980309606" lon="-5.20187197253108">
        <ele>1340.7</ele>
        <time>2025-04-29T10:18:29Z</time>
      </trkpt>
      <trkpt lat="43.071660026907921" lon="-5.202596001327038">
        <ele>1345.5</ele>
        <time>2025-04-29T10:18:32Z</time>
      </trkpt>
      <trkpt lat="43.071748958900571" lon="-5.202865982428193">
        <ele>1346.9400000000001</ele>
        <time>2025-04-29T10:18:33Z</time>
      </trkpt>
      <trkpt lat="43.072699969634414" lon="-5.205404022708535">
        <ele>1363.77</ele>
        <time>2025-04-29T10:18:42Z</time>
      </trkpt>
      <trkpt lat="43.072951007634401" lon="-5.206125034019351">
        <ele>1369.54</ele>
        <time>2025-04-29T10:18:45Z</time>
      </trkpt>
      <trkpt lat="43.072941033169627" lon="-5.206333994865418">
        <ele>1371.46</ele>
        <time>2025-04-29T10:18:46Z</time>
      </trkpt>
      <trkpt lat="43.07292896322906" lon="-5.206558965146542">
        <ele>1373.3800000000001</ele>
        <time>2025-04-29T10:18:47Z</time>
      </trkpt>
      <trkpt lat="43.072663005441427" lon="-5.208027977496386">
        <ele>1382.03</ele>
        <time>2025-04-29T10:18:53Z</time>
      </trkpt>
      <trkpt lat="43.072657976299524" lon="-5.208295024931431">
        <ele>1383.47</ele>
        <time>2025-04-29T10:18:54Z</time>
      </trkpt>
      <trkpt lat="43.072726959362626" lon="-5.209105974063277">
        <ele>1387.3199999999999</ele>
        <time>2025-04-29T10:18:57Z</time>
      </trkpt>
      <trkpt lat="43.072792002931237" lon="-5.209351982921362">
        <ele>1389.24</ele>
        <time>2025-04-29T10:18:58Z</time>
      </trkpt>
      <trkpt lat="43.072890993207693" lon="-5.209598997607827">
        <ele>1391.1700000000001</ele>
        <time>2025-04-29T10:18:59Z</time>
      </trkpt>
      <trkpt lat="43.073816020041704" lon="-5.211287029087544">
        <ele>1403.6600000000001</ele>
        <time>2025-04-29T10:19:06Z</time>
      </trkpt>
      <trkpt lat="43.075732039287686" lon="-5.213753990828991">
        <ele>1424.3299999999999</ele>
        <time>2025-04-29T10:19:17Z</time>
      </trkpt>
      <trkpt lat="43.076270995661616" lon="-5.214275009930134">
        <ele>1429.1400000000001</ele>
        <time>2025-04-29T10:19:20Z</time>
      </trkpt>
      <trkpt lat="43.076445003971457" lon="-5.214389003813267">
        <ele>1430.5799999999999</ele>
        <time>2025-04-29T10:19:21Z</time>
      </trkpt>
      <trkpt lat="43.076626975089312" lon="-5.21443803794682">
        <ele>1432.5</ele>
        <time>2025-04-29T10:19:22Z</time>
      </trkpt>
      <trkpt lat="43.076819004490972" lon="-5.214470978826284">
        <ele>1433.9400000000001</ele>
        <time>2025-04-29T10:19:23Z</time>
      </trkpt>
      <trkpt lat="43.077021008357406" lon="-5.214451029896736">
        <ele>1435.3900000000001</ele>
        <time>2025-04-29T10:19:24Z</time>
      </trkpt>
      <trkpt lat="43.077225023880601" lon="-5.214430997148156">
        <ele>1436.8299999999999</ele>
        <time>2025-04-29T10:19:25Z</time>
      </trkpt>
      <trkpt lat="43.077429961413145" lon="-5.214385986328125">
        <ele>1438.27</ele>
        <time>2025-04-29T10:19:26Z</time>
      </trkpt>
      <trkpt lat="43.079616967588663" lon="-5.213941996917129">
        <ele>1455.0899999999999</ele>
        <time>2025-04-29T10:19:36Z</time>
      </trkpt>
      <trkpt lat="43.079819977283478" lon="-5.213960018008947">
        <ele>1456.53</ele>
        <time>2025-04-29T10:19:37Z</time>
      </trkpt>
      <trkpt lat="43.080024998635054" lon="-5.214036041870713">
        <ele>1457.98</ele>
        <time>2025-04-29T10:19:38Z</time>
      </trkpt>
      <trkpt lat="43.080234965309501" lon="-5.214113993570209">
        <ele>1459.4200000000001</ele>
        <time>2025-04-29T10:19:39Z</time>
      </trkpt>
      <trkpt lat="43.080443004146218" lon="-5.214218012988567">
        <ele>1460.3800000000001</ele>
        <time>2025-04-29T10:19:40Z</time>
      </trkpt>
      <trkpt lat="43.081850996240973" lon="-5.215048994868994">
        <ele>1469.99</ele>
        <time>2025-04-29T10:19:47Z</time>
      </trkpt>
      <trkpt lat="43.082037996500731" lon="-5.215084031224251">
        <ele>1470.95</ele>
        <time>2025-04-29T10:19:48Z</time>
      </trkpt>
      <trkpt lat="43.082231031730771" lon="-5.215077996253967">
        <ele>1472.4000000000001</ele>
        <time>2025-04-29T10:19:49Z</time>
      </trkpt>
      <trkpt lat="43.082803012803197" lon="-5.215032985433936">
        <ele>1476.24</ele>
        <time>2025-04-29T10:19:52Z</time>
      </trkpt>
      <trkpt lat="43.083812026306987" lon="-5.215207999572158">
        <ele>1482.01</ele>
        <time>2025-04-29T10:19:58Z</time>
      </trkpt>
      <trkpt lat="43.083938006311655" lon="-5.21525502204895">
        <ele>1482.97</ele>
        <time>2025-04-29T10:19:59Z</time>
      </trkpt>
      <trkpt lat="43.084048982709646" lon="-5.215333979576826">
        <ele>1484.4100000000001</ele>
        <time>2025-04-29T10:20:00Z</time>
      </trkpt>
      <trkpt lat="43.084122994914651" lon="-5.215473035350442">
        <ele>1485.3699999999999</ele>
        <time>2025-04-29T10:20:01Z</time>
      </trkpt>
      <trkpt lat="43.084189966320992" lon="-5.2156219817698">
        <ele>1486.3399999999999</ele>
        <time>2025-04-29T10:20:02Z</time>
      </trkpt>
      <trkpt lat="43.084236988797784" lon="-5.215778974816203">
        <ele>1487.78</ele>
        <time>2025-04-29T10:20:03Z</time>
      </trkpt>
      <trkpt lat="43.08422802016139" lon="-5.215967986732721">
        <ele>1488.26</ele>
        <time>2025-04-29T10:20:04Z</time>
      </trkpt>
      <trkpt lat="43.084218967705965" lon="-5.216145012527704">
        <ele>1489.22</ele>
        <time>2025-04-29T10:20:05Z</time>
      </trkpt>
      <trkpt lat="43.08416498824954" lon="-5.216313991695643">
        <ele>1490.1800000000001</ele>
        <time>2025-04-29T10:20:06Z</time>
      </trkpt>
      <trkpt lat="43.084097011014819" lon="-5.21647802554071">
        <ele>1491.1400000000001</ele>
        <time>2025-04-29T10:20:07Z</time>
      </trkpt>
      <trkpt lat="43.084028027951717" lon="-5.216644993051887">
        <ele>1491.6199999999999</ele>
        <time>2025-04-29T10:20:08Z</time>
      </trkpt>
      <trkpt lat="43.083958961069584" lon="-5.216812966391444">
        <ele>1492.5799999999999</ele>
        <time>2025-04-29T10:20:09Z</time>
      </trkpt>
      <trkpt lat="43.083921996876597" lon="-5.21699401549995">
        <ele>1493.0599999999999</ele>
        <time>2025-04-29T10:20:10Z</time>
      </trkpt>
      <trkpt lat="43.083943035453558" lon="-5.217161988839507">
        <ele>1494.03</ele>
        <time>2025-04-29T10:20:11Z</time>
      </trkpt>
      <trkpt lat="43.083988968282938" lon="-5.217284029349685">
        <ele>1494.51</ele>
        <time>2025-04-29T10:20:12Z</time>
      </trkpt>
      <trkpt lat="43.084062980487943" lon="-5.217395005747676">
        <ele>1495.47</ele>
        <time>2025-04-29T10:20:13Z</time>
      </trkpt>
      <trkpt lat="43.084140010178089" lon="-5.217505982145667">
        <ele>1495.95</ele>
        <time>2025-04-29T10:20:14Z</time>
      </trkpt>
      <trkpt lat="43.084240006282926" lon="-5.217590974643827">
        <ele>1496.9100000000001</ele>
        <time>2025-04-29T10:20:15Z</time>
      </trkpt>
      <trkpt lat="43.084668992087245" lon="-5.217905966565013">
        <ele>1499.79</ele>
        <time>2025-04-29T10:20:19Z</time>
      </trkpt>
      <trkpt lat="43.084779968485236" lon="-5.217942008748651">
        <ele>1500.27</ele>
        <time>2025-04-29T10:20:20Z</time>
      </trkpt>
      <trkpt lat="43.08489203453064" lon="-5.217917030677199">
        <ele>1500.76</ele>
        <time>2025-04-29T10:20:21Z</time>
      </trkpt>
      <trkpt lat="43.085014997050166" lon="-5.217881994321942">
        <ele>1501.24</ele>
        <time>2025-04-29T10:20:22Z</time>
      </trkpt>
      <trkpt lat="43.085145000368357" lon="-5.217838995158672">
        <ele>1501.72</ele>
        <time>2025-04-29T10:20:23Z</time>
      </trkpt>
      <trkpt lat="43.085269974544644" lon="-5.217777974903584">
        <ele>1501.72</ele>
        <time>2025-04-29T10:20:24Z</time>
      </trkpt>
      <trkpt lat="43.08538899756968" lon="-5.217690970748663">
        <ele>1502.2</ele>
        <time>2025-04-29T10:20:25Z</time>
      </trkpt>
      <trkpt lat="43.085481030866504" lon="-5.217545963823795">
        <ele>1502.6800000000001</ele>
        <time>2025-04-29T10:20:26Z</time>
      </trkpt>
      <trkpt lat="43.086322993040085" lon="-5.216374006122351">
        <ele>1497.3900000000001</ele>
        <time>2025-04-29T10:20:33Z</time>
      </trkpt>
      <trkpt lat="43.08646003715694" lon="-5.216239979490638">
        <ele>1495.95</ele>
        <time>2025-04-29T10:20:34Z</time>
      </trkpt>
      <trkpt lat="43.086600014939904" lon="-5.216135960072279">
        <ele>1494.51</ele>
        <time>2025-04-29T10:20:35Z</time>
      </trkpt>
      <trkpt lat="43.086728006601334" lon="-5.216041998937726">
        <ele>1493.0599999999999</ele>
        <time>2025-04-29T10:20:36Z</time>
      </trkpt>
      <trkpt lat="43.086834037676454" lon="-5.215939991176128">
        <ele>1492.0999999999999</ele>
        <time>2025-04-29T10:20:37Z</time>
      </trkpt>
      <trkpt lat="43.086927998811007" lon="-5.215818034484983">
        <ele>1491.1400000000001</ele>
        <time>2025-04-29T10:20:38Z</time>
      </trkpt>
      <trkpt lat="43.087033024057746" lon="-5.215705968439579">
        <ele>1490.1800000000001</ele>
        <time>2025-04-29T10:20:39Z</time>
      </trkpt>
      <trkpt lat="43.087112987414002" lon="-5.215674033388495">
        <ele>1489.22</ele>
        <time>2025-04-29T10:20:40Z</time>
      </trkpt>
      <trkpt lat="43.087229998782277" lon="-5.215737987309694">
        <ele>1487.78</ele>
        <time>2025-04-29T10:20:41Z</time>
      </trkpt>
      <trkpt lat="43.087323037907481" lon="-5.215804958716035">
        <ele>1486.8199999999999</ele>
        <time>2025-04-29T10:20:42Z</time>
      </trkpt>
      <trkpt lat="43.08740995824337" lon="-5.215930016711354">
        <ele>1485.8499999999999</ele>
        <time>2025-04-29T10:20:43Z</time>
      </trkpt>
      <trkpt lat="43.087510038167238" lon="-5.216073011979461">
        <ele>1484.4100000000001</ele>
        <time>2025-04-29T10:20:44Z</time>
      </trkpt>
      <trkpt lat="43.087728973478079" lon="-5.216343998908997">
        <ele>1482.49</ele>
        <time>2025-04-29T10:20:46Z</time>
      </trkpt>
      <trkpt lat="43.087842967361212" lon="-5.216446006670594">
        <ele>1481.53</ele>
        <time>2025-04-29T10:20:47Z</time>
      </trkpt>
      <trkpt lat="43.088012030348182" lon="-5.216511972248554">
        <ele>1480.0899999999999</ele>
        <time>2025-04-29T10:20:48Z</time>
      </trkpt>
      <trkpt lat="43.088678978383541" lon="-5.216757981106639">
        <ele>1476.24</ele>
        <time>2025-04-29T10:20:52Z</time>
      </trkpt>
      <trkpt lat="43.08884602971375" lon="-5.216787988319993">
        <ele>1474.8</ele>
        <time>2025-04-29T10:20:53Z</time>
      </trkpt>
      <trkpt lat="43.089001011103392" lon="-5.216749012470245">
        <ele>1473.8399999999999</ele>
        <time>2025-04-29T10:20:54Z</time>
      </trkpt>
      <trkpt lat="43.089117016643286" lon="-5.216688998043537">
        <ele>1472.8800000000001</ele>
        <time>2025-04-29T10:20:55Z</time>
      </trkpt>
      <trkpt lat="43.089194968342781" lon="-5.216595958918333">
        <ele>1471.9200000000001</ele>
        <time>2025-04-29T10:20:56Z</time>
      </trkpt>
      <trkpt lat="43.089226987212896" lon="-5.216450029984117">
        <ele>1470.95</ele>
        <time>2025-04-29T10:20:57Z</time>
      </trkpt>
      <trkpt lat="43.089262023568153" lon="-5.216293036937714">
        <ele>1469.51</ele>
        <time>2025-04-29T10:20:58Z</time>
      </trkpt>
      <trkpt lat="43.089296976104379" lon="-5.21613797172904">
        <ele>1468.55</ele>
        <time>2025-04-29T10:20:59Z</time>
      </trkpt>
      <trkpt lat="43.089337041601539" lon="-5.215993970632553">
        <ele>1467.5899999999999</ele>
        <time>2025-04-29T10:21:00Z</time>
      </trkpt>
      <trkpt lat="43.089412981644273" lon="-5.215903026983142">
        <ele>1467.1099999999999</ele>
        <time>2025-04-29T10:21:01Z</time>
      </trkpt>
      <trkpt lat="43.089499985799193" lon="-5.215881988406181">
        <ele>1466.6300000000001</ele>
        <time>2025-04-29T10:21:02Z</time>
      </trkpt>
      <trkpt lat="43.089607022702694" lon="-5.21589900366962">
        <ele>1466.1500000000001</ele>
        <time>2025-04-29T10:21:03Z</time>
      </trkpt>
      <trkpt lat="43.089715987443924" lon="-5.215975027531385">
        <ele>1465.6700000000001</ele>
        <time>2025-04-29T10:21:04Z</time>
      </trkpt>
      <trkpt lat="43.089842973276973" lon="-5.216063037514687">
        <ele>1465.6700000000001</ele>
        <time>2025-04-29T10:21:05Z</time>
      </trkpt>
      <trkpt lat="43.09011697769165" lon="-5.216252971440554">
        <ele>1464.71</ele>
        <time>2025-04-29T10:21:07Z</time>
      </trkpt>
      <trkpt lat="43.090275982394814" lon="-5.216321032494307">
        <ele>1464.23</ele>
        <time>2025-04-29T10:21:08Z</time>
      </trkpt>
      <trkpt lat="43.090440016239882" lon="-5.216382974758744">
        <ele>1463.74</ele>
        <time>2025-04-29T10:21:09Z</time>
      </trkpt>
      <trkpt lat="43.090793984010816" lon="-5.216390015557408">
        <ele>1462.78</ele>
        <time>2025-04-29T10:21:11Z</time>
      </trkpt>
      <trkpt lat="43.09097302146256" lon="-5.216370988637209">
        <ele>1462.3</ele>
        <time>2025-04-29T10:21:12Z</time>
      </trkpt>
      <trkpt lat="43.091330006718636" lon="-5.216355985030532">
        <ele>1461.3399999999999</ele>
        <time>2025-04-29T10:21:14Z</time>
      </trkpt>
      <trkpt lat="43.09146897867322" lon="-5.216403007507324">
        <ele>1461.3399999999999</ele>
        <time>2025-04-29T10:21:15Z</time>
      </trkpt>
      <trkpt lat="43.091631000861526" lon="-5.216509038582444">
        <ele>1461.3399999999999</ele>
        <time>2025-04-29T10:21:16Z</time>
      </trkpt>
      <trkpt lat="43.091767961159348" lon="-5.216597970575094">
        <ele>1460.8599999999999</ele>
        <time>2025-04-29T10:21:17Z</time>
      </trkpt>
      <trkpt lat="43.09189897030592" lon="-5.216682963073254">
        <ele>1460.3800000000001</ele>
        <time>2025-04-29T10:21:18Z</time>
      </trkpt>
      <trkpt lat="43.092030985280871" lon="-5.216744989156723">
        <ele>1459.9000000000001</ele>
        <time>2025-04-29T10:21:19Z</time>
      </trkpt>
      <trkpt lat="43.092159982770681" lon="-5.216783965006471">
        <ele>1458.9400000000001</ele>
        <time>2025-04-29T10:21:20Z</time>
      </trkpt>
      <trkpt lat="43.09228696860373" lon="-5.216749012470245">
        <ele>1457.98</ele>
        <time>2025-04-29T10:21:21Z</time>
      </trkpt>
      <trkpt lat="43.092428036034107" lon="-5.216697966679931">
        <ele>1457.02</ele>
        <time>2025-04-29T10:21:22Z</time>
      </trkpt>
      <trkpt lat="43.092572959139943" lon="-5.216643987223506">
        <ele>1456.05</ele>
        <time>2025-04-29T10:21:23Z</time>
      </trkpt>
      <trkpt lat="43.09271696023643" lon="-5.216591013595462">
        <ele>1455.0899999999999</ele>
        <time>2025-04-29T10:21:24Z</time>
      </trkpt>
      <trkpt lat="43.092874037101865" lon="-5.216558994725347">
        <ele>1454.6099999999999</ele>
        <time>2025-04-29T10:21:25Z</time>
      </trkpt>
      <trkpt lat="43.093029018491507" lon="-5.216578021645546">
        <ele>1453.6500000000001</ele>
        <time>2025-04-29T10:21:26Z</time>
      </trkpt>
      <trkpt lat="43.093183999881148" lon="-5.216595958918333">
        <ele>1452.21</ele>
        <time>2025-04-29T10:21:27Z</time>
      </trkpt>
      <trkpt lat="43.093324983492494" lon="-5.21669302135706">
        <ele>1451.25</ele>
        <time>2025-04-29T10:21:28Z</time>
      </trkpt>
      <trkpt lat="43.093470996245742" lon="-5.216796034947038">
        <ele>1450.29</ele>
        <time>2025-04-29T10:21:29Z</time>
      </trkpt>
      <trkpt lat="43.093614997342229" lon="-5.216897036880255">
        <ele>1449.3199999999999</ele>
        <time>2025-04-29T10:21:30Z</time>
      </trkpt>
      <trkpt lat="43.093741983175278" lon="-5.217055035755038">
        <ele>1447.8800000000001</ele>
        <time>2025-04-29T10:21:31Z</time>
      </trkpt>
      <trkpt lat="43.093873998150229" lon="-5.217219991609454">
        <ele>1446.9200000000001</ele>
        <time>2025-04-29T10:21:32Z</time>
      </trkpt>
      <trkpt lat="43.094154959544539" lon="-5.217493996024132">
        <ele>1444.04</ele>
        <time>2025-04-29T10:21:34Z</time>
      </trkpt>
      <trkpt lat="43.094299966469407" lon="-5.217600027099252">
        <ele>1442.5999999999999</ele>
        <time>2025-04-29T10:21:35Z</time>
      </trkpt>
      <trkpt lat="43.094441033899784" lon="-5.217656018212438">
        <ele>1441.1500000000001</ele>
        <time>2025-04-29T10:21:36Z</time>
      </trkpt>
      <trkpt lat="43.094567013904452" lon="-5.21770597435534">
        <ele>1439.71</ele>
        <time>2025-04-29T10:21:37Z</time>
      </trkpt>
      <trkpt lat="43.094688970595598" lon="-5.21768300794065">
        <ele>1438.27</ele>
        <time>2025-04-29T10:21:38Z</time>
      </trkpt>
      <trkpt lat="43.094802964478731" lon="-5.217651994898915">
        <ele>1437.3099999999999</ele>
        <time>2025-04-29T10:21:39Z</time>
      </trkpt>
      <trkpt lat="43.094905978068709" lon="-5.217549987137318">
        <ele>1435.8699999999999</ele>
        <time>2025-04-29T10:21:40Z</time>
      </trkpt>
      <trkpt lat="43.095012009143829" lon="-5.217433981597424">
        <ele>1434.4200000000001</ele>
        <time>2025-04-29T10:21:41Z</time>
      </trkpt>
      <trkpt lat="43.095146035775542" lon="-5.217347983270884">
        <ele>1432.98</ele>
        <time>2025-04-29T10:21:42Z</time>
      </trkpt>
      <trkpt lat="43.095291964709759" lon="-5.217282017692924">
        <ele>1432.02</ele>
        <time>2025-04-29T10:21:43Z</time>
      </trkpt>
      <trkpt lat="43.095871992409229" lon="-5.217089988291264">
        <ele>1427.21</ele>
        <time>2025-04-29T10:21:47Z</time>
      </trkpt>
      <trkpt lat="43.096124036237597" lon="-5.217089988291264">
        <ele>1425.29</ele>
        <time>2025-04-29T10:21:49Z</time>
      </trkpt>
      <trkpt lat="43.096251022070646" lon="-5.21703701466322">
        <ele>1423.8499999999999</ele>
        <time>2025-04-29T10:21:50Z</time>
      </trkpt>
      <trkpt lat="43.097086027264595" lon="-5.216174013912678">
        <ele>1420.49</ele>
        <time>2025-04-29T10:22:00Z</time>
      </trkpt>
      <trkpt lat="43.097277972847223" lon="-5.216077035292983">
        <ele>1420.97</ele>
        <time>2025-04-29T10:22:01Z</time>
      </trkpt>
      <trkpt lat="43.097394984215498" lon="-5.216020960360766">
        <ele>1420.97</ele>
        <time>2025-04-29T10:22:02Z</time>
      </trkpt>
      <trkpt lat="43.097517024725676" lon="-5.21596304140985">
        <ele>1420.97</ele>
        <time>2025-04-29T10:22:03Z</time>
      </trkpt>
      <trkpt lat="43.097628001123667" lon="-5.215909983962774">
        <ele>1420.49</ele>
        <time>2025-04-29T10:22:04Z</time>
      </trkpt>
      <trkpt lat="43.097721040248871" lon="-5.215829014778137">
        <ele>1420.49</ele>
        <time>2025-04-29T10:22:05Z</time>
      </trkpt>
      <trkpt lat="43.097835034132004" lon="-5.215731030330062">
        <ele>1420</ele>
        <time>2025-04-29T10:22:06Z</time>
      </trkpt>
      <trkpt lat="43.097948022186756" lon="-5.215632962062955">
        <ele>1419.52</ele>
        <time>2025-04-29T10:22:07Z</time>
      </trkpt>
      <trkpt lat="43.098099986091256" lon="-5.215502036735416">
        <ele>1418.5599999999999</ele>
        <time>2025-04-29T10:22:09Z</time>
      </trkpt>
      <trkpt lat="43.098179027438164" lon="-5.215336997061968">
        <ele>1418.5599999999999</ele>
        <time>2025-04-29T10:22:10Z</time>
      </trkpt>
      <trkpt lat="43.098244993016124" lon="-5.215200036764145">
        <ele>1418.0799999999999</ele>
        <time>2025-04-29T10:22:11Z</time>
      </trkpt>
      <trkpt lat="43.098312970250845" lon="-5.215057963505387">
        <ele>1417.5999999999999</ele>
        <time>2025-04-29T10:22:12Z</time>
      </trkpt>
      <trkpt lat="43.098411960527301" lon="-5.214907005429268">
        <ele>1417.1199999999999</ele>
        <time>2025-04-29T10:22:13Z</time>
      </trkpt>
      <trkpt lat="43.098507011309266" lon="-5.21480399183929">
        <ele>1416.6400000000001</ele>
        <time>2025-04-29T10:22:14Z</time>
      </trkpt>
      <trkpt lat="43.09860298410058" lon="-5.214700978249311">
        <ele>1416.1600000000001</ele>
        <time>2025-04-29T10:22:15Z</time>
      </trkpt>
      <trkpt lat="43.098661992698908" lon="-5.214602993801236">
        <ele>1415.6800000000001</ele>
        <time>2025-04-29T10:22:16Z</time>
      </trkpt>
      <trkpt lat="43.098719995468855" lon="-5.214465027675033">
        <ele>1415.2</ele>
        <time>2025-04-29T10:22:17Z</time>
      </trkpt>
      <trkpt lat="43.098780009895563" lon="-5.214319014921784">
        <ele>1414.72</ele>
        <time>2025-04-29T10:22:18Z</time>
      </trkpt>
      <trkpt lat="43.09883801266551" lon="-5.214179959148169">
        <ele>1413.76</ele>
        <time>2025-04-29T10:22:19Z</time>
      </trkpt>
      <trkpt lat="43.098894003778696" lon="-5.214046016335487">
        <ele>1412.79</ele>
        <time>2025-04-29T10:22:20Z</time>
      </trkpt>
      <trkpt lat="43.098947983235121" lon="-5.213916013017297">
        <ele>1411.8299999999999</ele>
        <time>2025-04-29T10:22:21Z</time>
      </trkpt>
      <trkpt lat="43.099087039008737" lon="-5.213720966130495">
        <ele>1409.4300000000001</ele>
        <time>2025-04-29T10:22:23Z</time>
      </trkpt>
      <trkpt lat="43.099174965173006" lon="-5.213707974180579">
        <ele>1408.47</ele>
        <time>2025-04-29T10:22:24Z</time>
      </trkpt>
      <trkpt lat="43.099236991256475" lon="-5.213699005544186">
        <ele>1407.03</ele>
        <time>2025-04-29T10:22:25Z</time>
      </trkpt>
      <trkpt lat="43.099341010674834" lon="-5.213705962523818">
        <ele>1405.5799999999999</ele>
        <time>2025-04-29T10:22:26Z</time>
      </trkpt>
      <trkpt lat="43.099448969587684" lon="-5.213713003322482">
        <ele>1404.6199999999999</ele>
        <time>2025-04-29T10:22:27Z</time>
      </trkpt>
      <trkpt lat="43.099625995382667" lon="-5.213753990828991">
        <ele>1402.22</ele>
        <time>2025-04-29T10:22:29Z</time>
      </trkpt>
      <trkpt lat="43.099688021466136" lon="-5.213785003870726">
        <ele>1401.26</ele>
        <time>2025-04-29T10:22:30Z</time>
      </trkpt>
      <trkpt lat="43.099715011194348" lon="-5.21383898332715">
        <ele>1400.3</ele>
        <time>2025-04-29T10:22:31Z</time>
      </trkpt>
      <trkpt lat="43.09976396150887" lon="-5.213937973603606">
        <ele>1398.8599999999999</ele>
        <time>2025-04-29T10:22:32Z</time>
      </trkpt>
      <trkpt lat="43.099820036441088" lon="-5.214050961658359">
        <ele>1397.8900000000001</ele>
        <time>2025-04-29T10:22:33Z</time>
      </trkpt>
      <trkpt lat="43.100098986178637" lon="-5.214582039043307">
        <ele>1395.49</ele>
        <time>2025-04-29T10:22:37Z</time>
      </trkpt>
      <trkpt lat="43.100183978676796" lon="-5.214702989906073">
        <ele>1395.01</ele>
        <time>2025-04-29T10:22:38Z</time>
      </trkpt>
      <trkpt lat="43.100237036123872" lon="-5.214844979345799">
        <ele>1395.01</ele>
        <time>2025-04-29T10:22:39Z</time>
      </trkpt>
      <trkpt lat="43.100289003923535" lon="-5.215017981827259">
        <ele>1394.53</ele>
        <time>2025-04-29T10:22:40Z</time>
      </trkpt>
      <trkpt lat="43.100337032228708" lon="-5.215189978480339">
        <ele>1394.05</ele>
        <time>2025-04-29T10:22:41Z</time>
      </trkpt>
      <trkpt lat="43.100393023341894" lon="-5.215518968179822">
        <ele>1392.6099999999999</ele>
        <time>2025-04-29T10:22:43Z</time>
      </trkpt>
      <trkpt lat="43.100418001413345" lon="-5.215669004246593">
        <ele>1390.2</ele>
        <time>2025-04-29T10:22:44Z</time>
      </trkpt>
      <trkpt lat="43.100441973656416" lon="-5.215806970372796">
        <ele>1388.28</ele>
        <time>2025-04-29T10:22:45Z</time>
      </trkpt>
      <trkpt lat="43.100465023890138" lon="-5.215940997004509">
        <ele>1387.3199999999999</ele>
        <time>2025-04-29T10:22:46Z</time>
      </trkpt>
      <trkpt lat="43.100488996133208" lon="-5.216063959524036">
        <ele>1386.3599999999999</ele>
        <time>2025-04-29T10:22:47Z</time>
      </trkpt>
      <trkpt lat="43.100595027208328" lon="-5.216357996687293">
        <ele>1382.99</ele>
        <time>2025-04-29T10:22:51Z</time>
      </trkpt>
      <trkpt lat="43.100653029978275" lon="-5.216446006670594">
        <ele>1382.03</ele>
        <time>2025-04-29T10:22:52Z</time>
      </trkpt>
      <trkpt lat="43.100660992786288" lon="-5.216448018327355">
        <ele>1380.1099999999999</ele>
        <time>2025-04-29T10:22:53Z</time>
      </trkpt>
      <trkpt lat="43.100759983062744" lon="-5.216466961428523">
        <ele>1379.1500000000001</ele>
        <time>2025-04-29T10:22:54Z</time>
      </trkpt>
      <trkpt lat="43.100790996104479" lon="-5.216452041640878">
        <ele>1378.1900000000001</ele>
        <time>2025-04-29T10:22:55Z</time>
      </trkpt>
      <trkpt lat="43.100840030238032" lon="-5.216427985578775">
        <ele>1377.23</ele>
        <time>2025-04-29T10:22:56Z</time>
      </trkpt>
      <trkpt lat="43.101203972473741" lon="-5.216246014460921">
        <ele>1370.98</ele>
        <time>2025-04-29T10:23:03Z</time>
      </trkpt>
      <trkpt lat="43.101252000778913" lon="-5.216231010854244">
        <ele>1369.54</ele>
        <time>2025-04-29T10:23:04Z</time>
      </trkpt>
      <trkpt lat="43.101307991892099" lon="-5.216228999197483">
        <ele>1368.5699999999999</ele>
        <time>2025-04-29T10:23:05Z</time>
      </trkpt>
      <trkpt lat="43.101359037682414" lon="-5.216227993369103">
        <ele>1367.6099999999999</ele>
        <time>2025-04-29T10:23:06Z</time>
      </trkpt>
      <trkpt lat="43.101400025188923" lon="-5.216226987540722">
        <ele>1366.6500000000001</ele>
        <time>2025-04-29T10:23:07Z</time>
      </trkpt>
      <trkpt lat="43.101427014917135" lon="-5.216225981712341">
        <ele>1365.6900000000001</ele>
        <time>2025-04-29T10:23:08Z</time>
      </trkpt>
      <trkpt lat="43.101448975503445" lon="-5.216225981712341">
        <ele>1364.73</ele>
        <time>2025-04-29T10:23:09Z</time>
      </trkpt>
      <trkpt lat="43.101474959403276" lon="-5.216224975883961">
        <ele>1363.77</ele>
        <time>2025-04-29T10:23:10Z</time>
      </trkpt>
      <trkpt lat="43.101514019072056" lon="-5.21622397005558">
        <ele>1362.8099999999999</ele>
        <time>2025-04-29T10:23:11Z</time>
      </trkpt>
      <trkpt lat="43.101643016561866" lon="-5.21622003056109">
        <ele>1361.8399999999999</ele>
        <time>2025-04-29T10:23:13Z</time>
      </trkpt>
      <trkpt lat="43.101822976022959" lon="-5.216216007247567">
        <ele>1359.9200000000001</ele>
        <time>2025-04-29T10:23:15Z</time>
      </trkpt>
      <trkpt lat="43.101926995441318" lon="-5.216212989762425">
        <ele>1358.96</ele>
        <time>2025-04-29T10:23:16Z</time>
      </trkpt>
      <trkpt lat="43.102030009031296" lon="-5.216211983934045">
        <ele>1358.48</ele>
        <time>2025-04-29T10:23:17Z</time>
      </trkpt>
      <trkpt lat="43.10277096927166" lon="-5.216553965583444">
        <ele>1352.71</ele>
        <time>2025-04-29T10:23:23Z</time>
      </trkpt>
      <trkpt lat="43.102884041145444" lon="-5.216620014980435">
        <ele>1351.75</ele>
        <time>2025-04-29T10:23:24Z</time>
      </trkpt>
      <trkpt lat="43.103013960644603" lon="-5.216768039390445">
        <ele>1350.79</ele>
        <time>2025-04-29T10:23:25Z</time>
      </trkpt>
      <trkpt lat="43.103042040020227" lon="-5.216837022453547">
        <ele>1349.8299999999999</ele>
        <time>2025-04-29T10:23:26Z</time>
      </trkpt>
      <trkpt lat="43.103086967021227" lon="-5.216942969709635">
        <ele>1348.8699999999999</ele>
        <time>2025-04-29T10:23:27Z</time>
      </trkpt>
      <trkpt lat="43.103123009204865" lon="-5.217029973864555">
        <ele>1348.3900000000001</ele>
        <time>2025-04-29T10:23:28Z</time>
      </trkpt>
      <trkpt lat="43.10315502807498" lon="-5.217107003554702">
        <ele>1347.4300000000001</ele>
        <time>2025-04-29T10:23:29Z</time>
      </trkpt>
      <trkpt lat="43.103186041116714" lon="-5.217181015759707">
        <ele>1346.9400000000001</ele>
        <time>2025-04-29T10:23:30Z</time>
      </trkpt>
      <trkpt lat="43.103213030844927" lon="-5.217245975509286">
        <ele>1345.98</ele>
        <time>2025-04-29T10:23:31Z</time>
      </trkpt>
      <trkpt lat="43.103228034451604" lon="-5.217283023521304">
        <ele>1345.5</ele>
        <time>2025-04-29T10:23:32Z</time>
      </trkpt>
      <trkpt lat="43.103259969502687" lon="-5.217298027127981">
        <ele>1344.54</ele>
        <time>2025-04-29T10:23:33Z</time>
      </trkpt>
      <trkpt lat="43.103722985833883" lon="-5.217514028772712">
        <ele>1339.25</ele>
        <time>2025-04-29T10:23:41Z</time>
      </trkpt>
      <trkpt lat="43.103818036615849" lon="-5.217558033764362">
        <ele>1338.29</ele>
        <time>2025-04-29T10:23:42Z</time>
      </trkpt>
      <trkpt lat="43.103927001357079" lon="-5.217596003785729">
        <ele>1337.8099999999999</ele>
        <time>2025-04-29T10:23:43Z</time>
      </trkpt>
      <trkpt lat="43.104262026026845" lon="-5.217675967141986">
        <ele>1334.9300000000001</ele>
        <time>2025-04-29T10:23:46Z</time>
      </trkpt>
      <trkpt lat="43.104368979111314" lon="-5.217634979635477">
        <ele>1333.97</ele>
        <time>2025-04-29T10:23:47Z</time>
      </trkpt>
      <trkpt lat="43.10444500297308" lon="-5.217543030157685">
        <ele>1333.49</ele>
        <time>2025-04-29T10:23:48Z</time>
      </trkpt>
      <trkpt lat="43.104592021554708" lon="-5.217367010191083">
        <ele>1331.5599999999999</ele>
        <time>2025-04-29T10:23:50Z</time>
      </trkpt>
      <trkpt lat="43.104646001011133" lon="-5.217304984107614">
        <ele>1330.5999999999999</ele>
        <time>2025-04-29T10:23:51Z</time>
      </trkpt>
      <trkpt lat="43.10472596436739" lon="-5.21733901463449">
        <ele>1330.1199999999999</ele>
        <time>2025-04-29T10:23:52Z</time>
      </trkpt>
      <trkpt lat="43.104796959087253" lon="-5.217386037111282">
        <ele>1328.6800000000001</ele>
        <time>2025-04-29T10:23:53Z</time>
      </trkpt>
      <trkpt lat="43.10481196269393" lon="-5.217489972710609">
        <ele>1327.72</ele>
        <time>2025-04-29T10:23:54Z</time>
      </trkpt>
      <trkpt lat="43.104783967137337" lon="-5.217592986300588">
        <ele>1326.76</ele>
        <time>2025-04-29T10:23:55Z</time>
      </trkpt>
      <trkpt lat="43.104735016822815" lon="-5.217679990455508">
        <ele>1325.8</ele>
        <time>2025-04-29T10:23:56Z</time>
      </trkpt>
      <trkpt lat="43.104649018496275" lon="-5.217735981568694">
        <ele>1324.8299999999999</ele>
        <time>2025-04-29T10:23:57Z</time>
      </trkpt>
      <trkpt lat="43.104556985199451" lon="-5.217795995995402">
        <ele>1323.3900000000001</ele>
        <time>2025-04-29T10:23:58Z</time>
      </trkpt>
      <trkpt lat="43.10446796938777" lon="-5.217853998765349">
        <ele>1321.95</ele>
        <time>2025-04-29T10:23:59Z</time>
      </trkpt>
      <trkpt lat="43.104376019909978" lon="-5.217914013192058">
        <ele>1320.99</ele>
        <time>2025-04-29T10:24:00Z</time>
      </trkpt>
      <trkpt lat="43.10427300632" lon="-5.217980984598398">
        <ele>1319.55</ele>
        <time>2025-04-29T10:24:01Z</time>
      </trkpt>
      <trkpt lat="43.104130011051893" lon="-5.217990959063172">
        <ele>1318.5899999999999</ele>
        <time>2025-04-29T10:24:02Z</time>
      </trkpt>
      <trkpt lat="43.104004031047225" lon="-5.217990959063172">
        <ele>1317.1400000000001</ele>
        <time>2025-04-29T10:24:03Z</time>
      </trkpt>
      <trkpt lat="43.103877967223525" lon="-5.217929016798735">
        <ele>1316.1800000000001</ele>
        <time>2025-04-29T10:24:04Z</time>
      </trkpt>
      <trkpt lat="43.103771014139056" lon="-5.217863973230124">
        <ele>1315.22</ele>
        <time>2025-04-29T10:24:05Z</time>
      </trkpt>
      <trkpt lat="43.1036720238626" lon="-5.217803036794066">
        <ele>1314.74</ele>
        <time>2025-04-29T10:24:06Z</time>
      </trkpt>
      <trkpt lat="43.103592982515693" lon="-5.217755008488894">
        <ele>1313.3</ele>
        <time>2025-04-29T10:24:07Z</time>
      </trkpt>
      <trkpt lat="43.103494998067617" lon="-5.217755008488894">
        <ele>1312.3399999999999</ele>
        <time>2025-04-29T10:24:08Z</time>
      </trkpt>
      <trkpt lat="43.103439006954432" lon="-5.217802030965686">
        <ele>1311.8599999999999</ele>
        <time>2025-04-29T10:24:09Z</time>
      </trkpt>
      <trkpt lat="43.103420985862613" lon="-5.217867996543646">
        <ele>1310.9000000000001</ele>
        <time>2025-04-29T10:24:10Z</time>
      </trkpt>
      <trkpt lat="43.103420985862613" lon="-5.217947959899902">
        <ele>1309.9300000000001</ele>
        <time>2025-04-29T10:24:11Z</time>
      </trkpt>
      <trkpt lat="43.103446969762444" lon="-5.217992970719934">
        <ele>1309.45</ele>
        <time>2025-04-29T10:24:12Z</time>
      </trkpt>
      <trkpt lat="43.10347999446094" lon="-5.218050973489881">
        <ele>1308.97</ele>
        <time>2025-04-29T10:24:13Z</time>
      </trkpt>
      <trkpt lat="43.103506984189153" lon="-5.218097995966673">
        <ele>1308.01</ele>
        <time>2025-04-29T10:24:14Z</time>
      </trkpt>
      <trkpt lat="43.1035459600389" lon="-5.218110987916589">
        <ele>1307.53</ele>
        <time>2025-04-29T10:24:15Z</time>
      </trkpt>
      <trkpt lat="43.103601029142737" lon="-5.218129009008408">
        <ele>1307.05</ele>
        <time>2025-04-29T10:24:16Z</time>
      </trkpt>
      <trkpt lat="43.103666994720697" lon="-5.218151975423098">
        <ele>1306.5699999999999</ele>
        <time>2025-04-29T10:24:17Z</time>
      </trkpt>
      <trkpt lat="43.103747041895986" lon="-5.218177959322929">
        <ele>1306.0899999999999</ele>
        <time>2025-04-29T10:24:18Z</time>
      </trkpt>
      <trkpt lat="43.104448020458221" lon="-5.218368982896209">
        <ele>1301.76</ele>
        <time>2025-04-29T10:24:24Z</time>
      </trkpt>
      <trkpt lat="43.104557991027832" lon="-5.218377029523253">
        <ele>1300.3199999999999</ele>
        <time>2025-04-29T10:24:25Z</time>
      </trkpt>
      <trkpt lat="43.104711966589093" lon="-5.218301005661488">
        <ele>1299.3599999999999</ele>
        <time>2025-04-29T10:24:26Z</time>
      </trkpt>
      <trkpt lat="43.104807017371058" lon="-5.218226993456483">
        <ele>1298.4000000000001</ele>
        <time>2025-04-29T10:24:27Z</time>
      </trkpt>
      <trkpt lat="43.104888992384076" lon="-5.218122974038124">
        <ele>1296.96</ele>
        <time>2025-04-29T10:24:28Z</time>
      </trkpt>
      <trkpt lat="43.104974990710616" lon="-5.218014009296894">
        <ele>1295.51</ele>
        <time>2025-04-29T10:24:29Z</time>
      </trkpt>
      <trkpt lat="43.105058977380395" lon="-5.217907978221774">
        <ele>1294.0699999999999</ele>
        <time>2025-04-29T10:24:30Z</time>
      </trkpt>
      <trkpt lat="43.105151010677218" lon="-5.217861961573362">
        <ele>1293.1099999999999</ele>
        <time>2025-04-29T10:24:31Z</time>
      </trkpt>
      <trkpt lat="43.105228962376714" lon="-5.217861961573362">
        <ele>1292.1500000000001</ele>
        <time>2025-04-29T10:24:32Z</time>
      </trkpt>
      <trkpt lat="43.105284031480551" lon="-5.217939997091889">
        <ele>1290.71</ele>
        <time>2025-04-29T10:24:33Z</time>
      </trkpt>
      <trkpt lat="43.105330970138311" lon="-5.218039993196726">
        <ele>1289.75</ele>
        <time>2025-04-29T10:24:34Z</time>
      </trkpt>
      <trkpt lat="43.105319989845157" lon="-5.218177959322929">
        <ele>1288.78</ele>
        <time>2025-04-29T10:24:35Z</time>
      </trkpt>
      <trkpt lat="43.105257041752338" lon="-5.218265969306231">
        <ele>1288.78</ele>
        <time>2025-04-29T10:24:36Z</time>
      </trkpt>
      <trkpt lat="43.105171965435147" lon="-5.218353979289532">
        <ele>1288.3</ele>
        <time>2025-04-29T10:24:37Z</time>
      </trkpt>
      <trkpt lat="43.105070041492581" lon="-5.21843696013093">
        <ele>1287.8199999999999</ele>
        <time>2025-04-29T10:24:38Z</time>
      </trkpt>
      <trkpt lat="43.104593027383089" lon="-5.218793023377657">
        <ele>1284.9400000000001</ele>
        <time>2025-04-29T10:24:42Z</time>
      </trkpt>
      <trkpt lat="43.104454977437854" lon="-5.218847002834082">
        <ele>1284.46</ele>
        <time>2025-04-29T10:24:43Z</time>
      </trkpt>
      <trkpt lat="43.104324974119663" lon="-5.218881033360958">
        <ele>1283.98</ele>
        <time>2025-04-29T10:24:44Z</time>
      </trkpt>
      <trkpt lat="43.104193964973092" lon="-5.218913974240422">
        <ele>1283.02</ele>
        <time>2025-04-29T10:24:45Z</time>
      </trkpt>
      <trkpt lat="43.104051975533366" lon="-5.218895031139255">
        <ele>1281.5699999999999</ele>
        <time>2025-04-29T10:24:46Z</time>
      </trkpt>
      <trkpt lat="43.103916021063924" lon="-5.218877010047436">
        <ele>1280.1300000000001</ele>
        <time>2025-04-29T10:24:47Z</time>
      </trkpt>
      <trkpt lat="43.103786017745733" lon="-5.218830993399024">
        <ele>1278.6900000000001</ele>
        <time>2025-04-29T10:24:48Z</time>
      </trkpt>
      <trkpt lat="43.103649979457259" lon="-5.218768967315555">
        <ele>1276.77</ele>
        <time>2025-04-29T10:24:49Z</time>
      </trkpt>
      <trkpt lat="43.103513019159436" lon="-5.218706019222736">
        <ele>1274.8499999999999</ele>
        <time>2025-04-29T10:24:50Z</time>
      </trkpt>
      <trkpt lat="43.103381004184484" lon="-5.218646004796028">
        <ele>1272.4400000000001</ele>
        <time>2025-04-29T10:24:51Z</time>
      </trkpt>
      <trkpt lat="43.103252006694674" lon="-5.218603005632758">
        <ele>1271</ele>
        <time>2025-04-29T10:24:52Z</time>
      </trkpt>
      <trkpt lat="43.103125020861626" lon="-5.218565035611391">
        <ele>1269.0799999999999</ele>
        <time>2025-04-29T10:24:53Z</time>
      </trkpt>
      <trkpt lat="43.103000968694687" lon="-5.218527987599373">
        <ele>1267.6400000000001</ele>
        <time>2025-04-29T10:24:54Z</time>
      </trkpt>
      <trkpt lat="43.102880017831922" lon="-5.218492029234767">
        <ele>1266.1900000000001</ele>
        <time>2025-04-29T10:24:55Z</time>
      </trkpt>
      <trkpt lat="43.102712966501713" lon="-5.218441989272833">
        <ele>1264.27</ele>
        <time>2025-04-29T10:24:57Z</time>
      </trkpt>
      <trkpt lat="43.102610958740115" lon="-5.218492029234767">
        <ele>1262.8299999999999</ele>
        <time>2025-04-29T10:24:58Z</time>
      </trkpt>
      <trkpt lat="43.102540969848633" lon="-5.218526981770992">
        <ele>1261.8699999999999</ele>
        <time>2025-04-29T10:24:59Z</time>
      </trkpt>
      <trkpt lat="43.102540969848633" lon="-5.218635024502873">
        <ele>1260.4300000000001</ele>
        <time>2025-04-29T10:25:00Z</time>
      </trkpt>
      <trkpt lat="43.102542981505394" lon="-5.218785982578993">
        <ele>1258.5</ele>
        <time>2025-04-29T10:25:01Z</time>
      </trkpt>
      <trkpt lat="43.102639960125089" lon="-5.218870975077152">
        <ele>1256.0999999999999</ele>
        <time>2025-04-29T10:25:02Z</time>
      </trkpt>
      <trkpt lat="43.10277096927166" lon="-5.218935012817383">
        <ele>1254.1800000000001</ele>
        <time>2025-04-29T10:25:03Z</time>
      </trkpt>
      <trkpt lat="43.102908013388515" lon="-5.218935012817383">
        <ele>1252.74</ele>
        <time>2025-04-29T10:25:04Z</time>
      </trkpt>
      <trkpt lat="43.103053020313382" lon="-5.218935012817383">
        <ele>1250.8099999999999</ele>
        <time>2025-04-29T10:25:05Z</time>
      </trkpt>
      <trkpt lat="43.103185035288334" lon="-5.218955967575312">
        <ele>1248.8900000000001</ele>
        <time>2025-04-29T10:25:06Z</time>
      </trkpt>
      <trkpt lat="43.103309003636241" lon="-5.218997960910201">
        <ele>1246.97</ele>
        <time>2025-04-29T10:25:07Z</time>
      </trkpt>
      <trkpt lat="43.103441018611193" lon="-5.219107009470463">
        <ele>1244.5599999999999</ele>
        <time>2025-04-29T10:25:08Z</time>
      </trkpt>
      <trkpt lat="43.103592982515693" lon="-5.219235001131892">
        <ele>1241.6800000000001</ele>
        <time>2025-04-29T10:25:09Z</time>
      </trkpt>
      <trkpt lat="43.103740001097322" lon="-5.219318987801671">
        <ele>1238.3199999999999</ele>
        <time>2025-04-29T10:25:10Z</time>
      </trkpt>
      <trkpt lat="43.103897999972105" lon="-5.219410015270114">
        <ele>1235.4300000000001</ele>
        <time>2025-04-29T10:25:11Z</time>
      </trkpt>
      <trkpt lat="43.10433897189796" lon="-5.21961503662169">
        <ele>1224.3800000000001</ele>
        <time>2025-04-29T10:25:14Z</time>
      </trkpt>
      <trkpt lat="43.104481967166066" lon="-5.219650994986296">
        <ele>1220.53</ele>
        <time>2025-04-29T10:25:15Z</time>
      </trkpt>
      <trkpt lat="43.104773992672563" lon="-5.219625011086464">
        <ele>1213.3199999999999</ele>
        <time>2025-04-29T10:25:17Z</time>
      </trkpt>
      <trkpt lat="43.104922017082572" lon="-5.219601038843393">
        <ele>1209</ele>
        <time>2025-04-29T10:25:18Z</time>
      </trkpt>
      <trkpt lat="43.105055037885904" lon="-5.219544041901827">
        <ele>1205.1500000000001</ele>
        <time>2025-04-29T10:25:19Z</time>
      </trkpt>
      <trkpt lat="43.105846038088202" lon="-5.219299960881472">
        <ele>1182.5599999999999</ele>
        <time>2025-04-29T10:25:24Z</time>
      </trkpt>
      <trkpt lat="43.10594704002142" lon="-5.219238018617034">
        <ele>1178.23</ele>
        <time>2025-04-29T10:25:25Z</time>
      </trkpt>
      <trkpt lat="43.106049969792366" lon="-5.219173980876803">
        <ele>1174.3900000000001</ele>
        <time>2025-04-29T10:25:26Z</time>
      </trkpt>
      <trkpt lat="43.106151977553964" lon="-5.219141962006688">
        <ele>1170.54</ele>
        <time>2025-04-29T10:25:27Z</time>
      </trkpt>
      <trkpt lat="43.106217021122575" lon="-5.219190996140242">
        <ele>1166.22</ele>
        <time>2025-04-29T10:25:28Z</time>
      </trkpt>
      <trkpt lat="43.106238981708884" lon="-5.219256961718202">
        <ele>1162.3699999999999</ele>
        <time>2025-04-29T10:25:29Z</time>
      </trkpt>
      <trkpt lat="43.106275023892522" lon="-5.219363998621702">
        <ele>1158.53</ele>
        <time>2025-04-29T10:25:30Z</time>
      </trkpt>
      <trkpt lat="43.106240993365645" lon="-5.219431975856423">
        <ele>1155.1600000000001</ele>
        <time>2025-04-29T10:25:31Z</time>
      </trkpt>
      <trkpt lat="43.106111995875835" lon="-5.219506993889809">
        <ele>1151.8</ele>
        <time>2025-04-29T10:25:32Z</time>
      </trkpt>
      <trkpt lat="43.10599397867918" lon="-5.219525014981628">
        <ele>1148.9100000000001</ele>
        <time>2025-04-29T10:25:33Z</time>
      </trkpt>
      <trkpt lat="43.105858024209738" lon="-5.219544963911176">
        <ele>1145.55</ele>
        <time>2025-04-29T10:25:34Z</time>
      </trkpt>
      <trkpt lat="43.105702036991715" lon="-5.219332985579968">
        <ele>1142.1800000000001</ele>
        <time>2025-04-29T10:25:35Z</time>
      </trkpt>
      <trkpt lat="43.105572033673525" lon="-5.219361986964941">
        <ele>1139.3</ele>
        <time>2025-04-29T10:25:36Z</time>
      </trkpt>
      <trkpt lat="43.105438007041812" lon="-5.219391994178295">
        <ele>1135.9400000000001</ele>
        <time>2025-04-29T10:25:37Z</time>
      </trkpt>
      <trkpt lat="43.105311021208763" lon="-5.219433987513185">
        <ele>1132.5699999999999</ele>
        <time>2025-04-29T10:25:38Z</time>
      </trkpt>
      <trkpt lat="43.105267016217113" lon="-5.219772029668093">
        <ele>1129.6900000000001</ele>
        <time>2025-04-29T10:25:39Z</time>
      </trkpt>
      <trkpt lat="43.105247989296913" lon="-5.219802036881447">
        <ele>1126.8</ele>
        <time>2025-04-29T10:25:40Z</time>
      </trkpt>
      <trkpt lat="43.105179006233811" lon="-5.219912007451057">
        <ele>1123.9200000000001</ele>
        <time>2025-04-29T10:25:41Z</time>
      </trkpt>
      <trkpt lat="43.105117985978723" lon="-5.220009991899133">
        <ele>1121.52</ele>
        <time>2025-04-29T10:25:42Z</time>
      </trkpt>
      <trkpt lat="43.104942971840501" lon="-5.220154998824">
        <ele>1118.6300000000001</ele>
        <time>2025-04-29T10:25:43Z</time>
      </trkpt>
      <trkpt lat="43.104805005714297" lon="-5.220204032957554">
        <ele>1116.23</ele>
        <time>2025-04-29T10:25:44Z</time>
      </trkpt>
      <trkpt lat="43.104093968868256" lon="-5.220349039882422">
        <ele>1103.73</ele>
        <time>2025-04-29T10:25:49Z</time>
      </trkpt>
      <trkpt lat="43.103968994691968" lon="-5.220360020175576">
        <ele>1101.3299999999999</ele>
        <time>2025-04-29T10:25:50Z</time>
      </trkpt>
      <trkpt lat="43.103852989152074" lon="-5.220371000468731">
        <ele>1099.4000000000001</ele>
        <time>2025-04-29T10:25:51Z</time>
      </trkpt>
      <trkpt lat="43.103787023574114" lon="-5.220392039045692">
        <ele>1097</ele>
        <time>2025-04-29T10:25:52Z</time>
      </trkpt>
      <trkpt lat="43.103691972792149" lon="-5.220436966046691">
        <ele>1094.5999999999999</ele>
        <time>2025-04-29T10:25:53Z</time>
      </trkpt>
      <trkpt lat="43.103600023314357" lon="-5.220479965209961">
        <ele>1092.2</ele>
        <time>2025-04-29T10:25:54Z</time>
      </trkpt>
      <trkpt lat="43.103487035259604" lon="-5.220525981858373">
        <ele>1090.27</ele>
        <time>2025-04-29T10:25:55Z</time>
      </trkpt>
      <trkpt lat="43.103378992527723" lon="-5.220544002950192">
        <ele>1087.8699999999999</ele>
        <time>2025-04-29T10:25:56Z</time>
      </trkpt>
      <trkpt lat="43.102510962635279" lon="-5.220568981021643">
        <ele>1074.4100000000001</ele>
        <time>2025-04-29T10:26:02Z</time>
      </trkpt>
      <trkpt lat="43.102352963760495" lon="-5.220550037920475">
        <ele>1072.49</ele>
        <time>2025-04-29T10:26:03Z</time>
      </trkpt>
      <trkpt lat="43.102178033441305" lon="-5.22047602571547">
        <ele>1070.5699999999999</ele>
        <time>2025-04-29T10:26:04Z</time>
      </trkpt>
      <trkpt lat="43.102035038173199" lon="-5.220400001853705">
        <ele>1068.1600000000001</ele>
        <time>2025-04-29T10:26:05Z</time>
      </trkpt>
      <trkpt lat="43.101758016273379" lon="-5.220250971615315">
        <ele>1063.3599999999999</ele>
        <time>2025-04-29T10:26:07Z</time>
      </trkpt>
      <trkpt lat="43.101704958826303" lon="-5.220222976058722">
        <ele>1060.47</ele>
        <time>2025-04-29T10:26:08Z</time>
      </trkpt>
      <trkpt lat="43.101571016013622" lon="-5.22026002407074">
        <ele>1058.0699999999999</ele>
        <time>2025-04-29T10:26:09Z</time>
      </trkpt>
      <trkpt lat="43.101450987160206" lon="-5.220293970778585">
        <ele>1056.1500000000001</ele>
        <time>2025-04-29T10:26:10Z</time>
      </trkpt>
      <trkpt lat="43.101320983842015" lon="-5.220331018790603">
        <ele>1053.74</ele>
        <time>2025-04-29T10:26:11Z</time>
      </trkpt>
      <trkpt lat="43.101178994402289" lon="-5.220371000468731">
        <ele>1051.8199999999999</ele>
        <time>2025-04-29T10:26:12Z</time>
      </trkpt>
      <trkpt lat="43.101041028276086" lon="-5.220409976318479">
        <ele>1049.9000000000001</ele>
        <time>2025-04-29T10:26:13Z</time>
      </trkpt>
      <trkpt lat="43.100912030786276" lon="-5.220446018502116">
        <ele>1047.97</ele>
        <time>2025-04-29T10:26:14Z</time>
      </trkpt>
      <trkpt lat="43.100717989727855" lon="-5.220501003786922">
        <ele>1046.53</ele>
        <time>2025-04-29T10:26:15Z</time>
      </trkpt>
      <trkpt lat="43.100648000836372" lon="-5.220460016280413">
        <ele>1044.6099999999999</ele>
        <time>2025-04-29T10:26:16Z</time>
      </trkpt>
      <trkpt lat="43.100553033873439" lon="-5.220403019338846">
        <ele>1043.1700000000001</ele>
        <time>2025-04-29T10:26:17Z</time>
      </trkpt>
      <trkpt lat="43.100476004183292" lon="-5.220236973837018">
        <ele>1041.73</ele>
        <time>2025-04-29T10:26:18Z</time>
      </trkpt>
      <trkpt lat="43.10044901445508" lon="-5.220101019367576">
        <ele>1039.8</ele>
        <time>2025-04-29T10:26:19Z</time>
      </trkpt>
      <trkpt lat="43.100420013070107" lon="-5.21996003575623">
        <ele>1037.4000000000001</ele>
        <time>2025-04-29T10:26:20Z</time>
      </trkpt>
      <trkpt lat="43.100416995584965" lon="-5.219944026321173">
        <ele>1035</ele>
        <time>2025-04-29T10:26:21Z</time>
      </trkpt>
      <trkpt lat="43.100416995584965" lon="-5.219944026321173">
        <ele>1032.5899999999999</ele>
        <time>2025-04-29T10:26:22Z</time>
      </trkpt>
      <trkpt lat="43.100267965346575" lon="-5.219813017174602">
        <ele>1030.1900000000001</ele>
        <time>2025-04-29T10:26:23Z</time>
      </trkpt>
      <trkpt lat="43.100246004760265" lon="-5.219792984426022">
        <ele>1027.3099999999999</ele>
        <time>2025-04-29T10:26:24Z</time>
      </trkpt>
      <trkpt lat="43.10023401863873" lon="-5.219802036881447">
        <ele>1024.9000000000001</ele>
        <time>2025-04-29T10:26:25Z</time>
      </trkpt>
      <trkpt lat="43.100180039182305" lon="-5.219840006902814">
        <ele>1022.02</ele>
        <time>2025-04-29T10:26:26Z</time>
      </trkpt>
      <trkpt lat="43.100094962865114" lon="-5.219903960824013">
        <ele>1019.13</ele>
        <time>2025-04-29T10:26:27Z</time>
      </trkpt>
      <trkpt lat="43.100093035027385" lon="-5.220190035179257">
        <ele>1016.25</ele>
        <time>2025-04-29T10:26:28Z</time>
      </trkpt>
      <trkpt lat="43.100168975070119" lon="-5.220310986042023">
        <ele>1013.37</ele>
        <time>2025-04-29T10:26:29Z</time>
      </trkpt>
      <trkpt lat="43.100386988371611" lon="-5.220613991841674">
        <ele>1008.08</ele>
        <time>2025-04-29T10:26:31Z</time>
      </trkpt>
      <trkpt lat="43.100645989179611" lon="-5.220459010452032">
        <ele>1005.2</ele>
        <time>2025-04-29T10:26:32Z</time>
      </trkpt>
      <trkpt lat="43.100717989727855" lon="-5.220501003786922">
        <ele>1002.3099999999999</ele>
        <time>2025-04-29T10:26:33Z</time>
      </trkpt>
      <trkpt lat="43.1008589733392" lon="-5.220462027937174">
        <ele>999.42999999999995</ele>
        <time>2025-04-29T10:26:34Z</time>
      </trkpt>
      <trkpt lat="43.100976990535855" lon="-5.220427997410297">
        <ele>996.05999999999995</ele>
        <time>2025-04-29T10:26:35Z</time>
      </trkpt>
      <trkpt lat="43.101091990247369" lon="-5.220395978540182">
        <ele>993.17999999999995</ele>
        <time>2025-04-29T10:26:36Z</time>
      </trkpt>
      <trkpt lat="43.101188968867064" lon="-5.220367982983589">
        <ele>990.29999999999995</ele>
        <time>2025-04-29T10:26:37Z</time>
      </trkpt>
      <trkpt lat="43.101256024092436" lon="-5.220889002084732">
        <ele>987.88999999999999</ele>
        <time>2025-04-29T10:26:38Z</time>
      </trkpt>
      <trkpt lat="43.101624995470047" lon="-5.221101986244321">
        <ele>981.63999999999999</ele>
        <time>2025-04-29T10:26:41Z</time>
      </trkpt>
      <trkpt lat="43.101735971868038" lon="-5.221101986244321">
        <ele>979.24000000000001</ele>
        <time>2025-04-29T10:26:42Z</time>
      </trkpt>
      <trkpt lat="43.101850971579552" lon="-5.221101986244321">
        <ele>976.84000000000003</ele>
        <time>2025-04-29T10:26:43Z</time>
      </trkpt>
      <trkpt lat="43.101973012089729" lon="-5.221101986244321">
        <ele>974.90999999999997</ele>
        <time>2025-04-29T10:26:44Z</time>
      </trkpt>
      <trkpt lat="43.102091029286385" lon="-5.221101986244321">
        <ele>972.50999999999999</ele>
        <time>2025-04-29T10:26:45Z</time>
      </trkpt>
      <trkpt lat="43.102200999855995" lon="-5.221126964315772">
        <ele>970.59000000000003</ele>
        <time>2025-04-29T10:26:46Z</time>
      </trkpt>
      <trkpt lat="43.102308958768845" lon="-5.221152026206255">
        <ele>968.66999999999996</ele>
        <time>2025-04-29T10:26:47Z</time>
      </trkpt>
      <trkpt lat="43.102495959028602" lon="-5.221195025369525">
        <ele>964.34000000000003</ele>
        <time>2025-04-29T10:26:49Z</time>
      </trkpt>
      <trkpt lat="43.102581035345793" lon="-5.221213968470693">
        <ele>962.41999999999996</ele>
        <time>2025-04-29T10:26:50Z</time>
      </trkpt>
      <trkpt lat="43.103036005049944" lon="-5.221353024244309">
        <ele>955.69000000000005</ele>
        <time>2025-04-29T10:26:54Z</time>
      </trkpt>
      <trkpt lat="43.103162990882993" lon="-5.221403986215591">
        <ele>954.25</ele>
        <time>2025-04-29T10:26:55Z</time>
      </trkpt>
      <trkpt lat="43.103295005857944" lon="-5.221457965672016">
        <ele>953.27999999999997</ele>
        <time>2025-04-29T10:26:56Z</time>
      </trkpt>
      <trkpt lat="43.104078965261579" lon="-5.22165996953845">
        <ele>946.55999999999995</ele>
        <time>2025-04-29T10:27:02Z</time>
      </trkpt>
      <trkpt lat="43.10423000715673" lon="-5.221629040315747">
        <ele>947.03999999999996</ele>
        <time>2025-04-29T10:27:03Z</time>
      </trkpt>
      <trkpt lat="43.104495964944363" lon="-5.221488978713751">
        <ele>945.59000000000003</ele>
        <time>2025-04-29T10:27:05Z</time>
      </trkpt>
      <trkpt lat="43.104657987132668" lon="-5.221471041440964">
        <ele>947.51999999999998</ele>
        <time>2025-04-29T10:27:06Z</time>
      </trkpt>
      <trkpt lat="43.104844987392426" lon="-5.221476992592216">
        <ele>950.88</ele>
        <time>2025-04-29T10:27:07Z</time>
      </trkpt>
      <trkpt lat="43.105152016505599" lon="-5.22148696705699">
        <ele>948.48000000000002</ele>
        <time>2025-04-29T10:27:09Z</time>
      </trkpt>
      <trkpt lat="43.105271039530635" lon="-5.22152703255415">
        <ele>947.03999999999996</ele>
        <time>2025-04-29T10:27:10Z</time>
      </trkpt>
      <trkpt lat="43.105371035635471" lon="-5.221598027274013">
        <ele>946.07000000000005</ele>
        <time>2025-04-29T10:27:11Z</time>
      </trkpt>
      <trkpt lat="43.105445969849825" lon="-5.221685031428933">
        <ele>945.11000000000001</ele>
        <time>2025-04-29T10:27:12Z</time>
      </trkpt>
      <trkpt lat="43.105534985661507" lon="-5.221787039190531">
        <ele>946.55999999999995</ele>
        <time>2025-04-29T10:27:13Z</time>
      </trkpt>
      <trkpt lat="43.105630958452821" lon="-5.221896003931761">
        <ele>947.51999999999998</ele>
        <time>2025-04-29T10:27:14Z</time>
      </trkpt>
      <trkpt lat="43.105732966214418" lon="-5.221954006701708">
        <ele>946.07000000000005</ele>
        <time>2025-04-29T10:27:15Z</time>
      </trkpt>
      <trkpt lat="43.105859030038118" lon="-5.221966998651624">
        <ele>944.63</ele>
        <time>2025-04-29T10:27:16Z</time>
      </trkpt>
      <trkpt lat="43.10599003918469" lon="-5.221942020580173">
        <ele>945.59000000000003</ele>
        <time>2025-04-29T10:27:17Z</time>
      </trkpt>
      <trkpt lat="43.106134962290525" lon="-5.221913019195199">
        <ele>946.55999999999995</ele>
        <time>2025-04-29T10:27:18Z</time>
      </trkpt>
      <trkpt lat="43.10644400306046" lon="-5.221853004768491">
        <ele>952.79999999999995</ele>
        <time>2025-04-29T10:27:20Z</time>
      </trkpt>
      <trkpt lat="43.106608958914876" lon="-5.22185199894011">
        <ele>955.21000000000004</ele>
        <time>2025-04-29T10:27:21Z</time>
      </trkpt>
      <trkpt lat="43.106768969446421" lon="-5.221912013366818">
        <ele>960.00999999999999</ele>
        <time>2025-04-29T10:27:22Z</time>
      </trkpt>
      <trkpt lat="43.106930991634727" lon="-5.221973033621907">
        <ele>963.86000000000001</ele>
        <time>2025-04-29T10:27:23Z</time>
      </trkpt>
      <trkpt lat="43.107091002166271" lon="-5.222032964229584">
        <ele>967.70000000000005</ele>
        <time>2025-04-29T10:27:24Z</time>
      </trkpt>
      <trkpt lat="43.107371963560581" lon="-5.222199009731412">
        <ele>966.25999999999999</ele>
        <time>2025-04-29T10:27:26Z</time>
      </trkpt>
      <trkpt lat="43.107497021555901" lon="-5.222303029149771">
        <ele>965.29999999999995</ele>
        <time>2025-04-29T10:27:27Z</time>
      </trkpt>
      <trkpt lat="43.107612021267414" lon="-5.222399001941085">
        <ele>964.34000000000003</ele>
        <time>2025-04-29T10:27:28Z</time>
      </trkpt>
      <trkpt lat="43.107724003493786" lon="-5.222492041066289">
        <ele>963.38</ele>
        <time>2025-04-29T10:27:29Z</time>
      </trkpt>
      <trkpt lat="43.107756022363901" lon="-5.222519030794501">
        <ele>963.38</ele>
        <time>2025-04-29T10:27:30Z</time>
      </trkpt>
      <trkpt lat="43.107950985431671" lon="-5.222519030794501">
        <ele>962.41999999999996</ele>
        <time>2025-04-29T10:27:31Z</time>
      </trkpt>
      <trkpt lat="43.108078977093101" lon="-5.222519030794501">
        <ele>960.98000000000002</ele>
        <time>2025-04-29T10:27:32Z</time>
      </trkpt>
      <trkpt lat="43.108209986239672" lon="-5.222519030794501">
        <ele>960.49000000000001</ele>
        <time>2025-04-29T10:27:33Z</time>
      </trkpt>
      <trkpt lat="43.10833596624434" lon="-5.222519030794501">
        <ele>959.52999999999997</ele>
        <time>2025-04-29T10:27:34Z</time>
      </trkpt>
      <trkpt lat="43.108357004821301" lon="-5.222519030794501">
        <ele>959.04999999999995</ele>
        <time>2025-04-29T10:27:35Z</time>
      </trkpt>
      <trkpt lat="43.108467981219292" lon="-5.222451975569129">
        <ele>959.04999999999995</ele>
        <time>2025-04-29T10:27:36Z</time>
      </trkpt>
      <trkpt lat="43.10857099480927" lon="-5.222390033304691">
        <ele>958.09000000000003</ele>
        <time>2025-04-29T10:27:37Z</time>
      </trkpt>
      <trkpt lat="43.108587004244328" lon="-5.22236698307097">
        <ele>958.57000000000005</ele>
        <time>2025-04-29T10:27:38Z</time>
      </trkpt>
      <trkpt lat="43.108655987307429" lon="-5.222264975309372">
        <ele>958.57000000000005</ele>
        <time>2025-04-29T10:27:39Z</time>
      </trkpt>
      <trkpt lat="43.108727987855673" lon="-5.222161039710045">
        <ele>957.61000000000001</ele>
        <time>2025-04-29T10:27:40Z</time>
      </trkpt>
      <trkpt lat="43.10885002836585" lon="-5.221982002258301">
        <ele>957.13</ele>
        <time>2025-04-29T10:27:41Z</time>
      </trkpt>
      <trkpt lat="43.108874000608921" lon="-5.22191695868969">
        <ele>956.64999999999998</ele>
        <time>2025-04-29T10:27:42Z</time>
      </trkpt>
      <trkpt lat="43.108930997550488" lon="-5.221758959814906">
        <ele>956.64999999999998</ele>
        <time>2025-04-29T10:27:43Z</time>
      </trkpt>
      <trkpt lat="43.10902202501893" lon="-5.221510017290711">
        <ele>956.64999999999998</ele>
        <time>2025-04-29T10:27:44Z</time>
      </trkpt>
      <trkpt lat="43.109073992818594" lon="-5.22144103422761">
        <ele>955.69000000000005</ele>
        <time>2025-04-29T10:27:45Z</time>
      </trkpt>
      <trkpt lat="43.109168959781528" lon="-5.221316982060671">
        <ele>955.21000000000004</ele>
        <time>2025-04-29T10:27:46Z</time>
      </trkpt>
      <trkpt lat="43.109358977526426" lon="-5.221039038151503">
        <ele>952.32000000000005</ele>
        <time>2025-04-29T10:27:48Z</time>
      </trkpt>
      <trkpt lat="43.109436007216573" lon="-5.220897970721126">
        <ele>950.88</ele>
        <time>2025-04-29T10:27:49Z</time>
      </trkpt>
      <trkpt lat="43.109539020806551" lon="-5.220707030966878">
        <ele>949.44000000000005</ele>
        <time>2025-04-29T10:27:50Z</time>
      </trkpt>
      <trkpt lat="43.109596017748117" lon="-5.220507038757205">
        <ele>948.48000000000002</ele>
        <time>2025-04-29T10:27:51Z</time>
      </trkpt>
      <trkpt lat="43.109625019133091" lon="-5.220403019338846">
        <ele>949.44000000000005</ele>
        <time>2025-04-29T10:27:52Z</time>
      </trkpt>
      <trkpt lat="43.109661983326077" lon="-5.220273016020656">
        <ele>949.44000000000005</ele>
        <time>2025-04-29T10:27:53Z</time>
      </trkpt>
      <trkpt lat="43.10971001163125" lon="-5.220104958862066">
        <ele>948.96000000000004</ele>
        <time>2025-04-29T10:27:54Z</time>
      </trkpt>
      <trkpt lat="43.10975301079452" lon="-5.219952994957566">
        <ele>947.03999999999996</ele>
        <time>2025-04-29T10:27:55Z</time>
      </trkpt>
      <trkpt lat="43.10985904186964" lon="-5.219578994438052">
        <ele>946.07000000000005</ele>
        <time>2025-04-29T10:27:56Z</time>
      </trkpt>
      <trkpt lat="43.109852001070976" lon="-5.219521997496486">
        <ele>945.11000000000001</ele>
        <time>2025-04-29T10:27:57Z</time>
      </trkpt>
      <trkpt lat="43.109830040484667" lon="-5.219345977529883">
        <ele>944.63</ele>
        <time>2025-04-29T10:27:58Z</time>
      </trkpt>
      <trkpt lat="43.109810007736087" lon="-5.219174986705184">
        <ele>943.66999999999996</ele>
        <time>2025-04-29T10:27:59Z</time>
      </trkpt>
      <trkpt lat="43.109797015786171" lon="-5.219069961458445">
        <ele>944.63</ele>
        <time>2025-04-29T10:28:00Z</time>
      </trkpt>
      <trkpt lat="43.109772959724069" lon="-5.218741977587342">
        <ele>945.59000000000003</ele>
        <time>2025-04-29T10:28:01Z</time>
      </trkpt>
      <trkpt lat="43.109772959724069" lon="-5.218741977587342">
        <ele>947.03999999999996</ele>
        <time>2025-04-29T10:28:02Z</time>
      </trkpt>
      <trkpt lat="43.109879996627569" lon="-5.218569980934262">
        <ele>948.96000000000004</ele>
        <time>2025-04-29T10:28:03Z</time>
      </trkpt>
      <trkpt lat="43.11011997051537" lon="-5.218469984829426">
        <ele>948.48000000000002</ele>
        <time>2025-04-29T10:28:05Z</time>
      </trkpt>
      <trkpt lat="43.110214015468955" lon="-5.218430003151298">
        <ele>947.51999999999998</ele>
        <time>2025-04-29T10:28:06Z</time>
      </trkpt>
      <trkpt lat="43.110316023230553" lon="-5.218388009816408">
        <ele>947.03999999999996</ele>
        <time>2025-04-29T10:28:07Z</time>
      </trkpt>
      <trkpt lat="43.110426999628544" lon="-5.218340987339616">
        <ele>947.51999999999998</ele>
        <time>2025-04-29T10:28:08Z</time>
      </trkpt>
      <trkpt lat="43.110597990453243" lon="-5.218311985954642">
        <ele>948</ele>
        <time>2025-04-29T10:28:09Z</time>
      </trkpt>
      <trkpt lat="43.110760012641549" lon="-5.218377029523253">
        <ele>948</ele>
        <time>2025-04-29T10:28:10Z</time>
      </trkpt>
      <trkpt lat="43.110838970169425" lon="-5.21845699287951">
        <ele>948.48000000000002</ele>
        <time>2025-04-29T10:28:11Z</time>
      </trkpt>
      <trkpt lat="43.111060000956059" lon="-5.218678023666143">
        <ele>948.96000000000004</ele>
        <time>2025-04-29T10:28:13Z</time>
      </trkpt>
      <trkpt lat="43.111147005110979" lon="-5.218835016712546">
        <ele>949.44000000000005</ele>
        <time>2025-04-29T10:28:14Z</time>
      </trkpt>
      <trkpt lat="43.111172989010811" lon="-5.218977006152272">
        <ele>948.96000000000004</ele>
        <time>2025-04-29T10:28:15Z</time>
      </trkpt>
      <trkpt lat="43.111176006495953" lon="-5.219180015847087">
        <ele>949.44000000000005</ele>
        <time>2025-04-29T10:28:16Z</time>
      </trkpt>
      <trkpt lat="43.111156979575753" lon="-5.219345977529883">
        <ele>949.44000000000005</ele>
        <time>2025-04-29T10:28:17Z</time>
      </trkpt>
      <trkpt lat="43.111137030646205" lon="-5.219521997496486">
        <ele>949.91999999999996</ele>
        <time>2025-04-29T10:28:18Z</time>
      </trkpt>
      <trkpt lat="43.111112974584103" lon="-5.219733975827694">
        <ele>949.91999999999996</ele>
        <time>2025-04-29T10:28:19Z</time>
      </trkpt>
      <trkpt lat="43.111089002341032" lon="-5.219946037977934">
        <ele>950.39999999999998</ele>
        <time>2025-04-29T10:28:20Z</time>
      </trkpt>
      <trkpt lat="43.111027982085943" lon="-5.220156004652381">
        <ele>951.36000000000001</ele>
        <time>2025-04-29T10:28:21Z</time>
      </trkpt>
      <trkpt lat="43.110953969880939" lon="-5.220360020175576">
        <ele>951.84000000000003</ele>
        <time>2025-04-29T10:28:22Z</time>
      </trkpt>
      <trkpt lat="43.110876018181443" lon="-5.220577027648687">
        <ele>951.84000000000003</ele>
        <time>2025-04-29T10:28:23Z</time>
      </trkpt>
      <trkpt lat="43.110798988491297" lon="-5.220791017636657">
        <ele>951.36000000000001</ele>
        <time>2025-04-29T10:28:24Z</time>
      </trkpt>
      <trkpt lat="43.11072195880115" lon="-5.221002995967865">
        <ele>951.84000000000003</ele>
        <time>2025-04-29T10:28:25Z</time>
      </trkpt>
      <trkpt lat="43.110646018758416" lon="-5.221212962642312">
        <ele>951.84000000000003</ele>
        <time>2025-04-29T10:28:26Z</time>
      </trkpt>
      <trkpt lat="43.110426999628544" lon="-5.221811011433601">
        <ele>952.79999999999995</ele>
        <time>2025-04-29T10:28:29Z</time>
      </trkpt>
      <trkpt lat="43.110328009352088" lon="-5.22198099642992">
        <ele>953.76999999999998</ele>
        <time>2025-04-29T10:28:30Z</time>
      </trkpt>
      <trkpt lat="43.110216027125716" lon="-5.222077975049615">
        <ele>954.25</ele>
        <time>2025-04-29T10:28:31Z</time>
      </trkpt>
      <trkpt lat="43.110111001878977" lon="-5.222166990861297">
        <ele>954.25</ele>
        <time>2025-04-29T10:28:32Z</time>
      </trkpt>
      <trkpt lat="43.110026009380817" lon="-5.222262963652611">
        <ele>953.27999999999997</ele>
        <time>2025-04-29T10:28:33Z</time>
      </trkpt>
      <trkpt lat="43.109954008832574" lon="-5.222405958920717">
        <ele>952.32000000000005</ele>
        <time>2025-04-29T10:28:34Z</time>
      </trkpt>
      <trkpt lat="43.109902963042259" lon="-5.222576027736068">
        <ele>951.84000000000003</ele>
        <time>2025-04-29T10:28:35Z</time>
      </trkpt>
      <trkpt lat="43.109849989414215" lon="-5.22275104187429">
        <ele>951.36000000000001</ele>
        <time>2025-04-29T10:28:36Z</time>
      </trkpt>
      <trkpt lat="43.109750999137759" lon="-5.22307600826025">
        <ele>950.39999999999998</ele>
        <time>2025-04-29T10:28:38Z</time>
      </trkpt>
      <trkpt lat="43.109750999137759" lon="-5.223255967721343">
        <ele>949.91999999999996</ele>
        <time>2025-04-29T10:28:39Z</time>
      </trkpt>
      <trkpt lat="43.109763991087675" lon="-5.223473981022835">
        <ele>950.39999999999998</ele>
        <time>2025-04-29T10:28:40Z</time>
      </trkpt>
      <trkpt lat="43.109959959983826" lon="-5.224272022023797">
        <ele>949.91999999999996</ele>
        <time>2025-04-29T10:28:44Z</time>
      </trkpt>
      <trkpt lat="43.110034978017211" lon="-5.224457010626793">
        <ele>949.44000000000005</ele>
        <time>2025-04-29T10:28:45Z</time>
      </trkpt>
      <trkpt lat="43.110132962465286" lon="-5.224604029208422">
        <ele>948.48000000000002</ele>
        <time>2025-04-29T10:28:46Z</time>
      </trkpt>
      <trkpt lat="43.110474022105336" lon="-5.224994961172342">
        <ele>947.03999999999996</ele>
        <time>2025-04-29T10:28:49Z</time>
      </trkpt>
      <trkpt lat="43.110549040138721" lon="-5.225136028602719">
        <ele>946.07000000000005</ele>
        <time>2025-04-29T10:28:50Z</time>
      </trkpt>
      <trkpt lat="43.110606959089637" lon="-5.225337026640773">
        <ele>946.55999999999995</ele>
        <time>2025-04-29T10:28:51Z</time>
      </trkpt>
      <trkpt lat="43.110705027356744" lon="-5.225673979148269">
        <ele>946.07000000000005</ele>
        <time>2025-04-29T10:28:53Z</time>
      </trkpt>
      <trkpt lat="43.11076101846993" lon="-5.225845975801349">
        <ele>945.11000000000001</ele>
        <time>2025-04-29T10:28:54Z</time>
      </trkpt>
      <trkpt lat="43.110852967947721" lon="-5.225938009098172">
        <ele>944.14999999999998</ele>
        <time>2025-04-29T10:28:55Z</time>
      </trkpt>
      <trkpt lat="43.11095698736608" lon="-5.226038005203009">
        <ele>943.66999999999996</ele>
        <time>2025-04-29T10:28:56Z</time>
      </trkpt>
      <trkpt lat="43.111067041754723" lon="-5.226136995479465">
        <ele>943.19000000000005</ele>
        <time>2025-04-29T10:28:57Z</time>
      </trkpt>
      <trkpt lat="43.111162008717656" lon="-5.226239003241062">
        <ele>942.71000000000004</ele>
        <time>2025-04-29T10:28:58Z</time>
      </trkpt>
      <trkpt lat="43.111253036186099" lon="-5.226412005722523">
        <ele>942.71000000000004</ele>
        <time>2025-04-29T10:28:59Z</time>
      </trkpt>
      <trkpt lat="43.111346997320652" lon="-5.226591965183616">
        <ele>942.71000000000004</ele>
        <time>2025-04-29T10:29:00Z</time>
      </trkpt>
      <trkpt lat="43.111852006986737" lon="-5.227979002520442">
        <ele>942.71000000000004</ele>
        <time>2025-04-29T10:29:07Z</time>
      </trkpt>
      <trkpt lat="43.11190196312964" lon="-5.228187963366509">
        <ele>942.71000000000004</ele>
        <time>2025-04-29T10:29:08Z</time>
      </trkpt>
      <trkpt lat="43.111915960907936" lon="-5.228403965011239">
        <ele>942.23000000000002</ele>
        <time>2025-04-29T10:29:09Z</time>
      </trkpt>
      <trkpt lat="43.111907998099923" lon="-5.228627007454634">
        <ele>942.23000000000002</ele>
        <time>2025-04-29T10:29:10Z</time>
      </trkpt>
      <trkpt lat="43.111896011978388" lon="-5.228844014927745">
        <ele>941.75</ele>
        <time>2025-04-29T10:29:11Z</time>
      </trkpt>
      <trkpt lat="43.111883020028472" lon="-5.229063034057617">
        <ele>941.75</ele>
        <time>2025-04-29T10:29:12Z</time>
      </trkpt>
      <trkpt lat="43.111853012815118" lon="-5.230345968157053">
        <ele>941.75</ele>
        <time>2025-04-29T10:29:18Z</time>
      </trkpt>
      <trkpt lat="43.111918978393078" lon="-5.230533974245191">
        <ele>941.26999999999998</ele>
        <time>2025-04-29T10:29:19Z</time>
      </trkpt>
      <trkpt lat="43.11207203194499" lon="-5.23091702722013">
        <ele>940.30999999999995</ele>
        <time>2025-04-29T10:29:21Z</time>
      </trkpt>
      <trkpt lat="43.112135985866189" lon="-5.231138980016112">
        <ele>939.83000000000004</ele>
        <time>2025-04-29T10:29:22Z</time>
      </trkpt>
      <trkpt lat="43.11245801858604" lon="-5.233300002291799">
        <ele>931.64999999999998</ele>
        <time>2025-04-29T10:29:31Z</time>
      </trkpt>
      <trkpt lat="43.112474028021097" lon="-5.233916994184256">
        <ele>929.25</ele>
        <time>2025-04-29T10:29:34Z</time>
      </trkpt>
      <trkpt lat="43.112505041062832" lon="-5.234116986393929">
        <ele>928.28999999999996</ele>
        <time>2025-04-29T10:29:35Z</time>
      </trkpt>
      <trkpt lat="43.112562960013747" lon="-5.234321001917124">
        <ele>927.33000000000004</ele>
        <time>2025-04-29T10:29:36Z</time>
      </trkpt>
      <trkpt lat="43.113127984106541" lon="-5.235887998715043">
        <ele>920.12</ele>
        <time>2025-04-29T10:29:43Z</time>
      </trkpt>
      <trkpt lat="43.114125011488795" lon="-5.237668985500932">
        <ele>910.50999999999999</ele>
        <time>2025-04-29T10:29:52Z</time>
      </trkpt>
      <trkpt lat="43.114734962582588" lon="-5.238599041476846">
        <ele>906.17999999999995</ele>
        <time>2025-04-29T10:29:57Z</time>
      </trkpt>
      <trkpt lat="43.114839987829328" lon="-5.238773971796036">
        <ele>905.22000000000003</ele>
        <time>2025-04-29T10:29:58Z</time>
      </trkpt>
      <trkpt lat="43.115077028051019" lon="-5.239058034494519">
        <ele>903.29999999999995</ele>
        <time>2025-04-29T10:30:00Z</time>
      </trkpt>
      <trkpt lat="43.115202002227306" lon="-5.239176973700523">
        <ele>902.33000000000004</ele>
        <time>2025-04-29T10:30:01Z</time>
      </trkpt>
      <trkpt lat="43.11531700193882" lon="-5.239286022260785">
        <ele>900.40999999999997</ele>
        <time>2025-04-29T10:30:02Z</time>
      </trkpt>
      <trkpt lat="43.115399982780218" lon="-5.23942600004375">
        <ele>899.45000000000005</ele>
        <time>2025-04-29T10:30:03Z</time>
      </trkpt>
      <trkpt lat="43.115461003035307" lon="-5.239552985876799">
        <ele>898.49000000000001</ele>
        <time>2025-04-29T10:30:04Z</time>
      </trkpt>
      <trkpt lat="43.115472989156842" lon="-5.239692963659763">
        <ele>897.52999999999997</ele>
        <time>2025-04-29T10:30:05Z</time>
      </trkpt>
      <trkpt lat="43.115485981106758" lon="-5.239853980019689">
        <ele>896.57000000000005</ele>
        <time>2025-04-29T10:30:06Z</time>
      </trkpt>
      <trkpt lat="43.115500984713435" lon="-5.240029999986291">
        <ele>895.61000000000001</ele>
        <time>2025-04-29T10:30:07Z</time>
      </trkpt>
      <trkpt lat="43.115517999976873" lon="-5.240227980539203">
        <ele>895.12</ele>
        <time>2025-04-29T10:30:08Z</time>
      </trkpt>
      <trkpt lat="43.115449016913772" lon="-5.242081973701716">
        <ele>894.15999999999997</ele>
        <time>2025-04-29T10:30:16Z</time>
      </trkpt>
      <trkpt lat="43.115265034139156" lon="-5.244074016809464">
        <ele>890.32000000000005</ele>
        <time>2025-04-29T10:30:24Z</time>
      </trkpt>
      <trkpt lat="43.11521197669208" lon="-5.244814977049828">
        <ele>888.39999999999998</ele>
        <time>2025-04-29T10:30:27Z</time>
      </trkpt>
      <trkpt lat="43.115222034975886" lon="-5.245039025321603">
        <ele>887.42999999999995</ele>
        <time>2025-04-29T10:30:28Z</time>
      </trkpt>
      <trkpt lat="43.115281965583563" lon="-5.245234994217753">
        <ele>886.95000000000005</ele>
        <time>2025-04-29T10:30:29Z</time>
      </trkpt>
      <trkpt lat="43.115352038294077" lon="-5.245427023619413">
        <ele>885.99000000000001</ele>
        <time>2025-04-29T10:30:30Z</time>
      </trkpt>
      <trkpt lat="43.115424960851669" lon="-5.245631039142609">
        <ele>885.02999999999997</ele>
        <time>2025-04-29T10:30:31Z</time>
      </trkpt>
      <trkpt lat="43.115590000525117" lon="-5.24608600884676">
        <ele>884.54999999999995</ele>
        <time>2025-04-29T10:30:33Z</time>
      </trkpt>
      <trkpt lat="43.115884959697723" lon="-5.24679402820766">
        <ele>883.11000000000001</ele>
        <time>2025-04-29T10:30:36Z</time>
      </trkpt>
      <trkpt lat="43.115970036014915" lon="-5.246940040960908">
        <ele>882.14999999999998</ele>
        <time>2025-04-29T10:30:37Z</time>
      </trkpt>
      <trkpt lat="43.116081012412906" lon="-5.247129974886775">
        <ele>880.71000000000004</ele>
        <time>2025-04-29T10:30:39Z</time>
      </trkpt>
      <trkpt lat="43.116102972999215" lon="-5.247324015945196">
        <ele>880.22000000000003</ele>
        <time>2025-04-29T10:30:40Z</time>
      </trkpt>
      <trkpt lat="43.116098027676344" lon="-5.247472040355206">
        <ele>880.22000000000003</ele>
        <time>2025-04-29T10:30:41Z</time>
      </trkpt>
      <trkpt lat="43.11609199270606" lon="-5.247657028958201">
        <ele>880.22000000000003</ele>
        <time>2025-04-29T10:30:42Z</time>
      </trkpt>
      <trkpt lat="43.116086041554809" lon="-5.247830031439662">
        <ele>880.22000000000003</ele>
        <time>2025-04-29T10:30:43Z</time>
      </trkpt>
      <trkpt lat="43.116081012412906" lon="-5.247989036142826">
        <ele>879.74000000000001</ele>
        <time>2025-04-29T10:30:44Z</time>
      </trkpt>
      <trkpt lat="43.116156030446291" lon="-5.248183999210596">
        <ele>879.25999999999999</ele>
        <time>2025-04-29T10:30:45Z</time>
      </trkpt>
      <trkpt lat="43.116217972710729" lon="-5.248346021398902">
        <ele>879.74000000000001</ele>
        <time>2025-04-29T10:30:46Z</time>
      </trkpt>
      <trkpt lat="43.116287961602211" lon="-5.248531010001898">
        <ele>880.22000000000003</ele>
        <time>2025-04-29T10:30:47Z</time>
      </trkpt>
      <trkpt lat="43.116362979635596" lon="-5.248726978898048">
        <ele>880.71000000000004</ele>
        <time>2025-04-29T10:30:48Z</time>
      </trkpt>
      <trkpt lat="43.116441015154123" lon="-5.248932000249624">
        <ele>880.71000000000004</ele>
        <time>2025-04-29T10:30:49Z</time>
      </trkpt>
      <trkpt lat="43.116723988205194" lon="-5.249532982707024">
        <ele>884.07000000000005</ele>
        <time>2025-04-29T10:30:52Z</time>
      </trkpt>
      <trkpt lat="43.116845022886992" lon="-5.249707996845245">
        <ele>884.54999999999995</ele>
        <time>2025-04-29T10:30:53Z</time>
      </trkpt>
      <trkpt lat="43.116967985406518" lon="-5.249872030690312">
        <ele>884.54999999999995</ele>
        <time>2025-04-29T10:30:54Z</time>
      </trkpt>
      <trkpt lat="43.117090025916696" lon="-5.250033969059587">
        <ele>885.02999999999997</ele>
        <time>2025-04-29T10:30:55Z</time>
      </trkpt>
      <trkpt lat="43.117196979001164" lon="-5.250176964327693">
        <ele>885.50999999999999</ele>
        <time>2025-04-29T10:30:56Z</time>
      </trkpt>
      <trkpt lat="43.117294041439891" lon="-5.250394977629185">
        <ele>886.47000000000003</ele>
        <time>2025-04-29T10:30:57Z</time>
      </trkpt>
      <trkpt lat="43.117382973432541" lon="-5.250595975667238">
        <ele>886.95000000000005</ele>
        <time>2025-04-29T10:30:58Z</time>
      </trkpt>
      <trkpt lat="43.117472995072603" lon="-5.250797979533672">
        <ele>887.42999999999995</ele>
        <time>2025-04-29T10:30:59Z</time>
      </trkpt>
      <trkpt lat="43.117563016712666" lon="-5.250999983400106">
        <ele>887.90999999999997</ele>
        <time>2025-04-29T10:31:00Z</time>
      </trkpt>
      <trkpt lat="43.11770299449563" lon="-5.25141597725451">
        <ele>888.88</ele>
        <time>2025-04-29T10:31:02Z</time>
      </trkpt>
      <trkpt lat="43.117764014750719" lon="-5.251629967242479">
        <ele>889.84000000000003</ele>
        <time>2025-04-29T10:31:03Z</time>
      </trkpt>
      <trkpt lat="43.117823023349047" lon="-5.251840017735958">
        <ele>889.36000000000001</ele>
        <time>2025-04-29T10:31:04Z</time>
      </trkpt>
      <trkpt lat="43.117881026118994" lon="-5.252044033259153">
        <ele>889.84000000000003</ele>
        <time>2025-04-29T10:31:05Z</time>
      </trkpt>
      <trkpt lat="43.117929976433516" lon="-5.252246037125588">
        <ele>889.84000000000003</ele>
        <time>2025-04-29T10:31:06Z</time>
      </trkpt>
      <trkpt lat="43.117970963940024" lon="-5.252438988536596">
        <ele>890.32000000000005</ele>
        <time>2025-04-29T10:31:07Z</time>
      </trkpt>
      <trkpt lat="43.118012035265565" lon="-5.252628000453115">
        <ele>890.32000000000005</ele>
        <time>2025-04-29T10:31:08Z</time>
      </trkpt>
      <trkpt lat="43.118062997236848" lon="-5.252794967964292">
        <ele>890.32000000000005</ele>
        <time>2025-04-29T10:31:09Z</time>
      </trkpt>
      <trkpt lat="43.118139021098614" lon="-5.25296101346612">
        <ele>890.32000000000005</ele>
        <time>2025-04-29T10:31:10Z</time>
      </trkpt>
      <trkpt lat="43.118376983329654" lon="-5.253482032567263">
        <ele>889.84000000000003</ele>
        <time>2025-04-29T10:31:14Z</time>
      </trkpt>
      <trkpt lat="43.118438003584743" lon="-5.253512039780617">
        <ele>890.32000000000005</ele>
        <time>2025-04-29T10:31:15Z</time>
      </trkpt>
      <trkpt lat="43.118506986647844" lon="-5.253545986488462">
        <ele>889.84000000000003</ele>
        <time>2025-04-29T10:31:16Z</time>
      </trkpt>
      <trkpt lat="43.118600025773048" lon="-5.253550009801984">
        <ele>890.79999999999995</ele>
        <time>2025-04-29T10:31:17Z</time>
      </trkpt>
      <trkpt lat="43.11869197525084" lon="-5.253555038943887">
        <ele>891.27999999999997</ele>
        <time>2025-04-29T10:31:18Z</time>
      </trkpt>
      <trkpt lat="43.118769004940987" lon="-5.253557972609997">
        <ele>891.27999999999997</ele>
        <time>2025-04-29T10:31:19Z</time>
      </trkpt>
      <trkpt lat="43.118824996054173" lon="-5.253560990095139">
        <ele>891.27999999999997</ele>
        <time>2025-04-29T10:31:20Z</time>
      </trkpt>
      <trkpt lat="43.11886003240943" lon="-5.253561995923519">
        <ele>891.27999999999997</ele>
        <time>2025-04-29T10:31:21Z</time>
      </trkpt>
      <trkpt lat="43.118887022137642" lon="-5.25356400758028">
        <ele>891.27999999999997</ele>
        <time>2025-04-29T10:31:22Z</time>
      </trkpt>
      <trkpt lat="43.118910994380713" lon="-5.253565013408661">
        <ele>890.79999999999995</ele>
        <time>2025-04-29T10:31:31Z</time>
      </trkpt>
      <trkpt lat="43.118944019079208" lon="-5.253566019237042">
        <ele>892.24000000000001</ele>
        <time>2025-04-29T10:32:10Z</time>
      </trkpt>
      <trkpt lat="43.11897000297904" lon="-5.253567025065422">
        <ele>892.72000000000003</ele>
        <time>2025-04-29T10:32:11Z</time>
      </trkpt>
      <trkpt lat="43.11901300214231" lon="-5.253569036722183">
        <ele>893.67999999999995</ele>
        <time>2025-04-29T10:32:12Z</time>
      </trkpt>
      <trkpt lat="43.11907603405416" lon="-5.253571970388293">
        <ele>895.12</ele>
        <time>2025-04-29T10:32:13Z</time>
      </trkpt>
      <trkpt lat="43.119151974096894" lon="-5.253575993701816">
        <ele>895.12</ele>
        <time>2025-04-29T10:32:14Z</time>
      </trkpt>
      <trkpt lat="43.119481969624758" lon="-5.253556966781616">
        <ele>894.63999999999999</ele>
        <time>2025-04-29T10:32:17Z</time>
      </trkpt>
      <trkpt lat="43.119579032063484" lon="-5.253459988161922">
        <ele>894.63999999999999</ele>
        <time>2025-04-29T10:32:18Z</time>
      </trkpt>
      <trkpt lat="43.119622031226754" lon="-5.253353035077453">
        <ele>894.15999999999997</ele>
        <time>2025-04-29T10:32:19Z</time>
      </trkpt>
      <trkpt lat="43.11967802233994" lon="-5.253211967647076">
        <ele>894.15999999999997</ele>
        <time>2025-04-29T10:32:20Z</time>
      </trkpt>
      <trkpt lat="43.119748011231422" lon="-5.253078024834395">
        <ele>894.63999999999999</ele>
        <time>2025-04-29T10:32:21Z</time>
      </trkpt>
      <trkpt lat="43.119835015386343" lon="-5.252948021516204">
        <ele>894.15999999999997</ele>
        <time>2025-04-29T10:32:22Z</time>
      </trkpt>
      <trkpt lat="43.12000198289752" lon="-5.252558011561632">
        <ele>892.72000000000003</ele>
        <time>2025-04-29T10:32:25Z</time>
      </trkpt>
      <trkpt lat="43.120066020637751" lon="-5.252270009368658">
        <ele>893.20000000000005</ele>
        <time>2025-04-29T10:32:27Z</time>
      </trkpt>
      <trkpt lat="43.120120000094175" lon="-5.252154003828764">
        <ele>893.20000000000005</ele>
        <time>2025-04-29T10:32:28Z</time>
      </trkpt>
      <trkpt lat="43.120170962065458" lon="-5.252045961096883">
        <ele>893.20000000000005</ele>
        <time>2025-04-29T10:32:29Z</time>
      </trkpt>
      <trkpt lat="43.120202980935574" lon="-5.25193003937602">
        <ele>892.72000000000003</ele>
        <time>2025-04-29T10:32:30Z</time>
      </trkpt>
      <trkpt lat="43.120210021734238" lon="-5.251782014966011">
        <ele>892.72000000000003</ele>
        <time>2025-04-29T10:32:31Z</time>
      </trkpt>
      <trkpt lat="43.12021697871387" lon="-5.251614041626453">
        <ele>892.72000000000003</ele>
        <time>2025-04-29T10:32:32Z</time>
      </trkpt>
      <trkpt lat="43.120247991755605" lon="-5.251427041366696">
        <ele>892.72000000000003</ele>
        <time>2025-04-29T10:32:33Z</time>
      </trkpt>
      <trkpt lat="43.120324015617371" lon="-5.251254038885236">
        <ele>892.72000000000003</ele>
        <time>2025-04-29T10:32:34Z</time>
      </trkpt>
      <trkpt lat="43.120399033650756" lon="-5.251080030575395">
        <ele>892.24000000000001</ele>
        <time>2025-04-29T10:32:35Z</time>
      </trkpt>
      <trkpt lat="43.120467010885477" lon="-5.250922031700611">
        <ele>891.75999999999999</ele>
        <time>2025-04-29T10:32:36Z</time>
      </trkpt>
      <trkpt lat="43.120600031688809" lon="-5.2507050242275">
        <ele>891.27999999999997</ele>
        <time>2025-04-29T10:32:38Z</time>
      </trkpt>
      <trkpt lat="43.120673960074782" lon="-5.250692032277584">
        <ele>890.79999999999995</ele>
        <time>2025-04-29T10:32:39Z</time>
      </trkpt>
      <trkpt lat="43.120743026956916" lon="-5.250732013955712">
        <ele>890.32000000000005</ele>
        <time>2025-04-29T10:32:40Z</time>
      </trkpt>
      <trkpt lat="43.120827013626695" lon="-5.250811977311969">
        <ele>889.84000000000003</ele>
        <time>2025-04-29T10:32:41Z</time>
      </trkpt>
      <trkpt lat="43.120875963941216" lon="-5.250966036692262">
        <ele>888.88</ele>
        <time>2025-04-29T10:32:42Z</time>
      </trkpt>
      <trkpt lat="43.120929021388292" lon="-5.2511350158602">
        <ele>888.39999999999998</ele>
        <time>2025-04-29T10:32:43Z</time>
      </trkpt>
      <trkpt lat="43.120984006673098" lon="-5.25130701251328">
        <ele>887.42999999999995</ele>
        <time>2025-04-29T10:32:44Z</time>
      </trkpt>
      <trkpt lat="43.121034968644381" lon="-5.251470962539315">
        <ele>886.95000000000005</ele>
        <time>2025-04-29T10:32:45Z</time>
      </trkpt>
      <trkpt lat="43.121090037748218" lon="-5.25162803940475">
        <ele>885.99000000000001</ele>
        <time>2025-04-29T10:32:46Z</time>
      </trkpt>
      <trkpt lat="43.121166983619332" lon="-5.251738009974361">
        <ele>885.02999999999997</ele>
        <time>2025-04-29T10:32:47Z</time>
      </trkpt>
      <trkpt lat="43.121236972510815" lon="-5.251831971108913">
        <ele>884.54999999999995</ele>
        <time>2025-04-29T10:32:48Z</time>
      </trkpt>
      <trkpt lat="43.121294975280762" lon="-5.251850998029113">
        <ele>883.59000000000003</ele>
        <time>2025-04-29T10:32:49Z</time>
      </trkpt>
      <trkpt lat="43.121294975280762" lon="-5.251850998029113">
        <ele>883.11000000000001</ele>
        <time>2025-04-29T10:32:50Z</time>
      </trkpt>
      <trkpt lat="43.121379967778921" lon="-5.251734992489219">
        <ele>882.63</ele>
        <time>2025-04-29T10:32:51Z</time>
      </trkpt>
      <trkpt lat="43.121433025225997" lon="-5.251663997769356">
        <ele>882.14999999999998</ele>
        <time>2025-04-29T10:32:52Z</time>
      </trkpt>
      <trkpt lat="43.121507037431002" lon="-5.251562995836139">
        <ele>881.19000000000005</ele>
        <time>2025-04-29T10:32:53Z</time>
      </trkpt>
      <trkpt lat="43.121583983302116" lon="-5.251456964761019">
        <ele>880.22000000000003</ele>
        <time>2025-04-29T10:32:54Z</time>
      </trkpt>
      <trkpt lat="43.121853964403272" lon="-5.251015992835164">
        <ele>877.34000000000003</ele>
        <time>2025-04-29T10:32:57Z</time>
      </trkpt>
      <trkpt lat="43.121992014348507" lon="-5.250747017562389">
        <ele>874.94000000000005</ele>
        <time>2025-04-29T10:32:59Z</time>
      </trkpt>
      <trkpt lat="43.122103996574879" lon="-5.250713992863894">
        <ele>873.98000000000002</ele>
        <time>2025-04-29T10:33:00Z</time>
      </trkpt>
      <trkpt lat="43.122183959931135" lon="-5.250744000077248">
        <ele>873.00999999999999</ele>
        <time>2025-04-29T10:33:01Z</time>
      </trkpt>
      <trkpt lat="43.122246991842985" lon="-5.250866962596774">
        <ele>871.57000000000005</ele>
        <time>2025-04-29T10:33:02Z</time>
      </trkpt>
      <trkpt lat="43.1222790107131" lon="-5.250986991450191">
        <ele>870.61000000000001</ele>
        <time>2025-04-29T10:33:03Z</time>
      </trkpt>
      <trkpt lat="43.122313963249326" lon="-5.25111498311162">
        <ele>869.64999999999998</ele>
        <time>2025-04-29T10:33:04Z</time>
      </trkpt>
      <trkpt lat="43.122348999604583" lon="-5.251245992258191">
        <ele>868.21000000000004</ele>
        <time>2025-04-29T10:33:05Z</time>
      </trkpt>
      <trkpt lat="43.122389987111092" lon="-5.251400973647833">
        <ele>867.73000000000002</ele>
        <time>2025-04-29T10:33:06Z</time>
      </trkpt>
      <trkpt lat="43.122447989881039" lon="-5.251433998346329">
        <ele>866.76999999999998</ele>
        <time>2025-04-29T10:33:07Z</time>
      </trkpt>
      <trkpt lat="43.122552009299397" lon="-5.251483032479882">
        <ele>866.28999999999996</ele>
        <time>2025-04-29T10:33:08Z</time>
      </trkpt>
      <trkpt lat="43.12264597043395" lon="-5.251459982246161">
        <ele>865.79999999999995</ele>
        <time>2025-04-29T10:33:09Z</time>
      </trkpt>
      <trkpt lat="43.122757030650973" lon="-5.251431986689568">
        <ele>865.32000000000005</ele>
        <time>2025-04-29T10:33:10Z</time>
      </trkpt>
      <trkpt lat="43.122989041730762" lon="-5.251294020563364">
        <ele>864.36000000000001</ele>
        <time>2025-04-29T10:33:12Z</time>
      </trkpt>
      <trkpt lat="43.123148968443274" lon="-5.251072989776731">
        <ele>862.91999999999996</ele>
        <time>2025-04-29T10:33:14Z</time>
      </trkpt>
      <trkpt lat="43.123228009790182" lon="-5.250964025035501">
        <ele>862.44000000000005</ele>
        <time>2025-04-29T10:33:15Z</time>
      </trkpt>
      <trkpt lat="43.123305961489677" lon="-5.250855982303619">
        <ele>862.44000000000005</ele>
        <time>2025-04-29T10:33:16Z</time>
      </trkpt>
      <trkpt lat="43.123403023928404" lon="-5.250757997855544">
        <ele>861.96000000000004</ele>
        <time>2025-04-29T10:33:17Z</time>
      </trkpt>
      <trkpt lat="43.123521041125059" lon="-5.250764032825828">
        <ele>861.48000000000002</ele>
        <time>2025-04-29T10:33:18Z</time>
      </trkpt>
      <trkpt lat="43.123655989766121" lon="-5.25077098980546">
        <ele>861</ele>
        <time>2025-04-29T10:33:19Z</time>
      </trkpt>
      <trkpt lat="43.124143984168768" lon="-5.250796973705292">
        <ele>859.55999999999995</ele>
        <time>2025-04-29T10:33:23Z</time>
      </trkpt>
      <trkpt lat="43.124240040779114" lon="-5.250747017562389">
        <ele>859.08000000000004</ele>
        <time>2025-04-29T10:33:24Z</time>
      </trkpt>
      <trkpt lat="43.124322015792131" lon="-5.250656995922327">
        <ele>858.59000000000003</ele>
        <time>2025-04-29T10:33:25Z</time>
      </trkpt>
      <trkpt lat="43.124411031603813" lon="-5.25055599398911">
        <ele>858.59000000000003</ele>
        <time>2025-04-29T10:33:26Z</time>
      </trkpt>
      <trkpt lat="43.124476997181773" lon="-5.250434959307313">
        <ele>858.11000000000001</ele>
        <time>2025-04-29T10:33:27Z</time>
      </trkpt>
      <trkpt lat="43.124753013253212" lon="-5.249931961297989">
        <ele>855.71000000000004</ele>
        <time>2025-04-29T10:33:33Z</time>
      </trkpt>
      <trkpt lat="43.124854015186429" lon="-5.249745966866612">
        <ele>855.23000000000002</ele>
        <time>2025-04-29T10:33:35Z</time>
      </trkpt>
      <trkpt lat="43.125031962990761" lon="-5.249425023794174">
        <ele>853.78999999999996</ele>
        <time>2025-04-29T10:33:39Z</time>
      </trkpt>
      <trkpt lat="43.12509298324585" lon="-5.24939501658082">
        <ele>853.30999999999995</ele>
        <time>2025-04-29T10:33:40Z</time>
      </trkpt>
      <trkpt lat="43.125152997672558" lon="-5.249364003539085">
        <ele>852.83000000000004</ele>
        <time>2025-04-29T10:33:41Z</time>
      </trkpt>
      <trkpt lat="43.125217035412788" lon="-5.249332990497351">
        <ele>852.83000000000004</ele>
        <time>2025-04-29T10:33:42Z</time>
      </trkpt>
      <trkpt lat="43.125278977677226" lon="-5.249301977455616">
        <ele>852.83000000000004</ele>
        <time>2025-04-29T10:33:43Z</time>
      </trkpt>
      <trkpt lat="43.125341003760695" lon="-5.249270964413881">
        <ele>852.35000000000002</ele>
        <time>2025-04-29T10:33:44Z</time>
      </trkpt>
      <trkpt lat="43.125398000702262" lon="-5.249241963028908">
        <ele>851.87</ele>
        <time>2025-04-29T10:33:45Z</time>
      </trkpt>
      <trkpt lat="43.125450974330306" lon="-5.249215979129076">
        <ele>851.87</ele>
        <time>2025-04-29T10:33:46Z</time>
      </trkpt>
      <trkpt lat="43.125495985150337" lon="-5.249181026592851">
        <ele>851.38</ele>
        <time>2025-04-29T10:33:47Z</time>
      </trkpt>
      <trkpt lat="43.125538984313607" lon="-5.249144984409213">
        <ele>850.89999999999998</ele>
        <time>2025-04-29T10:33:48Z</time>
      </trkpt>
      <trkpt lat="43.125576032325625" lon="-5.249112965539098">
        <ele>850.89999999999998</ele>
        <time>2025-04-29T10:33:49Z</time>
      </trkpt>
      <trkpt lat="43.125612996518612" lon="-5.249082958325744">
        <ele>850.41999999999996</ele>
        <time>2025-04-29T10:33:50Z</time>
      </trkpt>
      <trkpt lat="43.125655995681882" lon="-5.249046999961138">
        <ele>850.41999999999996</ele>
        <time>2025-04-29T10:33:51Z</time>
      </trkpt>
      <trkpt lat="43.12571601010859" lon="-5.248996959999204">
        <ele>849.94000000000005</ele>
        <time>2025-04-29T10:33:52Z</time>
      </trkpt>
      <trkpt lat="43.12575800344348" lon="-5.249011041596532">
        <ele>849.94000000000005</ele>
        <time>2025-04-29T10:33:53Z</time>
      </trkpt>
      <trkpt lat="43.125820029526949" lon="-5.249031996354461">
        <ele>849.46000000000004</ele>
        <time>2025-04-29T10:33:54Z</time>
      </trkpt>
      <trkpt lat="43.125908961519599" lon="-5.249062003567815">
        <ele>848.98000000000002</ele>
        <time>2025-04-29T10:33:55Z</time>
      </trkpt>
      <trkpt lat="43.125951960682869" lon="-5.249130986630917">
        <ele>848.5</ele>
        <time>2025-04-29T10:33:56Z</time>
      </trkpt>
      <trkpt lat="43.125998983159661" lon="-5.249206004664302">
        <ele>848.01999999999998</ele>
        <time>2025-04-29T10:33:57Z</time>
      </trkpt>
      <trkpt lat="43.126046005636454" lon="-5.249281022697687">
        <ele>847.53999999999996</ele>
        <time>2025-04-29T10:33:58Z</time>
      </trkpt>
      <trkpt lat="43.126093028113246" lon="-5.249356040731072">
        <ele>847.53999999999996</ele>
        <time>2025-04-29T10:33:59Z</time>
      </trkpt>
      <trkpt lat="43.126138960942626" lon="-5.249429969117045">
        <ele>847.53999999999996</ele>
        <time>2025-04-29T10:34:00Z</time>
      </trkpt>
      <trkpt lat="43.126182965934277" lon="-5.24950004182756">
        <ele>847.53999999999996</ele>
        <time>2025-04-29T10:34:01Z</time>
      </trkpt>
      <trkpt lat="43.12623099423945" lon="-5.249576987698674">
        <ele>847.53999999999996</ele>
        <time>2025-04-29T10:34:02Z</time>
      </trkpt>
      <trkpt lat="43.126256978139281" lon="-5.249592997133732">
        <ele>847.53999999999996</ele>
        <time>2025-04-29T10:34:03Z</time>
      </trkpt>
      <trkpt lat="43.126304000616074" lon="-5.249623004347086">
        <ele>847.53999999999996</ele>
        <time>2025-04-29T10:34:04Z</time>
      </trkpt>
      <trkpt lat="43.126401985064149" lon="-5.249684024602175">
        <ele>847.53999999999996</ele>
        <time>2025-04-29T10:34:05Z</time>
      </trkpt>
      <trkpt lat="43.126430986449122" lon="-5.249684024602175">
        <ele>847.53999999999996</ele>
        <time>2025-04-29T10:34:06Z</time>
      </trkpt>
      <trkpt lat="43.12659602612257" lon="-5.249684024602175">
        <ele>847.05999999999995</ele>
        <time>2025-04-29T10:34:09Z</time>
      </trkpt>
      <trkpt lat="43.126654028892517" lon="-5.249639013782144">
        <ele>847.05999999999995</ele>
        <time>2025-04-29T10:34:10Z</time>
      </trkpt>
      <trkpt lat="43.126771040260792" lon="-5.249547986313701">
        <ele>846.58000000000004</ele>
        <time>2025-04-29T10:34:12Z</time>
      </trkpt>
      <trkpt lat="43.127354001626372" lon="-5.249097039923072">
        <ele>844.17999999999995</ele>
        <time>2025-04-29T10:34:18Z</time>
      </trkpt>
      <trkpt lat="43.127621971070766" lon="-5.248961001634598">
        <ele>843.21000000000004</ele>
        <time>2025-04-29T10:34:20Z</time>
      </trkpt>
      <trkpt lat="43.127764966338873" lon="-5.248911967501044">
        <ele>842.73000000000002</ele>
        <time>2025-04-29T10:34:21Z</time>
      </trkpt>
      <trkpt lat="43.127918019890785" lon="-5.248859999701381">
        <ele>842.73000000000002</ele>
        <time>2025-04-29T10:34:22Z</time>
      </trkpt>
      <trkpt lat="43.128075012937188" lon="-5.248806020244956">
        <ele>842.25</ele>
        <time>2025-04-29T10:34:23Z</time>
      </trkpt>
      <trkpt lat="43.128215996548533" lon="-5.248753968626261">
        <ele>841.76999999999998</ele>
        <time>2025-04-29T10:34:24Z</time>
      </trkpt>
      <trkpt lat="43.12833895906806" lon="-5.248676016926765">
        <ele>841.28999999999996</ele>
        <time>2025-04-29T10:34:25Z</time>
      </trkpt>
      <trkpt lat="43.128440966829658" lon="-5.248610973358154">
        <ele>840.80999999999995</ele>
        <time>2025-04-29T10:34:26Z</time>
      </trkpt>
      <trkpt lat="43.128522019833326" lon="-5.248489016667008">
        <ele>840.33000000000004</ele>
        <time>2025-04-29T10:34:27Z</time>
      </trkpt>
      <trkpt lat="43.128581028431654" lon="-5.248402012512088">
        <ele>839.85000000000002</ele>
        <time>2025-04-29T10:34:28Z</time>
      </trkpt>
      <trkpt lat="43.128631990402937" lon="-5.248323976993561">
        <ele>839.37</ele>
        <time>2025-04-29T10:34:29Z</time>
      </trkpt>
      <trkpt lat="43.1286839582026" lon="-5.248246025294066">
        <ele>839.37</ele>
        <time>2025-04-29T10:34:30Z</time>
      </trkpt>
      <trkpt lat="43.128741038963199" lon="-5.248160026967526">
        <ele>838.88999999999999</ele>
        <time>2025-04-29T10:34:31Z</time>
      </trkpt>
      <trkpt lat="43.128799963742495" lon="-5.24819003418088">
        <ele>838.40999999999997</ele>
        <time>2025-04-29T10:34:32Z</time>
      </trkpt>
      <trkpt lat="43.12887498177588" lon="-5.248226998373866">
        <ele>837.92999999999995</ele>
        <time>2025-04-29T10:34:33Z</time>
      </trkpt>
      <trkpt lat="43.128968020901084" lon="-5.248274020850658">
        <ele>837.45000000000005</ele>
        <time>2025-04-29T10:34:34Z</time>
      </trkpt>
      <trkpt lat="43.129072040319443" lon="-5.248325988650322">
        <ele>837.45000000000005</ele>
        <time>2025-04-29T10:34:35Z</time>
      </trkpt>
      <trkpt lat="43.129152003675699" lon="-5.248316014185548">
        <ele>836.96000000000004</ele>
        <time>2025-04-29T10:34:36Z</time>
      </trkpt>
      <trkpt lat="43.129273960366845" lon="-5.248286006972194">
        <ele>836.96000000000004</ele>
        <time>2025-04-29T10:34:37Z</time>
      </trkpt>
      <trkpt lat="43.129402035847306" lon="-5.248254993930459">
        <ele>836.96000000000004</ele>
        <time>2025-04-29T10:34:38Z</time>
      </trkpt>
      <trkpt lat="43.129551988095045" lon="-5.248219035565853">
        <ele>836.48000000000002</ele>
        <time>2025-04-29T10:34:39Z</time>
      </trkpt>
      <trkpt lat="43.129704035818577" lon="-5.248181987553835">
        <ele>835.51999999999998</ele>
        <time>2025-04-29T10:34:40Z</time>
      </trkpt>
      <trkpt lat="43.129838984459639" lon="-5.2481509745121">
        <ele>835.03999999999996</ele>
        <time>2025-04-29T10:34:41Z</time>
      </trkpt>
      <trkpt lat="43.129963036626577" lon="-5.248125996440649">
        <ele>834.55999999999995</ele>
        <time>2025-04-29T10:34:42Z</time>
      </trkpt>
      <trkpt lat="43.130089016631246" lon="-5.248101018369198">
        <ele>833.60000000000002</ele>
        <time>2025-04-29T10:34:43Z</time>
      </trkpt>
      <trkpt lat="43.130214996635914" lon="-5.24802197702229">
        <ele>833.12</ele>
        <time>2025-04-29T10:34:44Z</time>
      </trkpt>
      <trkpt lat="43.130336031317711" lon="-5.247932961210609">
        <ele>832.15999999999997</ele>
        <time>2025-04-29T10:34:45Z</time>
      </trkpt>
      <trkpt lat="43.130453964695334" lon="-5.247845035046339">
        <ele>831.20000000000005</ele>
        <time>2025-04-29T10:34:46Z</time>
      </trkpt>
      <trkpt lat="43.130577011033893" lon="-5.247754007577896">
        <ele>830.72000000000003</ele>
        <time>2025-04-29T10:34:47Z</time>
      </trkpt>
      <trkpt lat="43.130730986595154" lon="-5.247716037556529">
        <ele>829.75999999999999</ele>
        <time>2025-04-29T10:34:48Z</time>
      </trkpt>
      <trkpt lat="43.130889991298318" lon="-5.247694998979569">
        <ele>828.30999999999995</ele>
        <time>2025-04-29T10:34:49Z</time>
      </trkpt>
      <trkpt lat="43.131051007658243" lon="-5.247674966230989">
        <ele>827.35000000000002</ele>
        <time>2025-04-29T10:34:50Z</time>
      </trkpt>
      <trkpt lat="43.131215963512659" lon="-5.24765401147306">
        <ele>825.90999999999997</ele>
        <time>2025-04-29T10:34:51Z</time>
      </trkpt>
      <trkpt lat="43.131681997328997" lon="-5.247572036460042">
        <ele>822.05999999999995</ele>
        <time>2025-04-29T10:34:54Z</time>
      </trkpt>
      <trkpt lat="43.131809988990426" lon="-5.247513027861714">
        <ele>820.62</ele>
        <time>2025-04-29T10:34:55Z</time>
      </trkpt>
      <trkpt lat="43.131944015622139" lon="-5.247451001778245">
        <ele>819.17999999999995</ele>
        <time>2025-04-29T10:34:56Z</time>
      </trkpt>
      <trkpt lat="43.132218020036817" lon="-5.247323010116816">
        <ele>816.77999999999997</ele>
        <time>2025-04-29T10:34:58Z</time>
      </trkpt>
      <trkpt lat="43.132485989481211" lon="-5.247229970991612">
        <ele>813.40999999999997</ele>
        <time>2025-04-29T10:35:00Z</time>
      </trkpt>
      <trkpt lat="43.132625967264175" lon="-5.247137015685439">
        <ele>811.97000000000003</ele>
        <time>2025-04-29T10:35:01Z</time>
      </trkpt>
      <trkpt lat="43.132762005552649" lon="-5.247037019580603">
        <ele>811.00999999999999</ele>
        <time>2025-04-29T10:35:02Z</time>
      </trkpt>
      <trkpt lat="43.132877005264163" lon="-5.246921014040709">
        <ele>809.57000000000005</ele>
        <time>2025-04-29T10:35:03Z</time>
      </trkpt>
      <trkpt lat="43.132985970005393" lon="-5.246812971308827">
        <ele>808.13</ele>
        <time>2025-04-29T10:35:04Z</time>
      </trkpt>
      <trkpt lat="43.133094012737274" lon="-5.246705012395978">
        <ele>807.15999999999997</ele>
        <time>2025-04-29T10:35:05Z</time>
      </trkpt>
      <trkpt lat="43.133199037984014" lon="-5.246599987149239">
        <ele>805.72000000000003</ele>
        <time>2025-04-29T10:35:06Z</time>
      </trkpt>
      <trkpt lat="43.13329903408885" lon="-5.246521029621363">
        <ele>804.75999999999999</ele>
        <time>2025-04-29T10:35:07Z</time>
      </trkpt>
      <trkpt lat="43.133416967466474" lon="-5.246485993266106">
        <ele>803.32000000000005</ele>
        <time>2025-04-29T10:35:08Z</time>
      </trkpt>
      <trkpt lat="43.133531967177987" lon="-5.24645296856761">
        <ele>801.88</ele>
        <time>2025-04-29T10:35:09Z</time>
      </trkpt>
      <trkpt lat="43.133633974939585" lon="-5.246422039344907">
        <ele>800.91999999999996</ele>
        <time>2025-04-29T10:35:10Z</time>
      </trkpt>
      <trkpt lat="43.133722990751266" lon="-5.24647300131619">
        <ele>799.95000000000005</ele>
        <time>2025-04-29T10:35:11Z</time>
      </trkpt>
      <trkpt lat="43.133801026269794" lon="-5.246531004086137">
        <ele>798.50999999999999</ele>
        <time>2025-04-29T10:35:12Z</time>
      </trkpt>
      <trkpt lat="43.133873026818037" lon="-5.246626976877451">
        <ele>798.02999999999997</ele>
        <time>2025-04-29T10:35:13Z</time>
      </trkpt>
      <trkpt lat="43.133946033194661" lon="-5.246724961325526">
        <ele>797.07000000000005</ele>
        <time>2025-04-29T10:35:14Z</time>
      </trkpt>
      <trkpt lat="43.134019039571285" lon="-5.246822023764253">
        <ele>796.59000000000003</ele>
        <time>2025-04-29T10:35:15Z</time>
      </trkpt>
      <trkpt lat="43.134096991270781" lon="-5.246882038190961">
        <ele>796.11000000000001</ele>
        <time>2025-04-29T10:35:16Z</time>
      </trkpt>
      <trkpt lat="43.134182989597321" lon="-5.246929982677102">
        <ele>795.63</ele>
        <time>2025-04-29T10:35:17Z</time>
      </trkpt>
      <trkpt lat="43.134258007630706" lon="-5.246942974627018">
        <ele>795.14999999999998</ele>
        <time>2025-04-29T10:35:18Z</time>
      </trkpt>
      <trkpt lat="43.134338976815343" lon="-5.246888995170593">
        <ele>794.19000000000005</ele>
        <time>2025-04-29T10:35:19Z</time>
      </trkpt>
      <trkpt lat="43.134422041475773" lon="-5.246819006279111">
        <ele>793.71000000000004</ele>
        <time>2025-04-29T10:35:20Z</time>
      </trkpt>
      <trkpt lat="43.134510973468423" lon="-5.246737031266093">
        <ele>793.22000000000003</ele>
        <time>2025-04-29T10:35:21Z</time>
      </trkpt>
      <trkpt lat="43.134594960138202" lon="-5.246661007404327">
        <ele>792.25999999999999</ele>
        <time>2025-04-29T10:35:22Z</time>
      </trkpt>
      <trkpt lat="43.134690010920167" lon="-5.246613984927535">
        <ele>792.25999999999999</ele>
        <time>2025-04-29T10:35:23Z</time>
      </trkpt>
      <trkpt lat="43.134777015075088" lon="-5.246584983542562">
        <ele>791.77999999999997</ele>
        <time>2025-04-29T10:35:24Z</time>
      </trkpt>
      <trkpt lat="43.134888997301459" lon="-5.246652038767934">
        <ele>791.29999999999995</ele>
        <time>2025-04-29T10:35:25Z</time>
      </trkpt>
      <trkpt lat="43.134979018941522" lon="-5.246749017387629">
        <ele>790.82000000000005</ele>
        <time>2025-04-29T10:35:26Z</time>
      </trkpt>
      <trkpt lat="43.135074991732836" lon="-5.246852030977607">
        <ele>790.34000000000003</ele>
        <time>2025-04-29T10:35:27Z</time>
      </trkpt>
      <trkpt lat="43.13538403250277" lon="-5.24718202650547">
        <ele>788.41999999999996</ele>
        <time>2025-04-29T10:35:30Z</time>
      </trkpt>
      <trkpt lat="43.135721990838647" lon="-5.24744002148509">
        <ele>786.98000000000002</ele>
        <time>2025-04-29T10:35:33Z</time>
      </trkpt>
      <trkpt lat="43.135847970843315" lon="-5.247494000941515">
        <ele>786.5</ele>
        <time>2025-04-29T10:35:34Z</time>
      </trkpt>
      <trkpt lat="43.136119041591883" lon="-5.247617969289422">
        <ele>786.01999999999998</ele>
        <time>2025-04-29T10:35:36Z</time>
      </trkpt>
      <trkpt lat="43.136334959417582" lon="-5.247804969549179">
        <ele>785.52999999999997</ele>
        <time>2025-04-29T10:35:38Z</time>
      </trkpt>
      <trkpt lat="43.136447025462985" lon="-5.247943019494414">
        <ele>785.04999999999995</ele>
        <time>2025-04-29T10:35:39Z</time>
      </trkpt>
      <trkpt lat="43.136497987434268" lon="-5.248076962307096">
        <ele>784.57000000000005</ele>
        <time>2025-04-29T10:35:40Z</time>
      </trkpt>
      <trkpt lat="43.136521959677339" lon="-5.248221969231963">
        <ele>784.09000000000003</ele>
        <time>2025-04-29T10:35:41Z</time>
      </trkpt>
      <trkpt lat="43.136506034061313" lon="-5.24834199808538">
        <ele>783.61000000000001</ele>
        <time>2025-04-29T10:35:42Z</time>
      </trkpt>
      <trkpt lat="43.136490024626255" lon="-5.248461021110416">
        <ele>783.13</ele>
        <time>2025-04-29T10:35:43Z</time>
      </trkpt>
      <trkpt lat="43.13648197799921" lon="-5.248676016926765">
        <ele>782.16999999999996</ele>
        <time>2025-04-29T10:35:45Z</time>
      </trkpt>
      <trkpt lat="43.136521959677339" lon="-5.248781964182854">
        <ele>781.69000000000005</ele>
        <time>2025-04-29T10:35:46Z</time>
      </trkpt>
      <trkpt lat="43.136573005467653" lon="-5.24883502162993">
        <ele>780.73000000000002</ele>
        <time>2025-04-29T10:35:47Z</time>
      </trkpt>
      <trkpt lat="43.136676019057631" lon="-5.248908028006554">
        <ele>780.25</ele>
        <time>2025-04-29T10:35:48Z</time>
      </trkpt>
      <trkpt lat="43.136791018769145" lon="-5.248976005241275">
        <ele>779.28999999999996</ele>
        <time>2025-04-29T10:35:49Z</time>
      </trkpt>
      <trkpt lat="43.136916998773813" lon="-5.24905001744628">
        <ele>778.32000000000005</ele>
        <time>2025-04-29T10:35:50Z</time>
      </trkpt>
      <trkpt lat="43.13704096712172" lon="-5.249124029651284">
        <ele>777.36000000000001</ele>
        <time>2025-04-29T10:35:51Z</time>
      </trkpt>
      <trkpt lat="43.137155966833234" lon="-5.249140039086342">
        <ele>776.39999999999998</ele>
        <time>2025-04-29T10:35:52Z</time>
      </trkpt>
      <trkpt lat="43.137269038707018" lon="-5.249123023822904">
        <ele>775.44000000000005</ele>
        <time>2025-04-29T10:35:53Z</time>
      </trkpt>
      <trkpt lat="43.137903967872262" lon="-5.248825969174504">
        <ele>771.11000000000001</ele>
        <time>2025-04-29T10:35:58Z</time>
      </trkpt>
      <trkpt lat="43.138032965362072" lon="-5.248825969174504">
        <ele>770.14999999999998</ele>
        <time>2025-04-29T10:35:59Z</time>
      </trkpt>
      <trkpt lat="43.138172021135688" lon="-5.248833009973168">
        <ele>768.71000000000004</ele>
        <time>2025-04-29T10:36:00Z</time>
      </trkpt>
      <trkpt lat="43.13830696977675" lon="-5.248925965279341">
        <ele>767.75</ele>
        <time>2025-04-29T10:36:01Z</time>
      </trkpt>
      <trkpt lat="43.138445019721985" lon="-5.249022021889687">
        <ele>766.78999999999996</ele>
        <time>2025-04-29T10:36:02Z</time>
      </trkpt>
      <trkpt lat="43.138588014990091" lon="-5.249121012166143">
        <ele>765.83000000000004</ele>
        <time>2025-04-29T10:36:03Z</time>
      </trkpt>
      <trkpt lat="43.13873402774334" lon="-5.249220002442598">
        <ele>764.87</ele>
        <time>2025-04-29T10:36:04Z</time>
      </trkpt>
      <trkpt lat="43.13888699747622" lon="-5.249303989112377">
        <ele>763.89999999999998</ele>
        <time>2025-04-29T10:36:05Z</time>
      </trkpt>
      <trkpt lat="43.139038039371371" lon="-5.249386969953775">
        <ele>762.94000000000005</ele>
        <time>2025-04-29T10:36:06Z</time>
      </trkpt>
      <trkpt lat="43.139185979962349" lon="-5.249501969665289">
        <ele>762.46000000000004</ele>
        <time>2025-04-29T10:36:07Z</time>
      </trkpt>
      <trkpt lat="43.139741029590368" lon="-5.250243013724685">
        <ele>760.05999999999995</ele>
        <time>2025-04-29T10:36:12Z</time>
      </trkpt>
      <trkpt lat="43.139870027080178" lon="-5.250351978465915">
        <ele>759.58000000000004</ele>
        <time>2025-04-29T10:36:13Z</time>
      </trkpt>
      <trkpt lat="43.140576034784317" lon="-5.251133004203439">
        <ele>755.25</ele>
        <time>2025-04-29T10:36:19Z</time>
      </trkpt>
      <trkpt lat="43.140661027282476" lon="-5.251283962279558">
        <ele>754.76999999999998</ele>
        <time>2025-04-29T10:36:20Z</time>
      </trkpt>
      <trkpt lat="43.140743002295494" lon="-5.251427041366696">
        <ele>753.80999999999995</ele>
        <time>2025-04-29T10:36:21Z</time>
      </trkpt>
      <trkpt lat="43.140801005065441" lon="-5.251528965309262">
        <ele>752.37</ele>
        <time>2025-04-29T10:36:22Z</time>
      </trkpt>
      <trkpt lat="43.140926985070109" lon="-5.251655029132962">
        <ele>751.40999999999997</ele>
        <time>2025-04-29T10:36:23Z</time>
      </trkpt>
      <trkpt lat="43.141029998660088" lon="-5.251757958903909">
        <ele>749.97000000000003</ele>
        <time>2025-04-29T10:36:24Z</time>
      </trkpt>
      <trkpt lat="43.141344990581274" lon="-5.252043027430773">
        <ele>745.63999999999999</ele>
        <time>2025-04-29T10:36:27Z</time>
      </trkpt>
      <trkpt lat="43.141451021656394" lon="-5.252078985795379">
        <ele>744.67999999999995</ele>
        <time>2025-04-29T10:36:28Z</time>
      </trkpt>
      <trkpt lat="43.141715973615646" lon="-5.252127014100552">
        <ele>741.78999999999996</ele>
        <time>2025-04-29T10:36:30Z</time>
      </trkpt>
      <trkpt lat="43.141853017732501" lon="-5.252152998000383">
        <ele>740.35000000000002</ele>
        <time>2025-04-29T10:36:31Z</time>
      </trkpt>
      <trkpt lat="43.141968017444015" lon="-5.252244025468826">
        <ele>738.90999999999997</ele>
        <time>2025-04-29T10:36:32Z</time>
      </trkpt>
      <trkpt lat="43.142078993842006" lon="-5.252333963289857">
        <ele>737.47000000000003</ele>
        <time>2025-04-29T10:36:33Z</time>
      </trkpt>
      <trkpt lat="43.142197011038661" lon="-5.252427002415061">
        <ele>735.07000000000005</ele>
        <time>2025-04-29T10:36:34Z</time>
      </trkpt>
      <trkpt lat="43.14228099770844" lon="-5.252494979649782">
        <ele>733.13999999999999</ele>
        <time>2025-04-29T10:36:35Z</time>
      </trkpt>
      <trkpt lat="43.142416030168533" lon="-5.252647027373314">
        <ele>730.74000000000001</ele>
        <time>2025-04-29T10:36:36Z</time>
      </trkpt>
      <trkpt lat="43.142527006566525" lon="-5.252770995721221">
        <ele>728.34000000000003</ele>
        <time>2025-04-29T10:36:37Z</time>
      </trkpt>
      <trkpt lat="43.142637982964516" lon="-5.252900999039412">
        <ele>726.40999999999997</ele>
        <time>2025-04-29T10:36:38Z</time>
      </trkpt>
      <trkpt lat="43.142740996554494" lon="-5.253052962943912">
        <ele>724.00999999999999</ele>
        <time>2025-04-29T10:36:39Z</time>
      </trkpt>
      <trkpt lat="43.142940988764167" lon="-5.25334800593555">
        <ele>720.15999999999997</ele>
        <time>2025-04-29T10:36:41Z</time>
      </trkpt>
      <trkpt lat="43.143036039546132" lon="-5.253487983718514">
        <ele>718.72000000000003</ele>
        <time>2025-04-29T10:36:42Z</time>
      </trkpt>
      <trkpt lat="43.143108962103724" lon="-5.253641959279776">
        <ele>716.79999999999995</ele>
        <time>2025-04-29T10:36:43Z</time>
      </trkpt>
      <trkpt lat="43.143166964873672" lon="-5.253805993124843">
        <ele>715.36000000000001</ele>
        <time>2025-04-29T10:36:44Z</time>
      </trkpt>
      <trkpt lat="43.143229996785522" lon="-5.253985030576587">
        <ele>713.91999999999996</ele>
        <time>2025-04-29T10:36:45Z</time>
      </trkpt>
      <trkpt lat="43.143284982070327" lon="-5.25414202362299">
        <ele>712.95000000000005</ele>
        <time>2025-04-29T10:36:46Z</time>
      </trkpt>
      <trkpt lat="43.14333401620388" lon="-5.254276972264051">
        <ele>711.50999999999999</ele>
        <time>2025-04-29T10:36:47Z</time>
      </trkpt>
      <trkpt lat="43.143423032015562" lon="-5.254388032481074">
        <ele>710.07000000000005</ele>
        <time>2025-04-29T10:36:48Z</time>
      </trkpt>
      <trkpt lat="43.143520010635257" lon="-5.254507977515459">
        <ele>708.63</ele>
        <time>2025-04-29T10:36:49Z</time>
      </trkpt>
      <trkpt lat="43.143626963719726" lon="-5.254640998318791">
        <ele>707.66999999999996</ele>
        <time>2025-04-29T10:36:50Z</time>
      </trkpt>
      <trkpt lat="43.14374104142189" lon="-5.254781981930137">
        <ele>706.23000000000002</ele>
        <time>2025-04-29T10:36:51Z</time>
      </trkpt>
      <trkpt lat="43.143837014213204" lon="-5.254963031038642">
        <ele>705.25999999999999</ele>
        <time>2025-04-29T10:36:52Z</time>
      </trkpt>
      <trkpt lat="43.143921000882983" lon="-5.255164029076695">
        <ele>704.29999999999995</ele>
        <time>2025-04-29T10:36:53Z</time>
      </trkpt>
      <trkpt lat="43.14434302970767" lon="-5.25611998513341">
        <ele>700.46000000000004</ele>
        <time>2025-04-29T10:36:58Z</time>
      </trkpt>
      <trkpt lat="43.144433973357081" lon="-5.256265997886658">
        <ele>699.98000000000002</ele>
        <time>2025-04-29T10:36:59Z</time>
      </trkpt>
      <trkpt lat="43.144545033574104" lon="-5.25639901868999">
        <ele>699.5</ele>
        <time>2025-04-29T10:37:00Z</time>
      </trkpt>
      <trkpt lat="43.144678976386786" lon="-5.256504965946078">
        <ele>698.52999999999997</ele>
        <time>2025-04-29T10:37:01Z</time>
      </trkpt>
      <trkpt lat="43.144817026332021" lon="-5.256605967879295">
        <ele>698.04999999999995</ele>
        <time>2025-04-29T10:37:02Z</time>
      </trkpt>
      <trkpt lat="43.14496798440814" lon="-5.256684003397822">
        <ele>697.09000000000003</ele>
        <time>2025-04-29T10:37:03Z</time>
      </trkpt>
      <trkpt lat="43.14567600376904" lon="-5.257046017795801">
        <ele>693.25</ele>
        <time>2025-04-29T10:37:08Z</time>
      </trkpt>
      <trkpt lat="43.145781029015779" lon="-5.257132016122341">
        <ele>692.76999999999998</ele>
        <time>2025-04-29T10:37:09Z</time>
      </trkpt>
      <trkpt lat="43.14587096683681" lon="-5.257233018055558">
        <ele>691.80999999999995</ele>
        <time>2025-04-29T10:37:10Z</time>
      </trkpt>
      <trkpt lat="43.145925030112267" lon="-5.257371990010142">
        <ele>691.33000000000004</ele>
        <time>2025-04-29T10:37:11Z</time>
      </trkpt>
      <trkpt lat="43.145983032882214" lon="-5.257521020248532">
        <ele>690.84000000000003</ele>
        <time>2025-04-29T10:37:12Z</time>
      </trkpt>
      <trkpt lat="43.146025026217103" lon="-5.257696034386754">
        <ele>689.88</ele>
        <time>2025-04-29T10:37:13Z</time>
      </trkpt>
      <trkpt lat="43.146043969318271" lon="-5.257869958877564">
        <ele>689.39999999999998</ele>
        <time>2025-04-29T10:37:14Z</time>
      </trkpt>
      <trkpt lat="43.14606299623847" lon="-5.258048996329308">
        <ele>688.91999999999996</ele>
        <time>2025-04-29T10:37:15Z</time>
      </trkpt>
      <trkpt lat="43.146099960431457" lon="-5.258387038484216">
        <ele>688.44000000000005</ele>
        <time>2025-04-29T10:37:17Z</time>
      </trkpt>
      <trkpt lat="43.146116975694895" lon="-5.258543025702238">
        <ele>687.96000000000004</ele>
        <time>2025-04-29T10:37:18Z</time>
      </trkpt>
      <trkpt lat="43.146159974858165" lon="-5.258671017363668">
        <ele>687.96000000000004</ele>
        <time>2025-04-29T10:37:19Z</time>
      </trkpt>
      <trkpt lat="43.146304981783032" lon="-5.258983997628093">
        <ele>687.48000000000002</ele>
        <time>2025-04-29T10:37:21Z</time>
      </trkpt>
      <trkpt lat="43.146808985620737" lon="-5.260304985567927">
        <ele>687.48000000000002</ele>
        <time>2025-04-29T10:37:28Z</time>
      </trkpt>
      <trkpt lat="43.146893978118896" lon="-5.26045803911984">
        <ele>687.48000000000002</ele>
        <time>2025-04-29T10:37:29Z</time>
      </trkpt>
      <trkpt lat="43.147020963951945" lon="-5.260684015229344">
        <ele>687.48000000000002</ele>
        <time>2025-04-29T10:37:31Z</time>
      </trkpt>
      <trkpt lat="43.147087013348937" lon="-5.260802032426">
        <ele>687.48000000000002</ele>
        <time>2025-04-29T10:37:32Z</time>
      </trkpt>
      <trkpt lat="43.147108973935246" lon="-5.260842014104128">
        <ele>687</ele>
        <time>2025-04-29T10:37:33Z</time>
      </trkpt>
      <trkpt lat="43.147108973935246" lon="-5.260842014104128">
        <ele>687</ele>
        <time>2025-04-29T10:37:35Z</time>
      </trkpt>
      <trkpt lat="43.147406028583646" lon="-5.261937025934458">
        <ele>687.96000000000004</ele>
        <time>2025-04-29T10:37:39Z</time>
      </trkpt>
      <trkpt lat="43.147664023563266" lon="-5.262118997052312">
        <ele>687.48000000000002</ele>
        <time>2025-04-29T10:37:41Z</time>
      </trkpt>
      <trkpt lat="43.148174984380603" lon="-5.262959031388164">
        <ele>692.28999999999996</ele>
        <time>2025-04-29T10:37:47Z</time>
      </trkpt>
      <trkpt lat="43.148568011820316" lon="-5.263331020250917">
        <ele>693.25</ele>
        <time>2025-04-29T10:37:51Z</time>
      </trkpt>
      <trkpt lat="43.148732967674732" lon="-5.264647984877229">
        <ele>691.80999999999995</ele>
        <time>2025-04-29T10:37:57Z</time>
      </trkpt>
      <trkpt lat="43.149489015340805" lon="-5.265502016991377">
        <ele>691.80999999999995</ele>
        <time>2025-04-29T10:38:03Z</time>
      </trkpt>
      <trkpt lat="43.150092009454966" lon="-5.266507007181644">
        <ele>691.33000000000004</ele>
        <time>2025-04-29T10:38:10Z</time>
      </trkpt>
      <trkpt lat="43.15010298974812" lon="-5.266839014366269">
        <ele>691.33000000000004</ele>
        <time>2025-04-29T10:38:11Z</time>
      </trkpt>
      <trkpt lat="43.150108018890023" lon="-5.26697002351284">
        <ele>691.80999999999995</ele>
        <time>2025-04-29T10:38:12Z</time>
      </trkpt>
      <trkpt lat="43.150112964212894" lon="-5.267107989639044">
        <ele>691.80999999999995</ele>
        <time>2025-04-29T10:38:13Z</time>
      </trkpt>
      <trkpt lat="43.150099972262979" lon="-5.267158029600978">
        <ele>691.80999999999995</ele>
        <time>2025-04-29T10:38:14Z</time>
      </trkpt>
      <trkpt lat="43.150049010291696" lon="-5.267344024032354">
        <ele>692.28999999999996</ele>
        <time>2025-04-29T10:38:15Z</time>
      </trkpt>
      <trkpt lat="43.150013973936439" lon="-5.267372019588947">
        <ele>692.28999999999996</ele>
        <time>2025-04-29T10:38:16Z</time>
      </trkpt>
      <trkpt lat="43.149915989488363" lon="-5.267453994601965">
        <ele>692.76999999999998</ele>
        <time>2025-04-29T10:38:17Z</time>
      </trkpt>
      <trkpt lat="43.149791015312076" lon="-5.267558014020324">
        <ele>692.76999999999998</ele>
        <time>2025-04-29T10:38:18Z</time>
      </trkpt>
      <trkpt lat="43.149718008935452" lon="-5.267667984589934">
        <ele>693.25</ele>
        <time>2025-04-29T10:38:19Z</time>
      </trkpt>
      <trkpt lat="43.149637039750814" lon="-5.267848027870059">
        <ele>693.25</ele>
        <time>2025-04-29T10:38:20Z</time>
      </trkpt>
      <trkpt lat="43.149593034759164" lon="-5.268016001209617">
        <ele>693.25</ele>
        <time>2025-04-29T10:38:21Z</time>
      </trkpt>
      <trkpt lat="43.149550035595894" lon="-5.268212975934148">
        <ele>693.25</ele>
        <time>2025-04-29T10:38:22Z</time>
      </trkpt>
      <trkpt lat="43.149531008675694" lon="-5.268397964537144">
        <ele>693.25</ele>
        <time>2025-04-29T10:38:23Z</time>
      </trkpt>
      <trkpt lat="43.149511981755495" lon="-5.26858001947403">
        <ele>693.73000000000002</ele>
        <time>2025-04-29T10:38:24Z</time>
      </trkpt>
      <trkpt lat="43.149491026997566" lon="-5.268781017512083">
        <ele>693.73000000000002</ele>
        <time>2025-04-29T10:38:25Z</time>
      </trkpt>
      <trkpt lat="43.149434030056" lon="-5.268900040537119">
        <ele>693.73000000000002</ele>
        <time>2025-04-29T10:38:26Z</time>
      </trkpt>
      <trkpt lat="43.149353982880712" lon="-5.269068013876677">
        <ele>693.73000000000002</ele>
        <time>2025-04-29T10:38:27Z</time>
      </trkpt>
      <trkpt lat="43.149275025352836" lon="-5.269234981387854">
        <ele>693.73000000000002</ele>
        <time>2025-04-29T10:38:28Z</time>
      </trkpt>
      <trkpt lat="43.149194978177547" lon="-5.269402032718062">
        <ele>693.25</ele>
        <time>2025-04-29T10:38:29Z</time>
      </trkpt>
      <trkpt lat="43.149039996787906" lon="-5.269728004932404">
        <ele>692.76999999999998</ele>
        <time>2025-04-29T10:38:31Z</time>
      </trkpt>
      <trkpt lat="43.148967996239662" lon="-5.269879968836904">
        <ele>692.28999999999996</ele>
        <time>2025-04-29T10:38:32Z</time>
      </trkpt>
      <trkpt lat="43.148897001519799" lon="-5.270028999075294">
        <ele>692.28999999999996</ele>
        <time>2025-04-29T10:38:33Z</time>
      </trkpt>
      <trkpt lat="43.148826006799936" lon="-5.270168976858258">
        <ele>691.80999999999995</ele>
        <time>2025-04-29T10:38:34Z</time>
      </trkpt>
      <trkpt lat="43.148736990988255" lon="-5.270314989611507">
        <ele>691.33000000000004</ele>
        <time>2025-04-29T10:38:35Z</time>
      </trkpt>
      <trkpt lat="43.148471033200622" lon="-5.270769037306309">
        <ele>689.39999999999998</ele>
        <time>2025-04-29T10:38:38Z</time>
      </trkpt>
      <trkpt lat="43.148354021832347" lon="-5.271119987592101">
        <ele>687.48000000000002</ele>
        <time>2025-04-29T10:38:40Z</time>
      </trkpt>
      <trkpt lat="43.148360978811979" lon="-5.271273963153362">
        <ele>686.51999999999998</ele>
        <time>2025-04-29T10:38:41Z</time>
      </trkpt>
      <trkpt lat="43.148369025439024" lon="-5.271434979513288">
        <ele>685.55999999999995</ele>
        <time>2025-04-29T10:38:42Z</time>
      </trkpt>
      <trkpt lat="43.148386040702462" lon="-5.271794982254505">
        <ele>684.60000000000002</ele>
        <time>2025-04-29T10:38:44Z</time>
      </trkpt>
      <trkpt lat="43.148739002645016" lon="-5.273389974609017">
        <ele>680.75</ele>
        <time>2025-04-29T10:38:52Z</time>
      </trkpt>
      <trkpt lat="43.149059023708105" lon="-5.274762008339167">
        <ele>677.87</ele>
        <time>2025-04-29T10:38:59Z</time>
      </trkpt>
      <trkpt lat="43.149105040356517" lon="-5.274917995557189">
        <ele>677.87</ele>
        <time>2025-04-29T10:39:00Z</time>
      </trkpt>
      <trkpt lat="43.149077966809273" lon="-5.274997036904097">
        <ele>678.35000000000002</ele>
        <time>2025-04-29T10:39:01Z</time>
      </trkpt>
      <trkpt lat="43.148996997624636" lon="-5.27524002827704">
        <ele>679.30999999999995</ele>
        <time>2025-04-29T10:39:03Z</time>
      </trkpt>
      <trkpt lat="43.149003032594919" lon="-5.275375982746482">
        <ele>679.78999999999996</ele>
        <time>2025-04-29T10:39:04Z</time>
      </trkpt>
      <trkpt lat="43.149009989574552" lon="-5.275529958307743">
        <ele>680.26999999999998</ele>
        <time>2025-04-29T10:39:05Z</time>
      </trkpt>
      <trkpt lat="43.149017030373216" lon="-5.275684017688036">
        <ele>681.23000000000002</ele>
        <time>2025-04-29T10:39:06Z</time>
      </trkpt>
      <trkpt lat="43.149022981524467" lon="-5.275834975764155">
        <ele>681.71000000000004</ele>
        <time>2025-04-29T10:39:07Z</time>
      </trkpt>
      <trkpt lat="43.149030022323132" lon="-5.275987023487687">
        <ele>682.66999999999996</ele>
        <time>2025-04-29T10:39:08Z</time>
      </trkpt>
      <trkpt lat="43.149031028151512" lon="-5.277053033933044">
        <ele>684.60000000000002</ele>
        <time>2025-04-29T10:39:15Z</time>
      </trkpt>
      <trkpt lat="43.148871017619967" lon="-5.278473012149334">
        <ele>688.44000000000005</ele>
        <time>2025-04-29T10:39:24Z</time>
      </trkpt>
      <trkpt lat="43.148884009569883" lon="-5.278817005455494">
        <ele>689.39999999999998</ele>
        <time>2025-04-29T10:39:26Z</time>
      </trkpt>
      <trkpt lat="43.148912005126476" lon="-5.279510021209717">
        <ele>690.84000000000003</ele>
        <time>2025-04-29T10:39:30Z</time>
      </trkpt>
      <trkpt lat="43.148861965164542" lon="-5.2798390109092">
        <ele>691.33000000000004</ele>
        <time>2025-04-29T10:39:32Z</time>
      </trkpt>
      <trkpt lat="43.148849979043007" lon="-5.280018970370293">
        <ele>692.28999999999996</ele>
        <time>2025-04-29T10:39:33Z</time>
      </trkpt>
      <trkpt lat="43.148862970992923" lon="-5.280543006956577">
        <ele>693.25</ele>
        <time>2025-04-29T10:39:36Z</time>
      </trkpt>
      <trkpt lat="43.148848973214626" lon="-5.28072003275156">
        <ele>694.21000000000004</ele>
        <time>2025-04-29T10:39:37Z</time>
      </trkpt>
      <trkpt lat="43.148837992921472" lon="-5.281080035492778">
        <ele>695.16999999999996</ele>
        <time>2025-04-29T10:39:39Z</time>
      </trkpt>
      <trkpt lat="43.148869005963206" lon="-5.281243985518813">
        <ele>696.13</ele>
        <time>2025-04-29T10:39:40Z</time>
      </trkpt>
      <trkpt lat="43.148973025381565" lon="-5.281716976314783">
        <ele>697.57000000000005</ele>
        <time>2025-04-29T10:39:43Z</time>
      </trkpt>
      <trkpt lat="43.149018958210945" lon="-5.281866006553173">
        <ele>698.04999999999995</ele>
        <time>2025-04-29T10:39:44Z</time>
      </trkpt>
      <trkpt lat="43.149089030921459" lon="-5.282035991549492">
        <ele>698.52999999999997</ele>
        <time>2025-04-29T10:39:45Z</time>
      </trkpt>
      <trkpt lat="43.14917997457087" lon="-5.282159959897399">
        <ele>699.01999999999998</ele>
        <time>2025-04-29T10:39:46Z</time>
      </trkpt>
      <trkpt lat="43.149273013696074" lon="-5.282286023721099">
        <ele>699.5</ele>
        <time>2025-04-29T10:39:47Z</time>
      </trkpt>
      <trkpt lat="43.149367980659008" lon="-5.282424995675683">
        <ele>699.5</ele>
        <time>2025-04-29T10:39:48Z</time>
      </trkpt>
      <trkpt lat="43.14943696372211" lon="-5.282621970400214">
        <ele>699.01999999999998</ele>
        <time>2025-04-29T10:39:49Z</time>
      </trkpt>
      <trkpt lat="43.150094021111727" lon="-5.284197013825178">
        <ele>692.76999999999998</ele>
        <time>2025-04-29T10:39:57Z</time>
      </trkpt>
      <trkpt lat="43.150357967242599" lon="-5.28493101708591">
        <ele>687.48000000000002</ele>
        <time>2025-04-29T10:40:01Z</time>
      </trkpt>
      <trkpt lat="43.15040398389101" lon="-5.285098990425468">
        <ele>685.08000000000004</ele>
        <time>2025-04-29T10:40:02Z</time>
      </trkpt>
      <trkpt lat="43.150413958355784" lon="-5.285277022048831">
        <ele>683.63</ele>
        <time>2025-04-29T10:40:03Z</time>
      </trkpt>
      <trkpt lat="43.150413958355784" lon="-5.285438960418105">
        <ele>681.71000000000004</ele>
        <time>2025-04-29T10:40:04Z</time>
      </trkpt>
      <trkpt lat="43.150413958355784" lon="-5.285581033676863">
        <ele>679.78999999999996</ele>
        <time>2025-04-29T10:40:05Z</time>
      </trkpt>
      <trkpt lat="43.150440026074648" lon="-5.285680023953319">
        <ele>678.35000000000002</ele>
        <time>2025-04-29T10:40:06Z</time>
      </trkpt>
      <trkpt lat="43.150475984439254" lon="-5.285782031714916">
        <ele>676.90999999999997</ele>
        <time>2025-04-29T10:40:07Z</time>
      </trkpt>
      <trkpt lat="43.150515966117382" lon="-5.285895019769669">
        <ele>675.94000000000005</ele>
        <time>2025-04-29T10:40:08Z</time>
      </trkpt>
      <trkpt lat="43.150563994422555" lon="-5.286023011431098">
        <ele>674.5</ele>
        <time>2025-04-29T10:40:09Z</time>
      </trkpt>
      <trkpt lat="43.151137987151742" lon="-5.287438966333866">
        <ele>665.37</ele>
        <time>2025-04-29T10:40:18Z</time>
      </trkpt>
      <trkpt lat="43.151821028441191" lon="-5.289034964516759">
        <ele>660.55999999999995</ele>
        <time>2025-04-29T10:40:28Z</time>
      </trkpt>
      <trkpt lat="43.151872996240854" lon="-5.289145018905401">
        <ele>660.55999999999995</ele>
        <time>2025-04-29T10:40:29Z</time>
      </trkpt>
      <trkpt lat="43.151963017880917" lon="-5.289307041093707">
        <ele>660.55999999999995</ele>
        <time>2025-04-29T10:40:30Z</time>
      </trkpt>
      <trkpt lat="43.152039041742682" lon="-5.289440983906388">
        <ele>660.55999999999995</ele>
        <time>2025-04-29T10:40:31Z</time>
      </trkpt>
      <trkpt lat="43.152112970128655" lon="-5.289574004709721">
        <ele>660.08000000000004</ele>
        <time>2025-04-29T10:40:32Z</time>
      </trkpt>
      <trkpt lat="43.152182959020138" lon="-5.289703002199531">
        <ele>660.08000000000004</ele>
        <time>2025-04-29T10:40:33Z</time>
      </trkpt>
      <trkpt lat="43.152240039780736" lon="-5.289837028831244">
        <ele>659.60000000000002</ele>
        <time>2025-04-29T10:40:34Z</time>
      </trkpt>
      <trkpt lat="43.152301982045174" lon="-5.289981029927731">
        <ele>659.12</ele>
        <time>2025-04-29T10:40:35Z</time>
      </trkpt>
      <trkpt lat="43.152346992865205" lon="-5.29010902158916">
        <ele>659.12</ele>
        <time>2025-04-29T10:40:36Z</time>
      </trkpt>
      <trkpt lat="43.152441037818789" lon="-5.290377996861935">
        <ele>658.63999999999999</ele>
        <time>2025-04-29T10:40:38Z</time>
      </trkpt>
      <trkpt lat="43.152581015601754" lon="-5.290774963796139">
        <ele>658.15999999999997</ele>
        <time>2025-04-29T10:40:41Z</time>
      </trkpt>
      <trkpt lat="43.15265896730125" lon="-5.290879989042878">
        <ele>657.67999999999995</ele>
        <time>2025-04-29T10:40:42Z</time>
      </trkpt>
      <trkpt lat="43.152825012803078" lon="-5.291100014001131">
        <ele>656.72000000000003</ele>
        <time>2025-04-29T10:40:44Z</time>
      </trkpt>
      <trkpt lat="43.152913022786379" lon="-5.291231023147702">
        <ele>656.72000000000003</ele>
        <time>2025-04-29T10:40:45Z</time>
      </trkpt>
      <trkpt lat="43.152991980314255" lon="-5.291390027850866">
        <ele>655.75999999999999</ele>
        <time>2025-04-29T10:40:46Z</time>
      </trkpt>
      <trkpt lat="43.153054006397724" lon="-5.291583985090256">
        <ele>655.27999999999997</ele>
        <time>2025-04-29T10:40:47Z</time>
      </trkpt>
      <trkpt lat="43.153117038309574" lon="-5.291783977299929">
        <ele>655.27999999999997</ele>
        <time>2025-04-29T10:40:48Z</time>
      </trkpt>
      <trkpt lat="43.153156014159322" lon="-5.29200199060142">
        <ele>654.79999999999995</ele>
        <time>2025-04-29T10:40:49Z</time>
      </trkpt>
      <trkpt lat="43.153266990557313" lon="-5.292631974443793">
        <ele>653.83000000000004</ele>
        <time>2025-04-29T10:40:52Z</time>
      </trkpt>
      <trkpt lat="43.153250981122255" lon="-5.292826015502214">
        <ele>653.35000000000002</ele>
        <time>2025-04-29T10:40:53Z</time>
      </trkpt>
      <trkpt lat="43.153234971687198" lon="-5.293023996055126">
        <ele>652.87</ele>
        <time>2025-04-29T10:40:54Z</time>
      </trkpt>
      <trkpt lat="43.15304403193295" lon="-5.294895004481077">
        <ele>651.42999999999995</ele>
        <time>2025-04-29T10:41:03Z</time>
      </trkpt>
      <trkpt lat="43.153085019439459" lon="-5.29550101608038">
        <ele>651.42999999999995</ele>
        <time>2025-04-29T10:41:06Z</time>
      </trkpt>
      <trkpt lat="43.153189960867167" lon="-5.296281035989523">
        <ele>651.90999999999997</ele>
        <time>2025-04-29T10:41:10Z</time>
      </trkpt>
      <trkpt lat="43.153269002214074" lon="-5.296452026814222">
        <ele>651.90999999999997</ele>
        <time>2025-04-29T10:41:11Z</time>
      </trkpt>
      <trkpt lat="43.153364975005388" lon="-5.296598961576819">
        <ele>651.90999999999997</ele>
        <time>2025-04-29T10:41:12Z</time>
      </trkpt>
      <trkpt lat="43.153674015775323" lon="-5.297010010108352">
        <ele>652.87</ele>
        <time>2025-04-29T10:41:15Z</time>
      </trkpt>
      <trkpt lat="43.154532993212342" lon="-5.297921039164066">
        <ele>651.42999999999995</ele>
        <time>2025-04-29T10:41:22Z</time>
      </trkpt>
      <trkpt lat="43.154622009024024" lon="-5.298062022775412">
        <ele>650.47000000000003</ele>
        <time>2025-04-29T10:41:23Z</time>
      </trkpt>
      <trkpt lat="43.154685962945223" lon="-5.298250028863549">
        <ele>649.99000000000001</ele>
        <time>2025-04-29T10:41:24Z</time>
      </trkpt>
      <trkpt lat="43.155019981786609" lon="-5.299232974648476">
        <ele>647.10000000000002</ele>
        <time>2025-04-29T10:41:30Z</time>
      </trkpt>
      <trkpt lat="43.155070021748543" lon="-5.299316039308906">
        <ele>647.10000000000002</ele>
        <time>2025-04-29T10:41:31Z</time>
      </trkpt>
      <trkpt lat="43.1551309581846" lon="-5.299337999895215">
        <ele>646.62</ele>
        <time>2025-04-29T10:41:32Z</time>
      </trkpt>
      <trkpt lat="43.155242018401623" lon="-5.299379993230104">
        <ele>646.13999999999999</ele>
        <time>2025-04-29T10:41:33Z</time>
      </trkpt>
      <trkpt lat="43.155327010899782" lon="-5.299345040693879">
        <ele>646.13999999999999</ele>
        <time>2025-04-29T10:41:34Z</time>
      </trkpt>
      <trkpt lat="43.155423989519477" lon="-5.299304975196719">
        <ele>646.13999999999999</ele>
        <time>2025-04-29T10:41:35Z</time>
      </trkpt>
      <trkpt lat="43.155519962310791" lon="-5.299264993518591">
        <ele>645.65999999999997</ele>
        <time>2025-04-29T10:41:36Z</time>
      </trkpt>
      <trkpt lat="43.155617024749517" lon="-5.299230040982366">
        <ele>645.65999999999997</ele>
        <time>2025-04-29T10:41:37Z</time>
      </trkpt>
      <trkpt lat="43.155717020854354" lon="-5.299230040982366">
        <ele>645.65999999999997</ele>
        <time>2025-04-29T10:41:38Z</time>
      </trkpt>
      <trkpt lat="43.15581701695919" lon="-5.299289971590042">
        <ele>645.17999999999995</ele>
        <time>2025-04-29T10:41:39Z</time>
      </trkpt>
      <trkpt lat="43.155905026942492" lon="-5.299394996836782">
        <ele>645.17999999999995</ele>
        <time>2025-04-29T10:41:40Z</time>
      </trkpt>
      <trkpt lat="43.155995970591903" lon="-5.299522988498211">
        <ele>645.17999999999995</ele>
        <time>2025-04-29T10:41:41Z</time>
      </trkpt>
      <trkpt lat="43.156793005764484" lon="-5.300571983680129">
        <ele>643.74000000000001</ele>
        <time>2025-04-29T10:41:48Z</time>
      </trkpt>
      <trkpt lat="43.156924014911056" lon="-5.300687989220023">
        <ele>643.25999999999999</ele>
        <time>2025-04-29T10:41:49Z</time>
      </trkpt>
      <trkpt lat="43.157153008505702" lon="-5.300890998914838">
        <ele>642.29999999999995</ele>
        <time>2025-04-29T10:41:51Z</time>
      </trkpt>
      <trkpt lat="43.157225009053946" lon="-5.300984038040042">
        <ele>642.29999999999995</ele>
        <time>2025-04-29T10:41:52Z</time>
      </trkpt>
      <trkpt lat="43.157259039580822" lon="-5.30113197863102">
        <ele>641.82000000000005</ele>
        <time>2025-04-29T10:41:53Z</time>
      </trkpt>
      <trkpt lat="43.157489961013198" lon="-5.302519015967846">
        <ele>639.88999999999999</ele>
        <time>2025-04-29T10:42:00Z</time>
      </trkpt>
      <trkpt lat="43.157569002360106" lon="-5.302868038415909">
        <ele>638.45000000000005</ele>
        <time>2025-04-29T10:42:02Z</time>
      </trkpt>
      <trkpt lat="43.157682996243238" lon="-5.303170038387179">
        <ele>637.49000000000001</ele>
        <time>2025-04-29T10:42:04Z</time>
      </trkpt>
      <trkpt lat="43.157739993184805" lon="-5.303317978978157">
        <ele>637.49000000000001</ele>
        <time>2025-04-29T10:42:05Z</time>
      </trkpt>
      <trkpt lat="43.157795984297991" lon="-5.303467009216547">
        <ele>637.00999999999999</ele>
        <time>2025-04-29T10:42:06Z</time>
      </trkpt>
      <trkpt lat="43.157868990674615" lon="-5.303573962301016">
        <ele>637.00999999999999</ele>
        <time>2025-04-29T10:42:07Z</time>
      </trkpt>
      <trkpt lat="43.15796697512269" lon="-5.303671024739742">
        <ele>637.00999999999999</ele>
        <time>2025-04-29T10:42:08Z</time>
      </trkpt>
      <trkpt lat="43.158070994541049" lon="-5.30377596616745">
        <ele>637.00999999999999</ele>
        <time>2025-04-29T10:42:09Z</time>
      </trkpt>
      <trkpt lat="43.15818197093904" lon="-5.303887026384473">
        <ele>637.00999999999999</ele>
        <time>2025-04-29T10:42:10Z</time>
      </trkpt>
      <trkpt lat="43.158301999792457" lon="-5.304005965590477">
        <ele>637.49000000000001</ele>
        <time>2025-04-29T10:42:11Z</time>
      </trkpt>
      <trkpt lat="43.159300033003092" lon="-5.30529904179275">
        <ele>640.38</ele>
        <time>2025-04-29T10:42:20Z</time>
      </trkpt>
      <trkpt lat="43.160155992954969" lon="-5.306892022490501">
        <ele>635.57000000000005</ele>
        <time>2025-04-29T10:42:29Z</time>
      </trkpt>
      <trkpt lat="43.16032899543643" lon="-5.307238027453423">
        <ele>634.61000000000001</ele>
        <time>2025-04-29T10:42:31Z</time>
      </trkpt>
      <trkpt lat="43.160422034561634" lon="-5.307393008843064">
        <ele>634.13</ele>
        <time>2025-04-29T10:42:32Z</time>
      </trkpt>
      <trkpt lat="43.16054399125278" lon="-5.30751496553421">
        <ele>633.64999999999998</ele>
        <time>2025-04-29T10:42:33Z</time>
      </trkpt>
      <trkpt lat="43.160926038399339" lon="-5.307823000475764">
        <ele>631.72000000000003</ele>
        <time>2025-04-29T10:42:36Z</time>
      </trkpt>
      <trkpt lat="43.161035003140569" lon="-5.30789902433753">
        <ele>630.75999999999999</ele>
        <time>2025-04-29T10:42:37Z</time>
      </trkpt>
      <trkpt lat="43.161127036437392" lon="-5.307970019057393">
        <ele>629.79999999999995</ele>
        <time>2025-04-29T10:42:38Z</time>
      </trkpt>
      <trkpt lat="43.161196019500494" lon="-5.308023998513818">
        <ele>628.84000000000003</ele>
        <time>2025-04-29T10:42:39Z</time>
      </trkpt>
      <trkpt lat="43.161223009228706" lon="-5.308094993233681">
        <ele>627.88</ele>
        <time>2025-04-29T10:42:40Z</time>
      </trkpt>
      <trkpt lat="43.161212028935552" lon="-5.308192977681756">
        <ele>626.91999999999996</ele>
        <time>2025-04-29T10:42:41Z</time>
      </trkpt>
      <trkpt lat="43.161199036985636" lon="-5.30830797739327">
        <ele>626.44000000000005</ele>
        <time>2025-04-29T10:42:42Z</time>
      </trkpt>
      <trkpt lat="43.161185961216688" lon="-5.308431023731828">
        <ele>625.47000000000003</ele>
        <time>2025-04-29T10:42:43Z</time>
      </trkpt>
      <trkpt lat="43.161171041429043" lon="-5.308563960716128">
        <ele>624.50999999999999</ele>
        <time>2025-04-29T10:42:44Z</time>
      </trkpt>
      <trkpt lat="43.161179004237056" lon="-5.308701004832983">
        <ele>624.02999999999997</ele>
        <time>2025-04-29T10:42:45Z</time>
      </trkpt>
      <trkpt lat="43.161205993965268" lon="-5.308835031464696">
        <ele>623.07000000000005</ele>
        <time>2025-04-29T10:42:46Z</time>
      </trkpt>
      <trkpt lat="43.161234995350242" lon="-5.308976015076041">
        <ele>622.11000000000001</ele>
        <time>2025-04-29T10:42:47Z</time>
      </trkpt>
      <trkpt lat="43.161312025040388" lon="-5.309348003938794">
        <ele>619.71000000000004</ele>
        <time>2025-04-29T10:42:50Z</time>
      </trkpt>
      <trkpt lat="43.161354018375278" lon="-5.309407012537122">
        <ele>618.75</ele>
        <time>2025-04-29T10:42:51Z</time>
      </trkpt>
      <trkpt lat="43.161390982568264" lon="-5.309453029185534">
        <ele>617.29999999999995</ele>
        <time>2025-04-29T10:42:52Z</time>
      </trkpt>
      <trkpt lat="43.161429036408663" lon="-5.309450011700392">
        <ele>616.34000000000003</ele>
        <time>2025-04-29T10:42:53Z</time>
      </trkpt>
      <trkpt lat="43.161469018086791" lon="-5.309430984780192">
        <ele>614.89999999999998</ele>
        <time>2025-04-29T10:42:54Z</time>
      </trkpt>
      <trkpt lat="43.161491984501481" lon="-5.309382034465671">
        <ele>613.94000000000005</ele>
        <time>2025-04-29T10:42:55Z</time>
      </trkpt>
      <trkpt lat="43.161506988108158" lon="-5.309293018653989">
        <ele>612.98000000000002</ele>
        <time>2025-04-29T10:42:56Z</time>
      </trkpt>
      <trkpt lat="43.161504976451397" lon="-5.30918899923563">
        <ele>612.01999999999998</ele>
        <time>2025-04-29T10:42:57Z</time>
      </trkpt>
      <trkpt lat="43.161501958966255" lon="-5.309072993695736">
        <ele>610.57000000000005</ele>
        <time>2025-04-29T10:42:58Z</time>
      </trkpt>
      <trkpt lat="43.161499025300145" lon="-5.30895103700459">
        <ele>609.61000000000001</ele>
        <time>2025-04-29T10:42:59Z</time>
      </trkpt>
      <trkpt lat="43.161496007815003" lon="-5.308830002322793">
        <ele>608.64999999999998</ele>
        <time>2025-04-29T10:43:00Z</time>
      </trkpt>
      <trkpt lat="43.161497013643384" lon="-5.308272019028664">
        <ele>605.28999999999996</ele>
        <time>2025-04-29T10:43:05Z</time>
      </trkpt>
      <trkpt lat="43.161507993936539" lon="-5.308165987953544">
        <ele>604.80999999999995</ele>
        <time>2025-04-29T10:43:06Z</time>
      </trkpt>
      <trkpt lat="43.161519980058074" lon="-5.308063980191946">
        <ele>604.33000000000004</ele>
        <time>2025-04-29T10:43:07Z</time>
      </trkpt>
      <trkpt lat="43.161536995321512" lon="-5.307960966601968">
        <ele>603.85000000000002</ele>
        <time>2025-04-29T10:43:08Z</time>
      </trkpt>
      <trkpt lat="43.161568008363247" lon="-5.307874968275428">
        <ele>603.85000000000002</ele>
        <time>2025-04-29T10:43:09Z</time>
      </trkpt>
      <trkpt lat="43.161650989204645" lon="-5.30770598910749">
        <ele>602.88</ele>
        <time>2025-04-29T10:43:11Z</time>
      </trkpt>
      <trkpt lat="43.161697005853057" lon="-5.307652009651065">
        <ele>602.39999999999998</ele>
        <time>2025-04-29T10:43:12Z</time>
      </trkpt>
      <trkpt lat="43.161806976422668" lon="-5.307614039629698">
        <ele>602.39999999999998</ele>
        <time>2025-04-29T10:43:13Z</time>
      </trkpt>
      <trkpt lat="43.161895992234349" lon="-5.307647986337543">
        <ele>601.44000000000005</ele>
        <time>2025-04-29T10:43:14Z</time>
      </trkpt>
      <trkpt lat="43.161987019702792" lon="-5.30768696218729">
        <ele>601.44000000000005</ele>
        <time>2025-04-29T10:43:15Z</time>
      </trkpt>
      <trkpt lat="43.162076035514474" lon="-5.30772702768445">
        <ele>600.96000000000004</ele>
        <time>2025-04-29T10:43:16Z</time>
      </trkpt>
      <trkpt lat="43.16258498467505" lon="-5.30796498991549">
        <ele>602.88</ele>
        <time>2025-04-29T10:43:22Z</time>
      </trkpt>
      <trkpt lat="43.162655979394913" lon="-5.308029027655721">
        <ele>602.88</ele>
        <time>2025-04-29T10:43:23Z</time>
      </trkpt>
      <trkpt lat="43.162719011306763" lon="-5.308112008497119">
        <ele>602.88</ele>
        <time>2025-04-29T10:43:24Z</time>
      </trkpt>
      <trkpt lat="43.162781959399581" lon="-5.308223990723491">
        <ele>603.36000000000001</ele>
        <time>2025-04-29T10:43:25Z</time>
      </trkpt>
      <trkpt lat="43.162839040160179" lon="-5.308352988213301">
        <ele>603.36000000000001</ele>
        <time>2025-04-29T10:43:26Z</time>
      </trkpt>
      <trkpt lat="43.162900982424617" lon="-5.308491960167885">
        <ele>603.85000000000002</ele>
        <time>2025-04-29T10:43:27Z</time>
      </trkpt>
      <trkpt lat="43.163199964910746" lon="-5.30942402780056">
        <ele>608.16999999999996</ele>
        <time>2025-04-29T10:43:33Z</time>
      </trkpt>
      <trkpt lat="43.163271965458989" lon="-5.309574985876679">
        <ele>608.64999999999998</ele>
        <time>2025-04-29T10:43:34Z</time>
      </trkpt>
      <trkpt lat="43.163415966555476" lon="-5.309875980019569">
        <ele>609.61000000000001</ele>
        <time>2025-04-29T10:43:36Z</time>
      </trkpt>
      <trkpt lat="43.16348503343761" lon="-5.310020986944437">
        <ele>610.09000000000003</ele>
        <time>2025-04-29T10:43:37Z</time>
      </trkpt>
      <trkpt lat="43.163630962371826" lon="-5.310303037986159">
        <ele>611.05999999999995</ele>
        <time>2025-04-29T10:43:39Z</time>
      </trkpt>
      <trkpt lat="43.164447024464607" lon="-5.311612039804459">
        <ele>614.41999999999996</ele>
        <time>2025-04-29T10:43:48Z</time>
      </trkpt>
      <trkpt lat="43.16460401751101" lon="-5.311924014240503">
        <ele>614.41999999999996</ele>
        <time>2025-04-29T10:43:50Z</time>
      </trkpt>
      <trkpt lat="43.164685992524028" lon="-5.312053011730313">
        <ele>614.89999999999998</ele>
        <time>2025-04-29T10:43:51Z</time>
      </trkpt>
      <trkpt lat="43.16477601416409" lon="-5.312159964814782">
        <ele>614.89999999999998</ele>
        <time>2025-04-29T10:43:52Z</time>
      </trkpt>
      <trkpt lat="43.164865029975772" lon="-5.312259960919619">
        <ele>614.89999999999998</ele>
        <time>2025-04-29T10:43:53Z</time>
      </trkpt>
      <trkpt lat="43.16496997140348" lon="-5.312321987003088">
        <ele>615.38</ele>
        <time>2025-04-29T10:43:54Z</time>
      </trkpt>
      <trkpt lat="43.165074996650219" lon="-5.312383007258177">
        <ele>615.86000000000001</ele>
        <time>2025-04-29T10:43:55Z</time>
      </trkpt>
      <trkpt lat="43.165194019675255" lon="-5.312428018078208">
        <ele>616.82000000000005</ele>
        <time>2025-04-29T10:43:56Z</time>
      </trkpt>
      <trkpt lat="43.165700035169721" lon="-5.312573025003076">
        <ele>620.66999999999996</ele>
        <time>2025-04-29T10:44:00Z</time>
      </trkpt>
      <trkpt lat="43.165817968547344" lon="-5.312542011961341">
        <ele>621.63</ele>
        <time>2025-04-29T10:44:01Z</time>
      </trkpt>
      <trkpt lat="43.165923999622464" lon="-5.312505969777703">
        <ele>622.11000000000001</ele>
        <time>2025-04-29T10:44:02Z</time>
      </trkpt>
      <trkpt lat="43.16602298989892" lon="-5.312473028898239">
        <ele>623.07000000000005</ele>
        <time>2025-04-29T10:44:03Z</time>
      </trkpt>
      <trkpt lat="43.166122986003757" lon="-5.312440004199743">
        <ele>624.02999999999997</ele>
        <time>2025-04-29T10:44:04Z</time>
      </trkpt>
      <trkpt lat="43.166214013472199" lon="-5.312409996986389">
        <ele>624.99000000000001</ele>
        <time>2025-04-29T10:44:05Z</time>
      </trkpt>
      <trkpt lat="43.166252989321947" lon="-5.312460958957672">
        <ele>626.44000000000005</ele>
        <time>2025-04-29T10:44:06Z</time>
      </trkpt>
      <trkpt lat="43.166290959343314" lon="-5.312547041103244">
        <ele>627.39999999999998</ele>
        <time>2025-04-29T10:44:07Z</time>
      </trkpt>
      <trkpt lat="43.166314009577036" lon="-5.312598003074527">
        <ele>627.88</ele>
        <time>2025-04-29T10:44:08Z</time>
      </trkpt>
      <trkpt lat="43.166290037333965" lon="-5.312655000016093">
        <ele>628.84000000000003</ele>
        <time>2025-04-29T10:44:09Z</time>
      </trkpt>
      <trkpt lat="43.166249971836805" lon="-5.312750972807407">
        <ele>629.79999999999995</ele>
        <time>2025-04-29T10:44:10Z</time>
      </trkpt>
      <trkpt lat="43.166205966845155" lon="-5.312854992225766">
        <ele>630.75999999999999</ele>
        <time>2025-04-29T10:44:11Z</time>
      </trkpt>
      <trkpt lat="43.166136983782053" lon="-5.312944008037448">
        <ele>631.72000000000003</ele>
        <time>2025-04-29T10:44:12Z</time>
      </trkpt>
      <trkpt lat="43.165970016270876" lon="-5.313198985531926">
        <ele>634.13</ele>
        <time>2025-04-29T10:44:15Z</time>
      </trkpt>
      <trkpt lat="43.165960041806102" lon="-5.313296969980001">
        <ele>635.09000000000003</ele>
        <time>2025-04-29T10:44:16Z</time>
      </trkpt>
      <trkpt lat="43.165948977693915" lon="-5.313392020761967">
        <ele>635.57000000000005</ele>
        <time>2025-04-29T10:44:17Z</time>
      </trkpt>
      <trkpt lat="43.165959035977721" lon="-5.313523029908538">
        <ele>636.52999999999997</ele>
        <time>2025-04-29T10:44:18Z</time>
      </trkpt>
      <trkpt lat="43.165968004614115" lon="-5.313644986599684">
        <ele>637.00999999999999</ele>
        <time>2025-04-29T10:44:19Z</time>
      </trkpt>
      <trkpt lat="43.16600002348423" lon="-5.313751017674804">
        <ele>637.97000000000003</ele>
        <time>2025-04-29T10:44:20Z</time>
      </trkpt>
      <trkpt lat="43.166061965748668" lon="-5.313857970759273">
        <ele>638.45000000000005</ele>
        <time>2025-04-29T10:44:21Z</time>
      </trkpt>
      <trkpt lat="43.166165985167027" lon="-5.3139169793576">
        <ele>638.92999999999995</ele>
        <time>2025-04-29T10:44:22Z</time>
      </trkpt>
      <trkpt lat="43.166276961565018" lon="-5.313981017097831">
        <ele>639.40999999999997</ele>
        <time>2025-04-29T10:44:23Z</time>
      </trkpt>
      <trkpt lat="43.166783982887864" lon="-5.314290979877114">
        <ele>640.86000000000001</ele>
        <time>2025-04-29T10:44:27Z</time>
      </trkpt>
      <trkpt lat="43.167718984186649" lon="-5.314957005903125">
        <ele>640.38</ele>
        <time>2025-04-29T10:44:34Z</time>
      </trkpt>
      <trkpt lat="43.168607968837023" lon="-5.31582796946168">
        <ele>635.09000000000003</ele>
        <time>2025-04-29T10:44:41Z</time>
      </trkpt>
      <trkpt lat="43.168721962720156" lon="-5.315980017185211">
        <ele>634.13</ele>
        <time>2025-04-29T10:44:42Z</time>
      </trkpt>
      <trkpt lat="43.168825982138515" lon="-5.316119994968176">
        <ele>633.16999999999996</ele>
        <time>2025-04-29T10:44:43Z</time>
      </trkpt>
      <trkpt lat="43.169969022274017" lon="-5.31720201484859">
        <ele>625.47000000000003</ele>
        <time>2025-04-29T10:44:52Z</time>
      </trkpt>
      <trkpt lat="43.170084021985531" lon="-5.317338975146413">
        <ele>624.99000000000001</ele>
        <time>2025-04-29T10:44:53Z</time>
      </trkpt>
      <trkpt lat="43.170389961451292" lon="-5.317791011184454">
        <ele>623.54999999999995</ele>
        <time>2025-04-29T10:44:56Z</time>
      </trkpt>
      <trkpt lat="43.170465985313058" lon="-5.317968958988786">
        <ele>622.59000000000003</ele>
        <time>2025-04-29T10:44:57Z</time>
      </trkpt>
      <trkpt lat="43.170522982254624" lon="-5.31817096285522">
        <ele>622.11000000000001</ele>
        <time>2025-04-29T10:44:58Z</time>
      </trkpt>
      <trkpt lat="43.170759016647935" lon="-5.318957017734647">
        <ele>620.19000000000005</ele>
        <time>2025-04-29T10:45:02Z</time>
      </trkpt>
      <trkpt lat="43.170831017196178" lon="-5.31913697719574">
        <ele>619.71000000000004</ele>
        <time>2025-04-29T10:45:03Z</time>
      </trkpt>
      <trkpt lat="43.170904023572803" lon="-5.319315008819103">
        <ele>619.23000000000002</ele>
        <time>2025-04-29T10:45:04Z</time>
      </trkpt>
      <trkpt lat="43.170980969443917" lon="-5.319488011300564">
        <ele>618.75</ele>
        <time>2025-04-29T10:45:05Z</time>
      </trkpt>
      <trkpt lat="43.171053975820541" lon="-5.31965103931725">
        <ele>617.77999999999997</ele>
        <time>2025-04-29T10:45:06Z</time>
      </trkpt>
      <trkpt lat="43.171184984967113" lon="-5.319944992661476">
        <ele>615.86000000000001</ele>
        <time>2025-04-29T10:45:10Z</time>
      </trkpt>
      <trkpt lat="43.171193031594157" lon="-5.319963013753295">
        <ele>615.38</ele>
        <time>2025-04-29T10:45:11Z</time>
      </trkpt>
      <trkpt lat="43.171244999393821" lon="-5.32008002512157">
        <ele>612.98000000000002</ele>
        <time>2025-04-29T10:45:20Z</time>
      </trkpt>
      <trkpt lat="43.171252962201834" lon="-5.320097040385008">
        <ele>612.5</ele>
        <time>2025-04-29T10:45:25Z</time>
      </trkpt>
      <trkpt lat="43.171281041577458" lon="-5.320214973762631">
        <ele>626.91999999999996</ele>
        <time>2025-04-29T10:55:24Z</time>
      </trkpt>
      <trkpt lat="43.171274000778794" lon="-5.320144984871149">
        <ele>618.25999999999999</ele>
        <time>2025-04-29T10:55:58Z</time>
      </trkpt>
      <trkpt lat="43.171254973858595" lon="-5.320131992921233">
        <ele>618.75</ele>
        <time>2025-04-29T10:56:51Z</time>
      </trkpt>
      <trkpt lat="43.171279029920697" lon="-5.320155965164304">
        <ele>618.75</ele>
        <time>2025-04-29T10:57:33Z</time>
      </trkpt>
      <trkpt lat="43.171539958566427" lon="-5.320626022294164">
        <ele>618.75</ele>
        <time>2025-04-29T10:57:39Z</time>
      </trkpt>
      <trkpt lat="43.172198021784425" lon="-5.32143596559763">
        <ele>616.34000000000003</ele>
        <time>2025-04-29T10:57:46Z</time>
      </trkpt>
      <trkpt lat="43.172319978475571" lon="-5.321520958095789">
        <ele>616.34000000000003</ele>
        <time>2025-04-29T10:57:47Z</time>
      </trkpt>
      <trkpt lat="43.17274896427989" lon="-5.321839973330498">
        <ele>614.89999999999998</ele>
        <time>2025-04-29T10:57:51Z</time>
      </trkpt>
      <trkpt lat="43.172818031162024" lon="-5.321975005790591">
        <ele>614.89999999999998</ele>
        <time>2025-04-29T10:57:52Z</time>
      </trkpt>
      <trkpt lat="43.172889025881886" lon="-5.322113977745175">
        <ele>614.41999999999996</ele>
        <time>2025-04-29T10:57:53Z</time>
      </trkpt>
      <trkpt lat="43.173088012263179" lon="-5.322499964386225">
        <ele>614.89999999999998</ele>
        <time>2025-04-29T10:57:56Z</time>
      </trkpt>
      <trkpt lat="43.173175016418099" lon="-5.322581017389894">
        <ele>615.38</ele>
        <time>2025-04-29T10:57:57Z</time>
      </trkpt>
      <trkpt lat="43.173273000866175" lon="-5.322626028209925">
        <ele>615.38</ele>
        <time>2025-04-29T10:57:58Z</time>
      </trkpt>
      <trkpt lat="43.173351958394051" lon="-5.32266098074615">
        <ele>615.86000000000001</ele>
        <time>2025-04-29T10:57:59Z</time>
      </trkpt>
      <trkpt lat="43.173452960327268" lon="-5.322781009599567">
        <ele>615.86000000000001</ele>
        <time>2025-04-29T10:58:00Z</time>
      </trkpt>
      <trkpt lat="43.173538958653808" lon="-5.322883017361164">
        <ele>616.34000000000003</ele>
        <time>2025-04-29T10:58:01Z</time>
      </trkpt>
      <trkpt lat="43.173807011917233" lon="-5.323103964328766">
        <ele>616.82000000000005</ele>
        <time>2025-04-29T10:58:04Z</time>
      </trkpt>
      <trkpt lat="43.173890998587012" lon="-5.323130032047629">
        <ele>616.82000000000005</ele>
        <time>2025-04-29T10:58:05Z</time>
      </trkpt>
      <trkpt lat="43.173966016620398" lon="-5.3231540042907">
        <ele>616.82000000000005</ele>
        <time>2025-04-29T10:58:06Z</time>
      </trkpt>
      <trkpt lat="43.174038017168641" lon="-5.323175964877009">
        <ele>616.82000000000005</ele>
        <time>2025-04-29T10:58:07Z</time>
      </trkpt>
      <trkpt lat="43.174103982746601" lon="-5.323235979303718">
        <ele>617.29999999999995</ele>
        <time>2025-04-29T10:58:08Z</time>
      </trkpt>
      <trkpt lat="43.174181012436748" lon="-5.323304962366819">
        <ele>617.29999999999995</ele>
        <time>2025-04-29T10:58:09Z</time>
      </trkpt>
      <trkpt lat="43.174253012984991" lon="-5.323370005935431">
        <ele>617.29999999999995</ele>
        <time>2025-04-29T10:58:10Z</time>
      </trkpt>
      <trkpt lat="43.174310009926558" lon="-5.323489028960466">
        <ele>617.29999999999995</ele>
        <time>2025-04-29T10:58:11Z</time>
      </trkpt>
      <trkpt lat="43.174372036010027" lon="-5.323619032278657">
        <ele>616.82000000000005</ele>
        <time>2025-04-29T10:58:12Z</time>
      </trkpt>
      <trkpt lat="43.174433978274465" lon="-5.323749035596848">
        <ele>616.82000000000005</ele>
        <time>2025-04-29T10:58:13Z</time>
      </trkpt>
      <trkpt lat="43.174498016014695" lon="-5.323881972581148">
        <ele>616.82000000000005</ele>
        <time>2025-04-29T10:58:14Z</time>
      </trkpt>
      <trkpt lat="43.174568004906178" lon="-5.324028991162777">
        <ele>616.82000000000005</ele>
        <time>2025-04-29T10:58:15Z</time>
      </trkpt>
      <trkpt lat="43.174698008224368" lon="-5.324301989749074">
        <ele>616.82000000000005</ele>
        <time>2025-04-29T10:58:17Z</time>
      </trkpt>
      <trkpt lat="43.17478802986443" lon="-5.324376001954079">
        <ele>616.34000000000003</ele>
        <time>2025-04-29T10:58:18Z</time>
      </trkpt>
      <trkpt lat="43.175093969330192" lon="-5.324601978063583">
        <ele>615.86000000000001</ele>
        <time>2025-04-29T10:58:21Z</time>
      </trkpt>
      <trkpt lat="43.17532598040998" lon="-5.324800964444876">
        <ele>615.38</ele>
        <time>2025-04-29T10:58:23Z</time>
      </trkpt>
      <trkpt lat="43.175422037020326" lon="-5.324929039925337">
        <ele>615.38</ele>
        <time>2025-04-29T10:58:24Z</time>
      </trkpt>
      <trkpt lat="43.17551800981164" lon="-5.325208995491266">
        <ele>614.89999999999998</ele>
        <time>2025-04-29T10:58:26Z</time>
      </trkpt>
      <trkpt lat="43.175546005368233" lon="-5.325349979102612">
        <ele>614.89999999999998</ele>
        <time>2025-04-29T10:58:27Z</time>
      </trkpt>
      <trkpt lat="43.175553968176246" lon="-5.325508983805776">
        <ele>614.89999999999998</ele>
        <time>2025-04-29T10:58:28Z</time>
      </trkpt>
      <trkpt lat="43.175537958741188" lon="-5.325680980458856">
        <ele>614.89999999999998</ele>
        <time>2025-04-29T10:58:29Z</time>
      </trkpt>
      <trkpt lat="43.175521027296782" lon="-5.32586102373898">
        <ele>614.89999999999998</ele>
        <time>2025-04-29T10:58:30Z</time>
      </trkpt>
      <trkpt lat="43.175504012033343" lon="-5.326045006513596">
        <ele>614.41999999999996</ele>
        <time>2025-04-29T10:58:31Z</time>
      </trkpt>
      <trkpt lat="43.175459001213312" lon="-5.326212979853153">
        <ele>613.94000000000005</ele>
        <time>2025-04-29T10:58:32Z</time>
      </trkpt>
      <trkpt lat="43.17539001815021" lon="-5.326384976506233">
        <ele>613.46000000000004</ele>
        <time>2025-04-29T10:58:33Z</time>
      </trkpt>
      <trkpt lat="43.175321035087109" lon="-5.326556973159313">
        <ele>613.46000000000004</ele>
        <time>2025-04-29T10:58:34Z</time>
      </trkpt>
      <trkpt lat="43.17526001483202" lon="-5.326666021719575">
        <ele>612.98000000000002</ele>
        <time>2025-04-29T10:58:35Z</time>
      </trkpt>
      <trkpt lat="43.175151972100139" lon="-5.326728969812393">
        <ele>612.98000000000002</ele>
        <time>2025-04-29T10:58:36Z</time>
      </trkpt>
      <trkpt lat="43.17504501901567" lon="-5.326793007552624">
        <ele>612.98000000000002</ele>
        <time>2025-04-29T10:58:37Z</time>
      </trkpt>
      <trkpt lat="43.174932030960917" lon="-5.326858973130584">
        <ele>612.5</ele>
        <time>2025-04-29T10:58:38Z</time>
      </trkpt>
      <trkpt lat="43.174837986007333" lon="-5.326965004205704">
        <ele>612.01999999999998</ele>
        <time>2025-04-29T10:58:39Z</time>
      </trkpt>
      <trkpt lat="43.17474695853889" lon="-5.327075980603695">
        <ele>612.01999999999998</ele>
        <time>2025-04-29T10:58:40Z</time>
      </trkpt>
      <trkpt lat="43.174704965204" lon="-5.32721302472055">
        <ele>611.53999999999996</ele>
        <time>2025-04-29T10:58:41Z</time>
      </trkpt>
      <trkpt lat="43.174683004617691" lon="-5.327349985018373">
        <ele>611.05999999999995</ele>
        <time>2025-04-29T10:58:42Z</time>
      </trkpt>
      <trkpt lat="43.174698008224368" lon="-5.327506978064776">
        <ele>611.05999999999995</ele>
        <time>2025-04-29T10:58:43Z</time>
      </trkpt>
      <trkpt lat="43.174716029316187" lon="-5.327696995809674">
        <ele>610.57000000000005</ele>
        <time>2025-04-29T10:58:44Z</time>
      </trkpt>
      <trkpt lat="43.174762967973948" lon="-5.327878966927528">
        <ele>610.09000000000003</ele>
        <time>2025-04-29T10:58:45Z</time>
      </trkpt>
      <trkpt lat="43.174833040684462" lon="-5.328045012429357">
        <ele>609.13</ele>
        <time>2025-04-29T10:58:46Z</time>
      </trkpt>
      <trkpt lat="43.174907974898815" lon="-5.328222960233688">
        <ele>608.64999999999998</ele>
        <time>2025-04-29T10:58:47Z</time>
      </trkpt>
      <trkpt lat="43.175272000953555" lon="-5.32899702899158">
        <ele>605.28999999999996</ele>
        <time>2025-04-29T10:58:51Z</time>
      </trkpt>
      <trkpt lat="43.175539970397949" lon="-5.32932098954916">
        <ele>602.88</ele>
        <time>2025-04-29T10:58:53Z</time>
      </trkpt>
      <trkpt lat="43.175797965377569" lon="-5.329634975641966">
        <ele>600.96000000000004</ele>
        <time>2025-04-29T10:58:55Z</time>
      </trkpt>
      <trkpt lat="43.175902990624309" lon="-5.329834967851639">
        <ele>600</ele>
        <time>2025-04-29T10:58:56Z</time>
      </trkpt>
      <trkpt lat="43.176003992557526" lon="-5.330032026395202">
        <ele>599.03999999999996</ele>
        <time>2025-04-29T10:58:57Z</time>
      </trkpt>
      <trkpt lat="43.176552001386881" lon="-5.331431971862912">
        <ele>593.26999999999998</ele>
        <time>2025-04-29T10:59:04Z</time>
      </trkpt>
      <trkpt lat="43.176625007763505" lon="-5.331624001264572">
        <ele>593.26999999999998</ele>
        <time>2025-04-29T10:59:05Z</time>
      </trkpt>
      <trkpt lat="43.176838997751474" lon="-5.3322649654001">
        <ele>593.26999999999998</ele>
        <time>2025-04-29T10:59:08Z</time>
      </trkpt>
      <trkpt lat="43.177135968580842" lon="-5.332808028906584">
        <ele>594.23000000000002</ele>
        <time>2025-04-29T10:59:11Z</time>
      </trkpt>
      <trkpt lat="43.177461018785834" lon="-5.33331798389554">
        <ele>594.71000000000004</ele>
        <time>2025-04-29T10:59:14Z</time>
      </trkpt>
      <trkpt lat="43.177580963820219" lon="-5.333477994427085">
        <ele>594.23000000000002</ele>
        <time>2025-04-29T10:59:15Z</time>
      </trkpt>
      <trkpt lat="43.177703004330397" lon="-5.333630964159966">
        <ele>594.23000000000002</ele>
        <time>2025-04-29T10:59:16Z</time>
      </trkpt>
      <trkpt lat="43.178143976256251" lon="-5.334104960784316">
        <ele>594.23000000000002</ele>
        <time>2025-04-29T10:59:20Z</time>
      </trkpt>
      <trkpt lat="43.178252018988132" lon="-5.334214009344578">
        <ele>594.23000000000002</ele>
        <time>2025-04-29T10:59:21Z</time>
      </trkpt>
      <trkpt lat="43.178711012005806" lon="-5.334762018173933">
        <ele>593.26999999999998</ele>
        <time>2025-04-29T10:59:25Z</time>
      </trkpt>
      <trkpt lat="43.178790975362062" lon="-5.334967039525509">
        <ele>592.30999999999995</ele>
        <time>2025-04-29T10:59:26Z</time>
      </trkpt>
      <trkpt lat="43.179061040282249" lon="-5.335542960092425">
        <ele>589.90999999999997</ele>
        <time>2025-04-29T10:59:29Z</time>
      </trkpt>
      <trkpt lat="43.179179979488254" lon="-5.335697019472718">
        <ele>589.42999999999995</ele>
        <time>2025-04-29T10:59:30Z</time>
      </trkpt>
      <trkpt lat="43.179304031655192" lon="-5.335858035832644">
        <ele>588.95000000000005</ele>
        <time>2025-04-29T10:59:31Z</time>
      </trkpt>
      <trkpt lat="43.179689012467861" lon="-5.336387017741799">
        <ele>587.5</ele>
        <time>2025-04-29T10:59:34Z</time>
      </trkpt>
      <trkpt lat="43.180018002167344" lon="-5.336908036842942">
        <ele>586.05999999999995</ele>
        <time>2025-04-29T10:59:37Z</time>
      </trkpt>
      <trkpt lat="43.180400971323252" lon="-5.337351020425558">
        <ele>584.62</ele>
        <time>2025-04-29T10:59:40Z</time>
      </trkpt>
      <trkpt lat="43.180516976863146" lon="-5.337545983493328">
        <ele>584.13999999999999</ele>
        <time>2025-04-29T10:59:41Z</time>
      </trkpt>
      <trkpt lat="43.180951997637749" lon="-5.338329020887613">
        <ele>581.73000000000002</ele>
        <time>2025-04-29T10:59:45Z</time>
      </trkpt>
      <trkpt lat="43.181029027327895" lon="-5.338547034189105">
        <ele>581.25</ele>
        <time>2025-04-29T10:59:46Z</time>
      </trkpt>
      <trkpt lat="43.18112701177597" lon="-5.339009966701269">
        <ele>579.80999999999995</ele>
        <time>2025-04-29T10:59:48Z</time>
      </trkpt>
      <trkpt lat="43.181161964312196" lon="-5.339735001325607">
        <ele>576.92999999999995</ele>
        <time>2025-04-29T10:59:51Z</time>
      </trkpt>
      <trkpt lat="43.181141009554267" lon="-5.339968018233776">
        <ele>575.49000000000001</ele>
        <time>2025-04-29T10:59:52Z</time>
      </trkpt>
      <trkpt lat="43.181107984855771" lon="-5.340188965201378">
        <ele>574.52999999999997</ele>
        <time>2025-04-29T10:59:53Z</time>
      </trkpt>
      <trkpt lat="43.181074960157275" lon="-5.340403039008379">
        <ele>573.08000000000004</ele>
        <time>2025-04-29T10:59:54Z</time>
      </trkpt>
      <trkpt lat="43.181069009006023" lon="-5.340619962662458">
        <ele>572.12</ele>
        <time>2025-04-29T10:59:55Z</time>
      </trkpt>
      <trkpt lat="43.181100022047758" lon="-5.340804029256105">
        <ele>571.63999999999999</ele>
        <time>2025-04-29T10:59:56Z</time>
      </trkpt>
      <trkpt lat="43.181128017604351" lon="-5.340972002595663">
        <ele>571.15999999999997</ele>
        <time>2025-04-29T10:59:57Z</time>
      </trkpt>
      <trkpt lat="43.181144027039409" lon="-5.341127989813685">
        <ele>570.67999999999995</ele>
        <time>2025-04-29T10:59:58Z</time>
      </trkpt>
      <trkpt lat="43.181150984019041" lon="-5.341281965374947">
        <ele>570.20000000000005</ele>
        <time>2025-04-29T10:59:59Z</time>
      </trkpt>
      <trkpt lat="43.181158024817705" lon="-5.341424960643053">
        <ele>570.20000000000005</ele>
        <time>2025-04-29T11:00:00Z</time>
      </trkpt>
      <trkpt lat="43.181108990684152" lon="-5.342936972156167">
        <ele>570.20000000000005</ele>
        <time>2025-04-29T11:00:09Z</time>
      </trkpt>
      <trkpt lat="43.180834986269474" lon="-5.345231015235186">
        <ele>571.15999999999997</ele>
        <time>2025-04-29T11:00:20Z</time>
      </trkpt>
      <trkpt lat="43.180622002109885" lon="-5.346950981765986">
        <ele>568.75999999999999</ele>
        <time>2025-04-29T11:00:29Z</time>
      </trkpt>
      <trkpt lat="43.180284965783358" lon="-5.348908994346857">
        <ele>563.47000000000003</ele>
        <time>2025-04-29T11:00:39Z</time>
      </trkpt>
      <trkpt lat="43.180023031309247" lon="-5.349768977612257">
        <ele>562.02999999999997</ele>
        <time>2025-04-29T11:00:44Z</time>
      </trkpt>
      <trkpt lat="43.180047003552318" lon="-5.349998977035284">
        <ele>562.02999999999997</ele>
        <time>2025-04-29T11:00:45Z</time>
      </trkpt>
      <trkpt lat="43.180047003552318" lon="-5.350057985633612">
        <ele>562.02999999999997</ele>
        <time>2025-04-29T11:00:46Z</time>
      </trkpt>
      <trkpt lat="43.180021019652486" lon="-5.350180026143789">
        <ele>562.02999999999997</ele>
        <time>2025-04-29T11:00:47Z</time>
      </trkpt>
      <trkpt lat="43.179961005225778" lon="-5.350255966186523">
        <ele>562.02999999999997</ele>
        <time>2025-04-29T11:00:48Z</time>
      </trkpt>
      <trkpt lat="43.179824966937304" lon="-5.350309023633599">
        <ele>561.54999999999995</ele>
        <time>2025-04-29T11:00:49Z</time>
      </trkpt>
      <trkpt lat="43.179757995530963" lon="-5.350437015295029">
        <ele>561.07000000000005</ele>
        <time>2025-04-29T11:00:50Z</time>
      </trkpt>
      <trkpt lat="43.179684989154339" lon="-5.350574981421232">
        <ele>560.59000000000003</ele>
        <time>2025-04-29T11:00:51Z</time>
      </trkpt>
      <trkpt lat="43.178903041407466" lon="-5.35207299515605">
        <ele>556.74000000000001</ele>
        <time>2025-04-29T11:01:02Z</time>
      </trkpt>
      <trkpt lat="43.178717968985438" lon="-5.352705996483564">
        <ele>554.34000000000003</ele>
        <time>2025-04-29T11:01:06Z</time>
      </trkpt>
      <trkpt lat="43.178672958165407" lon="-5.352895008400083">
        <ele>553.86000000000001</ele>
        <time>2025-04-29T11:01:07Z</time>
      </trkpt>
      <trkpt lat="43.178705982863903" lon="-5.35376999527216">
        <ele>551.92999999999995</ele>
        <time>2025-04-29T11:01:11Z</time>
      </trkpt>
      <trkpt lat="43.1796870008111" lon="-5.361210023984313">
        <ele>551.92999999999995</ele>
        <time>2025-04-29T11:01:41Z</time>
      </trkpt>
      <trkpt lat="43.179790014401078" lon="-5.361414961516857">
        <ele>544.72000000000003</ele>
        <time>2025-04-29T11:01:48Z</time>
      </trkpt>
      <trkpt lat="43.180522006005049" lon="-5.362809039652348">
        <ele>541.84000000000003</ele>
        <time>2025-04-29T11:01:56Z</time>
      </trkpt>
      <trkpt lat="43.180639017373323" lon="-5.36292496137321">
        <ele>541.84000000000003</ele>
        <time>2025-04-29T11:01:57Z</time>
      </trkpt>
      <trkpt lat="43.180771032348275" lon="-5.362996961921454">
        <ele>541.84000000000003</ele>
        <time>2025-04-29T11:01:58Z</time>
      </trkpt>
      <trkpt lat="43.181208986788988" lon="-5.363243976607919">
        <ele>540.88</ele>
        <time>2025-04-29T11:02:01Z</time>
      </trkpt>
      <trkpt lat="43.181333960965276" lon="-5.363357970491052">
        <ele>540.88</ele>
        <time>2025-04-29T11:02:02Z</time>
      </trkpt>
      <trkpt lat="43.18144996650517" lon="-5.363497026264668">
        <ele>540.88</ele>
        <time>2025-04-29T11:02:03Z</time>
      </trkpt>
      <trkpt lat="43.18153403699398" lon="-5.363662987947464">
        <ele>540.39999999999998</ele>
        <time>2025-04-29T11:02:04Z</time>
      </trkpt>
      <trkpt lat="43.181608971208334" lon="-5.363849988207221">
        <ele>539.91999999999996</ele>
        <time>2025-04-29T11:02:05Z</time>
      </trkpt>
      <trkpt lat="43.18166496232152" lon="-5.364039000123739">
        <ele>539.91999999999996</ele>
        <time>2025-04-29T11:02:06Z</time>
      </trkpt>
      <trkpt lat="43.181694969534874" lon="-5.364259025081992">
        <ele>540.39999999999998</ele>
        <time>2025-04-29T11:02:07Z</time>
      </trkpt>
      <trkpt lat="43.181722965091467" lon="-5.364468991756439">
        <ele>540.39999999999998</ele>
        <time>2025-04-29T11:02:08Z</time>
      </trkpt>
      <trkpt lat="43.181750038638711" lon="-5.364669989794493">
        <ele>540.88</ele>
        <time>2025-04-29T11:02:09Z</time>
      </trkpt>
      <trkpt lat="43.181777028366923" lon="-5.364872999489307">
        <ele>541.84000000000003</ele>
        <time>2025-04-29T11:02:10Z</time>
      </trkpt>
      <trkpt lat="43.181832013651729" lon="-5.365063017234206">
        <ele>543.27999999999997</ele>
        <time>2025-04-29T11:02:11Z</time>
      </trkpt>
      <trkpt lat="43.181913988664746" lon="-5.365237025544047">
        <ele>544.72000000000003</ele>
        <time>2025-04-29T11:02:12Z</time>
      </trkpt>
      <trkpt lat="43.182017002254725" lon="-5.365398041903973">
        <ele>545.69000000000005</ele>
        <time>2025-04-29T11:02:13Z</time>
      </trkpt>
      <trkpt lat="43.182149017229676" lon="-5.36552201025188">
        <ele>547.61000000000001</ele>
        <time>2025-04-29T11:02:14Z</time>
      </trkpt>
      <trkpt lat="43.182306010276079" lon="-5.365617983043194">
        <ele>549.04999999999995</ele>
        <time>2025-04-29T11:02:15Z</time>
      </trkpt>
      <trkpt lat="43.182482030242682" lon="-5.365672968327999">
        <ele>550.49000000000001</ele>
        <time>2025-04-29T11:02:16Z</time>
      </trkpt>
      <trkpt lat="43.182670958340168" lon="-5.36571697331965">
        <ele>550.97000000000003</ele>
        <time>2025-04-29T11:02:17Z</time>
      </trkpt>
      <trkpt lat="43.182861981913447" lon="-5.3657609783113">
        <ele>551.92999999999995</ele>
        <time>2025-04-29T11:02:18Z</time>
      </trkpt>
      <trkpt lat="43.183048982173204" lon="-5.365860974416137">
        <ele>552.40999999999997</ele>
        <time>2025-04-29T11:02:19Z</time>
      </trkpt>
      <trkpt lat="43.18323103711009" lon="-5.36597203463316">
        <ele>553.38</ele>
        <time>2025-04-29T11:02:20Z</time>
      </trkpt>
      <trkpt lat="43.183394987136126" lon="-5.366126010194421">
        <ele>553.86000000000001</ele>
        <time>2025-04-29T11:02:21Z</time>
      </trkpt>
      <trkpt lat="43.18353496491909" lon="-5.3663170337677">
        <ele>554.34000000000003</ele>
        <time>2025-04-29T11:02:22Z</time>
      </trkpt>
      <trkpt lat="43.183650970458984" lon="-5.366519959643483">
        <ele>554.82000000000005</ele>
        <time>2025-04-29T11:02:23Z</time>
      </trkpt>
      <trkpt lat="43.183765970170498" lon="-5.366721963509917">
        <ele>555.29999999999995</ele>
        <time>2025-04-29T11:02:24Z</time>
      </trkpt>
      <trkpt lat="43.18404802121222" lon="-5.367066962644458">
        <ele>556.25999999999999</ele>
        <time>2025-04-29T11:02:26Z</time>
      </trkpt>
      <trkpt lat="43.184228986501694" lon="-5.367162013426423">
        <ele>556.25999999999999</ele>
        <time>2025-04-29T11:02:27Z</time>
      </trkpt>
      <trkpt lat="43.184424033388495" lon="-5.367256980389357">
        <ele>556.74000000000001</ele>
        <time>2025-04-29T11:02:28Z</time>
      </trkpt>
      <trkpt lat="43.185880975797772" lon="-5.367940021678805">
        <ele>554.82000000000005</ele>
        <time>2025-04-29T11:02:35Z</time>
      </trkpt>
      <trkpt lat="43.186079040169716" lon="-5.368085028603673">
        <ele>553.86000000000001</ele>
        <time>2025-04-29T11:02:36Z</time>
      </trkpt>
      <trkpt lat="43.186265034601092" lon="-5.368247972801328">
        <ele>552.40999999999997</ele>
        <time>2025-04-29T11:02:37Z</time>
      </trkpt>
      <trkpt lat="43.187643019482493" lon="-5.369381038472056">
        <ele>542.79999999999995</ele>
        <time>2025-04-29T11:02:45Z</time>
      </trkpt>
      <trkpt lat="43.187802024185658" lon="-5.369452033191919">
        <ele>541.84000000000003</ele>
        <time>2025-04-29T11:02:46Z</time>
      </trkpt>
      <trkpt lat="43.187949964776635" lon="-5.369506012648344">
        <ele>540.88</ele>
        <time>2025-04-29T11:02:47Z</time>
      </trkpt>
      <trkpt lat="43.188178036361933" lon="-5.369588993489742">
        <ele>540.88</ele>
        <time>2025-04-29T11:02:49Z</time>
      </trkpt>
      <trkpt lat="43.191025033593178" lon="-5.372536992654204">
        <ele>537.02999999999997</ele>
        <time>2025-04-29T11:03:10Z</time>
      </trkpt>
      <trkpt lat="43.191127041354775" lon="-5.375215010717511">
        <ele>528.86000000000001</ele>
        <time>2025-04-29T11:03:20Z</time>
      </trkpt>
      <trkpt lat="43.191106002777815" lon="-5.375753967091441">
        <ele>526.94000000000005</ele>
        <time>2025-04-29T11:03:22Z</time>
      </trkpt>
      <trkpt lat="43.191079013049603" lon="-5.376563994213939">
        <ele>524.05999999999995</ele>
        <time>2025-04-29T11:03:25Z</time>
      </trkpt>
      <trkpt lat="43.191111031919718" lon="-5.376813020557165">
        <ele>523.09000000000003</ele>
        <time>2025-04-29T11:03:26Z</time>
      </trkpt>
      <trkpt lat="43.191166017204523" lon="-5.377065986394882">
        <ele>522.13</ele>
        <time>2025-04-29T11:03:27Z</time>
      </trkpt>
      <trkpt lat="43.191219996660948" lon="-5.377316018566489">
        <ele>521.16999999999996</ele>
        <time>2025-04-29T11:03:28Z</time>
      </trkpt>
      <trkpt lat="43.191255033016205" lon="-5.377564039081335">
        <ele>520.21000000000004</ele>
        <time>2025-04-29T11:03:29Z</time>
      </trkpt>
      <trkpt lat="43.191260984167457" lon="-5.377821028232575">
        <ele>519.73000000000002</ele>
        <time>2025-04-29T11:03:30Z</time>
      </trkpt>
      <trkpt lat="43.191201975569129" lon="-5.378067959100008">
        <ele>518.76999999999998</ele>
        <time>2025-04-29T11:03:31Z</time>
      </trkpt>
      <trkpt lat="43.191127963364124" lon="-5.378312040120363">
        <ele>517.80999999999995</ele>
        <time>2025-04-29T11:03:32Z</time>
      </trkpt>
      <trkpt lat="43.191022016108036" lon="-5.378546984866262">
        <ele>516.85000000000002</ele>
        <time>2025-04-29T11:03:33Z</time>
      </trkpt>
      <trkpt lat="43.190913973376155" lon="-5.378785030916333">
        <ele>515.39999999999998</ele>
        <time>2025-04-29T11:03:34Z</time>
      </trkpt>
      <trkpt lat="43.190513988956809" lon="-5.379773005843163">
        <ele>511.07999999999998</ele>
        <time>2025-04-29T11:03:38Z</time>
      </trkpt>
      <trkpt lat="43.190470989793539" lon="-5.380024965852499">
        <ele>509.63999999999999</ele>
        <time>2025-04-29T11:03:39Z</time>
      </trkpt>
      <trkpt lat="43.190439976751804" lon="-5.380280027166009">
        <ele>508.19</ele>
        <time>2025-04-29T11:03:40Z</time>
      </trkpt>
      <trkpt lat="43.190466966480017" lon="-5.380512960255146">
        <ele>506.75</ele>
        <time>2025-04-29T11:03:41Z</time>
      </trkpt>
      <trkpt lat="43.19051499478519" lon="-5.380756035447121">
        <ele>505.31</ele>
        <time>2025-04-29T11:03:42Z</time>
      </trkpt>
      <trkpt lat="43.190586995333433" lon="-5.380984023213387">
        <ele>503.87</ele>
        <time>2025-04-29T11:03:43Z</time>
      </trkpt>
      <trkpt lat="43.19070803001523" lon="-5.381175968796015">
        <ele>502.91000000000003</ele>
        <time>2025-04-29T11:03:44Z</time>
      </trkpt>
      <trkpt lat="43.190842978656292" lon="-5.381349977105856">
        <ele>501.94999999999999</ele>
        <time>2025-04-29T11:03:45Z</time>
      </trkpt>
      <trkpt lat="43.191011035814881" lon="-5.381461959332228">
        <ele>500.98000000000002</ele>
        <time>2025-04-29T11:03:46Z</time>
      </trkpt>
      <trkpt lat="43.191184960305691" lon="-5.381566984578967">
        <ele>500.01999999999998</ele>
        <time>2025-04-29T11:03:47Z</time>
      </trkpt>
      <trkpt lat="43.191376989707351" lon="-5.381605960428715">
        <ele>499.54000000000002</ele>
        <time>2025-04-29T11:03:48Z</time>
      </trkpt>
      <trkpt lat="43.19156801328063" lon="-5.381644014269114">
        <ele>499.54000000000002</ele>
        <time>2025-04-29T11:03:49Z</time>
      </trkpt>
      <trkpt lat="43.191948970779777" lon="-5.381720038130879">
        <ele>499.06</ele>
        <time>2025-04-29T11:03:51Z</time>
      </trkpt>
      <trkpt lat="43.192111998796463" lon="-5.381794972345233">
        <ele>498.57999999999998</ele>
        <time>2025-04-29T11:03:52Z</time>
      </trkpt>
      <trkpt lat="43.193097962066531" lon="-5.382468961179256">
        <ele>499.06</ele>
        <time>2025-04-29T11:03:58Z</time>
      </trkpt>
      <trkpt lat="43.193279011175036" lon="-5.382519001141191">
        <ele>499.06</ele>
        <time>2025-04-29T11:03:59Z</time>
      </trkpt>
      <trkpt lat="43.193470034748316" lon="-5.3825409617275">
        <ele>499.54000000000002</ele>
        <time>2025-04-29T11:04:00Z</time>
      </trkpt>
      <trkpt lat="43.193669021129608" lon="-5.382532998919487">
        <ele>500.01999999999998</ele>
        <time>2025-04-29T11:04:01Z</time>
      </trkpt>
      <trkpt lat="43.19386700168252" lon="-5.382505003362894">
        <ele>500.01999999999998</ele>
        <time>2025-04-29T11:04:02Z</time>
      </trkpt>
      <trkpt lat="43.19406196475029" lon="-5.382478013634682">
        <ele>500.5</ele>
        <time>2025-04-29T11:04:03Z</time>
      </trkpt>
      <trkpt lat="43.195863990113139" lon="-5.382385980337858">
        <ele>504.35000000000002</ele>
        <time>2025-04-29T11:04:12Z</time>
      </trkpt>
      <trkpt lat="43.196054007858038" lon="-5.382467033341527">
        <ele>504.82999999999998</ele>
        <time>2025-04-29T11:04:13Z</time>
      </trkpt>
      <trkpt lat="43.196244025602937" lon="-5.382566023617983">
        <ele>505.31</ele>
        <time>2025-04-29T11:04:14Z</time>
      </trkpt>
      <trkpt lat="43.196427002549171" lon="-5.382675994187594">
        <ele>505.79000000000002</ele>
        <time>2025-04-29T11:04:15Z</time>
      </trkpt>
      <trkpt lat="43.196606040000916" lon="-5.382816977798939">
        <ele>506.26999999999998</ele>
        <time>2025-04-29T11:04:16Z</time>
      </trkpt>
      <trkpt lat="43.197134016081691" lon="-5.383233977481723">
        <ele>506.26999999999998</ele>
        <time>2025-04-29T11:04:19Z</time>
      </trkpt>
      <trkpt lat="43.197315987199545" lon="-5.383314024657011">
        <ele>506.26999999999998</ele>
        <time>2025-04-29T11:04:20Z</time>
      </trkpt>
      <trkpt lat="43.197511034086347" lon="-5.383368004113436">
        <ele>505.79000000000002</ele>
        <time>2025-04-29T11:04:21Z</time>
      </trkpt>
      <trkpt lat="43.197709014639258" lon="-5.383383007720113">
        <ele>505.79000000000002</ele>
        <time>2025-04-29T11:04:22Z</time>
      </trkpt>
      <trkpt lat="43.197912024334073" lon="-5.38337797857821">
        <ele>505.79000000000002</ele>
        <time>2025-04-29T11:04:23Z</time>
      </trkpt>
      <trkpt lat="43.198330029845238" lon="-5.383365992456675">
        <ele>505.79000000000002</ele>
        <time>2025-04-29T11:04:25Z</time>
      </trkpt>
      <trkpt lat="43.198533039540052" lon="-5.38346397690475">
        <ele>505.79000000000002</ele>
        <time>2025-04-29T11:04:26Z</time>
      </trkpt>
      <trkpt lat="43.198728002607822" lon="-5.383569002151489">
        <ele>505.79000000000002</ele>
        <time>2025-04-29T11:04:27Z</time>
      </trkpt>
      <trkpt lat="43.199873976409435" lon="-5.384137965738773">
        <ele>505.31</ele>
        <time>2025-04-29T11:04:33Z</time>
      </trkpt>
      <trkpt lat="43.200070029124618" lon="-5.384180964902043">
        <ele>505.31</ele>
        <time>2025-04-29T11:04:34Z</time>
      </trkpt>
      <trkpt lat="43.200265998020768" lon="-5.384180964902043">
        <ele>504.82999999999998</ele>
        <time>2025-04-29T11:04:35Z</time>
      </trkpt>
      <trkpt lat="43.200452998280525" lon="-5.384123967960477">
        <ele>504.35000000000002</ele>
        <time>2025-04-29T11:04:36Z</time>
      </trkpt>
      <trkpt lat="43.200645027682185" lon="-5.384059008210897">
        <ele>504.35000000000002</ele>
        <time>2025-04-29T11:04:37Z</time>
      </trkpt>
      <trkpt lat="43.200817024335265" lon="-5.383923975750804">
        <ele>503.87</ele>
        <time>2025-04-29T11:04:38Z</time>
      </trkpt>
      <trkpt lat="43.200990026816726" lon="-5.383777040988207">
        <ele>503.38999999999999</ele>
        <time>2025-04-29T11:04:39Z</time>
      </trkpt>
      <trkpt lat="43.201162023469806" lon="-5.383630022406578">
        <ele>502.91000000000003</ele>
        <time>2025-04-29T11:04:40Z</time>
      </trkpt>
      <trkpt lat="43.201804999262094" lon="-5.383086036890745">
        <ele>501.45999999999998</ele>
        <time>2025-04-29T11:04:44Z</time>
      </trkpt>
      <trkpt lat="43.201971966773272" lon="-5.382986040785909">
        <ele>500.98000000000002</ele>
        <time>2025-04-29T11:04:45Z</time>
      </trkpt>
      <trkpt lat="43.202145975083113" lon="-5.38294798694551">
        <ele>501.45999999999998</ele>
        <time>2025-04-29T11:04:46Z</time>
      </trkpt>
      <trkpt lat="43.202327024191618" lon="-5.382943963631988">
        <ele>501.94999999999999</ele>
        <time>2025-04-29T11:04:47Z</time>
      </trkpt>
      <trkpt lat="43.202507989481091" lon="-5.382992997765541">
        <ele>501.94999999999999</ele>
        <time>2025-04-29T11:04:48Z</time>
      </trkpt>
      <trkpt lat="43.202670011669397" lon="-5.383096011355519">
        <ele>502.43000000000001</ele>
        <time>2025-04-29T11:04:49Z</time>
      </trkpt>
      <trkpt lat="43.202814012765884" lon="-5.38322601467371">
        <ele>502.91000000000003</ele>
        <time>2025-04-29T11:04:50Z</time>
      </trkpt>
      <trkpt lat="43.20293303579092" lon="-5.383395999670029">
        <ele>503.38999999999999</ele>
        <time>2025-04-29T11:04:51Z</time>
      </trkpt>
      <trkpt lat="43.203028002753854" lon="-5.383603032678366">
        <ele>503.87</ele>
        <time>2025-04-29T11:04:52Z</time>
      </trkpt>
      <trkpt lat="43.203090028837323" lon="-5.38384904153645">
        <ele>504.35000000000002</ele>
        <time>2025-04-29T11:04:53Z</time>
      </trkpt>
      <trkpt lat="43.203124981373549" lon="-5.384096978232265">
        <ele>504.82999999999998</ele>
        <time>2025-04-29T11:04:54Z</time>
      </trkpt>
      <trkpt lat="43.203143002465367" lon="-5.38434499874711">
        <ele>504.82999999999998</ele>
        <time>2025-04-29T11:04:55Z</time>
      </trkpt>
      <trkpt lat="43.203067984431982" lon="-5.386269986629486">
        <ele>507.23000000000002</ele>
        <time>2025-04-29T11:05:03Z</time>
      </trkpt>
      <trkpt lat="43.202946027740836" lon="-5.388107970356941">
        <ele>511.56</ele>
        <time>2025-04-29T11:05:10Z</time>
      </trkpt>
      <trkpt lat="43.202930018305779" lon="-5.388571992516518">
        <ele>513.96000000000004</ele>
        <time>2025-04-29T11:05:12Z</time>
      </trkpt>
      <trkpt lat="43.202619971707463" lon="-5.390154998749495">
        <ele>520.69000000000005</ele>
        <time>2025-04-29T11:05:19Z</time>
      </trkpt>
      <trkpt lat="43.202468007802963" lon="-5.390862012282014">
        <ele>522.13</ele>
        <time>2025-04-29T11:05:22Z</time>
      </trkpt>
      <trkpt lat="43.202455015853047" lon="-5.391101986169815">
        <ele>522.13</ele>
        <time>2025-04-29T11:05:23Z</time>
      </trkpt>
      <trkpt lat="43.202473036944866" lon="-5.391351012513042">
        <ele>522.61000000000001</ele>
        <time>2025-04-29T11:05:24Z</time>
      </trkpt>
      <trkpt lat="43.202490974217653" lon="-5.391600960865617">
        <ele>522.61000000000001</ele>
        <time>2025-04-29T11:05:25Z</time>
      </trkpt>
      <trkpt lat="43.202508995309472" lon="-5.391853004693985">
        <ele>523.09000000000003</ele>
        <time>2025-04-29T11:05:26Z</time>
      </trkpt>
      <trkpt lat="43.202679986134171" lon="-5.392826981842518">
        <ele>524.53999999999996</ele>
        <time>2025-04-29T11:05:30Z</time>
      </trkpt>
      <trkpt lat="43.202766990289092" lon="-5.393027979880571">
        <ele>525.01999999999998</ele>
        <time>2025-04-29T11:05:31Z</time>
      </trkpt>
      <trkpt lat="43.202872015535831" lon="-5.393225960433483">
        <ele>525.01999999999998</ele>
        <time>2025-04-29T11:05:32Z</time>
      </trkpt>
      <trkpt lat="43.202987015247345" lon="-5.393416984006763">
        <ele>525.01999999999998</ele>
        <time>2025-04-29T11:05:33Z</time>
      </trkpt>
      <trkpt lat="43.203094974160194" lon="-5.393590992316604">
        <ele>525.01999999999998</ele>
        <time>2025-04-29T11:05:34Z</time>
      </trkpt>
      <trkpt lat="43.203834006562829" lon="-5.394608974456787">
        <ele>523.58000000000004</ele>
        <time>2025-04-29T11:05:41Z</time>
      </trkpt>
      <trkpt lat="43.204851988703012" lon="-5.396132972091436">
        <ele>517.80999999999995</ele>
        <time>2025-04-29T11:05:51Z</time>
      </trkpt>
      <trkpt lat="43.204908985644579" lon="-5.396294994279742">
        <ele>516.85000000000002</ele>
        <time>2025-04-29T11:05:52Z</time>
      </trkpt>
      <trkpt lat="43.204960031434894" lon="-5.396441007032991">
        <ele>515.88</ele>
        <time>2025-04-29T11:05:53Z</time>
      </trkpt>
      <trkpt lat="43.204982997849584" lon="-5.396552989259362">
        <ele>514.91999999999996</ele>
        <time>2025-04-29T11:05:54Z</time>
      </trkpt>
      <trkpt lat="43.204988026991487" lon="-5.396666983142495">
        <ele>513.96000000000004</ele>
        <time>2025-04-29T11:05:55Z</time>
      </trkpt>
      <trkpt lat="43.204991966485977" lon="-5.39676102809608">
        <ele>513.48000000000002</ele>
        <time>2025-04-29T11:05:56Z</time>
      </trkpt>
      <trkpt lat="43.204994983971119" lon="-5.39682799950242">
        <ele>512.03999999999996</ele>
        <time>2025-04-29T11:05:57Z</time>
      </trkpt>
      <trkpt lat="43.2049959897995" lon="-5.396867981180549">
        <ele>511.07999999999998</ele>
        <time>2025-04-29T11:05:58Z</time>
      </trkpt>
      <trkpt lat="43.20499699562788" lon="-5.39689103141427">
        <ele>510.12</ele>
        <time>2025-04-29T11:05:59Z</time>
      </trkpt>
      <trkpt lat="43.20499699562788" lon="-5.39689103141427">
        <ele>508.67000000000002</ele>
        <time>2025-04-29T11:06:12Z</time>
      </trkpt>
      <trkpt lat="43.205002024769783" lon="-5.396991027519107">
        <ele>506.26999999999998</ele>
        <time>2025-04-29T11:06:52Z</time>
      </trkpt>
      <trkpt lat="43.204886019229889" lon="-5.39738598279655">
        <ele>503.38999999999999</ele>
        <time>2025-04-29T11:06:57Z</time>
      </trkpt>
      <trkpt lat="43.204602040350437" lon="-5.398066006600857">
        <ele>499.06</ele>
        <time>2025-04-29T11:07:05Z</time>
      </trkpt>
      <trkpt lat="43.204560969024897" lon="-5.39833003655076">
        <ele>498.57999999999998</ele>
        <time>2025-04-29T11:07:07Z</time>
      </trkpt>
      <trkpt lat="43.204540014266968" lon="-5.398471020162106">
        <ele>498.10000000000002</ele>
        <time>2025-04-29T11:07:08Z</time>
      </trkpt>
      <trkpt lat="43.204450998455286" lon="-5.398592976853252">
        <ele>497.62</ele>
        <time>2025-04-29T11:07:09Z</time>
      </trkpt>
      <trkpt lat="43.204444041475654" lon="-5.398745024576783">
        <ele>497.62</ele>
        <time>2025-04-29T11:07:10Z</time>
      </trkpt>
      <trkpt lat="43.204470025375485" lon="-5.398887014016509">
        <ele>497.62</ele>
        <time>2025-04-29T11:07:11Z</time>
      </trkpt>
      <trkpt lat="43.204499026760459" lon="-5.398995978757739">
        <ele>497.13999999999999</ele>
        <time>2025-04-29T11:07:12Z</time>
      </trkpt>
      <trkpt lat="43.20454403758049" lon="-5.399101004004479">
        <ele>496.66000000000003</ele>
        <time>2025-04-29T11:07:13Z</time>
      </trkpt>
      <trkpt lat="43.20458997040987" lon="-5.399192031472921">
        <ele>496.18000000000001</ele>
        <time>2025-04-29T11:07:14Z</time>
      </trkpt>
      <trkpt lat="43.204641016200185" lon="-5.399292027577758">
        <ele>496.18000000000001</ele>
        <time>2025-04-29T11:07:15Z</time>
      </trkpt>
      <trkpt lat="43.205354986712337" lon="-5.400268016383052">
        <ele>495.69999999999999</ele>
        <time>2025-04-29T11:07:25Z</time>
      </trkpt>
      <trkpt lat="43.2062410376966" lon="-5.401277029886842">
        <ele>498.57999999999998</ele>
        <time>2025-04-29T11:07:35Z</time>
      </trkpt>
      <trkpt lat="43.206644961610436" lon="-5.401714984327555">
        <ele>498.57999999999998</ele>
        <time>2025-04-29T11:07:40Z</time>
      </trkpt>
      <trkpt lat="43.206712016835809" lon="-5.401825038716197">
        <ele>498.57999999999998</ele>
        <time>2025-04-29T11:07:41Z</time>
      </trkpt>
      <trkpt lat="43.206768007948995" lon="-5.401944983750582">
        <ele>498.57999999999998</ele>
        <time>2025-04-29T11:07:42Z</time>
      </trkpt>
      <trkpt lat="43.206793991848826" lon="-5.402098037302494">
        <ele>498.57999999999998</ele>
        <time>2025-04-29T11:07:43Z</time>
      </trkpt>
      <trkpt lat="43.206820981577039" lon="-5.402259975671768">
        <ele>498.57999999999998</ele>
        <time>2025-04-29T11:07:44Z</time>
      </trkpt>
      <trkpt lat="43.206848977133632" lon="-5.402429960668087">
        <ele>499.06</ele>
        <time>2025-04-29T11:07:45Z</time>
      </trkpt>
      <trkpt lat="43.206872027367353" lon="-5.402604974806309">
        <ele>499.54000000000002</ele>
        <time>2025-04-29T11:07:46Z</time>
      </trkpt>
      <trkpt lat="43.206900022923946" lon="-5.402973024174571">
        <ele>500.98000000000002</ele>
        <time>2025-04-29T11:07:48Z</time>
      </trkpt>
      <trkpt lat="43.206948973238468" lon="-5.403156001120806">
        <ele>501.94999999999999</ele>
        <time>2025-04-29T11:07:49Z</time>
      </trkpt>
      <trkpt lat="43.207192970439792" lon="-5.404115980491042">
        <ele>506.26999999999998</ele>
        <time>2025-04-29T11:07:54Z</time>
      </trkpt>
      <trkpt lat="43.207204034551978" lon="-5.404294012114406">
        <ele>507.23000000000002</ele>
        <time>2025-04-29T11:07:55Z</time>
      </trkpt>
      <trkpt lat="43.207206968218088" lon="-5.404452010989189">
        <ele>507.70999999999998</ele>
        <time>2025-04-29T11:07:56Z</time>
      </trkpt>
      <trkpt lat="43.207186013460159" lon="-5.404612021520734">
        <ele>508.19</ele>
        <time>2025-04-29T11:07:57Z</time>
      </trkpt>
      <trkpt lat="43.207163969054818" lon="-5.404772032052279">
        <ele>508.19</ele>
        <time>2025-04-29T11:07:58Z</time>
      </trkpt>
      <trkpt lat="43.207143014296889" lon="-5.404935982078314">
        <ele>508.67000000000002</ele>
        <time>2025-04-29T11:07:59Z</time>
      </trkpt>
      <trkpt lat="43.207021979615092" lon="-5.405455995351076">
        <ele>509.16000000000003</ele>
        <time>2025-04-29T11:08:02Z</time>
      </trkpt>
      <trkpt lat="43.206878984346986" lon="-5.405778028070927">
        <ele>509.63999999999999</ele>
        <time>2025-04-29T11:08:04Z</time>
      </trkpt>
      <trkpt lat="43.206601040437818" lon="-5.406425027176738">
        <ele>508.67000000000002</ele>
        <time>2025-04-29T11:08:08Z</time>
      </trkpt>
      <trkpt lat="43.206552006304264" lon="-5.40658101439476">
        <ele>508.67000000000002</ele>
        <time>2025-04-29T11:08:09Z</time>
      </trkpt>
      <trkpt lat="43.206487968564034" lon="-5.40690204128623">
        <ele>508.19</ele>
        <time>2025-04-29T11:08:11Z</time>
      </trkpt>
      <trkpt lat="43.206466007977724" lon="-5.407249974086881">
        <ele>507.70999999999998</ele>
        <time>2025-04-29T11:08:13Z</time>
      </trkpt>
      <trkpt lat="43.206481011584401" lon="-5.407428005710244">
        <ele>506.75</ele>
        <time>2025-04-29T11:08:14Z</time>
      </trkpt>
      <trkpt lat="43.206496015191078" lon="-5.407617017626762">
        <ele>506.26999999999998</ele>
        <time>2025-04-29T11:08:15Z</time>
      </trkpt>
      <trkpt lat="43.206529039889574" lon="-5.407809969037771">
        <ele>505.79000000000002</ele>
        <time>2025-04-29T11:08:16Z</time>
      </trkpt>
      <trkpt lat="43.206583019345999" lon="-5.408004010096192">
        <ele>504.82999999999998</ele>
        <time>2025-04-29T11:08:17Z</time>
      </trkpt>
      <trkpt lat="43.206643033772707" lon="-5.408216994255781">
        <ele>504.35000000000002</ele>
        <time>2025-04-29T11:08:18Z</time>
      </trkpt>
      <trkpt lat="43.207259019836783" lon="-5.409486014395952">
        <ele>502.91000000000003</ele>
        <time>2025-04-29T11:08:23Z</time>
      </trkpt>
      <trkpt lat="43.208158984780312" lon="-5.41111595928669">
        <ele>504.82999999999998</ele>
        <time>2025-04-29T11:08:30Z</time>
      </trkpt>
      <trkpt lat="43.208265015855432" lon="-5.411332966759801">
        <ele>505.31</ele>
        <time>2025-04-29T11:08:31Z</time>
      </trkpt>
      <trkpt lat="43.208339028060436" lon="-5.411564977839589">
        <ele>505.79000000000002</ele>
        <time>2025-04-29T11:08:32Z</time>
      </trkpt>
      <trkpt lat="43.20841396227479" lon="-5.411796988919377">
        <ele>506.75</ele>
        <time>2025-04-29T11:08:33Z</time>
      </trkpt>
      <trkpt lat="43.208451010286808" lon="-5.412020031362772">
        <ele>506.75</ele>
        <time>2025-04-29T11:08:34Z</time>
      </trkpt>
      <trkpt lat="43.208489986136556" lon="-5.41225397028029">
        <ele>507.70999999999998</ele>
        <time>2025-04-29T11:08:35Z</time>
      </trkpt>
      <trkpt lat="43.20852099917829" lon="-5.412439964711666">
        <ele>508.19</ele>
        <time>2025-04-29T11:08:36Z</time>
      </trkpt>
      <trkpt lat="43.208639016374946" lon="-5.412666024640203">
        <ele>508.67000000000002</ele>
        <time>2025-04-29T11:08:37Z</time>
      </trkpt>
      <trkpt lat="43.208739012479782" lon="-5.41285595856607">
        <ele>509.63999999999999</ele>
        <time>2025-04-29T11:08:38Z</time>
      </trkpt>
      <trkpt lat="43.208870021626353" lon="-5.412995014339685">
        <ele>510.12</ele>
        <time>2025-04-29T11:08:39Z</time>
      </trkpt>
      <trkpt lat="43.209017962217331" lon="-5.413129040971398">
        <ele>510.60000000000002</ele>
        <time>2025-04-29T11:08:40Z</time>
      </trkpt>
      <trkpt lat="43.209203034639359" lon="-5.413215039297938">
        <ele>511.07999999999998</ele>
        <time>2025-04-29T11:08:41Z</time>
      </trkpt>
      <trkpt lat="43.209394980221987" lon="-5.413304977118969">
        <ele>512.03999999999996</ele>
        <time>2025-04-29T11:08:42Z</time>
      </trkpt>
      <trkpt lat="43.209987999871373" lon="-5.41358501650393">
        <ele>513.48000000000002</ele>
        <time>2025-04-29T11:08:45Z</time>
      </trkpt>
      <trkpt lat="43.210143987089396" lon="-5.413742009550333">
        <ele>513.96000000000004</ele>
        <time>2025-04-29T11:08:46Z</time>
      </trkpt>
      <trkpt lat="43.210274996235967" lon="-5.413947030901909">
        <ele>514.44000000000005</ele>
        <time>2025-04-29T11:08:47Z</time>
      </trkpt>
      <trkpt lat="43.21049502119422" lon="-5.414371993392706">
        <ele>514.91999999999996</ele>
        <time>2025-04-29T11:08:49Z</time>
      </trkpt>
      <trkpt lat="43.210630975663662" lon="-5.41450803168118">
        <ele>514.91999999999996</ele>
        <time>2025-04-29T11:08:50Z</time>
      </trkpt>
      <trkpt lat="43.210773970931768" lon="-5.414651026949287">
        <ele>515.39999999999998</ele>
        <time>2025-04-29T11:08:51Z</time>
      </trkpt>
      <trkpt lat="43.210936998948455" lon="-5.414733001962304">
        <ele>515.39999999999998</ele>
        <time>2025-04-29T11:08:52Z</time>
      </trkpt>
      <trkpt lat="43.211123999208212" lon="-5.414827968925238">
        <ele>514.91999999999996</ele>
        <time>2025-04-29T11:08:53Z</time>
      </trkpt>
      <trkpt lat="43.212421014904976" lon="-5.415537999942899">
        <ele>511.56</ele>
        <time>2025-04-29T11:08:59Z</time>
      </trkpt>
      <trkpt lat="43.212620001286268" lon="-5.41566900908947">
        <ele>510.60000000000002</ele>
        <time>2025-04-29T11:09:00Z</time>
      </trkpt>
      <trkpt lat="43.212813958525658" lon="-5.415795994922519">
        <ele>509.63999999999999</ele>
        <time>2025-04-29T11:09:01Z</time>
      </trkpt>
      <trkpt lat="43.213038006797433" lon="-5.415831031277776">
        <ele>508.67000000000002</ele>
        <time>2025-04-29T11:09:02Z</time>
      </trkpt>
      <trkpt lat="43.213250990957022" lon="-5.415852991864085">
        <ele>507.70999999999998</ele>
        <time>2025-04-29T11:09:03Z</time>
      </trkpt>
      <trkpt lat="43.213452994823456" lon="-5.415875036269426">
        <ele>506.75</ele>
        <time>2025-04-29T11:09:04Z</time>
      </trkpt>
      <trkpt lat="43.213644018396735" lon="-5.415894985198975">
        <ele>505.79000000000002</ele>
        <time>2025-04-29T11:09:05Z</time>
      </trkpt>
      <trkpt lat="43.213824983686209" lon="-5.415914012119174">
        <ele>504.82999999999998</ele>
        <time>2025-04-29T11:09:06Z</time>
      </trkpt>
      <trkpt lat="43.213970996439457" lon="-5.416015014052391">
        <ele>504.35000000000002</ele>
        <time>2025-04-29T11:09:07Z</time>
      </trkpt>
      <trkpt lat="43.214121032506227" lon="-5.416131019592285">
        <ele>503.38999999999999</ele>
        <time>2025-04-29T11:09:08Z</time>
      </trkpt>
      <trkpt lat="43.214243995025754" lon="-5.41627200320363">
        <ele>502.91000000000003</ele>
        <time>2025-04-29T11:09:09Z</time>
      </trkpt>
      <trkpt lat="43.214657977223396" lon="-5.416745999827981">
        <ele>500.5</ele>
        <time>2025-04-29T11:09:12Z</time>
      </trkpt>
      <trkpt lat="43.214950002729893" lon="-5.4170230217278">
        <ele>500.01999999999998</ele>
        <time>2025-04-29T11:09:14Z</time>
      </trkpt>
      <trkpt lat="43.215191988274455" lon="-5.417157970368862">
        <ele>500.01999999999998</ele>
        <time>2025-04-29T11:09:16Z</time>
      </trkpt>
      <trkpt lat="43.215314028784633" lon="-5.417225025594235">
        <ele>500.5</ele>
        <time>2025-04-29T11:09:17Z</time>
      </trkpt>
      <trkpt lat="43.215572023764253" lon="-5.417369026690722">
        <ele>500.5</ele>
        <time>2025-04-29T11:09:19Z</time>
      </trkpt>
      <trkpt lat="43.215714013203979" lon="-5.417446978390217">
        <ele>500.5</ele>
        <time>2025-04-29T11:09:20Z</time>
      </trkpt>
      <trkpt lat="43.215849967673421" lon="-5.417544040828943">
        <ele>500.98000000000002</ele>
        <time>2025-04-29T11:09:21Z</time>
      </trkpt>
      <trkpt lat="43.215978965163231" lon="-5.417699022218585">
        <ele>500.98000000000002</ele>
        <time>2025-04-29T11:09:22Z</time>
      </trkpt>
      <trkpt lat="43.216086002066731" lon="-5.417887028306723">
        <ele>501.45999999999998</ele>
        <time>2025-04-29T11:09:23Z</time>
      </trkpt>
      <trkpt lat="43.216180969029665" lon="-5.418105041608214">
        <ele>501.45999999999998</ele>
        <time>2025-04-29T11:09:24Z</time>
      </trkpt>
      <trkpt lat="43.216234026476741" lon="-5.418350966647267">
        <ele>501.45999999999998</ele>
        <time>2025-04-29T11:09:25Z</time>
      </trkpt>
      <trkpt lat="43.216288005933166" lon="-5.418607033789158">
        <ele>501.94999999999999</ele>
        <time>2025-04-29T11:09:26Z</time>
      </trkpt>
      <trkpt lat="43.216551030054688" lon="-5.419873958453536">
        <ele>502.43000000000001</ele>
        <time>2025-04-29T11:09:31Z</time>
      </trkpt>
      <trkpt lat="43.216634010896087" lon="-5.420076968148351">
        <ele>502.91000000000003</ele>
        <time>2025-04-29T11:09:32Z</time>
      </trkpt>
      <trkpt lat="43.216757979243994" lon="-5.420233961194754">
        <ele>502.91000000000003</ele>
        <time>2025-04-29T11:09:33Z</time>
      </trkpt>
      <trkpt lat="43.216903991997242" lon="-5.420347033068538">
        <ele>502.91000000000003</ele>
        <time>2025-04-29T11:09:34Z</time>
      </trkpt>
      <trkpt lat="43.217061990872025" lon="-5.420437976717949">
        <ele>503.38999999999999</ele>
        <time>2025-04-29T11:09:35Z</time>
      </trkpt>
      <trkpt lat="43.217230970039964" lon="-5.420511988922954">
        <ele>503.38999999999999</ele>
        <time>2025-04-29T11:09:36Z</time>
      </trkpt>
      <trkpt lat="43.217402966693044" lon="-5.420586001127958">
        <ele>503.38999999999999</ele>
        <time>2025-04-29T11:09:37Z</time>
      </trkpt>
      <trkpt lat="43.217576975002885" lon="-5.420662024989724">
        <ele>503.87</ele>
        <time>2025-04-29T11:09:38Z</time>
      </trkpt>
      <trkpt lat="43.217747965827584" lon="-5.420777024701238">
        <ele>504.35000000000002</ele>
        <time>2025-04-29T11:09:39Z</time>
      </trkpt>
      <trkpt lat="43.218046026304364" lon="-5.421097967773676">
        <ele>505.31</ele>
        <time>2025-04-29T11:09:41Z</time>
      </trkpt>
      <trkpt lat="43.219108013436198" lon="-5.422573015093803">
        <ele>508.19</ele>
        <time>2025-04-29T11:09:48Z</time>
      </trkpt>
      <trkpt lat="43.219589972868562" lon="-5.423670038580895">
        <ele>509.63999999999999</ele>
        <time>2025-04-29T11:09:52Z</time>
      </trkpt>
      <trkpt lat="43.219742020592093" lon="-5.423908000811935">
        <ele>510.12</ele>
        <time>2025-04-29T11:09:53Z</time>
      </trkpt>
      <trkpt lat="43.219892978668213" lon="-5.424144035205245">
        <ele>511.07999999999998</ele>
        <time>2025-04-29T11:09:54Z</time>
      </trkpt>
      <trkpt lat="43.220080984756351" lon="-5.424318965524435">
        <ele>512.03999999999996</ele>
        <time>2025-04-29T11:09:55Z</time>
      </trkpt>
      <trkpt lat="43.220275025814772" lon="-5.424484005197883">
        <ele>512.51999999999998</ele>
        <time>2025-04-29T11:09:56Z</time>
      </trkpt>
      <trkpt lat="43.220460014417768" lon="-5.424642004072666">
        <ele>513.48000000000002</ele>
        <time>2025-04-29T11:09:57Z</time>
      </trkpt>
      <trkpt lat="43.22061700746417" lon="-5.424835039302707">
        <ele>513.96000000000004</ele>
        <time>2025-04-29T11:09:58Z</time>
      </trkpt>
      <trkpt lat="43.220766959711909" lon="-5.425044000148773">
        <ele>514.44000000000005</ele>
        <time>2025-04-29T11:09:59Z</time>
      </trkpt>
      <trkpt lat="43.220892017707229" lon="-5.425287997350097">
        <ele>514.44000000000005</ele>
        <time>2025-04-29T11:10:00Z</time>
      </trkpt>
      <trkpt lat="43.221138026565313" lon="-5.42576601728797">
        <ele>513.96000000000004</ele>
        <time>2025-04-29T11:10:02Z</time>
      </trkpt>
      <trkpt lat="43.221215978264809" lon="-5.426057958975434">
        <ele>513.48000000000002</ele>
        <time>2025-04-29T11:10:03Z</time>
      </trkpt>
      <trkpt lat="43.221289990469813" lon="-5.426336992532015">
        <ele>512.51999999999998</ele>
        <time>2025-04-29T11:10:04Z</time>
      </trkpt>
      <trkpt lat="43.221545973792672" lon="-5.427438961341977">
        <ele>507.23000000000002</ele>
        <time>2025-04-29T11:10:08Z</time>
      </trkpt>
      <trkpt lat="43.22169098071754" lon="-5.427683964371681">
        <ele>505.31</ele>
        <time>2025-04-29T11:10:09Z</time>
      </trkpt>
      <trkpt lat="43.221830958500504" lon="-5.427921004593372">
        <ele>503.38999999999999</ele>
        <time>2025-04-29T11:10:10Z</time>
      </trkpt>
      <trkpt lat="43.222003960981965" lon="-5.428101969882846">
        <ele>500.98000000000002</ele>
        <time>2025-04-29T11:10:11Z</time>
      </trkpt>
      <trkpt lat="43.22220403701067" lon="-5.428247982636094">
        <ele>499.06</ele>
        <time>2025-04-29T11:10:12Z</time>
      </trkpt>
      <trkpt lat="43.222404029220343" lon="-5.428381003439426">
        <ele>496.66000000000003</ele>
        <time>2025-04-29T11:10:13Z</time>
      </trkpt>
      <trkpt lat="43.222616007551551" lon="-5.42847597040236">
        <ele>494.25999999999999</ele>
        <time>2025-04-29T11:10:14Z</time>
      </trkpt>
      <trkpt lat="43.222826980054379" lon="-5.428570015355945">
        <ele>491.85000000000002</ele>
        <time>2025-04-29T11:10:15Z</time>
      </trkpt>
      <trkpt lat="43.223432991653681" lon="-5.428876038640738">
        <ele>484.16000000000003</ele>
        <time>2025-04-29T11:10:18Z</time>
      </trkpt>
      <trkpt lat="43.223609011620283" lon="-5.429051974788308">
        <ele>481.27999999999997</ele>
        <time>2025-04-29T11:10:19Z</time>
      </trkpt>
      <trkpt lat="43.223749995231628" lon="-5.429293038323522">
        <ele>478.87</ele>
        <time>2025-04-29T11:10:20Z</time>
      </trkpt>
      <trkpt lat="43.22388201020658" lon="-5.429556984454393">
        <ele>476.47000000000003</ele>
        <time>2025-04-29T11:10:21Z</time>
      </trkpt>
      <trkpt lat="43.223981000483036" lon="-5.429859990254045">
        <ele>474.06999999999999</ele>
        <time>2025-04-29T11:10:22Z</time>
      </trkpt>
      <trkpt lat="43.224180992692709" lon="-5.43047103099525">
        <ele>469.25999999999999</ele>
        <time>2025-04-29T11:10:24Z</time>
      </trkpt>
      <trkpt lat="43.224252993240952" lon="-5.43079499155283">
        <ele>466.38</ele>
        <time>2025-04-29T11:10:25Z</time>
      </trkpt>
      <trkpt lat="43.224301021546125" lon="-5.431132027879357">
        <ele>463.49000000000001</ele>
        <time>2025-04-29T11:10:26Z</time>
      </trkpt>
      <trkpt lat="43.224711986258626" lon="-5.433542998507619">
        <ele>441.38</ele>
        <time>2025-04-29T11:10:33Z</time>
      </trkpt>
      <trkpt lat="43.224801002070308" lon="-5.433857990428805">
        <ele>438.5</ele>
        <time>2025-04-29T11:10:34Z</time>
      </trkpt>
      <trkpt lat="43.225035024806857" lon="-5.434772036969662">
        <ele>430.32999999999998</ele>
        <time>2025-04-29T11:10:37Z</time>
      </trkpt>
      <trkpt lat="43.225067965686321" lon="-5.435076970607042">
        <ele>427.92000000000002</ele>
        <time>2025-04-29T11:10:38Z</time>
      </trkpt>
      <trkpt lat="43.225161004811525" lon="-5.43597400188446">
        <ele>419.75</ele>
        <time>2025-04-29T11:10:41Z</time>
      </trkpt>
      <trkpt lat="43.225629972293973" lon="-5.438197972252965">
        <ele>406.29000000000002</ele>
        <time>2025-04-29T11:10:49Z</time>
      </trkpt>
      <trkpt lat="43.225699039176106" lon="-5.438472982496023">
        <ele>405.32999999999998</ele>
        <time>2025-04-29T11:10:50Z</time>
      </trkpt>
      <trkpt lat="43.225766010582447" lon="-5.438746986910701">
        <ele>404.37</ele>
        <time>2025-04-29T11:10:51Z</time>
      </trkpt>
      <trkpt lat="43.226056024432182" lon="-5.439779972657561">
        <ele>401.97000000000003</ele>
        <time>2025-04-29T11:10:55Z</time>
      </trkpt>
      <trkpt lat="43.226170018315315" lon="-5.439992034807801">
        <ele>401.49000000000001</ele>
        <time>2025-04-29T11:10:56Z</time>
      </trkpt>
      <trkpt lat="43.226304966956377" lon="-5.440181968733668">
        <ele>400.52999999999997</ele>
        <time>2025-04-29T11:10:57Z</time>
      </trkpt>
      <trkpt lat="43.227097978815436" lon="-5.441375970840454">
        <ele>398.12</ele>
        <time>2025-04-29T11:11:03Z</time>
      </trkpt>
      <trkpt lat="43.22717098519206" lon="-5.441614016890526">
        <ele>398.12</ele>
        <time>2025-04-29T11:11:04Z</time>
      </trkpt>
      <trkpt lat="43.22721398435533" lon="-5.441864971071482">
        <ele>398.12</ele>
        <time>2025-04-29T11:11:05Z</time>
      </trkpt>
      <trkpt lat="43.227211972698569" lon="-5.442130006849766">
        <ele>398.12</ele>
        <time>2025-04-29T11:11:06Z</time>
      </trkpt>
      <trkpt lat="43.227178025990725" lon="-5.442399987950921">
        <ele>397.63999999999999</ele>
        <time>2025-04-29T11:11:07Z</time>
      </trkpt>
      <trkpt lat="43.227129997685552" lon="-5.442666029557586">
        <ele>397.63999999999999</ele>
        <time>2025-04-29T11:11:08Z</time>
      </trkpt>
      <trkpt lat="43.227074006572366" lon="-5.442938022315502">
        <ele>396.68000000000001</ele>
        <time>2025-04-29T11:11:09Z</time>
      </trkpt>
      <trkpt lat="43.22654603049159" lon="-5.445613022893667">
        <ele>392.83999999999997</ele>
        <time>2025-04-29T11:11:18Z</time>
      </trkpt>
      <trkpt lat="43.226493978872895" lon="-5.445886021479964">
        <ele>392.36000000000001</ele>
        <time>2025-04-29T11:11:19Z</time>
      </trkpt>
      <trkpt lat="43.226429019123316" lon="-5.446131024509668">
        <ele>392.36000000000001</ele>
        <time>2025-04-29T11:11:20Z</time>
      </trkpt>
      <trkpt lat="43.226326005533338" lon="-5.44635096564889">
        <ele>392.36000000000001</ele>
        <time>2025-04-29T11:11:21Z</time>
      </trkpt>
      <trkpt lat="43.226185021921992" lon="-5.44652396813035">
        <ele>391.87</ele>
        <time>2025-04-29T11:11:22Z</time>
      </trkpt>
      <trkpt lat="43.226026017218828" lon="-5.446653971448541">
        <ele>391.38999999999999</ele>
        <time>2025-04-29T11:11:23Z</time>
      </trkpt>
      <trkpt lat="43.225858965888619" lon="-5.446751033887267">
        <ele>391.38999999999999</ele>
        <time>2025-04-29T11:11:24Z</time>
      </trkpt>
      <trkpt lat="43.225655034184456" lon="-5.446767965331674">
        <ele>391.38999999999999</ele>
        <time>2025-04-29T11:11:25Z</time>
      </trkpt>
      <trkpt lat="43.225446995347738" lon="-5.44673502445221">
        <ele>390.91000000000003</ele>
        <time>2025-04-29T11:11:26Z</time>
      </trkpt>
      <trkpt lat="43.225233005359769" lon="-5.446682972833514">
        <ele>390.43000000000001</ele>
        <time>2025-04-29T11:11:27Z</time>
      </trkpt>
      <trkpt lat="43.225014992058277" lon="-5.44662999920547">
        <ele>389.94999999999999</ele>
        <time>2025-04-29T11:11:28Z</time>
      </trkpt>
      <trkpt lat="43.224807037040591" lon="-5.446579959243536">
        <ele>388.99000000000001</ele>
        <time>2025-04-29T11:11:29Z</time>
      </trkpt>
      <trkpt lat="43.224558010697365" lon="-5.446614995598793">
        <ele>388.02999999999997</ele>
        <time>2025-04-29T11:11:30Z</time>
      </trkpt>
      <trkpt lat="43.224327005445957" lon="-5.44664902612567">
        <ele>387.55000000000001</ele>
        <time>2025-04-29T11:11:31Z</time>
      </trkpt>
      <trkpt lat="43.223009034991264" lon="-5.446795960888267">
        <ele>383.22000000000003</ele>
        <time>2025-04-29T11:11:37Z</time>
      </trkpt>
      <trkpt lat="43.222802001982927" lon="-5.446771988645196">
        <ele>382.74000000000001</ele>
        <time>2025-04-29T11:11:38Z</time>
      </trkpt>
      <trkpt lat="43.222388019785285" lon="-5.446734018623829">
        <ele>380.81999999999999</ele>
        <time>2025-04-29T11:11:40Z</time>
      </trkpt>
      <trkpt lat="43.222179980948567" lon="-5.446747010573745">
        <ele>380.33999999999997</ele>
        <time>2025-04-29T11:11:41Z</time>
      </trkpt>
      <trkpt lat="43.221553014591336" lon="-5.446892017498612">
        <ele>378.42000000000002</ele>
        <time>2025-04-29T11:11:44Z</time>
      </trkpt>
      <trkpt lat="43.22136802598834" lon="-5.446996036916971">
        <ele>377.94</ele>
        <time>2025-04-29T11:11:45Z</time>
      </trkpt>
      <trkpt lat="43.22119602933526" lon="-5.447106007486582">
        <ele>377.44999999999999</ele>
        <time>2025-04-29T11:11:46Z</time>
      </trkpt>
      <trkpt lat="43.221053034067154" lon="-5.447254031896591">
        <ele>376.97000000000003</ele>
        <time>2025-04-29T11:11:47Z</time>
      </trkpt>
      <trkpt lat="43.220941973850131" lon="-5.447374982759357">
        <ele>376.49000000000001</ele>
        <time>2025-04-29T11:11:48Z</time>
      </trkpt>
      <trkpt lat="43.220855975523591" lon="-5.447499034926295">
        <ele>376.00999999999999</ele>
        <time>2025-04-29T11:11:49Z</time>
      </trkpt>
      <trkpt lat="43.220780035480857" lon="-5.447617974132299">
        <ele>376.49000000000001</ele>
        <time>2025-04-29T11:11:50Z</time>
      </trkpt>
      <trkpt lat="43.220714991912246" lon="-5.447738002985716">
        <ele>376.49000000000001</ele>
        <time>2025-04-29T11:11:51Z</time>
      </trkpt>
      <trkpt lat="43.220661012455821" lon="-5.447885021567345">
        <ele>376.49000000000001</ele>
        <time>2025-04-29T11:11:52Z</time>
      </trkpt>
      <trkpt lat="43.220608960837126" lon="-5.448028016835451">
        <ele>376.49000000000001</ele>
        <time>2025-04-29T11:11:53Z</time>
      </trkpt>
      <trkpt lat="43.220559004694223" lon="-5.448167994618416">
        <ele>376.49000000000001</ele>
        <time>2025-04-29T11:11:54Z</time>
      </trkpt>
      <trkpt lat="43.22051097638905" lon="-5.448300009593368">
        <ele>376.00999999999999</ele>
        <time>2025-04-29T11:11:55Z</time>
      </trkpt>
      <trkpt lat="43.22046797722578" lon="-5.448430012911558">
        <ele>376.49000000000001</ele>
        <time>2025-04-29T11:11:56Z</time>
      </trkpt>
      <trkpt lat="43.220438975840807" lon="-5.449012974277139">
        <ele>376.49000000000001</ele>
        <time>2025-04-29T11:12:00Z</time>
      </trkpt>
      <trkpt lat="43.220441993325949" lon="-5.449128979817033">
        <ele>376.49000000000001</ele>
        <time>2025-04-29T11:12:01Z</time>
      </trkpt>
      <trkpt lat="43.22044400498271" lon="-5.449219001457095">
        <ele>376.49000000000001</ele>
        <time>2025-04-29T11:12:02Z</time>
      </trkpt>
      <trkpt lat="43.220446016639471" lon="-5.449297036975622">
        <ele>376.49000000000001</ele>
        <time>2025-04-29T11:12:03Z</time>
      </trkpt>
      <trkpt lat="43.220448028296232" lon="-5.449374988675118">
        <ele>376.49000000000001</ele>
        <time>2025-04-29T11:12:04Z</time>
      </trkpt>
      <trkpt lat="43.220450039952993" lon="-5.449456963688135">
        <ele>376.49000000000001</ele>
        <time>2025-04-29T11:12:05Z</time>
      </trkpt>
      <trkpt lat="43.220453979447484" lon="-5.449560983106494">
        <ele>376.97000000000003</ele>
        <time>2025-04-29T11:12:06Z</time>
      </trkpt>
      <trkpt lat="43.220560010522604" lon="-5.45073595829308">
        <ele>378.89999999999998</ele>
        <time>2025-04-29T11:12:15Z</time>
      </trkpt>
      <trkpt lat="43.220740975812078" lon="-5.452611995860934">
        <ele>380.33999999999997</ele>
        <time>2025-04-29T11:12:27Z</time>
      </trkpt>
      <trkpt lat="43.220898974686861" lon="-5.453778002411127">
        <ele>378.89999999999998</ele>
        <time>2025-04-29T11:12:35Z</time>
      </trkpt>
      <trkpt lat="43.220950020477176" lon="-5.45399802736938">
        <ele>378.42000000000002</ele>
        <time>2025-04-29T11:12:37Z</time>
      </trkpt>
      <trkpt lat="43.221092009916902" lon="-5.454404968768358">
        <ele>377.94</ele>
        <time>2025-04-29T11:12:41Z</time>
      </trkpt>
      <trkpt lat="43.221134003251791" lon="-5.454502031207085">
        <ele>377.44999999999999</ele>
        <time>2025-04-29T11:12:42Z</time>
      </trkpt>
      <trkpt lat="43.221173984929919" lon="-5.45460001565516">
        <ele>377.44999999999999</ele>
        <time>2025-04-29T11:12:43Z</time>
      </trkpt>
      <trkpt lat="43.221212960779667" lon="-5.454700011759996">
        <ele>377.44999999999999</ele>
        <time>2025-04-29T11:12:44Z</time>
      </trkpt>
      <trkpt lat="43.221252020448446" lon="-5.454802019521594">
        <ele>377.94</ele>
        <time>2025-04-29T11:12:45Z</time>
      </trkpt>
      <trkpt lat="43.221292002126575" lon="-5.454905033111572">
        <ele>377.94</ele>
        <time>2025-04-29T11:12:46Z</time>
      </trkpt>
      <trkpt lat="43.221424017101526" lon="-5.455337036401033">
        <ele>378.42000000000002</ele>
        <time>2025-04-29T11:12:50Z</time>
      </trkpt>
      <trkpt lat="43.221434997394681" lon="-5.455448012799025">
        <ele>378.42000000000002</ele>
        <time>2025-04-29T11:12:51Z</time>
      </trkpt>
      <trkpt lat="43.221514038741589" lon="-5.456370022147894">
        <ele>380.81999999999999</ele>
        <time>2025-04-29T11:12:59Z</time>
      </trkpt>
      <trkpt lat="43.221524013206363" lon="-5.45657898299396">
        <ele>381.30000000000001</ele>
        <time>2025-04-29T11:13:01Z</time>
      </trkpt>
      <trkpt lat="43.221644964069128" lon="-5.45709203928709">
        <ele>381.77999999999997</ele>
        <time>2025-04-29T11:13:06Z</time>
      </trkpt>
      <trkpt lat="43.221684023737907" lon="-5.457186000421643">
        <ele>381.77999999999997</ele>
        <time>2025-04-29T11:13:07Z</time>
      </trkpt>
      <trkpt lat="43.221722999587655" lon="-5.457279961556196">
        <ele>381.77999999999997</ele>
        <time>2025-04-29T11:13:08Z</time>
      </trkpt>
      <trkpt lat="43.221762981265783" lon="-5.457374006509781">
        <ele>381.77999999999997</ele>
        <time>2025-04-29T11:13:09Z</time>
      </trkpt>
      <trkpt lat="43.221800029277802" lon="-5.457464028149843">
        <ele>382.25999999999999</ele>
        <time>2025-04-29T11:13:10Z</time>
      </trkpt>
      <trkpt lat="43.221851997077465" lon="-5.457548014819622">
        <ele>382.25999999999999</ele>
        <time>2025-04-29T11:13:11Z</time>
      </trkpt>
      <trkpt lat="43.221914023160934" lon="-5.457604005932808">
        <ele>382.25999999999999</ele>
        <time>2025-04-29T11:13:12Z</time>
      </trkpt>
      <trkpt lat="43.221974959596992" lon="-5.457658991217613">
        <ele>382.74000000000001</ele>
        <time>2025-04-29T11:13:13Z</time>
      </trkpt>
      <trkpt lat="43.222033968195319" lon="-5.457712970674038">
        <ele>382.74000000000001</ele>
        <time>2025-04-29T11:13:14Z</time>
      </trkpt>
      <trkpt lat="43.22240000590682" lon="-5.457885973155499">
        <ele>383.69999999999999</ele>
        <time>2025-04-29T11:13:19Z</time>
      </trkpt>
      <trkpt lat="43.222467983141541" lon="-5.45790902338922">
        <ele>383.69999999999999</ele>
        <time>2025-04-29T11:13:20Z</time>
      </trkpt>
      <trkpt lat="43.223456041887403" lon="-5.458303978666663">
        <ele>387.06999999999999</ele>
        <time>2025-04-29T11:13:32Z</time>
      </trkpt>
      <trkpt lat="43.223566012457013" lon="-5.458344966173172">
        <ele>387.55000000000001</ele>
        <time>2025-04-29T11:13:33Z</time>
      </trkpt>
      <trkpt lat="43.223680006340146" lon="-5.458383020013571">
        <ele>388.50999999999999</ele>
        <time>2025-04-29T11:13:34Z</time>
      </trkpt>
      <trkpt lat="43.224742999300361" lon="-5.458848970010877">
        <ele>393.80000000000001</ele>
        <time>2025-04-29T11:13:42Z</time>
      </trkpt>
      <trkpt lat="43.22487099096179" lon="-5.458975033834577">
        <ele>394.27999999999997</ele>
        <time>2025-04-29T11:13:43Z</time>
      </trkpt>
      <trkpt lat="43.2249999884516" lon="-5.459124986082315">
        <ele>394.75999999999999</ele>
        <time>2025-04-29T11:13:44Z</time>
      </trkpt>
      <trkpt lat="43.225134015083313" lon="-5.459280973300338">
        <ele>395.24000000000001</ele>
        <time>2025-04-29T11:13:45Z</time>
      </trkpt>
      <trkpt lat="43.225270975381136" lon="-5.459440983831883">
        <ele>395.24000000000001</ele>
        <time>2025-04-29T11:13:46Z</time>
      </trkpt>
      <trkpt lat="43.226557010784745" lon="-5.461343005299568">
        <ele>399.56999999999999</ele>
        <time>2025-04-29T11:13:56Z</time>
      </trkpt>
      <trkpt lat="43.226948026567698" lon="-5.461944993585348">
        <ele>400.52999999999997</ele>
        <time>2025-04-29T11:13:59Z</time>
      </trkpt>
      <trkpt lat="43.227036036550999" lon="-5.462194019928575">
        <ele>401.00999999999999</ele>
        <time>2025-04-29T11:14:00Z</time>
      </trkpt>
      <trkpt lat="43.227124968543649" lon="-5.462442962452769">
        <ele>401.49000000000001</ele>
        <time>2025-04-29T11:14:01Z</time>
      </trkpt>
      <trkpt lat="43.227474996820092" lon="-5.464615970849991">
        <ele>400.52999999999997</ele>
        <time>2025-04-29T11:14:09Z</time>
      </trkpt>
      <trkpt lat="43.227482959628105" lon="-5.464873965829611">
        <ele>400.52999999999997</ele>
        <time>2025-04-29T11:14:10Z</time>
      </trkpt>
      <trkpt lat="43.227468961849809" lon="-5.465115029364824">
        <ele>400.52999999999997</ele>
        <time>2025-04-29T11:14:11Z</time>
      </trkpt>
      <trkpt lat="43.227392015978694" lon="-5.465347962453961">
        <ele>400.05000000000001</ele>
        <time>2025-04-29T11:14:12Z</time>
      </trkpt>
      <trkpt lat="43.227314986288548" lon="-5.465574022382498">
        <ele>400.52999999999997</ele>
        <time>2025-04-29T11:14:13Z</time>
      </trkpt>
      <trkpt lat="43.227195041254163" lon="-5.465774014592171">
        <ele>400.52999999999997</ele>
        <time>2025-04-29T11:14:14Z</time>
      </trkpt>
      <trkpt lat="43.227078029885888" lon="-5.465969983488321">
        <ele>400.52999999999997</ele>
        <time>2025-04-29T11:14:15Z</time>
      </trkpt>
      <trkpt lat="43.226708974689245" lon="-5.466715972870588">
        <ele>401.97000000000003</ele>
        <time>2025-04-29T11:14:19Z</time>
      </trkpt>
      <trkpt lat="43.226644014939666" lon="-5.466922000050545">
        <ele>402.44999999999999</ele>
        <time>2025-04-29T11:14:20Z</time>
      </trkpt>
      <trkpt lat="43.226529015228152" lon="-5.467812996357679">
        <ele>404.37</ele>
        <time>2025-04-29T11:14:24Z</time>
      </trkpt>
      <trkpt lat="43.226437987759709" lon="-5.468509029597044">
        <ele>405.81</ele>
        <time>2025-04-29T11:14:27Z</time>
      </trkpt>
      <trkpt lat="43.226488027721643" lon="-5.468750009313226">
        <ele>406.29000000000002</ele>
        <time>2025-04-29T11:14:28Z</time>
      </trkpt>
      <trkpt lat="43.226536978036165" lon="-5.468988977372646">
        <ele>406.29000000000002</ele>
        <time>2025-04-29T11:14:29Z</time>
      </trkpt>
      <trkpt lat="43.226605039089918" lon="-5.469196010380983">
        <ele>406.76999999999998</ele>
        <time>2025-04-29T11:14:30Z</time>
      </trkpt>
      <trkpt lat="43.226724984124303" lon="-5.469393990933895">
        <ele>406.76999999999998</ele>
        <time>2025-04-29T11:14:31Z</time>
      </trkpt>
      <trkpt lat="43.226853981614113" lon="-5.469584008678794">
        <ele>405.81</ele>
        <time>2025-04-29T11:14:32Z</time>
      </trkpt>
      <trkpt lat="43.227035030722618" lon="-5.469729015603662">
        <ele>405.32999999999998</ele>
        <time>2025-04-29T11:14:33Z</time>
      </trkpt>
      <trkpt lat="43.228337997570634" lon="-5.470839031040669">
        <ele>398.12</ele>
        <time>2025-04-29T11:14:40Z</time>
      </trkpt>
      <trkpt lat="43.228650977835059" lon="-5.471413023769856">
        <ele>396.68000000000001</ele>
        <time>2025-04-29T11:14:43Z</time>
      </trkpt>
      <trkpt lat="43.229019027203321" lon="-5.472299996763468">
        <ele>396.19999999999999</ele>
        <time>2025-04-29T11:14:48Z</time>
      </trkpt>
      <trkpt lat="43.229093961417675" lon="-5.472488002851605">
        <ele>396.19999999999999</ele>
        <time>2025-04-29T11:14:49Z</time>
      </trkpt>
      <trkpt lat="43.23022099211812" lon="-5.473986016586423">
        <ele>396.19999999999999</ele>
        <time>2025-04-29T11:14:58Z</time>
      </trkpt>
      <trkpt lat="43.231621021404862" lon="-5.474194977432489">
        <ele>394.27999999999997</ele>
        <time>2025-04-29T11:15:06Z</time>
      </trkpt>
      <trkpt lat="43.232353013008833" lon="-5.474390024319291">
        <ele>389.94999999999999</ele>
        <time>2025-04-29T11:15:11Z</time>
      </trkpt>
      <trkpt lat="43.232479998841882" lon="-5.474458001554012">
        <ele>388.99000000000001</ele>
        <time>2025-04-29T11:15:12Z</time>
      </trkpt>
      <trkpt lat="43.232606984674931" lon="-5.474508041515946">
        <ele>387.55000000000001</ele>
        <time>2025-04-29T11:15:13Z</time>
      </trkpt>
      <trkpt lat="43.23271200992167" lon="-5.474627986550331">
        <ele>386.58999999999997</ele>
        <time>2025-04-29T11:15:14Z</time>
      </trkpt>
      <trkpt lat="43.232759032398462" lon="-5.474822027608752">
        <ele>385.14999999999998</ele>
        <time>2025-04-29T11:15:15Z</time>
      </trkpt>
      <trkpt lat="43.232842013239861" lon="-5.474991006776691">
        <ele>383.69999999999999</ele>
        <time>2025-04-29T11:15:16Z</time>
      </trkpt>
      <trkpt lat="43.232961036264896" lon="-5.475140037015081">
        <ele>382.25999999999999</ele>
        <time>2025-04-29T11:15:17Z</time>
      </trkpt>
      <trkpt lat="43.232962964102626" lon="-5.475385040044785">
        <ele>380.33999999999997</ele>
        <time>2025-04-29T11:15:18Z</time>
      </trkpt>
      <trkpt lat="43.232967993244529" lon="-5.475643035024405">
        <ele>378.89999999999998</ele>
        <time>2025-04-29T11:15:19Z</time>
      </trkpt>
      <trkpt lat="43.232974028214812" lon="-5.475918967276812">
        <ele>377.94</ele>
        <time>2025-04-29T11:15:20Z</time>
      </trkpt>
      <trkpt lat="43.232978973537683" lon="-5.476205963641405">
        <ele>376.49000000000001</ele>
        <time>2025-04-29T11:15:21Z</time>
      </trkpt>
      <trkpt lat="43.232907978817821" lon="-5.478440998122096">
        <ele>364.48000000000002</ele>
        <time>2025-04-29T11:15:29Z</time>
      </trkpt>
      <trkpt lat="43.232858022674918" lon="-5.478704022243619">
        <ele>363.51999999999998</ele>
        <time>2025-04-29T11:15:30Z</time>
      </trkpt>
      <trkpt lat="43.232362987473607" lon="-5.480887005105615">
        <ele>361.11000000000001</ele>
        <time>2025-04-29T11:15:38Z</time>
      </trkpt>
      <trkpt lat="43.232311019673944" lon="-5.481448005884886">
        <ele>360.63</ele>
        <time>2025-04-29T11:15:40Z</time>
      </trkpt>
      <trkpt lat="43.232300039380789" lon="-5.481730978935957">
        <ele>360.63</ele>
        <time>2025-04-29T11:15:41Z</time>
      </trkpt>
      <trkpt lat="43.232329040765762" lon="-5.482004983350635">
        <ele>360.14999999999998</ele>
        <time>2025-04-29T11:15:42Z</time>
      </trkpt>
      <trkpt lat="43.232665993273258" lon="-5.484583005309105">
        <ele>356.79000000000002</ele>
        <time>2025-04-29T11:15:51Z</time>
      </trkpt>
      <trkpt lat="43.232720978558064" lon="-5.485154986381531">
        <ele>355.82999999999998</ele>
        <time>2025-04-29T11:15:53Z</time>
      </trkpt>
      <trkpt lat="43.232689965516329" lon="-5.485435025766492">
        <ele>355.33999999999997</ele>
        <time>2025-04-29T11:15:54Z</time>
      </trkpt>
      <trkpt lat="43.232615031301975" lon="-5.485696038231254">
        <ele>354.38</ele>
        <time>2025-04-29T11:15:55Z</time>
      </trkpt>
      <trkpt lat="43.232521992176771" lon="-5.485955039039254">
        <ele>353.89999999999998</ele>
        <time>2025-04-29T11:15:56Z</time>
      </trkpt>
      <trkpt lat="43.232405986636877" lon="-5.486203981563449">
        <ele>353.42000000000002</ele>
        <time>2025-04-29T11:15:57Z</time>
      </trkpt>
      <trkpt lat="43.232171041890979" lon="-5.486706979572773">
        <ele>352.45999999999998</ele>
        <time>2025-04-29T11:15:59Z</time>
      </trkpt>
      <trkpt lat="43.232081020250916" lon="-5.486898003146052">
        <ele>351.98000000000002</ele>
        <time>2025-04-29T11:16:00Z</time>
      </trkpt>
      <trkpt lat="43.232017988339067" lon="-5.487236967310309">
        <ele>351.5</ele>
        <time>2025-04-29T11:16:01Z</time>
      </trkpt>
      <trkpt lat="43.231966020539403" lon="-5.48751600086689">
        <ele>351.01999999999998</ele>
        <time>2025-04-29T11:16:02Z</time>
      </trkpt>
      <trkpt lat="43.231959985569119" lon="-5.487791011109948">
        <ele>351.01999999999998</ele>
        <time>2025-04-29T11:16:03Z</time>
      </trkpt>
      <trkpt lat="43.231969960033894" lon="-5.488081024959683">
        <ele>350.06</ele>
        <time>2025-04-29T11:16:04Z</time>
      </trkpt>
      <trkpt lat="43.232012959197164" lon="-5.490254033356905">
        <ele>346.69</ele>
        <time>2025-04-29T11:16:11Z</time>
      </trkpt>
      <trkpt lat="43.231941964477301" lon="-5.490882005542517">
        <ele>345.73000000000002</ele>
        <time>2025-04-29T11:16:13Z</time>
      </trkpt>
      <trkpt lat="43.231652034446597" lon="-5.49292802810669">
        <ele>340.92000000000002</ele>
        <time>2025-04-29T11:16:20Z</time>
      </trkpt>
      <trkpt lat="43.231697967275977" lon="-5.493174958974123">
        <ele>340.44</ele>
        <time>2025-04-29T11:16:21Z</time>
      </trkpt>
      <trkpt lat="43.231749013066292" lon="-5.493450975045562">
        <ele>339.95999999999998</ele>
        <time>2025-04-29T11:16:22Z</time>
      </trkpt>
      <trkpt lat="43.231843980029225" lon="-5.493706036359072">
        <ele>339</ele>
        <time>2025-04-29T11:16:23Z</time>
      </trkpt>
      <trkpt lat="43.231952022761106" lon="-5.493960008025169">
        <ele>338.51999999999998</ele>
        <time>2025-04-29T11:16:24Z</time>
      </trkpt>
      <trkpt lat="43.232060987502337" lon="-5.494215991348028">
        <ele>338.04000000000002</ele>
        <time>2025-04-29T11:16:25Z</time>
      </trkpt>
      <trkpt lat="43.232227033004165" lon="-5.49441397190094">
        <ele>338.04000000000002</ele>
        <time>2025-04-29T11:16:26Z</time>
      </trkpt>
      <trkpt lat="43.232394000515342" lon="-5.494612958282232">
        <ele>338.04000000000002</ele>
        <time>2025-04-29T11:16:27Z</time>
      </trkpt>
      <trkpt lat="43.232563985511661" lon="-5.494797024875879">
        <ele>338.04000000000002</ele>
        <time>2025-04-29T11:16:28Z</time>
      </trkpt>
      <trkpt lat="43.233387004584074" lon="-5.495907040312886">
        <ele>338.51999999999998</ele>
        <time>2025-04-29T11:16:34Z</time>
      </trkpt>
      <trkpt lat="43.233944987878203" lon="-5.497461967170239">
        <ele>339.48000000000002</ele>
        <time>2025-04-29T11:16:41Z</time>
      </trkpt>
      <trkpt lat="43.234154032543302" lon="-5.499467002227902">
        <ele>339.48000000000002</ele>
        <time>2025-04-29T11:16:48Z</time>
      </trkpt>
      <trkpt lat="43.234313037246466" lon="-5.502033960074186">
        <ele>335.63999999999999</ele>
        <time>2025-04-29T11:16:57Z</time>
      </trkpt>
      <trkpt lat="43.234391994774342" lon="-5.50347900018096">
        <ele>334.68000000000001</ele>
        <time>2025-04-29T11:17:04Z</time>
      </trkpt>
      <trkpt lat="43.234505988657475" lon="-5.503677986562252">
        <ele>334.68000000000001</ele>
        <time>2025-04-29T11:17:05Z</time>
      </trkpt>
      <trkpt lat="43.234543958678842" lon="-5.50384595990181">
        <ele>334.68000000000001</ele>
        <time>2025-04-29T11:17:07Z</time>
      </trkpt>
      <trkpt lat="43.234528033062816" lon="-5.503957020118833">
        <ele>334.68000000000001</ele>
        <time>2025-04-29T11:17:08Z</time>
      </trkpt>
      <trkpt lat="43.234528033062816" lon="-5.503957020118833">
        <ele>334.68000000000001</ele>
        <time>2025-04-29T11:17:09Z</time>
      </trkpt>
      <trkpt lat="43.23447598144412" lon="-5.504234964028001">
        <ele>335.16000000000003</ele>
        <time>2025-04-29T11:17:10Z</time>
      </trkpt>
      <trkpt lat="43.234513029456139" lon="-5.504379970952869">
        <ele>335.16000000000003</ele>
        <time>2025-04-29T11:17:11Z</time>
      </trkpt>
      <trkpt lat="43.234554016962647" lon="-5.504538975656033">
        <ele>335.63999999999999</ele>
        <time>2025-04-29T11:17:12Z</time>
      </trkpt>
      <trkpt lat="43.234597016125917" lon="-5.50470401532948">
        <ele>336.12</ele>
        <time>2025-04-29T11:17:13Z</time>
      </trkpt>
      <trkpt lat="43.234643032774329" lon="-5.504879029467702">
        <ele>336.12</ele>
        <time>2025-04-29T11:17:14Z</time>
      </trkpt>
      <trkpt lat="43.235219959169626" lon="-5.506953969597817">
        <ele>338.51999999999998</ele>
        <time>2025-04-29T11:17:25Z</time>
      </trkpt>
      <trkpt lat="43.235219037160277" lon="-5.508386017754674">
        <ele>337.07999999999998</ele>
        <time>2025-04-29T11:17:31Z</time>
      </trkpt>
      <trkpt lat="43.23516103439033" lon="-5.508638983592391">
        <ele>337.07999999999998</ele>
        <time>2025-04-29T11:17:32Z</time>
      </trkpt>
      <trkpt lat="43.2350969966501" lon="-5.508907036855817">
        <ele>336.60000000000002</ele>
        <time>2025-04-29T11:17:33Z</time>
      </trkpt>
      <trkpt lat="43.235005969181657" lon="-5.509184980764985">
        <ele>336.12</ele>
        <time>2025-04-29T11:17:34Z</time>
      </trkpt>
      <trkpt lat="43.234310019761324" lon="-5.510895978659391">
        <ele>334.68000000000001</ele>
        <time>2025-04-29T11:17:39Z</time>
      </trkpt>
      <trkpt lat="43.233686992898583" lon="-5.51254503428936">
        <ele>331.79000000000002</ele>
        <time>2025-04-29T11:17:44Z</time>
      </trkpt>
      <trkpt lat="43.233600994572043" lon="-5.512880980968475">
        <ele>331.79000000000002</ele>
        <time>2025-04-29T11:17:45Z</time>
      </trkpt>
      <trkpt lat="43.233555983752012" lon="-5.513211982324719">
        <ele>331.79000000000002</ele>
        <time>2025-04-29T11:17:46Z</time>
      </trkpt>
      <trkpt lat="43.233547015115619" lon="-5.513532003387809">
        <ele>331.31</ele>
        <time>2025-04-29T11:17:47Z</time>
      </trkpt>
      <trkpt lat="43.23355296626687" lon="-5.513832997530699">
        <ele>331.31</ele>
        <time>2025-04-29T11:17:48Z</time>
      </trkpt>
      <trkpt lat="43.233582973480225" lon="-5.514117982238531">
        <ele>331.31</ele>
        <time>2025-04-29T11:17:49Z</time>
      </trkpt>
      <trkpt lat="43.233621027320623" lon="-5.514391986653209">
        <ele>331.31</ele>
        <time>2025-04-29T11:17:50Z</time>
      </trkpt>
      <trkpt lat="43.23368196375668" lon="-5.514661967754364">
        <ele>331.31</ele>
        <time>2025-04-29T11:17:51Z</time>
      </trkpt>
      <trkpt lat="43.233757987618446" lon="-5.514919962733984">
        <ele>331.31</ele>
        <time>2025-04-29T11:17:52Z</time>
      </trkpt>
      <trkpt lat="43.233844991773367" lon="-5.515162032097578">
        <ele>331.79000000000002</ele>
        <time>2025-04-29T11:17:53Z</time>
      </trkpt>
      <trkpt lat="43.234182028099895" lon="-5.516354022547603">
        <ele>332.75</ele>
        <time>2025-04-29T11:17:58Z</time>
      </trkpt>
      <trkpt lat="43.234224021434784" lon="-5.516603970900178">
        <ele>332.75</ele>
        <time>2025-04-29T11:17:59Z</time>
      </trkpt>
      <trkpt lat="43.234255034476519" lon="-5.516852997243404">
        <ele>332.75</ele>
        <time>2025-04-29T11:18:00Z</time>
      </trkpt>
      <trkpt lat="43.234180016443133" lon="-5.518640018999577">
        <ele>331.79000000000002</ele>
        <time>2025-04-29T11:18:07Z</time>
      </trkpt>
      <trkpt lat="43.234227038919926" lon="-5.519134970381856">
        <ele>331.79000000000002</ele>
        <time>2025-04-29T11:18:09Z</time>
      </trkpt>
      <trkpt lat="43.234270960092545" lon="-5.51937896758318">
        <ele>331.79000000000002</ele>
        <time>2025-04-29T11:18:10Z</time>
      </trkpt>
      <trkpt lat="43.234315970912576" lon="-5.519626988098025">
        <ele>331.79000000000002</ele>
        <time>2025-04-29T11:18:11Z</time>
      </trkpt>
      <trkpt lat="43.234375985339284" lon="-5.519863022491336">
        <ele>331.31</ele>
        <time>2025-04-29T11:18:12Z</time>
      </trkpt>
      <trkpt lat="43.234448991715908" lon="-5.520096039399505">
        <ele>331.31</ele>
        <time>2025-04-29T11:18:13Z</time>
      </trkpt>
      <trkpt lat="43.234520992264152" lon="-5.520326960831881">
        <ele>330.82999999999998</ele>
        <time>2025-04-29T11:18:14Z</time>
      </trkpt>
      <trkpt lat="43.234985014423728" lon="-5.521933017298579">
        <ele>328.43000000000001</ele>
        <time>2025-04-29T11:18:22Z</time>
      </trkpt>
      <trkpt lat="43.235147036612034" lon="-5.522635001689196">
        <ele>326.99000000000001</ele>
        <time>2025-04-29T11:18:26Z</time>
      </trkpt>
      <trkpt lat="43.235177965834737" lon="-5.522787971422076">
        <ele>326.5</ele>
        <time>2025-04-29T11:18:27Z</time>
      </trkpt>
      <trkpt lat="43.23535499162972" lon="-5.523020988330245">
        <ele>326.01999999999998</ele>
        <time>2025-04-29T11:18:29Z</time>
      </trkpt>
      <trkpt lat="43.235321966931224" lon="-5.523183010518551">
        <ele>326.01999999999998</ele>
        <time>2025-04-29T11:18:30Z</time>
      </trkpt>
      <trkpt lat="43.235257007181644" lon="-5.524565018713474">
        <ele>326.01999999999998</ele>
        <time>2025-04-29T11:18:37Z</time>
      </trkpt>
      <trkpt lat="43.234847970306873" lon="-5.526298983022571">
        <ele>325.54000000000002</ele>
        <time>2025-04-29T11:18:44Z</time>
      </trkpt>
      <trkpt lat="43.23374398984015" lon="-5.528586991131306">
        <ele>321.22000000000003</ele>
        <time>2025-04-29T11:18:53Z</time>
      </trkpt>
      <trkpt lat="43.232721984386444" lon="-5.531064011156559">
        <ele>321.69999999999999</ele>
        <time>2025-04-29T11:19:03Z</time>
      </trkpt>
      <trkpt lat="43.232643026858568" lon="-5.532127004116774">
        <ele>322.66000000000003</ele>
        <time>2025-04-29T11:19:07Z</time>
      </trkpt>
      <trkpt lat="43.232655012980103" lon="-5.532394973561168">
        <ele>322.66000000000003</ele>
        <time>2025-04-29T11:19:08Z</time>
      </trkpt>
      <trkpt lat="43.232688037678599" lon="-5.532673001289368">
        <ele>322.66000000000003</ele>
        <time>2025-04-29T11:19:09Z</time>
      </trkpt>
      <trkpt lat="43.232720978558064" lon="-5.532954968512058">
        <ele>322.66000000000003</ele>
        <time>2025-04-29T11:19:10Z</time>
      </trkpt>
      <trkpt lat="43.232791973277926" lon="-5.533230984583497">
        <ele>322.18000000000001</ele>
        <time>2025-04-29T11:19:11Z</time>
      </trkpt>
      <trkpt lat="43.232869002968073" lon="-5.533511023968458">
        <ele>322.18000000000001</ele>
        <time>2025-04-29T11:19:12Z</time>
      </trkpt>
      <trkpt lat="43.23297000490129" lon="-5.533776981756091">
        <ele>322.18000000000001</ele>
        <time>2025-04-29T11:19:13Z</time>
      </trkpt>
      <trkpt lat="43.233088022097945" lon="-5.534041011705995">
        <ele>322.18000000000001</ele>
        <time>2025-04-29T11:19:14Z</time>
      </trkpt>
      <trkpt lat="43.233218025416136" lon="-5.534302024170756">
        <ele>322.18000000000001</ele>
        <time>2025-04-29T11:19:15Z</time>
      </trkpt>
      <trkpt lat="43.233364038169384" lon="-5.534555995836854">
        <ele>322.18000000000001</ele>
        <time>2025-04-29T11:19:16Z</time>
      </trkpt>
      <trkpt lat="43.234844030812383" lon="-5.537478011101484">
        <ele>318.32999999999998</ele>
        <time>2025-04-29T11:19:27Z</time>
      </trkpt>
      <trkpt lat="43.235260024666786" lon="-5.539265032857657">
        <ele>316.88999999999999</ele>
        <time>2025-04-29T11:19:34Z</time>
      </trkpt>
      <trkpt lat="43.235430009663105" lon="-5.540207996964455">
        <ele>314.97000000000003</ele>
        <time>2025-04-29T11:19:39Z</time>
      </trkpt>
      <trkpt lat="43.235588008537889" lon="-5.540479989722371">
        <ele>314.49000000000001</ele>
        <time>2025-04-29T11:19:41Z</time>
      </trkpt>
      <trkpt lat="43.235599994659424" lon="-5.54060697555542">
        <ele>314.00999999999999</ele>
        <time>2025-04-29T11:19:42Z</time>
      </trkpt>
      <trkpt lat="43.235449036583304" lon="-5.540762040764093">
        <ele>313.52999999999997</ele>
        <time>2025-04-29T11:19:43Z</time>
      </trkpt>
      <trkpt lat="43.23544199578464" lon="-5.540921967476606">
        <ele>313.05000000000001</ele>
        <time>2025-04-29T11:19:44Z</time>
      </trkpt>
      <trkpt lat="43.235435038805008" lon="-5.541096981614828">
        <ele>312.56999999999999</ele>
        <time>2025-04-29T11:19:45Z</time>
      </trkpt>
      <trkpt lat="43.235433027148247" lon="-5.541294040158391">
        <ele>312.08999999999997</ele>
        <time>2025-04-29T11:19:46Z</time>
      </trkpt>
      <trkpt lat="43.235448030754924" lon="-5.541491014882922">
        <ele>311.60000000000002</ele>
        <time>2025-04-29T11:19:47Z</time>
      </trkpt>
      <trkpt lat="43.23546202853322" lon="-5.541699975728989">
        <ele>311.12</ele>
        <time>2025-04-29T11:19:48Z</time>
      </trkpt>
      <trkpt lat="43.235681969672441" lon="-5.543702999129891">
        <ele>308.72000000000003</ele>
        <time>2025-04-29T11:19:56Z</time>
      </trkpt>
      <trkpt lat="43.236191002652049" lon="-5.546416975557804">
        <ele>306.80000000000001</ele>
        <time>2025-04-29T11:20:06Z</time>
      </trkpt>
      <trkpt lat="43.23632201179862" lon="-5.547728994861245">
        <ele>307.75999999999999</ele>
        <time>2025-04-29T11:20:11Z</time>
      </trkpt>
      <trkpt lat="43.236315976828337" lon="-5.547994030639529">
        <ele>307.27999999999997</ele>
        <time>2025-04-29T11:20:12Z</time>
      </trkpt>
      <trkpt lat="43.236310025677085" lon="-5.548254959285259">
        <ele>307.27999999999997</ele>
        <time>2025-04-29T11:20:13Z</time>
      </trkpt>
      <trkpt lat="43.236283035948873" lon="-5.54851102642715">
        <ele>307.27999999999997</ele>
        <time>2025-04-29T11:20:14Z</time>
      </trkpt>
      <trkpt lat="43.236231990158558" lon="-5.54876902140677">
        <ele>306.80000000000001</ele>
        <time>2025-04-29T11:20:15Z</time>
      </trkpt>
      <trkpt lat="43.236167030408978" lon="-5.54902701638639">
        <ele>306.80000000000001</ele>
        <time>2025-04-29T11:20:16Z</time>
      </trkpt>
      <trkpt lat="43.236100981011987" lon="-5.549292974174023">
        <ele>306.31999999999999</ele>
        <time>2025-04-29T11:20:17Z</time>
      </trkpt>
      <trkpt lat="43.236011965200305" lon="-5.549549963325262">
        <ele>306.31999999999999</ele>
        <time>2025-04-29T11:20:18Z</time>
      </trkpt>
      <trkpt lat="43.235918004065752" lon="-5.549813993275166">
        <ele>305.83999999999997</ele>
        <time>2025-04-29T11:20:19Z</time>
      </trkpt>
      <trkpt lat="43.235310986638069" lon="-5.551717020571232">
        <ele>302.94999999999999</ele>
        <time>2025-04-29T11:20:26Z</time>
      </trkpt>
      <trkpt lat="43.235244015231729" lon="-5.553615018725395">
        <ele>299.58999999999997</ele>
        <time>2025-04-29T11:20:33Z</time>
      </trkpt>
      <trkpt lat="43.235433027148247" lon="-5.555233983322978">
        <ele>297.67000000000002</ele>
        <time>2025-04-29T11:20:41Z</time>
      </trkpt>
      <trkpt lat="43.235464040189981" lon="-5.555675039067864">
        <ele>297.67000000000002</ele>
        <time>2025-04-29T11:20:44Z</time>
      </trkpt>
      <trkpt lat="43.235599994659424" lon="-5.55590596050024">
        <ele>297.18000000000001</ele>
        <time>2025-04-29T11:20:45Z</time>
      </trkpt>
      <trkpt lat="43.235649028792977" lon="-5.556052979081869">
        <ele>297.18000000000001</ele>
        <time>2025-04-29T11:20:47Z</time>
      </trkpt>
      <trkpt lat="43.235638970509171" lon="-5.556213995441794">
        <ele>297.18000000000001</ele>
        <time>2025-04-29T11:20:48Z</time>
      </trkpt>
      <trkpt lat="43.235622039064765" lon="-5.556293036788702">
        <ele>297.18000000000001</ele>
        <time>2025-04-29T11:20:49Z</time>
      </trkpt>
      <trkpt lat="43.235493041574955" lon="-5.556693021208048">
        <ele>297.18000000000001</ele>
        <time>2025-04-29T11:20:51Z</time>
      </trkpt>
      <trkpt lat="43.235493041574955" lon="-5.556881027296186">
        <ele>297.67000000000002</ele>
        <time>2025-04-29T11:20:52Z</time>
      </trkpt>
      <trkpt lat="43.235640982165933" lon="-5.558806015178561">
        <ele>299.58999999999997</ele>
        <time>2025-04-29T11:21:01Z</time>
      </trkpt>
      <trkpt lat="43.235861007124186" lon="-5.559971015900374">
        <ele>299.58999999999997</ele>
        <time>2025-04-29T11:21:06Z</time>
      </trkpt>
      <trkpt lat="43.236684026196599" lon="-5.561883011832833">
        <ele>298.14999999999998</ele>
        <time>2025-04-29T11:21:14Z</time>
      </trkpt>
      <trkpt lat="43.237878028303385" lon="-5.563307013362646">
        <ele>296.69999999999999</ele>
        <time>2025-04-29T11:21:21Z</time>
      </trkpt>
      <trkpt lat="43.239646023139358" lon="-5.564976017922163">
        <ele>295.25999999999999</ele>
        <time>2025-04-29T11:21:30Z</time>
      </trkpt>
      <trkpt lat="43.241743007674813" lon="-5.566751975566149">
        <ele>296.22000000000003</ele>
        <time>2025-04-29T11:21:40Z</time>
      </trkpt>
      <trkpt lat="43.243784001097083" lon="-5.567927034571767">
        <ele>295.74000000000001</ele>
        <time>2025-04-29T11:21:49Z</time>
      </trkpt>
      <trkpt lat="43.24543297290802" lon="-5.56834202259779">
        <ele>294.30000000000001</ele>
        <time>2025-04-29T11:21:57Z</time>
      </trkpt>
      <trkpt lat="43.246671985834837" lon="-5.568014038726687">
        <ele>293.81999999999999</ele>
        <time>2025-04-29T11:22:03Z</time>
      </trkpt>
      <trkpt lat="43.248150972649455" lon="-5.567739028483629">
        <ele>294.30000000000001</ele>
        <time>2025-04-29T11:22:10Z</time>
      </trkpt>
      <trkpt lat="43.249403983354568" lon="-5.568239009007812">
        <ele>297.18000000000001</ele>
        <time>2025-04-29T11:22:16Z</time>
      </trkpt>
      <trkpt lat="43.251346992328763" lon="-5.569702992215753">
        <ele>295.25999999999999</ele>
        <time>2025-04-29T11:22:26Z</time>
      </trkpt>
      <trkpt lat="43.253034017980099" lon="-5.571575006470084">
        <ele>289.97000000000003</ele>
        <time>2025-04-29T11:22:36Z</time>
      </trkpt>
      <trkpt lat="43.255192022770643" lon="-5.574022019281983">
        <ele>288.05000000000001</ele>
        <time>2025-04-29T11:22:49Z</time>
      </trkpt>
      <trkpt lat="43.255531992763281" lon="-5.574297029525042">
        <ele>288.52999999999997</ele>
        <time>2025-04-29T11:22:51Z</time>
      </trkpt>
      <trkpt lat="43.255712036043406" lon="-5.574395013973117">
        <ele>288.52999999999997</ele>
        <time>2025-04-29T11:22:52Z</time>
      </trkpt>
      <trkpt lat="43.255893001332879" lon="-5.574485035613179">
        <ele>288.52999999999997</ele>
        <time>2025-04-29T11:22:53Z</time>
      </trkpt>
      <trkpt lat="43.257783958688378" lon="-5.575316017493606">
        <ele>288.05000000000001</ele>
        <time>2025-04-29T11:23:03Z</time>
      </trkpt>
      <trkpt lat="43.259016014635563" lon="-5.57622897438705">
        <ele>287.08999999999997</ele>
        <time>2025-04-29T11:23:11Z</time>
      </trkpt>
      <trkpt lat="43.260525008663535" lon="-5.577462036162615">
        <ele>285.17000000000002</ele>
        <time>2025-04-29T11:23:22Z</time>
      </trkpt>
      <trkpt lat="43.261851025745273" lon="-5.578787969425321">
        <ele>284.20999999999998</ele>
        <time>2025-04-29T11:23:33Z</time>
      </trkpt>
      <trkpt lat="43.263389021158218" lon="-5.580282965674996">
        <ele>284.69</ele>
        <time>2025-04-29T11:23:44Z</time>
      </trkpt>
      <trkpt lat="43.264451008290052" lon="-5.581349981948733">
        <ele>284.20999999999998</ele>
        <time>2025-04-29T11:23:52Z</time>
      </trkpt>
      <trkpt lat="43.264586040750146" lon="-5.581495994701982">
        <ele>283.73000000000002</ele>
        <time>2025-04-29T11:23:53Z</time>
      </trkpt>
      <trkpt lat="43.265592958778143" lon="-5.583057962357998">
        <ele>281.31999999999999</ele>
        <time>2025-04-29T11:24:02Z</time>
      </trkpt>
      <trkpt lat="43.266069972887635" lon="-5.584638034924865">
        <ele>275.56</ele>
        <time>2025-04-29T11:24:10Z</time>
      </trkpt>
      <trkpt lat="43.266161000356078" lon="-5.58675698004663">
        <ele>270.26999999999998</ele>
        <time>2025-04-29T11:24:19Z</time>
      </trkpt>
      <trkpt lat="43.266102997586131" lon="-5.588715998455882">
        <ele>267.86000000000001</ele>
        <time>2025-04-29T11:24:28Z</time>
      </trkpt>
      <trkpt lat="43.266109032556415" lon="-5.588944992050529">
        <ele>267.86000000000001</ele>
        <time>2025-04-29T11:24:29Z</time>
      </trkpt>
      <trkpt lat="43.266240041702986" lon="-5.589638007804751">
        <ele>267.38</ele>
        <time>2025-04-29T11:24:32Z</time>
      </trkpt>
      <trkpt lat="43.266297960653901" lon="-5.589861972257495">
        <ele>267.38</ele>
        <time>2025-04-29T11:24:33Z</time>
      </trkpt>
      <trkpt lat="43.266387982293963" lon="-5.590054001659155">
        <ele>267.38</ele>
        <time>2025-04-29T11:24:34Z</time>
      </trkpt>
      <trkpt lat="43.266484960913658" lon="-5.590242007747293">
        <ele>267.38</ele>
        <time>2025-04-29T11:24:35Z</time>
      </trkpt>
      <trkpt lat="43.266580011695623" lon="-5.590426996350288">
        <ele>267.86000000000001</ele>
        <time>2025-04-29T11:24:36Z</time>
      </trkpt>
      <trkpt lat="43.266672967001796" lon="-5.590606033802033">
        <ele>267.86000000000001</ele>
        <time>2025-04-29T11:24:37Z</time>
      </trkpt>
      <trkpt lat="43.266794001683593" lon="-5.590759003534913">
        <ele>267.86000000000001</ele>
        <time>2025-04-29T11:24:38Z</time>
      </trkpt>
      <trkpt lat="43.266915958374739" lon="-5.590913984924555">
        <ele>267.86000000000001</ele>
        <time>2025-04-29T11:24:39Z</time>
      </trkpt>
      <trkpt lat="43.2670440338552" lon="-5.591048011556268">
        <ele>267.86000000000001</ele>
        <time>2025-04-29T11:24:40Z</time>
      </trkpt>
      <trkpt lat="43.2671959977597" lon="-5.591155970469117">
        <ele>267.86000000000001</ele>
        <time>2025-04-29T11:24:41Z</time>
      </trkpt>
      <trkpt lat="43.26734896749258" lon="-5.59126602485776">
        <ele>267.86000000000001</ele>
        <time>2025-04-29T11:24:42Z</time>
      </trkpt>
      <trkpt lat="43.267500009387732" lon="-5.591372977942228">
        <ele>267.86000000000001</ele>
        <time>2025-04-29T11:24:43Z</time>
      </trkpt>
      <trkpt lat="43.267652979120612" lon="-5.59146199375391">
        <ele>267.86000000000001</ele>
        <time>2025-04-29T11:24:44Z</time>
      </trkpt>
      <trkpt lat="43.267815001308918" lon="-5.591522008180618">
        <ele>267.86000000000001</ele>
        <time>2025-04-29T11:24:45Z</time>
      </trkpt>
      <trkpt lat="43.268301989883184" lon="-5.591618986800313">
        <ele>267.86000000000001</ele>
        <time>2025-04-29T11:24:48Z</time>
      </trkpt>
      <trkpt lat="43.268469041213393" lon="-5.591629967093468">
        <ele>268.35000000000002</ele>
        <time>2025-04-29T11:24:49Z</time>
      </trkpt>
      <trkpt lat="43.268637014552951" lon="-5.591599037870765">
        <ele>267.86000000000001</ele>
        <time>2025-04-29T11:24:50Z</time>
      </trkpt>
      <trkpt lat="43.270491007715464" lon="-5.59109696187079">
        <ele>265.45999999999998</ele>
        <time>2025-04-29T11:25:01Z</time>
      </trkpt>
      <trkpt lat="43.270847992971539" lon="-5.5910549685359">
        <ele>264.98000000000002</ele>
        <time>2025-04-29T11:25:03Z</time>
      </trkpt>
      <trkpt lat="43.271024012938142" lon="-5.591083969920874">
        <ele>264.98000000000002</ele>
        <time>2025-04-29T11:25:04Z</time>
      </trkpt>
      <trkpt lat="43.271200032904744" lon="-5.591114982962608">
        <ele>264.98000000000002</ele>
        <time>2025-04-29T11:25:05Z</time>
      </trkpt>
      <trkpt lat="43.271378986537457" lon="-5.591167034581304">
        <ele>264.98000000000002</ele>
        <time>2025-04-29T11:25:06Z</time>
      </trkpt>
      <trkpt lat="43.271560035645962" lon="-5.591235011816025">
        <ele>264.98000000000002</ele>
        <time>2025-04-29T11:25:07Z</time>
      </trkpt>
      <trkpt lat="43.271741000935435" lon="-5.591326961293817">
        <ele>264.98000000000002</ele>
        <time>2025-04-29T11:25:08Z</time>
      </trkpt>
      <trkpt lat="43.271921966224909" lon="-5.591441038995981">
        <ele>265.45999999999998</ele>
        <time>2025-04-29T11:25:09Z</time>
      </trkpt>
      <trkpt lat="43.272105026990175" lon="-5.59156802482903">
        <ele>265.45999999999998</ele>
        <time>2025-04-29T11:25:10Z</time>
      </trkpt>
      <trkpt lat="43.272275011986494" lon="-5.591732980683446">
        <ele>265.94</ele>
        <time>2025-04-29T11:25:11Z</time>
      </trkpt>
      <trkpt lat="43.272428987547755" lon="-5.591922998428345">
        <ele>265.94</ele>
        <time>2025-04-29T11:25:12Z</time>
      </trkpt>
      <trkpt lat="43.272572988644242" lon="-5.592117961496115">
        <ele>265.94</ele>
        <time>2025-04-29T11:25:13Z</time>
      </trkpt>
      <trkpt lat="43.272708021104336" lon="-5.592320971190929">
        <ele>266.42000000000002</ele>
        <time>2025-04-29T11:25:14Z</time>
      </trkpt>
      <trkpt lat="43.272830983623862" lon="-5.592517023906112">
        <ele>266.42000000000002</ele>
        <time>2025-04-29T11:25:15Z</time>
      </trkpt>
      <trkpt lat="43.27293399721384" lon="-5.592722967267036">
        <ele>266.42000000000002</ele>
        <time>2025-04-29T11:25:16Z</time>
      </trkpt>
      <trkpt lat="43.273034999147058" lon="-5.59292396530509">
        <ele>266.89999999999998</ele>
        <time>2025-04-29T11:25:17Z</time>
      </trkpt>
      <trkpt lat="43.273114962503314" lon="-5.593143990263343">
        <ele>266.89999999999998</ele>
        <time>2025-04-29T11:25:18Z</time>
      </trkpt>
      <trkpt lat="43.27344998717308" lon="-5.594794973731041">
        <ele>267.38</ele>
        <time>2025-04-29T11:25:25Z</time>
      </trkpt>
      <trkpt lat="43.273315960541368" lon="-5.596984997391701">
        <ele>267.38</ele>
        <time>2025-04-29T11:25:34Z</time>
      </trkpt>
      <trkpt lat="43.273142036050558" lon="-5.599797964096069">
        <ele>266.42000000000002</ele>
        <time>2025-04-29T11:25:45Z</time>
      </trkpt>
      <trkpt lat="43.272993005812168" lon="-5.602207006886601">
        <ele>266.89999999999998</ele>
        <time>2025-04-29T11:25:55Z</time>
      </trkpt>
      <trkpt lat="43.272756971418858" lon="-5.604916960000992">
        <ele>271.23000000000002</ele>
        <time>2025-04-29T11:26:06Z</time>
      </trkpt>
      <trkpt lat="43.272475004196167" lon="-5.606923000887036">
        <ele>271.70999999999998</ele>
        <time>2025-04-29T11:26:15Z</time>
      </trkpt>
      <trkpt lat="43.272442985326052" lon="-5.60714696533978">
        <ele>271.23000000000002</ele>
        <time>2025-04-29T11:26:16Z</time>
      </trkpt>
      <trkpt lat="43.272409960627556" lon="-5.607350980862975">
        <ele>270.75</ele>
        <time>2025-04-29T11:26:17Z</time>
      </trkpt>
      <trkpt lat="43.272029003128409" lon="-5.610015001147986">
        <ele>270.26999999999998</ele>
        <time>2025-04-29T11:26:27Z</time>
      </trkpt>
      <trkpt lat="43.271997990086675" lon="-5.610307026654482">
        <ele>269.79000000000002</ele>
        <time>2025-04-29T11:26:28Z</time>
      </trkpt>
      <trkpt lat="43.272102009505033" lon="-5.611964967101812">
        <ele>267.86000000000001</ele>
        <time>2025-04-29T11:26:35Z</time>
      </trkpt>
      <trkpt lat="43.272164035588503" lon="-5.612167976796627">
        <ele>267.38</ele>
        <time>2025-04-29T11:26:36Z</time>
      </trkpt>
      <trkpt lat="43.272551028057933" lon="-5.612984038889408">
        <ele>265.94</ele>
        <time>2025-04-29T11:26:39Z</time>
      </trkpt>
      <trkpt lat="43.272684970870614" lon="-5.613150000572205">
        <ele>265.45999999999998</ele>
        <time>2025-04-29T11:26:40Z</time>
      </trkpt>
      <trkpt lat="43.272829977795482" lon="-5.613329960033298">
        <ele>264.98000000000002</ele>
        <time>2025-04-29T11:26:41Z</time>
      </trkpt>
      <trkpt lat="43.273000968620181" lon="-5.613542022183538">
        <ele>264.5</ele>
        <time>2025-04-29T11:26:42Z</time>
      </trkpt>
      <trkpt lat="43.273151004686952" lon="-5.613650986924768">
        <ele>264.01999999999998</ele>
        <time>2025-04-29T11:26:43Z</time>
      </trkpt>
      <trkpt lat="43.273326018825173" lon="-5.613778978586197">
        <ele>263.54000000000002</ele>
        <time>2025-04-29T11:26:44Z</time>
      </trkpt>
      <trkpt lat="43.273559035733342" lon="-5.613948963582516">
        <ele>262.57999999999998</ele>
        <time>2025-04-29T11:26:45Z</time>
      </trkpt>
      <trkpt lat="43.275332981720567" lon="-5.614992007613182">
        <ele>257.76999999999998</ele>
        <time>2025-04-29T11:26:55Z</time>
      </trkpt>
      <trkpt lat="43.27789600007236" lon="-5.616710968315601">
        <ele>252</ele>
        <time>2025-04-29T11:27:09Z</time>
      </trkpt>
      <trkpt lat="43.279963983222842" lon="-5.618121977895498">
        <ele>250.08000000000001</ele>
        <time>2025-04-29T11:27:21Z</time>
      </trkpt>
      <trkpt lat="43.281931970268488" lon="-5.619701966643333">
        <ele>249.12</ele>
        <time>2025-04-29T11:27:33Z</time>
      </trkpt>
      <trkpt lat="43.28283897601068" lon="-5.621191011741757">
        <ele>248.63999999999999</ele>
        <time>2025-04-29T11:27:41Z</time>
      </trkpt>
      <trkpt lat="43.283482035622001" lon="-5.622354000806809">
        <ele>248.63999999999999</ele>
        <time>2025-04-29T11:27:48Z</time>
      </trkpt>
      <trkpt lat="43.283642968162894" lon="-5.622392976656556">
        <ele>248.63999999999999</ele>
        <time>2025-04-29T11:27:49Z</time>
      </trkpt>
      <trkpt lat="43.283770037814975" lon="-5.622490039095283">
        <ele>248.16</ele>
        <time>2025-04-29T11:27:50Z</time>
      </trkpt>
      <trkpt lat="43.283891994506121" lon="-5.622584000229836">
        <ele>248.63999999999999</ele>
        <time>2025-04-29T11:27:51Z</time>
      </trkpt>
      <trkpt lat="43.284011017531157" lon="-5.622676033526659">
        <ele>248.63999999999999</ele>
        <time>2025-04-29T11:27:52Z</time>
      </trkpt>
      <trkpt lat="43.284588027745485" lon="-5.623047016561031">
        <ele>252</ele>
        <time>2025-04-29T11:27:58Z</time>
      </trkpt>
      <trkpt lat="43.284657010808587" lon="-5.623055985197425">
        <ele>252.47999999999999</ele>
        <time>2025-04-29T11:27:59Z</time>
      </trkpt>
      <trkpt lat="43.284700009971857" lon="-5.623061014339328">
        <ele>253.44</ele>
        <time>2025-04-29T11:28:00Z</time>
      </trkpt>
      <trkpt lat="43.284743009135127" lon="-5.62306696549058">
        <ele>253.93000000000001</ele>
        <time>2025-04-29T11:28:01Z</time>
      </trkpt>
      <trkpt lat="43.284803023561835" lon="-5.622982978820801">
        <ele>254.88999999999999</ele>
        <time>2025-04-29T11:28:02Z</time>
      </trkpt>
      <trkpt lat="43.284839987754822" lon="-5.622965041548014">
        <ele>255.37</ele>
        <time>2025-04-29T11:28:03Z</time>
      </trkpt>
      <trkpt lat="43.284910982474685" lon="-5.622928999364376">
        <ele>256.32999999999998</ele>
        <time>2025-04-29T11:28:04Z</time>
      </trkpt>
      <trkpt lat="43.28500603325665" lon="-5.622941991314292">
        <ele>256.81</ele>
        <time>2025-04-29T11:28:05Z</time>
      </trkpt>
      <trkpt lat="43.28509203158319" lon="-5.622967975214124">
        <ele>257.76999999999998</ele>
        <time>2025-04-29T11:28:06Z</time>
      </trkpt>
      <trkpt lat="43.285185992717743" lon="-5.622996976599097">
        <ele>258.25</ele>
        <time>2025-04-29T11:28:07Z</time>
      </trkpt>
      <trkpt lat="43.285291017964482" lon="-5.622918019071221">
        <ele>258.73000000000002</ele>
        <time>2025-04-29T11:28:08Z</time>
      </trkpt>
      <trkpt lat="43.285370981320739" lon="-5.622832020744681">
        <ele>259.20999999999998</ele>
        <time>2025-04-29T11:28:09Z</time>
      </trkpt>
      <trkpt lat="43.285455973818898" lon="-5.622740993276238">
        <ele>259.69</ele>
        <time>2025-04-29T11:28:10Z</time>
      </trkpt>
      <trkpt lat="43.286141026765108" lon="-5.622263979166746">
        <ele>265.45999999999998</ele>
        <time>2025-04-29T11:28:16Z</time>
      </trkpt>
      <trkpt lat="43.286289973184466" lon="-5.622241012752056">
        <ele>266.42000000000002</ele>
        <time>2025-04-29T11:28:17Z</time>
      </trkpt>
      <trkpt lat="43.28644503839314" lon="-5.622246041893959">
        <ele>266.89999999999998</ele>
        <time>2025-04-29T11:28:18Z</time>
      </trkpt>
      <trkpt lat="43.286765981465578" lon="-5.622328016906977">
        <ele>268.82999999999998</ele>
        <time>2025-04-29T11:28:20Z</time>
      </trkpt>
      <trkpt lat="43.286933032795787" lon="-5.622404040768743">
        <ele>269.79000000000002</ele>
        <time>2025-04-29T11:28:21Z</time>
      </trkpt>
      <trkpt lat="43.287120033055544" lon="-5.622490039095283">
        <ele>270.75</ele>
        <time>2025-04-29T11:28:22Z</time>
      </trkpt>
      <trkpt lat="43.288024021312594" lon="-5.622920030727983">
        <ele>275.06999999999999</ele>
        <time>2025-04-29T11:28:27Z</time>
      </trkpt>
      <trkpt lat="43.288214039057493" lon="-5.622905027121306">
        <ele>275.56</ele>
        <time>2025-04-29T11:28:28Z</time>
      </trkpt>
      <trkpt lat="43.28840003348887" lon="-5.622843001037836">
        <ele>276.04000000000002</ele>
        <time>2025-04-29T11:28:29Z</time>
      </trkpt>
      <trkpt lat="43.28857496380806" lon="-5.622738981619477">
        <ele>276.04000000000002</ele>
        <time>2025-04-29T11:28:30Z</time>
      </trkpt>
      <trkpt lat="43.288729023188353" lon="-5.622576037421823">
        <ele>276.51999999999998</ele>
        <time>2025-04-29T11:28:31Z</time>
      </trkpt>
      <trkpt lat="43.288862966001034" lon="-5.622375961393118">
        <ele>277</ele>
        <time>2025-04-29T11:28:32Z</time>
      </trkpt>
      <trkpt lat="43.289000010117888" lon="-5.622175969183445">
        <ele>277</ele>
        <time>2025-04-29T11:28:33Z</time>
      </trkpt>
      <trkpt lat="43.289612978696823" lon="-5.621376000344753">
        <ele>277.95999999999998</ele>
        <time>2025-04-29T11:28:37Z</time>
      </trkpt>
      <trkpt lat="43.289794027805328" lon="-5.621202997863293">
        <ele>277.95999999999998</ele>
        <time>2025-04-29T11:28:38Z</time>
      </trkpt>
      <trkpt lat="43.289996031671762" lon="-5.621009040623903">
        <ele>277.95999999999998</ele>
        <time>2025-04-29T11:28:39Z</time>
      </trkpt>
      <trkpt lat="43.291380973532796" lon="-5.62001402489841">
        <ele>281.31999999999999</ele>
        <time>2025-04-29T11:28:46Z</time>
      </trkpt>
      <trkpt lat="43.291544001549482" lon="-5.619805986061692">
        <ele>282.27999999999997</ele>
        <time>2025-04-29T11:28:47Z</time>
      </trkpt>
      <trkpt lat="43.291696971282363" lon="-5.619583027437329">
        <ele>283.25</ele>
        <time>2025-04-29T11:28:48Z</time>
      </trkpt>
      <trkpt lat="43.291838960722089" lon="-5.619343975558877">
        <ele>284.20999999999998</ele>
        <time>2025-04-29T11:28:49Z</time>
      </trkpt>
      <trkpt lat="43.291980028152466" lon="-5.619097966700792">
        <ele>285.17000000000002</ele>
        <time>2025-04-29T11:28:50Z</time>
      </trkpt>
      <trkpt lat="43.292810004204512" lon="-5.61760799959302">
        <ele>291.89999999999998</ele>
        <time>2025-04-29T11:28:56Z</time>
      </trkpt>
      <trkpt lat="43.292988035827875" lon="-5.617419993504882">
        <ele>293.33999999999997</ele>
        <time>2025-04-29T11:28:57Z</time>
      </trkpt>
      <trkpt lat="43.29379697330296" lon="-5.616483986377716">
        <ele>298.63</ele>
        <time>2025-04-29T11:29:02Z</time>
      </trkpt>
      <trkpt lat="43.293933011591434" lon="-5.616274019703269">
        <ele>299.11000000000001</ele>
        <time>2025-04-29T11:29:03Z</time>
      </trkpt>
      <trkpt lat="43.294053040444851" lon="-5.616046031937003">
        <ele>300.06999999999999</ele>
        <time>2025-04-29T11:29:04Z</time>
      </trkpt>
      <trkpt lat="43.294147001579404" lon="-5.615793988108635">
        <ele>301.02999999999997</ele>
        <time>2025-04-29T11:29:05Z</time>
      </trkpt>
      <trkpt lat="43.294238029047847" lon="-5.615532975643873">
        <ele>301.99000000000001</ele>
        <time>2025-04-29T11:29:06Z</time>
      </trkpt>
      <trkpt lat="43.294313969090581" lon="-5.615259977057576">
        <ele>303.43000000000001</ele>
        <time>2025-04-29T11:29:07Z</time>
      </trkpt>
      <trkpt lat="43.294708002358675" lon="-5.613881992176175">
        <ele>308.72000000000003</ele>
        <time>2025-04-29T11:29:12Z</time>
      </trkpt>
      <trkpt lat="43.294809004291892" lon="-5.613622991368175">
        <ele>309.68000000000001</ele>
        <time>2025-04-29T11:29:13Z</time>
      </trkpt>
      <trkpt lat="43.295721039175987" lon="-5.61195801012218">
        <ele>315.93000000000001</ele>
        <time>2025-04-29T11:29:20Z</time>
      </trkpt>
      <trkpt lat="43.296727035194635" lon="-5.609521977603436">
        <ele>322.66000000000003</ele>
        <time>2025-04-29T11:29:29Z</time>
      </trkpt>
      <trkpt lat="43.297878038138151" lon="-5.60761702246964">
        <ele>328.43000000000001</ele>
        <time>2025-04-29T11:29:37Z</time>
      </trkpt>
      <trkpt lat="43.299349984154105" lon="-5.605870988219976">
        <ele>333.70999999999998</ele>
        <time>2025-04-29T11:29:46Z</time>
      </trkpt>
      <trkpt lat="43.30139902420342" lon="-5.604203995317221">
        <ele>340.44</ele>
        <time>2025-04-29T11:29:57Z</time>
      </trkpt>
      <trkpt lat="43.301727008074522" lon="-5.60383602976799">
        <ele>341.88999999999999</ele>
        <time>2025-04-29T11:29:59Z</time>
      </trkpt>
      <trkpt lat="43.301880983635783" lon="-5.603637965396047">
        <ele>342.37</ele>
        <time>2025-04-29T11:30:00Z</time>
      </trkpt>
      <trkpt lat="43.302012998610735" lon="-5.603419030085206">
        <ele>343.32999999999998</ele>
        <time>2025-04-29T11:30:01Z</time>
      </trkpt>
      <trkpt lat="43.302135961130261" lon="-5.603188024833798">
        <ele>344.29000000000002</ele>
        <time>2025-04-29T11:30:02Z</time>
      </trkpt>
      <trkpt lat="43.302250038832426" lon="-5.602945033460856">
        <ele>345.25</ele>
        <time>2025-04-29T11:30:03Z</time>
      </trkpt>
      <trkpt lat="43.30268899910152" lon="-5.60196896083653">
        <ele>348.62</ele>
        <time>2025-04-29T11:30:07Z</time>
      </trkpt>
      <trkpt lat="43.302811039611697" lon="-5.601739967241883">
        <ele>349.57999999999998</ele>
        <time>2025-04-29T11:30:08Z</time>
      </trkpt>
      <trkpt lat="43.302956968545914" lon="-5.601542992517352">
        <ele>350.54000000000002</ele>
        <time>2025-04-29T11:30:09Z</time>
      </trkpt>
      <trkpt lat="43.303101975470781" lon="-5.601347023621202">
        <ele>351.01999999999998</ele>
        <time>2025-04-29T11:30:10Z</time>
      </trkpt>
      <trkpt lat="43.303257962688804" lon="-5.601160023361445">
        <ele>351.5</ele>
        <time>2025-04-29T11:30:11Z</time>
      </trkpt>
      <trkpt lat="43.30341998487711" lon="-5.600996995344758">
        <ele>352.45999999999998</ele>
        <time>2025-04-29T11:30:12Z</time>
      </trkpt>
      <trkpt lat="43.303603967651725" lon="-5.600837990641594">
        <ele>352.94</ele>
        <time>2025-04-29T11:30:13Z</time>
      </trkpt>
      <trkpt lat="43.303794991225004" lon="-5.600748974829912">
        <ele>353.42000000000002</ele>
        <time>2025-04-29T11:30:14Z</time>
      </trkpt>
      <trkpt lat="43.303994983434677" lon="-5.600677980110049">
        <ele>353.89999999999998</ele>
        <time>2025-04-29T11:30:15Z</time>
      </trkpt>
      <trkpt lat="43.304196987301111" lon="-5.60063699260354">
        <ele>354.86000000000001</ele>
        <time>2025-04-29T11:30:16Z</time>
      </trkpt>
      <trkpt lat="43.304401002824306" lon="-5.60061402618885">
        <ele>355.33999999999997</ele>
        <time>2025-04-29T11:30:17Z</time>
      </trkpt>
      <trkpt lat="43.304607030004263" lon="-5.600590975955129">
        <ele>356.31</ele>
        <time>2025-04-29T11:30:18Z</time>
      </trkpt>
      <trkpt lat="43.304812973365188" lon="-5.600588964298368">
        <ele>356.79000000000002</ele>
        <time>2025-04-29T11:30:19Z</time>
      </trkpt>
      <trkpt lat="43.305015983060002" lon="-5.600602962076664">
        <ele>357.75</ele>
        <time>2025-04-29T11:30:20Z</time>
      </trkpt>
      <trkpt lat="43.305227961391211" lon="-5.600670017302036">
        <ele>358.23000000000002</ele>
        <time>2025-04-29T11:30:21Z</time>
      </trkpt>
      <trkpt lat="43.305437006056309" lon="-5.600735982879996">
        <ele>358.70999999999998</ele>
        <time>2025-04-29T11:30:22Z</time>
      </trkpt>
      <trkpt lat="43.305631969124079" lon="-5.600838996469975">
        <ele>359.19</ele>
        <time>2025-04-29T11:30:23Z</time>
      </trkpt>
      <trkpt lat="43.305823998525739" lon="-5.600952990353108">
        <ele>359.67000000000002</ele>
        <time>2025-04-29T11:30:24Z</time>
      </trkpt>
      <trkpt lat="43.306559007614851" lon="-5.601369990035892">
        <ele>361.58999999999997</ele>
        <time>2025-04-29T11:30:28Z</time>
      </trkpt>
      <trkpt lat="43.30675195902586" lon="-5.601420029997826">
        <ele>362.06999999999999</ele>
        <time>2025-04-29T11:30:29Z</time>
      </trkpt>
      <trkpt lat="43.308136984705925" lon="-5.601557996124029">
        <ele>366.88</ele>
        <time>2025-04-29T11:30:36Z</time>
      </trkpt>
      <trkpt lat="43.310090973973274" lon="-5.601542992517352">
        <ele>371.20999999999998</ele>
        <time>2025-04-29T11:30:45Z</time>
      </trkpt>
      <trkpt lat="43.310306975618005" lon="-5.601504016667604">
        <ele>371.20999999999998</ele>
        <time>2025-04-29T11:30:46Z</time>
      </trkpt>
      <trkpt lat="43.312345035374165" lon="-5.600727014243603">
        <ele>372.17000000000002</ele>
        <time>2025-04-29T11:30:55Z</time>
      </trkpt>
      <trkpt lat="43.313181968405843" lon="-5.600217981263995">
        <ele>373.13</ele>
        <time>2025-04-29T11:30:59Z</time>
      </trkpt>
      <trkpt lat="43.31336704082787" lon="-5.600051013752818">
        <ele>373.61000000000001</ele>
        <time>2025-04-29T11:31:00Z</time>
      </trkpt>
      <trkpt lat="43.313919994980097" lon="-5.599627979099751">
        <ele>375.52999999999997</ele>
        <time>2025-04-29T11:31:03Z</time>
      </trkpt>
      <trkpt lat="43.31409802660346" lon="-5.599499987438321">
        <ele>376.49000000000001</ele>
        <time>2025-04-29T11:31:04Z</time>
      </trkpt>
      <trkpt lat="43.316489970311522" lon="-5.598089983686805">
        <ele>390.43000000000001</ele>
        <time>2025-04-29T11:31:17Z</time>
      </trkpt>
      <trkpt lat="43.319123983383179" lon="-5.5964479688555">
        <ele>407.74000000000001</ele>
        <time>2025-04-29T11:31:31Z</time>
      </trkpt>
      <trkpt lat="43.319306960329413" lon="-5.596289969980717">
        <ele>408.22000000000003</ele>
        <time>2025-04-29T11:31:32Z</time>
      </trkpt>
      <trkpt lat="43.319455990567803" lon="-5.59608100913465">
        <ele>408.69999999999999</ele>
        <time>2025-04-29T11:31:33Z</time>
      </trkpt>
      <trkpt lat="43.319602003321052" lon="-5.595875987783074">
        <ele>409.66000000000003</ele>
        <time>2025-04-29T11:31:34Z</time>
      </trkpt>
      <trkpt lat="43.319712979719043" lon="-5.595632996410132">
        <ele>410.13999999999999</ele>
        <time>2025-04-29T11:31:35Z</time>
      </trkpt>
      <trkpt lat="43.319816999137402" lon="-5.595381036400795">
        <ele>410.13999999999999</ele>
        <time>2025-04-29T11:31:36Z</time>
      </trkpt>
      <trkpt lat="43.319928981363773" lon="-5.595109965652227">
        <ele>410.62</ele>
        <time>2025-04-29T11:31:37Z</time>
      </trkpt>
      <trkpt lat="43.319994024932384" lon="-5.594851970672607">
        <ele>411.10000000000002</ele>
        <time>2025-04-29T11:31:38Z</time>
      </trkpt>
      <trkpt lat="43.320063007995486" lon="-5.594592969864607">
        <ele>411.57999999999998</ele>
        <time>2025-04-29T11:31:39Z</time>
      </trkpt>
      <trkpt lat="43.320345981046557" lon="-5.593544980511069">
        <ele>413.5</ele>
        <time>2025-04-29T11:31:43Z</time>
      </trkpt>
      <trkpt lat="43.320450000464916" lon="-5.59330802410841">
        <ele>413.5</ele>
        <time>2025-04-29T11:31:44Z</time>
      </trkpt>
      <trkpt lat="43.320560976862907" lon="-5.593075007200241">
        <ele>413.98000000000002</ele>
        <time>2025-04-29T11:31:45Z</time>
      </trkpt>
      <trkpt lat="43.320704977959394" lon="-5.592873003333807">
        <ele>413.98000000000002</ele>
        <time>2025-04-29T11:31:46Z</time>
      </trkpt>
      <trkpt lat="43.320849984884262" lon="-5.592679968103766">
        <ele>413.98000000000002</ele>
        <time>2025-04-29T11:31:47Z</time>
      </trkpt>
      <trkpt lat="43.321009995415807" lon="-5.592511994764209">
        <ele>413.98000000000002</ele>
        <time>2025-04-29T11:31:48Z</time>
      </trkpt>
      <trkpt lat="43.321177968755364" lon="-5.592353995889425">
        <ele>414.47000000000003</ele>
        <time>2025-04-29T11:31:49Z</time>
      </trkpt>
      <trkpt lat="43.321348959580064" lon="-5.592221980914474">
        <ele>414.47000000000003</ele>
        <time>2025-04-29T11:31:50Z</time>
      </trkpt>
      <trkpt lat="43.32153101451695" lon="-5.592111004516482">
        <ele>414.94999999999999</ele>
        <time>2025-04-29T11:31:51Z</time>
      </trkpt>
      <trkpt lat="43.321716003119946" lon="-5.592010002583265">
        <ele>415.43000000000001</ele>
        <time>2025-04-29T11:31:52Z</time>
      </trkpt>
      <trkpt lat="43.322517983615398" lon="-5.591647988185287">
        <ele>417.35000000000002</ele>
        <time>2025-04-29T11:31:57Z</time>
      </trkpt>
      <trkpt lat="43.327631028369069" lon="-5.589346988126636">
        <ele>417.35000000000002</ele>
        <time>2025-04-29T11:32:27Z</time>
      </trkpt>
      <trkpt lat="43.328496962785721" lon="-5.588988997042179">
        <ele>409.18000000000001</ele>
        <time>2025-04-29T11:32:33Z</time>
      </trkpt>
      <trkpt lat="43.328883033245802" lon="-5.588934011757374">
        <ele>413.98000000000002</ele>
        <time>2025-04-29T11:32:35Z</time>
      </trkpt>
      <trkpt lat="43.330260012298822" lon="-5.589221008121967">
        <ele>413.98000000000002</ele>
        <time>2025-04-29T11:32:36Z</time>
      </trkpt>
      <trkpt lat="43.331623999401927" lon="-5.589499035850167">
        <ele>412.54000000000002</ele>
        <time>2025-04-29T11:32:43Z</time>
      </trkpt>
      <trkpt lat="43.331829020753503" lon="-5.589488977566361">
        <ele>413.01999999999998</ele>
        <time>2025-04-29T11:32:44Z</time>
      </trkpt>
      <trkpt lat="43.332033036276698" lon="-5.589423011988401">
        <ele>413.5</ele>
        <time>2025-04-29T11:32:45Z</time>
      </trkpt>
      <trkpt lat="43.332203021273017" lon="-5.589358974248171">
        <ele>413.98000000000002</ele>
        <time>2025-04-29T11:32:46Z</time>
      </trkpt>
      <trkpt lat="43.332435032352805" lon="-5.589250009506941">
        <ele>414.94999999999999</ele>
        <time>2025-04-29T11:32:47Z</time>
      </trkpt>
      <trkpt lat="43.332633012905717" lon="-5.589146995916963">
        <ele>414.94999999999999</ele>
        <time>2025-04-29T11:32:48Z</time>
      </trkpt>
      <trkpt lat="43.332819007337093" lon="-5.58901104144752">
        <ele>414.47000000000003</ele>
        <time>2025-04-29T11:32:49Z</time>
      </trkpt>
      <trkpt lat="43.333001984283328" lon="-5.588868968188763">
        <ele>413.98000000000002</ele>
        <time>2025-04-29T11:32:50Z</time>
      </trkpt>
      <trkpt lat="43.333166018128395" lon="-5.588702000677586">
        <ele>412.54000000000002</ele>
        <time>2025-04-29T11:32:51Z</time>
      </trkpt>
      <trkpt lat="43.333319993689656" lon="-5.588526986539364">
        <ele>411.57999999999998</ele>
        <time>2025-04-29T11:32:52Z</time>
      </trkpt>
      <trkpt lat="43.333453014492989" lon="-5.588318025693297">
        <ele>411.10000000000002</ele>
        <time>2025-04-29T11:32:53Z</time>
      </trkpt>
      <trkpt lat="43.333577988669276" lon="-5.588099006563425">
        <ele>410.62</ele>
        <time>2025-04-29T11:32:54Z</time>
      </trkpt>
      <trkpt lat="43.333704974502325" lon="-5.58787495829165">
        <ele>410.13999999999999</ele>
        <time>2025-04-29T11:32:55Z</time>
      </trkpt>
      <trkpt lat="43.333828020840883" lon="-5.587645964697003">
        <ele>409.66000000000003</ele>
        <time>2025-04-29T11:32:56Z</time>
      </trkpt>
      <trkpt lat="43.33485203795135" lon="-5.585025027394295">
        <ele>404.37</ele>
        <time>2025-04-29T11:33:06Z</time>
      </trkpt>
      <trkpt lat="43.336279978975654" lon="-5.581352999433875">
        <ele>393.31999999999999</ele>
        <time>2025-04-29T11:33:19Z</time>
      </trkpt>
      <trkpt lat="43.336761016398668" lon="-5.580338034778833">
        <ele>388.02999999999997</ele>
        <time>2025-04-29T11:33:23Z</time>
      </trkpt>
      <trkpt lat="43.336899988353252" lon="-5.580114992335439">
        <ele>386.58999999999997</ele>
        <time>2025-04-29T11:33:24Z</time>
      </trkpt>
      <trkpt lat="43.337070979177952" lon="-5.579941989853978">
        <ele>385.14999999999998</ele>
        <time>2025-04-29T11:33:25Z</time>
      </trkpt>
      <trkpt lat="43.337243981659412" lon="-5.579768987372518">
        <ele>383.69999999999999</ele>
        <time>2025-04-29T11:33:26Z</time>
      </trkpt>
      <trkpt lat="43.337414972484112" lon="-5.579604031518102">
        <ele>382.25999999999999</ele>
        <time>2025-04-29T11:33:27Z</time>
      </trkpt>
      <trkpt lat="43.33760398440063" lon="-5.579475034028292">
        <ele>380.81999999999999</ele>
        <time>2025-04-29T11:33:28Z</time>
      </trkpt>
      <trkpt lat="43.337795007973909" lon="-5.579345030710101">
        <ele>379.86000000000001</ele>
        <time>2025-04-29T11:33:29Z</time>
      </trkpt>
      <trkpt lat="43.337992988526821" lon="-5.579258026555181">
        <ele>378.89999999999998</ele>
        <time>2025-04-29T11:33:30Z</time>
      </trkpt>
      <trkpt lat="43.338200021535158" lon="-5.579196000471711">
        <ele>377.94</ele>
        <time>2025-04-29T11:33:31Z</time>
      </trkpt>
      <trkpt lat="43.338407976552844" lon="-5.579132968559861">
        <ele>376.97000000000003</ele>
        <time>2025-04-29T11:33:32Z</time>
      </trkpt>
      <trkpt lat="43.338617021217942" lon="-5.579102039337158">
        <ele>376.00999999999999</ele>
        <time>2025-04-29T11:33:33Z</time>
      </trkpt>
      <trkpt lat="43.338835034519434" lon="-5.579102039337158">
        <ele>375.05000000000001</ele>
        <time>2025-04-29T11:33:34Z</time>
      </trkpt>
      <trkpt lat="43.339053969830275" lon="-5.579102039337158">
        <ele>374.08999999999997</ele>
        <time>2025-04-29T11:33:35Z</time>
      </trkpt>
      <trkpt lat="43.339269971475005" lon="-5.579161969944835">
        <ele>373.13</ele>
        <time>2025-04-29T11:33:36Z</time>
      </trkpt>
      <trkpt lat="43.339487984776497" lon="-5.579226007685065">
        <ele>371.69</ele>
        <time>2025-04-29T11:33:37Z</time>
      </trkpt>
      <trkpt lat="43.339701974764466" lon="-5.579304965212941">
        <ele>370.73000000000002</ele>
        <time>2025-04-29T11:33:38Z</time>
      </trkpt>
      <trkpt lat="43.3399039786309" lon="-5.579423988237977">
        <ele>369.27999999999997</ele>
        <time>2025-04-29T11:33:39Z</time>
      </trkpt>
      <trkpt lat="43.340101959183812" lon="-5.579528007656336">
        <ele>368.31999999999999</ele>
        <time>2025-04-29T11:33:40Z</time>
      </trkpt>
      <trkpt lat="43.340292982757092" lon="-5.579631021246314">
        <ele>367.36000000000001</ele>
        <time>2025-04-29T11:33:41Z</time>
      </trkpt>
      <trkpt lat="43.341295961290598" lon="-5.580689990893006">
        <ele>358.70999999999998</ele>
        <time>2025-04-29T11:33:48Z</time>
      </trkpt>
      <trkpt lat="43.341666022315621" lon="-5.581183014437556">
        <ele>353.89999999999998</ele>
        <time>2025-04-29T11:33:52Z</time>
      </trkpt>
      <trkpt lat="43.341795019805431" lon="-5.581216039136052">
        <ele>352.45999999999998</ele>
        <time>2025-04-29T11:33:53Z</time>
      </trkpt>
      <trkpt lat="43.341837013140321" lon="-5.581226013600826">
        <ele>351.5</ele>
        <time>2025-04-29T11:33:54Z</time>
      </trkpt>
      <trkpt lat="43.34196500480175" lon="-5.58117002248764">
        <ele>350.54000000000002</ele>
        <time>2025-04-29T11:33:55Z</time>
      </trkpt>
      <trkpt lat="43.342039017006755" lon="-5.581130962818861">
        <ele>350.06</ele>
        <time>2025-04-29T11:33:56Z</time>
      </trkpt>
      <trkpt lat="43.342117974534631" lon="-5.581035995855928">
        <ele>349.10000000000002</ele>
        <time>2025-04-29T11:33:57Z</time>
      </trkpt>
      <trkpt lat="43.342167008668184" lon="-5.580929964780808">
        <ele>348.13</ele>
        <time>2025-04-29T11:33:58Z</time>
      </trkpt>
      <trkpt lat="43.342216964811087" lon="-5.58078596368432">
        <ele>347.64999999999998</ele>
        <time>2025-04-29T11:33:59Z</time>
      </trkpt>
      <trkpt lat="43.34228795953095" lon="-5.580583037808538">
        <ele>346.69</ele>
        <time>2025-04-29T11:34:00Z</time>
      </trkpt>
      <trkpt lat="43.342238003388047" lon="-5.580453034490347">
        <ele>346.20999999999998</ele>
        <time>2025-04-29T11:34:01Z</time>
      </trkpt>
      <trkpt lat="43.3421800006181" lon="-5.580300986766815">
        <ele>345.73000000000002</ele>
        <time>2025-04-29T11:34:02Z</time>
      </trkpt>
      <trkpt lat="43.342120992019773" lon="-5.580148017033935">
        <ele>345.73000000000002</ele>
        <time>2025-04-29T11:34:03Z</time>
      </trkpt>
      <trkpt lat="43.342019990086555" lon="-5.579982977360487">
        <ele>345.25</ele>
        <time>2025-04-29T11:34:04Z</time>
      </trkpt>
      <trkpt lat="43.34189903922379" lon="-5.579888010397553">
        <ele>345.25</ele>
        <time>2025-04-29T11:34:05Z</time>
      </trkpt>
      <trkpt lat="43.341766018420458" lon="-5.579787008464336">
        <ele>344.76999999999998</ele>
        <time>2025-04-29T11:34:06Z</time>
      </trkpt>
      <trkpt lat="43.34162000566721" lon="-5.579746020957828">
        <ele>344.29000000000002</ele>
        <time>2025-04-29T11:34:07Z</time>
      </trkpt>
      <trkpt lat="43.341473992913961" lon="-5.579705033451319">
        <ele>344.29000000000002</ele>
        <time>2025-04-29T11:34:08Z</time>
      </trkpt>
      <trkpt lat="43.341060010716319" lon="-5.579582992941141">
        <ele>344.76999999999998</ele>
        <time>2025-04-29T11:34:11Z</time>
      </trkpt>
      <trkpt lat="43.340930007398129" lon="-5.579522978514433">
        <ele>344.29000000000002</ele>
        <time>2025-04-29T11:34:12Z</time>
      </trkpt>
      <trkpt lat="43.34080696105957" lon="-5.579466987401247">
        <ele>344.29000000000002</ele>
        <time>2025-04-29T11:34:13Z</time>
      </trkpt>
      <trkpt lat="43.340708976611495" lon="-5.579355005174875">
        <ele>343.81</ele>
        <time>2025-04-29T11:34:14Z</time>
      </trkpt>
      <trkpt lat="43.34061099216342" lon="-5.579243022948504">
        <ele>342.85000000000002</ele>
        <time>2025-04-29T11:34:15Z</time>
      </trkpt>
      <trkpt lat="43.340509990230203" lon="-5.579130034893751">
        <ele>342.37</ele>
        <time>2025-04-29T11:34:16Z</time>
      </trkpt>
      <trkpt lat="43.340410999953747" lon="-5.579016041010618">
        <ele>341.41000000000003</ele>
        <time>2025-04-29T11:34:17Z</time>
      </trkpt>
      <trkpt lat="43.340313015505672" lon="-5.578900035470724">
        <ele>340.44</ele>
        <time>2025-04-29T11:34:18Z</time>
      </trkpt>
      <trkpt lat="43.339203000068665" lon="-5.577639983966947">
        <ele>329.38999999999999</ele>
        <time>2025-04-29T11:34:29Z</time>
      </trkpt>
      <trkpt lat="43.338692961260676" lon="-5.577338989824057">
        <ele>326.01999999999998</ele>
        <time>2025-04-29T11:34:34Z</time>
      </trkpt>
      <trkpt lat="43.338604029268026" lon="-5.577306970953941">
        <ele>326.01999999999998</ele>
        <time>2025-04-29T11:34:35Z</time>
      </trkpt>
      <trkpt lat="43.338447036221623" lon="-5.577320968732238">
        <ele>325.54000000000002</ele>
        <time>2025-04-29T11:34:36Z</time>
      </trkpt>
      <trkpt lat="43.338434966281056" lon="-5.577331027016044">
        <ele>325.06</ele>
        <time>2025-04-29T11:34:37Z</time>
      </trkpt>
      <trkpt lat="43.338379980996251" lon="-5.577375032007694">
        <ele>324.57999999999998</ele>
        <time>2025-04-29T11:34:38Z</time>
      </trkpt>
      <trkpt lat="43.338324995711446" lon="-5.577402021735907">
        <ele>324.10000000000002</ele>
        <time>2025-04-29T11:34:39Z</time>
      </trkpt>
      <trkpt lat="43.338249977678061" lon="-5.577376959845424">
        <ele>324.10000000000002</ele>
        <time>2025-04-29T11:34:40Z</time>
      </trkpt>
      <trkpt lat="43.338211001828313" lon="-5.577363967895508">
        <ele>323.62</ele>
        <time>2025-04-29T11:34:41Z</time>
      </trkpt>
      <trkpt lat="43.338084015995264" lon="-5.577350975945592">
        <ele>323.13999999999999</ele>
        <time>2025-04-29T11:34:42Z</time>
      </trkpt>
      <trkpt lat="43.338010003790259" lon="-5.577403027564287">
        <ele>323.13999999999999</ele>
        <time>2025-04-29T11:34:43Z</time>
      </trkpt>
      <trkpt lat="43.337911013513803" lon="-5.577471004799008">
        <ele>323.62</ele>
        <time>2025-04-29T11:34:44Z</time>
      </trkpt>
      <trkpt lat="43.337858961895108" lon="-5.577576030045748">
        <ele>324.10000000000002</ele>
        <time>2025-04-29T11:34:45Z</time>
      </trkpt>
      <trkpt lat="43.337801964953542" lon="-5.57768801227212">
        <ele>325.06</ele>
        <time>2025-04-29T11:34:46Z</time>
      </trkpt>
      <trkpt lat="43.337742034345865" lon="-5.577808963134885">
        <ele>326.01999999999998</ele>
        <time>2025-04-29T11:34:47Z</time>
      </trkpt>
      <trkpt lat="43.337674979120493" lon="-5.577922035008669">
        <ele>326.99000000000001</ele>
        <time>2025-04-29T11:34:48Z</time>
      </trkpt>
      <trkpt lat="43.337576994672418" lon="-5.578023036941886">
        <ele>327.94999999999999</ele>
        <time>2025-04-29T11:34:49Z</time>
      </trkpt>
      <trkpt lat="43.336874004453421" lon="-5.578742036595941">
        <ele>335.16000000000003</ele>
        <time>2025-04-29T11:34:55Z</time>
      </trkpt>
      <trkpt lat="43.336584996432066" lon="-5.578942028805614">
        <ele>337.56</ele>
        <time>2025-04-29T11:34:57Z</time>
      </trkpt>
      <trkpt lat="43.336450969800353" lon="-5.579033978283405">
        <ele>338.51999999999998</ele>
        <time>2025-04-29T11:34:58Z</time>
      </trkpt>
      <trkpt lat="43.336319960653782" lon="-5.579123999923468">
        <ele>339.48000000000002</ele>
        <time>2025-04-29T11:34:59Z</time>
      </trkpt>
      <trkpt lat="43.335959035903215" lon="-5.579404039308429">
        <ele>341.41000000000003</ele>
        <time>2025-04-29T11:35:02Z</time>
      </trkpt>
      <trkpt lat="43.335892986506224" lon="-5.579546028748155">
        <ele>342.37</ele>
        <time>2025-04-29T11:35:03Z</time>
      </trkpt>
      <trkpt lat="43.335850993171334" lon="-5.579720959067345">
        <ele>342.85000000000002</ele>
        <time>2025-04-29T11:35:04Z</time>
      </trkpt>
      <trkpt lat="43.335850993171334" lon="-5.579917011782527">
        <ele>343.81</ele>
        <time>2025-04-29T11:35:05Z</time>
      </trkpt>
      <trkpt lat="43.335812017321587" lon="-5.580072999000549">
        <ele>344.76999999999998</ele>
        <time>2025-04-29T11:35:06Z</time>
      </trkpt>
      <trkpt lat="43.335766000673175" lon="-5.580257987603545">
        <ele>345.25</ele>
        <time>2025-04-29T11:35:07Z</time>
      </trkpt>
      <trkpt lat="43.335721995681524" lon="-5.580431995913386">
        <ele>345.73000000000002</ele>
        <time>2025-04-29T11:35:08Z</time>
      </trkpt>
      <trkpt lat="43.335659969598055" lon="-5.580602986738086">
        <ele>346.20999999999998</ele>
        <time>2025-04-29T11:35:09Z</time>
      </trkpt>
      <trkpt lat="43.335575982928276" lon="-5.580748999491334">
        <ele>347.17000000000002</ele>
        <time>2025-04-29T11:35:10Z</time>
      </trkpt>
      <trkpt lat="43.335469029843807" lon="-5.580893000587821">
        <ele>347.64999999999998</ele>
        <time>2025-04-29T11:35:11Z</time>
      </trkpt>
      <trkpt lat="43.335078014060855" lon="-5.581419970840216">
        <ele>350.06</ele>
        <time>2025-04-29T11:35:15Z</time>
      </trkpt>
      <trkpt lat="43.335039038211107" lon="-5.581592973321676">
        <ele>350.54000000000002</ele>
        <time>2025-04-29T11:35:16Z</time>
      </trkpt>
      <trkpt lat="43.335008025169373" lon="-5.581731023266912">
        <ele>351.5</ele>
        <time>2025-04-29T11:35:17Z</time>
      </trkpt>
      <trkpt lat="43.334979023784399" lon="-5.58185800909996">
        <ele>351.98000000000002</ele>
        <time>2025-04-29T11:35:18Z</time>
      </trkpt>
      <trkpt lat="43.335010958835483" lon="-5.582016007974744">
        <ele>352.94</ele>
        <time>2025-04-29T11:35:19Z</time>
      </trkpt>
      <trkpt lat="43.335010958835483" lon="-5.582347009330988">
        <ele>354.86000000000001</ele>
        <time>2025-04-29T11:35:21Z</time>
      </trkpt>
      <trkpt lat="43.335070973262191" lon="-5.582675999030471">
        <ele>356.79000000000002</ele>
        <time>2025-04-29T11:35:23Z</time>
      </trkpt>
      <trkpt lat="43.335013976320624" lon="-5.582770965993404">
        <ele>357.75</ele>
        <time>2025-04-29T11:35:24Z</time>
      </trkpt>
      <trkpt lat="43.33491800352931" lon="-5.58284598402679">
        <ele>358.70999999999998</ele>
        <time>2025-04-29T11:35:25Z</time>
      </trkpt>
      <trkpt lat="43.33481197245419" lon="-5.582940028980374">
        <ele>360.14999999999998</ele>
        <time>2025-04-29T11:35:26Z</time>
      </trkpt>
      <trkpt lat="43.334739971905947" lon="-5.583095010370016">
        <ele>361.11000000000001</ele>
        <time>2025-04-29T11:35:27Z</time>
      </trkpt>
      <trkpt lat="43.334663026034832" lon="-5.583258038386703">
        <ele>362.55000000000001</ele>
        <time>2025-04-29T11:35:28Z</time>
      </trkpt>
      <trkpt lat="43.334367983043194" lon="-5.583888022229075">
        <ele>367.36000000000001</ele>
        <time>2025-04-29T11:35:32Z</time>
      </trkpt>
      <trkpt lat="43.334341999143362" lon="-5.58402699418366">
        <ele>368.80000000000001</ele>
        <time>2025-04-29T11:35:33Z</time>
      </trkpt>
      <trkpt lat="43.334332024678588" lon="-5.584160014986992">
        <ele>370.24000000000001</ele>
        <time>2025-04-29T11:35:34Z</time>
      </trkpt>
      <trkpt lat="43.334274021908641" lon="-5.584279038012028">
        <ele>371.20999999999998</ele>
        <time>2025-04-29T11:35:35Z</time>
      </trkpt>
      <trkpt lat="43.334182994440198" lon="-5.584362018853426">
        <ele>371.69</ele>
        <time>2025-04-29T11:35:36Z</time>
      </trkpt>
      <trkpt lat="43.334084004163742" lon="-5.584468971937895">
        <ele>372.64999999999998</ele>
        <time>2025-04-29T11:35:37Z</time>
      </trkpt>
      <trkpt lat="43.334035975858569" lon="-5.584621019661427">
        <ele>373.61000000000001</ele>
        <time>2025-04-29T11:35:38Z</time>
      </trkpt>
      <trkpt lat="43.333981996402144" lon="-5.584791004657745">
        <ele>374.56999999999999</ele>
        <time>2025-04-29T11:35:39Z</time>
      </trkpt>
      <trkpt lat="43.33395098336041" lon="-5.58499300852418">
        <ele>376.00999999999999</ele>
        <time>2025-04-29T11:35:40Z</time>
      </trkpt>
      <trkpt lat="43.333932962268591" lon="-5.585195012390614">
        <ele>377.44999999999999</ele>
        <time>2025-04-29T11:35:41Z</time>
      </trkpt>
      <trkpt lat="43.333877976983786" lon="-5.585920969024301">
        <ele>382.25999999999999</ele>
        <time>2025-04-29T11:35:45Z</time>
      </trkpt>
      <trkpt lat="43.333887029439211" lon="-5.586239984259009">
        <ele>384.18000000000001</ele>
        <time>2025-04-29T11:35:47Z</time>
      </trkpt>
      <trkpt lat="43.333897003903985" lon="-5.586564028635621">
        <ele>385.63</ele>
        <time>2025-04-29T11:35:49Z</time>
      </trkpt>
      <trkpt lat="43.333863979205489" lon="-5.586680034175515">
        <ele>386.11000000000001</ele>
        <time>2025-04-29T11:35:50Z</time>
      </trkpt>
      <trkpt lat="43.3338029589504" lon="-5.586802996695042">
        <ele>386.58999999999997</ele>
        <time>2025-04-29T11:35:51Z</time>
      </trkpt>
      <trkpt lat="43.33373699337244" lon="-5.586934005841613">
        <ele>387.55000000000001</ele>
        <time>2025-04-29T11:35:52Z</time>
      </trkpt>
      <trkpt lat="43.333684019744396" lon="-5.587040958926082">
        <ele>388.02999999999997</ele>
        <time>2025-04-29T11:35:53Z</time>
      </trkpt>
      <trkpt lat="43.333724001422524" lon="-5.587242040783167">
        <ele>388.99000000000001</ele>
        <time>2025-04-29T11:35:54Z</time>
      </trkpt>
      <trkpt lat="43.333755014464259" lon="-5.587397022172809">
        <ele>389.47000000000003</ele>
        <time>2025-04-29T11:35:55Z</time>
      </trkpt>
      <trkpt lat="43.333788039162755" lon="-5.587566001340747">
        <ele>389.94999999999999</ele>
        <time>2025-04-29T11:35:56Z</time>
      </trkpt>
      <trkpt lat="43.333812011405826" lon="-5.587899014353752">
        <ele>390.43000000000001</ele>
        <time>2025-04-29T11:35:58Z</time>
      </trkpt>
      <trkpt lat="43.333759037777781" lon="-5.588061958551407">
        <ele>390.91000000000003</ele>
        <time>2025-04-29T11:35:59Z</time>
      </trkpt>
      <trkpt lat="43.333652000874281" lon="-5.588364964351058">
        <ele>392.83999999999997</ele>
        <time>2025-04-29T11:36:01Z</time>
      </trkpt>
      <trkpt lat="43.333641020581126" lon="-5.588565040379763">
        <ele>393.80000000000001</ele>
        <time>2025-04-29T11:36:02Z</time>
      </trkpt>
      <trkpt lat="43.333669016137719" lon="-5.588708035647869">
        <ele>394.75999999999999</ele>
        <time>2025-04-29T11:36:03Z</time>
      </trkpt>
      <trkpt lat="43.333704974502325" lon="-5.588885983452201">
        <ele>395.24000000000001</ele>
        <time>2025-04-29T11:36:04Z</time>
      </trkpt>
      <trkpt lat="43.333758031949401" lon="-5.589072983711958">
        <ele>396.19999999999999</ele>
        <time>2025-04-29T11:36:05Z</time>
      </trkpt>
      <trkpt lat="43.333937991410494" lon="-5.589582016691566">
        <ele>398.12</ele>
        <time>2025-04-29T11:36:08Z</time>
      </trkpt>
      <trkpt lat="43.3339290227741" lon="-5.589746972545981">
        <ele>399.07999999999998</ele>
        <time>2025-04-29T11:36:09Z</time>
      </trkpt>
      <trkpt lat="43.333921981975436" lon="-5.589874964207411">
        <ele>400.05000000000001</ele>
        <time>2025-04-29T11:36:10Z</time>
      </trkpt>
      <trkpt lat="43.333958024159074" lon="-5.590048972517252">
        <ele>403.41000000000003</ele>
        <time>2025-04-29T11:36:15Z</time>
      </trkpt>
      <trkpt lat="43.333912007510662" lon="-5.590330017730594">
        <ele>404.37</ele>
        <time>2025-04-29T11:36:33Z</time>
      </trkpt>
      <trkpt lat="43.333898009732366" lon="-5.59040998108685">
        <ele>404.37</ele>
        <time>2025-04-29T11:36:34Z</time>
      </trkpt>
      <trkpt lat="43.333954000845551" lon="-5.590533027425408">
        <ele>404.37</ele>
        <time>2025-04-29T11:36:35Z</time>
      </trkpt>
      <trkpt lat="43.33399398252368" lon="-5.590621959418058">
        <ele>403.88999999999999</ele>
        <time>2025-04-29T11:36:36Z</time>
      </trkpt>
      <trkpt lat="43.33403698168695" lon="-5.590716004371643">
        <ele>403.88999999999999</ele>
        <time>2025-04-29T11:36:37Z</time>
      </trkpt>
      <trkpt lat="43.334113005548716" lon="-5.590895041823387">
        <ele>402.44999999999999</ele>
        <time>2025-04-29T11:36:39Z</time>
      </trkpt>
      <trkpt lat="43.334107976406813" lon="-5.591005012392998">
        <ele>401.97000000000003</ele>
        <time>2025-04-29T11:36:40Z</time>
      </trkpt>
      <trkpt lat="43.334072018042207" lon="-5.591125963255763">
        <ele>401.00999999999999</ele>
        <time>2025-04-29T11:36:41Z</time>
      </trkpt>
      <trkpt lat="43.334047961980104" lon="-5.59120399877429">
        <ele>400.05000000000001</ele>
        <time>2025-04-29T11:36:42Z</time>
      </trkpt>
      <trkpt lat="43.333960035815835" lon="-5.59126602485776">
        <ele>399.07999999999998</ele>
        <time>2025-04-29T11:36:43Z</time>
      </trkpt>
      <trkpt lat="43.333894992247224" lon="-5.591312041506171">
        <ele>398.12</ele>
        <time>2025-04-29T11:36:44Z</time>
      </trkpt>
      <trkpt lat="43.333833971992135" lon="-5.591354034841061">
        <ele>397.63999999999999</ele>
        <time>2025-04-29T11:36:45Z</time>
      </trkpt>
      <trkpt lat="43.333788039162755" lon="-5.591308018192649">
        <ele>397.16000000000003</ele>
        <time>2025-04-29T11:36:46Z</time>
      </trkpt>
      <trkpt lat="43.333704974502325" lon="-5.5912259593606">
        <ele>397.16000000000003</ele>
        <time>2025-04-29T11:36:47Z</time>
      </trkpt>
      <trkpt lat="43.333653006702662" lon="-5.591135015711188">
        <ele>396.68000000000001</ele>
        <time>2025-04-29T11:36:48Z</time>
      </trkpt>
      <trkpt lat="43.333590980619192" lon="-5.591025967150927">
        <ele>396.19999999999999</ele>
        <time>2025-04-29T11:36:49Z</time>
      </trkpt>
      <trkpt lat="43.333525015041232" lon="-5.590909961611033">
        <ele>395.24000000000001</ele>
        <time>2025-04-29T11:36:50Z</time>
      </trkpt>
      <trkpt lat="43.333451002836227" lon="-5.590781969949603">
        <ele>394.75999999999999</ele>
        <time>2025-04-29T11:36:51Z</time>
      </trkpt>
      <trkpt lat="43.333408003672957" lon="-5.590620031580329">
        <ele>393.80000000000001</ele>
        <time>2025-04-29T11:36:52Z</time>
      </trkpt>
      <trkpt lat="43.333363998681307" lon="-5.590449962764978">
        <ele>392.83999999999997</ele>
        <time>2025-04-29T11:36:53Z</time>
      </trkpt>
      <trkpt lat="43.333318987861276" lon="-5.590275032445788">
        <ele>391.87</ele>
        <time>2025-04-29T11:36:54Z</time>
      </trkpt>
      <trkpt lat="43.333273977041245" lon="-5.590099012479186">
        <ele>390.91000000000003</ele>
        <time>2025-04-29T11:36:55Z</time>
      </trkpt>
      <trkpt lat="43.333208011463284" lon="-5.589939001947641">
        <ele>389.94999999999999</ele>
        <time>2025-04-29T11:36:56Z</time>
      </trkpt>
      <trkpt lat="43.33313399925828" lon="-5.589803969487548">
        <ele>388.99000000000001</ele>
        <time>2025-04-29T11:36:57Z</time>
      </trkpt>
      <trkpt lat="43.333055041730404" lon="-5.589684024453163">
        <ele>387.55000000000001</ele>
        <time>2025-04-29T11:36:58Z</time>
      </trkpt>
      <trkpt lat="43.332966025918722" lon="-5.589553015306592">
        <ele>386.58999999999997</ele>
        <time>2025-04-29T11:36:59Z</time>
      </trkpt>
      <trkpt lat="43.332872986793518" lon="-5.589415971189737">
        <ele>385.14999999999998</ele>
        <time>2025-04-29T11:37:00Z</time>
      </trkpt>
      <trkpt lat="43.33261901512742" lon="-5.588993020355701">
        <ele>383.22000000000003</ele>
        <time>2025-04-29T11:37:03Z</time>
      </trkpt>
      <trkpt lat="43.332546008750796" lon="-5.588821023702622">
        <ele>382.74000000000001</ele>
        <time>2025-04-29T11:37:04Z</time>
      </trkpt>
      <trkpt lat="43.33240401931107" lon="-5.588528998196125">
        <ele>381.30000000000001</ele>
        <time>2025-04-29T11:37:06Z</time>
      </trkpt>
      <trkpt lat="43.332333024591208" lon="-5.588430007919669">
        <ele>380.81999999999999</ele>
        <time>2025-04-29T11:37:07Z</time>
      </trkpt>
      <trkpt lat="43.332246020436287" lon="-5.588404024019837">
        <ele>379.86000000000001</ele>
        <time>2025-04-29T11:37:08Z</time>
      </trkpt>
      <trkpt lat="43.332163961604238" lon="-5.588379967957735">
        <ele>379.86000000000001</ele>
        <time>2025-04-29T11:37:09Z</time>
      </trkpt>
      <trkpt lat="43.332138983532786" lon="-5.588372005149722">
        <ele>379.38</ele>
        <time>2025-04-29T11:37:10Z</time>
      </trkpt>
      <trkpt lat="43.332034964114428" lon="-5.588412992656231">
        <ele>378.89999999999998</ele>
        <time>2025-04-29T11:37:11Z</time>
      </trkpt>
      <trkpt lat="43.331947959959507" lon="-5.588448029011488">
        <ele>378.42000000000002</ele>
        <time>2025-04-29T11:37:12Z</time>
      </trkpt>
      <trkpt lat="43.331848969683051" lon="-5.588488010689616">
        <ele>377.94</ele>
        <time>2025-04-29T11:37:13Z</time>
      </trkpt>
      <trkpt lat="43.331745034083724" lon="-5.58851701207459">
        <ele>378.42000000000002</ele>
        <time>2025-04-29T11:37:14Z</time>
      </trkpt>
      <trkpt lat="43.331639003008604" lon="-5.58853997848928">
        <ele>378.42000000000002</ele>
        <time>2025-04-29T11:37:15Z</time>
      </trkpt>
      <trkpt lat="43.331415960565209" lon="-5.588590018451214">
        <ele>379.86000000000001</ele>
        <time>2025-04-29T11:37:17Z</time>
      </trkpt>
      <trkpt lat="43.331291992217302" lon="-5.588617008179426">
        <ele>380.81999999999999</ele>
        <time>2025-04-29T11:37:18Z</time>
      </trkpt>
      <trkpt lat="43.331172969192266" lon="-5.588651960715652">
        <ele>382.25999999999999</ele>
        <time>2025-04-29T11:37:19Z</time>
      </trkpt>
      <trkpt lat="43.331061992794275" lon="-5.588691020384431">
        <ele>383.22000000000003</ele>
        <time>2025-04-29T11:37:20Z</time>
      </trkpt>
      <trkpt lat="43.330967025831342" lon="-5.588723961263895">
        <ele>384.66000000000003</ele>
        <time>2025-04-29T11:37:21Z</time>
      </trkpt>
      <trkpt lat="43.330853031948209" lon="-5.588764026761055">
        <ele>386.58999999999997</ele>
        <time>2025-04-29T11:37:23Z</time>
      </trkpt>
      <trkpt lat="43.330802991986275" lon="-5.588756985962391">
        <ele>388.02999999999997</ele>
        <time>2025-04-29T11:37:24Z</time>
      </trkpt>
      <trkpt lat="43.330786982551217" lon="-5.588694037869573">
        <ele>389.47000000000003</ele>
        <time>2025-04-29T11:37:25Z</time>
      </trkpt>
      <trkpt lat="43.330822018906474" lon="-5.588595969602466">
        <ele>390.43000000000001</ele>
        <time>2025-04-29T11:37:26Z</time>
      </trkpt>
      <trkpt lat="43.330864012241364" lon="-5.588480969890952">
        <ele>391.87</ele>
        <time>2025-04-29T11:37:27Z</time>
      </trkpt>
      <trkpt lat="43.330940958112478" lon="-5.58838902041316">
        <ele>393.31999999999999</ele>
        <time>2025-04-29T11:37:28Z</time>
      </trkpt>
      <trkpt lat="43.331025028601289" lon="-5.588305033743382">
        <ele>394.75999999999999</ele>
        <time>2025-04-29T11:37:29Z</time>
      </trkpt>
      <trkpt lat="43.331112032756209" lon="-5.588218029588461">
        <ele>397.16000000000003</ele>
        <time>2025-04-29T11:37:30Z</time>
      </trkpt>
      <trkpt lat="43.331452002748847" lon="-5.587877975776792">
        <ele>405.32999999999998</ele>
        <time>2025-04-29T11:37:34Z</time>
      </trkpt>
      <trkpt lat="43.33152299746871" lon="-5.587736992165446">
        <ele>407.74000000000001</ele>
        <time>2025-04-29T11:37:35Z</time>
      </trkpt>
      <trkpt lat="43.331703040748835" lon="-5.587374977767468">
        <ele>414.47000000000003</ele>
        <time>2025-04-29T11:37:38Z</time>
      </trkpt>
      <trkpt lat="43.33178099244833" lon="-5.58710097335279">
        <ele>419.26999999999998</ele>
        <time>2025-04-29T11:37:40Z</time>
      </trkpt>
      <trkpt lat="43.331812005490065" lon="-5.586964013054967">
        <ele>421.68000000000001</ele>
        <time>2025-04-29T11:37:41Z</time>
      </trkpt>
      <trkpt lat="43.33184503018856" lon="-5.586822023615241">
        <ele>423.60000000000002</ele>
        <time>2025-04-29T11:37:42Z</time>
      </trkpt>
      <trkpt lat="43.331918036565185" lon="-5.586193967610598">
        <ele>430.81</ele>
        <time>2025-04-29T11:37:46Z</time>
      </trkpt>
      <trkpt lat="43.331922981888056" lon="-5.586085002869368">
        <ele>432.25</ele>
        <time>2025-04-29T11:37:47Z</time>
      </trkpt>
      <trkpt lat="43.331857016310096" lon="-5.585981989279389">
        <ele>433.69</ele>
        <time>2025-04-29T11:37:48Z</time>
      </trkpt>
      <trkpt lat="43.331792978569865" lon="-5.585915017873049">
        <ele>435.13</ele>
        <time>2025-04-29T11:37:49Z</time>
      </trkpt>
      <trkpt lat="43.331726007163525" lon="-5.585843017324805">
        <ele>436.10000000000002</ele>
        <time>2025-04-29T11:37:50Z</time>
      </trkpt>
      <trkpt lat="43.331646965816617" lon="-5.585758024826646">
        <ele>437.54000000000002</ele>
        <time>2025-04-29T11:37:51Z</time>
      </trkpt>
      <trkpt lat="43.331585023552179" lon="-5.585635984316468">
        <ele>438.01999999999998</ele>
        <time>2025-04-29T11:37:52Z</time>
      </trkpt>
      <trkpt lat="43.331530038267374" lon="-5.585497012361884">
        <ele>438.98000000000002</ele>
        <time>2025-04-29T11:37:53Z</time>
      </trkpt>
      <trkpt lat="43.331445967778563" lon="-5.585371032357216">
        <ele>439.45999999999998</ele>
        <time>2025-04-29T11:37:54Z</time>
      </trkpt>
      <trkpt lat="43.331346977502108" lon="-5.585287967696786">
        <ele>440.42000000000002</ele>
        <time>2025-04-29T11:37:55Z</time>
      </trkpt>
      <trkpt lat="43.33124496974051" lon="-5.585201969370246">
        <ele>440.89999999999998</ele>
        <time>2025-04-29T11:37:56Z</time>
      </trkpt>
      <trkpt lat="43.331138016656041" lon="-5.585113959386945">
        <ele>441.38</ele>
        <time>2025-04-29T11:37:57Z</time>
      </trkpt>
      <trkpt lat="43.331035003066063" lon="-5.585014969110489">
        <ele>441.38</ele>
        <time>2025-04-29T11:37:58Z</time>
      </trkpt>
      <trkpt lat="43.330479031428695" lon="-5.584537032991648">
        <ele>445.23000000000002</ele>
        <time>2025-04-29T11:38:03Z</time>
      </trkpt>
      <trkpt lat="43.330380041152239" lon="-5.584429996088147">
        <ele>446.19</ele>
        <time>2025-04-29T11:38:04Z</time>
      </trkpt>
      <trkpt lat="43.330284990370274" lon="-5.584332011640072">
        <ele>447.14999999999998</ele>
        <time>2025-04-29T11:38:05Z</time>
      </trkpt>
      <trkpt lat="43.330188011750579" lon="-5.58426302857697">
        <ele>448.58999999999997</ele>
        <time>2025-04-29T11:38:06Z</time>
      </trkpt>
      <trkpt lat="43.330078963190317" lon="-5.584216006100178">
        <ele>449.55000000000001</ele>
        <time>2025-04-29T11:38:07Z</time>
      </trkpt>
      <trkpt lat="43.329974021762609" lon="-5.584191028028727">
        <ele>451</ele>
        <time>2025-04-29T11:38:08Z</time>
      </trkpt>
      <trkpt lat="43.329755002632737" lon="-5.584135036915541">
        <ele>453.39999999999998</ele>
        <time>2025-04-29T11:38:10Z</time>
      </trkpt>
      <trkpt lat="43.32941897213459" lon="-5.584138976410031">
        <ele>456.27999999999997</ele>
        <time>2025-04-29T11:38:13Z</time>
      </trkpt>
      <trkpt lat="43.329305984079838" lon="-5.584145011380315">
        <ele>457.24000000000001</ele>
        <time>2025-04-29T11:38:14Z</time>
      </trkpt>
      <trkpt lat="43.329023011028767" lon="-5.583986006677151">
        <ele>460.13</ele>
        <time>2025-04-29T11:38:17Z</time>
      </trkpt>
      <trkpt lat="43.328952016308904" lon="-5.58394099585712">
        <ele>461.08999999999997</ele>
        <time>2025-04-29T11:38:18Z</time>
      </trkpt>
      <trkpt lat="43.328898036852479" lon="-5.583887016400695">
        <ele>462.05000000000001</ele>
        <time>2025-04-29T11:38:19Z</time>
      </trkpt>
      <trkpt lat="43.328881021589041" lon="-5.58379196561873">
        <ele>463.49000000000001</ele>
        <time>2025-04-29T11:38:20Z</time>
      </trkpt>
      <trkpt lat="43.328907005488873" lon="-5.58372600004077">
        <ele>464.44999999999999</ele>
        <time>2025-04-29T11:38:21Z</time>
      </trkpt>
      <trkpt lat="43.328931983560324" lon="-5.583664979785681">
        <ele>465.42000000000002</ele>
        <time>2025-04-29T11:38:22Z</time>
      </trkpt>
      <trkpt lat="43.328962996602058" lon="-5.583587028086186">
        <ele>466.38</ele>
        <time>2025-04-29T11:38:23Z</time>
      </trkpt>
      <trkpt lat="43.32894598133862" lon="-5.583544028922916">
        <ele>467.33999999999997</ele>
        <time>2025-04-29T11:38:24Z</time>
      </trkpt>
      <trkpt lat="43.328927960246801" lon="-5.583499018102884">
        <ele>468.30000000000001</ele>
        <time>2025-04-29T11:38:25Z</time>
      </trkpt>
      <trkpt lat="43.328856965526938" lon="-5.58351100422442">
        <ele>469.74000000000001</ele>
        <time>2025-04-29T11:38:26Z</time>
      </trkpt>
      <trkpt lat="43.328790999948978" lon="-5.583544028922916">
        <ele>470.69999999999999</ele>
        <time>2025-04-29T11:38:27Z</time>
      </trkpt>
      <trkpt lat="43.328726962208748" lon="-5.58361703529954">
        <ele>472.13999999999999</ele>
        <time>2025-04-29T11:38:28Z</time>
      </trkpt>
      <trkpt lat="43.328654039651155" lon="-5.583701021969318">
        <ele>473.11000000000001</ele>
        <time>2025-04-29T11:38:29Z</time>
      </trkpt>
      <trkpt lat="43.328628977760673" lon="-5.583819961175323">
        <ele>475.02999999999997</ele>
        <time>2025-04-29T11:38:30Z</time>
      </trkpt>
      <trkpt lat="43.328631995245814" lon="-5.583943007513881">
        <ele>476.47000000000003</ele>
        <time>2025-04-29T11:38:31Z</time>
      </trkpt>
      <trkpt lat="43.328678011894226" lon="-5.584066975861788">
        <ele>477.91000000000003</ele>
        <time>2025-04-29T11:38:32Z</time>
      </trkpt>
      <trkpt lat="43.328725034371018" lon="-5.584193961694837">
        <ele>478.87</ele>
        <time>2025-04-29T11:38:33Z</time>
      </trkpt>
      <trkpt lat="43.328800974413753" lon="-5.584325976669788">
        <ele>480.31999999999999</ele>
        <time>2025-04-29T11:38:34Z</time>
      </trkpt>
      <trkpt lat="43.328895019367337" lon="-5.584354978054762">
        <ele>481.27999999999997</ele>
        <time>2025-04-29T11:38:35Z</time>
      </trkpt>
      <trkpt lat="43.328990992158651" lon="-5.584383979439735">
        <ele>481.75999999999999</ele>
        <time>2025-04-29T11:38:36Z</time>
      </trkpt>
      <trkpt lat="43.32907397300005" lon="-5.584453968331218">
        <ele>482.72000000000003</ele>
        <time>2025-04-29T11:38:37Z</time>
      </trkpt>
      <trkpt lat="43.329127030447125" lon="-5.58456402271986">
        <ele>483.68000000000001</ele>
        <time>2025-04-29T11:38:38Z</time>
      </trkpt>
      <trkpt lat="43.329188972711563" lon="-5.584694026038051">
        <ele>484.16000000000003</ele>
        <time>2025-04-29T11:38:39Z</time>
      </trkpt>
      <trkpt lat="43.329305984079838" lon="-5.584939029067755">
        <ele>485.60000000000002</ele>
        <time>2025-04-29T11:38:41Z</time>
      </trkpt>
      <trkpt lat="43.329421989619732" lon="-5.584987979382277">
        <ele>487.05000000000001</ele>
        <time>2025-04-29T11:38:42Z</time>
      </trkpt>
      <trkpt lat="43.329506982117891" lon="-5.585025027394295">
        <ele>488.49000000000001</ele>
        <time>2025-04-29T11:38:43Z</time>
      </trkpt>
      <trkpt lat="43.329586023464799" lon="-5.585057968273759">
        <ele>489.44999999999999</ele>
        <time>2025-04-29T11:38:44Z</time>
      </trkpt>
      <trkpt lat="43.329632040113211" lon="-5.585143966600299">
        <ele>490.41000000000003</ele>
        <time>2025-04-29T11:38:45Z</time>
      </trkpt>
      <trkpt lat="43.329662969335914" lon="-5.585235999897122">
        <ele>491.85000000000002</ele>
        <time>2025-04-29T11:38:46Z</time>
      </trkpt>
      <trkpt lat="43.329664980992675" lon="-5.585333984345198">
        <ele>492.81</ele>
        <time>2025-04-29T11:38:47Z</time>
      </trkpt>
      <trkpt lat="43.329657018184662" lon="-5.585443032905459">
        <ele>494.25999999999999</ele>
        <time>2025-04-29T11:38:48Z</time>
      </trkpt>
      <trkpt lat="43.329648971557617" lon="-5.585539005696774">
        <ele>495.22000000000003</ele>
        <time>2025-04-29T11:38:49Z</time>
      </trkpt>
      <trkpt lat="43.32958803512156" lon="-5.585600025951862">
        <ele>496.66000000000003</ele>
        <time>2025-04-29T11:38:50Z</time>
      </trkpt>
      <trkpt lat="43.329522991552949" lon="-5.585620980709791">
        <ele>498.10000000000002</ele>
        <time>2025-04-29T11:38:51Z</time>
      </trkpt>
      <trkpt lat="43.329435987398028" lon="-5.585612012073398">
        <ele>499.54000000000002</ele>
        <time>2025-04-29T11:38:52Z</time>
      </trkpt>
      <trkpt lat="43.329334985464811" lon="-5.585601031780243">
        <ele>500.98000000000002</ele>
        <time>2025-04-29T11:38:53Z</time>
      </trkpt>
      <trkpt lat="43.329228032380342" lon="-5.585588961839676">
        <ele>502.43000000000001</ele>
        <time>2025-04-29T11:38:54Z</time>
      </trkpt>
      <trkpt lat="43.328758981078863" lon="-5.585530959069729">
        <ele>509.63999999999999</ele>
        <time>2025-04-29T11:38:58Z</time>
      </trkpt>
      <trkpt lat="43.328672982752323" lon="-5.585459964349866">
        <ele>511.07999999999998</ele>
        <time>2025-04-29T11:38:59Z</time>
      </trkpt>
      <trkpt lat="43.32857902161777" lon="-5.585383018478751">
        <ele>512.51999999999998</ele>
        <time>2025-04-29T11:39:00Z</time>
      </trkpt>
      <trkpt lat="43.328487994149327" lon="-5.585289979353547">
        <ele>513.96000000000004</ele>
        <time>2025-04-29T11:39:01Z</time>
      </trkpt>
      <trkpt lat="43.328404007479548" lon="-5.585186965763569">
        <ele>514.44000000000005</ele>
        <time>2025-04-29T11:39:02Z</time>
      </trkpt>
      <trkpt lat="43.328031012788415" lon="-5.584726966917515">
        <ele>518.76999999999998</ele>
        <time>2025-04-29T11:39:06Z</time>
      </trkpt>
      <trkpt lat="43.327867984771729" lon="-5.584493027999997">
        <ele>522.13</ele>
        <time>2025-04-29T11:39:08Z</time>
      </trkpt>
      <trkpt lat="43.327803025022149" lon="-5.5843910202384">
        <ele>523.58000000000004</ele>
        <time>2025-04-29T11:39:09Z</time>
      </trkpt>
      <trkpt lat="43.327728006988764" lon="-5.584340980276465">
        <ele>525.01999999999998</ele>
        <time>2025-04-29T11:39:10Z</time>
      </trkpt>
      <trkpt lat="43.327641002833843" lon="-5.584326982498169">
        <ele>526.46000000000004</ele>
        <time>2025-04-29T11:39:11Z</time>
      </trkpt>
      <trkpt lat="43.327573025599122" lon="-5.584381967782974">
        <ele>527.41999999999996</ele>
        <time>2025-04-29T11:39:12Z</time>
      </trkpt>
      <trkpt lat="43.327499013394117" lon="-5.584442988038063">
        <ele>528.38</ele>
        <time>2025-04-29T11:39:13Z</time>
      </trkpt>
      <trkpt lat="43.327425001189113" lon="-5.584504008293152">
        <ele>529.34000000000003</ele>
        <time>2025-04-29T11:39:14Z</time>
      </trkpt>
      <trkpt lat="43.327337997034192" lon="-5.584497973322868">
        <ele>530.78999999999996</ele>
        <time>2025-04-29T11:39:15Z</time>
      </trkpt>
      <trkpt lat="43.327253004536033" lon="-5.58447701856494">
        <ele>532.23000000000002</ele>
        <time>2025-04-29T11:39:16Z</time>
      </trkpt>
      <trkpt lat="43.327170023694634" lon="-5.584411974996328">
        <ele>533.66999999999996</ele>
        <time>2025-04-29T11:39:17Z</time>
      </trkpt>
      <trkpt lat="43.327082013711333" lon="-5.584343997761607">
        <ele>535.11000000000001</ele>
        <time>2025-04-29T11:39:18Z</time>
      </trkpt>
      <trkpt lat="43.326607011258602" lon="-5.583977038040757">
        <ele>544.72000000000003</ele>
        <time>2025-04-29T11:39:23Z</time>
      </trkpt>
      <trkpt lat="43.326550014317036" lon="-5.583849968388677">
        <ele>546.16999999999996</ele>
        <time>2025-04-29T11:39:24Z</time>
      </trkpt>
      <trkpt lat="43.326520007103682" lon="-5.583713008090854">
        <ele>548.09000000000003</ele>
        <time>2025-04-29T11:39:25Z</time>
      </trkpt>
      <trkpt lat="43.32649502903223" lon="-5.583560960367322">
        <ele>549.52999999999997</ele>
        <time>2025-04-29T11:39:26Z</time>
      </trkpt>
      <trkpt lat="43.326468039304018" lon="-5.583402961492539">
        <ele>550.97000000000003</ele>
        <time>2025-04-29T11:39:27Z</time>
      </trkpt>
      <trkpt lat="43.32645202986896" lon="-5.583238005638123">
        <ele>552.89999999999998</ele>
        <time>2025-04-29T11:39:28Z</time>
      </trkpt>
      <trkpt lat="43.32645202986896" lon="-5.582878002896905">
        <ele>555.77999999999997</ele>
        <time>2025-04-29T11:39:30Z</time>
      </trkpt>
      <trkpt lat="43.32645202986896" lon="-5.582707012072206">
        <ele>557.22000000000003</ele>
        <time>2025-04-29T11:39:31Z</time>
      </trkpt>
      <trkpt lat="43.326512966305017" lon="-5.582553958520293">
        <ele>558.17999999999995</ele>
        <time>2025-04-29T11:39:32Z</time>
      </trkpt>
      <trkpt lat="43.326571974903345" lon="-5.582407023757696">
        <ele>559.13999999999999</ele>
        <time>2025-04-29T11:39:33Z</time>
      </trkpt>
      <trkpt lat="43.326631989330053" lon="-5.582258999347687">
        <ele>559.62</ele>
        <time>2025-04-29T11:39:34Z</time>
      </trkpt>
      <trkpt lat="43.326690997928381" lon="-5.582110974937677">
        <ele>560.11000000000001</ele>
        <time>2025-04-29T11:39:35Z</time>
      </trkpt>
      <trkpt lat="43.326866012066603" lon="-5.58172800578177">
        <ele>561.07000000000005</ele>
        <time>2025-04-29T11:39:38Z</time>
      </trkpt>
      <trkpt lat="43.326865006238222" lon="-5.581613006070256">
        <ele>561.07000000000005</ele>
        <time>2025-04-29T11:39:39Z</time>
      </trkpt>
      <trkpt lat="43.326848996803164" lon="-5.581546034663916">
        <ele>561.07000000000005</ele>
        <time>2025-04-29T11:39:40Z</time>
      </trkpt>
      <trkpt lat="43.326813960447907" lon="-5.581508986651897">
        <ele>561.07000000000005</ele>
        <time>2025-04-29T11:39:41Z</time>
      </trkpt>
      <trkpt lat="43.326771967113018" lon="-5.581515021622181">
        <ele>561.07000000000005</ele>
        <time>2025-04-29T11:39:42Z</time>
      </trkpt>
      <trkpt lat="43.326718993484974" lon="-5.581521978601813">
        <ele>560.59000000000003</ele>
        <time>2025-04-29T11:39:43Z</time>
      </trkpt>
      <trkpt lat="43.326653027907014" lon="-5.581532036885619">
        <ele>560.59000000000003</ele>
        <time>2025-04-29T11:39:44Z</time>
      </trkpt>
      <trkpt lat="43.326570969074965" lon="-5.581544023007155">
        <ele>560.59000000000003</ele>
        <time>2025-04-29T11:39:45Z</time>
      </trkpt>
      <trkpt lat="43.326077023521066" lon="-5.58168601244688">
        <ele>559.13999999999999</ele>
        <time>2025-04-29T11:39:50Z</time>
      </trkpt>
      <trkpt lat="43.325966969132423" lon="-5.58175097219646">
        <ele>558.65999999999997</ele>
        <time>2025-04-29T11:39:51Z</time>
      </trkpt>
      <trkpt lat="43.325642002746463" lon="-5.581914000213146">
        <ele>559.62</ele>
        <time>2025-04-29T11:39:54Z</time>
      </trkpt>
      <trkpt lat="43.325531026348472" lon="-5.581953981891275">
        <ele>560.59000000000003</ele>
        <time>2025-04-29T11:39:55Z</time>
      </trkpt>
      <trkpt lat="43.325418960303068" lon="-5.581970997154713">
        <ele>562.02999999999997</ele>
        <time>2025-04-29T11:39:56Z</time>
      </trkpt>
      <trkpt lat="43.325202958658338" lon="-5.581939984112978">
        <ele>565.38999999999999</ele>
        <time>2025-04-29T11:39:58Z</time>
      </trkpt>
      <trkpt lat="43.324901964515448" lon="-5.581953981891275">
        <ele>568.27999999999997</ele>
        <time>2025-04-29T11:40:01Z</time>
      </trkpt>
      <trkpt lat="43.324478007853031" lon="-5.581998992711306">
        <ele>569.72000000000003</ele>
        <time>2025-04-29T11:40:05Z</time>
      </trkpt>
      <trkpt lat="43.324395027011633" lon="-5.581949036568403">
        <ele>569.72000000000003</ele>
        <time>2025-04-29T11:40:06Z</time>
      </trkpt>
      <trkpt lat="43.32424096763134" lon="-5.581866977736354">
        <ele>570.20000000000005</ele>
        <time>2025-04-29T11:40:08Z</time>
      </trkpt>
      <trkpt lat="43.324166033416986" lon="-5.58185800909996">
        <ele>570.20000000000005</ele>
        <time>2025-04-29T11:40:09Z</time>
      </trkpt>
      <trkpt lat="43.324095960706472" lon="-5.581849040463567">
        <ele>570.20000000000005</ele>
        <time>2025-04-29T11:40:10Z</time>
      </trkpt>
      <trkpt lat="43.324052039533854" lon="-5.581734040752053">
        <ele>569.72000000000003</ele>
        <time>2025-04-29T11:40:11Z</time>
      </trkpt>
      <trkpt lat="43.324022032320499" lon="-5.581648964434862">
        <ele>569.72000000000003</ele>
        <time>2025-04-29T11:40:12Z</time>
      </trkpt>
      <trkpt lat="43.323992025107145" lon="-5.581561960279942">
        <ele>569.72000000000003</ele>
        <time>2025-04-29T11:40:13Z</time>
      </trkpt>
      <trkpt lat="43.323961012065411" lon="-5.581475039944053">
        <ele>569.72000000000003</ele>
        <time>2025-04-29T11:40:14Z</time>
      </trkpt>
      <trkpt lat="43.323920024558902" lon="-5.581416031345725">
        <ele>569.24000000000001</ele>
        <time>2025-04-29T11:40:15Z</time>
      </trkpt>
      <trkpt lat="43.323850035667419" lon="-5.581403039395809">
        <ele>569.24000000000001</ele>
        <time>2025-04-29T11:40:16Z</time>
      </trkpt>
      <trkpt lat="43.323766971006989" lon="-5.581388035789132">
        <ele>568.75999999999999</ele>
        <time>2025-04-29T11:40:17Z</time>
      </trkpt>
      <trkpt lat="43.323660017922521" lon="-5.581326009705663">
        <ele>568.27999999999997</ele>
        <time>2025-04-29T11:40:18Z</time>
      </trkpt>
      <trkpt lat="43.323581982403994" lon="-5.581240011379123">
        <ele>567.79999999999995</ele>
        <time>2025-04-29T11:40:19Z</time>
      </trkpt>
      <trkpt lat="43.323500007390976" lon="-5.58114998973906">
        <ele>567.32000000000005</ele>
        <time>2025-04-29T11:40:20Z</time>
      </trkpt>
      <trkpt lat="43.323439992964268" lon="-5.581021998077631">
        <ele>567.32000000000005</ele>
        <time>2025-04-29T11:40:21Z</time>
      </trkpt>
      <trkpt lat="43.323392970487475" lon="-5.58091102167964">
        <ele>566.83000000000004</ele>
        <time>2025-04-29T11:40:22Z</time>
      </trkpt>
      <trkpt lat="43.323359023779631" lon="-5.580771965906024">
        <ele>566.83000000000004</ele>
        <time>2025-04-29T11:40:23Z</time>
      </trkpt>
      <trkpt lat="43.323351982980967" lon="-5.580646991729736">
        <ele>566.35000000000002</ele>
        <time>2025-04-29T11:40:24Z</time>
      </trkpt>
      <trkpt lat="43.323345026001334" lon="-5.580523023381829">
        <ele>566.35000000000002</ele>
        <time>2025-04-29T11:40:25Z</time>
      </trkpt>
      <trkpt lat="43.323333039879799" lon="-5.580421015620232">
        <ele>565.87</ele>
        <time>2025-04-29T11:40:26Z</time>
      </trkpt>
      <trkpt lat="43.323318958282471" lon="-5.580367958173156">
        <ele>565.87</ele>
        <time>2025-04-29T11:40:27Z</time>
      </trkpt>
      <trkpt lat="43.323242012411356" lon="-5.580299980938435">
        <ele>565.87</ele>
        <time>2025-04-29T11:40:28Z</time>
      </trkpt>
      <trkpt lat="43.323169006034732" lon="-5.580236027017236">
        <ele>565.87</ele>
        <time>2025-04-29T11:40:29Z</time>
      </trkpt>
      <trkpt lat="43.323088036850095" lon="-5.580164026468992">
        <ele>565.87</ele>
        <time>2025-04-29T11:40:30Z</time>
      </trkpt>
      <trkpt lat="43.323010001331568" lon="-5.580094959586859">
        <ele>565.87</ele>
        <time>2025-04-29T11:40:31Z</time>
      </trkpt>
      <trkpt lat="43.322936994954944" lon="-5.579982977360487">
        <ele>565.38999999999999</ele>
        <time>2025-04-29T11:40:32Z</time>
      </trkpt>
      <trkpt lat="43.322912016883492" lon="-5.579870995134115">
        <ele>565.38999999999999</ele>
        <time>2025-04-29T11:40:33Z</time>
      </trkpt>
      <trkpt lat="43.322912016883492" lon="-5.579768987372518">
        <ele>565.38999999999999</ele>
        <time>2025-04-29T11:40:34Z</time>
      </trkpt>
      <trkpt lat="43.322912016883492" lon="-5.579661028459668">
        <ele>565.38999999999999</ele>
        <time>2025-04-29T11:40:35Z</time>
      </trkpt>
      <trkpt lat="43.322912016883492" lon="-5.579544017091394">
        <ele>565.38999999999999</ele>
        <time>2025-04-29T11:40:36Z</time>
      </trkpt>
      <trkpt lat="43.322753012180328" lon="-5.578877991065383">
        <ele>565.38999999999999</ele>
        <time>2025-04-29T11:40:41Z</time>
      </trkpt>
      <trkpt lat="43.322705989703536" lon="-5.578740024939179">
        <ele>565.38999999999999</ele>
        <time>2025-04-29T11:40:42Z</time>
      </trkpt>
      <trkpt lat="43.32262703217566" lon="-5.578622007742524">
        <ele>565.38999999999999</ele>
        <time>2025-04-29T11:40:43Z</time>
      </trkpt>
      <trkpt lat="43.322547990828753" lon="-5.578502984717488">
        <ele>565.38999999999999</ele>
        <time>2025-04-29T11:40:44Z</time>
      </trkpt>
      <trkpt lat="43.322453023865819" lon="-5.578400976955891">
        <ele>565.87</ele>
        <time>2025-04-29T11:40:45Z</time>
      </trkpt>
      <trkpt lat="43.322357973083854" lon="-5.57833400554955">
        <ele>566.35000000000002</ele>
        <time>2025-04-29T11:40:46Z</time>
      </trkpt>
      <trkpt lat="43.322271974757314" lon="-5.578272985294461">
        <ele>566.35000000000002</ele>
        <time>2025-04-29T11:40:47Z</time>
      </trkpt>
      <trkpt lat="43.32219896838069" lon="-5.578222023323178">
        <ele>566.83000000000004</ele>
        <time>2025-04-29T11:40:48Z</time>
      </trkpt>
      <trkpt lat="43.322142977267504" lon="-5.57818204164505">
        <ele>566.83000000000004</ele>
        <time>2025-04-29T11:40:49Z</time>
      </trkpt>
      <trkpt lat="43.322096038609743" lon="-5.578197967261076">
        <ele>567.32000000000005</ele>
        <time>2025-04-29T11:40:50Z</time>
      </trkpt>
      <trkpt lat="43.322038035839796" lon="-5.578223029151559">
        <ele>567.32000000000005</ele>
        <time>2025-04-29T11:40:51Z</time>
      </trkpt>
      <trkpt lat="43.321980033069849" lon="-5.578263010829687">
        <ele>567.32000000000005</ele>
        <time>2025-04-29T11:40:52Z</time>
      </trkpt>
      <trkpt lat="43.321937033906579" lon="-5.578358983621001">
        <ele>567.32000000000005</ele>
        <time>2025-04-29T11:40:53Z</time>
      </trkpt>
      <trkpt lat="43.321881964802742" lon="-5.578480018302798">
        <ele>566.83000000000004</ele>
        <time>2025-04-29T11:40:54Z</time>
      </trkpt>
      <trkpt lat="43.321858998388052" lon="-5.578595018014312">
        <ele>566.35000000000002</ele>
        <time>2025-04-29T11:40:55Z</time>
      </trkpt>
      <trkpt lat="43.321829997003078" lon="-5.57874103076756">
        <ele>565.38999999999999</ele>
        <time>2025-04-29T11:40:56Z</time>
      </trkpt>
      <trkpt lat="43.321745004504919" lon="-5.579165993258357">
        <ele>562.50999999999999</ele>
        <time>2025-04-29T11:40:59Z</time>
      </trkpt>
      <trkpt lat="43.321698987856507" lon="-5.579263977706432">
        <ele>561.54999999999995</ele>
        <time>2025-04-29T11:41:00Z</time>
      </trkpt>
      <trkpt lat="43.321666968986392" lon="-5.579294990748167">
        <ele>561.07000000000005</ele>
        <time>2025-04-29T11:41:01Z</time>
      </trkpt>
      <trkpt lat="43.321566972881556" lon="-5.579289961606264">
        <ele>560.59000000000003</ele>
        <time>2025-04-29T11:41:02Z</time>
      </trkpt>
      <trkpt lat="43.321491032838821" lon="-5.579286022111774">
        <ele>560.59000000000003</ele>
        <time>2025-04-29T11:41:03Z</time>
      </trkpt>
      <trkpt lat="43.321410985663533" lon="-5.579280992969871">
        <ele>560.59000000000003</ele>
        <time>2025-04-29T11:41:04Z</time>
      </trkpt>
      <trkpt lat="43.321333033964038" lon="-5.579276969656348">
        <ele>560.59000000000003</ele>
        <time>2025-04-29T11:41:05Z</time>
      </trkpt>
      <trkpt lat="43.321241000667214" lon="-5.579314017668366">
        <ele>560.59000000000003</ele>
        <time>2025-04-29T11:41:06Z</time>
      </trkpt>
      <trkpt lat="43.321181992068887" lon="-5.579372020438314">
        <ele>561.07000000000005</ele>
        <time>2025-04-29T11:41:07Z</time>
      </trkpt>
      <trkpt lat="43.321131030097604" lon="-5.579423988237977">
        <ele>561.07000000000005</ele>
        <time>2025-04-29T11:41:08Z</time>
      </trkpt>
      <trkpt lat="43.321075960993767" lon="-5.579543011263013">
        <ele>561.07000000000005</ele>
        <time>2025-04-29T11:41:09Z</time>
      </trkpt>
      <trkpt lat="43.321024999022484" lon="-5.579652981832624">
        <ele>560.59000000000003</ele>
        <time>2025-04-29T11:41:10Z</time>
      </trkpt>
      <trkpt lat="43.32097202539444" lon="-5.579766975715756">
        <ele>560.11000000000001</ele>
        <time>2025-04-29T11:41:11Z</time>
      </trkpt>
      <trkpt lat="43.320918967947364" lon="-5.57988197542727">
        <ele>559.62</ele>
        <time>2025-04-29T11:41:12Z</time>
      </trkpt>
      <trkpt lat="43.320871023461223" lon="-5.58000803925097">
        <ele>559.13999999999999</ele>
        <time>2025-04-29T11:41:13Z</time>
      </trkpt>
      <trkpt lat="43.320855014026165" lon="-5.580152040347457">
        <ele>558.17999999999995</ele>
        <time>2025-04-29T11:41:14Z</time>
      </trkpt>
      <trkpt lat="43.320837998762727" lon="-5.580306015908718">
        <ele>557.70000000000005</ele>
        <time>2025-04-29T11:41:15Z</time>
      </trkpt>
      <trkpt lat="43.320790976285934" lon="-5.580742964521051">
        <ele>555.77999999999997</ele>
        <time>2025-04-29T11:41:18Z</time>
      </trkpt>
      <trkpt lat="43.320741020143032" lon="-5.580850001424551">
        <ele>555.29999999999995</ele>
        <time>2025-04-29T11:41:19Z</time>
      </trkpt>
      <trkpt lat="43.320687962695956" lon="-5.58093398809433">
        <ele>554.82000000000005</ele>
        <time>2025-04-29T11:41:20Z</time>
      </trkpt>
      <trkpt lat="43.320620991289616" lon="-5.580978998914361">
        <ele>554.34000000000003</ele>
        <time>2025-04-29T11:41:21Z</time>
      </trkpt>
      <trkpt lat="43.32054496742785" lon="-5.581018980592489">
        <ele>554.34000000000003</ele>
        <time>2025-04-29T11:41:22Z</time>
      </trkpt>
      <trkpt lat="43.320401972159743" lon="-5.581095004454255">
        <ele>555.29999999999995</ele>
        <time>2025-04-29T11:41:24Z</time>
      </trkpt>
      <trkpt lat="43.320314968004823" lon="-5.581141021102667">
        <ele>555.29999999999995</ele>
        <time>2025-04-29T11:41:25Z</time>
      </trkpt>
      <trkpt lat="43.319637961685658" lon="-5.581123000010848">
        <ele>550.49000000000001</ele>
        <time>2025-04-29T11:41:32Z</time>
      </trkpt>
      <trkpt lat="43.319434029981494" lon="-5.581163987517357">
        <ele>548.57000000000005</ele>
        <time>2025-04-29T11:41:34Z</time>
      </trkpt>
      <trkpt lat="43.319353982806206" lon="-5.581240011379123">
        <ele>547.61000000000001</ele>
        <time>2025-04-29T11:41:35Z</time>
      </trkpt>
      <trkpt lat="43.319269996136427" lon="-5.581318968906999">
        <ele>547.13</ele>
        <time>2025-04-29T11:41:36Z</time>
      </trkpt>
      <trkpt lat="43.319181986153126" lon="-5.581401027739048">
        <ele>546.16999999999996</ele>
        <time>2025-04-29T11:41:37Z</time>
      </trkpt>
      <trkpt lat="43.319090036675334" lon="-5.581487026065588">
        <ele>545.69000000000005</ele>
        <time>2025-04-29T11:41:38Z</time>
      </trkpt>
      <trkpt lat="43.318774960935116" lon="-5.581779973581433">
        <ele>543.75999999999999</ele>
        <time>2025-04-29T11:41:42Z</time>
      </trkpt>
      <trkpt lat="43.318650992587209" lon="-5.581804029643536">
        <ele>543.27999999999997</ele>
        <time>2025-04-29T11:41:44Z</time>
      </trkpt>
      <trkpt lat="43.318593995645642" lon="-5.58181400410831">
        <ele>542.79999999999995</ele>
        <time>2025-04-29T11:41:45Z</time>
      </trkpt>
      <trkpt lat="43.318543033674359" lon="-5.581821966916323">
        <ele>542.79999999999995</ele>
        <time>2025-04-29T11:41:46Z</time>
      </trkpt>
      <trkpt lat="43.318506991490722" lon="-5.581828001886606">
        <ele>542.79999999999995</ele>
        <time>2025-04-29T11:41:47Z</time>
      </trkpt>
      <trkpt lat="43.318476984277368" lon="-5.581833031028509">
        <ele>542.79999999999995</ele>
        <time>2025-04-29T11:41:48Z</time>
      </trkpt>
      <trkpt lat="43.318447982892394" lon="-5.58183797635138">
        <ele>542.79999999999995</ele>
        <time>2025-04-29T11:41:49Z</time>
      </trkpt>
      <trkpt lat="43.318427028134465" lon="-5.581841999664903">
        <ele>543.27999999999997</ele>
        <time>2025-04-29T11:41:50Z</time>
      </trkpt>
      <trkpt lat="43.318427028134465" lon="-5.581841999664903">
        <ele>543.27999999999997</ele>
        <time>2025-04-29T11:42:01Z</time>
      </trkpt>
      <trkpt lat="43.318427028134465" lon="-5.581841999664903">
        <ele>543.75999999999999</ele>
        <time>2025-04-29T11:43:02Z</time>
      </trkpt>
      <trkpt lat="43.318319991230965" lon="-5.582063030451536">
        <ele>545.20000000000005</ele>
        <time>2025-04-29T11:43:38Z</time>
      </trkpt>
      <trkpt lat="43.318384028971195" lon="-5.581849040463567">
        <ele>545.20000000000005</ele>
        <time>2025-04-29T11:43:39Z</time>
      </trkpt>
      <trkpt lat="43.318409007042646" lon="-5.58179397135973">
        <ele>545.20000000000005</ele>
        <time>2025-04-29T11:43:40Z</time>
      </trkpt>
      <trkpt lat="43.318442031741142" lon="-5.581719959154725">
        <ele>545.20000000000005</ele>
        <time>2025-04-29T11:43:41Z</time>
      </trkpt>
      <trkpt lat="43.318484025076032" lon="-5.581624992191792">
        <ele>545.20000000000005</ele>
        <time>2025-04-29T11:43:42Z</time>
      </trkpt>
      <trkpt lat="43.318530963733792" lon="-5.581517033278942">
        <ele>544.72000000000003</ele>
        <time>2025-04-29T11:43:43Z</time>
      </trkpt>
      <trkpt lat="43.318562982603908" lon="-5.581386024132371">
        <ele>544.24000000000001</ele>
        <time>2025-04-29T11:43:44Z</time>
      </trkpt>
      <trkpt lat="43.318576980382204" lon="-5.581244034692645">
        <ele>543.75999999999999</ele>
        <time>2025-04-29T11:43:45Z</time>
      </trkpt>
      <trkpt lat="43.318590978160501" lon="-5.581092992797494">
        <ele>542.79999999999995</ele>
        <time>2025-04-29T11:43:46Z</time>
      </trkpt>
      <trkpt lat="43.318604975938797" lon="-5.580937005579472">
        <ele>542.32000000000005</ele>
        <time>2025-04-29T11:43:47Z</time>
      </trkpt>
      <trkpt lat="43.318631965667009" lon="-5.580644980072975">
        <ele>540.88</ele>
        <time>2025-04-29T11:43:49Z</time>
      </trkpt>
      <trkpt lat="43.318642023950815" lon="-5.580540038645268">
        <ele>540.39999999999998</ele>
        <time>2025-04-29T11:43:50Z</time>
      </trkpt>
      <trkpt lat="43.318725004792213" lon="-5.58048203587532">
        <ele>539.91999999999996</ele>
        <time>2025-04-29T11:43:51Z</time>
      </trkpt>
      <trkpt lat="43.318805973976851" lon="-5.580425960943103">
        <ele>538.96000000000004</ele>
        <time>2025-04-29T11:43:52Z</time>
      </trkpt>
      <trkpt lat="43.318920973688364" lon="-5.580347003415227">
        <ele>538.48000000000002</ele>
        <time>2025-04-29T11:43:53Z</time>
      </trkpt>
      <trkpt lat="43.318994985893369" lon="-5.580339040607214">
        <ele>537.50999999999999</ele>
        <time>2025-04-29T11:43:54Z</time>
      </trkpt>
      <trkpt lat="43.31910403445363" lon="-5.580325964838266">
        <ele>536.54999999999995</ele>
        <time>2025-04-29T11:43:55Z</time>
      </trkpt>
      <trkpt lat="43.319209981709719" lon="-5.580314984545112">
        <ele>535.11000000000001</ele>
        <time>2025-04-29T11:43:56Z</time>
      </trkpt>
      <trkpt lat="43.319308971986175" lon="-5.580301992595196">
        <ele>533.66999999999996</ele>
        <time>2025-04-29T11:43:57Z</time>
      </trkpt>
      <trkpt lat="43.319399999454618" lon="-5.580214988440275">
        <ele>532.23000000000002</ele>
        <time>2025-04-29T11:43:58Z</time>
      </trkpt>
      <trkpt lat="43.319494966417551" lon="-5.580124966800213">
        <ele>530.78999999999996</ele>
        <time>2025-04-29T11:43:59Z</time>
      </trkpt>
      <trkpt lat="43.319592028856277" lon="-5.580032011494041">
        <ele>529.82000000000005</ele>
        <time>2025-04-29T11:44:00Z</time>
      </trkpt>
      <trkpt lat="43.31968598999083" lon="-5.579941989853978">
        <ele>527.89999999999998</ele>
        <time>2025-04-29T11:44:01Z</time>
      </trkpt>
      <trkpt lat="43.319756984710693" lon="-5.579875018447638">
        <ele>525.98000000000002</ele>
        <time>2025-04-29T11:44:02Z</time>
      </trkpt>
      <trkpt lat="43.319807024672627" lon="-5.579744009301066">
        <ele>524.53999999999996</ele>
        <time>2025-04-29T11:44:03Z</time>
      </trkpt>
      <trkpt lat="43.319810964167118" lon="-5.579626997932792">
        <ele>523.09000000000003</ele>
        <time>2025-04-29T11:44:04Z</time>
      </trkpt>
      <trkpt lat="43.31979101523757" lon="-5.579493977129459">
        <ele>522.13</ele>
        <time>2025-04-29T11:44:05Z</time>
      </trkpt>
      <trkpt lat="43.31977098248899" lon="-5.579359028488398">
        <ele>520.69000000000005</ele>
        <time>2025-04-29T11:44:06Z</time>
      </trkpt>
      <trkpt lat="43.319752039387822" lon="-5.579232964664698">
        <ele>519.73000000000002</ele>
        <time>2025-04-29T11:44:07Z</time>
      </trkpt>
      <trkpt lat="43.319737035781145" lon="-5.579129029065371">
        <ele>519.25</ele>
        <time>2025-04-29T11:44:08Z</time>
      </trkpt>
      <trkpt lat="43.319787997752428" lon="-5.579050993546844">
        <ele>518.28999999999996</ele>
        <time>2025-04-29T11:44:09Z</time>
      </trkpt>
      <trkpt lat="43.319844994693995" lon="-5.578972036018968">
        <ele>517.33000000000004</ele>
        <time>2025-04-29T11:44:10Z</time>
      </trkpt>
      <trkpt lat="43.319910960271955" lon="-5.578881008550525">
        <ele>516.37</ele>
        <time>2025-04-29T11:44:11Z</time>
      </trkpt>
      <trkpt lat="43.320053033530712" lon="-5.578653020784259">
        <ele>513.96000000000004</ele>
        <time>2025-04-29T11:44:13Z</time>
      </trkpt>
      <trkpt lat="43.320117993280292" lon="-5.57850600220263">
        <ele>513</ele>
        <time>2025-04-29T11:44:14Z</time>
      </trkpt>
      <trkpt lat="43.320370959118009" lon="-5.577859003096819">
        <ele>507.70999999999998</ele>
        <time>2025-04-29T11:44:18Z</time>
      </trkpt>
      <trkpt lat="43.320395015180111" lon="-5.57766797952354">
        <ele>506.26999999999998</ele>
        <time>2025-04-29T11:44:19Z</time>
      </trkpt>
      <trkpt lat="43.320488976314664" lon="-5.576858958229423">
        <ele>500.5</ele>
        <time>2025-04-29T11:44:23Z</time>
      </trkpt>
      <trkpt lat="43.320505991578102" lon="-5.57646500878036">
        <ele>497.62</ele>
        <time>2025-04-29T11:44:25Z</time>
      </trkpt>
      <trkpt lat="43.32054496742785" lon="-5.576296029612422">
        <ele>496.18000000000001</ele>
        <time>2025-04-29T11:44:26Z</time>
      </trkpt>
      <trkpt lat="43.3205889724195" lon="-5.576148005202413">
        <ele>494.74000000000001</ele>
        <time>2025-04-29T11:44:27Z</time>
      </trkpt>
      <trkpt lat="43.320637000724673" lon="-5.576024958863854">
        <ele>493.29000000000002</ele>
        <time>2025-04-29T11:44:28Z</time>
      </trkpt>
      <trkpt lat="43.320702966302633" lon="-5.575934015214443">
        <ele>491.85000000000002</ele>
        <time>2025-04-29T11:44:29Z</time>
      </trkpt>
      <trkpt lat="43.320768009871244" lon="-5.575843993574381">
        <ele>490.41000000000003</ele>
        <time>2025-04-29T11:44:30Z</time>
      </trkpt>
      <trkpt lat="43.320905975997448" lon="-5.575663028284907">
        <ele>488.00999999999999</ele>
        <time>2025-04-29T11:44:32Z</time>
      </trkpt>
      <trkpt lat="43.321001026779413" lon="-5.575612988322973">
        <ele>486.56</ele>
        <time>2025-04-29T11:44:33Z</time>
      </trkpt>
      <trkpt lat="43.321105968207121" lon="-5.575556997209787">
        <ele>485.60000000000002</ele>
        <time>2025-04-29T11:44:34Z</time>
      </trkpt>
      <trkpt lat="43.321220967918634" lon="-5.575495976954699">
        <ele>484.16000000000003</ele>
        <time>2025-04-29T11:44:35Z</time>
      </trkpt>
      <trkpt lat="43.321326998993754" lon="-5.575408972799778">
        <ele>483.19999999999999</ele>
        <time>2025-04-29T11:44:36Z</time>
      </trkpt>
      <trkpt lat="43.321432024240494" lon="-5.57530403137207">
        <ele>481.75999999999999</ele>
        <time>2025-04-29T11:44:37Z</time>
      </trkpt>
      <trkpt lat="43.321519028395414" lon="-5.575160030275583">
        <ele>480.80000000000001</ele>
        <time>2025-04-29T11:44:38Z</time>
      </trkpt>
      <trkpt lat="43.321605026721954" lon="-5.575018962845206">
        <ele>479.35000000000002</ele>
        <time>2025-04-29T11:44:39Z</time>
      </trkpt>
      <trkpt lat="43.321680966764688" lon="-5.574893988668919">
        <ele>477.91000000000003</ele>
        <time>2025-04-29T11:44:40Z</time>
      </trkpt>
      <trkpt lat="43.321765037253499" lon="-5.574797010049224">
        <ele>476.94999999999999</ele>
        <time>2025-04-29T11:44:41Z</time>
      </trkpt>
      <trkpt lat="43.321867967024446" lon="-5.574754010885954">
        <ele>475.99000000000001</ele>
        <time>2025-04-29T11:44:42Z</time>
      </trkpt>
      <trkpt lat="43.321970980614424" lon="-5.574711011722684">
        <ele>475.50999999999999</ele>
        <time>2025-04-29T11:44:43Z</time>
      </trkpt>
      <trkpt lat="43.322077011689544" lon="-5.574702965095639">
        <ele>474.55000000000001</ele>
        <time>2025-04-29T11:44:44Z</time>
      </trkpt>
      <trkpt lat="43.322180025279522" lon="-5.574702965095639">
        <ele>473.58999999999997</ele>
        <time>2025-04-29T11:44:45Z</time>
      </trkpt>
      <trkpt lat="43.322273986414075" lon="-5.574702965095639">
        <ele>473.11000000000001</ele>
        <time>2025-04-29T11:44:46Z</time>
      </trkpt>
      <trkpt lat="43.322341041639447" lon="-5.574672035872936">
        <ele>472.13999999999999</ele>
        <time>2025-04-29T11:44:47Z</time>
      </trkpt>
      <trkpt lat="43.322397032752633" lon="-5.57463901117444">
        <ele>471.18000000000001</ele>
        <time>2025-04-29T11:44:48Z</time>
      </trkpt>
      <trkpt lat="43.322407007217407" lon="-5.574538009241223">
        <ele>470.22000000000003</ele>
        <time>2025-04-29T11:44:49Z</time>
      </trkpt>
      <trkpt lat="43.32241497002542" lon="-5.574458967894316">
        <ele>468.77999999999997</ele>
        <time>2025-04-29T11:44:50Z</time>
      </trkpt>
      <trkpt lat="43.322398038581014" lon="-5.574398031458259">
        <ele>467.81999999999999</ele>
        <time>2025-04-29T11:44:51Z</time>
      </trkpt>
      <trkpt lat="43.322354033589363" lon="-5.574339022859931">
        <ele>466.86000000000001</ele>
        <time>2025-04-29T11:44:52Z</time>
      </trkpt>
      <trkpt lat="43.322283960878849" lon="-5.574328964576125">
        <ele>465.89999999999998</ele>
        <time>2025-04-29T11:44:53Z</time>
      </trkpt>
      <trkpt lat="43.322188993915915" lon="-5.57431697845459">
        <ele>464.44999999999999</ele>
        <time>2025-04-29T11:44:54Z</time>
      </trkpt>
      <trkpt lat="43.322079023346305" lon="-5.574301974847913">
        <ele>463.00999999999999</ele>
        <time>2025-04-29T11:44:55Z</time>
      </trkpt>
      <trkpt lat="43.321955977007747" lon="-5.574255036190152">
        <ele>461.56999999999999</ele>
        <time>2025-04-29T11:44:56Z</time>
      </trkpt>
      <trkpt lat="43.32185497507453" lon="-5.574201978743076">
        <ele>460.61000000000001</ele>
        <time>2025-04-29T11:44:57Z</time>
      </trkpt>
      <trkpt lat="43.321761013939977" lon="-5.574152022600174">
        <ele>460.13</ele>
        <time>2025-04-29T11:44:58Z</time>
      </trkpt>
      <trkpt lat="43.321666968986392" lon="-5.57410198263824">
        <ele>460.13</ele>
        <time>2025-04-29T11:44:59Z</time>
      </trkpt>
      <trkpt lat="43.321610977873206" lon="-5.574137018993497">
        <ele>459.64999999999998</ele>
        <time>2025-04-29T11:45:00Z</time>
      </trkpt>
      <trkpt lat="43.321525985375047" lon="-5.57418898679316">
        <ele>459.17000000000002</ele>
        <time>2025-04-29T11:45:01Z</time>
      </trkpt>
      <trkpt lat="43.321435041725636" lon="-5.574244977906346">
        <ele>458.69</ele>
        <time>2025-04-29T11:45:02Z</time>
      </trkpt>
      <trkpt lat="43.321222979575396" lon="-5.574375987052918">
        <ele>456.75999999999999</ele>
        <time>2025-04-29T11:45:04Z</time>
      </trkpt>
      <trkpt lat="43.321108985692263" lon="-5.5744459759444">
        <ele>455.80000000000001</ele>
        <time>2025-04-29T11:45:05Z</time>
      </trkpt>
      <trkpt lat="43.320999015122652" lon="-5.574472965672612">
        <ele>454.83999999999997</ele>
        <time>2025-04-29T11:45:06Z</time>
      </trkpt>
      <trkpt lat="43.320879992097616" lon="-5.574470032006502">
        <ele>452.92000000000002</ele>
        <time>2025-04-29T11:45:07Z</time>
      </trkpt>
      <trkpt lat="43.320772033184767" lon="-5.574434995651245">
        <ele>451.95999999999998</ele>
        <time>2025-04-29T11:45:08Z</time>
      </trkpt>
      <trkpt lat="43.320663990452886" lon="-5.574399037286639">
        <ele>450.51999999999998</ele>
        <time>2025-04-29T11:45:09Z</time>
      </trkpt>
      <trkpt lat="43.320341035723686" lon="-5.5742940120399">
        <ele>447.14999999999998</ele>
        <time>2025-04-29T11:45:12Z</time>
      </trkpt>
      <trkpt lat="43.32024103961885" lon="-5.574260987341404">
        <ele>446.19</ele>
        <time>2025-04-29T11:45:13Z</time>
      </trkpt>
      <trkpt lat="43.319976003840566" lon="-5.574174989014864">
        <ele>443.79000000000002</ele>
        <time>2025-04-29T11:45:16Z</time>
      </trkpt>
      <trkpt lat="43.319887993857265" lon="-5.57414598762989">
        <ele>442.81999999999999</ele>
        <time>2025-04-29T11:45:17Z</time>
      </trkpt>
      <trkpt lat="43.319781962782145" lon="-5.574131989851594">
        <ele>442.33999999999997</ele>
        <time>2025-04-29T11:45:18Z</time>
      </trkpt>
      <trkpt lat="43.319581970572472" lon="-5.57414498180151">
        <ele>440.89999999999998</ele>
        <time>2025-04-29T11:45:20Z</time>
      </trkpt>
      <trkpt lat="43.31949102692306" lon="-5.574126960709691">
        <ele>439.94</ele>
        <time>2025-04-29T11:45:21Z</time>
      </trkpt>
      <trkpt lat="43.319401005282998" lon="-5.574071975424886">
        <ele>439.45999999999998</ele>
        <time>2025-04-29T11:45:22Z</time>
      </trkpt>
      <trkpt lat="43.31921199336648" lon="-5.573955969884992">
        <ele>438.98000000000002</ele>
        <time>2025-04-29T11:45:24Z</time>
      </trkpt>
      <trkpt lat="43.318210020661354" lon="-5.573575012385845">
        <ele>431.76999999999998</ele>
        <time>2025-04-29T11:45:33Z</time>
      </trkpt>
      <trkpt lat="43.318041041493416" lon="-5.573545005172491">
        <ele>429.37</ele>
        <time>2025-04-29T11:45:35Z</time>
      </trkpt>
      <trkpt lat="43.317923024296761" lon="-5.573583981022239">
        <ele>428.39999999999998</ele>
        <time>2025-04-29T11:45:36Z</time>
      </trkpt>
      <trkpt lat="43.317830990999937" lon="-5.573623040691018">
        <ele>426.95999999999998</ele>
        <time>2025-04-29T11:45:37Z</time>
      </trkpt>
      <trkpt lat="43.317755972966552" lon="-5.573691017925739">
        <ele>426</ele>
        <time>2025-04-29T11:45:38Z</time>
      </trkpt>
      <trkpt lat="43.317677015438676" lon="-5.573761006817222">
        <ele>424.56</ele>
        <time>2025-04-29T11:45:39Z</time>
      </trkpt>
      <trkpt lat="43.317609038203955" lon="-5.573887992650271">
        <ele>423.12</ele>
        <time>2025-04-29T11:45:40Z</time>
      </trkpt>
      <trkpt lat="43.317550029605627" lon="-5.574028976261616">
        <ele>421.68000000000001</ele>
        <time>2025-04-29T11:45:41Z</time>
      </trkpt>
      <trkpt lat="43.317310977727175" lon="-5.57459601201117">
        <ele>416.38999999999999</ele>
        <time>2025-04-29T11:45:45Z</time>
      </trkpt>
      <trkpt lat="43.31732296384871" lon="-5.574772031977773">
        <ele>415.43000000000001</ele>
        <time>2025-04-29T11:45:46Z</time>
      </trkpt>
      <trkpt lat="43.317334027960896" lon="-5.574920978397131">
        <ele>414.47000000000003</ele>
        <time>2025-04-29T11:45:47Z</time>
      </trkpt>
      <trkpt lat="43.317397981882095" lon="-5.575046958401799">
        <ele>413.5</ele>
        <time>2025-04-29T11:45:48Z</time>
      </trkpt>
      <trkpt lat="43.317465037107468" lon="-5.575181990861893">
        <ele>412.06</ele>
        <time>2025-04-29T11:45:49Z</time>
      </trkpt>
      <trkpt lat="43.317527985200286" lon="-5.575308976694942">
        <ele>410.62</ele>
        <time>2025-04-29T11:45:50Z</time>
      </trkpt>
      <trkpt lat="43.317630998790264" lon="-5.575594967231154">
        <ele>406.29000000000002</ele>
        <time>2025-04-29T11:45:53Z</time>
      </trkpt>
      <trkpt lat="43.317620018497109" lon="-5.575630003586412">
        <ele>404.37</ele>
        <time>2025-04-29T11:45:54Z</time>
      </trkpt>
      <trkpt lat="43.317599985748529" lon="-5.57567099109292">
        <ele>402.44999999999999</ele>
        <time>2025-04-29T11:45:55Z</time>
      </trkpt>
      <trkpt lat="43.317580036818981" lon="-5.575710972771049">
        <ele>400.52999999999997</ele>
        <time>2025-04-29T11:45:56Z</time>
      </trkpt>
      <trkpt lat="43.317568972706795" lon="-5.57573301717639">
        <ele>399.07999999999998</ele>
        <time>2025-04-29T11:45:57Z</time>
      </trkpt>
      <trkpt lat="43.317533014342189" lon="-5.57573301717639">
        <ele>397.63999999999999</ele>
        <time>2025-04-29T11:45:58Z</time>
      </trkpt>
      <trkpt lat="43.317484986037016" lon="-5.57573301717639">
        <ele>396.68000000000001</ele>
        <time>2025-04-29T11:45:59Z</time>
      </trkpt>
      <trkpt lat="43.317393958568573" lon="-5.575807029381394">
        <ele>395.24000000000001</ele>
        <time>2025-04-29T11:46:00Z</time>
      </trkpt>
      <trkpt lat="43.317365041002631" lon="-5.575893027707934">
        <ele>394.27999999999997</ele>
        <time>2025-04-29T11:46:01Z</time>
      </trkpt>
      <trkpt lat="43.317335033789277" lon="-5.575982965528965">
        <ele>393.80000000000001</ele>
        <time>2025-04-29T11:46:02Z</time>
      </trkpt>
      <trkpt lat="43.317304020747542" lon="-5.57607701048255">
        <ele>393.80000000000001</ele>
        <time>2025-04-29T11:46:03Z</time>
      </trkpt>
      <trkpt lat="43.317268984392285" lon="-5.576171977445483">
        <ele>393.80000000000001</ele>
        <time>2025-04-29T11:46:04Z</time>
      </trkpt>
      <trkpt lat="43.31723403185606" lon="-5.576259987428784">
        <ele>393.31999999999999</ele>
        <time>2025-04-29T11:46:05Z</time>
      </trkpt>
      <trkpt lat="43.317196983844042" lon="-5.576337017118931">
        <ele>393.31999999999999</ele>
        <time>2025-04-29T11:46:06Z</time>
      </trkpt>
      <trkpt lat="43.317114003002644" lon="-5.576374987140298">
        <ele>393.31999999999999</ele>
        <time>2025-04-29T11:46:07Z</time>
      </trkpt>
      <trkpt lat="43.317026998847723" lon="-5.576415974646807">
        <ele>394.27999999999997</ele>
        <time>2025-04-29T11:46:08Z</time>
      </trkpt>
      <trkpt lat="43.316946029663086" lon="-5.576453022658825">
        <ele>394.75999999999999</ele>
        <time>2025-04-29T11:46:09Z</time>
      </trkpt>
      <trkpt lat="43.3168900385499" lon="-5.576520999893546">
        <ele>395.72000000000003</ele>
        <time>2025-04-29T11:46:10Z</time>
      </trkpt>
      <trkpt lat="43.316847961395979" lon="-5.576628036797047">
        <ele>396.19999999999999</ele>
        <time>2025-04-29T11:46:11Z</time>
      </trkpt>
      <trkpt lat="43.316818960011005" lon="-5.576758040115237">
        <ele>397.16000000000003</ele>
        <time>2025-04-29T11:46:12Z</time>
      </trkpt>
      <trkpt lat="43.316789958626032" lon="-5.576888965442777">
        <ele>397.63999999999999</ele>
        <time>2025-04-29T11:46:13Z</time>
      </trkpt>
      <trkpt lat="43.316754000261426" lon="-5.57700396515429">
        <ele>399.07999999999998</ele>
        <time>2025-04-29T11:46:14Z</time>
      </trkpt>
      <trkpt lat="43.316709995269775" lon="-5.577102033421397">
        <ele>400.05000000000001</ele>
        <time>2025-04-29T11:46:15Z</time>
      </trkpt>
      <trkpt lat="43.316617961972952" lon="-5.577148972079158">
        <ele>400.52999999999997</ele>
        <time>2025-04-29T11:46:16Z</time>
      </trkpt>
      <trkpt lat="43.316496005281806" lon="-5.577148972079158">
        <ele>401.49000000000001</ele>
        <time>2025-04-29T11:46:17Z</time>
      </trkpt>
      <trkpt lat="43.316416963934898" lon="-5.577103039249778">
        <ele>401.49000000000001</ele>
        <time>2025-04-29T11:46:18Z</time>
      </trkpt>
      <trkpt lat="43.316314034163952" lon="-5.577042018994689">
        <ele>401.97000000000003</ele>
        <time>2025-04-29T11:46:19Z</time>
      </trkpt>
      <trkpt lat="43.316208003088832" lon="-5.57697999291122">
        <ele>401.97000000000003</ele>
        <time>2025-04-29T11:46:20Z</time>
      </trkpt>
      <trkpt lat="43.316130973398685" lon="-5.576934982091188">
        <ele>402.93000000000001</ele>
        <time>2025-04-29T11:46:21Z</time>
      </trkpt>
      <trkpt lat="43.316024020314217" lon="-5.576977981254458">
        <ele>402.93000000000001</ele>
        <time>2025-04-29T11:46:22Z</time>
      </trkpt>
      <trkpt lat="43.315973980352283" lon="-5.577031038701534">
        <ele>403.88999999999999</ele>
        <time>2025-04-29T11:46:23Z</time>
      </trkpt>
      <trkpt lat="43.315878007560968" lon="-5.577132040634751">
        <ele>404.37</ele>
        <time>2025-04-29T11:46:24Z</time>
      </trkpt>
      <trkpt lat="43.315765019506216" lon="-5.577251985669136">
        <ele>405.32999999999998</ele>
        <time>2025-04-29T11:46:25Z</time>
      </trkpt>
      <trkpt lat="43.315640967339277" lon="-5.577381988987327">
        <ele>405.81</ele>
        <time>2025-04-29T11:46:26Z</time>
      </trkpt>
      <trkpt lat="43.31551599316299" lon="-5.577515009790659">
        <ele>406.76999999999998</ele>
        <time>2025-04-29T11:46:27Z</time>
      </trkpt>
      <trkpt lat="43.315394958481193" lon="-5.577643001452088">
        <ele>407.74000000000001</ele>
        <time>2025-04-29T11:46:28Z</time>
      </trkpt>
      <trkpt lat="43.315162025392056" lon="-5.57779798284173">
        <ele>409.18000000000001</ele>
        <time>2025-04-29T11:46:30Z</time>
      </trkpt>
      <trkpt lat="43.315038979053497" lon="-5.577826984226704">
        <ele>410.13999999999999</ele>
        <time>2025-04-29T11:46:31Z</time>
      </trkpt>
      <trkpt lat="43.314901012927294" lon="-5.577856991440058">
        <ele>411.10000000000002</ele>
        <time>2025-04-29T11:46:32Z</time>
      </trkpt>
      <trkpt lat="43.314543021842837" lon="-5.577814998105168">
        <ele>415.43000000000001</ele>
        <time>2025-04-29T11:46:35Z</time>
      </trkpt>
      <trkpt lat="43.314483007416129" lon="-5.577741991728544">
        <ele>416.87</ele>
        <time>2025-04-29T11:46:36Z</time>
      </trkpt>
      <trkpt lat="43.314435984939337" lon="-5.577683988958597">
        <ele>417.82999999999998</ele>
        <time>2025-04-29T11:46:37Z</time>
      </trkpt>
      <trkpt lat="43.31442198716104" lon="-5.577561026439071">
        <ele>419.26999999999998</ele>
        <time>2025-04-29T11:46:38Z</time>
      </trkpt>
      <trkpt lat="43.314405977725983" lon="-5.577411996200681">
        <ele>420.23000000000002</ele>
        <time>2025-04-29T11:46:39Z</time>
      </trkpt>
      <trkpt lat="43.314402038231492" lon="-5.577273024246097">
        <ele>421.19</ele>
        <time>2025-04-29T11:46:40Z</time>
      </trkpt>
      <trkpt lat="43.314456017687917" lon="-5.577111002057791">
        <ele>422.16000000000003</ele>
        <time>2025-04-29T11:46:41Z</time>
      </trkpt>
      <trkpt lat="43.314514020457864" lon="-5.57693699374795">
        <ele>423.60000000000002</ele>
        <time>2025-04-29T11:46:42Z</time>
      </trkpt>
      <trkpt lat="43.314584009349346" lon="-5.576767008751631">
        <ele>424.56</ele>
        <time>2025-04-29T11:46:43Z</time>
      </trkpt>
      <trkpt lat="43.314652992412448" lon="-5.576601969078183">
        <ele>425.51999999999998</ele>
        <time>2025-04-29T11:46:44Z</time>
      </trkpt>
      <trkpt lat="43.314713006839156" lon="-5.576461991295219">
        <ele>426.95999999999998</ele>
        <time>2025-04-29T11:46:45Z</time>
      </trkpt>
      <trkpt lat="43.314758017659187" lon="-5.576355960220099">
        <ele>427.92000000000002</ele>
        <time>2025-04-29T11:46:46Z</time>
      </trkpt>
      <trkpt lat="43.314745025709271" lon="-5.576183963567019">
        <ele>428.88999999999999</ele>
        <time>2025-04-29T11:46:47Z</time>
      </trkpt>
      <trkpt lat="43.314724992960691" lon="-5.576062006875873">
        <ele>429.37</ele>
        <time>2025-04-29T11:46:48Z</time>
      </trkpt>
      <trkpt lat="43.314660033211112" lon="-5.575973996892571">
        <ele>430.32999999999998</ele>
        <time>2025-04-29T11:46:49Z</time>
      </trkpt>
      <trkpt lat="43.314577974379063" lon="-5.575879029929638">
        <ele>431.29000000000002</ele>
        <time>2025-04-29T11:46:50Z</time>
      </trkpt>
      <trkpt lat="43.314478984102607" lon="-5.575791019946337">
        <ele>431.76999999999998</ele>
        <time>2025-04-29T11:46:51Z</time>
      </trkpt>
      <trkpt lat="43.314372031018138" lon="-5.575695969164372">
        <ele>432.73000000000002</ele>
        <time>2025-04-29T11:46:52Z</time>
      </trkpt>
      <trkpt lat="43.313741041347384" lon="-5.5751349683851">
        <ele>434.64999999999998</ele>
        <time>2025-04-29T11:46:58Z</time>
      </trkpt>
      <trkpt lat="43.313672980293632" lon="-5.575074031949043">
        <ele>434.64999999999998</ele>
        <time>2025-04-29T11:46:59Z</time>
      </trkpt>
      <trkpt lat="43.313641967251897" lon="-5.574977975338697">
        <ele>434.64999999999998</ele>
        <time>2025-04-29T11:47:00Z</time>
      </trkpt>
      <trkpt lat="43.313641967251897" lon="-5.574868004769087">
        <ele>434.64999999999998</ele>
        <time>2025-04-29T11:47:01Z</time>
      </trkpt>
      <trkpt lat="43.313641967251897" lon="-5.574744958430529">
        <ele>434.17000000000002</ele>
        <time>2025-04-29T11:47:02Z</time>
      </trkpt>
      <trkpt lat="43.313641967251897" lon="-5.574619984254241">
        <ele>433.69</ele>
        <time>2025-04-29T11:47:03Z</time>
      </trkpt>
      <trkpt lat="43.313630986958742" lon="-5.574492998421192">
        <ele>433.69</ele>
        <time>2025-04-29T11:47:04Z</time>
      </trkpt>
      <trkpt lat="43.313553035259247" lon="-5.574371963739395">
        <ele>433.20999999999998</ele>
        <time>2025-04-29T11:47:05Z</time>
      </trkpt>
      <trkpt lat="43.313468964770436" lon="-5.574241038411856">
        <ele>433.20999999999998</ele>
        <time>2025-04-29T11:47:06Z</time>
      </trkpt>
      <trkpt lat="43.31326100975275" lon="-5.574022019281983">
        <ele>433.69</ele>
        <time>2025-04-29T11:47:08Z</time>
      </trkpt>
      <trkpt lat="43.313079038634896" lon="-5.573839964345098">
        <ele>434.64999999999998</ele>
        <time>2025-04-29T11:47:10Z</time>
      </trkpt>
      <trkpt lat="43.31302497535944" lon="-5.573753966018558">
        <ele>435.13</ele>
        <time>2025-04-29T11:47:11Z</time>
      </trkpt>
      <trkpt lat="43.312995973974466" lon="-5.573609964922071">
        <ele>436.10000000000002</ele>
        <time>2025-04-29T11:47:12Z</time>
      </trkpt>
      <trkpt lat="43.312989016994834" lon="-5.573452971875668">
        <ele>436.57999999999998</ele>
        <time>2025-04-29T11:47:13Z</time>
      </trkpt>
      <trkpt lat="43.31298197619617" lon="-5.573300002142787">
        <ele>437.54000000000002</ele>
        <time>2025-04-29T11:47:14Z</time>
      </trkpt>
      <trkpt lat="43.312963033095002" lon="-5.573137979954481">
        <ele>438.01999999999998</ele>
        <time>2025-04-29T11:47:15Z</time>
      </trkpt>
      <trkpt lat="43.312911987304688" lon="-5.572987021878362">
        <ele>438.98000000000002</ele>
        <time>2025-04-29T11:47:16Z</time>
      </trkpt>
      <trkpt lat="43.31283101812005" lon="-5.572889037430286">
        <ele>439.45999999999998</ele>
        <time>2025-04-29T11:47:17Z</time>
      </trkpt>
      <trkpt lat="43.312733033671975" lon="-5.572807984426618">
        <ele>440.89999999999998</ele>
        <time>2025-04-29T11:47:18Z</time>
      </trkpt>
      <trkpt lat="43.312628008425236" lon="-5.572736989706755">
        <ele>441.86000000000001</ele>
        <time>2025-04-29T11:47:19Z</time>
      </trkpt>
      <trkpt lat="43.312518959864974" lon="-5.572660965844989">
        <ele>443.31</ele>
        <time>2025-04-29T11:47:20Z</time>
      </trkpt>
      <trkpt lat="43.31240102648735" lon="-5.572581002488732">
        <ele>444.75</ele>
        <time>2025-04-29T11:47:21Z</time>
      </trkpt>
      <trkpt lat="43.311908002942801" lon="-5.572280008345842">
        <ele>449.55000000000001</ele>
        <time>2025-04-29T11:47:25Z</time>
      </trkpt>
      <trkpt lat="43.311754027381539" lon="-5.572213958948851">
        <ele>450.02999999999997</ele>
        <time>2025-04-29T11:47:26Z</time>
      </trkpt>
      <trkpt lat="43.311641039326787" lon="-5.572228962555528">
        <ele>451</ele>
        <time>2025-04-29T11:47:27Z</time>
      </trkpt>
      <trkpt lat="43.311500977724791" lon="-5.572246983647347">
        <ele>451.48000000000002</ele>
        <time>2025-04-29T11:47:28Z</time>
      </trkpt>
      <trkpt lat="43.311367034912109" lon="-5.572263998910785">
        <ele>452.44</ele>
        <time>2025-04-29T11:47:29Z</time>
      </trkpt>
      <trkpt lat="43.311242982745171" lon="-5.572260981425643">
        <ele>453.39999999999998</ele>
        <time>2025-04-29T11:47:30Z</time>
      </trkpt>
      <trkpt lat="43.311152961105108" lon="-5.572170959785581">
        <ele>453.39999999999998</ele>
        <time>2025-04-29T11:47:31Z</time>
      </trkpt>
      <trkpt lat="43.311114991083741" lon="-5.572096025571227">
        <ele>453.39999999999998</ele>
        <time>2025-04-29T11:47:32Z</time>
      </trkpt>
      <trkpt lat="43.311056988313794" lon="-5.571980020031333">
        <ele>453.39999999999998</ele>
        <time>2025-04-29T11:47:33Z</time>
      </trkpt>
      <trkpt lat="43.310917010530829" lon="-5.571764018386602">
        <ele>453.39999999999998</ele>
        <time>2025-04-29T11:47:35Z</time>
      </trkpt>
      <trkpt lat="43.310803016647696" lon="-5.571731999516487">
        <ele>453.39999999999998</ele>
        <time>2025-04-29T11:47:36Z</time>
      </trkpt>
      <trkpt lat="43.310577962547541" lon="-5.571669973433018">
        <ele>453.88</ele>
        <time>2025-04-29T11:47:38Z</time>
      </trkpt>
      <trkpt lat="43.310443013906479" lon="-5.571541981771588">
        <ele>453.39999999999998</ele>
        <time>2025-04-29T11:47:39Z</time>
      </trkpt>
      <trkpt lat="43.310348968952894" lon="-5.571419019252062">
        <ele>453.39999999999998</ele>
        <time>2025-04-29T11:47:40Z</time>
      </trkpt>
      <trkpt lat="43.310260036960244" lon="-5.571302007883787">
        <ele>453.39999999999998</ele>
        <time>2025-04-29T11:47:41Z</time>
      </trkpt>
      <trkpt lat="43.310178983956575" lon="-5.571239981800318">
        <ele>453.88</ele>
        <time>2025-04-29T11:47:42Z</time>
      </trkpt>
      <trkpt lat="43.310096003115177" lon="-5.571184996515513">
        <ele>454.36000000000001</ele>
        <time>2025-04-29T11:47:43Z</time>
      </trkpt>
      <trkpt lat="43.309976980090141" lon="-5.571197988465428">
        <ele>454.83999999999997</ele>
        <time>2025-04-29T11:47:44Z</time>
      </trkpt>
      <trkpt lat="43.309853011742234" lon="-5.571212992072105">
        <ele>456.27999999999997</ele>
        <time>2025-04-29T11:47:45Z</time>
      </trkpt>
      <trkpt lat="43.309614965692163" lon="-5.571239981800318">
        <ele>459.64999999999998</ele>
        <time>2025-04-29T11:47:47Z</time>
      </trkpt>
      <trkpt lat="43.309502983465791" lon="-5.571270994842053">
        <ele>461.08999999999997</ele>
        <time>2025-04-29T11:47:48Z</time>
      </trkpt>
      <trkpt lat="43.309382032603025" lon="-5.571337966248393">
        <ele>462.52999999999997</ele>
        <time>2025-04-29T11:47:49Z</time>
      </trkpt>
      <trkpt lat="43.309137029573321" lon="-5.571494959294796">
        <ele>465.42000000000002</ele>
        <time>2025-04-29T11:47:51Z</time>
      </trkpt>
      <trkpt lat="43.309053964912891" lon="-5.571622028946877">
        <ele>467.33999999999997</ele>
        <time>2025-04-29T11:47:52Z</time>
      </trkpt>
      <trkpt lat="43.308977019041777" lon="-5.571741973981261">
        <ele>468.77999999999997</ele>
        <time>2025-04-29T11:47:53Z</time>
      </trkpt>
      <trkpt lat="43.308913987129927" lon="-5.571869965642691">
        <ele>469.74000000000001</ele>
        <time>2025-04-29T11:47:54Z</time>
      </trkpt>
      <trkpt lat="43.308886997401714" lon="-5.572026036679745">
        <ele>471.18000000000001</ele>
        <time>2025-04-29T11:47:55Z</time>
      </trkpt>
      <trkpt lat="43.30885699018836" lon="-5.572194010019302">
        <ele>472.63</ele>
        <time>2025-04-29T11:47:56Z</time>
      </trkpt>
      <trkpt lat="43.308622967451811" lon="-5.573376026004553">
        <ele>480.80000000000001</ele>
        <time>2025-04-29T11:48:03Z</time>
      </trkpt>
      <trkpt lat="43.30857896246016" lon="-5.573546011000872">
        <ele>481.75999999999999</ele>
        <time>2025-04-29T11:48:04Z</time>
      </trkpt>
      <trkpt lat="43.308519031852484" lon="-5.573698980733752">
        <ele>483.19999999999999</ele>
        <time>2025-04-29T11:48:05Z</time>
      </trkpt>
      <trkpt lat="43.308439990505576" lon="-5.573842981830239">
        <ele>484.16000000000003</ele>
        <time>2025-04-29T11:48:06Z</time>
      </trkpt>
      <trkpt lat="43.30836396664381" lon="-5.573981031775475">
        <ele>485.12</ele>
        <time>2025-04-29T11:48:07Z</time>
      </trkpt>
      <trkpt lat="43.308280985802412" lon="-5.574110029265285">
        <ele>486.07999999999998</ele>
        <time>2025-04-29T11:48:08Z</time>
      </trkpt>
      <trkpt lat="43.307786034420133" lon="-5.574738001450896">
        <ele>491.37</ele>
        <time>2025-04-29T11:48:14Z</time>
      </trkpt>
      <trkpt lat="43.307744963094592" lon="-5.574859036132693">
        <ele>491.85000000000002</ele>
        <time>2025-04-29T11:48:15Z</time>
      </trkpt>
      <trkpt lat="43.30771503970027" lon="-5.575012005865574">
        <ele>492.81</ele>
        <time>2025-04-29T11:48:16Z</time>
      </trkpt>
      <trkpt lat="43.307648990303278" lon="-5.575350970029831">
        <ele>493.76999999999998</ele>
        <time>2025-04-29T11:48:18Z</time>
      </trkpt>
      <trkpt lat="43.307612026110291" lon="-5.575539981946349">
        <ele>494.25999999999999</ele>
        <time>2025-04-29T11:48:19Z</time>
      </trkpt>
      <trkpt lat="43.307536002248526" lon="-5.575702004134655">
        <ele>495.69999999999999</ele>
        <time>2025-04-29T11:48:20Z</time>
      </trkpt>
      <trkpt lat="43.307456960901618" lon="-5.575870983302593">
        <ele>497.13999999999999</ele>
        <time>2025-04-29T11:48:21Z</time>
      </trkpt>
      <trkpt lat="43.307347996160388" lon="-5.575997969135642">
        <ele>498.57999999999998</ele>
        <time>2025-04-29T11:48:22Z</time>
      </trkpt>
      <trkpt lat="43.307241965085268" lon="-5.576104000210762">
        <ele>499.54000000000002</ele>
        <time>2025-04-29T11:48:23Z</time>
      </trkpt>
      <trkpt lat="43.307163007557392" lon="-5.576224029064179">
        <ele>500.5</ele>
        <time>2025-04-29T11:48:24Z</time>
      </trkpt>
      <trkpt lat="43.307100981473923" lon="-5.576349003240466">
        <ele>501.94999999999999</ele>
        <time>2025-04-29T11:48:25Z</time>
      </trkpt>
      <trkpt lat="43.307103998959064" lon="-5.576490992680192">
        <ele>502.91000000000003</ele>
        <time>2025-04-29T11:48:26Z</time>
      </trkpt>
      <trkpt lat="43.307111961767077" lon="-5.576668018475175">
        <ele>503.87</ele>
        <time>2025-04-29T11:48:27Z</time>
      </trkpt>
      <trkpt lat="43.307120008394122" lon="-5.576856024563313">
        <ele>504.82999999999998</ele>
        <time>2025-04-29T11:48:28Z</time>
      </trkpt>
      <trkpt lat="43.307128977030516" lon="-5.577045036479831">
        <ele>506.26999999999998</ele>
        <time>2025-04-29T11:48:29Z</time>
      </trkpt>
      <trkpt lat="43.30713702365756" lon="-5.577226001769304">
        <ele>507.70999999999998</ele>
        <time>2025-04-29T11:48:30Z</time>
      </trkpt>
      <trkpt lat="43.307103998959064" lon="-5.577408978715539">
        <ele>508.67000000000002</ele>
        <time>2025-04-29T11:48:31Z</time>
      </trkpt>
      <trkpt lat="43.307053036987782" lon="-5.577561026439071">
        <ele>510.12</ele>
        <time>2025-04-29T11:48:32Z</time>
      </trkpt>
      <trkpt lat="43.307011965662241" lon="-5.577686000615358">
        <ele>511.56</ele>
        <time>2025-04-29T11:48:33Z</time>
      </trkpt>
      <trkpt lat="43.306955974549055" lon="-5.577778033912182">
        <ele>513</ele>
        <time>2025-04-29T11:48:34Z</time>
      </trkpt>
      <trkpt lat="43.306896965950727" lon="-5.577809968963265">
        <ele>514.91999999999996</ele>
        <time>2025-04-29T11:48:35Z</time>
      </trkpt>
      <trkpt lat="43.306810967624187" lon="-5.577834025025368">
        <ele>517.33000000000004</ele>
        <time>2025-04-29T11:48:36Z</time>
      </trkpt>
      <trkpt lat="43.306712983176112" lon="-5.577805023640394">
        <ele>519.25</ele>
        <time>2025-04-29T11:48:37Z</time>
      </trkpt>
      <trkpt lat="43.306606030091643" lon="-5.57777401059866">
        <ele>520.69000000000005</ele>
        <time>2025-04-29T11:48:38Z</time>
      </trkpt>
      <trkpt lat="43.306504022330046" lon="-5.577744003385305">
        <ele>522.61000000000001</ele>
        <time>2025-04-29T11:48:39Z</time>
      </trkpt>
      <trkpt lat="43.3064079657197" lon="-5.57777401059866">
        <ele>524.05999999999995</ele>
        <time>2025-04-29T11:48:40Z</time>
      </trkpt>
      <trkpt lat="43.30631903372705" lon="-5.577864032238722">
        <ele>525.98000000000002</ele>
        <time>2025-04-29T11:48:41Z</time>
      </trkpt>
      <trkpt lat="43.306222977116704" lon="-5.577960005030036">
        <ele>527.41999999999996</ele>
        <time>2025-04-29T11:48:42Z</time>
      </trkpt>
      <trkpt lat="43.306132033467293" lon="-5.578051032498479">
        <ele>529.82000000000005</ele>
        <time>2025-04-29T11:48:43Z</time>
      </trkpt>
      <trkpt lat="43.306029019877315" lon="-5.578036028891802">
        <ele>530.78999999999996</ele>
        <time>2025-04-29T11:48:44Z</time>
      </trkpt>
      <trkpt lat="43.305970011278987" lon="-5.578014990314841">
        <ele>531.75</ele>
        <time>2025-04-29T11:48:45Z</time>
      </trkpt>
      <trkpt lat="43.305904967710376" lon="-5.577937038615346">
        <ele>532.71000000000004</ele>
        <time>2025-04-29T11:48:46Z</time>
      </trkpt>
      <trkpt lat="43.305860040709376" lon="-5.577834025025368">
        <ele>533.19000000000005</ele>
        <time>2025-04-29T11:48:47Z</time>
      </trkpt>
      <trkpt lat="43.305828021839261" lon="-5.577681977301836">
        <ele>533.66999999999996</ele>
        <time>2025-04-29T11:48:48Z</time>
      </trkpt>
      <trkpt lat="43.305792985484004" lon="-5.577520038932562">
        <ele>533.66999999999996</ele>
        <time>2025-04-29T11:48:49Z</time>
      </trkpt>
      <trkpt lat="43.305756021291018" lon="-5.577347036451101">
        <ele>533.66999999999996</ele>
        <time>2025-04-29T11:48:50Z</time>
      </trkpt>
      <trkpt lat="43.30571997910738" lon="-5.577178979292512">
        <ele>533.66999999999996</ele>
        <time>2025-04-29T11:48:51Z</time>
      </trkpt>
      <trkpt lat="43.305688966065645" lon="-5.577034978196025">
        <ele>533.19000000000005</ele>
        <time>2025-04-29T11:48:52Z</time>
      </trkpt>
      <trkpt lat="43.305620988830924" lon="-5.576921990141273">
        <ele>533.19000000000005</ele>
        <time>2025-04-29T11:48:53Z</time>
      </trkpt>
      <trkpt lat="43.305558962747455" lon="-5.576842026785016">
        <ele>532.71000000000004</ele>
        <time>2025-04-29T11:48:54Z</time>
      </trkpt>
      <trkpt lat="43.305478999391198" lon="-5.576798021793366">
        <ele>532.71000000000004</ele>
        <time>2025-04-29T11:48:55Z</time>
      </trkpt>
      <trkpt lat="43.305382020771503" lon="-5.576789975166321">
        <ele>533.19000000000005</ele>
        <time>2025-04-29T11:48:56Z</time>
      </trkpt>
      <trkpt lat="43.305278001353145" lon="-5.576816964894533">
        <ele>534.14999999999998</ele>
        <time>2025-04-29T11:48:57Z</time>
      </trkpt>
      <trkpt lat="43.305161995813251" lon="-5.576847977936268">
        <ele>535.11000000000001</ele>
        <time>2025-04-29T11:48:58Z</time>
      </trkpt>
      <trkpt lat="43.304926967248321" lon="-5.576888965442777">
        <ele>537.02999999999997</ele>
        <time>2025-04-29T11:49:00Z</time>
      </trkpt>
      <trkpt lat="43.304798975586891" lon="-5.576884020119906">
        <ele>537.99000000000001</ele>
        <time>2025-04-29T11:49:01Z</time>
      </trkpt>
      <trkpt lat="43.304552966728806" lon="-5.5768739618361">
        <ele>540.39999999999998</ele>
        <time>2025-04-29T11:49:03Z</time>
      </trkpt>
      <trkpt lat="43.304421035572886" lon="-5.576907992362976">
        <ele>541.36000000000001</ele>
        <time>2025-04-29T11:49:04Z</time>
      </trkpt>
      <trkpt lat="43.30430100671947" lon="-5.576984016224742">
        <ele>542.32000000000005</ele>
        <time>2025-04-29T11:49:05Z</time>
      </trkpt>
      <trkpt lat="43.304166980087757" lon="-5.577069008722901">
        <ele>544.24000000000001</ele>
        <time>2025-04-29T11:49:06Z</time>
      </trkpt>
      <trkpt lat="43.304033037275076" lon="-5.577155007049441">
        <ele>545.69000000000005</ele>
        <time>2025-04-29T11:49:07Z</time>
      </trkpt>
      <trkpt lat="43.303909990936518" lon="-5.577232958748937">
        <ele>546.64999999999998</ele>
        <time>2025-04-29T11:49:08Z</time>
      </trkpt>
      <trkpt lat="43.303804965689778" lon="-5.577300013974309">
        <ele>547.13</ele>
        <time>2025-04-29T11:49:09Z</time>
      </trkpt>
      <trkpt lat="43.303732965141535" lon="-5.577296996489167">
        <ele>547.61000000000001</ele>
        <time>2025-04-29T11:49:10Z</time>
      </trkpt>
      <trkpt lat="43.303659036755562" lon="-5.577250979840756">
        <ele>548.57000000000005</ele>
        <time>2025-04-29T11:49:11Z</time>
      </trkpt>
      <trkpt lat="43.303600028157234" lon="-5.577214015647769">
        <ele>549.52999999999997</ele>
        <time>2025-04-29T11:49:12Z</time>
      </trkpt>
      <trkpt lat="43.303583012893796" lon="-5.577113013714552">
        <ele>550.00999999999999</ele>
        <time>2025-04-29T11:49:13Z</time>
      </trkpt>
      <trkpt lat="43.303562980145216" lon="-5.576993990689516">
        <ele>550.49000000000001</ele>
        <time>2025-04-29T11:49:14Z</time>
      </trkpt>
      <trkpt lat="43.303540013730526" lon="-5.576856024563313">
        <ele>550.97000000000003</ele>
        <time>2025-04-29T11:49:15Z</time>
      </trkpt>
      <trkpt lat="43.303515035659075" lon="-5.57670196518302">
        <ele>551.45000000000005</ele>
        <time>2025-04-29T11:49:16Z</time>
      </trkpt>
      <trkpt lat="43.303478993475437" lon="-5.576534997671843">
        <ele>551.92999999999995</ele>
        <time>2025-04-29T11:49:17Z</time>
      </trkpt>
      <trkpt lat="43.30341998487711" lon="-5.576376998797059">
        <ele>552.40999999999997</ele>
        <time>2025-04-29T11:49:18Z</time>
      </trkpt>
      <trkpt lat="43.303359970450401" lon="-5.576215982437134">
        <ele>552.40999999999997</ele>
        <time>2025-04-29T11:49:19Z</time>
      </trkpt>
      <trkpt lat="43.303111027926207" lon="-5.575547022745013">
        <ele>554.82000000000005</ele>
        <time>2025-04-29T11:49:23Z</time>
      </trkpt>
      <trkpt lat="43.303008014336228" lon="-5.575215015560389">
        <ele>556.25999999999999</ele>
        <time>2025-04-29T11:49:25Z</time>
      </trkpt>
      <trkpt lat="43.302983958274126" lon="-5.57504796423018">
        <ele>557.22000000000003</ele>
        <time>2025-04-29T11:49:26Z</time>
      </trkpt>
      <trkpt lat="43.302993010729551" lon="-5.574894994497299">
        <ele>557.70000000000005</ele>
        <time>2025-04-29T11:49:27Z</time>
      </trkpt>
      <trkpt lat="43.30301396548748" lon="-5.574750993400812">
        <ele>557.70000000000005</ele>
        <time>2025-04-29T11:49:28Z</time>
      </trkpt>
      <trkpt lat="43.30303399823606" lon="-5.574607998132706">
        <ele>558.17999999999995</ele>
        <time>2025-04-29T11:49:29Z</time>
      </trkpt>
      <trkpt lat="43.30305302515626" lon="-5.574476988986135">
        <ele>558.65999999999997</ele>
        <time>2025-04-29T11:49:30Z</time>
      </trkpt>
      <trkpt lat="43.303047996014357" lon="-5.574350003153086">
        <ele>559.13999999999999</ele>
        <time>2025-04-29T11:49:31Z</time>
      </trkpt>
      <trkpt lat="43.303000973537564" lon="-5.574227962642908">
        <ele>560.11000000000001</ele>
        <time>2025-04-29T11:49:32Z</time>
      </trkpt>
      <trkpt lat="43.302920004352927" lon="-5.5741230212152">
        <ele>560.59000000000003</ele>
        <time>2025-04-29T11:49:33Z</time>
      </trkpt>
      <trkpt lat="43.302812967449427" lon="-5.574027970433235">
        <ele>561.54999999999995</ele>
        <time>2025-04-29T11:49:34Z</time>
      </trkpt>
      <trkpt lat="43.3027090318501" lon="-5.573969967663288">
        <ele>562.50999999999999</ele>
        <time>2025-04-29T11:49:35Z</time>
      </trkpt>
      <trkpt lat="43.302598977461457" lon="-5.573964016512036">
        <ele>563.47000000000003</ele>
        <time>2025-04-29T11:49:36Z</time>
      </trkpt>
      <trkpt lat="43.302504010498524" lon="-5.573979020118713">
        <ele>564.42999999999995</ele>
        <time>2025-04-29T11:49:37Z</time>
      </trkpt>
      <trkpt lat="43.302390016615391" lon="-5.574000980705023">
        <ele>564.90999999999997</ele>
        <time>2025-04-29T11:49:38Z</time>
      </trkpt>
      <trkpt lat="43.302277028560638" lon="-5.574078010395169">
        <ele>565.87</ele>
        <time>2025-04-29T11:49:39Z</time>
      </trkpt>
      <trkpt lat="43.301888024434447" lon="-5.574300969019532">
        <ele>568.27999999999997</ele>
        <time>2025-04-29T11:49:42Z</time>
      </trkpt>
      <trkpt lat="43.301737988367677" lon="-5.574340028688312">
        <ele>569.24000000000001</ele>
        <time>2025-04-29T11:49:43Z</time>
      </trkpt>
      <trkpt lat="43.301588036119938" lon="-5.574377998709679">
        <ele>570.20000000000005</ele>
        <time>2025-04-29T11:49:44Z</time>
      </trkpt>
      <trkpt lat="43.301167013123631" lon="-5.574409011751413">
        <ele>574.52999999999997</ele>
        <time>2025-04-29T11:49:47Z</time>
      </trkpt>
      <trkpt lat="43.30103499814868" lon="-5.57438001036644">
        <ele>576.45000000000005</ele>
        <time>2025-04-29T11:49:48Z</time>
      </trkpt>
      <trkpt lat="43.300894014537334" lon="-5.574280014261603">
        <ele>577.88999999999999</ele>
        <time>2025-04-29T11:49:49Z</time>
      </trkpt>
      <trkpt lat="43.30075797624886" lon="-5.574183035641909">
        <ele>579.80999999999995</ele>
        <time>2025-04-29T11:49:50Z</time>
      </trkpt>
      <trkpt lat="43.300642976537347" lon="-5.57410198263824">
        <ele>581.25</ele>
        <time>2025-04-29T11:49:51Z</time>
      </trkpt>
      <trkpt lat="43.300522025674582" lon="-5.57405898347497">
        <ele>583.17999999999995</ele>
        <time>2025-04-29T11:49:52Z</time>
      </trkpt>
      <trkpt lat="43.300441978499293" lon="-5.574113968759775">
        <ele>584.13999999999999</ele>
        <time>2025-04-29T11:49:53Z</time>
      </trkpt>
      <trkpt lat="43.300350029021502" lon="-5.574175994843245">
        <ele>585.58000000000004</ele>
        <time>2025-04-29T11:49:54Z</time>
      </trkpt>
      <trkpt lat="43.300245003774762" lon="-5.574247995391488">
        <ele>586.53999999999996</ele>
        <time>2025-04-29T11:49:55Z</time>
      </trkpt>
      <trkpt lat="43.300136039033532" lon="-5.574322007596493">
        <ele>587.5</ele>
        <time>2025-04-29T11:49:56Z</time>
      </trkpt>
      <trkpt lat="43.300029002130032" lon="-5.574353020638228">
        <ele>588.46000000000004</ele>
        <time>2025-04-29T11:49:57Z</time>
      </trkpt>
      <trkpt lat="43.299931017681956" lon="-5.574339022859931">
        <ele>589.90999999999997</ele>
        <time>2025-04-29T11:49:58Z</time>
      </trkpt>
      <trkpt lat="43.299845019355416" lon="-5.57427397929132">
        <ele>590.87</ele>
        <time>2025-04-29T11:49:59Z</time>
      </trkpt>
      <trkpt lat="43.299787016585469" lon="-5.574151016771793">
        <ele>592.30999999999995</ele>
        <time>2025-04-29T11:50:00Z</time>
      </trkpt>
      <trkpt lat="43.299720967188478" lon="-5.574011960998178">
        <ele>593.26999999999998</ele>
        <time>2025-04-29T11:50:01Z</time>
      </trkpt>
      <trkpt lat="43.299648966640234" lon="-5.573884975165129">
        <ele>594.23000000000002</ele>
        <time>2025-04-29T11:50:02Z</time>
      </trkpt>
      <trkpt lat="43.299566991627216" lon="-5.573804005980492">
        <ele>595.19000000000005</ele>
        <time>2025-04-29T11:50:03Z</time>
      </trkpt>
      <trkpt lat="43.299414021894336" lon="-5.573627986013889">
        <ele>596.63999999999999</ele>
        <time>2025-04-29T11:50:05Z</time>
      </trkpt>
      <trkpt lat="43.299373034387827" lon="-5.573503011837602">
        <ele>597.12</ele>
        <time>2025-04-29T11:50:06Z</time>
      </trkpt>
      <trkpt lat="43.299373034387827" lon="-5.573367979377508">
        <ele>598.08000000000004</ele>
        <time>2025-04-29T11:50:07Z</time>
      </trkpt>
      <trkpt lat="43.299373034387827" lon="-5.573217021301389">
        <ele>599.03999999999996</ele>
        <time>2025-04-29T11:50:08Z</time>
      </trkpt>
      <trkpt lat="43.299373034387827" lon="-5.573053993284702">
        <ele>599.51999999999998</ele>
        <time>2025-04-29T11:50:09Z</time>
      </trkpt>
      <trkpt lat="43.299373034387827" lon="-5.572876967489719">
        <ele>600.48000000000002</ele>
        <time>2025-04-29T11:50:10Z</time>
      </trkpt>
      <trkpt lat="43.299373034387827" lon="-5.572685021907091">
        <ele>600.96000000000004</ele>
        <time>2025-04-29T11:50:11Z</time>
      </trkpt>
      <trkpt lat="43.299373034387827" lon="-5.572488969191909">
        <ele>601.91999999999996</ele>
        <time>2025-04-29T11:50:12Z</time>
      </trkpt>
      <trkpt lat="43.299373034387827" lon="-5.572291994467378">
        <ele>602.88</ele>
        <time>2025-04-29T11:50:13Z</time>
      </trkpt>
      <trkpt lat="43.299354007467628" lon="-5.572107005864382">
        <ele>603.85000000000002</ele>
        <time>2025-04-29T11:50:14Z</time>
      </trkpt>
      <trkpt lat="43.299306984990835" lon="-5.571940960362554">
        <ele>604.80999999999995</ele>
        <time>2025-04-29T11:50:15Z</time>
      </trkpt>
      <trkpt lat="43.299261974170804" lon="-5.57178296148777">
        <ele>605.76999999999998</ele>
        <time>2025-04-29T11:50:16Z</time>
      </trkpt>
      <trkpt lat="43.299219980835915" lon="-5.571637032553554">
        <ele>606.73000000000002</ele>
        <time>2025-04-29T11:50:17Z</time>
      </trkpt>
      <trkpt lat="43.29918603412807" lon="-5.57148196734488">
        <ele>607.21000000000004</ele>
        <time>2025-04-29T11:50:18Z</time>
      </trkpt>
      <trkpt lat="43.299158038571477" lon="-5.571311982348561">
        <ele>608.16999999999996</ele>
        <time>2025-04-29T11:50:19Z</time>
      </trkpt>
      <trkpt lat="43.299129037186503" lon="-5.571140991523862">
        <ele>609.13</ele>
        <time>2025-04-29T11:50:20Z</time>
      </trkpt>
      <trkpt lat="43.299076985567808" lon="-5.570974024012685">
        <ele>610.09000000000003</ele>
        <time>2025-04-29T11:50:21Z</time>
      </trkpt>
      <trkpt lat="43.299000039696693" lon="-5.570812001824379">
        <ele>611.05999999999995</ele>
        <time>2025-04-29T11:50:22Z</time>
      </trkpt>
      <trkpt lat="43.298922004178166" lon="-5.570647967979312">
        <ele>611.53999999999996</ele>
        <time>2025-04-29T11:50:23Z</time>
      </trkpt>
      <trkpt lat="43.29882200807333" lon="-5.570494998246431">
        <ele>612.5</ele>
        <time>2025-04-29T11:50:24Z</time>
      </trkpt>
      <trkpt lat="43.298727963119745" lon="-5.570352002978325">
        <ele>613.46000000000004</ele>
        <time>2025-04-29T11:50:25Z</time>
      </trkpt>
      <trkpt lat="43.29856401309371" lon="-5.570100964978337">
        <ele>614.41999999999996</ele>
        <time>2025-04-29T11:50:27Z</time>
      </trkpt>
      <trkpt lat="43.298492012545466" lon="-5.569971967488527">
        <ele>615.38</ele>
        <time>2025-04-29T11:50:28Z</time>
      </trkpt>
      <trkpt lat="43.298224965110421" lon="-5.569363022223115">
        <ele>619.23000000000002</ele>
        <time>2025-04-29T11:50:32Z</time>
      </trkpt>
      <trkpt lat="43.298008963465691" lon="-5.568971000611782">
        <ele>620.66999999999996</ele>
        <time>2025-04-29T11:50:35Z</time>
      </trkpt>
      <trkpt lat="43.297619037330151" lon="-5.568513013422489">
        <ele>623.07000000000005</ele>
        <time>2025-04-29T11:50:39Z</time>
      </trkpt>
      <trkpt lat="43.297548964619637" lon="-5.568367000669241">
        <ele>624.02999999999997</ele>
        <time>2025-04-29T11:50:40Z</time>
      </trkpt>
      <trkpt lat="43.297494985163212" lon="-5.568224005401135">
        <ele>625.47000000000003</ele>
        <time>2025-04-29T11:50:41Z</time>
      </trkpt>
      <trkpt lat="43.297460032626987" lon="-5.56808796711266">
        <ele>626.91999999999996</ele>
        <time>2025-04-29T11:50:42Z</time>
      </trkpt>
      <trkpt lat="43.297451985999942" lon="-5.567953018471599">
        <ele>628.36000000000001</ele>
        <time>2025-04-29T11:50:43Z</time>
      </trkpt>
      <trkpt lat="43.297444023191929" lon="-5.567824020981789">
        <ele>629.32000000000005</ele>
        <time>2025-04-29T11:50:44Z</time>
      </trkpt>
      <trkpt lat="43.297354001551867" lon="-5.566751975566149">
        <ele>635.09000000000003</ele>
        <time>2025-04-29T11:50:53Z</time>
      </trkpt>
      <trkpt lat="43.29727697186172" lon="-5.566461039707065">
        <ele>635.09000000000003</ele>
        <time>2025-04-29T11:50:55Z</time>
      </trkpt>
      <trkpt lat="43.297215029597282" lon="-5.566318966448307">
        <ele>635.57000000000005</ele>
        <time>2025-04-29T11:50:56Z</time>
      </trkpt>
      <trkpt lat="43.296860978007317" lon="-5.565384970977902">
        <ele>636.52999999999997</ele>
        <time>2025-04-29T11:51:02Z</time>
      </trkpt>
      <trkpt lat="43.296840023249388" lon="-5.565214985981584">
        <ele>637.49000000000001</ele>
        <time>2025-04-29T11:51:03Z</time>
      </trkpt>
      <trkpt lat="43.296786965802312" lon="-5.564854983240366">
        <ele>637.97000000000003</ele>
        <time>2025-04-29T11:51:05Z</time>
      </trkpt>
      <trkpt lat="43.296728963032365" lon="-5.564708970487118">
        <ele>637.97000000000003</ele>
        <time>2025-04-29T11:51:06Z</time>
      </trkpt>
      <trkpt lat="43.29665201716125" lon="-5.564577039331198">
        <ele>638.45000000000005</ele>
        <time>2025-04-29T11:51:07Z</time>
      </trkpt>
      <trkpt lat="43.296556966379285" lon="-5.564476037397981">
        <ele>638.45000000000005</ele>
        <time>2025-04-29T11:51:08Z</time>
      </trkpt>
      <trkpt lat="43.2964370213449" lon="-5.564377969130874">
        <ele>638.92999999999995</ele>
        <time>2025-04-29T11:51:09Z</time>
      </trkpt>
      <trkpt lat="43.296312969177961" lon="-5.564275961369276">
        <ele>639.88999999999999</ele>
        <time>2025-04-29T11:51:10Z</time>
      </trkpt>
      <trkpt lat="43.296196041628718" lon="-5.564179988577962">
        <ele>640.38</ele>
        <time>2025-04-29T11:51:11Z</time>
      </trkpt>
      <trkpt lat="43.296106019988656" lon="-5.564027018845081">
        <ele>640.86000000000001</ele>
        <time>2025-04-29T11:51:12Z</time>
      </trkpt>
      <trkpt lat="43.296038964763284" lon="-5.563859967514873">
        <ele>641.82000000000005</ele>
        <time>2025-04-29T11:51:13Z</time>
      </trkpt>
      <trkpt lat="43.295981967821717" lon="-5.563716972246766">
        <ele>641.82000000000005</ele>
        <time>2025-04-29T11:51:14Z</time>
      </trkpt>
      <trkpt lat="43.295865040272474" lon="-5.563547993078828">
        <ele>642.29999999999995</ele>
        <time>2025-04-29T11:51:15Z</time>
      </trkpt>
      <trkpt lat="43.295761020854115" lon="-5.563420001417399">
        <ele>642.77999999999997</ele>
        <time>2025-04-29T11:51:16Z</time>
      </trkpt>
      <trkpt lat="43.295635962858796" lon="-5.563340038061142">
        <ele>643.25999999999999</ele>
        <time>2025-04-29T11:51:17Z</time>
      </trkpt>
      <trkpt lat="43.295522974804044" lon="-5.563267031684518">
        <ele>643.74000000000001</ele>
        <time>2025-04-29T11:51:18Z</time>
      </trkpt>
      <trkpt lat="43.295437982305884" lon="-5.563163012266159">
        <ele>644.70000000000005</ele>
        <time>2025-04-29T11:51:19Z</time>
      </trkpt>
      <trkpt lat="43.295377967879176" lon="-5.563038038089871">
        <ele>645.17999999999995</ele>
        <time>2025-04-29T11:51:20Z</time>
      </trkpt>
      <trkpt lat="43.295361958444118" lon="-5.562880961224437">
        <ele>645.65999999999997</ele>
        <time>2025-04-29T11:51:21Z</time>
      </trkpt>
      <trkpt lat="43.295345026999712" lon="-5.562710976228118">
        <ele>646.13999999999999</ele>
        <time>2025-04-29T11:51:22Z</time>
      </trkpt>
      <trkpt lat="43.295328011736274" lon="-5.562533028423786">
        <ele>646.13999999999999</ele>
        <time>2025-04-29T11:51:23Z</time>
      </trkpt>
      <trkpt lat="43.295296998694539" lon="-5.562378969043493">
        <ele>646.62</ele>
        <time>2025-04-29T11:51:24Z</time>
      </trkpt>
      <trkpt lat="43.295241007581353" lon="-5.562239997088909">
        <ele>646.62</ele>
        <time>2025-04-29T11:51:25Z</time>
      </trkpt>
      <trkpt lat="43.295150985941291" lon="-5.562160033732653">
        <ele>646.62</ele>
        <time>2025-04-29T11:51:26Z</time>
      </trkpt>
      <trkpt lat="43.295031040906906" lon="-5.562077974900603">
        <ele>647.10000000000002</ele>
        <time>2025-04-29T11:51:27Z</time>
      </trkpt>
      <trkpt lat="43.294904977083206" lon="-5.561991976574063">
        <ele>647.10000000000002</ele>
        <time>2025-04-29T11:51:28Z</time>
      </trkpt>
      <trkpt lat="43.294786037877202" lon="-5.561893992125988">
        <ele>647.10000000000002</ele>
        <time>2025-04-29T11:51:29Z</time>
      </trkpt>
      <trkpt lat="43.294680006802082" lon="-5.561773041263223">
        <ele>647.10000000000002</ele>
        <time>2025-04-29T11:51:30Z</time>
      </trkpt>
      <trkpt lat="43.294572969898582" lon="-5.561652006581426">
        <ele>647.10000000000002</ele>
        <time>2025-04-29T11:51:31Z</time>
      </trkpt>
      <trkpt lat="43.294457970187068" lon="-5.561543963849545">
        <ele>647.10000000000002</ele>
        <time>2025-04-29T11:51:32Z</time>
      </trkpt>
      <trkpt lat="43.294329978525639" lon="-5.561464000493288">
        <ele>647.10000000000002</ele>
        <time>2025-04-29T11:51:33Z</time>
      </trkpt>
      <trkpt lat="43.294197041541338" lon="-5.561433993279934">
        <ele>647.10000000000002</ele>
        <time>2025-04-29T11:51:34Z</time>
      </trkpt>
      <trkpt lat="43.294071983546019" lon="-5.561434999108315">
        <ele>647.10000000000002</ele>
        <time>2025-04-29T11:51:35Z</time>
      </trkpt>
      <trkpt lat="43.293948015198112" lon="-5.561460983008146">
        <ele>646.62</ele>
        <time>2025-04-29T11:51:36Z</time>
      </trkpt>
      <trkpt lat="43.29383703880012" lon="-5.561485039070249">
        <ele>646.62</ele>
        <time>2025-04-29T11:51:37Z</time>
      </trkpt>
      <trkpt lat="43.293697983026505" lon="-5.561472969129682">
        <ele>646.62</ele>
        <time>2025-04-29T11:51:38Z</time>
      </trkpt>
      <trkpt lat="43.293572003021836" lon="-5.561443967744708">
        <ele>647.10000000000002</ele>
        <time>2025-04-29T11:51:39Z</time>
      </trkpt>
      <trkpt lat="43.293449962511659" lon="-5.561358975246549">
        <ele>647.10000000000002</ele>
        <time>2025-04-29T11:51:40Z</time>
      </trkpt>
      <trkpt lat="43.29332297667861" lon="-5.561270965263248">
        <ele>647.59000000000003</ele>
        <time>2025-04-29T11:51:41Z</time>
      </trkpt>
      <trkpt lat="43.293199008330703" lon="-5.561184966936708">
        <ele>648.07000000000005</ele>
        <time>2025-04-29T11:51:42Z</time>
      </trkpt>
      <trkpt lat="43.292947970330715" lon="-5.561087988317013">
        <ele>648.54999999999995</ele>
        <time>2025-04-29T11:51:44Z</time>
      </trkpt>
      <trkpt lat="43.292814027518034" lon="-5.56105999276042">
        <ele>649.02999999999997</ele>
        <time>2025-04-29T11:51:45Z</time>
      </trkpt>
      <trkpt lat="43.29267899505794" lon="-5.561031997203827">
        <ele>649.02999999999997</ele>
        <time>2025-04-29T11:51:46Z</time>
      </trkpt>
      <trkpt lat="43.292561983689666" lon="-5.561030991375446">
        <ele>649.02999999999997</ele>
        <time>2025-04-29T11:51:47Z</time>
      </trkpt>
      <trkpt lat="43.292442038655281" lon="-5.561098968610168">
        <ele>649.02999999999997</ele>
        <time>2025-04-29T11:51:48Z</time>
      </trkpt>
      <trkpt lat="43.292361991479993" lon="-5.561199970543385">
        <ele>649.02999999999997</ele>
        <time>2025-04-29T11:51:49Z</time>
      </trkpt>
      <trkpt lat="43.292267024517059" lon="-5.561321005225182">
        <ele>649.02999999999997</ele>
        <time>2025-04-29T11:51:50Z</time>
      </trkpt>
      <trkpt lat="43.292166022583842" lon="-5.56144799105823">
        <ele>648.54999999999995</ele>
        <time>2025-04-29T11:51:51Z</time>
      </trkpt>
      <trkpt lat="43.292039958760142" lon="-5.561555027961731">
        <ele>648.54999999999995</ele>
        <time>2025-04-29T11:51:52Z</time>
      </trkpt>
      <trkpt lat="43.291897969320416" lon="-5.56164002045989">
        <ele>649.02999999999997</ele>
        <time>2025-04-29T11:51:53Z</time>
      </trkpt>
      <trkpt lat="43.291753968223929" lon="-5.561715960502625">
        <ele>649.02999999999997</ele>
        <time>2025-04-29T11:51:54Z</time>
      </trkpt>
      <trkpt lat="43.291605021804571" lon="-5.561770023778081">
        <ele>649.50999999999999</ele>
        <time>2025-04-29T11:51:55Z</time>
      </trkpt>
      <trkpt lat="43.291450962424278" lon="-5.561801036819816">
        <ele>649.50999999999999</ele>
        <time>2025-04-29T11:51:56Z</time>
      </trkpt>
      <trkpt lat="43.291292041540146" lon="-5.561822997406125">
        <ele>649.99000000000001</ele>
        <time>2025-04-29T11:51:57Z</time>
      </trkpt>
      <trkpt lat="43.290985012426972" lon="-5.56189700961113">
        <ele>650.95000000000005</ele>
        <time>2025-04-29T11:51:59Z</time>
      </trkpt>
      <trkpt lat="43.290846040472388" lon="-5.561958029866219">
        <ele>650.95000000000005</ele>
        <time>2025-04-29T11:52:00Z</time>
      </trkpt>
      <trkpt lat="43.290708996355534" lon="-5.562019972130656">
        <ele>650.95000000000005</ele>
        <time>2025-04-29T11:52:01Z</time>
      </trkpt>
      <trkpt lat="43.290575975552201" lon="-5.56204897351563">
        <ele>650.47000000000003</ele>
        <time>2025-04-29T11:52:02Z</time>
      </trkpt>
      <trkpt lat="43.290451001375914" lon="-5.562075963243842">
        <ele>649.99000000000001</ele>
        <time>2025-04-29T11:52:03Z</time>
      </trkpt>
      <trkpt lat="43.290337007492781" lon="-5.562140000984073">
        <ele>649.99000000000001</ele>
        <time>2025-04-29T11:52:04Z</time>
      </trkpt>
      <trkpt lat="43.29022997058928" lon="-5.562228010967374">
        <ele>649.50999999999999</ele>
        <time>2025-04-29T11:52:05Z</time>
      </trkpt>
      <trkpt lat="43.290115976706147" lon="-5.562320966273546">
        <ele>649.50999999999999</ele>
        <time>2025-04-29T11:52:06Z</time>
      </trkpt>
      <trkpt lat="43.289997959509492" lon="-5.562418028712273">
        <ele>649.50999999999999</ele>
        <time>2025-04-29T11:52:07Z</time>
      </trkpt>
      <trkpt lat="43.289872985333204" lon="-5.562507966533303">
        <ele>649.50999999999999</ele>
        <time>2025-04-29T11:52:08Z</time>
      </trkpt>
      <trkpt lat="43.289737030863762" lon="-5.562592959031463">
        <ele>649.50999999999999</ele>
        <time>2025-04-29T11:52:09Z</time>
      </trkpt>
      <trkpt lat="43.289081985130906" lon="-5.562946004793048">
        <ele>650.95000000000005</ele>
        <time>2025-04-29T11:52:14Z</time>
      </trkpt>
      <trkpt lat="43.288966985419393" lon="-5.56295296177268">
        <ele>650.95000000000005</ele>
        <time>2025-04-29T11:52:15Z</time>
      </trkpt>
      <trkpt lat="43.288861960172653" lon="-5.562958996742964">
        <ele>651.42999999999995</ele>
        <time>2025-04-29T11:52:16Z</time>
      </trkpt>
      <trkpt lat="43.288764981552958" lon="-5.562965031713247">
        <ele>651.90999999999997</ele>
        <time>2025-04-29T11:52:17Z</time>
      </trkpt>
      <trkpt lat="43.288676971569657" lon="-5.562953967601061">
        <ele>651.90999999999997</ele>
        <time>2025-04-29T11:52:18Z</time>
      </trkpt>
      <trkpt lat="43.288290984928608" lon="-5.562943993136287">
        <ele>650.95000000000005</ele>
        <time>2025-04-29T11:52:22Z</time>
      </trkpt>
      <trkpt lat="43.287552036345005" lon="-5.563042983412743">
        <ele>647.10000000000002</ele>
        <time>2025-04-29T11:52:28Z</time>
      </trkpt>
      <trkpt lat="43.287411974743009" lon="-5.563098974525929">
        <ele>646.13999999999999</ele>
        <time>2025-04-29T11:52:29Z</time>
      </trkpt>
      <trkpt lat="43.286152007058263" lon="-5.563486972823739">
        <ele>637.97000000000003</ele>
        <time>2025-04-29T11:52:37Z</time>
      </trkpt>
      <trkpt lat="43.285741964355111" lon="-5.56368000805378">
        <ele>634.13</ele>
        <time>2025-04-29T11:52:40Z</time>
      </trkpt>
      <trkpt lat="43.285649009048939" lon="-5.563760977238417">
        <ele>632.67999999999995</ele>
        <time>2025-04-29T11:52:41Z</time>
      </trkpt>
      <trkpt lat="43.28558798879385" lon="-5.563877988606691">
        <ele>631.72000000000003</ele>
        <time>2025-04-29T11:52:42Z</time>
      </trkpt>
      <trkpt lat="43.285524034872651" lon="-5.563999023288488">
        <ele>630.27999999999997</ele>
        <time>2025-04-29T11:52:43Z</time>
      </trkpt>
      <trkpt lat="43.285455973818898" lon="-5.564129026606679">
        <ele>628.84000000000003</ele>
        <time>2025-04-29T11:52:44Z</time>
      </trkpt>
      <trkpt lat="43.28535296022892" lon="-5.56417697109282">
        <ele>627.88</ele>
        <time>2025-04-29T11:52:45Z</time>
      </trkpt>
      <trkpt lat="43.285240978002548" lon="-5.564182000234723">
        <ele>626.91999999999996</ele>
        <time>2025-04-29T11:52:46Z</time>
      </trkpt>
      <trkpt lat="43.285110974684358" lon="-5.564170014113188">
        <ele>626.44000000000005</ele>
        <time>2025-04-29T11:52:47Z</time>
      </trkpt>
      <trkpt lat="43.284977031871676" lon="-5.564119974151254">
        <ele>624.99000000000001</ele>
        <time>2025-04-29T11:52:48Z</time>
      </trkpt>
      <trkpt lat="43.284155018627644" lon="-5.563744967803359">
        <ele>616.82000000000005</ele>
        <time>2025-04-29T11:52:54Z</time>
      </trkpt>
      <trkpt lat="43.284069020301104" lon="-5.56374303996563">
        <ele>615.38</ele>
        <time>2025-04-29T11:52:55Z</time>
      </trkpt>
      <trkpt lat="43.284008000046015" lon="-5.563803976401687">
        <ele>613.94000000000005</ele>
        <time>2025-04-29T11:52:56Z</time>
      </trkpt>
      <trkpt lat="43.283960977569222" lon="-5.563872959464788">
        <ele>612.5</ele>
        <time>2025-04-29T11:52:57Z</time>
      </trkpt>
      <trkpt lat="43.283938011154532" lon="-5.564008997753263">
        <ele>610.57000000000005</ele>
        <time>2025-04-29T11:52:58Z</time>
      </trkpt>
      <trkpt lat="43.283913033083081" lon="-5.564151993021369">
        <ele>609.13</ele>
        <time>2025-04-29T11:52:59Z</time>
      </trkpt>
      <trkpt lat="43.283888977020979" lon="-5.564290964975953">
        <ele>607.21000000000004</ele>
        <time>2025-04-29T11:53:00Z</time>
      </trkpt>
      <trkpt lat="43.283844972029328" lon="-5.56438903324306">
        <ele>605.28999999999996</ele>
        <time>2025-04-29T11:53:01Z</time>
      </trkpt>
      <trkpt lat="43.283772971481085" lon="-5.564489029347897">
        <ele>603.85000000000002</ele>
        <time>2025-04-29T11:53:02Z</time>
      </trkpt>
      <trkpt lat="43.283702982589602" lon="-5.564514007419348">
        <ele>602.88</ele>
        <time>2025-04-29T11:53:03Z</time>
      </trkpt>
      <trkpt lat="43.283601980656385" lon="-5.564550971612334">
        <ele>602.39999999999998</ele>
        <time>2025-04-29T11:53:04Z</time>
      </trkpt>
      <trkpt lat="43.283279025927186" lon="-5.564666977152228">
        <ele>601.44000000000005</ele>
        <time>2025-04-29T11:53:07Z</time>
      </trkpt>
      <trkpt lat="43.283183975145221" lon="-5.564639987424016">
        <ele>601.44000000000005</ele>
        <time>2025-04-29T11:53:08Z</time>
      </trkpt>
      <trkpt lat="43.283131001517177" lon="-5.564597994089127">
        <ele>600.96000000000004</ele>
        <time>2025-04-29T11:53:09Z</time>
      </trkpt>
      <trkpt lat="43.283128989860415" lon="-5.56452096439898">
        <ele>600.96000000000004</ele>
        <time>2025-04-29T11:53:10Z</time>
      </trkpt>
      <trkpt lat="43.283155979588628" lon="-5.564462961629033">
        <ele>600.96000000000004</ele>
        <time>2025-04-29T11:53:11Z</time>
      </trkpt>
      <trkpt lat="43.283214988186955" lon="-5.564404036849737">
        <ele>600.48000000000002</ele>
        <time>2025-04-29T11:53:12Z</time>
      </trkpt>
      <trkpt lat="43.283316995948553" lon="-5.564370006322861">
        <ele>600</ele>
        <time>2025-04-29T11:53:13Z</time>
      </trkpt>
      <trkpt lat="43.283425038680434" lon="-5.564333964139223">
        <ele>600</ele>
        <time>2025-04-29T11:53:14Z</time>
      </trkpt>
      <trkpt lat="43.283607009798288" lon="-5.564203960821033">
        <ele>598.08000000000004</ele>
        <time>2025-04-29T11:53:16Z</time>
      </trkpt>
      <trkpt lat="43.283666018396616" lon="-5.564125003293157">
        <ele>597.60000000000002</ele>
        <time>2025-04-29T11:53:17Z</time>
      </trkpt>
      <trkpt lat="43.283659983426332" lon="-5.564030036330223">
        <ele>596.63999999999999</ele>
        <time>2025-04-29T11:53:18Z</time>
      </trkpt>
      <trkpt lat="43.28365202061832" lon="-5.563898021355271">
        <ele>596.14999999999998</ele>
        <time>2025-04-29T11:53:19Z</time>
      </trkpt>
      <trkpt lat="43.283642968162894" lon="-5.563757959753275">
        <ele>595.19000000000005</ele>
        <time>2025-04-29T11:53:20Z</time>
      </trkpt>
      <trkpt lat="43.283633999526501" lon="-5.563612030819058">
        <ele>594.71000000000004</ele>
        <time>2025-04-29T11:53:21Z</time>
      </trkpt>
      <trkpt lat="43.283624025061727" lon="-5.563461994752288">
        <ele>594.23000000000002</ele>
        <time>2025-04-29T11:53:22Z</time>
      </trkpt>
      <trkpt lat="43.283663000911474" lon="-5.563328973948956">
        <ele>593.26999999999998</ele>
        <time>2025-04-29T11:53:23Z</time>
      </trkpt>
      <trkpt lat="43.283709017559886" lon="-5.563201988115907">
        <ele>592.30999999999995</ele>
        <time>2025-04-29T11:53:24Z</time>
      </trkpt>
      <trkpt lat="43.283796021714807" lon="-5.563128981739283">
        <ele>591.35000000000002</ele>
        <time>2025-04-29T11:53:25Z</time>
      </trkpt>
      <trkpt lat="43.283909009769559" lon="-5.563084976747632">
        <ele>590.38999999999999</ele>
        <time>2025-04-29T11:53:26Z</time>
      </trkpt>
      <trkpt lat="43.284032978117466" lon="-5.563084976747632">
        <ele>588.95000000000005</ele>
        <time>2025-04-29T11:53:27Z</time>
      </trkpt>
      <trkpt lat="43.284161975607276" lon="-5.563120013102889">
        <ele>587.01999999999998</ele>
        <time>2025-04-29T11:53:28Z</time>
      </trkpt>
      <trkpt lat="43.284301031380892" lon="-5.563156977295876">
        <ele>585.58000000000004</ele>
        <time>2025-04-29T11:53:29Z</time>
      </trkpt>
      <trkpt lat="43.284577969461679" lon="-5.56323098950088">
        <ele>583.17999999999995</ele>
        <time>2025-04-29T11:53:31Z</time>
      </trkpt>
      <trkpt lat="43.284696992486715" lon="-5.56320802308619">
        <ele>581.73000000000002</ele>
        <time>2025-04-29T11:53:32Z</time>
      </trkpt>
      <trkpt lat="43.284807968884706" lon="-5.563147002831101">
        <ele>580.28999999999996</ele>
        <time>2025-04-29T11:53:33Z</time>
      </trkpt>
      <trkpt lat="43.284872006624937" lon="-5.563023034483194">
        <ele>579.33000000000004</ele>
        <time>2025-04-29T11:53:34Z</time>
      </trkpt>
      <trkpt lat="43.284925986081362" lon="-5.562893031165004">
        <ele>578.37</ele>
        <time>2025-04-29T11:53:35Z</time>
      </trkpt>
      <trkpt lat="43.284979965537786" lon="-5.562765039503574">
        <ele>577.40999999999997</ele>
        <time>2025-04-29T11:53:36Z</time>
      </trkpt>
      <trkpt lat="43.285038974136114" lon="-5.562622966244817">
        <ele>576.45000000000005</ele>
        <time>2025-04-29T11:53:37Z</time>
      </trkpt>
      <trkpt lat="43.285117009654641" lon="-5.562529005110264">
        <ele>575.49000000000001</ele>
        <time>2025-04-29T11:53:38Z</time>
      </trkpt>
      <trkpt lat="43.285207031294703" lon="-5.562421968206763">
        <ele>574.52999999999997</ele>
        <time>2025-04-29T11:53:39Z</time>
      </trkpt>
      <trkpt lat="43.285301998257637" lon="-5.56230797432363">
        <ele>573.55999999999995</ele>
        <time>2025-04-29T11:53:40Z</time>
      </trkpt>
      <trkpt lat="43.285376010462642" lon="-5.562179982662201">
        <ele>573.08000000000004</ele>
        <time>2025-04-29T11:53:41Z</time>
      </trkpt>
      <trkpt lat="43.285420015454292" lon="-5.562013015151024">
        <ele>572.60000000000002</ele>
        <time>2025-04-29T11:53:42Z</time>
      </trkpt>
      <trkpt lat="43.285512970760465" lon="-5.561659969389439">
        <ele>570.67999999999995</ele>
        <time>2025-04-29T11:53:44Z</time>
      </trkpt>
      <trkpt lat="43.285571979358792" lon="-5.561482021585107">
        <ele>569.72000000000003</ele>
        <time>2025-04-29T11:53:45Z</time>
      </trkpt>
      <trkpt lat="43.28567398712039" lon="-5.561350006610155">
        <ele>568.27999999999997</ele>
        <time>2025-04-29T11:53:46Z</time>
      </trkpt>
      <trkpt lat="43.28578001819551" lon="-5.561297032982111">
        <ele>566.83000000000004</ele>
        <time>2025-04-29T11:53:47Z</time>
      </trkpt>
      <trkpt lat="43.285882025957108" lon="-5.561245987191796">
        <ele>565.38999999999999</ele>
        <time>2025-04-29T11:53:48Z</time>
      </trkpt>
      <trkpt lat="43.285985039547086" lon="-5.561195025220513">
        <ele>563.95000000000005</ele>
        <time>2025-04-29T11:53:49Z</time>
      </trkpt>
      <trkpt lat="43.286089980974793" lon="-5.561141967773438">
        <ele>562.50999999999999</ele>
        <time>2025-04-29T11:53:50Z</time>
      </trkpt>
      <trkpt lat="43.286174973472953" lon="-5.561024034395814">
        <ele>560.59000000000003</ele>
        <time>2025-04-29T11:53:51Z</time>
      </trkpt>
      <trkpt lat="43.286268012598157" lon="-5.560893025249243">
        <ele>558.65999999999997</ele>
        <time>2025-04-29T11:53:52Z</time>
      </trkpt>
      <trkpt lat="43.286546962335706" lon="-5.560476025566459">
        <ele>553.86000000000001</ele>
        <time>2025-04-29T11:53:55Z</time>
      </trkpt>
      <trkpt lat="43.286627009510994" lon="-5.560283996164799">
        <ele>552.40999999999997</ele>
        <time>2025-04-29T11:53:56Z</time>
      </trkpt>
      <trkpt lat="43.286647964268923" lon="-5.560132032260299">
        <ele>551.45000000000005</ele>
        <time>2025-04-29T11:53:57Z</time>
      </trkpt>
      <trkpt lat="43.286673026159406" lon="-5.559946037828922">
        <ele>550.97000000000003</ele>
        <time>2025-04-29T11:53:58Z</time>
      </trkpt>
      <trkpt lat="43.286680988967419" lon="-5.559760965406895">
        <ele>550.00999999999999</ele>
        <time>2025-04-29T11:53:59Z</time>
      </trkpt>
      <trkpt lat="43.286651987582445" lon="-5.559614030644298">
        <ele>549.52999999999997</ele>
        <time>2025-04-29T11:54:00Z</time>
      </trkpt>
      <trkpt lat="43.286586022004485" lon="-5.559457959607244">
        <ele>548.09000000000003</ele>
        <time>2025-04-29T11:54:01Z</time>
      </trkpt>
      <trkpt lat="43.286493988707662" lon="-5.559386964887381">
        <ele>547.13</ele>
        <time>2025-04-29T11:54:02Z</time>
      </trkpt>
      <trkpt lat="43.286392986774445" lon="-5.559308007359505">
        <ele>546.16999999999996</ele>
        <time>2025-04-29T11:54:03Z</time>
      </trkpt>
      <trkpt lat="43.286286033689976" lon="-5.559225026518107">
        <ele>545.69000000000005</ele>
        <time>2025-04-29T11:54:04Z</time>
      </trkpt>
      <trkpt lat="43.285853024572134" lon="-5.55852203629911">
        <ele>543.27999999999997</ele>
        <time>2025-04-29T11:54:09Z</time>
      </trkpt>
      <trkpt lat="43.285832991823554" lon="-5.558370994403958">
        <ele>542.79999999999995</ele>
        <time>2025-04-29T11:54:10Z</time>
      </trkpt>
      <trkpt lat="43.285842966288328" lon="-5.55824501439929">
        <ele>541.84000000000003</ele>
        <time>2025-04-29T11:54:11Z</time>
      </trkpt>
      <trkpt lat="43.285870039835572" lon="-5.558122973889113">
        <ele>540.88</ele>
        <time>2025-04-29T11:54:12Z</time>
      </trkpt>
      <trkpt lat="43.285899963229895" lon="-5.557989031076431">
        <ele>539.91999999999996</ele>
        <time>2025-04-29T11:54:13Z</time>
      </trkpt>
      <trkpt lat="43.285936005413532" lon="-5.557832960039377">
        <ele>538.96000000000004</ele>
        <time>2025-04-29T11:54:14Z</time>
      </trkpt>
      <trkpt lat="43.28597598709166" lon="-5.557655012235045">
        <ele>538.48000000000002</ele>
        <time>2025-04-29T11:54:15Z</time>
      </trkpt>
      <trkpt lat="43.285977998748422" lon="-5.557473041117191">
        <ele>537.50999999999999</ele>
        <time>2025-04-29T11:54:16Z</time>
      </trkpt>
      <trkpt lat="43.285971963778138" lon="-5.557282017543912">
        <ele>537.02999999999997</ele>
        <time>2025-04-29T11:54:17Z</time>
      </trkpt>
      <trkpt lat="43.285967018455267" lon="-5.55710599757731">
        <ele>536.07000000000005</ele>
        <time>2025-04-29T11:54:18Z</time>
      </trkpt>
      <trkpt lat="43.285961989313364" lon="-5.556936012580991">
        <ele>535.59000000000003</ele>
        <time>2025-04-29T11:54:19Z</time>
      </trkpt>
      <trkpt lat="43.285943968221545" lon="-5.55682897567749">
        <ele>535.11000000000001</ele>
        <time>2025-04-29T11:54:20Z</time>
      </trkpt>
      <trkpt lat="43.285904992371798" lon="-5.556737026199698">
        <ele>534.14999999999998</ele>
        <time>2025-04-29T11:54:21Z</time>
      </trkpt>
      <trkpt lat="43.285855036228895" lon="-5.556679023429751">
        <ele>533.66999999999996</ele>
        <time>2025-04-29T11:54:22Z</time>
      </trkpt>
      <trkpt lat="43.285811031237245" lon="-5.556679023429751">
        <ele>532.71000000000004</ele>
        <time>2025-04-29T11:54:23Z</time>
      </trkpt>
      <trkpt lat="43.285758979618549" lon="-5.55674197152257">
        <ele>531.75</ele>
        <time>2025-04-29T11:54:24Z</time>
      </trkpt>
      <trkpt lat="43.285756967961788" lon="-5.556866023689508">
        <ele>530.78999999999996</ele>
        <time>2025-04-29T11:54:25Z</time>
      </trkpt>
      <trkpt lat="43.285770965740085" lon="-5.556993009522557">
        <ele>529.34000000000003</ele>
        <time>2025-04-29T11:54:26Z</time>
      </trkpt>
      <trkpt lat="43.285795021802187" lon="-5.557137010619044">
        <ele>527.41999999999996</ele>
        <time>2025-04-29T11:54:27Z</time>
      </trkpt>
      <trkpt lat="43.285811031237245" lon="-5.557284029200673">
        <ele>525.5</ele>
        <time>2025-04-29T11:54:28Z</time>
      </trkpt>
      <trkpt lat="43.285811031237245" lon="-5.557444039732218">
        <ele>523.09000000000003</ele>
        <time>2025-04-29T11:54:29Z</time>
      </trkpt>
      <trkpt lat="43.285790998488665" lon="-5.557585023343563">
        <ele>521.16999999999996</ele>
        <time>2025-04-29T11:54:30Z</time>
      </trkpt>
      <trkpt lat="43.285735007375479" lon="-5.557722989469767">
        <ele>519.73000000000002</ele>
        <time>2025-04-29T11:54:31Z</time>
      </trkpt>
      <trkpt lat="43.285637022927403" lon="-5.557827008888125">
        <ele>518.28999999999996</ele>
        <time>2025-04-29T11:54:32Z</time>
      </trkpt>
      <trkpt lat="43.285537026822567" lon="-5.557932034134865">
        <ele>517.80999999999995</ele>
        <time>2025-04-29T11:54:33Z</time>
      </trkpt>
      <trkpt lat="43.285448011010885" lon="-5.558025995269418">
        <ele>517.33000000000004</ele>
        <time>2025-04-29T11:54:34Z</time>
      </trkpt>
      <trkpt lat="43.285368969663978" lon="-5.558124985545874">
        <ele>517.33000000000004</ele>
        <time>2025-04-29T11:54:35Z</time>
      </trkpt>
      <trkpt lat="43.285323958843946" lon="-5.558232022449374">
        <ele>516.85000000000002</ele>
        <time>2025-04-29T11:54:36Z</time>
      </trkpt>
      <trkpt lat="43.285322031006217" lon="-5.558354984968901">
        <ele>516.37</ele>
        <time>2025-04-29T11:54:37Z</time>
      </trkpt>
      <trkpt lat="43.285326976329088" lon="-5.558475013822317">
        <ele>515.88</ele>
        <time>2025-04-29T11:54:38Z</time>
      </trkpt>
      <trkpt lat="43.285333011299372" lon="-5.558613985776901">
        <ele>515.39999999999998</ele>
        <time>2025-04-29T11:54:39Z</time>
      </trkpt>
      <trkpt lat="43.285341979935765" lon="-5.558767039328814">
        <ele>514.44000000000005</ele>
        <time>2025-04-29T11:54:40Z</time>
      </trkpt>
      <trkpt lat="43.285390008240938" lon="-5.558905005455017">
        <ele>513.48000000000002</ele>
        <time>2025-04-29T11:54:41Z</time>
      </trkpt>
      <trkpt lat="43.285438036546111" lon="-5.559044983237982">
        <ele>513</ele>
        <time>2025-04-29T11:54:42Z</time>
      </trkpt>
      <trkpt lat="43.285484975203872" lon="-5.559181021526456">
        <ele>512.51999999999998</ele>
        <time>2025-04-29T11:54:43Z</time>
      </trkpt>
      <trkpt lat="43.285533003509045" lon="-5.559317981824279">
        <ele>511.56</ele>
        <time>2025-04-29T11:54:44Z</time>
      </trkpt>
      <trkpt lat="43.285533003509045" lon="-5.559415966272354">
        <ele>511.07999999999998</ele>
        <time>2025-04-29T11:54:45Z</time>
      </trkpt>
      <trkpt lat="43.285504002124071" lon="-5.559568013995886">
        <ele>510.60000000000002</ele>
        <time>2025-04-29T11:54:46Z</time>
      </trkpt>
      <trkpt lat="43.285430995747447" lon="-5.559659041464329">
        <ele>510.12</ele>
        <time>2025-04-29T11:54:47Z</time>
      </trkpt>
      <trkpt lat="43.285320019349456" lon="-5.559761971235275">
        <ele>510.12</ele>
        <time>2025-04-29T11:54:48Z</time>
      </trkpt>
      <trkpt lat="43.285205019637942" lon="-5.559802958741784">
        <ele>510.12</ele>
        <time>2025-04-29T11:54:49Z</time>
      </trkpt>
      <trkpt lat="43.285084990784526" lon="-5.559846041724086">
        <ele>510.12</ele>
        <time>2025-04-29T11:54:50Z</time>
      </trkpt>
      <trkpt lat="43.284756001085043" lon="-5.559992976486683">
        <ele>509.63999999999999</ele>
        <time>2025-04-29T11:54:53Z</time>
      </trkpt>
      <trkpt lat="43.284649970009923" lon="-5.560076041147113">
        <ele>510.12</ele>
        <time>2025-04-29T11:54:54Z</time>
      </trkpt>
      <trkpt lat="43.284570006653666" lon="-5.560186011716723">
        <ele>510.60000000000002</ele>
        <time>2025-04-29T11:54:55Z</time>
      </trkpt>
      <trkpt lat="43.284085029736161" lon="-5.560862012207508">
        <ele>510.12</ele>
        <time>2025-04-29T11:55:00Z</time>
      </trkpt>
      <trkpt lat="43.283970030024648" lon="-5.560937030240893">
        <ele>509.63999999999999</ele>
        <time>2025-04-29T11:55:01Z</time>
      </trkpt>
      <trkpt lat="43.283881014212966" lon="-5.560969971120358">
        <ele>509.63999999999999</ele>
        <time>2025-04-29T11:55:02Z</time>
      </trkpt>
      <trkpt lat="43.283810019493103" lon="-5.560910040512681">
        <ele>509.16000000000003</ele>
        <time>2025-04-29T11:55:03Z</time>
      </trkpt>
      <trkpt lat="43.283732989802957" lon="-5.56084600277245">
        <ele>509.16000000000003</ele>
        <time>2025-04-29T11:55:04Z</time>
      </trkpt>
      <trkpt lat="43.283647997304797" lon="-5.560772996395826">
        <ele>508.67000000000002</ele>
        <time>2025-04-29T11:55:05Z</time>
      </trkpt>
      <trkpt lat="43.283556969836354" lon="-5.56069596670568">
        <ele>508.19</ele>
        <time>2025-04-29T11:55:06Z</time>
      </trkpt>
      <trkpt lat="43.283468037843704" lon="-5.560620026662946">
        <ele>507.70999999999998</ele>
        <time>2025-04-29T11:55:07Z</time>
      </trkpt>
      <trkpt lat="43.283366030082107" lon="-5.560614997521043">
        <ele>507.23000000000002</ele>
        <time>2025-04-29T11:55:08Z</time>
      </trkpt>
      <trkpt lat="43.283251030370593" lon="-5.560627989470959">
        <ele>506.26999999999998</ele>
        <time>2025-04-29T11:55:09Z</time>
      </trkpt>
      <trkpt lat="43.283120021224022" lon="-5.560642993077636">
        <ele>505.31</ele>
        <time>2025-04-29T11:55:10Z</time>
      </trkpt>
      <trkpt lat="43.282981971278787" lon="-5.560659002512693">
        <ele>504.35000000000002</ele>
        <time>2025-04-29T11:55:11Z</time>
      </trkpt>
      <trkpt lat="43.282700004056096" lon="-5.560691021382809">
        <ele>502.91000000000003</ele>
        <time>2025-04-29T11:55:13Z</time>
      </trkpt>
      <trkpt lat="43.282556002959609" lon="-5.560659002512693">
        <ele>501.94999999999999</ele>
        <time>2025-04-29T11:55:14Z</time>
      </trkpt>
      <trkpt lat="43.282448966056108" lon="-5.560574010014534">
        <ele>500.98000000000002</ele>
        <time>2025-04-29T11:55:15Z</time>
      </trkpt>
      <trkpt lat="43.282351987436414" lon="-5.560449035838246">
        <ele>499.54000000000002</ele>
        <time>2025-04-29T11:55:16Z</time>
      </trkpt>
      <trkpt lat="43.282246962189674" lon="-5.560315009206533">
        <ele>498.57999999999998</ele>
        <time>2025-04-29T11:55:17Z</time>
      </trkpt>
      <trkpt lat="43.28161396086216" lon="-5.559530965983868">
        <ele>490.41000000000003</ele>
        <time>2025-04-29T11:55:23Z</time>
      </trkpt>
      <trkpt lat="43.281519999727607" lon="-5.559517974033952">
        <ele>488.97000000000003</ele>
        <time>2025-04-29T11:55:24Z</time>
      </trkpt>
      <trkpt lat="43.281411034986377" lon="-5.559540018439293">
        <ele>487.52999999999997</ele>
        <time>2025-04-29T11:55:25Z</time>
      </trkpt>
      <trkpt lat="43.281300980597734" lon="-5.559588968753815">
        <ele>485.60000000000002</ele>
        <time>2025-04-29T11:55:26Z</time>
      </trkpt>
      <trkpt lat="43.281179023906589" lon="-5.559644037857652">
        <ele>484.63999999999999</ele>
        <time>2025-04-29T11:55:27Z</time>
      </trkpt>
      <trkpt lat="43.280247040092945" lon="-5.560069000348449">
        <ele>475.50999999999999</ele>
        <time>2025-04-29T11:55:34Z</time>
      </trkpt>
      <trkpt lat="43.280210997909307" lon="-5.560185005888343">
        <ele>474.06999999999999</ele>
        <time>2025-04-29T11:55:35Z</time>
      </trkpt>
      <trkpt lat="43.280218038707972" lon="-5.560305034741759">
        <ele>473.58999999999997</ele>
        <time>2025-04-29T11:55:36Z</time>
      </trkpt>
      <trkpt lat="43.280257014557719" lon="-5.560422968119383">
        <ele>472.63</ele>
        <time>2025-04-29T11:55:37Z</time>
      </trkpt>
      <trkpt lat="43.280300013720989" lon="-5.560550037771463">
        <ele>472.13999999999999</ele>
        <time>2025-04-29T11:55:38Z</time>
      </trkpt>
      <trkpt lat="43.280725982040167" lon="-5.561786033213139">
        <ele>470.69999999999999</ele>
        <time>2025-04-29T11:55:46Z</time>
      </trkpt>
      <trkpt lat="43.280911976471543" lon="-5.562239997088909">
        <ele>471.18000000000001</ele>
        <time>2025-04-29T11:55:49Z</time>
      </trkpt>
      <trkpt lat="43.280891021713614" lon="-5.5623700004071">
        <ele>471.18000000000001</ele>
        <time>2025-04-29T11:55:50Z</time>
      </trkpt>
      <trkpt lat="43.280851040035486" lon="-5.562447030097246">
        <ele>471.18000000000001</ele>
        <time>2025-04-29T11:55:51Z</time>
      </trkpt>
      <trkpt lat="43.280756995081902" lon="-5.562512995675206">
        <ele>471.66000000000003</ele>
        <time>2025-04-29T11:55:52Z</time>
      </trkpt>
      <trkpt lat="43.280654987320304" lon="-5.562582984566689">
        <ele>471.66000000000003</ele>
        <time>2025-04-29T11:55:53Z</time>
      </trkpt>
      <trkpt lat="43.280536970123649" lon="-5.562646016478539">
        <ele>471.66000000000003</ele>
        <time>2025-04-29T11:55:54Z</time>
      </trkpt>
      <trkpt lat="43.28041099011898" lon="-5.562711982056499">
        <ele>471.18000000000001</ele>
        <time>2025-04-29T11:55:55Z</time>
      </trkpt>
      <trkpt lat="43.280296996235847" lon="-5.562773002311587">
        <ele>470.69999999999999</ele>
        <time>2025-04-29T11:55:56Z</time>
      </trkpt>
      <trkpt lat="43.280232036486268" lon="-5.562880039215088">
        <ele>469.74000000000001</ele>
        <time>2025-04-29T11:55:57Z</time>
      </trkpt>
      <trkpt lat="43.280204962939024" lon="-5.563006019219756">
        <ele>469.25999999999999</ele>
        <time>2025-04-29T11:55:58Z</time>
      </trkpt>
      <trkpt lat="43.280145032331347" lon="-5.563283041119576">
        <ele>467.81999999999999</ele>
        <time>2025-04-29T11:56:00Z</time>
      </trkpt>
      <trkpt lat="43.28008996322751" lon="-5.56340198032558">
        <ele>467.33999999999997</ele>
        <time>2025-04-29T11:56:01Z</time>
      </trkpt>
      <trkpt lat="43.280017962679267" lon="-5.563458977267146">
        <ele>466.38</ele>
        <time>2025-04-29T11:56:02Z</time>
      </trkpt>
      <trkpt lat="43.27991696074605" lon="-5.563442967832089">
        <ele>464.93000000000001</ele>
        <time>2025-04-29T11:56:03Z</time>
      </trkpt>
      <trkpt lat="43.279801039025187" lon="-5.563400974497199">
        <ele>463.49000000000001</ele>
        <time>2025-04-29T11:56:04Z</time>
      </trkpt>
      <trkpt lat="43.279660977423191" lon="-5.563341965898871">
        <ele>462.05000000000001</ele>
        <time>2025-04-29T11:56:05Z</time>
      </trkpt>
      <trkpt lat="43.279384961351752" lon="-5.563183967024088">
        <ele>459.64999999999998</ele>
        <time>2025-04-29T11:56:07Z</time>
      </trkpt>
      <trkpt lat="43.279254036024213" lon="-5.563072990626097">
        <ele>458.20999999999998</ele>
        <time>2025-04-29T11:56:08Z</time>
      </trkpt>
      <trkpt lat="43.279006015509367" lon="-5.56290602311492">
        <ele>454.83999999999997</ele>
        <time>2025-04-29T11:56:10Z</time>
      </trkpt>
      <trkpt lat="43.27888498082757" lon="-5.562919015064836">
        <ele>454.36000000000001</ele>
        <time>2025-04-29T11:56:11Z</time>
      </trkpt>
      <trkpt lat="43.278751038014889" lon="-5.562933012843132">
        <ele>454.36000000000001</ele>
        <time>2025-04-29T11:56:12Z</time>
      </trkpt>
      <trkpt lat="43.278607958927751" lon="-5.562947010621429">
        <ele>454.36000000000001</ele>
        <time>2025-04-29T11:56:13Z</time>
      </trkpt>
      <trkpt lat="43.278477033600211" lon="-5.562961008399725">
        <ele>454.36000000000001</ele>
        <time>2025-04-29T11:56:14Z</time>
      </trkpt>
      <trkpt lat="43.278335966169834" lon="-5.562880039215088">
        <ele>454.36000000000001</ele>
        <time>2025-04-29T11:56:15Z</time>
      </trkpt>
      <trkpt lat="43.278220966458321" lon="-5.562775013968349">
        <ele>453.88</ele>
        <time>2025-04-29T11:56:16Z</time>
      </trkpt>
      <trkpt lat="43.278100015595555" lon="-5.562663031741977">
        <ele>453.39999999999998</ele>
        <time>2025-04-29T11:56:17Z</time>
      </trkpt>
      <trkpt lat="43.277915026992559" lon="-5.562493968755007">
        <ele>452.92000000000002</ele>
        <time>2025-04-29T11:56:19Z</time>
      </trkpt>
      <trkpt lat="43.277753004804254" lon="-5.562453987076879">
        <ele>452.44</ele>
        <time>2025-04-29T11:56:20Z</time>
      </trkpt>
      <trkpt lat="43.277673041447997" lon="-5.562486005946994">
        <ele>451.95999999999998</ele>
        <time>2025-04-29T11:56:21Z</time>
      </trkpt>
      <trkpt lat="43.277563992887735" lon="-5.562546020373702">
        <ele>451.95999999999998</ele>
        <time>2025-04-29T11:56:22Z</time>
      </trkpt>
      <trkpt lat="43.277452010661364" lon="-5.562676023691893">
        <ele>451.48000000000002</ele>
        <time>2025-04-29T11:56:23Z</time>
      </trkpt>
      <trkpt lat="43.277331981807947" lon="-5.562812983989716">
        <ele>451</ele>
        <time>2025-04-29T11:56:24Z</time>
      </trkpt>
      <trkpt lat="43.277199966832995" lon="-5.562966037541628">
        <ele>450.51999999999998</ele>
        <time>2025-04-29T11:56:25Z</time>
      </trkpt>
      <trkpt lat="43.276547016575933" lon="-5.563719989731908">
        <ele>448.11000000000001</ele>
        <time>2025-04-29T11:56:30Z</time>
      </trkpt>
      <trkpt lat="43.276190031319857" lon="-5.56413296610117">
        <ele>448.11000000000001</ele>
        <time>2025-04-29T11:56:33Z</time>
      </trkpt>
      <trkpt lat="43.276080982759595" lon="-5.564258024096489">
        <ele>447.63</ele>
        <time>2025-04-29T11:56:34Z</time>
      </trkpt>
      <trkpt lat="43.276048041880131" lon="-5.564295994117856">
        <ele>447.14999999999998</ele>
        <time>2025-04-29T11:56:35Z</time>
      </trkpt>
      <trkpt lat="43.276048041880131" lon="-5.56449699215591">
        <ele>446.67000000000002</ele>
        <time>2025-04-29T11:56:36Z</time>
      </trkpt>
      <trkpt lat="43.276066984981298" lon="-5.56460302323103">
        <ele>445.23000000000002</ele>
        <time>2025-04-29T11:56:37Z</time>
      </trkpt>
      <trkpt lat="43.276096992194653" lon="-5.564749035984278">
        <ele>444.26999999999998</ele>
        <time>2025-04-29T11:56:38Z</time>
      </trkpt>
      <trkpt lat="43.276129011064768" lon="-5.564899994060397">
        <ele>442.33999999999997</ele>
        <time>2025-04-29T11:56:39Z</time>
      </trkpt>
      <trkpt lat="43.276159018278122" lon="-5.565045000985265">
        <ele>440.42000000000002</ele>
        <time>2025-04-29T11:56:40Z</time>
      </trkpt>
      <trkpt lat="43.27613496221602" lon="-5.565230995416641">
        <ele>438.5</ele>
        <time>2025-04-29T11:56:41Z</time>
      </trkpt>
      <trkpt lat="43.27604603022337" lon="-5.565350018441677">
        <ele>436.57999999999998</ele>
        <time>2025-04-29T11:56:42Z</time>
      </trkpt>
      <trkpt lat="43.275951985269785" lon="-5.56544397957623">
        <ele>434.64999999999998</ele>
        <time>2025-04-29T11:56:43Z</time>
      </trkpt>
      <trkpt lat="43.275806978344917" lon="-5.565651012584567">
        <ele>431.29000000000002</ele>
        <time>2025-04-29T11:56:45Z</time>
      </trkpt>
      <trkpt lat="43.275794992223382" lon="-5.565791996195912">
        <ele>429.85000000000002</ele>
        <time>2025-04-29T11:56:46Z</time>
      </trkpt>
      <trkpt lat="43.275803038850427" lon="-5.565927028656006">
        <ele>428.39999999999998</ele>
        <time>2025-04-29T11:56:47Z</time>
      </trkpt>
      <trkpt lat="43.275822987779975" lon="-5.566069018095732">
        <ele>426.95999999999998</ele>
        <time>2025-04-29T11:56:48Z</time>
      </trkpt>
      <trkpt lat="43.275819970294833" lon="-5.566175971180201">
        <ele>425.51999999999998</ele>
        <time>2025-04-29T11:56:49Z</time>
      </trkpt>
      <trkpt lat="43.27579096890986" lon="-5.566248977556825">
        <ele>424.07999999999998</ele>
        <time>2025-04-29T11:56:50Z</time>
      </trkpt>
      <trkpt lat="43.275773031637073" lon="-5.566241014748812">
        <ele>422.63999999999999</ele>
        <time>2025-04-29T11:56:51Z</time>
      </trkpt>
      <trkpt lat="43.27570203691721" lon="-5.566211007535458">
        <ele>421.68000000000001</ele>
        <time>2025-04-29T11:56:52Z</time>
      </trkpt>
      <trkpt lat="43.275641016662121" lon="-5.566185023635626">
        <ele>421.19</ele>
        <time>2025-04-29T11:56:53Z</time>
      </trkpt>
      <trkpt lat="43.27559701167047" lon="-5.566068012267351">
        <ele>420.23000000000002</ele>
        <time>2025-04-29T11:56:54Z</time>
      </trkpt>
      <trkpt lat="43.275546971708536" lon="-5.565933985635638">
        <ele>419.26999999999998</ele>
        <time>2025-04-29T11:56:55Z</time>
      </trkpt>
      <trkpt lat="43.275516964495182" lon="-5.565783027559519">
        <ele>418.79000000000002</ele>
        <time>2025-04-29T11:56:56Z</time>
      </trkpt>
      <trkpt lat="43.27553004026413" lon="-5.56563600897789">
        <ele>416.87</ele>
        <time>2025-04-29T11:56:57Z</time>
      </trkpt>
      <trkpt lat="43.275583013892174" lon="-5.565504999831319">
        <ele>415.91000000000003</ele>
        <time>2025-04-29T11:56:58Z</time>
      </trkpt>
      <trkpt lat="43.275712011381984" lon="-5.565247004851699">
        <ele>414.47000000000003</ele>
        <time>2025-04-29T11:57:00Z</time>
      </trkpt>
      <trkpt lat="43.27576900832355" lon="-5.565133010968566">
        <ele>413.5</ele>
        <time>2025-04-29T11:57:01Z</time>
      </trkpt>
      <trkpt lat="43.275743024423718" lon="-5.565000995993614">
        <ele>412.54000000000002</ele>
        <time>2025-04-29T11:57:02Z</time>
      </trkpt>
      <trkpt lat="43.275702958926558" lon="-5.564866969361901">
        <ele>411.57999999999998</ele>
        <time>2025-04-29T11:57:03Z</time>
      </trkpt>
      <trkpt lat="43.275637999176979" lon="-5.564722968265414">
        <ele>410.62</ele>
        <time>2025-04-29T11:57:04Z</time>
      </trkpt>
      <trkpt lat="43.275574967265129" lon="-5.564581984654069">
        <ele>409.66000000000003</ele>
        <time>2025-04-29T11:57:05Z</time>
      </trkpt>
      <trkpt lat="43.27553004026413" lon="-5.564439995214343">
        <ele>408.22000000000003</ele>
        <time>2025-04-29T11:57:06Z</time>
      </trkpt>
      <trkpt lat="43.275519981980324" lon="-5.564307980239391">
        <ele>407.25999999999999</ele>
        <time>2025-04-29T11:57:07Z</time>
      </trkpt>
      <trkpt lat="43.275528028607368" lon="-5.564164984971285">
        <ele>406.29000000000002</ele>
        <time>2025-04-29T11:57:08Z</time>
      </trkpt>
      <trkpt lat="43.275593994185328" lon="-5.564069012179971">
        <ele>404.85000000000002</ele>
        <time>2025-04-29T11:57:09Z</time>
      </trkpt>
      <trkpt lat="43.275674963369966" lon="-5.563952000811696">
        <ele>403.88999999999999</ele>
        <time>2025-04-29T11:57:10Z</time>
      </trkpt>
      <trkpt lat="43.275760961696506" lon="-5.563827026635408">
        <ele>402.44999999999999</ele>
        <time>2025-04-29T11:57:11Z</time>
      </trkpt>
      <trkpt lat="43.275846960023046" lon="-5.56370297446847">
        <ele>401.00999999999999</ele>
        <time>2025-04-29T11:57:12Z</time>
      </trkpt>
      <trkpt lat="43.275928013026714" lon="-5.563585963100195">
        <ele>399.56999999999999</ele>
        <time>2025-04-29T11:57:13Z</time>
      </trkpt>
      <trkpt lat="43.275950979441404" lon="-5.563468029722571">
        <ele>398.60000000000002</ele>
        <time>2025-04-29T11:57:14Z</time>
      </trkpt>
      <trkpt lat="43.275964977219701" lon="-5.563339032232761">
        <ele>397.16000000000003</ele>
        <time>2025-04-29T11:57:15Z</time>
      </trkpt>
      <trkpt lat="43.275977969169617" lon="-5.563210034742951">
        <ele>396.19999999999999</ele>
        <time>2025-04-29T11:57:16Z</time>
      </trkpt>
      <trkpt lat="43.276018034666777" lon="-5.563073996454477">
        <ele>395.24000000000001</ele>
        <time>2025-04-29T11:57:17Z</time>
      </trkpt>
      <trkpt lat="43.27607000246644" lon="-5.562943993136287">
        <ele>393.80000000000001</ele>
        <time>2025-04-29T11:57:18Z</time>
      </trkpt>
      <trkpt lat="43.276182990521193" lon="-5.562831005081534">
        <ele>392.83999999999997</ele>
        <time>2025-04-29T11:57:19Z</time>
      </trkpt>
      <trkpt lat="43.276294972747564" lon="-5.562719022855163">
        <ele>391.87</ele>
        <time>2025-04-29T11:57:20Z</time>
      </trkpt>
      <trkpt lat="43.2764139957726" lon="-5.562599999830127">
        <ele>390.91000000000003</ele>
        <time>2025-04-29T11:57:21Z</time>
      </trkpt>
      <trkpt lat="43.276532012969255" lon="-5.562481982633472">
        <ele>389.94999999999999</ele>
        <time>2025-04-29T11:57:22Z</time>
      </trkpt>
      <trkpt lat="43.276637960225344" lon="-5.562356002628803">
        <ele>388.99000000000001</ele>
        <time>2025-04-29T11:57:23Z</time>
      </trkpt>
      <trkpt lat="43.276712978258729" lon="-5.562235973775387">
        <ele>388.02999999999997</ele>
        <time>2025-04-29T11:57:24Z</time>
      </trkpt>
      <trkpt lat="43.276712978258729" lon="-5.562109993770719">
        <ele>387.06999999999999</ele>
        <time>2025-04-29T11:57:25Z</time>
      </trkpt>
      <trkpt lat="43.276712978258729" lon="-5.562000023201108">
        <ele>386.11000000000001</ele>
        <time>2025-04-29T11:57:26Z</time>
      </trkpt>
      <trkpt lat="43.276679031550884" lon="-5.561917964369059">
        <ele>385.14999999999998</ele>
        <time>2025-04-29T11:57:27Z</time>
      </trkpt>
      <trkpt lat="43.276633014902472" lon="-5.561807993799448">
        <ele>383.69999999999999</ele>
        <time>2025-04-29T11:57:28Z</time>
      </trkpt>
      <trkpt lat="43.276612982153893" lon="-5.561686959117651">
        <ele>381.77999999999997</ele>
        <time>2025-04-29T11:57:29Z</time>
      </trkpt>
      <trkpt lat="43.27662798576057" lon="-5.561571037396789">
        <ele>380.33999999999997</ele>
        <time>2025-04-29T11:57:30Z</time>
      </trkpt>
      <trkpt lat="43.276711972430348" lon="-5.561514962464571">
        <ele>378.89999999999998</ele>
        <time>2025-04-29T11:57:31Z</time>
      </trkpt>
      <trkpt lat="43.276780033484101" lon="-5.561469029635191">
        <ele>377.44999999999999</ele>
        <time>2025-04-29T11:57:32Z</time>
      </trkpt>
      <trkpt lat="43.276884974911809" lon="-5.561399962753058">
        <ele>376.00999999999999</ele>
        <time>2025-04-29T11:57:33Z</time>
      </trkpt>
      <trkpt lat="43.27697197906673" lon="-5.561370039358735">
        <ele>375.05000000000001</ele>
        <time>2025-04-29T11:57:34Z</time>
      </trkpt>
      <trkpt lat="43.277494003996253" lon="-5.56118999607861">
        <ele>370.73000000000002</ele>
        <time>2025-04-29T11:57:38Z</time>
      </trkpt>
      <trkpt lat="43.277639010921121" lon="-5.561179015785456">
        <ele>369.27999999999997</ele>
        <time>2025-04-29T11:57:39Z</time>
      </trkpt>
      <trkpt lat="43.277769014239311" lon="-5.561172980815172">
        <ele>368.31999999999999</ele>
        <time>2025-04-29T11:57:40Z</time>
      </trkpt>
      <trkpt lat="43.277878984808922" lon="-5.561168035492301">
        <ele>366.88</ele>
        <time>2025-04-29T11:57:41Z</time>
      </trkpt>
      <trkpt lat="43.277968000620604" lon="-5.561164012178779">
        <ele>365.44</ele>
        <time>2025-04-29T11:57:42Z</time>
      </trkpt>
      <trkpt lat="43.277989961206913" lon="-5.561139034107328">
        <ele>364</ele>
        <time>2025-04-29T11:57:43Z</time>
      </trkpt>
      <trkpt lat="43.278018962591887" lon="-5.561071978881955">
        <ele>362.55000000000001</ele>
        <time>2025-04-29T11:57:44Z</time>
      </trkpt>
      <trkpt lat="43.278034972026944" lon="-5.561033003032208">
        <ele>361.58999999999997</ele>
        <time>2025-04-29T11:57:45Z</time>
      </trkpt>
      <trkpt lat="43.278032038360834" lon="-5.56103996001184">
        <ele>360.14999999999998</ele>
        <time>2025-04-29T11:57:46Z</time>
      </trkpt>
      <trkpt lat="43.278023991733789" lon="-5.56099402718246">
        <ele>358.23000000000002</ele>
        <time>2025-04-29T11:57:47Z</time>
      </trkpt>
      <trkpt lat="43.277890970930457" lon="-5.560937030240893">
        <ele>356.79000000000002</ele>
        <time>2025-04-29T11:57:48Z</time>
      </trkpt>
      <trkpt lat="43.277758033946157" lon="-5.560954967513681">
        <ele>355.33999999999997</ele>
        <time>2025-04-29T11:57:49Z</time>
      </trkpt>
      <trkpt lat="43.27761503867805" lon="-5.56097500026226">
        <ele>354.38</ele>
        <time>2025-04-29T11:57:50Z</time>
      </trkpt>
      <trkpt lat="43.27746600843966" lon="-5.56099503301084">
        <ele>352.94</ele>
        <time>2025-04-29T11:57:51Z</time>
      </trkpt>
      <trkpt lat="43.277307003736496" lon="-5.56101799942553">
        <ele>351.5</ele>
        <time>2025-04-29T11:57:52Z</time>
      </trkpt>
      <trkpt lat="43.276382982730865" lon="-5.561110032722354">
        <ele>344.29000000000002</ele>
        <time>2025-04-29T11:57:58Z</time>
      </trkpt>
      <trkpt lat="43.27622196637094" lon="-5.561184966936708">
        <ele>343.81</ele>
        <time>2025-04-29T11:57:59Z</time>
      </trkpt>
      <trkpt lat="43.276120964437723" lon="-5.56129896081984">
        <ele>342.85000000000002</ele>
        <time>2025-04-29T11:58:00Z</time>
      </trkpt>
      <trkpt lat="43.276031026616693" lon="-5.561481015756726">
        <ele>341.88999999999999</ele>
        <time>2025-04-29T11:58:01Z</time>
      </trkpt>
      <trkpt lat="43.2759840041399" lon="-5.561633985489607">
        <ele>340.92000000000002</ele>
        <time>2025-04-29T11:58:02Z</time>
      </trkpt>
      <trkpt lat="43.275938993319869" lon="-5.561778992414475">
        <ele>339.95999999999998</ele>
        <time>2025-04-29T11:58:03Z</time>
      </trkpt>
      <trkpt lat="43.275890965014696" lon="-5.561932967975736">
        <ele>338.51999999999998</ele>
        <time>2025-04-29T11:58:04Z</time>
      </trkpt>
      <trkpt lat="43.27581200748682" lon="-5.562073029577732">
        <ele>337.56</ele>
        <time>2025-04-29T11:58:05Z</time>
      </trkpt>
      <trkpt lat="43.275707988068461" lon="-5.562223987653852">
        <ele>336.60000000000002</ele>
        <time>2025-04-29T11:58:06Z</time>
      </trkpt>
      <trkpt lat="43.274901984259486" lon="-5.562991015613079">
        <ele>332.26999999999998</ele>
        <time>2025-04-29T11:58:12Z</time>
      </trkpt>
      <trkpt lat="43.27426697127521" lon="-5.563695011660457">
        <ele>326.5</ele>
        <time>2025-04-29T11:58:17Z</time>
      </trkpt>
      <trkpt lat="43.273902023211122" lon="-5.564017966389656">
        <ele>322.18000000000001</ele>
        <time>2025-04-29T11:58:20Z</time>
      </trkpt>
      <trkpt lat="43.273825999349356" lon="-5.564157022163272">
        <ele>320.74000000000001</ele>
        <time>2025-04-29T11:58:21Z</time>
      </trkpt>
      <trkpt lat="43.27377101406455" lon="-5.564315021038055">
        <ele>318.81</ele>
        <time>2025-04-29T11:58:22Z</time>
      </trkpt>
      <trkpt lat="43.27353497967124" lon="-5.564979035407305">
        <ele>311.60000000000002</ele>
        <time>2025-04-29T11:58:26Z</time>
      </trkpt>
      <trkpt lat="43.273474965244532" lon="-5.565124964341521">
        <ele>310.16000000000003</ele>
        <time>2025-04-29T11:58:27Z</time>
      </trkpt>
      <trkpt lat="43.272919999435544" lon="-5.566049991175532">
        <ele>300.06999999999999</ele>
        <time>2025-04-29T11:58:36Z</time>
      </trkpt>
      <trkpt lat="43.272362016141415" lon="-5.566982980817556">
        <ele>297.18000000000001</ele>
        <time>2025-04-29T11:58:45Z</time>
      </trkpt>
      <trkpt lat="43.272300995886326" lon="-5.567080965265632">
        <ele>296.69999999999999</ele>
        <time>2025-04-29T11:58:46Z</time>
      </trkpt>
      <trkpt lat="43.272190019488335" lon="-5.567280035465956">
        <ele>296.69999999999999</ele>
        <time>2025-04-29T11:58:48Z</time>
      </trkpt>
      <trkpt lat="43.27209304086864" lon="-5.567503999918699">
        <ele>297.18000000000001</ele>
        <time>2025-04-29T11:58:50Z</time>
      </trkpt>
      <trkpt lat="43.272053981199861" lon="-5.567632997408509">
        <ele>296.69999999999999</ele>
        <time>2025-04-29T11:58:51Z</time>
      </trkpt>
      <trkpt lat="43.271805960685015" lon="-5.568489963188767">
        <ele>296.22000000000003</ele>
        <time>2025-04-29T11:58:57Z</time>
      </trkpt>
      <trkpt lat="43.271737983450294" lon="-5.568626001477242">
        <ele>296.22000000000003</ele>
        <time>2025-04-29T11:58:58Z</time>
      </trkpt>
      <trkpt lat="43.271660031750798" lon="-5.568735972046852">
        <ele>295.74000000000001</ele>
        <time>2025-04-29T11:58:59Z</time>
      </trkpt>
      <trkpt lat="43.271546037867665" lon="-5.568805038928986">
        <ele>295.74000000000001</ele>
        <time>2025-04-29T11:59:00Z</time>
      </trkpt>
      <trkpt lat="43.271430032327771" lon="-5.568874021992087">
        <ele>295.74000000000001</ele>
        <time>2025-04-29T11:59:01Z</time>
      </trkpt>
      <trkpt lat="43.271316038444638" lon="-5.568941999226809">
        <ele>295.74000000000001</ele>
        <time>2025-04-29T11:59:02Z</time>
      </trkpt>
      <trkpt lat="43.27022303827107" lon="-5.569406021386385">
        <ele>294.77999999999997</ele>
        <time>2025-04-29T11:59:11Z</time>
      </trkpt>
      <trkpt lat="43.270108960568905" lon="-5.569456983357668">
        <ele>294.77999999999997</ele>
        <time>2025-04-29T11:59:12Z</time>
      </trkpt>
      <trkpt lat="43.268882017582655" lon="-5.569962998852134">
        <ele>292.38</ele>
        <time>2025-04-29T11:59:23Z</time>
      </trkpt>
      <trkpt lat="43.268762994557619" lon="-5.570013960823417">
        <ele>292.38</ele>
        <time>2025-04-29T11:59:24Z</time>
      </trkpt>
      <trkpt lat="43.267981968820095" lon="-5.570364994928241">
        <ele>290.45999999999998</ele>
        <time>2025-04-29T11:59:31Z</time>
      </trkpt>
      <trkpt lat="43.267889013513923" lon="-5.570432972162962">
        <ele>289.97000000000003</ele>
        <time>2025-04-29T11:59:32Z</time>
      </trkpt>
      <trkpt lat="43.267815001308918" lon="-5.570515030995011">
        <ele>289.00999999999999</ele>
        <time>2025-04-29T11:59:33Z</time>
      </trkpt>
      <trkpt lat="43.267768984660506" lon="-5.570632964372635">
        <ele>288.52999999999997</ele>
        <time>2025-04-29T11:59:34Z</time>
      </trkpt>
      <trkpt lat="43.267721962183714" lon="-5.570766991004348">
        <ele>287.56999999999999</ele>
        <time>2025-04-29T11:59:35Z</time>
      </trkpt>
      <trkpt lat="43.267718022689223" lon="-5.570914009585977">
        <ele>287.08999999999997</ele>
        <time>2025-04-29T11:59:36Z</time>
      </trkpt>
      <trkpt lat="43.26771299354732" lon="-5.571060022339225">
        <ele>286.61000000000001</ele>
        <time>2025-04-29T11:59:37Z</time>
      </trkpt>
      <trkpt lat="43.267705030739307" lon="-5.571345007047057">
        <ele>285.17000000000002</ele>
        <time>2025-04-29T11:59:39Z</time>
      </trkpt>
      <trkpt lat="43.267697989940643" lon="-5.571467969566584">
        <ele>284.20999999999998</ele>
        <time>2025-04-29T11:59:40Z</time>
      </trkpt>
      <trkpt lat="43.2676259893924" lon="-5.571556985378265">
        <ele>283.25</ele>
        <time>2025-04-29T11:59:41Z</time>
      </trkpt>
      <trkpt lat="43.267530016601086" lon="-5.571678020060062">
        <ele>282.76999999999998</ele>
        <time>2025-04-29T11:59:42Z</time>
      </trkpt>
      <trkpt lat="43.267447035759687" lon="-5.571726970374584">
        <ele>282.76999999999998</ele>
        <time>2025-04-29T11:59:43Z</time>
      </trkpt>
      <trkpt lat="43.266463000327349" lon="-5.572314960882068">
        <ele>280.83999999999997</ele>
        <time>2025-04-29T11:59:51Z</time>
      </trkpt>
      <trkpt lat="43.266058992594481" lon="-5.572562981396914">
        <ele>280.83999999999997</ele>
        <time>2025-04-29T11:59:54Z</time>
      </trkpt>
      <trkpt lat="43.264589980244637" lon="-5.573124988004565">
        <ele>282.27999999999997</ele>
        <time>2025-04-29T12:00:04Z</time>
      </trkpt>
      <trkpt lat="43.264294015243649" lon="-5.573234036564827">
        <ele>282.27999999999997</ele>
        <time>2025-04-29T12:00:06Z</time>
      </trkpt>
      <trkpt lat="43.263378040865064" lon="-5.573666961863637">
        <ele>281.80000000000001</ele>
        <time>2025-04-29T12:00:14Z</time>
      </trkpt>
      <trkpt lat="43.263202020898461" lon="-5.57375798933208">
        <ele>281.31999999999999</ele>
        <time>2025-04-29T12:00:16Z</time>
      </trkpt>
      <trkpt lat="43.262556027621031" lon="-5.574092008173466">
        <ele>280.36000000000001</ele>
        <time>2025-04-29T12:00:22Z</time>
      </trkpt>
      <trkpt lat="43.262343965470791" lon="-5.574204996228218">
        <ele>279.88</ele>
        <time>2025-04-29T12:00:24Z</time>
      </trkpt>
      <trkpt lat="43.262236006557941" lon="-5.574261993169785">
        <ele>280.36000000000001</ele>
        <time>2025-04-29T12:00:25Z</time>
      </trkpt>
      <trkpt lat="43.261928977444768" lon="-5.57442401535809">
        <ele>280.36000000000001</ele>
        <time>2025-04-29T12:00:28Z</time>
      </trkpt>
      <trkpt lat="43.26184599660337" lon="-5.574468020349741">
        <ele>280.36000000000001</ele>
        <time>2025-04-29T12:00:29Z</time>
      </trkpt>
      <trkpt lat="43.261775001883507" lon="-5.574505990371108">
        <ele>280.36000000000001</ele>
        <time>2025-04-29T12:00:30Z</time>
      </trkpt>
      <trkpt lat="43.261646004393697" lon="-5.574573967605829">
        <ele>280.83999999999997</ele>
        <time>2025-04-29T12:00:36Z</time>
      </trkpt>
      <trkpt lat="43.261623959988356" lon="-5.574586037546396">
        <ele>280.83999999999997</ele>
        <time>2025-04-29T12:00:37Z</time>
      </trkpt>
      <trkpt lat="43.261624965816736" lon="-5.574715035036206">
        <ele>280.36000000000001</ele>
        <time>2025-04-29T12:00:38Z</time>
      </trkpt>
      <trkpt lat="43.261664025485516" lon="-5.574777983129025">
        <ele>280.36000000000001</ele>
        <time>2025-04-29T12:00:39Z</time>
      </trkpt>
      <trkpt lat="43.26171699911356" lon="-5.57485300116241">
        <ele>279.88</ele>
        <time>2025-04-29T12:00:40Z</time>
      </trkpt>
      <trkpt lat="43.261779025197029" lon="-5.57494000531733">
        <ele>279.39999999999998</ele>
        <time>2025-04-29T12:00:41Z</time>
      </trkpt>
      <trkpt lat="43.262478997930884" lon="-5.57592898607254">
        <ele>278.44</ele>
        <time>2025-04-29T12:00:49Z</time>
      </trkpt>
      <trkpt lat="43.262702040374279" lon="-5.576226962730289">
        <ele>278.44</ele>
        <time>2025-04-29T12:00:51Z</time>
      </trkpt>
      <trkpt lat="43.262811005115509" lon="-5.576382027938962">
        <ele>279.39999999999998</ele>
        <time>2025-04-29T12:00:52Z</time>
      </trkpt>
      <trkpt lat="43.263279972597957" lon="-5.577047970145941">
        <ele>281.80000000000001</ele>
        <time>2025-04-29T12:00:56Z</time>
      </trkpt>
      <trkpt lat="43.263387009501457" lon="-5.577199012041092">
        <ele>282.27999999999997</ele>
        <time>2025-04-29T12:00:57Z</time>
      </trkpt>
      <trkpt lat="43.263489017263055" lon="-5.577337983995676">
        <ele>283.25</ele>
        <time>2025-04-29T12:00:58Z</time>
      </trkpt>
      <trkpt lat="43.263581972569227" lon="-5.577465975657105">
        <ele>283.73000000000002</ele>
        <time>2025-04-29T12:00:59Z</time>
      </trkpt>
      <trkpt lat="43.263667970895767" lon="-5.577583992853761">
        <ele>283.73000000000002</ele>
        <time>2025-04-29T12:01:00Z</time>
      </trkpt>
      <trkpt lat="43.263750029727817" lon="-5.577694969251752">
        <ele>283.73000000000002</ele>
        <time>2025-04-29T12:01:01Z</time>
      </trkpt>
      <trkpt lat="43.264017999172211" lon="-5.57809503749013">
        <ele>284.69</ele>
        <time>2025-04-29T12:01:05Z</time>
      </trkpt>
      <trkpt lat="43.264116989448667" lon="-5.57822797447443">
        <ele>284.20999999999998</ele>
        <time>2025-04-29T12:01:07Z</time>
      </trkpt>
      <trkpt lat="43.264155965298414" lon="-5.578281031921506">
        <ele>284.20999999999998</ele>
        <time>2025-04-29T12:01:08Z</time>
      </trkpt>
      <trkpt lat="43.264193013310432" lon="-5.578329982236028">
        <ele>284.69</ele>
        <time>2025-04-29T12:01:09Z</time>
      </trkpt>
      <trkpt lat="43.264220003038645" lon="-5.578366024419665">
        <ele>285.64999999999998</ele>
        <time>2025-04-29T12:01:16Z</time>
      </trkpt>
      <trkpt lat="43.264220003038645" lon="-5.578366024419665">
        <ele>285.64999999999998</ele>
        <time>2025-04-29T12:01:58Z</time>
      </trkpt>
      <trkpt lat="43.264220003038645" lon="-5.578366024419665">
        <ele>285.64999999999998</ele>
        <time>2025-04-29T12:02:35Z</time>
      </trkpt>
      <trkpt lat="43.264220003038645" lon="-5.578366024419665">
        <ele>286.13</ele>
        <time>2025-04-29T12:03:13Z</time>
      </trkpt>
      <trkpt lat="43.264220003038645" lon="-5.578366024419665">
        <ele>286.13</ele>
        <time>2025-04-29T12:04:07Z</time>
      </trkpt>
      <trkpt lat="43.264220003038645" lon="-5.578366024419665">
        <ele>286.13</ele>
        <time>2025-04-29T12:05:02Z</time>
      </trkpt>
      <trkpt lat="43.264220003038645" lon="-5.578366024419665">
        <ele>273.14999999999998</ele>
        <time>2025-04-29T12:05:53Z</time>
      </trkpt>
      <trkpt lat="43.264220003038645" lon="-5.578366024419665">
        <ele>273.63</ele>
        <time>2025-04-29T12:06:49Z</time>
      </trkpt>
      <trkpt lat="43.264220003038645" lon="-5.578366024419665">
        <ele>274.11000000000001</ele>
        <time>2025-04-29T12:07:32Z</time>
      </trkpt>
      <trkpt lat="43.264220003038645" lon="-5.578366024419665">
        <ele>274.11000000000001</ele>
        <time>2025-04-29T12:08:17Z</time>
      </trkpt>
      <trkpt lat="43.264220003038645" lon="-5.578366024419665">
        <ele>274.11000000000001</ele>
        <time>2025-04-29T12:08:51Z</time>
      </trkpt>
      <trkpt lat="43.264215979725122" lon="-5.578360995277762">
        <ele>274.11000000000001</ele>
        <time>2025-04-29T12:08:55Z</time>
      </trkpt>
      <trkpt lat="43.264103997498751" lon="-5.578210959210992">
        <ele>274.11000000000001</ele>
        <time>2025-04-29T12:08:59Z</time>
      </trkpt>
      <trkpt lat="43.263942981138825" lon="-5.578153962269425">
        <ele>274.58999999999997</ele>
        <time>2025-04-29T12:09:00Z</time>
      </trkpt>
      <trkpt lat="43.263882966712117" lon="-5.57818103581667">
        <ele>274.58999999999997</ele>
        <time>2025-04-29T12:09:01Z</time>
      </trkpt>
      <trkpt lat="43.263852959498763" lon="-5.578316990286112">
        <ele>274.58999999999997</ele>
        <time>2025-04-29T12:09:02Z</time>
      </trkpt>
      <trkpt lat="43.263860000297427" lon="-5.578372981399298">
        <ele>274.58999999999997</ele>
        <time>2025-04-29T12:09:03Z</time>
      </trkpt>
      <trkpt lat="43.263860000297427" lon="-5.578372981399298">
        <ele>274.11000000000001</ele>
        <time>2025-04-29T12:09:04Z</time>
      </trkpt>
      <trkpt lat="43.263940969482064" lon="-5.578457973897457">
        <ele>274.11000000000001</ele>
        <time>2025-04-29T12:09:05Z</time>
      </trkpt>
      <trkpt lat="43.264022022485733" lon="-5.578543972223997">
        <ele>274.11000000000001</ele>
        <time>2025-04-29T12:09:06Z</time>
      </trkpt>
      <trkpt lat="43.264114977791905" lon="-5.578642962500453">
        <ele>273.63</ele>
        <time>2025-04-29T12:09:07Z</time>
      </trkpt>
      <trkpt lat="43.264518985524774" lon="-5.579032972455025">
        <ele>275.56</ele>
        <time>2025-04-29T12:09:11Z</time>
      </trkpt>
      <trkpt lat="43.264608001336455" lon="-5.579160964116454">
        <ele>276.51999999999998</ele>
        <time>2025-04-29T12:09:12Z</time>
      </trkpt>
      <trkpt lat="43.26468201354146" lon="-5.579289961606264">
        <ele>277</ele>
        <time>2025-04-29T12:09:13Z</time>
      </trkpt>
      <trkpt lat="43.264731969684362" lon="-5.579428011551499">
        <ele>277.95999999999998</ele>
        <time>2025-04-29T12:09:14Z</time>
      </trkpt>
      <trkpt lat="43.264758959412575" lon="-5.579594979062676">
        <ele>278.44</ele>
        <time>2025-04-29T12:09:15Z</time>
      </trkpt>
      <trkpt lat="43.264753008261323" lon="-5.579751972109079">
        <ele>279.39999999999998</ele>
        <time>2025-04-29T12:09:16Z</time>
      </trkpt>
      <trkpt lat="43.26474797911942" lon="-5.579913994297385">
        <ele>279.88</ele>
        <time>2025-04-29T12:09:17Z</time>
      </trkpt>
      <trkpt lat="43.264742027968168" lon="-5.580084985122085">
        <ele>280.36000000000001</ele>
        <time>2025-04-29T12:09:18Z</time>
      </trkpt>
      <trkpt lat="43.264584029093385" lon="-5.58076299726963">
        <ele>282.76999999999998</ele>
        <time>2025-04-29T12:09:22Z</time>
      </trkpt>
      <trkpt lat="43.264497024938464" lon="-5.581015041097999">
        <ele>283.25</ele>
        <time>2025-04-29T12:09:24Z</time>
      </trkpt>
      <trkpt lat="43.264528959989548" lon="-5.581202041357756">
        <ele>282.76999999999998</ele>
        <time>2025-04-29T12:09:25Z</time>
      </trkpt>
      <trkpt lat="43.264586040750146" lon="-5.581271024420857">
        <ele>282.27999999999997</ele>
        <time>2025-04-29T12:09:26Z</time>
      </trkpt>
      <trkpt lat="43.264658963307738" lon="-5.581359034404159">
        <ele>281.31999999999999</ele>
        <time>2025-04-29T12:09:27Z</time>
      </trkpt>
      <trkpt lat="43.264743033796549" lon="-5.581461964175105">
        <ele>280.36000000000001</ele>
        <time>2025-04-29T12:09:28Z</time>
      </trkpt>
      <trkpt lat="43.265337981283665" lon="-5.582450022920966">
        <ele>275.56</ele>
        <time>2025-04-29T12:09:34Z</time>
      </trkpt>
      <trkpt lat="43.266049018129706" lon="-5.584553964436054">
        <ele>270.75</ele>
        <time>2025-04-29T12:09:43Z</time>
      </trkpt>
      <trkpt lat="43.26616401784122" lon="-5.586579032242298">
        <ele>267.38</ele>
        <time>2025-04-29T12:09:50Z</time>
      </trkpt>
      <trkpt lat="43.266110038384795" lon="-5.58901296928525">
        <ele>265.94</ele>
        <time>2025-04-29T12:09:59Z</time>
      </trkpt>
      <trkpt lat="43.266150020062923" lon="-5.589287979528308">
        <ele>265.94</ele>
        <time>2025-04-29T12:10:00Z</time>
      </trkpt>
      <trkpt lat="43.266215985640883" lon="-5.589543962851167">
        <ele>266.42000000000002</ele>
        <time>2025-04-29T12:10:01Z</time>
      </trkpt>
      <trkpt lat="43.266283040866256" lon="-5.589802041649818">
        <ele>266.89999999999998</ele>
        <time>2025-04-29T12:10:02Z</time>
      </trkpt>
      <trkpt lat="43.266381025314331" lon="-5.590041009709239">
        <ele>267.38</ele>
        <time>2025-04-29T12:10:03Z</time>
      </trkpt>
      <trkpt lat="43.266497030854225" lon="-5.590264974161983">
        <ele>267.38</ele>
        <time>2025-04-29T12:10:04Z</time>
      </trkpt>
      <trkpt lat="43.266613958403468" lon="-5.590492961928248">
        <ele>267.86000000000001</ele>
        <time>2025-04-29T12:10:05Z</time>
      </trkpt>
      <trkpt lat="43.266747985035181" lon="-5.590701000764966">
        <ele>268.82999999999998</ele>
        <time>2025-04-29T12:10:06Z</time>
      </trkpt>
      <trkpt lat="43.266898021101952" lon="-5.590890012681484">
        <ele>269.31</ele>
        <time>2025-04-29T12:10:07Z</time>
      </trkpt>
      <trkpt lat="43.267059037461877" lon="-5.591057986021042">
        <ele>269.79000000000002</ele>
        <time>2025-04-29T12:10:08Z</time>
      </trkpt>
      <trkpt lat="43.26723899692297" lon="-5.591186983510852">
        <ele>270.26999999999998</ele>
        <time>2025-04-29T12:10:09Z</time>
      </trkpt>
      <trkpt lat="43.267419040203094" lon="-5.591314975172281">
        <ele>270.26999999999998</ele>
        <time>2025-04-29T12:10:10Z</time>
      </trkpt>
      <trkpt lat="43.267598999664187" lon="-5.59144196100533">
        <ele>270.75</ele>
        <time>2025-04-29T12:10:11Z</time>
      </trkpt>
      <trkpt lat="43.267794968560338" lon="-5.591513961553574">
        <ele>270.75</ele>
        <time>2025-04-29T12:10:12Z</time>
      </trkpt>
      <trkpt lat="43.268002001568675" lon="-5.59158998541534">
        <ele>270.75</ele>
        <time>2025-04-29T12:10:13Z</time>
      </trkpt>
      <trkpt lat="43.268200987949967" lon="-5.591609012335539">
        <ele>270.75</ele>
        <time>2025-04-29T12:10:14Z</time>
      </trkpt>
      <trkpt lat="43.268407015129924" lon="-5.591628961265087">
        <ele>270.75</ele>
        <time>2025-04-29T12:10:15Z</time>
      </trkpt>
      <trkpt lat="43.26861597597599" lon="-5.591602977365255">
        <ele>270.75</ele>
        <time>2025-04-29T12:10:16Z</time>
      </trkpt>
      <trkpt lat="43.268822003155947" lon="-5.591564001515508">
        <ele>270.75</ele>
        <time>2025-04-29T12:10:17Z</time>
      </trkpt>
      <trkpt lat="43.269029036164284" lon="-5.59152502566576">
        <ele>270.75</ele>
        <time>2025-04-29T12:10:18Z</time>
      </trkpt>
      <trkpt lat="43.270893003791571" lon="-5.591061003506184">
        <ele>267.86000000000001</ele>
        <time>2025-04-29T12:10:27Z</time>
      </trkpt>
      <trkpt lat="43.271100958809257" lon="-5.59109696187079">
        <ele>267.38</ele>
        <time>2025-04-29T12:10:28Z</time>
      </trkpt>
      <trkpt lat="43.271305980160832" lon="-5.59113996103406">
        <ele>266.89999999999998</ele>
        <time>2025-04-29T12:10:29Z</time>
      </trkpt>
      <trkpt lat="43.271503038704395" lon="-5.591213973239064">
        <ele>266.42000000000002</ele>
        <time>2025-04-29T12:10:30Z</time>
      </trkpt>
      <trkpt lat="43.271692972630262" lon="-5.591296032071114">
        <ele>266.42000000000002</ele>
        <time>2025-04-29T12:10:31Z</time>
      </trkpt>
      <trkpt lat="43.271876033395529" lon="-5.591412037611008">
        <ele>266.42000000000002</ele>
        <time>2025-04-29T12:10:32Z</time>
      </trkpt>
      <trkpt lat="43.272056998685002" lon="-5.591526031494141">
        <ele>266.89999999999998</ele>
        <time>2025-04-29T12:10:33Z</time>
      </trkpt>
      <trkpt lat="43.272228995338082" lon="-5.59167598374188">
        <ele>267.38</ele>
        <time>2025-04-29T12:10:34Z</time>
      </trkpt>
      <trkpt lat="43.272376013919711" lon="-5.591857032850385">
        <ele>267.38</ele>
        <time>2025-04-29T12:10:35Z</time>
      </trkpt>
      <trkpt lat="43.27252596616745" lon="-5.592046966776252">
        <ele>267.86000000000001</ele>
        <time>2025-04-29T12:10:36Z</time>
      </trkpt>
      <trkpt lat="43.272663010284305" lon="-5.592251988127828">
        <ele>268.35000000000002</ele>
        <time>2025-04-29T12:10:37Z</time>
      </trkpt>
      <trkpt lat="43.272802988067269" lon="-5.592462960630655">
        <ele>268.35000000000002</ele>
        <time>2025-04-29T12:10:38Z</time>
      </trkpt>
      <trkpt lat="43.272921005263925" lon="-5.592696983367205">
        <ele>268.35000000000002</ele>
        <time>2025-04-29T12:10:39Z</time>
      </trkpt>
      <trkpt lat="43.27303902246058" lon="-5.592932011932135">
        <ele>268.35000000000002</ele>
        <time>2025-04-29T12:10:40Z</time>
      </trkpt>
      <trkpt lat="43.27312896028161" lon="-5.593187995254993">
        <ele>268.82999999999998</ele>
        <time>2025-04-29T12:10:41Z</time>
      </trkpt>
      <trkpt lat="43.273209007456899" lon="-5.593449007719755">
        <ele>268.82999999999998</ele>
        <time>2025-04-29T12:10:42Z</time>
      </trkpt>
      <trkpt lat="43.273289976641536" lon="-5.593710020184517">
        <ele>268.82999999999998</ele>
        <time>2025-04-29T12:10:43Z</time>
      </trkpt>
      <trkpt lat="43.273356026038527" lon="-5.59397698380053">
        <ele>269.31</ele>
        <time>2025-04-29T12:10:44Z</time>
      </trkpt>
      <trkpt lat="43.273389972746372" lon="-5.59425400570035">
        <ele>269.31</ele>
        <time>2025-04-29T12:10:45Z</time>
      </trkpt>
      <trkpt lat="43.273425009101629" lon="-5.59453203342855">
        <ele>269.79000000000002</ele>
        <time>2025-04-29T12:10:46Z</time>
      </trkpt>
      <trkpt lat="43.2734489813447" lon="-5.594810983166099">
        <ele>269.79000000000002</ele>
        <time>2025-04-29T12:10:47Z</time>
      </trkpt>
      <trkpt lat="43.273435989394784" lon="-5.595088005065918">
        <ele>269.79000000000002</ele>
        <time>2025-04-29T12:10:48Z</time>
      </trkpt>
      <trkpt lat="43.273422997444868" lon="-5.595369972288609">
        <ele>270.26999999999998</ele>
        <time>2025-04-29T12:10:49Z</time>
      </trkpt>
      <trkpt lat="43.273266004398465" lon="-5.597791001200676">
        <ele>274.11000000000001</ele>
        <time>2025-04-29T12:10:58Z</time>
      </trkpt>
      <trkpt lat="43.27308302745223" lon="-5.600761966779828">
        <ele>277</ele>
        <time>2025-04-29T12:11:09Z</time>
      </trkpt>
      <trkpt lat="43.273030975833535" lon="-5.60160200111568">
        <ele>276.51999999999998</ele>
        <time>2025-04-29T12:11:12Z</time>
      </trkpt>
      <trkpt lat="43.272849004715681" lon="-5.604095030575991">
        <ele>274.58999999999997</ele>
        <time>2025-04-29T12:11:21Z</time>
      </trkpt>
      <trkpt lat="43.272537030279636" lon="-5.606493009254336">
        <ele>274.11000000000001</ele>
        <time>2025-04-29T12:11:30Z</time>
      </trkpt>
      <trkpt lat="43.272020034492016" lon="-5.610096976161003">
        <ele>280.83999999999997</ele>
        <time>2025-04-29T12:11:43Z</time>
      </trkpt>
      <trkpt lat="43.289059018716216" lon="-5.632966998964548">
        <ele>240.47</ele>
        <time>2025-04-29T12:13:51Z</time>
      </trkpt>
      <trkpt lat="43.289529997855425" lon="-5.635811984539032">
        <ele>240.94999999999999</ele>
        <time>2025-04-29T12:14:02Z</time>
      </trkpt>
      <trkpt lat="43.289453973993659" lon="-5.638474998995662">
        <ele>242.38999999999999</ele>
        <time>2025-04-29T12:14:13Z</time>
      </trkpt>
      <trkpt lat="43.288976959884167" lon="-5.64162902534008">
        <ele>239.02000000000001</ele>
        <time>2025-04-29T12:14:25Z</time>
      </trkpt>
      <trkpt lat="43.288588039577007" lon="-5.64392801374197">
        <ele>237.58000000000001</ele>
        <time>2025-04-29T12:14:34Z</time>
      </trkpt>
      <trkpt lat="43.288290984928608" lon="-5.646685995161533">
        <ele>238.53999999999999</ele>
        <time>2025-04-29T12:14:46Z</time>
      </trkpt>
      <trkpt lat="43.287707017734647" lon="-5.648594973608851">
        <ele>239.02000000000001</ele>
        <time>2025-04-29T12:14:55Z</time>
      </trkpt>
      <trkpt lat="43.286743015050888" lon="-5.650764964520931">
        <ele>234.22</ele>
        <time>2025-04-29T12:15:05Z</time>
      </trkpt>
      <trkpt lat="43.286667997017503" lon="-5.650977026671171">
        <ele>233.25999999999999</ele>
        <time>2025-04-29T12:15:06Z</time>
      </trkpt>
      <trkpt lat="43.286592978984118" lon="-5.651953015476465">
        <ele>230.84999999999999</ele>
        <time>2025-04-29T12:15:10Z</time>
      </trkpt>
      <trkpt lat="43.286603037267923" lon="-5.652203969657421">
        <ele>230.37</ele>
        <time>2025-04-29T12:15:11Z</time>
      </trkpt>
      <trkpt lat="43.286635978147388" lon="-5.652446039021015">
        <ele>229.88999999999999</ele>
        <time>2025-04-29T12:15:12Z</time>
      </trkpt>
      <trkpt lat="43.286674031987786" lon="-5.652689030393958">
        <ele>229.88999999999999</ele>
        <time>2025-04-29T12:15:13Z</time>
      </trkpt>
      <trkpt lat="43.286710996180773" lon="-5.652924980968237">
        <ele>229.41</ele>
        <time>2025-04-29T12:15:14Z</time>
      </trkpt>
      <trkpt lat="43.286871006712317" lon="-5.65333996899426">
        <ele>229.41</ele>
        <time>2025-04-29T12:15:16Z</time>
      </trkpt>
      <trkpt lat="43.287381967529655" lon="-5.654199030250311">
        <ele>228.93000000000001</ele>
        <time>2025-04-29T12:15:21Z</time>
      </trkpt>
      <trkpt lat="43.287512976676226" lon="-5.65432601608336">
        <ele>228.93000000000001</ele>
        <time>2025-04-29T12:15:22Z</time>
      </trkpt>
      <trkpt lat="43.288565995171666" lon="-5.655083991587162">
        <ele>227.97</ele>
        <time>2025-04-29T12:15:29Z</time>
      </trkpt>
      <trkpt lat="43.289331011474133" lon="-5.655812965705991">
        <ele>227.49000000000001</ele>
        <time>2025-04-29T12:15:35Z</time>
      </trkpt>
      <trkpt lat="43.289545001462102" lon="-5.656142039224505">
        <ele>227.49000000000001</ele>
        <time>2025-04-29T12:15:37Z</time>
      </trkpt>
      <trkpt lat="43.289652038365602" lon="-5.65630498342216">
        <ele>227.97</ele>
        <time>2025-04-29T12:15:38Z</time>
      </trkpt>
      <trkpt lat="43.290242040529847" lon="-5.657874997705221">
        <ele>227.97</ele>
        <time>2025-04-29T12:15:46Z</time>
      </trkpt>
      <trkpt lat="43.290747972205281" lon="-5.660040965303779">
        <ele>226.05000000000001</ele>
        <time>2025-04-29T12:15:55Z</time>
      </trkpt>
      <trkpt lat="43.290768004953861" lon="-5.66034103743732">
        <ele>225.09</ele>
        <time>2025-04-29T12:15:56Z</time>
      </trkpt>
      <trkpt lat="43.290748978033662" lon="-5.660586962476373">
        <ele>224.61000000000001</ele>
        <time>2025-04-29T12:15:57Z</time>
      </trkpt>
      <trkpt lat="43.290728023275733" lon="-5.660859039053321">
        <ele>224.12</ele>
        <time>2025-04-29T12:15:58Z</time>
      </trkpt>
      <trkpt lat="43.290691981092095" lon="-5.661119967699051">
        <ele>223.63999999999999</ele>
        <time>2025-04-29T12:15:59Z</time>
      </trkpt>
      <trkpt lat="43.290359973907471" lon="-5.663462961092591">
        <ele>222.19999999999999</ele>
        <time>2025-04-29T12:16:09Z</time>
      </trkpt>
      <trkpt lat="43.29040196724236" lon="-5.665206983685494">
        <ele>220.75999999999999</ele>
        <time>2025-04-29T12:16:16Z</time>
      </trkpt>
      <trkpt lat="43.290567006915808" lon="-5.667483005672693">
        <ele>217.88</ele>
        <time>2025-04-29T12:16:26Z</time>
      </trkpt>
      <trkpt lat="43.290753001347184" lon="-5.669598011299968">
        <ele>216.43000000000001</ele>
        <time>2025-04-29T12:16:35Z</time>
      </trkpt>
      <trkpt lat="43.291362030431628" lon="-5.671429038047791">
        <ele>216.43000000000001</ele>
        <time>2025-04-29T12:16:43Z</time>
      </trkpt>
      <trkpt lat="43.292456036433578" lon="-5.673219999298453">
        <ele>217.40000000000001</ele>
        <time>2025-04-29T12:16:52Z</time>
      </trkpt>
      <trkpt lat="43.293979028239846" lon="-5.675455033779144">
        <ele>221.24000000000001</ele>
        <time>2025-04-29T12:17:04Z</time>
      </trkpt>
      <trkpt lat="43.295616013929248" lon="-5.677461996674538">
        <ele>220.28</ele>
        <time>2025-04-29T12:17:16Z</time>
      </trkpt>
      <trkpt lat="43.296770034357905" lon="-5.679429983720183">
        <ele>216.43000000000001</ele>
        <time>2025-04-29T12:17:25Z</time>
      </trkpt>
      <trkpt lat="43.297839984297752" lon="-5.68122697994113">
        <ele>217.40000000000001</ele>
        <time>2025-04-29T12:17:34Z</time>
      </trkpt>
      <trkpt lat="43.297907961532474" lon="-5.681443987414241">
        <ele>217.40000000000001</ele>
        <time>2025-04-29T12:17:35Z</time>
      </trkpt>
      <trkpt lat="43.297978034242988" lon="-5.681669963523746">
        <ele>217.40000000000001</ele>
        <time>2025-04-29T12:17:36Z</time>
      </trkpt>
      <trkpt lat="43.298456976190209" lon="-5.683713974431157">
        <ele>221.72</ele>
        <time>2025-04-29T12:17:45Z</time>
      </trkpt>
      <trkpt lat="43.299129037186503" lon="-5.686728022992611">
        <ele>223.16</ele>
        <time>2025-04-29T12:17:58Z</time>
      </trkpt>
      <trkpt lat="43.299876032397151" lon="-5.68994801491499">
        <ele>221.72</ele>
        <time>2025-04-29T12:18:11Z</time>
      </trkpt>
      <trkpt lat="43.30052001401782" lon="-5.691434964537621">
        <ele>219.31999999999999</ele>
        <time>2025-04-29T12:18:17Z</time>
      </trkpt>
      <trkpt lat="43.302166974171996" lon="-5.693626999855042">
        <ele>211.63</ele>
        <time>2025-04-29T12:18:28Z</time>
      </trkpt>
      <trkpt lat="43.302790001034737" lon="-5.695097018033266">
        <ele>210.19</ele>
        <time>2025-04-29T12:18:34Z</time>
      </trkpt>
      <trkpt lat="43.302837023511529" lon="-5.695358030498028">
        <ele>210.66999999999999</ele>
        <time>2025-04-29T12:18:35Z</time>
      </trkpt>
      <trkpt lat="43.302874993532896" lon="-5.695619964972138">
        <ele>210.66999999999999</ele>
        <time>2025-04-29T12:18:36Z</time>
      </trkpt>
      <trkpt lat="43.303090995177627" lon="-5.696941958740354">
        <ele>212.11000000000001</ele>
        <time>2025-04-29T12:18:41Z</time>
      </trkpt>
      <trkpt lat="43.303156038746238" lon="-5.69721101783216">
        <ele>212.11000000000001</ele>
        <time>2025-04-29T12:18:42Z</time>
      </trkpt>
      <trkpt lat="43.303261986002326" lon="-5.697459038347006">
        <ele>212.11000000000001</ele>
        <time>2025-04-29T12:18:43Z</time>
      </trkpt>
      <trkpt lat="43.303375979885459" lon="-5.697697000578046">
        <ele>212.11000000000001</ele>
        <time>2025-04-29T12:18:44Z</time>
      </trkpt>
      <trkpt lat="43.303514029830694" lon="-5.697908978909254">
        <ele>212.11000000000001</ele>
        <time>2025-04-29T12:18:45Z</time>
      </trkpt>
      <trkpt lat="43.303671022877097" lon="-5.698096984997392">
        <ele>212.11000000000001</ele>
        <time>2025-04-29T12:18:46Z</time>
      </trkpt>
      <trkpt lat="43.303826004266739" lon="-5.698282979428768">
        <ele>211.63</ele>
        <time>2025-04-29T12:18:47Z</time>
      </trkpt>
      <trkpt lat="43.304005963727832" lon="-5.698416000232101">
        <ele>211.63</ele>
        <time>2025-04-29T12:18:48Z</time>
      </trkpt>
      <trkpt lat="43.304183995351195" lon="-5.698529994115233">
        <ele>211.15000000000001</ele>
        <time>2025-04-29T12:18:49Z</time>
      </trkpt>
      <trkpt lat="43.304359009489417" lon="-5.698641976341605">
        <ele>211.63</ele>
        <time>2025-04-29T12:18:50Z</time>
      </trkpt>
      <trkpt lat="43.304531006142497" lon="-5.698755970224738">
        <ele>211.15000000000001</ele>
        <time>2025-04-29T12:18:51Z</time>
      </trkpt>
      <trkpt lat="43.304870976135135" lon="-5.698982030153275">
        <ele>211.63</ele>
        <time>2025-04-29T12:18:53Z</time>
      </trkpt>
      <trkpt lat="43.305038027465343" lon="-5.699093006551266">
        <ele>211.63</ele>
        <time>2025-04-29T12:18:54Z</time>
      </trkpt>
      <trkpt lat="43.305184040218592" lon="-5.699260979890823">
        <ele>211.63</ele>
        <time>2025-04-29T12:18:55Z</time>
      </trkpt>
      <trkpt lat="43.305329969152808" lon="-5.699427025392652">
        <ele>212.11000000000001</ele>
        <time>2025-04-29T12:18:56Z</time>
      </trkpt>
      <trkpt lat="43.305475981906056" lon="-5.699594998732209">
        <ele>211.63</ele>
        <time>2025-04-29T12:18:57Z</time>
      </trkpt>
      <trkpt lat="43.305607996881008" lon="-5.69978803396225">
        <ele>211.15000000000001</ele>
        <time>2025-04-29T12:18:58Z</time>
      </trkpt>
      <trkpt lat="43.305738000199199" lon="-5.699992971494794">
        <ele>211.15000000000001</ele>
        <time>2025-04-29T12:18:59Z</time>
      </trkpt>
      <trkpt lat="43.307599034160376" lon="-5.702654980123043">
        <ele>209.69999999999999</ele>
        <time>2025-04-29T12:19:12Z</time>
      </trkpt>
      <trkpt lat="43.309528967365623" lon="-5.704695973545313">
        <ele>203.46000000000001</ele>
        <time>2025-04-29T12:19:23Z</time>
      </trkpt>
      <trkpt lat="43.310824977234006" lon="-5.70552502758801">
        <ele>200.56999999999999</ele>
        <time>2025-04-29T12:19:29Z</time>
      </trkpt>
      <trkpt lat="43.31274401396513" lon="-5.705947978422046">
        <ele>199.13</ele>
        <time>2025-04-29T12:19:37Z</time>
      </trkpt>
      <trkpt lat="43.315291022881866" lon="-5.706530017778277">
        <ele>202.49000000000001</ele>
        <time>2025-04-29T12:19:48Z</time>
      </trkpt>
      <trkpt lat="43.31732296384871" lon="-5.707521010190249">
        <ele>200.09</ele>
        <time>2025-04-29T12:19:57Z</time>
      </trkpt>
      <trkpt lat="43.318671025335789" lon="-5.708649968728423">
        <ele>195.28</ele>
        <time>2025-04-29T12:20:04Z</time>
      </trkpt>
      <trkpt lat="43.319843988865614" lon="-5.710201961919665">
        <ele>188.56</ele>
        <time>2025-04-29T12:20:13Z</time>
      </trkpt>
      <trkpt lat="43.32084696739912" lon="-5.712184030562639">
        <ele>190</ele>
        <time>2025-04-29T12:20:23Z</time>
      </trkpt>
      <trkpt lat="43.32144501619041" lon="-5.714116981253028">
        <ele>190</ele>
        <time>2025-04-29T12:20:33Z</time>
      </trkpt>
      <trkpt lat="43.32179001532495" lon="-5.715596973896027">
        <ele>184.22999999999999</ele>
        <time>2025-04-29T12:20:42Z</time>
      </trkpt>
      <trkpt lat="43.321890011429787" lon="-5.716481013223529">
        <ele>184.71000000000001</ele>
        <time>2025-04-29T12:20:51Z</time>
      </trkpt>
      <trkpt lat="43.321903003379703" lon="-5.716559970751405">
        <ele>185.19</ele>
        <time>2025-04-29T12:20:52Z</time>
      </trkpt>
      <trkpt lat="43.321936028078198" lon="-5.716653009876609">
        <ele>185.19</ele>
        <time>2025-04-29T12:20:53Z</time>
      </trkpt>
      <trkpt lat="43.321967041119933" lon="-5.716740014031529">
        <ele>185.66999999999999</ele>
        <time>2025-04-29T12:20:54Z</time>
      </trkpt>
      <trkpt lat="43.321998976171017" lon="-5.716831963509321">
        <ele>185.66999999999999</ele>
        <time>2025-04-29T12:20:55Z</time>
      </trkpt>
      <trkpt lat="43.322036024183035" lon="-5.716932965442538">
        <ele>185.66999999999999</ele>
        <time>2025-04-29T12:20:56Z</time>
      </trkpt>
      <trkpt lat="43.322080029174685" lon="-5.717011000961065">
        <ele>186.15000000000001</ele>
        <time>2025-04-29T12:20:57Z</time>
      </trkpt>
      <trkpt lat="43.322141971439123" lon="-5.717159025371075">
        <ele>186.63</ele>
        <time>2025-04-29T12:20:59Z</time>
      </trkpt>
      <trkpt lat="43.322148006409407" lon="-5.717248963192105">
        <ele>187.11000000000001</ele>
        <time>2025-04-29T12:21:00Z</time>
      </trkpt>
      <trkpt lat="43.322158986702561" lon="-5.717419032007456">
        <ele>187.11000000000001</ele>
        <time>2025-04-29T12:21:02Z</time>
      </trkpt>
      <trkpt lat="43.322240961715579" lon="-5.717507964000106">
        <ele>187.59</ele>
        <time>2025-04-29T12:21:03Z</time>
      </trkpt>
      <trkpt lat="43.322296030819416" lon="-5.717552974820137">
        <ele>187.59</ele>
        <time>2025-04-29T12:21:04Z</time>
      </trkpt>
      <trkpt lat="43.322355039417744" lon="-5.717604020610452">
        <ele>187.59</ele>
        <time>2025-04-29T12:21:05Z</time>
      </trkpt>
      <trkpt lat="43.322417987510562" lon="-5.717656994238496">
        <ele>187.59</ele>
        <time>2025-04-29T12:21:06Z</time>
      </trkpt>
      <trkpt lat="43.322487976402044" lon="-5.717714997008443">
        <ele>188.08000000000001</ele>
        <time>2025-04-29T12:21:07Z</time>
      </trkpt>
      <trkpt lat="43.322568023577332" lon="-5.717782974243164">
        <ele>188.08000000000001</ele>
        <time>2025-04-29T12:21:08Z</time>
      </trkpt>
      <trkpt lat="43.323418032377958" lon="-5.718252025544643">
        <ele>189.03999999999999</ele>
        <time>2025-04-29T12:21:15Z</time>
      </trkpt>
      <trkpt lat="43.323567984625697" lon="-5.718320002779365">
        <ele>189.52000000000001</ele>
        <time>2025-04-29T12:21:16Z</time>
      </trkpt>
      <trkpt lat="43.323721038177609" lon="-5.718371970579028">
        <ele>189.52000000000001</ele>
        <time>2025-04-29T12:21:17Z</time>
      </trkpt>
      <trkpt lat="43.323880964890122" lon="-5.718379011377692">
        <ele>190</ele>
        <time>2025-04-29T12:21:18Z</time>
      </trkpt>
      <trkpt lat="43.324043992906809" lon="-5.718370964750648">
        <ele>190.47999999999999</ele>
        <time>2025-04-29T12:21:19Z</time>
      </trkpt>
      <trkpt lat="43.324221018701792" lon="-5.718361996114254">
        <ele>190.96000000000001</ele>
        <time>2025-04-29T12:21:20Z</time>
      </trkpt>
      <trkpt lat="43.324372982606292" lon="-5.718327965587378">
        <ele>191.44</ele>
        <time>2025-04-29T12:21:21Z</time>
      </trkpt>
      <trkpt lat="43.324526036158204" lon="-5.718242973089218">
        <ele>191.91999999999999</ele>
        <time>2025-04-29T12:21:22Z</time>
      </trkpt>
      <trkpt lat="43.324680011719465" lon="-5.718156974762678">
        <ele>192.40000000000001</ele>
        <time>2025-04-29T12:21:23Z</time>
      </trkpt>
      <trkpt lat="43.324820995330811" lon="-5.718040969222784">
        <ele>192.88</ele>
        <time>2025-04-29T12:21:24Z</time>
      </trkpt>
      <trkpt lat="43.324957033619285" lon="-5.717905014753342">
        <ele>193.36000000000001</ele>
        <time>2025-04-29T12:21:25Z</time>
      </trkpt>
      <trkpt lat="43.325084019452333" lon="-5.717757996171713">
        <ele>193.84</ele>
        <time>2025-04-29T12:21:26Z</time>
      </trkpt>
      <trkpt lat="43.325190972536802" lon="-5.717572001740336">
        <ele>194.80000000000001</ele>
        <time>2025-04-29T12:21:27Z</time>
      </trkpt>
      <trkpt lat="43.325300021097064" lon="-5.717383995652199">
        <ele>195.28</ele>
        <time>2025-04-29T12:21:28Z</time>
      </trkpt>
      <trkpt lat="43.325409991666675" lon="-5.717192972078919">
        <ele>196.25</ele>
        <time>2025-04-29T12:21:29Z</time>
      </trkpt>
      <trkpt lat="43.326588990166783" lon="-5.714900018647313">
        <ele>206.34</ele>
        <time>2025-04-29T12:21:40Z</time>
      </trkpt>
      <trkpt lat="43.327264990657568" lon="-5.714279003441334">
        <ele>211.15000000000001</ele>
        <time>2025-04-29T12:21:44Z</time>
      </trkpt>
      <trkpt lat="43.32746003754437" lon="-5.714170038700104">
        <ele>212.59</ele>
        <time>2025-04-29T12:21:45Z</time>
      </trkpt>
      <trkpt lat="43.327659023925662" lon="-5.714058978483081">
        <ele>214.03</ele>
        <time>2025-04-29T12:21:46Z</time>
      </trkpt>
      <trkpt lat="43.327874019742012" lon="-5.713997036218643">
        <ele>215.47</ele>
        <time>2025-04-29T12:21:47Z</time>
      </trkpt>
      <trkpt lat="43.328090021386743" lon="-5.713939033448696">
        <ele>216.91</ele>
        <time>2025-04-29T12:21:48Z</time>
      </trkpt>
      <trkpt lat="43.328319014981389" lon="-5.713878013193607">
        <ele>218.36000000000001</ele>
        <time>2025-04-29T12:21:49Z</time>
      </trkpt>
      <trkpt lat="43.328533004969358" lon="-5.713869966566563">
        <ele>220.28</ele>
        <time>2025-04-29T12:21:50Z</time>
      </trkpt>
      <trkpt lat="43.330415999516845" lon="-5.713794026523829">
        <ele>236.13999999999999</ele>
        <time>2025-04-29T12:21:58Z</time>
      </trkpt>
      <trkpt lat="43.331846036016941" lon="-5.713661005720496">
        <ele>247.68000000000001</ele>
        <time>2025-04-29T12:22:04Z</time>
      </trkpt>
      <trkpt lat="43.332074023783207" lon="-5.71362404152751">
        <ele>249.12</ele>
        <time>2025-04-29T12:22:05Z</time>
      </trkpt>
      <trkpt lat="43.33229798823595" lon="-5.713507030159235">
        <ele>251.03999999999999</ele>
        <time>2025-04-29T12:22:06Z</time>
      </trkpt>
      <trkpt lat="43.332516001537442" lon="-5.713384989649057">
        <ele>252.47999999999999</ele>
        <time>2025-04-29T12:22:07Z</time>
      </trkpt>
      <trkpt lat="43.332733009010553" lon="-5.713244006037712">
        <ele>253.93000000000001</ele>
        <time>2025-04-29T12:22:08Z</time>
      </trkpt>
      <trkpt lat="43.33294196985662" lon="-5.713087012991309">
        <ele>254.88999999999999</ele>
        <time>2025-04-29T12:22:09Z</time>
      </trkpt>
      <trkpt lat="43.333144979551435" lon="-5.71289598941803">
        <ele>256.32999999999998</ele>
        <time>2025-04-29T12:22:10Z</time>
      </trkpt>
      <trkpt lat="43.333323011174798" lon="-5.712679987773299">
        <ele>257.76999999999998</ele>
        <time>2025-04-29T12:22:11Z</time>
      </trkpt>
      <trkpt lat="43.33349802531302" lon="-5.712468009442091">
        <ele>259.20999999999998</ele>
        <time>2025-04-29T12:22:12Z</time>
      </trkpt>
      <trkpt lat="43.333673039451241" lon="-5.712246978655458">
        <ele>260.64999999999998</ele>
        <time>2025-04-29T12:22:13Z</time>
      </trkpt>
      <trkpt lat="43.3338029589504" lon="-5.711985966190696">
        <ele>262.10000000000002</ele>
        <time>2025-04-29T12:22:14Z</time>
      </trkpt>
      <trkpt lat="43.333934973925352" lon="-5.711722020059824">
        <ele>263.54000000000002</ele>
        <time>2025-04-29T12:22:15Z</time>
      </trkpt>
      <trkpt lat="43.334066988900304" lon="-5.711457990109921">
        <ele>264.98000000000002</ele>
        <time>2025-04-29T12:22:16Z</time>
      </trkpt>
      <trkpt lat="43.335632979869843" lon="-5.708118975162506">
        <ele>283.73000000000002</ele>
        <time>2025-04-29T12:22:28Z</time>
      </trkpt>
      <trkpt lat="43.336231028661132" lon="-5.70696696639061">
        <ele>290.45999999999998</ele>
        <time>2025-04-29T12:22:32Z</time>
      </trkpt>
      <trkpt lat="43.336418028920889" lon="-5.706718023866415">
        <ele>291.89999999999998</ele>
        <time>2025-04-29T12:22:33Z</time>
      </trkpt>
      <trkpt lat="43.336622966453433" lon="-5.706499004736543">
        <ele>293.33999999999997</ele>
        <time>2025-04-29T12:22:34Z</time>
      </trkpt>
      <trkpt lat="43.33685003221035" lon="-5.706328013911843">
        <ele>294.77999999999997</ele>
        <time>2025-04-29T12:22:35Z</time>
      </trkpt>
      <trkpt lat="43.337081959471107" lon="-5.70617001503706">
        <ele>296.22000000000003</ele>
        <time>2025-04-29T12:22:36Z</time>
      </trkpt>
      <trkpt lat="43.337322017177939" lon="-5.706040011718869">
        <ele>297.67000000000002</ele>
        <time>2025-04-29T12:22:37Z</time>
      </trkpt>
      <trkpt lat="43.337569031864405" lon="-5.705936998128891">
        <ele>299.58999999999997</ele>
        <time>2025-04-29T12:22:38Z</time>
      </trkpt>
      <trkpt lat="43.337825015187263" lon="-5.70587002672255">
        <ele>301.02999999999997</ele>
        <time>2025-04-29T12:22:39Z</time>
      </trkpt>
      <trkpt lat="43.338077981024981" lon="-5.705833984538913">
        <ele>302.94999999999999</ele>
        <time>2025-04-29T12:22:40Z</time>
      </trkpt>
      <trkpt lat="43.33833203651011" lon="-5.705812023952603">
        <ele>304.38999999999999</ele>
        <time>2025-04-29T12:22:41Z</time>
      </trkpt>
      <trkpt lat="43.338585002347827" lon="-5.705864997580648">
        <ele>306.31999999999999</ele>
        <time>2025-04-29T12:22:42Z</time>
      </trkpt>
      <trkpt lat="43.338836962357163" lon="-5.705916965380311">
        <ele>307.75999999999999</ele>
        <time>2025-04-29T12:22:43Z</time>
      </trkpt>
      <trkpt lat="43.339076014235616" lon="-5.706002963706851">
        <ele>309.19999999999999</ele>
        <time>2025-04-29T12:22:44Z</time>
      </trkpt>
      <trkpt lat="43.339309031143785" lon="-5.706115029752255">
        <ele>310.63999999999999</ele>
        <time>2025-04-29T12:22:45Z</time>
      </trkpt>
      <trkpt lat="43.339531989768147" lon="-5.706249978393316">
        <ele>312.08999999999997</ele>
        <time>2025-04-29T12:22:46Z</time>
      </trkpt>
      <trkpt lat="43.339740028604865" lon="-5.706418035551906">
        <ele>313.52999999999997</ele>
        <time>2025-04-29T12:22:47Z</time>
      </trkpt>
      <trkpt lat="43.339929962530732" lon="-5.706619033589959">
        <ele>315.44999999999999</ele>
        <time>2025-04-29T12:22:48Z</time>
      </trkpt>
      <trkpt lat="43.340113023295999" lon="-5.70681600831449">
        <ele>316.41000000000003</ele>
        <time>2025-04-29T12:22:49Z</time>
      </trkpt>
      <trkpt lat="43.340291976928711" lon="-5.707033015787602">
        <ele>317.85000000000002</ele>
        <time>2025-04-29T12:22:50Z</time>
      </trkpt>
      <trkpt lat="43.34044000133872" lon="-5.70722596719861">
        <ele>319.30000000000001</ele>
        <time>2025-04-29T12:22:51Z</time>
      </trkpt>
      <trkpt lat="43.34073998965323" lon="-5.707624023780227">
        <ele>321.69999999999999</ele>
        <time>2025-04-29T12:22:53Z</time>
      </trkpt>
      <trkpt lat="43.341515986248851" lon="-5.70866396650672">
        <ele>324.57999999999998</ele>
        <time>2025-04-29T12:23:00Z</time>
      </trkpt>
      <trkpt lat="43.342084027826786" lon="-5.70943501777947">
        <ele>323.13999999999999</ele>
        <time>2025-04-29T12:23:04Z</time>
      </trkpt>
      <trkpt lat="43.345375014469028" lon="-5.713952025398612">
        <ele>323.13999999999999</ele>
        <time>2025-04-29T12:23:36Z</time>
      </trkpt>
      <trkpt lat="43.346210019662976" lon="-5.715101016685367">
        <ele>332.75</ele>
        <time>2025-04-29T12:23:42Z</time>
      </trkpt>
      <trkpt lat="43.34997802041471" lon="-5.720176007598639">
        <ele>319.30000000000001</ele>
        <time>2025-04-29T12:23:51Z</time>
      </trkpt>
      <trkpt lat="43.351432029157877" lon="-5.721503030508757">
        <ele>308.24000000000001</ele>
        <time>2025-04-29T12:23:57Z</time>
      </trkpt>
      <trkpt lat="43.353106984868646" lon="-5.722271986305714">
        <ele>295.25999999999999</ele>
        <time>2025-04-29T12:24:03Z</time>
      </trkpt>
      <trkpt lat="43.354492010548711" lon="-5.722174001857638">
        <ele>282.27999999999997</ele>
        <time>2025-04-29T12:24:08Z</time>
      </trkpt>
      <trkpt lat="43.356541972607374" lon="-5.721412003040314">
        <ele>263.54000000000002</ele>
        <time>2025-04-29T12:24:16Z</time>
      </trkpt>
      <trkpt lat="43.359472034499049" lon="-5.720508014783263">
        <ele>242.38999999999999</ele>
        <time>2025-04-29T12:24:27Z</time>
      </trkpt>
      <trkpt lat="43.36097901687026" lon="-5.720829041674733">
        <ele>235.18000000000001</ele>
        <time>2025-04-29T12:24:33Z</time>
      </trkpt>
      <trkpt lat="43.362350966781378" lon="-5.721795978024602">
        <ele>229.88999999999999</ele>
        <time>2025-04-29T12:24:39Z</time>
      </trkpt>
      <trkpt lat="43.363676983863115" lon="-5.723435981199145">
        <ele>223.16</ele>
        <time>2025-04-29T12:24:46Z</time>
      </trkpt>
      <trkpt lat="43.3649090398103" lon="-5.724481958895922">
        <ele>217.88</ele>
        <time>2025-04-29T12:24:52Z</time>
      </trkpt>
      <trkpt lat="43.366269003599882" lon="-5.724999038502574">
        <ele>214.50999999999999</ele>
        <time>2025-04-29T12:24:58Z</time>
      </trkpt>
      <trkpt lat="43.367971032857895" lon="-5.724897030740976">
        <ele>210.66999999999999</ele>
        <time>2025-04-29T12:25:05Z</time>
      </trkpt>
      <trkpt lat="43.369424035772681" lon="-5.724306022748351">
        <ele>204.41999999999999</ele>
        <time>2025-04-29T12:25:12Z</time>
      </trkpt>
      <trkpt lat="43.370446963235736" lon="-5.723925987258554">
        <ele>200.56999999999999</ele>
        <time>2025-04-29T12:25:18Z</time>
      </trkpt>
      <trkpt lat="43.370578978210688" lon="-5.723834959790111">
        <ele>200.09</ele>
        <time>2025-04-29T12:25:19Z</time>
      </trkpt>
      <trkpt lat="43.370706969872117" lon="-5.723736975342035">
        <ele>199.61000000000001</ele>
        <time>2025-04-29T12:25:20Z</time>
      </trkpt>
      <trkpt lat="43.37081803008914" lon="-5.723601020872593">
        <ele>199.13</ele>
        <time>2025-04-29T12:25:21Z</time>
      </trkpt>
      <trkpt lat="43.370931018143892" lon="-5.723463976755738">
        <ele>199.13</ele>
        <time>2025-04-29T12:25:22Z</time>
      </trkpt>
      <trkpt lat="43.371040988713503" lon="-5.723330033943057">
        <ele>198.65000000000001</ele>
        <time>2025-04-29T12:25:23Z</time>
      </trkpt>
      <trkpt lat="43.371146013960242" lon="-5.723214028403163">
        <ele>198.65000000000001</ele>
        <time>2025-04-29T12:25:24Z</time>
      </trkpt>
      <trkpt lat="43.371250033378601" lon="-5.723169017583132">
        <ele>198.65000000000001</ele>
        <time>2025-04-29T12:25:25Z</time>
      </trkpt>
      <trkpt lat="43.371376013383269" lon="-5.723169017583132">
        <ele>198.16999999999999</ele>
        <time>2025-04-29T12:25:26Z</time>
      </trkpt>
      <trkpt lat="43.37148598395288" lon="-5.723227020353079">
        <ele>198.65000000000001</ele>
        <time>2025-04-29T12:25:27Z</time>
      </trkpt>
      <trkpt lat="43.371601989492774" lon="-5.723292985931039">
        <ele>198.65000000000001</ele>
        <time>2025-04-29T12:25:28Z</time>
      </trkpt>
      <trkpt lat="43.371723024174571" lon="-5.723361968994141">
        <ele>199.13</ele>
        <time>2025-04-29T12:25:29Z</time>
      </trkpt>
      <trkpt lat="43.372079003602266" lon="-5.723537988960743">
        <ele>198.65000000000001</ele>
        <time>2025-04-29T12:25:32Z</time>
      </trkpt>
      <trkpt lat="43.372208001092076" lon="-5.723574031144381">
        <ele>198.65000000000001</ele>
        <time>2025-04-29T12:25:33Z</time>
      </trkpt>
      <trkpt lat="43.372372034937143" lon="-5.723619963973761">
        <ele>198.16999999999999</ele>
        <time>2025-04-29T12:25:34Z</time>
      </trkpt>
      <trkpt lat="43.37247303687036" lon="-5.723619963973761">
        <ele>197.69</ele>
        <time>2025-04-29T12:25:35Z</time>
      </trkpt>
      <trkpt lat="43.372598011046648" lon="-5.723555004224181">
        <ele>197.21000000000001</ele>
        <time>2025-04-29T12:25:36Z</time>
      </trkpt>
      <trkpt lat="43.372715022414923" lon="-5.723455008119345">
        <ele>196.25</ele>
        <time>2025-04-29T12:25:37Z</time>
      </trkpt>
      <trkpt lat="43.372833961620927" lon="-5.723354006186128">
        <ele>195.28</ele>
        <time>2025-04-29T12:25:38Z</time>
      </trkpt>
      <trkpt lat="43.372949967160821" lon="-5.723256021738052">
        <ele>194.31999999999999</ele>
        <time>2025-04-29T12:25:39Z</time>
      </trkpt>
      <trkpt lat="43.373351041227579" lon="-5.722814965993166">
        <ele>191.91999999999999</ele>
        <time>2025-04-29T12:25:44Z</time>
      </trkpt>
      <trkpt lat="43.373359004035592" lon="-5.722631989046931">
        <ele>191.44</ele>
        <time>2025-04-29T12:25:45Z</time>
      </trkpt>
      <trkpt lat="43.373413989320397" lon="-5.722480025142431">
        <ele>190.96000000000001</ele>
        <time>2025-04-29T12:25:47Z</time>
      </trkpt>
      <trkpt lat="43.373480038717389" lon="-5.722382040694356">
        <ele>190.96000000000001</ele>
        <time>2025-04-29T12:25:48Z</time>
      </trkpt>
      <trkpt lat="43.373568970710039" lon="-5.722358990460634">
        <ele>190.47999999999999</ele>
        <time>2025-04-29T12:25:49Z</time>
      </trkpt>
      <trkpt lat="43.373647006228566" lon="-5.722384974360466">
        <ele>190</ele>
        <time>2025-04-29T12:25:50Z</time>
      </trkpt>
      <trkpt lat="43.373718000948429" lon="-5.722498968243599">
        <ele>190</ele>
        <time>2025-04-29T12:25:51Z</time>
      </trkpt>
      <trkpt lat="43.373766029253602" lon="-5.722638024017215">
        <ele>189.52000000000001</ele>
        <time>2025-04-29T12:25:52Z</time>
      </trkpt>
      <trkpt lat="43.373748008161783" lon="-5.722764004021883">
        <ele>189.52000000000001</ele>
        <time>2025-04-29T12:25:53Z</time>
      </trkpt>
      <trkpt lat="43.373683970421553" lon="-5.7228840328753">
        <ele>189.52000000000001</ele>
        <time>2025-04-29T12:25:54Z</time>
      </trkpt>
      <trkpt lat="43.373638037592173" lon="-5.723126018419862">
        <ele>189.03999999999999</ele>
        <time>2025-04-29T12:25:55Z</time>
      </trkpt>
      <trkpt lat="43.373647006228566" lon="-5.723219979554415">
        <ele>189.03999999999999</ele>
        <time>2025-04-29T12:25:56Z</time>
      </trkpt>
      <trkpt lat="43.373648012056947" lon="-5.723411003127694">
        <ele>189.03999999999999</ele>
        <time>2025-04-29T12:25:57Z</time>
      </trkpt>
      <trkpt lat="43.373433016240597" lon="-5.725105991587043">
        <ele>188.56</ele>
        <time>2025-04-29T12:26:05Z</time>
      </trkpt>
      <trkpt lat="43.373340982943773" lon="-5.726115005090833">
        <ele>188.08000000000001</ele>
        <time>2025-04-29T12:26:10Z</time>
      </trkpt>
      <trkpt lat="43.373316004872322" lon="-5.72625900618732">
        <ele>188.08000000000001</ele>
        <time>2025-04-29T12:26:11Z</time>
      </trkpt>
      <trkpt lat="43.373215002939105" lon="-5.726412981748581">
        <ele>188.56</ele>
        <time>2025-04-29T12:26:12Z</time>
      </trkpt>
      <trkpt lat="43.37313998490572" lon="-5.726527981460095">
        <ele>189.52000000000001</ele>
        <time>2025-04-29T12:26:13Z</time>
      </trkpt>
      <trkpt lat="43.373072007670999" lon="-5.726632000878453">
        <ele>190</ele>
        <time>2025-04-29T12:26:14Z</time>
      </trkpt>
      <trkpt lat="43.373017022386193" lon="-5.726716993376613">
        <ele>190.47999999999999</ele>
        <time>2025-04-29T12:26:15Z</time>
      </trkpt>
      <trkpt lat="43.373058009892702" lon="-5.726987980306149">
        <ele>190.96000000000001</ele>
        <time>2025-04-29T12:26:16Z</time>
      </trkpt>
      <trkpt lat="43.37303495965898" lon="-5.727026034146547">
        <ele>191.44</ele>
        <time>2025-04-29T12:26:17Z</time>
      </trkpt>
      <trkpt lat="43.372977962717414" lon="-5.727117983624339">
        <ele>191.91999999999999</ele>
        <time>2025-04-29T12:26:18Z</time>
      </trkpt>
      <trkpt lat="43.372876038774848" lon="-5.727179003879428">
        <ele>191.91999999999999</ele>
        <time>2025-04-29T12:26:19Z</time>
      </trkpt>
      <trkpt lat="43.37275399826467" lon="-5.72716299444437">
        <ele>192.40000000000001</ele>
        <time>2025-04-29T12:26:20Z</time>
      </trkpt>
      <trkpt lat="43.372660037130117" lon="-5.727238012477756">
        <ele>192.40000000000001</ele>
        <time>2025-04-29T12:26:21Z</time>
      </trkpt>
      <trkpt lat="43.372573032975197" lon="-5.727383019402623">
        <ele>192.40000000000001</ele>
        <time>2025-04-29T12:26:22Z</time>
      </trkpt>
      <trkpt lat="43.372263992205262" lon="-5.72793303988874">
        <ele>194.80000000000001</ele>
        <time>2025-04-29T12:26:26Z</time>
      </trkpt>
      <trkpt lat="43.372229039669037" lon="-5.728054996579886">
        <ele>195.77000000000001</ele>
        <time>2025-04-29T12:26:27Z</time>
      </trkpt>
      <trkpt lat="43.372186962515116" lon="-5.728203020989895">
        <ele>196.25</ele>
        <time>2025-04-29T12:26:28Z</time>
      </trkpt>
      <trkpt lat="43.372143963351846" lon="-5.728354984894395">
        <ele>197.21000000000001</ele>
        <time>2025-04-29T12:26:29Z</time>
      </trkpt>
      <trkpt lat="43.372128959745169" lon="-5.728527987375855">
        <ele>197.69</ele>
        <time>2025-04-29T12:26:30Z</time>
      </trkpt>
      <trkpt lat="43.372120996937156" lon="-5.728695038706064">
        <ele>198.16999999999999</ele>
        <time>2025-04-29T12:26:31Z</time>
      </trkpt>
      <trkpt lat="43.372115967795253" lon="-5.728876003995538">
        <ele>198.65000000000001</ele>
        <time>2025-04-29T12:26:32Z</time>
      </trkpt>
      <trkpt lat="43.372202971950173" lon="-5.730637963861227">
        <ele>202.49000000000001</ele>
        <time>2025-04-29T12:26:40Z</time>
      </trkpt>
      <trkpt lat="43.372273966670036" lon="-5.732768978923559">
        <ele>203.46000000000001</ele>
        <time>2025-04-29T12:26:48Z</time>
      </trkpt>
      <trkpt lat="43.372297016903758" lon="-5.734865963459015">
        <ele>205.38</ele>
        <time>2025-04-29T12:26:55Z</time>
      </trkpt>
      <trkpt lat="43.372263992205262" lon="-5.736387027427554">
        <ele>206.81999999999999</ele>
        <time>2025-04-29T12:27:01Z</time>
      </trkpt>
      <trkpt lat="43.37217103689909" lon="-5.736605040729046">
        <ele>207.30000000000001</ele>
        <time>2025-04-29T12:27:02Z</time>
      </trkpt>
      <trkpt lat="43.372079003602266" lon="-5.736743006855249">
        <ele>207.78</ele>
        <time>2025-04-29T12:27:03Z</time>
      </trkpt>
      <trkpt lat="43.371953023597598" lon="-5.736868986859918">
        <ele>207.78</ele>
        <time>2025-04-29T12:27:04Z</time>
      </trkpt>
      <trkpt lat="43.371828971430659" lon="-5.736993961036205">
        <ele>208.25999999999999</ele>
        <time>2025-04-29T12:27:05Z</time>
      </trkpt>
      <trkpt lat="43.371707014739513" lon="-5.737116001546383">
        <ele>208.25999999999999</ele>
        <time>2025-04-29T12:27:06Z</time>
      </trkpt>
      <trkpt lat="43.371620010584593" lon="-5.737274000421166">
        <ele>208.25999999999999</ele>
        <time>2025-04-29T12:27:07Z</time>
      </trkpt>
      <trkpt lat="43.371555972844362" lon="-5.737438034266233">
        <ele>208.25999999999999</ele>
        <time>2025-04-29T12:27:08Z</time>
      </trkpt>
      <trkpt lat="43.371522026136518" lon="-5.73760399594903">
        <ele>208.25999999999999</ele>
        <time>2025-04-29T12:27:09Z</time>
      </trkpt>
      <trkpt lat="43.371481960639358" lon="-5.737797031179071">
        <ele>208.25999999999999</ele>
        <time>2025-04-29T12:27:10Z</time>
      </trkpt>
      <trkpt lat="43.371440973132849" lon="-5.737995011731982">
        <ele>207.78</ele>
        <time>2025-04-29T12:27:11Z</time>
      </trkpt>
      <trkpt lat="43.371156994253397" lon="-5.7389369700104">
        <ele>206.34</ele>
        <time>2025-04-29T12:27:16Z</time>
      </trkpt>
      <trkpt lat="43.371065966784954" lon="-5.739098992198706">
        <ele>206.34</ele>
        <time>2025-04-29T12:27:17Z</time>
      </trkpt>
      <trkpt lat="43.370970999822021" lon="-5.739268977195025">
        <ele>206.81999999999999</ele>
        <time>2025-04-29T12:27:18Z</time>
      </trkpt>
      <trkpt lat="43.370866980403662" lon="-5.739432005211711">
        <ele>207.30000000000001</ele>
        <time>2025-04-29T12:27:19Z</time>
      </trkpt>
      <trkpt lat="43.370720967650414" lon="-5.739551028236747">
        <ele>208.25999999999999</ele>
        <time>2025-04-29T12:27:20Z</time>
      </trkpt>
      <trkpt lat="43.370561040937901" lon="-5.739626968279481">
        <ele>209.22</ele>
        <time>2025-04-29T12:27:21Z</time>
      </trkpt>
      <trkpt lat="43.370392983779311" lon="-5.73966602794826">
        <ele>210.19</ele>
        <time>2025-04-29T12:27:22Z</time>
      </trkpt>
      <trkpt lat="43.370224004611373" lon="-5.739627974107862">
        <ele>211.15000000000001</ele>
        <time>2025-04-29T12:27:23Z</time>
      </trkpt>
      <trkpt lat="43.370051002129912" lon="-5.73958002962172">
        <ele>212.11000000000001</ele>
        <time>2025-04-29T12:27:24Z</time>
      </trkpt>
      <trkpt lat="43.36987498216331" lon="-5.739532001316547">
        <ele>213.06999999999999</ele>
        <time>2025-04-29T12:27:25Z</time>
      </trkpt>
      <trkpt lat="43.369198981672525" lon="-5.739325974136591">
        <ele>217.40000000000001</ele>
        <time>2025-04-29T12:27:29Z</time>
      </trkpt>
      <trkpt lat="43.369032014161348" lon="-5.73934399522841">
        <ele>218.36000000000001</ele>
        <time>2025-04-29T12:27:30Z</time>
      </trkpt>
      <trkpt lat="43.368874015286565" lon="-5.739405015483499">
        <ele>219.80000000000001</ele>
        <time>2025-04-29T12:27:31Z</time>
      </trkpt>
      <trkpt lat="43.368718028068542" lon="-5.739481039345264">
        <ele>220.75999999999999</ele>
        <time>2025-04-29T12:27:32Z</time>
      </trkpt>
      <trkpt lat="43.368582995608449" lon="-5.739604001864791">
        <ele>221.72</ele>
        <time>2025-04-29T12:27:33Z</time>
      </trkpt>
      <trkpt lat="43.368000034242868" lon="-5.740218982100487">
        <ele>227.97</ele>
        <time>2025-04-29T12:27:38Z</time>
      </trkpt>
      <trkpt lat="43.36789601482451" lon="-5.740367006510496">
        <ele>229.41</ele>
        <time>2025-04-29T12:27:39Z</time>
      </trkpt>
      <trkpt lat="43.367829965427518" lon="-5.740544032305479">
        <ele>230.37</ele>
        <time>2025-04-29T12:27:40Z</time>
      </trkpt>
      <trkpt lat="43.367762994021177" lon="-5.740721980109811">
        <ele>231.81</ele>
        <time>2025-04-29T12:27:41Z</time>
      </trkpt>
      <trkpt lat="43.36770398542285" lon="-5.740905962884426">
        <ele>233.25999999999999</ele>
        <time>2025-04-29T12:27:42Z</time>
      </trkpt>
      <trkpt lat="43.367666015401483" lon="-5.741095980629325">
        <ele>234.69999999999999</ele>
        <time>2025-04-29T12:27:43Z</time>
      </trkpt>
      <trkpt lat="43.367629973217845" lon="-5.74129999615252">
        <ele>236.13999999999999</ele>
        <time>2025-04-29T12:27:44Z</time>
      </trkpt>
      <trkpt lat="43.367629973217845" lon="-5.741505017504096">
        <ele>237.58000000000001</ele>
        <time>2025-04-29T12:27:45Z</time>
      </trkpt>
      <trkpt lat="43.367629973217845" lon="-5.741715990006924">
        <ele>239.50999999999999</ele>
        <time>2025-04-29T12:27:46Z</time>
      </trkpt>
      <trkpt lat="43.367632990702987" lon="-5.741940038278699">
        <ele>240.94999999999999</ele>
        <time>2025-04-29T12:27:47Z</time>
      </trkpt>
      <trkpt lat="43.36781001649797" lon="-5.743924034759402">
        <ele>242.87</ele>
        <time>2025-04-29T12:27:55Z</time>
      </trkpt>
      <trkpt lat="43.367838012054563" lon="-5.744648985564709">
        <ele>241.91</ele>
        <time>2025-04-29T12:27:58Z</time>
      </trkpt>
      <trkpt lat="43.367781015112996" lon="-5.744871022179723">
        <ele>241.91</ele>
        <time>2025-04-29T12:27:59Z</time>
      </trkpt>
      <trkpt lat="43.367723012343049" lon="-5.745096998289228">
        <ele>242.38999999999999</ele>
        <time>2025-04-29T12:28:00Z</time>
      </trkpt>
      <trkpt lat="43.367615975439548" lon="-5.745533024892211">
        <ele>243.83000000000001</ele>
        <time>2025-04-29T12:28:02Z</time>
      </trkpt>
      <trkpt lat="43.36761798709631" lon="-5.745736034587026">
        <ele>244.78999999999999</ele>
        <time>2025-04-29T12:28:03Z</time>
      </trkpt>
      <trkpt lat="43.367628967389464" lon="-5.745933009311557">
        <ele>245.75</ele>
        <time>2025-04-29T12:28:04Z</time>
      </trkpt>
      <trkpt lat="43.367680013179779" lon="-5.746107017621398">
        <ele>246.72</ele>
        <time>2025-04-29T12:28:05Z</time>
      </trkpt>
      <trkpt lat="43.367734998464584" lon="-5.746288988739252">
        <ele>247.68000000000001</ele>
        <time>2025-04-29T12:28:06Z</time>
      </trkpt>
      <trkpt lat="43.367786966264248" lon="-5.746465008705854">
        <ele>248.63999999999999</ele>
        <time>2025-04-29T12:28:07Z</time>
      </trkpt>
      <trkpt lat="43.367840023711324" lon="-5.746643040329218">
        <ele>249.59999999999999</ele>
        <time>2025-04-29T12:28:08Z</time>
      </trkpt>
      <trkpt lat="43.367887968197465" lon="-5.746835991740227">
        <ele>250.08000000000001</ele>
        <time>2025-04-29T12:28:09Z</time>
      </trkpt>
      <trkpt lat="43.367930967360735" lon="-5.747045036405325">
        <ele>250.08000000000001</ele>
        <time>2025-04-29T12:28:10Z</time>
      </trkpt>
      <trkpt lat="43.36794001981616" lon="-5.747275035828352">
        <ele>249.59999999999999</ele>
        <time>2025-04-29T12:28:11Z</time>
      </trkpt>
      <trkpt lat="43.368247970938683" lon="-5.749561032280326">
        <ele>234.22</ele>
        <time>2025-04-29T12:28:20Z</time>
      </trkpt>
      <trkpt lat="43.368809977546334" lon="-5.750985033810139">
        <ele>226.05000000000001</ele>
        <time>2025-04-29T12:28:27Z</time>
      </trkpt>
      <trkpt lat="43.368897987529635" lon="-5.751142026856542">
        <ele>225.09</ele>
        <time>2025-04-29T12:28:28Z</time>
      </trkpt>
      <trkpt lat="43.369001001119614" lon="-5.751276975497603">
        <ele>224.61000000000001</ele>
        <time>2025-04-29T12:28:29Z</time>
      </trkpt>
      <trkpt lat="43.369110971689224" lon="-5.751386024057865">
        <ele>224.12</ele>
        <time>2025-04-29T12:28:30Z</time>
      </trkpt>
      <trkpt lat="43.369225971400738" lon="-5.751490965485573">
        <ele>223.16</ele>
        <time>2025-04-29T12:28:31Z</time>
      </trkpt>
      <trkpt lat="43.370058964937925" lon="-5.752524035051465">
        <ele>214.99000000000001</ele>
        <time>2025-04-29T12:28:39Z</time>
      </trkpt>
      <trkpt lat="43.370401030406356" lon="-5.753187965601683">
        <ele>209.22</ele>
        <time>2025-04-29T12:28:43Z</time>
      </trkpt>
      <trkpt lat="43.37043397128582" lon="-5.753385024145246">
        <ele>207.78</ele>
        <time>2025-04-29T12:28:44Z</time>
      </trkpt>
      <trkpt lat="43.370516030117869" lon="-5.753773022443056">
        <ele>204.41999999999999</ele>
        <time>2025-04-29T12:28:46Z</time>
      </trkpt>
      <trkpt lat="43.370575960725546" lon="-5.753945019096136">
        <ele>202.97999999999999</ele>
        <time>2025-04-29T12:28:47Z</time>
      </trkpt>
      <trkpt lat="43.370661037042737" lon="-5.754090026021004">
        <ele>201.53</ele>
        <time>2025-04-29T12:28:48Z</time>
      </trkpt>
      <trkpt lat="43.370771007612348" lon="-5.754187004640698">
        <ele>200.09</ele>
        <time>2025-04-29T12:28:49Z</time>
      </trkpt>
      <trkpt lat="43.370894975960255" lon="-5.754260011017323">
        <ele>198.65000000000001</ele>
        <time>2025-04-29T12:28:50Z</time>
      </trkpt>
      <trkpt lat="43.371023973450065" lon="-5.754320025444031">
        <ele>197.21000000000001</ele>
        <time>2025-04-29T12:28:51Z</time>
      </trkpt>
      <trkpt lat="43.371890997514129" lon="-5.754668964073062">
        <ele>189.03999999999999</ele>
        <time>2025-04-29T12:28:58Z</time>
      </trkpt>
      <trkpt lat="43.372009014710784" lon="-5.754668964073062">
        <ele>188.08000000000001</ele>
        <time>2025-04-29T12:28:59Z</time>
      </trkpt>
      <trkpt lat="43.372120996937156" lon="-5.754668964073062">
        <ele>188.08000000000001</ele>
        <time>2025-04-29T12:29:00Z</time>
      </trkpt>
      <trkpt lat="43.372241025790572" lon="-5.754637029021978">
        <ele>187.59</ele>
        <time>2025-04-29T12:29:01Z</time>
      </trkpt>
      <trkpt lat="43.372357031330466" lon="-5.754592018201947">
        <ele>187.59</ele>
        <time>2025-04-29T12:29:02Z</time>
      </trkpt>
      <trkpt lat="43.373611969873309" lon="-5.754006039351225">
        <ele>180.87</ele>
        <time>2025-04-29T12:29:12Z</time>
      </trkpt>
      <trkpt lat="43.373744990676641" lon="-5.753907971084118">
        <ele>179.90000000000001</ele>
        <time>2025-04-29T12:29:13Z</time>
      </trkpt>
      <trkpt lat="43.375022979453206" lon="-5.752991996705532">
        <ele>175.58000000000001</ele>
        <time>2025-04-29T12:29:22Z</time>
      </trkpt>
      <trkpt lat="43.375190030783415" lon="-5.752953020855784">
        <ele>175.58000000000001</ele>
        <time>2025-04-29T12:29:23Z</time>
      </trkpt>
      <trkpt lat="43.375361021608114" lon="-5.752913039177656">
        <ele>175.58000000000001</ele>
        <time>2025-04-29T12:29:24Z</time>
      </trkpt>
      <trkpt lat="43.375535029917955" lon="-5.752951009199023">
        <ele>176.06</ele>
        <time>2025-04-29T12:29:25Z</time>
      </trkpt>
      <trkpt lat="43.375710966065526" lon="-5.752997025847435">
        <ele>175.58000000000001</ele>
        <time>2025-04-29T12:29:26Z</time>
      </trkpt>
      <trkpt lat="43.375881034880877" lon="-5.753072965890169">
        <ele>175.58000000000001</ele>
        <time>2025-04-29T12:29:27Z</time>
      </trkpt>
      <trkpt lat="43.376055965200067" lon="-5.753173967823386">
        <ele>175.58000000000001</ele>
        <time>2025-04-29T12:29:28Z</time>
      </trkpt>
      <trkpt lat="43.37623399682343" lon="-5.753262983635068">
        <ele>175.58000000000001</ele>
        <time>2025-04-29T12:29:29Z</time>
      </trkpt>
      <trkpt lat="43.378400970250368" lon="-5.754457991570234">
        <ele>177.02000000000001</ele>
        <time>2025-04-29T12:29:41Z</time>
      </trkpt>
      <trkpt lat="43.380282036960125" lon="-5.75547899119556">
        <ele>179.41999999999999</ele>
        <time>2025-04-29T12:29:52Z</time>
      </trkpt>
      <trkpt lat="43.381902007386088" lon="-5.756381973624229">
        <ele>175.09999999999999</ele>
        <time>2025-04-29T12:30:03Z</time>
      </trkpt>
      <trkpt lat="43.382811024785042" lon="-5.756865022704005">
        <ele>176.53999999999999</ele>
        <time>2025-04-29T12:30:12Z</time>
      </trkpt>
      <trkpt lat="43.383328020572662" lon="-5.757268024608493">
        <ele>177.97999999999999</ele>
        <time>2025-04-29T12:30:18Z</time>
      </trkpt>
      <trkpt lat="43.383404966443777" lon="-5.75728302821517">
        <ele>177.97999999999999</ele>
        <time>2025-04-29T12:30:19Z</time>
      </trkpt>
      <trkpt lat="43.383477972820401" lon="-5.757298031821847">
        <ele>177.97999999999999</ele>
        <time>2025-04-29T12:30:20Z</time>
      </trkpt>
      <trkpt lat="43.383547961711884" lon="-5.757327033206821">
        <ele>178.46000000000001</ele>
        <time>2025-04-29T12:30:21Z</time>
      </trkpt>
      <trkpt lat="43.383615016937256" lon="-5.757394004613161">
        <ele>178.46000000000001</ele>
        <time>2025-04-29T12:30:22Z</time>
      </trkpt>
      <trkpt lat="43.383663967251778" lon="-5.757487965747714">
        <ele>178.94</ele>
        <time>2025-04-29T12:30:23Z</time>
      </trkpt>
      <trkpt lat="43.383675031363964" lon="-5.757601037621498">
        <ele>179.41999999999999</ele>
        <time>2025-04-29T12:30:24Z</time>
      </trkpt>
      <trkpt lat="43.383662961423397" lon="-5.757701033726335">
        <ele>179.90000000000001</ele>
        <time>2025-04-29T12:30:25Z</time>
      </trkpt>
      <trkpt lat="43.383627003058791" lon="-5.757808992639184">
        <ele>179.90000000000001</ele>
        <time>2025-04-29T12:30:26Z</time>
      </trkpt>
      <trkpt lat="43.383578974753618" lon="-5.757900020107627">
        <ele>180.38</ele>
        <time>2025-04-29T12:30:27Z</time>
      </trkpt>
      <trkpt lat="43.383537987247109" lon="-5.758031029254198">
        <ele>179.90000000000001</ele>
        <time>2025-04-29T12:30:28Z</time>
      </trkpt>
      <trkpt lat="43.383503034710884" lon="-5.758153991773725">
        <ele>179.90000000000001</ele>
        <time>2025-04-29T12:30:29Z</time>
      </trkpt>
      <trkpt lat="43.383464980870485" lon="-5.758285000920296">
        <ele>179.90000000000001</ele>
        <time>2025-04-29T12:30:30Z</time>
      </trkpt>
      <trkpt lat="43.383447965607047" lon="-5.75844501145184">
        <ele>179.90000000000001</ele>
        <time>2025-04-29T12:30:31Z</time>
      </trkpt>
      <trkpt lat="43.383456012234092" lon="-5.758598987013102">
        <ele>179.90000000000001</ele>
        <time>2025-04-29T12:30:32Z</time>
      </trkpt>
      <trkpt lat="43.383464980870485" lon="-5.758764026686549">
        <ele>179.41999999999999</ele>
        <time>2025-04-29T12:30:33Z</time>
      </trkpt>
      <trkpt lat="43.383484007790685" lon="-5.758933005854487">
        <ele>179.41999999999999</ele>
        <time>2025-04-29T12:30:34Z</time>
      </trkpt>
      <trkpt lat="43.383552990853786" lon="-5.76097802259028">
        <ele>180.87</ele>
        <time>2025-04-29T12:30:44Z</time>
      </trkpt>
      <trkpt lat="43.383673019707203" lon="-5.763813033699989">
        <ele>185.19</ele>
        <time>2025-04-29T12:30:56Z</time>
      </trkpt>
      <trkpt lat="43.383779972791672" lon="-5.76641502790153">
        <ele>188.56</ele>
        <time>2025-04-29T12:31:08Z</time>
      </trkpt>
      <trkpt lat="43.383851973339915" lon="-5.768784005194902">
        <ele>193.36000000000001</ele>
        <time>2025-04-29T12:31:19Z</time>
      </trkpt>
      <trkpt lat="43.383878963068128" lon="-5.771191036328673">
        <ele>189.03999999999999</ele>
        <time>2025-04-29T12:31:30Z</time>
      </trkpt>
      <trkpt lat="43.383648041635752" lon="-5.773675013333559">
        <ele>191.91999999999999</ele>
        <time>2025-04-29T12:31:41Z</time>
      </trkpt>
      <trkpt lat="43.383192988112569" lon="-5.776025969535112">
        <ele>193.36000000000001</ele>
        <time>2025-04-29T12:31:52Z</time>
      </trkpt>
      <trkpt lat="43.382498966529965" lon="-5.779129033908248">
        <ele>189.03999999999999</ele>
        <time>2025-04-29T12:32:07Z</time>
      </trkpt>
      <trkpt lat="43.381858002394438" lon="-5.781786013394594">
        <ele>182.78999999999999</ele>
        <time>2025-04-29T12:32:21Z</time>
      </trkpt>
      <trkpt lat="43.381504034623504" lon="-5.782724032178521">
        <ele>178.94</ele>
        <time>2025-04-29T12:32:28Z</time>
      </trkpt>
      <trkpt lat="43.381471009925008" lon="-5.7828080188483">
        <ele>177.97999999999999</ele>
        <time>2025-04-29T12:32:29Z</time>
      </trkpt>
      <trkpt lat="43.381442008540034" lon="-5.782880019396544">
        <ele>177.5</ele>
        <time>2025-04-29T12:32:30Z</time>
      </trkpt>
      <trkpt lat="43.381418036296964" lon="-5.782939027994871">
        <ele>177.02000000000001</ele>
        <time>2025-04-29T12:32:31Z</time>
      </trkpt>
      <trkpt lat="43.381530018523335" lon="-5.783136002719402">
        <ele>176.53999999999999</ele>
        <time>2025-04-29T12:32:32Z</time>
      </trkpt>
      <trkpt lat="43.381589027121663" lon="-5.783156035467982">
        <ele>176.06</ele>
        <time>2025-04-29T12:32:33Z</time>
      </trkpt>
      <trkpt lat="43.381664967164397" lon="-5.783182019367814">
        <ele>175.58000000000001</ele>
        <time>2025-04-29T12:32:34Z</time>
      </trkpt>
      <trkpt lat="43.381750965490937" lon="-5.783212026581168">
        <ele>175.09999999999999</ele>
        <time>2025-04-29T12:32:35Z</time>
      </trkpt>
      <trkpt lat="43.381846016272902" lon="-5.783243961632252">
        <ele>174.62</ele>
        <time>2025-04-29T12:32:36Z</time>
      </trkpt>
      <trkpt lat="43.382822005078197" lon="-5.783611005172133">
        <ele>173.66</ele>
        <time>2025-04-29T12:32:46Z</time>
      </trkpt>
      <trkpt lat="43.38373102247715" lon="-5.783867994323373">
        <ele>172.21000000000001</ele>
        <time>2025-04-29T12:32:54Z</time>
      </trkpt>
      <trkpt lat="43.384777000173926" lon="-5.784225985407829">
        <ele>171.25</ele>
        <time>2025-04-29T12:33:03Z</time>
      </trkpt>
      <trkpt lat="43.38646100834012" lon="-5.784757984802127">
        <ele>175.09999999999999</ele>
        <time>2025-04-29T12:33:17Z</time>
      </trkpt>
      <trkpt lat="43.387395003810525" lon="-5.785058978945017">
        <ele>172.69</ele>
        <time>2025-04-29T12:33:25Z</time>
      </trkpt>
      <trkpt lat="43.388145016506314" lon="-5.78557999804616">
        <ele>172.21000000000001</ele>
        <time>2025-04-29T12:33:32Z</time>
      </trkpt>
      <trkpt lat="43.388230009004474" lon="-5.785694997757673">
        <ele>172.21000000000001</ele>
        <time>2025-04-29T12:33:33Z</time>
      </trkpt>
      <trkpt lat="43.388316007331014" lon="-5.785812009125948">
        <ele>172.69</ele>
        <time>2025-04-29T12:33:34Z</time>
      </trkpt>
      <trkpt lat="43.388692019507289" lon="-5.786251975223422">
        <ele>174.13999999999999</ele>
        <time>2025-04-29T12:33:38Z</time>
      </trkpt>
      <trkpt lat="43.388799978420138" lon="-5.786320958286524">
        <ele>174.13999999999999</ele>
        <time>2025-04-29T12:33:39Z</time>
      </trkpt>
      <trkpt lat="43.38890802115202" lon="-5.786390025168657">
        <ele>174.13999999999999</ele>
        <time>2025-04-29T12:33:40Z</time>
      </trkpt>
      <trkpt lat="43.390150973573327" lon="-5.786997964605689">
        <ele>173.16999999999999</ele>
        <time>2025-04-29T12:33:51Z</time>
      </trkpt>
      <trkpt lat="43.391483025625348" lon="-5.787418987601996">
        <ele>171.72999999999999</ele>
        <time>2025-04-29T12:34:01Z</time>
      </trkpt>
      <trkpt lat="43.392462031915784" lon="-5.787914022803307">
        <ele>172.21000000000001</ele>
        <time>2025-04-29T12:34:07Z</time>
      </trkpt>
      <trkpt lat="43.392628999426961" lon="-5.788002032786608">
        <ele>172.69</ele>
        <time>2025-04-29T12:34:08Z</time>
      </trkpt>
      <trkpt lat="43.394162971526384" lon="-5.788938039913774">
        <ele>174.13999999999999</ele>
        <time>2025-04-29T12:34:19Z</time>
      </trkpt>
      <trkpt lat="43.395304000005126" lon="-5.78942502848804">
        <ele>174.13999999999999</ele>
        <time>2025-04-29T12:34:28Z</time>
      </trkpt>
      <trkpt lat="43.396768989041448" lon="-5.789944035932422">
        <ele>174.62</ele>
        <time>2025-04-29T12:34:39Z</time>
      </trkpt>
      <trkpt lat="43.398061981424689" lon="-5.790445022284985">
        <ele>171.72999999999999</ele>
        <time>2025-04-29T12:34:50Z</time>
      </trkpt>
      <trkpt lat="43.39922103099525" lon="-5.790947014465928">
        <ele>162.59999999999999</ele>
        <time>2025-04-29T12:35:01Z</time>
      </trkpt>
      <trkpt lat="43.399434015154839" lon="-5.790986996144056">
        <ele>161.63999999999999</ele>
        <time>2025-04-29T12:35:03Z</time>
      </trkpt>
      <trkpt lat="43.39961196295917" lon="-5.791109036654234">
        <ele>161.16</ele>
        <time>2025-04-29T12:35:05Z</time>
      </trkpt>
      <trkpt lat="43.399700978770852" lon="-5.791133008897305">
        <ele>160.68000000000001</ele>
        <time>2025-04-29T12:35:06Z</time>
      </trkpt>
      <trkpt lat="43.39978395961225" lon="-5.791147006675601">
        <ele>160.19999999999999</ele>
        <time>2025-04-29T12:35:07Z</time>
      </trkpt>
      <trkpt lat="43.399815978482366" lon="-5.791147006675601">
        <ele>159.72</ele>
        <time>2025-04-29T12:35:08Z</time>
      </trkpt>
      <trkpt lat="43.399898037314415" lon="-5.79118799418211">
        <ele>159.24000000000001</ele>
        <time>2025-04-29T12:35:09Z</time>
      </trkpt>
      <trkpt lat="43.399968026205897" lon="-5.791116999462247">
        <ele>158.75</ele>
        <time>2025-04-29T12:35:10Z</time>
      </trkpt>
      <trkpt lat="43.399991998448968" lon="-5.791091015562415">
        <ele>158.27000000000001</ele>
        <time>2025-04-29T12:35:11Z</time>
      </trkpt>
      <trkpt lat="43.400246975943446" lon="-5.791014991700649">
        <ele>155.87</ele>
        <time>2025-04-29T12:35:17Z</time>
      </trkpt>
      <trkpt lat="43.400262985378504" lon="-5.791022032499313">
        <ele>155.38999999999999</ele>
        <time>2025-04-29T12:35:18Z</time>
      </trkpt>
      <trkpt lat="43.4002769831568" lon="-5.791028989478946">
        <ele>154.91</ele>
        <time>2025-04-29T12:35:19Z</time>
      </trkpt>
      <trkpt lat="43.4002769831568" lon="-5.791028989478946">
        <ele>152.50999999999999</ele>
        <time>2025-04-29T12:35:28Z</time>
      </trkpt>
      <trkpt lat="43.4002769831568" lon="-5.791028989478946">
        <ele>152.50999999999999</ele>
        <time>2025-04-29T12:35:56Z</time>
      </trkpt>
      <trkpt lat="43.4002769831568" lon="-5.791028989478946">
        <ele>152.03</ele>
        <time>2025-04-29T12:36:23Z</time>
      </trkpt>
      <trkpt lat="43.4002769831568" lon="-5.791028989478946">
        <ele>152.03</ele>
        <time>2025-04-29T12:37:02Z</time>
      </trkpt>
      <trkpt lat="43.4002769831568" lon="-5.791028989478946">
        <ele>151.53999999999999</ele>
        <time>2025-04-29T12:37:31Z</time>
      </trkpt>
      <trkpt lat="43.400514023378491" lon="-5.790948020294309">
        <ele>146.74000000000001</ele>
        <time>2025-04-29T12:40:28Z</time>
      </trkpt>
      <trkpt lat="43.400528021156788" lon="-5.791128985583782">
        <ele>150.58000000000001</ele>
        <time>2025-04-29T12:40:58Z</time>
      </trkpt>
      <trkpt lat="43.400479992851615" lon="-5.79110300168395">
        <ele>152.99000000000001</ele>
        <time>2025-04-29T12:41:44Z</time>
      </trkpt>
      <trkpt lat="43.400485021993518" lon="-5.791154969483614">
        <ele>162.12</ele>
        <time>2025-04-29T12:42:30Z</time>
      </trkpt>
      <trkpt lat="43.400437999516726" lon="-5.791104007512331">
        <ele>162.12</ele>
        <time>2025-04-29T12:42:43Z</time>
      </trkpt>
      <trkpt lat="43.400416960939765" lon="-5.791167039424181">
        <ele>162.59999999999999</ele>
        <time>2025-04-29T12:42:44Z</time>
      </trkpt>
      <trkpt lat="43.400439005345106" lon="-5.791429979726672">
        <ele>164.03999999999999</ele>
        <time>2025-04-29T12:42:48Z</time>
      </trkpt>
      <trkpt lat="43.400371028110385" lon="-5.791306011378765">
        <ele>166.44999999999999</ele>
        <time>2025-04-29T12:42:59Z</time>
      </trkpt>
      <trkpt lat="43.400353007018566" lon="-5.79135999083519">
        <ele>167.41</ele>
        <time>2025-04-29T12:43:01Z</time>
      </trkpt>
      <trkpt lat="43.400353007018566" lon="-5.79136099666357">
        <ele>167.41</ele>
        <time>2025-04-29T12:43:02Z</time>
      </trkpt>
      <trkpt lat="43.400330962613225" lon="-5.791353033855557">
        <ele>167.41</ele>
        <time>2025-04-29T12:43:03Z</time>
      </trkpt>
      <trkpt lat="43.399669965729117" lon="-5.79112496227026">
        <ele>171.72999999999999</ele>
        <time>2025-04-29T12:43:12Z</time>
      </trkpt>
      <trkpt lat="43.399494029581547" lon="-5.7912109605968">
        <ele>174.13999999999999</ele>
        <time>2025-04-29T12:43:20Z</time>
      </trkpt>
      <trkpt lat="43.399494029581547" lon="-5.7912109605968">
        <ele>174.62</ele>
        <time>2025-04-29T12:43:21Z</time>
      </trkpt>
      <trkpt lat="43.399487994611263" lon="-5.791214983910322">
        <ele>174.62</ele>
        <time>2025-04-29T12:43:22Z</time>
      </trkpt>
      <trkpt lat="43.399433009326458" lon="-5.79135999083519">
        <ele>175.09999999999999</ele>
        <time>2025-04-29T12:43:23Z</time>
      </trkpt>
      <trkpt lat="43.39943703263998" lon="-5.791471973061562">
        <ele>175.09999999999999</ele>
        <time>2025-04-29T12:43:24Z</time>
      </trkpt>
      <trkpt lat="43.399440972134471" lon="-5.7915960252285">
        <ele>175.09999999999999</ele>
        <time>2025-04-29T12:43:25Z</time>
      </trkpt>
      <trkpt lat="43.399446001276374" lon="-5.791733991354704">
        <ele>175.09999999999999</ele>
        <time>2025-04-29T12:43:26Z</time>
      </trkpt>
      <trkpt lat="43.399450024589896" lon="-5.791873969137669">
        <ele>175.09999999999999</ele>
        <time>2025-04-29T12:43:27Z</time>
      </trkpt>
      <trkpt lat="43.399510961025953" lon="-5.79320702701807">
        <ele>175.09999999999999</ele>
        <time>2025-04-29T12:43:36Z</time>
      </trkpt>
      <trkpt lat="43.399604000151157" lon="-5.795165039598942">
        <ele>174.13999999999999</ele>
        <time>2025-04-29T12:43:48Z</time>
      </trkpt>
      <trkpt lat="43.399629984050989" lon="-5.795659990981221">
        <ele>173.16999999999999</ele>
        <time>2025-04-29T12:43:51Z</time>
      </trkpt>
      <trkpt lat="43.399718999862671" lon="-5.797491017729044">
        <ele>174.13999999999999</ele>
        <time>2025-04-29T12:44:02Z</time>
      </trkpt>
      <trkpt lat="43.399725034832954" lon="-5.797658991068602">
        <ele>173.66</ele>
        <time>2025-04-29T12:44:03Z</time>
      </trkpt>
      <trkpt lat="43.399730985984206" lon="-5.797823024913669">
        <ele>172.69</ele>
        <time>2025-04-29T12:44:04Z</time>
      </trkpt>
      <trkpt lat="43.399798963218927" lon="-5.799148036167026">
        <ele>172.69</ele>
        <time>2025-04-29T12:44:12Z</time>
      </trkpt>
      <trkpt lat="43.399815978482366" lon="-5.799321960657835">
        <ele>172.69</ele>
        <time>2025-04-29T12:44:13Z</time>
      </trkpt>
      <trkpt lat="43.399815978482366" lon="-5.799557995051146">
        <ele>173.16999999999999</ele>
        <time>2025-04-29T12:44:14Z</time>
      </trkpt>
      <trkpt lat="43.399835005402565" lon="-5.799946999177337">
        <ele>173.66</ele>
        <time>2025-04-29T12:44:17Z</time>
      </trkpt>
      <trkpt lat="43.399841962382197" lon="-5.800086976960301">
        <ele>174.13999999999999</ele>
        <time>2025-04-29T12:44:18Z</time>
      </trkpt>
      <trkpt lat="43.399884039536119" lon="-5.801168996840715">
        <ele>176.53999999999999</ele>
        <time>2025-04-29T12:44:28Z</time>
      </trkpt>
      <trkpt lat="43.399925027042627" lon="-5.802141968160868">
        <ele>176.06</ele>
        <time>2025-04-29T12:44:38Z</time>
      </trkpt>
      <trkpt lat="43.399980012327433" lon="-5.803152993321419">
        <ele>174.13999999999999</ele>
        <time>2025-04-29T12:44:49Z</time>
      </trkpt>
      <trkpt lat="43.400019994005561" lon="-5.804262002930045">
        <ele>175.58000000000001</ele>
        <time>2025-04-29T12:45:01Z</time>
      </trkpt>
      <trkpt lat="43.400030974298716" lon="-5.804749997332692">
        <ele>176.53999999999999</ele>
        <time>2025-04-29T12:45:07Z</time>
      </trkpt>
      <trkpt lat="43.400047989562154" lon="-5.804819986224175">
        <ele>176.53999999999999</ele>
        <time>2025-04-29T12:45:08Z</time>
      </trkpt>
      <trkpt lat="43.400087971240282" lon="-5.804866002872586">
        <ele>176.53999999999999</ele>
        <time>2025-04-29T12:45:09Z</time>
      </trkpt>
      <trkpt lat="43.400119990110397" lon="-5.804890980944037">
        <ele>177.02000000000001</ele>
        <time>2025-04-29T12:45:10Z</time>
      </trkpt>
      <trkpt lat="43.400152008980513" lon="-5.804959964007139">
        <ele>177.02000000000001</ele>
        <time>2025-04-29T12:45:11Z</time>
      </trkpt>
      <trkpt lat="43.400139017030597" lon="-5.805026013404131">
        <ele>177.5</ele>
        <time>2025-04-29T12:45:12Z</time>
      </trkpt>
      <trkpt lat="43.400138011202216" lon="-5.805030036717653">
        <ele>177.02000000000001</ele>
        <time>2025-04-29T12:45:13Z</time>
      </trkpt>
      <trkpt lat="43.400052012875676" lon="-5.805159034207463">
        <ele>177.02000000000001</ele>
        <time>2025-04-29T12:45:14Z</time>
      </trkpt>
      <trkpt lat="43.400052012875676" lon="-5.805245032534003">
        <ele>177.02000000000001</ele>
        <time>2025-04-29T12:45:15Z</time>
      </trkpt>
      <trkpt lat="43.400059975683689" lon="-5.805336982011795">
        <ele>177.02000000000001</ele>
        <time>2025-04-29T12:45:16Z</time>
      </trkpt>
      <trkpt lat="43.400067016482353" lon="-5.805421974509955">
        <ele>177.02000000000001</ele>
        <time>2025-04-29T12:45:17Z</time>
      </trkpt>
      <trkpt lat="43.400094006210566" lon="-5.806198976933956">
        <ele>178.46000000000001</ele>
        <time>2025-04-29T12:45:26Z</time>
      </trkpt>
      <trkpt lat="43.400123007595539" lon="-5.806672973558307">
        <ele>179.41999999999999</ele>
        <time>2025-04-29T12:45:31Z</time>
      </trkpt>
      <trkpt lat="43.400126025080681" lon="-5.806761989369988">
        <ele>179.41999999999999</ele>
        <time>2025-04-29T12:45:32Z</time>
      </trkpt>
      <trkpt lat="43.400140022858977" lon="-5.8071309607476">
        <ele>179.90000000000001</ele>
        <time>2025-04-29T12:45:36Z</time>
      </trkpt>
      <trkpt lat="43.400163995102048" lon="-5.807717023417354">
        <ele>178.94</ele>
        <time>2025-04-29T12:45:43Z</time>
      </trkpt>
      <trkpt lat="43.400170030072331" lon="-5.807775026187301">
        <ele>178.94</ele>
        <time>2025-04-29T12:45:44Z</time>
      </trkpt>
      <trkpt lat="43.400158965960145" lon="-5.808106027543545">
        <ele>177.02000000000001</ele>
        <time>2025-04-29T12:45:50Z</time>
      </trkpt>
      <trkpt lat="43.400158965960145" lon="-5.808168975636363">
        <ele>176.53999999999999</ele>
        <time>2025-04-29T12:45:51Z</time>
      </trkpt>
      <trkpt lat="43.400158965960145" lon="-5.808292021974921">
        <ele>174.62</ele>
        <time>2025-04-29T12:45:53Z</time>
      </trkpt>
      <trkpt lat="43.400287963449955" lon="-5.808370979502797">
        <ele>173.66</ele>
        <time>2025-04-29T12:45:54Z</time>
      </trkpt>
      <trkpt lat="43.400287963449955" lon="-5.808452032506466">
        <ele>173.16999999999999</ele>
        <time>2025-04-29T12:45:55Z</time>
      </trkpt>
      <trkpt lat="43.400287963449955" lon="-5.8085279725492">
        <ele>172.69</ele>
        <time>2025-04-29T12:45:56Z</time>
      </trkpt>
      <trkpt lat="43.400287963449955" lon="-5.8085279725492">
        <ele>172.69</ele>
        <time>2025-04-29T12:45:57Z</time>
      </trkpt>
      <trkpt lat="43.400216968730092" lon="-5.808598967269063">
        <ele>172.21000000000001</ele>
        <time>2025-04-29T12:45:58Z</time>
      </trkpt>
      <trkpt lat="43.400185033679008" lon="-5.808629980310798">
        <ele>171.25</ele>
        <time>2025-04-29T12:45:59Z</time>
      </trkpt>
      <trkpt lat="43.400191990658641" lon="-5.808773981407285">
        <ele>171.25</ele>
        <time>2025-04-29T12:46:00Z</time>
      </trkpt>
      <trkpt lat="43.400195008143783" lon="-5.808799965307117">
        <ele>170.77000000000001</ele>
        <time>2025-04-29T12:46:01Z</time>
      </trkpt>
      <trkpt lat="43.400197019800544" lon="-5.808825027197599">
        <ele>170.28999999999999</ele>
        <time>2025-04-29T12:46:02Z</time>
      </trkpt>
      <trkpt lat="43.400199031457305" lon="-5.808847993612289">
        <ele>170.28999999999999</ele>
        <time>2025-04-29T12:46:03Z</time>
      </trkpt>
      <trkpt lat="43.400199031457305" lon="-5.808847993612289">
        <ele>169.81</ele>
        <time>2025-04-29T12:46:18Z</time>
      </trkpt>
      <trkpt lat="43.400200037285686" lon="-5.808861991390586">
        <ele>169.81</ele>
        <time>2025-04-29T12:46:20Z</time>
      </trkpt>
      <trkpt lat="43.400202970951796" lon="-5.808897027745843">
        <ele>169.33000000000001</ele>
        <time>2025-04-29T12:46:21Z</time>
      </trkpt>
      <trkpt lat="43.400225015357137" lon="-5.809418968856335">
        <ele>162.12</ele>
        <time>2025-04-29T12:46:31Z</time>
      </trkpt>
      <trkpt lat="43.400229038670659" lon="-5.809486024081707">
        <ele>161.16</ele>
        <time>2025-04-29T12:46:32Z</time>
      </trkpt>
      <trkpt lat="43.40023398399353" lon="-5.809556012973189">
        <ele>160.19999999999999</ele>
        <time>2025-04-29T12:46:33Z</time>
      </trkpt>
      <trkpt lat="43.400245970115066" lon="-5.809752987697721">
        <ele>156.83000000000001</ele>
        <time>2025-04-29T12:46:36Z</time>
      </trkpt>
      <trkpt lat="43.400248987600207" lon="-5.809822976589203">
        <ele>155.87</ele>
        <time>2025-04-29T12:46:37Z</time>
      </trkpt>
      <trkpt lat="43.400255022570491" lon="-5.809952979907394">
        <ele>153.94999999999999</ele>
        <time>2025-04-29T12:46:39Z</time>
      </trkpt>
      <trkpt lat="43.400257034227252" lon="-5.81000997684896">
        <ele>152.99000000000001</ele>
        <time>2025-04-29T12:46:40Z</time>
      </trkpt>
      <trkpt lat="43.400258962064981" lon="-5.810069991275668">
        <ele>152.03</ele>
        <time>2025-04-29T12:46:41Z</time>
      </trkpt>
      <trkpt lat="43.40027597732842" lon="-5.810458995401859">
        <ele>147.69999999999999</ele>
        <time>2025-04-29T12:46:47Z</time>
      </trkpt>
      <trkpt lat="43.400305984541774" lon="-5.810807012021542">
        <ele>145.78</ele>
        <time>2025-04-29T12:46:52Z</time>
      </trkpt>
      <trkpt lat="43.400381002575159" lon="-5.81099702976644">
        <ele>144.34</ele>
        <time>2025-04-29T12:46:55Z</time>
      </trkpt>
      <trkpt lat="43.400502959266305" lon="-5.81103902310133">
        <ele>144.34</ele>
        <time>2025-04-29T12:46:57Z</time>
      </trkpt>
      <trkpt lat="43.400523997843266" lon="-5.811101971194148">
        <ele>144.34</ele>
        <time>2025-04-29T12:46:58Z</time>
      </trkpt>
      <trkpt lat="43.400503965094686" lon="-5.811201967298985">
        <ele>144.34</ele>
        <time>2025-04-29T12:46:59Z</time>
      </trkpt>
      <trkpt lat="43.400502959266305" lon="-5.811210013926029">
        <ele>144.34</ele>
        <time>2025-04-29T12:47:00Z</time>
      </trkpt>
      <trkpt lat="43.400467000901699" lon="-5.811222000047565">
        <ele>144.34</ele>
        <time>2025-04-29T12:47:01Z</time>
      </trkpt>
      <trkpt lat="43.400434982031584" lon="-5.811231974512339">
        <ele>144.34</ele>
        <time>2025-04-29T12:47:02Z</time>
      </trkpt>
      <trkpt lat="43.400401035323739" lon="-5.811243960633874">
        <ele>144.34</ele>
        <time>2025-04-29T12:47:03Z</time>
      </trkpt>
      <trkpt lat="43.400186039507389" lon="-5.811318978667259">
        <ele>145.30000000000001</ele>
        <time>2025-04-29T12:47:08Z</time>
      </trkpt>
      <trkpt lat="43.400141028687358" lon="-5.811355020850897">
        <ele>145.30000000000001</ele>
        <time>2025-04-29T12:47:09Z</time>
      </trkpt>
      <trkpt lat="43.399629984050989" lon="-5.811823988333345">
        <ele>146.25999999999999</ele>
        <time>2025-04-29T12:47:21Z</time>
      </trkpt>
      <trkpt lat="43.399076024070382" lon="-5.812321035191417">
        <ele>150.09999999999999</ele>
        <time>2025-04-29T12:47:29Z</time>
      </trkpt>
      <trkpt lat="43.398293992504478" lon="-5.81301698461175">
        <ele>152.50999999999999</ele>
        <time>2025-04-29T12:47:40Z</time>
      </trkpt>
      <trkpt lat="43.397853020578623" lon="-5.813420992344618">
        <ele>155.87</ele>
        <time>2025-04-29T12:47:49Z</time>
      </trkpt>
      <trkpt lat="43.397821001708508" lon="-5.813699020072818">
        <ele>156.34999999999999</ele>
        <time>2025-04-29T12:47:51Z</time>
      </trkpt>
      <trkpt lat="43.397784037515521" lon="-5.813780995085836">
        <ele>156.83000000000001</ele>
        <time>2025-04-29T12:47:53Z</time>
      </trkpt>
      <trkpt lat="43.397709019482136" lon="-5.813899012282491">
        <ele>156.83000000000001</ele>
        <time>2025-04-29T12:47:54Z</time>
      </trkpt>
      <trkpt lat="43.397629978135228" lon="-5.813921978697181">
        <ele>157.31</ele>
        <time>2025-04-29T12:47:55Z</time>
      </trkpt>
      <trkpt lat="43.397583961486816" lon="-5.813934970647097">
        <ele>157.78999999999999</ele>
        <time>2025-04-29T12:47:56Z</time>
      </trkpt>
      <trkpt lat="43.397415988147259" lon="-5.813861964270473">
        <ele>157.78999999999999</ele>
        <time>2025-04-29T12:47:57Z</time>
      </trkpt>
      <trkpt lat="43.397227982059121" lon="-5.813970007002354">
        <ele>157.78999999999999</ele>
        <time>2025-04-29T12:47:59Z</time>
      </trkpt>
      <trkpt lat="43.397129997611046" lon="-5.814038990065455">
        <ele>157.78999999999999</ele>
        <time>2025-04-29T12:48:00Z</time>
      </trkpt>
      <trkpt lat="43.397037964314222" lon="-5.814118031412363">
        <ele>157.31</ele>
        <time>2025-04-29T12:48:01Z</time>
      </trkpt>
      <trkpt lat="43.395957034081221" lon="-5.815051021054387">
        <ele>157.78999999999999</ele>
        <time>2025-04-29T12:48:13Z</time>
      </trkpt>
      <trkpt lat="43.395567024126649" lon="-5.815351009368897">
        <ele>158.27000000000001</ele>
        <time>2025-04-29T12:48:18Z</time>
      </trkpt>
      <trkpt lat="43.395489994436502" lon="-5.815467014908791">
        <ele>158.27000000000001</ele>
        <time>2025-04-29T12:48:19Z</time>
      </trkpt>
      <trkpt lat="43.395426040515304" lon="-5.815570028498769">
        <ele>158.75</ele>
        <time>2025-04-29T12:48:20Z</time>
      </trkpt>
      <trkpt lat="43.39535303413868" lon="-5.815716041252017">
        <ele>158.75</ele>
        <time>2025-04-29T12:48:21Z</time>
      </trkpt>
      <trkpt lat="43.39526703581214" lon="-5.815759040415287">
        <ele>158.75</ele>
        <time>2025-04-29T12:48:22Z</time>
      </trkpt>
      <trkpt lat="43.395167961716652" lon="-5.815808996558189">
        <ele>158.75</ele>
        <time>2025-04-29T12:48:23Z</time>
      </trkpt>
      <trkpt lat="43.394400011748075" lon="-5.816447027027607">
        <ele>160.19999999999999</ele>
        <time>2025-04-29T12:48:32Z</time>
      </trkpt>
      <trkpt lat="43.393466016277671" lon="-5.817279014736414">
        <ele>160.68000000000001</ele>
        <time>2025-04-29T12:48:44Z</time>
      </trkpt>
      <trkpt lat="43.39335503987968" lon="-5.817376999184489">
        <ele>160.68000000000001</ele>
        <time>2025-04-29T12:48:46Z</time>
      </trkpt>
      <trkpt lat="43.39329301379621" lon="-5.817431984469295">
        <ele>160.68000000000001</ele>
        <time>2025-04-29T12:48:47Z</time>
      </trkpt>
      <trkpt lat="43.39329301379621" lon="-5.817431984469295">
        <ele>160.68000000000001</ele>
        <time>2025-04-29T12:48:48Z</time>
      </trkpt>
      <trkpt lat="43.393263006582856" lon="-5.817462997511029">
        <ele>160.19999999999999</ele>
        <time>2025-04-29T12:48:49Z</time>
      </trkpt>
      <trkpt lat="43.393237022683024" lon="-5.817485963925719">
        <ele>160.19999999999999</ele>
        <time>2025-04-29T12:48:50Z</time>
      </trkpt>
      <trkpt lat="43.393209027126431" lon="-5.817511025816202">
        <ele>160.19999999999999</ele>
        <time>2025-04-29T12:48:51Z</time>
      </trkpt>
      <trkpt lat="43.393129985779524" lon="-5.817581014707685">
        <ele>159.24000000000001</ele>
        <time>2025-04-29T12:48:54Z</time>
      </trkpt>
      <trkpt lat="43.393083969131112" lon="-5.817620996385813">
        <ele>159.24000000000001</ele>
        <time>2025-04-29T12:48:55Z</time>
      </trkpt>
      <trkpt lat="43.393041975796223" lon="-5.817698026075959">
        <ele>159.24000000000001</ele>
        <time>2025-04-29T12:48:56Z</time>
      </trkpt>
      <trkpt lat="43.393011968582869" lon="-5.817758962512016">
        <ele>158.75</ele>
        <time>2025-04-29T12:48:57Z</time>
      </trkpt>
      <trkpt lat="43.392983973026276" lon="-5.817815037444234">
        <ele>158.75</ele>
        <time>2025-04-29T12:48:58Z</time>
      </trkpt>
      <trkpt lat="43.392957989126444" lon="-5.817865999415517">
        <ele>158.75</ele>
        <time>2025-04-29T12:48:59Z</time>
      </trkpt>
      <trkpt lat="43.392929993569851" lon="-5.817922996357083">
        <ele>158.75</ele>
        <time>2025-04-29T12:49:00Z</time>
      </trkpt>
      <trkpt lat="43.392899986356497" lon="-5.817982004955411">
        <ele>158.75</ele>
        <time>2025-04-29T12:49:01Z</time>
      </trkpt>
      <trkpt lat="43.392872996628284" lon="-5.818036990240216">
        <ele>158.75</ele>
        <time>2025-04-29T12:49:02Z</time>
      </trkpt>
      <trkpt lat="43.392850030213594" lon="-5.818082001060247">
        <ele>158.75</ele>
        <time>2025-04-29T12:49:03Z</time>
      </trkpt>
      <trkpt lat="43.392815999686718" lon="-5.818141009658575">
        <ele>158.75</ele>
        <time>2025-04-29T12:49:04Z</time>
      </trkpt>
      <trkpt lat="43.392815999686718" lon="-5.818141009658575">
        <ele>158.75</ele>
        <time>2025-04-29T12:49:12Z</time>
      </trkpt>
      <trkpt lat="43.392815999686718" lon="-5.818141009658575">
        <ele>157.78999999999999</ele>
        <time>2025-04-29T12:49:57Z</time>
      </trkpt>
      <trkpt lat="43.392638973891735" lon="-5.818232959136367">
        <ele>159.72</ele>
        <time>2025-04-29T12:50:32Z</time>
      </trkpt>
      <trkpt lat="43.392509976401925" lon="-5.818405039608479">
        <ele>159.72</ele>
        <time>2025-04-29T12:50:34Z</time>
      </trkpt>
      <trkpt lat="43.39243495836854" lon="-5.818505035713315">
        <ele>159.72</ele>
        <time>2025-04-29T12:50:35Z</time>
      </trkpt>
      <trkpt lat="43.392374021932483" lon="-5.818477962166071">
        <ele>160.19999999999999</ele>
        <time>2025-04-29T12:50:36Z</time>
      </trkpt>
      <trkpt lat="43.392314007505774" lon="-5.818450972437859">
        <ele>160.19999999999999</ele>
        <time>2025-04-29T12:50:37Z</time>
      </trkpt>
      <trkpt lat="43.392250975593925" lon="-5.818421971052885">
        <ele>160.19999999999999</ele>
        <time>2025-04-29T12:50:38Z</time>
      </trkpt>
      <trkpt lat="43.392166988924146" lon="-5.818422976881266">
        <ele>160.19999999999999</ele>
        <time>2025-04-29T12:50:39Z</time>
      </trkpt>
      <trkpt lat="43.392092976719141" lon="-5.818482991307974">
        <ele>160.19999999999999</ele>
        <time>2025-04-29T12:50:40Z</time>
      </trkpt>
      <trkpt lat="43.392007984220982" lon="-5.818561026826501">
        <ele>160.19999999999999</ele>
        <time>2025-04-29T12:50:41Z</time>
      </trkpt>
      <trkpt lat="43.391615962609649" lon="-5.818912982940674">
        <ele>159.72</ele>
        <time>2025-04-29T12:50:46Z</time>
      </trkpt>
      <trkpt lat="43.39155200868845" lon="-5.81896897405386">
        <ele>159.24000000000001</ele>
        <time>2025-04-29T12:50:47Z</time>
      </trkpt>
      <trkpt lat="43.390799984335899" lon="-5.819512959569693">
        <ele>158.75</ele>
        <time>2025-04-29T12:50:58Z</time>
      </trkpt>
      <trkpt lat="43.390747010707855" lon="-5.819541038945317">
        <ele>158.75</ele>
        <time>2025-04-29T12:50:59Z</time>
      </trkpt>
      <trkpt lat="43.390703005716205" lon="-5.819559982046485">
        <ele>158.27000000000001</ele>
        <time>2025-04-29T12:51:00Z</time>
      </trkpt>
      <trkpt lat="43.390610972419381" lon="-5.819648997858167">
        <ele>158.27000000000001</ele>
        <time>2025-04-29T12:51:01Z</time>
      </trkpt>
      <trkpt lat="43.390610972419381" lon="-5.819712029770017">
        <ele>158.27000000000001</ele>
        <time>2025-04-29T12:51:02Z</time>
      </trkpt>
      <trkpt lat="43.390610972419381" lon="-5.819794004783034">
        <ele>158.27000000000001</ele>
        <time>2025-04-29T12:51:03Z</time>
      </trkpt>
      <trkpt lat="43.390604015439749" lon="-5.8198700286448">
        <ele>158.27000000000001</ele>
        <time>2025-04-29T12:51:04Z</time>
      </trkpt>
      <trkpt lat="43.390561016276479" lon="-5.81995602697134">
        <ele>158.27000000000001</ele>
        <time>2025-04-29T12:51:05Z</time>
      </trkpt>
      <trkpt lat="43.390509970486164" lon="-5.820032972842455">
        <ele>157.78999999999999</ele>
        <time>2025-04-29T12:51:06Z</time>
      </trkpt>
      <trkpt lat="43.390431012958288" lon="-5.820054011419416">
        <ele>156.83000000000001</ele>
        <time>2025-04-29T12:51:07Z</time>
      </trkpt>
      <trkpt lat="43.390357000753284" lon="-5.820074966177344">
        <ele>156.34999999999999</ele>
        <time>2025-04-29T12:51:08Z</time>
      </trkpt>
      <trkpt lat="43.390274019911885" lon="-5.82008401863277">
        <ele>155.38999999999999</ele>
        <time>2025-04-29T12:51:09Z</time>
      </trkpt>
      <trkpt lat="43.390181986615062" lon="-5.820029033347964">
        <ele>154.43000000000001</ele>
        <time>2025-04-29T12:51:10Z</time>
      </trkpt>
      <trkpt lat="43.390144016593695" lon="-5.819963989779353">
        <ele>152.99000000000001</ele>
        <time>2025-04-29T12:51:11Z</time>
      </trkpt>
      <trkpt lat="43.390095988288522" lon="-5.81984899006784">
        <ele>152.50999999999999</ele>
        <time>2025-04-29T12:51:12Z</time>
      </trkpt>
      <trkpt lat="43.390095988288522" lon="-5.819756034761667">
        <ele>151.53999999999999</ele>
        <time>2025-04-29T12:51:13Z</time>
      </trkpt>
      <trkpt lat="43.390095988288522" lon="-5.819659978151321">
        <ele>150.58000000000001</ele>
        <time>2025-04-29T12:51:14Z</time>
      </trkpt>
      <trkpt lat="43.39013303630054" lon="-5.819558976218104">
        <ele>150.09999999999999</ele>
        <time>2025-04-29T12:51:15Z</time>
      </trkpt>
      <trkpt lat="43.390166983008385" lon="-5.81948203034699">
        <ele>149.62</ele>
        <time>2025-04-29T12:51:16Z</time>
      </trkpt>
      <trkpt lat="43.390234960243106" lon="-5.819435007870197">
        <ele>149.13999999999999</ele>
        <time>2025-04-29T12:51:17Z</time>
      </trkpt>
      <trkpt lat="43.390310984104872" lon="-5.819413969293237">
        <ele>148.66</ele>
        <time>2025-04-29T12:51:18Z</time>
      </trkpt>
      <trkpt lat="43.390418021008372" lon="-5.819384967908263">
        <ele>148.66</ele>
        <time>2025-04-29T12:51:19Z</time>
      </trkpt>
      <trkpt lat="43.390488009899855" lon="-5.819425033405423">
        <ele>148.66</ele>
        <time>2025-04-29T12:51:20Z</time>
      </trkpt>
      <trkpt lat="43.390567973256111" lon="-5.819470966234803">
        <ele>149.13999999999999</ele>
        <time>2025-04-29T12:51:21Z</time>
      </trkpt>
      <trkpt lat="43.390686996281147" lon="-5.819567022845149">
        <ele>149.13999999999999</ele>
        <time>2025-04-29T12:51:22Z</time>
      </trkpt>
      <trkpt lat="43.390784980729222" lon="-5.819522012025118">
        <ele>149.62</ele>
        <time>2025-04-29T12:51:23Z</time>
      </trkpt>
      <trkpt lat="43.390880031511188" lon="-5.819469038397074">
        <ele>149.62</ele>
        <time>2025-04-29T12:51:24Z</time>
      </trkpt>
      <trkpt lat="43.391519989818335" lon="-5.818996969610453">
        <ele>148.18000000000001</ele>
        <time>2025-04-29T12:51:31Z</time>
      </trkpt>
      <trkpt lat="43.3916150406003" lon="-5.818913988769054">
        <ele>148.18000000000001</ele>
        <time>2025-04-29T12:51:32Z</time>
      </trkpt>
      <trkpt lat="43.392736036330462" lon="-5.8179169613868">
        <ele>152.03</ele>
        <time>2025-04-29T12:51:44Z</time>
      </trkpt>
      <trkpt lat="43.39406699873507" lon="-5.816730000078678">
        <ele>154.43000000000001</ele>
        <time>2025-04-29T12:51:58Z</time>
      </trkpt>
      <trkpt lat="43.395009962841868" lon="-5.815907986834645">
        <ele>155.38999999999999</ele>
        <time>2025-04-29T12:52:09Z</time>
      </trkpt>
      <trkpt lat="43.39505203999579" lon="-5.815865993499756">
        <ele>155.87</ele>
        <time>2025-04-29T12:52:10Z</time>
      </trkpt>
      <trkpt lat="43.395087998360395" lon="-5.815750993788242">
        <ele>155.87</ele>
        <time>2025-04-29T12:52:11Z</time>
      </trkpt>
      <trkpt lat="43.395116999745369" lon="-5.815655020996928">
        <ele>156.34999999999999</ele>
        <time>2025-04-29T12:52:12Z</time>
      </trkpt>
      <trkpt lat="43.395167039707303" lon="-5.815444970503449">
        <ele>156.83000000000001</ele>
        <time>2025-04-29T12:52:14Z</time>
      </trkpt>
      <trkpt lat="43.395257983356714" lon="-5.815364001318812">
        <ele>156.83000000000001</ele>
        <time>2025-04-29T12:52:15Z</time>
      </trkpt>
      <trkpt lat="43.395336018875241" lon="-5.815356038510799">
        <ele>156.83000000000001</ele>
        <time>2025-04-29T12:52:16Z</time>
      </trkpt>
      <trkpt lat="43.395414976403117" lon="-5.815351009368897">
        <ele>156.83000000000001</ele>
        <time>2025-04-29T12:52:17Z</time>
      </trkpt>
      <trkpt lat="43.395497035235167" lon="-5.815351009368897">
        <ele>156.83000000000001</ele>
        <time>2025-04-29T12:52:18Z</time>
      </trkpt>
      <trkpt lat="43.395567024126649" lon="-5.815351009368897">
        <ele>157.31</ele>
        <time>2025-04-29T12:52:19Z</time>
      </trkpt>
      <trkpt lat="43.395656039938331" lon="-5.815283032134175">
        <ele>157.31</ele>
        <time>2025-04-29T12:52:20Z</time>
      </trkpt>
      <trkpt lat="43.395732985809445" lon="-5.815224023535848">
        <ele>157.31</ele>
        <time>2025-04-29T12:52:21Z</time>
      </trkpt>
      <trkpt lat="43.395810015499592" lon="-5.81516501493752">
        <ele>157.31</ele>
        <time>2025-04-29T12:52:22Z</time>
      </trkpt>
      <trkpt lat="43.396718027070165" lon="-5.814403016120195">
        <ele>158.75</ele>
        <time>2025-04-29T12:52:34Z</time>
      </trkpt>
      <trkpt lat="43.397425962612033" lon="-5.813857018947601">
        <ele>163.08000000000001</ele>
        <time>2025-04-29T12:52:44Z</time>
      </trkpt>
      <trkpt lat="43.397455969825387" lon="-5.813633976504207">
        <ele>163.08000000000001</ele>
        <time>2025-04-29T12:52:45Z</time>
      </trkpt>
      <trkpt lat="43.397468039765954" lon="-5.813605980947614">
        <ele>163.56</ele>
        <time>2025-04-29T12:52:46Z</time>
      </trkpt>
      <trkpt lat="43.397505003958941" lon="-5.813519982621074">
        <ele>164.03999999999999</ele>
        <time>2025-04-29T12:52:47Z</time>
      </trkpt>
      <trkpt lat="43.397574992850423" lon="-5.813457034528256">
        <ele>164.03999999999999</ele>
        <time>2025-04-29T12:52:48Z</time>
      </trkpt>
      <trkpt lat="43.397638024762273" lon="-5.81342501565814">
        <ele>164.52000000000001</ele>
        <time>2025-04-29T12:52:49Z</time>
      </trkpt>
      <trkpt lat="43.397649005055428" lon="-5.813419986516237">
        <ele>164.52000000000001</ele>
        <time>2025-04-29T12:52:50Z</time>
      </trkpt>
      <trkpt lat="43.397815972566605" lon="-5.813461979851127">
        <ele>164.52000000000001</ele>
        <time>2025-04-29T12:52:51Z</time>
      </trkpt>
      <trkpt lat="43.397873975336552" lon="-5.813397020101547">
        <ele>164.52000000000001</ele>
        <time>2025-04-29T12:52:52Z</time>
      </trkpt>
      <trkpt lat="43.397948993369937" lon="-5.813313033431768">
        <ele>164.52000000000001</ele>
        <time>2025-04-29T12:52:53Z</time>
      </trkpt>
      <trkpt lat="43.398018982261419" lon="-5.813265005126596">
        <ele>164.52000000000001</ele>
        <time>2025-04-29T12:52:54Z</time>
      </trkpt>
      <trkpt lat="43.398099029436707" lon="-5.813200967386365">
        <ele>164.52000000000001</ele>
        <time>2025-04-29T12:52:55Z</time>
      </trkpt>
      <trkpt lat="43.399039981886744" lon="-5.812353976070881">
        <ele>166.44999999999999</ele>
        <time>2025-04-29T12:53:08Z</time>
      </trkpt>
      <trkpt lat="43.399559995159507" lon="-5.811885008588433">
        <ele>167.41</ele>
        <time>2025-04-29T12:53:18Z</time>
      </trkpt>
      <trkpt lat="43.399665020406246" lon="-5.8117900416255">
        <ele>167.41</ele>
        <time>2025-04-29T12:53:20Z</time>
      </trkpt>
      <trkpt lat="43.399711037054658" lon="-5.811744024977088">
        <ele>167.41</ele>
        <time>2025-04-29T12:53:21Z</time>
      </trkpt>
      <trkpt lat="43.399750012904406" lon="-5.811704965308309">
        <ele>167.41</ele>
        <time>2025-04-29T12:53:22Z</time>
      </trkpt>
      <trkpt lat="43.399783037602901" lon="-5.811673030257225">
        <ele>167.41</ele>
        <time>2025-04-29T12:53:23Z</time>
      </trkpt>
      <trkpt lat="43.399813966825604" lon="-5.811643023043871">
        <ele>167.41</ele>
        <time>2025-04-29T12:53:24Z</time>
      </trkpt>
      <trkpt lat="43.399917986243963" lon="-5.811551995575428">
        <ele>167.88999999999999</ele>
        <time>2025-04-29T12:53:27Z</time>
      </trkpt>
      <trkpt lat="43.399946987628937" lon="-5.811526011675596">
        <ele>167.88999999999999</ele>
        <time>2025-04-29T12:53:28Z</time>
      </trkpt>
      <trkpt lat="43.399979006499052" lon="-5.811498016119003">
        <ele>167.88999999999999</ele>
        <time>2025-04-29T12:53:29Z</time>
      </trkpt>
      <trkpt lat="43.400008007884026" lon="-5.811472032219172">
        <ele>167.41</ele>
        <time>2025-04-29T12:53:30Z</time>
      </trkpt>
      <trkpt lat="43.400032985955477" lon="-5.81144998781383">
        <ele>167.41</ele>
        <time>2025-04-29T12:53:31Z</time>
      </trkpt>
      <trkpt lat="43.400052012875676" lon="-5.811432972550392">
        <ele>166.93000000000001</ele>
        <time>2025-04-29T12:53:32Z</time>
      </trkpt>
      <trkpt lat="43.400052012875676" lon="-5.811432972550392">
        <ele>166.44999999999999</ele>
        <time>2025-04-29T12:53:44Z</time>
      </trkpt>
      <trkpt lat="43.400052012875676" lon="-5.811432972550392">
        <ele>165.96000000000001</ele>
        <time>2025-04-29T12:54:27Z</time>
      </trkpt>
      <trkpt lat="43.400052012875676" lon="-5.811432972550392">
        <ele>164.52000000000001</ele>
        <time>2025-04-29T12:55:16Z</time>
      </trkpt>
      <trkpt lat="43.400116972625256" lon="-5.811375975608826">
        <ele>163.08000000000001</ele>
        <time>2025-04-29T12:55:42Z</time>
      </trkpt>
      <trkpt lat="43.400169024243951" lon="-5.811330964788795">
        <ele>162.59999999999999</ele>
        <time>2025-04-29T12:55:43Z</time>
      </trkpt>
      <trkpt lat="43.400226021185517" lon="-5.811288971453905">
        <ele>162.59999999999999</ele>
        <time>2025-04-29T12:55:44Z</time>
      </trkpt>
      <trkpt lat="43.400273965671659" lon="-5.811252007260919">
        <ele>162.12</ele>
        <time>2025-04-29T12:55:45Z</time>
      </trkpt>
      <trkpt lat="43.400317970663309" lon="-5.811219988390803">
        <ele>161.63999999999999</ele>
        <time>2025-04-29T12:55:46Z</time>
      </trkpt>
      <trkpt lat="43.400330962613225" lon="-5.811210013926029">
        <ele>161.16</ele>
        <time>2025-04-29T12:55:47Z</time>
      </trkpt>
      <trkpt lat="43.400330962613225" lon="-5.811210013926029">
        <ele>161.16</ele>
        <time>2025-04-29T12:55:48Z</time>
      </trkpt>
      <trkpt lat="43.400502959266305" lon="-5.811038017272949">
        <ele>160.68000000000001</ele>
        <time>2025-04-29T12:55:49Z</time>
      </trkpt>
      <trkpt lat="43.400502959266305" lon="-5.811038017272949">
        <ele>160.19999999999999</ele>
        <time>2025-04-29T12:55:50Z</time>
      </trkpt>
      <trkpt lat="43.40064000338316" lon="-5.810902984812856">
        <ele>159.72</ele>
        <time>2025-04-29T12:55:52Z</time>
      </trkpt>
      <trkpt lat="43.40104702860117" lon="-5.810530995950103">
        <ele>159.24000000000001</ele>
        <time>2025-04-29T12:55:57Z</time>
      </trkpt>
      <trkpt lat="43.401123974472284" lon="-5.810461007058621">
        <ele>159.24000000000001</ele>
        <time>2025-04-29T12:55:58Z</time>
      </trkpt>
      <trkpt lat="43.401700984686613" lon="-5.809958009049296">
        <ele>158.27000000000001</ele>
        <time>2025-04-29T12:56:07Z</time>
      </trkpt>
      <trkpt lat="43.401899971067905" lon="-5.809777965769172">
        <ele>161.63999999999999</ele>
        <time>2025-04-29T12:56:13Z</time>
      </trkpt>
      <trkpt lat="43.402050007134676" lon="-5.809647040441632">
        <ele>166.44999999999999</ele>
        <time>2025-04-29T12:56:22Z</time>
      </trkpt>
      <trkpt lat="43.402223009616137" lon="-5.809495998546481">
        <ele>166.44999999999999</ele>
        <time>2025-04-29T12:56:46Z</time>
      </trkpt>
      <trkpt lat="43.402916025370359" lon="-5.808888981118798">
        <ele>165</ele>
        <time>2025-04-29T12:56:55Z</time>
      </trkpt>
      <trkpt lat="43.403468979522586" lon="-5.808410039171577">
        <ele>164.52000000000001</ele>
        <time>2025-04-29T12:57:05Z</time>
      </trkpt>
      <trkpt lat="43.403489012271166" lon="-5.808392018079758">
        <ele>164.52000000000001</ele>
        <time>2025-04-29T12:57:13Z</time>
      </trkpt>
      <trkpt lat="43.403848009184003" lon="-5.808131005614996">
        <ele>163.56</ele>
        <time>2025-04-29T12:57:18Z</time>
      </trkpt>
      <trkpt lat="43.404001984745264" lon="-5.807990022003651">
        <ele>163.08000000000001</ele>
        <time>2025-04-29T12:57:20Z</time>
      </trkpt>
      <trkpt lat="43.404081026092172" lon="-5.807930007576942">
        <ele>163.08000000000001</ele>
        <time>2025-04-29T12:57:21Z</time>
      </trkpt>
      <trkpt lat="43.404181022197008" lon="-5.807959008961916">
        <ele>162.59999999999999</ele>
        <time>2025-04-29T12:57:22Z</time>
      </trkpt>
      <trkpt lat="43.404240030795336" lon="-5.808033021166921">
        <ele>163.08000000000001</ele>
        <time>2025-04-29T12:57:23Z</time>
      </trkpt>
      <trkpt lat="43.404257968068123" lon="-5.80822697840631">
        <ele>163.08000000000001</ele>
        <time>2025-04-29T12:57:24Z</time>
      </trkpt>
      <trkpt lat="43.40427003800869" lon="-5.808321023359895">
        <ele>163.08000000000001</ele>
        <time>2025-04-29T12:57:25Z</time>
      </trkpt>
      <trkpt lat="43.404287975281477" lon="-5.808457983657718">
        <ele>162.12</ele>
        <time>2025-04-29T12:57:26Z</time>
      </trkpt>
      <trkpt lat="43.404343966394663" lon="-5.808635009452701">
        <ele>161.63999999999999</ele>
        <time>2025-04-29T12:57:28Z</time>
      </trkpt>
      <trkpt lat="43.404457960277796" lon="-5.808754032477737">
        <ele>161.63999999999999</ele>
        <time>2025-04-29T12:57:29Z</time>
      </trkpt>
      <trkpt lat="43.404975961893797" lon="-5.809784000739455">
        <ele>165.96000000000001</ele>
        <time>2025-04-29T12:57:39Z</time>
      </trkpt>
      <trkpt lat="43.40536898933351" lon="-5.810556979849935">
        <ele>171.72999999999999</ele>
        <time>2025-04-29T12:57:47Z</time>
      </trkpt>
      <trkpt lat="43.405814990401268" lon="-5.81138301640749">
        <ele>172.21000000000001</ele>
        <time>2025-04-29T12:57:55Z</time>
      </trkpt>
      <trkpt lat="43.405891014263034" lon="-5.811467003077269">
        <ele>172.21000000000001</ele>
        <time>2025-04-29T12:57:56Z</time>
      </trkpt>
      <trkpt lat="43.405965026468039" lon="-5.811543026939035">
        <ele>172.21000000000001</ele>
        <time>2025-04-29T12:57:57Z</time>
      </trkpt>
      <trkpt lat="43.406704980880022" lon="-5.81209103576839">
        <ele>174.13999999999999</ele>
        <time>2025-04-29T12:58:06Z</time>
      </trkpt>
      <trkpt lat="43.407188029959798" lon="-5.812476016581059">
        <ele>173.66</ele>
        <time>2025-04-29T12:58:12Z</time>
      </trkpt>
      <trkpt lat="43.407706031575799" lon="-5.812853034585714">
        <ele>173.16999999999999</ele>
        <time>2025-04-29T12:58:20Z</time>
      </trkpt>
      <trkpt lat="43.408569032326341" lon="-5.813478995114565">
        <ele>171.72999999999999</ele>
        <time>2025-04-29T12:58:31Z</time>
      </trkpt>
      <trkpt lat="43.408815963193774" lon="-5.813658032566309">
        <ele>171.25</ele>
        <time>2025-04-29T12:58:34Z</time>
      </trkpt>
      <trkpt lat="43.409684998914599" lon="-5.81400697119534">
        <ele>167.88999999999999</ele>
        <time>2025-04-29T12:58:44Z</time>
      </trkpt>
      <trkpt lat="43.410612037405372" lon="-5.814191959798336">
        <ele>166.44999999999999</ele>
        <time>2025-04-29T12:58:55Z</time>
      </trkpt>
      <trkpt lat="43.411639994010329" lon="-5.814191959798336">
        <ele>167.41</ele>
        <time>2025-04-29T12:59:08Z</time>
      </trkpt>
      <trkpt lat="43.411932019516826" lon="-5.814204029738903">
        <ele>167.88999999999999</ele>
        <time>2025-04-29T12:59:12Z</time>
      </trkpt>
      <trkpt lat="43.411982981488109" lon="-5.814214004203677">
        <ele>167.88999999999999</ele>
        <time>2025-04-29T12:59:13Z</time>
      </trkpt>
      <trkpt lat="43.412068979814649" lon="-5.814287010580301">
        <ele>167.41</ele>
        <time>2025-04-29T12:59:14Z</time>
      </trkpt>
      <trkpt lat="43.412142992019653" lon="-5.81434995867312">
        <ele>167.41</ele>
        <time>2025-04-29T12:59:15Z</time>
      </trkpt>
      <trkpt lat="43.41222102753818" lon="-5.814416008070111">
        <ele>167.41</ele>
        <time>2025-04-29T12:59:16Z</time>
      </trkpt>
      <trkpt lat="43.41228699311614" lon="-5.814488008618355">
        <ele>167.41</ele>
        <time>2025-04-29T12:59:17Z</time>
      </trkpt>
      <trkpt lat="43.412611037492752" lon="-5.814944989979267">
        <ele>165</ele>
        <time>2025-04-29T12:59:23Z</time>
      </trkpt>
      <trkpt lat="43.41310397721827" lon="-5.81557497382164">
        <ele>162.59999999999999</ele>
        <time>2025-04-29T12:59:31Z</time>
      </trkpt>
      <trkpt lat="43.413177989423275" lon="-5.815599029883742">
        <ele>162.59999999999999</ele>
        <time>2025-04-29T12:59:32Z</time>
      </trkpt>
      <trkpt lat="43.413290977478027" lon="-5.815566005185247">
        <ele>161.63999999999999</ele>
        <time>2025-04-29T12:59:33Z</time>
      </trkpt>
      <trkpt lat="43.413422992452979" lon="-5.815526023507118">
        <ele>160.68000000000001</ele>
        <time>2025-04-29T12:59:35Z</time>
      </trkpt>
      <trkpt lat="43.413546960800886" lon="-5.815592994913459">
        <ele>159.72</ele>
        <time>2025-04-29T12:59:36Z</time>
      </trkpt>
      <trkpt lat="43.413589037954807" lon="-5.815688967704773">
        <ele>159.24000000000001</ele>
        <time>2025-04-29T12:59:37Z</time>
      </trkpt>
      <trkpt lat="43.413570011034608" lon="-5.815815031528473">
        <ele>159.24000000000001</ele>
        <time>2025-04-29T12:59:38Z</time>
      </trkpt>
      <trkpt lat="43.413560036569834" lon="-5.815974036231637">
        <ele>159.24000000000001</ele>
        <time>2025-04-29T12:59:39Z</time>
      </trkpt>
      <trkpt lat="43.413592977449298" lon="-5.816106973215938">
        <ele>158.75</ele>
        <time>2025-04-29T12:59:40Z</time>
      </trkpt>
      <trkpt lat="43.413630025461316" lon="-5.816254997625947">
        <ele>158.27000000000001</ele>
        <time>2025-04-29T12:59:41Z</time>
      </trkpt>
      <trkpt lat="43.413684004917741" lon="-5.816403022035956">
        <ele>157.78999999999999</ele>
        <time>2025-04-29T12:59:42Z</time>
      </trkpt>
      <trkpt lat="43.413766985759139" lon="-5.816533025354147">
        <ele>157.31</ele>
        <time>2025-04-29T12:59:43Z</time>
      </trkpt>
      <trkpt lat="43.413851978257298" lon="-5.816665962338448">
        <ele>156.83000000000001</ele>
        <time>2025-04-29T12:59:44Z</time>
      </trkpt>
      <trkpt lat="43.413936970755458" lon="-5.81679898314178">
        <ele>156.83000000000001</ele>
        <time>2025-04-29T12:59:45Z</time>
      </trkpt>
      <trkpt lat="43.4146289806813" lon="-5.817799028009176">
        <ele>155.87</ele>
        <time>2025-04-29T12:59:54Z</time>
      </trkpt>
      <trkpt lat="43.414942966774106" lon="-5.81823798827827">
        <ele>156.83000000000001</ele>
        <time>2025-04-29T12:59:58Z</time>
      </trkpt>
      <trkpt lat="43.415027959272265" lon="-5.818360028788447">
        <ele>156.83000000000001</ele>
        <time>2025-04-29T12:59:59Z</time>
      </trkpt>
      <trkpt lat="43.415281008929014" lon="-5.818717014044523">
        <ele>158.27000000000001</ele>
        <time>2025-04-29T13:00:02Z</time>
      </trkpt>
      <trkpt lat="43.415360972285271" lon="-5.818830002099276">
        <ele>158.75</ele>
        <time>2025-04-29T13:00:03Z</time>
      </trkpt>
      <trkpt lat="43.416182985529304" lon="-5.819985028356314">
        <ele>161.63999999999999</ele>
        <time>2025-04-29T13:00:13Z</time>
      </trkpt>
      <trkpt lat="43.416681038215756" lon="-5.820675026625395">
        <ele>163.08000000000001</ele>
        <time>2025-04-29T13:00:19Z</time>
      </trkpt>
      <trkpt lat="43.417493999004364" lon="-5.821781018748879">
        <ele>168.37</ele>
        <time>2025-04-29T13:00:29Z</time>
      </trkpt>
      <trkpt lat="43.418347025290132" lon="-5.822941996157169">
        <ele>173.16999999999999</ele>
        <time>2025-04-29T13:00:39Z</time>
      </trkpt>
      <trkpt lat="43.419381016865373" lon="-5.824346970766783">
        <ele>174.62</ele>
        <time>2025-04-29T13:00:51Z</time>
      </trkpt>
      <trkpt lat="43.419641023501754" lon="-5.824698004871607">
        <ele>174.13999999999999</ele>
        <time>2025-04-29T13:00:54Z</time>
      </trkpt>
      <trkpt lat="43.419724004343152" lon="-5.824810992926359">
        <ele>173.66</ele>
        <time>2025-04-29T13:00:55Z</time>
      </trkpt>
      <trkpt lat="43.419874962419271" lon="-5.825015008449554">
        <ele>173.66</ele>
        <time>2025-04-29T13:00:59Z</time>
      </trkpt>
      <trkpt lat="43.419929025694728" lon="-5.825087008997798">
        <ele>173.16999999999999</ele>
        <time>2025-04-29T13:01:01Z</time>
      </trkpt>
      <trkpt lat="43.419933971017599" lon="-5.825178036466241">
        <ele>173.16999999999999</ele>
        <time>2025-04-29T13:01:02Z</time>
      </trkpt>
      <trkpt lat="43.419899018481374" lon="-5.825223969295621">
        <ele>173.16999999999999</ele>
        <time>2025-04-29T13:01:03Z</time>
      </trkpt>
      <trkpt lat="43.419861970469356" lon="-5.825274009257555">
        <ele>173.16999999999999</ele>
        <time>2025-04-29T13:01:04Z</time>
      </trkpt>
      <trkpt lat="43.41982601210475" lon="-5.825322959572077">
        <ele>173.16999999999999</ele>
        <time>2025-04-29T13:01:05Z</time>
      </trkpt>
      <trkpt lat="43.41978301294148" lon="-5.825380962342024">
        <ele>173.16999999999999</ele>
        <time>2025-04-29T13:01:06Z</time>
      </trkpt>
      <trkpt lat="43.419732972979546" lon="-5.825449023395777">
        <ele>172.69</ele>
        <time>2025-04-29T13:01:07Z</time>
      </trkpt>
      <trkpt lat="43.419672958552837" lon="-5.825528986752033">
        <ele>173.16999999999999</ele>
        <time>2025-04-29T13:01:08Z</time>
      </trkpt>
      <trkpt lat="43.419471038505435" lon="-5.82580097950995">
        <ele>174.62</ele>
        <time>2025-04-29T13:01:11Z</time>
      </trkpt>
      <trkpt lat="43.419449999928474" lon="-5.825897036120296">
        <ele>175.09999999999999</ele>
        <time>2025-04-29T13:01:12Z</time>
      </trkpt>
      <trkpt lat="43.419428039342165" lon="-5.82599401473999">
        <ele>175.09999999999999</ele>
        <time>2025-04-29T13:01:13Z</time>
      </trkpt>
      <trkpt lat="43.419428039342165" lon="-5.826117983087897">
        <ele>175.58000000000001</ele>
        <time>2025-04-29T13:01:14Z</time>
      </trkpt>
      <trkpt lat="43.419428039342165" lon="-5.826240023598075">
        <ele>176.06</ele>
        <time>2025-04-29T13:01:15Z</time>
      </trkpt>
      <trkpt lat="43.419401971623302" lon="-5.826366003602743">
        <ele>176.06</ele>
        <time>2025-04-29T13:01:16Z</time>
      </trkpt>
      <trkpt lat="43.41937598772347" lon="-5.826476980000734">
        <ele>176.53999999999999</ele>
        <time>2025-04-29T13:01:17Z</time>
      </trkpt>
      <trkpt lat="43.419300969690084" lon="-5.826798006892204">
        <ele>177.02000000000001</ele>
        <time>2025-04-29T13:01:20Z</time>
      </trkpt>
      <trkpt lat="43.419278003275394" lon="-5.826894985511899">
        <ele>177.02000000000001</ele>
        <time>2025-04-29T13:01:21Z</time>
      </trkpt>
      <trkpt lat="43.419275991618633" lon="-5.827005039900541">
        <ele>177.5</ele>
        <time>2025-04-29T13:01:22Z</time>
      </trkpt>
      <trkpt lat="43.419299963861704" lon="-5.828418983146548">
        <ele>184.22999999999999</ele>
        <time>2025-04-29T13:01:36Z</time>
      </trkpt>
      <trkpt lat="43.419283032417297" lon="-5.828673960641027">
        <ele>185.66999999999999</ele>
        <time>2025-04-29T13:01:38Z</time>
      </trkpt>
      <trkpt lat="43.419265011325479" lon="-5.82876599393785">
        <ele>186.15000000000001</ele>
        <time>2025-04-29T13:01:39Z</time>
      </trkpt>
      <trkpt lat="43.419221006333828" lon="-5.828845035284758">
        <ele>186.15000000000001</ele>
        <time>2025-04-29T13:01:40Z</time>
      </trkpt>
      <trkpt lat="43.419037023559213" lon="-5.829186011105776">
        <ele>186.63</ele>
        <time>2025-04-29T13:01:44Z</time>
      </trkpt>
      <trkpt lat="43.418991006910801" lon="-5.829266980290413">
        <ele>186.63</ele>
        <time>2025-04-29T13:01:45Z</time>
      </trkpt>
      <trkpt lat="43.418776011094451" lon="-5.82958297803998">
        <ele>187.11000000000001</ele>
        <time>2025-04-29T13:01:49Z</time>
      </trkpt>
      <trkpt lat="43.418720019981265" lon="-5.829663025215268">
        <ele>187.11000000000001</ele>
        <time>2025-04-29T13:01:50Z</time>
      </trkpt>
      <trkpt lat="43.418683977797627" lon="-5.829757992178202">
        <ele>187.59</ele>
        <time>2025-04-29T13:01:51Z</time>
      </trkpt>
      <trkpt lat="43.41864500194788" lon="-5.829859999939799">
        <ele>187.59</ele>
        <time>2025-04-29T13:01:52Z</time>
      </trkpt>
      <trkpt lat="43.418604014441371" lon="-5.829966031014919">
        <ele>188.08000000000001</ele>
        <time>2025-04-29T13:01:53Z</time>
      </trkpt>
      <trkpt lat="43.418521033599973" lon="-5.830181026831269">
        <ele>189.03999999999999</ele>
        <time>2025-04-29T13:01:55Z</time>
      </trkpt>
      <trkpt lat="43.418392958119512" lon="-5.830470034852624">
        <ele>190.47999999999999</ele>
        <time>2025-04-29T13:01:58Z</time>
      </trkpt>
      <trkpt lat="43.418349958956242" lon="-5.830563995987177">
        <ele>191.44</ele>
        <time>2025-04-29T13:01:59Z</time>
      </trkpt>
      <trkpt lat="43.418249962851405" lon="-5.830727024003863">
        <ele>192.40000000000001</ele>
        <time>2025-04-29T13:02:01Z</time>
      </trkpt>
      <trkpt lat="43.418179973959923" lon="-5.830778991803527">
        <ele>192.88</ele>
        <time>2025-04-29T13:02:02Z</time>
      </trkpt>
      <trkpt lat="43.418102022260427" lon="-5.830778991803527">
        <ele>193.36000000000001</ele>
        <time>2025-04-29T13:02:03Z</time>
      </trkpt>
      <trkpt lat="43.417938994243741" lon="-5.830778991803527">
        <ele>193.84</ele>
        <time>2025-04-29T13:02:05Z</time>
      </trkpt>
      <trkpt lat="43.417859030887485" lon="-5.830778991803527">
        <ele>193.36000000000001</ele>
        <time>2025-04-29T13:02:06Z</time>
      </trkpt>
      <trkpt lat="43.417774038389325" lon="-5.830778991803527">
        <ele>193.36000000000001</ele>
        <time>2025-04-29T13:02:07Z</time>
      </trkpt>
      <trkpt lat="43.417676975950599" lon="-5.830795001238585">
        <ele>193.36000000000001</ele>
        <time>2025-04-29T13:02:08Z</time>
      </trkpt>
      <trkpt lat="43.417616039514542" lon="-5.830865995958448">
        <ele>193.36000000000001</ele>
        <time>2025-04-29T13:02:09Z</time>
      </trkpt>
      <trkpt lat="43.41754999011755" lon="-5.830950988456607">
        <ele>192.88</ele>
        <time>2025-04-29T13:02:10Z</time>
      </trkpt>
      <trkpt lat="43.417503973469138" lon="-5.831044027581811">
        <ele>193.36000000000001</ele>
        <time>2025-04-29T13:02:11Z</time>
      </trkpt>
      <trkpt lat="43.41746499761939" lon="-5.831122985109687">
        <ele>193.36000000000001</ele>
        <time>2025-04-29T13:02:12Z</time>
      </trkpt>
      <trkpt lat="43.417429039254785" lon="-5.83119397982955">
        <ele>193.84</ele>
        <time>2025-04-29T13:02:13Z</time>
      </trkpt>
      <trkpt lat="43.417298030108213" lon="-5.831393972039223">
        <ele>195.28</ele>
        <time>2025-04-29T13:02:16Z</time>
      </trkpt>
      <trkpt lat="43.417079010978341" lon="-5.831587007269263">
        <ele>196.25</ele>
        <time>2025-04-29T13:02:19Z</time>
      </trkpt>
      <trkpt lat="43.417027965188026" lon="-5.831679040566087">
        <ele>195.77000000000001</ele>
        <time>2025-04-29T13:02:20Z</time>
      </trkpt>
      <trkpt lat="43.417012039572001" lon="-5.831835027784109">
        <ele>195.77000000000001</ele>
        <time>2025-04-29T13:02:21Z</time>
      </trkpt>
      <trkpt lat="43.417022014036775" lon="-5.831966958940029">
        <ele>195.28</ele>
        <time>2025-04-29T13:02:22Z</time>
      </trkpt>
      <trkpt lat="43.417032994329929" lon="-5.832110960036516">
        <ele>195.28</ele>
        <time>2025-04-29T13:02:23Z</time>
      </trkpt>
      <trkpt lat="43.417079010978341" lon="-5.832708002999425">
        <ele>193.36000000000001</ele>
        <time>2025-04-29T13:02:27Z</time>
      </trkpt>
      <trkpt lat="43.417071970179677" lon="-5.832987036556006">
        <ele>191.91999999999999</ele>
        <time>2025-04-29T13:02:29Z</time>
      </trkpt>
      <trkpt lat="43.417055960744619" lon="-5.833123996853828">
        <ele>191.44</ele>
        <time>2025-04-29T13:02:30Z</time>
      </trkpt>
      <trkpt lat="43.41703400015831" lon="-5.833236984908581">
        <ele>190.96000000000001</ele>
        <time>2025-04-29T13:02:31Z</time>
      </trkpt>
      <trkpt lat="43.416995024308562" lon="-5.833343015983701">
        <ele>190.47999999999999</ele>
        <time>2025-04-29T13:02:32Z</time>
      </trkpt>
      <trkpt lat="43.416959987953305" lon="-5.833439994603396">
        <ele>190.47999999999999</ele>
        <time>2025-04-29T13:02:33Z</time>
      </trkpt>
      <trkpt lat="43.41692503541708" lon="-5.8335330337286">
        <ele>190.96000000000001</ele>
        <time>2025-04-29T13:02:34Z</time>
      </trkpt>
      <trkpt lat="43.416883964091539" lon="-5.833620959892869">
        <ele>190.96000000000001</ele>
        <time>2025-04-29T13:02:35Z</time>
      </trkpt>
      <trkpt lat="43.416811041533947" lon="-5.833674017339945">
        <ele>190.96000000000001</ele>
        <time>2025-04-29T13:02:36Z</time>
      </trkpt>
      <trkpt lat="43.416735017672181" lon="-5.83372900262475">
        <ele>190.47999999999999</ele>
        <time>2025-04-29T13:02:37Z</time>
      </trkpt>
      <trkpt lat="43.416650025174022" lon="-5.833787005394697">
        <ele>190</ele>
        <time>2025-04-29T13:02:38Z</time>
      </trkpt>
      <trkpt lat="43.416277030482888" lon="-5.833932012319565">
        <ele>188.08000000000001</ele>
        <time>2025-04-29T13:02:42Z</time>
      </trkpt>
      <trkpt lat="43.416207041591406" lon="-5.834011975675821">
        <ele>187.59</ele>
        <time>2025-04-29T13:02:43Z</time>
      </trkpt>
      <trkpt lat="43.416126994416118" lon="-5.834105014801025">
        <ele>187.11000000000001</ele>
        <time>2025-04-29T13:02:44Z</time>
      </trkpt>
      <trkpt lat="43.415762968361378" lon="-5.834613963961601">
        <ele>184.22999999999999</ele>
        <time>2025-04-29T13:02:49Z</time>
      </trkpt>
      <trkpt lat="43.415607986971736" lon="-5.834919987246394">
        <ele>183.27000000000001</ele>
        <time>2025-04-29T13:02:52Z</time>
      </trkpt>
      <trkpt lat="43.415568005293608" lon="-5.835036998614669">
        <ele>182.78999999999999</ele>
        <time>2025-04-29T13:02:53Z</time>
      </trkpt>
      <trkpt lat="43.415527017787099" lon="-5.835156021639705">
        <ele>182.31</ele>
        <time>2025-04-29T13:02:54Z</time>
      </trkpt>
      <trkpt lat="43.415375975891948" lon="-5.835492974147201">
        <ele>181.34999999999999</ele>
        <time>2025-04-29T13:02:57Z</time>
      </trkpt>
      <trkpt lat="43.415307998657227" lon="-5.835579978302121">
        <ele>181.34999999999999</ele>
        <time>2025-04-29T13:02:58Z</time>
      </trkpt>
      <trkpt lat="43.415231974795461" lon="-5.835638986900449">
        <ele>181.34999999999999</ele>
        <time>2025-04-29T13:02:59Z</time>
      </trkpt>
      <trkpt lat="43.415152011439204" lon="-5.835686009377241">
        <ele>181.34999999999999</ele>
        <time>2025-04-29T13:03:00Z</time>
      </trkpt>
      <trkpt lat="43.415073975920677" lon="-5.835731020197272">
        <ele>181.34999999999999</ele>
        <time>2025-04-29T13:03:01Z</time>
      </trkpt>
      <trkpt lat="43.414997030049562" lon="-5.835767984390259">
        <ele>181.34999999999999</ele>
        <time>2025-04-29T13:03:02Z</time>
      </trkpt>
      <trkpt lat="43.414900973439217" lon="-5.835800003260374">
        <ele>180.87</ele>
        <time>2025-04-29T13:03:03Z</time>
      </trkpt>
      <trkpt lat="43.414839031174779" lon="-5.835821963846684">
        <ele>180.38</ele>
        <time>2025-04-29T13:03:04Z</time>
      </trkpt>
      <trkpt lat="43.414758983999491" lon="-5.835850965231657">
        <ele>179.90000000000001</ele>
        <time>2025-04-29T13:03:05Z</time>
      </trkpt>
      <trkpt lat="43.414216004312038" lon="-5.836045006290078">
        <ele>177.02000000000001</ele>
        <time>2025-04-29T13:03:11Z</time>
      </trkpt>
      <trkpt lat="43.414131011813879" lon="-5.836075013503432">
        <ele>176.53999999999999</ele>
        <time>2025-04-29T13:03:12Z</time>
      </trkpt>
      <trkpt lat="43.414065968245268" lon="-5.836097979918122">
        <ele>176.06</ele>
        <time>2025-04-29T13:03:13Z</time>
      </trkpt>
      <trkpt lat="43.414032021537423" lon="-5.836228989064694">
        <ele>175.58000000000001</ele>
        <time>2025-04-29T13:03:14Z</time>
      </trkpt>
      <trkpt lat="43.414051970466971" lon="-5.836295038461685">
        <ele>175.09999999999999</ele>
        <time>2025-04-29T13:03:15Z</time>
      </trkpt>
      <trkpt lat="43.414077032357454" lon="-5.836377013474703">
        <ele>175.09999999999999</ele>
        <time>2025-04-29T13:03:16Z</time>
      </trkpt>
      <trkpt lat="43.414103016257286" lon="-5.836461000144482">
        <ele>175.09999999999999</ele>
        <time>2025-04-29T13:03:17Z</time>
      </trkpt>
      <trkpt lat="43.414130005985498" lon="-5.836551021784544">
        <ele>175.58000000000001</ele>
        <time>2025-04-29T13:03:18Z</time>
      </trkpt>
      <trkpt lat="43.414158001542091" lon="-5.836640959605575">
        <ele>176.06</ele>
        <time>2025-04-29T13:03:19Z</time>
      </trkpt>
      <trkpt lat="43.414220027625561" lon="-5.836846986785531">
        <ele>176.53999999999999</ele>
        <time>2025-04-29T13:03:21Z</time>
      </trkpt>
      <trkpt lat="43.414253974333405" lon="-5.836958969011903">
        <ele>177.02000000000001</ele>
        <time>2025-04-29T13:03:22Z</time>
      </trkpt>
      <trkpt lat="43.414296973496675" lon="-5.837120991200209">
        <ele>177.02000000000001</ele>
        <time>2025-04-29T13:03:23Z</time>
      </trkpt>
      <trkpt lat="43.414265038445592" lon="-5.837234985083342">
        <ele>177.97999999999999</ele>
        <time>2025-04-29T13:03:24Z</time>
      </trkpt>
      <trkpt lat="43.414230002090335" lon="-5.8373580314219">
        <ele>178.46000000000001</ele>
        <time>2025-04-29T13:03:25Z</time>
      </trkpt>
      <trkpt lat="43.414064040407538" lon="-5.837946021929383">
        <ele>181.83000000000001</ele>
        <time>2025-04-29T13:03:29Z</time>
      </trkpt>
      <trkpt lat="43.414064040407538" lon="-5.83806898444891">
        <ele>182.31</ele>
        <time>2025-04-29T13:03:30Z</time>
      </trkpt>
      <trkpt lat="43.414064962416887" lon="-5.838231006637216">
        <ele>182.78999999999999</ele>
        <time>2025-04-29T13:03:31Z</time>
      </trkpt>
      <trkpt lat="43.414103016257286" lon="-5.838550021871924">
        <ele>184.22999999999999</ele>
        <time>2025-04-29T13:03:33Z</time>
      </trkpt>
      <trkpt lat="43.414122965186834" lon="-5.838720006868243">
        <ele>185.19</ele>
        <time>2025-04-29T13:03:34Z</time>
      </trkpt>
      <trkpt lat="43.414165964350104" lon="-5.838889991864562">
        <ele>186.15000000000001</ele>
        <time>2025-04-29T13:03:35Z</time>
      </trkpt>
      <trkpt lat="43.414513980969787" lon="-5.839886013418436">
        <ele>188.08000000000001</ele>
        <time>2025-04-29T13:03:41Z</time>
      </trkpt>
      <trkpt lat="43.414604002609849" lon="-5.840054992586374">
        <ele>187.59</ele>
        <time>2025-04-29T13:03:42Z</time>
      </trkpt>
      <trkpt lat="43.414794020354748" lon="-5.840370990335941">
        <ele>186.63</ele>
        <time>2025-04-29T13:03:44Z</time>
      </trkpt>
      <trkpt lat="43.41486400924623" lon="-5.840551033616066">
        <ele>186.63</ele>
        <time>2025-04-29T13:03:45Z</time>
      </trkpt>
      <trkpt lat="43.414932992309332" lon="-5.840729987248778">
        <ele>186.15000000000001</ele>
        <time>2025-04-29T13:03:46Z</time>
      </trkpt>
      <trkpt lat="43.415468009188771" lon="-5.841949973255396">
        <ele>189.52000000000001</ele>
        <time>2025-04-29T13:03:53Z</time>
      </trkpt>
      <trkpt lat="43.415507990866899" lon="-5.842131022363901">
        <ele>190</ele>
        <time>2025-04-29T13:03:54Z</time>
      </trkpt>
      <trkpt lat="43.415626008063555" lon="-5.842595966532826">
        <ele>190.96000000000001</ele>
        <time>2025-04-29T13:03:57Z</time>
      </trkpt>
      <trkpt lat="43.415690967813134" lon="-5.842694034799933">
        <ele>190.96000000000001</ele>
        <time>2025-04-29T13:03:58Z</time>
      </trkpt>
      <trkpt lat="43.415759028866887" lon="-5.842795036733151">
        <ele>191.44</ele>
        <time>2025-04-29T13:03:59Z</time>
      </trkpt>
      <trkpt lat="43.41651801019907" lon="-5.843580001965165">
        <ele>191.44</ele>
        <time>2025-04-29T13:04:07Z</time>
      </trkpt>
      <trkpt lat="43.417587960138917" lon="-5.84477199241519">
        <ele>182.78999999999999</ele>
        <time>2025-04-29T13:04:17Z</time>
      </trkpt>
      <trkpt lat="43.417706983163953" lon="-5.844866037368774">
        <ele>182.31</ele>
        <time>2025-04-29T13:04:18Z</time>
      </trkpt>
      <trkpt lat="43.418291034176946" lon="-5.845326958224177">
        <ele>179.41999999999999</ele>
        <time>2025-04-29T13:04:23Z</time>
      </trkpt>
      <trkpt lat="43.418360017240047" lon="-5.845410022884607">
        <ele>178.94</ele>
        <time>2025-04-29T13:04:24Z</time>
      </trkpt>
      <trkpt lat="43.418434029445052" lon="-5.845534997060895">
        <ele>178.46000000000001</ele>
        <time>2025-04-29T13:04:25Z</time>
      </trkpt>
      <trkpt lat="43.418491026386619" lon="-5.845663994550705">
        <ele>177.97999999999999</ele>
        <time>2025-04-29T13:04:26Z</time>
      </trkpt>
      <trkpt lat="43.418546011671424" lon="-5.845788968726993">
        <ele>177.5</ele>
        <time>2025-04-29T13:04:27Z</time>
      </trkpt>
      <trkpt lat="43.418598985299468" lon="-5.845906985923648">
        <ele>177.02000000000001</ele>
        <time>2025-04-29T13:04:28Z</time>
      </trkpt>
      <trkpt lat="43.418655982241035" lon="-5.846035983413458">
        <ele>176.53999999999999</ele>
        <time>2025-04-29T13:04:29Z</time>
      </trkpt>
      <trkpt lat="43.418690012767911" lon="-5.846173027530313">
        <ele>176.53999999999999</ele>
        <time>2025-04-29T13:04:30Z</time>
      </trkpt>
      <trkpt lat="43.418747009709477" lon="-5.846485001966357">
        <ele>175.09999999999999</ele>
        <time>2025-04-29T13:04:32Z</time>
      </trkpt>
      <trkpt lat="43.41875396668911" lon="-5.846638977527618">
        <ele>174.62</ele>
        <time>2025-04-29T13:04:33Z</time>
      </trkpt>
      <trkpt lat="43.418760001659393" lon="-5.84679102525115">
        <ele>174.62</ele>
        <time>2025-04-29T13:04:34Z</time>
      </trkpt>
      <trkpt lat="43.418729994446039" lon="-5.847081961110234">
        <ele>174.13999999999999</ele>
        <time>2025-04-29T13:04:36Z</time>
      </trkpt>
      <trkpt lat="43.41868900693953" lon="-5.847212970256805">
        <ele>173.66</ele>
        <time>2025-04-29T13:04:37Z</time>
      </trkpt>
      <trkpt lat="43.418626980856061" lon="-5.847334004938602">
        <ele>173.16999999999999</ele>
        <time>2025-04-29T13:04:38Z</time>
      </trkpt>
      <trkpt lat="43.41855900362134" lon="-5.847465014085174">
        <ele>172.69</ele>
        <time>2025-04-29T13:04:39Z</time>
      </trkpt>
      <trkpt lat="43.418490020558238" lon="-5.847599962726235">
        <ele>171.72999999999999</ele>
        <time>2025-04-29T13:04:40Z</time>
      </trkpt>
      <trkpt lat="43.418424976989627" lon="-5.847728038206697">
        <ele>171.25</ele>
        <time>2025-04-29T13:04:41Z</time>
      </trkpt>
      <trkpt lat="43.41836404055357" lon="-5.84784597158432">
        <ele>170.77000000000001</ele>
        <time>2025-04-29T13:04:42Z</time>
      </trkpt>
      <trkpt lat="43.418307965621352" lon="-5.847955020144582">
        <ele>170.28999999999999</ele>
        <time>2025-04-29T13:04:43Z</time>
      </trkpt>
      <trkpt lat="43.418321963399649" lon="-5.848071025684476">
        <ele>169.81</ele>
        <time>2025-04-29T13:04:44Z</time>
      </trkpt>
      <trkpt lat="43.418364962562919" lon="-5.848184013739228">
        <ele>168.84999999999999</ele>
        <time>2025-04-29T13:04:45Z</time>
      </trkpt>
      <trkpt lat="43.418459007516503" lon="-5.848434967920184">
        <ele>167.41</ele>
        <time>2025-04-29T13:04:47Z</time>
      </trkpt>
      <trkpt lat="43.418505024164915" lon="-5.848559020087123">
        <ele>166.44999999999999</ele>
        <time>2025-04-29T13:04:48Z</time>
      </trkpt>
      <trkpt lat="43.418575013056397" lon="-5.848681982606649">
        <ele>165.47999999999999</ele>
        <time>2025-04-29T13:04:49Z</time>
      </trkpt>
      <trkpt lat="43.418676014989614" lon="-5.848708972334862">
        <ele>164.52000000000001</ele>
        <time>2025-04-29T13:04:50Z</time>
      </trkpt>
      <trkpt lat="43.418781962245703" lon="-5.848736967891455">
        <ele>163.56</ele>
        <time>2025-04-29T13:04:51Z</time>
      </trkpt>
      <trkpt lat="43.418900985270739" lon="-5.848750965669751">
        <ele>162.59999999999999</ele>
        <time>2025-04-29T13:04:52Z</time>
      </trkpt>
      <trkpt lat="43.41901296749711" lon="-5.848716013133526">
        <ele>161.16</ele>
        <time>2025-04-29T13:04:53Z</time>
      </trkpt>
      <trkpt lat="43.41911899857223" lon="-5.84868298843503">
        <ele>160.19999999999999</ele>
        <time>2025-04-29T13:04:54Z</time>
      </trkpt>
      <trkpt lat="43.419206002727151" lon="-5.848655998706818">
        <ele>159.24000000000001</ele>
        <time>2025-04-29T13:04:55Z</time>
      </trkpt>
      <trkpt lat="43.419243972748518" lon="-5.84870302118361">
        <ele>158.27000000000001</ele>
        <time>2025-04-29T13:04:56Z</time>
      </trkpt>
      <trkpt lat="43.419298036023974" lon="-5.848790025338531">
        <ele>157.31</ele>
        <time>2025-04-29T13:04:57Z</time>
      </trkpt>
      <trkpt lat="43.419361989945173" lon="-5.848894966766238">
        <ele>155.87</ele>
        <time>2025-04-29T13:04:58Z</time>
      </trkpt>
      <trkpt lat="43.419431978836656" lon="-5.849008960649371">
        <ele>154.91</ele>
        <time>2025-04-29T13:04:59Z</time>
      </trkpt>
      <trkpt lat="43.420211998745799" lon="-5.850330032408238">
        <ele>147.22</ele>
        <time>2025-04-29T13:05:09Z</time>
      </trkpt>
      <trkpt lat="43.42040503397584" lon="-5.850694980472326">
        <ele>146.25999999999999</ele>
        <time>2025-04-29T13:05:12Z</time>
      </trkpt>
      <trkpt lat="43.42044803313911" lon="-5.850826995447278">
        <ele>146.25999999999999</ele>
        <time>2025-04-29T13:05:13Z</time>
      </trkpt>
      <trkpt lat="43.42047200538218" lon="-5.850977031514049">
        <ele>146.74000000000001</ele>
        <time>2025-04-29T13:05:14Z</time>
      </trkpt>
      <trkpt lat="43.420695969834924" lon="-5.852533970028162">
        <ele>148.66</ele>
        <time>2025-04-29T13:05:25Z</time>
      </trkpt>
      <trkpt lat="43.42072899453342" lon="-5.852813003584743">
        <ele>149.62</ele>
        <time>2025-04-29T13:05:27Z</time>
      </trkpt>
      <trkpt lat="43.420767970383167" lon="-5.852965973317623">
        <ele>150.58000000000001</ele>
        <time>2025-04-29T13:05:28Z</time>
      </trkpt>
      <trkpt lat="43.420820022001863" lon="-5.853116009384394">
        <ele>151.06</ele>
        <time>2025-04-29T13:05:29Z</time>
      </trkpt>
      <trkpt lat="43.421456040814519" lon="-5.854801023378968">
        <ele>163.08000000000001</ele>
        <time>2025-04-29T13:05:41Z</time>
      </trkpt>
      <trkpt lat="43.421694003045559" lon="-5.855293963104487">
        <ele>165.96000000000001</ele>
        <time>2025-04-29T13:05:45Z</time>
      </trkpt>
      <trkpt lat="43.421777989715338" lon="-5.855389013886452">
        <ele>166.93000000000001</ele>
        <time>2025-04-29T13:05:46Z</time>
      </trkpt>
      <trkpt lat="43.422021986916661" lon="-5.855661006644368">
        <ele>167.88999999999999</ele>
        <time>2025-04-29T13:05:49Z</time>
      </trkpt>
      <trkpt lat="43.422077978029847" lon="-5.855796039104462">
        <ele>167.88999999999999</ele>
        <time>2025-04-29T13:05:50Z</time>
      </trkpt>
      <trkpt lat="43.422094993293285" lon="-5.855928976088762">
        <ele>167.88999999999999</ele>
        <time>2025-04-29T13:05:51Z</time>
      </trkpt>
      <trkpt lat="43.422111002728343" lon="-5.856055961921811">
        <ele>167.88999999999999</ele>
        <time>2025-04-29T13:05:52Z</time>
      </trkpt>
      <trkpt lat="43.422100022435188" lon="-5.856211027130485">
        <ele>167.88999999999999</ele>
        <time>2025-04-29T13:05:53Z</time>
      </trkpt>
      <trkpt lat="43.422089964151382" lon="-5.856359973549843">
        <ele>167.88999999999999</ele>
        <time>2025-04-29T13:05:54Z</time>
      </trkpt>
      <trkpt lat="43.422079989686608" lon="-5.856515960767865">
        <ele>167.88999999999999</ele>
        <time>2025-04-29T13:05:55Z</time>
      </trkpt>
      <trkpt lat="43.421915033832192" lon="-5.858238022774458">
        <ele>170.77000000000001</ele>
        <time>2025-04-29T13:06:05Z</time>
      </trkpt>
      <trkpt lat="43.421834986656904" lon="-5.85877999663353">
        <ele>173.16999999999999</ele>
        <time>2025-04-29T13:06:08Z</time>
      </trkpt>
      <trkpt lat="43.421815037727356" lon="-5.858954004943371">
        <ele>174.13999999999999</ele>
        <time>2025-04-29T13:06:09Z</time>
      </trkpt>
      <trkpt lat="43.421796010807157" lon="-5.85912398993969">
        <ele>174.62</ele>
        <time>2025-04-29T13:06:10Z</time>
      </trkpt>
      <trkpt lat="43.421793999150395" lon="-5.859292969107628">
        <ele>175.58000000000001</ele>
        <time>2025-04-29T13:06:11Z</time>
      </trkpt>
      <trkpt lat="43.42180397361517" lon="-5.859457002952695">
        <ele>176.53999999999999</ele>
        <time>2025-04-29T13:06:12Z</time>
      </trkpt>
      <trkpt lat="43.421812020242214" lon="-5.859606033191085">
        <ele>177.5</ele>
        <time>2025-04-29T13:06:13Z</time>
      </trkpt>
      <trkpt lat="43.421885026618838" lon="-5.860147001221776">
        <ele>180.38</ele>
        <time>2025-04-29T13:06:17Z</time>
      </trkpt>
      <trkpt lat="43.421930037438869" lon="-5.860286979004741">
        <ele>180.38</ele>
        <time>2025-04-29T13:06:18Z</time>
      </trkpt>
      <trkpt lat="43.422629004344344" lon="-5.861889012157917">
        <ele>181.34999999999999</ele>
        <time>2025-04-29T13:06:30Z</time>
      </trkpt>
      <trkpt lat="43.422983977943659" lon="-5.863269008696079">
        <ele>173.66</ele>
        <time>2025-04-29T13:06:39Z</time>
      </trkpt>
      <trkpt lat="43.423060001805425" lon="-5.863412003964186">
        <ele>172.69</ele>
        <time>2025-04-29T13:06:40Z</time>
      </trkpt>
      <trkpt lat="43.423137031495571" lon="-5.863556005060673">
        <ele>171.72999999999999</ele>
        <time>2025-04-29T13:06:41Z</time>
      </trkpt>
      <trkpt lat="43.423507008701563" lon="-5.864191018044949">
        <ele>166.93000000000001</ele>
        <time>2025-04-29T13:06:46Z</time>
      </trkpt>
      <trkpt lat="43.423597030341625" lon="-5.86428003385663">
        <ele>165.96000000000001</ele>
        <time>2025-04-29T13:06:47Z</time>
      </trkpt>
      <trkpt lat="43.423708006739616" lon="-5.864340970292687">
        <ele>165</ele>
        <time>2025-04-29T13:06:48Z</time>
      </trkpt>
      <trkpt lat="43.424346959218383" lon="-5.864644981920719">
        <ele>160.19999999999999</ele>
        <time>2025-04-29T13:06:54Z</time>
      </trkpt>
      <trkpt lat="43.424421977251768" lon="-5.864737015217543">
        <ele>159.72</ele>
        <time>2025-04-29T13:06:55Z</time>
      </trkpt>
      <trkpt lat="43.424830008298159" lon="-5.865255016833544">
        <ele>158.27000000000001</ele>
        <time>2025-04-29T13:07:00Z</time>
      </trkpt>
      <trkpt lat="43.424889016896486" lon="-5.865387031808496">
        <ele>157.78999999999999</ele>
        <time>2025-04-29T13:07:01Z</time>
      </trkpt>
      <trkpt lat="43.425541967153549" lon="-5.866779014468193">
        <ele>154.91</ele>
        <time>2025-04-29T13:07:10Z</time>
      </trkpt>
      <trkpt lat="43.42594999819994" lon="-5.867763971909881">
        <ele>153.94999999999999</ele>
        <time>2025-04-29T13:07:16Z</time>
      </trkpt>
      <trkpt lat="43.426000960171223" lon="-5.867931023240089">
        <ele>153.94999999999999</ele>
        <time>2025-04-29T13:07:17Z</time>
      </trkpt>
      <trkpt lat="43.426043037325144" lon="-5.86810402572155">
        <ele>153.94999999999999</ele>
        <time>2025-04-29T13:07:18Z</time>
      </trkpt>
      <trkpt lat="43.42616599984467" lon="-5.869568008929491">
        <ele>151.06</ele>
        <time>2025-04-29T13:07:26Z</time>
      </trkpt>
      <trkpt lat="43.426211010664701" lon="-5.86971502751112">
        <ele>150.58000000000001</ele>
        <time>2025-04-29T13:07:27Z</time>
      </trkpt>
      <trkpt lat="43.426278987899423" lon="-5.869832038879395">
        <ele>150.09999999999999</ele>
        <time>2025-04-29T13:07:28Z</time>
      </trkpt>
      <trkpt lat="43.426374960690737" lon="-5.869920970872045">
        <ele>149.62</ele>
        <time>2025-04-29T13:07:29Z</time>
      </trkpt>
      <trkpt lat="43.426489038392901" lon="-5.869968999177218">
        <ele>149.62</ele>
        <time>2025-04-29T13:07:30Z</time>
      </trkpt>
      <trkpt lat="43.426593979820609" lon="-5.870013004168868">
        <ele>149.62</ele>
        <time>2025-04-29T13:07:31Z</time>
      </trkpt>
      <trkpt lat="43.426692970097065" lon="-5.870054997503758">
        <ele>149.13999999999999</ele>
        <time>2025-04-29T13:07:32Z</time>
      </trkpt>
      <trkpt lat="43.426780980080366" lon="-5.870134038850665">
        <ele>148.18000000000001</ele>
        <time>2025-04-29T13:07:33Z</time>
      </trkpt>
      <trkpt lat="43.426872007548809" lon="-5.870238980278373">
        <ele>147.69999999999999</ele>
        <time>2025-04-29T13:07:34Z</time>
      </trkpt>
      <trkpt lat="43.426963035017252" lon="-5.870344005525112">
        <ele>146.74000000000001</ele>
        <time>2025-04-29T13:07:35Z</time>
      </trkpt>
      <trkpt lat="43.427080968394876" lon="-5.870393039658666">
        <ele>145.78</ele>
        <time>2025-04-29T13:07:36Z</time>
      </trkpt>
      <trkpt lat="43.427180964499712" lon="-5.870397984981537">
        <ele>145.30000000000001</ele>
        <time>2025-04-29T13:07:37Z</time>
      </trkpt>
      <trkpt lat="43.427281966432929" lon="-5.870402008295059">
        <ele>144.34</ele>
        <time>2025-04-29T13:07:38Z</time>
      </trkpt>
      <trkpt lat="43.427371988072991" lon="-5.870406031608582">
        <ele>143.84999999999999</ele>
        <time>2025-04-29T13:07:39Z</time>
      </trkpt>
      <trkpt lat="43.427453963086009" lon="-5.870408965274692">
        <ele>142.88999999999999</ele>
        <time>2025-04-29T13:07:40Z</time>
      </trkpt>
      <trkpt lat="43.42751900665462" lon="-5.870430003851652">
        <ele>142.41</ele>
        <time>2025-04-29T13:07:41Z</time>
      </trkpt>
      <trkpt lat="43.42760399915278" lon="-5.870496975257993">
        <ele>142.41</ele>
        <time>2025-04-29T13:07:42Z</time>
      </trkpt>
      <trkpt lat="43.427616991102695" lon="-5.870599988847971">
        <ele>142.41</ele>
        <time>2025-04-29T13:07:43Z</time>
      </trkpt>
      <trkpt lat="43.427633000537753" lon="-5.870719011873007">
        <ele>142.41</ele>
        <time>2025-04-29T13:07:44Z</time>
      </trkpt>
      <trkpt lat="43.427784964442253" lon="-5.871625011786819">
        <ele>146.74000000000001</ele>
        <time>2025-04-29T13:07:50Z</time>
      </trkpt>
      <trkpt lat="43.428215039893985" lon="-5.873062005266547">
        <ele>152.03</ele>
        <time>2025-04-29T13:08:00Z</time>
      </trkpt>
      <trkpt lat="43.428244041278958" lon="-5.873205000534654">
        <ele>151.53999999999999</ele>
        <time>2025-04-29T13:08:01Z</time>
      </trkpt>
      <trkpt lat="43.4282729588449" lon="-5.873352019116283">
        <ele>150.58000000000001</ele>
        <time>2025-04-29T13:08:02Z</time>
      </trkpt>
      <trkpt lat="43.428301960229874" lon="-5.87349702604115">
        <ele>149.62</ele>
        <time>2025-04-29T13:08:03Z</time>
      </trkpt>
      <trkpt lat="43.428331967443228" lon="-5.873643960803747">
        <ele>148.66</ele>
        <time>2025-04-29T13:08:04Z</time>
      </trkpt>
      <trkpt lat="43.42835501767695" lon="-5.873758960515261">
        <ele>147.69999999999999</ele>
        <time>2025-04-29T13:08:05Z</time>
      </trkpt>
      <trkpt lat="43.42842098325491" lon="-5.873916959390044">
        <ele>147.22</ele>
        <time>2025-04-29T13:08:06Z</time>
      </trkpt>
      <trkpt lat="43.428474962711334" lon="-5.874047968536615">
        <ele>146.74000000000001</ele>
        <time>2025-04-29T13:08:07Z</time>
      </trkpt>
      <trkpt lat="43.428531037643552" lon="-5.874181995168328">
        <ele>146.25999999999999</ele>
        <time>2025-04-29T13:08:08Z</time>
      </trkpt>
      <trkpt lat="43.428661040961742" lon="-5.874455999583006">
        <ele>145.78</ele>
        <time>2025-04-29T13:08:10Z</time>
      </trkpt>
      <trkpt lat="43.428729018196464" lon="-5.874593965709209">
        <ele>146.25999999999999</ele>
        <time>2025-04-29T13:08:11Z</time>
      </trkpt>
      <trkpt lat="43.428776040673256" lon="-5.874765962362289">
        <ele>146.74000000000001</ele>
        <time>2025-04-29T13:08:12Z</time>
      </trkpt>
      <trkpt lat="43.429033029824495" lon="-5.87665599770844">
        <ele>150.58000000000001</ele>
        <time>2025-04-29T13:08:21Z</time>
      </trkpt>
      <trkpt lat="43.429206032305956" lon="-5.877313977107406">
        <ele>152.50999999999999</ele>
        <time>2025-04-29T13:08:24Z</time>
      </trkpt>
      <trkpt lat="43.429220030084252" lon="-5.877539031207562">
        <ele>153.47</ele>
        <time>2025-04-29T13:08:25Z</time>
      </trkpt>
      <trkpt lat="43.429228998720646" lon="-5.877771964296699">
        <ele>154.43000000000001</ele>
        <time>2025-04-29T13:08:26Z</time>
      </trkpt>
      <trkpt lat="43.429237967357039" lon="-5.877997018396854">
        <ele>155.38999999999999</ele>
        <time>2025-04-29T13:08:27Z</time>
      </trkpt>
      <trkpt lat="43.429246013984084" lon="-5.878217965364456">
        <ele>156.34999999999999</ele>
        <time>2025-04-29T13:08:28Z</time>
      </trkpt>
      <trkpt lat="43.429253976792097" lon="-5.878435978665948">
        <ele>156.83000000000001</ele>
        <time>2025-04-29T13:08:29Z</time>
      </trkpt>
      <trkpt lat="43.429298987612128" lon="-5.878637982532382">
        <ele>157.78999999999999</ele>
        <time>2025-04-29T13:08:30Z</time>
      </trkpt>
      <trkpt lat="43.429352967068553" lon="-5.878838980570436">
        <ele>158.27000000000001</ele>
        <time>2025-04-29T13:08:31Z</time>
      </trkpt>
      <trkpt lat="43.429407030344009" lon="-5.879037966951728">
        <ele>159.24000000000001</ele>
        <time>2025-04-29T13:08:32Z</time>
      </trkpt>
      <trkpt lat="43.429555976763368" lon="-5.879825027659535">
        <ele>162.12</ele>
        <time>2025-04-29T13:08:36Z</time>
      </trkpt>
      <trkpt lat="43.429828975349665" lon="-5.881329998373985">
        <ele>165</ele>
        <time>2025-04-29T13:08:44Z</time>
      </trkpt>
      <trkpt lat="43.429996026679873" lon="-5.882309004664421">
        <ele>166.93000000000001</ele>
        <time>2025-04-29T13:08:50Z</time>
      </trkpt>
      <trkpt lat="43.429965013638139" lon="-5.882469015195966">
        <ele>167.41</ele>
        <time>2025-04-29T13:08:51Z</time>
      </trkpt>
      <trkpt lat="43.429929977282882" lon="-5.882640006020665">
        <ele>167.88999999999999</ele>
        <time>2025-04-29T13:08:52Z</time>
      </trkpt>
      <trkpt lat="43.429895024746656" lon="-5.882815020158887">
        <ele>168.37</ele>
        <time>2025-04-29T13:08:53Z</time>
      </trkpt>
      <trkpt lat="43.429866023361683" lon="-5.882961032912135">
        <ele>168.84999999999999</ele>
        <time>2025-04-29T13:08:54Z</time>
      </trkpt>
      <trkpt lat="43.429920002818108" lon="-5.883161025121808">
        <ele>169.33000000000001</ele>
        <time>2025-04-29T13:08:55Z</time>
      </trkpt>
      <trkpt lat="43.430027961730957" lon="-5.883221961557865">
        <ele>169.81</ele>
        <time>2025-04-29T13:08:56Z</time>
      </trkpt>
      <trkpt lat="43.430027961730957" lon="-5.883221961557865">
        <ele>170.28999999999999</ele>
        <time>2025-04-29T13:08:57Z</time>
      </trkpt>
      <trkpt lat="43.430107003077865" lon="-5.883307959884405">
        <ele>170.28999999999999</ele>
        <time>2025-04-29T13:08:58Z</time>
      </trkpt>
      <trkpt lat="43.430153019726276" lon="-5.883357999846339">
        <ele>170.77000000000001</ele>
        <time>2025-04-29T13:08:59Z</time>
      </trkpt>
      <trkpt lat="43.430183026939631" lon="-5.883391024544835">
        <ele>171.25</ele>
        <time>2025-04-29T13:09:00Z</time>
      </trkpt>
      <trkpt lat="43.430236000567675" lon="-5.883463025093079">
        <ele>173.16999999999999</ele>
        <time>2025-04-29T13:09:04Z</time>
      </trkpt>
      <trkpt lat="43.430197024717927" lon="-5.883492026478052">
        <ele>173.66</ele>
        <time>2025-04-29T13:09:05Z</time>
      </trkpt>
      <trkpt lat="43.43013902194798" lon="-5.883536031469703">
        <ele>174.62</ele>
        <time>2025-04-29T13:09:06Z</time>
      </trkpt>
      <trkpt lat="43.429564023390412" lon="-5.88402503170073">
        <ele>175.58000000000001</ele>
        <time>2025-04-29T13:09:12Z</time>
      </trkpt>
      <trkpt lat="43.429470984265208" lon="-5.884165009483695">
        <ele>175.09999999999999</ele>
        <time>2025-04-29T13:09:13Z</time>
      </trkpt>
      <trkpt lat="43.429395966231823" lon="-5.884314961731434">
        <ele>175.09999999999999</ele>
        <time>2025-04-29T13:09:14Z</time>
      </trkpt>
      <trkpt lat="43.429343998432159" lon="-5.884475978091359">
        <ele>174.62</ele>
        <time>2025-04-29T13:09:15Z</time>
      </trkpt>
      <trkpt lat="43.429311979562044" lon="-5.884635988622904">
        <ele>174.13999999999999</ele>
        <time>2025-04-29T13:09:16Z</time>
      </trkpt>
      <trkpt lat="43.429284989833832" lon="-5.884794993326068">
        <ele>173.66</ele>
        <time>2025-04-29T13:09:17Z</time>
      </trkpt>
      <trkpt lat="43.429262023419142" lon="-5.88495098054409">
        <ele>173.66</ele>
        <time>2025-04-29T13:09:18Z</time>
      </trkpt>
      <trkpt lat="43.42923897318542" lon="-5.885105961933732">
        <ele>173.16999999999999</ele>
        <time>2025-04-29T13:09:19Z</time>
      </trkpt>
      <trkpt lat="43.429126990959048" lon="-5.886454023420811">
        <ele>166.93000000000001</ele>
        <time>2025-04-29T13:09:27Z</time>
      </trkpt>
      <trkpt lat="43.429084997624159" lon="-5.888039963319898">
        <ele>159.24000000000001</ele>
        <time>2025-04-29T13:09:37Z</time>
      </trkpt>
      <trkpt lat="43.429054990410805" lon="-5.888203997164965">
        <ele>158.27000000000001</ele>
        <time>2025-04-29T13:09:38Z</time>
      </trkpt>
      <trkpt lat="43.42902397736907" lon="-5.888371970504522">
        <ele>157.31</ele>
        <time>2025-04-29T13:09:39Z</time>
      </trkpt>
      <trkpt lat="43.428952982649207" lon="-5.888525024056435">
        <ele>155.87</ele>
        <time>2025-04-29T13:09:40Z</time>
      </trkpt>
      <trkpt lat="43.428873019292951" lon="-5.888682017102838">
        <ele>154.91</ele>
        <time>2025-04-29T13:09:41Z</time>
      </trkpt>
      <trkpt lat="43.428793977946043" lon="-5.888836998492479">
        <ele>153.94999999999999</ele>
        <time>2025-04-29T13:09:42Z</time>
      </trkpt>
      <trkpt lat="43.428426012396812" lon="-5.889666974544525">
        <ele>148.18000000000001</ele>
        <time>2025-04-29T13:09:48Z</time>
      </trkpt>
      <trkpt lat="43.428413020446897" lon="-5.889811981469393">
        <ele>147.69999999999999</ele>
        <time>2025-04-29T13:09:49Z</time>
      </trkpt>
      <trkpt lat="43.428403967991471" lon="-5.889979032799602">
        <ele>147.22</ele>
        <time>2025-04-29T13:09:50Z</time>
      </trkpt>
      <trkpt lat="43.428400028496981" lon="-5.890155974775553">
        <ele>146.74000000000001</ele>
        <time>2025-04-29T13:09:51Z</time>
      </trkpt>
      <trkpt lat="43.428405979648232" lon="-5.890348004177213">
        <ele>146.74000000000001</ele>
        <time>2025-04-29T13:09:52Z</time>
      </trkpt>
      <trkpt lat="43.428561966866255" lon="-5.89283499866724">
        <ele>147.22</ele>
        <time>2025-04-29T13:10:04Z</time>
      </trkpt>
      <trkpt lat="43.428623992949724" lon="-5.894422028213739">
        <ele>153.47</ele>
        <time>2025-04-29T13:10:11Z</time>
      </trkpt>
      <trkpt lat="43.428611000999808" lon="-5.894651021808386">
        <ele>154.43000000000001</ele>
        <time>2025-04-29T13:10:12Z</time>
      </trkpt>
      <trkpt lat="43.428497007116675" lon="-5.895893974229693">
        <ele>159.72</ele>
        <time>2025-04-29T13:10:19Z</time>
      </trkpt>
      <trkpt lat="43.428493989631534" lon="-5.896404013037682">
        <ele>159.72</ele>
        <time>2025-04-29T13:10:22Z</time>
      </trkpt>
      <trkpt lat="43.428515028208494" lon="-5.896581038832665">
        <ele>159.72</ele>
        <time>2025-04-29T13:10:23Z</time>
      </trkpt>
      <trkpt lat="43.428551992401481" lon="-5.896752029657364">
        <ele>159.24000000000001</ele>
        <time>2025-04-29T13:10:24Z</time>
      </trkpt>
      <trkpt lat="43.428604966029525" lon="-5.896912962198257">
        <ele>158.75</ele>
        <time>2025-04-29T13:10:25Z</time>
      </trkpt>
      <trkpt lat="43.428655005991459" lon="-5.897061992436647">
        <ele>158.27000000000001</ele>
        <time>2025-04-29T13:10:26Z</time>
      </trkpt>
      <trkpt lat="43.428742010146379" lon="-5.897199036553502">
        <ele>157.78999999999999</ele>
        <time>2025-04-29T13:10:27Z</time>
      </trkpt>
      <trkpt lat="43.428830020129681" lon="-5.897339014336467">
        <ele>157.31</ele>
        <time>2025-04-29T13:10:28Z</time>
      </trkpt>
      <trkpt lat="43.429652033373713" lon="-5.898831998929381">
        <ele>149.62</ele>
        <time>2025-04-29T13:10:38Z</time>
      </trkpt>
      <trkpt lat="43.430531965568662" lon="-5.900191040709615">
        <ele>148.66</ele>
        <time>2025-04-29T13:10:48Z</time>
      </trkpt>
      <trkpt lat="43.430608995258808" lon="-5.900330012664199">
        <ele>149.13999999999999</ele>
        <time>2025-04-29T13:10:49Z</time>
      </trkpt>
      <trkpt lat="43.430642019957304" lon="-5.900503015145659">
        <ele>149.62</ele>
        <time>2025-04-29T13:10:50Z</time>
      </trkpt>
      <trkpt lat="43.430659035220742" lon="-5.900673000141978">
        <ele>149.62</ele>
        <time>2025-04-29T13:10:51Z</time>
      </trkpt>
      <trkpt lat="43.430674960836768" lon="-5.900837033987045">
        <ele>149.62</ele>
        <time>2025-04-29T13:10:52Z</time>
      </trkpt>
      <trkpt lat="43.430689964443445" lon="-5.900996960699558">
        <ele>149.62</ele>
        <time>2025-04-29T13:10:53Z</time>
      </trkpt>
      <trkpt lat="43.430672027170658" lon="-5.901159988716245">
        <ele>149.62</ele>
        <time>2025-04-29T13:10:54Z</time>
      </trkpt>
      <trkpt lat="43.430622993037105" lon="-5.901336008682847">
        <ele>149.13999999999999</ele>
        <time>2025-04-29T13:10:55Z</time>
      </trkpt>
      <trkpt lat="43.43056901358068" lon="-5.901528038084507">
        <ele>149.13999999999999</ele>
        <time>2025-04-29T13:10:56Z</time>
      </trkpt>
      <trkpt lat="43.430337002500892" lon="-5.902433032169938">
        <ele>146.74000000000001</ele>
        <time>2025-04-29T13:11:01Z</time>
      </trkpt>
      <trkpt lat="43.430306995287538" lon="-5.902640987187624">
        <ele>146.25999999999999</ele>
        <time>2025-04-29T13:11:02Z</time>
      </trkpt>
      <trkpt lat="43.430277993902564" lon="-5.902985986322165">
        <ele>145.78</ele>
        <time>2025-04-29T13:11:04Z</time>
      </trkpt>
      <trkpt lat="43.430261984467506" lon="-5.903174998238683">
        <ele>145.30000000000001</ele>
        <time>2025-04-29T13:11:05Z</time>
      </trkpt>
      <trkpt lat="43.430243041366339" lon="-5.903392005711794">
        <ele>144.81999999999999</ele>
        <time>2025-04-29T13:11:06Z</time>
      </trkpt>
      <trkpt lat="43.430179003626108" lon="-5.903714038431644">
        <ele>144.34</ele>
        <time>2025-04-29T13:11:08Z</time>
      </trkpt>
      <trkpt lat="43.430102979764342" lon="-5.903864996507764">
        <ele>143.84999999999999</ele>
        <time>2025-04-29T13:11:09Z</time>
      </trkpt>
      <trkpt lat="43.430029973387718" lon="-5.903996005654335">
        <ele>143.84999999999999</ele>
        <time>2025-04-29T13:11:10Z</time>
      </trkpt>
      <trkpt lat="43.429938023909926" lon="-5.904122991487384">
        <ele>143.84999999999999</ele>
        <time>2025-04-29T13:11:11Z</time>
      </trkpt>
      <trkpt lat="43.429856970906258" lon="-5.904261963441968">
        <ele>144.34</ele>
        <time>2025-04-29T13:11:12Z</time>
      </trkpt>
      <trkpt lat="43.42977499589324" lon="-5.904403030872345">
        <ele>144.34</ele>
        <time>2025-04-29T13:11:13Z</time>
      </trkpt>
      <trkpt lat="43.429692015051842" lon="-5.904545020312071">
        <ele>144.34</ele>
        <time>2025-04-29T13:11:14Z</time>
      </trkpt>
      <trkpt lat="43.429641975089908" lon="-5.904722968116403">
        <ele>144.81999999999999</ele>
        <time>2025-04-29T13:11:15Z</time>
      </trkpt>
      <trkpt lat="43.429607022553682" lon="-5.904913991689682">
        <ele>144.34</ele>
        <time>2025-04-29T13:11:16Z</time>
      </trkpt>
      <trkpt lat="43.429561005905271" lon="-5.905109960585833">
        <ele>144.34</ele>
        <time>2025-04-29T13:11:17Z</time>
      </trkpt>
      <trkpt lat="43.429132020100951" lon="-5.906892959028482">
        <ele>143.37</ele>
        <time>2025-04-29T13:11:27Z</time>
      </trkpt>
      <trkpt lat="43.42906697653234" lon="-5.907031008973718">
        <ele>142.88999999999999</ele>
        <time>2025-04-29T13:11:28Z</time>
      </trkpt>
      <trkpt lat="43.428969997912645" lon="-5.907093035057187">
        <ele>142.41</ele>
        <time>2025-04-29T13:11:29Z</time>
      </trkpt>
      <trkpt lat="43.428868995979428" lon="-5.90712396427989">
        <ele>141.93000000000001</ele>
        <time>2025-04-29T13:11:30Z</time>
      </trkpt>
      <trkpt lat="43.428739998489618" lon="-5.90712103061378">
        <ele>141.44999999999999</ele>
        <time>2025-04-29T13:11:31Z</time>
      </trkpt>
      <trkpt lat="43.428605971857905" lon="-5.907117007300258">
        <ele>140.97</ele>
        <time>2025-04-29T13:11:32Z</time>
      </trkpt>
      <trkpt lat="43.428474040701985" lon="-5.907112983986735">
        <ele>140.49000000000001</ele>
        <time>2025-04-29T13:11:33Z</time>
      </trkpt>
      <trkpt lat="43.428336996585131" lon="-5.907108960673213">
        <ele>140.49000000000001</ele>
        <time>2025-04-29T13:11:34Z</time>
      </trkpt>
      <trkpt lat="43.428188972175121" lon="-5.907105021178722">
        <ele>140.00999999999999</ele>
        <time>2025-04-29T13:11:35Z</time>
      </trkpt>
      <trkpt lat="43.428038014099002" lon="-5.907191019505262">
        <ele>140.00999999999999</ele>
        <time>2025-04-29T13:11:36Z</time>
      </trkpt>
      <trkpt lat="43.427888983860612" lon="-5.907280035316944">
        <ele>140.49000000000001</ele>
        <time>2025-04-29T13:11:37Z</time>
      </trkpt>
      <trkpt lat="43.427741965278983" lon="-5.907368967309594">
        <ele>140.97</ele>
        <time>2025-04-29T13:11:38Z</time>
      </trkpt>
      <trkpt lat="43.427056996151805" lon="-5.907726036384702">
        <ele>143.84999999999999</ele>
        <time>2025-04-29T13:11:43Z</time>
      </trkpt>
      <trkpt lat="43.426934033632278" lon="-5.907838018611074">
        <ele>143.84999999999999</ele>
        <time>2025-04-29T13:11:44Z</time>
      </trkpt>
      <trkpt lat="43.426566990092397" lon="-5.908210007473826">
        <ele>144.81999999999999</ele>
        <time>2025-04-29T13:11:47Z</time>
      </trkpt>
      <trkpt lat="43.426432963460684" lon="-5.908262981101871">
        <ele>145.30000000000001</ele>
        <time>2025-04-29T13:11:48Z</time>
      </trkpt>
      <trkpt lat="43.426316035911441" lon="-5.908254012465477">
        <ele>145.30000000000001</ele>
        <time>2025-04-29T13:11:49Z</time>
      </trkpt>
      <trkpt lat="43.426189972087741" lon="-5.908195003867149">
        <ele>146.25999999999999</ele>
        <time>2025-04-29T13:11:50Z</time>
      </trkpt>
      <trkpt lat="43.42605602927506" lon="-5.90813297778368">
        <ele>146.74000000000001</ele>
        <time>2025-04-29T13:11:51Z</time>
      </trkpt>
      <trkpt lat="43.425919990986586" lon="-5.908069023862481">
        <ele>147.22</ele>
        <time>2025-04-29T13:11:52Z</time>
      </trkpt>
      <trkpt lat="43.42566903680563" lon="-5.907975984737277">
        <ele>148.18000000000001</ele>
        <time>2025-04-29T13:11:54Z</time>
      </trkpt>
      <trkpt lat="43.42554297298193" lon="-5.907962992787361">
        <ele>149.62</ele>
        <time>2025-04-29T13:11:55Z</time>
      </trkpt>
      <trkpt lat="43.42541104182601" lon="-5.907997023314238">
        <ele>150.58000000000001</ele>
        <time>2025-04-29T13:11:56Z</time>
      </trkpt>
      <trkpt lat="43.424590034410357" lon="-5.908244960010052">
        <ele>159.24000000000001</ele>
        <time>2025-04-29T13:12:03Z</time>
      </trkpt>
      <trkpt lat="43.424001960083842" lon="-5.908472025766969">
        <ele>165.47999999999999</ele>
        <time>2025-04-29T13:12:09Z</time>
      </trkpt>
      <trkpt lat="43.423912022262812" lon="-5.908558024093509">
        <ele>166.44999999999999</ele>
        <time>2025-04-29T13:12:10Z</time>
      </trkpt>
      <trkpt lat="43.423857036978006" lon="-5.908678974956274">
        <ele>167.41</ele>
        <time>2025-04-29T13:12:11Z</time>
      </trkpt>
      <trkpt lat="43.423822000622749" lon="-5.908811995759606">
        <ele>168.37</ele>
        <time>2025-04-29T13:12:12Z</time>
      </trkpt>
      <trkpt lat="43.423783024773002" lon="-5.908957002684474">
        <ele>169.81</ele>
        <time>2025-04-29T13:12:13Z</time>
      </trkpt>
      <trkpt lat="43.423762992024422" lon="-5.909136962145567">
        <ele>170.77000000000001</ele>
        <time>2025-04-29T13:12:14Z</time>
      </trkpt>
      <trkpt lat="43.423814037814736" lon="-5.909815980121493">
        <ele>173.66</ele>
        <time>2025-04-29T13:12:18Z</time>
      </trkpt>
      <trkpt lat="43.423896012827754" lon="-5.909945983439684">
        <ele>174.62</ele>
        <time>2025-04-29T13:12:19Z</time>
      </trkpt>
      <trkpt lat="43.42399600893259" lon="-5.910056959837675">
        <ele>175.58000000000001</ele>
        <time>2025-04-29T13:12:20Z</time>
      </trkpt>
      <trkpt lat="43.424433963373303" lon="-5.910545960068703">
        <ele>178.94</ele>
        <time>2025-04-29T13:12:24Z</time>
      </trkpt>
      <trkpt lat="43.424544017761946" lon="-5.91066800057888">
        <ele>179.90000000000001</ele>
        <time>2025-04-29T13:12:25Z</time>
      </trkpt>
      <trkpt lat="43.42461702413857" lon="-5.910830022767186">
        <ele>180.87</ele>
        <time>2025-04-29T13:12:26Z</time>
      </trkpt>
      <trkpt lat="43.424651976674795" lon="-5.911024985834956">
        <ele>182.31</ele>
        <time>2025-04-29T13:12:27Z</time>
      </trkpt>
      <trkpt lat="43.42466102913022" lon="-5.911232018843293">
        <ele>184.22999999999999</ele>
        <time>2025-04-29T13:12:28Z</time>
      </trkpt>
      <trkpt lat="43.424657005816698" lon="-5.911447014659643">
        <ele>185.66999999999999</ele>
        <time>2025-04-29T13:12:29Z</time>
      </trkpt>
      <trkpt lat="43.424652982503176" lon="-5.911672990769148">
        <ele>187.11000000000001</ele>
        <time>2025-04-29T13:12:30Z</time>
      </trkpt>
      <trkpt lat="43.424601014703512" lon="-5.912304986268282">
        <ele>191.91999999999999</ele>
        <time>2025-04-29T13:12:33Z</time>
      </trkpt>
      <trkpt lat="43.424529014155269" lon="-5.91245099902153">
        <ele>193.36000000000001</ele>
        <time>2025-04-29T13:12:34Z</time>
      </trkpt>
      <trkpt lat="43.424433041363955" lon="-5.912538003176451">
        <ele>195.28</ele>
        <time>2025-04-29T13:12:35Z</time>
      </trkpt>
      <trkpt lat="43.424235982820392" lon="-5.912731038406491">
        <ele>198.16999999999999</ele>
        <time>2025-04-29T13:12:37Z</time>
      </trkpt>
      <trkpt lat="43.424129029735923" lon="-5.912846038118005">
        <ele>199.61000000000001</ele>
        <time>2025-04-29T13:12:38Z</time>
      </trkpt>
      <trkpt lat="43.424019981175661" lon="-5.912973023951054">
        <ele>201.05000000000001</ele>
        <time>2025-04-29T13:12:39Z</time>
      </trkpt>
      <trkpt lat="43.423813031986356" lon="-5.91328801587224">
        <ele>204.90000000000001</ele>
        <time>2025-04-29T13:12:41Z</time>
      </trkpt>
      <trkpt lat="43.423703983426094" lon="-5.91345900669694">
        <ele>206.34</ele>
        <time>2025-04-29T13:12:42Z</time>
      </trkpt>
      <trkpt lat="43.42328698374331" lon="-5.914270039647818">
        <ele>214.99000000000001</ele>
        <time>2025-04-29T13:12:46Z</time>
      </trkpt>
      <trkpt lat="43.423197967931628" lon="-5.914485035464168">
        <ele>216.91</ele>
        <time>2025-04-29T13:12:47Z</time>
      </trkpt>
      <trkpt lat="43.422893034294248" lon="-5.915474016219378">
        <ele>227.97</ele>
        <time>2025-04-29T13:12:53Z</time>
      </trkpt>
      <trkpt lat="43.422451978549361" lon="-5.917200017720461">
        <ele>241.91</ele>
        <time>2025-04-29T13:13:05Z</time>
      </trkpt>
      <trkpt lat="43.421961972489953" lon="-5.91878897510469">
        <ele>246.72</ele>
        <time>2025-04-29T13:13:16Z</time>
      </trkpt>
      <trkpt lat="43.421292006969452" lon="-5.920583959668875">
        <ele>247.19999999999999</ele>
        <time>2025-04-29T13:13:27Z</time>
      </trkpt>
      <trkpt lat="43.421228975057602" lon="-5.920768026262522">
        <ele>247.19999999999999</ele>
        <time>2025-04-29T13:13:28Z</time>
      </trkpt>
      <trkpt lat="43.421163009479642" lon="-5.92095703817904">
        <ele>247.19999999999999</ele>
        <time>2025-04-29T13:13:29Z</time>
      </trkpt>
      <trkpt lat="43.42111598700285" lon="-5.921161975711584">
        <ele>247.68000000000001</ele>
        <time>2025-04-29T13:13:30Z</time>
      </trkpt>
      <trkpt lat="43.421097965911031" lon="-5.921368002891541">
        <ele>247.68000000000001</ele>
        <time>2025-04-29T13:13:31Z</time>
      </trkpt>
      <trkpt lat="43.421081034466624" lon="-5.921556008979678">
        <ele>247.68000000000001</ele>
        <time>2025-04-29T13:13:32Z</time>
      </trkpt>
      <trkpt lat="43.421027977019548" lon="-5.921907965093851">
        <ele>247.19999999999999</ele>
        <time>2025-04-29T13:13:34Z</time>
      </trkpt>
      <trkpt lat="43.420976009219885" lon="-5.922087002545595">
        <ele>246.72</ele>
        <time>2025-04-29T13:13:35Z</time>
      </trkpt>
      <trkpt lat="43.420737963169813" lon="-5.922825029119849">
        <ele>244.78999999999999</ele>
        <time>2025-04-29T13:13:39Z</time>
      </trkpt>
      <trkpt lat="43.420708039775491" lon="-5.923014963045716">
        <ele>244.31</ele>
        <time>2025-04-29T13:13:40Z</time>
      </trkpt>
      <trkpt lat="43.420696975663304" lon="-5.923202969133854">
        <ele>243.83000000000001</ele>
        <time>2025-04-29T13:13:41Z</time>
      </trkpt>
      <trkpt lat="43.420693958178163" lon="-5.923391981050372">
        <ele>243.34999999999999</ele>
        <time>2025-04-29T13:13:42Z</time>
      </trkpt>
      <trkpt lat="43.420693958178163" lon="-5.923584010452032">
        <ele>242.87</ele>
        <time>2025-04-29T13:13:43Z</time>
      </trkpt>
      <trkpt lat="43.420679038390517" lon="-5.924527980387211">
        <ele>239.99000000000001</ele>
        <time>2025-04-29T13:13:48Z</time>
      </trkpt>
      <trkpt lat="43.420657999813557" lon="-5.924709029495716">
        <ele>239.50999999999999</ele>
        <time>2025-04-29T13:13:49Z</time>
      </trkpt>
      <trkpt lat="43.42062103562057" lon="-5.924885971471667">
        <ele>239.02000000000001</ele>
        <time>2025-04-29T13:13:50Z</time>
      </trkpt>
      <trkpt lat="43.42053696513176" lon="-5.925400033593178">
        <ele>237.58000000000001</ele>
        <time>2025-04-29T13:13:53Z</time>
      </trkpt>
      <trkpt lat="43.420531013980508" lon="-5.925564989447594">
        <ele>237.09999999999999</ele>
        <time>2025-04-29T13:13:54Z</time>
      </trkpt>
      <trkpt lat="43.420525984838605" lon="-5.925732962787151">
        <ele>237.09999999999999</ele>
        <time>2025-04-29T13:13:55Z</time>
      </trkpt>
      <trkpt lat="43.420507041737437" lon="-5.925912000238895">
        <ele>236.62</ele>
        <time>2025-04-29T13:13:56Z</time>
      </trkpt>
      <trkpt lat="43.420479968190193" lon="-5.926073016598821">
        <ele>236.13999999999999</ele>
        <time>2025-04-29T13:13:57Z</time>
      </trkpt>
      <trkpt lat="43.420424982905388" lon="-5.926267979666591">
        <ele>235.18000000000001</ele>
        <time>2025-04-29T13:13:58Z</time>
      </trkpt>
      <trkpt lat="43.420374020934105" lon="-5.926451040431857">
        <ele>233.74000000000001</ele>
        <time>2025-04-29T13:13:59Z</time>
      </trkpt>
      <trkpt lat="43.420314006507397" lon="-5.926643991842866">
        <ele>232.78</ele>
        <time>2025-04-29T13:14:00Z</time>
      </trkpt>
      <trkpt lat="43.420231025665998" lon="-5.926827974617481">
        <ele>231.81</ele>
        <time>2025-04-29T13:14:01Z</time>
      </trkpt>
      <trkpt lat="43.420148966833949" lon="-5.927011035382748">
        <ele>230.37</ele>
        <time>2025-04-29T13:14:02Z</time>
      </trkpt>
      <trkpt lat="43.420015024021268" lon="-5.927372965961695">
        <ele>227.97</ele>
        <time>2025-04-29T13:14:04Z</time>
      </trkpt>
      <trkpt lat="43.419970013201237" lon="-5.927539011463523">
        <ele>227.00999999999999</ele>
        <time>2025-04-29T13:14:05Z</time>
      </trkpt>
      <trkpt lat="43.419994991272688" lon="-5.927690975368023">
        <ele>227.00999999999999</ele>
        <time>2025-04-29T13:14:06Z</time>
      </trkpt>
      <trkpt lat="43.420050982385874" lon="-5.928024994209409">
        <ele>227.00999999999999</ele>
        <time>2025-04-29T13:14:08Z</time>
      </trkpt>
      <trkpt lat="43.420040002092719" lon="-5.928191961720586">
        <ele>227.49000000000001</ele>
        <time>2025-04-29T13:14:09Z</time>
      </trkpt>
      <trkpt lat="43.420016029849648" lon="-5.928379967808723">
        <ele>228.44999999999999</ele>
        <time>2025-04-29T13:14:10Z</time>
      </trkpt>
      <trkpt lat="43.419952997937799" lon="-5.928539978340268">
        <ele>229.41</ele>
        <time>2025-04-29T13:14:11Z</time>
      </trkpt>
      <trkpt lat="43.419888960197568" lon="-5.928703006356955">
        <ele>229.88999999999999</ele>
        <time>2025-04-29T13:14:12Z</time>
      </trkpt>
      <trkpt lat="43.419820982962847" lon="-5.928872991353273">
        <ele>230.84999999999999</ele>
        <time>2025-04-29T13:14:13Z</time>
      </trkpt>
      <trkpt lat="43.419754011556506" lon="-5.929043982177973">
        <ele>231.33000000000001</ele>
        <time>2025-04-29T13:14:14Z</time>
      </trkpt>
      <trkpt lat="43.419645968824625" lon="-5.929369032382965">
        <ele>231.81</ele>
        <time>2025-04-29T13:14:16Z</time>
      </trkpt>
      <trkpt lat="43.419613027945161" lon="-5.929540023207665">
        <ele>231.81</ele>
        <time>2025-04-29T13:14:17Z</time>
      </trkpt>
      <trkpt lat="43.419580003246665" lon="-5.929715959355235">
        <ele>232.30000000000001</ele>
        <time>2025-04-29T13:14:18Z</time>
      </trkpt>
      <trkpt lat="43.419252019375563" lon="-5.931210033595562">
        <ele>228.44999999999999</ele>
        <time>2025-04-29T13:14:26Z</time>
      </trkpt>
      <trkpt lat="43.419185969978571" lon="-5.931388987228274">
        <ele>227.49000000000001</ele>
        <time>2025-04-29T13:14:27Z</time>
      </trkpt>
      <trkpt lat="43.418392036110163" lon="-5.933103002607822">
        <ele>217.40000000000001</ele>
        <time>2025-04-29T13:14:38Z</time>
      </trkpt>
      <trkpt lat="43.418266978114843" lon="-5.933408020064235">
        <ele>214.99000000000001</ele>
        <time>2025-04-29T13:14:43Z</time>
      </trkpt>
      <trkpt lat="43.418247029185295" lon="-5.933454036712647">
        <ele>214.99000000000001</ele>
        <time>2025-04-29T13:14:44Z</time>
      </trkpt>
      <trkpt lat="43.418185003101826" lon="-5.93344297260046">
        <ele>214.50999999999999</ele>
        <time>2025-04-29T13:14:45Z</time>
      </trkpt>
      <trkpt lat="43.418110990896821" lon="-5.933429980650544">
        <ele>214.50999999999999</ele>
        <time>2025-04-29T13:14:46Z</time>
      </trkpt>
      <trkpt lat="43.418024992570281" lon="-5.933414977043867">
        <ele>214.03</ele>
        <time>2025-04-29T13:14:47Z</time>
      </trkpt>
      <trkpt lat="43.417928013950586" lon="-5.933397961780429">
        <ele>213.55000000000001</ele>
        <time>2025-04-29T13:14:48Z</time>
      </trkpt>
      <trkpt lat="43.417812008410692" lon="-5.933412965387106">
        <ele>213.06999999999999</ele>
        <time>2025-04-29T13:14:49Z</time>
      </trkpt>
      <trkpt lat="43.417694997042418" lon="-5.933452025055885">
        <ele>212.59</ele>
        <time>2025-04-29T13:14:50Z</time>
      </trkpt>
      <trkpt lat="43.41757002286613" lon="-5.933494018390775">
        <ele>212.59</ele>
        <time>2025-04-29T13:14:51Z</time>
      </trkpt>
      <trkpt lat="43.417440019547939" lon="-5.933546992018819">
        <ele>212.59</ele>
        <time>2025-04-29T13:14:52Z</time>
      </trkpt>
      <trkpt lat="43.416879018768668" lon="-5.933766011148691">
        <ele>211.63</ele>
        <time>2025-04-29T13:14:56Z</time>
      </trkpt>
      <trkpt lat="43.416735017672181" lon="-5.933799035847187">
        <ele>211.15000000000001</ele>
        <time>2025-04-29T13:14:57Z</time>
      </trkpt>
      <trkpt lat="43.415867993608117" lon="-5.933854021131992">
        <ele>207.78</ele>
        <time>2025-04-29T13:15:03Z</time>
      </trkpt>
      <trkpt lat="43.415751988068223" lon="-5.933917975053191">
        <ele>207.30000000000001</ele>
        <time>2025-04-29T13:15:04Z</time>
      </trkpt>
      <trkpt lat="43.415009016171098" lon="-5.934438994154334">
        <ele>204.41999999999999</ele>
        <time>2025-04-29T13:15:10Z</time>
      </trkpt>
      <trkpt lat="43.414874989539385" lon="-5.934554999694228">
        <ele>203.94</ele>
        <time>2025-04-29T13:15:11Z</time>
      </trkpt>
      <trkpt lat="43.414779016748071" lon="-5.934724984690547">
        <ele>203.94</ele>
        <time>2025-04-29T13:15:12Z</time>
      </trkpt>
      <trkpt lat="43.414687989279628" lon="-5.934903016313911">
        <ele>203.46000000000001</ele>
        <time>2025-04-29T13:15:13Z</time>
      </trkpt>
      <trkpt lat="43.414598973467946" lon="-5.935078030452132">
        <ele>202.97999999999999</ele>
        <time>2025-04-29T13:15:14Z</time>
      </trkpt>
      <trkpt lat="43.414161019027233" lon="-5.935968020930886">
        <ele>199.61000000000001</ele>
        <time>2025-04-29T13:15:20Z</time>
      </trkpt>
      <trkpt lat="43.414115002378821" lon="-5.936067011207342">
        <ele>199.13</ele>
        <time>2025-04-29T13:15:21Z</time>
      </trkpt>
      <trkpt lat="43.414087006822228" lon="-5.936233978718519">
        <ele>199.13</ele>
        <time>2025-04-29T13:15:22Z</time>
      </trkpt>
      <trkpt lat="43.414130005985498" lon="-5.936337998136878">
        <ele>198.65000000000001</ele>
        <time>2025-04-29T13:15:23Z</time>
      </trkpt>
      <trkpt lat="43.414181973785162" lon="-5.936463978141546">
        <ele>197.69</ele>
        <time>2025-04-29T13:15:24Z</time>
      </trkpt>
      <trkpt lat="43.414239976555109" lon="-5.936604039743543">
        <ele>197.21000000000001</ele>
        <time>2025-04-29T13:15:25Z</time>
      </trkpt>
      <trkpt lat="43.414300996810198" lon="-5.93675198033452">
        <ele>197.21000000000001</ele>
        <time>2025-04-29T13:15:26Z</time>
      </trkpt>
      <trkpt lat="43.414299990981817" lon="-5.936951972544193">
        <ele>196.72999999999999</ele>
        <time>2025-04-29T13:15:27Z</time>
      </trkpt>
      <trkpt lat="43.41428398154676" lon="-5.937154982239008">
        <ele>196.72999999999999</ele>
        <time>2025-04-29T13:15:28Z</time>
      </trkpt>
      <trkpt lat="43.414266966283321" lon="-5.937366960570216">
        <ele>197.21000000000001</ele>
        <time>2025-04-29T13:15:29Z</time>
      </trkpt>
      <trkpt lat="43.414192032068968" lon="-5.938309002667666">
        <ele>197.69</ele>
        <time>2025-04-29T13:15:34Z</time>
      </trkpt>
      <trkpt lat="43.414160013198853" lon="-5.938486028462648">
        <ele>198.16999999999999</ele>
        <time>2025-04-29T13:15:35Z</time>
      </trkpt>
      <trkpt lat="43.414078038185835" lon="-5.938658025115728">
        <ele>198.65000000000001</ele>
        <time>2025-04-29T13:15:36Z</time>
      </trkpt>
      <trkpt lat="43.413984999060631" lon="-5.938808983191848">
        <ele>198.65000000000001</ele>
        <time>2025-04-29T13:15:37Z</time>
      </trkpt>
      <trkpt lat="43.413890032097697" lon="-5.938967987895012">
        <ele>198.65000000000001</ele>
        <time>2025-04-29T13:15:38Z</time>
      </trkpt>
      <trkpt lat="43.413615021854639" lon="-5.939460005611181">
        <ele>198.16999999999999</ele>
        <time>2025-04-29T13:15:41Z</time>
      </trkpt>
      <trkpt lat="43.413523994386196" lon="-5.939839035272598">
        <ele>197.69</ele>
        <time>2025-04-29T13:15:43Z</time>
      </trkpt>
      <trkpt lat="43.413142031058669" lon="-5.941450037062168">
        <ele>191.91999999999999</ele>
        <time>2025-04-29T13:15:51Z</time>
      </trkpt>
      <trkpt lat="43.413134990260005" lon="-5.94164801761508">
        <ele>190.47999999999999</ele>
        <time>2025-04-29T13:15:52Z</time>
      </trkpt>
      <trkpt lat="43.413162985816598" lon="-5.941843986511231">
        <ele>189.03999999999999</ele>
        <time>2025-04-29T13:15:53Z</time>
      </trkpt>
      <trkpt lat="43.41323297470808" lon="-5.941987987607718">
        <ele>187.59</ele>
        <time>2025-04-29T13:15:54Z</time>
      </trkpt>
      <trkpt lat="43.41331603936851" lon="-5.942160990089178">
        <ele>186.15000000000001</ele>
        <time>2025-04-29T13:15:55Z</time>
      </trkpt>
      <trkpt lat="43.41340396553278" lon="-5.942341033369303">
        <ele>184.71000000000001</ele>
        <time>2025-04-29T13:15:56Z</time>
      </trkpt>
      <trkpt lat="43.413495998829603" lon="-5.94253096729517">
        <ele>182.78999999999999</ele>
        <time>2025-04-29T13:15:57Z</time>
      </trkpt>
      <trkpt lat="43.413525000214577" lon="-5.942747974768281">
        <ele>180.87</ele>
        <time>2025-04-29T13:15:58Z</time>
      </trkpt>
      <trkpt lat="43.413548972457647" lon="-5.942992977797985">
        <ele>179.41999999999999</ele>
        <time>2025-04-29T13:15:59Z</time>
      </trkpt>
      <trkpt lat="43.413575040176511" lon="-5.943250972777605">
        <ele>177.5</ele>
        <time>2025-04-29T13:16:00Z</time>
      </trkpt>
      <trkpt lat="43.413521982729435" lon="-5.945227006450295">
        <ele>166.93000000000001</ele>
        <time>2025-04-29T13:16:07Z</time>
      </trkpt>
      <trkpt lat="43.413250995799899" lon="-5.947602018713951">
        <ele>156.83000000000001</ele>
        <time>2025-04-29T13:16:15Z</time>
      </trkpt>
      <trkpt lat="43.41318997554481" lon="-5.947863031178713">
        <ele>155.87</ele>
        <time>2025-04-29T13:16:16Z</time>
      </trkpt>
      <trkpt lat="43.413085034117103" lon="-5.948080038651824">
        <ele>154.43000000000001</ele>
        <time>2025-04-29T13:16:17Z</time>
      </trkpt>
      <trkpt lat="43.412975985556841" lon="-5.948306014761329">
        <ele>153.47</ele>
        <time>2025-04-29T13:16:18Z</time>
      </trkpt>
      <trkpt lat="43.412868026643991" lon="-5.948528973385692">
        <ele>152.03</ele>
        <time>2025-04-29T13:16:19Z</time>
      </trkpt>
      <trkpt lat="43.412665016949177" lon="-5.948948990553618">
        <ele>149.62</ele>
        <time>2025-04-29T13:16:21Z</time>
      </trkpt>
      <trkpt lat="43.412578012794256" lon="-5.949155017733574">
        <ele>148.66</ele>
        <time>2025-04-29T13:16:22Z</time>
      </trkpt>
      <trkpt lat="43.412548005580902" lon="-5.949377976357937">
        <ele>147.69999999999999</ele>
        <time>2025-04-29T13:16:23Z</time>
      </trkpt>
      <trkpt lat="43.41252202168107" lon="-5.949611999094486">
        <ele>146.74000000000001</ele>
        <time>2025-04-29T13:16:24Z</time>
      </trkpt>
      <trkpt lat="43.412555968388915" lon="-5.949838981032372">
        <ele>145.78</ele>
        <time>2025-04-29T13:16:25Z</time>
      </trkpt>
      <trkpt lat="43.412593016400933" lon="-5.950082978233695">
        <ele>144.81999999999999</ele>
        <time>2025-04-29T13:16:26Z</time>
      </trkpt>
      <trkpt lat="43.41262998059392" lon="-5.950332004576922">
        <ele>144.34</ele>
        <time>2025-04-29T13:16:27Z</time>
      </trkpt>
      <trkpt lat="43.413356021046638" lon="-5.952572990208864">
        <ele>136.63999999999999</ele>
        <time>2025-04-29T13:16:36Z</time>
      </trkpt>
      <trkpt lat="43.413677969947457" lon="-5.954010989516974">
        <ele>134.24000000000001</ele>
        <time>2025-04-29T13:16:42Z</time>
      </trkpt>
      <trkpt lat="43.413641005754471" lon="-5.954232020303607">
        <ele>133.75999999999999</ele>
        <time>2025-04-29T13:16:43Z</time>
      </trkpt>
      <trkpt lat="43.413607981055975" lon="-5.954426983371377">
        <ele>133.28</ele>
        <time>2025-04-29T13:16:44Z</time>
      </trkpt>
      <trkpt lat="43.413181006908417" lon="-5.955515960231423">
        <ele>130.88</ele>
        <time>2025-04-29T13:16:49Z</time>
      </trkpt>
      <trkpt lat="43.41314597055316" lon="-5.955780996009708">
        <ele>130.40000000000001</ele>
        <time>2025-04-29T13:16:50Z</time>
      </trkpt>
      <trkpt lat="43.413104983046651" lon="-5.956274019554257">
        <ele>129.43000000000001</ele>
        <time>2025-04-29T13:16:52Z</time>
      </trkpt>
      <trkpt lat="43.413042034953833" lon="-5.956477029249072">
        <ele>128.94999999999999</ele>
        <time>2025-04-29T13:16:53Z</time>
      </trkpt>
      <trkpt lat="43.412950001657009" lon="-5.956636033952236">
        <ele>128.47</ele>
        <time>2025-04-29T13:16:54Z</time>
      </trkpt>
      <trkpt lat="43.412846988067031" lon="-5.956791015341878">
        <ele>128.47</ele>
        <time>2025-04-29T13:16:55Z</time>
      </trkpt>
      <trkpt lat="43.412755038589239" lon="-5.956928981468082">
        <ele>128.47</ele>
        <time>2025-04-29T13:16:56Z</time>
      </trkpt>
      <trkpt lat="43.412584969773889" lon="-5.95705596730113">
        <ele>128.47</ele>
        <time>2025-04-29T13:16:57Z</time>
      </trkpt>
      <trkpt lat="43.412438035011292" lon="-5.957167027518153">
        <ele>128.94999999999999</ele>
        <time>2025-04-29T13:16:58Z</time>
      </trkpt>
      <trkpt lat="43.412290010601282" lon="-5.957293007522821">
        <ele>128.94999999999999</ele>
        <time>2025-04-29T13:16:59Z</time>
      </trkpt>
      <trkpt lat="43.412152966484427" lon="-5.957455029711127">
        <ele>128.94999999999999</ele>
        <time>2025-04-29T13:17:00Z</time>
      </trkpt>
      <trkpt lat="43.412026986479759" lon="-5.957624008879066">
        <ele>129.43000000000001</ele>
        <time>2025-04-29T13:17:01Z</time>
      </trkpt>
      <trkpt lat="43.411911986768246" lon="-5.957796005532146">
        <ele>129.91999999999999</ele>
        <time>2025-04-29T13:17:02Z</time>
      </trkpt>
      <trkpt lat="43.411806039512157" lon="-5.95795601606369">
        <ele>130.40000000000001</ele>
        <time>2025-04-29T13:17:03Z</time>
      </trkpt>
      <trkpt lat="43.411379987373948" lon="-5.958993025124073">
        <ele>129.43000000000001</ele>
        <time>2025-04-29T13:17:09Z</time>
      </trkpt>
      <trkpt lat="43.411265993490815" lon="-5.959240039810538">
        <ele>127.51000000000001</ele>
        <time>2025-04-29T13:17:11Z</time>
      </trkpt>
      <trkpt lat="43.411198016256094" lon="-5.959345987066627">
        <ele>126.55</ele>
        <time>2025-04-29T13:17:12Z</time>
      </trkpt>
      <trkpt lat="43.411124004051089" lon="-5.95946098677814">
        <ele>125.59</ele>
        <time>2025-04-29T13:17:13Z</time>
      </trkpt>
      <trkpt lat="43.411046974360943" lon="-5.959525024518371">
        <ele>125.11</ele>
        <time>2025-04-29T13:17:14Z</time>
      </trkpt>
      <trkpt lat="43.410943960770965" lon="-5.959577998146415">
        <ele>124.15000000000001</ele>
        <time>2025-04-29T13:17:15Z</time>
      </trkpt>
      <trkpt lat="43.410828961059451" lon="-5.959601970389485">
        <ele>123.19</ele>
        <time>2025-04-29T13:17:16Z</time>
      </trkpt>
      <trkpt lat="43.410709016025066" lon="-5.959627032279968">
        <ele>122.22</ele>
        <time>2025-04-29T13:17:17Z</time>
      </trkpt>
      <trkpt lat="43.410586975514889" lon="-5.959652010351419">
        <ele>121.26000000000001</ele>
        <time>2025-04-29T13:17:18Z</time>
      </trkpt>
      <trkpt lat="43.41028799302876" lon="-5.959713030606508">
        <ele>118.38</ele>
        <time>2025-04-29T13:17:21Z</time>
      </trkpt>
      <trkpt lat="43.410226972773671" lon="-5.959726022556424">
        <ele>117.42</ele>
        <time>2025-04-29T13:17:22Z</time>
      </trkpt>
      <trkpt lat="43.410170981660485" lon="-5.959737002849579">
        <ele>116.45999999999999</ele>
        <time>2025-04-29T13:17:23Z</time>
      </trkpt>
      <trkpt lat="43.410154972225428" lon="-5.959843033924699">
        <ele>115.5</ele>
        <time>2025-04-29T13:17:24Z</time>
      </trkpt>
      <trkpt lat="43.410151032730937" lon="-5.959943030029535">
        <ele>114.53</ele>
        <time>2025-04-29T13:17:25Z</time>
      </trkpt>
      <trkpt lat="43.410146003589034" lon="-5.960074039176107">
        <ele>113.56999999999999</ele>
        <time>2025-04-29T13:17:26Z</time>
      </trkpt>
      <trkpt lat="43.410139968618751" lon="-5.960230026394129">
        <ele>113.09</ele>
        <time>2025-04-29T13:17:27Z</time>
      </trkpt>
      <trkpt lat="43.410162013024092" lon="-5.960380984470248">
        <ele>112.61</ele>
        <time>2025-04-29T13:17:28Z</time>
      </trkpt>
      <trkpt lat="43.410216998308897" lon="-5.960563961416483">
        <ele>112.61</ele>
        <time>2025-04-29T13:17:29Z</time>
      </trkpt>
      <trkpt lat="43.410275001078844" lon="-5.960755990818143">
        <ele>113.09</ele>
        <time>2025-04-29T13:17:30Z</time>
      </trkpt>
      <trkpt lat="43.410468958318233" lon="-5.961281033232808">
        <ele>115.5</ele>
        <time>2025-04-29T13:17:33Z</time>
      </trkpt>
      <trkpt lat="43.410555962473154" lon="-5.961417993530631">
        <ele>116.94</ele>
        <time>2025-04-29T13:17:34Z</time>
      </trkpt>
      <trkpt lat="43.410671968013048" lon="-5.961475996300578">
        <ele>118.38</ele>
        <time>2025-04-29T13:17:35Z</time>
      </trkpt>
      <trkpt lat="43.410819992423058" lon="-5.961533999070525">
        <ele>119.34</ele>
        <time>2025-04-29T13:17:36Z</time>
      </trkpt>
      <trkpt lat="43.410961981862783" lon="-5.961589990183711">
        <ele>120.78</ele>
        <time>2025-04-29T13:17:37Z</time>
      </trkpt>
      <trkpt lat="43.411089973524213" lon="-5.961661990731955">
        <ele>122.22</ele>
        <time>2025-04-29T13:17:38Z</time>
      </trkpt>
      <trkpt lat="43.411199022084475" lon="-5.961786964908242">
        <ele>123.19</ele>
        <time>2025-04-29T13:17:39Z</time>
      </trkpt>
      <trkpt lat="43.41131997294724" lon="-5.961925014853478">
        <ele>124.63</ele>
        <time>2025-04-29T13:17:40Z</time>
      </trkpt>
      <trkpt lat="43.411450982093811" lon="-5.962074967101216">
        <ele>126.06999999999999</ele>
        <time>2025-04-29T13:17:41Z</time>
      </trkpt>
      <trkpt lat="43.41170696541667" lon="-5.962437987327576">
        <ele>129.43000000000001</ele>
        <time>2025-04-29T13:17:43Z</time>
      </trkpt>
      <trkpt lat="43.411815008148551" lon="-5.962648959830403">
        <ele>130.88</ele>
        <time>2025-04-29T13:17:44Z</time>
      </trkpt>
      <trkpt lat="43.411897988989949" lon="-5.962860016152263">
        <ele>132.31999999999999</ele>
        <time>2025-04-29T13:17:45Z</time>
      </trkpt>
      <trkpt lat="43.411976024508476" lon="-5.963057996705174">
        <ele>134.24000000000001</ele>
        <time>2025-04-29T13:17:46Z</time>
      </trkpt>
      <trkpt lat="43.41207199729979" lon="-5.963223036378622">
        <ele>135.68000000000001</ele>
        <time>2025-04-29T13:17:47Z</time>
      </trkpt>
      <trkpt lat="43.412171993404627" lon="-5.963358990848064">
        <ele>137.13</ele>
        <time>2025-04-29T13:17:48Z</time>
      </trkpt>
      <trkpt lat="43.412239970639348" lon="-5.963452029973269">
        <ele>138.56999999999999</ele>
        <time>2025-04-29T13:17:49Z</time>
      </trkpt>
      <trkpt lat="43.412317000329494" lon="-5.963637018576264">
        <ele>139.53</ele>
        <time>2025-04-29T13:17:50Z</time>
      </trkpt>
      <trkpt lat="43.412358993664384" lon="-5.963793005794287">
        <ele>140.49000000000001</ele>
        <time>2025-04-29T13:17:51Z</time>
      </trkpt>
      <trkpt lat="43.412383971735835" lon="-5.963968019932509">
        <ele>141.44999999999999</ele>
        <time>2025-04-29T13:17:52Z</time>
      </trkpt>
      <trkpt lat="43.412407021969557" lon="-5.964128030464053">
        <ele>142.41</ele>
        <time>2025-04-29T13:17:53Z</time>
      </trkpt>
      <trkpt lat="43.412468964233994" lon="-5.964242024347186">
        <ele>143.37</ele>
        <time>2025-04-29T13:17:54Z</time>
      </trkpt>
      <trkpt lat="43.412549011409283" lon="-5.96435802988708">
        <ele>144.81999999999999</ele>
        <time>2025-04-29T13:17:55Z</time>
      </trkpt>
      <trkpt lat="43.412635009735823" lon="-5.964485015720129">
        <ele>145.78</ele>
        <time>2025-04-29T13:17:56Z</time>
      </trkpt>
      <trkpt lat="43.412726037204266" lon="-5.964619964361191">
        <ele>146.74000000000001</ele>
        <time>2025-04-29T13:17:57Z</time>
      </trkpt>
      <trkpt lat="43.413096014410257" lon="-5.965376012027264">
        <ele>152.50999999999999</ele>
        <time>2025-04-29T13:18:02Z</time>
      </trkpt>
      <trkpt lat="43.413157034665346" lon="-5.96566803753376">
        <ele>153.94999999999999</ele>
        <time>2025-04-29T13:18:04Z</time>
      </trkpt>
      <trkpt lat="43.413171032443643" lon="-5.965808015316725">
        <ele>154.91</ele>
        <time>2025-04-29T13:18:05Z</time>
      </trkpt>
      <trkpt lat="43.413180001080036" lon="-5.966079002246261">
        <ele>156.83000000000001</ele>
        <time>2025-04-29T13:18:07Z</time>
      </trkpt>
      <trkpt lat="43.413175977766514" lon="-5.966221997514367">
        <ele>157.31</ele>
        <time>2025-04-29T13:18:08Z</time>
      </trkpt>
      <trkpt lat="43.413172038272023" lon="-5.966365998610854">
        <ele>158.27000000000001</ele>
        <time>2025-04-29T13:18:09Z</time>
      </trkpt>
      <trkpt lat="43.41316700913012" lon="-5.966517040506005">
        <ele>158.75</ele>
        <time>2025-04-29T13:18:10Z</time>
      </trkpt>
      <trkpt lat="43.413162985816598" lon="-5.966662969440222">
        <ele>159.24000000000001</ele>
        <time>2025-04-29T13:18:11Z</time>
      </trkpt>
      <trkpt lat="43.413220988586545" lon="-5.966780986636877">
        <ele>159.72</ele>
        <time>2025-04-29T13:18:12Z</time>
      </trkpt>
      <trkpt lat="43.413285026326776" lon="-5.966902021318674">
        <ele>160.19999999999999</ele>
        <time>2025-04-29T13:18:13Z</time>
      </trkpt>
      <trkpt lat="43.413349986076355" lon="-5.967025989666581">
        <ele>161.16</ele>
        <time>2025-04-29T13:18:14Z</time>
      </trkpt>
      <trkpt lat="43.413822976872325" lon="-5.967844985425472">
        <ele>165.47999999999999</ele>
        <time>2025-04-29T13:18:21Z</time>
      </trkpt>
      <trkpt lat="43.413914004340768" lon="-5.967937018722296">
        <ele>165.96000000000001</ele>
        <time>2025-04-29T13:18:22Z</time>
      </trkpt>
      <trkpt lat="43.41400302015245" lon="-5.968026034533978">
        <ele>165.96000000000001</ele>
        <time>2025-04-29T13:18:23Z</time>
      </trkpt>
      <trkpt lat="43.41408901847899" lon="-5.968112032860518">
        <ele>166.44999999999999</ele>
        <time>2025-04-29T13:18:24Z</time>
      </trkpt>
      <trkpt lat="43.414171999320388" lon="-5.968196019530296">
        <ele>167.41</ele>
        <time>2025-04-29T13:18:25Z</time>
      </trkpt>
      <trkpt lat="43.4142180159688" lon="-5.968342032283545">
        <ele>167.88999999999999</ele>
        <time>2025-04-29T13:18:26Z</time>
      </trkpt>
      <trkpt lat="43.414263026788831" lon="-5.968485027551651">
        <ele>168.37</ele>
        <time>2025-04-29T13:18:27Z</time>
      </trkpt>
      <trkpt lat="43.414299990981817" lon="-5.968628022819758">
        <ele>169.33000000000001</ele>
        <time>2025-04-29T13:18:28Z</time>
      </trkpt>
      <trkpt lat="43.414299990981817" lon="-5.96878501586616">
        <ele>170.28999999999999</ele>
        <time>2025-04-29T13:18:29Z</time>
      </trkpt>
      <trkpt lat="43.414299990981817" lon="-5.968932034447789">
        <ele>171.25</ele>
        <time>2025-04-29T13:18:30Z</time>
      </trkpt>
      <trkpt lat="43.414279036223888" lon="-5.969503009691834">
        <ele>173.16999999999999</ele>
        <time>2025-04-29T13:18:34Z</time>
      </trkpt>
      <trkpt lat="43.414279036223888" lon="-5.969652961939573">
        <ele>173.16999999999999</ele>
        <time>2025-04-29T13:18:35Z</time>
      </trkpt>
      <trkpt lat="43.414332009851933" lon="-5.969812972471118">
        <ele>173.66</ele>
        <time>2025-04-29T13:18:36Z</time>
      </trkpt>
      <trkpt lat="43.414388000965118" lon="-5.969958985224366">
        <ele>174.13999999999999</ele>
        <time>2025-04-29T13:18:37Z</time>
      </trkpt>
      <trkpt lat="43.414446003735065" lon="-5.970109021291137">
        <ele>175.09999999999999</ele>
        <time>2025-04-29T13:18:38Z</time>
      </trkpt>
      <trkpt lat="43.414630992338061" lon="-5.970705980435014">
        <ele>177.5</ele>
        <time>2025-04-29T13:18:42Z</time>
      </trkpt>
      <trkpt lat="43.414653958752751" lon="-5.970860961824656">
        <ele>178.46000000000001</ele>
        <time>2025-04-29T13:18:43Z</time>
      </trkpt>
      <trkpt lat="43.414744986221194" lon="-5.971483988687396">
        <ele>181.34999999999999</ele>
        <time>2025-04-29T13:18:47Z</time>
      </trkpt>
      <trkpt lat="43.414796032011509" lon="-5.971633018925786">
        <ele>182.31</ele>
        <time>2025-04-29T13:18:48Z</time>
      </trkpt>
      <trkpt lat="43.414854034781456" lon="-5.971777020022273">
        <ele>183.27000000000001</ele>
        <time>2025-04-29T13:18:49Z</time>
      </trkpt>
      <trkpt lat="43.41501303948462" lon="-5.97222201526165">
        <ele>185.66999999999999</ele>
        <time>2025-04-29T13:18:52Z</time>
      </trkpt>
      <trkpt lat="43.415026031434536" lon="-5.972380014136434">
        <ele>186.63</ele>
        <time>2025-04-29T13:18:53Z</time>
      </trkpt>
      <trkpt lat="43.415010021999478" lon="-5.972528038546443">
        <ele>187.11000000000001</ele>
        <time>2025-04-29T13:18:54Z</time>
      </trkpt>
      <trkpt lat="43.414982026442885" lon="-5.972682014107704">
        <ele>188.08000000000001</ele>
        <time>2025-04-29T13:18:55Z</time>
      </trkpt>
      <trkpt lat="43.414953025057912" lon="-5.972841018810868">
        <ele>189.03999999999999</ele>
        <time>2025-04-29T13:18:56Z</time>
      </trkpt>
      <trkpt lat="43.414924023672938" lon="-5.973003963008523">
        <ele>190</ele>
        <time>2025-04-29T13:18:57Z</time>
      </trkpt>
      <trkpt lat="43.414900973439217" lon="-5.973174031823874">
        <ele>190.96000000000001</ele>
        <time>2025-04-29T13:18:58Z</time>
      </trkpt>
      <trkpt lat="43.414866020902991" lon="-5.97488502971828">
        <ele>197.21000000000001</ele>
        <time>2025-04-29T13:19:08Z</time>
      </trkpt>
      <trkpt lat="43.414858980104327" lon="-5.97538199275732">
        <ele>199.61000000000001</ele>
        <time>2025-04-29T13:19:11Z</time>
      </trkpt>
      <trkpt lat="43.414872977882624" lon="-5.975540997460485">
        <ele>200.09</ele>
        <time>2025-04-29T13:19:12Z</time>
      </trkpt>
      <trkpt lat="43.414895022287965" lon="-5.975704025477171">
        <ele>200.56999999999999</ele>
        <time>2025-04-29T13:19:13Z</time>
      </trkpt>
      <trkpt lat="43.414946990087628" lon="-5.97585397772491">
        <ele>201.05000000000001</ele>
        <time>2025-04-29T13:19:14Z</time>
      </trkpt>
      <trkpt lat="43.415009016171098" lon="-5.975998984649777">
        <ele>202.00999999999999</ele>
        <time>2025-04-29T13:19:15Z</time>
      </trkpt>
      <trkpt lat="43.415072970092297" lon="-5.97615597769618">
        <ele>202.49000000000001</ele>
        <time>2025-04-29T13:19:16Z</time>
      </trkpt>
      <trkpt lat="43.41546599753201" lon="-5.977159962058067">
        <ele>204.90000000000001</ele>
        <time>2025-04-29T13:19:22Z</time>
      </trkpt>
      <trkpt lat="43.415500028058887" lon="-5.977346962317824">
        <ele>204.90000000000001</ele>
        <time>2025-04-29T13:19:23Z</time>
      </trkpt>
      <trkpt lat="43.415533974766731" lon="-5.977535974234343">
        <ele>204.41999999999999</ele>
        <time>2025-04-29T13:19:24Z</time>
      </trkpt>
      <trkpt lat="43.415554007515311" lon="-5.977729009464383">
        <ele>203.46000000000001</ele>
        <time>2025-04-29T13:19:25Z</time>
      </trkpt>
      <trkpt lat="43.415565993636847" lon="-5.977907963097096">
        <ele>202.49000000000001</ele>
        <time>2025-04-29T13:19:26Z</time>
      </trkpt>
      <trkpt lat="43.415530035272241" lon="-5.978073002770543">
        <ele>201.53</ele>
        <time>2025-04-29T13:19:27Z</time>
      </trkpt>
      <trkpt lat="43.415485024452209" lon="-5.978228989988565">
        <ele>200.09</ele>
        <time>2025-04-29T13:19:28Z</time>
      </trkpt>
      <trkpt lat="43.415413023903966" lon="-5.978381037712097">
        <ele>199.13</ele>
        <time>2025-04-29T13:19:29Z</time>
      </trkpt>
      <trkpt lat="43.415338005870581" lon="-5.978539036586881">
        <ele>198.16999999999999</ele>
        <time>2025-04-29T13:19:30Z</time>
      </trkpt>
      <trkpt lat="43.415286038070917" lon="-5.978712039068341">
        <ele>197.21000000000001</ele>
        <time>2025-04-29T13:19:31Z</time>
      </trkpt>
      <trkpt lat="43.41524999588728" lon="-5.978895016014576">
        <ele>196.72999999999999</ele>
        <time>2025-04-29T13:19:32Z</time>
      </trkpt>
      <trkpt lat="43.415223006159067" lon="-5.979069024324417">
        <ele>195.77000000000001</ele>
        <time>2025-04-29T13:19:33Z</time>
      </trkpt>
      <trkpt lat="43.415223006159067" lon="-5.979244038462639">
        <ele>194.31999999999999</ele>
        <time>2025-04-29T13:19:34Z</time>
      </trkpt>
      <trkpt lat="43.415232980623841" lon="-5.979423997923732">
        <ele>193.36000000000001</ele>
        <time>2025-04-29T13:19:35Z</time>
      </trkpt>
      <trkpt lat="43.415266005322337" lon="-5.979589959606528">
        <ele>192.40000000000001</ele>
        <time>2025-04-29T13:19:36Z</time>
      </trkpt>
      <trkpt lat="43.415296012535691" lon="-5.979738989844918">
        <ele>190.96000000000001</ele>
        <time>2025-04-29T13:19:37Z</time>
      </trkpt>
      <trkpt lat="43.415323002263904" lon="-5.979877039790154">
        <ele>190</ele>
        <time>2025-04-29T13:19:38Z</time>
      </trkpt>
      <trkpt lat="43.415350997820497" lon="-5.980017017573118">
        <ele>188.56</ele>
        <time>2025-04-29T13:19:39Z</time>
      </trkpt>
      <trkpt lat="43.415309004485607" lon="-5.980131011456251">
        <ele>187.11000000000001</ele>
        <time>2025-04-29T13:19:40Z</time>
      </trkpt>
      <trkpt lat="43.415259970352054" lon="-5.980260008946061">
        <ele>185.66999999999999</ele>
        <time>2025-04-29T13:19:41Z</time>
      </trkpt>
      <trkpt lat="43.415211020037532" lon="-5.980392023921013">
        <ele>184.22999999999999</ele>
        <time>2025-04-29T13:19:42Z</time>
      </trkpt>
      <trkpt lat="43.415157962590456" lon="-5.980656975880265">
        <ele>180.87</ele>
        <time>2025-04-29T13:19:44Z</time>
      </trkpt>
      <trkpt lat="43.415184030309319" lon="-5.980758983641863">
        <ele>179.41999999999999</ele>
        <time>2025-04-29T13:19:45Z</time>
      </trkpt>
      <trkpt lat="43.415237003937364" lon="-5.980826038867235">
        <ele>177.97999999999999</ele>
        <time>2025-04-29T13:19:46Z</time>
      </trkpt>
      <trkpt lat="43.415304981172085" lon="-5.980853028595448">
        <ele>176.53999999999999</ele>
        <time>2025-04-29T13:19:47Z</time>
      </trkpt>
      <trkpt lat="43.415384022518992" lon="-5.980811035260558">
        <ele>174.62</ele>
        <time>2025-04-29T13:19:48Z</time>
      </trkpt>
      <trkpt lat="43.415472032502294" lon="-5.980760995298624">
        <ele>173.16999999999999</ele>
        <time>2025-04-29T13:19:49Z</time>
      </trkpt>
      <trkpt lat="43.41557202860713" lon="-5.980703998357058">
        <ele>171.72999999999999</ele>
        <time>2025-04-29T13:19:50Z</time>
      </trkpt>
      <trkpt lat="43.415675964206457" lon="-5.980643983930349">
        <ele>170.28999999999999</ele>
        <time>2025-04-29T13:19:51Z</time>
      </trkpt>
      <trkpt lat="43.415779983624816" lon="-5.980602996423841">
        <ele>169.33000000000001</ele>
        <time>2025-04-29T13:19:52Z</time>
      </trkpt>
      <trkpt lat="43.415876040235162" lon="-5.980636021122336">
        <ele>168.37</ele>
        <time>2025-04-29T13:19:53Z</time>
      </trkpt>
      <trkpt lat="43.415974024683237" lon="-5.980705004185438">
        <ele>167.41</ele>
        <time>2025-04-29T13:19:54Z</time>
      </trkpt>
      <trkpt lat="43.416037978604436" lon="-5.980832995846868">
        <ele>166.93000000000001</ele>
        <time>2025-04-29T13:19:55Z</time>
      </trkpt>
      <trkpt lat="43.416060023009777" lon="-5.980952018871903">
        <ele>166.44999999999999</ele>
        <time>2025-04-29T13:19:56Z</time>
      </trkpt>
      <trkpt lat="43.416080977767706" lon="-5.981069030240178">
        <ele>165.47999999999999</ele>
        <time>2025-04-29T13:19:57Z</time>
      </trkpt>
      <trkpt lat="43.416037978604436" lon="-5.981218982487917">
        <ele>165</ele>
        <time>2025-04-29T13:19:58Z</time>
      </trkpt>
      <trkpt lat="43.415972013026476" lon="-5.981306992471218">
        <ele>164.52000000000001</ele>
        <time>2025-04-29T13:19:59Z</time>
      </trkpt>
      <trkpt lat="43.415908981114626" lon="-5.981390979140997">
        <ele>164.03999999999999</ele>
        <time>2025-04-29T13:20:00Z</time>
      </trkpt>
      <trkpt lat="43.415864976122975" lon="-5.981536991894245">
        <ele>163.08000000000001</ele>
        <time>2025-04-29T13:20:01Z</time>
      </trkpt>
      <trkpt lat="43.415853995829821" lon="-5.981681998819113">
        <ele>162.12</ele>
        <time>2025-04-29T13:20:02Z</time>
      </trkpt>
      <trkpt lat="43.41587302275002" lon="-5.981841003522277">
        <ele>161.16</ele>
        <time>2025-04-29T13:20:03Z</time>
      </trkpt>
      <trkpt lat="43.415946029126644" lon="-5.982379037886858">
        <ele>157.31</ele>
        <time>2025-04-29T13:20:06Z</time>
      </trkpt>
      <trkpt lat="43.415997996926308" lon="-5.982536030933261">
        <ele>156.34999999999999</ele>
        <time>2025-04-29T13:20:07Z</time>
      </trkpt>
      <trkpt lat="43.416063040494919" lon="-5.982683971524239">
        <ele>154.91</ele>
        <time>2025-04-29T13:20:08Z</time>
      </trkpt>
      <trkpt lat="43.416132023558021" lon="-5.982823027297854">
        <ele>153.47</ele>
        <time>2025-04-29T13:20:09Z</time>
      </trkpt>
      <trkpt lat="43.416209975257516" lon="-5.982978008687496">
        <ele>152.03</ele>
        <time>2025-04-29T13:20:10Z</time>
      </trkpt>
      <trkpt lat="43.416241994127631" lon="-5.983145982027054">
        <ele>151.06</ele>
        <time>2025-04-29T13:20:11Z</time>
      </trkpt>
      <trkpt lat="43.416278036311269" lon="-5.983333988115192">
        <ele>150.09999999999999</ele>
        <time>2025-04-29T13:20:12Z</time>
      </trkpt>
      <trkpt lat="43.416423965245485" lon="-5.984250968322158">
        <ele>145.30000000000001</ele>
        <time>2025-04-29T13:20:17Z</time>
      </trkpt>
      <trkpt lat="43.416451038792729" lon="-5.986377960070968">
        <ele>136.63999999999999</ele>
        <time>2025-04-29T13:20:28Z</time>
      </trkpt>
      <trkpt lat="43.416525973007083" lon="-5.986521961167455">
        <ele>135.68000000000001</ele>
        <time>2025-04-29T13:20:29Z</time>
      </trkpt>
      <trkpt lat="43.416598979383707" lon="-5.986662022769451">
        <ele>134.72</ele>
        <time>2025-04-29T13:20:30Z</time>
      </trkpt>
      <trkpt lat="43.416681960225105" lon="-5.986819015815854">
        <ele>133.75999999999999</ele>
        <time>2025-04-29T13:20:31Z</time>
      </trkpt>
      <trkpt lat="43.416704004630446" lon="-5.986976008862257">
        <ele>132.80000000000001</ele>
        <time>2025-04-29T13:20:32Z</time>
      </trkpt>
      <trkpt lat="43.416735017672181" lon="-5.987169966101646">
        <ele>132.80000000000001</ele>
        <time>2025-04-29T13:20:33Z</time>
      </trkpt>
      <trkpt lat="43.416774999350309" lon="-5.987375993281603">
        <ele>132.31999999999999</ele>
        <time>2025-04-29T13:20:34Z</time>
      </trkpt>
      <trkpt lat="43.416817998513579" lon="-5.987597024068236">
        <ele>132.31999999999999</ele>
        <time>2025-04-29T13:20:35Z</time>
      </trkpt>
      <trkpt lat="43.416860997676849" lon="-5.987819982692599">
        <ele>131.84</ele>
        <time>2025-04-29T13:20:36Z</time>
      </trkpt>
      <trkpt lat="43.416896034032106" lon="-5.988000025972724">
        <ele>131.84</ele>
        <time>2025-04-29T13:20:37Z</time>
      </trkpt>
      <trkpt lat="43.416886981576681" lon="-5.988252991810441">
        <ele>131.84</ele>
        <time>2025-04-29T13:20:38Z</time>
      </trkpt>
      <trkpt lat="43.416878012940288" lon="-5.988485002890229">
        <ele>131.36000000000001</ele>
        <time>2025-04-29T13:20:39Z</time>
      </trkpt>
      <trkpt lat="43.416855968534946" lon="-5.988713996484876">
        <ele>131.84</ele>
        <time>2025-04-29T13:20:40Z</time>
      </trkpt>
      <trkpt lat="43.416811041533947" lon="-5.989164020866156">
        <ele>131.84</ele>
        <time>2025-04-29T13:20:42Z</time>
      </trkpt>
      <trkpt lat="43.416811041533947" lon="-5.989382034167647">
        <ele>131.84</ele>
        <time>2025-04-29T13:20:43Z</time>
      </trkpt>
      <trkpt lat="43.416848005726933" lon="-5.989963989704847">
        <ele>131.84</ele>
        <time>2025-04-29T13:20:46Z</time>
      </trkpt>
      <trkpt lat="43.416896034032106" lon="-5.990059040486813">
        <ele>130.88</ele>
        <time>2025-04-29T13:20:47Z</time>
      </trkpt>
      <trkpt lat="43.416973985731602" lon="-5.990121988579631">
        <ele>130.40000000000001</ele>
        <time>2025-04-29T13:20:48Z</time>
      </trkpt>
      <trkpt lat="43.417053027078509" lon="-5.990145038813353">
        <ele>129.91999999999999</ele>
        <time>2025-04-29T13:20:49Z</time>
      </trkpt>
      <trkpt lat="43.417156040668488" lon="-5.990144032984972">
        <ele>129.43000000000001</ele>
        <time>2025-04-29T13:20:50Z</time>
      </trkpt>
      <trkpt lat="43.417268022894859" lon="-5.990086030215025">
        <ele>128.94999999999999</ele>
        <time>2025-04-29T13:20:51Z</time>
      </trkpt>
      <trkpt lat="43.417390985414386" lon="-5.990020986646414">
        <ele>128.94999999999999</ele>
        <time>2025-04-29T13:20:52Z</time>
      </trkpt>
      <trkpt lat="43.417790969833732" lon="-5.989843960851431">
        <ele>127.98999999999999</ele>
        <time>2025-04-29T13:20:55Z</time>
      </trkpt>
      <trkpt lat="43.417934970930219" lon="-5.989800039678812">
        <ele>127.51000000000001</ele>
        <time>2025-04-29T13:20:56Z</time>
      </trkpt>
      <trkpt lat="43.418080983683467" lon="-5.989755028858781">
        <ele>127.03</ele>
        <time>2025-04-29T13:20:57Z</time>
      </trkpt>
      <trkpt lat="43.418224984779954" lon="-5.989699037745595">
        <ele>127.03</ele>
        <time>2025-04-29T13:20:58Z</time>
      </trkpt>
      <trkpt lat="43.41834400780499" lon="-5.989589989185333">
        <ele>126.55</ele>
        <time>2025-04-29T13:20:59Z</time>
      </trkpt>
      <trkpt lat="43.418463030830026" lon="-5.989480018615723">
        <ele>126.06999999999999</ele>
        <time>2025-04-29T13:21:00Z</time>
      </trkpt>
      <trkpt lat="43.418677020817995" lon="-5.989157985895872">
        <ele>125.59</ele>
        <time>2025-04-29T13:21:02Z</time>
      </trkpt>
      <trkpt lat="43.418756984174252" lon="-5.98895899951458">
        <ele>125.11</ele>
        <time>2025-04-29T13:21:03Z</time>
      </trkpt>
      <trkpt lat="43.41883703134954" lon="-5.988760013133287">
        <ele>124.15000000000001</ele>
        <time>2025-04-29T13:21:04Z</time>
      </trkpt>
      <trkpt lat="43.419005004689097" lon="-5.988339995965362">
        <ele>123.19</ele>
        <time>2025-04-29T13:21:06Z</time>
      </trkpt>
      <trkpt lat="43.419108018279076" lon="-5.988136986270547">
        <ele>122.22</ele>
        <time>2025-04-29T13:21:07Z</time>
      </trkpt>
      <trkpt lat="43.419313039630651" lon="-5.987757034599781">
        <ele>121.26000000000001</ele>
        <time>2025-04-29T13:21:09Z</time>
      </trkpt>
      <trkpt lat="43.419441031292081" lon="-5.987631976604462">
        <ele>120.3</ele>
        <time>2025-04-29T13:21:10Z</time>
      </trkpt>
      <trkpt lat="43.419566005468369" lon="-5.987515971064568">
        <ele>119.81999999999999</ele>
        <time>2025-04-29T13:21:11Z</time>
      </trkpt>
      <trkpt lat="43.419814025983214" lon="-5.987355960533023">
        <ele>118.38</ele>
        <time>2025-04-29T13:21:13Z</time>
      </trkpt>
      <trkpt lat="43.41993497684598" lon="-5.987355960533023">
        <ele>117.90000000000001</ele>
        <time>2025-04-29T13:21:14Z</time>
      </trkpt>
      <trkpt lat="43.420045031234622" lon="-5.98736803047359">
        <ele>117.90000000000001</ele>
        <time>2025-04-29T13:21:15Z</time>
      </trkpt>
      <trkpt lat="43.420882970094681" lon="-5.987560981884599">
        <ele>125.59</ele>
        <time>2025-04-29T13:21:24Z</time>
      </trkpt>
      <trkpt lat="43.420928986743093" lon="-5.987601969391108">
        <ele>127.03</ele>
        <time>2025-04-29T13:21:25Z</time>
      </trkpt>
      <trkpt lat="43.42096796259284" lon="-5.987637005746365">
        <ele>127.51000000000001</ele>
        <time>2025-04-29T13:21:26Z</time>
      </trkpt>
      <trkpt lat="43.421005010604858" lon="-5.987670030444861">
        <ele>128.94999999999999</ele>
        <time>2025-04-29T13:21:27Z</time>
      </trkpt>
      <trkpt lat="43.421018002554774" lon="-5.987729039043188">
        <ele>129.91999999999999</ele>
        <time>2025-04-29T13:21:28Z</time>
      </trkpt>
      <trkpt lat="43.420967040583491" lon="-5.987803973257542">
        <ele>130.88</ele>
        <time>2025-04-29T13:21:29Z</time>
      </trkpt>
      <trkpt lat="43.420899985358119" lon="-5.987907992675901">
        <ele>131.36000000000001</ele>
        <time>2025-04-29T13:21:30Z</time>
      </trkpt>
      <trkpt lat="43.420829996466637" lon="-5.988034978508949">
        <ele>131.84</ele>
        <time>2025-04-29T13:21:31Z</time>
      </trkpt>
      <trkpt lat="43.420011000707746" lon="-5.989268962293863">
        <ele>136.16</ele>
        <time>2025-04-29T13:21:40Z</time>
      </trkpt>
      <trkpt lat="43.418876007199287" lon="-5.990286022424698">
        <ele>137.13</ele>
        <time>2025-04-29T13:21:47Z</time>
      </trkpt>
      <trkpt lat="43.417531969025731" lon="-5.991374999284744">
        <ele>134.72</ele>
        <time>2025-04-29T13:21:54Z</time>
      </trkpt>
      <trkpt lat="43.416637033224106" lon="-5.99224696867168">
        <ele>132.80000000000001</ele>
        <time>2025-04-29T13:21:59Z</time>
      </trkpt>
      <trkpt lat="43.416532007977366" lon="-5.992398010566831">
        <ele>132.31999999999999</ele>
        <time>2025-04-29T13:22:00Z</time>
      </trkpt>
      <trkpt lat="43.416488002985716" lon="-5.992629015818238">
        <ele>131.84</ele>
        <time>2025-04-29T13:22:01Z</time>
      </trkpt>
      <trkpt lat="43.416463024914265" lon="-5.99284702911973">
        <ele>131.36000000000001</ele>
        <time>2025-04-29T13:22:02Z</time>
      </trkpt>
      <trkpt lat="43.416452966630459" lon="-5.993093959987164">
        <ele>130.88</ele>
        <time>2025-04-29T13:22:03Z</time>
      </trkpt>
      <trkpt lat="43.416441986337304" lon="-5.993357989937067">
        <ele>130.40000000000001</ele>
        <time>2025-04-29T13:22:04Z</time>
      </trkpt>
      <trkpt lat="43.416369985789061" lon="-5.994130969047546">
        <ele>129.91999999999999</ele>
        <time>2025-04-29T13:22:07Z</time>
      </trkpt>
      <trkpt lat="43.416290022432804" lon="-5.994322998449206">
        <ele>129.43000000000001</ele>
        <time>2025-04-29T13:22:08Z</time>
      </trkpt>
      <trkpt lat="43.416188014671206" lon="-5.99450103007257">
        <ele>128.47</ele>
        <time>2025-04-29T13:22:09Z</time>
      </trkpt>
      <trkpt lat="43.416069997474551" lon="-5.994618963450193">
        <ele>127.98999999999999</ele>
        <time>2025-04-29T13:22:10Z</time>
      </trkpt>
      <trkpt lat="43.415929013863206" lon="-5.994761036708951">
        <ele>127.98999999999999</ele>
        <time>2025-04-29T13:22:11Z</time>
      </trkpt>
      <trkpt lat="43.415786018595099" lon="-5.994903026148677">
        <ele>127.51000000000001</ele>
        <time>2025-04-29T13:22:12Z</time>
      </trkpt>
      <trkpt lat="43.415683005005121" lon="-5.995087008923292">
        <ele>127.51000000000001</ele>
        <time>2025-04-29T13:22:13Z</time>
      </trkpt>
      <trkpt lat="43.41563799418509" lon="-5.995273003354669">
        <ele>127.98999999999999</ele>
        <time>2025-04-29T13:22:14Z</time>
      </trkpt>
      <trkpt lat="43.415613016113639" lon="-5.995508031919599">
        <ele>127.98999999999999</ele>
        <time>2025-04-29T13:22:15Z</time>
      </trkpt>
      <trkpt lat="43.415586026385427" lon="-5.995759991928935">
        <ele>127.98999999999999</ele>
        <time>2025-04-29T13:22:16Z</time>
      </trkpt>
      <trkpt lat="43.415558030828834" lon="-5.996023016050458">
        <ele>127.51000000000001</ele>
        <time>2025-04-29T13:22:17Z</time>
      </trkpt>
      <trkpt lat="43.415366001427174" lon="-5.997377028688788">
        <ele>126.55</ele>
        <time>2025-04-29T13:22:22Z</time>
      </trkpt>
      <trkpt lat="43.415296012535691" lon="-5.997585989534855">
        <ele>126.06999999999999</ele>
        <time>2025-04-29T13:22:23Z</time>
      </trkpt>
      <trkpt lat="43.415198028087616" lon="-5.997738037258387">
        <ele>125.59</ele>
        <time>2025-04-29T13:22:24Z</time>
      </trkpt>
      <trkpt lat="43.415069030597806" lon="-5.99785496480763">
        <ele>125.11</ele>
        <time>2025-04-29T13:22:25Z</time>
      </trkpt>
      <trkpt lat="43.414924023672938" lon="-5.997906010597944">
        <ele>124.63</ele>
        <time>2025-04-29T13:22:26Z</time>
      </trkpt>
      <trkpt lat="43.414752027019858" lon="-5.997929982841015">
        <ele>124.15000000000001</ele>
        <time>2025-04-29T13:22:27Z</time>
      </trkpt>
      <trkpt lat="43.414586987346411" lon="-5.997953033074737">
        <ele>123.67</ele>
        <time>2025-04-29T13:22:28Z</time>
      </trkpt>
      <trkpt lat="43.414439968764782" lon="-5.997972982004285">
        <ele>123.19</ele>
        <time>2025-04-29T13:22:29Z</time>
      </trkpt>
      <trkpt lat="43.414322035387158" lon="-5.998074989765883">
        <ele>122.70999999999999</ele>
        <time>2025-04-29T13:22:30Z</time>
      </trkpt>
      <trkpt lat="43.414207035675645" lon="-5.998204993084073">
        <ele>122.22</ele>
        <time>2025-04-29T13:22:31Z</time>
      </trkpt>
      <trkpt lat="43.414079966023564" lon="-5.99834899418056">
        <ele>121.73999999999999</ele>
        <time>2025-04-29T13:22:32Z</time>
      </trkpt>
      <trkpt lat="43.413934959098697" lon="-5.998514033854008">
        <ele>121.26000000000001</ele>
        <time>2025-04-29T13:22:33Z</time>
      </trkpt>
      <trkpt lat="43.41378903016448" lon="-5.998616963624954">
        <ele>120.78</ele>
        <time>2025-04-29T13:22:34Z</time>
      </trkpt>
      <trkpt lat="43.41361896134913" lon="-5.998736992478371">
        <ele>120.3</ele>
        <time>2025-04-29T13:22:35Z</time>
      </trkpt>
      <trkpt lat="43.413443025201559" lon="-5.998860960826278">
        <ele>119.34</ele>
        <time>2025-04-29T13:22:36Z</time>
      </trkpt>
      <trkpt lat="43.41327304020524" lon="-5.998980989679694">
        <ele>118.86</ele>
        <time>2025-04-29T13:22:37Z</time>
      </trkpt>
      <trkpt lat="43.413125015795231" lon="-5.999132031574845">
        <ele>118.38</ele>
        <time>2025-04-29T13:22:38Z</time>
      </trkpt>
      <trkpt lat="43.412741040810943" lon="-5.999783976003528">
        <ele>116.45999999999999</ele>
        <time>2025-04-29T13:22:41Z</time>
      </trkpt>
      <trkpt lat="43.412635009735823" lon="-6.000050017610192">
        <ele>115.5</ele>
        <time>2025-04-29T13:22:42Z</time>
      </trkpt>
      <trkpt lat="43.412576001137495" lon="-6.000344976782799">
        <ele>115.01000000000001</ele>
        <time>2025-04-29T13:22:43Z</time>
      </trkpt>
      <trkpt lat="43.412545993924141" lon="-6.000648988410831">
        <ele>114.53</ele>
        <time>2025-04-29T13:22:44Z</time>
      </trkpt>
      <trkpt lat="43.412520010024309" lon="-6.000974038615823">
        <ele>114.05</ele>
        <time>2025-04-29T13:22:45Z</time>
      </trkpt>
      <trkpt lat="43.412526967003942" lon="-6.00129397585988">
        <ele>113.56999999999999</ele>
        <time>2025-04-29T13:22:46Z</time>
      </trkpt>
      <trkpt lat="43.41252101585269" lon="-6.002539023756981">
        <ele>112.13</ele>
        <time>2025-04-29T13:22:50Z</time>
      </trkpt>
      <trkpt lat="43.412468964233994" lon="-6.002828031778336">
        <ele>111.65000000000001</ele>
        <time>2025-04-29T13:22:51Z</time>
      </trkpt>
      <trkpt lat="43.412400986999273" lon="-6.003121985122562">
        <ele>111.65000000000001</ele>
        <time>2025-04-29T13:22:52Z</time>
      </trkpt>
      <trkpt lat="43.412294033914804" lon="-6.003385009244084">
        <ele>111.17</ele>
        <time>2025-04-29T13:22:53Z</time>
      </trkpt>
      <trkpt lat="43.412174005061388" lon="-6.003651972860098">
        <ele>110.69</ele>
        <time>2025-04-29T13:22:54Z</time>
      </trkpt>
      <trkpt lat="43.412038972601295" lon="-6.003900999203324">
        <ele>110.20999999999999</ele>
        <time>2025-04-29T13:22:55Z</time>
      </trkpt>
      <trkpt lat="43.41187996789813" lon="-6.004138961434364">
        <ele>110.20999999999999</ele>
        <time>2025-04-29T13:22:56Z</time>
      </trkpt>
      <trkpt lat="43.411719035357237" lon="-6.004381030797958">
        <ele>109.73</ele>
        <time>2025-04-29T13:22:57Z</time>
      </trkpt>
      <trkpt lat="43.409991022199392" lon="-6.006618998944759">
        <ele>104.44</ele>
        <time>2025-04-29T13:23:07Z</time>
      </trkpt>
      <trkpt lat="43.407509978860617" lon="-6.009269021451473">
        <ele>95.790000000000006</ele>
        <time>2025-04-29T13:23:20Z</time>
      </trkpt>
      <trkpt lat="43.405649028718472" lon="-6.011125026270747">
        <ele>88.099999999999994</ele>
        <time>2025-04-29T13:23:30Z</time>
      </trkpt>
      <trkpt lat="43.403738038614392" lon="-6.012754971161485">
        <ele>85.209999999999994</ele>
        <time>2025-04-29T13:23:40Z</time>
      </trkpt>
      <trkpt lat="43.402087977156043" lon="-6.014581974595785">
        <ele>90.980000000000004</ele>
        <time>2025-04-29T13:23:50Z</time>
      </trkpt>
      <trkpt lat="43.400828009471297" lon="-6.016007987782359">
        <ele>94.829999999999998</ele>
        <time>2025-04-29T13:23:59Z</time>
      </trkpt>
      <trkpt lat="43.399492017924786" lon="-6.017892993986607">
        <ele>101.56</ele>
        <time>2025-04-29T13:24:10Z</time>
      </trkpt>
      <trkpt lat="43.399090021848679" lon="-6.018590033054352">
        <ele>102.52</ele>
        <time>2025-04-29T13:24:15Z</time>
      </trkpt>
      <trkpt lat="43.399038976058364" lon="-6.018723975867033">
        <ele>102.52</ele>
        <time>2025-04-29T13:24:16Z</time>
      </trkpt>
      <trkpt lat="43.399011986330152" lon="-6.018873006105423">
        <ele>102.52</ele>
        <time>2025-04-29T13:24:17Z</time>
      </trkpt>
      <trkpt lat="43.398995976895094" lon="-6.019034022465348">
        <ele>102.52</ele>
        <time>2025-04-29T13:24:18Z</time>
      </trkpt>
      <trkpt lat="43.398978961631656" lon="-6.019198978319764">
        <ele>102.52</ele>
        <time>2025-04-29T13:24:19Z</time>
      </trkpt>
      <trkpt lat="43.398997988551855" lon="-6.019366029649973">
        <ele>102.04000000000001</ele>
        <time>2025-04-29T13:24:20Z</time>
      </trkpt>
      <trkpt lat="43.399019027128816" lon="-6.019543977454305">
        <ele>102.04000000000001</ele>
        <time>2025-04-29T13:24:21Z</time>
      </trkpt>
      <trkpt lat="43.399044005200267" lon="-6.019756961613894">
        <ele>102.04000000000001</ele>
        <time>2025-04-29T13:24:22Z</time>
      </trkpt>
      <trkpt lat="43.399078035727143" lon="-6.019896017387509">
        <ele>101.08</ele>
        <time>2025-04-29T13:24:23Z</time>
      </trkpt>
      <trkpt lat="43.399212984368205" lon="-6.020543016493321">
        <ele>99.150000000000006</ele>
        <time>2025-04-29T13:24:27Z</time>
      </trkpt>
      <trkpt lat="43.399237040430307" lon="-6.020721970126033">
        <ele>98.670000000000002</ele>
        <time>2025-04-29T13:24:28Z</time>
      </trkpt>
      <trkpt lat="43.39920200407505" lon="-6.020907964557409">
        <ele>97.709999999999994</ele>
        <time>2025-04-29T13:24:29Z</time>
      </trkpt>
      <trkpt lat="43.399156993255019" lon="-6.021096976473928">
        <ele>97.230000000000004</ele>
        <time>2025-04-29T13:24:30Z</time>
      </trkpt>
      <trkpt lat="43.399069989100099" lon="-6.021282970905304">
        <ele>96.269999999999996</ele>
        <time>2025-04-29T13:24:31Z</time>
      </trkpt>
      <trkpt lat="43.398978961631656" lon="-6.021462008357048">
        <ele>94.829999999999998</ele>
        <time>2025-04-29T13:24:32Z</time>
      </trkpt>
      <trkpt lat="43.398868991062045" lon="-6.021627970039845">
        <ele>93.870000000000005</ele>
        <time>2025-04-29T13:24:33Z</time>
      </trkpt>
      <trkpt lat="43.398027028888464" lon="-6.022937977686524">
        <ele>85.209999999999994</ele>
        <time>2025-04-29T13:24:42Z</time>
      </trkpt>
      <trkpt lat="43.397969026118517" lon="-6.02307996712625">
        <ele>84.730000000000004</ele>
        <time>2025-04-29T13:24:43Z</time>
      </trkpt>
      <trkpt lat="43.397948993369937" lon="-6.023235032334924">
        <ele>83.769999999999996</ele>
        <time>2025-04-29T13:24:44Z</time>
      </trkpt>
      <trkpt lat="43.397974977269769" lon="-6.023383978754282">
        <ele>83.290000000000006</ele>
        <time>2025-04-29T13:24:45Z</time>
      </trkpt>
      <trkpt lat="43.398035997524858" lon="-6.023536026477814">
        <ele>82.329999999999998</ele>
        <time>2025-04-29T13:24:46Z</time>
      </trkpt>
      <trkpt lat="43.398109003901482" lon="-6.023676004260778">
        <ele>81.849999999999994</ele>
        <time>2025-04-29T13:24:47Z</time>
      </trkpt>
      <trkpt lat="43.398217968642712" lon="-6.023802990093827">
        <ele>81.370000000000005</ele>
        <time>2025-04-29T13:24:48Z</time>
      </trkpt>
      <trkpt lat="43.398334980010986" lon="-6.023938022553921">
        <ele>80.409999999999997</ele>
        <time>2025-04-29T13:24:49Z</time>
      </trkpt>
      <trkpt lat="43.398454003036022" lon="-6.024075988680124">
        <ele>79.930000000000007</ele>
        <time>2025-04-29T13:24:50Z</time>
      </trkpt>
      <trkpt lat="43.398589035496116" lon="-6.024182019755244">
        <ele>79.450000000000003</ele>
        <time>2025-04-29T13:24:51Z</time>
      </trkpt>
      <trkpt lat="43.399837017059326" lon="-6.024721981957555">
        <ele>75.599999999999994</ele>
        <time>2025-04-29T13:24:59Z</time>
      </trkpt>
      <trkpt lat="43.400443028658628" lon="-6.024974025785923">
        <ele>74.159999999999997</ele>
        <time>2025-04-29T13:25:03Z</time>
      </trkpt>
      <trkpt lat="43.401953028514981" lon="-6.025652037933469">
        <ele>65.030000000000001</ele>
        <time>2025-04-29T13:25:13Z</time>
      </trkpt>
      <trkpt lat="43.402130976319313" lon="-6.025758991017938">
        <ele>64.069999999999993</ele>
        <time>2025-04-29T13:25:14Z</time>
      </trkpt>
      <trkpt lat="43.402286041527987" lon="-6.025906009599567">
        <ele>63.100000000000001</ele>
        <time>2025-04-29T13:25:15Z</time>
      </trkpt>
      <trkpt lat="43.402445968240499" lon="-6.026083035394549">
        <ele>62.619999999999997</ele>
        <time>2025-04-29T13:25:16Z</time>
      </trkpt>
      <trkpt lat="43.402605978772044" lon="-6.02625897154212">
        <ele>61.659999999999997</ele>
        <time>2025-04-29T13:25:17Z</time>
      </trkpt>
      <trkpt lat="43.402728019282222" lon="-6.026496011763811">
        <ele>61.18</ele>
        <time>2025-04-29T13:25:18Z</time>
      </trkpt>
      <trkpt lat="43.402858022600412" lon="-6.026746965944767">
        <ele>60.700000000000003</ele>
        <time>2025-04-29T13:25:19Z</time>
      </trkpt>
      <trkpt lat="43.402964975684881" lon="-6.027004038915038">
        <ele>60.219999999999999</ele>
        <time>2025-04-29T13:25:20Z</time>
      </trkpt>
      <trkpt lat="43.403050974011421" lon="-6.027287011966109">
        <ele>59.740000000000002</ele>
        <time>2025-04-29T13:25:21Z</time>
      </trkpt>
      <trkpt lat="43.403103025630116" lon="-6.027576019987464">
        <ele>59.259999999999998</ele>
        <time>2025-04-29T13:25:22Z</time>
      </trkpt>
      <trkpt lat="43.403640976175666" lon="-6.029303027316928">
        <ele>53.009999999999998</ele>
        <time>2025-04-29T13:25:29Z</time>
      </trkpt>
      <trkpt lat="43.404099969193339" lon="-6.030781008303165">
        <ele>49.649999999999999</ele>
        <time>2025-04-29T13:25:35Z</time>
      </trkpt>
      <trkpt lat="43.404088988900185" lon="-6.030978988856077">
        <ele>49.649999999999999</ele>
        <time>2025-04-29T13:25:36Z</time>
      </trkpt>
      <trkpt lat="43.404037021100521" lon="-6.031163977459073">
        <ele>49.159999999999997</ele>
        <time>2025-04-29T13:25:37Z</time>
      </trkpt>
      <trkpt lat="43.403678024187684" lon="-6.032720999792218">
        <ele>45.799999999999997</ele>
        <time>2025-04-29T13:25:44Z</time>
      </trkpt>
      <trkpt lat="43.403692021965981" lon="-6.032987963408232">
        <ele>45.32</ele>
        <time>2025-04-29T13:25:45Z</time>
      </trkpt>
      <trkpt lat="43.403737032786012" lon="-6.033252999186516">
        <ele>44.840000000000003</ele>
        <time>2025-04-29T13:25:46Z</time>
      </trkpt>
      <trkpt lat="43.403783971443772" lon="-6.033523986116052">
        <ele>44.840000000000003</ele>
        <time>2025-04-29T13:25:47Z</time>
      </trkpt>
      <trkpt lat="43.403839962556958" lon="-6.033792039379478">
        <ele>44.840000000000003</ele>
        <time>2025-04-29T13:25:48Z</time>
      </trkpt>
      <trkpt lat="43.403893020004034" lon="-6.034047016873956">
        <ele>44.840000000000003</ele>
        <time>2025-04-29T13:25:49Z</time>
      </trkpt>
      <trkpt lat="43.403881033882499" lon="-6.034285984933376">
        <ele>44.840000000000003</ele>
        <time>2025-04-29T13:25:50Z</time>
      </trkpt>
      <trkpt lat="43.403865024447441" lon="-6.034537022933364">
        <ele>45.32</ele>
        <time>2025-04-29T13:25:51Z</time>
      </trkpt>
      <trkpt lat="43.403828982263803" lon="-6.035016970708966">
        <ele>46.280000000000001</ele>
        <time>2025-04-29T13:25:53Z</time>
      </trkpt>
      <trkpt lat="43.403871981427073" lon="-6.03631298057735">
        <ele>48.200000000000003</ele>
        <time>2025-04-29T13:26:00Z</time>
      </trkpt>
      <trkpt lat="43.403929984197021" lon="-6.036624033004046">
        <ele>49.159999999999997</ele>
        <time>2025-04-29T13:26:02Z</time>
      </trkpt>
      <trkpt lat="43.403966026380658" lon="-6.036773985251784">
        <ele>49.649999999999999</ele>
        <time>2025-04-29T13:26:03Z</time>
      </trkpt>
      <trkpt lat="43.404025034978986" lon="-6.036921003833413">
        <ele>49.649999999999999</ele>
        <time>2025-04-29T13:26:04Z</time>
      </trkpt>
      <trkpt lat="43.404145985841751" lon="-6.037223003804684">
        <ele>50.609999999999999</ele>
        <time>2025-04-29T13:26:06Z</time>
      </trkpt>
      <trkpt lat="43.404182028025389" lon="-6.037397012114525">
        <ele>50.609999999999999</ele>
        <time>2025-04-29T13:26:07Z</time>
      </trkpt>
      <trkpt lat="43.404188985005021" lon="-6.037577977403998">
        <ele>51.090000000000003</ele>
        <time>2025-04-29T13:26:08Z</time>
      </trkpt>
      <trkpt lat="43.404174987226725" lon="-6.037759026512504">
        <ele>51.090000000000003</ele>
        <time>2025-04-29T13:26:09Z</time>
      </trkpt>
      <trkpt lat="43.404151014983654" lon="-6.037940997630358">
        <ele>51.090000000000003</ele>
        <time>2025-04-29T13:26:10Z</time>
      </trkpt>
      <trkpt lat="43.40403500944376" lon="-6.039530960842967">
        <ele>51.57</ele>
        <time>2025-04-29T13:26:19Z</time>
      </trkpt>
      <trkpt lat="43.403999973088503" lon="-6.040765028446913">
        <ele>50.130000000000003</ele>
        <time>2025-04-29T13:26:27Z</time>
      </trkpt>
      <trkpt lat="43.403985975310206" lon="-6.040880028158426">
        <ele>49.649999999999999</ele>
        <time>2025-04-29T13:26:28Z</time>
      </trkpt>
      <trkpt lat="43.404007013887167" lon="-6.041020005941391">
        <ele>49.649999999999999</ele>
        <time>2025-04-29T13:26:29Z</time>
      </trkpt>
      <trkpt lat="43.404022017493844" lon="-6.041113967075944">
        <ele>49.159999999999997</ele>
        <time>2025-04-29T13:26:30Z</time>
      </trkpt>
      <trkpt lat="43.404022017493844" lon="-6.041252017021179">
        <ele>48.68</ele>
        <time>2025-04-29T13:26:31Z</time>
      </trkpt>
      <trkpt lat="43.404022017493844" lon="-6.041408004239202">
        <ele>48.200000000000003</ele>
        <time>2025-04-29T13:26:32Z</time>
      </trkpt>
      <trkpt lat="43.403993016108871" lon="-6.041560973972082">
        <ele>48.200000000000003</ele>
        <time>2025-04-29T13:26:33Z</time>
      </trkpt>
      <trkpt lat="43.403956973925233" lon="-6.041750991716981">
        <ele>47.719999999999999</ele>
        <time>2025-04-29T13:26:34Z</time>
      </trkpt>
      <trkpt lat="43.403915986418724" lon="-6.041915025562048">
        <ele>47.719999999999999</ele>
        <time>2025-04-29T13:26:35Z</time>
      </trkpt>
      <trkpt lat="43.403872987255454" lon="-6.042088028043509">
        <ele>47.240000000000002</ele>
        <time>2025-04-29T13:26:36Z</time>
      </trkpt>
      <trkpt lat="43.403850020840764" lon="-6.042259018868208">
        <ele>47.240000000000002</ele>
        <time>2025-04-29T13:26:37Z</time>
      </trkpt>
      <trkpt lat="43.403850020840764" lon="-6.042396984994412">
        <ele>46.759999999999998</ele>
        <time>2025-04-29T13:26:38Z</time>
      </trkpt>
      <trkpt lat="43.40388597920537" lon="-6.042541991919279">
        <ele>46.759999999999998</ele>
        <time>2025-04-29T13:26:39Z</time>
      </trkpt>
      <trkpt lat="43.403927972540259" lon="-6.042686998844147">
        <ele>46.280000000000001</ele>
        <time>2025-04-29T13:26:40Z</time>
      </trkpt>
      <trkpt lat="43.404052024707198" lon="-6.043012971058488">
        <ele>46.280000000000001</ele>
        <time>2025-04-29T13:26:42Z</time>
      </trkpt>
      <trkpt lat="43.40420700609684" lon="-6.043364005163312">
        <ele>45.799999999999997</ele>
        <time>2025-04-29T13:26:44Z</time>
      </trkpt>
      <trkpt lat="43.404280012473464" lon="-6.043563997372985">
        <ele>45.32</ele>
        <time>2025-04-29T13:26:45Z</time>
      </trkpt>
      <trkpt lat="43.404472041875124" lon="-6.044089961796999">
        <ele>44.840000000000003</ele>
        <time>2025-04-29T13:26:48Z</time>
      </trkpt>
      <trkpt lat="43.404499031603336" lon="-6.04430302977562">
        <ele>44.840000000000003</ele>
        <time>2025-04-29T13:26:49Z</time>
      </trkpt>
      <trkpt lat="43.404523003846407" lon="-6.044494975358248">
        <ele>44.840000000000003</ele>
        <time>2025-04-29T13:26:50Z</time>
      </trkpt>
      <trkpt lat="43.404547981917858" lon="-6.044692033901811">
        <ele>44.359999999999999</ele>
        <time>2025-04-29T13:26:51Z</time>
      </trkpt>
      <trkpt lat="43.404572959989309" lon="-6.044894959777594">
        <ele>44.359999999999999</ele>
        <time>2025-04-29T13:26:52Z</time>
      </trkpt>
      <trkpt lat="43.404599027708173" lon="-6.04510098695755">
        <ele>44.359999999999999</ele>
        <time>2025-04-29T13:26:53Z</time>
      </trkpt>
      <trkpt lat="43.404684020206332" lon="-6.045309025794268">
        <ele>44.359999999999999</ele>
        <time>2025-04-29T13:26:54Z</time>
      </trkpt>
      <trkpt lat="43.404769012704492" lon="-6.045503988862038">
        <ele>44.840000000000003</ele>
        <time>2025-04-29T13:26:55Z</time>
      </trkpt>
      <trkpt lat="43.404855011031032" lon="-6.04570004157722">
        <ele>45.32</ele>
        <time>2025-04-29T13:26:56Z</time>
      </trkpt>
      <trkpt lat="43.405199004337192" lon="-6.046856995671988">
        <ele>49.159999999999997</ele>
        <time>2025-04-29T13:27:02Z</time>
      </trkpt>
      <trkpt lat="43.40519598685205" lon="-6.047022035345435">
        <ele>50.130000000000003</ele>
        <time>2025-04-29T13:27:03Z</time>
      </trkpt>
      <trkpt lat="43.405190035700798" lon="-6.047192020341754">
        <ele>50.609999999999999</ele>
        <time>2025-04-29T13:27:04Z</time>
      </trkpt>
      <trkpt lat="43.405179977416992" lon="-6.047437023371458">
        <ele>51.57</ele>
        <time>2025-04-29T13:27:06Z</time>
      </trkpt>
      <trkpt lat="43.405288020148873" lon="-6.047581024467945">
        <ele>52.049999999999997</ele>
        <time>2025-04-29T13:27:07Z</time>
      </trkpt>
      <trkpt lat="43.405380975455046" lon="-6.047673979774118">
        <ele>53.009999999999998</ele>
        <time>2025-04-29T13:27:08Z</time>
      </trkpt>
      <trkpt lat="43.40549798682332" lon="-6.047779005020857">
        <ele>53.969999999999999</ele>
        <time>2025-04-29T13:27:09Z</time>
      </trkpt>
      <trkpt lat="43.405637964606285" lon="-6.047838013619185">
        <ele>54.450000000000003</ele>
        <time>2025-04-29T13:27:10Z</time>
      </trkpt>
      <trkpt lat="43.405781965702772" lon="-6.047885036095977">
        <ele>55.409999999999997</ele>
        <time>2025-04-29T13:27:11Z</time>
      </trkpt>
      <trkpt lat="43.40590501204133" lon="-6.047924011945725">
        <ele>56.369999999999997</ele>
        <time>2025-04-29T13:27:12Z</time>
      </trkpt>
      <trkpt lat="43.406002996489406" lon="-6.047955024987459">
        <ele>57.82</ele>
        <time>2025-04-29T13:27:13Z</time>
      </trkpt>
      <trkpt lat="43.406093018129468" lon="-6.048029959201813">
        <ele>58.780000000000001</ele>
        <time>2025-04-29T13:27:14Z</time>
      </trkpt>
      <trkpt lat="43.406153032556176" lon="-6.048159040510654">
        <ele>60.700000000000003</ele>
        <time>2025-04-29T13:27:15Z</time>
      </trkpt>
      <trkpt lat="43.406209023669362" lon="-6.048416029661894">
        <ele>63.100000000000001</ele>
        <time>2025-04-29T13:27:17Z</time>
      </trkpt>
      <trkpt lat="43.406240036711097" lon="-6.048534968867898">
        <ele>64.549999999999997</ele>
        <time>2025-04-29T13:27:18Z</time>
      </trkpt>
      <trkpt lat="43.406269960105419" lon="-6.048652986064553">
        <ele>65.989999999999995</ele>
        <time>2025-04-29T13:27:19Z</time>
      </trkpt>
      <trkpt lat="43.406303990632296" lon="-6.048782989382744">
        <ele>67.430000000000007</ele>
        <time>2025-04-29T13:27:20Z</time>
      </trkpt>
      <trkpt lat="43.406339026987553" lon="-6.048918021842837">
        <ele>68.870000000000005</ele>
        <time>2025-04-29T13:27:21Z</time>
      </trkpt>
      <trkpt lat="43.406389988958836" lon="-6.049017012119293">
        <ele>69.829999999999998</ele>
        <time>2025-04-29T13:27:22Z</time>
      </trkpt>
      <trkpt lat="43.406450003385544" lon="-6.049132011830807">
        <ele>71.269999999999996</ele>
        <time>2025-04-29T13:27:23Z</time>
      </trkpt>
      <trkpt lat="43.406810006126761" lon="-6.049703992903233">
        <ele>76.560000000000002</ele>
        <time>2025-04-29T13:27:28Z</time>
      </trkpt>
      <trkpt lat="43.40689399279654" lon="-6.04978596791625">
        <ele>77.519999999999996</ele>
        <time>2025-04-29T13:27:29Z</time>
      </trkpt>
      <trkpt lat="43.407004969194531" lon="-6.049844976514578">
        <ele>78.480000000000004</ele>
        <time>2025-04-29T13:27:30Z</time>
      </trkpt>
      <trkpt lat="43.407118041068316" lon="-6.049903985112906">
        <ele>79.930000000000007</ele>
        <time>2025-04-29T13:27:31Z</time>
      </trkpt>
      <trkpt lat="43.407243015244603" lon="-6.049972968176007">
        <ele>80.890000000000001</ele>
        <time>2025-04-29T13:27:32Z</time>
      </trkpt>
      <trkpt lat="43.407328007742763" lon="-6.050100037828088">
        <ele>82.329999999999998</ele>
        <time>2025-04-29T13:27:33Z</time>
      </trkpt>
      <trkpt lat="43.407533029094338" lon="-6.050488958135247">
        <ele>85.689999999999998</ele>
        <time>2025-04-29T13:27:36Z</time>
      </trkpt>
      <trkpt lat="43.40760100632906" lon="-6.050671013072133">
        <ele>86.659999999999997</ele>
        <time>2025-04-29T13:27:37Z</time>
      </trkpt>
      <trkpt lat="43.407587008550763" lon="-6.050813002511859">
        <ele>88.099999999999994</ele>
        <time>2025-04-29T13:27:38Z</time>
      </trkpt>
      <trkpt lat="43.407569993287325" lon="-6.050969995558262">
        <ele>89.060000000000002</ele>
        <time>2025-04-29T13:27:39Z</time>
      </trkpt>
      <trkpt lat="43.407553983852267" lon="-6.051127994433045">
        <ele>90.019999999999996</ele>
        <time>2025-04-29T13:27:40Z</time>
      </trkpt>
      <trkpt lat="43.407540991902351" lon="-6.051256991922855">
        <ele>91.459999999999994</ele>
        <time>2025-04-29T13:27:41Z</time>
      </trkpt>
      <trkpt lat="43.407554989680648" lon="-6.051413984969258">
        <ele>92.420000000000002</ele>
        <time>2025-04-29T13:27:42Z</time>
      </trkpt>
      <trkpt lat="43.407584996894002" lon="-6.051530996337533">
        <ele>93.870000000000005</ele>
        <time>2025-04-29T13:27:43Z</time>
      </trkpt>
      <trkpt lat="43.407654985785484" lon="-6.051648007705808">
        <ele>94.349999999999994</ele>
        <time>2025-04-29T13:27:44Z</time>
      </trkpt>
      <trkpt lat="43.407727992162108" lon="-6.051768958568573">
        <ele>95.790000000000006</ele>
        <time>2025-04-29T13:27:45Z</time>
      </trkpt>
      <trkpt lat="43.408083971589804" lon="-6.052284026518464">
        <ele>100.59999999999999</ele>
        <time>2025-04-29T13:27:49Z</time>
      </trkpt>
      <trkpt lat="43.408196037635207" lon="-6.052381005138159">
        <ele>101.56</ele>
        <time>2025-04-29T13:27:50Z</time>
      </trkpt>
      <trkpt lat="43.408713033422828" lon="-6.052818959578872">
        <ele>106.36</ele>
        <time>2025-04-29T13:27:55Z</time>
      </trkpt>
      <trkpt lat="43.408829960972071" lon="-6.052873022854328">
        <ele>106.84</ele>
        <time>2025-04-29T13:27:56Z</time>
      </trkpt>
      <trkpt lat="43.409174038097262" lon="-6.053021969273686">
        <ele>108.77</ele>
        <time>2025-04-29T13:27:59Z</time>
      </trkpt>
      <trkpt lat="43.40927897952497" lon="-6.05309103615582">
        <ele>109.73</ele>
        <time>2025-04-29T13:28:00Z</time>
      </trkpt>
      <trkpt lat="43.409363972023129" lon="-6.053221961483359">
        <ele>110.20999999999999</ele>
        <time>2025-04-29T13:28:01Z</time>
      </trkpt>
      <trkpt lat="43.410080960020423" lon="-6.054263999685645">
        <ele>113.09</ele>
        <time>2025-04-29T13:28:09Z</time>
      </trkpt>
      <trkpt lat="43.410189002752304" lon="-6.054366007447243">
        <ele>112.61</ele>
        <time>2025-04-29T13:28:10Z</time>
      </trkpt>
      <trkpt lat="43.410305008292198" lon="-6.054474972188473">
        <ele>112.13</ele>
        <time>2025-04-29T13:28:11Z</time>
      </trkpt>
      <trkpt lat="43.410399975255132" lon="-6.054598018527031">
        <ele>111.65000000000001</ele>
        <time>2025-04-29T13:28:12Z</time>
      </trkpt>
      <trkpt lat="43.410477004945278" lon="-6.054772026836872">
        <ele>111.17</ele>
        <time>2025-04-29T13:28:13Z</time>
      </trkpt>
      <trkpt lat="43.410558979958296" lon="-6.054952992126346">
        <ele>111.17</ele>
        <time>2025-04-29T13:28:14Z</time>
      </trkpt>
      <trkpt lat="43.411047980189323" lon="-6.05633600614965">
        <ele>107.31999999999999</ele>
        <time>2025-04-29T13:28:21Z</time>
      </trkpt>
      <trkpt lat="43.411216037347913" lon="-6.056903963908553">
        <ele>105.88</ele>
        <time>2025-04-29T13:28:24Z</time>
      </trkpt>
      <trkpt lat="43.411292983219028" lon="-6.057048970833421">
        <ele>105.40000000000001</ele>
        <time>2025-04-29T13:28:25Z</time>
      </trkpt>
      <trkpt lat="43.41140303760767" lon="-6.057144021615386">
        <ele>104.92</ele>
        <time>2025-04-29T13:28:26Z</time>
      </trkpt>
      <trkpt lat="43.411531029269099" lon="-6.057220967486501">
        <ele>104.92</ele>
        <time>2025-04-29T13:28:27Z</time>
      </trkpt>
      <trkpt lat="43.411668995395303" lon="-6.057304032146931">
        <ele>104.92</ele>
        <time>2025-04-29T13:28:28Z</time>
      </trkpt>
      <trkpt lat="43.412947990000248" lon="-6.057968968525529">
        <ele>101.08</ele>
        <time>2025-04-29T13:28:36Z</time>
      </trkpt>
      <trkpt lat="43.413112023845315" lon="-6.058041974902153">
        <ele>100.11</ele>
        <time>2025-04-29T13:28:37Z</time>
      </trkpt>
      <trkpt lat="43.414553962647915" lon="-6.058226963505149">
        <ele>93.390000000000001</ele>
        <time>2025-04-29T13:28:45Z</time>
      </trkpt>
      <trkpt lat="43.414737023413181" lon="-6.058238027617335">
        <ele>92.420000000000002</ele>
        <time>2025-04-29T13:28:46Z</time>
      </trkpt>
      <trkpt lat="43.414916982874274" lon="-6.058287983760238">
        <ele>91.459999999999994</ele>
        <time>2025-04-29T13:28:47Z</time>
      </trkpt>
      <trkpt lat="43.415816025808454" lon="-6.058556959033012">
        <ele>87.620000000000005</ele>
        <time>2025-04-29T13:28:52Z</time>
      </trkpt>
      <trkpt lat="43.415963966399431" lon="-6.058669025078416">
        <ele>87.140000000000001</ele>
        <time>2025-04-29T13:28:53Z</time>
      </trkpt>
      <trkpt lat="43.416382977738976" lon="-6.059048976749182">
        <ele>85.209999999999994</ele>
        <time>2025-04-29T13:28:56Z</time>
      </trkpt>
      <trkpt lat="43.416536031290889" lon="-6.059132041409612">
        <ele>84.730000000000004</ele>
        <time>2025-04-29T13:28:57Z</time>
      </trkpt>
      <trkpt lat="43.416811041533947" lon="-6.059281993657351">
        <ele>84.25</ele>
        <time>2025-04-29T13:28:59Z</time>
      </trkpt>
      <trkpt lat="43.417014973238111" lon="-6.059319963678718">
        <ele>84.25</ele>
        <time>2025-04-29T13:29:00Z</time>
      </trkpt>
      <trkpt lat="43.417179007083178" lon="-6.059349970892072">
        <ele>84.730000000000004</ele>
        <time>2025-04-29T13:29:01Z</time>
      </trkpt>
      <trkpt lat="43.417389979586005" lon="-6.059389030560851">
        <ele>84.730000000000004</ele>
        <time>2025-04-29T13:29:02Z</time>
      </trkpt>
      <trkpt lat="43.417487964034081" lon="-6.059377966448665">
        <ele>84.25</ele>
        <time>2025-04-29T13:29:03Z</time>
      </trkpt>
      <trkpt lat="43.418369991704822" lon="-6.059198006987572">
        <ele>82.329999999999998</ele>
        <time>2025-04-29T13:29:09Z</time>
      </trkpt>
      <trkpt lat="43.419592995196581" lon="-6.058749994263053">
        <ele>78.480000000000004</ele>
        <time>2025-04-29T13:29:18Z</time>
      </trkpt>
      <trkpt lat="43.419699026271701" lon="-6.058684028685093">
        <ele>78</ele>
        <time>2025-04-29T13:29:19Z</time>
      </trkpt>
      <trkpt lat="43.419776977971196" lon="-6.058596018701792">
        <ele>78</ele>
        <time>2025-04-29T13:29:20Z</time>
      </trkpt>
      <trkpt lat="43.419794999063015" lon="-6.058465009555221">
        <ele>78</ele>
        <time>2025-04-29T13:29:21Z</time>
      </trkpt>
      <trkpt lat="43.419814025983214" lon="-6.058324025943875">
        <ele>77.519999999999996</ele>
        <time>2025-04-29T13:29:22Z</time>
      </trkpt>
      <trkpt lat="43.419833974912763" lon="-6.058172984048724">
        <ele>77.519999999999996</ele>
        <time>2025-04-29T13:29:23Z</time>
      </trkpt>
      <trkpt lat="43.419858030974865" lon="-6.057994030416012">
        <ele>77.519999999999996</ele>
        <time>2025-04-29T13:29:24Z</time>
      </trkpt>
      <trkpt lat="43.419906981289387" lon="-6.05786201544106">
        <ele>77.040000000000006</ele>
        <time>2025-04-29T13:29:25Z</time>
      </trkpt>
      <trkpt lat="43.41999901458621" lon="-6.05773201212287">
        <ele>77.040000000000006</ele>
        <time>2025-04-29T13:29:26Z</time>
      </trkpt>
      <trkpt lat="43.420103034004569" lon="-6.057607959955931">
        <ele>76.560000000000002</ele>
        <time>2025-04-29T13:29:27Z</time>
      </trkpt>
      <trkpt lat="43.420219039544463" lon="-6.057494971901178">
        <ele>76.079999999999998</ele>
        <time>2025-04-29T13:29:28Z</time>
      </trkpt>
      <trkpt lat="43.420352982357144" lon="-6.05738801881671">
        <ele>75.599999999999994</ele>
        <time>2025-04-29T13:29:29Z</time>
      </trkpt>
      <trkpt lat="43.420492960140109" lon="-6.057276958599687">
        <ele>75.599999999999994</ele>
        <time>2025-04-29T13:29:30Z</time>
      </trkpt>
      <trkpt lat="43.421452017500997" lon="-6.056575980037451">
        <ele>71.760000000000005</ele>
        <time>2025-04-29T13:29:37Z</time>
      </trkpt>
      <trkpt lat="43.421563999727368" lon="-6.056471038609743">
        <ele>71.269999999999996</ele>
        <time>2025-04-29T13:29:38Z</time>
      </trkpt>
      <trkpt lat="43.421670030802488" lon="-6.056370036676526">
        <ele>70.790000000000006</ele>
        <time>2025-04-29T13:29:39Z</time>
      </trkpt>
      <trkpt lat="43.421767009422183" lon="-6.056278003379703">
        <ele>70.310000000000002</ele>
        <time>2025-04-29T13:29:40Z</time>
      </trkpt>
      <trkpt lat="43.421887960284948" lon="-6.056238021701574">
        <ele>70.310000000000002</ele>
        <time>2025-04-29T13:29:41Z</time>
      </trkpt>
      <trkpt lat="43.422010000795126" lon="-6.056197034195066">
        <ele>69.829999999999998</ele>
        <time>2025-04-29T13:29:42Z</time>
      </trkpt>
      <trkpt lat="43.422141009941697" lon="-6.056153029203415">
        <ele>69.349999999999994</ele>
        <time>2025-04-29T13:29:43Z</time>
      </trkpt>
      <trkpt lat="43.422546023502946" lon="-6.056017996743321">
        <ele>68.870000000000005</ele>
        <time>2025-04-29T13:29:46Z</time>
      </trkpt>
      <trkpt lat="43.422667980194092" lon="-6.055977009236813">
        <ele>68.390000000000001</ele>
        <time>2025-04-29T13:29:47Z</time>
      </trkpt>
      <trkpt lat="43.422758001834154" lon="-6.055848011747003">
        <ele>67.430000000000007</ele>
        <time>2025-04-29T13:29:48Z</time>
      </trkpt>
      <trkpt lat="43.422852968797088" lon="-6.055711973458529">
        <ele>66.950000000000003</ele>
        <time>2025-04-29T13:29:49Z</time>
      </trkpt>
      <trkpt lat="43.422954976558685" lon="-6.055564032867551">
        <ele>66.469999999999999</ele>
        <time>2025-04-29T13:29:50Z</time>
      </trkpt>
      <trkpt lat="43.423064025118947" lon="-6.055411985144019">
        <ele>65.989999999999995</ele>
        <time>2025-04-29T13:29:51Z</time>
      </trkpt>
      <trkpt lat="43.423207020387053" lon="-6.055303020402789">
        <ele>65.510000000000005</ele>
        <time>2025-04-29T13:29:52Z</time>
      </trkpt>
      <trkpt lat="43.423360995948315" lon="-6.055189026519656">
        <ele>65.030000000000001</ele>
        <time>2025-04-29T13:29:53Z</time>
      </trkpt>
      <trkpt lat="43.425028994679451" lon="-6.054213037714362">
        <ele>59.740000000000002</ele>
        <time>2025-04-29T13:30:02Z</time>
      </trkpt>
      <trkpt lat="43.426416032016277" lon="-6.053184997290373">
        <ele>57.340000000000003</ele>
        <time>2025-04-29T13:30:10Z</time>
      </trkpt>
      <trkpt lat="43.42655198648572" lon="-6.053059017285705">
        <ele>57.340000000000003</ele>
        <time>2025-04-29T13:30:11Z</time>
      </trkpt>
      <trkpt lat="43.426749967038631" lon="-6.052975030615926">
        <ele>56.369999999999997</ele>
        <time>2025-04-29T13:30:12Z</time>
      </trkpt>
      <trkpt lat="43.426935961470008" lon="-6.052895989269018">
        <ele>55.890000000000001</ele>
        <time>2025-04-29T13:30:13Z</time>
      </trkpt>
      <trkpt lat="43.42713201418519" lon="-6.05281300842762">
        <ele>54.93</ele>
        <time>2025-04-29T13:30:14Z</time>
      </trkpt>
      <trkpt lat="43.427329994738102" lon="-6.052720975130796">
        <ele>53.969999999999999</ele>
        <time>2025-04-29T13:30:15Z</time>
      </trkpt>
      <trkpt lat="43.427515989169478" lon="-6.052617961540818">
        <ele>53.009999999999998</ele>
        <time>2025-04-29T13:30:16Z</time>
      </trkpt>
      <trkpt lat="43.428472029045224" lon="-6.052002981305122">
        <ele>48.200000000000003</ele>
        <time>2025-04-29T13:30:22Z</time>
      </trkpt>
      <trkpt lat="43.428615024313331" lon="-6.051990995183587">
        <ele>47.240000000000002</ele>
        <time>2025-04-29T13:30:23Z</time>
      </trkpt>
      <trkpt lat="43.428768999874592" lon="-6.052007004618645">
        <ele>46.759999999999998</ele>
        <time>2025-04-29T13:30:24Z</time>
      </trkpt>
      <trkpt lat="43.429899970069528" lon="-6.052188975736499">
        <ele>41.950000000000003</ele>
        <time>2025-04-29T13:30:32Z</time>
      </trkpt>
      <trkpt lat="43.430265001952648" lon="-6.052247984334827">
        <ele>40.990000000000002</ele>
        <time>2025-04-29T13:30:35Z</time>
      </trkpt>
      <trkpt lat="43.430411014705896" lon="-6.052248990163207">
        <ele>40.990000000000002</ele>
        <time>2025-04-29T13:30:36Z</time>
      </trkpt>
      <trkpt lat="43.430521991103888" lon="-6.052200961858034">
        <ele>40.509999999999998</ele>
        <time>2025-04-29T13:30:37Z</time>
      </trkpt>
      <trkpt lat="43.430621987208724" lon="-6.052112029865384">
        <ele>40.509999999999998</ele>
        <time>2025-04-29T13:30:38Z</time>
      </trkpt>
      <trkpt lat="43.430709997192025" lon="-6.052033994346857">
        <ele>40.030000000000001</ele>
        <time>2025-04-29T13:30:39Z</time>
      </trkpt>
      <trkpt lat="43.430820973590016" lon="-6.052007004618645">
        <ele>39.549999999999997</ele>
        <time>2025-04-29T13:30:40Z</time>
      </trkpt>
      <trkpt lat="43.430922981351614" lon="-6.051984960213304">
        <ele>39.549999999999997</ele>
        <time>2025-04-29T13:30:41Z</time>
      </trkpt>
      <trkpt lat="43.431020965799689" lon="-6.051966017112136">
        <ele>39.549999999999997</ele>
        <time>2025-04-29T13:30:42Z</time>
      </trkpt>
      <trkpt lat="43.431295976042747" lon="-6.052044974640012">
        <ele>40.030000000000001</ele>
        <time>2025-04-29T13:30:45Z</time>
      </trkpt>
      <trkpt lat="43.431377029046416" lon="-6.052102977409959">
        <ele>40.509999999999998</ele>
        <time>2025-04-29T13:30:46Z</time>
      </trkpt>
      <trkpt lat="43.431453974917531" lon="-6.052169026806951">
        <ele>40.990000000000002</ele>
        <time>2025-04-29T13:30:47Z</time>
      </trkpt>
      <trkpt lat="43.431502003222704" lon="-6.052284026518464">
        <ele>40.990000000000002</ele>
        <time>2025-04-29T13:30:48Z</time>
      </trkpt>
      <trkpt lat="43.431546008214355" lon="-6.052414029836655">
        <ele>40.509999999999998</ele>
        <time>2025-04-29T13:30:49Z</time>
      </trkpt>
      <trkpt lat="43.431593030691147" lon="-6.052551995962858">
        <ele>40.990000000000002</ele>
        <time>2025-04-29T13:30:50Z</time>
      </trkpt>
      <trkpt lat="43.432081025093794" lon="-6.054094014689326">
        <ele>40.030000000000001</ele>
        <time>2025-04-29T13:30:59Z</time>
      </trkpt>
      <trkpt lat="43.432255033403635" lon="-6.054693991318345">
        <ele>39.07</ele>
        <time>2025-04-29T13:31:02Z</time>
      </trkpt>
      <trkpt lat="43.432253021746874" lon="-6.054902030155063">
        <ele>39.549999999999997</ele>
        <time>2025-04-29T13:31:03Z</time>
      </trkpt>
      <trkpt lat="43.432243969291449" lon="-6.055116020143032">
        <ele>39.07</ele>
        <time>2025-04-29T13:31:04Z</time>
      </trkpt>
      <trkpt lat="43.432221002876759" lon="-6.05532699264586">
        <ele>39.07</ele>
        <time>2025-04-29T13:31:05Z</time>
      </trkpt>
      <trkpt lat="43.432173980399966" lon="-6.055540982633829">
        <ele>38.590000000000003</ele>
        <time>2025-04-29T13:31:06Z</time>
      </trkpt>
      <trkpt lat="43.432046994566917" lon="-6.056211031973362">
        <ele>37.630000000000003</ele>
        <time>2025-04-29T13:31:09Z</time>
      </trkpt>
      <trkpt lat="43.432024028152227" lon="-6.056443965062499">
        <ele>38.109999999999999</ele>
        <time>2025-04-29T13:31:10Z</time>
      </trkpt>
      <trkpt lat="43.431907016783953" lon="-6.057792026549578">
        <ele>37.630000000000003</ele>
        <time>2025-04-29T13:31:17Z</time>
      </trkpt>
      <trkpt lat="43.431873992085457" lon="-6.058225035667419">
        <ele>36.670000000000002</ele>
        <time>2025-04-29T13:31:21Z</time>
      </trkpt>
      <trkpt lat="43.431844990700483" lon="-6.058373982086778">
        <ele>35.710000000000001</ele>
        <time>2025-04-29T13:31:24Z</time>
      </trkpt>
      <trkpt lat="43.431802997365594" lon="-6.058365013450384">
        <ele>35.229999999999997</ele>
        <time>2025-04-29T13:31:25Z</time>
      </trkpt>
      <trkpt lat="43.431737031787634" lon="-6.058350009843707">
        <ele>35.229999999999997</ele>
        <time>2025-04-29T13:31:26Z</time>
      </trkpt>
      <trkpt lat="43.430929016321898" lon="-6.058315979316831">
        <ele>34.259999999999998</ele>
        <time>2025-04-29T13:31:34Z</time>
      </trkpt>
      <trkpt lat="43.430704968050122" lon="-6.058256970718503">
        <ele>35.229999999999997</ele>
        <time>2025-04-29T13:31:36Z</time>
      </trkpt>
      <trkpt lat="43.430604971945286" lon="-6.058174995705485">
        <ele>35.710000000000001</ele>
        <time>2025-04-29T13:31:37Z</time>
      </trkpt>
      <trkpt lat="43.430508999153972" lon="-6.058059995993972">
        <ele>36.189999999999998</ele>
        <time>2025-04-29T13:31:38Z</time>
      </trkpt>
      <trkpt lat="43.430410008877516" lon="-6.057941978797317">
        <ele>36.670000000000002</ele>
        <time>2025-04-29T13:31:39Z</time>
      </trkpt>
      <trkpt lat="43.430329039692879" lon="-6.057843994349241">
        <ele>37.630000000000003</ele>
        <time>2025-04-29T13:31:40Z</time>
      </trkpt>
      <trkpt lat="43.430236000567675" lon="-6.057778028771281">
        <ele>38.590000000000003</ele>
        <time>2025-04-29T13:31:41Z</time>
      </trkpt>
      <trkpt lat="43.430143967270851" lon="-6.057735029608011">
        <ele>39.549999999999997</ele>
        <time>2025-04-29T13:31:42Z</time>
      </trkpt>
      <trkpt lat="43.430021004751325" lon="-6.057730000466108">
        <ele>40.509999999999998</ele>
        <time>2025-04-29T13:31:43Z</time>
      </trkpt>
      <trkpt lat="43.429893013089895" lon="-6.057722959667444">
        <ele>40.990000000000002</ele>
        <time>2025-04-29T13:31:44Z</time>
      </trkpt>
      <trkpt lat="43.429768038913608" lon="-6.057718014344573">
        <ele>41.950000000000003</ele>
        <time>2025-04-29T13:31:45Z</time>
      </trkpt>
      <trkpt lat="43.429647004231811" lon="-6.057743998244405">
        <ele>42.439999999999998</ele>
        <time>2025-04-29T13:31:46Z</time>
      </trkpt>
      <trkpt lat="43.429506020620465" lon="-6.057794038206339">
        <ele>43.399999999999999</ele>
        <time>2025-04-29T13:31:47Z</time>
      </trkpt>
      <trkpt lat="43.429363025352359" lon="-6.057843994349241">
        <ele>43.880000000000003</ele>
        <time>2025-04-29T13:31:48Z</time>
      </trkpt>
      <trkpt lat="43.429240984842181" lon="-6.057924963533878">
        <ele>44.359999999999999</ele>
        <time>2025-04-29T13:31:49Z</time>
      </trkpt>
      <trkpt lat="43.428994975984097" lon="-6.058105006814003">
        <ele>45.799999999999997</ele>
        <time>2025-04-29T13:31:51Z</time>
      </trkpt>
      <trkpt lat="43.428505975753069" lon="-6.058594007045031">
        <ele>49.159999999999997</ele>
        <time>2025-04-29T13:31:56Z</time>
      </trkpt>
      <trkpt lat="43.428398016840219" lon="-6.058853007853031">
        <ele>50.130000000000003</ele>
        <time>2025-04-29T13:31:57Z</time>
      </trkpt>
      <trkpt lat="43.428393993526697" lon="-6.058881003409624">
        <ele>50.609999999999999</ele>
        <time>2025-04-29T13:31:58Z</time>
      </trkpt>
      <trkpt lat="43.428375972434878" lon="-6.059023998677731">
        <ele>51.090000000000003</ele>
        <time>2025-04-29T13:31:59Z</time>
      </trkpt>
      <trkpt lat="43.428299026563764" lon="-6.059088036417961">
        <ele>51.57</ele>
        <time>2025-04-29T13:32:00Z</time>
      </trkpt>
      <trkpt lat="43.428192995488644" lon="-6.059084013104439">
        <ele>52.049999999999997</ele>
        <time>2025-04-29T13:32:01Z</time>
      </trkpt>
      <trkpt lat="43.42807698994875" lon="-6.059078983962536">
        <ele>52.530000000000001</ele>
        <time>2025-04-29T13:32:02Z</time>
      </trkpt>
      <trkpt lat="43.427962996065617" lon="-6.059074038639665">
        <ele>52.530000000000001</ele>
        <time>2025-04-29T13:32:03Z</time>
      </trkpt>
      <trkpt lat="43.427817989140749" lon="-6.059066997841001">
        <ele>53.490000000000002</ele>
        <time>2025-04-29T13:32:04Z</time>
      </trkpt>
      <trkpt lat="43.427741965278983" lon="-6.059099016711116">
        <ele>54.450000000000003</ele>
        <time>2025-04-29T13:32:05Z</time>
      </trkpt>
      <trkpt lat="43.42751900665462" lon="-6.059191972017288">
        <ele>55.890000000000001</ele>
        <time>2025-04-29T13:32:07Z</time>
      </trkpt>
      <trkpt lat="43.427413981407881" lon="-6.059235977008939">
        <ele>56.859999999999999</ele>
        <time>2025-04-29T13:32:08Z</time>
      </trkpt>
      <trkpt lat="43.42730300500989" lon="-6.059281993657351">
        <ele>57.82</ele>
        <time>2025-04-29T13:32:09Z</time>
      </trkpt>
      <trkpt lat="43.42721801251173" lon="-6.059367991983891">
        <ele>58.299999999999997</ele>
        <time>2025-04-29T13:32:10Z</time>
      </trkpt>
      <trkpt lat="43.427159003913403" lon="-6.059510987251997">
        <ele>59.740000000000002</ele>
        <time>2025-04-29T13:32:11Z</time>
      </trkpt>
      <trkpt lat="43.427118016406894" lon="-6.059649037197232">
        <ele>60.700000000000003</ele>
        <time>2025-04-29T13:32:12Z</time>
      </trkpt>
      <trkpt lat="43.427075017243624" lon="-6.059792032465339">
        <ele>62.140000000000001</ele>
        <time>2025-04-29T13:32:13Z</time>
      </trkpt>
      <trkpt lat="43.426930010318756" lon="-6.060383962467313">
        <ele>67.430000000000007</ele>
        <time>2025-04-29T13:32:17Z</time>
      </trkpt>
      <trkpt lat="43.426936967298388" lon="-6.060551013797522">
        <ele>67.909999999999997</ele>
        <time>2025-04-29T13:32:18Z</time>
      </trkpt>
      <trkpt lat="43.426980972290039" lon="-6.060696020722389">
        <ele>68.390000000000001</ele>
        <time>2025-04-29T13:32:19Z</time>
      </trkpt>
      <trkpt lat="43.42702497728169" lon="-6.060842033475637">
        <ele>68.390000000000001</ele>
        <time>2025-04-29T13:32:20Z</time>
      </trkpt>
      <trkpt lat="43.427069988101721" lon="-6.060979999601841">
        <ele>68.870000000000005</ele>
        <time>2025-04-29T13:32:21Z</time>
      </trkpt>
      <trkpt lat="43.427119022235274" lon="-6.061114026233554">
        <ele>68.870000000000005</ele>
        <time>2025-04-29T13:32:22Z</time>
      </trkpt>
      <trkpt lat="43.42749604023993" lon="-6.062156986445189">
        <ele>67.909999999999997</ele>
        <time>2025-04-29T13:32:30Z</time>
      </trkpt>
      <trkpt lat="43.427529986947775" lon="-6.062312973663211">
        <ele>67.909999999999997</ele>
        <time>2025-04-29T13:32:31Z</time>
      </trkpt>
      <trkpt lat="43.42756099998951" lon="-6.062457980588079">
        <ele>67.909999999999997</ele>
        <time>2025-04-29T13:32:32Z</time>
      </trkpt>
      <trkpt lat="43.427533004432917" lon="-6.062585972249508">
        <ele>67.909999999999997</ele>
        <time>2025-04-29T13:32:33Z</time>
      </trkpt>
      <trkpt lat="43.427500985562801" lon="-6.06273801997304">
        <ele>67.909999999999997</ele>
        <time>2025-04-29T13:32:34Z</time>
      </trkpt>
      <trkpt lat="43.427466033026576" lon="-6.062899958342314">
        <ele>67.430000000000007</ele>
        <time>2025-04-29T13:32:35Z</time>
      </trkpt>
      <trkpt lat="43.427171995863318" lon="-6.064583966508508">
        <ele>63.100000000000001</ele>
        <time>2025-04-29T13:32:43Z</time>
      </trkpt>
      <trkpt lat="43.42713201418519" lon="-6.065532965585589">
        <ele>59.740000000000002</ele>
        <time>2025-04-29T13:32:47Z</time>
      </trkpt>
      <trkpt lat="43.42711097560823" lon="-6.065761959180236">
        <ele>59.259999999999998</ele>
        <time>2025-04-29T13:32:48Z</time>
      </trkpt>
      <trkpt lat="43.426836971193552" lon="-6.067038020119071">
        <ele>53.969999999999999</ele>
        <time>2025-04-29T13:32:54Z</time>
      </trkpt>
      <trkpt lat="43.426752984523773" lon="-6.067158970981836">
        <ele>53.490000000000002</ele>
        <time>2025-04-29T13:32:55Z</time>
      </trkpt>
      <trkpt lat="43.426673021167517" lon="-6.06727397069335">
        <ele>53.009999999999998</ele>
        <time>2025-04-29T13:32:56Z</time>
      </trkpt>
      <trkpt lat="43.426600014790893" lon="-6.067378995940089">
        <ele>52.530000000000001</ele>
        <time>2025-04-29T13:32:57Z</time>
      </trkpt>
      <trkpt lat="43.426531031727791" lon="-6.067478992044926">
        <ele>52.049999999999997</ele>
        <time>2025-04-29T13:32:58Z</time>
      </trkpt>
      <trkpt lat="43.426483003422618" lon="-6.067585023120046">
        <ele>51.57</ele>
        <time>2025-04-29T13:32:59Z</time>
      </trkpt>
      <trkpt lat="43.426464982330799" lon="-6.067716032266617">
        <ele>51.57</ele>
        <time>2025-04-29T13:33:00Z</time>
      </trkpt>
      <trkpt lat="43.426510998979211" lon="-6.067817034199834">
        <ele>51.090000000000003</ele>
        <time>2025-04-29T13:33:01Z</time>
      </trkpt>
      <trkpt lat="43.4265529923141" lon="-6.067909989506006">
        <ele>51.090000000000003</ele>
        <time>2025-04-29T13:33:02Z</time>
      </trkpt>
      <trkpt lat="43.426592973992229" lon="-6.067997999489307">
        <ele>51.090000000000003</ele>
        <time>2025-04-29T13:33:03Z</time>
      </trkpt>
      <trkpt lat="43.426660029217601" lon="-6.068144012242556">
        <ele>51.090000000000003</ele>
        <time>2025-04-29T13:33:04Z</time>
      </trkpt>
      <trkpt lat="43.426667992025614" lon="-6.06819799169898">
        <ele>51.090000000000003</ele>
        <time>2025-04-29T13:33:05Z</time>
      </trkpt>
      <trkpt lat="43.426688024774194" lon="-6.068327995017171">
        <ele>51.090000000000003</ele>
        <time>2025-04-29T13:33:06Z</time>
      </trkpt>
      <trkpt lat="43.426709985360503" lon="-6.068474007770419">
        <ele>50.609999999999999</ele>
        <time>2025-04-29T13:33:07Z</time>
      </trkpt>
      <trkpt lat="43.426930010318756" lon="-6.069927010685206">
        <ele>52.049999999999997</ele>
        <time>2025-04-29T13:33:15Z</time>
      </trkpt>
      <trkpt lat="43.427298981696367" lon="-6.071730041876435">
        <ele>50.609999999999999</ele>
        <time>2025-04-29T13:33:23Z</time>
      </trkpt>
      <trkpt lat="43.427376011386514" lon="-6.071950988844037">
        <ele>50.130000000000003</ele>
        <time>2025-04-29T13:33:24Z</time>
      </trkpt>
      <trkpt lat="43.427640963345766" lon="-6.072543002665043">
        <ele>48.200000000000003</ele>
        <time>2025-04-29T13:33:27Z</time>
      </trkpt>
      <trkpt lat="43.42773400247097" lon="-6.072723967954516">
        <ele>47.719999999999999</ele>
        <time>2025-04-29T13:33:28Z</time>
      </trkpt>
      <trkpt lat="43.42784196138382" lon="-6.072872998192906">
        <ele>47.240000000000002</ele>
        <time>2025-04-29T13:33:29Z</time>
      </trkpt>
      <trkpt lat="43.428198024630547" lon="-6.073361998423934">
        <ele>47.240000000000002</ele>
        <time>2025-04-29T13:33:32Z</time>
      </trkpt>
      <trkpt lat="43.428674032911658" lon="-6.073945965617895">
        <ele>47.240000000000002</ele>
        <time>2025-04-29T13:33:36Z</time>
      </trkpt>
      <trkpt lat="43.428961029276252" lon="-6.074248971417546">
        <ele>47.240000000000002</ele>
        <time>2025-04-29T13:33:38Z</time>
      </trkpt>
      <trkpt lat="43.429120033979416" lon="-6.074315020814538">
        <ele>47.240000000000002</ele>
        <time>2025-04-29T13:33:39Z</time>
      </trkpt>
      <trkpt lat="43.42960299924016" lon="-6.074515013024211">
        <ele>47.240000000000002</ele>
        <time>2025-04-29T13:33:42Z</time>
      </trkpt>
      <trkpt lat="43.429766027256846" lon="-6.074582990258932">
        <ele>47.240000000000002</ele>
        <time>2025-04-29T13:33:43Z</time>
      </trkpt>
      <trkpt lat="43.430517967790365" lon="-6.074504032731056">
        <ele>48.200000000000003</ele>
        <time>2025-04-29T13:33:47Z</time>
      </trkpt>
      <trkpt lat="43.430690970271826" lon="-6.07444804161787">
        <ele>48.68</ele>
        <time>2025-04-29T13:33:48Z</time>
      </trkpt>
      <trkpt lat="43.430864978581667" lon="-6.074390960857272">
        <ele>48.68</ele>
        <time>2025-04-29T13:33:49Z</time>
      </trkpt>
      <trkpt lat="43.431617002934217" lon="-6.074144029989839">
        <ele>46.280000000000001</ele>
        <time>2025-04-29T13:33:55Z</time>
      </trkpt>
      <trkpt lat="43.431732002645731" lon="-6.07410597614944">
        <ele>43.399999999999999</ele>
        <time>2025-04-29T13:34:02Z</time>
      </trkpt>
      <trkpt lat="43.431732002645731" lon="-6.07410597614944">
        <ele>42.920000000000002</ele>
        <time>2025-04-29T13:34:28Z</time>
      </trkpt>
      <trkpt lat="43.431787993758917" lon="-6.074088038876653">
        <ele>41.950000000000003</ele>
        <time>2025-04-29T13:35:08Z</time>
      </trkpt>
      <trkpt lat="43.43183702789247" lon="-6.074119973927736">
        <ele>41.469999999999999</ele>
        <time>2025-04-29T13:35:09Z</time>
      </trkpt>
      <trkpt lat="43.431986980140209" lon="-6.074219970032573">
        <ele>40.990000000000002</ele>
        <time>2025-04-29T13:35:11Z</time>
      </trkpt>
      <trkpt lat="43.432107008993626" lon="-6.074198009446263">
        <ele>40.509999999999998</ele>
        <time>2025-04-29T13:35:12Z</time>
      </trkpt>
      <trkpt lat="43.432153025642037" lon="-6.074151992797852">
        <ele>40.509999999999998</ele>
        <time>2025-04-29T13:35:13Z</time>
      </trkpt>
      <trkpt lat="43.432251010090113" lon="-6.074011009186506">
        <ele>40.509999999999998</ele>
        <time>2025-04-29T13:35:14Z</time>
      </trkpt>
      <trkpt lat="43.432348994538188" lon="-6.073902966454625">
        <ele>40.030000000000001</ele>
        <time>2025-04-29T13:35:15Z</time>
      </trkpt>
      <trkpt lat="43.43243801034987" lon="-6.073835995048285">
        <ele>40.030000000000001</ele>
        <time>2025-04-29T13:35:16Z</time>
      </trkpt>
      <trkpt lat="43.432559967041016" lon="-6.073743961751461">
        <ele>39.549999999999997</ele>
        <time>2025-04-29T13:35:17Z</time>
      </trkpt>
      <trkpt lat="43.43261000700295" lon="-6.073730969801545">
        <ele>39.549999999999997</ele>
        <time>2025-04-29T13:35:18Z</time>
      </trkpt>
      <trkpt lat="43.432683013379574" lon="-6.073710015043616">
        <ele>39.549999999999997</ele>
        <time>2025-04-29T13:35:19Z</time>
      </trkpt>
      <trkpt lat="43.432753002271056" lon="-6.073690988123417">
        <ele>39.549999999999997</ele>
        <time>2025-04-29T13:35:20Z</time>
      </trkpt>
      <trkpt lat="43.432894991710782" lon="-6.073651006445289">
        <ele>39.549999999999997</ele>
        <time>2025-04-29T13:35:22Z</time>
      </trkpt>
      <trkpt lat="43.433531010523438" lon="-6.073393011465669">
        <ele>41.950000000000003</ele>
        <time>2025-04-29T13:35:31Z</time>
      </trkpt>
      <trkpt lat="43.433828987181187" lon="-6.073369961231947">
        <ele>42.920000000000002</ele>
        <time>2025-04-29T13:35:35Z</time>
      </trkpt>
      <trkpt lat="43.433897970244288" lon="-6.073364010080695">
        <ele>42.920000000000002</ele>
        <time>2025-04-29T13:35:36Z</time>
      </trkpt>
      <trkpt lat="43.433983968570828" lon="-6.073351018130779">
        <ele>43.399999999999999</ele>
        <time>2025-04-29T13:35:37Z</time>
      </trkpt>
      <trkpt lat="43.434039959684014" lon="-6.073295027017593">
        <ele>44.359999999999999</ele>
        <time>2025-04-29T13:35:38Z</time>
      </trkpt>
      <trkpt lat="43.434089999645948" lon="-6.073244987055659">
        <ele>45.32</ele>
        <time>2025-04-29T13:35:39Z</time>
      </trkpt>
      <trkpt lat="43.434212962165475" lon="-6.073122024536133">
        <ele>47.719999999999999</ele>
        <time>2025-04-29T13:35:41Z</time>
      </trkpt>
      <trkpt lat="43.434258978813887" lon="-6.073098974302411">
        <ele>49.159999999999997</ele>
        <time>2025-04-29T13:35:42Z</time>
      </trkpt>
      <trkpt lat="43.434323016554117" lon="-6.073067039251328">
        <ele>50.130000000000003</ele>
        <time>2025-04-29T13:35:43Z</time>
      </trkpt>
      <trkpt lat="43.434397028759122" lon="-6.073029991239309">
        <ele>51.090000000000003</ele>
        <time>2025-04-29T13:35:44Z</time>
      </trkpt>
      <trkpt lat="43.434486966580153" lon="-6.072984980419278">
        <ele>52.530000000000001</ele>
        <time>2025-04-29T13:35:45Z</time>
      </trkpt>
      <trkpt lat="43.434972027316689" lon="-6.072828993201256">
        <ele>56.859999999999999</ele>
        <time>2025-04-29T13:35:49Z</time>
      </trkpt>
      <trkpt lat="43.435118040069938" lon="-6.072851959615946">
        <ele>58.299999999999997</ele>
        <time>2025-04-29T13:35:50Z</time>
      </trkpt>
      <trkpt lat="43.435392966493964" lon="-6.072928989306092">
        <ele>60.700000000000003</ele>
        <time>2025-04-29T13:35:52Z</time>
      </trkpt>
      <trkpt lat="43.435480976477265" lon="-6.072884984314442">
        <ele>62.140000000000001</ele>
        <time>2025-04-29T13:35:53Z</time>
      </trkpt>
      <trkpt lat="43.435839973390102" lon="-6.072706030681729">
        <ele>66.469999999999999</ele>
        <time>2025-04-29T13:35:56Z</time>
      </trkpt>
      <trkpt lat="43.436107020825148" lon="-6.072682980448008">
        <ele>69.829999999999998</ele>
        <time>2025-04-29T13:35:58Z</time>
      </trkpt>
      <trkpt lat="43.436236018314958" lon="-6.07270997017622">
        <ele>71.269999999999996</ele>
        <time>2025-04-29T13:35:59Z</time>
      </trkpt>
      <trkpt lat="43.436484960839152" lon="-6.072763027623296">
        <ele>74.159999999999997</ele>
        <time>2025-04-29T13:36:01Z</time>
      </trkpt>
      <trkpt lat="43.436599960550666" lon="-6.072788005694747">
        <ele>75.599999999999994</ele>
        <time>2025-04-29T13:36:02Z</time>
      </trkpt>
      <trkpt lat="43.436719989404082" lon="-6.072738971561194">
        <ele>76.560000000000002</ele>
        <time>2025-04-29T13:36:03Z</time>
      </trkpt>
      <trkpt lat="43.436817973852158" lon="-6.072640987113118">
        <ele>78</ele>
        <time>2025-04-29T13:36:04Z</time>
      </trkpt>
      <trkpt lat="43.436911012977362" lon="-6.072548031806946">
        <ele>78.969999999999999</ele>
        <time>2025-04-29T13:36:05Z</time>
      </trkpt>
      <trkpt lat="43.43701503239572" lon="-6.07249497435987">
        <ele>79.930000000000007</ele>
        <time>2025-04-29T13:36:06Z</time>
      </trkpt>
      <trkpt lat="43.437131959944963" lon="-6.072457004338503">
        <ele>80.890000000000001</ele>
        <time>2025-04-29T13:36:07Z</time>
      </trkpt>
      <trkpt lat="43.437246037647128" lon="-6.072419034317136">
        <ele>81.849999999999994</ele>
        <time>2025-04-29T13:36:08Z</time>
      </trkpt>
      <trkpt lat="43.4373580198735" lon="-6.072463039308786">
        <ele>82.810000000000002</ele>
        <time>2025-04-29T13:36:09Z</time>
      </trkpt>
      <trkpt lat="43.437473019585013" lon="-6.072520958259702">
        <ele>83.769999999999996</ele>
        <time>2025-04-29T13:36:10Z</time>
      </trkpt>
      <trkpt lat="43.437589025124907" lon="-6.072578961029649">
        <ele>84.730000000000004</ele>
        <time>2025-04-29T13:36:11Z</time>
      </trkpt>
      <trkpt lat="43.43867196701467" lon="-6.072798985987902">
        <ele>91.459999999999994</ele>
        <time>2025-04-29T13:36:20Z</time>
      </trkpt>
      <trkpt lat="43.438762994483113" lon="-6.072611985728145">
        <ele>91.939999999999998</ele>
        <time>2025-04-29T13:36:21Z</time>
      </trkpt>
      <trkpt lat="43.438868019729853" lon="-6.072536967694759">
        <ele>92.420000000000002</ele>
        <time>2025-04-29T13:36:22Z</time>
      </trkpt>
      <trkpt lat="43.438951000571251" lon="-6.0724519751966">
        <ele>92.420000000000002</ele>
        <time>2025-04-29T13:36:23Z</time>
      </trkpt>
      <trkpt lat="43.439039010554552" lon="-6.072348961606622">
        <ele>92.900000000000006</ele>
        <time>2025-04-29T13:36:24Z</time>
      </trkpt>
      <trkpt lat="43.439131965860724" lon="-6.072242008522153">
        <ele>93.390000000000001</ele>
        <time>2025-04-29T13:36:25Z</time>
      </trkpt>
      <trkpt lat="43.439225004985929" lon="-6.072133965790272">
        <ele>93.390000000000001</ele>
        <time>2025-04-29T13:36:26Z</time>
      </trkpt>
      <trkpt lat="43.439317960292101" lon="-6.072027012705803">
        <ele>93.390000000000001</ele>
        <time>2025-04-29T13:36:27Z</time>
      </trkpt>
      <trkpt lat="43.439414016902447" lon="-6.071916958317161">
        <ele>93.390000000000001</ele>
        <time>2025-04-29T13:36:28Z</time>
      </trkpt>
      <trkpt lat="43.439507978037" lon="-6.07180698774755">
        <ele>92.900000000000006</ele>
        <time>2025-04-29T13:36:29Z</time>
      </trkpt>
      <trkpt lat="43.439607974141836" lon="-6.071702968329191">
        <ele>92.420000000000002</ele>
        <time>2025-04-29T13:36:30Z</time>
      </trkpt>
      <trkpt lat="43.440571976825595" lon="-6.070763021707535">
        <ele>90.5</ele>
        <time>2025-04-29T13:36:40Z</time>
      </trkpt>
      <trkpt lat="43.440659986808896" lon="-6.07066797092557">
        <ele>90.5</ele>
        <time>2025-04-29T13:36:41Z</time>
      </trkpt>
      <trkpt lat="43.44105402007699" lon="-6.070337975397706">
        <ele>90.5</ele>
        <time>2025-04-29T13:36:46Z</time>
      </trkpt>
      <trkpt lat="43.441142030060291" lon="-6.070307968184352">
        <ele>90.5</ele>
        <time>2025-04-29T13:36:47Z</time>
      </trkpt>
      <trkpt lat="43.441318972036242" lon="-6.070296987891197">
        <ele>90.980000000000004</ele>
        <time>2025-04-29T13:36:49Z</time>
      </trkpt>
      <trkpt lat="43.441428020596504" lon="-6.070286007598043">
        <ele>90.980000000000004</ele>
        <time>2025-04-29T13:36:50Z</time>
      </trkpt>
      <trkpt lat="43.441531034186482" lon="-6.070219036191702">
        <ele>90.5</ele>
        <time>2025-04-29T13:36:51Z</time>
      </trkpt>
      <trkpt lat="43.441639998927712" lon="-6.070148963481188">
        <ele>90.5</ele>
        <time>2025-04-29T13:36:52Z</time>
      </trkpt>
      <trkpt lat="43.441752986982465" lon="-6.070075035095215">
        <ele>90.019999999999996</ele>
        <time>2025-04-29T13:36:53Z</time>
      </trkpt>
      <trkpt lat="43.441869998350739" lon="-6.069986019283533">
        <ele>89.540000000000006</ele>
        <time>2025-04-29T13:36:54Z</time>
      </trkpt>
      <trkpt lat="43.441963959485292" lon="-6.069858027622104">
        <ele>89.540000000000006</ele>
        <time>2025-04-29T13:36:55Z</time>
      </trkpt>
      <trkpt lat="43.442054986953735" lon="-6.069733975455165">
        <ele>89.060000000000002</ele>
        <time>2025-04-29T13:36:56Z</time>
      </trkpt>
      <trkpt lat="43.44214903190732" lon="-6.069639008492231">
        <ele>88.579999999999998</ele>
        <time>2025-04-29T13:36:57Z</time>
      </trkpt>
      <trkpt lat="43.442247016355395" lon="-6.069559967145324">
        <ele>88.579999999999998</ele>
        <time>2025-04-29T13:36:58Z</time>
      </trkpt>
      <trkpt lat="43.442345000803471" lon="-6.069480003789067">
        <ele>88.099999999999994</ele>
        <time>2025-04-29T13:36:59Z</time>
      </trkpt>
      <trkpt lat="43.442541975528002" lon="-6.069367015734315">
        <ele>87.140000000000001</ele>
        <time>2025-04-29T13:37:01Z</time>
      </trkpt>
      <trkpt lat="43.442647000774741" lon="-6.069327034056187">
        <ele>87.140000000000001</ele>
        <time>2025-04-29T13:37:02Z</time>
      </trkpt>
      <trkpt lat="43.443852989003062" lon="-6.069198036566377">
        <ele>85.689999999999998</ele>
        <time>2025-04-29T13:37:12Z</time>
      </trkpt>
      <trkpt lat="43.443964971229434" lon="-6.06920599937439">
        <ele>85.209999999999994</ele>
        <time>2025-04-29T13:37:13Z</time>
      </trkpt>
      <trkpt lat="43.444077959284186" lon="-6.069240029901266">
        <ele>84.730000000000004</ele>
        <time>2025-04-29T13:37:14Z</time>
      </trkpt>
      <trkpt lat="43.444160018116236" lon="-6.069357041269541">
        <ele>83.769999999999996</ele>
        <time>2025-04-29T13:37:15Z</time>
      </trkpt>
      <trkpt lat="43.444224977865815" lon="-6.0694869607687">
        <ele>82.810000000000002</ele>
        <time>2025-04-29T13:37:16Z</time>
      </trkpt>
      <trkpt lat="43.444268982857466" lon="-6.069664992392063">
        <ele>81.849999999999994</ele>
        <time>2025-04-29T13:37:17Z</time>
      </trkpt>
      <trkpt lat="43.444314999505877" lon="-6.069856015965343">
        <ele>80.409999999999997</ele>
        <time>2025-04-29T13:37:18Z</time>
      </trkpt>
      <trkpt lat="43.44436302781105" lon="-6.070051984861493">
        <ele>79.450000000000003</ele>
        <time>2025-04-29T13:37:19Z</time>
      </trkpt>
      <trkpt lat="43.444411978125572" lon="-6.070253988727927">
        <ele>78</ele>
        <time>2025-04-29T13:37:20Z</time>
      </trkpt>
      <trkpt lat="43.444421030580997" lon="-6.07049698010087">
        <ele>76.560000000000002</ele>
        <time>2025-04-29T13:37:21Z</time>
      </trkpt>
      <trkpt lat="43.444412983953953" lon="-6.070738965645433">
        <ele>75.120000000000005</ele>
        <time>2025-04-29T13:37:22Z</time>
      </trkpt>
      <trkpt lat="43.444409966468811" lon="-6.071001989766955">
        <ele>73.680000000000007</ele>
        <time>2025-04-29T13:37:23Z</time>
      </trkpt>
      <trkpt lat="43.444671984761953" lon="-6.073378007858992">
        <ele>59.740000000000002</ele>
        <time>2025-04-29T13:37:32Z</time>
      </trkpt>
      <trkpt lat="43.4447490144521" lon="-6.073824008926749">
        <ele>56.369999999999997</ele>
        <time>2025-04-29T13:37:34Z</time>
      </trkpt>
      <trkpt lat="43.444931991398335" lon="-6.074567986652255">
        <ele>47.719999999999999</ele>
        <time>2025-04-29T13:37:38Z</time>
      </trkpt>
      <trkpt lat="43.44505000859499" lon="-6.074969982728362">
        <ele>43.399999999999999</ele>
        <time>2025-04-29T13:37:40Z</time>
      </trkpt>
      <trkpt lat="43.445303980261087" lon="-6.075477004051209">
        <ele>37.630000000000003</ele>
        <time>2025-04-29T13:37:43Z</time>
      </trkpt>
      <trkpt lat="43.445377992466092" lon="-6.075627040117979">
        <ele>36.189999999999998</ele>
        <time>2025-04-29T13:37:44Z</time>
      </trkpt>
      <trkpt lat="43.445450998842716" lon="-6.075771041214466">
        <ele>34.740000000000002</ele>
        <time>2025-04-29T13:37:45Z</time>
      </trkpt>
      <trkpt lat="43.44552299939096" lon="-6.075908001512289">
        <ele>32.82</ele>
        <time>2025-04-29T13:37:46Z</time>
      </trkpt>
      <trkpt lat="43.445602962747216" lon="-6.076055020093918">
        <ele>31.379999999999999</ele>
        <time>2025-04-29T13:37:47Z</time>
      </trkpt>
      <trkpt lat="43.445680998265743" lon="-6.076198015362024">
        <ele>29.460000000000001</ele>
        <time>2025-04-29T13:37:48Z</time>
      </trkpt>
      <trkpt lat="43.44575903378427" lon="-6.076341010630131">
        <ele>27.050000000000001</ele>
        <time>2025-04-29T13:37:49Z</time>
      </trkpt>
      <trkpt lat="43.445840002968907" lon="-6.07648903504014">
        <ele>25.129999999999999</ele>
        <time>2025-04-29T13:37:50Z</time>
      </trkpt>
      <trkpt lat="43.445992972701788" lon="-6.07676999643445">
        <ele>23.690000000000001</ele>
        <time>2025-04-29T13:37:51Z</time>
      </trkpt>
      <trkpt lat="43.446027003228664" lon="-6.076775025576353">
        <ele>21.77</ele>
        <time>2025-04-29T13:37:52Z</time>
      </trkpt>
      <trkpt lat="43.446191037073731" lon="-6.076796986162663">
        <ele>19.84</ele>
        <time>2025-04-29T13:37:53Z</time>
      </trkpt>
      <trkpt lat="43.446354987099767" lon="-6.076820036396384">
        <ele>18.399999999999999</ele>
        <time>2025-04-29T13:37:54Z</time>
      </trkpt>
      <trkpt lat="43.446867037564516" lon="-6.076892036944628">
        <ele>13.6</ele>
        <time>2025-04-29T13:37:57Z</time>
      </trkpt>
      <trkpt lat="43.447041967883706" lon="-6.076991027221084">
        <ele>12.630000000000001</ele>
        <time>2025-04-29T13:37:58Z</time>
      </trkpt>
      <trkpt lat="43.44719996675849" lon="-6.077106026932597">
        <ele>11.67</ele>
        <time>2025-04-29T13:37:59Z</time>
      </trkpt>
      <trkpt lat="43.447353020310402" lon="-6.077218009158969">
        <ele>10.710000000000001</ele>
        <time>2025-04-29T13:38:00Z</time>
      </trkpt>
      <trkpt lat="43.447473971173167" lon="-6.07730601914227">
        <ele>10.23</ele>
        <time>2025-04-29T13:38:01Z</time>
      </trkpt>
      <trkpt lat="43.447553012520075" lon="-6.077534006908536">
        <ele>10.23</ele>
        <time>2025-04-29T13:38:02Z</time>
      </trkpt>
      <trkpt lat="43.447612021118402" lon="-6.077704997733235">
        <ele>9.75</ele>
        <time>2025-04-29T13:38:03Z</time>
      </trkpt>
      <trkpt lat="43.447656026110053" lon="-6.077881017699838">
        <ele>9.75</ele>
        <time>2025-04-29T13:38:04Z</time>
      </trkpt>
      <trkpt lat="43.447684021666646" lon="-6.078082015737891">
        <ele>10.23</ele>
        <time>2025-04-29T13:38:05Z</time>
      </trkpt>
      <trkpt lat="43.44795098528266" lon="-6.080004991963506">
        <ele>13.6</ele>
        <time>2025-04-29T13:38:13Z</time>
      </trkpt>
      <trkpt lat="43.447960959747434" lon="-6.080226022750139">
        <ele>14.56</ele>
        <time>2025-04-29T13:38:14Z</time>
      </trkpt>
      <trkpt lat="43.447970012202859" lon="-6.081097992137075">
        <ele>18.399999999999999</ele>
        <time>2025-04-29T13:38:18Z</time>
      </trkpt>
      <trkpt lat="43.448019968345761" lon="-6.081277029588819">
        <ele>19.359999999999999</ele>
        <time>2025-04-29T13:38:19Z</time>
      </trkpt>
      <trkpt lat="43.448074031621218" lon="-6.081425976008177">
        <ele>20.32</ele>
        <time>2025-04-29T13:38:20Z</time>
      </trkpt>
      <trkpt lat="43.44818701967597" lon="-6.081570982933044">
        <ele>21.77</ele>
        <time>2025-04-29T13:38:21Z</time>
      </trkpt>
      <trkpt lat="43.448256002739072" lon="-6.081707021221519">
        <ele>22.73</ele>
        <time>2025-04-29T13:38:22Z</time>
      </trkpt>
      <trkpt lat="43.448291039094329" lon="-6.081806011497974">
        <ele>23.690000000000001</ele>
        <time>2025-04-29T13:38:23Z</time>
      </trkpt>
      <trkpt lat="43.448308976367116" lon="-6.081856973469257">
        <ele>24.649999999999999</ele>
        <time>2025-04-29T13:38:24Z</time>
      </trkpt>
      <trkpt lat="43.448357004672289" lon="-6.082087978720665">
        <ele>27.530000000000001</ele>
        <time>2025-04-29T13:38:31Z</time>
      </trkpt>
      <trkpt lat="43.448436968028545" lon="-6.082637999206781">
        <ele>28.98</ele>
        <time>2025-04-29T13:38:35Z</time>
      </trkpt>
      <trkpt lat="43.448426993563771" lon="-6.082783006131649">
        <ele>29.460000000000001</ele>
        <time>2025-04-29T13:38:36Z</time>
      </trkpt>
      <trkpt lat="43.448414001613855" lon="-6.08293698169291">
        <ele>29.940000000000001</ele>
        <time>2025-04-29T13:38:37Z</time>
      </trkpt>
      <trkpt lat="43.448400003835559" lon="-6.083093974739313">
        <ele>30.420000000000002</ele>
        <time>2025-04-29T13:38:38Z</time>
      </trkpt>
      <trkpt lat="43.448386006057262" lon="-6.083249961957336">
        <ele>30.420000000000002</ele>
        <time>2025-04-29T13:38:39Z</time>
      </trkpt>
      <trkpt lat="43.448383994400501" lon="-6.0834089666605">
        <ele>30.899999999999999</ele>
        <time>2025-04-29T13:38:40Z</time>
      </trkpt>
      <trkpt lat="43.448437973856926" lon="-6.083585992455483">
        <ele>31.379999999999999</ele>
        <time>2025-04-29T13:38:41Z</time>
      </trkpt>
      <trkpt lat="43.448522966355085" lon="-6.083762012422085">
        <ele>32.340000000000003</ele>
        <time>2025-04-29T13:38:42Z</time>
      </trkpt>
      <trkpt lat="43.448630003258586" lon="-6.083939960226417">
        <ele>33.299999999999997</ele>
        <time>2025-04-29T13:38:43Z</time>
      </trkpt>
      <trkpt lat="43.448737040162086" lon="-6.08411799184978">
        <ele>34.259999999999998</ele>
        <time>2025-04-29T13:38:44Z</time>
      </trkpt>
      <trkpt lat="43.448847010731697" lon="-6.084301974624395">
        <ele>35.229999999999997</ele>
        <time>2025-04-29T13:38:45Z</time>
      </trkpt>
      <trkpt lat="43.448943989351392" lon="-6.084406999871135">
        <ele>36.189999999999998</ele>
        <time>2025-04-29T13:38:46Z</time>
      </trkpt>
      <trkpt lat="43.449045997112989" lon="-6.084516970440745">
        <ele>37.149999999999999</ele>
        <time>2025-04-29T13:38:47Z</time>
      </trkpt>
      <trkpt lat="43.449131995439529" lon="-6.084655020385981">
        <ele>38.590000000000003</ele>
        <time>2025-04-29T13:38:48Z</time>
      </trkpt>
      <trkpt lat="43.449180023744702" lon="-6.084815030917525">
        <ele>39.07</ele>
        <time>2025-04-29T13:38:49Z</time>
      </trkpt>
      <trkpt lat="43.449215982109308" lon="-6.085002031177282">
        <ele>40.030000000000001</ele>
        <time>2025-04-29T13:38:50Z</time>
      </trkpt>
      <trkpt lat="43.449283959344029" lon="-6.085367985069752">
        <ele>40.990000000000002</ele>
        <time>2025-04-29T13:38:52Z</time>
      </trkpt>
      <trkpt lat="43.449297035112977" lon="-6.085438979789615">
        <ele>41.469999999999999</ele>
        <time>2025-04-29T13:38:53Z</time>
      </trkpt>
      <trkpt lat="43.449431983754039" lon="-6.085584992542863">
        <ele>41.950000000000003</ele>
        <time>2025-04-29T13:38:54Z</time>
      </trkpt>
      <trkpt lat="43.449619989842176" lon="-6.085887998342514">
        <ele>42.920000000000002</ele>
        <time>2025-04-29T13:38:56Z</time>
      </trkpt>
      <trkpt lat="43.449689978733659" lon="-6.086043985560536">
        <ele>43.399999999999999</ele>
        <time>2025-04-29T13:38:57Z</time>
      </trkpt>
      <trkpt lat="43.449775977060199" lon="-6.086173988878727">
        <ele>43.880000000000003</ele>
        <time>2025-04-29T13:38:58Z</time>
      </trkpt>
      <trkpt lat="43.449902962893248" lon="-6.086298041045666">
        <ele>44.840000000000003</ele>
        <time>2025-04-29T13:38:59Z</time>
      </trkpt>
      <trkpt lat="43.45003598369658" lon="-6.086427038535476">
        <ele>45.799999999999997</ele>
        <time>2025-04-29T13:39:00Z</time>
      </trkpt>
      <trkpt lat="43.450286015868187" lon="-6.086670029908419">
        <ele>48.200000000000003</ele>
        <time>2025-04-29T13:39:02Z</time>
      </trkpt>
      <trkpt lat="43.450501011684537" lon="-6.086879996582866">
        <ele>50.609999999999999</ele>
        <time>2025-04-29T13:39:04Z</time>
      </trkpt>
      <trkpt lat="43.450580975040793" lon="-6.08701997436583">
        <ele>51.57</ele>
        <time>2025-04-29T13:39:05Z</time>
      </trkpt>
      <trkpt lat="43.45063797198236" lon="-6.087170010432601">
        <ele>53.009999999999998</ele>
        <time>2025-04-29T13:39:06Z</time>
      </trkpt>
      <trkpt lat="43.4508310072124" lon="-6.087668985128403">
        <ele>55.890000000000001</ele>
        <time>2025-04-29T13:39:09Z</time>
      </trkpt>
      <trkpt lat="43.450894961133599" lon="-6.08783695846796">
        <ele>56.859999999999999</ele>
        <time>2025-04-29T13:39:10Z</time>
      </trkpt>
      <trkpt lat="43.450952963903546" lon="-6.087988000363112">
        <ele>57.82</ele>
        <time>2025-04-29T13:39:11Z</time>
      </trkpt>
      <trkpt lat="43.450961010530591" lon="-6.088104005903006">
        <ele>58.299999999999997</ele>
        <time>2025-04-29T13:39:12Z</time>
      </trkpt>
      <trkpt lat="43.450937960296869" lon="-6.088248006999493">
        <ele>58.299999999999997</ele>
        <time>2025-04-29T13:39:13Z</time>
      </trkpt>
      <trkpt lat="43.45089697279036" lon="-6.088364012539387">
        <ele>58.780000000000001</ele>
        <time>2025-04-29T13:39:14Z</time>
      </trkpt>
      <trkpt lat="43.450811980292201" lon="-6.08850097283721">
        <ele>59.259999999999998</ele>
        <time>2025-04-29T13:39:15Z</time>
      </trkpt>
      <trkpt lat="43.450717013329268" lon="-6.088654026389122">
        <ele>59.740000000000002</ele>
        <time>2025-04-29T13:39:16Z</time>
      </trkpt>
      <trkpt lat="43.450514003634453" lon="-6.088979998603463">
        <ele>61.18</ele>
        <time>2025-04-29T13:39:18Z</time>
      </trkpt>
      <trkpt lat="43.450409984216094" lon="-6.089173033833504">
        <ele>61.659999999999997</ele>
        <time>2025-04-29T13:39:19Z</time>
      </trkpt>
      <trkpt lat="43.450331026688218" lon="-6.089378977194428">
        <ele>62.619999999999997</ele>
        <time>2025-04-29T13:39:20Z</time>
      </trkpt>
      <trkpt lat="43.450252991169691" lon="-6.089580981060863">
        <ele>63.579999999999998</ele>
        <time>2025-04-29T13:39:21Z</time>
      </trkpt>
      <trkpt lat="43.450157018378377" lon="-6.089751971885562">
        <ele>64.069999999999993</ele>
        <time>2025-04-29T13:39:22Z</time>
      </trkpt>
      <trkpt lat="43.450044030323625" lon="-6.089904019609094">
        <ele>65.510000000000005</ele>
        <time>2025-04-29T13:39:23Z</time>
      </trkpt>
      <trkpt lat="43.449929030612111" lon="-6.090060006827116">
        <ele>65.989999999999995</ele>
        <time>2025-04-29T13:39:24Z</time>
      </trkpt>
      <trkpt lat="43.449826017022133" lon="-6.09024097211659">
        <ele>66.469999999999999</ele>
        <time>2025-04-29T13:39:25Z</time>
      </trkpt>
      <trkpt lat="43.449758039787412" lon="-6.090448005124927">
        <ele>67.430000000000007</ele>
        <time>2025-04-29T13:39:26Z</time>
      </trkpt>
      <trkpt lat="43.449712023139" lon="-6.090664006769657">
        <ele>68.390000000000001</ele>
        <time>2025-04-29T13:39:27Z</time>
      </trkpt>
      <trkpt lat="43.449665000662208" lon="-6.09088302589953">
        <ele>69.349999999999994</ele>
        <time>2025-04-29T13:39:28Z</time>
      </trkpt>
      <trkpt lat="43.449511025100946" lon="-6.091639995574951">
        <ele>73.200000000000003</ele>
        <time>2025-04-29T13:39:32Z</time>
      </trkpt>
      <trkpt lat="43.449508007615805" lon="-6.091805035248399">
        <ele>74.159999999999997</ele>
        <time>2025-04-29T13:39:33Z</time>
      </trkpt>
      <trkpt lat="43.449498033151031" lon="-6.092263022437692">
        <ele>76.560000000000002</ele>
        <time>2025-04-29T13:39:36Z</time>
      </trkpt>
      <trkpt lat="43.449528962373734" lon="-6.092851012945175">
        <ele>79.450000000000003</ele>
        <time>2025-04-29T13:39:40Z</time>
      </trkpt>
      <trkpt lat="43.449591994285583" lon="-6.092965006828308">
        <ele>80.409999999999997</ele>
        <time>2025-04-29T13:39:41Z</time>
      </trkpt>
      <trkpt lat="43.449655026197433" lon="-6.093080006539822">
        <ele>80.890000000000001</ele>
        <time>2025-04-29T13:39:42Z</time>
      </trkpt>
      <trkpt lat="43.449715962633491" lon="-6.093190982937813">
        <ele>80.890000000000001</ele>
        <time>2025-04-29T13:39:43Z</time>
      </trkpt>
      <trkpt lat="43.449815958738327" lon="-6.093278992921114">
        <ele>81.370000000000005</ele>
        <time>2025-04-29T13:39:44Z</time>
      </trkpt>
      <trkpt lat="43.449919978156686" lon="-6.093325009569526">
        <ele>81.849999999999994</ele>
        <time>2025-04-29T13:39:45Z</time>
      </trkpt>
      <trkpt lat="43.450027015060186" lon="-6.093372032046318">
        <ele>82.329999999999998</ele>
        <time>2025-04-29T13:39:46Z</time>
      </trkpt>
      <trkpt lat="43.4501420147717" lon="-6.093411007896066">
        <ele>83.290000000000006</ele>
        <time>2025-04-29T13:39:47Z</time>
      </trkpt>
      <trkpt lat="43.450261959806085" lon="-6.093436991795898">
        <ele>83.769999999999996</ele>
        <time>2025-04-29T13:39:48Z</time>
      </trkpt>
      <trkpt lat="43.450377965345979" lon="-6.093402961269021">
        <ele>84.25</ele>
        <time>2025-04-29T13:39:49Z</time>
      </trkpt>
      <trkpt lat="43.450494976714253" lon="-6.093353005126119">
        <ele>84.730000000000004</ele>
        <time>2025-04-29T13:39:50Z</time>
      </trkpt>
      <trkpt lat="43.45061500556767" lon="-6.093301959335804">
        <ele>85.209999999999994</ele>
        <time>2025-04-29T13:39:51Z</time>
      </trkpt>
      <trkpt lat="43.450969979166985" lon="-6.093152007088065">
        <ele>87.140000000000001</ele>
        <time>2025-04-29T13:39:54Z</time>
      </trkpt>
      <trkpt lat="43.451075004413724" lon="-6.093180002644658">
        <ele>88.099999999999994</ele>
        <time>2025-04-29T13:39:55Z</time>
      </trkpt>
      <trkpt lat="43.451178018003702" lon="-6.09322601929307">
        <ele>88.579999999999998</ele>
        <time>2025-04-29T13:39:56Z</time>
      </trkpt>
      <trkpt lat="43.451270973309875" lon="-6.093287961557508">
        <ele>89.540000000000006</ele>
        <time>2025-04-29T13:39:57Z</time>
      </trkpt>
      <trkpt lat="43.451358983293176" lon="-6.093370020389557">
        <ele>90.019999999999996</ele>
        <time>2025-04-29T13:39:58Z</time>
      </trkpt>
      <trkpt lat="43.451443975791335" lon="-6.093447972089052">
        <ele>90.980000000000004</ele>
        <time>2025-04-29T13:39:59Z</time>
      </trkpt>
      <trkpt lat="43.451508013531566" lon="-6.09350698068738">
        <ele>91.459999999999994</ele>
        <time>2025-04-29T13:40:00Z</time>
      </trkpt>
      <trkpt lat="43.451485969126225" lon="-6.093605970963836">
        <ele>91.939999999999998</ele>
        <time>2025-04-29T13:40:01Z</time>
      </trkpt>
      <trkpt lat="43.451465014368296" lon="-6.09370001591742">
        <ele>92.900000000000006</ele>
        <time>2025-04-29T13:40:02Z</time>
      </trkpt>
      <trkpt lat="43.451422015205026" lon="-6.093717031180859">
        <ele>93.390000000000001</ele>
        <time>2025-04-29T13:40:03Z</time>
      </trkpt>
      <trkpt lat="43.451339034363627" lon="-6.093749972060323">
        <ele>93.870000000000005</ele>
        <time>2025-04-29T13:40:04Z</time>
      </trkpt>
      <trkpt lat="43.451251024380326" lon="-6.09378500841558">
        <ele>94.349999999999994</ele>
        <time>2025-04-29T13:40:05Z</time>
      </trkpt>
      <trkpt lat="43.450763029977679" lon="-6.093968991190195">
        <ele>97.230000000000004</ele>
        <time>2025-04-29T13:40:10Z</time>
      </trkpt>
      <trkpt lat="43.450686000287533" lon="-6.094053983688355">
        <ele>97.709999999999994</ele>
        <time>2025-04-29T13:40:11Z</time>
      </trkpt>
      <trkpt lat="43.450021985918283" lon="-6.095057968050242">
        <ele>103</ele>
        <time>2025-04-29T13:40:19Z</time>
      </trkpt>
      <trkpt lat="43.449930958449841" lon="-6.095180008560419">
        <ele>103.95999999999999</ele>
        <time>2025-04-29T13:40:20Z</time>
      </trkpt>
      <trkpt lat="43.449843032285571" lon="-6.095297019928694">
        <ele>104.44</ele>
        <time>2025-04-29T13:40:21Z</time>
      </trkpt>
      <trkpt lat="43.449746975675225" lon="-6.095342030748725">
        <ele>104.92</ele>
        <time>2025-04-29T13:40:22Z</time>
      </trkpt>
      <trkpt lat="43.449629964306951" lon="-6.095387041568756">
        <ele>105.40000000000001</ele>
        <time>2025-04-29T13:40:23Z</time>
      </trkpt>
      <trkpt lat="43.449510019272566" lon="-6.095431968569756">
        <ele>105.88</ele>
        <time>2025-04-29T13:40:24Z</time>
      </trkpt>
      <trkpt lat="43.449387978762388" lon="-6.095477985218167">
        <ele>106.36</ele>
        <time>2025-04-29T13:40:25Z</time>
      </trkpt>
      <trkpt lat="43.449263004586101" lon="-6.09552601352334">
        <ele>106.84</ele>
        <time>2025-04-29T13:40:26Z</time>
      </trkpt>
      <trkpt lat="43.44913300126791" lon="-6.095623997971416">
        <ele>107.31999999999999</ele>
        <time>2025-04-29T13:40:27Z</time>
      </trkpt>
      <trkpt lat="43.44902403652668" lon="-6.095732962712646">
        <ele>107.31999999999999</ele>
        <time>2025-04-29T13:40:28Z</time>
      </trkpt>
      <trkpt lat="43.448555991053581" lon="-6.096307039260864">
        <ele>109.73</ele>
        <time>2025-04-29T13:40:33Z</time>
      </trkpt>
      <trkpt lat="43.448461024090648" lon="-6.096424972638488">
        <ele>110.69</ele>
        <time>2025-04-29T13:40:34Z</time>
      </trkpt>
      <trkpt lat="43.447947967797518" lon="-6.097006006166339">
        <ele>115.01000000000001</ele>
        <time>2025-04-29T13:40:39Z</time>
      </trkpt>
      <trkpt lat="43.447857024148107" lon="-6.097140032798052">
        <ele>115.5</ele>
        <time>2025-04-29T13:40:40Z</time>
      </trkpt>
      <trkpt lat="43.447768008336425" lon="-6.097271963953972">
        <ele>116.45999999999999</ele>
        <time>2025-04-29T13:40:41Z</time>
      </trkpt>
      <trkpt lat="43.447539014741778" lon="-6.097668008878827">
        <ele>118.86</ele>
        <time>2025-04-29T13:40:44Z</time>
      </trkpt>
      <trkpt lat="43.447449998930097" lon="-6.097758030518889">
        <ele>119.34</ele>
        <time>2025-04-29T13:40:45Z</time>
      </trkpt>
      <trkpt lat="43.447355031967163" lon="-6.097852997481823">
        <ele>119.81999999999999</ele>
        <time>2025-04-29T13:40:46Z</time>
      </trkpt>
      <trkpt lat="43.447252018377185" lon="-6.097955005243421">
        <ele>120.3</ele>
        <time>2025-04-29T13:40:47Z</time>
      </trkpt>
      <trkpt lat="43.447152022272348" lon="-6.098055001348257">
        <ele>120.78</ele>
        <time>2025-04-29T13:40:48Z</time>
      </trkpt>
      <trkpt lat="43.447057977318764" lon="-6.098149968311191">
        <ele>121.26000000000001</ele>
        <time>2025-04-29T13:40:49Z</time>
      </trkpt>
      <trkpt lat="43.446968039497733" lon="-6.098238984122872">
        <ele>122.22</ele>
        <time>2025-04-29T13:40:50Z</time>
      </trkpt>
      <trkpt lat="43.446872988715768" lon="-6.098335040733218">
        <ele>123.19</ele>
        <time>2025-04-29T13:40:52Z</time>
      </trkpt>
      <trkpt lat="43.446828983724117" lon="-6.098481975495815">
        <ele>123.19</ele>
        <time>2025-04-29T13:40:53Z</time>
      </trkpt>
      <trkpt lat="43.446808028966188" lon="-6.098549030721188">
        <ele>123.67</ele>
        <time>2025-04-29T13:40:54Z</time>
      </trkpt>
      <trkpt lat="43.44681297428906" lon="-6.098556993529201">
        <ele>124.15000000000001</ele>
        <time>2025-04-29T13:40:55Z</time>
      </trkpt>
      <trkpt lat="43.446892015635967" lon="-6.098614996299148">
        <ele>124.63</ele>
        <time>2025-04-29T13:40:56Z</time>
      </trkpt>
      <trkpt lat="43.447003997862339" lon="-6.098620025441051">
        <ele>125.11</ele>
        <time>2025-04-29T13:40:57Z</time>
      </trkpt>
      <trkpt lat="43.447126960381866" lon="-6.098624970763922">
        <ele>125.59</ele>
        <time>2025-04-29T13:40:58Z</time>
      </trkpt>
      <trkpt lat="43.447247995063663" lon="-6.098629999905825">
        <ele>126.06999999999999</ele>
        <time>2025-04-29T13:40:59Z</time>
      </trkpt>
      <trkpt lat="43.447387972846627" lon="-6.098635029047728">
        <ele>127.03</ele>
        <time>2025-04-29T13:41:00Z</time>
      </trkpt>
      <trkpt lat="43.447482017800212" lon="-6.098689008504152">
        <ele>127.51000000000001</ele>
        <time>2025-04-29T13:41:01Z</time>
      </trkpt>
      <trkpt lat="43.447927013039589" lon="-6.098967036232352">
        <ele>130.40000000000001</ele>
        <time>2025-04-29T13:41:05Z</time>
      </trkpt>
      <trkpt lat="43.448394974693656" lon="-6.099228970706463">
        <ele>133.75999999999999</ele>
        <time>2025-04-29T13:41:09Z</time>
      </trkpt>
      <trkpt lat="43.448459012433887" lon="-6.099348999559879">
        <ele>134.72</ele>
        <time>2025-04-29T13:41:10Z</time>
      </trkpt>
      <trkpt lat="43.448524978011847" lon="-6.099471962079406">
        <ele>135.19999999999999</ele>
        <time>2025-04-29T13:41:11Z</time>
      </trkpt>
      <trkpt lat="43.448572000488639" lon="-6.099590985104442">
        <ele>135.68000000000001</ele>
        <time>2025-04-29T13:41:12Z</time>
      </trkpt>
      <trkpt lat="43.448491031304002" lon="-6.099752001464367">
        <ele>136.16</ele>
        <time>2025-04-29T13:41:13Z</time>
      </trkpt>
      <trkpt lat="43.448468986898661" lon="-6.09993003308773">
        <ele>136.63999999999999</ele>
        <time>2025-04-29T13:41:14Z</time>
      </trkpt>
      <trkpt lat="43.448449037969112" lon="-6.100094988942146">
        <ele>137.13</ele>
        <time>2025-04-29T13:41:15Z</time>
      </trkpt>
      <trkpt lat="43.448431016877294" lon="-6.100245025008917">
        <ele>138.09</ele>
        <time>2025-04-29T13:41:16Z</time>
      </trkpt>
      <trkpt lat="43.448412995785475" lon="-6.10036002472043">
        <ele>138.56999999999999</ele>
        <time>2025-04-29T13:41:17Z</time>
      </trkpt>
      <trkpt lat="43.448352981358767" lon="-6.100480975583196">
        <ele>138.56999999999999</ele>
        <time>2025-04-29T13:41:18Z</time>
      </trkpt>
      <trkpt lat="43.448291961103678" lon="-6.100626988336444">
        <ele>139.05000000000001</ele>
        <time>2025-04-29T13:41:19Z</time>
      </trkpt>
      <trkpt lat="43.447494003921747" lon="-6.101774973794818">
        <ele>147.69999999999999</ele>
        <time>2025-04-29T13:41:28Z</time>
      </trkpt>
      <trkpt lat="43.446543999016285" lon="-6.10300300642848">
        <ele>157.78999999999999</ele>
        <time>2025-04-29T13:41:36Z</time>
      </trkpt>
      <trkpt lat="43.446441991254687" lon="-6.103182965889573">
        <ele>158.75</ele>
        <time>2025-04-29T13:41:37Z</time>
      </trkpt>
      <trkpt lat="43.446345012634993" lon="-6.103354962542653">
        <ele>160.19999999999999</ele>
        <time>2025-04-29T13:41:38Z</time>
      </trkpt>
      <trkpt lat="43.446239987388253" lon="-6.103508016094565">
        <ele>160.68000000000001</ele>
        <time>2025-04-29T13:41:39Z</time>
      </trkpt>
      <trkpt lat="43.446099003776908" lon="-6.103610023856163">
        <ele>161.63999999999999</ele>
        <time>2025-04-29T13:41:40Z</time>
      </trkpt>
      <trkpt lat="43.44595399685204" lon="-6.103715971112251">
        <ele>162.12</ele>
        <time>2025-04-29T13:41:41Z</time>
      </trkpt>
      <trkpt lat="43.445815024897456" lon="-6.103816973045468">
        <ele>162.59999999999999</ele>
        <time>2025-04-29T13:41:42Z</time>
      </trkpt>
      <trkpt lat="43.445687033236027" lon="-6.103910012170672">
        <ele>163.08000000000001</ele>
        <time>2025-04-29T13:41:43Z</time>
      </trkpt>
      <trkpt lat="43.445581002160907" lon="-6.103987041860819">
        <ele>163.56</ele>
        <time>2025-04-29T13:41:44Z</time>
      </trkpt>
      <trkpt lat="43.445563986897469" lon="-6.104000033810735">
        <ele>163.56</ele>
        <time>2025-04-29T13:41:45Z</time>
      </trkpt>
      <trkpt lat="43.445530040189624" lon="-6.104134982451797">
        <ele>163.56</ele>
        <time>2025-04-29T13:41:46Z</time>
      </trkpt>
      <trkpt lat="43.44552400521934" lon="-6.104180999100208">
        <ele>163.56</ele>
        <time>2025-04-29T13:41:47Z</time>
      </trkpt>
      <trkpt lat="43.44556700438261" lon="-6.104311002418399">
        <ele>163.56</ele>
        <time>2025-04-29T13:41:48Z</time>
      </trkpt>
      <trkpt lat="43.445606986060739" lon="-6.104429019615054">
        <ele>163.56</ele>
        <time>2025-04-29T13:41:49Z</time>
      </trkpt>
      <trkpt lat="43.445683009922504" lon="-6.104534966871142">
        <ele>163.56</ele>
        <time>2025-04-29T13:41:50Z</time>
      </trkpt>
      <trkpt lat="43.44575903378427" lon="-6.104638986289501">
        <ele>164.03999999999999</ele>
        <time>2025-04-29T13:41:51Z</time>
      </trkpt>
      <trkpt lat="43.445814019069076" lon="-6.104715010151267">
        <ele>164.52000000000001</ele>
        <time>2025-04-29T13:41:52Z</time>
      </trkpt>
      <trkpt lat="43.445886019617319" lon="-6.104869991540909">
        <ele>165</ele>
        <time>2025-04-29T13:41:53Z</time>
      </trkpt>
      <trkpt lat="43.445822987705469" lon="-6.105031007900834">
        <ele>165</ele>
        <time>2025-04-29T13:41:54Z</time>
      </trkpt>
      <trkpt lat="43.44575802795589" lon="-6.105165034532547">
        <ele>165.47999999999999</ele>
        <time>2025-04-29T13:41:55Z</time>
      </trkpt>
      <trkpt lat="43.445683009922504" lon="-6.105320015922189">
        <ele>165.96000000000001</ele>
        <time>2025-04-29T13:41:56Z</time>
      </trkpt>
      <trkpt lat="43.445552000775933" lon="-6.105607012286782">
        <ele>166.44999999999999</ele>
        <time>2025-04-29T13:41:58Z</time>
      </trkpt>
      <trkpt lat="43.445504978299141" lon="-6.105765011161566">
        <ele>166.93000000000001</ele>
        <time>2025-04-29T13:41:59Z</time>
      </trkpt>
      <trkpt lat="43.445458961650729" lon="-6.105923010036349">
        <ele>167.88999999999999</ele>
        <time>2025-04-29T13:42:00Z</time>
      </trkpt>
      <trkpt lat="43.445167019963264" lon="-6.106836972758174">
        <ele>173.66</ele>
        <time>2025-04-29T13:42:07Z</time>
      </trkpt>
      <trkpt lat="43.44500700943172" lon="-6.107280040159822">
        <ele>177.5</ele>
        <time>2025-04-29T13:42:10Z</time>
      </trkpt>
      <trkpt lat="43.444806011393666" lon="-6.107850009575486">
        <ele>181.83000000000001</ele>
        <time>2025-04-29T13:42:14Z</time>
      </trkpt>
      <trkpt lat="43.44477298669517" lon="-6.107996022328734">
        <ele>182.78999999999999</ele>
        <time>2025-04-29T13:42:15Z</time>
      </trkpt>
      <trkpt lat="43.444708026945591" lon="-6.108283018693328">
        <ele>184.71000000000001</ele>
        <time>2025-04-29T13:42:17Z</time>
      </trkpt>
      <trkpt lat="43.444678019732237" lon="-6.10841603949666">
        <ele>185.66999999999999</ele>
        <time>2025-04-29T13:42:18Z</time>
      </trkpt>
      <trkpt lat="43.444638038054109" lon="-6.108533972874284">
        <ele>186.63</ele>
        <time>2025-04-29T13:42:19Z</time>
      </trkpt>
      <trkpt lat="43.444579029455781" lon="-6.108651990070939">
        <ele>187.59</ele>
        <time>2025-04-29T13:42:20Z</time>
      </trkpt>
      <trkpt lat="43.444518009200692" lon="-6.108774030581117">
        <ele>188.08000000000001</ele>
        <time>2025-04-29T13:42:21Z</time>
      </trkpt>
      <trkpt lat="43.44397796317935" lon="-6.110000973567367">
        <ele>196.72999999999999</ele>
        <time>2025-04-29T13:42:30Z</time>
      </trkpt>
      <trkpt lat="43.443971006199718" lon="-6.11017799936235">
        <ele>197.69</ele>
        <time>2025-04-29T13:42:31Z</time>
      </trkpt>
      <trkpt lat="43.443993972614408" lon="-6.110323006287217">
        <ele>198.65000000000001</ele>
        <time>2025-04-29T13:42:32Z</time>
      </trkpt>
      <trkpt lat="43.444015011191368" lon="-6.110453009605408">
        <ele>199.13</ele>
        <time>2025-04-29T13:42:33Z</time>
      </trkpt>
      <trkpt lat="43.444008976221085" lon="-6.110573038458824">
        <ele>200.09</ele>
        <time>2025-04-29T13:42:34Z</time>
      </trkpt>
      <trkpt lat="43.443965977057815" lon="-6.110698012635112">
        <ele>201.05000000000001</ele>
        <time>2025-04-29T13:42:35Z</time>
      </trkpt>
      <trkpt lat="43.443878972902894" lon="-6.110759032890201">
        <ele>202.00999999999999</ele>
        <time>2025-04-29T13:42:36Z</time>
      </trkpt>
      <trkpt lat="43.443787023425102" lon="-6.110763978213072">
        <ele>202.49000000000001</ele>
        <time>2025-04-29T13:42:37Z</time>
      </trkpt>
      <trkpt lat="43.443678980693221" lon="-6.110769007354975">
        <ele>202.97999999999999</ele>
        <time>2025-04-29T13:42:38Z</time>
      </trkpt>
      <trkpt lat="43.443565992638469" lon="-6.110774958506227">
        <ele>203.46000000000001</ele>
        <time>2025-04-29T13:42:39Z</time>
      </trkpt>
      <trkpt lat="43.443444035947323" lon="-6.110771019011736">
        <ele>204.41999999999999</ele>
        <time>2025-04-29T13:42:40Z</time>
      </trkpt>
      <trkpt lat="43.4433329757303" lon="-6.110704969614744">
        <ele>204.90000000000001</ele>
        <time>2025-04-29T13:42:41Z</time>
      </trkpt>
      <trkpt lat="43.443218981847167" lon="-6.110637998208404">
        <ele>206.34</ele>
        <time>2025-04-29T13:42:42Z</time>
      </trkpt>
      <trkpt lat="43.443096019327641" lon="-6.11056599766016">
        <ele>206.81999999999999</ele>
        <time>2025-04-29T13:42:43Z</time>
      </trkpt>
      <trkpt lat="43.442984959110618" lon="-6.110577983781695">
        <ele>207.78</ele>
        <time>2025-04-29T13:42:44Z</time>
      </trkpt>
      <trkpt lat="43.442857973277569" lon="-6.110618971288204">
        <ele>208.74000000000001</ele>
        <time>2025-04-29T13:42:45Z</time>
      </trkpt>
      <trkpt lat="43.442743979394436" lon="-6.110698012635112">
        <ele>209.69999999999999</ele>
        <time>2025-04-29T13:42:46Z</time>
      </trkpt>
      <trkpt lat="43.442628979682922" lon="-6.110777975991368">
        <ele>210.66999999999999</ele>
        <time>2025-04-29T13:42:47Z</time>
      </trkpt>
      <trkpt lat="43.442510040476918" lon="-6.110860034823418">
        <ele>211.15000000000001</ele>
        <time>2025-04-29T13:42:48Z</time>
      </trkpt>
      <trkpt lat="43.442292027175426" lon="-6.111140996217728">
        <ele>213.06999999999999</ele>
        <time>2025-04-29T13:42:50Z</time>
      </trkpt>
      <trkpt lat="43.442204017192125" lon="-6.111297989264131">
        <ele>214.50999999999999</ele>
        <time>2025-04-29T13:42:51Z</time>
      </trkpt>
      <trkpt lat="43.442117013037205" lon="-6.111452970653772">
        <ele>215.47</ele>
        <time>2025-04-29T13:42:52Z</time>
      </trkpt>
      <trkpt lat="43.441660031676292" lon="-6.112379003316164">
        <ele>223.16</ele>
        <time>2025-04-29T13:42:58Z</time>
      </trkpt>
      <trkpt lat="43.441551988944411" lon="-6.112462989985943">
        <ele>224.12</ele>
        <time>2025-04-29T13:42:59Z</time>
      </trkpt>
      <trkpt lat="43.441431038081646" lon="-6.112557034939528">
        <ele>225.09</ele>
        <time>2025-04-29T13:43:00Z</time>
      </trkpt>
      <trkpt lat="43.440611958503723" lon="-6.113120969384909">
        <ele>227.49000000000001</ele>
        <time>2025-04-29T13:43:06Z</time>
      </trkpt>
      <trkpt lat="43.440463012084365" lon="-6.11316698603332">
        <ele>227.97</ele>
        <time>2025-04-29T13:43:07Z</time>
      </trkpt>
      <trkpt lat="43.439965965226293" lon="-6.113301012665033">
        <ele>228.44999999999999</ele>
        <time>2025-04-29T13:43:10Z</time>
      </trkpt>
      <trkpt lat="43.439802015200257" lon="-6.113387010991573">
        <ele>228.44999999999999</ele>
        <time>2025-04-29T13:43:11Z</time>
      </trkpt>
      <trkpt lat="43.438532995060086" lon="-6.113775009289384">
        <ele>228.93000000000001</ele>
        <time>2025-04-29T13:43:19Z</time>
      </trkpt>
      <trkpt lat="43.438376002013683" lon="-6.113760005682707">
        <ele>228.93000000000001</ele>
        <time>2025-04-29T13:43:20Z</time>
      </trkpt>
      <trkpt lat="43.437764961272478" lon="-6.11370200291276">
        <ele>229.88999999999999</ele>
        <time>2025-04-29T13:43:25Z</time>
      </trkpt>
      <trkpt lat="43.437711987644434" lon="-6.11374500207603">
        <ele>229.41</ele>
        <time>2025-04-29T13:43:26Z</time>
      </trkpt>
      <trkpt lat="43.437678040936589" lon="-6.113824965432286">
        <ele>228.93000000000001</ele>
        <time>2025-04-29T13:43:27Z</time>
      </trkpt>
      <trkpt lat="43.437666976824403" lon="-6.11391800455749">
        <ele>228.93000000000001</ele>
        <time>2025-04-29T13:43:28Z</time>
      </trkpt>
      <trkpt lat="43.437666976824403" lon="-6.114064017310739">
        <ele>229.41</ele>
        <time>2025-04-29T13:43:29Z</time>
      </trkpt>
      <trkpt lat="43.437680974602699" lon="-6.114225033670664">
        <ele>229.41</ele>
        <time>2025-04-29T13:43:30Z</time>
      </trkpt>
      <trkpt lat="43.437705030664802" lon="-6.114399963989854">
        <ele>229.88999999999999</ele>
        <time>2025-04-29T13:43:31Z</time>
      </trkpt>
      <trkpt lat="43.437732020393014" lon="-6.114600040018559">
        <ele>229.88999999999999</ele>
        <time>2025-04-29T13:43:32Z</time>
      </trkpt>
      <trkpt lat="43.437777031213045" lon="-6.114761978387833">
        <ele>229.88999999999999</ele>
        <time>2025-04-29T13:43:33Z</time>
      </trkpt>
      <trkpt lat="43.437823969870806" lon="-6.114929029718041">
        <ele>229.88999999999999</ele>
        <time>2025-04-29T13:43:34Z</time>
      </trkpt>
      <trkpt lat="43.437881972640753" lon="-6.115135978907347">
        <ele>229.88999999999999</ele>
        <time>2025-04-29T13:43:36Z</time>
      </trkpt>
      <trkpt lat="43.437861017882824" lon="-6.115261958912015">
        <ele>229.88999999999999</ele>
        <time>2025-04-29T13:43:37Z</time>
      </trkpt>
      <trkpt lat="43.437842996791005" lon="-6.11527101136744">
        <ele>229.41</ele>
        <time>2025-04-29T13:43:38Z</time>
      </trkpt>
      <trkpt lat="43.437732020393014" lon="-6.115307975560427">
        <ele>229.41</ele>
        <time>2025-04-29T13:43:39Z</time>
      </trkpt>
      <trkpt lat="43.437689021229744" lon="-6.11529297195375">
        <ele>228.93000000000001</ele>
        <time>2025-04-29T13:43:40Z</time>
      </trkpt>
      <trkpt lat="43.437577961012721" lon="-6.115252990275621">
        <ele>228.93000000000001</ele>
        <time>2025-04-29T13:43:41Z</time>
      </trkpt>
      <trkpt lat="43.437459021806717" lon="-6.115209991112351">
        <ele>228.44999999999999</ele>
        <time>2025-04-29T13:43:42Z</time>
      </trkpt>
      <trkpt lat="43.437336981296539" lon="-6.115218959748745">
        <ele>228.44999999999999</ele>
        <time>2025-04-29T13:43:43Z</time>
      </trkpt>
      <trkpt lat="43.437222987413406" lon="-6.115242009982467">
        <ele>228.44999999999999</ele>
        <time>2025-04-29T13:43:44Z</time>
      </trkpt>
      <trkpt lat="43.437140006572008" lon="-6.115365978330374">
        <ele>228.44999999999999</ele>
        <time>2025-04-29T13:43:45Z</time>
      </trkpt>
      <trkpt lat="43.437056019902229" lon="-6.115501010790467">
        <ele>227.97</ele>
        <time>2025-04-29T13:43:46Z</time>
      </trkpt>
      <trkpt lat="43.436965998262167" lon="-6.115645011886954">
        <ele>227.97</ele>
        <time>2025-04-29T13:43:47Z</time>
      </trkpt>
      <trkpt lat="43.436768017709255" lon="-6.115950029343367">
        <ele>228.44999999999999</ele>
        <time>2025-04-29T13:43:49Z</time>
      </trkpt>
      <trkpt lat="43.436644971370697" lon="-6.116072991862893">
        <ele>228.44999999999999</ele>
        <time>2025-04-29T13:43:50Z</time>
      </trkpt>
      <trkpt lat="43.436509016901255" lon="-6.116209030151367">
        <ele>228.44999999999999</ele>
        <time>2025-04-29T13:43:51Z</time>
      </trkpt>
      <trkpt lat="43.436386976391077" lon="-6.116284970194101">
        <ele>228.44999999999999</ele>
        <time>2025-04-29T13:43:52Z</time>
      </trkpt>
      <trkpt lat="43.436253033578396" lon="-6.116368034854531">
        <ele>228.44999999999999</ele>
        <time>2025-04-29T13:43:53Z</time>
      </trkpt>
      <trkpt lat="43.436115989461541" lon="-6.116453027352691">
        <ele>228.44999999999999</ele>
        <time>2025-04-29T13:43:54Z</time>
      </trkpt>
      <trkpt lat="43.435834022238851" lon="-6.116628963500261">
        <ele>228.44999999999999</ele>
        <time>2025-04-29T13:43:56Z</time>
      </trkpt>
      <trkpt lat="43.435695972293615" lon="-6.116747986525297">
        <ele>228.44999999999999</ele>
        <time>2025-04-29T13:43:57Z</time>
      </trkpt>
      <trkpt lat="43.435619026422501" lon="-6.116930963471532">
        <ele>228.44999999999999</ele>
        <time>2025-04-29T13:43:58Z</time>
      </trkpt>
      <trkpt lat="43.435540990903974" lon="-6.117114024236798">
        <ele>228.44999999999999</ele>
        <time>2025-04-29T13:43:59Z</time>
      </trkpt>
      <trkpt lat="43.435463961213827" lon="-6.117299012839794">
        <ele>228.44999999999999</ele>
        <time>2025-04-29T13:44:00Z</time>
      </trkpt>
      <trkpt lat="43.435389026999474" lon="-6.117476960644126">
        <ele>228.44999999999999</ele>
        <time>2025-04-29T13:44:01Z</time>
      </trkpt>
      <trkpt lat="43.435303028672934" lon="-6.117610987275839">
        <ele>227.97</ele>
        <time>2025-04-29T13:44:02Z</time>
      </trkpt>
      <trkpt lat="43.43521099537611" lon="-6.117736967280507">
        <ele>227.97</ele>
        <time>2025-04-29T13:44:03Z</time>
      </trkpt>
      <trkpt lat="43.435112005099654" lon="-6.117846015840769">
        <ele>227.49000000000001</ele>
        <time>2025-04-29T13:44:04Z</time>
      </trkpt>
      <trkpt lat="43.434983007609844" lon="-6.117878034710884">
        <ele>227.00999999999999</ele>
        <time>2025-04-29T13:44:05Z</time>
      </trkpt>
      <trkpt lat="43.434859039261937" lon="-6.117908963933587">
        <ele>227.00999999999999</ele>
        <time>2025-04-29T13:44:06Z</time>
      </trkpt>
      <trkpt lat="43.434728030115366" lon="-6.117879962548614">
        <ele>226.53</ele>
        <time>2025-04-29T13:44:07Z</time>
      </trkpt>
      <trkpt lat="43.434618981555104" lon="-6.117804022505879">
        <ele>226.53</ele>
        <time>2025-04-29T13:44:08Z</time>
      </trkpt>
      <trkpt lat="43.434514962136745" lon="-6.117730010300875">
        <ele>226.05000000000001</ele>
        <time>2025-04-29T13:44:09Z</time>
      </trkpt>
      <trkpt lat="43.434411026537418" lon="-6.117653986439109">
        <ele>226.05000000000001</ele>
        <time>2025-04-29T13:44:10Z</time>
      </trkpt>
      <trkpt lat="43.434321004897356" lon="-6.117578968405724">
        <ele>225.56999999999999</ele>
        <time>2025-04-29T13:44:11Z</time>
      </trkpt>
      <trkpt lat="43.434231989085674" lon="-6.117588020861149">
        <ele>225.56999999999999</ele>
        <time>2025-04-29T13:44:12Z</time>
      </trkpt>
      <trkpt lat="43.434168035164475" lon="-6.117649963125587">
        <ele>225.09</ele>
        <time>2025-04-29T13:44:13Z</time>
      </trkpt>
      <trkpt lat="43.434109026566148" lon="-6.117768986150622">
        <ele>225.56999999999999</ele>
        <time>2025-04-29T13:44:14Z</time>
      </trkpt>
      <trkpt lat="43.434040965512395" lon="-6.117904018610716">
        <ele>225.56999999999999</ele>
        <time>2025-04-29T13:44:15Z</time>
      </trkpt>
      <trkpt lat="43.433987991884351" lon="-6.118053970858455">
        <ele>225.56999999999999</ele>
        <time>2025-04-29T13:44:16Z</time>
      </trkpt>
      <trkpt lat="43.433937029913068" lon="-6.118199983611703">
        <ele>225.56999999999999</ele>
        <time>2025-04-29T13:44:17Z</time>
      </trkpt>
      <trkpt lat="43.43387701548636" lon="-6.118290005251765">
        <ele>225.56999999999999</ele>
        <time>2025-04-29T13:44:18Z</time>
      </trkpt>
      <trkpt lat="43.433785988017917" lon="-6.118344990536571">
        <ele>225.56999999999999</ele>
        <time>2025-04-29T13:44:19Z</time>
      </trkpt>
      <trkpt lat="43.4336849860847" lon="-6.118405004963279">
        <ele>225.09</ele>
        <time>2025-04-29T13:44:20Z</time>
      </trkpt>
      <trkpt lat="43.433570992201567" lon="-6.118473988026381">
        <ele>225.09</ele>
        <time>2025-04-29T13:44:21Z</time>
      </trkpt>
      <trkpt lat="43.433450041338801" lon="-6.118545988574624">
        <ele>224.61000000000001</ele>
        <time>2025-04-29T13:44:22Z</time>
      </trkpt>
      <trkpt lat="43.43334099277854" lon="-6.118679009377956">
        <ele>224.12</ele>
        <time>2025-04-29T13:44:23Z</time>
      </trkpt>
      <trkpt lat="43.43327502720058" lon="-6.118850000202656">
        <ele>223.63999999999999</ele>
        <time>2025-04-29T13:44:24Z</time>
      </trkpt>
      <trkpt lat="43.433214006945491" lon="-6.119038006290793">
        <ele>223.16</ele>
        <time>2025-04-29T13:44:25Z</time>
      </trkpt>
      <trkpt lat="43.433176958933473" lon="-6.119231963530183">
        <ele>222.68000000000001</ele>
        <time>2025-04-29T13:44:26Z</time>
      </trkpt>
      <trkpt lat="43.433141000568867" lon="-6.11941603012383">
        <ele>222.68000000000001</ele>
        <time>2025-04-29T13:44:27Z</time>
      </trkpt>
      <trkpt lat="43.4331030305475" lon="-6.119560031220317">
        <ele>222.68000000000001</ele>
        <time>2025-04-29T13:44:28Z</time>
      </trkpt>
      <trkpt lat="43.433027006685734" lon="-6.119687017053366">
        <ele>222.68000000000001</ele>
        <time>2025-04-29T13:44:29Z</time>
      </trkpt>
      <trkpt lat="43.432952994480729" lon="-6.119771003723145">
        <ele>222.68000000000001</ele>
        <time>2025-04-29T13:44:30Z</time>
      </trkpt>
      <trkpt lat="43.43284604139626" lon="-6.119833029806614">
        <ele>222.19999999999999</ele>
        <time>2025-04-29T13:44:31Z</time>
      </trkpt>
      <trkpt lat="43.432731963694096" lon="-6.119900001212955">
        <ele>222.19999999999999</ele>
        <time>2025-04-29T13:44:32Z</time>
      </trkpt>
      <trkpt lat="43.432621993124485" lon="-6.119883991777897">
        <ele>221.72</ele>
        <time>2025-04-29T13:44:33Z</time>
      </trkpt>
      <trkpt lat="43.432431975379586" lon="-6.119857002049685">
        <ele>221.24000000000001</ele>
        <time>2025-04-29T13:44:34Z</time>
      </trkpt>
      <trkpt lat="43.432344971224666" lon="-6.119769997894764">
        <ele>221.24000000000001</ele>
        <time>2025-04-29T13:44:35Z</time>
      </trkpt>
      <trkpt lat="43.432259978726506" lon="-6.119685005396605">
        <ele>220.75999999999999</ele>
        <time>2025-04-29T13:44:36Z</time>
      </trkpt>
      <trkpt lat="43.432196024805307" lon="-6.119492975994945">
        <ele>220.28</ele>
        <time>2025-04-29T13:44:37Z</time>
      </trkpt>
      <trkpt lat="43.432150008156896" lon="-6.119356015697122">
        <ele>219.80000000000001</ele>
        <time>2025-04-29T13:44:38Z</time>
      </trkpt>
      <trkpt lat="43.432123018428683" lon="-6.119245961308479">
        <ele>219.80000000000001</ele>
        <time>2025-04-29T13:44:39Z</time>
      </trkpt>
      <trkpt lat="43.432098962366581" lon="-6.119107995182276">
        <ele>219.31999999999999</ele>
        <time>2025-04-29T13:44:40Z</time>
      </trkpt>
      <trkpt lat="43.432072978466749" lon="-6.118946978822351">
        <ele>218.36000000000001</ele>
        <time>2025-04-29T13:44:41Z</time>
      </trkpt>
      <trkpt lat="43.432041965425014" lon="-6.118765007704496">
        <ele>217.88</ele>
        <time>2025-04-29T13:44:42Z</time>
      </trkpt>
      <trkpt lat="43.431950015947223" lon="-6.118224961683154">
        <ele>215.94999999999999</ele>
        <time>2025-04-29T13:44:45Z</time>
      </trkpt>
      <trkpt lat="43.431916991248727" lon="-6.118078026920557">
        <ele>214.99000000000001</ele>
        <time>2025-04-29T13:44:46Z</time>
      </trkpt>
      <trkpt lat="43.431892013177276" lon="-6.117966966703534">
        <ele>214.03</ele>
        <time>2025-04-29T13:44:47Z</time>
      </trkpt>
      <trkpt lat="43.43187902122736" lon="-6.117907036095858">
        <ele>213.06999999999999</ele>
        <time>2025-04-29T13:44:48Z</time>
      </trkpt>
      <trkpt lat="43.431701995432377" lon="-6.117968978360295">
        <ele>212.11000000000001</ele>
        <time>2025-04-29T13:44:49Z</time>
      </trkpt>
      <trkpt lat="43.431671988219023" lon="-6.118006026372314">
        <ele>211.15000000000001</ele>
        <time>2025-04-29T13:44:50Z</time>
      </trkpt>
      <trkpt lat="43.431604010984302" lon="-6.118113985285163">
        <ele>210.19</ele>
        <time>2025-04-29T13:44:51Z</time>
      </trkpt>
      <trkpt lat="43.431552965193987" lon="-6.118267038837075">
        <ele>208.74000000000001</ele>
        <time>2025-04-29T13:44:52Z</time>
      </trkpt>
      <trkpt lat="43.431489011272788" lon="-6.118425037711859">
        <ele>207.78</ele>
        <time>2025-04-29T13:44:53Z</time>
      </trkpt>
      <trkpt lat="43.431393038481474" lon="-6.118557974696159">
        <ele>206.34</ele>
        <time>2025-04-29T13:44:54Z</time>
      </trkpt>
      <trkpt lat="43.431292958557606" lon="-6.118697030469775">
        <ele>205.38</ele>
        <time>2025-04-29T13:44:55Z</time>
      </trkpt>
      <trkpt lat="43.431190028786659" lon="-6.118839019909501">
        <ele>204.41999999999999</ele>
        <time>2025-04-29T13:44:56Z</time>
      </trkpt>
      <trkpt lat="43.431091038510203" lon="-6.118974974378943">
        <ele>203.46000000000001</ele>
        <time>2025-04-29T13:44:57Z</time>
      </trkpt>
      <trkpt lat="43.430989030748606" lon="-6.119116963818669">
        <ele>202.97999999999999</ele>
        <time>2025-04-29T13:44:58Z</time>
      </trkpt>
      <trkpt lat="43.430879982188344" lon="-6.11926699988544">
        <ele>202.00999999999999</ele>
        <time>2025-04-29T13:44:59Z</time>
      </trkpt>
      <trkpt lat="43.430778980255127" lon="-6.119405971840024">
        <ele>201.53</ele>
        <time>2025-04-29T13:45:00Z</time>
      </trkpt>
      <trkpt lat="43.430651994422078" lon="-6.119493981823325">
        <ele>201.05000000000001</ele>
        <time>2025-04-29T13:45:01Z</time>
      </trkpt>
      <trkpt lat="43.430501036345959" lon="-6.119599007070065">
        <ele>200.56999999999999</ele>
        <time>2025-04-29T13:45:02Z</time>
      </trkpt>
      <trkpt lat="43.430425012484193" lon="-6.119599007070065">
        <ele>200.56999999999999</ele>
        <time>2025-04-29T13:45:03Z</time>
      </trkpt>
      <trkpt lat="43.430318981409073" lon="-6.119599007070065">
        <ele>200.09</ele>
        <time>2025-04-29T13:45:04Z</time>
      </trkpt>
      <trkpt lat="43.430222002789378" lon="-6.119599007070065">
        <ele>199.61000000000001</ele>
        <time>2025-04-29T13:45:05Z</time>
      </trkpt>
      <trkpt lat="43.430136004462838" lon="-6.11965399235487">
        <ele>199.13</ele>
        <time>2025-04-29T13:45:06Z</time>
      </trkpt>
      <trkpt lat="43.430136004462838" lon="-6.119745019823313">
        <ele>199.13</ele>
        <time>2025-04-29T13:45:07Z</time>
      </trkpt>
      <trkpt lat="43.430136004462838" lon="-6.119873011484742">
        <ele>198.65000000000001</ele>
        <time>2025-04-29T13:45:08Z</time>
      </trkpt>
      <trkpt lat="43.430136004462838" lon="-6.120011983439326">
        <ele>199.13</ele>
        <time>2025-04-29T13:45:09Z</time>
      </trkpt>
      <trkpt lat="43.430130975320935" lon="-6.120184985920787">
        <ele>199.13</ele>
        <time>2025-04-29T13:45:10Z</time>
      </trkpt>
      <trkpt lat="43.430101973935962" lon="-6.12036301754415">
        <ele>199.61000000000001</ele>
        <time>2025-04-29T13:45:11Z</time>
      </trkpt>
      <trkpt lat="43.430038020014763" lon="-6.120744980871677">
        <ele>200.56999999999999</ele>
        <time>2025-04-29T13:45:13Z</time>
      </trkpt>
      <trkpt lat="43.429974988102913" lon="-6.120940027758479">
        <ele>201.05000000000001</ele>
        <time>2025-04-29T13:45:14Z</time>
      </trkpt>
      <trkpt lat="43.429901981726289" lon="-6.121121998876333">
        <ele>201.53</ele>
        <time>2025-04-29T13:45:15Z</time>
      </trkpt>
      <trkpt lat="43.429821012541652" lon="-6.121298018842936">
        <ele>202.00999999999999</ele>
        <time>2025-04-29T13:45:16Z</time>
      </trkpt>
      <trkpt lat="43.429720010608435" lon="-6.121468003839254">
        <ele>202.49000000000001</ele>
        <time>2025-04-29T13:45:17Z</time>
      </trkpt>
      <trkpt lat="43.429616997018456" lon="-6.121621979400516">
        <ele>202.49000000000001</ele>
        <time>2025-04-29T13:45:18Z</time>
      </trkpt>
      <trkpt lat="43.429518006742001" lon="-6.121771009638906">
        <ele>202.97999999999999</ele>
        <time>2025-04-29T13:45:19Z</time>
      </trkpt>
      <trkpt lat="43.429462015628815" lon="-6.121920039877296">
        <ele>202.97999999999999</ele>
        <time>2025-04-29T13:45:20Z</time>
      </trkpt>
      <trkpt lat="43.429428990930319" lon="-6.122063035145402">
        <ele>203.46000000000001</ele>
        <time>2025-04-29T13:45:21Z</time>
      </trkpt>
      <trkpt lat="43.429448017850518" lon="-6.122225979343057">
        <ele>203.46000000000001</ele>
        <time>2025-04-29T13:45:22Z</time>
      </trkpt>
      <trkpt lat="43.429521024227142" lon="-6.122338967397809">
        <ele>203.46000000000001</ele>
        <time>2025-04-29T13:45:23Z</time>
      </trkpt>
      <trkpt lat="43.429565029218793" lon="-6.122496966272593">
        <ele>203.46000000000001</ele>
        <time>2025-04-29T13:45:24Z</time>
      </trkpt>
      <trkpt lat="43.429578021168709" lon="-6.122653959318996">
        <ele>203.46000000000001</ele>
        <time>2025-04-29T13:45:25Z</time>
      </trkpt>
      <trkpt lat="43.429594030603766" lon="-6.122838025912643">
        <ele>202.97999999999999</ele>
        <time>2025-04-29T13:45:26Z</time>
      </trkpt>
      <trkpt lat="43.429639963433146" lon="-6.12302795983851">
        <ele>202.97999999999999</ele>
        <time>2025-04-29T13:45:27Z</time>
      </trkpt>
      <trkpt lat="43.429707018658519" lon="-6.123231975361705">
        <ele>202.97999999999999</ele>
        <time>2025-04-29T13:45:28Z</time>
      </trkpt>
      <trkpt lat="43.430037014186382" lon="-6.124235037714243">
        <ele>203.94</ele>
        <time>2025-04-29T13:45:33Z</time>
      </trkpt>
      <trkpt lat="43.430064003914595" lon="-6.124387001618743">
        <ele>203.46000000000001</ele>
        <time>2025-04-29T13:45:34Z</time>
      </trkpt>
      <trkpt lat="43.430041959509254" lon="-6.124536031857133">
        <ele>203.46000000000001</ele>
        <time>2025-04-29T13:45:35Z</time>
      </trkpt>
      <trkpt lat="43.429990997537971" lon="-6.124695036560297">
        <ele>203.46000000000001</ele>
        <time>2025-04-29T13:45:36Z</time>
      </trkpt>
      <trkpt lat="43.429914973676205" lon="-6.124845994636416">
        <ele>204.41999999999999</ele>
        <time>2025-04-29T13:45:37Z</time>
      </trkpt>
      <trkpt lat="43.42983802780509" lon="-6.125001981854439">
        <ele>204.41999999999999</ele>
        <time>2025-04-29T13:45:38Z</time>
      </trkpt>
      <trkpt lat="43.429767033085227" lon="-6.125149000436068">
        <ele>204.41999999999999</ele>
        <time>2025-04-29T13:45:39Z</time>
      </trkpt>
      <trkpt lat="43.429729985073209" lon="-6.125305993482471">
        <ele>204.41999999999999</ele>
        <time>2025-04-29T13:45:40Z</time>
      </trkpt>
      <trkpt lat="43.429748006165028" lon="-6.125458041206002">
        <ele>204.41999999999999</ele>
        <time>2025-04-29T13:45:41Z</time>
      </trkpt>
      <trkpt lat="43.429764015600085" lon="-6.125589972361922">
        <ele>204.41999999999999</ele>
        <time>2025-04-29T13:45:42Z</time>
      </trkpt>
      <trkpt lat="43.429734008386731" lon="-6.125726010650396">
        <ele>204.90000000000001</ele>
        <time>2025-04-29T13:45:43Z</time>
      </trkpt>
      <trkpt lat="43.429671982303262" lon="-6.125852996483445">
        <ele>205.38</ele>
        <time>2025-04-29T13:45:44Z</time>
      </trkpt>
      <trkpt lat="43.429605010896921" lon="-6.1259900406003">
        <ele>205.86000000000001</ele>
        <time>2025-04-29T13:45:45Z</time>
      </trkpt>
      <trkpt lat="43.429309967905283" lon="-6.126566966995597">
        <ele>206.34</ele>
        <time>2025-04-29T13:45:49Z</time>
      </trkpt>
      <trkpt lat="43.429222963750362" lon="-6.126666041091085">
        <ele>206.81999999999999</ele>
        <time>2025-04-29T13:45:50Z</time>
      </trkpt>
      <trkpt lat="43.429132020100951" lon="-6.126769976690412">
        <ele>206.81999999999999</ele>
        <time>2025-04-29T13:45:51Z</time>
      </trkpt>
      <trkpt lat="43.429032023996115" lon="-6.126882964745164">
        <ele>206.81999999999999</ele>
        <time>2025-04-29T13:45:52Z</time>
      </trkpt>
      <trkpt lat="43.428920041769743" lon="-6.126995030790567">
        <ele>206.81999999999999</ele>
        <time>2025-04-29T13:45:53Z</time>
      </trkpt>
      <trkpt lat="43.428266001865268" lon="-6.127358973026276">
        <ele>203.46000000000001</ele>
        <time>2025-04-29T13:45:58Z</time>
      </trkpt>
      <trkpt lat="43.428158964961767" lon="-6.127494005486369">
        <ele>202.49000000000001</ele>
        <time>2025-04-29T13:45:59Z</time>
      </trkpt>
      <trkpt lat="43.427465027198195" lon="-6.12831300124526">
        <ele>197.21000000000001</ele>
        <time>2025-04-29T13:46:05Z</time>
      </trkpt>
      <trkpt lat="43.427400989457965" lon="-6.128515005111694">
        <ele>196.25</ele>
        <time>2025-04-29T13:46:06Z</time>
      </trkpt>
      <trkpt lat="43.427340975031257" lon="-6.128722038120031">
        <ele>195.28</ele>
        <time>2025-04-29T13:46:07Z</time>
      </trkpt>
      <trkpt lat="43.427136037498713" lon="-6.1295560374856">
        <ele>190.96000000000001</ele>
        <time>2025-04-29T13:46:11Z</time>
      </trkpt>
      <trkpt lat="43.427114998921752" lon="-6.129744965583086">
        <ele>190</ele>
        <time>2025-04-29T13:46:12Z</time>
      </trkpt>
      <trkpt lat="43.427160009741783" lon="-6.129913022741675">
        <ele>189.52000000000001</ele>
        <time>2025-04-29T13:46:13Z</time>
      </trkpt>
      <trkpt lat="43.427207032218575" lon="-6.130089964717627">
        <ele>188.56</ele>
        <time>2025-04-29T13:46:14Z</time>
      </trkpt>
      <trkpt lat="43.427252965047956" lon="-6.130262967199087">
        <ele>188.08000000000001</ele>
        <time>2025-04-29T13:46:15Z</time>
      </trkpt>
      <trkpt lat="43.427293030545115" lon="-6.130595980212092">
        <ele>187.11000000000001</ele>
        <time>2025-04-29T13:46:17Z</time>
      </trkpt>
      <trkpt lat="43.427299987524748" lon="-6.130756996572018">
        <ele>186.15000000000001</ele>
        <time>2025-04-29T13:46:18Z</time>
      </trkpt>
      <trkpt lat="43.427297975867987" lon="-6.130921030417085">
        <ele>186.15000000000001</ele>
        <time>2025-04-29T13:46:19Z</time>
      </trkpt>
      <trkpt lat="43.427263023331761" lon="-6.131639024242759">
        <ele>184.71000000000001</ele>
        <time>2025-04-29T13:46:23Z</time>
      </trkpt>
      <trkpt lat="43.42730300500989" lon="-6.131841028109193">
        <ele>183.75</ele>
        <time>2025-04-29T13:46:24Z</time>
      </trkpt>
      <trkpt lat="43.427352039143443" lon="-6.132026016712189">
        <ele>183.27000000000001</ele>
        <time>2025-04-29T13:46:25Z</time>
      </trkpt>
      <trkpt lat="43.427401995286345" lon="-6.132217962294817">
        <ele>182.78999999999999</ele>
        <time>2025-04-29T13:46:26Z</time>
      </trkpt>
      <trkpt lat="43.427453963086009" lon="-6.13241602666676">
        <ele>182.31</ele>
        <time>2025-04-29T13:46:27Z</time>
      </trkpt>
      <trkpt lat="43.427515989169478" lon="-6.132614007219672">
        <ele>181.83000000000001</ele>
        <time>2025-04-29T13:46:28Z</time>
      </trkpt>
      <trkpt lat="43.427916979417205" lon="-6.133786970749497">
        <ele>176.53999999999999</ele>
        <time>2025-04-29T13:46:35Z</time>
      </trkpt>
      <trkpt lat="43.4279690310359" lon="-6.133939018473029">
        <ele>175.58000000000001</ele>
        <time>2025-04-29T13:46:36Z</time>
      </trkpt>
      <trkpt lat="43.428009012714028" lon="-6.134089976549149">
        <ele>174.62</ele>
        <time>2025-04-29T13:46:37Z</time>
      </trkpt>
      <trkpt lat="43.427997026592493" lon="-6.1342219915241">
        <ele>173.66</ele>
        <time>2025-04-29T13:46:38Z</time>
      </trkpt>
      <trkpt lat="43.427964001893997" lon="-6.13435098901391">
        <ele>172.69</ele>
        <time>2025-04-29T13:46:39Z</time>
      </trkpt>
      <trkpt lat="43.427902981638908" lon="-6.134472023695707">
        <ele>171.72999999999999</ele>
        <time>2025-04-29T13:46:40Z</time>
      </trkpt>
      <trkpt lat="43.427836010232568" lon="-6.134604038670659">
        <ele>170.77000000000001</ele>
        <time>2025-04-29T13:46:41Z</time>
      </trkpt>
      <trkpt lat="43.427595030516386" lon="-6.134967980906367">
        <ele>168.37</ele>
        <time>2025-04-29T13:46:44Z</time>
      </trkpt>
      <trkpt lat="43.42749503441155" lon="-6.135052973404527">
        <ele>167.41</ele>
        <time>2025-04-29T13:46:45Z</time>
      </trkpt>
      <trkpt lat="43.427073005586863" lon="-6.135361008346081">
        <ele>164.52000000000001</ele>
        <time>2025-04-29T13:46:49Z</time>
      </trkpt>
      <trkpt lat="43.426954988390207" lon="-6.135396966710687">
        <ele>164.03999999999999</ele>
        <time>2025-04-29T13:46:50Z</time>
      </trkpt>
      <trkpt lat="43.426828002557158" lon="-6.135434014722705">
        <ele>163.08000000000001</ele>
        <time>2025-04-29T13:46:51Z</time>
      </trkpt>
      <trkpt lat="43.426704034209251" lon="-6.13538196310401">
        <ele>162.59999999999999</ele>
        <time>2025-04-29T13:46:52Z</time>
      </trkpt>
      <trkpt lat="43.426582999527454" lon="-6.135331001132727">
        <ele>161.63999999999999</ele>
        <time>2025-04-29T13:46:53Z</time>
      </trkpt>
      <trkpt lat="43.426472023129463" lon="-6.135283978655934">
        <ele>160.68000000000001</ele>
        <time>2025-04-29T13:46:54Z</time>
      </trkpt>
      <trkpt lat="43.42642399482429" lon="-6.135264029726386">
        <ele>159.72</ele>
        <time>2025-04-29T13:46:55Z</time>
      </trkpt>
      <trkpt lat="43.42638099566102" lon="-6.135327983647585">
        <ele>158.27000000000001</ele>
        <time>2025-04-29T13:46:56Z</time>
      </trkpt>
      <trkpt lat="43.426364986225963" lon="-6.135395038872957">
        <ele>157.31</ele>
        <time>2025-04-29T13:46:57Z</time>
      </trkpt>
      <trkpt lat="43.426341013982892" lon="-6.135498974472284">
        <ele>156.34999999999999</ele>
        <time>2025-04-29T13:46:58Z</time>
      </trkpt>
      <trkpt lat="43.426312012597919" lon="-6.135622020810843">
        <ele>155.38999999999999</ele>
        <time>2025-04-29T13:46:59Z</time>
      </trkpt>
      <trkpt lat="43.426279993727803" lon="-6.135757975280285">
        <ele>154.43000000000001</ele>
        <time>2025-04-29T13:47:00Z</time>
      </trkpt>
      <trkpt lat="43.426246969029307" lon="-6.13589895889163">
        <ele>152.99000000000001</ele>
        <time>2025-04-29T13:47:01Z</time>
      </trkpt>
      <trkpt lat="43.426162982359529" lon="-6.136056035757065">
        <ele>152.03</ele>
        <time>2025-04-29T13:47:02Z</time>
      </trkpt>
      <trkpt lat="43.426068015396595" lon="-6.136173969134688">
        <ele>151.06</ele>
        <time>2025-04-29T13:47:03Z</time>
      </trkpt>
      <trkpt lat="43.425947986543179" lon="-6.136276982724667">
        <ele>150.09999999999999</ele>
        <time>2025-04-29T13:47:04Z</time>
      </trkpt>
      <trkpt lat="43.425826029852033" lon="-6.136376978829503">
        <ele>149.62</ele>
        <time>2025-04-29T13:47:05Z</time>
      </trkpt>
      <trkpt lat="43.424564972519875" lon="-6.137274010106921">
        <ele>143.37</ele>
        <time>2025-04-29T13:47:15Z</time>
      </trkpt>
      <trkpt lat="43.423553025349975" lon="-6.137867029756308">
        <ele>138.56999999999999</ele>
        <time>2025-04-29T13:47:23Z</time>
      </trkpt>
      <trkpt lat="43.423440959304571" lon="-6.137889996170998">
        <ele>138.09</ele>
        <time>2025-04-29T13:47:24Z</time>
      </trkpt>
      <trkpt lat="43.423340963199735" lon="-6.137889996170998">
        <ele>137.61000000000001</ele>
        <time>2025-04-29T13:47:25Z</time>
      </trkpt>
      <trkpt lat="43.423242978751659" lon="-6.137855965644121">
        <ele>137.13</ele>
        <time>2025-04-29T13:47:26Z</time>
      </trkpt>
      <trkpt lat="43.423138037323952" lon="-6.137819001451135">
        <ele>136.63999999999999</ele>
        <time>2025-04-29T13:47:27Z</time>
      </trkpt>
      <trkpt lat="43.422836037352681" lon="-6.137672988697887">
        <ele>136.16</ele>
        <time>2025-04-29T13:47:30Z</time>
      </trkpt>
      <trkpt lat="43.422647025436163" lon="-6.137538040056825">
        <ele>135.68000000000001</ele>
        <time>2025-04-29T13:47:32Z</time>
      </trkpt>
      <trkpt lat="43.42246999964118" lon="-6.137411976233125">
        <ele>135.19999999999999</ele>
        <time>2025-04-29T13:47:34Z</time>
      </trkpt>
      <trkpt lat="43.422347037121654" lon="-6.137322960421443">
        <ele>134.72</ele>
        <time>2025-04-29T13:47:35Z</time>
      </trkpt>
      <trkpt lat="43.422322981059551" lon="-6.137254983186722">
        <ele>134.24000000000001</ele>
        <time>2025-04-29T13:47:36Z</time>
      </trkpt>
      <trkpt lat="43.422276964411139" lon="-6.137124979868531">
        <ele>133.75999999999999</ele>
        <time>2025-04-29T13:47:37Z</time>
      </trkpt>
      <trkpt lat="43.422230025753379" lon="-6.136987013742328">
        <ele>132.80000000000001</ele>
        <time>2025-04-29T13:47:38Z</time>
      </trkpt>
      <trkpt lat="43.422175040468574" lon="-6.136830020695925">
        <ele>132.31999999999999</ele>
        <time>2025-04-29T13:47:39Z</time>
      </trkpt>
      <trkpt lat="43.422088036313653" lon="-6.136779980733991">
        <ele>131.84</ele>
        <time>2025-04-29T13:47:40Z</time>
      </trkpt>
      <trkpt lat="43.421979993581772" lon="-6.136718960478902">
        <ele>131.36000000000001</ele>
        <time>2025-04-29T13:47:41Z</time>
      </trkpt>
      <trkpt lat="43.421831969171762" lon="-6.136689959093928">
        <ele>130.88</ele>
        <time>2025-04-29T13:47:42Z</time>
      </trkpt>
      <trkpt lat="43.421727027744055" lon="-6.136766988784075">
        <ele>130.88</ele>
        <time>2025-04-29T13:47:43Z</time>
      </trkpt>
      <trkpt lat="43.421612028032541" lon="-6.136851981282234">
        <ele>130.40000000000001</ele>
        <time>2025-04-29T13:47:44Z</time>
      </trkpt>
      <trkpt lat="43.421467021107674" lon="-6.136959018185735">
        <ele>129.91999999999999</ele>
        <time>2025-04-29T13:47:45Z</time>
      </trkpt>
      <trkpt lat="43.421142976731062" lon="-6.137254983186722">
        <ele>129.43000000000001</ele>
        <time>2025-04-29T13:47:48Z</time>
      </trkpt>
      <trkpt lat="43.42100702226162" lon="-6.137336036190391">
        <ele>129.43000000000001</ele>
        <time>2025-04-29T13:47:49Z</time>
      </trkpt>
      <trkpt lat="43.420864026993513" lon="-6.137420022860169">
        <ele>128.94999999999999</ele>
        <time>2025-04-29T13:47:50Z</time>
      </trkpt>
      <trkpt lat="43.42070896178484" lon="-6.137540973722935">
        <ele>127.98999999999999</ele>
        <time>2025-04-29T13:47:51Z</time>
      </trkpt>
      <trkpt lat="43.420607959851623" lon="-6.137707019224763">
        <ele>127.03</ele>
        <time>2025-04-29T13:47:52Z</time>
      </trkpt>
      <trkpt lat="43.420503018423915" lon="-6.137881027534604">
        <ele>126.06999999999999</ele>
        <time>2025-04-29T13:47:53Z</time>
      </trkpt>
      <trkpt lat="43.420122982934117" lon="-6.138547975569964">
        <ele>122.22</ele>
        <time>2025-04-29T13:47:57Z</time>
      </trkpt>
      <trkpt lat="43.420089958235621" lon="-6.138709997758269">
        <ele>121.26000000000001</ele>
        <time>2025-04-29T13:47:58Z</time>
      </trkpt>
      <trkpt lat="43.420058023184538" lon="-6.138864979147911">
        <ele>120.3</ele>
        <time>2025-04-29T13:47:59Z</time>
      </trkpt>
      <trkpt lat="43.420026004314423" lon="-6.139017026871443">
        <ele>118.86</ele>
        <time>2025-04-29T13:48:00Z</time>
      </trkpt>
      <trkpt lat="43.419986022636294" lon="-6.139211989939213">
        <ele>117.42</ele>
        <time>2025-04-29T13:48:01Z</time>
      </trkpt>
      <trkpt lat="43.41993598267436" lon="-6.139321960508823">
        <ele>115.98</ele>
        <time>2025-04-29T13:48:02Z</time>
      </trkpt>
      <trkpt lat="43.419850990176201" lon="-6.139478031545878">
        <ele>114.53</ele>
        <time>2025-04-29T13:48:03Z</time>
      </trkpt>
      <trkpt lat="43.419734984636307" lon="-6.139605017378926">
        <ele>113.09</ele>
        <time>2025-04-29T13:48:04Z</time>
      </trkpt>
      <trkpt lat="43.4196110162884" lon="-6.139732003211975">
        <ele>111.65000000000001</ele>
        <time>2025-04-29T13:48:05Z</time>
      </trkpt>
      <trkpt lat="43.419200973585248" lon="-6.140082031488419">
        <ele>107.81</ele>
        <time>2025-04-29T13:48:08Z</time>
      </trkpt>
      <trkpt lat="43.419040963053703" lon="-6.140201976522803">
        <ele>106.84</ele>
        <time>2025-04-29T13:48:09Z</time>
      </trkpt>
      <trkpt lat="43.418884975835681" lon="-6.140227038413286">
        <ele>105.40000000000001</ele>
        <time>2025-04-29T13:48:10Z</time>
      </trkpt>
      <trkpt lat="43.418729994446039" lon="-6.140252016484737">
        <ele>104.44</ele>
        <time>2025-04-29T13:48:11Z</time>
      </trkpt>
      <trkpt lat="43.418580964207649" lon="-6.140274982899427">
        <ele>103</ele>
        <time>2025-04-29T13:48:12Z</time>
      </trkpt>
      <trkpt lat="43.417222006246448" lon="-6.140269031748176">
        <ele>93.870000000000005</ele>
        <time>2025-04-29T13:48:21Z</time>
      </trkpt>
      <trkpt lat="43.417075993493199" lon="-6.140271965414286">
        <ele>93.390000000000001</ele>
        <time>2025-04-29T13:48:22Z</time>
      </trkpt>
      <trkpt lat="43.416666034609079" lon="-6.140385959297419">
        <ele>90.980000000000004</ele>
        <time>2025-04-29T13:48:25Z</time>
      </trkpt>
      <trkpt lat="43.416576012969017" lon="-6.140475980937481">
        <ele>90.019999999999996</ele>
        <time>2025-04-29T13:48:26Z</time>
      </trkpt>
      <trkpt lat="43.416532007977366" lon="-6.140520991757512">
        <ele>89.060000000000002</ele>
        <time>2025-04-29T13:48:27Z</time>
      </trkpt>
      <trkpt lat="43.416480962187052" lon="-6.140673961490393">
        <ele>88.099999999999994</ele>
        <time>2025-04-29T13:48:28Z</time>
      </trkpt>
      <trkpt lat="43.416422959417105" lon="-6.140813017264009">
        <ele>87.620000000000005</ele>
        <time>2025-04-29T13:48:29Z</time>
      </trkpt>
      <trkpt lat="43.416357999667525" lon="-6.140908990055323">
        <ele>86.659999999999997</ele>
        <time>2025-04-29T13:48:30Z</time>
      </trkpt>
      <trkpt lat="43.416124982759356" lon="-6.141221970319748">
        <ele>83.769999999999996</ele>
        <time>2025-04-29T13:48:33Z</time>
      </trkpt>
      <trkpt lat="43.416037978604436" lon="-6.141287013888359">
        <ele>82.810000000000002</ele>
        <time>2025-04-29T13:48:34Z</time>
      </trkpt>
      <trkpt lat="43.415960026904941" lon="-6.14133202470839">
        <ele>81.849999999999994</ele>
        <time>2025-04-29T13:48:35Z</time>
      </trkpt>
      <trkpt lat="43.41589598916471" lon="-6.141279973089695">
        <ele>81.370000000000005</ele>
        <time>2025-04-29T13:48:36Z</time>
      </trkpt>
      <trkpt lat="43.415845027193427" lon="-6.141229011118412">
        <ele>80.409999999999997</ele>
        <time>2025-04-29T13:48:37Z</time>
      </trkpt>
      <trkpt lat="43.415845027193427" lon="-6.141229011118412">
        <ele>79.450000000000003</ele>
        <time>2025-04-29T13:48:38Z</time>
      </trkpt>
      <trkpt lat="43.415821976959705" lon="-6.141090039163828">
        <ele>78.480000000000004</ele>
        <time>2025-04-29T13:48:39Z</time>
      </trkpt>
      <trkpt lat="43.415804961696267" lon="-6.140989037230611">
        <ele>77.519999999999996</ele>
        <time>2025-04-29T13:48:40Z</time>
      </trkpt>
      <trkpt lat="43.415750982239842" lon="-6.1407530028373">
        <ele>74.640000000000001</ele>
        <time>2025-04-29T13:48:42Z</time>
      </trkpt>
      <trkpt lat="43.415579991415143" lon="-6.14066599868238">
        <ele>73.680000000000007</ele>
        <time>2025-04-29T13:48:43Z</time>
      </trkpt>
      <trkpt lat="43.415545038878918" lon="-6.140671027824283">
        <ele>72.719999999999999</ele>
        <time>2025-04-29T13:48:44Z</time>
      </trkpt>
      <trkpt lat="43.415503967553377" lon="-6.14073297008872">
        <ele>71.269999999999996</ele>
        <time>2025-04-29T13:48:45Z</time>
      </trkpt>
      <trkpt lat="43.415464991703629" lon="-6.140792984515429">
        <ele>70.310000000000002</ele>
        <time>2025-04-29T13:48:46Z</time>
      </trkpt>
      <trkpt lat="43.415412018075585" lon="-6.140875965356827">
        <ele>68.870000000000005</ele>
        <time>2025-04-29T13:48:47Z</time>
      </trkpt>
      <trkpt lat="43.41535996645689" lon="-6.140957018360496">
        <ele>67.909999999999997</ele>
        <time>2025-04-29T13:48:48Z</time>
      </trkpt>
      <trkpt lat="43.41531596146524" lon="-6.141081992536783">
        <ele>67.430000000000007</ele>
        <time>2025-04-29T13:48:49Z</time>
      </trkpt>
      <trkpt lat="43.415334988385439" lon="-6.1412020213902">
        <ele>66.950000000000003</ele>
        <time>2025-04-29T13:48:50Z</time>
      </trkpt>
      <trkpt lat="43.415354015305638" lon="-6.141321966424584">
        <ele>65.989999999999995</ele>
        <time>2025-04-29T13:48:51Z</time>
      </trkpt>
      <trkpt lat="43.415389973670244" lon="-6.141553977504373">
        <ele>64.549999999999997</ele>
        <time>2025-04-29T13:48:53Z</time>
      </trkpt>
      <trkpt lat="43.415409000590444" lon="-6.141670988872647">
        <ele>64.069999999999993</ele>
        <time>2025-04-29T13:48:54Z</time>
      </trkpt>
      <trkpt lat="43.415426015853882" lon="-6.141777019947767">
        <ele>63.579999999999998</ele>
        <time>2025-04-29T13:48:55Z</time>
      </trkpt>
      <trkpt lat="43.415411012247205" lon="-6.141928983852267">
        <ele>63.579999999999998</ele>
        <time>2025-04-29T13:48:56Z</time>
      </trkpt>
      <trkpt lat="43.415381005033851" lon="-6.142021017149091">
        <ele>64.069999999999993</ele>
        <time>2025-04-29T13:48:57Z</time>
      </trkpt>
      <trkpt lat="43.415331970900297" lon="-6.142135011032224">
        <ele>64.549999999999997</ele>
        <time>2025-04-29T13:48:58Z</time>
      </trkpt>
      <trkpt lat="43.415281008929014" lon="-6.142204999923706">
        <ele>65.030000000000001</ele>
        <time>2025-04-29T13:48:59Z</time>
      </trkpt>
      <trkpt lat="43.415231974795461" lon="-6.142269959673286">
        <ele>65.510000000000005</ele>
        <time>2025-04-29T13:49:00Z</time>
      </trkpt>
      <trkpt lat="43.415140025317669" lon="-6.142396023496985">
        <ele>66.469999999999999</ele>
        <time>2025-04-29T13:49:03Z</time>
      </trkpt>
      <trkpt lat="43.415140025317669" lon="-6.142615964636207">
        <ele>66.950000000000003</ele>
        <time>2025-04-29T13:49:04Z</time>
      </trkpt>
      <trkpt lat="43.415190987288952" lon="-6.142673967406154">
        <ele>67.430000000000007</ele>
        <time>2025-04-29T13:49:05Z</time>
      </trkpt>
      <trkpt lat="43.41527296230197" lon="-6.142860967665911">
        <ele>67.909999999999997</ele>
        <time>2025-04-29T13:49:07Z</time>
      </trkpt>
      <trkpt lat="43.415317973122001" lon="-6.142997005954385">
        <ele>67.430000000000007</ele>
        <time>2025-04-29T13:49:08Z</time>
      </trkpt>
      <trkpt lat="43.415372958406806" lon="-6.143160033971071">
        <ele>67.430000000000007</ele>
        <time>2025-04-29T13:49:09Z</time>
      </trkpt>
      <trkpt lat="43.415363989770412" lon="-6.143280984833837">
        <ele>66.950000000000003</ele>
        <time>2025-04-29T13:49:10Z</time>
      </trkpt>
      <trkpt lat="43.415352003648877" lon="-6.143454993143678">
        <ele>66.950000000000003</ele>
        <time>2025-04-29T13:49:11Z</time>
      </trkpt>
      <trkpt lat="43.415339011698961" lon="-6.143640987575054">
        <ele>66.950000000000003</ele>
        <time>2025-04-29T13:49:12Z</time>
      </trkpt>
      <trkpt lat="43.415310010313988" lon="-6.143821030855179">
        <ele>66.469999999999999</ele>
        <time>2025-04-29T13:49:13Z</time>
      </trkpt>
      <trkpt lat="43.415253013372421" lon="-6.143991015851498">
        <ele>65.989999999999995</ele>
        <time>2025-04-29T13:49:14Z</time>
      </trkpt>
      <trkpt lat="43.415196016430855" lon="-6.144164018332958">
        <ele>65.030000000000001</ele>
        <time>2025-04-29T13:49:15Z</time>
      </trkpt>
      <trkpt lat="43.415127033367753" lon="-6.144332997500897">
        <ele>64.069999999999993</ele>
        <time>2025-04-29T13:49:16Z</time>
      </trkpt>
      <trkpt lat="43.415040029212832" lon="-6.144492002204061">
        <ele>63.100000000000001</ele>
        <time>2025-04-29T13:49:17Z</time>
      </trkpt>
      <trkpt lat="43.414915977045894" lon="-6.144631979987025">
        <ele>61.659999999999997</ele>
        <time>2025-04-29T13:49:18Z</time>
      </trkpt>
      <trkpt lat="43.414780022576451" lon="-6.144775981083512">
        <ele>60.700000000000003</ele>
        <time>2025-04-29T13:49:19Z</time>
      </trkpt>
      <trkpt lat="43.414638033136725" lon="-6.14492098800838">
        <ele>59.259999999999998</ele>
        <time>2025-04-29T13:49:20Z</time>
      </trkpt>
      <trkpt lat="43.413302041590214" lon="-6.146048018708825">
        <ele>49.159999999999997</ele>
        <time>2025-04-29T13:49:28Z</time>
      </trkpt>
      <trkpt lat="43.413170026615262" lon="-6.146178022027016">
        <ele>48.200000000000003</ele>
        <time>2025-04-29T13:49:29Z</time>
      </trkpt>
      <trkpt lat="43.413077993318439" lon="-6.146300984546542">
        <ele>46.759999999999998</ele>
        <time>2025-04-29T13:49:30Z</time>
      </trkpt>
      <trkpt lat="43.412916976958513" lon="-6.146542970091105">
        <ele>44.840000000000003</ele>
        <time>2025-04-29T13:49:32Z</time>
      </trkpt>
      <trkpt lat="43.412197977304459" lon="-6.147590037435293">
        <ele>37.149999999999999</ele>
        <time>2025-04-29T13:49:41Z</time>
      </trkpt>
      <trkpt lat="43.411935037001967" lon="-6.147942999377847">
        <ele>35.229999999999997</ele>
        <time>2025-04-29T13:49:44Z</time>
      </trkpt>
      <trkpt lat="43.411843003705144" lon="-6.148065039888024">
        <ele>35.229999999999997</ele>
        <time>2025-04-29T13:49:45Z</time>
      </trkpt>
      <trkpt lat="43.411724986508489" lon="-6.148202000185847">
        <ele>35.229999999999997</ele>
        <time>2025-04-29T13:49:46Z</time>
      </trkpt>
      <trkpt lat="43.411591965705156" lon="-6.148419007658958">
        <ele>34.259999999999998</ele>
        <time>2025-04-29T13:49:48Z</time>
      </trkpt>
      <trkpt lat="43.411536980420351" lon="-6.148539036512375">
        <ele>33.780000000000001</ele>
        <time>2025-04-29T13:49:49Z</time>
      </trkpt>
      <trkpt lat="43.411507979035378" lon="-6.148643977940083">
        <ele>33.299999999999997</ele>
        <time>2025-04-29T13:49:50Z</time>
      </trkpt>
      <trkpt lat="43.411486018449068" lon="-6.148724025115371">
        <ele>33.299999999999997</ele>
        <time>2025-04-29T13:49:51Z</time>
      </trkpt>
      <trkpt lat="43.41144603677094" lon="-6.148868026211858">
        <ele>32.82</ele>
        <time>2025-04-29T13:49:52Z</time>
      </trkpt>
      <trkpt lat="43.411595989018679" lon="-6.148931980133057">
        <ele>32.340000000000003</ele>
        <time>2025-04-29T13:49:53Z</time>
      </trkpt>
      <trkpt lat="43.41161803342402" lon="-6.148974979296327">
        <ele>32.340000000000003</ele>
        <time>2025-04-29T13:49:54Z</time>
      </trkpt>
      <trkpt lat="43.411635970696807" lon="-6.14898000843823">
        <ele>31.859999999999999</ele>
        <time>2025-04-29T13:49:55Z</time>
      </trkpt>
      <trkpt lat="43.411729009822011" lon="-6.149008003994823">
        <ele>31.859999999999999</ele>
        <time>2025-04-29T13:49:56Z</time>
      </trkpt>
      <trkpt lat="43.41183403506875" lon="-6.149039017036557">
        <ele>31.859999999999999</ele>
        <time>2025-04-29T13:49:57Z</time>
      </trkpt>
      <trkpt lat="43.411940988153219" lon="-6.149018984287977">
        <ele>32.340000000000003</ele>
        <time>2025-04-29T13:49:58Z</time>
      </trkpt>
      <trkpt lat="43.41205196455121" lon="-6.148998029530048">
        <ele>32.340000000000003</ele>
        <time>2025-04-29T13:49:59Z</time>
      </trkpt>
      <trkpt lat="43.413096014410257" lon="-6.148913959041238">
        <ele>35.229999999999997</ele>
        <time>2025-04-29T13:50:06Z</time>
      </trkpt>
      <trkpt lat="43.414688995108008" lon="-6.149120992049575">
        <ele>37.630000000000003</ele>
        <time>2025-04-29T13:50:14Z</time>
      </trkpt>
      <trkpt lat="43.415375975891948" lon="-6.149225011467934">
        <ele>38.109999999999999</ele>
        <time>2025-04-29T13:50:19Z</time>
      </trkpt>
      <trkpt lat="43.415520982816815" lon="-6.149246972054243">
        <ele>38.590000000000003</ele>
        <time>2025-04-29T13:50:22Z</time>
      </trkpt>
      <trkpt lat="43.415537998080254" lon="-6.149248983711004">
        <ele>38.590000000000003</ele>
        <time>2025-04-29T13:50:23Z</time>
      </trkpt>
      <trkpt lat="43.41544596478343" lon="-6.149235991761088">
        <ele>38.590000000000003</ele>
        <time>2025-04-29T13:50:27Z</time>
      </trkpt>
      <trkpt lat="43.415060983970761" lon="-6.149176983162761">
        <ele>38.590000000000003</ele>
        <time>2025-04-29T13:50:31Z</time>
      </trkpt>
      <trkpt lat="43.414039984345436" lon="-6.1490230076015">
        <ele>38.109999999999999</ele>
        <time>2025-04-29T13:50:36Z</time>
      </trkpt>
      <trkpt lat="43.412699969485402" lon="-6.148893004283309">
        <ele>39.549999999999997</ele>
        <time>2025-04-29T13:50:44Z</time>
      </trkpt>
      <trkpt lat="43.411878040060401" lon="-6.149030970409513">
        <ele>41.469999999999999</ele>
        <time>2025-04-29T13:50:51Z</time>
      </trkpt>
      <trkpt lat="43.411785000935197" lon="-6.149074975401163">
        <ele>41.950000000000003</ele>
        <time>2025-04-29T13:50:52Z</time>
      </trkpt>
      <trkpt lat="43.41166103258729" lon="-6.149168014526367">
        <ele>41.950000000000003</ele>
        <time>2025-04-29T13:50:53Z</time>
      </trkpt>
      <trkpt lat="43.411696990951896" lon="-6.14930204115808">
        <ele>41.950000000000003</ele>
        <time>2025-04-29T13:50:54Z</time>
      </trkpt>
      <trkpt lat="43.411743007600307" lon="-6.149374041706324">
        <ele>41.950000000000003</ele>
        <time>2025-04-29T13:50:55Z</time>
      </trkpt>
      <trkpt lat="43.411803022027016" lon="-6.149468002840877">
        <ele>41.950000000000003</ele>
        <time>2025-04-29T13:50:56Z</time>
      </trkpt>
      <trkpt lat="43.411868987604976" lon="-6.149573028087616">
        <ele>41.950000000000003</ele>
        <time>2025-04-29T13:50:57Z</time>
      </trkpt>
      <trkpt lat="43.411950040608644" lon="-6.14969096146524">
        <ele>42.439999999999998</ele>
        <time>2025-04-29T13:50:58Z</time>
      </trkpt>
      <trkpt lat="43.413032982498407" lon="-6.150421025231481">
        <ele>43.399999999999999</ele>
        <time>2025-04-29T13:51:06Z</time>
      </trkpt>
      <trkpt lat="43.413700014352798" lon="-6.150821009650827">
        <ele>44.840000000000003</ele>
        <time>2025-04-29T13:51:11Z</time>
      </trkpt>
      <trkpt lat="43.413775032386184" lon="-6.150921005755663">
        <ele>44.840000000000003</ele>
        <time>2025-04-29T13:51:12Z</time>
      </trkpt>
      <trkpt lat="43.413833035156131" lon="-6.151015972718597">
        <ele>45.32</ele>
        <time>2025-04-29T13:51:13Z</time>
      </trkpt>
      <trkpt lat="43.413860024884343" lon="-6.151154022663832">
        <ele>45.799999999999997</ele>
        <time>2025-04-29T13:51:14Z</time>
      </trkpt>
      <trkpt lat="43.413868993520737" lon="-6.151287965476513">
        <ele>46.759999999999998</ele>
        <time>2025-04-29T13:51:15Z</time>
      </trkpt>
      <trkpt lat="43.41385398991406" lon="-6.151444958522916">
        <ele>46.759999999999998</ele>
        <time>2025-04-29T13:51:16Z</time>
      </trkpt>
      <trkpt lat="43.413837980479002" lon="-6.151605974882841">
        <ele>47.240000000000002</ele>
        <time>2025-04-29T13:51:17Z</time>
      </trkpt>
      <trkpt lat="43.41361602768302" lon="-6.153633976355195">
        <ele>45.799999999999997</ele>
        <time>2025-04-29T13:51:29Z</time>
      </trkpt>
      <trkpt lat="43.413472026586533" lon="-6.154576018452644">
        <ele>44.359999999999999</ele>
        <time>2025-04-29T13:51:35Z</time>
      </trkpt>
      <trkpt lat="43.413431039080024" lon="-6.154724964872003">
        <ele>44.359999999999999</ele>
        <time>2025-04-29T13:51:36Z</time>
      </trkpt>
      <trkpt lat="43.412957964465022" lon="-6.156359016895294">
        <ele>49.649999999999999</ele>
        <time>2025-04-29T13:51:48Z</time>
      </trkpt>
      <trkpt lat="43.412668034434319" lon="-6.157138030976057">
        <ele>51.090000000000003</ele>
        <time>2025-04-29T13:51:54Z</time>
      </trkpt>
      <trkpt lat="43.412597961723804" lon="-6.157254036515951">
        <ele>51.57</ele>
        <time>2025-04-29T13:51:55Z</time>
      </trkpt>
      <trkpt lat="43.411761028692126" lon="-6.158361034467816">
        <ele>51.57</ele>
        <time>2025-04-29T13:52:06Z</time>
      </trkpt>
      <trkpt lat="43.411694979295135" lon="-6.158443009480834">
        <ele>51.57</ele>
        <time>2025-04-29T13:52:07Z</time>
      </trkpt>
      <trkpt lat="43.41116800904274" lon="-6.159181036055088">
        <ele>52.049999999999997</ele>
        <time>2025-04-29T13:52:15Z</time>
      </trkpt>
      <trkpt lat="43.411098020151258" lon="-6.159284971654415">
        <ele>52.049999999999997</ele>
        <time>2025-04-29T13:52:16Z</time>
      </trkpt>
      <trkpt lat="43.410963993519545" lon="-6.159627959132195">
        <ele>51.090000000000003</ele>
        <time>2025-04-29T13:52:19Z</time>
      </trkpt>
      <trkpt lat="43.410880006849766" lon="-6.160007994621992">
        <ele>51.090000000000003</ele>
        <time>2025-04-29T13:52:22Z</time>
      </trkpt>
      <trkpt lat="43.41086701489985" lon="-6.160274958238006">
        <ele>51.090000000000003</ele>
        <time>2025-04-29T13:52:24Z</time>
      </trkpt>
      <trkpt lat="43.410844970494509" lon="-6.16148698143661">
        <ele>53.969999999999999</ele>
        <time>2025-04-29T13:52:34Z</time>
      </trkpt>
      <trkpt lat="43.410828039050102" lon="-6.162317963317037">
        <ele>57.82</ele>
        <time>2025-04-29T13:52:42Z</time>
      </trkpt>
      <trkpt lat="43.41082502156496" lon="-6.162419971078634">
        <ele>58.299999999999997</ele>
        <time>2025-04-29T13:52:43Z</time>
      </trkpt>
      <trkpt lat="43.410801971331239" lon="-6.163009973242879">
        <ele>60.700000000000003</ele>
        <time>2025-04-29T13:52:53Z</time>
      </trkpt>
      <trkpt lat="43.410801971331239" lon="-6.163009973242879">
        <ele>60.700000000000003</ele>
        <time>2025-04-29T13:53:05Z</time>
      </trkpt>
      <trkpt lat="43.410801971331239" lon="-6.163009973242879">
        <ele>60.219999999999999</ele>
        <time>2025-04-29T13:53:06Z</time>
      </trkpt>
      <trkpt lat="43.410812029615045" lon="-6.163055989891291">
        <ele>60.219999999999999</ele>
        <time>2025-04-29T13:53:08Z</time>
      </trkpt>
      <trkpt lat="43.410801971331239" lon="-6.163009973242879">
        <ele>59.740000000000002</ele>
        <time>2025-04-29T13:53:10Z</time>
      </trkpt>
      <trkpt lat="43.410828039050102" lon="-6.162319974973798">
        <ele>57.82</ele>
        <time>2025-04-29T13:53:20Z</time>
      </trkpt>
      <trkpt lat="43.410844970494509" lon="-6.160994041711092">
        <ele>56.369999999999997</ele>
        <time>2025-04-29T13:53:32Z</time>
      </trkpt>
      <trkpt lat="43.410981008782983" lon="-6.159567022696137">
        <ele>55.409999999999997</ele>
        <time>2025-04-29T13:53:44Z</time>
      </trkpt>
      <trkpt lat="43.411024007946253" lon="-6.159449005499482">
        <ele>55.409999999999997</ele>
        <time>2025-04-29T13:53:45Z</time>
      </trkpt>
      <trkpt lat="43.411073964089155" lon="-6.159339034929872">
        <ele>55.890000000000001</ele>
        <time>2025-04-29T13:53:46Z</time>
      </trkpt>
      <trkpt lat="43.411203967407346" lon="-6.159128984436393">
        <ele>55.890000000000001</ele>
        <time>2025-04-29T13:53:48Z</time>
      </trkpt>
      <trkpt lat="43.411275967955589" lon="-6.159024965018034">
        <ele>55.890000000000001</ele>
        <time>2025-04-29T13:53:49Z</time>
      </trkpt>
      <trkpt lat="43.41161803342402" lon="-6.158545017242432">
        <ele>55.409999999999997</ele>
        <time>2025-04-29T13:53:55Z</time>
      </trkpt>
      <trkpt lat="43.41162096709013" lon="-6.158538982272148">
        <ele>55.409999999999997</ele>
        <time>2025-04-29T13:53:56Z</time>
      </trkpt>
      <trkpt lat="43.411582997068763" lon="-6.158520961180329">
        <ele>54.93</ele>
        <time>2025-04-29T13:53:57Z</time>
      </trkpt>
      <trkpt lat="43.411638988181949" lon="-6.158502018079162">
        <ele>54.93</ele>
        <time>2025-04-29T13:53:58Z</time>
      </trkpt>
      <trkpt lat="43.411542009562254" lon="-6.158492965623736">
        <ele>54.450000000000003</ele>
        <time>2025-04-29T13:53:59Z</time>
      </trkpt>
      <trkpt lat="43.41151300817728" lon="-6.158474022522569">
        <ele>54.450000000000003</ele>
        <time>2025-04-29T13:54:00Z</time>
      </trkpt>
      <trkpt lat="43.411467997357249" lon="-6.158443009480834">
        <ele>54.450000000000003</ele>
        <time>2025-04-29T13:54:01Z</time>
      </trkpt>
      <trkpt lat="43.411411000415683" lon="-6.158403027802706">
        <ele>54.450000000000003</ele>
        <time>2025-04-29T13:54:02Z</time>
      </trkpt>
      <trkpt lat="43.411336988210678" lon="-6.158352987840772">
        <ele>54.450000000000003</ele>
        <time>2025-04-29T13:54:03Z</time>
      </trkpt>
      <trkpt lat="43.411263981834054" lon="-6.158302025869489">
        <ele>53.969999999999999</ele>
        <time>2025-04-29T13:54:04Z</time>
      </trkpt>
      <trkpt lat="43.41099601238966" lon="-6.158118965104222">
        <ele>53.969999999999999</ele>
        <time>2025-04-29T13:54:07Z</time>
      </trkpt>
      <trkpt lat="43.409960009157658" lon="-6.157382028177381">
        <ele>53.009999999999998</ele>
        <time>2025-04-29T13:54:18Z</time>
      </trkpt>
      <trkpt lat="43.409796981140971" lon="-6.157283959910274">
        <ele>52.049999999999997</ele>
        <time>2025-04-29T13:54:20Z</time>
      </trkpt>
      <trkpt lat="43.409721963107586" lon="-6.157214976847172">
        <ele>51.57</ele>
        <time>2025-04-29T13:54:21Z</time>
      </trkpt>
      <trkpt lat="43.409663960337639" lon="-6.157128978520632">
        <ele>51.57</ele>
        <time>2025-04-29T13:54:22Z</time>
      </trkpt>
      <trkpt lat="43.40949104167521" lon="-6.156876012682915">
        <ele>52.049999999999997</ele>
        <time>2025-04-29T13:54:25Z</time>
      </trkpt>
      <trkpt lat="43.409437984228134" lon="-6.156797977164388">
        <ele>52.049999999999997</ele>
        <time>2025-04-29T13:54:26Z</time>
      </trkpt>
      <trkpt lat="43.409386016428471" lon="-6.156694041565061">
        <ele>52.049999999999997</ele>
        <time>2025-04-29T13:54:27Z</time>
      </trkpt>
      <trkpt lat="43.409386016428471" lon="-6.156474016606808">
        <ele>52.049999999999997</ele>
        <time>2025-04-29T13:54:29Z</time>
      </trkpt>
      <trkpt lat="43.409386016428471" lon="-6.156313000246882">
        <ele>52.530000000000001</ele>
        <time>2025-04-29T13:54:30Z</time>
      </trkpt>
      <trkpt lat="43.409326002001762" lon="-6.15624200552702">
        <ele>52.530000000000001</ele>
        <time>2025-04-29T13:54:31Z</time>
      </trkpt>
      <trkpt lat="43.409259030595422" lon="-6.15615600720048">
        <ele>52.530000000000001</ele>
        <time>2025-04-29T13:54:32Z</time>
      </trkpt>
      <trkpt lat="43.409187030047178" lon="-6.156055005267263">
        <ele>52.530000000000001</ele>
        <time>2025-04-29T13:54:33Z</time>
      </trkpt>
      <trkpt lat="43.409115029498935" lon="-6.155952997505665">
        <ele>52.530000000000001</ele>
        <time>2025-04-29T13:54:34Z</time>
      </trkpt>
      <trkpt lat="43.409048980101943" lon="-6.155859036371112">
        <ele>52.530000000000001</ele>
        <time>2025-04-29T13:54:35Z</time>
      </trkpt>
      <trkpt lat="43.408926017582417" lon="-6.155783012509346">
        <ele>53.009999999999998</ele>
        <time>2025-04-29T13:54:36Z</time>
      </trkpt>
      <trkpt lat="43.408815963193774" lon="-6.155741019174457">
        <ele>53.009999999999998</ele>
        <time>2025-04-29T13:54:37Z</time>
      </trkpt>
      <trkpt lat="43.40871898457408" lon="-6.155689973384142">
        <ele>53.009999999999998</ele>
        <time>2025-04-29T13:54:38Z</time>
      </trkpt>
      <trkpt lat="43.408468030393124" lon="-6.155439019203186">
        <ele>53.490000000000002</ele>
        <time>2025-04-29T13:54:41Z</time>
      </trkpt>
      <trkpt lat="43.408369962126017" lon="-6.155356960371137">
        <ele>53.490000000000002</ele>
        <time>2025-04-29T13:54:42Z</time>
      </trkpt>
      <trkpt lat="43.408196959644556" lon="-6.155439019203186">
        <ele>53.490000000000002</ele>
        <time>2025-04-29T13:54:43Z</time>
      </trkpt>
      <trkpt lat="43.408166030421853" lon="-6.155518982559443">
        <ele>54.450000000000003</ele>
        <time>2025-04-29T13:54:44Z</time>
      </trkpt>
      <trkpt lat="43.408128982409835" lon="-6.155613027513027">
        <ele>54.93</ele>
        <time>2025-04-29T13:54:45Z</time>
      </trkpt>
      <trkpt lat="43.408086989074945" lon="-6.155721992254257">
        <ele>55.409999999999997</ele>
        <time>2025-04-29T13:54:46Z</time>
      </trkpt>
      <trkpt lat="43.407825976610184" lon="-6.15639204159379">
        <ele>61.659999999999997</ele>
        <time>2025-04-29T13:54:51Z</time>
      </trkpt>
      <trkpt lat="43.407648028805852" lon="-6.156850028783083">
        <ele>65.989999999999995</ele>
        <time>2025-04-29T13:54:54Z</time>
      </trkpt>
      <trkpt lat="43.407607041299343" lon="-6.157041974365711">
        <ele>67.430000000000007</ele>
        <time>2025-04-29T13:54:55Z</time>
      </trkpt>
      <trkpt lat="43.40755901299417" lon="-6.157211037352681">
        <ele>68.870000000000005</ele>
        <time>2025-04-29T13:54:56Z</time>
      </trkpt>
      <trkpt lat="43.407504027709365" lon="-6.157341962680221">
        <ele>70.310000000000002</ele>
        <time>2025-04-29T13:54:57Z</time>
      </trkpt>
      <trkpt lat="43.407476032152772" lon="-6.157408012077212">
        <ele>71.269999999999996</ele>
        <time>2025-04-29T13:54:58Z</time>
      </trkpt>
      <trkpt lat="43.407416017726064" lon="-6.157393008470535">
        <ele>71.760000000000005</ele>
        <time>2025-04-29T13:54:59Z</time>
      </trkpt>
      <trkpt lat="43.407391039654613" lon="-6.157385967671871">
        <ele>72.719999999999999</ele>
        <time>2025-04-29T13:55:00Z</time>
      </trkpt>
      <trkpt lat="43.407391039654613" lon="-6.157369958236814">
        <ele>73.680000000000007</ele>
        <time>2025-04-29T13:55:01Z</time>
      </trkpt>
      <trkpt lat="43.407391039654613" lon="-6.157271973788738">
        <ele>74.159999999999997</ele>
        <time>2025-04-29T13:55:02Z</time>
      </trkpt>
      <trkpt lat="43.407391039654613" lon="-6.157193016260862">
        <ele>75.120000000000005</ele>
        <time>2025-04-29T13:55:03Z</time>
      </trkpt>
      <trkpt lat="43.407321972772479" lon="-6.157055972144008">
        <ele>76.079999999999998</ele>
        <time>2025-04-29T13:55:04Z</time>
      </trkpt>
      <trkpt lat="43.407260030508041" lon="-6.156950024887919">
        <ele>77.040000000000006</ele>
        <time>2025-04-29T13:55:05Z</time>
      </trkpt>
      <trkpt lat="43.407198004424572" lon="-6.156850028783083">
        <ele>78</ele>
        <time>2025-04-29T13:55:06Z</time>
      </trkpt>
      <trkpt lat="43.407109994441271" lon="-6.156792026013136">
        <ele>78.969999999999999</ele>
        <time>2025-04-29T13:55:07Z</time>
      </trkpt>
      <trkpt lat="43.407018966972828" lon="-6.156760007143021">
        <ele>79.930000000000007</ele>
        <time>2025-04-29T13:55:08Z</time>
      </trkpt>
      <trkpt lat="43.406926011666656" lon="-6.156751960515976">
        <ele>80.409999999999997</ele>
        <time>2025-04-29T13:55:09Z</time>
      </trkpt>
      <trkpt lat="43.40680698864162" lon="-6.156746009364724">
        <ele>81.370000000000005</ele>
        <time>2025-04-29T13:55:10Z</time>
      </trkpt>
      <trkpt lat="43.406724007800221" lon="-6.156817004084587">
        <ele>82.810000000000002</ele>
        <time>2025-04-29T13:55:11Z</time>
      </trkpt>
      <trkpt lat="43.406618982553482" lon="-6.156907025724649">
        <ele>84.25</ele>
        <time>2025-04-29T13:55:12Z</time>
      </trkpt>
      <trkpt lat="43.406504988670349" lon="-6.157006016001105">
        <ele>86.659999999999997</ele>
        <time>2025-04-29T13:55:13Z</time>
      </trkpt>
      <trkpt lat="43.406425025314093" lon="-6.157085979357362">
        <ele>89.060000000000002</ele>
        <time>2025-04-29T13:55:14Z</time>
      </trkpt>
      <trkpt lat="43.406352018937469" lon="-6.157135013490915">
        <ele>91.459999999999994</ele>
        <time>2025-04-29T13:55:15Z</time>
      </trkpt>
      <trkpt lat="43.4062709659338" lon="-6.157187987118959">
        <ele>93.390000000000001</ele>
        <time>2025-04-29T13:55:16Z</time>
      </trkpt>
      <trkpt lat="43.40618303976953" lon="-6.157223023474217">
        <ele>94.349999999999994</ele>
        <time>2025-04-29T13:55:17Z</time>
      </trkpt>
      <trkpt lat="43.406071979552507" lon="-6.157226040959358">
        <ele>94.829999999999998</ele>
        <time>2025-04-29T13:55:18Z</time>
      </trkpt>
      <trkpt lat="43.405953962355852" lon="-6.157178012654185">
        <ele>95.790000000000006</ele>
        <time>2025-04-29T13:55:19Z</time>
      </trkpt>
      <trkpt lat="43.405848015099764" lon="-6.157096959650517">
        <ele>96.75</ele>
        <time>2025-04-29T13:55:20Z</time>
      </trkpt>
      <trkpt lat="43.405760005116463" lon="-6.157029988244176">
        <ele>97.709999999999994</ele>
        <time>2025-04-29T13:55:21Z</time>
      </trkpt>
      <trkpt lat="43.405674006789923" lon="-6.156965028494597">
        <ele>98.189999999999998</ele>
        <time>2025-04-29T13:55:22Z</time>
      </trkpt>
      <trkpt lat="43.405588008463383" lon="-6.156898979097605">
        <ele>98.670000000000002</ele>
        <time>2025-04-29T13:55:23Z</time>
      </trkpt>
      <trkpt lat="43.40549798682332" lon="-6.156850028783083">
        <ele>99.150000000000006</ele>
        <time>2025-04-29T13:55:24Z</time>
      </trkpt>
      <trkpt lat="43.405395979061723" lon="-6.156850028783083">
        <ele>99.629999999999995</ele>
        <time>2025-04-29T13:55:25Z</time>
      </trkpt>
      <trkpt lat="43.405285002663732" lon="-6.156850028783083">
        <ele>99.629999999999995</ele>
        <time>2025-04-29T13:55:26Z</time>
      </trkpt>
      <trkpt lat="43.405061960220337" lon="-6.156850028783083">
        <ele>99.629999999999995</ele>
        <time>2025-04-29T13:55:28Z</time>
      </trkpt>
      <trkpt lat="43.404949977993965" lon="-6.156850028783083">
        <ele>99.629999999999995</ele>
        <time>2025-04-29T13:55:29Z</time>
      </trkpt>
      <trkpt lat="43.404837995767593" lon="-6.156924040988088">
        <ele>99.629999999999995</ele>
        <time>2025-04-29T13:55:30Z</time>
      </trkpt>
      <trkpt lat="43.404734982177615" lon="-6.157026970759034">
        <ele>100.11</ele>
        <time>2025-04-29T13:55:31Z</time>
      </trkpt>
      <trkpt lat="43.404647978022695" lon="-6.157168038189411">
        <ele>100.11</ele>
        <time>2025-04-29T13:55:32Z</time>
      </trkpt>
      <trkpt lat="43.40457203797996" lon="-6.157311033457518">
        <ele>99.629999999999995</ele>
        <time>2025-04-29T13:55:33Z</time>
      </trkpt>
      <trkpt lat="43.4045319724828" lon="-6.157469032332301">
        <ele>99.629999999999995</ele>
        <time>2025-04-29T13:55:34Z</time>
      </trkpt>
      <trkpt lat="43.404495008289814" lon="-6.157615967094898">
        <ele>99.629999999999995</ele>
        <time>2025-04-29T13:55:35Z</time>
      </trkpt>
      <trkpt lat="43.404460977762938" lon="-6.157756028696895">
        <ele>99.629999999999995</ele>
        <time>2025-04-29T13:55:36Z</time>
      </trkpt>
      <trkpt lat="43.40444597415626" lon="-6.157898018136621">
        <ele>100.11</ele>
        <time>2025-04-29T13:55:37Z</time>
      </trkpt>
      <trkpt lat="43.404440023005009" lon="-6.158037995919585">
        <ele>100.11</ele>
        <time>2025-04-29T13:55:38Z</time>
      </trkpt>
      <trkpt lat="43.404432982206345" lon="-6.15817797370255">
        <ele>100.11</ele>
        <time>2025-04-29T13:55:39Z</time>
      </trkpt>
      <trkpt lat="43.404415966942906" lon="-6.158309988677502">
        <ele>100.59999999999999</ele>
        <time>2025-04-29T13:55:40Z</time>
      </trkpt>
      <trkpt lat="43.404377996921539" lon="-6.158434040844441">
        <ele>100.59999999999999</ele>
        <time>2025-04-29T13:55:41Z</time>
      </trkpt>
      <trkpt lat="43.404342038556933" lon="-6.158550968393683">
        <ele>101.08</ele>
        <time>2025-04-29T13:55:42Z</time>
      </trkpt>
      <trkpt lat="43.404308008030057" lon="-6.158663034439087">
        <ele>101.08</ele>
        <time>2025-04-29T13:55:43Z</time>
      </trkpt>
      <trkpt lat="43.404273977503181" lon="-6.158775016665459">
        <ele>101.08</ele>
        <time>2025-04-29T13:55:44Z</time>
      </trkpt>
      <trkpt lat="43.404237013310194" lon="-6.158894961699843">
        <ele>101.08</ele>
        <time>2025-04-29T13:55:45Z</time>
      </trkpt>
      <trkpt lat="43.404197031632066" lon="-6.159025970846415">
        <ele>100.59999999999999</ele>
        <time>2025-04-29T13:55:46Z</time>
      </trkpt>
      <trkpt lat="43.404181022197008" lon="-6.159170977771282">
        <ele>100.59999999999999</ele>
        <time>2025-04-29T13:55:47Z</time>
      </trkpt>
      <trkpt lat="43.404176998883486" lon="-6.15931598469615">
        <ele>100.59999999999999</ele>
        <time>2025-04-29T13:55:48Z</time>
      </trkpt>
      <trkpt lat="43.404197031632066" lon="-6.159473983570933">
        <ele>100.59999999999999</ele>
        <time>2025-04-29T13:55:49Z</time>
      </trkpt>
      <trkpt lat="43.404217986389995" lon="-6.159639023244381">
        <ele>100.59999999999999</ele>
        <time>2025-04-29T13:55:50Z</time>
      </trkpt>
      <trkpt lat="43.404501965269446" lon="-6.16127198562026">
        <ele>106.84</ele>
        <time>2025-04-29T13:56:00Z</time>
      </trkpt>
      <trkpt lat="43.404558040201664" lon="-6.161397965624929">
        <ele>107.81</ele>
        <time>2025-04-29T13:56:01Z</time>
      </trkpt>
      <trkpt lat="43.404676979407668" lon="-6.161666018888354">
        <ele>109.25</ele>
        <time>2025-04-29T13:56:03Z</time>
      </trkpt>
      <trkpt lat="43.404732970520854" lon="-6.161819994449616">
        <ele>109.25</ele>
        <time>2025-04-29T13:56:04Z</time>
      </trkpt>
      <trkpt lat="43.404747974127531" lon="-6.161983022466302">
        <ele>109.73</ele>
        <time>2025-04-29T13:56:05Z</time>
      </trkpt>
      <trkpt lat="43.404735988005996" lon="-6.162159964442253">
        <ele>110.20999999999999</ele>
        <time>2025-04-29T13:56:06Z</time>
      </trkpt>
      <trkpt lat="43.404716039076447" lon="-6.16234302520752">
        <ele>110.69</ele>
        <time>2025-04-29T13:56:07Z</time>
      </trkpt>
      <trkpt lat="43.404716039076447" lon="-6.162541005760431">
        <ele>111.17</ele>
        <time>2025-04-29T13:56:08Z</time>
      </trkpt>
      <trkpt lat="43.404727019369602" lon="-6.162748038768768">
        <ele>111.65000000000001</ele>
        <time>2025-04-29T13:56:09Z</time>
      </trkpt>
      <trkpt lat="43.404774041846395" lon="-6.162947025150061">
        <ele>112.13</ele>
        <time>2025-04-29T13:56:10Z</time>
      </trkpt>
      <trkpt lat="43.40483003295958" lon="-6.163138970732689">
        <ele>112.61</ele>
        <time>2025-04-29T13:56:11Z</time>
      </trkpt>
      <trkpt lat="43.404955007135868" lon="-6.163701983168721">
        <ele>113.56999999999999</ele>
        <time>2025-04-29T13:56:14Z</time>
      </trkpt>
      <trkpt lat="43.405030025169253" lon="-6.164273964241147">
        <ele>115.5</ele>
        <time>2025-04-29T13:56:17Z</time>
      </trkpt>
      <trkpt lat="43.405209984630346" lon="-6.164982989430428">
        <ele>120.78</ele>
        <time>2025-04-29T13:56:21Z</time>
      </trkpt>
      <trkpt lat="43.405288020148873" lon="-6.165304016321898">
        <ele>124.15000000000001</ele>
        <time>2025-04-29T13:56:23Z</time>
      </trkpt>
      <trkpt lat="43.40526002459228" lon="-6.165443994104862">
        <ele>126.06999999999999</ele>
        <time>2025-04-29T13:56:24Z</time>
      </trkpt>
      <trkpt lat="43.405232029035687" lon="-6.165535021573305">
        <ele>127.51000000000001</ele>
        <time>2025-04-29T13:56:25Z</time>
      </trkpt>
      <trkpt lat="43.405185006558895" lon="-6.165594030171633">
        <ele>128.94999999999999</ele>
        <time>2025-04-29T13:56:26Z</time>
      </trkpt>
      <trkpt lat="43.405134966596961" lon="-6.165639963001013">
        <ele>130.40000000000001</ele>
        <time>2025-04-29T13:56:27Z</time>
      </trkpt>
      <trkpt lat="43.405071012675762" lon="-6.165677011013031">
        <ele>131.84</ele>
        <time>2025-04-29T13:56:28Z</time>
      </trkpt>
      <trkpt lat="43.405008986592293" lon="-6.165711963549256">
        <ele>132.80000000000001</ele>
        <time>2025-04-29T13:56:29Z</time>
      </trkpt>
      <trkpt lat="43.404932962730527" lon="-6.165755968540907">
        <ele>133.75999999999999</ele>
        <time>2025-04-29T13:56:30Z</time>
      </trkpt>
      <trkpt lat="43.404837995767593" lon="-6.165811037644744">
        <ele>135.19999999999999</ele>
        <time>2025-04-29T13:56:31Z</time>
      </trkpt>
      <trkpt lat="43.404732970520854" lon="-6.16587096825242">
        <ele>136.16</ele>
        <time>2025-04-29T13:56:32Z</time>
      </trkpt>
      <trkpt lat="43.40461797080934" lon="-6.165937017649412">
        <ele>137.13</ele>
        <time>2025-04-29T13:56:33Z</time>
      </trkpt>
      <trkpt lat="43.404501965269446" lon="-6.166003989055753">
        <ele>137.61000000000001</ele>
        <time>2025-04-29T13:56:34Z</time>
      </trkpt>
      <trkpt lat="43.404265008866787" lon="-6.166068026795983">
        <ele>139.53</ele>
        <time>2025-04-29T13:56:36Z</time>
      </trkpt>
      <trkpt lat="43.404149003326893" lon="-6.166088981553912">
        <ele>140.49000000000001</ele>
        <time>2025-04-29T13:56:37Z</time>
      </trkpt>
      <trkpt lat="43.404038026928902" lon="-6.166109014302492">
        <ele>141.44999999999999</ele>
        <time>2025-04-29T13:56:38Z</time>
      </trkpt>
      <trkpt lat="43.403937024995685" lon="-6.166089987382293">
        <ele>142.41</ele>
        <time>2025-04-29T13:56:39Z</time>
      </trkpt>
      <trkpt lat="43.403838034719229" lon="-6.166021004319191">
        <ele>143.84999999999999</ele>
        <time>2025-04-29T13:56:40Z</time>
      </trkpt>
      <trkpt lat="43.403738038614392" lon="-6.165939029306173">
        <ele>145.30000000000001</ele>
        <time>2025-04-29T13:56:41Z</time>
      </trkpt>
      <trkpt lat="43.403649022802711" lon="-6.165835009887815">
        <ele>145.78</ele>
        <time>2025-04-29T13:56:42Z</time>
      </trkpt>
      <trkpt lat="43.403557995334268" lon="-6.165727972984314">
        <ele>147.22</ele>
        <time>2025-04-29T13:56:43Z</time>
      </trkpt>
      <trkpt lat="43.403485994786024" lon="-6.165599981322885">
        <ele>148.18000000000001</ele>
        <time>2025-04-29T13:56:44Z</time>
      </trkpt>
      <trkpt lat="43.403439978137612" lon="-6.165451034903526">
        <ele>149.13999999999999</ele>
        <time>2025-04-29T13:56:45Z</time>
      </trkpt>
      <trkpt lat="43.403404019773006" lon="-6.165297981351614">
        <ele>150.09999999999999</ele>
        <time>2025-04-29T13:56:46Z</time>
      </trkpt>
      <trkpt lat="43.403380969539285" lon="-6.165131013840437">
        <ele>151.06</ele>
        <time>2025-04-29T13:56:47Z</time>
      </trkpt>
      <trkpt lat="43.403399996459484" lon="-6.164964968338609">
        <ele>152.03</ele>
        <time>2025-04-29T13:56:48Z</time>
      </trkpt>
      <trkpt lat="43.403420029208064" lon="-6.164791965857148">
        <ele>152.99000000000001</ele>
        <time>2025-04-29T13:56:49Z</time>
      </trkpt>
      <trkpt lat="43.403439978137612" lon="-6.164618963375688">
        <ele>153.94999999999999</ele>
        <time>2025-04-29T13:56:50Z</time>
      </trkpt>
      <trkpt lat="43.403425980359316" lon="-6.164443027228117">
        <ele>154.91</ele>
        <time>2025-04-29T13:56:51Z</time>
      </trkpt>
      <trkpt lat="43.403349034488201" lon="-6.163713969290257">
        <ele>159.24000000000001</ele>
        <time>2025-04-29T13:56:55Z</time>
      </trkpt>
      <trkpt lat="43.403331013396382" lon="-6.163551025092602">
        <ele>160.19999999999999</ele>
        <time>2025-04-29T13:56:56Z</time>
      </trkpt>
      <trkpt lat="43.403315003961325" lon="-6.163404006510973">
        <ele>161.63999999999999</ele>
        <time>2025-04-29T13:56:57Z</time>
      </trkpt>
      <trkpt lat="43.403292037546635" lon="-6.163200996816158">
        <ele>163.08000000000001</ele>
        <time>2025-04-29T13:56:58Z</time>
      </trkpt>
      <trkpt lat="43.403259012848139" lon="-6.163130002096295">
        <ele>164.52000000000001</ele>
        <time>2025-04-29T13:56:59Z</time>
      </trkpt>
      <trkpt lat="43.403195980936289" lon="-6.162995975464582">
        <ele>165.96000000000001</ele>
        <time>2025-04-29T13:57:00Z</time>
      </trkpt>
      <trkpt lat="43.403096990659833" lon="-6.162851974368095">
        <ele>167.41</ele>
        <time>2025-04-29T13:57:01Z</time>
      </trkpt>
      <trkpt lat="43.402985008433461" lon="-6.162779973819852">
        <ele>168.84999999999999</ele>
        <time>2025-04-29T13:57:02Z</time>
      </trkpt>
      <trkpt lat="43.402877971529961" lon="-6.162713002413511">
        <ele>170.28999999999999</ele>
        <time>2025-04-29T13:57:03Z</time>
      </trkpt>
      <trkpt lat="43.402770012617111" lon="-6.16264502517879">
        <ele>171.72999999999999</ele>
        <time>2025-04-29T13:57:04Z</time>
      </trkpt>
      <trkpt lat="43.402642020955682" lon="-6.162586016580463">
        <ele>172.69</ele>
        <time>2025-04-29T13:57:05Z</time>
      </trkpt>
      <trkpt lat="43.402515035122633" lon="-6.162535976618528">
        <ele>173.66</ele>
        <time>2025-04-29T13:57:06Z</time>
      </trkpt>
      <trkpt lat="43.402069034054875" lon="-6.16242902353406">
        <ele>178.94</ele>
        <time>2025-04-29T13:57:10Z</time>
      </trkpt>
      <trkpt lat="43.401923021301627" lon="-6.162497000768781">
        <ele>180.38</ele>
        <time>2025-04-29T13:57:11Z</time>
      </trkpt>
      <trkpt lat="43.401816990226507" lon="-6.162547040730715">
        <ele>181.83000000000001</ele>
        <time>2025-04-29T13:57:12Z</time>
      </trkpt>
      <trkpt lat="43.401697967201471" lon="-6.162578975781798">
        <ele>183.27000000000001</ele>
        <time>2025-04-29T13:57:13Z</time>
      </trkpt>
      <trkpt lat="43.401583973318338" lon="-6.162578975781798">
        <ele>184.71000000000001</ele>
        <time>2025-04-29T13:57:14Z</time>
      </trkpt>
      <trkpt lat="43.401471991091967" lon="-6.162497000768781">
        <ele>185.66999999999999</ele>
        <time>2025-04-29T13:57:15Z</time>
      </trkpt>
      <trkpt lat="43.401381969451904" lon="-6.162385018542409">
        <ele>187.59</ele>
        <time>2025-04-29T13:57:16Z</time>
      </trkpt>
      <trkpt lat="43.401314998045564" lon="-6.16223799996078">
        <ele>189.03999999999999</ele>
        <time>2025-04-29T13:57:17Z</time>
      </trkpt>
      <trkpt lat="43.40128599666059" lon="-6.162074971944094">
        <ele>190.47999999999999</ele>
        <time>2025-04-29T13:57:18Z</time>
      </trkpt>
      <trkpt lat="43.401253977790475" lon="-6.161891994997859">
        <ele>191.91999999999999</ele>
        <time>2025-04-29T13:57:19Z</time>
      </trkpt>
      <trkpt lat="43.401195975020528" lon="-6.161780012771487">
        <ele>193.84</ele>
        <time>2025-04-29T13:57:20Z</time>
      </trkpt>
      <trkpt lat="43.40113302692771" lon="-6.16165897808969">
        <ele>195.28</ele>
        <time>2025-04-29T13:57:21Z</time>
      </trkpt>
      <trkpt lat="43.401078041642904" lon="-6.161553030833602">
        <ele>196.72999999999999</ele>
        <time>2025-04-29T13:57:22Z</time>
      </trkpt>
      <trkpt lat="43.401024984195828" lon="-6.161451023072004">
        <ele>198.16999999999999</ele>
        <time>2025-04-29T13:57:23Z</time>
      </trkpt>
      <trkpt lat="43.400949966162443" lon="-6.161311967298389">
        <ele>199.61000000000001</ele>
        <time>2025-04-29T13:57:24Z</time>
      </trkpt>
      <trkpt lat="43.400852987542748" lon="-6.161268968135119">
        <ele>200.56999999999999</ele>
        <time>2025-04-29T13:57:25Z</time>
      </trkpt>
      <trkpt lat="43.400734970346093" lon="-6.161218006163836">
        <ele>201.53</ele>
        <time>2025-04-29T13:57:26Z</time>
      </trkpt>
      <trkpt lat="43.400591975077987" lon="-6.16116201505065">
        <ele>202.49000000000001</ele>
        <time>2025-04-29T13:57:27Z</time>
      </trkpt>
      <trkpt lat="43.400451997295022" lon="-6.161153968423605">
        <ele>203.46000000000001</ele>
        <time>2025-04-29T13:57:28Z</time>
      </trkpt>
      <trkpt lat="43.400307996198535" lon="-6.161144999787211">
        <ele>204.41999999999999</ele>
        <time>2025-04-29T13:57:29Z</time>
      </trkpt>
      <trkpt lat="43.400139017030597" lon="-6.161204008385539">
        <ele>205.38</ele>
        <time>2025-04-29T13:57:30Z</time>
      </trkpt>
      <trkpt lat="43.400010019540787" lon="-6.161280032247305">
        <ele>206.34</ele>
        <time>2025-04-29T13:57:31Z</time>
      </trkpt>
      <trkpt lat="43.399895019829273" lon="-6.161348009482026">
        <ele>206.81999999999999</ele>
        <time>2025-04-29T13:57:32Z</time>
      </trkpt>
      <trkpt lat="43.39948003180325" lon="-6.161622013896704">
        <ele>211.15000000000001</ele>
        <time>2025-04-29T13:57:36Z</time>
      </trkpt>
      <trkpt lat="43.399400990456343" lon="-6.161736007779837">
        <ele>212.59</ele>
        <time>2025-04-29T13:57:37Z</time>
      </trkpt>
      <trkpt lat="43.399323038756847" lon="-6.16185000166297">
        <ele>213.55000000000001</ele>
        <time>2025-04-29T13:57:38Z</time>
      </trkpt>
      <trkpt lat="43.399254977703094" lon="-6.16200003772974">
        <ele>214.50999999999999</ele>
        <time>2025-04-29T13:57:39Z</time>
      </trkpt>
      <trkpt lat="43.399194963276386" lon="-6.162135992199183">
        <ele>214.99000000000001</ele>
        <time>2025-04-29T13:57:40Z</time>
      </trkpt>
      <trkpt lat="43.39913603849709" lon="-6.162270018830895">
        <ele>215.94999999999999</ele>
        <time>2025-04-29T13:57:41Z</time>
      </trkpt>
      <trkpt lat="43.399064959958196" lon="-6.16242902353406">
        <ele>216.91</ele>
        <time>2025-04-29T13:57:42Z</time>
      </trkpt>
      <trkpt lat="43.398978961631656" lon="-6.162674026563764">
        <ele>218.36000000000001</ele>
        <time>2025-04-29T13:57:44Z</time>
      </trkpt>
      <trkpt lat="43.398935040459037" lon="-6.162801012396812">
        <ele>219.31999999999999</ele>
        <time>2025-04-29T13:57:45Z</time>
      </trkpt>
      <trkpt lat="43.398903021588922" lon="-6.162949958816171">
        <ele>220.28</ele>
        <time>2025-04-29T13:57:46Z</time>
      </trkpt>
      <trkpt lat="43.398926993831992" lon="-6.163124972954392">
        <ele>221.72</ele>
        <time>2025-04-29T13:57:47Z</time>
      </trkpt>
      <trkpt lat="43.398978039622307" lon="-6.163270985707641">
        <ele>222.68000000000001</ele>
        <time>2025-04-29T13:57:48Z</time>
      </trkpt>
      <trkpt lat="43.399044005200267" lon="-6.163458991795778">
        <ele>223.63999999999999</ele>
        <time>2025-04-29T13:57:49Z</time>
      </trkpt>
      <trkpt lat="43.399128997698426" lon="-6.163582960143685">
        <ele>225.09</ele>
        <time>2025-04-29T13:57:50Z</time>
      </trkpt>
      <trkpt lat="43.399211978539824" lon="-6.163703994825482">
        <ele>226.05000000000001</ele>
        <time>2025-04-29T13:57:51Z</time>
      </trkpt>
      <trkpt lat="43.399279033765197" lon="-6.163823017850518">
        <ele>227.00999999999999</ele>
        <time>2025-04-29T13:57:52Z</time>
      </trkpt>
      <trkpt lat="43.399270987138152" lon="-6.163975987583399">
        <ele>228.44999999999999</ele>
        <time>2025-04-29T13:57:53Z</time>
      </trkpt>
      <trkpt lat="43.39924399740994" lon="-6.164523996412754">
        <ele>230.84999999999999</ele>
        <time>2025-04-29T13:57:56Z</time>
      </trkpt>
      <trkpt lat="43.399211978539824" lon="-6.164730023592711">
        <ele>231.81</ele>
        <time>2025-04-29T13:57:57Z</time>
      </trkpt>
      <trkpt lat="43.399150958284736" lon="-6.164904031902552">
        <ele>232.30000000000001</ele>
        <time>2025-04-29T13:57:58Z</time>
      </trkpt>
      <trkpt lat="43.399098990485072" lon="-6.16507301107049">
        <ele>233.25999999999999</ele>
        <time>2025-04-29T13:57:59Z</time>
      </trkpt>
      <trkpt lat="43.399064959958196" lon="-6.165261017158628">
        <ele>233.74000000000001</ele>
        <time>2025-04-29T13:58:00Z</time>
      </trkpt>
      <trkpt lat="43.39903000742197" lon="-6.165456986054778">
        <ele>234.69999999999999</ele>
        <time>2025-04-29T13:58:01Z</time>
      </trkpt>
      <trkpt lat="43.398891035467386" lon="-6.166055034846067">
        <ele>238.06</ele>
        <time>2025-04-29T13:58:04Z</time>
      </trkpt>
      <trkpt lat="43.398848958313465" lon="-6.166249997913837">
        <ele>239.50999999999999</ele>
        <time>2025-04-29T13:58:05Z</time>
      </trkpt>
      <trkpt lat="43.39883403852582" lon="-6.166430041193962">
        <ele>240.47</ele>
        <time>2025-04-29T13:58:06Z</time>
      </trkpt>
      <trkpt lat="43.398892041295767" lon="-6.166611006483436">
        <ele>241.91</ele>
        <time>2025-04-29T13:58:07Z</time>
      </trkpt>
      <trkpt lat="43.398972004652023" lon="-6.166740003973246">
        <ele>243.34999999999999</ele>
        <time>2025-04-29T13:58:08Z</time>
      </trkpt>
      <trkpt lat="43.399068983271718" lon="-6.166851986199617">
        <ele>244.78999999999999</ele>
        <time>2025-04-29T13:58:09Z</time>
      </trkpt>
      <trkpt lat="43.399167973548174" lon="-6.16696598008275">
        <ele>245.75</ele>
        <time>2025-04-29T13:58:10Z</time>
      </trkpt>
      <trkpt lat="43.399251038208604" lon="-6.167106041684747">
        <ele>247.19999999999999</ele>
        <time>2025-04-29T13:58:11Z</time>
      </trkpt>
      <trkpt lat="43.399323038756847" lon="-6.167278038337827">
        <ele>248.16</ele>
        <time>2025-04-29T13:58:12Z</time>
      </trkpt>
      <trkpt lat="43.399323038756847" lon="-6.167451962828636">
        <ele>249.59999999999999</ele>
        <time>2025-04-29T13:58:13Z</time>
      </trkpt>
      <trkpt lat="43.399275010451674" lon="-6.167629994452">
        <ele>250.56</ele>
        <time>2025-04-29T13:58:14Z</time>
      </trkpt>
      <trkpt lat="43.399194963276386" lon="-6.167799979448319">
        <ele>251.52000000000001</ele>
        <time>2025-04-29T13:58:15Z</time>
      </trkpt>
      <trkpt lat="43.399096978828311" lon="-6.167959989979863">
        <ele>252.96000000000001</ele>
        <time>2025-04-29T13:58:16Z</time>
      </trkpt>
      <trkpt lat="43.398992037400603" lon="-6.168114971369505">
        <ele>253.93000000000001</ele>
        <time>2025-04-29T13:58:17Z</time>
      </trkpt>
      <trkpt lat="43.397701978683472" lon="-6.169840972870588">
        <ele>267.86000000000001</ele>
        <time>2025-04-29T13:58:28Z</time>
      </trkpt>
      <trkpt lat="43.396796984598041" lon="-6.170533988624811">
        <ele>276.51999999999998</ele>
        <time>2025-04-29T13:58:34Z</time>
      </trkpt>
      <trkpt lat="43.396661030128598" lon="-6.170670026913285">
        <ele>277.95999999999998</ele>
        <time>2025-04-29T13:58:35Z</time>
      </trkpt>
      <trkpt lat="43.396529015153646" lon="-6.170801036059856">
        <ele>278.92000000000002</ele>
        <time>2025-04-29T13:58:36Z</time>
      </trkpt>
      <trkpt lat="43.396058036014438" lon="-6.170926010236144">
        <ele>283.73000000000002</ele>
        <time>2025-04-29T13:58:39Z</time>
      </trkpt>
      <trkpt lat="43.39595602825284" lon="-6.171101024374366">
        <ele>285.17000000000002</ele>
        <time>2025-04-29T13:58:40Z</time>
      </trkpt>
      <trkpt lat="43.395905988290906" lon="-6.171262040734291">
        <ele>286.61000000000001</ele>
        <time>2025-04-29T13:58:41Z</time>
      </trkpt>
      <trkpt lat="43.395818984135985" lon="-6.171541996300221">
        <ele>289.49000000000001</ele>
        <time>2025-04-29T13:58:43Z</time>
      </trkpt>
      <trkpt lat="43.395688980817795" lon="-6.171567980200052">
        <ele>291.42000000000002</ele>
        <time>2025-04-29T13:58:44Z</time>
      </trkpt>
      <trkpt lat="43.395574986934662" lon="-6.171544007956982">
        <ele>292.86000000000001</ele>
        <time>2025-04-29T13:58:45Z</time>
      </trkpt>
      <trkpt lat="43.394913990050554" lon="-6.171578038483858">
        <ele>299.11000000000001</ele>
        <time>2025-04-29T13:58:50Z</time>
      </trkpt>
      <trkpt lat="43.394810976460576" lon="-6.17160402238369">
        <ele>300.55000000000001</ele>
        <time>2025-04-29T13:58:51Z</time>
      </trkpt>
      <trkpt lat="43.394702011719346" lon="-6.171631012111902">
        <ele>301.99000000000001</ele>
        <time>2025-04-29T13:58:52Z</time>
      </trkpt>
      <trkpt lat="43.39458298869431" lon="-6.171661019325256">
        <ele>302.94999999999999</ele>
        <time>2025-04-29T13:58:53Z</time>
      </trkpt>
      <trkpt lat="43.394449967890978" lon="-6.171698989346623">
        <ele>303.91000000000003</ele>
        <time>2025-04-29T13:58:54Z</time>
      </trkpt>
      <trkpt lat="43.393338024616241" lon="-6.171861011534929">
        <ele>313.05000000000001</ele>
        <time>2025-04-29T13:59:02Z</time>
      </trkpt>
      <trkpt lat="43.393059996888041" lon="-6.171857994049788">
        <ele>315.44999999999999</ele>
        <time>2025-04-29T13:59:04Z</time>
      </trkpt>
      <trkpt lat="43.392921024933457" lon="-6.17190602235496">
        <ele>316.88999999999999</ele>
        <time>2025-04-29T13:59:05Z</time>
      </trkpt>
      <trkpt lat="43.392658000811934" lon="-6.172086987644434">
        <ele>318.81</ele>
        <time>2025-04-29T13:59:07Z</time>
      </trkpt>
      <trkpt lat="43.392520034685731" lon="-6.172106014564633">
        <ele>320.25999999999999</ele>
        <time>2025-04-29T13:59:08Z</time>
      </trkpt>
      <trkpt lat="43.392209988087416" lon="-6.172062009572983">
        <ele>322.18000000000001</ele>
        <time>2025-04-29T13:59:10Z</time>
      </trkpt>
      <trkpt lat="43.392070010304451" lon="-6.172122023999691">
        <ele>323.62</ele>
        <time>2025-04-29T13:59:11Z</time>
      </trkpt>
      <trkpt lat="43.391931038349867" lon="-6.172226965427399">
        <ele>324.57999999999998</ele>
        <time>2025-04-29T13:59:12Z</time>
      </trkpt>
      <trkpt lat="43.39181000366807" lon="-6.172352023422718">
        <ele>325.54000000000002</ele>
        <time>2025-04-29T13:59:13Z</time>
      </trkpt>
      <trkpt lat="43.391685029491782" lon="-6.172483032569289">
        <ele>327.47000000000003</ele>
        <time>2025-04-29T13:59:14Z</time>
      </trkpt>
      <trkpt lat="43.391556032001972" lon="-6.172617981210351">
        <ele>328.43000000000001</ele>
        <time>2025-04-29T13:59:15Z</time>
      </trkpt>
      <trkpt lat="43.391416976228356" lon="-6.172728035598993">
        <ele>329.87</ele>
        <time>2025-04-29T13:59:16Z</time>
      </trkpt>
      <trkpt lat="43.391270963475108" lon="-6.172811016440392">
        <ele>331.31</ele>
        <time>2025-04-29T13:59:17Z</time>
      </trkpt>
      <trkpt lat="43.390857987105846" lon="-6.173071023076773">
        <ele>334.68000000000001</ele>
        <time>2025-04-29T13:59:20Z</time>
      </trkpt>
      <trkpt lat="43.390751034021378" lon="-6.173211000859737">
        <ele>336.12</ele>
        <time>2025-04-29T13:59:21Z</time>
      </trkpt>
      <trkpt lat="43.390646008774638" lon="-6.173348966985941">
        <ele>337.07999999999998</ele>
        <time>2025-04-29T13:59:22Z</time>
      </trkpt>
      <trkpt lat="43.390546012669802" lon="-6.173481987789273">
        <ele>338.04000000000002</ele>
        <time>2025-04-29T13:59:23Z</time>
      </trkpt>
      <trkpt lat="43.390401005744934" lon="-6.173572009429336">
        <ele>339</ele>
        <time>2025-04-29T13:59:24Z</time>
      </trkpt>
      <trkpt lat="43.390257004648447" lon="-6.173585001379252">
        <ele>339.95999999999998</ele>
        <time>2025-04-29T13:59:25Z</time>
      </trkpt>
      <trkpt lat="43.390121972188354" lon="-6.173596987500787">
        <ele>340.92000000000002</ele>
        <time>2025-04-29T13:59:26Z</time>
      </trkpt>
      <trkpt lat="43.390001021325588" lon="-6.173606961965561">
        <ele>341.88999999999999</ele>
        <time>2025-04-29T13:59:27Z</time>
      </trkpt>
      <trkpt lat="43.389895996078849" lon="-6.173641998320818">
        <ele>342.85000000000002</ele>
        <time>2025-04-29T13:59:28Z</time>
      </trkpt>
      <trkpt lat="43.38979197666049" lon="-6.173680974170566">
        <ele>343.81</ele>
        <time>2025-04-29T13:59:29Z</time>
      </trkpt>
      <trkpt lat="43.389131985604763" lon="-6.173977022990584">
        <ele>350.54000000000002</ele>
        <time>2025-04-29T13:59:36Z</time>
      </trkpt>
      <trkpt lat="43.389047998934984" lon="-6.174074001610279">
        <ele>351.5</ele>
        <time>2025-04-29T13:59:37Z</time>
      </trkpt>
      <trkpt lat="43.388786986470222" lon="-6.174370972439647">
        <ele>353.89999999999998</ele>
        <time>2025-04-29T13:59:40Z</time>
      </trkpt>
      <trkpt lat="43.38869595900178" lon="-6.174468034878373">
        <ele>354.38</ele>
        <time>2025-04-29T13:59:41Z</time>
      </trkpt>
      <trkpt lat="43.388594035059214" lon="-6.174497036263347">
        <ele>355.33999999999997</ele>
        <time>2025-04-29T13:59:42Z</time>
      </trkpt>
      <trkpt lat="43.388491021469235" lon="-6.174488989636302">
        <ele>355.82999999999998</ele>
        <time>2025-04-29T13:59:43Z</time>
      </trkpt>
      <trkpt lat="43.388390019536018" lon="-6.174453031271696">
        <ele>356.79000000000002</ele>
        <time>2025-04-29T13:59:44Z</time>
      </trkpt>
      <trkpt lat="43.388284994289279" lon="-6.174415983259678">
        <ele>357.75</ele>
        <time>2025-04-29T13:59:45Z</time>
      </trkpt>
      <trkpt lat="43.388186004012823" lon="-6.174381030723453">
        <ele>358.70999999999998</ele>
        <time>2025-04-29T13:59:46Z</time>
      </trkpt>
      <trkpt lat="43.388101011514664" lon="-6.174272987991571">
        <ele>359.67000000000002</ele>
        <time>2025-04-29T13:59:47Z</time>
      </trkpt>
      <trkpt lat="43.388014007359743" lon="-6.174164023250341">
        <ele>360.63</ele>
        <time>2025-04-29T13:59:48Z</time>
      </trkpt>
      <trkpt lat="43.387931026518345" lon="-6.174058998003602">
        <ele>361.58999999999997</ele>
        <time>2025-04-29T13:59:49Z</time>
      </trkpt>
      <trkpt lat="43.387704966589808" lon="-6.173808965831995">
        <ele>364.95999999999998</ele>
        <time>2025-04-29T13:59:52Z</time>
      </trkpt>
      <trkpt lat="43.38762198574841" lon="-6.173745011910796">
        <ele>365.92000000000002</ele>
        <time>2025-04-29T13:59:53Z</time>
      </trkpt>
      <trkpt lat="43.387516960501671" lon="-6.173721961677074">
        <ele>366.39999999999998</ele>
        <time>2025-04-29T13:59:54Z</time>
      </trkpt>
      <trkpt lat="43.38740698993206" lon="-6.173733025789261">
        <ele>367.36000000000001</ele>
        <time>2025-04-29T13:59:55Z</time>
      </trkpt>
      <trkpt lat="43.38729701936245" lon="-6.173744006082416">
        <ele>368.31999999999999</ele>
        <time>2025-04-29T13:59:56Z</time>
      </trkpt>
      <trkpt lat="43.386577013880014" lon="-6.17386101745069">
        <ele>369.27999999999997</ele>
        <time>2025-04-29T14:00:02Z</time>
      </trkpt>
      <trkpt lat="43.386444998905063" lon="-6.173922037705779">
        <ele>368.80000000000001</ele>
        <time>2025-04-29T14:00:03Z</time>
      </trkpt>
      <trkpt lat="43.386320024728775" lon="-6.174037037417293">
        <ele>368.80000000000001</ele>
        <time>2025-04-29T14:00:04Z</time>
      </trkpt>
      <trkpt lat="43.385696997866035" lon="-6.174659980461001">
        <ele>365.92000000000002</ele>
        <time>2025-04-29T14:00:09Z</time>
      </trkpt>
      <trkpt lat="43.385226018726826" lon="-6.175459027290344">
        <ele>362.06999999999999</ele>
        <time>2025-04-29T14:00:14Z</time>
      </trkpt>
      <trkpt lat="43.385148989036679" lon="-6.175646027550101">
        <ele>361.11000000000001</ele>
        <time>2025-04-29T14:00:15Z</time>
      </trkpt>
      <trkpt lat="43.385083023458719" lon="-6.17583897896111">
        <ele>360.63</ele>
        <time>2025-04-29T14:00:16Z</time>
      </trkpt>
      <trkpt lat="43.3843760099262" lon="-6.178462011739612">
        <ele>356.79000000000002</ele>
        <time>2025-04-29T14:00:29Z</time>
      </trkpt>
      <trkpt lat="43.383832024410367" lon="-6.180207040160894">
        <ele>357.75</ele>
        <time>2025-04-29T14:00:37Z</time>
      </trkpt>
      <trkpt lat="43.383068013936281" lon="-6.182070001959801">
        <ele>361.11000000000001</ele>
        <time>2025-04-29T14:00:46Z</time>
      </trkpt>
      <trkpt lat="43.383024008944631" lon="-6.182284997776151">
        <ele>361.58999999999997</ele>
        <time>2025-04-29T14:00:47Z</time>
      </trkpt>
      <trkpt lat="43.382978998124599" lon="-6.182504016906023">
        <ele>361.58999999999997</ele>
        <time>2025-04-29T14:00:48Z</time>
      </trkpt>
      <trkpt lat="43.382650008425117" lon="-6.184202022850514">
        <ele>364</ele>
        <time>2025-04-29T14:00:56Z</time>
      </trkpt>
      <trkpt lat="43.38250701315701" lon="-6.184638971462846">
        <ele>365.92000000000002</ele>
        <time>2025-04-29T14:00:59Z</time>
      </trkpt>
      <trkpt lat="43.38244297541678" lon="-6.184755982831121">
        <ele>366.88</ele>
        <time>2025-04-29T14:01:00Z</time>
      </trkpt>
      <trkpt lat="43.382361000403762" lon="-6.184849021956325">
        <ele>367.36000000000001</ele>
        <time>2025-04-29T14:01:01Z</time>
      </trkpt>
      <trkpt lat="43.382262010127306" lon="-6.184923034161329">
        <ele>367.83999999999997</ele>
        <time>2025-04-29T14:01:02Z</time>
      </trkpt>
      <trkpt lat="43.382164025679231" lon="-6.184996962547302">
        <ele>368.80000000000001</ele>
        <time>2025-04-29T14:01:03Z</time>
      </trkpt>
      <trkpt lat="43.382065035402775" lon="-6.185070974752307">
        <ele>369.75999999999999</ele>
        <time>2025-04-29T14:01:04Z</time>
      </trkpt>
      <trkpt lat="43.381968978792429" lon="-6.185142975300551">
        <ele>370.24000000000001</ele>
        <time>2025-04-29T14:01:05Z</time>
      </trkpt>
      <trkpt lat="43.381878035143018" lon="-6.185254035517573">
        <ele>371.20999999999998</ele>
        <time>2025-04-29T14:01:06Z</time>
      </trkpt>
      <trkpt lat="43.381830006837845" lon="-6.185384038835764">
        <ele>372.17000000000002</ele>
        <time>2025-04-29T14:01:07Z</time>
      </trkpt>
      <trkpt lat="43.381779966875911" lon="-6.185518987476826">
        <ele>373.13</ele>
        <time>2025-04-29T14:01:08Z</time>
      </trkpt>
      <trkpt lat="43.381727999076247" lon="-6.185660976916552">
        <ele>373.61000000000001</ele>
        <time>2025-04-29T14:01:09Z</time>
      </trkpt>
      <trkpt lat="43.381673013791442" lon="-6.185812018811703">
        <ele>374.08999999999997</ele>
        <time>2025-04-29T14:01:10Z</time>
      </trkpt>
      <trkpt lat="43.381639989092946" lon="-6.185996001586318">
        <ele>374.56999999999999</ele>
        <time>2025-04-29T14:01:11Z</time>
      </trkpt>
      <trkpt lat="43.381612999364734" lon="-6.186188030987978">
        <ele>375.52999999999997</ele>
        <time>2025-04-29T14:01:12Z</time>
      </trkpt>
      <trkpt lat="43.38156002573669" lon="-6.18636698462069">
        <ele>375.52999999999997</ele>
        <time>2025-04-29T14:01:13Z</time>
      </trkpt>
      <trkpt lat="43.381490958854556" lon="-6.186504028737545">
        <ele>376.00999999999999</ele>
        <time>2025-04-29T14:01:14Z</time>
      </trkpt>
      <trkpt lat="43.381376964971423" lon="-6.186661021783948">
        <ele>376.00999999999999</ele>
        <time>2025-04-29T14:01:15Z</time>
      </trkpt>
      <trkpt lat="43.381279986351728" lon="-6.186831006780267">
        <ele>376.49000000000001</ele>
        <time>2025-04-29T14:01:16Z</time>
      </trkpt>
      <trkpt lat="43.381200022995472" lon="-6.187015995383263">
        <ele>376.49000000000001</ele>
        <time>2025-04-29T14:01:17Z</time>
      </trkpt>
      <trkpt lat="43.381117964163423" lon="-6.187206013128161">
        <ele>376.97000000000003</ele>
        <time>2025-04-29T14:01:18Z</time>
      </trkpt>
      <trkpt lat="43.380351020023227" lon="-6.189198978245258">
        <ele>380.33999999999997</ele>
        <time>2025-04-29T14:01:28Z</time>
      </trkpt>
      <trkpt lat="43.380214981734753" lon="-6.189345996826887">
        <ele>380.81999999999999</ele>
        <time>2025-04-29T14:01:29Z</time>
      </trkpt>
      <trkpt lat="43.379871994256973" lon="-6.189725026488304">
        <ele>382.74000000000001</ele>
        <time>2025-04-29T14:01:32Z</time>
      </trkpt>
      <trkpt lat="43.379813991487026" lon="-6.189865004271269">
        <ele>383.22000000000003</ele>
        <time>2025-04-29T14:01:33Z</time>
      </trkpt>
      <trkpt lat="43.379247961565852" lon="-6.190947024151683">
        <ele>386.58999999999997</ele>
        <time>2025-04-29T14:01:40Z</time>
      </trkpt>
      <trkpt lat="43.378867004066706" lon="-6.191428983584046">
        <ele>389.94999999999999</ele>
        <time>2025-04-29T14:01:44Z</time>
      </trkpt>
      <trkpt lat="43.378816964104772" lon="-6.191589999943972">
        <ele>391.38999999999999</ele>
        <time>2025-04-29T14:01:45Z</time>
      </trkpt>
      <trkpt lat="43.378777988255024" lon="-6.19173601269722">
        <ele>392.83999999999997</ele>
        <time>2025-04-29T14:01:46Z</time>
      </trkpt>
      <trkpt lat="43.378595011308789" lon="-6.192411007359624">
        <ele>398.60000000000002</ele>
        <time>2025-04-29T14:01:51Z</time>
      </trkpt>
      <trkpt lat="43.378423014655709" lon="-6.193049037829042">
        <ele>403.41000000000003</ele>
        <time>2025-04-29T14:01:56Z</time>
      </trkpt>
      <trkpt lat="43.378363000229001" lon="-6.193179963156581">
        <ele>403.88999999999999</ele>
        <time>2025-04-29T14:01:57Z</time>
      </trkpt>
      <trkpt lat="43.378308014944196" lon="-6.193297980353236">
        <ele>404.37</ele>
        <time>2025-04-29T14:01:58Z</time>
      </trkpt>
      <trkpt lat="43.378257974982262" lon="-6.193407028913498">
        <ele>405.32999999999998</ele>
        <time>2025-04-29T14:01:59Z</time>
      </trkpt>
      <trkpt lat="43.37821195833385" lon="-6.193509036675096">
        <ele>406.29000000000002</ele>
        <time>2025-04-29T14:02:00Z</time>
      </trkpt>
      <trkpt lat="43.37816996499896" lon="-6.193599980324507">
        <ele>406.76999999999998</ele>
        <time>2025-04-29T14:02:01Z</time>
      </trkpt>
      <trkpt lat="43.37812696583569" lon="-6.19369201362133">
        <ele>407.74000000000001</ele>
        <time>2025-04-29T14:02:02Z</time>
      </trkpt>
      <trkpt lat="43.378057982772589" lon="-6.19384297169745">
        <ele>408.22000000000003</ele>
        <time>2025-04-29T14:02:03Z</time>
      </trkpt>
      <trkpt lat="43.378015989437699" lon="-6.193875996395946">
        <ele>408.69999999999999</ele>
        <time>2025-04-29T14:02:04Z</time>
      </trkpt>
      <trkpt lat="43.37795396335423" lon="-6.19392603635788">
        <ele>409.18000000000001</ele>
        <time>2025-04-29T14:02:05Z</time>
      </trkpt>
      <trkpt lat="43.377870982512832" lon="-6.19394900277257">
        <ele>409.18000000000001</ele>
        <time>2025-04-29T14:02:06Z</time>
      </trkpt>
      <trkpt lat="43.377805016934872" lon="-6.193965012207627">
        <ele>410.13999999999999</ele>
        <time>2025-04-29T14:02:07Z</time>
      </trkpt>
      <trkpt lat="43.377668978646398" lon="-6.193998958915472">
        <ele>411.10000000000002</ele>
        <time>2025-04-29T14:02:09Z</time>
      </trkpt>
      <trkpt lat="43.377550961449742" lon="-6.194085963070393">
        <ele>411.57999999999998</ele>
        <time>2025-04-29T14:02:11Z</time>
      </trkpt>
      <trkpt lat="43.377521960064769" lon="-6.19412200525403">
        <ele>412.06</ele>
        <time>2025-04-29T14:02:12Z</time>
      </trkpt>
      <trkpt lat="43.377484995871782" lon="-6.194243961945176">
        <ele>412.54000000000002</ele>
        <time>2025-04-29T14:02:13Z</time>
      </trkpt>
      <trkpt lat="43.377457000315189" lon="-6.194340018555522">
        <ele>412.54000000000002</ele>
        <time>2025-04-29T14:02:14Z</time>
      </trkpt>
      <trkpt lat="43.377426993101835" lon="-6.194441020488739">
        <ele>412.54000000000002</ele>
        <time>2025-04-29T14:02:15Z</time>
      </trkpt>
      <trkpt lat="43.377396985888481" lon="-6.194540010765195">
        <ele>413.01999999999998</ele>
        <time>2025-04-29T14:02:16Z</time>
      </trkpt>
      <trkpt lat="43.377248039469123" lon="-6.195102017372847">
        <ele>413.01999999999998</ele>
        <time>2025-04-29T14:02:21Z</time>
      </trkpt>
      <trkpt lat="43.377220965921879" lon="-6.195235038176179">
        <ele>413.01999999999998</ele>
        <time>2025-04-29T14:02:22Z</time>
      </trkpt>
      <trkpt lat="43.376891976222396" lon="-6.196702960878611">
        <ele>414.94999999999999</ele>
        <time>2025-04-29T14:02:31Z</time>
      </trkpt>
      <trkpt lat="43.376343967393041" lon="-6.198358973488212">
        <ele>422.16000000000003</ele>
        <time>2025-04-29T14:02:42Z</time>
      </trkpt>
      <trkpt lat="43.376215975731611" lon="-6.198727022856474">
        <ele>422.16000000000003</ele>
        <time>2025-04-29T14:02:44Z</time>
      </trkpt>
      <trkpt lat="43.376167025417089" lon="-6.198925003409386">
        <ele>421.68000000000001</ele>
        <time>2025-04-29T14:02:45Z</time>
      </trkpt>
      <trkpt lat="43.376126037910581" lon="-6.199139999225736">
        <ele>420.70999999999998</ele>
        <time>2025-04-29T14:02:46Z</time>
      </trkpt>
      <trkpt lat="43.375963009893894" lon="-6.200063014402986">
        <ele>418.31</ele>
        <time>2025-04-29T14:02:50Z</time>
      </trkpt>
      <trkpt lat="43.375695962458849" lon="-6.202599965035915">
        <ele>424.07999999999998</ele>
        <time>2025-04-29T14:03:01Z</time>
      </trkpt>
      <trkpt lat="43.375354986637831" lon="-6.205072961747646">
        <ele>432.73000000000002</ele>
        <time>2025-04-29T14:03:12Z</time>
      </trkpt>
      <trkpt lat="43.375307964161038" lon="-6.205481998622417">
        <ele>433.20999999999998</ele>
        <time>2025-04-29T14:03:14Z</time>
      </trkpt>
      <trkpt lat="43.375269994139671" lon="-6.205689031630755">
        <ele>433.20999999999998</ele>
        <time>2025-04-29T14:03:15Z</time>
      </trkpt>
      <trkpt lat="43.375194976106286" lon="-6.206103013828397">
        <ele>433.20999999999998</ele>
        <time>2025-04-29T14:03:17Z</time>
      </trkpt>
      <trkpt lat="43.375161029398441" lon="-6.206319015473127">
        <ele>432.73000000000002</ele>
        <time>2025-04-29T14:03:18Z</time>
      </trkpt>
      <trkpt lat="43.375161029398441" lon="-6.206534011289477">
        <ele>432.25</ele>
        <time>2025-04-29T14:03:19Z</time>
      </trkpt>
      <trkpt lat="43.375188019126654" lon="-6.206740960478783">
        <ele>431.76999999999998</ele>
        <time>2025-04-29T14:03:20Z</time>
      </trkpt>
      <trkpt lat="43.37522397749126" lon="-6.206941036507487">
        <ele>431.29000000000002</ele>
        <time>2025-04-29T14:03:21Z</time>
      </trkpt>
      <trkpt lat="43.375260019674897" lon="-6.207137005403638">
        <ele>430.81</ele>
        <time>2025-04-29T14:03:22Z</time>
      </trkpt>
      <trkpt lat="43.375510973855853" lon="-6.208325978368521">
        <ele>427.44</ele>
        <time>2025-04-29T14:03:29Z</time>
      </trkpt>
      <trkpt lat="43.375517008826137" lon="-6.20849596336484">
        <ele>427.44</ele>
        <time>2025-04-29T14:03:30Z</time>
      </trkpt>
      <trkpt lat="43.37552203796804" lon="-6.208670977503061">
        <ele>427.44</ele>
        <time>2025-04-29T14:03:31Z</time>
      </trkpt>
      <trkpt lat="43.37550200521946" lon="-6.209229966625571">
        <ele>426.48000000000002</ele>
        <time>2025-04-29T14:03:34Z</time>
      </trkpt>
      <trkpt lat="43.375448025763035" lon="-6.210255995392799">
        <ele>429.85000000000002</ele>
        <time>2025-04-29T14:03:41Z</time>
      </trkpt>
      <trkpt lat="43.375441990792751" lon="-6.210367977619171">
        <ele>430.81</ele>
        <time>2025-04-29T14:03:42Z</time>
      </trkpt>
      <trkpt lat="43.375462023541331" lon="-6.210580039769411">
        <ele>432.25</ele>
        <time>2025-04-29T14:03:44Z</time>
      </trkpt>
      <trkpt lat="43.375505022704601" lon="-6.210695039480925">
        <ele>432.73000000000002</ele>
        <time>2025-04-29T14:03:45Z</time>
      </trkpt>
      <trkpt lat="43.375551961362362" lon="-6.210798975080252">
        <ele>433.20999999999998</ele>
        <time>2025-04-29T14:03:46Z</time>
      </trkpt>
      <trkpt lat="43.375663021579385" lon="-6.210967032238841">
        <ele>434.17000000000002</ele>
        <time>2025-04-29T14:03:48Z</time>
      </trkpt>
      <trkpt lat="43.375866031274199" lon="-6.211155038326979">
        <ele>436.10000000000002</ele>
        <time>2025-04-29T14:03:51Z</time>
      </trkpt>
      <trkpt lat="43.375884974375367" lon="-6.211258973926306">
        <ele>436.57999999999998</ele>
        <time>2025-04-29T14:03:52Z</time>
      </trkpt>
      <trkpt lat="43.375899977982044" lon="-6.211356958374381">
        <ele>437.06</ele>
        <time>2025-04-29T14:03:53Z</time>
      </trkpt>
      <trkpt lat="43.375914981588721" lon="-6.211459971964359">
        <ele>437.54000000000002</ele>
        <time>2025-04-29T14:03:54Z</time>
      </trkpt>
      <trkpt lat="43.37593199685216" lon="-6.21156801469624">
        <ele>438.5</ele>
        <time>2025-04-29T14:03:55Z</time>
      </trkpt>
      <trkpt lat="43.375949012115598" lon="-6.211678991094232">
        <ele>439.45999999999998</ele>
        <time>2025-04-29T14:03:56Z</time>
      </trkpt>
      <trkpt lat="43.375964015722275" lon="-6.211790973320603">
        <ele>439.94</ele>
        <time>2025-04-29T14:03:57Z</time>
      </trkpt>
      <trkpt lat="43.375968961045146" lon="-6.211922988295555">
        <ele>440.89999999999998</ele>
        <time>2025-04-29T14:03:58Z</time>
      </trkpt>
      <trkpt lat="43.375938031822443" lon="-6.212059026584029">
        <ele>440.89999999999998</ele>
        <time>2025-04-29T14:03:59Z</time>
      </trkpt>
      <trkpt lat="43.375901989638805" lon="-6.212214007973671">
        <ele>441.38</ele>
        <time>2025-04-29T14:04:00Z</time>
      </trkpt>
      <trkpt lat="43.375865025445819" lon="-6.212379969656467">
        <ele>440.89999999999998</ele>
        <time>2025-04-29T14:04:01Z</time>
      </trkpt>
      <trkpt lat="43.375441990792751" lon="-6.214280985295773">
        <ele>439.45999999999998</ele>
        <time>2025-04-29T14:04:11Z</time>
      </trkpt>
      <trkpt lat="43.375058015808463" lon="-6.216235980391502">
        <ele>435.61000000000001</ele>
        <time>2025-04-29T14:04:20Z</time>
      </trkpt>
      <trkpt lat="43.374990038573742" lon="-6.217940021306276">
        <ele>428.88999999999999</ele>
        <time>2025-04-29T14:04:29Z</time>
      </trkpt>
      <trkpt lat="43.375270999968052" lon="-6.219050958752632">
        <ele>422.63999999999999</ele>
        <time>2025-04-29T14:04:36Z</time>
      </trkpt>
      <trkpt lat="43.375306958332658" lon="-6.219171993434429">
        <ele>420.70999999999998</ele>
        <time>2025-04-29T14:04:38Z</time>
      </trkpt>
      <trkpt lat="43.375316010788083" lon="-6.219202000647783">
        <ele>419.26999999999998</ele>
        <time>2025-04-29T14:04:39Z</time>
      </trkpt>
      <trkpt lat="43.375316010788083" lon="-6.219202000647783">
        <ele>415.43000000000001</ele>
        <time>2025-04-29T14:04:49Z</time>
      </trkpt>
      <trkpt lat="43.375316010788083" lon="-6.219202000647783">
        <ele>414.47000000000003</ele>
        <time>2025-04-29T14:05:34Z</time>
      </trkpt>
      <trkpt lat="43.375431010499597" lon="-6.21936796233058">
        <ele>428.88999999999999</ele>
        <time>2025-04-29T14:18:58Z</time>
      </trkpt>
      <trkpt lat="43.375430004671216" lon="-6.219364022836089">
        <ele>428.39999999999998</ele>
        <time>2025-04-29T14:19:40Z</time>
      </trkpt>
      <trkpt lat="43.375435033813119" lon="-6.21936603449285">
        <ele>428.88999999999999</ele>
        <time>2025-04-29T14:20:29Z</time>
      </trkpt>
      <trkpt lat="43.375435033813119" lon="-6.219364022836089">
        <ele>428.88999999999999</ele>
        <time>2025-04-29T14:21:22Z</time>
      </trkpt>
      <trkpt lat="43.375436961650848" lon="-6.219364022836089">
        <ele>429.37</ele>
        <time>2025-04-29T14:22:13Z</time>
      </trkpt>
      <trkpt lat="43.37543897330761" lon="-6.21936796233058">
        <ele>429.37</ele>
        <time>2025-04-29T14:23:02Z</time>
      </trkpt>
      <trkpt lat="43.375436961650848" lon="-6.219375003129244">
        <ele>428.88999999999999</ele>
        <time>2025-04-29T14:23:45Z</time>
      </trkpt>
      <trkpt lat="43.375436961650848" lon="-6.219378020614386">
        <ele>428.88999999999999</ele>
        <time>2025-04-29T14:24:29Z</time>
      </trkpt>
      <trkpt lat="43.375436961650848" lon="-6.219381038099527">
        <ele>428.88999999999999</ele>
        <time>2025-04-29T14:25:11Z</time>
      </trkpt>
      <trkpt lat="43.375437967479229" lon="-6.219381960108876">
        <ele>429.37</ele>
        <time>2025-04-29T14:25:59Z</time>
      </trkpt>
      <trkpt lat="43.375435033813119" lon="-6.219379026442766">
        <ele>429.37</ele>
        <time>2025-04-29T14:26:40Z</time>
      </trkpt>
      <trkpt lat="43.375437967479229" lon="-6.219381038099527">
        <ele>429.37</ele>
        <time>2025-04-29T14:27:25Z</time>
      </trkpt>
      <trkpt lat="43.37543997913599" lon="-6.21938900090754">
        <ele>428.88999999999999</ele>
        <time>2025-04-29T14:28:05Z</time>
      </trkpt>
      <trkpt lat="43.37543897330761" lon="-6.219392018392682">
        <ele>428.88999999999999</ele>
        <time>2025-04-29T14:28:44Z</time>
      </trkpt>
      <trkpt lat="43.375440984964371" lon="-6.219392018392682">
        <ele>428.88999999999999</ele>
        <time>2025-04-29T14:29:35Z</time>
      </trkpt>
      <trkpt lat="43.375445008277893" lon="-6.219394030049443">
        <ele>428.39999999999998</ele>
        <time>2025-04-29T14:30:26Z</time>
      </trkpt>
      <trkpt lat="43.375448025763035" lon="-6.219396041706204">
        <ele>428.39999999999998</ele>
        <time>2025-04-29T14:31:09Z</time>
      </trkpt>
      <trkpt lat="43.375448025763035" lon="-6.219392018392682">
        <ele>428.39999999999998</ele>
        <time>2025-04-29T14:31:53Z</time>
      </trkpt>
      <trkpt lat="43.375447019934654" lon="-6.219386989250779">
        <ele>428.39999999999998</ele>
        <time>2025-04-29T14:32:37Z</time>
      </trkpt>
      <trkpt lat="43.375450037419796" lon="-6.219381960108876">
        <ele>428.39999999999998</ele>
        <time>2025-04-29T14:33:15Z</time>
      </trkpt>
      <trkpt lat="43.375453976914287" lon="-6.219380032271147">
        <ele>427.92000000000002</ele>
        <time>2025-04-29T14:34:03Z</time>
      </trkpt>
      <trkpt lat="43.375453976914287" lon="-6.219380032271147">
        <ele>427.92000000000002</ele>
        <time>2025-04-29T14:34:50Z</time>
      </trkpt>
      <trkpt lat="43.375450037419796" lon="-6.219382965937257">
        <ele>427.92000000000002</ele>
        <time>2025-04-29T14:35:31Z</time>
      </trkpt>
      <trkpt lat="43.375448025763035" lon="-6.219383971765637">
        <ele>427.92000000000002</ele>
        <time>2025-04-29T14:36:14Z</time>
      </trkpt>
      <trkpt lat="43.375449031591415" lon="-6.219382965937257">
        <ele>427.92000000000002</ele>
        <time>2025-04-29T14:37:00Z</time>
      </trkpt>
      <trkpt lat="43.375447019934654" lon="-6.219386989250779">
        <ele>428.39999999999998</ele>
        <time>2025-04-29T14:37:44Z</time>
      </trkpt>
      <trkpt lat="43.375447019934654" lon="-6.219385983422399">
        <ele>428.39999999999998</ele>
        <time>2025-04-29T14:38:26Z</time>
      </trkpt>
      <trkpt lat="43.37539697997272" lon="-6.219482962042093">
        <ele>428.39999999999998</ele>
        <time>2025-04-29T14:38:57Z</time>
      </trkpt>
      <trkpt lat="43.375536035746336" lon="-6.220026025548577">
        <ele>426</ele>
        <time>2025-04-29T14:39:05Z</time>
      </trkpt>
      <trkpt lat="43.375580040737987" lon="-6.220270022749901">
        <ele>425.51999999999998</ele>
        <time>2025-04-29T14:39:06Z</time>
      </trkpt>
      <trkpt lat="43.375624967738986" lon="-6.220521982759237">
        <ele>424.07999999999998</ele>
        <time>2025-04-29T14:39:08Z</time>
      </trkpt>
      <trkpt lat="43.375647012144327" lon="-6.220642011612654">
        <ele>423.60000000000002</ele>
        <time>2025-04-29T14:39:09Z</time>
      </trkpt>
      <trkpt lat="43.375648017972708" lon="-6.220694985240698">
        <ele>422.63999999999999</ele>
        <time>2025-04-29T14:39:10Z</time>
      </trkpt>
      <trkpt lat="43.375591021031141" lon="-6.220772014930844">
        <ele>422.16000000000003</ele>
        <time>2025-04-29T14:39:11Z</time>
      </trkpt>
      <trkpt lat="43.375530000776052" lon="-6.220852984115481">
        <ele>421.68000000000001</ele>
        <time>2025-04-29T14:39:12Z</time>
      </trkpt>
      <trkpt lat="43.375461017712951" lon="-6.220945017412305">
        <ele>421.68000000000001</ele>
        <time>2025-04-29T14:39:13Z</time>
      </trkpt>
      <trkpt lat="43.375390022993088" lon="-6.221039984375238">
        <ele>421.19</ele>
        <time>2025-04-29T14:39:14Z</time>
      </trkpt>
      <trkpt lat="43.375313999131322" lon="-6.221140986308456">
        <ele>420.70999999999998</ele>
        <time>2025-04-29T14:39:15Z</time>
      </trkpt>
      <trkpt lat="43.375253984704614" lon="-6.221290016546845">
        <ele>420.23000000000002</ele>
        <time>2025-04-29T14:39:16Z</time>
      </trkpt>
      <trkpt lat="43.375229006633162" lon="-6.221439968794584">
        <ele>419.75</ele>
        <time>2025-04-29T14:39:17Z</time>
      </trkpt>
      <trkpt lat="43.375203022733331" lon="-6.221597967669368">
        <ele>419.26999999999998</ele>
        <time>2025-04-29T14:39:18Z</time>
      </trkpt>
      <trkpt lat="43.375177038833499" lon="-6.221758984029293">
        <ele>418.79000000000002</ele>
        <time>2025-04-29T14:39:19Z</time>
      </trkpt>
      <trkpt lat="43.375149965286255" lon="-6.221921006217599">
        <ele>418.79000000000002</ele>
        <time>2025-04-29T14:39:20Z</time>
      </trkpt>
      <trkpt lat="43.375122975558043" lon="-6.222084034234285">
        <ele>418.31</ele>
        <time>2025-04-29T14:39:21Z</time>
      </trkpt>
      <trkpt lat="43.375097997486591" lon="-6.222240021452308">
        <ele>417.82999999999998</ele>
        <time>2025-04-29T14:39:22Z</time>
      </trkpt>
      <trkpt lat="43.375048963353038" lon="-6.222536992281675">
        <ele>417.82999999999998</ele>
        <time>2025-04-29T14:39:24Z</time>
      </trkpt>
      <trkpt lat="43.375024991109967" lon="-6.222681999206543">
        <ele>417.82999999999998</ele>
        <time>2025-04-29T14:39:25Z</time>
      </trkpt>
      <trkpt lat="43.374828016385436" lon="-6.223887987434864">
        <ele>417.82999999999998</ele>
        <time>2025-04-29T14:39:33Z</time>
      </trkpt>
      <trkpt lat="43.374747969210148" lon="-6.224972018972039">
        <ele>417.35000000000002</ele>
        <time>2025-04-29T14:39:40Z</time>
      </trkpt>
      <trkpt lat="43.37468602694571" lon="-6.225107973441482">
        <ele>417.35000000000002</ele>
        <time>2025-04-29T14:39:41Z</time>
      </trkpt>
      <trkpt lat="43.374617965891957" lon="-6.225255997851491">
        <ele>416.87</ele>
        <time>2025-04-29T14:39:42Z</time>
      </trkpt>
      <trkpt lat="43.373917993158102" lon="-6.226695002987981">
        <ele>413.98000000000002</ele>
        <time>2025-04-29T14:39:51Z</time>
      </trkpt>
      <trkpt lat="43.373331008478999" lon="-6.228393008932471">
        <ele>411.57999999999998</ele>
        <time>2025-04-29T14:40:01Z</time>
      </trkpt>
      <trkpt lat="43.37290596216917" lon="-6.230727033689618">
        <ele>410.62</ele>
        <time>2025-04-29T14:40:13Z</time>
      </trkpt>
      <trkpt lat="43.372866986319423" lon="-6.231222990900278">
        <ele>410.13999999999999</ele>
        <time>2025-04-29T14:40:16Z</time>
      </trkpt>
      <trkpt lat="43.372812001034617" lon="-6.231352994218469">
        <ele>409.66000000000003</ele>
        <time>2025-04-29T14:40:17Z</time>
      </trkpt>
      <trkpt lat="43.372756009921432" lon="-6.231465982273221">
        <ele>409.66000000000003</ele>
        <time>2025-04-29T14:40:18Z</time>
      </trkpt>
      <trkpt lat="43.372699012979865" lon="-6.231581987813115">
        <ele>409.66000000000003</ele>
        <time>2025-04-29T14:40:19Z</time>
      </trkpt>
      <trkpt lat="43.372642016038299" lon="-6.231697993353009">
        <ele>409.18000000000001</ele>
        <time>2025-04-29T14:40:20Z</time>
      </trkpt>
      <trkpt lat="43.372520981356502" lon="-6.231945008039475">
        <ele>408.69999999999999</ele>
        <time>2025-04-29T14:40:22Z</time>
      </trkpt>
      <trkpt lat="43.372456021606922" lon="-6.232078028842807">
        <ele>408.22000000000003</ele>
        <time>2025-04-29T14:40:23Z</time>
      </trkpt>
      <trkpt lat="43.372013960033655" lon="-6.23305301181972">
        <ele>404.85000000000002</ele>
        <time>2025-04-29T14:40:30Z</time>
      </trkpt>
      <trkpt lat="43.371715983375907" lon="-6.233963035047054">
        <ele>401.97000000000003</ele>
        <time>2025-04-29T14:40:36Z</time>
      </trkpt>
      <trkpt lat="43.371649011969566" lon="-6.234743976965547">
        <ele>401.00999999999999</ele>
        <time>2025-04-29T14:40:41Z</time>
      </trkpt>
      <trkpt lat="43.371606012806296" lon="-6.234911028295755">
        <ele>400.52999999999997</ele>
        <time>2025-04-29T14:40:42Z</time>
      </trkpt>
      <trkpt lat="43.371539963409305" lon="-6.235060980543494">
        <ele>400.52999999999997</ele>
        <time>2025-04-29T14:40:43Z</time>
      </trkpt>
      <trkpt lat="43.371481960639358" lon="-6.235219985246658">
        <ele>400.52999999999997</ele>
        <time>2025-04-29T14:40:44Z</time>
      </trkpt>
      <trkpt lat="43.371450025588274" lon="-6.235385024920106">
        <ele>401.00999999999999</ele>
        <time>2025-04-29T14:40:45Z</time>
      </trkpt>
      <trkpt lat="43.371419012546539" lon="-6.23554696328938">
        <ele>400.52999999999997</ele>
        <time>2025-04-29T14:40:46Z</time>
      </trkpt>
      <trkpt lat="43.371363021433353" lon="-6.235835971310735">
        <ele>401.00999999999999</ele>
        <time>2025-04-29T14:40:48Z</time>
      </trkpt>
      <trkpt lat="43.371282974258065" lon="-6.235980978235602">
        <ele>401.00999999999999</ele>
        <time>2025-04-29T14:40:49Z</time>
      </trkpt>
      <trkpt lat="43.370770001783967" lon="-6.237328033894301">
        <ele>401.97000000000003</ele>
        <time>2025-04-29T14:40:58Z</time>
      </trkpt>
      <trkpt lat="43.370554000139236" lon="-6.237967992201448">
        <ele>401.49000000000001</ele>
        <time>2025-04-29T14:41:02Z</time>
      </trkpt>
      <trkpt lat="43.370499014854431" lon="-6.238133031874895">
        <ele>401.97000000000003</ele>
        <time>2025-04-29T14:41:03Z</time>
      </trkpt>
      <trkpt lat="43.370253005996346" lon="-6.238796962425113">
        <ele>401.97000000000003</ele>
        <time>2025-04-29T14:41:07Z</time>
      </trkpt>
      <trkpt lat="43.370167007669806" lon="-6.238945992663503">
        <ele>401.97000000000003</ele>
        <time>2025-04-29T14:41:08Z</time>
      </trkpt>
      <trkpt lat="43.370066005736589" lon="-6.239072978496552">
        <ele>401.97000000000003</ele>
        <time>2025-04-29T14:41:09Z</time>
      </trkpt>
      <trkpt lat="43.369764005765319" lon="-6.23945401981473">
        <ele>401.97000000000003</ele>
        <time>2025-04-29T14:41:12Z</time>
      </trkpt>
      <trkpt lat="43.369468962773681" lon="-6.240043016150594">
        <ele>401.97000000000003</ele>
        <time>2025-04-29T14:41:16Z</time>
      </trkpt>
      <trkpt lat="43.36942202411592" lon="-6.240216018632054">
        <ele>401.49000000000001</ele>
        <time>2025-04-29T14:41:17Z</time>
      </trkpt>
      <trkpt lat="43.369369972497225" lon="-6.240580966696143">
        <ele>401.00999999999999</ele>
        <time>2025-04-29T14:41:19Z</time>
      </trkpt>
      <trkpt lat="43.369167968630791" lon="-6.241982001811266">
        <ele>399.07999999999998</ele>
        <time>2025-04-29T14:41:27Z</time>
      </trkpt>
      <trkpt lat="43.369141984730959" lon="-6.242160033434629">
        <ele>398.60000000000002</ele>
        <time>2025-04-29T14:41:28Z</time>
      </trkpt>
      <trkpt lat="43.369109965860844" lon="-6.242379974573851">
        <ele>398.12</ele>
        <time>2025-04-29T14:41:29Z</time>
      </trkpt>
      <trkpt lat="43.369065038859844" lon="-6.24250503256917">
        <ele>397.63999999999999</ele>
        <time>2025-04-29T14:41:30Z</time>
      </trkpt>
      <trkpt lat="43.369010975584388" lon="-6.242655990645289">
        <ele>397.16000000000003</ele>
        <time>2025-04-29T14:41:31Z</time>
      </trkpt>
      <trkpt lat="43.368956996127963" lon="-6.242804015055299">
        <ele>396.68000000000001</ele>
        <time>2025-04-29T14:41:32Z</time>
      </trkpt>
      <trkpt lat="43.368853982537985" lon="-6.243088999763131">
        <ele>395.24000000000001</ele>
        <time>2025-04-29T14:41:34Z</time>
      </trkpt>
      <trkpt lat="43.368806038051844" lon="-6.243222020566464">
        <ele>394.75999999999999</ele>
        <time>2025-04-29T14:41:35Z</time>
      </trkpt>
      <trkpt lat="43.36856103502214" lon="-6.243900032714009">
        <ele>390.43000000000001</ele>
        <time>2025-04-29T14:41:40Z</time>
      </trkpt>
      <trkpt lat="43.368515018373728" lon="-6.243984019383788">
        <ele>390.43000000000001</ele>
        <time>2025-04-29T14:41:41Z</time>
      </trkpt>
      <trkpt lat="43.368447963148355" lon="-6.244089966639876">
        <ele>390.43000000000001</ele>
        <time>2025-04-29T14:41:42Z</time>
      </trkpt>
      <trkpt lat="43.368365988135338" lon="-6.244191974401474">
        <ele>390.91000000000003</ele>
        <time>2025-04-29T14:41:43Z</time>
      </trkpt>
      <trkpt lat="43.36826297454536" lon="-6.244279984384775">
        <ele>390.91000000000003</ele>
        <time>2025-04-29T14:41:44Z</time>
      </trkpt>
      <trkpt lat="43.368141017854214" lon="-6.244298005476594">
        <ele>391.38999999999999</ele>
        <time>2025-04-29T14:41:45Z</time>
      </trkpt>
      <trkpt lat="43.368024006485939" lon="-6.244305968284607">
        <ele>391.87</ele>
        <time>2025-04-29T14:41:46Z</time>
      </trkpt>
      <trkpt lat="43.367895008996129" lon="-6.244304040446878">
        <ele>392.83999999999997</ele>
        <time>2025-04-29T14:41:47Z</time>
      </trkpt>
      <trkpt lat="43.367766011506319" lon="-6.244286019355059">
        <ele>393.80000000000001</ele>
        <time>2025-04-29T14:41:48Z</time>
      </trkpt>
      <trkpt lat="43.367649000138044" lon="-6.244270009920001">
        <ele>394.75999999999999</ele>
        <time>2025-04-29T14:41:49Z</time>
      </trkpt>
      <trkpt lat="43.367541963234544" lon="-6.244256012141705">
        <ele>395.72000000000003</ele>
        <time>2025-04-29T14:41:50Z</time>
      </trkpt>
      <trkpt lat="43.367440961301327" lon="-6.244275961071253">
        <ele>395.72000000000003</ele>
        <time>2025-04-29T14:41:51Z</time>
      </trkpt>
      <trkpt lat="43.367356974631548" lon="-6.244338992983103">
        <ele>396.19999999999999</ele>
        <time>2025-04-29T14:41:52Z</time>
      </trkpt>
      <trkpt lat="43.367267036810517" lon="-6.244406970217824">
        <ele>397.16000000000003</ele>
        <time>2025-04-29T14:41:53Z</time>
      </trkpt>
      <trkpt lat="43.367071989923716" lon="-6.244551977142692">
        <ele>398.60000000000002</ele>
        <time>2025-04-29T14:41:55Z</time>
      </trkpt>
      <trkpt lat="43.366978028789163" lon="-6.244622971862555">
        <ele>399.07999999999998</ele>
        <time>2025-04-29T14:41:56Z</time>
      </trkpt>
      <trkpt lat="43.366921031847596" lon="-6.24474199488759">
        <ele>400.05000000000001</ele>
        <time>2025-04-29T14:41:57Z</time>
      </trkpt>
      <trkpt lat="43.366875015199184" lon="-6.24486998654902">
        <ele>401.00999999999999</ele>
        <time>2025-04-29T14:41:58Z</time>
      </trkpt>
      <trkpt lat="43.366853976622224" lon="-6.245026979595423">
        <ele>402.44999999999999</ele>
        <time>2025-04-29T14:41:59Z</time>
      </trkpt>
      <trkpt lat="43.366831010207534" lon="-6.245194030925632">
        <ele>403.41000000000003</ele>
        <time>2025-04-29T14:42:00Z</time>
      </trkpt>
      <trkpt lat="43.366793040186167" lon="-6.245469963178039">
        <ele>404.37</ele>
        <time>2025-04-29T14:42:02Z</time>
      </trkpt>
      <trkpt lat="43.366683991625905" lon="-6.245639026165009">
        <ele>404.85000000000002</ele>
        <time>2025-04-29T14:42:03Z</time>
      </trkpt>
      <trkpt lat="43.3666099794209" lon="-6.245754025876522">
        <ele>405.32999999999998</ele>
        <time>2025-04-29T14:42:04Z</time>
      </trkpt>
      <trkpt lat="43.366568991914392" lon="-6.245903978124261">
        <ele>405.81</ele>
        <time>2025-04-29T14:42:05Z</time>
      </trkpt>
      <trkpt lat="43.366542002186179" lon="-6.246021995320916">
        <ele>406.29000000000002</ele>
        <time>2025-04-29T14:42:06Z</time>
      </trkpt>
      <trkpt lat="43.366534961387515" lon="-6.246048985049129">
        <ele>406.76999999999998</ele>
        <time>2025-04-29T14:42:07Z</time>
      </trkpt>
      <trkpt lat="43.366585001349449" lon="-6.246280996128917">
        <ele>407.25999999999999</ele>
        <time>2025-04-29T14:42:08Z</time>
      </trkpt>
      <trkpt lat="43.366634035483003" lon="-6.246402030810714">
        <ele>407.25999999999999</ele>
        <time>2025-04-29T14:42:09Z</time>
      </trkpt>
      <trkpt lat="43.366717016324401" lon="-6.246525999158621">
        <ele>407.25999999999999</ele>
        <time>2025-04-29T14:42:10Z</time>
      </trkpt>
      <trkpt lat="43.366807959973812" lon="-6.246662959456444">
        <ele>407.25999999999999</ele>
        <time>2025-04-29T14:42:11Z</time>
      </trkpt>
      <trkpt lat="43.366906028240919" lon="-6.246809978038073">
        <ele>407.25999999999999</ele>
        <time>2025-04-29T14:42:12Z</time>
      </trkpt>
      <trkpt lat="43.367010969668627" lon="-6.246967976912856">
        <ele>407.25999999999999</ele>
        <time>2025-04-29T14:42:13Z</time>
      </trkpt>
      <trkpt lat="43.367071989923716" lon="-6.247057998552918">
        <ele>407.25999999999999</ele>
        <time>2025-04-29T14:42:14Z</time>
      </trkpt>
      <trkpt lat="43.367266030982137" lon="-6.247191019356251">
        <ele>407.25999999999999</ele>
        <time>2025-04-29T14:42:15Z</time>
      </trkpt>
      <trkpt lat="43.36738002486527" lon="-6.247268971055746">
        <ele>407.25999999999999</ele>
        <time>2025-04-29T14:42:16Z</time>
      </trkpt>
      <trkpt lat="43.367497036233544" lon="-6.24734197743237">
        <ele>406.76999999999998</ele>
        <time>2025-04-29T14:42:17Z</time>
      </trkpt>
      <trkpt lat="43.367622010409832" lon="-6.247378019616008">
        <ele>406.76999999999998</ele>
        <time>2025-04-29T14:42:18Z</time>
      </trkpt>
      <trkpt lat="43.367743967100978" lon="-6.247412972152233">
        <ele>406.29000000000002</ele>
        <time>2025-04-29T14:42:19Z</time>
      </trkpt>
      <trkpt lat="43.367857960984111" lon="-6.247444991022348">
        <ele>405.81</ele>
        <time>2025-04-29T14:42:20Z</time>
      </trkpt>
      <trkpt lat="43.367958962917328" lon="-6.247505005449057">
        <ele>405.81</ele>
        <time>2025-04-29T14:42:21Z</time>
      </trkpt>
      <trkpt lat="43.368034986779094" lon="-6.247609024867415">
        <ele>406.29000000000002</ele>
        <time>2025-04-29T14:42:22Z</time>
      </trkpt>
      <trkpt lat="43.36817697621882" lon="-6.247845981270075">
        <ele>407.25999999999999</ele>
        <time>2025-04-29T14:42:24Z</time>
      </trkpt>
      <trkpt lat="43.368204971775413" lon="-6.247997023165226">
        <ele>407.74000000000001</ele>
        <time>2025-04-29T14:42:25Z</time>
      </trkpt>
      <trkpt lat="43.368228022009134" lon="-6.248188968747854">
        <ele>407.74000000000001</ele>
        <time>2025-04-29T14:42:26Z</time>
      </trkpt>
      <trkpt lat="43.36821997538209" lon="-6.248332969844341">
        <ele>408.22000000000003</ele>
        <time>2025-04-29T14:42:27Z</time>
      </trkpt>
      <trkpt lat="43.368213018402457" lon="-6.248480994254351">
        <ele>408.22000000000003</ele>
        <time>2025-04-29T14:42:28Z</time>
      </trkpt>
      <trkpt lat="43.368228022009134" lon="-6.248619966208935">
        <ele>408.69999999999999</ele>
        <time>2025-04-29T14:42:29Z</time>
      </trkpt>
      <trkpt lat="43.368282001465559" lon="-6.248790035024285">
        <ele>408.69999999999999</ele>
        <time>2025-04-29T14:42:30Z</time>
      </trkpt>
      <trkpt lat="43.368394989520311" lon="-6.249196976423264">
        <ele>407.74000000000001</ele>
        <time>2025-04-29T14:42:32Z</time>
      </trkpt>
      <trkpt lat="43.368423990905285" lon="-6.249401997774839">
        <ele>407.25999999999999</ele>
        <time>2025-04-29T14:42:33Z</time>
      </trkpt>
      <trkpt lat="43.368441006168723" lon="-6.249611964449287">
        <ele>406.76999999999998</ele>
        <time>2025-04-29T14:42:34Z</time>
      </trkpt>
      <trkpt lat="43.368431031703949" lon="-6.249795025214553">
        <ele>405.81</ele>
        <time>2025-04-29T14:42:35Z</time>
      </trkpt>
      <trkpt lat="43.368403036147356" lon="-6.249975990504026">
        <ele>404.37</ele>
        <time>2025-04-29T14:42:36Z</time>
      </trkpt>
      <trkpt lat="43.368332963436842" lon="-6.250120997428894">
        <ele>402.93000000000001</ele>
        <time>2025-04-29T14:42:37Z</time>
      </trkpt>
      <trkpt lat="43.368261968716979" lon="-6.250271033495665">
        <ele>401.49000000000001</ele>
        <time>2025-04-29T14:42:38Z</time>
      </trkpt>
      <trkpt lat="43.368086032569408" lon="-6.250549983233213">
        <ele>399.07999999999998</ele>
        <time>2025-04-29T14:42:40Z</time>
      </trkpt>
      <trkpt lat="43.367970027029514" lon="-6.250665988773108">
        <ele>397.63999999999999</ele>
        <time>2025-04-29T14:42:41Z</time>
      </trkpt>
      <trkpt lat="43.367780009284616" lon="-6.250856006518006">
        <ele>395.72000000000003</ele>
        <time>2025-04-29T14:42:43Z</time>
      </trkpt>
      <trkpt lat="43.36772502399981" lon="-6.251020962372422">
        <ele>394.75999999999999</ele>
        <time>2025-04-29T14:42:44Z</time>
      </trkpt>
      <trkpt lat="43.367694010958076" lon="-6.251112995669246">
        <ele>393.80000000000001</ele>
        <time>2025-04-29T14:42:45Z</time>
      </trkpt>
      <trkpt lat="43.367701973766088" lon="-6.251242998987436">
        <ele>392.83999999999997</ele>
        <time>2025-04-29T14:42:46Z</time>
      </trkpt>
      <trkpt lat="43.367711026221514" lon="-6.251383982598782">
        <ele>391.87</ele>
        <time>2025-04-29T14:42:47Z</time>
      </trkpt>
      <trkpt lat="43.367719994857907" lon="-6.251537958160043">
        <ele>391.38999999999999</ele>
        <time>2025-04-29T14:42:48Z</time>
      </trkpt>
      <trkpt lat="43.367730975151062" lon="-6.251705009490252">
        <ele>390.91000000000003</ele>
        <time>2025-04-29T14:42:49Z</time>
      </trkpt>
      <trkpt lat="43.367780009284616" lon="-6.252042967826128">
        <ele>388.99000000000001</ele>
        <time>2025-04-29T14:42:51Z</time>
      </trkpt>
      <trkpt lat="43.367823008447886" lon="-6.252213036641479">
        <ele>388.02999999999997</ele>
        <time>2025-04-29T14:42:52Z</time>
      </trkpt>
      <trkpt lat="43.367889979854226" lon="-6.252357037737966">
        <ele>387.06999999999999</ele>
        <time>2025-04-29T14:42:53Z</time>
      </trkpt>
      <trkpt lat="43.36796298623085" lon="-6.252458039671183">
        <ele>386.11000000000001</ele>
        <time>2025-04-29T14:42:54Z</time>
      </trkpt>
      <trkpt lat="43.368055019527674" lon="-6.25249701552093">
        <ele>385.14999999999998</ele>
        <time>2025-04-29T14:42:55Z</time>
      </trkpt>
      <trkpt lat="43.368159960955381" lon="-6.252541020512581">
        <ele>384.18000000000001</ele>
        <time>2025-04-29T14:42:56Z</time>
      </trkpt>
      <trkpt lat="43.368270015344024" lon="-6.252587037160993">
        <ele>383.22000000000003</ele>
        <time>2025-04-29T14:42:57Z</time>
      </trkpt>
      <trkpt lat="43.368968982249498" lon="-6.252851989120245">
        <ele>375.52999999999997</ele>
        <time>2025-04-29T14:43:04Z</time>
      </trkpt>
      <trkpt lat="43.369028996676207" lon="-6.252851989120245">
        <ele>374.56999999999999</ele>
        <time>2025-04-29T14:43:05Z</time>
      </trkpt>
      <trkpt lat="43.369094040244818" lon="-6.252851989120245">
        <ele>374.08999999999997</ele>
        <time>2025-04-29T14:43:06Z</time>
      </trkpt>
      <trkpt lat="43.36916696280241" lon="-6.252851989120245">
        <ele>373.13</ele>
        <time>2025-04-29T14:43:07Z</time>
      </trkpt>
      <trkpt lat="43.369249021634459" lon="-6.252851989120245">
        <ele>372.17000000000002</ele>
        <time>2025-04-29T14:43:08Z</time>
      </trkpt>
      <trkpt lat="43.369430992752314" lon="-6.252864981070161">
        <ele>371.20999999999998</ele>
        <time>2025-04-29T14:43:10Z</time>
      </trkpt>
      <trkpt lat="43.369536017999053" lon="-6.252896999940276">
        <ele>370.24000000000001</ele>
        <time>2025-04-29T14:43:11Z</time>
      </trkpt>
      <trkpt lat="43.369649006053805" lon="-6.252932958304882">
        <ele>369.27999999999997</ele>
        <time>2025-04-29T14:43:12Z</time>
      </trkpt>
      <trkpt lat="43.370014037936926" lon="-6.253115013241768">
        <ele>367.36000000000001</ele>
        <time>2025-04-29T14:43:15Z</time>
      </trkpt>
      <trkpt lat="43.370135994628072" lon="-6.253189025446773">
        <ele>367.36000000000001</ele>
        <time>2025-04-29T14:43:16Z</time>
      </trkpt>
      <trkpt lat="43.370633041486144" lon="-6.253623040392995">
        <ele>367.83999999999997</ele>
        <time>2025-04-29T14:43:21Z</time>
      </trkpt>
      <trkpt lat="43.370723985135555" lon="-6.253645000979304">
        <ele>368.31999999999999</ele>
        <time>2025-04-29T14:43:22Z</time>
      </trkpt>
      <trkpt lat="43.370824987068772" lon="-6.253668973222375">
        <ele>368.80000000000001</ele>
        <time>2025-04-29T14:43:23Z</time>
      </trkpt>
      <trkpt lat="43.370928000658751" lon="-6.253693029284477">
        <ele>368.80000000000001</ele>
        <time>2025-04-29T14:43:24Z</time>
      </trkpt>
      <trkpt lat="43.370997989550233" lon="-6.253709960728884">
        <ele>369.27999999999997</ele>
        <time>2025-04-29T14:43:25Z</time>
      </trkpt>
      <trkpt lat="43.371107038110495" lon="-6.253840969875455">
        <ele>369.27999999999997</ele>
        <time>2025-04-29T14:43:26Z</time>
      </trkpt>
      <trkpt lat="43.371189013123512" lon="-6.253939960151911">
        <ele>370.24000000000001</ele>
        <time>2025-04-29T14:43:27Z</time>
      </trkpt>
      <trkpt lat="43.371266964823008" lon="-6.254035010933876">
        <ele>370.73000000000002</ele>
        <time>2025-04-29T14:43:28Z</time>
      </trkpt>
      <trkpt lat="43.371479026973248" lon="-6.254290994256735">
        <ele>373.13</ele>
        <time>2025-04-29T14:43:31Z</time>
      </trkpt>
      <trkpt lat="43.371520014479756" lon="-6.254370035603643">
        <ele>374.08999999999997</ele>
        <time>2025-04-29T14:43:32Z</time>
      </trkpt>
      <trkpt lat="43.371541975066066" lon="-6.254490986466408">
        <ele>375.05000000000001</ele>
        <time>2025-04-29T14:43:33Z</time>
      </trkpt>
      <trkpt lat="43.371566031128168" lon="-6.25462400726974">
        <ele>376.00999999999999</ele>
        <time>2025-04-29T14:43:34Z</time>
      </trkpt>
      <trkpt lat="43.371591009199619" lon="-6.254759961739183">
        <ele>376.97000000000003</ele>
        <time>2025-04-29T14:43:35Z</time>
      </trkpt>
      <trkpt lat="43.371644988656044" lon="-6.254873033612967">
        <ele>377.94</ele>
        <time>2025-04-29T14:43:36Z</time>
      </trkpt>
      <trkpt lat="43.371713971719146" lon="-6.254960959777236">
        <ele>378.42000000000002</ele>
        <time>2025-04-29T14:43:37Z</time>
      </trkpt>
      <trkpt lat="43.371795024722815" lon="-6.255042012780905">
        <ele>379.38</ele>
        <time>2025-04-29T14:43:38Z</time>
      </trkpt>
      <trkpt lat="43.371883034706116" lon="-6.255131028592587">
        <ele>380.33999999999997</ele>
        <time>2025-04-29T14:43:39Z</time>
      </trkpt>
      <trkpt lat="43.371978001669049" lon="-6.255215015262365">
        <ele>380.81999999999999</ele>
        <time>2025-04-29T14:43:40Z</time>
      </trkpt>
      <trkpt lat="43.372083026915789" lon="-6.255300007760525">
        <ele>381.30000000000001</ele>
        <time>2025-04-29T14:43:41Z</time>
      </trkpt>
      <trkpt lat="43.372301962226629" lon="-6.255478039383888">
        <ele>381.30000000000001</ele>
        <time>2025-04-29T14:43:43Z</time>
      </trkpt>
      <trkpt lat="43.37238997220993" lon="-6.255601001903415">
        <ele>381.30000000000001</ele>
        <time>2025-04-29T14:43:44Z</time>
      </trkpt>
      <trkpt lat="43.37243196554482" lon="-6.25576201826334">
        <ele>381.30000000000001</ele>
        <time>2025-04-29T14:43:45Z</time>
      </trkpt>
      <trkpt lat="43.372476976364851" lon="-6.255928985774517">
        <ele>381.30000000000001</ele>
        <time>2025-04-29T14:43:46Z</time>
      </trkpt>
      <trkpt lat="43.372520981356502" lon="-6.256097964942455">
        <ele>380.81999999999999</ele>
        <time>2025-04-29T14:43:47Z</time>
      </trkpt>
      <trkpt lat="43.372564986348152" lon="-6.256261998787522">
        <ele>380.81999999999999</ele>
        <time>2025-04-29T14:43:48Z</time>
      </trkpt>
      <trkpt lat="43.372607985511422" lon="-6.256424020975828">
        <ele>380.81999999999999</ele>
        <time>2025-04-29T14:43:49Z</time>
      </trkpt>
      <trkpt lat="43.372650984674692" lon="-6.256596017628908">
        <ele>379.86000000000001</ele>
        <time>2025-04-29T14:43:50Z</time>
      </trkpt>
      <trkpt lat="43.372650984674692" lon="-6.256901035085321">
        <ele>379.38</ele>
        <time>2025-04-29T14:43:52Z</time>
      </trkpt>
      <trkpt lat="43.3727109991014" lon="-6.257031038403511">
        <ele>378.89999999999998</ele>
        <time>2025-04-29T14:43:53Z</time>
      </trkpt>
      <trkpt lat="43.372775036841631" lon="-6.25711502507329">
        <ele>378.89999999999998</ele>
        <time>2025-04-29T14:43:54Z</time>
      </trkpt>
      <trkpt lat="43.372897999361157" lon="-6.257279980927706">
        <ele>378.42000000000002</ele>
        <time>2025-04-29T14:43:56Z</time>
      </trkpt>
      <trkpt lat="43.372901016846299" lon="-6.257347958162427">
        <ele>377.94</ele>
        <time>2025-04-29T14:43:57Z</time>
      </trkpt>
      <trkpt lat="43.372886013239622" lon="-6.257461030036211">
        <ele>376.97000000000003</ele>
        <time>2025-04-29T14:43:58Z</time>
      </trkpt>
      <trkpt lat="43.372867992147803" lon="-6.257597990334034">
        <ele>375.52999999999997</ele>
        <time>2025-04-29T14:43:59Z</time>
      </trkpt>
      <trkpt lat="43.372847037389874" lon="-6.257749032229185">
        <ele>374.56999999999999</ele>
        <time>2025-04-29T14:44:00Z</time>
      </trkpt>
      <trkpt lat="43.372727008536458" lon="-6.25823300331831">
        <ele>371.69</ele>
        <time>2025-04-29T14:44:03Z</time>
      </trkpt>
      <trkpt lat="43.372595999389887" lon="-6.258689984679222">
        <ele>368.80000000000001</ele>
        <time>2025-04-29T14:44:06Z</time>
      </trkpt>
      <trkpt lat="43.372562974691391" lon="-6.258843960240483">
        <ele>367.83999999999997</ele>
        <time>2025-04-29T14:44:07Z</time>
      </trkpt>
      <trkpt lat="43.372463984414935" lon="-6.259300019592047">
        <ele>364.95999999999998</ele>
        <time>2025-04-29T14:44:10Z</time>
      </trkpt>
      <trkpt lat="43.372470019385219" lon="-6.259444020688534">
        <ele>363.51999999999998</ele>
        <time>2025-04-29T14:44:11Z</time>
      </trkpt>
      <trkpt lat="43.372485022991896" lon="-6.259589027613401">
        <ele>362.55000000000001</ele>
        <time>2025-04-29T14:44:12Z</time>
      </trkpt>
      <trkpt lat="43.372500026598573" lon="-6.259731017053127">
        <ele>361.58999999999997</ele>
        <time>2025-04-29T14:44:13Z</time>
      </trkpt>
      <trkpt lat="43.372514024376869" lon="-6.259863032028079">
        <ele>360.63</ele>
        <time>2025-04-29T14:44:14Z</time>
      </trkpt>
      <trkpt lat="43.372521987184882" lon="-6.259982977062464">
        <ele>359.67000000000002</ele>
        <time>2025-04-29T14:44:15Z</time>
      </trkpt>
      <trkpt lat="43.372521987184882" lon="-6.260090013965964">
        <ele>359.19</ele>
        <time>2025-04-29T14:44:16Z</time>
      </trkpt>
      <trkpt lat="43.372521987184882" lon="-6.260185986757278">
        <ele>358.70999999999998</ele>
        <time>2025-04-29T14:44:17Z</time>
      </trkpt>
      <trkpt lat="43.372521987184882" lon="-6.260328982025385">
        <ele>357.75</ele>
        <time>2025-04-29T14:44:20Z</time>
      </trkpt>
      <trkpt lat="43.372521987184882" lon="-6.260328982025385">
        <ele>356.79000000000002</ele>
        <time>2025-04-29T14:44:22Z</time>
      </trkpt>
      <trkpt lat="43.372521987184882" lon="-6.260448005050421">
        <ele>355.82999999999998</ele>
        <time>2025-04-29T14:44:34Z</time>
      </trkpt>
      <trkpt lat="43.372502038255334" lon="-6.261354004964232">
        <ele>355.82999999999998</ele>
        <time>2025-04-29T14:44:40Z</time>
      </trkpt>
      <trkpt lat="43.37247597053647" lon="-6.261567994952202">
        <ele>356.31</ele>
        <time>2025-04-29T14:44:41Z</time>
      </trkpt>
      <trkpt lat="43.372442023828626" lon="-6.261780979111791">
        <ele>357.26999999999998</ele>
        <time>2025-04-29T14:44:42Z</time>
      </trkpt>
      <trkpt lat="43.372419979423285" lon="-6.261993041262031">
        <ele>358.23000000000002</ele>
        <time>2025-04-29T14:44:43Z</time>
      </trkpt>
      <trkpt lat="43.372443029657006" lon="-6.262192027643323">
        <ele>359.19</ele>
        <time>2025-04-29T14:44:44Z</time>
      </trkpt>
      <trkpt lat="43.372467001900077" lon="-6.262395037338138">
        <ele>360.14999999999998</ele>
        <time>2025-04-29T14:44:45Z</time>
      </trkpt>
      <trkpt lat="43.372488040477037" lon="-6.262574996799231">
        <ele>361.58999999999997</ele>
        <time>2025-04-29T14:44:46Z</time>
      </trkpt>
      <trkpt lat="43.372468007728457" lon="-6.262738024815917">
        <ele>363.51999999999998</ele>
        <time>2025-04-29T14:44:47Z</time>
      </trkpt>
      <trkpt lat="43.372401958331466" lon="-6.262859981507063">
        <ele>365.44</ele>
        <time>2025-04-29T14:44:48Z</time>
      </trkpt>
      <trkpt lat="43.372031981125474" lon="-6.263441015034914">
        <ele>373.13</ele>
        <time>2025-04-29T14:44:52Z</time>
      </trkpt>
      <trkpt lat="43.371907006949186" lon="-6.263521984219551">
        <ele>375.05000000000001</ele>
        <time>2025-04-29T14:44:53Z</time>
      </trkpt>
      <trkpt lat="43.371712965890765" lon="-6.263647964224219">
        <ele>379.38</ele>
        <time>2025-04-29T14:44:55Z</time>
      </trkpt>
      <trkpt lat="43.371676001697779" lon="-6.263739997521043">
        <ele>381.77999999999997</ele>
        <time>2025-04-29T14:44:56Z</time>
      </trkpt>
      <trkpt lat="43.371668960899115" lon="-6.263793976977468">
        <ele>384.18000000000001</ele>
        <time>2025-04-29T14:44:57Z</time>
      </trkpt>
      <trkpt lat="43.371713971719146" lon="-6.263871006667614">
        <ele>386.58999999999997</ele>
        <time>2025-04-29T14:44:58Z</time>
      </trkpt>
      <trkpt lat="43.371792007237673" lon="-6.263923980295658">
        <ele>388.99000000000001</ele>
        <time>2025-04-29T14:44:59Z</time>
      </trkpt>
      <trkpt lat="43.371867025271058" lon="-6.263923980295658">
        <ele>391.38999999999999</ele>
        <time>2025-04-29T14:45:00Z</time>
      </trkpt>
      <trkpt lat="43.371960986405611" lon="-6.263923980295658">
        <ele>393.31999999999999</ele>
        <time>2025-04-29T14:45:01Z</time>
      </trkpt>
      <trkpt lat="43.372052013874054" lon="-6.263923980295658">
        <ele>395.72000000000003</ele>
        <time>2025-04-29T14:45:02Z</time>
      </trkpt>
      <trkpt lat="43.372129965573549" lon="-6.263923980295658">
        <ele>397.63999999999999</ele>
        <time>2025-04-29T14:45:03Z</time>
      </trkpt>
      <trkpt lat="43.372197020798922" lon="-6.264004027470946">
        <ele>399.07999999999998</ele>
        <time>2025-04-29T14:45:04Z</time>
      </trkpt>
      <trkpt lat="43.372224010527134" lon="-6.264092037454248">
        <ele>400.52999999999997</ele>
        <time>2025-04-29T14:45:05Z</time>
      </trkpt>
      <trkpt lat="43.372229961678386" lon="-6.264178035780788">
        <ele>401.97000000000003</ele>
        <time>2025-04-29T14:45:06Z</time>
      </trkpt>
      <trkpt lat="43.372235996648669" lon="-6.264263028278947">
        <ele>403.41000000000003</ele>
        <time>2025-04-29T14:45:07Z</time>
      </trkpt>
      <trkpt lat="43.372243037447333" lon="-6.26435799524188">
        <ele>404.37</ele>
        <time>2025-04-29T14:45:08Z</time>
      </trkpt>
      <trkpt lat="43.372249994426966" lon="-6.264465032145381">
        <ele>405.81</ele>
        <time>2025-04-29T14:45:09Z</time>
      </trkpt>
      <trkpt lat="43.37225703522563" lon="-6.26457299105823">
        <ele>407.25999999999999</ele>
        <time>2025-04-29T14:45:10Z</time>
      </trkpt>
      <trkpt lat="43.372263992205262" lon="-6.264674998819828">
        <ele>408.69999999999999</ele>
        <time>2025-04-29T14:45:11Z</time>
      </trkpt>
      <trkpt lat="43.372296011075377" lon="-6.264758985489607">
        <ele>410.13999999999999</ele>
        <time>2025-04-29T14:45:12Z</time>
      </trkpt>
      <trkpt lat="43.372327024117112" lon="-6.264842972159386">
        <ele>411.10000000000002</ele>
        <time>2025-04-29T14:45:13Z</time>
      </trkpt>
      <trkpt lat="43.37238603271544" lon="-6.264892006292939">
        <ele>412.54000000000002</ele>
        <time>2025-04-29T14:45:14Z</time>
      </trkpt>
      <trkpt lat="43.372450992465019" lon="-6.264929976314306">
        <ele>413.5</ele>
        <time>2025-04-29T14:45:15Z</time>
      </trkpt>
      <trkpt lat="43.372534979134798" lon="-6.264914972707629">
        <ele>414.47000000000003</ele>
        <time>2025-04-29T14:45:16Z</time>
      </trkpt>
      <trkpt lat="43.372635981068015" lon="-6.264898041263223">
        <ele>415.43000000000001</ele>
        <time>2025-04-29T14:45:17Z</time>
      </trkpt>
      <trkpt lat="43.372738994657993" lon="-6.264880020171404">
        <ele>416.38999999999999</ele>
        <time>2025-04-29T14:45:18Z</time>
      </trkpt>
      <trkpt lat="43.372833961620927" lon="-6.264863004907966">
        <ele>417.82999999999998</ele>
        <time>2025-04-29T14:45:19Z</time>
      </trkpt>
      <trkpt lat="43.372930018231273" lon="-6.264845989644527">
        <ele>418.79000000000002</ele>
        <time>2025-04-29T14:45:20Z</time>
      </trkpt>
      <trkpt lat="43.372994977980852" lon="-6.264896029606462">
        <ele>420.23000000000002</ele>
        <time>2025-04-29T14:45:21Z</time>
      </trkpt>
      <trkpt lat="43.373061027377844" lon="-6.265008011832833">
        <ele>421.19</ele>
        <time>2025-04-29T14:45:22Z</time>
      </trkpt>
      <trkpt lat="43.373111989349127" lon="-6.265118988230825">
        <ele>422.16000000000003</ele>
        <time>2025-04-29T14:45:23Z</time>
      </trkpt>
      <trkpt lat="43.373219026252627" lon="-6.265347981825471">
        <ele>424.07999999999998</ele>
        <time>2025-04-29T14:45:25Z</time>
      </trkpt>
      <trkpt lat="43.37326898239553" lon="-6.265458036214113">
        <ele>425.04000000000002</ele>
        <time>2025-04-29T14:45:26Z</time>
      </trkpt>
      <trkpt lat="43.373340982943773" lon="-6.26553799957037">
        <ele>426.48000000000002</ele>
        <time>2025-04-29T14:45:27Z</time>
      </trkpt>
      <trkpt lat="43.373424969613552" lon="-6.265586027875543">
        <ele>427.44</ele>
        <time>2025-04-29T14:45:28Z</time>
      </trkpt>
      <trkpt lat="43.373514991253614" lon="-6.265636989846826">
        <ele>428.39999999999998</ele>
        <time>2025-04-29T14:45:29Z</time>
      </trkpt>
      <trkpt lat="43.373598977923393" lon="-6.265684012323618">
        <ele>429.37</ele>
        <time>2025-04-29T14:45:30Z</time>
      </trkpt>
      <trkpt lat="43.373759994283319" lon="-6.265775039792061">
        <ele>430.81</ele>
        <time>2025-04-29T14:45:32Z</time>
      </trkpt>
      <trkpt lat="43.373787989839911" lon="-6.265790965408087">
        <ele>431.29000000000002</ele>
        <time>2025-04-29T14:45:33Z</time>
      </trkpt>
      <trkpt lat="43.373779021203518" lon="-6.265834970399737">
        <ele>431.76999999999998</ele>
        <time>2025-04-29T14:45:34Z</time>
      </trkpt>
      <trkpt lat="43.373768040910363" lon="-6.265892973169684">
        <ele>432.73000000000002</ele>
        <time>2025-04-29T14:45:35Z</time>
      </trkpt>
      <trkpt lat="43.373744990676641" lon="-6.266005039215088">
        <ele>433.69</ele>
        <time>2025-04-29T14:45:36Z</time>
      </trkpt>
      <trkpt lat="43.37363300845027" lon="-6.26620695926249">
        <ele>436.10000000000002</ele>
        <time>2025-04-29T14:45:39Z</time>
      </trkpt>
      <trkpt lat="43.373586991801858" lon="-6.26629002392292">
        <ele>437.06</ele>
        <time>2025-04-29T14:45:40Z</time>
      </trkpt>
      <trkpt lat="43.373552961274981" lon="-6.266350038349628">
        <ele>438.5</ele>
        <time>2025-04-29T14:45:41Z</time>
      </trkpt>
      <trkpt lat="43.373532006517053" lon="-6.266388008370996">
        <ele>439.45999999999998</ele>
        <time>2025-04-29T14:45:42Z</time>
      </trkpt>
      <trkpt lat="43.373529994860291" lon="-6.266391025856137">
        <ele>441.86000000000001</ele>
        <time>2025-04-29T14:45:44Z</time>
      </trkpt>
      <trkpt lat="43.37352798320353" lon="-6.266538966447115">
        <ele>444.26999999999998</ele>
        <time>2025-04-29T14:45:46Z</time>
      </trkpt>
      <trkpt lat="43.373649017885327" lon="-6.266550030559301">
        <ele>445.70999999999998</ele>
        <time>2025-04-29T14:45:47Z</time>
      </trkpt>
      <trkpt lat="43.373728981241584" lon="-6.266539972275496">
        <ele>447.14999999999998</ele>
        <time>2025-04-29T14:45:48Z</time>
      </trkpt>
      <trkpt lat="43.373808022588491" lon="-6.266528991982341">
        <ele>448.58999999999997</ele>
        <time>2025-04-29T14:45:49Z</time>
      </trkpt>
      <trkpt lat="43.373883962631226" lon="-6.266519017517567">
        <ele>449.55000000000001</ele>
        <time>2025-04-29T14:45:50Z</time>
      </trkpt>
      <trkpt lat="43.373965015634894" lon="-6.266508037224412">
        <ele>450.02999999999997</ele>
        <time>2025-04-29T14:45:51Z</time>
      </trkpt>
      <trkpt lat="43.374049002304673" lon="-6.266496973112226">
        <ele>450.51999999999998</ele>
        <time>2025-04-29T14:45:52Z</time>
      </trkpt>
      <trkpt lat="43.374515036121011" lon="-6.266435030847788">
        <ele>453.39999999999998</ele>
        <time>2025-04-29T14:45:57Z</time>
      </trkpt>
      <trkpt lat="43.374593993648887" lon="-6.266434025019407">
        <ele>453.88</ele>
        <time>2025-04-29T14:45:58Z</time>
      </trkpt>
      <trkpt lat="43.37468502111733" lon="-6.266519017517567">
        <ele>454.36000000000001</ele>
        <time>2025-04-29T14:45:59Z</time>
      </trkpt>
      <trkpt lat="43.374720979481936" lon="-6.266597975045443">
        <ele>454.83999999999997</ele>
        <time>2025-04-29T14:46:00Z</time>
      </trkpt>
      <trkpt lat="43.374722991138697" lon="-6.266750022768974">
        <ele>455.31999999999999</ele>
        <time>2025-04-29T14:46:01Z</time>
      </trkpt>
      <trkpt lat="43.374690972268581" lon="-6.266835015267134">
        <ele>455.80000000000001</ele>
        <time>2025-04-29T14:46:02Z</time>
      </trkpt>
      <trkpt lat="43.374659959226847" lon="-6.266915984451771">
        <ele>456.27999999999997</ele>
        <time>2025-04-29T14:46:03Z</time>
      </trkpt>
      <trkpt lat="43.374630035832524" lon="-6.266996031627059">
        <ele>456.75999999999999</ele>
        <time>2025-04-29T14:46:04Z</time>
      </trkpt>
      <trkpt lat="43.374598016962409" lon="-6.267081024125218">
        <ele>456.75999999999999</ele>
        <time>2025-04-29T14:46:05Z</time>
      </trkpt>
      <trkpt lat="43.374561974778771" lon="-6.267173979431391">
        <ele>457.24000000000001</ele>
        <time>2025-04-29T14:46:06Z</time>
      </trkpt>
      <trkpt lat="43.37451403029263" lon="-6.26729803159833">
        <ele>457.72000000000003</ele>
        <time>2025-04-29T14:46:07Z</time>
      </trkpt>
      <trkpt lat="43.37438796646893" lon="-6.267486037686467">
        <ele>458.20999999999998</ele>
        <time>2025-04-29T14:46:09Z</time>
      </trkpt>
      <trkpt lat="43.374294005334377" lon="-6.267572036013007">
        <ele>458.69</ele>
        <time>2025-04-29T14:46:10Z</time>
      </trkpt>
      <trkpt lat="43.374196020886302" lon="-6.267612017691135">
        <ele>459.64999999999998</ele>
        <time>2025-04-29T14:46:11Z</time>
      </trkpt>
      <trkpt lat="43.374096024781466" lon="-6.267654011026025">
        <ele>461.08999999999997</ele>
        <time>2025-04-29T14:46:12Z</time>
      </trkpt>
      <trkpt lat="43.373990999534726" lon="-6.267723999917507">
        <ele>462.05000000000001</ele>
        <time>2025-04-29T14:46:13Z</time>
      </trkpt>
      <trkpt lat="43.373885974287987" lon="-6.267796000465751">
        <ele>463.00999999999999</ele>
        <time>2025-04-29T14:46:14Z</time>
      </trkpt>
      <trkpt lat="43.373783966526389" lon="-6.267866995185614">
        <ele>463.97000000000003</ele>
        <time>2025-04-29T14:46:15Z</time>
      </trkpt>
      <trkpt lat="43.37367600761354" lon="-6.267942013218999">
        <ele>464.93000000000001</ele>
        <time>2025-04-29T14:46:16Z</time>
      </trkpt>
      <trkpt lat="43.372973017394543" lon="-6.268493961542845">
        <ele>469.74000000000001</ele>
        <time>2025-04-29T14:46:23Z</time>
      </trkpt>
      <trkpt lat="43.372900011017919" lon="-6.268606027588248">
        <ele>470.22000000000003</ele>
        <time>2025-04-29T14:46:24Z</time>
      </trkpt>
      <trkpt lat="43.372824992984533" lon="-6.268722033128142">
        <ele>471.18000000000001</ele>
        <time>2025-04-29T14:46:25Z</time>
      </trkpt>
      <trkpt lat="43.372563980519772" lon="-6.269050016999245">
        <ele>475.02999999999997</ele>
        <time>2025-04-29T14:46:28Z</time>
      </trkpt>
      <trkpt lat="43.372470019385219" lon="-6.269154036417604">
        <ele>476.47000000000003</ele>
        <time>2025-04-29T14:46:29Z</time>
      </trkpt>
      <trkpt lat="43.372373962774873" lon="-6.269260989502072">
        <ele>477.91000000000003</ele>
        <time>2025-04-29T14:46:30Z</time>
      </trkpt>
      <trkpt lat="43.372085960581899" lon="-6.269580004736781">
        <ele>481.75999999999999</ele>
        <time>2025-04-29T14:46:33Z</time>
      </trkpt>
      <trkpt lat="43.371978001669049" lon="-6.269699027761817">
        <ele>483.19999999999999</ele>
        <time>2025-04-29T14:46:34Z</time>
      </trkpt>
      <trkpt lat="43.37180801667273" lon="-6.27000798471272">
        <ele>485.60000000000002</ele>
        <time>2025-04-29T14:46:36Z</time>
      </trkpt>
      <trkpt lat="43.371738027781248" lon="-6.270161960273981">
        <ele>487.05000000000001</ele>
        <time>2025-04-29T14:46:37Z</time>
      </trkpt>
      <trkpt lat="43.371688993647695" lon="-6.270317025482655">
        <ele>488.00999999999999</ele>
        <time>2025-04-29T14:46:38Z</time>
      </trkpt>
      <trkpt lat="43.371641971170902" lon="-6.270467983558774">
        <ele>489.44999999999999</ele>
        <time>2025-04-29T14:46:39Z</time>
      </trkpt>
      <trkpt lat="43.371600983664393" lon="-6.270635034888983">
        <ele>490.41000000000003</ele>
        <time>2025-04-29T14:46:40Z</time>
      </trkpt>
      <trkpt lat="43.371524959802628" lon="-6.270987996831536">
        <ele>492.81</ele>
        <time>2025-04-29T14:46:42Z</time>
      </trkpt>
      <trkpt lat="43.371492018923163" lon="-6.271153958514333">
        <ele>493.76999999999998</ele>
        <time>2025-04-29T14:46:43Z</time>
      </trkpt>
      <trkpt lat="43.371320022270083" lon="-6.272120978683233">
        <ele>500.98000000000002</ele>
        <time>2025-04-29T14:46:49Z</time>
      </trkpt>
      <trkpt lat="43.37133402004838" lon="-6.272323988378048">
        <ele>501.94999999999999</ele>
        <time>2025-04-29T14:46:50Z</time>
      </trkpt>
      <trkpt lat="43.371346006169915" lon="-6.27249900251627">
        <ele>502.91000000000003</ele>
        <time>2025-04-29T14:46:51Z</time>
      </trkpt>
      <trkpt lat="43.371357992291451" lon="-6.272668987512589">
        <ele>503.87</ele>
        <time>2025-04-29T14:46:52Z</time>
      </trkpt>
      <trkpt lat="43.371393028646708" lon="-6.272833021357656">
        <ele>504.82999999999998</ele>
        <time>2025-04-29T14:46:53Z</time>
      </trkpt>
      <trkpt lat="43.371448013931513" lon="-6.27299596555531">
        <ele>506.26999999999998</ele>
        <time>2025-04-29T14:46:54Z</time>
      </trkpt>
      <trkpt lat="43.371520014479756" lon="-6.273150024935603">
        <ele>507.23000000000002</ele>
        <time>2025-04-29T14:46:55Z</time>
      </trkpt>
      <trkpt lat="43.371597966179252" lon="-6.273283967748284">
        <ele>508.19</ele>
        <time>2025-04-29T14:46:56Z</time>
      </trkpt>
      <trkpt lat="43.371674995869398" lon="-6.273414976894856">
        <ele>509.63999999999999</ele>
        <time>2025-04-29T14:46:57Z</time>
      </trkpt>
      <trkpt lat="43.37180701084435" lon="-6.273686969652772">
        <ele>512.51999999999998</ele>
        <time>2025-04-29T14:46:59Z</time>
      </trkpt>
      <trkpt lat="43.371945982798934" lon="-6.274105980992317">
        <ele>517.33000000000004</ele>
        <time>2025-04-29T14:47:02Z</time>
      </trkpt>
      <trkpt lat="43.371952017769217" lon="-6.274205977097154">
        <ele>518.76999999999998</ele>
        <time>2025-04-29T14:47:03Z</time>
      </trkpt>
      <trkpt lat="43.371924022212625" lon="-6.274317959323525">
        <ele>520.21000000000004</ele>
        <time>2025-04-29T14:47:04Z</time>
      </trkpt>
      <trkpt lat="43.371868031099439" lon="-6.274360958486795">
        <ele>521.64999999999998</ele>
        <time>2025-04-29T14:47:05Z</time>
      </trkpt>
      <trkpt lat="43.371795024722815" lon="-6.274403035640717">
        <ele>523.58000000000004</ele>
        <time>2025-04-29T14:47:06Z</time>
      </trkpt>
      <trkpt lat="43.371706008911133" lon="-6.274515017867088">
        <ele>525.01999999999998</ele>
        <time>2025-04-29T14:47:07Z</time>
      </trkpt>
      <trkpt lat="43.371687987819314" lon="-6.274577965959907">
        <ele>526.46000000000004</ele>
        <time>2025-04-29T14:47:08Z</time>
      </trkpt>
      <trkpt lat="43.371684970334172" lon="-6.274588024243712">
        <ele>528.86000000000001</ele>
        <time>2025-04-29T14:47:09Z</time>
      </trkpt>
      <trkpt lat="43.371713971719146" lon="-6.274695983156562">
        <ele>532.71000000000004</ele>
        <time>2025-04-29T14:47:19Z</time>
      </trkpt>
      <trkpt lat="43.371882028877735" lon="-6.275359997525811">
        <ele>544.72000000000003</ele>
        <time>2025-04-29T14:47:25Z</time>
      </trkpt>
      <trkpt lat="43.371944976970553" lon="-6.275681024417281">
        <ele>548.57000000000005</ele>
        <time>2025-04-29T14:47:27Z</time>
      </trkpt>
      <trkpt lat="43.372155027464032" lon="-6.276878966018558">
        <ele>561.07000000000005</ele>
        <time>2025-04-29T14:47:33Z</time>
      </trkpt>
      <trkpt lat="43.37217103689909" lon="-6.277070995420218">
        <ele>562.99000000000001</ele>
        <time>2025-04-29T14:47:34Z</time>
      </trkpt>
      <trkpt lat="43.372226022183895" lon="-6.277558989822865">
        <ele>571.15999999999997</ele>
        <time>2025-04-29T14:47:38Z</time>
      </trkpt>
      <trkpt lat="43.372263992205262" lon="-6.277588997036219">
        <ele>573.08000000000004</ele>
        <time>2025-04-29T14:47:39Z</time>
      </trkpt>
      <trkpt lat="43.372284024953842" lon="-6.277616992592812">
        <ele>574.52999999999997</ele>
        <time>2025-04-29T14:47:40Z</time>
      </trkpt>
      <trkpt lat="43.372307997196913" lon="-6.277652028948069">
        <ele>575.97000000000003</ele>
        <time>2025-04-29T14:47:41Z</time>
      </trkpt>
      <trkpt lat="43.372336998581886" lon="-6.277693016454577">
        <ele>577.40999999999997</ele>
        <time>2025-04-29T14:47:42Z</time>
      </trkpt>
      <trkpt lat="43.372572027146816" lon="-6.2779560405761">
        <ele>583.17999999999995</ele>
        <time>2025-04-29T14:47:46Z</time>
      </trkpt>
      <trkpt lat="43.372638998553157" lon="-6.278028041124344">
        <ele>585.10000000000002</ele>
        <time>2025-04-29T14:47:47Z</time>
      </trkpt>
      <trkpt lat="43.372693983837962" lon="-6.278085960075259">
        <ele>586.53999999999996</ele>
        <time>2025-04-29T14:47:48Z</time>
      </trkpt>
      <trkpt lat="43.372929012402892" lon="-6.278205988928676">
        <ele>594.71000000000004</ele>
        <time>2025-04-29T14:47:54Z</time>
      </trkpt>
      <trkpt lat="43.373001012951136" lon="-6.278243036940694">
        <ele>596.14999999999998</ele>
        <time>2025-04-29T14:47:55Z</time>
      </trkpt>
      <trkpt lat="43.373088017106056" lon="-6.278287963941693">
        <ele>597.60000000000002</ele>
        <time>2025-04-29T14:47:56Z</time>
      </trkpt>
      <trkpt lat="43.373583974316716" lon="-6.278546964749694">
        <ele>602.88</ele>
        <time>2025-04-29T14:48:01Z</time>
      </trkpt>
      <trkpt lat="43.373670978471637" lon="-6.278633968904614">
        <ele>603.85000000000002</ele>
        <time>2025-04-29T14:48:02Z</time>
      </trkpt>
      <trkpt lat="43.373759994283319" lon="-6.278722984716296">
        <ele>604.80999999999995</ele>
        <time>2025-04-29T14:48:03Z</time>
      </trkpt>
      <trkpt lat="43.373855967074633" lon="-6.278832033276558">
        <ele>605.28999999999996</ele>
        <time>2025-04-29T14:48:04Z</time>
      </trkpt>
      <trkpt lat="43.373885974287987" lon="-6.278976034373045">
        <ele>606.25</ele>
        <time>2025-04-29T14:48:05Z</time>
      </trkpt>
      <trkpt lat="43.373916987329721" lon="-6.279122969135642">
        <ele>606.73000000000002</ele>
        <time>2025-04-29T14:48:06Z</time>
      </trkpt>
      <trkpt lat="43.373951017856598" lon="-6.279278034344316">
        <ele>607.69000000000005</ele>
        <time>2025-04-29T14:48:07Z</time>
      </trkpt>
      <trkpt lat="43.374027041718364" lon="-6.279571987688541">
        <ele>609.61000000000001</ele>
        <time>2025-04-29T14:48:09Z</time>
      </trkpt>
      <trkpt lat="43.374087978154421" lon="-6.2796950340271">
        <ele>610.57000000000005</ele>
        <time>2025-04-29T14:48:10Z</time>
      </trkpt>
      <trkpt lat="43.3741719648242" lon="-6.27978497184813">
        <ele>611.53999999999996</ele>
        <time>2025-04-29T14:48:11Z</time>
      </trkpt>
      <trkpt lat="43.374250000342727" lon="-6.27986996434629">
        <ele>612.5</ele>
        <time>2025-04-29T14:48:12Z</time>
      </trkpt>
      <trkpt lat="43.374315965920687" lon="-6.279940959066153">
        <ele>612.98000000000002</ele>
        <time>2025-04-29T14:48:13Z</time>
      </trkpt>
      <trkpt lat="43.374374974519014" lon="-6.280111027881503">
        <ele>614.41999999999996</ele>
        <time>2025-04-29T14:48:15Z</time>
      </trkpt>
      <trkpt lat="43.374392995610833" lon="-6.280194008722901">
        <ele>614.89999999999998</ele>
        <time>2025-04-29T14:48:16Z</time>
      </trkpt>
      <trkpt lat="43.374411016702652" lon="-6.280283024534583">
        <ele>615.38</ele>
        <time>2025-04-29T14:48:17Z</time>
      </trkpt>
      <trkpt lat="43.374429037794471" lon="-6.280410010367632">
        <ele>615.38</ele>
        <time>2025-04-29T14:48:18Z</time>
      </trkpt>
      <trkpt lat="43.3744499925524" lon="-6.280561974272132">
        <ele>615.38</ele>
        <time>2025-04-29T14:48:19Z</time>
      </trkpt>
      <trkpt lat="43.374472036957741" lon="-6.280721984803677">
        <ele>614.89999999999998</ele>
        <time>2025-04-29T14:48:20Z</time>
      </trkpt>
      <trkpt lat="43.37449399754405" lon="-6.280885012820363">
        <ele>614.41999999999996</ele>
        <time>2025-04-29T14:48:21Z</time>
      </trkpt>
      <trkpt lat="43.37447103112936" lon="-6.281041000038385">
        <ele>613.94000000000005</ele>
        <time>2025-04-29T14:48:22Z</time>
      </trkpt>
      <trkpt lat="43.374443035572767" lon="-6.281195981428027">
        <ele>613.46000000000004</ele>
        <time>2025-04-29T14:48:23Z</time>
      </trkpt>
      <trkpt lat="43.374377992004156" lon="-6.281332019716501">
        <ele>612.98000000000002</ele>
        <time>2025-04-29T14:48:24Z</time>
      </trkpt>
      <trkpt lat="43.374294005334377" lon="-6.281446013599634">
        <ele>612.98000000000002</ele>
        <time>2025-04-29T14:48:25Z</time>
      </trkpt>
      <trkpt lat="43.37421303614974" lon="-6.281553972512484">
        <ele>612.98000000000002</ele>
        <time>2025-04-29T14:48:26Z</time>
      </trkpt>
      <trkpt lat="43.374153021723032" lon="-6.281684981659055">
        <ele>612.98000000000002</ele>
        <time>2025-04-29T14:48:27Z</time>
      </trkpt>
      <trkpt lat="43.374121002852917" lon="-6.281806016340852">
        <ele>613.46000000000004</ele>
        <time>2025-04-29T14:48:28Z</time>
      </trkpt>
      <trkpt lat="43.374088983982801" lon="-6.281925039365888">
        <ele>613.46000000000004</ele>
        <time>2025-04-29T14:48:29Z</time>
      </trkpt>
      <trkpt lat="43.374098958447576" lon="-6.282048001885414">
        <ele>613.46000000000004</ele>
        <time>2025-04-29T14:48:30Z</time>
      </trkpt>
      <trkpt lat="43.374110022559762" lon="-6.282161995768547">
        <ele>613.46000000000004</ele>
        <time>2025-04-29T14:48:31Z</time>
      </trkpt>
      <trkpt lat="43.374173976480961" lon="-6.282258974388242">
        <ele>613.46000000000004</ele>
        <time>2025-04-29T14:48:32Z</time>
      </trkpt>
      <trkpt lat="43.374240025877953" lon="-6.282357964664698">
        <ele>613.46000000000004</ele>
        <time>2025-04-29T14:48:33Z</time>
      </trkpt>
      <trkpt lat="43.374441023916006" lon="-6.282687038183212">
        <ele>614.89999999999998</ele>
        <time>2025-04-29T14:48:36Z</time>
      </trkpt>
      <trkpt lat="43.374843019992113" lon="-6.283613992854953">
        <ele>621.14999999999998</ele>
        <time>2025-04-29T14:48:43Z</time>
      </trkpt>
      <trkpt lat="43.374930024147034" lon="-6.283737039193511">
        <ele>621.63</ele>
        <time>2025-04-29T14:48:44Z</time>
      </trkpt>
      <trkpt lat="43.375382982194424" lon="-6.284372974187136">
        <ele>626.44000000000005</ele>
        <time>2025-04-29T14:48:49Z</time>
      </trkpt>
      <trkpt lat="43.375462023541331" lon="-6.284485040232539">
        <ele>627.39999999999998</ele>
        <time>2025-04-29T14:48:50Z</time>
      </trkpt>
      <trkpt lat="43.375539975240827" lon="-6.284594004973769">
        <ele>628.84000000000003</ele>
        <time>2025-04-29T14:48:51Z</time>
      </trkpt>
      <trkpt lat="43.37561197578907" lon="-6.284695006906986">
        <ele>629.79999999999995</ele>
        <time>2025-04-29T14:48:52Z</time>
      </trkpt>
      <trkpt lat="43.37567500770092" lon="-6.284872032701969">
        <ele>630.75999999999999</ele>
        <time>2025-04-29T14:48:53Z</time>
      </trkpt>
      <trkpt lat="43.375725969672203" lon="-6.285020979121327">
        <ele>631.72000000000003</ele>
        <time>2025-04-29T14:48:54Z</time>
      </trkpt>
      <trkpt lat="43.375768968835473" lon="-6.285179983824492">
        <ele>632.67999999999995</ele>
        <time>2025-04-29T14:48:55Z</time>
      </trkpt>
      <trkpt lat="43.375856978818774" lon="-6.285508973523974">
        <ele>633.64999999999998</ele>
        <time>2025-04-29T14:48:57Z</time>
      </trkpt>
      <trkpt lat="43.375971978530288" lon="-6.286237025633454">
        <ele>633.64999999999998</ele>
        <time>2025-04-29T14:49:01Z</time>
      </trkpt>
      <trkpt lat="43.37599796243012" lon="-6.28642201423645">
        <ele>633.64999999999998</ele>
        <time>2025-04-29T14:49:02Z</time>
      </trkpt>
      <trkpt lat="43.375969966873527" lon="-6.288288999348879">
        <ele>636.52999999999997</ele>
        <time>2025-04-29T14:49:11Z</time>
      </trkpt>
      <trkpt lat="43.375861002132297" lon="-6.289480989798904">
        <ele>640.86000000000001</ele>
        <time>2025-04-29T14:49:17Z</time>
      </trkpt>
      <trkpt lat="43.375873994082212" lon="-6.289862031117082">
        <ele>641.82000000000005</ele>
        <time>2025-04-29T14:49:19Z</time>
      </trkpt>
      <trkpt lat="43.375991005450487" lon="-6.290581030771136">
        <ele>643.74000000000001</ele>
        <time>2025-04-29T14:49:23Z</time>
      </trkpt>
      <trkpt lat="43.376358970999718" lon="-6.292345002293587">
        <ele>652.87</ele>
        <time>2025-04-29T14:49:32Z</time>
      </trkpt>
      <trkpt lat="43.376482017338276" lon="-6.293093003332615">
        <ele>656.24000000000001</ele>
        <time>2025-04-29T14:49:36Z</time>
      </trkpt>
      <trkpt lat="43.376468019559979" lon="-6.293244967237115">
        <ele>657.20000000000005</ele>
        <time>2025-04-29T14:49:37Z</time>
      </trkpt>
      <trkpt lat="43.376430971547961" lon="-6.293389974161983">
        <ele>658.15999999999997</ele>
        <time>2025-04-29T14:49:38Z</time>
      </trkpt>
      <trkpt lat="43.376377997919917" lon="-6.293529029935598">
        <ele>658.63999999999999</ele>
        <time>2025-04-29T14:49:39Z</time>
      </trkpt>
      <trkpt lat="43.376315971836448" lon="-6.29368401132524">
        <ele>659.12</ele>
        <time>2025-04-29T14:49:40Z</time>
      </trkpt>
      <trkpt lat="43.376251012086868" lon="-6.293846033513546">
        <ele>659.60000000000002</ele>
        <time>2025-04-29T14:49:41Z</time>
      </trkpt>
      <trkpt lat="43.376031992956996" lon="-6.294294968247414">
        <ele>660.55999999999995</ele>
        <time>2025-04-29T14:49:44Z</time>
      </trkpt>
      <trkpt lat="43.37593199685216" lon="-6.294438969343901">
        <ele>660.55999999999995</ele>
        <time>2025-04-29T14:49:45Z</time>
      </trkpt>
      <trkpt lat="43.375004958361387" lon="-6.295795999467373">
        <ele>661.03999999999996</ele>
        <time>2025-04-29T14:49:54Z</time>
      </trkpt>
      <trkpt lat="43.374185962602496" lon="-6.297096032649279">
        <ele>656.72000000000003</ele>
        <time>2025-04-29T14:50:02Z</time>
      </trkpt>
      <trkpt lat="43.373658992350101" lon="-6.298406040295959">
        <ele>647.10000000000002</ele>
        <time>2025-04-29T14:50:10Z</time>
      </trkpt>
      <trkpt lat="43.373514991253614" lon="-6.299964990466833">
        <ele>637.49000000000001</ele>
        <time>2025-04-29T14:50:17Z</time>
      </trkpt>
      <trkpt lat="43.373662009835243" lon="-6.302089970558882">
        <ele>627.39999999999998</ele>
        <time>2025-04-29T14:50:27Z</time>
      </trkpt>
      <trkpt lat="43.373867031186819" lon="-6.303679011762142">
        <ele>625.47000000000003</ele>
        <time>2025-04-29T14:50:35Z</time>
      </trkpt>
      <trkpt lat="43.373980019241571" lon="-6.304717026650906">
        <ele>622.59000000000003</ele>
        <time>2025-04-29T14:50:40Z</time>
      </trkpt>
      <trkpt lat="43.37397700175643" lon="-6.304917018860579">
        <ele>621.63</ele>
        <time>2025-04-29T14:50:41Z</time>
      </trkpt>
      <trkpt lat="43.373959986492991" lon="-6.306077996268868">
        <ele>613.46000000000004</ele>
        <time>2025-04-29T14:50:47Z</time>
      </trkpt>
      <trkpt lat="43.374018995091319" lon="-6.306272959336639">
        <ele>612.01999999999998</ele>
        <time>2025-04-29T14:50:48Z</time>
      </trkpt>
      <trkpt lat="43.374074986204505" lon="-6.306445961818099">
        <ele>610.09000000000003</ele>
        <time>2025-04-29T14:50:49Z</time>
      </trkpt>
      <trkpt lat="43.374153021723032" lon="-6.306689037010074">
        <ele>607.21000000000004</ele>
        <time>2025-04-29T14:50:51Z</time>
      </trkpt>
      <trkpt lat="43.374110022559762" lon="-6.306843012571335">
        <ele>605.76999999999998</ele>
        <time>2025-04-29T14:50:52Z</time>
      </trkpt>
      <trkpt lat="43.374076997861266" lon="-6.306963041424751">
        <ele>605.28999999999996</ele>
        <time>2025-04-29T14:50:53Z</time>
      </trkpt>
      <trkpt lat="43.374044978991151" lon="-6.307075023651123">
        <ele>604.33000000000004</ele>
        <time>2025-04-29T14:50:54Z</time>
      </trkpt>
      <trkpt lat="43.374053025618196" lon="-6.307259006425738">
        <ele>603.85000000000002</ele>
        <time>2025-04-29T14:50:55Z</time>
      </trkpt>
      <trkpt lat="43.374058976769447" lon="-6.307412981987">
        <ele>603.36000000000001</ele>
        <time>2025-04-29T14:50:56Z</time>
      </trkpt>
      <trkpt lat="43.374066017568111" lon="-6.307578021660447">
        <ele>602.88</ele>
        <time>2025-04-29T14:50:57Z</time>
      </trkpt>
      <trkpt lat="43.374111028388143" lon="-6.307751024141908">
        <ele>602.39999999999998</ele>
        <time>2025-04-29T14:50:58Z</time>
      </trkpt>
      <trkpt lat="43.374156039208174" lon="-6.307916985824704">
        <ele>602.39999999999998</ele>
        <time>2025-04-29T14:50:59Z</time>
      </trkpt>
      <trkpt lat="43.374209012836218" lon="-6.308243041858077">
        <ele>602.39999999999998</ele>
        <time>2025-04-29T14:51:01Z</time>
      </trkpt>
      <trkpt lat="43.374216975644231" lon="-6.308358041569591">
        <ele>602.88</ele>
        <time>2025-04-29T14:51:02Z</time>
      </trkpt>
      <trkpt lat="43.374270033091307" lon="-6.308378996327519">
        <ele>603.36000000000001</ele>
        <time>2025-04-29T14:51:03Z</time>
      </trkpt>
      <trkpt lat="43.374324012547731" lon="-6.308396011590958">
        <ele>603.36000000000001</ele>
        <time>2025-04-29T14:51:04Z</time>
      </trkpt>
      <trkpt lat="43.374389978125691" lon="-6.308416966348887">
        <ele>603.85000000000002</ele>
        <time>2025-04-29T14:51:05Z</time>
      </trkpt>
      <trkpt lat="43.374464996159077" lon="-6.308441022410989">
        <ele>604.33000000000004</ele>
        <time>2025-04-29T14:51:06Z</time>
      </trkpt>
      <trkpt lat="43.374544037505984" lon="-6.30846600048244">
        <ele>604.80999999999995</ele>
        <time>2025-04-29T14:51:07Z</time>
      </trkpt>
      <trkpt lat="43.374628024175763" lon="-6.308495001867414">
        <ele>604.80999999999995</ele>
        <time>2025-04-29T14:51:08Z</time>
      </trkpt>
      <trkpt lat="43.374689966440201" lon="-6.308564990758896">
        <ele>604.80999999999995</ele>
        <time>2025-04-29T14:51:09Z</time>
      </trkpt>
      <trkpt lat="43.374886019155383" lon="-6.30878996104002">
        <ele>605.76999999999998</ele>
        <time>2025-04-29T14:51:12Z</time>
      </trkpt>
      <trkpt lat="43.374972017481923" lon="-6.308845030143857">
        <ele>606.25</ele>
        <time>2025-04-29T14:51:13Z</time>
      </trkpt>
      <trkpt lat="43.375063966959715" lon="-6.308864979073405">
        <ele>606.73000000000002</ele>
        <time>2025-04-29T14:51:14Z</time>
      </trkpt>
      <trkpt lat="43.375162035226822" lon="-6.308857016265392">
        <ele>607.21000000000004</ele>
        <time>2025-04-29T14:51:15Z</time>
      </trkpt>
      <trkpt lat="43.375261025503278" lon="-6.308808987960219">
        <ele>607.69000000000005</ele>
        <time>2025-04-29T14:51:16Z</time>
      </trkpt>
      <trkpt lat="43.375368984416127" lon="-6.308758025988936">
        <ele>607.69000000000005</ele>
        <time>2025-04-29T14:51:17Z</time>
      </trkpt>
      <trkpt lat="43.375478032976389" lon="-6.308705974370241">
        <ele>608.16999999999996</ele>
        <time>2025-04-29T14:51:18Z</time>
      </trkpt>
      <trkpt lat="43.375595966354012" lon="-6.308648977428675">
        <ele>608.64999999999998</ele>
        <time>2025-04-29T14:51:19Z</time>
      </trkpt>
      <trkpt lat="43.375711971893907" lon="-6.308630034327507">
        <ele>609.13</ele>
        <time>2025-04-29T14:51:20Z</time>
      </trkpt>
      <trkpt lat="43.37582596577704" lon="-6.308635985478759">
        <ele>609.61000000000001</ele>
        <time>2025-04-29T14:51:21Z</time>
      </trkpt>
      <trkpt lat="43.375891009345651" lon="-6.308684013783932">
        <ele>610.09000000000003</ele>
        <time>2025-04-29T14:51:22Z</time>
      </trkpt>
      <trkpt lat="43.375900983810425" lon="-6.308850981295109">
        <ele>610.57000000000005</ele>
        <time>2025-04-29T14:51:23Z</time>
      </trkpt>
      <trkpt lat="43.37591003626585" lon="-6.308982996270061">
        <ele>611.05999999999995</ele>
        <time>2025-04-29T14:51:24Z</time>
      </trkpt>
      <trkpt lat="43.375919004902244" lon="-6.309133032336831">
        <ele>611.53999999999996</ele>
        <time>2025-04-29T14:51:25Z</time>
      </trkpt>
      <trkpt lat="43.375929985195398" lon="-6.309299999848008">
        <ele>612.01999999999998</ele>
        <time>2025-04-29T14:51:26Z</time>
      </trkpt>
      <trkpt lat="43.37601900100708" lon="-6.310268025845289">
        <ele>611.05999999999995</ele>
        <time>2025-04-29T14:51:31Z</time>
      </trkpt>
      <trkpt lat="43.376097958534956" lon="-6.310412026941776">
        <ele>611.05999999999995</ele>
        <time>2025-04-29T14:51:32Z</time>
      </trkpt>
      <trkpt lat="43.376171970739961" lon="-6.310561979189515">
        <ele>611.53999999999996</ele>
        <time>2025-04-29T14:51:33Z</time>
      </trkpt>
      <trkpt lat="43.376445975154638" lon="-6.311149969696999">
        <ele>614.89999999999998</ele>
        <time>2025-04-29T14:51:37Z</time>
      </trkpt>
      <trkpt lat="43.376656025648117" lon="-6.311597982421517">
        <ele>619.23000000000002</ele>
        <time>2025-04-29T14:51:40Z</time>
      </trkpt>
      <trkpt lat="43.376724002882838" lon="-6.311739971861243">
        <ele>620.66999999999996</ele>
        <time>2025-04-29T14:51:41Z</time>
      </trkpt>
      <trkpt lat="43.376830033957958" lon="-6.311857989057899">
        <ele>622.11000000000001</ele>
        <time>2025-04-29T14:51:42Z</time>
      </trkpt>
      <trkpt lat="43.376934975385666" lon="-6.311892019584775">
        <ele>623.07000000000005</ele>
        <time>2025-04-29T14:51:43Z</time>
      </trkpt>
      <trkpt lat="43.377042012289166" lon="-6.31192596629262">
        <ele>624.02999999999997</ele>
        <time>2025-04-29T14:51:44Z</time>
      </trkpt>
      <trkpt lat="43.377147037535906" lon="-6.311959996819496">
        <ele>624.50999999999999</ele>
        <time>2025-04-29T14:51:45Z</time>
      </trkpt>
      <trkpt lat="43.377250973135233" lon="-6.311993021517992">
        <ele>625.47000000000003</ele>
        <time>2025-04-29T14:51:46Z</time>
      </trkpt>
      <trkpt lat="43.37735197506845" lon="-6.312025962397456">
        <ele>625.96000000000004</ele>
        <time>2025-04-29T14:51:47Z</time>
      </trkpt>
      <trkpt lat="43.377431016415358" lon="-6.312111960723996">
        <ele>626.44000000000005</ele>
        <time>2025-04-29T14:51:48Z</time>
      </trkpt>
      <trkpt lat="43.377486001700163" lon="-6.312228972092271">
        <ele>627.39999999999998</ele>
        <time>2025-04-29T14:51:49Z</time>
      </trkpt>
      <trkpt lat="43.377540986984968" lon="-6.312350006774068">
        <ele>627.88</ele>
        <time>2025-04-29T14:51:50Z</time>
      </trkpt>
      <trkpt lat="43.377596978098154" lon="-6.312472969293594">
        <ele>628.36000000000001</ele>
        <time>2025-04-29T14:51:51Z</time>
      </trkpt>
      <trkpt lat="43.37765003554523" lon="-6.312589980661869">
        <ele>628.36000000000001</ele>
        <time>2025-04-29T14:51:52Z</time>
      </trkpt>
      <trkpt lat="43.377642994746566" lon="-6.312731970101595">
        <ele>628.84000000000003</ele>
        <time>2025-04-29T14:51:53Z</time>
      </trkpt>
      <trkpt lat="43.377636037766933" lon="-6.312884017825127">
        <ele>629.79999999999995</ele>
        <time>2025-04-29T14:51:54Z</time>
      </trkpt>
      <trkpt lat="43.377624973654747" lon="-6.313030030578375">
        <ele>630.75999999999999</ele>
        <time>2025-04-29T14:51:55Z</time>
      </trkpt>
      <trkpt lat="43.377577029168606" lon="-6.313169002532959">
        <ele>631.72000000000003</ele>
        <time>2025-04-29T14:51:56Z</time>
      </trkpt>
      <trkpt lat="43.377526989206672" lon="-6.313317026942968">
        <ele>633.16999999999996</ele>
        <time>2025-04-29T14:51:57Z</time>
      </trkpt>
      <trkpt lat="43.377010999247432" lon="-6.31486801430583">
        <ele>640.38</ele>
        <time>2025-04-29T14:52:05Z</time>
      </trkpt>
      <trkpt lat="43.376791980117559" lon="-6.316301990300417">
        <ele>645.17999999999995</ele>
        <time>2025-04-29T14:52:12Z</time>
      </trkpt>
      <trkpt lat="43.376715034246445" lon="-6.316511034965515">
        <ele>645.17999999999995</ele>
        <time>2025-04-29T14:52:13Z</time>
      </trkpt>
      <trkpt lat="43.376644039526582" lon="-6.316704992204905">
        <ele>645.17999999999995</ele>
        <time>2025-04-29T14:52:14Z</time>
      </trkpt>
      <trkpt lat="43.376494003459811" lon="-6.317116040736437">
        <ele>645.17999999999995</ele>
        <time>2025-04-29T14:52:16Z</time>
      </trkpt>
      <trkpt lat="43.376167025417089" lon="-6.318367961794138">
        <ele>644.70000000000005</ele>
        <time>2025-04-29T14:52:22Z</time>
      </trkpt>
      <trkpt lat="43.376159984618425" lon="-6.318576000630856">
        <ele>645.17999999999995</ele>
        <time>2025-04-29T14:52:23Z</time>
      </trkpt>
      <trkpt lat="43.376153027638793" lon="-6.318784039467573">
        <ele>645.17999999999995</ele>
        <time>2025-04-29T14:52:24Z</time>
      </trkpt>
      <trkpt lat="43.376154033467174" lon="-6.318988977000117">
        <ele>645.65999999999997</ele>
        <time>2025-04-29T14:52:25Z</time>
      </trkpt>
      <trkpt lat="43.3761699590832" lon="-6.319190980866551">
        <ele>646.13999999999999</ele>
        <time>2025-04-29T14:52:26Z</time>
      </trkpt>
      <trkpt lat="43.37619099766016" lon="-6.319795986637473">
        <ele>647.59000000000003</ele>
        <time>2025-04-29T14:52:29Z</time>
      </trkpt>
      <trkpt lat="43.37619099766016" lon="-6.320005031302571">
        <ele>648.54999999999995</ele>
        <time>2025-04-29T14:52:30Z</time>
      </trkpt>
      <trkpt lat="43.376181023195386" lon="-6.320210974663496">
        <ele>649.50999999999999</ele>
        <time>2025-04-29T14:52:31Z</time>
      </trkpt>
      <trkpt lat="43.376049008220434" lon="-6.321211019530892">
        <ele>653.35000000000002</ele>
        <time>2025-04-29T14:52:36Z</time>
      </trkpt>
      <trkpt lat="43.376063005998731" lon="-6.321404976770282">
        <ele>653.35000000000002</ele>
        <time>2025-04-29T14:52:37Z</time>
      </trkpt>
      <trkpt lat="43.376118997111917" lon="-6.322009982541204">
        <ele>654.79999999999995</ele>
        <time>2025-04-29T14:52:40Z</time>
      </trkpt>
      <trkpt lat="43.376175994053483" lon="-6.322188014164567">
        <ele>654.79999999999995</ele>
        <time>2025-04-29T14:52:41Z</time>
      </trkpt>
      <trkpt lat="43.376231985166669" lon="-6.322364034131169">
        <ele>655.27999999999997</ele>
        <time>2025-04-29T14:52:42Z</time>
      </trkpt>
      <trkpt lat="43.376327035948634" lon="-6.322515998035669">
        <ele>655.27999999999997</ele>
        <time>2025-04-29T14:52:43Z</time>
      </trkpt>
      <trkpt lat="43.376441029831767" lon="-6.322638038545847">
        <ele>655.27999999999997</ele>
        <time>2025-04-29T14:52:44Z</time>
      </trkpt>
      <trkpt lat="43.376561980694532" lon="-6.322768041864038">
        <ele>655.27999999999997</ele>
        <time>2025-04-29T14:52:45Z</time>
      </trkpt>
      <trkpt lat="43.376687960699201" lon="-6.32290399633348">
        <ele>655.27999999999997</ele>
        <time>2025-04-29T14:52:46Z</time>
      </trkpt>
      <trkpt lat="43.376919971778989" lon="-6.323191998526454">
        <ele>654.79999999999995</ele>
        <time>2025-04-29T14:52:48Z</time>
      </trkpt>
      <trkpt lat="43.377022985368967" lon="-6.323347985744476">
        <ele>654.30999999999995</ele>
        <time>2025-04-29T14:52:49Z</time>
      </trkpt>
      <trkpt lat="43.377119963988662" lon="-6.323497015982866">
        <ele>653.83000000000004</ele>
        <time>2025-04-29T14:52:50Z</time>
      </trkpt>
      <trkpt lat="43.377202022820711" lon="-6.323627019301057">
        <ele>653.83000000000004</ele>
        <time>2025-04-29T14:52:51Z</time>
      </trkpt>
      <trkpt lat="43.377240998670459" lon="-6.323798010125756">
        <ele>653.35000000000002</ele>
        <time>2025-04-29T14:52:52Z</time>
      </trkpt>
      <trkpt lat="43.377279974520206" lon="-6.323973024263978">
        <ele>653.35000000000002</ele>
        <time>2025-04-29T14:52:53Z</time>
      </trkpt>
      <trkpt lat="43.377320962026715" lon="-6.324152983725071">
        <ele>652.87</ele>
        <time>2025-04-29T14:52:54Z</time>
      </trkpt>
      <trkpt lat="43.377439985051751" lon="-6.324674002826214">
        <ele>651.42999999999995</ele>
        <time>2025-04-29T14:52:57Z</time>
      </trkpt>
      <trkpt lat="43.377482984215021" lon="-6.324848011136055">
        <ele>650.95000000000005</ele>
        <time>2025-04-29T14:52:58Z</time>
      </trkpt>
      <trkpt lat="43.377572000026703" lon="-6.324979020282626">
        <ele>649.99000000000001</ele>
        <time>2025-04-29T14:52:59Z</time>
      </trkpt>
      <trkpt lat="43.377670990303159" lon="-6.325124027207494">
        <ele>649.02999999999997</ele>
        <time>2025-04-29T14:53:00Z</time>
      </trkpt>
      <trkpt lat="43.377791019156575" lon="-6.325274985283613">
        <ele>648.54999999999995</ele>
        <time>2025-04-29T14:53:01Z</time>
      </trkpt>
      <trkpt lat="43.37793200276792" lon="-6.325385039672256">
        <ele>648.07000000000005</ele>
        <time>2025-04-29T14:53:02Z</time>
      </trkpt>
      <trkpt lat="43.378954008221626" lon="-6.326549034565687">
        <ele>651.90999999999997</ele>
        <time>2025-04-29T14:53:10Z</time>
      </trkpt>
      <trkpt lat="43.379065990447998" lon="-6.32668599486351">
        <ele>652.87</ele>
        <time>2025-04-29T14:53:11Z</time>
      </trkpt>
      <trkpt lat="43.379190964624286" lon="-6.326780961826444">
        <ele>653.83000000000004</ele>
        <time>2025-04-29T14:53:12Z</time>
      </trkpt>
      <trkpt lat="43.379323985427618" lon="-6.326881041750312">
        <ele>655.27999999999997</ele>
        <time>2025-04-29T14:53:13Z</time>
      </trkpt>
      <trkpt lat="43.379453988745809" lon="-6.326928986236453">
        <ele>656.24000000000001</ele>
        <time>2025-04-29T14:53:14Z</time>
      </trkpt>
      <trkpt lat="43.379595978185534" lon="-6.326981959864497">
        <ele>656.72000000000003</ele>
        <time>2025-04-29T14:53:15Z</time>
      </trkpt>
      <trkpt lat="43.379759006202221" lon="-6.327016996219754">
        <ele>657.67999999999995</ele>
        <time>2025-04-29T14:53:16Z</time>
      </trkpt>
      <trkpt lat="43.381100026890635" lon="-6.327010961249471">
        <ele>660.08000000000004</ele>
        <time>2025-04-29T14:53:24Z</time>
      </trkpt>
      <trkpt lat="43.382705999538302" lon="-6.326993023976684">
        <ele>659.60000000000002</ele>
        <time>2025-04-29T14:53:34Z</time>
      </trkpt>
      <trkpt lat="43.382863998413086" lon="-6.327055972069502">
        <ele>659.12</ele>
        <time>2025-04-29T14:53:35Z</time>
      </trkpt>
      <trkpt lat="43.383025014773011" lon="-6.327121015638113">
        <ele>659.12</ele>
        <time>2025-04-29T14:53:36Z</time>
      </trkpt>
      <trkpt lat="43.383183013647795" lon="-6.327183963730931">
        <ele>658.63999999999999</ele>
        <time>2025-04-29T14:53:37Z</time>
      </trkpt>
      <trkpt lat="43.383336989209056" lon="-6.32724498398602">
        <ele>658.63999999999999</ele>
        <time>2025-04-29T14:53:38Z</time>
      </trkpt>
      <trkpt lat="43.383469004184008" lon="-6.32737398147583">
        <ele>658.15999999999997</ele>
        <time>2025-04-29T14:53:39Z</time>
      </trkpt>
      <trkpt lat="43.383606970310211" lon="-6.327507002279162">
        <ele>657.67999999999995</ele>
        <time>2025-04-29T14:53:40Z</time>
      </trkpt>
      <trkpt lat="43.383745020255446" lon="-6.327640023082495">
        <ele>657.67999999999995</ele>
        <time>2025-04-29T14:53:41Z</time>
      </trkpt>
      <trkpt lat="43.384816981852055" lon="-6.328775016590953">
        <ele>658.63999999999999</ele>
        <time>2025-04-29T14:53:49Z</time>
      </trkpt>
      <trkpt lat="43.384927036240697" lon="-6.328943995758891">
        <ele>658.63999999999999</ele>
        <time>2025-04-29T14:53:50Z</time>
      </trkpt>
      <trkpt lat="43.385261977091432" lon="-6.329418998211622">
        <ele>658.63999999999999</ele>
        <time>2025-04-29T14:53:53Z</time>
      </trkpt>
      <trkpt lat="43.38538502342999" lon="-6.329523017629981">
        <ele>658.63999999999999</ele>
        <time>2025-04-29T14:53:54Z</time>
      </trkpt>
      <trkpt lat="43.38551502674818" lon="-6.329614967107773">
        <ele>658.63999999999999</ele>
        <time>2025-04-29T14:53:55Z</time>
      </trkpt>
      <trkpt lat="43.385658022016287" lon="-6.329657966271043">
        <ele>658.63999999999999</ele>
        <time>2025-04-29T14:53:56Z</time>
      </trkpt>
      <trkpt lat="43.385797999799252" lon="-6.32967003621161">
        <ele>658.63999999999999</ele>
        <time>2025-04-29T14:53:57Z</time>
      </trkpt>
      <trkpt lat="43.385939989238977" lon="-6.32967003621161">
        <ele>658.63999999999999</ele>
        <time>2025-04-29T14:53:58Z</time>
      </trkpt>
      <trkpt lat="43.386082984507084" lon="-6.32967003621161">
        <ele>658.63999999999999</ele>
        <time>2025-04-29T14:53:59Z</time>
      </trkpt>
      <trkpt lat="43.386197984218597" lon="-6.329616978764534">
        <ele>658.63999999999999</ele>
        <time>2025-04-29T14:54:00Z</time>
      </trkpt>
      <trkpt lat="43.386683966964483" lon="-6.329383039847016">
        <ele>658.63999999999999</ele>
        <time>2025-04-29T14:54:04Z</time>
      </trkpt>
      <trkpt lat="43.386807013303041" lon="-6.329297963529825">
        <ele>659.12</ele>
        <time>2025-04-29T14:54:05Z</time>
      </trkpt>
      <trkpt lat="43.387720976024866" lon="-6.328464969992638">
        <ele>661.03999999999996</ele>
        <time>2025-04-29T14:54:13Z</time>
      </trkpt>
      <trkpt lat="43.388360012322664" lon="-6.327686961740255">
        <ele>657.67999999999995</ele>
        <time>2025-04-29T14:54:19Z</time>
      </trkpt>
      <trkpt lat="43.388482974842191" lon="-6.327641028910875">
        <ele>657.20000000000005</ele>
        <time>2025-04-29T14:54:20Z</time>
      </trkpt>
      <trkpt lat="43.388601997867227" lon="-6.327596018090844">
        <ele>656.24000000000001</ele>
        <time>2025-04-29T14:54:21Z</time>
      </trkpt>
      <trkpt lat="43.388722026720643" lon="-6.327567016705871">
        <ele>655.75999999999999</ele>
        <time>2025-04-29T14:54:22Z</time>
      </trkpt>
      <trkpt lat="43.388838032260537" lon="-6.327567016705871">
        <ele>654.79999999999995</ele>
        <time>2025-04-29T14:54:23Z</time>
      </trkpt>
      <trkpt lat="43.388964012265205" lon="-6.32763197645545">
        <ele>653.83000000000004</ele>
        <time>2025-04-29T14:54:24Z</time>
      </trkpt>
      <trkpt lat="43.389056967571378" lon="-6.32771696895361">
        <ele>652.87</ele>
        <time>2025-04-29T14:54:25Z</time>
      </trkpt>
      <trkpt lat="43.389165010303259" lon="-6.327836997807026">
        <ele>651.90999999999997</ele>
        <time>2025-04-29T14:54:26Z</time>
      </trkpt>
      <trkpt lat="43.389219995588064" lon="-6.327971024438739">
        <ele>650.95000000000005</ele>
        <time>2025-04-29T14:54:27Z</time>
      </trkpt>
      <trkpt lat="43.389272969216108" lon="-6.328101027756929">
        <ele>649.99000000000001</ele>
        <time>2025-04-29T14:54:28Z</time>
      </trkpt>
      <trkpt lat="43.389380006119609" lon="-6.328364973887801">
        <ele>648.07000000000005</ele>
        <time>2025-04-29T14:54:30Z</time>
      </trkpt>
      <trkpt lat="43.389430968090892" lon="-6.328490031883121">
        <ele>647.10000000000002</ele>
        <time>2025-04-29T14:54:31Z</time>
      </trkpt>
      <trkpt lat="43.389661973342299" lon="-6.33018703199923">
        <ele>645.65999999999997</ele>
        <time>2025-04-29T14:54:42Z</time>
      </trkpt>
      <trkpt lat="43.389779990538955" lon="-6.330605037510395">
        <ele>645.17999999999995</ele>
        <time>2025-04-29T14:54:45Z</time>
      </trkpt>
      <trkpt lat="43.389850985258818" lon="-6.330723976716399">
        <ele>644.70000000000005</ele>
        <time>2025-04-29T14:54:46Z</time>
      </trkpt>
      <trkpt lat="43.389947963878512" lon="-6.330792959779501">
        <ele>644.22000000000003</ele>
        <time>2025-04-29T14:54:47Z</time>
      </trkpt>
      <trkpt lat="43.39004997164011" lon="-6.330865966156125">
        <ele>643.74000000000001</ele>
        <time>2025-04-29T14:54:48Z</time>
      </trkpt>
      <trkpt lat="43.390150973573327" lon="-6.330928998067975">
        <ele>643.25999999999999</ele>
        <time>2025-04-29T14:54:49Z</time>
      </trkpt>
      <trkpt lat="43.390257004648447" lon="-6.330975014716387">
        <ele>642.77999999999997</ele>
        <time>2025-04-29T14:54:50Z</time>
      </trkpt>
      <trkpt lat="43.390361024066806" lon="-6.331019019708037">
        <ele>642.29999999999995</ele>
        <time>2025-04-29T14:54:51Z</time>
      </trkpt>
      <trkpt lat="43.390553975477815" lon="-6.331102000549436">
        <ele>641.82000000000005</ele>
        <time>2025-04-29T14:54:53Z</time>
      </trkpt>
      <trkpt lat="43.390617007389665" lon="-6.331230998039246">
        <ele>641.34000000000003</ele>
        <time>2025-04-29T14:54:54Z</time>
      </trkpt>
      <trkpt lat="43.390664029866457" lon="-6.331349015235901">
        <ele>640.38</ele>
        <time>2025-04-29T14:54:55Z</time>
      </trkpt>
      <trkpt lat="43.390712980180979" lon="-6.331471977755427">
        <ele>640.38</ele>
        <time>2025-04-29T14:54:56Z</time>
      </trkpt>
      <trkpt lat="43.390763020142913" lon="-6.331596029922366">
        <ele>639.88999999999999</ele>
        <time>2025-04-29T14:54:57Z</time>
      </trkpt>
      <trkpt lat="43.39142401702702" lon="-6.332844011485577">
        <ele>642.77999999999997</ele>
        <time>2025-04-29T14:55:07Z</time>
      </trkpt>
      <trkpt lat="43.391851997002959" lon="-6.333456980064511">
        <ele>643.74000000000001</ele>
        <time>2025-04-29T14:55:12Z</time>
      </trkpt>
      <trkpt lat="43.391963979229331" lon="-6.333544990047813">
        <ele>644.22000000000003</ele>
        <time>2025-04-29T14:55:13Z</time>
      </trkpt>
      <trkpt lat="43.39208903722465" lon="-6.333640962839127">
        <ele>644.22000000000003</ele>
        <time>2025-04-29T14:55:14Z</time>
      </trkpt>
      <trkpt lat="43.392199007794261" lon="-6.333726039156318">
        <ele>644.22000000000003</ele>
        <time>2025-04-29T14:55:15Z</time>
      </trkpt>
      <trkpt lat="43.392328005284071" lon="-6.333822011947632">
        <ele>644.22000000000003</ele>
        <time>2025-04-29T14:55:16Z</time>
      </trkpt>
      <trkpt lat="43.392434036359191" lon="-6.333901975303888">
        <ele>644.70000000000005</ele>
        <time>2025-04-29T14:55:17Z</time>
      </trkpt>
      <trkpt lat="43.392548030242324" lon="-6.333997026085854">
        <ele>644.70000000000005</ele>
        <time>2025-04-29T14:55:18Z</time>
      </trkpt>
      <trkpt lat="43.39260502718389" lon="-6.334128035232425">
        <ele>644.70000000000005</ele>
        <time>2025-04-29T14:55:19Z</time>
      </trkpt>
      <trkpt lat="43.392661018297076" lon="-6.334253009408712">
        <ele>645.17999999999995</ele>
        <time>2025-04-29T14:55:20Z</time>
      </trkpt>
      <trkpt lat="43.392714997753501" lon="-6.33437697775662">
        <ele>645.17999999999995</ele>
        <time>2025-04-29T14:55:21Z</time>
      </trkpt>
      <trkpt lat="43.392778029665351" lon="-6.334518967196345">
        <ele>645.65999999999997</ele>
        <time>2025-04-29T14:55:22Z</time>
      </trkpt>
      <trkpt lat="43.392793033272028" lon="-6.334653999656439">
        <ele>646.13999999999999</ele>
        <time>2025-04-29T14:55:23Z</time>
      </trkpt>
      <trkpt lat="43.392809964716434" lon="-6.3348079752177">
        <ele>646.62</ele>
        <time>2025-04-29T14:55:24Z</time>
      </trkpt>
      <trkpt lat="43.392897974699736" lon="-6.335858982056379">
        <ele>649.50999999999999</ele>
        <time>2025-04-29T14:55:31Z</time>
      </trkpt>
      <trkpt lat="43.392981039360166" lon="-6.337016019970179">
        <ele>652.87</ele>
        <time>2025-04-29T14:55:39Z</time>
      </trkpt>
      <trkpt lat="43.393154041841626" lon="-6.337779024615884">
        <ele>654.79999999999995</ele>
        <time>2025-04-29T14:55:45Z</time>
      </trkpt>
      <trkpt lat="43.39320600964129" lon="-6.337899975478649">
        <ele>655.27999999999997</ele>
        <time>2025-04-29T14:55:46Z</time>
      </trkpt>
      <trkpt lat="43.393257977440953" lon="-6.338022015988827">
        <ele>655.75999999999999</ele>
        <time>2025-04-29T14:55:47Z</time>
      </trkpt>
      <trkpt lat="43.393323021009564" lon="-6.338127963244915">
        <ele>656.24000000000001</ele>
        <time>2025-04-29T14:55:48Z</time>
      </trkpt>
      <trkpt lat="43.39340197853744" lon="-6.338194012641907">
        <ele>656.72000000000003</ele>
        <time>2025-04-29T14:55:49Z</time>
      </trkpt>
      <trkpt lat="43.393469033762813" lon="-6.33824204094708">
        <ele>657.20000000000005</ele>
        <time>2025-04-29T14:55:50Z</time>
      </trkpt>
      <trkpt lat="43.393516978248954" lon="-6.338273975998163">
        <ele>657.67999999999995</ele>
        <time>2025-04-29T14:55:51Z</time>
      </trkpt>
      <trkpt lat="43.393544973805547" lon="-6.338291997089982">
        <ele>657.67999999999995</ele>
        <time>2025-04-29T14:55:52Z</time>
      </trkpt>
      <trkpt lat="43.393614962697029" lon="-6.338339019566774">
        <ele>658.63999999999999</ele>
        <time>2025-04-29T14:56:01Z</time>
      </trkpt>
      <trkpt lat="43.393614962697029" lon="-6.338339019566774">
        <ele>658.63999999999999</ele>
        <time>2025-04-29T14:56:02Z</time>
      </trkpt>
      <trkpt lat="43.393781008198857" lon="-6.338365003466606">
        <ele>659.12</ele>
        <time>2025-04-29T14:56:06Z</time>
      </trkpt>
      <trkpt lat="43.393853008747101" lon="-6.338213961571455">
        <ele>659.12</ele>
        <time>2025-04-29T14:56:08Z</time>
      </trkpt>
      <trkpt lat="43.393901037052274" lon="-6.338104996830225">
        <ele>659.60000000000002</ele>
        <time>2025-04-29T14:56:09Z</time>
      </trkpt>
      <trkpt lat="43.394123995676637" lon="-6.337676011025906">
        <ele>659.60000000000002</ele>
        <time>2025-04-29T14:56:13Z</time>
      </trkpt>
      <trkpt lat="43.394187027588487" lon="-6.337570985779166">
        <ele>659.60000000000002</ele>
        <time>2025-04-29T14:56:14Z</time>
      </trkpt>
      <trkpt lat="43.39426196180284" lon="-6.337508037686348">
        <ele>659.60000000000002</ele>
        <time>2025-04-29T14:56:15Z</time>
      </trkpt>
      <trkpt lat="43.394355000928044" lon="-6.337477024644613">
        <ele>659.60000000000002</ele>
        <time>2025-04-29T14:56:16Z</time>
      </trkpt>
      <trkpt lat="43.394450973719358" lon="-6.337445005774498">
        <ele>659.60000000000002</ele>
        <time>2025-04-29T14:56:17Z</time>
      </trkpt>
      <trkpt lat="43.394548958167434" lon="-6.337411981076002">
        <ele>659.60000000000002</ele>
        <time>2025-04-29T14:56:18Z</time>
      </trkpt>
      <trkpt lat="43.394643003121018" lon="-6.33736495859921">
        <ele>659.12</ele>
        <time>2025-04-29T14:56:19Z</time>
      </trkpt>
      <trkpt lat="43.394724978134036" lon="-6.337306033819914">
        <ele>659.12</ele>
        <time>2025-04-29T14:56:20Z</time>
      </trkpt>
      <trkpt lat="43.394801001995802" lon="-6.337250964716077">
        <ele>659.12</ele>
        <time>2025-04-29T14:56:21Z</time>
      </trkpt>
      <trkpt lat="43.394865039736032" lon="-6.337205031886697">
        <ele>659.12</ele>
        <time>2025-04-29T14:56:22Z</time>
      </trkpt>
      <trkpt lat="43.394911978393793" lon="-6.33717100135982">
        <ele>659.12</ele>
        <time>2025-04-29T14:56:23Z</time>
      </trkpt>
      <trkpt lat="43.394988002255559" lon="-6.337116016075015">
        <ele>660.08000000000004</ele>
        <time>2025-04-29T14:56:26Z</time>
      </trkpt>
      <trkpt lat="43.395020021125674" lon="-6.337161026895046">
        <ele>660.08000000000004</ele>
        <time>2025-04-29T14:56:27Z</time>
      </trkpt>
      <trkpt lat="43.395074000582099" lon="-6.337238978594542">
        <ele>660.08000000000004</ele>
        <time>2025-04-29T14:56:28Z</time>
      </trkpt>
      <trkpt lat="43.39514097198844" lon="-6.337336041033268">
        <ele>659.60000000000002</ele>
        <time>2025-04-29T14:56:29Z</time>
      </trkpt>
      <trkpt lat="43.395212972536683" lon="-6.337439976632595">
        <ele>659.12</ele>
        <time>2025-04-29T14:56:30Z</time>
      </trkpt>
      <trkpt lat="43.39529000222683" lon="-6.337550031021237">
        <ele>658.63999999999999</ele>
        <time>2025-04-29T14:56:31Z</time>
      </trkpt>
      <trkpt lat="43.395400978624821" lon="-6.33766301907599">
        <ele>657.67999999999995</ele>
        <time>2025-04-29T14:56:32Z</time>
      </trkpt>
      <trkpt lat="43.395513966679573" lon="-6.33775002323091">
        <ele>656.72000000000003</ele>
        <time>2025-04-29T14:56:33Z</time>
      </trkpt>
      <trkpt lat="43.395645981654525" lon="-6.33783602155745">
        <ele>655.75999999999999</ele>
        <time>2025-04-29T14:56:34Z</time>
      </trkpt>
      <trkpt lat="43.395781014114618" lon="-6.337881032377482">
        <ele>654.30999999999995</ele>
        <time>2025-04-29T14:56:35Z</time>
      </trkpt>
      <trkpt lat="43.395921997725964" lon="-6.337910033762455">
        <ele>653.35000000000002</ele>
        <time>2025-04-29T14:56:36Z</time>
      </trkpt>
      <trkpt lat="43.396058036014438" lon="-6.337910033762455">
        <ele>652.38999999999999</ele>
        <time>2025-04-29T14:56:37Z</time>
      </trkpt>
      <trkpt lat="43.39619399048388" lon="-6.337910033762455">
        <ele>651.42999999999995</ele>
        <time>2025-04-29T14:56:38Z</time>
      </trkpt>
      <trkpt lat="43.39632298797369" lon="-6.33785898797214">
        <ele>650.95000000000005</ele>
        <time>2025-04-29T14:56:39Z</time>
      </trkpt>
      <trkpt lat="43.396450979635119" lon="-6.337799979373813">
        <ele>649.50999999999999</ele>
        <time>2025-04-29T14:56:40Z</time>
      </trkpt>
      <trkpt lat="43.396578971296549" lon="-6.337719010189176">
        <ele>649.02999999999997</ele>
        <time>2025-04-29T14:56:41Z</time>
      </trkpt>
      <trkpt lat="43.396706962957978" lon="-6.337635023519397">
        <ele>648.07000000000005</ele>
        <time>2025-04-29T14:56:42Z</time>
      </trkpt>
      <trkpt lat="43.397618997842073" lon="-6.337047033011913">
        <ele>642.29999999999995</ele>
        <time>2025-04-29T14:56:49Z</time>
      </trkpt>
      <trkpt lat="43.397758975625038" lon="-6.337037980556488">
        <ele>641.34000000000003</ele>
        <time>2025-04-29T14:56:50Z</time>
      </trkpt>
      <trkpt lat="43.397885039448738" lon="-6.337030017748475">
        <ele>640.38</ele>
        <time>2025-04-29T14:56:51Z</time>
      </trkpt>
      <trkpt lat="43.398032980039716" lon="-6.337106041610241">
        <ele>639.40999999999997</ele>
        <time>2025-04-29T14:56:52Z</time>
      </trkpt>
      <trkpt lat="43.398183016106486" lon="-6.337181981652975">
        <ele>638.45000000000005</ele>
        <time>2025-04-29T14:56:53Z</time>
      </trkpt>
      <trkpt lat="43.398339003324509" lon="-6.337262028828263">
        <ele>637.49000000000001</ele>
        <time>2025-04-29T14:56:54Z</time>
      </trkpt>
      <trkpt lat="43.398821968585253" lon="-6.337508959695697">
        <ele>635.09000000000003</ele>
        <time>2025-04-29T14:56:57Z</time>
      </trkpt>
      <trkpt lat="43.398977033793926" lon="-6.337549025192857">
        <ele>634.13</ele>
        <time>2025-04-29T14:56:58Z</time>
      </trkpt>
      <trkpt lat="43.399131009355187" lon="-6.337580038234592">
        <ele>633.16999999999996</ele>
        <time>2025-04-29T14:56:59Z</time>
      </trkpt>
      <trkpt lat="43.399278027936816" lon="-6.337555982172489">
        <ele>632.20000000000005</ele>
        <time>2025-04-29T14:57:00Z</time>
      </trkpt>
      <trkpt lat="43.399424962699413" lon="-6.337509965524077">
        <ele>631.72000000000003</ele>
        <time>2025-04-29T14:57:01Z</time>
      </trkpt>
      <trkpt lat="43.399569969624281" lon="-6.33742899633944">
        <ele>630.75999999999999</ele>
        <time>2025-04-29T14:57:02Z</time>
      </trkpt>
      <trkpt lat="43.399723023176193" lon="-6.337334029376507">
        <ele>629.79999999999995</ele>
        <time>2025-04-29T14:57:03Z</time>
      </trkpt>
      <trkpt lat="43.400023011490703" lon="-6.337116016075015">
        <ele>628.36000000000001</ele>
        <time>2025-04-29T14:57:05Z</time>
      </trkpt>
      <trkpt lat="43.400153014808893" lon="-6.336972014978528">
        <ele>627.39999999999998</ele>
        <time>2025-04-29T14:57:06Z</time>
      </trkpt>
      <trkpt lat="43.4002769831568" lon="-6.33680404163897">
        <ele>626.44000000000005</ele>
        <time>2025-04-29T14:57:07Z</time>
      </trkpt>
      <trkpt lat="43.400372033938766" lon="-6.336626010015607">
        <ele>625.47000000000003</ele>
        <time>2025-04-29T14:57:08Z</time>
      </trkpt>
      <trkpt lat="43.400446968153119" lon="-6.336433980613947">
        <ele>624.50999999999999</ele>
        <time>2025-04-29T14:57:09Z</time>
      </trkpt>
      <trkpt lat="43.400518968701363" lon="-6.336252009496093">
        <ele>624.02999999999997</ele>
        <time>2025-04-29T14:57:10Z</time>
      </trkpt>
      <trkpt lat="43.400589041411877" lon="-6.336075989529491">
        <ele>623.07000000000005</ele>
        <time>2025-04-29T14:57:11Z</time>
      </trkpt>
      <trkpt lat="43.400679985061288" lon="-6.335951015353203">
        <ele>622.59000000000003</ele>
        <time>2025-04-29T14:57:12Z</time>
      </trkpt>
      <trkpt lat="43.400774030014873" lon="-6.335857976227999">
        <ele>621.63</ele>
        <time>2025-04-29T14:57:13Z</time>
      </trkpt>
      <trkpt lat="43.400868996977806" lon="-6.335811037570238">
        <ele>621.14999999999998</ele>
        <time>2025-04-29T14:57:14Z</time>
      </trkpt>
      <trkpt lat="43.400979973375797" lon="-6.335821012035012">
        <ele>620.19000000000005</ele>
        <time>2025-04-29T14:57:15Z</time>
      </trkpt>
      <trkpt lat="43.401095978915691" lon="-6.335858982056379">
        <ele>619.23000000000002</ele>
        <time>2025-04-29T14:57:16Z</time>
      </trkpt>
      <trkpt lat="43.401210978627205" lon="-6.335959983989596">
        <ele>618.25999999999999</ele>
        <time>2025-04-29T14:57:17Z</time>
      </trkpt>
      <trkpt lat="43.401335030794144" lon="-6.336068026721478">
        <ele>617.29999999999995</ele>
        <time>2025-04-29T14:57:18Z</time>
      </trkpt>
      <trkpt lat="43.401466039940715" lon="-6.336190989241004">
        <ele>616.34000000000003</ele>
        <time>2025-04-29T14:57:19Z</time>
      </trkpt>
      <trkpt lat="43.401596965268254" lon="-6.336321998387575">
        <ele>615.38</ele>
        <time>2025-04-29T14:57:20Z</time>
      </trkpt>
      <trkpt lat="43.401849009096622" lon="-6.336573958396912">
        <ele>613.94000000000005</ele>
        <time>2025-04-29T14:57:22Z</time>
      </trkpt>
      <trkpt lat="43.40197398327291" lon="-6.33669801056385">
        <ele>613.46000000000004</ele>
        <time>2025-04-29T14:57:23Z</time>
      </trkpt>
      <trkpt lat="43.402877971529961" lon="-6.337546007707715">
        <ele>609.13</ele>
        <time>2025-04-29T14:57:30Z</time>
      </trkpt>
      <trkpt lat="43.402991965413094" lon="-6.337631000205874">
        <ele>608.64999999999998</ele>
        <time>2025-04-29T14:57:31Z</time>
      </trkpt>
      <trkpt lat="43.403134038671851" lon="-6.337669976055622">
        <ele>608.16999999999996</ele>
        <time>2025-04-29T14:57:32Z</time>
      </trkpt>
      <trkpt lat="43.403263036161661" lon="-6.337693026289344">
        <ele>608.16999999999996</ele>
        <time>2025-04-29T14:57:33Z</time>
      </trkpt>
      <trkpt lat="43.403406031429768" lon="-6.337682968005538">
        <ele>607.69000000000005</ele>
        <time>2025-04-29T14:57:34Z</time>
      </trkpt>
      <trkpt lat="43.403554977849126" lon="-6.337670981884003">
        <ele>607.21000000000004</ele>
        <time>2025-04-29T14:57:35Z</time>
      </trkpt>
      <trkpt lat="43.404161995276809" lon="-6.337676011025906">
        <ele>603.36000000000001</ele>
        <time>2025-04-29T14:57:39Z</time>
      </trkpt>
      <trkpt lat="43.404316976666451" lon="-6.337720016017556">
        <ele>602.39999999999998</ele>
        <time>2025-04-29T14:57:40Z</time>
      </trkpt>
      <trkpt lat="43.4054109826684" lon="-6.338141039013863">
        <ele>595.19000000000005</ele>
        <time>2025-04-29T14:57:47Z</time>
      </trkpt>
      <trkpt lat="43.405554983764887" lon="-6.338156964629889">
        <ele>594.23000000000002</ele>
        <time>2025-04-29T14:57:48Z</time>
      </trkpt>
      <trkpt lat="43.405780959874392" lon="-6.338124023750424">
        <ele>592.78999999999996</ele>
        <time>2025-04-29T14:57:49Z</time>
      </trkpt>
      <trkpt lat="43.405886990949512" lon="-6.338081024587154">
        <ele>591.83000000000004</ele>
        <time>2025-04-29T14:57:50Z</time>
      </trkpt>
      <trkpt lat="43.406045995652676" lon="-6.338014975190163">
        <ele>590.38999999999999</ele>
        <time>2025-04-29T14:57:51Z</time>
      </trkpt>
      <trkpt lat="43.406200977042317" lon="-6.337951021268964">
        <ele>589.42999999999995</ele>
        <time>2025-04-29T14:57:52Z</time>
      </trkpt>
      <trkpt lat="43.406339026987553" lon="-6.337894024327397">
        <ele>587.98000000000002</ele>
        <time>2025-04-29T14:57:53Z</time>
      </trkpt>
      <trkpt lat="43.406459977850318" lon="-6.337870974093676">
        <ele>587.01999999999998</ele>
        <time>2025-04-29T14:57:54Z</time>
      </trkpt>
      <trkpt lat="43.40657003223896" lon="-6.337881032377482">
        <ele>586.53999999999996</ele>
        <time>2025-04-29T14:57:55Z</time>
      </trkpt>
      <trkpt lat="43.406687965616584" lon="-6.337939035147429">
        <ele>585.58000000000004</ele>
        <time>2025-04-29T14:57:56Z</time>
      </trkpt>
      <trkpt lat="43.406755020841956" lon="-6.338061997666955">
        <ele>585.10000000000002</ele>
        <time>2025-04-29T14:57:57Z</time>
      </trkpt>
      <trkpt lat="43.406816963106394" lon="-6.338216979056597">
        <ele>584.62</ele>
        <time>2025-04-29T14:57:58Z</time>
      </trkpt>
      <trkpt lat="43.406839007511735" lon="-6.338397022336721">
        <ele>584.62</ele>
        <time>2025-04-29T14:57:59Z</time>
      </trkpt>
      <trkpt lat="43.406861973926425" lon="-6.33858704008162">
        <ele>584.13999999999999</ele>
        <time>2025-04-29T14:58:00Z</time>
      </trkpt>
      <trkpt lat="43.406887035816908" lon="-6.338788960129023">
        <ele>584.13999999999999</ele>
        <time>2025-04-29T14:58:01Z</time>
      </trkpt>
      <trkpt lat="43.407026007771492" lon="-6.339863017201424">
        <ele>582.22000000000003</ele>
        <time>2025-04-29T14:58:06Z</time>
      </trkpt>
      <trkpt lat="43.40708501636982" lon="-6.340039037168026">
        <ele>582.22000000000003</ele>
        <time>2025-04-29T14:58:07Z</time>
      </trkpt>
      <trkpt lat="43.407155005261302" lon="-6.340170968323946">
        <ele>581.73000000000002</ele>
        <time>2025-04-29T14:58:08Z</time>
      </trkpt>
      <trkpt lat="43.407246032729745" lon="-6.340270964428783">
        <ele>581.25</ele>
        <time>2025-04-29T14:58:09Z</time>
      </trkpt>
      <trkpt lat="43.407372012734413" lon="-6.340282028540969">
        <ele>580.76999999999998</ele>
        <time>2025-04-29T14:58:10Z</time>
      </trkpt>
      <trkpt lat="43.407501010224223" lon="-6.340280016884208">
        <ele>580.28999999999996</ele>
        <time>2025-04-29T14:58:11Z</time>
      </trkpt>
      <trkpt lat="43.407654985785484" lon="-6.340209022164345">
        <ele>579.80999999999995</ele>
        <time>2025-04-29T14:58:12Z</time>
      </trkpt>
      <trkpt lat="43.407831005752087" lon="-6.340126963332295">
        <ele>578.85000000000002</ele>
        <time>2025-04-29T14:58:13Z</time>
      </trkpt>
      <trkpt lat="43.408411033451557" lon="-6.339881038293243">
        <ele>575.00999999999999</ele>
        <time>2025-04-29T14:58:17Z</time>
      </trkpt>
      <trkpt lat="43.408560985699296" lon="-6.339872991666198">
        <ele>574.03999999999996</ele>
        <time>2025-04-29T14:58:18Z</time>
      </trkpt>
      <trkpt lat="43.408714961260557" lon="-6.339864023029804">
        <ele>572.60000000000002</ele>
        <time>2025-04-29T14:58:19Z</time>
      </trkpt>
      <trkpt lat="43.410064028576016" lon="-6.339944992214441">
        <ele>562.99000000000001</ele>
        <time>2025-04-29T14:58:27Z</time>
      </trkpt>
      <trkpt lat="43.410535007715225" lon="-6.339991008862853">
        <ele>559.13999999999999</ele>
        <time>2025-04-29T14:58:30Z</time>
      </trkpt>
      <trkpt lat="43.410651013255119" lon="-6.340068960562348">
        <ele>557.70000000000005</ele>
        <time>2025-04-29T14:58:31Z</time>
      </trkpt>
      <trkpt lat="43.410723013803363" lon="-6.340148001909256">
        <ele>556.74000000000001</ele>
        <time>2025-04-29T14:58:32Z</time>
      </trkpt>
      <trkpt lat="43.410786967724562" lon="-6.340267024934292">
        <ele>556.25999999999999</ele>
        <time>2025-04-29T14:58:33Z</time>
      </trkpt>
      <trkpt lat="43.410841031000018" lon="-6.340439021587372">
        <ele>555.77999999999997</ele>
        <time>2025-04-29T14:58:34Z</time>
      </trkpt>
      <trkpt lat="43.410899033769965" lon="-6.340623004361987">
        <ele>554.82000000000005</ele>
        <time>2025-04-29T14:58:35Z</time>
      </trkpt>
      <trkpt lat="43.410959970206022" lon="-6.340818973258138">
        <ele>554.34000000000003</ele>
        <time>2025-04-29T14:58:36Z</time>
      </trkpt>
      <trkpt lat="43.411364983767271" lon="-6.341996965929866">
        <ele>553.38</ele>
        <time>2025-04-29T14:58:42Z</time>
      </trkpt>
      <trkpt lat="43.411440001800656" lon="-6.342147001996636">
        <ele>552.89999999999998</ele>
        <time>2025-04-29T14:58:43Z</time>
      </trkpt>
      <trkpt lat="43.411528011783957" lon="-6.342192012816668">
        <ele>552.40999999999997</ele>
        <time>2025-04-29T14:58:44Z</time>
      </trkpt>
      <trkpt lat="43.411634964868426" lon="-6.342237023636699">
        <ele>551.92999999999995</ele>
        <time>2025-04-29T14:58:45Z</time>
      </trkpt>
      <trkpt lat="43.411716017872095" lon="-6.342259990051389">
        <ele>551.92999999999995</ele>
        <time>2025-04-29T14:58:46Z</time>
      </trkpt>
      <trkpt lat="43.411831017583609" lon="-6.342209028080106">
        <ele>551.92999999999995</ele>
        <time>2025-04-29T14:58:47Z</time>
      </trkpt>
      <trkpt lat="43.411947023123503" lon="-6.342141972854734">
        <ele>551.45000000000005</ele>
        <time>2025-04-29T14:58:48Z</time>
      </trkpt>
      <trkpt lat="43.412076020613313" lon="-6.342043988406658">
        <ele>551.45000000000005</ele>
        <time>2025-04-29T14:58:49Z</time>
      </trkpt>
      <trkpt lat="43.412215998396277" lon="-6.341938963159919">
        <ele>550.97000000000003</ele>
        <time>2025-04-29T14:58:50Z</time>
      </trkpt>
      <trkpt lat="43.412352036684752" lon="-6.341836033388972">
        <ele>550.00999999999999</ele>
        <time>2025-04-29T14:58:51Z</time>
      </trkpt>
      <trkpt lat="43.412943966686726" lon="-6.341430013999343">
        <ele>547.61000000000001</ele>
        <time>2025-04-29T14:58:56Z</time>
      </trkpt>
      <trkpt lat="43.413078999146819" lon="-6.341395983472467">
        <ele>547.13</ele>
        <time>2025-04-29T14:58:57Z</time>
      </trkpt>
      <trkpt lat="43.413205984979868" lon="-6.341363964602351">
        <ele>547.13</ele>
        <time>2025-04-29T14:58:58Z</time>
      </trkpt>
      <trkpt lat="43.413327019661665" lon="-6.341394977644086">
        <ele>547.13</ele>
        <time>2025-04-29T14:58:59Z</time>
      </trkpt>
      <trkpt lat="43.413471020758152" lon="-6.341431019827724">
        <ele>547.13</ele>
        <time>2025-04-29T14:59:00Z</time>
      </trkpt>
      <trkpt lat="43.413793975487351" lon="-6.341586001217365">
        <ele>546.64999999999998</ele>
        <time>2025-04-29T14:59:02Z</time>
      </trkpt>
      <trkpt lat="43.413958009332418" lon="-6.341691026464105">
        <ele>546.16999999999996</ele>
        <time>2025-04-29T14:59:03Z</time>
      </trkpt>
      <trkpt lat="43.414107039570808" lon="-6.341857993975282">
        <ele>545.20000000000005</ele>
        <time>2025-04-29T14:59:04Z</time>
      </trkpt>
      <trkpt lat="43.414196977391839" lon="-6.342011969536543">
        <ele>544.24000000000001</ele>
        <time>2025-04-29T14:59:05Z</time>
      </trkpt>
      <trkpt lat="43.414279958233237" lon="-6.342212967574596">
        <ele>543.75999999999999</ele>
        <time>2025-04-29T14:59:06Z</time>
      </trkpt>
      <trkpt lat="43.414328992366791" lon="-6.342424023896456">
        <ele>542.79999999999995</ele>
        <time>2025-04-29T14:59:07Z</time>
      </trkpt>
      <trkpt lat="43.414378026500344" lon="-6.342633990570903">
        <ele>541.84000000000003</ele>
        <time>2025-04-29T14:59:08Z</time>
      </trkpt>
      <trkpt lat="43.414421025663614" lon="-6.342845968902111">
        <ele>541.36000000000001</ele>
        <time>2025-04-29T14:59:09Z</time>
      </trkpt>
      <trkpt lat="43.41467197984457" lon="-6.344121024012566">
        <ele>537.50999999999999</ele>
        <time>2025-04-29T14:59:15Z</time>
      </trkpt>
      <trkpt lat="43.41475797817111" lon="-6.344320010393858">
        <ele>537.02999999999997</ele>
        <time>2025-04-29T14:59:16Z</time>
      </trkpt>
      <trkpt lat="43.414850011467934" lon="-6.344525031745434">
        <ele>536.07000000000005</ele>
        <time>2025-04-29T14:59:17Z</time>
      </trkpt>
      <trkpt lat="43.414944978430867" lon="-6.344709014520049">
        <ele>535.11000000000001</ele>
        <time>2025-04-29T14:59:18Z</time>
      </trkpt>
      <trkpt lat="43.415008010342717" lon="-6.34481898508966">
        <ele>534.14999999999998</ele>
        <time>2025-04-29T14:59:19Z</time>
      </trkpt>
      <trkpt lat="43.415140025317669" lon="-6.344906995072961">
        <ele>533.66999999999996</ele>
        <time>2025-04-29T14:59:20Z</time>
      </trkpt>
      <trkpt lat="43.415234992280602" lon="-6.344941025599837">
        <ele>532.71000000000004</ele>
        <time>2025-04-29T14:59:21Z</time>
      </trkpt>
      <trkpt lat="43.415348986163735" lon="-6.344917975366116">
        <ele>531.75</ele>
        <time>2025-04-29T14:59:22Z</time>
      </trkpt>
      <trkpt lat="43.415450993925333" lon="-6.344865001738071">
        <ele>531.26999999999998</ele>
        <time>2025-04-29T14:59:23Z</time>
      </trkpt>
      <trkpt lat="43.415545038878918" lon="-6.344759976491332">
        <ele>530.78999999999996</ele>
        <time>2025-04-29T14:59:24Z</time>
      </trkpt>
      <trkpt lat="43.4156150277704" lon="-6.344637013971806">
        <ele>530.78999999999996</ele>
        <time>2025-04-29T14:59:25Z</time>
      </trkpt>
      <trkpt lat="43.415675964206457" lon="-6.344469962641597">
        <ele>530.29999999999995</ele>
        <time>2025-04-29T14:59:26Z</time>
      </trkpt>
      <trkpt lat="43.415743019431829" lon="-6.344286985695362">
        <ele>529.82000000000005</ele>
        <time>2025-04-29T14:59:27Z</time>
      </trkpt>
      <trkpt lat="43.416221039369702" lon="-6.342346994206309">
        <ele>527.41999999999996</ele>
        <time>2025-04-29T14:59:36Z</time>
      </trkpt>
      <trkpt lat="43.416313994675875" lon="-6.34105802513659">
        <ele>522.61000000000001</ele>
        <time>2025-04-29T14:59:42Z</time>
      </trkpt>
      <trkpt lat="43.416363028809428" lon="-6.340917963534594">
        <ele>521.16999999999996</ele>
        <time>2025-04-29T14:59:43Z</time>
      </trkpt>
      <trkpt lat="43.416403010487556" lon="-6.340806987136602">
        <ele>520.21000000000004</ele>
        <time>2025-04-29T14:59:44Z</time>
      </trkpt>
      <trkpt lat="43.416452966630459" lon="-6.340767005458474">
        <ele>518.76999999999998</ele>
        <time>2025-04-29T14:59:45Z</time>
      </trkpt>
      <trkpt lat="43.416541982442141" lon="-6.34071595966816">
        <ele>517.33000000000004</ele>
        <time>2025-04-29T14:59:46Z</time>
      </trkpt>
      <trkpt lat="43.416666034609079" lon="-6.340704979375005">
        <ele>515.88</ele>
        <time>2025-04-29T14:59:47Z</time>
      </trkpt>
      <trkpt lat="43.416771981865168" lon="-6.340811010450125">
        <ele>513.96000000000004</ele>
        <time>2025-04-29T14:59:48Z</time>
      </trkpt>
      <trkpt lat="43.416876001283526" lon="-6.340915029868484">
        <ele>513</ele>
        <time>2025-04-29T14:59:49Z</time>
      </trkpt>
      <trkpt lat="43.416954036802053" lon="-6.341060036793351">
        <ele>512.51999999999998</ele>
        <time>2025-04-29T14:59:50Z</time>
      </trkpt>
      <trkpt lat="43.417039029300213" lon="-6.341219963505864">
        <ele>512.03999999999996</ele>
        <time>2025-04-29T14:59:51Z</time>
      </trkpt>
      <trkpt lat="43.417127039283514" lon="-6.341395983472467">
        <ele>512.03999999999996</ele>
        <time>2025-04-29T14:59:52Z</time>
      </trkpt>
      <trkpt lat="43.417217982932925" lon="-6.341578960418701">
        <ele>511.56</ele>
        <time>2025-04-29T14:59:53Z</time>
      </trkpt>
      <trkpt lat="43.417309010401368" lon="-6.341770989820361">
        <ele>511.56</ele>
        <time>2025-04-29T14:59:54Z</time>
      </trkpt>
      <trkpt lat="43.417403977364302" lon="-6.341971987858415">
        <ele>511.07999999999998</ele>
        <time>2025-04-29T14:59:55Z</time>
      </trkpt>
      <trkpt lat="43.417501039803028" lon="-6.342177009209991">
        <ele>511.07999999999998</ele>
        <time>2025-04-29T14:59:56Z</time>
      </trkpt>
      <trkpt lat="43.417661972343922" lon="-6.34262602776289">
        <ele>509.63999999999999</ele>
        <time>2025-04-29T14:59:58Z</time>
      </trkpt>
      <trkpt lat="43.417965983971953" lon="-6.343716010451317">
        <ele>506.26999999999998</ele>
        <time>2025-04-29T15:00:03Z</time>
      </trkpt>
      <trkpt lat="43.418067991733551" lon="-6.343893958255649">
        <ele>505.79000000000002</ele>
        <time>2025-04-29T15:00:04Z</time>
      </trkpt>
      <trkpt lat="43.418356999754906" lon="-6.344414977356792">
        <ele>503.38999999999999</ele>
        <time>2025-04-29T15:00:07Z</time>
      </trkpt>
      <trkpt lat="43.418419025838375" lon="-6.344601977616549">
        <ele>502.43000000000001</ele>
        <time>2025-04-29T15:00:08Z</time>
      </trkpt>
      <trkpt lat="43.418444003909826" lon="-6.344808004796505">
        <ele>500.98000000000002</ele>
        <time>2025-04-29T15:00:09Z</time>
      </trkpt>
      <trkpt lat="43.418466970324516" lon="-6.345019983127713">
        <ele>500.01999999999998</ele>
        <time>2025-04-29T15:00:10Z</time>
      </trkpt>
      <trkpt lat="43.418483985587955" lon="-6.345235984772444">
        <ele>499.06</ele>
        <time>2025-04-29T15:00:11Z</time>
      </trkpt>
      <trkpt lat="43.418502006679773" lon="-6.345455003902316">
        <ele>497.62</ele>
        <time>2025-04-29T15:00:12Z</time>
      </trkpt>
      <trkpt lat="43.418549029156566" lon="-6.346583040431142">
        <ele>491.37</ele>
        <time>2025-04-29T15:00:17Z</time>
      </trkpt>
      <trkpt lat="43.418533019721508" lon="-6.346805999055505">
        <ele>490.41000000000003</ele>
        <time>2025-04-29T15:00:18Z</time>
      </trkpt>
      <trkpt lat="43.418503012508154" lon="-6.347463978454471">
        <ele>487.52999999999997</ele>
        <time>2025-04-29T15:00:21Z</time>
      </trkpt>
      <trkpt lat="43.418544000014663" lon="-6.347660031169653">
        <ele>486.56</ele>
        <time>2025-04-29T15:00:22Z</time>
      </trkpt>
      <trkpt lat="43.418584987521172" lon="-6.347860023379326">
        <ele>485.12</ele>
        <time>2025-04-29T15:00:23Z</time>
      </trkpt>
      <trkpt lat="43.418627986684442" lon="-6.348065966740251">
        <ele>484.16000000000003</ele>
        <time>2025-04-29T15:00:24Z</time>
      </trkpt>
      <trkpt lat="43.418671991676092" lon="-6.348279034718871">
        <ele>483.19999999999999</ele>
        <time>2025-04-29T15:00:25Z</time>
      </trkpt>
      <trkpt lat="43.418720019981265" lon="-6.348510039970279">
        <ele>482.72000000000003</ele>
        <time>2025-04-29T15:00:26Z</time>
      </trkpt>
      <trkpt lat="43.418766036629677" lon="-6.348719000816345">
        <ele>481.75999999999999</ele>
        <time>2025-04-29T15:00:27Z</time>
      </trkpt>
      <trkpt lat="43.418827978894114" lon="-6.349002979695797">
        <ele>480.80000000000001</ele>
        <time>2025-04-29T15:00:28Z</time>
      </trkpt>
      <trkpt lat="43.419084968045354" lon="-6.349882995709777">
        <ele>477.91000000000003</ele>
        <time>2025-04-29T15:00:33Z</time>
      </trkpt>
      <trkpt lat="43.419215977191925" lon="-6.350050969049335">
        <ele>476.94999999999999</ele>
        <time>2025-04-29T15:00:34Z</time>
      </trkpt>
      <trkpt lat="43.419339023530483" lon="-6.350157000124455">
        <ele>475.99000000000001</ele>
        <time>2025-04-29T15:00:35Z</time>
      </trkpt>
      <trkpt lat="43.41946299187839" lon="-6.350264959037304">
        <ele>475.50999999999999</ele>
        <time>2025-04-29T15:00:36Z</time>
      </trkpt>
      <trkpt lat="43.419589977711439" lon="-6.350310975685716">
        <ele>475.02999999999997</ele>
        <time>2025-04-29T15:00:37Z</time>
      </trkpt>
      <trkpt lat="43.419730961322784" lon="-6.35034098289907">
        <ele>474.55000000000001</ele>
        <time>2025-04-29T15:00:38Z</time>
      </trkpt>
      <trkpt lat="43.419875968247652" lon="-6.350370990112424">
        <ele>474.06999999999999</ele>
        <time>2025-04-29T15:00:39Z</time>
      </trkpt>
      <trkpt lat="43.420012006536126" lon="-6.35036101564765">
        <ele>473.58999999999997</ele>
        <time>2025-04-29T15:00:40Z</time>
      </trkpt>
      <trkpt lat="43.420176040381193" lon="-6.350336959585547">
        <ele>472.63</ele>
        <time>2025-04-29T15:00:41Z</time>
      </trkpt>
      <trkpt lat="43.420350970700383" lon="-6.350311981514096">
        <ele>472.13999999999999</ele>
        <time>2025-04-29T15:00:42Z</time>
      </trkpt>
      <trkpt lat="43.421196034178138" lon="-6.350109977647662">
        <ele>464.93000000000001</ele>
        <time>2025-04-29T15:00:47Z</time>
      </trkpt>
      <trkpt lat="43.421326037496328" lon="-6.35001802816987">
        <ele>463.97000000000003</ele>
        <time>2025-04-29T15:00:48Z</time>
      </trkpt>
      <trkpt lat="43.421447994187474" lon="-6.349880984053016">
        <ele>463.49000000000001</ele>
        <time>2025-04-29T15:00:49Z</time>
      </trkpt>
      <trkpt lat="43.42156701721251" lon="-6.349746035411954">
        <ele>462.52999999999997</ele>
        <time>2025-04-29T15:00:50Z</time>
      </trkpt>
      <trkpt lat="43.421616973355412" lon="-6.349689960479736">
        <ele>461.56999999999999</ele>
        <time>2025-04-29T15:00:51Z</time>
      </trkpt>
      <trkpt lat="43.421698026359081" lon="-6.349470019340515">
        <ele>460.61000000000001</ele>
        <time>2025-04-29T15:00:52Z</time>
      </trkpt>
      <trkpt lat="43.421767009422183" lon="-6.349280001595616">
        <ele>459.64999999999998</ele>
        <time>2025-04-29T15:00:53Z</time>
      </trkpt>
      <trkpt lat="43.421939006075263" lon="-6.348752025514841">
        <ele>456.75999999999999</ele>
        <time>2025-04-29T15:00:56Z</time>
      </trkpt>
      <trkpt lat="43.421991979703307" lon="-6.348568964749575">
        <ele>455.80000000000001</ele>
        <time>2025-04-29T15:00:57Z</time>
      </trkpt>
      <trkpt lat="43.422074038535357" lon="-6.348124975338578">
        <ele>452.44</ele>
        <time>2025-04-29T15:01:00Z</time>
      </trkpt>
      <trkpt lat="43.42212600633502" lon="-6.347916014492512">
        <ele>451</ele>
        <time>2025-04-29T15:01:01Z</time>
      </trkpt>
      <trkpt lat="43.422304037958384" lon="-6.347693977877498">
        <ele>449.06999999999999</ele>
        <time>2025-04-29T15:01:02Z</time>
      </trkpt>
      <trkpt lat="43.422506963834167" lon="-6.347679980099201">
        <ele>447.14999999999998</ele>
        <time>2025-04-29T15:01:03Z</time>
      </trkpt>
      <trkpt lat="43.422584999352694" lon="-6.347674028947949">
        <ele>445.23000000000002</ele>
        <time>2025-04-29T15:01:04Z</time>
      </trkpt>
      <trkpt lat="43.422667980194092" lon="-6.347667993977666">
        <ele>443.79000000000002</ele>
        <time>2025-04-29T15:01:05Z</time>
      </trkpt>
      <trkpt lat="43.422768982127309" lon="-6.347660031169653">
        <ele>442.81999999999999</ele>
        <time>2025-04-29T15:01:06Z</time>
      </trkpt>
      <trkpt lat="43.422875013202429" lon="-6.347651984542608">
        <ele>441.86000000000001</ele>
        <time>2025-04-29T15:01:07Z</time>
      </trkpt>
      <trkpt lat="43.422931004315615" lon="-6.347623988986015">
        <ele>440.89999999999998</ele>
        <time>2025-04-29T15:01:08Z</time>
      </trkpt>
      <trkpt lat="43.423042986541986" lon="-6.347560035064817">
        <ele>439.94</ele>
        <time>2025-04-29T15:01:09Z</time>
      </trkpt>
      <trkpt lat="43.423182964324951" lon="-6.347479987889528">
        <ele>439.45999999999998</ele>
        <time>2025-04-29T15:01:10Z</time>
      </trkpt>
      <trkpt lat="43.423299975693226" lon="-6.347416033968329">
        <ele>438.01999999999998</ele>
        <time>2025-04-29T15:01:11Z</time>
      </trkpt>
      <trkpt lat="43.423428973183036" lon="-6.347345039248467">
        <ele>436.10000000000002</ele>
        <time>2025-04-29T15:01:12Z</time>
      </trkpt>
      <trkpt lat="43.423613039776683" lon="-6.347244037315249">
        <ele>431.76999999999998</ele>
        <time>2025-04-29T15:01:14Z</time>
      </trkpt>
      <trkpt lat="43.423741031438112" lon="-6.347287036478519">
        <ele>429.85000000000002</ele>
        <time>2025-04-29T15:01:15Z</time>
      </trkpt>
      <trkpt lat="43.423741031438112" lon="-6.347287036478519">
        <ele>427.92000000000002</ele>
        <time>2025-04-29T15:01:16Z</time>
      </trkpt>
      <trkpt lat="43.423933982849121" lon="-6.347416033968329">
        <ele>426.48000000000002</ele>
        <time>2025-04-29T15:01:17Z</time>
      </trkpt>
      <trkpt lat="43.424019981175661" lon="-6.347544025629759">
        <ele>424.56</ele>
        <time>2025-04-29T15:01:18Z</time>
      </trkpt>
      <trkpt lat="43.423774978145957" lon="-6.347577972337604">
        <ele>423.60000000000002</ele>
        <time>2025-04-29T15:01:19Z</time>
      </trkpt>
      <trkpt lat="43.423742037266493" lon="-6.347707975655794">
        <ele>422.63999999999999</ele>
        <time>2025-04-29T15:01:20Z</time>
      </trkpt>
      <trkpt lat="43.423703983426094" lon="-6.347854994237423">
        <ele>421.68000000000001</ele>
        <time>2025-04-29T15:01:21Z</time>
      </trkpt>
      <trkpt lat="43.423664001747966" lon="-6.348008969798684">
        <ele>421.19</ele>
        <time>2025-04-29T15:01:22Z</time>
      </trkpt>
      <trkpt lat="43.423633994534612" lon="-6.348123969510198">
        <ele>420.23000000000002</ele>
        <time>2025-04-29T15:01:23Z</time>
      </trkpt>
      <trkpt lat="43.423633994534612" lon="-6.348364027217031">
        <ele>419.26999999999998</ele>
        <time>2025-04-29T15:01:24Z</time>
      </trkpt>
      <trkpt lat="43.423633994534612" lon="-6.348553039133549">
        <ele>418.31</ele>
        <time>2025-04-29T15:01:25Z</time>
      </trkpt>
      <trkpt lat="43.423656038939953" lon="-6.348743978887796">
        <ele>417.35000000000002</ele>
        <time>2025-04-29T15:01:26Z</time>
      </trkpt>
      <trkpt lat="43.42369400896132" lon="-6.348925027996302">
        <ele>416.38999999999999</ele>
        <time>2025-04-29T15:01:27Z</time>
      </trkpt>
      <trkpt lat="43.423728961497545" lon="-6.349093001335859">
        <ele>415.43000000000001</ele>
        <time>2025-04-29T15:01:28Z</time>
      </trkpt>
      <trkpt lat="43.423791993409395" lon="-6.349393995478749">
        <ele>413.98000000000002</ele>
        <time>2025-04-29T15:01:30Z</time>
      </trkpt>
      <trkpt lat="43.423827029764652" lon="-6.349560962989926">
        <ele>413.5</ele>
        <time>2025-04-29T15:01:31Z</time>
      </trkpt>
      <trkpt lat="43.423833986744285" lon="-6.349693983793259">
        <ele>413.5</ele>
        <time>2025-04-29T15:01:32Z</time>
      </trkpt>
      <trkpt lat="43.42384303919971" lon="-6.34984603151679">
        <ele>413.01999999999998</ele>
        <time>2025-04-29T15:01:33Z</time>
      </trkpt>
      <trkpt lat="43.423852007836103" lon="-6.350001012906432">
        <ele>412.54000000000002</ele>
        <time>2025-04-29T15:01:34Z</time>
      </trkpt>
      <trkpt lat="43.423861982300878" lon="-6.350148031488061">
        <ele>412.54000000000002</ele>
        <time>2025-04-29T15:01:35Z</time>
      </trkpt>
      <trkpt lat="43.423872962594032" lon="-6.350295972079039">
        <ele>412.06</ele>
        <time>2025-04-29T15:01:36Z</time>
      </trkpt>
      <trkpt lat="43.423883020877838" lon="-6.35044701397419">
        <ele>411.10000000000002</ele>
        <time>2025-04-29T15:01:37Z</time>
      </trkpt>
      <trkpt lat="43.423946974799037" lon="-6.350725963711739">
        <ele>410.13999999999999</ele>
        <time>2025-04-29T15:01:39Z</time>
      </trkpt>
      <trkpt lat="43.424019981175661" lon="-6.350935008376837">
        <ele>409.18000000000001</ele>
        <time>2025-04-29T15:01:40Z</time>
      </trkpt>
      <trkpt lat="43.424087036401033" lon="-6.350970966741443">
        <ele>408.69999999999999</ele>
        <time>2025-04-29T15:01:41Z</time>
      </trkpt>
      <trkpt lat="43.424214022234082" lon="-6.351041961461306">
        <ele>408.22000000000003</ele>
        <time>2025-04-29T15:01:42Z</time>
      </trkpt>
      <trkpt lat="43.424327010288835" lon="-6.351041961461306">
        <ele>407.74000000000001</ele>
        <time>2025-04-29T15:01:43Z</time>
      </trkpt>
      <trkpt lat="43.424556003883481" lon="-6.351063000038266">
        <ele>407.25999999999999</ele>
        <time>2025-04-29T15:01:45Z</time>
      </trkpt>
      <trkpt lat="43.424728000536561" lon="-6.351105999201536">
        <ele>406.76999999999998</ele>
        <time>2025-04-29T15:01:46Z</time>
      </trkpt>
      <trkpt lat="43.424778040498495" lon="-6.351137012243271">
        <ele>406.76999999999998</ele>
        <time>2025-04-29T15:01:47Z</time>
      </trkpt>
      <trkpt lat="43.424899997189641" lon="-6.351213958114386">
        <ele>406.29000000000002</ele>
        <time>2025-04-29T15:01:48Z</time>
      </trkpt>
      <trkpt lat="43.424965962767601" lon="-6.35133096948266">
        <ele>405.81</ele>
        <time>2025-04-29T15:01:49Z</time>
      </trkpt>
      <trkpt lat="43.425043998286128" lon="-6.351469019427896">
        <ele>404.85000000000002</ele>
        <time>2025-04-29T15:01:50Z</time>
      </trkpt>
      <trkpt lat="43.42511398717761" lon="-6.351619977504015">
        <ele>404.37</ele>
        <time>2025-04-29T15:01:51Z</time>
      </trkpt>
      <trkpt lat="43.425167966634035" lon="-6.35177998803556">
        <ele>403.88999999999999</ele>
        <time>2025-04-29T15:01:52Z</time>
      </trkpt>
      <trkpt lat="43.425195962190628" lon="-6.351976040750742">
        <ele>403.41000000000003</ele>
        <time>2025-04-29T15:01:53Z</time>
      </trkpt>
      <trkpt lat="43.425187999382615" lon="-6.352149965241551">
        <ele>402.44999999999999</ele>
        <time>2025-04-29T15:01:54Z</time>
      </trkpt>
      <trkpt lat="43.425179030746222" lon="-6.352325985208154">
        <ele>401.49000000000001</ele>
        <time>2025-04-29T15:01:55Z</time>
      </trkpt>
      <trkpt lat="43.425104012712836" lon="-6.353515964001417">
        <ele>396.68000000000001</ele>
        <time>2025-04-29T15:02:02Z</time>
      </trkpt>
      <trkpt lat="43.425094960257411" lon="-6.353668011724949">
        <ele>395.72000000000003</ele>
        <time>2025-04-29T15:02:03Z</time>
      </trkpt>
      <trkpt lat="43.425120022147894" lon="-6.353812012821436">
        <ele>395.24000000000001</ele>
        <time>2025-04-29T15:02:04Z</time>
      </trkpt>
      <trkpt lat="43.425157992169261" lon="-6.354023991152644">
        <ele>394.75999999999999</ele>
        <time>2025-04-29T15:02:05Z</time>
      </trkpt>
      <trkpt lat="43.425209037959576" lon="-6.354117030277848">
        <ele>394.27999999999997</ele>
        <time>2025-04-29T15:02:06Z</time>
      </trkpt>
      <trkpt lat="43.42530601657927" lon="-6.354262037202716">
        <ele>394.27999999999997</ele>
        <time>2025-04-29T15:02:07Z</time>
      </trkpt>
      <trkpt lat="43.425913034006953" lon="-6.354951029643416">
        <ele>391.38999999999999</ele>
        <time>2025-04-29T15:02:13Z</time>
      </trkpt>
      <trkpt lat="43.42657595872879" lon="-6.356177972629666">
        <ele>385.14999999999998</ele>
        <time>2025-04-29T15:02:22Z</time>
      </trkpt>
      <trkpt lat="43.426662962883711" lon="-6.356284003704786">
        <ele>384.66000000000003</ele>
        <time>2025-04-29T15:02:23Z</time>
      </trkpt>
      <trkpt lat="43.426761031150818" lon="-6.356389028951526">
        <ele>383.69999999999999</ele>
        <time>2025-04-29T15:02:24Z</time>
      </trkpt>
      <trkpt lat="43.426869995892048" lon="-6.356394980102778">
        <ele>383.22000000000003</ele>
        <time>2025-04-29T15:02:25Z</time>
      </trkpt>
      <trkpt lat="43.426966974511743" lon="-6.356367990374565">
        <ele>382.74000000000001</ele>
        <time>2025-04-29T15:02:26Z</time>
      </trkpt>
      <trkpt lat="43.427070993930101" lon="-6.356337983161211">
        <ele>381.77999999999997</ele>
        <time>2025-04-29T15:02:27Z</time>
      </trkpt>
      <trkpt lat="43.427191022783518" lon="-6.356282997876406">
        <ele>380.81999999999999</ele>
        <time>2025-04-29T15:02:28Z</time>
      </trkpt>
      <trkpt lat="43.427608022466302" lon="-6.355882007628679">
        <ele>376.97000000000003</ele>
        <time>2025-04-29T15:02:32Z</time>
      </trkpt>
      <trkpt lat="43.427682034671307" lon="-6.355735994875431">
        <ele>376.00999999999999</ele>
        <time>2025-04-29T15:02:33Z</time>
      </trkpt>
      <trkpt lat="43.427750011906028" lon="-6.355567015707493">
        <ele>375.52999999999997</ele>
        <time>2025-04-29T15:02:34Z</time>
      </trkpt>
      <trkpt lat="43.428266001865268" lon="-6.353767002001405">
        <ele>373.13</ele>
        <time>2025-04-29T15:02:43Z</time>
      </trkpt>
      <trkpt lat="43.428332973271608" lon="-6.353530967608094">
        <ele>373.61000000000001</ele>
        <time>2025-04-29T15:02:44Z</time>
      </trkpt>
      <trkpt lat="43.428436992689967" lon="-6.35319996625185">
        <ele>373.13</ele>
        <time>2025-04-29T15:02:46Z</time>
      </trkpt>
      <trkpt lat="43.428503964096308" lon="-6.353051019832492">
        <ele>373.13</ele>
        <time>2025-04-29T15:02:47Z</time>
      </trkpt>
      <trkpt lat="43.428562972694635" lon="-6.352922022342682">
        <ele>372.64999999999998</ele>
        <time>2025-04-29T15:02:48Z</time>
      </trkpt>
      <trkpt lat="43.428654000163078" lon="-6.352890003472567">
        <ele>372.64999999999998</ele>
        <time>2025-04-29T15:02:49Z</time>
      </trkpt>
      <trkpt lat="43.428748967126012" lon="-6.352868964895606">
        <ele>372.17000000000002</ele>
        <time>2025-04-29T15:02:50Z</time>
      </trkpt>
      <trkpt lat="43.428814010694623" lon="-6.352916993200779">
        <ele>372.17000000000002</ele>
        <time>2025-04-29T15:02:51Z</time>
      </trkpt>
      <trkpt lat="43.428897997364402" lon="-6.353000979870558">
        <ele>372.17000000000002</ele>
        <time>2025-04-29T15:02:52Z</time>
      </trkpt>
      <trkpt lat="43.428947031497955" lon="-6.353135006502271">
        <ele>371.69</ele>
        <time>2025-04-29T15:02:53Z</time>
      </trkpt>
      <trkpt lat="43.428966980427504" lon="-6.353291999548674">
        <ele>371.69</ele>
        <time>2025-04-29T15:02:54Z</time>
      </trkpt>
      <trkpt lat="43.428988019004464" lon="-6.353456033393741">
        <ele>371.69</ele>
        <time>2025-04-29T15:02:55Z</time>
      </trkpt>
      <trkpt lat="43.429010985419154" lon="-6.353641021996737">
        <ele>371.20999999999998</ele>
        <time>2025-04-29T15:02:56Z</time>
      </trkpt>
      <trkpt lat="43.429325977340341" lon="-6.355225034058094">
        <ele>370.24000000000001</ele>
        <time>2025-04-29T15:03:03Z</time>
      </trkpt>
      <trkpt lat="43.42958003282547" lon="-6.356362039223313">
        <ele>368.31999999999999</ele>
        <time>2025-04-29T15:03:08Z</time>
      </trkpt>
      <trkpt lat="43.42971196398139" lon="-6.357326963916421">
        <ele>364.48000000000002</ele>
        <time>2025-04-29T15:03:13Z</time>
      </trkpt>
      <trkpt lat="43.42975496314466" lon="-6.357463002204895">
        <ele>363.51999999999998</ele>
        <time>2025-04-29T15:03:14Z</time>
      </trkpt>
      <trkpt lat="43.429813971742988" lon="-6.357522010803223">
        <ele>362.55000000000001</ele>
        <time>2025-04-29T15:03:15Z</time>
      </trkpt>
      <trkpt lat="43.429908016696572" lon="-6.35753802023828">
        <ele>361.58999999999997</ele>
        <time>2025-04-29T15:03:16Z</time>
      </trkpt>
      <trkpt lat="43.430000972002745" lon="-6.357513964176178">
        <ele>361.11000000000001</ele>
        <time>2025-04-29T15:03:17Z</time>
      </trkpt>
      <trkpt lat="43.430070960894227" lon="-6.357479011639953">
        <ele>360.63</ele>
        <time>2025-04-29T15:03:18Z</time>
      </trkpt>
      <trkpt lat="43.430200964212418" lon="-6.357335010543466">
        <ele>360.14999999999998</ele>
        <time>2025-04-29T15:03:19Z</time>
      </trkpt>
      <trkpt lat="43.430297020822763" lon="-6.357226967811585">
        <ele>358.70999999999998</ele>
        <time>2025-04-29T15:03:20Z</time>
      </trkpt>
      <trkpt lat="43.430391987785697" lon="-6.357121020555496">
        <ele>357.75</ele>
        <time>2025-04-29T15:03:21Z</time>
      </trkpt>
      <trkpt lat="43.430508999153972" lon="-6.357061006128788">
        <ele>357.26999999999998</ele>
        <time>2025-04-29T15:03:22Z</time>
      </trkpt>
      <trkpt lat="43.430586028844118" lon="-6.357050025835633">
        <ele>356.31</ele>
        <time>2025-04-29T15:03:23Z</time>
      </trkpt>
      <trkpt lat="43.430662974715233" lon="-6.35711096227169">
        <ele>355.33999999999997</ele>
        <time>2025-04-29T15:03:24Z</time>
      </trkpt>
      <trkpt lat="43.430715026333928" lon="-6.357200983911753">
        <ele>354.38</ele>
        <time>2025-04-29T15:03:25Z</time>
      </trkpt>
      <trkpt lat="43.430760959163308" lon="-6.357337022200227">
        <ele>353.89999999999998</ele>
        <time>2025-04-29T15:03:26Z</time>
      </trkpt>
      <trkpt lat="43.430788032710552" lon="-6.357480017468333">
        <ele>353.89999999999998</ele>
        <time>2025-04-29T15:03:27Z</time>
      </trkpt>
      <trkpt lat="43.430821979418397" lon="-6.357821999117732">
        <ele>353.89999999999998</ele>
        <time>2025-04-29T15:03:28Z</time>
      </trkpt>
      <trkpt lat="43.43082801438868" lon="-6.357888970524073">
        <ele>354.38</ele>
        <time>2025-04-29T15:03:29Z</time>
      </trkpt>
      <trkpt lat="43.43084704130888" lon="-6.35809600353241">
        <ele>355.33999999999997</ele>
        <time>2025-04-29T15:03:30Z</time>
      </trkpt>
      <trkpt lat="43.430919041857123" lon="-6.358620040118694">
        <ele>356.31</ele>
        <time>2025-04-29T15:03:33Z</time>
      </trkpt>
      <trkpt lat="43.430973021313548" lon="-6.358766974881291">
        <ele>356.31</ele>
        <time>2025-04-29T15:03:34Z</time>
      </trkpt>
      <trkpt lat="43.430987019091845" lon="-6.358774015679956">
        <ele>356.31</ele>
        <time>2025-04-29T15:03:35Z</time>
      </trkpt>
      <trkpt lat="43.431077040731907" lon="-6.358819026499987">
        <ele>356.79000000000002</ele>
        <time>2025-04-29T15:03:36Z</time>
      </trkpt>
      <trkpt lat="43.431187011301517" lon="-6.358874011784792">
        <ele>356.79000000000002</ele>
        <time>2025-04-29T15:03:37Z</time>
      </trkpt>
      <trkpt lat="43.431245014071465" lon="-6.358872000128031">
        <ele>357.26999999999998</ele>
        <time>2025-04-29T15:03:38Z</time>
      </trkpt>
      <trkpt lat="43.431369988247752" lon="-6.358866970986128">
        <ele>357.26999999999998</ele>
        <time>2025-04-29T15:03:39Z</time>
      </trkpt>
      <trkpt lat="43.431631000712514" lon="-6.358855990692973">
        <ele>356.31</ele>
        <time>2025-04-29T15:03:41Z</time>
      </trkpt>
      <trkpt lat="43.431777013465762" lon="-6.358879040926695">
        <ele>355.82999999999998</ele>
        <time>2025-04-29T15:03:42Z</time>
      </trkpt>
      <trkpt lat="43.431920008733869" lon="-6.358982976526022">
        <ele>355.33999999999997</ele>
        <time>2025-04-29T15:03:43Z</time>
      </trkpt>
      <trkpt lat="43.432007012888789" lon="-6.35914801619947">
        <ele>354.86000000000001</ele>
        <time>2025-04-29T15:03:44Z</time>
      </trkpt>
      <trkpt lat="43.432044982910156" lon="-6.35929998010397">
        <ele>354.86000000000001</ele>
        <time>2025-04-29T15:03:45Z</time>
      </trkpt>
      <trkpt lat="43.432085970416665" lon="-6.359464013949037">
        <ele>353.89999999999998</ele>
        <time>2025-04-29T15:03:46Z</time>
      </trkpt>
      <trkpt lat="43.432129975408316" lon="-6.359639028087258">
        <ele>353.42000000000002</ele>
        <time>2025-04-29T15:03:47Z</time>
      </trkpt>
      <trkpt lat="43.432239023968577" lon="-6.359989978373051">
        <ele>352.45999999999998</ele>
        <time>2025-04-29T15:03:49Z</time>
      </trkpt>
      <trkpt lat="43.432324016466737" lon="-6.36015996336937">
        <ele>351.98000000000002</ele>
        <time>2025-04-29T15:03:50Z</time>
      </trkpt>
      <trkpt lat="43.432431975379586" lon="-6.3603759650141">
        <ele>351.01999999999998</ele>
        <time>2025-04-29T15:03:51Z</time>
      </trkpt>
      <trkpt lat="43.432531971484423" lon="-6.360513009130955">
        <ele>350.54000000000002</ele>
        <time>2025-04-29T15:03:52Z</time>
      </trkpt>
      <trkpt lat="43.432668009772897" lon="-6.360697997733951">
        <ele>349.57999999999998</ele>
        <time>2025-04-29T15:03:53Z</time>
      </trkpt>
      <trkpt lat="43.433464039117098" lon="-6.361764008179307">
        <ele>341.88999999999999</ele>
        <time>2025-04-29T15:03:59Z</time>
      </trkpt>
      <trkpt lat="43.433560011908412" lon="-6.361971963196993">
        <ele>339.95999999999998</ele>
        <time>2025-04-29T15:04:00Z</time>
      </trkpt>
      <trkpt lat="43.433653973042965" lon="-6.362161980941892">
        <ele>338.51999999999998</ele>
        <time>2025-04-29T15:04:01Z</time>
      </trkpt>
      <trkpt lat="43.433740977197886" lon="-6.362306987866759">
        <ele>337.56</ele>
        <time>2025-04-29T15:04:02Z</time>
      </trkpt>
      <trkpt lat="43.433898976072669" lon="-6.36243699118495">
        <ele>336.60000000000002</ele>
        <time>2025-04-29T15:04:03Z</time>
      </trkpt>
      <trkpt lat="43.434035014361143" lon="-6.362547967582941">
        <ele>336.12</ele>
        <time>2025-04-29T15:04:04Z</time>
      </trkpt>
      <trkpt lat="43.434625016525388" lon="-6.36301601305604">
        <ele>334.19999999999999</ele>
        <time>2025-04-29T15:04:08Z</time>
      </trkpt>
      <trkpt lat="43.434771029278636" lon="-6.363122966140509">
        <ele>333.70999999999998</ele>
        <time>2025-04-29T15:04:09Z</time>
      </trkpt>
      <trkpt lat="43.434898015111685" lon="-6.363226985558868">
        <ele>333.23000000000002</ele>
        <time>2025-04-29T15:04:10Z</time>
      </trkpt>
      <trkpt lat="43.435272015631199" lon="-6.363503001630306">
        <ele>333.23000000000002</ele>
        <time>2025-04-29T15:04:13Z</time>
      </trkpt>
      <trkpt lat="43.435402018949389" lon="-6.363594029098749">
        <ele>332.75</ele>
        <time>2025-04-29T15:04:14Z</time>
      </trkpt>
      <trkpt lat="43.435530010610819" lon="-6.36368396691978">
        <ele>332.75</ele>
        <time>2025-04-29T15:04:15Z</time>
      </trkpt>
      <trkpt lat="43.435631012544036" lon="-6.363735012710095">
        <ele>332.75</ele>
        <time>2025-04-29T15:04:16Z</time>
      </trkpt>
      <trkpt lat="43.435757998377085" lon="-6.363766025751829">
        <ele>332.75</ele>
        <time>2025-04-29T15:04:17Z</time>
      </trkpt>
      <trkpt lat="43.435910968109965" lon="-6.363729983568192">
        <ele>332.26999999999998</ele>
        <time>2025-04-29T15:04:18Z</time>
      </trkpt>
      <trkpt lat="43.436122024431825" lon="-6.363680027425289">
        <ele>331.79000000000002</ele>
        <time>2025-04-29T15:04:19Z</time>
      </trkpt>
      <trkpt lat="43.436245992779732" lon="-6.363650020211935">
        <ele>330.82999999999998</ele>
        <time>2025-04-29T15:04:20Z</time>
      </trkpt>
      <trkpt lat="43.436723006889224" lon="-6.363529991358519">
        <ele>327.94999999999999</ele>
        <time>2025-04-29T15:04:22Z</time>
      </trkpt>
      <trkpt lat="43.436820991337299" lon="-6.363550024107099">
        <ele>326.5</ele>
        <time>2025-04-29T15:04:23Z</time>
      </trkpt>
      <trkpt lat="43.437010003253818" lon="-6.363587994128466">
        <ele>325.54000000000002</ele>
        <time>2025-04-29T15:04:24Z</time>
      </trkpt>
      <trkpt lat="43.437565974891186" lon="-6.363670974969864">
        <ele>322.18000000000001</ele>
        <time>2025-04-29T15:04:27Z</time>
      </trkpt>
      <trkpt lat="43.437720034271479" lon="-6.363680027425289">
        <ele>322.18000000000001</ele>
        <time>2025-04-29T15:04:28Z</time>
      </trkpt>
      <trkpt lat="43.437865041196346" lon="-6.363585982471705">
        <ele>322.18000000000001</ele>
        <time>2025-04-29T15:04:29Z</time>
      </trkpt>
      <trkpt lat="43.43800300732255" lon="-6.363487998023629">
        <ele>321.69999999999999</ele>
        <time>2025-04-29T15:04:30Z</time>
      </trkpt>
      <trkpt lat="43.438162012025714" lon="-6.363376015797257">
        <ele>321.22000000000003</ele>
        <time>2025-04-29T15:04:31Z</time>
      </trkpt>
      <trkpt lat="43.43832696788013" lon="-6.363251963630319">
        <ele>319.77999999999997</ele>
        <time>2025-04-29T15:04:32Z</time>
      </trkpt>
      <trkpt lat="43.438500976189971" lon="-6.363147022202611">
        <ele>318.81</ele>
        <time>2025-04-29T15:04:33Z</time>
      </trkpt>
      <trkpt lat="43.43866903334856" lon="-6.363052977249026">
        <ele>317.37</ele>
        <time>2025-04-29T15:04:34Z</time>
      </trkpt>
      <trkpt lat="43.439011014997959" lon="-6.362860025838018">
        <ele>314.49000000000001</ele>
        <time>2025-04-29T15:04:36Z</time>
      </trkpt>
      <trkpt lat="43.439173037186265" lon="-6.362837981432676">
        <ele>313.05000000000001</ele>
        <time>2025-04-29T15:04:37Z</time>
      </trkpt>
      <trkpt lat="43.439347967505455" lon="-6.362830018624663">
        <ele>311.12</ele>
        <time>2025-04-29T15:04:38Z</time>
      </trkpt>
      <trkpt lat="43.439513007178903" lon="-6.362821971997619">
        <ele>309.68000000000001</ele>
        <time>2025-04-29T15:04:39Z</time>
      </trkpt>
      <trkpt lat="43.439665976911783" lon="-6.362893972545862">
        <ele>307.75999999999999</ele>
        <time>2025-04-29T15:04:40Z</time>
      </trkpt>
      <trkpt lat="43.439827999100089" lon="-6.362971002236009">
        <ele>305.83999999999997</ele>
        <time>2025-04-29T15:04:41Z</time>
      </trkpt>
      <trkpt lat="43.439987003803253" lon="-6.363046020269394">
        <ele>304.88</ele>
        <time>2025-04-29T15:04:42Z</time>
      </trkpt>
      <trkpt lat="43.440140979364514" lon="-6.363119026646018">
        <ele>303.91000000000003</ele>
        <time>2025-04-29T15:04:43Z</time>
      </trkpt>
      <trkpt lat="43.440294032916427" lon="-6.363191027194262">
        <ele>302.47000000000003</ele>
        <time>2025-04-29T15:04:44Z</time>
      </trkpt>
      <trkpt lat="43.44045102596283" lon="-6.363265961408615">
        <ele>301.50999999999999</ele>
        <time>2025-04-29T15:04:45Z</time>
      </trkpt>
      <trkpt lat="43.440612964332104" lon="-6.363341985270381">
        <ele>300.55000000000001</ele>
        <time>2025-04-29T15:04:46Z</time>
      </trkpt>
      <trkpt lat="43.440780015662313" lon="-6.36340300552547">
        <ele>299.58999999999997</ele>
        <time>2025-04-29T15:04:47Z</time>
      </trkpt>
      <trkpt lat="43.440943965688348" lon="-6.363444998860359">
        <ele>298.14999999999998</ele>
        <time>2025-04-29T15:04:48Z</time>
      </trkpt>
      <trkpt lat="43.441236997023225" lon="-6.363504007458687">
        <ele>295.74000000000001</ele>
        <time>2025-04-29T15:04:50Z</time>
      </trkpt>
      <trkpt lat="43.441357025876641" lon="-6.363493027165532">
        <ele>294.77999999999997</ele>
        <time>2025-04-29T15:04:51Z</time>
      </trkpt>
      <trkpt lat="43.441421985626221" lon="-6.363486992195249">
        <ele>293.33999999999997</ele>
        <time>2025-04-29T15:04:52Z</time>
      </trkpt>
      <trkpt lat="43.441546959802508" lon="-6.363322036340833">
        <ele>289.97000000000003</ele>
        <time>2025-04-29T15:04:53Z</time>
      </trkpt>
      <trkpt lat="43.441550983116031" lon="-6.363316001370549">
        <ele>287.08999999999997</ele>
        <time>2025-04-29T15:04:54Z</time>
      </trkpt>
      <trkpt lat="43.441550983116031" lon="-6.363129001110792">
        <ele>286.13</ele>
        <time>2025-04-29T15:04:55Z</time>
      </trkpt>
      <trkpt lat="43.441550983116031" lon="-6.363122966140509">
        <ele>284.69</ele>
        <time>2025-04-29T15:04:56Z</time>
      </trkpt>
      <trkpt lat="43.441503960639238" lon="-6.36299698613584">
        <ele>283.25</ele>
        <time>2025-04-29T15:04:57Z</time>
      </trkpt>
      <trkpt lat="43.44146397896111" lon="-6.362922973930836">
        <ele>282.27999999999997</ele>
        <time>2025-04-29T15:04:58Z</time>
      </trkpt>
      <trkpt lat="43.441372029483318" lon="-6.362810991704464">
        <ele>280.83999999999997</ele>
        <time>2025-04-29T15:04:59Z</time>
      </trkpt>
      <trkpt lat="43.441271027550101" lon="-6.362684005871415">
        <ele>279.88</ele>
        <time>2025-04-29T15:05:00Z</time>
      </trkpt>
      <trkpt lat="43.441170025616884" lon="-6.362548973411322">
        <ele>277.95999999999998</ele>
        <time>2025-04-29T15:05:01Z</time>
      </trkpt>
      <trkpt lat="43.441062988713384" lon="-6.362369013950229">
        <ele>276.51999999999998</ele>
        <time>2025-04-29T15:05:02Z</time>
      </trkpt>
      <trkpt lat="43.440988976508379" lon="-6.362197017297149">
        <ele>275.06999999999999</ele>
        <time>2025-04-29T15:05:03Z</time>
      </trkpt>
      <trkpt lat="43.440957041457295" lon="-6.361967017874122">
        <ele>273.14999999999998</ele>
        <time>2025-04-29T15:05:04Z</time>
      </trkpt>
      <trkpt lat="43.440913036465645" lon="-6.361385984346271">
        <ele>268.35000000000002</ele>
        <time>2025-04-29T15:05:07Z</time>
      </trkpt>
      <trkpt lat="43.44088202342391" lon="-6.361224967986345">
        <ele>267.38</ele>
        <time>2025-04-29T15:05:08Z</time>
      </trkpt>
      <trkpt lat="43.440836006775498" lon="-6.361050037667155">
        <ele>265.94</ele>
        <time>2025-04-29T15:05:09Z</time>
      </trkpt>
      <trkpt lat="43.440780015662313" lon="-6.360913999378681">
        <ele>264.98000000000002</ele>
        <time>2025-04-29T15:05:10Z</time>
      </trkpt>
      <trkpt lat="43.440704997628927" lon="-6.360764969140291">
        <ele>263.54000000000002</ele>
        <time>2025-04-29T15:05:11Z</time>
      </trkpt>
      <trkpt lat="43.44062402844429" lon="-6.360667990520597">
        <ele>262.57999999999998</ele>
        <time>2025-04-29T15:05:12Z</time>
      </trkpt>
      <trkpt lat="43.440510034561157" lon="-6.360548967495561">
        <ele>261.62</ele>
        <time>2025-04-29T15:05:13Z</time>
      </trkpt>
      <trkpt lat="43.440393023192883" lon="-6.360426004976034">
        <ele>260.17000000000002</ele>
        <time>2025-04-29T15:05:14Z</time>
      </trkpt>
      <trkpt lat="43.440281040966511" lon="-6.360307987779379">
        <ele>258.73000000000002</ele>
        <time>2025-04-29T15:05:15Z</time>
      </trkpt>
      <trkpt lat="43.44019303098321" lon="-6.360122999176383">
        <ele>257.29000000000002</ele>
        <time>2025-04-29T15:05:16Z</time>
      </trkpt>
      <trkpt lat="43.440132010728121" lon="-6.359976986423135">
        <ele>255.84999999999999</ele>
        <time>2025-04-29T15:05:17Z</time>
      </trkpt>
      <trkpt lat="43.440082976594567" lon="-6.359799038618803">
        <ele>254.41</ele>
        <time>2025-04-29T15:05:18Z</time>
      </trkpt>
      <trkpt lat="43.440061016008258" lon="-6.35960198007524">
        <ele>252.96000000000001</ele>
        <time>2025-04-29T15:05:19Z</time>
      </trkpt>
      <trkpt lat="43.440061016008258" lon="-6.359396036714315">
        <ele>251.52000000000001</ele>
        <time>2025-04-29T15:05:20Z</time>
      </trkpt>
      <trkpt lat="43.440083982422948" lon="-6.359194032847881">
        <ele>250.56</ele>
        <time>2025-04-29T15:05:21Z</time>
      </trkpt>
      <trkpt lat="43.44010703265667" lon="-6.358994040638208">
        <ele>249.59999999999999</ele>
        <time>2025-04-29T15:05:22Z</time>
      </trkpt>
      <trkpt lat="43.440160006284714" lon="-6.358829000964761">
        <ele>248.16</ele>
        <time>2025-04-29T15:05:23Z</time>
      </trkpt>
      <trkpt lat="43.44023703597486" lon="-6.358646024018526">
        <ele>247.19999999999999</ele>
        <time>2025-04-29T15:05:24Z</time>
      </trkpt>
      <trkpt lat="43.4403230343014" lon="-6.358479978516698">
        <ele>245.27000000000001</ele>
        <time>2025-04-29T15:05:25Z</time>
      </trkpt>
      <trkpt lat="43.440434010699391" lon="-6.358332959935069">
        <ele>243.34999999999999</ele>
        <time>2025-04-29T15:05:26Z</time>
      </trkpt>
      <trkpt lat="43.440535012632608" lon="-6.358198011294007">
        <ele>241.91</ele>
        <time>2025-04-29T15:05:27Z</time>
      </trkpt>
      <trkpt lat="43.440607013180852" lon="-6.358101032674313">
        <ele>239.99000000000001</ele>
        <time>2025-04-29T15:05:28Z</time>
      </trkpt>
      <trkpt lat="43.440650012344122" lon="-6.357887964695692">
        <ele>238.53999999999999</ele>
        <time>2025-04-29T15:05:29Z</time>
      </trkpt>
      <trkpt lat="43.440670967102051" lon="-6.357780005782843">
        <ele>237.09999999999999</ele>
        <time>2025-04-29T15:05:30Z</time>
      </trkpt>
      <trkpt lat="43.440631991252303" lon="-6.357648996636272">
        <ele>236.13999999999999</ele>
        <time>2025-04-29T15:05:31Z</time>
      </trkpt>
      <trkpt lat="43.440607013180852" lon="-6.357565009966493">
        <ele>234.69999999999999</ele>
        <time>2025-04-29T15:05:32Z</time>
      </trkpt>
      <trkpt lat="43.440529983490705" lon="-6.357482029125094">
        <ele>233.74000000000001</ele>
        <time>2025-04-29T15:05:33Z</time>
      </trkpt>
      <trkpt lat="43.440439039841294" lon="-6.357383960857987">
        <ele>232.30000000000001</ele>
        <time>2025-04-29T15:05:34Z</time>
      </trkpt>
      <trkpt lat="43.44034600071609" lon="-6.35728295892477">
        <ele>231.33000000000001</ele>
        <time>2025-04-29T15:05:35Z</time>
      </trkpt>
      <trkpt lat="43.440327979624271" lon="-6.357265021651983">
        <ele>229.88999999999999</ele>
        <time>2025-04-29T15:05:36Z</time>
      </trkpt>
      <trkpt lat="43.440135028213263" lon="-6.356964027509093">
        <ele>228.93000000000001</ele>
        <time>2025-04-29T15:05:37Z</time>
      </trkpt>
      <trkpt lat="43.440108960494399" lon="-6.356840981170535">
        <ele>227.49000000000001</ele>
        <time>2025-04-29T15:05:38Z</time>
      </trkpt>
      <trkpt lat="43.440071996301413" lon="-6.356668984517455">
        <ele>226.53</ele>
        <time>2025-04-29T15:05:39Z</time>
      </trkpt>
      <trkpt lat="43.440052969381213" lon="-6.356289032846689">
        <ele>223.63999999999999</ele>
        <time>2025-04-29T15:05:41Z</time>
      </trkpt>
      <trkpt lat="43.440079037100077" lon="-6.356086023151875">
        <ele>222.19999999999999</ele>
        <time>2025-04-29T15:05:42Z</time>
      </trkpt>
      <trkpt lat="43.440203005447984" lon="-6.354504022747278">
        <ele>212.11000000000001</ele>
        <time>2025-04-29T15:05:50Z</time>
      </trkpt>
      <trkpt lat="43.440078031271696" lon="-6.353748980909586">
        <ele>207.30000000000001</ele>
        <time>2025-04-29T15:05:54Z</time>
      </trkpt>
      <trkpt lat="43.440049029886723" lon="-6.353315971791744">
        <ele>202.97999999999999</ele>
        <time>2025-04-29T15:05:57Z</time>
      </trkpt>
      <trkpt lat="43.440049029886723" lon="-6.353315971791744">
        <ele>201.53</ele>
        <time>2025-04-29T15:05:58Z</time>
      </trkpt>
      <trkpt lat="43.440092029049993" lon="-6.353230979293585">
        <ele>200.56999999999999</ele>
        <time>2025-04-29T15:05:59Z</time>
      </trkpt>
      <trkpt lat="43.440092029049993" lon="-6.353230979293585">
        <ele>199.61000000000001</ele>
        <time>2025-04-29T15:06:00Z</time>
      </trkpt>
      <trkpt lat="43.440166963264346" lon="-6.353217987343669">
        <ele>198.65000000000001</ele>
        <time>2025-04-29T15:06:01Z</time>
      </trkpt>
      <trkpt lat="43.440212979912758" lon="-6.353211030364037">
        <ele>197.21000000000001</ele>
        <time>2025-04-29T15:06:02Z</time>
      </trkpt>
      <trkpt lat="43.440221026539803" lon="-6.353209018707275">
        <ele>196.72999999999999</ele>
        <time>2025-04-29T15:06:03Z</time>
      </trkpt>
      <trkpt lat="43.440221026539803" lon="-6.353209018707275">
        <ele>195.77000000000001</ele>
        <time>2025-04-29T15:06:04Z</time>
      </trkpt>
      <trkpt lat="43.440249022096395" lon="-6.353247994557023">
        <ele>194.31999999999999</ele>
        <time>2025-04-29T15:06:05Z</time>
      </trkpt>
      <trkpt lat="43.44028296880424" lon="-6.353296022862196">
        <ele>193.36000000000001</ele>
        <time>2025-04-29T15:06:06Z</time>
      </trkpt>
      <trkpt lat="43.44032596796751" lon="-6.353356037288904">
        <ele>192.40000000000001</ele>
        <time>2025-04-29T15:06:07Z</time>
      </trkpt>
      <trkpt lat="43.440327979624271" lon="-6.353358970955014">
        <ele>191.44</ele>
        <time>2025-04-29T15:06:08Z</time>
      </trkpt>
      <trkpt lat="43.440355975180864" lon="-6.353466007858515">
        <ele>190</ele>
        <time>2025-04-29T15:06:09Z</time>
      </trkpt>
      <trkpt lat="43.440377013757825" lon="-6.353549994528294">
        <ele>188.56</ele>
        <time>2025-04-29T15:06:10Z</time>
      </trkpt>
      <trkpt lat="43.440418001264334" lon="-6.353707993403077">
        <ele>185.66999999999999</ele>
        <time>2025-04-29T15:06:11Z</time>
      </trkpt>
      <trkpt lat="43.440457982942462" lon="-6.353861968964338">
        <ele>183.27000000000001</ele>
        <time>2025-04-29T15:06:12Z</time>
      </trkpt>
      <trkpt lat="43.440564014017582" lon="-6.354635031893849">
        <ele>175.58000000000001</ele>
        <time>2025-04-29T15:06:18Z</time>
      </trkpt>
      <trkpt lat="43.440564014017582" lon="-6.355006014928222">
        <ele>174.13999999999999</ele>
        <time>2025-04-29T15:06:21Z</time>
      </trkpt>
      <trkpt lat="43.440564014017582" lon="-6.355857029557228">
        <ele>169.33000000000001</ele>
        <time>2025-04-29T15:06:27Z</time>
      </trkpt>
      <trkpt lat="43.441201960667968" lon="-6.356050986796618">
        <ele>167.88999999999999</ele>
        <time>2025-04-29T15:06:31Z</time>
      </trkpt>
      <trkpt lat="43.441427014768124" lon="-6.356115024536848">
        <ele>167.88999999999999</ele>
        <time>2025-04-29T15:06:33Z</time>
      </trkpt>
      <trkpt lat="43.441593982279301" lon="-6.356942988932133">
        <ele>170.28999999999999</ele>
        <time>2025-04-29T15:06:38Z</time>
      </trkpt>
      <trkpt lat="43.441616026684642" lon="-6.356995040550828">
        <ele>170.28999999999999</ele>
        <time>2025-04-29T15:06:39Z</time>
      </trkpt>
      <trkpt lat="43.441667994484305" lon="-6.357122026383877">
        <ele>170.28999999999999</ele>
        <time>2025-04-29T15:06:40Z</time>
      </trkpt>
      <trkpt lat="43.441744018346071" lon="-6.357308020815253">
        <ele>169.81</ele>
        <time>2025-04-29T15:06:41Z</time>
      </trkpt>
      <trkpt lat="43.441747035831213" lon="-6.357328975573182">
        <ele>169.33000000000001</ele>
        <time>2025-04-29T15:06:42Z</time>
      </trkpt>
      <trkpt lat="43.441767990589142" lon="-6.357488986104727">
        <ele>169.81</ele>
        <time>2025-04-29T15:06:43Z</time>
      </trkpt>
      <trkpt lat="43.44178500585258" lon="-6.357642961665988">
        <ele>169.81</ele>
        <time>2025-04-29T15:06:44Z</time>
      </trkpt>
      <trkpt lat="43.441760027781129" lon="-6.357810012996197">
        <ele>170.28999999999999</ele>
        <time>2025-04-29T15:06:45Z</time>
      </trkpt>
      <trkpt lat="43.441734965890646" lon="-6.357972035184503">
        <ele>170.77000000000001</ele>
        <time>2025-04-29T15:06:46Z</time>
      </trkpt>
      <trkpt lat="43.441650979220867" lon="-6.358437985181809">
        <ele>171.25</ele>
        <time>2025-04-29T15:06:49Z</time>
      </trkpt>
      <trkpt lat="43.441614015027881" lon="-6.35856899432838">
        <ele>171.25</ele>
        <time>2025-04-29T15:06:50Z</time>
      </trkpt>
      <trkpt lat="43.441404970362782" lon="-6.359137035906315">
        <ele>171.72999999999999</ele>
        <time>2025-04-29T15:06:56Z</time>
      </trkpt>
      <trkpt lat="43.441358031705022" lon="-6.359259998425841">
        <ele>171.72999999999999</ele>
        <time>2025-04-29T15:06:57Z</time>
      </trkpt>
      <trkpt lat="43.441358031705022" lon="-6.359324958175421">
        <ele>170.77000000000001</ele>
        <time>2025-04-29T15:06:58Z</time>
      </trkpt>
      <trkpt lat="43.441363982856274" lon="-6.359469965100288">
        <ele>169.81</ele>
        <time>2025-04-29T15:06:59Z</time>
      </trkpt>
      <trkpt lat="43.441444030031562" lon="-6.359688984230161">
        <ele>169.33000000000001</ele>
        <time>2025-04-29T15:07:00Z</time>
      </trkpt>
      <trkpt lat="43.441521981731057" lon="-6.359756961464882">
        <ele>168.84999999999999</ele>
        <time>2025-04-29T15:07:01Z</time>
      </trkpt>
      <trkpt lat="43.441617032513022" lon="-6.359840026125312">
        <ele>168.84999999999999</ele>
        <time>2025-04-29T15:07:02Z</time>
      </trkpt>
      <trkpt lat="43.44180797226727" lon="-6.360004981979728">
        <ele>169.33000000000001</ele>
        <time>2025-04-29T15:07:04Z</time>
      </trkpt>
      <trkpt lat="43.441898999735713" lon="-6.360085029155016">
        <ele>169.81</ele>
        <time>2025-04-29T15:07:05Z</time>
      </trkpt>
      <trkpt lat="43.441949961706996" lon="-6.360159041360021">
        <ele>169.81</ele>
        <time>2025-04-29T15:07:06Z</time>
      </trkpt>
      <trkpt lat="43.441990027204156" lon="-6.36028602719307">
        <ele>169.81</ele>
        <time>2025-04-29T15:07:07Z</time>
      </trkpt>
      <trkpt lat="43.442031014710665" lon="-6.360415024682879">
        <ele>170.77000000000001</ele>
        <time>2025-04-29T15:07:08Z</time>
      </trkpt>
      <trkpt lat="43.44206596724689" lon="-6.360574029386044">
        <ele>171.25</ele>
        <time>2025-04-29T15:07:09Z</time>
      </trkpt>
      <trkpt lat="43.44206596724689" lon="-6.360737979412079">
        <ele>171.72999999999999</ele>
        <time>2025-04-29T15:07:10Z</time>
      </trkpt>
      <trkpt lat="43.442073008045554" lon="-6.361021036282182">
        <ele>171.72999999999999</ele>
        <time>2025-04-29T15:07:12Z</time>
      </trkpt>
      <trkpt lat="43.442092034965754" lon="-6.361142992973328">
        <ele>171.72999999999999</ele>
        <time>2025-04-29T15:07:13Z</time>
      </trkpt>
      <trkpt lat="43.44210896641016" lon="-6.36125598102808">
        <ele>171.72999999999999</ele>
        <time>2025-04-29T15:07:14Z</time>
      </trkpt>
      <trkpt lat="43.442184990271926" lon="-6.361340973526239">
        <ele>171.72999999999999</ele>
        <time>2025-04-29T15:07:15Z</time>
      </trkpt>
      <trkpt lat="43.44228096306324" lon="-6.361449016258121">
        <ele>171.72999999999999</ele>
        <time>2025-04-29T15:07:16Z</time>
      </trkpt>
      <trkpt lat="43.442368973046541" lon="-6.361514981836081">
        <ele>171.72999999999999</ele>
        <time>2025-04-29T15:07:17Z</time>
      </trkpt>
      <trkpt lat="43.442481039091945" lon="-6.361596034839749">
        <ele>171.72999999999999</ele>
        <time>2025-04-29T15:07:18Z</time>
      </trkpt>
      <trkpt lat="43.442592015489936" lon="-6.361669963225722">
        <ele>171.72999999999999</ele>
        <time>2025-04-29T15:07:19Z</time>
      </trkpt>
      <trkpt lat="43.442696034908295" lon="-6.361740035936236">
        <ele>171.25</ele>
        <time>2025-04-29T15:07:20Z</time>
      </trkpt>
      <trkpt lat="43.442878006026149" lon="-6.361929969862104">
        <ele>171.25</ele>
        <time>2025-04-29T15:07:22Z</time>
      </trkpt>
      <trkpt lat="43.443114040419459" lon="-6.36224496178329">
        <ele>170.77000000000001</ele>
        <time>2025-04-29T15:07:25Z</time>
      </trkpt>
      <trkpt lat="43.44324697740376" lon="-6.362498011440039">
        <ele>170.28999999999999</ele>
        <time>2025-04-29T15:07:27Z</time>
      </trkpt>
      <trkpt lat="43.443397013470531" lon="-6.362830018624663">
        <ele>170.77000000000001</ele>
        <time>2025-04-29T15:07:30Z</time>
      </trkpt>
      <trkpt lat="43.443443030118942" lon="-6.362933032214642">
        <ele>170.77000000000001</ele>
        <time>2025-04-29T15:07:31Z</time>
      </trkpt>
      <trkpt lat="43.44350497238338" lon="-6.363011989742518">
        <ele>170.77000000000001</ele>
        <time>2025-04-29T15:07:32Z</time>
      </trkpt>
      <trkpt lat="43.443577978760004" lon="-6.363078961148858">
        <ele>170.28999999999999</ele>
        <time>2025-04-29T15:07:33Z</time>
      </trkpt>
      <trkpt lat="43.443645033985376" lon="-6.363139981403947">
        <ele>170.28999999999999</ele>
        <time>2025-04-29T15:07:34Z</time>
      </trkpt>
      <trkpt lat="43.443712005391717" lon="-6.363204019144177">
        <ele>170.77000000000001</ele>
        <time>2025-04-29T15:07:35Z</time>
      </trkpt>
      <trkpt lat="43.443778976798058" lon="-6.363282976672053">
        <ele>171.25</ele>
        <time>2025-04-29T15:07:36Z</time>
      </trkpt>
      <trkpt lat="43.443845026195049" lon="-6.363379033282399">
        <ele>171.72999999999999</ele>
        <time>2025-04-29T15:07:37Z</time>
      </trkpt>
      <trkpt lat="43.44389196485281" lon="-6.363482968881726">
        <ele>172.21000000000001</ele>
        <time>2025-04-29T15:07:38Z</time>
      </trkpt>
      <trkpt lat="43.444052981212735" lon="-6.363838026300073">
        <ele>173.16999999999999</ele>
        <time>2025-04-29T15:07:41Z</time>
      </trkpt>
      <trkpt lat="43.444111989811063" lon="-6.363966017961502">
        <ele>173.16999999999999</ele>
        <time>2025-04-29T15:07:42Z</time>
      </trkpt>
      <trkpt lat="43.444402003660798" lon="-6.364436997100711">
        <ele>175.09999999999999</ele>
        <time>2025-04-29T15:07:46Z</time>
      </trkpt>
      <trkpt lat="43.444481967017055" lon="-6.364532969892025">
        <ele>175.09999999999999</ele>
        <time>2025-04-29T15:07:47Z</time>
      </trkpt>
      <trkpt lat="43.444725964218378" lon="-6.364829018712044">
        <ele>176.06</ele>
        <time>2025-04-29T15:07:50Z</time>
      </trkpt>
      <trkpt lat="43.444898966699839" lon="-6.364989029243588">
        <ele>177.02000000000001</ele>
        <time>2025-04-29T15:07:52Z</time>
      </trkpt>
      <trkpt lat="43.44500700943172" lon="-6.365039991214871">
        <ele>177.5</ele>
        <time>2025-04-29T15:07:53Z</time>
      </trkpt>
      <trkpt lat="43.445110023021698" lon="-6.365089025348425">
        <ele>177.5</ele>
        <time>2025-04-29T15:07:54Z</time>
      </trkpt>
      <trkpt lat="43.445215970277786" lon="-6.365138981491327">
        <ele>177.97999999999999</ele>
        <time>2025-04-29T15:07:55Z</time>
      </trkpt>
      <trkpt lat="43.445329964160919" lon="-6.365212993696332">
        <ele>177.97999999999999</ele>
        <time>2025-04-29T15:07:56Z</time>
      </trkpt>
      <trkpt lat="43.445448987185955" lon="-6.365306032821536">
        <ele>178.46000000000001</ele>
        <time>2025-04-29T15:07:57Z</time>
      </trkpt>
      <trkpt lat="43.445592988282442" lon="-6.365428995341063">
        <ele>178.94</ele>
        <time>2025-04-29T15:07:58Z</time>
      </trkpt>
      <trkpt lat="43.445732966065407" lon="-6.365580037236214">
        <ele>178.94</ele>
        <time>2025-04-29T15:07:59Z</time>
      </trkpt>
      <trkpt lat="43.446743991225958" lon="-6.366705978289247">
        <ele>178.94</ele>
        <time>2025-04-29T15:08:06Z</time>
      </trkpt>
      <trkpt lat="43.446836024522781" lon="-6.366869006305933">
        <ele>178.94</ele>
        <time>2025-04-29T15:08:07Z</time>
      </trkpt>
      <trkpt lat="43.446921017020941" lon="-6.367019964382052">
        <ele>179.41999999999999</ele>
        <time>2025-04-29T15:08:08Z</time>
      </trkpt>
      <trkpt lat="43.446948006749153" lon="-6.367166982963681">
        <ele>179.41999999999999</ele>
        <time>2025-04-29T15:08:09Z</time>
      </trkpt>
      <trkpt lat="43.44696301035583" lon="-6.367338979616761">
        <ele>179.41999999999999</ele>
        <time>2025-04-29T15:08:10Z</time>
      </trkpt>
      <trkpt lat="43.446979019790888" lon="-6.36750603094697">
        <ele>179.41999999999999</ele>
        <time>2025-04-29T15:08:11Z</time>
      </trkpt>
      <trkpt lat="43.446994023397565" lon="-6.367670986801386">
        <ele>179.41999999999999</ele>
        <time>2025-04-29T15:08:12Z</time>
      </trkpt>
      <trkpt lat="43.447000980377197" lon="-6.367756985127926">
        <ele>179.41999999999999</ele>
        <time>2025-04-29T15:08:13Z</time>
      </trkpt>
      <trkpt lat="43.447097036987543" lon="-6.367869973182678">
        <ele>179.41999999999999</ele>
        <time>2025-04-29T15:08:14Z</time>
      </trkpt>
      <trkpt lat="43.44717800617218" lon="-6.367965023964644">
        <ele>179.41999999999999</ele>
        <time>2025-04-29T15:08:15Z</time>
      </trkpt>
      <trkpt lat="43.447270961478353" lon="-6.368081029504538">
        <ele>179.90000000000001</ele>
        <time>2025-04-29T15:08:16Z</time>
      </trkpt>
      <trkpt lat="43.447430972009897" lon="-6.368294013664126">
        <ele>179.90000000000001</ele>
        <time>2025-04-29T15:08:17Z</time>
      </trkpt>
      <trkpt lat="43.448031032457948" lon="-6.370053039863706">
        <ele>181.83000000000001</ele>
        <time>2025-04-29T15:08:25Z</time>
      </trkpt>
      <trkpt lat="43.448843993246555" lon="-6.372270975261927">
        <ele>184.22999999999999</ele>
        <time>2025-04-29T15:08:36Z</time>
      </trkpt>
      <trkpt lat="43.449690984562039" lon="-6.374497963115573">
        <ele>188.56</ele>
        <time>2025-04-29T15:08:46Z</time>
      </trkpt>
      <trkpt lat="43.449924001470208" lon="-6.375427013263106">
        <ele>190.47999999999999</ele>
        <time>2025-04-29T15:08:50Z</time>
      </trkpt>
      <trkpt lat="43.449941016733646" lon="-6.375617031008005">
        <ele>190.96000000000001</ele>
        <time>2025-04-29T15:08:51Z</time>
      </trkpt>
      <trkpt lat="43.449941016733646" lon="-6.375976027920842">
        <ele>190.96000000000001</ele>
        <time>2025-04-29T15:08:53Z</time>
      </trkpt>
      <trkpt lat="43.44997001811862" lon="-6.376175014302135">
        <ele>190.96000000000001</ele>
        <time>2025-04-29T15:08:54Z</time>
      </trkpt>
      <trkpt lat="43.449984015896916" lon="-6.376276016235352">
        <ele>190.96000000000001</ele>
        <time>2025-04-29T15:08:55Z</time>
      </trkpt>
      <trkpt lat="43.450082000344992" lon="-6.37651096098125">
        <ele>190.96000000000001</ele>
        <time>2025-04-29T15:08:56Z</time>
      </trkpt>
      <trkpt lat="43.450177973136306" lon="-6.376634007319808">
        <ele>190.47999999999999</ele>
        <time>2025-04-29T15:08:57Z</time>
      </trkpt>
      <trkpt lat="43.450289033353329" lon="-6.376761998981237">
        <ele>189.52000000000001</ele>
        <time>2025-04-29T15:08:58Z</time>
      </trkpt>
      <trkpt lat="43.450393974781036" lon="-6.376884039491415">
        <ele>189.03999999999999</ele>
        <time>2025-04-29T15:08:59Z</time>
      </trkpt>
      <trkpt lat="43.450499000027776" lon="-6.377005996182561">
        <ele>189.03999999999999</ele>
        <time>2025-04-29T15:09:00Z</time>
      </trkpt>
      <trkpt lat="43.450592961162329" lon="-6.37706802226603">
        <ele>189.03999999999999</ele>
        <time>2025-04-29T15:09:01Z</time>
      </trkpt>
      <trkpt lat="43.450715001672506" lon="-6.377148991450667">
        <ele>188.56</ele>
        <time>2025-04-29T15:09:02Z</time>
      </trkpt>
      <trkpt lat="43.450840981677175" lon="-6.377287041395903">
        <ele>187.11000000000001</ele>
        <time>2025-04-29T15:09:03Z</time>
      </trkpt>
      <trkpt lat="43.450951036065817" lon="-6.377430036664009">
        <ele>185.66999999999999</ele>
        <time>2025-04-29T15:09:04Z</time>
      </trkpt>
      <trkpt lat="43.451062012463808" lon="-6.377574959769845">
        <ele>184.71000000000001</ele>
        <time>2025-04-29T15:09:05Z</time>
      </trkpt>
      <trkpt lat="43.451167037710547" lon="-6.377710998058319">
        <ele>183.75</ele>
        <time>2025-04-29T15:09:06Z</time>
      </trkpt>
      <trkpt lat="43.451277008280158" lon="-6.377786016091704">
        <ele>182.78999999999999</ele>
        <time>2025-04-29T15:09:07Z</time>
      </trkpt>
      <trkpt lat="43.451379016041756" lon="-6.377843013033271">
        <ele>181.83000000000001</ele>
        <time>2025-04-29T15:09:08Z</time>
      </trkpt>
      <trkpt lat="43.451533997431397" lon="-6.377854999154806">
        <ele>180.87</ele>
        <time>2025-04-29T15:09:09Z</time>
      </trkpt>
      <trkpt lat="43.451680010184646" lon="-6.377865979447961">
        <ele>180.38</ele>
        <time>2025-04-29T15:09:10Z</time>
      </trkpt>
      <trkpt lat="43.451829962432384" lon="-6.377877965569496">
        <ele>179.41999999999999</ele>
        <time>2025-04-29T15:09:11Z</time>
      </trkpt>
      <trkpt lat="43.451985027641058" lon="-6.377890035510063">
        <ele>178.46000000000001</ele>
        <time>2025-04-29T15:09:12Z</time>
      </trkpt>
      <trkpt lat="43.452460030093789" lon="-6.37792699970305">
        <ele>175.58000000000001</ele>
        <time>2025-04-29T15:09:15Z</time>
      </trkpt>
      <trkpt lat="43.452779967337847" lon="-6.377870002761483">
        <ele>173.66</ele>
        <time>2025-04-29T15:09:17Z</time>
      </trkpt>
      <trkpt lat="43.452922962605953" lon="-6.377843013033271">
        <ele>172.69</ele>
        <time>2025-04-29T15:09:18Z</time>
      </trkpt>
      <trkpt lat="43.453056989237666" lon="-6.377868996933103">
        <ele>171.72999999999999</ele>
        <time>2025-04-29T15:09:19Z</time>
      </trkpt>
      <trkpt lat="43.453137958422303" lon="-6.37788500636816">
        <ele>170.77000000000001</ele>
        <time>2025-04-29T15:09:20Z</time>
      </trkpt>
      <trkpt lat="43.453251030296087" lon="-6.378022972494364">
        <ele>169.81</ele>
        <time>2025-04-29T15:09:21Z</time>
      </trkpt>
      <trkpt lat="43.453331999480724" lon="-6.378121040761471">
        <ele>168.84999999999999</ele>
        <time>2025-04-29T15:09:22Z</time>
      </trkpt>
      <trkpt lat="43.453361000865698" lon="-6.378255989402533">
        <ele>168.84999999999999</ele>
        <time>2025-04-29T15:09:23Z</time>
      </trkpt>
      <trkpt lat="43.453399976715446" lon="-6.378431003540754">
        <ele>168.37</ele>
        <time>2025-04-29T15:09:24Z</time>
      </trkpt>
      <trkpt lat="43.4534299839288" lon="-6.378610040992498">
        <ele>168.37</ele>
        <time>2025-04-29T15:09:25Z</time>
      </trkpt>
      <trkpt lat="43.453456973657012" lon="-6.378815984353423">
        <ele>167.88999999999999</ele>
        <time>2025-04-29T15:09:26Z</time>
      </trkpt>
      <trkpt lat="43.453483963385224" lon="-6.37902201153338">
        <ele>167.88999999999999</ele>
        <time>2025-04-29T15:09:27Z</time>
      </trkpt>
      <trkpt lat="43.453653026372194" lon="-6.3798170350492">
        <ele>167.41</ele>
        <time>2025-04-29T15:09:31Z</time>
      </trkpt>
      <trkpt lat="43.453732989728451" lon="-6.38005499728024">
        <ele>167.41</ele>
        <time>2025-04-29T15:09:32Z</time>
      </trkpt>
      <trkpt lat="43.453801972791553" lon="-6.380261024460197">
        <ele>167.41</ele>
        <time>2025-04-29T15:09:33Z</time>
      </trkpt>
      <trkpt lat="43.453872967511415" lon="-6.380475014448166">
        <ele>167.41</ele>
        <time>2025-04-29T15:09:34Z</time>
      </trkpt>
      <trkpt lat="43.453944968059659" lon="-6.380692021921277">
        <ele>167.41</ele>
        <time>2025-04-29T15:09:35Z</time>
      </trkpt>
      <trkpt lat="43.454026021063328" lon="-6.380908023566008">
        <ele>167.41</ele>
        <time>2025-04-29T15:09:36Z</time>
      </trkpt>
      <trkpt lat="43.454208998009562" lon="-6.381291998550296">
        <ele>167.41</ele>
        <time>2025-04-29T15:09:38Z</time>
      </trkpt>
      <trkpt lat="43.454294996336102" lon="-6.38147396966815">
        <ele>167.41</ele>
        <time>2025-04-29T15:09:39Z</time>
      </trkpt>
      <trkpt lat="43.454377977177501" lon="-6.38164596632123">
        <ele>167.41</ele>
        <time>2025-04-29T15:09:40Z</time>
      </trkpt>
      <trkpt lat="43.45448300242424" lon="-6.381799019873142">
        <ele>167.41</ele>
        <time>2025-04-29T15:09:41Z</time>
      </trkpt>
      <trkpt lat="43.454592972993851" lon="-6.381899015977979">
        <ele>167.88999999999999</ele>
        <time>2025-04-29T15:09:42Z</time>
      </trkpt>
      <trkpt lat="43.454708978533745" lon="-6.381975039839745">
        <ele>168.37</ele>
        <time>2025-04-29T15:09:43Z</time>
      </trkpt>
      <trkpt lat="43.454836970195174" lon="-6.382038993760943">
        <ele>168.84999999999999</ele>
        <time>2025-04-29T15:09:44Z</time>
      </trkpt>
      <trkpt lat="43.454975020140409" lon="-6.382070006802678">
        <ele>168.84999999999999</ele>
        <time>2025-04-29T15:09:45Z</time>
      </trkpt>
      <trkpt lat="43.455134024843574" lon="-6.382037987932563">
        <ele>168.84999999999999</ele>
        <time>2025-04-29T15:09:46Z</time>
      </trkpt>
      <trkpt lat="43.455283977091312" lon="-6.381984008476138">
        <ele>169.33000000000001</ele>
        <time>2025-04-29T15:09:47Z</time>
      </trkpt>
      <trkpt lat="43.455391013994813" lon="-6.381862973794341">
        <ele>169.33000000000001</ele>
        <time>2025-04-29T15:09:48Z</time>
      </trkpt>
      <trkpt lat="43.455601986497641" lon="-6.381625011563301">
        <ele>168.37</ele>
        <time>2025-04-29T15:09:50Z</time>
      </trkpt>
      <trkpt lat="43.455778006464243" lon="-6.381426025182009">
        <ele>167.88999999999999</ele>
        <time>2025-04-29T15:09:51Z</time>
      </trkpt>
      <trkpt lat="43.455912033095956" lon="-6.381371039897203">
        <ele>167.88999999999999</ele>
        <time>2025-04-29T15:09:52Z</time>
      </trkpt>
      <trkpt lat="43.456581998616457" lon="-6.381415966898203">
        <ele>170.77000000000001</ele>
        <time>2025-04-29T15:09:57Z</time>
      </trkpt>
      <trkpt lat="43.456651987507939" lon="-6.381469024345279">
        <ele>170.77000000000001</ele>
        <time>2025-04-29T15:09:58Z</time>
      </trkpt>
      <trkpt lat="43.456704039126635" lon="-6.381535995751619">
        <ele>170.28999999999999</ele>
        <time>2025-04-29T15:09:59Z</time>
      </trkpt>
      <trkpt lat="43.456771010532975" lon="-6.381654012948275">
        <ele>170.28999999999999</ele>
        <time>2025-04-29T15:10:00Z</time>
      </trkpt>
      <trkpt lat="43.456839993596077" lon="-6.381776975467801">
        <ele>170.28999999999999</ele>
        <time>2025-04-29T15:10:01Z</time>
      </trkpt>
      <trkpt lat="43.45693102106452" lon="-6.381988031789661">
        <ele>169.33000000000001</ele>
        <time>2025-04-29T15:10:03Z</time>
      </trkpt>
      <trkpt lat="43.456978965550661" lon="-6.382113005965948">
        <ele>168.37</ele>
        <time>2025-04-29T15:10:04Z</time>
      </trkpt>
      <trkpt lat="43.456972008571029" lon="-6.382230017334223">
        <ele>167.88999999999999</ele>
        <time>2025-04-29T15:10:05Z</time>
      </trkpt>
      <trkpt lat="43.456963039934635" lon="-6.382388016209006">
        <ele>167.41</ele>
        <time>2025-04-29T15:10:06Z</time>
      </trkpt>
      <trkpt lat="43.45695398747921" lon="-6.382544003427029">
        <ele>167.88999999999999</ele>
        <time>2025-04-29T15:10:07Z</time>
      </trkpt>
      <trkpt lat="43.456944013014436" lon="-6.382708959281445">
        <ele>168.37</ele>
        <time>2025-04-29T15:10:08Z</time>
      </trkpt>
      <trkpt lat="43.4569320268929" lon="-6.382883973419666">
        <ele>168.84999999999999</ele>
        <time>2025-04-29T15:10:09Z</time>
      </trkpt>
      <trkpt lat="43.456653999164701" lon="-6.384272016584873">
        <ele>174.13999999999999</ele>
        <time>2025-04-29T15:10:17Z</time>
      </trkpt>
      <trkpt lat="43.456572024151683" lon="-6.384576028212905">
        <ele>175.09999999999999</ele>
        <time>2025-04-29T15:10:19Z</time>
      </trkpt>
      <trkpt lat="43.456487031653523" lon="-6.38488800264895">
        <ele>176.06</ele>
        <time>2025-04-29T15:10:21Z</time>
      </trkpt>
      <trkpt lat="43.456443026661873" lon="-6.385052036494017">
        <ele>176.53999999999999</ele>
        <time>2025-04-29T15:10:22Z</time>
      </trkpt>
      <trkpt lat="43.456443026661873" lon="-6.385287987068296">
        <ele>176.06</ele>
        <time>2025-04-29T15:10:23Z</time>
      </trkpt>
      <trkpt lat="43.45648099668324" lon="-6.385388989001513">
        <ele>175.58000000000001</ele>
        <time>2025-04-29T15:10:24Z</time>
      </trkpt>
      <trkpt lat="43.456632038578391" lon="-6.385548999533057">
        <ele>175.58000000000001</ele>
        <time>2025-04-29T15:10:25Z</time>
      </trkpt>
      <trkpt lat="43.45678199082613" lon="-6.385542964562774">
        <ele>175.09999999999999</ele>
        <time>2025-04-29T15:10:26Z</time>
      </trkpt>
      <trkpt lat="43.456881986930966" lon="-6.385481022298336">
        <ele>174.62</ele>
        <time>2025-04-29T15:10:27Z</time>
      </trkpt>
      <trkpt lat="43.456992041319609" lon="-6.385412039235234">
        <ele>174.13999999999999</ele>
        <time>2025-04-29T15:10:28Z</time>
      </trkpt>
      <trkpt lat="43.457759991288185" lon="-6.38491096906364">
        <ele>174.13999999999999</ele>
        <time>2025-04-29T15:10:33Z</time>
      </trkpt>
      <trkpt lat="43.457966018468142" lon="-6.384880961850286">
        <ele>174.13999999999999</ele>
        <time>2025-04-29T15:10:35Z</time>
      </trkpt>
      <trkpt lat="43.458170033991337" lon="-6.384928990155459">
        <ele>174.13999999999999</ele>
        <time>2025-04-29T15:10:36Z</time>
      </trkpt>
      <trkpt lat="43.458342030644417" lon="-6.384970983490348">
        <ele>174.13999999999999</ele>
        <time>2025-04-29T15:10:37Z</time>
      </trkpt>
      <trkpt lat="43.45850296318531" lon="-6.385009037330747">
        <ele>174.13999999999999</ele>
        <time>2025-04-29T15:10:38Z</time>
      </trkpt>
      <trkpt lat="43.458666997030377" lon="-6.385122025385499">
        <ele>174.13999999999999</ele>
        <time>2025-04-29T15:10:39Z</time>
      </trkpt>
      <trkpt lat="43.458837987855077" lon="-6.385240964591503">
        <ele>173.66</ele>
        <time>2025-04-29T15:10:40Z</time>
      </trkpt>
      <trkpt lat="43.459282983094454" lon="-6.385478004813194">
        <ele>173.16999999999999</ele>
        <time>2025-04-29T15:10:43Z</time>
      </trkpt>
      <trkpt lat="43.45940200611949" lon="-6.385507006198168">
        <ele>173.16999999999999</ele>
        <time>2025-04-29T15:10:44Z</time>
      </trkpt>
      <trkpt lat="43.459623036906123" lon="-6.385562997311354">
        <ele>173.66</ele>
        <time>2025-04-29T15:10:46Z</time>
      </trkpt>
      <trkpt lat="43.459687996655703" lon="-6.385629968717694">
        <ele>173.66</ele>
        <time>2025-04-29T15:10:47Z</time>
      </trkpt>
      <trkpt lat="43.459767960011959" lon="-6.385733988136053">
        <ele>173.66</ele>
        <time>2025-04-29T15:10:48Z</time>
      </trkpt>
      <trkpt lat="43.45985496416688" lon="-6.385845970362425">
        <ele>173.66</ele>
        <time>2025-04-29T15:10:49Z</time>
      </trkpt>
      <trkpt lat="43.459888994693756" lon="-6.385965999215841">
        <ele>173.66</ele>
        <time>2025-04-29T15:10:50Z</time>
      </trkpt>
      <trkpt lat="43.459932999685407" lon="-6.386115029454231">
        <ele>173.66</ele>
        <time>2025-04-29T15:10:51Z</time>
      </trkpt>
      <trkpt lat="43.460049005225301" lon="-6.386525994166732">
        <ele>175.09999999999999</ele>
        <time>2025-04-29T15:10:54Z</time>
      </trkpt>
      <trkpt lat="43.460069037973881" lon="-6.386811984702945">
        <ele>176.53999999999999</ele>
        <time>2025-04-29T15:10:56Z</time>
      </trkpt>
      <trkpt lat="43.460030984133482" lon="-6.386979036033154">
        <ele>177.02000000000001</ele>
        <time>2025-04-29T15:10:57Z</time>
      </trkpt>
      <trkpt lat="43.459995025768876" lon="-6.387139968574047">
        <ele>177.97999999999999</ele>
        <time>2025-04-29T15:10:58Z</time>
      </trkpt>
      <trkpt lat="43.459879020228982" lon="-6.387434005737305">
        <ele>179.41999999999999</ele>
        <time>2025-04-29T15:11:00Z</time>
      </trkpt>
      <trkpt lat="43.459800984710455" lon="-6.387572977691889">
        <ele>180.38</ele>
        <time>2025-04-29T15:11:01Z</time>
      </trkpt>
      <trkpt lat="43.459712974727154" lon="-6.387699963524938">
        <ele>181.34999999999999</ele>
        <time>2025-04-29T15:11:02Z</time>
      </trkpt>
      <trkpt lat="43.459604009985924" lon="-6.387796020135284">
        <ele>182.31</ele>
        <time>2025-04-29T15:11:03Z</time>
      </trkpt>
      <trkpt lat="43.459493033587933" lon="-6.387894004583359">
        <ele>183.27000000000001</ele>
        <time>2025-04-29T15:11:04Z</time>
      </trkpt>
      <trkpt lat="43.459380967542529" lon="-6.387991989031434">
        <ele>183.75</ele>
        <time>2025-04-29T15:11:05Z</time>
      </trkpt>
      <trkpt lat="43.459275020286441" lon="-6.388086033985019">
        <ele>184.71000000000001</ele>
        <time>2025-04-29T15:11:06Z</time>
      </trkpt>
      <trkpt lat="43.45921098254621" lon="-6.388142025098205">
        <ele>185.19</ele>
        <time>2025-04-29T15:11:07Z</time>
      </trkpt>
      <trkpt lat="43.459147028625011" lon="-6.388291977345944">
        <ele>185.66999999999999</ele>
        <time>2025-04-29T15:11:08Z</time>
      </trkpt>
      <trkpt lat="43.459147028625011" lon="-6.388398008421063">
        <ele>185.66999999999999</ele>
        <time>2025-04-29T15:11:09Z</time>
      </trkpt>
      <trkpt lat="43.45916697755456" lon="-6.388531029224396">
        <ele>185.19</ele>
        <time>2025-04-29T15:11:10Z</time>
      </trkpt>
      <trkpt lat="43.459221962839365" lon="-6.388706965371966">
        <ele>184.71000000000001</ele>
        <time>2025-04-29T15:11:11Z</time>
      </trkpt>
      <trkpt lat="43.459349032491446" lon="-6.38924902305007">
        <ele>184.71000000000001</ele>
        <time>2025-04-29T15:11:14Z</time>
      </trkpt>
      <trkpt lat="43.45935900695622" lon="-6.389435017481446">
        <ele>184.71000000000001</ele>
        <time>2025-04-29T15:11:15Z</time>
      </trkpt>
      <trkpt lat="43.459337968379259" lon="-6.389597039669752">
        <ele>184.71000000000001</ele>
        <time>2025-04-29T15:11:16Z</time>
      </trkpt>
      <trkpt lat="43.45929597504437" lon="-6.389737017452717">
        <ele>184.71000000000001</ele>
        <time>2025-04-29T15:11:17Z</time>
      </trkpt>
      <trkpt lat="43.459201008081436" lon="-6.389855034649372">
        <ele>184.71000000000001</ele>
        <time>2025-04-29T15:11:18Z</time>
      </trkpt>
      <trkpt lat="43.459105035290122" lon="-6.389974979683757">
        <ele>184.71000000000001</ele>
        <time>2025-04-29T15:11:19Z</time>
      </trkpt>
      <trkpt lat="43.459009984508157" lon="-6.390094002708793">
        <ele>184.71000000000001</ele>
        <time>2025-04-29T15:11:20Z</time>
      </trkpt>
      <trkpt lat="43.458900013938546" lon="-6.390380999073386">
        <ele>184.71000000000001</ele>
        <time>2025-04-29T15:11:22Z</time>
      </trkpt>
      <trkpt lat="43.458907976746559" lon="-6.390470014885068">
        <ele>184.71000000000001</ele>
        <time>2025-04-29T15:11:23Z</time>
      </trkpt>
      <trkpt lat="43.458958016708493" lon="-6.39060596935451">
        <ele>184.22999999999999</ele>
        <time>2025-04-29T15:11:24Z</time>
      </trkpt>
      <trkpt lat="43.459006967023015" lon="-6.390680987387896">
        <ele>183.75</ele>
        <time>2025-04-29T15:11:25Z</time>
      </trkpt>
      <trkpt lat="43.459103023633361" lon="-6.390765979886055">
        <ele>182.78999999999999</ele>
        <time>2025-04-29T15:11:26Z</time>
      </trkpt>
      <trkpt lat="43.459630999714136" lon="-6.391289010643959">
        <ele>178.94</ele>
        <time>2025-04-29T15:11:31Z</time>
      </trkpt>
      <trkpt lat="43.459724960848689" lon="-6.391427982598543">
        <ele>177.97999999999999</ele>
        <time>2025-04-29T15:11:32Z</time>
      </trkpt>
      <trkpt lat="43.459872985258698" lon="-6.391767030581832">
        <ele>176.06</ele>
        <time>2025-04-29T15:11:34Z</time>
      </trkpt>
      <trkpt lat="43.459940040484071" lon="-6.392198028042913">
        <ele>175.09999999999999</ele>
        <time>2025-04-29T15:11:37Z</time>
      </trkpt>
      <trkpt lat="43.459910033270717" lon="-6.392390979453921">
        <ele>175.09999999999999</ele>
        <time>2025-04-29T15:11:38Z</time>
      </trkpt>
      <trkpt lat="43.459884971380234" lon="-6.392551995813847">
        <ele>174.62</ele>
        <time>2025-04-29T15:11:39Z</time>
      </trkpt>
      <trkpt lat="43.459782041609287" lon="-6.392813008278608">
        <ele>174.13999999999999</ele>
        <time>2025-04-29T15:11:41Z</time>
      </trkpt>
      <trkpt lat="43.459387002512813" lon="-6.393584981560707">
        <ele>172.69</ele>
        <time>2025-04-29T15:11:47Z</time>
      </trkpt>
      <trkpt lat="43.459365963935852" lon="-6.393737029284239">
        <ele>171.72999999999999</ele>
        <time>2025-04-29T15:11:48Z</time>
      </trkpt>
      <trkpt lat="43.459395971149206" lon="-6.393860997632146">
        <ele>170.77000000000001</ele>
        <time>2025-04-29T15:11:49Z</time>
      </trkpt>
      <trkpt lat="43.459442993625998" lon="-6.393963005393744">
        <ele>169.81</ele>
        <time>2025-04-29T15:11:50Z</time>
      </trkpt>
      <trkpt lat="43.459495967254043" lon="-6.394075993448496">
        <ele>169.33000000000001</ele>
        <time>2025-04-29T15:11:51Z</time>
      </trkpt>
      <trkpt lat="43.459636028856039" lon="-6.394327031448484">
        <ele>168.84999999999999</ele>
        <time>2025-04-29T15:11:53Z</time>
      </trkpt>
      <trkpt lat="43.459706017747521" lon="-6.394456028938294">
        <ele>168.84999999999999</ele>
        <time>2025-04-29T15:11:54Z</time>
      </trkpt>
      <trkpt lat="43.459753962233663" lon="-6.394608998671174">
        <ele>168.37</ele>
        <time>2025-04-29T15:11:55Z</time>
      </trkpt>
      <trkpt lat="43.460061997175217" lon="-6.395454984158278">
        <ele>167.88999999999999</ele>
        <time>2025-04-29T15:12:00Z</time>
      </trkpt>
      <trkpt lat="43.460161993280053" lon="-6.395627986639738">
        <ele>167.88999999999999</ele>
        <time>2025-04-29T15:12:01Z</time>
      </trkpt>
      <trkpt lat="43.460290990769863" lon="-6.395785985514522">
        <ele>167.41</ele>
        <time>2025-04-29T15:12:02Z</time>
      </trkpt>
      <trkpt lat="43.4603909868747" lon="-6.39591003768146">
        <ele>166.93000000000001</ele>
        <time>2025-04-29T15:12:03Z</time>
      </trkpt>
      <trkpt lat="43.460549991577864" lon="-6.395973991602659">
        <ele>166.93000000000001</ele>
        <time>2025-04-29T15:12:04Z</time>
      </trkpt>
      <trkpt lat="43.460705978795886" lon="-6.39603802934289">
        <ele>166.44999999999999</ele>
        <time>2025-04-29T15:12:05Z</time>
      </trkpt>
      <trkpt lat="43.460873030126095" lon="-6.396106006577611">
        <ele>165.96000000000001</ele>
        <time>2025-04-29T15:12:06Z</time>
      </trkpt>
      <trkpt lat="43.461033962666988" lon="-6.39617096632719">
        <ele>165.47999999999999</ele>
        <time>2025-04-29T15:12:07Z</time>
      </trkpt>
      <trkpt lat="43.461172012612224" lon="-6.396261993795633">
        <ele>164.52000000000001</ele>
        <time>2025-04-29T15:12:08Z</time>
      </trkpt>
      <trkpt lat="43.46127100288868" lon="-6.39633902348578">
        <ele>164.03999999999999</ele>
        <time>2025-04-29T15:12:09Z</time>
      </trkpt>
      <trkpt lat="43.461318025365472" lon="-6.396514037624002">
        <ele>163.56</ele>
        <time>2025-04-29T15:12:10Z</time>
      </trkpt>
      <trkpt lat="43.461354989558458" lon="-6.39668402262032">
        <ele>162.59999999999999</ele>
        <time>2025-04-29T15:12:11Z</time>
      </trkpt>
      <trkpt lat="43.46133696846664" lon="-6.396887032315135">
        <ele>162.12</ele>
        <time>2025-04-29T15:12:12Z</time>
      </trkpt>
      <trkpt lat="43.46131400205195" lon="-6.397153995931149">
        <ele>161.16</ele>
        <time>2025-04-29T15:12:13Z</time>
      </trkpt>
      <trkpt lat="43.461283994838595" lon="-6.39735097065568">
        <ele>160.68000000000001</ele>
        <time>2025-04-29T15:12:14Z</time>
      </trkpt>
      <trkpt lat="43.461248036473989" lon="-6.39758599922061">
        <ele>159.72</ele>
        <time>2025-04-29T15:12:15Z</time>
      </trkpt>
      <trkpt lat="43.461213000118732" lon="-6.397819016128779">
        <ele>159.24000000000001</ele>
        <time>2025-04-29T15:12:16Z</time>
      </trkpt>
      <trkpt lat="43.461148040369153" lon="-6.397980032488704">
        <ele>158.75</ele>
        <time>2025-04-29T15:12:17Z</time>
      </trkpt>
      <trkpt lat="43.461077967658639" lon="-6.398119004443288">
        <ele>157.78999999999999</ele>
        <time>2025-04-29T15:12:18Z</time>
      </trkpt>
      <trkpt lat="43.461015019565821" lon="-6.398226041346788">
        <ele>157.31</ele>
        <time>2025-04-29T15:12:19Z</time>
      </trkpt>
      <trkpt lat="43.460913011804223" lon="-6.398326959460974">
        <ele>156.83000000000001</ele>
        <time>2025-04-29T15:12:20Z</time>
      </trkpt>
      <trkpt lat="43.460813015699387" lon="-6.398411029949784">
        <ele>155.87</ele>
        <time>2025-04-29T15:12:21Z</time>
      </trkpt>
      <trkpt lat="43.460514033213258" lon="-6.398614039644599">
        <ele>154.43000000000001</ele>
        <time>2025-04-29T15:12:24Z</time>
      </trkpt>
      <trkpt lat="43.460417976602912" lon="-6.398677993565798">
        <ele>153.47</ele>
        <time>2025-04-29T15:12:25Z</time>
      </trkpt>
      <trkpt lat="43.460227958858013" lon="-6.398806991055608">
        <ele>152.50999999999999</ele>
        <time>2025-04-29T15:12:27Z</time>
      </trkpt>
      <trkpt lat="43.46013399772346" lon="-6.398871028795838">
        <ele>151.53999999999999</ele>
        <time>2025-04-29T15:12:28Z</time>
      </trkpt>
      <trkpt lat="43.46006702631712" lon="-6.398955015465617">
        <ele>151.06</ele>
        <time>2025-04-29T15:12:29Z</time>
      </trkpt>
      <trkpt lat="43.459994019940495" lon="-6.39904503710568">
        <ele>150.58000000000001</ele>
        <time>2025-04-29T15:12:30Z</time>
      </trkpt>
      <trkpt lat="43.459943979978561" lon="-6.39913396909833">
        <ele>150.09999999999999</ele>
        <time>2025-04-29T15:12:31Z</time>
      </trkpt>
      <trkpt lat="43.459897041320801" lon="-6.399258021265268">
        <ele>149.13999999999999</ele>
        <time>2025-04-29T15:12:32Z</time>
      </trkpt>
      <trkpt lat="43.459851024672389" lon="-6.399380983784795">
        <ele>148.66</ele>
        <time>2025-04-29T15:12:33Z</time>
      </trkpt>
      <trkpt lat="43.45983300358057" lon="-6.399488020688295">
        <ele>148.18000000000001</ele>
        <time>2025-04-29T15:12:34Z</time>
      </trkpt>
      <trkpt lat="43.45983300358057" lon="-6.399643002077937">
        <ele>146.74000000000001</ele>
        <time>2025-04-29T15:12:35Z</time>
      </trkpt>
      <trkpt lat="43.459877008572221" lon="-6.399804018437862">
        <ele>145.78</ele>
        <time>2025-04-29T15:12:36Z</time>
      </trkpt>
      <trkpt lat="43.459923025220633" lon="-6.399910971522331">
        <ele>144.81999999999999</ele>
        <time>2025-04-29T15:12:37Z</time>
      </trkpt>
      <trkpt lat="43.46000500023365" lon="-6.400010967627168">
        <ele>144.81999999999999</ele>
        <time>2025-04-29T15:12:38Z</time>
      </trkpt>
      <trkpt lat="43.46009099856019" lon="-6.400115992873907">
        <ele>144.34</ele>
        <time>2025-04-29T15:12:39Z</time>
      </trkpt>
      <trkpt lat="43.460187977179885" lon="-6.400162009522319">
        <ele>144.34</ele>
        <time>2025-04-29T15:12:40Z</time>
      </trkpt>
      <trkpt lat="43.460293002426624" lon="-6.400211965665221">
        <ele>144.81999999999999</ele>
        <time>2025-04-29T15:12:41Z</time>
      </trkpt>
      <trkpt lat="43.460527025163174" lon="-6.400324031710625">
        <ele>144.81999999999999</ele>
        <time>2025-04-29T15:12:43Z</time>
      </trkpt>
      <trkpt lat="43.461233032867312" lon="-6.400826023891568">
        <ele>143.37</ele>
        <time>2025-04-29T15:12:49Z</time>
      </trkpt>
      <trkpt lat="43.462107013911009" lon="-6.401618029922247">
        <ele>138.56999999999999</ele>
        <time>2025-04-29T15:12:57Z</time>
      </trkpt>
      <trkpt lat="43.462188988924026" lon="-6.401752978563309">
        <ele>137.61000000000001</ele>
        <time>2025-04-29T15:12:58Z</time>
      </trkpt>
      <trkpt lat="43.462300971150398" lon="-6.401896979659796">
        <ele>137.13</ele>
        <time>2025-04-29T15:12:59Z</time>
      </trkpt>
      <trkpt lat="43.462368026375771" lon="-6.402014996856451">
        <ele>136.63999999999999</ele>
        <time>2025-04-29T15:13:00Z</time>
      </trkpt>
      <trkpt lat="43.462444972246885" lon="-6.402152962982655">
        <ele>135.68000000000001</ele>
        <time>2025-04-29T15:13:01Z</time>
      </trkpt>
      <trkpt lat="43.462508004158735" lon="-6.402325965464115">
        <ele>135.19999999999999</ele>
        <time>2025-04-29T15:13:02Z</time>
      </trkpt>
      <trkpt lat="43.462535999715328" lon="-6.402526963502169">
        <ele>134.72</ele>
        <time>2025-04-29T15:13:03Z</time>
      </trkpt>
      <trkpt lat="43.462526025250554" lon="-6.402738019824028">
        <ele>134.24000000000001</ele>
        <time>2025-04-29T15:13:04Z</time>
      </trkpt>
      <trkpt lat="43.462514961138368" lon="-6.402971958741546">
        <ele>133.75999999999999</ele>
        <time>2025-04-29T15:13:05Z</time>
      </trkpt>
      <trkpt lat="43.462470034137368" lon="-6.40317496843636">
        <ele>133.28</ele>
        <time>2025-04-29T15:13:06Z</time>
      </trkpt>
      <trkpt lat="43.462430974468589" lon="-6.403347970917821">
        <ele>132.80000000000001</ele>
        <time>2025-04-29T15:13:07Z</time>
      </trkpt>
      <trkpt lat="43.462412031367421" lon="-6.403500018641353">
        <ele>132.31999999999999</ele>
        <time>2025-04-29T15:13:08Z</time>
      </trkpt>
      <trkpt lat="43.462431980296969" lon="-6.403612000867724">
        <ele>131.36000000000001</ele>
        <time>2025-04-29T15:13:09Z</time>
      </trkpt>
      <trkpt lat="43.462479002773762" lon="-6.403705039992929">
        <ele>131.36000000000001</ele>
        <time>2025-04-29T15:13:10Z</time>
      </trkpt>
      <trkpt lat="43.462567012757063" lon="-6.403792966157198">
        <ele>131.36000000000001</ele>
        <time>2025-04-29T15:13:11Z</time>
      </trkpt>
      <trkpt lat="43.462673965841532" lon="-6.403900003060699">
        <ele>130.88</ele>
        <time>2025-04-29T15:13:12Z</time>
      </trkpt>
      <trkpt lat="43.462788965553045" lon="-6.40403101220727">
        <ele>130.88</ele>
        <time>2025-04-29T15:13:13Z</time>
      </trkpt>
      <trkpt lat="43.462885022163391" lon="-6.404211977496743">
        <ele>130.88</ele>
        <time>2025-04-29T15:13:14Z</time>
      </trkpt>
      <trkpt lat="43.462976971641183" lon="-6.404429990798235">
        <ele>130.40000000000001</ele>
        <time>2025-04-29T15:13:15Z</time>
      </trkpt>
      <trkpt lat="43.463013013824821" lon="-6.404649009928107">
        <ele>130.40000000000001</ele>
        <time>2025-04-29T15:13:16Z</time>
      </trkpt>
      <trkpt lat="43.463051989674568" lon="-6.404879009351134">
        <ele>129.91999999999999</ele>
        <time>2025-04-29T15:13:17Z</time>
      </trkpt>
      <trkpt lat="43.463040003553033" lon="-6.405057040974498">
        <ele>129.91999999999999</ele>
        <time>2025-04-29T15:13:18Z</time>
      </trkpt>
      <trkpt lat="43.463003039360046" lon="-6.405253009870648">
        <ele>129.43000000000001</ele>
        <time>2025-04-29T15:13:19Z</time>
      </trkpt>
      <trkpt lat="43.462930032983422" lon="-6.405390975996852">
        <ele>128.94999999999999</ele>
        <time>2025-04-29T15:13:20Z</time>
      </trkpt>
      <trkpt lat="43.462860966101289" lon="-6.405520979315043">
        <ele>128.47</ele>
        <time>2025-04-29T15:13:21Z</time>
      </trkpt>
      <trkpt lat="43.462547985836864" lon="-6.406022971495986">
        <ele>125.59</ele>
        <time>2025-04-29T15:13:25Z</time>
      </trkpt>
      <trkpt lat="43.462429968640208" lon="-6.406209971755743">
        <ele>125.11</ele>
        <time>2025-04-29T15:13:26Z</time>
      </trkpt>
      <trkpt lat="43.461574008688331" lon="-6.406894018873572">
        <ele>118.86</ele>
        <time>2025-04-29T15:13:34Z</time>
      </trkpt>
      <trkpt lat="43.461389020085335" lon="-6.40708495862782">
        <ele>117.90000000000001</ele>
        <time>2025-04-29T15:13:36Z</time>
      </trkpt>
      <trkpt lat="43.461316013708711" lon="-6.407210016623139">
        <ele>117.42</ele>
        <time>2025-04-29T15:13:37Z</time>
      </trkpt>
      <trkpt lat="43.460704972967505" lon="-6.408453974872828">
        <ele>113.56999999999999</ele>
        <time>2025-04-29T15:13:45Z</time>
      </trkpt>
      <trkpt lat="43.460447983816266" lon="-6.40890902839601">
        <ele>111.65000000000001</ele>
        <time>2025-04-29T15:13:48Z</time>
      </trkpt>
      <trkpt lat="43.460288979113102" lon="-6.409169035032392">
        <ele>110.20999999999999</ele>
        <time>2025-04-29T15:13:50Z</time>
      </trkpt>
      <trkpt lat="43.460198035463691" lon="-6.409320998936892">
        <ele>109.73</ele>
        <time>2025-04-29T15:13:51Z</time>
      </trkpt>
      <trkpt lat="43.460182026028633" lon="-6.409430969506502">
        <ele>108.77</ele>
        <time>2025-04-29T15:13:52Z</time>
      </trkpt>
      <trkpt lat="43.460161993280053" lon="-6.4096400141716">
        <ele>107.81</ele>
        <time>2025-04-29T15:13:53Z</time>
      </trkpt>
      <trkpt lat="43.460213039070368" lon="-6.409779991954565">
        <ele>107.31999999999999</ele>
        <time>2025-04-29T15:13:54Z</time>
      </trkpt>
      <trkpt lat="43.460299037396908" lon="-6.40994100831449">
        <ele>106.84</ele>
        <time>2025-04-29T15:13:55Z</time>
      </trkpt>
      <trkpt lat="43.460387969389558" lon="-6.410071011632681">
        <ele>105.88</ele>
        <time>2025-04-29T15:13:56Z</time>
      </trkpt>
      <trkpt lat="43.46047698520124" lon="-6.410201014950872">
        <ele>104.92</ele>
        <time>2025-04-29T15:13:57Z</time>
      </trkpt>
      <trkpt lat="43.460716037079692" lon="-6.410453980788589">
        <ele>103.48</ele>
        <time>2025-04-29T15:13:59Z</time>
      </trkpt>
      <trkpt lat="43.460828019306064" lon="-6.410571997985244">
        <ele>102.52</ele>
        <time>2025-04-29T15:14:00Z</time>
      </trkpt>
      <trkpt lat="43.461424978449941" lon="-6.411096034571528">
        <ele>99.150000000000006</ele>
        <time>2025-04-29T15:14:05Z</time>
      </trkpt>
      <trkpt lat="43.461527992039919" lon="-6.411225032061338">
        <ele>98.670000000000002</ele>
        <time>2025-04-29T15:14:06Z</time>
      </trkpt>
      <trkpt lat="43.461594963446259" lon="-6.411375990137458">
        <ele>97.709999999999994</ele>
        <time>2025-04-29T15:14:07Z</time>
      </trkpt>
      <trkpt lat="43.461646009236574" lon="-6.411540023982525">
        <ele>97.230000000000004</ele>
        <time>2025-04-29T15:14:08Z</time>
      </trkpt>
      <trkpt lat="43.461676016449928" lon="-6.411720989271998">
        <ele>96.75</ele>
        <time>2025-04-29T15:14:09Z</time>
      </trkpt>
      <trkpt lat="43.461647015064955" lon="-6.411889968439937">
        <ele>96.269999999999996</ele>
        <time>2025-04-29T15:14:10Z</time>
      </trkpt>
      <trkpt lat="43.461608039215207" lon="-6.412076968699694">
        <ele>96.269999999999996</ele>
        <time>2025-04-29T15:14:11Z</time>
      </trkpt>
      <trkpt lat="43.461563028395176" lon="-6.412267992272973">
        <ele>95.790000000000006</ele>
        <time>2025-04-29T15:14:12Z</time>
      </trkpt>
      <trkpt lat="43.461490022018552" lon="-6.412463961169124">
        <ele>95.310000000000002</ele>
        <time>2025-04-29T15:14:13Z</time>
      </trkpt>
      <trkpt lat="43.461404023692012" lon="-6.412652973085642">
        <ele>94.829999999999998</ele>
        <time>2025-04-29T15:14:14Z</time>
      </trkpt>
      <trkpt lat="43.461301010102034" lon="-6.412821030244231">
        <ele>94.349999999999994</ele>
        <time>2025-04-29T15:14:15Z</time>
      </trkpt>
      <trkpt lat="43.461200008168817" lon="-6.412986991927028">
        <ele>93.870000000000005</ele>
        <time>2025-04-29T15:14:16Z</time>
      </trkpt>
      <trkpt lat="43.461095988750458" lon="-6.413139961659908">
        <ele>93.390000000000001</ele>
        <time>2025-04-29T15:14:17Z</time>
      </trkpt>
      <trkpt lat="43.46099297516048" lon="-6.413287986069918">
        <ele>92.900000000000006</ele>
        <time>2025-04-29T15:14:18Z</time>
      </trkpt>
      <trkpt lat="43.460770016536117" lon="-6.413684030994773">
        <ele>90.980000000000004</ele>
        <time>2025-04-29T15:14:21Z</time>
      </trkpt>
      <trkpt lat="43.460741015151143" lon="-6.413800036534667">
        <ele>90.019999999999996</ele>
        <time>2025-04-29T15:14:22Z</time>
      </trkpt>
      <trkpt lat="43.460750989615917" lon="-6.41389399766922">
        <ele>89.060000000000002</ele>
        <time>2025-04-29T15:14:23Z</time>
      </trkpt>
      <trkpt lat="43.46079901792109" lon="-6.414085021242499">
        <ele>87.620000000000005</ele>
        <time>2025-04-29T15:14:24Z</time>
      </trkpt>
      <trkpt lat="43.460846962407231" lon="-6.414154004305601">
        <ele>87.140000000000001</ele>
        <time>2025-04-29T15:14:25Z</time>
      </trkpt>
      <trkpt lat="43.461567973718047" lon="-6.415215991437435">
        <ele>83.769999999999996</ele>
        <time>2025-04-29T15:14:32Z</time>
      </trkpt>
      <trkpt lat="43.461671993136406" lon="-6.415372984483838">
        <ele>83.290000000000006</ele>
        <time>2025-04-29T15:14:33Z</time>
      </trkpt>
      <trkpt lat="43.462153030559421" lon="-6.415802976116538">
        <ele>81.370000000000005</ele>
        <time>2025-04-29T15:14:37Z</time>
      </trkpt>
      <trkpt lat="43.462280016392469" lon="-6.415878999978304">
        <ele>80.890000000000001</ele>
        <time>2025-04-29T15:14:38Z</time>
      </trkpt>
      <trkpt lat="43.462405996397138" lon="-6.415952006354928">
        <ele>80.409999999999997</ele>
        <time>2025-04-29T15:14:39Z</time>
      </trkpt>
      <trkpt lat="43.462557960301638" lon="-6.416036998853087">
        <ele>79.930000000000007</ele>
        <time>2025-04-29T15:14:40Z</time>
      </trkpt>
      <trkpt lat="43.462655022740364" lon="-6.416119979694486">
        <ele>79.450000000000003</ele>
        <time>2025-04-29T15:14:41Z</time>
      </trkpt>
      <trkpt lat="43.462760969996452" lon="-6.416260041296482">
        <ele>79.450000000000003</ele>
        <time>2025-04-29T15:14:42Z</time>
      </trkpt>
      <trkpt lat="43.462830036878586" lon="-6.416421979665756">
        <ele>79.450000000000003</ele>
        <time>2025-04-29T15:14:43Z</time>
      </trkpt>
      <trkpt lat="43.462864989414811" lon="-6.416574027389288">
        <ele>79.450000000000003</ele>
        <time>2025-04-29T15:14:44Z</time>
      </trkpt>
      <trkpt lat="43.462888039648533" lon="-6.416734959930182">
        <ele>78.969999999999999</ele>
        <time>2025-04-29T15:14:45Z</time>
      </trkpt>
      <trkpt lat="43.462899019941688" lon="-6.416884995996952">
        <ele>78.969999999999999</ele>
        <time>2025-04-29T15:14:46Z</time>
      </trkpt>
      <trkpt lat="43.462912011891603" lon="-6.417025979608297">
        <ele>78.969999999999999</ele>
        <time>2025-04-29T15:14:47Z</time>
      </trkpt>
      <trkpt lat="43.4629260096699" lon="-6.417177021503449">
        <ele>79.450000000000003</ele>
        <time>2025-04-29T15:14:48Z</time>
      </trkpt>
      <trkpt lat="43.462941013276577" lon="-6.417339965701103">
        <ele>79.450000000000003</ele>
        <time>2025-04-29T15:14:49Z</time>
      </trkpt>
      <trkpt lat="43.462974959984422" lon="-6.417659986764193">
        <ele>79.450000000000003</ele>
        <time>2025-04-29T15:14:51Z</time>
      </trkpt>
      <trkpt lat="43.463028017431498" lon="-6.417974978685379">
        <ele>78.969999999999999</ele>
        <time>2025-04-29T15:14:53Z</time>
      </trkpt>
      <trkpt lat="43.463056012988091" lon="-6.418140018358827">
        <ele>78.969999999999999</ele>
        <time>2025-04-29T15:14:54Z</time>
      </trkpt>
      <trkpt lat="43.46309800632298" lon="-6.418314026668668">
        <ele>78.480000000000004</ele>
        <time>2025-04-29T15:14:55Z</time>
      </trkpt>
      <trkpt lat="43.46324997022748" lon="-6.418631030246615">
        <ele>78</ele>
        <time>2025-04-29T15:14:57Z</time>
      </trkpt>
      <trkpt lat="43.463326999917626" lon="-6.418778970837593">
        <ele>78</ele>
        <time>2025-04-29T15:14:58Z</time>
      </trkpt>
      <trkpt lat="43.463424984365702" lon="-6.418908974155784">
        <ele>78</ele>
        <time>2025-04-29T15:14:59Z</time>
      </trkpt>
      <trkpt lat="43.463526992127299" lon="-6.419024979695678">
        <ele>77.519999999999996</ele>
        <time>2025-04-29T15:15:00Z</time>
      </trkpt>
      <trkpt lat="43.463633023202419" lon="-6.419144002720714">
        <ele>77.040000000000006</ele>
        <time>2025-04-29T15:15:01Z</time>
      </trkpt>
      <trkpt lat="43.463736036792397" lon="-6.419261014088988">
        <ele>77.040000000000006</ele>
        <time>2025-04-29T15:15:02Z</time>
      </trkpt>
      <trkpt lat="43.463837038725615" lon="-6.419375007972121">
        <ele>76.560000000000002</ele>
        <time>2025-04-29T15:15:03Z</time>
      </trkpt>
      <trkpt lat="43.463926976546645" lon="-6.41950199380517">
        <ele>76.079999999999998</ele>
        <time>2025-04-29T15:15:04Z</time>
      </trkpt>
      <trkpt lat="43.464106013998389" lon="-6.419918993487954">
        <ele>75.599999999999994</ele>
        <time>2025-04-29T15:15:07Z</time>
      </trkpt>
      <trkpt lat="43.464144989848137" lon="-6.420068023726344">
        <ele>75.120000000000005</ele>
        <time>2025-04-29T15:15:08Z</time>
      </trkpt>
      <trkpt lat="43.464137027040124" lon="-6.420228034257889">
        <ele>75.120000000000005</ele>
        <time>2025-04-29T15:15:09Z</time>
      </trkpt>
      <trkpt lat="43.464127974584699" lon="-6.420396007597446">
        <ele>75.120000000000005</ele>
        <time>2025-04-29T15:15:10Z</time>
      </trkpt>
      <trkpt lat="43.46412998624146" lon="-6.420573033392429">
        <ele>75.120000000000005</ele>
        <time>2025-04-29T15:15:11Z</time>
      </trkpt>
      <trkpt lat="43.464147001504898" lon="-6.420917026698589">
        <ele>75.120000000000005</ele>
        <time>2025-04-29T15:15:13Z</time>
      </trkpt>
      <trkpt lat="43.464154964312911" lon="-6.42109002918005">
        <ele>75.120000000000005</ele>
        <time>2025-04-29T15:15:14Z</time>
      </trkpt>
      <trkpt lat="43.464163010939956" lon="-6.421256996691227">
        <ele>75.120000000000005</ele>
        <time>2025-04-29T15:15:15Z</time>
      </trkpt>
      <trkpt lat="43.464180026203394" lon="-6.421613981947303">
        <ele>74.640000000000001</ele>
        <time>2025-04-29T15:15:17Z</time>
      </trkpt>
      <trkpt lat="43.464188994839787" lon="-6.421809028834105">
        <ele>74.640000000000001</ele>
        <time>2025-04-29T15:15:18Z</time>
      </trkpt>
      <trkpt lat="43.464182037860155" lon="-6.421969039365649">
        <ele>74.640000000000001</ele>
        <time>2025-04-29T15:15:19Z</time>
      </trkpt>
      <trkpt lat="43.46417399123311" lon="-6.422135001048446">
        <ele>74.640000000000001</ele>
        <time>2025-04-29T15:15:20Z</time>
      </trkpt>
      <trkpt lat="43.464169967919588" lon="-6.422291994094849">
        <ele>74.640000000000001</ele>
        <time>2025-04-29T15:15:21Z</time>
      </trkpt>
      <trkpt lat="43.464222019538283" lon="-6.42242300324142">
        <ele>74.159999999999997</ele>
        <time>2025-04-29T15:15:22Z</time>
      </trkpt>
      <trkpt lat="43.464293014258146" lon="-6.422544037923217">
        <ele>73.680000000000007</ele>
        <time>2025-04-29T15:15:23Z</time>
      </trkpt>
      <trkpt lat="43.46436602063477" lon="-6.422668006271124">
        <ele>73.200000000000003</ele>
        <time>2025-04-29T15:15:24Z</time>
      </trkpt>
      <trkpt lat="43.464759970083833" lon="-6.423335960134864">
        <ele>72.239999999999995</ele>
        <time>2025-04-29T15:15:29Z</time>
      </trkpt>
      <trkpt lat="43.464836999773979" lon="-6.423468980938196">
        <ele>71.760000000000005</ele>
        <time>2025-04-29T15:15:30Z</time>
      </trkpt>
      <trkpt lat="43.465706035494804" lon="-6.424686033278704">
        <ele>68.390000000000001</ele>
        <time>2025-04-29T15:15:41Z</time>
      </trkpt>
      <trkpt lat="43.466158993542194" lon="-6.425053998827934">
        <ele>67.430000000000007</ele>
        <time>2025-04-29T15:15:46Z</time>
      </trkpt>
      <trkpt lat="43.467214023694396" lon="-6.425564959645271">
        <ele>65.030000000000001</ele>
        <time>2025-04-29T15:15:55Z</time>
      </trkpt>
      <trkpt lat="43.469033986330032" lon="-6.426396025344729">
        <ele>64.069999999999993</ele>
        <time>2025-04-29T15:16:08Z</time>
      </trkpt>
      <trkpt lat="43.46941402181983" lon="-6.426585037261248">
        <ele>64.549999999999997</ele>
        <time>2025-04-29T15:16:11Z</time>
      </trkpt>
      <trkpt lat="43.469513012096286" lon="-6.426699031144381">
        <ele>64.549999999999997</ele>
        <time>2025-04-29T15:16:12Z</time>
      </trkpt>
      <trkpt lat="43.469595992937684" lon="-6.426821993663907">
        <ele>64.549999999999997</ele>
        <time>2025-04-29T15:16:13Z</time>
      </trkpt>
      <trkpt lat="43.469671010971069" lon="-6.426957026124001">
        <ele>64.069999999999993</ele>
        <time>2025-04-29T15:16:14Z</time>
      </trkpt>
      <trkpt lat="43.469740999862552" lon="-6.427083006128669">
        <ele>64.069999999999993</ele>
        <time>2025-04-29T15:16:15Z</time>
      </trkpt>
      <trkpt lat="43.469809982925653" lon="-6.427161041647196">
        <ele>64.069999999999993</ele>
        <time>2025-04-29T15:16:16Z</time>
      </trkpt>
      <trkpt lat="43.469918025657535" lon="-6.427237987518311">
        <ele>64.549999999999997</ele>
        <time>2025-04-29T15:16:17Z</time>
      </trkpt>
      <trkpt lat="43.46999597735703" lon="-6.427223989740014">
        <ele>64.549999999999997</ele>
        <time>2025-04-29T15:16:18Z</time>
      </trkpt>
      <trkpt lat="43.470379030331969" lon="-6.427156012505293">
        <ele>64.069999999999993</ele>
        <time>2025-04-29T15:16:21Z</time>
      </trkpt>
      <trkpt lat="43.470514984801412" lon="-6.427132040262222">
        <ele>63.579999999999998</ele>
        <time>2025-04-29T15:16:22Z</time>
      </trkpt>
      <trkpt lat="43.470654040575027" lon="-6.427111001685262">
        <ele>63.579999999999998</ele>
        <time>2025-04-29T15:16:23Z</time>
      </trkpt>
      <trkpt lat="43.47106902860105" lon="-6.42708501778543">
        <ele>62.619999999999997</ele>
        <time>2025-04-29T15:16:26Z</time>
      </trkpt>
      <trkpt lat="43.47119802609086" lon="-6.427104966714978">
        <ele>62.140000000000001</ele>
        <time>2025-04-29T15:16:27Z</time>
      </trkpt>
      <trkpt lat="43.471330041065812" lon="-6.42717101611197">
        <ele>61.659999999999997</ele>
        <time>2025-04-29T15:16:28Z</time>
      </trkpt>
      <trkpt lat="43.471454009413719" lon="-6.427245028316975">
        <ele>61.18</ele>
        <time>2025-04-29T15:16:29Z</time>
      </trkpt>
      <trkpt lat="43.47158501856029" lon="-6.427349969744682">
        <ele>61.18</ele>
        <time>2025-04-29T15:16:30Z</time>
      </trkpt>
      <trkpt lat="43.471687026321888" lon="-6.427487013861537">
        <ele>60.700000000000003</ele>
        <time>2025-04-29T15:16:31Z</time>
      </trkpt>
      <trkpt lat="43.471792973577976" lon="-6.427626991644502">
        <ele>60.219999999999999</ele>
        <time>2025-04-29T15:16:32Z</time>
      </trkpt>
      <trkpt lat="43.471903027966619" lon="-6.427774010226131">
        <ele>59.740000000000002</ele>
        <time>2025-04-29T15:16:33Z</time>
      </trkpt>
      <trkpt lat="43.471999000757933" lon="-6.427952041849494">
        <ele>59.740000000000002</ele>
        <time>2025-04-29T15:16:34Z</time>
      </trkpt>
      <trkpt lat="43.472082987427711" lon="-6.428129989653826">
        <ele>59.740000000000002</ele>
        <time>2025-04-29T15:16:35Z</time>
      </trkpt>
      <trkpt lat="43.472158005461097" lon="-6.428337022662163">
        <ele>59.740000000000002</ele>
        <time>2025-04-29T15:16:36Z</time>
      </trkpt>
      <trkpt lat="43.472213996574283" lon="-6.42854698933661">
        <ele>60.219999999999999</ele>
        <time>2025-04-29T15:16:37Z</time>
      </trkpt>
      <trkpt lat="43.47223000600934" lon="-6.428730972111225">
        <ele>60.700000000000003</ele>
        <time>2025-04-29T15:16:38Z</time>
      </trkpt>
      <trkpt lat="43.472247021272779" lon="-6.428936999291182">
        <ele>61.18</ele>
        <time>2025-04-29T15:16:39Z</time>
      </trkpt>
      <trkpt lat="43.472264036536217" lon="-6.429142020642757">
        <ele>61.659999999999997</ele>
        <time>2025-04-29T15:16:40Z</time>
      </trkpt>
      <trkpt lat="43.472322039306164" lon="-6.430378016084433">
        <ele>65.510000000000005</ele>
        <time>2025-04-29T15:16:46Z</time>
      </trkpt>
      <trkpt lat="43.47233603708446" lon="-6.430555041879416">
        <ele>65.989999999999995</ele>
        <time>2025-04-29T15:16:47Z</time>
      </trkpt>
      <trkpt lat="43.472364032641053" lon="-6.430725026875734">
        <ele>66.469999999999999</ele>
        <time>2025-04-29T15:16:48Z</time>
      </trkpt>
      <trkpt lat="43.472409965470433" lon="-6.430890988558531">
        <ele>66.950000000000003</ele>
        <time>2025-04-29T15:16:49Z</time>
      </trkpt>
      <trkpt lat="43.472476014867425" lon="-6.431049993261695">
        <ele>67.430000000000007</ele>
        <time>2025-04-29T15:16:50Z</time>
      </trkpt>
      <trkpt lat="43.47255002707243" lon="-6.431178990751505">
        <ele>67.909999999999997</ele>
        <time>2025-04-29T15:16:51Z</time>
      </trkpt>
      <trkpt lat="43.472653040662408" lon="-6.431282004341483">
        <ele>68.390000000000001</ele>
        <time>2025-04-29T15:16:52Z</time>
      </trkpt>
      <trkpt lat="43.472767034545541" lon="-6.431335983797908">
        <ele>69.349999999999994</ele>
        <time>2025-04-29T15:16:53Z</time>
      </trkpt>
      <trkpt lat="43.472898965701461" lon="-6.431390969082713">
        <ele>69.829999999999998</ele>
        <time>2025-04-29T15:16:54Z</time>
      </trkpt>
      <trkpt lat="43.473035003989935" lon="-6.431395998224616">
        <ele>70.310000000000002</ele>
        <time>2025-04-29T15:16:55Z</time>
      </trkpt>
      <trkpt lat="43.473187973722816" lon="-6.431389963254333">
        <ele>70.790000000000006</ele>
        <time>2025-04-29T15:16:56Z</time>
      </trkpt>
      <trkpt lat="43.47334697842598" lon="-6.431384012103081">
        <ele>71.269999999999996</ele>
        <time>2025-04-29T15:16:57Z</time>
      </trkpt>
      <trkpt lat="43.473814018070698" lon="-6.431334977969527">
        <ele>73.200000000000003</ele>
        <time>2025-04-29T15:17:00Z</time>
      </trkpt>
      <trkpt lat="43.474131021648645" lon="-6.431294996291399">
        <ele>74.640000000000001</ele>
        <time>2025-04-29T15:17:02Z</time>
      </trkpt>
      <trkpt lat="43.47429002635181" lon="-6.431280998513103">
        <ele>75.120000000000005</ele>
        <time>2025-04-29T15:17:03Z</time>
      </trkpt>
      <trkpt lat="43.474380970001221" lon="-6.431272029876709">
        <ele>75.599999999999994</ele>
        <time>2025-04-29T15:17:04Z</time>
      </trkpt>
      <trkpt lat="43.474511979147792" lon="-6.431347969919443">
        <ele>75.599999999999994</ele>
        <time>2025-04-29T15:17:05Z</time>
      </trkpt>
      <trkpt lat="43.474610969424248" lon="-6.43140597268939">
        <ele>76.079999999999998</ele>
        <time>2025-04-29T15:17:06Z</time>
      </trkpt>
      <trkpt lat="43.474667966365814" lon="-6.43149096518755">
        <ele>76.079999999999998</ele>
        <time>2025-04-29T15:17:07Z</time>
      </trkpt>
      <trkpt lat="43.474730998277664" lon="-6.431643012911081">
        <ele>76.079999999999998</ele>
        <time>2025-04-29T15:17:08Z</time>
      </trkpt>
      <trkpt lat="43.474751031026244" lon="-6.43179296515882">
        <ele>76.079999999999998</ele>
        <time>2025-04-29T15:17:09Z</time>
      </trkpt>
      <trkpt lat="43.474757988005877" lon="-6.431974014267325">
        <ele>76.560000000000002</ele>
        <time>2025-04-29T15:17:10Z</time>
      </trkpt>
      <trkpt lat="43.474765028804541" lon="-6.432151040062308">
        <ele>77.519999999999996</ele>
        <time>2025-04-29T15:17:11Z</time>
      </trkpt>
      <trkpt lat="43.474795036017895" lon="-6.432303003966808">
        <ele>78</ele>
        <time>2025-04-29T15:17:12Z</time>
      </trkpt>
      <trkpt lat="43.474841974675655" lon="-6.432454967871308">
        <ele>78.480000000000004</ele>
        <time>2025-04-29T15:17:13Z</time>
      </trkpt>
      <trkpt lat="43.474874999374151" lon="-6.432559993118048">
        <ele>78.969999999999999</ele>
        <time>2025-04-29T15:17:14Z</time>
      </trkpt>
      <trkpt lat="43.474985975772142" lon="-6.432713968679309">
        <ele>79.450000000000003</ele>
        <time>2025-04-29T15:17:15Z</time>
      </trkpt>
      <trkpt lat="43.475917037576437" lon="-6.433979971334338">
        <ele>86.180000000000007</ele>
        <time>2025-04-29T15:17:24Z</time>
      </trkpt>
      <trkpt lat="43.476034970954061" lon="-6.434086002409458">
        <ele>87.140000000000001</ele>
        <time>2025-04-29T15:17:25Z</time>
      </trkpt>
      <trkpt lat="43.476141002029181" lon="-6.434135958552361">
        <ele>88.099999999999994</ele>
        <time>2025-04-29T15:17:26Z</time>
      </trkpt>
      <trkpt lat="43.476264970377088" lon="-6.434181975200772">
        <ele>89.060000000000002</ele>
        <time>2025-04-29T15:17:27Z</time>
      </trkpt>
      <trkpt lat="43.476391034200788" lon="-6.434227991849184">
        <ele>90.019999999999996</ele>
        <time>2025-04-29T15:17:28Z</time>
      </trkpt>
      <trkpt lat="43.476463034749031" lon="-6.434254981577396">
        <ele>90.980000000000004</ele>
        <time>2025-04-29T15:17:29Z</time>
      </trkpt>
      <trkpt lat="43.476639976724982" lon="-6.434249030426145">
        <ele>91.939999999999998</ele>
        <time>2025-04-29T15:17:30Z</time>
      </trkpt>
      <trkpt lat="43.476811973378062" lon="-6.434241989627481">
        <ele>92.420000000000002</ele>
        <time>2025-04-29T15:17:31Z</time>
      </trkpt>
      <trkpt lat="43.477234002202749" lon="-6.434164959937334">
        <ele>93.870000000000005</ele>
        <time>2025-04-29T15:17:34Z</time>
      </trkpt>
      <trkpt lat="43.47736400552094" lon="-6.434112992137671">
        <ele>94.349999999999994</ele>
        <time>2025-04-29T15:17:35Z</time>
      </trkpt>
      <trkpt lat="43.477480011060834" lon="-6.433983994647861">
        <ele>92.420000000000002</ele>
        <time>2025-04-29T15:17:36Z</time>
      </trkpt>
      <trkpt lat="43.477543964982033" lon="-6.433859020471573">
        <ele>90.5</ele>
        <time>2025-04-29T15:17:37Z</time>
      </trkpt>
      <trkpt lat="43.477567015215755" lon="-6.433710996061564">
        <ele>90.5</ele>
        <time>2025-04-29T15:17:38Z</time>
      </trkpt>
      <trkpt lat="43.477591993287206" lon="-6.433556014671922">
        <ele>90.5</ele>
        <time>2025-04-29T15:17:39Z</time>
      </trkpt>
      <trkpt lat="43.477620994672179" lon="-6.433372031897306">
        <ele>90.5</ele>
        <time>2025-04-29T15:17:40Z</time>
      </trkpt>
      <trkpt lat="43.477652007713914" lon="-6.433172039687634">
        <ele>90.5</ele>
        <time>2025-04-29T15:17:41Z</time>
      </trkpt>
      <trkpt lat="43.47770900465548" lon="-6.432988978922367">
        <ele>90.019999999999996</ele>
        <time>2025-04-29T15:17:42Z</time>
      </trkpt>
      <trkpt lat="43.477776981890202" lon="-6.43282201141119">
        <ele>89.060000000000002</ele>
        <time>2025-04-29T15:17:43Z</time>
      </trkpt>
      <trkpt lat="43.477861974388361" lon="-6.432700976729393">
        <ele>88.099999999999994</ele>
        <time>2025-04-29T15:17:44Z</time>
      </trkpt>
      <trkpt lat="43.477980997413397" lon="-6.432625036686659">
        <ele>86.659999999999997</ele>
        <time>2025-04-29T15:17:45Z</time>
      </trkpt>
      <trkpt lat="43.478085016831756" lon="-6.432584971189499">
        <ele>86.180000000000007</ele>
        <time>2025-04-29T15:17:46Z</time>
      </trkpt>
      <trkpt lat="43.478218959644437" lon="-6.432601986452937">
        <ele>85.209999999999994</ele>
        <time>2025-04-29T15:17:47Z</time>
      </trkpt>
      <trkpt lat="43.478341000154614" lon="-6.432686978951097">
        <ele>83.769999999999996</ele>
        <time>2025-04-29T15:17:48Z</time>
      </trkpt>
      <trkpt lat="43.478443007916212" lon="-6.432798039168119">
        <ele>83.290000000000006</ele>
        <time>2025-04-29T15:17:49Z</time>
      </trkpt>
      <trkpt lat="43.478535963222384" lon="-6.432932987809181">
        <ele>82.329999999999998</ele>
        <time>2025-04-29T15:17:50Z</time>
      </trkpt>
      <trkpt lat="43.478606035932899" lon="-6.433075983077288">
        <ele>81.849999999999994</ele>
        <time>2025-04-29T15:17:51Z</time>
      </trkpt>
      <trkpt lat="43.47865498624742" lon="-6.433248985558748">
        <ele>81.370000000000005</ele>
        <time>2025-04-29T15:17:52Z</time>
      </trkpt>
      <trkpt lat="43.478703014552593" lon="-6.433416958898306">
        <ele>81.370000000000005</ele>
        <time>2025-04-29T15:17:53Z</time>
      </trkpt>
      <trkpt lat="43.478716006502509" lon="-6.433460963889957">
        <ele>81.370000000000005</ele>
        <time>2025-04-29T15:17:54Z</time>
      </trkpt>
      <trkpt lat="43.478862019255757" lon="-6.433558026328683">
        <ele>81.849999999999994</ele>
        <time>2025-04-29T15:17:55Z</time>
      </trkpt>
      <trkpt lat="43.47890904173255" lon="-6.433589961379767">
        <ele>82.329999999999998</ele>
        <time>2025-04-29T15:17:56Z</time>
      </trkpt>
      <trkpt lat="43.478967966511846" lon="-6.433549979701638">
        <ele>82.810000000000002</ele>
        <time>2025-04-29T15:17:57Z</time>
      </trkpt>
      <trkpt lat="43.479068968445063" lon="-6.433483008295298">
        <ele>83.290000000000006</ele>
        <time>2025-04-29T15:17:58Z</time>
      </trkpt>
      <trkpt lat="43.479167958721519" lon="-6.433414025232196">
        <ele>83.769999999999996</ele>
        <time>2025-04-29T15:17:59Z</time>
      </trkpt>
      <trkpt lat="43.479231996461749" lon="-6.433247979730368">
        <ele>84.25</ele>
        <time>2025-04-29T15:18:00Z</time>
      </trkpt>
      <trkpt lat="43.479307014495134" lon="-6.433052010834217">
        <ele>83.769999999999996</ele>
        <time>2025-04-29T15:18:01Z</time>
      </trkpt>
      <trkpt lat="43.479393012821674" lon="-6.432832991704345">
        <ele>82.810000000000002</ele>
        <time>2025-04-29T15:18:02Z</time>
      </trkpt>
      <trkpt lat="43.479588981717825" lon="-6.432423032820225">
        <ele>80.409999999999997</ele>
        <time>2025-04-29T15:18:04Z</time>
      </trkpt>
      <trkpt lat="43.479702975600958" lon="-6.432265033945441">
        <ele>80.409999999999997</ele>
        <time>2025-04-29T15:18:05Z</time>
      </trkpt>
      <trkpt lat="43.479808000847697" lon="-6.432120027020574">
        <ele>80.409999999999997</ele>
        <time>2025-04-29T15:18:06Z</time>
      </trkpt>
      <trkpt lat="43.479887964203954" lon="-6.431947024539113">
        <ele>80.890000000000001</ele>
        <time>2025-04-29T15:18:07Z</time>
      </trkpt>
      <trkpt lat="43.479956025257707" lon="-6.431777039542794">
        <ele>80.890000000000001</ele>
        <time>2025-04-29T15:18:08Z</time>
      </trkpt>
      <trkpt lat="43.480029031634331" lon="-6.431594984605908">
        <ele>80.890000000000001</ele>
        <time>2025-04-29T15:18:09Z</time>
      </trkpt>
      <trkpt lat="43.480100026354194" lon="-6.431417958810926">
        <ele>80.890000000000001</ele>
        <time>2025-04-29T15:18:10Z</time>
      </trkpt>
      <trkpt lat="43.480189964175224" lon="-6.431265994906426">
        <ele>80.890000000000001</ele>
        <time>2025-04-29T15:18:11Z</time>
      </trkpt>
      <trkpt lat="43.480293983593583" lon="-6.431136997416616">
        <ele>80.890000000000001</ele>
        <time>2025-04-29T15:18:12Z</time>
      </trkpt>
      <trkpt lat="43.480400014668703" lon="-6.431006994098425">
        <ele>80.890000000000001</ele>
        <time>2025-04-29T15:18:13Z</time>
      </trkpt>
      <trkpt lat="43.480611992999911" lon="-6.430788980796933">
        <ele>80.890000000000001</ele>
        <time>2025-04-29T15:18:15Z</time>
      </trkpt>
      <trkpt lat="43.480727998539805" lon="-6.430745981633663">
        <ele>80.890000000000001</ele>
        <time>2025-04-29T15:18:16Z</time>
      </trkpt>
      <trkpt lat="43.480812991037965" lon="-6.430765008553863">
        <ele>80.409999999999997</ele>
        <time>2025-04-29T15:18:17Z</time>
      </trkpt>
      <trkpt lat="43.480928996577859" lon="-6.43082301132381">
        <ele>80.409999999999997</ele>
        <time>2025-04-29T15:18:18Z</time>
      </trkpt>
      <trkpt lat="43.481033015996218" lon="-6.430893000215292">
        <ele>80.409999999999997</ele>
        <time>2025-04-29T15:18:19Z</time>
      </trkpt>
      <trkpt lat="43.481131000444293" lon="-6.431027026847005">
        <ele>79.450000000000003</ele>
        <time>2025-04-29T15:18:20Z</time>
      </trkpt>
      <trkpt lat="43.481229990720749" lon="-6.431161975488067">
        <ele>79.450000000000003</ele>
        <time>2025-04-29T15:18:21Z</time>
      </trkpt>
      <trkpt lat="43.481362005695701" lon="-6.431257026270032">
        <ele>79.450000000000003</ele>
        <time>2025-04-29T15:18:22Z</time>
      </trkpt>
      <trkpt lat="43.481484968215227" lon="-6.431331960484386">
        <ele>79.930000000000007</ele>
        <time>2025-04-29T15:18:23Z</time>
      </trkpt>
      <trkpt lat="43.481628969311714" lon="-6.431376971304417">
        <ele>79.930000000000007</ele>
        <time>2025-04-29T15:18:24Z</time>
      </trkpt>
      <trkpt lat="43.481770036742091" lon="-6.43140303902328">
        <ele>79.930000000000007</ele>
        <time>2025-04-29T15:18:25Z</time>
      </trkpt>
      <trkpt lat="43.481914037838578" lon="-6.431408990174532">
        <ele>79.930000000000007</ele>
        <time>2025-04-29T15:18:26Z</time>
      </trkpt>
      <trkpt lat="43.482049992308021" lon="-6.431366996839643">
        <ele>79.930000000000007</ele>
        <time>2025-04-29T15:18:27Z</time>
      </trkpt>
      <trkpt lat="43.482173960655928" lon="-6.431322991847992">
        <ele>79.450000000000003</ele>
        <time>2025-04-29T15:18:28Z</time>
      </trkpt>
      <trkpt lat="43.482287032529712" lon="-6.431260965764523">
        <ele>78.480000000000004</ele>
        <time>2025-04-29T15:18:29Z</time>
      </trkpt>
      <trkpt lat="43.482390968129039" lon="-6.431203968822956">
        <ele>77.519999999999996</ele>
        <time>2025-04-29T15:18:30Z</time>
      </trkpt>
      <trkpt lat="43.482586015015841" lon="-6.431098021566868">
        <ele>75.120000000000005</ele>
        <time>2025-04-29T15:18:32Z</time>
      </trkpt>
      <trkpt lat="43.482676958665252" lon="-6.43108100630343">
        <ele>73.200000000000003</ele>
        <time>2025-04-29T15:18:33Z</time>
      </trkpt>
      <trkpt lat="43.482780978083611" lon="-6.431084023788571">
        <ele>72.239999999999995</ele>
        <time>2025-04-29T15:18:34Z</time>
      </trkpt>
      <trkpt lat="43.482894971966743" lon="-6.431087041273713">
        <ele>72.239999999999995</ele>
        <time>2025-04-29T15:18:35Z</time>
      </trkpt>
      <trkpt lat="43.483020029962063" lon="-6.431090980768204">
        <ele>72.239999999999995</ele>
        <time>2025-04-29T15:18:36Z</time>
      </trkpt>
      <trkpt lat="43.483151039108634" lon="-6.431095004081726">
        <ele>71.760000000000005</ele>
        <time>2025-04-29T15:18:37Z</time>
      </trkpt>
      <trkpt lat="43.483295040205121" lon="-6.431099027395248">
        <ele>71.760000000000005</ele>
        <time>2025-04-29T15:18:38Z</time>
      </trkpt>
      <trkpt lat="43.483436023816466" lon="-6.431087963283062">
        <ele>71.760000000000005</ele>
        <time>2025-04-29T15:18:39Z</time>
      </trkpt>
      <trkpt lat="43.483566027134657" lon="-6.431073965504766">
        <ele>71.269999999999996</ele>
        <time>2025-04-29T15:18:40Z</time>
      </trkpt>
      <trkpt lat="43.484098026528955" lon="-6.431033983826637">
        <ele>69.349999999999994</ele>
        <time>2025-04-29T15:18:44Z</time>
      </trkpt>
      <trkpt lat="43.484231969341636" lon="-6.431024009361863">
        <ele>68.870000000000005</ele>
        <time>2025-04-29T15:18:45Z</time>
      </trkpt>
      <trkpt lat="43.484470015391707" lon="-6.430914960801601">
        <ele>67.909999999999997</ele>
        <time>2025-04-29T15:18:47Z</time>
      </trkpt>
      <trkpt lat="43.484564982354641" lon="-6.430828962475061">
        <ele>67.909999999999997</ele>
        <time>2025-04-29T15:18:48Z</time>
      </trkpt>
      <trkpt lat="43.484638994559646" lon="-6.430731983855367">
        <ele>67.909999999999997</ele>
        <time>2025-04-29T15:18:49Z</time>
      </trkpt>
      <trkpt lat="43.484719963744283" lon="-6.430621007457376">
        <ele>67.430000000000007</ele>
        <time>2025-04-29T15:18:50Z</time>
      </trkpt>
      <trkpt lat="43.484822977334261" lon="-6.430508019402623">
        <ele>66.469999999999999</ele>
        <time>2025-04-29T15:18:51Z</time>
      </trkpt>
      <trkpt lat="43.484946023672819" lon="-6.430423026904464">
        <ele>65.510000000000005</ele>
        <time>2025-04-29T15:18:52Z</time>
      </trkpt>
      <trkpt lat="43.485068986192346" lon="-6.430354965850711">
        <ele>64.069999999999993</ele>
        <time>2025-04-29T15:18:53Z</time>
      </trkpt>
      <trkpt lat="43.485193038359284" lon="-6.430309033021331">
        <ele>62.619999999999997</ele>
        <time>2025-04-29T15:18:54Z</time>
      </trkpt>
      <trkpt lat="43.486471027135849" lon="-6.4298340305686">
        <ele>52.530000000000001</ele>
        <time>2025-04-29T15:19:03Z</time>
      </trkpt>
      <trkpt lat="43.486597007140517" lon="-6.429777033627033">
        <ele>52.049999999999997</ele>
        <time>2025-04-29T15:19:04Z</time>
      </trkpt>
      <trkpt lat="43.486720975488424" lon="-6.429668990895152">
        <ele>51.090000000000003</ele>
        <time>2025-04-29T15:19:05Z</time>
      </trkpt>
      <trkpt lat="43.487467970699072" lon="-6.428958037868142">
        <ele>47.719999999999999</ele>
        <time>2025-04-29T15:19:11Z</time>
      </trkpt>
      <trkpt lat="43.487594034522772" lon="-6.428814036771655">
        <ele>47.719999999999999</ele>
        <time>2025-04-29T15:19:12Z</time>
      </trkpt>
      <trkpt lat="43.488757023587823" lon="-6.427039001137018">
        <ele>41.950000000000003</ele>
        <time>2025-04-29T15:19:23Z</time>
      </trkpt>
      <trkpt lat="43.489431012421846" lon="-6.426069969311357">
        <ele>39.07</ele>
        <time>2025-04-29T15:19:30Z</time>
      </trkpt>
      <trkpt lat="43.489524973556399" lon="-6.426064018160105">
        <ele>39.07</ele>
        <time>2025-04-29T15:19:31Z</time>
      </trkpt>
      <trkpt lat="43.489626981317997" lon="-6.426073992624879">
        <ele>38.590000000000003</ele>
        <time>2025-04-29T15:19:32Z</time>
      </trkpt>
      <trkpt lat="43.489690013229847" lon="-6.426090002059937">
        <ele>38.590000000000003</ele>
        <time>2025-04-29T15:19:33Z</time>
      </trkpt>
      <trkpt lat="43.489780034869909" lon="-6.42620399594307">
        <ele>38.109999999999999</ele>
        <time>2025-04-29T15:19:34Z</time>
      </trkpt>
      <trkpt lat="43.489876007661223" lon="-6.426325030624867">
        <ele>37.149999999999999</ele>
        <time>2025-04-29T15:19:35Z</time>
      </trkpt>
      <trkpt lat="43.489978015422821" lon="-6.426454028114677">
        <ele>36.189999999999998</ele>
        <time>2025-04-29T15:19:36Z</time>
      </trkpt>
      <trkpt lat="43.490091003477573" lon="-6.426596017554402">
        <ele>34.740000000000002</ele>
        <time>2025-04-29T15:19:37Z</time>
      </trkpt>
      <trkpt lat="43.49021203815937" lon="-6.426747981458902">
        <ele>33.299999999999997</ele>
        <time>2025-04-29T15:19:38Z</time>
      </trkpt>
      <trkpt lat="43.490344975143671" lon="-6.426902040839195">
        <ele>32.340000000000003</ele>
        <time>2025-04-29T15:19:39Z</time>
      </trkpt>
      <trkpt lat="43.490477995947003" lon="-6.427046963945031">
        <ele>31.379999999999999</ele>
        <time>2025-04-29T15:19:40Z</time>
      </trkpt>
      <trkpt lat="43.490637000650167" lon="-6.427132040262222">
        <ele>29.940000000000001</ele>
        <time>2025-04-29T15:19:41Z</time>
      </trkpt>
      <trkpt lat="43.490802962332964" lon="-6.427208986133337">
        <ele>28.98</ele>
        <time>2025-04-29T15:19:42Z</time>
      </trkpt>
      <trkpt lat="43.490961967036128" lon="-6.427282998338342">
        <ele>28.02</ele>
        <time>2025-04-29T15:19:43Z</time>
      </trkpt>
      <trkpt lat="43.491981960833073" lon="-6.427637971937656">
        <ele>22.25</ele>
        <time>2025-04-29T15:19:50Z</time>
      </trkpt>
      <trkpt lat="43.492771033197641" lon="-6.42792496830225">
        <ele>19.359999999999999</ele>
        <time>2025-04-29T15:19:55Z</time>
      </trkpt>
      <trkpt lat="43.49339003674686" lon="-6.428562998771668">
        <ele>18.879999999999999</ele>
        <time>2025-04-29T15:20:00Z</time>
      </trkpt>
      <trkpt lat="43.493491038680077" lon="-6.428731977939606">
        <ele>19.359999999999999</ele>
        <time>2025-04-29T15:20:01Z</time>
      </trkpt>
      <trkpt lat="43.493544012308121" lon="-6.428925013169646">
        <ele>19.84</ele>
        <time>2025-04-29T15:20:02Z</time>
      </trkpt>
      <trkpt lat="43.493574019521475" lon="-6.429120982065797">
        <ele>20.809999999999999</ele>
        <time>2025-04-29T15:20:03Z</time>
      </trkpt>
      <trkpt lat="43.49360796622932" lon="-6.42934100702405">
        <ele>21.289999999999999</ele>
        <time>2025-04-29T15:20:04Z</time>
      </trkpt>
      <trkpt lat="43.493569996207952" lon="-6.429558014497161">
        <ele>22.25</ele>
        <time>2025-04-29T15:20:05Z</time>
      </trkpt>
      <trkpt lat="43.49339397624135" lon="-6.430602986365557">
        <ele>24.649999999999999</ele>
        <time>2025-04-29T15:20:10Z</time>
      </trkpt>
      <trkpt lat="43.493420965969563" lon="-6.430785963311791">
        <ele>25.129999999999999</ele>
        <time>2025-04-29T15:20:11Z</time>
      </trkpt>
      <trkpt lat="43.493526997044683" lon="-6.431181002408266">
        <ele>26.57</ele>
        <time>2025-04-29T15:20:13Z</time>
      </trkpt>
      <trkpt lat="43.493620958179235" lon="-6.431337995454669">
        <ele>26.57</ele>
        <time>2025-04-29T15:20:14Z</time>
      </trkpt>
      <trkpt lat="43.494326965883374" lon="-6.43237098120153">
        <ele>28.5</ele>
        <time>2025-04-29T15:20:21Z</time>
      </trkpt>
      <trkpt lat="43.494424028322101" lon="-6.432421021163464">
        <ele>28.5</ele>
        <time>2025-04-29T15:20:22Z</time>
      </trkpt>
      <trkpt lat="43.49450902082026" lon="-6.432452034205198">
        <ele>28.5</ele>
        <time>2025-04-29T15:20:23Z</time>
      </trkpt>
      <trkpt lat="43.494601976126432" lon="-6.432382967323065">
        <ele>28.5</ele>
        <time>2025-04-29T15:20:24Z</time>
      </trkpt>
      <trkpt lat="43.494693003594875" lon="-6.432299986481667">
        <ele>28.5</ele>
        <time>2025-04-29T15:20:25Z</time>
      </trkpt>
      <trkpt lat="43.494770033285022" lon="-6.432159002870321">
        <ele>28.5</ele>
        <time>2025-04-29T15:20:26Z</time>
      </trkpt>
      <trkpt lat="43.494838010519743" lon="-6.431993041187525">
        <ele>28.5</ele>
        <time>2025-04-29T15:20:27Z</time>
      </trkpt>
      <trkpt lat="43.494958961382508" lon="-6.431593978777528">
        <ele>28.5</ele>
        <time>2025-04-29T15:20:29Z</time>
      </trkpt>
      <trkpt lat="43.494976982474327" lon="-6.431418964639306">
        <ele>28.98</ele>
        <time>2025-04-29T15:20:30Z</time>
      </trkpt>
      <trkpt lat="43.495128024369478" lon="-6.429416025057435">
        <ele>28.5</ele>
        <time>2025-04-29T15:20:39Z</time>
      </trkpt>
      <trkpt lat="43.495176974684" lon="-6.429222989827395">
        <ele>28.98</ele>
        <time>2025-04-29T15:20:40Z</time>
      </trkpt>
      <trkpt lat="43.495229026302695" lon="-6.429034983739257">
        <ele>28.98</ele>
        <time>2025-04-29T15:20:41Z</time>
      </trkpt>
      <trkpt lat="43.495311001315713" lon="-6.428852006793022">
        <ele>29.460000000000001</ele>
        <time>2025-04-29T15:20:42Z</time>
      </trkpt>
      <trkpt lat="43.495392976328731" lon="-6.428671963512898">
        <ele>29.460000000000001</ele>
        <time>2025-04-29T15:20:43Z</time>
      </trkpt>
      <trkpt lat="43.495489032939076" lon="-6.42852796241641">
        <ele>29.460000000000001</ele>
        <time>2025-04-29T15:20:44Z</time>
      </trkpt>
      <trkpt lat="43.495702017098665" lon="-6.42826703377068">
        <ele>29.940000000000001</ele>
        <time>2025-04-29T15:20:46Z</time>
      </trkpt>
      <trkpt lat="43.495834032073617" lon="-6.428179023787379">
        <ele>29.940000000000001</ele>
        <time>2025-04-29T15:20:47Z</time>
      </trkpt>
      <trkpt lat="43.495987001806498" lon="-6.428124960511923">
        <ele>29.940000000000001</ele>
        <time>2025-04-29T15:20:48Z</time>
      </trkpt>
      <trkpt lat="43.496149023994803" lon="-6.428079027682543">
        <ele>29.940000000000001</ele>
        <time>2025-04-29T15:20:49Z</time>
      </trkpt>
      <trkpt lat="43.496294030919671" lon="-6.428037034347653">
        <ele>29.940000000000001</ele>
        <time>2025-04-29T15:20:50Z</time>
      </trkpt>
      <trkpt lat="43.496405007317662" lon="-6.428079027682543">
        <ele>29.460000000000001</ele>
        <time>2025-04-29T15:20:51Z</time>
      </trkpt>
      <trkpt lat="43.496526964008808" lon="-6.4281399641186">
        <ele>29.460000000000001</ele>
        <time>2025-04-29T15:20:52Z</time>
      </trkpt>
      <trkpt lat="43.496601982042193" lon="-6.42822302877903">
        <ele>29.460000000000001</ele>
        <time>2025-04-29T15:20:53Z</time>
      </trkpt>
      <trkpt lat="43.496686974540353" lon="-6.428378010168672">
        <ele>29.460000000000001</ele>
        <time>2025-04-29T15:20:54Z</time>
      </trkpt>
      <trkpt lat="43.496774984523654" lon="-6.428539026528597">
        <ele>29.940000000000001</ele>
        <time>2025-04-29T15:20:55Z</time>
      </trkpt>
      <trkpt lat="43.496856037527323" lon="-6.428706999868155">
        <ele>29.940000000000001</ele>
        <time>2025-04-29T15:20:56Z</time>
      </trkpt>
      <trkpt lat="43.497008001431823" lon="-6.429078988730907">
        <ele>30.899999999999999</ele>
        <time>2025-04-29T15:20:58Z</time>
      </trkpt>
      <trkpt lat="43.497140016406775" lon="-6.429468998685479">
        <ele>31.859999999999999</ele>
        <time>2025-04-29T15:21:00Z</time>
      </trkpt>
      <trkpt lat="43.497187960892916" lon="-6.429671002551913">
        <ele>32.340000000000003</ele>
        <time>2025-04-29T15:21:01Z</time>
      </trkpt>
      <trkpt lat="43.497231965884566" lon="-6.429865965619683">
        <ele>32.340000000000003</ele>
        <time>2025-04-29T15:21:02Z</time>
      </trkpt>
      <trkpt lat="43.497275970876217" lon="-6.430062018334866">
        <ele>32.82</ele>
        <time>2025-04-29T15:21:03Z</time>
      </trkpt>
      <trkpt lat="43.497319975867867" lon="-6.430255975574255">
        <ele>32.82</ele>
        <time>2025-04-29T15:21:04Z</time>
      </trkpt>
      <trkpt lat="43.497397005558014" lon="-6.430441970005631">
        <ele>33.299999999999997</ele>
        <time>2025-04-29T15:21:05Z</time>
      </trkpt>
      <trkpt lat="43.497485015541315" lon="-6.43058898858726">
        <ele>33.780000000000001</ele>
        <time>2025-04-29T15:21:06Z</time>
      </trkpt>
      <trkpt lat="43.497567996382713" lon="-6.430727038532496">
        <ele>34.259999999999998</ele>
        <time>2025-04-29T15:21:07Z</time>
      </trkpt>
      <trkpt lat="43.497644020244479" lon="-6.430854024365544">
        <ele>34.740000000000002</ele>
        <time>2025-04-29T15:21:08Z</time>
      </trkpt>
      <trkpt lat="43.497719960287213" lon="-6.430943040177226">
        <ele>35.229999999999997</ele>
        <time>2025-04-29T15:21:09Z</time>
      </trkpt>
      <trkpt lat="43.497803024947643" lon="-6.431026021018624">
        <ele>35.710000000000001</ele>
        <time>2025-04-29T15:21:10Z</time>
      </trkpt>
      <trkpt lat="43.497891034930944" lon="-6.431074971333146">
        <ele>36.189999999999998</ele>
        <time>2025-04-29T15:21:11Z</time>
      </trkpt>
      <trkpt lat="43.497996982187033" lon="-6.431155018508434">
        <ele>36.670000000000002</ele>
        <time>2025-04-29T15:21:12Z</time>
      </trkpt>
      <trkpt lat="43.498964002355933" lon="-6.431864965707064">
        <ele>40.030000000000001</ele>
        <time>2025-04-29T15:21:22Z</time>
      </trkpt>
      <trkpt lat="43.499062992632389" lon="-6.431909976527095">
        <ele>40.509999999999998</ele>
        <time>2025-04-29T15:21:23Z</time>
      </trkpt>
      <trkpt lat="43.499157959595323" lon="-6.431943001225591">
        <ele>40.990000000000002</ele>
        <time>2025-04-29T15:21:24Z</time>
      </trkpt>
      <trkpt lat="43.499356023967266" lon="-6.431976025924087">
        <ele>41.950000000000003</ele>
        <time>2025-04-29T15:21:26Z</time>
      </trkpt>
      <trkpt lat="43.499877965077758" lon="-6.432083984836936">
        <ele>43.399999999999999</ele>
        <time>2025-04-29T15:21:31Z</time>
      </trkpt>
      <trkpt lat="43.500207960605621" lon="-6.432204013690352">
        <ele>44.359999999999999</ele>
        <time>2025-04-29T15:21:34Z</time>
      </trkpt>
      <trkpt lat="43.500309968367219" lon="-6.432277020066977">
        <ele>44.359999999999999</ele>
        <time>2025-04-29T15:21:35Z</time>
      </trkpt>
      <trkpt lat="43.500739959999919" lon="-6.432596035301685">
        <ele>44.359999999999999</ele>
        <time>2025-04-29T15:21:39Z</time>
      </trkpt>
      <trkpt lat="43.500844985246658" lon="-6.432673987001181">
        <ele>44.840000000000003</ele>
        <time>2025-04-29T15:21:40Z</time>
      </trkpt>
      <trkpt lat="43.501533977687359" lon="-6.433297013863921">
        <ele>44.840000000000003</ele>
        <time>2025-04-29T15:21:47Z</time>
      </trkpt>
      <trkpt lat="43.501616036519408" lon="-6.43340396694839">
        <ele>44.359999999999999</ele>
        <time>2025-04-29T15:21:48Z</time>
      </trkpt>
      <trkpt lat="43.501682002097368" lon="-6.433501029387116">
        <ele>43.880000000000003</ele>
        <time>2025-04-29T15:21:49Z</time>
      </trkpt>
      <trkpt lat="43.501733969897032" lon="-6.433644024655223">
        <ele>42.920000000000002</ele>
        <time>2025-04-29T15:21:50Z</time>
      </trkpt>
      <trkpt lat="43.501780992373824" lon="-6.433786014094949">
        <ele>42.439999999999998</ele>
        <time>2025-04-29T15:21:51Z</time>
      </trkpt>
      <trkpt lat="43.501810999587178" lon="-6.433924986049533">
        <ele>41.469999999999999</ele>
        <time>2025-04-29T15:21:52Z</time>
      </trkpt>
      <trkpt lat="43.501828014850616" lon="-6.434082984924316">
        <ele>40.509999999999998</ele>
        <time>2025-04-29T15:21:53Z</time>
      </trkpt>
      <trkpt lat="43.501862967386842" lon="-6.435340018942952">
        <ele>37.149999999999999</ele>
        <time>2025-04-29T15:22:02Z</time>
      </trkpt>
      <trkpt lat="43.501887023448944" lon="-6.435646964237094">
        <ele>36.189999999999998</ele>
        <time>2025-04-29T15:22:04Z</time>
      </trkpt>
      <trkpt lat="43.501906972378492" lon="-6.435795994475484">
        <ele>36.189999999999998</ele>
        <time>2025-04-29T15:22:05Z</time>
      </trkpt>
      <trkpt lat="43.501957012340426" lon="-6.435930021107197">
        <ele>35.710000000000001</ele>
        <time>2025-04-29T15:22:06Z</time>
      </trkpt>
      <trkpt lat="43.502019038423896" lon="-6.436078967526555">
        <ele>34.740000000000002</ele>
        <time>2025-04-29T15:22:08Z</time>
      </trkpt>
      <trkpt lat="43.502165973186493" lon="-6.43625901080668">
        <ele>34.259999999999998</ele>
        <time>2025-04-29T15:22:09Z</time>
      </trkpt>
      <trkpt lat="43.502236967906356" lon="-6.436334028840065">
        <ele>33.780000000000001</ele>
        <time>2025-04-29T15:22:10Z</time>
      </trkpt>
      <trkpt lat="43.50233000703156" lon="-6.436407035216689">
        <ele>33.780000000000001</ele>
        <time>2025-04-29T15:22:11Z</time>
      </trkpt>
      <trkpt lat="43.502406030893326" lon="-6.436465037986636">
        <ele>33.299999999999997</ele>
        <time>2025-04-29T15:22:12Z</time>
      </trkpt>
      <trkpt lat="43.50250200368464" lon="-6.43651801161468">
        <ele>33.299999999999997</ele>
        <time>2025-04-29T15:22:13Z</time>
      </trkpt>
      <trkpt lat="43.502598982304335" lon="-6.436569979414344">
        <ele>33.299999999999997</ele>
        <time>2025-04-29T15:22:14Z</time>
      </trkpt>
      <trkpt lat="43.502687998116016" lon="-6.436609039083123">
        <ele>33.299999999999997</ele>
        <time>2025-04-29T15:22:15Z</time>
      </trkpt>
      <trkpt lat="43.502799980342388" lon="-6.43664600327611">
        <ele>32.82</ele>
        <time>2025-04-29T15:22:16Z</time>
      </trkpt>
      <trkpt lat="43.503542030230165" lon="-6.436657989397645">
        <ele>31.379999999999999</ele>
        <time>2025-04-29T15:22:23Z</time>
      </trkpt>
      <trkpt lat="43.503664992749691" lon="-6.436599986627698">
        <ele>31.379999999999999</ele>
        <time>2025-04-29T15:22:24Z</time>
      </trkpt>
      <trkpt lat="43.504959996789694" lon="-6.435941001400352">
        <ele>30.899999999999999</ele>
        <time>2025-04-29T15:22:34Z</time>
      </trkpt>
      <trkpt lat="43.506616009399295" lon="-6.43505503423512">
        <ele>25.609999999999999</ele>
        <time>2025-04-29T15:22:45Z</time>
      </trkpt>
      <trkpt lat="43.507744967937469" lon="-6.434354977682233">
        <ele>22.25</ele>
        <time>2025-04-29T15:22:54Z</time>
      </trkpt>
      <trkpt lat="43.507877988740802" lon="-6.434136964380741">
        <ele>22.25</ele>
        <time>2025-04-29T15:22:55Z</time>
      </trkpt>
      <trkpt lat="43.508379980921745" lon="-6.434214999899268">
        <ele>21.289999999999999</ele>
        <time>2025-04-29T15:22:58Z</time>
      </trkpt>
      <trkpt lat="43.508546026423573" lon="-6.434138976037502">
        <ele>21.289999999999999</ele>
        <time>2025-04-29T15:22:59Z</time>
      </trkpt>
      <trkpt lat="43.508697990328074" lon="-6.434043003246188">
        <ele>20.809999999999999</ele>
        <time>2025-04-29T15:23:00Z</time>
      </trkpt>
      <trkpt lat="43.508852971717715" lon="-6.433946024626494">
        <ele>20.809999999999999</ele>
        <time>2025-04-29T15:23:01Z</time>
      </trkpt>
      <trkpt lat="43.509011976420879" lon="-6.43383395858109">
        <ele>20.32</ele>
        <time>2025-04-29T15:23:02Z</time>
      </trkpt>
      <trkpt lat="43.509762994945049" lon="-6.433299025520682">
        <ele>19.359999999999999</ele>
        <time>2025-04-29T15:23:08Z</time>
      </trkpt>
      <trkpt lat="43.510703025385737" lon="-6.432885965332389">
        <ele>18.879999999999999</ele>
        <time>2025-04-29T15:23:16Z</time>
      </trkpt>
      <trkpt lat="43.51083998568356" lon="-6.432890994474292">
        <ele>18.399999999999999</ele>
        <time>2025-04-29T15:23:17Z</time>
      </trkpt>
      <trkpt lat="43.512259963899851" lon="-6.433031978085637">
        <ele>18.879999999999999</ele>
        <time>2025-04-29T15:23:26Z</time>
      </trkpt>
      <trkpt lat="43.513918993994594" lon="-6.433268012478948">
        <ele>19.359999999999999</ele>
        <time>2025-04-29T15:23:36Z</time>
      </trkpt>
      <trkpt lat="43.515805006027222" lon="-6.433649975806475">
        <ele>22.25</ele>
        <time>2025-04-29T15:23:47Z</time>
      </trkpt>
      <trkpt lat="43.516140030696988" lon="-6.433824989944696">
        <ele>22.25</ele>
        <time>2025-04-29T15:23:49Z</time>
      </trkpt>
      <trkpt lat="43.517409972846508" lon="-6.434814976528287">
        <ele>22.73</ele>
        <time>2025-04-29T15:23:57Z</time>
      </trkpt>
      <trkpt lat="43.518460979685187" lon="-6.435562977567315">
        <ele>21.77</ele>
        <time>2025-04-29T15:24:04Z</time>
      </trkpt>
      <trkpt lat="43.518630964681506" lon="-6.435635983943939">
        <ele>21.77</ele>
        <time>2025-04-29T15:24:05Z</time>
      </trkpt>
      <trkpt lat="43.518801033496857" lon="-6.435686023905873">
        <ele>21.289999999999999</ele>
        <time>2025-04-29T15:24:06Z</time>
      </trkpt>
      <trkpt lat="43.518976969644427" lon="-6.435717036947608">
        <ele>21.289999999999999</ele>
        <time>2025-04-29T15:24:07Z</time>
      </trkpt>
      <trkpt lat="43.519138991832733" lon="-6.43572399392724">
        <ele>20.809999999999999</ele>
        <time>2025-04-29T15:24:08Z</time>
      </trkpt>
      <trkpt lat="43.519484996795654" lon="-6.43565802834928">
        <ele>20.809999999999999</ele>
        <time>2025-04-29T15:24:10Z</time>
      </trkpt>
      <trkpt lat="43.519652970135212" lon="-6.435602959245443">
        <ele>20.32</ele>
        <time>2025-04-29T15:24:11Z</time>
      </trkpt>
      <trkpt lat="43.519837958738208" lon="-6.435533976182342">
        <ele>19.84</ele>
        <time>2025-04-29T15:24:12Z</time>
      </trkpt>
      <trkpt lat="43.519999980926514" lon="-6.435444038361311">
        <ele>19.359999999999999</ele>
        <time>2025-04-29T15:24:13Z</time>
      </trkpt>
      <trkpt lat="43.52016200311482" lon="-6.435331972315908">
        <ele>18.879999999999999</ele>
        <time>2025-04-29T15:24:14Z</time>
      </trkpt>
      <trkpt lat="43.520331988111138" lon="-6.435203980654478">
        <ele>18.399999999999999</ele>
        <time>2025-04-29T15:24:15Z</time>
      </trkpt>
      <trkpt lat="43.520499039441347" lon="-6.43507900647819">
        <ele>17.440000000000001</ele>
        <time>2025-04-29T15:24:16Z</time>
      </trkpt>
      <trkpt lat="43.521913988515735" lon="-6.434029005467892">
        <ele>17.920000000000002</ele>
        <time>2025-04-29T15:24:24Z</time>
      </trkpt>
      <trkpt lat="43.523229025304317" lon="-6.433206992223859">
        <ele>18.399999999999999</ele>
        <time>2025-04-29T15:24:32Z</time>
      </trkpt>
      <trkpt lat="43.523369003087282" lon="-6.433159969747067">
        <ele>18.879999999999999</ele>
        <time>2025-04-29T15:24:33Z</time>
      </trkpt>
      <trkpt lat="43.523543011397123" lon="-6.433169022202492">
        <ele>18.879999999999999</ele>
        <time>2025-04-29T15:24:34Z</time>
      </trkpt>
      <trkpt lat="43.523716013878584" lon="-6.433177990838885">
        <ele>18.879999999999999</ele>
        <time>2025-04-29T15:24:35Z</time>
      </trkpt>
      <trkpt lat="43.523876024410129" lon="-6.433210009709001">
        <ele>18.879999999999999</ele>
        <time>2025-04-29T15:24:36Z</time>
      </trkpt>
      <trkpt lat="43.524054978042841" lon="-6.433275975286961">
        <ele>18.879999999999999</ele>
        <time>2025-04-29T15:24:37Z</time>
      </trkpt>
      <trkpt lat="43.524221023544669" lon="-6.433343030512333">
        <ele>18.879999999999999</ele>
        <time>2025-04-29T15:24:38Z</time>
      </trkpt>
      <trkpt lat="43.524388996884227" lon="-6.433463981375098">
        <ele>18.879999999999999</ele>
        <time>2025-04-29T15:24:39Z</time>
      </trkpt>
      <trkpt lat="43.524557976052165" lon="-6.433586021885276">
        <ele>19.359999999999999</ele>
        <time>2025-04-29T15:24:40Z</time>
      </trkpt>
      <trkpt lat="43.524702982977033" lon="-6.433752989396453">
        <ele>19.84</ele>
        <time>2025-04-29T15:24:41Z</time>
      </trkpt>
      <trkpt lat="43.524843966588378" lon="-6.433936972171068">
        <ele>20.32</ele>
        <time>2025-04-29T15:24:42Z</time>
      </trkpt>
      <trkpt lat="43.52497698739171" lon="-6.434126989915967">
        <ele>20.809999999999999</ele>
        <time>2025-04-29T15:24:43Z</time>
      </trkpt>
      <trkpt lat="43.525077989324927" lon="-6.434352966025472">
        <ele>21.289999999999999</ele>
        <time>2025-04-29T15:24:44Z</time>
      </trkpt>
      <trkpt lat="43.525163987651467" lon="-6.434576008468866">
        <ele>22.25</ele>
        <time>2025-04-29T15:24:45Z</time>
      </trkpt>
      <trkpt lat="43.525240011513233" lon="-6.434793015941978">
        <ele>22.73</ele>
        <time>2025-04-29T15:24:46Z</time>
      </trkpt>
      <trkpt lat="43.525305977091193" lon="-6.435025027021766">
        <ele>23.210000000000001</ele>
        <time>2025-04-29T15:24:47Z</time>
      </trkpt>
      <trkpt lat="43.525591967627406" lon="-6.435917029157281">
        <ele>25.129999999999999</ele>
        <time>2025-04-29T15:24:51Z</time>
      </trkpt>
      <trkpt lat="43.525689030066133" lon="-6.436119033023715">
        <ele>24.649999999999999</ele>
        <time>2025-04-29T15:24:52Z</time>
      </trkpt>
      <trkpt lat="43.525791959837079" lon="-6.436318019405007">
        <ele>24.649999999999999</ele>
        <time>2025-04-29T15:24:53Z</time>
      </trkpt>
      <trkpt lat="43.525930009782314" lon="-6.436493033543229">
        <ele>24.649999999999999</ele>
        <time>2025-04-29T15:24:54Z</time>
      </trkpt>
      <trkpt lat="43.526075016707182" lon="-6.436649020761251">
        <ele>24.170000000000002</ele>
        <time>2025-04-29T15:24:55Z</time>
      </trkpt>
      <trkpt lat="43.526237038895488" lon="-6.436783969402313">
        <ele>24.170000000000002</ele>
        <time>2025-04-29T15:24:56Z</time>
      </trkpt>
      <trkpt lat="43.52766296826303" lon="-6.43793698400259">
        <ele>21.77</ele>
        <time>2025-04-29T15:25:05Z</time>
      </trkpt>
      <trkpt lat="43.528620013967156" lon="-6.438682973384857">
        <ele>19.84</ele>
        <time>2025-04-29T15:25:11Z</time>
      </trkpt>
      <trkpt lat="43.52877801284194" lon="-6.438808031380177">
        <ele>19.84</ele>
        <time>2025-04-29T15:25:12Z</time>
      </trkpt>
      <trkpt lat="43.52892997674644" lon="-6.438926970586181">
        <ele>19.359999999999999</ele>
        <time>2025-04-29T15:25:13Z</time>
      </trkpt>
      <trkpt lat="43.529091998934746" lon="-6.439017998054624">
        <ele>19.359999999999999</ele>
        <time>2025-04-29T15:25:14Z</time>
      </trkpt>
      <trkpt lat="43.529257960617542" lon="-6.439086981117725">
        <ele>18.879999999999999</ele>
        <time>2025-04-29T15:25:15Z</time>
      </trkpt>
      <trkpt lat="43.529428029432893" lon="-6.439150013029575">
        <ele>18.399999999999999</ele>
        <time>2025-04-29T15:25:16Z</time>
      </trkpt>
      <trkpt lat="43.529602959752083" lon="-6.439166022464633">
        <ele>17.920000000000002</ele>
        <time>2025-04-29T15:25:17Z</time>
      </trkpt>
      <trkpt lat="43.529778979718685" lon="-6.439183037728071">
        <ele>17.920000000000002</ele>
        <time>2025-04-29T15:25:18Z</time>
      </trkpt>
      <trkpt lat="43.530628988519311" lon="-6.43926702439785">
        <ele>16.48</ele>
        <time>2025-04-29T15:25:23Z</time>
      </trkpt>
      <trkpt lat="43.53077600710094" lon="-6.439302982762456">
        <ele>16</ele>
        <time>2025-04-29T15:25:24Z</time>
      </trkpt>
      <trkpt lat="43.530910033732653" lon="-6.439371965825558">
        <ele>15.52</ele>
        <time>2025-04-29T15:25:25Z</time>
      </trkpt>
      <trkpt lat="43.531282022595406" lon="-6.439706990495324">
        <ele>15.039999999999999</ele>
        <time>2025-04-29T15:25:28Z</time>
      </trkpt>
      <trkpt lat="43.53183195926249" lon="-6.440346026793122">
        <ele>14.56</ele>
        <time>2025-04-29T15:25:33Z</time>
      </trkpt>
      <trkpt lat="43.531951988115907" lon="-6.440455997362733">
        <ele>14.56</ele>
        <time>2025-04-29T15:25:34Z</time>
      </trkpt>
      <trkpt lat="43.532080985605717" lon="-6.440541995689273">
        <ele>14.56</ele>
        <time>2025-04-29T15:25:35Z</time>
      </trkpt>
      <trkpt lat="43.532193973660469" lon="-6.440597986802459">
        <ele>14.08</ele>
        <time>2025-04-29T15:25:36Z</time>
      </trkpt>
      <trkpt lat="43.53232498280704" lon="-6.440616007894278">
        <ele>14.08</ele>
        <time>2025-04-29T15:25:37Z</time>
      </trkpt>
      <trkpt lat="43.532449034973979" lon="-6.440626988187432">
        <ele>13.6</ele>
        <time>2025-04-29T15:25:38Z</time>
      </trkpt>
      <trkpt lat="43.533573970198631" lon="-6.440722038969398">
        <ele>10.710000000000001</ele>
        <time>2025-04-29T15:25:46Z</time>
      </trkpt>
      <trkpt lat="43.534637968987226" lon="-6.440786998718977">
        <ele>8.310000000000001</ele>
        <time>2025-04-29T15:25:53Z</time>
      </trkpt>
      <trkpt lat="43.5353749897331" lon="-6.440816000103951">
        <ele>5.91</ele>
        <time>2025-04-29T15:25:59Z</time>
      </trkpt>
      <trkpt lat="43.535428969189525" lon="-6.440818011760712">
        <ele>5.42</ele>
        <time>2025-04-29T15:26:00Z</time>
      </trkpt>
      <trkpt lat="43.535475991666317" lon="-6.440819017589092">
        <ele>5.42</ele>
        <time>2025-04-29T15:26:01Z</time>
      </trkpt>
      <trkpt lat="43.535522008314729" lon="-6.440694965422154">
        <ele>4.94</ele>
        <time>2025-04-29T15:26:02Z</time>
      </trkpt>
      <trkpt lat="43.535527959465981" lon="-6.440605027601123">
        <ele>4.46</ele>
        <time>2025-04-29T15:26:03Z</time>
      </trkpt>
      <trkpt lat="43.535536006093025" lon="-6.440477035939694">
        <ele>3.5</ele>
        <time>2025-04-29T15:26:04Z</time>
      </trkpt>
      <trkpt lat="43.535545980557799" lon="-6.440379973500967">
        <ele>3.5</ele>
        <time>2025-04-29T15:26:05Z</time>
      </trkpt>
      <trkpt lat="43.535786038264632" lon="-6.439513033255935">
        <ele>6.39</ele>
        <time>2025-04-29T15:26:12Z</time>
      </trkpt>
      <trkpt lat="43.535845968872309" lon="-6.439404990524054">
        <ele>7.35</ele>
        <time>2025-04-29T15:26:13Z</time>
      </trkpt>
      <trkpt lat="43.536074962466955" lon="-6.439046999439597">
        <ele>9.27</ele>
        <time>2025-04-29T15:26:17Z</time>
      </trkpt>
      <trkpt lat="43.536227010190487" lon="-6.438935017213225">
        <ele>9.75</ele>
        <time>2025-04-29T15:26:19Z</time>
      </trkpt>
      <trkpt lat="43.536264980211854" lon="-6.438910961151123">
        <ele>9.75</ele>
        <time>2025-04-29T15:26:20Z</time>
      </trkpt>
      <trkpt lat="43.536391966044903" lon="-6.438944991678">
        <ele>9.75</ele>
        <time>2025-04-29T15:26:21Z</time>
      </trkpt>
      <trkpt lat="43.536479976028204" lon="-6.43896795809269">
        <ele>9.75</ele>
        <time>2025-04-29T15:26:22Z</time>
      </trkpt>
      <trkpt lat="43.536587012931705" lon="-6.438996959477663">
        <ele>9.75</ele>
        <time>2025-04-29T15:26:23Z</time>
      </trkpt>
      <trkpt lat="43.536612996831536" lon="-6.439054040238261">
        <ele>10.23</ele>
        <time>2025-04-29T15:26:24Z</time>
      </trkpt>
      <trkpt lat="43.536660019308329" lon="-6.439157975837588">
        <ele>10.23</ele>
        <time>2025-04-29T15:26:25Z</time>
      </trkpt>
      <trkpt lat="43.536779964342713" lon="-6.439232993870974">
        <ele>10.710000000000001</ele>
        <time>2025-04-29T15:26:26Z</time>
      </trkpt>
      <trkpt lat="43.536982974037528" lon="-6.439686035737395">
        <ele>12.15</ele>
        <time>2025-04-29T15:26:30Z</time>
      </trkpt>
      <trkpt lat="43.537034019827843" lon="-6.439800029620528">
        <ele>12.630000000000001</ele>
        <time>2025-04-29T15:26:31Z</time>
      </trkpt>
      <trkpt lat="43.537148013710976" lon="-6.439884016290307">
        <ele>13.119999999999999</ele>
        <time>2025-04-29T15:26:32Z</time>
      </trkpt>
      <trkpt lat="43.537259995937347" lon="-6.439919974654913">
        <ele>14.08</ele>
        <time>2025-04-29T15:26:33Z</time>
      </trkpt>
      <trkpt lat="43.537380024790764" lon="-6.439959034323692">
        <ele>14.56</ele>
        <time>2025-04-29T15:26:34Z</time>
      </trkpt>
      <trkpt lat="43.537874976173043" lon="-6.440144022926688">
        <ele>16.48</ele>
        <time>2025-04-29T15:26:38Z</time>
      </trkpt>
      <trkpt lat="43.538198014721274" lon="-6.440357007086277">
        <ele>18.879999999999999</ele>
        <time>2025-04-29T15:26:41Z</time>
      </trkpt>
      <trkpt lat="43.538285018876195" lon="-6.440469995141029">
        <ele>19.84</ele>
        <time>2025-04-29T15:26:42Z</time>
      </trkpt>
      <trkpt lat="43.538389960303903" lon="-6.440606033429503">
        <ele>20.32</ele>
        <time>2025-04-29T15:26:43Z</time>
      </trkpt>
      <trkpt lat="43.538459027186036" lon="-6.440730001777411">
        <ele>21.289999999999999</ele>
        <time>2025-04-29T15:26:44Z</time>
      </trkpt>
      <trkpt lat="43.538535973057151" lon="-6.440869979560375">
        <ele>22.25</ele>
        <time>2025-04-29T15:26:45Z</time>
      </trkpt>
      <trkpt lat="43.538616020232439" lon="-6.441012974828482">
        <ele>23.210000000000001</ele>
        <time>2025-04-29T15:26:46Z</time>
      </trkpt>
      <trkpt lat="43.538932017982006" lon="-6.441828031092882">
        <ele>28.5</ele>
        <time>2025-04-29T15:26:51Z</time>
      </trkpt>
      <trkpt lat="43.538976022973657" lon="-6.442007990553975">
        <ele>29.460000000000001</ele>
        <time>2025-04-29T15:26:52Z</time>
      </trkpt>
      <trkpt lat="43.538993960246444" lon="-6.442183004692197">
        <ele>30.420000000000002</ele>
        <time>2025-04-29T15:26:53Z</time>
      </trkpt>
      <trkpt lat="43.539079958572984" lon="-6.443664003163576">
        <ele>36.670000000000002</ele>
        <time>2025-04-29T15:27:01Z</time>
      </trkpt>
      <trkpt lat="43.539067972451448" lon="-6.444268003106117">
        <ele>40.509999999999998</ele>
        <time>2025-04-29T15:27:05Z</time>
      </trkpt>
      <trkpt lat="43.539055986329913" lon="-6.444375040009618">
        <ele>40.990000000000002</ele>
        <time>2025-04-29T15:27:06Z</time>
      </trkpt>
      <trkpt lat="43.539045006036758" lon="-6.444469001144171">
        <ele>41.950000000000003</ele>
        <time>2025-04-29T15:27:07Z</time>
      </trkpt>
      <trkpt lat="43.539021033793688" lon="-6.444827998057008">
        <ele>44.359999999999999</ele>
        <time>2025-04-29T15:27:10Z</time>
      </trkpt>
      <trkpt lat="43.539042994379997" lon="-6.444967975839973">
        <ele>44.840000000000003</ele>
        <time>2025-04-29T15:27:11Z</time>
      </trkpt>
      <trkpt lat="43.539064032956958" lon="-6.445095967501402">
        <ele>45.799999999999997</ele>
        <time>2025-04-29T15:27:12Z</time>
      </trkpt>
      <trkpt lat="43.539093034341931" lon="-6.445191018283367">
        <ele>47.240000000000002</ele>
        <time>2025-04-29T15:27:13Z</time>
      </trkpt>
      <trkpt lat="43.539161011576653" lon="-6.445252038538456">
        <ele>48.200000000000003</ele>
        <time>2025-04-29T15:27:14Z</time>
      </trkpt>
      <trkpt lat="43.539228988811374" lon="-6.445313980802894">
        <ele>49.159999999999997</ele>
        <time>2025-04-29T15:27:15Z</time>
      </trkpt>
      <trkpt lat="43.53930601850152" lon="-6.44536997191608">
        <ele>50.609999999999999</ele>
        <time>2025-04-29T15:27:16Z</time>
      </trkpt>
      <trkpt lat="43.539381036534905" lon="-6.44536997191608">
        <ele>51.57</ele>
        <time>2025-04-29T15:27:17Z</time>
      </trkpt>
      <trkpt lat="43.539468962699175" lon="-6.445357985794544">
        <ele>52.530000000000001</ele>
        <time>2025-04-29T15:27:18Z</time>
      </trkpt>
      <trkpt lat="43.539551021531224" lon="-6.445322027429938">
        <ele>53.009999999999998</ele>
        <time>2025-04-29T15:27:19Z</time>
      </trkpt>
      <trkpt lat="43.539632996544242" lon="-6.445286991074681">
        <ele>53.969999999999999</ele>
        <time>2025-04-29T15:27:20Z</time>
      </trkpt>
      <trkpt lat="43.539712959900498" lon="-6.445252038538456">
        <ele>55.409999999999997</ele>
        <time>2025-04-29T15:27:21Z</time>
      </trkpt>
      <trkpt lat="43.539882022887468" lon="-6.445178026333451">
        <ele>57.82</ele>
        <time>2025-04-29T15:27:23Z</time>
      </trkpt>
      <trkpt lat="43.539962992072105" lon="-6.445156987756491">
        <ele>58.780000000000001</ele>
        <time>2025-04-29T15:27:24Z</time>
      </trkpt>
      <trkpt lat="43.540047984570265" lon="-6.445161011070013">
        <ele>59.259999999999998</ele>
        <time>2025-04-29T15:27:25Z</time>
      </trkpt>
      <trkpt lat="43.540607979521155" lon="-6.445192024111748">
        <ele>61.18</ele>
        <time>2025-04-29T15:27:31Z</time>
      </trkpt>
      <trkpt lat="43.540705963969231" lon="-6.445196969434619">
        <ele>61.18</ele>
        <time>2025-04-29T15:27:32Z</time>
      </trkpt>
      <trkpt lat="43.540792968124151" lon="-6.445197975263">
        <ele>61.659999999999997</ele>
        <time>2025-04-29T15:27:33Z</time>
      </trkpt>
      <trkpt lat="43.541938019916415" lon="-6.445315992459655">
        <ele>65.030000000000001</ele>
        <time>2025-04-29T15:27:42Z</time>
      </trkpt>
      <trkpt lat="43.543086005374789" lon="-6.445818990468979">
        <ele>74.159999999999997</ele>
        <time>2025-04-29T15:27:52Z</time>
      </trkpt>
      <trkpt lat="43.543344000354409" lon="-6.446020994335413">
        <ele>78</ele>
        <time>2025-04-29T15:27:55Z</time>
      </trkpt>
      <trkpt lat="43.543422035872936" lon="-6.446112021803856">
        <ele>79.450000000000003</ele>
        <time>2025-04-29T15:27:56Z</time>
      </trkpt>
      <trkpt lat="43.543503005057573" lon="-6.446206988766789">
        <ele>80.890000000000001</ele>
        <time>2025-04-29T15:27:57Z</time>
      </trkpt>
      <trkpt lat="43.543571988120675" lon="-6.446311008185148">
        <ele>82.329999999999998</ele>
        <time>2025-04-29T15:27:58Z</time>
      </trkpt>
      <trkpt lat="43.543636025860906" lon="-6.446433970704675">
        <ele>83.290000000000006</ele>
        <time>2025-04-29T15:27:59Z</time>
      </trkpt>
      <trkpt lat="43.54384196922183" lon="-6.446897992864251">
        <ele>88.099999999999994</ele>
        <time>2025-04-29T15:28:03Z</time>
      </trkpt>
      <trkpt lat="43.543872982263565" lon="-6.446984997019172">
        <ele>89.060000000000002</ele>
        <time>2025-04-29T15:28:04Z</time>
      </trkpt>
      <trkpt lat="43.543896032497287" lon="-6.447049034759402">
        <ele>90.019999999999996</ele>
        <time>2025-04-29T15:28:05Z</time>
      </trkpt>
      <trkpt lat="43.543914975598454" lon="-6.447098990902305">
        <ele>90.5</ele>
        <time>2025-04-29T15:28:06Z</time>
      </trkpt>
      <trkpt lat="43.543983958661556" lon="-6.44708801060915">
        <ele>91.459999999999994</ele>
        <time>2025-04-29T15:28:07Z</time>
      </trkpt>
      <trkpt lat="43.544037016108632" lon="-6.447050040587783">
        <ele>91.939999999999998</ele>
        <time>2025-04-29T15:28:08Z</time>
      </trkpt>
      <trkpt lat="43.544102981686592" lon="-6.447003018110991">
        <ele>92.420000000000002</ele>
        <time>2025-04-29T15:28:09Z</time>
      </trkpt>
      <trkpt lat="43.544173976406455" lon="-6.446951972320676">
        <ele>92.900000000000006</ele>
        <time>2025-04-29T15:28:10Z</time>
      </trkpt>
      <trkpt lat="43.544243965297937" lon="-6.446903022006154">
        <ele>93.390000000000001</ele>
        <time>2025-04-29T15:28:11Z</time>
      </trkpt>
      <trkpt lat="43.54431102052331" lon="-6.446859017014504">
        <ele>93.870000000000005</ele>
        <time>2025-04-29T15:28:12Z</time>
      </trkpt>
      <trkpt lat="43.54437698610127" lon="-6.446814006194472">
        <ele>94.349999999999994</ele>
        <time>2025-04-29T15:28:13Z</time>
      </trkpt>
      <trkpt lat="43.544418979436159" lon="-6.446678973734379">
        <ele>95.310000000000002</ele>
        <time>2025-04-29T15:28:14Z</time>
      </trkpt>
      <trkpt lat="43.544468013569713" lon="-6.446642009541392">
        <ele>95.310000000000002</ele>
        <time>2025-04-29T15:28:15Z</time>
      </trkpt>
      <trkpt lat="43.544539008289576" lon="-6.446656007319689">
        <ele>95.790000000000006</ele>
        <time>2025-04-29T15:28:16Z</time>
      </trkpt>
      <trkpt lat="43.544583013281226" lon="-6.446711998432875">
        <ele>96.269999999999996</ele>
        <time>2025-04-29T15:28:17Z</time>
      </trkpt>
      <trkpt lat="43.544590976089239" lon="-6.446721972897649">
        <ele>96.269999999999996</ele>
        <time>2025-04-29T15:28:18Z</time>
      </trkpt>
      <trkpt lat="43.544564992189407" lon="-6.446800008416176">
        <ele>96.269999999999996</ele>
        <time>2025-04-29T15:28:19Z</time>
      </trkpt>
      <trkpt lat="43.544650990515947" lon="-6.446969993412495">
        <ele>96.269999999999996</ele>
        <time>2025-04-29T15:28:20Z</time>
      </trkpt>
      <trkpt lat="43.544707987457514" lon="-6.447036964818835">
        <ele>96.269999999999996</ele>
        <time>2025-04-29T15:28:21Z</time>
      </trkpt>
      <trkpt lat="43.544774958863854" lon="-6.447115000337362">
        <ele>95.790000000000006</ele>
        <time>2025-04-29T15:28:22Z</time>
      </trkpt>
      <trkpt lat="43.544856011867523" lon="-6.447154982015491">
        <ele>95.790000000000006</ele>
        <time>2025-04-29T15:28:23Z</time>
      </trkpt>
      <trkpt lat="43.544943016022444" lon="-6.447161016985774">
        <ele>95.310000000000002</ele>
        <time>2025-04-29T15:28:24Z</time>
      </trkpt>
      <trkpt lat="43.545018034055829" lon="-6.447166968137026">
        <ele>95.310000000000002</ele>
        <time>2025-04-29T15:28:25Z</time>
      </trkpt>
      <trkpt lat="43.545113001018763" lon="-6.447094967588782">
        <ele>94.829999999999998</ele>
        <time>2025-04-29T15:28:26Z</time>
      </trkpt>
      <trkpt lat="43.545149965211749" lon="-6.446991031989455">
        <ele>94.829999999999998</ele>
        <time>2025-04-29T15:28:27Z</time>
      </trkpt>
      <trkpt lat="43.545198999345303" lon="-6.446911990642548">
        <ele>94.349999999999994</ele>
        <time>2025-04-29T15:28:28Z</time>
      </trkpt>
      <trkpt lat="43.545272005721927" lon="-6.446848958730698">
        <ele>94.349999999999994</ele>
        <time>2025-04-29T15:28:29Z</time>
      </trkpt>
      <trkpt lat="43.545353980734944" lon="-6.446816017851234">
        <ele>94.349999999999994</ele>
        <time>2025-04-29T15:28:30Z</time>
      </trkpt>
      <trkpt lat="43.545445008203387" lon="-6.446837978437543">
        <ele>94.349999999999994</ele>
        <time>2025-04-29T15:28:31Z</time>
      </trkpt>
      <trkpt lat="43.54549203068018" lon="-6.446849964559078">
        <ele>94.349999999999994</ele>
        <time>2025-04-29T15:28:32Z</time>
      </trkpt>
      <trkpt lat="43.545567970722914" lon="-6.446977034211159">
        <ele>94.349999999999994</ele>
        <time>2025-04-29T15:28:33Z</time>
      </trkpt>
      <trkpt lat="43.54572999291122" lon="-6.447015004232526">
        <ele>93.870000000000005</ele>
        <time>2025-04-29T15:28:34Z</time>
      </trkpt>
      <trkpt lat="43.545819008722901" lon="-6.446975022554398">
        <ele>93.390000000000001</ele>
        <time>2025-04-29T15:28:35Z</time>
      </trkpt>
      <trkpt lat="43.545907018706203" lon="-6.446937974542379">
        <ele>92.900000000000006</ele>
        <time>2025-04-29T15:28:36Z</time>
      </trkpt>
      <trkpt lat="43.545964015647769" lon="-6.446915008127689">
        <ele>91.939999999999998</ele>
        <time>2025-04-29T15:28:37Z</time>
      </trkpt>
      <trkpt lat="43.546072980388999" lon="-6.4468730147928">
        <ele>91.459999999999994</ele>
        <time>2025-04-29T15:28:38Z</time>
      </trkpt>
      <trkpt lat="43.546149004250765" lon="-6.446844013407826">
        <ele>90.980000000000004</ele>
        <time>2025-04-29T15:28:39Z</time>
      </trkpt>
      <trkpt lat="43.546251012012362" lon="-6.446729013696313">
        <ele>90.5</ele>
        <time>2025-04-29T15:28:40Z</time>
      </trkpt>
      <trkpt lat="43.546260986477137" lon="-6.446623988449574">
        <ele>90.5</ele>
        <time>2025-04-29T15:28:41Z</time>
      </trkpt>
      <trkpt lat="43.546298034489155" lon="-6.446540001779795">
        <ele>90.5</ele>
        <time>2025-04-29T15:28:42Z</time>
      </trkpt>
      <trkpt lat="43.546360982581973" lon="-6.446438999846578">
        <ele>90.5</ele>
        <time>2025-04-29T15:28:43Z</time>
      </trkpt>
      <trkpt lat="43.546426026150584" lon="-6.446411004289985">
        <ele>90.019999999999996</ele>
        <time>2025-04-29T15:28:44Z</time>
      </trkpt>
      <trkpt lat="43.54650498367846" lon="-6.446405975148082">
        <ele>90.019999999999996</ele>
        <time>2025-04-29T15:28:45Z</time>
      </trkpt>
      <trkpt lat="43.546606991440058" lon="-6.446431959047914">
        <ele>90.019999999999996</ele>
        <time>2025-04-29T15:28:46Z</time>
      </trkpt>
      <trkpt lat="43.546672035008669" lon="-6.446478981524706">
        <ele>90.019999999999996</ele>
        <time>2025-04-29T15:28:47Z</time>
      </trkpt>
      <trkpt lat="43.546735988929868" lon="-6.446591969579458">
        <ele>89.540000000000006</ele>
        <time>2025-04-29T15:28:48Z</time>
      </trkpt>
      <trkpt lat="43.546747975051403" lon="-6.446694983169437">
        <ele>89.540000000000006</ele>
        <time>2025-04-29T15:28:49Z</time>
      </trkpt>
      <trkpt lat="43.546758033335209" lon="-6.446786010637879">
        <ele>90.019999999999996</ele>
        <time>2025-04-29T15:28:50Z</time>
      </trkpt>
      <trkpt lat="43.546712016686797" lon="-6.446878965944052">
        <ele>89.540000000000006</ele>
        <time>2025-04-29T15:28:51Z</time>
      </trkpt>
      <trkpt lat="43.546658037230372" lon="-6.446986002847552">
        <ele>89.540000000000006</ele>
        <time>2025-04-29T15:28:52Z</time>
      </trkpt>
      <trkpt lat="43.546586958691478" lon="-6.447033025324345">
        <ele>89.540000000000006</ele>
        <time>2025-04-29T15:28:53Z</time>
      </trkpt>
      <trkpt lat="43.546496015042067" lon="-6.447078036144376">
        <ele>90.019999999999996</ele>
        <time>2025-04-29T15:28:54Z</time>
      </trkpt>
      <trkpt lat="43.546458967030048" lon="-6.447265958413482">
        <ele>90.019999999999996</ele>
        <time>2025-04-29T15:28:55Z</time>
      </trkpt>
      <trkpt lat="43.546444969251752" lon="-6.447394033893943">
        <ele>90.019999999999996</ele>
        <time>2025-04-29T15:28:56Z</time>
      </trkpt>
      <trkpt lat="43.546428959816694" lon="-6.44753803499043">
        <ele>90.019999999999996</ele>
        <time>2025-04-29T15:28:57Z</time>
      </trkpt>
      <trkpt lat="43.546412028372288" lon="-6.447691004723311">
        <ele>90.019999999999996</ele>
        <time>2025-04-29T15:28:58Z</time>
      </trkpt>
      <trkpt lat="43.546364000067115" lon="-6.449124980717897">
        <ele>90.980000000000004</ele>
        <time>2025-04-29T15:29:05Z</time>
      </trkpt>
      <trkpt lat="43.546346984803677" lon="-6.45140896551311">
        <ele>88.579999999999998</ele>
        <time>2025-04-29T15:29:14Z</time>
      </trkpt>
      <trkpt lat="43.546327035874128" lon="-6.454453021287918">
        <ele>84.730000000000004</ele>
        <time>2025-04-29T15:29:22Z</time>
      </trkpt>
      <trkpt lat="43.546801032498479" lon="-6.457002041861415">
        <ele>80.409999999999997</ele>
        <time>2025-04-29T15:29:30Z</time>
      </trkpt>
      <trkpt lat="43.547781966626644" lon="-6.459673019126058">
        <ele>76.560000000000002</ele>
        <time>2025-04-29T15:29:39Z</time>
      </trkpt>
      <trkpt lat="43.548285970464349" lon="-6.461977958679199">
        <ele>75.120000000000005</ele>
        <time>2025-04-29T15:29:46Z</time>
      </trkpt>
      <trkpt lat="43.548317989334464" lon="-6.46447098813951">
        <ele>74.640000000000001</ele>
        <time>2025-04-29T15:29:53Z</time>
      </trkpt>
      <trkpt lat="43.547779032960534" lon="-6.466969968751073">
        <ele>75.120000000000005</ele>
        <time>2025-04-29T15:30:00Z</time>
      </trkpt>
      <trkpt lat="43.546889964491129" lon="-6.46887400187552">
        <ele>77.040000000000006</ele>
        <time>2025-04-29T15:30:06Z</time>
      </trkpt>
      <trkpt lat="43.545728987082839" lon="-6.470447033643723">
        <ele>79.450000000000003</ele>
        <time>2025-04-29T15:30:12Z</time>
      </trkpt>
      <trkpt lat="43.543146019801497" lon="-6.473107030615211">
        <ele>92.900000000000006</ele>
        <time>2025-04-29T15:30:25Z</time>
      </trkpt>
      <trkpt lat="43.539730980992317" lon="-6.476647965610027">
        <ele>114.53</ele>
        <time>2025-04-29T15:30:42Z</time>
      </trkpt>
      <trkpt lat="43.538335980847478" lon="-6.478760959580541">
        <ele>123.67</ele>
        <time>2025-04-29T15:30:50Z</time>
      </trkpt>
      <trkpt lat="43.536702012643218" lon="-6.481742989271879">
        <ele>129.43000000000001</ele>
        <time>2025-04-29T15:31:00Z</time>
      </trkpt>
      <trkpt lat="43.535468028858304" lon="-6.484056981280446">
        <ele>131.36000000000001</ele>
        <time>2025-04-29T15:31:08Z</time>
      </trkpt>
      <trkpt lat="43.534552976489067" lon="-6.486454959958792">
        <ele>131.36000000000001</ele>
        <time>2025-04-29T15:31:16Z</time>
      </trkpt>
      <trkpt lat="43.53430001065135" lon="-6.488585975021124">
        <ele>131.84</ele>
        <time>2025-04-29T15:31:22Z</time>
      </trkpt>
      <trkpt lat="43.534522969275713" lon="-6.490762000903487">
        <ele>132.80000000000001</ele>
        <time>2025-04-29T15:31:28Z</time>
      </trkpt>
      <trkpt lat="43.535128980875015" lon="-6.493424009531736">
        <ele>132.31999999999999</ele>
        <time>2025-04-29T15:31:36Z</time>
      </trkpt>
      <trkpt lat="43.535211961716413" lon="-6.495615961030126">
        <ele>128.94999999999999</ele>
        <time>2025-04-29T15:31:42Z</time>
      </trkpt>
      <trkpt lat="43.53496796451509" lon="-6.499438025057316">
        <ele>123.19</ele>
        <time>2025-04-29T15:31:53Z</time>
      </trkpt>
      <trkpt lat="43.534473013132811" lon="-6.502573024481535">
        <ele>117.90000000000001</ele>
        <time>2025-04-29T15:32:02Z</time>
      </trkpt>
      <trkpt lat="43.533522002398968" lon="-6.506415959447622">
        <ele>110.20999999999999</ele>
        <time>2025-04-29T15:32:14Z</time>
      </trkpt>
      <trkpt lat="43.532614996656775" lon="-6.510069966316223">
        <ele>104.92</ele>
        <time>2025-04-29T15:32:25Z</time>
      </trkpt>
      <trkpt lat="43.531771022826433" lon="-6.513793040066958">
        <ele>104.44</ele>
        <time>2025-04-29T15:32:36Z</time>
      </trkpt>
      <trkpt lat="43.531400039792061" lon="-6.517406981438398">
        <ele>106.36</ele>
        <time>2025-04-29T15:32:47Z</time>
      </trkpt>
      <trkpt lat="43.53097097016871" lon="-6.520421029999852">
        <ele>101.08</ele>
        <time>2025-04-29T15:32:56Z</time>
      </trkpt>
      <trkpt lat="43.530117021873593" lon="-6.523161996155977">
        <ele>94.829999999999998</ele>
        <time>2025-04-29T15:33:04Z</time>
      </trkpt>
      <trkpt lat="43.528825035318732" lon="-6.525524016469717">
        <ele>91.459999999999994</ele>
        <time>2025-04-29T15:33:12Z</time>
      </trkpt>
      <trkpt lat="43.52643602527678" lon="-6.529256980866194">
        <ele>92.420000000000002</ele>
        <time>2025-04-29T15:33:26Z</time>
      </trkpt>
      <trkpt lat="43.525302959606051" lon="-6.531323036178947">
        <ele>85.689999999999998</ele>
        <time>2025-04-29T15:33:34Z</time>
      </trkpt>
      <trkpt lat="43.524727039039135" lon="-6.534014968201518">
        <ele>85.209999999999994</ele>
        <time>2025-04-29T15:33:41Z</time>
      </trkpt>
      <trkpt lat="43.524791998788714" lon="-6.536053027957678">
        <ele>86.659999999999997</ele>
        <time>2025-04-29T15:33:47Z</time>
      </trkpt>
      <trkpt lat="43.525355011224747" lon="-6.540497029200196">
        <ele>85.209999999999994</ele>
        <time>2025-04-29T15:34:00Z</time>
      </trkpt>
      <trkpt lat="43.525958005338907" lon="-6.544822007417679">
        <ele>82.329999999999998</ele>
        <time>2025-04-29T15:34:12Z</time>
      </trkpt>
      <trkpt lat="43.526793010532856" lon="-6.548184994608164">
        <ele>79.450000000000003</ele>
        <time>2025-04-29T15:34:22Z</time>
      </trkpt>
      <trkpt lat="43.527733962982893" lon="-6.551960958167911">
        <ele>74.159999999999997</ele>
        <time>2025-04-29T15:34:33Z</time>
      </trkpt>
      <trkpt lat="43.528428990393877" lon="-6.555555034428835">
        <ele>75.599999999999994</ele>
        <time>2025-04-29T15:34:44Z</time>
      </trkpt>
      <trkpt lat="43.528805002570152" lon="-6.558951968327165">
        <ele>81.849999999999994</ele>
        <time>2025-04-29T15:34:54Z</time>
      </trkpt>
      <trkpt lat="43.529388969764113" lon="-6.561952019110322">
        <ele>90.980000000000004</ele>
        <time>2025-04-29T15:35:03Z</time>
      </trkpt>
      <trkpt lat="43.529470022767782" lon="-6.564755011349917">
        <ele>101.08</ele>
        <time>2025-04-29T15:35:11Z</time>
      </trkpt>
      <trkpt lat="43.529041036963463" lon="-6.567927980795503">
        <ele>110.20999999999999</ele>
        <time>2025-04-29T15:35:20Z</time>
      </trkpt>
      <trkpt lat="43.528840960934758" lon="-6.571566984057427">
        <ele>123.67</ele>
        <time>2025-04-29T15:35:30Z</time>
      </trkpt>
      <trkpt lat="43.529032990336418" lon="-6.574770966544747">
        <ele>132.31999999999999</ele>
        <time>2025-04-29T15:35:39Z</time>
      </trkpt>
      <trkpt lat="43.529675966128707" lon="-6.578122973442078">
        <ele>137.13</ele>
        <time>2025-04-29T15:35:49Z</time>
      </trkpt>
      <trkpt lat="43.530644997954369" lon="-6.581101985648274">
        <ele>138.56999999999999</ele>
        <time>2025-04-29T15:35:58Z</time>
      </trkpt>
      <trkpt lat="43.532150974497199" lon="-6.584103964269161">
        <ele>140.97</ele>
        <time>2025-04-29T15:36:08Z</time>
      </trkpt>
      <trkpt lat="43.533528037369251" lon="-6.586200026795268">
        <ele>143.37</ele>
        <time>2025-04-29T15:36:16Z</time>
      </trkpt>
      <trkpt lat="43.534569991752505" lon="-6.588236996904016">
        <ele>145.78</ele>
        <time>2025-04-29T15:36:23Z</time>
      </trkpt>
      <trkpt lat="43.535298965871334" lon="-6.590981986373663">
        <ele>146.74000000000001</ele>
        <time>2025-04-29T15:36:31Z</time>
      </trkpt>
      <trkpt lat="43.535420000553131" lon="-6.593822026625276">
        <ele>143.37</ele>
        <time>2025-04-29T15:36:39Z</time>
      </trkpt>
      <trkpt lat="43.535249009728432" lon="-6.59729196690023">
        <ele>142.88999999999999</ele>
        <time>2025-04-29T15:36:49Z</time>
      </trkpt>
      <trkpt lat="43.535335008054972" lon="-6.599485008046031">
        <ele>144.34</ele>
        <time>2025-04-29T15:36:56Z</time>
      </trkpt>
      <trkpt lat="43.535559978336096" lon="-6.600842038169503">
        <ele>145.78</ele>
        <time>2025-04-29T15:37:01Z</time>
      </trkpt>
      <trkpt lat="43.535644970834255" lon="-6.601143032312393">
        <ele>146.74000000000001</ele>
        <time>2025-04-29T15:37:03Z</time>
      </trkpt>
      <trkpt lat="43.537252033129334" lon="-6.605143966153264">
        <ele>146.74000000000001</ele>
        <time>2025-04-29T15:37:18Z</time>
      </trkpt>
      <trkpt lat="43.538775024935603" lon="-6.608389019966126">
        <ele>147.69999999999999</ele>
        <time>2025-04-29T15:37:30Z</time>
      </trkpt>
      <trkpt lat="43.539595026522875" lon="-6.611082041636109">
        <ele>151.06</ele>
        <time>2025-04-29T15:37:38Z</time>
      </trkpt>
      <trkpt lat="43.54016499593854" lon="-6.614539995789528">
        <ele>156.34999999999999</ele>
        <time>2025-04-29T15:37:47Z</time>
      </trkpt>
      <trkpt lat="43.540805038064718" lon="-6.616575038060546">
        <ele>158.27000000000001</ele>
        <time>2025-04-29T15:37:53Z</time>
      </trkpt>
      <trkpt lat="43.541746996343136" lon="-6.61963895894587">
        <ele>158.75</ele>
        <time>2025-04-29T15:38:03Z</time>
      </trkpt>
      <trkpt lat="43.541921004652977" lon="-6.620992971584201">
        <ele>158.27000000000001</ele>
        <time>2025-04-29T15:38:08Z</time>
      </trkpt>
      <trkpt lat="43.541841041296721" lon="-6.624177005141974">
        <ele>157.78999999999999</ele>
        <time>2025-04-29T15:38:17Z</time>
      </trkpt>
      <trkpt lat="43.541377019137144" lon="-6.626964993774891">
        <ele>148.18000000000001</ele>
        <time>2025-04-29T15:38:25Z</time>
      </trkpt>
      <trkpt lat="43.540447968989611" lon="-6.629794975742698">
        <ele>133.75999999999999</ele>
        <time>2025-04-29T15:38:34Z</time>
      </trkpt>
      <trkpt lat="43.539103008806705" lon="-6.633637994527817">
        <ele>115.01000000000001</ele>
        <time>2025-04-29T15:38:46Z</time>
      </trkpt>
      <trkpt lat="43.538507977500558" lon="-6.63710399530828">
        <ele>108.29000000000001</ele>
        <time>2025-04-29T15:38:56Z</time>
      </trkpt>
      <trkpt lat="43.53795200586319" lon="-6.641644975170493">
        <ele>114.05</ele>
        <time>2025-04-29T15:39:09Z</time>
      </trkpt>
      <trkpt lat="43.53739301674068" lon="-6.644842000678182">
        <ele>118.86</ele>
        <time>2025-04-29T15:39:18Z</time>
      </trkpt>
      <trkpt lat="43.53638400323689" lon="-6.648697005584836">
        <ele>114.53</ele>
        <time>2025-04-29T15:39:30Z</time>
      </trkpt>
      <trkpt lat="43.53503099642694" lon="-6.652543963864446">
        <ele>108.77</ele>
        <time>2025-04-29T15:39:42Z</time>
      </trkpt>
      <trkpt lat="43.533576987683773" lon="-6.656607007607818">
        <ele>99.629999999999995</ele>
        <time>2025-04-29T15:39:55Z</time>
      </trkpt>
      <trkpt lat="43.53318496607244" lon="-6.659385021775961">
        <ele>96.269999999999996</ele>
        <time>2025-04-29T15:40:03Z</time>
      </trkpt>
      <trkpt lat="43.533286973834038" lon="-6.661850977689028">
        <ele>96.269999999999996</ele>
        <time>2025-04-29T15:40:10Z</time>
      </trkpt>
      <trkpt lat="43.533714031800628" lon="-6.664929986000061">
        <ele>95.790000000000006</ele>
        <time>2025-04-29T15:40:19Z</time>
      </trkpt>
      <trkpt lat="43.534036986529827" lon="-6.668424988165498">
        <ele>95.790000000000006</ele>
        <time>2025-04-29T15:40:29Z</time>
      </trkpt>
      <trkpt lat="43.533960962668061" lon="-6.671807002276182">
        <ele>97.230000000000004</ele>
        <time>2025-04-29T15:40:38Z</time>
      </trkpt>
      <trkpt lat="43.533664997667074" lon="-6.674685012549162">
        <ele>93.870000000000005</ele>
        <time>2025-04-29T15:40:46Z</time>
      </trkpt>
      <trkpt lat="43.533412031829357" lon="-6.678187977522612">
        <ele>81.370000000000005</ele>
        <time>2025-04-29T15:40:56Z</time>
      </trkpt>
      <trkpt lat="43.533515967428684" lon="-6.680952999740839">
        <ele>74.159999999999997</ele>
        <time>2025-04-29T15:41:04Z</time>
      </trkpt>
      <trkpt lat="43.533628033474088" lon="-6.684353034943342">
        <ele>79.450000000000003</ele>
        <time>2025-04-29T15:41:14Z</time>
      </trkpt>
      <trkpt lat="43.533253027126193" lon="-6.687127025797963">
        <ele>84.25</ele>
        <time>2025-04-29T15:41:22Z</time>
      </trkpt>
      <trkpt lat="43.532620025798678" lon="-6.691007008776069">
        <ele>89.060000000000002</ele>
        <time>2025-04-29T15:41:33Z</time>
      </trkpt>
      <trkpt lat="43.532546013593674" lon="-6.694488013163209">
        <ele>86.659999999999997</ele>
        <time>2025-04-29T15:41:43Z</time>
      </trkpt>
      <trkpt lat="43.532939041033387" lon="-6.698376964777708">
        <ele>78.969999999999999</ele>
        <time>2025-04-29T15:41:54Z</time>
      </trkpt>
      <trkpt lat="43.532932000234723" lon="-6.701315995305777">
        <ele>73.200000000000003</ele>
        <time>2025-04-29T15:42:02Z</time>
      </trkpt>
      <trkpt lat="43.532550958916545" lon="-6.703757978975773">
        <ele>68.390000000000001</ele>
        <time>2025-04-29T15:42:09Z</time>
      </trkpt>
      <trkpt lat="43.53170002810657" lon="-6.706345975399017">
        <ele>59.740000000000002</ele>
        <time>2025-04-29T15:42:17Z</time>
      </trkpt>
      <trkpt lat="43.530484987422824" lon="-6.708959033712745">
        <ele>53.009999999999998</ele>
        <time>2025-04-29T15:42:26Z</time>
      </trkpt>
      <trkpt lat="43.529308000579476" lon="-6.712416987866163">
        <ele>53.009999999999998</ele>
        <time>2025-04-29T15:42:37Z</time>
      </trkpt>
      <trkpt lat="43.528707018122077" lon="-6.715531032532454">
        <ele>49.649999999999999</ele>
        <time>2025-04-29T15:42:46Z</time>
      </trkpt>
      <trkpt lat="43.528497973456979" lon="-6.718675000593066">
        <ele>40.030000000000001</ele>
        <time>2025-04-29T15:42:55Z</time>
      </trkpt>
      <trkpt lat="43.528765020892024" lon="-6.722137983888388">
        <ele>30.420000000000002</ele>
        <time>2025-04-29T15:43:05Z</time>
      </trkpt>
      <trkpt lat="43.529452001675963" lon="-6.725540030747652">
        <ele>25.129999999999999</ele>
        <time>2025-04-29T15:43:15Z</time>
      </trkpt>
      <trkpt lat="43.530416004359722" lon="-6.728300023823977">
        <ele>26.09</ele>
        <time>2025-04-29T15:43:24Z</time>
      </trkpt>
      <trkpt lat="43.5316570289433" lon="-6.731138974428177">
        <ele>31.859999999999999</ele>
        <time>2025-04-29T15:43:33Z</time>
      </trkpt>
      <trkpt lat="43.532421039417386" lon="-6.733715990558267">
        <ele>38.109999999999999</ele>
        <time>2025-04-29T15:43:41Z</time>
      </trkpt>
      <trkpt lat="43.53275396861136" lon="-6.736203990876675">
        <ele>42.920000000000002</ele>
        <time>2025-04-29T15:43:48Z</time>
      </trkpt>
      <trkpt lat="43.532936023548245" lon="-6.739147966727614">
        <ele>47.719999999999999</ele>
        <time>2025-04-29T15:43:56Z</time>
      </trkpt>
      <trkpt lat="43.533425023779273" lon="-6.741782985627651">
        <ele>54.450000000000003</ele>
        <time>2025-04-29T15:44:04Z</time>
      </trkpt>
      <trkpt lat="43.534264974296093" lon="-6.744116004556418">
        <ele>62.619999999999997</ele>
        <time>2025-04-29T15:44:12Z</time>
      </trkpt>
      <trkpt lat="43.535784026607871" lon="-6.747818039730191">
        <ele>72.239999999999995</ele>
        <time>2025-04-29T15:44:26Z</time>
      </trkpt>
      <trkpt lat="43.538815006613731" lon="-6.755506005138159">
        <ele>84.25</ele>
        <time>2025-04-29T15:44:55Z</time>
      </trkpt>
      <trkpt lat="43.5396299790591" lon="-6.758014038205147">
        <ele>91.939999999999998</ele>
        <time>2025-04-29T15:45:03Z</time>
      </trkpt>
      <trkpt lat="43.540112022310495" lon="-6.761063039302826">
        <ele>95.310000000000002</ele>
        <time>2025-04-29T15:45:12Z</time>
      </trkpt>
      <trkpt lat="43.540468001738191" lon="-6.764957020059228">
        <ele>96.75</ele>
        <time>2025-04-29T15:45:23Z</time>
      </trkpt>
      <trkpt lat="43.540547965094447" lon="-6.76805698312819">
        <ele>99.629999999999995</ele>
        <time>2025-04-29T15:45:32Z</time>
      </trkpt>
      <trkpt lat="43.540159966796637" lon="-6.770726032555103">
        <ele>105.40000000000001</ele>
        <time>2025-04-29T15:45:40Z</time>
      </trkpt>
      <trkpt lat="43.539324039593339" lon="-6.775015974417329">
        <ele>118.38</ele>
        <time>2025-04-29T15:45:53Z</time>
      </trkpt>
      <trkpt lat="43.539162017405033" lon="-6.778158014640212">
        <ele>127.51000000000001</ele>
        <time>2025-04-29T15:46:02Z</time>
      </trkpt>
      <trkpt lat="43.53952000848949" lon="-6.781467022374272">
        <ele>131.84</ele>
        <time>2025-04-29T15:46:11Z</time>
      </trkpt>
      <trkpt lat="43.540196008980274" lon="-6.784291975200176">
        <ele>126.06999999999999</ele>
        <time>2025-04-29T15:46:19Z</time>
      </trkpt>
      <trkpt lat="43.541145008057356" lon="-6.787701984867454">
        <ele>113.56999999999999</ele>
        <time>2025-04-29T15:46:29Z</time>
      </trkpt>
      <trkpt lat="43.54188303463161" lon="-6.790342032909393">
        <ele>104.92</ele>
        <time>2025-04-29T15:46:37Z</time>
      </trkpt>
      <trkpt lat="43.542995983734727" lon="-6.7943100258708">
        <ele>90.980000000000004</ele>
        <time>2025-04-29T15:46:49Z</time>
      </trkpt>
      <trkpt lat="43.544214041903615" lon="-6.798970028758049">
        <ele>72.719999999999999</ele>
        <time>2025-04-29T15:47:03Z</time>
      </trkpt>
      <trkpt lat="43.544661970809102" lon="-6.802338967099786">
        <ele>65.989999999999995</ele>
        <time>2025-04-29T15:47:13Z</time>
      </trkpt>
      <trkpt lat="43.544657025486231" lon="-6.805460974574089">
        <ele>66.950000000000003</ele>
        <time>2025-04-29T15:47:22Z</time>
      </trkpt>
      <trkpt lat="43.544318983331323" lon="-6.808421965688467">
        <ele>69.829999999999998</ele>
        <time>2025-04-29T15:47:30Z</time>
      </trkpt>
      <trkpt lat="43.543782960623503" lon="-6.811100989580154">
        <ele>72.719999999999999</ele>
        <time>2025-04-29T15:47:38Z</time>
      </trkpt>
      <trkpt lat="43.543421030044556" lon="-6.813464015722275">
        <ele>75.120000000000005</ele>
        <time>2025-04-29T15:47:45Z</time>
      </trkpt>
      <trkpt lat="43.543291026726365" lon="-6.816298021003604">
        <ele>77.519999999999996</ele>
        <time>2025-04-29T15:47:53Z</time>
      </trkpt>
      <trkpt lat="43.543364033102989" lon="-6.820886023342609">
        <ele>82.810000000000002</ele>
        <time>2025-04-29T15:48:06Z</time>
      </trkpt>
      <trkpt lat="43.543299995362759" lon="-6.824143985286355">
        <ele>83.769999999999996</ele>
        <time>2025-04-29T15:48:15Z</time>
      </trkpt>
      <trkpt lat="43.543065972626209" lon="-6.827740995213389">
        <ele>79.930000000000007</ele>
        <time>2025-04-29T15:48:25Z</time>
      </trkpt>
      <trkpt lat="43.542714016512036" lon="-6.831167014315724">
        <ele>75.599999999999994</ele>
        <time>2025-04-29T15:48:35Z</time>
      </trkpt>
      <trkpt lat="43.542497009038925" lon="-6.834301007911563">
        <ele>73.200000000000003</ele>
        <time>2025-04-29T15:48:44Z</time>
      </trkpt>
      <trkpt lat="43.542542019858956" lon="-6.83715496212244">
        <ele>68.870000000000005</ele>
        <time>2025-04-29T15:48:52Z</time>
      </trkpt>
      <trkpt lat="43.542562974616885" lon="-6.837509013712406">
        <ele>68.390000000000001</ele>
        <time>2025-04-29T15:48:53Z</time>
      </trkpt>
      <trkpt lat="43.542825998738408" lon="-6.839949991554022">
        <ele>67.909999999999997</ele>
        <time>2025-04-29T15:49:00Z</time>
      </trkpt>
      <trkpt lat="43.542956002056599" lon="-6.840642001479864">
        <ele>67.909999999999997</ele>
        <time>2025-04-29T15:49:02Z</time>
      </trkpt>
      <trkpt lat="43.543806010857224" lon="-6.843958972021937">
        <ele>71.760000000000005</ele>
        <time>2025-04-29T15:49:12Z</time>
      </trkpt>
      <trkpt lat="43.545060027390718" lon="-6.847121967002749">
        <ele>72.719999999999999</ele>
        <time>2025-04-29T15:49:22Z</time>
      </trkpt>
      <trkpt lat="43.546576984226704" lon="-6.850379006937146">
        <ele>77.040000000000006</ele>
        <time>2025-04-29T15:49:33Z</time>
      </trkpt>
      <trkpt lat="43.54738499969244" lon="-6.853001033887267">
        <ele>75.599999999999994</ele>
        <time>2025-04-29T15:49:41Z</time>
      </trkpt>
      <trkpt lat="43.547855978831649" lon="-6.856194958090782">
        <ele>73.200000000000003</ele>
        <time>2025-04-29T15:49:50Z</time>
      </trkpt>
      <trkpt lat="43.547981958836317" lon="-6.859388966113329">
        <ele>67.430000000000007</ele>
        <time>2025-04-29T15:49:59Z</time>
      </trkpt>
      <trkpt lat="43.548016995191574" lon="-6.862895032390952">
        <ele>58.780000000000001</ele>
        <time>2025-04-29T15:50:09Z</time>
      </trkpt>
      <trkpt lat="43.547776015475392" lon="-6.866391962394118">
        <ele>54.450000000000003</ele>
        <time>2025-04-29T15:50:19Z</time>
      </trkpt>
      <trkpt lat="43.547115018591285" lon="-6.869374997913837">
        <ele>47.719999999999999</ele>
        <time>2025-04-29T15:50:28Z</time>
      </trkpt>
      <trkpt lat="43.546730959787965" lon="-6.872157035395503">
        <ele>41.950000000000003</ele>
        <time>2025-04-29T15:50:36Z</time>
      </trkpt>
      <trkpt lat="43.546534990891814" lon="-6.874949969351292">
        <ele>37.630000000000003</ele>
        <time>2025-04-29T15:50:44Z</time>
      </trkpt>
      <trkpt lat="43.546281019225717" lon="-6.879083001986146">
        <ele>45.799999999999997</ele>
        <time>2025-04-29T15:50:56Z</time>
      </trkpt>
      <trkpt lat="43.545968038961291" lon="-6.882359990850091">
        <ele>53.969999999999999</ele>
        <time>2025-04-29T15:51:05Z</time>
      </trkpt>
      <trkpt lat="43.545340988785028" lon="-6.885011019185185">
        <ele>61.659999999999997</ele>
        <time>2025-04-29T15:51:13Z</time>
      </trkpt>
      <trkpt lat="43.544643027707934" lon="-6.888009980320931">
        <ele>70.310000000000002</ele>
        <time>2025-04-29T15:51:22Z</time>
      </trkpt>
      <trkpt lat="43.54429199360311" lon="-6.890245014801621">
        <ele>75.599999999999994</ele>
        <time>2025-04-29T15:51:28Z</time>
      </trkpt>
      <trkpt lat="43.544067023321986" lon="-6.893307007849217">
        <ele>78.969999999999999</ele>
        <time>2025-04-29T15:51:37Z</time>
      </trkpt>
      <trkpt lat="43.544187974184752" lon="-6.896840985864401">
        <ele>78.969999999999999</ele>
        <time>2025-04-29T15:51:47Z</time>
      </trkpt>
      <trkpt lat="43.544690972194076" lon="-6.900335988029838">
        <ele>75.599999999999994</ele>
        <time>2025-04-29T15:51:57Z</time>
      </trkpt>
      <trkpt lat="43.545438973233104" lon="-6.90358598716557">
        <ele>70.790000000000006</ele>
        <time>2025-04-29T15:52:07Z</time>
      </trkpt>
      <trkpt lat="43.54624698869884" lon="-6.907707033678889">
        <ele>65.030000000000001</ele>
        <time>2025-04-29T15:52:19Z</time>
      </trkpt>
      <trkpt lat="43.546576984226704" lon="-6.911217039451003">
        <ele>61.18</ele>
        <time>2025-04-29T15:52:29Z</time>
      </trkpt>
      <trkpt lat="43.546644039452076" lon="-6.914795022457838">
        <ele>55.409999999999997</ele>
        <time>2025-04-29T15:52:40Z</time>
      </trkpt>
      <trkpt lat="43.546511018648744" lon="-6.920106969773769">
        <ele>50.130000000000003</ele>
        <time>2025-04-29T15:52:54Z</time>
      </trkpt>
      <trkpt lat="43.546302979812026" lon="-6.923354035243392">
        <ele>50.130000000000003</ele>
        <time>2025-04-29T15:53:03Z</time>
      </trkpt>
      <trkpt lat="43.545964015647769" lon="-6.927095968276262">
        <ele>52.530000000000001</ele>
        <time>2025-04-29T15:53:14Z</time>
      </trkpt>
      <trkpt lat="43.545390022918582" lon="-6.931580035015941">
        <ele>52.530000000000001</ele>
        <time>2025-04-29T15:53:27Z</time>
      </trkpt>
      <trkpt lat="43.544544959440827" lon="-6.936582019552589">
        <ele>51.090000000000003</ele>
        <time>2025-04-29T15:53:41Z</time>
      </trkpt>
      <trkpt lat="43.543758988380432" lon="-6.940342979505658">
        <ele>48.200000000000003</ele>
        <time>2025-04-29T15:53:52Z</time>
      </trkpt>
      <trkpt lat="43.543062033131719" lon="-6.943738991394639">
        <ele>45.799999999999997</ele>
        <time>2025-04-29T15:54:02Z</time>
      </trkpt>
      <trkpt lat="43.54263698682189" lon="-6.946580959483981">
        <ele>45.799999999999997</ele>
        <time>2025-04-29T15:54:10Z</time>
      </trkpt>
      <trkpt lat="43.542359964922071" lon="-6.950435964390636">
        <ele>46.759999999999998</ele>
        <time>2025-04-29T15:54:21Z</time>
      </trkpt>
      <trkpt lat="43.542396007105708" lon="-6.953622009605169">
        <ele>48.200000000000003</ele>
        <time>2025-04-29T15:54:30Z</time>
      </trkpt>
      <trkpt lat="43.542531039565802" lon="-6.957150958478451">
        <ele>45.32</ele>
        <time>2025-04-29T15:54:40Z</time>
      </trkpt>
      <trkpt lat="43.542476976290345" lon="-6.960984002798796">
        <ele>43.399999999999999</ele>
        <time>2025-04-29T15:54:51Z</time>
      </trkpt>
      <trkpt lat="43.542174976319075" lon="-6.963234040886164">
        <ele>40.030000000000001</ele>
        <time>2025-04-29T15:54:59Z</time>
      </trkpt>
      <trkpt lat="43.54156200774014" lon="-6.967702014371753">
        <ele>39.549999999999997</ele>
        <time>2025-04-29T15:55:12Z</time>
      </trkpt>
      <trkpt lat="43.541321028023958" lon="-6.971199028193951">
        <ele>39.549999999999997</ele>
        <time>2025-04-29T15:55:22Z</time>
      </trkpt>
      <trkpt lat="43.541397973895073" lon="-6.974341990426183">
        <ele>39.549999999999997</ele>
        <time>2025-04-29T15:55:31Z</time>
      </trkpt>
      <trkpt lat="43.541621016338468" lon="-6.977873034775257">
        <ele>39.549999999999997</ele>
        <time>2025-04-29T15:55:41Z</time>
      </trkpt>
      <trkpt lat="43.541407026350498" lon="-6.9811259675771">
        <ele>39.07</ele>
        <time>2025-04-29T15:55:50Z</time>
      </trkpt>
      <trkpt lat="43.540890030562878" lon="-6.983913034200668">
        <ele>36.189999999999998</ele>
        <time>2025-04-29T15:55:58Z</time>
      </trkpt>
      <trkpt lat="43.540559029206634" lon="-6.987061025574803">
        <ele>32.340000000000003</ele>
        <time>2025-04-29T15:56:07Z</time>
      </trkpt>
      <trkpt lat="43.540388960391283" lon="-6.991609968245029">
        <ele>35.710000000000001</ele>
        <time>2025-04-29T15:56:20Z</time>
      </trkpt>
      <trkpt lat="43.54063899256289" lon="-6.994240041822195">
        <ele>37.149999999999999</ele>
        <time>2025-04-29T15:56:28Z</time>
      </trkpt>
      <trkpt lat="43.541351035237312" lon="-6.996488990262151">
        <ele>36.189999999999998</ele>
        <time>2025-04-29T15:56:35Z</time>
      </trkpt>
      <trkpt lat="43.54282901622355" lon="-6.99953799135983">
        <ele>33.299999999999997</ele>
        <time>2025-04-29T15:56:45Z</time>
      </trkpt>
      <trkpt lat="43.54388102889061" lon="-7.002337966114283">
        <ele>28.02</ele>
        <time>2025-04-29T15:56:54Z</time>
      </trkpt>
      <trkpt lat="43.544626012444496" lon="-7.005400964990258">
        <ele>22.73</ele>
        <time>2025-04-29T15:57:03Z</time>
      </trkpt>
      <trkpt lat="43.545073019340634" lon="-7.008779039606452">
        <ele>22.25</ele>
        <time>2025-04-29T15:57:13Z</time>
      </trkpt>
      <trkpt lat="43.545157006010413" lon="-7.011856958270073">
        <ele>23.690000000000001</ele>
        <time>2025-04-29T15:57:22Z</time>
      </trkpt>
      <trkpt lat="43.544896999374032" lon="-7.015167977660894">
        <ele>26.09</ele>
        <time>2025-04-29T15:57:31Z</time>
      </trkpt>
      <trkpt lat="43.5444410238415" lon="-7.017879020422697">
        <ele>29.940000000000001</ele>
        <time>2025-04-29T15:57:39Z</time>
      </trkpt>
      <trkpt lat="43.543569976463914" lon="-7.021810971200466">
        <ele>31.379999999999999</ele>
        <time>2025-04-29T15:57:51Z</time>
      </trkpt>
      <trkpt lat="43.54319698177278" lon="-7.024520002305508">
        <ele>32.340000000000003</ele>
        <time>2025-04-29T15:57:58Z</time>
      </trkpt>
      <trkpt lat="43.543083993718028" lon="-7.026941031217575">
        <ele>33.780000000000001</ele>
        <time>2025-04-29T15:58:05Z</time>
      </trkpt>
      <trkpt lat="43.543003024533391" lon="-7.031943015754223">
        <ele>36.189999999999998</ele>
        <time>2025-04-29T15:58:20Z</time>
      </trkpt>
      <trkpt lat="43.542948961257935" lon="-7.037223028019071">
        <ele>35.229999999999997</ele>
        <time>2025-04-29T15:58:35Z</time>
      </trkpt>
      <trkpt lat="43.542909985408187" lon="-7.041425965726376">
        <ele>33.299999999999997</ele>
        <time>2025-04-29T15:58:47Z</time>
      </trkpt>
      <trkpt lat="43.54282901622355" lon="-7.04405402764678">
        <ele>31.859999999999999</ele>
        <time>2025-04-29T15:58:56Z</time>
      </trkpt>
      <trkpt lat="43.54267998598516" lon="-7.045621024444699">
        <ele>28.5</ele>
        <time>2025-04-29T15:59:04Z</time>
      </trkpt>
      <trkpt lat="43.542683003470302" lon="-7.046232987195253">
        <ele>25.609999999999999</ele>
        <time>2025-04-29T15:59:08Z</time>
      </trkpt>
      <trkpt lat="43.542718039825559" lon="-7.046337006613612">
        <ele>25.129999999999999</ele>
        <time>2025-04-29T15:59:09Z</time>
      </trkpt>
      <trkpt lat="43.542746035382152" lon="-7.046420993283391">
        <ele>24.649999999999999</ele>
        <time>2025-04-29T15:59:10Z</time>
      </trkpt>
      <trkpt lat="43.542794985696673" lon="-7.046458041295409">
        <ele>24.170000000000002</ele>
        <time>2025-04-29T15:59:11Z</time>
      </trkpt>
      <trkpt lat="43.542858017608523" lon="-7.046555019915104">
        <ele>24.170000000000002</ele>
        <time>2025-04-29T15:59:12Z</time>
      </trkpt>
      <trkpt lat="43.542890036478639" lon="-7.046641018241644">
        <ele>24.649999999999999</ele>
        <time>2025-04-29T15:59:13Z</time>
      </trkpt>
      <trkpt lat="43.542876960709691" lon="-7.046766998246312">
        <ele>24.170000000000002</ele>
        <time>2025-04-29T15:59:14Z</time>
      </trkpt>
      <trkpt lat="43.542827004566789" lon="-7.04684897325933">
        <ele>24.170000000000002</ele>
        <time>2025-04-29T15:59:15Z</time>
      </trkpt>
      <trkpt lat="43.542761038988829" lon="-7.046864982694387">
        <ele>24.170000000000002</ele>
        <time>2025-04-29T15:59:16Z</time>
      </trkpt>
      <trkpt lat="43.542687026783824" lon="-7.046856014057994">
        <ele>23.690000000000001</ele>
        <time>2025-04-29T15:59:17Z</time>
      </trkpt>
      <trkpt lat="43.542630029842257" lon="-7.046828018501401">
        <ele>23.690000000000001</ele>
        <time>2025-04-29T15:59:18Z</time>
      </trkpt>
      <trkpt lat="43.542589964345098" lon="-7.046728022396565">
        <ele>23.690000000000001</ele>
        <time>2025-04-29T15:59:19Z</time>
      </trkpt>
      <trkpt lat="43.542498014867306" lon="-7.046607993543148">
        <ele>23.690000000000001</ele>
        <time>2025-04-29T15:59:20Z</time>
      </trkpt>
      <trkpt lat="43.542413022369146" lon="-7.046566000208259">
        <ele>23.690000000000001</ele>
        <time>2025-04-29T15:59:21Z</time>
      </trkpt>
      <trkpt lat="43.542330963537097" lon="-7.04652501270175">
        <ele>23.690000000000001</ele>
        <time>2025-04-29T15:59:22Z</time>
      </trkpt>
      <trkpt lat="43.542252006009221" lon="-7.046485031023622">
        <ele>24.170000000000002</ele>
        <time>2025-04-29T15:59:23Z</time>
      </trkpt>
      <trkpt lat="43.542189979925752" lon="-7.046454017981887">
        <ele>24.649999999999999</ele>
        <time>2025-04-29T15:59:24Z</time>
      </trkpt>
      <trkpt lat="43.542166007682681" lon="-7.046442031860352">
        <ele>25.609999999999999</ele>
        <time>2025-04-29T15:59:25Z</time>
      </trkpt>
      <trkpt lat="43.542061988264322" lon="-7.046389980241656">
        <ele>26.57</ele>
        <time>2025-04-29T15:59:26Z</time>
      </trkpt>
      <trkpt lat="43.541909018531442" lon="-7.046463992446661">
        <ele>27.050000000000001</ele>
        <time>2025-04-29T15:59:27Z</time>
      </trkpt>
      <trkpt lat="43.541909018531442" lon="-7.046463992446661">
        <ele>28.02</ele>
        <time>2025-04-29T15:59:29Z</time>
      </trkpt>
      <trkpt lat="43.541800975799561" lon="-7.046528030186892">
        <ele>28.02</ele>
        <time>2025-04-29T15:59:30Z</time>
      </trkpt>
      <trkpt lat="43.54173400439322" lon="-7.046470027416945">
        <ele>28.5</ele>
        <time>2025-04-29T15:59:31Z</time>
      </trkpt>
      <trkpt lat="43.541678013280034" lon="-7.046421999111772">
        <ele>28.5</ele>
        <time>2025-04-29T15:59:32Z</time>
      </trkpt>
      <trkpt lat="43.541651023551822" lon="-7.046394003555179">
        <ele>27.530000000000001</ele>
        <time>2025-04-29T15:59:33Z</time>
      </trkpt>
      <trkpt lat="43.541651023551822" lon="-7.046297024935484">
        <ele>27.050000000000001</ele>
        <time>2025-04-29T15:59:34Z</time>
      </trkpt>
      <trkpt lat="43.541651023551822" lon="-7.046205997467041">
        <ele>26.57</ele>
        <time>2025-04-29T15:59:35Z</time>
      </trkpt>
      <trkpt lat="43.541698968037963" lon="-7.046126034110785">
        <ele>26.09</ele>
        <time>2025-04-29T15:59:36Z</time>
      </trkpt>
      <trkpt lat="43.541755964979529" lon="-7.046026960015297">
        <ele>25.609999999999999</ele>
        <time>2025-04-29T15:59:37Z</time>
      </trkpt>
      <trkpt lat="43.541815979406238" lon="-7.045920006930828">
        <ele>25.609999999999999</ele>
        <time>2025-04-29T15:59:38Z</time>
      </trkpt>
      <trkpt lat="43.541879011318088" lon="-7.045808024704456">
        <ele>25.129999999999999</ele>
        <time>2025-04-29T15:59:39Z</time>
      </trkpt>
      <trkpt lat="43.541947994381189" lon="-7.045685984194279">
        <ele>25.609999999999999</ele>
        <time>2025-04-29T15:59:40Z</time>
      </trkpt>
      <trkpt lat="43.542018989101052" lon="-7.045560004189611">
        <ele>26.09</ele>
        <time>2025-04-29T15:59:41Z</time>
      </trkpt>
      <trkpt lat="43.542101969942451" lon="-7.045411979779601">
        <ele>26.57</ele>
        <time>2025-04-29T15:59:42Z</time>
      </trkpt>
      <trkpt lat="43.542133988812566" lon="-7.045266972854734">
        <ele>27.050000000000001</ele>
        <time>2025-04-29T15:59:43Z</time>
      </trkpt>
      <trkpt lat="43.542171958833933" lon="-7.045098999515176">
        <ele>27.530000000000001</ele>
        <time>2025-04-29T15:59:44Z</time>
      </trkpt>
      <trkpt lat="43.542478987947106" lon="-7.043605009093881">
        <ele>30.420000000000002</ele>
        <time>2025-04-29T15:59:54Z</time>
      </trkpt>
      <trkpt lat="43.542489968240261" lon="-7.043481962755323">
        <ele>30.899999999999999</ele>
        <time>2025-04-29T15:59:55Z</time>
      </trkpt>
      <trkpt lat="43.542494997382164" lon="-7.043352965265513">
        <ele>30.899999999999999</ele>
        <time>2025-04-29T15:59:56Z</time>
      </trkpt>
      <trkpt lat="43.54252802208066" lon="-7.042498011142016">
        <ele>27.050000000000001</ele>
        <time>2025-04-29T16:00:03Z</time>
      </trkpt>
      <trkpt lat="43.542530033737421" lon="-7.042435985058546">
        <ele>26.57</ele>
        <time>2025-04-29T16:00:04Z</time>
      </trkpt>
      <trkpt lat="43.542472030967474" lon="-7.042383011430502">
        <ele>26.57</ele>
        <time>2025-04-29T16:00:05Z</time>
      </trkpt>
      <trkpt lat="43.542429031804204" lon="-7.042363984510303">
        <ele>26.09</ele>
        <time>2025-04-29T16:00:06Z</time>
      </trkpt>
      <trkpt lat="43.542372034862638" lon="-7.042340012267232">
        <ele>25.609999999999999</ele>
        <time>2025-04-29T16:00:07Z</time>
      </trkpt>
      <trkpt lat="43.542301962152123" lon="-7.042310005053878">
        <ele>25.609999999999999</ele>
        <time>2025-04-29T16:00:08Z</time>
      </trkpt>
      <trkpt lat="43.542213030159473" lon="-7.042262982577086">
        <ele>25.609999999999999</ele>
        <time>2025-04-29T16:00:09Z</time>
      </trkpt>
      <trkpt lat="43.542137006297708" lon="-7.042192993685603">
        <ele>26.09</ele>
        <time>2025-04-29T16:00:10Z</time>
      </trkpt>
      <trkpt lat="43.542058970779181" lon="-7.04212099313736">
        <ele>26.09</ele>
        <time>2025-04-29T16:00:11Z</time>
      </trkpt>
      <trkpt lat="43.541960986331105" lon="-7.042041029781103">
        <ele>26.57</ele>
        <time>2025-04-29T16:00:12Z</time>
      </trkpt>
      <trkpt lat="43.541914969682693" lon="-7.041913038119674">
        <ele>27.050000000000001</ele>
        <time>2025-04-29T16:00:13Z</time>
      </trkpt>
      <trkpt lat="43.541876999661326" lon="-7.04179703257978">
        <ele>27.530000000000001</ele>
        <time>2025-04-29T16:00:14Z</time>
      </trkpt>
      <trkpt lat="43.541839029639959" lon="-7.041682032868266">
        <ele>28.02</ele>
        <time>2025-04-29T16:00:15Z</time>
      </trkpt>
      <trkpt lat="43.541813967749476" lon="-7.041552029550076">
        <ele>28.02</ele>
        <time>2025-04-29T16:00:16Z</time>
      </trkpt>
      <trkpt lat="43.541800975799561" lon="-7.041441975161433">
        <ele>28.98</ele>
        <time>2025-04-29T16:00:17Z</time>
      </trkpt>
      <trkpt lat="43.541800975799561" lon="-7.041313983500004">
        <ele>28.98</ele>
        <time>2025-04-29T16:00:18Z</time>
      </trkpt>
      <trkpt lat="43.541831988841295" lon="-7.040979964658618">
        <ele>29.940000000000001</ele>
        <time>2025-04-29T16:00:21Z</time>
      </trkpt>
      <trkpt lat="43.54184296913445" lon="-7.04066002741456">
        <ele>30.899999999999999</ele>
        <time>2025-04-29T16:00:26Z</time>
      </trkpt>
      <trkpt lat="43.541816985234618" lon="-7.040642006322742">
        <ele>31.379999999999999</ele>
        <time>2025-04-29T16:00:27Z</time>
      </trkpt>
      <trkpt lat="43.54177700355649" lon="-7.040613004937768">
        <ele>31.859999999999999</ele>
        <time>2025-04-29T16:00:28Z</time>
      </trkpt>
      <trkpt lat="43.541721012443304" lon="-7.04057402908802">
        <ele>31.859999999999999</ele>
        <time>2025-04-29T16:00:29Z</time>
      </trkpt>
      <trkpt lat="43.541662003844976" lon="-7.040532035753131">
        <ele>32.340000000000003</ele>
        <time>2025-04-29T16:00:30Z</time>
      </trkpt>
      <trkpt lat="43.541465029120445" lon="-7.040391974151135">
        <ele>33.299999999999997</ele>
        <time>2025-04-29T16:00:33Z</time>
      </trkpt>
      <trkpt lat="43.541394034400582" lon="-7.040342018008232">
        <ele>34.259999999999998</ele>
        <time>2025-04-29T16:00:34Z</time>
      </trkpt>
      <trkpt lat="43.541341982781887" lon="-7.04027496278286">
        <ele>34.740000000000002</ele>
        <time>2025-04-29T16:00:35Z</time>
      </trkpt>
      <trkpt lat="43.540974017232656" lon="-7.039858968928456">
        <ele>36.670000000000002</ele>
        <time>2025-04-29T16:00:42Z</time>
      </trkpt>
      <trkpt lat="43.540944010019302" lon="-7.039896016940475">
        <ele>36.670000000000002</ele>
        <time>2025-04-29T16:00:43Z</time>
      </trkpt>
      <trkpt lat="43.540901010856032" lon="-7.039945973083377">
        <ele>36.670000000000002</ele>
        <time>2025-04-29T16:00:44Z</time>
      </trkpt>
      <trkpt lat="43.540520975366235" lon="-7.040362972766161">
        <ele>37.149999999999999</ele>
        <time>2025-04-29T16:00:51Z</time>
      </trkpt>
      <trkpt lat="43.539870036765933" lon="-7.040978958830237">
        <ele>39.07</ele>
        <time>2025-04-29T16:01:03Z</time>
      </trkpt>
      <trkpt lat="43.539751013740897" lon="-7.041087001562119">
        <ele>39.07</ele>
        <time>2025-04-29T16:01:05Z</time>
      </trkpt>
      <trkpt lat="43.539690999314189" lon="-7.041141986846924">
        <ele>39.07</ele>
        <time>2025-04-29T16:01:06Z</time>
      </trkpt>
      <trkpt lat="43.539577005431056" lon="-7.041246006265283">
        <ele>39.549999999999997</ele>
        <time>2025-04-29T16:01:08Z</time>
      </trkpt>
      <trkpt lat="43.539522020146251" lon="-7.041295962408185">
        <ele>39.549999999999997</ele>
        <time>2025-04-29T16:01:09Z</time>
      </trkpt>
      <trkpt lat="43.539174003526568" lon="-7.041612965986133">
        <ele>40.030000000000001</ele>
        <time>2025-04-29T16:01:16Z</time>
      </trkpt>
      <trkpt lat="43.539161011576653" lon="-7.041624030098319">
        <ele>40.030000000000001</ele>
        <time>2025-04-29T16:01:17Z</time>
      </trkpt>
      <trkpt lat="43.53915598243475" lon="-7.04162897542119">
        <ele>40.030000000000001</ele>
        <time>2025-04-29T16:01:18Z</time>
      </trkpt>
      <trkpt lat="43.539153970777988" lon="-7.041630987077951">
        <ele>39.549999999999997</ele>
        <time>2025-04-29T16:01:19Z</time>
      </trkpt>
      <trkpt lat="43.539153970777988" lon="-7.041630987077951">
        <ele>39.549999999999997</ele>
        <time>2025-04-29T16:01:20Z</time>
      </trkpt>
      <trkpt lat="43.539166962727904" lon="-7.04179996624589">
        <ele>39.07</ele>
        <time>2025-04-29T16:01:23Z</time>
      </trkpt>
      <trkpt lat="43.539183977991343" lon="-7.041812036186457">
        <ele>39.07</ele>
        <time>2025-04-29T16:01:24Z</time>
      </trkpt>
      <trkpt lat="43.539205016568303" lon="-7.041827039793134">
        <ele>39.07</ele>
        <time>2025-04-29T16:01:25Z</time>
      </trkpt>
      <trkpt lat="43.539225971326232" lon="-7.04184103757143">
        <ele>39.07</ele>
        <time>2025-04-29T16:01:26Z</time>
      </trkpt>
      <trkpt lat="43.539243992418051" lon="-7.041854029521346">
        <ele>39.07</ele>
        <time>2025-04-29T16:01:27Z</time>
      </trkpt>
      <trkpt lat="43.539258996024728" lon="-7.04186400398612">
        <ele>39.07</ele>
        <time>2025-04-29T16:01:28Z</time>
      </trkpt>
      <trkpt lat="43.539258996024728" lon="-7.04186400398612">
        <ele>38.590000000000003</ele>
        <time>2025-04-29T16:01:44Z</time>
      </trkpt>
      <trkpt lat="43.539460999891162" lon="-7.041674992069602">
        <ele>40.509999999999998</ele>
        <time>2025-04-29T16:15:58Z</time>
      </trkpt>
      <trkpt lat="43.539225971326232" lon="-7.041856963187456">
        <ele>65.030000000000001</ele>
        <time>2025-04-29T16:16:14Z</time>
      </trkpt>
      <trkpt lat="43.539233012124896" lon="-7.041841959580779">
        <ele>65.510000000000005</ele>
        <time>2025-04-29T16:16:16Z</time>
      </trkpt>
      <trkpt lat="43.539271987974644" lon="-7.041872972622514">
        <ele>65.030000000000001</ele>
        <time>2025-04-29T16:16:18Z</time>
      </trkpt>
      <trkpt lat="43.539406014606357" lon="-7.041967017576098">
        <ele>63.100000000000001</ele>
        <time>2025-04-29T16:16:22Z</time>
      </trkpt>
      <trkpt lat="43.539428981021047" lon="-7.041983027011156">
        <ele>63.100000000000001</ele>
        <time>2025-04-29T16:16:23Z</time>
      </trkpt>
      <trkpt lat="43.539427975192666" lon="-7.042087968438864">
        <ele>62.619999999999997</ele>
        <time>2025-04-29T16:16:24Z</time>
      </trkpt>
      <trkpt lat="43.539420012384653" lon="-7.04209802672267">
        <ele>62.140000000000001</ele>
        <time>2025-04-29T16:16:25Z</time>
      </trkpt>
      <trkpt lat="43.539407020434737" lon="-7.042112024500966">
        <ele>61.659999999999997</ele>
        <time>2025-04-29T16:16:26Z</time>
      </trkpt>
      <trkpt lat="43.539393022656441" lon="-7.042129039764404">
        <ele>61.659999999999997</ele>
        <time>2025-04-29T16:16:27Z</time>
      </trkpt>
      <trkpt lat="43.539353962987661" lon="-7.042173966765404">
        <ele>63.579999999999998</ele>
        <time>2025-04-29T16:16:41Z</time>
      </trkpt>
      <trkpt lat="43.539353962987661" lon="-7.042173966765404">
        <ele>61.659999999999997</ele>
        <time>2025-04-29T16:17:04Z</time>
      </trkpt>
      <trkpt lat="43.539353962987661" lon="-7.042173966765404">
        <ele>54.450000000000003</ele>
        <time>2025-04-29T16:17:20Z</time>
      </trkpt>
      <trkpt lat="43.539353962987661" lon="-7.042173966765404">
        <ele>50.609999999999999</ele>
        <time>2025-04-29T16:17:52Z</time>
      </trkpt>
      <trkpt lat="43.539353962987661" lon="-7.042173966765404">
        <ele>50.609999999999999</ele>
        <time>2025-04-29T16:18:10Z</time>
      </trkpt>
      <trkpt lat="43.540248982608318" lon="-7.0410689804703">
        <ele>50.609999999999999</ele>
        <time>2025-04-29T16:45:00Z</time>
      </trkpt>
      <trkpt lat="43.540240013971925" lon="-7.04147701151669">
        <ele>50.130000000000003</ele>
        <time>2025-04-29T16:45:16Z</time>
      </trkpt>
      <trkpt lat="43.539995010942221" lon="-7.041200995445252">
        <ele>48.68</ele>
        <time>2025-04-29T16:45:36Z</time>
      </trkpt>
      <trkpt lat="43.539741039276123" lon="-7.041430994868279">
        <ele>48.200000000000003</ele>
        <time>2025-04-29T16:45:52Z</time>
      </trkpt>
      <trkpt lat="43.539698962122202" lon="-7.041467959061265">
        <ele>48.200000000000003</ele>
        <time>2025-04-29T16:46:06Z</time>
      </trkpt>
      <trkpt lat="43.539479020982981" lon="-7.041616989299655">
        <ele>58.299999999999997</ele>
        <time>2025-04-29T16:46:21Z</time>
      </trkpt>
      <trkpt lat="43.539300989359617" lon="-7.04167197458446">
        <ele>70.790000000000006</ele>
        <time>2025-04-29T16:46:38Z</time>
      </trkpt>
      <trkpt lat="43.539298977702856" lon="-7.04167096875608">
        <ele>71.760000000000005</ele>
        <time>2025-04-29T16:47:07Z</time>
      </trkpt>
      <trkpt lat="43.539396040141582" lon="-7.041560998186469">
        <ele>68.390000000000001</ele>
        <time>2025-04-29T16:47:36Z</time>
      </trkpt>
      <trkpt lat="43.539390005171299" lon="-7.041565021499991">
        <ele>68.390000000000001</ele>
        <time>2025-04-29T16:48:09Z</time>
      </trkpt>
      <trkpt lat="43.53937198407948" lon="-7.041909014806151">
        <ele>53.969999999999999</ele>
        <time>2025-04-30T07:18:19Z</time>
      </trkpt>
      <trkpt lat="43.539351029321551" lon="-7.041818993166089">
        <ele>60.700000000000003</ele>
        <time>2025-04-30T07:18:48Z</time>
      </trkpt>
      <trkpt lat="43.539322027936578" lon="-7.04192996956408">
        <ele>69.349999999999994</ele>
        <time>2025-04-30T07:19:10Z</time>
      </trkpt>
      <trkpt lat="43.539324961602688" lon="-7.041923012584448">
        <ele>65.510000000000005</ele>
        <time>2025-04-30T07:19:54Z</time>
      </trkpt>
      <trkpt lat="43.53932797908783" lon="-7.041915971785784">
        <ele>65.510000000000005</ele>
        <time>2025-04-30T07:20:27Z</time>
      </trkpt>
      <trkpt lat="43.539324961602688" lon="-7.04190599732101">
        <ele>65.510000000000005</ele>
        <time>2025-04-30T07:21:05Z</time>
      </trkpt>
      <trkpt lat="43.539330996572971" lon="-7.041902979835868">
        <ele>64.549999999999997</ele>
        <time>2025-04-30T07:21:43Z</time>
      </trkpt>
      <trkpt lat="43.539340971037745" lon="-7.041894011199474">
        <ele>64.549999999999997</ele>
        <time>2025-04-30T07:22:13Z</time>
      </trkpt>
      <trkpt lat="43.539369972422719" lon="-7.041942039504647">
        <ele>63.579999999999998</ele>
        <time>2025-04-30T07:22:16Z</time>
      </trkpt>
      <trkpt lat="43.539394028484821" lon="-7.041958970949054">
        <ele>64.069999999999993</ele>
        <time>2025-04-30T07:22:17Z</time>
      </trkpt>
      <trkpt lat="43.539422024041414" lon="-7.041979003697634">
        <ele>64.069999999999993</ele>
        <time>2025-04-30T07:22:18Z</time>
      </trkpt>
      <trkpt lat="43.53945697657764" lon="-7.042002975940704">
        <ele>64.549999999999997</ele>
        <time>2025-04-30T07:22:19Z</time>
      </trkpt>
      <trkpt lat="43.539514979347587" lon="-7.042038012295961">
        <ele>64.549999999999997</ele>
        <time>2025-04-30T07:22:20Z</time>
      </trkpt>
      <trkpt lat="43.539577005431056" lon="-7.042068019509316">
        <ele>64.069999999999993</ele>
        <time>2025-04-30T07:22:21Z</time>
      </trkpt>
      <trkpt lat="43.539784960448742" lon="-7.042176984250546">
        <ele>60.219999999999999</ele>
        <time>2025-04-30T07:22:24Z</time>
      </trkpt>
      <trkpt lat="43.539858972653747" lon="-7.042216965928674">
        <ele>59.259999999999998</ele>
        <time>2025-04-30T07:22:25Z</time>
      </trkpt>
      <trkpt lat="43.54001403786242" lon="-7.04229298979044">
        <ele>57.340000000000003</ele>
        <time>2025-04-30T07:22:27Z</time>
      </trkpt>
      <trkpt lat="43.540261974558234" lon="-7.042383011430502">
        <ele>54.93</ele>
        <time>2025-04-30T07:22:31Z</time>
      </trkpt>
      <trkpt lat="43.540291981771588" lon="-7.042393991723657">
        <ele>53.969999999999999</ele>
        <time>2025-04-30T07:22:32Z</time>
      </trkpt>
      <trkpt lat="43.5404899623245" lon="-7.042333977296948">
        <ele>53.490000000000002</ele>
        <time>2025-04-30T07:22:33Z</time>
      </trkpt>
      <trkpt lat="43.540516030043364" lon="-7.042257031425834">
        <ele>53.009999999999998</ele>
        <time>2025-04-30T07:22:34Z</time>
      </trkpt>
      <trkpt lat="43.540545031428337" lon="-7.042175978422165">
        <ele>52.530000000000001</ele>
        <time>2025-04-30T07:22:35Z</time>
      </trkpt>
      <trkpt lat="43.540574032813311" lon="-7.042090985924006">
        <ele>52.049999999999997</ele>
        <time>2025-04-30T07:22:36Z</time>
      </trkpt>
      <trkpt lat="43.540549976751208" lon="-7.041650013998151">
        <ele>47.719999999999999</ele>
        <time>2025-04-30T07:22:42Z</time>
      </trkpt>
      <trkpt lat="43.540522987022996" lon="-7.0416060090065">
        <ele>46.759999999999998</ele>
        <time>2025-04-30T07:22:43Z</time>
      </trkpt>
      <trkpt lat="43.540490968152881" lon="-7.041556974872947">
        <ele>46.280000000000001</ele>
        <time>2025-04-30T07:22:44Z</time>
      </trkpt>
      <trkpt lat="43.540458027273417" lon="-7.041505007073283">
        <ele>45.799999999999997</ele>
        <time>2025-04-30T07:22:45Z</time>
      </trkpt>
      <trkpt lat="43.54042399674654" lon="-7.041451027616859">
        <ele>45.32</ele>
        <time>2025-04-30T07:22:46Z</time>
      </trkpt>
      <trkpt lat="43.540388038381934" lon="-7.041395036503673">
        <ele>44.359999999999999</ele>
        <time>2025-04-30T07:22:47Z</time>
      </trkpt>
      <trkpt lat="43.54010003618896" lon="-7.040962027385831">
        <ele>38.109999999999999</ele>
        <time>2025-04-30T07:22:56Z</time>
      </trkpt>
      <trkpt lat="43.54010003618896" lon="-7.040962027385831">
        <ele>36.670000000000002</ele>
        <time>2025-04-30T07:23:05Z</time>
      </trkpt>
      <trkpt lat="43.54010003618896" lon="-7.040962027385831">
        <ele>34.259999999999998</ele>
        <time>2025-04-30T07:23:17Z</time>
      </trkpt>
      <trkpt lat="43.540078997612" lon="-7.040929002687335">
        <ele>33.780000000000001</ele>
        <time>2025-04-30T07:23:22Z</time>
      </trkpt>
      <trkpt lat="43.540060976520181" lon="-7.040902012959123">
        <ele>33.299999999999997</ele>
        <time>2025-04-30T07:23:23Z</time>
      </trkpt>
      <trkpt lat="43.540083020925522" lon="-7.040785001590848">
        <ele>33.299999999999997</ele>
        <time>2025-04-30T07:23:24Z</time>
      </trkpt>
      <trkpt lat="43.540124008432031" lon="-7.040748037397862">
        <ele>33.780000000000001</ele>
        <time>2025-04-30T07:23:25Z</time>
      </trkpt>
      <trkpt lat="43.540177987888455" lon="-7.040697997435927">
        <ele>33.780000000000001</ele>
        <time>2025-04-30T07:23:26Z</time>
      </trkpt>
      <trkpt lat="43.540257029235363" lon="-7.040627002716065">
        <ele>33.780000000000001</ele>
        <time>2025-04-30T07:23:27Z</time>
      </trkpt>
      <trkpt lat="43.540737982839346" lon="-7.040140014141798">
        <ele>34.259999999999998</ele>
        <time>2025-04-30T07:23:37Z</time>
      </trkpt>
      <trkpt lat="43.540976028889418" lon="-7.039857963100076">
        <ele>37.149999999999999</ele>
        <time>2025-04-30T07:23:44Z</time>
      </trkpt>
      <trkpt lat="43.541059009730816" lon="-7.039783028885722">
        <ele>37.149999999999999</ele>
        <time>2025-04-30T07:23:45Z</time>
      </trkpt>
      <trkpt lat="43.541075019165874" lon="-7.039812030270696">
        <ele>37.630000000000003</ele>
        <time>2025-04-30T07:23:46Z</time>
      </trkpt>
      <trkpt lat="43.541091028600931" lon="-7.039839019998908">
        <ele>38.109999999999999</ele>
        <time>2025-04-30T07:23:47Z</time>
      </trkpt>
      <trkpt lat="43.540973011404276" lon="-7.039859974756837">
        <ele>38.109999999999999</ele>
        <time>2025-04-30T07:23:48Z</time>
      </trkpt>
      <trkpt lat="43.540936969220638" lon="-7.039903979748488">
        <ele>38.109999999999999</ele>
        <time>2025-04-30T07:23:49Z</time>
      </trkpt>
      <trkpt lat="43.540895981714129" lon="-7.03995200805366">
        <ele>38.109999999999999</ele>
        <time>2025-04-30T07:23:50Z</time>
      </trkpt>
      <trkpt lat="43.540491973981261" lon="-7.040390968322754">
        <ele>38.109999999999999</ele>
        <time>2025-04-30T07:23:58Z</time>
      </trkpt>
      <trkpt lat="43.540168013423681" lon="-7.040707971900702">
        <ele>37.149999999999999</ele>
        <time>2025-04-30T07:24:08Z</time>
      </trkpt>
      <trkpt lat="43.540226016193628" lon="-7.040581991896033">
        <ele>37.149999999999999</ele>
        <time>2025-04-30T07:24:09Z</time>
      </trkpt>
      <trkpt lat="43.540215035900474" lon="-7.040564976632595">
        <ele>37.149999999999999</ele>
        <time>2025-04-30T07:24:10Z</time>
      </trkpt>
      <trkpt lat="43.540177987888455" lon="-7.040697997435927">
        <ele>37.149999999999999</ele>
        <time>2025-04-30T07:24:11Z</time>
      </trkpt>
      <trkpt lat="43.540206989273429" lon="-7.040672013536096">
        <ele>36.670000000000002</ele>
        <time>2025-04-30T07:24:12Z</time>
      </trkpt>
      <trkpt lat="43.540257029235363" lon="-7.040627002716065">
        <ele>36.189999999999998</ele>
        <time>2025-04-30T07:24:13Z</time>
      </trkpt>
      <trkpt lat="43.540299022570252" lon="-7.040584003552795">
        <ele>36.189999999999998</ele>
        <time>2025-04-30T07:24:14Z</time>
      </trkpt>
      <trkpt lat="43.540353002026677" lon="-7.04053102992475">
        <ele>35.710000000000001</ele>
        <time>2025-04-30T07:24:15Z</time>
      </trkpt>
      <trkpt lat="43.540408993139863" lon="-7.040475038811564">
        <ele>35.229999999999997</ele>
        <time>2025-04-30T07:24:16Z</time>
      </trkpt>
      <trkpt lat="43.540468001738191" lon="-7.040416030213237">
        <ele>35.229999999999997</ele>
        <time>2025-04-30T07:24:17Z</time>
      </trkpt>
      <trkpt lat="43.540756003931165" lon="-7.040118975564838">
        <ele>35.710000000000001</ele>
        <time>2025-04-30T07:24:23Z</time>
      </trkpt>
      <trkpt lat="43.541147019714117" lon="-7.039663000032306">
        <ele>36.670000000000002</ele>
        <time>2025-04-30T07:24:32Z</time>
      </trkpt>
      <trkpt lat="43.541227988898754" lon="-7.039572978392243">
        <ele>36.670000000000002</ele>
        <time>2025-04-30T07:24:34Z</time>
      </trkpt>
      <trkpt lat="43.541309963911772" lon="-7.039555041119456">
        <ele>36.670000000000002</ele>
        <time>2025-04-30T07:24:35Z</time>
      </trkpt>
      <trkpt lat="43.541366038843989" lon="-7.039582030847669">
        <ele>36.670000000000002</ele>
        <time>2025-04-30T07:24:36Z</time>
      </trkpt>
      <trkpt lat="43.541425969451666" lon="-7.039611032232642">
        <ele>36.670000000000002</ele>
        <time>2025-04-30T07:24:37Z</time>
      </trkpt>
      <trkpt lat="43.541493024677038" lon="-7.039642967283726">
        <ele>36.670000000000002</ele>
        <time>2025-04-30T07:24:38Z</time>
      </trkpt>
      <trkpt lat="43.541561001911759" lon="-7.039675991982222">
        <ele>37.149999999999999</ele>
        <time>2025-04-30T07:24:39Z</time>
      </trkpt>
      <trkpt lat="43.542434982955456" lon="-7.040091985836625">
        <ele>34.259999999999998</ele>
        <time>2025-04-30T07:24:50Z</time>
      </trkpt>
      <trkpt lat="43.54293898679316" lon="-7.040304969996214">
        <ele>30.899999999999999</ele>
        <time>2025-04-30T07:24:57Z</time>
      </trkpt>
      <trkpt lat="43.54293898679316" lon="-7.040304969996214">
        <ele>30.420000000000002</ele>
        <time>2025-04-30T07:24:58Z</time>
      </trkpt>
      <trkpt lat="43.543112995103002" lon="-7.040259959176183">
        <ele>30.420000000000002</ele>
        <time>2025-04-30T07:24:59Z</time>
      </trkpt>
      <trkpt lat="43.543114000931382" lon="-7.040297007188201">
        <ele>29.940000000000001</ele>
        <time>2025-04-30T07:25:00Z</time>
      </trkpt>
      <trkpt lat="43.543115006759763" lon="-7.04036196693778">
        <ele>29.460000000000001</ele>
        <time>2025-04-30T07:25:01Z</time>
      </trkpt>
      <trkpt lat="43.543118024244905" lon="-7.04044796526432">
        <ele>29.460000000000001</ele>
        <time>2025-04-30T07:25:02Z</time>
      </trkpt>
      <trkpt lat="43.543120035901666" lon="-7.040543016046286">
        <ele>29.460000000000001</ele>
        <time>2025-04-30T07:25:03Z</time>
      </trkpt>
      <trkpt lat="43.543122969567776" lon="-7.040648041293025">
        <ele>29.460000000000001</ele>
        <time>2025-04-30T07:25:04Z</time>
      </trkpt>
      <trkpt lat="43.543127998709679" lon="-7.041881019249558">
        <ele>31.859999999999999</ele>
        <time>2025-04-30T07:25:13Z</time>
      </trkpt>
      <trkpt lat="43.543112995103002" lon="-7.04248895868659">
        <ele>31.859999999999999</ele>
        <time>2025-04-30T07:25:18Z</time>
      </trkpt>
      <trkpt lat="43.54311098344624" lon="-7.042548973113298">
        <ele>31.859999999999999</ele>
        <time>2025-04-30T07:25:19Z</time>
      </trkpt>
      <trkpt lat="43.54310997761786" lon="-7.042621979489923">
        <ele>31.379999999999999</ele>
        <time>2025-04-30T07:25:20Z</time>
      </trkpt>
      <trkpt lat="43.54310997761786" lon="-7.042712001129985">
        <ele>31.379999999999999</ele>
        <time>2025-04-30T07:25:21Z</time>
      </trkpt>
      <trkpt lat="43.54310997761786" lon="-7.042815014719963">
        <ele>31.379999999999999</ele>
        <time>2025-04-30T07:25:22Z</time>
      </trkpt>
      <trkpt lat="43.54298098012805" lon="-7.043979009613395">
        <ele>35.229999999999997</ele>
        <time>2025-04-30T07:25:30Z</time>
      </trkpt>
      <trkpt lat="43.542832033708692" lon="-7.045716997236013">
        <ele>33.780000000000001</ele>
        <time>2025-04-30T07:25:41Z</time>
      </trkpt>
      <trkpt lat="43.542822981253266" lon="-7.046274980530143">
        <ele>30.899999999999999</ele>
        <time>2025-04-30T07:25:45Z</time>
      </trkpt>
      <trkpt lat="43.542828010395169" lon="-7.046400038525462">
        <ele>29.940000000000001</ele>
        <time>2025-04-30T07:25:46Z</time>
      </trkpt>
      <trkpt lat="43.54289598762989" lon="-7.046657027676702">
        <ele>28.98</ele>
        <time>2025-04-30T07:25:48Z</time>
      </trkpt>
      <trkpt lat="43.542881989851594" lon="-7.04674101434648">
        <ele>28.98</ele>
        <time>2025-04-30T07:25:49Z</time>
      </trkpt>
      <trkpt lat="43.542842008173466" lon="-7.046828018501401">
        <ele>28.5</ele>
        <time>2025-04-30T07:25:50Z</time>
      </trkpt>
      <trkpt lat="43.54280998930335" lon="-7.046871017664671">
        <ele>28.5</ele>
        <time>2025-04-30T07:25:51Z</time>
      </trkpt>
      <trkpt lat="43.542706975713372" lon="-7.046858025714755">
        <ele>27.530000000000001</ele>
        <time>2025-04-30T07:25:52Z</time>
      </trkpt>
      <trkpt lat="43.54263799265027" lon="-7.04684997908771">
        <ele>27.530000000000001</ele>
        <time>2025-04-30T07:25:53Z</time>
      </trkpt>
      <trkpt lat="43.542601028457284" lon="-7.046757023781538">
        <ele>27.050000000000001</ele>
        <time>2025-04-30T07:25:54Z</time>
      </trkpt>
      <trkpt lat="43.542520981281996" lon="-7.046619979664683">
        <ele>27.050000000000001</ele>
        <time>2025-04-30T07:25:55Z</time>
      </trkpt>
      <trkpt lat="43.542362982407212" lon="-7.046541022136807">
        <ele>27.050000000000001</ele>
        <time>2025-04-30T07:25:57Z</time>
      </trkpt>
      <trkpt lat="43.542290981858969" lon="-7.04650497995317">
        <ele>27.050000000000001</ele>
        <time>2025-04-30T07:25:58Z</time>
      </trkpt>
      <trkpt lat="43.542166007682681" lon="-7.046442031860352">
        <ele>26.57</ele>
        <time>2025-04-30T07:26:00Z</time>
      </trkpt>
      <trkpt lat="43.542068023234606" lon="-7.046392997726798">
        <ele>26.57</ele>
        <time>2025-04-30T07:26:02Z</time>
      </trkpt>
      <trkpt lat="43.541909018531442" lon="-7.046463992446661">
        <ele>26.57</ele>
        <time>2025-04-30T07:26:03Z</time>
      </trkpt>
      <trkpt lat="43.541898960247636" lon="-7.046469021588564">
        <ele>26.09</ele>
        <time>2025-04-30T07:26:04Z</time>
      </trkpt>
      <trkpt lat="43.541909018531442" lon="-7.046463992446661">
        <ele>26.09</ele>
        <time>2025-04-30T07:26:05Z</time>
      </trkpt>
      <trkpt lat="43.541782032698393" lon="-7.046664990484715">
        <ele>25.609999999999999</ele>
        <time>2025-04-30T07:26:06Z</time>
      </trkpt>
      <trkpt lat="43.541763005778193" lon="-7.046799017116427">
        <ele>25.129999999999999</ele>
        <time>2025-04-30T07:26:07Z</time>
      </trkpt>
      <trkpt lat="43.541742973029613" lon="-7.046947041526437">
        <ele>24.649999999999999</ele>
        <time>2025-04-30T07:26:08Z</time>
      </trkpt>
      <trkpt lat="43.541721012443304" lon="-7.04710696823895">
        <ele>24.649999999999999</ele>
        <time>2025-04-30T07:26:09Z</time>
      </trkpt>
      <trkpt lat="43.541399985551834" lon="-7.048763986676931">
        <ele>28.5</ele>
        <time>2025-04-30T07:26:19Z</time>
      </trkpt>
      <trkpt lat="43.540813000872731" lon="-7.050341041758657">
        <ele>30.899999999999999</ele>
        <time>2025-04-30T07:26:30Z</time>
      </trkpt>
      <trkpt lat="43.540224004536867" lon="-7.051982972770929">
        <ele>33.299999999999997</ele>
        <time>2025-04-30T07:26:42Z</time>
      </trkpt>
      <trkpt lat="43.539780015125871" lon="-7.0538529753685">
        <ele>34.740000000000002</ele>
        <time>2025-04-30T07:26:55Z</time>
      </trkpt>
      <trkpt lat="43.539663003757596" lon="-7.054868023842573">
        <ele>37.149999999999999</ele>
        <time>2025-04-30T07:27:03Z</time>
      </trkpt>
      <trkpt lat="43.539655962958932" lon="-7.055068016052246">
        <ele>37.630000000000003</ele>
        <time>2025-04-30T07:27:05Z</time>
      </trkpt>
      <trkpt lat="43.539677001535892" lon="-7.055240012705326">
        <ele>37.630000000000003</ele>
        <time>2025-04-30T07:27:06Z</time>
      </trkpt>
      <trkpt lat="43.539612963795662" lon="-7.055389964953065">
        <ele>37.630000000000003</ele>
        <time>2025-04-30T07:27:07Z</time>
      </trkpt>
      <trkpt lat="43.539362009614706" lon="-7.056586984544992">
        <ele>38.590000000000003</ele>
        <time>2025-04-30T07:27:16Z</time>
      </trkpt>
      <trkpt lat="43.53932797908783" lon="-7.056828970089555">
        <ele>38.109999999999999</ele>
        <time>2025-04-30T07:27:18Z</time>
      </trkpt>
      <trkpt lat="43.539313981309533" lon="-7.056941958144307">
        <ele>37.630000000000003</ele>
        <time>2025-04-30T07:27:19Z</time>
      </trkpt>
      <trkpt lat="43.539097979664803" lon="-7.058414993807674">
        <ele>40.509999999999998</ele>
        <time>2025-04-30T07:27:31Z</time>
      </trkpt>
      <trkpt lat="43.539097979664803" lon="-7.058470984920859">
        <ele>40.509999999999998</ele>
        <time>2025-04-30T07:27:32Z</time>
      </trkpt>
      <trkpt lat="43.539097979664803" lon="-7.058586990460753">
        <ele>40.990000000000002</ele>
        <time>2025-04-30T07:27:33Z</time>
      </trkpt>
      <trkpt lat="43.539097979664803" lon="-7.058659996837378">
        <ele>40.990000000000002</ele>
        <time>2025-04-30T07:27:34Z</time>
      </trkpt>
      <trkpt lat="43.539097979664803" lon="-7.058749012649059">
        <ele>40.990000000000002</ele>
        <time>2025-04-30T07:27:35Z</time>
      </trkpt>
      <trkpt lat="43.539183977991343" lon="-7.058866024017334">
        <ele>41.469999999999999</ele>
        <time>2025-04-30T07:27:36Z</time>
      </trkpt>
      <trkpt lat="43.539196969941258" lon="-7.058894019573927">
        <ele>41.469999999999999</ele>
        <time>2025-04-30T07:27:37Z</time>
      </trkpt>
      <trkpt lat="43.539194036275148" lon="-7.059032991528511">
        <ele>41.469999999999999</ele>
        <time>2025-04-30T07:27:38Z</time>
      </trkpt>
      <trkpt lat="43.539163023233414" lon="-7.059112032875419">
        <ele>41.950000000000003</ele>
        <time>2025-04-30T07:27:39Z</time>
      </trkpt>
      <trkpt lat="43.53907098993659" lon="-7.059312025085092">
        <ele>41.950000000000003</ele>
        <time>2025-04-30T07:27:41Z</time>
      </trkpt>
      <trkpt lat="43.539088005200028" lon="-7.059427024796605">
        <ele>42.439999999999998</ele>
        <time>2025-04-30T07:27:42Z</time>
      </trkpt>
      <trkpt lat="43.539108959957957" lon="-7.05954696983099">
        <ele>42.920000000000002</ele>
        <time>2025-04-30T07:27:43Z</time>
      </trkpt>
      <trkpt lat="43.539132010191679" lon="-7.05967403948307">
        <ele>43.399999999999999</ele>
        <time>2025-04-30T07:27:44Z</time>
      </trkpt>
      <trkpt lat="43.539161011576653" lon="-7.059810999780893">
        <ele>43.399999999999999</ele>
        <time>2025-04-30T07:27:45Z</time>
      </trkpt>
      <trkpt lat="43.539538029581308" lon="-7.06132804043591">
        <ele>47.240000000000002</ele>
        <time>2025-04-30T07:27:57Z</time>
      </trkpt>
      <trkpt lat="43.539721006527543" lon="-7.062076041474938">
        <ele>48.68</ele>
        <time>2025-04-30T07:28:03Z</time>
      </trkpt>
      <trkpt lat="43.539753025397658" lon="-7.062213001772761">
        <ele>49.159999999999997</ele>
        <time>2025-04-30T07:28:04Z</time>
      </trkpt>
      <trkpt lat="43.540078997612" lon="-7.063610013574362">
        <ele>52.530000000000001</ele>
        <time>2025-04-30T07:28:14Z</time>
      </trkpt>
      <trkpt lat="43.540483005344868" lon="-7.065208023414016">
        <ele>51.090000000000003</ele>
        <time>2025-04-30T07:28:26Z</time>
      </trkpt>
      <trkpt lat="43.540842002257705" lon="-7.066712994128466">
        <ele>46.759999999999998</ele>
        <time>2025-04-30T07:28:38Z</time>
      </trkpt>
      <trkpt lat="43.541037971153855" lon="-7.067505000159144">
        <ele>45.32</ele>
        <time>2025-04-30T07:28:45Z</time>
      </trkpt>
      <trkpt lat="43.541056998074055" lon="-7.067595021799207">
        <ele>44.840000000000003</ele>
        <time>2025-04-30T07:28:46Z</time>
      </trkpt>
      <trkpt lat="43.541265036910772" lon="-7.067641960456967">
        <ele>44.840000000000003</ele>
        <time>2025-04-30T07:28:47Z</time>
      </trkpt>
      <trkpt lat="43.541277023032308" lon="-7.067654030397534">
        <ele>44.840000000000003</ele>
        <time>2025-04-30T07:28:48Z</time>
      </trkpt>
      <trkpt lat="43.541350029408932" lon="-7.067727036774159">
        <ele>44.359999999999999</ele>
        <time>2025-04-30T07:28:49Z</time>
      </trkpt>
      <trkpt lat="43.541409960016608" lon="-7.067849999293685">
        <ele>43.880000000000003</ele>
        <time>2025-04-30T07:28:50Z</time>
      </trkpt>
      <trkpt lat="43.541427981108427" lon="-7.068002969026566">
        <ele>42.920000000000002</ele>
        <time>2025-04-30T07:28:51Z</time>
      </trkpt>
      <trkpt lat="43.541414989158511" lon="-7.068114029243588">
        <ele>41.950000000000003</ele>
        <time>2025-04-30T07:28:52Z</time>
      </trkpt>
      <trkpt lat="43.541349023580551" lon="-7.068202961236239">
        <ele>41.469999999999999</ele>
        <time>2025-04-30T07:28:53Z</time>
      </trkpt>
      <trkpt lat="43.541318010538816" lon="-7.068389039486647">
        <ele>40.509999999999998</ele>
        <time>2025-04-30T07:28:54Z</time>
      </trkpt>
      <trkpt lat="43.541350029408932" lon="-7.068496998399496">
        <ele>40.030000000000001</ele>
        <time>2025-04-30T07:28:55Z</time>
      </trkpt>
      <trkpt lat="43.541387999430299" lon="-7.068621972575784">
        <ele>39.549999999999997</ele>
        <time>2025-04-30T07:28:56Z</time>
      </trkpt>
      <trkpt lat="43.541428986936808" lon="-7.068757005035877">
        <ele>39.07</ele>
        <time>2025-04-30T07:28:57Z</time>
      </trkpt>
      <trkpt lat="43.541867025196552" lon="-7.070532040670514">
        <ele>37.149999999999999</ele>
        <time>2025-04-30T07:29:08Z</time>
      </trkpt>
      <trkpt lat="43.542231973260641" lon="-7.072324007749558">
        <ele>36.670000000000002</ele>
        <time>2025-04-30T07:29:19Z</time>
      </trkpt>
      <trkpt lat="43.542640004307032" lon="-7.074218988418579">
        <ele>35.229999999999997</ele>
        <time>2025-04-30T07:29:29Z</time>
      </trkpt>
      <trkpt lat="43.542905962094665" lon="-7.07548700273037">
        <ele>36.189999999999998</ele>
        <time>2025-04-30T07:29:36Z</time>
      </trkpt>
      <trkpt lat="43.543011993169785" lon="-7.075997041538358">
        <ele>35.229999999999997</ele>
        <time>2025-04-30T07:29:40Z</time>
      </trkpt>
      <trkpt lat="43.543175021186471" lon="-7.076160991564393">
        <ele>34.740000000000002</ele>
        <time>2025-04-30T07:29:41Z</time>
      </trkpt>
      <trkpt lat="43.543207962065935" lon="-7.076227962970734">
        <ele>33.780000000000001</ele>
        <time>2025-04-30T07:29:43Z</time>
      </trkpt>
      <trkpt lat="43.54328197427094" lon="-7.076375987380743">
        <ele>33.780000000000001</ele>
        <time>2025-04-30T07:29:44Z</time>
      </trkpt>
      <trkpt lat="43.543275017291307" lon="-7.07643298432231">
        <ele>33.299999999999997</ele>
        <time>2025-04-30T07:29:45Z</time>
      </trkpt>
      <trkpt lat="43.543261019513011" lon="-7.076546978205442">
        <ele>33.780000000000001</ele>
        <time>2025-04-30T07:29:46Z</time>
      </trkpt>
      <trkpt lat="43.543188013136387" lon="-7.076713023707271">
        <ele>33.780000000000001</ele>
        <time>2025-04-30T07:29:47Z</time>
      </trkpt>
      <trkpt lat="43.543209973722696" lon="-7.076848978176713">
        <ele>34.259999999999998</ele>
        <time>2025-04-30T07:29:48Z</time>
      </trkpt>
      <trkpt lat="43.543235035613179" lon="-7.077003037557006">
        <ele>34.740000000000002</ele>
        <time>2025-04-30T07:29:49Z</time>
      </trkpt>
      <trkpt lat="43.54360300116241" lon="-7.078809002414346">
        <ele>37.149999999999999</ele>
        <time>2025-04-30T07:29:59Z</time>
      </trkpt>
      <trkpt lat="43.544024024158716" lon="-7.080796016380191">
        <ele>34.259999999999998</ele>
        <time>2025-04-30T07:30:10Z</time>
      </trkpt>
      <trkpt lat="43.544504977762699" lon="-7.083128029480577">
        <ele>35.710000000000001</ele>
        <time>2025-04-30T07:30:24Z</time>
      </trkpt>
      <trkpt lat="43.54515197686851" lon="-7.086196979507804">
        <ele>36.189999999999998</ele>
        <time>2025-04-30T07:30:42Z</time>
      </trkpt>
      <trkpt lat="43.54564399458468" lon="-7.089069960638881">
        <ele>40.509999999999998</ele>
        <time>2025-04-30T07:30:59Z</time>
      </trkpt>
      <trkpt lat="43.545872988179326" lon="-7.090950021520257">
        <ele>39.549999999999997</ele>
        <time>2025-04-30T07:31:10Z</time>
      </trkpt>
      <trkpt lat="43.546179011464119" lon="-7.093799030408263">
        <ele>36.189999999999998</ele>
        <time>2025-04-30T07:31:26Z</time>
      </trkpt>
      <trkpt lat="43.546371962875128" lon="-7.096343021839857">
        <ele>30.420000000000002</ele>
        <time>2025-04-30T07:31:40Z</time>
      </trkpt>
      <trkpt lat="43.546458967030048" lon="-7.099007964134216">
        <ele>30.420000000000002</ele>
        <time>2025-04-30T07:31:52Z</time>
      </trkpt>
      <trkpt lat="43.546523004770279" lon="-7.101569976657629">
        <ele>31.379999999999999</ele>
        <time>2025-04-30T07:32:03Z</time>
      </trkpt>
      <trkpt lat="43.546624006703496" lon="-7.104916032403708">
        <ele>28.5</ele>
        <time>2025-04-30T07:32:17Z</time>
      </trkpt>
      <trkpt lat="43.546743029728532" lon="-7.108699036762118">
        <ele>27.530000000000001</ele>
        <time>2025-04-30T07:32:33Z</time>
      </trkpt>
      <trkpt lat="43.546846965327859" lon="-7.111974013969302">
        <ele>28.02</ele>
        <time>2025-04-30T07:32:48Z</time>
      </trkpt>
      <trkpt lat="43.54693497531116" lon="-7.114359000697732">
        <ele>28.02</ele>
        <time>2025-04-30T07:32:58Z</time>
      </trkpt>
      <trkpt lat="43.547034971415997" lon="-7.117802035063505">
        <ele>22.25</ele>
        <time>2025-04-30T07:33:12Z</time>
      </trkpt>
      <trkpt lat="43.546945033594966" lon="-7.119525019079447">
        <ele>23.210000000000001</ele>
        <time>2025-04-30T07:33:19Z</time>
      </trkpt>
      <trkpt lat="43.546960037201643" lon="-7.119798017665744">
        <ele>23.210000000000001</ele>
        <time>2025-04-30T07:33:20Z</time>
      </trkpt>
      <trkpt lat="43.547367984429002" lon="-7.122740987688303">
        <ele>21.77</ele>
        <time>2025-04-30T07:33:31Z</time>
      </trkpt>
      <trkpt lat="43.547775009647012" lon="-7.125511039048433">
        <ele>25.129999999999999</ele>
        <time>2025-04-30T07:33:43Z</time>
      </trkpt>
      <trkpt lat="43.548255041241646" lon="-7.128830021247268">
        <ele>28.5</ele>
        <time>2025-04-30T07:33:57Z</time>
      </trkpt>
      <trkpt lat="43.548586964607239" lon="-7.131093973293901">
        <ele>28.5</ele>
        <time>2025-04-30T07:34:06Z</time>
      </trkpt>
      <trkpt lat="43.549133967608213" lon="-7.134853005409241">
        <ele>28.98</ele>
        <time>2025-04-30T07:34:21Z</time>
      </trkpt>
      <trkpt lat="43.549592960625887" lon="-7.138058999553323">
        <ele>28.98</ele>
        <time>2025-04-30T07:34:34Z</time>
      </trkpt>
      <trkpt lat="43.549891021102667" lon="-7.140193032100797">
        <ele>28.02</ele>
        <time>2025-04-30T07:34:43Z</time>
      </trkpt>
      <trkpt lat="43.549891021102667" lon="-7.140425965189934">
        <ele>28.02</ele>
        <time>2025-04-30T07:34:44Z</time>
      </trkpt>
      <trkpt lat="43.549878029152751" lon="-7.140658982098103">
        <ele>28.02</ele>
        <time>2025-04-30T07:34:45Z</time>
      </trkpt>
      <trkpt lat="43.549840981140733" lon="-7.140891999006271">
        <ele>28.02</ele>
        <time>2025-04-30T07:34:46Z</time>
      </trkpt>
      <trkpt lat="43.549805022776127" lon="-7.141113029792905">
        <ele>28.02</ele>
        <time>2025-04-30T07:34:47Z</time>
      </trkpt>
      <trkpt lat="43.54919096454978" lon="-7.143650986254215">
        <ele>28.02</ele>
        <time>2025-04-30T07:34:58Z</time>
      </trkpt>
      <trkpt lat="43.549027014523745" lon="-7.144312988966703">
        <ele>28.5</ele>
        <time>2025-04-30T07:35:01Z</time>
      </trkpt>
      <trkpt lat="43.5489740408957" lon="-7.144523961469531">
        <ele>28.5</ele>
        <time>2025-04-30T07:35:02Z</time>
      </trkpt>
      <trkpt lat="43.548453021794558" lon="-7.146705016493797">
        <ele>28.02</ele>
        <time>2025-04-30T07:35:12Z</time>
      </trkpt>
      <trkpt lat="43.547767968848348" lon="-7.149647986516357">
        <ele>28.98</ele>
        <time>2025-04-30T07:35:26Z</time>
      </trkpt>
      <trkpt lat="43.547330014407635" lon="-7.151381028816104">
        <ele>34.259999999999998</ele>
        <time>2025-04-30T07:35:36Z</time>
      </trkpt>
      <trkpt lat="43.547422969713807" lon="-7.151627959683538">
        <ele>34.740000000000002</ele>
        <time>2025-04-30T07:35:37Z</time>
      </trkpt>
      <trkpt lat="43.5474509652704" lon="-7.151856031268835">
        <ele>35.710000000000001</ele>
        <time>2025-04-30T07:35:39Z</time>
      </trkpt>
      <trkpt lat="43.547419030219316" lon="-7.151972036808729">
        <ele>35.710000000000001</ele>
        <time>2025-04-30T07:35:40Z</time>
      </trkpt>
      <trkpt lat="43.547332026064396" lon="-7.152076978236437">
        <ele>36.189999999999998</ele>
        <time>2025-04-30T07:35:41Z</time>
      </trkpt>
      <trkpt lat="43.547144019976258" lon="-7.152274958789349">
        <ele>37.149999999999999</ele>
        <time>2025-04-30T07:35:43Z</time>
      </trkpt>
      <trkpt lat="43.547105966135859" lon="-7.15242700651288">
        <ele>37.630000000000003</ele>
        <time>2025-04-30T07:35:44Z</time>
      </trkpt>
      <trkpt lat="43.546716040000319" lon="-7.15397103689611">
        <ele>40.990000000000002</ele>
        <time>2025-04-30T07:35:52Z</time>
      </trkpt>
      <trkpt lat="43.546005003154278" lon="-7.156864972785115">
        <ele>44.359999999999999</ele>
        <time>2025-04-30T07:36:04Z</time>
      </trkpt>
      <trkpt lat="43.545376025140285" lon="-7.159398989751935">
        <ele>53.009999999999998</ele>
        <time>2025-04-30T07:36:15Z</time>
      </trkpt>
      <trkpt lat="43.544759033247828" lon="-7.161910040304065">
        <ele>62.140000000000001</ele>
        <time>2025-04-30T07:36:26Z</time>
      </trkpt>
      <trkpt lat="43.544196020811796" lon="-7.164121018722653">
        <ele>65.030000000000001</ele>
        <time>2025-04-30T07:36:36Z</time>
      </trkpt>
      <trkpt lat="43.543566036969423" lon="-7.166495025157929">
        <ele>65.510000000000005</ele>
        <time>2025-04-30T07:36:48Z</time>
      </trkpt>
      <trkpt lat="43.542897999286652" lon="-7.169045973569155">
        <ele>66.950000000000003</ele>
        <time>2025-04-30T07:37:02Z</time>
      </trkpt>
      <trkpt lat="43.542408999055624" lon="-7.170841963961721">
        <ele>67.909999999999997</ele>
        <time>2025-04-30T07:37:12Z</time>
      </trkpt>
      <trkpt lat="43.542381003499031" lon="-7.171043967828155">
        <ele>67.430000000000007</ele>
        <time>2025-04-30T07:37:13Z</time>
      </trkpt>
      <trkpt lat="43.542381003499031" lon="-7.171244965866208">
        <ele>67.430000000000007</ele>
        <time>2025-04-30T07:37:14Z</time>
      </trkpt>
      <trkpt lat="43.542381003499031" lon="-7.171445963904262">
        <ele>66.950000000000003</ele>
        <time>2025-04-30T07:37:15Z</time>
      </trkpt>
      <trkpt lat="43.542381003499031" lon="-7.171647967770696">
        <ele>66.950000000000003</ele>
        <time>2025-04-30T07:37:16Z</time>
      </trkpt>
      <trkpt lat="43.542393995448947" lon="-7.171844020485878">
        <ele>66.950000000000003</ele>
        <time>2025-04-30T07:37:17Z</time>
      </trkpt>
      <trkpt lat="43.542569009587169" lon="-7.17436102218926">
        <ele>69.349999999999994</ele>
        <time>2025-04-30T07:37:30Z</time>
      </trkpt>
      <trkpt lat="43.542733965441585" lon="-7.176856985315681">
        <ele>68.390000000000001</ele>
        <time>2025-04-30T07:37:42Z</time>
      </trkpt>
      <trkpt lat="43.542880984023213" lon="-7.178903007879853">
        <ele>61.659999999999997</ele>
        <time>2025-04-30T07:37:53Z</time>
      </trkpt>
      <trkpt lat="43.54289498180151" lon="-7.17919603921473">
        <ele>58.780000000000001</ele>
        <time>2025-04-30T07:37:59Z</time>
      </trkpt>
      <trkpt lat="43.54289498180151" lon="-7.17919603921473">
        <ele>58.780000000000001</ele>
        <time>2025-04-30T07:38:30Z</time>
      </trkpt>
      <trkpt lat="43.542919037863612" lon="-7.17945596203208">
        <ele>56.859999999999999</ele>
        <time>2025-04-30T07:38:51Z</time>
      </trkpt>
      <trkpt lat="43.543006964027882" lon="-7.180624986067414">
        <ele>54.450000000000003</ele>
        <time>2025-04-30T07:38:57Z</time>
      </trkpt>
      <trkpt lat="43.543162029236555" lon="-7.182955993339419">
        <ele>50.609999999999999</ele>
        <time>2025-04-30T07:39:07Z</time>
      </trkpt>
      <trkpt lat="43.54332497343421" lon="-7.185316001996398">
        <ele>48.200000000000003</ele>
        <time>2025-04-30T07:39:19Z</time>
      </trkpt>
      <trkpt lat="43.543461011722684" lon="-7.187160020694137">
        <ele>45.32</ele>
        <time>2025-04-30T07:39:30Z</time>
      </trkpt>
      <trkpt lat="43.543494958430529" lon="-7.187658995389938">
        <ele>45.32</ele>
        <time>2025-04-30T07:39:33Z</time>
      </trkpt>
      <trkpt lat="43.543506022542715" lon="-7.187823029235005">
        <ele>44.840000000000003</ele>
        <time>2025-04-30T07:39:34Z</time>
      </trkpt>
      <trkpt lat="43.54364700615406" lon="-7.19013299793005">
        <ele>42.439999999999998</ele>
        <time>2025-04-30T07:39:48Z</time>
      </trkpt>
      <trkpt lat="43.543787989765406" lon="-7.192115988582373">
        <ele>41.950000000000003</ele>
        <time>2025-04-30T07:40:02Z</time>
      </trkpt>
      <trkpt lat="43.543854961171746" lon="-7.192810010164976">
        <ele>41.950000000000003</ele>
        <time>2025-04-30T07:40:07Z</time>
      </trkpt>
      <trkpt lat="43.543874993920326" lon="-7.192946970462799">
        <ele>41.469999999999999</ele>
        <time>2025-04-30T07:40:08Z</time>
      </trkpt>
      <trkpt lat="43.543929979205132" lon="-7.19307404011488">
        <ele>41.469999999999999</ele>
        <time>2025-04-30T07:40:09Z</time>
      </trkpt>
      <trkpt lat="43.543994016945362" lon="-7.193178981542587">
        <ele>41.469999999999999</ele>
        <time>2025-04-30T07:40:10Z</time>
      </trkpt>
      <trkpt lat="43.544064005836844" lon="-7.193286018446088">
        <ele>41.469999999999999</ele>
        <time>2025-04-30T07:40:11Z</time>
      </trkpt>
      <trkpt lat="43.544150004163384" lon="-7.193373022601008">
        <ele>41.469999999999999</ele>
        <time>2025-04-30T07:40:12Z</time>
      </trkpt>
      <trkpt lat="43.544236002489924" lon="-7.193458015099168">
        <ele>41.950000000000003</ele>
        <time>2025-04-30T07:40:13Z</time>
      </trkpt>
      <trkpt lat="43.544457033276558" lon="-7.193738976493478">
        <ele>42.439999999999998</ele>
        <time>2025-04-30T07:40:16Z</time>
      </trkpt>
      <trkpt lat="43.544515036046505" lon="-7.193854982033372">
        <ele>42.439999999999998</ele>
        <time>2025-04-30T07:40:17Z</time>
      </trkpt>
      <trkpt lat="43.544573038816452" lon="-7.193970987573266">
        <ele>42.920000000000002</ele>
        <time>2025-04-30T07:40:18Z</time>
      </trkpt>
      <trkpt lat="43.544625006616116" lon="-7.194084981456399">
        <ele>43.399999999999999</ele>
        <time>2025-04-30T07:40:19Z</time>
      </trkpt>
      <trkpt lat="43.544668005779386" lon="-7.194210039451718">
        <ele>43.399999999999999</ele>
        <time>2025-04-30T07:40:20Z</time>
      </trkpt>
      <trkpt lat="43.544712010771036" lon="-7.194335013628006">
        <ele>43.399999999999999</ele>
        <time>2025-04-30T07:40:21Z</time>
      </trkpt>
      <trkpt lat="43.545212997123599" lon="-7.196023967117071">
        <ele>44.840000000000003</ele>
        <time>2025-04-30T07:40:34Z</time>
      </trkpt>
      <trkpt lat="43.545434027910233" lon="-7.196873975917697">
        <ele>46.280000000000001</ele>
        <time>2025-04-30T07:40:40Z</time>
      </trkpt>
      <trkpt lat="43.545532012358308" lon="-7.197311008349061">
        <ele>46.759999999999998</ele>
        <time>2025-04-30T07:40:43Z</time>
      </trkpt>
      <trkpt lat="43.545541986823082" lon="-7.197462972253561">
        <ele>46.759999999999998</ele>
        <time>2025-04-30T07:40:44Z</time>
      </trkpt>
      <trkpt lat="43.54549496434629" lon="-7.199267009273171">
        <ele>49.649999999999999</ele>
        <time>2025-04-30T07:40:55Z</time>
      </trkpt>
      <trkpt lat="43.54540896601975" lon="-7.201011031866074">
        <ele>52.049999999999997</ele>
        <time>2025-04-30T07:41:06Z</time>
      </trkpt>
      <trkpt lat="43.545304024592042" lon="-7.203267021104693">
        <ele>52.049999999999997</ele>
        <time>2025-04-30T07:41:19Z</time>
      </trkpt>
      <trkpt lat="43.545187013223767" lon="-7.205467019230127">
        <ele>48.200000000000003</ele>
        <time>2025-04-30T07:41:28Z</time>
      </trkpt>
      <trkpt lat="43.545017028227448" lon="-7.208813996985555">
        <ele>45.32</ele>
        <time>2025-04-30T07:41:41Z</time>
      </trkpt>
      <trkpt lat="43.544894987717271" lon="-7.211685972288251">
        <ele>46.280000000000001</ele>
        <time>2025-04-30T07:41:53Z</time>
      </trkpt>
      <trkpt lat="43.544711004942656" lon="-7.215186003595591">
        <ele>53.009999999999998</ele>
        <time>2025-04-30T07:42:08Z</time>
      </trkpt>
      <trkpt lat="43.544553006067872" lon="-7.21847397275269">
        <ele>58.299999999999997</ele>
        <time>2025-04-30T07:42:22Z</time>
      </trkpt>
      <trkpt lat="43.544466001912951" lon="-7.22047096118331">
        <ele>64.549999999999997</ele>
        <time>2025-04-30T07:42:31Z</time>
      </trkpt>
      <trkpt lat="43.544323006644845" lon="-7.223178986459971">
        <ele>65.030000000000001</ele>
        <time>2025-04-30T07:42:45Z</time>
      </trkpt>
      <trkpt lat="43.544277995824814" lon="-7.22373403608799">
        <ele>64.549999999999997</ele>
        <time>2025-04-30T07:42:49Z</time>
      </trkpt>
      <trkpt lat="43.544244971126318" lon="-7.22386596724391">
        <ele>64.549999999999997</ele>
        <time>2025-04-30T07:42:50Z</time>
      </trkpt>
      <trkpt lat="43.54420498944819" lon="-7.223988007754087">
        <ele>64.549999999999997</ele>
        <time>2025-04-30T07:42:51Z</time>
      </trkpt>
      <trkpt lat="43.544150004163384" lon="-7.224112981930375">
        <ele>64.069999999999993</ele>
        <time>2025-04-30T07:42:52Z</time>
      </trkpt>
      <trkpt lat="43.544093007221818" lon="-7.224240973591805">
        <ele>64.069999999999993</ele>
        <time>2025-04-30T07:42:53Z</time>
      </trkpt>
      <trkpt lat="43.543383982032537" lon="-7.226060014218092">
        <ele>62.140000000000001</ele>
        <time>2025-04-30T07:43:06Z</time>
      </trkpt>
      <trkpt lat="43.543357998132706" lon="-7.226219018921256">
        <ele>62.140000000000001</ele>
        <time>2025-04-30T07:43:07Z</time>
      </trkpt>
      <trkpt lat="43.543221959844232" lon="-7.227057041600347">
        <ele>62.619999999999997</ele>
        <time>2025-04-30T07:43:13Z</time>
      </trkpt>
      <trkpt lat="43.54315297678113" lon="-7.227479992434382">
        <ele>62.140000000000001</ele>
        <time>2025-04-30T07:43:16Z</time>
      </trkpt>
      <trkpt lat="43.542638998478651" lon="-7.228994015604258">
        <ele>63.579999999999998</ele>
        <time>2025-04-30T07:43:27Z</time>
      </trkpt>
      <trkpt lat="43.542276984080672" lon="-7.229980984702706">
        <ele>64.549999999999997</ele>
        <time>2025-04-30T07:43:34Z</time>
      </trkpt>
      <trkpt lat="43.541586985811591" lon="-7.231236007064581">
        <ele>67.909999999999997</ele>
        <time>2025-04-30T07:43:44Z</time>
      </trkpt>
      <trkpt lat="43.5414760094136" lon="-7.231501964852214">
        <ele>68.390000000000001</ele>
        <time>2025-04-30T07:43:46Z</time>
      </trkpt>
      <trkpt lat="43.54106898419559" lon="-7.232651961967349">
        <ele>69.829999999999998</ele>
        <time>2025-04-30T07:43:55Z</time>
      </trkpt>
      <trkpt lat="43.540457021445036" lon="-7.234353991225362">
        <ele>70.790000000000006</ele>
        <time>2025-04-30T07:44:07Z</time>
      </trkpt>
      <trkpt lat="43.539817985147238" lon="-7.236168002709746">
        <ele>69.829999999999998</ele>
        <time>2025-04-30T07:44:19Z</time>
      </trkpt>
      <trkpt lat="43.539761994034052" lon="-7.236341005191207">
        <ele>69.349999999999994</ele>
        <time>2025-04-30T07:44:20Z</time>
      </trkpt>
      <trkpt lat="43.539706002920866" lon="-7.236514007672668">
        <ele>68.870000000000005</ele>
        <time>2025-04-30T07:44:21Z</time>
      </trkpt>
      <trkpt lat="43.539661997929215" lon="-7.236703019589186">
        <ele>68.390000000000001</ele>
        <time>2025-04-30T07:44:22Z</time>
      </trkpt>
      <trkpt lat="43.53958697989583" lon="-7.237065033987165">
        <ele>67.430000000000007</ele>
        <time>2025-04-30T07:44:24Z</time>
      </trkpt>
      <trkpt lat="43.539566025137901" lon="-7.237230995669961">
        <ele>66.950000000000003</ele>
        <time>2025-04-30T07:44:25Z</time>
      </trkpt>
      <trkpt lat="43.539526965469122" lon="-7.237568031996489">
        <ele>65.989999999999995</ele>
        <time>2025-04-30T07:44:27Z</time>
      </trkpt>
      <trkpt lat="43.539526965469122" lon="-7.237737011164427">
        <ele>65.510000000000005</ele>
        <time>2025-04-30T07:44:28Z</time>
      </trkpt>
      <trkpt lat="43.539538029581308" lon="-7.237899033352733">
        <ele>65.030000000000001</ele>
        <time>2025-04-30T07:44:29Z</time>
      </trkpt>
      <trkpt lat="43.539554961025715" lon="-7.238071030005813">
        <ele>64.549999999999997</ele>
        <time>2025-04-30T07:44:30Z</time>
      </trkpt>
      <trkpt lat="43.539583962410688" lon="-7.238231962546706">
        <ele>64.069999999999993</ele>
        <time>2025-04-30T07:44:31Z</time>
      </trkpt>
      <trkpt lat="43.539917981252074" lon="-7.24025703035295">
        <ele>65.510000000000005</ele>
        <time>2025-04-30T07:44:44Z</time>
      </trkpt>
      <trkpt lat="43.540000962093472" lon="-7.241374002769589">
        <ele>65.030000000000001</ele>
        <time>2025-04-30T07:44:52Z</time>
      </trkpt>
      <trkpt lat="43.540100958198309" lon="-7.24322397261858">
        <ele>63.100000000000001</ele>
        <time>2025-04-30T07:45:03Z</time>
      </trkpt>
      <trkpt lat="43.540197014808655" lon="-7.24524300545454">
        <ele>64.069999999999993</ele>
        <time>2025-04-30T07:45:15Z</time>
      </trkpt>
      <trkpt lat="43.540257029235363" lon="-7.247459013015032">
        <ele>59.259999999999998</ele>
        <time>2025-04-30T07:45:27Z</time>
      </trkpt>
      <trkpt lat="43.540222998708487" lon="-7.250182963907719">
        <ele>54.450000000000003</ele>
        <time>2025-04-30T07:45:40Z</time>
      </trkpt>
      <trkpt lat="43.540199026465416" lon="-7.251318963244557">
        <ele>50.609999999999999</ele>
        <time>2025-04-30T07:45:47Z</time>
      </trkpt>
      <trkpt lat="43.540196008980274" lon="-7.251445027068257">
        <ele>50.130000000000003</ele>
        <time>2025-04-30T07:45:48Z</time>
      </trkpt>
      <trkpt lat="43.540347972884774" lon="-7.251700004562736">
        <ele>49.159999999999997</ele>
        <time>2025-04-30T07:45:50Z</time>
      </trkpt>
      <trkpt lat="43.540406981483102" lon="-7.251855991780758">
        <ele>48.68</ele>
        <time>2025-04-30T07:45:51Z</time>
      </trkpt>
      <trkpt lat="43.540392983704805" lon="-7.251981971785426">
        <ele>48.200000000000003</ele>
        <time>2025-04-30T07:45:52Z</time>
      </trkpt>
      <trkpt lat="43.540363982319832" lon="-7.253441009670496">
        <ele>43.399999999999999</ele>
        <time>2025-04-30T07:46:00Z</time>
      </trkpt>
      <trkpt lat="43.540385020896792" lon="-7.256132019683719">
        <ele>38.109999999999999</ele>
        <time>2025-04-30T07:46:12Z</time>
      </trkpt>
      <trkpt lat="43.540428020060062" lon="-7.257953993976116">
        <ele>37.149999999999999</ele>
        <time>2025-04-30T07:46:20Z</time>
      </trkpt>
      <trkpt lat="43.540417961776257" lon="-7.260392960160971">
        <ele>33.780000000000001</ele>
        <time>2025-04-30T07:46:30Z</time>
      </trkpt>
      <trkpt lat="43.540098024532199" lon="-7.262591030448675">
        <ele>26.09</ele>
        <time>2025-04-30T07:46:38Z</time>
      </trkpt>
      <trkpt lat="43.539851009845734" lon="-7.264186022803187">
        <ele>20.32</ele>
        <time>2025-04-30T07:46:45Z</time>
      </trkpt>
      <trkpt lat="43.539833994582295" lon="-7.26445097476244">
        <ele>19.359999999999999</ele>
        <time>2025-04-30T07:46:47Z</time>
      </trkpt>
      <trkpt lat="43.539827959612012" lon="-7.264548037201166">
        <ele>18.879999999999999</ele>
        <time>2025-04-30T07:46:48Z</time>
      </trkpt>
      <trkpt lat="43.539709020406008" lon="-7.264569997787476">
        <ele>18.879999999999999</ele>
        <time>2025-04-30T07:46:49Z</time>
      </trkpt>
      <trkpt lat="43.539641965180635" lon="-7.264576032757759">
        <ele>18.399999999999999</ele>
        <time>2025-04-30T07:46:50Z</time>
      </trkpt>
      <trkpt lat="43.539559990167618" lon="-7.264586007222533">
        <ele>18.399999999999999</ele>
        <time>2025-04-30T07:46:51Z</time>
      </trkpt>
      <trkpt lat="43.539479020982981" lon="-7.264597993344069">
        <ele>17.920000000000002</ele>
        <time>2025-04-30T07:46:52Z</time>
      </trkpt>
      <trkpt lat="43.539397967979312" lon="-7.264610985293984">
        <ele>17.440000000000001</ele>
        <time>2025-04-30T07:46:53Z</time>
      </trkpt>
      <trkpt lat="43.539291014894843" lon="-7.2647949680686">
        <ele>16.960000000000001</ele>
        <time>2025-04-30T07:46:54Z</time>
      </trkpt>
      <trkpt lat="43.539258996024728" lon="-7.264802008867264">
        <ele>16.48</ele>
        <time>2025-04-30T07:46:55Z</time>
      </trkpt>
      <trkpt lat="43.539188001304865" lon="-7.26481600664556">
        <ele>15.52</ele>
        <time>2025-04-30T07:46:56Z</time>
      </trkpt>
      <trkpt lat="43.539135027676821" lon="-7.264908961951733">
        <ele>15.039999999999999</ele>
        <time>2025-04-30T07:46:57Z</time>
      </trkpt>
      <trkpt lat="43.539117006585002" lon="-7.26501096971333">
        <ele>14.56</ele>
        <time>2025-04-30T07:46:58Z</time>
      </trkpt>
      <trkpt lat="43.539096973836422" lon="-7.265121024101973">
        <ele>14.08</ele>
        <time>2025-04-30T07:46:59Z</time>
      </trkpt>
      <trkpt lat="43.539077024906874" lon="-7.265237029641867">
        <ele>13.6</ele>
        <time>2025-04-30T07:47:00Z</time>
      </trkpt>
      <trkpt lat="43.539056992158294" lon="-7.265348006039858">
        <ele>13.6</ele>
        <time>2025-04-30T07:47:01Z</time>
      </trkpt>
      <trkpt lat="43.539033019915223" lon="-7.265482032671571">
        <ele>14.08</ele>
        <time>2025-04-30T07:47:02Z</time>
      </trkpt>
      <trkpt lat="43.539204010739923" lon="-7.26672800257802">
        <ele>11.19</ele>
        <time>2025-04-30T07:47:14Z</time>
      </trkpt>
      <trkpt lat="43.539291014894843" lon="-7.267112983390689">
        <ele>9.27</ele>
        <time>2025-04-30T07:47:17Z</time>
      </trkpt>
      <trkpt lat="43.539393022656441" lon="-7.267391011118889">
        <ele>8.310000000000001</ele>
        <time>2025-04-30T07:47:20Z</time>
      </trkpt>
      <trkpt lat="43.539430992677808" lon="-7.267495030537248">
        <ele>8.310000000000001</ele>
        <time>2025-04-30T07:47:21Z</time>
      </trkpt>
      <trkpt lat="43.539468962699175" lon="-7.267596032470465">
        <ele>7.83</ele>
        <time>2025-04-30T07:47:22Z</time>
      </trkpt>
      <trkpt lat="43.539505004882813" lon="-7.267696028575301">
        <ele>7.83</ele>
        <time>2025-04-30T07:47:23Z</time>
      </trkpt>
      <trkpt lat="43.539541969075799" lon="-7.267795018851757">
        <ele>7.83</ele>
        <time>2025-04-30T07:47:24Z</time>
      </trkpt>
      <trkpt lat="43.539681024849415" lon="-7.268173964694142">
        <ele>7.83</ele>
        <time>2025-04-30T07:47:28Z</time>
      </trkpt>
      <trkpt lat="43.53971497155726" lon="-7.268265997990966">
        <ele>8.310000000000001</ele>
        <time>2025-04-30T07:47:29Z</time>
      </trkpt>
      <trkpt lat="43.540029041469097" lon="-7.269111983478069">
        <ele>12.630000000000001</ele>
        <time>2025-04-30T07:47:38Z</time>
      </trkpt>
      <trkpt lat="43.540075980126858" lon="-7.26921902038157">
        <ele>12.630000000000001</ele>
        <time>2025-04-30T07:47:39Z</time>
      </trkpt>
      <trkpt lat="43.540157033130527" lon="-7.269307030364871">
        <ele>13.119999999999999</ele>
        <time>2025-04-30T07:47:40Z</time>
      </trkpt>
      <trkpt lat="43.540242025628686" lon="-7.269352041184902">
        <ele>13.119999999999999</ele>
        <time>2025-04-30T07:47:41Z</time>
      </trkpt>
      <trkpt lat="43.540335986763239" lon="-7.269403003156185">
        <ele>13.119999999999999</ele>
        <time>2025-04-30T07:47:42Z</time>
      </trkpt>
      <trkpt lat="43.540425002574921" lon="-7.269450025632978">
        <ele>13.119999999999999</ele>
        <time>2025-04-30T07:47:43Z</time>
      </trkpt>
      <trkpt lat="43.540514018386602" lon="-7.269414989277721">
        <ele>13.119999999999999</ele>
        <time>2025-04-30T07:47:44Z</time>
      </trkpt>
      <trkpt lat="43.540589958429337" lon="-7.269381964579225">
        <ele>13.119999999999999</ele>
        <time>2025-04-30T07:47:45Z</time>
      </trkpt>
      <trkpt lat="43.540667993947864" lon="-7.26934902369976">
        <ele>13.119999999999999</ele>
        <time>2025-04-30T07:47:46Z</time>
      </trkpt>
      <trkpt lat="43.54074502363801" lon="-7.269315999001265">
        <ele>13.6</ele>
        <time>2025-04-30T07:47:47Z</time>
      </trkpt>
      <trkpt lat="43.540963958948851" lon="-7.269222037866712">
        <ele>14.56</ele>
        <time>2025-04-30T07:47:50Z</time>
      </trkpt>
      <trkpt lat="43.541029002517462" lon="-7.269193958491087">
        <ele>15.039999999999999</ele>
        <time>2025-04-30T07:47:51Z</time>
      </trkpt>
      <trkpt lat="43.541103014722466" lon="-7.269200999289751">
        <ele>15.039999999999999</ele>
        <time>2025-04-30T07:47:52Z</time>
      </trkpt>
      <trkpt lat="43.541182978078723" lon="-7.269209967926145">
        <ele>15.039999999999999</ele>
        <time>2025-04-30T07:47:53Z</time>
      </trkpt>
      <trkpt lat="43.541260007768869" lon="-7.269231006503105">
        <ele>15.52</ele>
        <time>2025-04-30T07:47:54Z</time>
      </trkpt>
      <trkpt lat="43.541329996660352" lon="-7.269294960424304">
        <ele>15.039999999999999</ele>
        <time>2025-04-30T07:47:55Z</time>
      </trkpt>
      <trkpt lat="43.541403003036976" lon="-7.269362015649676">
        <ele>15.039999999999999</ele>
        <time>2025-04-30T07:47:56Z</time>
      </trkpt>
      <trkpt lat="43.541477015241981" lon="-7.269428987056017">
        <ele>14.56</ele>
        <time>2025-04-30T07:47:57Z</time>
      </trkpt>
      <trkpt lat="43.54164800606668" lon="-7.26958598010242">
        <ele>13.6</ele>
        <time>2025-04-30T07:48:00Z</time>
      </trkpt>
      <trkpt lat="43.541686981916428" lon="-7.269622022286058">
        <ele>13.6</ele>
        <time>2025-04-30T07:48:01Z</time>
      </trkpt>
      <trkpt lat="43.541742973029613" lon="-7.269726041704416">
        <ele>13.119999999999999</ele>
        <time>2025-04-30T07:48:02Z</time>
      </trkpt>
      <trkpt lat="43.54171397164464" lon="-7.269796030595899">
        <ele>12.630000000000001</ele>
        <time>2025-04-30T07:48:03Z</time>
      </trkpt>
      <trkpt lat="43.541680024936795" lon="-7.269881023094058">
        <ele>12.630000000000001</ele>
        <time>2025-04-30T07:48:04Z</time>
      </trkpt>
      <trkpt lat="43.541471986100078" lon="-7.270804960280657">
        <ele>11.19</ele>
        <time>2025-04-30T07:48:11Z</time>
      </trkpt>
      <trkpt lat="43.541308036074042" lon="-7.271940959617496">
        <ele>10.710000000000001</ele>
        <time>2025-04-30T07:48:18Z</time>
      </trkpt>
      <trkpt lat="43.541292026638985" lon="-7.272092001512647">
        <ele>10.710000000000001</ele>
        <time>2025-04-30T07:48:19Z</time>
      </trkpt>
      <trkpt lat="43.541277023032308" lon="-7.272228039801121">
        <ele>10.710000000000001</ele>
        <time>2025-04-30T07:48:20Z</time>
      </trkpt>
      <trkpt lat="43.541264031082392" lon="-7.27235603146255">
        <ele>10.710000000000001</ele>
        <time>2025-04-30T07:48:21Z</time>
      </trkpt>
      <trkpt lat="43.541251961141825" lon="-7.2724639903754">
        <ele>10.710000000000001</ele>
        <time>2025-04-30T07:48:22Z</time>
      </trkpt>
      <trkpt lat="43.541282974183559" lon="-7.272819969803095">
        <ele>9.75</ele>
        <time>2025-04-30T07:48:27Z</time>
      </trkpt>
      <trkpt lat="43.541291020810604" lon="-7.272873027250171">
        <ele>9.75</ele>
        <time>2025-04-30T07:48:28Z</time>
      </trkpt>
      <trkpt lat="43.541298983618617" lon="-7.272927006706595">
        <ele>9.27</ele>
        <time>2025-04-30T07:48:29Z</time>
      </trkpt>
      <trkpt lat="43.541308036074042" lon="-7.272991966456175">
        <ele>9.27</ele>
        <time>2025-04-30T07:48:30Z</time>
      </trkpt>
      <trkpt lat="43.541308036074042" lon="-7.272991966456175">
        <ele>8.789999999999999</ele>
        <time>2025-04-30T07:48:31Z</time>
      </trkpt>
      <trkpt lat="43.541352963075042" lon="-7.273027002811432">
        <ele>8.789999999999999</ele>
        <time>2025-04-30T07:48:32Z</time>
      </trkpt>
      <trkpt lat="43.541423035785556" lon="-7.273081988096237">
        <ele>8.789999999999999</ele>
        <time>2025-04-30T07:48:33Z</time>
      </trkpt>
      <trkpt lat="43.541500987485051" lon="-7.273143008351326">
        <ele>8.310000000000001</ele>
        <time>2025-04-30T07:48:34Z</time>
      </trkpt>
      <trkpt lat="43.541583968326449" lon="-7.273208973929286">
        <ele>8.310000000000001</ele>
        <time>2025-04-30T07:48:35Z</time>
      </trkpt>
      <trkpt lat="43.542444035410881" lon="-7.27401196025312">
        <ele>8.789999999999999</ele>
        <time>2025-04-30T07:48:44Z</time>
      </trkpt>
      <trkpt lat="43.542543025687337" lon="-7.274109022691846">
        <ele>9.27</ele>
        <time>2025-04-30T07:48:45Z</time>
      </trkpt>
      <trkpt lat="43.542638998478651" lon="-7.274202983826399">
        <ele>9.75</ele>
        <time>2025-04-30T07:48:46Z</time>
      </trkpt>
      <trkpt lat="43.543304018676281" lon="-7.274859035387635">
        <ele>15.039999999999999</ele>
        <time>2025-04-30T07:48:53Z</time>
      </trkpt>
      <trkpt lat="43.54336897842586" lon="-7.275000018998981">
        <ele>16</ele>
        <time>2025-04-30T07:48:54Z</time>
      </trkpt>
      <trkpt lat="43.543428992852569" lon="-7.27512801066041">
        <ele>16.960000000000001</ele>
        <time>2025-04-30T07:48:55Z</time>
      </trkpt>
      <trkpt lat="43.543477021157742" lon="-7.275265976786614">
        <ele>17.920000000000002</ele>
        <time>2025-04-30T07:48:56Z</time>
      </trkpt>
      <trkpt lat="43.543515997007489" lon="-7.275409977883101">
        <ele>18.879999999999999</ele>
        <time>2025-04-30T07:48:57Z</time>
      </trkpt>
      <trkpt lat="43.543785978108644" lon="-7.276264009997249">
        <ele>23.210000000000001</ele>
        <time>2025-04-30T07:49:03Z</time>
      </trkpt>
      <trkpt lat="43.543854961171746" lon="-7.276390995830298">
        <ele>24.170000000000002</ele>
        <time>2025-04-30T07:49:04Z</time>
      </trkpt>
      <trkpt lat="43.54392402805388" lon="-7.276516975834966">
        <ele>25.129999999999999</ele>
        <time>2025-04-30T07:49:05Z</time>
      </trkpt>
      <trkpt lat="43.544122008606791" lon="-7.276883013546467">
        <ele>28.5</ele>
        <time>2025-04-30T07:49:08Z</time>
      </trkpt>
      <trkpt lat="43.544238014146686" lon="-7.277097003534436">
        <ele>30.899999999999999</ele>
        <time>2025-04-30T07:49:10Z</time>
      </trkpt>
      <trkpt lat="43.54426902718842" lon="-7.277155006304383">
        <ele>31.859999999999999</ele>
        <time>2025-04-30T07:49:11Z</time>
      </trkpt>
      <trkpt lat="43.544461978599429" lon="-7.277133967727423">
        <ele>32.82</ele>
        <time>2025-04-30T07:49:12Z</time>
      </trkpt>
      <trkpt lat="43.544544037431479" lon="-7.277210997417569">
        <ele>33.780000000000001</ele>
        <time>2025-04-30T07:49:13Z</time>
      </trkpt>
      <trkpt lat="43.544625006616116" lon="-7.277288027107716">
        <ele>34.259999999999998</ele>
        <time>2025-04-30T07:49:14Z</time>
      </trkpt>
      <trkpt lat="43.544706981629133" lon="-7.27736497297883">
        <ele>35.229999999999997</ele>
        <time>2025-04-30T07:49:15Z</time>
      </trkpt>
      <trkpt lat="43.544789040461183" lon="-7.277443008497357">
        <ele>35.710000000000001</ele>
        <time>2025-04-30T07:49:16Z</time>
      </trkpt>
      <trkpt lat="43.54487000964582" lon="-7.277520038187504">
        <ele>36.670000000000002</ele>
        <time>2025-04-30T07:49:17Z</time>
      </trkpt>
      <trkpt lat="43.544905968010426" lon="-7.277645012363792">
        <ele>37.149999999999999</ele>
        <time>2025-04-30T07:49:18Z</time>
      </trkpt>
      <trkpt lat="43.544945027679205" lon="-7.277780966833234">
        <ele>37.630000000000003</ele>
        <time>2025-04-30T07:49:19Z</time>
      </trkpt>
      <trkpt lat="43.545063966885209" lon="-7.278198972344399">
        <ele>40.509999999999998</ele>
        <time>2025-04-30T07:49:22Z</time>
      </trkpt>
      <trkpt lat="43.545093974098563" lon="-7.278340039774776">
        <ele>40.990000000000002</ele>
        <time>2025-04-30T07:49:23Z</time>
      </trkpt>
      <trkpt lat="43.545275023207068" lon="-7.280066041275859">
        <ele>46.759999999999998</ele>
        <time>2025-04-30T07:49:34Z</time>
      </trkpt>
      <trkpt lat="43.545303018763661" lon="-7.280538026243448">
        <ele>47.719999999999999</ele>
        <time>2025-04-30T07:49:37Z</time>
      </trkpt>
      <trkpt lat="43.545316010713577" lon="-7.280796021223068">
        <ele>48.68</ele>
        <time>2025-04-30T07:49:39Z</time>
      </trkpt>
      <trkpt lat="43.545289020985365" lon="-7.28088503703475">
        <ele>48.68</ele>
        <time>2025-04-30T07:49:40Z</time>
      </trkpt>
      <trkpt lat="43.544927006587386" lon="-7.282053977251053">
        <ele>46.759999999999998</ele>
        <time>2025-04-30T07:49:50Z</time>
      </trkpt>
      <trkpt lat="43.544429037719965" lon="-7.283666990697384">
        <ele>37.149999999999999</ele>
        <time>2025-04-30T07:50:02Z</time>
      </trkpt>
      <trkpt lat="43.544303979724646" lon="-7.284072004258633">
        <ele>37.630000000000003</ele>
        <time>2025-04-30T07:50:05Z</time>
      </trkpt>
      <trkpt lat="43.544266009703279" lon="-7.284193960949779">
        <ele>38.109999999999999</ele>
        <time>2025-04-30T07:50:06Z</time>
      </trkpt>
      <trkpt lat="43.544230973348022" lon="-7.284308038651943">
        <ele>39.07</ele>
        <time>2025-04-30T07:50:07Z</time>
      </trkpt>
      <trkpt lat="43.54392402805388" lon="-7.285300958901644">
        <ele>48.68</ele>
        <time>2025-04-30T07:50:18Z</time>
      </trkpt>
      <trkpt lat="43.543869964778423" lon="-7.285473961383104">
        <ele>52.049999999999997</ele>
        <time>2025-04-30T07:50:23Z</time>
      </trkpt>
      <trkpt lat="43.543900977820158" lon="-7.285541016608477">
        <ele>52.530000000000001</ele>
        <time>2025-04-30T07:50:24Z</time>
      </trkpt>
      <trkpt lat="43.543938025832176" lon="-7.285578986629844">
        <ele>53.009999999999998</ele>
        <time>2025-04-30T07:50:25Z</time>
      </trkpt>
      <trkpt lat="43.543985970318317" lon="-7.285627014935017">
        <ele>53.009999999999998</ele>
        <time>2025-04-30T07:50:26Z</time>
      </trkpt>
      <trkpt lat="43.544040033593774" lon="-7.285680994391441">
        <ele>53.490000000000002</ele>
        <time>2025-04-30T07:50:27Z</time>
      </trkpt>
      <trkpt lat="43.544644033536315" lon="-7.286202013492584">
        <ele>54.450000000000003</ele>
        <time>2025-04-30T07:50:36Z</time>
      </trkpt>
      <trkpt lat="43.544697007164359" lon="-7.286308966577053">
        <ele>54.450000000000003</ele>
        <time>2025-04-30T07:50:37Z</time>
      </trkpt>
      <trkpt lat="43.544736988842487" lon="-7.286405023187399">
        <ele>54.450000000000003</ele>
        <time>2025-04-30T07:50:38Z</time>
      </trkpt>
      <trkpt lat="43.544817036017776" lon="-7.286594035103917">
        <ele>55.409999999999997</ele>
        <time>2025-04-30T07:50:40Z</time>
      </trkpt>
      <trkpt lat="43.54482701048255" lon="-7.286618007346988">
        <ele>56.369999999999997</ele>
        <time>2025-04-30T07:50:41Z</time>
      </trkpt>
      <trkpt lat="43.54482701048255" lon="-7.286856975406408">
        <ele>57.82</ele>
        <time>2025-04-30T07:50:43Z</time>
      </trkpt>
      <trkpt lat="43.54482701048255" lon="-7.286946997046471">
        <ele>58.299999999999997</ele>
        <time>2025-04-30T07:50:44Z</time>
      </trkpt>
      <trkpt lat="43.54482701048255" lon="-7.287049004808068">
        <ele>58.780000000000001</ele>
        <time>2025-04-30T07:50:45Z</time>
      </trkpt>
      <trkpt lat="43.54482701048255" lon="-7.287132991477847">
        <ele>59.259999999999998</ele>
        <time>2025-04-30T07:50:46Z</time>
      </trkpt>
      <trkpt lat="43.544844025745988" lon="-7.287290990352631">
        <ele>59.740000000000002</ele>
        <time>2025-04-30T07:50:47Z</time>
      </trkpt>
      <trkpt lat="43.544858023524284" lon="-7.28741898201406">
        <ele>60.219999999999999</ele>
        <time>2025-04-30T07:50:48Z</time>
      </trkpt>
      <trkpt lat="43.544873027130961" lon="-7.287560971453786">
        <ele>60.219999999999999</ele>
        <time>2025-04-30T07:50:49Z</time>
      </trkpt>
      <trkpt lat="43.544888030737638" lon="-7.287700027227402">
        <ele>60.219999999999999</ele>
        <time>2025-04-30T07:50:50Z</time>
      </trkpt>
      <trkpt lat="43.544944021850824" lon="-7.287843022495508">
        <ele>60.700000000000003</ele>
        <time>2025-04-30T07:50:51Z</time>
      </trkpt>
      <trkpt lat="43.545014010742307" lon="-7.287987023591995">
        <ele>61.659999999999997</ele>
        <time>2025-04-30T07:50:52Z</time>
      </trkpt>
      <trkpt lat="43.545088022947311" lon="-7.288142004981637">
        <ele>62.140000000000001</ele>
        <time>2025-04-30T07:50:53Z</time>
      </trkpt>
      <trkpt lat="43.545169997960329" lon="-7.288312995806336">
        <ele>63.100000000000001</ele>
        <time>2025-04-30T07:50:54Z</time>
      </trkpt>
      <trkpt lat="43.545249039307237" lon="-7.288421960547566">
        <ele>64.549999999999997</ele>
        <time>2025-04-30T07:50:55Z</time>
      </trkpt>
      <trkpt lat="43.545346017926931" lon="-7.288554981350899">
        <ele>65.989999999999995</ele>
        <time>2025-04-30T07:50:56Z</time>
      </trkpt>
      <trkpt lat="43.545725969597697" lon="-7.288991007953882">
        <ele>71.760000000000005</ele>
        <time>2025-04-30T07:51:00Z</time>
      </trkpt>
      <trkpt lat="43.545804005116224" lon="-7.289031995460391">
        <ele>72.719999999999999</ele>
        <time>2025-04-30T07:51:01Z</time>
      </trkpt>
      <trkpt lat="43.545867037028074" lon="-7.289066025987268">
        <ele>74.159999999999997</ele>
        <time>2025-04-30T07:51:02Z</time>
      </trkpt>
      <trkpt lat="43.545913975685835" lon="-7.289089998230338">
        <ele>75.120000000000005</ele>
        <time>2025-04-30T07:51:03Z</time>
      </trkpt>
      <trkpt lat="43.545954963192344" lon="-7.289111958816648">
        <ele>76.079999999999998</ele>
        <time>2025-04-30T07:51:04Z</time>
      </trkpt>
      <trkpt lat="43.545933002606034" lon="-7.289257971569896">
        <ele>76.560000000000002</ele>
        <time>2025-04-30T07:51:05Z</time>
      </trkpt>
      <trkpt lat="43.545916993170977" lon="-7.289297031238675">
        <ele>77.519999999999996</ele>
        <time>2025-04-30T07:51:06Z</time>
      </trkpt>
      <trkpt lat="43.545894026756287" lon="-7.289355034008622">
        <ele>78.480000000000004</ele>
        <time>2025-04-30T07:51:07Z</time>
      </trkpt>
      <trkpt lat="43.545864019542933" lon="-7.289429968222976">
        <ele>79.450000000000003</ele>
        <time>2025-04-30T07:51:08Z</time>
      </trkpt>
      <trkpt lat="43.545828983187675" lon="-7.289516972377896">
        <ele>79.930000000000007</ele>
        <time>2025-04-30T07:51:09Z</time>
      </trkpt>
      <trkpt lat="43.545606024563313" lon="-7.290660012513399">
        <ele>85.689999999999998</ele>
        <time>2025-04-30T07:51:18Z</time>
      </trkpt>
      <trkpt lat="43.545603007078171" lon="-7.290795966982842">
        <ele>86.180000000000007</ele>
        <time>2025-04-30T07:51:19Z</time>
      </trkpt>
      <trkpt lat="43.545599989593029" lon="-7.290925970301032">
        <ele>87.140000000000001</ele>
        <time>2025-04-30T07:51:20Z</time>
      </trkpt>
      <trkpt lat="43.545625973492861" lon="-7.291051028296351">
        <ele>87.140000000000001</ele>
        <time>2025-04-30T07:51:21Z</time>
      </trkpt>
      <trkpt lat="43.545662015676498" lon="-7.291183965280652">
        <ele>87.620000000000005</ele>
        <time>2025-04-30T07:51:22Z</time>
      </trkpt>
      <trkpt lat="43.546037022024393" lon="-7.292474023997784">
        <ele>92.420000000000002</ele>
        <time>2025-04-30T07:51:32Z</time>
      </trkpt>
      <trkpt lat="43.546414962038398" lon="-7.293506003916264">
        <ele>103.95999999999999</ele>
        <time>2025-04-30T07:51:42Z</time>
      </trkpt>
      <trkpt lat="43.546415967866778" lon="-7.29351899586618">
        <ele>105.40000000000001</ele>
        <time>2025-04-30T07:51:43Z</time>
      </trkpt>
      <trkpt lat="43.546387972310185" lon="-7.293544979766011">
        <ele>106.36</ele>
        <time>2025-04-30T07:51:44Z</time>
      </trkpt>
      <trkpt lat="43.546345978975296" lon="-7.293607005849481">
        <ele>107.81</ele>
        <time>2025-04-30T07:51:45Z</time>
      </trkpt>
      <trkpt lat="43.546300968155265" lon="-7.293672971427441">
        <ele>108.77</ele>
        <time>2025-04-30T07:51:46Z</time>
      </trkpt>
      <trkpt lat="43.546253023669124" lon="-7.293743966147304">
        <ele>109.73</ele>
        <time>2025-04-30T07:51:47Z</time>
      </trkpt>
      <trkpt lat="43.54620398953557" lon="-7.293815966695547">
        <ele>110.69</ele>
        <time>2025-04-30T07:51:48Z</time>
      </trkpt>
      <trkpt lat="43.546113967895508" lon="-7.293948987498879">
        <ele>112.61</ele>
        <time>2025-04-30T07:51:50Z</time>
      </trkpt>
      <trkpt lat="43.546050013974309" lon="-7.294042026624084">
        <ele>117.90000000000001</ele>
        <time>2025-04-30T07:51:55Z</time>
      </trkpt>
      <trkpt lat="43.546093013137579" lon="-7.294136993587017">
        <ele>118.38</ele>
        <time>2025-04-30T07:51:56Z</time>
      </trkpt>
      <trkpt lat="43.54611799120903" lon="-7.294192984700203">
        <ele>119.34</ele>
        <time>2025-04-30T07:51:57Z</time>
      </trkpt>
      <trkpt lat="43.546146992594004" lon="-7.294257022440434">
        <ele>119.81999999999999</ele>
        <time>2025-04-30T07:51:58Z</time>
      </trkpt>
      <trkpt lat="43.546178005635738" lon="-7.294327011331916">
        <ele>120.78</ele>
        <time>2025-04-30T07:51:59Z</time>
      </trkpt>
      <trkpt lat="43.546209018677473" lon="-7.294397000223398">
        <ele>121.73999999999999</ele>
        <time>2025-04-30T07:52:00Z</time>
      </trkpt>
      <trkpt lat="43.546240031719208" lon="-7.294463971629739">
        <ele>122.22</ele>
        <time>2025-04-30T07:52:01Z</time>
      </trkpt>
      <trkpt lat="43.546270038932562" lon="-7.294532032683492">
        <ele>123.19</ele>
        <time>2025-04-30T07:52:02Z</time>
      </trkpt>
      <trkpt lat="43.546305997297168" lon="-7.294611996039748">
        <ele>124.15000000000001</ele>
        <time>2025-04-30T07:52:03Z</time>
      </trkpt>
      <trkpt lat="43.546344973146915" lon="-7.294697994366288">
        <ele>125.11</ele>
        <time>2025-04-30T07:52:04Z</time>
      </trkpt>
      <trkpt lat="43.546384032815695" lon="-7.294786004349589">
        <ele>126.06999999999999</ele>
        <time>2025-04-30T07:52:05Z</time>
      </trkpt>
      <trkpt lat="43.546428037807345" lon="-7.294883988797665">
        <ele>126.55</ele>
        <time>2025-04-30T07:52:06Z</time>
      </trkpt>
      <trkpt lat="43.546472964808345" lon="-7.294983984902501">
        <ele>127.98999999999999</ele>
        <time>2025-04-30T07:52:07Z</time>
      </trkpt>
      <trkpt lat="43.546612020581961" lon="-7.295294031500816">
        <ele>131.84</ele>
        <time>2025-04-30T07:52:10Z</time>
      </trkpt>
      <trkpt lat="43.546748980879784" lon="-7.295652022585273">
        <ele>136.16</ele>
        <time>2025-04-30T07:52:13Z</time>
      </trkpt>
      <trkpt lat="43.546994989737868" lon="-7.296580988913775">
        <ele>148.66</ele>
        <time>2025-04-30T07:52:22Z</time>
      </trkpt>
      <trkpt lat="43.547017034143209" lon="-7.296662963926792">
        <ele>150.09999999999999</ele>
        <time>2025-04-30T07:52:23Z</time>
      </trkpt>
      <trkpt lat="43.547043018043041" lon="-7.296761032193899">
        <ele>151.53999999999999</ele>
        <time>2025-04-30T07:52:24Z</time>
      </trkpt>
      <trkpt lat="43.547073025256395" lon="-7.296873014420271">
        <ele>152.03</ele>
        <time>2025-04-30T07:52:25Z</time>
      </trkpt>
      <trkpt lat="43.547102026641369" lon="-7.296981979161501">
        <ele>152.50999999999999</ele>
        <time>2025-04-30T07:52:26Z</time>
      </trkpt>
      <trkpt lat="43.547164974734187" lon="-7.297122040763497">
        <ele>152.99000000000001</ele>
        <time>2025-04-30T07:52:27Z</time>
      </trkpt>
      <trkpt lat="43.547215014696121" lon="-7.297233017161489">
        <ele>153.47</ele>
        <time>2025-04-30T07:52:28Z</time>
      </trkpt>
      <trkpt lat="43.547257008031011" lon="-7.297325972467661">
        <ele>153.94999999999999</ele>
        <time>2025-04-30T07:52:29Z</time>
      </trkpt>
      <trkpt lat="43.547438979148865" lon="-7.297835005447269">
        <ele>153.94999999999999</ele>
        <time>2025-04-30T07:52:36Z</time>
      </trkpt>
      <trkpt lat="43.547455994412303" lon="-7.297916980460286">
        <ele>153.94999999999999</ele>
        <time>2025-04-30T07:52:37Z</time>
      </trkpt>
      <trkpt lat="43.547475021332502" lon="-7.298011025413871">
        <ele>153.94999999999999</ele>
        <time>2025-04-30T07:52:38Z</time>
      </trkpt>
      <trkpt lat="43.547508968040347" lon="-7.298184027895331">
        <ele>154.43000000000001</ele>
        <time>2025-04-30T07:52:39Z</time>
      </trkpt>
      <trkpt lat="43.547508968040347" lon="-7.29824697598815">
        <ele>154.43000000000001</ele>
        <time>2025-04-30T07:52:40Z</time>
      </trkpt>
      <trkpt lat="43.547508968040347" lon="-7.298386031761766">
        <ele>154.43000000000001</ele>
        <time>2025-04-30T07:52:41Z</time>
      </trkpt>
      <trkpt lat="43.547508968040347" lon="-7.299189018085599">
        <ele>152.03</ele>
        <time>2025-04-30T07:52:46Z</time>
      </trkpt>
      <trkpt lat="43.547542998567224" lon="-7.299359003081918">
        <ele>151.53999999999999</ele>
        <time>2025-04-30T07:52:47Z</time>
      </trkpt>
      <trkpt lat="43.547607958316803" lon="-7.299476014450193">
        <ele>151.06</ele>
        <time>2025-04-30T07:52:48Z</time>
      </trkpt>
      <trkpt lat="43.547674007713795" lon="-7.299595037475228">
        <ele>150.58000000000001</ele>
        <time>2025-04-30T07:52:49Z</time>
      </trkpt>
      <trkpt lat="43.547735027968884" lon="-7.299702996388078">
        <ele>150.09999999999999</ele>
        <time>2025-04-30T07:52:50Z</time>
      </trkpt>
      <trkpt lat="43.547893026843667" lon="-7.299985969439149">
        <ele>148.66</ele>
        <time>2025-04-30T07:52:53Z</time>
      </trkpt>
      <trkpt lat="43.547936026006937" lon="-7.300090994685888">
        <ele>148.18000000000001</ele>
        <time>2025-04-30T07:52:54Z</time>
      </trkpt>
      <trkpt lat="43.548246994614601" lon="-7.301138984039426">
        <ele>142.41</ele>
        <time>2025-04-30T07:53:03Z</time>
      </trkpt>
      <trkpt lat="43.548286976292729" lon="-7.301354985684156">
        <ele>140.97</ele>
        <time>2025-04-30T07:53:05Z</time>
      </trkpt>
      <trkpt lat="43.548320000991225" lon="-7.301451964303851">
        <ele>140.49000000000001</ele>
        <time>2025-04-30T07:53:06Z</time>
      </trkpt>
      <trkpt lat="43.548350008204579" lon="-7.301542991772294">
        <ele>140.00999999999999</ele>
        <time>2025-04-30T07:53:07Z</time>
      </trkpt>
      <trkpt lat="43.548510018736124" lon="-7.301820013672113">
        <ele>137.61000000000001</ele>
        <time>2025-04-30T07:53:10Z</time>
      </trkpt>
      <trkpt lat="43.548570033162832" lon="-7.301914980635047">
        <ele>136.63999999999999</ele>
        <time>2025-04-30T07:53:11Z</time>
      </trkpt>
      <trkpt lat="43.548666005954146" lon="-7.302066022530198">
        <ele>131.84</ele>
        <time>2025-04-30T07:53:16Z</time>
      </trkpt>
      <trkpt lat="43.548774970695376" lon="-7.302239025011659">
        <ele>127.51000000000001</ele>
        <time>2025-04-30T07:53:36Z</time>
      </trkpt>
      <trkpt lat="43.548582019284368" lon="-7.302582012489438">
        <ele>125.59</ele>
        <time>2025-04-30T07:53:45Z</time>
      </trkpt>
      <trkpt lat="43.548518987372518" lon="-7.302676979452372">
        <ele>125.59</ele>
        <time>2025-04-30T07:53:47Z</time>
      </trkpt>
      <trkpt lat="43.548490991815925" lon="-7.302718972787261">
        <ele>125.11</ele>
        <time>2025-04-30T07:53:48Z</time>
      </trkpt>
      <trkpt lat="43.548462996259332" lon="-7.30276096612215">
        <ele>125.11</ele>
        <time>2025-04-30T07:53:49Z</time>
      </trkpt>
      <trkpt lat="43.548433994874358" lon="-7.30280396528542">
        <ele>124.63</ele>
        <time>2025-04-30T07:53:50Z</time>
      </trkpt>
      <trkpt lat="43.548410022631288" lon="-7.302840007469058">
        <ele>124.63</ele>
        <time>2025-04-30T07:53:51Z</time>
      </trkpt>
      <trkpt lat="43.548380015417933" lon="-7.302849981933832">
        <ele>124.15000000000001</ele>
        <time>2025-04-30T07:53:52Z</time>
      </trkpt>
      <trkpt lat="43.548332992941141" lon="-7.30286599136889">
        <ele>124.15000000000001</ele>
        <time>2025-04-30T07:53:53Z</time>
      </trkpt>
      <trkpt lat="43.548283036798239" lon="-7.302882000803947">
        <ele>124.15000000000001</ele>
        <time>2025-04-30T07:53:54Z</time>
      </trkpt>
      <trkpt lat="43.548230985179543" lon="-7.302900021895766">
        <ele>123.67</ele>
        <time>2025-04-30T07:53:55Z</time>
      </trkpt>
      <trkpt lat="43.547973996028304" lon="-7.303074030205607">
        <ele>123.19</ele>
        <time>2025-04-30T07:54:00Z</time>
      </trkpt>
      <trkpt lat="43.547750031575561" lon="-7.30321099050343">
        <ele>122.70999999999999</ele>
        <time>2025-04-30T07:54:04Z</time>
      </trkpt>
      <trkpt lat="43.547697979956865" lon="-7.303236974403262">
        <ele>122.70999999999999</ele>
        <time>2025-04-30T07:54:05Z</time>
      </trkpt>
      <trkpt lat="43.547433027997613" lon="-7.303366977721453">
        <ele>121.26000000000001</ele>
        <time>2025-04-30T07:54:10Z</time>
      </trkpt>
      <trkpt lat="43.547261031344533" lon="-7.303449958562851">
        <ele>120.78</ele>
        <time>2025-04-30T07:54:13Z</time>
      </trkpt>
      <trkpt lat="43.547151982784271" lon="-7.303504021838307">
        <ele>120.78</ele>
        <time>2025-04-30T07:54:15Z</time>
      </trkpt>
      <trkpt lat="43.547095991671085" lon="-7.30353101156652">
        <ele>120.78</ele>
        <time>2025-04-30T07:54:16Z</time>
      </trkpt>
      <trkpt lat="43.547043018043041" lon="-7.303556995466352">
        <ele>120.78</ele>
        <time>2025-04-30T07:54:17Z</time>
      </trkpt>
      <trkpt lat="43.546990966424346" lon="-7.303581973537803">
        <ele>120.78</ele>
        <time>2025-04-30T07:54:18Z</time>
      </trkpt>
      <trkpt lat="43.546930029988289" lon="-7.303611980751157">
        <ele>120.78</ele>
        <time>2025-04-30T07:54:19Z</time>
      </trkpt>
      <trkpt lat="43.546877978369594" lon="-7.303625978529453">
        <ele>120.78</ele>
        <time>2025-04-30T07:54:20Z</time>
      </trkpt>
      <trkpt lat="43.546825004741549" lon="-7.303638970479369">
        <ele>121.26000000000001</ele>
        <time>2025-04-30T07:54:21Z</time>
      </trkpt>
      <trkpt lat="43.546773036941886" lon="-7.303651962429285">
        <ele>121.26000000000001</ele>
        <time>2025-04-30T07:54:22Z</time>
      </trkpt>
      <trkpt lat="43.54654697701335" lon="-7.303709965199232">
        <ele>121.26000000000001</ele>
        <time>2025-04-30T07:54:26Z</time>
      </trkpt>
      <trkpt lat="43.545873994007707" lon="-7.303882967680693">
        <ele>119.34</ele>
        <time>2025-04-30T07:54:37Z</time>
      </trkpt>
      <trkpt lat="43.545569982379675" lon="-7.30396100319922">
        <ele>117.90000000000001</ele>
        <time>2025-04-30T07:54:42Z</time>
      </trkpt>
      <trkpt lat="43.545294972136617" lon="-7.304053958505392">
        <ele>116.94</ele>
        <time>2025-04-30T07:54:47Z</time>
      </trkpt>
      <trkpt lat="43.545251972973347" lon="-7.304084971547127">
        <ele>116.94</ele>
        <time>2025-04-30T07:54:48Z</time>
      </trkpt>
      <trkpt lat="43.545206040143967" lon="-7.304119002074003">
        <ele>116.94</ele>
        <time>2025-04-30T07:54:49Z</time>
      </trkpt>
      <trkpt lat="43.544787028804421" lon="-7.304453020915389">
        <ele>115.01000000000001</ele>
        <time>2025-04-30T07:54:57Z</time>
      </trkpt>
      <trkpt lat="43.544744029641151" lon="-7.30450096540153">
        <ele>115.01000000000001</ele>
        <time>2025-04-30T07:54:58Z</time>
      </trkpt>
      <trkpt lat="43.54465501382947" lon="-7.304597022011876">
        <ele>114.53</ele>
        <time>2025-04-30T07:55:00Z</time>
      </trkpt>
      <trkpt lat="43.544611008837819" lon="-7.304644966498017">
        <ele>114.05</ele>
        <time>2025-04-30T07:55:01Z</time>
      </trkpt>
      <trkpt lat="43.544530039653182" lon="-7.304732976481319">
        <ele>114.05</ele>
        <time>2025-04-30T07:55:03Z</time>
      </trkpt>
      <trkpt lat="43.544498020783067" lon="-7.304768012836576">
        <ele>113.56999999999999</ele>
        <time>2025-04-30T07:55:04Z</time>
      </trkpt>
      <trkpt lat="43.544469019398093" lon="-7.30479902587831">
        <ele>113.09</ele>
        <time>2025-04-30T07:55:05Z</time>
      </trkpt>
      <trkpt lat="43.544432977214456" lon="-7.304839007556438">
        <ele>113.09</ele>
        <time>2025-04-30T07:55:06Z</time>
      </trkpt>
      <trkpt lat="43.54437799192965" lon="-7.304918970912695">
        <ele>112.13</ele>
        <time>2025-04-30T07:55:07Z</time>
      </trkpt>
      <trkpt lat="43.544384026899934" lon="-7.304980996996164">
        <ele>111.65000000000001</ele>
        <time>2025-04-30T07:55:08Z</time>
      </trkpt>
      <trkpt lat="43.544390983879566" lon="-7.305060038343072">
        <ele>111.17</ele>
        <time>2025-04-30T07:55:09Z</time>
      </trkpt>
      <trkpt lat="43.544417973607779" lon="-7.305171014741063">
        <ele>110.69</ele>
        <time>2025-04-30T07:55:10Z</time>
      </trkpt>
      <trkpt lat="43.544466001912951" lon="-7.305256007239223">
        <ele>110.20999999999999</ele>
        <time>2025-04-30T07:55:11Z</time>
      </trkpt>
      <trkpt lat="43.544519981369376" lon="-7.305352985858917">
        <ele>109.73</ele>
        <time>2025-04-30T07:55:12Z</time>
      </trkpt>
      <trkpt lat="43.544577984139323" lon="-7.305454993620515">
        <ele>109.25</ele>
        <time>2025-04-30T07:55:13Z</time>
      </trkpt>
      <trkpt lat="43.544633975252509" lon="-7.305554989725351">
        <ele>108.77</ele>
        <time>2025-04-30T07:55:14Z</time>
      </trkpt>
      <trkpt lat="43.544688038527966" lon="-7.305650040507317">
        <ele>108.29000000000001</ele>
        <time>2025-04-30T07:55:15Z</time>
      </trkpt>
      <trkpt lat="43.544745035469532" lon="-7.305750958621502">
        <ele>107.31999999999999</ele>
        <time>2025-04-30T07:55:16Z</time>
      </trkpt>
      <trkpt lat="43.545178966596723" lon="-7.306593004614115">
        <ele>97.230000000000004</ele>
        <time>2025-04-30T07:55:24Z</time>
      </trkpt>
      <trkpt lat="43.545274017378688" lon="-7.307001035660505">
        <ele>91.939999999999998</ele>
        <time>2025-04-30T07:55:32Z</time>
      </trkpt>
      <trkpt lat="43.54508500546217" lon="-7.307302029803395">
        <ele>90.019999999999996</ele>
        <time>2025-04-30T07:55:35Z</time>
      </trkpt>
      <trkpt lat="43.54508500546217" lon="-7.307430021464825">
        <ele>89.060000000000002</ele>
        <time>2025-04-30T07:55:36Z</time>
      </trkpt>
      <trkpt lat="43.54508500546217" lon="-7.307574022561312">
        <ele>88.579999999999998</ele>
        <time>2025-04-30T07:55:37Z</time>
      </trkpt>
      <trkpt lat="43.545109983533621" lon="-7.30772003531456">
        <ele>88.099999999999994</ele>
        <time>2025-04-30T07:55:38Z</time>
      </trkpt>
      <trkpt lat="43.545126998797059" lon="-7.307796981185675">
        <ele>87.140000000000001</ele>
        <time>2025-04-30T07:55:39Z</time>
      </trkpt>
      <trkpt lat="43.5451939702034" lon="-7.307967972010374">
        <ele>86.180000000000007</ele>
        <time>2025-04-30T07:55:40Z</time>
      </trkpt>
      <trkpt lat="43.545239986851811" lon="-7.30808699503541">
        <ele>85.689999999999998</ele>
        <time>2025-04-30T07:55:41Z</time>
      </trkpt>
      <trkpt lat="43.545288015156984" lon="-7.308208029717207">
        <ele>85.209999999999994</ele>
        <time>2025-04-30T07:55:42Z</time>
      </trkpt>
      <trkpt lat="43.545551961287856" lon="-7.308885036036372">
        <ele>83.290000000000006</ele>
        <time>2025-04-30T07:55:48Z</time>
      </trkpt>
      <trkpt lat="43.54558196850121" lon="-7.308962987735868">
        <ele>82.810000000000002</ele>
        <time>2025-04-30T07:55:49Z</time>
      </trkpt>
      <trkpt lat="43.545604012906551" lon="-7.309019984677434">
        <ele>82.810000000000002</ele>
        <time>2025-04-30T07:55:50Z</time>
      </trkpt>
      <trkpt lat="43.545620022341609" lon="-7.309059966355562">
        <ele>82.329999999999998</ele>
        <time>2025-04-30T07:55:51Z</time>
      </trkpt>
      <trkpt lat="43.545631002634764" lon="-7.309091985225678">
        <ele>82.329999999999998</ele>
        <time>2025-04-30T07:55:52Z</time>
      </trkpt>
      <trkpt lat="43.545640977099538" lon="-7.309124004095793">
        <ele>81.849999999999994</ele>
        <time>2025-04-30T07:55:53Z</time>
      </trkpt>
      <trkpt lat="43.545656986534595" lon="-7.309170020744205">
        <ele>82.329999999999998</ele>
        <time>2025-04-30T07:55:54Z</time>
      </trkpt>
      <trkpt lat="43.54570702649653" lon="-7.309319972991943">
        <ele>82.329999999999998</ele>
        <time>2025-04-30T07:55:55Z</time>
      </trkpt>
      <trkpt lat="43.545705014839768" lon="-7.309329025447369">
        <ele>81.849999999999994</ele>
        <time>2025-04-30T07:55:56Z</time>
      </trkpt>
      <trkpt lat="43.545677019283175" lon="-7.309434972703457">
        <ele>81.849999999999994</ele>
        <time>2025-04-30T07:55:57Z</time>
      </trkpt>
      <trkpt lat="43.54564500041306" lon="-7.309558019042015">
        <ele>81.370000000000005</ele>
        <time>2025-04-30T07:55:58Z</time>
      </trkpt>
      <trkpt lat="43.545608036220074" lon="-7.309702020138502">
        <ele>81.370000000000005</ele>
        <time>2025-04-30T07:55:59Z</time>
      </trkpt>
      <trkpt lat="43.545565959066153" lon="-7.309863958507776">
        <ele>80.890000000000001</ele>
        <time>2025-04-30T07:56:00Z</time>
      </trkpt>
      <trkpt lat="43.545522037893534" lon="-7.310034027323127">
        <ele>80.409999999999997</ele>
        <time>2025-04-30T07:56:01Z</time>
      </trkpt>
      <trkpt lat="43.545080982148647" lon="-7.311876034364104">
        <ele>77.519999999999996</ele>
        <time>2025-04-30T07:56:10Z</time>
      </trkpt>
      <trkpt lat="43.544639004394412" lon="-7.313819965347648">
        <ele>75.120000000000005</ele>
        <time>2025-04-30T07:56:19Z</time>
      </trkpt>
      <trkpt lat="43.544185040518641" lon="-7.316182991489768">
        <ele>77.040000000000006</ele>
        <time>2025-04-30T07:56:30Z</time>
      </trkpt>
      <trkpt lat="43.544031986966729" lon="-7.318264972418547">
        <ele>83.769999999999996</ele>
        <time>2025-04-30T07:56:40Z</time>
      </trkpt>
      <trkpt lat="43.543773991987109" lon="-7.320540994405747">
        <ele>90.980000000000004</ele>
        <time>2025-04-30T07:56:51Z</time>
      </trkpt>
      <trkpt lat="43.543271999806166" lon="-7.322927992790937">
        <ele>92.900000000000006</ele>
        <time>2025-04-30T07:57:02Z</time>
      </trkpt>
      <trkpt lat="43.543275017291307" lon="-7.324814004823566">
        <ele>95.310000000000002</ele>
        <time>2025-04-30T07:57:10Z</time>
      </trkpt>
      <trkpt lat="43.543808022513986" lon="-7.326959017664194">
        <ele>102.52</ele>
        <time>2025-04-30T07:57:18Z</time>
      </trkpt>
      <trkpt lat="43.544129971414804" lon="-7.329107969999313">
        <ele>111.17</ele>
        <time>2025-04-30T07:57:26Z</time>
      </trkpt>
      <trkpt lat="43.54426902718842" lon="-7.330490984022617">
        <ele>116.94</ele>
        <time>2025-04-30T07:57:32Z</time>
      </trkpt>
      <trkpt lat="43.54426902718842" lon="-7.330727018415928">
        <ele>117.90000000000001</ele>
        <time>2025-04-30T07:57:33Z</time>
      </trkpt>
      <trkpt lat="43.544236002489924" lon="-7.330949977040291">
        <ele>118.86</ele>
        <time>2025-04-30T07:57:34Z</time>
      </trkpt>
      <trkpt lat="43.544193003326654" lon="-7.331178970634937">
        <ele>119.81999999999999</ele>
        <time>2025-04-30T07:57:35Z</time>
      </trkpt>
      <trkpt lat="43.544124020263553" lon="-7.331396983936429">
        <ele>120.78</ele>
        <time>2025-04-30T07:57:36Z</time>
      </trkpt>
      <trkpt lat="43.544045984745026" lon="-7.331618014723063">
        <ele>121.73999999999999</ele>
        <time>2025-04-30T07:57:37Z</time>
      </trkpt>
      <trkpt lat="43.543897960335016" lon="-7.332062004134059">
        <ele>123.19</ele>
        <time>2025-04-30T07:57:39Z</time>
      </trkpt>
      <trkpt lat="43.543793018907309" lon="-7.332534994930029">
        <ele>125.11</ele>
        <time>2025-04-30T07:57:41Z</time>
      </trkpt>
      <trkpt lat="43.543766029179096" lon="-7.332777986302972">
        <ele>126.55</ele>
        <time>2025-04-30T07:57:42Z</time>
      </trkpt>
      <trkpt lat="43.543781032785773" lon="-7.333023995161057">
        <ele>127.51000000000001</ele>
        <time>2025-04-30T07:57:43Z</time>
      </trkpt>
      <trkpt lat="43.543825037777424" lon="-7.333263969048858">
        <ele>128.47</ele>
        <time>2025-04-30T07:57:44Z</time>
      </trkpt>
      <trkpt lat="43.54388102889061" lon="-7.333500003442168">
        <ele>129.43000000000001</ele>
        <time>2025-04-30T07:57:45Z</time>
      </trkpt>
      <trkpt lat="43.543978007510304" lon="-7.333704018965364">
        <ele>129.91999999999999</ele>
        <time>2025-04-30T07:57:46Z</time>
      </trkpt>
      <trkpt lat="43.54407699778676" lon="-7.333909962326288">
        <ele>130.88</ele>
        <time>2025-04-30T07:57:47Z</time>
      </trkpt>
      <trkpt lat="43.544202977791429" lon="-7.334095034748316">
        <ele>130.88</ele>
        <time>2025-04-30T07:57:48Z</time>
      </trkpt>
      <trkpt lat="43.544332981109619" lon="-7.334270970895886">
        <ele>131.36000000000001</ele>
        <time>2025-04-30T07:57:49Z</time>
      </trkpt>
      <trkpt lat="43.54551600292325" lon="-7.335792034864426">
        <ele>132.31999999999999</ele>
        <time>2025-04-30T07:57:59Z</time>
      </trkpt>
      <trkpt lat="43.546026041731238" lon="-7.336492007598281">
        <ele>134.24000000000001</ele>
        <time>2025-04-30T07:58:06Z</time>
      </trkpt>
      <trkpt lat="43.546083960682154" lon="-7.336610024794936">
        <ele>134.72</ele>
        <time>2025-04-30T07:58:07Z</time>
      </trkpt>
      <trkpt lat="43.546140035614371" lon="-7.336746985092759">
        <ele>134.72</ele>
        <time>2025-04-30T07:58:08Z</time>
      </trkpt>
      <trkpt lat="43.546198038384318" lon="-7.336887968704104">
        <ele>135.19999999999999</ele>
        <time>2025-04-30T07:58:09Z</time>
      </trkpt>
      <trkpt lat="43.546225028112531" lon="-7.337044039741159">
        <ele>135.68000000000001</ele>
        <time>2025-04-30T07:58:10Z</time>
      </trkpt>
      <trkpt lat="43.546251012012362" lon="-7.337200026959181">
        <ele>135.68000000000001</ele>
        <time>2025-04-30T07:58:11Z</time>
      </trkpt>
      <trkpt lat="43.546272972598672" lon="-7.337358025833964">
        <ele>136.16</ele>
        <time>2025-04-30T07:58:12Z</time>
      </trkpt>
      <trkpt lat="43.546448992565274" lon="-7.339119985699654">
        <ele>139.53</ele>
        <time>2025-04-30T07:58:23Z</time>
      </trkpt>
      <trkpt lat="43.546542031690478" lon="-7.339778970927">
        <ele>141.44999999999999</ele>
        <time>2025-04-30T07:58:27Z</time>
      </trkpt>
      <trkpt lat="43.546590982005" lon="-7.339940993115306">
        <ele>141.93000000000001</ele>
        <time>2025-04-30T07:58:28Z</time>
      </trkpt>
      <trkpt lat="43.546640016138554" lon="-7.340103015303612">
        <ele>142.41</ele>
        <time>2025-04-30T07:58:29Z</time>
      </trkpt>
      <trkpt lat="43.546688966453075" lon="-7.340265959501267">
        <ele>142.88999999999999</ele>
        <time>2025-04-30T07:58:30Z</time>
      </trkpt>
      <trkpt lat="43.546736994758248" lon="-7.340427981689572">
        <ele>143.37</ele>
        <time>2025-04-30T07:58:31Z</time>
      </trkpt>
      <trkpt lat="43.547563031315804" lon="-7.342288009822369">
        <ele>149.62</ele>
        <time>2025-04-30T07:58:42Z</time>
      </trkpt>
      <trkpt lat="43.548412034288049" lon="-7.344212997704744">
        <ele>157.31</ele>
        <time>2025-04-30T07:58:51Z</time>
      </trkpt>
      <trkpt lat="43.54893397539854" lon="-7.345739006996155">
        <ele>161.16</ele>
        <time>2025-04-30T07:58:58Z</time>
      </trkpt>
      <trkpt lat="43.548993989825249" lon="-7.346188025549054">
        <ele>162.59999999999999</ele>
        <time>2025-04-30T07:59:00Z</time>
      </trkpt>
      <trkpt lat="43.549068002030253" lon="-7.347291000187397">
        <ele>166.93000000000001</ele>
        <time>2025-04-30T07:59:07Z</time>
      </trkpt>
      <trkpt lat="43.54914897121489" lon="-7.348117036744952">
        <ele>169.81</ele>
        <time>2025-04-30T07:59:12Z</time>
      </trkpt>
      <trkpt lat="43.549175038933754" lon="-7.348282998427749">
        <ele>170.28999999999999</ele>
        <time>2025-04-30T07:59:13Z</time>
      </trkpt>
      <trkpt lat="43.549227006733418" lon="-7.348430017009378">
        <ele>170.77000000000001</ele>
        <time>2025-04-30T07:59:14Z</time>
      </trkpt>
      <trkpt lat="43.549290960654616" lon="-7.348573012277484">
        <ele>170.77000000000001</ele>
        <time>2025-04-30T07:59:15Z</time>
      </trkpt>
      <trkpt lat="43.549353992566466" lon="-7.348713995888829">
        <ele>170.77000000000001</ele>
        <time>2025-04-30T07:59:16Z</time>
      </trkpt>
      <trkpt lat="43.549417024478316" lon="-7.348856991156936">
        <ele>170.77000000000001</ele>
        <time>2025-04-30T07:59:17Z</time>
      </trkpt>
      <trkpt lat="43.549497993662953" lon="-7.348989006131887">
        <ele>170.77000000000001</ele>
        <time>2025-04-30T07:59:18Z</time>
      </trkpt>
      <trkpt lat="43.549586003646255" lon="-7.349109034985304">
        <ele>170.28999999999999</ele>
        <time>2025-04-30T07:59:19Z</time>
      </trkpt>
      <trkpt lat="43.550481023266912" lon="-7.350629009306431">
        <ele>164.03999999999999</ele>
        <time>2025-04-30T07:59:29Z</time>
      </trkpt>
      <trkpt lat="43.551201028749347" lon="-7.352393986657262">
        <ele>154.43000000000001</ele>
        <time>2025-04-30T07:59:36Z</time>
      </trkpt>
      <trkpt lat="43.551355004310608" lon="-7.352599008008838">
        <ele>152.50999999999999</ele>
        <time>2025-04-30T07:59:37Z</time>
      </trkpt>
      <trkpt lat="43.551507974043489" lon="-7.352799000218511">
        <ele>150.58000000000001</ele>
        <time>2025-04-30T07:59:38Z</time>
      </trkpt>
      <trkpt lat="43.551855990663171" lon="-7.353065963834524">
        <ele>146.25999999999999</ele>
        <time>2025-04-30T07:59:40Z</time>
      </trkpt>
      <trkpt lat="43.55305896140635" lon="-7.354146977886558">
        <ele>132.80000000000001</ele>
        <time>2025-04-30T07:59:48Z</time>
      </trkpt>
      <trkpt lat="43.553764969110489" lon="-7.355637028813362">
        <ele>121.73999999999999</ele>
        <time>2025-04-30T07:59:56Z</time>
      </trkpt>
      <trkpt lat="43.553906036540866" lon="-7.357196984812617">
        <ele>112.13</ele>
        <time>2025-04-30T08:00:03Z</time>
      </trkpt>
      <trkpt lat="43.55385297909379" lon="-7.357682967558503">
        <ele>109.25</ele>
        <time>2025-04-30T08:00:05Z</time>
      </trkpt>
      <trkpt lat="43.553309999406338" lon="-7.360356040298939">
        <ele>95.790000000000006</ele>
        <time>2025-04-30T08:00:15Z</time>
      </trkpt>
      <trkpt lat="43.553003976121545" lon="-7.362559977918863">
        <ele>84.25</ele>
        <time>2025-04-30T08:00:23Z</time>
      </trkpt>
      <trkpt lat="43.55312098748982" lon="-7.363702012225986">
        <ele>78.969999999999999</ele>
        <time>2025-04-30T08:00:27Z</time>
      </trkpt>
      <trkpt lat="43.553389040753245" lon="-7.365294992923737">
        <ele>71.269999999999996</ele>
        <time>2025-04-30T08:00:33Z</time>
      </trkpt>
      <trkpt lat="43.553389040753245" lon="-7.365564974024892">
        <ele>69.829999999999998</ele>
        <time>2025-04-30T08:00:34Z</time>
      </trkpt>
      <trkpt lat="43.553363978862762" lon="-7.365830009803176">
        <ele>68.390000000000001</ele>
        <time>2025-04-30T08:00:35Z</time>
      </trkpt>
      <trkpt lat="43.553318968042731" lon="-7.366085993126035">
        <ele>66.950000000000003</ele>
        <time>2025-04-30T08:00:36Z</time>
      </trkpt>
      <trkpt lat="43.553273035213351" lon="-7.366343988105655">
        <ele>65.510000000000005</ele>
        <time>2025-04-30T08:00:37Z</time>
      </trkpt>
      <trkpt lat="43.55322802439332" lon="-7.366600977256894">
        <ele>64.069999999999993</ele>
        <time>2025-04-30T08:00:38Z</time>
      </trkpt>
      <trkpt lat="43.55318502523005" lon="-7.366855032742024">
        <ele>63.100000000000001</ele>
        <time>2025-04-30T08:00:39Z</time>
      </trkpt>
      <trkpt lat="43.553149988874793" lon="-7.367114033550024">
        <ele>61.659999999999997</ele>
        <time>2025-04-30T08:00:40Z</time>
      </trkpt>
      <trkpt lat="43.5531410202384" lon="-7.367389965802431">
        <ele>60.700000000000003</ele>
        <time>2025-04-30T08:00:41Z</time>
      </trkpt>
      <trkpt lat="43.553131967782974" lon="-7.367659024894238">
        <ele>59.740000000000002</ele>
        <time>2025-04-30T08:00:42Z</time>
      </trkpt>
      <trkpt lat="43.553175972774625" lon="-7.367917019873858">
        <ele>58.780000000000001</ele>
        <time>2025-04-30T08:00:43Z</time>
      </trkpt>
      <trkpt lat="43.553225006908178" lon="-7.368170991539955">
        <ele>57.82</ele>
        <time>2025-04-30T08:00:44Z</time>
      </trkpt>
      <trkpt lat="43.553287032991648" lon="-7.36841800622642">
        <ele>56.859999999999999</ele>
        <time>2025-04-30T08:00:45Z</time>
      </trkpt>
      <trkpt lat="43.553383005782962" lon="-7.368658985942602">
        <ele>56.369999999999997</ele>
        <time>2025-04-30T08:00:46Z</time>
      </trkpt>
      <trkpt lat="43.554305015131831" lon="-7.370680030435324">
        <ele>55.409999999999997</ele>
        <time>2025-04-30T08:00:55Z</time>
      </trkpt>
      <trkpt lat="43.555069025605917" lon="-7.372669978067279">
        <ele>55.409999999999997</ele>
        <time>2025-04-30T08:01:05Z</time>
      </trkpt>
      <trkpt lat="43.555417964234948" lon="-7.373607996851206">
        <ele>53.009999999999998</ele>
        <time>2025-04-30T08:01:12Z</time>
      </trkpt>
      <trkpt lat="43.555476972833276" lon="-7.373710004612804">
        <ele>52.530000000000001</ele>
        <time>2025-04-30T08:01:13Z</time>
      </trkpt>
      <trkpt lat="43.555531958118081" lon="-7.373805977404118">
        <ele>52.049999999999997</ele>
        <time>2025-04-30T08:01:14Z</time>
      </trkpt>
      <trkpt lat="43.555576968938112" lon="-7.373886024579406">
        <ele>51.57</ele>
        <time>2025-04-30T08:01:15Z</time>
      </trkpt>
      <trkpt lat="43.555691968649626" lon="-7.373962970450521">
        <ele>51.57</ele>
        <time>2025-04-30T08:01:16Z</time>
      </trkpt>
      <trkpt lat="43.555728010833263" lon="-7.374058021232486">
        <ele>51.57</ele>
        <time>2025-04-30T08:01:17Z</time>
      </trkpt>
      <trkpt lat="43.555790958926082" lon="-7.374246027320623">
        <ele>50.609999999999999</ele>
        <time>2025-04-30T08:01:18Z</time>
      </trkpt>
      <trkpt lat="43.555875029414892" lon="-7.374367984011769">
        <ele>50.609999999999999</ele>
        <time>2025-04-30T08:01:19Z</time>
      </trkpt>
      <trkpt lat="43.556068986654282" lon="-7.374608041718602">
        <ele>49.649999999999999</ele>
        <time>2025-04-30T08:01:21Z</time>
      </trkpt>
      <trkpt lat="43.556983033195138" lon="-7.375778993591666">
        <ele>46.759999999999998</ele>
        <time>2025-04-30T08:01:29Z</time>
      </trkpt>
      <trkpt lat="43.557430962100625" lon="-7.377110961824656">
        <ele>43.399999999999999</ele>
        <time>2025-04-30T08:01:36Z</time>
      </trkpt>
      <trkpt lat="43.557471027597785" lon="-7.378552984446287">
        <ele>40.509999999999998</ele>
        <time>2025-04-30T08:01:44Z</time>
      </trkpt>
      <trkpt lat="43.557280004024506" lon="-7.379736006259918">
        <ele>40.030000000000001</ele>
        <time>2025-04-30T08:01:52Z</time>
      </trkpt>
      <trkpt lat="43.557326020672917" lon="-7.379996012896299">
        <ele>40.030000000000001</ele>
        <time>2025-04-30T08:01:54Z</time>
      </trkpt>
      <trkpt lat="43.557294001802802" lon="-7.380109000951052">
        <ele>40.030000000000001</ele>
        <time>2025-04-30T08:01:55Z</time>
      </trkpt>
      <trkpt lat="43.556997030973434" lon="-7.381239971145988">
        <ele>42.439999999999998</ele>
        <time>2025-04-30T08:02:02Z</time>
      </trkpt>
      <trkpt lat="43.55664599686861" lon="-7.383140986785293">
        <ele>46.759999999999998</ele>
        <time>2025-04-30T08:02:13Z</time>
      </trkpt>
      <trkpt lat="43.556340979412198" lon="-7.38487696275115">
        <ele>49.159999999999997</ele>
        <time>2025-04-30T08:02:22Z</time>
      </trkpt>
      <trkpt lat="43.55621600523591" lon="-7.385569978505373">
        <ele>49.159999999999997</ele>
        <time>2025-04-30T08:02:25Z</time>
      </trkpt>
      <trkpt lat="43.55617300607264" lon="-7.385811964049935">
        <ele>48.68</ele>
        <time>2025-04-30T08:02:26Z</time>
      </trkpt>
      <trkpt lat="43.55613000690937" lon="-7.386049004271627">
        <ele>48.68</ele>
        <time>2025-04-30T08:02:27Z</time>
      </trkpt>
      <trkpt lat="43.555659027770162" lon="-7.388669019564986">
        <ele>50.130000000000003</ele>
        <time>2025-04-30T08:02:38Z</time>
      </trkpt>
      <trkpt lat="43.555087968707085" lon="-7.391846012324095">
        <ele>55.890000000000001</ele>
        <time>2025-04-30T08:02:51Z</time>
      </trkpt>
      <trkpt lat="43.554970035329461" lon="-7.392533998936415">
        <ele>56.859999999999999</ele>
        <time>2025-04-30T08:02:54Z</time>
      </trkpt>
      <trkpt lat="43.554933993145823" lon="-7.392732985317707">
        <ele>56.859999999999999</ele>
        <time>2025-04-30T08:02:55Z</time>
      </trkpt>
      <trkpt lat="43.554788986220956" lon="-7.393533037975431">
        <ele>57.340000000000003</ele>
        <time>2025-04-30T08:03:01Z</time>
      </trkpt>
      <trkpt lat="43.554763002321124" lon="-7.393674021586776">
        <ele>57.82</ele>
        <time>2025-04-30T08:03:03Z</time>
      </trkpt>
      <trkpt lat="43.55475596152246" lon="-7.393714003264904">
        <ele>57.82</ele>
        <time>2025-04-30T08:03:04Z</time>
      </trkpt>
      <trkpt lat="43.55475596152246" lon="-7.393714003264904">
        <ele>57.340000000000003</ele>
        <time>2025-04-30T08:03:16Z</time>
      </trkpt>
      <trkpt lat="43.55475596152246" lon="-7.393714003264904">
        <ele>58.299999999999997</ele>
        <time>2025-04-30T08:03:48Z</time>
      </trkpt>
      <trkpt lat="43.554752022027969" lon="-7.393735041841865">
        <ele>58.299999999999997</ele>
        <time>2025-04-30T08:04:03Z</time>
      </trkpt>
      <trkpt lat="43.554741041734815" lon="-7.393796984106302">
        <ele>58.299999999999997</ele>
        <time>2025-04-30T08:04:04Z</time>
      </trkpt>
      <trkpt lat="43.554644985124469" lon="-7.394325966015458">
        <ele>58.780000000000001</ele>
        <time>2025-04-30T08:04:09Z</time>
      </trkpt>
      <trkpt lat="43.554617995396256" lon="-7.394472984597087">
        <ele>58.780000000000001</ele>
        <time>2025-04-30T08:04:10Z</time>
      </trkpt>
      <trkpt lat="43.554360000416636" lon="-7.395951971411705">
        <ele>59.740000000000002</ele>
        <time>2025-04-30T08:04:18Z</time>
      </trkpt>
      <trkpt lat="43.553920034319162" lon="-7.398405019193888">
        <ele>61.659999999999997</ele>
        <time>2025-04-30T08:04:28Z</time>
      </trkpt>
      <trkpt lat="43.553814003244042" lon="-7.398994015529752">
        <ele>63.100000000000001</ele>
        <time>2025-04-30T08:04:32Z</time>
      </trkpt>
      <trkpt lat="43.553791036829352" lon="-7.399123013019562">
        <ele>63.579999999999998</ele>
        <time>2025-04-30T08:04:34Z</time>
      </trkpt>
      <trkpt lat="43.553782990202308" lon="-7.399164000526071">
        <ele>64.069999999999993</ele>
        <time>2025-04-30T08:04:35Z</time>
      </trkpt>
      <trkpt lat="43.553904024884105" lon="-7.399023016914725">
        <ele>64.069999999999993</ele>
        <time>2025-04-30T08:04:36Z</time>
      </trkpt>
      <trkpt lat="43.553967978805304" lon="-7.399061992764473">
        <ele>64.549999999999997</ele>
        <time>2025-04-30T08:04:37Z</time>
      </trkpt>
      <trkpt lat="43.554037967696786" lon="-7.399103986099362">
        <ele>64.549999999999997</ele>
        <time>2025-04-30T08:04:38Z</time>
      </trkpt>
      <trkpt lat="43.554119020700455" lon="-7.399154026061297">
        <ele>64.549999999999997</ele>
        <time>2025-04-30T08:04:39Z</time>
      </trkpt>
      <trkpt lat="43.554625036194921" lon="-7.399461977183819">
        <ele>66.469999999999999</ele>
        <time>2025-04-30T08:04:44Z</time>
      </trkpt>
      <trkpt lat="43.554697958752513" lon="-7.39950698800385">
        <ele>66.469999999999999</ele>
        <time>2025-04-30T08:04:45Z</time>
      </trkpt>
      <trkpt lat="43.554800972342491" lon="-7.399695999920368">
        <ele>67.430000000000007</ele>
        <time>2025-04-30T08:04:46Z</time>
      </trkpt>
      <trkpt lat="43.554873978719115" lon="-7.399831032380462">
        <ele>67.909999999999997</ele>
        <time>2025-04-30T08:04:47Z</time>
      </trkpt>
      <trkpt lat="43.554955031722784" lon="-7.399978972971439">
        <ele>68.390000000000001</ele>
        <time>2025-04-30T08:04:48Z</time>
      </trkpt>
      <trkpt lat="43.555962033569813" lon="-7.402238985523582">
        <ele>76.560000000000002</ele>
        <time>2025-04-30T08:05:02Z</time>
      </trkpt>
      <trkpt lat="43.556027999147773" lon="-7.402381980791688">
        <ele>77.040000000000006</ele>
        <time>2025-04-30T08:05:03Z</time>
      </trkpt>
      <trkpt lat="43.556047026067972" lon="-7.402584990486503">
        <ele>78</ele>
        <time>2025-04-30T08:05:04Z</time>
      </trkpt>
      <trkpt lat="43.55606303550303" lon="-7.402761010453105">
        <ele>78.969999999999999</ele>
        <time>2025-04-30T08:05:05Z</time>
      </trkpt>
      <trkpt lat="43.55612900108099" lon="-7.403230983763933">
        <ele>80.890000000000001</ele>
        <time>2025-04-30T08:05:08Z</time>
      </trkpt>
      <trkpt lat="43.556181974709034" lon="-7.40335101261735">
        <ele>81.370000000000005</ele>
        <time>2025-04-30T08:05:09Z</time>
      </trkpt>
      <trkpt lat="43.556249029934406" lon="-7.403454026207328">
        <ele>81.849999999999994</ele>
        <time>2025-04-30T08:05:10Z</time>
      </trkpt>
      <trkpt lat="43.556350031867623" lon="-7.403584029525518">
        <ele>81.849999999999994</ele>
        <time>2025-04-30T08:05:11Z</time>
      </trkpt>
      <trkpt lat="43.55645296163857" lon="-7.40360900759697">
        <ele>81.849999999999994</ele>
        <time>2025-04-30T08:05:12Z</time>
      </trkpt>
      <trkpt lat="43.556591011583805" lon="-7.403614958748221">
        <ele>82.329999999999998</ele>
        <time>2025-04-30T08:05:13Z</time>
      </trkpt>
      <trkpt lat="43.556724032387137" lon="-7.403592998161912">
        <ele>83.290000000000006</ele>
        <time>2025-04-30T08:05:14Z</time>
      </trkpt>
      <trkpt lat="43.556959982961416" lon="-7.403553016483784">
        <ele>84.25</ele>
        <time>2025-04-30T08:05:16Z</time>
      </trkpt>
      <trkpt lat="43.557040030136704" lon="-7.403542958199978">
        <ele>84.730000000000004</ele>
        <time>2025-04-30T08:05:17Z</time>
      </trkpt>
      <trkpt lat="43.55711898766458" lon="-7.403582017868757">
        <ele>85.209999999999994</ele>
        <time>2025-04-30T08:05:18Z</time>
      </trkpt>
      <trkpt lat="43.557194005697966" lon="-7.403618982061744">
        <ele>85.689999999999998</ele>
        <time>2025-04-30T08:05:19Z</time>
      </trkpt>
      <trkpt lat="43.557262988761067" lon="-7.403705986216664">
        <ele>86.180000000000007</ele>
        <time>2025-04-30T08:05:20Z</time>
      </trkpt>
      <trkpt lat="43.557287966832519" lon="-7.403821991756558">
        <ele>86.180000000000007</ele>
        <time>2025-04-30T08:05:21Z</time>
      </trkpt>
      <trkpt lat="43.557314034551382" lon="-7.403940008953214">
        <ele>86.659999999999997</ele>
        <time>2025-04-30T08:05:22Z</time>
      </trkpt>
      <trkpt lat="43.557342030107975" lon="-7.404071018099785">
        <ele>87.140000000000001</ele>
        <time>2025-04-30T08:05:23Z</time>
      </trkpt>
      <trkpt lat="43.557380000129342" lon="-7.404835028573871">
        <ele>88.579999999999998</ele>
        <time>2025-04-30T08:05:28Z</time>
      </trkpt>
      <trkpt lat="43.557380000129342" lon="-7.404999984428287">
        <ele>88.579999999999998</ele>
        <time>2025-04-30T08:05:29Z</time>
      </trkpt>
      <trkpt lat="43.557337000966072" lon="-7.405173992738128">
        <ele>89.060000000000002</ele>
        <time>2025-04-30T08:05:30Z</time>
      </trkpt>
      <trkpt lat="43.557294001802802" lon="-7.405354036018252">
        <ele>89.540000000000006</ele>
        <time>2025-04-30T08:05:31Z</time>
      </trkpt>
      <trkpt lat="43.557248990982771" lon="-7.405539024621248">
        <ele>90.019999999999996</ele>
        <time>2025-04-30T08:05:32Z</time>
      </trkpt>
      <trkpt lat="43.557202974334359" lon="-7.405727030709386">
        <ele>90.019999999999996</ele>
        <time>2025-04-30T08:05:33Z</time>
      </trkpt>
      <trkpt lat="43.557186964899302" lon="-7.405941020697355">
        <ele>89.540000000000006</ele>
        <time>2025-04-30T08:05:34Z</time>
      </trkpt>
      <trkpt lat="43.55720398016274" lon="-7.406139001250267">
        <ele>89.540000000000006</ele>
        <time>2025-04-30T08:05:35Z</time>
      </trkpt>
      <trkpt lat="43.557234993204474" lon="-7.406330024823546">
        <ele>89.540000000000006</ele>
        <time>2025-04-30T08:05:36Z</time>
      </trkpt>
      <trkpt lat="43.55726801790297" lon="-7.406529011204839">
        <ele>89.540000000000006</ele>
        <time>2025-04-30T08:05:37Z</time>
      </trkpt>
      <trkpt lat="43.557337000966072" lon="-7.407123958691955">
        <ele>89.540000000000006</ele>
        <time>2025-04-30T08:05:40Z</time>
      </trkpt>
      <trkpt lat="43.557315040379763" lon="-7.407342977821827">
        <ele>89.540000000000006</ele>
        <time>2025-04-30T08:05:41Z</time>
      </trkpt>
      <trkpt lat="43.557243961840868" lon="-7.408599006012082">
        <ele>87.140000000000001</ele>
        <time>2025-04-30T08:05:47Z</time>
      </trkpt>
      <trkpt lat="43.557249996811152" lon="-7.408778965473175">
        <ele>86.659999999999997</ele>
        <time>2025-04-30T08:05:48Z</time>
      </trkpt>
      <trkpt lat="43.557294001802802" lon="-7.408949034288526">
        <ele>86.180000000000007</ele>
        <time>2025-04-30T08:05:49Z</time>
      </trkpt>
      <trkpt lat="43.557545961812139" lon="-7.409576000645757">
        <ele>85.689999999999998</ele>
        <time>2025-04-30T08:05:53Z</time>
      </trkpt>
      <trkpt lat="43.557642018422484" lon="-7.409654958173633">
        <ele>85.209999999999994</ele>
        <time>2025-04-30T08:05:54Z</time>
      </trkpt>
      <trkpt lat="43.55774000287056" lon="-7.409737017005682">
        <ele>85.209999999999994</ele>
        <time>2025-04-30T08:05:55Z</time>
      </trkpt>
      <trkpt lat="43.557841004803777" lon="-7.40981999784708">
        <ele>85.689999999999998</ele>
        <time>2025-04-30T08:05:56Z</time>
      </trkpt>
      <trkpt lat="43.557936977595091" lon="-7.409899961203337">
        <ele>86.180000000000007</ele>
        <time>2025-04-30T08:05:57Z</time>
      </trkpt>
      <trkpt lat="43.558029010891914" lon="-7.409975985065103">
        <ele>86.659999999999997</ele>
        <time>2025-04-30T08:05:58Z</time>
      </trkpt>
      <trkpt lat="43.558125989511609" lon="-7.410065000876784">
        <ele>86.659999999999997</ele>
        <time>2025-04-30T08:05:59Z</time>
      </trkpt>
      <trkpt lat="43.558195978403091" lon="-7.410212019458413">
        <ele>87.140000000000001</ele>
        <time>2025-04-30T08:06:00Z</time>
      </trkpt>
      <trkpt lat="43.558227997273207" lon="-7.410331964492798">
        <ele>87.620000000000005</ele>
        <time>2025-04-30T08:06:01Z</time>
      </trkpt>
      <trkpt lat="43.558260016143322" lon="-7.410449981689453">
        <ele>87.620000000000005</ele>
        <time>2025-04-30T08:06:02Z</time>
      </trkpt>
      <trkpt lat="43.558229003101587" lon="-7.410610998049378">
        <ele>88.099999999999994</ele>
        <time>2025-04-30T08:06:03Z</time>
      </trkpt>
      <trkpt lat="43.558201007544994" lon="-7.410756004974246">
        <ele>88.579999999999998</ele>
        <time>2025-04-30T08:06:04Z</time>
      </trkpt>
      <trkpt lat="43.55816999450326" lon="-7.410916015505791">
        <ele>88.099999999999994</ele>
        <time>2025-04-30T08:06:05Z</time>
      </trkpt>
      <trkpt lat="43.558145016431808" lon="-7.411282975226641">
        <ele>88.099999999999994</ele>
        <time>2025-04-30T08:06:07Z</time>
      </trkpt>
      <trkpt lat="43.558139987289906" lon="-7.411478022113442">
        <ele>88.099999999999994</ele>
        <time>2025-04-30T08:06:08Z</time>
      </trkpt>
      <trkpt lat="43.558176029473543" lon="-7.412084033712745">
        <ele>88.099999999999994</ele>
        <time>2025-04-30T08:06:11Z</time>
      </trkpt>
      <trkpt lat="43.558206958696246" lon="-7.412259969860315">
        <ele>88.099999999999994</ele>
        <time>2025-04-30T08:06:12Z</time>
      </trkpt>
      <trkpt lat="43.558292035013437" lon="-7.412349991500378">
        <ele>88.099999999999994</ele>
        <time>2025-04-30T08:06:13Z</time>
      </trkpt>
      <trkpt lat="43.558380967006087" lon="-7.412389973178506">
        <ele>88.099999999999994</ele>
        <time>2025-04-30T08:06:14Z</time>
      </trkpt>
      <trkpt lat="43.558473000302911" lon="-7.412414029240608">
        <ele>88.099999999999994</ele>
        <time>2025-04-30T08:06:15Z</time>
      </trkpt>
      <trkpt lat="43.558592023327947" lon="-7.412433978170157">
        <ele>87.620000000000005</ele>
        <time>2025-04-30T08:06:16Z</time>
      </trkpt>
      <trkpt lat="43.558713980019093" lon="-7.412456022575498">
        <ele>87.620000000000005</ele>
        <time>2025-04-30T08:06:17Z</time>
      </trkpt>
      <trkpt lat="43.558969041332603" lon="-7.412527017295361">
        <ele>87.620000000000005</ele>
        <time>2025-04-30T08:06:19Z</time>
      </trkpt>
      <trkpt lat="43.559079011902213" lon="-7.412590971216559">
        <ele>88.099999999999994</ele>
        <time>2025-04-30T08:06:20Z</time>
      </trkpt>
      <trkpt lat="43.559186970815063" lon="-7.412678981199861">
        <ele>88.099999999999994</ele>
        <time>2025-04-30T08:06:21Z</time>
      </trkpt>
      <trkpt lat="43.559246985241771" lon="-7.412766991183162">
        <ele>88.099999999999994</ele>
        <time>2025-04-30T08:06:22Z</time>
      </trkpt>
      <trkpt lat="43.559310017153621" lon="-7.412953991442919">
        <ele>88.579999999999998</ele>
        <time>2025-04-30T08:06:23Z</time>
      </trkpt>
      <trkpt lat="43.559363996610045" lon="-7.413109978660941">
        <ele>88.579999999999998</ele>
        <time>2025-04-30T08:06:24Z</time>
      </trkpt>
      <trkpt lat="43.559418981894851" lon="-7.413272000849247">
        <ele>89.060000000000002</ele>
        <time>2025-04-30T08:06:25Z</time>
      </trkpt>
      <trkpt lat="43.559904964640737" lon="-7.414182024076581">
        <ele>92.900000000000006</ele>
        <time>2025-04-30T08:06:33Z</time>
      </trkpt>
      <trkpt lat="43.559817960485816" lon="-7.41439500823617">
        <ele>94.829999999999998</ele>
        <time>2025-04-30T08:06:38Z</time>
      </trkpt>
      <trkpt lat="43.55978200212121" lon="-7.414448987692595">
        <ele>95.310000000000002</ele>
        <time>2025-04-30T08:06:39Z</time>
      </trkpt>
      <trkpt lat="43.559730034321547" lon="-7.41452501155436">
        <ele>95.310000000000002</ele>
        <time>2025-04-30T08:06:40Z</time>
      </trkpt>
      <trkpt lat="43.559670019894838" lon="-7.414614027366042">
        <ele>95.790000000000006</ele>
        <time>2025-04-30T08:06:41Z</time>
      </trkpt>
      <trkpt lat="43.559601958841085" lon="-7.414714023470879">
        <ele>95.790000000000006</ele>
        <time>2025-04-30T08:06:42Z</time>
      </trkpt>
      <trkpt lat="43.559526018798351" lon="-7.414823994040489">
        <ele>96.269999999999996</ele>
        <time>2025-04-30T08:06:43Z</time>
      </trkpt>
      <trkpt lat="43.559365002438426" lon="-7.41506103426218">
        <ele>96.269999999999996</ele>
        <time>2025-04-30T08:06:45Z</time>
      </trkpt>
      <trkpt lat="43.559246985241771" lon="-7.41523495875299">
        <ele>96.269999999999996</ele>
        <time>2025-04-30T08:06:46Z</time>
      </trkpt>
      <trkpt lat="43.559216978028417" lon="-7.415352975949645">
        <ele>96.269999999999996</ele>
        <time>2025-04-30T08:06:47Z</time>
      </trkpt>
      <trkpt lat="43.559146989136934" lon="-7.415853962302208">
        <ele>95.790000000000006</ele>
        <time>2025-04-30T08:06:50Z</time>
      </trkpt>
      <trkpt lat="43.559132991358638" lon="-7.41600601002574">
        <ele>95.790000000000006</ele>
        <time>2025-04-30T08:06:51Z</time>
      </trkpt>
      <trkpt lat="43.559117987751961" lon="-7.416152022778988">
        <ele>95.790000000000006</ele>
        <time>2025-04-30T08:06:52Z</time>
      </trkpt>
      <trkpt lat="43.559064008295536" lon="-7.41671402938664">
        <ele>95.310000000000002</ele>
        <time>2025-04-30T08:06:56Z</time>
      </trkpt>
      <trkpt lat="43.559034001082182" lon="-7.417019968852401">
        <ele>95.790000000000006</ele>
        <time>2025-04-30T08:06:58Z</time>
      </trkpt>
      <trkpt lat="43.558866027742624" lon="-7.418368030339479">
        <ele>97.230000000000004</ele>
        <time>2025-04-30T08:07:05Z</time>
      </trkpt>
      <trkpt lat="43.558667041361332" lon="-7.418991979211569">
        <ele>99.150000000000006</ele>
        <time>2025-04-30T08:07:08Z</time>
      </trkpt>
      <trkpt lat="43.55857701972127" lon="-7.419188031926751">
        <ele>100.11</ele>
        <time>2025-04-30T08:07:09Z</time>
      </trkpt>
      <trkpt lat="43.55797603726387" lon="-7.42101302370429">
        <ele>105.40000000000001</ele>
        <time>2025-04-30T08:07:18Z</time>
      </trkpt>
      <trkpt lat="43.557830024510622" lon="-7.421650970354676">
        <ele>108.29000000000001</ele>
        <time>2025-04-30T08:07:22Z</time>
      </trkpt>
      <trkpt lat="43.557838993147016" lon="-7.421783991158009">
        <ele>108.77</ele>
        <time>2025-04-30T08:07:23Z</time>
      </trkpt>
      <trkpt lat="43.55784997344017" lon="-7.421950036659837">
        <ele>109.73</ele>
        <time>2025-04-30T08:07:24Z</time>
      </trkpt>
      <trkpt lat="43.55789196677506" lon="-7.422114992514253">
        <ele>110.20999999999999</ele>
        <time>2025-04-30T08:07:25Z</time>
      </trkpt>
      <trkpt lat="43.557946030050516" lon="-7.422307021915913">
        <ele>111.17</ele>
        <time>2025-04-30T08:07:26Z</time>
      </trkpt>
      <trkpt lat="43.558001015335321" lon="-7.422503996640444">
        <ele>112.13</ele>
        <time>2025-04-30T08:07:27Z</time>
      </trkpt>
      <trkpt lat="43.558292035013437" lon="-7.423518961295486">
        <ele>117.90000000000001</ele>
        <time>2025-04-30T08:07:33Z</time>
      </trkpt>
      <trkpt lat="43.558612978085876" lon="-7.424179036170244">
        <ele>121.26000000000001</ele>
        <time>2025-04-30T08:07:40Z</time>
      </trkpt>
      <trkpt lat="43.558783968910575" lon="-7.424666024744511">
        <ele>121.73999999999999</ele>
        <time>2025-04-30T08:07:46Z</time>
      </trkpt>
      <trkpt lat="43.559113964438438" lon="-7.425940996035934">
        <ele>121.26000000000001</ele>
        <time>2025-04-30T08:07:53Z</time>
      </trkpt>
      <trkpt lat="43.559139026328921" lon="-7.426154986023903">
        <ele>120.78</ele>
        <time>2025-04-30T08:07:54Z</time>
      </trkpt>
      <trkpt lat="43.559139026328921" lon="-7.426383979618549">
        <ele>120.3</ele>
        <time>2025-04-30T08:07:55Z</time>
      </trkpt>
      <trkpt lat="43.559079011902213" lon="-7.428137976676226">
        <ele>117.90000000000001</ele>
        <time>2025-04-30T08:08:03Z</time>
      </trkpt>
      <trkpt lat="43.559031989425421" lon="-7.428323971107602">
        <ele>118.38</ele>
        <time>2025-04-30T08:08:04Z</time>
      </trkpt>
      <trkpt lat="43.558881031349301" lon="-7.428915984928608">
        <ele>121.26000000000001</ele>
        <time>2025-04-30T08:08:08Z</time>
      </trkpt>
      <trkpt lat="43.558837026357651" lon="-7.42909200489521">
        <ele>122.22</ele>
        <time>2025-04-30T08:08:09Z</time>
      </trkpt>
      <trkpt lat="43.558790003880858" lon="-7.429274981841445">
        <ele>122.70999999999999</ele>
        <time>2025-04-30T08:08:10Z</time>
      </trkpt>
      <trkpt lat="43.558436958119273" lon="-7.43072597309947">
        <ele>127.03</ele>
        <time>2025-04-30T08:08:18Z</time>
      </trkpt>
      <trkpt lat="43.558417009189725" lon="-7.430898975580931">
        <ele>127.51000000000001</ele>
        <time>2025-04-30T08:08:19Z</time>
      </trkpt>
      <trkpt lat="43.558394964784384" lon="-7.431077007204294">
        <ele>127.98999999999999</ele>
        <time>2025-04-30T08:08:20Z</time>
      </trkpt>
      <trkpt lat="43.558388007804751" lon="-7.431479003280401">
        <ele>128.94999999999999</ele>
        <time>2025-04-30T08:08:22Z</time>
      </trkpt>
      <trkpt lat="43.558391025289893" lon="-7.433188995346427">
        <ele>130.40000000000001</ele>
        <time>2025-04-30T08:08:31Z</time>
      </trkpt>
      <trkpt lat="43.558394964784384" lon="-7.433493006974459">
        <ele>129.91999999999999</ele>
        <time>2025-04-30T08:08:33Z</time>
      </trkpt>
      <trkpt lat="43.558396976441145" lon="-7.433640025556088">
        <ele>129.91999999999999</ele>
        <time>2025-04-30T08:08:34Z</time>
      </trkpt>
      <trkpt lat="43.558398988097906" lon="-7.433787966147065">
        <ele>129.43000000000001</ele>
        <time>2025-04-30T08:08:35Z</time>
      </trkpt>
      <trkpt lat="43.558400999754667" lon="-7.433939008042216">
        <ele>129.43000000000001</ele>
        <time>2025-04-30T08:08:36Z</time>
      </trkpt>
      <trkpt lat="43.558403011411428" lon="-7.434097006917">
        <ele>129.43000000000001</ele>
        <time>2025-04-30T08:08:37Z</time>
      </trkpt>
      <trkpt lat="43.55840502306819" lon="-7.434264980256558">
        <ele>128.94999999999999</ele>
        <time>2025-04-30T08:08:38Z</time>
      </trkpt>
      <trkpt lat="43.558408040553331" lon="-7.434446029365063">
        <ele>128.94999999999999</ele>
        <time>2025-04-30T08:08:39Z</time>
      </trkpt>
      <trkpt lat="43.55840602889657" lon="-7.434624982997775">
        <ele>129.43000000000001</ele>
        <time>2025-04-30T08:08:40Z</time>
      </trkpt>
      <trkpt lat="43.558364035561681" lon="-7.434794967994094">
        <ele>129.91999999999999</ele>
        <time>2025-04-30T08:08:41Z</time>
      </trkpt>
      <trkpt lat="43.55832003057003" lon="-7.434970987960696">
        <ele>129.91999999999999</ele>
        <time>2025-04-30T08:08:42Z</time>
      </trkpt>
      <trkpt lat="43.55808399617672" lon="-7.435876987874508">
        <ele>127.51000000000001</ele>
        <time>2025-04-30T08:08:48Z</time>
      </trkpt>
      <trkpt lat="43.558035967871547" lon="-7.435972038656473">
        <ele>127.03</ele>
        <time>2025-04-30T08:08:49Z</time>
      </trkpt>
      <trkpt lat="43.557961033657193" lon="-7.436046972870827">
        <ele>126.06999999999999</ele>
        <time>2025-04-30T08:08:50Z</time>
      </trkpt>
      <trkpt lat="43.557878974825144" lon="-7.436129031702876">
        <ele>125.59</ele>
        <time>2025-04-30T08:08:51Z</time>
      </trkpt>
      <trkpt lat="43.557792976498604" lon="-7.436215030029416">
        <ele>124.63</ele>
        <time>2025-04-30T08:08:52Z</time>
      </trkpt>
      <trkpt lat="43.557705972343683" lon="-7.436302034184337">
        <ele>123.67</ele>
        <time>2025-04-30T08:08:53Z</time>
      </trkpt>
      <trkpt lat="43.55763397179544" lon="-7.436400018632412">
        <ele>122.22</ele>
        <time>2025-04-30T08:08:54Z</time>
      </trkpt>
      <trkpt lat="43.557579992339015" lon="-7.436506971716881">
        <ele>121.26000000000001</ele>
        <time>2025-04-30T08:08:55Z</time>
      </trkpt>
      <trkpt lat="43.557531964033842" lon="-7.436602022498846">
        <ele>120.3</ele>
        <time>2025-04-30T08:08:56Z</time>
      </trkpt>
      <trkpt lat="43.557507991790771" lon="-7.436708975583315">
        <ele>119.81999999999999</ele>
        <time>2025-04-30T08:08:57Z</time>
      </trkpt>
      <trkpt lat="43.557485025376081" lon="-7.436814000830054">
        <ele>118.86</ele>
        <time>2025-04-30T08:08:58Z</time>
      </trkpt>
      <trkpt lat="43.55746197514236" lon="-7.436920031905174">
        <ele>118.38</ele>
        <time>2025-04-30T08:08:59Z</time>
      </trkpt>
      <trkpt lat="43.557436997070909" lon="-7.437033019959927">
        <ele>117.90000000000001</ele>
        <time>2025-04-30T08:09:00Z</time>
      </trkpt>
      <trkpt lat="43.557411013171077" lon="-7.437149025499821">
        <ele>117.90000000000001</ele>
        <time>2025-04-30T08:09:01Z</time>
      </trkpt>
      <trkpt lat="43.557380000129342" lon="-7.437294032424688">
        <ele>117.90000000000001</ele>
        <time>2025-04-30T08:09:02Z</time>
      </trkpt>
      <trkpt lat="43.557163998484612" lon="-7.437720000743866">
        <ele>117.42</ele>
        <time>2025-04-30T08:09:06Z</time>
      </trkpt>
      <trkpt lat="43.557099038735032" lon="-7.437775991857052">
        <ele>117.90000000000001</ele>
        <time>2025-04-30T08:09:07Z</time>
      </trkpt>
      <trkpt lat="43.557029971852899" lon="-7.437831982970238">
        <ele>117.90000000000001</ele>
        <time>2025-04-30T08:09:08Z</time>
      </trkpt>
      <trkpt lat="43.556784968823195" lon="-7.437923010438681">
        <ele>117.42</ele>
        <time>2025-04-30T08:09:11Z</time>
      </trkpt>
      <trkpt lat="43.556671980768442" lon="-7.437980007380247">
        <ele>117.42</ele>
        <time>2025-04-30T08:09:12Z</time>
      </trkpt>
      <trkpt lat="43.556612972170115" lon="-7.438042033463717">
        <ele>116.94</ele>
        <time>2025-04-30T08:09:13Z</time>
      </trkpt>
      <trkpt lat="43.556182980537415" lon="-7.438588030636311">
        <ele>113.56999999999999</ele>
        <time>2025-04-30T08:09:18Z</time>
      </trkpt>
      <trkpt lat="43.556107962504029" lon="-7.438728008419275">
        <ele>112.61</ele>
        <time>2025-04-30T08:09:19Z</time>
      </trkpt>
      <trkpt lat="43.555575963109732" lon="-7.439460000023246">
        <ele>106.36</ele>
        <time>2025-04-30T08:09:26Z</time>
      </trkpt>
      <trkpt lat="43.55548501946032" lon="-7.439486989751458">
        <ele>105.40000000000001</ele>
        <time>2025-04-30T08:09:27Z</time>
      </trkpt>
      <trkpt lat="43.555362978950143" lon="-7.439524959772825">
        <ele>104.92</ele>
        <time>2025-04-30T08:09:28Z</time>
      </trkpt>
      <trkpt lat="43.554382966831326" lon="-7.439495036378503">
        <ele>103</ele>
        <time>2025-04-30T08:09:37Z</time>
      </trkpt>
      <trkpt lat="43.553685005754232" lon="-7.439509034156799">
        <ele>100.59999999999999</ele>
        <time>2025-04-30T08:09:44Z</time>
      </trkpt>
      <trkpt lat="43.553109001368284" lon="-7.43955597281456">
        <ele>98.670000000000002</ele>
        <time>2025-04-30T08:09:51Z</time>
      </trkpt>
      <trkpt lat="43.552846983075142" lon="-7.439601989462972">
        <ele>98.670000000000002</ele>
        <time>2025-04-30T08:09:54Z</time>
      </trkpt>
      <trkpt lat="43.552744975313544" lon="-7.439633002504706">
        <ele>98.189999999999998</ele>
        <time>2025-04-30T08:09:55Z</time>
      </trkpt>
      <trkpt lat="43.552679009735584" lon="-7.439697962254286">
        <ele>98.189999999999998</ele>
        <time>2025-04-30T08:09:56Z</time>
      </trkpt>
      <trkpt lat="43.552607009187341" lon="-7.43977096863091">
        <ele>98.189999999999998</ele>
        <time>2025-04-30T08:09:57Z</time>
      </trkpt>
      <trkpt lat="43.552544983103871" lon="-7.439831988885999">
        <ele>98.189999999999998</ele>
        <time>2025-04-30T08:09:58Z</time>
      </trkpt>
      <trkpt lat="43.552486980333924" lon="-7.439890997484326">
        <ele>97.709999999999994</ele>
        <time>2025-04-30T08:09:59Z</time>
      </trkpt>
      <trkpt lat="43.552266033366323" lon="-7.440214036032558">
        <ele>97.709999999999994</ele>
        <time>2025-04-30T08:10:04Z</time>
      </trkpt>
      <trkpt lat="43.552093030884862" lon="-7.440445041283965">
        <ele>99.150000000000006</ele>
        <time>2025-04-30T08:10:07Z</time>
      </trkpt>
      <trkpt lat="43.552039973437786" lon="-7.440512012690306">
        <ele>100.11</ele>
        <time>2025-04-30T08:10:08Z</time>
      </trkpt>
      <trkpt lat="43.551971996203065" lon="-7.440598011016846">
        <ele>100.59999999999999</ele>
        <time>2025-04-30T08:10:09Z</time>
      </trkpt>
      <trkpt lat="43.55178901925683" lon="-7.440873021259904">
        <ele>103.95999999999999</ele>
        <time>2025-04-30T08:10:14Z</time>
      </trkpt>
      <trkpt lat="43.551801005378366" lon="-7.440919959917665">
        <ele>104.44</ele>
        <time>2025-04-30T08:10:15Z</time>
      </trkpt>
      <trkpt lat="43.551855990663171" lon="-7.440993972122669">
        <ele>104.92</ele>
        <time>2025-04-30T08:10:16Z</time>
      </trkpt>
      <trkpt lat="43.551907036453485" lon="-7.441048035398126">
        <ele>105.40000000000001</ele>
        <time>2025-04-30T08:10:17Z</time>
      </trkpt>
      <trkpt lat="43.55196101590991" lon="-7.44110201485455">
        <ele>105.88</ele>
        <time>2025-04-30T08:10:18Z</time>
      </trkpt>
      <trkpt lat="43.552012983709574" lon="-7.441153982654214">
        <ele>106.36</ele>
        <time>2025-04-30T08:10:19Z</time>
      </trkpt>
      <trkpt lat="43.552067968994379" lon="-7.441207962110639">
        <ele>106.84</ele>
        <time>2025-04-30T08:10:20Z</time>
      </trkpt>
      <trkpt lat="43.55290699750185" lon="-7.441699979826808">
        <ele>111.65000000000001</ele>
        <time>2025-04-30T08:10:31Z</time>
      </trkpt>
      <trkpt lat="43.553676037117839" lon="-7.442127037793398">
        <ele>112.13</ele>
        <time>2025-04-30T08:10:41Z</time>
      </trkpt>
      <trkpt lat="43.553749965503812" lon="-7.442170036956668">
        <ele>112.61</ele>
        <time>2025-04-30T08:10:42Z</time>
      </trkpt>
      <trkpt lat="43.553826995193958" lon="-7.442213958129287">
        <ele>113.09</ele>
        <time>2025-04-30T08:10:43Z</time>
      </trkpt>
      <trkpt lat="43.554827040061355" lon="-7.442789040505886">
        <ele>114.05</ele>
        <time>2025-04-30T08:10:54Z</time>
      </trkpt>
      <trkpt lat="43.555750977247953" lon="-7.443311987444758">
        <ele>118.38</ele>
        <time>2025-04-30T08:11:04Z</time>
      </trkpt>
      <trkpt lat="43.555837981402874" lon="-7.443360015749931">
        <ele>118.86</ele>
        <time>2025-04-30T08:11:05Z</time>
      </trkpt>
      <trkpt lat="43.557110019028187" lon="-7.444054959341884">
        <ele>116.94</ele>
        <time>2025-04-30T08:11:18Z</time>
      </trkpt>
      <trkpt lat="43.557300036773086" lon="-7.444160990417004">
        <ele>116.94</ele>
        <time>2025-04-30T08:11:20Z</time>
      </trkpt>
      <trkpt lat="43.558521028608084" lon="-7.444866998121142">
        <ele>121.26000000000001</ele>
        <time>2025-04-30T08:11:33Z</time>
      </trkpt>
      <trkpt lat="43.558811964467168" lon="-7.445094985887408">
        <ele>121.73999999999999</ele>
        <time>2025-04-30T08:11:36Z</time>
      </trkpt>
      <trkpt lat="43.558902991935611" lon="-7.445168998092413">
        <ele>121.73999999999999</ele>
        <time>2025-04-30T08:11:37Z</time>
      </trkpt>
      <trkpt lat="43.558959988877177" lon="-7.445302018895745">
        <ele>122.22</ele>
        <time>2025-04-30T08:11:38Z</time>
      </trkpt>
      <trkpt lat="43.559031989425421" lon="-7.445468986406922">
        <ele>122.22</ele>
        <time>2025-04-30T08:11:39Z</time>
      </trkpt>
      <trkpt lat="43.559041041880846" lon="-7.445589015260339">
        <ele>122.70999999999999</ele>
        <time>2025-04-30T08:11:40Z</time>
      </trkpt>
      <trkpt lat="43.559052022174001" lon="-7.445754976943135">
        <ele>123.19</ele>
        <time>2025-04-30T08:11:41Z</time>
      </trkpt>
      <trkpt lat="43.559063002467155" lon="-7.445920016616583">
        <ele>124.15000000000001</ele>
        <time>2025-04-30T08:11:42Z</time>
      </trkpt>
      <trkpt lat="43.559154029935598" lon="-7.447679964825511">
        <ele>133.28</ele>
        <time>2025-04-30T08:11:53Z</time>
      </trkpt>
      <trkpt lat="43.559170961380005" lon="-7.447852967306972">
        <ele>134.24000000000001</ele>
        <time>2025-04-30T08:11:54Z</time>
      </trkpt>
      <trkpt lat="43.559186970815063" lon="-7.448026975616813">
        <ele>135.19999999999999</ele>
        <time>2025-04-30T08:11:55Z</time>
      </trkpt>
      <trkpt lat="43.55920298025012" lon="-7.448198972269893">
        <ele>136.16</ele>
        <time>2025-04-30T08:11:56Z</time>
      </trkpt>
      <trkpt lat="43.559218989685178" lon="-7.448368035256863">
        <ele>136.63999999999999</ele>
        <time>2025-04-30T08:11:57Z</time>
      </trkpt>
      <trkpt lat="43.559208009392023" lon="-7.448529973626137">
        <ele>137.61000000000001</ele>
        <time>2025-04-30T08:11:58Z</time>
      </trkpt>
      <trkpt lat="43.559178002178669" lon="-7.448702976107597">
        <ele>138.09</ele>
        <time>2025-04-30T08:11:59Z</time>
      </trkpt>
      <trkpt lat="43.55913600884378" lon="-7.448872961103916">
        <ele>139.05000000000001</ele>
        <time>2025-04-30T08:12:00Z</time>
      </trkpt>
      <trkpt lat="43.559022014960647" lon="-7.449404960498214">
        <ele>140.97</ele>
        <time>2025-04-30T08:12:03Z</time>
      </trkpt>
      <trkpt lat="43.558992007747293" lon="-7.449599001556635">
        <ele>140.97</ele>
        <time>2025-04-30T08:12:04Z</time>
      </trkpt>
      <trkpt lat="43.558957977220416" lon="-7.449813997372985">
        <ele>141.44999999999999</ele>
        <time>2025-04-30T08:12:05Z</time>
      </trkpt>
      <trkpt lat="43.558945991098881" lon="-7.450054977089167">
        <ele>141.44999999999999</ele>
        <time>2025-04-30T08:12:06Z</time>
      </trkpt>
      <trkpt lat="43.558945991098881" lon="-7.45029604062438">
        <ele>141.93000000000001</ele>
        <time>2025-04-30T08:12:07Z</time>
      </trkpt>
      <trkpt lat="43.558882037177682" lon="-7.451959010213614">
        <ele>145.30000000000001</ele>
        <time>2025-04-30T08:12:14Z</time>
      </trkpt>
      <trkpt lat="43.558895029127598" lon="-7.452841037884355">
        <ele>149.13999999999999</ele>
        <time>2025-04-30T08:12:18Z</time>
      </trkpt>
      <trkpt lat="43.558909026905894" lon="-7.453036000952125">
        <ele>149.62</ele>
        <time>2025-04-30T08:12:19Z</time>
      </trkpt>
      <trkpt lat="43.558925036340952" lon="-7.453258037567139">
        <ele>150.09999999999999</ele>
        <time>2025-04-30T08:12:20Z</time>
      </trkpt>
      <trkpt lat="43.558984966948628" lon="-7.453437997028232">
        <ele>150.58000000000001</ele>
        <time>2025-04-30T08:12:21Z</time>
      </trkpt>
      <trkpt lat="43.55905101634562" lon="-7.453635977581143">
        <ele>151.06</ele>
        <time>2025-04-30T08:12:22Z</time>
      </trkpt>
      <trkpt lat="43.55933197773993" lon="-7.45468002744019">
        <ele>153.94999999999999</ele>
        <time>2025-04-30T08:12:27Z</time>
      </trkpt>
      <trkpt lat="43.55933197773993" lon="-7.454914972186089">
        <ele>154.91</ele>
        <time>2025-04-30T08:12:28Z</time>
      </trkpt>
      <trkpt lat="43.559303982183337" lon="-7.455144971609116">
        <ele>155.38999999999999</ele>
        <time>2025-04-30T08:12:29Z</time>
      </trkpt>
      <trkpt lat="43.559187976643443" lon="-7.456079972907901">
        <ele>158.27000000000001</ele>
        <time>2025-04-30T08:12:33Z</time>
      </trkpt>
      <trkpt lat="43.559209015220404" lon="-7.456268984824419">
        <ele>158.75</ele>
        <time>2025-04-30T08:12:34Z</time>
      </trkpt>
      <trkpt lat="43.559262994676828" lon="-7.45646202005446">
        <ele>159.24000000000001</ele>
        <time>2025-04-30T08:12:35Z</time>
      </trkpt>
      <trkpt lat="43.559585027396679" lon="-7.457763981074095">
        <ele>164.52000000000001</ele>
        <time>2025-04-30T08:12:41Z</time>
      </trkpt>
      <trkpt lat="43.559677982702851" lon="-7.458387007936835">
        <ele>167.88999999999999</ele>
        <time>2025-04-30T08:12:44Z</time>
      </trkpt>
      <trkpt lat="43.559744032099843" lon="-7.458565039560199">
        <ele>168.84999999999999</ele>
        <time>2025-04-30T08:12:45Z</time>
      </trkpt>
      <trkpt lat="43.559812009334564" lon="-7.458740975707769">
        <ele>170.28999999999999</ele>
        <time>2025-04-30T08:12:46Z</time>
      </trkpt>
      <trkpt lat="43.559918040409684" lon="-7.458893023431301">
        <ele>171.25</ele>
        <time>2025-04-30T08:12:47Z</time>
      </trkpt>
      <trkpt lat="43.560028010979295" lon="-7.459051022306085">
        <ele>172.69</ele>
        <time>2025-04-30T08:12:48Z</time>
      </trkpt>
      <trkpt lat="43.560140999034047" lon="-7.459212960675359">
        <ele>173.66</ele>
        <time>2025-04-30T08:12:49Z</time>
      </trkpt>
      <trkpt lat="43.560235965996981" lon="-7.459410019218922">
        <ele>174.62</ele>
        <time>2025-04-30T08:12:50Z</time>
      </trkpt>
      <trkpt lat="43.560326993465424" lon="-7.459604982286692">
        <ele>176.06</ele>
        <time>2025-04-30T08:12:51Z</time>
      </trkpt>
      <trkpt lat="43.560640979558229" lon="-7.460402017459273">
        <ele>180.38</ele>
        <time>2025-04-30T08:12:55Z</time>
      </trkpt>
      <trkpt lat="43.560672998428345" lon="-7.460621958598495">
        <ele>181.34999999999999</ele>
        <time>2025-04-30T08:12:56Z</time>
      </trkpt>
      <trkpt lat="43.560689007863402" lon="-7.460843995213509">
        <ele>182.31</ele>
        <time>2025-04-30T08:12:57Z</time>
      </trkpt>
      <trkpt lat="43.560781041160226" lon="-7.463238034397364">
        <ele>196.72999999999999</ele>
        <time>2025-04-30T08:13:08Z</time>
      </trkpt>
      <trkpt lat="43.560893023386598" lon="-7.464819028973579">
        <ele>203.94</ele>
        <time>2025-04-30T08:13:15Z</time>
      </trkpt>
      <trkpt lat="43.560935016721487" lon="-7.465052967891097">
        <ele>205.38</ele>
        <time>2025-04-30T08:13:16Z</time>
      </trkpt>
      <trkpt lat="43.561298958957195" lon="-7.466920958831906">
        <ele>213.06999999999999</ele>
        <time>2025-04-30T08:13:24Z</time>
      </trkpt>
      <trkpt lat="43.56128403916955" lon="-7.46714198961854">
        <ele>214.03</ele>
        <time>2025-04-30T08:13:25Z</time>
      </trkpt>
      <trkpt lat="43.561247996985912" lon="-7.467860989272595">
        <ele>218.36000000000001</ele>
        <time>2025-04-30T08:13:28Z</time>
      </trkpt>
      <trkpt lat="43.561285967007279" lon="-7.46838997118175">
        <ele>220.28</ele>
        <time>2025-04-30T08:13:30Z</time>
      </trkpt>
      <trkpt lat="43.561327960342169" lon="-7.469749012961984">
        <ele>225.09</ele>
        <time>2025-04-30T08:13:35Z</time>
      </trkpt>
      <trkpt lat="43.561283033341169" lon="-7.469993010163307">
        <ele>226.53</ele>
        <time>2025-04-30T08:13:36Z</time>
      </trkpt>
      <trkpt lat="43.561241962015629" lon="-7.470210017636418">
        <ele>227.49000000000001</ele>
        <time>2025-04-30T08:13:37Z</time>
      </trkpt>
      <trkpt lat="43.561169039458036" lon="-7.470467006787658">
        <ele>228.44999999999999</ele>
        <time>2025-04-30T08:13:38Z</time>
      </trkpt>
      <trkpt lat="43.561099972575903" lon="-7.47070798650384">
        <ele>229.88999999999999</ele>
        <time>2025-04-30T08:13:39Z</time>
      </trkpt>
      <trkpt lat="43.560755979269743" lon="-7.471839040517807">
        <ele>234.22</ele>
        <time>2025-04-30T08:13:44Z</time>
      </trkpt>
      <trkpt lat="43.560680039227009" lon="-7.472037021070719">
        <ele>234.69999999999999</ele>
        <time>2025-04-30T08:13:45Z</time>
      </trkpt>
      <trkpt lat="43.560537965968251" lon="-7.472404986619949">
        <ele>236.13999999999999</ele>
        <time>2025-04-30T08:13:47Z</time>
      </trkpt>
      <trkpt lat="43.560480969026685" lon="-7.472580000758171">
        <ele>237.09999999999999</ele>
        <time>2025-04-30T08:13:48Z</time>
      </trkpt>
      <trkpt lat="43.560440987348557" lon="-7.472796002402902">
        <ele>237.58000000000001</ele>
        <time>2025-04-30T08:13:49Z</time>
      </trkpt>
      <trkpt lat="43.5603610239923" lon="-7.473225994035602">
        <ele>238.53999999999999</ele>
        <time>2025-04-30T08:13:51Z</time>
      </trkpt>
      <trkpt lat="43.560324981808662" lon="-7.473632013425231">
        <ele>239.02000000000001</ele>
        <time>2025-04-30T08:13:53Z</time>
      </trkpt>
      <trkpt lat="43.560333028435707" lon="-7.473843991756439">
        <ele>239.99000000000001</ele>
        <time>2025-04-30T08:13:54Z</time>
      </trkpt>
      <trkpt lat="43.56034099124372" lon="-7.474094023928046">
        <ele>240.47</ele>
        <time>2025-04-30T08:13:55Z</time>
      </trkpt>
      <trkpt lat="43.560382984578609" lon="-7.474272977560759">
        <ele>241.43000000000001</ele>
        <time>2025-04-30T08:13:56Z</time>
      </trkpt>
      <trkpt lat="43.560433024540544" lon="-7.474486967548728">
        <ele>242.38999999999999</ele>
        <time>2025-04-30T08:13:57Z</time>
      </trkpt>
      <trkpt lat="43.560491027310491" lon="-7.474736999720335">
        <ele>243.34999999999999</ele>
        <time>2025-04-30T08:13:58Z</time>
      </trkpt>
      <trkpt lat="43.560551963746548" lon="-7.474888963624835">
        <ele>243.83000000000001</ele>
        <time>2025-04-30T08:13:59Z</time>
      </trkpt>
      <trkpt lat="43.560631005093455" lon="-7.475081998854876">
        <ele>244.78999999999999</ele>
        <time>2025-04-30T08:14:00Z</time>
      </trkpt>
      <trkpt lat="43.560842983424664" lon="-7.475420963019133">
        <ele>245.75</ele>
        <time>2025-04-30T08:14:02Z</time>
      </trkpt>
      <trkpt lat="43.56102897785604" lon="-7.475771997123957">
        <ele>247.19999999999999</ele>
        <time>2025-04-30T08:14:04Z</time>
      </trkpt>
      <trkpt lat="43.561231987550855" lon="-7.476319000124931">
        <ele>250.08000000000001</ele>
        <time>2025-04-30T08:14:07Z</time>
      </trkpt>
      <trkpt lat="43.561326032504439" lon="-7.476454032585025">
        <ele>251.03999999999999</ele>
        <time>2025-04-30T08:14:08Z</time>
      </trkpt>
      <trkpt lat="43.561431979760528" lon="-7.476587975397706">
        <ele>252.47999999999999</ele>
        <time>2025-04-30T08:14:09Z</time>
      </trkpt>
      <trkpt lat="43.561538010835648" lon="-7.4767230078578">
        <ele>253.93000000000001</ele>
        <time>2025-04-30T08:14:10Z</time>
      </trkpt>
      <trkpt lat="43.561643036082387" lon="-7.476856028661132">
        <ele>255.37</ele>
        <time>2025-04-30T08:14:11Z</time>
      </trkpt>
      <trkpt lat="43.561734985560179" lon="-7.476999023929238">
        <ele>256.81</ele>
        <time>2025-04-30T08:14:12Z</time>
      </trkpt>
      <trkpt lat="43.56180002912879" lon="-7.477160962298513">
        <ele>257.76999999999998</ele>
        <time>2025-04-30T08:14:13Z</time>
      </trkpt>
      <trkpt lat="43.561849985271692" lon="-7.477337988093495">
        <ele>258.73000000000002</ele>
        <time>2025-04-30T08:14:14Z</time>
      </trkpt>
      <trkpt lat="43.561868006363511" lon="-7.477533034980297">
        <ele>259.69</ele>
        <time>2025-04-30T08:14:15Z</time>
      </trkpt>
      <trkpt lat="43.56188703328371" lon="-7.477723974734545">
        <ele>260.64999999999998</ele>
        <time>2025-04-30T08:14:16Z</time>
      </trkpt>
      <trkpt lat="43.561904970556498" lon="-7.477913992479444">
        <ele>261.62</ele>
        <time>2025-04-30T08:14:17Z</time>
      </trkpt>
      <trkpt lat="43.561922991648316" lon="-7.478104010224342">
        <ele>262.57999999999998</ele>
        <time>2025-04-30T08:14:18Z</time>
      </trkpt>
      <trkpt lat="43.561941012740135" lon="-7.478294027969241">
        <ele>263.06</ele>
        <time>2025-04-30T08:14:19Z</time>
      </trkpt>
      <trkpt lat="43.561971019953489" lon="-7.478482034057379">
        <ele>264.01999999999998</ele>
        <time>2025-04-30T08:14:20Z</time>
      </trkpt>
      <trkpt lat="43.562009995803237" lon="-7.478670962154865">
        <ele>264.98000000000002</ele>
        <time>2025-04-30T08:14:21Z</time>
      </trkpt>
      <trkpt lat="43.562049977481365" lon="-7.478857962414622">
        <ele>265.94</ele>
        <time>2025-04-30T08:14:22Z</time>
      </trkpt>
      <trkpt lat="43.562089037150145" lon="-7.47904303483665">
        <ele>266.89999999999998</ele>
        <time>2025-04-30T08:14:23Z</time>
      </trkpt>
      <trkpt lat="43.562121978029609" lon="-7.479200027883053">
        <ele>267.38</ele>
        <time>2025-04-30T08:14:24Z</time>
      </trkpt>
      <trkpt lat="43.56208199635148" lon="-7.479411000385881">
        <ele>268.35000000000002</ele>
        <time>2025-04-30T08:14:25Z</time>
      </trkpt>
      <trkpt lat="43.562036985531449" lon="-7.479579979553819">
        <ele>269.31</ele>
        <time>2025-04-30T08:14:26Z</time>
      </trkpt>
      <trkpt lat="43.561955010518432" lon="-7.479720963165164">
        <ele>269.79000000000002</ele>
        <time>2025-04-30T08:14:27Z</time>
      </trkpt>
      <trkpt lat="43.561873035505414" lon="-7.479863036423922">
        <ele>270.26999999999998</ele>
        <time>2025-04-30T08:14:28Z</time>
      </trkpt>
      <trkpt lat="43.561781002208591" lon="-7.479984993115068">
        <ele>271.23000000000002</ele>
        <time>2025-04-30T08:14:29Z</time>
      </trkpt>
      <trkpt lat="43.56167103163898" lon="-7.480077026411891">
        <ele>272.19</ele>
        <time>2025-04-30T08:14:30Z</time>
      </trkpt>
      <trkpt lat="43.561568018049002" lon="-7.480163024738431">
        <ele>273.14999999999998</ele>
        <time>2025-04-30T08:14:31Z</time>
      </trkpt>
      <trkpt lat="43.561500962823629" lon="-7.480307025834918">
        <ele>274.58999999999997</ele>
        <time>2025-04-30T08:14:32Z</time>
      </trkpt>
      <trkpt lat="43.561455029994249" lon="-7.480465024709702">
        <ele>275.56</ele>
        <time>2025-04-30T08:14:33Z</time>
      </trkpt>
      <trkpt lat="43.561228970065713" lon="-7.481491975486279">
        <ele>280.36000000000001</ele>
        <time>2025-04-30T08:14:38Z</time>
      </trkpt>
      <trkpt lat="43.561158981174231" lon="-7.481702025979757">
        <ele>280.83999999999997</ele>
        <time>2025-04-30T08:14:39Z</time>
      </trkpt>
      <trkpt lat="43.561063008382916" lon="-7.481897994875908">
        <ele>281.80000000000001</ele>
        <time>2025-04-30T08:14:40Z</time>
      </trkpt>
      <trkpt lat="43.560956977307796" lon="-7.482078960165381">
        <ele>282.27999999999997</ele>
        <time>2025-04-30T08:14:41Z</time>
      </trkpt>
      <trkpt lat="43.560848012566566" lon="-7.48226503841579">
        <ele>283.25</ele>
        <time>2025-04-30T08:14:42Z</time>
      </trkpt>
      <trkpt lat="43.560660006478429" lon="-7.482656976208091">
        <ele>284.69</ele>
        <time>2025-04-30T08:14:44Z</time>
      </trkpt>
      <trkpt lat="43.560407962650061" lon="-7.483248990029097">
        <ele>286.61000000000001</ele>
        <time>2025-04-30T08:14:47Z</time>
      </trkpt>
      <trkpt lat="43.560311989858747" lon="-7.483442025259137">
        <ele>287.08999999999997</ele>
        <time>2025-04-30T08:14:48Z</time>
      </trkpt>
      <trkpt lat="43.560197995975614" lon="-7.483586026355624">
        <ele>287.56999999999999</ele>
        <time>2025-04-30T08:14:49Z</time>
      </trkpt>
      <trkpt lat="43.560086013749242" lon="-7.48372801579535">
        <ele>288.05000000000001</ele>
        <time>2025-04-30T08:14:50Z</time>
      </trkpt>
      <trkpt lat="43.55997403152287" lon="-7.483868999406695">
        <ele>289.00999999999999</ele>
        <time>2025-04-30T08:14:51Z</time>
      </trkpt>
      <trkpt lat="43.559875963255763" lon="-7.484032027423382">
        <ele>289.00999999999999</ele>
        <time>2025-04-30T08:14:52Z</time>
      </trkpt>
      <trkpt lat="43.559785019606352" lon="-7.484209975227714">
        <ele>289.49000000000001</ele>
        <time>2025-04-30T08:14:53Z</time>
      </trkpt>
      <trkpt lat="43.55969600379467" lon="-7.484383983537555">
        <ele>289.49000000000001</ele>
        <time>2025-04-30T08:14:54Z</time>
      </trkpt>
      <trkpt lat="43.559486037120223" lon="-7.484858985990286">
        <ele>290.45999999999998</ele>
        <time>2025-04-30T08:14:57Z</time>
      </trkpt>
      <trkpt lat="43.559458963572979" lon="-7.485001981258392">
        <ele>290.94</ele>
        <time>2025-04-30T08:14:58Z</time>
      </trkpt>
      <trkpt lat="43.559451000764966" lon="-7.485164003446698">
        <ele>290.94</ele>
        <time>2025-04-30T08:14:59Z</time>
      </trkpt>
      <trkpt lat="43.559442032128572" lon="-7.485351003706455">
        <ele>291.42000000000002</ele>
        <time>2025-04-30T08:15:00Z</time>
      </trkpt>
      <trkpt lat="43.559403978288174" lon="-7.485562982037664">
        <ele>291.89999999999998</ele>
        <time>2025-04-30T08:15:01Z</time>
      </trkpt>
      <trkpt lat="43.559357961639762" lon="-7.485768003389239">
        <ele>292.38</ele>
        <time>2025-04-30T08:15:02Z</time>
      </trkpt>
      <trkpt lat="43.559314040467143" lon="-7.485967995598912">
        <ele>292.38</ele>
        <time>2025-04-30T08:15:03Z</time>
      </trkpt>
      <trkpt lat="43.559268023818731" lon="-7.486174022778869">
        <ele>292.86000000000001</ele>
        <time>2025-04-30T08:15:04Z</time>
      </trkpt>
      <trkpt lat="43.559259977191687" lon="-7.486362028867006">
        <ele>293.81999999999999</ele>
        <time>2025-04-30T08:15:05Z</time>
      </trkpt>
      <trkpt lat="43.559251008555293" lon="-7.486579958349466">
        <ele>294.30000000000001</ele>
        <time>2025-04-30T08:15:06Z</time>
      </trkpt>
      <trkpt lat="43.559356033802032" lon="-7.487514959648252">
        <ele>296.22000000000003</ele>
        <time>2025-04-30T08:15:10Z</time>
      </trkpt>
      <trkpt lat="43.559368019923568" lon="-7.487736996263266">
        <ele>296.69999999999999</ele>
        <time>2025-04-30T08:15:11Z</time>
      </trkpt>
      <trkpt lat="43.559389980509877" lon="-7.488182997331023">
        <ele>298.63</ele>
        <time>2025-04-30T08:15:13Z</time>
      </trkpt>
      <trkpt lat="43.559410013258457" lon="-7.488397993147373">
        <ele>300.06999999999999</ele>
        <time>2025-04-30T08:15:14Z</time>
      </trkpt>
      <trkpt lat="43.559443037956953" lon="-7.488595973700285">
        <ele>301.50999999999999</ele>
        <time>2025-04-30T08:15:15Z</time>
      </trkpt>
      <trkpt lat="43.559744032099843" lon="-7.489321008324623">
        <ele>307.75999999999999</ele>
        <time>2025-04-30T08:15:19Z</time>
      </trkpt>
      <trkpt lat="43.559821983799338" lon="-7.489491999149323">
        <ele>308.72000000000003</ele>
        <time>2025-04-30T08:15:20Z</time>
      </trkpt>
      <trkpt lat="43.559941006824374" lon="-7.489614961668849">
        <ele>310.16000000000003</ele>
        <time>2025-04-30T08:15:21Z</time>
      </trkpt>
      <trkpt lat="43.56006002984941" lon="-7.489733984693885">
        <ele>312.08999999999997</ele>
        <time>2025-04-30T08:15:22Z</time>
      </trkpt>
      <trkpt lat="43.560167988762259" lon="-7.489842027425766">
        <ele>313.52999999999997</ele>
        <time>2025-04-30T08:15:23Z</time>
      </trkpt>
      <trkpt lat="43.560277037322521" lon="-7.489950992166996">
        <ele>314.49000000000001</ele>
        <time>2025-04-30T08:15:24Z</time>
      </trkpt>
      <trkpt lat="43.560329005122185" lon="-7.490056017413735">
        <ele>315.93000000000001</ele>
        <time>2025-04-30T08:15:25Z</time>
      </trkpt>
      <trkpt lat="43.560362029820681" lon="-7.490193983539939">
        <ele>316.88999999999999</ele>
        <time>2025-04-30T08:15:26Z</time>
      </trkpt>
      <trkpt lat="43.560362029820681" lon="-7.490316024050117">
        <ele>317.85000000000002</ele>
        <time>2025-04-30T08:15:27Z</time>
      </trkpt>
      <trkpt lat="43.560310984030366" lon="-7.490482991561294">
        <ele>318.81</ele>
        <time>2025-04-30T08:15:28Z</time>
      </trkpt>
      <trkpt lat="43.560251975432038" lon="-7.490621963515878">
        <ele>319.77999999999997</ele>
        <time>2025-04-30T08:15:29Z</time>
      </trkpt>
      <trkpt lat="43.560150973498821" lon="-7.490736963227391">
        <ele>320.74000000000001</ele>
        <time>2025-04-30T08:15:30Z</time>
      </trkpt>
      <trkpt lat="43.560047037899494" lon="-7.490853974595666">
        <ele>322.18000000000001</ele>
        <time>2025-04-30T08:15:31Z</time>
      </trkpt>
      <trkpt lat="43.559940000995994" lon="-7.490971991792321">
        <ele>323.62</ele>
        <time>2025-04-30T08:15:32Z</time>
      </trkpt>
      <trkpt lat="43.559827012941241" lon="-7.491073999553919">
        <ele>324.57999999999998</ele>
        <time>2025-04-30T08:15:33Z</time>
      </trkpt>
      <trkpt lat="43.559714024886489" lon="-7.491193022578955">
        <ele>326.01999999999998</ele>
        <time>2025-04-30T08:15:34Z</time>
      </trkpt>
      <trkpt lat="43.559616962447762" lon="-7.491343980655074">
        <ele>327.47000000000003</ele>
        <time>2025-04-30T08:15:35Z</time>
      </trkpt>
      <trkpt lat="43.559521995484829" lon="-7.491504997014999">
        <ele>328.43000000000001</ele>
        <time>2025-04-30T08:15:36Z</time>
      </trkpt>
      <trkpt lat="43.559252014383674" lon="-7.492077983915806">
        <ele>332.26999999999998</ele>
        <time>2025-04-30T08:15:39Z</time>
      </trkpt>
      <trkpt lat="43.559055039659142" lon="-7.492651976644993">
        <ele>336.12</ele>
        <time>2025-04-30T08:15:42Z</time>
      </trkpt>
      <trkpt lat="43.558981027454138" lon="-7.492811987176538">
        <ele>337.07999999999998</ele>
        <time>2025-04-30T08:15:43Z</time>
      </trkpt>
      <trkpt lat="43.558902991935611" lon="-7.492954982444644">
        <ele>338.04000000000002</ele>
        <time>2025-04-30T08:15:44Z</time>
      </trkpt>
      <trkpt lat="43.558791009709239" lon="-7.493060007691383">
        <ele>339.48000000000002</ele>
        <time>2025-04-30T08:15:45Z</time>
      </trkpt>
      <trkpt lat="43.558680033311248" lon="-7.493164027109742">
        <ele>340.44</ele>
        <time>2025-04-30T08:15:46Z</time>
      </trkpt>
      <trkpt lat="43.558560004457831" lon="-7.493277015164495">
        <ele>341.88999999999999</ele>
        <time>2025-04-30T08:15:47Z</time>
      </trkpt>
      <trkpt lat="43.557915017008781" lon="-7.493713963776827">
        <ele>348.62</ele>
        <time>2025-04-30T08:15:52Z</time>
      </trkpt>
      <trkpt lat="43.557813009247184" lon="-7.493824018165469">
        <ele>349.57999999999998</ele>
        <time>2025-04-30T08:15:53Z</time>
      </trkpt>
      <trkpt lat="43.557717958465219" lon="-7.493960978463292">
        <ele>351.01999999999998</ele>
        <time>2025-04-30T08:15:54Z</time>
      </trkpt>
      <trkpt lat="43.55769700370729" lon="-7.494118977338076">
        <ele>351.98000000000002</ele>
        <time>2025-04-30T08:15:55Z</time>
      </trkpt>
      <trkpt lat="43.557699015364051" lon="-7.494303965941072">
        <ele>353.89999999999998</ele>
        <time>2025-04-30T08:15:56Z</time>
      </trkpt>
      <trkpt lat="43.557749977335334" lon="-7.494467999786139">
        <ele>355.33999999999997</ele>
        <time>2025-04-30T08:15:57Z</time>
      </trkpt>
      <trkpt lat="43.55780596844852" lon="-7.494646031409502">
        <ele>356.79000000000002</ele>
        <time>2025-04-30T08:15:58Z</time>
      </trkpt>
      <trkpt lat="43.558175023645163" lon="-7.495885966345668">
        <ele>366.39999999999998</ele>
        <time>2025-04-30T08:16:05Z</time>
      </trkpt>
      <trkpt lat="43.558178041130304" lon="-7.49608101323247">
        <ele>367.83999999999997</ele>
        <time>2025-04-30T08:16:06Z</time>
      </trkpt>
      <trkpt lat="43.558177035301924" lon="-7.497408036142588">
        <ele>374.08999999999997</ele>
        <time>2025-04-30T08:16:12Z</time>
      </trkpt>
      <trkpt lat="43.558136969804764" lon="-7.497595958411694">
        <ele>375.05000000000001</ele>
        <time>2025-04-30T08:16:13Z</time>
      </trkpt>
      <trkpt lat="43.558074021711946" lon="-7.497791005298495">
        <ele>376.49000000000001</ele>
        <time>2025-04-30T08:16:14Z</time>
      </trkpt>
      <trkpt lat="43.557937983423471" lon="-7.498206999152899">
        <ele>378.42000000000002</ele>
        <time>2025-04-30T08:16:16Z</time>
      </trkpt>
      <trkpt lat="43.557608993723989" lon="-7.499235039576888">
        <ele>383.69999999999999</ele>
        <time>2025-04-30T08:16:21Z</time>
      </trkpt>
      <trkpt lat="43.557574041187763" lon="-7.499435031786561">
        <ele>384.66000000000003</ele>
        <time>2025-04-30T08:16:22Z</time>
      </trkpt>
      <trkpt lat="43.557537999004126" lon="-7.499635023996234">
        <ele>385.63</ele>
        <time>2025-04-30T08:16:23Z</time>
      </trkpt>
      <trkpt lat="43.557501034811139" lon="-7.499827975407243">
        <ele>386.58999999999997</ele>
        <time>2025-04-30T08:16:24Z</time>
      </trkpt>
      <trkpt lat="43.557450994849205" lon="-7.50001598149538">
        <ele>387.06999999999999</ele>
        <time>2025-04-30T08:16:25Z</time>
      </trkpt>
      <trkpt lat="43.557404978200793" lon="-7.50018797814846">
        <ele>387.55000000000001</ele>
        <time>2025-04-30T08:16:26Z</time>
      </trkpt>
      <trkpt lat="43.557359967380762" lon="-7.500355029478669">
        <ele>388.50999999999999</ele>
        <time>2025-04-30T08:16:27Z</time>
      </trkpt>
      <trkpt lat="43.55733297765255" lon="-7.500523002818227">
        <ele>389.47000000000003</ele>
        <time>2025-04-30T08:16:28Z</time>
      </trkpt>
      <trkpt lat="43.557326020672917" lon="-7.50070296227932">
        <ele>390.43000000000001</ele>
        <time>2025-04-30T08:16:29Z</time>
      </trkpt>
      <trkpt lat="43.557317974045873" lon="-7.500883005559444">
        <ele>390.91000000000003</ele>
        <time>2025-04-30T08:16:30Z</time>
      </trkpt>
      <trkpt lat="43.557283021509647" lon="-7.501061037182808">
        <ele>391.87</ele>
        <time>2025-04-30T08:16:31Z</time>
      </trkpt>
      <trkpt lat="43.557238010689616" lon="-7.501236973330379">
        <ele>392.83999999999997</ele>
        <time>2025-04-30T08:16:32Z</time>
      </trkpt>
      <trkpt lat="43.557196017354727" lon="-7.501397989690304">
        <ele>393.31999999999999</ele>
        <time>2025-04-30T08:16:33Z</time>
      </trkpt>
      <trkpt lat="43.557159975171089" lon="-7.50154098495841">
        <ele>394.27999999999997</ele>
        <time>2025-04-30T08:16:34Z</time>
      </trkpt>
      <trkpt lat="43.557143965736032" lon="-7.501667970791459">
        <ele>395.24000000000001</ele>
        <time>2025-04-30T08:16:35Z</time>
      </trkpt>
      <trkpt lat="43.557143965736032" lon="-7.501817001029849">
        <ele>395.72000000000003</ele>
        <time>2025-04-30T08:16:36Z</time>
      </trkpt>
      <trkpt lat="43.557201968505979" lon="-7.501932000741363">
        <ele>396.68000000000001</ele>
        <time>2025-04-30T08:16:37Z</time>
      </trkpt>
      <trkpt lat="43.557276986539364" lon="-7.502024034038186">
        <ele>397.63999999999999</ele>
        <time>2025-04-30T08:16:38Z</time>
      </trkpt>
      <trkpt lat="43.557401038706303" lon="-7.502116989344358">
        <ele>399.07999999999998</ele>
        <time>2025-04-30T08:16:39Z</time>
      </trkpt>
      <trkpt lat="43.557502962648869" lon="-7.502125035971403">
        <ele>400.52999999999997</ele>
        <time>2025-04-30T08:16:40Z</time>
      </trkpt>
      <trkpt lat="43.557640006765723" lon="-7.502136016264558">
        <ele>401.49000000000001</ele>
        <time>2025-04-30T08:16:41Z</time>
      </trkpt>
      <trkpt lat="43.5582369659096" lon="-7.502279011532664">
        <ele>405.32999999999998</ele>
        <time>2025-04-30T08:16:45Z</time>
      </trkpt>
      <trkpt lat="43.558379039168358" lon="-7.502340031787753">
        <ele>405.81</ele>
        <time>2025-04-30T08:16:46Z</time>
      </trkpt>
      <trkpt lat="43.558488003909588" lon="-7.502471040934324">
        <ele>406.76999999999998</ele>
        <time>2025-04-30T08:16:47Z</time>
      </trkpt>
      <trkpt lat="43.558582970872521" lon="-7.50261303037405">
        <ele>407.25999999999999</ele>
        <time>2025-04-30T08:16:48Z</time>
      </trkpt>
      <trkpt lat="43.558654971420765" lon="-7.502793995663524">
        <ele>407.74000000000001</ele>
        <time>2025-04-30T08:16:49Z</time>
      </trkpt>
      <trkpt lat="43.558708028867841" lon="-7.502994993701577">
        <ele>408.69999999999999</ele>
        <time>2025-04-30T08:16:50Z</time>
      </trkpt>
      <trkpt lat="43.558859992772341" lon="-7.503607962280512">
        <ele>411.57999999999998</ele>
        <time>2025-04-30T08:16:53Z</time>
      </trkpt>
      <trkpt lat="43.558859992772341" lon="-7.503809966146946">
        <ele>413.01999999999998</ele>
        <time>2025-04-30T08:16:54Z</time>
      </trkpt>
      <trkpt lat="43.558850018307567" lon="-7.504021022468805">
        <ele>413.98000000000002</ele>
        <time>2025-04-30T08:16:55Z</time>
      </trkpt>
      <trkpt lat="43.558796038851142" lon="-7.504217997193337">
        <ele>414.94999999999999</ele>
        <time>2025-04-30T08:16:56Z</time>
      </trkpt>
      <trkpt lat="43.558694031089544" lon="-7.504387982189655">
        <ele>415.91000000000003</ele>
        <time>2025-04-30T08:16:57Z</time>
      </trkpt>
      <trkpt lat="43.558590011671185" lon="-7.504559978842735">
        <ele>416.87</ele>
        <time>2025-04-30T08:16:58Z</time>
      </trkpt>
      <trkpt lat="43.558479035273194" lon="-7.504743039608002">
        <ele>417.82999999999998</ele>
        <time>2025-04-30T08:16:59Z</time>
      </trkpt>
      <trkpt lat="43.558366969227791" lon="-7.504928028210998">
        <ele>418.79000000000002</ele>
        <time>2025-04-30T08:17:00Z</time>
      </trkpt>
      <trkpt lat="43.55827895924449" lon="-7.505140006542206">
        <ele>419.26999999999998</ele>
        <time>2025-04-30T08:17:01Z</time>
      </trkpt>
      <trkpt lat="43.55776397511363" lon="-7.506584962829948">
        <ele>425.04000000000002</ele>
        <time>2025-04-30T08:17:08Z</time>
      </trkpt>
      <trkpt lat="43.557685017585754" lon="-7.506784033030272">
        <ele>425.51999999999998</ele>
        <time>2025-04-30T08:17:09Z</time>
      </trkpt>
      <trkpt lat="43.55761100538075" lon="-7.506967009976506">
        <ele>426</ele>
        <time>2025-04-30T08:17:10Z</time>
      </trkpt>
      <trkpt lat="43.557522995397449" lon="-7.507073963060975">
        <ele>426.48000000000002</ele>
        <time>2025-04-30T08:17:11Z</time>
      </trkpt>
      <trkpt lat="43.557429034262896" lon="-7.507158033549786">
        <ele>426.95999999999998</ele>
        <time>2025-04-30T08:17:12Z</time>
      </trkpt>
      <trkpt lat="43.557329038158059" lon="-7.507202960550785">
        <ele>426.95999999999998</ele>
        <time>2025-04-30T08:17:13Z</time>
      </trkpt>
      <trkpt lat="43.557202974334359" lon="-7.507202960550785">
        <ele>427.44</ele>
        <time>2025-04-30T08:17:14Z</time>
      </trkpt>
      <trkpt lat="43.557071965187788" lon="-7.507186029106379">
        <ele>427.44</ele>
        <time>2025-04-30T08:17:15Z</time>
      </trkpt>
      <trkpt lat="43.55694598518312" lon="-7.507111011072993">
        <ele>427.92000000000002</ele>
        <time>2025-04-30T08:17:16Z</time>
      </trkpt>
      <trkpt lat="43.556818999350071" lon="-7.507034987211227">
        <ele>428.39999999999998</ele>
        <time>2025-04-30T08:17:17Z</time>
      </trkpt>
      <trkpt lat="43.556699976325035" lon="-7.506964998319745">
        <ele>428.88999999999999</ele>
        <time>2025-04-30T08:17:18Z</time>
      </trkpt>
      <trkpt lat="43.556594029068947" lon="-7.506901966407895">
        <ele>429.37</ele>
        <time>2025-04-30T08:17:19Z</time>
      </trkpt>
      <trkpt lat="43.556510964408517" lon="-7.506861984729767">
        <ele>429.85000000000002</ele>
        <time>2025-04-30T08:17:20Z</time>
      </trkpt>
      <trkpt lat="43.556426977738738" lon="-7.506886040791869">
        <ele>429.85000000000002</ele>
        <time>2025-04-30T08:17:21Z</time>
      </trkpt>
      <trkpt lat="43.556351959705353" lon="-7.506940020248294">
        <ele>430.32999999999998</ele>
        <time>2025-04-30T08:17:22Z</time>
      </trkpt>
      <trkpt lat="43.556303009390831" lon="-7.507046973332763">
        <ele>430.32999999999998</ele>
        <time>2025-04-30T08:17:23Z</time>
      </trkpt>
      <trkpt lat="43.556267973035574" lon="-7.507185023277998">
        <ele>430.81</ele>
        <time>2025-04-30T08:17:24Z</time>
      </trkpt>
      <trkpt lat="43.556227991357446" lon="-7.507346039637923">
        <ele>430.81</ele>
        <time>2025-04-30T08:17:25Z</time>
      </trkpt>
      <trkpt lat="43.556142998859286" lon="-7.50770696438849">
        <ele>431.29000000000002</ele>
        <time>2025-04-30T08:17:27Z</time>
      </trkpt>
      <trkpt lat="43.556118020787835" lon="-7.507895976305008">
        <ele>431.29000000000002</ele>
        <time>2025-04-30T08:17:28Z</time>
      </trkpt>
      <trkpt lat="43.556140987202525" lon="-7.508075013756752">
        <ele>431.76999999999998</ele>
        <time>2025-04-30T08:17:29Z</time>
      </trkpt>
      <trkpt lat="43.556179041042924" lon="-7.508256984874606">
        <ele>431.76999999999998</ele>
        <time>2025-04-30T08:17:30Z</time>
      </trkpt>
      <trkpt lat="43.556236959993839" lon="-7.508430993184447">
        <ele>432.25</ele>
        <time>2025-04-30T08:17:31Z</time>
      </trkpt>
      <trkpt lat="43.556297980248928" lon="-7.508614975959063">
        <ele>432.73000000000002</ele>
        <time>2025-04-30T08:17:32Z</time>
      </trkpt>
      <trkpt lat="43.556337039917707" lon="-7.508821003139019">
        <ele>432.25</ele>
        <time>2025-04-30T08:17:33Z</time>
      </trkpt>
      <trkpt lat="43.556337961927056" lon="-7.509048990905285">
        <ele>432.25</ele>
        <time>2025-04-30T08:17:34Z</time>
      </trkpt>
      <trkpt lat="43.556288005784154" lon="-7.509245965629816">
        <ele>432.25</ele>
        <time>2025-04-30T08:17:35Z</time>
      </trkpt>
      <trkpt lat="43.556134030222893" lon="-7.509840996935964">
        <ele>432.73000000000002</ele>
        <time>2025-04-30T08:17:38Z</time>
      </trkpt>
      <trkpt lat="43.556079966947436" lon="-7.510050963610411">
        <ele>432.73000000000002</ele>
        <time>2025-04-30T08:17:39Z</time>
      </trkpt>
      <trkpt lat="43.555880980566144" lon="-7.510665021836758">
        <ele>433.20999999999998</ele>
        <time>2025-04-30T08:17:42Z</time>
      </trkpt>
      <trkpt lat="43.555801017209888" lon="-7.510851016268134">
        <ele>433.69</ele>
        <time>2025-04-30T08:17:43Z</time>
      </trkpt>
      <trkpt lat="43.555698003619909" lon="-7.511007003486157">
        <ele>434.17000000000002</ele>
        <time>2025-04-30T08:17:44Z</time>
      </trkpt>
      <trkpt lat="43.555386029183865" lon="-7.511477982625365">
        <ele>435.13</ele>
        <time>2025-04-30T08:17:47Z</time>
      </trkpt>
      <trkpt lat="43.555318973958492" lon="-7.511646039783955">
        <ele>435.13</ele>
        <time>2025-04-30T08:17:48Z</time>
      </trkpt>
      <trkpt lat="43.555276980623603" lon="-7.511806972324848">
        <ele>435.61000000000001</ele>
        <time>2025-04-30T08:17:49Z</time>
      </trkpt>
      <trkpt lat="43.555277986451983" lon="-7.511974023655057">
        <ele>436.57999999999998</ele>
        <time>2025-04-30T08:17:50Z</time>
      </trkpt>
      <trkpt lat="43.55531201697886" lon="-7.512125987559557">
        <ele>437.54000000000002</ele>
        <time>2025-04-30T08:17:51Z</time>
      </trkpt>
      <trkpt lat="43.55539902113378" lon="-7.512238975614309">
        <ele>438.01999999999998</ele>
        <time>2025-04-30T08:17:52Z</time>
      </trkpt>
      <trkpt lat="43.555498011410236" lon="-7.512332014739513">
        <ele>438.5</ele>
        <time>2025-04-30T08:17:53Z</time>
      </trkpt>
      <trkpt lat="43.555615022778511" lon="-7.512349030002952">
        <ele>438.98000000000002</ele>
        <time>2025-04-30T08:17:54Z</time>
      </trkpt>
      <trkpt lat="43.555741002783179" lon="-7.512366967275739">
        <ele>439.45999999999998</ele>
        <time>2025-04-30T08:17:55Z</time>
      </trkpt>
      <trkpt lat="43.555880980566144" lon="-7.512387000024319">
        <ele>439.94</ele>
        <time>2025-04-30T08:17:56Z</time>
      </trkpt>
      <trkpt lat="43.556026993319392" lon="-7.512428993359208">
        <ele>440.42000000000002</ele>
        <time>2025-04-30T08:17:57Z</time>
      </trkpt>
      <trkpt lat="43.556310972198844" lon="-7.512542987242341">
        <ele>441.86000000000001</ele>
        <time>2025-04-30T08:17:59Z</time>
      </trkpt>
      <trkpt lat="43.556438963860273" lon="-7.512556985020638">
        <ele>442.81999999999999</ele>
        <time>2025-04-30T08:18:00Z</time>
      </trkpt>
      <trkpt lat="43.556566033512354" lon="-7.512538963928819">
        <ele>443.31</ele>
        <time>2025-04-30T08:18:01Z</time>
      </trkpt>
      <trkpt lat="43.55684095993638" lon="-7.512499988079071">
        <ele>444.26999999999998</ele>
        <time>2025-04-30T08:18:03Z</time>
      </trkpt>
      <trkpt lat="43.556995019316673" lon="-7.512491019442678">
        <ele>444.75</ele>
        <time>2025-04-30T08:18:04Z</time>
      </trkpt>
      <trkpt lat="43.557129967957735" lon="-7.512552039697766">
        <ele>445.23000000000002</ele>
        <time>2025-04-30T08:18:05Z</time>
      </trkpt>
      <trkpt lat="43.557255025953054" lon="-7.512646000832319">
        <ele>445.70999999999998</ele>
        <time>2025-04-30T08:18:06Z</time>
      </trkpt>
      <trkpt lat="43.557371031492949" lon="-7.512758988887072">
        <ele>446.19</ele>
        <time>2025-04-30T08:18:07Z</time>
      </trkpt>
      <trkpt lat="43.557475972920656" lon="-7.512887986376882">
        <ele>447.63</ele>
        <time>2025-04-30T08:18:08Z</time>
      </trkpt>
      <trkpt lat="43.558593029156327" lon="-7.514257002621889">
        <ele>457.72000000000003</ele>
        <time>2025-04-30T08:18:18Z</time>
      </trkpt>
      <trkpt lat="43.558718003332615" lon="-7.514379965141416">
        <ele>458.69</ele>
        <time>2025-04-30T08:18:19Z</time>
      </trkpt>
      <trkpt lat="43.558859992772341" lon="-7.514466969296336">
        <ele>459.64999999999998</ele>
        <time>2025-04-30T08:18:20Z</time>
      </trkpt>
      <trkpt lat="43.559010028839111" lon="-7.514537964016199">
        <ele>461.08999999999997</ele>
        <time>2025-04-30T08:18:21Z</time>
      </trkpt>
      <trkpt lat="43.560302015393972" lon="-7.51511799171567">
        <ele>470.22000000000003</ele>
        <time>2025-04-30T08:18:30Z</time>
      </trkpt>
      <trkpt lat="43.561730962246656" lon="-7.516249967738986">
        <ele>476.47000000000003</ele>
        <time>2025-04-30T08:18:40Z</time>
      </trkpt>
      <trkpt lat="43.563180025666952" lon="-7.517378004267812">
        <ele>478.87</ele>
        <time>2025-04-30T08:18:49Z</time>
      </trkpt>
      <trkpt lat="43.563366020098329" lon="-7.51752401702106">
        <ele>479.35000000000002</ele>
        <time>2025-04-30T08:18:51Z</time>
      </trkpt>
      <trkpt lat="43.563449000939727" lon="-7.51767598092556">
        <ele>479.35000000000002</ele>
        <time>2025-04-30T08:18:52Z</time>
      </trkpt>
      <trkpt lat="43.563495017588139" lon="-7.517759967595339">
        <ele>479.35000000000002</ele>
        <time>2025-04-30T08:18:53Z</time>
      </trkpt>
      <trkpt lat="43.563484959304333" lon="-7.517839008942246">
        <ele>479.35000000000002</ele>
        <time>2025-04-30T08:18:54Z</time>
      </trkpt>
      <trkpt lat="43.563467022031546" lon="-7.517950991168618">
        <ele>478.87</ele>
        <time>2025-04-30T08:18:55Z</time>
      </trkpt>
      <trkpt lat="43.563419999554753" lon="-7.518080994486809">
        <ele>478.87</ele>
        <time>2025-04-30T08:18:56Z</time>
      </trkpt>
      <trkpt lat="43.563366020098329" lon="-7.518230024725199">
        <ele>478.87</ele>
        <time>2025-04-30T08:18:57Z</time>
      </trkpt>
      <trkpt lat="43.563307011500001" lon="-7.518393974751234">
        <ele>478.38999999999999</ele>
        <time>2025-04-30T08:18:58Z</time>
      </trkpt>
      <trkpt lat="43.563273986801505" lon="-7.518587009981275">
        <ele>478.38999999999999</ele>
        <time>2025-04-30T08:18:59Z</time>
      </trkpt>
      <trkpt lat="43.563265018165112" lon="-7.518773004412651">
        <ele>477.91000000000003</ele>
        <time>2025-04-30T08:19:00Z</time>
      </trkpt>
      <trkpt lat="43.563295025378466" lon="-7.518956987187266">
        <ele>477.91000000000003</ele>
        <time>2025-04-30T08:19:01Z</time>
      </trkpt>
      <trkpt lat="43.563359985128045" lon="-7.519105011597276">
        <ele>477.91000000000003</ele>
        <time>2025-04-30T08:19:02Z</time>
      </trkpt>
      <trkpt lat="43.563441038131714" lon="-7.519258987158537">
        <ele>478.38999999999999</ele>
        <time>2025-04-30T08:19:03Z</time>
      </trkpt>
      <trkpt lat="43.563548997044563" lon="-7.519396031275392">
        <ele>478.87</ele>
        <time>2025-04-30T08:19:04Z</time>
      </trkpt>
      <trkpt lat="43.563665002584457" lon="-7.51954497769475">
        <ele>479.83999999999997</ele>
        <time>2025-04-30T08:19:05Z</time>
      </trkpt>
      <trkpt lat="43.563956022262573" lon="-7.519969018176198">
        <ele>481.75999999999999</ele>
        <time>2025-04-30T08:19:08Z</time>
      </trkpt>
      <trkpt lat="43.56399298645556" lon="-7.520096004009247">
        <ele>482.24000000000001</ele>
        <time>2025-04-30T08:19:09Z</time>
      </trkpt>
      <trkpt lat="43.564001033082604" lon="-7.520231958478689">
        <ele>482.24000000000001</ele>
        <time>2025-04-30T08:19:10Z</time>
      </trkpt>
      <trkpt lat="43.564010001718998" lon="-7.520377971231937">
        <ele>482.72000000000003</ele>
        <time>2025-04-30T08:19:11Z</time>
      </trkpt>
      <trkpt lat="43.563976977020502" lon="-7.520537981763482">
        <ele>482.72000000000003</ele>
        <time>2025-04-30T08:19:12Z</time>
      </trkpt>
      <trkpt lat="43.563940012827516" lon="-7.520718025043607">
        <ele>483.19999999999999</ele>
        <time>2025-04-30T08:19:13Z</time>
      </trkpt>
      <trkpt lat="43.563731973990798" lon="-7.521728966385126">
        <ele>482.24000000000001</ele>
        <time>2025-04-30T08:19:18Z</time>
      </trkpt>
      <trkpt lat="43.56371596455574" lon="-7.521917978301644">
        <ele>481.75999999999999</ele>
        <time>2025-04-30T08:19:19Z</time>
      </trkpt>
      <trkpt lat="43.563730968162417" lon="-7.522092992439866">
        <ele>481.27999999999997</ele>
        <time>2025-04-30T08:19:20Z</time>
      </trkpt>
      <trkpt lat="43.563812021166086" lon="-7.52223196439445">
        <ele>480.80000000000001</ele>
        <time>2025-04-30T08:19:21Z</time>
      </trkpt>
      <trkpt lat="43.563897013664246" lon="-7.522375965490937">
        <ele>480.31999999999999</ele>
        <time>2025-04-30T08:19:22Z</time>
      </trkpt>
      <trkpt lat="43.563988963142037" lon="-7.52248995937407">
        <ele>479.83999999999997</ele>
        <time>2025-04-30T08:19:23Z</time>
      </trkpt>
      <trkpt lat="43.564109997823834" lon="-7.522576041519642">
        <ele>478.87</ele>
        <time>2025-04-30T08:19:24Z</time>
      </trkpt>
      <trkpt lat="43.56422902084887" lon="-7.522662039846182">
        <ele>478.38999999999999</ele>
        <time>2025-04-30T08:19:25Z</time>
      </trkpt>
      <trkpt lat="43.564351983368397" lon="-7.522748960182071">
        <ele>477.91000000000003</ele>
        <time>2025-04-30T08:19:26Z</time>
      </trkpt>
      <trkpt lat="43.564608972519636" lon="-7.522933026775718">
        <ele>475.99000000000001</ele>
        <time>2025-04-30T08:19:28Z</time>
      </trkpt>
      <trkpt lat="43.564742999151349" lon="-7.52304601483047">
        <ele>475.50999999999999</ele>
        <time>2025-04-30T08:19:29Z</time>
      </trkpt>
      <trkpt lat="43.564864033833146" lon="-7.523180963471532">
        <ele>474.06999999999999</ele>
        <time>2025-04-30T08:19:30Z</time>
      </trkpt>
      <trkpt lat="43.564966963604093" lon="-7.523349020630121">
        <ele>473.11000000000001</ele>
        <time>2025-04-30T08:19:31Z</time>
      </trkpt>
      <trkpt lat="43.565061008557677" lon="-7.523520011454821">
        <ele>472.13999999999999</ele>
        <time>2025-04-30T08:19:32Z</time>
      </trkpt>
      <trkpt lat="43.565157987177372" lon="-7.523695025593042">
        <ele>470.69999999999999</ele>
        <time>2025-04-30T08:19:33Z</time>
      </trkpt>
      <trkpt lat="43.565340964123607" lon="-7.524026026949287">
        <ele>468.30000000000001</ele>
        <time>2025-04-30T08:19:35Z</time>
      </trkpt>
      <trkpt lat="43.565455041825771" lon="-7.524140020832419">
        <ele>467.81999999999999</ele>
        <time>2025-04-30T08:19:36Z</time>
      </trkpt>
      <trkpt lat="43.56558202765882" lon="-7.524241022765636">
        <ele>466.86000000000001</ele>
        <time>2025-04-30T08:19:37Z</time>
      </trkpt>
      <trkpt lat="43.565729968249798" lon="-7.524309000000358">
        <ele>465.89999999999998</ele>
        <time>2025-04-30T08:19:38Z</time>
      </trkpt>
      <trkpt lat="43.565890984609723" lon="-7.524350993335247">
        <ele>465.42000000000002</ele>
        <time>2025-04-30T08:19:39Z</time>
      </trkpt>
      <trkpt lat="43.566061975434422" lon="-7.524359961971641">
        <ele>464.44999999999999</ele>
        <time>2025-04-30T08:19:40Z</time>
      </trkpt>
      <trkpt lat="43.566237995401025" lon="-7.524364991113544">
        <ele>463.00999999999999</ele>
        <time>2025-04-30T08:19:41Z</time>
      </trkpt>
      <trkpt lat="43.566413009539247" lon="-7.524327021092176">
        <ele>462.05000000000001</ele>
        <time>2025-04-30T08:19:42Z</time>
      </trkpt>
      <trkpt lat="43.566907038912177" lon="-7.524218978360295">
        <ele>458.20999999999998</ele>
        <time>2025-04-30T08:19:45Z</time>
      </trkpt>
      <trkpt lat="43.567050034180284" lon="-7.524134991690517">
        <ele>456.75999999999999</ele>
        <time>2025-04-30T08:19:46Z</time>
      </trkpt>
      <trkpt lat="43.567176014184952" lon="-7.524052010849118">
        <ele>455.31999999999999</ele>
        <time>2025-04-30T08:19:47Z</time>
      </trkpt>
      <trkpt lat="43.567272992804646" lon="-7.523921001702547">
        <ele>453.88</ele>
        <time>2025-04-30T08:19:48Z</time>
      </trkpt>
      <trkpt lat="43.567371983081102" lon="-7.523784963414073">
        <ele>452.92000000000002</ele>
        <time>2025-04-30T08:19:49Z</time>
      </trkpt>
      <trkpt lat="43.56749402359128" lon="-7.523703994229436">
        <ele>451.48000000000002</ele>
        <time>2025-04-30T08:19:50Z</time>
      </trkpt>
      <trkpt lat="43.567618997767568" lon="-7.523645991459489">
        <ele>450.02999999999997</ele>
        <time>2025-04-30T08:19:51Z</time>
      </trkpt>
      <trkpt lat="43.567749001085758" lon="-7.523624030873179">
        <ele>448.58999999999997</ele>
        <time>2025-04-30T08:19:52Z</time>
      </trkpt>
      <trkpt lat="43.567879004403949" lon="-7.523636016994715">
        <ele>447.14999999999998</ele>
        <time>2025-04-30T08:19:53Z</time>
      </trkpt>
      <trkpt lat="43.567996015772223" lon="-7.52371396869421">
        <ele>445.70999999999998</ele>
        <time>2025-04-30T08:19:54Z</time>
      </trkpt>
      <trkpt lat="43.568109003826976" lon="-7.523818993940949">
        <ele>444.26999999999998</ele>
        <time>2025-04-30T08:19:55Z</time>
      </trkpt>
      <trkpt lat="43.568229032680392" lon="-7.523934999480844">
        <ele>443.31</ele>
        <time>2025-04-30T08:19:56Z</time>
      </trkpt>
      <trkpt lat="43.568343026563525" lon="-7.524074977263808">
        <ele>441.86000000000001</ele>
        <time>2025-04-30T08:19:57Z</time>
      </trkpt>
      <trkpt lat="43.568457020446658" lon="-7.524215960875154">
        <ele>441.38</ele>
        <time>2025-04-30T08:19:58Z</time>
      </trkpt>
      <trkpt lat="43.568642009049654" lon="-7.524545034393668">
        <ele>439.94</ele>
        <time>2025-04-30T08:20:00Z</time>
      </trkpt>
      <trkpt lat="43.568707974627614" lon="-7.524733040481806">
        <ele>439.45999999999998</ele>
        <time>2025-04-30T08:20:01Z</time>
      </trkpt>
      <trkpt lat="43.568844012916088" lon="-7.525105029344559">
        <ele>437.06</ele>
        <time>2025-04-30T08:20:03Z</time>
      </trkpt>
      <trkpt lat="43.568927999585867" lon="-7.525255987420678">
        <ele>435.61000000000001</ele>
        <time>2025-04-30T08:20:04Z</time>
      </trkpt>
      <trkpt lat="43.569055991247296" lon="-7.525394037365913">
        <ele>434.64999999999998</ele>
        <time>2025-04-30T08:20:05Z</time>
      </trkpt>
      <trkpt lat="43.570098029449582" lon="-7.526600025594235">
        <ele>426.48000000000002</ele>
        <time>2025-04-30T08:20:13Z</time>
      </trkpt>
      <trkpt lat="43.570586023852229" lon="-7.527422960847616">
        <ele>423.60000000000002</ele>
        <time>2025-04-30T08:20:18Z</time>
      </trkpt>
      <trkpt lat="43.570620976388454" lon="-7.527606021612883">
        <ele>423.12</ele>
        <time>2025-04-30T08:20:19Z</time>
      </trkpt>
      <trkpt lat="43.570627011358738" lon="-7.527810037136078">
        <ele>422.63999999999999</ele>
        <time>2025-04-30T08:20:20Z</time>
      </trkpt>
      <trkpt lat="43.570637991651893" lon="-7.528215972706676">
        <ele>421.19</ele>
        <time>2025-04-30T08:20:22Z</time>
      </trkpt>
      <trkpt lat="43.570678979158401" lon="-7.528402972966433">
        <ele>420.70999999999998</ele>
        <time>2025-04-30T08:20:23Z</time>
      </trkpt>
      <trkpt lat="43.570748968049884" lon="-7.528574969619513">
        <ele>420.23000000000002</ele>
        <time>2025-04-30T08:20:24Z</time>
      </trkpt>
      <trkpt lat="43.570836978033185" lon="-7.528741015121341">
        <ele>418.79000000000002</ele>
        <time>2025-04-30T08:20:25Z</time>
      </trkpt>
      <trkpt lat="43.570925993844867" lon="-7.52891200594604">
        <ele>417.82999999999998</ele>
        <time>2025-04-30T08:20:26Z</time>
      </trkpt>
      <trkpt lat="43.57101702131331" lon="-7.529086014255881">
        <ele>416.87</ele>
        <time>2025-04-30T08:20:27Z</time>
      </trkpt>
      <trkpt lat="43.571110982447863" lon="-7.529263962060213">
        <ele>415.91000000000003</ele>
        <time>2025-04-30T08:20:28Z</time>
      </trkpt>
      <trkpt lat="43.57121198438108" lon="-7.529435036703944">
        <ele>415.43000000000001</ele>
        <time>2025-04-30T08:20:29Z</time>
      </trkpt>
      <trkpt lat="43.571332013234496" lon="-7.529593035578728">
        <ele>414.47000000000003</ele>
        <time>2025-04-30T08:20:30Z</time>
      </trkpt>
      <trkpt lat="43.571568969637156" lon="-7.529859999194741">
        <ele>413.01999999999998</ele>
        <time>2025-04-30T08:20:32Z</time>
      </trkpt>
      <trkpt lat="43.571853032335639" lon="-7.530085975304246">
        <ele>412.06</ele>
        <time>2025-04-30T08:20:34Z</time>
      </trkpt>
      <trkpt lat="43.571998961269855" lon="-7.530164010822773">
        <ele>411.57999999999998</ele>
        <time>2025-04-30T08:20:35Z</time>
      </trkpt>
      <trkpt lat="43.572150003165007" lon="-7.530197035521269">
        <ele>411.10000000000002</ele>
        <time>2025-04-30T08:20:36Z</time>
      </trkpt>
      <trkpt lat="43.572302972897887" lon="-7.530213966965675">
        <ele>411.10000000000002</ele>
        <time>2025-04-30T08:20:37Z</time>
      </trkpt>
      <trkpt lat="43.572446973994374" lon="-7.530217990279198">
        <ele>410.62</ele>
        <time>2025-04-30T08:20:38Z</time>
      </trkpt>
      <trkpt lat="43.572602039203048" lon="-7.530167028307915">
        <ele>410.13999999999999</ele>
        <time>2025-04-30T08:20:39Z</time>
      </trkpt>
      <trkpt lat="43.573024990037084" lon="-7.529971981421113">
        <ele>409.18000000000001</ele>
        <time>2025-04-30T08:20:42Z</time>
      </trkpt>
      <trkpt lat="43.573303017765284" lon="-7.529789004474878">
        <ele>408.22000000000003</ele>
        <time>2025-04-30T08:20:44Z</time>
      </trkpt>
      <trkpt lat="43.573693027719855" lon="-7.529488010331988">
        <ele>406.76999999999998</ele>
        <time>2025-04-30T08:20:47Z</time>
      </trkpt>
      <trkpt lat="43.573805009946227" lon="-7.529437970370054">
        <ele>406.76999999999998</ele>
        <time>2025-04-30T08:20:48Z</time>
      </trkpt>
      <trkpt lat="43.573895031586289" lon="-7.529451968148351">
        <ele>405.81</ele>
        <time>2025-04-30T08:20:49Z</time>
      </trkpt>
      <trkpt lat="43.573987986892462" lon="-7.529476024210453">
        <ele>405.32999999999998</ele>
        <time>2025-04-30T08:20:50Z</time>
      </trkpt>
      <trkpt lat="43.574057975783944" lon="-7.529570991173387">
        <ele>404.85000000000002</ele>
        <time>2025-04-30T08:20:51Z</time>
      </trkpt>
      <trkpt lat="43.574142968282104" lon="-7.529686996713281">
        <ele>404.37</ele>
        <time>2025-04-30T08:20:52Z</time>
      </trkpt>
      <trkpt lat="43.574224021285772" lon="-7.529797973111272">
        <ele>404.37</ele>
        <time>2025-04-30T08:20:53Z</time>
      </trkpt>
      <trkpt lat="43.574287975206971" lon="-7.529953038319945">
        <ele>403.88999999999999</ele>
        <time>2025-04-30T08:20:54Z</time>
      </trkpt>
      <trkpt lat="43.574357964098454" lon="-7.530120005831122">
        <ele>403.88999999999999</ele>
        <time>2025-04-30T08:20:55Z</time>
      </trkpt>
      <trkpt lat="43.574527027085423" lon="-7.530658962205052">
        <ele>403.88999999999999</ele>
        <time>2025-04-30T08:20:58Z</time>
      </trkpt>
      <trkpt lat="43.574567008763552" lon="-7.530871024355292">
        <ele>404.37</ele>
        <time>2025-04-30T08:20:59Z</time>
      </trkpt>
      <trkpt lat="43.574556028470397" lon="-7.531058024615049">
        <ele>404.37</ele>
        <time>2025-04-30T08:21:00Z</time>
      </trkpt>
      <trkpt lat="43.574542030692101" lon="-7.531284000724554">
        <ele>404.37</ele>
        <time>2025-04-30T08:21:01Z</time>
      </trkpt>
      <trkpt lat="43.574526021257043" lon="-7.531525986269116">
        <ele>404.37</ele>
        <time>2025-04-30T08:21:02Z</time>
      </trkpt>
      <trkpt lat="43.574511017650366" lon="-7.531780041754246">
        <ele>404.37</ele>
        <time>2025-04-30T08:21:03Z</time>
      </trkpt>
      <trkpt lat="43.574433987960219" lon="-7.532757958397269">
        <ele>405.32999999999998</ele>
        <time>2025-04-30T08:21:07Z</time>
      </trkpt>
      <trkpt lat="43.574385037645698" lon="-7.532989969477058">
        <ele>405.32999999999998</ele>
        <time>2025-04-30T08:21:08Z</time>
      </trkpt>
      <trkpt lat="43.574171969667077" lon="-7.533869985491037">
        <ele>406.29000000000002</ele>
        <time>2025-04-30T08:21:12Z</time>
      </trkpt>
      <trkpt lat="43.574078008532524" lon="-7.534052040427923">
        <ele>406.29000000000002</ele>
        <time>2025-04-30T08:21:13Z</time>
      </trkpt>
      <trkpt lat="43.573983963578939" lon="-7.534236023202539">
        <ele>406.76999999999998</ele>
        <time>2025-04-30T08:21:14Z</time>
      </trkpt>
      <trkpt lat="43.573800986632705" lon="-7.534593008458614">
        <ele>406.76999999999998</ele>
        <time>2025-04-30T08:21:16Z</time>
      </trkpt>
      <trkpt lat="43.573738960549235" lon="-7.53477699123323">
        <ele>406.76999999999998</ele>
        <time>2025-04-30T08:21:17Z</time>
      </trkpt>
      <trkpt lat="43.573686992749572" lon="-7.534974971786141">
        <ele>407.25999999999999</ele>
        <time>2025-04-30T08:21:18Z</time>
      </trkpt>
      <trkpt lat="43.573625972494483" lon="-7.535410998389125">
        <ele>407.25999999999999</ele>
        <time>2025-04-30T08:21:20Z</time>
      </trkpt>
      <trkpt lat="43.573551960289478" lon="-7.536542974412441">
        <ele>408.22000000000003</ele>
        <time>2025-04-30T08:21:25Z</time>
      </trkpt>
      <trkpt lat="43.573562018573284" lon="-7.53677498549223">
        <ele>408.22000000000003</ele>
        <time>2025-04-30T08:21:26Z</time>
      </trkpt>
      <trkpt lat="43.573571993038058" lon="-7.537002973258495">
        <ele>408.22000000000003</ele>
        <time>2025-04-30T08:21:27Z</time>
      </trkpt>
      <trkpt lat="43.573581967502832" lon="-7.537233978509903">
        <ele>408.69999999999999</ele>
        <time>2025-04-30T08:21:28Z</time>
      </trkpt>
      <trkpt lat="43.573592025786638" lon="-7.537470012903214">
        <ele>408.69999999999999</ele>
        <time>2025-04-30T08:21:29Z</time>
      </trkpt>
      <trkpt lat="43.573602000251412" lon="-7.537693977355957">
        <ele>408.69999999999999</ele>
        <time>2025-04-30T08:21:30Z</time>
      </trkpt>
      <trkpt lat="43.573579033836722" lon="-7.537920959293842">
        <ele>409.18000000000001</ele>
        <time>2025-04-30T08:21:31Z</time>
      </trkpt>
      <trkpt lat="43.573508039116859" lon="-7.538611963391304">
        <ele>409.66000000000003</ele>
        <time>2025-04-30T08:21:34Z</time>
      </trkpt>
      <trkpt lat="43.573484988883138" lon="-7.538844980299473">
        <ele>410.13999999999999</ele>
        <time>2025-04-30T08:21:35Z</time>
      </trkpt>
      <trkpt lat="43.573473002761602" lon="-7.539071040228009">
        <ele>410.13999999999999</ele>
        <time>2025-04-30T08:21:36Z</time>
      </trkpt>
      <trkpt lat="43.573524970561266" lon="-7.539699012413621">
        <ele>410.62</ele>
        <time>2025-04-30T08:21:39Z</time>
      </trkpt>
      <trkpt lat="43.5735750105232" lon="-7.539896992966533">
        <ele>410.62</ele>
        <time>2025-04-30T08:21:40Z</time>
      </trkpt>
      <trkpt lat="43.573636030778289" lon="-7.540094973519445">
        <ele>410.62</ele>
        <time>2025-04-30T08:21:41Z</time>
      </trkpt>
      <trkpt lat="43.573695961385965" lon="-7.540293037891388">
        <ele>410.62</ele>
        <time>2025-04-30T08:21:42Z</time>
      </trkpt>
      <trkpt lat="43.573779026046395" lon="-7.540472997352481">
        <ele>411.10000000000002</ele>
        <time>2025-04-30T08:21:43Z</time>
      </trkpt>
      <trkpt lat="43.573864018544555" lon="-7.54064398817718">
        <ele>411.10000000000002</ele>
        <time>2025-04-30T08:21:44Z</time>
      </trkpt>
      <trkpt lat="43.573951022699475" lon="-7.540811961516738">
        <ele>410.62</ele>
        <time>2025-04-30T08:21:45Z</time>
      </trkpt>
      <trkpt lat="43.574065016582608" lon="-7.540951017290354">
        <ele>410.62</ele>
        <time>2025-04-30T08:21:46Z</time>
      </trkpt>
      <trkpt lat="43.574270959943533" lon="-7.541199959814549">
        <ele>411.10000000000002</ele>
        <time>2025-04-30T08:21:48Z</time>
      </trkpt>
      <trkpt lat="43.574353018775582" lon="-7.541299033910036">
        <ele>411.10000000000002</ele>
        <time>2025-04-30T08:21:49Z</time>
      </trkpt>
      <trkpt lat="43.574353018775582" lon="-7.541428031399846">
        <ele>411.57999999999998</ele>
        <time>2025-04-30T08:21:50Z</time>
      </trkpt>
      <trkpt lat="43.574350001290441" lon="-7.54154596477747">
        <ele>411.10000000000002</ele>
        <time>2025-04-30T08:21:51Z</time>
      </trkpt>
      <trkpt lat="43.574309013783932" lon="-7.541682003065944">
        <ele>411.10000000000002</ele>
        <time>2025-04-30T08:21:52Z</time>
      </trkpt>
      <trkpt lat="43.57426299713552" lon="-7.541840001940727">
        <ele>410.62</ele>
        <time>2025-04-30T08:21:53Z</time>
      </trkpt>
      <trkpt lat="43.574233995750546" lon="-7.542031025514007">
        <ele>410.62</ele>
        <time>2025-04-30T08:21:54Z</time>
      </trkpt>
      <trkpt lat="43.574213963001966" lon="-7.542240992188454">
        <ele>410.62</ele>
        <time>2025-04-30T08:21:55Z</time>
      </trkpt>
      <trkpt lat="43.574210023507476" lon="-7.542453976348043">
        <ele>410.13999999999999</ele>
        <time>2025-04-30T08:21:56Z</time>
      </trkpt>
      <trkpt lat="43.574229972437024" lon="-7.542669977992773">
        <ele>410.13999999999999</ele>
        <time>2025-04-30T08:21:57Z</time>
      </trkpt>
      <trkpt lat="43.574254028499126" lon="-7.542886985465884">
        <ele>410.13999999999999</ele>
        <time>2025-04-30T08:21:58Z</time>
      </trkpt>
      <trkpt lat="43.574294010177255" lon="-7.543097035959363">
        <ele>410.13999999999999</ele>
        <time>2025-04-30T08:21:59Z</time>
      </trkpt>
      <trkpt lat="43.574333991855383" lon="-7.543302979320288">
        <ele>410.13999999999999</ele>
        <time>2025-04-30T08:22:00Z</time>
      </trkpt>
      <trkpt lat="43.574400041252375" lon="-7.543500037863851">
        <ele>410.13999999999999</ele>
        <time>2025-04-30T08:22:01Z</time>
      </trkpt>
      <trkpt lat="43.574487967416644" lon="-7.543682008981705">
        <ele>410.13999999999999</ele>
        <time>2025-04-30T08:22:02Z</time>
      </trkpt>
      <trkpt lat="43.574576983228326" lon="-7.54386599175632">
        <ele>410.13999999999999</ele>
        <time>2025-04-30T08:22:03Z</time>
      </trkpt>
      <trkpt lat="43.575400002300739" lon="-7.545057982206345">
        <ele>410.62</ele>
        <time>2025-04-30T08:22:11Z</time>
      </trkpt>
      <trkpt lat="43.575472002848983" lon="-7.545203994959593">
        <ele>410.62</ele>
        <time>2025-04-30T08:22:12Z</time>
      </trkpt>
      <trkpt lat="43.575517013669014" lon="-7.545360988005996">
        <ele>410.62</ele>
        <time>2025-04-30T08:22:13Z</time>
      </trkpt>
      <trkpt lat="43.575523970648646" lon="-7.545504989102483">
        <ele>410.13999999999999</ele>
        <time>2025-04-30T08:22:14Z</time>
      </trkpt>
      <trkpt lat="43.575504021719098" lon="-7.545662987977266">
        <ele>409.66000000000003</ele>
        <time>2025-04-30T08:22:15Z</time>
      </trkpt>
      <trkpt lat="43.575458005070686" lon="-7.545839007943869">
        <ele>409.18000000000001</ele>
        <time>2025-04-30T08:22:16Z</time>
      </trkpt>
      <trkpt lat="43.575406037271023" lon="-7.546039000153542">
        <ele>408.69999999999999</ele>
        <time>2025-04-30T08:22:17Z</time>
      </trkpt>
      <trkpt lat="43.575349962338805" lon="-7.546255001798272">
        <ele>408.22000000000003</ele>
        <time>2025-04-30T08:22:18Z</time>
      </trkpt>
      <trkpt lat="43.575073024258018" lon="-7.547896010801196">
        <ele>404.37</ele>
        <time>2025-04-30T08:22:25Z</time>
      </trkpt>
      <trkpt lat="43.575032036751509" lon="-7.548554996028543">
        <ele>403.41000000000003</ele>
        <time>2025-04-30T08:22:28Z</time>
      </trkpt>
      <trkpt lat="43.57503698207438" lon="-7.549253962934017">
        <ele>403.88999999999999</ele>
        <time>2025-04-30T08:22:32Z</time>
      </trkpt>
      <trkpt lat="43.575072018429637" lon="-7.549561997875571">
        <ele>404.85000000000002</ele>
        <time>2025-04-30T08:22:34Z</time>
      </trkpt>
      <trkpt lat="43.575108982622623" lon="-7.5497090164572">
        <ele>405.32999999999998</ele>
        <time>2025-04-30T08:22:35Z</time>
      </trkpt>
      <trkpt lat="43.575162962079048" lon="-7.549842037260532">
        <ele>405.81</ele>
        <time>2025-04-30T08:22:36Z</time>
      </trkpt>
      <trkpt lat="43.575494969263673" lon="-7.550676958635449">
        <ele>410.13999999999999</ele>
        <time>2025-04-30T08:22:43Z</time>
      </trkpt>
      <trkpt lat="43.575558001175523" lon="-7.550786007195711">
        <ele>410.62</ele>
        <time>2025-04-30T08:22:44Z</time>
      </trkpt>
      <trkpt lat="43.57563897036016" lon="-7.550857001915574">
        <ele>411.10000000000002</ele>
        <time>2025-04-30T08:22:45Z</time>
      </trkpt>
      <trkpt lat="43.575726980343461" lon="-7.550934031605721">
        <ele>411.10000000000002</ele>
        <time>2025-04-30T08:22:46Z</time>
      </trkpt>
      <trkpt lat="43.575827982276678" lon="-7.550973007455468">
        <ele>411.10000000000002</ele>
        <time>2025-04-30T08:22:47Z</time>
      </trkpt>
      <trkpt lat="43.575938958674669" lon="-7.551016006618738">
        <ele>411.10000000000002</ele>
        <time>2025-04-30T08:22:48Z</time>
      </trkpt>
      <trkpt lat="43.576056975871325" lon="-7.55106202326715">
        <ele>410.62</ele>
        <time>2025-04-30T08:22:49Z</time>
      </trkpt>
      <trkpt lat="43.576193014159799" lon="-7.551102004945278">
        <ele>410.13999999999999</ele>
        <time>2025-04-30T08:22:50Z</time>
      </trkpt>
      <trkpt lat="43.5768629796803" lon="-7.551307026296854">
        <ele>408.69999999999999</ele>
        <time>2025-04-30T08:22:55Z</time>
      </trkpt>
      <trkpt lat="43.576984014362097" lon="-7.551391012966633">
        <ele>408.22000000000003</ele>
        <time>2025-04-30T08:22:56Z</time>
      </trkpt>
      <trkpt lat="43.577351979911327" lon="-7.55164397880435">
        <ele>406.76999999999998</ele>
        <time>2025-04-30T08:22:59Z</time>
      </trkpt>
      <trkpt lat="43.577482989057899" lon="-7.551714973524213">
        <ele>406.29000000000002</ele>
        <time>2025-04-30T08:23:00Z</time>
      </trkpt>
      <trkpt lat="43.577624978497624" lon="-7.551745986565948">
        <ele>405.32999999999998</ele>
        <time>2025-04-30T08:23:01Z</time>
      </trkpt>
      <trkpt lat="43.577770991250873" lon="-7.551700975745916">
        <ele>404.85000000000002</ele>
        <time>2025-04-30T08:23:02Z</time>
      </trkpt>
      <trkpt lat="43.577911974862218" lon="-7.551651019603014">
        <ele>404.37</ele>
        <time>2025-04-30T08:23:03Z</time>
      </trkpt>
      <trkpt lat="43.57804499566555" lon="-7.551583964377642">
        <ele>403.41000000000003</ele>
        <time>2025-04-30T08:23:04Z</time>
      </trkpt>
      <trkpt lat="43.578167036175728" lon="-7.551486985757947">
        <ele>402.44999999999999</ele>
        <time>2025-04-30T08:23:05Z</time>
      </trkpt>
      <trkpt lat="43.57825898565352" lon="-7.551367962732911">
        <ele>401.49000000000001</ele>
        <time>2025-04-30T08:23:06Z</time>
      </trkpt>
      <trkpt lat="43.578336015343666" lon="-7.551226979121566">
        <ele>400.52999999999997</ele>
        <time>2025-04-30T08:23:07Z</time>
      </trkpt>
      <trkpt lat="43.578378008678555" lon="-7.551059005782008">
        <ele>400.05000000000001</ele>
        <time>2025-04-30T08:23:08Z</time>
      </trkpt>
      <trkpt lat="43.578417990356684" lon="-7.550880974158645">
        <ele>399.07999999999998</ele>
        <time>2025-04-30T08:23:09Z</time>
      </trkpt>
      <trkpt lat="43.578456966206431" lon="-7.550704032182694">
        <ele>398.12</ele>
        <time>2025-04-30T08:23:10Z</time>
      </trkpt>
      <trkpt lat="43.578509017825127" lon="-7.550549972802401">
        <ele>397.63999999999999</ele>
        <time>2025-04-30T08:23:11Z</time>
      </trkpt>
      <trkpt lat="43.57858101837337" lon="-7.550418041646481">
        <ele>397.16000000000003</ele>
        <time>2025-04-30T08:23:12Z</time>
      </trkpt>
      <trkpt lat="43.5787090100348" lon="-7.550289966166019">
        <ele>396.68000000000001</ele>
        <time>2025-04-30T08:23:13Z</time>
      </trkpt>
      <trkpt lat="43.578799031674862" lon="-7.550229029729962">
        <ele>396.19999999999999</ele>
        <time>2025-04-30T08:23:14Z</time>
      </trkpt>
      <trkpt lat="43.578914031386375" lon="-7.550149988383055">
        <ele>395.72000000000003</ele>
        <time>2025-04-30T08:23:15Z</time>
      </trkpt>
      <trkpt lat="43.579028025269508" lon="-7.550073964521289">
        <ele>395.24000000000001</ele>
        <time>2025-04-30T08:23:16Z</time>
      </trkpt>
      <trkpt lat="43.579141013324261" lon="-7.549997018650174">
        <ele>394.75999999999999</ele>
        <time>2025-04-30T08:23:17Z</time>
      </trkpt>
      <trkpt lat="43.579249978065491" lon="-7.549923006445169">
        <ele>394.75999999999999</ele>
        <time>2025-04-30T08:23:18Z</time>
      </trkpt>
      <trkpt lat="43.57937403023243" lon="-7.549896016716957">
        <ele>394.27999999999997</ele>
        <time>2025-04-30T08:23:19Z</time>
      </trkpt>
      <trkpt lat="43.579508978873491" lon="-7.549925018101931">
        <ele>394.27999999999997</ele>
        <time>2025-04-30T08:23:20Z</time>
      </trkpt>
      <trkpt lat="43.579648034647107" lon="-7.549971034750342">
        <ele>393.80000000000001</ele>
        <time>2025-04-30T08:23:21Z</time>
      </trkpt>
      <trkpt lat="43.579780971631408" lon="-7.550055021420121">
        <ele>393.31999999999999</ele>
        <time>2025-04-30T08:23:22Z</time>
      </trkpt>
      <trkpt lat="43.579894965514541" lon="-7.55016197450459">
        <ele>393.31999999999999</ele>
        <time>2025-04-30T08:23:23Z</time>
      </trkpt>
      <trkpt lat="43.579980041831732" lon="-7.550274962559342">
        <ele>392.83999999999997</ele>
        <time>2025-04-30T08:23:24Z</time>
      </trkpt>
      <trkpt lat="43.580043995752931" lon="-7.550405971705914">
        <ele>392.36000000000001</ele>
        <time>2025-04-30T08:23:25Z</time>
      </trkpt>
      <trkpt lat="43.580056987702847" lon="-7.550550978630781">
        <ele>391.38999999999999</ele>
        <time>2025-04-30T08:23:26Z</time>
      </trkpt>
      <trkpt lat="43.580028992146254" lon="-7.550720041617751">
        <ele>390.91000000000003</ele>
        <time>2025-04-30T08:23:27Z</time>
      </trkpt>
      <trkpt lat="43.579988004639745" lon="-7.55089002661407">
        <ele>389.94999999999999</ele>
        <time>2025-04-30T08:23:28Z</time>
      </trkpt>
      <trkpt lat="43.579942993819714" lon="-7.551074009388685">
        <ele>389.47000000000003</ele>
        <time>2025-04-30T08:23:29Z</time>
      </trkpt>
      <trkpt lat="43.579902006313205" lon="-7.551243994385004">
        <ele>388.50999999999999</ele>
        <time>2025-04-30T08:23:30Z</time>
      </trkpt>
      <trkpt lat="43.579879961907864" lon="-7.551576001569629">
        <ele>387.55000000000001</ele>
        <time>2025-04-30T08:23:32Z</time>
      </trkpt>
      <trkpt lat="43.579866969957948" lon="-7.55218000151217">
        <ele>384.66000000000003</ele>
        <time>2025-04-30T08:23:35Z</time>
      </trkpt>
      <trkpt lat="43.579825982451439" lon="-7.552414024248719">
        <ele>383.69999999999999</ele>
        <time>2025-04-30T08:23:36Z</time>
      </trkpt>
      <trkpt lat="43.579735038802028" lon="-7.552624996751547">
        <ele>383.22000000000003</ele>
        <time>2025-04-30T08:23:37Z</time>
      </trkpt>
      <trkpt lat="43.579265987500548" lon="-7.553596962243319">
        <ele>382.25999999999999</ele>
        <time>2025-04-30T08:23:42Z</time>
      </trkpt>
      <trkpt lat="43.578876983374357" lon="-7.554761040955782">
        <ele>382.25999999999999</ele>
        <time>2025-04-30T08:23:48Z</time>
      </trkpt>
      <trkpt lat="43.57883901335299" lon="-7.554948041215539">
        <ele>382.74000000000001</ele>
        <time>2025-04-30T08:23:49Z</time>
      </trkpt>
      <trkpt lat="43.578808000311255" lon="-7.555151972919703">
        <ele>383.22000000000003</ele>
        <time>2025-04-30T08:23:50Z</time>
      </trkpt>
      <trkpt lat="43.57875200919807" lon="-7.555562015622854">
        <ele>384.66000000000003</ele>
        <time>2025-04-30T08:23:52Z</time>
      </trkpt>
      <trkpt lat="43.57875200919807" lon="-7.555748010054231">
        <ele>385.63</ele>
        <time>2025-04-30T08:23:53Z</time>
      </trkpt>
      <trkpt lat="43.57875200919807" lon="-7.555920006707311">
        <ele>386.11000000000001</ele>
        <time>2025-04-30T08:23:54Z</time>
      </trkpt>
      <trkpt lat="43.578799031674862" lon="-7.556083034723997">
        <ele>387.06999999999999</ele>
        <time>2025-04-30T08:23:55Z</time>
      </trkpt>
      <trkpt lat="43.57885804027319" lon="-7.556243967264891">
        <ele>388.02999999999997</ele>
        <time>2025-04-30T08:23:56Z</time>
      </trkpt>
      <trkpt lat="43.578931968659163" lon="-7.556411018595099">
        <ele>388.99000000000001</ele>
        <time>2025-04-30T08:23:57Z</time>
      </trkpt>
      <trkpt lat="43.579024001955986" lon="-7.55656398832798">
        <ele>389.94999999999999</ele>
        <time>2025-04-30T08:23:58Z</time>
      </trkpt>
      <trkpt lat="43.579863030463457" lon="-7.557950019836426">
        <ele>397.16000000000003</ele>
        <time>2025-04-30T08:24:06Z</time>
      </trkpt>
      <trkpt lat="43.580221021547914" lon="-7.558326032012701">
        <ele>398.12</ele>
        <time>2025-04-30T08:24:09Z</time>
      </trkpt>
      <trkpt lat="43.580371979624033" lon="-7.558393003419042">
        <ele>398.60000000000002</ele>
        <time>2025-04-30T08:24:10Z</time>
      </trkpt>
      <trkpt lat="43.581451987847686" lon="-7.558652004227042">
        <ele>401.97000000000003</ele>
        <time>2025-04-30T08:24:17Z</time>
      </trkpt>
      <trkpt lat="43.581565981730819" lon="-7.558707995340228">
        <ele>402.44999999999999</ele>
        <time>2025-04-30T08:24:18Z</time>
      </trkpt>
      <trkpt lat="43.5816740244627" lon="-7.558786030858755">
        <ele>402.93000000000001</ele>
        <time>2025-04-30T08:24:19Z</time>
      </trkpt>
      <trkpt lat="43.581771003082395" lon="-7.558893989771605">
        <ele>403.88999999999999</ele>
        <time>2025-04-30T08:24:20Z</time>
      </trkpt>
      <trkpt lat="43.581854989752173" lon="-7.559042014181614">
        <ele>404.85000000000002</ele>
        <time>2025-04-30T08:24:21Z</time>
      </trkpt>
      <trkpt lat="43.581918021664023" lon="-7.559220967814326">
        <ele>406.29000000000002</ele>
        <time>2025-04-30T08:24:22Z</time>
      </trkpt>
      <trkpt lat="43.581944005563855" lon="-7.559423977509141">
        <ele>406.76999999999998</ele>
        <time>2025-04-30T08:24:23Z</time>
      </trkpt>
      <trkpt lat="43.581969989463687" lon="-7.55963402800262">
        <ele>407.25999999999999</ele>
        <time>2025-04-30T08:24:24Z</time>
      </trkpt>
      <trkpt lat="43.581964960321784" lon="-7.559852041304112">
        <ele>407.74000000000001</ele>
        <time>2025-04-30T08:24:25Z</time>
      </trkpt>
      <trkpt lat="43.581961020827293" lon="-7.560053039342165">
        <ele>408.22000000000003</ele>
        <time>2025-04-30T08:24:26Z</time>
      </trkpt>
      <trkpt lat="43.581992033869028" lon="-7.560682017356157">
        <ele>409.66000000000003</ele>
        <time>2025-04-30T08:24:30Z</time>
      </trkpt>
      <trkpt lat="43.582048024982214" lon="-7.560802968218923">
        <ele>410.13999999999999</ele>
        <time>2025-04-30T08:24:31Z</time>
      </trkpt>
      <trkpt lat="43.582098986953497" lon="-7.560911010950804">
        <ele>410.62</ele>
        <time>2025-04-30T08:24:32Z</time>
      </trkpt>
      <trkpt lat="43.582182973623276" lon="-7.560982005670667">
        <ele>411.10000000000002</ele>
        <time>2025-04-30T08:24:33Z</time>
      </trkpt>
      <trkpt lat="43.582287998870015" lon="-7.561069009825587">
        <ele>411.57999999999998</ele>
        <time>2025-04-30T08:24:34Z</time>
      </trkpt>
      <trkpt lat="43.582390006631613" lon="-7.561137992888689">
        <ele>411.57999999999998</ele>
        <time>2025-04-30T08:24:35Z</time>
      </trkpt>
      <trkpt lat="43.58251104131341" lon="-7.561184009537101">
        <ele>411.57999999999998</ele>
        <time>2025-04-30T08:24:36Z</time>
      </trkpt>
      <trkpt lat="43.582637021318078" lon="-7.561231032013893">
        <ele>412.06</ele>
        <time>2025-04-30T08:24:37Z</time>
      </trkpt>
      <trkpt lat="43.582763001322746" lon="-7.561277970671654">
        <ele>412.06</ele>
        <time>2025-04-30T08:24:38Z</time>
      </trkpt>
      <trkpt lat="43.583234986290336" lon="-7.561476035043597">
        <ele>413.01999999999998</ele>
        <time>2025-04-30T08:24:42Z</time>
      </trkpt>
      <trkpt lat="43.58330899849534" lon="-7.561578964814544">
        <ele>413.01999999999998</ele>
        <time>2025-04-30T08:24:43Z</time>
      </trkpt>
      <trkpt lat="43.583386028185487" lon="-7.561687007546425">
        <ele>413.01999999999998</ele>
        <time>2025-04-30T08:24:44Z</time>
      </trkpt>
      <trkpt lat="43.583441013470292" lon="-7.561813993379474">
        <ele>413.01999999999998</ele>
        <time>2025-04-30T08:24:45Z</time>
      </trkpt>
      <trkpt lat="43.583466997370124" lon="-7.561969980597496">
        <ele>413.5</ele>
        <time>2025-04-30T08:24:46Z</time>
      </trkpt>
      <trkpt lat="43.583494992926717" lon="-7.562134014442563">
        <ele>413.98000000000002</ele>
        <time>2025-04-30T08:24:47Z</time>
      </trkpt>
      <trkpt lat="43.583754999563098" lon="-7.563718026503921">
        <ele>416.87</ele>
        <time>2025-04-30T08:24:56Z</time>
      </trkpt>
      <trkpt lat="43.58380202203989" lon="-7.563880970701575">
        <ele>417.82999999999998</ele>
        <time>2025-04-30T08:24:57Z</time>
      </trkpt>
      <trkpt lat="43.583878967911005" lon="-7.56401801481843">
        <ele>418.31</ele>
        <time>2025-04-30T08:24:58Z</time>
      </trkpt>
      <trkpt lat="43.583965972065926" lon="-7.564172996208072">
        <ele>418.79000000000002</ele>
        <time>2025-04-30T08:24:59Z</time>
      </trkpt>
      <trkpt lat="43.584065968170762" lon="-7.564295036718249">
        <ele>418.79000000000002</ele>
        <time>2025-04-30T08:25:00Z</time>
      </trkpt>
      <trkpt lat="43.584466958418489" lon="-7.564859976992011">
        <ele>419.75</ele>
        <time>2025-04-30T08:25:04Z</time>
      </trkpt>
      <trkpt lat="43.584711961448193" lon="-7.565279994159937">
        <ele>420.70999999999998</ele>
        <time>2025-04-30T08:25:07Z</time>
      </trkpt>
      <trkpt lat="43.584820004180074" lon="-7.565376972779632">
        <ele>421.19</ele>
        <time>2025-04-30T08:25:08Z</time>
      </trkpt>
      <trkpt lat="43.585820971056819" lon="-7.565982984378934">
        <ele>423.60000000000002</ele>
        <time>2025-04-30T08:25:15Z</time>
      </trkpt>
      <trkpt lat="43.587073981761932" lon="-7.56661799736321">
        <ele>423.12</ele>
        <time>2025-04-30T08:25:24Z</time>
      </trkpt>
      <trkpt lat="43.587344968691468" lon="-7.566708019003272">
        <ele>421.68000000000001</ele>
        <time>2025-04-30T08:25:26Z</time>
      </trkpt>
      <trkpt lat="43.58771201223135" lon="-7.566723022609949">
        <ele>418.79000000000002</ele>
        <time>2025-04-30T08:25:29Z</time>
      </trkpt>
      <trkpt lat="43.587834974750876" lon="-7.566711036488414">
        <ele>417.35000000000002</ele>
        <time>2025-04-30T08:25:30Z</time>
      </trkpt>
      <trkpt lat="43.587950980290771" lon="-7.566655967384577">
        <ele>415.91000000000003</ele>
        <time>2025-04-30T08:25:31Z</time>
      </trkpt>
      <trkpt lat="43.588059023022652" lon="-7.566565023735166">
        <ele>414.94999999999999</ele>
        <time>2025-04-30T08:25:32Z</time>
      </trkpt>
      <trkpt lat="43.588168993592262" lon="-7.566472990438342">
        <ele>413.98000000000002</ele>
        <time>2025-04-30T08:25:33Z</time>
      </trkpt>
      <trkpt lat="43.588281981647015" lon="-7.566378023475409">
        <ele>413.01999999999998</ele>
        <time>2025-04-30T08:25:34Z</time>
      </trkpt>
      <trkpt lat="43.588493037968874" lon="-7.566195968538523">
        <ele>411.10000000000002</ele>
        <time>2025-04-30T08:25:36Z</time>
      </trkpt>
      <trkpt lat="43.58859596773982" lon="-7.56610200740397">
        <ele>410.13999999999999</ele>
        <time>2025-04-30T08:25:37Z</time>
      </trkpt>
      <trkpt lat="43.589344974607229" lon="-7.565402034670115">
        <ele>402.93000000000001</ele>
        <time>2025-04-30T08:25:44Z</time>
      </trkpt>
      <trkpt lat="43.589730961248279" lon="-7.564752018079162">
        <ele>398.12</ele>
        <time>2025-04-30T08:25:49Z</time>
      </trkpt>
      <trkpt lat="43.589876974001527" lon="-7.564308028668165">
        <ele>395.24000000000001</ele>
        <time>2025-04-30T08:25:52Z</time>
      </trkpt>
      <trkpt lat="43.59003396704793" lon="-7.563617024570704">
        <ele>393.31999999999999</ele>
        <time>2025-04-30T08:25:56Z</time>
      </trkpt>
      <trkpt lat="43.590066991746426" lon="-7.563443016260862">
        <ele>392.83999999999997</ele>
        <time>2025-04-30T08:25:57Z</time>
      </trkpt>
      <trkpt lat="43.5901840031147" lon="-7.562963990494609">
        <ele>391.87</ele>
        <time>2025-04-30T08:26:00Z</time>
      </trkpt>
      <trkpt lat="43.590239994227886" lon="-7.56281303241849">
        <ele>391.87</ele>
        <time>2025-04-30T08:26:01Z</time>
      </trkpt>
      <trkpt lat="43.590326998382807" lon="-7.562739020213485">
        <ele>391.87</ele>
        <time>2025-04-30T08:26:02Z</time>
      </trkpt>
      <trkpt lat="43.59042095951736" lon="-7.562685962766409">
        <ele>392.36000000000001</ele>
        <time>2025-04-30T08:26:03Z</time>
      </trkpt>
      <trkpt lat="43.590523973107338" lon="-7.562668025493622">
        <ele>392.36000000000001</ele>
        <time>2025-04-30T08:26:04Z</time>
      </trkpt>
      <trkpt lat="43.590638972818851" lon="-7.562648998573422">
        <ele>392.36000000000001</ele>
        <time>2025-04-30T08:26:05Z</time>
      </trkpt>
      <trkpt lat="43.591724010184407" lon="-7.562392009422183">
        <ele>389.47000000000003</ele>
        <time>2025-04-30T08:26:13Z</time>
      </trkpt>
      <trkpt lat="43.592703016474843" lon="-7.561986995860934">
        <ele>384.18000000000001</ele>
        <time>2025-04-30T08:26:21Z</time>
      </trkpt>
      <trkpt lat="43.593738013878465" lon="-7.561652977019548">
        <ele>377.44999999999999</ele>
        <time>2025-04-30T08:26:29Z</time>
      </trkpt>
      <trkpt lat="43.593862988054752" lon="-7.561579970642924">
        <ele>376.00999999999999</ele>
        <time>2025-04-30T08:26:30Z</time>
      </trkpt>
      <trkpt lat="43.59398796223104" lon="-7.561485003679991">
        <ele>375.05000000000001</ele>
        <time>2025-04-30T08:26:31Z</time>
      </trkpt>
      <trkpt lat="43.59409399330616" lon="-7.561359023675323">
        <ele>373.61000000000001</ele>
        <time>2025-04-30T08:26:32Z</time>
      </trkpt>
      <trkpt lat="43.594201030209661" lon="-7.561232959851623">
        <ele>372.64999999999998</ele>
        <time>2025-04-30T08:26:33Z</time>
      </trkpt>
      <trkpt lat="43.594287028536201" lon="-7.561083007603884">
        <ele>372.17000000000002</ele>
        <time>2025-04-30T08:26:34Z</time>
      </trkpt>
      <trkpt lat="43.595332000404596" lon="-7.559179980307818">
        <ele>365.92000000000002</ele>
        <time>2025-04-30T08:26:47Z</time>
      </trkpt>
      <trkpt lat="43.595616985112429" lon="-7.558572962880135">
        <ele>362.55000000000001</ele>
        <time>2025-04-30T08:26:51Z</time>
      </trkpt>
      <trkpt lat="43.596014035865664" lon="-7.557366974651814">
        <ele>353.42000000000002</ele>
        <time>2025-04-30T08:26:58Z</time>
      </trkpt>
      <trkpt lat="43.596105985343456" lon="-7.55724904127419">
        <ele>352.45999999999998</ele>
        <time>2025-04-30T08:26:59Z</time>
      </trkpt>
      <trkpt lat="43.596211010590196" lon="-7.557191960513592">
        <ele>351.01999999999998</ele>
        <time>2025-04-30T08:27:00Z</time>
      </trkpt>
      <trkpt lat="43.596316035836935" lon="-7.557159019634128">
        <ele>349.57999999999998</ele>
        <time>2025-04-30T08:27:01Z</time>
      </trkpt>
      <trkpt lat="43.596442015841603" lon="-7.557168994098902">
        <ele>348.13</ele>
        <time>2025-04-30T08:27:02Z</time>
      </trkpt>
      <trkpt lat="43.596716020256281" lon="-7.557191960513592">
        <ele>344.76999999999998</ele>
        <time>2025-04-30T08:27:04Z</time>
      </trkpt>
      <trkpt lat="43.596851974725723" lon="-7.557228002697229">
        <ele>342.85000000000002</ele>
        <time>2025-04-30T08:27:05Z</time>
      </trkpt>
      <trkpt lat="43.596999999135733" lon="-7.557304026558995">
        <ele>341.41000000000003</ele>
        <time>2025-04-30T08:27:06Z</time>
      </trkpt>
      <trkpt lat="43.597601987421513" lon="-7.557619018480182">
        <ele>334.68000000000001</ele>
        <time>2025-04-30T08:27:10Z</time>
      </trkpt>
      <trkpt lat="43.597748000174761" lon="-7.557694958522916">
        <ele>333.23000000000002</ele>
        <time>2025-04-30T08:27:11Z</time>
      </trkpt>
      <trkpt lat="43.59832601621747" lon="-7.557913977652788">
        <ele>326.99000000000001</ele>
        <time>2025-04-30T08:27:15Z</time>
      </trkpt>
      <trkpt lat="43.5984349809587" lon="-7.558006010949612">
        <ele>325.06</ele>
        <time>2025-04-30T08:27:16Z</time>
      </trkpt>
      <trkpt lat="43.598544029518962" lon="-7.558124028146267">
        <ele>323.13999999999999</ele>
        <time>2025-04-30T08:27:17Z</time>
      </trkpt>
      <trkpt lat="43.598659029230475" lon="-7.558247996494174">
        <ele>321.22000000000003</ele>
        <time>2025-04-30T08:27:18Z</time>
      </trkpt>
      <trkpt lat="43.59877503477037" lon="-7.558373976498842">
        <ele>319.30000000000001</ele>
        <time>2025-04-30T08:27:19Z</time>
      </trkpt>
      <trkpt lat="43.598878970369697" lon="-7.558486964553595">
        <ele>316.88999999999999</ele>
        <time>2025-04-30T08:27:20Z</time>
      </trkpt>
      <trkpt lat="43.599015008658171" lon="-7.558584026992321">
        <ele>314.49000000000001</ele>
        <time>2025-04-30T08:27:21Z</time>
      </trkpt>
      <trkpt lat="43.599150041118264" lon="-7.558679999783635">
        <ele>312.08999999999997</ele>
        <time>2025-04-30T08:27:22Z</time>
      </trkpt>
      <trkpt lat="43.599267974495888" lon="-7.558713024482131">
        <ele>309.68000000000001</ele>
        <time>2025-04-30T08:27:23Z</time>
      </trkpt>
      <trkpt lat="43.599411975592375" lon="-7.558730961754918">
        <ele>307.27999999999997</ele>
        <time>2025-04-30T08:27:24Z</time>
      </trkpt>
      <trkpt lat="43.599548013880849" lon="-7.558748982846737">
        <ele>305.36000000000001</ele>
        <time>2025-04-30T08:27:25Z</time>
      </trkpt>
      <trkpt lat="43.599677011370659" lon="-7.558764992281795">
        <ele>303.43000000000001</ele>
        <time>2025-04-30T08:27:26Z</time>
      </trkpt>
      <trkpt lat="43.599800979718566" lon="-7.558781001716852">
        <ele>301.02999999999997</ele>
        <time>2025-04-30T08:27:27Z</time>
      </trkpt>
      <trkpt lat="43.599940035492182" lon="-7.558882003650069">
        <ele>298.63</ele>
        <time>2025-04-30T08:27:28Z</time>
      </trkpt>
      <trkpt lat="43.600055035203695" lon="-7.558997003361583">
        <ele>296.69999999999999</ele>
        <time>2025-04-30T08:27:29Z</time>
      </trkpt>
      <trkpt lat="43.601112999022007" lon="-7.560159992426634">
        <ele>277</ele>
        <time>2025-04-30T08:27:38Z</time>
      </trkpt>
      <trkpt lat="43.601929983124137" lon="-7.561217034235597">
        <ele>268.35000000000002</ele>
        <time>2025-04-30T08:27:47Z</time>
      </trkpt>
      <trkpt lat="43.602144978940487" lon="-7.561531020328403">
        <ele>268.35000000000002</ele>
        <time>2025-04-30T08:27:50Z</time>
      </trkpt>
      <trkpt lat="43.602416971698403" lon="-7.561965035274625">
        <ele>268.35000000000002</ele>
        <time>2025-04-30T08:27:54Z</time>
      </trkpt>
      <trkpt lat="43.602505987510085" lon="-7.562076011672616">
        <ele>267.86000000000001</ele>
        <time>2025-04-30T08:27:55Z</time>
      </trkpt>
      <trkpt lat="43.603466972708702" lon="-7.562877992168069">
        <ele>259.20999999999998</ele>
        <time>2025-04-30T08:28:03Z</time>
      </trkpt>
      <trkpt lat="43.60382404178381" lon="-7.563106985762715">
        <ele>256.32999999999998</ele>
        <time>2025-04-30T08:28:06Z</time>
      </trkpt>
      <trkpt lat="43.603921020403504" lon="-7.563120983541012">
        <ele>255.37</ele>
        <time>2025-04-30T08:28:07Z</time>
      </trkpt>
      <trkpt lat="43.60403903760016" lon="-7.563044959679246">
        <ele>253.93000000000001</ele>
        <time>2025-04-30T08:28:08Z</time>
      </trkpt>
      <trkpt lat="43.604140039533377" lon="-7.562978994101286">
        <ele>253.44</ele>
        <time>2025-04-30T08:28:09Z</time>
      </trkpt>
      <trkpt lat="43.604252021759748" lon="-7.562905987724662">
        <ele>252.96000000000001</ele>
        <time>2025-04-30T08:28:10Z</time>
      </trkpt>
      <trkpt lat="43.604370960965753" lon="-7.562828036025167">
        <ele>252</ele>
        <time>2025-04-30T08:28:11Z</time>
      </trkpt>
      <trkpt lat="43.604501970112324" lon="-7.562800040468574">
        <ele>251.52000000000001</ele>
        <time>2025-04-30T08:28:12Z</time>
      </trkpt>
      <trkpt lat="43.604637002572417" lon="-7.562800040468574">
        <ele>250.56</ele>
        <time>2025-04-30T08:28:13Z</time>
      </trkpt>
      <trkpt lat="43.604772035032511" lon="-7.562800040468574">
        <ele>250.08000000000001</ele>
        <time>2025-04-30T08:28:14Z</time>
      </trkpt>
      <trkpt lat="43.604904972016811" lon="-7.562800040468574">
        <ele>248.63999999999999</ele>
        <time>2025-04-30T08:28:15Z</time>
      </trkpt>
      <trkpt lat="43.605043021962047" lon="-7.562787970528007">
        <ele>247.68000000000001</ele>
        <time>2025-04-30T08:28:16Z</time>
      </trkpt>
      <trkpt lat="43.605337981134653" lon="-7.562757041305304">
        <ele>245.75</ele>
        <time>2025-04-30T08:28:18Z</time>
      </trkpt>
      <trkpt lat="43.605463039129972" lon="-7.562700966373086">
        <ele>245.27000000000001</ele>
        <time>2025-04-30T08:28:19Z</time>
      </trkpt>
      <trkpt lat="43.605980034917593" lon="-7.562442971393466">
        <ele>241.91</ele>
        <time>2025-04-30T08:28:23Z</time>
      </trkpt>
      <trkpt lat="43.60608397051692" lon="-7.562350016087294">
        <ele>240.94999999999999</ele>
        <time>2025-04-30T08:28:24Z</time>
      </trkpt>
      <trkpt lat="43.606186984106898" lon="-7.562259994447231">
        <ele>239.99000000000001</ele>
        <time>2025-04-30T08:28:25Z</time>
      </trkpt>
      <trkpt lat="43.606688976287842" lon="-7.561811981722713">
        <ele>235.18000000000001</ele>
        <time>2025-04-30T08:28:30Z</time>
      </trkpt>
      <trkpt lat="43.606817973777652" lon="-7.561811981722713">
        <ele>235.18000000000001</ele>
        <time>2025-04-30T08:28:31Z</time>
      </trkpt>
      <trkpt lat="43.606968009844422" lon="-7.561811981722713">
        <ele>234.22</ele>
        <time>2025-04-30T08:28:32Z</time>
      </trkpt>
      <trkpt lat="43.607060965150595" lon="-7.561840983107686">
        <ele>233.25999999999999</ele>
        <time>2025-04-30T08:28:33Z</time>
      </trkpt>
      <trkpt lat="43.607195997610688" lon="-7.561881970614195">
        <ele>232.30000000000001</ele>
        <time>2025-04-30T08:28:34Z</time>
      </trkpt>
      <trkpt lat="43.607333963736892" lon="-7.561923963949084">
        <ele>231.33000000000001</ele>
        <time>2025-04-30T08:28:35Z</time>
      </trkpt>
      <trkpt lat="43.607474025338888" lon="-7.561966963112354">
        <ele>230.84999999999999</ele>
        <time>2025-04-30T08:28:36Z</time>
      </trkpt>
      <trkpt lat="43.607740988954902" lon="-7.562049021944404">
        <ele>228.93000000000001</ele>
        <time>2025-04-30T08:28:38Z</time>
      </trkpt>
      <trkpt lat="43.607883984223008" lon="-7.562139965593815">
        <ele>227.97</ele>
        <time>2025-04-30T08:28:39Z</time>
      </trkpt>
      <trkpt lat="43.60799303278327" lon="-7.562225963920355">
        <ele>227.00999999999999</ele>
        <time>2025-04-30T08:28:40Z</time>
      </trkpt>
      <trkpt lat="43.608071990311146" lon="-7.562367031350732">
        <ele>226.05000000000001</ele>
        <time>2025-04-30T08:28:41Z</time>
      </trkpt>
      <trkpt lat="43.608169974759221" lon="-7.562541961669922">
        <ele>225.09</ele>
        <time>2025-04-30T08:28:42Z</time>
      </trkpt>
      <trkpt lat="43.608202999457717" lon="-7.562670959159732">
        <ele>223.63999999999999</ele>
        <time>2025-04-30T08:28:43Z</time>
      </trkpt>
      <trkpt lat="43.608247004449368" lon="-7.562844967469573">
        <ele>222.19999999999999</ele>
        <time>2025-04-30T08:28:44Z</time>
      </trkpt>
      <trkpt lat="43.608484966680408" lon="-7.563897985965014">
        <ele>215.94999999999999</ele>
        <time>2025-04-30T08:28:50Z</time>
      </trkpt>
      <trkpt lat="43.608500976115465" lon="-7.564089009538293">
        <ele>215.47</ele>
        <time>2025-04-30T08:28:51Z</time>
      </trkpt>
      <trkpt lat="43.608512040227652" lon="-7.564280033111572">
        <ele>214.50999999999999</ele>
        <time>2025-04-30T08:28:52Z</time>
      </trkpt>
      <trkpt lat="43.608502987772226" lon="-7.564481031149626">
        <ele>213.55000000000001</ele>
        <time>2025-04-30T08:28:53Z</time>
      </trkpt>
      <trkpt lat="43.608494019135833" lon="-7.56468596868217">
        <ele>212.59</ele>
        <time>2025-04-30T08:28:54Z</time>
      </trkpt>
      <trkpt lat="43.608428975567222" lon="-7.565464982762933">
        <ele>208.25999999999999</ele>
        <time>2025-04-30T08:28:58Z</time>
      </trkpt>
      <trkpt lat="43.608369966968894" lon="-7.565840994939208">
        <ele>205.86000000000001</ele>
        <time>2025-04-30T08:29:00Z</time>
      </trkpt>
      <trkpt lat="43.608344988897443" lon="-7.566052973270416">
        <ele>204.90000000000001</ele>
        <time>2025-04-30T08:29:01Z</time>
      </trkpt>
      <trkpt lat="43.608384970575571" lon="-7.566453963518143">
        <ele>202.49000000000001</ele>
        <time>2025-04-30T08:29:03Z</time>
      </trkpt>
      <trkpt lat="43.608406009152532" lon="-7.566657979041338">
        <ele>201.05000000000001</ele>
        <time>2025-04-30T08:29:04Z</time>
      </trkpt>
      <trkpt lat="43.60846702940762" lon="-7.567273965105414">
        <ele>197.21000000000001</ele>
        <time>2025-04-30T08:29:07Z</time>
      </trkpt>
      <trkpt lat="43.608438028022647" lon="-7.567474963143468">
        <ele>195.77000000000001</ele>
        <time>2025-04-30T08:29:08Z</time>
      </trkpt>
      <trkpt lat="43.608398968353868" lon="-7.567675961181521">
        <ele>194.31999999999999</ele>
        <time>2025-04-30T08:29:09Z</time>
      </trkpt>
      <trkpt lat="43.60835999250412" lon="-7.567877965047956">
        <ele>192.88</ele>
        <time>2025-04-30T08:29:10Z</time>
      </trkpt>
      <trkpt lat="43.608298972249031" lon="-7.568059014156461">
        <ele>190.96000000000001</ele>
        <time>2025-04-30T08:29:11Z</time>
      </trkpt>
      <trkpt lat="43.608212973922491" lon="-7.568238973617554">
        <ele>189.52000000000001</ele>
        <time>2025-04-30T08:29:12Z</time>
      </trkpt>
      <trkpt lat="43.608029996976256" lon="-7.56855295971036">
        <ele>185.66999999999999</ele>
        <time>2025-04-30T08:29:14Z</time>
      </trkpt>
      <trkpt lat="43.607919020578265" lon="-7.568644993007183">
        <ele>184.22999999999999</ele>
        <time>2025-04-30T08:29:15Z</time>
      </trkpt>
      <trkpt lat="43.60782103613019" lon="-7.56872202269733">
        <ele>182.31</ele>
        <time>2025-04-30T08:29:16Z</time>
      </trkpt>
      <trkpt lat="43.607701007276773" lon="-7.568734008818865">
        <ele>180.87</ele>
        <time>2025-04-30T08:29:17Z</time>
      </trkpt>
      <trkpt lat="43.607585001736879" lon="-7.568729985505343">
        <ele>179.41999999999999</ele>
        <time>2025-04-30T08:29:18Z</time>
      </trkpt>
      <trkpt lat="43.607466984540224" lon="-7.568670976907015">
        <ele>177.97999999999999</ele>
        <time>2025-04-30T08:29:19Z</time>
      </trkpt>
      <trkpt lat="43.607345027849078" lon="-7.568610040470958">
        <ele>176.06</ele>
        <time>2025-04-30T08:29:20Z</time>
      </trkpt>
      <trkpt lat="43.607222987338901" lon="-7.568549020215869">
        <ele>174.62</ele>
        <time>2025-04-30T08:29:21Z</time>
      </trkpt>
      <trkpt lat="43.607088038697839" lon="-7.568491017445922">
        <ele>173.16999999999999</ele>
        <time>2025-04-30T08:29:22Z</time>
      </trkpt>
      <trkpt lat="43.606987036764622" lon="-7.56855295971036">
        <ele>172.21000000000001</ele>
        <time>2025-04-30T08:29:23Z</time>
      </trkpt>
      <trkpt lat="43.606876982375979" lon="-7.568621020764113">
        <ele>170.77000000000001</ele>
        <time>2025-04-30T08:29:24Z</time>
      </trkpt>
      <trkpt lat="43.606817973777652" lon="-7.568656979128718">
        <ele>169.81</ele>
        <time>2025-04-30T08:29:25Z</time>
      </trkpt>
      <trkpt lat="43.606714038178325" lon="-7.568843979388475">
        <ele>168.37</ele>
        <time>2025-04-30T08:29:26Z</time>
      </trkpt>
      <trkpt lat="43.606682019308209" lon="-7.568977000191808">
        <ele>167.41</ele>
        <time>2025-04-30T08:29:27Z</time>
      </trkpt>
      <trkpt lat="43.606646982952952" lon="-7.569129969924688">
        <ele>166.44999999999999</ele>
        <time>2025-04-30T08:29:28Z</time>
      </trkpt>
      <trkpt lat="43.606652012094855" lon="-7.56930397823453">
        <ele>165.47999999999999</ele>
        <time>2025-04-30T08:29:29Z</time>
      </trkpt>
      <trkpt lat="43.606657963246107" lon="-7.569486033171415">
        <ele>164.52000000000001</ele>
        <time>2025-04-30T08:29:30Z</time>
      </trkpt>
      <trkpt lat="43.606665004044771" lon="-7.569671021774411">
        <ele>163.08000000000001</ele>
        <time>2025-04-30T08:29:31Z</time>
      </trkpt>
      <trkpt lat="43.606653017923236" lon="-7.569877970963717">
        <ele>162.12</ele>
        <time>2025-04-30T08:29:32Z</time>
      </trkpt>
      <trkpt lat="43.60661999322474" lon="-7.570086009800434">
        <ele>161.16</ele>
        <time>2025-04-30T08:29:33Z</time>
      </trkpt>
      <trkpt lat="43.606548998504877" lon="-7.570251971483231">
        <ele>160.19999999999999</ele>
        <time>2025-04-30T08:29:34Z</time>
      </trkpt>
      <trkpt lat="43.606475992128253" lon="-7.570422040298581">
        <ele>159.72</ele>
        <time>2025-04-30T08:29:35Z</time>
      </trkpt>
      <trkpt lat="43.606240041553974" lon="-7.570909028872848">
        <ele>157.31</ele>
        <time>2025-04-30T08:29:38Z</time>
      </trkpt>
      <trkpt lat="43.606140967458487" lon="-7.571041965857148">
        <ele>156.34999999999999</ele>
        <time>2025-04-30T08:29:39Z</time>
      </trkpt>
      <trkpt lat="43.606042983010411" lon="-7.571170041337609">
        <ele>155.38999999999999</ele>
        <time>2025-04-30T08:29:40Z</time>
      </trkpt>
      <trkpt lat="43.605704018846154" lon="-7.571445973590016">
        <ele>152.03</ele>
        <time>2025-04-30T08:29:43Z</time>
      </trkpt>
      <trkpt lat="43.605568986386061" lon="-7.571481009945273">
        <ele>151.06</ele>
        <time>2025-04-30T08:29:44Z</time>
      </trkpt>
      <trkpt lat="43.605440994724631" lon="-7.57151504047215">
        <ele>150.09999999999999</ele>
        <time>2025-04-30T08:29:45Z</time>
      </trkpt>
      <trkpt lat="43.605320965871215" lon="-7.571545969694853">
        <ele>149.13999999999999</ele>
        <time>2025-04-30T08:29:46Z</time>
      </trkpt>
      <trkpt lat="43.605203032493591" lon="-7.571575976908207">
        <ele>147.22</ele>
        <time>2025-04-30T08:29:47Z</time>
      </trkpt>
      <trkpt lat="43.605088032782078" lon="-7.571626016870141">
        <ele>145.78</ele>
        <time>2025-04-30T08:29:48Z</time>
      </trkpt>
      <trkpt lat="43.604987030848861" lon="-7.571731964126229">
        <ele>143.37</ele>
        <time>2025-04-30T08:29:49Z</time>
      </trkpt>
      <trkpt lat="43.604950988665223" lon="-7.571876971051097">
        <ele>141.93000000000001</ele>
        <time>2025-04-30T08:29:50Z</time>
      </trkpt>
      <trkpt lat="43.604907989501953" lon="-7.572047961875796">
        <ele>140.49000000000001</ele>
        <time>2025-04-30T08:29:51Z</time>
      </trkpt>
      <trkpt lat="43.604925004765391" lon="-7.572222976014018">
        <ele>139.53</ele>
        <time>2025-04-30T08:29:52Z</time>
      </trkpt>
      <trkpt lat="43.604950988665223" lon="-7.572497986257076">
        <ele>139.05000000000001</ele>
        <time>2025-04-30T08:29:53Z</time>
      </trkpt>
      <trkpt lat="43.605009997263551" lon="-7.572616003453732">
        <ele>138.56999999999999</ele>
        <time>2025-04-30T08:29:54Z</time>
      </trkpt>
      <trkpt lat="43.605081997811794" lon="-7.572758998721838">
        <ele>138.56999999999999</ele>
        <time>2025-04-30T08:29:55Z</time>
      </trkpt>
      <trkpt lat="43.605204960331321" lon="-7.572857988998294">
        <ele>138.09</ele>
        <time>2025-04-30T08:29:56Z</time>
      </trkpt>
      <trkpt lat="43.605332029983401" lon="-7.572872992604971">
        <ele>137.61000000000001</ele>
        <time>2025-04-30T08:29:57Z</time>
      </trkpt>
      <trkpt lat="43.60545901581645" lon="-7.572853965684772">
        <ele>137.61000000000001</ele>
        <time>2025-04-30T08:29:58Z</time>
      </trkpt>
      <trkpt lat="43.605592958629131" lon="-7.572835022583604">
        <ele>137.13</ele>
        <time>2025-04-30T08:29:59Z</time>
      </trkpt>
      <trkpt lat="43.605726985260844" lon="-7.572814989835024">
        <ele>136.63999999999999</ele>
        <time>2025-04-30T08:30:00Z</time>
      </trkpt>
      <trkpt lat="43.605981040745974" lon="-7.572777019813657">
        <ele>136.16</ele>
        <time>2025-04-30T08:30:02Z</time>
      </trkpt>
      <trkpt lat="43.606144990772009" lon="-7.572825970128179">
        <ele>136.16</ele>
        <time>2025-04-30T08:30:03Z</time>
      </trkpt>
      <trkpt lat="43.606256972998381" lon="-7.572895959019661">
        <ele>135.68000000000001</ele>
        <time>2025-04-30T08:30:04Z</time>
      </trkpt>
      <trkpt lat="43.606368033215404" lon="-7.572995033115149">
        <ele>135.68000000000001</ele>
        <time>2025-04-30T08:30:05Z</time>
      </trkpt>
      <trkpt lat="43.606455037370324" lon="-7.573125036433339">
        <ele>135.68000000000001</ele>
        <time>2025-04-30T08:30:06Z</time>
      </trkpt>
      <trkpt lat="43.606546986848116" lon="-7.573280017822981">
        <ele>136.16</ele>
        <time>2025-04-30T08:30:07Z</time>
      </trkpt>
      <trkpt lat="43.606632985174656" lon="-7.573426030576229">
        <ele>135.68000000000001</ele>
        <time>2025-04-30T08:30:08Z</time>
      </trkpt>
      <trkpt lat="43.606720995157957" lon="-7.573573971167207">
        <ele>135.19999999999999</ele>
        <time>2025-04-30T08:30:09Z</time>
      </trkpt>
      <trkpt lat="43.606837000697851" lon="-7.573675978928804">
        <ele>134.72</ele>
        <time>2025-04-30T08:30:10Z</time>
      </trkpt>
      <trkpt lat="43.606957029551268" lon="-7.573773041367531">
        <ele>134.24000000000001</ele>
        <time>2025-04-30T08:30:11Z</time>
      </trkpt>
      <trkpt lat="43.607088960707188" lon="-7.573877982795239">
        <ele>133.28</ele>
        <time>2025-04-30T08:30:12Z</time>
      </trkpt>
      <trkpt lat="43.607748029753566" lon="-7.574366983026266">
        <ele>128.94999999999999</ele>
        <time>2025-04-30T08:30:17Z</time>
      </trkpt>
      <trkpt lat="43.60788700170815" lon="-7.574423979967833">
        <ele>127.98999999999999</ele>
        <time>2025-04-30T08:30:18Z</time>
      </trkpt>
      <trkpt lat="43.608027985319495" lon="-7.574450969696045">
        <ele>127.03</ele>
        <time>2025-04-30T08:30:19Z</time>
      </trkpt>
      <trkpt lat="43.608320010825992" lon="-7.574506960809231">
        <ele>125.11</ele>
        <time>2025-04-30T08:30:21Z</time>
      </trkpt>
      <trkpt lat="43.608454959467053" lon="-7.574564963579178">
        <ele>123.67</ele>
        <time>2025-04-30T08:30:22Z</time>
      </trkpt>
      <trkpt lat="43.608587980270386" lon="-7.574637969955802">
        <ele>122.22</ele>
        <time>2025-04-30T08:30:23Z</time>
      </trkpt>
      <trkpt lat="43.608702979981899" lon="-7.574741989374161">
        <ele>121.26000000000001</ele>
        <time>2025-04-30T08:30:24Z</time>
      </trkpt>
      <trkpt lat="43.608820997178555" lon="-7.574852965772152">
        <ele>119.81999999999999</ele>
        <time>2025-04-30T08:30:25Z</time>
      </trkpt>
      <trkpt lat="43.608943037688732" lon="-7.574966959655285">
        <ele>118.86</ele>
        <time>2025-04-30T08:30:26Z</time>
      </trkpt>
      <trkpt lat="43.609041022136807" lon="-7.575110038742423">
        <ele>117.42</ele>
        <time>2025-04-30T08:30:27Z</time>
      </trkpt>
      <trkpt lat="43.609139006584883" lon="-7.575264014303684">
        <ele>115.98</ele>
        <time>2025-04-30T08:30:28Z</time>
      </trkpt>
      <trkpt lat="43.609304968267679" lon="-7.575561990961433">
        <ele>113.09</ele>
        <time>2025-04-30T08:30:30Z</time>
      </trkpt>
      <trkpt lat="43.60934603959322" lon="-7.575718984007835">
        <ele>112.13</ele>
        <time>2025-04-30T08:30:31Z</time>
      </trkpt>
      <trkpt lat="43.609371017664671" lon="-7.575885029509664">
        <ele>110.69</ele>
        <time>2025-04-30T08:30:32Z</time>
      </trkpt>
      <trkpt lat="43.609334975481033" lon="-7.57605099119246">
        <ele>109.73</ele>
        <time>2025-04-30T08:30:33Z</time>
      </trkpt>
      <trkpt lat="43.609295999631286" lon="-7.576217958703637">
        <ele>108.29000000000001</ele>
        <time>2025-04-30T08:30:34Z</time>
      </trkpt>
      <trkpt lat="43.609258029609919" lon="-7.576386015862227">
        <ele>107.31999999999999</ele>
        <time>2025-04-30T08:30:35Z</time>
      </trkpt>
      <trkpt lat="43.609200026839972" lon="-7.576908962801099">
        <ele>103.48</ele>
        <time>2025-04-30T08:30:38Z</time>
      </trkpt>
      <trkpt lat="43.609200026839972" lon="-7.577005019411445">
        <ele>102.04000000000001</ele>
        <time>2025-04-30T08:30:39Z</time>
      </trkpt>
      <trkpt lat="43.609264986589551" lon="-7.577215991914272">
        <ele>101.08</ele>
        <time>2025-04-30T08:30:40Z</time>
      </trkpt>
      <trkpt lat="43.609320977702737" lon="-7.57736099883914">
        <ele>99.629999999999995</ele>
        <time>2025-04-30T08:30:41Z</time>
      </trkpt>
      <trkpt lat="43.609393984079361" lon="-7.577517991885543">
        <ele>98.670000000000002</ele>
        <time>2025-04-30T08:30:42Z</time>
      </trkpt>
      <trkpt lat="43.609469002112746" lon="-7.577683031558991">
        <ele>97.709999999999994</ele>
        <time>2025-04-30T08:30:43Z</time>
      </trkpt>
      <trkpt lat="43.609546031802893" lon="-7.577851004898548">
        <ele>96.75</ele>
        <time>2025-04-30T08:30:44Z</time>
      </trkpt>
      <trkpt lat="43.609820958226919" lon="-7.57856598123908">
        <ele>91.939999999999998</ele>
        <time>2025-04-30T08:30:48Z</time>
      </trkpt>
      <trkpt lat="43.609999995678663" lon="-7.579281041398644">
        <ele>87.140000000000001</ele>
        <time>2025-04-30T08:30:52Z</time>
      </trkpt>
      <trkpt lat="43.61003695987165" lon="-7.579428981989622">
        <ele>86.180000000000007</ele>
        <time>2025-04-30T08:30:53Z</time>
      </trkpt>
      <trkpt lat="43.610178027302027" lon="-7.579654036089778">
        <ele>84.730000000000004</ele>
        <time>2025-04-30T08:30:55Z</time>
      </trkpt>
      <trkpt lat="43.610251033678651" lon="-7.579772975295782">
        <ele>84.25</ele>
        <time>2025-04-30T08:30:56Z</time>
      </trkpt>
      <trkpt lat="43.610579017549753" lon="-7.580233979970217">
        <ele>81.370000000000005</ele>
        <time>2025-04-30T08:31:00Z</time>
      </trkpt>
      <trkpt lat="43.610648000612855" lon="-7.580373035743833">
        <ele>80.409999999999997</ele>
        <time>2025-04-30T08:31:01Z</time>
      </trkpt>
      <trkpt lat="43.610700974240899" lon="-7.580527011305094">
        <ele>79.930000000000007</ele>
        <time>2025-04-30T08:31:02Z</time>
      </trkpt>
      <trkpt lat="43.610741039738059" lon="-7.580695990473032">
        <ele>79.930000000000007</ele>
        <time>2025-04-30T08:31:03Z</time>
      </trkpt>
      <trkpt lat="43.610781021416187" lon="-7.580869998782873">
        <ele>79.450000000000003</ele>
        <time>2025-04-30T08:31:04Z</time>
      </trkpt>
      <trkpt lat="43.610821003094316" lon="-7.581038977950811">
        <ele>78.969999999999999</ele>
        <time>2025-04-30T08:31:05Z</time>
      </trkpt>
      <trkpt lat="43.61083097755909" lon="-7.581213992089033">
        <ele>78.480000000000004</ele>
        <time>2025-04-30T08:31:06Z</time>
      </trkpt>
      <trkpt lat="43.61083097755909" lon="-7.581389006227255">
        <ele>78</ele>
        <time>2025-04-30T08:31:07Z</time>
      </trkpt>
      <trkpt lat="43.610818991437554" lon="-7.581559997051954">
        <ele>77.519999999999996</ele>
        <time>2025-04-30T08:31:08Z</time>
      </trkpt>
      <trkpt lat="43.610790995880961" lon="-7.581720007583499">
        <ele>76.560000000000002</ele>
        <time>2025-04-30T08:31:09Z</time>
      </trkpt>
      <trkpt lat="43.610764006152749" lon="-7.581875994801521">
        <ele>76.079999999999998</ele>
        <time>2025-04-30T08:31:10Z</time>
      </trkpt>
      <trkpt lat="43.61059301532805" lon="-7.582673029974103">
        <ele>70.310000000000002</ele>
        <time>2025-04-30T08:31:16Z</time>
      </trkpt>
      <trkpt lat="43.610542975366116" lon="-7.582772020250559">
        <ele>69.349999999999994</ele>
        <time>2025-04-30T08:31:17Z</time>
      </trkpt>
      <trkpt lat="43.610477009788156" lon="-7.582832034677267">
        <ele>68.390000000000001</ele>
        <time>2025-04-30T08:31:18Z</time>
      </trkpt>
      <trkpt lat="43.610393023118377" lon="-7.582884002476931">
        <ele>67.430000000000007</ele>
        <time>2025-04-30T08:31:19Z</time>
      </trkpt>
      <trkpt lat="43.610300989821553" lon="-7.582940999418497">
        <ele>66.469999999999999</ele>
        <time>2025-04-30T08:31:20Z</time>
      </trkpt>
      <trkpt lat="43.610209040343761" lon="-7.582999002188444">
        <ele>65.510000000000005</ele>
        <time>2025-04-30T08:31:21Z</time>
      </trkpt>
      <trkpt lat="43.609814001247287" lon="-7.583262026309967">
        <ele>62.619999999999997</ele>
        <time>2025-04-30T08:31:25Z</time>
      </trkpt>
      <trkpt lat="43.609707970172167" lon="-7.583336960524321">
        <ele>62.140000000000001</ele>
        <time>2025-04-30T08:31:26Z</time>
      </trkpt>
      <trkpt lat="43.609631024301052" lon="-7.583464030176401">
        <ele>61.18</ele>
        <time>2025-04-30T08:31:27Z</time>
      </trkpt>
      <trkpt lat="43.60960403457284" lon="-7.583581041544676">
        <ele>60.700000000000003</ele>
        <time>2025-04-30T08:31:28Z</time>
      </trkpt>
      <trkpt lat="43.609601017087698" lon="-7.583721019327641">
        <ele>59.740000000000002</ele>
        <time>2025-04-30T08:31:29Z</time>
      </trkpt>
      <trkpt lat="43.609631024301052" lon="-7.58384901098907">
        <ele>58.780000000000001</ele>
        <time>2025-04-30T08:31:30Z</time>
      </trkpt>
      <trkpt lat="43.60969003289938" lon="-7.584006004035473">
        <ele>58.299999999999997</ele>
        <time>2025-04-30T08:31:31Z</time>
      </trkpt>
      <trkpt lat="43.609766978770494" lon="-7.584146987646818">
        <ele>57.340000000000003</ele>
        <time>2025-04-30T08:31:32Z</time>
      </trkpt>
      <trkpt lat="43.610116001218557" lon="-7.584792980924249">
        <ele>53.490000000000002</ele>
        <time>2025-04-30T08:31:36Z</time>
      </trkpt>
      <trkpt lat="43.610247010365129" lon="-7.585172010585666">
        <ele>50.609999999999999</ele>
        <time>2025-04-30T08:31:38Z</time>
      </trkpt>
      <trkpt lat="43.610309036448598" lon="-7.585351970046759">
        <ele>49.159999999999997</ele>
        <time>2025-04-30T08:31:39Z</time>
      </trkpt>
      <trkpt lat="43.610491007566452" lon="-7.585879024118185">
        <ele>43.880000000000003</ele>
        <time>2025-04-30T08:31:42Z</time>
      </trkpt>
      <trkpt lat="43.610565019771457" lon="-7.586032999679446">
        <ele>42.439999999999998</ele>
        <time>2025-04-30T08:31:43Z</time>
      </trkpt>
      <trkpt lat="43.6107889842242" lon="-7.586436001583934">
        <ele>38.590000000000003</ele>
        <time>2025-04-30T08:31:46Z</time>
      </trkpt>
      <trkpt lat="43.611008003354073" lon="-7.586812013760209">
        <ele>36.189999999999998</ele>
        <time>2025-04-30T08:31:49Z</time>
      </trkpt>
      <trkpt lat="43.611065000295639" lon="-7.586946962401271">
        <ele>35.710000000000001</ele>
        <time>2025-04-30T08:31:50Z</time>
      </trkpt>
      <trkpt lat="43.61111001111567" lon="-7.587110996246338">
        <ele>34.740000000000002</ele>
        <time>2025-04-30T08:31:51Z</time>
      </trkpt>
      <trkpt lat="43.611116968095303" lon="-7.587246028706431">
        <ele>33.780000000000001</ele>
        <time>2025-04-30T08:31:52Z</time>
      </trkpt>
      <trkpt lat="43.611126020550728" lon="-7.587400004267693">
        <ele>33.299999999999997</ele>
        <time>2025-04-30T08:31:53Z</time>
      </trkpt>
      <trkpt lat="43.611130965873599" lon="-7.58756403811276">
        <ele>32.340000000000003</ele>
        <time>2025-04-30T08:31:54Z</time>
      </trkpt>
      <trkpt lat="43.611130965873599" lon="-7.587733017280698">
        <ele>31.379999999999999</ele>
        <time>2025-04-30T08:31:55Z</time>
      </trkpt>
      <trkpt lat="43.611148986965418" lon="-7.587905013933778">
        <ele>30.899999999999999</ele>
        <time>2025-04-30T08:31:56Z</time>
      </trkpt>
      <trkpt lat="43.611199026927352" lon="-7.588077010586858">
        <ele>29.940000000000001</ele>
        <time>2025-04-30T08:31:57Z</time>
      </trkpt>
      <trkpt lat="43.611273961141706" lon="-7.588226962834597">
        <ele>28.98</ele>
        <time>2025-04-30T08:31:58Z</time>
      </trkpt>
      <trkpt lat="43.611362976953387" lon="-7.588358977809548">
        <ele>28.5</ele>
        <time>2025-04-30T08:31:59Z</time>
      </trkpt>
      <trkpt lat="43.611450986936688" lon="-7.588491998612881">
        <ele>28.02</ele>
        <time>2025-04-30T08:32:00Z</time>
      </trkpt>
      <trkpt lat="43.611590964719653" lon="-7.588566010817885">
        <ele>27.050000000000001</ele>
        <time>2025-04-30T08:32:01Z</time>
      </trkpt>
      <trkpt lat="43.611721973866224" lon="-7.588610015809536">
        <ele>26.57</ele>
        <time>2025-04-30T08:32:02Z</time>
      </trkpt>
      <trkpt lat="43.612970961257815" lon="-7.588976975530386">
        <ele>17.920000000000002</ele>
        <time>2025-04-30T08:32:13Z</time>
      </trkpt>
      <trkpt lat="43.614724958315492" lon="-7.589440997689962">
        <ele>12.630000000000001</ele>
        <time>2025-04-30T08:32:28Z</time>
      </trkpt>
      <trkpt lat="43.616183996200562" lon="-7.589847017079592">
        <ele>16</ele>
        <time>2025-04-30T08:32:40Z</time>
      </trkpt>
      <trkpt lat="43.616678025573492" lon="-7.589976014569402">
        <ele>18.399999999999999</ele>
        <time>2025-04-30T08:32:45Z</time>
      </trkpt>
      <trkpt lat="43.617380009964108" lon="-7.590168965980411">
        <ele>20.32</ele>
        <time>2025-04-30T08:32:52Z</time>
      </trkpt>
      <trkpt lat="43.617486963048577" lon="-7.590196039527655">
        <ele>19.84</ele>
        <time>2025-04-30T08:32:53Z</time>
      </trkpt>
      <trkpt lat="43.61864903010428" lon="-7.590487981215119">
        <ele>18.879999999999999</ele>
        <time>2025-04-30T08:33:04Z</time>
      </trkpt>
      <trkpt lat="43.619889970868826" lon="-7.590806996449828">
        <ele>23.210000000000001</ele>
        <time>2025-04-30T08:33:16Z</time>
      </trkpt>
      <trkpt lat="43.62090703099966" lon="-7.59106800891459">
        <ele>23.690000000000001</ele>
        <time>2025-04-30T08:33:25Z</time>
      </trkpt>
      <trkpt lat="43.622308988124132" lon="-7.591422982513905">
        <ele>19.84</ele>
        <time>2025-04-30T08:33:34Z</time>
      </trkpt>
      <trkpt lat="43.623799039050937" lon="-7.591795977205038">
        <ele>17.920000000000002</ele>
        <time>2025-04-30T08:33:43Z</time>
      </trkpt>
      <trkpt lat="43.625688990578055" lon="-7.592259999364615">
        <ele>17.920000000000002</ele>
        <time>2025-04-30T08:33:55Z</time>
      </trkpt>
      <trkpt lat="43.627185998484492" lon="-7.592676999047399">
        <ele>18.879999999999999</ele>
        <time>2025-04-30T08:34:05Z</time>
      </trkpt>
      <trkpt lat="43.627305021509528" lon="-7.5927650090307">
        <ele>18.879999999999999</ele>
        <time>2025-04-30T08:34:06Z</time>
      </trkpt>
      <trkpt lat="43.627433013170958" lon="-7.592884032055736">
        <ele>18.879999999999999</ele>
        <time>2025-04-30T08:34:07Z</time>
      </trkpt>
      <trkpt lat="43.628369020298123" lon="-7.594125978648663">
        <ele>16.960000000000001</ele>
        <time>2025-04-30T08:34:15Z</time>
      </trkpt>
      <trkpt lat="43.629234032705426" lon="-7.595277987420559">
        <ele>17.440000000000001</ele>
        <time>2025-04-30T08:34:25Z</time>
      </trkpt>
      <trkpt lat="43.629960995167494" lon="-7.596238972619176">
        <ele>16.48</ele>
        <time>2025-04-30T08:34:33Z</time>
      </trkpt>
      <trkpt lat="43.631306039169431" lon="-7.597587034106255">
        <ele>14.56</ele>
        <time>2025-04-30T08:34:46Z</time>
      </trkpt>
      <trkpt lat="43.631577026098967" lon="-7.597934966906905">
        <ele>14.08</ele>
        <time>2025-04-30T08:34:49Z</time>
      </trkpt>
      <trkpt lat="43.631651038303971" lon="-7.59807201102376">
        <ele>14.08</ele>
        <time>2025-04-30T08:34:50Z</time>
      </trkpt>
      <trkpt lat="43.631722033023834" lon="-7.59822104126215">
        <ele>14.08</ele>
        <time>2025-04-30T08:34:51Z</time>
      </trkpt>
      <trkpt lat="43.631793027743697" lon="-7.598370993509889">
        <ele>14.08</ele>
        <time>2025-04-30T08:34:52Z</time>
      </trkpt>
      <trkpt lat="43.631844995543361" lon="-7.598526980727911">
        <ele>14.08</ele>
        <time>2025-04-30T08:34:53Z</time>
      </trkpt>
      <trkpt lat="43.631889000535011" lon="-7.598690008744597">
        <ele>13.6</ele>
        <time>2025-04-30T08:34:54Z</time>
      </trkpt>
      <trkpt lat="43.632166022434831" lon="-7.599559966474772">
        <ele>12.630000000000001</ele>
        <time>2025-04-30T08:35:01Z</time>
      </trkpt>
      <trkpt lat="43.632275993004441" lon="-7.599807986989617">
        <ele>12.15</ele>
        <time>2025-04-30T08:35:04Z</time>
      </trkpt>
      <trkpt lat="43.632362997159362" lon="-7.599969003349543">
        <ele>11.67</ele>
        <time>2025-04-30T08:35:06Z</time>
      </trkpt>
      <trkpt lat="43.632653011009097" lon="-7.60050100274384">
        <ele>11.19</ele>
        <time>2025-04-30T08:35:12Z</time>
      </trkpt>
      <trkpt lat="43.632710007950664" lon="-7.600580966100097">
        <ele>11.67</ele>
        <time>2025-04-30T08:35:13Z</time>
      </trkpt>
      <trkpt lat="43.632985018193722" lon="-7.600970976054668">
        <ele>14.56</ele>
        <time>2025-04-30T08:35:18Z</time>
      </trkpt>
      <trkpt lat="43.633006978780031" lon="-7.601004000753164">
        <ele>15.039999999999999</ele>
        <time>2025-04-30T08:35:19Z</time>
      </trkpt>
      <trkpt lat="43.633013013750315" lon="-7.601011041551828">
        <ele>15.52</ele>
        <time>2025-04-30T08:35:29Z</time>
      </trkpt>
      <trkpt lat="43.633029023185372" lon="-7.601035013794899">
        <ele>16.960000000000001</ele>
        <time>2025-04-30T08:35:30Z</time>
      </trkpt>
      <trkpt lat="43.633055007085204" lon="-7.60108295828104">
        <ele>17.440000000000001</ele>
        <time>2025-04-30T08:35:31Z</time>
      </trkpt>
      <trkpt lat="43.632997004315257" lon="-7.601111959666014">
        <ele>17.440000000000001</ele>
        <time>2025-04-30T08:35:32Z</time>
      </trkpt>
      <trkpt lat="43.632921986281872" lon="-7.601149007678032">
        <ele>17.920000000000002</ele>
        <time>2025-04-30T08:35:33Z</time>
      </trkpt>
      <trkpt lat="43.632844034582376" lon="-7.601198041811585">
        <ele>17.920000000000002</ele>
        <time>2025-04-30T08:35:34Z</time>
      </trkpt>
      <trkpt lat="43.632217990234494" lon="-7.60159601457417">
        <ele>17.440000000000001</ele>
        <time>2025-04-30T08:35:40Z</time>
      </trkpt>
      <trkpt lat="43.631497984752059" lon="-7.601921986788511">
        <ele>15.52</ele>
        <time>2025-04-30T08:35:46Z</time>
      </trkpt>
      <trkpt lat="43.631427995860577" lon="-7.601942019537091">
        <ele>14.56</ele>
        <time>2025-04-30T08:35:47Z</time>
      </trkpt>
      <trkpt lat="43.631367981433868" lon="-7.602081997320056">
        <ele>14.08</ele>
        <time>2025-04-30T08:35:48Z</time>
      </trkpt>
      <trkpt lat="43.63137099891901" lon="-7.60219800285995">
        <ele>13.6</ele>
        <time>2025-04-30T08:35:49Z</time>
      </trkpt>
      <trkpt lat="43.631374016404152" lon="-7.602332029491663">
        <ele>12.630000000000001</ele>
        <time>2025-04-30T08:35:50Z</time>
      </trkpt>
      <trkpt lat="43.631406035274267" lon="-7.603840017691255">
        <ele>8.789999999999999</ele>
        <time>2025-04-30T08:35:59Z</time>
      </trkpt>
      <trkpt lat="43.631389020010829" lon="-7.604030035436153">
        <ele>8.789999999999999</ele>
        <time>2025-04-30T08:36:00Z</time>
      </trkpt>
      <trkpt lat="43.631340991705656" lon="-7.604209994897246">
        <ele>8.310000000000001</ele>
        <time>2025-04-30T08:36:01Z</time>
      </trkpt>
      <trkpt lat="43.631162038072944" lon="-7.604749035090208">
        <ele>7.35</ele>
        <time>2025-04-30T08:36:04Z</time>
      </trkpt>
      <trkpt lat="43.63104603253305" lon="-7.605091016739607">
        <ele>6.87</ele>
        <time>2025-04-30T08:36:06Z</time>
      </trkpt>
      <trkpt lat="43.630991969257593" lon="-7.605251027271152">
        <ele>6.39</ele>
        <time>2025-04-30T08:36:07Z</time>
      </trkpt>
      <trkpt lat="43.630958022549748" lon="-7.605402991175652">
        <ele>5.91</ele>
        <time>2025-04-30T08:36:08Z</time>
      </trkpt>
      <trkpt lat="43.630958022549748" lon="-7.605556966736913">
        <ele>5.42</ele>
        <time>2025-04-30T08:36:09Z</time>
      </trkpt>
      <trkpt lat="43.630958022549748" lon="-7.605699962005019">
        <ele>5.42</ele>
        <time>2025-04-30T08:36:10Z</time>
      </trkpt>
      <trkpt lat="43.631016025319695" lon="-7.605815967544913">
        <ele>4.94</ele>
        <time>2025-04-30T08:36:11Z</time>
      </trkpt>
      <trkpt lat="43.631090959534049" lon="-7.605918981134892">
        <ele>5.42</ele>
        <time>2025-04-30T08:36:12Z</time>
      </trkpt>
      <trkpt lat="43.63117896951735" lon="-7.606001039966941">
        <ele>5.42</ele>
        <time>2025-04-30T08:36:13Z</time>
      </trkpt>
      <trkpt lat="43.63128399476409" lon="-7.606060970574617">
        <ele>5.42</ele>
        <time>2025-04-30T08:36:14Z</time>
      </trkpt>
      <trkpt lat="43.631389020010829" lon="-7.606122996658087">
        <ele>5.91</ele>
        <time>2025-04-30T08:36:15Z</time>
      </trkpt>
      <trkpt lat="43.631741981953382" lon="-7.606375040486455">
        <ele>6.87</ele>
        <time>2025-04-30T08:36:19Z</time>
      </trkpt>
      <trkpt lat="43.631795039400458" lon="-7.606464978307486">
        <ele>7.35</ele>
        <time>2025-04-30T08:36:20Z</time>
      </trkpt>
      <trkpt lat="43.631832003593445" lon="-7.606577966362238">
        <ele>8.310000000000001</ele>
        <time>2025-04-30T08:36:21Z</time>
      </trkpt>
      <trkpt lat="43.631924036890268" lon="-7.606851970776916">
        <ele>9.75</ele>
        <time>2025-04-30T08:36:23Z</time>
      </trkpt>
      <trkpt lat="43.63199301995337" lon="-7.606932017952204">
        <ele>10.23</ele>
        <time>2025-04-30T08:36:24Z</time>
      </trkpt>
      <trkpt lat="43.632082035765052" lon="-7.607035031542182">
        <ele>10.23</ele>
        <time>2025-04-30T08:36:25Z</time>
      </trkpt>
      <trkpt lat="43.632173985242844" lon="-7.60713997296989">
        <ele>10.23</ele>
        <time>2025-04-30T08:36:26Z</time>
      </trkpt>
      <trkpt lat="43.632265012711287" lon="-7.607239969074726">
        <ele>10.23</ele>
        <time>2025-04-30T08:36:27Z</time>
      </trkpt>
      <trkpt lat="43.632439021021128" lon="-7.607425963506103">
        <ele>10.23</ele>
        <time>2025-04-30T08:36:29Z</time>
      </trkpt>
      <trkpt lat="43.632516972720623" lon="-7.607509028166533">
        <ele>10.710000000000001</ele>
        <time>2025-04-30T08:36:30Z</time>
      </trkpt>
      <trkpt lat="43.632525019347668" lon="-7.60767599567771">
        <ele>10.710000000000001</ele>
        <time>2025-04-30T08:36:31Z</time>
      </trkpt>
      <trkpt lat="43.632525019347668" lon="-7.607824020087719">
        <ele>10.710000000000001</ele>
        <time>2025-04-30T08:36:32Z</time>
      </trkpt>
      <trkpt lat="43.632525019347668" lon="-7.607988975942135">
        <ele>11.19</ele>
        <time>2025-04-30T08:36:33Z</time>
      </trkpt>
      <trkpt lat="43.632456036284566" lon="-7.60810598731041">
        <ele>11.19</ele>
        <time>2025-04-30T08:36:34Z</time>
      </trkpt>
      <trkpt lat="43.632395016029477" lon="-7.608210006728768">
        <ele>11.19</ele>
        <time>2025-04-30T08:36:35Z</time>
      </trkpt>
      <trkpt lat="43.632343970239162" lon="-7.608297010883689">
        <ele>11.19</ele>
        <time>2025-04-30T08:36:36Z</time>
      </trkpt>
      <trkpt lat="43.632266018539667" lon="-7.608447968959808">
        <ele>10.710000000000001</ele>
        <time>2025-04-30T08:36:38Z</time>
      </trkpt>
      <trkpt lat="43.632233999669552" lon="-7.6085140183568">
        <ele>10.710000000000001</ele>
        <time>2025-04-30T08:36:39Z</time>
      </trkpt>
      <trkpt lat="43.632026966661215" lon="-7.609097985550761">
        <ele>8.310000000000001</ele>
        <time>2025-04-30T08:36:50Z</time>
      </trkpt>
      <trkpt lat="43.632011963054538" lon="-7.609153976663947">
        <ele>8.310000000000001</ele>
        <time>2025-04-30T08:36:51Z</time>
      </trkpt>
      <trkpt lat="43.631997965276241" lon="-7.609208039939404">
        <ele>8.310000000000001</ele>
        <time>2025-04-30T08:36:52Z</time>
      </trkpt>
      <trkpt lat="43.631983967497945" lon="-7.609259001910687">
        <ele>8.310000000000001</ele>
        <time>2025-04-30T08:36:53Z</time>
      </trkpt>
      <trkpt lat="43.631973993033171" lon="-7.609296971932054">
        <ele>7.83</ele>
        <time>2025-04-30T08:36:54Z</time>
      </trkpt>
      <trkpt lat="43.631968963891268" lon="-7.609315998852253">
        <ele>7.83</ele>
        <time>2025-04-30T08:36:55Z</time>
      </trkpt>
      <trkpt lat="43.631935017183423" lon="-7.609252966940403">
        <ele>7.83</ele>
        <time>2025-04-30T08:36:58Z</time>
      </trkpt>
      <trkpt lat="43.63201498053968" lon="-7.609141990542412">
        <ele>7.83</ele>
        <time>2025-04-30T08:37:02Z</time>
      </trkpt>
      <trkpt lat="43.632034007459879" lon="-7.609074013307691">
        <ele>7.83</ele>
        <time>2025-04-30T08:37:03Z</time>
      </trkpt>
      <trkpt lat="43.632056973874569" lon="-7.60898600332439">
        <ele>7.83</ele>
        <time>2025-04-30T08:37:04Z</time>
      </trkpt>
      <trkpt lat="43.632452012971044" lon="-7.608113028109074">
        <ele>9.75</ele>
        <time>2025-04-30T08:37:14Z</time>
      </trkpt>
      <trkpt lat="43.632506998255849" lon="-7.608018983155489">
        <ele>9.75</ele>
        <time>2025-04-30T08:37:16Z</time>
      </trkpt>
      <trkpt lat="43.63255200907588" lon="-7.608029963448644">
        <ele>9.75</ele>
        <time>2025-04-30T08:37:17Z</time>
      </trkpt>
      <trkpt lat="43.632570030167699" lon="-7.608057959005237">
        <ele>9.75</ele>
        <time>2025-04-30T08:37:18Z</time>
      </trkpt>
      <trkpt lat="43.632592996582389" lon="-7.608090983703733">
        <ele>9.75</ele>
        <time>2025-04-30T08:37:19Z</time>
      </trkpt>
      <trkpt lat="43.632615962997079" lon="-7.60812702588737">
        <ele>9.75</ele>
        <time>2025-04-30T08:37:20Z</time>
      </trkpt>
      <trkpt lat="43.632646976038814" lon="-7.60817295871675">
        <ele>10.23</ele>
        <time>2025-04-30T08:37:21Z</time>
      </trkpt>
      <trkpt lat="43.632677989080548" lon="-7.608219981193543">
        <ele>10.23</ele>
        <time>2025-04-30T08:37:22Z</time>
      </trkpt>
      <trkpt lat="43.632740015164018" lon="-7.608313020318747">
        <ele>9.75</ele>
        <time>2025-04-30T08:37:24Z</time>
      </trkpt>
      <trkpt lat="43.632848979905248" lon="-7.608474958688021">
        <ele>10.23</ele>
        <time>2025-04-30T08:37:27Z</time>
      </trkpt>
      <trkpt lat="43.632863983511925" lon="-7.60855601169169">
        <ele>10.710000000000001</ele>
        <time>2025-04-30T08:37:28Z</time>
      </trkpt>
      <trkpt lat="43.632900025695562" lon="-7.608747035264969">
        <ele>12.15</ele>
        <time>2025-04-30T08:37:30Z</time>
      </trkpt>
      <trkpt lat="43.632929027080536" lon="-7.608842002227902">
        <ele>13.119999999999999</ele>
        <time>2025-04-30T08:37:31Z</time>
      </trkpt>
      <trkpt lat="43.632970014587045" lon="-7.60892297141254">
        <ele>13.6</ele>
        <time>2025-04-30T08:37:32Z</time>
      </trkpt>
      <trkpt lat="43.633063975721598" lon="-7.609161017462611">
        <ele>16.48</ele>
        <time>2025-04-30T08:37:35Z</time>
      </trkpt>
      <trkpt lat="43.633069004863501" lon="-7.609250033274293">
        <ele>16.960000000000001</ele>
        <time>2025-04-30T08:37:36Z</time>
      </trkpt>
      <trkpt lat="43.633081996813416" lon="-7.60948003269732">
        <ele>18.879999999999999</ele>
        <time>2025-04-30T08:37:38Z</time>
      </trkpt>
      <trkpt lat="43.633089037612081" lon="-7.609608024358749">
        <ele>19.359999999999999</ele>
        <time>2025-04-30T08:37:39Z</time>
      </trkpt>
      <trkpt lat="43.633095994591713" lon="-7.609728975221515">
        <ele>19.84</ele>
        <time>2025-04-30T08:37:40Z</time>
      </trkpt>
      <trkpt lat="43.633104041218758" lon="-7.609878005459905">
        <ele>20.809999999999999</ele>
        <time>2025-04-30T08:37:41Z</time>
      </trkpt>
      <trkpt lat="43.633135976269841" lon="-7.609968027099967">
        <ele>21.77</ele>
        <time>2025-04-30T08:37:42Z</time>
      </trkpt>
      <trkpt lat="43.633210994303226" lon="-7.610176987946034">
        <ele>23.210000000000001</ele>
        <time>2025-04-30T08:37:44Z</time>
      </trkpt>
      <trkpt lat="43.633330017328262" lon="-7.610508995130658">
        <ele>24.649999999999999</ele>
        <time>2025-04-30T08:37:48Z</time>
      </trkpt>
      <trkpt lat="43.633387014269829" lon="-7.610762966796756">
        <ele>26.57</ele>
        <time>2025-04-30T08:37:54Z</time>
      </trkpt>
      <trkpt lat="43.633366981521249" lon="-7.610819041728973">
        <ele>27.050000000000001</ele>
        <time>2025-04-30T08:37:55Z</time>
      </trkpt>
      <trkpt lat="43.633101023733616" lon="-7.611561007797718">
        <ele>29.940000000000001</ele>
        <time>2025-04-30T08:38:04Z</time>
      </trkpt>
      <trkpt lat="43.633072022348642" lon="-7.611641976982355">
        <ele>30.420000000000002</ele>
        <time>2025-04-30T08:38:05Z</time>
      </trkpt>
      <trkpt lat="43.633043020963669" lon="-7.611723029986024">
        <ele>30.899999999999999</ele>
        <time>2025-04-30T08:38:06Z</time>
      </trkpt>
      <trkpt lat="43.632984012365341" lon="-7.61188899166882">
        <ele>31.379999999999999</ele>
        <time>2025-04-30T08:38:08Z</time>
      </trkpt>
      <trkpt lat="43.632952999323606" lon="-7.61197498999536">
        <ele>31.859999999999999</ele>
        <time>2025-04-30T08:38:09Z</time>
      </trkpt>
      <trkpt lat="43.632829030975699" lon="-7.612322000786662">
        <ele>33.299999999999997</ele>
        <time>2025-04-30T08:38:13Z</time>
      </trkpt>
      <trkpt lat="43.632800029590726" lon="-7.612401964142919">
        <ele>33.299999999999997</ele>
        <time>2025-04-30T08:38:14Z</time>
      </trkpt>
      <trkpt lat="43.632773961871862" lon="-7.612481005489826">
        <ele>33.780000000000001</ele>
        <time>2025-04-30T08:38:15Z</time>
      </trkpt>
      <trkpt lat="43.632749989628792" lon="-7.612561974674463">
        <ele>34.259999999999998</ele>
        <time>2025-04-30T08:38:16Z</time>
      </trkpt>
      <trkpt lat="43.632728029042482" lon="-7.61264001019299">
        <ele>34.740000000000002</ele>
        <time>2025-04-30T08:38:17Z</time>
      </trkpt>
      <trkpt lat="43.63266097381711" lon="-7.612872021272779">
        <ele>35.710000000000001</ele>
        <time>2025-04-30T08:38:20Z</time>
      </trkpt>
      <trkpt lat="43.632635995745659" lon="-7.612957013770938">
        <ele>35.710000000000001</ele>
        <time>2025-04-30T08:38:21Z</time>
      </trkpt>
      <trkpt lat="43.632612023502588" lon="-7.613042006269097">
        <ele>36.189999999999998</ele>
        <time>2025-04-30T08:38:22Z</time>
      </trkpt>
      <trkpt lat="43.632537005469203" lon="-7.613302012905479">
        <ele>37.149999999999999</ele>
        <time>2025-04-30T08:38:25Z</time>
      </trkpt>
      <trkpt lat="43.632511021569371" lon="-7.613389017060399">
        <ele>37.149999999999999</ele>
        <time>2025-04-30T08:38:26Z</time>
      </trkpt>
      <trkpt lat="43.632502974942327" lon="-7.613475015386939">
        <ele>37.630000000000003</ele>
        <time>2025-04-30T08:38:27Z</time>
      </trkpt>
      <trkpt lat="43.632502974942327" lon="-7.61356595903635">
        <ele>37.630000000000003</ele>
        <time>2025-04-30T08:38:28Z</time>
      </trkpt>
      <trkpt lat="43.632502974942327" lon="-7.613658998161554">
        <ele>38.109999999999999</ele>
        <time>2025-04-30T08:38:29Z</time>
      </trkpt>
      <trkpt lat="43.632535999640822" lon="-7.614367017522454">
        <ele>40.509999999999998</ele>
        <time>2025-04-30T08:38:37Z</time>
      </trkpt>
      <trkpt lat="43.6325319763273" lon="-7.614742023870349">
        <ele>40.990000000000002</ele>
        <time>2025-04-30T08:38:40Z</time>
      </trkpt>
      <trkpt lat="43.632525019347668" lon="-7.614882001653314">
        <ele>40.990000000000002</ele>
        <time>2025-04-30T08:38:41Z</time>
      </trkpt>
      <trkpt lat="43.632476991042495" lon="-7.615160029381514">
        <ele>40.990000000000002</ele>
        <time>2025-04-30T08:38:43Z</time>
      </trkpt>
      <trkpt lat="43.632330978289247" lon="-7.615950023755431">
        <ele>40.990000000000002</ele>
        <time>2025-04-30T08:38:49Z</time>
      </trkpt>
      <trkpt lat="43.632353022694588" lon="-7.616092013195157">
        <ele>40.990000000000002</ele>
        <time>2025-04-30T08:38:50Z</time>
      </trkpt>
      <trkpt lat="43.632369032129645" lon="-7.616197960451245">
        <ele>41.469999999999999</ele>
        <time>2025-04-30T08:38:51Z</time>
      </trkpt>
      <trkpt lat="43.632545974105597" lon="-7.616830039769411">
        <ele>42.439999999999998</ele>
        <time>2025-04-30T08:38:57Z</time>
      </trkpt>
      <trkpt lat="43.632612023502588" lon="-7.61685099452734">
        <ele>42.920000000000002</ele>
        <time>2025-04-30T08:38:58Z</time>
      </trkpt>
      <trkpt lat="43.632672037929296" lon="-7.616870021447539">
        <ele>43.880000000000003</ele>
        <time>2025-04-30T08:38:59Z</time>
      </trkpt>
      <trkpt lat="43.632973032072186" lon="-7.616975968703628">
        <ele>44.840000000000003</ele>
        <time>2025-04-30T08:39:04Z</time>
      </trkpt>
      <trkpt lat="43.633008990436792" lon="-7.617008993402124">
        <ele>44.840000000000003</ele>
        <time>2025-04-30T08:39:05Z</time>
      </trkpt>
      <trkpt lat="43.633040003478527" lon="-7.617037994787097">
        <ele>44.840000000000003</ele>
        <time>2025-04-30T08:39:06Z</time>
      </trkpt>
      <trkpt lat="43.633073028177023" lon="-7.617068002000451">
        <ele>44.840000000000003</ele>
        <time>2025-04-30T08:39:07Z</time>
      </trkpt>
      <trkpt lat="43.633116027340293" lon="-7.617106977850199">
        <ele>44.840000000000003</ele>
        <time>2025-04-30T08:39:08Z</time>
      </trkpt>
      <trkpt lat="43.63317403011024" lon="-7.617161041125655">
        <ele>44.840000000000003</ele>
        <time>2025-04-30T08:39:09Z</time>
      </trkpt>
      <trkpt lat="43.633210994303226" lon="-7.6171949878335">
        <ele>44.840000000000003</ele>
        <time>2025-04-30T08:39:10Z</time>
      </trkpt>
      <trkpt lat="43.633328005671501" lon="-7.6171949878335">
        <ele>45.799999999999997</ele>
        <time>2025-04-30T08:39:11Z</time>
      </trkpt>
      <trkpt lat="43.633417021483183" lon="-7.6171949878335">
        <ele>46.759999999999998</ele>
        <time>2025-04-30T08:39:12Z</time>
      </trkpt>
      <trkpt lat="43.633468989282846" lon="-7.6171949878335">
        <ele>47.719999999999999</ele>
        <time>2025-04-30T08:39:13Z</time>
      </trkpt>
      <trkpt lat="43.63356102257967" lon="-7.617102032527328">
        <ele>49.159999999999997</ele>
        <time>2025-04-30T08:39:14Z</time>
      </trkpt>
      <trkpt lat="43.633634028956294" lon="-7.617029026150703">
        <ele>50.130000000000003</ele>
        <time>2025-04-30T08:39:15Z</time>
      </trkpt>
      <trkpt lat="43.633706029504538" lon="-7.61695702560246">
        <ele>51.090000000000003</ele>
        <time>2025-04-30T08:39:16Z</time>
      </trkpt>
      <trkpt lat="43.633854975923896" lon="-7.616830039769411">
        <ele>53.969999999999999</ele>
        <time>2025-04-30T08:39:19Z</time>
      </trkpt>
      <trkpt lat="43.633961006999016" lon="-7.616940010339022">
        <ele>54.450000000000003</ele>
        <time>2025-04-30T08:39:20Z</time>
      </trkpt>
      <trkpt lat="43.634014986455441" lon="-7.616996001452208">
        <ele>54.93</ele>
        <time>2025-04-30T08:39:21Z</time>
      </trkpt>
      <trkpt lat="43.634085981175303" lon="-7.617069007828832">
        <ele>55.890000000000001</ele>
        <time>2025-04-30T08:39:22Z</time>
      </trkpt>
      <trkpt lat="43.63416301086545" lon="-7.617147965356708">
        <ele>56.369999999999997</ele>
        <time>2025-04-30T08:39:23Z</time>
      </trkpt>
      <trkpt lat="43.634523013606668" lon="-7.617519032210112">
        <ele>60.700000000000003</ele>
        <time>2025-04-30T08:39:28Z</time>
      </trkpt>
      <trkpt lat="43.635290041565895" lon="-7.618126971647143">
        <ele>67.430000000000007</ele>
        <time>2025-04-30T08:39:37Z</time>
      </trkpt>
      <trkpt lat="43.635381991043687" lon="-7.618177011609078">
        <ele>68.870000000000005</ele>
        <time>2025-04-30T08:39:38Z</time>
      </trkpt>
      <trkpt lat="43.635477963835001" lon="-7.618228979408741">
        <ele>69.829999999999998</ele>
        <time>2025-04-30T08:39:39Z</time>
      </trkpt>
      <trkpt lat="43.635574020445347" lon="-7.61827097274363">
        <ele>70.790000000000006</ele>
        <time>2025-04-30T08:39:40Z</time>
      </trkpt>
      <trkpt lat="43.63568801432848" lon="-7.61828999966383">
        <ele>72.239999999999995</ele>
        <time>2025-04-30T08:39:41Z</time>
      </trkpt>
      <trkpt lat="43.635810976848006" lon="-7.61831003241241">
        <ele>73.680000000000007</ele>
        <time>2025-04-30T08:39:42Z</time>
      </trkpt>
      <trkpt lat="43.635941985994577" lon="-7.618330987170339">
        <ele>75.120000000000005</ele>
        <time>2025-04-30T08:39:43Z</time>
      </trkpt>
      <trkpt lat="43.636550009250641" lon="-7.618363006040454">
        <ele>80.409999999999997</ele>
        <time>2025-04-30T08:39:49Z</time>
      </trkpt>
      <trkpt lat="43.637328017503023" lon="-7.618158990517259">
        <ele>77.040000000000006</ele>
        <time>2025-04-30T08:39:55Z</time>
      </trkpt>
      <trkpt lat="43.638670966029167" lon="-7.618282036855817">
        <ele>69.829999999999998</ele>
        <time>2025-04-30T08:40:03Z</time>
      </trkpt>
      <trkpt lat="43.638953017070889" lon="-7.618345990777016">
        <ele>67.909999999999997</ele>
        <time>2025-04-30T08:40:05Z</time>
      </trkpt>
      <trkpt lat="43.639053013175726" lon="-7.618447998538613">
        <ele>67.430000000000007</ele>
        <time>2025-04-30T08:40:06Z</time>
      </trkpt>
      <trkpt lat="43.639149991795421" lon="-7.618582025170326">
        <ele>66.950000000000003</ele>
        <time>2025-04-30T08:40:07Z</time>
      </trkpt>
      <trkpt lat="43.640164034441113" lon="-7.619610987603664">
        <ele>61.18</ele>
        <time>2025-04-30T08:40:15Z</time>
      </trkpt>
      <trkpt lat="43.640293031930923" lon="-7.619701009243727">
        <ele>60.700000000000003</ele>
        <time>2025-04-30T08:40:16Z</time>
      </trkpt>
      <trkpt lat="43.640414988622069" lon="-7.619787007570267">
        <ele>60.219999999999999</ele>
        <time>2025-04-30T08:40:17Z</time>
      </trkpt>
      <trkpt lat="43.64056502468884" lon="-7.619781978428364">
        <ele>60.219999999999999</ele>
        <time>2025-04-30T08:40:18Z</time>
      </trkpt>
      <trkpt lat="43.640701984986663" lon="-7.61977300979197">
        <ele>60.700000000000003</ele>
        <time>2025-04-30T08:40:19Z</time>
      </trkpt>
      <trkpt lat="43.640843974426389" lon="-7.619764041155577">
        <ele>61.18</ele>
        <time>2025-04-30T08:40:20Z</time>
      </trkpt>
      <trkpt lat="43.641697000712156" lon="-7.619851967319846">
        <ele>63.100000000000001</ele>
        <time>2025-04-30T08:40:26Z</time>
      </trkpt>
      <trkpt lat="43.641820969060063" lon="-7.619819026440382">
        <ele>62.619999999999997</ele>
        <time>2025-04-30T08:40:27Z</time>
      </trkpt>
      <trkpt lat="43.641935968771577" lon="-7.619789019227028">
        <ele>61.659999999999997</ele>
        <time>2025-04-30T08:40:28Z</time>
      </trkpt>
      <trkpt lat="43.6420280020684" lon="-7.619740990921855">
        <ele>60.700000000000003</ele>
        <time>2025-04-30T08:40:29Z</time>
      </trkpt>
      <trkpt lat="43.642101008445024" lon="-7.619632026180625">
        <ele>59.740000000000002</ele>
        <time>2025-04-30T08:40:30Z</time>
      </trkpt>
      <trkpt lat="43.642174014821649" lon="-7.619521971791983">
        <ele>58.780000000000001</ele>
        <time>2025-04-30T08:40:31Z</time>
      </trkpt>
      <trkpt lat="43.642248027026653" lon="-7.619410995393992">
        <ele>57.340000000000003</ele>
        <time>2025-04-30T08:40:32Z</time>
      </trkpt>
      <trkpt lat="43.642404014244676" lon="-7.619207985699177">
        <ele>54.93</ele>
        <time>2025-04-30T08:40:34Z</time>
      </trkpt>
      <trkpt lat="43.642495963722467" lon="-7.619125004857779">
        <ele>53.969999999999999</ele>
        <time>2025-04-30T08:40:35Z</time>
      </trkpt>
      <trkpt lat="43.642587997019291" lon="-7.619041018188">
        <ele>53.009999999999998</ele>
        <time>2025-04-30T08:40:36Z</time>
      </trkpt>
      <trkpt lat="43.643349995836616" lon="-7.618339033797383">
        <ele>44.359999999999999</ele>
        <time>2025-04-30T08:40:43Z</time>
      </trkpt>
      <trkpt lat="43.643476981669664" lon="-7.618282958865166">
        <ele>43.399999999999999</ele>
        <time>2025-04-30T08:40:44Z</time>
      </trkpt>
      <trkpt lat="43.643602039664984" lon="-7.618271978572011">
        <ele>41.950000000000003</ele>
        <time>2025-04-30T08:40:45Z</time>
      </trkpt>
      <trkpt lat="43.643727013841271" lon="-7.618279019370675">
        <ele>40.509999999999998</ele>
        <time>2025-04-30T08:40:46Z</time>
      </trkpt>
      <trkpt lat="43.64385399967432" lon="-7.618285976350308">
        <ele>39.07</ele>
        <time>2025-04-30T08:40:47Z</time>
      </trkpt>
      <trkpt lat="43.644738961011171" lon="-7.618386978283525">
        <ele>28.98</ele>
        <time>2025-04-30T08:40:55Z</time>
      </trkpt>
      <trkpt lat="43.644839962944388" lon="-7.618378009647131">
        <ele>28.5</ele>
        <time>2025-04-30T08:40:56Z</time>
      </trkpt>
      <trkpt lat="43.64494800567627" lon="-7.618369041010737">
        <ele>28.5</ele>
        <time>2025-04-30T08:40:57Z</time>
      </trkpt>
      <trkpt lat="43.645381014794111" lon="-7.618331992998719">
        <ele>28.5</ele>
        <time>2025-04-30T08:41:01Z</time>
      </trkpt>
      <trkpt lat="43.645634986460209" lon="-7.61835303157568">
        <ele>29.460000000000001</ele>
        <time>2025-04-30T08:41:04Z</time>
      </trkpt>
      <trkpt lat="43.645676979795098" lon="-7.618404999375343">
        <ele>29.460000000000001</ele>
        <time>2025-04-30T08:41:05Z</time>
      </trkpt>
      <trkpt lat="43.645727019757032" lon="-7.618467025458813">
        <ele>29.940000000000001</ele>
        <time>2025-04-30T08:41:06Z</time>
      </trkpt>
      <trkpt lat="43.645934974774718" lon="-7.618729965761304">
        <ele>32.340000000000003</ele>
        <time>2025-04-30T08:41:10Z</time>
      </trkpt>
      <trkpt lat="43.645978979766369" lon="-7.618802972137928">
        <ele>32.82</ele>
        <time>2025-04-30T08:41:11Z</time>
      </trkpt>
      <trkpt lat="43.646022984758019" lon="-7.618874972686172">
        <ele>33.299999999999997</ele>
        <time>2025-04-30T08:41:12Z</time>
      </trkpt>
      <trkpt lat="43.646064978092909" lon="-7.618944039568305">
        <ele>34.259999999999998</ele>
        <time>2025-04-30T08:41:13Z</time>
      </trkpt>
      <trkpt lat="43.64610998891294" lon="-7.619016962125897">
        <ele>35.229999999999997</ele>
        <time>2025-04-30T08:41:14Z</time>
      </trkpt>
      <trkpt lat="43.646149970591068" lon="-7.619083011522889">
        <ele>35.710000000000001</ele>
        <time>2025-04-30T08:41:15Z</time>
      </trkpt>
      <trkpt lat="43.646176038309932" lon="-7.619180995970964">
        <ele>36.189999999999998</ele>
        <time>2025-04-30T08:41:16Z</time>
      </trkpt>
      <trkpt lat="43.646197998896241" lon="-7.619261965155602">
        <ele>36.670000000000002</ele>
        <time>2025-04-30T08:41:17Z</time>
      </trkpt>
      <trkpt lat="43.646220965310931" lon="-7.619348969310522">
        <ele>37.149999999999999</ele>
        <time>2025-04-30T08:41:18Z</time>
      </trkpt>
      <trkpt lat="43.646246027201414" lon="-7.619441002607346">
        <ele>37.630000000000003</ele>
        <time>2025-04-30T08:41:19Z</time>
      </trkpt>
      <trkpt lat="43.646271005272865" lon="-7.619535969570279">
        <ele>38.590000000000003</ele>
        <time>2025-04-30T08:41:20Z</time>
      </trkpt>
      <trkpt lat="43.646294977515936" lon="-7.619626997038722">
        <ele>39.549999999999997</ele>
        <time>2025-04-30T08:41:21Z</time>
      </trkpt>
      <trkpt lat="43.646389022469521" lon="-7.619810979813337">
        <ele>41.469999999999999</ele>
        <time>2025-04-30T08:41:24Z</time>
      </trkpt>
      <trkpt lat="43.646423975005746" lon="-7.619841992855072">
        <ele>41.950000000000003</ele>
        <time>2025-04-30T08:41:25Z</time>
      </trkpt>
      <trkpt lat="43.646476026624441" lon="-7.619834030047059">
        <ele>42.439999999999998</ele>
        <time>2025-04-30T08:41:26Z</time>
      </trkpt>
      <trkpt lat="43.646524976938963" lon="-7.61979203671217">
        <ele>42.920000000000002</ele>
        <time>2025-04-30T08:41:27Z</time>
      </trkpt>
      <trkpt lat="43.646583985537291" lon="-7.619740990921855">
        <ele>43.880000000000003</ele>
        <time>2025-04-30T08:41:28Z</time>
      </trkpt>
      <trkpt lat="43.646649029105902" lon="-7.619714001193643">
        <ele>44.359999999999999</ele>
        <time>2025-04-30T08:41:29Z</time>
      </trkpt>
      <trkpt lat="43.646723041310906" lon="-7.619694974273443">
        <ele>45.32</ele>
        <time>2025-04-30T08:41:30Z</time>
      </trkpt>
      <trkpt lat="43.647148003801703" lon="-7.619585003703833">
        <ele>49.649999999999999</ele>
        <time>2025-04-30T08:41:36Z</time>
      </trkpt>
      <trkpt lat="43.647188991308212" lon="-7.619496993720532">
        <ele>50.609999999999999</ele>
        <time>2025-04-30T08:41:37Z</time>
      </trkpt>
      <trkpt lat="43.647197037935257" lon="-7.619423987343907">
        <ele>51.090000000000003</ele>
        <time>2025-04-30T08:41:38Z</time>
      </trkpt>
      <trkpt lat="43.647206006571651" lon="-7.61934301815927">
        <ele>52.049999999999997</ele>
        <time>2025-04-30T08:41:39Z</time>
      </trkpt>
      <trkpt lat="43.647214975208044" lon="-7.619261965155602">
        <ele>53.009999999999998</ele>
        <time>2025-04-30T08:41:40Z</time>
      </trkpt>
      <trkpt lat="43.647258980199695" lon="-7.619174961000681">
        <ele>53.490000000000002</ele>
        <time>2025-04-30T08:41:41Z</time>
      </trkpt>
      <trkpt lat="43.647308014333248" lon="-7.619154006242752">
        <ele>54.450000000000003</ele>
        <time>2025-04-30T08:41:42Z</time>
      </trkpt>
      <trkpt lat="43.647359982132912" lon="-7.619131961837411">
        <ele>54.450000000000003</ele>
        <time>2025-04-30T08:41:43Z</time>
      </trkpt>
      <trkpt lat="43.647414967417717" lon="-7.61910798959434">
        <ele>54.93</ele>
        <time>2025-04-30T08:41:44Z</time>
      </trkpt>
      <trkpt lat="43.64752602763474" lon="-7.619053004309535">
        <ele>56.369999999999997</ele>
        <time>2025-04-30T08:41:46Z</time>
      </trkpt>
      <trkpt lat="43.647553017362952" lon="-7.618973962962627">
        <ele>56.859999999999999</ele>
        <time>2025-04-30T08:41:47Z</time>
      </trkpt>
      <trkpt lat="43.647587969899178" lon="-7.618868015706539">
        <ele>57.340000000000003</ele>
        <time>2025-04-30T08:41:48Z</time>
      </trkpt>
      <trkpt lat="43.647620994597673" lon="-7.618810012936592">
        <ele>57.82</ele>
        <time>2025-04-30T08:41:49Z</time>
      </trkpt>
      <trkpt lat="43.647726019844413" lon="-7.618726026266813">
        <ele>58.299999999999997</ele>
        <time>2025-04-30T08:41:50Z</time>
      </trkpt>
      <trkpt lat="43.64778402261436" lon="-7.618733989074826">
        <ele>58.780000000000001</ele>
        <time>2025-04-30T08:41:51Z</time>
      </trkpt>
      <trkpt lat="43.647824004292488" lon="-7.61874002404511">
        <ele>58.780000000000001</ele>
        <time>2025-04-30T08:41:52Z</time>
      </trkpt>
      <trkpt lat="43.647898016497493" lon="-7.618819987401366">
        <ele>58.780000000000001</ele>
        <time>2025-04-30T08:41:53Z</time>
      </trkpt>
      <trkpt lat="43.647944033145905" lon="-7.61886902153492">
        <ele>59.259999999999998</ele>
        <time>2025-04-30T08:41:54Z</time>
      </trkpt>
      <trkpt lat="43.647992983460426" lon="-7.618920989334583">
        <ele>59.259999999999998</ele>
        <time>2025-04-30T08:41:55Z</time>
      </trkpt>
      <trkpt lat="43.64804302342236" lon="-7.618975974619389">
        <ele>59.740000000000002</ele>
        <time>2025-04-30T08:41:56Z</time>
      </trkpt>
      <trkpt lat="43.648089962080121" lon="-7.619027020409703">
        <ele>59.740000000000002</ele>
        <time>2025-04-30T08:41:57Z</time>
      </trkpt>
      <trkpt lat="43.648103037849069" lon="-7.619040012359619">
        <ele>59.740000000000002</ele>
        <time>2025-04-30T08:41:58Z</time>
      </trkpt>
      <trkpt lat="43.648173026740551" lon="-7.619073037058115">
        <ele>59.740000000000002</ele>
        <time>2025-04-30T08:41:59Z</time>
      </trkpt>
      <trkpt lat="43.64821401424706" lon="-7.619090974330902">
        <ele>59.740000000000002</ele>
        <time>2025-04-30T08:42:00Z</time>
      </trkpt>
      <trkpt lat="43.64825801923871" lon="-7.619112012907863">
        <ele>59.740000000000002</ele>
        <time>2025-04-30T08:42:01Z</time>
      </trkpt>
      <trkpt lat="43.648295989260077" lon="-7.619129028171301">
        <ele>59.740000000000002</ele>
        <time>2025-04-30T08:42:02Z</time>
      </trkpt>
      <trkpt lat="43.648392967879772" lon="-7.619162974879146">
        <ele>59.259999999999998</ele>
        <time>2025-04-30T08:42:04Z</time>
      </trkpt>
      <trkpt lat="43.648479972034693" lon="-7.619115030393004">
        <ele>59.259999999999998</ele>
        <time>2025-04-30T08:42:06Z</time>
      </trkpt>
      <trkpt lat="43.648529006168246" lon="-7.619088962674141">
        <ele>59.259999999999998</ele>
        <time>2025-04-30T08:42:07Z</time>
      </trkpt>
      <trkpt lat="43.648584997281432" lon="-7.619058033451438">
        <ele>59.259999999999998</ele>
        <time>2025-04-30T08:42:08Z</time>
      </trkpt>
      <trkpt lat="43.648640988394618" lon="-7.619036994874477">
        <ele>59.259999999999998</ele>
        <time>2025-04-30T08:42:09Z</time>
      </trkpt>
      <trkpt lat="43.648711983114481" lon="-7.619027020409703">
        <ele>59.740000000000002</ele>
        <time>2025-04-30T08:42:10Z</time>
      </trkpt>
      <trkpt lat="43.649027980864048" lon="-7.618932975456119">
        <ele>60.219999999999999</ele>
        <time>2025-04-30T08:42:15Z</time>
      </trkpt>
      <trkpt lat="43.649093024432659" lon="-7.618895005434752">
        <ele>60.219999999999999</ele>
        <time>2025-04-30T08:42:16Z</time>
      </trkpt>
      <trkpt lat="43.649176005274057" lon="-7.618846977129579">
        <ele>60.700000000000003</ele>
        <time>2025-04-30T08:42:17Z</time>
      </trkpt>
      <trkpt lat="43.649206012487411" lon="-7.618755027651787">
        <ele>60.219999999999999</ele>
        <time>2025-04-30T08:42:18Z</time>
      </trkpt>
      <trkpt lat="43.649239959195256" lon="-7.618650002405047">
        <ele>60.219999999999999</ele>
        <time>2025-04-30T08:42:19Z</time>
      </trkpt>
      <trkpt lat="43.649276001378894" lon="-7.618541037663817">
        <ele>60.219999999999999</ele>
        <time>2025-04-30T08:42:20Z</time>
      </trkpt>
      <trkpt lat="43.649488985538483" lon="-7.617888003587723">
        <ele>57.82</ele>
        <time>2025-04-30T08:42:26Z</time>
      </trkpt>
      <trkpt lat="43.649578001350164" lon="-7.617717012763023">
        <ele>56.859999999999999</ele>
        <time>2025-04-30T08:42:28Z</time>
      </trkpt>
      <trkpt lat="43.649689983576536" lon="-7.617566976696253">
        <ele>55.890000000000001</ele>
        <time>2025-04-30T08:42:30Z</time>
      </trkpt>
      <trkpt lat="43.649746980518103" lon="-7.617491958662868">
        <ele>55.409999999999997</ele>
        <time>2025-04-30T08:42:31Z</time>
      </trkpt>
      <trkpt lat="43.649854017421603" lon="-7.617348963394761">
        <ele>54.450000000000003</ele>
        <time>2025-04-30T08:42:33Z</time>
      </trkpt>
      <trkpt lat="43.649904979392886" lon="-7.61728098616004">
        <ele>53.490000000000002</ele>
        <time>2025-04-30T08:42:34Z</time>
      </trkpt>
      <trkpt lat="43.649940015748143" lon="-7.617179984226823">
        <ele>53.009999999999998</ele>
        <time>2025-04-30T08:42:35Z</time>
      </trkpt>
      <trkpt lat="43.65023598074913" lon="-7.616344979032874">
        <ele>51.57</ele>
        <time>2025-04-30T08:42:46Z</time>
      </trkpt>
      <trkpt lat="43.650269005447626" lon="-7.616283958777785">
        <ele>52.049999999999997</ele>
        <time>2025-04-30T08:42:50Z</time>
      </trkpt>
      <trkpt lat="43.650300018489361" lon="-7.616226961836219">
        <ele>52.049999999999997</ele>
        <time>2025-04-30T08:42:51Z</time>
      </trkpt>
      <trkpt lat="43.650333965197206" lon="-7.616165019571781">
        <ele>52.530000000000001</ele>
        <time>2025-04-30T08:42:52Z</time>
      </trkpt>
      <trkpt lat="43.65040403790772" lon="-7.616114979609847">
        <ele>53.009999999999998</ele>
        <time>2025-04-30T08:42:53Z</time>
      </trkpt>
      <trkpt lat="43.650476960465312" lon="-7.616063011810184">
        <ele>53.969999999999999</ele>
        <time>2025-04-30T08:42:54Z</time>
      </trkpt>
      <trkpt lat="43.6505570076406" lon="-7.616006014868617">
        <ele>54.450000000000003</ele>
        <time>2025-04-30T08:42:55Z</time>
      </trkpt>
      <trkpt lat="43.650634959340096" lon="-7.615950023755431">
        <ele>54.93</ele>
        <time>2025-04-30T08:42:56Z</time>
      </trkpt>
      <trkpt lat="43.650731015950441" lon="-7.615907024592161">
        <ele>55.890000000000001</ele>
        <time>2025-04-30T08:42:57Z</time>
      </trkpt>
      <trkpt lat="43.651041984558105" lon="-7.615805016830564">
        <ele>57.82</ele>
        <time>2025-04-30T08:43:01Z</time>
      </trkpt>
      <trkpt lat="43.651118008419871" lon="-7.615788001567125">
        <ele>58.299999999999997</ele>
        <time>2025-04-30T08:43:02Z</time>
      </trkpt>
      <trkpt lat="43.65126796066761" lon="-7.61575497686863">
        <ele>59.259999999999998</ele>
        <time>2025-04-30T08:43:04Z</time>
      </trkpt>
      <trkpt lat="43.651324035599828" lon="-7.615741984918714">
        <ele>59.740000000000002</ele>
        <time>2025-04-30T08:43:05Z</time>
      </trkpt>
      <trkpt lat="43.651450015604496" lon="-7.615713989362121">
        <ele>60.700000000000003</ele>
        <time>2025-04-30T08:43:07Z</time>
      </trkpt>
      <trkpt lat="43.651661993935704" lon="-7.615753971040249">
        <ele>62.140000000000001</ele>
        <time>2025-04-30T08:43:10Z</time>
      </trkpt>
      <trkpt lat="43.651746986433864" lon="-7.615786995738745">
        <ele>62.619999999999997</ele>
        <time>2025-04-30T08:43:11Z</time>
      </trkpt>
      <trkpt lat="43.651839019730687" lon="-7.615822032094002">
        <ele>63.579999999999998</ele>
        <time>2025-04-30T08:43:12Z</time>
      </trkpt>
      <trkpt lat="43.652442013844848" lon="-7.616110034286976">
        <ele>68.390000000000001</ele>
        <time>2025-04-30T08:43:17Z</time>
      </trkpt>
      <trkpt lat="43.652743007987738" lon="-7.616293011233211">
        <ele>70.310000000000002</ele>
        <time>2025-04-30T08:43:20Z</time>
      </trkpt>
      <trkpt lat="43.653036039322615" lon="-7.616548994556069">
        <ele>71.269999999999996</ele>
        <time>2025-04-30T08:43:23Z</time>
      </trkpt>
      <trkpt lat="43.653167970478535" lon="-7.616544971242547">
        <ele>71.269999999999996</ele>
        <time>2025-04-30T08:43:24Z</time>
      </trkpt>
      <trkpt lat="43.653294034302235" lon="-7.616540025919676">
        <ele>71.760000000000005</ele>
        <time>2025-04-30T08:43:25Z</time>
      </trkpt>
      <trkpt lat="43.653630986809731" lon="-7.616552012041211">
        <ele>71.760000000000005</ele>
        <time>2025-04-30T08:43:28Z</time>
      </trkpt>
      <trkpt lat="43.653723020106554" lon="-7.616573972627521">
        <ele>71.760000000000005</ele>
        <time>2025-04-30T08:43:29Z</time>
      </trkpt>
      <trkpt lat="43.653811030089855" lon="-7.616594005376101">
        <ele>71.760000000000005</ele>
        <time>2025-04-30T08:43:30Z</time>
      </trkpt>
      <trkpt lat="43.653873978182673" lon="-7.616666005924344">
        <ele>71.269999999999996</ele>
        <time>2025-04-30T08:43:31Z</time>
      </trkpt>
      <trkpt lat="43.653942039236426" lon="-7.616744041442871">
        <ele>70.790000000000006</ele>
        <time>2025-04-30T08:43:32Z</time>
      </trkpt>
      <trkpt lat="43.654018985107541" lon="-7.616792991757393">
        <ele>70.310000000000002</ele>
        <time>2025-04-30T08:43:33Z</time>
      </trkpt>
      <trkpt lat="43.654087968170643" lon="-7.616826016455889">
        <ele>70.310000000000002</ele>
        <time>2025-04-30T08:43:34Z</time>
      </trkpt>
      <trkpt lat="43.654151000082493" lon="-7.616855017840862">
        <ele>69.829999999999998</ele>
        <time>2025-04-30T08:43:35Z</time>
      </trkpt>
      <trkpt lat="43.654258036985993" lon="-7.616904973983765">
        <ele>69.349999999999994</ele>
        <time>2025-04-30T08:43:37Z</time>
      </trkpt>
      <trkpt lat="43.654293995350599" lon="-7.616921989247203">
        <ele>68.870000000000005</ele>
        <time>2025-04-30T08:43:38Z</time>
      </trkpt>
      <trkpt lat="43.654316961765289" lon="-7.616932969540358">
        <ele>68.390000000000001</ele>
        <time>2025-04-30T08:43:39Z</time>
      </trkpt>
      <trkpt lat="43.654305981472135" lon="-7.61695702560246">
        <ele>67.909999999999997</ele>
        <time>2025-04-30T08:43:40Z</time>
      </trkpt>
      <trkpt lat="43.654283015057445" lon="-7.616978986188769">
        <ele>67.430000000000007</ele>
        <time>2025-04-30T08:43:41Z</time>
      </trkpt>
      <trkpt lat="43.654260970652103" lon="-7.617002036422491">
        <ele>67.430000000000007</ele>
        <time>2025-04-30T08:43:42Z</time>
      </trkpt>
      <trkpt lat="43.654215959832072" lon="-7.617002036422491">
        <ele>67.430000000000007</ele>
        <time>2025-04-30T08:43:43Z</time>
      </trkpt>
      <trkpt lat="43.654147982597351" lon="-7.617002036422491">
        <ele>67.430000000000007</ele>
        <time>2025-04-30T08:43:44Z</time>
      </trkpt>
      <trkpt lat="43.653708016499877" lon="-7.61700002476573">
        <ele>67.909999999999997</ele>
        <time>2025-04-30T08:43:49Z</time>
      </trkpt>
      <trkpt lat="43.653610032051802" lon="-7.617032965645194">
        <ele>67.909999999999997</ele>
        <time>2025-04-30T08:43:50Z</time>
      </trkpt>
      <trkpt lat="43.653510035946965" lon="-7.61706599034369">
        <ele>67.909999999999997</ele>
        <time>2025-04-30T08:43:51Z</time>
      </trkpt>
      <trkpt lat="43.653332004323602" lon="-7.617190964519978">
        <ele>67.909999999999997</ele>
        <time>2025-04-30T08:43:53Z</time>
      </trkpt>
      <trkpt lat="43.653223961591721" lon="-7.617236981168389">
        <ele>68.870000000000005</ele>
        <time>2025-04-30T08:43:54Z</time>
      </trkpt>
      <trkpt lat="43.653106028214097" lon="-7.617272017523646">
        <ele>69.349999999999994</ele>
        <time>2025-04-30T08:43:55Z</time>
      </trkpt>
      <trkpt lat="43.652993962168694" lon="-7.617304958403111">
        <ele>69.829999999999998</ele>
        <time>2025-04-30T08:43:56Z</time>
      </trkpt>
      <trkpt lat="43.652887009084225" lon="-7.617335971444845">
        <ele>70.310000000000002</ele>
        <time>2025-04-30T08:43:57Z</time>
      </trkpt>
      <trkpt lat="43.652782989665866" lon="-7.61736698448658">
        <ele>70.310000000000002</ele>
        <time>2025-04-30T08:43:58Z</time>
      </trkpt>
      <trkpt lat="43.651536013931036" lon="-7.617880962789059">
        <ele>73.680000000000007</ele>
        <time>2025-04-30T08:44:09Z</time>
      </trkpt>
      <trkpt lat="43.651096969842911" lon="-7.618541037663817">
        <ele>79.930000000000007</ele>
        <time>2025-04-30T08:44:14Z</time>
      </trkpt>
      <trkpt lat="43.650503028184175" lon="-7.619827995076776">
        <ele>90.5</ele>
        <time>2025-04-30T08:44:23Z</time>
      </trkpt>
      <trkpt lat="43.650068007409573" lon="-7.62061296030879">
        <ele>95.790000000000006</ele>
        <time>2025-04-30T08:44:30Z</time>
      </trkpt>
      <trkpt lat="43.650010004639626" lon="-7.62073801830411">
        <ele>96.269999999999996</ele>
        <time>2025-04-30T08:44:31Z</time>
      </trkpt>
      <trkpt lat="43.649755027145147" lon="-7.621302036568523">
        <ele>97.230000000000004</ele>
        <time>2025-04-30T08:44:36Z</time>
      </trkpt>
      <trkpt lat="43.64971999078989" lon="-7.621402032673359">
        <ele>97.230000000000004</ele>
        <time>2025-04-30T08:44:37Z</time>
      </trkpt>
      <trkpt lat="43.649604991078377" lon="-7.622215999290347">
        <ele>98.189999999999998</ele>
        <time>2025-04-30T08:44:43Z</time>
      </trkpt>
      <trkpt lat="43.649509018287063" lon="-7.622621012851596">
        <ele>99.629999999999995</ele>
        <time>2025-04-30T08:44:46Z</time>
      </trkpt>
      <trkpt lat="43.649483034387231" lon="-7.622734000906348">
        <ele>100.11</ele>
        <time>2025-04-30T08:44:47Z</time>
      </trkpt>
      <trkpt lat="43.649441041052341" lon="-7.622912032529712">
        <ele>101.56</ele>
        <time>2025-04-30T08:44:49Z</time>
      </trkpt>
      <trkpt lat="43.64944196306169" lon="-7.623018985614181">
        <ele>102.52</ele>
        <time>2025-04-30T08:44:50Z</time>
      </trkpt>
      <trkpt lat="43.649409022182226" lon="-7.623562971130014">
        <ele>106.36</ele>
        <time>2025-04-30T08:44:55Z</time>
      </trkpt>
      <trkpt lat="43.649346996098757" lon="-7.623834041878581">
        <ele>108.29000000000001</ele>
        <time>2025-04-30T08:44:57Z</time>
      </trkpt>
      <trkpt lat="43.649319000542164" lon="-7.623962033540011">
        <ele>108.77</ele>
        <time>2025-04-30T08:44:58Z</time>
      </trkpt>
      <trkpt lat="43.649293016642332" lon="-7.624082984402776">
        <ele>109.25</ele>
        <time>2025-04-30T08:44:59Z</time>
      </trkpt>
      <trkpt lat="43.649244988337159" lon="-7.62430602684617">
        <ele>110.69</ele>
        <time>2025-04-30T08:45:01Z</time>
      </trkpt>
      <trkpt lat="43.649222021922469" lon="-7.624411974102259">
        <ele>111.17</ele>
        <time>2025-04-30T08:45:02Z</time>
      </trkpt>
      <trkpt lat="43.649197965860367" lon="-7.624524040147662">
        <ele>111.17</ele>
        <time>2025-04-30T08:45:03Z</time>
      </trkpt>
      <trkpt lat="43.649172987788916" lon="-7.624640967696905">
        <ele>111.17</ele>
        <time>2025-04-30T08:45:04Z</time>
      </trkpt>
      <trkpt lat="43.649150021374226" lon="-7.624763008207083">
        <ele>111.65000000000001</ele>
        <time>2025-04-30T08:45:05Z</time>
      </trkpt>
      <trkpt lat="43.649135017767549" lon="-7.624890999868512">
        <ele>112.13</ele>
        <time>2025-04-30T08:45:06Z</time>
      </trkpt>
      <trkpt lat="43.649119008332491" lon="-7.625024020671845">
        <ele>112.61</ele>
        <time>2025-04-30T08:45:07Z</time>
      </trkpt>
      <trkpt lat="43.649143986403942" lon="-7.625417970120907">
        <ele>114.53</ele>
        <time>2025-04-30T08:45:10Z</time>
      </trkpt>
      <trkpt lat="43.649155972525477" lon="-7.625542022287846">
        <ele>115.5</ele>
        <time>2025-04-30T08:45:11Z</time>
      </trkpt>
      <trkpt lat="43.649167958647013" lon="-7.625662973150611">
        <ele>116.45999999999999</ele>
        <time>2025-04-30T08:45:12Z</time>
      </trkpt>
      <trkpt lat="43.649264015257359" lon="-7.626619013026357">
        <ele>124.15000000000001</ele>
        <time>2025-04-30T08:45:19Z</time>
      </trkpt>
      <trkpt lat="43.649282958358526" lon="-7.626808024942875">
        <ele>125.11</ele>
        <time>2025-04-30T08:45:20Z</time>
      </trkpt>
      <trkpt lat="43.649258986115456" lon="-7.626934004947543">
        <ele>125.59</ele>
        <time>2025-04-30T08:45:21Z</time>
      </trkpt>
      <trkpt lat="43.64922403357923" lon="-7.6273990329355">
        <ele>127.51000000000001</ele>
        <time>2025-04-30T08:45:24Z</time>
      </trkpt>
      <trkpt lat="43.649110961705446" lon="-7.627794994041324">
        <ele>129.91999999999999</ele>
        <time>2025-04-30T08:45:28Z</time>
      </trkpt>
      <trkpt lat="43.649145998060703" lon="-7.627891972661018">
        <ele>130.40000000000001</ele>
        <time>2025-04-30T08:45:29Z</time>
      </trkpt>
      <trkpt lat="43.649205006659031" lon="-7.628060029819608">
        <ele>131.36000000000001</ele>
        <time>2025-04-30T08:45:31Z</time>
      </trkpt>
      <trkpt lat="43.649338027462363" lon="-7.628436964005232">
        <ele>134.24000000000001</ele>
        <time>2025-04-30T08:45:34Z</time>
      </trkpt>
      <trkpt lat="43.649389995262027" lon="-7.628553975373507">
        <ele>135.19999999999999</ele>
        <time>2025-04-30T08:45:35Z</time>
      </trkpt>
      <trkpt lat="43.649919982999563" lon="-7.629574974998832">
        <ele>148.66</ele>
        <time>2025-04-30T08:45:44Z</time>
      </trkpt>
      <trkpt lat="43.650140007957816" lon="-7.629987029358745">
        <ele>155.38999999999999</ele>
        <time>2025-04-30T08:45:48Z</time>
      </trkpt>
      <trkpt lat="43.650199016556144" lon="-7.630078978836536">
        <ele>156.83000000000001</ele>
        <time>2025-04-30T08:45:49Z</time>
      </trkpt>
      <trkpt lat="43.65025601349771" lon="-7.630160031840205">
        <ele>157.31</ele>
        <time>2025-04-30T08:45:50Z</time>
      </trkpt>
      <trkpt lat="43.65034201182425" lon="-7.630218034610152">
        <ele>158.27000000000001</ele>
        <time>2025-04-30T08:45:51Z</time>
      </trkpt>
      <trkpt lat="43.650443013757467" lon="-7.630256004631519">
        <ele>158.75</ele>
        <time>2025-04-30T08:45:52Z</time>
      </trkpt>
      <trkpt lat="43.650554995983839" lon="-7.630282994359732">
        <ele>159.24000000000001</ele>
        <time>2025-04-30T08:45:53Z</time>
      </trkpt>
      <trkpt lat="43.650775020942092" lon="-7.630350971594453">
        <ele>159.72</ele>
        <time>2025-04-30T08:45:55Z</time>
      </trkpt>
      <trkpt lat="43.651549005880952" lon="-7.630925970152021">
        <ele>165</ele>
        <time>2025-04-30T08:46:04Z</time>
      </trkpt>
      <trkpt lat="43.651579013094306" lon="-7.630949020385742">
        <ele>165.47999999999999</ele>
        <time>2025-04-30T08:46:05Z</time>
      </trkpt>
      <trkpt lat="43.651579013094306" lon="-7.631035018712282">
        <ele>165.96000000000001</ele>
        <time>2025-04-30T08:46:06Z</time>
      </trkpt>
      <trkpt lat="43.651579013094306" lon="-7.631035018712282">
        <ele>166.93000000000001</ele>
        <time>2025-04-30T08:46:07Z</time>
      </trkpt>
      <trkpt lat="43.651539031416178" lon="-7.631084974855185">
        <ele>167.41</ele>
        <time>2025-04-30T08:46:08Z</time>
      </trkpt>
      <trkpt lat="43.651495026424527" lon="-7.63114096596837">
        <ele>167.88999999999999</ele>
        <time>2025-04-30T08:46:09Z</time>
      </trkpt>
      <trkpt lat="43.651440963149071" lon="-7.631209027022123">
        <ele>168.37</ele>
        <time>2025-04-30T08:46:10Z</time>
      </trkpt>
      <trkpt lat="43.651374997571111" lon="-7.631294019520283">
        <ele>168.84999999999999</ele>
        <time>2025-04-30T08:46:11Z</time>
      </trkpt>
      <trkpt lat="43.651298973709345" lon="-7.631388986483216">
        <ele>168.84999999999999</ele>
        <time>2025-04-30T08:46:12Z</time>
      </trkpt>
      <trkpt lat="43.651219010353088" lon="-7.63146098703146">
        <ele>169.33000000000001</ele>
        <time>2025-04-30T08:46:13Z</time>
      </trkpt>
      <trkpt lat="43.651126977056265" lon="-7.63150499202311">
        <ele>170.28999999999999</ele>
        <time>2025-04-30T08:46:14Z</time>
      </trkpt>
      <trkpt lat="43.651035027578473" lon="-7.631548997014761">
        <ele>170.28999999999999</ele>
        <time>2025-04-30T08:46:15Z</time>
      </trkpt>
      <trkpt lat="43.650863030925393" lon="-7.631631977856159">
        <ele>171.72999999999999</ele>
        <time>2025-04-30T08:46:17Z</time>
      </trkpt>
      <trkpt lat="43.650780972093344" lon="-7.631671037524939">
        <ele>172.69</ele>
        <time>2025-04-30T08:46:18Z</time>
      </trkpt>
      <trkpt lat="43.6507089715451" lon="-7.631714036688209">
        <ele>173.66</ele>
        <time>2025-04-30T08:46:19Z</time>
      </trkpt>
      <trkpt lat="43.6504499707371" lon="-7.632029028609395">
        <ele>177.97999999999999</ele>
        <time>2025-04-30T08:46:23Z</time>
      </trkpt>
      <trkpt lat="43.650413006544113" lon="-7.632079990580678">
        <ele>178.94</ele>
        <time>2025-04-30T08:46:24Z</time>
      </trkpt>
      <trkpt lat="43.650376964360476" lon="-7.632151991128922">
        <ele>179.41999999999999</ele>
        <time>2025-04-30T08:46:25Z</time>
      </trkpt>
      <trkpt lat="43.650318961590528" lon="-7.632300015538931">
        <ele>180.38</ele>
        <time>2025-04-30T08:46:26Z</time>
      </trkpt>
      <trkpt lat="43.650358021259308" lon="-7.632420966401696">
        <ele>181.34999999999999</ele>
        <time>2025-04-30T08:46:27Z</time>
      </trkpt>
      <trkpt lat="43.650401020422578" lon="-7.632554993033409">
        <ele>182.31</ele>
        <time>2025-04-30T08:46:28Z</time>
      </trkpt>
      <trkpt lat="43.65044703707099" lon="-7.632696982473135">
        <ele>183.27000000000001</ele>
        <time>2025-04-30T08:46:29Z</time>
      </trkpt>
      <trkpt lat="43.65049296990037" lon="-7.632842995226383">
        <ele>184.22999999999999</ele>
        <time>2025-04-30T08:46:30Z</time>
      </trkpt>
      <trkpt lat="43.65066203288734" lon="-7.633389998227358">
        <ele>188.56</ele>
        <time>2025-04-30T08:46:34Z</time>
      </trkpt>
      <trkpt lat="43.650679970160127" lon="-7.633506003767252">
        <ele>189.52000000000001</ele>
        <time>2025-04-30T08:46:35Z</time>
      </trkpt>
      <trkpt lat="43.650697991251945" lon="-7.633622009307146">
        <ele>190.47999999999999</ele>
        <time>2025-04-30T08:46:36Z</time>
      </trkpt>
      <trkpt lat="43.650673013180494" lon="-7.633720999583602">
        <ele>191.91999999999999</ele>
        <time>2025-04-30T08:46:37Z</time>
      </trkpt>
      <trkpt lat="43.650639988481998" lon="-7.633832981809974">
        <ele>191.91999999999999</ele>
        <time>2025-04-30T08:46:38Z</time>
      </trkpt>
      <trkpt lat="43.650606963783503" lon="-7.633944964036346">
        <ele>192.40000000000001</ele>
        <time>2025-04-30T08:46:39Z</time>
      </trkpt>
      <trkpt lat="43.650571005418897" lon="-7.634030962362886">
        <ele>192.40000000000001</ele>
        <time>2025-04-30T08:46:40Z</time>
      </trkpt>
      <trkpt lat="43.650515014305711" lon="-7.63412400148809">
        <ele>192.40000000000001</ele>
        <time>2025-04-30T08:46:41Z</time>
      </trkpt>
      <trkpt lat="43.650462962687016" lon="-7.63421100564301">
        <ele>192.40000000000001</ele>
        <time>2025-04-30T08:46:42Z</time>
      </trkpt>
      <trkpt lat="43.650419041514397" lon="-7.634284012019634">
        <ele>192.40000000000001</ele>
        <time>2025-04-30T08:46:43Z</time>
      </trkpt>
      <trkpt lat="43.650336982682347" lon="-7.634420972317457">
        <ele>192.40000000000001</ele>
        <time>2025-04-30T08:46:45Z</time>
      </trkpt>
      <trkpt lat="43.650329019874334" lon="-7.634528009220958">
        <ele>192.40000000000001</ele>
        <time>2025-04-30T08:46:46Z</time>
      </trkpt>
      <trkpt lat="43.650322984904051" lon="-7.634628005325794">
        <ele>192.40000000000001</ele>
        <time>2025-04-30T08:46:47Z</time>
      </trkpt>
      <trkpt lat="43.650317033752799" lon="-7.634730013087392">
        <ele>192.40000000000001</ele>
        <time>2025-04-30T08:46:48Z</time>
      </trkpt>
      <trkpt lat="43.650310998782516" lon="-7.63483302667737">
        <ele>192.88</ele>
        <time>2025-04-30T08:46:49Z</time>
      </trkpt>
      <trkpt lat="43.650295995175838" lon="-7.635103007778525">
        <ele>193.84</ele>
        <time>2025-04-30T08:46:52Z</time>
      </trkpt>
      <trkpt lat="43.650254001840949" lon="-7.635171990841627">
        <ele>193.84</ele>
        <time>2025-04-30T08:46:53Z</time>
      </trkpt>
      <trkpt lat="43.650201028212905" lon="-7.635166039690375">
        <ele>194.31999999999999</ele>
        <time>2025-04-30T08:46:54Z</time>
      </trkpt>
      <trkpt lat="43.650098014622927" lon="-7.635154975578189">
        <ele>194.80000000000001</ele>
        <time>2025-04-30T08:46:55Z</time>
      </trkpt>
      <trkpt lat="43.650065995752811" lon="-7.635102001950145">
        <ele>195.77000000000001</ele>
        <time>2025-04-30T08:46:56Z</time>
      </trkpt>
      <trkpt lat="43.650014027953148" lon="-7.635016003623605">
        <ele>196.25</ele>
        <time>2025-04-30T08:46:57Z</time>
      </trkpt>
      <trkpt lat="43.649958036839962" lon="-7.634923970326781">
        <ele>196.72999999999999</ele>
        <time>2025-04-30T08:46:58Z</time>
      </trkpt>
      <trkpt lat="43.649895004928112" lon="-7.634821040555835">
        <ele>197.69</ele>
        <time>2025-04-30T08:46:59Z</time>
      </trkpt>
      <trkpt lat="43.649827027693391" lon="-7.634708974510431">
        <ele>198.65000000000001</ele>
        <time>2025-04-30T08:47:00Z</time>
      </trkpt>
      <trkpt lat="43.649659976363182" lon="-7.634434970095754">
        <ele>201.05000000000001</ele>
        <time>2025-04-30T08:47:03Z</time>
      </trkpt>
      <trkpt lat="43.649628963321447" lon="-7.634385013952851">
        <ele>202.00999999999999</ele>
        <time>2025-04-30T08:47:04Z</time>
      </trkpt>
      <trkpt lat="43.649612031877041" lon="-7.634356012567878">
        <ele>202.49000000000001</ele>
        <time>2025-04-30T08:47:05Z</time>
      </trkpt>
      <trkpt lat="43.649582024663687" lon="-7.63449096120894">
        <ele>203.94</ele>
        <time>2025-04-30T08:47:07Z</time>
      </trkpt>
      <trkpt lat="43.649596022441983" lon="-7.634543012827635">
        <ele>204.90000000000001</ele>
        <time>2025-04-30T08:47:08Z</time>
      </trkpt>
      <trkpt lat="43.649614965543151" lon="-7.63461803086102">
        <ele>205.86000000000001</ele>
        <time>2025-04-30T08:47:09Z</time>
      </trkpt>
      <trkpt lat="43.649639021605253" lon="-7.634709980338812">
        <ele>206.81999999999999</ele>
        <time>2025-04-30T08:47:10Z</time>
      </trkpt>
      <trkpt lat="43.649666011333466" lon="-7.63481198810041">
        <ele>208.25999999999999</ele>
        <time>2025-04-30T08:47:11Z</time>
      </trkpt>
      <trkpt lat="43.649693001061678" lon="-7.634917013347149">
        <ele>209.22</ele>
        <time>2025-04-30T08:47:12Z</time>
      </trkpt>
      <trkpt lat="43.649720996618271" lon="-7.635022038593888">
        <ele>210.66999999999999</ele>
        <time>2025-04-30T08:47:13Z</time>
      </trkpt>
      <trkpt lat="43.649749998003244" lon="-7.635131003335118">
        <ele>212.11000000000001</ele>
        <time>2025-04-30T08:47:14Z</time>
      </trkpt>
      <trkpt lat="43.649778999388218" lon="-7.63524298556149">
        <ele>213.06999999999999</ele>
        <time>2025-04-30T08:47:15Z</time>
      </trkpt>
      <trkpt lat="43.649806994944811" lon="-7.635352034121752">
        <ele>214.99000000000001</ele>
        <time>2025-04-30T08:47:16Z</time>
      </trkpt>
      <trkpt lat="43.649835996329784" lon="-7.635460998862982">
        <ele>216.43000000000001</ele>
        <time>2025-04-30T08:47:17Z</time>
      </trkpt>
      <trkpt lat="43.649915959686041" lon="-7.635642969980836">
        <ele>219.80000000000001</ele>
        <time>2025-04-30T08:47:19Z</time>
      </trkpt>
      <trkpt lat="43.649971028789878" lon="-7.635725028812885">
        <ele>221.24000000000001</ele>
        <time>2025-04-30T08:47:20Z</time>
      </trkpt>
      <trkpt lat="43.650082005187869" lon="-7.635891996324062">
        <ele>225.09</ele>
        <time>2025-04-30T08:47:22Z</time>
      </trkpt>
      <trkpt lat="43.650143025442958" lon="-7.635983023792505">
        <ele>226.53</ele>
        <time>2025-04-30T08:47:23Z</time>
      </trkpt>
      <trkpt lat="43.650203039869666" lon="-7.636073967441917">
        <ele>227.49000000000001</ele>
        <time>2025-04-30T08:47:24Z</time>
      </trkpt>
      <trkpt lat="43.65036397241056" lon="-7.636141022667289">
        <ele>228.44999999999999</ele>
        <time>2025-04-30T08:47:26Z</time>
      </trkpt>
      <trkpt lat="43.650419963523746" lon="-7.636162983253598">
        <ele>229.41</ele>
        <time>2025-04-30T08:47:27Z</time>
      </trkpt>
      <trkpt lat="43.650509985163808" lon="-7.63614596799016">
        <ele>229.88999999999999</ele>
        <time>2025-04-30T08:47:28Z</time>
      </trkpt>
      <trkpt lat="43.650604030117393" lon="-7.636127024888992">
        <ele>230.84999999999999</ele>
        <time>2025-04-30T08:47:29Z</time>
      </trkpt>
      <trkpt lat="43.650658009573817" lon="-7.636076984927058">
        <ele>230.84999999999999</ele>
        <time>2025-04-30T08:47:30Z</time>
      </trkpt>
      <trkpt lat="43.650716012343764" lon="-7.635969026014209">
        <ele>231.81</ele>
        <time>2025-04-30T08:47:31Z</time>
      </trkpt>
      <trkpt lat="43.65077200345695" lon="-7.635862994939089">
        <ele>232.30000000000001</ele>
        <time>2025-04-30T08:47:32Z</time>
      </trkpt>
      <trkpt lat="43.650811985135078" lon="-7.635764004662633">
        <ele>233.25999999999999</ele>
        <time>2025-04-30T08:47:33Z</time>
      </trkpt>
      <trkpt lat="43.65083696320653" lon="-7.635623021051288">
        <ele>233.74000000000001</ele>
        <time>2025-04-30T08:47:34Z</time>
      </trkpt>
      <trkpt lat="43.650862025097013" lon="-7.635479019954801">
        <ele>234.69999999999999</ele>
        <time>2025-04-30T08:47:35Z</time>
      </trkpt>
      <trkpt lat="43.650885997340083" lon="-7.635338036343455">
        <ele>236.13999999999999</ele>
        <time>2025-04-30T08:47:36Z</time>
      </trkpt>
      <trkpt lat="43.650918016210198" lon="-7.635167967528105">
        <ele>237.58000000000001</ele>
        <time>2025-04-30T08:47:37Z</time>
      </trkpt>
      <trkpt lat="43.650977024808526" lon="-7.635034024715424">
        <ele>239.50999999999999</ele>
        <time>2025-04-30T08:47:38Z</time>
      </trkpt>
      <trkpt lat="43.651036033406854" lon="-7.634902009740472">
        <ele>241.43000000000001</ele>
        <time>2025-04-30T08:47:39Z</time>
      </trkpt>
      <trkpt lat="43.651084983721375" lon="-7.6347900275141">
        <ele>242.87</ele>
        <time>2025-04-30T08:47:40Z</time>
      </trkpt>
      <trkpt lat="43.651173999533057" lon="-7.634688019752502">
        <ele>244.31</ele>
        <time>2025-04-30T08:47:41Z</time>
      </trkpt>
      <trkpt lat="43.651241976767778" lon="-7.634608978405595">
        <ele>245.75</ele>
        <time>2025-04-30T08:47:42Z</time>
      </trkpt>
      <trkpt lat="43.65131095983088" lon="-7.634530020877719">
        <ele>247.68000000000001</ele>
        <time>2025-04-30T08:47:43Z</time>
      </trkpt>
      <trkpt lat="43.651381032541394" lon="-7.63444896787405">
        <ele>249.59999999999999</ele>
        <time>2025-04-30T08:47:44Z</time>
      </trkpt>
      <trkpt lat="43.651595022529364" lon="-7.634202959015966">
        <ele>254.41</ele>
        <time>2025-04-30T08:47:47Z</time>
      </trkpt>
      <trkpt lat="43.651654031127691" lon="-7.634121989831328">
        <ele>256.32999999999998</ele>
        <time>2025-04-30T08:47:48Z</time>
      </trkpt>
      <trkpt lat="43.651709016412497" lon="-7.633988969027996">
        <ele>258.25</ele>
        <time>2025-04-30T08:47:49Z</time>
      </trkpt>
      <trkpt lat="43.651814963668585" lon="-7.633739020675421">
        <ele>261.62</ele>
        <time>2025-04-30T08:47:51Z</time>
      </trkpt>
      <trkpt lat="43.651898028329015" lon="-7.633596025407314">
        <ele>263.06</ele>
        <time>2025-04-30T08:47:52Z</time>
      </trkpt>
      <trkpt lat="43.652471015229821" lon="-7.632681978866458">
        <ele>271.70999999999998</ele>
        <time>2025-04-30T08:48:00Z</time>
      </trkpt>
      <trkpt lat="43.652561036869884" lon="-7.632610984146595">
        <ele>272.67000000000002</ele>
        <time>2025-04-30T08:48:01Z</time>
      </trkpt>
      <trkpt lat="43.652665978297591" lon="-7.632552981376648">
        <ele>273.63</ele>
        <time>2025-04-30T08:48:02Z</time>
      </trkpt>
      <trkpt lat="43.652988011017442" lon="-7.632330022752285">
        <ele>277</ele>
        <time>2025-04-30T08:48:05Z</time>
      </trkpt>
      <trkpt lat="43.653094964101911" lon="-7.632222985848784">
        <ele>278.44</ele>
        <time>2025-04-30T08:48:06Z</time>
      </trkpt>
      <trkpt lat="43.653896022588015" lon="-7.631507003679872">
        <ele>288.52999999999997</ele>
        <time>2025-04-30T08:48:14Z</time>
      </trkpt>
      <trkpt lat="43.654026025906205" lon="-7.631502980366349">
        <ele>289.49000000000001</ele>
        <time>2025-04-30T08:48:15Z</time>
      </trkpt>
      <trkpt lat="43.654141025617719" lon="-7.631499040871859">
        <ele>290.94</ele>
        <time>2025-04-30T08:48:16Z</time>
      </trkpt>
      <trkpt lat="43.654255019500852" lon="-7.631495017558336">
        <ele>292.38</ele>
        <time>2025-04-30T08:48:17Z</time>
      </trkpt>
      <trkpt lat="43.654373958706856" lon="-7.631490994244814">
        <ele>293.33999999999997</ele>
        <time>2025-04-30T08:48:18Z</time>
      </trkpt>
      <trkpt lat="43.654494993388653" lon="-7.631486970931292">
        <ele>294.77999999999997</ele>
        <time>2025-04-30T08:48:19Z</time>
      </trkpt>
      <trkpt lat="43.654620973393321" lon="-7.631515972316265">
        <ele>296.69999999999999</ele>
        <time>2025-04-30T08:48:20Z</time>
      </trkpt>
      <trkpt lat="43.65504995919764" lon="-7.631679000332952">
        <ele>302.94999999999999</ele>
        <time>2025-04-30T08:48:25Z</time>
      </trkpt>
      <trkpt lat="43.655096981674433" lon="-7.63169702142477">
        <ele>304.38999999999999</ele>
        <time>2025-04-30T08:48:26Z</time>
      </trkpt>
      <trkpt lat="43.655134029686451" lon="-7.631711019203067">
        <ele>305.36000000000001</ele>
        <time>2025-04-30T08:48:27Z</time>
      </trkpt>
      <trkpt lat="43.655135035514832" lon="-7.631802968680859">
        <ele>306.31999999999999</ele>
        <time>2025-04-30T08:48:28Z</time>
      </trkpt>
      <trkpt lat="43.655117014423013" lon="-7.631858037784696">
        <ele>307.75999999999999</ele>
        <time>2025-04-30T08:48:29Z</time>
      </trkpt>
      <trkpt lat="43.655097987502813" lon="-7.631915034726262">
        <ele>308.72000000000003</ele>
        <time>2025-04-30T08:48:30Z</time>
      </trkpt>
      <trkpt lat="43.655035039409995" lon="-7.631919980049133">
        <ele>309.68000000000001</ele>
        <time>2025-04-30T08:48:31Z</time>
      </trkpt>
      <trkpt lat="43.65496102720499" lon="-7.631926015019417">
        <ele>310.16000000000003</ele>
        <time>2025-04-30T08:48:32Z</time>
      </trkpt>
      <trkpt lat="43.654878968372941" lon="-7.631932971999049">
        <ele>310.63999999999999</ele>
        <time>2025-04-30T08:48:33Z</time>
      </trkpt>
      <trkpt lat="43.654782995581627" lon="-7.631962979212403">
        <ele>311.12</ele>
        <time>2025-04-30T08:48:34Z</time>
      </trkpt>
      <trkpt lat="43.654375970363617" lon="-7.632177975028753">
        <ele>314.00999999999999</ele>
        <time>2025-04-30T08:48:39Z</time>
      </trkpt>
      <trkpt lat="43.654302963986993" lon="-7.632241006940603">
        <ele>314.49000000000001</ele>
        <time>2025-04-30T08:48:40Z</time>
      </trkpt>
      <trkpt lat="43.654234986752272" lon="-7.632318958640099">
        <ele>314.97000000000003</ele>
        <time>2025-04-30T08:48:41Z</time>
      </trkpt>
      <trkpt lat="43.654171032831073" lon="-7.632402023300529">
        <ele>315.93000000000001</ele>
        <time>2025-04-30T08:48:42Z</time>
      </trkpt>
      <trkpt lat="43.654104983434081" lon="-7.632486009970307">
        <ele>316.88999999999999</ele>
        <time>2025-04-30T08:48:43Z</time>
      </trkpt>
      <trkpt lat="43.653458990156651" lon="-7.633460992947221">
        <ele>330.82999999999998</ele>
        <time>2025-04-30T08:48:55Z</time>
      </trkpt>
      <trkpt lat="43.653442980721593" lon="-7.633513966575265">
        <ele>332.26999999999998</ele>
        <time>2025-04-30T08:48:56Z</time>
      </trkpt>
      <trkpt lat="43.653432000428438" lon="-7.633551014587283">
        <ele>333.70999999999998</ele>
        <time>2025-04-30T08:48:57Z</time>
      </trkpt>
      <trkpt lat="43.653432000428438" lon="-7.633551014587283">
        <ele>335.63999999999999</ele>
        <time>2025-04-30T08:49:06Z</time>
      </trkpt>
      <trkpt lat="43.653432000428438" lon="-7.633551014587283">
        <ele>336.12</ele>
        <time>2025-04-30T08:49:43Z</time>
      </trkpt>
      <trkpt lat="43.653409034013748" lon="-7.633624020963907">
        <ele>335.63999999999999</ele>
        <time>2025-04-30T08:50:06Z</time>
      </trkpt>
      <trkpt lat="43.653280958533287" lon="-7.6342339720577">
        <ele>337.56</ele>
        <time>2025-04-30T08:50:11Z</time>
      </trkpt>
      <trkpt lat="43.653181968256831" lon="-7.635190011933446">
        <ele>342.85000000000002</ele>
        <time>2025-04-30T08:50:16Z</time>
      </trkpt>
      <trkpt lat="43.652897989377379" lon="-7.636048989370465">
        <ele>350.06</ele>
        <time>2025-04-30T08:50:21Z</time>
      </trkpt>
      <trkpt lat="43.652746025472879" lon="-7.636561961844564">
        <ele>353.89999999999998</ele>
        <time>2025-04-30T08:50:25Z</time>
      </trkpt>
      <trkpt lat="43.652699002996087" lon="-7.636719960719347">
        <ele>354.38</ele>
        <time>2025-04-30T08:50:26Z</time>
      </trkpt>
      <trkpt lat="43.652667989954352" lon="-7.636905033141375">
        <ele>354.38</ele>
        <time>2025-04-30T08:50:27Z</time>
      </trkpt>
      <trkpt lat="43.652630019932985" lon="-7.638137005269527">
        <ele>359.19</ele>
        <time>2025-04-30T08:50:34Z</time>
      </trkpt>
      <trkpt lat="43.652670001611114" lon="-7.63831403106451">
        <ele>360.14999999999998</ele>
        <time>2025-04-30T08:50:35Z</time>
      </trkpt>
      <trkpt lat="43.652705959975719" lon="-7.638473035767674">
        <ele>361.11000000000001</ele>
        <time>2025-04-30T08:50:36Z</time>
      </trkpt>
      <trkpt lat="43.652830012142658" lon="-7.639015009626746">
        <ele>365.44</ele>
        <time>2025-04-30T08:50:39Z</time>
      </trkpt>
      <trkpt lat="43.652924979105592" lon="-7.639312986284494">
        <ele>368.80000000000001</ele>
        <time>2025-04-30T08:50:41Z</time>
      </trkpt>
      <trkpt lat="43.652965966612101" lon="-7.639439972117543">
        <ele>370.24000000000001</ele>
        <time>2025-04-30T08:50:42Z</time>
      </trkpt>
      <trkpt lat="43.652994967997074" lon="-7.639581961557269">
        <ele>371.69</ele>
        <time>2025-04-30T08:50:43Z</time>
      </trkpt>
      <trkpt lat="43.652994967997074" lon="-7.639730991795659">
        <ele>373.61000000000001</ele>
        <time>2025-04-30T08:50:44Z</time>
      </trkpt>
      <trkpt lat="43.652983987703919" lon="-7.63990399427712">
        <ele>375.05000000000001</ele>
        <time>2025-04-30T08:50:45Z</time>
      </trkpt>
      <trkpt lat="43.652780978009105" lon="-7.640990959480405">
        <ele>386.58999999999997</ele>
        <time>2025-04-30T08:50:53Z</time>
      </trkpt>
      <trkpt lat="43.652782989665866" lon="-7.641004035249353">
        <ele>387.55000000000001</ele>
        <time>2025-04-30T08:50:54Z</time>
      </trkpt>
      <trkpt lat="43.65279296413064" lon="-7.641053991392255">
        <ele>388.99000000000001</ele>
        <time>2025-04-30T08:50:55Z</time>
      </trkpt>
      <trkpt lat="43.652875022962689" lon="-7.641189023852348">
        <ele>389.94999999999999</ele>
        <time>2025-04-30T08:50:56Z</time>
      </trkpt>
      <trkpt lat="43.652946017682552" lon="-7.641131021082401">
        <ele>391.38999999999999</ele>
        <time>2025-04-30T08:50:57Z</time>
      </trkpt>
      <trkpt lat="43.653001002967358" lon="-7.641079975292087">
        <ele>392.83999999999997</ele>
        <time>2025-04-30T08:50:58Z</time>
      </trkpt>
      <trkpt lat="43.653069986030459" lon="-7.641017027199268">
        <ele>393.80000000000001</ele>
        <time>2025-04-30T08:50:59Z</time>
      </trkpt>
      <trkpt lat="43.653146009892225" lon="-7.640946032479405">
        <ele>395.24000000000001</ele>
        <time>2025-04-30T08:51:00Z</time>
      </trkpt>
      <trkpt lat="43.653209963813424" lon="-7.640915019437671">
        <ele>396.19999999999999</ele>
        <time>2025-04-30T08:51:01Z</time>
      </trkpt>
      <trkpt lat="43.653293028473854" lon="-7.64089297503233">
        <ele>397.16000000000003</ele>
        <time>2025-04-30T08:51:02Z</time>
      </trkpt>
      <trkpt lat="43.653402999043465" lon="-7.640862967818975">
        <ele>398.12</ele>
        <time>2025-04-30T08:51:03Z</time>
      </trkpt>
      <trkpt lat="43.653424037620425" lon="-7.640881994739175">
        <ele>398.60000000000002</ele>
        <time>2025-04-30T08:51:04Z</time>
      </trkpt>
      <trkpt lat="43.653485979884863" lon="-7.640937985852361">
        <ele>398.60000000000002</ele>
        <time>2025-04-30T08:51:05Z</time>
      </trkpt>
      <trkpt lat="43.653537025675178" lon="-7.640984002500773">
        <ele>399.07999999999998</ele>
        <time>2025-04-30T08:51:06Z</time>
      </trkpt>
      <trkpt lat="43.653639033436775" lon="-7.641077041625977">
        <ele>399.56999999999999</ele>
        <time>2025-04-30T08:51:07Z</time>
      </trkpt>
      <trkpt lat="43.653645990416408" lon="-7.641078969463706">
        <ele>400.05000000000001</ele>
        <time>2025-04-30T08:51:08Z</time>
      </trkpt>
      <trkpt lat="43.653707010671496" lon="-7.641091039404273">
        <ele>400.52999999999997</ele>
        <time>2025-04-30T08:51:09Z</time>
      </trkpt>
      <trkpt lat="43.653767025098205" lon="-7.641103025525808">
        <ele>401.00999999999999</ele>
        <time>2025-04-30T08:51:10Z</time>
      </trkpt>
      <trkpt lat="43.653829973191023" lon="-7.641115011647344">
        <ele>401.49000000000001</ele>
        <time>2025-04-30T08:51:11Z</time>
      </trkpt>
      <trkpt lat="43.654115963727236" lon="-7.641173014417291">
        <ele>404.85000000000002</ele>
        <time>2025-04-30T08:51:16Z</time>
      </trkpt>
      <trkpt lat="43.654178995639086" lon="-7.641195980831981">
        <ele>405.81</ele>
        <time>2025-04-30T08:51:17Z</time>
      </trkpt>
      <trkpt lat="43.654207997024059" lon="-7.641292959451675">
        <ele>405.81</ele>
        <time>2025-04-30T08:51:18Z</time>
      </trkpt>
      <trkpt lat="43.654336994513869" lon="-7.641763016581535">
        <ele>406.29000000000002</ele>
        <time>2025-04-30T08:51:22Z</time>
      </trkpt>
      <trkpt lat="43.654363984242082" lon="-7.641882039606571">
        <ele>405.81</ele>
        <time>2025-04-30T08:51:23Z</time>
      </trkpt>
      <trkpt lat="43.654388040304184" lon="-7.642024029046297">
        <ele>405.81</ele>
        <time>2025-04-30T08:51:24Z</time>
      </trkpt>
      <trkpt lat="43.654377982020378" lon="-7.642153026536107">
        <ele>405.81</ele>
        <time>2025-04-30T08:51:25Z</time>
      </trkpt>
      <trkpt lat="43.654368007555604" lon="-7.642284035682678">
        <ele>405.32999999999998</ele>
        <time>2025-04-30T08:51:26Z</time>
      </trkpt>
      <trkpt lat="43.654331965371966" lon="-7.642737999558449">
        <ele>403.88999999999999</ele>
        <time>2025-04-30T08:51:32Z</time>
      </trkpt>
      <trkpt lat="43.654330037534237" lon="-7.642759960144758">
        <ele>403.41000000000003</ele>
        <time>2025-04-30T08:51:44Z</time>
      </trkpt>
      <trkpt lat="43.654310004785657" lon="-7.642776975408196">
        <ele>405.81</ele>
        <time>2025-04-30T08:54:18Z</time>
      </trkpt>
      <trkpt lat="43.654311010614038" lon="-7.642778987064958">
        <ele>405.81</ele>
        <time>2025-04-30T08:55:00Z</time>
      </trkpt>
      <trkpt lat="43.654316961765289" lon="-7.642780998721719">
        <ele>404.85000000000002</ele>
        <time>2025-04-30T08:55:45Z</time>
      </trkpt>
      <trkpt lat="43.654322996735573" lon="-7.642778987064958">
        <ele>405.32999999999998</ele>
        <time>2025-04-30T08:56:37Z</time>
      </trkpt>
      <trkpt lat="43.654322996735573" lon="-7.642779992893338">
        <ele>404.85000000000002</ele>
        <time>2025-04-30T08:57:27Z</time>
      </trkpt>
      <trkpt lat="43.654321990907192" lon="-7.642776975408196">
        <ele>404.85000000000002</ele>
        <time>2025-04-30T08:58:18Z</time>
      </trkpt>
      <trkpt lat="43.65431897342205" lon="-7.642777981236577">
        <ele>404.85000000000002</ele>
        <time>2025-04-30T08:59:08Z</time>
      </trkpt>
      <trkpt lat="43.65431796759367" lon="-7.642774963751435">
        <ele>404.85000000000002</ele>
        <time>2025-04-30T08:59:50Z</time>
      </trkpt>
      <trkpt lat="43.65431796759367" lon="-7.642778987064958">
        <ele>404.85000000000002</ele>
        <time>2025-04-30T09:00:49Z</time>
      </trkpt>
      <trkpt lat="43.65431897342205" lon="-7.642779992893338">
        <ele>403.88999999999999</ele>
        <time>2025-04-30T09:01:42Z</time>
      </trkpt>
      <trkpt lat="43.654348980635405" lon="-7.642810000106692">
        <ele>407.25999999999999</ele>
        <time>2025-04-30T09:02:51Z</time>
      </trkpt>
      <trkpt lat="43.654304975643754" lon="-7.642767000943422">
        <ele>402.93000000000001</ele>
        <time>2025-04-30T09:03:35Z</time>
      </trkpt>
      <trkpt lat="43.65429500117898" lon="-7.642788039520383">
        <ele>402.93000000000001</ele>
        <time>2025-04-30T09:04:30Z</time>
      </trkpt>
      <trkpt lat="43.654311010614038" lon="-7.642785022035241">
        <ele>402.44999999999999</ele>
        <time>2025-04-30T09:05:20Z</time>
      </trkpt>
      <trkpt lat="43.654312016442418" lon="-7.642782004550099">
        <ele>402.44999999999999</ele>
        <time>2025-04-30T09:06:08Z</time>
      </trkpt>
      <trkpt lat="43.654313022270799" lon="-7.642780998721719">
        <ele>402.44999999999999</ele>
        <time>2025-04-30T09:06:58Z</time>
      </trkpt>
      <trkpt lat="43.654303969815373" lon="-7.643101019784808">
        <ele>401.00999999999999</ele>
        <time>2025-04-30T09:07:13Z</time>
      </trkpt>
      <trkpt lat="43.654298018664122" lon="-7.643179977312684">
        <ele>401.00999999999999</ele>
        <time>2025-04-30T09:07:14Z</time>
      </trkpt>
      <trkpt lat="43.654303969815373" lon="-7.643576022237539">
        <ele>400.05000000000001</ele>
        <time>2025-04-30T09:07:18Z</time>
      </trkpt>
      <trkpt lat="43.65435803309083" lon="-7.64407298527658">
        <ele>399.07999999999998</ele>
        <time>2025-04-30T09:07:22Z</time>
      </trkpt>
      <trkpt lat="43.654437996447086" lon="-7.644261997193098">
        <ele>398.12</ele>
        <time>2025-04-30T09:07:24Z</time>
      </trkpt>
      <trkpt lat="43.654498010873795" lon="-7.644342966377735">
        <ele>397.63999999999999</ele>
        <time>2025-04-30T09:07:25Z</time>
      </trkpt>
      <trkpt lat="43.654557019472122" lon="-7.644424019381404">
        <ele>397.63999999999999</ele>
        <time>2025-04-30T09:07:26Z</time>
      </trkpt>
      <trkpt lat="43.654618039727211" lon="-7.644501971080899">
        <ele>397.16000000000003</ele>
        <time>2025-04-30T09:07:27Z</time>
      </trkpt>
      <trkpt lat="43.654700014740229" lon="-7.644584029912949">
        <ele>397.16000000000003</ele>
        <time>2025-04-30T09:07:28Z</time>
      </trkpt>
      <trkpt lat="43.654784001410007" lon="-7.644669022411108">
        <ele>397.16000000000003</ele>
        <time>2025-04-30T09:07:29Z</time>
      </trkpt>
      <trkpt lat="43.654974019154906" lon="-7.644943026825786">
        <ele>398.60000000000002</ele>
        <time>2025-04-30T09:07:32Z</time>
      </trkpt>
      <trkpt lat="43.655017018318176" lon="-7.6450389996171">
        <ele>399.07999999999998</ele>
        <time>2025-04-30T09:07:33Z</time>
      </trkpt>
      <trkpt lat="43.655395964160562" lon="-7.645992022007704">
        <ele>402.44999999999999</ele>
        <time>2025-04-30T09:07:42Z</time>
      </trkpt>
      <trkpt lat="43.655586987733841" lon="-7.647364977747202">
        <ele>401.00999999999999</ele>
        <time>2025-04-30T09:07:52Z</time>
      </trkpt>
      <trkpt lat="43.655591011047363" lon="-7.648582030087709">
        <ele>395.72000000000003</ele>
        <time>2025-04-30T09:08:02Z</time>
      </trkpt>
      <trkpt lat="43.655587993562222" lon="-7.64871396124363">
        <ele>395.24000000000001</ele>
        <time>2025-04-30T09:08:03Z</time>
      </trkpt>
      <trkpt lat="43.655582964420319" lon="-7.648948989808559">
        <ele>393.80000000000001</ele>
        <time>2025-04-30T09:08:05Z</time>
      </trkpt>
      <trkpt lat="43.655575001612306" lon="-7.649300023913384">
        <ele>391.38999999999999</ele>
        <time>2025-04-30T09:08:09Z</time>
      </trkpt>
      <trkpt lat="43.655573995783925" lon="-7.649363977834582">
        <ele>390.91000000000003</ele>
        <time>2025-04-30T09:08:10Z</time>
      </trkpt>
      <trkpt lat="43.655571984127164" lon="-7.649423992261291">
        <ele>390.43000000000001</ele>
        <time>2025-04-30T09:08:11Z</time>
      </trkpt>
      <trkpt lat="43.655720008537173" lon="-7.649509990587831">
        <ele>389.94999999999999</ele>
        <time>2025-04-30T09:08:12Z</time>
      </trkpt>
      <trkpt lat="43.655720008537173" lon="-7.649509990587831">
        <ele>388.99000000000001</ele>
        <time>2025-04-30T09:08:13Z</time>
      </trkpt>
      <trkpt lat="43.655795026570559" lon="-7.649534968659282">
        <ele>388.50999999999999</ele>
        <time>2025-04-30T09:08:14Z</time>
      </trkpt>
      <trkpt lat="43.656484019011259" lon="-7.649819031357765">
        <ele>390.43000000000001</ele>
        <time>2025-04-30T09:08:19Z</time>
      </trkpt>
      <trkpt lat="43.6579480022192" lon="-7.650467036291957">
        <ele>393.31999999999999</ele>
        <time>2025-04-30T09:08:26Z</time>
      </trkpt>
      <trkpt lat="43.659848012030125" lon="-7.651306986808777">
        <ele>396.68000000000001</ele>
        <time>2025-04-30T09:08:35Z</time>
      </trkpt>
      <trkpt lat="43.660187982022762" lon="-7.651522988453507">
        <ele>396.19999999999999</ele>
        <time>2025-04-30T09:08:37Z</time>
      </trkpt>
      <trkpt lat="43.660338018089533" lon="-7.651661960408092">
        <ele>395.72000000000003</ele>
        <time>2025-04-30T09:08:38Z</time>
      </trkpt>
      <trkpt lat="43.660462992265821" lon="-7.651856001466513">
        <ele>395.24000000000001</ele>
        <time>2025-04-30T09:08:39Z</time>
      </trkpt>
      <trkpt lat="43.660781001672149" lon="-7.6524299941957">
        <ele>395.24000000000001</ele>
        <time>2025-04-30T09:08:42Z</time>
      </trkpt>
      <trkpt lat="43.660781001672149" lon="-7.6524299941957">
        <ele>395.24000000000001</ele>
        <time>2025-04-30T09:08:43Z</time>
      </trkpt>
      <trkpt lat="43.661044025793672" lon="-7.652639038860798">
        <ele>395.72000000000003</ele>
        <time>2025-04-30T09:08:44Z</time>
      </trkpt>
      <trkpt lat="43.661732012405992" lon="-7.652906002476811">
        <ele>395.72000000000003</ele>
        <time>2025-04-30T09:08:48Z</time>
      </trkpt>
      <trkpt lat="43.661891017109156" lon="-7.652894016355276">
        <ele>395.24000000000001</ele>
        <time>2025-04-30T09:08:49Z</time>
      </trkpt>
      <trkpt lat="43.66205002181232" lon="-7.652856968343258">
        <ele>394.75999999999999</ele>
        <time>2025-04-30T09:08:50Z</time>
      </trkpt>
      <trkpt lat="43.662162004038692" lon="-7.652740040794015">
        <ele>394.27999999999997</ele>
        <time>2025-04-30T09:08:51Z</time>
      </trkpt>
      <trkpt lat="43.66228798404336" lon="-7.652606014162302">
        <ele>393.31999999999999</ele>
        <time>2025-04-30T09:08:52Z</time>
      </trkpt>
      <trkpt lat="43.662412958219647" lon="-7.652475005015731">
        <ele>392.83999999999997</ele>
        <time>2025-04-30T09:08:53Z</time>
      </trkpt>
      <trkpt lat="43.662561988458037" lon="-7.652399986982346">
        <ele>391.87</ele>
        <time>2025-04-30T09:08:54Z</time>
      </trkpt>
      <trkpt lat="43.662725016474724" lon="-7.652352964505553">
        <ele>390.91000000000003</ele>
        <time>2025-04-30T09:08:55Z</time>
      </trkpt>
      <trkpt lat="43.66288997232914" lon="-7.652326980605722">
        <ele>389.94999999999999</ele>
        <time>2025-04-30T09:08:56Z</time>
      </trkpt>
      <trkpt lat="43.663047971203923" lon="-7.652360005304217">
        <ele>388.50999999999999</ele>
        <time>2025-04-30T09:08:57Z</time>
      </trkpt>
      <trkpt lat="43.663202030584216" lon="-7.6524109672755">
        <ele>387.55000000000001</ele>
        <time>2025-04-30T09:08:58Z</time>
      </trkpt>
      <trkpt lat="43.663343014195561" lon="-7.652519010007381">
        <ele>386.58999999999997</ele>
        <time>2025-04-30T09:08:59Z</time>
      </trkpt>
      <trkpt lat="43.663479974493384" lon="-7.65266896225512">
        <ele>386.11000000000001</ele>
        <time>2025-04-30T09:09:00Z</time>
      </trkpt>
      <trkpt lat="43.663587011396885" lon="-7.652867026627064">
        <ele>385.63</ele>
        <time>2025-04-30T09:09:01Z</time>
      </trkpt>
      <trkpt lat="43.663695976138115" lon="-7.653071964159608">
        <ele>385.63</ele>
        <time>2025-04-30T09:09:02Z</time>
      </trkpt>
      <trkpt lat="43.664032006636262" lon="-7.653623996302486">
        <ele>385.14999999999998</ele>
        <time>2025-04-30T09:09:05Z</time>
      </trkpt>
      <trkpt lat="43.664133008569479" lon="-7.653772020712495">
        <ele>385.14999999999998</ele>
        <time>2025-04-30T09:09:06Z</time>
      </trkpt>
      <trkpt lat="43.664274998009205" lon="-7.653876962140203">
        <ele>385.14999999999998</ele>
        <time>2025-04-30T09:09:07Z</time>
      </trkpt>
      <trkpt lat="43.665260961279273" lon="-7.654670979827642">
        <ele>382.74000000000001</ele>
        <time>2025-04-30T09:09:13Z</time>
      </trkpt>
      <trkpt lat="43.665817016735673" lon="-7.655238015577197">
        <ele>382.25999999999999</ele>
        <time>2025-04-30T09:09:17Z</time>
      </trkpt>
      <trkpt lat="43.66591801866889" lon="-7.655415963381529">
        <ele>382.25999999999999</ele>
        <time>2025-04-30T09:09:18Z</time>
      </trkpt>
      <trkpt lat="43.66600401699543" lon="-7.655616961419582">
        <ele>382.25999999999999</ele>
        <time>2025-04-30T09:09:19Z</time>
      </trkpt>
      <trkpt lat="43.666089009493589" lon="-7.655834974721074">
        <ele>381.77999999999997</ele>
        <time>2025-04-30T09:09:20Z</time>
      </trkpt>
      <trkpt lat="43.666163021698594" lon="-7.656066985800862">
        <ele>381.77999999999997</ele>
        <time>2025-04-30T09:09:21Z</time>
      </trkpt>
      <trkpt lat="43.66679803468287" lon="-7.657964983955026">
        <ele>378.42000000000002</ele>
        <time>2025-04-30T09:09:29Z</time>
      </trkpt>
      <trkpt lat="43.666868023574352" lon="-7.658095993101597">
        <ele>378.42000000000002</ele>
        <time>2025-04-30T09:09:30Z</time>
      </trkpt>
      <trkpt lat="43.666957961395383" lon="-7.658171011134982">
        <ele>377.94</ele>
        <time>2025-04-30T09:09:31Z</time>
      </trkpt>
      <trkpt lat="43.6670589633286" lon="-7.65820998698473">
        <ele>377.94</ele>
        <time>2025-04-30T09:09:32Z</time>
      </trkpt>
      <trkpt lat="43.667158037424088" lon="-7.658170005306602">
        <ele>377.94</ele>
        <time>2025-04-30T09:09:33Z</time>
      </trkpt>
      <trkpt lat="43.66727395914495" lon="-7.658089036121965">
        <ele>377.44999999999999</ele>
        <time>2025-04-30T09:09:34Z</time>
      </trkpt>
      <trkpt lat="43.667371021583676" lon="-7.657944029197097">
        <ele>377.44999999999999</ele>
        <time>2025-04-30T09:09:35Z</time>
      </trkpt>
      <trkpt lat="43.667480992153287" lon="-7.657778989523649">
        <ele>376.97000000000003</ele>
        <time>2025-04-30T09:09:36Z</time>
      </trkpt>
      <trkpt lat="43.667603032663465" lon="-7.657596012577415">
        <ele>376.49000000000001</ele>
        <time>2025-04-30T09:09:37Z</time>
      </trkpt>
      <trkpt lat="43.667854992672801" lon="-7.657218994572759">
        <ele>375.05000000000001</ele>
        <time>2025-04-30T09:09:39Z</time>
      </trkpt>
      <trkpt lat="43.667988013476133" lon="-7.657054038718343">
        <ele>374.08999999999997</ele>
        <time>2025-04-30T09:09:40Z</time>
      </trkpt>
      <trkpt lat="43.668149029836059" lon="-7.656921017915011">
        <ele>373.61000000000001</ele>
        <time>2025-04-30T09:09:41Z</time>
      </trkpt>
      <trkpt lat="43.668813966214657" lon="-7.656547017395496">
        <ele>371.20999999999998</ele>
        <time>2025-04-30T09:09:45Z</time>
      </trkpt>
      <trkpt lat="43.66892896592617" lon="-7.656387006863952">
        <ele>370.24000000000001</ele>
        <time>2025-04-30T09:09:46Z</time>
      </trkpt>
      <trkpt lat="43.669470017775893" lon="-7.65573900192976">
        <ele>366.39999999999998</ele>
        <time>2025-04-30T09:09:50Z</time>
      </trkpt>
      <trkpt lat="43.669617958366871" lon="-7.655607992783189">
        <ele>365.44</ele>
        <time>2025-04-30T09:09:51Z</time>
      </trkpt>
      <trkpt lat="43.669784003868699" lon="-7.655540015548468">
        <ele>364</ele>
        <time>2025-04-30T09:09:52Z</time>
      </trkpt>
      <trkpt lat="43.669949965551496" lon="-7.655487963929772">
        <ele>363.04000000000002</ele>
        <time>2025-04-30T09:09:53Z</time>
      </trkpt>
      <trkpt lat="43.670115005224943" lon="-7.655452005565167">
        <ele>362.06999999999999</ele>
        <time>2025-04-30T09:09:54Z</time>
      </trkpt>
      <trkpt lat="43.670941963791847" lon="-7.655345974490047">
        <ele>356.31</ele>
        <time>2025-04-30T09:10:00Z</time>
      </trkpt>
      <trkpt lat="43.672183994203806" lon="-7.655531968921423">
        <ele>355.33999999999997</ele>
        <time>2025-04-30T09:10:07Z</time>
      </trkpt>
      <trkpt lat="43.67427796125412" lon="-7.656062040477991">
        <ele>359.19</ele>
        <time>2025-04-30T09:10:18Z</time>
      </trkpt>
      <trkpt lat="43.675820985808969" lon="-7.656504018232226">
        <ele>361.58999999999997</ele>
        <time>2025-04-30T09:10:27Z</time>
      </trkpt>
      <trkpt lat="43.6762769613415" lon="-7.656546011567116">
        <ele>362.06999999999999</ele>
        <time>2025-04-30T09:10:31Z</time>
      </trkpt>
      <trkpt lat="43.676307974383235" lon="-7.656545005738735">
        <ele>362.06999999999999</ele>
        <time>2025-04-30T09:10:38Z</time>
      </trkpt>
      <trkpt lat="43.676307974383235" lon="-7.656545005738735">
        <ele>360.63</ele>
        <time>2025-04-30T09:10:50Z</time>
      </trkpt>
      <trkpt lat="43.676307974383235" lon="-7.656545005738735">
        <ele>360.14999999999998</ele>
        <time>2025-04-30T09:10:56Z</time>
      </trkpt>
      <trkpt lat="43.676289031282067" lon="-7.656546011567116">
        <ele>360.14999999999998</ele>
        <time>2025-04-30T09:10:57Z</time>
      </trkpt>
      <trkpt lat="43.676127009093761" lon="-7.656548023223877">
        <ele>359.67000000000002</ele>
        <time>2025-04-30T09:10:58Z</time>
      </trkpt>
      <trkpt lat="43.676121979951859" lon="-7.656548023223877">
        <ele>359.67000000000002</ele>
        <time>2025-04-30T09:11:01Z</time>
      </trkpt>
      <trkpt lat="43.676127009093761" lon="-7.656548023223877">
        <ele>359.19</ele>
        <time>2025-04-30T09:11:02Z</time>
      </trkpt>
      <trkpt lat="43.676131032407284" lon="-7.656542994081974">
        <ele>359.19</ele>
        <time>2025-04-30T09:11:03Z</time>
      </trkpt>
      <trkpt lat="43.676158022135496" lon="-7.656504018232226">
        <ele>359.67000000000002</ele>
        <time>2025-04-30T09:11:04Z</time>
      </trkpt>
      <trkpt lat="43.67618702352047" lon="-7.656464958563447">
        <ele>359.67000000000002</ele>
        <time>2025-04-30T09:11:05Z</time>
      </trkpt>
      <trkpt lat="43.67620998993516" lon="-7.656433023512363">
        <ele>359.67000000000002</ele>
        <time>2025-04-30T09:11:06Z</time>
      </trkpt>
      <trkpt lat="43.67640201933682" lon="-7.65616899356246">
        <ele>360.63</ele>
        <time>2025-04-30T09:11:12Z</time>
      </trkpt>
      <trkpt lat="43.676469996571541" lon="-7.656076038256288">
        <ele>361.11000000000001</ele>
        <time>2025-04-30T09:11:13Z</time>
      </trkpt>
      <trkpt lat="43.676494974642992" lon="-7.655984004959464">
        <ele>361.11000000000001</ele>
        <time>2025-04-30T09:11:14Z</time>
      </trkpt>
      <trkpt lat="43.676821030676365" lon="-7.654773993417621">
        <ele>364.48000000000002</ele>
        <time>2025-04-30T09:11:22Z</time>
      </trkpt>
      <trkpt lat="43.677153959870338" lon="-7.653542021289468">
        <ele>365.44</ele>
        <time>2025-04-30T09:11:31Z</time>
      </trkpt>
      <trkpt lat="43.677269965410233" lon="-7.653191993013024">
        <ele>360.63</ele>
        <time>2025-04-30T09:11:34Z</time>
      </trkpt>
      <trkpt lat="43.677441962063313" lon="-7.65288102440536">
        <ele>356.79000000000002</ele>
        <time>2025-04-30T09:11:37Z</time>
      </trkpt>
      <trkpt lat="43.678304040804505" lon="-7.652000002563">
        <ele>345.25</ele>
        <time>2025-04-30T09:11:47Z</time>
      </trkpt>
      <trkpt lat="43.678631018847227" lon="-7.651695990934968">
        <ele>338.04000000000002</ele>
        <time>2025-04-30T09:11:51Z</time>
      </trkpt>
      <trkpt lat="43.678782982751727" lon="-7.651554001495242">
        <ele>334.19999999999999</ele>
        <time>2025-04-30T09:11:53Z</time>
      </trkpt>
      <trkpt lat="43.678854983299971" lon="-7.651488035917282">
        <ele>332.26999999999998</ele>
        <time>2025-04-30T09:11:54Z</time>
      </trkpt>
      <trkpt lat="43.678923966363072" lon="-7.651422992348671">
        <ele>330.35000000000002</ele>
        <time>2025-04-30T09:11:55Z</time>
      </trkpt>
      <trkpt lat="43.678991021588445" lon="-7.651360966265202">
        <ele>328.43000000000001</ele>
        <time>2025-04-30T09:11:56Z</time>
      </trkpt>
      <trkpt lat="43.679058998823166" lon="-7.651298018172383">
        <ele>326.01999999999998</ele>
        <time>2025-04-30T09:11:57Z</time>
      </trkpt>
      <trkpt lat="43.679130999371409" lon="-7.651238003745675">
        <ele>324.10000000000002</ele>
        <time>2025-04-30T09:11:58Z</time>
      </trkpt>
      <trkpt lat="43.679201994091272" lon="-7.651178995147348">
        <ele>321.69999999999999</ele>
        <time>2025-04-30T09:11:59Z</time>
      </trkpt>
      <trkpt lat="43.679268965497613" lon="-7.651124009862542">
        <ele>319.77999999999997</ele>
        <time>2025-04-30T09:12:00Z</time>
      </trkpt>
      <trkpt lat="43.679331997409463" lon="-7.651071958243847">
        <ele>317.37</ele>
        <time>2025-04-30T09:12:01Z</time>
      </trkpt>
      <trkpt lat="43.679386982694268" lon="-7.651026025414467">
        <ele>314.97000000000003</ele>
        <time>2025-04-30T09:12:02Z</time>
      </trkpt>
      <trkpt lat="43.679472981020808" lon="-7.650985037907958">
        <ele>312.56999999999999</ele>
        <time>2025-04-30T09:12:03Z</time>
      </trkpt>
      <trkpt lat="43.679531989619136" lon="-7.650975985452533">
        <ele>309.68000000000001</ele>
        <time>2025-04-30T09:12:04Z</time>
      </trkpt>
      <trkpt lat="43.67962502874434" lon="-7.651003981009126">
        <ele>307.27999999999997</ele>
        <time>2025-04-30T09:12:05Z</time>
      </trkpt>
      <trkpt lat="43.67966802790761" lon="-7.651037005707622">
        <ele>304.88</ele>
        <time>2025-04-30T09:12:06Z</time>
      </trkpt>
      <trkpt lat="43.67971102707088" lon="-7.651071036234498">
        <ele>302.47000000000003</ele>
        <time>2025-04-30T09:12:07Z</time>
      </trkpt>
      <trkpt lat="43.679758971557021" lon="-7.651109006255865">
        <ele>300.55000000000001</ele>
        <time>2025-04-30T09:12:08Z</time>
      </trkpt>
      <trkpt lat="43.679817980155349" lon="-7.651155022904277">
        <ele>298.14999999999998</ele>
        <time>2025-04-30T09:12:09Z</time>
      </trkpt>
      <trkpt lat="43.679882017895579" lon="-7.651204979047179">
        <ele>295.74000000000001</ele>
        <time>2025-04-30T09:12:10Z</time>
      </trkpt>
      <trkpt lat="43.679966004565358" lon="-7.651229035109282">
        <ele>293.33999999999997</ele>
        <time>2025-04-30T09:12:11Z</time>
      </trkpt>
      <trkpt lat="43.680058037862182" lon="-7.651255019009113">
        <ele>290.94</ele>
        <time>2025-04-30T09:12:12Z</time>
      </trkpt>
      <trkpt lat="43.680144958198071" lon="-7.651279997080565">
        <ele>288.52999999999997</ele>
        <time>2025-04-30T09:12:13Z</time>
      </trkpt>
      <trkpt lat="43.680237997323275" lon="-7.651265999302268">
        <ele>286.61000000000001</ele>
        <time>2025-04-30T09:12:14Z</time>
      </trkpt>
      <trkpt lat="43.680317960679531" lon="-7.651230962947011">
        <ele>284.69</ele>
        <time>2025-04-30T09:12:15Z</time>
      </trkpt>
      <trkpt lat="43.680469002574682" lon="-7.651051003485918">
        <ele>280.83999999999997</ele>
        <time>2025-04-30T09:12:17Z</time>
      </trkpt>
      <trkpt lat="43.680547960102558" lon="-7.651008004322648">
        <ele>279.39999999999998</ele>
        <time>2025-04-30T09:12:18Z</time>
      </trkpt>
      <trkpt lat="43.680802015587687" lon="-7.650870038196445">
        <ele>274.58999999999997</ele>
        <time>2025-04-30T09:12:21Z</time>
      </trkpt>
      <trkpt lat="43.680992033332586" lon="-7.650767024606466">
        <ele>270.75</ele>
        <time>2025-04-30T09:12:23Z</time>
      </trkpt>
      <trkpt lat="43.681364022195339" lon="-7.650597039610148">
        <ele>262.10000000000002</ele>
        <time>2025-04-30T09:12:27Z</time>
      </trkpt>
      <trkpt lat="43.681462006643414" lon="-7.650564014911652">
        <ele>260.17000000000002</ele>
        <time>2025-04-30T09:12:28Z</time>
      </trkpt>
      <trkpt lat="43.681554039940238" lon="-7.650533001869917">
        <ele>257.76999999999998</ele>
        <time>2025-04-30T09:12:29Z</time>
      </trkpt>
      <trkpt lat="43.681639032438397" lon="-7.650505006313324">
        <ele>255.84999999999999</ele>
        <time>2025-04-30T09:12:30Z</time>
      </trkpt>
      <trkpt lat="43.681725030764937" lon="-7.65047600492835">
        <ele>254.41</ele>
        <time>2025-04-30T09:12:31Z</time>
      </trkpt>
      <trkpt lat="43.681813962757587" lon="-7.650447003543377">
        <ele>253.44</ele>
        <time>2025-04-30T09:12:32Z</time>
      </trkpt>
      <trkpt lat="43.6819670163095" lon="-7.650426970794797">
        <ele>252.47999999999999</ele>
        <time>2025-04-30T09:12:33Z</time>
      </trkpt>
      <trkpt lat="43.682163991034031" lon="-7.650493020191789">
        <ele>251.03999999999999</ele>
        <time>2025-04-30T09:12:35Z</time>
      </trkpt>
      <trkpt lat="43.682267004624009" lon="-7.650556974112988">
        <ele>250.56</ele>
        <time>2025-04-30T09:12:36Z</time>
      </trkpt>
      <trkpt lat="43.682343028485775" lon="-7.650607014074922">
        <ele>250.08000000000001</ele>
        <time>2025-04-30T09:12:37Z</time>
      </trkpt>
      <trkpt lat="43.682434977963567" lon="-7.650669040158391">
        <ele>250.56</ele>
        <time>2025-04-30T09:12:38Z</time>
      </trkpt>
      <trkpt lat="43.682489963248372" lon="-7.650736011564732">
        <ele>251.52000000000001</ele>
        <time>2025-04-30T09:12:39Z</time>
      </trkpt>
      <trkpt lat="43.6825489718467" lon="-7.650808012112975">
        <ele>252.96000000000001</ele>
        <time>2025-04-30T09:12:40Z</time>
      </trkpt>
      <trkpt lat="43.682605968788266" lon="-7.650878001004458">
        <ele>254.41</ele>
        <time>2025-04-30T09:12:41Z</time>
      </trkpt>
      <trkpt lat="43.682658020406961" lon="-7.650942038744688">
        <ele>255.84999999999999</ele>
        <time>2025-04-30T09:12:42Z</time>
      </trkpt>
      <trkpt lat="43.682932024821639" lon="-7.651250995695591">
        <ele>264.98000000000002</ele>
        <time>2025-04-30T09:12:50Z</time>
      </trkpt>
      <trkpt lat="43.683250034227967" lon="-7.6515700109303">
        <ele>268.82999999999998</ele>
        <time>2025-04-30T09:13:00Z</time>
      </trkpt>
      <trkpt lat="43.683251040056348" lon="-7.651573028415442">
        <ele>269.31</ele>
        <time>2025-04-30T09:13:01Z</time>
      </trkpt>
      <trkpt lat="43.683267971500754" lon="-7.65170001424849">
        <ele>269.79000000000002</ele>
        <time>2025-04-30T09:13:03Z</time>
      </trkpt>
      <trkpt lat="43.68327802978456" lon="-7.651773020625114">
        <ele>270.26999999999998</ele>
        <time>2025-04-30T09:13:04Z</time>
      </trkpt>
      <trkpt lat="43.683289010077715" lon="-7.651854995638132">
        <ele>270.26999999999998</ele>
        <time>2025-04-30T09:13:05Z</time>
      </trkpt>
      <trkpt lat="43.683314993977547" lon="-7.652041995897889">
        <ele>270.75</ele>
        <time>2025-04-30T09:13:06Z</time>
      </trkpt>
      <trkpt lat="43.683331003412604" lon="-7.65206404030323">
        <ele>270.75</ele>
        <time>2025-04-30T09:13:07Z</time>
      </trkpt>
      <trkpt lat="43.683440973982215" lon="-7.652209969237447">
        <ele>270.75</ele>
        <time>2025-04-30T09:13:09Z</time>
      </trkpt>
      <trkpt lat="43.683812040835619" lon="-7.653030976653099">
        <ele>268.35000000000002</ele>
        <time>2025-04-30T09:13:16Z</time>
      </trkpt>
      <trkpt lat="43.683820003643632" lon="-7.653171960264444">
        <ele>267.86000000000001</ele>
        <time>2025-04-30T09:13:17Z</time>
      </trkpt>
      <trkpt lat="43.683834001421928" lon="-7.653431966900826">
        <ele>267.38</ele>
        <time>2025-04-30T09:13:19Z</time>
      </trkpt>
      <trkpt lat="43.683839030563831" lon="-7.653532968834043">
        <ele>266.89999999999998</ele>
        <time>2025-04-30T09:13:20Z</time>
      </trkpt>
      <trkpt lat="43.683851016685367" lon="-7.653759028762579">
        <ele>266.42000000000002</ele>
        <time>2025-04-30T09:13:21Z</time>
      </trkpt>
      <trkpt lat="43.683910025283694" lon="-7.65380303375423">
        <ele>266.42000000000002</ele>
        <time>2025-04-30T09:13:22Z</time>
      </trkpt>
      <trkpt lat="43.683981020003557" lon="-7.653858019039035">
        <ele>266.42000000000002</ele>
        <time>2025-04-30T09:13:23Z</time>
      </trkpt>
      <trkpt lat="43.684129966422915" lon="-7.653973018750548">
        <ele>266.42000000000002</ele>
        <time>2025-04-30T09:13:24Z</time>
      </trkpt>
      <trkpt lat="43.684129966422915" lon="-7.653973018750548">
        <ele>266.42000000000002</ele>
        <time>2025-04-30T09:13:25Z</time>
      </trkpt>
      <trkpt lat="43.684165002778172" lon="-7.654073014855385">
        <ele>265.94</ele>
        <time>2025-04-30T09:13:26Z</time>
      </trkpt>
      <trkpt lat="43.684206996113062" lon="-7.654194971546531">
        <ele>265.94</ele>
        <time>2025-04-30T09:13:27Z</time>
      </trkpt>
      <trkpt lat="43.684247983619571" lon="-7.654315000399947">
        <ele>265.94</ele>
        <time>2025-04-30T09:13:28Z</time>
      </trkpt>
      <trkpt lat="43.684283019974828" lon="-7.654416002333164">
        <ele>265.45999999999998</ele>
        <time>2025-04-30T09:13:29Z</time>
      </trkpt>
      <trkpt lat="43.684307998046279" lon="-7.65449102036655">
        <ele>264.5</ele>
        <time>2025-04-30T09:13:30Z</time>
      </trkpt>
      <trkpt lat="43.684400031343102" lon="-7.654651030898094">
        <ele>264.01999999999998</ele>
        <time>2025-04-30T09:13:31Z</time>
      </trkpt>
      <trkpt lat="43.684484018012881" lon="-7.654628986492753">
        <ele>263.54000000000002</ele>
        <time>2025-04-30T09:13:32Z</time>
      </trkpt>
      <trkpt lat="43.684575967490673" lon="-7.654604008421302">
        <ele>263.06</ele>
        <time>2025-04-30T09:13:33Z</time>
      </trkpt>
      <trkpt lat="43.684664983302355" lon="-7.654580036178231">
        <ele>262.10000000000002</ele>
        <time>2025-04-30T09:13:34Z</time>
      </trkpt>
      <trkpt lat="43.684735978022218" lon="-7.65447199344635">
        <ele>261.62</ele>
        <time>2025-04-30T09:13:35Z</time>
      </trkpt>
      <trkpt lat="43.684774031862617" lon="-7.654392030090094">
        <ele>261.13999999999999</ele>
        <time>2025-04-30T09:13:36Z</time>
      </trkpt>
      <trkpt lat="43.684817031025887" lon="-7.654301002621651">
        <ele>260.64999999999998</ele>
        <time>2025-04-30T09:13:37Z</time>
      </trkpt>
      <trkpt lat="43.684862963855267" lon="-7.654204024001956">
        <ele>259.69</ele>
        <time>2025-04-30T09:13:38Z</time>
      </trkpt>
      <trkpt lat="43.684880984947085" lon="-7.654165970161557">
        <ele>258.25</ele>
        <time>2025-04-30T09:13:39Z</time>
      </trkpt>
      <trkpt lat="43.684965977445245" lon="-7.654071003198624">
        <ele>256.32999999999998</ele>
        <time>2025-04-30T09:13:40Z</time>
      </trkpt>
      <trkpt lat="43.685028003528714" lon="-7.654001014307141">
        <ele>254.41</ele>
        <time>2025-04-30T09:13:41Z</time>
      </trkpt>
      <trkpt lat="43.685071002691984" lon="-7.653970001265407">
        <ele>252.96000000000001</ele>
        <time>2025-04-30T09:13:42Z</time>
      </trkpt>
      <trkpt lat="43.685160018503666" lon="-7.653951980173588">
        <ele>251.52000000000001</ele>
        <time>2025-04-30T09:13:43Z</time>
      </trkpt>
      <trkpt lat="43.6852359585464" lon="-7.653979975730181">
        <ele>250.08000000000001</ele>
        <time>2025-04-30T09:13:44Z</time>
      </trkpt>
      <trkpt lat="43.68534198962152" lon="-7.654020041227341">
        <ele>249.12</ele>
        <time>2025-04-30T09:13:45Z</time>
      </trkpt>
      <trkpt lat="43.685464030131698" lon="-7.65406496822834">
        <ele>247.68000000000001</ele>
        <time>2025-04-30T09:13:46Z</time>
      </trkpt>
      <trkpt lat="43.685583975166082" lon="-7.654110984876752">
        <ele>246.22999999999999</ele>
        <time>2025-04-30T09:13:47Z</time>
      </trkpt>
      <trkpt lat="43.685675002634525" lon="-7.654145015403628">
        <ele>244.31</ele>
        <time>2025-04-30T09:13:48Z</time>
      </trkpt>
      <trkpt lat="43.685811962932348" lon="-7.654106039553881">
        <ele>243.34999999999999</ele>
        <time>2025-04-30T09:13:49Z</time>
      </trkpt>
      <trkpt lat="43.685872983187437" lon="-7.65402196906507">
        <ele>241.43000000000001</ele>
        <time>2025-04-30T09:13:50Z</time>
      </trkpt>
      <trkpt lat="43.685889998450875" lon="-7.653994979336858">
        <ele>239.99000000000001</ele>
        <time>2025-04-30T09:13:51Z</time>
      </trkpt>
      <trkpt lat="43.685907013714314" lon="-7.653863970190287">
        <ele>238.53999999999999</ele>
        <time>2025-04-30T09:13:52Z</time>
      </trkpt>
      <trkpt lat="43.685923023149371" lon="-7.653735978528857">
        <ele>236.62</ele>
        <time>2025-04-30T09:13:53Z</time>
      </trkpt>
      <trkpt lat="43.685942972078919" lon="-7.653586026281118">
        <ele>234.69999999999999</ele>
        <time>2025-04-30T09:13:54Z</time>
      </trkpt>
      <trkpt lat="43.685954036191106" lon="-7.653501033782959">
        <ele>233.25999999999999</ele>
        <time>2025-04-30T09:13:55Z</time>
      </trkpt>
      <trkpt lat="43.686018995940685" lon="-7.653305986896157">
        <ele>231.33000000000001</ele>
        <time>2025-04-30T09:13:56Z</time>
      </trkpt>
      <trkpt lat="43.686071969568729" lon="-7.653218982741237">
        <ele>229.41</ele>
        <time>2025-04-30T09:13:57Z</time>
      </trkpt>
      <trkpt lat="43.686126032844186" lon="-7.653179001063108">
        <ele>227.97</ele>
        <time>2025-04-30T09:13:58Z</time>
      </trkpt>
      <trkpt lat="43.686245977878571" lon="-7.653169026598334">
        <ele>226.53</ele>
        <time>2025-04-30T09:13:59Z</time>
      </trkpt>
      <trkpt lat="43.686338011175394" lon="-7.65316198579967">
        <ele>225.56999999999999</ele>
        <time>2025-04-30T09:14:00Z</time>
      </trkpt>
      <trkpt lat="43.686398025602102" lon="-7.653176989406347">
        <ele>225.56999999999999</ele>
        <time>2025-04-30T09:14:01Z</time>
      </trkpt>
      <trkpt lat="43.686458962038159" lon="-7.653253013268113">
        <ele>225.09</ele>
        <time>2025-04-30T09:14:02Z</time>
      </trkpt>
      <trkpt lat="43.686527023091912" lon="-7.653336999937892">
        <ele>224.61000000000001</ele>
        <time>2025-04-30T09:14:03Z</time>
      </trkpt>
      <trkpt lat="43.68658603169024" lon="-7.653445964679122">
        <ele>224.12</ele>
        <time>2025-04-30T09:14:04Z</time>
      </trkpt>
      <trkpt lat="43.686646968126297" lon="-7.653589965775609">
        <ele>223.16</ele>
        <time>2025-04-30T09:14:05Z</time>
      </trkpt>
      <trkpt lat="43.687071008607745" lon="-7.65449202619493">
        <ele>215.47</ele>
        <time>2025-04-30T09:14:11Z</time>
      </trkpt>
      <trkpt lat="43.68716899305582" lon="-7.654649019241333">
        <ele>214.50999999999999</ele>
        <time>2025-04-30T09:14:12Z</time>
      </trkpt>
      <trkpt lat="43.687509968876839" lon="-7.654843982309103">
        <ele>212.11000000000001</ele>
        <time>2025-04-30T09:14:15Z</time>
      </trkpt>
      <trkpt lat="43.687623040750623" lon="-7.654894022271037">
        <ele>211.15000000000001</ele>
        <time>2025-04-30T09:14:16Z</time>
      </trkpt>
      <trkpt lat="43.687734017148614" lon="-7.654941966757178">
        <ele>210.19</ele>
        <time>2025-04-30T09:14:17Z</time>
      </trkpt>
      <trkpt lat="43.687839964404702" lon="-7.65498798340559">
        <ele>209.69999999999999</ele>
        <time>2025-04-30T09:14:18Z</time>
      </trkpt>
      <trkpt lat="43.687970973551273" lon="-7.655045986175537">
        <ele>208.74000000000001</ele>
        <time>2025-04-30T09:14:19Z</time>
      </trkpt>
      <trkpt lat="43.688044985756278" lon="-7.655130978673697">
        <ele>207.78</ele>
        <time>2025-04-30T09:14:20Z</time>
      </trkpt>
      <trkpt lat="43.688666000962257" lon="-7.655803961679339">
        <ele>197.21000000000001</ele>
        <time>2025-04-30T09:14:27Z</time>
      </trkpt>
      <trkpt lat="43.688728027045727" lon="-7.655852995812893">
        <ele>195.28</ele>
        <time>2025-04-30T09:14:28Z</time>
      </trkpt>
      <trkpt lat="43.688808996230364" lon="-7.655794993042946">
        <ele>193.84</ele>
        <time>2025-04-30T09:14:29Z</time>
      </trkpt>
      <trkpt lat="43.688828023150563" lon="-7.655757023021579">
        <ele>192.88</ele>
        <time>2025-04-30T09:14:30Z</time>
      </trkpt>
      <trkpt lat="43.68884596042335" lon="-7.655693991109729">
        <ele>191.44</ele>
        <time>2025-04-30T09:14:31Z</time>
      </trkpt>
      <trkpt lat="43.688826011493802" lon="-7.655622996389866">
        <ele>190.47999999999999</ele>
        <time>2025-04-30T09:14:32Z</time>
      </trkpt>
      <trkpt lat="43.68879902176559" lon="-7.655527023598552">
        <ele>189.52000000000001</ele>
        <time>2025-04-30T09:14:33Z</time>
      </trkpt>
      <trkpt lat="43.688771026208997" lon="-7.655426021665335">
        <ele>188.08000000000001</ele>
        <time>2025-04-30T09:14:34Z</time>
      </trkpt>
      <trkpt lat="43.688743030652404" lon="-7.655324013903737">
        <ele>187.11000000000001</ele>
        <time>2025-04-30T09:14:35Z</time>
      </trkpt>
      <trkpt lat="43.68871402926743" lon="-7.655221000313759">
        <ele>185.66999999999999</ele>
        <time>2025-04-30T09:14:36Z</time>
      </trkpt>
      <trkpt lat="43.688701037317514" lon="-7.655141036957502">
        <ele>184.71000000000001</ele>
        <time>2025-04-30T09:14:37Z</time>
      </trkpt>
      <trkpt lat="43.688701037317514" lon="-7.655047997832298">
        <ele>183.75</ele>
        <time>2025-04-30T09:14:38Z</time>
      </trkpt>
      <trkpt lat="43.688701037317514" lon="-7.654956970363855">
        <ele>182.78999999999999</ele>
        <time>2025-04-30T09:14:39Z</time>
      </trkpt>
      <trkpt lat="43.688701037317514" lon="-7.654873989522457">
        <ele>182.31</ele>
        <time>2025-04-30T09:14:40Z</time>
      </trkpt>
      <trkpt lat="43.688724003732204" lon="-7.654773993417621">
        <ele>182.31</ele>
        <time>2025-04-30T09:14:41Z</time>
      </trkpt>
      <trkpt lat="43.688792986795306" lon="-7.65472898259759">
        <ele>182.78999999999999</ele>
        <time>2025-04-30T09:14:42Z</time>
      </trkpt>
      <trkpt lat="43.688872028142214" lon="-7.654679026454687">
        <ele>184.22999999999999</ele>
        <time>2025-04-30T09:14:43Z</time>
      </trkpt>
      <trkpt lat="43.689625980332494" lon="-7.654194971546531">
        <ele>197.69</ele>
        <time>2025-04-30T09:14:52Z</time>
      </trkpt>
      <trkpt lat="43.689625980332494" lon="-7.654194971546531">
        <ele>199.13</ele>
        <time>2025-04-30T09:14:53Z</time>
      </trkpt>
      <trkpt lat="43.689733017235994" lon="-7.65412699431181">
        <ele>200.09</ele>
        <time>2025-04-30T09:14:54Z</time>
      </trkpt>
      <trkpt lat="43.689771993085742" lon="-7.654101010411978">
        <ele>201.53</ele>
        <time>2025-04-30T09:14:55Z</time>
      </trkpt>
      <trkpt lat="43.68980803526938" lon="-7.654078966006637">
        <ele>202.97999999999999</ele>
        <time>2025-04-30T09:14:56Z</time>
      </trkpt>
      <trkpt lat="43.689837958663702" lon="-7.654059017077088">
        <ele>204.41999999999999</ele>
        <time>2025-04-30T09:14:57Z</time>
      </trkpt>
      <trkpt lat="43.689898978918791" lon="-7.65402096323669">
        <ele>205.38</ele>
        <time>2025-04-30T09:14:58Z</time>
      </trkpt>
      <trkpt lat="43.690142976120114" lon="-7.65387000516057">
        <ele>209.69999999999999</ele>
        <time>2025-04-30T09:15:02Z</time>
      </trkpt>
      <trkpt lat="43.690194021910429" lon="-7.653838992118835">
        <ele>210.66999999999999</ele>
        <time>2025-04-30T09:15:03Z</time>
      </trkpt>
      <trkpt lat="43.690230986103415" lon="-7.653816025704145">
        <ele>212.11000000000001</ele>
        <time>2025-04-30T09:15:04Z</time>
      </trkpt>
      <trkpt lat="43.690288988873363" lon="-7.653736984357238">
        <ele>213.06999999999999</ele>
        <time>2025-04-30T09:15:05Z</time>
      </trkpt>
      <trkpt lat="43.690288988873363" lon="-7.653691973537207">
        <ele>213.55000000000001</ele>
        <time>2025-04-30T09:15:06Z</time>
      </trkpt>
      <trkpt lat="43.690288988873363" lon="-7.65363397076726">
        <ele>214.50999999999999</ele>
        <time>2025-04-30T09:15:07Z</time>
      </trkpt>
      <trkpt lat="43.690288988873363" lon="-7.653544032946229">
        <ele>214.99000000000001</ele>
        <time>2025-04-30T09:15:08Z</time>
      </trkpt>
      <trkpt lat="43.690299969166517" lon="-7.653524000197649">
        <ele>215.94999999999999</ele>
        <time>2025-04-30T09:15:09Z</time>
      </trkpt>
      <trkpt lat="43.690339028835297" lon="-7.653460968285799">
        <ele>216.43000000000001</ele>
        <time>2025-04-30T09:15:10Z</time>
      </trkpt>
      <trkpt lat="43.690381022170186" lon="-7.653389973565936">
        <ele>216.91</ele>
        <time>2025-04-30T09:15:11Z</time>
      </trkpt>
      <trkpt lat="43.69043399579823" lon="-7.653320990502834">
        <ele>217.40000000000001</ele>
        <time>2025-04-30T09:15:12Z</time>
      </trkpt>
      <trkpt lat="43.690513959154487" lon="-7.653285032138228">
        <ele>217.40000000000001</ele>
        <time>2025-04-30T09:15:13Z</time>
      </trkpt>
      <trkpt lat="43.690612027421594" lon="-7.65326701104641">
        <ele>216.91</ele>
        <time>2025-04-30T09:15:14Z</time>
      </trkpt>
      <trkpt lat="43.691606959328055" lon="-7.653085961937904">
        <ele>208.25999999999999</ele>
        <time>2025-04-30T09:15:21Z</time>
      </trkpt>
      <trkpt lat="43.691886998713017" lon="-7.653034999966621">
        <ele>205.38</ele>
        <time>2025-04-30T09:15:23Z</time>
      </trkpt>
      <trkpt lat="43.692000992596149" lon="-7.653044974431396">
        <ele>203.94</ele>
        <time>2025-04-30T09:15:24Z</time>
      </trkpt>
      <trkpt lat="43.692098977044225" lon="-7.653108006343246">
        <ele>202.00999999999999</ele>
        <time>2025-04-30T09:15:25Z</time>
      </trkpt>
      <trkpt lat="43.692410029470921" lon="-7.653358038514853">
        <ele>196.25</ele>
        <time>2025-04-30T09:15:28Z</time>
      </trkpt>
      <trkpt lat="43.692506002262235" lon="-7.653317973017693">
        <ele>194.31999999999999</ele>
        <time>2025-04-30T09:15:29Z</time>
      </trkpt>
      <trkpt lat="43.692557970061898" lon="-7.653240021318197">
        <ele>192.40000000000001</ele>
        <time>2025-04-30T09:15:30Z</time>
      </trkpt>
      <trkpt lat="43.69262401945889" lon="-7.653141031041741">
        <ele>190.96000000000001</ele>
        <time>2025-04-30T09:15:31Z</time>
      </trkpt>
      <trkpt lat="43.692704988643527" lon="-7.653018990531564">
        <ele>189.03999999999999</ele>
        <time>2025-04-30T09:15:32Z</time>
      </trkpt>
      <trkpt lat="43.69279601611197" lon="-7.652884041890502">
        <ele>187.11000000000001</ele>
        <time>2025-04-30T09:15:33Z</time>
      </trkpt>
      <trkpt lat="43.692891988903284" lon="-7.652739034965634">
        <ele>185.19</ele>
        <time>2025-04-30T09:15:34Z</time>
      </trkpt>
      <trkpt lat="43.693093992769718" lon="-7.652454972267151">
        <ele>181.34999999999999</ele>
        <time>2025-04-30T09:15:36Z</time>
      </trkpt>
      <trkpt lat="43.693201029673219" lon="-7.652348019182682">
        <ele>178.94</ele>
        <time>2025-04-30T09:15:37Z</time>
      </trkpt>
      <trkpt lat="43.693314017727971" lon="-7.652298985049129">
        <ele>176.53999999999999</ele>
        <time>2025-04-30T09:15:38Z</time>
      </trkpt>
      <trkpt lat="43.693410996347666" lon="-7.652329998090863">
        <ele>174.62</ele>
        <time>2025-04-30T09:15:39Z</time>
      </trkpt>
      <trkpt lat="43.693520966917276" lon="-7.65236503444612">
        <ele>172.69</ele>
        <time>2025-04-30T09:15:40Z</time>
      </trkpt>
      <trkpt lat="43.693630015477538" lon="-7.652399986982346">
        <ele>170.77000000000001</ele>
        <time>2025-04-30T09:15:41Z</time>
      </trkpt>
      <trkpt lat="43.693729005753994" lon="-7.652432005852461">
        <ele>168.37</ele>
        <time>2025-04-30T09:15:42Z</time>
      </trkpt>
      <trkpt lat="43.693831013515592" lon="-7.65245002694428">
        <ele>166.44999999999999</ele>
        <time>2025-04-30T09:15:43Z</time>
      </trkpt>
      <trkpt lat="43.693926986306906" lon="-7.65245002694428">
        <ele>164.52000000000001</ele>
        <time>2025-04-30T09:15:44Z</time>
      </trkpt>
      <trkpt lat="43.69400099851191" lon="-7.652396969497204">
        <ele>162.59999999999999</ele>
        <time>2025-04-30T09:15:45Z</time>
      </trkpt>
      <trkpt lat="43.694055983796716" lon="-7.652312982827425">
        <ele>160.68000000000001</ele>
        <time>2025-04-30T09:15:46Z</time>
      </trkpt>
      <trkpt lat="43.694108035415411" lon="-7.65219203196466">
        <ele>158.75</ele>
        <time>2025-04-30T09:15:47Z</time>
      </trkpt>
      <trkpt lat="43.694108035415411" lon="-7.652056999504566">
        <ele>156.83000000000001</ele>
        <time>2025-04-30T09:15:48Z</time>
      </trkpt>
      <trkpt lat="43.694098982959986" lon="-7.651877962052822">
        <ele>154.43000000000001</ele>
        <time>2025-04-30T09:15:49Z</time>
      </trkpt>
      <trkpt lat="43.694070987403393" lon="-7.651691967621446">
        <ele>152.99000000000001</ele>
        <time>2025-04-30T09:15:50Z</time>
      </trkpt>
      <trkpt lat="43.694045003503561" lon="-7.651519970968366">
        <ele>151.53999999999999</ele>
        <time>2025-04-30T09:15:51Z</time>
      </trkpt>
      <trkpt lat="43.69402295909822" lon="-7.651372030377388">
        <ele>150.09999999999999</ele>
        <time>2025-04-30T09:15:52Z</time>
      </trkpt>
      <trkpt lat="43.694008961319923" lon="-7.651212019845843">
        <ele>149.13999999999999</ele>
        <time>2025-04-30T09:15:53Z</time>
      </trkpt>
      <trkpt lat="43.694080039858818" lon="-7.651085034012795">
        <ele>148.18000000000001</ele>
        <time>2025-04-30T09:15:54Z</time>
      </trkpt>
      <trkpt lat="43.694160003215075" lon="-7.650943966582418">
        <ele>147.22</ele>
        <time>2025-04-30T09:15:55Z</time>
      </trkpt>
      <trkpt lat="43.694242984056473" lon="-7.65079602599144">
        <ele>146.25999999999999</ele>
        <time>2025-04-30T09:15:56Z</time>
      </trkpt>
      <trkpt lat="43.694498967379332" lon="-7.650342984125018">
        <ele>141.44999999999999</ele>
        <time>2025-04-30T09:15:59Z</time>
      </trkpt>
      <trkpt lat="43.69457901455462" lon="-7.650199988856912">
        <ele>140.00999999999999</ele>
        <time>2025-04-30T09:16:00Z</time>
      </trkpt>
      <trkpt lat="43.694727960973978" lon="-7.649935958907008">
        <ele>137.61000000000001</ele>
        <time>2025-04-30T09:16:02Z</time>
      </trkpt>
      <trkpt lat="43.694796022027731" lon="-7.649816013872623">
        <ele>136.16</ele>
        <time>2025-04-30T09:16:03Z</time>
      </trkpt>
      <trkpt lat="43.694872967898846" lon="-7.649689028039575">
        <ele>134.72</ele>
        <time>2025-04-30T09:16:04Z</time>
      </trkpt>
      <trkpt lat="43.694959972053766" lon="-7.64959498308599">
        <ele>133.28</ele>
        <time>2025-04-30T09:16:05Z</time>
      </trkpt>
      <trkpt lat="43.695047982037067" lon="-7.649502027779818">
        <ele>131.84</ele>
        <time>2025-04-30T09:16:06Z</time>
      </trkpt>
      <trkpt lat="43.695131968706846" lon="-7.649412006139755">
        <ele>130.40000000000001</ele>
        <time>2025-04-30T09:16:07Z</time>
      </trkpt>
      <trkpt lat="43.6951810028404" lon="-7.649360038340092">
        <ele>129.43000000000001</ele>
        <time>2025-04-30T09:16:08Z</time>
      </trkpt>
      <trkpt lat="43.695216039195657" lon="-7.649244032800198">
        <ele>127.98999999999999</ele>
        <time>2025-04-30T09:16:09Z</time>
      </trkpt>
      <trkpt lat="43.695245962589979" lon="-7.649130960926414">
        <ele>126.55</ele>
        <time>2025-04-30T09:16:10Z</time>
      </trkpt>
      <trkpt lat="43.695260966196656" lon="-7.648961981758475">
        <ele>125.11</ele>
        <time>2025-04-30T09:16:11Z</time>
      </trkpt>
      <trkpt lat="43.695276975631714" lon="-7.648768024519086">
        <ele>123.67</ele>
        <time>2025-04-30T09:16:12Z</time>
      </trkpt>
      <trkpt lat="43.695495994761586" lon="-7.647169008851051">
        <ele>117.90000000000001</ele>
        <time>2025-04-30T09:16:20Z</time>
      </trkpt>
      <trkpt lat="43.69574099779129" lon="-7.64516900293529">
        <ele>120.78</ele>
        <time>2025-04-30T09:16:30Z</time>
      </trkpt>
      <trkpt lat="43.695709984749556" lon="-7.644983008503914">
        <ele>120.3</ele>
        <time>2025-04-30T09:16:31Z</time>
      </trkpt>
      <trkpt lat="43.69567796587944" lon="-7.644791984930635">
        <ele>120.78</ele>
        <time>2025-04-30T09:16:32Z</time>
      </trkpt>
      <trkpt lat="43.695442015305161" lon="-7.643498992547393">
        <ele>119.34</ele>
        <time>2025-04-30T09:16:40Z</time>
      </trkpt>
      <trkpt lat="43.695406978949904" lon="-7.642106004059315">
        <ele>126.06999999999999</ele>
        <time>2025-04-30T09:16:49Z</time>
      </trkpt>
      <trkpt lat="43.695420976728201" lon="-7.64203098602593">
        <ele>126.55</ele>
        <time>2025-04-30T09:16:50Z</time>
      </trkpt>
      <trkpt lat="43.695506975054741" lon="-7.641874998807907">
        <ele>127.98999999999999</ele>
        <time>2025-04-30T09:16:54Z</time>
      </trkpt>
      <trkpt lat="43.695533964782953" lon="-7.6419029943645">
        <ele>128.47</ele>
        <time>2025-04-30T09:16:55Z</time>
      </trkpt>
      <trkpt lat="43.695579981431365" lon="-7.641948005184531">
        <ele>128.94999999999999</ele>
        <time>2025-04-30T09:16:56Z</time>
      </trkpt>
      <trkpt lat="43.696279032155871" lon="-7.642416972666979">
        <ele>135.19999999999999</ele>
        <time>2025-04-30T09:17:04Z</time>
      </trkpt>
      <trkpt lat="43.696862999349833" lon="-7.6427629776299">
        <ele>140.49000000000001</ele>
        <time>2025-04-30T09:17:09Z</time>
      </trkpt>
      <trkpt lat="43.696966012939811" lon="-7.642818968743086">
        <ele>141.44999999999999</ele>
        <time>2025-04-30T09:17:10Z</time>
      </trkpt>
      <trkpt lat="43.697056034579873" lon="-7.642908990383148">
        <ele>142.41</ele>
        <time>2025-04-30T09:17:11Z</time>
      </trkpt>
      <trkpt lat="43.697133986279368" lon="-7.642987025901675">
        <ele>143.37</ele>
        <time>2025-04-30T09:17:12Z</time>
      </trkpt>
      <trkpt lat="43.697174973785877" lon="-7.643120968714356">
        <ele>144.81999999999999</ele>
        <time>2025-04-30T09:17:13Z</time>
      </trkpt>
      <trkpt lat="43.697218978777528" lon="-7.643261030316353">
        <ele>145.78</ele>
        <time>2025-04-30T09:17:14Z</time>
      </trkpt>
      <trkpt lat="43.697235994040966" lon="-7.64340503141284">
        <ele>146.74000000000001</ele>
        <time>2025-04-30T09:17:15Z</time>
      </trkpt>
      <trkpt lat="43.697225013747811" lon="-7.643566969782114">
        <ele>148.18000000000001</ele>
        <time>2025-04-30T09:17:16Z</time>
      </trkpt>
      <trkpt lat="43.697214033454657" lon="-7.643735026940703">
        <ele>149.13999999999999</ele>
        <time>2025-04-30T09:17:17Z</time>
      </trkpt>
      <trkpt lat="43.697181008756161" lon="-7.644237019121647">
        <ele>152.50999999999999</ele>
        <time>2025-04-30T09:17:20Z</time>
      </trkpt>
      <trkpt lat="43.697167010977864" lon="-7.644710009917617">
        <ele>155.87</ele>
        <time>2025-04-30T09:17:23Z</time>
      </trkpt>
      <trkpt lat="43.697219984605908" lon="-7.645031036809087">
        <ele>158.27000000000001</ele>
        <time>2025-04-30T09:17:25Z</time>
      </trkpt>
      <trkpt lat="43.697263989597559" lon="-7.6451909635216">
        <ele>159.72</ele>
        <time>2025-04-30T09:17:26Z</time>
      </trkpt>
      <trkpt lat="43.697336995974183" lon="-7.645305041223764">
        <ele>160.68000000000001</ele>
        <time>2025-04-30T09:17:27Z</time>
      </trkpt>
      <trkpt lat="43.697407990694046" lon="-7.645391961559653">
        <ele>162.12</ele>
        <time>2025-04-30T09:17:28Z</time>
      </trkpt>
      <trkpt lat="43.697507986798882" lon="-7.645402019843459">
        <ele>163.08000000000001</ele>
        <time>2025-04-30T09:17:29Z</time>
      </trkpt>
      <trkpt lat="43.697621980682015" lon="-7.645402019843459">
        <ele>165</ele>
        <time>2025-04-30T09:17:30Z</time>
      </trkpt>
      <trkpt lat="43.697741003707051" lon="-7.645336976274848">
        <ele>166.44999999999999</ele>
        <time>2025-04-30T09:17:31Z</time>
      </trkpt>
      <trkpt lat="43.697862038388848" lon="-7.645268999040127">
        <ele>167.88999999999999</ele>
        <time>2025-04-30T09:17:32Z</time>
      </trkpt>
      <trkpt lat="43.698095977306366" lon="-7.64518903568387">
        <ele>170.77000000000001</ele>
        <time>2025-04-30T09:17:34Z</time>
      </trkpt>
      <trkpt lat="43.698207037523389" lon="-7.645180989056826">
        <ele>171.72999999999999</ele>
        <time>2025-04-30T09:17:35Z</time>
      </trkpt>
      <trkpt lat="43.698319019749761" lon="-7.645201021805406">
        <ele>172.69</ele>
        <time>2025-04-30T09:17:36Z</time>
      </trkpt>
      <trkpt lat="43.698432007804513" lon="-7.645261958241463">
        <ele>173.16999999999999</ele>
        <time>2025-04-30T09:17:37Z</time>
      </trkpt>
      <trkpt lat="43.698541978374124" lon="-7.64532096683979">
        <ele>174.13999999999999</ele>
        <time>2025-04-30T09:17:38Z</time>
      </trkpt>
      <trkpt lat="43.698628982529044" lon="-7.64542699791491">
        <ele>174.62</ele>
        <time>2025-04-30T09:17:39Z</time>
      </trkpt>
      <trkpt lat="43.698711963370442" lon="-7.645546020939946">
        <ele>175.58000000000001</ele>
        <time>2025-04-30T09:17:40Z</time>
      </trkpt>
      <trkpt lat="43.698774995282292" lon="-7.645687004551292">
        <ele>176.53999999999999</ele>
        <time>2025-04-30T09:17:41Z</time>
      </trkpt>
      <trkpt lat="43.698831992223859" lon="-7.645816002041102">
        <ele>177.5</ele>
        <time>2025-04-30T09:17:42Z</time>
      </trkpt>
      <trkpt lat="43.69887700304389" lon="-7.645929995924234">
        <ele>178.46000000000001</ele>
        <time>2025-04-30T09:17:43Z</time>
      </trkpt>
      <trkpt lat="43.698882032185793" lon="-7.646041978150606">
        <ele>179.41999999999999</ele>
        <time>2025-04-30T09:17:44Z</time>
      </trkpt>
      <trkpt lat="43.698841966688633" lon="-7.646150020882487">
        <ele>180.87</ele>
        <time>2025-04-30T09:17:45Z</time>
      </trkpt>
      <trkpt lat="43.69876803830266" lon="-7.64624398201704">
        <ele>182.31</ele>
        <time>2025-04-30T09:17:46Z</time>
      </trkpt>
      <trkpt lat="43.698658989742398" lon="-7.646354036405683">
        <ele>183.75</ele>
        <time>2025-04-30T09:17:47Z</time>
      </trkpt>
      <trkpt lat="43.698544995859265" lon="-7.646468030288816">
        <ele>185.19</ele>
        <time>2025-04-30T09:17:48Z</time>
      </trkpt>
      <trkpt lat="43.698438964784145" lon="-7.646593004465103">
        <ele>186.15000000000001</ele>
        <time>2025-04-30T09:17:49Z</time>
      </trkpt>
      <trkpt lat="43.698362018913031" lon="-7.646731976419687">
        <ele>187.59</ele>
        <time>2025-04-30T09:17:50Z</time>
      </trkpt>
      <trkpt lat="43.698333017528057" lon="-7.646862985566258">
        <ele>188.56</ele>
        <time>2025-04-30T09:17:51Z</time>
      </trkpt>
      <trkpt lat="43.698314996436238" lon="-7.64697203412652">
        <ele>190</ele>
        <time>2025-04-30T09:17:52Z</time>
      </trkpt>
      <trkpt lat="43.698328994214535" lon="-7.647093990817666">
        <ele>190.96000000000001</ele>
        <time>2025-04-30T09:17:53Z</time>
      </trkpt>
      <trkpt lat="43.698367970064282" lon="-7.647200021892786">
        <ele>192.40000000000001</ele>
        <time>2025-04-30T09:17:54Z</time>
      </trkpt>
      <trkpt lat="43.698438964784145" lon="-7.647304963320494">
        <ele>193.36000000000001</ele>
        <time>2025-04-30T09:17:55Z</time>
      </trkpt>
      <trkpt lat="43.698511971160769" lon="-7.647415017709136">
        <ele>194.31999999999999</ele>
        <time>2025-04-30T09:17:56Z</time>
      </trkpt>
      <trkpt lat="43.698565028607845" lon="-7.647548038512468">
        <ele>194.80000000000001</ele>
        <time>2025-04-30T09:17:57Z</time>
      </trkpt>
      <trkpt lat="43.698593024164438" lon="-7.647686004638672">
        <ele>194.80000000000001</ele>
        <time>2025-04-30T09:17:58Z</time>
      </trkpt>
      <trkpt lat="43.698582965880632" lon="-7.647833023220301">
        <ele>195.77000000000001</ele>
        <time>2025-04-30T09:17:59Z</time>
      </trkpt>
      <trkpt lat="43.698572991415858" lon="-7.647990016266704">
        <ele>195.77000000000001</ele>
        <time>2025-04-30T09:18:00Z</time>
      </trkpt>
      <trkpt lat="43.698567040264606" lon="-7.648471975699067">
        <ele>197.69</ele>
        <time>2025-04-30T09:18:03Z</time>
      </trkpt>
      <trkpt lat="43.698590006679296" lon="-7.648633997887373">
        <ele>198.16999999999999</ele>
        <time>2025-04-30T09:18:04Z</time>
      </trkpt>
      <trkpt lat="43.698612973093987" lon="-7.648790990933776">
        <ele>199.13</ele>
        <time>2025-04-30T09:18:05Z</time>
      </trkpt>
      <trkpt lat="43.698636023327708" lon="-7.648952007293701">
        <ele>200.09</ele>
        <time>2025-04-30T09:18:06Z</time>
      </trkpt>
      <trkpt lat="43.698621019721031" lon="-7.649126015603542">
        <ele>201.05000000000001</ele>
        <time>2025-04-30T09:18:07Z</time>
      </trkpt>
      <trkpt lat="43.698597969487309" lon="-7.649463973939419">
        <ele>202.49000000000001</ele>
        <time>2025-04-30T09:18:09Z</time>
      </trkpt>
      <trkpt lat="43.698681034147739" lon="-7.649767985567451">
        <ele>204.41999999999999</ele>
        <time>2025-04-30T09:18:11Z</time>
      </trkpt>
      <trkpt lat="43.698721015825868" lon="-7.649918021634221">
        <ele>205.38</ele>
        <time>2025-04-30T09:18:12Z</time>
      </trkpt>
      <trkpt lat="43.698800979182124" lon="-7.650046013295651">
        <ele>206.34</ele>
        <time>2025-04-30T09:18:13Z</time>
      </trkpt>
      <trkpt lat="43.698959983885288" lon="-7.6502800360322">
        <ele>208.25999999999999</ele>
        <time>2025-04-30T09:18:15Z</time>
      </trkpt>
      <trkpt lat="43.699056040495634" lon="-7.650358993560076">
        <ele>209.22</ele>
        <time>2025-04-30T09:18:16Z</time>
      </trkpt>
      <trkpt lat="43.699171962216496" lon="-7.650453960523009">
        <ele>209.69999999999999</ele>
        <time>2025-04-30T09:18:17Z</time>
      </trkpt>
      <trkpt lat="43.699275981634855" lon="-7.650444991886616">
        <ele>210.19</ele>
        <time>2025-04-30T09:18:18Z</time>
      </trkpt>
      <trkpt lat="43.699415037408471" lon="-7.6504319999367">
        <ele>211.15000000000001</ele>
        <time>2025-04-30T09:18:19Z</time>
      </trkpt>
      <trkpt lat="43.699568007141352" lon="-7.650416996330023">
        <ele>211.63</ele>
        <time>2025-04-30T09:18:20Z</time>
      </trkpt>
      <trkpt lat="43.699703039601445" lon="-7.650405010208488">
        <ele>212.59</ele>
        <time>2025-04-30T09:18:21Z</time>
      </trkpt>
      <trkpt lat="43.700287006795406" lon="-7.650317000225186">
        <ele>218.84</ele>
        <time>2025-04-30T09:18:26Z</time>
      </trkpt>
      <trkpt lat="43.700420027598739" lon="-7.650279030203819">
        <ele>219.31999999999999</ele>
        <time>2025-04-30T09:18:27Z</time>
      </trkpt>
      <trkpt lat="43.700563022866845" lon="-7.650237958878279">
        <ele>219.80000000000001</ele>
        <time>2025-04-30T09:18:28Z</time>
      </trkpt>
      <trkpt lat="43.700957978144288" lon="-7.650238964706659">
        <ele>219.80000000000001</ele>
        <time>2025-04-30T09:18:31Z</time>
      </trkpt>
      <trkpt lat="43.701059985905886" lon="-7.650293027982116">
        <ele>220.28</ele>
        <time>2025-04-30T09:18:32Z</time>
      </trkpt>
      <trkpt lat="43.701158976182342" lon="-7.650363016873598">
        <ele>220.75999999999999</ele>
        <time>2025-04-30T09:18:33Z</time>
      </trkpt>
      <trkpt lat="43.701248997822404" lon="-7.650472987443209">
        <ele>222.19999999999999</ele>
        <time>2025-04-30T09:18:34Z</time>
      </trkpt>
      <trkpt lat="43.701342958956957" lon="-7.650588992983103">
        <ele>222.68000000000001</ele>
        <time>2025-04-30T09:18:35Z</time>
      </trkpt>
      <trkpt lat="43.701425017789006" lon="-7.65068999491632">
        <ele>223.63999999999999</ele>
        <time>2025-04-30T09:18:36Z</time>
      </trkpt>
      <trkpt lat="43.701538005843759" lon="-7.650741040706635">
        <ele>224.12</ele>
        <time>2025-04-30T09:18:37Z</time>
      </trkpt>
      <trkpt lat="43.701636996120214" lon="-7.650786973536015">
        <ele>225.09</ele>
        <time>2025-04-30T09:18:38Z</time>
      </trkpt>
      <trkpt lat="43.701717965304852" lon="-7.650758977979422">
        <ele>226.05000000000001</ele>
        <time>2025-04-30T09:18:39Z</time>
      </trkpt>
      <trkpt lat="43.70182198472321" lon="-7.65068999491632">
        <ele>226.53</ele>
        <time>2025-04-30T09:18:40Z</time>
      </trkpt>
      <trkpt lat="43.701933966949582" lon="-7.650615982711315">
        <ele>227.49000000000001</ele>
        <time>2025-04-30T09:18:41Z</time>
      </trkpt>
      <trkpt lat="43.702041003853083" lon="-7.650543982163072">
        <ele>227.97</ele>
        <time>2025-04-30T09:18:42Z</time>
      </trkpt>
      <trkpt lat="43.702136976644397" lon="-7.650502994656563">
        <ele>228.44999999999999</ele>
        <time>2025-04-30T09:18:43Z</time>
      </trkpt>
      <trkpt lat="43.702226998284459" lon="-7.650524033233523">
        <ele>228.93000000000001</ele>
        <time>2025-04-30T09:18:44Z</time>
      </trkpt>
      <trkpt lat="43.702308973297477" lon="-7.650542976334691">
        <ele>229.88999999999999</ele>
        <time>2025-04-30T09:18:45Z</time>
      </trkpt>
      <trkpt lat="43.70238097384572" lon="-7.650559991598129">
        <ele>230.84999999999999</ele>
        <time>2025-04-30T09:18:46Z</time>
      </trkpt>
      <trkpt lat="43.70246403850615" lon="-7.650580024346709">
        <ele>231.33000000000001</ele>
        <time>2025-04-30T09:18:47Z</time>
      </trkpt>
      <trkpt lat="43.702561017125845" lon="-7.650583041831851">
        <ele>231.81</ele>
        <time>2025-04-30T09:18:48Z</time>
      </trkpt>
      <trkpt lat="43.702671993523836" lon="-7.650554040446878">
        <ele>232.78</ele>
        <time>2025-04-30T09:18:49Z</time>
      </trkpt>
      <trkpt lat="43.702783975750208" lon="-7.650505006313324">
        <ele>233.74000000000001</ele>
        <time>2025-04-30T09:18:50Z</time>
      </trkpt>
      <trkpt lat="43.702884977683425" lon="-7.650461001321673">
        <ele>234.22</ele>
        <time>2025-04-30T09:18:51Z</time>
      </trkpt>
      <trkpt lat="43.7029829621315" lon="-7.650436023250222">
        <ele>234.69999999999999</ele>
        <time>2025-04-30T09:18:52Z</time>
      </trkpt>
      <trkpt lat="43.703085975721478" lon="-7.650444991886616">
        <ele>235.18000000000001</ele>
        <time>2025-04-30T09:18:53Z</time>
      </trkpt>
      <trkpt lat="43.70319502428174" lon="-7.65045496635139">
        <ele>235.66</ele>
        <time>2025-04-30T09:18:54Z</time>
      </trkpt>
      <trkpt lat="43.704297998920083" lon="-7.650641966611147">
        <ele>245.27000000000001</ele>
        <time>2025-04-30T09:19:04Z</time>
      </trkpt>
      <trkpt lat="43.704948015511036" lon="-7.650574995204806">
        <ele>248.63999999999999</ele>
        <time>2025-04-30T09:19:12Z</time>
      </trkpt>
      <trkpt lat="43.705022027716041" lon="-7.650613971054554">
        <ele>248.63999999999999</ele>
        <time>2025-04-30T09:19:13Z</time>
      </trkpt>
      <trkpt lat="43.705105008557439" lon="-7.650657976046205">
        <ele>249.12</ele>
        <time>2025-04-30T09:19:14Z</time>
      </trkpt>
      <trkpt lat="43.70519301854074" lon="-7.650706004351378">
        <ele>250.08000000000001</ele>
        <time>2025-04-30T09:19:15Z</time>
      </trkpt>
      <trkpt lat="43.705278011038899" lon="-7.650780016556382">
        <ele>250.08000000000001</ele>
        <time>2025-04-30T09:19:16Z</time>
      </trkpt>
      <trkpt lat="43.705345988273621" lon="-7.650874983519316">
        <ele>250.08000000000001</ele>
        <time>2025-04-30T09:19:17Z</time>
      </trkpt>
      <trkpt lat="43.705412959679961" lon="-7.6509690284729">
        <ele>250.08000000000001</ele>
        <time>2025-04-30T09:19:18Z</time>
      </trkpt>
      <trkpt lat="43.705458976328373" lon="-7.651032982394099">
        <ele>250.56</ele>
        <time>2025-04-30T09:19:19Z</time>
      </trkpt>
      <trkpt lat="43.705493006855249" lon="-7.651187963783741">
        <ele>250.56</ele>
        <time>2025-04-30T09:19:20Z</time>
      </trkpt>
      <trkpt lat="43.705527037382126" lon="-7.651341017335653">
        <ele>251.03999999999999</ele>
        <time>2025-04-30T09:19:21Z</time>
      </trkpt>
      <trkpt lat="43.705565007403493" lon="-7.651511002331972">
        <ele>251.03999999999999</ele>
        <time>2025-04-30T09:19:22Z</time>
      </trkpt>
      <trkpt lat="43.705874970182776" lon="-7.653000969439745">
        <ele>251.52000000000001</ele>
        <time>2025-04-30T09:19:30Z</time>
      </trkpt>
      <trkpt lat="43.705898020416498" lon="-7.653177995234728">
        <ele>251.52000000000001</ele>
        <time>2025-04-30T09:19:31Z</time>
      </trkpt>
      <trkpt lat="43.705899026244879" lon="-7.653370024636388">
        <ele>252</ele>
        <time>2025-04-30T09:19:32Z</time>
      </trkpt>
      <trkpt lat="43.70588100515306" lon="-7.653545960783958">
        <ele>252.47999999999999</ele>
        <time>2025-04-30T09:19:33Z</time>
      </trkpt>
      <trkpt lat="43.705859966576099" lon="-7.653742013499141">
        <ele>252.96000000000001</ele>
        <time>2025-04-30T09:19:34Z</time>
      </trkpt>
      <trkpt lat="43.70583800598979" lon="-7.653959020972252">
        <ele>252.96000000000001</ele>
        <time>2025-04-30T09:19:35Z</time>
      </trkpt>
      <trkpt lat="43.7058150395751" lon="-7.654178040102124">
        <ele>253.44</ele>
        <time>2025-04-30T09:19:36Z</time>
      </trkpt>
      <trkpt lat="43.705781009048223" lon="-7.654392030090094">
        <ele>253.93000000000001</ele>
        <time>2025-04-30T09:19:37Z</time>
      </trkpt>
      <trkpt lat="43.705739015713334" lon="-7.654585987329483">
        <ele>253.93000000000001</ele>
        <time>2025-04-30T09:19:38Z</time>
      </trkpt>
      <trkpt lat="43.705700961872935" lon="-7.654761001467705">
        <ele>253.93000000000001</ele>
        <time>2025-04-30T09:19:39Z</time>
      </trkpt>
      <trkpt lat="43.705626027658582" lon="-7.654919000342488">
        <ele>254.41</ele>
        <time>2025-04-30T09:19:40Z</time>
      </trkpt>
      <trkpt lat="43.705545980483294" lon="-7.655068030580878">
        <ele>254.88999999999999</ele>
        <time>2025-04-30T09:19:41Z</time>
      </trkpt>
      <trkpt lat="43.705449001863599" lon="-7.655212031677365">
        <ele>255.37</ele>
        <time>2025-04-30T09:19:42Z</time>
      </trkpt>
      <trkpt lat="43.704918008297682" lon="-7.65593103133142">
        <ele>260.64999999999998</ele>
        <time>2025-04-30T09:19:47Z</time>
      </trkpt>
      <trkpt lat="43.704840978607535" lon="-7.656068997457624">
        <ele>261.62</ele>
        <time>2025-04-30T09:19:48Z</time>
      </trkpt>
      <trkpt lat="43.704794039949775" lon="-7.656225990504026">
        <ele>262.57999999999998</ele>
        <time>2025-04-30T09:19:49Z</time>
      </trkpt>
      <trkpt lat="43.704794039949775" lon="-7.656395975500345">
        <ele>263.06</ele>
        <time>2025-04-30T09:19:50Z</time>
      </trkpt>
      <trkpt lat="43.70480895973742" lon="-7.656556991860271">
        <ele>263.54000000000002</ele>
        <time>2025-04-30T09:19:51Z</time>
      </trkpt>
      <trkpt lat="43.704874003306031" lon="-7.656685989350081">
        <ele>264.5</ele>
        <time>2025-04-30T09:19:52Z</time>
      </trkpt>
      <trkpt lat="43.704954972490668" lon="-7.656769976019859">
        <ele>264.98000000000002</ele>
        <time>2025-04-30T09:19:53Z</time>
      </trkpt>
      <trkpt lat="43.705055974423885" lon="-7.656824961304665">
        <ele>265.45999999999998</ele>
        <time>2025-04-30T09:19:54Z</time>
      </trkpt>
      <trkpt lat="43.705166028812528" lon="-7.656885981559753">
        <ele>265.94</ele>
        <time>2025-04-30T09:19:55Z</time>
      </trkpt>
      <trkpt lat="43.705296032130718" lon="-7.656955970451236">
        <ele>266.42000000000002</ele>
        <time>2025-04-30T09:19:56Z</time>
      </trkpt>
      <trkpt lat="43.705432992428541" lon="-7.657052027061582">
        <ele>266.89999999999998</ele>
        <time>2025-04-30T09:19:57Z</time>
      </trkpt>
      <trkpt lat="43.706446029245853" lon="-7.657985016703606">
        <ele>267.38</ele>
        <time>2025-04-30T09:20:04Z</time>
      </trkpt>
      <trkpt lat="43.707525031641126" lon="-7.659696014598012">
        <ele>267.38</ele>
        <time>2025-04-30T09:20:13Z</time>
      </trkpt>
      <trkpt lat="43.708282001316547" lon="-7.660974003374577">
        <ele>266.89999999999998</ele>
        <time>2025-04-30T09:20:20Z</time>
      </trkpt>
      <trkpt lat="43.708410998806357" lon="-7.661126973107457">
        <ele>266.89999999999998</ele>
        <time>2025-04-30T09:20:21Z</time>
      </trkpt>
      <trkpt lat="43.708542007952929" lon="-7.661278015002608">
        <ele>265.94</ele>
        <time>2025-04-30T09:20:22Z</time>
      </trkpt>
      <trkpt lat="43.708672011271119" lon="-7.661426039412618">
        <ele>264.5</ele>
        <time>2025-04-30T09:20:23Z</time>
      </trkpt>
      <trkpt lat="43.708792962133884" lon="-7.661565011367202">
        <ele>263.54000000000002</ele>
        <time>2025-04-30T09:20:24Z</time>
      </trkpt>
      <trkpt lat="43.708899999037385" lon="-7.661713035777211">
        <ele>262.10000000000002</ele>
        <time>2025-04-30T09:20:25Z</time>
      </trkpt>
      <trkpt lat="43.708993038162589" lon="-7.661900036036968">
        <ele>260.64999999999998</ele>
        <time>2025-04-30T09:20:26Z</time>
      </trkpt>
      <trkpt lat="43.709094962105155" lon="-7.662102961912751">
        <ele>259.20999999999998</ele>
        <time>2025-04-30T09:20:27Z</time>
      </trkpt>
      <trkpt lat="43.709193030372262" lon="-7.662299014627934">
        <ele>257.76999999999998</ele>
        <time>2025-04-30T09:20:28Z</time>
      </trkpt>
      <trkpt lat="43.70934097096324" lon="-7.662491966038942">
        <ele>256.32999999999998</ele>
        <time>2025-04-30T09:20:29Z</time>
      </trkpt>
      <trkpt lat="43.709474997594953" lon="-7.662664968520403">
        <ele>254.88999999999999</ele>
        <time>2025-04-30T09:20:30Z</time>
      </trkpt>
      <trkpt lat="43.709606006741524" lon="-7.662835959345102">
        <ele>253.44</ele>
        <time>2025-04-30T09:20:31Z</time>
      </trkpt>
      <trkpt lat="43.709746990352869" lon="-7.662975015118718">
        <ele>252</ele>
        <time>2025-04-30T09:20:32Z</time>
      </trkpt>
      <trkpt lat="43.70989996008575" lon="-7.663120022043586">
        <ele>250.56</ele>
        <time>2025-04-30T09:20:33Z</time>
      </trkpt>
      <trkpt lat="43.710056031122804" lon="-7.663267040625215">
        <ele>248.63999999999999</ele>
        <time>2025-04-30T09:20:34Z</time>
      </trkpt>
      <trkpt lat="43.710507983341813" lon="-7.663650009781122">
        <ele>243.34999999999999</ele>
        <time>2025-04-30T09:20:37Z</time>
      </trkpt>
      <trkpt lat="43.710677968338132" lon="-7.663727961480618">
        <ele>241.91</ele>
        <time>2025-04-30T09:20:38Z</time>
      </trkpt>
      <trkpt lat="43.711004024371505" lon="-7.663877997547388">
        <ele>238.53999999999999</ele>
        <time>2025-04-30T09:20:40Z</time>
      </trkpt>
      <trkpt lat="43.711157999932766" lon="-7.66394798643887">
        <ele>236.62</ele>
        <time>2025-04-30T09:20:41Z</time>
      </trkpt>
      <trkpt lat="43.711627973243594" lon="-7.66398997977376">
        <ele>232.30000000000001</ele>
        <time>2025-04-30T09:20:44Z</time>
      </trkpt>
      <trkpt lat="43.711787983775139" lon="-7.663976987823844">
        <ele>230.84999999999999</ele>
        <time>2025-04-30T09:20:45Z</time>
      </trkpt>
      <trkpt lat="43.711958974599838" lon="-7.663930971175432">
        <ele>228.93000000000001</ele>
        <time>2025-04-30T09:20:46Z</time>
      </trkpt>
      <trkpt lat="43.712306991219521" lon="-7.663829969242215">
        <ele>225.56999999999999</ele>
        <time>2025-04-30T09:20:48Z</time>
      </trkpt>
      <trkpt lat="43.712469013407826" lon="-7.663735002279282">
        <ele>224.12</ele>
        <time>2025-04-30T09:20:49Z</time>
      </trkpt>
      <trkpt lat="43.712798003107309" lon="-7.663542972877622">
        <ele>220.75999999999999</ele>
        <time>2025-04-30T09:20:51Z</time>
      </trkpt>
      <trkpt lat="43.713441984727979" lon="-7.662890022620559">
        <ele>210.66999999999999</ele>
        <time>2025-04-30T09:20:56Z</time>
      </trkpt>
      <trkpt lat="43.713524965569377" lon="-7.662748033180833">
        <ele>208.74000000000001</ele>
        <time>2025-04-30T09:20:57Z</time>
      </trkpt>
      <trkpt lat="43.713565031066537" lon="-7.662605959922075">
        <ele>206.81999999999999</ele>
        <time>2025-04-30T09:20:58Z</time>
      </trkpt>
      <trkpt lat="43.713592020794749" lon="-7.662447961047292">
        <ele>204.90000000000001</ele>
        <time>2025-04-30T09:20:59Z</time>
      </trkpt>
      <trkpt lat="43.71359696611762" lon="-7.662274036556482">
        <ele>203.46000000000001</ele>
        <time>2025-04-30T09:21:00Z</time>
      </trkpt>
      <trkpt lat="43.713601995259523" lon="-7.662087958306074">
        <ele>201.53</ele>
        <time>2025-04-30T09:21:01Z</time>
      </trkpt>
      <trkpt lat="43.713607024401426" lon="-7.661892995238304">
        <ele>200.09</ele>
        <time>2025-04-30T09:21:02Z</time>
      </trkpt>
      <trkpt lat="43.713622028008103" lon="-7.66166802495718">
        <ele>198.16999999999999</ele>
        <time>2025-04-30T09:21:03Z</time>
      </trkpt>
      <trkpt lat="43.71368195861578" lon="-7.661472978070378">
        <ele>196.72999999999999</ele>
        <time>2025-04-30T09:21:04Z</time>
      </trkpt>
      <trkpt lat="43.713841969147325" lon="-7.660952964797616">
        <ele>191.91999999999999</ele>
        <time>2025-04-30T09:21:07Z</time>
      </trkpt>
      <trkpt lat="43.713935008272529" lon="-7.660836959257722">
        <ele>190</ele>
        <time>2025-04-30T09:21:08Z</time>
      </trkpt>
      <trkpt lat="43.714010026305914" lon="-7.660808963701129">
        <ele>189.03999999999999</ele>
        <time>2025-04-30T09:21:09Z</time>
      </trkpt>
      <trkpt lat="43.714076997712255" lon="-7.660825978964567">
        <ele>187.59</ele>
        <time>2025-04-30T09:21:10Z</time>
      </trkpt>
      <trkpt lat="43.71413298882544" lon="-7.66087300144136">
        <ele>186.63</ele>
        <time>2025-04-30T09:21:11Z</time>
      </trkpt>
      <trkpt lat="43.714176993817091" lon="-7.660929998382926">
        <ele>186.15000000000001</ele>
        <time>2025-04-30T09:21:12Z</time>
      </trkpt>
      <trkpt lat="43.714198032394052" lon="-7.661026977002621">
        <ele>186.15000000000001</ele>
        <time>2025-04-30T09:21:13Z</time>
      </trkpt>
      <trkpt lat="43.714210018515587" lon="-7.66111196950078">
        <ele>186.63</ele>
        <time>2025-04-30T09:21:14Z</time>
      </trkpt>
      <trkpt lat="43.714186968281865" lon="-7.661212971433997">
        <ele>186.15000000000001</ele>
        <time>2025-04-30T09:21:15Z</time>
      </trkpt>
      <trkpt lat="43.714169031009078" lon="-7.661292012780905">
        <ele>186.15000000000001</ele>
        <time>2025-04-30T09:21:16Z</time>
      </trkpt>
      <trkpt lat="43.714157966896892" lon="-7.661338029429317">
        <ele>186.15000000000001</ele>
        <time>2025-04-30T09:21:17Z</time>
      </trkpt>
      <trkpt lat="43.71415302157402" lon="-7.661362001672387">
        <ele>186.15000000000001</ele>
        <time>2025-04-30T09:21:23Z</time>
      </trkpt>
      <trkpt lat="43.714068029075861" lon="-7.661655033007264">
        <ele>183.27000000000001</ele>
        <time>2025-04-30T09:21:27Z</time>
      </trkpt>
      <trkpt lat="43.714028969407082" lon="-7.661789981648326">
        <ele>182.78999999999999</ele>
        <time>2025-04-30T09:21:28Z</time>
      </trkpt>
      <trkpt lat="43.713997034355998" lon="-7.661932976916432">
        <ele>181.83000000000001</ele>
        <time>2025-04-30T09:21:29Z</time>
      </trkpt>
      <trkpt lat="43.713986976072192" lon="-7.662103967741132">
        <ele>180.87</ele>
        <time>2025-04-30T09:21:30Z</time>
      </trkpt>
      <trkpt lat="43.713978007435799" lon="-7.662256015464664">
        <ele>180.38</ele>
        <time>2025-04-30T09:21:31Z</time>
      </trkpt>
      <trkpt lat="43.714012959972024" lon="-7.662428012117744">
        <ele>178.94</ele>
        <time>2025-04-30T09:21:32Z</time>
      </trkpt>
      <trkpt lat="43.7140469904989" lon="-7.662592967972159">
        <ele>178.46000000000001</ele>
        <time>2025-04-30T09:21:33Z</time>
      </trkpt>
      <trkpt lat="43.714079009369016" lon="-7.662750966846943">
        <ele>177.5</ele>
        <time>2025-04-30T09:21:34Z</time>
      </trkpt>
      <trkpt lat="43.714113039895892" lon="-7.662916006520391">
        <ele>176.06</ele>
        <time>2025-04-30T09:21:35Z</time>
      </trkpt>
      <trkpt lat="43.714148998260498" lon="-7.663091020658612">
        <ele>175.09999999999999</ele>
        <time>2025-04-30T09:21:36Z</time>
      </trkpt>
      <trkpt lat="43.714170958846807" lon="-7.663293024525046">
        <ele>174.13999999999999</ele>
        <time>2025-04-30T09:21:37Z</time>
      </trkpt>
      <trkpt lat="43.714170958846807" lon="-7.663491005077958">
        <ele>172.69</ele>
        <time>2025-04-30T09:21:38Z</time>
      </trkpt>
      <trkpt lat="43.714138017967343" lon="-7.663712035864592">
        <ele>171.72999999999999</ele>
        <time>2025-04-30T09:21:39Z</time>
      </trkpt>
      <trkpt lat="43.714084960520267" lon="-7.663951003924012">
        <ele>170.28999999999999</ele>
        <time>2025-04-30T09:21:40Z</time>
      </trkpt>
      <trkpt lat="43.714011032134295" lon="-7.664141021668911">
        <ele>168.84999999999999</ele>
        <time>2025-04-30T09:21:41Z</time>
      </trkpt>
      <trkpt lat="43.713914975523949" lon="-7.664364986121655">
        <ele>167.41</ele>
        <time>2025-04-30T09:21:42Z</time>
      </trkpt>
      <trkpt lat="43.713796036317945" lon="-7.664531031623483">
        <ele>165</ele>
        <time>2025-04-30T09:21:43Z</time>
      </trkpt>
      <trkpt lat="43.71368003077805" lon="-7.664691964164376">
        <ele>163.08000000000001</ele>
        <time>2025-04-30T09:21:44Z</time>
      </trkpt>
      <trkpt lat="43.71312003582716" lon="-7.665475001558662">
        <ele>153.47</ele>
        <time>2025-04-30T09:21:49Z</time>
      </trkpt>
      <trkpt lat="43.712968993932009" lon="-7.665602993220091">
        <ele>151.06</ele>
        <time>2025-04-30T09:21:50Z</time>
      </trkpt>
      <trkpt lat="43.712832033634186" lon="-7.665663007646799">
        <ele>149.62</ele>
        <time>2025-04-30T09:21:51Z</time>
      </trkpt>
      <trkpt lat="43.712499020621181" lon="-7.665807008743286">
        <ele>145.30000000000001</ele>
        <time>2025-04-30T09:21:53Z</time>
      </trkpt>
      <trkpt lat="43.71232601813972" lon="-7.665882026776671">
        <ele>143.37</ele>
        <time>2025-04-30T09:21:54Z</time>
      </trkpt>
      <trkpt lat="43.71215402148664" lon="-7.666011024266481">
        <ele>141.44999999999999</ele>
        <time>2025-04-30T09:21:55Z</time>
      </trkpt>
      <trkpt lat="43.711212985217571" lon="-7.667067982256413">
        <ele>127.03</ele>
        <time>2025-04-30T09:22:02Z</time>
      </trkpt>
      <trkpt lat="43.711133021861315" lon="-7.667188011109829">
        <ele>125.11</ele>
        <time>2025-04-30T09:22:03Z</time>
      </trkpt>
      <trkpt lat="43.711060015484691" lon="-7.667331006377935">
        <ele>123.67</ele>
        <time>2025-04-30T09:22:04Z</time>
      </trkpt>
      <trkpt lat="43.711060015484691" lon="-7.667465033009648">
        <ele>121.73999999999999</ele>
        <time>2025-04-30T09:22:05Z</time>
      </trkpt>
      <trkpt lat="43.711078958585858" lon="-7.667645998299122">
        <ele>120.78</ele>
        <time>2025-04-30T09:22:06Z</time>
      </trkpt>
      <trkpt lat="43.711182978004217" lon="-7.667797962203622">
        <ele>118.86</ele>
        <time>2025-04-30T09:22:07Z</time>
      </trkpt>
      <trkpt lat="43.711300995200872" lon="-7.667886978015304">
        <ele>117.42</ele>
        <time>2025-04-30T09:22:08Z</time>
      </trkpt>
      <trkpt lat="43.711421024054289" lon="-7.667929977178574">
        <ele>115.5</ele>
        <time>2025-04-30T09:22:09Z</time>
      </trkpt>
      <trkpt lat="43.711542980745435" lon="-7.667972976341844">
        <ele>114.05</ele>
        <time>2025-04-30T09:22:10Z</time>
      </trkpt>
      <trkpt lat="43.711664015427232" lon="-7.668024022132158">
        <ele>112.13</ele>
        <time>2025-04-30T09:22:11Z</time>
      </trkpt>
      <trkpt lat="43.711788989603519" lon="-7.668113959953189">
        <ele>110.20999999999999</ele>
        <time>2025-04-30T09:22:12Z</time>
      </trkpt>
      <trkpt lat="43.711869036778808" lon="-7.668245974928141">
        <ele>109.25</ele>
        <time>2025-04-30T09:22:13Z</time>
      </trkpt>
      <trkpt lat="43.711927961558104" lon="-7.668391987681389">
        <ele>107.81</ele>
        <time>2025-04-30T09:22:14Z</time>
      </trkpt>
      <trkpt lat="43.711953023448586" lon="-7.668559039011598">
        <ele>106.84</ele>
        <time>2025-04-30T09:22:15Z</time>
      </trkpt>
      <trkpt lat="43.711956040933728" lon="-7.668752996250987">
        <ele>106.36</ele>
        <time>2025-04-30T09:22:16Z</time>
      </trkpt>
      <trkpt lat="43.711949000135064" lon="-7.668965980410576">
        <ele>105.40000000000001</ele>
        <time>2025-04-30T09:22:17Z</time>
      </trkpt>
      <trkpt lat="43.7119419593364" lon="-7.669174019247294">
        <ele>104.92</ele>
        <time>2025-04-30T09:22:18Z</time>
      </trkpt>
      <trkpt lat="43.711911030113697" lon="-7.669353978708386">
        <ele>103.95999999999999</ele>
        <time>2025-04-30T09:22:19Z</time>
      </trkpt>
      <trkpt lat="43.711861995980144" lon="-7.669529998674989">
        <ele>103.48</ele>
        <time>2025-04-30T09:22:20Z</time>
      </trkpt>
      <trkpt lat="43.711799969896674" lon="-7.669684980064631">
        <ele>103</ele>
        <time>2025-04-30T09:22:21Z</time>
      </trkpt>
      <trkpt lat="43.711711037904024" lon="-7.669819006696343">
        <ele>102.04000000000001</ele>
        <time>2025-04-30T09:22:22Z</time>
      </trkpt>
      <trkpt lat="43.711609030142426" lon="-7.669945992529392">
        <ele>101.08</ele>
        <time>2025-04-30T09:22:23Z</time>
      </trkpt>
      <trkpt lat="43.711490007117391" lon="-7.670066021382809">
        <ele>100.11</ele>
        <time>2025-04-30T09:22:24Z</time>
      </trkpt>
      <trkpt lat="43.711152970790863" lon="-7.670429041609168">
        <ele>96.269999999999996</ele>
        <time>2025-04-30T09:22:27Z</time>
      </trkpt>
      <trkpt lat="43.711066972464323" lon="-7.670582011342049">
        <ele>95.310000000000002</ele>
        <time>2025-04-30T09:22:28Z</time>
      </trkpt>
      <trkpt lat="43.710992038249969" lon="-7.670759037137032">
        <ele>93.870000000000005</ele>
        <time>2025-04-30T09:22:29Z</time>
      </trkpt>
      <trkpt lat="43.710981979966164" lon="-7.670936984941363">
        <ele>92.420000000000002</ele>
        <time>2025-04-30T09:22:30Z</time>
      </trkpt>
      <trkpt lat="43.710984997451305" lon="-7.671095989644527">
        <ele>90.5</ele>
        <time>2025-04-30T09:22:31Z</time>
      </trkpt>
      <trkpt lat="43.711050041019917" lon="-7.671219035983086">
        <ele>89.060000000000002</ele>
        <time>2025-04-30T09:22:32Z</time>
      </trkpt>
      <trkpt lat="43.71112204156816" lon="-7.671357002109289">
        <ele>87.620000000000005</ele>
        <time>2025-04-30T09:22:33Z</time>
      </trkpt>
      <trkpt lat="43.711206028237939" lon="-7.671505026519299">
        <ele>86.180000000000007</ele>
        <time>2025-04-30T09:22:34Z</time>
      </trkpt>
      <trkpt lat="43.711313987150788" lon="-7.67163896933198">
        <ele>84.25</ele>
        <time>2025-04-30T09:22:35Z</time>
      </trkpt>
      <trkpt lat="43.712191991508007" lon="-7.672729035839438">
        <ele>74.159999999999997</ele>
        <time>2025-04-30T09:22:42Z</time>
      </trkpt>
      <trkpt lat="43.712734971195459" lon="-7.673467984423041">
        <ele>69.829999999999998</ele>
        <time>2025-04-30T09:22:47Z</time>
      </trkpt>
      <trkpt lat="43.712804038077593" lon="-7.673647021874785">
        <ele>69.349999999999994</ele>
        <time>2025-04-30T09:22:48Z</time>
      </trkpt>
      <trkpt lat="43.712856005877256" lon="-7.673804014921188">
        <ele>69.349999999999994</ele>
        <time>2025-04-30T09:22:49Z</time>
      </trkpt>
      <trkpt lat="43.71286204084754" lon="-7.673968970775604">
        <ele>70.310000000000002</ele>
        <time>2025-04-30T09:22:50Z</time>
      </trkpt>
      <trkpt lat="43.712856005877256" lon="-7.674100985750556">
        <ele>71.269999999999996</ele>
        <time>2025-04-30T09:22:51Z</time>
      </trkpt>
      <trkpt lat="43.712824992835522" lon="-7.674210034310818">
        <ele>71.760000000000005</ele>
        <time>2025-04-30T09:22:52Z</time>
      </trkpt>
      <trkpt lat="43.71279900893569" lon="-7.674305001273751">
        <ele>72.719999999999999</ele>
        <time>2025-04-30T09:22:53Z</time>
      </trkpt>
      <trkpt lat="43.712774030864239" lon="-7.674395022913814">
        <ele>73.200000000000003</ele>
        <time>2025-04-30T09:22:54Z</time>
      </trkpt>
      <trkpt lat="43.712748968973756" lon="-7.674483032897115">
        <ele>73.680000000000007</ele>
        <time>2025-04-30T09:22:55Z</time>
      </trkpt>
      <trkpt lat="43.712724996730685" lon="-7.674569031223655">
        <ele>74.159999999999997</ele>
        <time>2025-04-30T09:22:56Z</time>
      </trkpt>
      <trkpt lat="43.712721979245543" lon="-7.674692999571562">
        <ele>75.120000000000005</ele>
        <time>2025-04-30T09:22:57Z</time>
      </trkpt>
      <trkpt lat="43.712734971195459" lon="-7.674792995676398">
        <ele>75.599999999999994</ele>
        <time>2025-04-30T09:22:58Z</time>
      </trkpt>
      <trkpt lat="43.712748968973756" lon="-7.674891985952854">
        <ele>76.560000000000002</ele>
        <time>2025-04-30T09:22:59Z</time>
      </trkpt>
      <trkpt lat="43.712790040299296" lon="-7.675199015066028">
        <ele>78.969999999999999</ele>
        <time>2025-04-30T09:23:02Z</time>
      </trkpt>
      <trkpt lat="43.712790040299296" lon="-7.675287025049329">
        <ele>78.969999999999999</ele>
        <time>2025-04-30T09:23:03Z</time>
      </trkpt>
      <trkpt lat="43.712771013379097" lon="-7.675353996455669">
        <ele>79.450000000000003</ele>
        <time>2025-04-30T09:23:04Z</time>
      </trkpt>
      <trkpt lat="43.712747041136026" lon="-7.675416022539139">
        <ele>79.450000000000003</ele>
        <time>2025-04-30T09:23:05Z</time>
      </trkpt>
      <trkpt lat="43.712705969810486" lon="-7.675448963418603">
        <ele>79.450000000000003</ele>
        <time>2025-04-30T09:23:06Z</time>
      </trkpt>
      <trkpt lat="43.712646961212158" lon="-7.675494980067015">
        <ele>79.450000000000003</ele>
        <time>2025-04-30T09:23:07Z</time>
      </trkpt>
      <trkpt lat="43.712599016726017" lon="-7.675519958138466">
        <ele>79.450000000000003</ele>
        <time>2025-04-30T09:23:08Z</time>
      </trkpt>
      <trkpt lat="43.712540008127689" lon="-7.675551977008581">
        <ele>79.450000000000003</ele>
        <time>2025-04-30T09:23:09Z</time>
      </trkpt>
      <trkpt lat="43.712414028123021" lon="-7.675618026405573">
        <ele>79.450000000000003</ele>
        <time>2025-04-30T09:23:11Z</time>
      </trkpt>
      <trkpt lat="43.712338004261255" lon="-7.675658008083701">
        <ele>78.969999999999999</ele>
        <time>2025-04-30T09:23:12Z</time>
      </trkpt>
      <trkpt lat="43.71224001981318" lon="-7.675709975883365">
        <ele>78</ele>
        <time>2025-04-30T09:23:13Z</time>
      </trkpt>
      <trkpt lat="43.712181011214852" lon="-7.67580502666533">
        <ele>77.519999999999996</ele>
        <time>2025-04-30T09:23:14Z</time>
      </trkpt>
      <trkpt lat="43.712112028151751" lon="-7.675918014720082">
        <ele>77.040000000000006</ele>
        <time>2025-04-30T09:23:15Z</time>
      </trkpt>
      <trkpt lat="43.712050002068281" lon="-7.676052041351795">
        <ele>76.079999999999998</ele>
        <time>2025-04-30T09:23:16Z</time>
      </trkpt>
      <trkpt lat="43.71200499124825" lon="-7.676206016913056">
        <ele>75.599999999999994</ele>
        <time>2025-04-30T09:23:17Z</time>
      </trkpt>
      <trkpt lat="43.711957968771458" lon="-7.676368039101362">
        <ele>75.120000000000005</ele>
        <time>2025-04-30T09:23:18Z</time>
      </trkpt>
      <trkpt lat="43.711909018456936" lon="-7.676537018269301">
        <ele>75.120000000000005</ele>
        <time>2025-04-30T09:23:19Z</time>
      </trkpt>
      <trkpt lat="43.711867025122046" lon="-7.676704991608858">
        <ele>75.120000000000005</ele>
        <time>2025-04-30T09:23:20Z</time>
      </trkpt>
      <trkpt lat="43.711842969059944" lon="-7.676868019625545">
        <ele>75.120000000000005</ele>
        <time>2025-04-30T09:23:21Z</time>
      </trkpt>
      <trkpt lat="43.711816985160112" lon="-7.677034987136722">
        <ele>75.120000000000005</ele>
        <time>2025-04-30T09:23:22Z</time>
      </trkpt>
      <trkpt lat="43.711768034845591" lon="-7.677361965179443">
        <ele>74.640000000000001</ele>
        <time>2025-04-30T09:23:24Z</time>
      </trkpt>
      <trkpt lat="43.711783960461617" lon="-7.677519964054227">
        <ele>74.159999999999997</ele>
        <time>2025-04-30T09:23:25Z</time>
      </trkpt>
      <trkpt lat="43.711801981553435" lon="-7.677683997899294">
        <ele>73.680000000000007</ele>
        <time>2025-04-30T09:23:26Z</time>
      </trkpt>
      <trkpt lat="43.711841963231564" lon="-7.677859012037516">
        <ele>73.680000000000007</ele>
        <time>2025-04-30T09:23:27Z</time>
      </trkpt>
      <trkpt lat="43.711899966001511" lon="-7.678022962063551">
        <ele>73.200000000000003</ele>
        <time>2025-04-30T09:23:28Z</time>
      </trkpt>
      <trkpt lat="43.711956962943077" lon="-7.678183978423476">
        <ele>73.200000000000003</ele>
        <time>2025-04-30T09:23:29Z</time>
      </trkpt>
      <trkpt lat="43.712070034816861" lon="-7.678508022800088">
        <ele>71.760000000000005</ele>
        <time>2025-04-30T09:23:31Z</time>
      </trkpt>
      <trkpt lat="43.71211102232337" lon="-7.678682031109929">
        <ele>71.269999999999996</ele>
        <time>2025-04-30T09:23:32Z</time>
      </trkpt>
      <trkpt lat="43.712228033691645" lon="-7.67917999997735">
        <ele>69.829999999999998</ele>
        <time>2025-04-30T09:23:35Z</time>
      </trkpt>
      <trkpt lat="43.712282013148069" lon="-7.679536985233426">
        <ele>68.870000000000005</ele>
        <time>2025-04-30T09:23:37Z</time>
      </trkpt>
      <trkpt lat="43.712421990931034" lon="-7.680564019829035">
        <ele>67.430000000000007</ele>
        <time>2025-04-30T09:23:43Z</time>
      </trkpt>
      <trkpt lat="43.712428025901318" lon="-7.68072503618896">
        <ele>67.430000000000007</ele>
        <time>2025-04-30T09:23:44Z</time>
      </trkpt>
      <trkpt lat="43.712387960404158" lon="-7.681021001189947">
        <ele>66.950000000000003</ele>
        <time>2025-04-30T09:23:46Z</time>
      </trkpt>
      <trkpt lat="43.712334986776114" lon="-7.681140024214983">
        <ele>66.950000000000003</ele>
        <time>2025-04-30T09:23:47Z</time>
      </trkpt>
      <trkpt lat="43.712280001491308" lon="-7.681267010048032">
        <ele>66.950000000000003</ele>
        <time>2025-04-30T09:23:48Z</time>
      </trkpt>
      <trkpt lat="43.7122199870646" lon="-7.681402964517474">
        <ele>66.469999999999999</ele>
        <time>2025-04-30T09:23:49Z</time>
      </trkpt>
      <trkpt lat="43.712171958759427" lon="-7.681530034169555">
        <ele>65.989999999999995</ele>
        <time>2025-04-30T09:23:50Z</time>
      </trkpt>
      <trkpt lat="43.71215402148664" lon="-7.681678980588913">
        <ele>65.989999999999995</ele>
        <time>2025-04-30T09:23:51Z</time>
      </trkpt>
      <trkpt lat="43.712171036750078" lon="-7.681857012212277">
        <ele>65.989999999999995</ele>
        <time>2025-04-30T09:23:52Z</time>
      </trkpt>
      <trkpt lat="43.712187968194485" lon="-7.682038983330131">
        <ele>65.989999999999995</ele>
        <time>2025-04-30T09:23:53Z</time>
      </trkpt>
      <trkpt lat="43.712206995114684" lon="-7.682237969711423">
        <ele>65.989999999999995</ele>
        <time>2025-04-30T09:23:54Z</time>
      </trkpt>
      <trkpt lat="43.712203977629542" lon="-7.682843981310725">
        <ele>66.950000000000003</ele>
        <time>2025-04-30T09:23:57Z</time>
      </trkpt>
      <trkpt lat="43.712199032306671" lon="-7.683015977963805">
        <ele>66.469999999999999</ele>
        <time>2025-04-30T09:23:58Z</time>
      </trkpt>
      <trkpt lat="43.712158966809511" lon="-7.683183029294014">
        <ele>65.989999999999995</ele>
        <time>2025-04-30T09:23:59Z</time>
      </trkpt>
      <trkpt lat="43.712099958211184" lon="-7.683356031775475">
        <ele>65.989999999999995</ele>
        <time>2025-04-30T09:24:00Z</time>
      </trkpt>
      <trkpt lat="43.712038015946746" lon="-7.68354001455009">
        <ele>65.510000000000005</ele>
        <time>2025-04-30T09:24:01Z</time>
      </trkpt>
      <trkpt lat="43.711973978206515" lon="-7.683729026466608">
        <ele>64.549999999999997</ele>
        <time>2025-04-30T09:24:02Z</time>
      </trkpt>
      <trkpt lat="43.711659992113709" lon="-7.684661010280252">
        <ele>58.780000000000001</ele>
        <time>2025-04-30T09:24:07Z</time>
      </trkpt>
      <trkpt lat="43.711610035970807" lon="-7.684960998594761">
        <ele>56.369999999999997</ele>
        <time>2025-04-30T09:24:09Z</time>
      </trkpt>
      <trkpt lat="43.711582962423563" lon="-7.685122014954686">
        <ele>53.490000000000002</ele>
        <time>2025-04-30T09:24:11Z</time>
      </trkpt>
      <trkpt lat="43.711572987958789" lon="-7.685181023553014">
        <ele>52.049999999999997</ele>
        <time>2025-04-30T09:24:12Z</time>
      </trkpt>
      <trkpt lat="43.711564019322395" lon="-7.6852370146662">
        <ele>50.609999999999999</ele>
        <time>2025-04-30T09:24:13Z</time>
      </trkpt>
      <trkpt lat="43.71155496686697" lon="-7.685290994122624">
        <ele>49.159999999999997</ele>
        <time>2025-04-30T09:24:14Z</time>
      </trkpt>
      <trkpt lat="43.711545998230577" lon="-7.68534698523581">
        <ele>47.719999999999999</ele>
        <time>2025-04-30T09:24:15Z</time>
      </trkpt>
      <trkpt lat="43.711536023765802" lon="-7.685404988005757">
        <ele>46.280000000000001</ele>
        <time>2025-04-30T09:24:16Z</time>
      </trkpt>
      <trkpt lat="43.711524959653616" lon="-7.685471959412098">
        <ele>45.32</ele>
        <time>2025-04-30T09:24:17Z</time>
      </trkpt>
      <trkpt lat="43.711512973532081" lon="-7.685543037950993">
        <ele>44.359999999999999</ele>
        <time>2025-04-30T09:24:18Z</time>
      </trkpt>
      <trkpt lat="43.711500987410545" lon="-7.685615960508585">
        <ele>42.920000000000002</ele>
        <time>2025-04-30T09:24:19Z</time>
      </trkpt>
      <trkpt lat="43.71148900128901" lon="-7.685687961056829">
        <ele>41.950000000000003</ele>
        <time>2025-04-30T09:24:20Z</time>
      </trkpt>
      <trkpt lat="43.711482966318727" lon="-7.685802960768342">
        <ele>40.990000000000002</ele>
        <time>2025-04-30T09:24:21Z</time>
      </trkpt>
      <trkpt lat="43.71146603487432" lon="-7.686113007366657">
        <ele>38.109999999999999</ele>
        <time>2025-04-30T09:24:24Z</time>
      </trkpt>
      <trkpt lat="43.711461005732417" lon="-7.686202023178339">
        <ele>37.149999999999999</ele>
        <time>2025-04-30T09:24:25Z</time>
      </trkpt>
      <trkpt lat="43.711455976590514" lon="-7.686287015676498">
        <ele>36.189999999999998</ele>
        <time>2025-04-30T09:24:26Z</time>
      </trkpt>
      <trkpt lat="43.711452037096024" lon="-7.686374019831419">
        <ele>35.710000000000001</ele>
        <time>2025-04-30T09:24:27Z</time>
      </trkpt>
      <trkpt lat="43.71144600212574" lon="-7.686481978744268">
        <ele>34.740000000000002</ele>
        <time>2025-04-30T09:24:28Z</time>
      </trkpt>
      <trkpt lat="43.711419012397528" lon="-7.686552973464131">
        <ele>34.259999999999998</ele>
        <time>2025-04-30T09:24:29Z</time>
      </trkpt>
      <trkpt lat="43.711377019062638" lon="-7.686657998710871">
        <ele>33.299999999999997</ele>
        <time>2025-04-30T09:24:30Z</time>
      </trkpt>
      <trkpt lat="43.711332008242607" lon="-7.686709966510534">
        <ele>31.859999999999999</ele>
        <time>2025-04-30T09:24:31Z</time>
      </trkpt>
      <trkpt lat="43.71123100630939" lon="-7.686824966222048">
        <ele>31.379999999999999</ele>
        <time>2025-04-30T09:24:32Z</time>
      </trkpt>
      <trkpt lat="43.711191024631262" lon="-7.686831001192331">
        <ele>30.899999999999999</ele>
        <time>2025-04-30T09:24:33Z</time>
      </trkpt>
      <trkpt lat="43.711131010204554" lon="-7.686839969828725">
        <ele>30.420000000000002</ele>
        <time>2025-04-30T09:24:34Z</time>
      </trkpt>
      <trkpt lat="43.711068984121084" lon="-7.68684902228415">
        <ele>29.460000000000001</ele>
        <time>2025-04-30T09:24:35Z</time>
      </trkpt>
      <trkpt lat="43.711013998836279" lon="-7.686856985092163">
        <ele>28.98</ele>
        <time>2025-04-30T09:24:36Z</time>
      </trkpt>
      <trkpt lat="43.710953984409571" lon="-7.686866037547588">
        <ele>28.02</ele>
        <time>2025-04-30T09:24:37Z</time>
      </trkpt>
      <trkpt lat="43.710889024659991" lon="-7.686876012012363">
        <ele>27.050000000000001</ele>
        <time>2025-04-30T09:24:38Z</time>
      </trkpt>
      <trkpt lat="43.710820963606238" lon="-7.686885986477137">
        <ele>26.57</ele>
        <time>2025-04-30T09:24:39Z</time>
      </trkpt>
      <trkpt lat="43.7106519844383" lon="-7.686910964548588">
        <ele>25.609999999999999</ele>
        <time>2025-04-30T09:24:41Z</time>
      </trkpt>
      <trkpt lat="43.710591970011592" lon="-7.686959998682141">
        <ele>24.649999999999999</ele>
        <time>2025-04-30T09:24:43Z</time>
      </trkpt>
      <trkpt lat="43.71052298694849" lon="-7.687018001452088">
        <ele>24.170000000000002</ele>
        <time>2025-04-30T09:24:44Z</time>
      </trkpt>
      <trkpt lat="43.71047898195684" lon="-7.687096036970615">
        <ele>24.170000000000002</ele>
        <time>2025-04-30T09:24:45Z</time>
      </trkpt>
      <trkpt lat="43.71035099029541" lon="-7.68742703832686">
        <ele>24.649999999999999</ele>
        <time>2025-04-30T09:24:48Z</time>
      </trkpt>
      <trkpt lat="43.71030698530376" lon="-7.68755896948278">
        <ele>24.170000000000002</ele>
        <time>2025-04-30T09:24:49Z</time>
      </trkpt>
      <trkpt lat="43.710244037210941" lon="-7.687747981399298">
        <ele>23.210000000000001</ele>
        <time>2025-04-30T09:24:50Z</time>
      </trkpt>
      <trkpt lat="43.710188968107104" lon="-7.687815958634019">
        <ele>22.73</ele>
        <time>2025-04-30T09:24:51Z</time>
      </trkpt>
      <trkpt lat="43.710111016407609" lon="-7.687911009415984">
        <ele>21.77</ele>
        <time>2025-04-30T09:24:52Z</time>
      </trkpt>
      <trkpt lat="43.710035998374224" lon="-7.688003964722157">
        <ele>21.289999999999999</ele>
        <time>2025-04-30T09:24:53Z</time>
      </trkpt>
      <trkpt lat="43.70996399782598" lon="-7.688091974705458">
        <ele>20.32</ele>
        <time>2025-04-30T09:24:54Z</time>
      </trkpt>
      <trkpt lat="43.709899038076401" lon="-7.688172021880746">
        <ele>19.359999999999999</ele>
        <time>2025-04-30T09:24:55Z</time>
      </trkpt>
      <trkpt lat="43.709847992286086" lon="-7.688234969973564">
        <ele>18.399999999999999</ele>
        <time>2025-04-30T09:24:56Z</time>
      </trkpt>
      <trkpt lat="43.70981203392148" lon="-7.688279980793595">
        <ele>17.440000000000001</ele>
        <time>2025-04-30T09:24:57Z</time>
      </trkpt>
      <trkpt lat="43.709787977859378" lon="-7.688307976350188">
        <ele>16.960000000000001</ele>
        <time>2025-04-30T09:24:58Z</time>
      </trkpt>
      <trkpt lat="43.709762999787927" lon="-7.688339995220304">
        <ele>16.48</ele>
        <time>2025-04-30T09:24:59Z</time>
      </trkpt>
      <trkpt lat="43.709733998402953" lon="-7.688376037403941">
        <ele>16</ele>
        <time>2025-04-30T09:25:00Z</time>
      </trkpt>
      <trkpt lat="43.70968303643167" lon="-7.688435968011618">
        <ele>15.52</ele>
        <time>2025-04-30T09:25:01Z</time>
      </trkpt>
      <trkpt lat="43.70962000451982" lon="-7.688466981053352">
        <ele>15.52</ele>
        <time>2025-04-30T09:25:02Z</time>
      </trkpt>
      <trkpt lat="43.709471980109811" lon="-7.688541999086738">
        <ele>15.52</ele>
        <time>2025-04-30T09:25:03Z</time>
      </trkpt>
      <trkpt lat="43.709415988996625" lon="-7.688541999086738">
        <ele>15.039999999999999</ele>
        <time>2025-04-30T09:25:04Z</time>
      </trkpt>
      <trkpt lat="43.70916998013854" lon="-7.688541999086738">
        <ele>13.6</ele>
        <time>2025-04-30T09:25:06Z</time>
      </trkpt>
      <trkpt lat="43.709036037325859" lon="-7.688541999086738">
        <ele>13.119999999999999</ele>
        <time>2025-04-30T09:25:07Z</time>
      </trkpt>
      <trkpt lat="43.708870997652411" lon="-7.688541999086738">
        <ele>12.15</ele>
        <time>2025-04-30T09:25:08Z</time>
      </trkpt>
      <trkpt lat="43.70876002125442" lon="-7.688607964664698">
        <ele>11.19</ele>
        <time>2025-04-30T09:25:09Z</time>
      </trkpt>
      <trkpt lat="43.708634041249752" lon="-7.688683988526464">
        <ele>10.23</ele>
        <time>2025-04-30T09:25:10Z</time>
      </trkpt>
      <trkpt lat="43.708509989082813" lon="-7.688763029873371">
        <ele>8.789999999999999</ele>
        <time>2025-04-30T09:25:11Z</time>
      </trkpt>
      <trkpt lat="43.708393983542919" lon="-7.68884701654315">
        <ele>7.35</ele>
        <time>2025-04-30T09:25:12Z</time>
      </trkpt>
      <trkpt lat="43.7080720346421" lon="-7.689080033451319">
        <ele>3.98</ele>
        <time>2025-04-30T09:25:15Z</time>
      </trkpt>
      <trkpt lat="43.707785960286856" lon="-7.689223028719425">
        <ele>3.02</ele>
        <time>2025-04-30T09:25:18Z</time>
      </trkpt>
      <trkpt lat="43.707688981667161" lon="-7.68927700817585">
        <ele>2.54</ele>
        <time>2025-04-30T09:25:19Z</time>
      </trkpt>
      <trkpt lat="43.707647994160652" lon="-7.689394019544125">
        <ele>2.54</ele>
        <time>2025-04-30T09:25:20Z</time>
      </trkpt>
      <trkpt lat="43.707603989169002" lon="-7.689523017033935">
        <ele>2.06</ele>
        <time>2025-04-30T09:25:21Z</time>
      </trkpt>
      <trkpt lat="43.70755897834897" lon="-7.689651008695364">
        <ele>2.06</ele>
        <time>2025-04-30T09:25:22Z</time>
      </trkpt>
      <trkpt lat="43.707516985014081" lon="-7.689773971214891">
        <ele>1.58</ele>
        <time>2025-04-30T09:25:23Z</time>
      </trkpt>
      <trkpt lat="43.70746904052794" lon="-7.689860975369811">
        <ele>1.1</ele>
        <time>2025-04-30T09:25:24Z</time>
      </trkpt>
      <trkpt lat="43.707401985302567" lon="-7.689934987574816">
        <ele>1.1</ele>
        <time>2025-04-30T09:25:25Z</time>
      </trkpt>
      <trkpt lat="43.707305006682873" lon="-7.690044036135078">
        <ele>0.62</ele>
        <time>2025-04-30T09:25:26Z</time>
      </trkpt>
      <trkpt lat="43.707266030833125" lon="-7.690053004771471">
        <ele>0.14</ele>
        <time>2025-04-30T09:25:27Z</time>
      </trkpt>
      <trkpt lat="43.707169974222779" lon="-7.690076977014542">
        <ele>-0.34</ele>
        <time>2025-04-30T09:25:28Z</time>
      </trkpt>
      <trkpt lat="43.707066038623452" lon="-7.690102960914373">
        <ele>-0.34</ele>
        <time>2025-04-30T09:25:29Z</time>
      </trkpt>
      <trkpt lat="43.706967970356345" lon="-7.690128022804856">
        <ele>-0.82</ele>
        <time>2025-04-30T09:25:30Z</time>
      </trkpt>
      <trkpt lat="43.706856993958354" lon="-7.690188959240913">
        <ele>-0.82</ele>
        <time>2025-04-30T09:25:31Z</time>
      </trkpt>
      <trkpt lat="43.706808965653181" lon="-7.690291972830892">
        <ele>-0.82</ele>
        <time>2025-04-30T09:25:32Z</time>
      </trkpt>
      <trkpt lat="43.70676102116704" lon="-7.690391968935728">
        <ele>-0.82</ele>
        <time>2025-04-30T09:25:33Z</time>
      </trkpt>
      <trkpt lat="43.706707041710615" lon="-7.690506968647242">
        <ele>0.14</ele>
        <time>2025-04-30T09:25:34Z</time>
      </trkpt>
      <trkpt lat="43.706635963171721" lon="-7.690599001944065">
        <ele>1.1</ele>
        <time>2025-04-30T09:25:35Z</time>
      </trkpt>
      <trkpt lat="43.706543007865548" lon="-7.690681982785463">
        <ele>2.54</ele>
        <time>2025-04-30T09:25:36Z</time>
      </trkpt>
      <trkpt lat="43.706450974568725" lon="-7.690764041617513">
        <ele>3.5</ele>
        <time>2025-04-30T09:25:37Z</time>
      </trkpt>
      <trkpt lat="43.706364976242185" lon="-7.690840987488627">
        <ele>4.94</ele>
        <time>2025-04-30T09:25:38Z</time>
      </trkpt>
      <trkpt lat="43.706284007057548" lon="-7.690956993028522">
        <ele>5.91</ele>
        <time>2025-04-30T09:25:39Z</time>
      </trkpt>
      <trkpt lat="43.706257017329335" lon="-7.691086996346712">
        <ele>7.35</ele>
        <time>2025-04-30T09:25:40Z</time>
      </trkpt>
      <trkpt lat="43.706227010115981" lon="-7.691228985786438">
        <ele>8.310000000000001</ele>
        <time>2025-04-30T09:25:41Z</time>
      </trkpt>
      <trkpt lat="43.706195997074246" lon="-7.691373992711306">
        <ele>9.75</ele>
        <time>2025-04-30T09:25:42Z</time>
      </trkpt>
      <trkpt lat="43.706143023446202" lon="-7.691614972427487">
        <ele>12.15</ele>
        <time>2025-04-30T09:25:44Z</time>
      </trkpt>
      <trkpt lat="43.706086026504636" lon="-7.691715974360704">
        <ele>13.6</ele>
        <time>2025-04-30T09:25:45Z</time>
      </trkpt>
      <trkpt lat="43.706024000421166" lon="-7.691826028749347">
        <ele>15.039999999999999</ele>
        <time>2025-04-30T09:25:46Z</time>
      </trkpt>
      <trkpt lat="43.705958034843206" lon="-7.691942034289241">
        <ele>16</ele>
        <time>2025-04-30T09:25:47Z</time>
      </trkpt>
      <trkpt lat="43.705887962132692" lon="-7.692066002637148">
        <ele>17.440000000000001</ele>
        <time>2025-04-30T09:25:48Z</time>
      </trkpt>
      <trkpt lat="43.705844962969422" lon="-7.692217966541648">
        <ele>18.879999999999999</ele>
        <time>2025-04-30T09:25:49Z</time>
      </trkpt>
      <trkpt lat="43.7058150395751" lon="-7.692377977073193">
        <ele>19.84</ele>
        <time>2025-04-30T09:25:50Z</time>
      </trkpt>
      <trkpt lat="43.705783020704985" lon="-7.692544022575021">
        <ele>21.289999999999999</ele>
        <time>2025-04-30T09:25:51Z</time>
      </trkpt>
      <trkpt lat="43.705738009884953" lon="-7.692880975082517">
        <ele>24.170000000000002</ele>
        <time>2025-04-30T09:25:53Z</time>
      </trkpt>
      <trkpt lat="43.705716971307993" lon="-7.693048026412725">
        <ele>25.129999999999999</ele>
        <time>2025-04-30T09:25:54Z</time>
      </trkpt>
      <trkpt lat="43.705748990178108" lon="-7.693189010024071">
        <ele>26.57</ele>
        <time>2025-04-30T09:25:55Z</time>
      </trkpt>
      <trkpt lat="43.705784026533365" lon="-7.693329993635416">
        <ele>28.02</ele>
        <time>2025-04-30T09:25:56Z</time>
      </trkpt>
      <trkpt lat="43.705870024859905" lon="-7.693455973640084">
        <ele>29.940000000000001</ele>
        <time>2025-04-30T09:25:57Z</time>
      </trkpt>
      <trkpt lat="43.705960968509316" lon="-7.693590000271797">
        <ele>31.379999999999999</ele>
        <time>2025-04-30T09:25:58Z</time>
      </trkpt>
      <trkpt lat="43.706381991505623" lon="-7.694270024076104">
        <ele>38.590000000000003</ele>
        <time>2025-04-30T09:26:03Z</time>
      </trkpt>
      <trkpt lat="43.706419039517641" lon="-7.694381000474095">
        <ele>40.030000000000001</ele>
        <time>2025-04-30T09:26:04Z</time>
      </trkpt>
      <trkpt lat="43.706449968740344" lon="-7.694528019055724">
        <ele>40.990000000000002</ele>
        <time>2025-04-30T09:26:05Z</time>
      </trkpt>
      <trkpt lat="43.70646103285253" lon="-7.694679982960224">
        <ele>41.950000000000003</ele>
        <time>2025-04-30T09:26:06Z</time>
      </trkpt>
      <trkpt lat="43.706472013145685" lon="-7.694848962128162">
        <ele>42.920000000000002</ele>
        <time>2025-04-30T09:26:07Z</time>
      </trkpt>
      <trkpt lat="43.706548037007451" lon="-7.695351960137487">
        <ele>45.799999999999997</ele>
        <time>2025-04-30T09:26:10Z</time>
      </trkpt>
      <trkpt lat="43.706586007028818" lon="-7.695509037002921">
        <ele>46.759999999999998</ele>
        <time>2025-04-30T09:26:11Z</time>
      </trkpt>
      <trkpt lat="43.706641998142004" lon="-7.695786980912089">
        <ele>49.159999999999997</ele>
        <time>2025-04-30T09:26:13Z</time>
      </trkpt>
      <trkpt lat="43.706648033112288" lon="-7.695940034464002">
        <ele>50.609999999999999</ele>
        <time>2025-04-30T09:26:14Z</time>
      </trkpt>
      <trkpt lat="43.70665499009192" lon="-7.696100967004895">
        <ele>52.049999999999997</ele>
        <time>2025-04-30T09:26:15Z</time>
      </trkpt>
      <trkpt lat="43.70667602866888" lon="-7.696270029991865">
        <ele>53.009999999999998</ele>
        <time>2025-04-30T09:26:16Z</time>
      </trkpt>
      <trkpt lat="43.706731013953686" lon="-7.696434985846281">
        <ele>54.450000000000003</ele>
        <time>2025-04-30T09:26:17Z</time>
      </trkpt>
      <trkpt lat="43.70680502615869" lon="-7.696592984721065">
        <ele>55.409999999999997</ele>
        <time>2025-04-30T09:26:18Z</time>
      </trkpt>
      <trkpt lat="43.706887001171708" lon="-7.696748971939087">
        <ele>56.859999999999999</ele>
        <time>2025-04-30T09:26:19Z</time>
      </trkpt>
      <trkpt lat="43.706962019205093" lon="-7.696891967207193">
        <ele>57.82</ele>
        <time>2025-04-30T09:26:20Z</time>
      </trkpt>
      <trkpt lat="43.707039970904589" lon="-7.696991041302681">
        <ele>58.780000000000001</ele>
        <time>2025-04-30T09:26:21Z</time>
      </trkpt>
      <trkpt lat="43.707125969231129" lon="-7.697080979123712">
        <ele>60.219999999999999</ele>
        <time>2025-04-30T09:26:22Z</time>
      </trkpt>
      <trkpt lat="43.707416988909245" lon="-7.697387002408505">
        <ele>64.549999999999997</ele>
        <time>2025-04-30T09:26:25Z</time>
      </trkpt>
      <trkpt lat="43.707783026620746" lon="-7.697969963774085">
        <ele>72.719999999999999</ele>
        <time>2025-04-30T09:26:30Z</time>
      </trkpt>
      <trkpt lat="43.707818984985352" lon="-7.698094015941024">
        <ele>73.680000000000007</ele>
        <time>2025-04-30T09:26:31Z</time>
      </trkpt>
      <trkpt lat="43.707857960835099" lon="-7.698225025087595">
        <ele>75.120000000000005</ele>
        <time>2025-04-30T09:26:32Z</time>
      </trkpt>
      <trkpt lat="43.707844968885183" lon="-7.698363997042179">
        <ele>76.079999999999998</ele>
        <time>2025-04-30T09:26:33Z</time>
      </trkpt>
      <trkpt lat="43.707823008298874" lon="-7.698527025058866">
        <ele>77.040000000000006</ele>
        <time>2025-04-30T09:26:34Z</time>
      </trkpt>
      <trkpt lat="43.707801969721913" lon="-7.698677983134985">
        <ele>78.480000000000004</ele>
        <time>2025-04-30T09:26:35Z</time>
      </trkpt>
      <trkpt lat="43.707783026620746" lon="-7.698814021423459">
        <ele>79.450000000000003</ele>
        <time>2025-04-30T09:26:36Z</time>
      </trkpt>
      <trkpt lat="43.707745978608727" lon="-7.698920974507928">
        <ele>80.890000000000001</ele>
        <time>2025-04-30T09:26:37Z</time>
      </trkpt>
      <trkpt lat="43.707682024687529" lon="-7.699041003361344">
        <ele>81.849999999999994</ele>
        <time>2025-04-30T09:26:38Z</time>
      </trkpt>
      <trkpt lat="43.707618992775679" lon="-7.699161032214761">
        <ele>82.810000000000002</ele>
        <time>2025-04-30T09:26:39Z</time>
      </trkpt>
      <trkpt lat="43.707541963085532" lon="-7.69926899112761">
        <ele>83.290000000000006</ele>
        <time>2025-04-30T09:26:40Z</time>
      </trkpt>
      <trkpt lat="43.707440039142966" lon="-7.699370998889208">
        <ele>83.769999999999996</ele>
        <time>2025-04-30T09:26:41Z</time>
      </trkpt>
      <trkpt lat="43.707336019724607" lon="-7.699475018307567">
        <ele>83.769999999999996</ele>
        <time>2025-04-30T09:26:42Z</time>
      </trkpt>
      <trkpt lat="43.70723501779139" lon="-7.699576020240784">
        <ele>84.25</ele>
        <time>2025-04-30T09:26:43Z</time>
      </trkpt>
      <trkpt lat="43.707136027514935" lon="-7.69967501051724">
        <ele>84.730000000000004</ele>
        <time>2025-04-30T09:26:44Z</time>
      </trkpt>
      <trkpt lat="43.707034019753337" lon="-7.699736030772328">
        <ele>85.209999999999994</ele>
        <time>2025-04-30T09:26:45Z</time>
      </trkpt>
      <trkpt lat="43.706907033920288" lon="-7.699771989136934">
        <ele>85.689999999999998</ele>
        <time>2025-04-30T09:26:46Z</time>
      </trkpt>
      <trkpt lat="43.70676496066153" lon="-7.699810964986682">
        <ele>85.689999999999998</ele>
        <time>2025-04-30T09:26:47Z</time>
      </trkpt>
      <trkpt lat="43.706617020070553" lon="-7.699852036312223">
        <ele>85.689999999999998</ele>
        <time>2025-04-30T09:26:48Z</time>
      </trkpt>
      <trkpt lat="43.706474024802446" lon="-7.69989101216197">
        <ele>85.209999999999994</ele>
        <time>2025-04-30T09:26:49Z</time>
      </trkpt>
      <trkpt lat="43.70633396320045" lon="-7.699929988011718">
        <ele>84.730000000000004</ele>
        <time>2025-04-30T09:26:50Z</time>
      </trkpt>
      <trkpt lat="43.706048978492618" lon="-7.70002000965178">
        <ele>83.769999999999996</ele>
        <time>2025-04-30T09:26:52Z</time>
      </trkpt>
      <trkpt lat="43.704962013289332" lon="-7.700715959072113">
        <ele>75.120000000000005</ele>
        <time>2025-04-30T09:27:00Z</time>
      </trkpt>
      <trkpt lat="43.704718016088009" lon="-7.700916035100818">
        <ele>73.200000000000003</ele>
        <time>2025-04-30T09:27:02Z</time>
      </trkpt>
      <trkpt lat="43.704595975577831" lon="-7.701017037034035">
        <ele>72.239999999999995</ele>
        <time>2025-04-30T09:27:03Z</time>
      </trkpt>
      <trkpt lat="43.704343009740114" lon="-7.701222980394959">
        <ele>70.310000000000002</ele>
        <time>2025-04-30T09:27:05Z</time>
      </trkpt>
      <trkpt lat="43.703939002007246" lon="-7.701794961467385">
        <ele>67.430000000000007</ele>
        <time>2025-04-30T09:27:09Z</time>
      </trkpt>
      <trkpt lat="43.703209022060037" lon="-7.703105974942446">
        <ele>59.740000000000002</ele>
        <time>2025-04-30T09:27:17Z</time>
      </trkpt>
      <trkpt lat="43.702918002381921" lon="-7.703807959333062">
        <ele>55.890000000000001</ele>
        <time>2025-04-30T09:27:21Z</time>
      </trkpt>
      <trkpt lat="43.702846001833677" lon="-7.703979033976793">
        <ele>54.93</ele>
        <time>2025-04-30T09:27:22Z</time>
      </trkpt>
      <trkpt lat="43.702774001285434" lon="-7.704139966517687">
        <ele>53.490000000000002</ele>
        <time>2025-04-30T09:27:23Z</time>
      </trkpt>
      <trkpt lat="43.702709963545203" lon="-7.704282039776444">
        <ele>52.530000000000001</ele>
        <time>2025-04-30T09:27:24Z</time>
      </trkpt>
      <trkpt lat="43.702648021280766" lon="-7.704417994245887">
        <ele>51.57</ele>
        <time>2025-04-30T09:27:25Z</time>
      </trkpt>
      <trkpt lat="43.702579038217664" lon="-7.704572975635529">
        <ele>50.130000000000003</ele>
        <time>2025-04-30T09:27:26Z</time>
      </trkpt>
      <trkpt lat="43.70250997133553" lon="-7.704744972288609">
        <ele>49.159999999999997</ele>
        <time>2025-04-30T09:27:27Z</time>
      </trkpt>
      <trkpt lat="43.702448029071093" lon="-7.704928033053875">
        <ele>47.719999999999999</ele>
        <time>2025-04-30T09:27:28Z</time>
      </trkpt>
      <trkpt lat="43.702339986339211" lon="-7.70524000748992">
        <ele>45.32</ele>
        <time>2025-04-30T09:27:30Z</time>
      </trkpt>
      <trkpt lat="43.702273014932871" lon="-7.705385014414787">
        <ele>44.359999999999999</ele>
        <time>2025-04-30T09:27:31Z</time>
      </trkpt>
      <trkpt lat="43.702193973585963" lon="-7.705488028004766">
        <ele>42.920000000000002</ele>
        <time>2025-04-30T09:27:32Z</time>
      </trkpt>
      <trkpt lat="43.702113004401326" lon="-7.705594981089234">
        <ele>41.469999999999999</ele>
        <time>2025-04-30T09:27:33Z</time>
      </trkpt>
      <trkpt lat="43.702033963054419" lon="-7.705699000507593">
        <ele>40.030000000000001</ele>
        <time>2025-04-30T09:27:34Z</time>
      </trkpt>
      <trkpt lat="43.701931033283472" lon="-7.705806959420443">
        <ele>38.590000000000003</ele>
        <time>2025-04-30T09:27:35Z</time>
      </trkpt>
      <trkpt lat="43.701827013865113" lon="-7.705854987725616">
        <ele>37.149999999999999</ele>
        <time>2025-04-30T09:27:36Z</time>
      </trkpt>
      <trkpt lat="43.701699022203684" lon="-7.705904021859169">
        <ele>36.189999999999998</ele>
        <time>2025-04-30T09:27:37Z</time>
      </trkpt>
      <trkpt lat="43.701555021107197" lon="-7.705919025465846">
        <ele>34.740000000000002</ele>
        <time>2025-04-30T09:27:38Z</time>
      </trkpt>
      <trkpt lat="43.701384030282497" lon="-7.705937968567014">
        <ele>33.299999999999997</ele>
        <time>2025-04-30T09:27:39Z</time>
      </trkpt>
      <trkpt lat="43.701202981173992" lon="-7.705958001315594">
        <ele>31.859999999999999</ele>
        <time>2025-04-30T09:27:40Z</time>
      </trkpt>
      <trkpt lat="43.70102402754128" lon="-7.705977028235793">
        <ele>29.940000000000001</ele>
        <time>2025-04-30T09:27:41Z</time>
      </trkpt>
      <trkpt lat="43.700527986511588" lon="-7.706083981320262">
        <ele>25.129999999999999</ele>
        <time>2025-04-30T09:27:44Z</time>
      </trkpt>
      <trkpt lat="43.700387002900243" lon="-7.706136032938957">
        <ele>23.210000000000001</ele>
        <time>2025-04-30T09:27:45Z</time>
      </trkpt>
      <trkpt lat="43.700288012623787" lon="-7.706171991303563">
        <ele>20.809999999999999</ele>
        <time>2025-04-30T09:27:46Z</time>
      </trkpt>
      <trkpt lat="43.700192039832473" lon="-7.706246003508568">
        <ele>16.960000000000001</ele>
        <time>2025-04-30T09:27:48Z</time>
      </trkpt>
      <trkpt lat="43.700154991820455" lon="-7.706280034035444">
        <ele>15.52</ele>
        <time>2025-04-30T09:27:49Z</time>
      </trkpt>
      <trkpt lat="43.700120961293578" lon="-7.706310963258147">
        <ele>13.6</ele>
        <time>2025-04-30T09:27:50Z</time>
      </trkpt>
      <trkpt lat="43.700078967958689" lon="-7.706348011270165">
        <ele>12.15</ele>
        <time>2025-04-30T09:27:51Z</time>
      </trkpt>
      <trkpt lat="43.700025994330645" lon="-7.706396039575338">
        <ele>10.23</ele>
        <time>2025-04-30T09:27:52Z</time>
      </trkpt>
      <trkpt lat="43.699967991560698" lon="-7.706448007375002">
        <ele>8.789999999999999</ele>
        <time>2025-04-30T09:27:53Z</time>
      </trkpt>
      <trkpt lat="43.699899008497596" lon="-7.706510033458471">
        <ele>7.35</ele>
        <time>2025-04-30T09:27:54Z</time>
      </trkpt>
      <trkpt lat="43.699836982414126" lon="-7.706566024571657">
        <ele>5.42</ele>
        <time>2025-04-30T09:27:55Z</time>
      </trkpt>
      <trkpt lat="43.699760958552361" lon="-7.706709019839764">
        <ele>3.98</ele>
        <time>2025-04-30T09:27:56Z</time>
      </trkpt>
      <trkpt lat="43.699685018509626" lon="-7.70685100927949">
        <ele>2.54</ele>
        <time>2025-04-30T09:27:57Z</time>
      </trkpt>
      <trkpt lat="43.699519978836179" lon="-7.707158038392663">
        <ele>-0.34</ele>
        <time>2025-04-30T09:27:59Z</time>
      </trkpt>
      <trkpt lat="43.699430041015148" lon="-7.707326011732221">
        <ele>-1.79</ele>
        <time>2025-04-30T09:28:00Z</time>
      </trkpt>
      <trkpt lat="43.698544995859265" lon="-7.708683963865042">
        <ele>-12.359999999999999</ele>
        <time>2025-04-30T09:28:08Z</time>
      </trkpt>
      <trkpt lat="43.697805041447282" lon="-7.709569009020925">
        <ele>-17.649999999999999</ele>
        <time>2025-04-30T09:28:14Z</time>
      </trkpt>
      <trkpt lat="43.697662968188524" lon="-7.709681997075677">
        <ele>-18.129999999999999</ele>
        <time>2025-04-30T09:28:15Z</time>
      </trkpt>
      <trkpt lat="43.69709400460124" lon="-7.710134033113718">
        <ele>-19.09</ele>
        <time>2025-04-30T09:28:19Z</time>
      </trkpt>
      <trkpt lat="43.696988979354501" lon="-7.710254983976483">
        <ele>-19.09</ele>
        <time>2025-04-30T09:28:20Z</time>
      </trkpt>
      <trkpt lat="43.696893006563187" lon="-7.710394961759448">
        <ele>-19.57</ele>
        <time>2025-04-30T09:28:21Z</time>
      </trkpt>
      <trkpt lat="43.696802984923124" lon="-7.710524965077639">
        <ele>-19.57</ele>
        <time>2025-04-30T09:28:22Z</time>
      </trkpt>
      <trkpt lat="43.696720004081726" lon="-7.710647005587816">
        <ele>-20.050000000000001</ele>
        <time>2025-04-30T09:28:23Z</time>
      </trkpt>
      <trkpt lat="43.696619002148509" lon="-7.710793018341065">
        <ele>-20.050000000000001</ele>
        <time>2025-04-30T09:28:24Z</time>
      </trkpt>
      <trkpt lat="43.696539038792253" lon="-7.710833000019193">
        <ele>-19.57</ele>
        <time>2025-04-30T09:28:25Z</time>
      </trkpt>
      <trkpt lat="43.696440970525146" lon="-7.710882034152746">
        <ele>-19.09</ele>
        <time>2025-04-30T09:28:26Z</time>
      </trkpt>
      <trkpt lat="43.696327982470393" lon="-7.710918998345733">
        <ele>-19.57</ele>
        <time>2025-04-30T09:28:27Z</time>
      </trkpt>
      <trkpt lat="43.696226980537176" lon="-7.7109120413661">
        <ele>-19.57</ele>
        <time>2025-04-30T09:28:28Z</time>
      </trkpt>
      <trkpt lat="43.696137964725494" lon="-7.710905000567436">
        <ele>-19.57</ele>
        <time>2025-04-30T09:28:29Z</time>
      </trkpt>
      <trkpt lat="43.696004021912813" lon="-7.710899971425533">
        <ele>-19.57</ele>
        <time>2025-04-30T09:28:31Z</time>
      </trkpt>
      <trkpt lat="43.695947024971247" lon="-7.710899971425533">
        <ele>-19.09</ele>
        <time>2025-04-30T09:28:32Z</time>
      </trkpt>
      <trkpt lat="43.695824984461069" lon="-7.710899971425533">
        <ele>-19.09</ele>
        <time>2025-04-30T09:28:33Z</time>
      </trkpt>
      <trkpt lat="43.695814004167914" lon="-7.710941964760423">
        <ele>-19.09</ele>
        <time>2025-04-30T09:28:34Z</time>
      </trkpt>
      <trkpt lat="43.695787014439702" lon="-7.711050007492304">
        <ele>-19.09</ele>
        <time>2025-04-30T09:28:35Z</time>
      </trkpt>
      <trkpt lat="43.695757007226348" lon="-7.71117196418345">
        <ele>-18.609999999999999</ele>
        <time>2025-04-30T09:28:36Z</time>
      </trkpt>
      <trkpt lat="43.695751978084445" lon="-7.711346978321672">
        <ele>-17.649999999999999</ele>
        <time>2025-04-30T09:28:37Z</time>
      </trkpt>
      <trkpt lat="43.695771005004644" lon="-7.711487039923668">
        <ele>-17.170000000000002</ele>
        <time>2025-04-30T09:28:38Z</time>
      </trkpt>
      <trkpt lat="43.695915006101131" lon="-7.711926000192761">
        <ele>-13.800000000000001</ele>
        <time>2025-04-30T09:28:41Z</time>
      </trkpt>
      <trkpt lat="43.695982983335853" lon="-7.712042005732656">
        <ele>-11.880000000000001</ele>
        <time>2025-04-30T09:28:42Z</time>
      </trkpt>
      <trkpt lat="43.696121033281088" lon="-7.712206039577723">
        <ele>-9.960000000000001</ele>
        <time>2025-04-30T09:28:44Z</time>
      </trkpt>
      <trkpt lat="43.696182975545526" lon="-7.712217019870877">
        <ele>-9.48</ele>
        <time>2025-04-30T09:28:45Z</time>
      </trkpt>
      <trkpt lat="43.696270985528827" lon="-7.712228000164032">
        <ele>-8.51</ele>
        <time>2025-04-30T09:28:46Z</time>
      </trkpt>
      <trkpt lat="43.696347009390593" lon="-7.712225988507271">
        <ele>-7.55</ele>
        <time>2025-04-30T09:28:47Z</time>
      </trkpt>
      <trkpt lat="43.696440970525146" lon="-7.712217019870877">
        <ele>-7.07</ele>
        <time>2025-04-30T09:28:48Z</time>
      </trkpt>
      <trkpt lat="43.696887977421284" lon="-7.712173014879227">
        <ele>-5.63</ele>
        <time>2025-04-30T09:28:52Z</time>
      </trkpt>
      <trkpt lat="43.697241023182869" lon="-7.712126998230815">
        <ele>-3.23</ele>
        <time>2025-04-30T09:28:55Z</time>
      </trkpt>
      <trkpt lat="43.69737203232944" lon="-7.712241997942329">
        <ele>-2.27</ele>
        <time>2025-04-30T09:28:56Z</time>
      </trkpt>
      <trkpt lat="43.69745995849371" lon="-7.7122020162642">
        <ele>-1.3</ele>
        <time>2025-04-30T09:28:57Z</time>
      </trkpt>
      <trkpt lat="43.697527013719082" lon="-7.712171003222466">
        <ele>-0.34</ele>
        <time>2025-04-30T09:28:58Z</time>
      </trkpt>
      <trkpt lat="43.69756598956883" lon="-7.712152982130647">
        <ele>1.1</ele>
        <time>2025-04-30T09:28:59Z</time>
      </trkpt>
      <trkpt lat="43.697642013430595" lon="-7.712111994624138">
        <ele>3.5</ele>
        <time>2025-04-30T09:29:01Z</time>
      </trkpt>
      <trkpt lat="43.698210977017879" lon="-7.711838996037841">
        <ele>8.310000000000001</ele>
        <time>2025-04-30T09:29:07Z</time>
      </trkpt>
      <trkpt lat="43.69881397113204" lon="-7.711634980514646">
        <ele>10.23</ele>
        <time>2025-04-30T09:29:11Z</time>
      </trkpt>
      <trkpt lat="43.69898596778512" lon="-7.711705975234509">
        <ele>11.19</ele>
        <time>2025-04-30T09:29:12Z</time>
      </trkpt>
      <trkpt lat="43.69911496527493" lon="-7.711791973561049">
        <ele>11.67</ele>
        <time>2025-04-30T09:29:13Z</time>
      </trkpt>
      <trkpt lat="43.699346976354718" lon="-7.711934968829155">
        <ele>12.15</ele>
        <time>2025-04-30T09:29:15Z</time>
      </trkpt>
      <trkpt lat="43.699444960802794" lon="-7.71194402128458">
        <ele>12.15</ele>
        <time>2025-04-30T09:29:16Z</time>
      </trkpt>
      <trkpt lat="43.699535988271236" lon="-7.711899010464549">
        <ele>12.15</ele>
        <time>2025-04-30T09:29:17Z</time>
      </trkpt>
      <trkpt lat="43.699584016576409" lon="-7.711831033229828">
        <ele>12.15</ele>
        <time>2025-04-30T09:29:18Z</time>
      </trkpt>
      <trkpt lat="43.699631039053202" lon="-7.711691977456212">
        <ele>12.630000000000001</ele>
        <time>2025-04-30T09:29:19Z</time>
      </trkpt>
      <trkpt lat="43.699686024338007" lon="-7.711527021601796">
        <ele>13.119999999999999</ele>
        <time>2025-04-30T09:29:20Z</time>
      </trkpt>
      <trkpt lat="43.699738997966051" lon="-7.711367011070252">
        <ele>14.08</ele>
        <time>2025-04-30T09:29:21Z</time>
      </trkpt>
      <trkpt lat="43.699832037091255" lon="-7.71123600192368">
        <ele>15.039999999999999</ele>
        <time>2025-04-30T09:29:22Z</time>
      </trkpt>
      <trkpt lat="43.699950976297259" lon="-7.711156038567424">
        <ele>16</ele>
        <time>2025-04-30T09:29:23Z</time>
      </trkpt>
      <trkpt lat="43.700077962130308" lon="-7.711113961413503">
        <ele>17.440000000000001</ele>
        <time>2025-04-30T09:29:24Z</time>
      </trkpt>
      <trkpt lat="43.700214000418782" lon="-7.711071968078613">
        <ele>18.399999999999999</ele>
        <time>2025-04-30T09:29:25Z</time>
      </trkpt>
      <trkpt lat="43.700349032878876" lon="-7.711071968078613">
        <ele>19.84</ele>
        <time>2025-04-30T09:29:26Z</time>
      </trkpt>
      <trkpt lat="43.700485993176699" lon="-7.711072973906994">
        <ele>21.289999999999999</ele>
        <time>2025-04-30T09:29:27Z</time>
      </trkpt>
      <trkpt lat="43.701828019693494" lon="-7.711108010262251">
        <ele>26.57</ele>
        <time>2025-04-30T09:29:37Z</time>
      </trkpt>
      <trkpt lat="43.701957017183304" lon="-7.711058976128697">
        <ele>26.57</ele>
        <time>2025-04-30T09:29:38Z</time>
      </trkpt>
      <trkpt lat="43.702076962217689" lon="-7.710988987237215">
        <ele>26.57</ele>
        <time>2025-04-30T09:29:39Z</time>
      </trkpt>
      <trkpt lat="43.70229497551918" lon="-7.710808021947742">
        <ele>26.57</ele>
        <time>2025-04-30T09:29:41Z</time>
      </trkpt>
      <trkpt lat="43.7027239613235" lon="-7.710413988679647">
        <ele>25.129999999999999</ele>
        <time>2025-04-30T09:29:45Z</time>
      </trkpt>
      <trkpt lat="43.702838961035013" lon="-7.710361015051603">
        <ele>25.129999999999999</ele>
        <time>2025-04-30T09:29:46Z</time>
      </trkpt>
      <trkpt lat="43.702953038737178" lon="-7.710308963432908">
        <ele>24.649999999999999</ele>
        <time>2025-04-30T09:29:47Z</time>
      </trkpt>
      <trkpt lat="43.703060997650027" lon="-7.710260013118386">
        <ele>24.649999999999999</ele>
        <time>2025-04-30T09:29:48Z</time>
      </trkpt>
      <trkpt lat="43.703163005411625" lon="-7.710213996469975">
        <ele>24.170000000000002</ele>
        <time>2025-04-30T09:29:49Z</time>
      </trkpt>
      <trkpt lat="43.703268030658364" lon="-7.710213996469975">
        <ele>24.170000000000002</ele>
        <time>2025-04-30T09:29:50Z</time>
      </trkpt>
      <trkpt lat="43.70336702093482" lon="-7.710213996469975">
        <ele>23.690000000000001</ele>
        <time>2025-04-30T09:29:51Z</time>
      </trkpt>
      <trkpt lat="43.70345201343298" lon="-7.710250960662961">
        <ele>23.210000000000001</ele>
        <time>2025-04-30T09:29:52Z</time>
      </trkpt>
      <trkpt lat="43.70351898483932" lon="-7.710301000624895">
        <ele>22.25</ele>
        <time>2025-04-30T09:29:53Z</time>
      </trkpt>
      <trkpt lat="43.703575981780887" lon="-7.710404014214873">
        <ele>22.25</ele>
        <time>2025-04-30T09:29:54Z</time>
      </trkpt>
      <trkpt lat="43.703616969287395" lon="-7.710496969521046">
        <ele>21.289999999999999</ele>
        <time>2025-04-30T09:29:55Z</time>
      </trkpt>
      <trkpt lat="43.703633984550834" lon="-7.710651028901339">
        <ele>20.809999999999999</ele>
        <time>2025-04-30T09:29:56Z</time>
      </trkpt>
      <trkpt lat="43.703653011471033" lon="-7.710810033604503">
        <ele>19.359999999999999</ele>
        <time>2025-04-30T09:29:57Z</time>
      </trkpt>
      <trkpt lat="43.703671032562852" lon="-7.710970966145396">
        <ele>18.399999999999999</ele>
        <time>2025-04-30T09:29:58Z</time>
      </trkpt>
      <trkpt lat="43.7037100084126" lon="-7.711125025525689">
        <ele>17.440000000000001</ele>
        <time>2025-04-30T09:29:59Z</time>
      </trkpt>
      <trkpt lat="43.703760970383883" lon="-7.71127900108695">
        <ele>16.960000000000001</ele>
        <time>2025-04-30T09:30:00Z</time>
      </trkpt>
      <trkpt lat="43.703828025609255" lon="-7.711479999125004">
        <ele>17.440000000000001</ele>
        <time>2025-04-30T09:30:01Z</time>
      </trkpt>
      <trkpt lat="43.704095995053649" lon="-7.712002024054527">
        <ele>18.879999999999999</ele>
        <time>2025-04-30T09:30:05Z</time>
      </trkpt>
      <trkpt lat="43.704173024743795" lon="-7.712128004059196">
        <ele>18.879999999999999</ele>
        <time>2025-04-30T09:30:06Z</time>
      </trkpt>
      <trkpt lat="43.704251982271671" lon="-7.712258007377386">
        <ele>19.359999999999999</ele>
        <time>2025-04-30T09:30:07Z</time>
      </trkpt>
      <trkpt lat="43.704736037179828" lon="-7.712851027026773">
        <ele>24.649999999999999</ele>
        <time>2025-04-30T09:30:12Z</time>
      </trkpt>
      <trkpt lat="43.704838966950774" lon="-7.712959991768003">
        <ele>26.09</ele>
        <time>2025-04-30T09:30:13Z</time>
      </trkpt>
      <trkpt lat="43.704955978319049" lon="-7.713037021458149">
        <ele>27.050000000000001</ele>
        <time>2025-04-30T09:30:14Z</time>
      </trkpt>
      <trkpt lat="43.705072989687324" lon="-7.713088989257813">
        <ele>28.02</ele>
        <time>2025-04-30T09:30:15Z</time>
      </trkpt>
      <trkpt lat="43.705202993005514" lon="-7.713088989257813">
        <ele>28.98</ele>
        <time>2025-04-30T09:30:16Z</time>
      </trkpt>
      <trkpt lat="43.705337019637227" lon="-7.713054036721587">
        <ele>30.420000000000002</ele>
        <time>2025-04-30T09:30:17Z</time>
      </trkpt>
      <trkpt lat="43.705470962449908" lon="-7.712986981496215">
        <ele>32.340000000000003</ele>
        <time>2025-04-30T09:30:18Z</time>
      </trkpt>
      <trkpt lat="43.705596020445228" lon="-7.712924033403397">
        <ele>33.780000000000001</ele>
        <time>2025-04-30T09:30:19Z</time>
      </trkpt>
      <trkpt lat="43.705695010721684" lon="-7.712874999269843">
        <ele>35.229999999999997</ele>
        <time>2025-04-30T09:30:20Z</time>
      </trkpt>
      <trkpt lat="43.705794000998139" lon="-7.712924033403397">
        <ele>36.670000000000002</ele>
        <time>2025-04-30T09:30:21Z</time>
      </trkpt>
      <trkpt lat="43.705877987667918" lon="-7.712980024516583">
        <ele>38.109999999999999</ele>
        <time>2025-04-30T09:30:22Z</time>
      </trkpt>
      <trkpt lat="43.705943031236529" lon="-7.713097035884857">
        <ele>39.07</ele>
        <time>2025-04-30T09:30:23Z</time>
      </trkpt>
      <trkpt lat="43.706003967672586" lon="-7.713237013667822">
        <ele>39.549999999999997</ele>
        <time>2025-04-30T09:30:24Z</time>
      </trkpt>
      <trkpt lat="43.706162972375751" lon="-7.713537001982331">
        <ele>41.950000000000003</ele>
        <time>2025-04-30T09:30:26Z</time>
      </trkpt>
      <trkpt lat="43.706257017329335" lon="-7.713667005300522">
        <ele>42.920000000000002</ele>
        <time>2025-04-30T09:30:27Z</time>
      </trkpt>
      <trkpt lat="43.706391965970397" lon="-7.713739005848765">
        <ele>43.880000000000003</ele>
        <time>2025-04-30T09:30:28Z</time>
      </trkpt>
      <trkpt lat="43.706519035622478" lon="-7.713817041367292">
        <ele>44.840000000000003</ele>
        <time>2025-04-30T09:30:29Z</time>
      </trkpt>
      <trkpt lat="43.706647027283907" lon="-7.713861968368292">
        <ele>46.280000000000001</ele>
        <time>2025-04-30T09:30:30Z</time>
      </trkpt>
      <trkpt lat="43.706765966489911" lon="-7.713889963924885">
        <ele>47.240000000000002</ele>
        <time>2025-04-30T09:30:31Z</time>
      </trkpt>
      <trkpt lat="43.706918014213443" lon="-7.713926006108522">
        <ele>48.200000000000003</ele>
        <time>2025-04-30T09:30:32Z</time>
      </trkpt>
      <trkpt lat="43.707009041681886" lon="-7.713864985853434">
        <ele>49.159999999999997</ele>
        <time>2025-04-30T09:30:33Z</time>
      </trkpt>
      <trkpt lat="43.707101996988058" lon="-7.713751997798681">
        <ele>50.130000000000003</ele>
        <time>2025-04-30T09:30:34Z</time>
      </trkpt>
      <trkpt lat="43.707183972001076" lon="-7.713618976995349">
        <ele>51.57</ele>
        <time>2025-04-30T09:30:35Z</time>
      </trkpt>
      <trkpt lat="43.707267958670855" lon="-7.713478999212384">
        <ele>52.530000000000001</ele>
        <time>2025-04-30T09:30:36Z</time>
      </trkpt>
      <trkpt lat="43.707352029159665" lon="-7.71333902142942">
        <ele>53.969999999999999</ele>
        <time>2025-04-30T09:30:37Z</time>
      </trkpt>
      <trkpt lat="43.707437021657825" lon="-7.713198037818074">
        <ele>54.93</ele>
        <time>2025-04-30T09:30:38Z</time>
      </trkpt>
      <trkpt lat="43.70800900273025" lon="-7.712554978206754">
        <ele>61.659999999999997</ele>
        <time>2025-04-30T09:30:44Z</time>
      </trkpt>
      <trkpt lat="43.708103969693184" lon="-7.712435033172369">
        <ele>62.619999999999997</ele>
        <time>2025-04-30T09:30:45Z</time>
      </trkpt>
      <trkpt lat="43.708303039893508" lon="-7.712214002385736">
        <ele>65.510000000000005</ele>
        <time>2025-04-30T09:30:47Z</time>
      </trkpt>
      <trkpt lat="43.708399012684822" lon="-7.712145019322634">
        <ele>66.469999999999999</ele>
        <time>2025-04-30T09:30:48Z</time>
      </trkpt>
      <trkpt lat="43.708528010174632" lon="-7.712134961038828">
        <ele>67.909999999999997</ele>
        <time>2025-04-30T09:30:49Z</time>
      </trkpt>
      <trkpt lat="43.708677962422371" lon="-7.712122974917293">
        <ele>69.349999999999994</ele>
        <time>2025-04-30T09:30:50Z</time>
      </trkpt>
      <trkpt lat="43.708792040124536" lon="-7.712148958817124">
        <ele>70.310000000000002</ele>
        <time>2025-04-30T09:30:51Z</time>
      </trkpt>
      <trkpt lat="43.709875987842679" lon="-7.712007975205779">
        <ele>76.560000000000002</ele>
        <time>2025-04-30T09:30:58Z</time>
      </trkpt>
      <trkpt lat="43.711171997711062" lon="-7.71172801963985">
        <ele>75.120000000000005</ele>
        <time>2025-04-30T09:31:05Z</time>
      </trkpt>
      <trkpt lat="43.711725035682321" lon="-7.711630035191774">
        <ele>71.760000000000005</ele>
        <time>2025-04-30T09:31:08Z</time>
      </trkpt>
      <trkpt lat="43.711916981264949" lon="-7.711682002991438">
        <ele>70.790000000000006</ele>
        <time>2025-04-30T09:31:09Z</time>
      </trkpt>
      <trkpt lat="43.712252005934715" lon="-7.711741011589766">
        <ele>69.349999999999994</ele>
        <time>2025-04-30T09:31:11Z</time>
      </trkpt>
      <trkpt lat="43.712376980111003" lon="-7.711699018254876">
        <ele>68.870000000000005</ele>
        <time>2025-04-30T09:31:12Z</time>
      </trkpt>
      <trkpt lat="43.712473958730698" lon="-7.711597010493279">
        <ele>68.870000000000005</ele>
        <time>2025-04-30T09:31:13Z</time>
      </trkpt>
      <trkpt lat="43.712554005905986" lon="-7.711466001346707">
        <ele>69.349999999999994</ele>
        <time>2025-04-30T09:31:14Z</time>
      </trkpt>
      <trkpt lat="43.712626006454229" lon="-7.711306996643543">
        <ele>70.310000000000002</ele>
        <time>2025-04-30T09:31:15Z</time>
      </trkpt>
      <trkpt lat="43.713162029162049" lon="-7.710192035883665">
        <ele>76.560000000000002</ele>
        <time>2025-04-30T09:31:21Z</time>
      </trkpt>
      <trkpt lat="43.71329496614635" lon="-7.71001098677516">
        <ele>77.519999999999996</ele>
        <time>2025-04-30T09:31:22Z</time>
      </trkpt>
      <trkpt lat="43.713431004434824" lon="-7.70983899012208">
        <ele>78.969999999999999</ele>
        <time>2025-04-30T09:31:23Z</time>
      </trkpt>
      <trkpt lat="43.713969960808754" lon="-7.709317971020937">
        <ele>83.290000000000006</ele>
        <time>2025-04-30T09:31:27Z</time>
      </trkpt>
      <trkpt lat="43.71410901658237" lon="-7.709243958815932">
        <ele>83.769999999999996</ele>
        <time>2025-04-30T09:31:28Z</time>
      </trkpt>
      <trkpt lat="43.714258968830109" lon="-7.709234990179539">
        <ele>84.25</ele>
        <time>2025-04-30T09:31:29Z</time>
      </trkpt>
      <trkpt lat="43.714406993240118" lon="-7.709247982129455">
        <ele>84.25</ele>
        <time>2025-04-30T09:31:30Z</time>
      </trkpt>
      <trkpt lat="43.71455904096365" lon="-7.709358958527446">
        <ele>84.25</ele>
        <time>2025-04-30T09:31:31Z</time>
      </trkpt>
      <trkpt lat="43.714696001261473" lon="-7.709480999037623">
        <ele>83.769999999999996</ele>
        <time>2025-04-30T09:31:32Z</time>
      </trkpt>
      <trkpt lat="43.714832039549947" lon="-7.709640003740788">
        <ele>83.290000000000006</ele>
        <time>2025-04-30T09:31:33Z</time>
      </trkpt>
      <trkpt lat="43.714976962655783" lon="-7.709809988737106">
        <ele>82.810000000000002</ele>
        <time>2025-04-30T09:31:34Z</time>
      </trkpt>
      <trkpt lat="43.716081026941538" lon="-7.711157966405153">
        <ele>78</ele>
        <time>2025-04-30T09:31:42Z</time>
      </trkpt>
      <trkpt lat="43.716244976967573" lon="-7.711248993873596">
        <ele>77.519999999999996</ele>
        <time>2025-04-30T09:31:43Z</time>
      </trkpt>
      <trkpt lat="43.716381015256047" lon="-7.711265003308654">
        <ele>76.560000000000002</ele>
        <time>2025-04-30T09:31:44Z</time>
      </trkpt>
      <trkpt lat="43.716542031615973" lon="-7.711207000538707">
        <ele>76.079999999999998</ele>
        <time>2025-04-30T09:31:45Z</time>
      </trkpt>
      <trkpt lat="43.716699024662375" lon="-7.711127959191799">
        <ele>76.079999999999998</ele>
        <time>2025-04-30T09:31:46Z</time>
      </trkpt>
      <trkpt lat="43.71685903519392" lon="-7.711014971137047">
        <ele>76.560000000000002</ele>
        <time>2025-04-30T09:31:47Z</time>
      </trkpt>
      <trkpt lat="43.71701099909842" lon="-7.71089200861752">
        <ele>77.040000000000006</ele>
        <time>2025-04-30T09:31:48Z</time>
      </trkpt>
      <trkpt lat="43.717132033780217" lon="-7.710793018341065">
        <ele>77.519999999999996</ele>
        <time>2025-04-30T09:31:49Z</time>
      </trkpt>
      <trkpt lat="43.717221971601248" lon="-7.71061297506094">
        <ele>78.480000000000004</ele>
        <time>2025-04-30T09:31:50Z</time>
      </trkpt>
      <trkpt lat="43.71728902682662" lon="-7.710446007549763">
        <ele>79.450000000000003</ele>
        <time>2025-04-30T09:31:51Z</time>
      </trkpt>
      <trkpt lat="43.717320039868355" lon="-7.71022598259151">
        <ele>80.890000000000001</ele>
        <time>2025-04-30T09:31:52Z</time>
      </trkpt>
      <trkpt lat="43.717351974919438" lon="-7.710003023967147">
        <ele>81.849999999999994</ele>
        <time>2025-04-30T09:31:53Z</time>
      </trkpt>
      <trkpt lat="43.717401009052992" lon="-7.709545036777854">
        <ele>84.25</ele>
        <time>2025-04-30T09:31:55Z</time>
      </trkpt>
      <trkpt lat="43.717444008216262" lon="-7.709341021254659">
        <ele>86.180000000000007</ele>
        <time>2025-04-30T09:31:56Z</time>
      </trkpt>
      <trkpt lat="43.71752598322928" lon="-7.709149997681379">
        <ele>87.620000000000005</ele>
        <time>2025-04-30T09:31:57Z</time>
      </trkpt>
      <trkpt lat="43.717628996819258" lon="-7.709028962999582">
        <ele>88.579999999999998</ele>
        <time>2025-04-30T09:31:58Z</time>
      </trkpt>
      <trkpt lat="43.717724969610572" lon="-7.708917986601591">
        <ele>89.540000000000006</ele>
        <time>2025-04-30T09:31:59Z</time>
      </trkpt>
      <trkpt lat="43.717829994857311" lon="-7.708820002153516">
        <ele>90.5</ele>
        <time>2025-04-30T09:32:00Z</time>
      </trkpt>
      <trkpt lat="43.717927979305387" lon="-7.708739032968879">
        <ele>91.459999999999994</ele>
        <time>2025-04-30T09:32:01Z</time>
      </trkpt>
      <trkpt lat="43.718041973188519" lon="-7.708664014935494">
        <ele>91.459999999999994</ele>
        <time>2025-04-30T09:32:02Z</time>
      </trkpt>
      <trkpt lat="43.718140963464975" lon="-7.708646999672055">
        <ele>91.459999999999994</ele>
        <time>2025-04-30T09:32:03Z</time>
      </trkpt>
      <trkpt lat="43.718264009803534" lon="-7.708684969693422">
        <ele>91.459999999999994</ele>
        <time>2025-04-30T09:32:04Z</time>
      </trkpt>
      <trkpt lat="43.718370962888002" lon="-7.708717994391918">
        <ele>91.459999999999994</ele>
        <time>2025-04-30T09:32:05Z</time>
      </trkpt>
      <trkpt lat="43.718477999791503" lon="-7.708755964413285">
        <ele>91.459999999999994</ele>
        <time>2025-04-30T09:32:06Z</time>
      </trkpt>
      <trkpt lat="43.719385005533695" lon="-7.709033992141485">
        <ele>91.939999999999998</ele>
        <time>2025-04-30T09:32:14Z</time>
      </trkpt>
      <trkpt lat="43.720046002417803" lon="-7.708868030458689">
        <ele>90.5</ele>
        <time>2025-04-30T09:32:20Z</time>
      </trkpt>
      <trkpt lat="43.720152033492923" lon="-7.708852021023631">
        <ele>90.5</ele>
        <time>2025-04-30T09:32:21Z</time>
      </trkpt>
      <trkpt lat="43.720242977142334" lon="-7.708840034902096">
        <ele>90.019999999999996</ele>
        <time>2025-04-30T09:32:22Z</time>
      </trkpt>
      <trkpt lat="43.720366023480892" lon="-7.708885967731476">
        <ele>90.019999999999996</ele>
        <time>2025-04-30T09:32:23Z</time>
      </trkpt>
      <trkpt lat="43.72046803124249" lon="-7.708945982158184">
        <ele>89.540000000000006</ele>
        <time>2025-04-30T09:32:24Z</time>
      </trkpt>
      <trkpt lat="43.720582025125623" lon="-7.709034997969866">
        <ele>89.060000000000002</ele>
        <time>2025-04-30T09:32:25Z</time>
      </trkpt>
      <trkpt lat="43.72070599347353" lon="-7.709131976589561">
        <ele>88.579999999999998</ele>
        <time>2025-04-30T09:32:26Z</time>
      </trkpt>
      <trkpt lat="43.72083599679172" lon="-7.709233984351158">
        <ele>88.099999999999994</ele>
        <time>2025-04-30T09:32:27Z</time>
      </trkpt>
      <trkpt lat="43.720981003716588" lon="-7.709317971020937">
        <ele>88.099999999999994</ele>
        <time>2025-04-30T09:32:28Z</time>
      </trkpt>
      <trkpt lat="43.721130033954978" lon="-7.709347978234291">
        <ele>87.620000000000005</ele>
        <time>2025-04-30T09:32:29Z</time>
      </trkpt>
      <trkpt lat="43.721272023394704" lon="-7.709312019869685">
        <ele>87.620000000000005</ele>
        <time>2025-04-30T09:32:30Z</time>
      </trkpt>
      <trkpt lat="43.721418036147952" lon="-7.709231972694397">
        <ele>87.140000000000001</ele>
        <time>2025-04-30T09:32:31Z</time>
      </trkpt>
      <trkpt lat="43.721577962860465" lon="-7.709143962711096">
        <ele>87.140000000000001</ele>
        <time>2025-04-30T09:32:32Z</time>
      </trkpt>
      <trkpt lat="43.722621006891131" lon="-7.708530994132161">
        <ele>94.349999999999994</ele>
        <time>2025-04-30T09:32:38Z</time>
      </trkpt>
      <trkpt lat="43.722795015200973" lon="-7.708412976935506">
        <ele>95.790000000000006</ele>
        <time>2025-04-30T09:32:39Z</time>
      </trkpt>
      <trkpt lat="43.722929963842034" lon="-7.708249026909471">
        <ele>97.709999999999994</ele>
        <time>2025-04-30T09:32:40Z</time>
      </trkpt>
      <trkpt lat="43.723855996504426" lon="-7.707245964556932">
        <ele>108.77</ele>
        <time>2025-04-30T09:32:46Z</time>
      </trkpt>
      <trkpt lat="43.724026987329125" lon="-7.707150997593999">
        <ele>110.20999999999999</ele>
        <time>2025-04-30T09:32:47Z</time>
      </trkpt>
      <trkpt lat="43.72420703060925" lon="-7.707054018974304">
        <ele>111.65000000000001</ele>
        <time>2025-04-30T09:32:48Z</time>
      </trkpt>
      <trkpt lat="43.724391013383865" lon="-7.706992998719215">
        <ele>113.56999999999999</ele>
        <time>2025-04-30T09:32:49Z</time>
      </trkpt>
      <trkpt lat="43.724568039178848" lon="-7.706933990120888">
        <ele>114.53</ele>
        <time>2025-04-30T09:32:50Z</time>
      </trkpt>
      <trkpt lat="43.724899040535092" lon="-7.706770962104201">
        <ele>116.94</ele>
        <time>2025-04-30T09:32:52Z</time>
      </trkpt>
      <trkpt lat="43.725062990561128" lon="-7.706647999584675">
        <ele>118.38</ele>
        <time>2025-04-30T09:32:53Z</time>
      </trkpt>
      <trkpt lat="43.725223001092672" lon="-7.706526964902878">
        <ele>119.81999999999999</ele>
        <time>2025-04-30T09:32:54Z</time>
      </trkpt>
      <trkpt lat="43.725515026599169" lon="-7.706305012106895">
        <ele>122.22</ele>
        <time>2025-04-30T09:32:56Z</time>
      </trkpt>
      <trkpt lat="43.72566900216043" lon="-7.706203004345298">
        <ele>123.19</ele>
        <time>2025-04-30T09:32:57Z</time>
      </trkpt>
      <trkpt lat="43.725802022963762" lon="-7.706213984638453">
        <ele>123.67</ele>
        <time>2025-04-30T09:32:58Z</time>
      </trkpt>
      <trkpt lat="43.725943006575108" lon="-7.706244997680187">
        <ele>124.63</ele>
        <time>2025-04-30T09:32:59Z</time>
      </trkpt>
      <trkpt lat="43.726065969094634" lon="-7.706326972693205">
        <ele>125.59</ele>
        <time>2025-04-30T09:33:00Z</time>
      </trkpt>
      <trkpt lat="43.726165965199471" lon="-7.706394027918577">
        <ele>126.06999999999999</ele>
        <time>2025-04-30T09:33:01Z</time>
      </trkpt>
      <trkpt lat="43.726322036236525" lon="-7.706482037901878">
        <ele>126.55</ele>
        <time>2025-04-30T09:33:02Z</time>
      </trkpt>
      <trkpt lat="43.726458996534348" lon="-7.706558983772993">
        <ele>126.55</ele>
        <time>2025-04-30T09:33:03Z</time>
      </trkpt>
      <trkpt lat="43.727895990014076" lon="-7.706909012049437">
        <ele>118.86</ele>
        <time>2025-04-30T09:33:11Z</time>
      </trkpt>
      <trkpt lat="43.72828901745379" lon="-7.706901971250773">
        <ele>115.5</ele>
        <time>2025-04-30T09:33:13Z</time>
      </trkpt>
      <trkpt lat="43.72968602925539" lon="-7.706796023994684">
        <ele>101.56</ele>
        <time>2025-04-30T09:33:21Z</time>
      </trkpt>
      <trkpt lat="43.729830030351877" lon="-7.706825025379658">
        <ele>100.11</ele>
        <time>2025-04-30T09:33:22Z</time>
      </trkpt>
      <trkpt lat="43.730317018926144" lon="-7.707149991765618">
        <ele>95.790000000000006</ele>
        <time>2025-04-30T09:33:26Z</time>
      </trkpt>
      <trkpt lat="43.730403017252684" lon="-7.707277983427048">
        <ele>94.829999999999998</ele>
        <time>2025-04-30T09:33:27Z</time>
      </trkpt>
      <trkpt lat="43.730461020022631" lon="-7.707441011443734">
        <ele>94.349999999999994</ele>
        <time>2025-04-30T09:33:28Z</time>
      </trkpt>
      <trkpt lat="43.730507036671042" lon="-7.707585012540221">
        <ele>93.870000000000005</ele>
        <time>2025-04-30T09:33:29Z</time>
      </trkpt>
      <trkpt lat="43.730550035834312" lon="-7.707717027515173">
        <ele>92.900000000000006</ele>
        <time>2025-04-30T09:33:30Z</time>
      </trkpt>
      <trkpt lat="43.730587000027299" lon="-7.707833033055067">
        <ele>91.939999999999998</ele>
        <time>2025-04-30T09:33:31Z</time>
      </trkpt>
      <trkpt lat="43.730608038604259" lon="-7.707931017503142">
        <ele>90.980000000000004</ele>
        <time>2025-04-30T09:33:32Z</time>
      </trkpt>
      <trkpt lat="43.730608038604259" lon="-7.707996983081102">
        <ele>90.019999999999996</ele>
        <time>2025-04-30T09:33:33Z</time>
      </trkpt>
      <trkpt lat="43.730608038604259" lon="-7.708034031093121">
        <ele>89.060000000000002</ele>
        <time>2025-04-30T09:33:34Z</time>
      </trkpt>
      <trkpt lat="43.730608038604259" lon="-7.708058003336191">
        <ele>88.579999999999998</ele>
        <time>2025-04-30T09:33:35Z</time>
      </trkpt>
      <trkpt lat="43.730608038604259" lon="-7.708087004721165">
        <ele>87.620000000000005</ele>
        <time>2025-04-30T09:33:36Z</time>
      </trkpt>
      <trkpt lat="43.7305679731071" lon="-7.708138972520828">
        <ele>87.140000000000001</ele>
        <time>2025-04-30T09:33:37Z</time>
      </trkpt>
      <trkpt lat="43.730511981993914" lon="-7.70811902359128">
        <ele>86.180000000000007</ele>
        <time>2025-04-30T09:33:38Z</time>
      </trkpt>
      <trkpt lat="43.730431012809277" lon="-7.708090022206307">
        <ele>85.689999999999998</ele>
        <time>2025-04-30T09:33:39Z</time>
      </trkpt>
      <trkpt lat="43.729936983436346" lon="-7.707984996959567">
        <ele>85.209999999999994</ele>
        <time>2025-04-30T09:33:43Z</time>
      </trkpt>
      <trkpt lat="43.729788037016988" lon="-7.707996983081102">
        <ele>85.209999999999994</ele>
        <time>2025-04-30T09:33:44Z</time>
      </trkpt>
      <trkpt lat="43.729624003171921" lon="-7.708016010001302">
        <ele>85.689999999999998</ele>
        <time>2025-04-30T09:33:45Z</time>
      </trkpt>
      <trkpt lat="43.729448989033699" lon="-7.70803595893085">
        <ele>86.180000000000007</ele>
        <time>2025-04-30T09:33:46Z</time>
      </trkpt>
      <trkpt lat="43.729276992380619" lon="-7.708081975579262">
        <ele>86.659999999999997</ele>
        <time>2025-04-30T09:33:47Z</time>
      </trkpt>
      <trkpt lat="43.729098960757256" lon="-7.708156993612647">
        <ele>87.140000000000001</ele>
        <time>2025-04-30T09:33:48Z</time>
      </trkpt>
      <trkpt lat="43.728919001296163" lon="-7.708249026909471">
        <ele>88.099999999999994</ele>
        <time>2025-04-30T09:33:49Z</time>
      </trkpt>
      <trkpt lat="43.728738036006689" lon="-7.708342988044024">
        <ele>88.579999999999998</ele>
        <time>2025-04-30T09:33:50Z</time>
      </trkpt>
      <trkpt lat="43.727532969787717" lon="-7.709328029304743">
        <ele>92.420000000000002</ele>
        <time>2025-04-30T09:33:57Z</time>
      </trkpt>
      <trkpt lat="43.727241028100252" lon="-7.709718039259315">
        <ele>93.390000000000001</ele>
        <time>2025-04-30T09:33:59Z</time>
      </trkpt>
      <trkpt lat="43.727126028388739" lon="-7.70994602702558">
        <ele>93.870000000000005</ele>
        <time>2025-04-30T09:34:00Z</time>
      </trkpt>
      <trkpt lat="43.727008011192083" lon="-7.710181977599859">
        <ele>94.349999999999994</ele>
        <time>2025-04-30T09:34:01Z</time>
      </trkpt>
      <trkpt lat="43.72691597789526" lon="-7.710429998114705">
        <ele>94.829999999999998</ele>
        <time>2025-04-30T09:34:02Z</time>
      </trkpt>
      <trkpt lat="43.7268309853971" lon="-7.710683969780803">
        <ele>95.310000000000002</ele>
        <time>2025-04-30T09:34:03Z</time>
      </trkpt>
      <trkpt lat="43.726754039525986" lon="-7.710942970588803">
        <ele>96.269999999999996</ele>
        <time>2025-04-30T09:34:04Z</time>
      </trkpt>
      <trkpt lat="43.726105028763413" lon="-7.713357964530587">
        <ele>99.629999999999995</ele>
        <time>2025-04-30T09:34:13Z</time>
      </trkpt>
      <trkpt lat="43.725770004093647" lon="-7.714414000511169">
        <ele>100.11</ele>
        <time>2025-04-30T09:34:17Z</time>
      </trkpt>
      <trkpt lat="43.725725999101996" lon="-7.714678030461073">
        <ele>100.59999999999999</ele>
        <time>2025-04-30T09:34:18Z</time>
      </trkpt>
      <trkpt lat="43.725707978010178" lon="-7.714945999905467">
        <ele>100.59999999999999</ele>
        <time>2025-04-30T09:34:19Z</time>
      </trkpt>
      <trkpt lat="43.725750977173448" lon="-7.715179016813636">
        <ele>100.59999999999999</ele>
        <time>2025-04-30T09:34:20Z</time>
      </trkpt>
      <trkpt lat="43.725792970508337" lon="-7.715405998751521">
        <ele>100.59999999999999</ele>
        <time>2025-04-30T09:34:21Z</time>
      </trkpt>
      <trkpt lat="43.72588399797678" lon="-7.715614037588239">
        <ele>101.08</ele>
        <time>2025-04-30T09:34:22Z</time>
      </trkpt>
      <trkpt lat="43.725992040708661" lon="-7.715806988999248">
        <ele>101.08</ele>
        <time>2025-04-30T09:34:23Z</time>
      </trkpt>
      <trkpt lat="43.726134030148387" lon="-7.715914025902748">
        <ele>102.04000000000001</ele>
        <time>2025-04-30T09:34:24Z</time>
      </trkpt>
      <trkpt lat="43.726281970739365" lon="-7.716023996472359">
        <ele>102.52</ele>
        <time>2025-04-30T09:34:25Z</time>
      </trkpt>
      <trkpt lat="43.726453967392445" lon="-7.716124998405576">
        <ele>103.48</ele>
        <time>2025-04-30T09:34:26Z</time>
      </trkpt>
      <trkpt lat="43.726637028157711" lon="-7.716161040589213">
        <ele>104.44</ele>
        <time>2025-04-30T09:34:27Z</time>
      </trkpt>
      <trkpt lat="43.726824028417468" lon="-7.716196998953819">
        <ele>105.88</ele>
        <time>2025-04-30T09:34:28Z</time>
      </trkpt>
      <trkpt lat="43.727210015058517" lon="-7.716264976188541">
        <ele>108.77</ele>
        <time>2025-04-30T09:34:30Z</time>
      </trkpt>
      <trkpt lat="43.72738997451961" lon="-7.716296995058656">
        <ele>110.20999999999999</ele>
        <time>2025-04-30T09:34:31Z</time>
      </trkpt>
      <trkpt lat="43.7276909686625" lon="-7.716469997540116">
        <ele>112.61</ele>
        <time>2025-04-30T09:34:33Z</time>
      </trkpt>
      <trkpt lat="43.727799011394382" lon="-7.71654300391674">
        <ele>114.05</ele>
        <time>2025-04-30T09:34:34Z</time>
      </trkpt>
      <trkpt lat="43.727934965863824" lon="-7.716647023335099">
        <ele>117.90000000000001</ele>
        <time>2025-04-30T09:34:38Z</time>
      </trkpt>
      <trkpt lat="43.72792499139905" lon="-7.716630008071661">
        <ele>119.81999999999999</ele>
        <time>2025-04-30T09:34:40Z</time>
      </trkpt>
      <trkpt lat="43.72792499139905" lon="-7.716630008071661">
        <ele>123.19</ele>
        <time>2025-04-30T09:34:45Z</time>
      </trkpt>
      <trkpt lat="43.727919962257147" lon="-7.716613998636603">
        <ele>124.15000000000001</ele>
        <time>2025-04-30T09:34:46Z</time>
      </trkpt>
      <trkpt lat="43.727907976135612" lon="-7.716581979766488">
        <ele>124.63</ele>
        <time>2025-04-30T09:34:47Z</time>
      </trkpt>
      <trkpt lat="43.727890960872173" lon="-7.716532023623586">
        <ele>125.11</ele>
        <time>2025-04-30T09:34:48Z</time>
      </trkpt>
      <trkpt lat="43.727865982800722" lon="-7.716463962569833">
        <ele>125.59</ele>
        <time>2025-04-30T09:34:49Z</time>
      </trkpt>
      <trkpt lat="43.727808985859156" lon="-7.716300012543798">
        <ele>126.06999999999999</ele>
        <time>2025-04-30T09:34:51Z</time>
      </trkpt>
      <trkpt lat="43.727714018896222" lon="-7.716034976765513">
        <ele>127.51000000000001</ele>
        <time>2025-04-30T09:34:56Z</time>
      </trkpt>
      <trkpt lat="43.727707983925939" lon="-7.716016033664346">
        <ele>127.51000000000001</ele>
        <time>2025-04-30T09:34:57Z</time>
      </trkpt>
      <trkpt lat="43.727701026946306" lon="-7.715997006744146">
        <ele>127.51000000000001</ele>
        <time>2025-04-30T09:34:58Z</time>
      </trkpt>
      <trkpt lat="43.727670013904572" lon="-7.715920982882381">
        <ele>127.98999999999999</ele>
        <time>2025-04-30T09:35:00Z</time>
      </trkpt>
      <trkpt lat="43.727640006691217" lon="-7.715851999819279">
        <ele>127.98999999999999</ele>
        <time>2025-04-30T09:35:01Z</time>
      </trkpt>
      <trkpt lat="43.727600025013089" lon="-7.715760972350836">
        <ele>127.98999999999999</ele>
        <time>2025-04-30T09:35:02Z</time>
      </trkpt>
      <trkpt lat="43.727553002536297" lon="-7.715652007609606">
        <ele>127.51000000000001</ele>
        <time>2025-04-30T09:35:03Z</time>
      </trkpt>
      <trkpt lat="43.727502040565014" lon="-7.715536002069712">
        <ele>127.51000000000001</ele>
        <time>2025-04-30T09:35:04Z</time>
      </trkpt>
      <trkpt lat="43.72745200060308" lon="-7.715422008186579">
        <ele>127.03</ele>
        <time>2025-04-30T09:35:05Z</time>
      </trkpt>
      <trkpt lat="43.72741000726819" lon="-7.715326035395265">
        <ele>126.55</ele>
        <time>2025-04-30T09:35:06Z</time>
      </trkpt>
      <trkpt lat="43.72738997451961" lon="-7.715255040675402">
        <ele>125.59</ele>
        <time>2025-04-30T09:35:07Z</time>
      </trkpt>
      <trkpt lat="43.727397015318274" lon="-7.715151021257043">
        <ele>124.63</ele>
        <time>2025-04-30T09:35:08Z</time>
      </trkpt>
      <trkpt lat="43.727403972297907" lon="-7.715026969090104">
        <ele>123.19</ele>
        <time>2025-04-30T09:35:09Z</time>
      </trkpt>
      <trkpt lat="43.727428028360009" lon="-7.714895037934184">
        <ele>122.22</ele>
        <time>2025-04-30T09:35:10Z</time>
      </trkpt>
      <trkpt lat="43.727470021694899" lon="-7.714798981323838">
        <ele>121.26000000000001</ele>
        <time>2025-04-30T09:35:11Z</time>
      </trkpt>
      <trkpt lat="43.727514026686549" lon="-7.714699991047382">
        <ele>120.3</ele>
        <time>2025-04-30T09:35:12Z</time>
      </trkpt>
      <trkpt lat="43.7275580316782" lon="-7.714598989114165">
        <ele>119.34</ele>
        <time>2025-04-30T09:35:13Z</time>
      </trkpt>
      <trkpt lat="43.727599019184709" lon="-7.714507039636374">
        <ele>118.86</ele>
        <time>2025-04-30T09:35:14Z</time>
      </trkpt>
      <trkpt lat="43.727758023887873" lon="-7.714147036895156">
        <ele>115.98</ele>
        <time>2025-04-30T09:35:18Z</time>
      </trkpt>
      <trkpt lat="43.727891966700554" lon="-7.713844031095505">
        <ele>112.13</ele>
        <time>2025-04-30T09:35:21Z</time>
      </trkpt>
      <trkpt lat="43.727937983348966" lon="-7.713740011677146">
        <ele>110.69</ele>
        <time>2025-04-30T09:35:22Z</time>
      </trkpt>
      <trkpt lat="43.728083996102214" lon="-7.713337009772658">
        <ele>103.95999999999999</ele>
        <time>2025-04-30T09:35:26Z</time>
      </trkpt>
      <trkpt lat="43.728104028850794" lon="-7.713245982304215">
        <ele>102.52</ele>
        <time>2025-04-30T09:35:27Z</time>
      </trkpt>
      <trkpt lat="43.728122971951962" lon="-7.713158978149295">
        <ele>100.59999999999999</ele>
        <time>2025-04-30T09:35:28Z</time>
      </trkpt>
      <trkpt lat="43.728174017742276" lon="-7.712924033403397">
        <ele>95.790000000000006</ele>
        <time>2025-04-30T09:35:31Z</time>
      </trkpt>
      <trkpt lat="43.728267978876829" lon="-7.712495969608426">
        <ele>88.579999999999998</ele>
        <time>2025-04-30T09:35:36Z</time>
      </trkpt>
      <trkpt lat="43.728281976655126" lon="-7.712431009858847">
        <ele>87.140000000000001</ele>
        <time>2025-04-30T09:35:37Z</time>
      </trkpt>
      <trkpt lat="43.728336039930582" lon="-7.712289020419121">
        <ele>86.180000000000007</ele>
        <time>2025-04-30T09:35:38Z</time>
      </trkpt>
      <trkpt lat="43.728367974981666" lon="-7.712280973792076">
        <ele>84.730000000000004</ele>
        <time>2025-04-30T09:35:39Z</time>
      </trkpt>
      <trkpt lat="43.728393958881497" lon="-7.712275022640824">
        <ele>83.290000000000006</ele>
        <time>2025-04-30T09:35:40Z</time>
      </trkpt>
      <trkpt lat="43.728474006056786" lon="-7.712254989892244">
        <ele>80.890000000000001</ele>
        <time>2025-04-30T09:35:42Z</time>
      </trkpt>
      <trkpt lat="43.728523040190339" lon="-7.712241997942329">
        <ele>79.450000000000003</ele>
        <time>2025-04-30T09:35:43Z</time>
      </trkpt>
      <trkpt lat="43.728626975789666" lon="-7.712235040962696">
        <ele>78</ele>
        <time>2025-04-30T09:35:45Z</time>
      </trkpt>
      <trkpt lat="43.728668969124556" lon="-7.712236968800426">
        <ele>77.040000000000006</ele>
        <time>2025-04-30T09:35:46Z</time>
      </trkpt>
      <trkpt lat="43.728708028793335" lon="-7.712239986285567">
        <ele>76.079999999999998</ele>
        <time>2025-04-30T09:35:47Z</time>
      </trkpt>
      <trkpt lat="43.728752033784986" lon="-7.712243003770709">
        <ele>75.599999999999994</ele>
        <time>2025-04-30T09:35:48Z</time>
      </trkpt>
      <trkpt lat="43.72880500741303" lon="-7.712246021255851">
        <ele>74.640000000000001</ele>
        <time>2025-04-30T09:35:49Z</time>
      </trkpt>
      <trkpt lat="43.72891497798264" lon="-7.712284997105598">
        <ele>73.680000000000007</ele>
        <time>2025-04-30T09:35:50Z</time>
      </trkpt>
      <trkpt lat="43.728951020166278" lon="-7.712335959076881">
        <ele>73.200000000000003</ele>
        <time>2025-04-30T09:35:51Z</time>
      </trkpt>
      <trkpt lat="43.728994019329548" lon="-7.71239697933197">
        <ele>72.239999999999995</ele>
        <time>2025-04-30T09:35:52Z</time>
      </trkpt>
      <trkpt lat="43.729080017656088" lon="-7.712517008185387">
        <ele>70.790000000000006</ele>
        <time>2025-04-30T09:35:54Z</time>
      </trkpt>
      <trkpt lat="43.72921303845942" lon="-7.712703002616763">
        <ele>68.390000000000001</ele>
        <time>2025-04-30T09:35:57Z</time>
      </trkpt>
      <trkpt lat="43.729265006259084" lon="-7.712735021486878">
        <ele>67.430000000000007</ele>
        <time>2025-04-30T09:35:58Z</time>
      </trkpt>
      <trkpt lat="43.729464998468757" lon="-7.712857984006405">
        <ele>64.549999999999997</ele>
        <time>2025-04-30T09:36:01Z</time>
      </trkpt>
      <trkpt lat="43.729596007615328" lon="-7.712939037010074">
        <ele>62.140000000000001</ele>
        <time>2025-04-30T09:36:03Z</time>
      </trkpt>
      <trkpt lat="43.729803040623665" lon="-7.713089995086193">
        <ele>59.259999999999998</ele>
        <time>2025-04-30T09:36:06Z</time>
      </trkpt>
      <trkpt lat="43.72985702008009" lon="-7.713165013119578">
        <ele>58.299999999999997</ele>
        <time>2025-04-30T09:36:07Z</time>
      </trkpt>
      <trkpt lat="43.729913011193275" lon="-7.713241958990693">
        <ele>56.859999999999999</ele>
        <time>2025-04-30T09:36:08Z</time>
      </trkpt>
      <trkpt lat="43.729942012578249" lon="-7.713282024487853">
        <ele>55.409999999999997</ele>
        <time>2025-04-30T09:36:09Z</time>
      </trkpt>
      <trkpt lat="43.729980988427997" lon="-7.713403981178999">
        <ele>53.490000000000002</ele>
        <time>2025-04-30T09:36:10Z</time>
      </trkpt>
      <trkpt lat="43.730005966499448" lon="-7.713483022525907">
        <ele>52.530000000000001</ele>
        <time>2025-04-30T09:36:11Z</time>
      </trkpt>
      <trkpt lat="43.73002901673317" lon="-7.713556028902531">
        <ele>51.57</ele>
        <time>2025-04-30T09:36:12Z</time>
      </trkpt>
      <trkpt lat="43.730071010068059" lon="-7.713689971715212">
        <ele>51.090000000000003</ele>
        <time>2025-04-30T09:36:13Z</time>
      </trkpt>
      <trkpt lat="43.730071010068059" lon="-7.713754009455442">
        <ele>50.130000000000003</ele>
        <time>2025-04-30T09:36:14Z</time>
      </trkpt>
      <trkpt lat="43.730061035603285" lon="-7.713772030547261">
        <ele>49.649999999999999</ele>
        <time>2025-04-30T09:36:15Z</time>
      </trkpt>
      <trkpt lat="43.729942012578249" lon="-7.713969005271792">
        <ele>46.280000000000001</ele>
        <time>2025-04-30T09:36:19Z</time>
      </trkpt>
      <trkpt lat="43.729942012578249" lon="-7.714115018025041">
        <ele>45.799999999999997</ele>
        <time>2025-04-30T09:36:20Z</time>
      </trkpt>
      <trkpt lat="43.729942012578249" lon="-7.714176960289478">
        <ele>44.840000000000003</ele>
        <time>2025-04-30T09:36:21Z</time>
      </trkpt>
      <trkpt lat="43.729942012578249" lon="-7.714230017736554">
        <ele>43.880000000000003</ele>
        <time>2025-04-30T09:36:22Z</time>
      </trkpt>
      <trkpt lat="43.729942012578249" lon="-7.714272011071444">
        <ele>42.920000000000002</ele>
        <time>2025-04-30T09:36:23Z</time>
      </trkpt>
      <trkpt lat="43.729942012578249" lon="-7.714320961385965">
        <ele>41.950000000000003</ele>
        <time>2025-04-30T09:36:24Z</time>
      </trkpt>
      <trkpt lat="43.729942012578249" lon="-7.714354991912842">
        <ele>41.469999999999999</ele>
        <time>2025-04-30T09:36:25Z</time>
      </trkpt>
      <trkpt lat="43.729945030063391" lon="-7.714355997741222">
        <ele>40.509999999999998</ele>
        <time>2025-04-30T09:36:26Z</time>
      </trkpt>
      <trkpt lat="43.729972019791603" lon="-7.714369995519519">
        <ele>40.509999999999998</ele>
        <time>2025-04-30T09:36:27Z</time>
      </trkpt>
      <trkpt lat="43.730028010904789" lon="-7.714397991076112">
        <ele>40.509999999999998</ele>
        <time>2025-04-30T09:36:28Z</time>
      </trkpt>
      <trkpt lat="43.730028010904789" lon="-7.714397991076112">
        <ele>40.509999999999998</ele>
        <time>2025-04-30T09:36:29Z</time>
      </trkpt>
      <trkpt lat="43.73005298897624" lon="-7.714357003569603">
        <ele>40.030000000000001</ele>
        <time>2025-04-30T09:36:30Z</time>
      </trkpt>
      <trkpt lat="43.730090958997607" lon="-7.714295983314514">
        <ele>39.549999999999997</ele>
        <time>2025-04-30T09:36:31Z</time>
      </trkpt>
      <trkpt lat="43.730130018666387" lon="-7.714233035221696">
        <ele>39.07</ele>
        <time>2025-04-30T09:36:32Z</time>
      </trkpt>
      <trkpt lat="43.730166982859373" lon="-7.714172014966607">
        <ele>39.07</ele>
        <time>2025-04-30T09:36:33Z</time>
      </trkpt>
      <trkpt lat="43.730200007557869" lon="-7.714119041338563">
        <ele>39.549999999999997</ele>
        <time>2025-04-30T09:36:34Z</time>
      </trkpt>
      <trkpt lat="43.730268990620971" lon="-7.71407101303339">
        <ele>40.030000000000001</ele>
        <time>2025-04-30T09:36:35Z</time>
      </trkpt>
      <trkpt lat="43.730338979512453" lon="-7.714021978899837">
        <ele>40.509999999999998</ele>
        <time>2025-04-30T09:36:36Z</time>
      </trkpt>
      <trkpt lat="43.730655983090401" lon="-7.713802037760615">
        <ele>42.920000000000002</ele>
        <time>2025-04-30T09:36:40Z</time>
      </trkpt>
      <trkpt lat="43.730986984446645" lon="-7.713586958125234">
        <ele>47.719999999999999</ele>
        <time>2025-04-30T09:36:48Z</time>
      </trkpt>
      <trkpt lat="43.730994025245309" lon="-7.713583018630743">
        <ele>49.649999999999999</ele>
        <time>2025-04-30T09:36:59Z</time>
      </trkpt>
      <trkpt lat="43.730994025245309" lon="-7.713583018630743">
        <ele>50.609999999999999</ele>
        <time>2025-04-30T09:37:43Z</time>
      </trkpt>
      <trkpt lat="43.731031995266676" lon="-7.713585030287504">
        <ele>50.609999999999999</ele>
        <time>2025-04-30T09:37:53Z</time>
      </trkpt>
      <trkpt lat="43.731068959459662" lon="-7.713586958125234">
        <ele>52.049999999999997</ele>
        <time>2025-04-30T09:37:54Z</time>
      </trkpt>
      <trkpt lat="43.731144983321428" lon="-7.713590981438756">
        <ele>53.009999999999998</ele>
        <time>2025-04-30T09:37:55Z</time>
      </trkpt>
      <trkpt lat="43.731222013011575" lon="-7.713596010580659">
        <ele>53.490000000000002</ele>
        <time>2025-04-30T09:37:56Z</time>
      </trkpt>
      <trkpt lat="43.731308011338115" lon="-7.713601039722562">
        <ele>53.490000000000002</ele>
        <time>2025-04-30T09:37:57Z</time>
      </trkpt>
      <trkpt lat="43.731411024928093" lon="-7.713583018630743">
        <ele>53.969999999999999</ele>
        <time>2025-04-30T09:37:58Z</time>
      </trkpt>
      <trkpt lat="43.731502974405885" lon="-7.71355502307415">
        <ele>54.450000000000003</ele>
        <time>2025-04-30T09:37:59Z</time>
      </trkpt>
      <trkpt lat="43.731773961335421" lon="-7.713510012254119">
        <ele>56.369999999999997</ele>
        <time>2025-04-30T09:38:02Z</time>
      </trkpt>
      <trkpt lat="43.731842022389174" lon="-7.713499031960964">
        <ele>56.369999999999997</ele>
        <time>2025-04-30T09:38:03Z</time>
      </trkpt>
      <trkpt lat="43.731950987130404" lon="-7.713480005040765">
        <ele>57.82</ele>
        <time>2025-04-30T09:38:06Z</time>
      </trkpt>
      <trkpt lat="43.731984011828899" lon="-7.713457960635424">
        <ele>58.299999999999997</ele>
        <time>2025-04-30T09:38:07Z</time>
      </trkpt>
      <trkpt lat="43.731991974636912" lon="-7.713413033634424">
        <ele>58.299999999999997</ele>
        <time>2025-04-30T09:38:08Z</time>
      </trkpt>
      <trkpt lat="43.732003960758448" lon="-7.713348995894194">
        <ele>58.780000000000001</ele>
        <time>2025-04-30T09:38:09Z</time>
      </trkpt>
      <trkpt lat="43.732023993507028" lon="-7.713239025324583">
        <ele>59.259999999999998</ele>
        <time>2025-04-30T09:38:10Z</time>
      </trkpt>
      <trkpt lat="43.732070010155439" lon="-7.713175993412733">
        <ele>59.259999999999998</ele>
        <time>2025-04-30T09:38:11Z</time>
      </trkpt>
      <trkpt lat="43.732267990708351" lon="-7.712800987064838">
        <ele>60.219999999999999</ele>
        <time>2025-04-30T09:38:15Z</time>
      </trkpt>
      <trkpt lat="43.732307972386479" lon="-7.712690010666847">
        <ele>59.740000000000002</ele>
        <time>2025-04-30T09:38:16Z</time>
      </trkpt>
      <trkpt lat="43.732348037883639" lon="-7.712578028440476">
        <ele>58.780000000000001</ele>
        <time>2025-04-30T09:38:17Z</time>
      </trkpt>
      <trkpt lat="43.732388019561768" lon="-7.712467974051833">
        <ele>57.82</ele>
        <time>2025-04-30T09:38:18Z</time>
      </trkpt>
      <trkpt lat="43.732473012059927" lon="-7.71239697933197">
        <ele>56.859999999999999</ele>
        <time>2025-04-30T09:38:19Z</time>
      </trkpt>
      <trkpt lat="43.732560016214848" lon="-7.712342999875546">
        <ele>55.890000000000001</ele>
        <time>2025-04-30T09:38:20Z</time>
      </trkpt>
      <trkpt lat="43.732662023976445" lon="-7.712304024025798">
        <ele>54.93</ele>
        <time>2025-04-30T09:38:21Z</time>
      </trkpt>
      <trkpt lat="43.732770988717675" lon="-7.712263036519289">
        <ele>54.450000000000003</ele>
        <time>2025-04-30T09:38:22Z</time>
      </trkpt>
      <trkpt lat="43.73299696482718" lon="-7.71215901710093">
        <ele>53.009999999999998</ele>
        <time>2025-04-30T09:38:24Z</time>
      </trkpt>
      <trkpt lat="43.7330839689821" lon="-7.71207201294601">
        <ele>52.049999999999997</ele>
        <time>2025-04-30T09:38:25Z</time>
      </trkpt>
      <trkpt lat="43.733139960095286" lon="-7.711953995749354">
        <ele>51.090000000000003</ele>
        <time>2025-04-30T09:38:26Z</time>
      </trkpt>
      <trkpt lat="43.733174996450543" lon="-7.711818041279912">
        <ele>50.130000000000003</ele>
        <time>2025-04-30T09:38:27Z</time>
      </trkpt>
      <trkpt lat="43.73321296647191" lon="-7.711669011041522">
        <ele>48.68</ele>
        <time>2025-04-30T09:38:28Z</time>
      </trkpt>
      <trkpt lat="43.73325202614069" lon="-7.71151696331799">
        <ele>47.719999999999999</ele>
        <time>2025-04-30T09:38:29Z</time>
      </trkpt>
      <trkpt lat="43.733287984505296" lon="-7.711381008848548">
        <ele>46.280000000000001</ele>
        <time>2025-04-30T09:38:30Z</time>
      </trkpt>
      <trkpt lat="43.733368031680584" lon="-7.711294004693627">
        <ele>45.32</ele>
        <time>2025-04-30T09:38:31Z</time>
      </trkpt>
      <trkpt lat="43.733454030007124" lon="-7.711238013580442">
        <ele>44.359999999999999</ele>
        <time>2025-04-30T09:38:32Z</time>
      </trkpt>
      <trkpt lat="43.733780002221465" lon="-7.711079008877277">
        <ele>40.030000000000001</ele>
        <time>2025-04-30T09:38:35Z</time>
      </trkpt>
      <trkpt lat="43.733883015811443" lon="-7.710995022207499">
        <ele>38.590000000000003</ele>
        <time>2025-04-30T09:38:36Z</time>
      </trkpt>
      <trkpt lat="43.733986029401422" lon="-7.71091103553772">
        <ele>37.149999999999999</ele>
        <time>2025-04-30T09:38:37Z</time>
      </trkpt>
      <trkpt lat="43.734104968607426" lon="-7.710814978927374">
        <ele>35.710000000000001</ele>
        <time>2025-04-30T09:38:38Z</time>
      </trkpt>
      <trkpt lat="43.734192978590727" lon="-7.71069897338748">
        <ele>33.780000000000001</ele>
        <time>2025-04-30T09:38:39Z</time>
      </trkpt>
      <trkpt lat="43.734467988833785" lon="-7.710336036980152">
        <ele>29.460000000000001</ele>
        <time>2025-04-30T09:38:42Z</time>
      </trkpt>
      <trkpt lat="43.734553987160325" lon="-7.710222965106368">
        <ele>28.02</ele>
        <time>2025-04-30T09:38:43Z</time>
      </trkpt>
      <trkpt lat="43.734624981880188" lon="-7.710156999528408">
        <ele>26.57</ele>
        <time>2025-04-30T09:38:44Z</time>
      </trkpt>
      <trkpt lat="43.734665969386697" lon="-7.710129003971815">
        <ele>25.129999999999999</ele>
        <time>2025-04-30T09:38:45Z</time>
      </trkpt>
      <trkpt lat="43.734723972156644" lon="-7.710143001750112">
        <ele>23.690000000000001</ele>
        <time>2025-04-30T09:38:46Z</time>
      </trkpt>
      <trkpt lat="43.73477702960372" lon="-7.710177032276988">
        <ele>22.25</ele>
        <time>2025-04-30T09:38:47Z</time>
      </trkpt>
      <trkpt lat="43.734848024323583" lon="-7.710249032825232">
        <ele>20.809999999999999</ele>
        <time>2025-04-30T09:38:48Z</time>
      </trkpt>
      <trkpt lat="43.734924970194697" lon="-7.710324972867966">
        <ele>19.359999999999999</ele>
        <time>2025-04-30T09:38:49Z</time>
      </trkpt>
      <trkpt lat="43.735000994056463" lon="-7.710400996729732">
        <ele>18.399999999999999</ele>
        <time>2025-04-30T09:38:50Z</time>
      </trkpt>
      <trkpt lat="43.735089004039764" lon="-7.710422035306692">
        <ele>17.440000000000001</ele>
        <time>2025-04-30T09:38:51Z</time>
      </trkpt>
      <trkpt lat="43.735173996537924" lon="-7.710413988679647">
        <ele>16.960000000000001</ele>
        <time>2025-04-30T09:38:52Z</time>
      </trkpt>
      <trkpt lat="43.735263012349606" lon="-7.710405020043254">
        <ele>16.48</ele>
        <time>2025-04-30T09:38:53Z</time>
      </trkpt>
      <trkpt lat="43.735348004847765" lon="-7.710396973416209">
        <ele>16.48</ele>
        <time>2025-04-30T09:38:54Z</time>
      </trkpt>
      <trkpt lat="43.735456969588995" lon="-7.710384987294674">
        <ele>16</ele>
        <time>2025-04-30T09:38:55Z</time>
      </trkpt>
      <trkpt lat="43.735506003722548" lon="-7.710426980629563">
        <ele>15.52</ele>
        <time>2025-04-30T09:38:56Z</time>
      </trkpt>
      <trkpt lat="43.735607005655766" lon="-7.710513984784484">
        <ele>15.52</ele>
        <time>2025-04-30T09:38:57Z</time>
      </trkpt>
      <trkpt lat="43.735626032575965" lon="-7.710575005039573">
        <ele>15.52</ele>
        <time>2025-04-30T09:38:58Z</time>
      </trkpt>
      <trkpt lat="43.735646987333894" lon="-7.710642982274294">
        <ele>15.52</ele>
        <time>2025-04-30T09:38:59Z</time>
      </trkpt>
      <trkpt lat="43.735661990940571" lon="-7.710687993094325">
        <ele>15.52</ele>
        <time>2025-04-30T09:39:00Z</time>
      </trkpt>
      <trkpt lat="43.735674982890487" lon="-7.710729986429215">
        <ele>16</ele>
        <time>2025-04-30T09:39:08Z</time>
      </trkpt>
      <trkpt lat="43.73568101786077" lon="-7.710751025006175">
        <ele>16</ele>
        <time>2025-04-30T09:39:09Z</time>
      </trkpt>
      <trkpt lat="43.735725022852421" lon="-7.710736021399498">
        <ele>16.48</ele>
        <time>2025-04-30T09:39:10Z</time>
      </trkpt>
      <trkpt lat="43.735728040337563" lon="-7.710688998922706">
        <ele>16.960000000000001</ele>
        <time>2025-04-30T09:39:11Z</time>
      </trkpt>
      <trkpt lat="43.735733991488814" lon="-7.710619010031223">
        <ele>16.960000000000001</ele>
        <time>2025-04-30T09:39:12Z</time>
      </trkpt>
      <trkpt lat="43.735741032287478" lon="-7.710540974512696">
        <ele>17.920000000000002</ele>
        <time>2025-04-30T09:39:13Z</time>
      </trkpt>
      <trkpt lat="43.73574698343873" lon="-7.710466962307692">
        <ele>18.399999999999999</ele>
        <time>2025-04-30T09:39:14Z</time>
      </trkpt>
      <trkpt lat="43.735757041722536" lon="-7.710341988131404">
        <ele>19.359999999999999</ele>
        <time>2025-04-30T09:39:15Z</time>
      </trkpt>
      <trkpt lat="43.7358090095222" lon="-7.710383981466293">
        <ele>19.84</ele>
        <time>2025-04-30T09:39:16Z</time>
      </trkpt>
      <trkpt lat="43.73583298176527" lon="-7.710403008386493">
        <ele>20.809999999999999</ele>
        <time>2025-04-30T09:39:17Z</time>
      </trkpt>
      <trkpt lat="43.735873969271779" lon="-7.710436033084989">
        <ele>21.289999999999999</ele>
        <time>2025-04-30T09:39:18Z</time>
      </trkpt>
      <trkpt lat="43.735923003405333" lon="-7.710476014763117">
        <ele>21.77</ele>
        <time>2025-04-30T09:39:19Z</time>
      </trkpt>
      <trkpt lat="43.735974971204996" lon="-7.710518008098006">
        <ele>21.77</ele>
        <time>2025-04-30T09:39:20Z</time>
      </trkpt>
      <trkpt lat="43.736125007271767" lon="-7.710638958960772">
        <ele>21.77</ele>
        <time>2025-04-30T09:39:23Z</time>
      </trkpt>
      <trkpt lat="43.736525997519493" lon="-7.710961997509003">
        <ele>18.879999999999999</ele>
        <time>2025-04-30T09:39:31Z</time>
      </trkpt>
      <trkpt lat="43.736547036096454" lon="-7.711016982793808">
        <ele>18.399999999999999</ele>
        <time>2025-04-30T09:39:32Z</time>
      </trkpt>
      <trkpt lat="43.736572014167905" lon="-7.711090994998813">
        <ele>18.399999999999999</ele>
        <time>2025-04-30T09:39:33Z</time>
      </trkpt>
      <trkpt lat="43.736593974754214" lon="-7.711157966405153">
        <ele>17.920000000000002</ele>
        <time>2025-04-30T09:39:34Z</time>
      </trkpt>
      <trkpt lat="43.73660403303802" lon="-7.71125796250999">
        <ele>18.399999999999999</ele>
        <time>2025-04-30T09:39:35Z</time>
      </trkpt>
      <trkpt lat="43.736702017486095" lon="-7.711372040212154">
        <ele>18.879999999999999</ele>
        <time>2025-04-30T09:39:36Z</time>
      </trkpt>
      <trkpt lat="43.736758008599281" lon="-7.711635986343026">
        <ele>21.77</ele>
        <time>2025-04-30T09:39:39Z</time>
      </trkpt>
      <trkpt lat="43.736765971407294" lon="-7.711673034355044">
        <ele>22.25</ele>
        <time>2025-04-30T09:39:40Z</time>
      </trkpt>
      <trkpt lat="43.736765971407294" lon="-7.711673034355044">
        <ele>23.690000000000001</ele>
        <time>2025-04-30T09:39:41Z</time>
      </trkpt>
      <trkpt lat="43.736787009984255" lon="-7.711666999384761">
        <ele>24.649999999999999</ele>
        <time>2025-04-30T09:39:42Z</time>
      </trkpt>
      <trkpt lat="43.736824980005622" lon="-7.711656019091606">
        <ele>25.609999999999999</ele>
        <time>2025-04-30T09:39:43Z</time>
      </trkpt>
      <trkpt lat="43.736916007474065" lon="-7.711630035191774">
        <ele>26.57</ele>
        <time>2025-04-30T09:39:44Z</time>
      </trkpt>
      <trkpt lat="43.736916007474065" lon="-7.711630035191774">
        <ele>27.530000000000001</ele>
        <time>2025-04-30T09:39:45Z</time>
      </trkpt>
      <trkpt lat="43.736968981102109" lon="-7.711594998836517">
        <ele>28.02</ele>
        <time>2025-04-30T09:39:46Z</time>
      </trkpt>
      <trkpt lat="43.737179031595588" lon="-7.711455021053553">
        <ele>30.420000000000002</ele>
        <time>2025-04-30T09:39:49Z</time>
      </trkpt>
      <trkpt lat="43.737250026315451" lon="-7.711395006626844">
        <ele>31.379999999999999</ele>
        <time>2025-04-30T09:39:50Z</time>
      </trkpt>
      <trkpt lat="43.737300988286734" lon="-7.711314037442207">
        <ele>31.859999999999999</ele>
        <time>2025-04-30T09:39:51Z</time>
      </trkpt>
      <trkpt lat="43.737342981621623" lon="-7.711246982216835">
        <ele>32.340000000000003</ele>
        <time>2025-04-30T09:39:52Z</time>
      </trkpt>
      <trkpt lat="43.73735697939992" lon="-7.711157966405153">
        <ele>32.82</ele>
        <time>2025-04-30T09:39:53Z</time>
      </trkpt>
      <trkpt lat="43.737368965521455" lon="-7.711065011098981">
        <ele>33.299999999999997</ele>
        <time>2025-04-30T09:39:54Z</time>
      </trkpt>
      <trkpt lat="43.737382041290402" lon="-7.710967026650906">
        <ele>34.259999999999998</ele>
        <time>2025-04-30T09:39:55Z</time>
      </trkpt>
      <trkpt lat="43.73740098439157" lon="-7.710878010839224">
        <ele>34.740000000000002</ele>
        <time>2025-04-30T09:39:56Z</time>
      </trkpt>
      <trkpt lat="43.737426968291402" lon="-7.710794024169445">
        <ele>35.710000000000001</ele>
        <time>2025-04-30T09:39:57Z</time>
      </trkpt>
      <trkpt lat="43.737453036010265" lon="-7.710707020014525">
        <ele>36.189999999999998</ele>
        <time>2025-04-30T09:39:58Z</time>
      </trkpt>
      <trkpt lat="43.737499974668026" lon="-7.710659997537732">
        <ele>36.189999999999998</ele>
        <time>2025-04-30T09:39:59Z</time>
      </trkpt>
      <trkpt lat="43.737559989094734" lon="-7.710599983111024">
        <ele>36.670000000000002</ele>
        <time>2025-04-30T09:40:00Z</time>
      </trkpt>
      <trkpt lat="43.737675994634628" lon="-7.710421029478312">
        <ele>37.630000000000003</ele>
        <time>2025-04-30T09:40:03Z</time>
      </trkpt>
      <trkpt lat="43.737706001847982" lon="-7.710374007001519">
        <ele>38.109999999999999</ele>
        <time>2025-04-30T09:40:04Z</time>
      </trkpt>
      <trkpt lat="43.737786971032619" lon="-7.710249032825232">
        <ele>39.549999999999997</ele>
        <time>2025-04-30T09:40:07Z</time>
      </trkpt>
      <trkpt lat="43.737827036529779" lon="-7.710212990641594">
        <ele>40.030000000000001</ele>
        <time>2025-04-30T09:40:08Z</time>
      </trkpt>
      <trkpt lat="43.737871963530779" lon="-7.710180971771479">
        <ele>40.030000000000001</ele>
        <time>2025-04-30T09:40:09Z</time>
      </trkpt>
      <trkpt lat="43.73804597184062" lon="-7.710082987323403">
        <ele>40.990000000000002</ele>
        <time>2025-04-30T09:40:12Z</time>
      </trkpt>
      <trkpt lat="43.738268008455634" lon="-7.709981985390186">
        <ele>42.439999999999998</ele>
        <time>2025-04-30T09:40:15Z</time>
      </trkpt>
      <trkpt lat="43.738330034539104" lon="-7.709952984005213">
        <ele>42.920000000000002</ele>
        <time>2025-04-30T09:40:16Z</time>
      </trkpt>
      <trkpt lat="43.738566990941763" lon="-7.709846030920744">
        <ele>46.759999999999998</ele>
        <time>2025-04-30T09:40:21Z</time>
      </trkpt>
      <trkpt lat="43.738619964569807" lon="-7.709821974858642">
        <ele>47.719999999999999</ele>
        <time>2025-04-30T09:40:22Z</time>
      </trkpt>
      <trkpt lat="43.738777963444591" lon="-7.709749974310398">
        <ele>48.68</ele>
        <time>2025-04-30T09:40:24Z</time>
      </trkpt>
      <trkpt lat="43.738848958164454" lon="-7.709718039259315">
        <ele>50.130000000000003</ele>
        <time>2025-04-30T09:40:25Z</time>
      </trkpt>
      <trkpt lat="43.738916013389826" lon="-7.709700018167496">
        <ele>51.090000000000003</ele>
        <time>2025-04-30T09:40:26Z</time>
      </trkpt>
      <trkpt lat="43.738987008109689" lon="-7.709704041481018">
        <ele>52.049999999999997</ele>
        <time>2025-04-30T09:40:27Z</time>
      </trkpt>
      <trkpt lat="43.739056997001171" lon="-7.709707980975509">
        <ele>53.009999999999998</ele>
        <time>2025-04-30T09:40:28Z</time>
      </trkpt>
      <trkpt lat="43.739276016131043" lon="-7.709719967097044">
        <ele>54.93</ele>
        <time>2025-04-30T09:40:32Z</time>
      </trkpt>
      <trkpt lat="43.739348016679287" lon="-7.709693983197212">
        <ele>55.409999999999997</ele>
        <time>2025-04-30T09:40:33Z</time>
      </trkpt>
      <trkpt lat="43.739416999742389" lon="-7.70966799929738">
        <ele>55.890000000000001</ele>
        <time>2025-04-30T09:40:34Z</time>
      </trkpt>
      <trkpt lat="43.739542979747057" lon="-7.709619970992208">
        <ele>55.409999999999997</ele>
        <time>2025-04-30T09:40:36Z</time>
      </trkpt>
      <trkpt lat="43.739606011658907" lon="-7.709597004577518">
        <ele>55.409999999999997</ele>
        <time>2025-04-30T09:40:37Z</time>
      </trkpt>
      <trkpt lat="43.739649010822177" lon="-7.709542019292712">
        <ele>55.409999999999997</ele>
        <time>2025-04-30T09:40:38Z</time>
      </trkpt>
      <trkpt lat="43.739688992500305" lon="-7.709473958238959">
        <ele>55.409999999999997</ele>
        <time>2025-04-30T09:40:39Z</time>
      </trkpt>
      <trkpt lat="43.739734003320336" lon="-7.709399024024606">
        <ele>54.93</ele>
        <time>2025-04-30T09:40:40Z</time>
      </trkpt>
      <trkpt lat="43.739777002483606" lon="-7.709326017647982">
        <ele>54.450000000000003</ele>
        <time>2025-04-30T09:40:41Z</time>
      </trkpt>
      <trkpt lat="43.739854032173753" lon="-7.70919400267303">
        <ele>53.969999999999999</ele>
        <time>2025-04-30T09:40:43Z</time>
      </trkpt>
      <trkpt lat="43.739886973053217" lon="-7.709139017388225">
        <ele>53.490000000000002</ele>
        <time>2025-04-30T09:40:44Z</time>
      </trkpt>
      <trkpt lat="43.739933995530009" lon="-7.709105992689729">
        <ele>53.490000000000002</ele>
        <time>2025-04-30T09:40:45Z</time>
      </trkpt>
      <trkpt lat="43.739989986643195" lon="-7.7090850379318">
        <ele>53.009999999999998</ele>
        <time>2025-04-30T09:40:46Z</time>
      </trkpt>
      <trkpt lat="43.740054024383426" lon="-7.709059976041317">
        <ele>52.530000000000001</ele>
        <time>2025-04-30T09:40:47Z</time>
      </trkpt>
      <trkpt lat="43.740124013274908" lon="-7.709033992141485">
        <ele>52.049999999999997</ele>
        <time>2025-04-30T09:40:48Z</time>
      </trkpt>
      <trkpt lat="43.740203976631165" lon="-7.709002979099751">
        <ele>52.049999999999997</ele>
        <time>2025-04-30T09:40:49Z</time>
      </trkpt>
      <trkpt lat="43.740289974957705" lon="-7.708970038220286">
        <ele>51.57</ele>
        <time>2025-04-30T09:40:50Z</time>
      </trkpt>
      <trkpt lat="43.740374967455864" lon="-7.708943970501423">
        <ele>52.049999999999997</ele>
        <time>2025-04-30T09:40:51Z</time>
      </trkpt>
      <trkpt lat="43.740469012409449" lon="-7.708927961066365">
        <ele>52.049999999999997</ele>
        <time>2025-04-30T09:40:52Z</time>
      </trkpt>
      <trkpt lat="43.740548975765705" lon="-7.708975989371538">
        <ele>52.530000000000001</ele>
        <time>2025-04-30T09:40:53Z</time>
      </trkpt>
      <trkpt lat="43.740629022940993" lon="-7.709031980484724">
        <ele>53.009999999999998</ele>
        <time>2025-04-30T09:40:54Z</time>
      </trkpt>
      <trkpt lat="43.740692976862192" lon="-7.709075985476375">
        <ele>53.009999999999998</ele>
        <time>2025-04-30T09:40:55Z</time>
      </trkpt>
      <trkpt lat="43.740792972967029" lon="-7.709123007953167">
        <ele>53.490000000000002</ele>
        <time>2025-04-30T09:40:56Z</time>
      </trkpt>
      <trkpt lat="43.740877965465188" lon="-7.709163995459676">
        <ele>53.490000000000002</ele>
        <time>2025-04-30T09:40:57Z</time>
      </trkpt>
      <trkpt lat="43.741097990423441" lon="-7.709296010434628">
        <ele>55.409999999999997</ele>
        <time>2025-04-30T09:41:00Z</time>
      </trkpt>
      <trkpt lat="43.741143001243472" lon="-7.709346972405911">
        <ele>56.369999999999997</ele>
        <time>2025-04-30T09:41:01Z</time>
      </trkpt>
      <trkpt lat="43.741172002628446" lon="-7.709382008761168">
        <ele>57.340000000000003</ele>
        <time>2025-04-30T09:41:02Z</time>
      </trkpt>
      <trkpt lat="43.741220030933619" lon="-7.709344038739801">
        <ele>58.299999999999997</ele>
        <time>2025-04-30T09:41:03Z</time>
      </trkpt>
      <trkpt lat="43.74124500900507" lon="-7.70930296741426">
        <ele>58.780000000000001</ele>
        <time>2025-04-30T09:41:04Z</time>
      </trkpt>
      <trkpt lat="43.741282979026437" lon="-7.709241025149822">
        <ele>59.740000000000002</ele>
        <time>2025-04-30T09:41:05Z</time>
      </trkpt>
      <trkpt lat="43.741334024816751" lon="-7.709159972146154">
        <ele>60.219999999999999</ele>
        <time>2025-04-30T09:41:06Z</time>
      </trkpt>
      <trkpt lat="43.741391021758318" lon="-7.709068022668362">
        <ele>60.700000000000003</ele>
        <time>2025-04-30T09:41:07Z</time>
      </trkpt>
      <trkpt lat="43.741449024528265" lon="-7.708972971886396">
        <ele>60.700000000000003</ele>
        <time>2025-04-30T09:41:08Z</time>
      </trkpt>
      <trkpt lat="43.741519013419747" lon="-7.708894014358521">
        <ele>61.18</ele>
        <time>2025-04-30T09:41:09Z</time>
      </trkpt>
      <trkpt lat="43.741587996482849" lon="-7.708825031295419">
        <ele>61.659999999999997</ele>
        <time>2025-04-30T09:41:10Z</time>
      </trkpt>
      <trkpt lat="43.741648010909557" lon="-7.708765016868711">
        <ele>62.140000000000001</ele>
        <time>2025-04-30T09:41:11Z</time>
      </trkpt>
      <trkpt lat="43.741699978709221" lon="-7.708712965250015">
        <ele>62.619999999999997</ele>
        <time>2025-04-30T09:41:12Z</time>
      </trkpt>
      <trkpt lat="43.741743983700871" lon="-7.708668960258365">
        <ele>63.100000000000001</ele>
        <time>2025-04-30T09:41:13Z</time>
      </trkpt>
      <trkpt lat="43.741756975650787" lon="-7.708630990236998">
        <ele>64.069999999999993</ele>
        <time>2025-04-30T09:41:14Z</time>
      </trkpt>
      <trkpt lat="43.741765022277832" lon="-7.708525964990258">
        <ele>65.510000000000005</ele>
        <time>2025-04-30T09:41:20Z</time>
      </trkpt>
      <trkpt lat="43.741733003407717" lon="-7.70850601606071">
        <ele>65.989999999999995</ele>
        <time>2025-04-30T09:41:21Z</time>
      </trkpt>
      <trkpt lat="43.74167500063777" lon="-7.708469973877072">
        <ele>66.469999999999999</ele>
        <time>2025-04-30T09:41:22Z</time>
      </trkpt>
      <trkpt lat="43.741606017574668" lon="-7.708425968885422">
        <ele>66.950000000000003</ele>
        <time>2025-04-30T09:41:23Z</time>
      </trkpt>
      <trkpt lat="43.741533011198044" lon="-7.708381041884422">
        <ele>66.950000000000003</ele>
        <time>2025-04-30T09:41:24Z</time>
      </trkpt>
      <trkpt lat="43.741450030356646" lon="-7.708328990265727">
        <ele>67.430000000000007</ele>
        <time>2025-04-30T09:41:25Z</time>
      </trkpt>
      <trkpt lat="43.741355985403061" lon="-7.708269981667399">
        <ele>67.909999999999997</ele>
        <time>2025-04-30T09:41:26Z</time>
      </trkpt>
      <trkpt lat="43.741147024556994" lon="-7.708137966692448">
        <ele>69.349999999999994</ele>
        <time>2025-04-30T09:41:28Z</time>
      </trkpt>
      <trkpt lat="43.7410310190171" lon="-7.708065966144204">
        <ele>70.310000000000002</ele>
        <time>2025-04-30T09:41:29Z</time>
      </trkpt>
      <trkpt lat="43.740068022161722" lon="-7.70760496146977">
        <ele>77.519999999999996</ele>
        <time>2025-04-30T09:41:36Z</time>
      </trkpt>
      <trkpt lat="43.739581033587456" lon="-7.70741100423038">
        <ele>82.810000000000002</ele>
        <time>2025-04-30T09:41:42Z</time>
      </trkpt>
      <trkpt lat="43.738911990076303" lon="-7.707144962623715">
        <ele>85.689999999999998</ele>
        <time>2025-04-30T09:41:51Z</time>
      </trkpt>
      <trkpt lat="43.738221991807222" lon="-7.706860983744264">
        <ele>81.849999999999994</ele>
        <time>2025-04-30T09:42:02Z</time>
      </trkpt>
      <trkpt lat="43.737977994605899" lon="-7.706798035651445">
        <ele>79.930000000000007</ele>
        <time>2025-04-30T09:42:07Z</time>
      </trkpt>
      <trkpt lat="43.737938012927771" lon="-7.70678898319602">
        <ele>79.450000000000003</ele>
        <time>2025-04-30T09:42:08Z</time>
      </trkpt>
      <trkpt lat="43.73793700709939" lon="-7.706720000132918">
        <ele>79.450000000000003</ele>
        <time>2025-04-30T09:42:09Z</time>
      </trkpt>
      <trkpt lat="43.737960979342461" lon="-7.706677000969648">
        <ele>78.969999999999999</ele>
        <time>2025-04-30T09:42:10Z</time>
      </trkpt>
      <trkpt lat="43.737991992384195" lon="-7.706620004028082">
        <ele>78.969999999999999</ele>
        <time>2025-04-30T09:42:11Z</time>
      </trkpt>
      <trkpt lat="43.738010013476014" lon="-7.706523025408387">
        <ele>78.480000000000004</ele>
        <time>2025-04-30T09:42:12Z</time>
      </trkpt>
      <trkpt lat="43.738058963790536" lon="-7.706484971567988">
        <ele>78.480000000000004</ele>
        <time>2025-04-30T09:42:13Z</time>
      </trkpt>
      <trkpt lat="43.738125013187528" lon="-7.706430992111564">
        <ele>78</ele>
        <time>2025-04-30T09:42:14Z</time>
      </trkpt>
      <trkpt lat="43.738190978765488" lon="-7.7063790243119">
        <ele>78</ele>
        <time>2025-04-30T09:42:15Z</time>
      </trkpt>
      <trkpt lat="43.738335985690355" lon="-7.706263018772006">
        <ele>79.930000000000007</ele>
        <time>2025-04-30T09:42:17Z</time>
      </trkpt>
      <trkpt lat="43.738417038694024" lon="-7.706197975203395">
        <ele>81.370000000000005</ele>
        <time>2025-04-30T09:42:18Z</time>
      </trkpt>
      <trkpt lat="43.739110976457596" lon="-7.705764966085553">
        <ele>91.459999999999994</ele>
        <time>2025-04-30T09:42:27Z</time>
      </trkpt>
      <trkpt lat="43.740122001618147" lon="-7.705359030514956">
        <ele>96.75</ele>
        <time>2025-04-30T09:42:35Z</time>
      </trkpt>
      <trkpt lat="43.741106959059834" lon="-7.705013025552034">
        <ele>101.56</ele>
        <time>2025-04-30T09:42:43Z</time>
      </trkpt>
      <trkpt lat="43.741690004244447" lon="-7.704581022262573">
        <ele>106.36</ele>
        <time>2025-04-30T09:42:51Z</time>
      </trkpt>
      <trkpt lat="43.742067022249103" lon="-7.70433702506125">
        <ele>107.31999999999999</ele>
        <time>2025-04-30T09:42:56Z</time>
      </trkpt>
      <trkpt lat="43.74212502501905" lon="-7.704299977049232">
        <ele>106.84</ele>
        <time>2025-04-30T09:42:57Z</time>
      </trkpt>
      <trkpt lat="43.74217196367681" lon="-7.704269969835877">
        <ele>107.31999999999999</ele>
        <time>2025-04-30T09:42:58Z</time>
      </trkpt>
      <trkpt lat="43.742228960618377" lon="-7.704151030629873">
        <ele>106.84</ele>
        <time>2025-04-30T09:42:59Z</time>
      </trkpt>
      <trkpt lat="43.742222003638744" lon="-7.70408003591001">
        <ele>106.84</ele>
        <time>2025-04-30T09:43:00Z</time>
      </trkpt>
      <trkpt lat="43.74221102334559" lon="-7.703977022320032">
        <ele>106.84</ele>
        <time>2025-04-30T09:43:01Z</time>
      </trkpt>
      <trkpt lat="43.742197025567293" lon="-7.703842995688319">
        <ele>106.84</ele>
        <time>2025-04-30T09:43:02Z</time>
      </trkpt>
      <trkpt lat="43.742144973948598" lon="-7.703361036255956">
        <ele>105.40000000000001</ele>
        <time>2025-04-30T09:43:05Z</time>
      </trkpt>
      <trkpt lat="43.742098035290837" lon="-7.703186022117734">
        <ele>104.92</ele>
        <time>2025-04-30T09:43:06Z</time>
      </trkpt>
      <trkpt lat="43.742035003378987" lon="-7.703122990205884">
        <ele>104.44</ele>
        <time>2025-04-30T09:43:07Z</time>
      </trkpt>
      <trkpt lat="43.742001978680491" lon="-7.703089965507388">
        <ele>103.95999999999999</ele>
        <time>2025-04-30T09:43:08Z</time>
      </trkpt>
      <trkpt lat="43.742001978680491" lon="-7.703089965507388">
        <ele>103.48</ele>
        <time>2025-04-30T09:43:09Z</time>
      </trkpt>
      <trkpt lat="43.741896031424403" lon="-7.703055012971163">
        <ele>103</ele>
        <time>2025-04-30T09:43:10Z</time>
      </trkpt>
      <trkpt lat="43.741898965090513" lon="-7.702999021857977">
        <ele>102.04000000000001</ele>
        <time>2025-04-30T09:43:11Z</time>
      </trkpt>
      <trkpt lat="43.741902988404036" lon="-7.702909000217915">
        <ele>102.04000000000001</ele>
        <time>2025-04-30T09:43:12Z</time>
      </trkpt>
      <trkpt lat="43.741972977295518" lon="-7.701914990320802">
        <ele>102.04000000000001</ele>
        <time>2025-04-30T09:43:18Z</time>
      </trkpt>
      <trkpt lat="43.74201899394393" lon="-7.701703011989594">
        <ele>102.04000000000001</ele>
        <time>2025-04-30T09:43:19Z</time>
      </trkpt>
      <trkpt lat="43.742086971178651" lon="-7.701488016173244">
        <ele>102.04000000000001</ele>
        <time>2025-04-30T09:43:20Z</time>
      </trkpt>
      <trkpt lat="43.742311019450426" lon="-7.700551003217697">
        <ele>103</ele>
        <time>2025-04-30T09:43:24Z</time>
      </trkpt>
      <trkpt lat="43.742318982258439" lon="-7.700289990752935">
        <ele>103.48</ele>
        <time>2025-04-30T09:43:25Z</time>
      </trkpt>
      <trkpt lat="43.742351001128554" lon="-7.699487004429102">
        <ele>104.92</ele>
        <time>2025-04-30T09:43:28Z</time>
      </trkpt>
      <trkpt lat="43.742387965321541" lon="-7.699226997792721">
        <ele>105.88</ele>
        <time>2025-04-30T09:43:29Z</time>
      </trkpt>
      <trkpt lat="43.74246901832521" lon="-7.698969002813101">
        <ele>106.36</ele>
        <time>2025-04-30T09:43:30Z</time>
      </trkpt>
      <trkpt lat="43.742628023028374" lon="-7.698459969833493">
        <ele>107.81</ele>
        <time>2025-04-30T09:43:32Z</time>
      </trkpt>
      <trkpt lat="43.742705974727869" lon="-7.698210021480918">
        <ele>108.77</ele>
        <time>2025-04-30T09:43:33Z</time>
      </trkpt>
      <trkpt lat="43.742784010246396" lon="-7.69795898348093">
        <ele>109.25</ele>
        <time>2025-04-30T09:43:34Z</time>
      </trkpt>
      <trkpt lat="43.742841007187963" lon="-7.697698976844549">
        <ele>110.20999999999999</ele>
        <time>2025-04-30T09:43:35Z</time>
      </trkpt>
      <trkpt lat="43.742881994694471" lon="-7.697428995743394">
        <ele>111.17</ele>
        <time>2025-04-30T09:43:36Z</time>
      </trkpt>
      <trkpt lat="43.74292298220098" lon="-7.69716496579349">
        <ele>112.13</ele>
        <time>2025-04-30T09:43:37Z</time>
      </trkpt>
      <trkpt lat="43.742961036041379" lon="-7.696915017440915">
        <ele>113.09</ele>
        <time>2025-04-30T09:43:38Z</time>
      </trkpt>
      <trkpt lat="43.743011998012662" lon="-7.696679988875985">
        <ele>114.05</ele>
        <time>2025-04-30T09:43:39Z</time>
      </trkpt>
      <trkpt lat="43.74309497885406" lon="-7.69647303968668">
        <ele>115.01000000000001</ele>
        <time>2025-04-30T09:43:40Z</time>
      </trkpt>
      <trkpt lat="43.743412988260388" lon="-7.695677010342479">
        <ele>117.90000000000001</ele>
        <time>2025-04-30T09:43:44Z</time>
      </trkpt>
      <trkpt lat="43.743483982980251" lon="-7.695465032011271">
        <ele>118.86</ele>
        <time>2025-04-30T09:43:45Z</time>
      </trkpt>
      <trkpt lat="43.74352103099227" lon="-7.695224974304438">
        <ele>120.3</ele>
        <time>2025-04-30T09:43:46Z</time>
      </trkpt>
      <trkpt lat="43.743625972419977" lon="-7.694478984922171">
        <ele>124.15000000000001</ele>
        <time>2025-04-30T09:43:49Z</time>
      </trkpt>
      <trkpt lat="43.743692021816969" lon="-7.694238005205989">
        <ele>125.11</ele>
        <time>2025-04-30T09:43:50Z</time>
      </trkpt>
      <trkpt lat="43.743791012093425" lon="-7.694019991904497">
        <ele>126.55</ele>
        <time>2025-04-30T09:43:51Z</time>
      </trkpt>
      <trkpt lat="43.743914980441332" lon="-7.693811031058431">
        <ele>127.51000000000001</ele>
        <time>2025-04-30T09:43:52Z</time>
      </trkpt>
      <trkpt lat="43.744036015123129" lon="-7.693608021363616">
        <ele>128.47</ele>
        <time>2025-04-30T09:43:53Z</time>
      </trkpt>
      <trkpt lat="43.744273977354169" lon="-7.693265033885837">
        <ele>129.91999999999999</ele>
        <time>2025-04-30T09:43:55Z</time>
      </trkpt>
      <trkpt lat="43.744403980672359" lon="-7.693180041387677">
        <ele>130.40000000000001</ele>
        <time>2025-04-30T09:43:56Z</time>
      </trkpt>
      <trkpt lat="43.744538007304072" lon="-7.693174006417394">
        <ele>130.88</ele>
        <time>2025-04-30T09:43:57Z</time>
      </trkpt>
      <trkpt lat="43.74468301422894" lon="-7.693234020844102">
        <ele>131.84</ele>
        <time>2025-04-30T09:43:58Z</time>
      </trkpt>
      <trkpt lat="43.744844030588865" lon="-7.693300992250443">
        <ele>132.31999999999999</ele>
        <time>2025-04-30T09:43:59Z</time>
      </trkpt>
      <trkpt lat="43.745533023029566" lon="-7.693610033020377">
        <ele>134.24000000000001</ele>
        <time>2025-04-30T09:44:03Z</time>
      </trkpt>
      <trkpt lat="43.745699990540743" lon="-7.693754034116864">
        <ele>134.24000000000001</ele>
        <time>2025-04-30T09:44:04Z</time>
      </trkpt>
      <trkpt lat="43.746948977932334" lon="-7.695233020931482">
        <ele>133.75999999999999</ele>
        <time>2025-04-30T09:44:12Z</time>
      </trkpt>
      <trkpt lat="43.747358014807105" lon="-7.695518005639315">
        <ele>133.75999999999999</ele>
        <time>2025-04-30T09:44:14Z</time>
      </trkpt>
      <trkpt lat="43.748052958399057" lon="-7.695858981460333">
        <ele>134.24000000000001</ele>
        <time>2025-04-30T09:44:18Z</time>
      </trkpt>
      <trkpt lat="43.748180028051138" lon="-7.696019997820258">
        <ele>134.24000000000001</ele>
        <time>2025-04-30T09:44:19Z</time>
      </trkpt>
      <trkpt lat="43.748311037197709" lon="-7.696208003908396">
        <ele>133.75999999999999</ele>
        <time>2025-04-30T09:44:20Z</time>
      </trkpt>
      <trkpt lat="43.748412039130926" lon="-7.696428028866649">
        <ele>133.28</ele>
        <time>2025-04-30T09:44:21Z</time>
      </trkpt>
      <trkpt lat="43.748516980558634" lon="-7.696656016632915">
        <ele>132.80000000000001</ele>
        <time>2025-04-30T09:44:22Z</time>
      </trkpt>
      <trkpt lat="43.748834989964962" lon="-7.697345009073615">
        <ele>130.88</ele>
        <time>2025-04-30T09:44:25Z</time>
      </trkpt>
      <trkpt lat="43.748929034918547" lon="-7.697532009333372">
        <ele>130.40000000000001</ele>
        <time>2025-04-30T09:44:26Z</time>
      </trkpt>
      <trkpt lat="43.749048979952931" lon="-7.697653966024518">
        <ele>129.43000000000001</ele>
        <time>2025-04-30T09:44:27Z</time>
      </trkpt>
      <trkpt lat="43.749201027676463" lon="-7.697722027078271">
        <ele>128.94999999999999</ele>
        <time>2025-04-30T09:44:28Z</time>
      </trkpt>
      <trkpt lat="43.749356009066105" lon="-7.697793021798134">
        <ele>127.98999999999999</ele>
        <time>2025-04-30T09:44:29Z</time>
      </trkpt>
      <trkpt lat="43.75044297426939" lon="-7.698427028954029">
        <ele>121.26000000000001</ele>
        <time>2025-04-30T09:44:35Z</time>
      </trkpt>
      <trkpt lat="43.750623017549515" lon="-7.698525013402104">
        <ele>120.78</ele>
        <time>2025-04-30T09:44:36Z</time>
      </trkpt>
      <trkpt lat="43.750796020030975" lon="-7.698534987866879">
        <ele>119.81999999999999</ele>
        <time>2025-04-30T09:44:37Z</time>
      </trkpt>
      <trkpt lat="43.75095896422863" lon="-7.698519984260202">
        <ele>119.81999999999999</ele>
        <time>2025-04-30T09:44:38Z</time>
      </trkpt>
      <trkpt lat="43.751596994698048" lon="-7.69821697846055">
        <ele>119.34</ele>
        <time>2025-04-30T09:44:42Z</time>
      </trkpt>
      <trkpt lat="43.751717023551464" lon="-7.698267018422484">
        <ele>119.34</ele>
        <time>2025-04-30T09:44:43Z</time>
      </trkpt>
      <trkpt lat="43.751851972192526" lon="-7.698353016749024">
        <ele>119.34</ele>
        <time>2025-04-30T09:44:44Z</time>
      </trkpt>
      <trkpt lat="43.752470975741744" lon="-7.699087020009756">
        <ele>118.86</ele>
        <time>2025-04-30T09:44:49Z</time>
      </trkpt>
      <trkpt lat="43.752560997381806" lon="-7.699292041361332">
        <ele>118.86</ele>
        <time>2025-04-30T09:44:50Z</time>
      </trkpt>
      <trkpt lat="43.752636015415192" lon="-7.699487004429102">
        <ele>118.86</ele>
        <time>2025-04-30T09:44:51Z</time>
      </trkpt>
      <trkpt lat="43.752704998478293" lon="-7.699663024395704">
        <ele>118.86</ele>
        <time>2025-04-30T09:44:52Z</time>
      </trkpt>
      <trkpt lat="43.752752020955086" lon="-7.69978498108685">
        <ele>118.86</ele>
        <time>2025-04-30T09:44:53Z</time>
      </trkpt>
      <trkpt lat="43.752853022888303" lon="-7.699904004111886">
        <ele>119.34</ele>
        <time>2025-04-30T09:44:54Z</time>
      </trkpt>
      <trkpt lat="43.752940027043223" lon="-7.699943985790014">
        <ele>119.81999999999999</ele>
        <time>2025-04-30T09:44:55Z</time>
      </trkpt>
      <trkpt lat="43.753058966249228" lon="-7.699948009103537">
        <ele>119.81999999999999</ele>
        <time>2025-04-30T09:44:56Z</time>
      </trkpt>
      <trkpt lat="43.753201039507985" lon="-7.699885983020067">
        <ele>120.3</ele>
        <time>2025-04-30T09:44:57Z</time>
      </trkpt>
      <trkpt lat="43.753354009240866" lon="-7.699781963601708">
        <ele>120.78</ele>
        <time>2025-04-30T09:44:58Z</time>
      </trkpt>
      <trkpt lat="43.754473999142647" lon="-7.699020970612764">
        <ele>122.70999999999999</ele>
        <time>2025-04-30T09:45:04Z</time>
      </trkpt>
      <trkpt lat="43.754835007712245" lon="-7.69877596758306">
        <ele>123.67</ele>
        <time>2025-04-30T09:45:06Z</time>
      </trkpt>
      <trkpt lat="43.754956964403391" lon="-7.698616040870547">
        <ele>124.15000000000001</ele>
        <time>2025-04-30T09:45:07Z</time>
      </trkpt>
      <trkpt lat="43.755041034892201" lon="-7.698433985933662">
        <ele>124.63</ele>
        <time>2025-04-30T09:45:08Z</time>
      </trkpt>
      <trkpt lat="43.755122004076838" lon="-7.698244974017143">
        <ele>125.59</ele>
        <time>2025-04-30T09:45:09Z</time>
      </trkpt>
      <trkpt lat="43.75521001406014" lon="-7.698040036484599">
        <ele>126.55</ele>
        <time>2025-04-30T09:45:10Z</time>
      </trkpt>
      <trkpt lat="43.755327025428414" lon="-7.697767959907651">
        <ele>127.03</ele>
        <time>2025-04-30T09:45:11Z</time>
      </trkpt>
      <trkpt lat="43.755444036796689" lon="-7.697606021538377">
        <ele>127.51000000000001</ele>
        <time>2025-04-30T09:45:12Z</time>
      </trkpt>
      <trkpt lat="43.756270995363593" lon="-7.696459041908383">
        <ele>131.84</ele>
        <time>2025-04-30T09:45:18Z</time>
      </trkpt>
      <trkpt lat="43.756384989246726" lon="-7.696373965591192">
        <ele>132.31999999999999</ele>
        <time>2025-04-30T09:45:19Z</time>
      </trkpt>
      <trkpt lat="43.756547011435032" lon="-7.696315040811896">
        <ele>132.80000000000001</ele>
        <time>2025-04-30T09:45:20Z</time>
      </trkpt>
      <trkpt lat="43.756881030276418" lon="-7.696266006678343">
        <ele>133.28</ele>
        <time>2025-04-30T09:45:22Z</time>
      </trkpt>
      <trkpt lat="43.757052021101117" lon="-7.696241028606892">
        <ele>133.28</ele>
        <time>2025-04-30T09:45:23Z</time>
      </trkpt>
      <trkpt lat="43.757203985005617" lon="-7.696209009736776">
        <ele>133.28</ele>
        <time>2025-04-30T09:45:24Z</time>
      </trkpt>
      <trkpt lat="43.75736097805202" lon="-7.696136003360152">
        <ele>133.28</ele>
        <time>2025-04-30T09:45:25Z</time>
      </trkpt>
      <trkpt lat="43.757517971098423" lon="-7.696041036397219">
        <ele>133.75999999999999</ele>
        <time>2025-04-30T09:45:26Z</time>
      </trkpt>
      <trkpt lat="43.757676975801587" lon="-7.695912960916758">
        <ele>133.75999999999999</ele>
        <time>2025-04-30T09:45:27Z</time>
      </trkpt>
      <trkpt lat="43.758709961548448" lon="-7.695072004571557">
        <ele>134.24000000000001</ele>
        <time>2025-04-30T09:45:33Z</time>
      </trkpt>
      <trkpt lat="43.758871983736753" lon="-7.694909982383251">
        <ele>134.24000000000001</ele>
        <time>2025-04-30T09:45:34Z</time>
      </trkpt>
      <trkpt lat="43.759024031460285" lon="-7.694718036800623">
        <ele>134.72</ele>
        <time>2025-04-30T09:45:35Z</time>
      </trkpt>
      <trkpt lat="43.759145988151431" lon="-7.69449801184237">
        <ele>135.19999999999999</ele>
        <time>2025-04-30T09:45:36Z</time>
      </trkpt>
      <trkpt lat="43.759246990084648" lon="-7.694243034347892">
        <ele>136.16</ele>
        <time>2025-04-30T09:45:37Z</time>
      </trkpt>
      <trkpt lat="43.759330976754427" lon="-7.693985961377621">
        <ele>136.63999999999999</ele>
        <time>2025-04-30T09:45:38Z</time>
      </trkpt>
      <trkpt lat="43.760266983881593" lon="-7.691151034086943">
        <ele>144.34</ele>
        <time>2025-04-30T09:45:49Z</time>
      </trkpt>
      <trkpt lat="43.760372009128332" lon="-7.690962022170425">
        <ele>144.34</ele>
        <time>2025-04-30T09:45:50Z</time>
      </trkpt>
      <trkpt lat="43.760487008839846" lon="-7.690763035789132">
        <ele>144.81999999999999</ele>
        <time>2025-04-30T09:45:51Z</time>
      </trkpt>
      <trkpt lat="43.760637966915965" lon="-7.690611993893981">
        <ele>145.30000000000001</ele>
        <time>2025-04-30T09:45:52Z</time>
      </trkpt>
      <trkpt lat="43.760794037953019" lon="-7.690455000847578">
        <ele>145.78</ele>
        <time>2025-04-30T09:45:53Z</time>
      </trkpt>
      <trkpt lat="43.76097097992897" lon="-7.690326003357768">
        <ele>146.25999999999999</ele>
        <time>2025-04-30T09:45:54Z</time>
      </trkpt>
      <trkpt lat="43.761146999895573" lon="-7.690228018909693">
        <ele>147.22</ele>
        <time>2025-04-30T09:45:55Z</time>
      </trkpt>
      <trkpt lat="43.761310027912259" lon="-7.690156018361449">
        <ele>147.69999999999999</ele>
        <time>2025-04-30T09:45:56Z</time>
      </trkpt>
      <trkpt lat="43.761460985988379" lon="-7.690096003934741">
        <ele>148.18000000000001</ele>
        <time>2025-04-30T09:45:57Z</time>
      </trkpt>
      <trkpt lat="43.761604987084866" lon="-7.690055016428232">
        <ele>149.13999999999999</ele>
        <time>2025-04-30T09:45:58Z</time>
      </trkpt>
      <trkpt lat="43.76174203120172" lon="-7.690016040578485">
        <ele>149.62</ele>
        <time>2025-04-30T09:45:59Z</time>
      </trkpt>
      <trkpt lat="43.76174203120172" lon="-7.690016040578485">
        <ele>150.09999999999999</ele>
        <time>2025-04-30T09:46:00Z</time>
      </trkpt>
      <trkpt lat="43.761953003704548" lon="-7.689812025055289">
        <ele>150.58000000000001</ele>
        <time>2025-04-30T09:46:01Z</time>
      </trkpt>
      <trkpt lat="43.762028021737933" lon="-7.689659977331758">
        <ele>151.06</ele>
        <time>2025-04-30T09:46:02Z</time>
      </trkpt>
      <trkpt lat="43.762368997558951" lon="-7.688963022083044">
        <ele>152.99000000000001</ele>
        <time>2025-04-30T09:46:06Z</time>
      </trkpt>
      <trkpt lat="43.762475028634071" lon="-7.688789013773203">
        <ele>153.47</ele>
        <time>2025-04-30T09:46:07Z</time>
      </trkpt>
      <trkpt lat="43.762600002810359" lon="-7.68861198797822">
        <ele>153.47</ele>
        <time>2025-04-30T09:46:08Z</time>
      </trkpt>
      <trkpt lat="43.762867972254753" lon="-7.688262965530157">
        <ele>153.94999999999999</ele>
        <time>2025-04-30T09:46:10Z</time>
      </trkpt>
      <trkpt lat="43.763506002724171" lon="-7.687778994441032">
        <ele>155.38999999999999</ele>
        <time>2025-04-30T09:46:14Z</time>
      </trkpt>
      <trkpt lat="43.763673976063728" lon="-7.687683021649718">
        <ele>155.38999999999999</ele>
        <time>2025-04-30T09:46:15Z</time>
      </trkpt>
      <trkpt lat="43.765152962878346" lon="-7.687068963423371">
        <ele>156.83000000000001</ele>
        <time>2025-04-30T09:46:23Z</time>
      </trkpt>
      <trkpt lat="43.766374960541725" lon="-7.686607036739588">
        <ele>151.53999999999999</ele>
        <time>2025-04-30T09:46:30Z</time>
      </trkpt>
      <trkpt lat="43.766720965504646" lon="-7.686476027593017">
        <ele>150.09999999999999</ele>
        <time>2025-04-30T09:46:32Z</time>
      </trkpt>
      <trkpt lat="43.76687603071332" lon="-7.686358010396361">
        <ele>148.66</ele>
        <time>2025-04-30T09:46:33Z</time>
      </trkpt>
      <trkpt lat="43.767020031809807" lon="-7.686215015128255">
        <ele>147.69999999999999</ele>
        <time>2025-04-30T09:46:34Z</time>
      </trkpt>
      <trkpt lat="43.76713695935905" lon="-7.686040000990033">
        <ele>146.74000000000001</ele>
        <time>2025-04-30T09:46:35Z</time>
      </trkpt>
      <trkpt lat="43.767256988212466" lon="-7.68586004152894">
        <ele>145.78</ele>
        <time>2025-04-30T09:46:36Z</time>
      </trkpt>
      <trkpt lat="43.767379028722644" lon="-7.685675974935293">
        <ele>144.34</ele>
        <time>2025-04-30T09:46:37Z</time>
      </trkpt>
      <trkpt lat="43.76750199124217" lon="-7.685491992160678">
        <ele>143.37</ele>
        <time>2025-04-30T09:46:38Z</time>
      </trkpt>
      <trkpt lat="43.76775998622179" lon="-7.685172976925969">
        <ele>140.97</ele>
        <time>2025-04-30T09:46:40Z</time>
      </trkpt>
      <trkpt lat="43.76788797788322" lon="-7.685055965557694">
        <ele>140.00999999999999</ele>
        <time>2025-04-30T09:46:41Z</time>
      </trkpt>
      <trkpt lat="43.768051005899906" lon="-7.685035010799766">
        <ele>138.56999999999999</ele>
        <time>2025-04-30T09:46:42Z</time>
      </trkpt>
      <trkpt lat="43.768218979239464" lon="-7.685025036334992">
        <ele>137.61000000000001</ele>
        <time>2025-04-30T09:46:43Z</time>
      </trkpt>
      <trkpt lat="43.76840204000473" lon="-7.685014978051186">
        <ele>136.16</ele>
        <time>2025-04-30T09:46:44Z</time>
      </trkpt>
      <trkpt lat="43.769337041303515" lon="-7.68495999276638">
        <ele>129.43000000000001</ele>
        <time>2025-04-30T09:46:49Z</time>
      </trkpt>
      <trkpt lat="43.769524041563272" lon="-7.685041967779398">
        <ele>127.98999999999999</ele>
        <time>2025-04-30T09:46:50Z</time>
      </trkpt>
      <trkpt lat="43.769702995195985" lon="-7.685134001076222">
        <ele>126.55</ele>
        <time>2025-04-30T09:46:51Z</time>
      </trkpt>
      <trkpt lat="43.770028967410326" lon="-7.685301974415779">
        <ele>124.15000000000001</ele>
        <time>2025-04-30T09:46:53Z</time>
      </trkpt>
      <trkpt lat="43.77016399987042" lon="-7.685356037691236">
        <ele>122.70999999999999</ele>
        <time>2025-04-30T09:46:54Z</time>
      </trkpt>
      <trkpt lat="43.770282017067075" lon="-7.685382021591067">
        <ele>121.73999999999999</ele>
        <time>2025-04-30T09:46:55Z</time>
      </trkpt>
      <trkpt lat="43.770375978201628" lon="-7.685351008549333">
        <ele>120.3</ele>
        <time>2025-04-30T09:46:56Z</time>
      </trkpt>
      <trkpt lat="43.770441021770239" lon="-7.685262998566032">
        <ele>119.81999999999999</ele>
        <time>2025-04-30T09:46:57Z</time>
      </trkpt>
      <trkpt lat="43.770500030368567" lon="-7.685161996632814">
        <ele>118.86</ele>
        <time>2025-04-30T09:46:58Z</time>
      </trkpt>
      <trkpt lat="43.77053196541965" lon="-7.68502595834434">
        <ele>118.38</ele>
        <time>2025-04-30T09:46:59Z</time>
      </trkpt>
      <trkpt lat="43.770567001774907" lon="-7.684878017753363">
        <ele>117.42</ele>
        <time>2025-04-30T09:47:00Z</time>
      </trkpt>
      <trkpt lat="43.770567001774907" lon="-7.684878017753363">
        <ele>116.45999999999999</ele>
        <time>2025-04-30T09:47:01Z</time>
      </trkpt>
      <trkpt lat="43.770731035619974" lon="-7.68463502638042">
        <ele>115.98</ele>
        <time>2025-04-30T09:47:02Z</time>
      </trkpt>
      <trkpt lat="43.770823990926147" lon="-7.684525977820158">
        <ele>115.5</ele>
        <time>2025-04-30T09:47:03Z</time>
      </trkpt>
      <trkpt lat="43.770913006737828" lon="-7.684410978108645">
        <ele>114.53</ele>
        <time>2025-04-30T09:47:04Z</time>
      </trkpt>
      <trkpt lat="43.771001016721129" lon="-7.68431500531733">
        <ele>114.05</ele>
        <time>2025-04-30T09:47:05Z</time>
      </trkpt>
      <trkpt lat="43.771166978403926" lon="-7.684134962037206">
        <ele>112.13</ele>
        <time>2025-04-30T09:47:07Z</time>
      </trkpt>
      <trkpt lat="43.771251970902085" lon="-7.684042006731033">
        <ele>111.65000000000001</ele>
        <time>2025-04-30T09:47:08Z</time>
      </trkpt>
      <trkpt lat="43.771342998370528" lon="-7.683944022282958">
        <ele>111.17</ele>
        <time>2025-04-30T09:47:09Z</time>
      </trkpt>
      <trkpt lat="43.771952027454972" lon="-7.683258969336748">
        <ele>105.40000000000001</ele>
        <time>2025-04-30T09:47:16Z</time>
      </trkpt>
      <trkpt lat="43.772041965276003" lon="-7.683176994323731">
        <ele>104.44</ele>
        <time>2025-04-30T09:47:17Z</time>
      </trkpt>
      <trkpt lat="43.772106003016233" lon="-7.683176994323731">
        <ele>103.95999999999999</ele>
        <time>2025-04-30T09:47:18Z</time>
      </trkpt>
      <trkpt lat="43.77218303270638" lon="-7.683176994323731">
        <ele>103</ele>
        <time>2025-04-30T09:47:19Z</time>
      </trkpt>
      <trkpt lat="43.772262996062636" lon="-7.683230973780155">
        <ele>102.52</ele>
        <time>2025-04-30T09:47:20Z</time>
      </trkpt>
      <trkpt lat="43.772343965247273" lon="-7.683294005692005">
        <ele>101.56</ele>
        <time>2025-04-30T09:47:21Z</time>
      </trkpt>
      <trkpt lat="43.772435998544097" lon="-7.683363994583488">
        <ele>101.08</ele>
        <time>2025-04-30T09:47:22Z</time>
      </trkpt>
      <trkpt lat="43.772835982963443" lon="-7.683671023696661">
        <ele>97.230000000000004</ele>
        <time>2025-04-30T09:47:27Z</time>
      </trkpt>
      <trkpt lat="43.773133037611842" lon="-7.68373497761786">
        <ele>95.790000000000006</ele>
        <time>2025-04-30T09:47:29Z</time>
      </trkpt>
      <trkpt lat="43.773192968219519" lon="-7.683659959584475">
        <ele>94.829999999999998</ele>
        <time>2025-04-30T09:47:30Z</time>
      </trkpt>
      <trkpt lat="43.773224987089634" lon="-7.683543032035232">
        <ele>93.870000000000005</ele>
        <time>2025-04-30T09:47:31Z</time>
      </trkpt>
      <trkpt lat="43.773220963776112" lon="-7.683402970433235">
        <ele>92.900000000000006</ele>
        <time>2025-04-30T09:47:32Z</time>
      </trkpt>
      <trkpt lat="43.773168995976448" lon="-7.683284031227231">
        <ele>91.939999999999998</ele>
        <time>2025-04-30T09:47:33Z</time>
      </trkpt>
      <trkpt lat="43.773114010691643" lon="-7.683156961575151">
        <ele>91.459999999999994</ele>
        <time>2025-04-30T09:47:34Z</time>
      </trkpt>
      <trkpt lat="43.773059025406837" lon="-7.683030981570482">
        <ele>90.5</ele>
        <time>2025-04-30T09:47:35Z</time>
      </trkpt>
      <trkpt lat="43.773017032071948" lon="-7.682911958545446">
        <ele>90.019999999999996</ele>
        <time>2025-04-30T09:47:36Z</time>
      </trkpt>
      <trkpt lat="43.772987024858594" lon="-7.682795030996203">
        <ele>89.060000000000002</ele>
        <time>2025-04-30T09:47:37Z</time>
      </trkpt>
      <trkpt lat="43.772966992110014" lon="-7.682693023234606">
        <ele>88.579999999999998</ele>
        <time>2025-04-30T09:47:38Z</time>
      </trkpt>
      <trkpt lat="43.772984007373452" lon="-7.682605013251305">
        <ele>88.099999999999994</ele>
        <time>2025-04-30T09:47:39Z</time>
      </trkpt>
      <trkpt lat="43.772996999323368" lon="-7.682537036016583">
        <ele>87.140000000000001</ele>
        <time>2025-04-30T09:47:40Z</time>
      </trkpt>
      <trkpt lat="43.773007979616523" lon="-7.682477021589875">
        <ele>86.180000000000007</ele>
        <time>2025-04-30T09:47:41Z</time>
      </trkpt>
      <trkpt lat="43.773055002093315" lon="-7.682366967201233">
        <ele>85.209999999999994</ele>
        <time>2025-04-30T09:47:42Z</time>
      </trkpt>
      <trkpt lat="43.773113004863262" lon="-7.682378031313419">
        <ele>84.730000000000004</ele>
        <time>2025-04-30T09:47:43Z</time>
      </trkpt>
      <trkpt lat="43.773191040381789" lon="-7.682394040748477">
        <ele>84.25</ele>
        <time>2025-04-30T09:47:44Z</time>
      </trkpt>
      <trkpt lat="43.773282989859581" lon="-7.682411978021264">
        <ele>83.769999999999996</ele>
        <time>2025-04-30T09:47:45Z</time>
      </trkpt>
      <trkpt lat="43.77362597733736" lon="-7.682497976347804">
        <ele>83.769999999999996</ele>
        <time>2025-04-30T09:47:48Z</time>
      </trkpt>
      <trkpt lat="43.773760003969073" lon="-7.682534018531442">
        <ele>84.25</ele>
        <time>2025-04-30T09:47:49Z</time>
      </trkpt>
      <trkpt lat="43.774830959737301" lon="-7.683275984600186">
        <ele>85.689999999999998</ele>
        <time>2025-04-30T09:47:57Z</time>
      </trkpt>
      <trkpt lat="43.774945037439466" lon="-7.683328958228231">
        <ele>86.180000000000007</ele>
        <time>2025-04-30T09:47:58Z</time>
      </trkpt>
      <trkpt lat="43.775069005787373" lon="-7.683333987370133">
        <ele>86.659999999999997</ele>
        <time>2025-04-30T09:47:59Z</time>
      </trkpt>
      <trkpt lat="43.775190962478518" lon="-7.683306997641921">
        <ele>87.620000000000005</ele>
        <time>2025-04-30T09:48:00Z</time>
      </trkpt>
      <trkpt lat="43.775309985503554" lon="-7.683281013742089">
        <ele>88.099999999999994</ele>
        <time>2025-04-30T09:48:01Z</time>
      </trkpt>
      <trkpt lat="43.775309985503554" lon="-7.683281013742089">
        <ele>88.579999999999998</ele>
        <time>2025-04-30T09:48:02Z</time>
      </trkpt>
      <trkpt lat="43.775559011846781" lon="-7.683398025110364">
        <ele>88.579999999999998</ele>
        <time>2025-04-30T09:48:03Z</time>
      </trkpt>
      <trkpt lat="43.775681974366307" lon="-7.68349701538682">
        <ele>88.579999999999998</ele>
        <time>2025-04-30T09:48:04Z</time>
      </trkpt>
      <trkpt lat="43.775819018483162" lon="-7.68360598012805">
        <ele>89.060000000000002</ele>
        <time>2025-04-30T09:48:05Z</time>
      </trkpt>
      <trkpt lat="43.776650000363588" lon="-7.68392700701952">
        <ele>91.939999999999998</ele>
        <time>2025-04-30T09:48:11Z</time>
      </trkpt>
      <trkpt lat="43.776762988418341" lon="-7.684047035872936">
        <ele>92.900000000000006</ele>
        <time>2025-04-30T09:48:12Z</time>
      </trkpt>
      <trkpt lat="43.777365982532501" lon="-7.684649024158716">
        <ele>94.829999999999998</ele>
        <time>2025-04-30T09:48:18Z</time>
      </trkpt>
      <trkpt lat="43.777452986687422" lon="-7.684704009443522">
        <ele>94.829999999999998</ele>
        <time>2025-04-30T09:48:19Z</time>
      </trkpt>
      <trkpt lat="43.777540996670723" lon="-7.684736028313637">
        <ele>94.829999999999998</ele>
        <time>2025-04-30T09:48:20Z</time>
      </trkpt>
      <trkpt lat="43.777630012482405" lon="-7.684709038585424">
        <ele>94.349999999999994</ele>
        <time>2025-04-30T09:48:21Z</time>
      </trkpt>
      <trkpt lat="43.777733026072383" lon="-7.684671990573406">
        <ele>93.870000000000005</ele>
        <time>2025-04-30T09:48:22Z</time>
      </trkpt>
      <trkpt lat="43.777807960286736" lon="-7.684555985033512">
        <ele>93.390000000000001</ele>
        <time>2025-04-30T09:48:23Z</time>
      </trkpt>
      <trkpt lat="43.777893036603928" lon="-7.68442397005856">
        <ele>92.900000000000006</ele>
        <time>2025-04-30T09:48:24Z</time>
      </trkpt>
      <trkpt lat="43.777981968596578" lon="-7.684283992275596">
        <ele>91.939999999999998</ele>
        <time>2025-04-30T09:48:25Z</time>
      </trkpt>
      <trkpt lat="43.778068972751498" lon="-7.684148959815502">
        <ele>90.980000000000004</ele>
        <time>2025-04-30T09:48:26Z</time>
      </trkpt>
      <trkpt lat="43.778161006048322" lon="-7.684042006731033">
        <ele>90.019999999999996</ele>
        <time>2025-04-30T09:48:27Z</time>
      </trkpt>
      <trkpt lat="43.778278017416596" lon="-7.684000013396144">
        <ele>89.540000000000006</ele>
        <time>2025-04-30T09:48:28Z</time>
      </trkpt>
      <trkpt lat="43.778394022956491" lon="-7.684017028659582">
        <ele>89.060000000000002</ele>
        <time>2025-04-30T09:48:29Z</time>
      </trkpt>
      <trkpt lat="43.778521008789539" lon="-7.684034965932369">
        <ele>88.099999999999994</ele>
        <time>2025-04-30T09:48:30Z</time>
      </trkpt>
      <trkpt lat="43.778672972694039" lon="-7.68405701033771">
        <ele>87.140000000000001</ele>
        <time>2025-04-30T09:48:31Z</time>
      </trkpt>
      <trkpt lat="43.778808005154133" lon="-7.683995990082622">
        <ele>86.180000000000007</ele>
        <time>2025-04-30T09:48:32Z</time>
      </trkpt>
      <trkpt lat="43.778963992372155" lon="-7.683924995362759">
        <ele>85.209999999999994</ele>
        <time>2025-04-30T09:48:33Z</time>
      </trkpt>
      <trkpt lat="43.779129032045603" lon="-7.683849977329373">
        <ele>84.25</ele>
        <time>2025-04-30T09:48:34Z</time>
      </trkpt>
      <trkpt lat="43.779889019206166" lon="-7.683542026206851">
        <ele>80.890000000000001</ele>
        <time>2025-04-30T09:48:39Z</time>
      </trkpt>
      <trkpt lat="43.780046012252569" lon="-7.683542026206851">
        <ele>80.890000000000001</ele>
        <time>2025-04-30T09:48:40Z</time>
      </trkpt>
      <trkpt lat="43.781137000769377" lon="-7.683849977329373">
        <ele>76.560000000000002</ele>
        <time>2025-04-30T09:48:47Z</time>
      </trkpt>
      <trkpt lat="43.781288964673877" lon="-7.683935975655913">
        <ele>76.079999999999998</ele>
        <time>2025-04-30T09:48:48Z</time>
      </trkpt>
      <trkpt lat="43.781729014590383" lon="-7.684169998392463">
        <ele>74.159999999999997</ele>
        <time>2025-04-30T09:48:51Z</time>
      </trkpt>
      <trkpt lat="43.781888019293547" lon="-7.684200005605817">
        <ele>73.680000000000007</ele>
        <time>2025-04-30T09:48:52Z</time>
      </trkpt>
      <trkpt lat="43.783375974744558" lon="-7.68438097089529">
        <ele>72.239999999999995</ele>
        <time>2025-04-30T09:49:01Z</time>
      </trkpt>
      <trkpt lat="43.784174015745521" lon="-7.684321962296963">
        <ele>71.269999999999996</ele>
        <time>2025-04-30T09:49:07Z</time>
      </trkpt>
      <trkpt lat="43.784218020737171" lon="-7.684319028630853">
        <ele>71.269999999999996</ele>
        <time>2025-04-30T09:49:08Z</time>
      </trkpt>
      <trkpt lat="43.784248027950525" lon="-7.684316011145711">
        <ele>71.269999999999996</ele>
        <time>2025-04-30T09:49:09Z</time>
      </trkpt>
      <trkpt lat="43.784273006021976" lon="-7.68431399948895">
        <ele>71.760000000000005</ele>
        <time>2025-04-30T09:49:10Z</time>
      </trkpt>
      <trkpt lat="43.784396974369884" lon="-7.684308970347047">
        <ele>72.719999999999999</ele>
        <time>2025-04-30T09:49:15Z</time>
      </trkpt>
      <trkpt lat="43.784381970763206" lon="-7.684580041095614">
        <ele>74.159999999999997</ele>
        <time>2025-04-30T09:49:22Z</time>
      </trkpt>
      <trkpt lat="43.784363027662039" lon="-7.68459496088326">
        <ele>78.480000000000004</ele>
        <time>2025-04-30T10:11:21Z</time>
      </trkpt>
      <trkpt lat="43.784362021833658" lon="-7.68459496088326">
        <ele>78.480000000000004</ele>
        <time>2025-04-30T10:12:17Z</time>
      </trkpt>
      <trkpt lat="43.784364033490419" lon="-7.684588003903627">
        <ele>78.480000000000004</ele>
        <time>2025-04-30T10:13:13Z</time>
      </trkpt>
      <trkpt lat="43.784364033490419" lon="-7.684586998075247">
        <ele>78.480000000000004</ele>
        <time>2025-04-30T10:13:58Z</time>
      </trkpt>
      <trkpt lat="43.784364033490419" lon="-7.684585992246866">
        <ele>78</ele>
        <time>2025-04-30T10:14:43Z</time>
      </trkpt>
      <trkpt lat="43.784342994913459" lon="-7.684310982003808">
        <ele>78</ele>
        <time>2025-04-30T10:14:58Z</time>
      </trkpt>
      <trkpt lat="43.784317011013627" lon="-7.684311987832189">
        <ele>78</ele>
        <time>2025-04-30T10:14:59Z</time>
      </trkpt>
      <trkpt lat="43.784287003800273" lon="-7.68431399948895">
        <ele>78.480000000000004</ele>
        <time>2025-04-30T10:15:00Z</time>
      </trkpt>
      <trkpt lat="43.784273006021976" lon="-7.68431399948895">
        <ele>78.480000000000004</ele>
        <time>2025-04-30T10:15:01Z</time>
      </trkpt>
      <trkpt lat="43.784273006021976" lon="-7.68431399948895">
        <ele>78.480000000000004</ele>
        <time>2025-04-30T10:15:02Z</time>
      </trkpt>
      <trkpt lat="43.784212991595268" lon="-7.684319028630853">
        <ele>78.480000000000004</ele>
        <time>2025-04-30T10:15:03Z</time>
      </trkpt>
      <trkpt lat="43.78417300991714" lon="-7.684321962296963">
        <ele>78.480000000000004</ele>
        <time>2025-04-30T10:15:04Z</time>
      </trkpt>
      <trkpt lat="43.78417300991714" lon="-7.684321962296963">
        <ele>78.480000000000004</ele>
        <time>2025-04-30T10:15:05Z</time>
      </trkpt>
      <trkpt lat="43.784038983285427" lon="-7.684332020580769">
        <ele>78.480000000000004</ele>
        <time>2025-04-30T10:15:06Z</time>
      </trkpt>
      <trkpt lat="43.783182017505169" lon="-7.684394968673587">
        <ele>78.480000000000004</ele>
        <time>2025-04-30T10:15:14Z</time>
      </trkpt>
      <trkpt lat="43.781779976561666" lon="-7.684179972857237">
        <ele>78.969999999999999</ele>
        <time>2025-04-30T10:15:25Z</time>
      </trkpt>
      <trkpt lat="43.781650979071856" lon="-7.684137979522348">
        <ele>78.969999999999999</ele>
        <time>2025-04-30T10:15:26Z</time>
      </trkpt>
      <trkpt lat="43.781528016552329" lon="-7.684068996459246">
        <ele>78.969999999999999</ele>
        <time>2025-04-30T10:15:27Z</time>
      </trkpt>
      <trkpt lat="43.781028036028147" lon="-7.683789962902665">
        <ele>81.370000000000005</ele>
        <time>2025-04-30T10:15:31Z</time>
      </trkpt>
      <trkpt lat="43.780883029103279" lon="-7.683736989274621">
        <ele>82.329999999999998</ele>
        <time>2025-04-30T10:15:32Z</time>
      </trkpt>
      <trkpt lat="43.779958002269268" lon="-7.683542026206851">
        <ele>87.620000000000005</ele>
        <time>2025-04-30T10:15:38Z</time>
      </trkpt>
      <trkpt lat="43.779831016436219" lon="-7.683542026206851">
        <ele>88.099999999999994</ele>
        <time>2025-04-30T10:15:39Z</time>
      </trkpt>
      <trkpt lat="43.779681986197829" lon="-7.68360598012805">
        <ele>89.060000000000002</ele>
        <time>2025-04-30T10:15:40Z</time>
      </trkpt>
      <trkpt lat="43.779681986197829" lon="-7.68360598012805">
        <ele>89.540000000000006</ele>
        <time>2025-04-30T10:15:41Z</time>
      </trkpt>
      <trkpt lat="43.779397001489997" lon="-7.683728020638228">
        <ele>90.019999999999996</ele>
        <time>2025-04-30T10:15:42Z</time>
      </trkpt>
      <trkpt lat="43.778637014329433" lon="-7.684051981195808">
        <ele>93.870000000000005</ele>
        <time>2025-04-30T10:15:49Z</time>
      </trkpt>
      <trkpt lat="43.778525032103062" lon="-7.68403597176075">
        <ele>94.349999999999994</ele>
        <time>2025-04-30T10:15:50Z</time>
      </trkpt>
      <trkpt lat="43.778279023244977" lon="-7.684001019224525">
        <ele>95.790000000000006</ele>
        <time>2025-04-30T10:15:52Z</time>
      </trkpt>
      <trkpt lat="43.778163017705083" lon="-7.684039995074272">
        <ele>97.709999999999994</ele>
        <time>2025-04-30T10:15:54Z</time>
      </trkpt>
      <trkpt lat="43.777994038537145" lon="-7.684265971183777">
        <ele>98.670000000000002</ele>
        <time>2025-04-30T10:15:55Z</time>
      </trkpt>
      <trkpt lat="43.77792002633214" lon="-7.684381976723671">
        <ele>99.150000000000006</ele>
        <time>2025-04-30T10:15:56Z</time>
      </trkpt>
      <trkpt lat="43.777859006077051" lon="-7.684477027505636">
        <ele>100.11</ele>
        <time>2025-04-30T10:15:57Z</time>
      </trkpt>
      <trkpt lat="43.777809971943498" lon="-7.68455296754837">
        <ele>100.59999999999999</ele>
        <time>2025-04-30T10:15:58Z</time>
      </trkpt>
      <trkpt lat="43.777768984436989" lon="-7.68461599946022">
        <ele>101.56</ele>
        <time>2025-04-30T10:15:59Z</time>
      </trkpt>
      <trkpt lat="43.777735037729144" lon="-7.684668973088265">
        <ele>102.52</ele>
        <time>2025-04-30T10:16:00Z</time>
      </trkpt>
      <trkpt lat="43.777632024139166" lon="-7.684708032757044">
        <ele>105.40000000000001</ele>
        <time>2025-04-30T10:16:08Z</time>
      </trkpt>
      <trkpt lat="43.777632024139166" lon="-7.684708032757044">
        <ele>105.88</ele>
        <time>2025-04-30T10:16:53Z</time>
      </trkpt>
      <trkpt lat="43.777632024139166" lon="-7.684708032757044">
        <ele>105.40000000000001</ele>
        <time>2025-04-30T10:17:46Z</time>
      </trkpt>
      <trkpt lat="43.777612997218966" lon="-7.684713983908296">
        <ele>105.40000000000001</ele>
        <time>2025-04-30T10:18:13Z</time>
      </trkpt>
      <trkpt lat="43.777586007490754" lon="-7.68472203053534">
        <ele>104.92</ele>
        <time>2025-04-30T10:18:14Z</time>
      </trkpt>
      <trkpt lat="43.777362965047359" lon="-7.684647012501955">
        <ele>104.92</ele>
        <time>2025-04-30T10:18:17Z</time>
      </trkpt>
      <trkpt lat="43.777270009741187" lon="-7.684584986418486">
        <ele>105.40000000000001</ele>
        <time>2025-04-30T10:18:18Z</time>
      </trkpt>
      <trkpt lat="43.777099018916488" lon="-7.684404021129012">
        <ele>106.36</ele>
        <time>2025-04-30T10:18:20Z</time>
      </trkpt>
      <trkpt lat="43.776639020070434" lon="-7.683915020897985">
        <ele>107.31999999999999</ele>
        <time>2025-04-30T10:18:25Z</time>
      </trkpt>
      <trkpt lat="43.776526032015681" lon="-7.683828016743064">
        <ele>107.31999999999999</ele>
        <time>2025-04-30T10:18:26Z</time>
      </trkpt>
      <trkpt lat="43.776406003162265" lon="-7.683790968731046">
        <ele>106.84</ele>
        <time>2025-04-30T10:18:27Z</time>
      </trkpt>
      <trkpt lat="43.775805020704865" lon="-7.683596005663276">
        <ele>105.88</ele>
        <time>2025-04-30T10:18:32Z</time>
      </trkpt>
      <trkpt lat="43.775697983801365" lon="-7.683510007336736">
        <ele>105.88</ele>
        <time>2025-04-30T10:18:33Z</time>
      </trkpt>
      <trkpt lat="43.775390032678843" lon="-7.683262992650271">
        <ele>105.40000000000001</ele>
        <time>2025-04-30T10:18:36Z</time>
      </trkpt>
      <trkpt lat="43.775272015482187" lon="-7.683288976550102">
        <ele>105.40000000000001</ele>
        <time>2025-04-30T10:18:37Z</time>
      </trkpt>
      <trkpt lat="43.775172019377351" lon="-7.683311020955443">
        <ele>104.92</ele>
        <time>2025-04-30T10:18:38Z</time>
      </trkpt>
      <trkpt lat="43.774966998025775" lon="-7.683337004855275">
        <ele>103.48</ele>
        <time>2025-04-30T10:18:40Z</time>
      </trkpt>
      <trkpt lat="43.774874964728951" lon="-7.683305991813541">
        <ele>102.52</ele>
        <time>2025-04-30T10:18:41Z</time>
      </trkpt>
      <trkpt lat="43.77478402107954" lon="-7.683242959901691">
        <ele>102.04000000000001</ele>
        <time>2025-04-30T10:18:42Z</time>
      </trkpt>
      <trkpt lat="43.774688970297575" lon="-7.683176994323731">
        <ele>101.08</ele>
        <time>2025-04-30T10:18:43Z</time>
      </trkpt>
      <trkpt lat="43.774587968364358" lon="-7.683107005432248">
        <ele>100.59999999999999</ele>
        <time>2025-04-30T10:18:44Z</time>
      </trkpt>
      <trkpt lat="43.773635029792786" lon="-7.682500993832946">
        <ele>96.269999999999996</ele>
        <time>2025-04-30T10:18:53Z</time>
      </trkpt>
      <trkpt lat="43.773551965132356" lon="-7.682479033246636">
        <ele>95.790000000000006</ele>
        <time>2025-04-30T10:18:54Z</time>
      </trkpt>
      <trkpt lat="43.773053996264935" lon="-7.682366967201233">
        <ele>90.980000000000004</ele>
        <time>2025-04-30T10:19:03Z</time>
      </trkpt>
      <trkpt lat="43.773010997101665" lon="-7.682459000498056">
        <ele>90.5</ele>
        <time>2025-04-30T10:19:04Z</time>
      </trkpt>
      <trkpt lat="43.772995993494987" lon="-7.682539969682694">
        <ele>90.019999999999996</ele>
        <time>2025-04-30T10:19:05Z</time>
      </trkpt>
      <trkpt lat="43.772977972403169" lon="-7.682638037949801">
        <ele>89.540000000000006</ele>
        <time>2025-04-30T10:19:06Z</time>
      </trkpt>
      <trkpt lat="43.772975038737059" lon="-7.682747002691031">
        <ele>89.540000000000006</ele>
        <time>2025-04-30T10:19:07Z</time>
      </trkpt>
      <trkpt lat="43.773004962131381" lon="-7.682867031544447">
        <ele>90.019999999999996</ele>
        <time>2025-04-30T10:19:08Z</time>
      </trkpt>
      <trkpt lat="43.77304301597178" lon="-7.682995023205876">
        <ele>90.5</ele>
        <time>2025-04-30T10:19:09Z</time>
      </trkpt>
      <trkpt lat="43.773098001256585" lon="-7.683121003210545">
        <ele>90.5</ele>
        <time>2025-04-30T10:19:10Z</time>
      </trkpt>
      <trkpt lat="43.77315298654139" lon="-7.683246983215213">
        <ele>91.459999999999994</ele>
        <time>2025-04-30T10:19:11Z</time>
      </trkpt>
      <trkpt lat="43.773204032331705" lon="-7.683365000411868">
        <ele>91.939999999999998</ele>
        <time>2025-04-30T10:19:12Z</time>
      </trkpt>
      <trkpt lat="43.773242002353072" lon="-7.683467008173466">
        <ele>91.939999999999998</ele>
        <time>2025-04-30T10:19:13Z</time>
      </trkpt>
      <trkpt lat="43.773220963776112" lon="-7.683559041470289">
        <ele>91.939999999999998</ele>
        <time>2025-04-30T10:19:14Z</time>
      </trkpt>
      <trkpt lat="43.773220963776112" lon="-7.683559041470289">
        <ele>91.939999999999998</ele>
        <time>2025-04-30T10:19:15Z</time>
      </trkpt>
      <trkpt lat="43.773156004026532" lon="-7.683705976232886">
        <ele>92.420000000000002</ele>
        <time>2025-04-30T10:19:16Z</time>
      </trkpt>
      <trkpt lat="43.773090038448572" lon="-7.683748975396156">
        <ele>92.420000000000002</ele>
        <time>2025-04-30T10:19:17Z</time>
      </trkpt>
      <trkpt lat="43.773021977394819" lon="-7.683728020638228">
        <ele>92.900000000000006</ele>
        <time>2025-04-30T10:19:18Z</time>
      </trkpt>
      <trkpt lat="43.772942014038563" lon="-7.683702958747745">
        <ele>93.390000000000001</ele>
        <time>2025-04-30T10:19:19Z</time>
      </trkpt>
      <trkpt lat="43.772835982963443" lon="-7.683671023696661">
        <ele>93.870000000000005</ele>
        <time>2025-04-30T10:19:20Z</time>
      </trkpt>
      <trkpt lat="43.77276498824358" lon="-7.683616038411856">
        <ele>94.829999999999998</ele>
        <time>2025-04-30T10:19:21Z</time>
      </trkpt>
      <trkpt lat="43.772237012162805" lon="-7.683211024850607">
        <ele>100.59999999999999</ele>
        <time>2025-04-30T10:19:27Z</time>
      </trkpt>
      <trkpt lat="43.77216400578618" lon="-7.683176994323731">
        <ele>101.08</ele>
        <time>2025-04-30T10:19:28Z</time>
      </trkpt>
      <trkpt lat="43.772107008844614" lon="-7.683176994323731">
        <ele>102.04000000000001</ele>
        <time>2025-04-30T10:19:29Z</time>
      </trkpt>
      <trkpt lat="43.772063003852963" lon="-7.683176994323731">
        <ele>103</ele>
        <time>2025-04-30T10:19:30Z</time>
      </trkpt>
      <trkpt lat="43.772041965276003" lon="-7.683176994323731">
        <ele>103.95999999999999</ele>
        <time>2025-04-30T10:19:31Z</time>
      </trkpt>
      <trkpt lat="43.772041965276003" lon="-7.683176994323731">
        <ele>104.44</ele>
        <time>2025-04-30T10:19:32Z</time>
      </trkpt>
      <trkpt lat="43.771983040496707" lon="-7.683229967951775">
        <ele>105.40000000000001</ele>
        <time>2025-04-30T10:19:33Z</time>
      </trkpt>
      <trkpt lat="43.771959990262985" lon="-7.683251006528735">
        <ele>105.88</ele>
        <time>2025-04-30T10:19:34Z</time>
      </trkpt>
      <trkpt lat="43.771959990262985" lon="-7.683251006528735">
        <ele>107.31999999999999</ele>
        <time>2025-04-30T10:19:43Z</time>
      </trkpt>
      <trkpt lat="43.771959990262985" lon="-7.683251006528735">
        <ele>108.77</ele>
        <time>2025-04-30T10:20:26Z</time>
      </trkpt>
      <trkpt lat="43.771959990262985" lon="-7.683251006528735">
        <ele>109.25</ele>
        <time>2025-04-30T10:21:15Z</time>
      </trkpt>
      <trkpt lat="43.771917996928096" lon="-7.683288976550102">
        <ele>109.73</ele>
        <time>2025-04-30T10:21:55Z</time>
      </trkpt>
      <trkpt lat="43.77188203856349" lon="-7.683320995420218">
        <ele>110.20999999999999</ele>
        <time>2025-04-30T10:21:56Z</time>
      </trkpt>
      <trkpt lat="43.771759998053312" lon="-7.683459967374802">
        <ele>110.69</ele>
        <time>2025-04-30T10:21:58Z</time>
      </trkpt>
      <trkpt lat="43.771687997505069" lon="-7.683556023985148">
        <ele>110.69</ele>
        <time>2025-04-30T10:21:59Z</time>
      </trkpt>
      <trkpt lat="43.770872019231319" lon="-7.684461018070579">
        <ele>115.01000000000001</ele>
        <time>2025-04-30T10:22:07Z</time>
      </trkpt>
      <trkpt lat="43.770612012594938" lon="-7.684773998335004">
        <ele>116.94</ele>
        <time>2025-04-30T10:22:10Z</time>
      </trkpt>
      <trkpt lat="43.770559960976243" lon="-7.684907019138336">
        <ele>117.90000000000001</ele>
        <time>2025-04-30T10:22:11Z</time>
      </trkpt>
      <trkpt lat="43.770478991791606" lon="-7.685201978310943">
        <ele>118.86</ele>
        <time>2025-04-30T10:22:13Z</time>
      </trkpt>
      <trkpt lat="43.770389975979924" lon="-7.685343967750669">
        <ele>119.34</ele>
        <time>2025-04-30T10:22:14Z</time>
      </trkpt>
      <trkpt lat="43.770303977653384" lon="-7.685386966913939">
        <ele>120.3</ele>
        <time>2025-04-30T10:22:15Z</time>
      </trkpt>
      <trkpt lat="43.770185960456729" lon="-7.685360983014107">
        <ele>121.26000000000001</ele>
        <time>2025-04-30T10:22:16Z</time>
      </trkpt>
      <trkpt lat="43.770068027079105" lon="-7.685322007164359">
        <ele>122.22</ele>
        <time>2025-04-30T10:22:17Z</time>
      </trkpt>
      <trkpt lat="43.769934000447392" lon="-7.685253024101257">
        <ele>123.19</ele>
        <time>2025-04-30T10:22:18Z</time>
      </trkpt>
      <trkpt lat="43.769794022664428" lon="-7.685181023553014">
        <ele>124.63</ele>
        <time>2025-04-30T10:22:19Z</time>
      </trkpt>
      <trkpt lat="43.769323965534568" lon="-7.68495999276638">
        <ele>127.98999999999999</ele>
        <time>2025-04-30T10:22:22Z</time>
      </trkpt>
      <trkpt lat="43.76915599219501" lon="-7.684969967231154">
        <ele>128.94999999999999</ele>
        <time>2025-04-30T10:22:23Z</time>
      </trkpt>
      <trkpt lat="43.768980978056788" lon="-7.68498002551496">
        <ele>130.40000000000001</ele>
        <time>2025-04-30T10:22:24Z</time>
      </trkpt>
      <trkpt lat="43.768800012767315" lon="-7.684991005808115">
        <ele>130.88</ele>
        <time>2025-04-30T10:22:25Z</time>
      </trkpt>
      <trkpt lat="43.768614018335938" lon="-7.68500198610127">
        <ele>131.84</ele>
        <time>2025-04-30T10:22:26Z</time>
      </trkpt>
      <trkpt lat="43.768426012247801" lon="-7.685012966394424">
        <ele>132.80000000000001</ele>
        <time>2025-04-30T10:22:27Z</time>
      </trkpt>
      <trkpt lat="43.768067015334964" lon="-7.685034004971385">
        <ele>135.19999999999999</ele>
        <time>2025-04-30T10:22:29Z</time>
      </trkpt>
      <trkpt lat="43.767884960398078" lon="-7.685058983042836">
        <ele>136.63999999999999</ele>
        <time>2025-04-30T10:22:30Z</time>
      </trkpt>
      <trkpt lat="43.767749005928636" lon="-7.685183035209775">
        <ele>137.61000000000001</ele>
        <time>2025-04-30T10:22:31Z</time>
      </trkpt>
      <trkpt lat="43.767612967640162" lon="-7.685325024649501">
        <ele>139.05000000000001</ele>
        <time>2025-04-30T10:22:32Z</time>
      </trkpt>
      <trkpt lat="43.767494028434157" lon="-7.685503978282213">
        <ele>140.00999999999999</ele>
        <time>2025-04-30T10:22:33Z</time>
      </trkpt>
      <trkpt lat="43.767373999580741" lon="-7.685685027390719">
        <ele>140.97</ele>
        <time>2025-04-30T10:22:34Z</time>
      </trkpt>
      <trkpt lat="43.766859015449882" lon="-7.686373014003038">
        <ele>145.78</ele>
        <time>2025-04-30T10:22:38Z</time>
      </trkpt>
      <trkpt lat="43.766701016575098" lon="-7.68648399040103">
        <ele>146.74000000000001</ele>
        <time>2025-04-30T10:22:39Z</time>
      </trkpt>
      <trkpt lat="43.766526002436876" lon="-7.686550039798021">
        <ele>147.69999999999999</ele>
        <time>2025-04-30T10:22:40Z</time>
      </trkpt>
      <trkpt lat="43.764838976785541" lon="-7.687187986448407">
        <ele>159.24000000000001</ele>
        <time>2025-04-30T10:22:49Z</time>
      </trkpt>
      <trkpt lat="43.763399971649051" lon="-7.687839008867741">
        <ele>165</ele>
        <time>2025-04-30T10:22:57Z</time>
      </trkpt>
      <trkpt lat="43.763227974995971" lon="-7.687972029671073">
        <ele>165.47999999999999</ele>
        <time>2025-04-30T10:22:58Z</time>
      </trkpt>
      <trkpt lat="43.762328010052443" lon="-7.689047008752823">
        <ele>166.93000000000001</ele>
        <time>2025-04-30T10:23:04Z</time>
      </trkpt>
      <trkpt lat="43.761878991499543" lon="-7.689962983131409">
        <ele>167.41</ele>
        <time>2025-04-30T10:23:09Z</time>
      </trkpt>
      <trkpt lat="43.761778995394707" lon="-7.690004976466298">
        <ele>166.93000000000001</ele>
        <time>2025-04-30T10:23:10Z</time>
      </trkpt>
      <trkpt lat="43.761665001511574" lon="-7.690038001164794">
        <ele>166.44999999999999</ele>
        <time>2025-04-30T10:23:11Z</time>
      </trkpt>
      <trkpt lat="43.76107701100409" lon="-7.690258026123047">
        <ele>164.52000000000001</ele>
        <time>2025-04-30T10:23:15Z</time>
      </trkpt>
      <trkpt lat="43.760918006300926" lon="-7.690359028056264">
        <ele>164.52000000000001</ele>
        <time>2025-04-30T10:23:16Z</time>
      </trkpt>
      <trkpt lat="43.760766964405775" lon="-7.69048199057579">
        <ele>164.03999999999999</ele>
        <time>2025-04-30T10:23:17Z</time>
      </trkpt>
      <trkpt lat="43.760605026036501" lon="-7.690645018592477">
        <ele>164.03999999999999</ele>
        <time>2025-04-30T10:23:18Z</time>
      </trkpt>
      <trkpt lat="43.76045398414135" lon="-7.690812991932035">
        <ele>164.03999999999999</ele>
        <time>2025-04-30T10:23:19Z</time>
      </trkpt>
      <trkpt lat="43.760333033278584" lon="-7.691032011061907">
        <ele>163.56</ele>
        <time>2025-04-30T10:23:20Z</time>
      </trkpt>
      <trkpt lat="43.760229013860226" lon="-7.691257987171412">
        <ele>163.56</ele>
        <time>2025-04-30T10:23:21Z</time>
      </trkpt>
      <trkpt lat="43.760144021362066" lon="-7.69151296466589">
        <ele>163.08000000000001</ele>
        <time>2025-04-30T10:23:22Z</time>
      </trkpt>
      <trkpt lat="43.759407000616193" lon="-7.693753028288484">
        <ele>161.16</ele>
        <time>2025-04-30T10:23:31Z</time>
      </trkpt>
      <trkpt lat="43.759147999808192" lon="-7.694494994357228">
        <ele>159.72</ele>
        <time>2025-04-30T10:23:34Z</time>
      </trkpt>
      <trkpt lat="43.759029982611537" lon="-7.694705966860056">
        <ele>159.24000000000001</ele>
        <time>2025-04-30T10:23:35Z</time>
      </trkpt>
      <trkpt lat="43.758896039798856" lon="-7.694886010140181">
        <ele>158.27000000000001</ele>
        <time>2025-04-30T10:23:36Z</time>
      </trkpt>
      <trkpt lat="43.758746003732085" lon="-7.695035040378571">
        <ele>157.78999999999999</ele>
        <time>2025-04-30T10:23:37Z</time>
      </trkpt>
      <trkpt lat="43.758593033999205" lon="-7.695177029818296">
        <ele>156.83000000000001</ele>
        <time>2025-04-30T10:23:38Z</time>
      </trkpt>
      <trkpt lat="43.758426988497376" lon="-7.695309966802597">
        <ele>156.34999999999999</ele>
        <time>2025-04-30T10:23:39Z</time>
      </trkpt>
      <trkpt lat="43.75826396048069" lon="-7.695440975949168">
        <ele>155.87</ele>
        <time>2025-04-30T10:23:40Z</time>
      </trkpt>
      <trkpt lat="43.757428033277392" lon="-7.696104990318418">
        <ele>154.43000000000001</ele>
        <time>2025-04-30T10:23:45Z</time>
      </trkpt>
      <trkpt lat="43.757248995825648" lon="-7.696187971159816">
        <ele>153.94999999999999</ele>
        <time>2025-04-30T10:23:46Z</time>
      </trkpt>
      <trkpt lat="43.757072975859046" lon="-7.69623801112175">
        <ele>153.94999999999999</ele>
        <time>2025-04-30T10:23:47Z</time>
      </trkpt>
      <trkpt lat="43.756525972858071" lon="-7.696317974478006">
        <ele>154.91</ele>
        <time>2025-04-30T10:23:50Z</time>
      </trkpt>
      <trkpt lat="43.756385995075107" lon="-7.696372959762812">
        <ele>154.91</ele>
        <time>2025-04-30T10:23:51Z</time>
      </trkpt>
      <trkpt lat="43.756270995363593" lon="-7.696459041908383">
        <ele>154.91</ele>
        <time>2025-04-30T10:23:52Z</time>
      </trkpt>
      <trkpt lat="43.75615599565208" lon="-7.696618968620896">
        <ele>154.91</ele>
        <time>2025-04-30T10:23:53Z</time>
      </trkpt>
      <trkpt lat="43.756036972627044" lon="-7.696784008294344">
        <ele>155.38999999999999</ele>
        <time>2025-04-30T10:23:54Z</time>
      </trkpt>
      <trkpt lat="43.75523298047483" lon="-7.697986979037523">
        <ele>155.38999999999999</ele>
        <time>2025-04-30T10:24:00Z</time>
      </trkpt>
      <trkpt lat="43.755136001855135" lon="-7.69821303896606">
        <ele>154.91</ele>
        <time>2025-04-30T10:24:01Z</time>
      </trkpt>
      <trkpt lat="43.755044974386692" lon="-7.698426023125649">
        <ele>154.43000000000001</ele>
        <time>2025-04-30T10:24:02Z</time>
      </trkpt>
      <trkpt lat="43.754964005202055" lon="-7.69860103726387">
        <ele>153.94999999999999</ele>
        <time>2025-04-30T10:24:03Z</time>
      </trkpt>
      <trkpt lat="43.754844982177019" lon="-7.698770016431809">
        <ele>153.47</ele>
        <time>2025-04-30T10:24:04Z</time>
      </trkpt>
      <trkpt lat="43.754699975252151" lon="-7.698868000879884">
        <ele>152.50999999999999</ele>
        <time>2025-04-30T10:24:05Z</time>
      </trkpt>
      <trkpt lat="43.75454499386251" lon="-7.698973026126623">
        <ele>152.03</ele>
        <time>2025-04-30T10:24:06Z</time>
      </trkpt>
      <trkpt lat="43.754375008866191" lon="-7.699089031666517">
        <ele>151.06</ele>
        <time>2025-04-30T10:24:07Z</time>
      </trkpt>
      <trkpt lat="43.753184024244547" lon="-7.699896963313222">
        <ele>146.25999999999999</ele>
        <time>2025-04-30T10:24:14Z</time>
      </trkpt>
      <trkpt lat="43.753046980127692" lon="-7.699952032417059">
        <ele>145.30000000000001</ele>
        <time>2025-04-30T10:24:15Z</time>
      </trkpt>
      <trkpt lat="43.752915970981121" lon="-7.699940968304873">
        <ele>144.34</ele>
        <time>2025-04-30T10:24:16Z</time>
      </trkpt>
      <trkpt lat="43.752822009846568" lon="-7.6998670399189">
        <ele>143.84999999999999</ele>
        <time>2025-04-30T10:24:17Z</time>
      </trkpt>
      <trkpt lat="43.752752020955086" lon="-7.69978498108685">
        <ele>142.88999999999999</ele>
        <time>2025-04-30T10:24:18Z</time>
      </trkpt>
      <trkpt lat="43.752686977386475" lon="-7.699619019404054">
        <ele>142.41</ele>
        <time>2025-04-30T10:24:19Z</time>
      </trkpt>
      <trkpt lat="43.752623023465276" lon="-7.699450962245464">
        <ele>141.44999999999999</ele>
        <time>2025-04-30T10:24:20Z</time>
      </trkpt>
      <trkpt lat="43.752550017088652" lon="-7.699263961985707">
        <ele>140.49000000000001</ele>
        <time>2025-04-30T10:24:21Z</time>
      </trkpt>
      <trkpt lat="43.752453038468957" lon="-7.699061958119273">
        <ele>140.00999999999999</ele>
        <time>2025-04-30T10:24:22Z</time>
      </trkpt>
      <trkpt lat="43.752338960766792" lon="-7.69890203140676">
        <ele>139.05000000000001</ele>
        <time>2025-04-30T10:24:23Z</time>
      </trkpt>
      <trkpt lat="43.751947022974491" lon="-7.698456030339003">
        <ele>135.68000000000001</ele>
        <time>2025-04-30T10:24:26Z</time>
      </trkpt>
      <trkpt lat="43.751822970807552" lon="-7.698320997878909">
        <ele>134.24000000000001</ele>
        <time>2025-04-30T10:24:27Z</time>
      </trkpt>
      <trkpt lat="43.751680981367826" lon="-7.698252014815807">
        <ele>133.75999999999999</ele>
        <time>2025-04-30T10:24:28Z</time>
      </trkpt>
      <trkpt lat="43.751525999978185" lon="-7.698211027309299">
        <ele>132.80000000000001</ele>
        <time>2025-04-30T10:24:29Z</time>
      </trkpt>
      <trkpt lat="43.751393985003233" lon="-7.698284033685923">
        <ele>131.84</ele>
        <time>2025-04-30T10:24:30Z</time>
      </trkpt>
      <trkpt lat="43.75125702470541" lon="-7.698359973728657">
        <ele>131.36000000000001</ele>
        <time>2025-04-30T10:24:31Z</time>
      </trkpt>
      <trkpt lat="43.750734999775887" lon="-7.698541022837162">
        <ele>130.40000000000001</ele>
        <time>2025-04-30T10:24:34Z</time>
      </trkpt>
      <trkpt lat="43.750566020607948" lon="-7.698506992310286">
        <ele>130.40000000000001</ele>
        <time>2025-04-30T10:24:35Z</time>
      </trkpt>
      <trkpt lat="43.750082971528172" lon="-7.69819401204586">
        <ele>130.88</ele>
        <time>2025-04-30T10:24:38Z</time>
      </trkpt>
      <trkpt lat="43.749917009845376" lon="-7.698084963485599">
        <ele>130.88</ele>
        <time>2025-04-30T10:24:39Z</time>
      </trkpt>
      <trkpt lat="43.748965999111533" lon="-7.697577020153403">
        <ele>131.84</ele>
        <time>2025-04-30T10:24:45Z</time>
      </trkpt>
      <trkpt lat="43.748857034370303" lon="-7.697393959388137">
        <ele>132.31999999999999</ele>
        <time>2025-04-30T10:24:46Z</time>
      </trkpt>
      <trkpt lat="43.74876500107348" lon="-7.697193967178464">
        <ele>132.80000000000001</ele>
        <time>2025-04-30T10:24:47Z</time>
      </trkpt>
      <trkpt lat="43.748052958399057" lon="-7.695858981460333">
        <ele>136.16</ele>
        <time>2025-04-30T10:24:54Z</time>
      </trkpt>
      <trkpt lat="43.74790602363646" lon="-7.695768037810922">
        <ele>136.16</ele>
        <time>2025-04-30T10:24:55Z</time>
      </trkpt>
      <trkpt lat="43.747774008661509" lon="-7.695686984807253">
        <ele>136.16</ele>
        <time>2025-04-30T10:24:56Z</time>
      </trkpt>
      <trkpt lat="43.74704796820879" lon="-7.695359000936151">
        <ele>135.68000000000001</ele>
        <time>2025-04-30T10:25:00Z</time>
      </trkpt>
      <trkpt lat="43.746307007968426" lon="-7.694422993808985">
        <ele>135.68000000000001</ele>
        <time>2025-04-30T10:25:05Z</time>
      </trkpt>
      <trkpt lat="43.746153032407165" lon="-7.694227024912834">
        <ele>135.68000000000001</ele>
        <time>2025-04-30T10:25:06Z</time>
      </trkpt>
      <trkpt lat="43.746000984683633" lon="-7.694034995511174">
        <ele>135.19999999999999</ele>
        <time>2025-04-30T10:25:07Z</time>
      </trkpt>
      <trkpt lat="43.745828988030553" lon="-7.693866016343236">
        <ele>134.72</ele>
        <time>2025-04-30T10:25:08Z</time>
      </trkpt>
      <trkpt lat="43.745657997205853" lon="-7.693717991933227">
        <ele>134.72</ele>
        <time>2025-04-30T10:25:09Z</time>
      </trkpt>
      <trkpt lat="43.745504021644592" lon="-7.693584971129894">
        <ele>134.24000000000001</ele>
        <time>2025-04-30T10:25:10Z</time>
      </trkpt>
      <trkpt lat="43.745148964226246" lon="-7.693426972255111">
        <ele>134.72</ele>
        <time>2025-04-30T10:25:12Z</time>
      </trkpt>
      <trkpt lat="43.744599027559161" lon="-7.693199990317226">
        <ele>134.24000000000001</ele>
        <time>2025-04-30T10:25:15Z</time>
      </trkpt>
      <trkpt lat="43.744395012035966" lon="-7.693181969225407">
        <ele>133.75999999999999</ele>
        <time>2025-04-30T10:25:16Z</time>
      </trkpt>
      <trkpt lat="43.74423298984766" lon="-7.693305015563965">
        <ele>133.75999999999999</ele>
        <time>2025-04-30T10:25:17Z</time>
      </trkpt>
      <trkpt lat="43.744113966822624" lon="-7.693477012217045">
        <ele>133.28</ele>
        <time>2025-04-30T10:25:18Z</time>
      </trkpt>
      <trkpt lat="43.744008019566536" lon="-7.693654960021377">
        <ele>132.80000000000001</ele>
        <time>2025-04-30T10:25:19Z</time>
      </trkpt>
      <trkpt lat="43.743891008198261" lon="-7.693851012736559">
        <ele>132.31999999999999</ele>
        <time>2025-04-30T10:25:20Z</time>
      </trkpt>
      <trkpt lat="43.743770979344845" lon="-7.694053016602993">
        <ele>132.31999999999999</ele>
        <time>2025-04-30T10:25:21Z</time>
      </trkpt>
      <trkpt lat="43.743671989068389" lon="-7.694310005754232">
        <ele>131.84</ele>
        <time>2025-04-30T10:25:22Z</time>
      </trkpt>
      <trkpt lat="43.743602000176907" lon="-7.694568000733852">
        <ele>131.36000000000001</ele>
        <time>2025-04-30T10:25:23Z</time>
      </trkpt>
      <trkpt lat="43.743512984365225" lon="-7.695306027308106">
        <ele>129.91999999999999</ele>
        <time>2025-04-30T10:25:26Z</time>
      </trkpt>
      <trkpt lat="43.743461016565561" lon="-7.695557987317443">
        <ele>129.43000000000001</ele>
        <time>2025-04-30T10:25:27Z</time>
      </trkpt>
      <trkpt lat="43.743362026289105" lon="-7.695806007832289">
        <ele>128.47</ele>
        <time>2025-04-30T10:25:28Z</time>
      </trkpt>
      <trkpt lat="43.743270998820662" lon="-7.696031983941793">
        <ele>127.51000000000001</ele>
        <time>2025-04-30T10:25:29Z</time>
      </trkpt>
      <trkpt lat="43.743188017979264" lon="-7.696240022778511">
        <ele>127.03</ele>
        <time>2025-04-30T10:25:30Z</time>
      </trkpt>
      <trkpt lat="43.742941003292799" lon="-7.697047032415867">
        <ele>124.15000000000001</ele>
        <time>2025-04-30T10:25:34Z</time>
      </trkpt>
      <trkpt lat="43.742904039099813" lon="-7.697288012132049">
        <ele>123.19</ele>
        <time>2025-04-30T10:25:35Z</time>
      </trkpt>
      <trkpt lat="43.742746040225029" lon="-7.698080018162727">
        <ele>120.78</ele>
        <time>2025-04-30T10:25:38Z</time>
      </trkpt>
      <trkpt lat="43.74266498722136" lon="-7.698340024799109">
        <ele>119.34</ele>
        <time>2025-04-30T10:25:39Z</time>
      </trkpt>
      <trkpt lat="43.742417972534895" lon="-7.699130019173026">
        <ele>115.98</ele>
        <time>2025-04-30T10:25:42Z</time>
      </trkpt>
      <trkpt lat="43.742361981421709" lon="-7.699407963082194">
        <ele>115.01000000000001</ele>
        <time>2025-04-30T10:25:43Z</time>
      </trkpt>
      <trkpt lat="43.742303978651762" lon="-7.700768010690808">
        <ele>108.29000000000001</ele>
        <time>2025-04-30T10:25:48Z</time>
      </trkpt>
      <trkpt lat="43.74223398976028" lon="-7.701028017327189">
        <ele>106.84</ele>
        <time>2025-04-30T10:25:49Z</time>
      </trkpt>
      <trkpt lat="43.742156038060784" lon="-7.701274026185274">
        <ele>105.88</ele>
        <time>2025-04-30T10:25:50Z</time>
      </trkpt>
      <trkpt lat="43.741965014487505" lon="-7.702012974768877">
        <ele>102.04000000000001</ele>
        <time>2025-04-30T10:25:53Z</time>
      </trkpt>
      <trkpt lat="43.741945987567306" lon="-7.702256971970201">
        <ele>101.08</ele>
        <time>2025-04-30T10:25:54Z</time>
      </trkpt>
      <trkpt lat="43.741926038637757" lon="-7.702503986656666">
        <ele>100.11</ele>
        <time>2025-04-30T10:25:55Z</time>
      </trkpt>
      <trkpt lat="43.741883961483836" lon="-7.703432030975819">
        <ele>96.269999999999996</ele>
        <time>2025-04-30T10:25:59Z</time>
      </trkpt>
      <trkpt lat="43.741865018382668" lon="-7.70382103510201">
        <ele>93.870000000000005</ele>
        <time>2025-04-30T10:26:01Z</time>
      </trkpt>
      <trkpt lat="43.741801986470819" lon="-7.70399697124958">
        <ele>92.900000000000006</ele>
        <time>2025-04-30T10:26:02Z</time>
      </trkpt>
      <trkpt lat="43.74169603921473" lon="-7.704090010374785">
        <ele>91.939999999999998</ele>
        <time>2025-04-30T10:26:03Z</time>
      </trkpt>
      <trkpt lat="43.741538040339947" lon="-7.704086992889643">
        <ele>90.980000000000004</ele>
        <time>2025-04-30T10:26:04Z</time>
      </trkpt>
      <trkpt lat="43.741411976516247" lon="-7.704044999554753">
        <ele>90.019999999999996</ele>
        <time>2025-04-30T10:26:05Z</time>
      </trkpt>
      <trkpt lat="43.741277027875185" lon="-7.703999988734722">
        <ele>89.540000000000006</ele>
        <time>2025-04-30T10:26:06Z</time>
      </trkpt>
      <trkpt lat="43.741135960444808" lon="-7.703991020098329">
        <ele>88.579999999999998</ele>
        <time>2025-04-30T10:26:07Z</time>
      </trkpt>
      <trkpt lat="43.740990031510592" lon="-7.704011974856257">
        <ele>88.099999999999994</ele>
        <time>2025-04-30T10:26:08Z</time>
      </trkpt>
      <trkpt lat="43.740847958251834" lon="-7.704077018424869">
        <ele>87.620000000000005</ele>
        <time>2025-04-30T10:26:09Z</time>
      </trkpt>
      <trkpt lat="43.740704962983727" lon="-7.704141978174448">
        <ele>86.659999999999997</ele>
        <time>2025-04-30T10:26:10Z</time>
      </trkpt>
      <trkpt lat="43.740563979372382" lon="-7.704207021743059">
        <ele>86.180000000000007</ele>
        <time>2025-04-30T10:26:11Z</time>
      </trkpt>
      <trkpt lat="43.740420984104276" lon="-7.704290002584457">
        <ele>85.689999999999998</ele>
        <time>2025-04-30T10:26:12Z</time>
      </trkpt>
      <trkpt lat="43.739374000579119" lon="-7.704869024455547">
        <ele>80.890000000000001</ele>
        <time>2025-04-30T10:26:20Z</time>
      </trkpt>
      <trkpt lat="43.738104980438948" lon="-7.705593975260854">
        <ele>75.120000000000005</ele>
        <time>2025-04-30T10:26:31Z</time>
      </trkpt>
      <trkpt lat="43.738015964627266" lon="-7.705706041306257">
        <ele>74.159999999999997</ele>
        <time>2025-04-30T10:26:32Z</time>
      </trkpt>
      <trkpt lat="43.737942036241293" lon="-7.705810982733965">
        <ele>73.680000000000007</ele>
        <time>2025-04-30T10:26:33Z</time>
      </trkpt>
      <trkpt lat="43.737530987709761" lon="-7.706428980454803">
        <ele>69.829999999999998</ele>
        <time>2025-04-30T10:26:40Z</time>
      </trkpt>
      <trkpt lat="43.737455969676375" lon="-7.706482037901878">
        <ele>69.349999999999994</ele>
        <time>2025-04-30T10:26:41Z</time>
      </trkpt>
      <trkpt lat="43.737379023805261" lon="-7.706536017358303">
        <ele>68.870000000000005</ele>
        <time>2025-04-30T10:26:42Z</time>
      </trkpt>
      <trkpt lat="43.737310040742159" lon="-7.706553032621741">
        <ele>68.390000000000001</ele>
        <time>2025-04-30T10:26:43Z</time>
      </trkpt>
      <trkpt lat="43.737223036587238" lon="-7.706566024571657">
        <ele>67.909999999999997</ele>
        <time>2025-04-30T10:26:44Z</time>
      </trkpt>
      <trkpt lat="43.737137038260698" lon="-7.706578010693193">
        <ele>67.909999999999997</ele>
        <time>2025-04-30T10:26:45Z</time>
      </trkpt>
      <trkpt lat="43.737047016620636" lon="-7.706592008471489">
        <ele>67.430000000000007</ele>
        <time>2025-04-30T10:26:46Z</time>
      </trkpt>
      <trkpt lat="43.736960012465715" lon="-7.706605000421405">
        <ele>66.950000000000003</ele>
        <time>2025-04-30T10:26:47Z</time>
      </trkpt>
      <trkpt lat="43.736792039126158" lon="-7.706628972664475">
        <ele>66.469999999999999</ele>
        <time>2025-04-30T10:26:49Z</time>
      </trkpt>
      <trkpt lat="43.736501019448042" lon="-7.706597037613392">
        <ele>65.989999999999995</ele>
        <time>2025-04-30T10:26:53Z</time>
      </trkpt>
      <trkpt lat="43.735781013965607" lon="-7.706951005384326">
        <ele>67.430000000000007</ele>
        <time>2025-04-30T10:27:01Z</time>
      </trkpt>
      <trkpt lat="43.734317030757666" lon="-7.707661958411336">
        <ele>75.599999999999994</ele>
        <time>2025-04-30T10:27:15Z</time>
      </trkpt>
      <trkpt lat="43.732808958739042" lon="-7.708367966115475">
        <ele>84.730000000000004</ele>
        <time>2025-04-30T10:27:25Z</time>
      </trkpt>
      <trkpt lat="43.731827018782496" lon="-7.708500986918807">
        <ele>90.5</ele>
        <time>2025-04-30T10:27:31Z</time>
      </trkpt>
      <trkpt lat="43.730263039469719" lon="-7.708047023043037">
        <ele>94.829999999999998</ele>
        <time>2025-04-30T10:27:38Z</time>
      </trkpt>
      <trkpt lat="43.729883003979921" lon="-7.707986002787948">
        <ele>95.790000000000006</ele>
        <time>2025-04-30T10:27:40Z</time>
      </trkpt>
      <trkpt lat="43.729693992063403" lon="-7.708007963374257">
        <ele>96.269999999999996</ele>
        <time>2025-04-30T10:27:41Z</time>
      </trkpt>
      <trkpt lat="43.729505985975266" lon="-7.708030007779598">
        <ele>96.75</ele>
        <time>2025-04-30T10:27:42Z</time>
      </trkpt>
      <trkpt lat="43.729318985715508" lon="-7.708064960315824">
        <ele>97.230000000000004</ele>
        <time>2025-04-30T10:27:43Z</time>
      </trkpt>
      <trkpt lat="43.729131985455751" lon="-7.708142995834351">
        <ele>97.709999999999994</ele>
        <time>2025-04-30T10:27:44Z</time>
      </trkpt>
      <trkpt lat="43.728949008509517" lon="-7.708234023302794">
        <ele>98.189999999999998</ele>
        <time>2025-04-30T10:27:45Z</time>
      </trkpt>
      <trkpt lat="43.728767037391663" lon="-7.708327984437347">
        <ele>99.150000000000006</ele>
        <time>2025-04-30T10:27:46Z</time>
      </trkpt>
      <trkpt lat="43.728583976626396" lon="-7.708422029390931">
        <ele>99.629999999999995</ele>
        <time>2025-04-30T10:27:47Z</time>
      </trkpt>
      <trkpt lat="43.727392992004752" lon="-7.709514023736119">
        <ele>103.48</ele>
        <time>2025-04-30T10:27:54Z</time>
      </trkpt>
      <trkpt lat="43.727243961766362" lon="-7.709713010117412">
        <ele>103.95999999999999</ele>
        <time>2025-04-30T10:27:55Z</time>
      </trkpt>
      <trkpt lat="43.7271280400455" lon="-7.709943009540439">
        <ele>104.44</ele>
        <time>2025-04-30T10:27:56Z</time>
      </trkpt>
      <trkpt lat="43.727012034505606" lon="-7.710173008963466">
        <ele>105.40000000000001</ele>
        <time>2025-04-30T10:27:57Z</time>
      </trkpt>
      <trkpt lat="43.726918995380402" lon="-7.710423041135073">
        <ele>105.88</ele>
        <time>2025-04-30T10:27:58Z</time>
      </trkpt>
      <trkpt lat="43.7268309853971" lon="-7.710685981437564">
        <ele>106.36</ele>
        <time>2025-04-30T10:27:59Z</time>
      </trkpt>
      <trkpt lat="43.726180968806148" lon="-7.713072979822755">
        <ele>110.69</ele>
        <time>2025-04-30T10:28:08Z</time>
      </trkpt>
      <trkpt lat="43.725720969960093" lon="-7.714708037674427">
        <ele>112.61</ele>
        <time>2025-04-30T10:28:14Z</time>
      </trkpt>
      <trkpt lat="43.725715018808842" lon="-7.714984975755215">
        <ele>113.09</ele>
        <time>2025-04-30T10:28:15Z</time>
      </trkpt>
      <trkpt lat="43.725758017972112" lon="-7.715218998491764">
        <ele>113.56999999999999</ele>
        <time>2025-04-30T10:28:16Z</time>
      </trkpt>
      <trkpt lat="43.725801017135382" lon="-7.715448997914791">
        <ele>114.05</ele>
        <time>2025-04-30T10:28:17Z</time>
      </trkpt>
      <trkpt lat="43.725903024896979" lon="-7.715653013437986">
        <ele>114.53</ele>
        <time>2025-04-30T10:28:18Z</time>
      </trkpt>
      <trkpt lat="43.725973013788462" lon="-7.715792991220951">
        <ele>115.01000000000001</ele>
        <time>2025-04-30T10:28:19Z</time>
      </trkpt>
      <trkpt lat="43.726142998784781" lon="-7.715920982882381">
        <ele>115.5</ele>
        <time>2025-04-30T10:28:20Z</time>
      </trkpt>
      <trkpt lat="43.726302003487945" lon="-7.716039000079036">
        <ele>115.5</ele>
        <time>2025-04-30T10:28:21Z</time>
      </trkpt>
      <trkpt lat="43.726454973220825" lon="-7.716124998405576">
        <ele>115.98</ele>
        <time>2025-04-30T10:28:22Z</time>
      </trkpt>
      <trkpt lat="43.726654965430498" lon="-7.716164980083704">
        <ele>116.45999999999999</ele>
        <time>2025-04-30T10:28:23Z</time>
      </trkpt>
      <trkpt lat="43.726864010095596" lon="-7.716204039752483">
        <ele>116.94</ele>
        <time>2025-04-30T10:28:24Z</time>
      </trkpt>
      <trkpt lat="43.727285033091903" lon="-7.716277968138456">
        <ele>117.42</ele>
        <time>2025-04-30T10:28:26Z</time>
      </trkpt>
      <trkpt lat="43.727488964796066" lon="-7.716332031413913">
        <ele>116.94</ele>
        <time>2025-04-30T10:28:27Z</time>
      </trkpt>
      <trkpt lat="43.727663978934288" lon="-7.716451976448298">
        <ele>117.42</ele>
        <time>2025-04-30T10:28:28Z</time>
      </trkpt>
      <trkpt lat="43.727841004729271" lon="-7.716572005301714">
        <ele>117.42</ele>
        <time>2025-04-30T10:28:29Z</time>
      </trkpt>
      <trkpt lat="43.728009983897209" lon="-7.71677803248167">
        <ele>117.90000000000001</ele>
        <time>2025-04-30T10:28:30Z</time>
      </trkpt>
      <trkpt lat="43.728136969730258" lon="-7.717004008591175">
        <ele>117.90000000000001</ele>
        <time>2025-04-30T10:28:31Z</time>
      </trkpt>
      <trkpt lat="43.72826999053359" lon="-7.717239037156105">
        <ele>117.90000000000001</ele>
        <time>2025-04-30T10:28:32Z</time>
      </trkpt>
      <trkpt lat="43.72910600155592" lon="-7.719097975641489">
        <ele>117.90000000000001</ele>
        <time>2025-04-30T10:28:39Z</time>
      </trkpt>
      <trkpt lat="43.729189988225698" lon="-7.719364017248154">
        <ele>117.90000000000001</ele>
        <time>2025-04-30T10:28:40Z</time>
      </trkpt>
      <trkpt lat="43.729233993217349" lon="-7.719629975035787">
        <ele>118.38</ele>
        <time>2025-04-30T10:28:41Z</time>
      </trkpt>
      <trkpt lat="43.729233993217349" lon="-7.719909008592367">
        <ele>118.86</ele>
        <time>2025-04-30T10:28:42Z</time>
      </trkpt>
      <trkpt lat="43.72919199988246" lon="-7.720196004956961">
        <ele>118.86</ele>
        <time>2025-04-30T10:28:43Z</time>
      </trkpt>
      <trkpt lat="43.729097032919526" lon="-7.720461040735245">
        <ele>119.34</ele>
        <time>2025-04-30T10:28:44Z</time>
      </trkpt>
      <trkpt lat="43.728983961045742" lon="-7.720711994916201">
        <ele>119.34</ele>
        <time>2025-04-30T10:28:45Z</time>
      </trkpt>
      <trkpt lat="43.728851024061441" lon="-7.720959009602666">
        <ele>119.34</ele>
        <time>2025-04-30T10:28:46Z</time>
      </trkpt>
      <trkpt lat="43.72783999890089" lon="-7.723088013008237">
        <ele>117.90000000000001</ele>
        <time>2025-04-30T10:28:54Z</time>
      </trkpt>
      <trkpt lat="43.72781996615231" lon="-7.723364029079676">
        <ele>117.42</ele>
        <time>2025-04-30T10:28:55Z</time>
      </trkpt>
      <trkpt lat="43.727834969758987" lon="-7.723607020452619">
        <ele>116.94</ele>
        <time>2025-04-30T10:28:56Z</time>
      </trkpt>
      <trkpt lat="43.727857014164329" lon="-7.723877001553774">
        <ele>116.45999999999999</ele>
        <time>2025-04-30T10:28:57Z</time>
      </trkpt>
      <trkpt lat="43.727919962257147" lon="-7.724110018461943">
        <ele>115.98</ele>
        <time>2025-04-30T10:28:58Z</time>
      </trkpt>
      <trkpt lat="43.72801098972559" lon="-7.724397014826536">
        <ele>115.98</ele>
        <time>2025-04-30T10:28:59Z</time>
      </trkpt>
      <trkpt lat="43.72801098972559" lon="-7.724397014826536">
        <ele>116.94</ele>
        <time>2025-04-30T10:29:00Z</time>
      </trkpt>
      <trkpt lat="43.728585988283157" lon="-7.72547903470695">
        <ele>117.90000000000001</ele>
        <time>2025-04-30T10:29:04Z</time>
      </trkpt>
      <trkpt lat="43.728954959660769" lon="-7.726371036842465">
        <ele>116.94</ele>
        <time>2025-04-30T10:29:08Z</time>
      </trkpt>
      <trkpt lat="43.729125028476119" lon="-7.726556025445461">
        <ele>116.45999999999999</ele>
        <time>2025-04-30T10:29:09Z</time>
      </trkpt>
      <trkpt lat="43.729730034247041" lon="-7.72756302729249">
        <ele>114.53</ele>
        <time>2025-04-30T10:29:14Z</time>
      </trkpt>
      <trkpt lat="43.730079978704453" lon="-7.727806018665433">
        <ele>113.56999999999999</ele>
        <time>2025-04-30T10:29:16Z</time>
      </trkpt>
      <trkpt lat="43.730800990015268" lon="-7.728796005249023">
        <ele>112.61</ele>
        <time>2025-04-30T10:29:22Z</time>
      </trkpt>
      <trkpt lat="43.730776011943817" lon="-7.728983005508781">
        <ele>112.61</ele>
        <time>2025-04-30T10:29:23Z</time>
      </trkpt>
      <trkpt lat="43.730753967538476" lon="-7.729182997718453">
        <ele>112.61</ele>
        <time>2025-04-30T10:29:24Z</time>
      </trkpt>
      <trkpt lat="43.73074097558856" lon="-7.729388019070029">
        <ele>113.09</ele>
        <time>2025-04-30T10:29:25Z</time>
      </trkpt>
      <trkpt lat="43.730766037479043" lon="-7.729639979079366">
        <ele>113.56999999999999</ele>
        <time>2025-04-30T10:29:26Z</time>
      </trkpt>
      <trkpt lat="43.730779029428959" lon="-7.729719020426273">
        <ele>113.56999999999999</ele>
        <time>2025-04-30T10:29:27Z</time>
      </trkpt>
      <trkpt lat="43.730904003605247" lon="-7.730053039267659">
        <ele>113.09</ele>
        <time>2025-04-30T10:29:28Z</time>
      </trkpt>
      <trkpt lat="43.731000982224941" lon="-7.730201985687017">
        <ele>113.09</ele>
        <time>2025-04-30T10:29:29Z</time>
      </trkpt>
      <trkpt lat="43.731085974723101" lon="-7.730326037853956">
        <ele>113.09</ele>
        <time>2025-04-30T10:29:30Z</time>
      </trkpt>
      <trkpt lat="43.731214972212911" lon="-7.730455035343766">
        <ele>112.13</ele>
        <time>2025-04-30T10:29:31Z</time>
      </trkpt>
      <trkpt lat="43.731357967481017" lon="-7.73059300146997">
        <ele>111.17</ele>
        <time>2025-04-30T10:29:32Z</time>
      </trkpt>
      <trkpt lat="43.731510015204549" lon="-7.730738008394837">
        <ele>110.20999999999999</ele>
        <time>2025-04-30T10:29:33Z</time>
      </trkpt>
      <trkpt lat="43.731664996594191" lon="-7.730885026976466">
        <ele>109.25</ele>
        <time>2025-04-30T10:29:34Z</time>
      </trkpt>
      <trkpt lat="43.731806986033916" lon="-7.731106979772449">
        <ele>108.29000000000001</ele>
        <time>2025-04-30T10:29:35Z</time>
      </trkpt>
      <trkpt lat="43.731922991573811" lon="-7.731312001124024">
        <ele>107.31999999999999</ele>
        <time>2025-04-30T10:29:36Z</time>
      </trkpt>
      <trkpt lat="43.732008989900351" lon="-7.73158298805356">
        <ele>106.36</ele>
        <time>2025-04-30T10:29:37Z</time>
      </trkpt>
      <trkpt lat="43.732045032083988" lon="-7.731799995526671">
        <ele>105.40000000000001</ele>
        <time>2025-04-30T10:29:38Z</time>
      </trkpt>
      <trkpt lat="43.732072021812201" lon="-7.732109958305955">
        <ele>104.44</ele>
        <time>2025-04-30T10:29:39Z</time>
      </trkpt>
      <trkpt lat="43.732086019590497" lon="-7.733162976801395">
        <ele>100.59999999999999</ele>
        <time>2025-04-30T10:29:43Z</time>
      </trkpt>
      <trkpt lat="43.732043020427227" lon="-7.733424995094538">
        <ele>98.670000000000002</ele>
        <time>2025-04-30T10:29:44Z</time>
      </trkpt>
      <trkpt lat="43.731974037364125" lon="-7.733659017831087">
        <ele>96.75</ele>
        <time>2025-04-30T10:29:45Z</time>
      </trkpt>
      <trkpt lat="43.731873035430908" lon="-7.733907960355282">
        <ele>94.829999999999998</ele>
        <time>2025-04-30T10:29:46Z</time>
      </trkpt>
      <trkpt lat="43.731760969385505" lon="-7.734151035547257">
        <ele>92.900000000000006</ele>
        <time>2025-04-30T10:29:47Z</time>
      </trkpt>
      <trkpt lat="43.73052497394383" lon="-7.73665496148169">
        <ele>75.120000000000005</ele>
        <time>2025-04-30T10:29:57Z</time>
      </trkpt>
      <trkpt lat="43.729688040912151" lon="-7.738360008224845">
        <ele>65.030000000000001</ele>
        <time>2025-04-30T10:30:04Z</time>
      </trkpt>
      <trkpt lat="43.728943979367614" lon="-7.739883000031114">
        <ele>55.409999999999997</ele>
        <time>2025-04-30T10:30:11Z</time>
      </trkpt>
      <trkpt lat="43.727866988629103" lon="-7.741876970976591">
        <ele>43.880000000000003</ele>
        <time>2025-04-30T10:30:22Z</time>
      </trkpt>
      <trkpt lat="43.726920001208782" lon="-7.742720022797585">
        <ele>36.670000000000002</ele>
        <time>2025-04-30T10:30:29Z</time>
      </trkpt>
      <trkpt lat="43.726343996822834" lon="-7.743125036358833">
        <ele>31.379999999999999</ele>
        <time>2025-04-30T10:30:33Z</time>
      </trkpt>
      <trkpt lat="43.726237965747714" lon="-7.743317987769842">
        <ele>30.420000000000002</ele>
        <time>2025-04-30T10:30:34Z</time>
      </trkpt>
      <trkpt lat="43.726137969642878" lon="-7.74350699968636">
        <ele>29.460000000000001</ele>
        <time>2025-04-30T10:30:35Z</time>
      </trkpt>
      <trkpt lat="43.726036967709661" lon="-7.743697017431259">
        <ele>28.5</ele>
        <time>2025-04-30T10:30:36Z</time>
      </trkpt>
      <trkpt lat="43.725942000746727" lon="-7.743887035176158">
        <ele>28.02</ele>
        <time>2025-04-30T10:30:37Z</time>
      </trkpt>
      <trkpt lat="43.725880980491638" lon="-7.744078980758786">
        <ele>27.530000000000001</ele>
        <time>2025-04-30T10:30:38Z</time>
      </trkpt>
      <trkpt lat="43.725469009950757" lon="-7.745474986732006">
        <ele>28.98</ele>
        <time>2025-04-30T10:30:47Z</time>
      </trkpt>
      <trkpt lat="43.725034995004535" lon="-7.747045001015067">
        <ele>32.82</ele>
        <time>2025-04-30T10:30:58Z</time>
      </trkpt>
      <trkpt lat="43.72451095841825" lon="-7.748974012210965">
        <ele>39.549999999999997</ele>
        <time>2025-04-30T10:31:10Z</time>
      </trkpt>
      <trkpt lat="43.7238849978894" lon="-7.751188008114696">
        <ele>44.840000000000003</ele>
        <time>2025-04-30T10:31:21Z</time>
      </trkpt>
      <trkpt lat="43.723216038197279" lon="-7.753498982638121">
        <ele>49.649999999999999</ele>
        <time>2025-04-30T10:31:29Z</time>
      </trkpt>
      <trkpt lat="43.722593011334538" lon="-7.755958987399936">
        <ele>59.259999999999998</ele>
        <time>2025-04-30T10:31:38Z</time>
      </trkpt>
      <trkpt lat="43.722578007727861" lon="-7.756365006789565">
        <ele>61.18</ele>
        <time>2025-04-30T10:31:40Z</time>
      </trkpt>
      <trkpt lat="43.722600974142551" lon="-7.756551001220942">
        <ele>62.619999999999997</ele>
        <time>2025-04-30T10:31:41Z</time>
      </trkpt>
      <trkpt lat="43.722756039351225" lon="-7.75787802413106">
        <ele>67.909999999999997</ele>
        <time>2025-04-30T10:31:49Z</time>
      </trkpt>
      <trkpt lat="43.722762996330857" lon="-7.758057983592153">
        <ele>68.390000000000001</ele>
        <time>2025-04-30T10:31:50Z</time>
      </trkpt>
      <trkpt lat="43.722770037129521" lon="-7.75824498385191">
        <ele>68.870000000000005</ele>
        <time>2025-04-30T10:31:51Z</time>
      </trkpt>
      <trkpt lat="43.722760984674096" lon="-7.758452016860247">
        <ele>69.349999999999994</ele>
        <time>2025-04-30T10:31:52Z</time>
      </trkpt>
      <trkpt lat="43.722719997167587" lon="-7.758644968271256">
        <ele>70.310000000000002</ele>
        <time>2025-04-30T10:31:53Z</time>
      </trkpt>
      <trkpt lat="43.722636010497808" lon="-7.75884797796607">
        <ele>70.790000000000006</ele>
        <time>2025-04-30T10:31:54Z</time>
      </trkpt>
      <trkpt lat="43.722528973594308" lon="-7.759058028459549">
        <ele>71.269999999999996</ele>
        <time>2025-04-30T10:31:55Z</time>
      </trkpt>
      <trkpt lat="43.722396036610007" lon="-7.759264977648854">
        <ele>72.239999999999995</ele>
        <time>2025-04-30T10:31:56Z</time>
      </trkpt>
      <trkpt lat="43.721507973968983" lon="-7.760714963078499">
        <ele>78</ele>
        <time>2025-04-30T10:32:02Z</time>
      </trkpt>
      <trkpt lat="43.720423020422459" lon="-7.762443982064724">
        <ele>88.099999999999994</ele>
        <time>2025-04-30T10:32:10Z</time>
      </trkpt>
      <trkpt lat="43.7201480101794" lon="-7.762803984805942">
        <ele>90.019999999999996</ele>
        <time>2025-04-30T10:32:12Z</time>
      </trkpt>
      <trkpt lat="43.719992022961378" lon="-7.762942034751177">
        <ele>91.459999999999994</ele>
        <time>2025-04-30T10:32:13Z</time>
      </trkpt>
      <trkpt lat="43.719809968024492" lon="-7.763029960915446">
        <ele>92.900000000000006</ele>
        <time>2025-04-30T10:32:14Z</time>
      </trkpt>
      <trkpt lat="43.71963101439178" lon="-7.763115959241986">
        <ele>94.349999999999994</ele>
        <time>2025-04-30T10:32:15Z</time>
      </trkpt>
      <trkpt lat="43.719450971111655" lon="-7.763202963396907">
        <ele>95.790000000000006</ele>
        <time>2025-04-30T10:32:16Z</time>
      </trkpt>
      <trkpt lat="43.718906985595822" lon="-7.763437991961837">
        <ele>99.629999999999995</ele>
        <time>2025-04-30T10:32:19Z</time>
      </trkpt>
      <trkpt lat="43.718729037791491" lon="-7.763563971966505">
        <ele>100.59999999999999</ele>
        <time>2025-04-30T10:32:20Z</time>
      </trkpt>
      <trkpt lat="43.718567015603185" lon="-7.763717025518417">
        <ele>102.04000000000001</ele>
        <time>2025-04-30T10:32:21Z</time>
      </trkpt>
      <trkpt lat="43.718405999243259" lon="-7.763881981372833">
        <ele>103.48</ele>
        <time>2025-04-30T10:32:22Z</time>
      </trkpt>
      <trkpt lat="43.718255963176489" lon="-7.764061018824577">
        <ele>104.92</ele>
        <time>2025-04-30T10:32:23Z</time>
      </trkpt>
      <trkpt lat="43.717165980488062" lon="-7.765491977334023">
        <ele>115.5</ele>
        <time>2025-04-30T10:32:31Z</time>
      </trkpt>
      <trkpt lat="43.716515963897109" lon="-7.766854036599398">
        <ele>123.67</ele>
        <time>2025-04-30T10:32:38Z</time>
      </trkpt>
      <trkpt lat="43.715900983661413" lon="-7.76784997433424">
        <ele>130.40000000000001</ele>
        <time>2025-04-30T10:32:45Z</time>
      </trkpt>
      <trkpt lat="43.715050974860787" lon="-7.768556987866759">
        <ele>138.56999999999999</ele>
        <time>2025-04-30T10:32:54Z</time>
      </trkpt>
      <trkpt lat="43.713870970532298" lon="-7.769179008901119">
        <ele>145.30000000000001</ele>
        <time>2025-04-30T10:33:05Z</time>
      </trkpt>
      <trkpt lat="43.713769968599081" lon="-7.769324015825987">
        <ele>145.78</ele>
        <time>2025-04-30T10:33:06Z</time>
      </trkpt>
      <trkpt lat="43.713683970272541" lon="-7.769449995830655">
        <ele>146.25999999999999</ele>
        <time>2025-04-30T10:33:07Z</time>
      </trkpt>
      <trkpt lat="43.713606018573046" lon="-7.769593996927142">
        <ele>146.74000000000001</ele>
        <time>2025-04-30T10:33:08Z</time>
      </trkpt>
      <trkpt lat="43.713520020246506" lon="-7.769756019115448">
        <ele>146.74000000000001</ele>
        <time>2025-04-30T10:33:09Z</time>
      </trkpt>
      <trkpt lat="43.7134650349617" lon="-7.769937990233302">
        <ele>147.22</ele>
        <time>2025-04-30T10:33:10Z</time>
      </trkpt>
      <trkpt lat="43.713436033576727" lon="-7.770150974392891">
        <ele>147.22</ele>
        <time>2025-04-30T10:33:11Z</time>
      </trkpt>
      <trkpt lat="43.713417006656528" lon="-7.770392959937453">
        <ele>146.74000000000001</ele>
        <time>2025-04-30T10:33:12Z</time>
      </trkpt>
      <trkpt lat="43.713397979736328" lon="-7.770638968795538">
        <ele>145.78</ele>
        <time>2025-04-30T10:33:13Z</time>
      </trkpt>
      <trkpt lat="43.713451959192753" lon="-7.772894036024809">
        <ele>136.63999999999999</ele>
        <time>2025-04-30T10:33:21Z</time>
      </trkpt>
      <trkpt lat="43.714006002992392" lon="-7.775312969461083">
        <ele>125.59</ele>
        <time>2025-04-30T10:33:29Z</time>
      </trkpt>
      <trkpt lat="43.714170958846807" lon="-7.776160966604948">
        <ele>121.26000000000001</ele>
        <time>2025-04-30T10:33:32Z</time>
      </trkpt>
      <trkpt lat="43.714179005473852" lon="-7.77642298489809">
        <ele>119.81999999999999</ele>
        <time>2025-04-30T10:33:33Z</time>
      </trkpt>
      <trkpt lat="43.714184034615755" lon="-7.776659019291401">
        <ele>118.86</ele>
        <time>2025-04-30T10:33:34Z</time>
      </trkpt>
      <trkpt lat="43.714126031845808" lon="-7.77689203619957">
        <ele>117.90000000000001</ele>
        <time>2025-04-30T10:33:35Z</time>
      </trkpt>
      <trkpt lat="43.714050007984042" lon="-7.777123963460326">
        <ele>116.94</ele>
        <time>2025-04-30T10:33:36Z</time>
      </trkpt>
      <trkpt lat="43.713939031586051" lon="-7.777330996468663">
        <ele>115.98</ele>
        <time>2025-04-30T10:33:37Z</time>
      </trkpt>
      <trkpt lat="43.713822020217776" lon="-7.77754096314311">
        <ele>115.01000000000001</ele>
        <time>2025-04-30T10:33:38Z</time>
      </trkpt>
      <trkpt lat="43.713538041338325" lon="-7.77820497751236">
        <ele>112.61</ele>
        <time>2025-04-30T10:33:41Z</time>
      </trkpt>
      <trkpt lat="43.713483978062868" lon="-7.778459032997489">
        <ele>112.13</ele>
        <time>2025-04-30T10:33:42Z</time>
      </trkpt>
      <trkpt lat="43.713463023304939" lon="-7.778701018542051">
        <ele>111.65000000000001</ele>
        <time>2025-04-30T10:33:43Z</time>
      </trkpt>
      <trkpt lat="43.713468974456191" lon="-7.778968987986445">
        <ele>110.69</ele>
        <time>2025-04-30T10:33:44Z</time>
      </trkpt>
      <trkpt lat="43.713503004983068" lon="-7.779250033199787">
        <ele>110.20999999999999</ele>
        <time>2025-04-30T10:33:45Z</time>
      </trkpt>
      <trkpt lat="43.713768040761352" lon="-7.781031019985676">
        <ele>105.88</ele>
        <time>2025-04-30T10:33:51Z</time>
      </trkpt>
      <trkpt lat="43.713820008561015" lon="-7.781320028007031">
        <ele>104.92</ele>
        <time>2025-04-30T10:33:52Z</time>
      </trkpt>
      <trkpt lat="43.713923022150993" lon="-7.781600989401341">
        <ele>103.95999999999999</ele>
        <time>2025-04-30T10:33:53Z</time>
      </trkpt>
      <trkpt lat="43.7143250182271" lon="-7.78269600123167">
        <ele>100.59999999999999</ele>
        <time>2025-04-30T10:33:57Z</time>
      </trkpt>
      <trkpt lat="43.714428031817079" lon="-7.78297696262598">
        <ele>99.629999999999995</ele>
        <time>2025-04-30T10:33:58Z</time>
      </trkpt>
      <trkpt lat="43.714457033202052" lon="-7.783255996182561">
        <ele>98.670000000000002</ele>
        <time>2025-04-30T10:33:59Z</time>
      </trkpt>
      <trkpt lat="43.714492991566658" lon="-7.78359898366034">
        <ele>97.709999999999994</ele>
        <time>2025-04-30T10:34:00Z</time>
      </trkpt>
      <trkpt lat="43.714446974918246" lon="-7.78383300639689">
        <ele>96.269999999999996</ele>
        <time>2025-04-30T10:34:01Z</time>
      </trkpt>
      <trkpt lat="43.714395007118583" lon="-7.784102987498045">
        <ele>94.829999999999998</ele>
        <time>2025-04-30T10:34:02Z</time>
      </trkpt>
      <trkpt lat="43.71430397965014" lon="-7.784368023276329">
        <ele>93.870000000000005</ele>
        <time>2025-04-30T10:34:03Z</time>
      </trkpt>
      <trkpt lat="43.714182022958994" lon="-7.784580001607537">
        <ele>91.939999999999998</ele>
        <time>2025-04-30T10:34:04Z</time>
      </trkpt>
      <trkpt lat="43.714055037125945" lon="-7.78480002656579">
        <ele>90.5</ele>
        <time>2025-04-30T10:34:05Z</time>
      </trkpt>
      <trkpt lat="43.713940037414432" lon="-7.785024996846914">
        <ele>89.540000000000006</ele>
        <time>2025-04-30T10:34:06Z</time>
      </trkpt>
      <trkpt lat="43.713862001895905" lon="-7.78527301736176">
        <ele>88.099999999999994</ele>
        <time>2025-04-30T10:34:07Z</time>
      </trkpt>
      <trkpt lat="43.713796036317945" lon="-7.785537969321013">
        <ele>86.659999999999997</ele>
        <time>2025-04-30T10:34:08Z</time>
      </trkpt>
      <trkpt lat="43.713641976937652" lon="-7.786896005272865">
        <ele>79.450000000000003</ele>
        <time>2025-04-30T10:34:13Z</time>
      </trkpt>
      <trkpt lat="43.713652035221457" lon="-7.787155006080866">
        <ele>78</ele>
        <time>2025-04-30T10:34:14Z</time>
      </trkpt>
      <trkpt lat="43.713696040213108" lon="-7.787411995232105">
        <ele>76.560000000000002</ele>
        <time>2025-04-30T10:34:15Z</time>
      </trkpt>
      <trkpt lat="43.713763011619449" lon="-7.787653980776668">
        <ele>74.640000000000001</ele>
        <time>2025-04-30T10:34:16Z</time>
      </trkpt>
      <trkpt lat="43.713891003280878" lon="-7.787866964936256">
        <ele>72.719999999999999</ele>
        <time>2025-04-30T10:34:17Z</time>
      </trkpt>
      <trkpt lat="43.714016983285546" lon="-7.788077015429735">
        <ele>71.269999999999996</ele>
        <time>2025-04-30T10:34:18Z</time>
      </trkpt>
      <trkpt lat="43.714177999645472" lon="-7.78823995962739">
        <ele>69.829999999999998</ele>
        <time>2025-04-30T10:34:19Z</time>
      </trkpt>
      <trkpt lat="43.714343039318919" lon="-7.788406005129218">
        <ele>67.909999999999997</ele>
        <time>2025-04-30T10:34:20Z</time>
      </trkpt>
      <trkpt lat="43.714507995173335" lon="-7.788570960983634">
        <ele>66.469999999999999</ele>
        <time>2025-04-30T10:34:21Z</time>
      </trkpt>
      <trkpt lat="43.714837990701199" lon="-7.788901040330529">
        <ele>63.100000000000001</ele>
        <time>2025-04-30T10:34:23Z</time>
      </trkpt>
      <trkpt lat="43.714971011504531" lon="-7.789104972034693">
        <ele>61.659999999999997</ele>
        <time>2025-04-30T10:34:24Z</time>
      </trkpt>
      <trkpt lat="43.715071007609367" lon="-7.789342012256384">
        <ele>60.219999999999999</ele>
        <time>2025-04-30T10:34:25Z</time>
      </trkpt>
      <trkpt lat="43.715137979015708" lon="-7.789599001407623">
        <ele>58.780000000000001</ele>
        <time>2025-04-30T10:34:26Z</time>
      </trkpt>
      <trkpt lat="43.715200005099177" lon="-7.789858002215624">
        <ele>57.82</ele>
        <time>2025-04-30T10:34:27Z</time>
      </trkpt>
      <trkpt lat="43.7151850014925" lon="-7.790124965831637">
        <ele>56.859999999999999</ele>
        <time>2025-04-30T10:34:28Z</time>
      </trkpt>
      <trkpt lat="43.715132027864456" lon="-7.790362006053329">
        <ele>55.890000000000001</ele>
        <time>2025-04-30T10:34:29Z</time>
      </trkpt>
      <trkpt lat="43.715047035366297" lon="-7.790597034618259">
        <ele>54.93</ele>
        <time>2025-04-30T10:34:30Z</time>
      </trkpt>
      <trkpt lat="43.714960031211376" lon="-7.790804989635944">
        <ele>53.969999999999999</ele>
        <time>2025-04-30T10:34:31Z</time>
      </trkpt>
      <trkpt lat="43.714829022064805" lon="-7.791001964360476">
        <ele>53.490000000000002</ele>
        <time>2025-04-30T10:34:32Z</time>
      </trkpt>
      <trkpt lat="43.71469197794795" lon="-7.791206985712051">
        <ele>53.009999999999998</ele>
        <time>2025-04-30T10:34:33Z</time>
      </trkpt>
      <trkpt lat="43.714545965194702" lon="-7.791399015113711">
        <ele>52.049999999999997</ele>
        <time>2025-04-30T10:34:34Z</time>
      </trkpt>
      <trkpt lat="43.713017022237182" lon="-7.792974980548024">
        <ele>43.399999999999999</ele>
        <time>2025-04-30T10:34:43Z</time>
      </trkpt>
      <trkpt lat="43.712561968713999" lon="-7.793490970507264">
        <ele>39.549999999999997</ele>
        <time>2025-04-30T10:34:46Z</time>
      </trkpt>
      <trkpt lat="43.712363988161087" lon="-7.793589038774371">
        <ele>39.07</ele>
        <time>2025-04-30T10:34:47Z</time>
      </trkpt>
      <trkpt lat="43.712177993729711" lon="-7.793682999908924">
        <ele>38.109999999999999</ele>
        <time>2025-04-30T10:34:48Z</time>
      </trkpt>
      <trkpt lat="43.711590003222227" lon="-7.793959015980363">
        <ele>34.740000000000002</ele>
        <time>2025-04-30T10:34:51Z</time>
      </trkpt>
      <trkpt lat="43.711406020447612" lon="-7.794089019298554">
        <ele>33.299999999999997</ele>
        <time>2025-04-30T10:34:52Z</time>
      </trkpt>
      <trkpt lat="43.71127400547266" lon="-7.794221034273505">
        <ele>31.859999999999999</ele>
        <time>2025-04-30T10:34:53Z</time>
      </trkpt>
      <trkpt lat="43.711136961355805" lon="-7.794465031474829">
        <ele>30.420000000000002</ele>
        <time>2025-04-30T10:34:54Z</time>
      </trkpt>
      <trkpt lat="43.711055992171168" lon="-7.794693019241095">
        <ele>28.98</ele>
        <time>2025-04-30T10:34:55Z</time>
      </trkpt>
      <trkpt lat="43.710981979966164" lon="-7.79519802890718">
        <ele>26.57</ele>
        <time>2025-04-30T10:34:57Z</time>
      </trkpt>
      <trkpt lat="43.711008969694376" lon="-7.795447977259755">
        <ele>25.609999999999999</ele>
        <time>2025-04-30T10:34:58Z</time>
      </trkpt>
      <trkpt lat="43.71103797107935" lon="-7.795722987502813">
        <ele>24.649999999999999</ele>
        <time>2025-04-30T10:34:59Z</time>
      </trkpt>
      <trkpt lat="43.711103014647961" lon="-7.795959021896124">
        <ele>23.690000000000001</ele>
        <time>2025-04-30T10:35:00Z</time>
      </trkpt>
      <trkpt lat="43.711214996874332" lon="-7.796121966093779">
        <ele>22.73</ele>
        <time>2025-04-30T10:35:01Z</time>
      </trkpt>
      <trkpt lat="43.711341982707381" lon="-7.796306032687426">
        <ele>21.289999999999999</ele>
        <time>2025-04-30T10:35:02Z</time>
      </trkpt>
      <trkpt lat="43.711591009050608" lon="-7.796693025156856">
        <ele>18.879999999999999</ele>
        <time>2025-04-30T10:35:04Z</time>
      </trkpt>
      <trkpt lat="43.711662003770471" lon="-7.796927969902754">
        <ele>17.920000000000002</ele>
        <time>2025-04-30T10:35:05Z</time>
      </trkpt>
      <trkpt lat="43.711671978235245" lon="-7.797166015952826">
        <ele>16.960000000000001</ele>
        <time>2025-04-30T10:35:06Z</time>
      </trkpt>
      <trkpt lat="43.711669966578484" lon="-7.797414036467671">
        <ele>16</ele>
        <time>2025-04-30T10:35:07Z</time>
      </trkpt>
      <trkpt lat="43.71161799877882" lon="-7.797588966786861">
        <ele>15.039999999999999</ele>
        <time>2025-04-30T10:35:08Z</time>
      </trkpt>
      <trkpt lat="43.711508028209209" lon="-7.797808991745114">
        <ele>14.08</ele>
        <time>2025-04-30T10:35:09Z</time>
      </trkpt>
      <trkpt lat="43.71140300296247" lon="-7.797975959256291">
        <ele>13.119999999999999</ele>
        <time>2025-04-30T10:35:10Z</time>
      </trkpt>
      <trkpt lat="43.711277022957802" lon="-7.798101017251611">
        <ele>12.15</ele>
        <time>2025-04-30T10:35:11Z</time>
      </trkpt>
      <trkpt lat="43.711156994104385" lon="-7.798216016963124">
        <ele>11.67</ele>
        <time>2025-04-30T10:35:12Z</time>
      </trkpt>
      <trkpt lat="43.710941998288035" lon="-7.798427995294333">
        <ele>10.710000000000001</ele>
        <time>2025-04-30T10:35:14Z</time>
      </trkpt>
      <trkpt lat="43.710864968597889" lon="-7.798545006662607">
        <ele>10.23</ele>
        <time>2025-04-30T10:35:15Z</time>
      </trkpt>
      <trkpt lat="43.710807971656322" lon="-7.79868196696043">
        <ele>9.75</ele>
        <time>2025-04-30T10:35:16Z</time>
      </trkpt>
      <trkpt lat="43.710764972493052" lon="-7.798819011077285">
        <ele>9.27</ele>
        <time>2025-04-30T10:35:17Z</time>
      </trkpt>
      <trkpt lat="43.710733037441969" lon="-7.798962006345391">
        <ele>9.27</ele>
        <time>2025-04-30T10:35:18Z</time>
      </trkpt>
      <trkpt lat="43.71069498360157" lon="-7.799134002998471">
        <ele>9.27</ele>
        <time>2025-04-30T10:35:19Z</time>
      </trkpt>
      <trkpt lat="43.71069498360157" lon="-7.799263000488281">
        <ele>9.27</ele>
        <time>2025-04-30T10:35:20Z</time>
      </trkpt>
      <trkpt lat="43.71069498360157" lon="-7.799422005191445">
        <ele>9.75</ele>
        <time>2025-04-30T10:35:21Z</time>
      </trkpt>
      <trkpt lat="43.71073697693646" lon="-7.800239995121956">
        <ele>10.710000000000001</ele>
        <time>2025-04-30T10:35:26Z</time>
      </trkpt>
      <trkpt lat="43.710850970819592" lon="-7.801036024466157">
        <ele>11.19</ele>
        <time>2025-04-30T10:35:31Z</time>
      </trkpt>
      <trkpt lat="43.710859017446637" lon="-7.801358979195356">
        <ele>12.15</ele>
        <time>2025-04-30T10:35:33Z</time>
      </trkpt>
      <trkpt lat="43.710849964991212" lon="-7.801522007212043">
        <ele>12.630000000000001</ele>
        <time>2025-04-30T10:35:34Z</time>
      </trkpt>
      <trkpt lat="43.710832027718425" lon="-7.801686963066459">
        <ele>13.119999999999999</ele>
        <time>2025-04-30T10:35:35Z</time>
      </trkpt>
      <trkpt lat="43.710797997191548" lon="-7.801846973598003">
        <ele>13.6</ele>
        <time>2025-04-30T10:35:36Z</time>
      </trkpt>
      <trkpt lat="43.710763966664672" lon="-7.802007989957929">
        <ele>14.08</ele>
        <time>2025-04-30T10:35:37Z</time>
      </trkpt>
      <trkpt lat="43.710700012743473" lon="-7.80215903185308">
        <ele>15.039999999999999</ele>
        <time>2025-04-30T10:35:38Z</time>
      </trkpt>
      <trkpt lat="43.71047998778522" lon="-7.802534960210323">
        <ele>17.440000000000001</ele>
        <time>2025-04-30T10:35:41Z</time>
      </trkpt>
      <trkpt lat="43.710402036085725" lon="-7.802651971578598">
        <ele>17.920000000000002</ele>
        <time>2025-04-30T10:35:42Z</time>
      </trkpt>
      <trkpt lat="43.710322994738817" lon="-7.802768982946873">
        <ele>18.879999999999999</ele>
        <time>2025-04-30T10:35:43Z</time>
      </trkpt>
      <trkpt lat="43.709882022812963" lon="-7.803316991776228">
        <ele>21.77</ele>
        <time>2025-04-30T10:35:48Z</time>
      </trkpt>
      <trkpt lat="43.709809016436338" lon="-7.803418999537826">
        <ele>22.73</ele>
        <time>2025-04-30T10:35:49Z</time>
      </trkpt>
      <trkpt lat="43.709084987640381" lon="-7.804798996075988">
        <ele>28.98</ele>
        <time>2025-04-30T10:36:01Z</time>
      </trkpt>
      <trkpt lat="43.708873009309173" lon="-7.805195041000843">
        <ele>29.940000000000001</ele>
        <time>2025-04-30T10:36:04Z</time>
      </trkpt>
      <trkpt lat="43.708777958527207" lon="-7.805316997691989">
        <ele>29.940000000000001</ele>
        <time>2025-04-30T10:36:05Z</time>
      </trkpt>
      <trkpt lat="43.708686009049416" lon="-7.805435014888644">
        <ele>29.940000000000001</ele>
        <time>2025-04-30T10:36:06Z</time>
      </trkpt>
      <trkpt lat="43.70785997249186" lon="-7.806300027295947">
        <ele>32.82</ele>
        <time>2025-04-30T10:36:14Z</time>
      </trkpt>
      <trkpt lat="43.707451019436121" lon="-7.806826997548342">
        <ele>36.189999999999998</ele>
        <time>2025-04-30T10:36:18Z</time>
      </trkpt>
      <trkpt lat="43.707380024716258" lon="-7.806993965059519">
        <ele>37.149999999999999</ele>
        <time>2025-04-30T10:36:19Z</time>
      </trkpt>
      <trkpt lat="43.707311041653156" lon="-7.807170990854502">
        <ele>38.109999999999999</ele>
        <time>2025-04-30T10:36:20Z</time>
      </trkpt>
      <trkpt lat="43.707241974771023" lon="-7.807349022477865">
        <ele>39.07</ele>
        <time>2025-04-30T10:36:21Z</time>
      </trkpt>
      <trkpt lat="43.707157988101244" lon="-7.807510038837791">
        <ele>40.030000000000001</ele>
        <time>2025-04-30T10:36:22Z</time>
      </trkpt>
      <trkpt lat="43.707072995603085" lon="-7.807672983035445">
        <ele>41.469999999999999</ele>
        <time>2025-04-30T10:36:23Z</time>
      </trkpt>
      <trkpt lat="43.706982973963022" lon="-7.807845985516906">
        <ele>42.439999999999998</ele>
        <time>2025-04-30T10:36:24Z</time>
      </trkpt>
      <trkpt lat="43.706865040585399" lon="-7.807921003550291">
        <ele>43.880000000000003</ele>
        <time>2025-04-30T10:36:25Z</time>
      </trkpt>
      <trkpt lat="43.706747023388743" lon="-7.807996021583676">
        <ele>44.840000000000003</ele>
        <time>2025-04-30T10:36:26Z</time>
      </trkpt>
      <trkpt lat="43.706616014242172" lon="-7.807996021583676">
        <ele>45.799999999999997</ele>
        <time>2025-04-30T10:36:27Z</time>
      </trkpt>
      <trkpt lat="43.706505037844181" lon="-7.807979006320238">
        <ele>46.759999999999998</ele>
        <time>2025-04-30T10:36:28Z</time>
      </trkpt>
      <trkpt lat="43.706401018425822" lon="-7.807909017428756">
        <ele>47.719999999999999</ele>
        <time>2025-04-30T10:36:29Z</time>
      </trkpt>
      <trkpt lat="43.706298004835844" lon="-7.807840034365654">
        <ele>48.68</ele>
        <time>2025-04-30T10:36:30Z</time>
      </trkpt>
      <trkpt lat="43.706200020387769" lon="-7.807765016332269">
        <ele>49.649999999999999</ele>
        <time>2025-04-30T10:36:31Z</time>
      </trkpt>
      <trkpt lat="43.706114022061229" lon="-7.807674994692206">
        <ele>50.609999999999999</ele>
        <time>2025-04-30T10:36:32Z</time>
      </trkpt>
      <trkpt lat="43.705902965739369" lon="-7.807567035779357">
        <ele>52.049999999999997</ele>
        <time>2025-04-30T10:36:34Z</time>
      </trkpt>
      <trkpt lat="43.705807998776436" lon="-7.807539962232113">
        <ele>53.009999999999998</ele>
        <time>2025-04-30T10:36:35Z</time>
      </trkpt>
      <trkpt lat="43.705713031813502" lon="-7.807513978332281">
        <ele>53.969999999999999</ele>
        <time>2025-04-30T10:36:36Z</time>
      </trkpt>
      <trkpt lat="43.705628961324692" lon="-7.807515989989042">
        <ele>54.93</ele>
        <time>2025-04-30T10:36:37Z</time>
      </trkpt>
      <trkpt lat="43.705500969663262" lon="-7.807518001645804">
        <ele>55.890000000000001</ele>
        <time>2025-04-30T10:36:38Z</time>
      </trkpt>
      <trkpt lat="43.705441961064935" lon="-7.807443989440799">
        <ele>56.859999999999999</ele>
        <time>2025-04-30T10:36:39Z</time>
      </trkpt>
      <trkpt lat="43.705438021570444" lon="-7.80729403719306">
        <ele>57.82</ele>
        <time>2025-04-30T10:36:40Z</time>
      </trkpt>
      <trkpt lat="43.705438021570444" lon="-7.807223964482546">
        <ele>58.299999999999997</ele>
        <time>2025-04-30T10:36:41Z</time>
      </trkpt>
      <trkpt lat="43.705420000478625" lon="-7.806978961452842">
        <ele>58.780000000000001</ele>
        <time>2025-04-30T10:36:42Z</time>
      </trkpt>
      <trkpt lat="43.705364009365439" lon="-7.806830015033484">
        <ele>59.259999999999998</ele>
        <time>2025-04-30T10:36:43Z</time>
      </trkpt>
      <trkpt lat="43.705312041565776" lon="-7.806674027815461">
        <ele>59.740000000000002</ele>
        <time>2025-04-30T10:36:44Z</time>
      </trkpt>
      <trkpt lat="43.705262001603842" lon="-7.806524997577071">
        <ele>60.219999999999999</ele>
        <time>2025-04-30T10:36:45Z</time>
      </trkpt>
      <trkpt lat="43.705223025754094" lon="-7.806407986208797">
        <ele>60.219999999999999</ele>
        <time>2025-04-30T10:36:46Z</time>
      </trkpt>
      <trkpt lat="43.705126969143748" lon="-7.80628502368927">
        <ele>60.700000000000003</ele>
        <time>2025-04-30T10:36:47Z</time>
      </trkpt>
      <trkpt lat="43.705044994130731" lon="-7.80617899261415">
        <ele>61.18</ele>
        <time>2025-04-30T10:36:48Z</time>
      </trkpt>
      <trkpt lat="43.704966958612204" lon="-7.806078996509314">
        <ele>61.659999999999997</ele>
        <time>2025-04-30T10:36:49Z</time>
      </trkpt>
      <trkpt lat="43.704861011356115" lon="-7.806034991517663">
        <ele>61.659999999999997</ele>
        <time>2025-04-30T10:36:50Z</time>
      </trkpt>
      <trkpt lat="43.704753974452615" lon="-7.806072039529681">
        <ele>62.619999999999997</ele>
        <time>2025-04-30T10:36:51Z</time>
      </trkpt>
      <trkpt lat="43.70463696308434" lon="-7.806126018986106">
        <ele>63.100000000000001</ele>
        <time>2025-04-30T10:36:52Z</time>
      </trkpt>
      <trkpt lat="43.70347497984767" lon="-7.806556010618806">
        <ele>67.909999999999997</ele>
        <time>2025-04-30T10:37:00Z</time>
      </trkpt>
      <trkpt lat="43.702106969431043" lon="-7.806489961221814">
        <ele>75.120000000000005</ele>
        <time>2025-04-30T10:37:08Z</time>
      </trkpt>
      <trkpt lat="43.700499990954995" lon="-7.806084025651217">
        <ele>73.200000000000003</ele>
        <time>2025-04-30T10:37:16Z</time>
      </trkpt>
      <trkpt lat="43.698793016374111" lon="-7.80506000854075">
        <ele>65.989999999999995</ele>
        <time>2025-04-30T10:37:24Z</time>
      </trkpt>
      <trkpt lat="43.697210010141134" lon="-7.804654994979501">
        <ele>55.409999999999997</ele>
        <time>2025-04-30T10:37:31Z</time>
      </trkpt>
      <trkpt lat="43.695652987807989" lon="-7.804927993565798">
        <ele>45.799999999999997</ele>
        <time>2025-04-30T10:37:38Z</time>
      </trkpt>
      <trkpt lat="43.694204008206725" lon="-7.805829970166087">
        <ele>36.670000000000002</ele>
        <time>2025-04-30T10:37:46Z</time>
      </trkpt>
      <trkpt lat="43.693105978891253" lon="-7.807136038318276">
        <ele>33.780000000000001</ele>
        <time>2025-04-30T10:37:53Z</time>
      </trkpt>
      <trkpt lat="43.692296035587788" lon="-7.808991959318519">
        <ele>32.340000000000003</ele>
        <time>2025-04-30T10:38:00Z</time>
      </trkpt>
      <trkpt lat="43.691861014813185" lon="-7.811145018786192">
        <ele>34.259999999999998</ele>
        <time>2025-04-30T10:38:07Z</time>
      </trkpt>
      <trkpt lat="43.691919017583132" lon="-7.813351973891258">
        <ele>40.509999999999998</ele>
        <time>2025-04-30T10:38:14Z</time>
      </trkpt>
      <trkpt lat="43.691964028403163" lon="-7.813949016854167">
        <ele>42.439999999999998</ele>
        <time>2025-04-30T10:38:16Z</time>
      </trkpt>
      <trkpt lat="43.691812986508012" lon="-7.816326040774584">
        <ele>50.130000000000003</ele>
        <time>2025-04-30T10:38:24Z</time>
      </trkpt>
      <trkpt lat="43.691112007945776" lon="-7.818227978423238">
        <ele>53.490000000000002</ele>
        <time>2025-04-30T10:38:31Z</time>
      </trkpt>
      <trkpt lat="43.689883975312114" lon="-7.819786006584764">
        <ele>55.409999999999997</ele>
        <time>2025-04-30T10:38:38Z</time>
      </trkpt>
      <trkpt lat="43.688595006242394" lon="-7.820524033159018">
        <ele>56.859999999999999</ele>
        <time>2025-04-30T10:38:44Z</time>
      </trkpt>
      <trkpt lat="43.68705902248621" lon="-7.820753026753664">
        <ele>58.299999999999997</ele>
        <time>2025-04-30T10:38:51Z</time>
      </trkpt>
      <trkpt lat="43.684708988294005" lon="-7.820764007046819">
        <ele>59.259999999999998</ele>
        <time>2025-04-30T10:39:01Z</time>
      </trkpt>
      <trkpt lat="43.682025019079447" lon="-7.820927035063505">
        <ele>64.069999999999993</ele>
        <time>2025-04-30T10:39:13Z</time>
      </trkpt>
      <trkpt lat="43.680647034198046" lon="-7.821704037487507">
        <ele>71.269999999999996</ele>
        <time>2025-04-30T10:39:20Z</time>
      </trkpt>
      <trkpt lat="43.679529977962375" lon="-7.822996024042368">
        <ele>80.409999999999997</ele>
        <time>2025-04-30T10:39:27Z</time>
      </trkpt>
      <trkpt lat="43.678178982809186" lon="-7.825459968298674">
        <ele>92.900000000000006</ele>
        <time>2025-04-30T10:39:37Z</time>
      </trkpt>
      <trkpt lat="43.676577033475041" lon="-7.828446021303535">
        <ele>108.29000000000001</ele>
        <time>2025-04-30T10:39:49Z</time>
      </trkpt>
      <trkpt lat="43.674984974786639" lon="-7.83073796890676">
        <ele>120.78</ele>
        <time>2025-04-30T10:39:59Z</time>
      </trkpt>
      <trkpt lat="43.673398029059172" lon="-7.831835998222232">
        <ele>124.63</ele>
        <time>2025-04-30T10:40:06Z</time>
      </trkpt>
      <trkpt lat="43.671917030587792" lon="-7.832156019285321">
        <ele>125.59</ele>
        <time>2025-04-30T10:40:12Z</time>
      </trkpt>
      <trkpt lat="43.669637991115451" lon="-7.832087958231568">
        <ele>122.70999999999999</ele>
        <time>2025-04-30T10:40:22Z</time>
      </trkpt>
      <trkpt lat="43.667000960558653" lon="-7.8319619782269">
        <ele>119.81999999999999</ele>
        <time>2025-04-30T10:40:34Z</time>
      </trkpt>
      <trkpt lat="43.664000993594527" lon="-7.831878997385502">
        <ele>116.45999999999999</ele>
        <time>2025-04-30T10:40:47Z</time>
      </trkpt>
      <trkpt lat="43.661770988255739" lon="-7.832433041185141">
        <ele>112.61</ele>
        <time>2025-04-30T10:40:57Z</time>
      </trkpt>
      <trkpt lat="43.660295018926263" lon="-7.83327198587358">
        <ele>109.25</ele>
        <time>2025-04-30T10:41:04Z</time>
      </trkpt>
      <trkpt lat="43.658811002969742" lon="-7.83473496325314">
        <ele>102.52</ele>
        <time>2025-04-30T10:41:12Z</time>
      </trkpt>
      <trkpt lat="43.657848006114364" lon="-7.836456019431353">
        <ele>91.459999999999994</ele>
        <time>2025-04-30T10:41:19Z</time>
      </trkpt>
      <trkpt lat="43.65708701312542" lon="-7.83902800641954">
        <ele>76.560000000000002</ele>
        <time>2025-04-30T10:41:28Z</time>
      </trkpt>
      <trkpt lat="43.656479995697737" lon="-7.841846002265811">
        <ele>60.700000000000003</ele>
        <time>2025-04-30T10:41:38Z</time>
      </trkpt>
      <trkpt lat="43.65605503320694" lon="-7.844040971249342">
        <ele>47.719999999999999</ele>
        <time>2025-04-30T10:41:46Z</time>
      </trkpt>
      <trkpt lat="43.65577700547874" lon="-7.845472013577819">
        <ele>35.229999999999997</ele>
        <time>2025-04-30T10:41:52Z</time>
      </trkpt>
      <trkpt lat="43.655700981616974" lon="-7.845793040469289">
        <ele>31.859999999999999</ele>
        <time>2025-04-30T10:41:54Z</time>
      </trkpt>
      <trkpt lat="43.655621018260717" lon="-7.846074001863599">
        <ele>28.02</ele>
        <time>2025-04-30T10:41:57Z</time>
      </trkpt>
      <trkpt lat="43.655592016875744" lon="-7.846169974654913">
        <ele>26.57</ele>
        <time>2025-04-30T10:41:58Z</time>
      </trkpt>
      <trkpt lat="43.655602997168899" lon="-7.846250021830201">
        <ele>25.129999999999999</ele>
        <time>2025-04-30T10:41:59Z</time>
      </trkpt>
      <trkpt lat="43.655683966353536" lon="-7.846469962969422">
        <ele>23.690000000000001</ele>
        <time>2025-04-30T10:42:00Z</time>
      </trkpt>
      <trkpt lat="43.655771976336837" lon="-7.846469962969422">
        <ele>22.25</ele>
        <time>2025-04-30T10:42:01Z</time>
      </trkpt>
      <trkpt lat="43.655877001583576" lon="-7.846475997939706">
        <ele>20.809999999999999</ele>
        <time>2025-04-30T10:42:02Z</time>
      </trkpt>
      <trkpt lat="43.65599200129509" lon="-7.846491001546383">
        <ele>19.84</ele>
        <time>2025-04-30T10:42:03Z</time>
      </trkpt>
      <trkpt lat="43.656810997053981" lon="-7.846414977684617">
        <ele>15.52</ele>
        <time>2025-04-30T10:42:09Z</time>
      </trkpt>
      <trkpt lat="43.65695801563561" lon="-7.846351023763418">
        <ele>15.039999999999999</ele>
        <time>2025-04-30T10:42:10Z</time>
      </trkpt>
      <trkpt lat="43.657957976683974" lon="-7.845838973298669">
        <ele>12.630000000000001</ele>
        <time>2025-04-30T10:42:18Z</time>
      </trkpt>
      <trkpt lat="43.658416969701648" lon="-7.845593970268965">
        <ele>13.119999999999999</ele>
        <time>2025-04-30T10:42:24Z</time>
      </trkpt>
      <trkpt lat="43.658515037968755" lon="-7.845508977770805">
        <ele>13.119999999999999</ele>
        <time>2025-04-30T10:42:25Z</time>
      </trkpt>
      <trkpt lat="43.658526018261909" lon="-7.84543395973742">
        <ele>13.6</ele>
        <time>2025-04-30T10:42:26Z</time>
      </trkpt>
      <trkpt lat="43.658530963584781" lon="-7.845396995544434">
        <ele>13.6</ele>
        <time>2025-04-30T10:42:27Z</time>
      </trkpt>
      <trkpt lat="43.658530963584781" lon="-7.845396995544434">
        <ele>13.6</ele>
        <time>2025-04-30T10:42:28Z</time>
      </trkpt>
      <trkpt lat="43.658540016040206" lon="-7.845208989456296">
        <ele>13.6</ele>
        <time>2025-04-30T10:42:29Z</time>
      </trkpt>
      <trkpt lat="43.658525012433529" lon="-7.84515199251473">
        <ele>13.119999999999999</ele>
        <time>2025-04-30T10:42:30Z</time>
      </trkpt>
      <trkpt lat="43.658510008826852" lon="-7.845097007229924">
        <ele>13.6</ele>
        <time>2025-04-30T10:42:31Z</time>
      </trkpt>
      <trkpt lat="43.658497016876936" lon="-7.845057025551796">
        <ele>13.6</ele>
        <time>2025-04-30T10:42:32Z</time>
      </trkpt>
      <trkpt lat="43.658488970249891" lon="-7.845029029995203">
        <ele>13.6</ele>
        <time>2025-04-30T10:42:33Z</time>
      </trkpt>
      <trkpt lat="43.658308004960418" lon="-7.844861978664994">
        <ele>13.6</ele>
        <time>2025-04-30T10:42:34Z</time>
      </trkpt>
      <trkpt lat="43.658252013847232" lon="-7.844925010576844">
        <ele>13.6</ele>
        <time>2025-04-30T10:42:35Z</time>
      </trkpt>
      <trkpt lat="43.658258970826864" lon="-7.8449169639498">
        <ele>13.6</ele>
        <time>2025-04-30T10:42:36Z</time>
      </trkpt>
      <trkpt lat="43.658252013847232" lon="-7.844925010576844">
        <ele>13.6</ele>
        <time>2025-04-30T10:42:37Z</time>
      </trkpt>
      <trkpt lat="43.658252013847232" lon="-7.844925010576844">
        <ele>9.75</ele>
        <time>2025-04-30T10:42:46Z</time>
      </trkpt>
      <trkpt lat="43.657765025272965" lon="-7.843621037900448">
        <ele>23.210000000000001</ele>
        <time>2025-04-30T10:46:38Z</time>
      </trkpt>
      <trkpt lat="43.657941967248917" lon="-7.845168001949787">
        <ele>-8.029999999999999</ele>
        <time>2025-04-30T10:46:58Z</time>
      </trkpt>
      <trkpt lat="43.658107006922364" lon="-7.845436977222562">
        <ele>-0.82</ele>
        <time>2025-04-30T10:47:40Z</time>
      </trkpt>
      <trkpt lat="43.65814003162086" lon="-7.845471007749438">
        <ele>2.54</ele>
        <time>2025-04-30T10:48:04Z</time>
      </trkpt>
      <trkpt lat="43.658308004960418" lon="-7.845290964469314">
        <ele>7.35</ele>
        <time>2025-04-30T10:48:12Z</time>
      </trkpt>
      <trkpt lat="43.658254025503993" lon="-7.844922998920083">
        <ele>9.27</ele>
        <time>2025-04-30T10:48:16Z</time>
      </trkpt>
      <trkpt lat="43.658277997747064" lon="-7.844896009191871">
        <ele>10.23</ele>
        <time>2025-04-30T10:48:17Z</time>
      </trkpt>
      <trkpt lat="43.658252013847232" lon="-7.844925010576844">
        <ele>10.710000000000001</ele>
        <time>2025-04-30T10:48:18Z</time>
      </trkpt>
      <trkpt lat="43.658498022705317" lon="-7.845059959217906">
        <ele>11.19</ele>
        <time>2025-04-30T10:48:19Z</time>
      </trkpt>
      <trkpt lat="43.658510008826852" lon="-7.845097007229924">
        <ele>11.67</ele>
        <time>2025-04-30T10:48:20Z</time>
      </trkpt>
      <trkpt lat="43.658533981069922" lon="-7.845184011384845">
        <ele>11.67</ele>
        <time>2025-04-30T10:48:21Z</time>
      </trkpt>
      <trkpt lat="43.658552002161741" lon="-7.845249976962805">
        <ele>12.15</ele>
        <time>2025-04-30T10:48:22Z</time>
      </trkpt>
      <trkpt lat="43.658680999651551" lon="-7.845333041623235">
        <ele>13.119999999999999</ele>
        <time>2025-04-30T10:48:23Z</time>
      </trkpt>
      <trkpt lat="43.658687034621835" lon="-7.845342010259628">
        <ele>13.119999999999999</ele>
        <time>2025-04-30T10:48:24Z</time>
      </trkpt>
      <trkpt lat="43.658733973279595" lon="-7.84547695890069">
        <ele>13.6</ele>
        <time>2025-04-30T10:48:25Z</time>
      </trkpt>
      <trkpt lat="43.658708995208144" lon="-7.845551976934075">
        <ele>14.08</ele>
        <time>2025-04-30T10:48:26Z</time>
      </trkpt>
      <trkpt lat="43.658684017136693" lon="-7.845623977482319">
        <ele>14.56</ele>
        <time>2025-04-30T10:48:27Z</time>
      </trkpt>
      <trkpt lat="43.658595001325011" lon="-7.845633029937744">
        <ele>15.039999999999999</ele>
        <time>2025-04-30T10:48:28Z</time>
      </trkpt>
      <trkpt lat="43.658573962748051" lon="-7.845633029937744">
        <ele>16</ele>
        <time>2025-04-30T10:48:29Z</time>
      </trkpt>
      <trkpt lat="43.658415963873267" lon="-7.845593970268965">
        <ele>16</ele>
        <time>2025-04-30T10:48:30Z</time>
      </trkpt>
      <trkpt lat="43.658331977203488" lon="-7.845636969432235">
        <ele>16.960000000000001</ele>
        <time>2025-04-30T10:48:31Z</time>
      </trkpt>
      <trkpt lat="43.658240027725697" lon="-7.845686003565788">
        <ele>16.960000000000001</ele>
        <time>2025-04-30T10:48:32Z</time>
      </trkpt>
      <trkpt lat="43.658146988600492" lon="-7.845736965537071">
        <ele>17.440000000000001</ele>
        <time>2025-04-30T10:48:33Z</time>
      </trkpt>
      <trkpt lat="43.657135963439941" lon="-7.846263013780117">
        <ele>20.809999999999999</ele>
        <time>2025-04-30T10:48:43Z</time>
      </trkpt>
      <trkpt lat="43.656540010124445" lon="-7.846477003768086">
        <ele>21.77</ele>
        <time>2025-04-30T10:48:48Z</time>
      </trkpt>
      <trkpt lat="43.65640003234148" lon="-7.84648303873837">
        <ele>21.77</ele>
        <time>2025-04-30T10:48:49Z</time>
      </trkpt>
      <trkpt lat="43.655736017972231" lon="-7.846469962969422">
        <ele>23.210000000000001</ele>
        <time>2025-04-30T10:48:54Z</time>
      </trkpt>
      <trkpt lat="43.655592016875744" lon="-7.846619999036193">
        <ele>23.210000000000001</ele>
        <time>2025-04-30T10:48:55Z</time>
      </trkpt>
      <trkpt lat="43.655358999967575" lon="-7.846830971539021">
        <ele>22.73</ele>
        <time>2025-04-30T10:48:58Z</time>
      </trkpt>
      <trkpt lat="43.655276019126177" lon="-7.84684999845922">
        <ele>23.210000000000001</ele>
        <time>2025-04-30T10:48:59Z</time>
      </trkpt>
      <trkpt lat="43.655206030234694" lon="-7.846819991245866">
        <ele>23.210000000000001</ele>
        <time>2025-04-30T10:49:00Z</time>
      </trkpt>
      <trkpt lat="43.655136041343212" lon="-7.84678403288126">
        <ele>23.690000000000001</ele>
        <time>2025-04-30T10:49:01Z</time>
      </trkpt>
      <trkpt lat="43.6550900246948" lon="-7.846703985705972">
        <ele>24.170000000000002</ele>
        <time>2025-04-30T10:49:02Z</time>
      </trkpt>
      <trkpt lat="43.655035961419344" lon="-7.84661203622818">
        <ele>24.170000000000002</ele>
        <time>2025-04-30T10:49:03Z</time>
      </trkpt>
      <trkpt lat="43.654991034418344" lon="-7.846534000709653">
        <ele>24.649999999999999</ele>
        <time>2025-04-30T10:49:04Z</time>
      </trkpt>
      <trkpt lat="43.65487796254456" lon="-7.846450014039874">
        <ele>25.129999999999999</ele>
        <time>2025-04-30T10:49:05Z</time>
      </trkpt>
      <trkpt lat="43.65478802472353" lon="-7.846382958814502">
        <ele>25.129999999999999</ele>
        <time>2025-04-30T10:49:06Z</time>
      </trkpt>
      <trkpt lat="43.654733039438725" lon="-7.846340965479612">
        <ele>25.609999999999999</ele>
        <time>2025-04-30T10:49:07Z</time>
      </trkpt>
      <trkpt lat="43.654609993100166" lon="-7.84633400849998">
        <ele>26.09</ele>
        <time>2025-04-30T10:49:08Z</time>
      </trkpt>
      <trkpt lat="43.654517037793994" lon="-7.846328979358077">
        <ele>26.57</ele>
        <time>2025-04-30T10:49:09Z</time>
      </trkpt>
      <trkpt lat="43.654430033639073" lon="-7.846324034035206">
        <ele>27.050000000000001</ele>
        <time>2025-04-30T10:49:10Z</time>
      </trkpt>
      <trkpt lat="43.654344035312533" lon="-7.84633400849998">
        <ele>27.530000000000001</ele>
        <time>2025-04-30T10:49:11Z</time>
      </trkpt>
      <trkpt lat="43.654269017279148" lon="-7.846378013491631">
        <ele>28.5</ele>
        <time>2025-04-30T10:49:12Z</time>
      </trkpt>
      <trkpt lat="43.653458990156651" lon="-7.846612958237529">
        <ele>36.189999999999998</ele>
        <time>2025-04-30T10:49:22Z</time>
      </trkpt>
      <trkpt lat="43.653120025992393" lon="-7.846568031236529">
        <ele>39.549999999999997</ele>
        <time>2025-04-30T10:49:26Z</time>
      </trkpt>
      <trkpt lat="43.653022041544318" lon="-7.846555039286614">
        <ele>40.030000000000001</ele>
        <time>2025-04-30T10:49:27Z</time>
      </trkpt>
      <trkpt lat="43.651939015835524" lon="-7.845995966345072">
        <ele>50.130000000000003</ele>
        <time>2025-04-30T10:49:38Z</time>
      </trkpt>
      <trkpt lat="43.651084983721375" lon="-7.845353996381164">
        <ele>56.859999999999999</ele>
        <time>2025-04-30T10:49:44Z</time>
      </trkpt>
      <trkpt lat="43.650941988453269" lon="-7.845283001661301">
        <ele>57.82</ele>
        <time>2025-04-30T10:49:45Z</time>
      </trkpt>
      <trkpt lat="43.65021301433444" lon="-7.845057025551796">
        <ele>63.579999999999998</ele>
        <time>2025-04-30T10:49:49Z</time>
      </trkpt>
      <trkpt lat="43.650028025731444" lon="-7.845072029158473">
        <ele>65.030000000000001</ele>
        <time>2025-04-30T10:49:50Z</time>
      </trkpt>
      <trkpt lat="43.649838007986546" lon="-7.845088038593531">
        <ele>66.469999999999999</ele>
        <time>2025-04-30T10:49:51Z</time>
      </trkpt>
      <trkpt lat="43.649644972756505" lon="-7.845103964209557">
        <ele>67.909999999999997</ele>
        <time>2025-04-30T10:49:52Z</time>
      </trkpt>
      <trkpt lat="43.649444980546832" lon="-7.84512902610004">
        <ele>69.349999999999994</ele>
        <time>2025-04-30T10:49:53Z</time>
      </trkpt>
      <trkpt lat="43.64924699999392" lon="-7.845201026648283">
        <ele>70.790000000000006</ele>
        <time>2025-04-30T10:49:54Z</time>
      </trkpt>
      <trkpt lat="43.649038961157203" lon="-7.845318960025907">
        <ele>72.719999999999999</ele>
        <time>2025-04-30T10:49:55Z</time>
      </trkpt>
      <trkpt lat="43.648872999474406" lon="-7.845490034669638">
        <ele>74.640000000000001</ele>
        <time>2025-04-30T10:49:56Z</time>
      </trkpt>
      <trkpt lat="43.64870703779161" lon="-7.845660019665957">
        <ele>76.560000000000002</ele>
        <time>2025-04-30T10:49:57Z</time>
      </trkpt>
      <trkpt lat="43.648539986461401" lon="-7.845832016319037">
        <ele>78.480000000000004</ele>
        <time>2025-04-30T10:49:58Z</time>
      </trkpt>
      <trkpt lat="43.648217031732202" lon="-7.846152959391475">
        <ele>82.810000000000002</ele>
        <time>2025-04-30T10:50:00Z</time>
      </trkpt>
      <trkpt lat="43.647877983748913" lon="-7.846384970471263">
        <ele>86.659999999999997</ele>
        <time>2025-04-30T10:50:02Z</time>
      </trkpt>
      <trkpt lat="43.64769802428782" lon="-7.846458982676268">
        <ele>88.099999999999994</ele>
        <time>2025-04-30T10:50:03Z</time>
      </trkpt>
      <trkpt lat="43.647515969350934" lon="-7.846514973789454">
        <ele>89.540000000000006</ele>
        <time>2025-04-30T10:50:04Z</time>
      </trkpt>
      <trkpt lat="43.647324023768306" lon="-7.846523020416498">
        <ele>90.980000000000004</ele>
        <time>2025-04-30T10:50:05Z</time>
      </trkpt>
      <trkpt lat="43.647125037387013" lon="-7.846530983224511">
        <ele>92.900000000000006</ele>
        <time>2025-04-30T10:50:06Z</time>
      </trkpt>
      <trkpt lat="43.646925967186689" lon="-7.846508016809821">
        <ele>94.349999999999994</ele>
        <time>2025-04-30T10:50:07Z</time>
      </trkpt>
      <trkpt lat="43.646723963320255" lon="-7.846465017646551">
        <ele>95.790000000000006</ele>
        <time>2025-04-30T10:50:08Z</time>
      </trkpt>
      <trkpt lat="43.645075997337699" lon="-7.846005018800497">
        <ele>108.29000000000001</ele>
        <time>2025-04-30T10:50:16Z</time>
      </trkpt>
      <trkpt lat="43.644509967416525" lon="-7.845641998574138">
        <ele>113.56999999999999</ele>
        <time>2025-04-30T10:50:19Z</time>
      </trkpt>
      <trkpt lat="43.644329002127051" lon="-7.845476036891341">
        <ele>115.5</ele>
        <time>2025-04-30T10:50:20Z</time>
      </trkpt>
      <trkpt lat="43.644162034615874" lon="-7.845295993611217">
        <ele>116.94</ele>
        <time>2025-04-30T10:50:21Z</time>
      </trkpt>
      <trkpt lat="43.644019961357117" lon="-7.845061970874667">
        <ele>118.86</ele>
        <time>2025-04-30T10:50:22Z</time>
      </trkpt>
      <trkpt lat="43.643884006887674" lon="-7.84482803195715">
        <ele>120.78</ele>
        <time>2025-04-30T10:50:23Z</time>
      </trkpt>
      <trkpt lat="43.643776969984174" lon="-7.844559978693724">
        <ele>122.22</ele>
        <time>2025-04-30T10:50:24Z</time>
      </trkpt>
      <trkpt lat="43.643670016899705" lon="-7.84429301507771">
        <ele>124.15000000000001</ele>
        <time>2025-04-30T10:50:25Z</time>
      </trkpt>
      <trkpt lat="43.643576977774501" lon="-7.844022028148174">
        <ele>126.06999999999999</ele>
        <time>2025-04-30T10:50:26Z</time>
      </trkpt>
      <trkpt lat="43.643506988883018" lon="-7.843722039833665">
        <ele>127.98999999999999</ele>
        <time>2025-04-30T10:50:27Z</time>
      </trkpt>
      <trkpt lat="43.643458038568497" lon="-7.843419034034014">
        <ele>129.43000000000001</ele>
        <time>2025-04-30T10:50:28Z</time>
      </trkpt>
      <trkpt lat="43.643432976678014" lon="-7.843102030456066">
        <ele>131.36000000000001</ele>
        <time>2025-04-30T10:50:29Z</time>
      </trkpt>
      <trkpt lat="43.643333986401558" lon="-7.842160994186997">
        <ele>136.63999999999999</ele>
        <time>2025-04-30T10:50:32Z</time>
      </trkpt>
      <trkpt lat="43.643266009166837" lon="-7.841867040842772">
        <ele>138.56999999999999</ele>
        <time>2025-04-30T10:50:33Z</time>
      </trkpt>
      <trkpt lat="43.643160983920097" lon="-7.841605022549629">
        <ele>140.49000000000001</ele>
        <time>2025-04-30T10:50:34Z</time>
      </trkpt>
      <trkpt lat="43.643027041107416" lon="-7.84137099981308">
        <ele>142.88999999999999</ele>
        <time>2025-04-30T10:50:35Z</time>
      </trkpt>
      <trkpt lat="43.642888991162181" lon="-7.841170001775026">
        <ele>145.30000000000001</ele>
        <time>2025-04-30T10:50:36Z</time>
      </trkpt>
      <trkpt lat="43.642688998952508" lon="-7.841013008728623">
        <ele>147.69999999999999</ele>
        <time>2025-04-30T10:50:37Z</time>
      </trkpt>
      <trkpt lat="43.642495963722467" lon="-7.840903038159013">
        <ele>150.58000000000001</ele>
        <time>2025-04-30T10:50:38Z</time>
      </trkpt>
      <trkpt lat="43.642287002876401" lon="-7.840833971276879">
        <ele>152.99000000000001</ele>
        <time>2025-04-30T10:50:39Z</time>
      </trkpt>
      <trkpt lat="43.642074018716812" lon="-7.840761970728636">
        <ele>155.38999999999999</ele>
        <time>2025-04-30T10:50:40Z</time>
      </trkpt>
      <trkpt lat="43.64185499958694" lon="-7.840689970180392">
        <ele>157.78999999999999</ele>
        <time>2025-04-30T10:50:41Z</time>
      </trkpt>
      <trkpt lat="43.641422996297479" lon="-7.84053398296237">
        <ele>162.59999999999999</ele>
        <time>2025-04-30T10:50:43Z</time>
      </trkpt>
      <trkpt lat="43.641214035451412" lon="-7.840424012392759">
        <ele>164.52000000000001</ele>
        <time>2025-04-30T10:50:44Z</time>
      </trkpt>
      <trkpt lat="43.641019994392991" lon="-7.840277999639511">
        <ele>166.44999999999999</ele>
        <time>2025-04-30T10:50:45Z</time>
      </trkpt>
      <trkpt lat="43.640825031325221" lon="-7.840131986886263">
        <ele>168.37</ele>
        <time>2025-04-30T10:50:46Z</time>
      </trkpt>
      <trkpt lat="43.640640964731574" lon="-7.839960996061564">
        <ele>170.28999999999999</ele>
        <time>2025-04-30T10:50:47Z</time>
      </trkpt>
      <trkpt lat="43.640468968078494" lon="-7.839764021337032">
        <ele>172.21000000000001</ele>
        <time>2025-04-30T10:50:48Z</time>
      </trkpt>
      <trkpt lat="43.640292026102543" lon="-7.839561011642218">
        <ele>174.13999999999999</ele>
        <time>2025-04-30T10:50:49Z</time>
      </trkpt>
      <trkpt lat="43.640144001692533" lon="-7.839331012219191">
        <ele>176.06</ele>
        <time>2025-04-30T10:50:50Z</time>
      </trkpt>
      <trkpt lat="43.639992959797382" lon="-7.83909497782588">
        <ele>177.97999999999999</ele>
        <time>2025-04-30T10:50:51Z</time>
      </trkpt>
      <trkpt lat="43.639540001749992" lon="-7.838434986770153">
        <ele>183.75</ele>
        <time>2025-04-30T10:50:54Z</time>
      </trkpt>
      <trkpt lat="43.639377979561687" lon="-7.838271036744118">
        <ele>185.66999999999999</ele>
        <time>2025-04-30T10:50:55Z</time>
      </trkpt>
      <trkpt lat="43.639206988736987" lon="-7.838131980970502">
        <ele>187.59</ele>
        <time>2025-04-30T10:50:56Z</time>
      </trkpt>
      <trkpt lat="43.639022000133991" lon="-7.838067021220923">
        <ele>189.03999999999999</ele>
        <time>2025-04-30T10:50:57Z</time>
      </trkpt>
      <trkpt lat="43.638830976560712" lon="-7.838028967380524">
        <ele>190.96000000000001</ele>
        <time>2025-04-30T10:50:58Z</time>
      </trkpt>
      <trkpt lat="43.6386329960078" lon="-7.838015975430608">
        <ele>192.88</ele>
        <time>2025-04-30T10:50:59Z</time>
      </trkpt>
      <trkpt lat="43.638428980484605" lon="-7.838046988472343">
        <ele>194.80000000000001</ele>
        <time>2025-04-30T10:51:00Z</time>
      </trkpt>
      <trkpt lat="43.638223959133029" lon="-7.838090993463993">
        <ele>196.25</ele>
        <time>2025-04-30T10:51:01Z</time>
      </trkpt>
      <trkpt lat="43.637814000248909" lon="-7.838156959041953">
        <ele>200.09</ele>
        <time>2025-04-30T10:51:03Z</time>
      </trkpt>
      <trkpt lat="43.637604033574462" lon="-7.838132986798883">
        <ele>202.00999999999999</ele>
        <time>2025-04-30T10:51:04Z</time>
      </trkpt>
      <trkpt lat="43.637404041364789" lon="-7.838059980422258">
        <ele>203.94</ele>
        <time>2025-04-30T10:51:05Z</time>
      </trkpt>
      <trkpt lat="43.637205976992846" lon="-7.83795696683228">
        <ele>205.38</ele>
        <time>2025-04-30T10:51:06Z</time>
      </trkpt>
      <trkpt lat="43.637032974511385" lon="-7.837838027626276">
        <ele>206.81999999999999</ele>
        <time>2025-04-30T10:51:07Z</time>
      </trkpt>
      <trkpt lat="43.636876987293363" lon="-7.837649015709758">
        <ele>208.74000000000001</ele>
        <time>2025-04-30T10:51:08Z</time>
      </trkpt>
      <trkpt lat="43.636738015338778" lon="-7.837445000186563">
        <ele>210.19</ele>
        <time>2025-04-30T10:51:09Z</time>
      </trkpt>
      <trkpt lat="43.636629972606897" lon="-7.837198991328478">
        <ele>212.11000000000001</ele>
        <time>2025-04-30T10:51:10Z</time>
      </trkpt>
      <trkpt lat="43.636544980108738" lon="-7.836930016055703">
        <ele>213.55000000000001</ele>
        <time>2025-04-30T10:51:11Z</time>
      </trkpt>
      <trkpt lat="43.636489994823933" lon="-7.83664301969111">
        <ele>214.99000000000001</ele>
        <time>2025-04-30T10:51:12Z</time>
      </trkpt>
      <trkpt lat="43.636453030630946" lon="-7.8363430313766">
        <ele>216.91</ele>
        <time>2025-04-30T10:51:13Z</time>
      </trkpt>
      <trkpt lat="43.636384969577193" lon="-7.835740959271789">
        <ele>220.75999999999999</ele>
        <time>2025-04-30T10:51:15Z</time>
      </trkpt>
      <trkpt lat="43.636319003999233" lon="-7.835447005927563">
        <ele>222.68000000000001</ele>
        <time>2025-04-30T10:51:16Z</time>
      </trkpt>
      <trkpt lat="43.636216996237636" lon="-7.835179958492518">
        <ele>224.12</ele>
        <time>2025-04-30T10:51:17Z</time>
      </trkpt>
      <trkpt lat="43.636089004576206" lon="-7.834933027625084">
        <ele>226.05000000000001</ele>
        <time>2025-04-30T10:51:18Z</time>
      </trkpt>
      <trkpt lat="43.635935029014945" lon="-7.834719037637115">
        <ele>227.97</ele>
        <time>2025-04-30T10:51:19Z</time>
      </trkpt>
      <trkpt lat="43.635741993784904" lon="-7.834551986306906">
        <ele>229.88999999999999</ele>
        <time>2025-04-30T10:51:20Z</time>
      </trkpt>
      <trkpt lat="43.63553898409009" lon="-7.834395999088883">
        <ele>232.30000000000001</ele>
        <time>2025-04-30T10:51:21Z</time>
      </trkpt>
      <trkpt lat="43.635332034900784" lon="-7.834246968850493">
        <ele>234.69999999999999</ele>
        <time>2025-04-30T10:51:22Z</time>
      </trkpt>
      <trkpt lat="43.634951999410987" lon="-7.833908004686236">
        <ele>239.02000000000001</ele>
        <time>2025-04-30T10:51:24Z</time>
      </trkpt>
      <trkpt lat="43.634784026071429" lon="-7.833716981112957">
        <ele>241.43000000000001</ele>
        <time>2025-04-30T10:51:25Z</time>
      </trkpt>
      <trkpt lat="43.634649999439716" lon="-7.833454962819815">
        <ele>243.34999999999999</ele>
        <time>2025-04-30T10:51:26Z</time>
      </trkpt>
      <trkpt lat="43.634513039141893" lon="-7.833191016688943">
        <ele>245.75</ele>
        <time>2025-04-30T10:51:27Z</time>
      </trkpt>
      <trkpt lat="43.634407008066773" lon="-7.832932015880942">
        <ele>247.68000000000001</ele>
        <time>2025-04-30T10:51:28Z</time>
      </trkpt>
      <trkpt lat="43.634331990033388" lon="-7.832645019516349">
        <ele>249.59999999999999</ele>
        <time>2025-04-30T10:51:29Z</time>
      </trkpt>
      <trkpt lat="43.634291002526879" lon="-7.832366991788149">
        <ele>251.52000000000001</ele>
        <time>2025-04-30T10:51:30Z</time>
      </trkpt>
      <trkpt lat="43.634267030283809" lon="-7.832075972110033">
        <ele>253.44</ele>
        <time>2025-04-30T10:51:31Z</time>
      </trkpt>
      <trkpt lat="43.634283039718866" lon="-7.831808002665639">
        <ele>255.37</ele>
        <time>2025-04-30T10:51:32Z</time>
      </trkpt>
      <trkpt lat="43.634307011961937" lon="-7.831550007686019">
        <ele>257.29000000000002</ele>
        <time>2025-04-30T10:51:33Z</time>
      </trkpt>
      <trkpt lat="43.634369038045406" lon="-7.831292012706399">
        <ele>259.20999999999998</ele>
        <time>2025-04-30T10:51:34Z</time>
      </trkpt>
      <trkpt lat="43.634433997794986" lon="-7.831022031605244">
        <ele>261.13999999999999</ele>
        <time>2025-04-30T10:51:35Z</time>
      </trkpt>
      <trkpt lat="43.634518990293145" lon="-7.83078096807003">
        <ele>263.06</ele>
        <time>2025-04-30T10:51:36Z</time>
      </trkpt>
      <trkpt lat="43.634757958352566" lon="-7.830030033364892">
        <ele>267.38</ele>
        <time>2025-04-30T10:51:39Z</time>
      </trkpt>
      <trkpt lat="43.63478503189981" lon="-7.829755023121834">
        <ele>268.82999999999998</ele>
        <time>2025-04-30T10:51:40Z</time>
      </trkpt>
      <trkpt lat="43.634795006364584" lon="-7.829488981515169">
        <ele>270.26999999999998</ele>
        <time>2025-04-30T10:51:41Z</time>
      </trkpt>
      <trkpt lat="43.634760975837708" lon="-7.829228974878788">
        <ele>271.70999999999998</ele>
        <time>2025-04-30T10:51:42Z</time>
      </trkpt>
      <trkpt lat="43.634695010259748" lon="-7.828982966020703">
        <ele>272.67000000000002</ele>
        <time>2025-04-30T10:51:43Z</time>
      </trkpt>
      <trkpt lat="43.63459300249815" lon="-7.828750032931566">
        <ele>274.58999999999997</ele>
        <time>2025-04-30T10:51:44Z</time>
      </trkpt>
      <trkpt lat="43.634452018886805" lon="-7.82856403850019">
        <ele>276.04000000000002</ele>
        <time>2025-04-30T10:51:45Z</time>
      </trkpt>
      <trkpt lat="43.634285973384976" lon="-7.828389024361968">
        <ele>277.48000000000002</ele>
        <time>2025-04-30T10:51:46Z</time>
      </trkpt>
      <trkpt lat="43.634109031409025" lon="-7.828233037143946">
        <ele>278.92000000000002</ele>
        <time>2025-04-30T10:51:47Z</time>
      </trkpt>
      <trkpt lat="43.633914990350604" lon="-7.828124994412065">
        <ele>280.36000000000001</ele>
        <time>2025-04-30T10:51:48Z</time>
      </trkpt>
      <trkpt lat="43.633731007575989" lon="-7.828024998307228">
        <ele>281.80000000000001</ele>
        <time>2025-04-30T10:51:49Z</time>
      </trkpt>
      <trkpt lat="43.633575020357966" lon="-7.827917039394379">
        <ele>283.25</ele>
        <time>2025-04-30T10:51:50Z</time>
      </trkpt>
      <trkpt lat="43.633461026474833" lon="-7.827768009155989">
        <ele>284.20999999999998</ele>
        <time>2025-04-30T10:51:51Z</time>
      </trkpt>
      <trkpt lat="43.633387014269829" lon="-7.827585032209754">
        <ele>285.17000000000002</ele>
        <time>2025-04-30T10:51:52Z</time>
      </trkpt>
      <trkpt lat="43.633342003449798" lon="-7.82736299559474">
        <ele>286.13</ele>
        <time>2025-04-30T10:51:53Z</time>
      </trkpt>
      <trkpt lat="43.633294980973005" lon="-7.827111035585403">
        <ele>286.61000000000001</ele>
        <time>2025-04-30T10:51:54Z</time>
      </trkpt>
      <trkpt lat="43.632926009595394" lon="-7.825396014377475">
        <ele>287.56999999999999</ele>
        <time>2025-04-30T10:52:00Z</time>
      </trkpt>
      <trkpt lat="43.632484031841159" lon="-7.824331009760499">
        <ele>290.45999999999998</ele>
        <time>2025-04-30T10:52:04Z</time>
      </trkpt>
      <trkpt lat="43.632352016866207" lon="-7.82411802560091">
        <ele>291.89999999999998</ele>
        <time>2025-04-30T10:52:05Z</time>
      </trkpt>
      <trkpt lat="43.632209021598101" lon="-7.82392499037087">
        <ele>293.33999999999997</ele>
        <time>2025-04-30T10:52:06Z</time>
      </trkpt>
      <trkpt lat="43.632040964439511" lon="-7.823769003152847">
        <ele>294.77999999999997</ele>
        <time>2025-04-30T10:52:07Z</time>
      </trkpt>
      <trkpt lat="43.631851030513644" lon="-7.823651991784573">
        <ele>296.22000000000003</ele>
        <time>2025-04-30T10:52:08Z</time>
      </trkpt>
      <trkpt lat="43.631656989455223" lon="-7.823600023984909">
        <ele>297.67000000000002</ele>
        <time>2025-04-30T10:52:09Z</time>
      </trkpt>
      <trkpt lat="43.63145699724555" lon="-7.823574040085077">
        <ele>299.11000000000001</ele>
        <time>2025-04-30T10:52:10Z</time>
      </trkpt>
      <trkpt lat="43.631260022521019" lon="-7.823564987629652">
        <ele>300.55000000000001</ele>
        <time>2025-04-30T10:52:11Z</time>
      </trkpt>
      <trkpt lat="43.631063969805837" lon="-7.823649980127811">
        <ele>301.99000000000001</ele>
        <time>2025-04-30T10:52:12Z</time>
      </trkpt>
      <trkpt lat="43.630875963717699" lon="-7.823765985667706">
        <ele>303.43000000000001</ele>
        <time>2025-04-30T10:52:13Z</time>
      </trkpt>
      <trkpt lat="43.63068200647831" lon="-7.823895988985896">
        <ele>304.88</ele>
        <time>2025-04-30T10:52:14Z</time>
      </trkpt>
      <trkpt lat="43.630512021481991" lon="-7.824088018387556">
        <ele>306.31999999999999</ele>
        <time>2025-04-30T10:52:15Z</time>
      </trkpt>
      <trkpt lat="43.63016601651907" lon="-7.824476016685367">
        <ele>309.19999999999999</ele>
        <time>2025-04-30T10:52:17Z</time>
      </trkpt>
      <trkpt lat="43.62939303740859" lon="-7.825161991640925">
        <ele>315.44999999999999</ele>
        <time>2025-04-30T10:52:21Z</time>
      </trkpt>
      <trkpt lat="43.629178963601589" lon="-7.82529903575778">
        <ele>317.37</ele>
        <time>2025-04-30T10:52:22Z</time>
      </trkpt>
      <trkpt lat="43.627356989309192" lon="-7.826129011809826">
        <ele>329.87</ele>
        <time>2025-04-30T10:52:30Z</time>
      </trkpt>
      <trkpt lat="43.627156997099519" lon="-7.826283993199468">
        <ele>331.31</ele>
        <time>2025-04-30T10:52:31Z</time>
      </trkpt>
      <trkpt lat="43.626977037638426" lon="-7.826459007337689">
        <ele>332.75</ele>
        <time>2025-04-30T10:52:32Z</time>
      </trkpt>
      <trkpt lat="43.626824989914894" lon="-7.826683977618814">
        <ele>334.19999999999999</ele>
        <time>2025-04-30T10:52:33Z</time>
      </trkpt>
      <trkpt lat="43.626672020182014" lon="-7.826913977041841">
        <ele>335.16000000000003</ele>
        <time>2025-04-30T10:52:34Z</time>
      </trkpt>
      <trkpt lat="43.626526007428765" lon="-7.827142970636487">
        <ele>336.60000000000002</ele>
        <time>2025-04-30T10:52:35Z</time>
      </trkpt>
      <trkpt lat="43.626410001888871" lon="-7.82740599475801">
        <ele>338.04000000000002</ele>
        <time>2025-04-30T10:52:36Z</time>
      </trkpt>
      <trkpt lat="43.626296008005738" lon="-7.827666001394391">
        <ele>339</ele>
        <time>2025-04-30T10:52:37Z</time>
      </trkpt>
      <trkpt lat="43.625700976699591" lon="-7.828950025141239">
        <ele>345.25</ele>
        <time>2025-04-30T10:52:42Z</time>
      </trkpt>
      <trkpt lat="43.625070992857218" lon="-7.829836998134852">
        <ele>350.06</ele>
        <time>2025-04-30T10:52:46Z</time>
      </trkpt>
      <trkpt lat="43.624894972890615" lon="-7.830039002001286">
        <ele>351.01999999999998</ele>
        <time>2025-04-30T10:52:47Z</time>
      </trkpt>
      <trkpt lat="43.62408796325326" lon="-7.830701004713774">
        <ele>356.31</ele>
        <time>2025-04-30T10:52:51Z</time>
      </trkpt>
      <trkpt lat="43.623857963830233" lon="-7.830814998596907">
        <ele>357.26999999999998</ele>
        <time>2025-04-30T10:52:52Z</time>
      </trkpt>
      <trkpt lat="43.623626958578825" lon="-7.830873001366854">
        <ele>358.70999999999998</ele>
        <time>2025-04-30T10:52:53Z</time>
      </trkpt>
      <trkpt lat="43.623390002176166" lon="-7.830925974994898">
        <ele>359.67000000000002</ele>
        <time>2025-04-30T10:52:54Z</time>
      </trkpt>
      <trkpt lat="43.623152961954474" lon="-7.830964028835297">
        <ele>361.11000000000001</ele>
        <time>2025-04-30T10:52:55Z</time>
      </trkpt>
      <trkpt lat="43.620015028864145" lon="-7.831192016601563">
        <ele>372.17000000000002</ele>
        <time>2025-04-30T10:53:08Z</time>
      </trkpt>
      <trkpt lat="43.618061039596796" lon="-7.831192016601563">
        <ele>379.38</ele>
        <time>2025-04-30T10:53:17Z</time>
      </trkpt>
      <trkpt lat="43.615569015964866" lon="-7.831395026296377">
        <ele>392.36000000000001</ele>
        <time>2025-04-30T10:53:28Z</time>
      </trkpt>
      <trkpt lat="43.613360971212387" lon="-7.832209998741746">
        <ele>405.32999999999998</ele>
        <time>2025-04-30T10:53:38Z</time>
      </trkpt>
      <trkpt lat="43.611757010221481" lon="-7.832364980131388">
        <ele>411.57999999999998</ele>
        <time>2025-04-30T10:53:45Z</time>
      </trkpt>
      <trkpt lat="43.609532034024596" lon="-7.832230031490326">
        <ele>415.91000000000003</ele>
        <time>2025-04-30T10:53:55Z</time>
      </trkpt>
      <trkpt lat="43.609333969652653" lon="-7.832121988758445">
        <ele>415.91000000000003</ele>
        <time>2025-04-30T10:53:56Z</time>
      </trkpt>
      <trkpt lat="43.609144035726786" lon="-7.831987962126732">
        <ele>415.43000000000001</ele>
        <time>2025-04-30T10:53:57Z</time>
      </trkpt>
      <trkpt lat="43.60898301936686" lon="-7.831797022372484">
        <ele>415.43000000000001</ele>
        <time>2025-04-30T10:53:58Z</time>
      </trkpt>
      <trkpt lat="43.608857961371541" lon="-7.831556964665651">
        <ele>414.94999999999999</ele>
        <time>2025-04-30T10:53:59Z</time>
      </trkpt>
      <trkpt lat="43.608742039650679" lon="-7.831295030191541">
        <ele>414.47000000000003</ele>
        <time>2025-04-30T10:54:00Z</time>
      </trkpt>
      <trkpt lat="43.608645983040333" lon="-7.831019014120102">
        <ele>413.5</ele>
        <time>2025-04-30T10:54:01Z</time>
      </trkpt>
      <trkpt lat="43.608560990542173" lon="-7.830742998048663">
        <ele>413.01999999999998</ele>
        <time>2025-04-30T10:54:02Z</time>
      </trkpt>
      <trkpt lat="43.608479015529156" lon="-7.83047896809876">
        <ele>412.06</ele>
        <time>2025-04-30T10:54:03Z</time>
      </trkpt>
      <trkpt lat="43.608374996110797" lon="-7.830223990604281">
        <ele>411.10000000000002</ele>
        <time>2025-04-30T10:54:04Z</time>
      </trkpt>
      <trkpt lat="43.608239041641355" lon="-7.829993991181254">
        <ele>410.13999999999999</ele>
        <time>2025-04-30T10:54:05Z</time>
      </trkpt>
      <trkpt lat="43.608089005574584" lon="-7.829785030335188">
        <ele>409.18000000000001</ele>
        <time>2025-04-30T10:54:06Z</time>
      </trkpt>
      <trkpt lat="43.607905022799969" lon="-7.829614961519837">
        <ele>408.22000000000003</ele>
        <time>2025-04-30T10:54:07Z</time>
      </trkpt>
      <trkpt lat="43.607708970084786" lon="-7.829484036192298">
        <ele>407.25999999999999</ele>
        <time>2025-04-30T10:54:08Z</time>
      </trkpt>
      <trkpt lat="43.607502020895481" lon="-7.829355960711837">
        <ele>405.81</ele>
        <time>2025-04-30T10:54:09Z</time>
      </trkpt>
      <trkpt lat="43.607290964573622" lon="-7.829226041212678">
        <ele>404.85000000000002</ele>
        <time>2025-04-30T10:54:10Z</time>
      </trkpt>
      <trkpt lat="43.606701968237758" lon="-7.828711979091167">
        <ele>402.44999999999999</ele>
        <time>2025-04-30T10:54:13Z</time>
      </trkpt>
      <trkpt lat="43.606535000726581" lon="-7.828500000759959">
        <ele>401.97000000000003</ele>
        <time>2025-04-30T10:54:14Z</time>
      </trkpt>
      <trkpt lat="43.606390999630094" lon="-7.828254997730255">
        <ele>401.00999999999999</ele>
        <time>2025-04-30T10:54:15Z</time>
      </trkpt>
      <trkpt lat="43.605300011113286" lon="-7.826656987890601">
        <ele>401.97000000000003</ele>
        <time>2025-04-30T10:54:22Z</time>
      </trkpt>
      <trkpt lat="43.603640981018543" lon="-7.825225023552775">
        <ele>417.35000000000002</ele>
        <time>2025-04-30T10:54:31Z</time>
      </trkpt>
      <trkpt lat="43.600875036790967" lon="-7.822812041267753">
        <ele>440.89999999999998</ele>
        <time>2025-04-30T10:54:46Z</time>
      </trkpt>
      <trkpt lat="43.599350033327937" lon="-7.82113297842443">
        <ele>447.14999999999998</ele>
        <time>2025-04-30T10:54:54Z</time>
      </trkpt>
      <trkpt lat="43.598114959895611" lon="-7.819599006325007">
        <ele>447.63</ele>
        <time>2025-04-30T10:55:00Z</time>
      </trkpt>
      <trkpt lat="43.596772011369467" lon="-7.817750964313746">
        <ele>445.23000000000002</ele>
        <time>2025-04-30T10:55:08Z</time>
      </trkpt>
      <trkpt lat="43.59665198251605" lon="-7.817495986819267">
        <ele>445.23000000000002</ele>
        <time>2025-04-30T10:55:09Z</time>
      </trkpt>
      <trkpt lat="43.596559027209878" lon="-7.817214019596577">
        <ele>445.70999999999998</ele>
        <time>2025-04-30T10:55:10Z</time>
      </trkpt>
      <trkpt lat="43.59647998586297" lon="-7.816928029060364">
        <ele>446.67000000000002</ele>
        <time>2025-04-30T10:55:11Z</time>
      </trkpt>
      <trkpt lat="43.596412008628249" lon="-7.816630974411964">
        <ele>447.63</ele>
        <time>2025-04-30T10:55:12Z</time>
      </trkpt>
      <trkpt lat="43.596365991979837" lon="-7.816329980269074">
        <ele>448.58999999999997</ele>
        <time>2025-04-30T10:55:13Z</time>
      </trkpt>
      <trkpt lat="43.596331039443612" lon="-7.816024040803313">
        <ele>449.55000000000001</ele>
        <time>2025-04-30T10:55:14Z</time>
      </trkpt>
      <trkpt lat="43.596261972561479" lon="-7.815424986183643">
        <ele>452.92000000000002</ele>
        <time>2025-04-30T10:55:16Z</time>
      </trkpt>
      <trkpt lat="43.596165999770164" lon="-7.815156010910869">
        <ele>454.36000000000001</ele>
        <time>2025-04-30T10:55:17Z</time>
      </trkpt>
      <trkpt lat="43.596071032807231" lon="-7.814891980960965">
        <ele>456.27999999999997</ele>
        <time>2025-04-30T10:55:18Z</time>
      </trkpt>
      <trkpt lat="43.595928959548473" lon="-7.814675979316235">
        <ele>457.72000000000003</ele>
        <time>2025-04-30T10:55:19Z</time>
      </trkpt>
      <trkpt lat="43.595784958451986" lon="-7.814459977671504">
        <ele>459.64999999999998</ele>
        <time>2025-04-30T10:55:20Z</time>
      </trkpt>
      <trkpt lat="43.595628971233964" lon="-7.814259985461831">
        <ele>461.08999999999997</ele>
        <time>2025-04-30T10:55:21Z</time>
      </trkpt>
      <trkpt lat="43.595463009551167" lon="-7.814068961888552">
        <ele>463.00999999999999</ele>
        <time>2025-04-30T10:55:22Z</time>
      </trkpt>
      <trkpt lat="43.595028994604945" lon="-7.813419029116631">
        <ele>468.30000000000001</ele>
        <time>2025-04-30T10:55:25Z</time>
      </trkpt>
      <trkpt lat="43.594948025420308" lon="-7.813145024701953">
        <ele>470.22000000000003</ele>
        <time>2025-04-30T10:55:26Z</time>
      </trkpt>
      <trkpt lat="43.5948880109936" lon="-7.812866996973753">
        <ele>472.13999999999999</ele>
        <time>2025-04-30T10:55:27Z</time>
      </trkpt>
      <trkpt lat="43.594864038750529" lon="-7.812569020316005">
        <ele>474.55000000000001</ele>
        <time>2025-04-30T10:55:28Z</time>
      </trkpt>
      <trkpt lat="43.594844006001949" lon="-7.812257967889309">
        <ele>476.47000000000003</ele>
        <time>2025-04-30T10:55:29Z</time>
      </trkpt>
      <trkpt lat="43.594840988516808" lon="-7.811939036473632">
        <ele>478.38999999999999</ele>
        <time>2025-04-30T10:55:30Z</time>
      </trkpt>
      <trkpt lat="43.594800001010299" lon="-7.80875701457262">
        <ele>492.81</ele>
        <time>2025-04-30T10:55:40Z</time>
      </trkpt>
      <trkpt lat="43.594726994633675" lon="-7.805296964943409">
        <ele>498.57999999999998</ele>
        <time>2025-04-30T10:55:51Z</time>
      </trkpt>
      <trkpt lat="43.594380989670753" lon="-7.803187994286418">
        <ele>501.45999999999998</ele>
        <time>2025-04-30T10:55:58Z</time>
      </trkpt>
      <trkpt lat="43.593379016965628" lon="-7.800595974549651">
        <ele>499.54000000000002</ele>
        <time>2025-04-30T10:56:08Z</time>
      </trkpt>
      <trkpt lat="43.592444015666842" lon="-7.799245985224843">
        <ele>500.5</ele>
        <time>2025-04-30T10:56:14Z</time>
      </trkpt>
      <trkpt lat="43.589858030900359" lon="-7.796690007671714">
        <ele>520.21000000000004</ele>
        <time>2025-04-30T10:56:28Z</time>
      </trkpt>
      <trkpt lat="43.588926969096065" lon="-7.795853996649385">
        <ele>529.82000000000005</ele>
        <time>2025-04-30T10:56:33Z</time>
      </trkpt>
      <trkpt lat="43.588717002421618" lon="-7.795752994716167">
        <ele>531.75</ele>
        <time>2025-04-30T10:56:34Z</time>
      </trkpt>
      <trkpt lat="43.588502006605268" lon="-7.795678982511163">
        <ele>533.19000000000005</ele>
        <time>2025-04-30T10:56:35Z</time>
      </trkpt>
      <trkpt lat="43.588288016617298" lon="-7.795604970306158">
        <ele>535.11000000000001</ele>
        <time>2025-04-30T10:56:36Z</time>
      </trkpt>
      <trkpt lat="43.588064974173903" lon="-7.795593990013003">
        <ele>537.02999999999997</ele>
        <time>2025-04-30T10:56:37Z</time>
      </trkpt>
      <trkpt lat="43.587846960872412" lon="-7.795597007498145">
        <ele>538.96000000000004</ele>
        <time>2025-04-30T10:56:38Z</time>
      </trkpt>
      <trkpt lat="43.587625008076429" lon="-7.795614022761583">
        <ele>540.88</ele>
        <time>2025-04-30T10:56:39Z</time>
      </trkpt>
      <trkpt lat="43.587402971461415" lon="-7.795677976682782">
        <ele>542.79999999999995</ele>
        <time>2025-04-30T10:56:40Z</time>
      </trkpt>
      <trkpt lat="43.587184036150575" lon="-7.795744026079774">
        <ele>544.24000000000001</ele>
        <time>2025-04-30T10:56:41Z</time>
      </trkpt>
      <trkpt lat="43.586969962343574" lon="-7.795889033004642">
        <ele>546.16999999999996</ele>
        <time>2025-04-30T10:56:42Z</time>
      </trkpt>
      <trkpt lat="43.586763013154268" lon="-7.796029010787606">
        <ele>548.57000000000005</ele>
        <time>2025-04-30T10:56:43Z</time>
      </trkpt>
      <trkpt lat="43.586552040651441" lon="-7.796172006055713">
        <ele>550.49000000000001</ele>
        <time>2025-04-30T10:56:44Z</time>
      </trkpt>
      <trkpt lat="43.58504899777472" lon="-7.797011034563184">
        <ele>563.47000000000003</ele>
        <time>2025-04-30T10:56:51Z</time>
      </trkpt>
      <trkpt lat="43.584823021665215" lon="-7.797053027898073">
        <ele>564.90999999999997</ele>
        <time>2025-04-30T10:56:52Z</time>
      </trkpt>
      <trkpt lat="43.584590004757047" lon="-7.797053027898073">
        <ele>566.35000000000002</ele>
        <time>2025-04-30T10:56:53Z</time>
      </trkpt>
      <trkpt lat="43.582465024664998" lon="-7.796796960756183">
        <ele>573.55999999999995</ele>
        <time>2025-04-30T10:57:02Z</time>
      </trkpt>
      <trkpt lat="43.580898027867079" lon="-7.796701993793249">
        <ele>577.40999999999997</ele>
        <time>2025-04-30T10:57:09Z</time>
      </trkpt>
      <trkpt lat="43.580679008737206" lon="-7.796752033755183">
        <ele>577.88999999999999</ele>
        <time>2025-04-30T10:57:10Z</time>
      </trkpt>
      <trkpt lat="43.580465018749237" lon="-7.7968530356884">
        <ele>577.88999999999999</ele>
        <time>2025-04-30T10:57:11Z</time>
      </trkpt>
      <trkpt lat="43.580258991569281" lon="-7.796975998207927">
        <ele>578.85000000000002</ele>
        <time>2025-04-30T10:57:12Z</time>
      </trkpt>
      <trkpt lat="43.580055981874466" lon="-7.797119999304414">
        <ele>578.85000000000002</ele>
        <time>2025-04-30T10:57:13Z</time>
      </trkpt>
      <trkpt lat="43.578091012313962" lon="-7.798512987792492">
        <ele>584.13999999999999</ele>
        <time>2025-04-30T10:57:23Z</time>
      </trkpt>
      <trkpt lat="43.576228972524405" lon="-7.799802962690592">
        <ele>591.83000000000004</ele>
        <time>2025-04-30T10:57:32Z</time>
      </trkpt>
      <trkpt lat="43.576007019728422" lon="-7.799868006259203">
        <ele>592.30999999999995</ele>
        <time>2025-04-30T10:57:33Z</time>
      </trkpt>
      <trkpt lat="43.575783977285028" lon="-7.799932966008782">
        <ele>593.26999999999998</ele>
        <time>2025-04-30T10:57:34Z</time>
      </trkpt>
      <trkpt lat="43.573449030518532" lon="-7.800033967941999">
        <ele>591.35000000000002</ele>
        <time>2025-04-30T10:57:44Z</time>
      </trkpt>
      <trkpt lat="43.570770006626844" lon="-7.800172017887235">
        <ele>581.73000000000002</ele>
        <time>2025-04-30T10:57:56Z</time>
      </trkpt>
      <trkpt lat="43.569455975666642" lon="-7.800765037536621">
        <ele>577.88999999999999</ele>
        <time>2025-04-30T10:58:02Z</time>
      </trkpt>
      <trkpt lat="43.567679012194276" lon="-7.80179500579834">
        <ele>575.97000000000003</ele>
        <time>2025-04-30T10:58:11Z</time>
      </trkpt>
      <trkpt lat="43.566725989803672" lon="-7.802346032112837">
        <ele>575.97000000000003</ele>
        <time>2025-04-30T10:58:18Z</time>
      </trkpt>
      <trkpt lat="43.565399972721934" lon="-7.802888005971909">
        <ele>576.45000000000005</ele>
        <time>2025-04-30T10:58:25Z</time>
      </trkpt>
      <trkpt lat="43.56496000662446" lon="-7.802878031507134">
        <ele>575.97000000000003</ele>
        <time>2025-04-30T10:58:27Z</time>
      </trkpt>
      <trkpt lat="43.564746016636491" lon="-7.802852969616652">
        <ele>575.00999999999999</ele>
        <time>2025-04-30T10:58:28Z</time>
      </trkpt>
      <trkpt lat="43.564534960314631" lon="-7.80278398655355">
        <ele>574.03999999999996</ele>
        <time>2025-04-30T10:58:29Z</time>
      </trkpt>
      <trkpt lat="43.564312001690269" lon="-7.802696982398629">
        <ele>573.08000000000004</ele>
        <time>2025-04-30T10:58:30Z</time>
      </trkpt>
      <trkpt lat="43.564091976732016" lon="-7.80259002931416">
        <ele>571.63999999999999</ele>
        <time>2025-04-30T10:58:31Z</time>
      </trkpt>
      <trkpt lat="43.562088031321764" lon="-7.801727028563619">
        <ele>558.17999999999995</ele>
        <time>2025-04-30T10:58:40Z</time>
      </trkpt>
      <trkpt lat="43.561870018020272" lon="-7.801726022735238">
        <ele>556.74000000000001</ele>
        <time>2025-04-30T10:58:41Z</time>
      </trkpt>
      <trkpt lat="43.561648987233639" lon="-7.801758963614702">
        <ele>555.29999999999995</ele>
        <time>2025-04-30T10:58:42Z</time>
      </trkpt>
      <trkpt lat="43.561428962275386" lon="-7.801824007183313">
        <ele>554.34000000000003</ele>
        <time>2025-04-30T10:58:43Z</time>
      </trkpt>
      <trkpt lat="43.561204997822642" lon="-7.801887961104512">
        <ele>552.89999999999998</ele>
        <time>2025-04-30T10:58:44Z</time>
      </trkpt>
      <trkpt lat="43.55948100797832" lon="-7.802779041230679">
        <ele>545.20000000000005</ele>
        <time>2025-04-30T10:58:52Z</time>
      </trkpt>
      <trkpt lat="43.556640967726707" lon="-7.804477969184518">
        <ele>543.75999999999999</ele>
        <time>2025-04-30T10:59:06Z</time>
      </trkpt>
      <trkpt lat="43.555170027539134" lon="-7.805257989093661">
        <ele>547.61000000000001</ele>
        <time>2025-04-30T10:59:13Z</time>
      </trkpt>
      <trkpt lat="43.554956959560513" lon="-7.805293025448918">
        <ele>548.57000000000005</ele>
        <time>2025-04-30T10:59:14Z</time>
      </trkpt>
      <trkpt lat="43.554750010371208" lon="-7.8052750043571">
        <ele>549.52999999999997</ele>
        <time>2025-04-30T10:59:15Z</time>
      </trkpt>
      <trkpt lat="43.554543983191252" lon="-7.805225970223546">
        <ele>550.49000000000001</ele>
        <time>2025-04-30T10:59:16Z</time>
      </trkpt>
      <trkpt lat="43.554352037608624" lon="-7.805127985775471">
        <ele>551.92999999999995</ele>
        <time>2025-04-30T10:59:17Z</time>
      </trkpt>
      <trkpt lat="43.554161014035344" lon="-7.804992031306028">
        <ele>552.89999999999998</ele>
        <time>2025-04-30T10:59:18Z</time>
      </trkpt>
      <trkpt lat="43.554006032645702" lon="-7.804823974147439">
        <ele>554.34000000000003</ele>
        <time>2025-04-30T10:59:19Z</time>
      </trkpt>
      <trkpt lat="43.553851973265409" lon="-7.804626999422908">
        <ele>555.77999999999997</ele>
        <time>2025-04-30T10:59:20Z</time>
      </trkpt>
      <trkpt lat="43.553709983825684" lon="-7.804390965029597">
        <ele>557.22000000000003</ele>
        <time>2025-04-30T10:59:21Z</time>
      </trkpt>
      <trkpt lat="43.553578974679112" lon="-7.80416096560657">
        <ele>559.13999999999999</ele>
        <time>2025-04-30T10:59:22Z</time>
      </trkpt>
      <trkpt lat="43.552215993404388" lon="-7.801743037998676">
        <ele>574.52999999999997</ele>
        <time>2025-04-30T10:59:32Z</time>
      </trkpt>
      <trkpt lat="43.552051037549973" lon="-7.801558971405029">
        <ele>575.49000000000001</ele>
        <time>2025-04-30T10:59:33Z</time>
      </trkpt>
      <trkpt lat="43.551878035068512" lon="-7.801396027207375">
        <ele>576.92999999999995</ele>
        <time>2025-04-30T10:59:34Z</time>
      </trkpt>
      <trkpt lat="43.551689023151994" lon="-7.801264012232423">
        <ele>578.37</ele>
        <time>2025-04-30T10:59:35Z</time>
      </trkpt>
      <trkpt lat="43.551481990143657" lon="-7.801191005855799">
        <ele>579.80999999999995</ele>
        <time>2025-04-30T10:59:36Z</time>
      </trkpt>
      <trkpt lat="43.551275040954351" lon="-7.801127973943949">
        <ele>581.25</ele>
        <time>2025-04-30T10:59:37Z</time>
      </trkpt>
      <trkpt lat="43.551063984632492" lon="-7.801115987822413">
        <ele>582.22000000000003</ele>
        <time>2025-04-30T10:59:38Z</time>
      </trkpt>
      <trkpt lat="43.550848988816142" lon="-7.801120011135936">
        <ele>583.65999999999997</ele>
        <time>2025-04-30T10:59:39Z</time>
      </trkpt>
      <trkpt lat="43.550633992999792" lon="-7.801153035834432">
        <ele>584.62</ele>
        <time>2025-04-30T10:59:40Z</time>
      </trkpt>
      <trkpt lat="43.547574011608958" lon="-7.8017090074718">
        <ele>607.21000000000004</ele>
        <time>2025-04-30T10:59:54Z</time>
      </trkpt>
      <trkpt lat="43.547373013570905" lon="-7.801803974434733">
        <ele>609.61000000000001</ele>
        <time>2025-04-30T10:59:55Z</time>
      </trkpt>
      <trkpt lat="43.547162041068077" lon="-7.801919979974628">
        <ele>611.53999999999996</ele>
        <time>2025-04-30T10:59:56Z</time>
      </trkpt>
      <trkpt lat="43.546970011666417" lon="-7.802079990506172">
        <ele>613.94000000000005</ele>
        <time>2025-04-30T10:59:57Z</time>
      </trkpt>
      <trkpt lat="43.546782005578279" lon="-7.802252992987633">
        <ele>615.86000000000001</ele>
        <time>2025-04-30T10:59:58Z</time>
      </trkpt>
      <trkpt lat="43.546614032238722" lon="-7.80246002599597">
        <ele>617.77999999999997</ele>
        <time>2025-04-30T10:59:59Z</time>
      </trkpt>
      <trkpt lat="43.546445975080132" lon="-7.802669992670417">
        <ele>620.19000000000005</ele>
        <time>2025-04-30T11:00:00Z</time>
      </trkpt>
      <trkpt lat="43.546111034229398" lon="-7.80308598652482">
        <ele>624.50999999999999</ele>
        <time>2025-04-30T11:00:02Z</time>
      </trkpt>
      <trkpt lat="43.545919004827738" lon="-7.803269969299436">
        <ele>626.91999999999996</ele>
        <time>2025-04-30T11:00:03Z</time>
      </trkpt>
      <trkpt lat="43.545724963769317" lon="-7.803455963730812">
        <ele>628.84000000000003</ele>
        <time>2025-04-30T11:00:04Z</time>
      </trkpt>
      <trkpt lat="43.545520026236773" lon="-7.803618991747499">
        <ele>631.24000000000001</ele>
        <time>2025-04-30T11:00:05Z</time>
      </trkpt>
      <trkpt lat="43.545298995450139" lon="-7.803739020600915">
        <ele>633.16999999999996</ele>
        <time>2025-04-30T11:00:06Z</time>
      </trkpt>
      <trkpt lat="43.545075030997396" lon="-7.8038589656353">
        <ele>635.09000000000003</ele>
        <time>2025-04-30T11:00:07Z</time>
      </trkpt>
      <trkpt lat="43.544842014089227" lon="-7.803947981446981">
        <ele>637.00999999999999</ele>
        <time>2025-04-30T11:00:08Z</time>
      </trkpt>
      <trkpt lat="43.5446120146662" lon="-7.804027022793889">
        <ele>638.92999999999995</ele>
        <time>2025-04-30T11:00:09Z</time>
      </trkpt>
      <trkpt lat="43.542030975222588" lon="-7.804809976369143">
        <ele>645.17999999999995</ele>
        <time>2025-04-30T11:00:20Z</time>
      </trkpt>
      <trkpt lat="43.539365027099848" lon="-7.805819995701313">
        <ele>643.74000000000001</ele>
        <time>2025-04-30T11:00:32Z</time>
      </trkpt>
      <trkpt lat="43.536531021818519" lon="-7.807088010013104">
        <ele>638.92999999999995</ele>
        <time>2025-04-30T11:00:44Z</time>
      </trkpt>
      <trkpt lat="43.533872030675411" lon="-7.808324005454779">
        <ele>636.52999999999997</ele>
        <time>2025-04-30T11:00:56Z</time>
      </trkpt>
      <trkpt lat="43.532128008082509" lon="-7.809564024209976">
        <ele>631.72000000000003</ele>
        <time>2025-04-30T11:01:04Z</time>
      </trkpt>
      <trkpt lat="43.529785014688969" lon="-7.81135599128902">
        <ele>625.96000000000004</ele>
        <time>2025-04-30T11:01:15Z</time>
      </trkpt>
      <trkpt lat="43.528239978477359" lon="-7.812015982344747">
        <ele>622.11000000000001</ele>
        <time>2025-04-30T11:01:22Z</time>
      </trkpt>
      <trkpt lat="43.526998031884432" lon="-7.813019966706634">
        <ele>622.11000000000001</ele>
        <time>2025-04-30T11:01:28Z</time>
      </trkpt>
      <trkpt lat="43.526275008916855" lon="-7.813866036012769">
        <ele>622.59000000000003</ele>
        <time>2025-04-30T11:01:32Z</time>
      </trkpt>
      <trkpt lat="43.526067975908518" lon="-7.814021017402411">
        <ele>622.59000000000003</ele>
        <time>2025-04-30T11:01:33Z</time>
      </trkpt>
      <trkpt lat="43.525861026719213" lon="-7.814172981306911">
        <ele>623.07000000000005</ele>
        <time>2025-04-30T11:01:34Z</time>
      </trkpt>
      <trkpt lat="43.525653993710876" lon="-7.814325029030442">
        <ele>623.07000000000005</ele>
        <time>2025-04-30T11:01:35Z</time>
      </trkpt>
      <trkpt lat="43.525450984016061" lon="-7.814412033185363">
        <ele>623.54999999999995</ele>
        <time>2025-04-30T11:01:36Z</time>
      </trkpt>
      <trkpt lat="43.525205980986357" lon="-7.814503982663155">
        <ele>623.54999999999995</ele>
        <time>2025-04-30T11:01:37Z</time>
      </trkpt>
      <trkpt lat="43.523433962836862" lon="-7.815119968727231">
        <ele>631.72000000000003</ele>
        <time>2025-04-30T11:01:45Z</time>
      </trkpt>
      <trkpt lat="43.523207986727357" lon="-7.81511602923274">
        <ele>633.16999999999996</ele>
        <time>2025-04-30T11:01:46Z</time>
      </trkpt>
      <trkpt lat="43.522985028102994" lon="-7.815111000090838">
        <ele>635.09000000000003</ele>
        <time>2025-04-30T11:01:47Z</time>
      </trkpt>
      <trkpt lat="43.522766008973122" lon="-7.815105970948935">
        <ele>637.00999999999999</ele>
        <time>2025-04-30T11:01:48Z</time>
      </trkpt>
      <trkpt lat="43.522544978186488" lon="-7.815102031454444">
        <ele>638.92999999999995</ele>
        <time>2025-04-30T11:01:49Z</time>
      </trkpt>
      <trkpt lat="43.522330988198519" lon="-7.815136983990669">
        <ele>640.86000000000001</ele>
        <time>2025-04-30T11:01:50Z</time>
      </trkpt>
      <trkpt lat="43.522125966846943" lon="-7.815220970660448">
        <ele>642.77999999999997</ele>
        <time>2025-04-30T11:01:51Z</time>
      </trkpt>
      <trkpt lat="43.521923962980509" lon="-7.815319038927555">
        <ele>644.70000000000005</ele>
        <time>2025-04-30T11:01:52Z</time>
      </trkpt>
      <trkpt lat="43.521751966327429" lon="-7.815477037802339">
        <ele>646.62</ele>
        <time>2025-04-30T11:01:53Z</time>
      </trkpt>
      <trkpt lat="43.521590027958155" lon="-7.815658003091812">
        <ele>648.54999999999995</ele>
        <time>2025-04-30T11:01:54Z</time>
      </trkpt>
      <trkpt lat="43.521456001326442" lon="-7.815875010564923">
        <ele>650.47000000000003</ele>
        <time>2025-04-30T11:01:55Z</time>
      </trkpt>
      <trkpt lat="43.521335972473025" lon="-7.816110039129853">
        <ele>652.38999999999999</ele>
        <time>2025-04-30T11:01:56Z</time>
      </trkpt>
      <trkpt lat="43.521212004125118" lon="-7.816353030502796">
        <ele>654.30999999999995</ele>
        <time>2025-04-30T11:01:57Z</time>
      </trkpt>
      <trkpt lat="43.520596018061042" lon="-7.817588020116091">
        <ele>662.00999999999999</ele>
        <time>2025-04-30T11:02:02Z</time>
      </trkpt>
      <trkpt lat="43.520426033064723" lon="-7.817777032032609">
        <ele>663.45000000000005</ele>
        <time>2025-04-30T11:02:03Z</time>
      </trkpt>
      <trkpt lat="43.520243978127837" lon="-7.817948022857308">
        <ele>665.37</ele>
        <time>2025-04-30T11:02:04Z</time>
      </trkpt>
      <trkpt lat="43.520041974261403" lon="-7.818064028397203">
        <ele>666.80999999999995</ele>
        <time>2025-04-30T11:02:05Z</time>
      </trkpt>
      <trkpt lat="43.519831001758575" lon="-7.818161007016897">
        <ele>668.73000000000002</ele>
        <time>2025-04-30T11:02:06Z</time>
      </trkpt>
      <trkpt lat="43.519617011770606" lon="-7.818218003958464">
        <ele>670.17999999999995</ele>
        <time>2025-04-30T11:02:07Z</time>
      </trkpt>
      <trkpt lat="43.519402015954256" lon="-7.818224960938096">
        <ele>672.10000000000002</ele>
        <time>2025-04-30T11:02:08Z</time>
      </trkpt>
      <trkpt lat="43.519188025966287" lon="-7.818186990916729">
        <ele>673.53999999999996</ele>
        <time>2025-04-30T11:02:09Z</time>
      </trkpt>
      <trkpt lat="43.51898199878633" lon="-7.818107027560473">
        <ele>674.98000000000002</ele>
        <time>2025-04-30T11:02:10Z</time>
      </trkpt>
      <trkpt lat="43.518781000748277" lon="-7.817981969565153">
        <ele>676.90999999999997</ele>
        <time>2025-04-30T11:02:11Z</time>
      </trkpt>
      <trkpt lat="43.518580002710223" lon="-7.817855989560485">
        <ele>678.35000000000002</ele>
        <time>2025-04-30T11:02:12Z</time>
      </trkpt>
      <trkpt lat="43.518377998843789" lon="-7.817730009555817">
        <ele>679.78999999999996</ele>
        <time>2025-04-30T11:02:13Z</time>
      </trkpt>
      <trkpt lat="43.518174989148974" lon="-7.817611992359161">
        <ele>681.23000000000002</ele>
        <time>2025-04-30T11:02:14Z</time>
      </trkpt>
      <trkpt lat="43.517965022474527" lon="-7.817521970719099">
        <ele>682.66999999999996</ele>
        <time>2025-04-30T11:02:15Z</time>
      </trkpt>
      <trkpt lat="43.517746003344655" lon="-7.817474026232958">
        <ele>684.12</ele>
        <time>2025-04-30T11:02:16Z</time>
      </trkpt>
      <trkpt lat="43.517524972558022" lon="-7.81743798404932">
        <ele>685.55999999999995</ele>
        <time>2025-04-30T11:02:17Z</time>
      </trkpt>
      <trkpt lat="43.517294973134995" lon="-7.817447958514094">
        <ele>687</ele>
        <time>2025-04-30T11:02:18Z</time>
      </trkpt>
      <trkpt lat="43.517061034217477" lon="-7.817459022626281">
        <ele>688.44000000000005</ele>
        <time>2025-04-30T11:02:19Z</time>
      </trkpt>
      <trkpt lat="43.51683396846056" lon="-7.817497998476028">
        <ele>689.39999999999998</ele>
        <time>2025-04-30T11:02:20Z</time>
      </trkpt>
      <trkpt lat="43.514525005593896" lon="-7.817727997899056">
        <ele>695.64999999999998</ele>
        <time>2025-04-30T11:02:30Z</time>
      </trkpt>
      <trkpt lat="43.512199027463794" lon="-7.817590031772852">
        <ele>685.08000000000004</ele>
        <time>2025-04-30T11:02:40Z</time>
      </trkpt>
      <trkpt lat="43.511981014162302" lon="-7.817620960995555">
        <ele>683.63</ele>
        <time>2025-04-30T11:02:41Z</time>
      </trkpt>
      <trkpt lat="43.511759983375669" lon="-7.817698996514082">
        <ele>682.19000000000005</ele>
        <time>2025-04-30T11:02:42Z</time>
      </trkpt>
      <trkpt lat="43.511545993387699" lon="-7.817794969305396">
        <ele>680.75</ele>
        <time>2025-04-30T11:02:43Z</time>
      </trkpt>
      <trkpt lat="43.510255012661219" lon="-7.818523021414876">
        <ele>670.17999999999995</ele>
        <time>2025-04-30T11:02:49Z</time>
      </trkpt>
      <trkpt lat="43.510025013238192" lon="-7.818563003093004">
        <ele>667.76999999999998</ele>
        <time>2025-04-30T11:02:50Z</time>
      </trkpt>
      <trkpt lat="43.509805994108319" lon="-7.818556968122721">
        <ele>665.85000000000002</ele>
        <time>2025-04-30T11:02:51Z</time>
      </trkpt>
      <trkpt lat="43.509584041312337" lon="-7.818528972566128">
        <ele>663.92999999999995</ele>
        <time>2025-04-30T11:02:52Z</time>
      </trkpt>
      <trkpt lat="43.509366028010845" lon="-7.818502988666296">
        <ele>662.00999999999999</ele>
        <time>2025-04-30T11:02:53Z</time>
      </trkpt>
      <trkpt lat="43.508924972265959" lon="-7.818484967574477">
        <ele>658.15999999999997</ele>
        <time>2025-04-30T11:02:55Z</time>
      </trkpt>
      <trkpt lat="43.508696984499693" lon="-7.81851002946496">
        <ele>656.24000000000001</ele>
        <time>2025-04-30T11:02:56Z</time>
      </trkpt>
      <trkpt lat="43.50847402587533" lon="-7.818612037226558">
        <ele>654.30999999999995</ele>
        <time>2025-04-30T11:02:57Z</time>
      </trkpt>
      <trkpt lat="43.508262969553471" lon="-7.818751009181142">
        <ele>652.87</ele>
        <time>2025-04-30T11:02:58Z</time>
      </trkpt>
      <trkpt lat="43.508068006485701" lon="-7.818914959207177">
        <ele>650.47000000000003</ele>
        <time>2025-04-30T11:02:59Z</time>
      </trkpt>
      <trkpt lat="43.507875977084041" lon="-7.819075975567102">
        <ele>648.54999999999995</ele>
        <time>2025-04-30T11:03:00Z</time>
      </trkpt>
      <trkpt lat="43.507676990702748" lon="-7.819218970835209">
        <ele>646.62</ele>
        <time>2025-04-30T11:03:01Z</time>
      </trkpt>
      <trkpt lat="43.507470963522792" lon="-7.819354003295302">
        <ele>644.70000000000005</ele>
        <time>2025-04-30T11:03:02Z</time>
      </trkpt>
      <trkpt lat="43.507244987413287" lon="-7.819424998015165">
        <ele>642.77999999999997</ele>
        <time>2025-04-30T11:03:03Z</time>
      </trkpt>
      <trkpt lat="43.507022028788924" lon="-7.81947897747159">
        <ele>640.86000000000001</ele>
        <time>2025-04-30T11:03:04Z</time>
      </trkpt>
      <trkpt lat="43.506797980517149" lon="-7.819490041583777">
        <ele>638.45000000000005</ele>
        <time>2025-04-30T11:03:05Z</time>
      </trkpt>
      <trkpt lat="43.506578961387277" lon="-7.819506973028183">
        <ele>636.52999999999997</ele>
        <time>2025-04-30T11:03:06Z</time>
      </trkpt>
      <trkpt lat="43.506362959742546" lon="-7.819547960534692">
        <ele>635.09000000000003</ele>
        <time>2025-04-30T11:03:07Z</time>
      </trkpt>
      <trkpt lat="43.506143018603325" lon="-7.819588026031852">
        <ele>633.16999999999996</ele>
        <time>2025-04-30T11:03:08Z</time>
      </trkpt>
      <trkpt lat="43.505926011130214" lon="-7.819667989388108">
        <ele>631.24000000000001</ele>
        <time>2025-04-30T11:03:09Z</time>
      </trkpt>
      <trkpt lat="43.505713026970625" lon="-7.819775026291609">
        <ele>629.32000000000005</ele>
        <time>2025-04-30T11:03:10Z</time>
      </trkpt>
      <trkpt lat="43.505499958992004" lon="-7.819881979376078">
        <ele>627.39999999999998</ele>
        <time>2025-04-30T11:03:11Z</time>
      </trkpt>
      <trkpt lat="43.503592992201447" lon="-7.821371024474502">
        <ele>609.13</ele>
        <time>2025-04-30T11:03:20Z</time>
      </trkpt>
      <trkpt lat="43.502981029450893" lon="-7.821976030245423">
        <ele>602.88</ele>
        <time>2025-04-30T11:03:23Z</time>
      </trkpt>
      <trkpt lat="43.502808026969433" lon="-7.822217009961605">
        <ele>600.48000000000002</ele>
        <time>2025-04-30T11:03:24Z</time>
      </trkpt>
      <trkpt lat="43.502650028094649" lon="-7.822484979405999">
        <ele>598.55999999999995</ele>
        <time>2025-04-30T11:03:25Z</time>
      </trkpt>
      <trkpt lat="43.502506026998162" lon="-7.82276501879096">
        <ele>596.63999999999999</ele>
        <time>2025-04-30T11:03:26Z</time>
      </trkpt>
      <trkpt lat="43.50237300619483" lon="-7.823058972135186">
        <ele>594.23000000000002</ele>
        <time>2025-04-30T11:03:27Z</time>
      </trkpt>
      <trkpt lat="43.502274015918374" lon="-7.823385028168559">
        <ele>592.30999999999995</ele>
        <time>2025-04-30T11:03:28Z</time>
      </trkpt>
      <trkpt lat="43.502192040905356" lon="-7.823719969019294">
        <ele>589.90999999999997</ele>
        <time>2025-04-30T11:03:29Z</time>
      </trkpt>
      <trkpt lat="43.502135965973139" lon="-7.824063040316105">
        <ele>587.98000000000002</ele>
        <time>2025-04-30T11:03:30Z</time>
      </trkpt>
      <trkpt lat="43.502078969031572" lon="-7.824407033622265">
        <ele>585.58000000000004</ele>
        <time>2025-04-30T11:03:31Z</time>
      </trkpt>
      <trkpt lat="43.501487961038947" lon="-7.827372970059514">
        <ele>569.24000000000001</ele>
        <time>2025-04-30T11:03:40Z</time>
      </trkpt>
      <trkpt lat="43.500576009973884" lon="-7.828871989622712">
        <ele>560.59000000000003</ele>
        <time>2025-04-30T11:03:46Z</time>
      </trkpt>
      <trkpt lat="43.499288968741894" lon="-7.829844038933516">
        <ele>555.29999999999995</ele>
        <time>2025-04-30T11:03:52Z</time>
      </trkpt>
      <trkpt lat="43.498384980484843" lon="-7.8304130025208">
        <ele>553.86000000000001</ele>
        <time>2025-04-30T11:03:56Z</time>
      </trkpt>
      <trkpt lat="43.498149029910564" lon="-7.830495983362198">
        <ele>554.34000000000003</ele>
        <time>2025-04-30T11:03:57Z</time>
      </trkpt>
      <trkpt lat="43.497909978032112" lon="-7.830535965040326">
        <ele>554.34000000000003</ele>
        <time>2025-04-30T11:03:58Z</time>
      </trkpt>
      <trkpt lat="43.496359996497631" lon="-7.830665968358517">
        <ele>561.54999999999995</ele>
        <time>2025-04-30T11:04:05Z</time>
      </trkpt>
      <trkpt lat="43.495116960257292" lon="-7.831482030451298">
        <ele>568.75999999999999</ele>
        <time>2025-04-30T11:04:11Z</time>
      </trkpt>
      <trkpt lat="43.493533032014966" lon="-7.83284199424088">
        <ele>571.63999999999999</ele>
        <time>2025-04-30T11:04:19Z</time>
      </trkpt>
      <trkpt lat="43.492419999092817" lon="-7.834154013544321">
        <ele>570.67999999999995</ele>
        <time>2025-04-30T11:04:25Z</time>
      </trkpt>
      <trkpt lat="43.492225036025047" lon="-7.834345959126949">
        <ele>570.67999999999995</ele>
        <time>2025-04-30T11:04:26Z</time>
      </trkpt>
      <trkpt lat="43.492011968046427" lon="-7.834498006850481">
        <ele>570.20000000000005</ele>
        <time>2025-04-30T11:04:27Z</time>
      </trkpt>
      <trkpt lat="43.490251014009118" lon="-7.835630988702178">
        <ele>568.27999999999997</ele>
        <time>2025-04-30T11:04:35Z</time>
      </trkpt>
      <trkpt lat="43.487491020932794" lon="-7.837626971304417">
        <ele>565.38999999999999</ele>
        <time>2025-04-30T11:04:48Z</time>
      </trkpt>
      <trkpt lat="43.485419014468789" lon="-7.839320031926036">
        <ele>553.86000000000001</ele>
        <time>2025-04-30T11:04:58Z</time>
      </trkpt>
      <trkpt lat="43.485245006158948" lon="-7.839532010257244">
        <ele>552.89999999999998</ele>
        <time>2025-04-30T11:04:59Z</time>
      </trkpt>
      <trkpt lat="43.484963038936257" lon="-7.840053029358387">
        <ele>550.49000000000001</ele>
        <time>2025-04-30T11:05:01Z</time>
      </trkpt>
      <trkpt lat="43.48481803201139" lon="-7.840323010459542">
        <ele>549.04999999999995</ele>
        <time>2025-04-30T11:05:02Z</time>
      </trkpt>
      <trkpt lat="43.484571017324924" lon="-7.840907983481884">
        <ele>546.64999999999998</ele>
        <time>2025-04-30T11:05:04Z</time>
      </trkpt>
      <trkpt lat="43.484384017065167" lon="-7.841540984809399">
        <ele>544.24000000000001</ele>
        <time>2025-04-30T11:05:06Z</time>
      </trkpt>
      <trkpt lat="43.484324002638459" lon="-7.841868968680501">
        <ele>542.79999999999995</ele>
        <time>2025-04-30T11:05:07Z</time>
      </trkpt>
      <trkpt lat="43.484263988211751" lon="-7.842197036370635">
        <ele>541.84000000000003</ele>
        <time>2025-04-30T11:05:08Z</time>
      </trkpt>
      <trkpt lat="43.484245967119932" lon="-7.84253197722137">
        <ele>540.39999999999998</ele>
        <time>2025-04-30T11:05:09Z</time>
      </trkpt>
      <trkpt lat="43.484238004311919" lon="-7.842865996062756">
        <ele>538.96000000000004</ele>
        <time>2025-04-30T11:05:10Z</time>
      </trkpt>
      <trkpt lat="43.484183019027114" lon="-7.845123996958137">
        <ele>533.66999999999996</ele>
        <time>2025-04-30T11:05:17Z</time>
      </trkpt>
      <trkpt lat="43.484129039570689" lon="-7.845448041334748">
        <ele>533.19000000000005</ele>
        <time>2025-04-30T11:05:18Z</time>
      </trkpt>
      <trkpt lat="43.484071036800742" lon="-7.845770996063948">
        <ele>532.71000000000004</ele>
        <time>2025-04-30T11:05:19Z</time>
      </trkpt>
      <trkpt lat="43.48398101516068" lon="-7.846072996035218">
        <ele>532.71000000000004</ele>
        <time>2025-04-30T11:05:20Z</time>
      </trkpt>
      <trkpt lat="43.483901973813772" lon="-7.846366027370095">
        <ele>532.71000000000004</ele>
        <time>2025-04-30T11:05:21Z</time>
      </trkpt>
      <trkpt lat="43.483811030164361" lon="-7.846637014299631">
        <ele>532.23000000000002</ele>
        <time>2025-04-30T11:05:22Z</time>
      </trkpt>
      <trkpt lat="43.483715979382396" lon="-7.846899032592773">
        <ele>532.23000000000002</ele>
        <time>2025-04-30T11:05:23Z</time>
      </trkpt>
      <trkpt lat="43.483341978862882" lon="-7.847649967297912">
        <ele>531.26999999999998</ele>
        <time>2025-04-30T11:05:27Z</time>
      </trkpt>
      <trkpt lat="43.483256986364722" lon="-7.847791034728289">
        <ele>530.78999999999996</ele>
        <time>2025-04-30T11:05:28Z</time>
      </trkpt>
      <trkpt lat="43.483136035501957" lon="-7.847929000854492">
        <ele>530.78999999999996</ele>
        <time>2025-04-30T11:05:29Z</time>
      </trkpt>
      <trkpt lat="43.482766980305314" lon="-7.848240975290537">
        <ele>528.86000000000001</ele>
        <time>2025-04-30T11:05:32Z</time>
      </trkpt>
      <trkpt lat="43.482577968388796" lon="-7.848380031064153">
        <ele>527.89999999999998</ele>
        <time>2025-04-30T11:05:33Z</time>
      </trkpt>
      <trkpt lat="43.482406977564096" lon="-7.848465023562312">
        <ele>526.94000000000005</ele>
        <time>2025-04-30T11:05:34Z</time>
      </trkpt>
      <trkpt lat="43.481011977419257" lon="-7.849215036258102">
        <ele>519.25</ele>
        <time>2025-04-30T11:05:40Z</time>
      </trkpt>
      <trkpt lat="43.47861098125577" lon="-7.850476009771228">
        <ele>500.01999999999998</ele>
        <time>2025-04-30T11:05:50Z</time>
      </trkpt>
      <trkpt lat="43.476743996143341" lon="-7.851335993036628">
        <ele>486.56</ele>
        <time>2025-04-30T11:05:58Z</time>
      </trkpt>
      <trkpt lat="43.474954040721059" lon="-7.852468974888325">
        <ele>479.35000000000002</ele>
        <time>2025-04-30T11:06:06Z</time>
      </trkpt>
      <trkpt lat="43.473752997815609" lon="-7.853539008647203">
        <ele>470.22000000000003</ele>
        <time>2025-04-30T11:06:12Z</time>
      </trkpt>
      <trkpt lat="43.47354001365602" lon="-7.85368200391531">
        <ele>468.30000000000001</ele>
        <time>2025-04-30T11:06:13Z</time>
      </trkpt>
      <trkpt lat="43.471687026321888" lon="-7.854383988305926">
        <ele>452.92000000000002</ele>
        <time>2025-04-30T11:06:21Z</time>
      </trkpt>
      <trkpt lat="43.468482038006186" lon="-7.855513030663133">
        <ele>428.39999999999998</ele>
        <time>2025-04-30T11:06:35Z</time>
      </trkpt>
      <trkpt lat="43.464599959552288" lon="-7.856874000281096">
        <ele>396.68000000000001</ele>
        <time>2025-04-30T11:06:52Z</time>
      </trkpt>
      <trkpt lat="43.462908994406462" lon="-7.857911009341478">
        <ele>385.14999999999998</ele>
        <time>2025-04-30T11:07:00Z</time>
      </trkpt>
      <trkpt lat="43.460932960733771" lon="-7.859651008620858">
        <ele>374.08999999999997</ele>
        <time>2025-04-30T11:07:10Z</time>
      </trkpt>
      <trkpt lat="43.458574963733554" lon="-7.861780012026429">
        <ele>364.95999999999998</ele>
        <time>2025-04-30T11:07:22Z</time>
      </trkpt>
      <trkpt lat="43.456014040857553" lon="-7.864094004034996">
        <ele>362.06999999999999</ele>
        <time>2025-04-30T11:07:35Z</time>
      </trkpt>
      <trkpt lat="43.454679977148771" lon="-7.865766026079655">
        <ele>362.06999999999999</ele>
        <time>2025-04-30T11:07:43Z</time>
      </trkpt>
      <trkpt lat="43.453737013041973" lon="-7.867158008739352">
        <ele>361.11000000000001</ele>
        <time>2025-04-30T11:07:51Z</time>
      </trkpt>
      <trkpt lat="43.453134018927813" lon="-7.867654971778393">
        <ele>360.63</ele>
        <time>2025-04-30T11:07:57Z</time>
      </trkpt>
      <trkpt lat="43.453052965924144" lon="-7.86790600977838">
        <ele>360.63</ele>
        <time>2025-04-30T11:07:58Z</time>
      </trkpt>
      <trkpt lat="43.453037962317467" lon="-7.867935011163354">
        <ele>360.14999999999998</ele>
        <time>2025-04-30T11:07:59Z</time>
      </trkpt>
      <trkpt lat="43.452928997576237" lon="-7.868001982569695">
        <ele>360.14999999999998</ele>
        <time>2025-04-30T11:08:00Z</time>
      </trkpt>
      <trkpt lat="43.452844005078077" lon="-7.868012962862849">
        <ele>360.14999999999998</ele>
        <time>2025-04-30T11:08:01Z</time>
      </trkpt>
      <trkpt lat="43.452739985659719" lon="-7.867909027263522">
        <ele>360.14999999999998</ele>
        <time>2025-04-30T11:08:02Z</time>
      </trkpt>
      <trkpt lat="43.452642001211643" lon="-7.867929982021451">
        <ele>360.14999999999998</ele>
        <time>2025-04-30T11:08:03Z</time>
      </trkpt>
      <trkpt lat="43.452533036470413" lon="-7.867955965921283">
        <ele>360.14999999999998</ele>
        <time>2025-04-30T11:08:04Z</time>
      </trkpt>
      <trkpt lat="43.452417030930519" lon="-7.867985973134637">
        <ele>360.14999999999998</ele>
        <time>2025-04-30T11:08:05Z</time>
      </trkpt>
      <trkpt lat="43.452289961278439" lon="-7.868018997833133">
        <ele>359.67000000000002</ele>
        <time>2025-04-30T11:08:06Z</time>
      </trkpt>
      <trkpt lat="43.450988000258803" lon="-7.868352010846138">
        <ele>359.19</ele>
        <time>2025-04-30T11:08:14Z</time>
      </trkpt>
      <trkpt lat="43.449152028188109" lon="-7.868615034967661">
        <ele>359.19</ele>
        <time>2025-04-30T11:08:24Z</time>
      </trkpt>
      <trkpt lat="43.447790974751115" lon="-7.868169033899903">
        <ele>356.79000000000002</ele>
        <time>2025-04-30T11:08:32Z</time>
      </trkpt>
      <trkpt lat="43.446765029802918" lon="-7.86782001145184">
        <ele>351.98000000000002</ele>
        <time>2025-04-30T11:08:40Z</time>
      </trkpt>
      <trkpt lat="43.446563025936484" lon="-7.867695959284902">
        <ele>351.5</ele>
        <time>2025-04-30T11:08:42Z</time>
      </trkpt>
      <trkpt lat="43.445404982194304" lon="-7.867184998467565">
        <ele>350.06</ele>
        <time>2025-04-30T11:08:50Z</time>
      </trkpt>
      <trkpt lat="43.444466963410378" lon="-7.866888027638197">
        <ele>349.57999999999998</ele>
        <time>2025-04-30T11:08:56Z</time>
      </trkpt>
      <trkpt lat="43.44335300847888" lon="-7.867019036784768">
        <ele>348.13</ele>
        <time>2025-04-30T11:09:04Z</time>
      </trkpt>
      <trkpt lat="43.442659992724657" lon="-7.867259010672569">
        <ele>347.64999999999998</ele>
        <time>2025-04-30T11:09:09Z</time>
      </trkpt>
      <trkpt lat="43.442550022155046" lon="-7.867374010384083">
        <ele>347.64999999999998</ele>
        <time>2025-04-30T11:09:10Z</time>
      </trkpt>
      <trkpt lat="43.44245002605021" lon="-7.867504013702273">
        <ele>347.64999999999998</ele>
        <time>2025-04-30T11:09:11Z</time>
      </trkpt>
      <trkpt lat="43.442360004410148" lon="-7.86764801479876">
        <ele>347.64999999999998</ele>
        <time>2025-04-30T11:09:12Z</time>
      </trkpt>
      <trkpt lat="43.442292027175426" lon="-7.867812970653176">
        <ele>347.17000000000002</ele>
        <time>2025-04-30T11:09:13Z</time>
      </trkpt>
      <trkpt lat="43.442241987213492" lon="-7.867987984791398">
        <ele>347.64999999999998</ele>
        <time>2025-04-30T11:09:14Z</time>
      </trkpt>
      <trkpt lat="43.442190019413829" lon="-7.868170961737633">
        <ele>347.64999999999998</ele>
        <time>2025-04-30T11:09:15Z</time>
      </trkpt>
      <trkpt lat="43.441701019182801" lon="-7.869815994054079">
        <ele>346.20999999999998</ele>
        <time>2025-04-30T11:09:22Z</time>
      </trkpt>
      <trkpt lat="43.440763000398874" lon="-7.872862983494997">
        <ele>341.88999999999999</ele>
        <time>2025-04-30T11:09:33Z</time>
      </trkpt>
      <trkpt lat="43.43957100994885" lon="-7.876009969040752">
        <ele>343.32999999999998</ele>
        <time>2025-04-30T11:09:45Z</time>
      </trkpt>
      <trkpt lat="43.438700968399644" lon="-7.878221031278372">
        <ele>347.64999999999998</ele>
        <time>2025-04-30T11:09:54Z</time>
      </trkpt>
      <trkpt lat="43.438526038080454" lon="-7.878888985142112">
        <ele>348.13</ele>
        <time>2025-04-30T11:09:57Z</time>
      </trkpt>
      <trkpt lat="43.438526038080454" lon="-7.879117978736758">
        <ele>347.64999999999998</ele>
        <time>2025-04-30T11:09:58Z</time>
      </trkpt>
      <trkpt lat="43.438526038080454" lon="-7.879300033673644">
        <ele>346.69</ele>
        <time>2025-04-30T11:09:59Z</time>
      </trkpt>
      <trkpt lat="43.438578005880117" lon="-7.879539001733065">
        <ele>346.20999999999998</ele>
        <time>2025-04-30T11:10:00Z</time>
      </trkpt>
      <trkpt lat="43.438624022528529" lon="-7.879753997549415">
        <ele>345.25</ele>
        <time>2025-04-30T11:10:01Z</time>
      </trkpt>
      <trkpt lat="43.438699040561914" lon="-7.879910990595818">
        <ele>344.29000000000002</ele>
        <time>2025-04-30T11:10:02Z</time>
      </trkpt>
      <trkpt lat="43.438799036666751" lon="-7.88008701056242">
        <ele>343.32999999999998</ele>
        <time>2025-04-30T11:10:03Z</time>
      </trkpt>
      <trkpt lat="43.438900038599968" lon="-7.880265964195132">
        <ele>342.37</ele>
        <time>2025-04-30T11:10:04Z</time>
      </trkpt>
      <trkpt lat="43.439009003341198" lon="-7.880405019968748">
        <ele>341.88999999999999</ele>
        <time>2025-04-30T11:10:05Z</time>
      </trkpt>
      <trkpt lat="43.439143029972911" lon="-7.880569975823164">
        <ele>341.41000000000003</ele>
        <time>2025-04-30T11:10:06Z</time>
      </trkpt>
      <trkpt lat="43.440319010987878" lon="-7.881953995674849">
        <ele>339.95999999999998</ele>
        <time>2025-04-30T11:10:15Z</time>
      </trkpt>
      <trkpt lat="43.440597038716078" lon="-7.88227703422308">
        <ele>339.48000000000002</ele>
        <time>2025-04-30T11:10:18Z</time>
      </trkpt>
      <trkpt lat="43.440657975152135" lon="-7.882349034771323">
        <ele>339.48000000000002</ele>
        <time>2025-04-30T11:10:19Z</time>
      </trkpt>
      <trkpt lat="43.440721007063985" lon="-7.88247300311923">
        <ele>340.44</ele>
        <time>2025-04-30T11:10:20Z</time>
      </trkpt>
      <trkpt lat="43.440885962918401" lon="-7.883034003898501">
        <ele>342.85000000000002</ele>
        <time>2025-04-30T11:10:24Z</time>
      </trkpt>
      <trkpt lat="43.440885962918401" lon="-7.883034003898501">
        <ele>343.32999999999998</ele>
        <time>2025-04-30T11:10:25Z</time>
      </trkpt>
      <trkpt lat="43.440937008708715" lon="-7.88316098973155">
        <ele>343.81</ele>
        <time>2025-04-30T11:10:26Z</time>
      </trkpt>
      <trkpt lat="43.440991993993521" lon="-7.883298033848405">
        <ele>343.81</ele>
        <time>2025-04-30T11:10:27Z</time>
      </trkpt>
      <trkpt lat="43.441004985943437" lon="-7.883478999137878">
        <ele>344.29000000000002</ele>
        <time>2025-04-30T11:10:28Z</time>
      </trkpt>
      <trkpt lat="43.440992999821901" lon="-7.883613025769591">
        <ele>345.25</ele>
        <time>2025-04-30T11:10:29Z</time>
      </trkpt>
      <trkpt lat="43.44092502258718" lon="-7.883770018815994">
        <ele>345.73000000000002</ele>
        <time>2025-04-30T11:10:30Z</time>
      </trkpt>
      <trkpt lat="43.440867019817233" lon="-7.883903039619327">
        <ele>345.73000000000002</ele>
        <time>2025-04-30T11:10:31Z</time>
      </trkpt>
      <trkpt lat="43.440842963755131" lon="-7.883957019075751">
        <ele>346.20999999999998</ele>
        <time>2025-04-30T11:10:32Z</time>
      </trkpt>
      <trkpt lat="43.440707009285688" lon="-7.884033964946866">
        <ele>346.69</ele>
        <time>2025-04-30T11:10:33Z</time>
      </trkpt>
      <trkpt lat="43.440586980432272" lon="-7.884103031829">
        <ele>346.69</ele>
        <time>2025-04-30T11:10:34Z</time>
      </trkpt>
      <trkpt lat="43.440328985452652" lon="-7.88417000323534">
        <ele>347.17000000000002</ele>
        <time>2025-04-30T11:10:36Z</time>
      </trkpt>
      <trkpt lat="43.440267965197563" lon="-7.884250972419977">
        <ele>348.13</ele>
        <time>2025-04-30T11:10:37Z</time>
      </trkpt>
      <trkpt lat="43.440246004611254" lon="-7.88442799821496">
        <ele>348.62</ele>
        <time>2025-04-30T11:10:38Z</time>
      </trkpt>
      <trkpt lat="43.440232006832957" lon="-7.884560013189912">
        <ele>348.62</ele>
        <time>2025-04-30T11:10:39Z</time>
      </trkpt>
      <trkpt lat="43.440240975469351" lon="-7.884739972651005">
        <ele>349.10000000000002</ele>
        <time>2025-04-30T11:10:40Z</time>
      </trkpt>
      <trkpt lat="43.44028296880424" lon="-7.884897971525788">
        <ele>350.06</ele>
        <time>2025-04-30T11:10:41Z</time>
      </trkpt>
      <trkpt lat="43.440328985452652" lon="-7.885070974007249">
        <ele>350.54000000000002</ele>
        <time>2025-04-30T11:10:42Z</time>
      </trkpt>
      <trkpt lat="43.440803987905383" lon="-7.886850032955408">
        <ele>359.19</ele>
        <time>2025-04-30T11:10:50Z</time>
      </trkpt>
      <trkpt lat="43.44120598398149" lon="-7.889165030792356">
        <ele>372.64999999999998</ele>
        <time>2025-04-30T11:10:58Z</time>
      </trkpt>
      <trkpt lat="43.441258035600185" lon="-7.891483968123794">
        <ele>380.81999999999999</ele>
        <time>2025-04-30T11:11:05Z</time>
      </trkpt>
      <trkpt lat="43.440969027578831" lon="-7.894219988957048">
        <ele>388.99000000000001</ele>
        <time>2025-04-30T11:11:13Z</time>
      </trkpt>
      <trkpt lat="43.441141024231911" lon="-7.896193005144596">
        <ele>394.27999999999997</ele>
        <time>2025-04-30T11:11:19Z</time>
      </trkpt>
      <trkpt lat="43.441788023337722" lon="-7.897967034950852">
        <ele>401.49000000000001</ele>
        <time>2025-04-30T11:11:25Z</time>
      </trkpt>
      <trkpt lat="43.442666027694941" lon="-7.899862015619874">
        <ele>412.06</ele>
        <time>2025-04-30T11:11:32Z</time>
      </trkpt>
      <trkpt lat="43.443001974374056" lon="-7.901707962155342">
        <ele>417.82999999999998</ele>
        <time>2025-04-30T11:11:38Z</time>
      </trkpt>
      <trkpt lat="43.442813968285918" lon="-7.903683995828033">
        <ele>416.38999999999999</ele>
        <time>2025-04-30T11:11:44Z</time>
      </trkpt>
      <trkpt lat="43.442645994946361" lon="-7.906113993376494">
        <ele>411.10000000000002</ele>
        <time>2025-04-30T11:11:51Z</time>
      </trkpt>
      <trkpt lat="43.442728975787759" lon="-7.906783958896995">
        <ele>409.18000000000001</ele>
        <time>2025-04-30T11:11:53Z</time>
      </trkpt>
      <trkpt lat="43.443311015143991" lon="-7.908898964524269">
        <ele>401.97000000000003</ele>
        <time>2025-04-30T11:12:00Z</time>
      </trkpt>
      <trkpt lat="43.443921972066164" lon="-7.911050012335181">
        <ele>395.24000000000001</ele>
        <time>2025-04-30T11:12:07Z</time>
      </trkpt>
      <trkpt lat="43.44410796649754" lon="-7.913836995139718">
        <ele>389.47000000000003</ele>
        <time>2025-04-30T11:12:15Z</time>
      </trkpt>
      <trkpt lat="43.444229001179338" lon="-7.917271982878447">
        <ele>391.87</ele>
        <time>2025-04-30T11:12:26Z</time>
      </trkpt>
      <trkpt lat="43.44423595815897" lon="-7.921020034700632">
        <ele>398.60000000000002</ele>
        <time>2025-04-30T11:12:38Z</time>
      </trkpt>
      <trkpt lat="43.443714017048478" lon="-7.922868998721242">
        <ele>403.41000000000003</ele>
        <time>2025-04-30T11:12:44Z</time>
      </trkpt>
      <trkpt lat="43.442512974143028" lon="-7.925368985161185">
        <ele>409.18000000000001</ele>
        <time>2025-04-30T11:12:53Z</time>
      </trkpt>
      <trkpt lat="43.44171904027462" lon="-7.927666967734695">
        <ele>414.94999999999999</ele>
        <time>2025-04-30T11:13:01Z</time>
      </trkpt>
      <trkpt lat="43.441494992002845" lon="-7.929948018863797">
        <ele>424.07999999999998</ele>
        <time>2025-04-30T11:13:08Z</time>
      </trkpt>
      <trkpt lat="43.441271027550101" lon="-7.932887971401215">
        <ele>439.94</ele>
        <time>2025-04-30T11:13:17Z</time>
      </trkpt>
      <trkpt lat="43.440956035628915" lon="-7.937420988455415">
        <ele>464.44999999999999</ele>
        <time>2025-04-30T11:13:31Z</time>
      </trkpt>
      <trkpt lat="43.440912030637264" lon="-7.938401000574231">
        <ele>470.69999999999999</ele>
        <time>2025-04-30T11:13:34Z</time>
      </trkpt>
      <trkpt lat="43.440929967910051" lon="-7.938725966960192">
        <ele>472.13999999999999</ele>
        <time>2025-04-30T11:13:35Z</time>
      </trkpt>
      <trkpt lat="43.440961986780167" lon="-7.939047999680042">
        <ele>474.06999999999999</ele>
        <time>2025-04-30T11:13:36Z</time>
      </trkpt>
      <trkpt lat="43.441029964014888" lon="-7.939360979944468">
        <ele>475.99000000000001</ele>
        <time>2025-04-30T11:13:37Z</time>
      </trkpt>
      <trkpt lat="43.441113028675318" lon="-7.93966599740088">
        <ele>477.43000000000001</ele>
        <time>2025-04-30T11:13:38Z</time>
      </trkpt>
      <trkpt lat="43.441200032830238" lon="-7.939969003200531">
        <ele>479.35000000000002</ele>
        <time>2025-04-30T11:13:39Z</time>
      </trkpt>
      <trkpt lat="43.441324001178145" lon="-7.940244013443589">
        <ele>480.80000000000001</ele>
        <time>2025-04-30T11:13:40Z</time>
      </trkpt>
      <trkpt lat="43.441446963697672" lon="-7.940517012029886">
        <ele>482.24000000000001</ele>
        <time>2025-04-30T11:13:41Z</time>
      </trkpt>
      <trkpt lat="43.441599011421204" lon="-7.940757991746068">
        <ele>483.68000000000001</ele>
        <time>2025-04-30T11:13:42Z</time>
      </trkpt>
      <trkpt lat="43.441767990589142" lon="-7.940987991169095">
        <ele>484.63999999999999</ele>
        <time>2025-04-30T11:13:43Z</time>
      </trkpt>
      <trkpt lat="43.441937975585461" lon="-7.941221008077264">
        <ele>485.60000000000002</ele>
        <time>2025-04-30T11:13:44Z</time>
      </trkpt>
      <trkpt lat="43.442142996937037" lon="-7.941396022215486">
        <ele>486.56</ele>
        <time>2025-04-30T11:13:45Z</time>
      </trkpt>
      <trkpt lat="43.442352041602135" lon="-7.941562989726663">
        <ele>487.52999999999997</ele>
        <time>2025-04-30T11:13:46Z</time>
      </trkpt>
      <trkpt lat="43.442562008276582" lon="-7.94173096306622">
        <ele>488.49000000000001</ele>
        <time>2025-04-30T11:13:47Z</time>
      </trkpt>
      <trkpt lat="43.444646000862122" lon="-7.943335007876158">
        <ele>490.88999999999999</ele>
        <time>2025-04-30T11:13:57Z</time>
      </trkpt>
      <trkpt lat="43.444824032485485" lon="-7.943570036441088">
        <ele>490.88999999999999</ele>
        <time>2025-04-30T11:13:58Z</time>
      </trkpt>
      <trkpt lat="43.444999968633056" lon="-7.94381101615727">
        <ele>490.88999999999999</ele>
        <time>2025-04-30T11:13:59Z</time>
      </trkpt>
      <trkpt lat="43.445139024406672" lon="-7.944089965894818">
        <ele>491.37</ele>
        <time>2025-04-30T11:14:00Z</time>
      </trkpt>
      <trkpt lat="43.445252012461424" lon="-7.944382997229695">
        <ele>491.37</ele>
        <time>2025-04-30T11:14:01Z</time>
      </trkpt>
      <trkpt lat="43.445348991081119" lon="-7.944703018292785">
        <ele>491.37</ele>
        <time>2025-04-30T11:14:02Z</time>
      </trkpt>
      <trkpt lat="43.44541403464973" lon="-7.944981968030334">
        <ele>490.88999999999999</ele>
        <time>2025-04-30T11:14:03Z</time>
      </trkpt>
      <trkpt lat="43.445443036034703" lon="-7.945299977436662">
        <ele>491.37</ele>
        <time>2025-04-30T11:14:04Z</time>
      </trkpt>
      <trkpt lat="43.445468014106154" lon="-7.945622010156512">
        <ele>491.37</ele>
        <time>2025-04-30T11:14:05Z</time>
      </trkpt>
      <trkpt lat="43.445461979135871" lon="-7.945943959057331">
        <ele>491.37</ele>
        <time>2025-04-30T11:14:06Z</time>
      </trkpt>
      <trkpt lat="43.445434989407659" lon="-7.946270015090704">
        <ele>491.37</ele>
        <time>2025-04-30T11:14:07Z</time>
      </trkpt>
      <trkpt lat="43.445381009951234" lon="-7.94658500701189">
        <ele>491.37</ele>
        <time>2025-04-30T11:14:08Z</time>
      </trkpt>
      <trkpt lat="43.445327030494809" lon="-7.946901004761457">
        <ele>491.85000000000002</ele>
        <time>2025-04-30T11:14:09Z</time>
      </trkpt>
      <trkpt lat="43.444946995005012" lon="-7.948833033442497">
        <ele>491.37</ele>
        <time>2025-04-30T11:14:16Z</time>
      </trkpt>
      <trkpt lat="43.444558996707201" lon="-7.950707981362939">
        <ele>491.85000000000002</ele>
        <time>2025-04-30T11:14:25Z</time>
      </trkpt>
      <trkpt lat="43.444364033639431" lon="-7.952561974525452">
        <ele>494.25999999999999</ele>
        <time>2025-04-30T11:14:33Z</time>
      </trkpt>
      <trkpt lat="43.4445780236274" lon="-7.954603973776102">
        <ele>496.18000000000001</ele>
        <time>2025-04-30T11:14:40Z</time>
      </trkpt>
      <trkpt lat="43.444926962256432" lon="-7.957407971844077">
        <ele>504.35000000000002</ele>
        <time>2025-04-30T11:14:50Z</time>
      </trkpt>
      <trkpt lat="43.444698974490166" lon="-7.959909969940782">
        <ele>508.67000000000002</ele>
        <time>2025-04-30T11:14:58Z</time>
      </trkpt>
      <trkpt lat="43.443872015923262" lon="-7.963657015934587">
        <ele>508.19</ele>
        <time>2025-04-30T11:15:10Z</time>
      </trkpt>
      <trkpt lat="43.443075986579061" lon="-7.965630032122135">
        <ele>508.19</ele>
        <time>2025-04-30T11:15:17Z</time>
      </trkpt>
      <trkpt lat="43.442144002765417" lon="-7.966868039220572">
        <ele>502.91000000000003</ele>
        <time>2025-04-30T11:15:23Z</time>
      </trkpt>
      <trkpt lat="43.441573027521372" lon="-7.967970008030534">
        <ele>497.62</ele>
        <time>2025-04-30T11:15:28Z</time>
      </trkpt>
      <trkpt lat="43.441490968689322" lon="-7.968203024938703">
        <ele>496.66000000000003</ele>
        <time>2025-04-30T11:15:29Z</time>
      </trkpt>
      <trkpt lat="43.441158961504698" lon="-7.970229014754295">
        <ele>490.88999999999999</ele>
        <time>2025-04-30T11:15:37Z</time>
      </trkpt>
      <trkpt lat="43.44054096378386" lon="-7.972697988152504">
        <ele>490.41000000000003</ele>
        <time>2025-04-30T11:15:47Z</time>
      </trkpt>
      <trkpt lat="43.43965700827539" lon="-7.974886000156403">
        <ele>498.10000000000002</ele>
        <time>2025-04-30T11:15:57Z</time>
      </trkpt>
      <trkpt lat="43.438817979767919" lon="-7.976837977766991">
        <ele>503.87</ele>
        <time>2025-04-30T11:16:09Z</time>
      </trkpt>
      <trkpt lat="43.438443979248405" lon="-7.977763004601002">
        <ele>505.79000000000002</ele>
        <time>2025-04-30T11:16:17Z</time>
      </trkpt>
      <trkpt lat="43.438398968428373" lon="-7.977860989049077">
        <ele>507.23000000000002</ele>
        <time>2025-04-30T11:16:23Z</time>
      </trkpt>
      <trkpt lat="43.438398968428373" lon="-7.977860989049077">
        <ele>507.23000000000002</ele>
        <time>2025-04-30T11:17:02Z</time>
      </trkpt>
      <trkpt lat="43.438398968428373" lon="-7.977860989049077">
        <ele>507.23000000000002</ele>
        <time>2025-04-30T11:17:53Z</time>
      </trkpt>
      <trkpt lat="43.438365021720529" lon="-7.977935001254082">
        <ele>507.70999999999998</ele>
        <time>2025-04-30T11:17:56Z</time>
      </trkpt>
      <trkpt lat="43.438294027000666" lon="-7.978093000128865">
        <ele>508.19</ele>
        <time>2025-04-30T11:17:58Z</time>
      </trkpt>
      <trkpt lat="43.438245998695493" lon="-7.978200959041715">
        <ele>508.19</ele>
        <time>2025-04-30T11:17:59Z</time>
      </trkpt>
      <trkpt lat="43.437668988481164" lon="-7.979615991935134">
        <ele>509.16000000000003</ele>
        <time>2025-04-30T11:18:09Z</time>
      </trkpt>
      <trkpt lat="43.437275039032102" lon="-7.980585023760796">
        <ele>513.48000000000002</ele>
        <time>2025-04-30T11:18:17Z</time>
      </trkpt>
      <trkpt lat="43.437162972986698" lon="-7.980884006246924">
        <ele>516.85000000000002</ele>
        <time>2025-04-30T11:18:25Z</time>
      </trkpt>
      <trkpt lat="43.437162972986698" lon="-7.980884006246924">
        <ele>516.85000000000002</ele>
        <time>2025-04-30T11:19:04Z</time>
      </trkpt>
      <trkpt lat="43.437148975208402" lon="-7.980945026502013">
        <ele>517.33000000000004</ele>
        <time>2025-04-30T11:20:02Z</time>
      </trkpt>
      <trkpt lat="43.436990976333618" lon="-7.981553971767426">
        <ele>518.76999999999998</ele>
        <time>2025-04-30T11:20:09Z</time>
      </trkpt>
      <trkpt lat="43.436847981065512" lon="-7.982266014441848">
        <ele>520.69000000000005</ele>
        <time>2025-04-30T11:20:14Z</time>
      </trkpt>
      <trkpt lat="43.436701968312263" lon="-7.983867963775992">
        <ele>527.41999999999996</ele>
        <time>2025-04-30T11:20:25Z</time>
      </trkpt>
      <trkpt lat="43.436630973592401" lon="-7.985636964440346">
        <ele>530.78999999999996</ele>
        <time>2025-04-30T11:20:33Z</time>
      </trkpt>
      <trkpt lat="43.436547992751002" lon="-7.988061010837555">
        <ele>523.09000000000003</ele>
        <time>2025-04-30T11:20:42Z</time>
      </trkpt>
      <trkpt lat="43.436401979997754" lon="-7.990725031122565">
        <ele>518.28999999999996</ele>
        <time>2025-04-30T11:20:51Z</time>
      </trkpt>
      <trkpt lat="43.436268959194422" lon="-7.994231013581157">
        <ele>510.60000000000002</ele>
        <time>2025-04-30T11:21:01Z</time>
      </trkpt>
      <trkpt lat="43.436253033578396" lon="-7.994935009628534">
        <ele>507.70999999999998</ele>
        <time>2025-04-30T11:21:03Z</time>
      </trkpt>
      <trkpt lat="43.43628304079175" lon="-7.995285037904978">
        <ele>506.26999999999998</ele>
        <time>2025-04-30T11:21:04Z</time>
      </trkpt>
      <trkpt lat="43.436355041339993" lon="-7.995618972927332">
        <ele>504.82999999999998</ele>
        <time>2025-04-30T11:21:05Z</time>
      </trkpt>
      <trkpt lat="43.436426036059856" lon="-7.995947040617466">
        <ele>502.91000000000003</ele>
        <time>2025-04-30T11:21:06Z</time>
      </trkpt>
      <trkpt lat="43.436535000801086" lon="-7.996251974254847">
        <ele>501.45999999999998</ele>
        <time>2025-04-30T11:21:07Z</time>
      </trkpt>
      <trkpt lat="43.436655029654503" lon="-7.996551040560007">
        <ele>499.54000000000002</ele>
        <time>2025-04-30T11:21:08Z</time>
      </trkpt>
      <trkpt lat="43.436994999647141" lon="-7.997457040473819">
        <ele>494.25999999999999</ele>
        <time>2025-04-30T11:21:11Z</time>
      </trkpt>
      <trkpt lat="43.437067000195384" lon="-7.997778989374638">
        <ele>492.81</ele>
        <time>2025-04-30T11:21:12Z</time>
      </trkpt>
      <trkpt lat="43.437120979651809" lon="-7.998096998780966">
        <ele>490.88999999999999</ele>
        <time>2025-04-30T11:21:13Z</time>
      </trkpt>
      <trkpt lat="43.437160039320588" lon="-7.998409979045391">
        <ele>489.44999999999999</ele>
        <time>2025-04-30T11:21:14Z</time>
      </trkpt>
      <trkpt lat="43.437160039320588" lon="-7.998736035078764">
        <ele>488.00999999999999</ele>
        <time>2025-04-30T11:21:15Z</time>
      </trkpt>
      <trkpt lat="43.437137994915247" lon="-7.999063013121486">
        <ele>486.56</ele>
        <time>2025-04-30T11:21:16Z</time>
      </trkpt>
      <trkpt lat="43.437117040157318" lon="-7.999390996992588">
        <ele>485.12</ele>
        <time>2025-04-30T11:21:17Z</time>
      </trkpt>
      <trkpt lat="43.437106981873512" lon="-8.000675020739436">
        <ele>479.35000000000002</ele>
        <time>2025-04-30T11:21:21Z</time>
      </trkpt>
      <trkpt lat="43.437169007956982" lon="-8.000982971861959">
        <ele>477.91000000000003</ele>
        <time>2025-04-30T11:21:22Z</time>
      </trkpt>
      <trkpt lat="43.437231034040451" lon="-8.001294024288654">
        <ele>476.94999999999999</ele>
        <time>2025-04-30T11:21:23Z</time>
      </trkpt>
      <trkpt lat="43.437928995117545" lon="-8.004004983231425">
        <ele>468.77999999999997</ele>
        <time>2025-04-30T11:21:32Z</time>
      </trkpt>
      <trkpt lat="43.438388993963599" lon="-8.005784964188933">
        <ele>465.42000000000002</ele>
        <time>2025-04-30T11:21:39Z</time>
      </trkpt>
      <trkpt lat="43.438440039753914" lon="-8.006028961390257">
        <ele>464.93000000000001</ele>
        <time>2025-04-30T11:21:40Z</time>
      </trkpt>
      <trkpt lat="43.438458982855082" lon="-8.006272036582232">
        <ele>464.44999999999999</ele>
        <time>2025-04-30T11:21:41Z</time>
      </trkpt>
      <trkpt lat="43.438468035310507" lon="-8.006519973278046">
        <ele>463.49000000000001</ele>
        <time>2025-04-30T11:21:42Z</time>
      </trkpt>
      <trkpt lat="43.43847599811852" lon="-8.006761036813259">
        <ele>463.00999999999999</ele>
        <time>2025-04-30T11:21:43Z</time>
      </trkpt>
      <trkpt lat="43.438560990616679" lon="-8.007757980376482">
        <ele>459.17000000000002</ele>
        <time>2025-04-30T11:21:47Z</time>
      </trkpt>
      <trkpt lat="43.438836000859737" lon="-8.009261023253202">
        <ele>452.92000000000002</ele>
        <time>2025-04-30T11:21:53Z</time>
      </trkpt>
      <trkpt lat="43.438879000023007" lon="-8.009490016847849">
        <ele>451.48000000000002</ele>
        <time>2025-04-30T11:21:54Z</time>
      </trkpt>
      <trkpt lat="43.439188040792942" lon="-8.011704012751579">
        <ele>442.33999999999997</ele>
        <time>2025-04-30T11:22:03Z</time>
      </trkpt>
      <trkpt lat="43.439211007207632" lon="-8.01471596583724">
        <ele>429.37</ele>
        <time>2025-04-30T11:22:14Z</time>
      </trkpt>
      <trkpt lat="43.439418040215969" lon="-8.016849998384714">
        <ele>423.12</ele>
        <time>2025-04-30T11:22:22Z</time>
      </trkpt>
      <trkpt lat="43.439213018864393" lon="-8.018941031768918">
        <ele>419.75</ele>
        <time>2025-04-30T11:22:30Z</time>
      </trkpt>
      <trkpt lat="43.43852000311017" lon="-8.021260974928737">
        <ele>417.82999999999998</ele>
        <time>2025-04-30T11:22:40Z</time>
      </trkpt>
      <trkpt lat="43.437839979305863" lon="-8.023064006119967">
        <ele>417.35000000000002</ele>
        <time>2025-04-30T11:22:48Z</time>
      </trkpt>
      <trkpt lat="43.436657041311264" lon="-8.024743990972638">
        <ele>417.82999999999998</ele>
        <time>2025-04-30T11:22:57Z</time>
      </trkpt>
      <trkpt lat="43.436055975034833" lon="-8.025989038869739">
        <ele>417.35000000000002</ele>
        <time>2025-04-30T11:23:03Z</time>
      </trkpt>
      <trkpt lat="43.436006018891931" lon="-8.02622901275754">
        <ele>417.35000000000002</ele>
        <time>2025-04-30T11:23:04Z</time>
      </trkpt>
      <trkpt lat="43.435519030317664" lon="-8.02814201451838">
        <ele>417.82999999999998</ele>
        <time>2025-04-30T11:23:12Z</time>
      </trkpt>
      <trkpt lat="43.435193980112672" lon="-8.028707960620523">
        <ele>418.31</ele>
        <time>2025-04-30T11:23:15Z</time>
      </trkpt>
      <trkpt lat="43.434272976592183" lon="-8.029844965785742">
        <ele>418.79000000000002</ele>
        <time>2025-04-30T11:23:22Z</time>
      </trkpt>
      <trkpt lat="43.43415898270905" lon="-8.030030038207769">
        <ele>419.26999999999998</ele>
        <time>2025-04-30T11:23:23Z</time>
      </trkpt>
      <trkpt lat="43.434056974947453" lon="-8.030234975740314">
        <ele>419.26999999999998</ele>
        <time>2025-04-30T11:23:24Z</time>
      </trkpt>
      <trkpt lat="43.433959996327758" lon="-8.030447037890554">
        <ele>419.26999999999998</ele>
        <time>2025-04-30T11:23:25Z</time>
      </trkpt>
      <trkpt lat="43.433875003829598" lon="-8.030667984858155">
        <ele>419.75</ele>
        <time>2025-04-30T11:23:26Z</time>
      </trkpt>
      <trkpt lat="43.433820018544793" lon="-8.030901001766324">
        <ele>419.75</ele>
        <time>2025-04-30T11:23:27Z</time>
      </trkpt>
      <trkpt lat="43.433766961097717" lon="-8.031131001189351">
        <ele>420.23000000000002</ele>
        <time>2025-04-30T11:23:28Z</time>
      </trkpt>
      <trkpt lat="43.433712981641293" lon="-8.031361000612378">
        <ele>420.23000000000002</ele>
        <time>2025-04-30T11:23:29Z</time>
      </trkpt>
      <trkpt lat="43.433674005791545" lon="-8.031604997813702">
        <ele>419.75</ele>
        <time>2025-04-30T11:23:30Z</time>
      </trkpt>
      <trkpt lat="43.433731002733111" lon="-8.033174006268382">
        <ele>418.79000000000002</ele>
        <time>2025-04-30T11:23:36Z</time>
      </trkpt>
      <trkpt lat="43.433824963867664" lon="-8.034799005836248">
        <ele>415.43000000000001</ele>
        <time>2025-04-30T11:23:42Z</time>
      </trkpt>
      <trkpt lat="43.433807026594877" lon="-8.035078039392829">
        <ele>414.94999999999999</ele>
        <time>2025-04-30T11:23:43Z</time>
      </trkpt>
      <trkpt lat="43.433432020246983" lon="-8.037888994440436">
        <ele>410.62</ele>
        <time>2025-04-30T11:23:53Z</time>
      </trkpt>
      <trkpt lat="43.432572958990932" lon="-8.041056012734771">
        <ele>404.37</ele>
        <time>2025-04-30T11:24:04Z</time>
      </trkpt>
      <trkpt lat="43.432431975379586" lon="-8.041879031807184">
        <ele>401.00999999999999</ele>
        <time>2025-04-30T11:24:07Z</time>
      </trkpt>
      <trkpt lat="43.432440022006631" lon="-8.042173990979791">
        <ele>400.05000000000001</ele>
        <time>2025-04-30T11:24:08Z</time>
      </trkpt>
      <trkpt lat="43.432466005906463" lon="-8.042479008436203">
        <ele>398.60000000000002</ele>
        <time>2025-04-30T11:24:09Z</time>
      </trkpt>
      <trkpt lat="43.432687036693096" lon="-8.044580016285181">
        <ele>392.36000000000001</ele>
        <time>2025-04-30T11:24:16Z</time>
      </trkpt>
      <trkpt lat="43.432919969782233" lon="-8.046729974448681">
        <ele>388.02999999999997</ele>
        <time>2025-04-30T11:24:24Z</time>
      </trkpt>
      <trkpt lat="43.432937990874052" lon="-8.046982018277049">
        <ele>388.02999999999997</ele>
        <time>2025-04-30T11:24:25Z</time>
      </trkpt>
      <trkpt lat="43.432935979217291" lon="-8.047244036570191">
        <ele>388.02999999999997</ele>
        <time>2025-04-30T11:24:26Z</time>
      </trkpt>
      <trkpt lat="43.432917036116123" lon="-8.047512006014586">
        <ele>388.02999999999997</ele>
        <time>2025-04-30T11:24:27Z</time>
      </trkpt>
      <trkpt lat="43.43284503556788" lon="-8.049410004168749">
        <ele>390.91000000000003</ele>
        <time>2025-04-30T11:24:34Z</time>
      </trkpt>
      <trkpt lat="43.432874036952853" lon="-8.04967001080513">
        <ele>391.87</ele>
        <time>2025-04-30T11:24:35Z</time>
      </trkpt>
      <trkpt lat="43.432930028066039" lon="-8.049929011613131">
        <ele>393.31999999999999</ele>
        <time>2025-04-30T11:24:36Z</time>
      </trkpt>
      <trkpt lat="43.432985013350844" lon="-8.05018600076437">
        <ele>394.27999999999997</ele>
        <time>2025-04-30T11:24:37Z</time>
      </trkpt>
      <trkpt lat="43.433042010292411" lon="-8.050426980480552">
        <ele>395.72000000000003</ele>
        <time>2025-04-30T11:24:38Z</time>
      </trkpt>
      <trkpt lat="43.433130020275712" lon="-8.050637030974031">
        <ele>396.68000000000001</ele>
        <time>2025-04-30T11:24:39Z</time>
      </trkpt>
      <trkpt lat="43.433225993067026" lon="-8.050817996263504">
        <ele>398.12</ele>
        <time>2025-04-30T11:24:40Z</time>
      </trkpt>
      <trkpt lat="43.433323977515101" lon="-8.050995022058487">
        <ele>399.07999999999998</ele>
        <time>2025-04-30T11:24:41Z</time>
      </trkpt>
      <trkpt lat="43.433421039953828" lon="-8.051148997619748">
        <ele>400.05000000000001</ele>
        <time>2025-04-30T11:24:42Z</time>
      </trkpt>
      <trkpt lat="43.433522963896394" lon="-8.05128201842308">
        <ele>401.49000000000001</ele>
        <time>2025-04-30T11:24:43Z</time>
      </trkpt>
      <trkpt lat="43.434186978265643" lon="-8.05199196562171">
        <ele>411.57999999999998</ele>
        <time>2025-04-30T11:24:50Z</time>
      </trkpt>
      <trkpt lat="43.435286013409495" lon="-8.05297901853919">
        <ele>417.82999999999998</ele>
        <time>2025-04-30T11:24:58Z</time>
      </trkpt>
      <trkpt lat="43.435774007812142" lon="-8.053472964093089">
        <ele>418.79000000000002</ele>
        <time>2025-04-30T11:25:01Z</time>
      </trkpt>
      <trkpt lat="43.435911973938346" lon="-8.053673962131143">
        <ele>419.26999999999998</ele>
        <time>2025-04-30T11:25:02Z</time>
      </trkpt>
      <trkpt lat="43.436028985306621" lon="-8.053907984867692">
        <ele>419.26999999999998</ele>
        <time>2025-04-30T11:25:03Z</time>
      </trkpt>
      <trkpt lat="43.436136022210121" lon="-8.05415902286768">
        <ele>419.26999999999998</ele>
        <time>2025-04-30T11:25:04Z</time>
      </trkpt>
      <trkpt lat="43.436223026365042" lon="-8.054427998140454">
        <ele>418.79000000000002</ele>
        <time>2025-04-30T11:25:05Z</time>
      </trkpt>
      <trkpt lat="43.43684202991426" lon="-8.056573010981083">
        <ele>413.98000000000002</ele>
        <time>2025-04-30T11:25:13Z</time>
      </trkpt>
      <trkpt lat="43.436879999935627" lon="-8.056832011789084">
        <ele>413.01999999999998</ele>
        <time>2025-04-30T11:25:14Z</time>
      </trkpt>
      <trkpt lat="43.436893997713923" lon="-8.057096041738987">
        <ele>412.06</ele>
        <time>2025-04-30T11:25:15Z</time>
      </trkpt>
      <trkpt lat="43.436915036290884" lon="-8.057366022840142">
        <ele>411.57999999999998</ele>
        <time>2025-04-30T11:25:16Z</time>
      </trkpt>
      <trkpt lat="43.436781009659171" lon="-8.058994961902499">
        <ele>407.74000000000001</ele>
        <time>2025-04-30T11:25:21Z</time>
      </trkpt>
      <trkpt lat="43.436589986085892" lon="-8.060791036114097">
        <ele>403.88999999999999</ele>
        <time>2025-04-30T11:25:27Z</time>
      </trkpt>
      <trkpt lat="43.436420001089573" lon="-8.062529023736715">
        <ele>400.05000000000001</ele>
        <time>2025-04-30T11:25:35Z</time>
      </trkpt>
      <trkpt lat="43.436255967244506" lon="-8.063995018601418">
        <ele>400.05000000000001</ele>
        <time>2025-04-30T11:25:44Z</time>
      </trkpt>
      <trkpt lat="43.436195030808449" lon="-8.064789036288858">
        <ele>399.07999999999998</ele>
        <time>2025-04-30T11:25:51Z</time>
      </trkpt>
      <trkpt lat="43.436095034703612" lon="-8.065691012889147">
        <ele>397.16000000000003</ele>
        <time>2025-04-30T11:25:57Z</time>
      </trkpt>
      <trkpt lat="43.435939969494939" lon="-8.067183997482061">
        <ele>394.75999999999999</ele>
        <time>2025-04-30T11:26:06Z</time>
      </trkpt>
      <trkpt lat="43.435753975063562" lon="-8.069001026451588">
        <ele>394.75999999999999</ele>
        <time>2025-04-30T11:26:17Z</time>
      </trkpt>
      <trkpt lat="43.435504026710987" lon="-8.0714560020715">
        <ele>394.27999999999997</ele>
        <time>2025-04-30T11:26:32Z</time>
      </trkpt>
      <trkpt lat="43.435329012572765" lon="-8.072268962860107">
        <ele>393.80000000000001</ele>
        <time>2025-04-30T11:26:37Z</time>
      </trkpt>
      <trkpt lat="43.434699028730392" lon="-8.073854986578226">
        <ele>396.68000000000001</ele>
        <time>2025-04-30T11:26:48Z</time>
      </trkpt>
      <trkpt lat="43.434014981612563" lon="-8.075489038601518">
        <ele>398.12</ele>
        <time>2025-04-30T11:26:58Z</time>
      </trkpt>
      <trkpt lat="43.43323202803731" lon="-8.077431963756681">
        <ele>397.16000000000003</ele>
        <time>2025-04-30T11:27:07Z</time>
      </trkpt>
      <trkpt lat="43.433059025555849" lon="-8.078015008941293">
        <ele>396.19999999999999</ele>
        <time>2025-04-30T11:27:09Z</time>
      </trkpt>
      <trkpt lat="43.433007979765534" lon="-8.078338969498873">
        <ele>396.19999999999999</ele>
        <time>2025-04-30T11:27:10Z</time>
      </trkpt>
      <trkpt lat="43.43295500613749" lon="-8.078672988340259">
        <ele>395.72000000000003</ele>
        <time>2025-04-30T11:27:11Z</time>
      </trkpt>
      <trkpt lat="43.432733975350857" lon="-8.081161994487047">
        <ele>392.83999999999997</ele>
        <time>2025-04-30T11:27:18Z</time>
      </trkpt>
      <trkpt lat="43.432767000049353" lon="-8.081515040248632">
        <ele>392.83999999999997</ele>
        <time>2025-04-30T11:27:19Z</time>
      </trkpt>
      <trkpt lat="43.432822991162539" lon="-8.081860039383173">
        <ele>392.36000000000001</ele>
        <time>2025-04-30T11:27:20Z</time>
      </trkpt>
      <trkpt lat="43.432902032509446" lon="-8.08217603713274">
        <ele>392.36000000000001</ele>
        <time>2025-04-30T11:27:21Z</time>
      </trkpt>
      <trkpt lat="43.43299699947238" lon="-8.082470996305347">
        <ele>392.36000000000001</ele>
        <time>2025-04-30T11:27:22Z</time>
      </trkpt>
      <trkpt lat="43.433099007233977" lon="-8.082755981013179">
        <ele>392.83999999999997</ele>
        <time>2025-04-30T11:27:23Z</time>
      </trkpt>
      <trkpt lat="43.433634024113417" lon="-8.084408976137638">
        <ele>398.60000000000002</ele>
        <time>2025-04-30T11:27:29Z</time>
      </trkpt>
      <trkpt lat="43.433678029105067" lon="-8.084688009694219">
        <ele>399.56999999999999</ele>
        <time>2025-04-30T11:27:30Z</time>
      </trkpt>
      <trkpt lat="43.433723039925098" lon="-8.084966959431768">
        <ele>400.52999999999997</ele>
        <time>2025-04-30T11:27:31Z</time>
      </trkpt>
      <trkpt lat="43.433740977197886" lon="-8.085254039615393">
        <ele>401.49000000000001</ele>
        <time>2025-04-30T11:27:32Z</time>
      </trkpt>
      <trkpt lat="43.433740977197886" lon="-8.085544975474477">
        <ele>402.93000000000001</ele>
        <time>2025-04-30T11:27:33Z</time>
      </trkpt>
      <trkpt lat="43.433940969407558" lon="-8.087906995788217">
        <ele>413.5</ele>
        <time>2025-04-30T11:27:41Z</time>
      </trkpt>
      <trkpt lat="43.43443701043725" lon="-8.089558985084295">
        <ele>420.70999999999998</ele>
        <time>2025-04-30T11:27:47Z</time>
      </trkpt>
      <trkpt lat="43.435394978150725" lon="-8.092034999281168">
        <ele>417.82999999999998</ele>
        <time>2025-04-30T11:27:56Z</time>
      </trkpt>
      <trkpt lat="43.435560017824173" lon="-8.092258963733912">
        <ele>416.87</ele>
        <time>2025-04-30T11:27:57Z</time>
      </trkpt>
      <trkpt lat="43.436590991914272" lon="-8.093592021614313">
        <ele>410.62</ele>
        <time>2025-04-30T11:28:03Z</time>
      </trkpt>
      <trkpt lat="43.437855988740921" lon="-8.095001019537449">
        <ele>403.41000000000003</ele>
        <time>2025-04-30T11:28:10Z</time>
      </trkpt>
      <trkpt lat="43.439912991598248" lon="-8.097157012671232">
        <ele>388.99000000000001</ele>
        <time>2025-04-30T11:28:21Z</time>
      </trkpt>
      <trkpt lat="43.441494992002845" lon="-8.099003965035081">
        <ele>375.05000000000001</ele>
        <time>2025-04-30T11:28:29Z</time>
      </trkpt>
      <trkpt lat="43.44303198158741" lon="-8.101150989532471">
        <ele>360.14999999999998</ele>
        <time>2025-04-30T11:28:38Z</time>
      </trkpt>
      <trkpt lat="43.443315960466862" lon="-8.102090014144778">
        <ele>354.86000000000001</ele>
        <time>2025-04-30T11:28:41Z</time>
      </trkpt>
      <trkpt lat="43.443388966843486" lon="-8.102424032986164">
        <ele>353.42000000000002</ele>
        <time>2025-04-30T11:28:42Z</time>
      </trkpt>
      <trkpt lat="43.443445041775703" lon="-8.10276098549366">
        <ele>351.98000000000002</ele>
        <time>2025-04-30T11:28:43Z</time>
      </trkpt>
      <trkpt lat="43.44346197322011" lon="-8.103100033476949">
        <ele>350.54000000000002</ele>
        <time>2025-04-30T11:28:44Z</time>
      </trkpt>
      <trkpt lat="43.443479994311929" lon="-8.103437991812825">
        <ele>349.10000000000002</ele>
        <time>2025-04-30T11:28:45Z</time>
      </trkpt>
      <trkpt lat="43.44348200596869" lon="-8.103773016482592">
        <ele>347.64999999999998</ele>
        <time>2025-04-30T11:28:46Z</time>
      </trkpt>
      <trkpt lat="43.443460967391729" lon="-8.104068981483579">
        <ele>346.20999999999998</ele>
        <time>2025-04-30T11:28:47Z</time>
      </trkpt>
      <trkpt lat="43.443389972671866" lon="-8.10439202003181">
        <ele>345.25</ele>
        <time>2025-04-30T11:28:48Z</time>
      </trkpt>
      <trkpt lat="43.443329036235809" lon="-8.104670969769359">
        <ele>344.29000000000002</ele>
        <time>2025-04-30T11:28:49Z</time>
      </trkpt>
      <trkpt lat="43.443243037909269" lon="-8.104901975020766">
        <ele>342.85000000000002</ele>
        <time>2025-04-30T11:28:50Z</time>
      </trkpt>
      <trkpt lat="43.443140024319291" lon="-8.105125017464161">
        <ele>341.88999999999999</ele>
        <time>2025-04-30T11:28:51Z</time>
      </trkpt>
      <trkpt lat="43.44303198158741" lon="-8.105357028543949">
        <ele>340.44</ele>
        <time>2025-04-30T11:28:52Z</time>
      </trkpt>
      <trkpt lat="43.442921005189419" lon="-8.105504969134927">
        <ele>339.48000000000002</ele>
        <time>2025-04-30T11:28:53Z</time>
      </trkpt>
      <trkpt lat="43.442792007699609" lon="-8.105658022686839">
        <ele>338.04000000000002</ele>
        <time>2025-04-30T11:28:54Z</time>
      </trkpt>
      <trkpt lat="43.442645994946361" lon="-8.105794982984662">
        <ele>337.07999999999998</ele>
        <time>2025-04-30T11:28:55Z</time>
      </trkpt>
      <trkpt lat="43.442502999678254" lon="-8.105921968817711">
        <ele>336.60000000000002</ele>
        <time>2025-04-30T11:28:56Z</time>
      </trkpt>
      <trkpt lat="43.442338965833187" lon="-8.10600402764976">
        <ele>335.63999999999999</ele>
        <time>2025-04-30T11:28:57Z</time>
      </trkpt>
      <trkpt lat="43.442170992493629" lon="-8.106088014319539">
        <ele>335.16000000000003</ele>
        <time>2025-04-30T11:28:58Z</time>
      </trkpt>
      <trkpt lat="43.442006036639214" lon="-8.106147022917867">
        <ele>334.68000000000001</ele>
        <time>2025-04-30T11:28:59Z</time>
      </trkpt>
      <trkpt lat="43.441823981702328" lon="-8.106185998767614">
        <ele>333.70999999999998</ele>
        <time>2025-04-30T11:29:00Z</time>
      </trkpt>
      <trkpt lat="43.441645028069615" lon="-8.106222962960601">
        <ele>333.23000000000002</ele>
        <time>2025-04-30T11:29:01Z</time>
      </trkpt>
      <trkpt lat="43.440668033435941" lon="-8.106597969308496">
        <ele>330.35000000000002</ele>
        <time>2025-04-30T11:29:08Z</time>
      </trkpt>
      <trkpt lat="43.44036896713078" lon="-8.106860993430018">
        <ele>328.91000000000003</ele>
        <time>2025-04-30T11:29:11Z</time>
      </trkpt>
      <trkpt lat="43.439435977488756" lon="-8.107912000268698">
        <ele>324.57999999999998</ele>
        <time>2025-04-30T11:29:19Z</time>
      </trkpt>
      <trkpt lat="43.438612036406994" lon="-8.108888994902372">
        <ele>325.54000000000002</ele>
        <time>2025-04-30T11:29:26Z</time>
      </trkpt>
      <trkpt lat="43.438226971775293" lon="-8.109325021505356">
        <ele>327.47000000000003</ele>
        <time>2025-04-30T11:29:29Z</time>
      </trkpt>
      <trkpt lat="43.437515012919903" lon="-8.110302016139031">
        <ele>330.35000000000002</ele>
        <time>2025-04-30T11:29:34Z</time>
      </trkpt>
      <trkpt lat="43.436706997454166" lon="-8.112247958779335">
        <ele>337.07999999999998</ele>
        <time>2025-04-30T11:29:41Z</time>
      </trkpt>
      <trkpt lat="43.43645797111094" lon="-8.114187028259039">
        <ele>342.37</ele>
        <time>2025-04-30T11:29:47Z</time>
      </trkpt>
      <trkpt lat="43.436393011361361" lon="-8.117948994040489">
        <ele>342.85000000000002</ele>
        <time>2025-04-30T11:29:58Z</time>
      </trkpt>
      <trkpt lat="43.436322016641498" lon="-8.120691971853375">
        <ele>339.48000000000002</ele>
        <time>2025-04-30T11:30:06Z</time>
      </trkpt>
      <trkpt lat="43.436265019699931" lon="-8.124252017587423">
        <ele>331.79000000000002</ele>
        <time>2025-04-30T11:30:17Z</time>
      </trkpt>
      <trkpt lat="43.436493007466197" lon="-8.12684303149581">
        <ele>324.10000000000002</ele>
        <time>2025-04-30T11:30:25Z</time>
      </trkpt>
      <trkpt lat="43.437132965773344" lon="-8.12972498126328">
        <ele>308.72000000000003</ele>
        <time>2025-04-30T11:30:34Z</time>
      </trkpt>
      <trkpt lat="43.437160039320588" lon="-8.130060005933046">
        <ele>306.80000000000001</ele>
        <time>2025-04-30T11:30:35Z</time>
      </trkpt>
      <trkpt lat="43.437154004350305" lon="-8.130394024774432">
        <ele>304.88</ele>
        <time>2025-04-30T11:30:36Z</time>
      </trkpt>
      <trkpt lat="43.437116034328938" lon="-8.130727037787437">
        <ele>302.94999999999999</ele>
        <time>2025-04-30T11:30:37Z</time>
      </trkpt>
      <trkpt lat="43.437076974660158" lon="-8.13105602748692">
        <ele>301.50999999999999</ele>
        <time>2025-04-30T11:30:38Z</time>
      </trkpt>
      <trkpt lat="43.436992987990379" lon="-8.131363978609443">
        <ele>299.58999999999997</ele>
        <time>2025-04-30T11:30:39Z</time>
      </trkpt>
      <trkpt lat="43.436888968572021" lon="-8.131667990237474">
        <ele>297.67000000000002</ele>
        <time>2025-04-30T11:30:40Z</time>
      </trkpt>
      <trkpt lat="43.436775980517268" lon="-8.131963033229113">
        <ele>295.74000000000001</ele>
        <time>2025-04-30T11:30:41Z</time>
      </trkpt>
      <trkpt lat="43.436630973592401" lon="-8.1322399713099">
        <ele>293.33999999999997</ele>
        <time>2025-04-30T11:30:42Z</time>
      </trkpt>
      <trkpt lat="43.436466017737985" lon="-8.132487991824746">
        <ele>291.42000000000002</ele>
        <time>2025-04-30T11:30:43Z</time>
      </trkpt>
      <trkpt lat="43.436287986114621" lon="-8.132728971540928">
        <ele>289.49000000000001</ele>
        <time>2025-04-30T11:30:44Z</time>
      </trkpt>
      <trkpt lat="43.436085982248187" lon="-8.132912032306194">
        <ele>287.08999999999997</ele>
        <time>2025-04-30T11:30:45Z</time>
      </trkpt>
      <trkpt lat="43.435871992260218" lon="-8.133083023130894">
        <ele>285.17000000000002</ele>
        <time>2025-04-30T11:30:46Z</time>
      </trkpt>
      <trkpt lat="43.435649033635855" lon="-8.133209003135562">
        <ele>283.25</ele>
        <time>2025-04-30T11:30:47Z</time>
      </trkpt>
      <trkpt lat="43.435421967878938" lon="-8.133302964270115">
        <ele>281.31999999999999</ele>
        <time>2025-04-30T11:30:48Z</time>
      </trkpt>
      <trkpt lat="43.435190040618181" lon="-8.133373036980629">
        <ele>279.39999999999998</ele>
        <time>2025-04-30T11:30:49Z</time>
      </trkpt>
      <trkpt lat="43.434958029538393" lon="-8.133434979245067">
        <ele>277.48000000000002</ele>
        <time>2025-04-30T11:30:50Z</time>
      </trkpt>
      <trkpt lat="43.434724006801844" lon="-8.133471021428704">
        <ele>276.04000000000002</ele>
        <time>2025-04-30T11:30:51Z</time>
      </trkpt>
      <trkpt lat="43.43400701880455" lon="-8.133603036403656">
        <ele>271.23000000000002</ele>
        <time>2025-04-30T11:30:54Z</time>
      </trkpt>
      <trkpt lat="43.433789005503058" lon="-8.133716024458408">
        <ele>269.79000000000002</ele>
        <time>2025-04-30T11:30:55Z</time>
      </trkpt>
      <trkpt lat="43.43357702717185" lon="-8.133824989199638">
        <ele>268.35000000000002</ele>
        <time>2025-04-30T11:30:56Z</time>
      </trkpt>
      <trkpt lat="43.432901026681066" lon="-8.134466037154198">
        <ele>263.06</ele>
        <time>2025-04-30T11:31:00Z</time>
      </trkpt>
      <trkpt lat="43.432775968685746" lon="-8.134653959423304">
        <ele>262.10000000000002</ele>
        <time>2025-04-30T11:31:01Z</time>
      </trkpt>
      <trkpt lat="43.432657029479742" lon="-8.134842971339822">
        <ele>261.13999999999999</ele>
        <time>2025-04-30T11:31:02Z</time>
      </trkpt>
      <trkpt lat="43.432476986199617" lon="-8.135263994336128">
        <ele>259.20999999999998</ele>
        <time>2025-04-30T11:31:04Z</time>
      </trkpt>
      <trkpt lat="43.43239601701498" lon="-8.135464992374182">
        <ele>258.25</ele>
        <time>2025-04-30T11:31:05Z</time>
      </trkpt>
      <trkpt lat="43.431911962106824" lon="-8.13683501444757">
        <ele>251.52000000000001</ele>
        <time>2025-04-30T11:31:12Z</time>
      </trkpt>
      <trkpt lat="43.431083997711539" lon="-8.138075033202767">
        <ele>240.94999999999999</ele>
        <time>2025-04-30T11:31:20Z</time>
      </trkpt>
      <trkpt lat="43.430808987468481" lon="-8.138321964070201">
        <ele>239.50999999999999</ele>
        <time>2025-04-30T11:31:22Z</time>
      </trkpt>
      <trkpt lat="43.430491983890533" lon="-8.138451967388392">
        <ele>237.58000000000001</ele>
        <time>2025-04-30T11:31:24Z</time>
      </trkpt>
      <trkpt lat="43.430339014157653" lon="-8.138502007350326">
        <ele>236.62</ele>
        <time>2025-04-30T11:31:25Z</time>
      </trkpt>
      <trkpt lat="43.429622026160359" lon="-8.138839965686202">
        <ele>231.33000000000001</ele>
        <time>2025-04-30T11:31:30Z</time>
      </trkpt>
      <trkpt lat="43.429485987871885" lon="-8.138950020074844">
        <ele>230.37</ele>
        <time>2025-04-30T11:31:31Z</time>
      </trkpt>
      <trkpt lat="43.429382974281907" lon="-8.139077005907893">
        <ele>229.41</ele>
        <time>2025-04-30T11:31:32Z</time>
      </trkpt>
      <trkpt lat="43.429234027862549" lon="-8.13932603225112">
        <ele>227.49000000000001</ele>
        <time>2025-04-30T11:31:34Z</time>
      </trkpt>
      <trkpt lat="43.429188011214137" lon="-8.139463998377323">
        <ele>227.00999999999999</ele>
        <time>2025-04-30T11:31:35Z</time>
      </trkpt>
      <trkpt lat="43.429145012050867" lon="-8.139594001695514">
        <ele>226.05000000000001</ele>
        <time>2025-04-30T11:31:36Z</time>
      </trkpt>
      <trkpt lat="43.429119028151035" lon="-8.13971403054893">
        <ele>225.09</ele>
        <time>2025-04-30T11:31:37Z</time>
      </trkpt>
      <trkpt lat="43.429102012887597" lon="-8.13986599445343">
        <ele>224.61000000000001</ele>
        <time>2025-04-30T11:31:38Z</time>
      </trkpt>
      <trkpt lat="43.42908700928092" lon="-8.140024999156594">
        <ele>224.12</ele>
        <time>2025-04-30T11:31:39Z</time>
      </trkpt>
      <trkpt lat="43.429113999009132" lon="-8.1401870213449">
        <ele>223.63999999999999</ele>
        <time>2025-04-30T11:31:40Z</time>
      </trkpt>
      <trkpt lat="43.429143000394106" lon="-8.140362035483122">
        <ele>222.68000000000001</ele>
        <time>2025-04-30T11:31:41Z</time>
      </trkpt>
      <trkpt lat="43.429198991507292" lon="-8.140549035742879">
        <ele>222.19999999999999</ele>
        <time>2025-04-30T11:31:42Z</time>
      </trkpt>
      <trkpt lat="43.429265040904284" lon="-8.14074500463903">
        <ele>221.72</ele>
        <time>2025-04-30T11:31:43Z</time>
      </trkpt>
      <trkpt lat="43.429330000653863" lon="-8.140941979363561">
        <ele>221.24000000000001</ele>
        <time>2025-04-30T11:31:44Z</time>
      </trkpt>
      <trkpt lat="43.429489005357027" lon="-8.141501974314451">
        <ele>218.84</ele>
        <time>2025-04-30T11:31:47Z</time>
      </trkpt>
      <trkpt lat="43.429555976763368" lon="-8.142034979537129">
        <ele>215.94999999999999</ele>
        <time>2025-04-30T11:31:50Z</time>
      </trkpt>
      <trkpt lat="43.429536027833819" lon="-8.142217034474015">
        <ele>214.99000000000001</ele>
        <time>2025-04-30T11:31:51Z</time>
      </trkpt>
      <trkpt lat="43.429492022842169" lon="-8.142629005014896">
        <ele>212.59</ele>
        <time>2025-04-30T11:31:53Z</time>
      </trkpt>
      <trkpt lat="43.429427985101938" lon="-8.142821034416556">
        <ele>211.63</ele>
        <time>2025-04-30T11:31:54Z</time>
      </trkpt>
      <trkpt lat="43.429363025352359" lon="-8.143015997484326">
        <ele>210.66999999999999</ele>
        <time>2025-04-30T11:31:55Z</time>
      </trkpt>
      <trkpt lat="43.429222041741014" lon="-8.143382035195828">
        <ele>208.25999999999999</ele>
        <time>2025-04-30T11:31:57Z</time>
      </trkpt>
      <trkpt lat="43.428828008472919" lon="-8.144514011219144">
        <ele>201.53</ele>
        <time>2025-04-30T11:32:04Z</time>
      </trkpt>
      <trkpt lat="43.428811999037862" lon="-8.144706040620804">
        <ele>201.05000000000001</ele>
        <time>2025-04-30T11:32:05Z</time>
      </trkpt>
      <trkpt lat="43.428814010694623" lon="-8.144896980375052">
        <ele>200.09</ele>
        <time>2025-04-30T11:32:06Z</time>
      </trkpt>
      <trkpt lat="43.428831025958061" lon="-8.145097978413105">
        <ele>199.13</ele>
        <time>2025-04-30T11:32:07Z</time>
      </trkpt>
      <trkpt lat="43.428847035393119" lon="-8.145299982279539">
        <ele>198.65000000000001</ele>
        <time>2025-04-30T11:32:08Z</time>
      </trkpt>
      <trkpt lat="43.428878970444202" lon="-8.145488994196057">
        <ele>197.69</ele>
        <time>2025-04-30T11:32:09Z</time>
      </trkpt>
      <trkpt lat="43.428913000971079" lon="-8.145684041082859">
        <ele>196.72999999999999</ele>
        <time>2025-04-30T11:32:10Z</time>
      </trkpt>
      <trkpt lat="43.429180970415473" lon="-8.147144000977278">
        <ele>189.03999999999999</ele>
        <time>2025-04-30T11:32:19Z</time>
      </trkpt>
      <trkpt lat="43.429234027862549" lon="-8.148836977779865">
        <ele>181.34999999999999</ele>
        <time>2025-04-30T11:32:29Z</time>
      </trkpt>
      <trkpt lat="43.429069994017482" lon="-8.149894019588828">
        <ele>177.5</ele>
        <time>2025-04-30T11:32:34Z</time>
      </trkpt>
      <trkpt lat="43.429000005125999" lon="-8.150097029283643">
        <ele>176.53999999999999</ele>
        <time>2025-04-30T11:32:35Z</time>
      </trkpt>
      <trkpt lat="43.428813004866242" lon="-8.150501037016511">
        <ele>174.13999999999999</ele>
        <time>2025-04-30T11:32:37Z</time>
      </trkpt>
      <trkpt lat="43.428702028468251" lon="-8.150696000084281">
        <ele>173.16999999999999</ele>
        <time>2025-04-30T11:32:38Z</time>
      </trkpt>
      <trkpt lat="43.428584011271596" lon="-8.150858022272587">
        <ele>172.21000000000001</ele>
        <time>2025-04-30T11:32:39Z</time>
      </trkpt>
      <trkpt lat="43.428455013781786" lon="-8.151020966470242">
        <ele>171.25</ele>
        <time>2025-04-30T11:32:40Z</time>
      </trkpt>
      <trkpt lat="43.428324004635215" lon="-8.151174020022154">
        <ele>169.81</ele>
        <time>2025-04-30T11:32:41Z</time>
      </trkpt>
      <trkpt lat="43.42818696051836" lon="-8.151300000026822">
        <ele>168.84999999999999</ele>
        <time>2025-04-30T11:32:42Z</time>
      </trkpt>
      <trkpt lat="43.428041031584144" lon="-8.151422962546349">
        <ele>167.88999999999999</ele>
        <time>2025-04-30T11:32:43Z</time>
      </trkpt>
      <trkpt lat="43.427889989688993" lon="-8.151523964479566">
        <ele>166.93000000000001</ele>
        <time>2025-04-30T11:32:44Z</time>
      </trkpt>
      <trkpt lat="43.427725033834577" lon="-8.151611974462867">
        <ele>165</ele>
        <time>2025-04-30T11:32:45Z</time>
      </trkpt>
      <trkpt lat="43.427552031353116" lon="-8.151666037738323">
        <ele>163.56</ele>
        <time>2025-04-30T11:32:46Z</time>
      </trkpt>
      <trkpt lat="43.427372993901372" lon="-8.151718005537987">
        <ele>162.12</ele>
        <time>2025-04-30T11:32:47Z</time>
      </trkpt>
      <trkpt lat="43.427195968106389" lon="-8.15176997333765">
        <ele>160.68000000000001</ele>
        <time>2025-04-30T11:32:48Z</time>
      </trkpt>
      <trkpt lat="43.427021037787199" lon="-8.151744995266199">
        <ele>158.75</ele>
        <time>2025-04-30T11:32:49Z</time>
      </trkpt>
      <trkpt lat="43.426837977021933" lon="-8.151719011366367">
        <ele>157.78999999999999</ele>
        <time>2025-04-30T11:32:50Z</time>
      </trkpt>
      <trkpt lat="43.426648965105414" lon="-8.151692021638155">
        <ele>156.34999999999999</ele>
        <time>2025-04-30T11:32:51Z</time>
      </trkpt>
      <trkpt lat="43.424998987466097" lon="-8.15138298086822">
        <ele>141.93000000000001</ele>
        <time>2025-04-30T11:33:00Z</time>
      </trkpt>
      <trkpt lat="43.423900958150625" lon="-8.15136001445353">
        <ele>131.84</ele>
        <time>2025-04-30T11:33:06Z</time>
      </trkpt>
      <trkpt lat="43.423711024224758" lon="-8.151431009173393">
        <ele>130.40000000000001</ele>
        <time>2025-04-30T11:33:07Z</time>
      </trkpt>
      <trkpt lat="43.423523018136621" lon="-8.151524970307946">
        <ele>128.47</ele>
        <time>2025-04-30T11:33:08Z</time>
      </trkpt>
      <trkpt lat="43.423336017876863" lon="-8.15161800943315">
        <ele>127.03</ele>
        <time>2025-04-30T11:33:09Z</time>
      </trkpt>
      <trkpt lat="43.423148011788726" lon="-8.151712976396084">
        <ele>125.11</ele>
        <time>2025-04-30T11:33:10Z</time>
      </trkpt>
      <trkpt lat="43.422962017357349" lon="-8.151827976107597">
        <ele>123.19</ele>
        <time>2025-04-30T11:33:11Z</time>
      </trkpt>
      <trkpt lat="43.421513037756085" lon="-8.152828020974994">
        <ele>107.31999999999999</ele>
        <time>2025-04-30T11:33:19Z</time>
      </trkpt>
      <trkpt lat="43.420066991820931" lon="-8.153173020109534">
        <ele>94.829999999999998</ele>
        <time>2025-04-30T11:33:26Z</time>
      </trkpt>
      <trkpt lat="43.418480968102813" lon="-8.153676018118858">
        <ele>78.480000000000004</ele>
        <time>2025-04-30T11:33:34Z</time>
      </trkpt>
      <trkpt lat="43.417074987664819" lon="-8.15464798361063">
        <ele>64.549999999999997</ele>
        <time>2025-04-30T11:33:42Z</time>
      </trkpt>
      <trkpt lat="43.416162030771375" lon="-8.156019011512399">
        <ele>51.57</ele>
        <time>2025-04-30T11:33:49Z</time>
      </trkpt>
      <trkpt lat="43.414903990924358" lon="-8.157911980524659">
        <ele>35.229999999999997</ele>
        <time>2025-04-30T11:33:59Z</time>
      </trkpt>
      <trkpt lat="43.414364028722048" lon="-8.158722007647157">
        <ele>28.02</ele>
        <time>2025-04-30T11:34:05Z</time>
      </trkpt>
      <trkpt lat="43.414234025403857" lon="-8.159004980698228">
        <ele>24.649999999999999</ele>
        <time>2025-04-30T11:34:09Z</time>
      </trkpt>
      <trkpt lat="43.414123971015215" lon="-8.159239003434777">
        <ele>19.84</ele>
        <time>2025-04-30T11:34:16Z</time>
      </trkpt>
      <trkpt lat="43.414164036512375" lon="-8.159543015062809">
        <ele>18.879999999999999</ele>
        <time>2025-04-30T11:34:19Z</time>
      </trkpt>
      <trkpt lat="43.414152972400188" lon="-8.159625995904207">
        <ele>18.399999999999999</ele>
        <time>2025-04-30T11:34:20Z</time>
      </trkpt>
      <trkpt lat="43.414091030135751" lon="-8.159703025594354">
        <ele>17.920000000000002</ele>
        <time>2025-04-30T11:34:21Z</time>
      </trkpt>
      <trkpt lat="43.414041996002197" lon="-8.159780977293849">
        <ele>17.440000000000001</ele>
        <time>2025-04-30T11:34:22Z</time>
      </trkpt>
      <trkpt lat="43.413995979353786" lon="-8.15988902002573">
        <ele>16.960000000000001</ele>
        <time>2025-04-30T11:34:23Z</time>
      </trkpt>
      <trkpt lat="43.413947029039264" lon="-8.160003013908863">
        <ele>16.960000000000001</ele>
        <time>2025-04-30T11:34:24Z</time>
      </trkpt>
      <trkpt lat="43.41389698907733" lon="-8.160119019448757">
        <ele>16.48</ele>
        <time>2025-04-30T11:34:25Z</time>
      </trkpt>
      <trkpt lat="43.41385499574244" lon="-8.160240976139903">
        <ele>16</ele>
        <time>2025-04-30T11:34:26Z</time>
      </trkpt>
      <trkpt lat="43.413818031549454" lon="-8.160381959751248">
        <ele>16</ele>
        <time>2025-04-30T11:34:27Z</time>
      </trkpt>
      <trkpt lat="43.413778971880674" lon="-8.160528978332877">
        <ele>16</ele>
        <time>2025-04-30T11:34:28Z</time>
      </trkpt>
      <trkpt lat="43.413761034607887" lon="-8.160699969157577">
        <ele>15.52</ele>
        <time>2025-04-30T11:34:29Z</time>
      </trkpt>
      <trkpt lat="43.413816019892693" lon="-8.162112990394235">
        <ele>13.119999999999999</ele>
        <time>2025-04-30T11:34:36Z</time>
      </trkpt>
      <trkpt lat="43.413849966600537" lon="-8.162347013130784">
        <ele>13.119999999999999</ele>
        <time>2025-04-30T11:34:37Z</time>
      </trkpt>
      <trkpt lat="43.414075020700693" lon="-8.16390797495842">
        <ele>11.19</ele>
        <time>2025-04-30T11:34:44Z</time>
      </trkpt>
      <trkpt lat="43.414056999608874" lon="-8.164290022104979">
        <ele>10.23</ele>
        <time>2025-04-30T11:34:46Z</time>
      </trkpt>
      <trkpt lat="43.413720969110727" lon="-8.165545966476202">
        <ele>9.27</ele>
        <time>2025-04-30T11:34:53Z</time>
      </trkpt>
      <trkpt lat="43.412852017208934" lon="-8.166986983269453">
        <ele>6.87</ele>
        <time>2025-04-30T11:35:03Z</time>
      </trkpt>
      <trkpt lat="43.412799965590239" lon="-8.167113969102502">
        <ele>6.87</ele>
        <time>2025-04-30T11:35:04Z</time>
      </trkpt>
      <trkpt lat="43.412717990577221" lon="-8.167332988232374">
        <ele>6.39</ele>
        <time>2025-04-30T11:35:06Z</time>
      </trkpt>
      <trkpt lat="43.412645990028977" lon="-8.167549995705485">
        <ele>5.42</ele>
        <time>2025-04-30T11:35:12Z</time>
      </trkpt>
      <trkpt lat="43.412635009735823" lon="-8.167779995128512">
        <ele>4.94</ele>
        <time>2025-04-30T11:35:18Z</time>
      </trkpt>
      <trkpt lat="43.412798037752509" lon="-8.167970012873411">
        <ele>4.94</ele>
        <time>2025-04-30T11:35:19Z</time>
      </trkpt>
      <trkpt lat="43.412798037752509" lon="-8.167970012873411">
        <ele>4.94</ele>
        <time>2025-04-30T11:35:20Z</time>
      </trkpt>
      <trkpt lat="43.412868026643991" lon="-8.168098004534841">
        <ele>5.42</ele>
        <time>2025-04-30T11:35:22Z</time>
      </trkpt>
      <trkpt lat="43.412913037464023" lon="-8.168179979547858">
        <ele>5.91</ele>
        <time>2025-04-30T11:35:23Z</time>
      </trkpt>
      <trkpt lat="43.412911025807261" lon="-8.168303025886416">
        <ele>6.39</ele>
        <time>2025-04-30T11:35:24Z</time>
      </trkpt>
      <trkpt lat="43.412891998887062" lon="-8.168414002284408">
        <ele>6.39</ele>
        <time>2025-04-30T11:35:25Z</time>
      </trkpt>
      <trkpt lat="43.412836007773876" lon="-8.168511986732483">
        <ele>6.39</ele>
        <time>2025-04-30T11:35:26Z</time>
      </trkpt>
      <trkpt lat="43.412767024710774" lon="-8.168579963967204">
        <ele>6.87</ele>
        <time>2025-04-30T11:35:27Z</time>
      </trkpt>
      <trkpt lat="43.412681026384234" lon="-8.168576024472714">
        <ele>6.87</ele>
        <time>2025-04-30T11:35:28Z</time>
      </trkpt>
      <trkpt lat="43.412589998915792" lon="-8.168555991724134">
        <ele>6.87</ele>
        <time>2025-04-30T11:35:29Z</time>
      </trkpt>
      <trkpt lat="43.412486985325813" lon="-8.168550040572882">
        <ele>7.35</ele>
        <time>2025-04-30T11:35:30Z</time>
      </trkpt>
      <trkpt lat="43.412383971735835" lon="-8.168550040572882">
        <ele>7.35</ele>
        <time>2025-04-30T11:35:31Z</time>
      </trkpt>
      <trkpt lat="43.412276012822986" lon="-8.168550040572882">
        <ele>7.35</ele>
        <time>2025-04-30T11:35:32Z</time>
      </trkpt>
      <trkpt lat="43.412163024768233" lon="-8.168550040572882">
        <ele>7.35</ele>
        <time>2025-04-30T11:35:33Z</time>
      </trkpt>
      <trkpt lat="43.411106988787651" lon="-8.168886993080378">
        <ele>8.789999999999999</ele>
        <time>2025-04-30T11:35:43Z</time>
      </trkpt>
      <trkpt lat="43.409753981977701" lon="-8.169323019683361">
        <ele>12.15</ele>
        <time>2025-04-30T11:35:58Z</time>
      </trkpt>
      <trkpt lat="43.408254962414503" lon="-8.169799027964473">
        <ele>12.630000000000001</ele>
        <time>2025-04-30T11:36:12Z</time>
      </trkpt>
      <trkpt lat="43.407821031287313" lon="-8.169932970777154">
        <ele>13.119999999999999</ele>
        <time>2025-04-30T11:36:19Z</time>
      </trkpt>
      <trkpt lat="43.407448036596179" lon="-8.170131035149097">
        <ele>13.119999999999999</ele>
        <time>2025-04-30T11:36:24Z</time>
      </trkpt>
      <trkpt lat="43.407391039654613" lon="-8.17011603154242">
        <ele>13.119999999999999</ele>
        <time>2025-04-30T11:36:25Z</time>
      </trkpt>
      <trkpt lat="43.407325996086001" lon="-8.16996599547565">
        <ele>13.119999999999999</ele>
        <time>2025-04-30T11:36:26Z</time>
      </trkpt>
      <trkpt lat="43.407284002751112" lon="-8.1699029635638">
        <ele>13.119999999999999</ele>
        <time>2025-04-30T11:36:27Z</time>
      </trkpt>
      <trkpt lat="43.407235974445939" lon="-8.169830963015556">
        <ele>13.119999999999999</ele>
        <time>2025-04-30T11:36:28Z</time>
      </trkpt>
      <trkpt lat="43.406834984198213" lon="-8.169367024675012">
        <ele>13.6</ele>
        <time>2025-04-30T11:36:36Z</time>
      </trkpt>
      <trkpt lat="43.406787039712071" lon="-8.169320002198219">
        <ele>14.08</ele>
        <time>2025-04-30T11:36:37Z</time>
      </trkpt>
      <trkpt lat="43.406768012791872" lon="-8.16930097527802">
        <ele>14.08</ele>
        <time>2025-04-30T11:36:38Z</time>
      </trkpt>
      <trkpt lat="43.406673967838287" lon="-8.169170971959829">
        <ele>14.08</ele>
        <time>2025-04-30T11:36:41Z</time>
      </trkpt>
      <trkpt lat="43.406631974503398" lon="-8.169112969189882">
        <ele>14.08</ele>
        <time>2025-04-30T11:36:42Z</time>
      </trkpt>
      <trkpt lat="43.406137023121119" lon="-8.168708039447665">
        <ele>16.960000000000001</ele>
        <time>2025-04-30T11:36:51Z</time>
      </trkpt>
      <trkpt lat="43.405901994556189" lon="-8.168497988954186">
        <ele>18.879999999999999</ele>
        <time>2025-04-30T11:37:01Z</time>
      </trkpt>
      <trkpt lat="43.405758999288082" lon="-8.168371003121138">
        <ele>20.809999999999999</ele>
        <time>2025-04-30T11:37:20Z</time>
      </trkpt>
      <trkpt lat="43.40517302043736" lon="-8.167562987655401">
        <ele>25.609999999999999</ele>
        <time>2025-04-30T11:37:30Z</time>
      </trkpt>
      <trkpt lat="43.404966993257403" lon="-8.167210025712848">
        <ele>27.050000000000001</ele>
        <time>2025-04-30T11:37:33Z</time>
      </trkpt>
      <trkpt lat="43.404242964461446" lon="-8.165844026952982">
        <ele>33.299999999999997</ele>
        <time>2025-04-30T11:37:43Z</time>
      </trkpt>
      <trkpt lat="43.404167024418712" lon="-8.165702037513256">
        <ele>33.780000000000001</ele>
        <time>2025-04-30T11:37:44Z</time>
      </trkpt>
      <trkpt lat="43.403735021129251" lon="-8.164791008457542">
        <ele>36.189999999999998</ele>
        <time>2025-04-30T11:37:50Z</time>
      </trkpt>
      <trkpt lat="43.403352973982692" lon="-8.162978002801538">
        <ele>41.469999999999999</ele>
        <time>2025-04-30T11:37:59Z</time>
      </trkpt>
      <trkpt lat="43.403266975656152" lon="-8.162582041695714">
        <ele>42.439999999999998</ele>
        <time>2025-04-30T11:38:01Z</time>
      </trkpt>
      <trkpt lat="43.403183994814754" lon="-8.162404010072351">
        <ele>42.920000000000002</ele>
        <time>2025-04-30T11:38:02Z</time>
      </trkpt>
      <trkpt lat="43.403079975396395" lon="-8.16225397400558">
        <ele>43.880000000000003</ele>
        <time>2025-04-30T11:38:03Z</time>
      </trkpt>
      <trkpt lat="43.402957012876868" lon="-8.162152972072363">
        <ele>44.840000000000003</ele>
        <time>2025-04-30T11:38:04Z</time>
      </trkpt>
      <trkpt lat="43.40281100012362" lon="-8.162121959030628">
        <ele>45.799999999999997</ele>
        <time>2025-04-30T11:38:05Z</time>
      </trkpt>
      <trkpt lat="43.402655012905598" lon="-8.162132017314434">
        <ele>46.280000000000001</ele>
        <time>2025-04-30T11:38:06Z</time>
      </trkpt>
      <trkpt lat="43.402496008202434" lon="-8.162183985114098">
        <ele>47.240000000000002</ele>
        <time>2025-04-30T11:38:07Z</time>
      </trkpt>
      <trkpt lat="43.40233800932765" lon="-8.162236958742142">
        <ele>48.200000000000003</ele>
        <time>2025-04-30T11:38:08Z</time>
      </trkpt>
      <trkpt lat="43.400911996141076" lon="-8.163129966706038">
        <ele>56.369999999999997</ele>
        <time>2025-04-30T11:38:18Z</time>
      </trkpt>
      <trkpt lat="43.399368971586227" lon="-8.164623035117984">
        <ele>68.390000000000001</ele>
        <time>2025-04-30T11:38:31Z</time>
      </trkpt>
      <trkpt lat="43.399262018501759" lon="-8.164736023172736">
        <ele>69.349999999999994</ele>
        <time>2025-04-30T11:38:32Z</time>
      </trkpt>
      <trkpt lat="43.398163989186287" lon="-8.166275024414063">
        <ele>80.409999999999997</ele>
        <time>2025-04-30T11:38:43Z</time>
      </trkpt>
      <trkpt lat="43.397646993398666" lon="-8.167165014892817">
        <ele>84.25</ele>
        <time>2025-04-30T11:38:48Z</time>
      </trkpt>
      <trkpt lat="43.397572981193662" lon="-8.16738897934556">
        <ele>85.209999999999994</ele>
        <time>2025-04-30T11:38:49Z</time>
      </trkpt>
      <trkpt lat="43.397520007565618" lon="-8.167628031224012">
        <ele>85.689999999999998</ele>
        <time>2025-04-30T11:38:50Z</time>
      </trkpt>
      <trkpt lat="43.39748103171587" lon="-8.167885020375252">
        <ele>86.659999999999997</ele>
        <time>2025-04-30T11:38:51Z</time>
      </trkpt>
      <trkpt lat="43.397497041150928" lon="-8.168136980384588">
        <ele>87.620000000000005</ele>
        <time>2025-04-30T11:38:52Z</time>
      </trkpt>
      <trkpt lat="43.397562000900507" lon="-8.168401010334492">
        <ele>88.579999999999998</ele>
        <time>2025-04-30T11:38:53Z</time>
      </trkpt>
      <trkpt lat="43.397672977298498" lon="-8.168637966737151">
        <ele>89.540000000000006</ele>
        <time>2025-04-30T11:38:54Z</time>
      </trkpt>
      <trkpt lat="43.397798035293818" lon="-8.168854974210262">
        <ele>90.5</ele>
        <time>2025-04-30T11:38:55Z</time>
      </trkpt>
      <trkpt lat="43.397986041381955" lon="-8.169009033590555">
        <ele>90.980000000000004</ele>
        <time>2025-04-30T11:38:56Z</time>
      </trkpt>
      <trkpt lat="43.398163989186287" lon="-8.169134007766843">
        <ele>91.939999999999998</ele>
        <time>2025-04-30T11:38:57Z</time>
      </trkpt>
      <trkpt lat="43.398378985002637" lon="-8.169193016365171">
        <ele>92.900000000000006</ele>
        <time>2025-04-30T11:38:58Z</time>
      </trkpt>
      <trkpt lat="43.398583000525832" lon="-8.169193016365171">
        <ele>94.349999999999994</ele>
        <time>2025-04-30T11:38:59Z</time>
      </trkpt>
      <trkpt lat="43.398782992735505" lon="-8.169131996110082">
        <ele>95.310000000000002</ele>
        <time>2025-04-30T11:39:00Z</time>
      </trkpt>
      <trkpt lat="43.398964963853359" lon="-8.169007021933794">
        <ele>96.75</ele>
        <time>2025-04-30T11:39:01Z</time>
      </trkpt>
      <trkpt lat="43.399118017405272" lon="-8.168833013623953">
        <ele>97.709999999999994</ele>
        <time>2025-04-30T11:39:02Z</time>
      </trkpt>
      <trkpt lat="43.399261012673378" lon="-8.168645007535815">
        <ele>98.670000000000002</ele>
        <time>2025-04-30T11:39:03Z</time>
      </trkpt>
      <trkpt lat="43.39939596131444" lon="-8.168447026982904">
        <ele>99.629999999999995</ele>
        <time>2025-04-30T11:39:04Z</time>
      </trkpt>
      <trkpt lat="43.400028040632606" lon="-8.167500961571932">
        <ele>103.95999999999999</ele>
        <time>2025-04-30T11:39:09Z</time>
      </trkpt>
      <trkpt lat="43.400158965960145" lon="-8.167369030416012">
        <ele>104.92</ele>
        <time>2025-04-30T11:39:10Z</time>
      </trkpt>
      <trkpt lat="43.400309002026916" lon="-8.167287977412343">
        <ele>105.40000000000001</ele>
        <time>2025-04-30T11:39:11Z</time>
      </trkpt>
      <trkpt lat="43.400451997295022" lon="-8.167251013219357">
        <ele>105.88</ele>
        <time>2025-04-30T11:39:12Z</time>
      </trkpt>
      <trkpt lat="43.400614019483328" lon="-8.167282026261091">
        <ele>106.36</ele>
        <time>2025-04-30T11:39:13Z</time>
      </trkpt>
      <trkpt lat="43.400757014751434" lon="-8.1673230137676">
        <ele>107.31999999999999</ele>
        <time>2025-04-30T11:39:14Z</time>
      </trkpt>
      <trkpt lat="43.400894980877638" lon="-8.167460979893804">
        <ele>107.81</ele>
        <time>2025-04-30T11:39:15Z</time>
      </trkpt>
      <trkpt lat="43.401020038872957" lon="-8.167587965726852">
        <ele>108.77</ele>
        <time>2025-04-30T11:39:16Z</time>
      </trkpt>
      <trkpt lat="43.401104025542736" lon="-8.167776977643371">
        <ele>109.73</ele>
        <time>2025-04-30T11:39:17Z</time>
      </trkpt>
      <trkpt lat="43.401153981685638" lon="-8.167991973459721">
        <ele>110.69</ele>
        <time>2025-04-30T11:39:18Z</time>
      </trkpt>
      <trkpt lat="43.401184994727373" lon="-8.168200012296438">
        <ele>111.65000000000001</ele>
        <time>2025-04-30T11:39:19Z</time>
      </trkpt>
      <trkpt lat="43.401167979463935" lon="-8.16842095926404">
        <ele>112.61</ele>
        <time>2025-04-30T11:39:20Z</time>
      </trkpt>
      <trkpt lat="43.401100002229214" lon="-8.168623968958855">
        <ele>113.56999999999999</ele>
        <time>2025-04-30T11:39:21Z</time>
      </trkpt>
      <trkpt lat="43.401030013337731" lon="-8.16878498531878">
        <ele>114.53</ele>
        <time>2025-04-30T11:39:22Z</time>
      </trkpt>
      <trkpt lat="43.400934040546417" lon="-8.168921023607254">
        <ele>115.5</ele>
        <time>2025-04-30T11:39:23Z</time>
      </trkpt>
      <trkpt lat="43.400846030563116" lon="-8.1690429802984">
        <ele>116.45999999999999</ele>
        <time>2025-04-30T11:39:24Z</time>
      </trkpt>
      <trkpt lat="43.40074997395277" lon="-8.169142976403236">
        <ele>117.42</ele>
        <time>2025-04-30T11:39:25Z</time>
      </trkpt>
      <trkpt lat="43.400649977847934" lon="-8.169246995821595">
        <ele>118.38</ele>
        <time>2025-04-30T11:39:26Z</time>
      </trkpt>
      <trkpt lat="43.399625960737467" lon="-8.170099016278982">
        <ele>125.59</ele>
        <time>2025-04-30T11:39:35Z</time>
      </trkpt>
      <trkpt lat="43.398893969133496" lon="-8.170577036216855">
        <ele>129.43000000000001</ele>
        <time>2025-04-30T11:39:41Z</time>
      </trkpt>
      <trkpt lat="43.397453036159277" lon="-8.171326965093613">
        <ele>136.63999999999999</ele>
        <time>2025-04-30T11:39:52Z</time>
      </trkpt>
      <trkpt lat="43.396307984367013" lon="-8.171264017000794">
        <ele>142.41</ele>
        <time>2025-04-30T11:40:01Z</time>
      </trkpt>
      <trkpt lat="43.395814960822463" lon="-8.171195033937693">
        <ele>144.34</ele>
        <time>2025-04-30T11:40:05Z</time>
      </trkpt>
      <trkpt lat="43.395696021616459" lon="-8.171177012845874">
        <ele>144.34</ele>
        <time>2025-04-30T11:40:06Z</time>
      </trkpt>
      <trkpt lat="43.394466983154416" lon="-8.170978026464582">
        <ele>146.74000000000001</ele>
        <time>2025-04-30T11:40:16Z</time>
      </trkpt>
      <trkpt lat="43.39372300542891" lon="-8.170767975971103">
        <ele>149.62</ele>
        <time>2025-04-30T11:40:22Z</time>
      </trkpt>
      <trkpt lat="43.39361697435379" lon="-8.170694969594479">
        <ele>150.09999999999999</ele>
        <time>2025-04-30T11:40:23Z</time>
      </trkpt>
      <trkpt lat="43.393176002427936" lon="-8.17035399377346">
        <ele>152.03</ele>
        <time>2025-04-30T11:40:27Z</time>
      </trkpt>
      <trkpt lat="43.393065026029944" lon="-8.17026799544692">
        <ele>152.50999999999999</ele>
        <time>2025-04-30T11:40:28Z</time>
      </trkpt>
      <trkpt lat="43.391807992011309" lon="-8.169154040515423">
        <ele>160.68000000000001</ele>
        <time>2025-04-30T11:40:40Z</time>
      </trkpt>
      <trkpt lat="43.391169039532542" lon="-8.168665040284395">
        <ele>164.03999999999999</ele>
        <time>2025-04-30T11:40:46Z</time>
      </trkpt>
      <trkpt lat="43.389656022191048" lon="-8.167878985404968">
        <ele>162.12</ele>
        <time>2025-04-30T11:40:57Z</time>
      </trkpt>
      <trkpt lat="43.389489976689219" lon="-8.16779600456357">
        <ele>161.63999999999999</ele>
        <time>2025-04-30T11:40:58Z</time>
      </trkpt>
      <trkpt lat="43.388576013967395" lon="-8.167503979057074">
        <ele>158.27000000000001</ele>
        <time>2025-04-30T11:41:03Z</time>
      </trkpt>
      <trkpt lat="43.388375015929341" lon="-8.167512025684118">
        <ele>157.31</ele>
        <time>2025-04-30T11:41:04Z</time>
      </trkpt>
      <trkpt lat="43.388171000406146" lon="-8.167531974613667">
        <ele>156.34999999999999</ele>
        <time>2025-04-30T11:41:05Z</time>
      </trkpt>
      <trkpt lat="43.387974025681615" lon="-8.167597018182278">
        <ele>154.91</ele>
        <time>2025-04-30T11:41:06Z</time>
      </trkpt>
      <trkpt lat="43.387773027643561" lon="-8.167664995416999">
        <ele>153.47</ele>
        <time>2025-04-30T11:41:07Z</time>
      </trkpt>
      <trkpt lat="43.387576974928379" lon="-8.167781000956893">
        <ele>151.53999999999999</ele>
        <time>2025-04-30T11:41:08Z</time>
      </trkpt>
      <trkpt lat="43.387378994375467" lon="-8.167903963476419">
        <ele>150.09999999999999</ele>
        <time>2025-04-30T11:41:09Z</time>
      </trkpt>
      <trkpt lat="43.387192999944091" lon="-8.168061962351203">
        <ele>149.13999999999999</ele>
        <time>2025-04-30T11:41:10Z</time>
      </trkpt>
      <trkpt lat="43.387023014947772" lon="-8.168245023116469">
        <ele>147.69999999999999</ele>
        <time>2025-04-30T11:41:11Z</time>
      </trkpt>
      <trkpt lat="43.386860992759466" lon="-8.168443003669381">
        <ele>146.25999999999999</ele>
        <time>2025-04-30T11:41:12Z</time>
      </trkpt>
      <trkpt lat="43.386708023026586" lon="-8.168650958687067">
        <ele>145.30000000000001</ele>
        <time>2025-04-30T11:41:13Z</time>
      </trkpt>
      <trkpt lat="43.385375970974565" lon="-8.170363968238235">
        <ele>135.19999999999999</ele>
        <time>2025-04-30T11:41:21Z</time>
      </trkpt>
      <trkpt lat="43.385181007906795" lon="-8.170551974326372">
        <ele>134.24000000000001</ele>
        <time>2025-04-30T11:41:22Z</time>
      </trkpt>
      <trkpt lat="43.384975986555219" lon="-8.170721959322691">
        <ele>133.28</ele>
        <time>2025-04-30T11:41:23Z</time>
      </trkpt>
      <trkpt lat="43.382998025044799" lon="-8.171938005834818">
        <ele>122.70999999999999</ele>
        <time>2025-04-30T11:41:32Z</time>
      </trkpt>
      <trkpt lat="43.381494982168078" lon="-8.172691036015749">
        <ele>115.5</ele>
        <time>2025-04-30T11:41:40Z</time>
      </trkpt>
      <trkpt lat="43.379389028996229" lon="-8.173635005950928">
        <ele>106.84</ele>
        <time>2025-04-30T11:41:51Z</time>
      </trkpt>
      <trkpt lat="43.378138029947877" lon="-8.17430698312819">
        <ele>102.52</ele>
        <time>2025-04-30T11:41:57Z</time>
      </trkpt>
      <trkpt lat="43.377955975010991" lon="-8.174502030014992">
        <ele>102.52</ele>
        <time>2025-04-30T11:41:58Z</time>
      </trkpt>
      <trkpt lat="43.377788001671433" lon="-8.174716020002961">
        <ele>103</ele>
        <time>2025-04-30T11:41:59Z</time>
      </trkpt>
      <trkpt lat="43.377632014453411" lon="-8.17494903691113">
        <ele>103.95999999999999</ele>
        <time>2025-04-30T11:42:00Z</time>
      </trkpt>
      <trkpt lat="43.377474015578628" lon="-8.175185993313789">
        <ele>104.92</ele>
        <time>2025-04-30T11:42:01Z</time>
      </trkpt>
      <trkpt lat="43.376815030351281" lon="-8.176100961863995">
        <ele>109.73</ele>
        <time>2025-04-30T11:42:05Z</time>
      </trkpt>
      <trkpt lat="43.376615038141608" lon="-8.176258960738778">
        <ele>111.17</ele>
        <time>2025-04-30T11:42:06Z</time>
      </trkpt>
      <trkpt lat="43.37640599347651" lon="-8.176425006240606">
        <ele>112.13</ele>
        <time>2025-04-30T11:42:07Z</time>
      </trkpt>
      <trkpt lat="43.376201977953315" lon="-8.176543023437262">
        <ele>112.61</ele>
        <time>2025-04-30T11:42:08Z</time>
      </trkpt>
      <trkpt lat="43.37597600184381" lon="-8.176621980965138">
        <ele>113.56999999999999</ele>
        <time>2025-04-30T11:42:09Z</time>
      </trkpt>
      <trkpt lat="43.375746002420783" lon="-8.176681995391846">
        <ele>114.05</ele>
        <time>2025-04-30T11:42:10Z</time>
      </trkpt>
      <trkpt lat="43.375512985512614" lon="-8.176681995391846">
        <ele>114.05</ele>
        <time>2025-04-30T11:42:11Z</time>
      </trkpt>
      <trkpt lat="43.375274017453194" lon="-8.176681995391846">
        <ele>114.05</ele>
        <time>2025-04-30T11:42:12Z</time>
      </trkpt>
      <trkpt lat="43.375033037737012" lon="-8.176664980128408">
        <ele>114.05</ele>
        <time>2025-04-30T11:42:13Z</time>
      </trkpt>
      <trkpt lat="43.373336959630251" lon="-8.176619969308376">
        <ele>109.73</ele>
        <time>2025-04-30T11:42:20Z</time>
      </trkpt>
      <trkpt lat="43.37311701849103" lon="-8.1767120026052">
        <ele>109.25</ele>
        <time>2025-04-30T11:42:21Z</time>
      </trkpt>
      <trkpt lat="43.372896993532777" lon="-8.176804035902023">
        <ele>108.29000000000001</ele>
        <time>2025-04-30T11:42:22Z</time>
      </trkpt>
      <trkpt lat="43.371622022241354" lon="-8.1776790227741">
        <ele>106.36</ele>
        <time>2025-04-30T11:42:28Z</time>
      </trkpt>
      <trkpt lat="43.370228027924895" lon="-8.178727012127638">
        <ele>111.17</ele>
        <time>2025-04-30T11:42:35Z</time>
      </trkpt>
      <trkpt lat="43.368797991424799" lon="-8.179639969021082">
        <ele>112.13</ele>
        <time>2025-04-30T11:42:43Z</time>
      </trkpt>
      <trkpt lat="43.368590036407113" lon="-8.179691014811397">
        <ele>112.13</ele>
        <time>2025-04-30T11:42:44Z</time>
      </trkpt>
      <trkpt lat="43.368375040590763" lon="-8.179726973176003">
        <ele>111.65000000000001</ele>
        <time>2025-04-30T11:42:45Z</time>
      </trkpt>
      <trkpt lat="43.36815501563251" lon="-8.179712975397706">
        <ele>111.17</ele>
        <time>2025-04-30T11:42:46Z</time>
      </trkpt>
      <trkpt lat="43.367934990674257" lon="-8.179666036739945">
        <ele>110.20999999999999</ele>
        <time>2025-04-30T11:42:47Z</time>
      </trkpt>
      <trkpt lat="43.367713037878275" lon="-8.179603004828095">
        <ele>109.73</ele>
        <time>2025-04-30T11:42:48Z</time>
      </trkpt>
      <trkpt lat="43.367497036233544" lon="-8.179508037865162">
        <ele>108.77</ele>
        <time>2025-04-30T11:42:49Z</time>
      </trkpt>
      <trkpt lat="43.365956023335457" lon="-8.178570019081235">
        <ele>101.56</ele>
        <time>2025-04-30T11:42:56Z</time>
      </trkpt>
      <trkpt lat="43.36570699699223" lon="-8.178482009097934">
        <ele>100.59999999999999</ele>
        <time>2025-04-30T11:42:57Z</time>
      </trkpt>
      <trkpt lat="43.365493007004261" lon="-8.178404979407787">
        <ele>99.629999999999995</ele>
        <time>2025-04-30T11:42:58Z</time>
      </trkpt>
      <trkpt lat="43.36527599953115" lon="-8.178358962759376">
        <ele>98.189999999999998</ele>
        <time>2025-04-30T11:42:59Z</time>
      </trkpt>
      <trkpt lat="43.365067960694432" lon="-8.178368015214801">
        <ele>97.230000000000004</ele>
        <time>2025-04-30T11:43:00Z</time>
      </trkpt>
      <trkpt lat="43.364861011505127" lon="-8.178375978022814">
        <ele>96.269999999999996</ele>
        <time>2025-04-30T11:43:01Z</time>
      </trkpt>
      <trkpt lat="43.364650039002299" lon="-8.178450996056199">
        <ele>94.829999999999998</ele>
        <time>2025-04-30T11:43:02Z</time>
      </trkpt>
      <trkpt lat="43.364440994337201" lon="-8.178530959412456">
        <ele>93.870000000000005</ele>
        <time>2025-04-30T11:43:03Z</time>
      </trkpt>
      <trkpt lat="43.364221975207329" lon="-8.178605977445841">
        <ele>93.390000000000001</ele>
        <time>2025-04-30T11:43:04Z</time>
      </trkpt>
      <trkpt lat="43.363140961155295" lon="-8.17907796241343">
        <ele>89.540000000000006</ele>
        <time>2025-04-30T11:43:09Z</time>
      </trkpt>
      <trkpt lat="43.362935017794371" lon="-8.179134959354997">
        <ele>89.060000000000002</ele>
        <time>2025-04-30T11:43:10Z</time>
      </trkpt>
      <trkpt lat="43.36274097673595" lon="-8.179171001538634">
        <ele>87.620000000000005</ele>
        <time>2025-04-30T11:43:11Z</time>
      </trkpt>
      <trkpt lat="43.361791977658868" lon="-8.179147029295564">
        <ele>82.329999999999998</ele>
        <time>2025-04-30T11:43:17Z</time>
      </trkpt>
      <trkpt lat="43.360192961990833" lon="-8.179171001538634">
        <ele>77.040000000000006</ele>
        <time>2025-04-30T11:43:29Z</time>
      </trkpt>
      <trkpt lat="43.359000971540809" lon="-8.179454980418086">
        <ele>71.760000000000005</ele>
        <time>2025-04-30T11:43:39Z</time>
      </trkpt>
      <trkpt lat="43.358878009021282" lon="-8.179535027593374">
        <ele>70.790000000000006</ele>
        <time>2025-04-30T11:43:40Z</time>
      </trkpt>
      <trkpt lat="43.358759991824627" lon="-8.179649021476507">
        <ele>69.829999999999998</ele>
        <time>2025-04-30T11:43:41Z</time>
      </trkpt>
      <trkpt lat="43.358654966577888" lon="-8.179795034229755">
        <ele>68.870000000000005</ele>
        <time>2025-04-30T11:43:42Z</time>
      </trkpt>
      <trkpt lat="43.358532004058361" lon="-8.179965019226074">
        <ele>67.909999999999997</ele>
        <time>2025-04-30T11:43:43Z</time>
      </trkpt>
      <trkpt lat="43.358461009338498" lon="-8.180155036970973">
        <ele>66.950000000000003</ele>
        <time>2025-04-30T11:43:44Z</time>
      </trkpt>
      <trkpt lat="43.358411975204945" lon="-8.18038797006011">
        <ele>65.989999999999995</ele>
        <time>2025-04-30T11:43:45Z</time>
      </trkpt>
      <trkpt lat="43.358389008790255" lon="-8.180617969483137">
        <ele>65.030000000000001</ele>
        <time>2025-04-30T11:43:46Z</time>
      </trkpt>
      <trkpt lat="43.358366964384913" lon="-8.180842017754912">
        <ele>64.549999999999997</ele>
        <time>2025-04-30T11:43:47Z</time>
      </trkpt>
      <trkpt lat="43.35833796299994" lon="-8.181063970550895">
        <ele>63.579999999999998</ele>
        <time>2025-04-30T11:43:48Z</time>
      </trkpt>
      <trkpt lat="43.358305022120476" lon="-8.182214973494411">
        <ele>57.82</ele>
        <time>2025-04-30T11:43:54Z</time>
      </trkpt>
      <trkpt lat="43.358255987986922" lon="-8.182397028431296">
        <ele>56.859999999999999</ele>
        <time>2025-04-30T11:43:55Z</time>
      </trkpt>
      <trkpt lat="43.358191028237343" lon="-8.182565001770854">
        <ele>56.369999999999997</ele>
        <time>2025-04-30T11:43:56Z</time>
      </trkpt>
      <trkpt lat="43.358115004375577" lon="-8.182755019515753">
        <ele>55.409999999999997</ele>
        <time>2025-04-30T11:43:57Z</time>
      </trkpt>
      <trkpt lat="43.358037974685431" lon="-8.182947970926762">
        <ele>54.93</ele>
        <time>2025-04-30T11:43:58Z</time>
      </trkpt>
      <trkpt lat="43.35790797136724" lon="-8.183095995336771">
        <ele>53.969999999999999</ele>
        <time>2025-04-30T11:43:59Z</time>
      </trkpt>
      <trkpt lat="43.35777897387743" lon="-8.183252988383174">
        <ele>53.009999999999998</ele>
        <time>2025-04-30T11:44:00Z</time>
      </trkpt>
      <trkpt lat="43.357652993872762" lon="-8.183408975601196">
        <ele>52.049999999999997</ele>
        <time>2025-04-30T11:44:01Z</time>
      </trkpt>
      <trkpt lat="43.357269018888474" lon="-8.183934018015862">
        <ele>49.649999999999999</ele>
        <time>2025-04-30T11:44:04Z</time>
      </trkpt>
      <trkpt lat="43.357143960893154" lon="-8.184135016053915">
        <ele>48.68</ele>
        <time>2025-04-30T11:44:05Z</time>
      </trkpt>
      <trkpt lat="43.357038013637066" lon="-8.184365015476942">
        <ele>47.240000000000002</ele>
        <time>2025-04-30T11:44:06Z</time>
      </trkpt>
      <trkpt lat="43.356946986168623" lon="-8.184611024335027">
        <ele>46.280000000000001</ele>
        <time>2025-04-30T11:44:07Z</time>
      </trkpt>
      <trkpt lat="43.356865011155605" lon="-8.184866001829505">
        <ele>45.32</ele>
        <time>2025-04-30T11:44:08Z</time>
      </trkpt>
      <trkpt lat="43.356797033920884" lon="-8.185139000415802">
        <ele>43.880000000000003</ele>
        <time>2025-04-30T11:44:09Z</time>
      </trkpt>
      <trkpt lat="43.356753028929234" lon="-8.185419039800763">
        <ele>42.920000000000002</ele>
        <time>2025-04-30T11:44:10Z</time>
      </trkpt>
      <trkpt lat="43.356720004230738" lon="-8.185708969831467">
        <ele>41.950000000000003</ele>
        <time>2025-04-30T11:44:11Z</time>
      </trkpt>
      <trkpt lat="43.356711035594344" lon="-8.185996972024441">
        <ele>40.990000000000002</ele>
        <time>2025-04-30T11:44:12Z</time>
      </trkpt>
      <trkpt lat="43.356721010059118" lon="-8.186283968389034">
        <ele>40.030000000000001</ele>
        <time>2025-04-30T11:44:13Z</time>
      </trkpt>
      <trkpt lat="43.356732996180654" lon="-8.186578005552292">
        <ele>39.07</ele>
        <time>2025-04-30T11:44:14Z</time>
      </trkpt>
      <trkpt lat="43.356831986457109" lon="-8.189230961725116">
        <ele>29.940000000000001</ele>
        <time>2025-04-30T11:44:23Z</time>
      </trkpt>
      <trkpt lat="43.35689602419734" lon="-8.191559035331011">
        <ele>21.289999999999999</ele>
        <time>2025-04-30T11:44:31Z</time>
      </trkpt>
      <trkpt lat="43.356867022812366" lon="-8.191843014210463">
        <ele>20.32</ele>
        <time>2025-04-30T11:44:32Z</time>
      </trkpt>
      <trkpt lat="43.3568100258708" lon="-8.192111989483237">
        <ele>19.84</ele>
        <time>2025-04-30T11:44:33Z</time>
      </trkpt>
      <trkpt lat="43.356730984523892" lon="-8.192377025261521">
        <ele>19.359999999999999</ele>
        <time>2025-04-30T11:44:34Z</time>
      </trkpt>
      <trkpt lat="43.356636017560959" lon="-8.192638037726283">
        <ele>19.359999999999999</ele>
        <time>2025-04-30T11:44:35Z</time>
      </trkpt>
      <trkpt lat="43.356541972607374" lon="-8.192894021049142">
        <ele>19.84</ele>
        <time>2025-04-30T11:44:36Z</time>
      </trkpt>
      <trkpt lat="43.3564249612391" lon="-8.19312896579504">
        <ele>20.32</ele>
        <time>2025-04-30T11:44:37Z</time>
      </trkpt>
      <trkpt lat="43.35629696957767" lon="-8.193357037380338">
        <ele>20.809999999999999</ele>
        <time>2025-04-30T11:44:38Z</time>
      </trkpt>
      <trkpt lat="43.356139976531267" lon="-8.19353599101305">
        <ele>21.77</ele>
        <time>2025-04-30T11:44:39Z</time>
      </trkpt>
      <trkpt lat="43.355969991534948" lon="-8.193705976009369">
        <ele>22.73</ele>
        <time>2025-04-30T11:44:40Z</time>
      </trkpt>
      <trkpt lat="43.355794977396727" lon="-8.193869004026055">
        <ele>24.170000000000002</ele>
        <time>2025-04-30T11:44:41Z</time>
      </trkpt>
      <trkpt lat="43.355610994622111" lon="-8.194014010950923">
        <ele>25.129999999999999</ele>
        <time>2025-04-30T11:44:42Z</time>
      </trkpt>
      <trkpt lat="43.355412008240819" lon="-8.194131022319198">
        <ele>26.09</ele>
        <time>2025-04-30T11:44:43Z</time>
      </trkpt>
      <trkpt lat="43.355211010202765" lon="-8.194232024252415">
        <ele>27.050000000000001</ele>
        <time>2025-04-30T11:44:44Z</time>
      </trkpt>
      <trkpt lat="43.35245001129806" lon="-8.195598023012281">
        <ele>29.460000000000001</ele>
        <time>2025-04-30T11:44:57Z</time>
      </trkpt>
      <trkpt lat="43.351615006104112" lon="-8.196117030456662">
        <ele>28.02</ele>
        <time>2025-04-30T11:45:01Z</time>
      </trkpt>
      <trkpt lat="43.351433034986258" lon="-8.196309981867671">
        <ele>27.530000000000001</ele>
        <time>2025-04-30T11:45:02Z</time>
      </trkpt>
      <trkpt lat="43.351251985877752" lon="-8.196508968248963">
        <ele>27.530000000000001</ele>
        <time>2025-04-30T11:45:03Z</time>
      </trkpt>
      <trkpt lat="43.35109599865973" lon="-8.19673603400588">
        <ele>27.530000000000001</ele>
        <time>2025-04-30T11:45:04Z</time>
      </trkpt>
      <trkpt lat="43.350954009220004" lon="-8.196971984580159">
        <ele>28.02</ele>
        <time>2025-04-30T11:45:05Z</time>
      </trkpt>
      <trkpt lat="43.350830040872097" lon="-8.197229979559779">
        <ele>28.5</ele>
        <time>2025-04-30T11:45:06Z</time>
      </trkpt>
      <trkpt lat="43.350735995918512" lon="-8.197523010894656">
        <ele>28.98</ele>
        <time>2025-04-30T11:45:07Z</time>
      </trkpt>
      <trkpt lat="43.350584032014012" lon="-8.19813103415072">
        <ele>30.420000000000002</ele>
        <time>2025-04-30T11:45:09Z</time>
      </trkpt>
      <trkpt lat="43.350531980395317" lon="-8.198449965566397">
        <ele>31.379999999999999</ele>
        <time>2025-04-30T11:45:10Z</time>
      </trkpt>
      <trkpt lat="43.350285971537232" lon="-8.200450977310538">
        <ele>38.590000000000003</ele>
        <time>2025-04-30T11:45:17Z</time>
      </trkpt>
      <trkpt lat="43.350244984030724" lon="-8.200726993381977">
        <ele>39.549999999999997</ele>
        <time>2025-04-30T11:45:18Z</time>
      </trkpt>
      <trkpt lat="43.350206008180976" lon="-8.200928997248411">
        <ele>40.509999999999998</ele>
        <time>2025-04-30T11:45:19Z</time>
      </trkpt>
      <trkpt lat="43.350133001804352" lon="-8.201215993613005">
        <ele>41.469999999999999</ele>
        <time>2025-04-30T11:45:20Z</time>
      </trkpt>
      <trkpt lat="43.350050020962954" lon="-8.201452028006315">
        <ele>42.439999999999998</ele>
        <time>2025-04-30T11:45:21Z</time>
      </trkpt>
      <trkpt lat="43.349969973787665" lon="-8.201658977195621">
        <ele>43.399999999999999</ele>
        <time>2025-04-30T11:45:22Z</time>
      </trkpt>
      <trkpt lat="43.349823961034417" lon="-8.201857041567564">
        <ele>44.840000000000003</ele>
        <time>2025-04-30T11:45:23Z</time>
      </trkpt>
      <trkpt lat="43.349689012393355" lon="-8.202041024342179">
        <ele>45.799999999999997</ele>
        <time>2025-04-30T11:45:24Z</time>
      </trkpt>
      <trkpt lat="43.349533025175333" lon="-8.202191982418299">
        <ele>46.759999999999998</ele>
        <time>2025-04-30T11:45:25Z</time>
      </trkpt>
      <trkpt lat="43.349363962188363" lon="-8.202330032363534">
        <ele>48.68</ele>
        <time>2025-04-30T11:45:26Z</time>
      </trkpt>
      <trkpt lat="43.349178973585367" lon="-8.202437991276383">
        <ele>50.130000000000003</ele>
        <time>2025-04-30T11:45:27Z</time>
      </trkpt>
      <trkpt lat="43.34899197332561" lon="-8.202543016523123">
        <ele>51.57</ele>
        <time>2025-04-30T11:45:28Z</time>
      </trkpt>
      <trkpt lat="43.348788041621447" lon="-8.202617028728128">
        <ele>53.490000000000002</ele>
        <time>2025-04-30T11:45:29Z</time>
      </trkpt>
      <trkpt lat="43.348572961986065" lon="-8.202662961557508">
        <ele>54.93</ele>
        <time>2025-04-30T11:45:30Z</time>
      </trkpt>
      <trkpt lat="43.34834698587656" lon="-8.202704032883048">
        <ele>56.369999999999997</ele>
        <time>2025-04-30T11:45:31Z</time>
      </trkpt>
      <trkpt lat="43.347408967092633" lon="-8.202959010377526">
        <ele>63.100000000000001</ele>
        <time>2025-04-30T11:45:35Z</time>
      </trkpt>
      <trkpt lat="43.347182990983129" lon="-8.203082978725433">
        <ele>65.030000000000001</ele>
        <time>2025-04-30T11:45:36Z</time>
      </trkpt>
      <trkpt lat="43.346976963803172" lon="-8.203249024227262">
        <ele>66.950000000000003</ele>
        <time>2025-04-30T11:45:37Z</time>
      </trkpt>
      <trkpt lat="43.346782000735402" lon="-8.203429989516735">
        <ele>68.870000000000005</ele>
        <time>2025-04-30T11:45:38Z</time>
      </trkpt>
      <trkpt lat="43.346590977162123" lon="-8.203607015311718">
        <ele>70.310000000000002</ele>
        <time>2025-04-30T11:45:39Z</time>
      </trkpt>
      <trkpt lat="43.345278035849333" lon="-8.20457898080349">
        <ele>76.560000000000002</ele>
        <time>2025-04-30T11:45:46Z</time>
      </trkpt>
      <trkpt lat="43.345069997012615" lon="-8.204634971916676">
        <ele>77.040000000000006</ele>
        <time>2025-04-30T11:45:47Z</time>
      </trkpt>
      <trkpt lat="43.344851983711123" lon="-8.204662967473269">
        <ele>77.040000000000006</ele>
        <time>2025-04-30T11:45:48Z</time>
      </trkpt>
      <trkpt lat="43.344641011208296" lon="-8.204677971079946">
        <ele>77.040000000000006</ele>
        <time>2025-04-30T11:45:49Z</time>
      </trkpt>
      <trkpt lat="43.344431966543198" lon="-8.204644024372101">
        <ele>76.560000000000002</ele>
        <time>2025-04-30T11:45:50Z</time>
      </trkpt>
      <trkpt lat="43.344230968505144" lon="-8.204601025208831">
        <ele>76.560000000000002</ele>
        <time>2025-04-30T11:45:51Z</time>
      </trkpt>
      <trkpt lat="43.344041034579277" lon="-8.204523995518684">
        <ele>75.599999999999994</ele>
        <time>2025-04-30T11:45:52Z</time>
      </trkpt>
      <trkpt lat="43.343853028491139" lon="-8.204426011070609">
        <ele>75.120000000000005</ele>
        <time>2025-04-30T11:45:53Z</time>
      </trkpt>
      <trkpt lat="43.343665022403002" lon="-8.204312017187476">
        <ele>74.159999999999997</ele>
        <time>2025-04-30T11:45:54Z</time>
      </trkpt>
      <trkpt lat="43.342702025547624" lon="-8.203872973099351">
        <ele>66.950000000000003</ele>
        <time>2025-04-30T11:45:59Z</time>
      </trkpt>
      <trkpt lat="43.342509996145964" lon="-8.20384900085628">
        <ele>65.030000000000001</ele>
        <time>2025-04-30T11:46:00Z</time>
      </trkpt>
      <trkpt lat="43.341956958174706" lon="-8.203743975609541">
        <ele>60.700000000000003</ele>
        <time>2025-04-30T11:46:03Z</time>
      </trkpt>
      <trkpt lat="43.341786973178387" lon="-8.2036770042032">
        <ele>58.780000000000001</ele>
        <time>2025-04-30T11:46:04Z</time>
      </trkpt>
      <trkpt lat="43.34162101149559" lon="-8.203559992834926">
        <ele>58.299999999999997</ele>
        <time>2025-04-30T11:46:05Z</time>
      </trkpt>
      <trkpt lat="43.341451026499271" lon="-8.203439963981509">
        <ele>57.340000000000003</ele>
        <time>2025-04-30T11:46:06Z</time>
      </trkpt>
      <trkpt lat="43.34129998460412" lon="-8.203288000077009">
        <ele>56.369999999999997</ele>
        <time>2025-04-30T11:46:07Z</time>
      </trkpt>
      <trkpt lat="43.339526038616896" lon="-8.201290005818009">
        <ele>46.759999999999998</ele>
        <time>2025-04-30T11:46:19Z</time>
      </trkpt>
      <trkpt lat="43.33882799372077" lon="-8.20036699064076">
        <ele>43.399999999999999</ele>
        <time>2025-04-30T11:46:24Z</time>
      </trkpt>
      <trkpt lat="43.338663037866354" lon="-8.200234975665808">
        <ele>42.439999999999998</ele>
        <time>2025-04-30T11:46:25Z</time>
      </trkpt>
      <trkpt lat="43.338482994586229" lon="-8.200123999267817">
        <ele>41.469999999999999</ele>
        <time>2025-04-30T11:46:26Z</time>
      </trkpt>
      <trkpt lat="43.338339999318123" lon="-8.200071025639772">
        <ele>40.509999999999998</ele>
        <time>2025-04-30T11:46:27Z</time>
      </trkpt>
      <trkpt lat="43.338103964924812" lon="-8.200045041739941">
        <ele>40.030000000000001</ele>
        <time>2025-04-30T11:46:28Z</time>
      </trkpt>
      <trkpt lat="43.337909001857042" lon="-8.200033977627754">
        <ele>39.07</ele>
        <time>2025-04-30T11:46:29Z</time>
      </trkpt>
      <trkpt lat="43.337717978283763" lon="-8.200059961527586">
        <ele>38.590000000000003</ele>
        <time>2025-04-30T11:46:30Z</time>
      </trkpt>
      <trkpt lat="43.337536007165909" lon="-8.200085023418069">
        <ele>37.630000000000003</ele>
        <time>2025-04-30T11:46:31Z</time>
      </trkpt>
      <trkpt lat="43.336233962327242" lon="-8.200350981205702">
        <ele>32.340000000000003</ele>
        <time>2025-04-30T11:46:39Z</time>
      </trkpt>
      <trkpt lat="43.336080992594361" lon="-8.200428010895848">
        <ele>31.379999999999999</ele>
        <time>2025-04-30T11:46:40Z</time>
      </trkpt>
      <trkpt lat="43.335918970406055" lon="-8.200508980080485">
        <ele>30.899999999999999</ele>
        <time>2025-04-30T11:46:41Z</time>
      </trkpt>
      <trkpt lat="43.335779998451471" lon="-8.200642000883818">
        <ele>30.420000000000002</ele>
        <time>2025-04-30T11:46:42Z</time>
      </trkpt>
      <trkpt lat="43.335641026496887" lon="-8.200791031122208">
        <ele>29.460000000000001</ele>
        <time>2025-04-30T11:46:43Z</time>
      </trkpt>
      <trkpt lat="43.335517980158329" lon="-8.200955986976624">
        <ele>28.98</ele>
        <time>2025-04-30T11:46:44Z</time>
      </trkpt>
      <trkpt lat="43.335402980446815" lon="-8.201151033863425">
        <ele>28.02</ele>
        <time>2025-04-30T11:46:45Z</time>
      </trkpt>
      <trkpt lat="43.335311030969024" lon="-8.201361000537872">
        <ele>28.02</ele>
        <time>2025-04-30T11:46:46Z</time>
      </trkpt>
      <trkpt lat="43.335230983793736" lon="-8.20159200578928">
        <ele>27.530000000000001</ele>
        <time>2025-04-30T11:46:47Z</time>
      </trkpt>
      <trkpt lat="43.33517499268055" lon="-8.201838014647365">
        <ele>27.530000000000001</ele>
        <time>2025-04-30T11:46:48Z</time>
      </trkpt>
      <trkpt lat="43.335150014609098" lon="-8.202103972434998">
        <ele>27.530000000000001</ele>
        <time>2025-04-30T11:46:49Z</time>
      </trkpt>
      <trkpt lat="43.335125036537647" lon="-8.202370014041662">
        <ele>27.530000000000001</ele>
        <time>2025-04-30T11:46:50Z</time>
      </trkpt>
      <trkpt lat="43.335159989073873" lon="-8.202651981264353">
        <ele>28.02</ele>
        <time>2025-04-30T11:46:51Z</time>
      </trkpt>
      <trkpt lat="43.335206005722284" lon="-8.202935960143805">
        <ele>28.02</ele>
        <time>2025-04-30T11:46:52Z</time>
      </trkpt>
      <trkpt lat="43.335277000442147" lon="-8.203220022842288">
        <ele>28.02</ele>
        <time>2025-04-30T11:46:53Z</time>
      </trkpt>
      <trkpt lat="43.335370039567351" lon="-8.203498972579837">
        <ele>28.5</ele>
        <time>2025-04-30T11:46:54Z</time>
      </trkpt>
      <trkpt lat="43.335990970954299" lon="-8.205250035971403">
        <ele>33.780000000000001</ele>
        <time>2025-04-30T11:47:00Z</time>
      </trkpt>
      <trkpt lat="43.336569992825389" lon="-8.206473961472511">
        <ele>40.509999999999998</ele>
        <time>2025-04-30T11:47:05Z</time>
      </trkpt>
      <trkpt lat="43.336613997817039" lon="-8.2067059725523">
        <ele>41.469999999999999</ele>
        <time>2025-04-30T11:47:06Z</time>
      </trkpt>
      <trkpt lat="43.336635036394" lon="-8.20696203969419">
        <ele>42.439999999999998</ele>
        <time>2025-04-30T11:47:07Z</time>
      </trkpt>
      <trkpt lat="43.336625983938575" lon="-8.207209976390004">
        <ele>43.880000000000003</ele>
        <time>2025-04-30T11:47:08Z</time>
      </trkpt>
      <trkpt lat="43.336578039452434" lon="-8.207459002733231">
        <ele>44.840000000000003</ele>
        <time>2025-04-30T11:47:09Z</time>
      </trkpt>
      <trkpt lat="43.336511990055442" lon="-8.207706017419696">
        <ele>45.799999999999997</ele>
        <time>2025-04-30T11:47:10Z</time>
      </trkpt>
      <trkpt lat="43.336402019485831" lon="-8.207909027114511">
        <ele>47.240000000000002</ele>
        <time>2025-04-30T11:47:11Z</time>
      </trkpt>
      <trkpt lat="43.336280984804034" lon="-8.208087980747223">
        <ele>48.200000000000003</ele>
        <time>2025-04-30T11:47:12Z</time>
      </trkpt>
      <trkpt lat="43.336167996749282" lon="-8.208250002935529">
        <ele>49.649999999999999</ele>
        <time>2025-04-30T11:47:13Z</time>
      </trkpt>
      <trkpt lat="43.33603598177433" lon="-8.208341030403972">
        <ele>50.609999999999999</ele>
        <time>2025-04-30T11:47:14Z</time>
      </trkpt>
      <trkpt lat="43.335893992334604" lon="-8.208439014852047">
        <ele>52.049999999999997</ele>
        <time>2025-04-30T11:47:15Z</time>
      </trkpt>
      <trkpt lat="43.335773041471839" lon="-8.208475979045034">
        <ele>53.009999999999998</ele>
        <time>2025-04-30T11:47:16Z</time>
      </trkpt>
      <trkpt lat="43.335641026496887" lon="-8.208498023450375">
        <ele>54.450000000000003</ele>
        <time>2025-04-30T11:47:17Z</time>
      </trkpt>
      <trkpt lat="43.335510017350316" lon="-8.208478996530175">
        <ele>55.409999999999997</ele>
        <time>2025-04-30T11:47:18Z</time>
      </trkpt>
      <trkpt lat="43.335375990718603" lon="-8.208458963781595">
        <ele>55.890000000000001</ele>
        <time>2025-04-30T11:47:19Z</time>
      </trkpt>
      <trkpt lat="43.335243975743651" lon="-8.208437003195286">
        <ele>56.369999999999997</ele>
        <time>2025-04-30T11:47:20Z</time>
      </trkpt>
      <trkpt lat="43.335113972425461" lon="-8.208371037617326">
        <ele>56.859999999999999</ele>
        <time>2025-04-30T11:47:21Z</time>
      </trkpt>
      <trkpt lat="43.33498396910727" lon="-8.20829501375556">
        <ele>56.859999999999999</ele>
        <time>2025-04-30T11:47:22Z</time>
      </trkpt>
      <trkpt lat="43.333554016426206" lon="-8.207484986633062">
        <ele>56.369999999999997</ele>
        <time>2025-04-30T11:47:33Z</time>
      </trkpt>
      <trkpt lat="43.333014976233244" lon="-8.207230009138584">
        <ele>56.369999999999997</ele>
        <time>2025-04-30T11:47:37Z</time>
      </trkpt>
      <trkpt lat="43.332879021763802" lon="-8.207153985276818">
        <ele>56.369999999999997</ele>
        <time>2025-04-30T11:47:38Z</time>
      </trkpt>
      <trkpt lat="43.332742983475327" lon="-8.207062035799027">
        <ele>56.369999999999997</ele>
        <time>2025-04-30T11:47:39Z</time>
      </trkpt>
      <trkpt lat="43.332637036219239" lon="-8.206910993903875">
        <ele>55.890000000000001</ele>
        <time>2025-04-30T11:47:40Z</time>
      </trkpt>
      <trkpt lat="43.332523964345455" lon="-8.206761963665485">
        <ele>55.890000000000001</ele>
        <time>2025-04-30T11:47:41Z</time>
      </trkpt>
      <trkpt lat="43.331731036305428" lon="-8.205907009541988">
        <ele>55.409999999999997</ele>
        <time>2025-04-30T11:47:48Z</time>
      </trkpt>
      <trkpt lat="43.331626011058688" lon="-8.205815982073546">
        <ele>55.409999999999997</ele>
        <time>2025-04-30T11:47:49Z</time>
      </trkpt>
      <trkpt lat="43.331499025225639" lon="-8.205782035365701">
        <ele>55.409999999999997</ele>
        <time>2025-04-30T11:47:50Z</time>
      </trkpt>
      <trkpt lat="43.331381008028984" lon="-8.205765020102263">
        <ele>54.93</ele>
        <time>2025-04-30T11:47:51Z</time>
      </trkpt>
      <trkpt lat="43.331259973347187" lon="-8.205799972638488">
        <ele>54.93</ele>
        <time>2025-04-30T11:47:52Z</time>
      </trkpt>
      <trkpt lat="43.331145979464054" lon="-8.205861998721957">
        <ele>54.450000000000003</ele>
        <time>2025-04-30T11:47:53Z</time>
      </trkpt>
      <trkpt lat="43.331017987802625" lon="-8.205933999270201">
        <ele>53.969999999999999</ele>
        <time>2025-04-30T11:47:54Z</time>
      </trkpt>
      <trkpt lat="43.330912962555885" lon="-8.20606098510325">
        <ele>53.490000000000002</ele>
        <time>2025-04-30T11:47:55Z</time>
      </trkpt>
      <trkpt lat="43.330340981483459" lon="-8.20672600530088">
        <ele>49.649999999999999</ele>
        <time>2025-04-30T11:48:00Z</time>
      </trkpt>
      <trkpt lat="43.330211983993649" lon="-8.206808986142278">
        <ele>49.159999999999997</ele>
        <time>2025-04-30T11:48:01Z</time>
      </trkpt>
      <trkpt lat="43.330078963190317" lon="-8.206893978640437">
        <ele>48.200000000000003</ele>
        <time>2025-04-30T11:48:02Z</time>
      </trkpt>
      <trkpt lat="43.329937979578972" lon="-8.206927003338933">
        <ele>47.240000000000002</ele>
        <time>2025-04-30T11:48:03Z</time>
      </trkpt>
      <trkpt lat="43.329793978482485" lon="-8.206960028037429">
        <ele>46.280000000000001</ele>
        <time>2025-04-30T11:48:04Z</time>
      </trkpt>
      <trkpt lat="43.329646959900856" lon="-8.206988023594022">
        <ele>45.32</ele>
        <time>2025-04-30T11:48:05Z</time>
      </trkpt>
      <trkpt lat="43.328886972740293" lon="-8.207150967791677">
        <ele>40.990000000000002</ele>
        <time>2025-04-30T11:48:10Z</time>
      </trkpt>
      <trkpt lat="43.328752024099231" lon="-8.207229003310204">
        <ele>40.030000000000001</ele>
        <time>2025-04-30T11:48:11Z</time>
      </trkpt>
      <trkpt lat="43.32862101495266" lon="-8.207348026335239">
        <ele>39.07</ele>
        <time>2025-04-30T11:48:12Z</time>
      </trkpt>
      <trkpt lat="43.32851498387754" lon="-8.207499990239739">
        <ele>37.630000000000003</ele>
        <time>2025-04-30T11:48:13Z</time>
      </trkpt>
      <trkpt lat="43.328418005257845" lon="-8.207676010206342">
        <ele>36.670000000000002</ele>
        <time>2025-04-30T11:48:14Z</time>
      </trkpt>
      <trkpt lat="43.328327983617783" lon="-8.207848006859422">
        <ele>35.710000000000001</ele>
        <time>2025-04-30T11:48:15Z</time>
      </trkpt>
      <trkpt lat="43.328263023868203" lon="-8.208040958270431">
        <ele>34.740000000000002</ele>
        <time>2025-04-30T11:48:16Z</time>
      </trkpt>
      <trkpt lat="43.327567996457219" lon="-8.210327960550785">
        <ele>28.98</ele>
        <time>2025-04-30T11:48:28Z</time>
      </trkpt>
      <trkpt lat="43.327043959870934" lon="-8.212014986202121">
        <ele>27.530000000000001</ele>
        <time>2025-04-30T11:48:35Z</time>
      </trkpt>
      <trkpt lat="43.326385980471969" lon="-8.214187994599342">
        <ele>27.530000000000001</ele>
        <time>2025-04-30T11:48:42Z</time>
      </trkpt>
      <trkpt lat="43.326313979923725" lon="-8.21444196626544">
        <ele>27.530000000000001</ele>
        <time>2025-04-30T11:48:43Z</time>
      </trkpt>
      <trkpt lat="43.326281039044261" lon="-8.214661991223693">
        <ele>28.02</ele>
        <time>2025-04-30T11:48:44Z</time>
      </trkpt>
      <trkpt lat="43.326330995187163" lon="-8.214829964563251">
        <ele>28.5</ele>
        <time>2025-04-30T11:48:45Z</time>
      </trkpt>
      <trkpt lat="43.326385980471969" lon="-8.214939013123512">
        <ele>28.98</ele>
        <time>2025-04-30T11:48:46Z</time>
      </trkpt>
      <trkpt lat="43.326465021818876" lon="-8.215015036985278">
        <ele>29.940000000000001</ele>
        <time>2025-04-30T11:48:47Z</time>
      </trkpt>
      <trkpt lat="43.32658102735877" lon="-8.215045966207981">
        <ele>30.899999999999999</ele>
        <time>2025-04-30T11:48:48Z</time>
      </trkpt>
      <trkpt lat="43.326717987656593" lon="-8.21504102088511">
        <ele>31.379999999999999</ele>
        <time>2025-04-30T11:48:49Z</time>
      </trkpt>
      <trkpt lat="43.326844973489642" lon="-8.214946975931525">
        <ele>31.859999999999999</ele>
        <time>2025-04-30T11:48:50Z</time>
      </trkpt>
      <trkpt lat="43.326954022049904" lon="-8.214802974835038">
        <ele>32.82</ele>
        <time>2025-04-30T11:48:51Z</time>
      </trkpt>
      <trkpt lat="43.32707597874105" lon="-8.214642964303494">
        <ele>34.259999999999998</ele>
        <time>2025-04-30T11:48:52Z</time>
      </trkpt>
      <trkpt lat="43.327197013422847" lon="-8.214483037590981">
        <ele>35.710000000000001</ele>
        <time>2025-04-30T11:48:53Z</time>
      </trkpt>
      <trkpt lat="43.327317964285612" lon="-8.21435303427279">
        <ele>36.670000000000002</ele>
        <time>2025-04-30T11:48:54Z</time>
      </trkpt>
      <trkpt lat="43.327479986473918" lon="-8.214306011795998">
        <ele>37.630000000000003</ele>
        <time>2025-04-30T11:48:55Z</time>
      </trkpt>
      <trkpt lat="43.327653994783759" lon="-8.214253960177302">
        <ele>38.109999999999999</ele>
        <time>2025-04-30T11:48:56Z</time>
      </trkpt>
      <trkpt lat="43.327823979780078" lon="-8.214238034561276">
        <ele>39.07</ele>
        <time>2025-04-30T11:48:57Z</time>
      </trkpt>
      <trkpt lat="43.328941036015749" lon="-8.214292014017701">
        <ele>41.469999999999999</ele>
        <time>2025-04-30T11:49:04Z</time>
      </trkpt>
      <trkpt lat="43.3297189604491" lon="-8.214707002043724">
        <ele>44.359999999999999</ele>
        <time>2025-04-30T11:49:10Z</time>
      </trkpt>
      <trkpt lat="43.329820968210697" lon="-8.214789982885122">
        <ele>45.32</ele>
        <time>2025-04-30T11:49:11Z</time>
      </trkpt>
      <trkpt lat="43.329862961545587" lon="-8.214916968718171">
        <ele>45.799999999999997</ele>
        <time>2025-04-30T11:49:12Z</time>
      </trkpt>
      <trkpt lat="43.329908978193998" lon="-8.215056024491787">
        <ele>46.280000000000001</ele>
        <time>2025-04-30T11:49:13Z</time>
      </trkpt>
      <trkpt lat="43.329906966537237" lon="-8.215172030031681">
        <ele>46.759999999999998</ele>
        <time>2025-04-30T11:49:14Z</time>
      </trkpt>
      <trkpt lat="43.329858016222715" lon="-8.215309996157885">
        <ele>47.240000000000002</ele>
        <time>2025-04-30T11:49:15Z</time>
      </trkpt>
      <trkpt lat="43.329806970432401" lon="-8.215430025011301">
        <ele>47.240000000000002</ele>
        <time>2025-04-30T11:49:16Z</time>
      </trkpt>
      <trkpt lat="43.32971602678299" lon="-8.215533960610628">
        <ele>47.719999999999999</ele>
        <time>2025-04-30T11:49:17Z</time>
      </trkpt>
      <trkpt lat="43.329616030678153" lon="-8.215610990300775">
        <ele>48.200000000000003</ele>
        <time>2025-04-30T11:49:18Z</time>
      </trkpt>
      <trkpt lat="43.329493990167975" lon="-8.215669998899102">
        <ele>48.200000000000003</ele>
        <time>2025-04-30T11:49:19Z</time>
      </trkpt>
      <trkpt lat="43.329376978799701" lon="-8.215725990012288">
        <ele>48.68</ele>
        <time>2025-04-30T11:49:20Z</time>
      </trkpt>
      <trkpt lat="43.327941996976733" lon="-8.216383969411254">
        <ele>51.57</ele>
        <time>2025-04-30T11:49:31Z</time>
      </trkpt>
      <trkpt lat="43.327808976173401" lon="-8.216496035456657">
        <ele>52.049999999999997</ele>
        <time>2025-04-30T11:49:32Z</time>
      </trkpt>
      <trkpt lat="43.327679978683591" lon="-8.216615980491042">
        <ele>53.009999999999998</ele>
        <time>2025-04-30T11:49:33Z</time>
      </trkpt>
      <trkpt lat="43.327565984800458" lon="-8.216762999072671">
        <ele>53.490000000000002</ele>
        <time>2025-04-30T11:49:34Z</time>
      </trkpt>
      <trkpt lat="43.327494990080595" lon="-8.21695301681757">
        <ele>54.450000000000003</ele>
        <time>2025-04-30T11:49:35Z</time>
      </trkpt>
      <trkpt lat="43.327421983703971" lon="-8.21714797988534">
        <ele>55.409999999999997</ele>
        <time>2025-04-30T11:49:36Z</time>
      </trkpt>
      <trkpt lat="43.327378984540701" lon="-8.217348977923393">
        <ele>56.859999999999999</ele>
        <time>2025-04-30T11:49:37Z</time>
      </trkpt>
      <trkpt lat="43.327351994812489" lon="-8.217559028416872">
        <ele>57.82</ele>
        <time>2025-04-30T11:49:38Z</time>
      </trkpt>
      <trkpt lat="43.327329028397799" lon="-8.217757008969784">
        <ele>58.780000000000001</ele>
        <time>2025-04-30T11:49:39Z</time>
      </trkpt>
      <trkpt lat="43.327105985954404" lon="-8.220393033698201">
        <ele>64.549999999999997</ele>
        <time>2025-04-30T11:49:53Z</time>
      </trkpt>
      <trkpt lat="43.327051000669599" lon="-8.220985969528556">
        <ele>66.469999999999999</ele>
        <time>2025-04-30T11:49:56Z</time>
      </trkpt>
      <trkpt lat="43.326836004853249" lon="-8.222172008827329">
        <ele>70.790000000000006</ele>
        <time>2025-04-30T11:50:02Z</time>
      </trkpt>
      <trkpt lat="43.326785964891315" lon="-8.222377030178905">
        <ele>71.269999999999996</ele>
        <time>2025-04-30T11:50:03Z</time>
      </trkpt>
      <trkpt lat="43.326729973778129" lon="-8.222590014338493">
        <ele>72.239999999999995</ele>
        <time>2025-04-30T11:50:04Z</time>
      </trkpt>
      <trkpt lat="43.32666702568531" lon="-8.222772991284728">
        <ele>72.719999999999999</ele>
        <time>2025-04-30T11:50:05Z</time>
      </trkpt>
      <trkpt lat="43.326568035408854" lon="-8.222984969615936">
        <ele>73.200000000000003</ele>
        <time>2025-04-30T11:50:06Z</time>
      </trkpt>
      <trkpt lat="43.326462004333735" lon="-8.223176999017596">
        <ele>73.200000000000003</ele>
        <time>2025-04-30T11:50:07Z</time>
      </trkpt>
      <trkpt lat="43.325949031859636" lon="-8.22387496009469">
        <ele>74.640000000000001</ele>
        <time>2025-04-30T11:50:11Z</time>
      </trkpt>
      <trkpt lat="43.325779968872666" lon="-8.224003035575151">
        <ele>74.640000000000001</ele>
        <time>2025-04-30T11:50:12Z</time>
      </trkpt>
      <trkpt lat="43.325600009411573" lon="-8.224133038893342">
        <ele>75.120000000000005</ele>
        <time>2025-04-30T11:50:13Z</time>
      </trkpt>
      <trkpt lat="43.324427967891097" lon="-8.225148003548384">
        <ele>79.930000000000007</ele>
        <time>2025-04-30T11:50:20Z</time>
      </trkpt>
      <trkpt lat="43.323357012122869" lon="-8.226311998441815">
        <ele>89.060000000000002</ele>
        <time>2025-04-30T11:50:28Z</time>
      </trkpt>
      <trkpt lat="43.322787964716554" lon="-8.227052036672831">
        <ele>94.829999999999998</ele>
        <time>2025-04-30T11:50:33Z</time>
      </trkpt>
      <trkpt lat="43.322689980268478" lon="-8.227222021669149">
        <ele>95.790000000000006</ele>
        <time>2025-04-30T11:50:34Z</time>
      </trkpt>
      <trkpt lat="43.321822034195065" lon="-8.228902006521821">
        <ele>104.44</ele>
        <time>2025-04-30T11:50:43Z</time>
      </trkpt>
      <trkpt lat="43.321129018440843" lon="-8.230312010273337">
        <ele>107.31999999999999</ele>
        <time>2025-04-30T11:50:52Z</time>
      </trkpt>
      <trkpt lat="43.32063096575439" lon="-8.231583964079619">
        <ele>106.84</ele>
        <time>2025-04-30T11:51:00Z</time>
      </trkpt>
      <trkpt lat="43.320562988519669" lon="-8.231860985979438">
        <ele>106.36</ele>
        <time>2025-04-30T11:51:02Z</time>
      </trkpt>
      <trkpt lat="43.320516971871257" lon="-8.232002975419164">
        <ele>106.36</ele>
        <time>2025-04-30T11:51:03Z</time>
      </trkpt>
      <trkpt lat="43.320423010736704" lon="-8.232086040079594">
        <ele>106.36</ele>
        <time>2025-04-30T11:51:04Z</time>
      </trkpt>
      <trkpt lat="43.319829991087317" lon="-8.233009977266192">
        <ele>107.81</ele>
        <time>2025-04-30T11:51:11Z</time>
      </trkpt>
      <trkpt lat="43.31923303194344" lon="-8.234310010448098">
        <ele>113.09</ele>
        <time>2025-04-30T11:51:20Z</time>
      </trkpt>
      <trkpt lat="43.319186009466648" lon="-8.234498016536236">
        <ele>113.56999999999999</ele>
        <time>2025-04-30T11:51:21Z</time>
      </trkpt>
      <trkpt lat="43.31914896145463" lon="-8.234697002917528">
        <ele>114.53</ele>
        <time>2025-04-30T11:51:22Z</time>
      </trkpt>
      <trkpt lat="43.318899013102055" lon="-8.2363769877702">
        <ele>118.38</ele>
        <time>2025-04-30T11:51:30Z</time>
      </trkpt>
      <trkpt lat="43.318486958742142" lon="-8.239280981943011">
        <ele>128.94999999999999</ele>
        <time>2025-04-30T11:51:43Z</time>
      </trkpt>
      <trkpt lat="43.31828897818923" lon="-8.24119096621871">
        <ele>131.84</ele>
        <time>2025-04-30T11:51:53Z</time>
      </trkpt>
      <trkpt lat="43.318276992067695" lon="-8.241564966738224">
        <ele>132.80000000000001</ele>
        <time>2025-04-30T11:51:56Z</time>
      </trkpt>
      <trkpt lat="43.318213038146496" lon="-8.241655994206667">
        <ele>133.28</ele>
        <time>2025-04-30T11:51:57Z</time>
      </trkpt>
      <trkpt lat="43.318144977092743" lon="-8.24174702167511">
        <ele>133.75999999999999</ele>
        <time>2025-04-30T11:51:58Z</time>
      </trkpt>
      <trkpt lat="43.317599985748529" lon="-8.242751006036997">
        <ele>133.75999999999999</ele>
        <time>2025-04-30T11:52:05Z</time>
      </trkpt>
      <trkpt lat="43.316597007215023" lon="-8.244765009731054">
        <ele>129.91999999999999</ele>
        <time>2025-04-30T11:52:16Z</time>
      </trkpt>
      <trkpt lat="43.315483974292874" lon="-8.246910022571683">
        <ele>126.55</ele>
        <time>2025-04-30T11:52:28Z</time>
      </trkpt>
      <trkpt lat="43.315123971551657" lon="-8.247574958950281">
        <ele>125.59</ele>
        <time>2025-04-30T11:52:32Z</time>
      </trkpt>
      <trkpt lat="43.315006960183382" lon="-8.247692976146936">
        <ele>125.11</ele>
        <time>2025-04-30T11:52:33Z</time>
      </trkpt>
      <trkpt lat="43.314878968521953" lon="-8.247782997786999">
        <ele>125.11</ele>
        <time>2025-04-30T11:52:34Z</time>
      </trkpt>
      <trkpt lat="43.314736979082227" lon="-8.247865978628397">
        <ele>124.15000000000001</ele>
        <time>2025-04-30T11:52:35Z</time>
      </trkpt>
      <trkpt lat="43.314588032662868" lon="-8.247931022197008">
        <ele>123.19</ele>
        <time>2025-04-30T11:52:36Z</time>
      </trkpt>
      <trkpt lat="43.314435984939337" lon="-8.248006962239742">
        <ele>122.70999999999999</ele>
        <time>2025-04-30T11:52:37Z</time>
      </trkpt>
      <trkpt lat="43.313395036384463" lon="-8.248573997989297">
        <ele>122.70999999999999</ele>
        <time>2025-04-30T11:52:44Z</time>
      </trkpt>
      <trkpt lat="43.313313983380795" lon="-8.248748006299138">
        <ele>122.70999999999999</ele>
        <time>2025-04-30T11:52:45Z</time>
      </trkpt>
      <trkpt lat="43.313215998932719" lon="-8.248927965760231">
        <ele>122.70999999999999</ele>
        <time>2025-04-30T11:52:46Z</time>
      </trkpt>
      <trkpt lat="43.313119020313025" lon="-8.249100968241692">
        <ele>122.70999999999999</ele>
        <time>2025-04-30T11:52:47Z</time>
      </trkpt>
      <trkpt lat="43.313021035864949" lon="-8.249275982379913">
        <ele>122.70999999999999</ele>
        <time>2025-04-30T11:52:48Z</time>
      </trkpt>
      <trkpt lat="43.311964999884367" lon="-8.251040037721396">
        <ele>117.90000000000001</ele>
        <time>2025-04-30T11:52:58Z</time>
      </trkpt>
      <trkpt lat="43.311083978042006" lon="-8.252298999577761">
        <ele>114.53</ele>
        <time>2025-04-30T11:53:05Z</time>
      </trkpt>
      <trkpt lat="43.311032010242343" lon="-8.252550959587097">
        <ele>115.01000000000001</ele>
        <time>2025-04-30T11:53:06Z</time>
      </trkpt>
      <trkpt lat="43.310675024986267" lon="-8.254866963252425">
        <ele>118.86</ele>
        <time>2025-04-30T11:53:14Z</time>
      </trkpt>
      <trkpt lat="43.310238998383284" lon="-8.257932979613543">
        <ele>119.34</ele>
        <time>2025-04-30T11:53:24Z</time>
      </trkpt>
      <trkpt lat="43.309883018955588" lon="-8.260284019634128">
        <ele>126.06999999999999</ele>
        <time>2025-04-30T11:53:33Z</time>
      </trkpt>
      <trkpt lat="43.309792997315526" lon="-8.260758016258478">
        <ele>127.03</ele>
        <time>2025-04-30T11:53:35Z</time>
      </trkpt>
      <trkpt lat="43.309710016474128" lon="-8.260974017903209">
        <ele>127.03</ele>
        <time>2025-04-30T11:53:36Z</time>
      </trkpt>
      <trkpt lat="43.309614965692163" lon="-8.261188007891178">
        <ele>127.51000000000001</ele>
        <time>2025-04-30T11:53:37Z</time>
      </trkpt>
      <trkpt lat="43.309504995122552" lon="-8.261386994272471">
        <ele>127.98999999999999</ele>
        <time>2025-04-30T11:53:38Z</time>
      </trkpt>
      <trkpt lat="43.309387983754277" lon="-8.261581035330892">
        <ele>127.98999999999999</ele>
        <time>2025-04-30T11:53:39Z</time>
      </trkpt>
      <trkpt lat="43.30924398265779" lon="-8.261739034205675">
        <ele>128.94999999999999</ele>
        <time>2025-04-30T11:53:40Z</time>
      </trkpt>
      <trkpt lat="43.30909201875329" lon="-8.261890998110175">
        <ele>129.43000000000001</ele>
        <time>2025-04-30T11:53:41Z</time>
      </trkpt>
      <trkpt lat="43.308939971029758" lon="-8.262042962014675">
        <ele>129.43000000000001</ele>
        <time>2025-04-30T11:53:42Z</time>
      </trkpt>
      <trkpt lat="43.307168958708644" lon="-8.263638960197568">
        <ele>130.40000000000001</ele>
        <time>2025-04-30T11:53:54Z</time>
      </trkpt>
      <trkpt lat="43.30677299760282" lon="-8.263956969603896">
        <ele>130.88</ele>
        <time>2025-04-30T11:53:57Z</time>
      </trkpt>
      <trkpt lat="43.306637965142727" lon="-8.26402997598052">
        <ele>130.88</ele>
        <time>2025-04-30T11:53:58Z</time>
      </trkpt>
      <trkpt lat="43.306499999016523" lon="-8.264076998457313">
        <ele>130.88</ele>
        <time>2025-04-30T11:53:59Z</time>
      </trkpt>
      <trkpt lat="43.306360021233559" lon="-8.264068029820919">
        <ele>130.40000000000001</ele>
        <time>2025-04-30T11:54:00Z</time>
      </trkpt>
      <trkpt lat="43.306216020137072" lon="-8.264058977365494">
        <ele>130.40000000000001</ele>
        <time>2025-04-30T11:54:01Z</time>
      </trkpt>
      <trkpt lat="43.306062966585159" lon="-8.264047997072339">
        <ele>130.40000000000001</ele>
        <time>2025-04-30T11:54:02Z</time>
      </trkpt>
      <trkpt lat="43.305577989667654" lon="-8.264014972373843">
        <ele>130.40000000000001</ele>
        <time>2025-04-30T11:54:05Z</time>
      </trkpt>
      <trkpt lat="43.305413033813238" lon="-8.264030981808901">
        <ele>130.40000000000001</ele>
        <time>2025-04-30T11:54:06Z</time>
      </trkpt>
      <trkpt lat="43.305252017453313" lon="-8.264079010114074">
        <ele>130.88</ele>
        <time>2025-04-30T11:54:07Z</time>
      </trkpt>
      <trkpt lat="43.305086977779865" lon="-8.264195015653968">
        <ele>130.88</ele>
        <time>2025-04-30T11:54:08Z</time>
      </trkpt>
      <trkpt lat="43.304941970854998" lon="-8.264339016750455">
        <ele>131.36000000000001</ele>
        <time>2025-04-30T11:54:09Z</time>
      </trkpt>
      <trkpt lat="43.304826971143484" lon="-8.264529034495354">
        <ele>131.36000000000001</ele>
        <time>2025-04-30T11:54:10Z</time>
      </trkpt>
      <trkpt lat="43.304728986695409" lon="-8.26473799534142">
        <ele>131.84</ele>
        <time>2025-04-30T11:54:11Z</time>
      </trkpt>
      <trkpt lat="43.304669978097081" lon="-8.264948967844248">
        <ele>132.31999999999999</ele>
        <time>2025-04-30T11:54:12Z</time>
      </trkpt>
      <trkpt lat="43.304621027782559" lon="-8.265148038044572">
        <ele>132.80000000000001</ele>
        <time>2025-04-30T11:54:13Z</time>
      </trkpt>
      <trkpt lat="43.304326990619302" lon="-8.266339022666216">
        <ele>138.09</ele>
        <time>2025-04-30T11:54:20Z</time>
      </trkpt>
      <trkpt lat="43.304284997284412" lon="-8.266542032361031">
        <ele>139.05000000000001</ele>
        <time>2025-04-30T11:54:21Z</time>
      </trkpt>
      <trkpt lat="43.304244009777904" lon="-8.267908031120896">
        <ele>145.78</ele>
        <time>2025-04-30T11:54:28Z</time>
      </trkpt>
      <trkpt lat="43.304233029484749" lon="-8.269387017935515">
        <ele>153.47</ele>
        <time>2025-04-30T11:54:39Z</time>
      </trkpt>
      <trkpt lat="43.304244009777904" lon="-8.269756995141506">
        <ele>154.91</ele>
        <time>2025-04-30T11:54:43Z</time>
      </trkpt>
      <trkpt lat="43.304244009777904" lon="-8.269867971539497">
        <ele>154.91</ele>
        <time>2025-04-30T11:54:44Z</time>
      </trkpt>
      <trkpt lat="43.304244009777904" lon="-8.269995041191578">
        <ele>155.38999999999999</ele>
        <time>2025-04-30T11:54:45Z</time>
      </trkpt>
      <trkpt lat="43.304244009777904" lon="-8.270122027024627">
        <ele>154.91</ele>
        <time>2025-04-30T11:54:46Z</time>
      </trkpt>
      <trkpt lat="43.30423504114151" lon="-8.270305003970861">
        <ele>155.38999999999999</ele>
        <time>2025-04-30T11:54:47Z</time>
      </trkpt>
      <trkpt lat="43.304076958447695" lon="-8.270585965365171">
        <ele>155.38999999999999</ele>
        <time>2025-04-30T11:54:48Z</time>
      </trkpt>
      <trkpt lat="43.303987020626664" lon="-8.270593006163836">
        <ele>155.87</ele>
        <time>2025-04-30T11:54:49Z</time>
      </trkpt>
      <trkpt lat="43.303814018145204" lon="-8.270515976473689">
        <ele>155.87</ele>
        <time>2025-04-30T11:54:50Z</time>
      </trkpt>
      <trkpt lat="43.303711004555225" lon="-8.270315984264016">
        <ele>155.87</ele>
        <time>2025-04-30T11:54:51Z</time>
      </trkpt>
      <trkpt lat="43.303645038977265" lon="-8.270188998430967">
        <ele>155.38999999999999</ele>
        <time>2025-04-30T11:54:52Z</time>
      </trkpt>
      <trkpt lat="43.303576977923512" lon="-8.270056983456016">
        <ele>155.38999999999999</ele>
        <time>2025-04-30T11:54:53Z</time>
      </trkpt>
      <trkpt lat="43.30350698903203" lon="-8.269921028986573">
        <ele>154.91</ele>
        <time>2025-04-30T11:54:54Z</time>
      </trkpt>
      <trkpt lat="43.303429959341884" lon="-8.269808040931821">
        <ele>153.94999999999999</ele>
        <time>2025-04-30T11:54:55Z</time>
      </trkpt>
      <trkpt lat="43.303320994600654" lon="-8.269692035391927">
        <ele>153.47</ele>
        <time>2025-04-30T11:54:56Z</time>
      </trkpt>
      <trkpt lat="43.303208006545901" lon="-8.269573012366891">
        <ele>152.03</ele>
        <time>2025-04-30T11:54:57Z</time>
      </trkpt>
      <trkpt lat="43.303060987964272" lon="-8.269449966028333">
        <ele>151.06</ele>
        <time>2025-04-30T11:54:58Z</time>
      </trkpt>
      <trkpt lat="43.30290500074625" lon="-8.269397998228669">
        <ele>150.09999999999999</ele>
        <time>2025-04-30T11:54:59Z</time>
      </trkpt>
      <trkpt lat="43.301511006429791" lon="-8.268879996612668">
        <ele>139.05000000000001</ele>
        <time>2025-04-30T11:55:09Z</time>
      </trkpt>
      <trkpt lat="43.30137899145484" lon="-8.268832974135876">
        <ele>138.56999999999999</ele>
        <time>2025-04-30T11:55:10Z</time>
      </trkpt>
      <trkpt lat="43.301247982308269" lon="-8.268793998286128">
        <ele>138.09</ele>
        <time>2025-04-30T11:55:11Z</time>
      </trkpt>
      <trkpt lat="43.29961703158915" lon="-8.268254036083818">
        <ele>132.31999999999999</ele>
        <time>2025-04-30T11:55:24Z</time>
      </trkpt>
      <trkpt lat="43.299483004957438" lon="-8.268208019435406">
        <ele>131.36000000000001</ele>
        <time>2025-04-30T11:55:26Z</time>
      </trkpt>
      <trkpt lat="43.299422990530729" lon="-8.268192010000348">
        <ele>130.88</ele>
        <time>2025-04-30T11:55:27Z</time>
      </trkpt>
      <trkpt lat="43.299374962225556" lon="-8.268342968076468">
        <ele>130.40000000000001</ele>
        <time>2025-04-30T11:55:28Z</time>
      </trkpt>
      <trkpt lat="43.299329029396176" lon="-8.268423015251756">
        <ele>129.91999999999999</ele>
        <time>2025-04-30T11:55:29Z</time>
      </trkpt>
      <trkpt lat="43.299283012747765" lon="-8.268502978608012">
        <ele>129.43000000000001</ele>
        <time>2025-04-30T11:55:30Z</time>
      </trkpt>
      <trkpt lat="43.299242025241256" lon="-8.268572967499495">
        <ele>128.94999999999999</ele>
        <time>2025-04-30T11:55:31Z</time>
      </trkpt>
      <trkpt lat="43.299221992492676" lon="-8.268606998026371">
        <ele>128.47</ele>
        <time>2025-04-30T11:55:32Z</time>
      </trkpt>
      <trkpt lat="43.299221992492676" lon="-8.268695008009672">
        <ele>127.51000000000001</ele>
        <time>2025-04-30T11:55:33Z</time>
      </trkpt>
      <trkpt lat="43.299227021634579" lon="-8.268748987466097">
        <ele>127.03</ele>
        <time>2025-04-30T11:55:34Z</time>
      </trkpt>
      <trkpt lat="43.29925199970603" lon="-8.268826017156243">
        <ele>126.06999999999999</ele>
        <time>2025-04-30T11:55:35Z</time>
      </trkpt>
      <trkpt lat="43.299282006919384" lon="-8.268918972462416">
        <ele>125.59</ele>
        <time>2025-04-30T11:55:36Z</time>
      </trkpt>
      <trkpt lat="43.299313019961119" lon="-8.269017040729523">
        <ele>124.63</ele>
        <time>2025-04-30T11:55:37Z</time>
      </trkpt>
      <trkpt lat="43.299342021346092" lon="-8.269105972722173">
        <ele>124.63</ele>
        <time>2025-04-30T11:55:38Z</time>
      </trkpt>
      <trkpt lat="43.299388960003853" lon="-8.269252991303802">
        <ele>124.15000000000001</ele>
        <time>2025-04-30T11:55:40Z</time>
      </trkpt>
      <trkpt lat="43.299416033551097" lon="-8.2693359721452">
        <ele>124.15000000000001</ele>
        <time>2025-04-30T11:55:41Z</time>
      </trkpt>
      <trkpt lat="43.29940396361053" lon="-8.269384000450373">
        <ele>123.67</ele>
        <time>2025-04-30T11:55:42Z</time>
      </trkpt>
      <trkpt lat="43.299385020509362" lon="-8.269457006826997">
        <ele>123.67</ele>
        <time>2025-04-30T11:55:43Z</time>
      </trkpt>
      <trkpt lat="43.299365993589163" lon="-8.269534036517143">
        <ele>123.19</ele>
        <time>2025-04-30T11:55:44Z</time>
      </trkpt>
      <trkpt lat="43.299342021346092" lon="-8.269609976559877">
        <ele>123.19</ele>
        <time>2025-04-30T11:55:45Z</time>
      </trkpt>
      <trkpt lat="43.299307990819216" lon="-8.269669990986586">
        <ele>123.19</ele>
        <time>2025-04-30T11:55:46Z</time>
      </trkpt>
      <trkpt lat="43.29927496612072" lon="-8.269726987928152">
        <ele>122.70999999999999</ele>
        <time>2025-04-30T11:55:47Z</time>
      </trkpt>
      <trkpt lat="43.299158960580826" lon="-8.26989596709609">
        <ele>121.73999999999999</ele>
        <time>2025-04-30T11:55:51Z</time>
      </trkpt>
      <trkpt lat="43.299109004437923" lon="-8.269899990409613">
        <ele>121.26000000000001</ele>
        <time>2025-04-30T11:55:52Z</time>
      </trkpt>
      <trkpt lat="43.299045972526073" lon="-8.269904013723135">
        <ele>120.78</ele>
        <time>2025-04-30T11:55:53Z</time>
      </trkpt>
      <trkpt lat="43.298655040562153" lon="-8.269934020936489">
        <ele>117.90000000000001</ele>
        <time>2025-04-30T11:56:00Z</time>
      </trkpt>
      <trkpt lat="43.298620004206896" lon="-8.269948018714786">
        <ele>117.90000000000001</ele>
        <time>2025-04-30T11:56:01Z</time>
      </trkpt>
      <trkpt lat="43.298606006428599" lon="-8.270017001777887">
        <ele>117.42</ele>
        <time>2025-04-30T11:56:02Z</time>
      </trkpt>
      <trkpt lat="43.298595026135445" lon="-8.270124038681388">
        <ele>116.94</ele>
        <time>2025-04-30T11:56:03Z</time>
      </trkpt>
      <trkpt lat="43.298539035022259" lon="-8.271230030804873">
        <ele>111.65000000000001</ele>
        <time>2025-04-30T11:56:09Z</time>
      </trkpt>
      <trkpt lat="43.298420011997223" lon="-8.273190977051854">
        <ele>101.08</ele>
        <time>2025-04-30T11:56:19Z</time>
      </trkpt>
      <trkpt lat="43.298287997022271" lon="-8.274524034932256">
        <ele>105.88</ele>
        <time>2025-04-30T11:56:26Z</time>
      </trkpt>
      <trkpt lat="43.298241980373859" lon="-8.274709023535252">
        <ele>106.84</ele>
        <time>2025-04-30T11:56:27Z</time>
      </trkpt>
      <trkpt lat="43.297843001782894" lon="-8.276527980342507">
        <ele>110.20999999999999</ele>
        <time>2025-04-30T11:56:37Z</time>
      </trkpt>
      <trkpt lat="43.297824980691075" lon="-8.276713974773884">
        <ele>110.69</ele>
        <time>2025-04-30T11:56:38Z</time>
      </trkpt>
      <trkpt lat="43.297807965427637" lon="-8.276895023882389">
        <ele>110.69</ele>
        <time>2025-04-30T11:56:39Z</time>
      </trkpt>
      <trkpt lat="43.297865968197584" lon="-8.277281010523439">
        <ele>111.65000000000001</ele>
        <time>2025-04-30T11:56:41Z</time>
      </trkpt>
      <trkpt lat="43.297894969582558" lon="-8.277473039925098">
        <ele>111.65000000000001</ele>
        <time>2025-04-30T11:56:42Z</time>
      </trkpt>
      <trkpt lat="43.297978034242988" lon="-8.278069999068975">
        <ele>112.61</ele>
        <time>2025-04-30T11:56:45Z</time>
      </trkpt>
      <trkpt lat="43.297968981787562" lon="-8.278226992115378">
        <ele>113.09</ele>
        <time>2025-04-30T11:56:46Z</time>
      </trkpt>
      <trkpt lat="43.297958001494408" lon="-8.278408041223884">
        <ele>113.56999999999999</ele>
        <time>2025-04-30T11:56:47Z</time>
      </trkpt>
      <trkpt lat="43.297913996502757" lon="-8.278579032048583">
        <ele>114.05</ele>
        <time>2025-04-30T11:56:48Z</time>
      </trkpt>
      <trkpt lat="43.297864040359855" lon="-8.278748011216521">
        <ele>114.53</ele>
        <time>2025-04-30T11:56:49Z</time>
      </trkpt>
      <trkpt lat="43.297803020104766" lon="-8.278910033404827">
        <ele>115.01000000000001</ele>
        <time>2025-04-30T11:56:50Z</time>
      </trkpt>
      <trkpt lat="43.297734037041664" lon="-8.279071971774101">
        <ele>115.5</ele>
        <time>2025-04-30T11:56:51Z</time>
      </trkpt>
      <trkpt lat="43.297574026510119" lon="-8.279581004753709">
        <ele>116.45999999999999</ele>
        <time>2025-04-30T11:56:54Z</time>
      </trkpt>
      <trkpt lat="43.297558017075062" lon="-8.279765993356705">
        <ele>116.45999999999999</ele>
        <time>2025-04-30T11:56:55Z</time>
      </trkpt>
      <trkpt lat="43.297592969611287" lon="-8.279932960867882">
        <ele>116.45999999999999</ele>
        <time>2025-04-30T11:56:56Z</time>
      </trkpt>
      <trkpt lat="43.297705035656691" lon="-8.28046303242445">
        <ele>116.45999999999999</ele>
        <time>2025-04-30T11:56:59Z</time>
      </trkpt>
      <trkpt lat="43.297718027606606" lon="-8.280631005764008">
        <ele>116.45999999999999</ele>
        <time>2025-04-30T11:57:00Z</time>
      </trkpt>
      <trkpt lat="43.297712998464704" lon="-8.280806019902229">
        <ele>116.45999999999999</ele>
        <time>2025-04-30T11:57:01Z</time>
      </trkpt>
      <trkpt lat="43.297707969322801" lon="-8.280982961878181">
        <ele>116.94</ele>
        <time>2025-04-30T11:57:02Z</time>
      </trkpt>
      <trkpt lat="43.297703023999929" lon="-8.281153030693531">
        <ele>116.94</ele>
        <time>2025-04-30T11:57:03Z</time>
      </trkpt>
      <trkpt lat="43.297699000686407" lon="-8.281303988769651">
        <ele>116.94</ele>
        <time>2025-04-30T11:57:04Z</time>
      </trkpt>
      <trkpt lat="43.297755997627974" lon="-8.281430974602699">
        <ele>117.42</ele>
        <time>2025-04-30T11:57:05Z</time>
      </trkpt>
      <trkpt lat="43.297818023711443" lon="-8.281563995406032">
        <ele>117.90000000000001</ele>
        <time>2025-04-30T11:57:06Z</time>
      </trkpt>
      <trkpt lat="43.298017010092735" lon="-8.28198803588748">
        <ele>120.78</ele>
        <time>2025-04-30T11:57:09Z</time>
      </trkpt>
      <trkpt lat="43.298034025356174" lon="-8.282124996185303">
        <ele>121.26000000000001</ele>
        <time>2025-04-30T11:57:10Z</time>
      </trkpt>
      <trkpt lat="43.298031007871032" lon="-8.282259022817016">
        <ele>122.22</ele>
        <time>2025-04-30T11:57:11Z</time>
      </trkpt>
      <trkpt lat="43.297998989000916" lon="-8.282391959801316">
        <ele>123.19</ele>
        <time>2025-04-30T11:57:12Z</time>
      </trkpt>
      <trkpt lat="43.297968981787562" lon="-8.282518023625016">
        <ele>123.67</ele>
        <time>2025-04-30T11:57:13Z</time>
      </trkpt>
      <trkpt lat="43.297935035079718" lon="-8.282659007236362">
        <ele>124.63</ele>
        <time>2025-04-30T11:57:14Z</time>
      </trkpt>
      <trkpt lat="43.297916008159518" lon="-8.282816000282764">
        <ele>125.59</ele>
        <time>2025-04-30T11:57:15Z</time>
      </trkpt>
      <trkpt lat="43.297921037301421" lon="-8.282981039956212">
        <ele>126.55</ele>
        <time>2025-04-30T11:57:16Z</time>
      </trkpt>
      <trkpt lat="43.297926988452673" lon="-8.283144989982247">
        <ele>127.03</ele>
        <time>2025-04-30T11:57:17Z</time>
      </trkpt>
      <trkpt lat="43.297950960695744" lon="-8.283862983807921">
        <ele>127.98999999999999</ele>
        <time>2025-04-30T11:57:21Z</time>
      </trkpt>
      <trkpt lat="43.297955989837646" lon="-8.284044032916427">
        <ele>128.47</ele>
        <time>2025-04-30T11:57:22Z</time>
      </trkpt>
      <trkpt lat="43.297938974574208" lon="-8.284227009862661">
        <ele>128.47</ele>
        <time>2025-04-30T11:57:23Z</time>
      </trkpt>
      <trkpt lat="43.297913996502757" lon="-8.284400012344122">
        <ele>128.94999999999999</ele>
        <time>2025-04-30T11:57:24Z</time>
      </trkpt>
      <trkpt lat="43.297872003167868" lon="-8.284564968198538">
        <ele>128.94999999999999</ele>
        <time>2025-04-30T11:57:25Z</time>
      </trkpt>
      <trkpt lat="43.297830009832978" lon="-8.284733025357127">
        <ele>128.94999999999999</ele>
        <time>2025-04-30T11:57:26Z</time>
      </trkpt>
      <trkpt lat="43.297721967101097" lon="-8.285039970651269">
        <ele>129.91999999999999</ele>
        <time>2025-04-30T11:57:28Z</time>
      </trkpt>
      <trkpt lat="43.29764099791646" lon="-8.285173997282982">
        <ele>130.40000000000001</ele>
        <time>2025-04-30T11:57:29Z</time>
      </trkpt>
      <trkpt lat="43.296542968600988" lon="-8.286893041804433">
        <ele>133.28</ele>
        <time>2025-04-30T11:57:41Z</time>
      </trkpt>
      <trkpt lat="43.295707041397691" lon="-8.288043960928917">
        <ele>136.16</ele>
        <time>2025-04-30T11:57:48Z</time>
      </trkpt>
      <trkpt lat="43.295141011476517" lon="-8.288634968921542">
        <ele>139.53</ele>
        <time>2025-04-30T11:57:52Z</time>
      </trkpt>
      <trkpt lat="43.295102035626769" lon="-8.28880000859499">
        <ele>139.53</ele>
        <time>2025-04-30T11:57:53Z</time>
      </trkpt>
      <trkpt lat="43.295079991221428" lon="-8.288959013298154">
        <ele>140.00999999999999</ele>
        <time>2025-04-30T11:57:54Z</time>
      </trkpt>
      <trkpt lat="43.295071022585034" lon="-8.289131009951234">
        <ele>140.00999999999999</ele>
        <time>2025-04-30T11:57:55Z</time>
      </trkpt>
      <trkpt lat="43.295061970129609" lon="-8.289305018261075">
        <ele>139.53</ele>
        <time>2025-04-30T11:57:56Z</time>
      </trkpt>
      <trkpt lat="43.295080997049809" lon="-8.289676001295447">
        <ele>139.53</ele>
        <time>2025-04-30T11:57:58Z</time>
      </trkpt>
      <trkpt lat="43.295304961502552" lon="-8.291796036064625">
        <ele>132.80000000000001</ele>
        <time>2025-04-30T11:58:07Z</time>
      </trkpt>
      <trkpt lat="43.295345026999712" lon="-8.292036009952426">
        <ele>131.84</ele>
        <time>2025-04-30T11:58:08Z</time>
      </trkpt>
      <trkpt lat="43.295401018112898" lon="-8.292257962748408">
        <ele>130.88</ele>
        <time>2025-04-30T11:58:09Z</time>
      </trkpt>
      <trkpt lat="43.295459020882845" lon="-8.292467007413507">
        <ele>129.91999999999999</ele>
        <time>2025-04-30T11:58:10Z</time>
      </trkpt>
      <trkpt lat="43.295494979247451" lon="-8.292674962431192">
        <ele>128.47</ele>
        <time>2025-04-30T11:58:11Z</time>
      </trkpt>
      <trkpt lat="43.295506965368986" lon="-8.292889036238194">
        <ele>127.03</ele>
        <time>2025-04-30T11:58:12Z</time>
      </trkpt>
      <trkpt lat="43.295499002560973" lon="-8.293094979599118">
        <ele>125.59</ele>
        <time>2025-04-30T11:58:13Z</time>
      </trkpt>
      <trkpt lat="43.295446028932929" lon="-8.294012965634465">
        <ele>118.86</ele>
        <time>2025-04-30T11:58:18Z</time>
      </trkpt>
      <trkpt lat="43.295400012284517" lon="-8.294149003922939">
        <ele>117.90000000000001</ele>
        <time>2025-04-30T11:58:19Z</time>
      </trkpt>
      <trkpt lat="43.295344021171331" lon="-8.294228967279196">
        <ele>116.45999999999999</ele>
        <time>2025-04-30T11:58:20Z</time>
      </trkpt>
      <trkpt lat="43.29525500535965" lon="-8.294262997806072">
        <ele>115.98</ele>
        <time>2025-04-30T11:58:21Z</time>
      </trkpt>
      <trkpt lat="43.295159032568336" lon="-8.294228967279196">
        <ele>115.01000000000001</ele>
        <time>2025-04-30T11:58:22Z</time>
      </trkpt>
      <trkpt lat="43.295059036463499" lon="-8.29419300891459">
        <ele>114.05</ele>
        <time>2025-04-30T11:58:23Z</time>
      </trkpt>
      <trkpt lat="43.294951999559999" lon="-8.294182028621435">
        <ele>112.61</ele>
        <time>2025-04-30T11:58:24Z</time>
      </trkpt>
      <trkpt lat="43.294882010668516" lon="-8.294241959229112">
        <ele>111.17</ele>
        <time>2025-04-30T11:58:25Z</time>
      </trkpt>
      <trkpt lat="43.294824007898569" lon="-8.294291999191046">
        <ele>109.73</ele>
        <time>2025-04-30T11:58:26Z</time>
      </trkpt>
      <trkpt lat="43.294806992635131" lon="-8.294389983639121">
        <ele>108.29000000000001</ele>
        <time>2025-04-30T11:58:27Z</time>
      </trkpt>
      <trkpt lat="43.294798023998737" lon="-8.294531973078847">
        <ele>106.36</ele>
        <time>2025-04-30T11:58:28Z</time>
      </trkpt>
      <trkpt lat="43.294791989028454" lon="-8.294704975560308">
        <ele>104.92</ele>
        <time>2025-04-30T11:58:29Z</time>
      </trkpt>
      <trkpt lat="43.294802969321609" lon="-8.295098003000021">
        <ele>101.56</ele>
        <time>2025-04-30T11:58:31Z</time>
      </trkpt>
      <trkpt lat="43.294852003455162" lon="-8.295314004644752">
        <ele>100.11</ele>
        <time>2025-04-30T11:58:32Z</time>
      </trkpt>
      <trkpt lat="43.295054007321596" lon="-8.296251017600298">
        <ele>95.310000000000002</ele>
        <time>2025-04-30T11:58:37Z</time>
      </trkpt>
      <trkpt lat="43.29510698094964" lon="-8.296382026746869">
        <ele>94.349999999999994</ele>
        <time>2025-04-30T11:58:38Z</time>
      </trkpt>
      <trkpt lat="43.295164983719587" lon="-8.296498032286763">
        <ele>93.390000000000001</ele>
        <time>2025-04-30T11:58:39Z</time>
      </trkpt>
      <trkpt lat="43.295227009803057" lon="-8.296605991199613">
        <ele>92.900000000000006</ele>
        <time>2025-04-30T11:58:40Z</time>
      </trkpt>
      <trkpt lat="43.295310996472836" lon="-8.296699030324817">
        <ele>92.900000000000006</ele>
        <time>2025-04-30T11:58:41Z</time>
      </trkpt>
      <trkpt lat="43.295462960377336" lon="-8.296894999220967">
        <ele>91.459999999999994</ele>
        <time>2025-04-30T11:58:43Z</time>
      </trkpt>
      <trkpt lat="43.295524986460805" lon="-8.2970089931041">
        <ele>90.980000000000004</ele>
        <time>2025-04-30T11:58:44Z</time>
      </trkpt>
      <trkpt lat="43.2955770380795" lon="-8.297130027785897">
        <ele>90.019999999999996</ele>
        <time>2025-04-30T11:58:45Z</time>
      </trkpt>
      <trkpt lat="43.295620959252119" lon="-8.297261958941817">
        <ele>89.540000000000006</ele>
        <time>2025-04-30T11:58:46Z</time>
      </trkpt>
      <trkpt lat="43.295666975900531" lon="-8.297401014715433">
        <ele>88.579999999999998</ele>
        <time>2025-04-30T11:58:47Z</time>
      </trkpt>
      <trkpt lat="43.295712992548943" lon="-8.297538980841637">
        <ele>88.099999999999994</ele>
        <time>2025-04-30T11:58:48Z</time>
      </trkpt>
      <trkpt lat="43.295767977833748" lon="-8.297853972762823">
        <ele>87.140000000000001</ele>
        <time>2025-04-30T11:58:50Z</time>
      </trkpt>
      <trkpt lat="43.295767977833748" lon="-8.298020018264651">
        <ele>86.659999999999997</ele>
        <time>2025-04-30T11:58:51Z</time>
      </trkpt>
      <trkpt lat="43.295789016410708" lon="-8.298964994028211">
        <ele>82.329999999999998</ele>
        <time>2025-04-30T11:58:56Z</time>
      </trkpt>
      <trkpt lat="43.295934023335576" lon="-8.300604997202754">
        <ele>77.040000000000006</ele>
        <time>2025-04-30T11:59:05Z</time>
      </trkpt>
      <trkpt lat="43.295980039983988" lon="-8.300742041319609">
        <ele>76.560000000000002</ele>
        <time>2025-04-30T11:59:06Z</time>
      </trkpt>
      <trkpt lat="43.296023039147258" lon="-8.300872966647148">
        <ele>76.560000000000002</ele>
        <time>2025-04-30T11:59:07Z</time>
      </trkpt>
      <trkpt lat="43.296067966148257" lon="-8.301029037684202">
        <ele>76.079999999999998</ele>
        <time>2025-04-30T11:59:08Z</time>
      </trkpt>
      <trkpt lat="43.296067966148257" lon="-8.301139008253813">
        <ele>76.560000000000002</ele>
        <time>2025-04-30T11:59:09Z</time>
      </trkpt>
      <trkpt lat="43.296067966148257" lon="-8.301307987421751">
        <ele>76.560000000000002</ele>
        <time>2025-04-30T11:59:10Z</time>
      </trkpt>
      <trkpt lat="43.296048017218709" lon="-8.301448971033096">
        <ele>77.040000000000006</ele>
        <time>2025-04-30T11:59:11Z</time>
      </trkpt>
      <trkpt lat="43.296024966984987" lon="-8.30160797573626">
        <ele>78</ele>
        <time>2025-04-30T11:59:12Z</time>
      </trkpt>
      <trkpt lat="43.295938968658447" lon="-8.302383972331882">
        <ele>81.370000000000005</ele>
        <time>2025-04-30T11:59:17Z</time>
      </trkpt>
      <trkpt lat="43.295978028327227" lon="-8.302536020055413">
        <ele>82.329999999999998</ele>
        <time>2025-04-30T11:59:18Z</time>
      </trkpt>
      <trkpt lat="43.296043993905187" lon="-8.302687983959913">
        <ele>82.810000000000002</ele>
        <time>2025-04-30T11:59:19Z</time>
      </trkpt>
      <trkpt lat="43.296411037445068" lon="-8.303555008023977">
        <ele>86.659999999999997</ele>
        <time>2025-04-30T11:59:25Z</time>
      </trkpt>
      <trkpt lat="43.296470968052745" lon="-8.303660033270717">
        <ele>87.140000000000001</ele>
        <time>2025-04-30T11:59:26Z</time>
      </trkpt>
      <trkpt lat="43.296669032424688" lon="-8.30371200107038">
        <ele>87.620000000000005</ele>
        <time>2025-04-30T11:59:27Z</time>
      </trkpt>
      <trkpt lat="43.296672971919179" lon="-8.303715018555522">
        <ele>87.620000000000005</ele>
        <time>2025-04-30T11:59:28Z</time>
      </trkpt>
      <trkpt lat="43.296739021316171" lon="-8.303780984133482">
        <ele>88.099999999999994</ele>
        <time>2025-04-30T11:59:29Z</time>
      </trkpt>
      <trkpt lat="43.296785959973931" lon="-8.303895983844996">
        <ele>88.579999999999998</ele>
        <time>2025-04-30T11:59:30Z</time>
      </trkpt>
      <trkpt lat="43.296798029914498" lon="-8.30399002879858">
        <ele>89.060000000000002</ele>
        <time>2025-04-30T11:59:31Z</time>
      </trkpt>
      <trkpt lat="43.296730974689126" lon="-8.30418398603797">
        <ele>89.060000000000002</ele>
        <time>2025-04-30T11:59:32Z</time>
      </trkpt>
      <trkpt lat="43.296755030751228" lon="-8.304311977699399">
        <ele>89.060000000000002</ele>
        <time>2025-04-30T11:59:33Z</time>
      </trkpt>
      <trkpt lat="43.296826025471091" lon="-8.304472994059324">
        <ele>89.540000000000006</ele>
        <time>2025-04-30T11:59:34Z</time>
      </trkpt>
      <trkpt lat="43.296906994655728" lon="-8.304608026519418">
        <ele>89.540000000000006</ele>
        <time>2025-04-30T11:59:35Z</time>
      </trkpt>
      <trkpt lat="43.296985030174255" lon="-8.304729983210564">
        <ele>90.019999999999996</ele>
        <time>2025-04-30T11:59:36Z</time>
      </trkpt>
      <trkpt lat="43.29706197604537" lon="-8.304844982922077">
        <ele>90.5</ele>
        <time>2025-04-30T11:59:37Z</time>
      </trkpt>
      <trkpt lat="43.297140011563897" lon="-8.304953025653958">
        <ele>90.980000000000004</ele>
        <time>2025-04-30T11:59:38Z</time>
      </trkpt>
      <trkpt lat="43.297579977661371" lon="-8.305641012266278">
        <ele>92.900000000000006</ele>
        <time>2025-04-30T11:59:44Z</time>
      </trkpt>
      <trkpt lat="43.297642003744841" lon="-8.305776966735721">
        <ele>92.900000000000006</ele>
        <time>2025-04-30T11:59:45Z</time>
      </trkpt>
      <trkpt lat="43.297690032050014" lon="-8.305922979488969">
        <ele>92.900000000000006</ele>
        <time>2025-04-30T11:59:46Z</time>
      </trkpt>
      <trkpt lat="43.298051040619612" lon="-8.307560971006751">
        <ele>88.579999999999998</ele>
        <time>2025-04-30T11:59:56Z</time>
      </trkpt>
      <trkpt lat="43.29837198369205" lon="-8.309063008055091">
        <ele>84.730000000000004</ele>
        <time>2025-04-30T12:00:05Z</time>
      </trkpt>
      <trkpt lat="43.298485977575183" lon="-8.309989040717483">
        <ele>81.849999999999994</ele>
        <time>2025-04-30T12:00:11Z</time>
      </trkpt>
      <trkpt lat="43.298480026423931" lon="-8.310127006843686">
        <ele>80.890000000000001</ele>
        <time>2025-04-30T12:00:12Z</time>
      </trkpt>
      <trkpt lat="43.298463011160493" lon="-8.310383995994926">
        <ele>79.930000000000007</ele>
        <time>2025-04-30T12:00:14Z</time>
      </trkpt>
      <trkpt lat="43.29837198369205" lon="-8.311158986762166">
        <ele>76.560000000000002</ele>
        <time>2025-04-30T12:00:23Z</time>
      </trkpt>
      <trkpt lat="43.298364020884037" lon="-8.311242973431945">
        <ele>76.079999999999998</ele>
        <time>2025-04-30T12:00:25Z</time>
      </trkpt>
      <trkpt lat="43.298455970361829" lon="-8.311432991176844">
        <ele>76.079999999999998</ele>
        <time>2025-04-30T12:00:26Z</time>
      </trkpt>
      <trkpt lat="43.298425041139126" lon="-8.311516977846623">
        <ele>76.560000000000002</ele>
        <time>2025-04-30T12:00:27Z</time>
      </trkpt>
      <trkpt lat="43.298407020047307" lon="-8.311565006151795">
        <ele>76.079999999999998</ele>
        <time>2025-04-30T12:00:28Z</time>
      </trkpt>
      <trkpt lat="43.298284979537129" lon="-8.311672965064645">
        <ele>75.599999999999994</ele>
        <time>2025-04-30T12:00:29Z</time>
      </trkpt>
      <trkpt lat="43.298266958445311" lon="-8.311784025281668">
        <ele>75.120000000000005</ele>
        <time>2025-04-30T12:00:30Z</time>
      </trkpt>
      <trkpt lat="43.298248015344143" lon="-8.311906987801194">
        <ele>75.120000000000005</ele>
        <time>2025-04-30T12:00:31Z</time>
      </trkpt>
      <trkpt lat="43.298228988423944" lon="-8.312030034139752">
        <ele>75.120000000000005</ele>
        <time>2025-04-30T12:00:32Z</time>
      </trkpt>
      <trkpt lat="43.298210967332125" lon="-8.312148973345757">
        <ele>74.640000000000001</ele>
        <time>2025-04-30T12:00:33Z</time>
      </trkpt>
      <trkpt lat="43.298193030059338" lon="-8.312273025512695">
        <ele>74.640000000000001</ele>
        <time>2025-04-30T12:00:34Z</time>
      </trkpt>
      <trkpt lat="43.298064032569528" lon="-8.313022032380104">
        <ele>73.200000000000003</ele>
        <time>2025-04-30T12:00:40Z</time>
      </trkpt>
      <trkpt lat="43.298046011477709" lon="-8.313157986849546">
        <ele>72.719999999999999</ele>
        <time>2025-04-30T12:00:41Z</time>
      </trkpt>
      <trkpt lat="43.297998989000916" lon="-8.313539028167725">
        <ele>72.239999999999995</ele>
        <time>2025-04-30T12:00:43Z</time>
      </trkpt>
      <trkpt lat="43.297975016757846" lon="-8.313625026494265">
        <ele>71.760000000000005</ele>
        <time>2025-04-30T12:00:44Z</time>
      </trkpt>
      <trkpt lat="43.297689026221633" lon="-8.31527098082006">
        <ele>77.040000000000006</ele>
        <time>2025-04-30T12:00:54Z</time>
      </trkpt>
      <trkpt lat="43.297436982393265" lon="-8.316625999286771">
        <ele>84.25</ele>
        <time>2025-04-30T12:01:04Z</time>
      </trkpt>
      <trkpt lat="43.297404041513801" lon="-8.316871002316475">
        <ele>85.689999999999998</ele>
        <time>2025-04-30T12:01:07Z</time>
      </trkpt>
      <trkpt lat="43.297392977401614" lon="-8.31694501452148">
        <ele>86.180000000000007</ele>
        <time>2025-04-30T12:01:08Z</time>
      </trkpt>
      <trkpt lat="43.297356013208628" lon="-8.317338963970542">
        <ele>88.099999999999994</ele>
        <time>2025-04-30T12:01:14Z</time>
      </trkpt>
      <trkpt lat="43.297356013208628" lon="-8.317408030852675">
        <ele>88.579999999999998</ele>
        <time>2025-04-30T12:01:15Z</time>
      </trkpt>
      <trkpt lat="43.297356013208628" lon="-8.31748397089541">
        <ele>88.579999999999998</ele>
        <time>2025-04-30T12:01:16Z</time>
      </trkpt>
      <trkpt lat="43.297356013208628" lon="-8.317572986707091">
        <ele>89.060000000000002</ele>
        <time>2025-04-30T12:01:17Z</time>
      </trkpt>
      <trkpt lat="43.297360958531499" lon="-8.317637024447322">
        <ele>89.060000000000002</ele>
        <time>2025-04-30T12:01:18Z</time>
      </trkpt>
      <trkpt lat="43.297364981845021" lon="-8.31769896671176">
        <ele>89.540000000000006</ele>
        <time>2025-04-30T12:01:19Z</time>
      </trkpt>
      <trkpt lat="43.297386020421982" lon="-8.318355018272996">
        <ele>90.980000000000004</ele>
        <time>2025-04-30T12:01:29Z</time>
      </trkpt>
      <trkpt lat="43.297364981845021" lon="-8.318511005491018">
        <ele>91.459999999999994</ele>
        <time>2025-04-30T12:01:32Z</time>
      </trkpt>
      <trkpt lat="43.297358024865389" lon="-8.318564984947443">
        <ele>91.459999999999994</ele>
        <time>2025-04-30T12:01:33Z</time>
      </trkpt>
      <trkpt lat="43.29731997102499" lon="-8.318833960220218">
        <ele>91.459999999999994</ele>
        <time>2025-04-30T12:01:36Z</time>
      </trkpt>
      <trkpt lat="43.29712500795722" lon="-8.319659996777773">
        <ele>93.390000000000001</ele>
        <time>2025-04-30T12:01:42Z</time>
      </trkpt>
      <trkpt lat="43.297038003802299" lon="-8.319921009242535">
        <ele>94.349999999999994</ele>
        <time>2025-04-30T12:01:44Z</time>
      </trkpt>
      <trkpt lat="43.296499969437718" lon="-8.321490017697215">
        <ele>95.310000000000002</ele>
        <time>2025-04-30T12:01:54Z</time>
      </trkpt>
      <trkpt lat="43.295976016670465" lon="-8.323023989796639">
        <ele>97.230000000000004</ele>
        <time>2025-04-30T12:02:04Z</time>
      </trkpt>
      <trkpt lat="43.295229021459818" lon="-8.32466097548604">
        <ele>100.59999999999999</ele>
        <time>2025-04-30T12:02:15Z</time>
      </trkpt>
      <trkpt lat="43.295102035626769" lon="-8.32498099654913">
        <ele>101.08</ele>
        <time>2025-04-30T12:02:17Z</time>
      </trkpt>
      <trkpt lat="43.295074040070176" lon="-8.325162967666984">
        <ele>101.56</ele>
        <time>2025-04-30T12:02:18Z</time>
      </trkpt>
      <trkpt lat="43.295059958472848" lon="-8.325351979583502">
        <ele>102.52</ele>
        <time>2025-04-30T12:02:19Z</time>
      </trkpt>
      <trkpt lat="43.295059958472848" lon="-8.325541997328401">
        <ele>103</ele>
        <time>2025-04-30T12:02:20Z</time>
      </trkpt>
      <trkpt lat="43.295059958472848" lon="-8.325730003416538">
        <ele>103.95999999999999</ele>
        <time>2025-04-30T12:02:21Z</time>
      </trkpt>
      <trkpt lat="43.295074040070176" lon="-8.325912980362773">
        <ele>104.44</ele>
        <time>2025-04-30T12:02:22Z</time>
      </trkpt>
      <trkpt lat="43.295100023970008" lon="-8.326096963137388">
        <ele>104.92</ele>
        <time>2025-04-30T12:02:23Z</time>
      </trkpt>
      <trkpt lat="43.295128019526601" lon="-8.326287986710668">
        <ele>105.40000000000001</ele>
        <time>2025-04-30T12:02:24Z</time>
      </trkpt>
      <trkpt lat="43.295445023104548" lon="-8.328120019286871">
        <ele>110.20999999999999</ele>
        <time>2025-04-30T12:02:32Z</time>
      </trkpt>
      <trkpt lat="43.295638980343938" lon="-8.328859973698854">
        <ele>112.13</ele>
        <time>2025-04-30T12:02:35Z</time>
      </trkpt>
      <trkpt lat="43.29566597007215" lon="-8.329115035012364">
        <ele>112.61</ele>
        <time>2025-04-30T12:02:36Z</time>
      </trkpt>
      <trkpt lat="43.295679967850447" lon="-8.32936498336494">
        <ele>113.09</ele>
        <time>2025-04-30T12:02:37Z</time>
      </trkpt>
      <trkpt lat="43.295688014477491" lon="-8.330328986048698">
        <ele>115.5</ele>
        <time>2025-04-30T12:02:41Z</time>
      </trkpt>
      <trkpt lat="43.295736964792013" lon="-8.330570971593261">
        <ele>116.45999999999999</ele>
        <time>2025-04-30T12:02:42Z</time>
      </trkpt>
      <trkpt lat="43.29598699696362" lon="-8.3317069709301">
        <ele>120.78</ele>
        <time>2025-04-30T12:02:47Z</time>
      </trkpt>
      <trkpt lat="43.296063020825386" lon="-8.331893971189857">
        <ele>121.73999999999999</ele>
        <time>2025-04-30T12:02:48Z</time>
      </trkpt>
      <trkpt lat="43.296154970303178" lon="-8.332063034176827">
        <ele>121.73999999999999</ele>
        <time>2025-04-30T12:02:49Z</time>
      </trkpt>
      <trkpt lat="43.296585967764258" lon="-8.333061989396811">
        <ele>119.81999999999999</ele>
        <time>2025-04-30T12:02:55Z</time>
      </trkpt>
      <trkpt lat="43.296626033261418" lon="-8.333240021020174">
        <ele>119.81999999999999</ele>
        <time>2025-04-30T12:02:56Z</time>
      </trkpt>
      <trkpt lat="43.296641036868095" lon="-8.33342500962317">
        <ele>119.34</ele>
        <time>2025-04-30T12:02:57Z</time>
      </trkpt>
      <trkpt lat="43.296708008274436" lon="-8.334381971508265">
        <ele>116.94</ele>
        <time>2025-04-30T12:03:02Z</time>
      </trkpt>
      <trkpt lat="43.296747989952564" lon="-8.334566038101912">
        <ele>116.45999999999999</ele>
        <time>2025-04-30T12:03:03Z</time>
      </trkpt>
      <trkpt lat="43.296884028241038" lon="-8.335103988647461">
        <ele>115.5</ele>
        <time>2025-04-30T12:03:06Z</time>
      </trkpt>
      <trkpt lat="43.296884028241038" lon="-8.335275985300541">
        <ele>115.01000000000001</ele>
        <time>2025-04-30T12:03:07Z</time>
      </trkpt>
      <trkpt lat="43.296871036291122" lon="-8.335426021367312">
        <ele>115.01000000000001</ele>
        <time>2025-04-30T12:03:08Z</time>
      </trkpt>
      <trkpt lat="43.296547997742891" lon="-8.336823033168912">
        <ele>109.73</ele>
        <time>2025-04-30T12:03:16Z</time>
      </trkpt>
      <trkpt lat="43.296514973044395" lon="-8.337006010115147">
        <ele>108.29000000000001</ele>
        <time>2025-04-30T12:03:17Z</time>
      </trkpt>
      <trkpt lat="43.296406008303165" lon="-8.337517976760864">
        <ele>104.44</ele>
        <time>2025-04-30T12:03:20Z</time>
      </trkpt>
      <trkpt lat="43.296336019411683" lon="-8.33765896037221">
        <ele>103.48</ele>
        <time>2025-04-30T12:03:21Z</time>
      </trkpt>
      <trkpt lat="43.29626795835793" lon="-8.337788041681051">
        <ele>102.04000000000001</ele>
        <time>2025-04-30T12:03:22Z</time>
      </trkpt>
      <trkpt lat="43.296091016381979" lon="-8.33800002001226">
        <ele>100.59999999999999</ele>
        <time>2025-04-30T12:03:24Z</time>
      </trkpt>
      <trkpt lat="43.295115027576685" lon="-8.338827984407544">
        <ele>97.709999999999994</ele>
        <time>2025-04-30T12:03:33Z</time>
      </trkpt>
      <trkpt lat="43.294681012630463" lon="-8.339059995487332">
        <ele>97.230000000000004</ele>
        <time>2025-04-30T12:03:37Z</time>
      </trkpt>
      <trkpt lat="43.294588979333639" lon="-8.33913903683424">
        <ele>97.709999999999994</ele>
        <time>2025-04-30T12:03:38Z</time>
      </trkpt>
      <trkpt lat="43.294172985479236" lon="-8.339540027081966">
        <ele>96.269999999999996</ele>
        <time>2025-04-30T12:03:42Z</time>
      </trkpt>
      <trkpt lat="43.294048011302948" lon="-8.339609010145068">
        <ele>95.790000000000006</ele>
        <time>2025-04-30T12:03:43Z</time>
      </trkpt>
      <trkpt lat="43.293921025469899" lon="-8.339669024571776">
        <ele>94.829999999999998</ele>
        <time>2025-04-30T12:03:44Z</time>
      </trkpt>
      <trkpt lat="43.29379403963685" lon="-8.339723004028201">
        <ele>94.349999999999994</ele>
        <time>2025-04-30T12:03:45Z</time>
      </trkpt>
      <trkpt lat="43.293662024661899" lon="-8.339776983484626">
        <ele>93.870000000000005</ele>
        <time>2025-04-30T12:03:46Z</time>
      </trkpt>
      <trkpt lat="43.293306967243552" lon="-8.339920984581113">
        <ele>91.939999999999998</ele>
        <time>2025-04-30T12:03:49Z</time>
      </trkpt>
      <trkpt lat="43.29295601695776" lon="-8.340269001200795">
        <ele>88.099999999999994</ele>
        <time>2025-04-30T12:03:53Z</time>
      </trkpt>
      <trkpt lat="43.292917963117361" lon="-8.340373020619154">
        <ele>86.659999999999997</ele>
        <time>2025-04-30T12:03:54Z</time>
      </trkpt>
      <trkpt lat="43.292923998087645" lon="-8.340478967875242">
        <ele>85.209999999999994</ele>
        <time>2025-04-30T12:03:55Z</time>
      </trkpt>
      <trkpt lat="43.292941013351083" lon="-8.340896973386407">
        <ele>81.370000000000005</ele>
        <time>2025-04-30T12:03:58Z</time>
      </trkpt>
      <trkpt lat="43.292915029451251" lon="-8.341036029160023">
        <ele>80.409999999999997</ele>
        <time>2025-04-30T12:03:59Z</time>
      </trkpt>
      <trkpt lat="43.292882004752755" lon="-8.341170977801085">
        <ele>78.969999999999999</ele>
        <time>2025-04-30T12:04:00Z</time>
      </trkpt>
      <trkpt lat="43.292812015861273" lon="-8.341279020532966">
        <ele>78</ele>
        <time>2025-04-30T12:04:01Z</time>
      </trkpt>
      <trkpt lat="43.29274202696979" lon="-8.341386979445815">
        <ele>77.040000000000006</ele>
        <time>2025-04-30T12:04:02Z</time>
      </trkpt>
      <trkpt lat="43.292674971744418" lon="-8.341492004692555">
        <ele>76.079999999999998</ele>
        <time>2025-04-30T12:04:03Z</time>
      </trkpt>
      <trkpt lat="43.292610011994839" lon="-8.341599041596055">
        <ele>74.640000000000001</ele>
        <time>2025-04-30T12:04:04Z</time>
      </trkpt>
      <trkpt lat="43.292502975091338" lon="-8.341802973300219">
        <ele>72.719999999999999</ele>
        <time>2025-04-30T12:04:06Z</time>
      </trkpt>
      <trkpt lat="43.2924859598279" lon="-8.341928031295538">
        <ele>71.760000000000005</ele>
        <time>2025-04-30T12:04:07Z</time>
      </trkpt>
      <trkpt lat="43.29246299341321" lon="-8.342099022120237">
        <ele>71.269999999999996</ele>
        <time>2025-04-30T12:04:08Z</time>
      </trkpt>
      <trkpt lat="43.29246299341321" lon="-8.342188959941268">
        <ele>71.269999999999996</ele>
        <time>2025-04-30T12:04:09Z</time>
      </trkpt>
      <trkpt lat="43.29246299341321" lon="-8.342334972694516">
        <ele>71.269999999999996</ele>
        <time>2025-04-30T12:04:10Z</time>
      </trkpt>
      <trkpt lat="43.292469028383493" lon="-8.342477967962623">
        <ele>71.760000000000005</ele>
        <time>2025-04-30T12:04:11Z</time>
      </trkpt>
      <trkpt lat="43.292474979534745" lon="-8.34262004122138">
        <ele>71.269999999999996</ele>
        <time>2025-04-30T12:04:12Z</time>
      </trkpt>
      <trkpt lat="43.29254899173975" lon="-8.342893039807677">
        <ele>71.269999999999996</ele>
        <time>2025-04-30T12:04:14Z</time>
      </trkpt>
      <trkpt lat="43.292587967589498" lon="-8.343039974570274">
        <ele>71.269999999999996</ele>
        <time>2025-04-30T12:04:15Z</time>
      </trkpt>
      <trkpt lat="43.292738003656268" lon="-8.343250025063753">
        <ele>70.790000000000006</ele>
        <time>2025-04-30T12:04:17Z</time>
      </trkpt>
      <trkpt lat="43.29280799254775" lon="-8.343367958441377">
        <ele>70.310000000000002</ele>
        <time>2025-04-30T12:04:18Z</time>
      </trkpt>
      <trkpt lat="43.292877981439233" lon="-8.343481030315161">
        <ele>69.349999999999994</ele>
        <time>2025-04-30T12:04:19Z</time>
      </trkpt>
      <trkpt lat="43.293017959222198" lon="-8.343698037788272">
        <ele>67.430000000000007</ele>
        <time>2025-04-30T12:04:21Z</time>
      </trkpt>
      <trkpt lat="43.293112004175782" lon="-8.343782024458051">
        <ele>66.469999999999999</ele>
        <time>2025-04-30T12:04:22Z</time>
      </trkpt>
      <trkpt lat="43.293201019987464" lon="-8.343840027227998">
        <ele>65.989999999999995</ele>
        <time>2025-04-30T12:04:23Z</time>
      </trkpt>
      <trkpt lat="43.29362103715539" lon="-8.344072960317135">
        <ele>60.700000000000003</ele>
        <time>2025-04-30T12:04:30Z</time>
      </trkpt>
      <trkpt lat="43.293745005503297" lon="-8.344091987237334">
        <ele>60.700000000000003</ele>
        <time>2025-04-30T12:04:33Z</time>
      </trkpt>
      <trkpt lat="43.293776018545032" lon="-8.344204975292087">
        <ele>61.659999999999997</ele>
        <time>2025-04-30T12:04:34Z</time>
      </trkpt>
      <trkpt lat="43.293966958299279" lon="-8.344435980543494">
        <ele>63.100000000000001</ele>
        <time>2025-04-30T12:04:37Z</time>
      </trkpt>
      <trkpt lat="43.294018004089594" lon="-8.344532959163189">
        <ele>63.579999999999998</ele>
        <time>2025-04-30T12:04:38Z</time>
      </trkpt>
      <trkpt lat="43.29405102878809" lon="-8.344631027430296">
        <ele>64.069999999999993</ele>
        <time>2025-04-30T12:04:39Z</time>
      </trkpt>
      <trkpt lat="43.294068966060877" lon="-8.344739992171526">
        <ele>65.030000000000001</ele>
        <time>2025-04-30T12:04:40Z</time>
      </trkpt>
      <trkpt lat="43.294083969667554" lon="-8.344828002154827">
        <ele>65.510000000000005</ele>
        <time>2025-04-30T12:04:41Z</time>
      </trkpt>
      <trkpt lat="43.294092016294599" lon="-8.344874018803239">
        <ele>66.469999999999999</ele>
        <time>2025-04-30T12:04:42Z</time>
      </trkpt>
      <trkpt lat="43.29409696161747" lon="-8.344906037673354">
        <ele>66.950000000000003</ele>
        <time>2025-04-30T12:04:43Z</time>
      </trkpt>
      <trkpt lat="43.294071983546019" lon="-8.345003016293049">
        <ele>67.909999999999997</ele>
        <time>2025-04-30T12:04:46Z</time>
      </trkpt>
      <trkpt lat="43.294055974110961" lon="-8.345089014619589">
        <ele>68.390000000000001</ele>
        <time>2025-04-30T12:04:47Z</time>
      </trkpt>
      <trkpt lat="43.29401196911931" lon="-8.345320019870997">
        <ele>68.390000000000001</ele>
        <time>2025-04-30T12:04:49Z</time>
      </trkpt>
      <trkpt lat="43.293765960261226" lon="-8.346574036404491">
        <ele>67.909999999999997</ele>
        <time>2025-04-30T12:04:57Z</time>
      </trkpt>
      <trkpt lat="43.29345197416842" lon="-8.348027961328626">
        <ele>65.030000000000001</ele>
        <time>2025-04-30T12:05:06Z</time>
      </trkpt>
      <trkpt lat="43.293157014995813" lon="-8.350007012486458">
        <ele>48.68</ele>
        <time>2025-04-30T12:05:18Z</time>
      </trkpt>
      <trkpt lat="43.293182998895645" lon="-8.350362991914153">
        <ele>45.32</ele>
        <time>2025-04-30T12:05:20Z</time>
      </trkpt>
      <trkpt lat="43.293205965310335" lon="-8.350531971082091">
        <ele>43.880000000000003</ele>
        <time>2025-04-30T12:05:21Z</time>
      </trkpt>
      <trkpt lat="43.29323697835207" lon="-8.350686030462384">
        <ele>42.439999999999998</ele>
        <time>2025-04-30T12:05:22Z</time>
      </trkpt>
      <trkpt lat="43.293275032192469" lon="-8.350836988538504">
        <ele>40.990000000000002</ele>
        <time>2025-04-30T12:05:23Z</time>
      </trkpt>
      <trkpt lat="43.293314008042216" lon="-8.350991969928145">
        <ele>40.030000000000001</ele>
        <time>2025-04-30T12:05:24Z</time>
      </trkpt>
      <trkpt lat="43.293454991653562" lon="-8.351614996790886">
        <ele>35.229999999999997</ele>
        <time>2025-04-30T12:05:28Z</time>
      </trkpt>
      <trkpt lat="43.293573008850217" lon="-8.352544968947768">
        <ele>30.420000000000002</ele>
        <time>2025-04-30T12:05:33Z</time>
      </trkpt>
      <trkpt lat="43.293636040762067" lon="-8.352703973650932">
        <ele>29.460000000000001</ele>
        <time>2025-04-30T12:05:34Z</time>
      </trkpt>
      <trkpt lat="43.293814994394779" lon="-8.353162966668606">
        <ele>28.5</ele>
        <time>2025-04-30T12:05:37Z</time>
      </trkpt>
      <trkpt lat="43.293866040185094" lon="-8.353314008563757">
        <ele>28.02</ele>
        <time>2025-04-30T12:05:38Z</time>
      </trkpt>
      <trkpt lat="43.293954972177744" lon="-8.353797979652882">
        <ele>26.57</ele>
        <time>2025-04-30T12:05:41Z</time>
      </trkpt>
      <trkpt lat="43.29396503046155" lon="-8.353954972699285">
        <ele>25.129999999999999</ele>
        <time>2025-04-30T12:05:42Z</time>
      </trkpt>
      <trkpt lat="43.293943991884589" lon="-8.354121018201113">
        <ele>24.170000000000002</ele>
        <time>2025-04-30T12:05:43Z</time>
      </trkpt>
      <trkpt lat="43.293905016034842" lon="-8.354293014854193">
        <ele>23.210000000000001</ele>
        <time>2025-04-30T12:05:44Z</time>
      </trkpt>
      <trkpt lat="43.293841984122992" lon="-8.354445984587073">
        <ele>22.25</ele>
        <time>2025-04-30T12:05:45Z</time>
      </trkpt>
      <trkpt lat="43.293814994394779" lon="-8.354614041745663">
        <ele>21.289999999999999</ele>
        <time>2025-04-30T12:05:46Z</time>
      </trkpt>
      <trkpt lat="43.29379403963685" lon="-8.354775980114937">
        <ele>19.84</ele>
        <time>2025-04-30T12:05:47Z</time>
      </trkpt>
      <trkpt lat="43.29379403963685" lon="-8.354948982596397">
        <ele>18.879999999999999</ele>
        <time>2025-04-30T12:05:48Z</time>
      </trkpt>
      <trkpt lat="43.293808037415147" lon="-8.35512600839138">
        <ele>17.440000000000001</ele>
        <time>2025-04-30T12:05:49Z</time>
      </trkpt>
      <trkpt lat="43.293841984122992" lon="-8.355310996994376">
        <ele>16.48</ele>
        <time>2025-04-30T12:05:50Z</time>
      </trkpt>
      <trkpt lat="43.294010041281581" lon="-8.356234012171626">
        <ele>11.67</ele>
        <time>2025-04-30T12:05:55Z</time>
      </trkpt>
      <trkpt lat="43.29405102878809" lon="-8.356411959975958">
        <ele>11.19</ele>
        <time>2025-04-30T12:05:56Z</time>
      </trkpt>
      <trkpt lat="43.294555032625794" lon="-8.357784999534488">
        <ele>10.23</ele>
        <time>2025-04-30T12:06:05Z</time>
      </trkpt>
      <trkpt lat="43.294572969898582" lon="-8.357932018116117">
        <ele>10.710000000000001</ele>
        <time>2025-04-30T12:06:06Z</time>
      </trkpt>
      <trkpt lat="43.294588979333639" lon="-8.358065960928798">
        <ele>10.710000000000001</ele>
        <time>2025-04-30T12:06:07Z</time>
      </trkpt>
      <trkpt lat="43.294601971283555" lon="-8.358177021145821">
        <ele>10.710000000000001</ele>
        <time>2025-04-30T12:06:08Z</time>
      </trkpt>
      <trkpt lat="43.294609012082219" lon="-8.358273999765515">
        <ele>11.19</ele>
        <time>2025-04-30T12:06:09Z</time>
      </trkpt>
      <trkpt lat="43.294603982940316" lon="-8.358381036669016">
        <ele>10.710000000000001</ele>
        <time>2025-04-30T12:06:10Z</time>
      </trkpt>
      <trkpt lat="43.294575987383723" lon="-8.358480026945472">
        <ele>10.710000000000001</ele>
        <time>2025-04-30T12:06:11Z</time>
      </trkpt>
      <trkpt lat="43.29424699768424" lon="-8.359538996592164">
        <ele>16</ele>
        <time>2025-04-30T12:06:19Z</time>
      </trkpt>
      <trkpt lat="43.293770989403129" lon="-8.360268976539373">
        <ele>18.879999999999999</ele>
        <time>2025-04-30T12:06:25Z</time>
      </trkpt>
      <trkpt lat="43.293670993298292" lon="-8.360360004007816">
        <ele>19.359999999999999</ele>
        <time>2025-04-30T12:06:26Z</time>
      </trkpt>
      <trkpt lat="43.293407969176769" lon="-8.360547004267573">
        <ele>19.84</ele>
        <time>2025-04-30T12:06:29Z</time>
      </trkpt>
      <trkpt lat="43.293379973620176" lon="-8.360597966238856">
        <ele>19.359999999999999</ele>
        <time>2025-04-30T12:06:30Z</time>
      </trkpt>
      <trkpt lat="43.293360024690628" lon="-8.360635014250875">
        <ele>19.359999999999999</ele>
        <time>2025-04-30T12:06:31Z</time>
      </trkpt>
      <trkpt lat="43.293406963348389" lon="-8.360767029225826">
        <ele>19.359999999999999</ele>
        <time>2025-04-30T12:06:32Z</time>
      </trkpt>
      <trkpt lat="43.293406963348389" lon="-8.360767029225826">
        <ele>19.359999999999999</ele>
        <time>2025-04-30T12:06:33Z</time>
      </trkpt>
      <trkpt lat="43.29343001358211" lon="-8.360835006460547">
        <ele>19.84</ele>
        <time>2025-04-30T12:06:34Z</time>
      </trkpt>
      <trkpt lat="43.293395983055234" lon="-8.36099199950695">
        <ele>19.84</ele>
        <time>2025-04-30T12:06:35Z</time>
      </trkpt>
      <trkpt lat="43.293364970013499" lon="-8.361045978963375">
        <ele>20.32</ele>
        <time>2025-04-30T12:06:36Z</time>
      </trkpt>
      <trkpt lat="43.29321401193738" lon="-8.361073974519968">
        <ele>20.32</ele>
        <time>2025-04-30T12:06:37Z</time>
      </trkpt>
      <trkpt lat="43.293139999732375" lon="-8.361166007816792">
        <ele>20.809999999999999</ele>
        <time>2025-04-30T12:06:38Z</time>
      </trkpt>
      <trkpt lat="43.293062970042229" lon="-8.361262986436486">
        <ele>21.289999999999999</ele>
        <time>2025-04-30T12:06:39Z</time>
      </trkpt>
      <trkpt lat="43.292799023911357" lon="-8.361591976135969">
        <ele>22.73</ele>
        <time>2025-04-30T12:06:42Z</time>
      </trkpt>
      <trkpt lat="43.292709002271295" lon="-8.361708987504244">
        <ele>23.690000000000001</ele>
        <time>2025-04-30T12:06:43Z</time>
      </trkpt>
      <trkpt lat="43.291779030114412" lon="-8.36283802986145">
        <ele>24.649999999999999</ele>
        <time>2025-04-30T12:06:52Z</time>
      </trkpt>
      <trkpt lat="43.291288018226624" lon="-8.363250000402331">
        <ele>24.649999999999999</ele>
        <time>2025-04-30T12:06:56Z</time>
      </trkpt>
      <trkpt lat="43.291196990758181" lon="-8.363385032862425">
        <ele>24.649999999999999</ele>
        <time>2025-04-30T12:06:57Z</time>
      </trkpt>
      <trkpt lat="43.291150974109769" lon="-8.36354797706008">
        <ele>24.649999999999999</ele>
        <time>2025-04-30T12:06:58Z</time>
      </trkpt>
      <trkpt lat="43.291110992431641" lon="-8.363726008683443">
        <ele>24.649999999999999</ele>
        <time>2025-04-30T12:06:59Z</time>
      </trkpt>
      <trkpt lat="43.291072016581893" lon="-8.363895993679762">
        <ele>24.649999999999999</ele>
        <time>2025-04-30T12:07:00Z</time>
      </trkpt>
      <trkpt lat="43.290865989401937" lon="-8.364650029689074">
        <ele>25.129999999999999</ele>
        <time>2025-04-30T12:07:05Z</time>
      </trkpt>
      <trkpt lat="43.290789965540171" lon="-8.364770980551839">
        <ele>25.129999999999999</ele>
        <time>2025-04-30T12:07:06Z</time>
      </trkpt>
      <trkpt lat="43.290715031325817" lon="-8.364892015233636">
        <ele>25.129999999999999</ele>
        <time>2025-04-30T12:07:07Z</time>
      </trkpt>
      <trkpt lat="43.290425017476082" lon="-8.365358971059322">
        <ele>25.609999999999999</ele>
        <time>2025-04-30T12:07:11Z</time>
      </trkpt>
      <trkpt lat="43.29037799499929" lon="-8.365504983812571">
        <ele>25.609999999999999</ele>
        <time>2025-04-30T12:07:12Z</time>
      </trkpt>
      <trkpt lat="43.290287973359227" lon="-8.365786029025912">
        <ele>25.609999999999999</ele>
        <time>2025-04-30T12:07:14Z</time>
      </trkpt>
      <trkpt lat="43.289825040847063" lon="-8.367302985861898">
        <ele>28.98</ele>
        <time>2025-04-30T12:07:25Z</time>
      </trkpt>
      <trkpt lat="43.289784975349903" lon="-8.367438018321991">
        <ele>29.460000000000001</ele>
        <time>2025-04-30T12:07:26Z</time>
      </trkpt>
      <trkpt lat="43.289737030863762" lon="-8.367558969184756">
        <ele>30.420000000000002</ele>
        <time>2025-04-30T12:07:27Z</time>
      </trkpt>
      <trkpt lat="43.28966997563839" lon="-8.36765200830996">
        <ele>30.420000000000002</ele>
        <time>2025-04-30T12:07:28Z</time>
      </trkpt>
      <trkpt lat="43.289601998403668" lon="-8.36771696805954">
        <ele>30.899999999999999</ele>
        <time>2025-04-30T12:07:29Z</time>
      </trkpt>
      <trkpt lat="43.289555981755257" lon="-8.367754016071558">
        <ele>30.899999999999999</ele>
        <time>2025-04-30T12:07:30Z</time>
      </trkpt>
      <trkpt lat="43.289528992027044" lon="-8.367775976657867">
        <ele>31.379999999999999</ele>
        <time>2025-04-30T12:07:31Z</time>
      </trkpt>
      <trkpt lat="43.289468977600336" lon="-8.367825010791421">
        <ele>33.299999999999997</ele>
        <time>2025-04-30T12:07:40Z</time>
      </trkpt>
      <trkpt lat="43.289421033114195" lon="-8.367863986641169">
        <ele>33.299999999999997</ele>
        <time>2025-04-30T12:07:41Z</time>
      </trkpt>
      <trkpt lat="43.289358001202345" lon="-8.367915032431483">
        <ele>33.780000000000001</ele>
        <time>2025-04-30T12:07:42Z</time>
      </trkpt>
      <trkpt lat="43.289287006482482" lon="-8.36797202937305">
        <ele>33.780000000000001</ele>
        <time>2025-04-30T12:07:43Z</time>
      </trkpt>
      <trkpt lat="43.289205031469464" lon="-8.36803900077939">
        <ele>33.299999999999997</ele>
        <time>2025-04-30T12:07:44Z</time>
      </trkpt>
      <trkpt lat="43.28913202509284" lon="-8.36812499910593">
        <ele>33.299999999999997</ele>
        <time>2025-04-30T12:07:45Z</time>
      </trkpt>
      <trkpt lat="43.289053989574313" lon="-8.368217032402754">
        <ele>32.82</ele>
        <time>2025-04-30T12:07:46Z</time>
      </trkpt>
      <trkpt lat="43.288450995460153" lon="-8.369007026776671">
        <ele>23.690000000000001</ele>
        <time>2025-04-30T12:07:53Z</time>
      </trkpt>
      <trkpt lat="43.288340019062161" lon="-8.36909101344645">
        <ele>22.25</ele>
        <time>2025-04-30T12:07:54Z</time>
      </trkpt>
      <trkpt lat="43.287084996700287" lon="-8.369995001703501">
        <ele>15.52</ele>
        <time>2025-04-30T12:08:04Z</time>
      </trkpt>
      <trkpt lat="43.286345964297652" lon="-8.370446031913161">
        <ele>16.960000000000001</ele>
        <time>2025-04-30T12:08:11Z</time>
      </trkpt>
      <trkpt lat="43.286282010376453" lon="-8.370468998327851">
        <ele>16.960000000000001</ele>
        <time>2025-04-30T12:08:12Z</time>
      </trkpt>
      <trkpt lat="43.286205986514688" lon="-8.370476039126515">
        <ele>17.440000000000001</ele>
        <time>2025-04-30T12:08:13Z</time>
      </trkpt>
      <trkpt lat="43.286089980974793" lon="-8.370488025248051">
        <ele>17.440000000000001</ele>
        <time>2025-04-30T12:08:14Z</time>
      </trkpt>
      <trkpt lat="43.286020997911692" lon="-8.370479978621006">
        <ele>17.920000000000002</ele>
        <time>2025-04-30T12:08:15Z</time>
      </trkpt>
      <trkpt lat="43.285013996064663" lon="-8.37042298167944">
        <ele>25.129999999999999</ele>
        <time>2025-04-30T12:08:24Z</time>
      </trkpt>
      <trkpt lat="43.283843966200948" lon="-8.370333965867758">
        <ele>27.530000000000001</ele>
        <time>2025-04-30T12:08:33Z</time>
      </trkpt>
      <trkpt lat="43.283709017559886" lon="-8.37029499001801">
        <ele>28.02</ele>
        <time>2025-04-30T12:08:34Z</time>
      </trkpt>
      <trkpt lat="43.282906031236053" lon="-8.36999399587512">
        <ele>28.5</ele>
        <time>2025-04-30T12:08:40Z</time>
      </trkpt>
      <trkpt lat="43.282807040959597" lon="-8.36999399587512">
        <ele>28.98</ele>
        <time>2025-04-30T12:08:41Z</time>
      </trkpt>
      <trkpt lat="43.282704027369618" lon="-8.370062978938222">
        <ele>28.98</ele>
        <time>2025-04-30T12:08:42Z</time>
      </trkpt>
      <trkpt lat="43.282620962709188" lon="-8.370153000578284">
        <ele>29.460000000000001</ele>
        <time>2025-04-30T12:08:43Z</time>
      </trkpt>
      <trkpt lat="43.28253697603941" lon="-8.370259031653404">
        <ele>29.460000000000001</ele>
        <time>2025-04-30T12:08:44Z</time>
      </trkpt>
      <trkpt lat="43.28245198354125" lon="-8.370367996394634">
        <ele>29.460000000000001</ele>
        <time>2025-04-30T12:08:45Z</time>
      </trkpt>
      <trkpt lat="43.282363973557949" lon="-8.370478972792625">
        <ele>29.460000000000001</ele>
        <time>2025-04-30T12:08:46Z</time>
      </trkpt>
      <trkpt lat="43.281881008297205" lon="-8.371066963300109">
        <ele>26.57</ele>
        <time>2025-04-30T12:08:53Z</time>
      </trkpt>
      <trkpt lat="43.281295029446483" lon="-8.371742041781545">
        <ele>25.609999999999999</ele>
        <time>2025-04-30T12:09:00Z</time>
      </trkpt>
      <trkpt lat="43.28118396922946" lon="-8.371809013187885">
        <ele>26.09</ele>
        <time>2025-04-30T12:09:01Z</time>
      </trkpt>
      <trkpt lat="43.281058995053172" lon="-8.371879002079368">
        <ele>26.09</ele>
        <time>2025-04-30T12:09:02Z</time>
      </trkpt>
      <trkpt lat="43.280932009220123" lon="-8.37194899097085">
        <ele>26.09</ele>
        <time>2025-04-30T12:09:03Z</time>
      </trkpt>
      <trkpt lat="43.280514003708959" lon="-8.372130040079355">
        <ele>26.09</ele>
        <time>2025-04-30T12:09:06Z</time>
      </trkpt>
      <trkpt lat="43.280378971248865" lon="-8.372215032577515">
        <ele>26.09</ele>
        <time>2025-04-30T12:09:07Z</time>
      </trkpt>
      <trkpt lat="43.280248967930675" lon="-8.372303964570165">
        <ele>26.09</ele>
        <time>2025-04-30T12:09:08Z</time>
      </trkpt>
      <trkpt lat="43.279326036572456" lon="-8.372965967282653">
        <ele>25.609999999999999</ele>
        <time>2025-04-30T12:09:16Z</time>
      </trkpt>
      <trkpt lat="43.278848016634583" lon="-8.373271990567446">
        <ele>26.09</ele>
        <time>2025-04-30T12:09:20Z</time>
      </trkpt>
      <trkpt lat="43.278739973902702" lon="-8.373394031077623">
        <ele>26.09</ele>
        <time>2025-04-30T12:09:21Z</time>
      </trkpt>
      <trkpt lat="43.278627991676331" lon="-8.373520011082292">
        <ele>26.09</ele>
        <time>2025-04-30T12:09:22Z</time>
      </trkpt>
      <trkpt lat="43.278397992253304" lon="-8.373779011890292">
        <ele>27.050000000000001</ele>
        <time>2025-04-30T12:09:24Z</time>
      </trkpt>
      <trkpt lat="43.278272012248635" lon="-8.373875990509987">
        <ele>27.050000000000001</ele>
        <time>2025-04-30T12:09:25Z</time>
      </trkpt>
      <trkpt lat="43.278135973960161" lon="-8.373970035463572">
        <ele>27.530000000000001</ele>
        <time>2025-04-30T12:09:26Z</time>
      </trkpt>
      <trkpt lat="43.27677802182734" lon="-8.374715019017458">
        <ele>28.98</ele>
        <time>2025-04-30T12:09:34Z</time>
      </trkpt>
      <trkpt lat="43.275367012247443" lon="-8.37570802308619">
        <ele>28.98</ele>
        <time>2025-04-30T12:09:43Z</time>
      </trkpt>
      <trkpt lat="43.2745679654181" lon="-8.376657022163272">
        <ele>24.649999999999999</ele>
        <time>2025-04-30T12:09:49Z</time>
      </trkpt>
      <trkpt lat="43.274463023990393" lon="-8.376843016594648">
        <ele>24.170000000000002</ele>
        <time>2025-04-30T12:09:50Z</time>
      </trkpt>
      <trkpt lat="43.274014005437493" lon="-8.377638040110469">
        <ele>22.73</ele>
        <time>2025-04-30T12:09:54Z</time>
      </trkpt>
      <trkpt lat="43.272783039137721" lon="-8.378989035263658">
        <ele>24.170000000000002</ele>
        <time>2025-04-30T12:10:02Z</time>
      </trkpt>
      <trkpt lat="43.272495958954096" lon="-8.379220962524414">
        <ele>25.609999999999999</ele>
        <time>2025-04-30T12:10:04Z</time>
      </trkpt>
      <trkpt lat="43.272365033626556" lon="-8.379303021356463">
        <ele>27.050000000000001</ele>
        <time>2025-04-30T12:10:05Z</time>
      </trkpt>
      <trkpt lat="43.272121036425233" lon="-8.379456996917725">
        <ele>28.98</ele>
        <time>2025-04-30T12:10:07Z</time>
      </trkpt>
      <trkpt lat="43.272013999521732" lon="-8.379564033821225">
        <ele>29.940000000000001</ele>
        <time>2025-04-30T12:10:08Z</time>
      </trkpt>
      <trkpt lat="43.271926995366812" lon="-8.379709962755442">
        <ele>30.899999999999999</ele>
        <time>2025-04-30T12:10:09Z</time>
      </trkpt>
      <trkpt lat="43.271845020353794" lon="-8.379869973286986">
        <ele>31.379999999999999</ele>
        <time>2025-04-30T12:10:10Z</time>
      </trkpt>
      <trkpt lat="43.271767990663648" lon="-8.380042975768447">
        <ele>32.340000000000003</ele>
        <time>2025-04-30T12:10:11Z</time>
      </trkpt>
      <trkpt lat="43.271420979872346" lon="-8.380703972652555">
        <ele>33.780000000000001</ele>
        <time>2025-04-30T12:10:15Z</time>
      </trkpt>
      <trkpt lat="43.271329030394554" lon="-8.380844034254551">
        <ele>34.259999999999998</ele>
        <time>2025-04-30T12:10:16Z</time>
      </trkpt>
      <trkpt lat="43.271241020411253" lon="-8.380977977067232">
        <ele>34.259999999999998</ele>
        <time>2025-04-30T12:10:17Z</time>
      </trkpt>
      <trkpt lat="43.271158961579204" lon="-8.381103035062552">
        <ele>34.259999999999998</ele>
        <time>2025-04-30T12:10:18Z</time>
      </trkpt>
      <trkpt lat="43.271113028749824" lon="-8.381242007017136">
        <ele>33.780000000000001</ele>
        <time>2025-04-30T12:10:19Z</time>
      </trkpt>
      <trkpt lat="43.271113028749824" lon="-8.381388019770384">
        <ele>33.780000000000001</ele>
        <time>2025-04-30T12:10:20Z</time>
      </trkpt>
      <trkpt lat="43.271163990721107" lon="-8.381548030301929">
        <ele>32.82</ele>
        <time>2025-04-30T12:10:21Z</time>
      </trkpt>
      <trkpt lat="43.27121595852077" lon="-8.381713991984725">
        <ele>31.859999999999999</ele>
        <time>2025-04-30T12:10:22Z</time>
      </trkpt>
      <trkpt lat="43.271264992654324" lon="-8.381890011951327">
        <ele>30.899999999999999</ele>
        <time>2025-04-30T12:10:23Z</time>
      </trkpt>
      <trkpt lat="43.271277984604239" lon="-8.382077012211084">
        <ele>29.940000000000001</ele>
        <time>2025-04-30T12:10:24Z</time>
      </trkpt>
      <trkpt lat="43.271311009302735" lon="-8.382245991379023">
        <ele>28.5</ele>
        <time>2025-04-30T12:10:25Z</time>
      </trkpt>
      <trkpt lat="43.271368006244302" lon="-8.382381023839116">
        <ele>27.530000000000001</ele>
        <time>2025-04-30T12:10:26Z</time>
      </trkpt>
      <trkpt lat="43.271446963772178" lon="-8.382478002458811">
        <ele>27.050000000000001</ele>
        <time>2025-04-30T12:10:27Z</time>
      </trkpt>
      <trkpt lat="43.271548971533775" lon="-8.382548997178674">
        <ele>26.57</ele>
        <time>2025-04-30T12:10:28Z</time>
      </trkpt>
      <trkpt lat="43.27166598290205" lon="-8.38262896053493">
        <ele>26.57</ele>
        <time>2025-04-30T12:10:29Z</time>
      </trkpt>
      <trkpt lat="43.27175198122859" lon="-8.382760975509882">
        <ele>26.57</ele>
        <time>2025-04-30T12:10:30Z</time>
      </trkpt>
      <trkpt lat="43.271823981776834" lon="-8.382901037111878">
        <ele>26.57</ele>
        <time>2025-04-30T12:10:31Z</time>
      </trkpt>
      <trkpt lat="43.271840997040272" lon="-8.383070016279817">
        <ele>26.57</ele>
        <time>2025-04-30T12:10:32Z</time>
      </trkpt>
      <trkpt lat="43.271820964291692" lon="-8.3832280151546">
        <ele>26.57</ele>
        <time>2025-04-30T12:10:33Z</time>
      </trkpt>
      <trkpt lat="43.27179498039186" lon="-8.383404035121203">
        <ele>27.050000000000001</ele>
        <time>2025-04-30T12:10:34Z</time>
      </trkpt>
      <trkpt lat="43.271766984835267" lon="-8.38359204120934">
        <ele>27.050000000000001</ele>
        <time>2025-04-30T12:10:35Z</time>
      </trkpt>
      <trkpt lat="43.271747035905719" lon="-8.38378700427711">
        <ele>27.050000000000001</ele>
        <time>2025-04-30T12:10:36Z</time>
      </trkpt>
      <trkpt lat="43.271732032299042" lon="-8.383971992880106">
        <ele>27.050000000000001</ele>
        <time>2025-04-30T12:10:37Z</time>
      </trkpt>
      <trkpt lat="43.271719040349126" lon="-8.384139966219664">
        <ele>27.530000000000001</ele>
        <time>2025-04-30T12:10:38Z</time>
      </trkpt>
      <trkpt lat="43.271688027307391" lon="-8.384288996458054">
        <ele>27.530000000000001</ele>
        <time>2025-04-30T12:10:39Z</time>
      </trkpt>
      <trkpt lat="43.271618960425258" lon="-8.384418999776244">
        <ele>27.530000000000001</ele>
        <time>2025-04-30T12:10:40Z</time>
      </trkpt>
      <trkpt lat="43.271530028432608" lon="-8.384545985609293">
        <ele>28.02</ele>
        <time>2025-04-30T12:10:41Z</time>
      </trkpt>
      <trkpt lat="43.271463979035616" lon="-8.384678000584245">
        <ele>28.02</ele>
        <time>2025-04-30T12:10:42Z</time>
      </trkpt>
      <trkpt lat="43.271401030942798" lon="-8.384806998074055">
        <ele>28.02</ele>
        <time>2025-04-30T12:10:43Z</time>
      </trkpt>
      <trkpt lat="43.27134202234447" lon="-8.384940018877387">
        <ele>28.02</ele>
        <time>2025-04-30T12:10:44Z</time>
      </trkpt>
      <trkpt lat="43.270448008552194" lon="-8.38677397929132">
        <ele>30.420000000000002</ele>
        <time>2025-04-30T12:10:57Z</time>
      </trkpt>
      <trkpt lat="43.269560029730201" lon="-8.38795498944819">
        <ele>27.530000000000001</ele>
        <time>2025-04-30T12:11:06Z</time>
      </trkpt>
      <trkpt lat="43.269219975918531" lon="-8.388381041586399">
        <ele>26.09</ele>
        <time>2025-04-30T12:11:09Z</time>
      </trkpt>
      <trkpt lat="43.269119979813695" lon="-8.388538034632802">
        <ele>26.09</ele>
        <time>2025-04-30T12:11:10Z</time>
      </trkpt>
      <trkpt lat="43.269055020064116" lon="-8.38872897438705">
        <ele>26.09</ele>
        <time>2025-04-30T12:11:11Z</time>
      </trkpt>
      <trkpt lat="43.26899902895093" lon="-8.388936007395387">
        <ele>26.09</ele>
        <time>2025-04-30T12:11:12Z</time>
      </trkpt>
      <trkpt lat="43.268942032009363" lon="-8.389146979898214">
        <ele>26.09</ele>
        <time>2025-04-30T12:11:13Z</time>
      </trkpt>
      <trkpt lat="43.268881011754274" lon="-8.38937102816999">
        <ele>26.09</ele>
        <time>2025-04-30T12:11:14Z</time>
      </trkpt>
      <trkpt lat="43.268764000386" lon="-8.389520980417728">
        <ele>26.57</ele>
        <time>2025-04-30T12:11:15Z</time>
      </trkpt>
      <trkpt lat="43.268617987632751" lon="-8.389650983735919">
        <ele>27.050000000000001</ele>
        <time>2025-04-30T12:11:16Z</time>
      </trkpt>
      <trkpt lat="43.268452025949955" lon="-8.389777969568968">
        <ele>27.530000000000001</ele>
        <time>2025-04-30T12:11:17Z</time>
      </trkpt>
      <trkpt lat="43.268277011811733" lon="-8.389879977330566">
        <ele>28.02</ele>
        <time>2025-04-30T12:11:18Z</time>
      </trkpt>
      <trkpt lat="43.266412038356066" lon="-8.39107096195221">
        <ele>34.259999999999998</ele>
        <time>2025-04-30T12:11:28Z</time>
      </trkpt>
      <trkpt lat="43.264829032123089" lon="-8.392044017091394">
        <ele>40.990000000000002</ele>
        <time>2025-04-30T12:11:37Z</time>
      </trkpt>
      <trkpt lat="43.264490989968181" lon="-8.392292959615588">
        <ele>42.439999999999998</ele>
        <time>2025-04-30T12:11:40Z</time>
      </trkpt>
      <trkpt lat="43.264375990256667" lon="-8.392387004569173">
        <ele>42.439999999999998</ele>
        <time>2025-04-30T12:11:41Z</time>
      </trkpt>
      <trkpt lat="43.263361025601625" lon="-8.393280012533069">
        <ele>42.920000000000002</ele>
        <time>2025-04-30T12:11:48Z</time>
      </trkpt>
      <trkpt lat="43.262418983504176" lon="-8.394141001626849">
        <ele>45.32</ele>
        <time>2025-04-30T12:11:54Z</time>
      </trkpt>
      <trkpt lat="43.262310018762946" lon="-8.394289026036859">
        <ele>45.32</ele>
        <time>2025-04-30T12:11:55Z</time>
      </trkpt>
      <trkpt lat="43.262217985466123" lon="-8.394458005204797">
        <ele>45.799999999999997</ele>
        <time>2025-04-30T12:11:56Z</time>
      </trkpt>
      <trkpt lat="43.261666959151626" lon="-8.395557040348649">
        <ele>47.240000000000002</ele>
        <time>2025-04-30T12:12:02Z</time>
      </trkpt>
      <trkpt lat="43.261556988582015" lon="-8.395707998424768">
        <ele>47.719999999999999</ele>
        <time>2025-04-30T12:12:03Z</time>
      </trkpt>
      <trkpt lat="43.261433020234108" lon="-8.395842025056481">
        <ele>47.719999999999999</ele>
        <time>2025-04-30T12:12:04Z</time>
      </trkpt>
      <trkpt lat="43.260933039709926" lon="-8.396305963397026">
        <ele>49.159999999999997</ele>
        <time>2025-04-30T12:12:08Z</time>
      </trkpt>
      <trkpt lat="43.260838994756341" lon="-8.396467985585332">
        <ele>50.130000000000003</ele>
        <time>2025-04-30T12:12:09Z</time>
      </trkpt>
      <trkpt lat="43.260746039450169" lon="-8.396630007773638">
        <ele>51.090000000000003</ele>
        <time>2025-04-30T12:12:10Z</time>
      </trkpt>
      <trkpt lat="43.260443033650517" lon="-8.397108027711511">
        <ele>53.490000000000002</ele>
        <time>2025-04-30T12:12:13Z</time>
      </trkpt>
      <trkpt lat="43.260315963998437" lon="-8.397250017151237">
        <ele>54.450000000000003</ele>
        <time>2025-04-30T12:12:14Z</time>
      </trkpt>
      <trkpt lat="43.259222963824868" lon="-8.398168003186584">
        <ele>58.299999999999997</ele>
        <time>2025-04-30T12:12:21Z</time>
      </trkpt>
      <trkpt lat="43.258956000208855" lon="-8.398332037031651">
        <ele>59.740000000000002</ele>
        <time>2025-04-30T12:12:23Z</time>
      </trkpt>
      <trkpt lat="43.258719965815544" lon="-8.398490035906434">
        <ele>60.219999999999999</ele>
        <time>2025-04-30T12:12:25Z</time>
      </trkpt>
      <trkpt lat="43.258598009124398" lon="-8.398576034232974">
        <ele>60.219999999999999</ele>
        <time>2025-04-30T12:12:26Z</time>
      </trkpt>
      <trkpt lat="43.258488960564137" lon="-8.398680975660682">
        <ele>60.700000000000003</ele>
        <time>2025-04-30T12:12:27Z</time>
      </trkpt>
      <trkpt lat="43.257643980905414" lon="-8.399912025779486">
        <ele>60.219999999999999</ele>
        <time>2025-04-30T12:12:35Z</time>
      </trkpt>
      <trkpt lat="43.257525963708758" lon="-8.400229029357433">
        <ele>60.700000000000003</ele>
        <time>2025-04-30T12:12:37Z</time>
      </trkpt>
      <trkpt lat="43.257469972595572" lon="-8.400379987433553">
        <ele>61.18</ele>
        <time>2025-04-30T12:12:38Z</time>
      </trkpt>
      <trkpt lat="43.257409958168864" lon="-8.400518959388137">
        <ele>61.659999999999997</ele>
        <time>2025-04-30T12:12:39Z</time>
      </trkpt>
      <trkpt lat="43.257309962064028" lon="-8.400608981028199">
        <ele>62.140000000000001</ele>
        <time>2025-04-30T12:12:40Z</time>
      </trkpt>
      <trkpt lat="43.257206026464701" lon="-8.400702020153403">
        <ele>62.619999999999997</ele>
        <time>2025-04-30T12:12:41Z</time>
      </trkpt>
      <trkpt lat="43.256567995995283" lon="-8.401395035907626">
        <ele>64.069999999999993</ele>
        <time>2025-04-30T12:12:47Z</time>
      </trkpt>
      <trkpt lat="43.256268007680774" lon="-8.40179099701345">
        <ele>64.069999999999993</ele>
        <time>2025-04-30T12:12:50Z</time>
      </trkpt>
      <trkpt lat="43.256150996312499" lon="-8.40187699533999">
        <ele>64.069999999999993</ele>
        <time>2025-04-30T12:12:51Z</time>
      </trkpt>
      <trkpt lat="43.256027027964592" lon="-8.401968022808433">
        <ele>64.549999999999997</ele>
        <time>2025-04-30T12:12:52Z</time>
      </trkpt>
      <trkpt lat="43.255899958312511" lon="-8.40204899199307">
        <ele>64.549999999999997</ele>
        <time>2025-04-30T12:12:53Z</time>
      </trkpt>
      <trkpt lat="43.255755035206676" lon="-8.402114035561681">
        <ele>65.030000000000001</ele>
        <time>2025-04-30T12:12:54Z</time>
      </trkpt>
      <trkpt lat="43.254488026723266" lon="-8.402861030772328">
        <ele>67.909999999999997</ele>
        <time>2025-04-30T12:13:02Z</time>
      </trkpt>
      <trkpt lat="43.253614967688918" lon="-8.403579024598002">
        <ele>70.310000000000002</ele>
        <time>2025-04-30T12:13:09Z</time>
      </trkpt>
      <trkpt lat="43.253003004938364" lon="-8.40409099124372">
        <ele>72.239999999999995</ele>
        <time>2025-04-30T12:13:14Z</time>
      </trkpt>
      <trkpt lat="43.252911977469921" lon="-8.404217977076769">
        <ele>72.719999999999999</ele>
        <time>2025-04-30T12:13:15Z</time>
      </trkpt>
      <trkpt lat="43.252809969708323" lon="-8.404352003708482">
        <ele>72.719999999999999</ele>
        <time>2025-04-30T12:13:16Z</time>
      </trkpt>
      <trkpt lat="43.251835992559791" lon="-8.405777011066675">
        <ele>73.680000000000007</ele>
        <time>2025-04-30T12:13:26Z</time>
      </trkpt>
      <trkpt lat="43.251111963763833" lon="-8.406554013490677">
        <ele>73.200000000000003</ele>
        <time>2025-04-30T12:13:33Z</time>
      </trkpt>
      <trkpt lat="43.250611983239651" lon="-8.406865987926722">
        <ele>74.640000000000001</ele>
        <time>2025-04-30T12:13:37Z</time>
      </trkpt>
      <trkpt lat="43.25037301518023" lon="-8.40697000734508">
        <ele>75.120000000000005</ele>
        <time>2025-04-30T12:13:39Z</time>
      </trkpt>
      <trkpt lat="43.250013012439013" lon="-8.407090958207846">
        <ele>77.040000000000006</ele>
        <time>2025-04-30T12:13:42Z</time>
      </trkpt>
      <trkpt lat="43.249903963878751" lon="-8.407158013433218">
        <ele>78</ele>
        <time>2025-04-30T12:13:43Z</time>
      </trkpt>
      <trkpt lat="43.249796004965901" lon="-8.407223979011178">
        <ele>78.969999999999999</ele>
        <time>2025-04-30T12:13:44Z</time>
      </trkpt>
      <trkpt lat="43.249716963618994" lon="-8.40731299482286">
        <ele>79.450000000000003</ele>
        <time>2025-04-30T12:13:45Z</time>
      </trkpt>
      <trkpt lat="43.249657033011317" lon="-8.407404022291303">
        <ele>80.409999999999997</ele>
        <time>2025-04-30T12:13:46Z</time>
      </trkpt>
      <trkpt lat="43.249633982777596" lon="-8.407496977597475">
        <ele>81.370000000000005</ele>
        <time>2025-04-30T12:13:47Z</time>
      </trkpt>
      <trkpt lat="43.249633982777596" lon="-8.407616000622511">
        <ele>81.370000000000005</ele>
        <time>2025-04-30T12:13:48Z</time>
      </trkpt>
      <trkpt lat="43.249654015526175" lon="-8.40774298645556">
        <ele>81.849999999999994</ele>
        <time>2025-04-30T12:13:49Z</time>
      </trkpt>
      <trkpt lat="43.24968796223402" lon="-8.40789201669395">
        <ele>81.370000000000005</ele>
        <time>2025-04-30T12:13:50Z</time>
      </trkpt>
      <trkpt lat="43.249724004417658" lon="-8.408050015568733">
        <ele>80.890000000000001</ele>
        <time>2025-04-30T12:13:51Z</time>
      </trkpt>
      <trkpt lat="43.249783013015985" lon="-8.408201979473233">
        <ele>80.890000000000001</ele>
        <time>2025-04-30T12:13:52Z</time>
      </trkpt>
      <trkpt lat="43.24985702522099" lon="-8.408339023590088">
        <ele>80.409999999999997</ele>
        <time>2025-04-30T12:13:53Z</time>
      </trkpt>
      <trkpt lat="43.249948974698782" lon="-8.40847103856504">
        <ele>79.930000000000007</ele>
        <time>2025-04-30T12:13:54Z</time>
      </trkpt>
      <trkpt lat="43.250048970803618" lon="-8.408586960285902">
        <ele>79.450000000000003</ele>
        <time>2025-04-30T12:13:55Z</time>
      </trkpt>
      <trkpt lat="43.250144021585584" lon="-8.408699026331306">
        <ele>78.969999999999999</ele>
        <time>2025-04-30T12:13:56Z</time>
      </trkpt>
      <trkpt lat="43.250195989385247" lon="-8.408845039084554">
        <ele>78.480000000000004</ele>
        <time>2025-04-30T12:13:57Z</time>
      </trkpt>
      <trkpt lat="43.250234965234995" lon="-8.408989040181041">
        <ele>77.519999999999996</ele>
        <time>2025-04-30T12:13:58Z</time>
      </trkpt>
      <trkpt lat="43.250234965234995" lon="-8.409166987985373">
        <ele>76.079999999999998</ele>
        <time>2025-04-30T12:13:59Z</time>
      </trkpt>
      <trkpt lat="43.250230019912124" lon="-8.409348037093878">
        <ele>75.120000000000005</ele>
        <time>2025-04-30T12:14:00Z</time>
      </trkpt>
      <trkpt lat="43.250190038233995" lon="-8.409532019868493">
        <ele>74.159999999999997</ele>
        <time>2025-04-30T12:14:01Z</time>
      </trkpt>
      <trkpt lat="43.250148966908455" lon="-8.40971902012825">
        <ele>73.200000000000003</ele>
        <time>2025-04-30T12:14:02Z</time>
      </trkpt>
      <trkpt lat="43.25009398162365" lon="-8.409886993467808">
        <ele>72.719999999999999</ele>
        <time>2025-04-30T12:14:03Z</time>
      </trkpt>
      <trkpt lat="43.250013012439013" lon="-8.410039963200688">
        <ele>71.760000000000005</ele>
        <time>2025-04-30T12:14:04Z</time>
      </trkpt>
      <trkpt lat="43.249897006899118" lon="-8.410143982619047">
        <ele>71.269999999999996</ele>
        <time>2025-04-30T12:14:05Z</time>
      </trkpt>
      <trkpt lat="43.249760968610644" lon="-8.410238027572632">
        <ele>70.790000000000006</ele>
        <time>2025-04-30T12:14:06Z</time>
      </trkpt>
      <trkpt lat="43.249615039676428" lon="-8.410307010635734">
        <ele>69.829999999999998</ele>
        <time>2025-04-30T12:14:07Z</time>
      </trkpt>
      <trkpt lat="43.249339023604989" lon="-8.410440031439066">
        <ele>68.870000000000005</ele>
        <time>2025-04-30T12:14:09Z</time>
      </trkpt>
      <trkpt lat="43.249244978651404" lon="-8.410531980916858">
        <ele>67.909999999999997</ele>
        <time>2025-04-30T12:14:10Z</time>
      </trkpt>
      <trkpt lat="43.249161997810006" lon="-8.410657038912177">
        <ele>66.950000000000003</ele>
        <time>2025-04-30T12:14:11Z</time>
      </trkpt>
      <trkpt lat="43.24912503361702" lon="-8.410802967846394">
        <ele>66.469999999999999</ele>
        <time>2025-04-30T12:14:12Z</time>
      </trkpt>
      <trkpt lat="43.249103995040059" lon="-8.410951998084784">
        <ele>65.510000000000005</ele>
        <time>2025-04-30T12:14:13Z</time>
      </trkpt>
      <trkpt lat="43.249140037223697" lon="-8.411172023043037">
        <ele>65.030000000000001</ele>
        <time>2025-04-30T12:14:14Z</time>
      </trkpt>
      <trkpt lat="43.249196028336883" lon="-8.411284005269408">
        <ele>64.549999999999997</ele>
        <time>2025-04-30T12:14:15Z</time>
      </trkpt>
      <trkpt lat="43.249284960329533" lon="-8.411443009972572">
        <ele>64.549999999999997</ele>
        <time>2025-04-30T12:14:16Z</time>
      </trkpt>
      <trkpt lat="43.249385040253401" lon="-8.411595979705453">
        <ele>64.549999999999997</ele>
        <time>2025-04-30T12:14:17Z</time>
      </trkpt>
      <trkpt lat="43.250494971871376" lon="-8.413269007578492">
        <ele>68.390000000000001</ele>
        <time>2025-04-30T12:14:28Z</time>
      </trkpt>
      <trkpt lat="43.250968968495727" lon="-8.414077023044229">
        <ele>70.790000000000006</ele>
        <time>2025-04-30T12:14:33Z</time>
      </trkpt>
      <trkpt lat="43.251012973487377" lon="-8.41425103135407">
        <ele>70.790000000000006</ele>
        <time>2025-04-30T12:14:34Z</time>
      </trkpt>
      <trkpt lat="43.251047004014254" lon="-8.414438031613827">
        <ele>70.790000000000006</ele>
        <time>2025-04-30T12:14:35Z</time>
      </trkpt>
      <trkpt lat="43.251222018152475" lon="-8.416734002530575">
        <ele>66.950000000000003</ele>
        <time>2025-04-30T12:14:46Z</time>
      </trkpt>
      <trkpt lat="43.251285972073674" lon="-8.417559033259749">
        <ele>65.030000000000001</ele>
        <time>2025-04-30T12:14:50Z</time>
      </trkpt>
      <trkpt lat="43.251257976517081" lon="-8.417733963578939">
        <ele>65.030000000000001</ele>
        <time>2025-04-30T12:14:51Z</time>
      </trkpt>
      <trkpt lat="43.251197040081024" lon="-8.417891040444374">
        <ele>64.549999999999997</ele>
        <time>2025-04-30T12:14:52Z</time>
      </trkpt>
      <trkpt lat="43.250862015411258" lon="-8.418591013178229">
        <ele>63.100000000000001</ele>
        <time>2025-04-30T12:14:56Z</time>
      </trkpt>
      <trkpt lat="43.249926008284092" lon="-8.420690009370446">
        <ele>71.760000000000005</ele>
        <time>2025-04-30T12:15:07Z</time>
      </trkpt>
      <trkpt lat="43.249136013910174" lon="-8.422483988106251">
        <ele>82.329999999999998</ele>
        <time>2025-04-30T12:15:15Z</time>
      </trkpt>
      <trkpt lat="43.248882964253426" lon="-8.423115983605385">
        <ele>85.209999999999994</ele>
        <time>2025-04-30T12:15:18Z</time>
      </trkpt>
      <trkpt lat="43.248882964253426" lon="-8.423312036320567">
        <ele>86.659999999999997</ele>
        <time>2025-04-30T12:15:19Z</time>
      </trkpt>
      <trkpt lat="43.248907020315528" lon="-8.423501970246434">
        <ele>88.099999999999994</ele>
        <time>2025-04-30T12:15:20Z</time>
      </trkpt>
      <trkpt lat="43.248968040570617" lon="-8.423875970765948">
        <ele>90.019999999999996</ele>
        <time>2025-04-30T12:15:22Z</time>
      </trkpt>
      <trkpt lat="43.248947001993656" lon="-8.424089038744569">
        <ele>90.5</ele>
        <time>2025-04-30T12:15:23Z</time>
      </trkpt>
      <trkpt lat="43.248880030587316" lon="-8.424249971285462">
        <ele>90.980000000000004</ele>
        <time>2025-04-30T12:15:24Z</time>
      </trkpt>
      <trkpt lat="43.248797971755266" lon="-8.424444012343884">
        <ele>91.459999999999994</ele>
        <time>2025-04-30T12:15:25Z</time>
      </trkpt>
      <trkpt lat="43.248710967600346" lon="-8.424650961533189">
        <ele>92.420000000000002</ele>
        <time>2025-04-30T12:15:26Z</time>
      </trkpt>
      <trkpt lat="43.248140998184681" lon="-8.426159033551812">
        <ele>100.11</ele>
        <time>2025-04-30T12:15:33Z</time>
      </trkpt>
      <trkpt lat="43.24807696044445" lon="-8.426391966640949">
        <ele>101.08</ele>
        <time>2025-04-30T12:15:34Z</time>
      </trkpt>
      <trkpt lat="43.248077966272831" lon="-8.426638981327415">
        <ele>102.04000000000001</ele>
        <time>2025-04-30T12:15:35Z</time>
      </trkpt>
      <trkpt lat="43.248103028163314" lon="-8.42688599601388">
        <ele>103.48</ele>
        <time>2025-04-30T12:15:36Z</time>
      </trkpt>
      <trkpt lat="43.248169999569654" lon="-8.427126975730062">
        <ele>105.40000000000001</ele>
        <time>2025-04-30T12:15:37Z</time>
      </trkpt>
      <trkpt lat="43.248237976804376" lon="-8.427370972931385">
        <ele>106.84</ele>
        <time>2025-04-30T12:15:38Z</time>
      </trkpt>
      <trkpt lat="43.248303020372987" lon="-8.427608013153076">
        <ele>108.77</ele>
        <time>2025-04-30T12:15:39Z</time>
      </trkpt>
      <trkpt lat="43.248333027586341" lon="-8.427876988425851">
        <ele>110.20999999999999</ele>
        <time>2025-04-30T12:15:40Z</time>
      </trkpt>
      <trkpt lat="43.248329004272819" lon="-8.428134983405471">
        <ele>112.13</ele>
        <time>2025-04-30T12:15:41Z</time>
      </trkpt>
      <trkpt lat="43.248298997059464" lon="-8.42839197255671">
        <ele>113.56999999999999</ele>
        <time>2025-04-30T12:15:42Z</time>
      </trkpt>
      <trkpt lat="43.248269995674491" lon="-8.428628006950021">
        <ele>115.5</ele>
        <time>2025-04-30T12:15:43Z</time>
      </trkpt>
      <trkpt lat="43.24824501760304" lon="-8.42884199693799">
        <ele>116.94</ele>
        <time>2025-04-30T12:15:44Z</time>
      </trkpt>
      <trkpt lat="43.248221967369318" lon="-8.429031008854508">
        <ele>118.38</ele>
        <time>2025-04-30T12:15:45Z</time>
      </trkpt>
      <trkpt lat="43.248257003724575" lon="-8.429199988022447">
        <ele>119.81999999999999</ele>
        <time>2025-04-30T12:15:46Z</time>
      </trkpt>
      <trkpt lat="43.248340990394354" lon="-8.42933401465416">
        <ele>121.26000000000001</ele>
        <time>2025-04-30T12:15:47Z</time>
      </trkpt>
      <trkpt lat="43.248449033126235" lon="-8.429429987445474">
        <ele>122.70999999999999</ele>
        <time>2025-04-30T12:15:48Z</time>
      </trkpt>
      <trkpt lat="43.248581970110536" lon="-8.429525960236788">
        <ele>124.15000000000001</ele>
        <time>2025-04-30T12:15:49Z</time>
      </trkpt>
      <trkpt lat="43.248896040022373" lon="-8.429739028215408">
        <ele>127.03</ele>
        <time>2025-04-30T12:15:51Z</time>
      </trkpt>
      <trkpt lat="43.250194983556867" lon="-8.430480994284153">
        <ele>137.61000000000001</ele>
        <time>2025-04-30T12:15:58Z</time>
      </trkpt>
      <trkpt lat="43.250405034050345" lon="-8.430509995669127">
        <ele>139.53</ele>
        <time>2025-04-30T12:15:59Z</time>
      </trkpt>
      <trkpt lat="43.251235010102391" lon="-8.430626001209021">
        <ele>145.78</ele>
        <time>2025-04-30T12:16:03Z</time>
      </trkpt>
      <trkpt lat="43.251398960128427" lon="-8.430690038949251">
        <ele>147.22</ele>
        <time>2025-04-30T12:16:04Z</time>
      </trkpt>
      <trkpt lat="43.251540027558804" lon="-8.430788023397327">
        <ele>148.66</ele>
        <time>2025-04-30T12:16:05Z</time>
      </trkpt>
      <trkpt lat="43.251715041697025" lon="-8.430934036150575">
        <ele>149.62</ele>
        <time>2025-04-30T12:16:06Z</time>
      </trkpt>
      <trkpt lat="43.251807997003198" lon="-8.431068984791637">
        <ele>150.58000000000001</ele>
        <time>2025-04-30T12:16:07Z</time>
      </trkpt>
      <trkpt lat="43.252149978652596" lon="-8.431674996390939">
        <ele>154.91</ele>
        <time>2025-04-30T12:16:10Z</time>
      </trkpt>
      <trkpt lat="43.252241006121039" lon="-8.431897033005953">
        <ele>156.34999999999999</ele>
        <time>2025-04-30T12:16:11Z</time>
      </trkpt>
      <trkpt lat="43.252318035811186" lon="-8.432143963873386">
        <ele>157.31</ele>
        <time>2025-04-30T12:16:12Z</time>
      </trkpt>
      <trkpt lat="43.2526920363307" lon="-8.433347018435597">
        <ele>164.03999999999999</ele>
        <time>2025-04-30T12:16:17Z</time>
      </trkpt>
      <trkpt lat="43.252702010795474" lon="-8.433555979281664">
        <ele>165.47999999999999</ele>
        <time>2025-04-30T12:16:18Z</time>
      </trkpt>
      <trkpt lat="43.252674015238881" lon="-8.433742979541421">
        <ele>165.96000000000001</ele>
        <time>2025-04-30T12:16:19Z</time>
      </trkpt>
      <trkpt lat="43.252616012468934" lon="-8.433916987851262">
        <ele>166.93000000000001</ele>
        <time>2025-04-30T12:16:20Z</time>
      </trkpt>
      <trkpt lat="43.252506041899323" lon="-8.434026958420873">
        <ele>167.88999999999999</ele>
        <time>2025-04-30T12:16:21Z</time>
      </trkpt>
      <trkpt lat="43.252374026924372" lon="-8.434158973395824">
        <ele>168.84999999999999</ele>
        <time>2025-04-30T12:16:22Z</time>
      </trkpt>
      <trkpt lat="43.252233965322375" lon="-8.434299034997821">
        <ele>169.81</ele>
        <time>2025-04-30T12:16:23Z</time>
      </trkpt>
      <trkpt lat="43.251934982836246" lon="-8.43459801748395">
        <ele>171.25</ele>
        <time>2025-04-30T12:16:25Z</time>
      </trkpt>
      <trkpt lat="43.251811014488339" lon="-8.434789963066578">
        <ele>172.21000000000001</ele>
        <time>2025-04-30T12:16:26Z</time>
      </trkpt>
      <trkpt lat="43.251697020605206" lon="-8.435005964711309">
        <ele>173.66</ele>
        <time>2025-04-30T12:16:27Z</time>
      </trkpt>
      <trkpt lat="43.251106012612581" lon="-8.436442958191037">
        <ele>180.38</ele>
        <time>2025-04-30T12:16:33Z</time>
      </trkpt>
      <trkpt lat="43.250984977930784" lon="-8.436613027006388">
        <ele>181.34999999999999</ele>
        <time>2025-04-30T12:16:34Z</time>
      </trkpt>
      <trkpt lat="43.250593962147832" lon="-8.437099009752274">
        <ele>183.75</ele>
        <time>2025-04-30T12:16:37Z</time>
      </trkpt>
      <trkpt lat="43.250492038205266" lon="-8.437286010012031">
        <ele>184.22999999999999</ele>
        <time>2025-04-30T12:16:38Z</time>
      </trkpt>
      <trkpt lat="43.250430012121797" lon="-8.437502011656761">
        <ele>184.22999999999999</ele>
        <time>2025-04-30T12:16:39Z</time>
      </trkpt>
      <trkpt lat="43.250417020171881" lon="-8.437673002481461">
        <ele>184.22999999999999</ele>
        <time>2025-04-30T12:16:40Z</time>
      </trkpt>
      <trkpt lat="43.250440992414951" lon="-8.437861008569598">
        <ele>184.71000000000001</ele>
        <time>2025-04-30T12:16:41Z</time>
      </trkpt>
      <trkpt lat="43.250488014891744" lon="-8.438008027151227">
        <ele>185.19</ele>
        <time>2025-04-30T12:16:42Z</time>
      </trkpt>
      <trkpt lat="43.250581976026297" lon="-8.438194021582604">
        <ele>185.66999999999999</ele>
        <time>2025-04-30T12:16:43Z</time>
      </trkpt>
      <trkpt lat="43.250688007101417" lon="-8.438405999913812">
        <ele>186.63</ele>
        <time>2025-04-30T12:16:44Z</time>
      </trkpt>
      <trkpt lat="43.250793032348156" lon="-8.438616972416639">
        <ele>187.59</ele>
        <time>2025-04-30T12:16:45Z</time>
      </trkpt>
      <trkpt lat="43.250876013189554" lon="-8.438845966011286">
        <ele>188.08000000000001</ele>
        <time>2025-04-30T12:16:46Z</time>
      </trkpt>
      <trkpt lat="43.250890010967851" lon="-8.439109995961189">
        <ele>188.08000000000001</ele>
        <time>2025-04-30T12:16:47Z</time>
      </trkpt>
      <trkpt lat="43.250878024846315" lon="-8.43934996984899">
        <ele>188.56</ele>
        <time>2025-04-30T12:16:48Z</time>
      </trkpt>
      <trkpt lat="43.250865032896399" lon="-8.439602013677359">
        <ele>189.03999999999999</ele>
        <time>2025-04-30T12:16:49Z</time>
      </trkpt>
      <trkpt lat="43.250861009582877" lon="-8.439864031970501">
        <ele>190</ele>
        <time>2025-04-30T12:16:50Z</time>
      </trkpt>
      <trkpt lat="43.250869978219271" lon="-8.440135018900037">
        <ele>190.96000000000001</ele>
        <time>2025-04-30T12:16:51Z</time>
      </trkpt>
      <trkpt lat="43.250858997926116" lon="-8.440848989412189">
        <ele>194.80000000000001</ele>
        <time>2025-04-30T12:16:54Z</time>
      </trkpt>
      <trkpt lat="43.250811975449324" lon="-8.441035989671946">
        <ele>195.77000000000001</ele>
        <time>2025-04-30T12:16:55Z</time>
      </trkpt>
      <trkpt lat="43.250755984336138" lon="-8.441221984103322">
        <ele>196.72999999999999</ele>
        <time>2025-04-30T12:16:56Z</time>
      </trkpt>
      <trkpt lat="43.250491032376885" lon="-8.442164026200771">
        <ele>202.00999999999999</ele>
        <time>2025-04-30T12:17:01Z</time>
      </trkpt>
      <trkpt lat="43.250449961051345" lon="-8.442365024238825">
        <ele>202.49000000000001</ele>
        <time>2025-04-30T12:17:02Z</time>
      </trkpt>
      <trkpt lat="43.250457001850009" lon="-8.442555963993073">
        <ele>202.49000000000001</ele>
        <time>2025-04-30T12:17:03Z</time>
      </trkpt>
      <trkpt lat="43.250463036820292" lon="-8.442713962867856">
        <ele>202.49000000000001</ele>
        <time>2025-04-30T12:17:04Z</time>
      </trkpt>
      <trkpt lat="43.250467982143164" lon="-8.44282896257937">
        <ele>202.00999999999999</ele>
        <time>2025-04-30T12:17:05Z</time>
      </trkpt>
      <trkpt lat="43.250475022941828" lon="-8.442896017804742">
        <ele>202.00999999999999</ele>
        <time>2025-04-30T12:17:06Z</time>
      </trkpt>
      <trkpt lat="43.250492960214615" lon="-8.442941028624773">
        <ele>201.53</ele>
        <time>2025-04-30T12:17:07Z</time>
      </trkpt>
      <trkpt lat="43.250503018498421" lon="-8.442966006696224">
        <ele>201.53</ele>
        <time>2025-04-30T12:17:08Z</time>
      </trkpt>
      <trkpt lat="43.250538976863027" lon="-8.443057034164667">
        <ele>202.00999999999999</ele>
        <time>2025-04-30T12:17:18Z</time>
      </trkpt>
      <trkpt lat="43.25054501183331" lon="-8.443140015006065">
        <ele>202.00999999999999</ele>
        <time>2025-04-30T12:17:19Z</time>
      </trkpt>
      <trkpt lat="43.250515004619956" lon="-8.443234981968999">
        <ele>202.00999999999999</ele>
        <time>2025-04-30T12:17:20Z</time>
      </trkpt>
      <trkpt lat="43.250195989385247" lon="-8.444238966330886">
        <ele>202.49000000000001</ele>
        <time>2025-04-30T12:17:26Z</time>
      </trkpt>
      <trkpt lat="43.249687040224671" lon="-8.445848962292075">
        <ele>205.38</ele>
        <time>2025-04-30T12:17:32Z</time>
      </trkpt>
      <trkpt lat="43.248914983123541" lon="-8.448278959840536">
        <ele>221.72</ele>
        <time>2025-04-30T12:17:39Z</time>
      </trkpt>
      <trkpt lat="43.247820977121592" lon="-8.451230982318521">
        <ele>245.75</ele>
        <time>2025-04-30T12:17:49Z</time>
      </trkpt>
      <trkpt lat="43.247499028220773" lon="-8.451712019741535">
        <ele>250.56</ele>
        <time>2025-04-30T12:17:51Z</time>
      </trkpt>
      <trkpt lat="43.247326025739312" lon="-8.451923998072743">
        <ele>252.96000000000001</ele>
        <time>2025-04-30T12:17:52Z</time>
      </trkpt>
      <trkpt lat="43.245963966473937" lon="-8.452938962727785">
        <ele>267.86000000000001</ele>
        <time>2025-04-30T12:17:59Z</time>
      </trkpt>
      <trkpt lat="43.24438096024096" lon="-8.453928027302027">
        <ele>280.83999999999997</ele>
        <time>2025-04-30T12:18:07Z</time>
      </trkpt>
      <trkpt lat="43.244202006608248" lon="-8.454100023955107">
        <ele>281.80000000000001</ele>
        <time>2025-04-30T12:18:08Z</time>
      </trkpt>
      <trkpt lat="43.244021963328123" lon="-8.454271014779806">
        <ele>282.76999999999998</ele>
        <time>2025-04-30T12:18:09Z</time>
      </trkpt>
      <trkpt lat="43.243872011080384" lon="-8.454488022252917">
        <ele>283.25</ele>
        <time>2025-04-30T12:18:10Z</time>
      </trkpt>
      <trkpt lat="43.243723986670375" lon="-8.454721039161086">
        <ele>283.25</ele>
        <time>2025-04-30T12:18:11Z</time>
      </trkpt>
      <trkpt lat="43.242090018466115" lon="-8.457436021417379">
        <ele>277.48000000000002</ele>
        <time>2025-04-30T12:18:22Z</time>
      </trkpt>
      <trkpt lat="43.240011977031827" lon="-8.46093999221921">
        <ele>265.94</ele>
        <time>2025-04-30T12:18:37Z</time>
      </trkpt>
      <trkpt lat="43.238696018233895" lon="-8.463038988411427">
        <ele>260.17000000000002</ele>
        <time>2025-04-30T12:18:46Z</time>
      </trkpt>
      <trkpt lat="43.238511029630899" lon="-8.463233029469848">
        <ele>260.17000000000002</ele>
        <time>2025-04-30T12:18:47Z</time>
      </trkpt>
      <trkpt lat="43.238313971087337" lon="-8.46341198310256">
        <ele>259.69</ele>
        <time>2025-04-30T12:18:48Z</time>
      </trkpt>
      <trkpt lat="43.238093024119735" lon="-8.463533017784357">
        <ele>259.69</ele>
        <time>2025-04-30T12:18:49Z</time>
      </trkpt>
      <trkpt lat="43.237866964191198" lon="-8.463652962818742">
        <ele>259.20999999999998</ele>
        <time>2025-04-30T12:18:50Z</time>
      </trkpt>
      <trkpt lat="43.237639982253313" lon="-8.463773997500539">
        <ele>259.20999999999998</ele>
        <time>2025-04-30T12:18:51Z</time>
      </trkpt>
      <trkpt lat="43.237407971173525" lon="-8.463861001655459">
        <ele>258.73000000000002</ele>
        <time>2025-04-30T12:18:52Z</time>
      </trkpt>
      <trkpt lat="43.235205039381981" lon="-8.464711010456085">
        <ele>261.13999999999999</ele>
        <time>2025-04-30T12:19:02Z</time>
      </trkpt>
      <trkpt lat="43.234054958447814" lon="-8.465234963223338">
        <ele>265.94</ele>
        <time>2025-04-30T12:19:08Z</time>
      </trkpt>
      <trkpt lat="43.233884973451495" lon="-8.465392040088773">
        <ele>266.89999999999998</ele>
        <time>2025-04-30T12:19:09Z</time>
      </trkpt>
      <trkpt lat="43.233714988455176" lon="-8.465548027306795">
        <ele>267.86000000000001</ele>
        <time>2025-04-30T12:19:10Z</time>
      </trkpt>
      <trkpt lat="43.232694994658232" lon="-8.467071019113064">
        <ele>274.11000000000001</ele>
        <time>2025-04-30T12:19:17Z</time>
      </trkpt>
      <trkpt lat="43.232378996908665" lon="-8.467507967725396">
        <ele>276.04000000000002</ele>
        <time>2025-04-30T12:19:19Z</time>
      </trkpt>
      <trkpt lat="43.232200965285301" lon="-8.467696979641914">
        <ele>277.48000000000002</ele>
        <time>2025-04-30T12:19:20Z</time>
      </trkpt>
      <trkpt lat="43.232004996389151" lon="-8.467846009880304">
        <ele>278.44</ele>
        <time>2025-04-30T12:19:21Z</time>
      </trkpt>
      <trkpt lat="43.231797963380814" lon="-8.467980036512017">
        <ele>279.39999999999998</ele>
        <time>2025-04-30T12:19:22Z</time>
      </trkpt>
      <trkpt lat="43.231587996706367" lon="-8.468114985153079">
        <ele>280.36000000000001</ele>
        <time>2025-04-30T12:19:23Z</time>
      </trkpt>
      <trkpt lat="43.231373000890017" lon="-8.468216992914677">
        <ele>281.31999999999999</ele>
        <time>2025-04-30T12:19:24Z</time>
      </trkpt>
      <trkpt lat="43.231145013123751" lon="-8.468284970149398">
        <ele>282.27999999999997</ele>
        <time>2025-04-30T12:19:25Z</time>
      </trkpt>
      <trkpt lat="43.230917025357485" lon="-8.468322018161416">
        <ele>283.73000000000002</ele>
        <time>2025-04-30T12:19:26Z</time>
      </trkpt>
      <trkpt lat="43.230684008449316" lon="-8.468328975141048">
        <ele>284.69</ele>
        <time>2025-04-30T12:19:27Z</time>
      </trkpt>
      <trkpt lat="43.230447974056005" lon="-8.468296034261584">
        <ele>285.64999999999998</ele>
        <time>2025-04-30T12:19:28Z</time>
      </trkpt>
      <trkpt lat="43.230213029310107" lon="-8.468250017613173">
        <ele>286.61000000000001</ele>
        <time>2025-04-30T12:19:29Z</time>
      </trkpt>
      <trkpt lat="43.229987975209951" lon="-8.468144992366433">
        <ele>287.56999999999999</ele>
        <time>2025-04-30T12:19:30Z</time>
      </trkpt>
      <trkpt lat="43.229757975786924" lon="-8.468037033453584">
        <ele>288.05000000000001</ele>
        <time>2025-04-30T12:19:31Z</time>
      </trkpt>
      <trkpt lat="43.229539040476084" lon="-8.467903006821871">
        <ele>288.52999999999997</ele>
        <time>2025-04-30T12:19:32Z</time>
      </trkpt>
      <trkpt lat="43.229332007467747" lon="-8.467717012390494">
        <ele>289.49000000000001</ele>
        <time>2025-04-30T12:19:33Z</time>
      </trkpt>
      <trkpt lat="43.229132015258074" lon="-8.467518026009202">
        <ele>289.97000000000003</ele>
        <time>2025-04-30T12:19:34Z</time>
      </trkpt>
      <trkpt lat="43.228945014998317" lon="-8.467284003272653">
        <ele>290.45999999999998</ele>
        <time>2025-04-30T12:19:35Z</time>
      </trkpt>
      <trkpt lat="43.228777963668108" lon="-8.467027014121413">
        <ele>291.42000000000002</ele>
        <time>2025-04-30T12:19:36Z</time>
      </trkpt>
      <trkpt lat="43.228613007813692" lon="-8.466768013313413">
        <ele>291.42000000000002</ele>
        <time>2025-04-30T12:19:37Z</time>
      </trkpt>
      <trkpt lat="43.227442977949977" lon="-8.464932041242719">
        <ele>293.33999999999997</ele>
        <time>2025-04-30T12:19:45Z</time>
      </trkpt>
      <trkpt lat="43.225483959540725" lon="-8.461814979091287">
        <ele>285.17000000000002</ele>
        <time>2025-04-30T12:19:58Z</time>
      </trkpt>
      <trkpt lat="43.223857032135129" lon="-8.459532000124455">
        <ele>271.70999999999998</ele>
        <time>2025-04-30T12:20:08Z</time>
      </trkpt>
      <trkpt lat="43.222437975928187" lon="-8.458593981340528">
        <ele>262.57999999999998</ele>
        <time>2025-04-30T12:20:15Z</time>
      </trkpt>
      <trkpt lat="43.220969969406724" lon="-8.458267003297806">
        <ele>255.37</ele>
        <time>2025-04-30T12:20:22Z</time>
      </trkpt>
      <trkpt lat="43.219861965626478" lon="-8.458000039681792">
        <ele>250.56</ele>
        <time>2025-04-30T12:20:27Z</time>
      </trkpt>
      <trkpt lat="43.219644958153367" lon="-8.457887973636389">
        <ele>249.59999999999999</ele>
        <time>2025-04-30T12:20:28Z</time>
      </trkpt>
      <trkpt lat="43.219420993700624" lon="-8.457755958661437">
        <ele>248.16</ele>
        <time>2025-04-30T12:20:29Z</time>
      </trkpt>
      <trkpt lat="43.219225024804473" lon="-8.457591002807021">
        <ele>247.19999999999999</ele>
        <time>2025-04-30T12:20:30Z</time>
      </trkpt>
      <trkpt lat="43.219021009281278" lon="-8.457419006153941">
        <ele>245.75</ele>
        <time>2025-04-30T12:20:31Z</time>
      </trkpt>
      <trkpt lat="43.218834009021521" lon="-8.457207027822733">
        <ele>244.31</ele>
        <time>2025-04-30T12:20:32Z</time>
      </trkpt>
      <trkpt lat="43.218647008761764" lon="-8.456993959844112">
        <ele>242.87</ele>
        <time>2025-04-30T12:20:33Z</time>
      </trkpt>
      <trkpt lat="43.217872017994523" lon="-8.456188961863518">
        <ele>238.06</ele>
        <time>2025-04-30T12:20:37Z</time>
      </trkpt>
      <trkpt lat="43.217668002471328" lon="-8.456012019887567">
        <ele>237.58000000000001</ele>
        <time>2025-04-30T12:20:38Z</time>
      </trkpt>
      <trkpt lat="43.217450994998217" lon="-8.455862989649177">
        <ele>237.09999999999999</ele>
        <time>2025-04-30T12:20:39Z</time>
      </trkpt>
      <trkpt lat="43.217219989746809" lon="-8.455757964402437">
        <ele>237.09999999999999</ele>
        <time>2025-04-30T12:20:40Z</time>
      </trkpt>
      <trkpt lat="43.21698403917253" lon="-8.455670038238168">
        <ele>237.58000000000001</ele>
        <time>2025-04-30T12:20:41Z</time>
      </trkpt>
      <trkpt lat="43.216737024486065" lon="-8.45563299022615">
        <ele>238.06</ele>
        <time>2025-04-30T12:20:42Z</time>
      </trkpt>
      <trkpt lat="43.216477017849684" lon="-8.455623015761375">
        <ele>239.02000000000001</ele>
        <time>2025-04-30T12:20:43Z</time>
      </trkpt>
      <trkpt lat="43.216203013435006" lon="-8.45565402880311">
        <ele>239.99000000000001</ele>
        <time>2025-04-30T12:20:44Z</time>
      </trkpt>
      <trkpt lat="43.215921968221664" lon="-8.455686969682574">
        <ele>241.43000000000001</ele>
        <time>2025-04-30T12:20:45Z</time>
      </trkpt>
      <trkpt lat="43.215657016262412" lon="-8.455773973837495">
        <ele>242.87</ele>
        <time>2025-04-30T12:20:46Z</time>
      </trkpt>
      <trkpt lat="43.215420981869102" lon="-8.455898026004434">
        <ele>244.31</ele>
        <time>2025-04-30T12:20:47Z</time>
      </trkpt>
      <trkpt lat="43.21520296856761" lon="-8.456035992130637">
        <ele>246.22999999999999</ele>
        <time>2025-04-30T12:20:48Z</time>
      </trkpt>
      <trkpt lat="43.215001970529556" lon="-8.456205977126956">
        <ele>247.68000000000001</ele>
        <time>2025-04-30T12:20:49Z</time>
      </trkpt>
      <trkpt lat="43.214812036603689" lon="-8.456389037892222">
        <ele>249.59999999999999</ele>
        <time>2025-04-30T12:20:50Z</time>
      </trkpt>
      <trkpt lat="43.214620007202029" lon="-8.456575032323599">
        <ele>251.03999999999999</ele>
        <time>2025-04-30T12:20:51Z</time>
      </trkpt>
      <trkpt lat="43.213653992861509" lon="-8.457658980041742">
        <ele>261.62</ele>
        <time>2025-04-30T12:20:57Z</time>
      </trkpt>
      <trkpt lat="43.212464014068246" lon="-8.458557017147541">
        <ele>273.63</ele>
        <time>2025-04-30T12:21:04Z</time>
      </trkpt>
      <trkpt lat="43.211231958121061" lon="-8.458807971328497">
        <ele>282.76999999999998</ele>
        <time>2025-04-30T12:21:10Z</time>
      </trkpt>
      <trkpt lat="43.209682982414961" lon="-8.458710992708802">
        <ele>293.81999999999999</ele>
        <time>2025-04-30T12:21:17Z</time>
      </trkpt>
      <trkpt lat="43.207433028146625" lon="-8.458596998825669">
        <ele>310.16000000000003</ele>
        <time>2025-04-30T12:21:26Z</time>
      </trkpt>
      <trkpt lat="43.20501702837646" lon="-8.458495996892452">
        <ele>321.69999999999999</ele>
        <time>2025-04-30T12:21:36Z</time>
      </trkpt>
      <trkpt lat="43.203619010746479" lon="-8.458420978859067">
        <ele>319.77999999999997</ele>
        <time>2025-04-30T12:21:43Z</time>
      </trkpt>
      <trkpt lat="43.202985003590584" lon="-8.458463978022337">
        <ele>316.88999999999999</ele>
        <time>2025-04-30T12:21:48Z</time>
      </trkpt>
      <trkpt lat="43.202881990000606" lon="-8.458566991612315">
        <ele>316.41000000000003</ele>
        <time>2025-04-30T12:21:49Z</time>
      </trkpt>
      <trkpt lat="43.202788028866053" lon="-8.45870696939528">
        <ele>315.44999999999999</ele>
        <time>2025-04-30T12:21:50Z</time>
      </trkpt>
      <trkpt lat="43.202702030539513" lon="-8.458850970491767">
        <ele>314.97000000000003</ele>
        <time>2025-04-30T12:21:51Z</time>
      </trkpt>
      <trkpt lat="43.202625000849366" lon="-8.458978040143848">
        <ele>314.97000000000003</ele>
        <time>2025-04-30T12:21:52Z</time>
      </trkpt>
      <trkpt lat="43.20258803665638" lon="-8.459159005433321">
        <ele>314.49000000000001</ele>
        <time>2025-04-30T12:21:53Z</time>
      </trkpt>
      <trkpt lat="43.202575966715813" lon="-8.459343994036317">
        <ele>314.49000000000001</ele>
        <time>2025-04-30T12:21:54Z</time>
      </trkpt>
      <trkpt lat="43.202573033049703" lon="-8.459536023437977">
        <ele>314.49000000000001</ele>
        <time>2025-04-30T12:21:55Z</time>
      </trkpt>
      <trkpt lat="43.202570015564561" lon="-8.459738027304411">
        <ele>314.97000000000003</ele>
        <time>2025-04-30T12:21:56Z</time>
      </trkpt>
      <trkpt lat="43.202558029443026" lon="-8.460387960076332">
        <ele>315.44999999999999</ele>
        <time>2025-04-30T12:21:59Z</time>
      </trkpt>
      <trkpt lat="43.202533973380923" lon="-8.460588036105037">
        <ele>315.93000000000001</ele>
        <time>2025-04-30T12:22:00Z</time>
      </trkpt>
      <trkpt lat="43.202473958954215" lon="-8.460770007222891">
        <ele>316.41000000000003</ele>
        <time>2025-04-30T12:22:01Z</time>
      </trkpt>
      <trkpt lat="43.202385026961565" lon="-8.460909985005856">
        <ele>317.37</ele>
        <time>2025-04-30T12:22:02Z</time>
      </trkpt>
      <trkpt lat="43.202255023643374" lon="-8.461038982495666">
        <ele>318.32999999999998</ele>
        <time>2025-04-30T12:22:03Z</time>
      </trkpt>
      <trkpt lat="43.202122002840042" lon="-8.461094973608851">
        <ele>318.81</ele>
        <time>2025-04-30T12:22:04Z</time>
      </trkpt>
      <trkpt lat="43.201969033107162" lon="-8.461160017177463">
        <ele>319.77999999999997</ele>
        <time>2025-04-30T12:22:05Z</time>
      </trkpt>
      <trkpt lat="43.201654041185975" lon="-8.461310975253582">
        <ele>321.22000000000003</ele>
        <time>2025-04-30T12:22:07Z</time>
      </trkpt>
      <trkpt lat="43.201509034261107" lon="-8.461429998278618">
        <ele>322.18000000000001</ele>
        <time>2025-04-30T12:22:08Z</time>
      </trkpt>
      <trkpt lat="43.199985958635807" lon="-8.463051980361342">
        <ele>334.68000000000001</ele>
        <time>2025-04-30T12:22:19Z</time>
      </trkpt>
      <trkpt lat="43.198475036770105" lon="-8.464731965214014">
        <ele>340.44</ele>
        <time>2025-04-30T12:22:30Z</time>
      </trkpt>
      <trkpt lat="43.197236023843288" lon="-8.466068040579557">
        <ele>339</ele>
        <time>2025-04-30T12:22:39Z</time>
      </trkpt>
      <trkpt lat="43.195597026497126" lon="-8.467923039570451">
        <ele>325.54000000000002</ele>
        <time>2025-04-30T12:22:51Z</time>
      </trkpt>
      <trkpt lat="43.195352023467422" lon="-8.468153038993478">
        <ele>324.57999999999998</ele>
        <time>2025-04-30T12:22:53Z</time>
      </trkpt>
      <trkpt lat="43.195233000442386" lon="-8.46822202205658">
        <ele>324.57999999999998</ele>
        <time>2025-04-30T12:22:54Z</time>
      </trkpt>
      <trkpt lat="43.195110959932208" lon="-8.468263009563088">
        <ele>324.57999999999998</ele>
        <time>2025-04-30T12:22:55Z</time>
      </trkpt>
      <trkpt lat="43.194998977705836" lon="-8.468314977362752">
        <ele>324.10000000000002</ele>
        <time>2025-04-30T12:22:56Z</time>
      </trkpt>
      <trkpt lat="43.19489998742938" lon="-8.468361999839544">
        <ele>324.10000000000002</ele>
        <time>2025-04-30T12:22:57Z</time>
      </trkpt>
      <trkpt lat="43.193971021100879" lon="-8.468681015074253">
        <ele>324.57999999999998</ele>
        <time>2025-04-30T12:23:06Z</time>
      </trkpt>
      <trkpt lat="43.192531010136008" lon="-8.4691690094769">
        <ele>330.82999999999998</ele>
        <time>2025-04-30T12:23:19Z</time>
      </trkpt>
      <trkpt lat="43.191311024129391" lon="-8.469648035243154">
        <ele>336.12</ele>
        <time>2025-04-30T12:23:31Z</time>
      </trkpt>
      <trkpt lat="43.191110026091337" lon="-8.469939976930618">
        <ele>336.60000000000002</ele>
        <time>2025-04-30T12:23:34Z</time>
      </trkpt>
      <trkpt lat="43.191055962815881" lon="-8.47004902549088">
        <ele>336.60000000000002</ele>
        <time>2025-04-30T12:23:35Z</time>
      </trkpt>
      <trkpt lat="43.191003995016217" lon="-8.470152961090207">
        <ele>336.60000000000002</ele>
        <time>2025-04-30T12:23:36Z</time>
      </trkpt>
      <trkpt lat="43.190950015559793" lon="-8.470258992165327">
        <ele>336.60000000000002</ele>
        <time>2025-04-30T12:23:37Z</time>
      </trkpt>
      <trkpt lat="43.19090198725462" lon="-8.470368962734938">
        <ele>336.60000000000002</ele>
        <time>2025-04-30T12:23:38Z</time>
      </trkpt>
      <trkpt lat="43.190640974789858" lon="-8.470904985442758">
        <ele>337.07999999999998</ele>
        <time>2025-04-30T12:23:43Z</time>
      </trkpt>
      <trkpt lat="43.19058196619153" lon="-8.470996012911201">
        <ele>337.07999999999998</ele>
        <time>2025-04-30T12:23:44Z</time>
      </trkpt>
      <trkpt lat="43.190508037805557" lon="-8.471070025116205">
        <ele>337.56</ele>
        <time>2025-04-30T12:23:45Z</time>
      </trkpt>
      <trkpt lat="43.190431008115411" lon="-8.471140014007688">
        <ele>338.04000000000002</ele>
        <time>2025-04-30T12:23:46Z</time>
      </trkpt>
      <trkpt lat="43.190349033102393" lon="-8.471196005120874">
        <ele>338.51999999999998</ele>
        <time>2025-04-30T12:23:47Z</time>
      </trkpt>
      <trkpt lat="43.190267980098724" lon="-8.471251996234059">
        <ele>339</ele>
        <time>2025-04-30T12:23:48Z</time>
      </trkpt>
      <trkpt lat="43.190186005085707" lon="-8.471307987347245">
        <ele>338.51999999999998</ele>
        <time>2025-04-30T12:23:49Z</time>
      </trkpt>
      <trkpt lat="43.189975032582879" lon="-8.471539998427033">
        <ele>336.60000000000002</ele>
        <time>2025-04-30T12:23:52Z</time>
      </trkpt>
      <trkpt lat="43.18991300649941" lon="-8.471622979268432">
        <ele>335.63999999999999</ele>
        <time>2025-04-30T12:23:53Z</time>
      </trkpt>
      <trkpt lat="43.189701028168201" lon="-8.471946017816663">
        <ele>332.75</ele>
        <time>2025-04-30T12:23:59Z</time>
      </trkpt>
      <trkpt lat="43.18967898376286" lon="-8.471985999494791">
        <ele>332.26999999999998</ele>
        <time>2025-04-30T12:24:00Z</time>
      </trkpt>
      <trkpt lat="43.189606983214617" lon="-8.472104016691446">
        <ele>331.79000000000002</ele>
        <time>2025-04-30T12:24:02Z</time>
      </trkpt>
      <trkpt lat="43.189452001824975" lon="-8.472346002236009">
        <ele>331.31</ele>
        <time>2025-04-30T12:24:05Z</time>
      </trkpt>
      <trkpt lat="43.189286962151527" lon="-8.472679015249014">
        <ele>332.26999999999998</ele>
        <time>2025-04-30T12:24:08Z</time>
      </trkpt>
      <trkpt lat="43.188750017434359" lon="-8.474049037322402">
        <ele>334.19999999999999</ele>
        <time>2025-04-30T12:24:18Z</time>
      </trkpt>
      <trkpt lat="43.188317008316517" lon="-8.475944017991424">
        <ele>346.20999999999998</ele>
        <time>2025-04-30T12:24:30Z</time>
      </trkpt>
      <trkpt lat="43.187862038612366" lon="-8.478330010548234">
        <ele>362.55000000000001</ele>
        <time>2025-04-30T12:24:45Z</time>
      </trkpt>
      <trkpt lat="43.187836976721883" lon="-8.479576986283064">
        <ele>363.04000000000002</ele>
        <time>2025-04-30T12:24:52Z</time>
      </trkpt>
      <trkpt lat="43.187929010018706" lon="-8.480808958411217">
        <ele>363.04000000000002</ele>
        <time>2025-04-30T12:24:57Z</time>
      </trkpt>
      <trkpt lat="43.188003022223711" lon="-8.48104901611805">
        <ele>364.48000000000002</ele>
        <time>2025-04-30T12:24:58Z</time>
      </trkpt>
      <trkpt lat="43.188328994438052" lon="-8.48199600353837">
        <ele>370.24000000000001</ele>
        <time>2025-04-30T12:25:02Z</time>
      </trkpt>
      <trkpt lat="43.18836503662169" lon="-8.482260033488274">
        <ele>372.17000000000002</ele>
        <time>2025-04-30T12:25:03Z</time>
      </trkpt>
      <trkpt lat="43.188371993601322" lon="-8.482530014589429">
        <ele>373.61000000000001</ele>
        <time>2025-04-30T12:25:04Z</time>
      </trkpt>
      <trkpt lat="43.18836897611618" lon="-8.482802007347345">
        <ele>375.05000000000001</ele>
        <time>2025-04-30T12:25:05Z</time>
      </trkpt>
      <trkpt lat="43.188356989994645" lon="-8.483071988448501">
        <ele>376.00999999999999</ele>
        <time>2025-04-30T12:25:06Z</time>
      </trkpt>
      <trkpt lat="43.188218018040061" lon="-8.485560994595289">
        <ele>384.66000000000003</ele>
        <time>2025-04-30T12:25:16Z</time>
      </trkpt>
      <trkpt lat="43.188048033043742" lon="-8.488135999068618">
        <ele>383.69999999999999</ele>
        <time>2025-04-30T12:25:26Z</time>
      </trkpt>
      <trkpt lat="43.187989024445415" lon="-8.48839701153338">
        <ele>383.69999999999999</ele>
        <time>2025-04-30T12:25:27Z</time>
      </trkpt>
      <trkpt lat="43.187922975048423" lon="-8.488650983199477">
        <ele>384.18000000000001</ele>
        <time>2025-04-30T12:25:28Z</time>
      </trkpt>
      <trkpt lat="43.18782901391387" lon="-8.488894980400801">
        <ele>384.18000000000001</ele>
        <time>2025-04-30T12:25:29Z</time>
      </trkpt>
      <trkpt lat="43.187704961746931" lon="-8.489117017015815">
        <ele>384.66000000000003</ele>
        <time>2025-04-30T12:25:30Z</time>
      </trkpt>
      <trkpt lat="43.187555009499192" lon="-8.489309968426824">
        <ele>384.66000000000003</ele>
        <time>2025-04-30T12:25:31Z</time>
      </trkpt>
      <trkpt lat="43.187392987310886" lon="-8.489480037242174">
        <ele>384.66000000000003</ele>
        <time>2025-04-30T12:25:32Z</time>
      </trkpt>
      <trkpt lat="43.187213027849793" lon="-8.489598976448178">
        <ele>385.14999999999998</ele>
        <time>2025-04-30T12:25:33Z</time>
      </trkpt>
      <trkpt lat="43.187028039246798" lon="-8.489684974774718">
        <ele>385.63</ele>
        <time>2025-04-30T12:25:34Z</time>
      </trkpt>
      <trkpt lat="43.186833998188376" lon="-8.489738032221794">
        <ele>386.11000000000001</ele>
        <time>2025-04-30T12:25:35Z</time>
      </trkpt>
      <trkpt lat="43.186638029292226" lon="-8.489755969494581">
        <ele>387.06999999999999</ele>
        <time>2025-04-30T12:25:36Z</time>
      </trkpt>
      <trkpt lat="43.186438959091902" lon="-8.489776002243161">
        <ele>387.55000000000001</ele>
        <time>2025-04-30T12:25:37Z</time>
      </trkpt>
      <trkpt lat="43.18624097853899" lon="-8.489795029163361">
        <ele>388.50999999999999</ele>
        <time>2025-04-30T12:25:38Z</time>
      </trkpt>
      <trkpt lat="43.185633039101958" lon="-8.489882033318281">
        <ele>391.38999999999999</ele>
        <time>2025-04-30T12:25:41Z</time>
      </trkpt>
      <trkpt lat="43.185431035235524" lon="-8.489953028038144">
        <ele>392.36000000000001</ele>
        <time>2025-04-30T12:25:42Z</time>
      </trkpt>
      <trkpt lat="43.185240011662245" lon="-8.490089988335967">
        <ele>392.83999999999997</ele>
        <time>2025-04-30T12:25:43Z</time>
      </trkpt>
      <trkpt lat="43.185025015845895" lon="-8.490243041887879">
        <ele>393.80000000000001</ele>
        <time>2025-04-30T12:25:44Z</time>
      </trkpt>
      <trkpt lat="43.184859976172447" lon="-8.490430964156985">
        <ele>394.75999999999999</ele>
        <time>2025-04-30T12:25:45Z</time>
      </trkpt>
      <trkpt lat="43.184680016711354" lon="-8.490636991336942">
        <ele>396.19999999999999</ele>
        <time>2025-04-30T12:25:46Z</time>
      </trkpt>
      <trkpt lat="43.182825017720461" lon="-8.492783010005951">
        <ele>408.22000000000003</ele>
        <time>2025-04-30T12:25:56Z</time>
      </trkpt>
      <trkpt lat="43.181554991751909" lon="-8.494277000427246">
        <ele>419.75</ele>
        <time>2025-04-30T12:26:04Z</time>
      </trkpt>
      <trkpt lat="43.181420965120196" lon="-8.49447900429368">
        <ele>421.19</ele>
        <time>2025-04-30T12:26:05Z</time>
      </trkpt>
      <trkpt lat="43.181305965408683" lon="-8.494715038686991">
        <ele>422.16000000000003</ele>
        <time>2025-04-30T12:26:06Z</time>
      </trkpt>
      <trkpt lat="43.180590989068151" lon="-8.496387982740998">
        <ele>429.85000000000002</ele>
        <time>2025-04-30T12:26:13Z</time>
      </trkpt>
      <trkpt lat="43.179841982200742" lon="-8.497571004554629">
        <ele>435.61000000000001</ele>
        <time>2025-04-30T12:26:19Z</time>
      </trkpt>
      <trkpt lat="43.179705021902919" lon="-8.498033015057445">
        <ele>437.54000000000002</ele>
        <time>2025-04-30T12:26:21Z</time>
      </trkpt>
      <trkpt lat="43.179660011082888" lon="-8.498267959803343">
        <ele>438.01999999999998</ele>
        <time>2025-04-30T12:26:22Z</time>
      </trkpt>
      <trkpt lat="43.179650036618114" lon="-8.498532995581627">
        <ele>438.98000000000002</ele>
        <time>2025-04-30T12:26:23Z</time>
      </trkpt>
      <trkpt lat="43.179638972505927" lon="-8.498804988339543">
        <ele>439.45999999999998</ele>
        <time>2025-04-30T12:26:24Z</time>
      </trkpt>
      <trkpt lat="43.179652970284224" lon="-8.499079998582602">
        <ele>440.42000000000002</ele>
        <time>2025-04-30T12:26:25Z</time>
      </trkpt>
      <trkpt lat="43.179678032174706" lon="-8.500262014567852">
        <ele>441.38</ele>
        <time>2025-04-30T12:26:29Z</time>
      </trkpt>
      <trkpt lat="43.179622963070869" lon="-8.500520009547472">
        <ele>440.89999999999998</ele>
        <time>2025-04-30T12:26:30Z</time>
      </trkpt>
      <trkpt lat="43.179548028856516" lon="-8.500779010355473">
        <ele>440.89999999999998</ele>
        <time>2025-04-30T12:26:31Z</time>
      </trkpt>
      <trkpt lat="43.179455995559692" lon="-8.501029964536429">
        <ele>440.89999999999998</ele>
        <time>2025-04-30T12:26:32Z</time>
      </trkpt>
      <trkpt lat="43.179328003898263" lon="-8.501254012808204">
        <ele>440.89999999999998</ele>
        <time>2025-04-30T12:26:33Z</time>
      </trkpt>
      <trkpt lat="43.179172016680241" lon="-8.501444030553103">
        <ele>440.89999999999998</ele>
        <time>2025-04-30T12:26:34Z</time>
      </trkpt>
      <trkpt lat="43.178989039734006" lon="-8.501589959487319">
        <ele>441.38</ele>
        <time>2025-04-30T12:26:35Z</time>
      </trkpt>
      <trkpt lat="43.178802961483598" lon="-8.501730021089315">
        <ele>441.38</ele>
        <time>2025-04-30T12:26:36Z</time>
      </trkpt>
      <trkpt lat="43.178601963445544" lon="-8.50180596113205">
        <ele>441.38</ele>
        <time>2025-04-30T12:26:37Z</time>
      </trkpt>
      <trkpt lat="43.178401971235871" lon="-8.501880979165435">
        <ele>441.38</ele>
        <time>2025-04-30T12:26:38Z</time>
      </trkpt>
      <trkpt lat="43.176990961655974" lon="-8.502338966354728">
        <ele>445.23000000000002</ele>
        <time>2025-04-30T12:26:45Z</time>
      </trkpt>
      <trkpt lat="43.176801027730107" lon="-8.502457989379764">
        <ele>446.19</ele>
        <time>2025-04-30T12:26:46Z</time>
      </trkpt>
      <trkpt lat="43.176639005541801" lon="-8.502640966325998">
        <ele>447.63</ele>
        <time>2025-04-30T12:26:47Z</time>
      </trkpt>
      <trkpt lat="43.17648502998054" lon="-8.502816986292601">
        <ele>448.58999999999997</ele>
        <time>2025-04-30T12:26:48Z</time>
      </trkpt>
      <trkpt lat="43.176344968378544" lon="-8.503042040392757">
        <ele>449.55000000000001</ele>
        <time>2025-04-30T12:26:49Z</time>
      </trkpt>
      <trkpt lat="43.176216976717114" lon="-8.503249995410442">
        <ele>451</ele>
        <time>2025-04-30T12:26:50Z</time>
      </trkpt>
      <trkpt lat="43.174804039299488" lon="-8.5052639991045">
        <ele>453.39999999999998</ele>
        <time>2025-04-30T12:27:00Z</time>
      </trkpt>
      <trkpt lat="43.173136962577701" lon="-8.50767002440989">
        <ele>441.38</ele>
        <time>2025-04-30T12:27:10Z</time>
      </trkpt>
      <trkpt lat="43.172004986554384" lon="-8.509250013157725">
        <ele>433.20999999999998</ele>
        <time>2025-04-30T12:27:17Z</time>
      </trkpt>
      <trkpt lat="43.171830978244543" lon="-8.509424021467567">
        <ele>432.25</ele>
        <time>2025-04-30T12:27:18Z</time>
      </trkpt>
      <trkpt lat="43.171643977984786" lon="-8.509524017572403">
        <ele>431.29000000000002</ele>
        <time>2025-04-30T12:27:19Z</time>
      </trkpt>
      <trkpt lat="43.171450020745397" lon="-8.509599035605788">
        <ele>430.32999999999998</ele>
        <time>2025-04-30T12:27:20Z</time>
      </trkpt>
      <trkpt lat="43.171252962201834" lon="-8.509618984535337">
        <ele>429.85000000000002</ele>
        <time>2025-04-30T12:27:21Z</time>
      </trkpt>
      <trkpt lat="43.171055987477303" lon="-8.509618984535337">
        <ele>429.37</ele>
        <time>2025-04-30T12:27:22Z</time>
      </trkpt>
      <trkpt lat="43.170853983610868" lon="-8.509527035057545">
        <ele>428.88999999999999</ele>
        <time>2025-04-30T12:27:23Z</time>
      </trkpt>
      <trkpt lat="43.170658014714718" lon="-8.509437013417482">
        <ele>428.39999999999998</ele>
        <time>2025-04-30T12:27:24Z</time>
      </trkpt>
      <trkpt lat="43.170463973656297" lon="-8.509347997605801">
        <ele>428.39999999999998</ele>
        <time>2025-04-30T12:27:25Z</time>
      </trkpt>
      <trkpt lat="43.17006197758019" lon="-8.509164014831185">
        <ele>427.92000000000002</ele>
        <time>2025-04-30T12:27:27Z</time>
      </trkpt>
      <trkpt lat="43.169853016734123" lon="-8.509099977090955">
        <ele>427.44</ele>
        <time>2025-04-30T12:27:28Z</time>
      </trkpt>
      <trkpt lat="43.169635003432631" lon="-8.509119004011154">
        <ele>427.44</ele>
        <time>2025-04-30T12:27:29Z</time>
      </trkpt>
      <trkpt lat="43.169422019273043" lon="-8.509169965982437">
        <ele>426.95999999999998</ele>
        <time>2025-04-30T12:27:30Z</time>
      </trkpt>
      <trkpt lat="43.169220015406609" lon="-8.50928102619946">
        <ele>426.95999999999998</ele>
        <time>2025-04-30T12:27:31Z</time>
      </trkpt>
      <trkpt lat="43.169037960469723" lon="-8.509448999539018">
        <ele>426.48000000000002</ele>
        <time>2025-04-30T12:27:32Z</time>
      </trkpt>
      <trkpt lat="43.168862024322152" lon="-8.509628036990762">
        <ele>426.48000000000002</ele>
        <time>2025-04-30T12:27:33Z</time>
      </trkpt>
      <trkpt lat="43.168734032660723" lon="-8.509867005050182">
        <ele>426.95999999999998</ele>
        <time>2025-04-30T12:27:34Z</time>
      </trkpt>
      <trkpt lat="43.168635964393616" lon="-8.510140003636479">
        <ele>427.44</ele>
        <time>2025-04-30T12:27:35Z</time>
      </trkpt>
      <trkpt lat="43.16855700686574" lon="-8.510443009436131">
        <ele>427.92000000000002</ele>
        <time>2025-04-30T12:27:36Z</time>
      </trkpt>
      <trkpt lat="43.168521970510483" lon="-8.510759007185698">
        <ele>429.85000000000002</ele>
        <time>2025-04-30T12:27:37Z</time>
      </trkpt>
      <trkpt lat="43.168487017974257" lon="-8.511078022420406">
        <ele>431.76999999999998</ele>
        <time>2025-04-30T12:27:38Z</time>
      </trkpt>
      <trkpt lat="43.168395990505815" lon="-8.511695014312863">
        <ele>435.61000000000001</ele>
        <time>2025-04-30T12:27:40Z</time>
      </trkpt>
      <trkpt lat="43.16832298412919" lon="-8.511988967657089">
        <ele>437.54000000000002</ele>
        <time>2025-04-30T12:27:41Z</time>
      </trkpt>
      <trkpt lat="43.168204966932535" lon="-8.51224796846509">
        <ele>439.45999999999998</ele>
        <time>2025-04-30T12:27:42Z</time>
      </trkpt>
      <trkpt lat="43.168076975271106" lon="-8.512501018121839">
        <ele>440.89999999999998</ele>
        <time>2025-04-30T12:27:43Z</time>
      </trkpt>
      <trkpt lat="43.167948983609676" lon="-8.512750966474414">
        <ele>442.81999999999999</ele>
        <time>2025-04-30T12:27:44Z</time>
      </trkpt>
      <trkpt lat="43.166726985946298" lon="-8.514969991520047">
        <ele>456.27999999999997</ele>
        <time>2025-04-30T12:27:53Z</time>
      </trkpt>
      <trkpt lat="43.166437977924943" lon="-8.515393026173115">
        <ele>458.69</ele>
        <time>2025-04-30T12:27:55Z</time>
      </trkpt>
      <trkpt lat="43.166272016242146" lon="-8.515554964542389">
        <ele>459.64999999999998</ele>
        <time>2025-04-30T12:27:56Z</time>
      </trkpt>
      <trkpt lat="43.16550699993968" lon="-8.516351999714971">
        <ele>463.97000000000003</ele>
        <time>2025-04-30T12:28:01Z</time>
      </trkpt>
      <trkpt lat="43.165370039641857" lon="-8.516547968611121">
        <ele>464.93000000000001</ele>
        <time>2025-04-30T12:28:02Z</time>
      </trkpt>
      <trkpt lat="43.165129981935024" lon="-8.517031017690897">
        <ele>465.89999999999998</ele>
        <time>2025-04-30T12:28:04Z</time>
      </trkpt>
      <trkpt lat="43.165031997486949" lon="-8.517313990741968">
        <ele>466.38</ele>
        <time>2025-04-30T12:28:05Z</time>
      </trkpt>
      <trkpt lat="43.164954967796803" lon="-8.517598975449801">
        <ele>467.33999999999997</ele>
        <time>2025-04-30T12:28:06Z</time>
      </trkpt>
      <trkpt lat="43.16492697224021" lon="-8.517914973199368">
        <ele>467.81999999999999</ele>
        <time>2025-04-30T12:28:07Z</time>
      </trkpt>
      <trkpt lat="43.164897970855236" lon="-8.518233988434076">
        <ele>468.30000000000001</ele>
        <time>2025-04-30T12:28:08Z</time>
      </trkpt>
      <trkpt lat="43.164887996390462" lon="-8.518558032810688">
        <ele>469.74000000000001</ele>
        <time>2025-04-30T12:28:09Z</time>
      </trkpt>
      <trkpt lat="43.164789006114006" lon="-8.520210022106767">
        <ele>475.50999999999999</ele>
        <time>2025-04-30T12:28:14Z</time>
      </trkpt>
      <trkpt lat="43.164743995293975" lon="-8.520529959350824">
        <ele>476.47000000000003</ele>
        <time>2025-04-30T12:28:15Z</time>
      </trkpt>
      <trkpt lat="43.1646460108459" lon="-8.520815027877688">
        <ele>476.94999999999999</ele>
        <time>2025-04-30T12:28:16Z</time>
      </trkpt>
      <trkpt lat="43.164547020569444" lon="-8.521105041727424">
        <ele>477.91000000000003</ele>
        <time>2025-04-30T12:28:17Z</time>
      </trkpt>
      <trkpt lat="43.164433026686311" lon="-8.521393965929747">
        <ele>478.87</ele>
        <time>2025-04-30T12:28:18Z</time>
      </trkpt>
      <trkpt lat="43.164305035024881" lon="-8.521667970344424">
        <ele>480.31999999999999</ele>
        <time>2025-04-30T12:28:19Z</time>
      </trkpt>
      <trkpt lat="43.162838034331799" lon="-8.52483700029552">
        <ele>495.69999999999999</ele>
        <time>2025-04-30T12:28:31Z</time>
      </trkpt>
      <trkpt lat="43.162250965833664" lon="-8.526282962411642">
        <ele>498.57999999999998</ele>
        <time>2025-04-30T12:28:37Z</time>
      </trkpt>
      <trkpt lat="43.162207966670394" lon="-8.526561995968223">
        <ele>499.06</ele>
        <time>2025-04-30T12:28:38Z</time>
      </trkpt>
      <trkpt lat="43.162172008305788" lon="-8.526843041181564">
        <ele>499.06</ele>
        <time>2025-04-30T12:28:39Z</time>
      </trkpt>
      <trkpt lat="43.162067988887429" lon="-8.529340010136366">
        <ele>495.69999999999999</ele>
        <time>2025-04-30T12:28:47Z</time>
      </trkpt>
      <trkpt lat="43.162120040506124" lon="-8.530331002548337">
        <ele>493.76999999999998</ele>
        <time>2025-04-30T12:28:50Z</time>
      </trkpt>
      <trkpt lat="43.162173014134169" lon="-8.530652029439807">
        <ele>492.81</ele>
        <time>2025-04-30T12:28:51Z</time>
      </trkpt>
      <trkpt lat="43.162238979712129" lon="-8.530978001654148">
        <ele>491.37</ele>
        <time>2025-04-30T12:28:52Z</time>
      </trkpt>
      <trkpt lat="43.162334030494094" lon="-8.531285030767322">
        <ele>490.88999999999999</ele>
        <time>2025-04-30T12:28:53Z</time>
      </trkpt>
      <trkpt lat="43.162427991628647" lon="-8.531590970233083">
        <ele>489.93000000000001</ele>
        <time>2025-04-30T12:28:54Z</time>
      </trkpt>
      <trkpt lat="43.162765027955174" lon="-8.532831994816661">
        <ele>486.07999999999998</ele>
        <time>2025-04-30T12:28:58Z</time>
      </trkpt>
      <trkpt lat="43.16280098631978" lon="-8.533164002001286">
        <ele>485.12</ele>
        <time>2025-04-30T12:28:59Z</time>
      </trkpt>
      <trkpt lat="43.162880027666688" lon="-8.535799020901322">
        <ele>476.94999999999999</ele>
        <time>2025-04-30T12:29:07Z</time>
      </trkpt>
      <trkpt lat="43.162905005738139" lon="-8.538816003128886">
        <ele>463.97000000000003</ele>
        <time>2025-04-30T12:29:16Z</time>
      </trkpt>
      <trkpt lat="43.162869969382882" lon="-8.539152033627033">
        <ele>462.52999999999997</ele>
        <time>2025-04-30T12:29:17Z</time>
      </trkpt>
      <trkpt lat="43.162789000198245" lon="-8.539477000012994">
        <ele>460.61000000000001</ele>
        <time>2025-04-30T12:29:18Z</time>
      </trkpt>
      <trkpt lat="43.162694033235312" lon="-8.539796015247703">
        <ele>458.69</ele>
        <time>2025-04-30T12:29:19Z</time>
      </trkpt>
      <trkpt lat="43.162599988281727" lon="-8.540110001340509">
        <ele>457.24000000000001</ele>
        <time>2025-04-30T12:29:20Z</time>
      </trkpt>
      <trkpt lat="43.162471996620297" lon="-8.540405966341496">
        <ele>455.31999999999999</ele>
        <time>2025-04-30T12:29:21Z</time>
      </trkpt>
      <trkpt lat="43.162302011623979" lon="-8.540673013776541">
        <ele>453.39999999999998</ele>
        <time>2025-04-30T12:29:22Z</time>
      </trkpt>
      <trkpt lat="43.162119034677744" lon="-8.540924973785877">
        <ele>451.95999999999998</ele>
        <time>2025-04-30T12:29:23Z</time>
      </trkpt>
      <trkpt lat="43.161407997831702" lon="-8.541965000331402">
        <ele>443.79000000000002</ele>
        <time>2025-04-30T12:29:27Z</time>
      </trkpt>
      <trkpt lat="43.161281011998653" lon="-8.542249985039234">
        <ele>441.86000000000001</ele>
        <time>2025-04-30T12:29:28Z</time>
      </trkpt>
      <trkpt lat="43.161173975095153" lon="-8.542547039687634">
        <ele>439.94</ele>
        <time>2025-04-30T12:29:29Z</time>
      </trkpt>
      <trkpt lat="43.161087976768613" lon="-8.542858008295298">
        <ele>437.54000000000002</ele>
        <time>2025-04-30T12:29:30Z</time>
      </trkpt>
      <trkpt lat="43.161015976220369" lon="-8.543184986338019">
        <ele>436.10000000000002</ele>
        <time>2025-04-30T12:29:31Z</time>
      </trkpt>
      <trkpt lat="43.160942969843745" lon="-8.543513976037502">
        <ele>434.17000000000002</ele>
        <time>2025-04-30T12:29:32Z</time>
      </trkpt>
      <trkpt lat="43.160504009574652" lon="-8.545906003564596">
        <ele>436.57999999999998</ele>
        <time>2025-04-30T12:29:40Z</time>
      </trkpt>
      <trkpt lat="43.160020038485527" lon="-8.548611011356115">
        <ele>443.31</ele>
        <time>2025-04-30T12:29:51Z</time>
      </trkpt>
      <trkpt lat="43.159531960263848" lon="-8.551533026620746">
        <ele>436.57999999999998</ele>
        <time>2025-04-30T12:30:03Z</time>
      </trkpt>
      <trkpt lat="43.159000966697931" lon="-8.554664002731443">
        <ele>424.56</ele>
        <time>2025-04-30T12:30:16Z</time>
      </trkpt>
      <trkpt lat="43.158954028040171" lon="-8.555130958557129">
        <ele>423.12</ele>
        <time>2025-04-30T12:30:18Z</time>
      </trkpt>
      <trkpt lat="43.159015970304608" lon="-8.555372022092342">
        <ele>422.63999999999999</ele>
        <time>2025-04-30T12:30:19Z</time>
      </trkpt>
      <trkpt lat="43.159072967246175" lon="-8.555591963231564">
        <ele>422.16000000000003</ele>
        <time>2025-04-30T12:30:20Z</time>
      </trkpt>
      <trkpt lat="43.159130970016122" lon="-8.555811988189817">
        <ele>421.68000000000001</ele>
        <time>2025-04-30T12:30:21Z</time>
      </trkpt>
      <trkpt lat="43.159199031069875" lon="-8.556004017591476">
        <ele>420.70999999999998</ele>
        <time>2025-04-30T12:30:22Z</time>
      </trkpt>
      <trkpt lat="43.159257033839822" lon="-8.556175008416176">
        <ele>420.23000000000002</ele>
        <time>2025-04-30T12:30:23Z</time>
      </trkpt>
      <trkpt lat="43.159307995811105" lon="-8.556341975927353">
        <ele>419.75</ele>
        <time>2025-04-30T12:30:24Z</time>
      </trkpt>
      <trkpt lat="43.159387037158012" lon="-8.5566780064255">
        <ele>419.75</ele>
        <time>2025-04-30T12:30:26Z</time>
      </trkpt>
      <trkpt lat="43.159411009401083" lon="-8.556857965886593">
        <ele>419.75</ele>
        <time>2025-04-30T12:30:27Z</time>
      </trkpt>
      <trkpt lat="43.159446967765689" lon="-8.557636979967356">
        <ele>419.75</ele>
        <time>2025-04-30T12:30:31Z</time>
      </trkpt>
      <trkpt lat="43.159446967765689" lon="-8.557855999097228">
        <ele>419.75</ele>
        <time>2025-04-30T12:30:32Z</time>
      </trkpt>
      <trkpt lat="43.15921101719141" lon="-8.559959018602967">
        <ele>422.16000000000003</ele>
        <time>2025-04-30T12:30:43Z</time>
      </trkpt>
      <trkpt lat="43.159047989174724" lon="-8.56170597486198">
        <ele>419.75</ele>
        <time>2025-04-30T12:30:53Z</time>
      </trkpt>
      <trkpt lat="43.158972971141338" lon="-8.562104031443596">
        <ele>418.79000000000002</ele>
        <time>2025-04-30T12:30:55Z</time>
      </trkpt>
      <trkpt lat="43.158930977806449" lon="-8.562302011996508">
        <ele>418.31</ele>
        <time>2025-04-30T12:30:56Z</time>
      </trkpt>
      <trkpt lat="43.158876998350024" lon="-8.562485994771123">
        <ele>418.31</ele>
        <time>2025-04-30T12:30:57Z</time>
      </trkpt>
      <trkpt lat="43.158806003630161" lon="-8.562660003080964">
        <ele>418.31</ele>
        <time>2025-04-30T12:30:58Z</time>
      </trkpt>
      <trkpt lat="43.15873702056706" lon="-8.562829988077283">
        <ele>418.31</ele>
        <time>2025-04-30T12:30:59Z</time>
      </trkpt>
      <trkpt lat="43.158146012574434" lon="-8.564258012920618">
        <ele>422.16000000000003</ele>
        <time>2025-04-30T12:31:08Z</time>
      </trkpt>
      <trkpt lat="43.157759020105004" lon="-8.565126964822412">
        <ele>425.51999999999998</ele>
        <time>2025-04-30T12:31:14Z</time>
      </trkpt>
      <trkpt lat="43.157676039263606" lon="-8.56523098424077">
        <ele>425.51999999999998</ele>
        <time>2025-04-30T12:31:15Z</time>
      </trkpt>
      <trkpt lat="43.157595992088318" lon="-8.565329974517226">
        <ele>425.51999999999998</ele>
        <time>2025-04-30T12:31:16Z</time>
      </trkpt>
      <trkpt lat="43.157516028732061" lon="-8.565430976450443">
        <ele>425.51999999999998</ele>
        <time>2025-04-30T12:31:17Z</time>
      </trkpt>
      <trkpt lat="43.157446039840579" lon="-8.565486967563629">
        <ele>425.04000000000002</ele>
        <time>2025-04-30T12:31:18Z</time>
      </trkpt>
      <trkpt lat="43.157135993242264" lon="-8.565674973651767">
        <ele>423.12</ele>
        <time>2025-04-30T12:31:25Z</time>
      </trkpt>
      <trkpt lat="43.157066004350781" lon="-8.565704980865121">
        <ele>422.63999999999999</ele>
        <time>2025-04-30T12:31:33Z</time>
      </trkpt>
      <trkpt lat="43.15678596496582" lon="-8.565796008333564">
        <ele>421.19</ele>
        <time>2025-04-30T12:31:38Z</time>
      </trkpt>
      <trkpt lat="43.155893962830305" lon="-8.566030031070113">
        <ele>416.87</ele>
        <time>2025-04-30T12:31:46Z</time>
      </trkpt>
      <trkpt lat="43.154681017622352" lon="-8.566351979970932">
        <ele>411.57999999999998</ele>
        <time>2025-04-30T12:31:55Z</time>
      </trkpt>
      <trkpt lat="43.152718981727958" lon="-8.566897977143526">
        <ele>404.85000000000002</ele>
        <time>2025-04-30T12:32:06Z</time>
      </trkpt>
      <trkpt lat="43.150633983314037" lon="-8.567472975701094">
        <ele>401.00999999999999</ele>
        <time>2025-04-30T12:32:17Z</time>
      </trkpt>
      <trkpt lat="43.150095026940107" lon="-8.567666010931134">
        <ele>401.49000000000001</ele>
        <time>2025-04-30T12:32:20Z</time>
      </trkpt>
      <trkpt lat="43.149924958124757" lon="-8.567760977894068">
        <ele>401.49000000000001</ele>
        <time>2025-04-30T12:32:21Z</time>
      </trkpt>
      <trkpt lat="43.149769976735115" lon="-8.567898022010922">
        <ele>401.97000000000003</ele>
        <time>2025-04-30T12:32:22Z</time>
      </trkpt>
      <trkpt lat="43.149627987295389" lon="-8.568058032542467">
        <ele>401.97000000000003</ele>
        <time>2025-04-30T12:32:23Z</time>
      </trkpt>
      <trkpt lat="43.14947702921927" lon="-8.568213013932109">
        <ele>401.49000000000001</ele>
        <time>2025-04-30T12:32:24Z</time>
      </trkpt>
      <trkpt lat="43.148291995748878" lon="-8.569421013817191">
        <ele>394.27999999999997</ele>
        <time>2025-04-30T12:32:32Z</time>
      </trkpt>
      <trkpt lat="43.148178001865745" lon="-8.569480022415519">
        <ele>393.31999999999999</ele>
        <time>2025-04-30T12:32:33Z</time>
      </trkpt>
      <trkpt lat="43.148051016032696" lon="-8.569463007152081">
        <ele>392.83999999999997</ele>
        <time>2025-04-30T12:32:34Z</time>
      </trkpt>
      <trkpt lat="43.147922018542886" lon="-8.569445991888642">
        <ele>391.87</ele>
        <time>2025-04-30T12:32:35Z</time>
      </trkpt>
      <trkpt lat="43.147810036316514" lon="-8.569370973855257">
        <ele>390.91000000000003</ele>
        <time>2025-04-30T12:32:36Z</time>
      </trkpt>
      <trkpt lat="43.147678021341562" lon="-8.56926703825593">
        <ele>389.94999999999999</ele>
        <time>2025-04-30T12:32:37Z</time>
      </trkpt>
      <trkpt lat="43.147541983053088" lon="-8.569157989695668">
        <ele>388.99000000000001</ele>
        <time>2025-04-30T12:32:38Z</time>
      </trkpt>
      <trkpt lat="43.147087013348937" lon="-8.568862024694681">
        <ele>387.06999999999999</ele>
        <time>2025-04-30T12:32:41Z</time>
      </trkpt>
      <trkpt lat="43.146937983110547" lon="-8.568861018866301">
        <ele>387.06999999999999</ele>
        <time>2025-04-30T12:32:42Z</time>
      </trkpt>
      <trkpt lat="43.146789036691189" lon="-8.568893037736416">
        <ele>387.06999999999999</ele>
        <time>2025-04-30T12:32:43Z</time>
      </trkpt>
      <trkpt lat="43.146640006452799" lon="-8.568950034677982">
        <ele>387.55000000000001</ele>
        <time>2025-04-30T12:32:44Z</time>
      </trkpt>
      <trkpt lat="43.146485025063157" lon="-8.569033015519381">
        <ele>388.02999999999997</ele>
        <time>2025-04-30T12:32:45Z</time>
      </trkpt>
      <trkpt lat="43.146185036748648" lon="-8.569241976365447">
        <ele>389.47000000000003</ele>
        <time>2025-04-30T12:32:47Z</time>
      </trkpt>
      <trkpt lat="43.146044975146651" lon="-8.569377008825541">
        <ele>389.94999999999999</ele>
        <time>2025-04-30T12:32:48Z</time>
      </trkpt>
      <trkpt lat="43.145650019869208" lon="-8.569808006286621">
        <ele>392.36000000000001</ele>
        <time>2025-04-30T12:32:51Z</time>
      </trkpt>
      <trkpt lat="43.145185997709632" lon="-8.570300024002791">
        <ele>395.24000000000001</ele>
        <time>2025-04-30T12:32:57Z</time>
      </trkpt>
      <trkpt lat="43.144521983340383" lon="-8.57100703753531">
        <ele>399.07999999999998</ele>
        <time>2025-04-30T12:33:05Z</time>
      </trkpt>
      <trkpt lat="43.143669962882996" lon="-8.572014039382339">
        <ele>404.37</ele>
        <time>2025-04-30T12:33:13Z</time>
      </trkpt>
      <trkpt lat="43.143597040325403" lon="-8.572184024378657">
        <ele>404.85000000000002</ele>
        <time>2025-04-30T12:33:14Z</time>
      </trkpt>
      <trkpt lat="43.143526967614889" lon="-8.572357026860118">
        <ele>404.85000000000002</ele>
        <time>2025-04-30T12:33:15Z</time>
      </trkpt>
      <trkpt lat="43.14296898432076" lon="-8.574301041662693">
        <ele>405.32999999999998</ele>
        <time>2025-04-30T12:33:25Z</time>
      </trkpt>
      <trkpt lat="43.14234503544867" lon="-8.576464997604489">
        <ele>404.85000000000002</ele>
        <time>2025-04-30T12:33:35Z</time>
      </trkpt>
      <trkpt lat="43.141542971134186" lon="-8.579305959865451">
        <ele>410.13999999999999</ele>
        <time>2025-04-30T12:33:48Z</time>
      </trkpt>
      <trkpt lat="43.140887003391981" lon="-8.581606959924102">
        <ele>408.69999999999999</ele>
        <time>2025-04-30T12:33:59Z</time>
      </trkpt>
      <trkpt lat="43.140122992917895" lon="-8.584269974380732">
        <ele>403.88999999999999</ele>
        <time>2025-04-30T12:34:11Z</time>
      </trkpt>
      <trkpt lat="43.139317994937301" lon="-8.587119989097118">
        <ele>398.12</ele>
        <time>2025-04-30T12:34:24Z</time>
      </trkpt>
      <trkpt lat="43.138539986684918" lon="-8.589761964976788">
        <ele>393.31999999999999</ele>
        <time>2025-04-30T12:34:34Z</time>
      </trkpt>
      <trkpt lat="43.138016033917665" lon="-8.591627022251487">
        <ele>388.99000000000001</ele>
        <time>2025-04-30T12:34:41Z</time>
      </trkpt>
      <trkpt lat="43.137297034263611" lon="-8.594061965122819">
        <ele>385.14999999999998</ele>
        <time>2025-04-30T12:34:51Z</time>
      </trkpt>
      <trkpt lat="43.137170970439911" lon="-8.594460021704435">
        <ele>386.58999999999997</ele>
        <time>2025-04-30T12:34:53Z</time>
      </trkpt>
      <trkpt lat="43.137082038447261" lon="-8.5945999994874">
        <ele>387.55000000000001</ele>
        <time>2025-04-30T12:34:54Z</time>
      </trkpt>
      <trkpt lat="43.136984976008534" lon="-8.594730002805591">
        <ele>388.02999999999997</ele>
        <time>2025-04-30T12:34:55Z</time>
      </trkpt>
      <trkpt lat="43.136839969083667" lon="-8.594781970605254">
        <ele>388.99000000000001</ele>
        <time>2025-04-30T12:34:56Z</time>
      </trkpt>
      <trkpt lat="43.13669303432107" lon="-8.594805020838976">
        <ele>389.94999999999999</ele>
        <time>2025-04-30T12:34:57Z</time>
      </trkpt>
      <trkpt lat="43.136551966890693" lon="-8.594827987253666">
        <ele>390.91000000000003</ele>
        <time>2025-04-30T12:34:58Z</time>
      </trkpt>
      <trkpt lat="43.136256001889706" lon="-8.594897976145148">
        <ele>392.83999999999997</ele>
        <time>2025-04-30T12:35:00Z</time>
      </trkpt>
      <trkpt lat="43.136113006621599" lon="-8.594932006672025">
        <ele>393.80000000000001</ele>
        <time>2025-04-30T12:35:01Z</time>
      </trkpt>
      <trkpt lat="43.136018961668015" lon="-8.595052035525441">
        <ele>394.75999999999999</ele>
        <time>2025-04-30T12:35:02Z</time>
      </trkpt>
      <trkpt lat="43.135917959734797" lon="-8.595196958631277">
        <ele>395.72000000000003</ele>
        <time>2025-04-30T12:35:03Z</time>
      </trkpt>
      <trkpt lat="43.135811006650329" lon="-8.595349006354809">
        <ele>396.68000000000001</ele>
        <time>2025-04-30T12:35:04Z</time>
      </trkpt>
      <trkpt lat="43.134664027020335" lon="-8.597144996747375">
        <ele>401.97000000000003</ele>
        <time>2025-04-30T12:35:14Z</time>
      </trkpt>
      <trkpt lat="43.133267015218735" lon="-8.599357986822724">
        <ele>404.85000000000002</ele>
        <time>2025-04-30T12:35:25Z</time>
      </trkpt>
      <trkpt lat="43.13149499706924" lon="-8.602118985727429">
        <ele>423.12</ele>
        <time>2025-04-30T12:35:40Z</time>
      </trkpt>
      <trkpt lat="43.131000967696309" lon="-8.60302297398448">
        <ele>430.32999999999998</ele>
        <time>2025-04-30T12:35:45Z</time>
      </trkpt>
      <trkpt lat="43.130938019603491" lon="-8.603241993114352">
        <ele>430.81</ele>
        <time>2025-04-30T12:35:46Z</time>
      </trkpt>
      <trkpt lat="43.127292981371284" lon="-8.62010101787746">
        <ele>438.01999999999998</ele>
        <time>2025-04-30T12:36:54Z</time>
      </trkpt>
      <trkpt lat="43.127175970003009" lon="-8.620632011443377">
        <ele>439.45999999999998</ele>
        <time>2025-04-30T12:36:58Z</time>
      </trkpt>
      <trkpt lat="43.127159960567951" lon="-8.620706023648381">
        <ele>439.94</ele>
        <time>2025-04-30T12:36:59Z</time>
      </trkpt>
      <trkpt lat="43.127148980274796" lon="-8.620756985619664">
        <ele>439.94</ele>
        <time>2025-04-30T12:37:00Z</time>
      </trkpt>
      <trkpt lat="43.127083014696836" lon="-8.620822029188275">
        <ele>440.42000000000002</ele>
        <time>2025-04-30T12:37:01Z</time>
      </trkpt>
      <trkpt lat="43.127039009705186" lon="-8.620810965076089">
        <ele>440.42000000000002</ele>
        <time>2025-04-30T12:37:02Z</time>
      </trkpt>
      <trkpt lat="43.126993998885155" lon="-8.620799984782934">
        <ele>440.89999999999998</ele>
        <time>2025-04-30T12:37:03Z</time>
      </trkpt>
      <trkpt lat="43.126958962529898" lon="-8.620791016146541">
        <ele>440.89999999999998</ele>
        <time>2025-04-30T12:37:04Z</time>
      </trkpt>
      <trkpt lat="43.126938007771969" lon="-8.620785987004638">
        <ele>441.38</ele>
        <time>2025-04-30T12:37:05Z</time>
      </trkpt>
      <trkpt lat="43.126938007771969" lon="-8.620785987004638">
        <ele>441.38</ele>
        <time>2025-04-30T12:37:14Z</time>
      </trkpt>
      <trkpt lat="43.126938007771969" lon="-8.620785987004638">
        <ele>441.86000000000001</ele>
        <time>2025-04-30T12:37:58Z</time>
      </trkpt>
      <trkpt lat="43.126975977793336" lon="-8.620827980339527">
        <ele>439.45999999999998</ele>
        <time>2025-04-30T12:45:54Z</time>
      </trkpt>
      <trkpt lat="43.126993998885155" lon="-8.620841978117824">
        <ele>439.45999999999998</ele>
        <time>2025-04-30T12:46:25Z</time>
      </trkpt>
      <trkpt lat="43.126973966136575" lon="-8.620783975347877">
        <ele>441.86000000000001</ele>
        <time>2025-04-30T12:47:07Z</time>
      </trkpt>
      <trkpt lat="43.126972960308194" lon="-8.620772995054722">
        <ele>441.86000000000001</ele>
        <time>2025-04-30T12:47:54Z</time>
      </trkpt>
      <trkpt lat="43.126969020813704" lon="-8.620776012539864">
        <ele>441.86000000000001</ele>
        <time>2025-04-30T12:48:41Z</time>
      </trkpt>
      <trkpt lat="43.126964997500181" lon="-8.620772995054722">
        <ele>441.38</ele>
        <time>2025-04-30T12:49:17Z</time>
      </trkpt>
      <trkpt lat="43.126967009156942" lon="-8.620782969519496">
        <ele>441.38</ele>
        <time>2025-04-30T12:49:44Z</time>
      </trkpt>
      <trkpt lat="43.126967009156942" lon="-8.620782969519496">
        <ele>441.38</ele>
        <time>2025-04-30T12:50:11Z</time>
      </trkpt>
      <trkpt lat="43.126971032470465" lon="-8.620786992833018">
        <ele>441.38</ele>
        <time>2025-04-30T12:50:27Z</time>
      </trkpt>
      <trkpt lat="43.126971032470465" lon="-8.620786992833018">
        <ele>441.38</ele>
        <time>2025-04-30T12:50:32Z</time>
      </trkpt>
      <trkpt lat="43.127073040232062" lon="-8.620784981176257">
        <ele>441.38</ele>
        <time>2025-04-30T12:50:44Z</time>
      </trkpt>
      <trkpt lat="43.127073040232062" lon="-8.620784981176257">
        <ele>441.38</ele>
        <time>2025-04-30T12:51:17Z</time>
      </trkpt>
      <trkpt lat="43.127099024131894" lon="-8.620793027803302">
        <ele>440.42000000000002</ele>
        <time>2025-04-30T12:52:03Z</time>
      </trkpt>
      <trkpt lat="43.127095000818372" lon="-8.620824962854385">
        <ele>440.42000000000002</ele>
        <time>2025-04-30T12:52:09Z</time>
      </trkpt>
      <trkpt lat="43.127128025516868" lon="-8.620849018916488">
        <ele>440.42000000000002</ele>
        <time>2025-04-30T12:52:10Z</time>
      </trkpt>
      <trkpt lat="43.127111010253429" lon="-8.620916996151209">
        <ele>440.42000000000002</ele>
        <time>2025-04-30T12:52:11Z</time>
      </trkpt>
      <trkpt lat="43.127088965848088" lon="-8.621006011962891">
        <ele>440.42000000000002</ele>
        <time>2025-04-30T12:52:12Z</time>
      </trkpt>
      <trkpt lat="43.12706901691854" lon="-8.621101984754205">
        <ele>440.42000000000002</ele>
        <time>2025-04-30T12:52:13Z</time>
      </trkpt>
      <trkpt lat="43.127046972513199" lon="-8.621207010000944">
        <ele>440.42000000000002</ele>
        <time>2025-04-30T12:52:14Z</time>
      </trkpt>
      <trkpt lat="43.126757964491844" lon="-8.622540989890695">
        <ele>440.42000000000002</ele>
        <time>2025-04-30T12:52:23Z</time>
      </trkpt>
      <trkpt lat="43.126306012272835" lon="-8.624675022438169">
        <ele>439.45999999999998</ele>
        <time>2025-04-30T12:52:33Z</time>
      </trkpt>
      <trkpt lat="43.125852970406413" lon="-8.626766977831721">
        <ele>431.76999999999998</ele>
        <time>2025-04-30T12:52:40Z</time>
      </trkpt>
      <trkpt lat="43.125025006011128" lon="-8.630702029913664">
        <ele>422.63999999999999</ele>
        <time>2025-04-30T12:52:52Z</time>
      </trkpt>
      <trkpt lat="43.124281028285623" lon="-8.634252017363906">
        <ele>410.13999999999999</ele>
        <time>2025-04-30T12:53:03Z</time>
      </trkpt>
      <trkpt lat="43.124014986678958" lon="-8.635652968659997">
        <ele>408.22000000000003</ele>
        <time>2025-04-30T12:53:08Z</time>
      </trkpt>
      <trkpt lat="43.1239989772439" lon="-8.635919010266662">
        <ele>407.74000000000001</ele>
        <time>2025-04-30T12:53:09Z</time>
      </trkpt>
      <trkpt lat="43.1239989772439" lon="-8.636187985539436">
        <ele>407.25999999999999</ele>
        <time>2025-04-30T12:53:10Z</time>
      </trkpt>
      <trkpt lat="43.124043988063931" lon="-8.636459978297353">
        <ele>405.81</ele>
        <time>2025-04-30T12:53:11Z</time>
      </trkpt>
      <trkpt lat="43.124092016369104" lon="-8.636719984933734">
        <ele>404.85000000000002</ele>
        <time>2025-04-30T12:53:12Z</time>
      </trkpt>
      <trkpt lat="43.124140966683626" lon="-8.636983009055257">
        <ele>403.88999999999999</ele>
        <time>2025-04-30T12:53:13Z</time>
      </trkpt>
      <trkpt lat="43.124183965846896" lon="-8.637250978499651">
        <ele>402.44999999999999</ele>
        <time>2025-04-30T12:53:14Z</time>
      </trkpt>
      <trkpt lat="43.124308018013835" lon="-8.638527961447835">
        <ele>399.07999999999998</ele>
        <time>2025-04-30T12:53:19Z</time>
      </trkpt>
      <trkpt lat="43.124309023842216" lon="-8.63875200971961">
        <ele>398.60000000000002</ele>
        <time>2025-04-30T12:53:20Z</time>
      </trkpt>
      <trkpt lat="43.12425697222352" lon="-8.638944961130619">
        <ele>398.12</ele>
        <time>2025-04-30T12:53:21Z</time>
      </trkpt>
      <trkpt lat="43.124162005260587" lon="-8.639152999967337">
        <ele>397.16000000000003</ele>
        <time>2025-04-30T12:53:22Z</time>
      </trkpt>
      <trkpt lat="43.124065026640892" lon="-8.639366989955306">
        <ele>396.19999999999999</ele>
        <time>2025-04-30T12:53:23Z</time>
      </trkpt>
      <trkpt lat="43.123941980302334" lon="-8.639574022963643">
        <ele>395.24000000000001</ele>
        <time>2025-04-30T12:53:24Z</time>
      </trkpt>
      <trkpt lat="43.123664036393166" lon="-8.639985993504524">
        <ele>392.36000000000001</ele>
        <time>2025-04-30T12:53:26Z</time>
      </trkpt>
      <trkpt lat="43.123501008376479" lon="-8.640171987935901">
        <ele>390.91000000000003</ele>
        <time>2025-04-30T12:53:27Z</time>
      </trkpt>
      <trkpt lat="43.122232994064689" lon="-8.641440002247691">
        <ele>380.33999999999997</ele>
        <time>2025-04-30T12:53:35Z</time>
      </trkpt>
      <trkpt lat="43.120949976146221" lon="-8.642724025994539">
        <ele>375.05000000000001</ele>
        <time>2025-04-30T12:53:43Z</time>
      </trkpt>
      <trkpt lat="43.118424005806446" lon="-8.645228035748005">
        <ele>366.88</ele>
        <time>2025-04-30T12:53:57Z</time>
      </trkpt>
      <trkpt lat="43.117098994553089" lon="-8.64668196067214">
        <ele>369.27999999999997</ele>
        <time>2025-04-30T12:54:05Z</time>
      </trkpt>
      <trkpt lat="43.116372032091022" lon="-8.648124989122152">
        <ele>368.31999999999999</ele>
        <time>2025-04-30T12:54:11Z</time>
      </trkpt>
      <trkpt lat="43.116340013220906" lon="-8.648318024352193">
        <ele>368.31999999999999</ele>
        <time>2025-04-30T12:54:12Z</time>
      </trkpt>
      <trkpt lat="43.116345964372158" lon="-8.648512987419963">
        <ele>368.80000000000001</ele>
        <time>2025-04-30T12:54:13Z</time>
      </trkpt>
      <trkpt lat="43.116350993514061" lon="-8.648713985458016">
        <ele>369.27999999999997</ele>
        <time>2025-04-30T12:54:14Z</time>
      </trkpt>
      <trkpt lat="43.116357028484344" lon="-8.648926969617605">
        <ele>369.75999999999999</ele>
        <time>2025-04-30T12:54:15Z</time>
      </trkpt>
      <trkpt lat="43.116319980472326" lon="-8.649145988747478">
        <ele>370.24000000000001</ele>
        <time>2025-04-30T12:54:16Z</time>
      </trkpt>
      <trkpt lat="43.116246974095702" lon="-8.649354027584195">
        <ele>370.73000000000002</ele>
        <time>2025-04-30T12:54:17Z</time>
      </trkpt>
      <trkpt lat="43.116170028224587" lon="-8.64955997094512">
        <ele>371.69</ele>
        <time>2025-04-30T12:54:18Z</time>
      </trkpt>
      <trkpt lat="43.11607195995748" lon="-8.64975300617516">
        <ele>372.17000000000002</ele>
        <time>2025-04-30T12:54:19Z</time>
      </trkpt>
      <trkpt lat="43.115959977731109" lon="-8.649942018091679">
        <ele>373.13</ele>
        <time>2025-04-30T12:54:20Z</time>
      </trkpt>
      <trkpt lat="43.115850007161498" lon="-8.650129018351436">
        <ele>374.08999999999997</ele>
        <time>2025-04-30T12:54:21Z</time>
      </trkpt>
      <trkpt lat="43.115777000784874" lon="-8.650351976975799">
        <ele>375.05000000000001</ele>
        <time>2025-04-30T12:54:22Z</time>
      </trkpt>
      <trkpt lat="43.115738024935126" lon="-8.650585999712348">
        <ele>376.00999999999999</ele>
        <time>2025-04-30T12:54:23Z</time>
      </trkpt>
      <trkpt lat="43.115729978308082" lon="-8.650837037712336">
        <ele>376.97000000000003</ele>
        <time>2025-04-30T12:54:24Z</time>
      </trkpt>
      <trkpt lat="43.115721009671688" lon="-8.651104001328349">
        <ele>377.94</ele>
        <time>2025-04-30T12:54:25Z</time>
      </trkpt>
      <trkpt lat="43.115692008286715" lon="-8.651380017399788">
        <ele>378.89999999999998</ele>
        <time>2025-04-30T12:54:26Z</time>
      </trkpt>
      <trkpt lat="43.115644985809922" lon="-8.651649998500943">
        <ele>379.86000000000001</ele>
        <time>2025-04-30T12:54:27Z</time>
      </trkpt>
      <trkpt lat="43.11559896916151" lon="-8.65192199125886">
        <ele>380.81999999999999</ele>
        <time>2025-04-30T12:54:28Z</time>
      </trkpt>
      <trkpt lat="43.115077028051019" lon="-8.654527002945542">
        <ele>389.94999999999999</ele>
        <time>2025-04-30T12:54:38Z</time>
      </trkpt>
      <trkpt lat="43.115012990310788" lon="-8.654771000146866">
        <ele>390.43000000000001</ele>
        <time>2025-04-30T12:54:39Z</time>
      </trkpt>
      <trkpt lat="43.114937972277403" lon="-8.655017009004951">
        <ele>391.38999999999999</ele>
        <time>2025-04-30T12:54:40Z</time>
      </trkpt>
      <trkpt lat="43.114824984222651" lon="-8.655262012034655">
        <ele>391.87</ele>
        <time>2025-04-30T12:54:41Z</time>
      </trkpt>
      <trkpt lat="43.114679977297783" lon="-8.655486982315779">
        <ele>392.83999999999997</ele>
        <time>2025-04-30T12:54:42Z</time>
      </trkpt>
      <trkpt lat="43.113195961341262" lon="-8.657777002081275">
        <ele>392.83999999999997</ele>
        <time>2025-04-30T12:54:51Z</time>
      </trkpt>
      <trkpt lat="43.112060967832804" lon="-8.659538961946964">
        <ele>398.12</ele>
        <time>2025-04-30T12:54:58Z</time>
      </trkpt>
      <trkpt lat="43.110788008198142" lon="-8.661491023376584">
        <ele>400.52999999999997</ele>
        <time>2025-04-30T12:55:07Z</time>
      </trkpt>
      <trkpt lat="43.10972903855145" lon="-8.663129014894366">
        <ele>402.44999999999999</ele>
        <time>2025-04-30T12:55:17Z</time>
      </trkpt>
      <trkpt lat="43.108779033645988" lon="-8.6646400205791">
        <ele>403.88999999999999</ele>
        <time>2025-04-30T12:55:28Z</time>
      </trkpt>
      <trkpt lat="43.107937993481755" lon="-8.66605899296701">
        <ele>406.29000000000002</ele>
        <time>2025-04-30T12:55:37Z</time>
      </trkpt>
      <trkpt lat="43.106720019131899" lon="-8.668140973895788">
        <ele>408.22000000000003</ele>
        <time>2025-04-30T12:55:47Z</time>
      </trkpt>
      <trkpt lat="43.105072975158691" lon="-8.670923011377454">
        <ele>413.5</ele>
        <time>2025-04-30T12:55:59Z</time>
      </trkpt>
      <trkpt lat="43.104192037135363" lon="-8.673232980072498">
        <ele>414.47000000000003</ele>
        <time>2025-04-30T12:56:07Z</time>
      </trkpt>
      <trkpt lat="43.10285503976047" lon="-8.676925962790847">
        <ele>401.49000000000001</ele>
        <time>2025-04-30T12:56:19Z</time>
      </trkpt>
      <trkpt lat="43.101753992959857" lon="-8.679931964725256">
        <ele>390.43000000000001</ele>
        <time>2025-04-30T12:56:29Z</time>
      </trkpt>
      <trkpt lat="43.101110011339188" lon="-8.681697025895119">
        <ele>388.50999999999999</ele>
        <time>2025-04-30T12:56:36Z</time>
      </trkpt>
      <trkpt lat="43.100612964481115" lon="-8.683102000504732">
        <ele>389.47000000000003</ele>
        <time>2025-04-30T12:56:44Z</time>
      </trkpt>
      <trkpt lat="43.100571976974607" lon="-8.683219011873007">
        <ele>389.94999999999999</ele>
        <time>2025-04-30T12:56:45Z</time>
      </trkpt>
      <trkpt lat="43.100502993911505" lon="-8.683425961062312">
        <ele>391.38999999999999</ele>
        <time>2025-04-30T12:56:47Z</time>
      </trkpt>
      <trkpt lat="43.100396040827036" lon="-8.683598041534424">
        <ele>392.36000000000001</ele>
        <time>2025-04-30T12:56:48Z</time>
      </trkpt>
      <trkpt lat="43.100390005856752" lon="-8.683603992685676">
        <ele>392.83999999999997</ele>
        <time>2025-04-30T12:56:49Z</time>
      </trkpt>
      <trkpt lat="43.10029998421669" lon="-8.683686973527074">
        <ele>393.31999999999999</ele>
        <time>2025-04-30T12:56:50Z</time>
      </trkpt>
      <trkpt lat="43.100180961191654" lon="-8.68372100405395">
        <ele>393.80000000000001</ele>
        <time>2025-04-30T12:56:51Z</time>
      </trkpt>
      <trkpt lat="43.100040983408689" lon="-8.683727039024234">
        <ele>394.27999999999997</ele>
        <time>2025-04-30T12:56:52Z</time>
      </trkpt>
      <trkpt lat="43.09989295899868" lon="-8.683727039024234">
        <ele>395.24000000000001</ele>
        <time>2025-04-30T12:56:53Z</time>
      </trkpt>
      <trkpt lat="43.098288998007774" lon="-8.683715974912047">
        <ele>406.76999999999998</ele>
        <time>2025-04-30T12:57:03Z</time>
      </trkpt>
      <trkpt lat="43.097102958709002" lon="-8.683626959100366">
        <ele>416.38999999999999</ele>
        <time>2025-04-30T12:57:10Z</time>
      </trkpt>
      <trkpt lat="43.096941020339727" lon="-8.683554958552122">
        <ele>418.31</ele>
        <time>2025-04-30T12:57:11Z</time>
      </trkpt>
      <trkpt lat="43.096800036728382" lon="-8.683451022952795">
        <ele>419.75</ele>
        <time>2025-04-30T12:57:12Z</time>
      </trkpt>
      <trkpt lat="43.096248004585505" lon="-8.683093031868339">
        <ele>424.07999999999998</ele>
        <time>2025-04-30T12:57:16Z</time>
      </trkpt>
      <trkpt lat="43.09610903263092" lon="-8.683051960542798">
        <ele>425.51999999999998</ele>
        <time>2025-04-30T12:57:17Z</time>
      </trkpt>
      <trkpt lat="43.095971988514066" lon="-8.68303301744163">
        <ele>426.48000000000002</ele>
        <time>2025-04-30T12:57:18Z</time>
      </trkpt>
      <trkpt lat="43.095846008509398" lon="-8.683105017989874">
        <ele>427.92000000000002</ele>
        <time>2025-04-30T12:57:19Z</time>
      </trkpt>
      <trkpt lat="43.095713993534446" lon="-8.68318104185164">
        <ele>428.88999999999999</ele>
        <time>2025-04-30T12:57:20Z</time>
      </trkpt>
      <trkpt lat="43.095612991601229" lon="-8.683331999927759">
        <ele>429.85000000000002</ele>
        <time>2025-04-30T12:57:21Z</time>
      </trkpt>
      <trkpt lat="43.095519030466676" lon="-8.683493016287684">
        <ele>431.29000000000002</ele>
        <time>2025-04-30T12:57:22Z</time>
      </trkpt>
      <trkpt lat="43.09542297385633" lon="-8.68365696631372">
        <ele>432.25</ele>
        <time>2025-04-30T12:57:23Z</time>
      </trkpt>
      <trkpt lat="43.095330018550158" lon="-8.683814965188503">
        <ele>433.20999999999998</ele>
        <time>2025-04-30T12:57:24Z</time>
      </trkpt>
      <trkpt lat="43.095246031880379" lon="-8.683985034003854">
        <ele>434.64999999999998</ele>
        <time>2025-04-30T12:57:25Z</time>
      </trkpt>
      <trkpt lat="43.09522801078856" lon="-8.684159964323044">
        <ele>435.61000000000001</ele>
        <time>2025-04-30T12:57:26Z</time>
      </trkpt>
      <trkpt lat="43.095264974981546" lon="-8.684331038966775">
        <ele>437.06</ele>
        <time>2025-04-30T12:57:27Z</time>
      </trkpt>
      <trkpt lat="43.095309985801578" lon="-8.684477973729372">
        <ele>438.01999999999998</ele>
        <time>2025-04-30T12:57:28Z</time>
      </trkpt>
      <trkpt lat="43.095419034361839" lon="-8.684621974825859">
        <ele>438.5</ele>
        <time>2025-04-30T12:57:29Z</time>
      </trkpt>
      <trkpt lat="43.095527999103069" lon="-8.684768993407488">
        <ele>439.45999999999998</ele>
        <time>2025-04-30T12:57:30Z</time>
      </trkpt>
      <trkpt lat="43.096024040132761" lon="-8.68537500500679">
        <ele>443.79000000000002</ele>
        <time>2025-04-30T12:57:34Z</time>
      </trkpt>
      <trkpt lat="43.096142979338765" lon="-8.685500985011458">
        <ele>444.75</ele>
        <time>2025-04-30T12:57:35Z</time>
      </trkpt>
      <trkpt lat="43.096283040940762" lon="-8.68556896224618">
        <ele>445.70999999999998</ele>
        <time>2025-04-30T12:57:36Z</time>
      </trkpt>
      <trkpt lat="43.096443973481655" lon="-8.685601986944675">
        <ele>446.67000000000002</ele>
        <time>2025-04-30T12:57:37Z</time>
      </trkpt>
      <trkpt lat="43.096618987619877" lon="-8.685637023299933">
        <ele>447.63</ele>
        <time>2025-04-30T12:57:38Z</time>
      </trkpt>
      <trkpt lat="43.09677598066628" lon="-8.685642974451184">
        <ele>448.58999999999997</ele>
        <time>2025-04-30T12:57:39Z</time>
      </trkpt>
      <trkpt lat="43.09707798063755" lon="-8.68565496057272">
        <ele>451</ele>
        <time>2025-04-30T12:57:41Z</time>
      </trkpt>
      <trkpt lat="43.097208989784122" lon="-8.685694020241499">
        <ele>451.95999999999998</ele>
        <time>2025-04-30T12:57:42Z</time>
      </trkpt>
      <trkpt lat="43.097309991717339" lon="-8.685787981376052">
        <ele>452.92000000000002</ele>
        <time>2025-04-30T12:57:43Z</time>
      </trkpt>
      <trkpt lat="43.097370006144047" lon="-8.685894012451172">
        <ele>453.88</ele>
        <time>2025-04-30T12:57:44Z</time>
      </trkpt>
      <trkpt lat="43.097387021407485" lon="-8.686065003275871">
        <ele>454.36000000000001</ele>
        <time>2025-04-30T12:57:45Z</time>
      </trkpt>
      <trkpt lat="43.097380986437201" lon="-8.686205986887217">
        <ele>454.83999999999997</ele>
        <time>2025-04-30T12:57:46Z</time>
      </trkpt>
      <trkpt lat="43.097351985052228" lon="-8.686326015740633">
        <ele>455.80000000000001</ele>
        <time>2025-04-30T12:57:47Z</time>
      </trkpt>
      <trkpt lat="43.097266992554069" lon="-8.686440009623766">
        <ele>456.27999999999997</ele>
        <time>2025-04-30T12:57:48Z</time>
      </trkpt>
      <trkpt lat="43.097176970914006" lon="-8.686559032648802">
        <ele>457.24000000000001</ele>
        <time>2025-04-30T12:57:49Z</time>
      </trkpt>
      <trkpt lat="43.09707404114306" lon="-8.686559032648802">
        <ele>457.72000000000003</ele>
        <time>2025-04-30T12:57:50Z</time>
      </trkpt>
      <trkpt lat="43.096933979541063" lon="-8.686559032648802">
        <ele>458.69</ele>
        <time>2025-04-30T12:57:51Z</time>
      </trkpt>
      <trkpt lat="43.096781009808183" lon="-8.686509998515248">
        <ele>459.64999999999998</ele>
        <time>2025-04-30T12:57:52Z</time>
      </trkpt>
      <trkpt lat="43.096613036468625" lon="-8.686439003795385">
        <ele>460.13</ele>
        <time>2025-04-30T12:57:53Z</time>
      </trkpt>
      <trkpt lat="43.095784988254309" lon="-8.686140021309257">
        <ele>463.00999999999999</ele>
        <time>2025-04-30T12:57:58Z</time>
      </trkpt>
      <trkpt lat="43.095642998814583" lon="-8.686181008815765">
        <ele>463.97000000000003</ele>
        <time>2025-04-30T12:57:59Z</time>
      </trkpt>
      <trkpt lat="43.095495980232954" lon="-8.686258960515261">
        <ele>464.93000000000001</ele>
        <time>2025-04-30T12:58:00Z</time>
      </trkpt>
      <trkpt lat="43.094469029456377" lon="-8.68690000846982">
        <ele>471.66000000000003</ele>
        <time>2025-04-30T12:58:06Z</time>
      </trkpt>
      <trkpt lat="43.093495974317193" lon="-8.687836015596986">
        <ele>480.80000000000001</ele>
        <time>2025-04-30T12:58:12Z</time>
      </trkpt>
      <trkpt lat="43.093384997919202" lon="-8.688048999756575">
        <ele>482.24000000000001</ele>
        <time>2025-04-30T12:58:13Z</time>
      </trkpt>
      <trkpt lat="43.093278966844082" lon="-8.688273970037699">
        <ele>483.68000000000001</ele>
        <time>2025-04-30T12:58:14Z</time>
      </trkpt>
      <trkpt lat="43.093193974345922" lon="-8.688517967239022">
        <ele>485.12</ele>
        <time>2025-04-30T12:58:15Z</time>
      </trkpt>
      <trkpt lat="43.093106970191002" lon="-8.688765987753868">
        <ele>487.05000000000001</ele>
        <time>2025-04-30T12:58:16Z</time>
      </trkpt>
      <trkpt lat="43.093018960207701" lon="-8.689017025753856">
        <ele>488.97000000000003</ele>
        <time>2025-04-30T12:58:17Z</time>
      </trkpt>
      <trkpt lat="43.092901026830077" lon="-8.689249958842993">
        <ele>490.41000000000003</ele>
        <time>2025-04-30T12:58:18Z</time>
      </trkpt>
      <trkpt lat="43.09168397448957" lon="-8.691362030804157">
        <ele>502.91000000000003</ele>
        <time>2025-04-30T12:58:27Z</time>
      </trkpt>
      <trkpt lat="43.091413993388414" lon="-8.69182001799345">
        <ele>502.43000000000001</ele>
        <time>2025-04-30T12:58:29Z</time>
      </trkpt>
      <trkpt lat="43.091262029483914" lon="-8.692016992717981">
        <ele>501.94999999999999</ele>
        <time>2025-04-30T12:58:30Z</time>
      </trkpt>
      <trkpt lat="43.091073017567396" lon="-8.692189995199442">
        <ele>501.45999999999998</ele>
        <time>2025-04-30T12:58:31Z</time>
      </trkpt>
      <trkpt lat="43.089054990559816" lon="-8.693920020014048">
        <ele>490.88999999999999</ele>
        <time>2025-04-30T12:58:41Z</time>
      </trkpt>
      <trkpt lat="43.085912028327584" lon="-8.696537017822266">
        <ele>477.43000000000001</ele>
        <time>2025-04-30T12:58:56Z</time>
      </trkpt>
      <trkpt lat="43.083182964473963" lon="-8.698815973475575">
        <ele>463.97000000000003</ele>
        <time>2025-04-30T12:59:09Z</time>
      </trkpt>
      <trkpt lat="43.080789009109139" lon="-8.700778009369969">
        <ele>457.72000000000003</ele>
        <time>2025-04-30T12:59:21Z</time>
      </trkpt>
      <trkpt lat="43.07780203409493" lon="-8.703276989981532">
        <ele>444.75</ele>
        <time>2025-04-30T12:59:36Z</time>
      </trkpt>
      <trkpt lat="43.077474972233176" lon="-8.703606985509396">
        <ele>442.81999999999999</ele>
        <time>2025-04-30T12:59:38Z</time>
      </trkpt>
      <trkpt lat="43.077338011935353" lon="-8.703798009082675">
        <ele>442.33999999999997</ele>
        <time>2025-04-30T12:59:39Z</time>
      </trkpt>
      <trkpt lat="43.077214965596795" lon="-8.704011999070644">
        <ele>441.38</ele>
        <time>2025-04-30T12:59:40Z</time>
      </trkpt>
      <trkpt lat="43.077121004462242" lon="-8.704247027635574">
        <ele>441.38</ele>
        <time>2025-04-30T12:59:41Z</time>
      </trkpt>
      <trkpt lat="43.07705202139914" lon="-8.704510973766446">
        <ele>440.89999999999998</ele>
        <time>2025-04-30T12:59:42Z</time>
      </trkpt>
      <trkpt lat="43.076989995315671" lon="-8.704780032858253">
        <ele>440.89999999999998</ele>
        <time>2025-04-30T12:59:43Z</time>
      </trkpt>
      <trkpt lat="43.076953031122684" lon="-8.705057976767421">
        <ele>440.89999999999998</ele>
        <time>2025-04-30T12:59:44Z</time>
      </trkpt>
      <trkpt lat="43.076919000595808" lon="-8.705346984788775">
        <ele>440.89999999999998</ele>
        <time>2025-04-30T12:59:45Z</time>
      </trkpt>
      <trkpt lat="43.076563021168113" lon="-8.708763029426336">
        <ele>433.20999999999998</ele>
        <time>2025-04-30T12:59:56Z</time>
      </trkpt>
      <trkpt lat="43.076073015108705" lon="-8.710503028705716">
        <ele>428.39999999999998</ele>
        <time>2025-04-30T13:00:02Z</time>
      </trkpt>
      <trkpt lat="43.074791003018618" lon="-8.713901974260807">
        <ele>424.07999999999998</ele>
        <time>2025-04-30T13:00:14Z</time>
      </trkpt>
      <trkpt lat="43.073680987581611" lon="-8.716757018119097">
        <ele>412.54000000000002</ele>
        <time>2025-04-30T13:00:24Z</time>
      </trkpt>
      <trkpt lat="43.07279602624476" lon="-8.719068998470902">
        <ele>397.16000000000003</ele>
        <time>2025-04-30T13:00:34Z</time>
      </trkpt>
      <trkpt lat="43.072171993553638" lon="-8.720720987766981">
        <ele>391.87</ele>
        <time>2025-04-30T13:00:43Z</time>
      </trkpt>
      <trkpt lat="43.071362972259521" lon="-8.72282300144434">
        <ele>388.99000000000001</ele>
        <time>2025-04-30T13:00:55Z</time>
      </trkpt>
      <trkpt lat="43.070508018136024" lon="-8.7241530418396">
        <ele>382.74000000000001</ele>
        <time>2025-04-30T13:01:04Z</time>
      </trkpt>
      <trkpt lat="43.069356009364128" lon="-8.725665975362063">
        <ele>376.97000000000003</ele>
        <time>2025-04-30T13:01:15Z</time>
      </trkpt>
      <trkpt lat="43.068302990868688" lon="-8.727064998820424">
        <ele>373.13</ele>
        <time>2025-04-30T13:01:25Z</time>
      </trkpt>
      <trkpt lat="43.067097002640367" lon="-8.728633001446724">
        <ele>367.83999999999997</ele>
        <time>2025-04-30T13:01:34Z</time>
      </trkpt>
      <trkpt lat="43.0651939753443" lon="-8.731133993715048">
        <ele>358.23000000000002</ele>
        <time>2025-04-30T13:01:46Z</time>
      </trkpt>
      <trkpt lat="43.064380008727312" lon="-8.732375018298626">
        <ele>358.23000000000002</ele>
        <time>2025-04-30T13:01:52Z</time>
      </trkpt>
      <trkpt lat="43.064260985702276" lon="-8.732628989964724">
        <ele>357.75</ele>
        <time>2025-04-30T13:01:53Z</time>
      </trkpt>
      <trkpt lat="43.063482977449894" lon="-8.734983969479799">
        <ele>357.26999999999998</ele>
        <time>2025-04-30T13:02:01Z</time>
      </trkpt>
      <trkpt lat="43.062629029154778" lon="-8.737521003931761">
        <ele>362.06999999999999</ele>
        <time>2025-04-30T13:02:10Z</time>
      </trkpt>
      <trkpt lat="43.06171297095716" lon="-8.740268005058169">
        <ele>366.88</ele>
        <time>2025-04-30T13:02:20Z</time>
      </trkpt>
      <trkpt lat="43.061092961579561" lon="-8.742133984342217">
        <ele>371.69</ele>
        <time>2025-04-30T13:02:28Z</time>
      </trkpt>
      <trkpt lat="43.060686020180583" lon="-8.743337038904429">
        <ele>376.49000000000001</ele>
        <time>2025-04-30T13:02:36Z</time>
      </trkpt>
      <trkpt lat="43.060584012418985" lon="-8.743639960885048">
        <ele>376.97000000000003</ele>
        <time>2025-04-30T13:02:38Z</time>
      </trkpt>
      <trkpt lat="43.060320988297462" lon="-8.744183024391532">
        <ele>377.94</ele>
        <time>2025-04-30T13:02:42Z</time>
      </trkpt>
      <trkpt lat="43.060152009129524" lon="-8.744409000501037">
        <ele>377.94</ele>
        <time>2025-04-30T13:02:44Z</time>
      </trkpt>
      <trkpt lat="43.06005796417594" lon="-8.744510002434254">
        <ele>377.94</ele>
        <time>2025-04-30T13:02:45Z</time>
      </trkpt>
      <trkpt lat="43.05996903218329" lon="-8.744620978832245">
        <ele>377.94</ele>
        <time>2025-04-30T13:02:46Z</time>
      </trkpt>
      <trkpt lat="43.058797996491194" lon="-8.745642984285951">
        <ele>382.25999999999999</ele>
        <time>2025-04-30T13:02:56Z</time>
      </trkpt>
      <trkpt lat="43.057373994961381" lon="-8.746899012476206">
        <ele>391.38999999999999</ele>
        <time>2025-04-30T13:03:05Z</time>
      </trkpt>
      <trkpt lat="43.056607972830534" lon="-8.747652964666486">
        <ele>395.72000000000003</ele>
        <time>2025-04-30T13:03:10Z</time>
      </trkpt>
      <trkpt lat="43.05648903362453" lon="-8.74781004153192">
        <ele>396.19999999999999</ele>
        <time>2025-04-30T13:03:11Z</time>
      </trkpt>
      <trkpt lat="43.056404963135719" lon="-8.74800399877131">
        <ele>396.68000000000001</ele>
        <time>2025-04-30T13:03:12Z</time>
      </trkpt>
      <trkpt lat="43.056350983679295" lon="-8.748211031779647">
        <ele>397.16000000000003</ele>
        <time>2025-04-30T13:03:13Z</time>
      </trkpt>
      <trkpt lat="43.056322988122702" lon="-8.748442037031055">
        <ele>397.63999999999999</ele>
        <time>2025-04-30T13:03:14Z</time>
      </trkpt>
      <trkpt lat="43.056292980909348" lon="-8.748684022575617">
        <ele>397.63999999999999</ele>
        <time>2025-04-30T13:03:15Z</time>
      </trkpt>
      <trkpt lat="43.05601897649467" lon="-8.751193983480334">
        <ele>396.68000000000001</ele>
        <time>2025-04-30T13:03:25Z</time>
      </trkpt>
      <trkpt lat="43.055745977908373" lon="-8.753937967121601">
        <ele>394.27999999999997</ele>
        <time>2025-04-30T13:03:36Z</time>
      </trkpt>
      <trkpt lat="43.055763999000192" lon="-8.754223035648465">
        <ele>393.31999999999999</ele>
        <time>2025-04-30T13:03:37Z</time>
      </trkpt>
      <trkpt lat="43.055789982900023" lon="-8.754507014527917">
        <ele>392.36000000000001</ele>
        <time>2025-04-30T13:03:38Z</time>
      </trkpt>
      <trkpt lat="43.055823007598519" lon="-8.754789987578988">
        <ele>391.38999999999999</ele>
        <time>2025-04-30T13:03:39Z</time>
      </trkpt>
      <trkpt lat="43.056214023381472" lon="-8.757411008700728">
        <ele>381.30000000000001</ele>
        <time>2025-04-30T13:03:48Z</time>
      </trkpt>
      <trkpt lat="43.056214023381472" lon="-8.757700016722083">
        <ele>379.86000000000001</ele>
        <time>2025-04-30T13:03:49Z</time>
      </trkpt>
      <trkpt lat="43.056184016168118" lon="-8.757982989773154">
        <ele>378.89999999999998</ele>
        <time>2025-04-30T13:03:50Z</time>
      </trkpt>
      <trkpt lat="43.056135987862945" lon="-8.758266968652606">
        <ele>377.44999999999999</ele>
        <time>2025-04-30T13:03:51Z</time>
      </trkpt>
      <trkpt lat="43.056054012849927" lon="-8.758536027744412">
        <ele>376.00999999999999</ele>
        <time>2025-04-30T13:03:52Z</time>
      </trkpt>
      <trkpt lat="43.055880004540086" lon="-8.75904799439013">
        <ele>374.08999999999997</ele>
        <time>2025-04-30T13:03:54Z</time>
      </trkpt>
      <trkpt lat="43.055771039798856" lon="-8.75928302295506">
        <ele>373.13</ele>
        <time>2025-04-30T13:03:55Z</time>
      </trkpt>
      <trkpt lat="43.055661991238594" lon="-8.759518973529339">
        <ele>372.17000000000002</ele>
        <time>2025-04-30T13:03:56Z</time>
      </trkpt>
      <trkpt lat="43.054754985496402" lon="-8.760974993929267">
        <ele>370.73000000000002</ele>
        <time>2025-04-30T13:04:03Z</time>
      </trkpt>
      <trkpt lat="43.053968008607626" lon="-8.761844029650092">
        <ele>372.17000000000002</ele>
        <time>2025-04-30T13:04:09Z</time>
      </trkpt>
      <trkpt lat="43.05389097891748" lon="-8.761999011039734">
        <ele>372.17000000000002</ele>
        <time>2025-04-30T13:04:10Z</time>
      </trkpt>
      <trkpt lat="43.053834987804294" lon="-8.762166984379292">
        <ele>372.17000000000002</ele>
        <time>2025-04-30T13:04:11Z</time>
      </trkpt>
      <trkpt lat="43.05384797975421" lon="-8.762369994074106">
        <ele>372.64999999999998</ele>
        <time>2025-04-30T13:04:12Z</time>
      </trkpt>
      <trkpt lat="43.053863989189267" lon="-8.762575015425682">
        <ele>372.64999999999998</ele>
        <time>2025-04-30T13:04:13Z</time>
      </trkpt>
      <trkpt lat="43.053881004452705" lon="-8.762789005413652">
        <ele>373.13</ele>
        <time>2025-04-30T13:04:14Z</time>
      </trkpt>
      <trkpt lat="43.053960967808962" lon="-8.763856021687388">
        <ele>376.00999999999999</ele>
        <time>2025-04-30T13:04:19Z</time>
      </trkpt>
      <trkpt lat="43.053960967808962" lon="-8.764063976705074">
        <ele>376.49000000000001</ele>
        <time>2025-04-30T13:04:20Z</time>
      </trkpt>
      <trkpt lat="43.053948981687427" lon="-8.764274027198553">
        <ele>376.49000000000001</ele>
        <time>2025-04-30T13:04:21Z</time>
      </trkpt>
      <trkpt lat="43.053901959210634" lon="-8.764491034671664">
        <ele>376.97000000000003</ele>
        <time>2025-04-30T13:04:22Z</time>
      </trkpt>
      <trkpt lat="43.053839011117816" lon="-8.764709969982505">
        <ele>377.44999999999999</ele>
        <time>2025-04-30T13:04:23Z</time>
      </trkpt>
      <trkpt lat="43.053394015878439" lon="-8.766257017850876">
        <ele>383.22000000000003</ele>
        <time>2025-04-30T13:04:31Z</time>
      </trkpt>
      <trkpt lat="43.053197041153908" lon="-8.766667982563376">
        <ele>385.63</ele>
        <time>2025-04-30T13:04:34Z</time>
      </trkpt>
      <trkpt lat="43.053129985928535" lon="-8.766784993931651">
        <ele>386.58999999999997</ele>
        <time>2025-04-30T13:04:35Z</time>
      </trkpt>
      <trkpt lat="43.053063014522195" lon="-8.766879038885236">
        <ele>387.55000000000001</ele>
        <time>2025-04-30T13:04:36Z</time>
      </trkpt>
      <trkpt lat="43.052990008145571" lon="-8.766964031383395">
        <ele>388.50999999999999</ele>
        <time>2025-04-30T13:04:37Z</time>
      </trkpt>
      <trkpt lat="43.052918007597327" lon="-8.767048018053174">
        <ele>389.47000000000003</ele>
        <time>2025-04-30T13:04:38Z</time>
      </trkpt>
      <trkpt lat="43.052540989592671" lon="-8.767523020505905">
        <ele>392.83999999999997</ele>
        <time>2025-04-30T13:04:43Z</time>
      </trkpt>
      <trkpt lat="43.052453985437751" lon="-8.767694011330605">
        <ele>393.80000000000001</ele>
        <time>2025-04-30T13:04:44Z</time>
      </trkpt>
      <trkpt lat="43.051674971356988" lon="-8.769200993701816">
        <ele>401.49000000000001</ele>
        <time>2025-04-30T13:04:51Z</time>
      </trkpt>
      <trkpt lat="43.051215978339314" lon="-8.770023006945849">
        <ele>406.76999999999998</ele>
        <time>2025-04-30T13:04:55Z</time>
      </trkpt>
      <trkpt lat="43.051068037748337" lon="-8.770157033577561">
        <ele>408.69999999999999</ele>
        <time>2025-04-30T13:04:56Z</time>
      </trkpt>
      <trkpt lat="43.05090500973165" lon="-8.770264992490411">
        <ele>409.66000000000003</ele>
        <time>2025-04-30T13:04:57Z</time>
      </trkpt>
      <trkpt lat="43.05073200725019" lon="-8.770371023565531">
        <ele>411.10000000000002</ele>
        <time>2025-04-30T13:04:58Z</time>
      </trkpt>
      <trkpt lat="43.050554981455207" lon="-8.770479988306761">
        <ele>412.54000000000002</ele>
        <time>2025-04-30T13:04:59Z</time>
      </trkpt>
      <trkpt lat="43.049260983243585" lon="-8.770922971889377">
        <ele>420.23000000000002</ele>
        <time>2025-04-30T13:05:06Z</time>
      </trkpt>
      <trkpt lat="43.048962000757456" lon="-8.77099497243762">
        <ele>421.19</ele>
        <time>2025-04-30T13:05:08Z</time>
      </trkpt>
      <trkpt lat="43.048834009096026" lon="-8.771091029047966">
        <ele>422.16000000000003</ele>
        <time>2025-04-30T13:05:09Z</time>
      </trkpt>
      <trkpt lat="43.048744993284345" lon="-8.771203011274338">
        <ele>422.63999999999999</ele>
        <time>2025-04-30T13:05:10Z</time>
      </trkpt>
      <trkpt lat="43.048680033534765" lon="-8.771334020420909">
        <ele>423.60000000000002</ele>
        <time>2025-04-30T13:05:11Z</time>
      </trkpt>
      <trkpt lat="43.048661006614566" lon="-8.771475004032254">
        <ele>424.07999999999998</ele>
        <time>2025-04-30T13:05:12Z</time>
      </trkpt>
      <trkpt lat="43.048661006614566" lon="-8.77163702622056">
        <ele>424.56</ele>
        <time>2025-04-30T13:05:13Z</time>
      </trkpt>
      <trkpt lat="43.048661006614566" lon="-8.7718749884516">
        <ele>425.04000000000002</ele>
        <time>2025-04-30T13:05:14Z</time>
      </trkpt>
      <trkpt lat="43.04869101382792" lon="-8.772007003426552">
        <ele>425.51999999999998</ele>
        <time>2025-04-30T13:05:15Z</time>
      </trkpt>
      <trkpt lat="43.049020003527403" lon="-8.773593027144671">
        <ele>430.81</ele>
        <time>2025-04-30T13:05:22Z</time>
      </trkpt>
      <trkpt lat="43.049081023782492" lon="-8.774565998464823">
        <ele>435.13</ele>
        <time>2025-04-30T13:05:26Z</time>
      </trkpt>
      <trkpt lat="43.049040958285332" lon="-8.774782000109553">
        <ele>436.10000000000002</ele>
        <time>2025-04-30T13:05:27Z</time>
      </trkpt>
      <trkpt lat="43.048999970778823" lon="-8.775000013411045">
        <ele>436.57999999999998</ele>
        <time>2025-04-30T13:05:28Z</time>
      </trkpt>
      <trkpt lat="43.048944985494018" lon="-8.77520696260035">
        <ele>437.54000000000002</ele>
        <time>2025-04-30T13:05:29Z</time>
      </trkpt>
      <trkpt lat="43.048841971904039" lon="-8.775387005880475">
        <ele>438.01999999999998</ele>
        <time>2025-04-30T13:05:30Z</time>
      </trkpt>
      <trkpt lat="43.048727978020906" lon="-8.775576017796993">
        <ele>438.98000000000002</ele>
        <time>2025-04-30T13:05:31Z</time>
      </trkpt>
      <trkpt lat="43.048110986128449" lon="-8.77651303075254">
        <ele>438.98000000000002</ele>
        <time>2025-04-30T13:05:36Z</time>
      </trkpt>
      <trkpt lat="43.047976959496737" lon="-8.776632975786924">
        <ele>438.5</ele>
        <time>2025-04-30T13:05:37Z</time>
      </trkpt>
      <trkpt lat="43.047837987542152" lon="-8.776741018518806">
        <ele>437.54000000000002</ele>
        <time>2025-04-30T13:05:38Z</time>
      </trkpt>
      <trkpt lat="43.047680994495749" lon="-8.776789968833327">
        <ele>436.57999999999998</ele>
        <time>2025-04-30T13:05:39Z</time>
      </trkpt>
      <trkpt lat="43.047502962872386" lon="-8.776823999360204">
        <ele>435.61000000000001</ele>
        <time>2025-04-30T13:05:40Z</time>
      </trkpt>
      <trkpt lat="43.047315962612629" lon="-8.776820981875062">
        <ele>434.64999999999998</ele>
        <time>2025-04-30T13:05:41Z</time>
      </trkpt>
      <trkpt lat="43.047118987888098" lon="-8.776806984096766">
        <ele>433.69</ele>
        <time>2025-04-30T13:05:42Z</time>
      </trkpt>
      <trkpt lat="43.046537032350898" lon="-8.7768570240587">
        <ele>430.32999999999998</ele>
        <time>2025-04-30T13:05:45Z</time>
      </trkpt>
      <trkpt lat="43.046357994899154" lon="-8.776892982423306">
        <ele>428.88999999999999</ele>
        <time>2025-04-30T13:05:46Z</time>
      </trkpt>
      <trkpt lat="43.046203013509512" lon="-8.776993984356523">
        <ele>427.44</ele>
        <time>2025-04-30T13:05:47Z</time>
      </trkpt>
      <trkpt lat="43.046064963564277" lon="-8.777089035138488">
        <ele>426</ele>
        <time>2025-04-30T13:05:48Z</time>
      </trkpt>
      <trkpt lat="43.045922974124551" lon="-8.777270000427961">
        <ele>424.56</ele>
        <time>2025-04-30T13:05:49Z</time>
      </trkpt>
      <trkpt lat="43.04579003714025" lon="-8.7774389795959">
        <ele>423.12</ele>
        <time>2025-04-30T13:05:50Z</time>
      </trkpt>
      <trkpt lat="43.045656010508537" lon="-8.777608964592218">
        <ele>421.68000000000001</ele>
        <time>2025-04-30T13:05:51Z</time>
      </trkpt>
      <trkpt lat="43.044731989502907" lon="-8.778975969180465">
        <ele>408.69999999999999</ele>
        <time>2025-04-30T13:05:59Z</time>
      </trkpt>
      <trkpt lat="43.044449016451836" lon="-8.779433034360409">
        <ele>405.32999999999998</ele>
        <time>2025-04-30T13:06:02Z</time>
      </trkpt>
      <trkpt lat="43.044391013681889" lon="-8.779578041285276">
        <ele>404.37</ele>
        <time>2025-04-30T13:06:03Z</time>
      </trkpt>
      <trkpt lat="43.044371986761689" lon="-8.779784990474582">
        <ele>403.41000000000003</ele>
        <time>2025-04-30T13:06:04Z</time>
      </trkpt>
      <trkpt lat="43.04435396566987" lon="-8.779971990734339">
        <ele>402.44999999999999</ele>
        <time>2025-04-30T13:06:05Z</time>
      </trkpt>
      <trkpt lat="43.044336028397083" lon="-8.780167037621141">
        <ele>401.49000000000001</ele>
        <time>2025-04-30T13:06:06Z</time>
      </trkpt>
      <trkpt lat="43.044249024242163" lon="-8.780741030350328">
        <ele>399.07999999999998</ele>
        <time>2025-04-30T13:06:09Z</time>
      </trkpt>
      <trkpt lat="43.044186998158693" lon="-8.780907997861505">
        <ele>398.12</ele>
        <time>2025-04-30T13:06:10Z</time>
      </trkpt>
      <trkpt lat="43.044106028974056" lon="-8.781045963987708">
        <ele>397.16000000000003</ele>
        <time>2025-04-30T13:06:11Z</time>
      </trkpt>
      <trkpt lat="43.043991029262543" lon="-8.781164987012744">
        <ele>396.19999999999999</ele>
        <time>2025-04-30T13:06:12Z</time>
      </trkpt>
      <trkpt lat="43.043872006237507" lon="-8.781289039179683">
        <ele>394.75999999999999</ele>
        <time>2025-04-30T13:06:13Z</time>
      </trkpt>
      <trkpt lat="43.043746026232839" lon="-8.781419964507222">
        <ele>393.80000000000001</ele>
        <time>2025-04-30T13:06:14Z</time>
      </trkpt>
      <trkpt lat="43.04263299331069" lon="-8.782549006864429">
        <ele>383.69999999999999</ele>
        <time>2025-04-30T13:06:22Z</time>
      </trkpt>
      <trkpt lat="43.042510030791163" lon="-8.782739024609327">
        <ele>382.74000000000001</ele>
        <time>2025-04-30T13:06:23Z</time>
      </trkpt>
      <trkpt lat="43.042403999716043" lon="-8.782954020425677">
        <ele>381.30000000000001</ele>
        <time>2025-04-30T13:06:24Z</time>
      </trkpt>
      <trkpt lat="43.041234975680709" lon="-8.785526007413864">
        <ele>371.69</ele>
        <time>2025-04-30T13:06:36Z</time>
      </trkpt>
      <trkpt lat="43.04052896797657" lon="-8.787132985889912">
        <ele>374.08999999999997</ele>
        <time>2025-04-30T13:06:46Z</time>
      </trkpt>
      <trkpt lat="43.040081039071083" lon="-8.788154991343617">
        <ele>380.81999999999999</ele>
        <time>2025-04-30T13:06:54Z</time>
      </trkpt>
      <trkpt lat="43.04003200493753" lon="-8.78828801214695">
        <ele>381.77999999999997</ele>
        <time>2025-04-30T13:06:55Z</time>
      </trkpt>
      <trkpt lat="43.03943102248013" lon="-8.789816033095121">
        <ele>381.30000000000001</ele>
        <time>2025-04-30T13:07:04Z</time>
      </trkpt>
      <trkpt lat="43.0384879745543" lon="-8.792184004560113">
        <ele>373.13</ele>
        <time>2025-04-30T13:07:15Z</time>
      </trkpt>
      <trkpt lat="43.03760795854032" lon="-8.794445022940636">
        <ele>373.13</ele>
        <time>2025-04-30T13:07:26Z</time>
      </trkpt>
      <trkpt lat="43.036913014948368" lon="-8.79617596976459">
        <ele>375.52999999999997</ele>
        <time>2025-04-30T13:07:36Z</time>
      </trkpt>
      <trkpt lat="43.036126960068941" lon="-8.798206988722086">
        <ele>379.86000000000001</ele>
        <time>2025-04-30T13:07:50Z</time>
      </trkpt>
      <trkpt lat="43.035421036183834" lon="-8.799969032406807">
        <ele>379.86000000000001</ele>
        <time>2025-04-30T13:08:02Z</time>
      </trkpt>
      <trkpt lat="43.034826004877687" lon="-8.801514990627766">
        <ele>381.77999999999997</ele>
        <time>2025-04-30T13:08:14Z</time>
      </trkpt>
      <trkpt lat="43.034786023199558" lon="-8.801625967025757">
        <ele>382.25999999999999</ele>
        <time>2025-04-30T13:08:15Z</time>
      </trkpt>
      <trkpt lat="43.034685021266341" lon="-8.80186703056097">
        <ele>382.25999999999999</ele>
        <time>2025-04-30T13:08:21Z</time>
      </trkpt>
      <trkpt lat="43.034685021266341" lon="-8.80186703056097">
        <ele>382.25999999999999</ele>
        <time>2025-04-30T13:08:51Z</time>
      </trkpt>
      <trkpt lat="43.034685021266341" lon="-8.80186703056097">
        <ele>382.25999999999999</ele>
        <time>2025-04-30T13:09:34Z</time>
      </trkpt>
      <trkpt lat="43.034685021266341" lon="-8.80186703056097">
        <ele>382.25999999999999</ele>
        <time>2025-04-30T13:10:20Z</time>
      </trkpt>
      <trkpt lat="43.034550994634628" lon="-8.802183028310537">
        <ele>382.74000000000001</ele>
        <time>2025-04-30T13:10:28Z</time>
      </trkpt>
      <trkpt lat="43.034208007156849" lon="-8.803065977990627">
        <ele>382.74000000000001</ele>
        <time>2025-04-30T13:10:38Z</time>
      </trkpt>
      <trkpt lat="43.033981025218964" lon="-8.803618010133505">
        <ele>384.18000000000001</ele>
        <time>2025-04-30T13:10:48Z</time>
      </trkpt>
      <trkpt lat="43.033926039934158" lon="-8.803751030936837">
        <ele>383.69999999999999</ele>
        <time>2025-04-30T13:11:00Z</time>
      </trkpt>
      <trkpt lat="43.033856973052025" lon="-8.803935013711453">
        <ele>382.25999999999999</ele>
        <time>2025-04-30T13:11:09Z</time>
      </trkpt>
      <trkpt lat="43.033837024122477" lon="-8.803988993167877">
        <ele>381.30000000000001</ele>
        <time>2025-04-30T13:11:18Z</time>
      </trkpt>
      <trkpt lat="43.033762006089091" lon="-8.804198959842324">
        <ele>378.42000000000002</ele>
        <time>2025-04-30T13:11:27Z</time>
      </trkpt>
      <trkpt lat="43.033627979457378" lon="-8.804545970633626">
        <ele>378.42000000000002</ele>
        <time>2025-04-30T13:11:32Z</time>
      </trkpt>
      <trkpt lat="43.033642983064055" lon="-8.804845958948135">
        <ele>377.94</ele>
        <time>2025-04-30T13:11:35Z</time>
      </trkpt>
      <trkpt lat="43.033511973917484" lon="-8.80487697198987">
        <ele>377.94</ele>
        <time>2025-04-30T13:11:36Z</time>
      </trkpt>
      <trkpt lat="43.03348096087575" lon="-8.804944027215242">
        <ele>377.94</ele>
        <time>2025-04-30T13:11:37Z</time>
      </trkpt>
      <trkpt lat="43.033012999221683" lon="-8.806092012673616">
        <ele>381.30000000000001</ele>
        <time>2025-04-30T13:11:50Z</time>
      </trkpt>
      <trkpt lat="43.032782999798656" lon="-8.806678997352719">
        <ele>382.25999999999999</ele>
        <time>2025-04-30T13:11:59Z</time>
      </trkpt>
      <trkpt lat="43.032782999798656" lon="-8.806678997352719">
        <ele>382.25999999999999</ele>
        <time>2025-04-30T13:12:31Z</time>
      </trkpt>
      <trkpt lat="43.032782999798656" lon="-8.806678997352719">
        <ele>382.74000000000001</ele>
        <time>2025-04-30T13:13:17Z</time>
      </trkpt>
      <trkpt lat="43.032782999798656" lon="-8.806678997352719">
        <ele>382.74000000000001</ele>
        <time>2025-04-30T13:13:32Z</time>
      </trkpt>
      <trkpt lat="43.032782999798656" lon="-8.806678997352719">
        <ele>382.74000000000001</ele>
        <time>2025-04-30T13:13:33Z</time>
      </trkpt>
      <trkpt lat="43.032737988978624" lon="-8.80672300234437">
        <ele>382.74000000000001</ele>
        <time>2025-04-30T13:13:34Z</time>
      </trkpt>
      <trkpt lat="43.032709993422031" lon="-8.806671034544706">
        <ele>382.74000000000001</ele>
        <time>2025-04-30T13:13:35Z</time>
      </trkpt>
      <trkpt lat="43.032680992037058" lon="-8.806615965440869">
        <ele>383.69999999999999</ele>
        <time>2025-04-30T13:13:36Z</time>
      </trkpt>
      <trkpt lat="43.032646039500833" lon="-8.80655100569129">
        <ele>384.18000000000001</ele>
        <time>2025-04-30T13:13:37Z</time>
      </trkpt>
      <trkpt lat="43.032607985660434" lon="-8.806472970172763">
        <ele>384.18000000000001</ele>
        <time>2025-04-30T13:13:38Z</time>
      </trkpt>
      <trkpt lat="43.032521987333894" lon="-8.806018000468612">
        <ele>387.06999999999999</ele>
        <time>2025-04-30T13:13:45Z</time>
      </trkpt>
      <trkpt lat="43.032517964020371" lon="-8.805995034053922">
        <ele>387.55000000000001</ele>
        <time>2025-04-30T13:13:46Z</time>
      </trkpt>
      <trkpt lat="43.032424002885818" lon="-8.806059993803501">
        <ele>388.02999999999997</ele>
        <time>2025-04-30T13:13:49Z</time>
      </trkpt>
      <trkpt lat="43.032344961538911" lon="-8.806092012673616">
        <ele>388.50999999999999</ele>
        <time>2025-04-30T13:13:51Z</time>
      </trkpt>
      <trkpt lat="43.032219987362623" lon="-8.806172981858254">
        <ele>390.91000000000003</ele>
        <time>2025-04-30T13:13:57Z</time>
      </trkpt>
      <trkpt lat="43.032144969329238" lon="-8.806148003786802">
        <ele>392.36000000000001</ele>
        <time>2025-04-30T13:14:10Z</time>
      </trkpt>
      <trkpt lat="43.031769962981343" lon="-8.806266020983458">
        <ele>387.55000000000001</ele>
        <time>2025-04-30T13:46:29Z</time>
      </trkpt>
      <trkpt lat="43.031711038202047" lon="-8.806237019598484">
        <ele>351.01999999999998</ele>
        <time>2025-04-30T13:46:46Z</time>
      </trkpt>
      <trkpt lat="43.031901977956295" lon="-8.806099975481629">
        <ele>337.07999999999998</ele>
        <time>2025-04-30T13:47:19Z</time>
      </trkpt>
      <trkpt lat="43.031958974897861" lon="-8.806087989360094">
        <ele>331.79000000000002</ele>
        <time>2025-04-30T13:48:00Z</time>
      </trkpt>
      <trkpt lat="43.031952017918229" lon="-8.806072985753417">
        <ele>328.43000000000001</ele>
        <time>2025-04-30T13:48:25Z</time>
      </trkpt>
      <trkpt lat="43.031788989901543" lon="-8.806007020175457">
        <ele>330.82999999999998</ele>
        <time>2025-04-30T13:48:44Z</time>
      </trkpt>
      <trkpt lat="43.031788989901543" lon="-8.806007020175457">
        <ele>330.82999999999998</ele>
        <time>2025-04-30T13:48:57Z</time>
      </trkpt>
      <trkpt lat="43.032199032604694" lon="-8.805736033245921">
        <ele>364</ele>
        <time>2025-04-30T13:49:04Z</time>
      </trkpt>
      <trkpt lat="43.032416962087154" lon="-8.805699991062284">
        <ele>371.69</ele>
        <time>2025-04-30T13:49:09Z</time>
      </trkpt>
      <trkpt lat="43.03247001953423" lon="-8.805740978568792">
        <ele>372.17000000000002</ele>
        <time>2025-04-30T13:49:10Z</time>
      </trkpt>
      <trkpt lat="43.032479993999004" lon="-8.805792024359107">
        <ele>373.13</ele>
        <time>2025-04-30T13:49:11Z</time>
      </trkpt>
      <trkpt lat="43.03249298594892" lon="-8.80586301907897">
        <ele>373.13</ele>
        <time>2025-04-30T13:49:12Z</time>
      </trkpt>
      <trkpt lat="43.032506983727217" lon="-8.805939964950085">
        <ele>373.13</ele>
        <time>2025-04-30T13:49:13Z</time>
      </trkpt>
      <trkpt lat="43.032521987333894" lon="-8.806016994640231">
        <ele>373.13</ele>
        <time>2025-04-30T13:49:14Z</time>
      </trkpt>
      <trkpt lat="43.032709993422031" lon="-8.806671034544706">
        <ele>377.44999999999999</ele>
        <time>2025-04-30T13:49:25Z</time>
      </trkpt>
      <trkpt lat="43.032777970656753" lon="-8.806698024272919">
        <ele>377.44999999999999</ele>
        <time>2025-04-30T13:49:33Z</time>
      </trkpt>
      <trkpt lat="43.032769002020359" lon="-8.806733982637525">
        <ele>377.44999999999999</ele>
        <time>2025-04-30T13:49:34Z</time>
      </trkpt>
      <trkpt lat="43.032761039212346" lon="-8.806764995679259">
        <ele>377.94</ele>
        <time>2025-04-30T13:49:35Z</time>
      </trkpt>
      <trkpt lat="43.032717034220695" lon="-8.806868009269238">
        <ele>377.94</ele>
        <time>2025-04-30T13:49:36Z</time>
      </trkpt>
      <trkpt lat="43.032678980380297" lon="-8.806950990110636">
        <ele>377.44999999999999</ele>
        <time>2025-04-30T13:49:37Z</time>
      </trkpt>
      <trkpt lat="43.032634975388646" lon="-8.807039000093937">
        <ele>377.44999999999999</ele>
        <time>2025-04-30T13:49:38Z</time>
      </trkpt>
      <trkpt lat="43.032145975157619" lon="-8.808156978338957">
        <ele>374.56999999999999</ele>
        <time>2025-04-30T13:49:48Z</time>
      </trkpt>
      <trkpt lat="43.031908012926579" lon="-8.80870096385479">
        <ele>373.13</ele>
        <time>2025-04-30T13:49:53Z</time>
      </trkpt>
      <trkpt lat="43.031857972964644" lon="-8.80880699492991">
        <ele>372.64999999999998</ele>
        <time>2025-04-30T13:49:54Z</time>
      </trkpt>
      <trkpt lat="43.031265959143639" lon="-8.809986999258399">
        <ele>367.83999999999997</ele>
        <time>2025-04-30T13:50:05Z</time>
      </trkpt>
      <trkpt lat="43.031211979687214" lon="-8.810105016455054">
        <ele>367.36000000000001</ele>
        <time>2025-04-30T13:50:06Z</time>
      </trkpt>
      <trkpt lat="43.030304973945022" lon="-8.811956997960806">
        <ele>362.55000000000001</ele>
        <time>2025-04-30T13:50:21Z</time>
      </trkpt>
      <trkpt lat="43.029139973223209" lon="-8.814298985525966">
        <ele>355.82999999999998</ele>
        <time>2025-04-30T13:50:36Z</time>
      </trkpt>
      <trkpt lat="43.027954017743468" lon="-8.81675697863102">
        <ele>347.64999999999998</ele>
        <time>2025-04-30T13:50:49Z</time>
      </trkpt>
      <trkpt lat="43.026726990938187" lon="-8.819211032241583">
        <ele>345.25</ele>
        <time>2025-04-30T13:51:02Z</time>
      </trkpt>
      <trkpt lat="43.025355963036418" lon="-8.821988962590694">
        <ele>346.69</ele>
        <time>2025-04-30T13:51:16Z</time>
      </trkpt>
      <trkpt lat="43.024030029773712" lon="-8.824659017845988">
        <ele>347.17000000000002</ele>
        <time>2025-04-30T13:51:27Z</time>
      </trkpt>
      <trkpt lat="43.022277038544416" lon="-8.828237000852823">
        <ele>349.57999999999998</ele>
        <time>2025-04-30T13:51:41Z</time>
      </trkpt>
      <trkpt lat="43.020994020625949" lon="-8.830900015309453">
        <ele>350.54000000000002</ele>
        <time>2025-04-30T13:51:53Z</time>
      </trkpt>
      <trkpt lat="43.019930021837354" lon="-8.833176959306002">
        <ele>342.37</ele>
        <time>2025-04-30T13:52:03Z</time>
      </trkpt>
      <trkpt lat="43.019229965284467" lon="-8.834086982533336">
        <ele>339.48000000000002</ele>
        <time>2025-04-30T13:52:09Z</time>
      </trkpt>
      <trkpt lat="43.018152974545956" lon="-8.835417022928596">
        <ele>337.07999999999998</ele>
        <time>2025-04-30T13:52:21Z</time>
      </trkpt>
      <trkpt lat="43.016512971371412" lon="-8.837389033287764">
        <ele>339.95999999999998</ele>
        <time>2025-04-30T13:52:39Z</time>
      </trkpt>
      <trkpt lat="43.01560596562922" lon="-8.838483961299062">
        <ele>337.56</ele>
        <time>2025-04-30T13:52:47Z</time>
      </trkpt>
      <trkpt lat="43.014022959396243" lon="-8.84037097916007">
        <ele>334.68000000000001</ele>
        <time>2025-04-30T13:52:57Z</time>
      </trkpt>
      <trkpt lat="43.01191097125411" lon="-8.843130972236395">
        <ele>334.19999999999999</ele>
        <time>2025-04-30T13:53:10Z</time>
      </trkpt>
      <trkpt lat="43.009810969233513" lon="-8.845886019989848">
        <ele>328.91000000000003</ele>
        <time>2025-04-30T13:53:24Z</time>
      </trkpt>
      <trkpt lat="43.00832100212574" lon="-8.847822993993759">
        <ele>326.99000000000001</ele>
        <time>2025-04-30T13:53:33Z</time>
      </trkpt>
      <trkpt lat="43.00642803311348" lon="-8.850306970998645">
        <ele>328.43000000000001</ele>
        <time>2025-04-30T13:53:46Z</time>
      </trkpt>
      <trkpt lat="43.004991039633751" lon="-8.852189965546131">
        <ele>335.16000000000003</ele>
        <time>2025-04-30T13:53:57Z</time>
      </trkpt>
      <trkpt lat="43.002882990986109" lon="-8.854943001642823">
        <ele>337.07999999999998</ele>
        <time>2025-04-30T13:54:13Z</time>
      </trkpt>
      <trkpt lat="43.000746024772525" lon="-8.857760997489095">
        <ele>334.68000000000001</ele>
        <time>2025-04-30T13:54:28Z</time>
      </trkpt>
      <trkpt lat="42.999786967411637" lon="-8.85901702567935">
        <ele>331.79000000000002</ele>
        <time>2025-04-30T13:54:35Z</time>
      </trkpt>
      <trkpt lat="42.998509984463453" lon="-8.860701033845544">
        <ele>324.57999999999998</ele>
        <time>2025-04-30T13:54:44Z</time>
      </trkpt>
      <trkpt lat="42.996788006275892" lon="-8.862991975620389">
        <ele>313.05000000000001</ele>
        <time>2025-04-30T13:54:56Z</time>
      </trkpt>
      <trkpt lat="42.995397029444575" lon="-8.864772040396929">
        <ele>313.05000000000001</ele>
        <time>2025-04-30T13:55:06Z</time>
      </trkpt>
      <trkpt lat="42.994518019258976" lon="-8.865909967571497">
        <ele>316.88999999999999</ele>
        <time>2025-04-30T13:55:13Z</time>
      </trkpt>
      <trkpt lat="42.993713021278381" lon="-8.866998022422195">
        <ele>323.62</ele>
        <time>2025-04-30T13:55:21Z</time>
      </trkpt>
      <trkpt lat="42.992622032761574" lon="-8.868413977324963">
        <ele>325.54000000000002</ele>
        <time>2025-04-30T13:55:32Z</time>
      </trkpt>
      <trkpt lat="42.991382014006376" lon="-8.870021961629391">
        <ele>332.26999999999998</ele>
        <time>2025-04-30T13:55:44Z</time>
      </trkpt>
      <trkpt lat="42.990353973582387" lon="-8.871389972046018">
        <ele>336.60000000000002</ele>
        <time>2025-04-30T13:55:56Z</time>
      </trkpt>
      <trkpt lat="42.989338003098965" lon="-8.872706014662981">
        <ele>340.44</ele>
        <time>2025-04-30T13:56:08Z</time>
      </trkpt>
      <trkpt lat="42.989042960107327" lon="-8.873097030445933">
        <ele>340.92000000000002</ele>
        <time>2025-04-30T13:56:15Z</time>
      </trkpt>
      <trkpt lat="42.989042960107327" lon="-8.873097030445933">
        <ele>340.44</ele>
        <time>2025-04-30T13:56:28Z</time>
      </trkpt>
      <trkpt lat="42.98889703117311" lon="-8.87328302487731">
        <ele>339.48000000000002</ele>
        <time>2025-04-30T13:56:57Z</time>
      </trkpt>
      <trkpt lat="42.988838022574782" lon="-8.873354019597173">
        <ele>339.48000000000002</ele>
        <time>2025-04-30T13:56:58Z</time>
      </trkpt>
      <trkpt lat="42.988784965127707" lon="-8.87341596186161">
        <ele>339.48000000000002</ele>
        <time>2025-04-30T13:56:59Z</time>
      </trkpt>
      <trkpt lat="42.988751018419862" lon="-8.87345602735877">
        <ele>339</ele>
        <time>2025-04-30T13:57:00Z</time>
      </trkpt>
      <trkpt lat="42.9887680336833" lon="-8.873601034283638">
        <ele>339</ele>
        <time>2025-04-30T13:57:01Z</time>
      </trkpt>
      <trkpt lat="42.988709025084972" lon="-8.873734977096319">
        <ele>338.51999999999998</ele>
        <time>2025-04-30T13:57:02Z</time>
      </trkpt>
      <trkpt lat="42.988714976236224" lon="-8.873812006786466">
        <ele>338.04000000000002</ele>
        <time>2025-04-30T13:57:03Z</time>
      </trkpt>
      <trkpt lat="42.988726040348411" lon="-8.873927006497979">
        <ele>338.04000000000002</ele>
        <time>2025-04-30T13:57:04Z</time>
      </trkpt>
      <trkpt lat="42.988737020641565" lon="-8.874052986502647">
        <ele>337.56</ele>
        <time>2025-04-30T13:57:05Z</time>
      </trkpt>
      <trkpt lat="42.988750012591481" lon="-8.874189024791122">
        <ele>337.07999999999998</ele>
        <time>2025-04-30T13:57:06Z</time>
      </trkpt>
      <trkpt lat="42.988941036164761" lon="-8.875763984397054">
        <ele>334.19999999999999</ele>
        <time>2025-04-30T13:57:15Z</time>
      </trkpt>
      <trkpt lat="42.989174975082278" lon="-8.877724008634687">
        <ele>333.23000000000002</ele>
        <time>2025-04-30T13:57:23Z</time>
      </trkpt>
      <trkpt lat="42.989752991124988" lon="-8.882298013195396">
        <ele>325.54000000000002</ele>
        <time>2025-04-30T13:57:39Z</time>
      </trkpt>
      <trkpt lat="42.990036970004439" lon="-8.884443026036024">
        <ele>322.18000000000001</ele>
        <time>2025-04-30T13:57:47Z</time>
      </trkpt>
      <trkpt lat="42.990647004917264" lon="-8.886123010888696">
        <ele>320.74000000000001</ele>
        <time>2025-04-30T13:57:54Z</time>
      </trkpt>
      <trkpt lat="42.991722989827394" lon="-8.888758029788733">
        <ele>314.97000000000003</ele>
        <time>2025-04-30T13:58:05Z</time>
      </trkpt>
      <trkpt lat="42.992449030280113" lon="-8.891308978199959">
        <ele>310.16000000000003</ele>
        <time>2025-04-30T13:58:15Z</time>
      </trkpt>
      <trkpt lat="42.992686992511153" lon="-8.894551014527679">
        <ele>305.36000000000001</ele>
        <time>2025-04-30T13:58:26Z</time>
      </trkpt>
      <trkpt lat="42.993141040205956" lon="-8.897785004228354">
        <ele>311.60000000000002</ele>
        <time>2025-04-30T13:58:38Z</time>
      </trkpt>
      <trkpt lat="42.993873031809926" lon="-8.901725001633167">
        <ele>319.30000000000001</ele>
        <time>2025-04-30T13:58:52Z</time>
      </trkpt>
      <trkpt lat="42.994584990665317" lon="-8.905383031815291">
        <ele>326.01999999999998</ele>
        <time>2025-04-30T13:59:05Z</time>
      </trkpt>
      <trkpt lat="42.995356963947415" lon="-8.908696984872222">
        <ele>326.99000000000001</ele>
        <time>2025-04-30T13:59:17Z</time>
      </trkpt>
      <trkpt lat="42.99581796862185" lon="-8.910605041310191">
        <ele>327.47000000000003</ele>
        <time>2025-04-30T13:59:25Z</time>
      </trkpt>
      <trkpt lat="42.996131032705307" lon="-8.911881018429995">
        <ele>330.35000000000002</ele>
        <time>2025-04-30T13:59:33Z</time>
      </trkpt>
      <trkpt lat="42.996372012421489" lon="-8.912632958963513">
        <ele>331.31</ele>
        <time>2025-04-30T13:59:38Z</time>
      </trkpt>
      <trkpt lat="42.996436972171068" lon="-8.912767991423607">
        <ele>331.79000000000002</ele>
        <time>2025-04-30T13:59:39Z</time>
      </trkpt>
      <trkpt lat="42.996497992426157" lon="-8.912894977256656">
        <ele>332.26999999999998</ele>
        <time>2025-04-30T13:59:40Z</time>
      </trkpt>
      <trkpt lat="42.996604023501277" lon="-8.912984998896718">
        <ele>332.75</ele>
        <time>2025-04-30T13:59:41Z</time>
      </trkpt>
      <trkpt lat="42.996703013777733" lon="-8.913067979738116">
        <ele>332.75</ele>
        <time>2025-04-30T13:59:42Z</time>
      </trkpt>
      <trkpt lat="42.996802004054189" lon="-8.913146015256643">
        <ele>332.75</ele>
        <time>2025-04-30T13:59:43Z</time>
      </trkpt>
      <trkpt lat="42.99839498475194" lon="-8.913994012400508">
        <ele>331.31</ele>
        <time>2025-04-30T13:59:57Z</time>
      </trkpt>
      <trkpt lat="42.99940500408411" lon="-8.914412017911673">
        <ele>328.91000000000003</ele>
        <time>2025-04-30T14:00:04Z</time>
      </trkpt>
      <trkpt lat="42.99957700073719" lon="-8.914440013468266">
        <ele>328.43000000000001</ele>
        <time>2025-04-30T14:00:05Z</time>
      </trkpt>
      <trkpt lat="42.99974899739027" lon="-8.914422998204827">
        <ele>328.43000000000001</ele>
        <time>2025-04-30T14:00:06Z</time>
      </trkpt>
      <trkpt lat="42.99991998821497" lon="-8.914399025961757">
        <ele>327.94999999999999</ele>
        <time>2025-04-30T14:00:07Z</time>
      </trkpt>
      <trkpt lat="43.000090979039669" lon="-8.914326019585133">
        <ele>327.47000000000003</ele>
        <time>2025-04-30T14:00:08Z</time>
      </trkpt>
      <trkpt lat="43.000260964035988" lon="-8.914251001551747">
        <ele>327.47000000000003</ele>
        <time>2025-04-30T14:00:09Z</time>
      </trkpt>
      <trkpt lat="43.001320017501712" lon="-8.913885969668627">
        <ele>327.47000000000003</ele>
        <time>2025-04-30T14:00:15Z</time>
      </trkpt>
      <trkpt lat="43.001499976962805" lon="-8.913872977718711">
        <ele>326.99000000000001</ele>
        <time>2025-04-30T14:00:16Z</time>
      </trkpt>
      <trkpt lat="43.001692006364465" lon="-8.913910025730729">
        <ele>326.99000000000001</ele>
        <time>2025-04-30T14:00:17Z</time>
      </trkpt>
      <trkpt lat="43.002071036025882" lon="-8.914012033492327">
        <ele>326.99000000000001</ele>
        <time>2025-04-30T14:00:19Z</time>
      </trkpt>
      <trkpt lat="43.002257030457258" lon="-8.914114041253924">
        <ele>326.99000000000001</ele>
        <time>2025-04-30T14:00:20Z</time>
      </trkpt>
      <trkpt lat="43.002435984089971" lon="-8.914217976853252">
        <ele>326.5</ele>
        <time>2025-04-30T14:00:21Z</time>
      </trkpt>
      <trkpt lat="43.002605969086289" lon="-8.91436499543488">
        <ele>325.54000000000002</ele>
        <time>2025-04-30T14:00:22Z</time>
      </trkpt>
      <trkpt lat="43.002775032073259" lon="-8.914529029279947">
        <ele>324.57999999999998</ele>
        <time>2025-04-30T14:00:23Z</time>
      </trkpt>
      <trkpt lat="43.002923978492618" lon="-8.914733966812491">
        <ele>323.13999999999999</ele>
        <time>2025-04-30T14:00:24Z</time>
      </trkpt>
      <trkpt lat="43.003073008731008" lon="-8.914938988164067">
        <ele>322.18000000000001</ele>
        <time>2025-04-30T14:00:25Z</time>
      </trkpt>
      <trkpt lat="43.003198988735676" lon="-8.915177034214139">
        <ele>321.69999999999999</ele>
        <time>2025-04-30T14:00:26Z</time>
      </trkpt>
      <trkpt lat="43.004245972260833" lon="-8.917211992666125">
        <ele>314.49000000000001</ele>
        <time>2025-04-30T14:00:34Z</time>
      </trkpt>
      <trkpt lat="43.005302008241415" lon="-8.919201018288732">
        <ele>304.88</ele>
        <time>2025-04-30T14:00:42Z</time>
      </trkpt>
      <trkpt lat="43.00544299185276" lon="-8.919380977749825">
        <ele>303.43000000000001</ele>
        <time>2025-04-30T14:00:43Z</time>
      </trkpt>
      <trkpt lat="43.00559101626277" lon="-8.919559009373188">
        <ele>301.99000000000001</ele>
        <time>2025-04-30T14:00:44Z</time>
      </trkpt>
      <trkpt lat="43.00576401874423" lon="-8.919687001034617">
        <ele>300.55000000000001</ele>
        <time>2025-04-30T14:00:45Z</time>
      </trkpt>
      <trkpt lat="43.005949007347226" lon="-8.919806024059653">
        <ele>299.11000000000001</ele>
        <time>2025-04-30T14:00:46Z</time>
      </trkpt>
      <trkpt lat="43.006152017042041" lon="-8.919893028214574">
        <ele>298.14999999999998</ele>
        <time>2025-04-30T14:00:47Z</time>
      </trkpt>
      <trkpt lat="43.006360977888107" lon="-8.919941978529096">
        <ele>297.67000000000002</ele>
        <time>2025-04-30T14:00:48Z</time>
      </trkpt>
      <trkpt lat="43.006567005068064" lon="-8.919990006834269">
        <ele>296.69999999999999</ele>
        <time>2025-04-30T14:00:49Z</time>
      </trkpt>
      <trkpt lat="43.006770014762878" lon="-8.920024037361145">
        <ele>295.74000000000001</ele>
        <time>2025-04-30T14:00:50Z</time>
      </trkpt>
      <trkpt lat="43.007727982476354" lon="-8.920268034562469">
        <ele>292.38</ele>
        <time>2025-04-30T14:00:55Z</time>
      </trkpt>
      <trkpt lat="43.007892016321421" lon="-8.920361995697022">
        <ele>291.89999999999998</ele>
        <time>2025-04-30T14:00:56Z</time>
      </trkpt>
      <trkpt lat="43.008011039346457" lon="-8.920516977086663">
        <ele>290.94</ele>
        <time>2025-04-30T14:00:57Z</time>
      </trkpt>
      <trkpt lat="43.008129978552461" lon="-8.920671958476305">
        <ele>290.45999999999998</ele>
        <time>2025-04-30T14:00:58Z</time>
      </trkpt>
      <trkpt lat="43.008241960778832" lon="-8.920816965401173">
        <ele>289.97000000000003</ele>
        <time>2025-04-30T14:00:59Z</time>
      </trkpt>
      <trkpt lat="43.008333994075656" lon="-8.920953003689647">
        <ele>289.97000000000003</ele>
        <time>2025-04-30T14:01:00Z</time>
      </trkpt>
      <trkpt lat="43.008404988795519" lon="-8.92113103531301">
        <ele>289.97000000000003</ele>
        <time>2025-04-30T14:01:01Z</time>
      </trkpt>
      <trkpt lat="43.008475983515382" lon="-8.921307977288961">
        <ele>289.97000000000003</ele>
        <time>2025-04-30T14:01:02Z</time>
      </trkpt>
      <trkpt lat="43.008532980456948" lon="-8.921491038054228">
        <ele>290.45999999999998</ele>
        <time>2025-04-30T14:01:03Z</time>
      </trkpt>
      <trkpt lat="43.008592994883657" lon="-8.921672003343701">
        <ele>290.45999999999998</ele>
        <time>2025-04-30T14:01:04Z</time>
      </trkpt>
      <trkpt lat="43.008884014561772" lon="-8.923170017078519">
        <ele>292.86000000000001</ele>
        <time>2025-04-30T14:01:13Z</time>
      </trkpt>
      <trkpt lat="43.008994990959764" lon="-8.92345299012959">
        <ele>293.81999999999999</ele>
        <time>2025-04-30T14:01:15Z</time>
      </trkpt>
      <trkpt lat="43.009073026478291" lon="-8.923582993447781">
        <ele>294.30000000000001</ele>
        <time>2025-04-30T14:01:16Z</time>
      </trkpt>
      <trkpt lat="43.009150978177786" lon="-8.923706039786339">
        <ele>295.25999999999999</ele>
        <time>2025-04-30T14:01:17Z</time>
      </trkpt>
      <trkpt lat="43.009338984265924" lon="-8.923911983147264">
        <ele>296.69999999999999</ele>
        <time>2025-04-30T14:01:19Z</time>
      </trkpt>
      <trkpt lat="43.009440992027521" lon="-8.923991024494171">
        <ele>297.18000000000001</ele>
        <time>2025-04-30T14:01:20Z</time>
      </trkpt>
      <trkpt lat="43.009550962597132" lon="-8.924064030870795">
        <ele>297.67000000000002</ele>
        <time>2025-04-30T14:01:21Z</time>
      </trkpt>
      <trkpt lat="43.010073993355036" lon="-8.924479018896818">
        <ele>300.06999999999999</ele>
        <time>2025-04-30T14:01:26Z</time>
      </trkpt>
      <trkpt lat="43.010165020823479" lon="-8.924584966152906">
        <ele>300.55000000000001</ele>
        <time>2025-04-30T14:01:27Z</time>
      </trkpt>
      <trkpt lat="43.01096398383379" lon="-8.925875024870038">
        <ele>301.02999999999997</ele>
        <time>2025-04-30T14:01:37Z</time>
      </trkpt>
      <trkpt lat="43.011098010465503" lon="-8.926151962950826">
        <ele>301.02999999999997</ele>
        <time>2025-04-30T14:01:39Z</time>
      </trkpt>
      <trkpt lat="43.011143021285534" lon="-8.926294036209583">
        <ele>301.50999999999999</ele>
        <time>2025-04-30T14:01:40Z</time>
      </trkpt>
      <trkpt lat="43.011175962164998" lon="-8.926448011770845">
        <ele>301.50999999999999</ele>
        <time>2025-04-30T14:01:41Z</time>
      </trkpt>
      <trkpt lat="43.011201024055481" lon="-8.926601987332106">
        <ele>301.99000000000001</ele>
        <time>2025-04-30T14:01:42Z</time>
      </trkpt>
      <trkpt lat="43.011214016005397" lon="-8.926778007298708">
        <ele>301.99000000000001</ele>
        <time>2025-04-30T14:01:43Z</time>
      </trkpt>
      <trkpt lat="43.011206975206733" lon="-8.926958972588182">
        <ele>302.47000000000003</ele>
        <time>2025-04-30T14:01:44Z</time>
      </trkpt>
      <trkpt lat="43.011189037933946" lon="-8.927159970626235">
        <ele>302.94999999999999</ele>
        <time>2025-04-30T14:01:45Z</time>
      </trkpt>
      <trkpt lat="43.011163976043463" lon="-8.927373960614204">
        <ele>302.94999999999999</ele>
        <time>2025-04-30T14:01:46Z</time>
      </trkpt>
      <trkpt lat="43.010773966088891" lon="-8.929513022303581">
        <ele>310.63999999999999</ele>
        <time>2025-04-30T14:01:55Z</time>
      </trkpt>
      <trkpt lat="43.01072996109724" lon="-8.929757019504905">
        <ele>311.60000000000002</ele>
        <time>2025-04-30T14:01:56Z</time>
      </trkpt>
      <trkpt lat="43.01068696193397" lon="-8.929999005049467">
        <ele>312.08999999999997</ele>
        <time>2025-04-30T14:01:57Z</time>
      </trkpt>
      <trkpt lat="43.010111041367054" lon="-8.933168035000563">
        <ele>310.63999999999999</ele>
        <time>2025-04-30T14:02:10Z</time>
      </trkpt>
      <trkpt lat="43.009617011994123" lon="-8.935997011139989">
        <ele>302.47000000000003</ele>
        <time>2025-04-30T14:02:22Z</time>
      </trkpt>
      <trkpt lat="43.009598990902305" lon="-8.93791101872921">
        <ele>296.22000000000003</ele>
        <time>2025-04-30T14:02:30Z</time>
      </trkpt>
      <trkpt lat="43.009635033085942" lon="-8.938153004273772">
        <ele>295.74000000000001</ele>
        <time>2025-04-30T14:02:31Z</time>
      </trkpt>
      <trkpt lat="43.009683983400464" lon="-8.938391972333193">
        <ele>294.77999999999997</ele>
        <time>2025-04-30T14:02:32Z</time>
      </trkpt>
      <trkpt lat="43.010357972234488" lon="-8.940563974902034">
        <ele>288.52999999999997</ele>
        <time>2025-04-30T14:02:41Z</time>
      </trkpt>
      <trkpt lat="43.011144027113914" lon="-8.942929012700915">
        <ele>289.00999999999999</ele>
        <time>2025-04-30T14:02:50Z</time>
      </trkpt>
      <trkpt lat="43.01210199482739" lon="-8.945770980790258">
        <ele>291.42000000000002</ele>
        <time>2025-04-30T14:03:00Z</time>
      </trkpt>
      <trkpt lat="43.01324000582099" lon="-8.949209991842508">
        <ele>291.89999999999998</ele>
        <time>2025-04-30T14:03:12Z</time>
      </trkpt>
      <trkpt lat="43.013634961098433" lon="-8.950645979493856">
        <ele>294.30000000000001</ele>
        <time>2025-04-30T14:03:17Z</time>
      </trkpt>
      <trkpt lat="43.013676032423973" lon="-8.950945967808366">
        <ele>294.77999999999997</ele>
        <time>2025-04-30T14:03:18Z</time>
      </trkpt>
      <trkpt lat="43.013732023537159" lon="-8.9521340187639">
        <ele>296.69999999999999</ele>
        <time>2025-04-30T14:03:22Z</time>
      </trkpt>
      <trkpt lat="43.01341200247407" lon="-8.954138970002532">
        <ele>299.58999999999997</ele>
        <time>2025-04-30T14:03:29Z</time>
      </trkpt>
      <trkpt lat="43.013018975034356" lon="-8.956450028344989">
        <ele>301.99000000000001</ele>
        <time>2025-04-30T14:03:37Z</time>
      </trkpt>
      <trkpt lat="43.013182003051043" lon="-8.95845397375524">
        <ele>305.83999999999997</ele>
        <time>2025-04-30T14:03:44Z</time>
      </trkpt>
      <trkpt lat="43.013774016872048" lon="-8.961335001513362">
        <ele>311.12</ele>
        <time>2025-04-30T14:03:54Z</time>
      </trkpt>
      <trkpt lat="43.014468960464001" lon="-8.964039003476501">
        <ele>314.49000000000001</ele>
        <time>2025-04-30T14:04:03Z</time>
      </trkpt>
      <trkpt lat="43.014674987643957" lon="-8.964634034782648">
        <ele>314.00999999999999</ele>
        <time>2025-04-30T14:04:05Z</time>
      </trkpt>
      <trkpt lat="43.015903020277619" lon="-8.967188000679016">
        <ele>310.16000000000003</ele>
        <time>2025-04-30T14:04:14Z</time>
      </trkpt>
      <trkpt lat="43.017575964331627" lon="-8.9705890417099">
        <ele>301.99000000000001</ele>
        <time>2025-04-30T14:04:26Z</time>
      </trkpt>
      <trkpt lat="43.019354017451406" lon="-8.974256962537766">
        <ele>294.30000000000001</ele>
        <time>2025-04-30T14:04:39Z</time>
      </trkpt>
      <trkpt lat="43.020906010642648" lon="-8.977410988882184">
        <ele>293.33999999999997</ele>
        <time>2025-04-30T14:04:50Z</time>
      </trkpt>
      <trkpt lat="43.022320037707686" lon="-8.97972104139626">
        <ele>294.77999999999997</ele>
        <time>2025-04-30T14:04:59Z</time>
      </trkpt>
      <trkpt lat="43.023958029225469" lon="-8.982570972293615">
        <ele>291.42000000000002</ele>
        <time>2025-04-30T14:05:10Z</time>
      </trkpt>
      <trkpt lat="43.02404603920877" lon="-8.982846988365054">
        <ele>291.42000000000002</ele>
        <time>2025-04-30T14:05:11Z</time>
      </trkpt>
      <trkpt lat="43.02413497120142" lon="-8.983126021921635">
        <ele>291.42000000000002</ele>
        <time>2025-04-30T14:05:12Z</time>
      </trkpt>
      <trkpt lat="43.024474019184709" lon="-8.985471026971936">
        <ele>292.86000000000001</ele>
        <time>2025-04-30T14:05:20Z</time>
      </trkpt>
      <trkpt lat="43.024805020540953" lon="-8.988136975094676">
        <ele>295.74000000000001</ele>
        <time>2025-04-30T14:05:29Z</time>
      </trkpt>
      <trkpt lat="43.025340959429741" lon="-8.991129985079169">
        <ele>299.11000000000001</ele>
        <time>2025-04-30T14:05:39Z</time>
      </trkpt>
      <trkpt lat="43.026341004297137" lon="-8.995767021551728">
        <ele>304.38999999999999</ele>
        <time>2025-04-30T14:05:55Z</time>
      </trkpt>
      <trkpt lat="43.026890018954873" lon="-8.998276982456446">
        <ele>304.88</ele>
        <time>2025-04-30T14:06:03Z</time>
      </trkpt>
      <trkpt lat="43.027513967826962" lon="-9.001180976629257">
        <ele>301.02999999999997</ele>
        <time>2025-04-30T14:06:12Z</time>
      </trkpt>
      <trkpt lat="43.028564974665642" lon="-9.006053041666746">
        <ele>300.06999999999999</ele>
        <time>2025-04-30T14:06:27Z</time>
      </trkpt>
      <trkpt lat="43.029080964624882" lon="-9.008454037830234">
        <ele>301.50999999999999</ele>
        <time>2025-04-30T14:06:35Z</time>
      </trkpt>
      <trkpt lat="43.029541969299316" lon="-9.010862996801734">
        <ele>306.80000000000001</ele>
        <time>2025-04-30T14:06:45Z</time>
      </trkpt>
      <trkpt lat="43.029541969299316" lon="-9.011186035349965">
        <ele>307.27999999999997</ele>
        <time>2025-04-30T14:06:47Z</time>
      </trkpt>
      <trkpt lat="43.029539035633206" lon="-9.011334981769323">
        <ele>307.75999999999999</ele>
        <time>2025-04-30T14:06:48Z</time>
      </trkpt>
      <trkpt lat="43.029483966529369" lon="-9.011644022539258">
        <ele>308.72000000000003</ele>
        <time>2025-04-30T14:06:50Z</time>
      </trkpt>
      <trkpt lat="43.028744012117386" lon="-9.014265965670347">
        <ele>309.68000000000001</ele>
        <time>2025-04-30T14:07:07Z</time>
      </trkpt>
      <trkpt lat="43.028510995209217" lon="-9.015199039131403">
        <ele>310.63999999999999</ele>
        <time>2025-04-30T14:07:13Z</time>
      </trkpt>
      <trkpt lat="43.028490962460637" lon="-9.015355026349425">
        <ele>310.63999999999999</ele>
        <time>2025-04-30T14:07:14Z</time>
      </trkpt>
      <trkpt lat="43.028505966067314" lon="-9.015519982203841">
        <ele>311.12</ele>
        <time>2025-04-30T14:07:15Z</time>
      </trkpt>
      <trkpt lat="43.028524992987514" lon="-9.015678986907005">
        <ele>311.12</ele>
        <time>2025-04-30T14:07:16Z</time>
      </trkpt>
      <trkpt lat="43.028547959402204" lon="-9.015841009095311">
        <ele>311.60000000000002</ele>
        <time>2025-04-30T14:07:17Z</time>
      </trkpt>
      <trkpt lat="43.028791034594178" lon="-9.017469026148319">
        <ele>313.05000000000001</ele>
        <time>2025-04-30T14:07:27Z</time>
      </trkpt>
      <trkpt lat="43.028791034594178" lon="-9.017802961170673">
        <ele>312.56999999999999</ele>
        <time>2025-04-30T14:07:29Z</time>
      </trkpt>
      <trkpt lat="43.028806960210204" lon="-9.018635032698512">
        <ele>311.12</ele>
        <time>2025-04-30T14:07:34Z</time>
      </trkpt>
      <trkpt lat="43.028830010443926" lon="-9.018793031573296">
        <ele>310.63999999999999</ele>
        <time>2025-04-30T14:07:35Z</time>
      </trkpt>
      <trkpt lat="43.028877032920718" lon="-9.018944995477796">
        <ele>310.16000000000003</ele>
        <time>2025-04-30T14:07:36Z</time>
      </trkpt>
      <trkpt lat="43.028937969356775" lon="-9.019087990745902">
        <ele>309.68000000000001</ele>
        <time>2025-04-30T14:07:37Z</time>
      </trkpt>
      <trkpt lat="43.029001001268625" lon="-9.019228974357247">
        <ele>309.19999999999999</ele>
        <time>2025-04-30T14:07:38Z</time>
      </trkpt>
      <trkpt lat="43.029068978503346" lon="-9.019365012645721">
        <ele>308.72000000000003</ele>
        <time>2025-04-30T14:07:39Z</time>
      </trkpt>
      <trkpt lat="43.02978596650064" lon="-9.020894961431623">
        <ele>302.47000000000003</ele>
        <time>2025-04-30T14:07:50Z</time>
      </trkpt>
      <trkpt lat="43.03021302446723" lon="-9.022067002952099">
        <ele>300.55000000000001</ele>
        <time>2025-04-30T14:07:58Z</time>
      </trkpt>
      <trkpt lat="43.030238002538681" lon="-9.022229025140405">
        <ele>300.55000000000001</ele>
        <time>2025-04-30T14:07:59Z</time>
      </trkpt>
      <trkpt lat="43.030250994488597" lon="-9.022386018186808">
        <ele>300.06999999999999</ele>
        <time>2025-04-30T14:08:00Z</time>
      </trkpt>
      <trkpt lat="43.030250994488597" lon="-9.022553991526365">
        <ele>299.58999999999997</ele>
        <time>2025-04-30T14:08:01Z</time>
      </trkpt>
      <trkpt lat="43.030250994488597" lon="-9.022719031199813">
        <ele>299.58999999999997</ele>
        <time>2025-04-30T14:08:02Z</time>
      </trkpt>
      <trkpt lat="43.030240014195442" lon="-9.022879963740706">
        <ele>299.11000000000001</ele>
        <time>2025-04-30T14:08:03Z</time>
      </trkpt>
      <trkpt lat="43.03021696396172" lon="-9.02305799536407">
        <ele>298.63</ele>
        <time>2025-04-30T14:08:04Z</time>
      </trkpt>
      <trkpt lat="43.03019299171865" lon="-9.023248013108969">
        <ele>298.14999999999998</ele>
        <time>2025-04-30T14:08:05Z</time>
      </trkpt>
      <trkpt lat="43.029976990073919" lon="-9.025063030421734">
        <ele>296.22000000000003</ele>
        <time>2025-04-30T14:08:13Z</time>
      </trkpt>
      <trkpt lat="43.029985958710313" lon="-9.025320019572973">
        <ele>296.69999999999999</ele>
        <time>2025-04-30T14:08:14Z</time>
      </trkpt>
      <trkpt lat="43.030003979802132" lon="-9.025574997067452">
        <ele>297.18000000000001</ele>
        <time>2025-04-30T14:08:15Z</time>
      </trkpt>
      <trkpt lat="43.030061982572079" lon="-9.025820000097156">
        <ele>297.67000000000002</ele>
        <time>2025-04-30T14:08:16Z</time>
      </trkpt>
      <trkpt lat="43.030133983120322" lon="-9.026057040318847">
        <ele>298.14999999999998</ele>
        <time>2025-04-30T14:08:17Z</time>
      </trkpt>
      <trkpt lat="43.03021696396172" lon="-9.026291985064745">
        <ele>299.11000000000001</ele>
        <time>2025-04-30T14:08:18Z</time>
      </trkpt>
      <trkpt lat="43.030341016128659" lon="-9.026489965617657">
        <ele>300.06999999999999</ele>
        <time>2025-04-30T14:08:19Z</time>
      </trkpt>
      <trkpt lat="43.030473031103611" lon="-9.026679983362556">
        <ele>301.02999999999997</ele>
        <time>2025-04-30T14:08:20Z</time>
      </trkpt>
      <trkpt lat="43.030620971694589" lon="-9.026857009157538">
        <ele>301.99000000000001</ele>
        <time>2025-04-30T14:08:21Z</time>
      </trkpt>
      <trkpt lat="43.030770001932979" lon="-9.027035040780902">
        <ele>303.43000000000001</ele>
        <time>2025-04-30T14:08:22Z</time>
      </trkpt>
      <trkpt lat="43.030920037999749" lon="-9.027206031605601">
        <ele>304.88</ele>
        <time>2025-04-30T14:08:23Z</time>
      </trkpt>
      <trkpt lat="43.03182695992291" lon="-9.028203980997205">
        <ele>313.52999999999997</ele>
        <time>2025-04-30T14:08:30Z</time>
      </trkpt>
      <trkpt lat="43.03193299099803" lon="-9.028381006792188">
        <ele>314.49000000000001</ele>
        <time>2025-04-30T14:08:31Z</time>
      </trkpt>
      <trkpt lat="43.032031981274486" lon="-9.028562977910042">
        <ele>315.93000000000001</ele>
        <time>2025-04-30T14:08:32Z</time>
      </trkpt>
      <trkpt lat="43.032113034278154" lon="-9.028766993433237">
        <ele>316.88999999999999</ele>
        <time>2025-04-30T14:08:33Z</time>
      </trkpt>
      <trkpt lat="43.032189980149269" lon="-9.028976038098335">
        <ele>318.32999999999998</ele>
        <time>2025-04-30T14:08:34Z</time>
      </trkpt>
      <trkpt lat="43.032239014282823" lon="-9.029205031692982">
        <ele>319.77999999999997</ele>
        <time>2025-04-30T14:08:35Z</time>
      </trkpt>
      <trkpt lat="43.032282013446093" lon="-9.029437964782119">
        <ele>320.74000000000001</ele>
        <time>2025-04-30T14:08:36Z</time>
      </trkpt>
      <trkpt lat="43.032323000952601" lon="-9.029668970033526">
        <ele>322.18000000000001</ele>
        <time>2025-04-30T14:08:37Z</time>
      </trkpt>
      <trkpt lat="43.032503966242075" lon="-9.030344970524311">
        <ele>325.54000000000002</ele>
        <time>2025-04-30T14:08:40Z</time>
      </trkpt>
      <trkpt lat="43.032658025622368" lon="-9.030731962993741">
        <ele>327.94999999999999</ele>
        <time>2025-04-30T14:08:42Z</time>
      </trkpt>
      <trkpt lat="43.03277101367712" lon="-9.030888034030795">
        <ele>328.43000000000001</ele>
        <time>2025-04-30T14:08:43Z</time>
      </trkpt>
      <trkpt lat="43.032886013388634" lon="-9.031046032905579">
        <ele>329.38999999999999</ele>
        <time>2025-04-30T14:08:44Z</time>
      </trkpt>
      <trkpt lat="43.033375013619661" lon="-9.031599992886186">
        <ele>332.75</ele>
        <time>2025-04-30T14:08:48Z</time>
      </trkpt>
      <trkpt lat="43.033507028594613" lon="-9.031743993982673">
        <ele>333.23000000000002</ele>
        <time>2025-04-30T14:08:49Z</time>
      </trkpt>
      <trkpt lat="43.033756976947188" lon="-9.032058985903859">
        <ele>333.70999999999998</ele>
        <time>2025-04-30T14:08:51Z</time>
      </trkpt>
      <trkpt lat="43.033879017457366" lon="-9.032212039455771">
        <ele>333.70999999999998</ele>
        <time>2025-04-30T14:08:52Z</time>
      </trkpt>
      <trkpt lat="43.0339739844203" lon="-9.032399039715529">
        <ele>333.70999999999998</ele>
        <time>2025-04-30T14:08:53Z</time>
      </trkpt>
      <trkpt lat="43.034049002453685" lon="-9.032586961984634">
        <ele>333.70999999999998</ele>
        <time>2025-04-30T14:08:54Z</time>
      </trkpt>
      <trkpt lat="43.034108011052012" lon="-9.032773040235043">
        <ele>333.70999999999998</ele>
        <time>2025-04-30T14:08:55Z</time>
      </trkpt>
      <trkpt lat="43.034151010215282" lon="-9.032987030223012">
        <ele>333.70999999999998</ele>
        <time>2025-04-30T14:08:56Z</time>
      </trkpt>
      <trkpt lat="43.034199038520455" lon="-9.033224992454052">
        <ele>333.70999999999998</ele>
        <time>2025-04-30T14:08:57Z</time>
      </trkpt>
      <trkpt lat="43.034252012148499" lon="-9.033483993262053">
        <ele>333.70999999999998</ele>
        <time>2025-04-30T14:08:58Z</time>
      </trkpt>
      <trkpt lat="43.034599022939801" lon="-9.035376962274313">
        <ele>335.16000000000003</ele>
        <time>2025-04-30T14:09:04Z</time>
      </trkpt>
      <trkpt lat="43.035120964050293" lon="-9.038600977510214">
        <ele>341.88999999999999</ele>
        <time>2025-04-30T14:09:14Z</time>
      </trkpt>
      <trkpt lat="43.035729993134737" lon="-9.042253978550434">
        <ele>356.31</ele>
        <time>2025-04-30T14:09:26Z</time>
      </trkpt>
      <trkpt lat="43.035988993942738" lon="-9.044455988332629">
        <ele>368.80000000000001</ele>
        <time>2025-04-30T14:09:33Z</time>
      </trkpt>
      <trkpt lat="43.035957980901003" lon="-9.044781038537622">
        <ele>370.73000000000002</ele>
        <time>2025-04-30T14:09:34Z</time>
      </trkpt>
      <trkpt lat="43.035925962030888" lon="-9.045108016580343">
        <ele>373.13</ele>
        <time>2025-04-30T14:09:35Z</time>
      </trkpt>
      <trkpt lat="43.035878017544746" lon="-9.045428037643433">
        <ele>375.05000000000001</ele>
        <time>2025-04-30T14:09:36Z</time>
      </trkpt>
      <trkpt lat="43.035809034481645" lon="-9.045738000422716">
        <ele>377.44999999999999</ele>
        <time>2025-04-30T14:09:37Z</time>
      </trkpt>
      <trkpt lat="43.035700991749763" lon="-9.046018039807677">
        <ele>379.38</ele>
        <time>2025-04-30T14:09:38Z</time>
      </trkpt>
      <trkpt lat="43.035593032836914" lon="-9.046300007030368">
        <ele>381.30000000000001</ele>
        <time>2025-04-30T14:09:39Z</time>
      </trkpt>
      <trkpt lat="43.035485995933414" lon="-9.046576023101807">
        <ele>383.22000000000003</ele>
        <time>2025-04-30T14:09:40Z</time>
      </trkpt>
      <trkpt lat="43.035323973745108" lon="-9.046815996989608">
        <ele>385.14999999999998</ele>
        <time>2025-04-30T14:09:41Z</time>
      </trkpt>
      <trkpt lat="43.035166980698705" lon="-9.047047002241015">
        <ele>387.55000000000001</ele>
        <time>2025-04-30T14:09:42Z</time>
      </trkpt>
      <trkpt lat="43.03500697016716" lon="-9.047269960865378">
        <ele>389.47000000000003</ele>
        <time>2025-04-30T14:09:43Z</time>
      </trkpt>
      <trkpt lat="43.034827010706067" lon="-9.047470958903432">
        <ele>391.38999999999999</ele>
        <time>2025-04-30T14:09:44Z</time>
      </trkpt>
      <trkpt lat="43.034633975476027" lon="-9.047645973041654">
        <ele>393.80000000000001</ele>
        <time>2025-04-30T14:09:45Z</time>
      </trkpt>
      <trkpt lat="43.033704003319144" lon="-9.048592038452625">
        <ele>403.41000000000003</ele>
        <time>2025-04-30T14:09:50Z</time>
      </trkpt>
      <trkpt lat="43.033581040799618" lon="-9.048828994855285">
        <ele>404.85000000000002</ele>
        <time>2025-04-30T14:09:51Z</time>
      </trkpt>
      <trkpt lat="43.033460006117821" lon="-9.049081038683653">
        <ele>406.29000000000002</ele>
        <time>2025-04-30T14:09:52Z</time>
      </trkpt>
      <trkpt lat="43.033394040539861" lon="-9.049354959279299">
        <ele>407.74000000000001</ele>
        <time>2025-04-30T14:09:53Z</time>
      </trkpt>
      <trkpt lat="43.033326985314488" lon="-9.049628041684628">
        <ele>409.18000000000001</ele>
        <time>2025-04-30T14:09:54Z</time>
      </trkpt>
      <trkpt lat="43.033270994201303" lon="-9.049898022785783">
        <ele>409.66000000000003</ele>
        <time>2025-04-30T14:09:55Z</time>
      </trkpt>
      <trkpt lat="43.033247021958232" lon="-9.050174038857222">
        <ele>410.62</ele>
        <time>2025-04-30T14:09:56Z</time>
      </trkpt>
      <trkpt lat="43.033224977552891" lon="-9.050458017736673">
        <ele>411.57999999999998</ele>
        <time>2025-04-30T14:09:57Z</time>
      </trkpt>
      <trkpt lat="43.033211985602975" lon="-9.05075297690928">
        <ele>412.54000000000002</ele>
        <time>2025-04-30T14:09:58Z</time>
      </trkpt>
      <trkpt lat="43.033440979197621" lon="-9.05330996029079">
        <ele>408.22000000000003</ele>
        <time>2025-04-30T14:10:06Z</time>
      </trkpt>
      <trkpt lat="43.033621022477746" lon="-9.054519971832633">
        <ele>401.97000000000003</ele>
        <time>2025-04-30T14:10:10Z</time>
      </trkpt>
      <trkpt lat="43.033640971407294" lon="-9.054818032309413">
        <ele>401.00999999999999</ele>
        <time>2025-04-30T14:10:11Z</time>
      </trkpt>
      <trkpt lat="43.033633008599281" lon="-9.055115003138781">
        <ele>399.56999999999999</ele>
        <time>2025-04-30T14:10:12Z</time>
      </trkpt>
      <trkpt lat="43.033606018871069" lon="-9.055409962311387">
        <ele>398.12</ele>
        <time>2025-04-30T14:10:13Z</time>
      </trkpt>
      <trkpt lat="43.033579029142857" lon="-9.055709028616548">
        <ele>396.68000000000001</ele>
        <time>2025-04-30T14:10:14Z</time>
      </trkpt>
      <trkpt lat="43.033600989729166" lon="-9.0578009840101">
        <ele>387.06999999999999</ele>
        <time>2025-04-30T14:10:21Z</time>
      </trkpt>
      <trkpt lat="43.034165007993579" lon="-9.061579965054989">
        <ele>364.95999999999998</ele>
        <time>2025-04-30T14:10:33Z</time>
      </trkpt>
      <trkpt lat="43.034489974379539" lon="-9.062753012403846">
        <ele>358.23000000000002</ele>
        <time>2025-04-30T14:10:37Z</time>
      </trkpt>
      <trkpt lat="43.034614026546478" lon="-9.063027016818523">
        <ele>356.31</ele>
        <time>2025-04-30T14:10:38Z</time>
      </trkpt>
      <trkpt lat="43.035925962030888" lon="-9.065652983263135">
        <ele>338.04000000000002</ele>
        <time>2025-04-30T14:10:48Z</time>
      </trkpt>
      <trkpt lat="43.036503978073597" lon="-9.066616985946894">
        <ele>331.79000000000002</ele>
        <time>2025-04-30T14:10:52Z</time>
      </trkpt>
      <trkpt lat="43.036999013274908" lon="-9.06723003834486">
        <ele>326.99000000000001</ele>
        <time>2025-04-30T14:10:55Z</time>
      </trkpt>
      <trkpt lat="43.037189031019807" lon="-9.067393988370895">
        <ele>325.54000000000002</ele>
        <time>2025-04-30T14:10:56Z</time>
      </trkpt>
      <trkpt lat="43.037381982430816" lon="-9.067535977810621">
        <ele>324.10000000000002</ele>
        <time>2025-04-30T14:10:57Z</time>
      </trkpt>
      <trkpt lat="43.037595972418785" lon="-9.067649971693754">
        <ele>322.66000000000003</ele>
        <time>2025-04-30T14:10:58Z</time>
      </trkpt>
      <trkpt lat="43.037808034569025" lon="-9.067763965576887">
        <ele>321.22000000000003</ele>
        <time>2025-04-30T14:10:59Z</time>
      </trkpt>
      <trkpt lat="43.03943001665175" lon="-9.068779014050961">
        <ele>312.56999999999999</ele>
        <time>2025-04-30T14:11:07Z</time>
      </trkpt>
      <trkpt lat="43.041590033099055" lon="-9.070005035027862">
        <ele>305.36000000000001</ele>
        <time>2025-04-30T14:11:17Z</time>
      </trkpt>
      <trkpt lat="43.043824983760715" lon="-9.071218986064196">
        <ele>300.55000000000001</ele>
        <time>2025-04-30T14:11:27Z</time>
      </trkpt>
      <trkpt lat="43.044223040342331" lon="-9.071536995470524">
        <ele>299.11000000000001</ele>
        <time>2025-04-30T14:11:29Z</time>
      </trkpt>
      <trkpt lat="43.044386990368366" lon="-9.071747967973352">
        <ele>298.63</ele>
        <time>2025-04-30T14:11:30Z</time>
      </trkpt>
      <trkpt lat="43.045925991609693" lon="-9.073572037741542">
        <ele>289.49000000000001</ele>
        <time>2025-04-30T14:11:39Z</time>
      </trkpt>
      <trkpt lat="43.046115003526211" lon="-9.073727019131184">
        <ele>288.52999999999997</ele>
        <time>2025-04-30T14:11:40Z</time>
      </trkpt>
      <trkpt lat="43.046321030706167" lon="-9.073843024671078">
        <ele>287.56999999999999</ele>
        <time>2025-04-30T14:11:41Z</time>
      </trkpt>
      <trkpt lat="43.046527979895473" lon="-9.073960036039352">
        <ele>286.61000000000001</ele>
        <time>2025-04-30T14:11:42Z</time>
      </trkpt>
      <trkpt lat="43.046745993196964" lon="-9.074035976082087">
        <ele>285.17000000000002</ele>
        <time>2025-04-30T14:11:43Z</time>
      </trkpt>
      <trkpt lat="43.046963000670075" lon="-9.074096996337175">
        <ele>284.20999999999998</ele>
        <time>2025-04-30T14:11:44Z</time>
      </trkpt>
      <trkpt lat="43.047888027504086" lon="-9.074345016852021">
        <ele>277.95999999999998</ele>
        <time>2025-04-30T14:11:48Z</time>
      </trkpt>
      <trkpt lat="43.048119032755494" lon="-9.074435960501432">
        <ele>276.51999999999998</ele>
        <time>2025-04-30T14:11:49Z</time>
      </trkpt>
      <trkpt lat="43.048341991379857" lon="-9.074562024325132">
        <ele>275.06999999999999</ele>
        <time>2025-04-30T14:11:50Z</time>
      </trkpt>
      <trkpt lat="43.04998098872602" lon="-9.075686959549785">
        <ele>263.06</ele>
        <time>2025-04-30T14:11:58Z</time>
      </trkpt>
      <trkpt lat="43.051160993054509" lon="-9.076597988605499">
        <ele>253.93000000000001</ele>
        <time>2025-04-30T14:12:04Z</time>
      </trkpt>
      <trkpt lat="43.051317986100912" lon="-9.076775014400482">
        <ele>252.47999999999999</ele>
        <time>2025-04-30T14:12:05Z</time>
      </trkpt>
      <trkpt lat="43.051448995247483" lon="-9.076979029923677">
        <ele>251.03999999999999</ele>
        <time>2025-04-30T14:12:06Z</time>
      </trkpt>
      <trkpt lat="43.051535999402404" lon="-9.077214980497956">
        <ele>249.59999999999999</ele>
        <time>2025-04-30T14:12:07Z</time>
      </trkpt>
      <trkpt lat="43.051624009385705" lon="-9.07745897769928">
        <ele>248.63999999999999</ele>
        <time>2025-04-30T14:12:08Z</time>
      </trkpt>
      <trkpt lat="43.051711013540626" lon="-9.077711021527648">
        <ele>247.68000000000001</ele>
        <time>2025-04-30T14:12:09Z</time>
      </trkpt>
      <trkpt lat="43.051754012703896" lon="-9.0779950004071">
        <ele>246.72</ele>
        <time>2025-04-30T14:12:10Z</time>
      </trkpt>
      <trkpt lat="43.051798017695546" lon="-9.078285014256835">
        <ele>245.75</ele>
        <time>2025-04-30T14:12:11Z</time>
      </trkpt>
      <trkpt lat="43.051873035728931" lon="-9.078860012814403">
        <ele>244.31</ele>
        <time>2025-04-30T14:12:13Z</time>
      </trkpt>
      <trkpt lat="43.052124995738268" lon="-9.080625995993614">
        <ele>239.50999999999999</ele>
        <time>2025-04-30T14:12:19Z</time>
      </trkpt>
      <trkpt lat="43.052211999893188" lon="-9.080878039821982">
        <ele>238.53999999999999</ele>
        <time>2025-04-30T14:12:20Z</time>
      </trkpt>
      <trkpt lat="43.052308978512883" lon="-9.081143997609615">
        <ele>238.06</ele>
        <time>2025-04-30T14:12:21Z</time>
      </trkpt>
      <trkpt lat="43.053225036710501" lon="-9.082420980557799">
        <ele>232.78</ele>
        <time>2025-04-30T14:12:27Z</time>
      </trkpt>
      <trkpt lat="43.053410025313497" lon="-9.082560958340764">
        <ele>231.81</ele>
        <time>2025-04-30T14:12:28Z</time>
      </trkpt>
      <trkpt lat="43.053609011694789" lon="-9.08265701495111">
        <ele>230.84999999999999</ele>
        <time>2025-04-30T14:12:29Z</time>
      </trkpt>
      <trkpt lat="43.054031962528825" lon="-9.082779977470636">
        <ele>229.41</ele>
        <time>2025-04-30T14:12:31Z</time>
      </trkpt>
      <trkpt lat="43.054255004972219" lon="-9.082789029926062">
        <ele>228.44999999999999</ele>
        <time>2025-04-30T14:12:32Z</time>
      </trkpt>
      <trkpt lat="43.055121023207903" lon="-9.082818031311035">
        <ele>223.63999999999999</ele>
        <time>2025-04-30T14:12:36Z</time>
      </trkpt>
      <trkpt lat="43.055335013195872" lon="-9.082890031859279">
        <ele>222.19999999999999</ele>
        <time>2025-04-30T14:12:37Z</time>
      </trkpt>
      <trkpt lat="43.055570963770151" lon="-9.082967983558774">
        <ele>220.75999999999999</ele>
        <time>2025-04-30T14:12:38Z</time>
      </trkpt>
      <trkpt lat="43.057190012186766" lon="-9.083960987627506">
        <ele>216.91</ele>
        <time>2025-04-30T14:12:46Z</time>
      </trkpt>
      <trkpt lat="43.058155020698905" lon="-9.084903029724956">
        <ele>221.72</ele>
        <time>2025-04-30T14:12:53Z</time>
      </trkpt>
      <trkpt lat="43.05842399597168" lon="-9.085200000554323">
        <ele>222.68000000000001</ele>
        <time>2025-04-30T14:12:56Z</time>
      </trkpt>
      <trkpt lat="43.058473030105233" lon="-9.085296979174018">
        <ele>222.68000000000001</ele>
        <time>2025-04-30T14:12:57Z</time>
      </trkpt>
      <trkpt lat="43.058514017611742" lon="-9.085379960015416">
        <ele>223.16</ele>
        <time>2025-04-30T14:12:58Z</time>
      </trkpt>
      <trkpt lat="43.058546958491206" lon="-9.085446009412408">
        <ele>223.16</ele>
        <time>2025-04-30T14:12:59Z</time>
      </trkpt>
      <trkpt lat="43.05857403203845" lon="-9.085498983040452">
        <ele>223.16</ele>
        <time>2025-04-30T14:13:00Z</time>
      </trkpt>
      <trkpt lat="43.05859599262476" lon="-9.085542988032103">
        <ele>223.16</ele>
        <time>2025-04-30T14:13:01Z</time>
      </trkpt>
      <trkpt lat="43.058624994009733" lon="-9.085599984973669">
        <ele>223.16</ele>
        <time>2025-04-30T14:13:09Z</time>
      </trkpt>
      <trkpt lat="43.058661036193371" lon="-9.085671985521913">
        <ele>223.16</ele>
        <time>2025-04-30T14:13:16Z</time>
      </trkpt>
      <trkpt lat="43.058661036193371" lon="-9.085671985521913">
        <ele>223.16</ele>
        <time>2025-04-30T14:13:17Z</time>
      </trkpt>
      <trkpt lat="43.058635974302888" lon="-9.085694029927254">
        <ele>223.16</ele>
        <time>2025-04-30T14:13:18Z</time>
      </trkpt>
      <trkpt lat="43.05857302621007" lon="-9.08575102686882">
        <ele>223.16</ele>
        <time>2025-04-30T14:13:19Z</time>
      </trkpt>
      <trkpt lat="43.058497002348304" lon="-9.085820009931922">
        <ele>223.16</ele>
        <time>2025-04-30T14:13:20Z</time>
      </trkpt>
      <trkpt lat="43.058413015678525" lon="-9.085892010480166">
        <ele>223.63999999999999</ele>
        <time>2025-04-30T14:13:21Z</time>
      </trkpt>
      <trkpt lat="43.058291980996728" lon="-9.085953030735254">
        <ele>223.63999999999999</ele>
        <time>2025-04-30T14:13:22Z</time>
      </trkpt>
      <trkpt lat="43.057376006618142" lon="-9.086573962122202">
        <ele>226.05000000000001</ele>
        <time>2025-04-30T14:13:28Z</time>
      </trkpt>
      <trkpt lat="43.057234017178416" lon="-9.086731960996985">
        <ele>227.00999999999999</ele>
        <time>2025-04-30T14:13:29Z</time>
      </trkpt>
      <trkpt lat="43.057103008031845" lon="-9.086904041469097">
        <ele>227.49000000000001</ele>
        <time>2025-04-30T14:13:30Z</time>
      </trkpt>
      <trkpt lat="43.056965041905642" lon="-9.087088024243712">
        <ele>227.97</ele>
        <time>2025-04-30T14:13:31Z</time>
      </trkpt>
      <trkpt lat="43.056858005002141" lon="-9.087289022281766">
        <ele>228.44999999999999</ele>
        <time>2025-04-30T14:13:32Z</time>
      </trkpt>
      <trkpt lat="43.056757003068924" lon="-9.08751298673451">
        <ele>228.93000000000001</ele>
        <time>2025-04-30T14:13:33Z</time>
      </trkpt>
      <trkpt lat="43.056671004742384" lon="-9.087755978107452">
        <ele>229.88999999999999</ele>
        <time>2025-04-30T14:13:34Z</time>
      </trkpt>
      <trkpt lat="43.056582994759083" lon="-9.088003998622298">
        <ele>229.88999999999999</ele>
        <time>2025-04-30T14:13:35Z</time>
      </trkpt>
      <trkpt lat="43.056520968675613" lon="-9.088273979723454">
        <ele>230.84999999999999</ele>
        <time>2025-04-30T14:13:36Z</time>
      </trkpt>
      <trkpt lat="43.05646900087595" lon="-9.088553013280034">
        <ele>231.33000000000001</ele>
        <time>2025-04-30T14:13:37Z</time>
      </trkpt>
      <trkpt lat="43.055849997326732" lon="-9.09112399443984">
        <ele>235.18000000000001</ele>
        <time>2025-04-30T14:13:46Z</time>
      </trkpt>
      <trkpt lat="43.054822040721774" lon="-9.094362007454038">
        <ele>236.13999999999999</ele>
        <time>2025-04-30T14:13:57Z</time>
      </trkpt>
      <trkpt lat="43.054257016628981" lon="-9.095777040347457">
        <ele>234.69999999999999</ele>
        <time>2025-04-30T14:14:02Z</time>
      </trkpt>
      <trkpt lat="43.054108992218971" lon="-9.096017014235258">
        <ele>234.22</ele>
        <time>2025-04-30T14:14:03Z</time>
      </trkpt>
      <trkpt lat="43.053920986130834" lon="-9.096205020323396">
        <ele>233.74000000000001</ele>
        <time>2025-04-30T14:14:04Z</time>
      </trkpt>
      <trkpt lat="43.053732980042696" lon="-9.096390008926392">
        <ele>232.78</ele>
        <time>2025-04-30T14:14:05Z</time>
      </trkpt>
      <trkpt lat="43.053530976176262" lon="-9.096552031114698">
        <ele>231.81</ele>
        <time>2025-04-30T14:14:06Z</time>
      </trkpt>
      <trkpt lat="43.053322015330195" lon="-9.096697960048914">
        <ele>230.37</ele>
        <time>2025-04-30T14:14:07Z</time>
      </trkpt>
      <trkpt lat="43.05309796705842" lon="-9.096830980852246">
        <ele>229.41</ele>
        <time>2025-04-30T14:14:08Z</time>
      </trkpt>
      <trkpt lat="43.050978016108274" lon="-9.098204020410776">
        <ele>220.75999999999999</ele>
        <time>2025-04-30T14:14:18Z</time>
      </trkpt>
      <trkpt lat="43.049989035353065" lon="-9.099570019170642">
        <ele>215.94999999999999</ele>
        <time>2025-04-30T14:14:24Z</time>
      </trkpt>
      <trkpt lat="43.048649020493031" lon="-9.101962968707085">
        <ele>204.41999999999999</ele>
        <time>2025-04-30T14:14:34Z</time>
      </trkpt>
      <trkpt lat="43.047599019482732" lon="-9.103372972458601">
        <ele>196.72999999999999</ele>
        <time>2025-04-30T14:14:40Z</time>
      </trkpt>
      <trkpt lat="43.045988017693162" lon="-9.105257978662849">
        <ele>185.19</ele>
        <time>2025-04-30T14:14:48Z</time>
      </trkpt>
      <trkpt lat="43.045244039967656" lon="-9.105970021337271">
        <ele>182.31</ele>
        <time>2025-04-30T14:14:52Z</time>
      </trkpt>
      <trkpt lat="43.045068020001054" lon="-9.106090972200036">
        <ele>181.83000000000001</ele>
        <time>2025-04-30T14:14:53Z</time>
      </trkpt>
      <trkpt lat="43.044883031398058" lon="-9.106168001890183">
        <ele>181.83000000000001</ele>
        <time>2025-04-30T14:14:54Z</time>
      </trkpt>
      <trkpt lat="43.04469795897603" lon="-9.106232961639762">
        <ele>181.34999999999999</ele>
        <time>2025-04-30T14:14:55Z</time>
      </trkpt>
      <trkpt lat="43.044510958716273" lon="-9.106299011036754">
        <ele>181.34999999999999</ele>
        <time>2025-04-30T14:14:56Z</time>
      </trkpt>
      <trkpt lat="43.042970029637218" lon="-9.107066038995981">
        <ele>181.34999999999999</ele>
        <time>2025-04-30T14:15:04Z</time>
      </trkpt>
      <trkpt lat="43.041364978998899" lon="-9.108567992225289">
        <ele>185.19</ele>
        <time>2025-04-30T14:15:13Z</time>
      </trkpt>
      <trkpt lat="43.040105011314154" lon="-9.10951497964561">
        <ele>188.56</ele>
        <time>2025-04-30T14:15:20Z</time>
      </trkpt>
      <trkpt lat="43.038472970947623" lon="-9.110019989311695">
        <ele>193.36000000000001</ele>
        <time>2025-04-30T14:15:28Z</time>
      </trkpt>
      <trkpt lat="43.036200972273946" lon="-9.110702024772763">
        <ele>200.09</ele>
        <time>2025-04-30T14:15:39Z</time>
      </trkpt>
      <trkpt lat="43.034224016591907" lon="-9.11190097220242">
        <ele>207.30000000000001</ele>
        <time>2025-04-30T14:15:50Z</time>
      </trkpt>
      <trkpt lat="43.031929973512888" lon="-9.113390017300844">
        <ele>213.06999999999999</ele>
        <time>2025-04-30T14:16:03Z</time>
      </trkpt>
      <trkpt lat="43.031367966905236" lon="-9.113695034757257">
        <ele>214.99000000000001</ele>
        <time>2025-04-30T14:16:06Z</time>
      </trkpt>
      <trkpt lat="43.031169986352324" lon="-9.113735016435385">
        <ele>215.47</ele>
        <time>2025-04-30T14:16:07Z</time>
      </trkpt>
      <trkpt lat="43.030969994142652" lon="-9.113774998113513">
        <ele>215.94999999999999</ele>
        <time>2025-04-30T14:16:08Z</time>
      </trkpt>
      <trkpt lat="43.030768996104598" lon="-9.113814979791641">
        <ele>216.43000000000001</ele>
        <time>2025-04-30T14:16:09Z</time>
      </trkpt>
      <trkpt lat="43.030563974753022" lon="-9.113802993670106">
        <ele>216.91</ele>
        <time>2025-04-30T14:16:10Z</time>
      </trkpt>
      <trkpt lat="43.030353002250195" lon="-9.113773992285132">
        <ele>216.91</ele>
        <time>2025-04-30T14:16:11Z</time>
      </trkpt>
      <trkpt lat="43.030144963413477" lon="-9.113714983686805">
        <ele>217.40000000000001</ele>
        <time>2025-04-30T14:16:12Z</time>
      </trkpt>
      <trkpt lat="43.029950000345707" lon="-9.113630997017026">
        <ele>217.88</ele>
        <time>2025-04-30T14:16:13Z</time>
      </trkpt>
      <trkpt lat="43.029743973165751" lon="-9.113486995920539">
        <ele>217.88</ele>
        <time>2025-04-30T14:16:14Z</time>
      </trkpt>
      <trkpt lat="43.029544986784458" lon="-9.113348023965955">
        <ele>217.88</ele>
        <time>2025-04-30T14:16:15Z</time>
      </trkpt>
      <trkpt lat="43.029358992353082" lon="-9.113189019262791">
        <ele>218.36000000000001</ele>
        <time>2025-04-30T14:16:16Z</time>
      </trkpt>
      <trkpt lat="43.027913030236959" lon="-9.111961992457509">
        <ele>220.28</ele>
        <time>2025-04-30T14:16:24Z</time>
      </trkpt>
      <trkpt lat="43.027556966990232" lon="-9.111708020791411">
        <ele>220.75999999999999</ele>
        <time>2025-04-30T14:16:26Z</time>
      </trkpt>
      <trkpt lat="43.027365021407604" lon="-9.111636020243168">
        <ele>221.24000000000001</ele>
        <time>2025-04-30T14:16:27Z</time>
      </trkpt>
      <trkpt lat="43.027181960642338" lon="-9.111570976674557">
        <ele>221.72</ele>
        <time>2025-04-30T14:16:28Z</time>
      </trkpt>
      <trkpt lat="43.02699001505971" lon="-9.111553961411119">
        <ele>221.72</ele>
        <time>2025-04-30T14:16:29Z</time>
      </trkpt>
      <trkpt lat="43.026799997314811" lon="-9.111537029966712">
        <ele>222.19999999999999</ele>
        <time>2025-04-30T14:16:30Z</time>
      </trkpt>
      <trkpt lat="43.026615008711815" lon="-9.111544992774725">
        <ele>222.68000000000001</ele>
        <time>2025-04-30T14:16:31Z</time>
      </trkpt>
      <trkpt lat="43.026427002623677" lon="-9.111578017473221">
        <ele>222.68000000000001</ele>
        <time>2025-04-30T14:16:32Z</time>
      </trkpt>
      <trkpt lat="43.026248971000314" lon="-9.111630991101265">
        <ele>222.68000000000001</ele>
        <time>2025-04-30T14:16:33Z</time>
      </trkpt>
      <trkpt lat="43.026070017367601" lon="-9.111702991649509">
        <ele>223.16</ele>
        <time>2025-04-30T14:16:34Z</time>
      </trkpt>
      <trkpt lat="43.025888968259096" lon="-9.111774992197752">
        <ele>223.16</ele>
        <time>2025-04-30T14:16:35Z</time>
      </trkpt>
      <trkpt lat="43.023458970710635" lon="-9.112971005961299">
        <ele>218.36000000000001</ele>
        <time>2025-04-30T14:16:48Z</time>
      </trkpt>
      <trkpt lat="43.021897003054619" lon="-9.113749014213681">
        <ele>216.91</ele>
        <time>2025-04-30T14:16:57Z</time>
      </trkpt>
      <trkpt lat="43.021430969238281" lon="-9.114082027226687">
        <ele>217.40000000000001</ele>
        <time>2025-04-30T14:17:00Z</time>
      </trkpt>
      <trkpt lat="43.021283028647304" lon="-9.114239020273089">
        <ele>217.40000000000001</ele>
        <time>2025-04-30T14:17:01Z</time>
      </trkpt>
      <trkpt lat="43.021142967045307" lon="-9.114411016926169">
        <ele>217.40000000000001</ele>
        <time>2025-04-30T14:17:02Z</time>
      </trkpt>
      <trkpt lat="43.020899975672364" lon="-9.114800021052361">
        <ele>217.40000000000001</ele>
        <time>2025-04-30T14:17:04Z</time>
      </trkpt>
      <trkpt lat="43.020787993445992" lon="-9.114982997998595">
        <ele>217.40000000000001</ele>
        <time>2025-04-30T14:17:05Z</time>
      </trkpt>
      <trkpt lat="43.020710041746497" lon="-9.115215009078383">
        <ele>217.40000000000001</ele>
        <time>2025-04-30T14:17:06Z</time>
      </trkpt>
      <trkpt lat="43.020634017884731" lon="-9.11544400267303">
        <ele>216.91</ele>
        <time>2025-04-30T14:17:07Z</time>
      </trkpt>
      <trkpt lat="43.020556988194585" lon="-9.115675007924438">
        <ele>216.91</ele>
        <time>2025-04-30T14:17:08Z</time>
      </trkpt>
      <trkpt lat="43.019866989925504" lon="-9.117753971368074">
        <ele>212.11000000000001</ele>
        <time>2025-04-30T14:17:17Z</time>
      </trkpt>
      <trkpt lat="43.019026033580303" lon="-9.118869015946984">
        <ele>207.30000000000001</ele>
        <time>2025-04-30T14:17:23Z</time>
      </trkpt>
      <trkpt lat="43.017578981816769" lon="-9.119922034442425">
        <ele>196.72999999999999</ele>
        <time>2025-04-30T14:17:31Z</time>
      </trkpt>
      <trkpt lat="43.017117977142334" lon="-9.120518993586302">
        <ele>191.44</ele>
        <time>2025-04-30T14:17:34Z</time>
      </trkpt>
      <trkpt lat="43.017005994915962" lon="-9.120716974139214">
        <ele>190</ele>
        <time>2025-04-30T14:17:35Z</time>
      </trkpt>
      <trkpt lat="43.016892001032829" lon="-9.120958037674427">
        <ele>188.08000000000001</ele>
        <time>2025-04-30T14:17:36Z</time>
      </trkpt>
      <trkpt lat="43.016790999099612" lon="-9.121207986027002">
        <ele>186.15000000000001</ele>
        <time>2025-04-30T14:17:37Z</time>
      </trkpt>
      <trkpt lat="43.016726961359382" lon="-9.121488025411964">
        <ele>184.71000000000001</ele>
        <time>2025-04-30T14:17:38Z</time>
      </trkpt>
      <trkpt lat="43.016668036580086" lon="-9.121768986806274">
        <ele>182.78999999999999</ele>
        <time>2025-04-30T14:17:39Z</time>
      </trkpt>
      <trkpt lat="43.016598969697952" lon="-9.122056988999248">
        <ele>180.87</ele>
        <time>2025-04-30T14:17:40Z</time>
      </trkpt>
      <trkpt lat="43.016134025529027" lon="-9.124458990991116">
        <ele>166.44999999999999</ele>
        <time>2025-04-30T14:17:48Z</time>
      </trkpt>
      <trkpt lat="43.015738986432552" lon="-9.125942001119256">
        <ele>161.16</ele>
        <time>2025-04-30T14:17:53Z</time>
      </trkpt>
      <trkpt lat="43.015326010063291" lon="-9.126710034906864">
        <ele>159.72</ele>
        <time>2025-04-30T14:17:56Z</time>
      </trkpt>
      <trkpt lat="43.015176979824901" lon="-9.126941040158272">
        <ele>159.24000000000001</ele>
        <time>2025-04-30T14:17:57Z</time>
      </trkpt>
      <trkpt lat="43.014149023219943" lon="-9.128197990357876">
        <ele>161.63999999999999</ele>
        <time>2025-04-30T14:18:03Z</time>
      </trkpt>
      <trkpt lat="43.014008961617947" lon="-9.128445005044341">
        <ele>162.59999999999999</ele>
        <time>2025-04-30T14:18:04Z</time>
      </trkpt>
      <trkpt lat="43.01388499327004" lon="-9.128703000023961">
        <ele>163.56</ele>
        <time>2025-04-30T14:18:05Z</time>
      </trkpt>
      <trkpt lat="43.013801006600261" lon="-9.128997959196568">
        <ele>164.52000000000001</ele>
        <time>2025-04-30T14:18:06Z</time>
      </trkpt>
      <trkpt lat="43.013717019930482" lon="-9.129293002188206">
        <ele>165.47999999999999</ele>
        <time>2025-04-30T14:18:07Z</time>
      </trkpt>
      <trkpt lat="43.013676032423973" lon="-9.129593996331096">
        <ele>166.93000000000001</ele>
        <time>2025-04-30T14:18:08Z</time>
      </trkpt>
      <trkpt lat="43.013665974140167" lon="-9.12990303710103">
        <ele>167.88999999999999</ele>
        <time>2025-04-30T14:18:09Z</time>
      </trkpt>
      <trkpt lat="43.013680977746844" lon="-9.130212999880314">
        <ele>169.33000000000001</ele>
        <time>2025-04-30T14:18:10Z</time>
      </trkpt>
      <trkpt lat="43.013737974688411" lon="-9.130506031215191">
        <ele>170.28999999999999</ele>
        <time>2025-04-30T14:18:11Z</time>
      </trkpt>
      <trkpt lat="43.013812992721796" lon="-9.130796967074275">
        <ele>171.72999999999999</ele>
        <time>2025-04-30T14:18:12Z</time>
      </trkpt>
      <trkpt lat="43.013919023796916" lon="-9.131068959832192">
        <ele>173.16999999999999</ele>
        <time>2025-04-30T14:18:13Z</time>
      </trkpt>
      <trkpt lat="43.014039974659681" lon="-9.131332989782095">
        <ele>174.62</ele>
        <time>2025-04-30T14:18:14Z</time>
      </trkpt>
      <trkpt lat="43.014180036261678" lon="-9.131582016125321">
        <ele>176.53999999999999</ele>
        <time>2025-04-30T14:18:15Z</time>
      </trkpt>
      <trkpt lat="43.014337029308081" lon="-9.131800029426813">
        <ele>177.97999999999999</ele>
        <time>2025-04-30T14:18:16Z</time>
      </trkpt>
      <trkpt lat="43.014915967360139" lon="-9.132608966901898">
        <ele>184.22999999999999</ele>
        <time>2025-04-30T14:18:20Z</time>
      </trkpt>
      <trkpt lat="43.015032978728414" lon="-9.132851036265492">
        <ele>185.19</ele>
        <time>2025-04-30T14:18:21Z</time>
      </trkpt>
      <trkpt lat="43.015131969004869" lon="-9.133113976567984">
        <ele>186.63</ele>
        <time>2025-04-30T14:18:22Z</time>
      </trkpt>
      <trkpt lat="43.015230037271976" lon="-9.133371971547604">
        <ele>188.08000000000001</ele>
        <time>2025-04-30T14:18:23Z</time>
      </trkpt>
      <trkpt lat="43.01525903865695" lon="-9.133638013154268">
        <ele>189.03999999999999</ele>
        <time>2025-04-30T14:18:24Z</time>
      </trkpt>
      <trkpt lat="43.015288040041924" lon="-9.133913023397327">
        <ele>190</ele>
        <time>2025-04-30T14:18:25Z</time>
      </trkpt>
      <trkpt lat="43.015294997021556" lon="-9.134184010326862">
        <ele>190.96000000000001</ele>
        <time>2025-04-30T14:18:26Z</time>
      </trkpt>
      <trkpt lat="43.015279993414879" lon="-9.134448962286115">
        <ele>191.91999999999999</ele>
        <time>2025-04-30T14:18:27Z</time>
      </trkpt>
      <trkpt lat="43.015225008130074" lon="-9.134710980579257">
        <ele>192.88</ele>
        <time>2025-04-30T14:18:28Z</time>
      </trkpt>
      <trkpt lat="43.015170022845268" lon="-9.134966963902116">
        <ele>193.84</ele>
        <time>2025-04-30T14:18:29Z</time>
      </trkpt>
      <trkpt lat="43.015100033953786" lon="-9.135204004123807">
        <ele>194.80000000000001</ele>
        <time>2025-04-30T14:18:30Z</time>
      </trkpt>
      <trkpt lat="43.015009006485343" lon="-9.135439032688737">
        <ele>195.28</ele>
        <time>2025-04-30T14:18:31Z</time>
      </trkpt>
      <trkpt lat="43.014908004552126" lon="-9.135689986869693">
        <ele>195.77000000000001</ele>
        <time>2025-04-30T14:18:32Z</time>
      </trkpt>
      <trkpt lat="43.014521012082696" lon="-9.136636974290013">
        <ele>196.72999999999999</ele>
        <time>2025-04-30T14:18:36Z</time>
      </trkpt>
      <trkpt lat="43.014435013756156" lon="-9.136895975098014">
        <ele>196.72999999999999</ele>
        <time>2025-04-30T14:18:37Z</time>
      </trkpt>
      <trkpt lat="43.01408096216619" lon="-9.138273959979415">
        <ele>194.80000000000001</ele>
        <time>2025-04-30T14:18:42Z</time>
      </trkpt>
      <trkpt lat="43.013981971889734" lon="-9.138531032949686">
        <ele>193.36000000000001</ele>
        <time>2025-04-30T14:18:43Z</time>
      </trkpt>
      <trkpt lat="43.013861021026969" lon="-9.138783998787403">
        <ele>192.40000000000001</ele>
        <time>2025-04-30T14:18:44Z</time>
      </trkpt>
      <trkpt lat="43.01373403519392" lon="-9.139022966846824">
        <ele>191.44</ele>
        <time>2025-04-30T14:18:45Z</time>
      </trkpt>
      <trkpt lat="43.013576958328485" lon="-9.139235028997064">
        <ele>190.47999999999999</ele>
        <time>2025-04-30T14:18:46Z</time>
      </trkpt>
      <trkpt lat="43.013417031615973" lon="-9.139450024813414">
        <ele>189.03999999999999</ele>
        <time>2025-04-30T14:18:47Z</time>
      </trkpt>
      <trkpt lat="43.012976981699467" lon="-9.14013197645545">
        <ele>184.71000000000001</ele>
        <time>2025-04-30T14:18:50Z</time>
      </trkpt>
      <trkpt lat="43.012859970331192" lon="-9.140408998355269">
        <ele>183.27000000000001</ele>
        <time>2025-04-30T14:18:51Z</time>
      </trkpt>
      <trkpt lat="43.012743964791298" lon="-9.140681996941567">
        <ele>181.83000000000001</ele>
        <time>2025-04-30T14:18:52Z</time>
      </trkpt>
      <trkpt lat="43.012666013091803" lon="-9.140980979427695">
        <ele>179.90000000000001</ele>
        <time>2025-04-30T14:18:53Z</time>
      </trkpt>
      <trkpt lat="43.012589989230037" lon="-9.141280967742205">
        <ele>178.46000000000001</ele>
        <time>2025-04-30T14:18:54Z</time>
      </trkpt>
      <trkpt lat="43.012559982016683" lon="-9.141592020168901">
        <ele>177.02000000000001</ele>
        <time>2025-04-30T14:18:55Z</time>
      </trkpt>
      <trkpt lat="43.012528968974948" lon="-9.141903994604945">
        <ele>175.09999999999999</ele>
        <time>2025-04-30T14:18:56Z</time>
      </trkpt>
      <trkpt lat="43.012555036693811" lon="-9.142220998182893">
        <ele>173.66</ele>
        <time>2025-04-30T14:18:57Z</time>
      </trkpt>
      <trkpt lat="43.012586971744895" lon="-9.142541019245982">
        <ele>171.72999999999999</ele>
        <time>2025-04-30T14:18:58Z</time>
      </trkpt>
      <trkpt lat="43.012648997828364" lon="-9.142851987853646">
        <ele>170.28999999999999</ele>
        <time>2025-04-30T14:18:59Z</time>
      </trkpt>
      <trkpt lat="43.012714963406324" lon="-9.143163962289691">
        <ele>168.37</ele>
        <time>2025-04-30T14:19:00Z</time>
      </trkpt>
      <trkpt lat="43.012933982536197" lon="-9.144401969388127">
        <ele>161.63999999999999</ele>
        <time>2025-04-30T14:19:04Z</time>
      </trkpt>
      <trkpt lat="43.01291897892952" lon="-9.14468402042985">
        <ele>160.19999999999999</ele>
        <time>2025-04-30T14:19:05Z</time>
      </trkpt>
      <trkpt lat="43.012901963666081" lon="-9.144981997087598">
        <ele>158.75</ele>
        <time>2025-04-30T14:19:06Z</time>
      </trkpt>
      <trkpt lat="43.012866005301476" lon="-9.145278967916966">
        <ele>157.78999999999999</ele>
        <time>2025-04-30T14:19:07Z</time>
      </trkpt>
      <trkpt lat="43.012797022238374" lon="-9.145568981766701">
        <ele>156.83000000000001</ele>
        <time>2025-04-30T14:19:08Z</time>
      </trkpt>
      <trkpt lat="43.012714041396976" lon="-9.14584600366652">
        <ele>155.87</ele>
        <time>2025-04-30T14:19:09Z</time>
      </trkpt>
      <trkpt lat="43.01261899061501" lon="-9.146106010302901">
        <ele>154.91</ele>
        <time>2025-04-30T14:19:10Z</time>
      </trkpt>
      <trkpt lat="43.012487981468439" lon="-9.146337015554309">
        <ele>153.94999999999999</ele>
        <time>2025-04-30T14:19:11Z</time>
      </trkpt>
      <trkpt lat="43.012340040877461" lon="-9.146549999713898">
        <ele>152.99000000000001</ele>
        <time>2025-04-30T14:19:12Z</time>
      </trkpt>
      <trkpt lat="43.012192016467452" lon="-9.146755021065474">
        <ele>152.03</ele>
        <time>2025-04-30T14:19:13Z</time>
      </trkpt>
      <trkpt lat="43.012041980400681" lon="-9.146945038810372">
        <ele>151.53999999999999</ele>
        <time>2025-04-30T14:19:14Z</time>
      </trkpt>
      <trkpt lat="43.01137201488018" lon="-9.147918010130525">
        <ele>148.18000000000001</ele>
        <time>2025-04-30T14:19:19Z</time>
      </trkpt>
      <trkpt lat="43.011274030432105" lon="-9.148148009553552">
        <ele>147.69999999999999</ele>
        <time>2025-04-30T14:19:20Z</time>
      </trkpt>
      <trkpt lat="43.011185014620423" lon="-9.148375997319818">
        <ele>147.69999999999999</ele>
        <time>2025-04-30T14:19:21Z</time>
      </trkpt>
      <trkpt lat="43.011128017678857" lon="-9.148615971207619">
        <ele>147.22</ele>
        <time>2025-04-30T14:19:22Z</time>
      </trkpt>
      <trkpt lat="43.011074038222432" lon="-9.148845970630646">
        <ele>146.25999999999999</ele>
        <time>2025-04-30T14:19:23Z</time>
      </trkpt>
      <trkpt lat="43.011020980775356" lon="-9.149067001417279">
        <ele>145.78</ele>
        <time>2025-04-30T14:19:24Z</time>
      </trkpt>
      <trkpt lat="43.010456040501595" lon="-9.151289965957403">
        <ele>142.41</ele>
        <time>2025-04-30T14:19:34Z</time>
      </trkpt>
      <trkpt lat="43.010058989748359" lon="-9.153072964400053">
        <ele>140.97</ele>
        <time>2025-04-30T14:19:42Z</time>
      </trkpt>
      <trkpt lat="43.010058989748359" lon="-9.153297012671828">
        <ele>141.44999999999999</ele>
        <time>2025-04-30T14:19:43Z</time>
      </trkpt>
      <trkpt lat="43.010080028325319" lon="-9.153503961861134">
        <ele>141.44999999999999</ele>
        <time>2025-04-30T14:19:44Z</time>
      </trkpt>
      <trkpt lat="43.010099977254868" lon="-9.153700014576316">
        <ele>142.41</ele>
        <time>2025-04-30T14:19:45Z</time>
      </trkpt>
      <trkpt lat="43.010111963376403" lon="-9.153886009007692">
        <ele>142.88999999999999</ele>
        <time>2025-04-30T14:19:46Z</time>
      </trkpt>
      <trkpt lat="43.010194022208452" lon="-9.154233019798994">
        <ele>143.84999999999999</ele>
        <time>2025-04-30T14:19:48Z</time>
      </trkpt>
      <trkpt lat="43.010606998577714" lon="-9.155791969969869">
        <ele>146.25999999999999</ele>
        <time>2025-04-30T14:19:58Z</time>
      </trkpt>
      <trkpt lat="43.010659972205758" lon="-9.156117020174861">
        <ele>145.30000000000001</ele>
        <time>2025-04-30T14:20:00Z</time>
      </trkpt>
      <trkpt lat="43.010680004954338" lon="-9.156278958544135">
        <ele>144.81999999999999</ele>
        <time>2025-04-30T14:20:01Z</time>
      </trkpt>
      <trkpt lat="43.010681010782719" lon="-9.156434023752809">
        <ele>144.81999999999999</ele>
        <time>2025-04-30T14:20:02Z</time>
      </trkpt>
      <trkpt lat="43.010680004954338" lon="-9.156591016799212">
        <ele>144.34</ele>
        <time>2025-04-30T14:20:03Z</time>
      </trkpt>
      <trkpt lat="43.010668018832803" lon="-9.156752033159137">
        <ele>143.84999999999999</ele>
        <time>2025-04-30T14:20:04Z</time>
      </trkpt>
      <trkpt lat="43.010376999154687" lon="-9.158032033592463">
        <ele>138.09</ele>
        <time>2025-04-30T14:20:11Z</time>
      </trkpt>
      <trkpt lat="43.009884981438518" lon="-9.159999014809728">
        <ele>130.88</ele>
        <time>2025-04-30T14:20:19Z</time>
      </trkpt>
      <trkpt lat="43.009630003944039" lon="-9.162932010367513">
        <ele>127.03</ele>
        <time>2025-04-30T14:20:30Z</time>
      </trkpt>
      <trkpt lat="43.009708961471915" lon="-9.166336990892887">
        <ele>130.40000000000001</ele>
        <time>2025-04-30T14:20:42Z</time>
      </trkpt>
      <trkpt lat="43.00967400893569" lon="-9.166853986680508">
        <ele>130.88</ele>
        <time>2025-04-30T14:20:44Z</time>
      </trkpt>
      <trkpt lat="43.009608965367079" lon="-9.16709303855896">
        <ele>130.88</ele>
        <time>2025-04-30T14:20:45Z</time>
      </trkpt>
      <trkpt lat="43.00954501144588" lon="-9.167328989133239">
        <ele>130.88</ele>
        <time>2025-04-30T14:20:46Z</time>
      </trkpt>
      <trkpt lat="43.009467981755733" lon="-9.167550019919872">
        <ele>130.40000000000001</ele>
        <time>2025-04-30T14:20:47Z</time>
      </trkpt>
      <trkpt lat="43.009372008964419" lon="-9.167726039886475">
        <ele>129.91999999999999</ele>
        <time>2025-04-30T14:20:48Z</time>
      </trkpt>
      <trkpt lat="43.009213004261255" lon="-9.167922008782625">
        <ele>129.91999999999999</ele>
        <time>2025-04-30T14:20:49Z</time>
      </trkpt>
      <trkpt lat="43.009065985679626" lon="-9.168101968243718">
        <ele>129.43000000000001</ele>
        <time>2025-04-30T14:20:50Z</time>
      </trkpt>
      <trkpt lat="43.008916033431888" lon="-9.168286034837365">
        <ele>128.94999999999999</ele>
        <time>2025-04-30T14:20:51Z</time>
      </trkpt>
      <trkpt lat="43.008338017389178" lon="-9.169105030596256">
        <ele>127.03</ele>
        <time>2025-04-30T14:20:55Z</time>
      </trkpt>
      <trkpt lat="43.008207008242607" lon="-9.169332012534142">
        <ele>126.55</ele>
        <time>2025-04-30T14:20:56Z</time>
      </trkpt>
      <trkpt lat="43.007339984178543" lon="-9.170934967696667">
        <ele>121.26000000000001</ele>
        <time>2025-04-30T14:21:03Z</time>
      </trkpt>
      <trkpt lat="43.007177961990237" lon="-9.171118028461933">
        <ele>120.3</ele>
        <time>2025-04-30T14:21:04Z</time>
      </trkpt>
      <trkpt lat="43.005455983802676" lon="-9.172974033281207">
        <ele>110.69</ele>
        <time>2025-04-30T14:21:14Z</time>
      </trkpt>
      <trkpt lat="43.005308965221047" lon="-9.17319699190557">
        <ele>109.25</ele>
        <time>2025-04-30T14:21:15Z</time>
      </trkpt>
      <trkpt lat="43.005187008529902" lon="-9.173439983278513">
        <ele>108.29000000000001</ele>
        <time>2025-04-30T14:21:16Z</time>
      </trkpt>
      <trkpt lat="43.004483012482524" lon="-9.174942020326853">
        <ele>100.59999999999999</ele>
        <time>2025-04-30T14:21:22Z</time>
      </trkpt>
      <trkpt lat="43.00432501360774" lon="-9.175145030021668">
        <ele>99.629999999999995</ele>
        <time>2025-04-30T14:21:23Z</time>
      </trkpt>
      <trkpt lat="43.004160979762673" lon="-9.175334963947535">
        <ele>98.670000000000002</ele>
        <time>2025-04-30T14:21:24Z</time>
      </trkpt>
      <trkpt lat="43.003982026129961" lon="-9.175491034984589">
        <ele>97.709999999999994</ele>
        <time>2025-04-30T14:21:25Z</time>
      </trkpt>
      <trkpt lat="43.003789996728301" lon="-9.175615003332496">
        <ele>96.75</ele>
        <time>2025-04-30T14:21:26Z</time>
      </trkpt>
      <trkpt lat="43.003586987033486" lon="-9.175693960860372">
        <ele>95.790000000000006</ele>
        <time>2025-04-30T14:21:27Z</time>
      </trkpt>
      <trkpt lat="43.003382971510291" lon="-9.17577400803566">
        <ele>94.829999999999998</ele>
        <time>2025-04-30T14:21:28Z</time>
      </trkpt>
      <trkpt lat="43.003179961815476" lon="-9.175852965563536">
        <ele>93.870000000000005</ele>
        <time>2025-04-30T14:21:29Z</time>
      </trkpt>
      <trkpt lat="43.001499976962805" lon="-9.176438022404909">
        <ele>90.5</ele>
        <time>2025-04-30T14:21:37Z</time>
      </trkpt>
      <trkpt lat="43.000229028984904" lon="-9.177231034263969">
        <ele>92.900000000000006</ele>
        <time>2025-04-30T14:21:43Z</time>
      </trkpt>
      <trkpt lat="42.998209996148944" lon="-9.178671967238188">
        <ele>94.829999999999998</ele>
        <time>2025-04-30T14:21:53Z</time>
      </trkpt>
      <trkpt lat="42.998030036687851" lon="-9.178768023848534">
        <ele>94.829999999999998</ele>
        <time>2025-04-30T14:21:54Z</time>
      </trkpt>
      <trkpt lat="42.997853010892868" lon="-9.178857039660215">
        <ele>94.829999999999998</ele>
        <time>2025-04-30T14:21:55Z</time>
      </trkpt>
      <trkpt lat="42.996373018249869" lon="-9.179529016837478">
        <ele>94.829999999999998</ele>
        <time>2025-04-30T14:22:04Z</time>
      </trkpt>
      <trkpt lat="42.99530197866261" lon="-9.180562002584338">
        <ele>97.230000000000004</ele>
        <time>2025-04-30T14:22:12Z</time>
      </trkpt>
      <trkpt lat="42.995154038071632" lon="-9.180685970932245">
        <ele>97.230000000000004</ele>
        <time>2025-04-30T14:22:13Z</time>
      </trkpt>
      <trkpt lat="42.993609001860023" lon="-9.181834040209651">
        <ele>96.75</ele>
        <time>2025-04-30T14:22:22Z</time>
      </trkpt>
      <trkpt lat="42.992148958146572" lon="-9.182684971019626">
        <ele>93.390000000000001</ele>
        <time>2025-04-30T14:22:29Z</time>
      </trkpt>
      <trkpt lat="42.990693021565676" lon="-9.183278996497393">
        <ele>91.459999999999994</ele>
        <time>2025-04-30T14:22:35Z</time>
      </trkpt>
      <trkpt lat="42.989117978140712" lon="-9.183914009481669">
        <ele>90.019999999999996</ele>
        <time>2025-04-30T14:22:44Z</time>
      </trkpt>
      <trkpt lat="42.986334012821317" lon="-9.185080016031861">
        <ele>88.099999999999994</ele>
        <time>2025-04-30T14:23:00Z</time>
      </trkpt>
      <trkpt lat="42.983554992824793" lon="-9.186148038133979">
        <ele>89.060000000000002</ele>
        <time>2025-04-30T14:23:15Z</time>
      </trkpt>
      <trkpt lat="42.981740981340408" lon="-9.186897967010737">
        <ele>91.939999999999998</ele>
        <time>2025-04-30T14:23:25Z</time>
      </trkpt>
      <trkpt lat="42.979883970692754" lon="-9.187628030776978">
        <ele>90.5</ele>
        <time>2025-04-30T14:23:36Z</time>
      </trkpt>
      <trkpt lat="42.978346981108189" lon="-9.188253991305828">
        <ele>87.620000000000005</ele>
        <time>2025-04-30T14:23:46Z</time>
      </trkpt>
      <trkpt lat="42.977954037487507" lon="-9.188407966867089">
        <ele>87.140000000000001</ele>
        <time>2025-04-30T14:23:50Z</time>
      </trkpt>
      <trkpt lat="42.977888993918896" lon="-9.188453983515501">
        <ele>87.140000000000001</ele>
        <time>2025-04-30T14:23:51Z</time>
      </trkpt>
      <trkpt lat="42.977838031947613" lon="-9.188489019870758">
        <ele>87.140000000000001</ele>
        <time>2025-04-30T14:23:52Z</time>
      </trkpt>
      <trkpt lat="42.977808024734259" lon="-9.188754977658391">
        <ele>86.659999999999997</ele>
        <time>2025-04-30T14:23:53Z</time>
      </trkpt>
      <trkpt lat="42.977808024734259" lon="-9.188754977658391">
        <ele>86.659999999999997</ele>
        <time>2025-04-30T14:23:54Z</time>
      </trkpt>
      <trkpt lat="42.977795032784343" lon="-9.188800994306803">
        <ele>86.180000000000007</ele>
        <time>2025-04-30T14:23:55Z</time>
      </trkpt>
      <trkpt lat="42.97776703722775" lon="-9.188896967098117">
        <ele>86.180000000000007</ele>
        <time>2025-04-30T14:23:56Z</time>
      </trkpt>
      <trkpt lat="42.977739963680506" lon="-9.188993023708463">
        <ele>86.180000000000007</ele>
        <time>2025-04-30T14:23:57Z</time>
      </trkpt>
      <trkpt lat="42.977675003930926" lon="-9.189086984843016">
        <ele>86.180000000000007</ele>
        <time>2025-04-30T14:23:58Z</time>
      </trkpt>
      <trkpt lat="42.97759898006916" lon="-9.18913702480495">
        <ele>86.180000000000007</ele>
        <time>2025-04-30T14:23:59Z</time>
      </trkpt>
      <trkpt lat="42.977593028917909" lon="-9.18914096429944">
        <ele>86.180000000000007</ele>
        <time>2025-04-30T14:24:00Z</time>
      </trkpt>
      <trkpt lat="42.977356994524598" lon="-9.189177006483078">
        <ele>85.689999999999998</ele>
        <time>2025-04-30T14:24:01Z</time>
      </trkpt>
      <trkpt lat="42.977313995361328" lon="-9.189291000366211">
        <ele>85.689999999999998</ele>
        <time>2025-04-30T14:24:02Z</time>
      </trkpt>
      <trkpt lat="42.977267978712916" lon="-9.189414968714118">
        <ele>85.689999999999998</ele>
        <time>2025-04-30T14:24:03Z</time>
      </trkpt>
      <trkpt lat="42.977224979549646" lon="-9.189554024487734">
        <ele>85.689999999999998</ele>
        <time>2025-04-30T14:24:04Z</time>
      </trkpt>
      <trkpt lat="42.977184997871518" lon="-9.189701965078712">
        <ele>85.689999999999998</ele>
        <time>2025-04-30T14:24:05Z</time>
      </trkpt>
      <trkpt lat="42.976741008460522" lon="-9.191034017130733">
        <ele>84.730000000000004</ele>
        <time>2025-04-30T14:24:12Z</time>
      </trkpt>
      <trkpt lat="42.975719003006816" lon="-9.192718025296927">
        <ele>85.209999999999994</ele>
        <time>2025-04-30T14:24:20Z</time>
      </trkpt>
      <trkpt lat="42.973528979346156" lon="-9.195783035829663">
        <ele>91.459999999999994</ele>
        <time>2025-04-30T14:24:34Z</time>
      </trkpt>
      <trkpt lat="42.971847988665104" lon="-9.198131980374456">
        <ele>102.04000000000001</ele>
        <time>2025-04-30T14:24:44Z</time>
      </trkpt>
      <trkpt lat="42.969342973083258" lon="-9.201608039438725">
        <ele>120.78</ele>
        <time>2025-04-30T14:24:58Z</time>
      </trkpt>
      <trkpt lat="42.966735027730465" lon="-9.20523002743721">
        <ele>143.37</ele>
        <time>2025-04-30T14:25:12Z</time>
      </trkpt>
      <trkpt lat="42.964832000434399" lon="-9.207674022763968">
        <ele>156.83000000000001</ele>
        <time>2025-04-30T14:25:22Z</time>
      </trkpt>
      <trkpt lat="42.963312026113272" lon="-9.208798035979271">
        <ele>161.16</ele>
        <time>2025-04-30T14:25:29Z</time>
      </trkpt>
      <trkpt lat="42.961317971348763" lon="-9.209451992064714">
        <ele>160.68000000000001</ele>
        <time>2025-04-30T14:25:37Z</time>
      </trkpt>
      <trkpt lat="42.957925982773304" lon="-9.21019496396184">
        <ele>149.62</ele>
        <time>2025-04-30T14:25:50Z</time>
      </trkpt>
      <trkpt lat="42.955419039353728" lon="-9.211151003837585">
        <ele>130.88</ele>
        <time>2025-04-30T14:26:00Z</time>
      </trkpt>
      <trkpt lat="42.953745005652308" lon="-9.212496969848871">
        <ele>115.98</ele>
        <time>2025-04-30T14:26:07Z</time>
      </trkpt>
      <trkpt lat="42.952312035486102" lon="-9.214387005195022">
        <ele>103</ele>
        <time>2025-04-30T14:26:14Z</time>
      </trkpt>
      <trkpt lat="42.950859032571316" lon="-9.216522965580225">
        <ele>88.579999999999998</ele>
        <time>2025-04-30T14:26:22Z</time>
      </trkpt>
      <trkpt lat="42.948584016412497" lon="-9.219855023548007">
        <ele>66.950000000000003</ele>
        <time>2025-04-30T14:26:35Z</time>
      </trkpt>
      <trkpt lat="42.94689598493278" lon="-9.222294995561242">
        <ele>51.090000000000003</ele>
        <time>2025-04-30T14:26:45Z</time>
      </trkpt>
      <trkpt lat="42.945782030001283" lon="-9.22349302098155">
        <ele>41.469999999999999</ele>
        <time>2025-04-30T14:26:53Z</time>
      </trkpt>
      <trkpt lat="42.944661034271121" lon="-9.224457023665309">
        <ele>33.299999999999997</ele>
        <time>2025-04-30T14:27:02Z</time>
      </trkpt>
      <trkpt lat="42.944558020681143" lon="-9.224518965929747">
        <ele>32.340000000000003</ele>
        <time>2025-04-30T14:27:03Z</time>
      </trkpt>
      <trkpt lat="42.944460036233068" lon="-9.224532041698694">
        <ele>31.379999999999999</ele>
        <time>2025-04-30T14:27:04Z</time>
      </trkpt>
      <trkpt lat="42.944366997107863" lon="-9.224540004506707">
        <ele>30.899999999999999</ele>
        <time>2025-04-30T14:27:05Z</time>
      </trkpt>
      <trkpt lat="42.944286027923226" lon="-9.22454503364861">
        <ele>29.940000000000001</ele>
        <time>2025-04-30T14:27:06Z</time>
      </trkpt>
      <trkpt lat="42.944204974919558" lon="-9.224529024213553">
        <ele>29.460000000000001</ele>
        <time>2025-04-30T14:27:07Z</time>
      </trkpt>
      <trkpt lat="42.944129034876823" lon="-9.224514020606875">
        <ele>28.5</ele>
        <time>2025-04-30T14:27:08Z</time>
      </trkpt>
      <trkpt lat="42.943990984931588" lon="-9.224675036966801">
        <ele>28.02</ele>
        <time>2025-04-30T14:27:09Z</time>
      </trkpt>
      <trkpt lat="42.94397204183042" lon="-9.224684005603194">
        <ele>27.530000000000001</ele>
        <time>2025-04-30T14:27:10Z</time>
      </trkpt>
      <trkpt lat="42.943904986605048" lon="-9.224718036130071">
        <ele>27.050000000000001</ele>
        <time>2025-04-30T14:27:11Z</time>
      </trkpt>
      <trkpt lat="42.943745981901884" lon="-9.22473999671638">
        <ele>27.050000000000001</ele>
        <time>2025-04-30T14:27:12Z</time>
      </trkpt>
      <trkpt lat="42.943671969696879" lon="-9.224862037226558">
        <ele>26.57</ele>
        <time>2025-04-30T14:27:13Z</time>
      </trkpt>
      <trkpt lat="42.943597035482526" lon="-9.224988017231226">
        <ele>26.57</ele>
        <time>2025-04-30T14:27:14Z</time>
      </trkpt>
      <trkpt lat="42.94347801245749" lon="-9.225236959755421">
        <ele>27.050000000000001</ele>
        <time>2025-04-30T14:27:16Z</time>
      </trkpt>
      <trkpt lat="42.943424033001065" lon="-9.225372998043895">
        <ele>27.050000000000001</ele>
        <time>2025-04-30T14:27:17Z</time>
      </trkpt>
      <trkpt lat="42.943339040502906" lon="-9.225629987195134">
        <ele>27.050000000000001</ele>
        <time>2025-04-30T14:27:19Z</time>
      </trkpt>
      <trkpt lat="42.942945007234812" lon="-9.227469982579351">
        <ele>22.25</ele>
        <time>2025-04-30T14:27:31Z</time>
      </trkpt>
      <trkpt lat="42.942954981699586" lon="-9.228421999141574">
        <ele>18.399999999999999</ele>
        <time>2025-04-30T14:27:37Z</time>
      </trkpt>
      <trkpt lat="42.942965039983392" lon="-9.228577986359596">
        <ele>17.920000000000002</ele>
        <time>2025-04-30T14:27:38Z</time>
      </trkpt>
      <trkpt lat="42.942994963377714" lon="-9.229051982983947">
        <ele>16</ele>
        <time>2025-04-30T14:27:41Z</time>
      </trkpt>
      <trkpt lat="42.943031005561352" lon="-9.229203024879098">
        <ele>15.039999999999999</ele>
        <time>2025-04-30T14:27:42Z</time>
      </trkpt>
      <trkpt lat="42.943123038858175" lon="-9.229493960738182">
        <ele>14.08</ele>
        <time>2025-04-30T14:27:44Z</time>
      </trkpt>
      <trkpt lat="42.943304004147649" lon="-9.230086980387569">
        <ele>11.67</ele>
        <time>2025-04-30T14:27:48Z</time>
      </trkpt>
      <trkpt lat="42.943329988047481" lon="-9.2302390281111">
        <ele>11.19</ele>
        <time>2025-04-30T14:27:49Z</time>
      </trkpt>
      <trkpt lat="42.943345997482538" lon="-9.230391997843981">
        <ele>10.23</ele>
        <time>2025-04-30T14:27:50Z</time>
      </trkpt>
      <trkpt lat="42.943325964733958" lon="-9.230542033910751">
        <ele>9.75</ele>
        <time>2025-04-30T14:27:51Z</time>
      </trkpt>
      <trkpt lat="42.943301992490888" lon="-9.230696009472013">
        <ele>9.27</ele>
        <time>2025-04-30T14:27:52Z</time>
      </trkpt>
      <trkpt lat="42.943281037732959" lon="-9.230849985033274">
        <ele>8.789999999999999</ele>
        <time>2025-04-30T14:27:53Z</time>
      </trkpt>
      <trkpt lat="42.942978031933308" lon="-9.232690986245871">
        <ele>1.1</ele>
        <time>2025-04-30T14:28:05Z</time>
      </trkpt>
      <trkpt lat="42.942922040820122" lon="-9.232827024534345">
        <ele>1.1</ele>
        <time>2025-04-30T14:28:06Z</time>
      </trkpt>
      <trkpt lat="42.94285599142313" lon="-9.232961973175407">
        <ele>1.58</ele>
        <time>2025-04-30T14:28:07Z</time>
      </trkpt>
      <trkpt lat="42.94218803755939" lon="-9.233986996114254">
        <ele>5.42</ele>
        <time>2025-04-30T14:28:16Z</time>
      </trkpt>
      <trkpt lat="42.94208100065589" lon="-9.234111970290542">
        <ele>5.42</ele>
        <time>2025-04-30T14:28:17Z</time>
      </trkpt>
      <trkpt lat="42.942001037299633" lon="-9.234228981658816">
        <ele>4.94</ele>
        <time>2025-04-30T14:28:18Z</time>
      </trkpt>
      <trkpt lat="42.941442970186472" lon="-9.234999027103186">
        <ele>6.87</ele>
        <time>2025-04-30T14:28:25Z</time>
      </trkpt>
      <trkpt lat="42.941342974081635" lon="-9.2350759729743">
        <ele>7.83</ele>
        <time>2025-04-30T14:28:26Z</time>
      </trkpt>
      <trkpt lat="42.941240966320038" lon="-9.23511796630919">
        <ele>8.310000000000001</ele>
        <time>2025-04-30T14:28:27Z</time>
      </trkpt>
      <trkpt lat="42.941124038770795" lon="-9.235144034028053">
        <ele>9.27</ele>
        <time>2025-04-30T14:28:28Z</time>
      </trkpt>
      <trkpt lat="42.941008033230901" lon="-9.23515903763473">
        <ele>9.75</ele>
        <time>2025-04-30T14:28:29Z</time>
      </trkpt>
      <trkpt lat="42.940889010205865" lon="-9.235168006271124">
        <ele>10.23</ele>
        <time>2025-04-30T14:28:30Z</time>
      </trkpt>
      <trkpt lat="42.940186019986868" lon="-9.235084019601345">
        <ele>14.56</ele>
        <time>2025-04-30T14:28:36Z</time>
      </trkpt>
      <trkpt lat="42.940065991133451" lon="-9.235130036249757">
        <ele>15.039999999999999</ele>
        <time>2025-04-30T14:28:37Z</time>
      </trkpt>
      <trkpt lat="42.939958032220602" lon="-9.235178986564279">
        <ele>16</ele>
        <time>2025-04-30T14:28:38Z</time>
      </trkpt>
      <trkpt lat="42.939864993095398" lon="-9.235270014032722">
        <ele>16.960000000000001</ele>
        <time>2025-04-30T14:28:39Z</time>
      </trkpt>
      <trkpt lat="42.939767008647323" lon="-9.235383002087474">
        <ele>17.920000000000002</ele>
        <time>2025-04-30T14:28:40Z</time>
      </trkpt>
      <trkpt lat="42.939656032249331" lon="-9.235510993748903">
        <ele>18.399999999999999</ele>
        <time>2025-04-30T14:28:41Z</time>
      </trkpt>
      <trkpt lat="42.939555030316114" lon="-9.235648037865758">
        <ele>18.879999999999999</ele>
        <time>2025-04-30T14:28:42Z</time>
      </trkpt>
      <trkpt lat="42.939322013407946" lon="-9.235951965674758">
        <ele>20.809999999999999</ele>
        <time>2025-04-30T14:28:44Z</time>
      </trkpt>
      <trkpt lat="42.939178012311459" lon="-9.236077023670077">
        <ele>21.77</ele>
        <time>2025-04-30T14:28:45Z</time>
      </trkpt>
      <trkpt lat="42.939019007608294" lon="-9.236174002289772">
        <ele>22.73</ele>
        <time>2025-04-30T14:28:46Z</time>
      </trkpt>
      <trkpt lat="42.937896000221372" lon="-9.23677196726203">
        <ele>28.5</ele>
        <time>2025-04-30T14:28:53Z</time>
      </trkpt>
      <trkpt lat="42.937738001346588" lon="-9.236811026930809">
        <ele>29.460000000000001</ele>
        <time>2025-04-30T14:28:54Z</time>
      </trkpt>
      <trkpt lat="42.937586959451437" lon="-9.236819995567203">
        <ele>29.940000000000001</ele>
        <time>2025-04-30T14:28:55Z</time>
      </trkpt>
      <trkpt lat="42.937443964183331" lon="-9.236770961433649">
        <ele>30.899999999999999</ele>
        <time>2025-04-30T14:28:56Z</time>
      </trkpt>
      <trkpt lat="42.937305998057127" lon="-9.236700972542167">
        <ele>31.859999999999999</ele>
        <time>2025-04-30T14:28:57Z</time>
      </trkpt>
      <trkpt lat="42.937167026102543" lon="-9.236617991700769">
        <ele>32.82</ele>
        <time>2025-04-30T14:28:58Z</time>
      </trkpt>
      <trkpt lat="42.93554998934269" lon="-9.235794972628355">
        <ele>42.439999999999998</ele>
        <time>2025-04-30T14:29:08Z</time>
      </trkpt>
      <trkpt lat="42.934192959219217" lon="-9.235714003443718">
        <ele>49.159999999999997</ele>
        <time>2025-04-30T14:29:16Z</time>
      </trkpt>
      <trkpt lat="42.932851016521454" lon="-9.235949032008648">
        <ele>57.82</ele>
        <time>2025-04-30T14:29:24Z</time>
      </trkpt>
      <trkpt lat="42.932697040960193" lon="-9.235921958461404">
        <ele>58.780000000000001</ele>
        <time>2025-04-30T14:29:25Z</time>
      </trkpt>
      <trkpt lat="42.932395040988922" lon="-9.235830008983612">
        <ele>60.700000000000003</ele>
        <time>2025-04-30T14:29:27Z</time>
      </trkpt>
      <trkpt lat="42.931920038536191" lon="-9.235643008723855">
        <ele>62.619999999999997</ele>
        <time>2025-04-30T14:29:30Z</time>
      </trkpt>
      <trkpt lat="42.931753993034363" lon="-9.235604032874107">
        <ele>63.100000000000001</ele>
        <time>2025-04-30T14:29:31Z</time>
      </trkpt>
      <trkpt lat="42.931584008038044" lon="-9.235581988468766">
        <ele>63.579999999999998</ele>
        <time>2025-04-30T14:29:32Z</time>
      </trkpt>
      <trkpt lat="42.931407988071442" lon="-9.235606966540217">
        <ele>64.549999999999997</ele>
        <time>2025-04-30T14:29:33Z</time>
      </trkpt>
      <trkpt lat="42.93123297393322" lon="-9.2356320284307">
        <ele>65.030000000000001</ele>
        <time>2025-04-30T14:29:34Z</time>
      </trkpt>
      <trkpt lat="42.931062988936901" lon="-9.235691959038377">
        <ele>65.989999999999995</ele>
        <time>2025-04-30T14:29:35Z</time>
      </trkpt>
      <trkpt lat="42.930899960920215" lon="-9.235765971243382">
        <ele>66.469999999999999</ele>
        <time>2025-04-30T14:29:36Z</time>
      </trkpt>
      <trkpt lat="42.930738022550941" lon="-9.235848030075431">
        <ele>66.950000000000003</ele>
        <time>2025-04-30T14:29:37Z</time>
      </trkpt>
      <trkpt lat="42.930613970384002" lon="-9.235993037000299">
        <ele>67.909999999999997</ele>
        <time>2025-04-30T14:29:38Z</time>
      </trkpt>
      <trkpt lat="42.930487990379333" lon="-9.236139971762896">
        <ele>68.390000000000001</ele>
        <time>2025-04-30T14:29:39Z</time>
      </trkpt>
      <trkpt lat="42.930355975404382" lon="-9.236281039193273">
        <ele>68.870000000000005</ele>
        <time>2025-04-30T14:29:40Z</time>
      </trkpt>
      <trkpt lat="42.929177982732654" lon="-9.237456014379859">
        <ele>70.790000000000006</ele>
        <time>2025-04-30T14:29:49Z</time>
      </trkpt>
      <trkpt lat="42.929059965535998" lon="-9.237571014091373">
        <ele>70.310000000000002</ele>
        <time>2025-04-30T14:29:50Z</time>
      </trkpt>
      <trkpt lat="42.928836001083255" lon="-9.237812999635935">
        <ele>68.390000000000001</ele>
        <time>2025-04-30T14:29:52Z</time>
      </trkpt>
      <trkpt lat="42.928748996928334" lon="-9.23797401599586">
        <ele>67.430000000000007</ele>
        <time>2025-04-30T14:29:53Z</time>
      </trkpt>
      <trkpt lat="42.928693005815148" lon="-9.238156992942095">
        <ele>66.469999999999999</ele>
        <time>2025-04-30T14:29:54Z</time>
      </trkpt>
      <trkpt lat="42.928643971681595" lon="-9.238343993201852">
        <ele>65.510000000000005</ele>
        <time>2025-04-30T14:29:55Z</time>
      </trkpt>
      <trkpt lat="42.928627040237188" lon="-9.238529987633228">
        <ele>64.549999999999997</ele>
        <time>2025-04-30T14:29:56Z</time>
      </trkpt>
      <trkpt lat="42.928636008873582" lon="-9.238714976236224">
        <ele>63.100000000000001</ele>
        <time>2025-04-30T14:29:57Z</time>
      </trkpt>
      <trkpt lat="42.928672973066568" lon="-9.238908011466265">
        <ele>61.659999999999997</ele>
        <time>2025-04-30T14:29:58Z</time>
      </trkpt>
      <trkpt lat="42.928737010806799" lon="-9.239100040867925">
        <ele>60.700000000000003</ele>
        <time>2025-04-30T14:29:59Z</time>
      </trkpt>
      <trkpt lat="42.928832983598113" lon="-9.239291986450553">
        <ele>59.259999999999998</ele>
        <time>2025-04-30T14:30:00Z</time>
      </trkpt>
      <trkpt lat="42.928943037986755" lon="-9.239493990316987">
        <ele>57.82</ele>
        <time>2025-04-30T14:30:01Z</time>
      </trkpt>
      <trkpt lat="42.929591964930296" lon="-9.240626972168684">
        <ele>53.009999999999998</ele>
        <time>2025-04-30T14:30:07Z</time>
      </trkpt>
      <trkpt lat="42.929637981578708" lon="-9.240794023498893">
        <ele>52.530000000000001</ele>
        <time>2025-04-30T14:30:08Z</time>
      </trkpt>
      <trkpt lat="42.929677963256836" lon="-9.240940036252141">
        <ele>52.530000000000001</ele>
        <time>2025-04-30T14:30:09Z</time>
      </trkpt>
      <trkpt lat="42.929677963256836" lon="-9.241108009591699">
        <ele>52.049999999999997</ele>
        <time>2025-04-30T14:30:10Z</time>
      </trkpt>
      <trkpt lat="42.929661031812429" lon="-9.241254022344947">
        <ele>52.049999999999997</ele>
        <time>2025-04-30T14:30:11Z</time>
      </trkpt>
      <trkpt lat="42.929624989628792" lon="-9.24141202121973">
        <ele>51.57</ele>
        <time>2025-04-30T14:30:12Z</time>
      </trkpt>
      <trkpt lat="42.929586013779044" lon="-9.24158301204443">
        <ele>50.609999999999999</ele>
        <time>2025-04-30T14:30:13Z</time>
      </trkpt>
      <trkpt lat="42.929532034322619" lon="-9.241733970120549">
        <ele>49.649999999999999</ele>
        <time>2025-04-30T14:30:14Z</time>
      </trkpt>
      <trkpt lat="42.929455004632473" lon="-9.241901021450758">
        <ele>49.159999999999997</ele>
        <time>2025-04-30T14:30:15Z</time>
      </trkpt>
      <trkpt lat="42.929374035447836" lon="-9.24207704141736">
        <ele>48.200000000000003</ele>
        <time>2025-04-30T14:30:16Z</time>
      </trkpt>
      <trkpt lat="42.928283968940377" lon="-9.243808994069696">
        <ele>40.509999999999998</ele>
        <time>2025-04-30T14:30:26Z</time>
      </trkpt>
      <trkpt lat="42.927476959303021" lon="-9.245140040293336">
        <ele>36.670000000000002</ele>
        <time>2025-04-30T14:30:33Z</time>
      </trkpt>
      <trkpt lat="42.927392972633243" lon="-9.245357969775796">
        <ele>36.670000000000002</ele>
        <time>2025-04-30T14:30:34Z</time>
      </trkpt>
      <trkpt lat="42.927333964034915" lon="-9.245596015825868">
        <ele>36.189999999999998</ele>
        <time>2025-04-30T14:30:35Z</time>
      </trkpt>
      <trkpt lat="42.927291970700026" lon="-9.245834983885288">
        <ele>35.710000000000001</ele>
        <time>2025-04-30T14:30:36Z</time>
      </trkpt>
      <trkpt lat="42.927252994850278" lon="-9.246071018278599">
        <ele>35.229999999999997</ele>
        <time>2025-04-30T14:30:37Z</time>
      </trkpt>
      <trkpt lat="42.927241008728743" lon="-9.246311997994781">
        <ele>35.229999999999997</ele>
        <time>2025-04-30T14:30:38Z</time>
      </trkpt>
      <trkpt lat="42.927330024540424" lon="-9.248465979471803">
        <ele>33.299999999999997</ele>
        <time>2025-04-30T14:30:47Z</time>
      </trkpt>
      <trkpt lat="42.927480982616544" lon="-9.249157989397645">
        <ele>32.340000000000003</ele>
        <time>2025-04-30T14:30:50Z</time>
      </trkpt>
      <trkpt lat="42.92805003002286" lon="-9.25086697563529">
        <ele>29.940000000000001</ele>
        <time>2025-04-30T14:30:59Z</time>
      </trkpt>
      <trkpt lat="42.928134016692638" lon="-9.251209041103721">
        <ele>29.460000000000001</ele>
        <time>2025-04-30T14:31:01Z</time>
      </trkpt>
      <trkpt lat="42.92815899476409" lon="-9.25137902610004">
        <ele>28.98</ele>
        <time>2025-04-30T14:31:02Z</time>
      </trkpt>
      <trkpt lat="42.928167041391134" lon="-9.2515520285815">
        <ele>28.98</ele>
        <time>2025-04-30T14:31:03Z</time>
      </trkpt>
      <trkpt lat="42.928176010027528" lon="-9.251732993870974">
        <ele>28.5</ele>
        <time>2025-04-30T14:31:04Z</time>
      </trkpt>
      <trkpt lat="42.928162012249231" lon="-9.251901973038912">
        <ele>28.5</ele>
        <time>2025-04-30T14:31:05Z</time>
      </trkpt>
      <trkpt lat="42.928144996985793" lon="-9.252075981348753">
        <ele>28.5</ele>
        <time>2025-04-30T14:31:06Z</time>
      </trkpt>
      <trkpt lat="42.928111972287297" lon="-9.252642011269927">
        <ele>27.050000000000001</ele>
        <time>2025-04-30T14:31:09Z</time>
      </trkpt>
      <trkpt lat="42.928147008642554" lon="-9.252849966287613">
        <ele>26.57</ele>
        <time>2025-04-30T14:31:10Z</time>
      </trkpt>
      <trkpt lat="42.928196964785457" lon="-9.253053981810808">
        <ele>26.09</ele>
        <time>2025-04-30T14:31:11Z</time>
      </trkpt>
      <trkpt lat="42.928540958091617" lon="-9.25505599938333">
        <ele>17.920000000000002</ele>
        <time>2025-04-30T14:31:20Z</time>
      </trkpt>
      <trkpt lat="42.92830802500248" lon="-9.256698014214635">
        <ele>13.6</ele>
        <time>2025-04-30T14:31:27Z</time>
      </trkpt>
      <trkpt lat="42.927938969805837" lon="-9.257749021053314">
        <ele>9.75</ele>
        <time>2025-04-30T14:31:32Z</time>
      </trkpt>
      <trkpt lat="42.927827993407845" lon="-9.257931997999549">
        <ele>9.27</ele>
        <time>2025-04-30T14:31:33Z</time>
      </trkpt>
      <trkpt lat="42.927717017009854" lon="-9.258114974945784">
        <ele>8.789999999999999</ele>
        <time>2025-04-30T14:31:34Z</time>
      </trkpt>
      <trkpt lat="42.926705991849303" lon="-9.259317023679614">
        <ele>6.87</ele>
        <time>2025-04-30T14:31:43Z</time>
      </trkpt>
      <trkpt lat="42.925564041361213" lon="-9.260537009686232">
        <ele>7.83</ele>
        <time>2025-04-30T14:31:54Z</time>
      </trkpt>
      <trkpt lat="42.92547401972115" lon="-9.260638011619449">
        <ele>8.310000000000001</ele>
        <time>2025-04-30T14:31:55Z</time>
      </trkpt>
      <trkpt lat="42.924109026789665" lon="-9.262127978727222">
        <ele>11.67</ele>
        <time>2025-04-30T14:32:10Z</time>
      </trkpt>
      <trkpt lat="42.923100013285875" lon="-9.263206981122494">
        <ele>10.710000000000001</ele>
        <time>2025-04-30T14:32:21Z</time>
      </trkpt>
      <trkpt lat="42.922826008871198" lon="-9.263502024114132">
        <ele>11.19</ele>
        <time>2025-04-30T14:32:24Z</time>
      </trkpt>
      <trkpt lat="42.922458965331316" lon="-9.263898991048336">
        <ele>11.67</ele>
        <time>2025-04-30T14:32:28Z</time>
      </trkpt>
      <trkpt lat="42.922367015853524" lon="-9.263998987153173">
        <ele>11.67</ele>
        <time>2025-04-30T14:32:29Z</time>
      </trkpt>
      <trkpt lat="42.921187011525035" lon="-9.265276975929737">
        <ele>14.56</ele>
        <time>2025-04-30T14:32:42Z</time>
      </trkpt>
      <trkpt lat="42.920268019661307" lon="-9.266257993876934">
        <ele>16.960000000000001</ele>
        <time>2025-04-30T14:32:52Z</time>
      </trkpt>
      <trkpt lat="42.920177998021245" lon="-9.266355978325009">
        <ele>17.440000000000001</ele>
        <time>2025-04-30T14:32:53Z</time>
      </trkpt>
      <trkpt lat="42.919254982843995" lon="-9.267314029857516">
        <ele>21.289999999999999</ele>
        <time>2025-04-30T14:33:03Z</time>
      </trkpt>
      <trkpt lat="42.919150041416287" lon="-9.267381001263857">
        <ele>21.289999999999999</ele>
        <time>2025-04-30T14:33:04Z</time>
      </trkpt>
      <trkpt lat="42.919047027826309" lon="-9.267442021518946">
        <ele>21.77</ele>
        <time>2025-04-30T14:33:05Z</time>
      </trkpt>
      <trkpt lat="42.918932028114796" lon="-9.267460964620113">
        <ele>22.25</ele>
        <time>2025-04-30T14:33:06Z</time>
      </trkpt>
      <trkpt lat="42.918815016746521" lon="-9.267479991540313">
        <ele>22.25</ele>
        <time>2025-04-30T14:33:07Z</time>
      </trkpt>
      <trkpt lat="42.918699011206627" lon="-9.267500024288893">
        <ele>22.25</ele>
        <time>2025-04-30T14:33:08Z</time>
      </trkpt>
      <trkpt lat="42.917293030768633" lon="-9.267503963783383">
        <ele>22.25</ele>
        <time>2025-04-30T14:33:20Z</time>
      </trkpt>
      <trkpt lat="42.9156559612602" lon="-9.267521984875202">
        <ele>23.690000000000001</ele>
        <time>2025-04-30T14:33:34Z</time>
      </trkpt>
      <trkpt lat="42.914249980822206" lon="-9.267526008188725">
        <ele>23.210000000000001</ele>
        <time>2025-04-30T14:33:47Z</time>
      </trkpt>
      <trkpt lat="42.914146967232227" lon="-9.267474040389061">
        <ele>23.690000000000001</ele>
        <time>2025-04-30T14:33:48Z</time>
      </trkpt>
      <trkpt lat="42.914059963077307" lon="-9.26743003539741">
        <ele>23.690000000000001</ele>
        <time>2025-04-30T14:33:49Z</time>
      </trkpt>
      <trkpt lat="42.913971031084657" lon="-9.26738603040576">
        <ele>24.170000000000002</ele>
        <time>2025-04-30T14:33:50Z</time>
      </trkpt>
      <trkpt lat="42.913906993344426" lon="-9.267354011535645">
        <ele>24.170000000000002</ele>
        <time>2025-04-30T14:33:51Z</time>
      </trkpt>
      <trkpt lat="42.913839016109705" lon="-9.267231971025467">
        <ele>24.649999999999999</ele>
        <time>2025-04-30T14:33:52Z</time>
      </trkpt>
      <trkpt lat="42.913800040259957" lon="-9.267160976305604">
        <ele>24.649999999999999</ele>
        <time>2025-04-30T14:33:53Z</time>
      </trkpt>
      <trkpt lat="42.913758968934417" lon="-9.267013035714626">
        <ele>25.129999999999999</ele>
        <time>2025-04-30T14:33:54Z</time>
      </trkpt>
      <trkpt lat="42.913725022226572" lon="-9.266884038224816">
        <ele>25.129999999999999</ele>
        <time>2025-04-30T14:33:55Z</time>
      </trkpt>
      <trkpt lat="42.913689985871315" lon="-9.26674397662282">
        <ele>25.609999999999999</ele>
        <time>2025-04-30T14:33:56Z</time>
      </trkpt>
      <trkpt lat="42.913398966193199" lon="-9.265199024230242">
        <ele>29.460000000000001</ele>
        <time>2025-04-30T14:34:07Z</time>
      </trkpt>
      <trkpt lat="42.913317997008562" lon="-9.264930970966816">
        <ele>29.460000000000001</ele>
        <time>2025-04-30T14:34:09Z</time>
      </trkpt>
      <trkpt lat="42.91316301561892" lon="-9.264531992375851">
        <ele>28.02</ele>
        <time>2025-04-30T14:34:12Z</time>
      </trkpt>
      <trkpt lat="42.913107024505734" lon="-9.264406012371182">
        <ele>27.530000000000001</ele>
        <time>2025-04-30T14:34:13Z</time>
      </trkpt>
      <trkpt lat="42.913007028400898" lon="-9.264323031529784">
        <ele>26.57</ele>
        <time>2025-04-30T14:34:14Z</time>
      </trkpt>
      <trkpt lat="42.912907032296062" lon="-9.264266034588218">
        <ele>26.09</ele>
        <time>2025-04-30T14:34:15Z</time>
      </trkpt>
      <trkpt lat="42.912791026756167" lon="-9.264199985191226">
        <ele>25.609999999999999</ele>
        <time>2025-04-30T14:34:16Z</time>
      </trkpt>
      <trkpt lat="42.912695975974202" lon="-9.264174001291394">
        <ele>24.649999999999999</ele>
        <time>2025-04-30T14:34:17Z</time>
      </trkpt>
      <trkpt lat="42.91258399374783" lon="-9.26414399407804">
        <ele>24.170000000000002</ele>
        <time>2025-04-30T14:34:18Z</time>
      </trkpt>
      <trkpt lat="42.911770027130842" lon="-9.263849034905434">
        <ele>21.77</ele>
        <time>2025-04-30T14:34:26Z</time>
      </trkpt>
      <trkpt lat="42.911288989707828" lon="-9.263678966090083">
        <ele>23.210000000000001</ele>
        <time>2025-04-30T14:34:32Z</time>
      </trkpt>
      <trkpt lat="42.911211960017681" lon="-9.263655999675393">
        <ele>23.690000000000001</ele>
        <time>2025-04-30T14:34:33Z</time>
      </trkpt>
      <trkpt lat="42.911135014146566" lon="-9.263633033260703">
        <ele>24.170000000000002</ele>
        <time>2025-04-30T14:34:34Z</time>
      </trkpt>
      <trkpt lat="42.911058990284801" lon="-9.263601014390588">
        <ele>24.649999999999999</ele>
        <time>2025-04-30T14:34:35Z</time>
      </trkpt>
      <trkpt lat="42.910982966423035" lon="-9.263559021055698">
        <ele>25.609999999999999</ele>
        <time>2025-04-30T14:34:36Z</time>
      </trkpt>
      <trkpt lat="42.910840976983309" lon="-9.263476962223649">
        <ele>26.57</ele>
        <time>2025-04-30T14:34:38Z</time>
      </trkpt>
      <trkpt lat="42.91077702306211" lon="-9.263428011909127">
        <ele>27.050000000000001</ele>
        <time>2025-04-30T14:34:39Z</time>
      </trkpt>
      <trkpt lat="42.910711979493499" lon="-9.263378977775574">
        <ele>27.050000000000001</ele>
        <time>2025-04-30T14:34:40Z</time>
      </trkpt>
      <trkpt lat="42.910539982840419" lon="-9.263247968629003">
        <ele>28.02</ele>
        <time>2025-04-30T14:34:43Z</time>
      </trkpt>
      <trkpt lat="42.910482985898852" lon="-9.263204969465733">
        <ele>28.5</ele>
        <time>2025-04-30T14:34:44Z</time>
      </trkpt>
      <trkpt lat="42.910380978137255" lon="-9.263128023594618">
        <ele>28.98</ele>
        <time>2025-04-30T14:34:46Z</time>
      </trkpt>
      <trkpt lat="42.910338984802365" lon="-9.263098016381264">
        <ele>29.460000000000001</ele>
        <time>2025-04-30T14:34:47Z</time>
      </trkpt>
      <trkpt lat="42.910295985639095" lon="-9.26306800916791">
        <ele>29.940000000000001</ele>
        <time>2025-04-30T14:34:48Z</time>
      </trkpt>
      <trkpt lat="42.910256003960967" lon="-9.263038001954556">
        <ele>30.420000000000002</ele>
        <time>2025-04-30T14:34:49Z</time>
      </trkpt>
      <trkpt lat="42.91022096760571" lon="-9.263009000569582">
        <ele>30.420000000000002</ele>
        <time>2025-04-30T14:34:50Z</time>
      </trkpt>
      <trkpt lat="42.910182997584343" lon="-9.262977987527847">
        <ele>30.899999999999999</ele>
        <time>2025-04-30T14:34:51Z</time>
      </trkpt>
      <trkpt lat="42.910131029784679" lon="-9.262933982536197">
        <ele>30.899999999999999</ele>
        <time>2025-04-30T14:34:52Z</time>
      </trkpt>
      <trkpt lat="42.910104962065816" lon="-9.2629199847579">
        <ele>30.899999999999999</ele>
        <time>2025-04-30T14:34:53Z</time>
      </trkpt>
      <trkpt lat="42.909947969019413" lon="-9.26283298060298">
        <ele>31.379999999999999</ele>
        <time>2025-04-30T14:34:57Z</time>
      </trkpt>
      <trkpt lat="42.909908993169665" lon="-9.262812025845051">
        <ele>31.379999999999999</ele>
        <time>2025-04-30T14:34:58Z</time>
      </trkpt>
      <trkpt lat="42.909594001248479" lon="-9.262637011706829">
        <ele>31.379999999999999</ele>
        <time>2025-04-30T14:35:06Z</time>
      </trkpt>
      <trkpt lat="42.909566005691886" lon="-9.262622008100152">
        <ele>30.899999999999999</ele>
        <time>2025-04-30T14:35:07Z</time>
      </trkpt>
      <trkpt lat="42.909533986821771" lon="-9.262603987008333">
        <ele>30.899999999999999</ele>
        <time>2025-04-30T14:35:08Z</time>
      </trkpt>
      <trkpt lat="42.909502973780036" lon="-9.262586971744895">
        <ele>30.899999999999999</ele>
        <time>2025-04-30T14:35:09Z</time>
      </trkpt>
      <trkpt lat="42.909477995708585" lon="-9.262572973966599">
        <ele>30.899999999999999</ele>
        <time>2025-04-30T14:35:10Z</time>
      </trkpt>
      <trkpt lat="42.909453017637134" lon="-9.262559982016683">
        <ele>30.899999999999999</ele>
        <time>2025-04-30T14:35:11Z</time>
      </trkpt>
      <trkpt lat="42.909419992938638" lon="-9.262541038915515">
        <ele>30.899999999999999</ele>
        <time>2025-04-30T14:35:12Z</time>
      </trkpt>
      <trkpt lat="42.909093014895916" lon="-9.262464009225369">
        <ele>27.050000000000001</ele>
        <time>2025-04-30T14:35:21Z</time>
      </trkpt>
      <trkpt lat="42.908743992447853" lon="-9.262656960636377">
        <ele>19.84</ele>
        <time>2025-04-30T14:35:31Z</time>
      </trkpt>
      <trkpt lat="42.908709039911628" lon="-9.262686967849731">
        <ele>19.359999999999999</ele>
        <time>2025-04-30T14:35:32Z</time>
      </trkpt>
      <trkpt lat="42.908676015213132" lon="-9.262714963406324">
        <ele>18.399999999999999</ele>
        <time>2025-04-30T14:35:33Z</time>
      </trkpt>
      <trkpt lat="42.908639973029494" lon="-9.262745976448059">
        <ele>17.440000000000001</ele>
        <time>2025-04-30T14:35:34Z</time>
      </trkpt>
      <trkpt lat="42.908602003008127" lon="-9.262779001146555">
        <ele>16.960000000000001</ele>
        <time>2025-04-30T14:35:35Z</time>
      </trkpt>
      <trkpt lat="42.90856302715838" lon="-9.262812025845051">
        <ele>16</ele>
        <time>2025-04-30T14:35:36Z</time>
      </trkpt>
      <trkpt lat="42.908526984974742" lon="-9.262843038886786">
        <ele>15.039999999999999</ele>
        <time>2025-04-30T14:35:37Z</time>
      </trkpt>
      <trkpt lat="42.908493960276246" lon="-9.262871034443378">
        <ele>14.56</ele>
        <time>2025-04-30T14:35:38Z</time>
      </trkpt>
      <trkpt lat="42.908464958891273" lon="-9.26289601251483">
        <ele>13.6</ele>
        <time>2025-04-30T14:35:39Z</time>
      </trkpt>
      <trkpt lat="42.90837099775672" lon="-9.262976981699467">
        <ele>13.119999999999999</ele>
        <time>2025-04-30T14:35:40Z</time>
      </trkpt>
      <trkpt lat="42.90837099775672" lon="-9.262976981699467">
        <ele>12.15</ele>
        <time>2025-04-30T14:35:41Z</time>
      </trkpt>
      <trkpt lat="42.90837099775672" lon="-9.262976981699467">
        <ele>11.67</ele>
        <time>2025-04-30T14:35:42Z</time>
      </trkpt>
      <trkpt lat="42.908345013856888" lon="-9.262999026104808">
        <ele>11.19</ele>
        <time>2025-04-30T14:35:43Z</time>
      </trkpt>
      <trkpt lat="42.908319029957056" lon="-9.263020986691117">
        <ele>10.710000000000001</ele>
        <time>2025-04-30T14:35:44Z</time>
      </trkpt>
      <trkpt lat="42.908245017752051" lon="-9.263085024431348">
        <ele>9.27</ele>
        <time>2025-04-30T14:35:47Z</time>
      </trkpt>
      <trkpt lat="42.907990040257573" lon="-9.263264983892441">
        <ele>3.5</ele>
        <time>2025-04-30T14:35:57Z</time>
      </trkpt>
      <trkpt lat="42.9079420119524" lon="-9.26328401081264">
        <ele>3.98</ele>
        <time>2025-04-30T14:35:59Z</time>
      </trkpt>
      <trkpt lat="42.9079420119524" lon="-9.26328401081264">
        <ele>4.46</ele>
        <time>2025-04-30T14:36:06Z</time>
      </trkpt>
      <trkpt lat="42.907900018617511" lon="-9.263300020247698">
        <ele>4.46</ele>
        <time>2025-04-30T14:36:07Z</time>
      </trkpt>
      <trkpt lat="42.90781301446259" lon="-9.263258026912808">
        <ele>4.94</ele>
        <time>2025-04-30T14:36:08Z</time>
      </trkpt>
      <trkpt lat="42.907819971442223" lon="-9.263229025527835">
        <ele>5.42</ele>
        <time>2025-04-30T14:36:09Z</time>
      </trkpt>
      <trkpt lat="42.907828018069267" lon="-9.263193989172578">
        <ele>5.42</ele>
        <time>2025-04-30T14:36:10Z</time>
      </trkpt>
      <trkpt lat="42.907837992534041" lon="-9.263157024979591">
        <ele>5.42</ele>
        <time>2025-04-30T14:36:11Z</time>
      </trkpt>
      <trkpt lat="42.907848972827196" lon="-9.26311201415956">
        <ele>5.91</ele>
        <time>2025-04-30T14:36:12Z</time>
      </trkpt>
      <trkpt lat="42.907860958948731" lon="-9.263067003339529">
        <ele>5.91</ele>
        <time>2025-04-30T14:36:13Z</time>
      </trkpt>
      <trkpt lat="42.907788036391139" lon="-9.262598035857081">
        <ele>5.91</ele>
        <time>2025-04-30T14:36:23Z</time>
      </trkpt>
      <trkpt lat="42.90766297839582" lon="-9.262578003108501">
        <ele>4.94</ele>
        <time>2025-04-30T14:36:26Z</time>
      </trkpt>
      <trkpt lat="42.90761997923255" lon="-9.262570962309837">
        <ele>4.46</ele>
        <time>2025-04-30T14:36:27Z</time>
      </trkpt>
      <trkpt lat="42.90757698006928" lon="-9.262565011158586">
        <ele>3.98</ele>
        <time>2025-04-30T14:36:28Z</time>
      </trkpt>
      <trkpt lat="42.90753498673439" lon="-9.262557970359922">
        <ele>3.5</ele>
        <time>2025-04-30T14:36:29Z</time>
      </trkpt>
      <trkpt lat="42.907496010884643" lon="-9.26255201920867">
        <ele>3.5</ele>
        <time>2025-04-30T14:36:30Z</time>
      </trkpt>
      <trkpt lat="42.907456029206514" lon="-9.262544978410006">
        <ele>3.02</ele>
        <time>2025-04-30T14:36:31Z</time>
      </trkpt>
      <trkpt lat="42.907418981194496" lon="-9.262538021430373">
        <ele>2.54</ele>
        <time>2025-04-30T14:36:32Z</time>
      </trkpt>
      <trkpt lat="42.907381011173129" lon="-9.26253198646009">
        <ele>2.06</ele>
        <time>2025-04-30T14:36:33Z</time>
      </trkpt>
      <trkpt lat="42.907344968989491" lon="-9.262525029480457">
        <ele>2.06</ele>
        <time>2025-04-30T14:36:34Z</time>
      </trkpt>
      <trkpt lat="42.907311022281647" lon="-9.262518994510174">
        <ele>2.06</ele>
        <time>2025-04-30T14:36:35Z</time>
      </trkpt>
      <trkpt lat="42.907269028946757" lon="-9.262512037530541">
        <ele>2.06</ele>
        <time>2025-04-30T14:36:36Z</time>
      </trkpt>
      <trkpt lat="42.907224018126726" lon="-9.262503990903497">
        <ele>2.06</ele>
        <time>2025-04-30T14:36:37Z</time>
      </trkpt>
      <trkpt lat="42.907179007306695" lon="-9.262496028095484">
        <ele>2.06</ele>
        <time>2025-04-30T14:36:38Z</time>
      </trkpt>
      <trkpt lat="42.907129973173141" lon="-9.262486975640059">
        <ele>1.58</ele>
        <time>2025-04-30T14:36:39Z</time>
      </trkpt>
      <trkpt lat="42.907082028687" lon="-9.262478007003665">
        <ele>1.58</ele>
        <time>2025-04-30T14:36:40Z</time>
      </trkpt>
      <trkpt lat="42.90703902952373" lon="-9.26246996037662">
        <ele>1.58</ele>
        <time>2025-04-30T14:36:41Z</time>
      </trkpt>
      <trkpt lat="42.906633010134101" lon="-9.262397037819028">
        <ele>3.98</ele>
        <time>2025-04-30T14:36:51Z</time>
      </trkpt>
      <trkpt lat="42.906562015414238" lon="-9.262259993702173">
        <ele>4.94</ele>
        <time>2025-04-30T14:36:54Z</time>
      </trkpt>
      <trkpt lat="42.906535025686026" lon="-9.26220802590251">
        <ele>4.94</ele>
        <time>2025-04-30T14:36:55Z</time>
      </trkpt>
      <trkpt lat="42.90648297406733" lon="-9.262107023969293">
        <ele>4.94</ele>
        <time>2025-04-30T14:36:57Z</time>
      </trkpt>
      <trkpt lat="42.90631097741425" lon="-9.261775016784668">
        <ele>4.94</ele>
        <time>2025-04-30T14:37:03Z</time>
      </trkpt>
      <trkpt lat="42.906299997121096" lon="-9.261753978207707">
        <ele>4.94</ele>
        <time>2025-04-30T14:37:04Z</time>
      </trkpt>
      <trkpt lat="42.90617804042995" lon="-9.261555997654796">
        <ele>4.94</ele>
        <time>2025-04-30T14:37:08Z</time>
      </trkpt>
      <trkpt lat="42.906097993254662" lon="-9.261476034298539">
        <ele>4.46</ele>
        <time>2025-04-30T14:37:10Z</time>
      </trkpt>
      <trkpt lat="42.905982993543148" lon="-9.261403027921915">
        <ele>4.46</ele>
        <time>2025-04-30T14:37:12Z</time>
      </trkpt>
      <trkpt lat="42.90592398494482" lon="-9.26139498129487">
        <ele>4.46</ele>
        <time>2025-04-30T14:37:13Z</time>
      </trkpt>
      <trkpt lat="42.905860031023622" lon="-9.261392969638109">
        <ele>3.98</ele>
        <time>2025-04-30T14:37:14Z</time>
      </trkpt>
      <trkpt lat="42.905700020492077" lon="-9.261421971023083">
        <ele>3.02</ele>
        <time>2025-04-30T14:37:17Z</time>
      </trkpt>
      <trkpt lat="42.905592983588576" lon="-9.261497994884849">
        <ele>2.54</ele>
        <time>2025-04-30T14:37:19Z</time>
      </trkpt>
      <trkpt lat="42.905555013567209" lon="-9.261546023190022">
        <ele>2.06</ele>
        <time>2025-04-30T14:37:20Z</time>
      </trkpt>
      <trkpt lat="42.905516037717462" lon="-9.261593967676163">
        <ele>2.06</ele>
        <time>2025-04-30T14:37:21Z</time>
      </trkpt>
      <trkpt lat="42.905477983877063" lon="-9.261641995981336">
        <ele>1.58</ele>
        <time>2025-04-30T14:37:22Z</time>
      </trkpt>
      <trkpt lat="42.905440013855696" lon="-9.261689018458128">
        <ele>1.58</ele>
        <time>2025-04-30T14:37:23Z</time>
      </trkpt>
      <trkpt lat="42.905362984165549" lon="-9.261784991249442">
        <ele>1.1</ele>
        <time>2025-04-30T14:37:25Z</time>
      </trkpt>
      <trkpt lat="42.905155029147863" lon="-9.262072993442416">
        <ele>-0.34</ele>
        <time>2025-04-30T14:37:31Z</time>
      </trkpt>
      <trkpt lat="42.905115969479084" lon="-9.262110963463783">
        <ele>-0.34</ele>
        <time>2025-04-30T14:37:32Z</time>
      </trkpt>
      <trkpt lat="42.905087973922491" lon="-9.26212202757597">
        <ele>-0.34</ele>
        <time>2025-04-30T14:37:33Z</time>
      </trkpt>
      <trkpt lat="42.90504296310246" lon="-9.262129990383983">
        <ele>-0.82</ele>
        <time>2025-04-30T14:37:34Z</time>
      </trkpt>
      <trkpt lat="42.904981020838022" lon="-9.262139964848757">
        <ele>-0.82</ele>
        <time>2025-04-30T14:37:35Z</time>
      </trkpt>
      <trkpt lat="42.904959982261062" lon="-9.262139964848757">
        <ele>-1.3</ele>
        <time>2025-04-30T14:37:36Z</time>
      </trkpt>
      <trkpt lat="42.90489200502634" lon="-9.262153962627053">
        <ele>-1.3</ele>
        <time>2025-04-30T14:37:37Z</time>
      </trkpt>
      <trkpt lat="42.904851017519832" lon="-9.262179024517536">
        <ele>-1.79</ele>
        <time>2025-04-30T14:37:38Z</time>
      </trkpt>
      <trkpt lat="42.904811035841703" lon="-9.262202996760607">
        <ele>-1.79</ele>
        <time>2025-04-30T14:37:39Z</time>
      </trkpt>
      <trkpt lat="42.904778011143208" lon="-9.26225102506578">
        <ele>-2.27</ele>
        <time>2025-04-30T14:37:40Z</time>
      </trkpt>
      <trkpt lat="42.904730988666415" lon="-9.262271979823709">
        <ele>-2.27</ele>
        <time>2025-04-30T14:37:41Z</time>
      </trkpt>
      <trkpt lat="42.904685977846384" lon="-9.262291006743908">
        <ele>-2.27</ele>
        <time>2025-04-30T14:37:42Z</time>
      </trkpt>
      <trkpt lat="42.904642978683114" lon="-9.262310033664107">
        <ele>-2.75</ele>
        <time>2025-04-30T14:37:43Z</time>
      </trkpt>
      <trkpt lat="42.904605008661747" lon="-9.262326965108514">
        <ele>-2.75</ele>
        <time>2025-04-30T14:37:44Z</time>
      </trkpt>
      <trkpt lat="42.904582964256406" lon="-9.26233702339232">
        <ele>-2.27</ele>
        <time>2025-04-30T14:37:45Z</time>
      </trkpt>
      <trkpt lat="42.904557986184955" lon="-9.262348003685474">
        <ele>-1.79</ele>
        <time>2025-04-30T14:37:55Z</time>
      </trkpt>
      <trkpt lat="42.904533008113503" lon="-9.262358983978629">
        <ele>-1.3</ele>
        <time>2025-04-30T14:37:56Z</time>
      </trkpt>
      <trkpt lat="42.904498977586627" lon="-9.262372981756926">
        <ele>-0.82</ele>
        <time>2025-04-30T14:37:57Z</time>
      </trkpt>
      <trkpt lat="42.904443992301822" lon="-9.262397037819028">
        <ele>0.14</ele>
        <time>2025-04-30T14:37:59Z</time>
      </trkpt>
      <trkpt lat="42.904443992301822" lon="-9.262397037819028">
        <ele>0.14</ele>
        <time>2025-04-30T14:38:00Z</time>
      </trkpt>
      <trkpt lat="42.904351959004998" lon="-9.262528968974948">
        <ele>0.14</ele>
        <time>2025-04-30T14:38:01Z</time>
      </trkpt>
      <trkpt lat="42.904161019250751" lon="-9.262744970619679">
        <ele>1.1</ele>
        <time>2025-04-30T14:38:06Z</time>
      </trkpt>
      <trkpt lat="42.904125982895494" lon="-9.262780006974936">
        <ele>1.58</ele>
        <time>2025-04-30T14:38:07Z</time>
      </trkpt>
      <trkpt lat="42.903977036476135" lon="-9.262929037213326">
        <ele>2.54</ele>
        <time>2025-04-30T14:38:11Z</time>
      </trkpt>
      <trkpt lat="42.903937976807356" lon="-9.262968013063073">
        <ele>2.54</ele>
        <time>2025-04-30T14:38:12Z</time>
      </trkpt>
      <trkpt lat="42.903907969594002" lon="-9.262998020276427">
        <ele>2.54</ele>
        <time>2025-04-30T14:38:13Z</time>
      </trkpt>
      <trkpt lat="42.903877040371299" lon="-9.263128023594618">
        <ele>3.02</ele>
        <time>2025-04-30T14:38:15Z</time>
      </trkpt>
      <trkpt lat="42.903860025107861" lon="-9.263200024142861">
        <ele>3.02</ele>
        <time>2025-04-30T14:38:16Z</time>
      </trkpt>
      <trkpt lat="42.903846027329564" lon="-9.263259032741189">
        <ele>3.02</ele>
        <time>2025-04-30T14:38:17Z</time>
      </trkpt>
      <trkpt lat="42.903834963217378" lon="-9.26330597139895">
        <ele>3.5</ele>
        <time>2025-04-30T14:38:18Z</time>
      </trkpt>
      <trkpt lat="42.903828006237745" lon="-9.263332961127162">
        <ele>3.98</ele>
        <time>2025-04-30T14:38:19Z</time>
      </trkpt>
      <trkpt lat="42.903828006237745" lon="-9.263332961127162">
        <ele>4.46</ele>
        <time>2025-04-30T14:38:20Z</time>
      </trkpt>
      <trkpt lat="42.903801016509533" lon="-9.263448966667056">
        <ele>5.42</ele>
        <time>2025-04-30T14:38:31Z</time>
      </trkpt>
      <trkpt lat="42.903801016509533" lon="-9.263448966667056">
        <ele>5.42</ele>
        <time>2025-04-30T14:38:32Z</time>
      </trkpt>
      <trkpt lat="42.904149033129215" lon="-9.263227013871074">
        <ele>8.310000000000001</ele>
        <time>2025-04-30T14:38:46Z</time>
      </trkpt>
      <trkpt lat="42.904174011200666" lon="-9.263216033577919">
        <ele>8.310000000000001</ele>
        <time>2025-04-30T14:38:47Z</time>
      </trkpt>
      <trkpt lat="42.904199995100498" lon="-9.263205975294113">
        <ele>8.310000000000001</ele>
        <time>2025-04-30T14:38:48Z</time>
      </trkpt>
      <trkpt lat="42.904221033677459" lon="-9.26319700665772">
        <ele>8.310000000000001</ele>
        <time>2025-04-30T14:38:49Z</time>
      </trkpt>
      <trkpt lat="42.904240982607007" lon="-9.263188038021326">
        <ele>8.789999999999999</ele>
        <time>2025-04-30T14:38:50Z</time>
      </trkpt>
      <trkpt lat="42.90465303696692" lon="-9.263187032192946">
        <ele>10.23</ele>
        <time>2025-04-30T14:39:02Z</time>
      </trkpt>
      <trkpt lat="42.90465303696692" lon="-9.263187032192946">
        <ele>10.23</ele>
        <time>2025-04-30T14:39:10Z</time>
      </trkpt>
      <trkpt lat="42.904766025021672" lon="-9.263121988624334">
        <ele>9.27</ele>
        <time>2025-04-30T14:39:18Z</time>
      </trkpt>
      <trkpt lat="42.904754038900137" lon="-9.263173034414649">
        <ele>9.27</ele>
        <time>2025-04-30T14:39:19Z</time>
      </trkpt>
      <trkpt lat="42.904766025021672" lon="-9.263170016929507">
        <ele>9.27</ele>
        <time>2025-04-30T14:39:20Z</time>
      </trkpt>
      <trkpt lat="42.905017985031009" lon="-9.262883020564914">
        <ele>6.87</ele>
        <time>2025-04-30T14:39:31Z</time>
      </trkpt>
      <trkpt lat="42.905400032177567" lon="-9.262741031125188">
        <ele>5.42</ele>
        <time>2025-04-30T14:39:41Z</time>
      </trkpt>
      <trkpt lat="42.905569011345506" lon="-9.26268101669848">
        <ele>6.87</ele>
        <time>2025-04-30T14:39:47Z</time>
      </trkpt>
      <trkpt lat="42.905580997467041" lon="-9.262667018920183">
        <ele>7.35</ele>
        <time>2025-04-30T14:39:51Z</time>
      </trkpt>
      <trkpt lat="42.90557898581028" lon="-9.262642040848732">
        <ele>7.35</ele>
        <time>2025-04-30T14:39:52Z</time>
      </trkpt>
      <trkpt lat="42.905576974153519" lon="-9.262605998665094">
        <ele>7.35</ele>
        <time>2025-04-30T14:39:53Z</time>
      </trkpt>
      <trkpt lat="42.905570017173886" lon="-9.2625090200454">
        <ele>6.39</ele>
        <time>2025-04-30T14:40:06Z</time>
      </trkpt>
      <trkpt lat="42.905563982203603" lon="-9.262416986748576">
        <ele>6.39</ele>
        <time>2025-04-30T14:40:17Z</time>
      </trkpt>
      <trkpt lat="42.905813008546829" lon="-9.262561993673444">
        <ele>67.909999999999997</ele>
        <time>2025-04-30T14:44:01Z</time>
      </trkpt>
      <trkpt lat="42.905810996890068" lon="-9.262651009485126">
        <ele>59.259999999999998</ele>
        <time>2025-04-30T14:44:41Z</time>
      </trkpt>
      <trkpt lat="42.905701026320457" lon="-9.262784030288458">
        <ele>43.399999999999999</ele>
        <time>2025-04-30T14:44:55Z</time>
      </trkpt>
      <trkpt lat="42.905749976634979" lon="-9.262785036116839">
        <ele>39.07</ele>
        <time>2025-04-30T14:45:08Z</time>
      </trkpt>
      <trkpt lat="42.905770009383559" lon="-9.262785958126187">
        <ele>38.590000000000003</ele>
        <time>2025-04-30T14:45:09Z</time>
      </trkpt>
      <trkpt lat="42.905752994120121" lon="-9.262675987556577">
        <ele>36.670000000000002</ele>
        <time>2025-04-30T14:45:11Z</time>
      </trkpt>
      <trkpt lat="42.90583798661828" lon="-9.262675987556577">
        <ele>35.710000000000001</ele>
        <time>2025-04-30T14:45:12Z</time>
      </trkpt>
      <trkpt lat="42.905968995764852" lon="-9.262689985334873">
        <ele>29.940000000000001</ele>
        <time>2025-04-30T14:45:24Z</time>
      </trkpt>
      <trkpt lat="42.906136969104409" lon="-9.262723010033369">
        <ele>26.09</ele>
        <time>2025-04-30T14:45:41Z</time>
      </trkpt>
      <trkpt lat="42.906456990167499" lon="-9.262814037501812">
        <ele>24.170000000000002</ele>
        <time>2025-04-30T14:45:52Z</time>
      </trkpt>
      <trkpt lat="42.90661096572876" lon="-9.262869022786617">
        <ele>24.170000000000002</ele>
        <time>2025-04-30T14:45:53Z</time>
      </trkpt>
      <trkpt lat="42.90661096572876" lon="-9.262869022786617">
        <ele>23.210000000000001</ele>
        <time>2025-04-30T14:45:54Z</time>
      </trkpt>
      <trkpt lat="42.90661096572876" lon="-9.262869022786617">
        <ele>22.73</ele>
        <time>2025-04-30T14:45:55Z</time>
      </trkpt>
      <trkpt lat="42.906950013712049" lon="-9.262699959799647">
        <ele>16.960000000000001</ele>
        <time>2025-04-30T14:46:06Z</time>
      </trkpt>
      <trkpt lat="42.907145982608199" lon="-9.262714963406324">
        <ele>15.52</ele>
        <time>2025-04-30T14:46:11Z</time>
      </trkpt>
      <trkpt lat="42.907291995361447" lon="-9.262819988653064">
        <ele>14.56</ele>
        <time>2025-04-30T14:46:16Z</time>
      </trkpt>
      <trkpt lat="42.907323008403182" lon="-9.262852007523179">
        <ele>14.08</ele>
        <time>2025-04-30T14:46:17Z</time>
      </trkpt>
      <trkpt lat="42.907470026984811" lon="-9.262998020276427">
        <ele>13.6</ele>
        <time>2025-04-30T14:46:18Z</time>
      </trkpt>
      <trkpt lat="42.907761968672276" lon="-9.263055017217994">
        <ele>11.19</ele>
        <time>2025-04-30T14:46:29Z</time>
      </trkpt>
      <trkpt lat="42.907875962555408" lon="-9.263016041368246">
        <ele>10.23</ele>
        <time>2025-04-30T14:46:33Z</time>
      </trkpt>
      <trkpt lat="42.907917033880949" lon="-9.262730972841382">
        <ele>10.710000000000001</ele>
        <time>2025-04-30T14:46:38Z</time>
      </trkpt>
      <trkpt lat="42.907901024445891" lon="-9.262683028355241">
        <ele>10.23</ele>
        <time>2025-04-30T14:46:39Z</time>
      </trkpt>
      <trkpt lat="42.907887026667595" lon="-9.262640029191971">
        <ele>9.75</ele>
        <time>2025-04-30T14:46:40Z</time>
      </trkpt>
      <trkpt lat="42.907790970057249" lon="-9.262598035857081">
        <ele>9.75</ele>
        <time>2025-04-30T14:46:41Z</time>
      </trkpt>
      <trkpt lat="42.90774897672236" lon="-9.262592000886798">
        <ele>9.27</ele>
        <time>2025-04-30T14:46:42Z</time>
      </trkpt>
      <trkpt lat="42.907692985609174" lon="-9.262583032250404">
        <ele>8.310000000000001</ele>
        <time>2025-04-30T14:46:43Z</time>
      </trkpt>
      <trkpt lat="42.90764101780951" lon="-9.26257498562336">
        <ele>7.83</ele>
        <time>2025-04-30T14:46:44Z</time>
      </trkpt>
      <trkpt lat="42.907588966190815" lon="-9.262567022815347">
        <ele>6.87</ele>
        <time>2025-04-30T14:46:45Z</time>
      </trkpt>
      <trkpt lat="42.906957976520061" lon="-9.262455962598324">
        <ele>2.54</ele>
        <time>2025-04-30T14:46:57Z</time>
      </trkpt>
      <trkpt lat="42.906790003180504" lon="-9.262426039204001">
        <ele>1.58</ele>
        <time>2025-04-30T14:47:00Z</time>
      </trkpt>
      <trkpt lat="42.906727977097034" lon="-9.262414975091815">
        <ele>1.58</ele>
        <time>2025-04-30T14:47:01Z</time>
      </trkpt>
      <trkpt lat="42.906633010134101" lon="-9.262397037819028">
        <ele>1.58</ele>
        <time>2025-04-30T14:47:02Z</time>
      </trkpt>
      <trkpt lat="42.90660903789103" lon="-9.262351021170616">
        <ele>1.1</ele>
        <time>2025-04-30T14:47:03Z</time>
      </trkpt>
      <trkpt lat="42.906577019020915" lon="-9.262288995087147">
        <ele>1.58</ele>
        <time>2025-04-30T14:47:04Z</time>
      </trkpt>
      <trkpt lat="42.906541982665658" lon="-9.262223029509187">
        <ele>1.58</ele>
        <time>2025-04-30T14:47:05Z</time>
      </trkpt>
      <trkpt lat="42.906247023493052" lon="-9.261624980717897">
        <ele>2.54</ele>
        <time>2025-04-30T14:47:13Z</time>
      </trkpt>
      <trkpt lat="42.906204024329782" lon="-9.261581981554627">
        <ele>2.54</ele>
        <time>2025-04-30T14:47:14Z</time>
      </trkpt>
      <trkpt lat="42.906105034053326" lon="-9.261483997106552">
        <ele>3.02</ele>
        <time>2025-04-30T14:47:16Z</time>
      </trkpt>
      <trkpt lat="42.906031021848321" lon="-9.261409984901547">
        <ele>3.02</ele>
        <time>2025-04-30T14:47:17Z</time>
      </trkpt>
      <trkpt lat="42.905924990773201" lon="-9.26139498129487">
        <ele>3.02</ele>
        <time>2025-04-30T14:47:19Z</time>
      </trkpt>
      <trkpt lat="42.905861958861351" lon="-9.261391963809729">
        <ele>3.02</ele>
        <time>2025-04-30T14:47:20Z</time>
      </trkpt>
      <trkpt lat="42.90581502020359" lon="-9.261401016265154">
        <ele>2.54</ele>
        <time>2025-04-30T14:47:21Z</time>
      </trkpt>
      <trkpt lat="42.905776966363192" lon="-9.261407973244786">
        <ele>2.06</ele>
        <time>2025-04-30T14:47:22Z</time>
      </trkpt>
      <trkpt lat="42.905743019655347" lon="-9.26141400821507">
        <ele>2.06</ele>
        <time>2025-04-30T14:47:23Z</time>
      </trkpt>
      <trkpt lat="42.905646041035652" lon="-9.261432029306889">
        <ele>1.58</ele>
        <time>2025-04-30T14:47:26Z</time>
      </trkpt>
      <trkpt lat="42.905585020780563" lon="-9.261507969349623">
        <ele>1.58</ele>
        <time>2025-04-30T14:47:27Z</time>
      </trkpt>
      <trkpt lat="42.905547972768545" lon="-9.261553985998035">
        <ele>1.58</ele>
        <time>2025-04-30T14:47:28Z</time>
      </trkpt>
      <trkpt lat="42.905510002747178" lon="-9.261601008474827">
        <ele>1.58</ele>
        <time>2025-04-30T14:47:29Z</time>
      </trkpt>
      <trkpt lat="42.90547396056354" lon="-9.261647025123239">
        <ele>1.1</ele>
        <time>2025-04-30T14:47:30Z</time>
      </trkpt>
      <trkpt lat="42.905441019684076" lon="-9.261689018458128">
        <ele>1.1</ele>
        <time>2025-04-30T14:47:31Z</time>
      </trkpt>
      <trkpt lat="42.9054069891572" lon="-9.261730005964637">
        <ele>1.1</ele>
        <time>2025-04-30T14:47:32Z</time>
      </trkpt>
      <trkpt lat="42.905286960303783" lon="-9.261893033981323">
        <ele>0.14</ele>
        <time>2025-04-30T14:47:41Z</time>
      </trkpt>
      <trkpt lat="42.905286960303783" lon="-9.261893033981323">
        <ele>0.14</ele>
        <time>2025-04-30T14:48:03Z</time>
      </trkpt>
      <trkpt lat="42.905238009989262" lon="-9.261990012601018">
        <ele>0.14</ele>
        <time>2025-04-30T14:48:12Z</time>
      </trkpt>
      <trkpt lat="42.705243034288287" lon="2.894810037687421">
        <ele>33.780000000000001</ele>
        <time>2025-05-16T06:57:44Z</time>
      </trkpt>
      <trkpt lat="42.70507799461484" lon="2.89498002268374">
        <ele>34.740000000000002</ele>
        <time>2025-05-16T06:59:04Z</time>
      </trkpt>
      <trkpt lat="42.705069025978446" lon="2.8950269613415">
        <ele>34.740000000000002</ele>
        <time>2025-05-16T06:59:22Z</time>
      </trkpt>
      <trkpt lat="42.705204980447888" lon="2.894963007420301">
        <ele>33.299999999999997</ele>
        <time>2025-05-16T06:59:33Z</time>
      </trkpt>
      <trkpt lat="42.70529299043119" lon="2.894910033792257">
        <ele>34.259999999999998</ele>
        <time>2025-05-16T06:59:46Z</time>
      </trkpt>
      <trkpt lat="42.705258959904313" lon="2.894753040745854">
        <ele>34.740000000000002</ele>
        <time>2025-05-16T07:00:05Z</time>
      </trkpt>
      <trkpt lat="42.705286033451557" lon="2.894816994667053">
        <ele>34.740000000000002</ele>
        <time>2025-05-16T07:00:18Z</time>
      </trkpt>
      <trkpt lat="42.70533699542284" lon="2.894949009642005">
        <ele>34.740000000000002</ele>
        <time>2025-05-16T07:00:33Z</time>
      </trkpt>
      <trkpt lat="42.70535702817142" lon="2.894970970228314">
        <ele>35.229999999999997</ele>
        <time>2025-05-16T07:01:20Z</time>
      </trkpt>
      <trkpt lat="42.705506980419159" lon="2.895375983789563">
        <ele>39.549999999999997</ele>
        <time>2025-05-16T07:01:27Z</time>
      </trkpt>
      <trkpt lat="42.705532964318991" lon="2.895457958802581">
        <ele>39.549999999999997</ele>
        <time>2025-05-16T07:01:28Z</time>
      </trkpt>
      <trkpt lat="42.705555008724332" lon="2.895528031513095">
        <ele>39.07</ele>
        <time>2025-05-16T07:01:29Z</time>
      </trkpt>
      <trkpt lat="42.705772016197443" lon="2.896329006180167">
        <ele>36.189999999999998</ele>
        <time>2025-05-16T07:01:38Z</time>
      </trkpt>
      <trkpt lat="42.705798000097275" lon="2.896416010335088">
        <ele>35.710000000000001</ele>
        <time>2025-05-16T07:01:39Z</time>
      </trkpt>
      <trkpt lat="42.706008972600102" lon="2.897136015817523">
        <ele>33.780000000000001</ele>
        <time>2025-05-16T07:01:47Z</time>
      </trkpt>
      <trkpt lat="42.706037973985076" lon="2.897232994437218">
        <ele>34.259999999999998</ele>
        <time>2025-05-16T07:01:48Z</time>
      </trkpt>
      <trkpt lat="42.706065969541669" lon="2.897329973056912">
        <ele>34.259999999999998</ele>
        <time>2025-05-16T07:01:49Z</time>
      </trkpt>
      <trkpt lat="42.70630300976336" lon="2.898129019886255">
        <ele>35.710000000000001</ele>
        <time>2025-05-16T07:01:57Z</time>
      </trkpt>
      <trkpt lat="42.706331005319953" lon="2.898222981020808">
        <ele>35.229999999999997</ele>
        <time>2025-05-16T07:01:58Z</time>
      </trkpt>
      <trkpt lat="42.706559998914599" lon="2.898991014808416">
        <ele>34.259999999999998</ele>
        <time>2025-05-16T07:02:06Z</time>
      </trkpt>
      <trkpt lat="42.706589000299573" lon="2.899091010913253">
        <ele>34.259999999999998</ele>
        <time>2025-05-16T07:02:07Z</time>
      </trkpt>
      <trkpt lat="42.706896029412746" lon="2.900103041902185">
        <ele>32.340000000000003</ele>
        <time>2025-05-16T07:02:16Z</time>
      </trkpt>
      <trkpt lat="42.707114964723587" lon="2.900713998824358">
        <ele>30.899999999999999</ele>
        <time>2025-05-16T07:02:21Z</time>
      </trkpt>
      <trkpt lat="42.707148995250463" lon="2.900806032121182">
        <ele>29.940000000000001</ele>
        <time>2025-05-16T07:02:22Z</time>
      </trkpt>
      <trkpt lat="42.707629026845098" lon="2.901969021186233">
        <ele>27.530000000000001</ele>
        <time>2025-05-16T07:02:33Z</time>
      </trkpt>
      <trkpt lat="42.708225985988975" lon="2.903407020494342">
        <ele>22.25</ele>
        <time>2025-05-16T07:02:46Z</time>
      </trkpt>
      <trkpt lat="42.708855969831347" lon="2.904877960681915">
        <ele>24.170000000000002</ele>
        <time>2025-05-16T07:02:59Z</time>
      </trkpt>
      <trkpt lat="42.708894023671746" lon="2.904967982321978">
        <ele>24.649999999999999</ele>
        <time>2025-05-16T07:03:00Z</time>
      </trkpt>
      <trkpt lat="42.708929982036352" lon="2.905049035325646">
        <ele>24.649999999999999</ele>
        <time>2025-05-16T07:03:01Z</time>
      </trkpt>
      <trkpt lat="42.708963006734848" lon="2.90512396954">
        <ele>25.129999999999999</ele>
        <time>2025-05-16T07:03:02Z</time>
      </trkpt>
      <trkpt lat="42.708997959271073" lon="2.905202005058527">
        <ele>25.609999999999999</ele>
        <time>2025-05-16T07:03:03Z</time>
      </trkpt>
      <trkpt lat="42.709035007283092" lon="2.905284985899925">
        <ele>25.609999999999999</ele>
        <time>2025-05-16T07:03:04Z</time>
      </trkpt>
      <trkpt lat="42.709071971476078" lon="2.905368972569704">
        <ele>25.609999999999999</ele>
        <time>2025-05-16T07:03:05Z</time>
      </trkpt>
      <trkpt lat="42.709089992567897" lon="2.905476009473205">
        <ele>25.609999999999999</ele>
        <time>2025-05-16T07:03:06Z</time>
      </trkpt>
      <trkpt lat="42.709094015881419" lon="2.905497970059514">
        <ele>25.609999999999999</ele>
        <time>2025-05-16T07:03:07Z</time>
      </trkpt>
      <trkpt lat="42.709168028086424" lon="2.905744984745979">
        <ele>25.609999999999999</ele>
        <time>2025-05-16T07:03:08Z</time>
      </trkpt>
      <trkpt lat="42.709137015044689" lon="2.905859984457493">
        <ele>25.609999999999999</ele>
        <time>2025-05-16T07:03:09Z</time>
      </trkpt>
      <trkpt lat="42.709104996174574" lon="2.905975989997387">
        <ele>26.09</ele>
        <time>2025-05-16T07:03:10Z</time>
      </trkpt>
      <trkpt lat="42.708912966772914" lon="2.906744023784995">
        <ele>28.5</ele>
        <time>2025-05-16T07:03:16Z</time>
      </trkpt>
      <trkpt lat="42.708907015621662" lon="2.90686204098165">
        <ele>28.5</ele>
        <time>2025-05-16T07:03:17Z</time>
      </trkpt>
      <trkpt lat="42.708921013399959" lon="2.906989026814699">
        <ele>28.98</ele>
        <time>2025-05-16T07:03:18Z</time>
      </trkpt>
      <trkpt lat="42.708977004513144" lon="2.907077036798">
        <ele>29.460000000000001</ele>
        <time>2025-05-16T07:03:19Z</time>
      </trkpt>
      <trkpt lat="42.709045987576246" lon="2.907173009589315">
        <ele>29.940000000000001</ele>
        <time>2025-05-16T07:03:20Z</time>
      </trkpt>
      <trkpt lat="42.709114970639348" lon="2.907268982380629">
        <ele>29.940000000000001</ele>
        <time>2025-05-16T07:03:21Z</time>
      </trkpt>
      <trkpt lat="42.709184037521482" lon="2.907366966828704">
        <ele>29.940000000000001</ele>
        <time>2025-05-16T07:03:22Z</time>
      </trkpt>
      <trkpt lat="42.709300965070724" lon="2.907565031200647">
        <ele>29.940000000000001</ele>
        <time>2025-05-16T07:03:24Z</time>
      </trkpt>
      <trkpt lat="42.709342958405614" lon="2.907649017870426">
        <ele>29.940000000000001</ele>
        <time>2025-05-16T07:03:25Z</time>
      </trkpt>
      <trkpt lat="42.709383023902774" lon="2.907727975398302">
        <ele>29.940000000000001</ele>
        <time>2025-05-16T07:03:26Z</time>
      </trkpt>
      <trkpt lat="42.709308005869389" lon="2.907986976206303">
        <ele>29.460000000000001</ele>
        <time>2025-05-16T07:03:27Z</time>
      </trkpt>
      <trkpt lat="42.709308005869389" lon="2.907986976206303">
        <ele>29.460000000000001</ele>
        <time>2025-05-16T07:03:28Z</time>
      </trkpt>
      <trkpt lat="42.709301970899105" lon="2.908064005896449">
        <ele>29.460000000000001</ele>
        <time>2025-05-16T07:03:29Z</time>
      </trkpt>
      <trkpt lat="42.709296019747853" lon="2.908142963424325">
        <ele>29.460000000000001</ele>
        <time>2025-05-16T07:03:30Z</time>
      </trkpt>
      <trkpt lat="42.70929099060595" lon="2.908205995336175">
        <ele>29.460000000000001</ele>
        <time>2025-05-16T07:03:31Z</time>
      </trkpt>
      <trkpt lat="42.709020003676414" lon="2.908400958403945">
        <ele>28.98</ele>
        <time>2025-05-16T07:03:40Z</time>
      </trkpt>
      <trkpt lat="42.70868900232017" lon="2.908597011119127">
        <ele>30.899999999999999</ele>
        <time>2025-05-16T07:03:51Z</time>
      </trkpt>
      <trkpt lat="42.708563022315502" lon="2.908665994182229">
        <ele>31.379999999999999</ele>
        <time>2025-05-16T07:04:01Z</time>
      </trkpt>
      <trkpt lat="42.70845397375524" lon="2.908727014437318">
        <ele>32.340000000000003</ele>
        <time>2025-05-16T07:04:08Z</time>
      </trkpt>
      <trkpt lat="42.708143005147576" lon="2.908916026353836">
        <ele>32.82</ele>
        <time>2025-05-16T07:04:15Z</time>
      </trkpt>
      <trkpt lat="42.707806974649429" lon="2.909110989421606">
        <ele>32.340000000000003</ele>
        <time>2025-05-16T07:04:27Z</time>
      </trkpt>
      <trkpt lat="42.707462981343269" lon="2.909037983044982">
        <ele>32.340000000000003</ele>
        <time>2025-05-16T07:04:34Z</time>
      </trkpt>
      <trkpt lat="42.707396009936929" lon="2.909072013571858">
        <ele>32.340000000000003</ele>
        <time>2025-05-16T07:04:35Z</time>
      </trkpt>
      <trkpt lat="42.707323003560305" lon="2.909132027998567">
        <ele>31.859999999999999</ele>
        <time>2025-05-16T07:04:36Z</time>
      </trkpt>
      <trkpt lat="42.707289978861809" lon="2.909220959991217">
        <ele>31.859999999999999</ele>
        <time>2025-05-16T07:04:37Z</time>
      </trkpt>
      <trkpt lat="42.707277992740273" lon="2.909330008551478">
        <ele>31.379999999999999</ele>
        <time>2025-05-16T07:04:38Z</time>
      </trkpt>
      <trkpt lat="42.707295008003712" lon="2.909437967464328">
        <ele>30.899999999999999</ele>
        <time>2025-05-16T07:04:39Z</time>
      </trkpt>
      <trkpt lat="42.707311017438769" lon="2.909545004367828">
        <ele>30.420000000000002</ele>
        <time>2025-05-16T07:04:40Z</time>
      </trkpt>
      <trkpt lat="42.707395004108548" lon="2.909621028229594">
        <ele>30.420000000000002</ele>
        <time>2025-05-16T07:04:41Z</time>
      </trkpt>
      <trkpt lat="42.70744102075696" lon="2.909660004079342">
        <ele>29.940000000000001</ele>
        <time>2025-05-16T07:04:42Z</time>
      </trkpt>
      <trkpt lat="42.707521989941597" lon="2.909798976033926">
        <ele>29.460000000000001</ele>
        <time>2025-05-16T07:04:43Z</time>
      </trkpt>
      <trkpt lat="42.707591978833079" lon="2.909917999058962">
        <ele>28.98</ele>
        <time>2025-05-16T07:04:44Z</time>
      </trkpt>
      <trkpt lat="42.707642018795013" lon="2.910049008205533">
        <ele>28.5</ele>
        <time>2025-05-16T07:04:45Z</time>
      </trkpt>
      <trkpt lat="42.70819203928113" lon="2.911483990028501">
        <ele>24.170000000000002</ele>
        <time>2025-05-16T07:04:53Z</time>
      </trkpt>
      <trkpt lat="42.709275986999273" lon="2.9143419675529">
        <ele>23.210000000000001</ele>
        <time>2025-05-16T07:05:07Z</time>
      </trkpt>
      <trkpt lat="42.710180981084704" lon="2.917598001658917">
        <ele>23.690000000000001</ele>
        <time>2025-05-16T07:05:22Z</time>
      </trkpt>
      <trkpt lat="42.710861004889011" lon="2.920210976153612">
        <ele>24.170000000000002</ele>
        <time>2025-05-16T07:05:34Z</time>
      </trkpt>
      <trkpt lat="42.711603976786137" lon="2.923067025840282">
        <ele>24.170000000000002</ele>
        <time>2025-05-16T07:05:47Z</time>
      </trkpt>
      <trkpt lat="42.712348038330674" lon="2.925977976992726">
        <ele>24.170000000000002</ele>
        <time>2025-05-16T07:06:00Z</time>
      </trkpt>
      <trkpt lat="42.713069971650839" lon="2.929126974195242">
        <ele>24.649999999999999</ele>
        <time>2025-05-16T07:06:14Z</time>
      </trkpt>
      <trkpt lat="42.713618986308575" lon="2.931582033634186">
        <ele>25.129999999999999</ele>
        <time>2025-05-16T07:06:23Z</time>
      </trkpt>
      <trkpt lat="42.714343015104532" lon="2.935011992231011">
        <ele>24.649999999999999</ele>
        <time>2025-05-16T07:06:33Z</time>
      </trkpt>
      <trkpt lat="42.714767977595329" lon="2.938192002475262">
        <ele>24.649999999999999</ele>
        <time>2025-05-16T07:06:42Z</time>
      </trkpt>
      <trkpt lat="42.714756997302175" lon="2.941768979653716">
        <ele>24.170000000000002</ele>
        <time>2025-05-16T07:06:52Z</time>
      </trkpt>
      <trkpt lat="42.714342009276152" lon="2.944834996014834">
        <ele>24.170000000000002</ele>
        <time>2025-05-16T07:07:01Z</time>
      </trkpt>
      <trkpt lat="42.713573975488544" lon="2.947947029024363">
        <ele>23.210000000000001</ele>
        <time>2025-05-16T07:07:10Z</time>
      </trkpt>
      <trkpt lat="42.712526991963387" lon="2.95243302360177">
        <ele>21.77</ele>
        <time>2025-05-16T07:07:23Z</time>
      </trkpt>
      <trkpt lat="42.712163971737027" lon="2.955608004704118">
        <ele>21.77</ele>
        <time>2025-05-16T07:07:32Z</time>
      </trkpt>
      <trkpt lat="42.711994992569089" lon="2.960647037252784">
        <ele>22.73</ele>
        <time>2025-05-16T07:07:46Z</time>
      </trkpt>
      <trkpt lat="42.711762981489301" lon="2.966365003958345">
        <ele>23.690000000000001</ele>
        <time>2025-05-16T07:08:02Z</time>
      </trkpt>
      <trkpt lat="42.71124598570168" lon="2.969829998910427">
        <ele>26.09</ele>
        <time>2025-05-16T07:08:12Z</time>
      </trkpt>
      <trkpt lat="42.710205959156156" lon="2.973107993602753">
        <ele>30.420000000000002</ele>
        <time>2025-05-16T07:08:22Z</time>
      </trkpt>
      <trkpt lat="42.708888994529843" lon="2.976194964721799">
        <ele>34.259999999999998</ele>
        <time>2025-05-16T07:08:32Z</time>
      </trkpt>
      <trkpt lat="42.707779984921217" lon="2.979415962472558">
        <ele>38.109999999999999</ele>
        <time>2025-05-16T07:08:42Z</time>
      </trkpt>
      <trkpt lat="42.707148995250463" lon="2.982874000445008">
        <ele>37.630000000000003</ele>
        <time>2025-05-16T07:08:52Z</time>
      </trkpt>
      <trkpt lat="42.706633005291224" lon="2.987451022490859">
        <ele>36.670000000000002</ele>
        <time>2025-05-16T07:09:05Z</time>
      </trkpt>
      <trkpt lat="42.705934038385749" lon="2.991986973211169">
        <ele>33.780000000000001</ele>
        <time>2025-05-16T07:09:18Z</time>
      </trkpt>
      <trkpt lat="42.705233981832862" lon="2.99450003542006">
        <ele>31.859999999999999</ele>
        <time>2025-05-16T07:09:26Z</time>
      </trkpt>
      <trkpt lat="42.704190015792847" lon="2.997247036546469">
        <ele>28.5</ele>
        <time>2025-05-16T07:09:36Z</time>
      </trkpt>
      <trkpt lat="42.70331896841526" lon="2.999606961384416">
        <ele>28.98</ele>
        <time>2025-05-16T07:09:46Z</time>
      </trkpt>
      <trkpt lat="42.702593011781573" lon="3.002210967242718">
        <ele>29.940000000000001</ele>
        <time>2025-05-16T07:09:56Z</time>
      </trkpt>
      <trkpt lat="42.702411962673068" lon="3.003239007666707">
        <ele>28.98</ele>
        <time>2025-05-16T07:10:00Z</time>
      </trkpt>
      <trkpt lat="42.702133012935519" lon="3.005878971889615">
        <ele>28.02</ele>
        <time>2025-05-16T07:10:10Z</time>
      </trkpt>
      <trkpt lat="42.702118009328842" lon="3.008767040446401">
        <ele>27.050000000000001</ele>
        <time>2025-05-16T07:10:20Z</time>
      </trkpt>
      <trkpt lat="42.70230601541698" lon="3.010808033868671">
        <ele>25.129999999999999</ele>
        <time>2025-05-16T07:10:29Z</time>
      </trkpt>
      <trkpt lat="42.702512964606285" lon="3.013524021953344">
        <ele>21.289999999999999</ele>
        <time>2025-05-16T07:10:41Z</time>
      </trkpt>
      <trkpt lat="42.702549006789923" lon="3.014823971316218">
        <ele>15.52</ele>
        <time>2025-05-16T07:10:50Z</time>
      </trkpt>
      <trkpt lat="42.70252101123333" lon="3.014885997399688">
        <ele>15.039999999999999</ele>
        <time>2025-05-16T07:10:57Z</time>
      </trkpt>
      <trkpt lat="42.702506007626653" lon="3.014919022098184">
        <ele>14.56</ele>
        <time>2025-05-16T07:10:59Z</time>
      </trkpt>
      <trkpt lat="42.702483963221312" lon="3.014967972412705">
        <ele>14.56</ele>
        <time>2025-05-16T07:11:00Z</time>
      </trkpt>
      <trkpt lat="42.702441969886422" lon="3.015060005709529">
        <ele>14.08</ele>
        <time>2025-05-16T07:11:01Z</time>
      </trkpt>
      <trkpt lat="42.702419003471732" lon="3.015106022357941">
        <ele>13.6</ele>
        <time>2025-05-16T07:11:02Z</time>
      </trkpt>
      <trkpt lat="42.702378015965223" lon="3.015187997370958">
        <ele>13.6</ele>
        <time>2025-05-16T07:11:03Z</time>
      </trkpt>
      <trkpt lat="42.702344991266727" lon="3.01527701318264">
        <ele>13.6</ele>
        <time>2025-05-16T07:11:04Z</time>
      </trkpt>
      <trkpt lat="42.702318001538515" lon="3.015394024550915">
        <ele>13.6</ele>
        <time>2025-05-16T07:11:05Z</time>
      </trkpt>
      <trkpt lat="42.702292017638683" lon="3.01551103591919">
        <ele>13.6</ele>
        <time>2025-05-16T07:11:06Z</time>
      </trkpt>
      <trkpt lat="42.70230702124536" lon="3.015632992610335">
        <ele>13.6</ele>
        <time>2025-05-16T07:11:07Z</time>
      </trkpt>
      <trkpt lat="42.702324036508799" lon="3.015769030898809">
        <ele>13.6</ele>
        <time>2025-05-16T07:11:08Z</time>
      </trkpt>
      <trkpt lat="42.70235002040863" lon="3.015880007296801">
        <ele>13.6</ele>
        <time>2025-05-16T07:11:09Z</time>
      </trkpt>
      <trkpt lat="42.702411040663719" lon="3.01598503254354">
        <ele>13.6</ele>
        <time>2025-05-16T07:11:10Z</time>
      </trkpt>
      <trkpt lat="42.702468959614635" lon="3.016086034476757">
        <ele>13.6</ele>
        <time>2025-05-16T07:11:11Z</time>
      </trkpt>
      <trkpt lat="42.702537020668387" lon="3.016146970912814">
        <ele>14.08</ele>
        <time>2025-05-16T07:11:12Z</time>
      </trkpt>
      <trkpt lat="42.702613966539502" lon="3.016165997833014">
        <ele>14.08</ele>
        <time>2025-05-16T07:11:13Z</time>
      </trkpt>
      <trkpt lat="42.702699964866042" lon="3.01617999561131">
        <ele>14.08</ele>
        <time>2025-05-16T07:11:14Z</time>
      </trkpt>
      <trkpt lat="42.70278001204133" lon="3.016192987561226">
        <ele>14.08</ele>
        <time>2025-05-16T07:11:15Z</time>
      </trkpt>
      <trkpt lat="42.702839020639658" lon="3.016182007268071">
        <ele>14.08</ele>
        <time>2025-05-16T07:11:16Z</time>
      </trkpt>
      <trkpt lat="42.702912027016282" lon="3.016144959256053">
        <ele>14.08</ele>
        <time>2025-05-16T07:11:17Z</time>
      </trkpt>
      <trkpt lat="42.702985033392906" lon="3.016107995063067">
        <ele>14.08</ele>
        <time>2025-05-16T07:11:18Z</time>
      </trkpt>
      <trkpt lat="42.703020991757512" lon="3.016089973971248">
        <ele>14.08</ele>
        <time>2025-05-16T07:11:19Z</time>
      </trkpt>
      <trkpt lat="42.703155018389225" lon="3.016112018376589">
        <ele>14.08</ele>
        <time>2025-05-16T07:11:20Z</time>
      </trkpt>
      <trkpt lat="42.703247973695397" lon="3.016128027811647">
        <ele>14.08</ele>
        <time>2025-05-16T07:11:21Z</time>
      </trkpt>
      <trkpt lat="42.703347969800234" lon="3.016177983954549">
        <ele>14.08</ele>
        <time>2025-05-16T07:11:22Z</time>
      </trkpt>
      <trkpt lat="42.703557014465332" lon="3.016312010586262">
        <ele>13.6</ele>
        <time>2025-05-16T07:11:24Z</time>
      </trkpt>
      <trkpt lat="42.704651020467281" lon="3.017157996073365">
        <ele>13.6</ele>
        <time>2025-05-16T07:11:33Z</time>
      </trkpt>
      <trkpt lat="42.706247018650174" lon="3.018534975126386">
        <ele>12.630000000000001</ele>
        <time>2025-05-16T07:11:45Z</time>
      </trkpt>
      <trkpt lat="42.708167983219028" lon="3.020378993824124">
        <ele>9.75</ele>
        <time>2025-05-16T07:11:58Z</time>
      </trkpt>
      <trkpt lat="42.709865989163518" lon="3.022055961191654">
        <ele>10.710000000000001</ele>
        <time>2025-05-16T07:12:09Z</time>
      </trkpt>
      <trkpt lat="42.711857026442885" lon="3.023954965174198">
        <ele>13.6</ele>
        <time>2025-05-16T07:12:22Z</time>
      </trkpt>
      <trkpt lat="42.713986029848456" lon="3.026002999395132">
        <ele>11.67</ele>
        <time>2025-05-16T07:12:35Z</time>
      </trkpt>
      <trkpt lat="42.716131964698434" lon="3.027741992846131">
        <ele>11.19</ele>
        <time>2025-05-16T07:12:48Z</time>
      </trkpt>
      <trkpt lat="42.718169018626213" lon="3.028868017718196">
        <ele>8.789999999999999</ele>
        <time>2025-05-16T07:12:59Z</time>
      </trkpt>
      <trkpt lat="42.719916980713606" lon="3.029476962983608">
        <ele>7.35</ele>
        <time>2025-05-16T07:13:08Z</time>
      </trkpt>
      <trkpt lat="42.722142040729523" lon="3.029815005138516">
        <ele>7.83</ele>
        <time>2025-05-16T07:13:19Z</time>
      </trkpt>
      <trkpt lat="42.724187979474664" lon="3.029768988490105">
        <ele>8.310000000000001</ele>
        <time>2025-05-16T07:13:30Z</time>
      </trkpt>
      <trkpt lat="42.726198965683579" lon="3.029364980757237">
        <ele>7.35</ele>
        <time>2025-05-16T07:13:40Z</time>
      </trkpt>
      <trkpt lat="42.728065028786659" lon="3.028638018295169">
        <ele>6.87</ele>
        <time>2025-05-16T07:13:50Z</time>
      </trkpt>
      <trkpt lat="42.729690028354526" lon="3.027742998674512">
        <ele>7.35</ele>
        <time>2025-05-16T07:14:00Z</time>
      </trkpt>
      <trkpt lat="42.731329025700688" lon="3.026802968233824">
        <ele>6.87</ele>
        <time>2025-05-16T07:14:11Z</time>
      </trkpt>
      <trkpt lat="42.732010977342725" lon="3.026543967425823">
        <ele>7.35</ele>
        <time>2025-05-16T07:14:18Z</time>
      </trkpt>
      <trkpt lat="42.732078032568097" lon="3.02655503153801">
        <ele>7.35</ele>
        <time>2025-05-16T07:14:19Z</time>
      </trkpt>
      <trkpt lat="42.73215196095407" lon="3.02660197019577">
        <ele>7.35</ele>
        <time>2025-05-16T07:14:20Z</time>
      </trkpt>
      <trkpt lat="42.732224967330694" lon="3.026647986844182">
        <ele>7.35</ele>
        <time>2025-05-16T07:14:21Z</time>
      </trkpt>
      <trkpt lat="42.73232102394104" lon="3.026633989065886">
        <ele>7.35</ele>
        <time>2025-05-16T07:14:22Z</time>
      </trkpt>
      <trkpt lat="42.732375003397465" lon="3.026626026257873">
        <ele>7.35</ele>
        <time>2025-05-16T07:14:23Z</time>
      </trkpt>
      <trkpt lat="42.732527973130345" lon="3.026585960760713">
        <ele>7.35</ele>
        <time>2025-05-16T07:14:24Z</time>
      </trkpt>
      <trkpt lat="42.732594022527337" lon="3.026651004329324">
        <ele>7.35</ele>
        <time>2025-05-16T07:14:25Z</time>
      </trkpt>
      <trkpt lat="42.732664011418819" lon="3.026732979342341">
        <ele>7.35</ele>
        <time>2025-05-16T07:14:26Z</time>
      </trkpt>
      <trkpt lat="42.732735006138682" lon="3.026829035952687">
        <ele>7.35</ele>
        <time>2025-05-16T07:14:27Z</time>
      </trkpt>
      <trkpt lat="42.732812035828829" lon="3.026934983208776">
        <ele>7.35</ele>
        <time>2025-05-16T07:14:28Z</time>
      </trkpt>
      <trkpt lat="42.733729016035795" lon="3.028187993913889">
        <ele>5.42</ele>
        <time>2025-05-16T07:14:39Z</time>
      </trkpt>
      <trkpt lat="42.733858013525605" lon="3.028397038578987">
        <ele>4.94</ele>
        <time>2025-05-16T07:14:41Z</time>
      </trkpt>
      <trkpt lat="42.733904030174017" lon="3.028508014976978">
        <ele>4.94</ele>
        <time>2025-05-16T07:14:42Z</time>
      </trkpt>
      <trkpt lat="42.733942000195384" lon="3.028622008860111">
        <ele>4.46</ele>
        <time>2025-05-16T07:14:43Z</time>
      </trkpt>
      <trkpt lat="42.733958009630442" lon="3.028865000233054">
        <ele>4.46</ele>
        <time>2025-05-16T07:14:45Z</time>
      </trkpt>
      <trkpt lat="42.733899001032114" lon="3.029007995501161">
        <ele>3.98</ele>
        <time>2025-05-16T07:14:46Z</time>
      </trkpt>
      <trkpt lat="42.733899001032114" lon="3.029065998271108">
        <ele>3.98</ele>
        <time>2025-05-16T07:14:47Z</time>
      </trkpt>
      <trkpt lat="42.733924984931946" lon="3.029179992154241">
        <ele>3.98</ele>
        <time>2025-05-16T07:14:48Z</time>
      </trkpt>
      <trkpt lat="42.733963038772345" lon="3.029244029894471">
        <ele>3.5</ele>
        <time>2025-05-16T07:14:49Z</time>
      </trkpt>
      <trkpt lat="42.733963038772345" lon="3.029244029894471">
        <ele>3.5</ele>
        <time>2025-05-16T07:14:50Z</time>
      </trkpt>
      <trkpt lat="42.734119025990367" lon="3.029329022392631">
        <ele>3.5</ele>
        <time>2025-05-16T07:14:51Z</time>
      </trkpt>
      <trkpt lat="42.73414802737534" lon="3.029418960213661">
        <ele>3.02</ele>
        <time>2025-05-16T07:14:52Z</time>
      </trkpt>
      <trkpt lat="42.734179040417075" lon="3.029517028480768">
        <ele>3.02</ele>
        <time>2025-05-16T07:14:53Z</time>
      </trkpt>
      <trkpt lat="42.734240982681513" lon="3.029710985720158">
        <ele>3.02</ele>
        <time>2025-05-16T07:14:55Z</time>
      </trkpt>
      <trkpt lat="42.734265038743615" lon="3.029794972389936">
        <ele>3.02</ele>
        <time>2025-05-16T07:14:56Z</time>
      </trkpt>
      <trkpt lat="42.734271995723248" lon="3.029889017343521">
        <ele>3.02</ele>
        <time>2025-05-16T07:14:57Z</time>
      </trkpt>
      <trkpt lat="42.734280964359641" lon="3.029987001791596">
        <ele>3.02</ele>
        <time>2025-05-16T07:14:58Z</time>
      </trkpt>
      <trkpt lat="42.73427995853126" lon="3.030094038695097">
        <ele>3.02</ele>
        <time>2025-05-16T07:14:59Z</time>
      </trkpt>
      <trkpt lat="42.734228996559978" lon="3.031032979488373">
        <ele>3.98</ele>
        <time>2025-05-16T07:15:08Z</time>
      </trkpt>
      <trkpt lat="42.734179962426424" lon="3.031768994405866">
        <ele>3.98</ele>
        <time>2025-05-16T07:15:17Z</time>
      </trkpt>
      <trkpt lat="42.734179962426424" lon="3.031768994405866">
        <ele>3.98</ele>
        <time>2025-05-16T07:15:29Z</time>
      </trkpt>
      <trkpt lat="42.734179962426424" lon="3.031768994405866">
        <ele>3.98</ele>
        <time>2025-05-16T07:15:32Z</time>
      </trkpt>
      <trkpt lat="42.734154984354973" lon="3.031793972477317">
        <ele>3.98</ele>
        <time>2025-05-16T07:15:47Z</time>
      </trkpt>
      <trkpt lat="42.734122965484858" lon="3.031820962205529">
        <ele>11.19</ele>
        <time>2025-05-16T07:24:13Z</time>
      </trkpt>
      <trkpt lat="42.734136041253805" lon="3.031877959147096">
        <ele>15.039999999999999</ele>
        <time>2025-05-16T07:24:47Z</time>
      </trkpt>
      <trkpt lat="42.734140986576676" lon="3.03186496719718">
        <ele>14.08</ele>
        <time>2025-05-16T07:24:56Z</time>
      </trkpt>
      <trkpt lat="42.73416998796165" lon="3.031898997724056">
        <ele>13.119999999999999</ele>
        <time>2025-05-16T07:24:58Z</time>
      </trkpt>
      <trkpt lat="42.734166970476508" lon="3.031933028250933">
        <ele>13.119999999999999</ele>
        <time>2025-05-16T07:24:59Z</time>
      </trkpt>
      <trkpt lat="42.734164036810398" lon="3.031979966908693">
        <ele>13.119999999999999</ele>
        <time>2025-05-16T07:25:00Z</time>
      </trkpt>
      <trkpt lat="42.734160013496876" lon="3.032032018527389">
        <ele>12.630000000000001</ele>
        <time>2025-05-16T07:25:01Z</time>
      </trkpt>
      <trkpt lat="42.734133023768663" lon="3.032469972968102">
        <ele>11.19</ele>
        <time>2025-05-16T07:25:11Z</time>
      </trkpt>
      <trkpt lat="42.734078038483858" lon="3.033399023115635">
        <ele>11.19</ele>
        <time>2025-05-16T07:25:22Z</time>
      </trkpt>
      <trkpt lat="42.734067980200052" lon="3.033584011718631">
        <ele>11.19</ele>
        <time>2025-05-16T07:25:24Z</time>
      </trkpt>
      <trkpt lat="42.734008971601725" lon="3.034633006900549">
        <ele>9.27</ele>
        <time>2025-05-16T07:25:34Z</time>
      </trkpt>
      <trkpt lat="42.733920039609075" lon="3.035123012959957">
        <ele>7.83</ele>
        <time>2025-05-16T07:25:41Z</time>
      </trkpt>
      <trkpt lat="42.733900006860495" lon="3.035195013508201">
        <ele>7.83</ele>
        <time>2025-05-16T07:25:42Z</time>
      </trkpt>
      <trkpt lat="42.733879974111915" lon="3.035265002399683">
        <ele>7.83</ele>
        <time>2025-05-16T07:25:43Z</time>
      </trkpt>
      <trkpt lat="42.733858013525605" lon="3.035284029319882">
        <ele>7.35</ele>
        <time>2025-05-16T07:25:44Z</time>
      </trkpt>
      <trkpt lat="42.7338030282408" lon="3.035314036533237">
        <ele>7.35</ele>
        <time>2025-05-16T07:25:45Z</time>
      </trkpt>
      <trkpt lat="42.733746031299233" lon="3.03534496575594">
        <ele>7.35</ele>
        <time>2025-05-16T07:25:46Z</time>
      </trkpt>
      <trkpt lat="42.733685011044145" lon="3.035377990454435">
        <ele>7.83</ele>
        <time>2025-05-16T07:25:47Z</time>
      </trkpt>
      <trkpt lat="42.732787979766726" lon="3.035462982952595">
        <ele>8.310000000000001</ele>
        <time>2025-05-16T07:25:58Z</time>
      </trkpt>
      <trkpt lat="42.731423992663622" lon="3.035536995157599">
        <ele>7.83</ele>
        <time>2025-05-16T07:26:12Z</time>
      </trkpt>
      <trkpt lat="42.730165030807257" lon="3.035594997927547">
        <ele>5.42</ele>
        <time>2025-05-16T07:26:27Z</time>
      </trkpt>
      <trkpt lat="42.7290990203619" lon="3.035473041236401">
        <ele>4.94</ele>
        <time>2025-05-16T07:26:39Z</time>
      </trkpt>
      <trkpt lat="42.728165024891496" lon="3.035343959927559">
        <ele>4.46</ele>
        <time>2025-05-16T07:26:47Z</time>
      </trkpt>
      <trkpt lat="42.726989965885878" lon="3.035358963534236">
        <ele>4.46</ele>
        <time>2025-05-16T07:26:57Z</time>
      </trkpt>
      <trkpt lat="42.725743995979428" lon="3.035358963534236">
        <ele>4.94</ele>
        <time>2025-05-16T07:27:09Z</time>
      </trkpt>
      <trkpt lat="42.725653974339366" lon="3.035372039303184">
        <ele>4.46</ele>
        <time>2025-05-16T07:27:10Z</time>
      </trkpt>
      <trkpt lat="42.725577028468251" lon="3.035392994061112">
        <ele>4.46</ele>
        <time>2025-05-16T07:27:11Z</time>
      </trkpt>
      <trkpt lat="42.725510979071259" lon="3.035411015152931">
        <ele>4.46</ele>
        <time>2025-05-16T07:27:12Z</time>
      </trkpt>
      <trkpt lat="42.725377036258578" lon="3.035347983241081">
        <ele>3.02</ele>
        <time>2025-05-16T07:27:14Z</time>
      </trkpt>
      <trkpt lat="42.725310986861587" lon="3.035389976575971">
        <ele>3.02</ele>
        <time>2025-05-16T07:27:15Z</time>
      </trkpt>
      <trkpt lat="42.725277040153742" lon="3.035458959639072">
        <ele>2.54</ele>
        <time>2025-05-16T07:27:16Z</time>
      </trkpt>
      <trkpt lat="42.725273016840219" lon="3.035467006266117">
        <ele>2.06</ele>
        <time>2025-05-16T07:27:17Z</time>
      </trkpt>
      <trkpt lat="42.725320961326361" lon="3.035692982375622">
        <ele>1.58</ele>
        <time>2025-05-16T07:27:18Z</time>
      </trkpt>
      <trkpt lat="42.725290032103658" lon="3.03577302955091">
        <ele>1.1</ele>
        <time>2025-05-16T07:27:19Z</time>
      </trkpt>
      <trkpt lat="42.725261030718684" lon="3.035848969593644">
        <ele>0.62</ele>
        <time>2025-05-16T07:27:20Z</time>
      </trkpt>
      <trkpt lat="42.725250972434878" lon="3.035874031484127">
        <ele>0.62</ele>
        <time>2025-05-16T07:27:21Z</time>
      </trkpt>
      <trkpt lat="42.725165979936719" lon="3.035874031484127">
        <ele>0.62</ele>
        <time>2025-05-16T07:27:22Z</time>
      </trkpt>
      <trkpt lat="42.72510495968163" lon="3.035874031484127">
        <ele>0.14</ele>
        <time>2025-05-16T07:27:23Z</time>
      </trkpt>
      <trkpt lat="42.725028013810515" lon="3.035874031484127">
        <ele>0.14</ele>
        <time>2025-05-16T07:27:24Z</time>
      </trkpt>
      <trkpt lat="42.724699024111032" lon="3.03590496070683">
        <ele>-0.82</ele>
        <time>2025-05-16T07:27:28Z</time>
      </trkpt>
      <trkpt lat="42.724620988592505" lon="3.035934967920184">
        <ele>-0.82</ele>
        <time>2025-05-16T07:27:29Z</time>
      </trkpt>
      <trkpt lat="42.724546976387501" lon="3.035963969305158">
        <ele>-0.82</ele>
        <time>2025-05-16T07:27:30Z</time>
      </trkpt>
      <trkpt lat="42.724472964182496" lon="3.036063965409994">
        <ele>-0.82</ele>
        <time>2025-05-16T07:27:31Z</time>
      </trkpt>
      <trkpt lat="42.724438011646271" lon="3.036167984828353">
        <ele>-0.82</ele>
        <time>2025-05-16T07:27:32Z</time>
      </trkpt>
      <trkpt lat="42.724409010261297" lon="3.036290025338531">
        <ele>-0.82</ele>
        <time>2025-05-16T07:27:33Z</time>
      </trkpt>
      <trkpt lat="42.724395012483001" lon="3.036412987858057">
        <ele>-0.82</ele>
        <time>2025-05-16T07:27:34Z</time>
      </trkpt>
      <trkpt lat="42.724382020533085" lon="3.036535028368235">
        <ele>-0.82</ele>
        <time>2025-05-16T07:27:35Z</time>
      </trkpt>
      <trkpt lat="42.724355030804873" lon="3.036640975624323">
        <ele>-0.82</ele>
        <time>2025-05-16T07:27:36Z</time>
      </trkpt>
      <trkpt lat="42.724300967529416" lon="3.036695038899779">
        <ele>-1.3</ele>
        <time>2025-05-16T07:27:37Z</time>
      </trkpt>
      <trkpt lat="42.724241958931088" lon="3.036722028627992">
        <ele>-1.79</ele>
        <time>2025-05-16T07:27:38Z</time>
      </trkpt>
      <trkpt lat="42.72426400333643" lon="3.036733008921146">
        <ele>-2.27</ele>
        <time>2025-05-16T07:27:39Z</time>
      </trkpt>
      <trkpt lat="42.72426400333643" lon="3.036733008921146">
        <ele>-2.27</ele>
        <time>2025-05-16T07:27:40Z</time>
      </trkpt>
      <trkpt lat="42.724213963374496" lon="3.036707025021315">
        <ele>-2.75</ele>
        <time>2025-05-16T07:27:41Z</time>
      </trkpt>
      <trkpt lat="42.72422100417316" lon="3.036710964515805">
        <ele>-2.75</ele>
        <time>2025-05-16T07:27:42Z</time>
      </trkpt>
      <trkpt lat="42.724230978637934" lon="3.036715993657708">
        <ele>-2.75</ele>
        <time>2025-05-16T07:27:43Z</time>
      </trkpt>
      <trkpt lat="42.724245982244611" lon="3.036723034456372">
        <ele>-2.75</ele>
        <time>2025-05-16T07:27:44Z</time>
      </trkpt>
      <trkpt lat="42.724267020821571" lon="3.036729991436005">
        <ele>-2.75</ele>
        <time>2025-05-16T07:27:45Z</time>
      </trkpt>
      <trkpt lat="42.724300967529416" lon="3.036695960909128">
        <ele>-2.75</ele>
        <time>2025-05-16T07:27:46Z</time>
      </trkpt>
      <trkpt lat="42.72435000166297" lon="3.036647010594606">
        <ele>-3.23</ele>
        <time>2025-05-16T07:27:47Z</time>
      </trkpt>
      <trkpt lat="42.724376991391182" lon="3.036579033359885">
        <ele>-3.23</ele>
        <time>2025-05-16T07:27:48Z</time>
      </trkpt>
      <trkpt lat="42.724387971684337" lon="3.036479037255049">
        <ele>-3.23</ele>
        <time>2025-05-16T07:27:49Z</time>
      </trkpt>
      <trkpt lat="42.724400041624904" lon="3.036369988694787">
        <ele>-3.71</ele>
        <time>2025-05-16T07:27:50Z</time>
      </trkpt>
      <trkpt lat="42.724412027746439" lon="3.036257000640035">
        <ele>-4.19</ele>
        <time>2025-05-16T07:27:51Z</time>
      </trkpt>
      <trkpt lat="42.724444968625903" lon="3.036147030070424">
        <ele>-4.19</ele>
        <time>2025-05-16T07:27:52Z</time>
      </trkpt>
      <trkpt lat="42.724476987496018" lon="3.036049967631698">
        <ele>-4.19</ele>
        <time>2025-05-16T07:27:53Z</time>
      </trkpt>
      <trkpt lat="42.72454203106463" lon="3.035965980961919">
        <ele>-4.67</ele>
        <time>2025-05-16T07:27:54Z</time>
      </trkpt>
      <trkpt lat="42.724617971107364" lon="3.035935973748565">
        <ele>-4.67</ele>
        <time>2025-05-16T07:27:55Z</time>
      </trkpt>
      <trkpt lat="42.724696006625891" lon="3.035905966535211">
        <ele>-4.67</ele>
        <time>2025-05-16T07:27:56Z</time>
      </trkpt>
      <trkpt lat="42.724778987467289" lon="3.035874031484127">
        <ele>-4.19</ele>
        <time>2025-05-16T07:27:57Z</time>
      </trkpt>
      <trkpt lat="42.724864985793829" lon="3.035874031484127">
        <ele>-4.19</ele>
        <time>2025-05-16T07:27:58Z</time>
      </trkpt>
      <trkpt lat="42.725250972434878" lon="3.036003028973937">
        <ele>-2.75</ele>
        <time>2025-05-16T07:28:02Z</time>
      </trkpt>
      <trkpt lat="42.725250972434878" lon="3.036003028973937">
        <ele>-2.75</ele>
        <time>2025-05-16T07:28:03Z</time>
      </trkpt>
      <trkpt lat="42.72525298409164" lon="3.036049967631698">
        <ele>-2.75</ele>
        <time>2025-05-16T07:28:04Z</time>
      </trkpt>
      <trkpt lat="42.725256001576781" lon="3.03613998927176">
        <ele>-2.27</ele>
        <time>2025-05-16T07:28:05Z</time>
      </trkpt>
      <trkpt lat="42.725260024890304" lon="3.036247026175261">
        <ele>-2.27</ele>
        <time>2025-05-16T07:28:06Z</time>
      </trkpt>
      <trkpt lat="42.725263964384794" lon="3.036367977038026">
        <ele>-2.27</ele>
        <time>2025-05-16T07:28:07Z</time>
      </trkpt>
      <trkpt lat="42.725321967154741" lon="3.037954000756145">
        <ele>-0.82</ele>
        <time>2025-05-16T07:28:20Z</time>
      </trkpt>
      <trkpt lat="42.725355997681618" lon="3.038851032033563">
        <ele>3.5</ele>
        <time>2025-05-16T07:28:30Z</time>
      </trkpt>
      <trkpt lat="42.725380975753069" lon="3.039042977616191">
        <ele>4.94</ele>
        <time>2025-05-16T07:28:34Z</time>
      </trkpt>
      <trkpt lat="42.725401008501649" lon="3.039050018414855">
        <ele>4.94</ele>
        <time>2025-05-16T07:28:35Z</time>
      </trkpt>
      <trkpt lat="42.725452976301312" lon="3.038982963189483">
        <ele>5.42</ele>
        <time>2025-05-16T07:28:36Z</time>
      </trkpt>
      <trkpt lat="42.725492035970092" lon="3.038980029523373">
        <ele>5.91</ele>
        <time>2025-05-16T07:28:37Z</time>
      </trkpt>
      <trkpt lat="42.725522965192795" lon="3.038977012038231">
        <ele>6.39</ele>
        <time>2025-05-16T07:28:38Z</time>
      </trkpt>
      <trkpt lat="42.725801998749375" lon="3.038924038410187">
        <ele>8.310000000000001</ele>
        <time>2025-05-16T07:28:47Z</time>
      </trkpt>
      <trkpt lat="42.725848015397787" lon="3.038908028975129">
        <ele>8.310000000000001</ele>
        <time>2025-05-16T07:28:48Z</time>
      </trkpt>
      <trkpt lat="42.726234002038836" lon="3.038715999573469">
        <ele>9.75</ele>
        <time>2025-05-16T07:28:56Z</time>
      </trkpt>
      <trkpt lat="42.726552011445165" lon="3.038435960188508">
        <ele>10.23</ele>
        <time>2025-05-16T07:29:06Z</time>
      </trkpt>
      <trkpt lat="42.726731970906258" lon="3.038298999890685">
        <ele>10.710000000000001</ele>
        <time>2025-05-16T07:29:10Z</time>
      </trkpt>
      <trkpt lat="42.726792991161346" lon="3.038303023204207">
        <ele>10.710000000000001</ele>
        <time>2025-05-16T07:29:11Z</time>
      </trkpt>
      <trkpt lat="42.726850993931293" lon="3.038306040689349">
        <ele>10.23</ele>
        <time>2025-05-16T07:29:12Z</time>
      </trkpt>
      <trkpt lat="42.726905979216099" lon="3.038308974355459">
        <ele>10.23</ele>
        <time>2025-05-16T07:29:13Z</time>
      </trkpt>
      <trkpt lat="42.726960964500904" lon="3.038312997668982">
        <ele>9.75</ele>
        <time>2025-05-16T07:29:14Z</time>
      </trkpt>
      <trkpt lat="42.72701402194798" lon="3.038316015154123">
        <ele>9.27</ele>
        <time>2025-05-16T07:29:15Z</time>
      </trkpt>
      <trkpt lat="42.727065989747643" lon="3.038319032639265">
        <ele>9.27</ele>
        <time>2025-05-16T07:29:16Z</time>
      </trkpt>
      <trkpt lat="42.727109994739294" lon="3.038305034860969">
        <ele>9.27</ele>
        <time>2025-05-16T07:29:17Z</time>
      </trkpt>
      <trkpt lat="42.727153999730945" lon="3.038254994899035">
        <ele>9.27</ele>
        <time>2025-05-16T07:29:18Z</time>
      </trkpt>
      <trkpt lat="42.727199010550976" lon="3.038204032927752">
        <ele>9.27</ele>
        <time>2025-05-16T07:29:19Z</time>
      </trkpt>
      <trkpt lat="42.727245027199388" lon="3.038151981309056">
        <ele>9.27</ele>
        <time>2025-05-16T07:29:20Z</time>
      </trkpt>
      <trkpt lat="42.727364972233772" lon="3.038016026839614">
        <ele>8.789999999999999</ele>
        <time>2025-05-16T07:29:23Z</time>
      </trkpt>
      <trkpt lat="42.727396991103888" lon="3.037980990484357">
        <ele>8.789999999999999</ele>
        <time>2025-05-16T07:29:24Z</time>
      </trkpt>
      <trkpt lat="42.727446025237441" lon="3.037994988262653">
        <ele>8.310000000000001</ele>
        <time>2025-05-16T07:29:25Z</time>
      </trkpt>
      <trkpt lat="42.727476032450795" lon="3.038037987425923">
        <ele>7.83</ele>
        <time>2025-05-16T07:29:26Z</time>
      </trkpt>
      <trkpt lat="42.727511990815401" lon="3.038089033216238">
        <ele>7.35</ele>
        <time>2025-05-16T07:29:27Z</time>
      </trkpt>
      <trkpt lat="42.727550966665149" lon="3.038145024329424">
        <ele>7.35</ele>
        <time>2025-05-16T07:29:28Z</time>
      </trkpt>
      <trkpt lat="42.727592037990689" lon="3.038204032927752">
        <ele>6.87</ele>
        <time>2025-05-16T07:29:29Z</time>
      </trkpt>
      <trkpt lat="42.727634031325579" lon="3.038263041526079">
        <ele>6.39</ele>
        <time>2025-05-16T07:29:30Z</time>
      </trkpt>
      <trkpt lat="42.727675018832088" lon="3.038321966305375">
        <ele>5.91</ele>
        <time>2025-05-16T07:29:31Z</time>
      </trkpt>
      <trkpt lat="42.727709971368313" lon="3.03837301209569">
        <ele>5.42</ele>
        <time>2025-05-16T07:29:32Z</time>
      </trkpt>
      <trkpt lat="42.727753976359963" lon="3.038375023752451">
        <ele>5.42</ele>
        <time>2025-05-16T07:29:33Z</time>
      </trkpt>
      <trkpt lat="42.727798987179995" lon="3.038362031802535">
        <ele>5.42</ele>
        <time>2025-05-16T07:29:34Z</time>
      </trkpt>
      <trkpt lat="42.727868976071477" lon="3.038341999053955">
        <ele>4.94</ele>
        <time>2025-05-16T07:29:35Z</time>
      </trkpt>
      <trkpt lat="42.727891020476818" lon="3.038315009325743">
        <ele>5.42</ele>
        <time>2025-05-16T07:29:36Z</time>
      </trkpt>
      <trkpt lat="42.727926978841424" lon="3.038271004334092">
        <ele>5.42</ele>
        <time>2025-05-16T07:29:37Z</time>
      </trkpt>
      <trkpt lat="42.728087995201349" lon="3.038070006296039">
        <ele>3.98</ele>
        <time>2025-05-16T07:29:46Z</time>
      </trkpt>
      <trkpt lat="42.728096963837743" lon="3.038059026002884">
        <ele>3.5</ele>
        <time>2025-05-16T07:29:47Z</time>
      </trkpt>
      <trkpt lat="42.728101992979646" lon="3.0380529910326">
        <ele>3.02</ele>
        <time>2025-05-16T07:29:48Z</time>
      </trkpt>
      <trkpt lat="42.728101992979646" lon="3.0380529910326">
        <ele>2.54</ele>
        <time>2025-05-16T07:30:02Z</time>
      </trkpt>
      <trkpt lat="42.728124037384987" lon="3.038131026551127">
        <ele>4.94</ele>
        <time>2025-05-16T08:06:18Z</time>
      </trkpt>
      <trkpt lat="42.728153960779309" lon="3.038142006844282">
        <ele>6.39</ele>
        <time>2025-05-16T08:07:01Z</time>
      </trkpt>
      <trkpt lat="42.728191008791327" lon="3.038163967430592">
        <ele>10.23</ele>
        <time>2025-05-16T08:07:59Z</time>
      </trkpt>
      <trkpt lat="42.728187991306186" lon="3.03815801627934">
        <ele>9.75</ele>
        <time>2025-05-16T08:08:50Z</time>
      </trkpt>
      <trkpt lat="42.728187991306186" lon="3.03815801627934">
        <ele>9.75</ele>
        <time>2025-05-16T08:09:13Z</time>
      </trkpt>
      <trkpt lat="42.728187991306186" lon="3.038147035986185">
        <ele>9.27</ele>
        <time>2025-05-16T08:09:17Z</time>
      </trkpt>
      <trkpt lat="42.728140968829393" lon="3.038004962727428">
        <ele>8.789999999999999</ele>
        <time>2025-05-16T08:09:19Z</time>
      </trkpt>
      <trkpt lat="42.728167036548257" lon="3.037973027676344">
        <ele>8.789999999999999</ele>
        <time>2025-05-16T08:09:20Z</time>
      </trkpt>
      <trkpt lat="42.72819897159934" lon="3.037932040169835">
        <ele>8.789999999999999</ele>
        <time>2025-05-16T08:09:21Z</time>
      </trkpt>
      <trkpt lat="42.728234007954597" lon="3.037889041006565">
        <ele>8.789999999999999</ele>
        <time>2025-05-16T08:09:22Z</time>
      </trkpt>
      <trkpt lat="42.728339033201337" lon="3.037759037688375">
        <ele>7.35</ele>
        <time>2025-05-16T08:09:25Z</time>
      </trkpt>
      <trkpt lat="42.72845403291285" lon="3.037616964429617">
        <ele>6.39</ele>
        <time>2025-05-16T08:09:29Z</time>
      </trkpt>
      <trkpt lat="42.728490997105837" lon="3.037570025771856">
        <ele>6.39</ele>
        <time>2025-05-16T08:09:30Z</time>
      </trkpt>
      <trkpt lat="42.728466019034386" lon="3.037530966103077">
        <ele>6.39</ele>
        <time>2025-05-16T08:09:31Z</time>
      </trkpt>
      <trkpt lat="42.728429976850748" lon="3.037477992475033">
        <ele>5.91</ele>
        <time>2025-05-16T08:09:32Z</time>
      </trkpt>
      <trkpt lat="42.728391001001" lon="3.037419989705086">
        <ele>5.91</ele>
        <time>2025-05-16T08:09:33Z</time>
      </trkpt>
      <trkpt lat="42.728350013494492" lon="3.037357963621616">
        <ele>5.42</ele>
        <time>2025-05-16T08:09:34Z</time>
      </trkpt>
      <trkpt lat="42.72789697162807" lon="3.036672994494438">
        <ele>3.02</ele>
        <time>2025-05-16T08:09:45Z</time>
      </trkpt>
      <trkpt lat="42.72785497829318" lon="3.03661298006773">
        <ele>3.02</ele>
        <time>2025-05-16T08:09:46Z</time>
      </trkpt>
      <trkpt lat="42.727651968598366" lon="3.036304023116827">
        <ele>2.06</ele>
        <time>2025-05-16T08:09:51Z</time>
      </trkpt>
      <trkpt lat="42.727592960000038" lon="3.036304023116827">
        <ele>2.06</ele>
        <time>2025-05-16T08:09:52Z</time>
      </trkpt>
      <trkpt lat="42.727518025785685" lon="3.036304023116827">
        <ele>2.06</ele>
        <time>2025-05-16T08:09:53Z</time>
      </trkpt>
      <trkpt lat="42.726747980341315" lon="3.036310980096459">
        <ele>-0.34</ele>
        <time>2025-05-16T08:10:03Z</time>
      </trkpt>
      <trkpt lat="42.726094024255872" lon="3.036318020895124">
        <ele>-0.82</ele>
        <time>2025-05-16T08:10:13Z</time>
      </trkpt>
      <trkpt lat="42.725746007636189" lon="3.036261023953557">
        <ele>0.14</ele>
        <time>2025-05-16T08:10:18Z</time>
      </trkpt>
      <trkpt lat="42.725563030689955" lon="3.036169996485114">
        <ele>0.62</ele>
        <time>2025-05-16T08:10:21Z</time>
      </trkpt>
      <trkpt lat="42.725504022091627" lon="3.036140995100141">
        <ele>1.1</ele>
        <time>2025-05-16T08:10:22Z</time>
      </trkpt>
      <trkpt lat="42.725445013493299" lon="3.036110987886787">
        <ele>1.1</ele>
        <time>2025-05-16T08:10:23Z</time>
      </trkpt>
      <trkpt lat="42.725297994911671" lon="3.03603102453053">
        <ele>1.1</ele>
        <time>2025-05-16T08:10:26Z</time>
      </trkpt>
      <trkpt lat="42.725262036547065" lon="3.036009985953569">
        <ele>0.62</ele>
        <time>2025-05-16T08:10:27Z</time>
      </trkpt>
      <trkpt lat="42.725250972434878" lon="3.035966986790299">
        <ele>0.62</ele>
        <time>2025-05-16T08:10:28Z</time>
      </trkpt>
      <trkpt lat="42.725250972434878" lon="3.035913007333875">
        <ele>0.62</ele>
        <time>2025-05-16T08:10:29Z</time>
      </trkpt>
      <trkpt lat="42.725250972434878" lon="3.035874031484127">
        <ele>0.62</ele>
        <time>2025-05-16T08:10:30Z</time>
      </trkpt>
      <trkpt lat="42.725281985476613" lon="3.035793984308839">
        <ele>0.62</ele>
        <time>2025-05-16T08:10:31Z</time>
      </trkpt>
      <trkpt lat="42.725306963548064" lon="3.035728018730879">
        <ele>0.62</ele>
        <time>2025-05-16T08:10:32Z</time>
      </trkpt>
      <trkpt lat="42.725331019610167" lon="3.035668004304171">
        <ele>0.62</ele>
        <time>2025-05-16T08:10:33Z</time>
      </trkpt>
      <trkpt lat="42.725363960489631" lon="3.035591980442405">
        <ele>0.62</ele>
        <time>2025-05-16T08:10:34Z</time>
      </trkpt>
      <trkpt lat="42.725529000163078" lon="3.035406991839409">
        <ele>0.14</ele>
        <time>2025-05-16T08:10:37Z</time>
      </trkpt>
      <trkpt lat="42.725603012368083" lon="3.03538603708148">
        <ele>0.14</ele>
        <time>2025-05-16T08:10:38Z</time>
      </trkpt>
      <trkpt lat="42.725681969895959" lon="3.03536499850452">
        <ele>0.14</ele>
        <time>2025-05-16T08:10:39Z</time>
      </trkpt>
      <trkpt lat="42.72576997987926" lon="3.035358963534236">
        <ele>0.14</ele>
        <time>2025-05-16T08:10:40Z</time>
      </trkpt>
      <trkpt lat="42.725854972377419" lon="3.035358963534236">
        <ele>0.14</ele>
        <time>2025-05-16T08:10:41Z</time>
      </trkpt>
      <trkpt lat="42.726936992257833" lon="3.035358963534236">
        <ele>2.54</ele>
        <time>2025-05-16T08:10:52Z</time>
      </trkpt>
      <trkpt lat="42.727199010550976" lon="3.035358963534236">
        <ele>3.02</ele>
        <time>2025-05-16T08:10:55Z</time>
      </trkpt>
      <trkpt lat="42.727284003049135" lon="3.035358963534236">
        <ele>3.5</ele>
        <time>2025-05-16T08:10:56Z</time>
      </trkpt>
      <trkpt lat="42.728429976850748" lon="3.035338008776307">
        <ele>3.5</ele>
        <time>2025-05-16T08:11:10Z</time>
      </trkpt>
      <trkpt lat="42.728590993210673" lon="3.035355024039745">
        <ele>2.54</ele>
        <time>2025-05-16T08:11:12Z</time>
      </trkpt>
      <trkpt lat="42.729433039203286" lon="3.03558100014925">
        <ele>0.62</ele>
        <time>2025-05-16T08:11:22Z</time>
      </trkpt>
      <trkpt lat="42.730443980544806" lon="3.035573959350586">
        <ele>0.14</ele>
        <time>2025-05-16T08:11:33Z</time>
      </trkpt>
      <trkpt lat="42.731551984325051" lon="3.035530960187316">
        <ele>0.62</ele>
        <time>2025-05-16T08:11:44Z</time>
      </trkpt>
      <trkpt lat="42.731812996789813" lon="3.0355179682374">
        <ele>1.58</ele>
        <time>2025-05-16T08:11:48Z</time>
      </trkpt>
      <trkpt lat="42.731874017044902" lon="3.035514028742909">
        <ele>1.58</ele>
        <time>2025-05-16T08:11:49Z</time>
      </trkpt>
      <trkpt lat="42.73193595930934" lon="3.035511011257768">
        <ele>2.06</ele>
        <time>2025-05-16T08:11:50Z</time>
      </trkpt>
      <trkpt lat="42.73199999704957" lon="3.035507993772626">
        <ele>2.06</ele>
        <time>2025-05-16T08:11:51Z</time>
      </trkpt>
      <trkpt lat="42.732070991769433" lon="3.035504976287484">
        <ele>2.54</ele>
        <time>2025-05-16T08:11:52Z</time>
      </trkpt>
      <trkpt lat="42.733101965859532" lon="3.035443034023047">
        <ele>5.91</ele>
        <time>2025-05-16T08:12:04Z</time>
      </trkpt>
      <trkpt lat="42.733641006052494" lon="3.035401962697506">
        <ele>5.91</ele>
        <time>2025-05-16T08:12:10Z</time>
      </trkpt>
      <trkpt lat="42.733834963291883" lon="3.035297021269798">
        <ele>5.91</ele>
        <time>2025-05-16T08:12:13Z</time>
      </trkpt>
      <trkpt lat="42.733877040445805" lon="3.035273971036077">
        <ele>5.91</ele>
        <time>2025-05-16T08:12:14Z</time>
      </trkpt>
      <trkpt lat="42.733968989923596" lon="3.03527900017798">
        <ele>5.91</ele>
        <time>2025-05-16T08:12:15Z</time>
      </trkpt>
      <trkpt lat="42.734081977978349" lon="3.035162994638085">
        <ele>5.91</ele>
        <time>2025-05-16T08:12:17Z</time>
      </trkpt>
      <trkpt lat="42.734152972698212" lon="3.035156959667802">
        <ele>5.91</ele>
        <time>2025-05-16T08:12:18Z</time>
      </trkpt>
      <trkpt lat="42.734231008216739" lon="3.03515000268817">
        <ele>6.39</ele>
        <time>2025-05-16T08:12:19Z</time>
      </trkpt>
      <trkpt lat="42.73524303920567" lon="3.035209011286497">
        <ele>5.91</ele>
        <time>2025-05-16T08:12:33Z</time>
      </trkpt>
      <trkpt lat="42.736049965023994" lon="3.035230971872807">
        <ele>4.94</ele>
        <time>2025-05-16T08:12:46Z</time>
      </trkpt>
      <trkpt lat="42.736071003600955" lon="3.035230971872807">
        <ele>4.46</ele>
        <time>2025-05-16T08:12:47Z</time>
      </trkpt>
      <trkpt lat="42.736071003600955" lon="3.035230971872807">
        <ele>4.46</ele>
        <time>2025-05-16T08:12:57Z</time>
      </trkpt>
      <trkpt lat="42.736071003600955" lon="3.035230971872807">
        <ele>3.98</ele>
        <time>2025-05-16T08:13:00Z</time>
      </trkpt>
      <trkpt lat="42.736216010525823" lon="3.035230971872807">
        <ele>3.98</ele>
        <time>2025-05-16T08:13:01Z</time>
      </trkpt>
      <trkpt lat="42.736216010525823" lon="3.035230971872807">
        <ele>3.5</ele>
        <time>2025-05-16T08:13:02Z</time>
      </trkpt>
      <trkpt lat="42.736092964187264" lon="3.035230971872807">
        <ele>3.02</ele>
        <time>2025-05-16T08:13:03Z</time>
      </trkpt>
      <trkpt lat="42.736078966408968" lon="3.035230971872807">
        <ele>2.54</ele>
        <time>2025-05-16T08:13:04Z</time>
      </trkpt>
      <trkpt lat="42.736061029136181" lon="3.035230971872807">
        <ele>1.58</ele>
        <time>2025-05-16T08:13:05Z</time>
      </trkpt>
      <trkpt lat="42.736034961417317" lon="3.035230971872807">
        <ele>1.58</ele>
        <time>2025-05-16T08:13:06Z</time>
      </trkpt>
      <trkpt lat="42.735989028587937" lon="3.035230971872807">
        <ele>0.62</ele>
        <time>2025-05-16T08:13:07Z</time>
      </trkpt>
      <trkpt lat="42.735916022211313" lon="3.035230971872807">
        <ele>0.14</ele>
        <time>2025-05-16T08:13:08Z</time>
      </trkpt>
      <trkpt lat="42.735855001956224" lon="3.035230971872807">
        <ele>0.14</ele>
        <time>2025-05-16T08:13:09Z</time>
      </trkpt>
      <trkpt lat="42.735775038599968" lon="3.035230971872807">
        <ele>0.14</ele>
        <time>2025-05-16T08:13:10Z</time>
      </trkpt>
      <trkpt lat="42.734896028414369" lon="3.035167017951608">
        <ele>1.1</ele>
        <time>2025-05-16T08:13:21Z</time>
      </trkpt>
      <trkpt lat="42.734174011275172" lon="3.035155031830072">
        <ele>1.1</ele>
        <time>2025-05-16T08:13:31Z</time>
      </trkpt>
      <trkpt lat="42.734030010178685" lon="3.035142039880157">
        <ele>1.58</ele>
        <time>2025-05-16T08:13:33Z</time>
      </trkpt>
      <trkpt lat="42.734001008793712" lon="3.035102980211377">
        <ele>1.1</ele>
        <time>2025-05-16T08:13:34Z</time>
      </trkpt>
      <trkpt lat="42.733990028500557" lon="3.034983035176992">
        <ele>1.1</ele>
        <time>2025-05-16T08:13:35Z</time>
      </trkpt>
      <trkpt lat="42.733993967995048" lon="3.034910028800368">
        <ele>1.58</ele>
        <time>2025-05-16T08:13:36Z</time>
      </trkpt>
      <trkpt lat="42.73399899713695" lon="3.034825958311558">
        <ele>1.58</ele>
        <time>2025-05-16T08:13:37Z</time>
      </trkpt>
      <trkpt lat="42.734003020450473" lon="3.034739037975669">
        <ele>1.58</ele>
        <time>2025-05-16T08:13:38Z</time>
      </trkpt>
      <trkpt lat="42.734012994915247" lon="3.034565029665828">
        <ele>1.58</ele>
        <time>2025-05-16T08:13:40Z</time>
      </trkpt>
      <trkpt lat="42.73401802405715" lon="3.034480037167668">
        <ele>1.1</ele>
        <time>2025-05-16T08:13:41Z</time>
      </trkpt>
      <trkpt lat="42.734022969380021" lon="3.034394960850477">
        <ele>1.1</ele>
        <time>2025-05-16T08:13:42Z</time>
      </trkpt>
      <trkpt lat="42.734087007120252" lon="3.03323901258409">
        <ele>0.62</ele>
        <time>2025-05-16T08:13:53Z</time>
      </trkpt>
      <trkpt lat="42.734161019325256" lon="3.03201399743557">
        <ele>1.58</ele>
        <time>2025-05-16T08:14:05Z</time>
      </trkpt>
      <trkpt lat="42.734235031530261" lon="3.030825024470687">
        <ele>1.58</ele>
        <time>2025-05-16T08:14:16Z</time>
      </trkpt>
      <trkpt lat="42.734278030693531" lon="3.03012203425169">
        <ele>0.62</ele>
        <time>2025-05-16T08:14:24Z</time>
      </trkpt>
      <trkpt lat="42.734284987673163" lon="3.03003603592515">
        <ele>0.62</ele>
        <time>2025-05-16T08:14:25Z</time>
      </trkpt>
      <trkpt lat="42.73427702486515" lon="3.029936961829662">
        <ele>0.62</ele>
        <time>2025-05-16T08:14:26Z</time>
      </trkpt>
      <trkpt lat="42.734267972409725" lon="3.029837971553206">
        <ele>1.1</ele>
        <time>2025-05-16T08:14:27Z</time>
      </trkpt>
      <trkpt lat="42.734252968803048" lon="3.029749039560556">
        <ele>1.1</ele>
        <time>2025-05-16T08:14:28Z</time>
      </trkpt>
      <trkpt lat="42.734222961589694" lon="3.029653988778591">
        <ele>1.1</ele>
        <time>2025-05-16T08:14:29Z</time>
      </trkpt>
      <trkpt lat="42.73419396020472" lon="3.029563967138529">
        <ele>1.1</ele>
        <time>2025-05-16T08:14:30Z</time>
      </trkpt>
      <trkpt lat="42.734142998233438" lon="3.029403034597635">
        <ele>0.62</ele>
        <time>2025-05-16T08:14:32Z</time>
      </trkpt>
      <trkpt lat="42.734118020161986" lon="3.029327010735869">
        <ele>0.62</ele>
        <time>2025-05-16T08:14:33Z</time>
      </trkpt>
      <trkpt lat="42.734135035425425" lon="3.029127018526197">
        <ele>0.62</ele>
        <time>2025-05-16T08:14:35Z</time>
      </trkpt>
      <trkpt lat="42.734116008505225" lon="3.02898402325809">
        <ele>0.62</ele>
        <time>2025-05-16T08:14:36Z</time>
      </trkpt>
      <trkpt lat="42.734058005735278" lon="3.028912022709847">
        <ele>0.62</ele>
        <time>2025-05-16T08:14:37Z</time>
      </trkpt>
      <trkpt lat="42.7339549921453" lon="3.028846979141235">
        <ele>0.14</ele>
        <time>2025-05-16T08:14:38Z</time>
      </trkpt>
      <trkpt lat="42.733942000195384" lon="3.028750000521541">
        <ele>0.14</ele>
        <time>2025-05-16T08:14:39Z</time>
      </trkpt>
      <trkpt lat="42.733937976881862" lon="3.028612034395337">
        <ele>-0.34</ele>
        <time>2025-05-16T08:14:40Z</time>
      </trkpt>
      <trkpt lat="42.733900006860495" lon="3.028498040512204">
        <ele>-0.34</ele>
        <time>2025-05-16T08:14:41Z</time>
      </trkpt>
      <trkpt lat="42.73384896107018" lon="3.02838203497231">
        <ele>0.14</ele>
        <time>2025-05-16T08:14:42Z</time>
      </trkpt>
      <trkpt lat="42.733787018805742" lon="3.028282960876823">
        <ele>0.14</ele>
        <time>2025-05-16T08:14:43Z</time>
      </trkpt>
      <trkpt lat="42.733728010207415" lon="3.028185982257128">
        <ele>0.14</ele>
        <time>2025-05-16T08:14:44Z</time>
      </trkpt>
      <trkpt lat="42.733098026365042" lon="3.027322981506586">
        <ele>0.14</ele>
        <time>2025-05-16T08:14:54Z</time>
      </trkpt>
      <trkpt lat="42.732646996155381" lon="3.026709007099271">
        <ele>1.1</ele>
        <time>2025-05-16T08:15:01Z</time>
      </trkpt>
      <trkpt lat="42.732543982565403" lon="3.02660096436739">
        <ele>2.06</ele>
        <time>2025-05-16T08:15:08Z</time>
      </trkpt>
      <trkpt lat="42.732537025585771" lon="3.026409018784761">
        <ele>2.06</ele>
        <time>2025-05-16T08:15:18Z</time>
      </trkpt>
      <trkpt lat="42.732568038627505" lon="3.026334000751376">
        <ele>2.06</ele>
        <time>2025-05-16T08:15:19Z</time>
      </trkpt>
      <trkpt lat="42.732589999213815" lon="3.026283038780093">
        <ele>2.06</ele>
        <time>2025-05-16T08:15:20Z</time>
      </trkpt>
      <trkpt lat="42.732683960348368" lon="3.026203997433186">
        <ele>2.06</ele>
        <time>2025-05-16T08:15:21Z</time>
      </trkpt>
      <trkpt lat="42.732761995866895" lon="3.026139037683606">
        <ele>1.58</ele>
        <time>2025-05-16T08:15:22Z</time>
      </trkpt>
      <trkpt lat="42.732853023335338" lon="3.026066031306982">
        <ele>1.1</ele>
        <time>2025-05-16T08:15:23Z</time>
      </trkpt>
      <trkpt lat="42.732961988076568" lon="3.026025965809822">
        <ele>1.1</ele>
        <time>2025-05-16T08:15:24Z</time>
      </trkpt>
      <trkpt lat="42.745391009375453" lon="3.022977970540524">
        <ele>3.98</ele>
        <time>2025-05-16T08:16:48Z</time>
      </trkpt>
      <trkpt lat="42.747798040509224" lon="3.02245301194489">
        <ele>3.02</ele>
        <time>2025-05-16T08:17:02Z</time>
      </trkpt>
      <trkpt lat="42.749346010386944" lon="3.022114969789982">
        <ele>3.5</ele>
        <time>2025-05-16T08:17:10Z</time>
      </trkpt>
      <trkpt lat="42.752103991806507" lon="3.021511975675821">
        <ele>4.94</ele>
        <time>2025-05-16T08:17:26Z</time>
      </trkpt>
      <trkpt lat="42.754286974668503" lon="3.021029010415077">
        <ele>4.94</ele>
        <time>2025-05-16T08:17:39Z</time>
      </trkpt>
      <trkpt lat="42.757135983556509" lon="3.020403971895576">
        <ele>4.94</ele>
        <time>2025-05-16T08:17:54Z</time>
      </trkpt>
      <trkpt lat="42.758820997551084" lon="3.020033994689584">
        <ele>4.46</ele>
        <time>2025-05-16T08:18:05Z</time>
      </trkpt>
      <trkpt lat="42.760311970487237" lon="3.01972302608192">
        <ele>4.94</ele>
        <time>2025-05-16T08:18:15Z</time>
      </trkpt>
      <trkpt lat="42.761513013392687" lon="3.019577013328672">
        <ele>5.42</ele>
        <time>2025-05-16T08:18:26Z</time>
      </trkpt>
      <trkpt lat="42.761709988117218" lon="3.019584976136684">
        <ele>5.42</ele>
        <time>2025-05-16T08:18:29Z</time>
      </trkpt>
      <trkpt lat="42.761773020029068" lon="3.01959402859211">
        <ele>5.42</ele>
        <time>2025-05-16T08:18:30Z</time>
      </trkpt>
      <trkpt lat="42.761878967285156" lon="3.019609032198787">
        <ele>4.94</ele>
        <time>2025-05-16T08:18:31Z</time>
      </trkpt>
      <trkpt lat="42.761987010017037" lon="3.019738029688597">
        <ele>4.94</ele>
        <time>2025-05-16T08:18:33Z</time>
      </trkpt>
      <trkpt lat="42.762069990858436" lon="3.019758984446526">
        <ele>4.94</ele>
        <time>2025-05-16T08:18:34Z</time>
      </trkpt>
      <trkpt lat="42.762160012498498" lon="3.019780023023486">
        <ele>4.94</ele>
        <time>2025-05-16T08:18:35Z</time>
      </trkpt>
      <trkpt lat="42.762232013046741" lon="3.0197240319103">
        <ele>4.94</ele>
        <time>2025-05-16T08:18:36Z</time>
      </trkpt>
      <trkpt lat="42.76231499388814" lon="3.01965999417007">
        <ele>4.46</ele>
        <time>2025-05-16T08:18:37Z</time>
      </trkpt>
      <trkpt lat="42.762394035235047" lon="3.019501995295286">
        <ele>4.46</ele>
        <time>2025-05-16T08:18:38Z</time>
      </trkpt>
      <trkpt lat="42.762452038004994" lon="3.019455978646874">
        <ele>3.98</ele>
        <time>2025-05-16T08:18:39Z</time>
      </trkpt>
      <trkpt lat="42.762536024674773" lon="3.019389007240534">
        <ele>3.98</ele>
        <time>2025-05-16T08:18:40Z</time>
      </trkpt>
      <trkpt lat="42.762624034658074" lon="3.019326981157064">
        <ele>3.5</ele>
        <time>2025-05-16T08:18:41Z</time>
      </trkpt>
      <trkpt lat="42.762725036591291" lon="3.019302003085613">
        <ele>3.5</ele>
        <time>2025-05-16T08:18:42Z</time>
      </trkpt>
      <trkpt lat="42.762829978018999" lon="3.019275013357401">
        <ele>3.5</ele>
        <time>2025-05-16T08:18:43Z</time>
      </trkpt>
      <trkpt lat="42.762939026579261" lon="3.019248023629189">
        <ele>3.98</ele>
        <time>2025-05-16T08:18:44Z</time>
      </trkpt>
      <trkpt lat="42.764052981510758" lon="3.018905036151409">
        <ele>3.98</ele>
        <time>2025-05-16T08:18:52Z</time>
      </trkpt>
      <trkpt lat="42.765980986878276" lon="3.018458029255271">
        <ele>4.94</ele>
        <time>2025-05-16T08:19:04Z</time>
      </trkpt>
      <trkpt lat="42.767892982810736" lon="3.01802895963192">
        <ele>6.39</ele>
        <time>2025-05-16T08:19:16Z</time>
      </trkpt>
      <trkpt lat="42.769439024850726" lon="3.01768203265965">
        <ele>8.789999999999999</ele>
        <time>2025-05-16T08:19:27Z</time>
      </trkpt>
      <trkpt lat="42.771081039682031" lon="3.017338961362839">
        <ele>9.75</ele>
        <time>2025-05-16T08:19:39Z</time>
      </trkpt>
      <trkpt lat="42.772840987890959" lon="3.016943000257015">
        <ele>8.789999999999999</ele>
        <time>2025-05-16T08:19:52Z</time>
      </trkpt>
      <trkpt lat="42.774299019947648" lon="3.016620967537165">
        <ele>7.35</ele>
        <time>2025-05-16T08:20:01Z</time>
      </trkpt>
      <trkpt lat="42.77656096033752" lon="3.016113024204969">
        <ele>4.46</ele>
        <time>2025-05-16T08:20:14Z</time>
      </trkpt>
      <trkpt lat="42.778555015102029" lon="3.015682026743889">
        <ele>3.5</ele>
        <time>2025-05-16T08:20:26Z</time>
      </trkpt>
      <trkpt lat="42.780288979411125" lon="3.015302997082472">
        <ele>3.5</ele>
        <time>2025-05-16T08:20:38Z</time>
      </trkpt>
      <trkpt lat="42.781293969601393" lon="3.015082972124219">
        <ele>3.5</ele>
        <time>2025-05-16T08:20:46Z</time>
      </trkpt>
      <trkpt lat="42.782484032213688" lon="3.014809973537922">
        <ele>3.02</ele>
        <time>2025-05-16T08:20:54Z</time>
      </trkpt>
      <trkpt lat="42.784147001802921" lon="3.014736967161298">
        <ele>3.5</ele>
        <time>2025-05-16T08:21:04Z</time>
      </trkpt>
      <trkpt lat="42.784323021769524" lon="3.014794969931245">
        <ele>3.5</ele>
        <time>2025-05-16T08:21:05Z</time>
      </trkpt>
      <trkpt lat="42.784495018422604" lon="3.014859007671475">
        <ele>3.5</ele>
        <time>2025-05-16T08:21:06Z</time>
      </trkpt>
      <trkpt lat="42.785850036889315" lon="3.015877995640039">
        <ele>3.5</ele>
        <time>2025-05-16T08:21:14Z</time>
      </trkpt>
      <trkpt lat="42.786595020443201" lon="3.01721197552979">
        <ele>3.02</ele>
        <time>2025-05-16T08:21:20Z</time>
      </trkpt>
      <trkpt lat="42.787274960428476" lon="3.019375009462237">
        <ele>2.54</ele>
        <time>2025-05-16T08:21:28Z</time>
      </trkpt>
      <trkpt lat="42.788261007517576" lon="3.021436035633087">
        <ele>1.58</ele>
        <time>2025-05-16T08:21:36Z</time>
      </trkpt>
      <trkpt lat="42.78964402154088" lon="3.023168994113803">
        <ele>1.58</ele>
        <time>2025-05-16T08:21:44Z</time>
      </trkpt>
      <trkpt lat="42.791087972000241" lon="3.024288984015584">
        <ele>1.58</ele>
        <time>2025-05-16T08:21:51Z</time>
      </trkpt>
      <trkpt lat="42.792831994593143" lon="3.025150978937745">
        <ele>3.02</ele>
        <time>2025-05-16T08:21:59Z</time>
      </trkpt>
      <trkpt lat="42.793058976531029" lon="3.02524602971971">
        <ele>3.98</ele>
        <time>2025-05-16T08:22:00Z</time>
      </trkpt>
      <trkpt lat="42.795031992718577" lon="3.026184970512986">
        <ele>4.94</ele>
        <time>2025-05-16T08:22:09Z</time>
      </trkpt>
      <trkpt lat="42.796663027256727" lon="3.027256010100246">
        <ele>4.94</ele>
        <time>2025-05-16T08:22:18Z</time>
      </trkpt>
      <trkpt lat="42.799041979014874" lon="3.028788976371288">
        <ele>4.94</ele>
        <time>2025-05-16T08:22:31Z</time>
      </trkpt>
      <trkpt lat="42.801080038771033" lon="3.029845012351871">
        <ele>5.42</ele>
        <time>2025-05-16T08:22:41Z</time>
      </trkpt>
      <trkpt lat="42.804143037647009" lon="3.030855031684041">
        <ele>6.87</ele>
        <time>2025-05-16T08:22:55Z</time>
      </trkpt>
      <trkpt lat="42.806645035743713" lon="3.031192990019918">
        <ele>8.789999999999999</ele>
        <time>2025-05-16T08:23:07Z</time>
      </trkpt>
      <trkpt lat="42.809223979711533" lon="3.031172035261989">
        <ele>1.58</ele>
        <time>2025-05-16T08:23:19Z</time>
      </trkpt>
      <trkpt lat="42.812429973855615" lon="3.030948992818594">
        <ele>2.06</ele>
        <time>2025-05-16T08:23:34Z</time>
      </trkpt>
      <trkpt lat="42.81531997025013" lon="3.030753023922443">
        <ele>3.98</ele>
        <time>2025-05-16T08:23:47Z</time>
      </trkpt>
      <trkpt lat="42.818285990506411" lon="3.030582033097744">
        <ele>3.02</ele>
        <time>2025-05-16T08:24:00Z</time>
      </trkpt>
      <trkpt lat="42.820774996653199" lon="3.031031973659992">
        <ele>3.98</ele>
        <time>2025-05-16T08:24:11Z</time>
      </trkpt>
      <trkpt lat="42.822052985429764" lon="3.031575959175825">
        <ele>5.91</ele>
        <time>2025-05-16T08:24:18Z</time>
      </trkpt>
      <trkpt lat="42.823104998096824" lon="3.0322490260005">
        <ele>6.87</ele>
        <time>2025-05-16T08:24:25Z</time>
      </trkpt>
      <trkpt lat="42.823635991662741" lon="3.032869035378099">
        <ele>4.46</ele>
        <time>2025-05-16T08:24:30Z</time>
      </trkpt>
      <trkpt lat="42.823692988604307" lon="3.03300297819078">
        <ele>3.5</ele>
        <time>2025-05-16T08:24:31Z</time>
      </trkpt>
      <trkpt lat="42.82371997833252" lon="3.033128036186099">
        <ele>3.02</ele>
        <time>2025-05-16T08:24:32Z</time>
      </trkpt>
      <trkpt lat="42.823700029402971" lon="3.033266002312303">
        <ele>2.54</ele>
        <time>2025-05-16T08:24:33Z</time>
      </trkpt>
      <trkpt lat="42.823679996654391" lon="3.033400028944016">
        <ele>2.06</ele>
        <time>2025-05-16T08:24:34Z</time>
      </trkpt>
      <trkpt lat="42.823659963905811" lon="3.033536989241839">
        <ele>1.1</ele>
        <time>2025-05-16T08:24:35Z</time>
      </trkpt>
      <trkpt lat="42.823472041636705" lon="3.034322038292885">
        <ele>-0.34</ele>
        <time>2025-05-16T08:24:41Z</time>
      </trkpt>
      <trkpt lat="42.823413033038378" lon="3.034425973892212">
        <ele>-0.82</ele>
        <time>2025-05-16T08:24:42Z</time>
      </trkpt>
      <trkpt lat="42.82335402444005" lon="3.034514989703894">
        <ele>-1.3</ele>
        <time>2025-05-16T08:24:43Z</time>
      </trkpt>
      <trkpt lat="42.823312031105161" lon="3.034606017172337">
        <ele>-1.79</ele>
        <time>2025-05-16T08:24:44Z</time>
      </trkpt>
      <trkpt lat="42.823280012235045" lon="3.034692015498877">
        <ele>-2.27</ele>
        <time>2025-05-16T08:24:45Z</time>
      </trkpt>
      <trkpt lat="42.823278000578284" lon="3.034827969968319">
        <ele>-2.27</ele>
        <time>2025-05-16T08:24:46Z</time>
      </trkpt>
      <trkpt lat="42.823322005569935" lon="3.034897958859801">
        <ele>-2.27</ele>
        <time>2025-05-16T08:24:47Z</time>
      </trkpt>
      <trkpt lat="42.823411021381617" lon="3.034943975508213">
        <ele>-2.75</ele>
        <time>2025-05-16T08:24:48Z</time>
      </trkpt>
      <trkpt lat="42.823481010273099" lon="3.034934001043439">
        <ele>-2.75</ele>
        <time>2025-05-16T08:24:49Z</time>
      </trkpt>
      <trkpt lat="42.82350598834455" lon="3.034929977729917">
        <ele>-2.75</ele>
        <time>2025-05-16T08:24:50Z</time>
      </trkpt>
      <trkpt lat="42.823646971955895" lon="3.034810032695532">
        <ele>-2.75</ele>
        <time>2025-05-16T08:24:51Z</time>
      </trkpt>
      <trkpt lat="42.823727019131184" lon="3.03482998162508">
        <ele>-2.75</ele>
        <time>2025-05-16T08:24:52Z</time>
      </trkpt>
      <trkpt lat="42.823814023286104" lon="3.034851020202041">
        <ele>-2.75</ele>
        <time>2025-05-16T08:24:53Z</time>
      </trkpt>
      <trkpt lat="42.823907984420657" lon="3.034873986616731">
        <ele>-2.27</ele>
        <time>2025-05-16T08:24:54Z</time>
      </trkpt>
      <trkpt lat="42.824761010706425" lon="3.035072972998023">
        <ele>-1.3</ele>
        <time>2025-05-16T08:25:02Z</time>
      </trkpt>
      <trkpt lat="42.824867041781545" lon="3.035097029060125">
        <ele>-0.34</ele>
        <time>2025-05-16T08:25:03Z</time>
      </trkpt>
      <trkpt lat="42.825638009235263" lon="3.035275982692838">
        <ele>2.54</ele>
        <time>2025-05-16T08:25:11Z</time>
      </trkpt>
      <trkpt lat="42.825829032808542" lon="3.035320993512869">
        <ele>3.5</ele>
        <time>2025-05-16T08:25:13Z</time>
      </trkpt>
      <trkpt lat="42.826043022796512" lon="3.035371033474803">
        <ele>3.5</ele>
        <time>2025-05-16T08:25:15Z</time>
      </trkpt>
      <trkpt lat="42.82614997588098" lon="3.035396011546254">
        <ele>3.02</ele>
        <time>2025-05-16T08:25:16Z</time>
      </trkpt>
      <trkpt lat="42.82670795917511" lon="3.035526014864445">
        <ele>1.1</ele>
        <time>2025-05-16T08:25:21Z</time>
      </trkpt>
      <trkpt lat="42.827140968292952" lon="3.035628022626042">
        <ele>0.14</ele>
        <time>2025-05-16T08:25:25Z</time>
      </trkpt>
      <trkpt lat="42.827239036560059" lon="3.035650989040732">
        <ele>-0.34</ele>
        <time>2025-05-16T08:25:26Z</time>
      </trkpt>
      <trkpt lat="42.827340038493276" lon="3.035674039274454">
        <ele>-0.34</ele>
        <time>2025-05-16T08:25:27Z</time>
      </trkpt>
      <trkpt lat="42.827449003234506" lon="3.035700023174286">
        <ele>-0.82</ele>
        <time>2025-05-16T08:25:28Z</time>
      </trkpt>
      <trkpt lat="42.827556962147355" lon="3.035725001245737">
        <ele>-0.82</ele>
        <time>2025-05-16T08:25:29Z</time>
      </trkpt>
      <trkpt lat="42.827765000984073" lon="3.035774035379291">
        <ele>-1.3</ele>
        <time>2025-05-16T08:25:31Z</time>
      </trkpt>
      <trkpt lat="42.827862985432148" lon="3.0357959959656">
        <ele>-0.82</ele>
        <time>2025-05-16T08:25:32Z</time>
      </trkpt>
      <trkpt lat="42.827957030385733" lon="3.035818040370941">
        <ele>-0.82</ele>
        <time>2025-05-16T08:25:33Z</time>
      </trkpt>
      <trkpt lat="42.828043028712273" lon="3.035841006785631">
        <ele>-0.34</ele>
        <time>2025-05-16T08:25:34Z</time>
      </trkpt>
      <trkpt lat="42.828121986240149" lon="3.035864979028702">
        <ele>0.62</ele>
        <time>2025-05-16T08:25:35Z</time>
      </trkpt>
      <trkpt lat="42.828194992616773" lon="3.035888029262424">
        <ele>1.1</ele>
        <time>2025-05-16T08:25:36Z</time>
      </trkpt>
      <trkpt lat="42.828264981508255" lon="3.035908984020352">
        <ele>1.58</ele>
        <time>2025-05-16T08:25:37Z</time>
      </trkpt>
      <trkpt lat="42.828320972621441" lon="3.035957012325525">
        <ele>2.06</ele>
        <time>2025-05-16T08:25:38Z</time>
      </trkpt>
      <trkpt lat="42.828376041725278" lon="3.036029012873769">
        <ele>2.54</ele>
        <time>2025-05-16T08:25:39Z</time>
      </trkpt>
      <trkpt lat="42.828432032838464" lon="3.036104030907154">
        <ele>3.02</ele>
        <time>2025-05-16T08:25:40Z</time>
      </trkpt>
      <trkpt lat="42.829012982547283" lon="3.036912968382239">
        <ele>3.5</ele>
        <time>2025-05-16T08:25:50Z</time>
      </trkpt>
      <trkpt lat="42.829054975882173" lon="3.036995027214289">
        <ele>3.98</ele>
        <time>2025-05-16T08:25:51Z</time>
      </trkpt>
      <trkpt lat="42.829096969217062" lon="3.037078008055687">
        <ele>3.98</ele>
        <time>2025-05-16T08:25:52Z</time>
      </trkpt>
      <trkpt lat="42.829127982258797" lon="3.037170041352511">
        <ele>3.98</ele>
        <time>2025-05-16T08:25:53Z</time>
      </trkpt>
      <trkpt lat="42.829128988087177" lon="3.037291998043656">
        <ele>3.98</ele>
        <time>2025-05-16T08:25:54Z</time>
      </trkpt>
      <trkpt lat="42.829168969765306" lon="3.037352012470365">
        <ele>3.98</ele>
        <time>2025-05-16T08:25:55Z</time>
      </trkpt>
      <trkpt lat="42.82921900972724" lon="3.037371039390564">
        <ele>3.98</ele>
        <time>2025-05-16T08:25:56Z</time>
      </trkpt>
      <trkpt lat="42.829235019162297" lon="3.037375984713435">
        <ele>3.98</ele>
        <time>2025-05-16T08:25:57Z</time>
      </trkpt>
      <trkpt lat="42.829261003062129" lon="3.037357041612268">
        <ele>3.5</ele>
        <time>2025-05-16T08:25:59Z</time>
      </trkpt>
      <trkpt lat="42.829279024153948" lon="3.037342960014939">
        <ele>3.5</ele>
        <time>2025-05-16T08:26:00Z</time>
      </trkpt>
      <trkpt lat="42.829302996397018" lon="3.037325022742152">
        <ele>3.02</ele>
        <time>2025-05-16T08:26:01Z</time>
      </trkpt>
      <trkpt lat="42.829450014978647" lon="3.037290992215276">
        <ele>2.06</ele>
        <time>2025-05-16T08:26:05Z</time>
      </trkpt>
      <trkpt lat="42.829487985000014" lon="3.037345977500081">
        <ele>1.58</ele>
        <time>2025-05-16T08:26:06Z</time>
      </trkpt>
      <trkpt lat="42.829522015526891" lon="3.037394005805254">
        <ele>1.58</ele>
        <time>2025-05-16T08:26:07Z</time>
      </trkpt>
      <trkpt lat="42.829559985548258" lon="3.037448991090059">
        <ele>1.58</ele>
        <time>2025-05-16T08:26:08Z</time>
      </trkpt>
      <trkpt lat="42.829599967226386" lon="3.037504982203245">
        <ele>1.58</ele>
        <time>2025-05-16T08:26:09Z</time>
      </trkpt>
      <trkpt lat="42.829640032723546" lon="3.037561979144812">
        <ele>1.58</ele>
        <time>2025-05-16T08:26:10Z</time>
      </trkpt>
      <trkpt lat="42.830183012410998" lon="3.038332024589181">
        <ele>3.02</ele>
        <time>2025-05-16T08:26:20Z</time>
      </trkpt>
      <trkpt lat="42.83031796105206" lon="3.038465967401862">
        <ele>3.02</ele>
        <time>2025-05-16T08:26:22Z</time>
      </trkpt>
      <trkpt lat="42.830394990742207" lon="3.038490023463965">
        <ele>3.02</ele>
        <time>2025-05-16T08:26:23Z</time>
      </trkpt>
      <trkpt lat="42.830473026260734" lon="3.038513995707035">
        <ele>2.54</ele>
        <time>2025-05-16T08:26:24Z</time>
      </trkpt>
      <trkpt lat="42.831110972911119" lon="3.038618015125394">
        <ele>4.46</ele>
        <time>2025-05-16T08:26:32Z</time>
      </trkpt>
      <trkpt lat="42.831266960129142" lon="3.038636036217213">
        <ele>4.46</ele>
        <time>2025-05-16T08:26:34Z</time>
      </trkpt>
      <trkpt lat="42.831426970660686" lon="3.038691021502018">
        <ele>3.5</ele>
        <time>2025-05-16T08:26:36Z</time>
      </trkpt>
      <trkpt lat="42.831510035321116" lon="3.038727985695005">
        <ele>3.02</ele>
        <time>2025-05-16T08:26:37Z</time>
      </trkpt>
      <trkpt lat="42.831573989242315" lon="3.038813984021545">
        <ele>3.02</ele>
        <time>2025-05-16T08:26:38Z</time>
      </trkpt>
      <trkpt lat="42.83199199475348" lon="3.039381019771099">
        <ele>2.06</ele>
        <time>2025-05-16T08:26:45Z</time>
      </trkpt>
      <trkpt lat="42.832037005573511" lon="3.039442962035537">
        <ele>1.58</ele>
        <time>2025-05-16T08:26:46Z</time>
      </trkpt>
      <trkpt lat="42.832183018326759" lon="3.039616970345378">
        <ele>1.1</ele>
        <time>2025-05-16T08:26:49Z</time>
      </trkpt>
      <trkpt lat="42.832239009439945" lon="3.039633985608816">
        <ele>1.1</ele>
        <time>2025-05-16T08:26:50Z</time>
      </trkpt>
      <trkpt lat="42.832297012209892" lon="3.039652006700635">
        <ele>1.1</ele>
        <time>2025-05-16T08:26:51Z</time>
      </trkpt>
      <trkpt lat="42.832351997494698" lon="3.039669021964073">
        <ele>1.1</ele>
        <time>2025-05-16T08:26:52Z</time>
      </trkpt>
      <trkpt lat="42.832431960850954" lon="3.039694000035524">
        <ele>1.1</ele>
        <time>2025-05-16T08:26:53Z</time>
      </trkpt>
      <trkpt lat="42.832477977499366" lon="3.039696011692286">
        <ele>1.1</ele>
        <time>2025-05-16T08:26:54Z</time>
      </trkpt>
      <trkpt lat="42.833176022395492" lon="3.039750996977091">
        <ele>2.54</ele>
        <time>2025-05-16T08:27:05Z</time>
      </trkpt>
      <trkpt lat="42.833722019568086" lon="3.0397919844836">
        <ele>4.46</ele>
        <time>2025-05-16T08:27:13Z</time>
      </trkpt>
      <trkpt lat="42.83401396125555" lon="3.03981302306056">
        <ele>5.42</ele>
        <time>2025-05-16T08:27:18Z</time>
      </trkpt>
      <trkpt lat="42.834459962323308" lon="3.039844036102295">
        <ele>6.39</ele>
        <time>2025-05-16T08:27:25Z</time>
      </trkpt>
      <trkpt lat="42.835293039679527" lon="3.039929028600454">
        <ele>4.94</ele>
        <time>2025-05-16T08:27:34Z</time>
      </trkpt>
      <trkpt lat="42.835586993023753" lon="3.039950989186764">
        <ele>4.94</ele>
        <time>2025-05-16T08:27:37Z</time>
      </trkpt>
      <trkpt lat="42.835696963593364" lon="3.040061965584755">
        <ele>4.94</ele>
        <time>2025-05-16T08:27:38Z</time>
      </trkpt>
      <trkpt lat="42.835795031860471" lon="3.040159028023481">
        <ele>4.94</ele>
        <time>2025-05-16T08:27:39Z</time>
      </trkpt>
      <trkpt lat="42.835892010480165" lon="3.040257012471557">
        <ele>4.94</ele>
        <time>2025-05-16T08:27:40Z</time>
      </trkpt>
      <trkpt lat="42.835993012413383" lon="3.040342004969716">
        <ele>5.42</ele>
        <time>2025-05-16T08:27:41Z</time>
      </trkpt>
      <trkpt lat="42.83609502017498" lon="3.040362037718296">
        <ele>5.42</ele>
        <time>2025-05-16T08:27:42Z</time>
      </trkpt>
      <trkpt lat="42.836201973259449" lon="3.040380980819464">
        <ele>5.91</ele>
        <time>2025-05-16T08:27:43Z</time>
      </trkpt>
      <trkpt lat="42.836316972970963" lon="3.040388021618128">
        <ele>6.39</ele>
        <time>2025-05-16T08:27:44Z</time>
      </trkpt>
      <trkpt lat="42.837662016972899" lon="3.040507966652513">
        <ele>3.5</ele>
        <time>2025-05-16T08:27:56Z</time>
      </trkpt>
      <trkpt lat="42.837871983647346" lon="3.04047997109592">
        <ele>3.02</ele>
        <time>2025-05-16T08:27:58Z</time>
      </trkpt>
      <trkpt lat="42.837968040257692" lon="3.040465973317623">
        <ele>2.54</ele>
        <time>2025-05-16T08:27:59Z</time>
      </trkpt>
      <trkpt lat="42.83802998252213" lon="3.040389027446508">
        <ele>2.54</ele>
        <time>2025-05-16T08:28:00Z</time>
      </trkpt>
      <trkpt lat="42.838100977241993" lon="3.040299005806446">
        <ele>2.06</ele>
        <time>2025-05-16T08:28:01Z</time>
      </trkpt>
      <trkpt lat="42.838169960305095" lon="3.040212001651526">
        <ele>2.06</ele>
        <time>2025-05-16T08:28:02Z</time>
      </trkpt>
      <trkpt lat="42.838296024128795" lon="3.040052996948361">
        <ele>1.58</ele>
        <time>2025-05-16T08:28:04Z</time>
      </trkpt>
      <trkpt lat="42.838353021070361" lon="3.039979990571737">
        <ele>1.58</ele>
        <time>2025-05-16T08:28:05Z</time>
      </trkpt>
      <trkpt lat="42.838461985811591" lon="3.039973033592105">
        <ele>1.58</ele>
        <time>2025-05-16T08:28:06Z</time>
      </trkpt>
      <trkpt lat="42.838552007451653" lon="3.039994994178414">
        <ele>1.58</ele>
        <time>2025-05-16T08:28:07Z</time>
      </trkpt>
      <trkpt lat="42.838644040748477" lon="3.04002701304853">
        <ele>1.1</ele>
        <time>2025-05-16T08:28:08Z</time>
      </trkpt>
      <trkpt lat="42.838720986619592" lon="3.04011401720345">
        <ele>1.1</ele>
        <time>2025-05-16T08:28:09Z</time>
      </trkpt>
      <trkpt lat="42.83880396746099" lon="3.040206972509623">
        <ele>0.62</ele>
        <time>2025-05-16T08:28:10Z</time>
      </trkpt>
      <trkpt lat="42.83888996578753" lon="3.040303029119968">
        <ele>0.14</ele>
        <time>2025-05-16T08:28:11Z</time>
      </trkpt>
      <trkpt lat="42.838998008519411" lon="3.040422974154353">
        <ele>0.14</ele>
        <time>2025-05-16T08:28:12Z</time>
      </trkpt>
      <trkpt lat="42.839778028428555" lon="3.041461994871497">
        <ele>0.62</ele>
        <time>2025-05-16T08:28:23Z</time>
      </trkpt>
      <trkpt lat="42.840186981484294" lon="3.041995000094175">
        <ele>0.62</ele>
        <time>2025-05-16T08:28:29Z</time>
      </trkpt>
      <trkpt lat="42.840283960103989" lon="3.042049985378981">
        <ele>0.62</ele>
        <time>2025-05-16T08:28:30Z</time>
      </trkpt>
      <trkpt lat="42.840384962037206" lon="3.042097007855773">
        <ele>0.62</ele>
        <time>2025-05-16T08:28:31Z</time>
      </trkpt>
      <trkpt lat="42.840486969798803" lon="3.042140007019043">
        <ele>0.62</ele>
        <time>2025-05-16T08:28:32Z</time>
      </trkpt>
      <trkpt lat="42.840590989217162" lon="3.042145036160946">
        <ele>0.62</ele>
        <time>2025-05-16T08:28:33Z</time>
      </trkpt>
      <trkpt lat="42.840691991150379" lon="3.042149981483817">
        <ele>0.62</ele>
        <time>2025-05-16T08:28:34Z</time>
      </trkpt>
      <trkpt lat="42.841016035526991" lon="3.042161967605352">
        <ele>0.62</ele>
        <time>2025-05-16T08:28:38Z</time>
      </trkpt>
      <trkpt lat="42.841073032468557" lon="3.042161967605352">
        <ele>0.62</ele>
        <time>2025-05-16T08:28:39Z</time>
      </trkpt>
      <trkpt lat="42.84110002219677" lon="3.042071023955941">
        <ele>0.62</ele>
        <time>2025-05-16T08:28:40Z</time>
      </trkpt>
      <trkpt lat="42.841099016368389" lon="3.042002962902188">
        <ele>1.1</ele>
        <time>2025-05-16T08:28:41Z</time>
      </trkpt>
      <trkpt lat="42.841097004711628" lon="3.041920987889171">
        <ele>1.1</ele>
        <time>2025-05-16T08:28:42Z</time>
      </trkpt>
      <trkpt lat="42.841094993054867" lon="3.041823003441095">
        <ele>1.1</ele>
        <time>2025-05-16T08:28:43Z</time>
      </trkpt>
      <trkpt lat="42.84105802886188" lon="3.040399001911283">
        <ele>-0.34</ele>
        <time>2025-05-16T08:28:53Z</time>
      </trkpt>
      <trkpt lat="42.84107998944819" lon="3.039672039449215">
        <ele>0.14</ele>
        <time>2025-05-16T08:28:57Z</time>
      </trkpt>
      <trkpt lat="42.84107998944819" lon="3.039672039449215">
        <ele>0.62</ele>
        <time>2025-05-16T08:28:58Z</time>
      </trkpt>
      <trkpt lat="42.84110102802515" lon="3.037864984944463">
        <ele>0.14</ele>
        <time>2025-05-16T08:29:11Z</time>
      </trkpt>
      <trkpt lat="42.841135980561376" lon="3.036970971152186">
        <ele>1.58</ele>
        <time>2025-05-16T08:29:18Z</time>
      </trkpt>
      <trkpt lat="42.841169005259871" lon="3.03687097504735">
        <ele>1.58</ele>
        <time>2025-05-16T08:29:19Z</time>
      </trkpt>
      <trkpt lat="42.841219967231154" lon="3.03678497672081">
        <ele>1.58</ele>
        <time>2025-05-16T08:29:20Z</time>
      </trkpt>
      <trkpt lat="42.841376038268209" lon="3.036603005602956">
        <ele>1.58</ele>
        <time>2025-05-16T08:29:22Z</time>
      </trkpt>
      <trkpt lat="42.8414870146662" lon="3.036582972854376">
        <ele>1.58</ele>
        <time>2025-05-16T08:29:23Z</time>
      </trkpt>
      <trkpt lat="42.842242978513241" lon="3.036632006987929">
        <ele>1.58</ele>
        <time>2025-05-16T08:29:32Z</time>
      </trkpt>
      <trkpt lat="42.843086030334234" lon="3.036767961457372">
        <ele>-0.34</ele>
        <time>2025-05-16T08:29:42Z</time>
      </trkpt>
      <trkpt lat="42.843920029699802" lon="3.036887990310788">
        <ele>-2.27</ele>
        <time>2025-05-16T08:29:52Z</time>
      </trkpt>
      <trkpt lat="42.845028033480048" lon="3.037040960043669">
        <ele>-2.75</ele>
        <time>2025-05-16T08:30:05Z</time>
      </trkpt>
      <trkpt lat="42.845253003761172" lon="3.037061998620629">
        <ele>-3.23</ele>
        <time>2025-05-16T08:30:08Z</time>
      </trkpt>
      <trkpt lat="42.8453120123595" lon="3.037068033590913">
        <ele>-3.23</ele>
        <time>2025-05-16T08:30:09Z</time>
      </trkpt>
      <trkpt lat="42.845372026786208" lon="3.037073984742165">
        <ele>-3.23</ele>
        <time>2025-05-16T08:30:10Z</time>
      </trkpt>
      <trkpt lat="42.845430029556155" lon="3.037078008055687">
        <ele>-3.23</ele>
        <time>2025-05-16T08:30:11Z</time>
      </trkpt>
      <trkpt lat="42.845488032326102" lon="3.037080019712448">
        <ele>-3.23</ele>
        <time>2025-05-16T08:30:12Z</time>
      </trkpt>
      <trkpt lat="42.845551986247301" lon="3.037083959206939">
        <ele>-3.71</ele>
        <time>2025-05-16T08:30:13Z</time>
      </trkpt>
      <trkpt lat="42.846392020583153" lon="3.037102986127138">
        <ele>-3.71</ele>
        <time>2025-05-16T08:30:22Z</time>
      </trkpt>
      <trkpt lat="42.847195006906986" lon="3.037135004997253">
        <ele>-3.71</ele>
        <time>2025-05-16T08:30:30Z</time>
      </trkpt>
      <trkpt lat="42.847761958837509" lon="3.037205999717116">
        <ele>-4.67</ele>
        <time>2025-05-16T08:30:36Z</time>
      </trkpt>
      <trkpt lat="42.847852986305952" lon="3.037221003323793">
        <ele>-5.15</ele>
        <time>2025-05-16T08:30:37Z</time>
      </trkpt>
      <trkpt lat="42.847940996289253" lon="3.037233995273709">
        <ele>-5.63</ele>
        <time>2025-05-16T08:30:38Z</time>
      </trkpt>
      <trkpt lat="42.848310973495245" lon="3.037269031628966">
        <ele>-6.11</ele>
        <time>2025-05-16T08:30:42Z</time>
      </trkpt>
      <trkpt lat="42.848368976265192" lon="3.037267019972205">
        <ele>-6.11</ele>
        <time>2025-05-16T08:30:43Z</time>
      </trkpt>
      <trkpt lat="42.84847098402679" lon="3.037262996658683">
        <ele>-5.63</ele>
        <time>2025-05-16T08:30:44Z</time>
      </trkpt>
      <trkpt lat="42.848902987316251" lon="3.037203988060355">
        <ele>-5.15</ele>
        <time>2025-05-16T08:30:48Z</time>
      </trkpt>
      <trkpt lat="42.848996026441455" lon="3.037151014432311">
        <ele>-5.15</ele>
        <time>2025-05-16T08:30:49Z</time>
      </trkpt>
      <trkpt lat="42.849084958434105" lon="3.037099968641996">
        <ele>-4.67</ele>
        <time>2025-05-16T08:30:50Z</time>
      </trkpt>
      <trkpt lat="42.849172968417406" lon="3.037049006670713">
        <ele>-4.67</ele>
        <time>2025-05-16T08:30:51Z</time>
      </trkpt>
      <trkpt lat="42.849276987835765" lon="3.036989998072386">
        <ele>-4.19</ele>
        <time>2025-05-16T08:30:52Z</time>
      </trkpt>
      <trkpt lat="42.849991964176297" lon="3.036143006756902">
        <ele>-3.23</ele>
        <time>2025-05-16T08:31:02Z</time>
      </trkpt>
      <trkpt lat="42.850456992164254" lon="3.035444961860776">
        <ele>-1.79</ele>
        <time>2025-05-16T08:31:11Z</time>
      </trkpt>
      <trkpt lat="42.850516000762582" lon="3.035428030416369">
        <ele>-1.79</ele>
        <time>2025-05-16T08:31:12Z</time>
      </trkpt>
      <trkpt lat="42.850580960512161" lon="3.035410009324551">
        <ele>-1.79</ele>
        <time>2025-05-16T08:31:13Z</time>
      </trkpt>
      <trkpt lat="42.850655978545547" lon="3.035436999052763">
        <ele>-1.79</ele>
        <time>2025-05-16T08:31:14Z</time>
      </trkpt>
      <trkpt lat="42.850732002407312" lon="3.035490978509188">
        <ele>-0.82</ele>
        <time>2025-05-16T08:31:15Z</time>
      </trkpt>
      <trkpt lat="42.850775001570582" lon="3.035571025684476">
        <ele>-0.82</ele>
        <time>2025-05-16T08:31:16Z</time>
      </trkpt>
      <trkpt lat="42.850804002955556" lon="3.035672027617693">
        <ele>-0.34</ele>
        <time>2025-05-16T08:31:17Z</time>
      </trkpt>
      <trkpt lat="42.850842978805304" lon="3.035809993743897">
        <ele>0.14</ele>
        <time>2025-05-16T08:31:18Z</time>
      </trkpt>
      <trkpt lat="42.85083401016891" lon="3.035857016220689">
        <ele>0.62</ele>
        <time>2025-05-16T08:31:19Z</time>
      </trkpt>
      <trkpt lat="42.850815989077091" lon="3.03594502620399">
        <ele>0.62</ele>
        <time>2025-05-16T08:31:20Z</time>
      </trkpt>
      <trkpt lat="42.850787993520498" lon="3.036040998995304">
        <ele>1.1</ele>
        <time>2025-05-16T08:31:21Z</time>
      </trkpt>
      <trkpt lat="42.850736025720835" lon="3.036115011200309">
        <ele>1.1</ele>
        <time>2025-05-16T08:31:22Z</time>
      </trkpt>
      <trkpt lat="42.85066201351583" lon="3.036197992041707">
        <ele>1.58</ele>
        <time>2025-05-16T08:31:23Z</time>
      </trkpt>
      <trkpt lat="42.850583977997303" lon="3.036254988983274">
        <ele>1.58</ele>
        <time>2025-05-16T08:31:24Z</time>
      </trkpt>
      <trkpt lat="42.85005901940167" lon="3.036640975624323">
        <ele>-1.79</ele>
        <time>2025-05-16T08:31:37Z</time>
      </trkpt>
      <trkpt lat="42.848832998424768" lon="3.037477992475033">
        <ele>-2.27</ele>
        <time>2025-05-16T08:31:43Z</time>
      </trkpt>
      <trkpt lat="42.848780024796724" lon="3.037515040487051">
        <ele>-2.27</ele>
        <time>2025-05-16T08:31:50Z</time>
      </trkpt>
      <trkpt lat="42.848756974563003" lon="3.037530966103077">
        <ele>-1.79</ele>
        <time>2025-05-16T08:31:57Z</time>
      </trkpt>
      <trkpt lat="42.848748005926609" lon="3.037538006901741">
        <ele>-1.79</ele>
        <time>2025-05-16T08:31:58Z</time>
      </trkpt>
      <trkpt lat="42.848763009533286" lon="3.037528032436967">
        <ele>-1.79</ele>
        <time>2025-05-16T08:32:00Z</time>
      </trkpt>
      <trkpt lat="42.848796034231782" lon="3.037503976374865">
        <ele>-1.79</ele>
        <time>2025-05-16T08:32:01Z</time>
      </trkpt>
      <trkpt lat="42.848841967061162" lon="3.037472041323781">
        <ele>-1.3</ele>
        <time>2025-05-16T08:32:02Z</time>
      </trkpt>
      <trkpt lat="42.848897036164999" lon="3.037432981655002">
        <ele>-1.3</ele>
        <time>2025-05-16T08:32:03Z</time>
      </trkpt>
      <trkpt lat="42.84967496059835" lon="3.036915985867381">
        <ele>0.14</ele>
        <time>2025-05-16T08:32:13Z</time>
      </trkpt>
      <trkpt lat="42.85089997574687" lon="3.036030018702149">
        <ele>3.98</ele>
        <time>2025-05-16T08:32:26Z</time>
      </trkpt>
      <trkpt lat="42.852405030280352" lon="3.034969037398696">
        <ele>8.789999999999999</ele>
        <time>2025-05-16T08:32:37Z</time>
      </trkpt>
      <trkpt lat="42.854781970381737" lon="3.033342026174069">
        <ele>17.440000000000001</ele>
        <time>2025-05-16T08:32:52Z</time>
      </trkpt>
      <trkpt lat="42.857054974883795" lon="3.031739993020892">
        <ele>18.879999999999999</ele>
        <time>2025-05-16T08:33:07Z</time>
      </trkpt>
      <trkpt lat="42.857885034754872" lon="3.031160971149802">
        <ele>16</ele>
        <time>2025-05-16T08:33:14Z</time>
      </trkpt>
      <trkpt lat="42.858001040294766" lon="3.031080001965165">
        <ele>15.039999999999999</ele>
        <time>2025-05-16T08:33:20Z</time>
      </trkpt>
      <trkpt lat="42.858001040294766" lon="3.031080001965165">
        <ele>15.039999999999999</ele>
        <time>2025-05-16T08:33:39Z</time>
      </trkpt>
      <trkpt lat="42.858001040294766" lon="3.031080001965165">
        <ele>14.56</ele>
        <time>2025-05-16T08:34:25Z</time>
      </trkpt>
      <trkpt lat="42.858049990609288" lon="3.031045971438289">
        <ele>14.08</ele>
        <time>2025-05-16T08:34:46Z</time>
      </trkpt>
      <trkpt lat="42.858473025262356" lon="3.030751012265682">
        <ele>12.630000000000001</ele>
        <time>2025-05-16T08:34:50Z</time>
      </trkpt>
      <trkpt lat="42.859780015423894" lon="3.030008040368557">
        <ele>9.75</ele>
        <time>2025-05-16T08:34:57Z</time>
      </trkpt>
      <trkpt lat="42.861566031351686" lon="3.029521973803639">
        <ele>4.94</ele>
        <time>2025-05-16T08:35:05Z</time>
      </trkpt>
      <trkpt lat="42.863686988130212" lon="3.029644014313817">
        <ele>3.02</ele>
        <time>2025-05-16T08:35:15Z</time>
      </trkpt>
      <trkpt lat="42.86568003706634" lon="3.030336024239659">
        <ele>2.54</ele>
        <time>2025-05-16T08:35:25Z</time>
      </trkpt>
      <trkpt lat="42.867492036893964" lon="3.031560033559799">
        <ele>2.06</ele>
        <time>2025-05-16T08:35:35Z</time>
      </trkpt>
      <trkpt lat="42.869145032018423" lon="3.033031979575753">
        <ele>2.06</ele>
        <time>2025-05-16T08:35:46Z</time>
      </trkpt>
      <trkpt lat="42.871434967964888" lon="3.035070961341262">
        <ele>3.98</ele>
        <time>2025-05-16T08:36:01Z</time>
      </trkpt>
      <trkpt lat="42.873598001897335" lon="3.03699703887105">
        <ele>4.46</ele>
        <time>2025-05-16T08:36:15Z</time>
      </trkpt>
      <trkpt lat="42.876104023307562" lon="3.039228972047567">
        <ele>3.98</ele>
        <time>2025-05-16T08:36:31Z</time>
      </trkpt>
      <trkpt lat="42.878826968371868" lon="3.041654024273157">
        <ele>3.98</ele>
        <time>2025-05-16T08:36:48Z</time>
      </trkpt>
      <trkpt lat="42.880735024809837" lon="3.043356975540519">
        <ele>4.46</ele>
        <time>2025-05-16T08:37:01Z</time>
      </trkpt>
      <trkpt lat="42.88271700963378" lon="3.04512002505362">
        <ele>4.94</ele>
        <time>2025-05-16T08:37:14Z</time>
      </trkpt>
      <trkpt lat="42.885702978819609" lon="3.0474610067904">
        <ele>9.75</ele>
        <time>2025-05-16T08:37:32Z</time>
      </trkpt>
      <trkpt lat="42.887640036642551" lon="3.048316966742277">
        <ele>10.710000000000001</ele>
        <time>2025-05-16T08:37:42Z</time>
      </trkpt>
      <trkpt lat="42.889395961537957" lon="3.048490975052118">
        <ele>6.87</ele>
        <time>2025-05-16T08:37:51Z</time>
      </trkpt>
      <trkpt lat="42.8921930026263" lon="3.048223005607724">
        <ele>5.42</ele>
        <time>2025-05-16T08:38:06Z</time>
      </trkpt>
      <trkpt lat="42.89474998600781" lon="3.048157962039113">
        <ele>6.39</ele>
        <time>2025-05-16T08:38:20Z</time>
      </trkpt>
      <trkpt lat="42.897198004648089" lon="3.048512013629079">
        <ele>6.87</ele>
        <time>2025-05-16T08:38:34Z</time>
      </trkpt>
      <trkpt lat="42.899975012987852" lon="3.048937981948257">
        <ele>7.83</ele>
        <time>2025-05-16T08:38:50Z</time>
      </trkpt>
      <trkpt lat="42.901944005861878" lon="3.049075026065111">
        <ele>7.35</ele>
        <time>2025-05-16T08:39:02Z</time>
      </trkpt>
      <trkpt lat="42.902304008603096" lon="3.048962960019708">
        <ele>7.35</ele>
        <time>2025-05-16T08:39:04Z</time>
      </trkpt>
      <trkpt lat="42.90248204022646" lon="3.048867993056774">
        <ele>6.87</ele>
        <time>2025-05-16T08:39:05Z</time>
      </trkpt>
      <trkpt lat="42.902654958888888" lon="3.048759028315544">
        <ele>6.87</ele>
        <time>2025-05-16T08:39:06Z</time>
      </trkpt>
      <trkpt lat="42.902818992733955" lon="3.048615027219057">
        <ele>6.39</ele>
        <time>2025-05-16T08:39:07Z</time>
      </trkpt>
      <trkpt lat="42.902974979951978" lon="3.048459040001035">
        <ele>5.91</ele>
        <time>2025-05-16T08:39:08Z</time>
      </trkpt>
      <trkpt lat="42.90312803350389" lon="3.048286037519574">
        <ele>5.42</ele>
        <time>2025-05-16T08:39:09Z</time>
      </trkpt>
      <trkpt lat="42.903979970142245" lon="3.046754999086261">
        <ele>3.98</ele>
        <time>2025-05-16T08:39:16Z</time>
      </trkpt>
      <trkpt lat="42.904743980616331" lon="3.04452097043395">
        <ele>4.46</ele>
        <time>2025-05-16T08:39:25Z</time>
      </trkpt>
      <trkpt lat="42.905742013826966" lon="3.041369039565325">
        <ele>4.46</ele>
        <time>2025-05-16T08:39:38Z</time>
      </trkpt>
      <trkpt lat="42.905762968584895" lon="3.04112596437335">
        <ele>3.98</ele>
        <time>2025-05-16T08:39:39Z</time>
      </trkpt>
      <trkpt lat="42.905762968584895" lon="3.039637003093958">
        <ele>3.98</ele>
        <time>2025-05-16T08:39:46Z</time>
      </trkpt>
      <trkpt lat="42.905453005805612" lon="3.038213001564145">
        <ele>2.54</ele>
        <time>2025-05-16T08:39:54Z</time>
      </trkpt>
      <trkpt lat="42.905314033851027" lon="3.037805976346135">
        <ele>2.54</ele>
        <time>2025-05-16T08:39:59Z</time>
      </trkpt>
      <trkpt lat="42.905291989445686" lon="3.037744034081698">
        <ele>2.54</ele>
        <time>2025-05-16T08:40:00Z</time>
      </trkpt>
      <trkpt lat="42.905259970575571" lon="3.037655018270016">
        <ele>2.06</ele>
        <time>2025-05-16T08:40:02Z</time>
      </trkpt>
      <trkpt lat="42.90529903024435" lon="3.037550998851657">
        <ele>2.06</ele>
        <time>2025-05-16T08:40:03Z</time>
      </trkpt>
      <trkpt lat="42.905307998880744" lon="3.03742703050375">
        <ele>2.06</ele>
        <time>2025-05-16T08:40:04Z</time>
      </trkpt>
      <trkpt lat="42.905286038294435" lon="3.037325022742152">
        <ele>2.06</ele>
        <time>2025-05-16T08:40:05Z</time>
      </trkpt>
      <trkpt lat="42.905333982780576" lon="3.037242041900754">
        <ele>2.06</ele>
        <time>2025-05-16T08:40:06Z</time>
      </trkpt>
      <trkpt lat="42.905387040227652" lon="3.037153026089072">
        <ele>2.06</ele>
        <time>2025-05-16T08:40:07Z</time>
      </trkpt>
      <trkpt lat="42.90543096140027" lon="3.037075996398926">
        <ele>2.06</ele>
        <time>2025-05-16T08:40:08Z</time>
      </trkpt>
      <trkpt lat="42.905468009412289" lon="3.03695697337389">
        <ele>2.06</ele>
        <time>2025-05-16T08:40:09Z</time>
      </trkpt>
      <trkpt lat="42.90549399331212" lon="3.036871980875731">
        <ele>2.54</ele>
        <time>2025-05-16T08:40:10Z</time>
      </trkpt>
      <trkpt lat="42.905517965555191" lon="3.036795035004616">
        <ele>2.06</ele>
        <time>2025-05-16T08:40:11Z</time>
      </trkpt>
      <trkpt lat="42.90553598664701" lon="3.036713982000947">
        <ele>2.06</ele>
        <time>2025-05-16T08:40:12Z</time>
      </trkpt>
      <trkpt lat="42.905553001910448" lon="3.036634018644691">
        <ele>2.06</ele>
        <time>2025-05-16T08:40:13Z</time>
      </trkpt>
      <trkpt lat="42.905588960275054" lon="3.036584984511137">
        <ele>2.06</ele>
        <time>2025-05-16T08:40:14Z</time>
      </trkpt>
      <trkpt lat="42.905647968873382" lon="3.036545002833009">
        <ele>2.54</ele>
        <time>2025-05-16T08:40:15Z</time>
      </trkpt>
      <trkpt lat="42.905711000785232" lon="3.036518013104796">
        <ele>2.54</ele>
        <time>2025-05-16T08:40:16Z</time>
      </trkpt>
      <trkpt lat="42.905786018818617" lon="3.036518013104796">
        <ele>2.54</ele>
        <time>2025-05-16T08:40:17Z</time>
      </trkpt>
      <trkpt lat="42.905860031023622" lon="3.036518013104796">
        <ele>3.02</ele>
        <time>2025-05-16T08:40:18Z</time>
      </trkpt>
      <trkpt lat="42.905933959409595" lon="3.036528993397951">
        <ele>3.02</ele>
        <time>2025-05-16T08:40:19Z</time>
      </trkpt>
      <trkpt lat="42.905999002978206" lon="3.036537962034345">
        <ele>3.5</ele>
        <time>2025-05-16T08:40:20Z</time>
      </trkpt>
      <trkpt lat="42.906114002689719" lon="3.036733008921146">
        <ele>3.98</ele>
        <time>2025-05-16T08:40:22Z</time>
      </trkpt>
      <trkpt lat="42.906175022944808" lon="3.036733008921146">
        <ele>3.98</ele>
        <time>2025-05-16T08:40:23Z</time>
      </trkpt>
      <trkpt lat="42.906235959380865" lon="3.036639969795942">
        <ele>3.98</ele>
        <time>2025-05-16T08:40:24Z</time>
      </trkpt>
      <trkpt lat="42.90626797825098" lon="3.036582972854376">
        <ele>3.98</ele>
        <time>2025-05-16T08:40:25Z</time>
      </trkpt>
      <trkpt lat="42.906234031543136" lon="3.036492029204965">
        <ele>4.46</ele>
        <time>2025-05-16T08:40:26Z</time>
      </trkpt>
      <trkpt lat="42.906213998794556" lon="3.036352973431349">
        <ele>4.46</ele>
        <time>2025-05-16T08:40:27Z</time>
      </trkpt>
      <trkpt lat="42.906234031543136" lon="3.036248032003641">
        <ele>4.46</ele>
        <time>2025-05-16T08:40:28Z</time>
      </trkpt>
      <trkpt lat="42.906255992129445" lon="3.036129008978605">
        <ele>3.98</ele>
        <time>2025-05-16T08:40:29Z</time>
      </trkpt>
      <trkpt lat="42.906280970200896" lon="3.035995988175273">
        <ele>3.98</ele>
        <time>2025-05-16T08:40:30Z</time>
      </trkpt>
      <trkpt lat="42.906486997380853" lon="3.03472001105547">
        <ele>4.94</ele>
        <time>2025-05-16T08:40:40Z</time>
      </trkpt>
      <trkpt lat="42.90661096572876" lon="3.033960023894906">
        <ele>7.35</ele>
        <time>2025-05-16T08:40:46Z</time>
      </trkpt>
      <trkpt lat="42.906828979030252" lon="3.033612007275224">
        <ele>8.310000000000001</ele>
        <time>2025-05-16T08:40:50Z</time>
      </trkpt>
      <trkpt lat="42.906877007335424" lon="3.033537995070219">
        <ele>8.789999999999999</ele>
        <time>2025-05-16T08:40:51Z</time>
      </trkpt>
      <trkpt lat="42.907325020059943" lon="3.032709024846554">
        <ele>11.67</ele>
        <time>2025-05-16T08:40:59Z</time>
      </trkpt>
      <trkpt lat="42.907704971730709" lon="3.031999999657273">
        <ele>13.119999999999999</ele>
        <time>2025-05-16T08:41:07Z</time>
      </trkpt>
      <trkpt lat="42.908031027764082" lon="3.031407985836268">
        <ele>16.960000000000001</ele>
        <time>2025-05-16T08:41:14Z</time>
      </trkpt>
      <trkpt lat="42.908091964200139" lon="3.031346965581179">
        <ele>17.440000000000001</ele>
        <time>2025-05-16T08:41:15Z</time>
      </trkpt>
      <trkpt lat="42.908220961689949" lon="3.031174968928099">
        <ele>17.920000000000002</ele>
        <time>2025-05-16T08:41:17Z</time>
      </trkpt>
      <trkpt lat="42.908230014145374" lon="3.031159965321422">
        <ele>18.399999999999999</ele>
        <time>2025-05-16T08:41:18Z</time>
      </trkpt>
      <trkpt lat="42.90828499943018" lon="3.031072961166501">
        <ele>18.399999999999999</ele>
        <time>2025-05-16T08:41:19Z</time>
      </trkpt>
      <trkpt lat="42.90832799859345" lon="3.031003978103399">
        <ele>18.879999999999999</ele>
        <time>2025-05-16T08:41:20Z</time>
      </trkpt>
      <trkpt lat="42.90841399691999" lon="3.030960978940129">
        <ele>18.879999999999999</ele>
        <time>2025-05-16T08:41:21Z</time>
      </trkpt>
      <trkpt lat="42.908504018560052" lon="3.030936000868678">
        <ele>19.359999999999999</ele>
        <time>2025-05-16T08:41:22Z</time>
      </trkpt>
      <trkpt lat="42.90858699940145" lon="3.030914040282369">
        <ele>19.84</ele>
        <time>2025-05-16T08:41:23Z</time>
      </trkpt>
      <trkpt lat="42.908668974414468" lon="3.030891995877028">
        <ele>20.32</ele>
        <time>2025-05-16T08:41:24Z</time>
      </trkpt>
      <trkpt lat="42.908813981339335" lon="3.03085302002728">
        <ele>20.809999999999999</ele>
        <time>2025-05-16T08:41:26Z</time>
      </trkpt>
      <trkpt lat="42.908879024907947" lon="3.030834998935461">
        <ele>20.809999999999999</ele>
        <time>2025-05-16T08:41:27Z</time>
      </trkpt>
      <trkpt lat="42.908941973000765" lon="3.030818989500403">
        <ele>21.289999999999999</ele>
        <time>2025-05-16T08:41:28Z</time>
      </trkpt>
      <trkpt lat="42.909066025167704" lon="3.030744977295399">
        <ele>21.289999999999999</ele>
        <time>2025-05-16T08:41:30Z</time>
      </trkpt>
      <trkpt lat="42.909138025715947" lon="3.030696026980877">
        <ele>21.289999999999999</ele>
        <time>2025-05-16T08:41:31Z</time>
      </trkpt>
      <trkpt lat="42.90944597683847" lon="3.030396038666368">
        <ele>22.25</ele>
        <time>2025-05-16T08:41:36Z</time>
      </trkpt>
      <trkpt lat="42.909714030101895" lon="3.029925981536508">
        <ele>24.649999999999999</ele>
        <time>2025-05-16T08:41:42Z</time>
      </trkpt>
      <trkpt lat="42.909851996228099" lon="3.029544018208981">
        <ele>26.09</ele>
        <time>2025-05-16T08:41:48Z</time>
      </trkpt>
      <trkpt lat="42.90987404063344" lon="3.029447039589286">
        <ele>26.09</ele>
        <time>2025-05-16T08:41:49Z</time>
      </trkpt>
      <trkpt lat="42.910018041729927" lon="3.02892099134624">
        <ele>25.609999999999999</ele>
        <time>2025-05-16T08:41:55Z</time>
      </trkpt>
      <trkpt lat="42.910040002316236" lon="3.0288349930197">
        <ele>25.129999999999999</ele>
        <time>2025-05-16T08:41:56Z</time>
      </trkpt>
      <trkpt lat="42.910077972337604" lon="3.028680011630058">
        <ele>24.649999999999999</ele>
        <time>2025-05-16T08:41:58Z</time>
      </trkpt>
      <trkpt lat="42.910159025341272" lon="3.028458980843425">
        <ele>24.170000000000002</ele>
        <time>2025-05-16T08:42:01Z</time>
      </trkpt>
      <trkpt lat="42.910292968153954" lon="3.028224958106875">
        <ele>24.170000000000002</ele>
        <time>2025-05-16T08:42:04Z</time>
      </trkpt>
      <trkpt lat="42.910336973145604" lon="3.028146000579">
        <ele>24.170000000000002</ele>
        <time>2025-05-16T08:42:05Z</time>
      </trkpt>
      <trkpt lat="42.910450967028737" lon="3.027933016419411">
        <ele>24.649999999999999</ele>
        <time>2025-05-16T08:42:08Z</time>
      </trkpt>
      <trkpt lat="42.910631010308862" lon="3.027568990364671">
        <ele>24.649999999999999</ele>
        <time>2025-05-16T08:42:13Z</time>
      </trkpt>
      <trkpt lat="42.910665040835738" lon="3.027488021180034">
        <ele>25.129999999999999</ele>
        <time>2025-05-16T08:42:14Z</time>
      </trkpt>
      <trkpt lat="42.910736035555601" lon="3.027235977351666">
        <ele>25.609999999999999</ele>
        <time>2025-05-16T08:42:17Z</time>
      </trkpt>
      <trkpt lat="42.910872995853424" lon="3.026883015409112">
        <ele>28.02</ele>
        <time>2025-05-16T08:42:22Z</time>
      </trkpt>
      <trkpt lat="42.910893028602004" lon="3.026823000982404">
        <ele>28.02</ele>
        <time>2025-05-16T08:42:23Z</time>
      </trkpt>
      <trkpt lat="42.911058990284801" lon="3.026369959115982">
        <ele>30.899999999999999</ele>
        <time>2025-05-16T08:42:31Z</time>
      </trkpt>
      <trkpt lat="42.911389991641045" lon="3.025437975302339">
        <ele>32.340000000000003</ele>
        <time>2025-05-16T08:42:44Z</time>
      </trkpt>
      <trkpt lat="42.911432990804315" lon="3.025295985862613">
        <ele>32.82</ele>
        <time>2025-05-16T08:42:46Z</time>
      </trkpt>
      <trkpt lat="42.91157498024404" lon="3.024853002279997">
        <ele>32.82</ele>
        <time>2025-05-16T08:42:51Z</time>
      </trkpt>
      <trkpt lat="42.911652009934187" lon="3.024656027555466">
        <ele>32.340000000000003</ele>
        <time>2025-05-16T08:42:54Z</time>
      </trkpt>
      <trkpt lat="42.911674976348877" lon="3.024609005078673">
        <ele>31.859999999999999</ele>
        <time>2025-05-16T08:42:55Z</time>
      </trkpt>
      <trkpt lat="42.911817971616983" lon="3.024496017023921">
        <ele>31.379999999999999</ele>
        <time>2025-05-16T08:42:58Z</time>
      </trkpt>
      <trkpt lat="42.911846973001957" lon="3.024405995383859">
        <ele>31.379999999999999</ele>
        <time>2025-05-16T08:42:59Z</time>
      </trkpt>
      <trkpt lat="42.911846973001957" lon="3.024333994835615">
        <ele>31.379999999999999</ele>
        <time>2025-05-16T08:43:00Z</time>
      </trkpt>
      <trkpt lat="42.911846973001957" lon="3.024329971522093">
        <ele>31.379999999999999</ele>
        <time>2025-05-16T08:43:01Z</time>
      </trkpt>
      <trkpt lat="42.911824006587267" lon="3.024165015667677">
        <ele>30.899999999999999</ele>
        <time>2025-05-16T08:43:02Z</time>
      </trkpt>
      <trkpt lat="42.91185300797224" lon="3.024080023169518">
        <ele>30.899999999999999</ele>
        <time>2025-05-16T08:43:03Z</time>
      </trkpt>
      <trkpt lat="42.911887038499117" lon="3.023981032893062">
        <ele>30.899999999999999</ele>
        <time>2025-05-16T08:43:04Z</time>
      </trkpt>
      <trkpt lat="42.911924002692103" lon="3.023870978504419">
        <ele>30.899999999999999</ele>
        <time>2025-05-16T08:43:05Z</time>
      </trkpt>
      <trkpt lat="42.911963984370232" lon="3.023755978792906">
        <ele>30.899999999999999</ele>
        <time>2025-05-16T08:43:06Z</time>
      </trkpt>
      <trkpt lat="42.912156013771892" lon="3.023100011050701">
        <ele>28.98</ele>
        <time>2025-05-16T08:43:11Z</time>
      </trkpt>
      <trkpt lat="42.912341002374887" lon="3.022041963413358">
        <ele>26.09</ele>
        <time>2025-05-16T08:43:18Z</time>
      </trkpt>
      <trkpt lat="42.912500007078052" lon="3.02157199010253">
        <ele>24.649999999999999</ele>
        <time>2025-05-16T08:43:21Z</time>
      </trkpt>
      <trkpt lat="42.912579970434308" lon="3.021424971520901">
        <ele>23.690000000000001</ele>
        <time>2025-05-16T08:43:22Z</time>
      </trkpt>
      <trkpt lat="42.912675021216273" lon="3.021285999566317">
        <ele>22.73</ele>
        <time>2025-05-16T08:43:23Z</time>
      </trkpt>
      <trkpt lat="42.912773005664349" lon="3.021153984591365">
        <ele>22.25</ele>
        <time>2025-05-16T08:43:24Z</time>
      </trkpt>
      <trkpt lat="42.912865038961172" lon="3.021028004586697">
        <ele>21.77</ele>
        <time>2025-05-16T08:43:25Z</time>
      </trkpt>
      <trkpt lat="42.912968974560499" lon="3.020910993218422">
        <ele>20.809999999999999</ele>
        <time>2025-05-16T08:43:26Z</time>
      </trkpt>
      <trkpt lat="42.913069976493716" lon="3.020802028477192">
        <ele>20.809999999999999</ele>
        <time>2025-05-16T08:43:27Z</time>
      </trkpt>
      <trkpt lat="42.914250986650586" lon="3.019625041633844">
        <ele>15.039999999999999</ele>
        <time>2025-05-16T08:43:38Z</time>
      </trkpt>
      <trkpt lat="42.915070988237858" lon="3.018900007009506">
        <ele>12.15</ele>
        <time>2025-05-16T08:43:44Z</time>
      </trkpt>
      <trkpt lat="42.915210966020823" lon="3.018817026168108">
        <ele>12.15</ele>
        <time>2025-05-16T08:43:45Z</time>
      </trkpt>
      <trkpt lat="42.915359996259212" lon="3.018767992034555">
        <ele>12.630000000000001</ele>
        <time>2025-05-16T08:43:46Z</time>
      </trkpt>
      <trkpt lat="42.915512965992093" lon="3.018725998699665">
        <ele>13.119999999999999</ele>
        <time>2025-05-16T08:43:47Z</time>
      </trkpt>
      <trkpt lat="42.915670964866877" lon="3.018713006749749">
        <ele>14.08</ele>
        <time>2025-05-16T08:43:48Z</time>
      </trkpt>
      <trkpt lat="42.915827035903931" lon="3.018699008971453">
        <ele>15.039999999999999</ele>
        <time>2025-05-16T08:43:49Z</time>
      </trkpt>
      <trkpt lat="42.916365992277861" lon="3.018554002046585">
        <ele>16.48</ele>
        <time>2025-05-16T08:43:53Z</time>
      </trkpt>
      <trkpt lat="42.916492978110909" lon="3.018512008711696">
        <ele>16</ele>
        <time>2025-05-16T08:43:54Z</time>
      </trkpt>
      <trkpt lat="42.917229998856783" lon="3.018063995987177">
        <ele>12.630000000000001</ele>
        <time>2025-05-16T08:44:00Z</time>
      </trkpt>
      <trkpt lat="42.918204981833696" lon="3.017295962199569">
        <ele>11.19</ele>
        <time>2025-05-16T08:44:08Z</time>
      </trkpt>
      <trkpt lat="42.91952496394515" lon="3.016639994457364">
        <ele>12.15</ele>
        <time>2025-05-16T08:44:18Z</time>
      </trkpt>
      <trkpt lat="42.92076900601387" lon="3.016187958419323">
        <ele>13.119999999999999</ele>
        <time>2025-05-16T08:44:26Z</time>
      </trkpt>
      <trkpt lat="42.920927004888654" lon="3.016148982569575">
        <ele>13.119999999999999</ele>
        <time>2025-05-16T08:44:27Z</time>
      </trkpt>
      <trkpt lat="42.921080980449915" lon="3.016056027263403">
        <ele>12.630000000000001</ele>
        <time>2025-05-16T08:44:28Z</time>
      </trkpt>
      <trkpt lat="42.922193007543683" lon="3.015247005969286">
        <ele>11.67</ele>
        <time>2025-05-16T08:44:35Z</time>
      </trkpt>
      <trkpt lat="42.923441994935274" lon="3.014695979654789">
        <ele>9.75</ele>
        <time>2025-05-16T08:44:44Z</time>
      </trkpt>
      <trkpt lat="42.924950988963246" lon="3.014148976653814">
        <ele>7.35</ele>
        <time>2025-05-16T08:44:54Z</time>
      </trkpt>
      <trkpt lat="42.926277006044984" lon="3.013887964189053">
        <ele>5.42</ele>
        <time>2025-05-16T08:45:03Z</time>
      </trkpt>
      <trkpt lat="42.927162973210216" lon="3.013681014999747">
        <ele>3.5</ele>
        <time>2025-05-16T08:45:09Z</time>
      </trkpt>
      <trkpt lat="42.927302028983831" lon="3.01358001306653">
        <ele>3.5</ele>
        <time>2025-05-16T08:45:10Z</time>
      </trkpt>
      <trkpt lat="42.927422979846597" lon="3.013460990041494">
        <ele>3.02</ele>
        <time>2025-05-16T08:45:11Z</time>
      </trkpt>
      <trkpt lat="42.927534962072968" lon="3.013324029743671">
        <ele>3.02</ele>
        <time>2025-05-16T08:45:12Z</time>
      </trkpt>
      <trkpt lat="42.927637975662947" lon="3.013174999505281">
        <ele>3.02</ele>
        <time>2025-05-16T08:45:13Z</time>
      </trkpt>
      <trkpt lat="42.927740989252925" lon="3.01302102394402">
        <ele>2.54</ele>
        <time>2025-05-16T08:45:14Z</time>
      </trkpt>
      <trkpt lat="42.927969982847571" lon="3.012495981529355">
        <ele>2.54</ele>
        <time>2025-05-16T08:45:17Z</time>
      </trkpt>
      <trkpt lat="42.928018011152744" lon="3.012305963784456">
        <ele>3.02</ele>
        <time>2025-05-16T08:45:18Z</time>
      </trkpt>
      <trkpt lat="42.928773974999785" lon="3.009300967678428">
        <ele>8.789999999999999</ele>
        <time>2025-05-16T08:45:33Z</time>
      </trkpt>
      <trkpt lat="42.929323995485902" lon="3.007051013410091">
        <ele>3.98</ele>
        <time>2025-05-16T08:45:43Z</time>
      </trkpt>
      <trkpt lat="42.929547037929296" lon="3.004660997539759">
        <ele>3.98</ele>
        <time>2025-05-16T08:45:52Z</time>
      </trkpt>
      <trkpt lat="42.930037965998054" lon="3.002722011879087">
        <ele>4.46</ele>
        <time>2025-05-16T08:46:00Z</time>
      </trkpt>
      <trkpt lat="42.930994005873799" lon="2.999596986919642">
        <ele>6.87</ele>
        <time>2025-05-16T08:46:14Z</time>
      </trkpt>
      <trkpt lat="42.931561041623354" lon="2.997607961297035">
        <ele>10.23</ele>
        <time>2025-05-16T08:46:23Z</time>
      </trkpt>
      <trkpt lat="42.931584008038044" lon="2.997377039864659">
        <ele>10.710000000000001</ele>
        <time>2025-05-16T08:46:24Z</time>
      </trkpt>
      <trkpt lat="42.931893970817327" lon="2.995343003422022">
        <ele>12.630000000000001</ele>
        <time>2025-05-16T08:46:33Z</time>
      </trkpt>
      <trkpt lat="42.931965971365571" lon="2.994381012395024">
        <ele>14.56</ele>
        <time>2025-05-16T08:46:38Z</time>
      </trkpt>
      <trkpt lat="42.931949961930513" lon="2.994085969403386">
        <ele>15.52</ele>
        <time>2025-05-16T08:46:40Z</time>
      </trkpt>
      <trkpt lat="42.931937975808978" lon="2.993870973587036">
        <ele>16.960000000000001</ele>
        <time>2025-05-16T08:46:42Z</time>
      </trkpt>
      <trkpt lat="42.931932024657726" lon="2.993753040209413">
        <ele>17.440000000000001</ele>
        <time>2025-05-16T08:46:43Z</time>
      </trkpt>
      <trkpt lat="42.931874021887779" lon="2.993762008845806">
        <ele>17.920000000000002</ele>
        <time>2025-05-16T08:46:44Z</time>
      </trkpt>
      <trkpt lat="42.931803027167916" lon="2.993773994967341">
        <ele>18.399999999999999</ele>
        <time>2025-05-16T08:46:45Z</time>
      </trkpt>
      <trkpt lat="42.931716023012996" lon="2.993761003017426">
        <ele>18.399999999999999</ele>
        <time>2025-05-16T08:46:46Z</time>
      </trkpt>
      <trkpt lat="42.931618960574269" lon="2.993745999410749">
        <ele>18.879999999999999</ele>
        <time>2025-05-16T08:46:47Z</time>
      </trkpt>
      <trkpt lat="42.931524999439716" lon="2.993732001632452">
        <ele>18.879999999999999</ele>
        <time>2025-05-16T08:46:48Z</time>
      </trkpt>
      <trkpt lat="42.931443024426699" lon="2.993627982214093">
        <ele>18.879999999999999</ele>
        <time>2025-05-16T08:46:49Z</time>
      </trkpt>
      <trkpt lat="42.931377980858088" lon="2.993543995544314">
        <ele>18.399999999999999</ele>
        <time>2025-05-16T08:46:50Z</time>
      </trkpt>
      <trkpt lat="42.931384015828371" lon="2.993407035246491">
        <ele>17.920000000000002</ele>
        <time>2025-05-16T08:46:51Z</time>
      </trkpt>
      <trkpt lat="42.931392984464765" lon="2.99327895976603">
        <ele>17.920000000000002</ele>
        <time>2025-05-16T08:46:52Z</time>
      </trkpt>
      <trkpt lat="42.931436989456415" lon="2.993163960054517">
        <ele>17.440000000000001</ele>
        <time>2025-05-16T08:46:53Z</time>
      </trkpt>
      <trkpt lat="42.931500021368265" lon="2.993048038333654">
        <ele>16.960000000000001</ele>
        <time>2025-05-16T08:46:54Z</time>
      </trkpt>
      <trkpt lat="42.931599011644721" lon="2.992956005036831">
        <ele>16.48</ele>
        <time>2025-05-16T08:46:55Z</time>
      </trkpt>
      <trkpt lat="42.93170596472919" lon="2.992857014760375">
        <ele>16</ele>
        <time>2025-05-16T08:46:56Z</time>
      </trkpt>
      <trkpt lat="42.931821970269084" lon="2.992756012827158">
        <ele>16</ele>
        <time>2025-05-16T08:46:57Z</time>
      </trkpt>
      <trkpt lat="42.931958008557558" lon="2.992688035592437">
        <ele>16</ele>
        <time>2025-05-16T08:46:58Z</time>
      </trkpt>
      <trkpt lat="42.932096980512142" lon="2.992618968710303">
        <ele>16.48</ele>
        <time>2025-05-16T08:46:59Z</time>
      </trkpt>
      <trkpt lat="42.933629024773836" lon="2.992068026214838">
        <ele>17.920000000000002</ele>
        <time>2025-05-16T08:47:08Z</time>
      </trkpt>
      <trkpt lat="42.936321962624788" lon="2.991332011297345">
        <ele>19.359999999999999</ele>
        <time>2025-05-16T08:47:22Z</time>
      </trkpt>
      <trkpt lat="42.938777022063732" lon="2.990540005266666">
        <ele>21.289999999999999</ele>
        <time>2025-05-16T08:47:35Z</time>
      </trkpt>
      <trkpt lat="42.941816970705986" lon="2.989643979817629">
        <ele>21.289999999999999</ele>
        <time>2025-05-16T08:47:51Z</time>
      </trkpt>
      <trkpt lat="42.94479195959866" lon="2.988775027915835">
        <ele>22.73</ele>
        <time>2025-05-16T08:48:07Z</time>
      </trkpt>
      <trkpt lat="42.946747960522771" lon="2.988188965246081">
        <ele>22.25</ele>
        <time>2025-05-16T08:48:18Z</time>
      </trkpt>
      <trkpt lat="42.949173012748361" lon="2.987459991127253">
        <ele>19.84</ele>
        <time>2025-05-16T08:48:31Z</time>
      </trkpt>
      <trkpt lat="42.951136976480484" lon="2.986868983134627">
        <ele>18.879999999999999</ele>
        <time>2025-05-16T08:48:42Z</time>
      </trkpt>
      <trkpt lat="42.95319196768105" lon="2.986244028434157">
        <ele>17.440000000000001</ele>
        <time>2025-05-16T08:48:53Z</time>
      </trkpt>
      <trkpt lat="42.955719027668238" lon="2.985475994646549">
        <ele>14.08</ele>
        <time>2025-05-16T08:49:06Z</time>
      </trkpt>
      <trkpt lat="42.957208994776011" lon="2.985244989395142">
        <ele>13.119999999999999</ele>
        <time>2025-05-16T08:49:15Z</time>
      </trkpt>
      <trkpt lat="42.958270981907845" lon="2.985296035185456">
        <ele>13.6</ele>
        <time>2025-05-16T08:49:24Z</time>
      </trkpt>
      <trkpt lat="42.958449013531208" lon="2.985320007428527">
        <ele>13.6</ele>
        <time>2025-05-16T08:49:27Z</time>
      </trkpt>
      <trkpt lat="42.958520008251071" lon="2.985329981893301">
        <ele>13.6</ele>
        <time>2025-05-16T08:49:28Z</time>
      </trkpt>
      <trkpt lat="42.95860500074923" lon="2.985342973843217">
        <ele>13.6</ele>
        <time>2025-05-16T08:49:29Z</time>
      </trkpt>
      <trkpt lat="42.958679012954235" lon="2.985406005755067">
        <ele>13.6</ele>
        <time>2025-05-16T08:49:30Z</time>
      </trkpt>
      <trkpt lat="42.958761993795633" lon="2.985471971333027">
        <ele>13.6</ele>
        <time>2025-05-16T08:49:31Z</time>
      </trkpt>
      <trkpt lat="42.958858972415328" lon="2.985484963282943">
        <ele>13.6</ele>
        <time>2025-05-16T08:49:32Z</time>
      </trkpt>
      <trkpt lat="42.958971038460732" lon="2.985452022403479">
        <ele>13.119999999999999</ele>
        <time>2025-05-16T08:49:33Z</time>
      </trkpt>
      <trkpt lat="42.959056030958891" lon="2.9853490088135">
        <ele>13.119999999999999</ele>
        <time>2025-05-16T08:49:34Z</time>
      </trkpt>
      <trkpt lat="42.9590970184654" lon="2.985277008265257">
        <ele>13.119999999999999</ele>
        <time>2025-05-16T08:49:35Z</time>
      </trkpt>
      <trkpt lat="42.959139011800289" lon="2.985108029097319">
        <ele>12.630000000000001</ele>
        <time>2025-05-16T08:49:36Z</time>
      </trkpt>
      <trkpt lat="42.959246970713139" lon="2.985034016892314">
        <ele>12.630000000000001</ele>
        <time>2025-05-16T08:49:37Z</time>
      </trkpt>
      <trkpt lat="42.959343027323484" lon="2.984969979152083">
        <ele>12.630000000000001</ele>
        <time>2025-05-16T08:49:38Z</time>
      </trkpt>
      <trkpt lat="42.959445035085082" lon="2.984902001917362">
        <ele>12.630000000000001</ele>
        <time>2025-05-16T08:49:39Z</time>
      </trkpt>
      <trkpt lat="42.960411971434951" lon="2.984183002263308">
        <ele>11.67</ele>
        <time>2025-05-16T08:49:47Z</time>
      </trkpt>
      <trkpt lat="42.961833961308002" lon="2.983698025345802">
        <ele>13.119999999999999</ele>
        <time>2025-05-16T08:49:56Z</time>
      </trkpt>
      <trkpt lat="42.963988026604056" lon="2.983050020411611">
        <ele>12.630000000000001</ele>
        <time>2025-05-16T08:50:08Z</time>
      </trkpt>
      <trkpt lat="42.966757994145155" lon="2.982217026874423">
        <ele>14.56</ele>
        <time>2025-05-16T08:50:23Z</time>
      </trkpt>
      <trkpt lat="42.969502983614802" lon="2.981390990316868">
        <ele>16</ele>
        <time>2025-05-16T08:50:38Z</time>
      </trkpt>
      <trkpt lat="42.972579980269074" lon="2.980465963482857">
        <ele>19.359999999999999</ele>
        <time>2025-05-16T08:50:53Z</time>
      </trkpt>
      <trkpt lat="42.975333016365767" lon="2.979645039886236">
        <ele>24.170000000000002</ele>
        <time>2025-05-16T08:51:06Z</time>
      </trkpt>
      <trkpt lat="42.978546973317862" lon="2.97901002690196">
        <ele>28.98</ele>
        <time>2025-05-16T08:51:21Z</time>
      </trkpt>
      <trkpt lat="42.980017997324467" lon="2.979542026296258">
        <ele>38.109999999999999</ele>
        <time>2025-05-16T08:51:28Z</time>
      </trkpt>
      <trkpt lat="42.982053039595485" lon="2.980488007888198">
        <ele>53.009999999999998</ele>
        <time>2025-05-16T08:51:37Z</time>
      </trkpt>
      <trkpt lat="42.98348399810493" lon="2.98045095987618">
        <ele>62.140000000000001</ele>
        <time>2025-05-16T08:51:43Z</time>
      </trkpt>
      <trkpt lat="42.984732985496521" lon="2.97976003959775">
        <ele>69.349999999999994</ele>
        <time>2025-05-16T08:51:49Z</time>
      </trkpt>
      <trkpt lat="42.985759014263749" lon="2.978350035846233">
        <ele>76.079999999999998</ele>
        <time>2025-05-16T08:51:56Z</time>
      </trkpt>
      <trkpt lat="42.98668303526938" lon="2.976470980793238">
        <ele>79.930000000000007</ele>
        <time>2025-05-16T08:52:03Z</time>
      </trkpt>
      <trkpt lat="42.987748961895704" lon="2.974376007914543">
        <ele>86.180000000000007</ele>
        <time>2025-05-16T08:52:11Z</time>
      </trkpt>
      <trkpt lat="42.988778008148074" lon="2.973062982782722">
        <ele>89.060000000000002</ele>
        <time>2025-05-16T08:52:18Z</time>
      </trkpt>
      <trkpt lat="42.990104025229812" lon="2.972309030592442">
        <ele>90.019999999999996</ele>
        <time>2025-05-16T08:52:25Z</time>
      </trkpt>
      <trkpt lat="42.992347022518516" lon="2.97123103402555">
        <ele>85.689999999999998</ele>
        <time>2025-05-16T08:52:36Z</time>
      </trkpt>
      <trkpt lat="42.994041005149484" lon="2.970553021878004">
        <ele>74.640000000000001</ele>
        <time>2025-05-16T08:52:44Z</time>
      </trkpt>
      <trkpt lat="42.996140001341701" lon="2.970264013856649">
        <ele>59.740000000000002</ele>
        <time>2025-05-16T08:52:54Z</time>
      </trkpt>
      <trkpt lat="42.99833002500236" lon="2.969880038872361">
        <ele>50.130000000000003</ele>
        <time>2025-05-16T08:53:04Z</time>
      </trkpt>
      <trkpt lat="43.001372991129756" lon="2.96946999616921">
        <ele>40.990000000000002</ele>
        <time>2025-05-16T08:53:17Z</time>
      </trkpt>
      <trkpt lat="43.004385028034449" lon="2.969381986185908">
        <ele>43.880000000000003</ele>
        <time>2025-05-16T08:53:31Z</time>
      </trkpt>
      <trkpt lat="43.007684983313084" lon="2.969401013106108">
        <ele>59.740000000000002</ele>
        <time>2025-05-16T08:53:45Z</time>
      </trkpt>
      <trkpt lat="43.008995996788144" lon="2.96966495923698">
        <ele>66.950000000000003</ele>
        <time>2025-05-16T08:53:51Z</time>
      </trkpt>
      <trkpt lat="43.011215021833777" lon="2.970402985811234">
        <ele>71.269999999999996</ele>
        <time>2025-05-16T08:54:02Z</time>
      </trkpt>
      <trkpt lat="43.01266198977828" lon="2.971259029582143">
        <ele>63.100000000000001</ele>
        <time>2025-05-16T08:54:09Z</time>
      </trkpt>
      <trkpt lat="43.01448698155582" lon="2.97239301726222">
        <ele>50.609999999999999</ele>
        <time>2025-05-16T08:54:18Z</time>
      </trkpt>
      <trkpt lat="43.015849962830544" lon="2.97265000641346">
        <ele>41.950000000000003</ele>
        <time>2025-05-16T08:54:24Z</time>
      </trkpt>
      <trkpt lat="43.017207998782396" lon="2.972262008115649">
        <ele>36.189999999999998</ele>
        <time>2025-05-16T08:54:30Z</time>
      </trkpt>
      <trkpt lat="43.017422994598746" lon="2.972143990918994">
        <ele>35.710000000000001</ele>
        <time>2025-05-16T08:54:31Z</time>
      </trkpt>
      <trkpt lat="43.017655005678535" lon="2.972015999257565">
        <ele>34.740000000000002</ele>
        <time>2025-05-16T08:54:32Z</time>
      </trkpt>
      <trkpt lat="43.018857976421714" lon="2.970661986619234">
        <ele>31.859999999999999</ele>
        <time>2025-05-16T08:54:39Z</time>
      </trkpt>
      <trkpt lat="43.019741009920835" lon="2.968706991523504">
        <ele>31.379999999999999</ele>
        <time>2025-05-16T08:54:47Z</time>
      </trkpt>
      <trkpt lat="43.020666036754847" lon="2.966727018356323">
        <ele>28.98</ele>
        <time>2025-05-16T08:54:56Z</time>
      </trkpt>
      <trkpt lat="43.021827014163136" lon="2.965363031253219">
        <ele>28.98</ele>
        <time>2025-05-16T08:55:05Z</time>
      </trkpt>
      <trkpt lat="43.023119000717998" lon="2.964642019942403">
        <ele>29.460000000000001</ele>
        <time>2025-05-16T08:55:13Z</time>
      </trkpt>
      <trkpt lat="43.024682980030775" lon="2.964502964168787">
        <ele>29.940000000000001</ele>
        <time>2025-05-16T08:55:21Z</time>
      </trkpt>
      <trkpt lat="43.026054007932544" lon="2.965064970776439">
        <ele>30.420000000000002</ele>
        <time>2025-05-16T08:55:28Z</time>
      </trkpt>
      <trkpt lat="43.027890985831618" lon="2.966309012845159">
        <ele>28.02</ele>
        <time>2025-05-16T08:55:38Z</time>
      </trkpt>
      <trkpt lat="43.0298070050776" lon="2.967394972220063">
        <ele>25.609999999999999</ele>
        <time>2025-05-16T08:55:49Z</time>
      </trkpt>
      <trkpt lat="43.030994972214103" lon="2.967678029090166">
        <ele>22.73</ele>
        <time>2025-05-16T08:55:55Z</time>
      </trkpt>
      <trkpt lat="43.032910991460085" lon="2.968154959380627">
        <ele>19.359999999999999</ele>
        <time>2025-05-16T08:56:04Z</time>
      </trkpt>
      <trkpt lat="43.035283992066979" lon="2.968792989850044">
        <ele>17.440000000000001</ele>
        <time>2025-05-16T08:56:15Z</time>
      </trkpt>
      <trkpt lat="43.037018040195107" lon="2.969288025051355">
        <ele>18.399999999999999</ele>
        <time>2025-05-16T08:56:23Z</time>
      </trkpt>
      <trkpt lat="43.038848983123899" lon="2.969432026147842">
        <ele>20.32</ele>
        <time>2025-05-16T08:56:31Z</time>
      </trkpt>
      <trkpt lat="43.040273990482092" lon="2.968947971239686">
        <ele>20.32</ele>
        <time>2025-05-16T08:56:38Z</time>
      </trkpt>
      <trkpt lat="43.041996974498034" lon="2.967920014634728">
        <ele>13.119999999999999</ele>
        <time>2025-05-16T08:56:48Z</time>
      </trkpt>
      <trkpt lat="43.043120987713337" lon="2.967224987223744">
        <ele>11.19</ele>
        <time>2025-05-16T08:56:53Z</time>
      </trkpt>
      <trkpt lat="43.04428800009191" lon="2.96648402698338">
        <ele>10.710000000000001</ele>
        <time>2025-05-16T08:56:59Z</time>
      </trkpt>
      <trkpt lat="43.046529991552234" lon="2.965059019625187">
        <ele>9.27</ele>
        <time>2025-05-16T08:57:11Z</time>
      </trkpt>
      <trkpt lat="43.048897041007876" lon="2.963704001158476">
        <ele>10.23</ele>
        <time>2025-05-16T08:57:23Z</time>
      </trkpt>
      <trkpt lat="43.050499996170402" lon="2.963367970660329">
        <ele>10.710000000000001</ele>
        <time>2025-05-16T08:57:31Z</time>
      </trkpt>
      <trkpt lat="43.052008990198374" lon="2.962689036503434">
        <ele>12.15</ele>
        <time>2025-05-16T08:57:39Z</time>
      </trkpt>
      <trkpt lat="43.053082041442394" lon="2.961475001648068">
        <ele>15.039999999999999</ele>
        <time>2025-05-16T08:57:46Z</time>
      </trkpt>
      <trkpt lat="43.053775979205966" lon="2.959852013736963">
        <ele>18.879999999999999</ele>
        <time>2025-05-16T08:57:53Z</time>
      </trkpt>
      <trkpt lat="43.054040009155869" lon="2.95780498534441">
        <ele>22.73</ele>
        <time>2025-05-16T08:58:01Z</time>
      </trkpt>
      <trkpt lat="43.053906988352537" lon="2.955288989469409">
        <ele>28.98</ele>
        <time>2025-05-16T08:58:11Z</time>
      </trkpt>
      <trkpt lat="43.053892990574241" lon="2.952643996104598">
        <ele>32.340000000000003</ele>
        <time>2025-05-16T08:58:22Z</time>
      </trkpt>
      <trkpt lat="43.053938001394272" lon="2.949758023023605">
        <ele>29.940000000000001</ele>
        <time>2025-05-16T08:58:34Z</time>
      </trkpt>
      <trkpt lat="43.053988963365555" lon="2.947270022705197">
        <ele>31.859999999999999</ele>
        <time>2025-05-16T08:58:45Z</time>
      </trkpt>
      <trkpt lat="43.054142016917467" lon="2.946390006691217">
        <ele>32.82</ele>
        <time>2025-05-16T08:58:49Z</time>
      </trkpt>
      <trkpt lat="43.054867973551154" lon="2.944452026858926">
        <ele>32.82</ele>
        <time>2025-05-16T08:58:59Z</time>
      </trkpt>
      <trkpt lat="43.055670037865639" lon="2.943490035831928">
        <ele>31.379999999999999</ele>
        <time>2025-05-16T08:59:06Z</time>
      </trkpt>
      <trkpt lat="43.056795978918672" lon="2.942603984847665">
        <ele>28.98</ele>
        <time>2025-05-16T08:59:14Z</time>
      </trkpt>
      <trkpt lat="43.058144962415099" lon="2.941569993272424">
        <ele>20.809999999999999</ele>
        <time>2025-05-16T08:59:23Z</time>
      </trkpt>
      <trkpt lat="43.059417000040412" lon="2.940634991973639">
        <ele>10.710000000000001</ele>
        <time>2025-05-16T08:59:32Z</time>
      </trkpt>
      <trkpt lat="43.060182016342878" lon="2.940055970102549">
        <ele>7.35</ele>
        <time>2025-05-16T08:59:40Z</time>
      </trkpt>
      <trkpt lat="43.061180971562862" lon="2.939299000427127">
        <ele>3.98</ele>
        <time>2025-05-16T08:59:49Z</time>
      </trkpt>
      <trkpt lat="43.062544958665967" lon="2.938298033550382">
        <ele>3.5</ele>
        <time>2025-05-16T09:00:00Z</time>
      </trkpt>
      <trkpt lat="43.06396602652967" lon="2.937613986432552">
        <ele>4.94</ele>
        <time>2025-05-16T09:00:09Z</time>
      </trkpt>
      <trkpt lat="43.065210990607738" lon="2.937660003080964">
        <ele>6.87</ele>
        <time>2025-05-16T09:00:17Z</time>
      </trkpt>
      <trkpt lat="43.066440029069781" lon="2.938221003860235">
        <ele>10.710000000000001</ele>
        <time>2025-05-16T09:00:26Z</time>
      </trkpt>
      <trkpt lat="43.067220970988274" lon="2.938748979941011">
        <ele>12.15</ele>
        <time>2025-05-16T09:00:35Z</time>
      </trkpt>
      <trkpt lat="43.067539986222982" lon="2.939018039032817">
        <ele>13.6</ele>
        <time>2025-05-16T09:00:43Z</time>
      </trkpt>
      <trkpt lat="43.067587008699775" lon="2.939057014882565">
        <ele>13.6</ele>
        <time>2025-05-16T09:00:44Z</time>
      </trkpt>
      <trkpt lat="43.067683987319469" lon="2.939288020133972">
        <ele>13.6</ele>
        <time>2025-05-16T09:00:47Z</time>
      </trkpt>
      <trkpt lat="43.067751964554191" lon="2.939321966841817">
        <ele>14.08</ele>
        <time>2025-05-16T09:00:48Z</time>
      </trkpt>
      <trkpt lat="43.067822959274054" lon="2.939358009025455">
        <ele>14.08</ele>
        <time>2025-05-16T09:00:49Z</time>
      </trkpt>
      <trkpt lat="43.067880040034652" lon="2.939315009862185">
        <ele>14.08</ele>
        <time>2025-05-16T09:00:50Z</time>
      </trkpt>
      <trkpt lat="43.068034015595913" lon="2.93926496990025">
        <ele>14.08</ele>
        <time>2025-05-16T09:00:51Z</time>
      </trkpt>
      <trkpt lat="43.068102998659015" lon="2.93932699598372">
        <ele>14.56</ele>
        <time>2025-05-16T09:00:52Z</time>
      </trkpt>
      <trkpt lat="43.068186985328794" lon="2.939402014017105">
        <ele>14.56</ele>
        <time>2025-05-16T09:00:53Z</time>
      </trkpt>
      <trkpt lat="43.068280024453998" lon="2.939486000686884">
        <ele>15.039999999999999</ele>
        <time>2025-05-16T09:00:54Z</time>
      </trkpt>
      <trkpt lat="43.069270011037588" lon="2.940373979508877">
        <ele>16.960000000000001</ele>
        <time>2025-05-16T09:01:02Z</time>
      </trkpt>
      <trkpt lat="43.07114202529192" lon="2.942081959918141">
        <ele>17.440000000000001</ele>
        <time>2025-05-16T09:01:14Z</time>
      </trkpt>
      <trkpt lat="43.07299199514091" lon="2.943620039150119">
        <ele>23.690000000000001</ele>
        <time>2025-05-16T09:01:26Z</time>
      </trkpt>
      <trkpt lat="43.073338000103831" lon="2.943735038861632">
        <ele>25.609999999999999</ele>
        <time>2025-05-16T09:01:28Z</time>
      </trkpt>
      <trkpt lat="43.073875028640032" lon="2.943849032744765">
        <ele>28.02</ele>
        <time>2025-05-16T09:01:31Z</time>
      </trkpt>
      <trkpt lat="43.074063034728169" lon="2.943854983896017">
        <ele>28.5</ele>
        <time>2025-05-16T09:01:32Z</time>
      </trkpt>
      <trkpt lat="43.075263993814588" lon="2.943503027781844">
        <ele>31.379999999999999</ele>
        <time>2025-05-16T09:01:39Z</time>
      </trkpt>
      <trkpt lat="43.076653964817524" lon="2.942835995927453">
        <ele>31.379999999999999</ele>
        <time>2025-05-16T09:01:48Z</time>
      </trkpt>
      <trkpt lat="43.077989034354687" lon="2.942845970392227">
        <ele>30.420000000000002</ele>
        <time>2025-05-16T09:01:56Z</time>
      </trkpt>
      <trkpt lat="43.07930801063776" lon="2.943080998957157">
        <ele>30.420000000000002</ele>
        <time>2025-05-16T09:02:04Z</time>
      </trkpt>
      <trkpt lat="43.081268034875393" lon="2.943419963121414">
        <ele>30.420000000000002</ele>
        <time>2025-05-16T09:02:15Z</time>
      </trkpt>
      <trkpt lat="43.082899991422892" lon="2.943703019991517">
        <ele>27.050000000000001</ele>
        <time>2025-05-16T09:02:22Z</time>
      </trkpt>
      <trkpt lat="43.08564598672092" lon="2.944178022444248">
        <ele>25.129999999999999</ele>
        <time>2025-05-16T09:02:35Z</time>
      </trkpt>
      <trkpt lat="43.086788021028042" lon="2.944373991340399">
        <ele>26.09</ele>
        <time>2025-05-16T09:02:41Z</time>
      </trkpt>
      <trkpt lat="43.086966974660754" lon="2.944403998553753">
        <ele>26.57</ele>
        <time>2025-05-16T09:02:42Z</time>
      </trkpt>
      <trkpt lat="43.088462976738811" lon="2.944968016818166">
        <ele>27.530000000000001</ele>
        <time>2025-05-16T09:02:50Z</time>
      </trkpt>
      <trkpt lat="43.091031024232507" lon="2.946366034448147">
        <ele>25.129999999999999</ele>
        <time>2025-05-16T09:03:04Z</time>
      </trkpt>
      <trkpt lat="43.093329006806016" lon="2.947460040450096">
        <ele>24.170000000000002</ele>
        <time>2025-05-16T09:03:16Z</time>
      </trkpt>
      <trkpt lat="43.094096034765244" lon="2.947691967710853">
        <ele>23.210000000000001</ele>
        <time>2025-05-16T09:03:20Z</time>
      </trkpt>
      <trkpt lat="43.096268037334085" lon="2.947636982426047">
        <ele>21.289999999999999</ele>
        <time>2025-05-16T09:03:31Z</time>
      </trkpt>
      <trkpt lat="43.098799036815763" lon="2.947608986869454">
        <ele>20.32</ele>
        <time>2025-05-16T09:03:44Z</time>
      </trkpt>
      <trkpt lat="43.100550016388297" lon="2.947434978559613">
        <ele>19.84</ele>
        <time>2025-05-16T09:03:53Z</time>
      </trkpt>
      <trkpt lat="43.101924983784556" lon="2.946602990850806">
        <ele>21.289999999999999</ele>
        <time>2025-05-16T09:04:01Z</time>
      </trkpt>
      <trkpt lat="43.103251000866294" lon="2.945704031735659">
        <ele>26.09</ele>
        <time>2025-05-16T09:04:10Z</time>
      </trkpt>
      <trkpt lat="43.104448020458221" lon="2.945417035371065">
        <ele>28.98</ele>
        <time>2025-05-16T09:04:18Z</time>
      </trkpt>
      <trkpt lat="43.105590976774693" lon="2.945653991773725">
        <ele>30.899999999999999</ele>
        <time>2025-05-16T09:04:25Z</time>
      </trkpt>
      <trkpt lat="43.106805011630058" lon="2.946412973105907">
        <ele>30.899999999999999</ele>
        <time>2025-05-16T09:04:32Z</time>
      </trkpt>
      <trkpt lat="43.108713990077376" lon="2.947869999334216">
        <ele>31.379999999999999</ele>
        <time>2025-05-16T09:04:44Z</time>
      </trkpt>
      <trkpt lat="43.110687006264925" lon="2.949326019734144">
        <ele>36.670000000000002</ele>
        <time>2025-05-16T09:04:56Z</time>
      </trkpt>
      <trkpt lat="43.112097010016441" lon="2.950048036873341">
        <ele>42.439999999999998</ele>
        <time>2025-05-16T09:05:04Z</time>
      </trkpt>
      <trkpt lat="43.113523023203015" lon="2.950478028506041">
        <ele>47.719999999999999</ele>
        <time>2025-05-16T09:05:13Z</time>
      </trkpt>
      <trkpt lat="43.115270985290408" lon="2.951026959344745">
        <ele>49.159999999999997</ele>
        <time>2025-05-16T09:05:25Z</time>
      </trkpt>
      <trkpt lat="43.116359962150455" lon="2.951396014541388">
        <ele>52.049999999999997</ele>
        <time>2025-05-16T09:05:35Z</time>
      </trkpt>
      <trkpt lat="43.116615023463964" lon="2.951539009809494">
        <ele>52.049999999999997</ele>
        <time>2025-05-16T09:05:38Z</time>
      </trkpt>
      <trkpt lat="43.117397977039218" lon="2.952063968405128">
        <ele>51.090000000000003</ele>
        <time>2025-05-16T09:05:47Z</time>
      </trkpt>
      <trkpt lat="43.118511009961367" lon="2.952803000807762">
        <ele>50.609999999999999</ele>
        <time>2025-05-16T09:05:59Z</time>
      </trkpt>
      <trkpt lat="43.11858301050961" lon="2.952854968607426">
        <ele>50.609999999999999</ele>
        <time>2025-05-16T09:06:00Z</time>
      </trkpt>
      <trkpt lat="43.11903496272862" lon="2.953138025477529">
        <ele>49.649999999999999</ele>
        <time>2025-05-16T09:06:08Z</time>
      </trkpt>
      <trkpt lat="43.119128001853824" lon="2.953196028247476">
        <ele>46.759999999999998</ele>
        <time>2025-05-16T09:06:18Z</time>
      </trkpt>
      <trkpt lat="43.119449028745294" lon="2.953424016013742">
        <ele>44.359999999999999</ele>
        <time>2025-05-16T09:06:25Z</time>
      </trkpt>
      <trkpt lat="43.11955195851624" lon="2.953490987420082">
        <ele>43.880000000000003</ele>
        <time>2025-05-16T09:06:27Z</time>
      </trkpt>
      <trkpt lat="43.119598980993032" lon="2.953519988805056">
        <ele>43.880000000000003</ele>
        <time>2025-05-16T09:06:28Z</time>
      </trkpt>
      <trkpt lat="43.119665030390024" lon="2.953562987968326">
        <ele>43.880000000000003</ele>
        <time>2025-05-16T09:06:29Z</time>
      </trkpt>
      <trkpt lat="43.119776006788015" lon="2.953629959374666">
        <ele>43.399999999999999</ele>
        <time>2025-05-16T09:06:31Z</time>
      </trkpt>
      <trkpt lat="43.119839960709214" lon="2.953675976023078">
        <ele>43.399999999999999</ele>
        <time>2025-05-16T09:06:32Z</time>
      </trkpt>
      <trkpt lat="43.120503975078464" lon="2.954101022332907">
        <ele>41.950000000000003</ele>
        <time>2025-05-16T09:06:42Z</time>
      </trkpt>
      <trkpt lat="43.121347026899457" lon="2.954618018120527">
        <ele>40.030000000000001</ele>
        <time>2025-05-16T09:06:51Z</time>
      </trkpt>
      <trkpt lat="43.122560977935791" lon="2.955537009984255">
        <ele>39.07</ele>
        <time>2025-05-16T09:06:59Z</time>
      </trkpt>
      <trkpt lat="43.124517984688282" lon="2.957270974293351">
        <ele>38.590000000000003</ele>
        <time>2025-05-16T09:07:10Z</time>
      </trkpt>
      <trkpt lat="43.12569597736001" lon="2.958316029980779">
        <ele>38.109999999999999</ele>
        <time>2025-05-16T09:07:16Z</time>
      </trkpt>
      <trkpt lat="43.12709198333323" lon="2.959583960473537">
        <ele>40.030000000000001</ele>
        <time>2025-05-16T09:07:25Z</time>
      </trkpt>
      <trkpt lat="43.129314025864005" lon="2.961547002196312">
        <ele>40.990000000000002</ele>
        <time>2025-05-16T09:07:39Z</time>
      </trkpt>
      <trkpt lat="43.131128959357738" lon="2.963172001764178">
        <ele>39.549999999999997</ele>
        <time>2025-05-16T09:07:49Z</time>
      </trkpt>
      <trkpt lat="43.133903034031391" lon="2.965695960447192">
        <ele>38.109999999999999</ele>
        <time>2025-05-16T09:08:03Z</time>
      </trkpt>
      <trkpt lat="43.136421041563153" lon="2.968121012672782">
        <ele>36.670000000000002</ele>
        <time>2025-05-16T09:08:15Z</time>
      </trkpt>
      <trkpt lat="43.137546982616186" lon="2.969554988667369">
        <ele>37.630000000000003</ele>
        <time>2025-05-16T09:08:21Z</time>
      </trkpt>
      <trkpt lat="43.139067962765694" lon="2.971553988754749">
        <ele>36.189999999999998</ele>
        <time>2025-05-16T09:08:31Z</time>
      </trkpt>
      <trkpt lat="43.139499966055155" lon="2.972012981772423">
        <ele>36.189999999999998</ele>
        <time>2025-05-16T09:08:34Z</time>
      </trkpt>
      <trkpt lat="43.13963801600039" lon="2.972158994525671">
        <ele>36.670000000000002</ele>
        <time>2025-05-16T09:08:35Z</time>
      </trkpt>
      <trkpt lat="43.141580019146204" lon="2.973400019109249">
        <ele>35.710000000000001</ele>
        <time>2025-05-16T09:08:46Z</time>
      </trkpt>
      <trkpt lat="43.143525961786509" lon="2.974638026207686">
        <ele>32.82</ele>
        <time>2025-05-16T09:08:58Z</time>
      </trkpt>
      <trkpt lat="43.144457023590803" lon="2.975188968703151">
        <ele>31.859999999999999</ele>
        <time>2025-05-16T09:09:05Z</time>
      </trkpt>
      <trkpt lat="43.144690962508321" lon="2.975325006991625">
        <ele>31.859999999999999</ele>
        <time>2025-05-16T09:09:08Z</time>
      </trkpt>
      <trkpt lat="43.144834963604808" lon="2.975620971992612">
        <ele>31.379999999999999</ele>
        <time>2025-05-16T09:09:12Z</time>
      </trkpt>
      <trkpt lat="43.144844016060233" lon="2.975645028054714">
        <ele>31.379999999999999</ele>
        <time>2025-05-16T09:09:13Z</time>
      </trkpt>
      <trkpt lat="43.144879974424839" lon="2.975741000846028">
        <ele>30.899999999999999</ele>
        <time>2025-05-16T09:09:14Z</time>
      </trkpt>
      <trkpt lat="43.144916016608477" lon="2.975832028314471">
        <ele>30.420000000000002</ele>
        <time>2025-05-16T09:09:15Z</time>
      </trkpt>
      <trkpt lat="43.14503001049161" lon="2.975900005549192">
        <ele>29.940000000000001</ele>
        <time>2025-05-16T09:09:16Z</time>
      </trkpt>
      <trkpt lat="43.145109973847866" lon="2.975900005549192">
        <ele>29.940000000000001</ele>
        <time>2025-05-16T09:09:17Z</time>
      </trkpt>
      <trkpt lat="43.145178034901619" lon="2.975900005549192">
        <ele>29.460000000000001</ele>
        <time>2025-05-16T09:09:18Z</time>
      </trkpt>
      <trkpt lat="43.145346008241177" lon="2.975730020552874">
        <ele>29.460000000000001</ele>
        <time>2025-05-16T09:09:19Z</time>
      </trkpt>
      <trkpt lat="43.145438041538" lon="2.975782994180918">
        <ele>28.98</ele>
        <time>2025-05-16T09:09:20Z</time>
      </trkpt>
      <trkpt lat="43.145553041249514" lon="2.975844014436007">
        <ele>28.98</ele>
        <time>2025-05-16T09:09:21Z</time>
      </trkpt>
      <trkpt lat="43.145693019032478" lon="2.975921966135502">
        <ele>28.5</ele>
        <time>2025-05-16T09:09:22Z</time>
      </trkpt>
      <trkpt lat="43.145811958238482" lon="2.975993966683745">
        <ele>28.02</ele>
        <time>2025-05-16T09:09:23Z</time>
      </trkpt>
      <trkpt lat="43.147213999181986" lon="2.976815979927778">
        <ele>23.210000000000001</ele>
        <time>2025-05-16T09:09:32Z</time>
      </trkpt>
      <trkpt lat="43.148467009887099" lon="2.977546965703368">
        <ele>21.289999999999999</ele>
        <time>2025-05-16T09:09:41Z</time>
      </trkpt>
      <trkpt lat="43.150137020274997" lon="2.978507028892636">
        <ele>21.289999999999999</ele>
        <time>2025-05-16T09:09:53Z</time>
      </trkpt>
      <trkpt lat="43.151446022093296" lon="2.979215970262885">
        <ele>21.289999999999999</ele>
        <time>2025-05-16T09:10:02Z</time>
      </trkpt>
      <trkpt lat="43.151721032336354" lon="2.97935402020812">
        <ele>20.809999999999999</ele>
        <time>2025-05-16T09:10:04Z</time>
      </trkpt>
      <trkpt lat="43.153418032452464" lon="2.980079976841807">
        <ele>17.440000000000001</ele>
        <time>2025-05-16T09:10:15Z</time>
      </trkpt>
      <trkpt lat="43.155097011476755" lon="2.980754971504211">
        <ele>15.52</ele>
        <time>2025-05-16T09:10:27Z</time>
      </trkpt>
      <trkpt lat="43.156276009976864" lon="2.981283031404018">
        <ele>14.08</ele>
        <time>2025-05-16T09:10:36Z</time>
      </trkpt>
      <trkpt lat="43.15657096914947" lon="2.981410017237067">
        <ele>13.6</ele>
        <time>2025-05-16T09:10:40Z</time>
      </trkpt>
      <trkpt lat="43.15663299523294" lon="2.981434995308518">
        <ele>13.119999999999999</ele>
        <time>2025-05-16T09:10:48Z</time>
      </trkpt>
      <trkpt lat="43.156657973304391" lon="2.981537003070116">
        <ele>12.630000000000001</ele>
        <time>2025-05-16T09:10:49Z</time>
      </trkpt>
      <trkpt lat="43.156680017709732" lon="2.981639010831714">
        <ele>12.630000000000001</ele>
        <time>2025-05-16T09:10:50Z</time>
      </trkpt>
      <trkpt lat="43.156745983287692" lon="2.981771025806665">
        <ele>12.630000000000001</ele>
        <time>2025-05-16T09:10:51Z</time>
      </trkpt>
      <trkpt lat="43.1568250246346" lon="2.981830034404993">
        <ele>12.15</ele>
        <time>2025-05-16T09:10:52Z</time>
      </trkpt>
      <trkpt lat="43.156929966062307" lon="2.98184797167778">
        <ele>12.15</ele>
        <time>2025-05-16T09:10:53Z</time>
      </trkpt>
      <trkpt lat="43.15702099353075" lon="2.981820981949568">
        <ele>12.15</ele>
        <time>2025-05-16T09:10:54Z</time>
      </trkpt>
      <trkpt lat="43.15708695910871" lon="2.98180103302002">
        <ele>12.15</ele>
        <time>2025-05-16T09:10:55Z</time>
      </trkpt>
      <trkpt lat="43.157230960205197" lon="2.98165300861001">
        <ele>12.15</ele>
        <time>2025-05-16T09:10:56Z</time>
      </trkpt>
      <trkpt lat="43.157337997108698" lon="2.9816950019449">
        <ele>11.67</ele>
        <time>2025-05-16T09:10:57Z</time>
      </trkpt>
      <trkpt lat="43.157452996820211" lon="2.981740012764931">
        <ele>11.67</ele>
        <time>2025-05-16T09:10:58Z</time>
      </trkpt>
      <trkpt lat="43.157575037330389" lon="2.981786029413343">
        <ele>12.15</ele>
        <time>2025-05-16T09:10:59Z</time>
      </trkpt>
      <trkpt lat="43.157702023163438" lon="2.981836991384625">
        <ele>12.15</ele>
        <time>2025-05-16T09:11:00Z</time>
      </trkpt>
      <trkpt lat="43.159316964447498" lon="2.982476027682424">
        <ele>11.67</ele>
        <time>2025-05-16T09:11:12Z</time>
      </trkpt>
      <trkpt lat="43.160934001207352" lon="2.983146999031305">
        <ele>12.15</ele>
        <time>2025-05-16T09:11:24Z</time>
      </trkpt>
      <trkpt lat="43.16249999217689" lon="2.984160035848618">
        <ele>13.6</ele>
        <time>2025-05-16T09:11:35Z</time>
      </trkpt>
      <trkpt lat="43.164383992552757" lon="2.985527962446213">
        <ele>16</ele>
        <time>2025-05-16T09:11:49Z</time>
      </trkpt>
      <trkpt lat="43.166271010413766" lon="2.986876023933291">
        <ele>17.440000000000001</ele>
        <time>2025-05-16T09:12:03Z</time>
      </trkpt>
      <trkpt lat="43.167503988370299" lon="2.987746987491846">
        <ele>17.920000000000002</ele>
        <time>2025-05-16T09:12:14Z</time>
      </trkpt>
      <trkpt lat="43.167557967826724" lon="2.987787974998355">
        <ele>17.920000000000002</ele>
        <time>2025-05-16T09:12:18Z</time>
      </trkpt>
      <trkpt lat="43.167596021667123" lon="2.98788201995194">
        <ele>17.920000000000002</ele>
        <time>2025-05-16T09:12:19Z</time>
      </trkpt>
      <trkpt lat="43.167613036930561" lon="2.987924013286829">
        <ele>17.920000000000002</ele>
        <time>2025-05-16T09:12:20Z</time>
      </trkpt>
      <trkpt lat="43.16763499751687" lon="2.987980004400015">
        <ele>17.920000000000002</ele>
        <time>2025-05-16T09:12:21Z</time>
      </trkpt>
      <trkpt lat="43.167662993073463" lon="2.988049993291497">
        <ele>17.920000000000002</ele>
        <time>2025-05-16T09:12:22Z</time>
      </trkpt>
      <trkpt lat="43.167687971144915" lon="2.988117970526218">
        <ele>17.920000000000002</ele>
        <time>2025-05-16T09:12:23Z</time>
      </trkpt>
      <trkpt lat="43.167696017771959" lon="2.988212015479803">
        <ele>17.440000000000001</ele>
        <time>2025-05-16T09:12:24Z</time>
      </trkpt>
      <trkpt lat="43.167704986408353" lon="2.988303964957595">
        <ele>17.440000000000001</ele>
        <time>2025-05-16T09:12:25Z</time>
      </trkpt>
      <trkpt lat="43.16774102859199" lon="2.988393986597657">
        <ele>17.440000000000001</ele>
        <time>2025-05-16T09:12:26Z</time>
      </trkpt>
      <trkpt lat="43.167800037190318" lon="2.98842097632587">
        <ele>17.440000000000001</ele>
        <time>2025-05-16T09:12:27Z</time>
      </trkpt>
      <trkpt lat="43.167857034131885" lon="2.988432962447405">
        <ele>16.960000000000001</ele>
        <time>2025-05-16T09:12:28Z</time>
      </trkpt>
      <trkpt lat="43.167915036901832" lon="2.988446038216353">
        <ele>16.960000000000001</ele>
        <time>2025-05-16T09:12:29Z</time>
      </trkpt>
      <trkpt lat="43.167983014136553" lon="2.988433968275785">
        <ele>16.960000000000001</ele>
        <time>2025-05-16T09:12:30Z</time>
      </trkpt>
      <trkpt lat="43.168030036613345" lon="2.988409996032715">
        <ele>16.960000000000001</ele>
        <time>2025-05-16T09:12:31Z</time>
      </trkpt>
      <trkpt lat="43.168157022446394" lon="2.988427011296153">
        <ele>16.48</ele>
        <time>2025-05-16T09:12:32Z</time>
      </trkpt>
      <trkpt lat="43.16825601272285" lon="2.988440003246069">
        <ele>16.48</ele>
        <time>2025-05-16T09:12:33Z</time>
      </trkpt>
      <trkpt lat="43.168359026312828" lon="2.988457018509507">
        <ele>16</ele>
        <time>2025-05-16T09:12:34Z</time>
      </trkpt>
      <trkpt lat="43.16913896240294" lon="2.988969990983605">
        <ele>15.039999999999999</ele>
        <time>2025-05-16T09:12:42Z</time>
      </trkpt>
      <trkpt lat="43.169399974867702" lon="2.989175012335181">
        <ele>14.08</ele>
        <time>2025-05-16T09:12:48Z</time>
      </trkpt>
      <trkpt lat="43.169495025649667" lon="2.98927903175354">
        <ele>13.6</ele>
        <time>2025-05-16T09:12:50Z</time>
      </trkpt>
      <trkpt lat="43.169549005106091" lon="2.989291017875075">
        <ele>13.6</ele>
        <time>2025-05-16T09:12:51Z</time>
      </trkpt>
      <trkpt lat="43.169597033411264" lon="2.98930199816823">
        <ele>13.6</ele>
        <time>2025-05-16T09:12:52Z</time>
      </trkpt>
      <trkpt lat="43.169640032574534" lon="2.989310966804624">
        <ele>13.6</ele>
        <time>2025-05-16T09:12:53Z</time>
      </trkpt>
      <trkpt lat="43.169710021466017" lon="2.989357989281416">
        <ele>13.6</ele>
        <time>2025-05-16T09:12:54Z</time>
      </trkpt>
      <trkpt lat="43.169785039499402" lon="2.98940802924335">
        <ele>13.6</ele>
        <time>2025-05-16T09:12:55Z</time>
      </trkpt>
      <trkpt lat="43.169872965663671" lon="2.989467037841678">
        <ele>13.119999999999999</ele>
        <time>2025-05-16T09:12:56Z</time>
      </trkpt>
      <trkpt lat="43.170648040249944" lon="2.989909015595913">
        <ele>12.630000000000001</ele>
        <time>2025-05-16T09:13:03Z</time>
      </trkpt>
      <trkpt lat="43.170862030237913" lon="2.989943968132138">
        <ele>13.119999999999999</ele>
        <time>2025-05-16T09:13:06Z</time>
      </trkpt>
      <trkpt lat="43.170908968895674" lon="2.98996701836586">
        <ele>13.119999999999999</ele>
        <time>2025-05-16T09:13:07Z</time>
      </trkpt>
      <trkpt lat="43.171327980235219" lon="2.990197017788887">
        <ele>14.08</ele>
        <time>2025-05-16T09:13:13Z</time>
      </trkpt>
      <trkpt lat="43.171631991863251" lon="2.990365996956825">
        <ele>15.039999999999999</ele>
        <time>2025-05-16T09:13:19Z</time>
      </trkpt>
      <trkpt lat="43.171811029314995" lon="2.990482002496719">
        <ele>15.52</ele>
        <time>2025-05-16T09:13:22Z</time>
      </trkpt>
      <trkpt lat="43.172499015927315" lon="2.991027999669313">
        <ele>16</ele>
        <time>2025-05-16T09:13:31Z</time>
      </trkpt>
      <trkpt lat="43.173339972272515" lon="2.991710035130382">
        <ele>14.56</ele>
        <time>2025-05-16T09:13:40Z</time>
      </trkpt>
      <trkpt lat="43.173541976138949" lon="2.991941040381789">
        <ele>13.6</ele>
        <time>2025-05-16T09:13:43Z</time>
      </trkpt>
      <trkpt lat="43.173587992787361" lon="2.992007005959749">
        <ele>12.630000000000001</ele>
        <time>2025-05-16T09:13:44Z</time>
      </trkpt>
      <trkpt lat="43.173619005829096" lon="2.992230970412493">
        <ele>11.19</ele>
        <time>2025-05-16T09:13:46Z</time>
      </trkpt>
      <trkpt lat="43.173670973628759" lon="2.992304982617497">
        <ele>10.710000000000001</ele>
        <time>2025-05-16T09:13:47Z</time>
      </trkpt>
      <trkpt lat="43.173719001933932" lon="2.992373965680599">
        <ele>10.23</ele>
        <time>2025-05-16T09:13:48Z</time>
      </trkpt>
      <trkpt lat="43.173792008310556" lon="2.992401039227843">
        <ele>9.75</ele>
        <time>2025-05-16T09:13:49Z</time>
      </trkpt>
      <trkpt lat="43.173856968060136" lon="2.992401039227843">
        <ele>8.789999999999999</ele>
        <time>2025-05-16T09:13:50Z</time>
      </trkpt>
      <trkpt lat="43.173924023285508" lon="2.992401039227843">
        <ele>8.789999999999999</ele>
        <time>2025-05-16T09:13:51Z</time>
      </trkpt>
      <trkpt lat="43.173930980265141" lon="2.992401039227843">
        <ele>8.310000000000001</ele>
        <time>2025-05-16T09:13:52Z</time>
      </trkpt>
      <trkpt lat="43.174114041030407" lon="2.992321997880936">
        <ele>8.310000000000001</ele>
        <time>2025-05-16T09:13:53Z</time>
      </trkpt>
      <trkpt lat="43.174192998558283" lon="2.99239500425756">
        <ele>7.83</ele>
        <time>2025-05-16T09:13:54Z</time>
      </trkpt>
      <trkpt lat="43.174284026026726" lon="2.992478990927339">
        <ele>7.83</ele>
        <time>2025-05-16T09:13:55Z</time>
      </trkpt>
      <trkpt lat="43.174384022131562" lon="2.992563983425498">
        <ele>7.83</ele>
        <time>2025-05-16T09:13:56Z</time>
      </trkpt>
      <trkpt lat="43.175297984853387" lon="2.993191033601761">
        <ele>6.87</ele>
        <time>2025-05-16T09:14:05Z</time>
      </trkpt>
      <trkpt lat="43.175651030614972" lon="2.993425978347659">
        <ele>7.35</ele>
        <time>2025-05-16T09:14:09Z</time>
      </trkpt>
      <trkpt lat="43.175718002021313" lon="2.993473000824451">
        <ele>7.35</ele>
        <time>2025-05-16T09:14:10Z</time>
      </trkpt>
      <trkpt lat="43.175695035606623" lon="2.993636028841138">
        <ele>7.83</ele>
        <time>2025-05-16T09:14:11Z</time>
      </trkpt>
      <trkpt lat="43.175699980929494" lon="2.993742981925607">
        <ele>7.83</ele>
        <time>2025-05-16T09:14:12Z</time>
      </trkpt>
      <trkpt lat="43.175711967051029" lon="2.993968036025763">
        <ele>7.35</ele>
        <time>2025-05-16T09:14:13Z</time>
      </trkpt>
      <trkpt lat="43.175701992586255" lon="2.994008017703891">
        <ele>6.87</ele>
        <time>2025-05-16T09:14:14Z</time>
      </trkpt>
      <trkpt lat="43.175484985113144" lon="2.994835982099176">
        <ele>4.94</ele>
        <time>2025-05-16T09:14:20Z</time>
      </trkpt>
      <trkpt lat="43.175441985949874" lon="2.995228003710508">
        <ele>3.02</ele>
        <time>2025-05-16T09:14:23Z</time>
      </trkpt>
      <trkpt lat="43.175531001761556" lon="2.996630966663361">
        <ele>2.06</ele>
        <time>2025-05-16T09:14:34Z</time>
      </trkpt>
      <trkpt lat="43.175601996481419" lon="2.997671999037266">
        <ele>0.62</ele>
        <time>2025-05-16T09:14:44Z</time>
      </trkpt>
      <trkpt lat="43.17558498121798" lon="2.999044032767415">
        <ele>0.62</ele>
        <time>2025-05-16T09:14:53Z</time>
      </trkpt>
      <trkpt lat="43.175544999539852" lon="2.999548958614469">
        <ele>1.1</ele>
        <time>2025-05-16T09:14:56Z</time>
      </trkpt>
      <trkpt lat="43.175268983468413" lon="3.001309996470809">
        <ele>2.54</ele>
        <time>2025-05-16T09:15:07Z</time>
      </trkpt>
      <trkpt lat="43.175100004300475" lon="3.002770040184259">
        <ele>2.54</ele>
        <time>2025-05-16T09:15:17Z</time>
      </trkpt>
      <trkpt lat="43.175081983208656" lon="3.003171030431986">
        <ele>2.54</ele>
        <time>2025-05-16T09:15:21Z</time>
      </trkpt>
      <trkpt lat="43.175076032057405" lon="3.003298016265035">
        <ele>2.06</ele>
        <time>2025-05-16T09:15:23Z</time>
      </trkpt>
      <trkpt lat="43.175074020400643" lon="3.003360964357853">
        <ele>2.06</ele>
        <time>2025-05-16T09:15:24Z</time>
      </trkpt>
      <trkpt lat="43.17506798543036" lon="3.003473030403256">
        <ele>2.06</ele>
        <time>2025-05-16T09:15:26Z</time>
      </trkpt>
      <trkpt lat="43.1749829929322" lon="3.003623988479376">
        <ele>2.06</ele>
        <time>2025-05-16T09:15:27Z</time>
      </trkpt>
      <trkpt lat="43.175042001530528" lon="3.003763966262341">
        <ele>1.58</ele>
        <time>2025-05-16T09:15:28Z</time>
      </trkpt>
      <trkpt lat="43.175034038722515" lon="3.003896987065673">
        <ele>1.58</ele>
        <time>2025-05-16T09:15:29Z</time>
      </trkpt>
      <trkpt lat="43.175026997923851" lon="3.004030007869005">
        <ele>1.58</ele>
        <time>2025-05-16T09:15:30Z</time>
      </trkpt>
      <trkpt lat="43.175018029287457" lon="3.004163028672338">
        <ele>1.1</ele>
        <time>2025-05-16T09:15:31Z</time>
      </trkpt>
      <trkpt lat="43.174963966012001" lon="3.005131976678968">
        <ele>0.14</ele>
        <time>2025-05-16T09:15:40Z</time>
      </trkpt>
      <trkpt lat="43.174914009869099" lon="3.005405981093645">
        <ele>0.14</ele>
        <time>2025-05-16T09:15:43Z</time>
      </trkpt>
      <trkpt lat="43.174894982948899" lon="3.005486028268933">
        <ele>0.62</ele>
        <time>2025-05-16T09:15:44Z</time>
      </trkpt>
      <trkpt lat="43.174875034019351" lon="3.00556699745357">
        <ele>0.62</ele>
        <time>2025-05-16T09:15:45Z</time>
      </trkpt>
      <trkpt lat="43.174856007099152" lon="3.005646960809827">
        <ele>1.1</ele>
        <time>2025-05-16T09:15:46Z</time>
      </trkpt>
      <trkpt lat="43.174834968522191" lon="3.005732959136367">
        <ele>1.1</ele>
        <time>2025-05-16T09:15:47Z</time>
      </trkpt>
      <trkpt lat="43.174814013764262" lon="3.005821974948049">
        <ele>1.58</ele>
        <time>2025-05-16T09:15:48Z</time>
      </trkpt>
      <trkpt lat="43.174799010157585" lon="3.005934963002801">
        <ele>2.06</ele>
        <time>2025-05-16T09:15:49Z</time>
      </trkpt>
      <trkpt lat="43.174832034856081" lon="3.006048034876585">
        <ele>2.54</ele>
        <time>2025-05-16T09:15:50Z</time>
      </trkpt>
      <trkpt lat="43.174861958250403" lon="3.006269987672567">
        <ele>3.5</ele>
        <time>2025-05-16T09:15:52Z</time>
      </trkpt>
      <trkpt lat="43.174847038462758" lon="3.007619976997376">
        <ele>2.54</ele>
        <time>2025-05-16T09:16:02Z</time>
      </trkpt>
      <trkpt lat="43.174976035952568" lon="3.008717000484467">
        <ele>2.54</ele>
        <time>2025-05-16T09:16:11Z</time>
      </trkpt>
      <trkpt lat="43.175047030672431" lon="3.009073985740542">
        <ele>2.54</ele>
        <time>2025-05-16T09:16:14Z</time>
      </trkpt>
      <trkpt lat="43.175495965406299" lon="3.01016204059124">
        <ele>2.06</ele>
        <time>2025-05-16T09:16:24Z</time>
      </trkpt>
      <trkpt lat="43.176238015294075" lon="3.010968966409564">
        <ele>2.06</ele>
        <time>2025-05-16T09:16:33Z</time>
      </trkpt>
      <trkpt lat="43.177187014371157" lon="3.011586964130402">
        <ele>2.06</ele>
        <time>2025-05-16T09:16:42Z</time>
      </trkpt>
      <trkpt lat="43.178370036184788" lon="3.012364972382784">
        <ele>2.06</ele>
        <time>2025-05-16T09:16:53Z</time>
      </trkpt>
      <trkpt lat="43.179305959492922" lon="3.012970983982086">
        <ele>2.06</ele>
        <time>2025-05-16T09:17:04Z</time>
      </trkpt>
      <trkpt lat="43.179349964484572" lon="3.012997973710299">
        <ele>1.58</ele>
        <time>2025-05-16T09:17:13Z</time>
      </trkpt>
      <trkpt lat="43.179423976689577" lon="3.01304298453033">
        <ele>2.06</ele>
        <time>2025-05-16T09:17:19Z</time>
      </trkpt>
      <trkpt lat="43.179439986124635" lon="3.013075003400445">
        <ele>2.54</ele>
        <time>2025-05-16T09:17:20Z</time>
      </trkpt>
      <trkpt lat="43.179467981681228" lon="3.013130994513631">
        <ele>2.54</ele>
        <time>2025-05-16T09:17:21Z</time>
      </trkpt>
      <trkpt lat="43.179497988894582" lon="3.013190003111959">
        <ele>3.02</ele>
        <time>2025-05-16T09:17:22Z</time>
      </trkpt>
      <trkpt lat="43.179555991664529" lon="3.013199977576733">
        <ele>3.5</ele>
        <time>2025-05-16T09:17:23Z</time>
      </trkpt>
      <trkpt lat="43.179604019969702" lon="3.013183968141675">
        <ele>3.98</ele>
        <time>2025-05-16T09:17:24Z</time>
      </trkpt>
      <trkpt lat="43.179678032174706" lon="3.013202995061874">
        <ele>4.46</ele>
        <time>2025-05-16T09:17:25Z</time>
      </trkpt>
      <trkpt lat="43.179733017459512" lon="3.013247000053525">
        <ele>4.46</ele>
        <time>2025-05-16T09:17:26Z</time>
      </trkpt>
      <trkpt lat="43.180153034627438" lon="3.013628041371703">
        <ele>6.39</ele>
        <time>2025-05-16T09:17:33Z</time>
      </trkpt>
      <trkpt lat="43.180196033790708" lon="3.013676991686225">
        <ele>6.39</ele>
        <time>2025-05-16T09:17:34Z</time>
      </trkpt>
      <trkpt lat="43.180232997983694" lon="3.013719990849495">
        <ele>6.87</ele>
        <time>2025-05-16T09:17:35Z</time>
      </trkpt>
      <trkpt lat="43.180217994377017" lon="3.013901961967349">
        <ele>6.87</ele>
        <time>2025-05-16T09:17:36Z</time>
      </trkpt>
      <trkpt lat="43.180229980498552" lon="3.013936998322606">
        <ele>7.35</ele>
        <time>2025-05-16T09:17:37Z</time>
      </trkpt>
      <trkpt lat="43.180258981883526" lon="3.014025008305907">
        <ele>7.35</ele>
        <time>2025-05-16T09:17:38Z</time>
      </trkpt>
      <trkpt lat="43.180260993540287" lon="3.014136990532279">
        <ele>7.83</ele>
        <time>2025-05-16T09:17:39Z</time>
      </trkpt>
      <trkpt lat="43.180260993540287" lon="3.014240004122257">
        <ele>7.83</ele>
        <time>2025-05-16T09:17:40Z</time>
      </trkpt>
      <trkpt lat="43.180257976055145" lon="3.014357015490532">
        <ele>7.83</ele>
        <time>2025-05-16T09:17:41Z</time>
      </trkpt>
      <trkpt lat="43.180252024903893" lon="3.014491964131594">
        <ele>7.83</ele>
        <time>2025-05-16T09:17:42Z</time>
      </trkpt>
      <trkpt lat="43.180244984105229" lon="3.014637976884842">
        <ele>7.83</ele>
        <time>2025-05-16T09:17:43Z</time>
      </trkpt>
      <trkpt lat="43.180145993828773" lon="3.016076982021332">
        <ele>7.35</ele>
        <time>2025-05-16T09:17:52Z</time>
      </trkpt>
      <trkpt lat="43.18000802770257" lon="3.017407022416592">
        <ele>6.87</ele>
        <time>2025-05-16T09:18:03Z</time>
      </trkpt>
      <trkpt lat="43.179831001907587" lon="3.018402960151434">
        <ele>7.83</ele>
        <time>2025-05-16T09:18:11Z</time>
      </trkpt>
      <trkpt lat="43.179810969159007" lon="3.018515026196837">
        <ele>7.83</ele>
        <time>2025-05-16T09:18:12Z</time>
      </trkpt>
      <trkpt lat="43.179683983325958" lon="3.018686017021537">
        <ele>7.35</ele>
        <time>2025-05-16T09:18:14Z</time>
      </trkpt>
      <trkpt lat="43.179674008861184" lon="3.018805040046573">
        <ele>7.35</ele>
        <time>2025-05-16T09:18:15Z</time>
      </trkpt>
      <trkpt lat="43.179668979719281" lon="3.01890998147428">
        <ele>6.87</ele>
        <time>2025-05-16T09:18:16Z</time>
      </trkpt>
      <trkpt lat="43.179698986932635" lon="3.019014000892639">
        <ele>6.87</ele>
        <time>2025-05-16T09:18:17Z</time>
      </trkpt>
      <trkpt lat="43.179757995530963" lon="3.019095975905657">
        <ele>6.39</ele>
        <time>2025-05-16T09:18:18Z</time>
      </trkpt>
      <trkpt lat="43.179825972765684" lon="3.019160013645887">
        <ele>5.42</ele>
        <time>2025-05-16T09:18:19Z</time>
      </trkpt>
      <trkpt lat="43.179896967485547" lon="3.0191679764539">
        <ele>4.94</ele>
        <time>2025-05-16T09:18:20Z</time>
      </trkpt>
      <trkpt lat="43.1799650285393" lon="3.019176023080945">
        <ele>4.46</ele>
        <time>2025-05-16T09:18:21Z</time>
      </trkpt>
      <trkpt lat="43.180055972188711" lon="3.019110979512334">
        <ele>3.98</ele>
        <time>2025-05-16T09:18:22Z</time>
      </trkpt>
      <trkpt lat="43.180114980787039" lon="3.019032021984458">
        <ele>3.5</ele>
        <time>2025-05-16T09:18:23Z</time>
      </trkpt>
      <trkpt lat="43.180148005485535" lon="3.018903024494648">
        <ele>3.5</ele>
        <time>2025-05-16T09:18:24Z</time>
      </trkpt>
      <trkpt lat="43.180154040455818" lon="3.018858013674617">
        <ele>3.02</ele>
        <time>2025-05-16T09:18:25Z</time>
      </trkpt>
      <trkpt lat="43.180177006870508" lon="3.018643017858267">
        <ele>3.02</ele>
        <time>2025-05-16T09:18:26Z</time>
      </trkpt>
      <trkpt lat="43.180235009640455" lon="3.018584009259939">
        <ele>2.54</ele>
        <time>2025-05-16T09:18:27Z</time>
      </trkpt>
      <trkpt lat="43.180293012410402" lon="3.018526006489992">
        <ele>2.06</ele>
        <time>2025-05-16T09:18:28Z</time>
      </trkpt>
      <trkpt lat="43.180354032665491" lon="3.018464986234903">
        <ele>1.58</ele>
        <time>2025-05-16T09:18:29Z</time>
      </trkpt>
      <trkpt lat="43.180419998243451" lon="3.018399020656943">
        <ele>1.58</ele>
        <time>2025-05-16T09:18:30Z</time>
      </trkpt>
      <trkpt lat="43.181073032319546" lon="3.017720002681017">
        <ele>-0.34</ele>
        <time>2025-05-16T09:18:39Z</time>
      </trkpt>
      <trkpt lat="43.181136986240745" lon="3.017652025446296">
        <ele>-0.34</ele>
        <time>2025-05-16T09:18:40Z</time>
      </trkpt>
      <trkpt lat="43.181200018152595" lon="3.017584970220923">
        <ele>-0.82</ele>
        <time>2025-05-16T09:18:41Z</time>
      </trkpt>
      <trkpt lat="43.181261960417032" lon="3.017520010471344">
        <ele>-0.82</ele>
        <time>2025-05-16T09:18:42Z</time>
      </trkpt>
      <trkpt lat="43.181323986500502" lon="3.017454966902733">
        <ele>-0.82</ele>
        <time>2025-05-16T09:18:43Z</time>
      </trkpt>
      <trkpt lat="43.18138500675559" lon="3.017389001324773">
        <ele>-1.3</ele>
        <time>2025-05-16T09:18:44Z</time>
      </trkpt>
      <trkpt lat="43.181445021182299" lon="3.017325969412923">
        <ele>-1.3</ele>
        <time>2025-05-16T09:18:45Z</time>
      </trkpt>
      <trkpt lat="43.181955981999636" lon="3.016777038574219">
        <ele>-1.3</ele>
        <time>2025-05-16T09:18:54Z</time>
      </trkpt>
      <trkpt lat="43.182033011689782" lon="3.01678198389709">
        <ele>-1.79</ele>
        <time>2025-05-16T09:18:55Z</time>
      </trkpt>
      <trkpt lat="43.182168966159225" lon="3.016791958361864">
        <ele>-1.79</ele>
        <time>2025-05-16T09:18:57Z</time>
      </trkpt>
      <trkpt lat="43.182224035263062" lon="3.016795981675386">
        <ele>-1.79</ele>
        <time>2025-05-16T09:18:58Z</time>
      </trkpt>
      <trkpt lat="43.182263011112809" lon="3.016798999160528">
        <ele>-1.79</ele>
        <time>2025-05-16T09:18:59Z</time>
      </trkpt>
      <trkpt lat="43.182284971699119" lon="3.016798999160528">
        <ele>-2.27</ele>
        <time>2025-05-16T09:19:10Z</time>
      </trkpt>
      <trkpt lat="43.182470966130495" lon="3.016798999160528">
        <ele>-1.3</ele>
        <time>2025-05-16T09:19:15Z</time>
      </trkpt>
      <trkpt lat="43.182543972507119" lon="3.016774021089077">
        <ele>-1.3</ele>
        <time>2025-05-16T09:19:16Z</time>
      </trkpt>
      <trkpt lat="43.182601975277066" lon="3.016754994168878">
        <ele>-1.3</ele>
        <time>2025-05-16T09:19:17Z</time>
      </trkpt>
      <trkpt lat="43.182664001360536" lon="3.016734039410949">
        <ele>-1.79</ele>
        <time>2025-05-16T09:19:18Z</time>
      </trkpt>
      <trkpt lat="43.18273700773716" lon="3.016704032197595">
        <ele>-1.79</ele>
        <time>2025-05-16T09:19:19Z</time>
      </trkpt>
      <trkpt lat="43.182789981365204" lon="3.016601018607616">
        <ele>-1.79</ele>
        <time>2025-05-16T09:19:20Z</time>
      </trkpt>
      <trkpt lat="43.182814959436655" lon="3.016503034159541">
        <ele>-1.3</ele>
        <time>2025-05-16T09:19:21Z</time>
      </trkpt>
      <trkpt lat="43.182842032983899" lon="3.016400020569563">
        <ele>-1.3</ele>
        <time>2025-05-16T09:19:22Z</time>
      </trkpt>
      <trkpt lat="43.1832339707762" lon="3.015090012922883">
        <ele>-1.3</ele>
        <time>2025-05-16T09:19:34Z</time>
      </trkpt>
      <trkpt lat="43.183394987136126" lon="3.014758005738258">
        <ele>-1.3</ele>
        <time>2025-05-16T09:19:37Z</time>
      </trkpt>
      <trkpt lat="43.183452989906073" lon="3.014661027118564">
        <ele>-1.3</ele>
        <time>2025-05-16T09:19:38Z</time>
      </trkpt>
      <trkpt lat="43.184038968756795" lon="3.013679003342986">
        <ele>-1.79</ele>
        <time>2025-05-16T09:19:49Z</time>
      </trkpt>
      <trkpt lat="43.184314984828234" lon="3.013252029195428">
        <ele>-3.23</ele>
        <time>2025-05-16T09:19:54Z</time>
      </trkpt>
      <trkpt lat="43.184369970113039" lon="3.013167036697269">
        <ele>-3.71</ele>
        <time>2025-05-16T09:19:55Z</time>
      </trkpt>
      <trkpt lat="43.184517994523048" lon="3.012938965111971">
        <ele>-3.71</ele>
        <time>2025-05-16T09:19:58Z</time>
      </trkpt>
      <trkpt lat="43.184557976201177" lon="3.012877022847533">
        <ele>-3.71</ele>
        <time>2025-05-16T09:19:59Z</time>
      </trkpt>
      <trkpt lat="43.184616984799504" lon="3.01278599537909">
        <ele>-3.71</ele>
        <time>2025-05-16T09:20:00Z</time>
      </trkpt>
      <trkpt lat="43.184658978134394" lon="3.012730004265904">
        <ele>-3.23</ele>
        <time>2025-05-16T09:20:01Z</time>
      </trkpt>
      <trkpt lat="43.184722010046244" lon="3.012643000110984">
        <ele>-3.23</ele>
        <time>2025-05-16T09:20:02Z</time>
      </trkpt>
      <trkpt lat="43.185445033013821" lon="3.011843031272292">
        <ele>-0.34</ele>
        <time>2025-05-16T09:20:11Z</time>
      </trkpt>
      <trkpt lat="43.185630021616817" lon="3.011749992147088">
        <ele>-0.34</ele>
        <time>2025-05-16T09:20:13Z</time>
      </trkpt>
      <trkpt lat="43.185722976922989" lon="3.011714033782482">
        <ele>-0.34</ele>
        <time>2025-05-16T09:20:14Z</time>
      </trkpt>
      <trkpt lat="43.185815010219812" lon="3.011677991598845">
        <ele>-0.82</ele>
        <time>2025-05-16T09:20:15Z</time>
      </trkpt>
      <trkpt lat="43.185909977182746" lon="3.011640021577478">
        <ele>-0.82</ele>
        <time>2025-05-16T09:20:16Z</time>
      </trkpt>
      <trkpt lat="43.186007039621472" lon="3.011601967737079">
        <ele>-0.82</ele>
        <time>2025-05-16T09:20:17Z</time>
      </trkpt>
      <trkpt lat="43.186184987425804" lon="3.011531978845596">
        <ele>-1.3</ele>
        <time>2025-05-16T09:20:19Z</time>
      </trkpt>
      <trkpt lat="43.186563011258841" lon="3.011365011334419">
        <ele>-3.71</ele>
        <time>2025-05-16T09:20:24Z</time>
      </trkpt>
      <trkpt lat="43.186622019857168" lon="3.0113469902426">
        <ele>-4.19</ele>
        <time>2025-05-16T09:20:25Z</time>
      </trkpt>
      <trkpt lat="43.186686979606748" lon="3.011333998292685">
        <ele>-4.19</ele>
        <time>2025-05-16T09:20:26Z</time>
      </trkpt>
      <trkpt lat="43.186747999861836" lon="3.011390995234251">
        <ele>-4.67</ele>
        <time>2025-05-16T09:20:27Z</time>
      </trkpt>
      <trkpt lat="43.186802985146642" lon="3.011390995234251">
        <ele>-4.67</ele>
        <time>2025-05-16T09:20:28Z</time>
      </trkpt>
      <trkpt lat="43.18688303232193" lon="3.011304996907711">
        <ele>-5.15</ele>
        <time>2025-05-16T09:20:29Z</time>
      </trkpt>
      <trkpt lat="43.186904992908239" lon="3.011208018288016">
        <ele>-4.19</ele>
        <time>2025-05-16T09:20:30Z</time>
      </trkpt>
      <trkpt lat="43.186924019828439" lon="3.011103998869658">
        <ele>-3.71</ele>
        <time>2025-05-16T09:20:31Z</time>
      </trkpt>
      <trkpt lat="43.186944974586368" lon="3.010987993329763">
        <ele>-3.71</ele>
        <time>2025-05-16T09:20:32Z</time>
      </trkpt>
      <trkpt lat="43.187143038958311" lon="3.010012004524469">
        <ele>-2.27</ele>
        <time>2025-05-16T09:20:41Z</time>
      </trkpt>
      <trkpt lat="43.187200035899878" lon="3.00966901704669">
        <ele>-1.3</ele>
        <time>2025-05-16T09:20:46Z</time>
      </trkpt>
      <trkpt lat="43.187209004536271" lon="3.009616965427995">
        <ele>-0.34</ele>
        <time>2025-05-16T09:20:47Z</time>
      </trkpt>
      <trkpt lat="43.187277987599373" lon="3.009599028155208">
        <ele>-0.34</ele>
        <time>2025-05-16T09:20:48Z</time>
      </trkpt>
      <trkpt lat="43.187340013682842" lon="3.009607996791601">
        <ele>-0.34</ele>
        <time>2025-05-16T09:20:49Z</time>
      </trkpt>
      <trkpt lat="43.187404973432422" lon="3.009618977084756">
        <ele>0.14</ele>
        <time>2025-05-16T09:20:50Z</time>
      </trkpt>
      <trkpt lat="43.187678977847099" lon="3.009660970419645">
        <ele>1.1</ele>
        <time>2025-05-16T09:20:55Z</time>
      </trkpt>
      <trkpt lat="43.187767993658781" lon="3.009674968197942">
        <ele>1.1</ele>
        <time>2025-05-16T09:20:58Z</time>
      </trkpt>
      <trkpt lat="43.188017020002007" lon="3.00966901704669">
        <ele>3.5</ele>
        <time>2025-05-16T09:21:04Z</time>
      </trkpt>
      <trkpt lat="43.18808801472187" lon="3.009653007611632">
        <ele>3.98</ele>
        <time>2025-05-16T09:21:05Z</time>
      </trkpt>
      <trkpt lat="43.188438965007663" lon="3.009572038426995">
        <ele>5.91</ele>
        <time>2025-05-16T09:21:10Z</time>
      </trkpt>
      <trkpt lat="43.18849696777761" lon="3.009558040648699">
        <ele>6.39</ele>
        <time>2025-05-16T09:21:11Z</time>
      </trkpt>
      <trkpt lat="43.188610039651394" lon="3.009531972929835">
        <ele>6.87</ele>
        <time>2025-05-16T09:21:13Z</time>
      </trkpt>
      <trkpt lat="43.188737025484443" lon="3.009437005966902">
        <ele>7.83</ele>
        <time>2025-05-16T09:21:17Z</time>
      </trkpt>
      <trkpt lat="43.188737025484443" lon="3.009366011247039">
        <ele>8.310000000000001</ele>
        <time>2025-05-16T09:21:18Z</time>
      </trkpt>
      <trkpt lat="43.188737025484443" lon="3.009288981556892">
        <ele>8.310000000000001</ele>
        <time>2025-05-16T09:21:19Z</time>
      </trkpt>
      <trkpt lat="43.188716992735863" lon="3.008814984932542">
        <ele>9.75</ele>
        <time>2025-05-16T09:21:25Z</time>
      </trkpt>
      <trkpt lat="43.188757980242372" lon="3.008772991597652">
        <ele>9.75</ele>
        <time>2025-05-16T09:21:26Z</time>
      </trkpt>
      <trkpt lat="43.188739959150553" lon="3.008792018517852">
        <ele>9.75</ele>
        <time>2025-05-16T09:21:27Z</time>
      </trkpt>
      <trkpt lat="43.188751023262739" lon="3.008780032396317">
        <ele>10.23</ele>
        <time>2025-05-16T09:21:28Z</time>
      </trkpt>
      <trkpt lat="43.188757980242372" lon="3.008772991597652">
        <ele>10.23</ele>
        <time>2025-05-16T09:21:29Z</time>
      </trkpt>
      <trkpt lat="43.188757980242372" lon="3.008772991597652">
        <ele>10.23</ele>
        <time>2025-05-16T09:21:30Z</time>
      </trkpt>
      <trkpt lat="43.188824029639363" lon="3.008785983547568">
        <ele>10.710000000000001</ele>
        <time>2025-05-16T09:21:31Z</time>
      </trkpt>
      <trkpt lat="43.188872979953885" lon="3.008796041831374">
        <ele>10.710000000000001</ele>
        <time>2025-05-16T09:21:32Z</time>
      </trkpt>
      <trkpt lat="43.188935006037354" lon="3.00880802795291">
        <ele>11.19</ele>
        <time>2025-05-16T09:21:33Z</time>
      </trkpt>
      <trkpt lat="43.189004994928837" lon="3.008823031559587">
        <ele>11.19</ele>
        <time>2025-05-16T09:21:34Z</time>
      </trkpt>
      <trkpt lat="43.189880987629294" lon="3.008995028212667">
        <ele>11.67</ele>
        <time>2025-05-16T09:21:44Z</time>
      </trkpt>
      <trkpt lat="43.189965980127454" lon="3.009015982970595">
        <ele>11.19</ele>
        <time>2025-05-16T09:21:45Z</time>
      </trkpt>
      <trkpt lat="43.190835015848279" lon="3.009193008765578">
        <ele>9.75</ele>
        <time>2025-05-16T09:21:53Z</time>
      </trkpt>
      <trkpt lat="43.191404985263944" lon="3.009284036234021">
        <ele>10.23</ele>
        <time>2025-05-16T09:21:58Z</time>
      </trkpt>
      <trkpt lat="43.191517973318696" lon="3.009301973506808">
        <ele>10.23</ele>
        <time>2025-05-16T09:21:59Z</time>
      </trkpt>
      <trkpt lat="43.191961962729692" lon="3.009385038167238">
        <ele>11.19</ele>
        <time>2025-05-16T09:22:03Z</time>
      </trkpt>
      <trkpt lat="43.192055001854897" lon="3.009405992925167">
        <ele>10.710000000000001</ele>
        <time>2025-05-16T09:22:04Z</time>
      </trkpt>
      <trkpt lat="43.192292964085937" lon="3.009459972381592">
        <ele>10.710000000000001</ele>
        <time>2025-05-16T09:22:08Z</time>
      </trkpt>
      <trkpt lat="43.192410981282592" lon="3.009486962109804">
        <ele>11.19</ele>
        <time>2025-05-16T09:22:10Z</time>
      </trkpt>
      <trkpt lat="43.192780036479235" lon="3.009556028991938">
        <ele>11.19</ele>
        <time>2025-05-16T09:22:15Z</time>
      </trkpt>
      <trkpt lat="43.192847007885575" lon="3.009567009285092">
        <ele>11.19</ele>
        <time>2025-05-16T09:22:16Z</time>
      </trkpt>
      <trkpt lat="43.192918002605438" lon="3.009577989578247">
        <ele>10.710000000000001</ele>
        <time>2025-05-16T09:22:17Z</time>
      </trkpt>
      <trkpt lat="43.19300701841712" lon="3.009590981528163">
        <ele>9.75</ele>
        <time>2025-05-16T09:22:18Z</time>
      </trkpt>
      <trkpt lat="43.193098967894912" lon="3.009601039811969">
        <ele>9.75</ele>
        <time>2025-05-16T09:22:19Z</time>
      </trkpt>
      <trkpt lat="43.193470034748316" lon="3.009671028703451">
        <ele>7.83</ele>
        <time>2025-05-16T09:22:24Z</time>
      </trkpt>
      <trkpt lat="43.193511022254825" lon="3.009677985683084">
        <ele>7.35</ele>
        <time>2025-05-16T09:22:25Z</time>
      </trkpt>
      <trkpt lat="43.193549998104572" lon="3.009685026481748">
        <ele>6.87</ele>
        <time>2025-05-16T09:22:26Z</time>
      </trkpt>
      <trkpt lat="43.193608000874519" lon="3.009696006774902">
        <ele>6.39</ele>
        <time>2025-05-16T09:22:28Z</time>
      </trkpt>
      <trkpt lat="43.193669021129608" lon="3.009793991222978">
        <ele>5.91</ele>
        <time>2025-05-16T09:22:29Z</time>
      </trkpt>
      <trkpt lat="43.193892985582352" lon="3.009749986231327">
        <ele>5.91</ele>
        <time>2025-05-16T09:22:32Z</time>
      </trkpt>
      <trkpt lat="43.193968003615737" lon="3.009792985394597">
        <ele>5.91</ele>
        <time>2025-05-16T09:22:33Z</time>
      </trkpt>
      <trkpt lat="43.194058025255799" lon="3.009845959022641">
        <ele>5.91</ele>
        <time>2025-05-16T09:22:34Z</time>
      </trkpt>
      <trkpt lat="43.194118039682508" lon="3.009905973449349">
        <ele>4.94</ele>
        <time>2025-05-16T09:22:35Z</time>
      </trkpt>
      <trkpt lat="43.194192973896861" lon="3.009980991482735">
        <ele>4.94</ele>
        <time>2025-05-16T09:22:36Z</time>
      </trkpt>
      <trkpt lat="43.194330018013716" lon="3.010118035599589">
        <ele>4.46</ele>
        <time>2025-05-16T09:22:38Z</time>
      </trkpt>
      <trkpt lat="43.195009035989642" lon="3.010866958647966">
        <ele>3.98</ele>
        <time>2025-05-16T09:22:48Z</time>
      </trkpt>
      <trkpt lat="43.195743961259723" lon="3.01171101629734">
        <ele>4.94</ele>
        <time>2025-05-16T09:22:57Z</time>
      </trkpt>
      <trkpt lat="43.196120979264379" lon="3.01216397434473">
        <ele>4.46</ele>
        <time>2025-05-16T09:23:03Z</time>
      </trkpt>
      <trkpt lat="43.196234973147511" lon="3.012303030118346">
        <ele>3.98</ele>
        <time>2025-05-16T09:23:05Z</time>
      </trkpt>
      <trkpt lat="43.196430020034313" lon="3.012531017884612">
        <ele>3.5</ele>
        <time>2025-05-16T09:23:08Z</time>
      </trkpt>
      <trkpt lat="43.196628000587225" lon="3.012761017307639">
        <ele>3.98</ele>
        <time>2025-05-16T09:23:11Z</time>
      </trkpt>
      <trkpt lat="43.196692038327456" lon="3.012837041169405">
        <ele>3.98</ele>
        <time>2025-05-16T09:23:12Z</time>
      </trkpt>
      <trkpt lat="43.197189001366496" lon="3.013416985049844">
        <ele>5.42</ele>
        <time>2025-05-16T09:23:18Z</time>
      </trkpt>
      <trkpt lat="43.197383964434266" lon="3.013643966987729">
        <ele>5.42</ele>
        <time>2025-05-16T09:23:20Z</time>
      </trkpt>
      <trkpt lat="43.197445990517735" lon="3.013705993071199">
        <ele>5.91</ele>
        <time>2025-05-16T09:23:21Z</time>
      </trkpt>
      <trkpt lat="43.197536012157798" lon="3.013792997226119">
        <ele>6.39</ele>
        <time>2025-05-16T09:23:22Z</time>
      </trkpt>
      <trkpt lat="43.198010008782148" lon="3.014241009950638">
        <ele>7.83</ele>
        <time>2025-05-16T09:23:27Z</time>
      </trkpt>
      <trkpt lat="43.198725990951061" lon="3.014978030696511">
        <ele>9.27</ele>
        <time>2025-05-16T09:23:35Z</time>
      </trkpt>
      <trkpt lat="43.199113989248872" lon="3.015555962920189">
        <ele>8.310000000000001</ele>
        <time>2025-05-16T09:23:40Z</time>
      </trkpt>
      <trkpt lat="43.199444990605116" lon="3.01645802333951">
        <ele>7.83</ele>
        <time>2025-05-16T09:23:48Z</time>
      </trkpt>
      <trkpt lat="43.199631990864873" lon="3.017530990764499">
        <ele>9.27</ele>
        <time>2025-05-16T09:23:54Z</time>
      </trkpt>
      <trkpt lat="43.199788983911276" lon="3.018175978213549">
        <ele>9.27</ele>
        <time>2025-05-16T09:23:57Z</time>
      </trkpt>
      <trkpt lat="43.199869031086564" lon="3.018383011221886">
        <ele>9.27</ele>
        <time>2025-05-16T09:23:58Z</time>
      </trkpt>
      <trkpt lat="43.199969027191401" lon="3.018566993996501">
        <ele>9.27</ele>
        <time>2025-05-16T09:23:59Z</time>
      </trkpt>
      <trkpt lat="43.200074974447489" lon="3.018733961507678">
        <ele>9.27</ele>
        <time>2025-05-16T09:24:00Z</time>
      </trkpt>
      <trkpt lat="43.200175976380706" lon="3.018891960382462">
        <ele>9.27</ele>
        <time>2025-05-16T09:24:01Z</time>
      </trkpt>
      <trkpt lat="43.200430031865835" lon="3.019300997257233">
        <ele>9.75</ele>
        <time>2025-05-16T09:24:04Z</time>
      </trkpt>
      <trkpt lat="43.200483005493879" lon="3.019431000575423">
        <ele>9.75</ele>
        <time>2025-05-16T09:24:05Z</time>
      </trkpt>
      <trkpt lat="43.200505971908569" lon="3.019579024985433">
        <ele>9.75</ele>
        <time>2025-05-16T09:24:06Z</time>
      </trkpt>
      <trkpt lat="43.200588030740619" lon="3.019730988889933">
        <ele>10.23</ele>
        <time>2025-05-16T09:24:07Z</time>
      </trkpt>
      <trkpt lat="43.200671011582017" lon="3.019823022186756">
        <ele>10.23</ele>
        <time>2025-05-16T09:24:08Z</time>
      </trkpt>
      <trkpt lat="43.200802020728588" lon="3.019850011914969">
        <ele>9.75</ele>
        <time>2025-05-16T09:24:09Z</time>
      </trkpt>
      <trkpt lat="43.200911991298199" lon="3.019829979166389">
        <ele>9.75</ele>
        <time>2025-05-16T09:24:10Z</time>
      </trkpt>
      <trkpt lat="43.201030008494854" lon="3.019848000258207">
        <ele>9.27</ele>
        <time>2025-05-16T09:24:11Z</time>
      </trkpt>
      <trkpt lat="43.201160011813045" lon="3.019884964451194">
        <ele>9.27</ele>
        <time>2025-05-16T09:24:12Z</time>
      </trkpt>
      <trkpt lat="43.201299989596009" lon="3.019925029948354">
        <ele>9.27</ele>
        <time>2025-05-16T09:24:13Z</time>
      </trkpt>
      <trkpt lat="43.202699013054371" lon="3.020301964133978">
        <ele>8.310000000000001</ele>
        <time>2025-05-16T09:24:21Z</time>
      </trkpt>
      <trkpt lat="43.203254984691739" lon="3.020575968548656">
        <ele>7.35</ele>
        <time>2025-05-16T09:24:24Z</time>
      </trkpt>
      <trkpt lat="43.203440979123116" lon="3.02071200683713">
        <ele>7.35</ele>
        <time>2025-05-16T09:24:25Z</time>
      </trkpt>
      <trkpt lat="43.204698013141751" lon="3.022107006981969">
        <ele>5.42</ele>
        <time>2025-05-16T09:24:33Z</time>
      </trkpt>
      <trkpt lat="43.206138024106622" lon="3.023809958249331">
        <ele>2.54</ele>
        <time>2025-05-16T09:24:43Z</time>
      </trkpt>
      <trkpt lat="43.207872994244099" lon="3.025877019390464">
        <ele>0.62</ele>
        <time>2025-05-16T09:24:55Z</time>
      </trkpt>
      <trkpt lat="43.20890799164772" lon="3.027108991518617">
        <ele>-0.82</ele>
        <time>2025-05-16T09:25:03Z</time>
      </trkpt>
      <trkpt lat="43.209055010229349" lon="3.027284005656838">
        <ele>-1.3</ele>
        <time>2025-05-16T09:25:05Z</time>
      </trkpt>
      <trkpt lat="43.209105972200632" lon="3.027344020083547">
        <ele>-1.3</ele>
        <time>2025-05-16T09:25:06Z</time>
      </trkpt>
      <trkpt lat="43.209194988012314" lon="3.027450973168016">
        <ele>-2.27</ele>
        <time>2025-05-16T09:25:13Z</time>
      </trkpt>
      <trkpt lat="43.209194988012314" lon="3.027450973168016">
        <ele>-1.79</ele>
        <time>2025-05-16T09:25:40Z</time>
      </trkpt>
      <trkpt lat="43.209196999669075" lon="3.027581982314587">
        <ele>16.960000000000001</ele>
        <time>2025-05-16T09:30:55Z</time>
      </trkpt>
      <trkpt lat="43.20916598662734" lon="3.027522973716259">
        <ele>5.91</ele>
        <time>2025-05-16T09:31:32Z</time>
      </trkpt>
      <trkpt lat="43.209238993003964" lon="3.027504030615091">
        <ele>6.87</ele>
        <time>2025-05-16T09:31:39Z</time>
      </trkpt>
      <trkpt lat="43.209284003823996" lon="3.027555998414755">
        <ele>6.39</ele>
        <time>2025-05-16T09:31:40Z</time>
      </trkpt>
      <trkpt lat="43.209346029907465" lon="3.02763101644814">
        <ele>5.91</ele>
        <time>2025-05-16T09:31:41Z</time>
      </trkpt>
      <trkpt lat="43.209433034062386" lon="3.027735035866499">
        <ele>6.39</ele>
        <time>2025-05-16T09:31:42Z</time>
      </trkpt>
      <trkpt lat="43.209534035995603" lon="3.027854980900884">
        <ele>5.91</ele>
        <time>2025-05-16T09:31:43Z</time>
      </trkpt>
      <trkpt lat="43.210344985127449" lon="3.028843961656094">
        <ele>3.5</ele>
        <time>2025-05-16T09:31:49Z</time>
      </trkpt>
      <trkpt lat="43.211704026907682" lon="3.030454041436315">
        <ele>2.54</ele>
        <time>2025-05-16T09:31:57Z</time>
      </trkpt>
      <trkpt lat="43.213391974568367" lon="3.032463015988469">
        <ele>2.06</ele>
        <time>2025-05-16T09:32:07Z</time>
      </trkpt>
      <trkpt lat="43.215704960748553" lon="3.035226026549935">
        <ele>-0.34</ele>
        <time>2025-05-16T09:32:22Z</time>
      </trkpt>
      <trkpt lat="43.21782398968935" lon="3.037773035466671">
        <ele>-1.79</ele>
        <time>2025-05-16T09:32:36Z</time>
      </trkpt>
      <trkpt lat="43.219933966174722" lon="3.04030797444284">
        <ele>-0.82</ele>
        <time>2025-05-16T09:32:50Z</time>
      </trkpt>
      <trkpt lat="43.221619985997677" lon="3.042292976751924">
        <ele>0.62</ele>
        <time>2025-05-16T09:33:01Z</time>
      </trkpt>
      <trkpt lat="43.22313099168241" lon="3.04411101154983">
        <ele>0.14</ele>
        <time>2025-05-16T09:33:11Z</time>
      </trkpt>
      <trkpt lat="43.224814999848604" lon="3.046100037172437">
        <ele>3.02</ele>
        <time>2025-05-16T09:33:22Z</time>
      </trkpt>
      <trkpt lat="43.226501019671559" lon="3.048114040866494">
        <ele>5.91</ele>
        <time>2025-05-16T09:33:33Z</time>
      </trkpt>
      <trkpt lat="43.227379024028778" lon="3.049140991643071">
        <ele>5.42</ele>
        <time>2025-05-16T09:33:40Z</time>
      </trkpt>
      <trkpt lat="43.228067010641098" lon="3.049967028200626">
        <ele>4.46</ele>
        <time>2025-05-16T09:33:48Z</time>
      </trkpt>
      <trkpt lat="43.228907966986299" lon="3.051001019775868">
        <ele>3.02</ele>
        <time>2025-05-16T09:33:59Z</time>
      </trkpt>
      <trkpt lat="43.229387998580933" lon="3.051562020555139">
        <ele>3.02</ele>
        <time>2025-05-16T09:34:07Z</time>
      </trkpt>
      <trkpt lat="43.230057964101434" lon="3.052351009100676">
        <ele>2.06</ele>
        <time>2025-05-16T09:34:19Z</time>
      </trkpt>
      <trkpt lat="43.230378990992904" lon="3.052729032933712">
        <ele>1.1</ele>
        <time>2025-05-16T09:34:25Z</time>
      </trkpt>
      <trkpt lat="43.230637991800904" lon="3.053032038733363">
        <ele>0.14</ele>
        <time>2025-05-16T09:34:30Z</time>
      </trkpt>
      <trkpt lat="43.230859022587538" lon="3.053290033712983">
        <ele>-4.19</ele>
        <time>2025-05-16T09:34:38Z</time>
      </trkpt>
      <trkpt lat="43.231112994253635" lon="3.053623968735337">
        <ele>-7.07</ele>
        <time>2025-05-16T09:34:45Z</time>
      </trkpt>
      <trkpt lat="43.231254983693361" lon="3.053789008408785">
        <ele>-8.029999999999999</ele>
        <time>2025-05-16T09:34:49Z</time>
      </trkpt>
      <trkpt lat="43.231291025876999" lon="3.053831001743674">
        <ele>-8.51</ele>
        <time>2025-05-16T09:34:50Z</time>
      </trkpt>
      <trkpt lat="43.231544997543097" lon="3.054135013371706">
        <ele>-9.48</ele>
        <time>2025-05-16T09:34:57Z</time>
      </trkpt>
      <trkpt lat="43.231580033898354" lon="3.054168960079551">
        <ele>-9.48</ele>
        <time>2025-05-16T09:34:58Z</time>
      </trkpt>
      <trkpt lat="43.23193802498281" lon="3.054602975025773">
        <ele>-8.51</ele>
        <time>2025-05-16T09:35:06Z</time>
      </trkpt>
      <trkpt lat="43.232575971633196" lon="3.055366985499859">
        <ele>-10.44</ele>
        <time>2025-05-16T09:35:18Z</time>
      </trkpt>
      <trkpt lat="43.232717961072922" lon="3.055534958839417">
        <ele>-9.48</ele>
        <time>2025-05-16T09:35:25Z</time>
      </trkpt>
      <trkpt lat="43.233274016529322" lon="3.056207019835711">
        <ele>-9</ele>
        <time>2025-05-16T09:35:37Z</time>
      </trkpt>
      <trkpt lat="43.233385998755693" lon="3.056331994011998">
        <ele>-8.029999999999999</ele>
        <time>2025-05-16T09:35:39Z</time>
      </trkpt>
      <trkpt lat="43.233493035659194" lon="3.056487981230021">
        <ele>-7.55</ele>
        <time>2025-05-16T09:35:41Z</time>
      </trkpt>
      <trkpt lat="43.233738038688898" lon="3.056800039485097">
        <ele>-6.59</ele>
        <time>2025-05-16T09:35:45Z</time>
      </trkpt>
      <trkpt lat="43.23380802758038" lon="3.056869022548199">
        <ele>-5.63</ele>
        <time>2025-05-16T09:35:46Z</time>
      </trkpt>
      <trkpt lat="43.233874998986721" lon="3.05693699978292">
        <ele>-5.15</ele>
        <time>2025-05-16T09:35:47Z</time>
      </trkpt>
      <trkpt lat="43.234083959832788" lon="3.057132968679071">
        <ele>-4.19</ele>
        <time>2025-05-16T09:35:50Z</time>
      </trkpt>
      <trkpt lat="43.234674967825413" lon="3.05745298974216">
        <ele>1.1</ele>
        <time>2025-05-16T09:35:58Z</time>
      </trkpt>
      <trkpt lat="43.234763983637094" lon="3.057481991127133">
        <ele>1.58</ele>
        <time>2025-05-16T09:35:59Z</time>
      </trkpt>
      <trkpt lat="43.234849981963634" lon="3.057467993348837">
        <ele>2.54</ele>
        <time>2025-05-16T09:36:00Z</time>
      </trkpt>
      <trkpt lat="43.234954001381993" lon="3.057441003620625">
        <ele>3.02</ele>
        <time>2025-05-16T09:36:01Z</time>
      </trkpt>
      <trkpt lat="43.235052991658449" lon="3.057406973093748">
        <ele>3.98</ele>
        <time>2025-05-16T09:36:02Z</time>
      </trkpt>
      <trkpt lat="43.235149970278144" lon="3.057375038042665">
        <ele>4.46</ele>
        <time>2025-05-16T09:36:03Z</time>
      </trkpt>
      <trkpt lat="43.235252983868122" lon="3.057338995859027">
        <ele>4.94</ele>
        <time>2025-05-16T09:36:04Z</time>
      </trkpt>
      <trkpt lat="43.235824964940548" lon="3.05713003501296">
        <ele>5.42</ele>
        <time>2025-05-16T09:36:11Z</time>
      </trkpt>
      <trkpt lat="43.235890008509159" lon="3.057105978950858">
        <ele>5.42</ele>
        <time>2025-05-16T09:36:21Z</time>
      </trkpt>
      <trkpt lat="43.236109027639031" lon="3.057031966745853">
        <ele>5.42</ele>
        <time>2025-05-16T09:36:30Z</time>
      </trkpt>
      <trkpt lat="43.236155966296792" lon="3.057031966745853">
        <ele>5.42</ele>
        <time>2025-05-16T09:36:31Z</time>
      </trkpt>
      <trkpt lat="43.236226039007306" lon="3.057050993666053">
        <ele>5.42</ele>
        <time>2025-05-16T09:36:32Z</time>
      </trkpt>
      <trkpt lat="43.236277000978589" lon="3.057091981172562">
        <ele>5.42</ele>
        <time>2025-05-16T09:36:33Z</time>
      </trkpt>
      <trkpt lat="43.236336009576917" lon="3.057154007256031">
        <ele>4.94</ele>
        <time>2025-05-16T09:36:34Z</time>
      </trkpt>
      <trkpt lat="43.23638797737658" lon="3.057222990319133">
        <ele>4.94</ele>
        <time>2025-05-16T09:36:35Z</time>
      </trkpt>
      <trkpt lat="43.236442962661386" lon="3.057297002524138">
        <ele>4.46</ele>
        <time>2025-05-16T09:36:36Z</time>
      </trkpt>
      <trkpt lat="43.237306969240308" lon="3.058165032416582">
        <ele>2.06</ele>
        <time>2025-05-16T09:36:49Z</time>
      </trkpt>
      <trkpt lat="43.238235013559461" lon="3.058904986828566">
        <ele>1.58</ele>
        <time>2025-05-16T09:36:59Z</time>
      </trkpt>
      <trkpt lat="43.238864997401834" lon="3.059286028146744">
        <ele>3.5</ele>
        <time>2025-05-16T09:37:05Z</time>
      </trkpt>
      <trkpt lat="43.238998018205166" lon="3.059336990118027">
        <ele>3.02</ele>
        <time>2025-05-16T09:37:06Z</time>
      </trkpt>
      <trkpt lat="43.240430988371372" lon="3.059828002005816">
        <ele>2.06</ele>
        <time>2025-05-16T09:37:15Z</time>
      </trkpt>
      <trkpt lat="43.241102965548635" lon="3.0602259747684">
        <ele>1.58</ele>
        <time>2025-05-16T09:37:19Z</time>
      </trkpt>
      <trkpt lat="43.24126398190856" lon="3.060361007228494">
        <ele>2.06</ele>
        <time>2025-05-16T09:37:20Z</time>
      </trkpt>
      <trkpt lat="43.241403037682176" lon="3.060535015538335">
        <ele>2.06</ele>
        <time>2025-05-16T09:37:21Z</time>
      </trkpt>
      <trkpt lat="43.241539997979999" lon="3.060721009969711">
        <ele>1.58</ele>
        <time>2025-05-16T09:37:22Z</time>
      </trkpt>
      <trkpt lat="43.241664972156286" lon="3.060924019664526">
        <ele>1.58</ele>
        <time>2025-05-16T09:37:23Z</time>
      </trkpt>
      <trkpt lat="43.243027031421661" lon="3.062838027253747">
        <ele>0.62</ele>
        <time>2025-05-16T09:37:33Z</time>
      </trkpt>
      <trkpt lat="43.244562009349465" lon="3.064117021858692">
        <ele>0.62</ele>
        <time>2025-05-16T09:37:42Z</time>
      </trkpt>
      <trkpt lat="43.24614099226892" lon="3.065411020070314">
        <ele>-0.82</ele>
        <time>2025-05-16T09:37:50Z</time>
      </trkpt>
      <trkpt lat="43.247248996049166" lon="3.066322971135378">
        <ele>-0.82</ele>
        <time>2025-05-16T09:37:56Z</time>
      </trkpt>
      <trkpt lat="43.249324019998312" lon="3.068030029535294">
        <ele>0.62</ele>
        <time>2025-05-16T09:38:08Z</time>
      </trkpt>
      <trkpt lat="43.251414969563484" lon="3.069749996066093">
        <ele>-0.34</ele>
        <time>2025-05-16T09:38:20Z</time>
      </trkpt>
      <trkpt lat="43.253486976027489" lon="3.071448002010584">
        <ele>1.1</ele>
        <time>2025-05-16T09:38:32Z</time>
      </trkpt>
      <trkpt lat="43.255747994408011" lon="3.073290009051561">
        <ele>1.58</ele>
        <time>2025-05-16T09:38:45Z</time>
      </trkpt>
      <trkpt lat="43.258003983646631" lon="3.075127992779017">
        <ele>1.58</ele>
        <time>2025-05-16T09:38:58Z</time>
      </trkpt>
      <trkpt lat="43.259734008461237" lon="3.076556017622352">
        <ele>1.1</ele>
        <time>2025-05-16T09:39:08Z</time>
      </trkpt>
      <trkpt lat="43.26169503852725" lon="3.077983036637306">
        <ele>-0.82</ele>
        <time>2025-05-16T09:39:19Z</time>
      </trkpt>
      <trkpt lat="43.264792989939451" lon="3.080038027837873">
        <ele>-0.82</ele>
        <time>2025-05-16T09:39:36Z</time>
      </trkpt>
      <trkpt lat="43.266087993979454" lon="3.0808499827981">
        <ele>0.14</ele>
        <time>2025-05-16T09:39:44Z</time>
      </trkpt>
      <trkpt lat="43.26704797334969" lon="3.081059027463198">
        <ele>0.62</ele>
        <time>2025-05-16T09:39:50Z</time>
      </trkpt>
      <trkpt lat="43.268363010138273" lon="3.080718973651528">
        <ele>4.94</ele>
        <time>2025-05-16T09:39:59Z</time>
      </trkpt>
      <trkpt lat="43.269997984170914" lon="3.080170964822173">
        <ele>11.19</ele>
        <time>2025-05-16T09:40:09Z</time>
      </trkpt>
      <trkpt lat="43.270146008580923" lon="3.080067029222846">
        <ele>12.15</ele>
        <time>2025-05-16T09:40:10Z</time>
      </trkpt>
      <trkpt lat="43.270286992192268" lon="3.079943982884288">
        <ele>13.119999999999999</ele>
        <time>2025-05-16T09:40:11Z</time>
      </trkpt>
      <trkpt lat="43.27039604075253" lon="3.079783972352743">
        <ele>14.08</ele>
        <time>2025-05-16T09:40:12Z</time>
      </trkpt>
      <trkpt lat="43.27050500549376" lon="3.079622033983469">
        <ele>14.56</ele>
        <time>2025-05-16T09:40:13Z</time>
      </trkpt>
      <trkpt lat="43.270617993548512" lon="3.07945498265326">
        <ele>15.52</ele>
        <time>2025-05-16T09:40:14Z</time>
      </trkpt>
      <trkpt lat="43.270726036280394" lon="3.079265970736742">
        <ele>16</ele>
        <time>2025-05-16T09:40:15Z</time>
      </trkpt>
      <trkpt lat="43.271275972947478" lon="3.07829400524497">
        <ele>18.399999999999999</ele>
        <time>2025-05-16T09:40:20Z</time>
      </trkpt>
      <trkpt lat="43.27140798792243" lon="3.078108010813594">
        <ele>19.359999999999999</ele>
        <time>2025-05-16T09:40:21Z</time>
      </trkpt>
      <trkpt lat="43.271562969312072" lon="3.077954035252333">
        <ele>19.84</ele>
        <time>2025-05-16T09:40:22Z</time>
      </trkpt>
      <trkpt lat="43.271737983450294" lon="3.077833000570536">
        <ele>20.809999999999999</ele>
        <time>2025-05-16T09:40:23Z</time>
      </trkpt>
      <trkpt lat="43.271918026730418" lon="3.077726969495416">
        <ele>21.289999999999999</ele>
        <time>2025-05-16T09:40:24Z</time>
      </trkpt>
      <trkpt lat="43.272112989798188" lon="3.077664021402597">
        <ele>22.25</ele>
        <time>2025-05-16T09:40:25Z</time>
      </trkpt>
      <trkpt lat="43.272297978401184" lon="3.077623033896089">
        <ele>22.73</ele>
        <time>2025-05-16T09:40:26Z</time>
      </trkpt>
      <trkpt lat="43.272477015852928" lon="3.077609958127141">
        <ele>23.210000000000001</ele>
        <time>2025-05-16T09:40:27Z</time>
      </trkpt>
      <trkpt lat="43.272658986970782" lon="3.077609958127141">
        <ele>23.690000000000001</ele>
        <time>2025-05-16T09:40:28Z</time>
      </trkpt>
      <trkpt lat="43.272853028029203" lon="3.077663015574217">
        <ele>24.170000000000002</ele>
        <time>2025-05-16T09:40:29Z</time>
      </trkpt>
      <trkpt lat="43.273047991096973" lon="3.077730992808938">
        <ele>24.170000000000002</ele>
        <time>2025-05-16T09:40:30Z</time>
      </trkpt>
      <trkpt lat="43.273238008841872" lon="3.077838029712439">
        <ele>24.649999999999999</ele>
        <time>2025-05-16T09:40:31Z</time>
      </trkpt>
      <trkpt lat="43.273421991616488" lon="3.077970966696739">
        <ele>24.649999999999999</ele>
        <time>2025-05-16T09:40:32Z</time>
      </trkpt>
      <trkpt lat="43.273603040724993" lon="3.078119996935129">
        <ele>24.170000000000002</ele>
        <time>2025-05-16T09:40:33Z</time>
      </trkpt>
      <trkpt lat="43.274991000071168" lon="3.079422041773796">
        <ele>19.359999999999999</ele>
        <time>2025-05-16T09:40:42Z</time>
      </trkpt>
      <trkpt lat="43.276044018566608" lon="3.080846965312958">
        <ele>20.32</ele>
        <time>2025-05-16T09:40:50Z</time>
      </trkpt>
      <trkpt lat="43.276140997186303" lon="3.081069001927972">
        <ele>20.809999999999999</ele>
        <time>2025-05-16T09:40:51Z</time>
      </trkpt>
      <trkpt lat="43.27624099329114" lon="3.08130000717938">
        <ele>21.289999999999999</ele>
        <time>2025-05-16T09:40:52Z</time>
      </trkpt>
      <trkpt lat="43.276526983827353" lon="3.083089962601662">
        <ele>26.57</ele>
        <time>2025-05-16T09:40:59Z</time>
      </trkpt>
      <trkpt lat="43.276447020471096" lon="3.085401020944119">
        <ele>32.82</ele>
        <time>2025-05-16T09:41:07Z</time>
      </trkpt>
      <trkpt lat="43.276446014642715" lon="3.086248012259603">
        <ele>34.740000000000002</ele>
        <time>2025-05-16T09:41:10Z</time>
      </trkpt>
      <trkpt lat="43.27645598910749" lon="3.086536014452577">
        <ele>34.740000000000002</ele>
        <time>2025-05-16T09:41:11Z</time>
      </trkpt>
      <trkpt lat="43.276812974363565" lon="3.089848039671779">
        <ele>36.189999999999998</ele>
        <time>2025-05-16T09:41:23Z</time>
      </trkpt>
      <trkpt lat="43.27738001011312" lon="3.093533981591463">
        <ele>35.710000000000001</ele>
        <time>2025-05-16T09:41:36Z</time>
      </trkpt>
      <trkpt lat="43.278272012248635" lon="3.095486965030432">
        <ele>33.299999999999997</ele>
        <time>2025-05-16T09:41:44Z</time>
      </trkpt>
      <trkpt lat="43.27969903126359" lon="3.098315019160509">
        <ele>27.530000000000001</ele>
        <time>2025-05-16T09:41:55Z</time>
      </trkpt>
      <trkpt lat="43.280526995658875" lon="3.099964996799827">
        <ele>25.129999999999999</ele>
        <time>2025-05-16T09:42:01Z</time>
      </trkpt>
      <trkpt lat="43.282017968595028" lon="3.102788021788001">
        <ele>20.809999999999999</ele>
        <time>2025-05-16T09:42:13Z</time>
      </trkpt>
      <trkpt lat="43.283191015943885" lon="3.103951010853052">
        <ele>17.920000000000002</ele>
        <time>2025-05-16T09:42:20Z</time>
      </trkpt>
      <trkpt lat="43.284749966114759" lon="3.105484982952476">
        <ele>15.039999999999999</ele>
        <time>2025-05-16T09:42:30Z</time>
      </trkpt>
      <trkpt lat="43.286105990409851" lon="3.107746001332998">
        <ele>13.119999999999999</ele>
        <time>2025-05-16T09:42:41Z</time>
      </trkpt>
      <trkpt lat="43.286937978118658" lon="3.109590020030737">
        <ele>13.119999999999999</ele>
        <time>2025-05-16T09:42:48Z</time>
      </trkpt>
      <trkpt lat="43.287853030487895" lon="3.111655991524458">
        <ele>12.630000000000001</ele>
        <time>2025-05-16T09:42:54Z</time>
      </trkpt>
      <trkpt lat="43.288707984611392" lon="3.113559018820524">
        <ele>13.119999999999999</ele>
        <time>2025-05-16T09:43:00Z</time>
      </trkpt>
      <trkpt lat="43.289437964558601" lon="3.115182006731629">
        <ele>14.08</ele>
        <time>2025-05-16T09:43:07Z</time>
      </trkpt>
      <trkpt lat="43.290405990555882" lon="3.117328025400639">
        <ele>16</ele>
        <time>2025-05-16T09:43:18Z</time>
      </trkpt>
      <trkpt lat="43.291065981611609" lon="3.118811035528779">
        <ele>15.52</ele>
        <time>2025-05-16T09:43:28Z</time>
      </trkpt>
      <trkpt lat="43.291025999933481" lon="3.119109012186527">
        <ele>16</ele>
        <time>2025-05-16T09:43:29Z</time>
      </trkpt>
      <trkpt lat="43.291030023247004" lon="3.119144970551133">
        <ele>16</ele>
        <time>2025-05-16T09:43:30Z</time>
      </trkpt>
      <trkpt lat="43.291064975783229" lon="3.119301041588187">
        <ele>15.52</ele>
        <time>2025-05-16T09:43:31Z</time>
      </trkpt>
      <trkpt lat="43.291140999644995" lon="3.119389973580837">
        <ele>15.039999999999999</ele>
        <time>2025-05-16T09:43:32Z</time>
      </trkpt>
      <trkpt lat="43.291176036000252" lon="3.119430961087346">
        <ele>14.56</ele>
        <time>2025-05-16T09:43:33Z</time>
      </trkpt>
      <trkpt lat="43.291375022381544" lon="3.119492987170816">
        <ele>14.08</ele>
        <time>2025-05-16T09:43:34Z</time>
      </trkpt>
      <trkpt lat="43.291432019323111" lon="3.119615027680993">
        <ele>13.6</ele>
        <time>2025-05-16T09:43:35Z</time>
      </trkpt>
      <trkpt lat="43.291494967415929" lon="3.119746036827564">
        <ele>13.119999999999999</ele>
        <time>2025-05-16T09:43:36Z</time>
      </trkpt>
      <trkpt lat="43.29156001098454" lon="3.119876962155104">
        <ele>13.119999999999999</ele>
        <time>2025-05-16T09:43:37Z</time>
      </trkpt>
      <trkpt lat="43.291736030951142" lon="3.120280969887972">
        <ele>13.6</ele>
        <time>2025-05-16T09:43:40Z</time>
      </trkpt>
      <trkpt lat="43.292192006483674" lon="3.121802033856511">
        <ele>19.84</ele>
        <time>2025-05-16T09:43:50Z</time>
      </trkpt>
      <trkpt lat="43.29272098839283" lon="3.124098004773259">
        <ele>27.530000000000001</ele>
        <time>2025-05-16T09:44:02Z</time>
      </trkpt>
      <trkpt lat="43.293332029134035" lon="3.126559015363455">
        <ele>34.740000000000002</ele>
        <time>2025-05-16T09:44:15Z</time>
      </trkpt>
      <trkpt lat="43.293765960261226" lon="3.128484003245831">
        <ele>39.07</ele>
        <time>2025-05-16T09:44:25Z</time>
      </trkpt>
      <trkpt lat="43.294564001262188" lon="3.131846990436316">
        <ele>50.130000000000003</ele>
        <time>2025-05-16T09:44:42Z</time>
      </trkpt>
      <trkpt lat="43.295061970129609" lon="3.13400499522686">
        <ele>54.93</ele>
        <time>2025-05-16T09:44:51Z</time>
      </trkpt>
      <trkpt lat="43.29527503810823" lon="3.136099968105555">
        <ele>56.859999999999999</ele>
        <time>2025-05-16T09:44:59Z</time>
      </trkpt>
      <trkpt lat="43.295035986229777" lon="3.138404991477728">
        <ele>59.259999999999998</ele>
        <time>2025-05-16T09:45:07Z</time>
      </trkpt>
      <trkpt lat="43.295091977342963" lon="3.140502981841564">
        <ele>60.700000000000003</ele>
        <time>2025-05-16T09:45:14Z</time>
      </trkpt>
      <trkpt lat="43.295682985335588" lon="3.14275000244379">
        <ele>61.659999999999997</ele>
        <time>2025-05-16T09:45:22Z</time>
      </trkpt>
      <trkpt lat="43.297100029885769" lon="3.147565992549062">
        <ele>63.100000000000001</ele>
        <time>2025-05-16T09:45:39Z</time>
      </trkpt>
      <trkpt lat="43.298137960955501" lon="3.150274017825723">
        <ele>63.100000000000001</ele>
        <time>2025-05-16T09:45:49Z</time>
      </trkpt>
      <trkpt lat="43.299646032974124" lon="3.15254501067102">
        <ele>64.549999999999997</ele>
        <time>2025-05-16T09:45:59Z</time>
      </trkpt>
      <trkpt lat="43.301748968660831" lon="3.154836036264896">
        <ele>65.030000000000001</ele>
        <time>2025-05-16T09:46:11Z</time>
      </trkpt>
      <trkpt lat="43.303554011508822" lon="3.157564010471106">
        <ele>63.100000000000001</ele>
        <time>2025-05-16T09:46:23Z</time>
      </trkpt>
      <trkpt lat="43.304756982252002" lon="3.160268012434244">
        <ele>62.140000000000001</ele>
        <time>2025-05-16T09:46:34Z</time>
      </trkpt>
      <trkpt lat="43.3060850109905" lon="3.163236966356635">
        <ele>60.700000000000003</ele>
        <time>2025-05-16T09:46:47Z</time>
      </trkpt>
      <trkpt lat="43.306840974837542" lon="3.164918962866068">
        <ele>62.619999999999997</ele>
        <time>2025-05-16T09:46:56Z</time>
      </trkpt>
      <trkpt lat="43.307501971721649" lon="3.16638101823628">
        <ele>63.579999999999998</ele>
        <time>2025-05-16T09:47:06Z</time>
      </trkpt>
      <trkpt lat="43.307784022763371" lon="3.167002033442259">
        <ele>64.549999999999997</ele>
        <time>2025-05-16T09:47:15Z</time>
      </trkpt>
      <trkpt lat="43.307956019416451" lon="3.167437976226211">
        <ele>64.549999999999997</ele>
        <time>2025-05-16T09:47:27Z</time>
      </trkpt>
      <trkpt lat="43.307983009144664" lon="3.167507965117693">
        <ele>64.069999999999993</ele>
        <time>2025-05-16T09:47:28Z</time>
      </trkpt>
      <trkpt lat="43.30801997333765" lon="3.167613996192813">
        <ele>64.069999999999993</ele>
        <time>2025-05-16T09:47:29Z</time>
      </trkpt>
      <trkpt lat="43.308021984994411" lon="3.16784399561584">
        <ele>64.069999999999993</ele>
        <time>2025-05-16T09:47:31Z</time>
      </trkpt>
      <trkpt lat="43.308058027178049" lon="3.16795296035707">
        <ele>64.069999999999993</ele>
        <time>2025-05-16T09:47:32Z</time>
      </trkpt>
      <trkpt lat="43.308122986927629" lon="3.168001994490624">
        <ele>64.069999999999993</ele>
        <time>2025-05-16T09:47:33Z</time>
      </trkpt>
      <trkpt lat="43.308202028274536" lon="3.168047005310655">
        <ele>64.069999999999993</ele>
        <time>2025-05-16T09:47:34Z</time>
      </trkpt>
      <trkpt lat="43.30827503465116" lon="3.168145995587111">
        <ele>63.579999999999998</ele>
        <time>2025-05-16T09:47:35Z</time>
      </trkpt>
      <trkpt lat="43.308336976915598" lon="3.168240040540695">
        <ele>63.579999999999998</ele>
        <time>2025-05-16T09:47:36Z</time>
      </trkpt>
      <trkpt lat="43.308400008827448" lon="3.168343976140022">
        <ele>63.579999999999998</ele>
        <time>2025-05-16T09:47:37Z</time>
      </trkpt>
      <trkpt lat="43.30898598767817" lon="3.169641997665167">
        <ele>63.100000000000001</ele>
        <time>2025-05-16T09:47:46Z</time>
      </trkpt>
      <trkpt lat="43.309746980667114" lon="3.171064993366599">
        <ele>59.259999999999998</ele>
        <time>2025-05-16T09:47:53Z</time>
      </trkpt>
      <trkpt lat="43.311215993016958" lon="3.173404969274998">
        <ele>53.969999999999999</ele>
        <time>2025-05-16T09:48:03Z</time>
      </trkpt>
      <trkpt lat="43.312534969300032" lon="3.1758570112288">
        <ele>54.93</ele>
        <time>2025-05-16T09:48:13Z</time>
      </trkpt>
      <trkpt lat="43.313679015263915" lon="3.178547015413642">
        <ele>57.82</ele>
        <time>2025-05-16T09:48:24Z</time>
      </trkpt>
      <trkpt lat="43.314504968002439" lon="3.179932041093707">
        <ele>59.259999999999998</ele>
        <time>2025-05-16T09:48:32Z</time>
      </trkpt>
      <trkpt lat="43.315865015611053" lon="3.182019973173738">
        <ele>58.780000000000001</ele>
        <time>2025-05-16T09:48:43Z</time>
      </trkpt>
      <trkpt lat="43.317274013534188" lon="3.184079993516207">
        <ele>56.369999999999997</ele>
        <time>2025-05-16T09:48:55Z</time>
      </trkpt>
      <trkpt lat="43.318273974582553" lon="3.184824977070093">
        <ele>57.340000000000003</ele>
        <time>2025-05-16T09:49:02Z</time>
      </trkpt>
      <trkpt lat="43.320073988288641" lon="3.185996012762189">
        <ele>52.530000000000001</ele>
        <time>2025-05-16T09:49:14Z</time>
      </trkpt>
      <trkpt lat="43.321242006495595" lon="3.186723981052637">
        <ele>46.759999999999998</ele>
        <time>2025-05-16T09:49:22Z</time>
      </trkpt>
      <trkpt lat="43.322020014747977" lon="3.187672980129719">
        <ele>40.990000000000002</ele>
        <time>2025-05-16T09:49:29Z</time>
      </trkpt>
      <trkpt lat="43.322640024125576" lon="3.188730021938682">
        <ele>36.670000000000002</ele>
        <time>2025-05-16T09:49:37Z</time>
      </trkpt>
      <trkpt lat="43.322689980268478" lon="3.188905036076903">
        <ele>35.229999999999997</ele>
        <time>2025-05-16T09:49:40Z</time>
      </trkpt>
      <trkpt lat="43.322710013017058" lon="3.188983993604779">
        <ele>35.229999999999997</ele>
        <time>2025-05-16T09:49:41Z</time>
      </trkpt>
      <trkpt lat="43.322740020230412" lon="3.189104022458196">
        <ele>34.740000000000002</ele>
        <time>2025-05-16T09:49:42Z</time>
      </trkpt>
      <trkpt lat="43.322733985260129" lon="3.189164036884904">
        <ele>34.740000000000002</ele>
        <time>2025-05-16T09:49:43Z</time>
      </trkpt>
      <trkpt lat="43.322725016623735" lon="3.189254980534315">
        <ele>34.259999999999998</ele>
        <time>2025-05-16T09:49:44Z</time>
      </trkpt>
      <trkpt lat="43.322726022452116" lon="3.189341984689236">
        <ele>33.780000000000001</ele>
        <time>2025-05-16T09:49:45Z</time>
      </trkpt>
      <trkpt lat="43.322747983038425" lon="3.189420020207763">
        <ele>33.780000000000001</ele>
        <time>2025-05-16T09:49:46Z</time>
      </trkpt>
      <trkpt lat="43.322785031050444" lon="3.1894819624722">
        <ele>33.780000000000001</ele>
        <time>2025-05-16T09:49:47Z</time>
      </trkpt>
      <trkpt lat="43.32284202799201" lon="3.189512975513935">
        <ele>33.299999999999997</ele>
        <time>2025-05-16T09:49:48Z</time>
      </trkpt>
      <trkpt lat="43.322899024933577" lon="3.18954499438405">
        <ele>33.299999999999997</ele>
        <time>2025-05-16T09:49:49Z</time>
      </trkpt>
      <trkpt lat="43.322964990511537" lon="3.189568966627121">
        <ele>33.299999999999997</ele>
        <time>2025-05-16T09:49:50Z</time>
      </trkpt>
      <trkpt lat="43.323026010766625" lon="3.18952496163547">
        <ele>33.299999999999997</ele>
        <time>2025-05-16T09:49:51Z</time>
      </trkpt>
      <trkpt lat="43.323093988001347" lon="3.189476011320949">
        <ele>33.299999999999997</ele>
        <time>2025-05-16T09:49:52Z</time>
      </trkpt>
      <trkpt lat="43.323181997984648" lon="3.189467964693904">
        <ele>33.299999999999997</ele>
        <time>2025-05-16T09:49:53Z</time>
      </trkpt>
      <trkpt lat="43.323282999917865" lon="3.189467964693904">
        <ele>32.82</ele>
        <time>2025-05-16T09:49:54Z</time>
      </trkpt>
      <trkpt lat="43.323405040428042" lon="3.189467964693904">
        <ele>32.340000000000003</ele>
        <time>2025-05-16T09:49:55Z</time>
      </trkpt>
      <trkpt lat="43.323534037917852" lon="3.189524039626122">
        <ele>32.340000000000003</ele>
        <time>2025-05-16T09:49:56Z</time>
      </trkpt>
      <trkpt lat="43.323678961023688" lon="3.189597968012095">
        <ele>31.859999999999999</ele>
        <time>2025-05-16T09:49:57Z</time>
      </trkpt>
      <trkpt lat="43.323832014575601" lon="3.189677009359002">
        <ele>31.859999999999999</ele>
        <time>2025-05-16T09:49:58Z</time>
      </trkpt>
      <trkpt lat="43.325167000293732" lon="3.190670013427734">
        <ele>30.420000000000002</ele>
        <time>2025-05-16T09:50:06Z</time>
      </trkpt>
      <trkpt lat="43.327197013422847" lon="3.19227397441864">
        <ele>34.259999999999998</ele>
        <time>2025-05-16T09:50:17Z</time>
      </trkpt>
      <trkpt lat="43.328597964718938" lon="3.193265972658992">
        <ele>37.630000000000003</ele>
        <time>2025-05-16T09:50:25Z</time>
      </trkpt>
      <trkpt lat="43.330332012847066" lon="3.193839965388179">
        <ele>40.030000000000001</ele>
        <time>2025-05-16T09:50:35Z</time>
      </trkpt>
      <trkpt lat="43.332096990197897" lon="3.194479001685977">
        <ele>35.229999999999997</ele>
        <time>2025-05-16T09:50:45Z</time>
      </trkpt>
      <trkpt lat="43.333169035613537" lon="3.195497989654541">
        <ele>28.02</ele>
        <time>2025-05-16T09:50:52Z</time>
      </trkpt>
      <trkpt lat="43.334434032440186" lon="3.197447033599019">
        <ele>16.960000000000001</ele>
        <time>2025-05-16T09:51:03Z</time>
      </trkpt>
      <trkpt lat="43.334717005491257" lon="3.198032006621361">
        <ele>14.56</ele>
        <time>2025-05-16T09:51:07Z</time>
      </trkpt>
      <trkpt lat="43.334762016311288" lon="3.198162009939551">
        <ele>14.08</ele>
        <time>2025-05-16T09:51:08Z</time>
      </trkpt>
      <trkpt lat="43.334803003817797" lon="3.198282038792968">
        <ele>13.6</ele>
        <time>2025-05-16T09:51:09Z</time>
      </trkpt>
      <trkpt lat="43.334838962182403" lon="3.19841799326241">
        <ele>13.6</ele>
        <time>2025-05-16T09:51:10Z</time>
      </trkpt>
      <trkpt lat="43.334821024909616" lon="3.19856601767242">
        <ele>13.6</ele>
        <time>2025-05-16T09:51:11Z</time>
      </trkpt>
      <trkpt lat="43.334836028516293" lon="3.198656039312482">
        <ele>13.119999999999999</ele>
        <time>2025-05-16T09:51:12Z</time>
      </trkpt>
      <trkpt lat="43.334852959960699" lon="3.198759974911809">
        <ele>13.119999999999999</ele>
        <time>2025-05-16T09:51:13Z</time>
      </trkpt>
      <trkpt lat="43.334936024621129" lon="3.198863994330168">
        <ele>13.119999999999999</ele>
        <time>2025-05-16T09:51:14Z</time>
      </trkpt>
      <trkpt lat="43.335020011290908" lon="3.19891001097858">
        <ele>12.630000000000001</ele>
        <time>2025-05-16T09:51:15Z</time>
      </trkpt>
      <trkpt lat="43.335137022659183" lon="3.198904981836677">
        <ele>12.630000000000001</ele>
        <time>2025-05-16T09:51:16Z</time>
      </trkpt>
      <trkpt lat="43.335185972973704" lon="3.198887966573238">
        <ele>12.15</ele>
        <time>2025-05-16T09:51:17Z</time>
      </trkpt>
      <trkpt lat="43.335317987948656" lon="3.198774978518486">
        <ele>11.67</ele>
        <time>2025-05-16T09:51:18Z</time>
      </trkpt>
      <trkpt lat="43.335393005982041" lon="3.198818983510137">
        <ele>11.67</ele>
        <time>2025-05-16T09:51:19Z</time>
      </trkpt>
      <trkpt lat="43.335460983216763" lon="3.198919985443354">
        <ele>11.19</ele>
        <time>2025-05-16T09:51:20Z</time>
      </trkpt>
      <trkpt lat="43.335526026785374" lon="3.199020987376571">
        <ele>11.19</ele>
        <time>2025-05-16T09:51:21Z</time>
      </trkpt>
      <trkpt lat="43.335568020120263" lon="3.199165994301438">
        <ele>11.19</ele>
        <time>2025-05-16T09:51:22Z</time>
      </trkpt>
      <trkpt lat="43.335592998191714" lon="3.19931703619659">
        <ele>11.19</ele>
        <time>2025-05-16T09:51:23Z</time>
      </trkpt>
      <trkpt lat="43.335610013455153" lon="3.199477968737483">
        <ele>10.710000000000001</ele>
        <time>2025-05-16T09:51:24Z</time>
      </trkpt>
      <trkpt lat="43.335660975426435" lon="3.199805030599237">
        <ele>10.23</ele>
        <time>2025-05-16T09:51:26Z</time>
      </trkpt>
      <trkpt lat="43.33571101538837" lon="3.19996596314013">
        <ele>10.23</ele>
        <time>2025-05-16T09:51:27Z</time>
      </trkpt>
      <trkpt lat="43.335769018158317" lon="3.200126979500055">
        <ele>10.23</ele>
        <time>2025-05-16T09:51:28Z</time>
      </trkpt>
      <trkpt lat="43.33596901036799" lon="3.200577003881335">
        <ele>9.27</ele>
        <time>2025-05-16T09:51:31Z</time>
      </trkpt>
      <trkpt lat="43.336029024794698" lon="3.200717987492681">
        <ele>8.789999999999999</ele>
        <time>2025-05-16T09:51:32Z</time>
      </trkpt>
      <trkpt lat="43.336101025342941" lon="3.200870035216212">
        <ele>8.789999999999999</ele>
        <time>2025-05-16T09:51:33Z</time>
      </trkpt>
      <trkpt lat="43.336365977302194" lon="3.201485015451908">
        <ele>8.789999999999999</ele>
        <time>2025-05-16T09:51:37Z</time>
      </trkpt>
      <trkpt lat="43.336424985900521" lon="3.201628010720015">
        <ele>9.75</ele>
        <time>2025-05-16T09:51:38Z</time>
      </trkpt>
      <trkpt lat="43.337019011378288" lon="3.202888984233141">
        <ele>11.67</ele>
        <time>2025-05-16T09:51:48Z</time>
      </trkpt>
      <trkpt lat="43.337236018851399" lon="3.203347977250814">
        <ele>12.630000000000001</ele>
        <time>2025-05-16T09:51:53Z</time>
      </trkpt>
      <trkpt lat="43.337530978024006" lon="3.203957006335259">
        <ele>13.119999999999999</ele>
        <time>2025-05-16T09:51:59Z</time>
      </trkpt>
      <trkpt lat="43.337597027420998" lon="3.204047027975321">
        <ele>13.6</ele>
        <time>2025-05-16T09:52:00Z</time>
      </trkpt>
      <trkpt lat="43.337660981342196" lon="3.204136965796351">
        <ele>13.6</ele>
        <time>2025-05-16T09:52:01Z</time>
      </trkpt>
      <trkpt lat="43.338109999895096" lon="3.204749012365937">
        <ele>16.48</ele>
        <time>2025-05-16T09:52:10Z</time>
      </trkpt>
      <trkpt lat="43.33820597268641" lon="3.204875998198986">
        <ele>16.960000000000001</ele>
        <time>2025-05-16T09:52:12Z</time>
      </trkpt>
      <trkpt lat="43.338254000991583" lon="3.204939030110836">
        <ele>16.960000000000001</ele>
        <time>2025-05-16T09:52:13Z</time>
      </trkpt>
      <trkpt lat="43.338281996548176" lon="3.204996027052403">
        <ele>17.440000000000001</ele>
        <time>2025-05-16T09:52:14Z</time>
      </trkpt>
      <trkpt lat="43.338317032903433" lon="3.205065010115504">
        <ele>17.440000000000001</ele>
        <time>2025-05-16T09:52:15Z</time>
      </trkpt>
      <trkpt lat="43.338344022631645" lon="3.205137010663748">
        <ele>17.920000000000002</ele>
        <time>2025-05-16T09:52:16Z</time>
      </trkpt>
      <trkpt lat="43.3383550029248" lon="3.205219991505146">
        <ele>18.399999999999999</ele>
        <time>2025-05-16T09:52:17Z</time>
      </trkpt>
      <trkpt lat="43.338361037895083" lon="3.205308001488447">
        <ele>18.399999999999999</ele>
        <time>2025-05-16T09:52:18Z</time>
      </trkpt>
      <trkpt lat="43.338361037895083" lon="3.205401040613651">
        <ele>18.879999999999999</ele>
        <time>2025-05-16T09:52:19Z</time>
      </trkpt>
      <trkpt lat="43.338358020409942" lon="3.205510005354881">
        <ele>19.359999999999999</ele>
        <time>2025-05-16T09:52:20Z</time>
      </trkpt>
      <trkpt lat="43.33833497017622" lon="3.205601032823324">
        <ele>19.359999999999999</ele>
        <time>2025-05-16T09:52:21Z</time>
      </trkpt>
      <trkpt lat="43.338309992104769" lon="3.205692982301116">
        <ele>19.359999999999999</ele>
        <time>2025-05-16T09:52:22Z</time>
      </trkpt>
      <trkpt lat="43.338194992393255" lon="3.206263035535812">
        <ele>20.32</ele>
        <time>2025-05-16T09:52:29Z</time>
      </trkpt>
      <trkpt lat="43.33818300627172" lon="3.206335036084056">
        <ele>20.32</ele>
        <time>2025-05-16T09:52:30Z</time>
      </trkpt>
      <trkpt lat="43.338067000731826" lon="3.206437965855002">
        <ele>19.84</ele>
        <time>2025-05-16T09:52:31Z</time>
      </trkpt>
      <trkpt lat="43.338007992133498" lon="3.206448024138808">
        <ele>19.84</ele>
        <time>2025-05-16T09:52:32Z</time>
      </trkpt>
      <trkpt lat="43.337944038212299" lon="3.206459004431963">
        <ele>19.84</ele>
        <time>2025-05-16T09:52:33Z</time>
      </trkpt>
      <trkpt lat="43.337880000472069" lon="3.206469984725118">
        <ele>19.84</ele>
        <time>2025-05-16T09:52:34Z</time>
      </trkpt>
      <trkpt lat="43.337063016369939" lon="3.206614991649985">
        <ele>19.359999999999999</ele>
        <time>2025-05-16T09:52:47Z</time>
      </trkpt>
      <trkpt lat="43.336863024160266" lon="3.206660002470017">
        <ele>18.399999999999999</ele>
        <time>2025-05-16T09:52:56Z</time>
      </trkpt>
      <trkpt lat="43.337052036076784" lon="3.206763016059995">
        <ele>18.879999999999999</ele>
        <time>2025-05-16T09:52:58Z</time>
      </trkpt>
      <trkpt lat="43.337052036076784" lon="3.206763016059995">
        <ele>18.879999999999999</ele>
        <time>2025-05-16T09:52:59Z</time>
      </trkpt>
      <trkpt lat="43.337067039683461" lon="3.206792017444968">
        <ele>18.879999999999999</ele>
        <time>2025-05-16T09:53:01Z</time>
      </trkpt>
      <trkpt lat="43.337095035240054" lon="3.206849014386535">
        <ele>18.879999999999999</ele>
        <time>2025-05-16T09:53:02Z</time>
      </trkpt>
      <trkpt lat="43.337095035240054" lon="3.206849014386535">
        <ele>18.879999999999999</ele>
        <time>2025-05-16T09:53:03Z</time>
      </trkpt>
      <trkpt lat="43.337143985554576" lon="3.206880027428269">
        <ele>18.879999999999999</ele>
        <time>2025-05-16T09:53:04Z</time>
      </trkpt>
      <trkpt lat="43.337164018303156" lon="3.206892013549805">
        <ele>18.879999999999999</ele>
        <time>2025-05-16T09:53:05Z</time>
      </trkpt>
      <trkpt lat="43.337171981111169" lon="3.206896958872676">
        <ele>18.879999999999999</ele>
        <time>2025-05-16T09:53:06Z</time>
      </trkpt>
      <trkpt lat="43.337171981111169" lon="3.206896958872676">
        <ele>18.879999999999999</ele>
        <time>2025-05-16T09:53:07Z</time>
      </trkpt>
      <trkpt lat="43.337171981111169" lon="3.206896958872676">
        <ele>18.879999999999999</ele>
        <time>2025-05-16T09:53:19Z</time>
      </trkpt>
      <trkpt lat="43.337081959471107" lon="3.206837028264999">
        <ele>17.920000000000002</ele>
        <time>2025-05-16T09:53:35Z</time>
      </trkpt>
      <trkpt lat="43.337081959471107" lon="3.206837028264999">
        <ele>17.920000000000002</ele>
        <time>2025-05-16T09:53:36Z</time>
      </trkpt>
      <trkpt lat="43.337010964751244" lon="3.206626977771521">
        <ele>16.960000000000001</ele>
        <time>2025-05-16T09:53:39Z</time>
      </trkpt>
      <trkpt lat="43.336966959759593" lon="3.206637036055327">
        <ele>16.960000000000001</ele>
        <time>2025-05-16T09:53:40Z</time>
      </trkpt>
      <trkpt lat="43.336789011955261" lon="3.206676011905074">
        <ele>15.52</ele>
        <time>2025-05-16T09:53:43Z</time>
      </trkpt>
      <trkpt lat="43.33672396838665" lon="3.206691015511751">
        <ele>15.039999999999999</ele>
        <time>2025-05-16T09:53:44Z</time>
      </trkpt>
      <trkpt lat="43.336654985323548" lon="3.206707024946809">
        <ele>14.56</ele>
        <time>2025-05-16T09:53:45Z</time>
      </trkpt>
      <trkpt lat="43.336373018100858" lon="3.206777013838291">
        <ele>14.08</ele>
        <time>2025-05-16T09:53:49Z</time>
      </trkpt>
      <trkpt lat="43.336344016715884" lon="3.206784976646304">
        <ele>13.6</ele>
        <time>2025-05-16T09:53:50Z</time>
      </trkpt>
      <trkpt lat="43.336331024765968" lon="3.206842979416251">
        <ele>14.08</ele>
        <time>2025-05-16T09:53:51Z</time>
      </trkpt>
      <trkpt lat="43.33631400950253" lon="3.206923026591539">
        <ele>14.08</ele>
        <time>2025-05-16T09:53:52Z</time>
      </trkpt>
      <trkpt lat="43.336301017552614" lon="3.206978011876345">
        <ele>14.08</ele>
        <time>2025-05-16T09:53:53Z</time>
      </trkpt>
      <trkpt lat="43.336309986189008" lon="3.207058981060982">
        <ele>14.08</ele>
        <time>2025-05-16T09:53:54Z</time>
      </trkpt>
      <trkpt lat="43.336319960653782" lon="3.207154031842947">
        <ele>14.56</ele>
        <time>2025-05-16T09:53:55Z</time>
      </trkpt>
      <trkpt lat="43.336330018937588" lon="3.207250004634261">
        <ele>14.56</ele>
        <time>2025-05-16T09:53:56Z</time>
      </trkpt>
      <trkpt lat="43.336405036970973" lon="3.207706985995174">
        <ele>14.56</ele>
        <time>2025-05-16T09:54:01Z</time>
      </trkpt>
      <trkpt lat="43.336432026699185" lon="3.207783009856939">
        <ele>14.56</ele>
        <time>2025-05-16T09:54:02Z</time>
      </trkpt>
      <trkpt lat="43.336475025862455" lon="3.207835983484983">
        <ele>14.08</ele>
        <time>2025-05-16T09:54:03Z</time>
      </trkpt>
      <trkpt lat="43.336536968126893" lon="3.207835983484983">
        <ele>14.08</ele>
        <time>2025-05-16T09:54:04Z</time>
      </trkpt>
      <trkpt lat="43.336603017523885" lon="3.207802036777139">
        <ele>13.6</ele>
        <time>2025-05-16T09:54:05Z</time>
      </trkpt>
      <trkpt lat="43.336663031950593" lon="3.207755014300346">
        <ele>13.6</ele>
        <time>2025-05-16T09:54:06Z</time>
      </trkpt>
      <trkpt lat="43.336727991700172" lon="3.207703968510032">
        <ele>13.6</ele>
        <time>2025-05-16T09:54:07Z</time>
      </trkpt>
      <trkpt lat="43.337467024102807" lon="3.207136010751128">
        <ele>13.119999999999999</ele>
        <time>2025-05-16T09:54:19Z</time>
      </trkpt>
      <trkpt lat="43.337502982467413" lon="3.207107009366155">
        <ele>12.630000000000001</ele>
        <time>2025-05-16T09:54:20Z</time>
      </trkpt>
      <trkpt lat="43.33756098523736" lon="3.207132993265986">
        <ele>12.630000000000001</ele>
        <time>2025-05-16T09:54:21Z</time>
      </trkpt>
      <trkpt lat="43.337616976350546" lon="3.207157971337438">
        <ele>12.630000000000001</ele>
        <time>2025-05-16T09:54:22Z</time>
      </trkpt>
      <trkpt lat="43.337680008262396" lon="3.207186972722411">
        <ele>12.630000000000001</ele>
        <time>2025-05-16T09:54:23Z</time>
      </trkpt>
      <trkpt lat="43.337741028517485" lon="3.207215974107385">
        <ele>12.15</ele>
        <time>2025-05-16T09:54:24Z</time>
      </trkpt>
      <trkpt lat="43.337800959125161" lon="3.207260984927416">
        <ele>12.15</ele>
        <time>2025-05-16T09:54:25Z</time>
      </trkpt>
      <trkpt lat="43.337915036827326" lon="3.207380007952452">
        <ele>12.15</ele>
        <time>2025-05-16T09:54:27Z</time>
      </trkpt>
      <trkpt lat="43.337969016283751" lon="3.20744002237916">
        <ele>11.67</ele>
        <time>2025-05-16T09:54:28Z</time>
      </trkpt>
      <trkpt lat="43.338015032932162" lon="3.207527026534081">
        <ele>11.67</ele>
        <time>2025-05-16T09:54:29Z</time>
      </trkpt>
      <trkpt lat="43.338051997125149" lon="3.207624005153775">
        <ele>12.15</ele>
        <time>2025-05-16T09:54:30Z</time>
      </trkpt>
      <trkpt lat="43.338088961318135" lon="3.207722995430231">
        <ele>12.630000000000001</ele>
        <time>2025-05-16T09:54:31Z</time>
      </trkpt>
      <trkpt lat="43.338606040924788" lon="3.209188990294933">
        <ele>17.440000000000001</ele>
        <time>2025-05-16T09:54:46Z</time>
      </trkpt>
      <trkpt lat="43.338952967897058" lon="3.210215019062161">
        <ele>16.48</ele>
        <time>2025-05-16T09:54:55Z</time>
      </trkpt>
      <trkpt lat="43.339080959558487" lon="3.210543002933264">
        <ele>16</ele>
        <time>2025-05-16T09:54:58Z</time>
      </trkpt>
      <trkpt lat="43.339098980650306" lon="3.210661020129919">
        <ele>16</ele>
        <time>2025-05-16T09:54:59Z</time>
      </trkpt>
      <trkpt lat="43.339094035327435" lon="3.210901999846101">
        <ele>15.52</ele>
        <time>2025-05-16T09:55:01Z</time>
      </trkpt>
      <trkpt lat="43.339070985093713" lon="3.211024962365627">
        <ele>15.039999999999999</ele>
        <time>2025-05-16T09:55:02Z</time>
      </trkpt>
      <trkpt lat="43.339045001193881" lon="3.211149014532566">
        <ele>15.039999999999999</ele>
        <time>2025-05-16T09:55:03Z</time>
      </trkpt>
      <trkpt lat="43.338994039222598" lon="3.21126502007246">
        <ele>14.56</ele>
        <time>2025-05-16T09:55:04Z</time>
      </trkpt>
      <trkpt lat="43.338932013139129" lon="3.211365016177297">
        <ele>14.08</ele>
        <time>2025-05-16T09:55:05Z</time>
      </trkpt>
      <trkpt lat="43.338897982612252" lon="3.211420001462102">
        <ele>13.6</ele>
        <time>2025-05-16T09:55:06Z</time>
      </trkpt>
      <trkpt lat="43.338837968185544" lon="3.211538018658757">
        <ele>13.119999999999999</ele>
        <time>2025-05-16T09:55:07Z</time>
      </trkpt>
      <trkpt lat="43.338779965415597" lon="3.211629968136549">
        <ele>12.630000000000001</ele>
        <time>2025-05-16T09:55:08Z</time>
      </trkpt>
      <trkpt lat="43.33871902897954" lon="3.211701968684793">
        <ele>12.15</ele>
        <time>2025-05-16T09:55:09Z</time>
      </trkpt>
      <trkpt lat="43.33844100125134" lon="3.212048979476094">
        <ele>9.75</ele>
        <time>2025-05-16T09:55:14Z</time>
      </trkpt>
      <trkpt lat="43.337954012677073" lon="3.212363971397281">
        <ele>7.35</ele>
        <time>2025-05-16T09:55:20Z</time>
      </trkpt>
      <trkpt lat="43.337912019342184" lon="3.21240303106606">
        <ele>7.35</ele>
        <time>2025-05-16T09:55:21Z</time>
      </trkpt>
      <trkpt lat="43.337842030450702" lon="3.21246799081564">
        <ele>6.87</ele>
        <time>2025-05-16T09:55:22Z</time>
      </trkpt>
      <trkpt lat="43.337770029902458" lon="3.212535968050361">
        <ele>6.87</ele>
        <time>2025-05-16T09:55:23Z</time>
      </trkpt>
      <trkpt lat="43.337699035182595" lon="3.212603023275733">
        <ele>6.39</ele>
        <time>2025-05-16T09:55:24Z</time>
      </trkpt>
      <trkpt lat="43.337418995797634" lon="3.212865963578224">
        <ele>7.35</ele>
        <time>2025-05-16T09:55:28Z</time>
      </trkpt>
      <trkpt lat="43.337274994701147" lon="3.213000996038318">
        <ele>7.35</ele>
        <time>2025-05-16T09:55:30Z</time>
      </trkpt>
      <trkpt lat="43.337220009416342" lon="3.213080037385225">
        <ele>7.83</ele>
        <time>2025-05-16T09:55:31Z</time>
      </trkpt>
      <trkpt lat="43.337081959471107" lon="3.213394023478031">
        <ele>8.789999999999999</ele>
        <time>2025-05-16T09:55:34Z</time>
      </trkpt>
      <trkpt lat="43.337038960307837" lon="3.213501982390881">
        <ele>8.789999999999999</ele>
        <time>2025-05-16T09:55:35Z</time>
      </trkpt>
      <trkpt lat="43.336987998336554" lon="3.21362997405231">
        <ele>8.789999999999999</ele>
        <time>2025-05-16T09:55:36Z</time>
      </trkpt>
      <trkpt lat="43.336731009185314" lon="3.215381959453225">
        <ele>14.08</ele>
        <time>2025-05-16T09:55:50Z</time>
      </trkpt>
      <trkpt lat="43.336731009185314" lon="3.215496959164739">
        <ele>14.08</ele>
        <time>2025-05-16T09:55:51Z</time>
      </trkpt>
      <trkpt lat="43.336703013628721" lon="3.216856000944972">
        <ele>18.399999999999999</ele>
        <time>2025-05-16T09:56:02Z</time>
      </trkpt>
      <trkpt lat="43.336725980043411" lon="3.217596961185336">
        <ele>22.25</ele>
        <time>2025-05-16T09:56:11Z</time>
      </trkpt>
      <trkpt lat="43.336745006963611" lon="3.218045979738236">
        <ele>25.129999999999999</ele>
        <time>2025-05-16T09:56:22Z</time>
      </trkpt>
      <trkpt lat="43.336751963943243" lon="3.2184830121696">
        <ele>27.530000000000001</ele>
        <time>2025-05-16T09:56:32Z</time>
      </trkpt>
      <trkpt lat="43.336751963943243" lon="3.218578984960914">
        <ele>28.02</ele>
        <time>2025-05-16T09:56:33Z</time>
      </trkpt>
      <trkpt lat="43.336751963943243" lon="3.218665989115834">
        <ele>28.02</ele>
        <time>2025-05-16T09:56:34Z</time>
      </trkpt>
      <trkpt lat="43.336749030277133" lon="3.218747964128852">
        <ele>28.5</ele>
        <time>2025-05-16T09:56:35Z</time>
      </trkpt>
      <trkpt lat="43.336742995306849" lon="3.218818958848715">
        <ele>28.5</ele>
        <time>2025-05-16T09:56:36Z</time>
      </trkpt>
      <trkpt lat="43.336736960336566" lon="3.218896994367242">
        <ele>28.5</ele>
        <time>2025-05-16T09:56:37Z</time>
      </trkpt>
      <trkpt lat="43.336730003356934" lon="3.218980981037021">
        <ele>28.5</ele>
        <time>2025-05-16T09:56:38Z</time>
      </trkpt>
      <trkpt lat="43.336719023063779" lon="3.219068991020322">
        <ele>28.5</ele>
        <time>2025-05-16T09:56:39Z</time>
      </trkpt>
      <trkpt lat="43.336707036942244" lon="3.219162030145526">
        <ele>28.98</ele>
        <time>2025-05-16T09:56:40Z</time>
      </trkpt>
      <trkpt lat="43.336685998365283" lon="3.219348024576902">
        <ele>29.460000000000001</ele>
        <time>2025-05-16T09:56:42Z</time>
      </trkpt>
      <trkpt lat="43.336674012243748" lon="3.219442991539836">
        <ele>29.940000000000001</ele>
        <time>2025-05-16T09:56:43Z</time>
      </trkpt>
      <trkpt lat="43.336623972281814" lon="3.220060989260674">
        <ele>29.940000000000001</ele>
        <time>2025-05-16T09:56:49Z</time>
      </trkpt>
      <trkpt lat="43.336391961202025" lon="3.221473004668951">
        <ele>25.609999999999999</ele>
        <time>2025-05-16T09:57:01Z</time>
      </trkpt>
      <trkpt lat="43.336305962875485" lon="3.222183035686612">
        <ele>21.77</ele>
        <time>2025-05-16T09:57:10Z</time>
      </trkpt>
      <trkpt lat="43.336290037259459" lon="3.222289988771081">
        <ele>19.84</ele>
        <time>2025-05-16T09:57:19Z</time>
      </trkpt>
      <trkpt lat="43.336285008117557" lon="3.222315972670913">
        <ele>19.84</ele>
        <time>2025-05-16T09:57:23Z</time>
      </trkpt>
      <trkpt lat="43.336277967318892" lon="3.22235100902617">
        <ele>18.879999999999999</ele>
        <time>2025-05-16T09:57:24Z</time>
      </trkpt>
      <trkpt lat="43.33627000451088" lon="3.22239400818944">
        <ele>18.879999999999999</ele>
        <time>2025-05-16T09:57:25Z</time>
      </trkpt>
      <trkpt lat="43.336260030046105" lon="3.222439019009471">
        <ele>18.399999999999999</ele>
        <time>2025-05-16T09:57:26Z</time>
      </trkpt>
      <trkpt lat="43.3362499717623" lon="3.222490986809135">
        <ele>17.920000000000002</ele>
        <time>2025-05-16T09:57:27Z</time>
      </trkpt>
      <trkpt lat="43.336107982322574" lon="3.222556030377746">
        <ele>17.920000000000002</ele>
        <time>2025-05-16T09:57:28Z</time>
      </trkpt>
      <trkpt lat="43.336018966510892" lon="3.222670024260879">
        <ele>16.960000000000001</ele>
        <time>2025-05-16T09:57:30Z</time>
      </trkpt>
      <trkpt lat="43.336011003702879" lon="3.222763985395432">
        <ele>16.48</ele>
        <time>2025-05-16T09:57:31Z</time>
      </trkpt>
      <trkpt lat="43.336004968732595" lon="3.222848977893591">
        <ele>16</ele>
        <time>2025-05-16T09:57:32Z</time>
      </trkpt>
      <trkpt lat="43.336050985381007" lon="3.222948973998427">
        <ele>15.52</ele>
        <time>2025-05-16T09:57:33Z</time>
      </trkpt>
      <trkpt lat="43.3360980078578" lon="3.22299599647522">
        <ele>15.039999999999999</ele>
        <time>2025-05-16T09:57:34Z</time>
      </trkpt>
      <trkpt lat="43.336107982322574" lon="3.223006976768374">
        <ele>15.039999999999999</ele>
        <time>2025-05-16T09:57:35Z</time>
      </trkpt>
      <trkpt lat="43.336208984255791" lon="3.223108984529972">
        <ele>14.56</ele>
        <time>2025-05-16T09:57:36Z</time>
      </trkpt>
      <trkpt lat="43.336219964548945" lon="3.22318802587688">
        <ele>14.08</ele>
        <time>2025-05-16T09:57:37Z</time>
      </trkpt>
      <trkpt lat="43.336232034489512" lon="3.223271006718278">
        <ele>14.08</ele>
        <time>2025-05-16T09:57:38Z</time>
      </trkpt>
      <trkpt lat="43.336239997297525" lon="3.223353987559676">
        <ele>13.6</ele>
        <time>2025-05-16T09:57:39Z</time>
      </trkpt>
      <trkpt lat="43.336245026439428" lon="3.223434034734964">
        <ele>13.6</ele>
        <time>2025-05-16T09:57:40Z</time>
      </trkpt>
      <trkpt lat="43.336260030046105" lon="3.223676020279527">
        <ele>13.6</ele>
        <time>2025-05-16T09:57:43Z</time>
      </trkpt>
      <trkpt lat="43.33633597008884" lon="3.224917966872454">
        <ele>13.6</ele>
        <time>2025-05-16T09:57:53Z</time>
      </trkpt>
      <trkpt lat="43.336261035874486" lon="3.225491037592292">
        <ele>14.56</ele>
        <time>2025-05-16T09:57:57Z</time>
      </trkpt>
      <trkpt lat="43.336221976205707" lon="3.225636966526508">
        <ele>15.52</ele>
        <time>2025-05-16T09:57:58Z</time>
      </trkpt>
      <trkpt lat="43.336187023669481" lon="3.225770993158221">
        <ele>16</ele>
        <time>2025-05-16T09:57:59Z</time>
      </trkpt>
      <trkpt lat="43.335843030363321" lon="3.226549001410604">
        <ele>16</ele>
        <time>2025-05-16T09:58:08Z</time>
      </trkpt>
      <trkpt lat="43.335757032036781" lon="3.226728960871697">
        <ele>15.52</ele>
        <time>2025-05-16T09:58:11Z</time>
      </trkpt>
      <trkpt lat="43.335686959326267" lon="3.226873967796564">
        <ele>15.039999999999999</ele>
        <time>2025-05-16T09:58:14Z</time>
      </trkpt>
      <trkpt lat="43.335658963769674" lon="3.22692995890975">
        <ele>15.039999999999999</ele>
        <time>2025-05-16T09:58:15Z</time>
      </trkpt>
      <trkpt lat="43.335619987919927" lon="3.2269929908216">
        <ele>14.56</ele>
        <time>2025-05-16T09:58:16Z</time>
      </trkpt>
      <trkpt lat="43.335571959614754" lon="3.227041019126773">
        <ele>14.08</ele>
        <time>2025-05-16T09:58:17Z</time>
      </trkpt>
      <trkpt lat="43.335546981543303" lon="3.227077983319759">
        <ele>13.6</ele>
        <time>2025-05-16T09:58:18Z</time>
      </trkpt>
      <trkpt lat="43.335514962673187" lon="3.227126011624932">
        <ele>13.119999999999999</ele>
        <time>2025-05-16T09:58:19Z</time>
      </trkpt>
      <trkpt lat="43.335479004308581" lon="3.227178985252976">
        <ele>12.630000000000001</ele>
        <time>2025-05-16T09:58:20Z</time>
      </trkpt>
      <trkpt lat="43.335397029295564" lon="3.227303959429264">
        <ele>11.67</ele>
        <time>2025-05-16T09:58:22Z</time>
      </trkpt>
      <trkpt lat="43.335314970463514" lon="3.227451983839274">
        <ele>10.23</ele>
        <time>2025-05-16T09:58:24Z</time>
      </trkpt>
      <trkpt lat="43.335230983793736" lon="3.227603025734425">
        <ele>9.75</ele>
        <time>2025-05-16T09:58:26Z</time>
      </trkpt>
      <trkpt lat="43.335199970752001" lon="3.227659016847611">
        <ele>9.75</ele>
        <time>2025-05-16T09:58:27Z</time>
      </trkpt>
      <trkpt lat="43.335172981023788" lon="3.227706039324403">
        <ele>9.27</ele>
        <time>2025-05-16T09:58:28Z</time>
      </trkpt>
      <trkpt lat="43.334992015734315" lon="3.227835036814213">
        <ele>9.27</ele>
        <time>2025-05-16T09:58:30Z</time>
      </trkpt>
      <trkpt lat="43.334992015734315" lon="3.227835036814213">
        <ele>9.27</ele>
        <time>2025-05-16T09:58:31Z</time>
      </trkpt>
      <trkpt lat="43.334905011579394" lon="3.227896979078651">
        <ele>10.23</ele>
        <time>2025-05-16T09:58:33Z</time>
      </trkpt>
      <trkpt lat="43.334841979667544" lon="3.227962022647262">
        <ele>10.710000000000001</ele>
        <time>2025-05-16T09:58:34Z</time>
      </trkpt>
      <trkpt lat="43.334841979667544" lon="3.228065958246589">
        <ele>11.19</ele>
        <time>2025-05-16T09:58:35Z</time>
      </trkpt>
      <trkpt lat="43.334840973839164" lon="3.228182969614863">
        <ele>11.67</ele>
        <time>2025-05-16T09:58:36Z</time>
      </trkpt>
      <trkpt lat="43.334809960797429" lon="3.228305010125041">
        <ele>11.67</ele>
        <time>2025-05-16T09:58:37Z</time>
      </trkpt>
      <trkpt lat="43.334752963855863" lon="3.228406012058258">
        <ele>11.67</ele>
        <time>2025-05-16T09:58:38Z</time>
      </trkpt>
      <trkpt lat="43.334693033248186" lon="3.228513970971108">
        <ele>11.67</ele>
        <time>2025-05-16T09:58:39Z</time>
      </trkpt>
      <trkpt lat="43.33407998085022" lon="3.229758013039827">
        <ele>10.710000000000001</ele>
        <time>2025-05-16T09:58:48Z</time>
      </trkpt>
      <trkpt lat="43.333618976175785" lon="3.23122501373291">
        <ele>10.710000000000001</ele>
        <time>2025-05-16T09:58:58Z</time>
      </trkpt>
      <trkpt lat="43.33362802863121" lon="3.231381000950933">
        <ele>10.710000000000001</ele>
        <time>2025-05-16T09:58:59Z</time>
      </trkpt>
      <trkpt lat="43.333512023091316" lon="3.231675960123539">
        <ele>11.19</ele>
        <time>2025-05-16T09:59:01Z</time>
      </trkpt>
      <trkpt lat="43.333506993949413" lon="3.231733040884137">
        <ele>11.67</ele>
        <time>2025-05-16T09:59:02Z</time>
      </trkpt>
      <trkpt lat="43.33349802531302" lon="3.231854997575283">
        <ele>12.15</ele>
        <time>2025-05-16T09:59:03Z</time>
      </trkpt>
      <trkpt lat="43.333433987572789" lon="3.232022970914841">
        <ele>12.630000000000001</ele>
        <time>2025-05-16T09:59:04Z</time>
      </trkpt>
      <trkpt lat="43.333357963711023" lon="3.232116010040045">
        <ele>13.119999999999999</ele>
        <time>2025-05-16T09:59:05Z</time>
      </trkpt>
      <trkpt lat="43.333287974819541" lon="3.232218017801642">
        <ele>13.119999999999999</ele>
        <time>2025-05-16T09:59:06Z</time>
      </trkpt>
      <trkpt lat="43.333241958171129" lon="3.232355983927846">
        <ele>13.6</ele>
        <time>2025-05-16T09:59:07Z</time>
      </trkpt>
      <trkpt lat="43.332771984860301" lon="3.233774034306407">
        <ele>13.6</ele>
        <time>2025-05-16T09:59:17Z</time>
      </trkpt>
      <trkpt lat="43.33234098739922" lon="3.2350920047611">
        <ele>8.310000000000001</ele>
        <time>2025-05-16T09:59:26Z</time>
      </trkpt>
      <trkpt lat="43.331698011606932" lon="3.237052028998733">
        <ele>7.35</ele>
        <time>2025-05-16T09:59:38Z</time>
      </trkpt>
      <trkpt lat="43.331430964171886" lon="3.237835988402367">
        <ele>7.83</ele>
        <time>2025-05-16T09:59:44Z</time>
      </trkpt>
      <trkpt lat="43.331040032207966" lon="3.238833015784621">
        <ele>8.310000000000001</ele>
        <time>2025-05-16T09:59:52Z</time>
      </trkpt>
      <trkpt lat="43.330467967316508" lon="3.240087032318115">
        <ele>5.91</ele>
        <time>2025-05-16T09:59:59Z</time>
      </trkpt>
      <trkpt lat="43.330353973433375" lon="3.240275038406253">
        <ele>5.91</ele>
        <time>2025-05-16T10:00:00Z</time>
      </trkpt>
      <trkpt lat="43.329253010451794" lon="3.241813033819199">
        <ele>4.94</ele>
        <time>2025-05-16T10:00:09Z</time>
      </trkpt>
      <trkpt lat="43.327444028109312" lon="3.244188968092203">
        <ele>5.42</ele>
        <time>2025-05-16T10:00:23Z</time>
      </trkpt>
      <trkpt lat="43.32660399377346" lon="3.245412977412343">
        <ele>8.789999999999999</ele>
        <time>2025-05-16T10:00:30Z</time>
      </trkpt>
      <trkpt lat="43.326121028512716" lon="3.246062994003296">
        <ele>10.710000000000001</ele>
        <time>2025-05-16T10:00:34Z</time>
      </trkpt>
      <trkpt lat="43.325989013537765" lon="3.246203977614641">
        <ele>11.19</ele>
        <time>2025-05-16T10:00:35Z</time>
      </trkpt>
      <trkpt lat="43.325846018269658" lon="3.246318977326155">
        <ele>11.19</ele>
        <time>2025-05-16T10:00:36Z</time>
      </trkpt>
      <trkpt lat="43.325691036880016" lon="3.246426014229655">
        <ele>11.67</ele>
        <time>2025-05-16T10:00:37Z</time>
      </trkpt>
      <trkpt lat="43.325531026348472" lon="3.246473036706448">
        <ele>12.15</ele>
        <time>2025-05-16T10:00:38Z</time>
      </trkpt>
      <trkpt lat="43.325371015816927" lon="3.246519975364208">
        <ele>13.119999999999999</ele>
        <time>2025-05-16T10:00:39Z</time>
      </trkpt>
      <trkpt lat="43.325215028598905" lon="3.246564986184239">
        <ele>13.6</ele>
        <time>2025-05-16T10:00:40Z</time>
      </trkpt>
      <trkpt lat="43.324902970343828" lon="3.246657019481063">
        <ele>13.6</ele>
        <time>2025-05-16T10:00:42Z</time>
      </trkpt>
      <trkpt lat="43.324763998389244" lon="3.246732037514448">
        <ele>13.6</ele>
        <time>2025-05-16T10:00:43Z</time>
      </trkpt>
      <trkpt lat="43.324629971757531" lon="3.246831027790904">
        <ele>13.119999999999999</ele>
        <time>2025-05-16T10:00:44Z</time>
      </trkpt>
      <trkpt lat="43.324504997581244" lon="3.246934041380882">
        <ele>13.119999999999999</ele>
        <time>2025-05-16T10:00:45Z</time>
      </trkpt>
      <trkpt lat="43.324403995648026" lon="3.247077958658338">
        <ele>13.119999999999999</ele>
        <time>2025-05-16T10:00:46Z</time>
      </trkpt>
      <trkpt lat="43.324302993714809" lon="3.247221037745476">
        <ele>13.119999999999999</ele>
        <time>2025-05-16T10:00:47Z</time>
      </trkpt>
      <trkpt lat="43.324210960417986" lon="3.247365038841963">
        <ele>12.630000000000001</ele>
        <time>2025-05-16T10:00:48Z</time>
      </trkpt>
      <trkpt lat="43.324147006496787" lon="3.247542986646295">
        <ele>12.630000000000001</ele>
        <time>2025-05-16T10:00:49Z</time>
      </trkpt>
      <trkpt lat="43.324083974584937" lon="3.247716994956136">
        <ele>12.15</ele>
        <time>2025-05-16T10:00:50Z</time>
      </trkpt>
      <trkpt lat="43.324020020663738" lon="3.247891003265977">
        <ele>11.67</ele>
        <time>2025-05-16T10:00:51Z</time>
      </trkpt>
      <trkpt lat="43.32363897934556" lon="3.249753965064883">
        <ele>7.83</ele>
        <time>2025-05-16T10:01:00Z</time>
      </trkpt>
      <trkpt lat="43.323643002659082" lon="3.25225898064673">
        <ele>6.87</ele>
        <time>2025-05-16T10:01:11Z</time>
      </trkpt>
      <trkpt lat="43.323694970458746" lon="3.255798993632197">
        <ele>7.83</ele>
        <time>2025-05-16T10:01:26Z</time>
      </trkpt>
      <trkpt lat="43.323758002370596" lon="3.259445959702134">
        <ele>9.27</ele>
        <time>2025-05-16T10:01:42Z</time>
      </trkpt>
      <trkpt lat="43.323749033734202" lon="3.262010989710689">
        <ele>9.75</ele>
        <time>2025-05-16T10:01:53Z</time>
      </trkpt>
      <trkpt lat="43.323450973257422" lon="3.263814020901918">
        <ele>8.789999999999999</ele>
        <time>2025-05-16T10:02:01Z</time>
      </trkpt>
      <trkpt lat="43.323169006034732" lon="3.265079017728567">
        <ele>8.789999999999999</ele>
        <time>2025-05-16T10:02:08Z</time>
      </trkpt>
      <trkpt lat="43.323131036013365" lon="3.265247996896505">
        <ele>8.789999999999999</ele>
        <time>2025-05-16T10:02:09Z</time>
      </trkpt>
      <trkpt lat="43.323093988001347" lon="3.265415970236063">
        <ele>8.789999999999999</ele>
        <time>2025-05-16T10:02:10Z</time>
      </trkpt>
      <trkpt lat="43.322632983326912" lon="3.26751303859055">
        <ele>7.83</ele>
        <time>2025-05-16T10:02:22Z</time>
      </trkpt>
      <trkpt lat="43.322275998070836" lon="3.26912596821785">
        <ele>7.35</ele>
        <time>2025-05-16T10:02:31Z</time>
      </trkpt>
      <trkpt lat="43.321846006438136" lon="3.271042993292213">
        <ele>5.42</ele>
        <time>2025-05-16T10:02:42Z</time>
      </trkpt>
      <trkpt lat="43.321636961773038" lon="3.271967014297843">
        <ele>3.98</ele>
        <time>2025-05-16T10:02:48Z</time>
      </trkpt>
      <trkpt lat="43.321605026721954" lon="3.272112021222711">
        <ele>3.98</ele>
        <time>2025-05-16T10:02:49Z</time>
      </trkpt>
      <trkpt lat="43.321570996195078" lon="3.272260967642069">
        <ele>3.5</ele>
        <time>2025-05-16T10:02:50Z</time>
      </trkpt>
      <trkpt lat="43.32135901786387" lon="3.273200998082757">
        <ele>3.02</ele>
        <time>2025-05-16T10:02:57Z</time>
      </trkpt>
      <trkpt lat="43.32110496237874" lon="3.274354012683034">
        <ele>1.58</ele>
        <time>2025-05-16T10:03:06Z</time>
      </trkpt>
      <trkpt lat="43.320859037339687" lon="3.275540973991156">
        <ele>1.1</ele>
        <time>2025-05-16T10:03:13Z</time>
      </trkpt>
      <trkpt lat="43.320770021528006" lon="3.276053024455905">
        <ele>1.1</ele>
        <time>2025-05-16T10:03:16Z</time>
      </trkpt>
      <trkpt lat="43.320741020143032" lon="3.276219991967082">
        <ele>1.1</ele>
        <time>2025-05-16T10:03:17Z</time>
      </trkpt>
      <trkpt lat="43.320619985461235" lon="3.277008980512619">
        <ele>1.1</ele>
        <time>2025-05-16T10:03:22Z</time>
      </trkpt>
      <trkpt lat="43.320551002398133" lon="3.278688965365291">
        <ele>1.1</ele>
        <time>2025-05-16T10:03:33Z</time>
      </trkpt>
      <trkpt lat="43.320551002398133" lon="3.279204033315182">
        <ele>2.06</ele>
        <time>2025-05-16T10:03:37Z</time>
      </trkpt>
      <trkpt lat="43.320551002398133" lon="3.279376029968262">
        <ele>2.06</ele>
        <time>2025-05-16T10:03:38Z</time>
      </trkpt>
      <trkpt lat="43.320473972707987" lon="3.279534028843045">
        <ele>2.06</ele>
        <time>2025-05-16T10:03:40Z</time>
      </trkpt>
      <trkpt lat="43.320443965494633" lon="3.279623966664076">
        <ele>2.06</ele>
        <time>2025-05-16T10:03:41Z</time>
      </trkpt>
      <trkpt lat="43.320443965494633" lon="3.279733015224338">
        <ele>1.58</ele>
        <time>2025-05-16T10:03:42Z</time>
      </trkpt>
      <trkpt lat="43.320487970486283" lon="3.279827982187271">
        <ele>1.1</ele>
        <time>2025-05-16T10:03:43Z</time>
      </trkpt>
      <trkpt lat="43.320541027933359" lon="3.279950022697449">
        <ele>0.62</ele>
        <time>2025-05-16T10:03:44Z</time>
      </trkpt>
      <trkpt lat="43.32056600600481" lon="3.280087988823652">
        <ele>0.62</ele>
        <time>2025-05-16T10:03:45Z</time>
      </trkpt>
      <trkpt lat="43.320592995733023" lon="3.280236013233662">
        <ele>0.62</ele>
        <time>2025-05-16T10:03:46Z</time>
      </trkpt>
      <trkpt lat="43.320739008486271" lon="3.281833017244935">
        <ele>1.1</ele>
        <time>2025-05-16T10:03:56Z</time>
      </trkpt>
      <trkpt lat="43.320812014862895" lon="3.28358500264585">
        <ele>1.58</ele>
        <time>2025-05-16T10:04:07Z</time>
      </trkpt>
      <trkpt lat="43.320860965177417" lon="3.28526197001338">
        <ele>2.06</ele>
        <time>2025-05-16T10:04:16Z</time>
      </trkpt>
      <trkpt lat="43.320960039272904" lon="3.287226017564535">
        <ele>0.62</ele>
        <time>2025-05-16T10:04:28Z</time>
      </trkpt>
      <trkpt lat="43.320965990424156" lon="3.287341017276049">
        <ele>0.14</ele>
        <time>2025-05-16T10:04:29Z</time>
      </trkpt>
      <trkpt lat="43.320971019566059" lon="3.287443025037646">
        <ele>0.14</ele>
        <time>2025-05-16T10:04:30Z</time>
      </trkpt>
      <trkpt lat="43.32097596488893" lon="3.28753899782896">
        <ele>-0.34</ele>
        <time>2025-05-16T10:04:31Z</time>
      </trkpt>
      <trkpt lat="43.320883009582758" lon="3.287676963955164">
        <ele>-0.82</ele>
        <time>2025-05-16T10:04:32Z</time>
      </trkpt>
      <trkpt lat="43.320808997377753" lon="3.287722980603576">
        <ele>-1.3</ele>
        <time>2025-05-16T10:04:33Z</time>
      </trkpt>
      <trkpt lat="43.320799022912979" lon="3.287801016122103">
        <ele>-1.79</ele>
        <time>2025-05-16T10:04:34Z</time>
      </trkpt>
      <trkpt lat="43.320793993771076" lon="3.287912998348475">
        <ele>-2.27</ele>
        <time>2025-05-16T10:04:35Z</time>
      </trkpt>
      <trkpt lat="43.320830035954714" lon="3.288006959483028">
        <ele>-2.75</ele>
        <time>2025-05-16T10:04:36Z</time>
      </trkpt>
      <trkpt lat="43.320851996541023" lon="3.288065968081355">
        <ele>-3.71</ele>
        <time>2025-05-16T10:04:37Z</time>
      </trkpt>
      <trkpt lat="43.320980994030833" lon="3.288195971399546">
        <ele>-3.71</ele>
        <time>2025-05-16T10:04:38Z</time>
      </trkpt>
      <trkpt lat="43.320980994030833" lon="3.288366962224245">
        <ele>-3.71</ele>
        <time>2025-05-16T10:04:39Z</time>
      </trkpt>
      <trkpt lat="43.320986023172736" lon="3.288468969985843">
        <ele>-4.19</ele>
        <time>2025-05-16T10:04:40Z</time>
      </trkpt>
      <trkpt lat="43.32099599763751" lon="3.288630992174149">
        <ele>-4.19</ele>
        <time>2025-05-16T10:04:41Z</time>
      </trkpt>
      <trkpt lat="43.321028016507626" lon="3.289296012371779">
        <ele>-3.71</ele>
        <time>2025-05-16T10:04:45Z</time>
      </trkpt>
      <trkpt lat="43.321032039821148" lon="3.289462979882956">
        <ele>-3.71</ele>
        <time>2025-05-16T10:04:46Z</time>
      </trkpt>
      <trkpt lat="43.321063974872231" lon="3.290821015834808">
        <ele>-1.79</ele>
        <time>2025-05-16T10:04:54Z</time>
      </trkpt>
      <trkpt lat="43.321055006235838" lon="3.290982032194734">
        <ele>-1.3</ele>
        <time>2025-05-16T10:04:55Z</time>
      </trkpt>
      <trkpt lat="43.321002032607794" lon="3.291263999417424">
        <ele>-0.82</ele>
        <time>2025-05-16T10:04:57Z</time>
      </trkpt>
      <trkpt lat="43.32090999931097" lon="3.291527023538947">
        <ele>0.14</ele>
        <time>2025-05-16T10:05:01Z</time>
      </trkpt>
      <trkpt lat="43.320900024846196" lon="3.29155501909554">
        <ele>0.14</ele>
        <time>2025-05-16T10:05:02Z</time>
      </trkpt>
      <trkpt lat="43.320874040946364" lon="3.291630037128925">
        <ele>0.14</ele>
        <time>2025-05-16T10:05:04Z</time>
      </trkpt>
      <trkpt lat="43.320851996541023" lon="3.291692985221744">
        <ele>0.14</ele>
        <time>2025-05-16T10:05:05Z</time>
      </trkpt>
      <trkpt lat="43.320788964629173" lon="3.291712012141943">
        <ele>0.14</ele>
        <time>2025-05-16T10:05:06Z</time>
      </trkpt>
      <trkpt lat="43.320705983787775" lon="3.291735984385014">
        <ele>0.14</ele>
        <time>2025-05-16T10:05:07Z</time>
      </trkpt>
      <trkpt lat="43.320613028481603" lon="3.291779989376664">
        <ele>0.62</ele>
        <time>2025-05-16T10:05:08Z</time>
      </trkpt>
      <trkpt lat="43.320526024326682" lon="3.291860036551952">
        <ele>0.62</ele>
        <time>2025-05-16T10:05:09Z</time>
      </trkpt>
      <trkpt lat="43.320429967716336" lon="3.291948968544602">
        <ele>0.62</ele>
        <time>2025-05-16T10:05:10Z</time>
      </trkpt>
      <trkpt lat="43.32033097743988" lon="3.292049970477819">
        <ele>0.62</ele>
        <time>2025-05-16T10:05:11Z</time>
      </trkpt>
      <trkpt lat="43.32026400603354" lon="3.292207969352603">
        <ele>0.62</ele>
        <time>2025-05-16T10:05:12Z</time>
      </trkpt>
      <trkpt lat="43.320193011313677" lon="3.292375020682812">
        <ele>0.14</ele>
        <time>2025-05-16T10:05:13Z</time>
      </trkpt>
      <trkpt lat="43.320122016593814" lon="3.292542994022369">
        <ele>0.14</ele>
        <time>2025-05-16T10:05:14Z</time>
      </trkpt>
      <trkpt lat="43.320070970803499" lon="3.292725970968604">
        <ele>0.14</ele>
        <time>2025-05-16T10:05:15Z</time>
      </trkpt>
      <trkpt lat="43.320027971640229" lon="3.292922023683786">
        <ele>-0.34</ele>
        <time>2025-05-16T10:05:16Z</time>
      </trkpt>
      <trkpt lat="43.320014979690313" lon="3.293127967044711">
        <ele>-0.34</ele>
        <time>2025-05-16T10:05:17Z</time>
      </trkpt>
      <trkpt lat="43.320031994953752" lon="3.293337011709809">
        <ele>-0.82</ele>
        <time>2025-05-16T10:05:18Z</time>
      </trkpt>
      <trkpt lat="43.320095026865602" lon="3.293529963120818">
        <ele>-0.82</ele>
        <time>2025-05-16T10:05:19Z</time>
      </trkpt>
      <trkpt lat="43.320175996050239" lon="3.293709000572562">
        <ele>-1.3</ele>
        <time>2025-05-16T10:05:20Z</time>
      </trkpt>
      <trkpt lat="43.320212960243225" lon="3.293913016095758">
        <ele>-0.82</ele>
        <time>2025-05-16T10:05:21Z</time>
      </trkpt>
      <trkpt lat="43.320242967456579" lon="3.294122982770205">
        <ele>-0.82</ele>
        <time>2025-05-16T10:05:22Z</time>
      </trkpt>
      <trkpt lat="43.320271968841553" lon="3.294332027435303">
        <ele>-0.34</ele>
        <time>2025-05-16T10:05:23Z</time>
      </trkpt>
      <trkpt lat="43.320226036012173" lon="3.294547023251653">
        <ele>-0.34</ele>
        <time>2025-05-16T10:05:24Z</time>
      </trkpt>
      <trkpt lat="43.320177001878619" lon="3.294772999361157">
        <ele>-0.34</ele>
        <time>2025-05-16T10:05:25Z</time>
      </trkpt>
      <trkpt lat="43.320116987451911" lon="3.294996041804552">
        <ele>-0.34</ele>
        <time>2025-05-16T10:05:26Z</time>
      </trkpt>
      <trkpt lat="43.320054961368442" lon="3.295219000428915">
        <ele>0.14</ele>
        <time>2025-05-16T10:05:27Z</time>
      </trkpt>
      <trkpt lat="43.319661011919379" lon="3.296752972528338">
        <ele>0.62</ele>
        <time>2025-05-16T10:05:35Z</time>
      </trkpt>
      <trkpt lat="43.319260021671653" lon="3.298177979886532">
        <ele>-0.34</ele>
        <time>2025-05-16T10:05:43Z</time>
      </trkpt>
      <trkpt lat="43.318879986181855" lon="3.299495028331876">
        <ele>0.14</ele>
        <time>2025-05-16T10:05:51Z</time>
      </trkpt>
      <trkpt lat="43.318538004532456" lon="3.300691964104772">
        <ele>1.1</ele>
        <time>2025-05-16T10:06:00Z</time>
      </trkpt>
      <trkpt lat="43.317934004589915" lon="3.302936973050237">
        <ele>1.58</ele>
        <time>2025-05-16T10:06:12Z</time>
      </trkpt>
      <trkpt lat="43.31736596301198" lon="3.305269991979003">
        <ele>2.06</ele>
        <time>2025-05-16T10:06:23Z</time>
      </trkpt>
      <trkpt lat="43.316688034683466" lon="3.308258978649974">
        <ele>3.5</ele>
        <time>2025-05-16T10:06:35Z</time>
      </trkpt>
      <trkpt lat="43.315786980092525" lon="3.311219969764352">
        <ele>3.5</ele>
        <time>2025-05-16T10:06:47Z</time>
      </trkpt>
      <trkpt lat="43.314860025420785" lon="3.313338998705149">
        <ele>4.94</ele>
        <time>2025-05-16T10:06:57Z</time>
      </trkpt>
      <trkpt lat="43.314406983554363" lon="3.315417040139437">
        <ele>6.39</ele>
        <time>2025-05-16T10:07:05Z</time>
      </trkpt>
      <trkpt lat="43.314145971089602" lon="3.318137973546982">
        <ele>8.310000000000001</ele>
        <time>2025-05-16T10:07:14Z</time>
      </trkpt>
      <trkpt lat="43.313716985285282" lon="3.322684988379479">
        <ele>18.879999999999999</ele>
        <time>2025-05-16T10:07:29Z</time>
      </trkpt>
      <trkpt lat="43.313370980322361" lon="3.326971996575594">
        <ele>21.77</ele>
        <time>2025-05-16T10:07:43Z</time>
      </trkpt>
      <trkpt lat="43.313126983121037" lon="3.329672981053591">
        <ele>21.77</ele>
        <time>2025-05-16T10:07:53Z</time>
      </trkpt>
      <trkpt lat="43.31319697201252" lon="3.332223007455468">
        <ele>20.32</ele>
        <time>2025-05-16T10:08:04Z</time>
      </trkpt>
      <trkpt lat="43.313324963673949" lon="3.335848012939096">
        <ele>17.920000000000002</ele>
        <time>2025-05-16T10:08:19Z</time>
      </trkpt>
      <trkpt lat="43.313329992815852" lon="3.337099011987448">
        <ele>15.52</ele>
        <time>2025-05-16T10:08:26Z</time>
      </trkpt>
      <trkpt lat="43.31332697533071" lon="3.337205965071917">
        <ele>15.52</ele>
        <time>2025-05-16T10:08:27Z</time>
      </trkpt>
      <trkpt lat="43.313322030007839" lon="3.33731995895505">
        <ele>15.52</ele>
        <time>2025-05-16T10:08:28Z</time>
      </trkpt>
      <trkpt lat="43.313276013359427" lon="3.337420038878918">
        <ele>15.52</ele>
        <time>2025-05-16T10:08:29Z</time>
      </trkpt>
      <trkpt lat="43.313191020861268" lon="3.337550964206457">
        <ele>15.52</ele>
        <time>2025-05-16T10:08:30Z</time>
      </trkpt>
      <trkpt lat="43.313191020861268" lon="3.337669987231493">
        <ele>15.039999999999999</ele>
        <time>2025-05-16T10:08:31Z</time>
      </trkpt>
      <trkpt lat="43.313266960904002" lon="3.337782975286245">
        <ele>15.039999999999999</ele>
        <time>2025-05-16T10:08:32Z</time>
      </trkpt>
      <trkpt lat="43.313310965895653" lon="3.337890012189746">
        <ele>15.039999999999999</ele>
        <time>2025-05-16T10:08:33Z</time>
      </trkpt>
      <trkpt lat="43.313336027786136" lon="3.338024960830808">
        <ele>14.56</ele>
        <time>2025-05-16T10:08:34Z</time>
      </trkpt>
      <trkpt lat="43.313363017514348" lon="3.338169967755675">
        <ele>14.56</ele>
        <time>2025-05-16T10:08:35Z</time>
      </trkpt>
      <trkpt lat="43.313363017514348" lon="3.338344981893897">
        <ele>14.56</ele>
        <time>2025-05-16T10:08:36Z</time>
      </trkpt>
      <trkpt lat="43.313441975042224" lon="3.340202998369932">
        <ele>12.15</ele>
        <time>2025-05-16T10:08:46Z</time>
      </trkpt>
      <trkpt lat="43.31351799890399" lon="3.342588990926743">
        <ele>8.789999999999999</ele>
        <time>2025-05-16T10:08:57Z</time>
      </trkpt>
      <trkpt lat="43.313621012493968" lon="3.345202971249819">
        <ele>7.83</ele>
        <time>2025-05-16T10:09:09Z</time>
      </trkpt>
      <trkpt lat="43.313717991113663" lon="3.348131021484733">
        <ele>7.35</ele>
        <time>2025-05-16T10:09:22Z</time>
      </trkpt>
      <trkpt lat="43.31384296528995" lon="3.351217992603779">
        <ele>5.42</ele>
        <time>2025-05-16T10:09:33Z</time>
      </trkpt>
      <trkpt lat="43.314008004963398" lon="3.355671968311071">
        <ele>6.87</ele>
        <time>2025-05-16T10:09:49Z</time>
      </trkpt>
      <trkpt lat="43.314039018005133" lon="3.357769036665559">
        <ele>7.35</ele>
        <time>2025-05-16T10:09:58Z</time>
      </trkpt>
      <trkpt lat="43.314090985804796" lon="3.359552035108209">
        <ele>8.789999999999999</ele>
        <time>2025-05-16T10:10:08Z</time>
      </trkpt>
      <trkpt lat="43.314073970541358" lon="3.360203979536891">
        <ele>9.27</ele>
        <time>2025-05-16T10:10:12Z</time>
      </trkpt>
      <trkpt lat="43.314046980813146" lon="3.36032803170383">
        <ele>9.27</ele>
        <time>2025-05-16T10:10:13Z</time>
      </trkpt>
      <trkpt lat="43.313985960558057" lon="3.360420987010002">
        <ele>9.27</ele>
        <time>2025-05-16T10:10:14Z</time>
      </trkpt>
      <trkpt lat="43.313985038548708" lon="3.360560964792967">
        <ele>9.75</ele>
        <time>2025-05-16T10:10:15Z</time>
      </trkpt>
      <trkpt lat="43.314010016620159" lon="3.36063195951283">
        <ele>9.27</ele>
        <time>2025-05-16T10:10:16Z</time>
      </trkpt>
      <trkpt lat="43.31405402161181" lon="3.360703038051724">
        <ele>8.789999999999999</ele>
        <time>2025-05-16T10:10:17Z</time>
      </trkpt>
      <trkpt lat="43.314092997461557" lon="3.360764980316162">
        <ele>8.789999999999999</ele>
        <time>2025-05-16T10:10:18Z</time>
      </trkpt>
      <trkpt lat="43.314101966097951" lon="3.360943011939526">
        <ele>8.789999999999999</ele>
        <time>2025-05-16T10:10:19Z</time>
      </trkpt>
      <trkpt lat="43.314109006896615" lon="3.361069997772574">
        <ele>8.789999999999999</ele>
        <time>2025-05-16T10:10:20Z</time>
      </trkpt>
      <trkpt lat="43.314115963876247" lon="3.3612119872123">
        <ele>8.310000000000001</ele>
        <time>2025-05-16T10:10:21Z</time>
      </trkpt>
      <trkpt lat="43.314125016331673" lon="3.361370991915464">
        <ele>8.310000000000001</ele>
        <time>2025-05-16T10:10:22Z</time>
      </trkpt>
      <trkpt lat="43.314219983294606" lon="3.363353982567787">
        <ele>6.87</ele>
        <time>2025-05-16T10:10:32Z</time>
      </trkpt>
      <trkpt lat="43.314385022968054" lon="3.366512032225728">
        <ele>5.91</ele>
        <time>2025-05-16T10:10:46Z</time>
      </trkpt>
      <trkpt lat="43.314500022679567" lon="3.369925981387496">
        <ele>6.87</ele>
        <time>2025-05-16T10:11:01Z</time>
      </trkpt>
      <trkpt lat="43.314619967713952" lon="3.373599015176296">
        <ele>10.23</ele>
        <time>2025-05-16T10:11:16Z</time>
      </trkpt>
      <trkpt lat="43.314690962433815" lon="3.377081025391817">
        <ele>14.08</ele>
        <time>2025-05-16T10:11:31Z</time>
      </trkpt>
      <trkpt lat="43.314824989065528" lon="3.381228977814317">
        <ele>18.879999999999999</ele>
        <time>2025-05-16T10:11:48Z</time>
      </trkpt>
      <trkpt lat="43.314810991287231" lon="3.382917009294033">
        <ele>20.32</ele>
        <time>2025-05-16T10:11:54Z</time>
      </trkpt>
      <trkpt lat="43.314287960529327" lon="3.385389000177383">
        <ele>18.399999999999999</ele>
        <time>2025-05-16T10:12:02Z</time>
      </trkpt>
      <trkpt lat="43.313809018582106" lon="3.38755396194756">
        <ele>12.15</ele>
        <time>2025-05-16T10:12:08Z</time>
      </trkpt>
      <trkpt lat="43.313199989497662" lon="3.390121003612876">
        <ele>6.39</ele>
        <time>2025-05-16T10:12:17Z</time>
      </trkpt>
      <trkpt lat="43.312798999249935" lon="3.391976002603769">
        <ele>5.42</ele>
        <time>2025-05-16T10:12:25Z</time>
      </trkpt>
      <trkpt lat="43.312201034277678" lon="3.394725015386939">
        <ele>4.46</ele>
        <time>2025-05-16T10:12:37Z</time>
      </trkpt>
      <trkpt lat="43.311686972156167" lon="3.396904980763793">
        <ele>3.98</ele>
        <time>2025-05-16T10:12:47Z</time>
      </trkpt>
      <trkpt lat="43.311407016590238" lon="3.397788014262915">
        <ele>3.98</ele>
        <time>2025-05-16T10:12:51Z</time>
      </trkpt>
      <trkpt lat="43.311319006606936" lon="3.398007033392787">
        <ele>3.98</ele>
        <time>2025-05-16T10:12:52Z</time>
      </trkpt>
      <trkpt lat="43.311213981360197" lon="3.398211970925331">
        <ele>3.98</ele>
        <time>2025-05-16T10:12:53Z</time>
      </trkpt>
      <trkpt lat="43.311092024669051" lon="3.398410035297275">
        <ele>4.46</ele>
        <time>2025-05-16T10:12:54Z</time>
      </trkpt>
      <trkpt lat="43.310966966673732" lon="3.398612961173058">
        <ele>4.94</ele>
        <time>2025-05-16T10:12:55Z</time>
      </trkpt>
      <trkpt lat="43.310482995584607" lon="3.399466993287206">
        <ele>6.39</ele>
        <time>2025-05-16T10:12:59Z</time>
      </trkpt>
      <trkpt lat="43.310390962287784" lon="3.39969296939671">
        <ele>6.39</ele>
        <time>2025-05-16T10:13:00Z</time>
      </trkpt>
      <trkpt lat="43.310337988659739" lon="3.399924980476499">
        <ele>7.35</ele>
        <time>2025-05-16T10:13:01Z</time>
      </trkpt>
      <trkpt lat="43.310324996709824" lon="3.400178030133247">
        <ele>7.83</ele>
        <time>2025-05-16T10:13:02Z</time>
      </trkpt>
      <trkpt lat="43.310326002538204" lon="3.400410041213036">
        <ele>8.310000000000001</ele>
        <time>2025-05-16T10:13:03Z</time>
      </trkpt>
      <trkpt lat="43.310365984216332" lon="3.400644985958934">
        <ele>9.27</ele>
        <time>2025-05-16T10:13:04Z</time>
      </trkpt>
      <trkpt lat="43.31040496006608" lon="3.400869034230709">
        <ele>9.75</ele>
        <time>2025-05-16T10:13:05Z</time>
      </trkpt>
      <trkpt lat="43.310465980321169" lon="3.401070032268763">
        <ele>10.23</ele>
        <time>2025-05-16T10:13:06Z</time>
      </trkpt>
      <trkpt lat="43.310562958940864" lon="3.40126097202301">
        <ele>10.23</ele>
        <time>2025-05-16T10:13:07Z</time>
      </trkpt>
      <trkpt lat="43.310684999451041" lon="3.401440009474754">
        <ele>10.23</ele>
        <time>2025-05-16T10:13:08Z</time>
      </trkpt>
      <trkpt lat="43.310815002769232" lon="3.401613011956215">
        <ele>10.23</ele>
        <time>2025-05-16T10:13:09Z</time>
      </trkpt>
      <trkpt lat="43.310947017744184" lon="3.401789031922817">
        <ele>9.75</ele>
        <time>2025-05-16T10:13:10Z</time>
      </trkpt>
      <trkpt lat="43.311488991603255" lon="3.402575002983213">
        <ele>6.87</ele>
        <time>2025-05-16T10:13:14Z</time>
      </trkpt>
      <trkpt lat="43.311554035171866" lon="3.402826962992549">
        <ele>6.39</ele>
        <time>2025-05-16T10:13:15Z</time>
      </trkpt>
      <trkpt lat="43.311615977436304" lon="3.403065009042621">
        <ele>5.91</ele>
        <time>2025-05-16T10:13:16Z</time>
      </trkpt>
      <trkpt lat="43.311957037076354" lon="3.40529702603817">
        <ele>4.94</ele>
        <time>2025-05-16T10:13:26Z</time>
      </trkpt>
      <trkpt lat="43.312186030671" lon="3.406830998137593">
        <ele>8.310000000000001</ele>
        <time>2025-05-16T10:13:34Z</time>
      </trkpt>
      <trkpt lat="43.312242021784186" lon="3.407088993117213">
        <ele>8.310000000000001</ele>
        <time>2025-05-16T10:13:36Z</time>
      </trkpt>
      <trkpt lat="43.312274040654302" lon="3.407187983393669">
        <ele>8.310000000000001</ele>
        <time>2025-05-16T10:13:37Z</time>
      </trkpt>
      <trkpt lat="43.312403038144112" lon="3.407485960051417">
        <ele>8.310000000000001</ele>
        <time>2025-05-16T10:13:40Z</time>
      </trkpt>
      <trkpt lat="43.312413012608886" lon="3.407588973641396">
        <ele>8.789999999999999</ele>
        <time>2025-05-16T10:13:41Z</time>
      </trkpt>
      <trkpt lat="43.312340006232262" lon="3.407781003043056">
        <ele>8.789999999999999</ele>
        <time>2025-05-16T10:13:43Z</time>
      </trkpt>
      <trkpt lat="43.312349980697036" lon="3.40785501524806">
        <ele>8.789999999999999</ele>
        <time>2025-05-16T10:13:44Z</time>
      </trkpt>
      <trkpt lat="43.312432039529085" lon="3.407998010516167">
        <ele>9.27</ele>
        <time>2025-05-16T10:13:46Z</time>
      </trkpt>
      <trkpt lat="43.312418963760138" lon="3.408101024106145">
        <ele>9.27</ele>
        <time>2025-05-16T10:13:47Z</time>
      </trkpt>
      <trkpt lat="43.312418963760138" lon="3.408194985240698">
        <ele>9.27</ele>
        <time>2025-05-16T10:13:48Z</time>
      </trkpt>
      <trkpt lat="43.312436984851956" lon="3.408409981057048">
        <ele>8.789999999999999</ele>
        <time>2025-05-16T10:13:50Z</time>
      </trkpt>
      <trkpt lat="43.31244695931673" lon="3.408516012132168">
        <ele>8.789999999999999</ele>
        <time>2025-05-16T10:13:51Z</time>
      </trkpt>
      <trkpt lat="43.312452994287014" lon="3.408618019893765">
        <ele>8.310000000000001</ele>
        <time>2025-05-16T10:13:52Z</time>
      </trkpt>
      <trkpt lat="43.312461040914059" lon="3.408725978806615">
        <ele>8.310000000000001</ele>
        <time>2025-05-16T10:13:53Z</time>
      </trkpt>
      <trkpt lat="43.312472021207213" lon="3.408818012103438">
        <ele>8.310000000000001</ele>
        <time>2025-05-16T10:13:54Z</time>
      </trkpt>
      <trkpt lat="43.312484007328749" lon="3.408896969631314">
        <ele>8.310000000000001</ele>
        <time>2025-05-16T10:13:55Z</time>
      </trkpt>
      <trkpt lat="43.312499010935426" lon="3.409000989049673">
        <ele>8.310000000000001</ele>
        <time>2025-05-16T10:13:56Z</time>
      </trkpt>
      <trkpt lat="43.312518959864974" lon="3.409126969054341">
        <ele>8.310000000000001</ele>
        <time>2025-05-16T10:13:57Z</time>
      </trkpt>
      <trkpt lat="43.312543015927076" lon="3.409262001514435">
        <ele>7.83</ele>
        <time>2025-05-16T10:13:58Z</time>
      </trkpt>
      <trkpt lat="43.312750970944762" lon="3.41060696169734">
        <ele>6.39</ele>
        <time>2025-05-16T10:14:08Z</time>
      </trkpt>
      <trkpt lat="43.312806962057948" lon="3.411017004400492">
        <ele>6.39</ele>
        <time>2025-05-16T10:14:12Z</time>
      </trkpt>
      <trkpt lat="43.312824983149767" lon="3.411114988848567">
        <ele>6.39</ele>
        <time>2025-05-16T10:14:13Z</time>
      </trkpt>
      <trkpt lat="43.312839986756444" lon="3.411229988560081">
        <ele>6.39</ele>
        <time>2025-05-16T10:14:14Z</time>
      </trkpt>
      <trkpt lat="43.312854990363121" lon="3.411355968564749">
        <ele>6.39</ele>
        <time>2025-05-16T10:14:15Z</time>
      </trkpt>
      <trkpt lat="43.312870999798179" lon="3.411483038216829">
        <ele>6.87</ele>
        <time>2025-05-16T10:14:16Z</time>
      </trkpt>
      <trkpt lat="43.312887009233236" lon="3.411604994907975">
        <ele>7.35</ele>
        <time>2025-05-16T10:14:17Z</time>
      </trkpt>
      <trkpt lat="43.31300200894475" lon="3.412369005382061">
        <ele>10.23</ele>
        <time>2025-05-16T10:14:23Z</time>
      </trkpt>
      <trkpt lat="43.313020030036569" lon="3.412487022578716">
        <ele>10.710000000000001</ele>
        <time>2025-05-16T10:14:24Z</time>
      </trkpt>
      <trkpt lat="43.313117008656263" lon="3.413105020299554">
        <ele>13.119999999999999</ele>
        <time>2025-05-16T10:14:30Z</time>
      </trkpt>
      <trkpt lat="43.313135029748082" lon="3.413296965882182">
        <ele>14.56</ele>
        <time>2025-05-16T10:14:32Z</time>
      </trkpt>
      <trkpt lat="43.313140980899334" lon="3.413395034149289">
        <ele>15.039999999999999</ele>
        <time>2025-05-16T10:14:33Z</time>
      </trkpt>
      <trkpt lat="43.313180040568113" lon="3.413809016346932">
        <ele>16.48</ele>
        <time>2025-05-16T10:14:37Z</time>
      </trkpt>
      <trkpt lat="43.313191020861268" lon="3.413909012451768">
        <ele>16.48</ele>
        <time>2025-05-16T10:14:38Z</time>
      </trkpt>
      <trkpt lat="43.313141986727715" lon="3.414039015769959">
        <ele>16</ele>
        <time>2025-05-16T10:14:39Z</time>
      </trkpt>
      <trkpt lat="43.313215998932719" lon="3.414121996611357">
        <ele>16</ele>
        <time>2025-05-16T10:14:40Z</time>
      </trkpt>
      <trkpt lat="43.313241982832551" lon="3.414232973009348">
        <ele>16</ele>
        <time>2025-05-16T10:14:41Z</time>
      </trkpt>
      <trkpt lat="43.313268972560763" lon="3.414346966892481">
        <ele>15.52</ele>
        <time>2025-05-16T10:14:42Z</time>
      </trkpt>
      <trkpt lat="43.313384978100657" lon="3.414911990985274">
        <ele>14.56</ele>
        <time>2025-05-16T10:14:47Z</time>
      </trkpt>
      <trkpt lat="43.313426971435547" lon="3.415263025090098">
        <ele>13.6</ele>
        <time>2025-05-16T10:14:50Z</time>
      </trkpt>
      <trkpt lat="43.313444992527366" lon="3.41537400148809">
        <ele>14.08</ele>
        <time>2025-05-16T10:14:51Z</time>
      </trkpt>
      <trkpt lat="43.313573990017176" lon="3.41627798974514">
        <ele>13.6</ele>
        <time>2025-05-16T10:14:59Z</time>
      </trkpt>
      <trkpt lat="43.313749004155397" lon="3.41739596799016">
        <ele>11.67</ele>
        <time>2025-05-16T10:15:09Z</time>
      </trkpt>
      <trkpt lat="43.31379703246057" lon="3.417742978781462">
        <ele>13.119999999999999</ele>
        <time>2025-05-16T10:15:12Z</time>
      </trkpt>
      <trkpt lat="43.313810024410486" lon="3.417834006249905">
        <ele>13.6</ele>
        <time>2025-05-16T10:15:13Z</time>
      </trkpt>
      <trkpt lat="43.313825028017163" lon="3.417937019839883">
        <ele>14.08</ele>
        <time>2025-05-16T10:15:14Z</time>
      </trkpt>
      <trkpt lat="43.313860986381769" lon="3.418161990121007">
        <ele>14.56</ele>
        <time>2025-05-16T10:15:16Z</time>
      </trkpt>
      <trkpt lat="43.313878001645207" lon="3.418268021196127">
        <ele>14.56</ele>
        <time>2025-05-16T10:15:17Z</time>
      </trkpt>
      <trkpt lat="43.313895016908646" lon="3.418371034786105">
        <ele>14.56</ele>
        <time>2025-05-16T10:15:18Z</time>
      </trkpt>
      <trkpt lat="43.313921000808477" lon="3.418592987582088">
        <ele>14.08</ele>
        <time>2025-05-16T10:15:20Z</time>
      </trkpt>
      <trkpt lat="43.313931981101632" lon="3.418634980916977">
        <ele>14.08</ele>
        <time>2025-05-16T10:15:21Z</time>
      </trkpt>
      <trkpt lat="43.313946984708309" lon="3.418688960373402">
        <ele>14.08</ele>
        <time>2025-05-16T10:15:22Z</time>
      </trkpt>
      <trkpt lat="43.313965005800128" lon="3.41885601170361">
        <ele>14.08</ele>
        <time>2025-05-16T10:15:25Z</time>
      </trkpt>
      <trkpt lat="43.313970034942031" lon="3.419661009684205">
        <ele>14.08</ele>
        <time>2025-05-16T10:15:34Z</time>
      </trkpt>
      <trkpt lat="43.313963999971747" lon="3.419773997738957">
        <ele>14.08</ele>
        <time>2025-05-16T10:15:35Z</time>
      </trkpt>
      <trkpt lat="43.31396802328527" lon="3.419868964701891">
        <ele>14.08</ele>
        <time>2025-05-16T10:15:36Z</time>
      </trkpt>
      <trkpt lat="43.313972968608141" lon="3.419978013262153">
        <ele>14.56</ele>
        <time>2025-05-16T10:15:37Z</time>
      </trkpt>
      <trkpt lat="43.313977997750044" lon="3.420094018802047">
        <ele>15.52</ele>
        <time>2025-05-16T10:15:38Z</time>
      </trkpt>
      <trkpt lat="43.313983026891947" lon="3.420211030170322">
        <ele>16</ele>
        <time>2025-05-16T10:15:39Z</time>
      </trkpt>
      <trkpt lat="43.313985038548708" lon="3.420328963547945">
        <ele>16</ele>
        <time>2025-05-16T10:15:40Z</time>
      </trkpt>
      <trkpt lat="43.313985038548708" lon="3.420442035421729">
        <ele>16.48</ele>
        <time>2025-05-16T10:15:41Z</time>
      </trkpt>
      <trkpt lat="43.313985038548708" lon="3.420554017648101">
        <ele>16.48</ele>
        <time>2025-05-16T10:15:42Z</time>
      </trkpt>
      <trkpt lat="43.313985038548708" lon="3.420668011531234">
        <ele>16.960000000000001</ele>
        <time>2025-05-16T10:15:43Z</time>
      </trkpt>
      <trkpt lat="43.313993001356721" lon="3.421527994796634">
        <ele>16.960000000000001</ele>
        <time>2025-05-16T10:15:50Z</time>
      </trkpt>
      <trkpt lat="43.313996018841863" lon="3.421656992286444">
        <ele>16.960000000000001</ele>
        <time>2025-05-16T10:15:51Z</time>
      </trkpt>
      <trkpt lat="43.313999958336353" lon="3.421785989776254">
        <ele>16.960000000000001</ele>
        <time>2025-05-16T10:15:52Z</time>
      </trkpt>
      <trkpt lat="43.314006999135017" lon="3.422226961702108">
        <ele>17.920000000000002</ele>
        <time>2025-05-16T10:15:56Z</time>
      </trkpt>
      <trkpt lat="43.314006999135017" lon="3.422312960028648">
        <ele>18.399999999999999</ele>
        <time>2025-05-16T10:15:57Z</time>
      </trkpt>
      <trkpt lat="43.314028037711978" lon="3.423227006569505">
        <ele>20.809999999999999</ele>
        <time>2025-05-16T10:16:05Z</time>
      </trkpt>
      <trkpt lat="43.314028037711978" lon="3.423575023189187">
        <ele>20.809999999999999</ele>
        <time>2025-05-16T10:16:08Z</time>
      </trkpt>
      <trkpt lat="43.314028037711978" lon="3.423705026507378">
        <ele>20.32</ele>
        <time>2025-05-16T10:16:09Z</time>
      </trkpt>
      <trkpt lat="43.314028037711978" lon="3.42384098097682">
        <ele>20.32</ele>
        <time>2025-05-16T10:16:10Z</time>
      </trkpt>
      <trkpt lat="43.314049998298287" lon="3.425778960809112">
        <ele>16.48</ele>
        <time>2025-05-16T10:16:22Z</time>
      </trkpt>
      <trkpt lat="43.314062990248203" lon="3.427740996703506">
        <ele>13.6</ele>
        <time>2025-05-16T10:16:31Z</time>
      </trkpt>
      <trkpt lat="43.314094003289938" lon="3.430216005071998">
        <ele>12.15</ele>
        <time>2025-05-16T10:16:40Z</time>
      </trkpt>
      <trkpt lat="43.314126022160053" lon="3.433155035600066">
        <ele>10.23</ele>
        <time>2025-05-16T10:16:50Z</time>
      </trkpt>
      <trkpt lat="43.314172038808465" lon="3.437039963901043">
        <ele>9.27</ele>
        <time>2025-05-16T10:17:04Z</time>
      </trkpt>
      <trkpt lat="43.314220989122987" lon="3.440907038748264">
        <ele>7.35</ele>
        <time>2025-05-16T10:17:18Z</time>
      </trkpt>
      <trkpt lat="43.314273962751031" lon="3.445342993363738">
        <ele>6.87</ele>
        <time>2025-05-16T10:17:34Z</time>
      </trkpt>
      <trkpt lat="43.314330037683249" lon="3.449484994634986">
        <ele>9.75</ele>
        <time>2025-05-16T10:17:49Z</time>
      </trkpt>
      <trkpt lat="43.314357027411461" lon="3.453097008168697">
        <ele>12.630000000000001</ele>
        <time>2025-05-16T10:18:02Z</time>
      </trkpt>
      <trkpt lat="43.314392985776067" lon="3.456701980903745">
        <ele>12.15</ele>
        <time>2025-05-16T10:18:15Z</time>
      </trkpt>
      <trkpt lat="43.31442198716104" lon="3.458228996023536">
        <ele>11.67</ele>
        <time>2025-05-16T10:18:22Z</time>
      </trkpt>
      <trkpt lat="43.314443025738001" lon="3.459855001419783">
        <ele>13.119999999999999</ele>
        <time>2025-05-16T10:18:31Z</time>
      </trkpt>
      <trkpt lat="43.314468003809452" lon="3.46212599426508">
        <ele>11.19</ele>
        <time>2025-05-16T10:18:44Z</time>
      </trkpt>
      <trkpt lat="43.314469009637833" lon="3.463557958602905">
        <ele>8.789999999999999</ele>
        <time>2025-05-16T10:18:55Z</time>
      </trkpt>
      <trkpt lat="43.314454006031156" lon="3.46367203630507">
        <ele>8.789999999999999</ele>
        <time>2025-05-16T10:18:56Z</time>
      </trkpt>
      <trkpt lat="43.314435984939337" lon="3.463804973289371">
        <ele>8.789999999999999</ele>
        <time>2025-05-16T10:18:57Z</time>
      </trkpt>
      <trkpt lat="43.314417963847518" lon="3.463885020464659">
        <ele>8.310000000000001</ele>
        <time>2025-05-16T10:18:58Z</time>
      </trkpt>
      <trkpt lat="43.314394997432828" lon="3.463983004912734">
        <ele>8.310000000000001</ele>
        <time>2025-05-16T10:18:59Z</time>
      </trkpt>
      <trkpt lat="43.314243033528328" lon="3.46406196244061">
        <ele>7.83</ele>
        <time>2025-05-16T10:19:00Z</time>
      </trkpt>
      <trkpt lat="43.314210008829832" lon="3.464095992967486">
        <ele>7.83</ele>
        <time>2025-05-16T10:19:01Z</time>
      </trkpt>
      <trkpt lat="43.31414395943284" lon="3.464178973808885">
        <ele>7.35</ele>
        <time>2025-05-16T10:19:02Z</time>
      </trkpt>
      <trkpt lat="43.31409802660346" lon="3.464319035410881">
        <ele>7.35</ele>
        <time>2025-05-16T10:19:03Z</time>
      </trkpt>
      <trkpt lat="43.314124010503292" lon="3.464424982666969">
        <ele>7.35</ele>
        <time>2025-05-16T10:19:04Z</time>
      </trkpt>
      <trkpt lat="43.314189976081252" lon="3.464524978771806">
        <ele>6.87</ele>
        <time>2025-05-16T10:19:05Z</time>
      </trkpt>
      <trkpt lat="43.314243033528328" lon="3.464577030390501">
        <ele>6.87</ele>
        <time>2025-05-16T10:19:06Z</time>
      </trkpt>
      <trkpt lat="43.314372031018138" lon="3.464655987918377">
        <ele>6.39</ele>
        <time>2025-05-16T10:19:07Z</time>
      </trkpt>
      <trkpt lat="43.314403966069221" lon="3.464772999286652">
        <ele>6.39</ele>
        <time>2025-05-16T10:19:08Z</time>
      </trkpt>
      <trkpt lat="43.314432967454195" lon="3.4648999851197">
        <ele>6.39</ele>
        <time>2025-05-16T10:19:09Z</time>
      </trkpt>
      <trkpt lat="43.314458029344678" lon="3.465016996487975">
        <ele>6.39</ele>
        <time>2025-05-16T10:19:10Z</time>
      </trkpt>
      <trkpt lat="43.314504968002439" lon="3.465336011722684">
        <ele>6.39</ele>
        <time>2025-05-16T10:19:13Z</time>
      </trkpt>
      <trkpt lat="43.314521983265877" lon="3.466502018272877">
        <ele>8.310000000000001</ele>
        <time>2025-05-16T10:19:24Z</time>
      </trkpt>
      <trkpt lat="43.314521983265877" lon="3.466611988842487">
        <ele>7.83</ele>
        <time>2025-05-16T10:19:25Z</time>
      </trkpt>
      <trkpt lat="43.314521983265877" lon="3.466721037402749">
        <ele>7.83</ele>
        <time>2025-05-16T10:19:26Z</time>
      </trkpt>
      <trkpt lat="43.314521983265877" lon="3.466834025457501">
        <ele>8.310000000000001</ele>
        <time>2025-05-16T10:19:27Z</time>
      </trkpt>
      <trkpt lat="43.314521983265877" lon="3.466943996027112">
        <ele>8.310000000000001</ele>
        <time>2025-05-16T10:19:28Z</time>
      </trkpt>
      <trkpt lat="43.314521983265877" lon="3.46706603653729">
        <ele>8.310000000000001</ele>
        <time>2025-05-16T10:19:29Z</time>
      </trkpt>
      <trkpt lat="43.314521983265877" lon="3.467126972973347">
        <ele>7.83</ele>
        <time>2025-05-16T10:19:30Z</time>
      </trkpt>
      <trkpt lat="43.314521983265877" lon="3.467214982956648">
        <ele>6.87</ele>
        <time>2025-05-16T10:19:31Z</time>
      </trkpt>
      <trkpt lat="43.314548972994089" lon="3.467514971271157">
        <ele>4.46</ele>
        <time>2025-05-16T10:19:35Z</time>
      </trkpt>
      <trkpt lat="43.314574034884572" lon="3.467596024274826">
        <ele>3.98</ele>
        <time>2025-05-16T10:19:36Z</time>
      </trkpt>
      <trkpt lat="43.31457001157105" lon="3.467701971530914">
        <ele>3.5</ele>
        <time>2025-05-16T10:19:37Z</time>
      </trkpt>
      <trkpt lat="43.314629020169377" lon="3.467773972079158">
        <ele>3.5</ele>
        <time>2025-05-16T10:19:38Z</time>
      </trkpt>
      <trkpt lat="43.314670007675886" lon="3.46782099455595">
        <ele>3.02</ele>
        <time>2025-05-16T10:19:39Z</time>
      </trkpt>
      <trkpt lat="43.314716024324298" lon="3.467873968183994">
        <ele>2.54</ele>
        <time>2025-05-16T10:19:40Z</time>
      </trkpt>
      <trkpt lat="43.31476204097271" lon="3.46792702563107">
        <ele>2.06</ele>
        <time>2025-05-16T10:19:41Z</time>
      </trkpt>
      <trkpt lat="43.314814008772373" lon="3.467985028401017">
        <ele>1.58</ele>
        <time>2025-05-16T10:19:42Z</time>
      </trkpt>
      <trkpt lat="43.314866982400417" lon="3.468046970665455">
        <ele>1.1</ele>
        <time>2025-05-16T10:19:43Z</time>
      </trkpt>
      <trkpt lat="43.314918028190732" lon="3.468103967607021">
        <ele>1.1</ele>
        <time>2025-05-16T10:19:44Z</time>
      </trkpt>
      <trkpt lat="43.314965972676873" lon="3.468154007568955">
        <ele>0.14</ele>
        <time>2025-05-16T10:19:45Z</time>
      </trkpt>
      <trkpt lat="43.315014000982046" lon="3.468202035874128">
        <ele>-0.34</ele>
        <time>2025-05-16T10:19:46Z</time>
      </trkpt>
      <trkpt lat="43.3150630351156" lon="3.468251992017031">
        <ele>-0.82</ele>
        <time>2025-05-16T10:19:47Z</time>
      </trkpt>
      <trkpt lat="43.315110979601741" lon="3.468299014493823">
        <ele>-1.3</ele>
        <time>2025-05-16T10:19:48Z</time>
      </trkpt>
      <trkpt lat="43.315163031220436" lon="3.468350982293487">
        <ele>-1.3</ele>
        <time>2025-05-16T10:19:49Z</time>
      </trkpt>
      <trkpt lat="43.315212987363338" lon="3.468433041125536">
        <ele>-1.3</ele>
        <time>2025-05-16T10:19:50Z</time>
      </trkpt>
      <trkpt lat="43.315224973484874" lon="3.468533037230372">
        <ele>-1.3</ele>
        <time>2025-05-16T10:19:51Z</time>
      </trkpt>
      <trkpt lat="43.315198989585042" lon="3.468661028891802">
        <ele>-1.3</ele>
        <time>2025-05-16T10:19:52Z</time>
      </trkpt>
      <trkpt lat="43.315164037048817" lon="3.468764964491129">
        <ele>-1.3</ele>
        <time>2025-05-16T10:19:53Z</time>
      </trkpt>
      <trkpt lat="43.315122965723276" lon="3.468862026929855">
        <ele>-0.82</ele>
        <time>2025-05-16T10:19:54Z</time>
      </trkpt>
      <trkpt lat="43.314789030700922" lon="3.469693008810282">
        <ele>0.62</ele>
        <time>2025-05-16T10:20:03Z</time>
      </trkpt>
      <trkpt lat="43.314778972417116" lon="3.469787975773215">
        <ele>0.62</ele>
        <time>2025-05-16T10:20:04Z</time>
      </trkpt>
      <trkpt lat="43.314787019044161" lon="3.469885038211942">
        <ele>0.62</ele>
        <time>2025-05-16T10:20:05Z</time>
      </trkpt>
      <trkpt lat="43.31480504013598" lon="3.46999098546803">
        <ele>0.62</ele>
        <time>2025-05-16T10:20:06Z</time>
      </trkpt>
      <trkpt lat="43.314854996278882" lon="3.470072038471699">
        <ele>0.62</ele>
        <time>2025-05-16T10:20:07Z</time>
      </trkpt>
      <trkpt lat="43.314905036240816" lon="3.470153007656336">
        <ele>0.14</ele>
        <time>2025-05-16T10:20:08Z</time>
      </trkpt>
      <trkpt lat="43.31495700404048" lon="3.470236994326115">
        <ele>-0.34</ele>
        <time>2025-05-16T10:20:09Z</time>
      </trkpt>
      <trkpt lat="43.315193960443139" lon="3.470627004280686">
        <ele>-0.34</ele>
        <time>2025-05-16T10:20:14Z</time>
      </trkpt>
      <trkpt lat="43.315222961828113" lon="3.470703028142452">
        <ele>-0.82</ele>
        <time>2025-05-16T10:20:15Z</time>
      </trkpt>
      <trkpt lat="43.315249029546976" lon="3.470808975398541">
        <ele>-0.82</ele>
        <time>2025-05-16T10:20:16Z</time>
      </trkpt>
      <trkpt lat="43.315241988748312" lon="3.47089103423059">
        <ele>-1.3</ele>
        <time>2025-05-16T10:20:17Z</time>
      </trkpt>
      <trkpt lat="43.315144004300237" lon="3.471036041155458">
        <ele>-1.3</ele>
        <time>2025-05-16T10:20:18Z</time>
      </trkpt>
      <trkpt lat="43.315144004300237" lon="3.471038974821568">
        <ele>-1.79</ele>
        <time>2025-05-16T10:20:19Z</time>
      </trkpt>
      <trkpt lat="43.315124977380037" lon="3.471122961491346">
        <ele>-1.79</ele>
        <time>2025-05-16T10:20:20Z</time>
      </trkpt>
      <trkpt lat="43.31510704010725" lon="3.471203008666635">
        <ele>-2.27</ele>
        <time>2025-05-16T10:20:21Z</time>
      </trkpt>
      <trkpt lat="43.315123971551657" lon="3.471285989508033">
        <ele>-2.27</ele>
        <time>2025-05-16T10:20:22Z</time>
      </trkpt>
      <trkpt lat="43.315160013735294" lon="3.471341980621219">
        <ele>-2.27</ele>
        <time>2025-05-16T10:20:23Z</time>
      </trkpt>
      <trkpt lat="43.315207958221436" lon="3.471357990056276">
        <ele>-2.27</ele>
        <time>2025-05-16T10:20:24Z</time>
      </trkpt>
      <trkpt lat="43.315244000405073" lon="3.471465026959777">
        <ele>-2.27</ele>
        <time>2025-05-16T10:20:25Z</time>
      </trkpt>
      <trkpt lat="43.315275013446808" lon="3.471556976437569">
        <ele>-2.27</ele>
        <time>2025-05-16T10:20:26Z</time>
      </trkpt>
      <trkpt lat="43.315312983468175" lon="3.47164498642087">
        <ele>-2.27</ele>
        <time>2025-05-16T10:20:27Z</time>
      </trkpt>
      <trkpt lat="43.315351037308574" lon="3.47173199057579">
        <ele>-2.27</ele>
        <time>2025-05-16T10:20:28Z</time>
      </trkpt>
      <trkpt lat="43.31538800150156" lon="3.471818994730711">
        <ele>-2.27</ele>
        <time>2025-05-16T10:20:29Z</time>
      </trkpt>
      <trkpt lat="43.315424965694547" lon="3.471907004714012">
        <ele>-1.79</ele>
        <time>2025-05-16T10:20:30Z</time>
      </trkpt>
      <trkpt lat="43.315463019534945" lon="3.471995014697313">
        <ele>-1.79</ele>
        <time>2025-05-16T10:20:31Z</time>
      </trkpt>
      <trkpt lat="43.315500989556313" lon="3.472084030508995">
        <ele>-1.3</ele>
        <time>2025-05-16T10:20:32Z</time>
      </trkpt>
      <trkpt lat="43.31553996540606" lon="3.472177991643548">
        <ele>-0.82</ele>
        <time>2025-05-16T10:20:33Z</time>
      </trkpt>
      <trkpt lat="43.315758984535933" lon="3.472707979381084">
        <ele>1.58</ele>
        <time>2025-05-16T10:20:39Z</time>
      </trkpt>
      <trkpt lat="43.315825033932924" lon="3.472883999347687">
        <ele>1.1</ele>
        <time>2025-05-16T10:20:41Z</time>
      </trkpt>
      <trkpt lat="43.315853029489517" lon="3.472971003502607">
        <ele>1.1</ele>
        <time>2025-05-16T10:20:42Z</time>
      </trkpt>
      <trkpt lat="43.31603198312223" lon="3.473511971533299">
        <ele>0.62</ele>
        <time>2025-05-16T10:20:48Z</time>
      </trkpt>
      <trkpt lat="43.316112030297518" lon="3.474027961492539">
        <ele>-0.34</ele>
        <time>2025-05-16T10:20:53Z</time>
      </trkpt>
      <trkpt lat="43.316128039732575" lon="3.474130975082517">
        <ele>-0.82</ele>
        <time>2025-05-16T10:20:54Z</time>
      </trkpt>
      <trkpt lat="43.316142959520221" lon="3.474236000329256">
        <ele>-1.3</ele>
        <time>2025-05-16T10:20:55Z</time>
      </trkpt>
      <trkpt lat="43.316156035289168" lon="3.474332978948951">
        <ele>-1.79</ele>
        <time>2025-05-16T10:20:56Z</time>
      </trkpt>
      <trkpt lat="43.316169027239084" lon="3.474430963397026">
        <ele>-1.79</ele>
        <time>2025-05-16T10:20:57Z</time>
      </trkpt>
      <trkpt lat="43.316191993653774" lon="3.47463003359735">
        <ele>-2.75</ele>
        <time>2025-05-16T10:20:59Z</time>
      </trkpt>
      <trkpt lat="43.316230969503522" lon="3.47471795976162">
        <ele>-3.23</ele>
        <time>2025-05-16T10:21:00Z</time>
      </trkpt>
      <trkpt lat="43.316276986151934" lon="3.474790966138244">
        <ele>-3.23</ele>
        <time>2025-05-16T10:21:01Z</time>
      </trkpt>
      <trkpt lat="43.316326020285487" lon="3.47486699000001">
        <ele>-3.71</ele>
        <time>2025-05-16T10:21:02Z</time>
      </trkpt>
      <trkpt lat="43.316372036933899" lon="3.474971009418368">
        <ele>-3.71</ele>
        <time>2025-05-16T10:21:03Z</time>
      </trkpt>
      <trkpt lat="43.316453006118536" lon="3.474898003041744">
        <ele>-3.71</ele>
        <time>2025-05-16T10:21:04Z</time>
      </trkpt>
      <trkpt lat="43.316518971696496" lon="3.474913006648421">
        <ele>-3.23</ele>
        <time>2025-05-16T10:21:05Z</time>
      </trkpt>
      <trkpt lat="43.316596001386642" lon="3.47493002191186">
        <ele>-2.75</ele>
        <time>2025-05-16T10:21:06Z</time>
      </trkpt>
      <trkpt lat="43.316680993884802" lon="3.474951982498169">
        <ele>-2.75</ele>
        <time>2025-05-16T10:21:07Z</time>
      </trkpt>
      <trkpt lat="43.316771015524864" lon="3.474977966398001">
        <ele>-2.27</ele>
        <time>2025-05-16T10:21:08Z</time>
      </trkpt>
      <trkpt lat="43.317311983555555" lon="3.475149041041732">
        <ele>-1.3</ele>
        <time>2025-05-16T10:21:14Z</time>
      </trkpt>
      <trkpt lat="43.317405022680759" lon="3.475179970264435">
        <ele>-1.3</ele>
        <time>2025-05-16T10:21:15Z</time>
      </trkpt>
      <trkpt lat="43.317505018785596" lon="3.475209977477789">
        <ele>-0.82</ele>
        <time>2025-05-16T10:21:16Z</time>
      </trkpt>
      <trkpt lat="43.317598979920149" lon="3.475235039368272">
        <ele>-1.3</ele>
        <time>2025-05-16T10:21:17Z</time>
      </trkpt>
      <trkpt lat="43.317685984075069" lon="3.475260017439723">
        <ele>-1.3</ele>
        <time>2025-05-16T10:21:18Z</time>
      </trkpt>
      <trkpt lat="43.317763013765216" lon="3.475281978026032">
        <ele>-1.3</ele>
        <time>2025-05-16T10:21:19Z</time>
      </trkpt>
      <trkpt lat="43.317956971004605" lon="3.475338974967599">
        <ele>-1.79</ele>
        <time>2025-05-16T10:21:22Z</time>
      </trkpt>
      <trkpt lat="43.318011034280062" lon="3.475355990231037">
        <ele>-1.79</ele>
        <time>2025-05-16T10:21:23Z</time>
      </trkpt>
      <trkpt lat="43.318257965147495" lon="3.475431008264422">
        <ele>-2.75</ele>
        <time>2025-05-16T10:21:28Z</time>
      </trkpt>
      <trkpt lat="43.318343963474035" lon="3.475457997992635">
        <ele>-3.71</ele>
        <time>2025-05-16T10:21:35Z</time>
      </trkpt>
      <trkpt lat="43.318366007879376" lon="3.475464032962918">
        <ele>-3.23</ele>
        <time>2025-05-16T10:21:48Z</time>
      </trkpt>
      <trkpt lat="43.318712012842298" lon="3.47557601518929">
        <ele>0.14</ele>
        <time>2025-05-16T10:21:58Z</time>
      </trkpt>
      <trkpt lat="43.319314001128078" lon="3.475762009620667">
        <ele>0.62</ele>
        <time>2025-05-16T10:22:04Z</time>
      </trkpt>
      <trkpt lat="43.320418987423182" lon="3.476121006533504">
        <ele>-0.82</ele>
        <time>2025-05-16T10:22:12Z</time>
      </trkpt>
      <trkpt lat="43.321770988404751" lon="3.476725006476045">
        <ele>5.42</ele>
        <time>2025-05-16T10:22:21Z</time>
      </trkpt>
      <trkpt lat="43.323179986327887" lon="3.477665958926082">
        <ele>7.35</ele>
        <time>2025-05-16T10:22:30Z</time>
      </trkpt>
      <trkpt lat="43.324624020606279" lon="3.47879902459681">
        <ele>7.83</ele>
        <time>2025-05-16T10:22:39Z</time>
      </trkpt>
      <trkpt lat="43.325961017981172" lon="3.479899987578392">
        <ele>13.6</ele>
        <time>2025-05-16T10:22:48Z</time>
      </trkpt>
      <trkpt lat="43.326065959408879" lon="3.480019010603428">
        <ele>14.08</ele>
        <time>2025-05-16T10:22:49Z</time>
      </trkpt>
      <trkpt lat="43.326138965785503" lon="3.480140967294574">
        <ele>14.56</ele>
        <time>2025-05-16T10:22:50Z</time>
      </trkpt>
      <trkpt lat="43.32619696855545" lon="3.480264013633132">
        <ele>15.039999999999999</ele>
        <time>2025-05-16T10:22:51Z</time>
      </trkpt>
      <trkpt lat="43.326242985203862" lon="3.48038898780942">
        <ele>15.039999999999999</ele>
        <time>2025-05-16T10:22:52Z</time>
      </trkpt>
      <trkpt lat="43.3262790273875" lon="3.480525026097894">
        <ele>15.039999999999999</ele>
        <time>2025-05-16T10:22:53Z</time>
      </trkpt>
      <trkpt lat="43.326508020982146" lon="3.48144100047648">
        <ele>12.630000000000001</ele>
        <time>2025-05-16T10:23:00Z</time>
      </trkpt>
      <trkpt lat="43.3265380281955" lon="3.48154996521771">
        <ele>12.15</ele>
        <time>2025-05-16T10:23:01Z</time>
      </trkpt>
      <trkpt lat="43.326548002660275" lon="3.481641998514533">
        <ele>12.15</ele>
        <time>2025-05-16T10:23:02Z</time>
      </trkpt>
      <trkpt lat="43.32647399045527" lon="3.48182899877429">
        <ele>11.67</ele>
        <time>2025-05-16T10:23:03Z</time>
      </trkpt>
      <trkpt lat="43.32647399045527" lon="3.481835033744574">
        <ele>11.67</ele>
        <time>2025-05-16T10:23:04Z</time>
      </trkpt>
      <trkpt lat="43.326482037082314" lon="3.48193502984941">
        <ele>11.67</ele>
        <time>2025-05-16T10:23:05Z</time>
      </trkpt>
      <trkpt lat="43.326514977961779" lon="3.482010969892144">
        <ele>11.67</ele>
        <time>2025-05-16T10:23:06Z</time>
      </trkpt>
      <trkpt lat="43.32658002153039" lon="3.48208598792553">
        <ele>11.67</ele>
        <time>2025-05-16T10:23:07Z</time>
      </trkpt>
      <trkpt lat="43.32662402652204" lon="3.482108032330871">
        <ele>11.67</ele>
        <time>2025-05-16T10:23:08Z</time>
      </trkpt>
      <trkpt lat="43.326756963506341" lon="3.482024967670441">
        <ele>11.67</ele>
        <time>2025-05-16T10:23:09Z</time>
      </trkpt>
      <trkpt lat="43.326832987368107" lon="3.482069978490472">
        <ele>11.67</ele>
        <time>2025-05-16T10:23:10Z</time>
      </trkpt>
      <trkpt lat="43.326914040371776" lon="3.482153965160251">
        <ele>12.15</ele>
        <time>2025-05-16T10:23:11Z</time>
      </trkpt>
      <trkpt lat="43.326988974586129" lon="3.482248010113835">
        <ele>12.630000000000001</ele>
        <time>2025-05-16T10:23:12Z</time>
      </trkpt>
      <trkpt lat="43.327820040285587" lon="3.483186028897762">
        <ele>13.119999999999999</ele>
        <time>2025-05-16T10:23:21Z</time>
      </trkpt>
      <trkpt lat="43.327984996140003" lon="3.483361965045333">
        <ele>12.630000000000001</ele>
        <time>2025-05-16T10:23:23Z</time>
      </trkpt>
      <trkpt lat="43.328064037486911" lon="3.483446035534143">
        <ele>12.630000000000001</ele>
        <time>2025-05-16T10:23:24Z</time>
      </trkpt>
      <trkpt lat="43.328903988003731" lon="3.484336026012898">
        <ele>11.67</ele>
        <time>2025-05-16T10:23:33Z</time>
      </trkpt>
      <trkpt lat="43.329763971269131" lon="3.485290976241231">
        <ele>11.19</ele>
        <time>2025-05-16T10:23:41Z</time>
      </trkpt>
      <trkpt lat="43.330969959497452" lon="3.486634008586407">
        <ele>12.15</ele>
        <time>2025-05-16T10:23:50Z</time>
      </trkpt>
      <trkpt lat="43.332004034891725" lon="3.487771013751626">
        <ele>14.56</ele>
        <time>2025-05-16T10:23:57Z</time>
      </trkpt>
      <trkpt lat="43.332902994006872" lon="3.488758988678455">
        <ele>17.920000000000002</ele>
        <time>2025-05-16T10:24:02Z</time>
      </trkpt>
      <trkpt lat="43.334328001365066" lon="3.490322967991233">
        <ele>23.690000000000001</ele>
        <time>2025-05-16T10:24:09Z</time>
      </trkpt>
      <trkpt lat="43.335547987371683" lon="3.491844031959772">
        <ele>24.170000000000002</ele>
        <time>2025-05-16T10:24:17Z</time>
      </trkpt>
      <trkpt lat="43.338139001280069" lon="3.495334004983306">
        <ele>14.56</ele>
        <time>2025-05-16T10:24:35Z</time>
      </trkpt>
      <trkpt lat="43.340435978025198" lon="3.498430028557777">
        <ele>12.630000000000001</ele>
        <time>2025-05-16T10:24:51Z</time>
      </trkpt>
      <trkpt lat="43.341889986768365" lon="3.500375971198082">
        <ele>14.08</ele>
        <time>2025-05-16T10:25:01Z</time>
      </trkpt>
      <trkpt lat="43.344046985730529" lon="3.503282982856035">
        <ele>13.6</ele>
        <time>2025-05-16T10:25:16Z</time>
      </trkpt>
      <trkpt lat="43.346357960253954" lon="3.506381018087268">
        <ele>16.960000000000001</ele>
        <time>2025-05-16T10:25:32Z</time>
      </trkpt>
      <trkpt lat="43.348512025550008" lon="3.509295992553234">
        <ele>19.359999999999999</ele>
        <time>2025-05-16T10:25:47Z</time>
      </trkpt>
      <trkpt lat="43.350745970383286" lon="3.512524031102657">
        <ele>22.73</ele>
        <time>2025-05-16T10:26:03Z</time>
      </trkpt>
      <trkpt lat="43.352150022983551" lon="3.515039021149278">
        <ele>16.960000000000001</ele>
        <time>2025-05-16T10:26:15Z</time>
      </trkpt>
      <trkpt lat="43.352452022954822" lon="3.515601027756929">
        <ele>14.08</ele>
        <time>2025-05-16T10:26:21Z</time>
      </trkpt>
      <trkpt lat="43.352890983223915" lon="3.516423963010311">
        <ele>13.119999999999999</ele>
        <time>2025-05-16T10:26:28Z</time>
      </trkpt>
      <trkpt lat="43.35341895930469" lon="3.517434988170862">
        <ele>11.67</ele>
        <time>2025-05-16T10:26:37Z</time>
      </trkpt>
      <trkpt lat="43.353937966749072" lon="3.518368983641267">
        <ele>11.19</ele>
        <time>2025-05-16T10:26:45Z</time>
      </trkpt>
      <trkpt lat="43.354786969721317" lon="3.51990002207458">
        <ele>9.75</ele>
        <time>2025-05-16T10:26:57Z</time>
      </trkpt>
      <trkpt lat="43.354996014386415" lon="3.520401008427143">
        <ele>8.310000000000001</ele>
        <time>2025-05-16T10:27:01Z</time>
      </trkpt>
      <trkpt lat="43.355033984407783" lon="3.520495975390077">
        <ele>8.310000000000001</ele>
        <time>2025-05-16T10:27:02Z</time>
      </trkpt>
      <trkpt lat="43.35504999384284" lon="3.520579040050507">
        <ele>7.83</ele>
        <time>2025-05-16T10:27:03Z</time>
      </trkpt>
      <trkpt lat="43.355076983571053" lon="3.520710971206427">
        <ele>7.83</ele>
        <time>2025-05-16T10:27:04Z</time>
      </trkpt>
      <trkpt lat="43.355072038248181" lon="3.520746007561684">
        <ele>7.83</ele>
        <time>2025-05-16T10:27:05Z</time>
      </trkpt>
      <trkpt lat="43.355055022984743" lon="3.520861007273197">
        <ele>7.35</ele>
        <time>2025-05-16T10:27:06Z</time>
      </trkpt>
      <trkpt lat="43.355072038248181" lon="3.520919010043144">
        <ele>7.83</ele>
        <time>2025-05-16T10:27:07Z</time>
      </trkpt>
      <trkpt lat="43.355098022148013" lon="3.521010959520936">
        <ele>7.83</ele>
        <time>2025-05-16T10:27:08Z</time>
      </trkpt>
      <trkpt lat="43.355098022148013" lon="3.521010959520936">
        <ele>7.83</ele>
        <time>2025-05-16T10:27:09Z</time>
      </trkpt>
      <trkpt lat="43.355233976617455" lon="3.521165018901229">
        <ele>7.35</ele>
        <time>2025-05-16T10:27:10Z</time>
      </trkpt>
      <trkpt lat="43.35524101741612" lon="3.521259985864162">
        <ele>7.35</ele>
        <time>2025-05-16T10:27:11Z</time>
      </trkpt>
      <trkpt lat="43.355247974395752" lon="3.521355958655477">
        <ele>6.87</ele>
        <time>2025-05-16T10:27:12Z</time>
      </trkpt>
      <trkpt lat="43.355294996872544" lon="3.521977979689837">
        <ele>4.94</ele>
        <time>2025-05-16T10:27:19Z</time>
      </trkpt>
      <trkpt lat="43.355302037671208" lon="3.522071018815041">
        <ele>4.46</ele>
        <time>2025-05-16T10:27:20Z</time>
      </trkpt>
      <trkpt lat="43.355308994650841" lon="3.522164979949594">
        <ele>3.98</ele>
        <time>2025-05-16T10:27:21Z</time>
      </trkpt>
      <trkpt lat="43.355316035449505" lon="3.522261958569288">
        <ele>3.5</ele>
        <time>2025-05-16T10:27:22Z</time>
      </trkpt>
      <trkpt lat="43.355325004085898" lon="3.522375030443072">
        <ele>3.02</ele>
        <time>2025-05-16T10:27:23Z</time>
      </trkpt>
      <trkpt lat="43.355331961065531" lon="3.522481983527541">
        <ele>2.54</ele>
        <time>2025-05-16T10:27:24Z</time>
      </trkpt>
      <trkpt lat="43.355340007692575" lon="3.5225860029459">
        <ele>1.1</ele>
        <time>2025-05-16T10:27:25Z</time>
      </trkpt>
      <trkpt lat="43.355348976328969" lon="3.522705025970936">
        <ele>0.62</ele>
        <time>2025-05-16T10:27:26Z</time>
      </trkpt>
      <trkpt lat="43.355359034612775" lon="3.522831005975604">
        <ele>0.14</ele>
        <time>2025-05-16T10:27:27Z</time>
      </trkpt>
      <trkpt lat="43.35537102073431" lon="3.522956985980272">
        <ele>-0.34</ele>
        <time>2025-05-16T10:27:28Z</time>
      </trkpt>
      <trkpt lat="43.355382001027465" lon="3.523087995126844">
        <ele>-0.82</ele>
        <time>2025-05-16T10:27:29Z</time>
      </trkpt>
      <trkpt lat="43.355419971048832" lon="3.523607002571225">
        <ele>-1.3</ele>
        <time>2025-05-16T10:27:33Z</time>
      </trkpt>
      <trkpt lat="43.355432962998748" lon="3.523839013651013">
        <ele>-2.27</ele>
        <time>2025-05-16T10:27:35Z</time>
      </trkpt>
      <trkpt lat="43.355440003797412" lon="3.523970022797585">
        <ele>-3.23</ele>
        <time>2025-05-16T10:27:36Z</time>
      </trkpt>
      <trkpt lat="43.355442015454173" lon="3.524097008630633">
        <ele>-3.23</ele>
        <time>2025-05-16T10:27:37Z</time>
      </trkpt>
      <trkpt lat="43.355442015454173" lon="3.524213014170528">
        <ele>-3.71</ele>
        <time>2025-05-16T10:27:38Z</time>
      </trkpt>
      <trkpt lat="43.355449978262186" lon="3.52432700805366">
        <ele>-4.19</ele>
        <time>2025-05-16T10:27:39Z</time>
      </trkpt>
      <trkpt lat="43.355533964931965" lon="3.52524901740253">
        <ele>-7.55</ele>
        <time>2025-05-16T10:27:48Z</time>
      </trkpt>
      <trkpt lat="43.355576964095235" lon="3.52587103843689">
        <ele>-7.55</ele>
        <time>2025-05-16T10:27:54Z</time>
      </trkpt>
      <trkpt lat="43.355584004893899" lon="3.525971034541726">
        <ele>-6.59</ele>
        <time>2025-05-16T10:27:55Z</time>
      </trkpt>
      <trkpt lat="43.355590039864182" lon="3.526061978191137">
        <ele>-5.63</ele>
        <time>2025-05-16T10:27:56Z</time>
      </trkpt>
      <trkpt lat="43.355625998228788" lon="3.526563970372081">
        <ele>0.14</ele>
        <time>2025-05-16T10:28:02Z</time>
      </trkpt>
      <trkpt lat="43.355632033199072" lon="3.526638988405466">
        <ele>1.58</ele>
        <time>2025-05-16T10:28:03Z</time>
      </trkpt>
      <trkpt lat="43.355637984350324" lon="3.526716018095613">
        <ele>2.54</ele>
        <time>2025-05-16T10:28:04Z</time>
      </trkpt>
      <trkpt lat="43.355644019320607" lon="3.52679698728025">
        <ele>3.5</ele>
        <time>2025-05-16T10:28:05Z</time>
      </trkpt>
      <trkpt lat="43.355649970471859" lon="3.526879968121648">
        <ele>4.94</ele>
        <time>2025-05-16T10:28:06Z</time>
      </trkpt>
      <trkpt lat="43.355656005442142" lon="3.526954986155033">
        <ele>5.91</ele>
        <time>2025-05-16T10:28:07Z</time>
      </trkpt>
      <trkpt lat="43.355656005442142" lon="3.52703201584518">
        <ele>6.87</ele>
        <time>2025-05-16T10:28:08Z</time>
      </trkpt>
      <trkpt lat="43.355656005442142" lon="3.527105022221804">
        <ele>7.83</ele>
        <time>2025-05-16T10:28:09Z</time>
      </trkpt>
      <trkpt lat="43.355656005442142" lon="3.527178028598428">
        <ele>8.789999999999999</ele>
        <time>2025-05-16T10:28:10Z</time>
      </trkpt>
      <trkpt lat="43.355631027370691" lon="3.527235025539994">
        <ele>10.23</ele>
        <time>2025-05-16T10:28:11Z</time>
      </trkpt>
      <trkpt lat="43.355602025985718" lon="3.527285987511277">
        <ele>11.19</ele>
        <time>2025-05-16T10:28:12Z</time>
      </trkpt>
      <trkpt lat="43.355579981580377" lon="3.527323035523295">
        <ele>12.15</ele>
        <time>2025-05-16T10:28:13Z</time>
      </trkpt>
      <trkpt lat="43.355528013780713" lon="3.527372991666198">
        <ele>15.039999999999999</ele>
        <time>2025-05-16T10:28:21Z</time>
      </trkpt>
      <trkpt lat="43.355293991044164" lon="3.527552029117942">
        <ele>19.359999999999999</ele>
        <time>2025-05-16T10:28:29Z</time>
      </trkpt>
      <trkpt lat="43.355147978290915" lon="3.52765797637403">
        <ele>18.879999999999999</ele>
        <time>2025-05-16T10:28:33Z</time>
      </trkpt>
      <trkpt lat="43.355141021311283" lon="3.527663005515933">
        <ele>18.399999999999999</ele>
        <time>2025-05-16T10:28:34Z</time>
      </trkpt>
      <trkpt lat="43.355076983571053" lon="3.527749003842473">
        <ele>17.440000000000001</ele>
        <time>2025-05-16T10:28:36Z</time>
      </trkpt>
      <trkpt lat="43.354990985244513" lon="3.527833996340632">
        <ele>17.440000000000001</ele>
        <time>2025-05-16T10:28:37Z</time>
      </trkpt>
      <trkpt lat="43.3549830224365" lon="3.527847994118929">
        <ele>16.960000000000001</ele>
        <time>2025-05-16T10:28:38Z</time>
      </trkpt>
      <trkpt lat="43.354858970269561" lon="3.528167009353638">
        <ele>16.48</ele>
        <time>2025-05-16T10:28:43Z</time>
      </trkpt>
      <trkpt lat="43.354839021340013" lon="3.528234986588359">
        <ele>16</ele>
        <time>2025-05-16T10:28:44Z</time>
      </trkpt>
      <trkpt lat="43.354796022176743" lon="3.528380999341607">
        <ele>15.039999999999999</ele>
        <time>2025-05-16T10:28:46Z</time>
      </trkpt>
      <trkpt lat="43.35477096028626" lon="3.528461968526244">
        <ele>15.039999999999999</ele>
        <time>2025-05-16T10:28:47Z</time>
      </trkpt>
      <trkpt lat="43.354542972519994" lon="3.529372997581959">
        <ele>11.67</ele>
        <time>2025-05-16T10:28:58Z</time>
      </trkpt>
      <trkpt lat="43.354540038853884" lon="3.529400993138552">
        <ele>11.19</ele>
        <time>2025-05-16T10:28:59Z</time>
      </trkpt>
      <trkpt lat="43.354476001113653" lon="3.529508030042052">
        <ele>10.710000000000001</ele>
        <time>2025-05-16T10:29:00Z</time>
      </trkpt>
      <trkpt lat="43.354497039690614" lon="3.529561003670096">
        <ele>10.23</ele>
        <time>2025-05-16T10:29:01Z</time>
      </trkpt>
      <trkpt lat="43.354519000276923" lon="3.529614983126521">
        <ele>9.75</ele>
        <time>2025-05-16T10:29:02Z</time>
      </trkpt>
      <trkpt lat="43.354558981955051" lon="3.529591010883451">
        <ele>9.75</ele>
        <time>2025-05-16T10:29:03Z</time>
      </trkpt>
      <trkpt lat="43.35459703579545" lon="3.529568966478109">
        <ele>9.27</ele>
        <time>2025-05-16T10:29:04Z</time>
      </trkpt>
      <trkpt lat="43.3546859677881" lon="3.529584975913167">
        <ele>9.27</ele>
        <time>2025-05-16T10:29:05Z</time>
      </trkpt>
      <trkpt lat="43.35472896695137" lon="3.52961003780365">
        <ele>8.789999999999999</ele>
        <time>2025-05-16T10:29:06Z</time>
      </trkpt>
      <trkpt lat="43.354871040210128" lon="3.529674997553229">
        <ele>7.83</ele>
        <time>2025-05-16T10:29:09Z</time>
      </trkpt>
      <trkpt lat="43.35492099635303" lon="3.529694024473429">
        <ele>7.83</ele>
        <time>2025-05-16T10:29:10Z</time>
      </trkpt>
      <trkpt lat="43.354972964152694" lon="3.529714979231358">
        <ele>7.35</ele>
        <time>2025-05-16T10:29:11Z</time>
      </trkpt>
      <trkpt lat="43.355829007923603" lon="3.530052015557885">
        <ele>6.39</ele>
        <time>2025-05-16T10:29:25Z</time>
      </trkpt>
      <trkpt lat="43.356026988476515" lon="3.530129967257381">
        <ele>6.39</ele>
        <time>2025-05-16T10:29:28Z</time>
      </trkpt>
      <trkpt lat="43.356831986457109" lon="3.530436996370554">
        <ele>8.310000000000001</ele>
        <time>2025-05-16T10:29:40Z</time>
      </trkpt>
      <trkpt lat="43.357266001403332" lon="3.530580997467041">
        <ele>8.310000000000001</ele>
        <time>2025-05-16T10:29:47Z</time>
      </trkpt>
      <trkpt lat="43.357360968366265" lon="3.530520983040333">
        <ele>8.789999999999999</ele>
        <time>2025-05-16T10:29:48Z</time>
      </trkpt>
      <trkpt lat="43.357422994449735" lon="3.530483013018966">
        <ele>9.27</ele>
        <time>2025-05-16T10:29:49Z</time>
      </trkpt>
      <trkpt lat="43.357464987784624" lon="3.530435990542173">
        <ele>9.75</ele>
        <time>2025-05-16T10:29:50Z</time>
      </trkpt>
      <trkpt lat="43.357506981119514" lon="3.530374970287085">
        <ele>10.23</ele>
        <time>2025-05-16T10:29:51Z</time>
      </trkpt>
      <trkpt lat="43.357538999989629" lon="3.530301963910461">
        <ele>10.710000000000001</ele>
        <time>2025-05-16T10:29:52Z</time>
      </trkpt>
      <trkpt lat="43.357569007202983" lon="3.530232980847359">
        <ele>10.710000000000001</ele>
        <time>2025-05-16T10:29:53Z</time>
      </trkpt>
      <trkpt lat="43.357598008587956" lon="3.530166009441018">
        <ele>11.19</ele>
        <time>2025-05-16T10:29:54Z</time>
      </trkpt>
      <trkpt lat="43.357802024111152" lon="3.529700981453061">
        <ele>12.15</ele>
        <time>2025-05-16T10:30:01Z</time>
      </trkpt>
      <trkpt lat="43.357822978869081" lon="3.529614983126521">
        <ele>13.119999999999999</ele>
        <time>2025-05-16T10:30:03Z</time>
      </trkpt>
      <trkpt lat="43.357921969145536" lon="3.529614983126521">
        <ele>13.119999999999999</ele>
        <time>2025-05-16T10:30:04Z</time>
      </trkpt>
      <trkpt lat="43.357973014935851" lon="3.529614983126521">
        <ele>13.119999999999999</ele>
        <time>2025-05-16T10:30:05Z</time>
      </trkpt>
      <trkpt lat="43.358020037412643" lon="3.529639961197972">
        <ele>13.119999999999999</ele>
        <time>2025-05-16T10:30:06Z</time>
      </trkpt>
      <trkpt lat="43.358089020475745" lon="3.529677009209991">
        <ele>13.119999999999999</ele>
        <time>2025-05-16T10:30:07Z</time>
      </trkpt>
      <trkpt lat="43.358571985736489" lon="3.529935004189611">
        <ele>12.15</ele>
        <time>2025-05-16T10:30:14Z</time>
      </trkpt>
      <trkpt lat="43.358632000163198" lon="3.529967023059726">
        <ele>12.15</ele>
        <time>2025-05-16T10:30:15Z</time>
      </trkpt>
      <trkpt lat="43.35887398570776" lon="3.530095014721155">
        <ele>12.15</ele>
        <time>2025-05-16T10:30:19Z</time>
      </trkpt>
      <trkpt lat="43.358939029276371" lon="3.530130973085761">
        <ele>12.630000000000001</ele>
        <time>2025-05-16T10:30:20Z</time>
      </trkpt>
      <trkpt lat="43.358997032046318" lon="3.530175983905792">
        <ele>12.630000000000001</ele>
        <time>2025-05-16T10:30:21Z</time>
      </trkpt>
      <trkpt lat="43.35904598236084" lon="3.530215965583921">
        <ele>12.630000000000001</ele>
        <time>2025-05-16T10:30:22Z</time>
      </trkpt>
      <trkpt lat="43.359076995402575" lon="3.530361978337169">
        <ele>12.630000000000001</ele>
        <time>2025-05-16T10:30:23Z</time>
      </trkpt>
      <trkpt lat="43.359156036749482" lon="3.530306993052363">
        <ele>13.119999999999999</ele>
        <time>2025-05-16T10:30:24Z</time>
      </trkpt>
      <trkpt lat="43.359231976792216" lon="3.530321996659041">
        <ele>13.119999999999999</ele>
        <time>2025-05-16T10:30:25Z</time>
      </trkpt>
      <trkpt lat="43.359315041452646" lon="3.530338006094098">
        <ele>13.6</ele>
        <time>2025-05-16T10:30:26Z</time>
      </trkpt>
      <trkpt lat="43.359402967616916" lon="3.530356027185917">
        <ele>14.08</ele>
        <time>2025-05-16T10:30:27Z</time>
      </trkpt>
      <trkpt lat="43.360370993614197" lon="3.530558031052351">
        <ele>17.920000000000002</ele>
        <time>2025-05-16T10:30:37Z</time>
      </trkpt>
      <trkpt lat="43.360973987728357" lon="3.530626008287072">
        <ele>21.289999999999999</ele>
        <time>2025-05-16T10:30:45Z</time>
      </trkpt>
      <trkpt lat="43.361084964126348" lon="3.530637994408608">
        <ele>21.77</ele>
        <time>2025-05-16T10:30:46Z</time>
      </trkpt>
      <trkpt lat="43.362201014533639" lon="3.53060002438724">
        <ele>21.289999999999999</ele>
        <time>2025-05-16T10:30:53Z</time>
      </trkpt>
      <trkpt lat="43.364324988797307" lon="3.530502039939165">
        <ele>16.960000000000001</ele>
        <time>2025-05-16T10:31:05Z</time>
      </trkpt>
      <trkpt lat="43.365912018343806" lon="3.530753999948502">
        <ele>15.039999999999999</ele>
        <time>2025-05-16T10:31:16Z</time>
      </trkpt>
      <trkpt lat="43.367065032944083" lon="3.531173011288047">
        <ele>13.6</ele>
        <time>2025-05-16T10:31:22Z</time>
      </trkpt>
      <trkpt lat="43.368839984759688" lon="3.531830990687013">
        <ele>12.15</ele>
        <time>2025-05-16T10:31:31Z</time>
      </trkpt>
      <trkpt lat="43.371230000630021" lon="3.532704971730709">
        <ele>11.67</ele>
        <time>2025-05-16T10:31:45Z</time>
      </trkpt>
      <trkpt lat="43.373887985944748" lon="3.533553974702954">
        <ele>21.289999999999999</ele>
        <time>2025-05-16T10:31:59Z</time>
      </trkpt>
      <trkpt lat="43.376888958737254" lon="3.53429401293397">
        <ele>23.690000000000001</ele>
        <time>2025-05-16T10:32:14Z</time>
      </trkpt>
      <trkpt lat="43.379482990130782" lon="3.534934977069497">
        <ele>18.399999999999999</ele>
        <time>2025-05-16T10:32:27Z</time>
      </trkpt>
      <trkpt lat="43.383247973397374" lon="3.535861009731889">
        <ele>10.710000000000001</ele>
        <time>2025-05-16T10:32:46Z</time>
      </trkpt>
      <trkpt lat="43.386023975908756" lon="3.536544973030686">
        <ele>8.789999999999999</ele>
        <time>2025-05-16T10:33:00Z</time>
      </trkpt>
      <trkpt lat="43.389183031395078" lon="3.53730596601963">
        <ele>16.48</ele>
        <time>2025-05-16T10:33:16Z</time>
      </trkpt>
      <trkpt lat="43.391206003725529" lon="3.537761019542813">
        <ele>22.25</ele>
        <time>2025-05-16T10:33:26Z</time>
      </trkpt>
      <trkpt lat="43.393823001533747" lon="3.538158992305398">
        <ele>20.32</ele>
        <time>2025-05-16T10:33:39Z</time>
      </trkpt>
      <trkpt lat="43.396831015124917" lon="3.538602981716394">
        <ele>16.48</ele>
        <time>2025-05-16T10:33:54Z</time>
      </trkpt>
      <trkpt lat="43.399085998535156" lon="3.538930965587497">
        <ele>18.879999999999999</ele>
        <time>2025-05-16T10:34:06Z</time>
      </trkpt>
      <trkpt lat="43.400541013106704" lon="3.539145961403847">
        <ele>20.32</ele>
        <time>2025-05-16T10:34:15Z</time>
      </trkpt>
      <trkpt lat="43.402607990428805" lon="3.539566984400153">
        <ele>15.039999999999999</ele>
        <time>2025-05-16T10:34:27Z</time>
      </trkpt>
      <trkpt lat="43.404042972251773" lon="3.540194034576416">
        <ele>12.15</ele>
        <time>2025-05-16T10:34:36Z</time>
      </trkpt>
      <trkpt lat="43.406331986188889" lon="3.541267002001405">
        <ele>10.23</ele>
        <time>2025-05-16T10:34:49Z</time>
      </trkpt>
      <trkpt lat="43.40833299793303" lon="3.542212983593345">
        <ele>12.15</ele>
        <time>2025-05-16T10:35:00Z</time>
      </trkpt>
      <trkpt lat="43.411411000415683" lon="3.543656012043357">
        <ele>17.440000000000001</ele>
        <time>2025-05-16T10:35:17Z</time>
      </trkpt>
      <trkpt lat="43.412675997242332" lon="3.544240985065699">
        <ele>20.32</ele>
        <time>2025-05-16T10:35:25Z</time>
      </trkpt>
      <trkpt lat="43.414581958204508" lon="3.545160982757807">
        <ele>21.289999999999999</ele>
        <time>2025-05-16T10:35:36Z</time>
      </trkpt>
      <trkpt lat="43.416017023846507" lon="3.545913007110357">
        <ele>20.809999999999999</ele>
        <time>2025-05-16T10:35:45Z</time>
      </trkpt>
      <trkpt lat="43.418463030830026" lon="3.547256961464882">
        <ele>17.920000000000002</ele>
        <time>2025-05-16T10:36:00Z</time>
      </trkpt>
      <trkpt lat="43.420810969546437" lon="3.548541991040111">
        <ele>16.48</ele>
        <time>2025-05-16T10:36:14Z</time>
      </trkpt>
      <trkpt lat="43.422689018771052" lon="3.549779998138547">
        <ele>14.08</ele>
        <time>2025-05-16T10:36:26Z</time>
      </trkpt>
      <trkpt lat="43.422807035967708" lon="3.549951994791627">
        <ele>14.08</ele>
        <time>2025-05-16T10:36:27Z</time>
      </trkpt>
      <trkpt lat="43.422922035679221" lon="3.550119968131185">
        <ele>14.08</ele>
        <time>2025-05-16T10:36:28Z</time>
      </trkpt>
      <trkpt lat="43.423765003681183" lon="3.551760977134109">
        <ele>14.08</ele>
        <time>2025-05-16T10:36:37Z</time>
      </trkpt>
      <trkpt lat="43.424862027168274" lon="3.554001040756702">
        <ele>16.48</ele>
        <time>2025-05-16T10:36:48Z</time>
      </trkpt>
      <trkpt lat="43.426171028986573" lon="3.5566829983145">
        <ele>19.84</ele>
        <time>2025-05-16T10:37:00Z</time>
      </trkpt>
      <trkpt lat="43.427423033863306" lon="3.559226989746094">
        <ele>21.289999999999999</ele>
        <time>2025-05-16T10:37:11Z</time>
      </trkpt>
      <trkpt lat="43.428664980456233" lon="3.561743991449475">
        <ele>23.690000000000001</ele>
        <time>2025-05-16T10:37:22Z</time>
      </trkpt>
      <trkpt lat="43.430150002241135" lon="3.564717974513769">
        <ele>29.940000000000001</ele>
        <time>2025-05-16T10:37:36Z</time>
      </trkpt>
      <trkpt lat="43.431778019294143" lon="3.56710103340447">
        <ele>29.460000000000001</ele>
        <time>2025-05-16T10:37:48Z</time>
      </trkpt>
      <trkpt lat="43.433201014995575" lon="3.568852012977004">
        <ele>24.170000000000002</ele>
        <time>2025-05-16T10:37:58Z</time>
      </trkpt>
      <trkpt lat="43.434597020968795" lon="3.570549013093114">
        <ele>21.77</ele>
        <time>2025-05-16T10:38:09Z</time>
      </trkpt>
      <trkpt lat="43.435802003368735" lon="3.572049038484693">
        <ele>22.73</ele>
        <time>2025-05-16T10:38:20Z</time>
      </trkpt>
      <trkpt lat="43.437020983546972" lon="3.573545962572098">
        <ele>18.879999999999999</ele>
        <time>2025-05-16T10:38:30Z</time>
      </trkpt>
      <trkpt lat="43.438161006197333" lon="3.574958983808756">
        <ele>16.960000000000001</ele>
        <time>2025-05-16T10:38:39Z</time>
      </trkpt>
      <trkpt lat="43.438869025558233" lon="3.575845034793019">
        <ele>16.48</ele>
        <time>2025-05-16T10:38:46Z</time>
      </trkpt>
      <trkpt lat="43.439423991367221" lon="3.576606027781963">
        <ele>16.48</ele>
        <time>2025-05-16T10:38:55Z</time>
      </trkpt>
      <trkpt lat="43.43952901661396" lon="3.576824963092804">
        <ele>16.48</ele>
        <time>2025-05-16T10:39:04Z</time>
      </trkpt>
      <trkpt lat="43.439577966928482" lon="3.576928982511163">
        <ele>16.48</ele>
        <time>2025-05-16T10:39:08Z</time>
      </trkpt>
      <trkpt lat="43.439619960263371" lon="3.577014980837703">
        <ele>16.48</ele>
        <time>2025-05-16T10:39:09Z</time>
      </trkpt>
      <trkpt lat="43.439649967476726" lon="3.577226037159562">
        <ele>16.48</ele>
        <time>2025-05-16T10:39:11Z</time>
      </trkpt>
      <trkpt lat="43.439662959426641" lon="3.577315974980593">
        <ele>16.48</ele>
        <time>2025-05-16T10:39:12Z</time>
      </trkpt>
      <trkpt lat="43.439627001062036" lon="3.577517978847027">
        <ele>16</ele>
        <time>2025-05-16T10:39:13Z</time>
      </trkpt>
      <trkpt lat="43.439599005505443" lon="3.577681006863713">
        <ele>16</ele>
        <time>2025-05-16T10:39:14Z</time>
      </trkpt>
      <trkpt lat="43.439542008563876" lon="3.577814027667046">
        <ele>16</ele>
        <time>2025-05-16T10:39:15Z</time>
      </trkpt>
      <trkpt lat="43.439475959166884" lon="3.577971020713449">
        <ele>15.52</ele>
        <time>2025-05-16T10:39:16Z</time>
      </trkpt>
      <trkpt lat="43.438802976161242" lon="3.579591996967793">
        <ele>15.039999999999999</ele>
        <time>2025-05-16T10:39:24Z</time>
      </trkpt>
      <trkpt lat="43.437407976016402" lon="3.582789022475481">
        <ele>12.15</ele>
        <time>2025-05-16T10:39:37Z</time>
      </trkpt>
      <trkpt lat="43.436227971687913" lon="3.585467040538788">
        <ele>12.15</ele>
        <time>2025-05-16T10:39:48Z</time>
      </trkpt>
      <trkpt lat="43.435273021459579" lon="3.587670978158712">
        <ele>17.440000000000001</ele>
        <time>2025-05-16T10:39:58Z</time>
      </trkpt>
      <trkpt lat="43.434188989922404" lon="3.590048002079129">
        <ele>24.170000000000002</ele>
        <time>2025-05-16T10:40:09Z</time>
      </trkpt>
      <trkpt lat="43.433252982795238" lon="3.592180022969842">
        <ele>27.050000000000001</ele>
        <time>2025-05-16T10:40:22Z</time>
      </trkpt>
      <trkpt lat="43.432528031989932" lon="3.593805022537708">
        <ele>27.050000000000001</ele>
        <time>2025-05-16T10:40:34Z</time>
      </trkpt>
      <trkpt lat="43.431738037616014" lon="3.595603024587035">
        <ele>24.649999999999999</ele>
        <time>2025-05-16T10:40:47Z</time>
      </trkpt>
      <trkpt lat="43.431364959105849" lon="3.596353037282825">
        <ele>21.77</ele>
        <time>2025-05-16T10:40:55Z</time>
      </trkpt>
      <trkpt lat="43.431122973561287" lon="3.596392013132572">
        <ele>20.809999999999999</ele>
        <time>2025-05-16T10:40:59Z</time>
      </trkpt>
      <trkpt lat="43.431122973561287" lon="3.596392013132572">
        <ele>20.32</ele>
        <time>2025-05-16T10:41:00Z</time>
      </trkpt>
      <trkpt lat="43.431115010753274" lon="3.596392013132572">
        <ele>20.32</ele>
        <time>2025-05-16T10:41:01Z</time>
      </trkpt>
      <trkpt lat="43.4309789724648" lon="3.596392013132572">
        <ele>19.84</ele>
        <time>2025-05-16T10:41:03Z</time>
      </trkpt>
      <trkpt lat="43.43089297413826" lon="3.596462002024055">
        <ele>19.84</ele>
        <time>2025-05-16T10:41:04Z</time>
      </trkpt>
      <trkpt lat="43.430833965539932" lon="3.596540037542582">
        <ele>19.359999999999999</ele>
        <time>2025-05-16T10:41:05Z</time>
      </trkpt>
      <trkpt lat="43.430791972205043" lon="3.59662301838398">
        <ele>19.359999999999999</ele>
        <time>2025-05-16T10:41:06Z</time>
      </trkpt>
      <trkpt lat="43.430794989690185" lon="3.596768025308847">
        <ele>19.359999999999999</ele>
        <time>2025-05-16T10:41:07Z</time>
      </trkpt>
      <trkpt lat="43.430810999125242" lon="3.596884030848742">
        <ele>19.359999999999999</ele>
        <time>2025-05-16T10:41:08Z</time>
      </trkpt>
      <trkpt lat="43.430831031873822" lon="3.597006993368268">
        <ele>19.84</ele>
        <time>2025-05-16T10:41:09Z</time>
      </trkpt>
      <trkpt lat="43.430857015773654" lon="3.597121993079782">
        <ele>19.84</ele>
        <time>2025-05-16T10:41:10Z</time>
      </trkpt>
      <trkpt lat="43.430887022987008" lon="3.597249984741211">
        <ele>19.84</ele>
        <time>2025-05-16T10:41:11Z</time>
      </trkpt>
      <trkpt lat="43.430878976359963" lon="3.59735500998795">
        <ele>19.84</ele>
        <time>2025-05-16T10:41:12Z</time>
      </trkpt>
      <trkpt lat="43.430869001895189" lon="3.597477972507477">
        <ele>20.32</ele>
        <time>2025-05-16T10:41:13Z</time>
      </trkpt>
      <trkpt lat="43.430832037702203" lon="3.597604036331177">
        <ele>19.84</ele>
        <time>2025-05-16T10:41:14Z</time>
      </trkpt>
      <trkpt lat="43.43078400939703" lon="3.597713001072407">
        <ele>19.84</ele>
        <time>2025-05-16T10:41:15Z</time>
      </trkpt>
      <trkpt lat="43.430733969435096" lon="3.597824983298779">
        <ele>19.84</ele>
        <time>2025-05-16T10:41:16Z</time>
      </trkpt>
      <trkpt lat="43.430306995287538" lon="3.598796026781201">
        <ele>18.399999999999999</ele>
        <time>2025-05-16T10:41:26Z</time>
      </trkpt>
      <trkpt lat="43.429857976734638" lon="3.599830018356443">
        <ele>16.48</ele>
        <time>2025-05-16T10:41:37Z</time>
      </trkpt>
      <trkpt lat="43.429733002558351" lon="3.600119026377797">
        <ele>14.08</ele>
        <time>2025-05-16T10:41:44Z</time>
      </trkpt>
      <trkpt lat="43.429733002558351" lon="3.600119026377797">
        <ele>14.08</ele>
        <time>2025-05-16T10:42:04Z</time>
      </trkpt>
      <trkpt lat="43.429657984524965" lon="3.600299991667271">
        <ele>16</ele>
        <time>2025-05-16T10:42:30Z</time>
      </trkpt>
      <trkpt lat="43.429187005385756" lon="3.601345969364047">
        <ele>20.32</ele>
        <time>2025-05-16T10:42:41Z</time>
      </trkpt>
      <trkpt lat="43.428724994882941" lon="3.602394964545965">
        <ele>19.84</ele>
        <time>2025-05-16T10:42:52Z</time>
      </trkpt>
      <trkpt lat="43.428590968251228" lon="3.602695036679506">
        <ele>19.84</ele>
        <time>2025-05-16T10:42:55Z</time>
      </trkpt>
      <trkpt lat="43.428109008818865" lon="3.603765992447734">
        <ele>17.440000000000001</ele>
        <time>2025-05-16T10:43:06Z</time>
      </trkpt>
      <trkpt lat="43.427932988852262" lon="3.604173017665744">
        <ele>16.960000000000001</ele>
        <time>2025-05-16T10:43:10Z</time>
      </trkpt>
      <trkpt lat="43.427889989688993" lon="3.604275025427342">
        <ele>16.960000000000001</ele>
        <time>2025-05-16T10:43:11Z</time>
      </trkpt>
      <trkpt lat="43.427702989429235" lon="3.604707028716803">
        <ele>17.440000000000001</ele>
        <time>2025-05-16T10:43:18Z</time>
      </trkpt>
      <trkpt lat="43.427610034123063" lon="3.604884976521134">
        <ele>17.440000000000001</ele>
        <time>2025-05-16T10:43:26Z</time>
      </trkpt>
      <trkpt lat="43.427422028034925" lon="3.60504599288106">
        <ele>17.440000000000001</ele>
        <time>2025-05-16T10:43:33Z</time>
      </trkpt>
      <trkpt lat="43.427410963922739" lon="3.605115981772542">
        <ele>17.440000000000001</ele>
        <time>2025-05-16T10:43:34Z</time>
      </trkpt>
      <trkpt lat="43.427424961701035" lon="3.605203991755843">
        <ele>17.440000000000001</ele>
        <time>2025-05-16T10:43:35Z</time>
      </trkpt>
      <trkpt lat="43.427453963086009" lon="3.605231987312436">
        <ele>17.440000000000001</ele>
        <time>2025-05-16T10:43:36Z</time>
      </trkpt>
      <trkpt lat="43.427568040788174" lon="3.605245985090733">
        <ele>17.440000000000001</ele>
        <time>2025-05-16T10:43:37Z</time>
      </trkpt>
      <trkpt lat="43.427601987496018" lon="3.605313962325454">
        <ele>16.960000000000001</ele>
        <time>2025-05-16T10:43:38Z</time>
      </trkpt>
      <trkpt lat="43.427746994420886" lon="3.605603976175189">
        <ele>15.52</ele>
        <time>2025-05-16T10:43:47Z</time>
      </trkpt>
      <trkpt lat="43.427900969982147" lon="3.605858031660318">
        <ele>15.039999999999999</ele>
        <time>2025-05-16T10:43:57Z</time>
      </trkpt>
      <trkpt lat="43.428069027140737" lon="3.606131030246615">
        <ele>12.630000000000001</ele>
        <time>2025-05-16T10:44:04Z</time>
      </trkpt>
      <trkpt lat="43.428025022149086" lon="3.606219962239265">
        <ele>12.15</ele>
        <time>2025-05-16T10:44:05Z</time>
      </trkpt>
      <trkpt lat="43.427986968308687" lon="3.606243012472987">
        <ele>11.19</ele>
        <time>2025-05-16T10:44:06Z</time>
      </trkpt>
      <trkpt lat="43.427940029650927" lon="3.606272013857961">
        <ele>10.710000000000001</ele>
        <time>2025-05-16T10:44:07Z</time>
      </trkpt>
      <trkpt lat="43.427889989688993" lon="3.606303026899695">
        <ele>10.23</ele>
        <time>2025-05-16T10:44:08Z</time>
      </trkpt>
      <trkpt lat="43.427284983918071" lon="3.60667996108532">
        <ele>4.46</ele>
        <time>2025-05-16T10:44:19Z</time>
      </trkpt>
      <trkpt lat="43.427064958959818" lon="3.606819016858935">
        <ele>1.58</ele>
        <time>2025-05-16T10:44:27Z</time>
      </trkpt>
      <trkpt lat="43.427048027515411" lon="3.60682899132371">
        <ele>1.1</ele>
        <time>2025-05-16T10:44:28Z</time>
      </trkpt>
      <trkpt lat="43.427017014473677" lon="3.606848018243909">
        <ele>0.14</ele>
        <time>2025-05-16T10:44:35Z</time>
      </trkpt>
      <trkpt lat="43.426999999210238" lon="3.606858998537064">
        <ele>0.14</ele>
        <time>2025-05-16T10:44:36Z</time>
      </trkpt>
      <trkpt lat="43.426999999210238" lon="3.606858998537064">
        <ele>0.14</ele>
        <time>2025-05-16T10:44:51Z</time>
      </trkpt>
      <trkpt lat="43.426999999210238" lon="3.606858998537064">
        <ele>1.58</ele>
        <time>2025-05-16T10:44:55Z</time>
      </trkpt>
      <trkpt lat="43.426940990611911" lon="3.606835026293993">
        <ele>2.06</ele>
        <time>2025-05-16T10:44:56Z</time>
      </trkpt>
      <trkpt lat="43.426872007548809" lon="3.606650959700346">
        <ele>3.02</ele>
        <time>2025-05-16T10:45:04Z</time>
      </trkpt>
      <trkpt lat="43.426864966750145" lon="3.606630004942417">
        <ele>2.54</ele>
        <time>2025-05-16T10:45:05Z</time>
      </trkpt>
      <trkpt lat="43.426824985072017" lon="3.606525985524058">
        <ele>1.58</ele>
        <time>2025-05-16T10:45:10Z</time>
      </trkpt>
      <trkpt lat="43.4268310200423" lon="3.606540989130735">
        <ele>1.58</ele>
        <time>2025-05-16T10:45:11Z</time>
      </trkpt>
      <trkpt lat="43.426820039749146" lon="3.606547024101019">
        <ele>1.1</ele>
        <time>2025-05-16T10:45:12Z</time>
      </trkpt>
      <trkpt lat="43.426799001172185" lon="3.606556998565793">
        <ele>1.1</ele>
        <time>2025-05-16T10:45:13Z</time>
      </trkpt>
      <trkpt lat="43.426777040585876" lon="3.606566973030567">
        <ele>0.62</ele>
        <time>2025-05-16T10:45:14Z</time>
      </trkpt>
      <trkpt lat="43.426749967038631" lon="3.606579964980483">
        <ele>0.62</ele>
        <time>2025-05-16T10:45:15Z</time>
      </trkpt>
      <trkpt lat="43.426722977310419" lon="3.60659203492105">
        <ele>0.62</ele>
        <time>2025-05-16T10:45:16Z</time>
      </trkpt>
      <trkpt lat="43.426693975925446" lon="3.606606032699347">
        <ele>0.14</ele>
        <time>2025-05-16T10:45:17Z</time>
      </trkpt>
      <trkpt lat="43.426298014819622" lon="3.606813987717032">
        <ele>-2.75</ele>
        <time>2025-05-16T10:45:30Z</time>
      </trkpt>
      <trkpt lat="43.425957961007953" lon="3.607056979089975">
        <ele>-5.15</ele>
        <time>2025-05-16T10:45:44Z</time>
      </trkpt>
      <trkpt lat="43.42592996545136" lon="3.607077011838555">
        <ele>-2.27</ele>
        <time>2025-05-16T10:45:56Z</time>
      </trkpt>
      <trkpt lat="43.425895012915134" lon="3.607101989910007">
        <ele>-2.27</ele>
        <time>2025-05-16T10:46:02Z</time>
      </trkpt>
      <trkpt lat="43.425780013203621" lon="3.607035018503666">
        <ele>-2.27</ele>
        <time>2025-05-16T10:46:03Z</time>
      </trkpt>
      <trkpt lat="43.425853019580245" lon="3.606840977445245">
        <ele>-3.23</ele>
        <time>2025-05-16T10:52:05Z</time>
      </trkpt>
      <trkpt lat="43.425899958238006" lon="3.606694964691997">
        <ele>1.1</ele>
        <time>2025-05-16T10:52:16Z</time>
      </trkpt>
      <trkpt lat="43.425909010693431" lon="3.606653977185488">
        <ele>0.14</ele>
        <time>2025-05-16T10:52:17Z</time>
      </trkpt>
      <trkpt lat="43.425909010693431" lon="3.606540989130735">
        <ele>1.1</ele>
        <time>2025-05-16T10:52:18Z</time>
      </trkpt>
      <trkpt lat="43.425904987379909" lon="3.606535959988833">
        <ele>0.62</ele>
        <time>2025-05-16T10:52:19Z</time>
      </trkpt>
      <trkpt lat="43.425846984609962" lon="3.606440993025899">
        <ele>-0.82</ele>
        <time>2025-05-16T10:52:21Z</time>
      </trkpt>
      <trkpt lat="43.425733996555209" lon="3.606258016079664">
        <ele>-5.15</ele>
        <time>2025-05-16T10:52:25Z</time>
      </trkpt>
      <trkpt lat="43.425710024312139" lon="3.606219962239265">
        <ele>-6.59</ele>
        <time>2025-05-16T10:52:26Z</time>
      </trkpt>
      <trkpt lat="43.425689991563559" lon="3.606188027188182">
        <ele>-7.07</ele>
        <time>2025-05-16T10:52:27Z</time>
      </trkpt>
      <trkpt lat="43.42562997713685" lon="3.606090964749456">
        <ele>-7.55</ele>
        <time>2025-05-16T10:52:29Z</time>
      </trkpt>
      <trkpt lat="43.42562997713685" lon="3.606090964749456">
        <ele>-8.029999999999999</ele>
        <time>2025-05-16T10:52:30Z</time>
      </trkpt>
      <trkpt lat="43.425613967701793" lon="3.606071015819907">
        <ele>-8.029999999999999</ele>
        <time>2025-05-16T10:52:31Z</time>
      </trkpt>
      <trkpt lat="43.425601981580257" lon="3.60605601221323">
        <ele>-8.51</ele>
        <time>2025-05-16T10:52:32Z</time>
      </trkpt>
      <trkpt lat="43.425554037094116" lon="3.605966996401548">
        <ele>-7.55</ele>
        <time>2025-05-16T10:52:33Z</time>
      </trkpt>
      <trkpt lat="43.425577003508806" lon="3.605931038036943">
        <ele>-5.63</ele>
        <time>2025-05-16T10:52:34Z</time>
      </trkpt>
      <trkpt lat="43.425599969923496" lon="3.605896001681685">
        <ele>-4.67</ele>
        <time>2025-05-16T10:52:35Z</time>
      </trkpt>
      <trkpt lat="43.425624025985599" lon="3.605857025831938">
        <ele>-3.23</ele>
        <time>2025-05-16T10:52:36Z</time>
      </trkpt>
      <trkpt lat="43.425698960199952" lon="3.605739008635283">
        <ele>-3.23</ele>
        <time>2025-05-16T10:52:39Z</time>
      </trkpt>
      <trkpt lat="43.42609902843833" lon="3.605095027014613">
        <ele>-5.15</ele>
        <time>2025-05-16T10:52:49Z</time>
      </trkpt>
      <trkpt lat="43.426544023677707" lon="3.60444400459528">
        <ele>0.14</ele>
        <time>2025-05-16T10:52:58Z</time>
      </trkpt>
      <trkpt lat="43.426634967327118" lon="3.60431500710547">
        <ele>1.1</ele>
        <time>2025-05-16T10:53:00Z</time>
      </trkpt>
      <trkpt lat="43.426674026995897" lon="3.604258010163903">
        <ele>1.58</ele>
        <time>2025-05-16T10:53:01Z</time>
      </trkpt>
      <trkpt lat="43.426711997017264" lon="3.604204030707479">
        <ele>2.54</ele>
        <time>2025-05-16T10:53:02Z</time>
      </trkpt>
      <trkpt lat="43.42674401588738" lon="3.604158014059067">
        <ele>3.5</ele>
        <time>2025-05-16T10:53:03Z</time>
      </trkpt>
      <trkpt lat="43.426768993958831" lon="3.60412297770381">
        <ele>3.98</ele>
        <time>2025-05-16T10:53:04Z</time>
      </trkpt>
      <trkpt lat="43.42678802087903" lon="3.604094982147217">
        <ele>4.46</ele>
        <time>2025-05-16T10:53:05Z</time>
      </trkpt>
      <trkpt lat="43.42680998146534" lon="3.604331016540527">
        <ele>5.42</ele>
        <time>2025-05-16T10:53:06Z</time>
      </trkpt>
      <trkpt lat="43.426829008385539" lon="3.60435800626874">
        <ele>5.91</ele>
        <time>2025-05-16T10:53:07Z</time>
      </trkpt>
      <trkpt lat="43.426884999498725" lon="3.604437969624996">
        <ele>6.39</ele>
        <time>2025-05-16T10:53:08Z</time>
      </trkpt>
      <trkpt lat="43.426944008097053" lon="3.604522962123156">
        <ele>6.87</ele>
        <time>2025-05-16T10:53:09Z</time>
      </trkpt>
      <trkpt lat="43.426994970068336" lon="3.60459596849978">
        <ele>6.87</ele>
        <time>2025-05-16T10:53:10Z</time>
      </trkpt>
      <trkpt lat="43.427044004201889" lon="3.604666041210294">
        <ele>7.35</ele>
        <time>2025-05-16T10:53:11Z</time>
      </trkpt>
      <trkpt lat="43.427093038335443" lon="3.604736030101776">
        <ele>7.83</ele>
        <time>2025-05-16T10:53:12Z</time>
      </trkpt>
      <trkpt lat="43.427185993641615" lon="3.604867961257696">
        <ele>8.310000000000001</ele>
        <time>2025-05-16T10:53:14Z</time>
      </trkpt>
      <trkpt lat="43.427223041653633" lon="3.604921018704772">
        <ele>8.310000000000001</ele>
        <time>2025-05-16T10:53:15Z</time>
      </trkpt>
      <trkpt lat="43.42728297226131" lon="3.605006011202931">
        <ele>8.789999999999999</ele>
        <time>2025-05-16T10:53:17Z</time>
      </trkpt>
      <trkpt lat="43.427315996959805" lon="3.605053033679724">
        <ele>8.789999999999999</ele>
        <time>2025-05-16T10:53:18Z</time>
      </trkpt>
      <trkpt lat="43.427353966981173" lon="3.60510902479291">
        <ele>9.27</ele>
        <time>2025-05-16T10:53:19Z</time>
      </trkpt>
      <trkpt lat="43.427701983600855" lon="3.605514960363507">
        <ele>10.23</ele>
        <time>2025-05-16T10:53:25Z</time>
      </trkpt>
      <trkpt lat="43.428390976041555" lon="3.60667702741921">
        <ele>10.23</ele>
        <time>2025-05-16T10:53:36Z</time>
      </trkpt>
      <trkpt lat="43.429285995662212" lon="3.608169006183744">
        <ele>10.710000000000001</ele>
        <time>2025-05-16T10:53:48Z</time>
      </trkpt>
      <trkpt lat="43.429552037268877" lon="3.608643002808094">
        <ele>10.710000000000001</ele>
        <time>2025-05-16T10:53:52Z</time>
      </trkpt>
      <trkpt lat="43.429562011733651" lon="3.608819022774696">
        <ele>10.710000000000001</ele>
        <time>2025-05-16T10:53:53Z</time>
      </trkpt>
      <trkpt lat="43.429492022842169" lon="3.608986996114254">
        <ele>11.19</ele>
        <time>2025-05-16T10:53:54Z</time>
      </trkpt>
      <trkpt lat="43.429492022842169" lon="3.609051033854485">
        <ele>11.67</ele>
        <time>2025-05-16T10:53:55Z</time>
      </trkpt>
      <trkpt lat="43.429532004520297" lon="3.609196040779352">
        <ele>12.15</ele>
        <time>2025-05-16T10:53:56Z</time>
      </trkpt>
      <trkpt lat="43.429555976763368" lon="3.609244991093874">
        <ele>12.15</ele>
        <time>2025-05-16T10:53:57Z</time>
      </trkpt>
      <trkpt lat="43.429691009223461" lon="3.609325038269162">
        <ele>12.15</ele>
        <time>2025-05-16T10:53:58Z</time>
      </trkpt>
      <trkpt lat="43.429782958701253" lon="3.609383041039109">
        <ele>11.67</ele>
        <time>2025-05-16T10:53:59Z</time>
      </trkpt>
      <trkpt lat="43.429873986169696" lon="3.60945101827383">
        <ele>11.19</ele>
        <time>2025-05-16T10:54:00Z</time>
      </trkpt>
      <trkpt lat="43.429969036951661" lon="3.609522012993693">
        <ele>11.19</ele>
        <time>2025-05-16T10:54:01Z</time>
      </trkpt>
      <trkpt lat="43.430066015571356" lon="3.609595019370318">
        <ele>10.710000000000001</ele>
        <time>2025-05-16T10:54:02Z</time>
      </trkpt>
      <trkpt lat="43.430155031383038" lon="3.60968898050487">
        <ele>10.710000000000001</ele>
        <time>2025-05-16T10:54:03Z</time>
      </trkpt>
      <trkpt lat="43.430230971425772" lon="3.609800040721893">
        <ele>10.23</ele>
        <time>2025-05-16T10:54:04Z</time>
      </trkpt>
      <trkpt lat="43.430300960317254" lon="3.609928032383323">
        <ele>9.75</ele>
        <time>2025-05-16T10:54:05Z</time>
      </trkpt>
      <trkpt lat="43.431206038221717" lon="3.611421016976237">
        <ele>9.27</ele>
        <time>2025-05-16T10:54:16Z</time>
      </trkpt>
      <trkpt lat="43.432354023680091" lon="3.613355979323387">
        <ele>8.310000000000001</ele>
        <time>2025-05-16T10:54:27Z</time>
      </trkpt>
      <trkpt lat="43.433879027143121" lon="3.615903994068503">
        <ele>8.789999999999999</ele>
        <time>2025-05-16T10:54:40Z</time>
      </trkpt>
      <trkpt lat="43.434993987902999" lon="3.617668971419334">
        <ele>8.310000000000001</ele>
        <time>2025-05-16T10:54:50Z</time>
      </trkpt>
      <trkpt lat="43.435048973187804" lon="3.617845997214317">
        <ele>8.310000000000001</ele>
        <time>2025-05-16T10:54:51Z</time>
      </trkpt>
      <trkpt lat="43.435074035078287" lon="3.617996033281088">
        <ele>8.310000000000001</ele>
        <time>2025-05-16T10:54:52Z</time>
      </trkpt>
      <trkpt lat="43.435091972351074" lon="3.618107009679079">
        <ele>8.310000000000001</ele>
        <time>2025-05-16T10:54:53Z</time>
      </trkpt>
      <trkpt lat="43.435075962916017" lon="3.618468018248677">
        <ele>8.310000000000001</ele>
        <time>2025-05-16T10:54:55Z</time>
      </trkpt>
      <trkpt lat="43.435163972899318" lon="3.618613025173545">
        <ele>8.310000000000001</ele>
        <time>2025-05-16T10:54:56Z</time>
      </trkpt>
      <trkpt lat="43.435252988710999" lon="3.618682008236647">
        <ele>8.310000000000001</ele>
        <time>2025-05-16T10:54:57Z</time>
      </trkpt>
      <trkpt lat="43.435366982594132" lon="3.61868703737855">
        <ele>8.789999999999999</ele>
        <time>2025-05-16T10:54:58Z</time>
      </trkpt>
      <trkpt lat="43.435500003397465" lon="3.618726013228297">
        <ele>8.789999999999999</ele>
        <time>2025-05-16T10:54:59Z</time>
      </trkpt>
      <trkpt lat="43.435581978410482" lon="3.618843024596572">
        <ele>8.310000000000001</ele>
        <time>2025-05-16T10:55:00Z</time>
      </trkpt>
      <trkpt lat="43.435714999213815" lon="3.618944026529789">
        <ele>8.310000000000001</ele>
        <time>2025-05-16T10:55:01Z</time>
      </trkpt>
      <trkpt lat="43.435797980055213" lon="3.619090961292386">
        <ele>8.310000000000001</ele>
        <time>2025-05-16T10:55:02Z</time>
      </trkpt>
      <trkpt lat="43.435894036665559" lon="3.619261030107737">
        <ele>7.83</ele>
        <time>2025-05-16T10:55:03Z</time>
      </trkpt>
      <trkpt lat="43.436852004379034" lon="3.620877983048558">
        <ele>7.83</ele>
        <time>2025-05-16T10:55:11Z</time>
      </trkpt>
      <trkpt lat="43.438113983720541" lon="3.62298896536231">
        <ele>9.75</ele>
        <time>2025-05-16T10:55:21Z</time>
      </trkpt>
      <trkpt lat="43.439686009660363" lon="3.625652985647321">
        <ele>9.27</ele>
        <time>2025-05-16T10:55:34Z</time>
      </trkpt>
      <trkpt lat="43.441228028386831" lon="3.628166969865561">
        <ele>8.789999999999999</ele>
        <time>2025-05-16T10:55:47Z</time>
      </trkpt>
      <trkpt lat="43.443032987415791" lon="3.631212031468749">
        <ele>10.23</ele>
        <time>2025-05-16T10:56:01Z</time>
      </trkpt>
      <trkpt lat="43.444447014480829" lon="3.633683016523719">
        <ele>20.32</ele>
        <time>2025-05-16T10:56:13Z</time>
      </trkpt>
      <trkpt lat="43.445291994139552" lon="3.635958032682538">
        <ele>24.170000000000002</ele>
        <time>2025-05-16T10:56:22Z</time>
      </trkpt>
      <trkpt lat="43.446329003199935" lon="3.638907037675381">
        <ele>23.690000000000001</ele>
        <time>2025-05-16T10:56:32Z</time>
      </trkpt>
      <trkpt lat="43.447640016674995" lon="3.642226019874215">
        <ele>19.84</ele>
        <time>2025-05-16T10:56:45Z</time>
      </trkpt>
      <trkpt lat="43.448724970221519" lon="3.644502041861415">
        <ele>16.960000000000001</ele>
        <time>2025-05-16T10:56:56Z</time>
      </trkpt>
      <trkpt lat="43.448796970769763" lon="3.644651994109154">
        <ele>16.48</ele>
        <time>2025-05-16T10:56:57Z</time>
      </trkpt>
      <trkpt lat="43.448857991024852" lon="3.644777974113822">
        <ele>16</ele>
        <time>2025-05-16T10:56:58Z</time>
      </trkpt>
      <trkpt lat="43.448909958824515" lon="3.644903032109141">
        <ele>15.52</ele>
        <time>2025-05-16T10:56:59Z</time>
      </trkpt>
      <trkpt lat="43.448890009894967" lon="3.645207965746522">
        <ele>15.039999999999999</ele>
        <time>2025-05-16T10:57:01Z</time>
      </trkpt>
      <trkpt lat="43.448932003229856" lon="3.645319025963545">
        <ele>14.56</ele>
        <time>2025-05-16T10:57:02Z</time>
      </trkpt>
      <trkpt lat="43.449023030698299" lon="3.645402006804943">
        <ele>14.56</ele>
        <time>2025-05-16T10:57:03Z</time>
      </trkpt>
      <trkpt lat="43.449270967394114" lon="3.645537961274386">
        <ele>14.56</ele>
        <time>2025-05-16T10:57:05Z</time>
      </trkpt>
      <trkpt lat="43.449342967942357" lon="3.645683974027634">
        <ele>14.56</ele>
        <time>2025-05-16T10:57:06Z</time>
      </trkpt>
      <trkpt lat="43.450086023658514" lon="3.647252982482314">
        <ele>14.08</ele>
        <time>2025-05-16T10:57:16Z</time>
      </trkpt>
      <trkpt lat="43.451098976656795" lon="3.649426996707916">
        <ele>15.52</ele>
        <time>2025-05-16T10:57:28Z</time>
      </trkpt>
      <trkpt lat="43.452179990708828" lon="3.651768984273076">
        <ele>17.920000000000002</ele>
        <time>2025-05-16T10:57:41Z</time>
      </trkpt>
      <trkpt lat="43.452750965952873" lon="3.653014032170177">
        <ele>18.879999999999999</ele>
        <time>2025-05-16T10:57:49Z</time>
      </trkpt>
      <trkpt lat="43.452975014224648" lon="3.653595987707377">
        <ele>17.920000000000002</ele>
        <time>2025-05-16T10:57:56Z</time>
      </trkpt>
      <trkpt lat="43.45302295871079" lon="3.653869992122054">
        <ele>17.440000000000001</ele>
        <time>2025-05-16T10:58:02Z</time>
      </trkpt>
      <trkpt lat="43.453045003116131" lon="3.654105020686984">
        <ele>16.48</ele>
        <time>2025-05-16T10:58:06Z</time>
      </trkpt>
      <trkpt lat="43.453079033643007" lon="3.654238041490316">
        <ele>16.48</ele>
        <time>2025-05-16T10:58:08Z</time>
      </trkpt>
      <trkpt lat="43.453110968694091" lon="3.654286991804838">
        <ele>16.48</ele>
        <time>2025-05-16T10:58:09Z</time>
      </trkpt>
      <trkpt lat="43.453137958422303" lon="3.654326973482966">
        <ele>16.960000000000001</ele>
        <time>2025-05-16T10:58:10Z</time>
      </trkpt>
      <trkpt lat="43.453216999769211" lon="3.654338037595153">
        <ele>16.960000000000001</ele>
        <time>2025-05-16T10:58:11Z</time>
      </trkpt>
      <trkpt lat="43.453289000317454" lon="3.654349017888308">
        <ele>17.440000000000001</ele>
        <time>2025-05-16T10:58:12Z</time>
      </trkpt>
      <trkpt lat="43.453324036672711" lon="3.654405009001494">
        <ele>17.920000000000002</ele>
        <time>2025-05-16T10:58:13Z</time>
      </trkpt>
      <trkpt lat="43.453366030007601" lon="3.654471980407834">
        <ele>18.399999999999999</ele>
        <time>2025-05-16T10:58:14Z</time>
      </trkpt>
      <trkpt lat="43.453410034999251" lon="3.654546998441219">
        <ele>18.399999999999999</ele>
        <time>2025-05-16T10:58:15Z</time>
      </trkpt>
      <trkpt lat="43.453454039990902" lon="3.654631990939379">
        <ele>18.879999999999999</ele>
        <time>2025-05-16T10:58:16Z</time>
      </trkpt>
      <trkpt lat="43.454033983871341" lon="3.655823981389403">
        <ele>20.809999999999999</ele>
        <time>2025-05-16T10:58:26Z</time>
      </trkpt>
      <trkpt lat="43.454883992671967" lon="3.657608991488814">
        <ele>23.210000000000001</ele>
        <time>2025-05-16T10:58:36Z</time>
      </trkpt>
      <trkpt lat="43.456097021698952" lon="3.659921977669001">
        <ele>30.420000000000002</ele>
        <time>2025-05-16T10:58:47Z</time>
      </trkpt>
      <trkpt lat="43.457359001040459" lon="3.661213964223862">
        <ele>30.899999999999999</ele>
        <time>2025-05-16T10:58:55Z</time>
      </trkpt>
      <trkpt lat="43.45951097086072" lon="3.663251018151641">
        <ele>23.690000000000001</ele>
        <time>2025-05-16T10:59:10Z</time>
      </trkpt>
      <trkpt lat="43.461070004850626" lon="3.664649035781622">
        <ele>14.08</ele>
        <time>2025-05-16T10:59:20Z</time>
      </trkpt>
      <trkpt lat="43.463089959695935" lon="3.666546028107405">
        <ele>5.91</ele>
        <time>2025-05-16T10:59:32Z</time>
      </trkpt>
      <trkpt lat="43.464969014748931" lon="3.66838401183486">
        <ele>3.98</ele>
        <time>2025-05-16T10:59:44Z</time>
      </trkpt>
      <trkpt lat="43.466549003496766" lon="3.670192994177342">
        <ele>3.98</ele>
        <time>2025-05-16T10:59:54Z</time>
      </trkpt>
      <trkpt lat="43.467667987570167" lon="3.671961994841695">
        <ele>3.98</ele>
        <time>2025-05-16T11:00:02Z</time>
      </trkpt>
      <trkpt lat="43.469031974673271" lon="3.674381012097001">
        <ele>4.46</ele>
        <time>2025-05-16T11:00:13Z</time>
      </trkpt>
      <trkpt lat="43.470243997871876" lon="3.676575981080532">
        <ele>3.98</ele>
        <time>2025-05-16T11:00:23Z</time>
      </trkpt>
      <trkpt lat="43.471123008057475" lon="3.678731974214315">
        <ele>4.46</ele>
        <time>2025-05-16T11:00:32Z</time>
      </trkpt>
      <trkpt lat="43.471580995246768" lon="3.680440038442612">
        <ele>4.46</ele>
        <time>2025-05-16T11:00:40Z</time>
      </trkpt>
      <trkpt lat="43.472267976030707" lon="3.68295100517571">
        <ele>5.91</ele>
        <time>2025-05-16T11:00:51Z</time>
      </trkpt>
      <trkpt lat="43.472586991265416" lon="3.684500986710191">
        <ele>6.87</ele>
        <time>2025-05-16T11:00:59Z</time>
      </trkpt>
      <trkpt lat="43.472599983215332" lon="3.684826958924532">
        <ele>6.87</ele>
        <time>2025-05-16T11:01:01Z</time>
      </trkpt>
      <trkpt lat="43.472583973780274" lon="3.68497297167778">
        <ele>7.35</ele>
        <time>2025-05-16T11:01:02Z</time>
      </trkpt>
      <trkpt lat="43.472565030679107" lon="3.68512200191617">
        <ele>7.83</ele>
        <time>2025-05-16T11:01:03Z</time>
      </trkpt>
      <trkpt lat="43.472546003758907" lon="3.68527396582067">
        <ele>8.310000000000001</ele>
        <time>2025-05-16T11:01:04Z</time>
      </trkpt>
      <trkpt lat="43.472500992938876" lon="3.685427019372582">
        <ele>8.789999999999999</ele>
        <time>2025-05-16T11:01:05Z</time>
      </trkpt>
      <trkpt lat="43.472435027360916" lon="3.685562973842025">
        <ele>9.75</ele>
        <time>2025-05-16T11:01:06Z</time>
      </trkpt>
      <trkpt lat="43.472369983792305" lon="3.685695994645357">
        <ele>10.710000000000001</ele>
        <time>2025-05-16T11:01:07Z</time>
      </trkpt>
      <trkpt lat="43.472117017954588" lon="3.686245009303093">
        <ele>14.08</ele>
        <time>2025-05-16T11:01:11Z</time>
      </trkpt>
      <trkpt lat="43.472083993256092" lon="3.686400996521115">
        <ele>15.039999999999999</ele>
        <time>2025-05-16T11:01:12Z</time>
      </trkpt>
      <trkpt lat="43.471947032958269" lon="3.687000973150134">
        <ele>16.960000000000001</ele>
        <time>2025-05-16T11:01:16Z</time>
      </trkpt>
      <trkpt lat="43.471900010481477" lon="3.687150003388524">
        <ele>17.440000000000001</ele>
        <time>2025-05-16T11:01:17Z</time>
      </trkpt>
      <trkpt lat="43.471832033246756" lon="3.687300039455295">
        <ele>17.440000000000001</ele>
        <time>2025-05-16T11:01:18Z</time>
      </trkpt>
      <trkpt lat="43.471746034920216" lon="3.687424007803202">
        <ele>17.440000000000001</ele>
        <time>2025-05-16T11:01:19Z</time>
      </trkpt>
      <trkpt lat="43.471646038815379" lon="3.687548981979489">
        <ele>17.440000000000001</ele>
        <time>2025-05-16T11:01:20Z</time>
      </trkpt>
      <trkpt lat="43.471531039103866" lon="3.687645038589835">
        <ele>16.960000000000001</ele>
        <time>2025-05-16T11:01:21Z</time>
      </trkpt>
      <trkpt lat="43.47141302190721" lon="3.687745034694672">
        <ele>16.960000000000001</ele>
        <time>2025-05-16T11:01:22Z</time>
      </trkpt>
      <trkpt lat="43.471297016367316" lon="3.687842013314366">
        <ele>17.440000000000001</ele>
        <time>2025-05-16T11:01:23Z</time>
      </trkpt>
      <trkpt lat="43.471184028312564" lon="3.6879369802773">
        <ele>17.440000000000001</ele>
        <time>2025-05-16T11:01:24Z</time>
      </trkpt>
      <trkpt lat="43.470223965123296" lon="3.688549026846886">
        <ele>16.960000000000001</ele>
        <time>2025-05-16T11:01:30Z</time>
      </trkpt>
      <trkpt lat="43.468896020203829" lon="3.689803965389729">
        <ele>17.920000000000002</ele>
        <time>2025-05-16T11:01:39Z</time>
      </trkpt>
      <trkpt lat="43.467210000380874" lon="3.691479004919529">
        <ele>22.25</ele>
        <time>2025-05-16T11:01:51Z</time>
      </trkpt>
      <trkpt lat="43.465888006612659" lon="3.692227005958557">
        <ele>25.609999999999999</ele>
        <time>2025-05-16T11:01:59Z</time>
      </trkpt>
      <trkpt lat="43.464367026463151" lon="3.692636964842677">
        <ele>27.050000000000001</ele>
        <time>2025-05-16T11:02:08Z</time>
      </trkpt>
      <trkpt lat="43.462269958108664" lon="3.693196037784219">
        <ele>27.050000000000001</ele>
        <time>2025-05-16T11:02:20Z</time>
      </trkpt>
      <trkpt lat="43.460758030414581" lon="3.69412399828434">
        <ele>27.050000000000001</ele>
        <time>2025-05-16T11:02:28Z</time>
      </trkpt>
      <trkpt lat="43.459322964772582" lon="3.695594016462565">
        <ele>28.02</ele>
        <time>2025-05-16T11:02:36Z</time>
      </trkpt>
      <trkpt lat="43.458111025393009" lon="3.697760989889503">
        <ele>34.259999999999998</ele>
        <time>2025-05-16T11:02:45Z</time>
      </trkpt>
      <trkpt lat="43.456730023026466" lon="3.7009990029037">
        <ele>48.200000000000003</ele>
        <time>2025-05-16T11:02:58Z</time>
      </trkpt>
      <trkpt lat="43.455559993162751" lon="3.703238982707262">
        <ele>58.299999999999997</ele>
        <time>2025-05-16T11:03:07Z</time>
      </trkpt>
      <trkpt lat="43.454112019389868" lon="3.704824000597">
        <ele>68.390000000000001</ele>
        <time>2025-05-16T11:03:15Z</time>
      </trkpt>
      <trkpt lat="43.452416025102139" lon="3.705737041309476">
        <ele>77.040000000000006</ele>
        <time>2025-05-16T11:03:23Z</time>
      </trkpt>
      <trkpt lat="43.450426999479532" lon="3.706312961876392">
        <ele>80.890000000000001</ele>
        <time>2025-05-16T11:03:32Z</time>
      </trkpt>
      <trkpt lat="43.448991011828184" lon="3.707095999270678">
        <ele>78.480000000000004</ele>
        <time>2025-05-16T11:03:39Z</time>
      </trkpt>
      <trkpt lat="43.447401970624924" lon="3.708795011043549">
        <ele>70.310000000000002</ele>
        <time>2025-05-16T11:03:48Z</time>
      </trkpt>
      <trkpt lat="43.446282986551523" lon="3.710572980344296">
        <ele>62.619999999999997</ele>
        <time>2025-05-16T11:03:56Z</time>
      </trkpt>
      <trkpt lat="43.444839958101511" lon="3.713376978412271">
        <ele>51.090000000000003</ele>
        <time>2025-05-16T11:04:07Z</time>
      </trkpt>
      <trkpt lat="43.443427020683885" lon="3.715200964361429">
        <ele>41.469999999999999</ele>
        <time>2025-05-16T11:04:16Z</time>
      </trkpt>
      <trkpt lat="43.441939987242222" lon="3.716456992551684">
        <ele>37.149999999999999</ele>
        <time>2025-05-16T11:04:24Z</time>
      </trkpt>
      <trkpt lat="43.440309958532453" lon="3.717159982770681">
        <ele>33.780000000000001</ele>
        <time>2025-05-16T11:04:32Z</time>
      </trkpt>
      <trkpt lat="43.437556000426412" lon="3.717737998813391">
        <ele>31.379999999999999</ele>
        <time>2025-05-16T11:04:45Z</time>
      </trkpt>
      <trkpt lat="43.435177970677614" lon="3.718741983175278">
        <ele>27.530000000000001</ele>
        <time>2025-05-16T11:04:56Z</time>
      </trkpt>
      <trkpt lat="43.432877976447344" lon="3.720288025215268">
        <ele>24.649999999999999</ele>
        <time>2025-05-16T11:05:07Z</time>
      </trkpt>
      <trkpt lat="43.430835977196693" lon="3.721276000142098">
        <ele>24.649999999999999</ele>
        <time>2025-05-16T11:05:17Z</time>
      </trkpt>
      <trkpt lat="43.428603960201144" lon="3.721794001758099">
        <ele>22.73</ele>
        <time>2025-05-16T11:05:27Z</time>
      </trkpt>
      <trkpt lat="43.425938012078404" lon="3.722496991977096">
        <ele>17.920000000000002</ele>
        <time>2025-05-16T11:05:40Z</time>
      </trkpt>
      <trkpt lat="43.424957999959588" lon="3.722708970308304">
        <ele>14.56</ele>
        <time>2025-05-16T11:05:47Z</time>
      </trkpt>
      <trkpt lat="43.424498001113534" lon="3.722802009433508">
        <ele>11.67</ele>
        <time>2025-05-16T11:05:53Z</time>
      </trkpt>
      <trkpt lat="43.424453996121883" lon="3.722810978069902">
        <ele>10.710000000000001</ele>
        <time>2025-05-16T11:05:54Z</time>
      </trkpt>
      <trkpt lat="43.424400016665459" lon="3.722818018868566">
        <ele>10.23</ele>
        <time>2025-05-16T11:05:55Z</time>
      </trkpt>
      <trkpt lat="43.424335978925228" lon="3.722796980291605">
        <ele>9.75</ele>
        <time>2025-05-16T11:05:56Z</time>
      </trkpt>
      <trkpt lat="43.424260038882494" lon="3.722761021926999">
        <ele>9.75</ele>
        <time>2025-05-16T11:05:57Z</time>
      </trkpt>
      <trkpt lat="43.42418703250587" lon="3.722696984186769">
        <ele>9.75</ele>
        <time>2025-05-16T11:05:58Z</time>
      </trkpt>
      <trkpt lat="43.424085024744272" lon="3.722606040537357">
        <ele>9.75</ele>
        <time>2025-05-16T11:05:59Z</time>
      </trkpt>
      <trkpt lat="43.42401503585279" lon="3.722596988081932">
        <ele>9.75</ele>
        <time>2025-05-16T11:06:00Z</time>
      </trkpt>
      <trkpt lat="43.423918979242444" lon="3.722583996132016">
        <ele>9.75</ele>
        <time>2025-05-16T11:06:01Z</time>
      </trkpt>
      <trkpt lat="43.423388991504908" lon="3.722535967826843">
        <ele>9.27</ele>
        <time>2025-05-16T11:06:07Z</time>
      </trkpt>
      <trkpt lat="43.423317996785045" lon="3.722575027495623">
        <ele>9.75</ele>
        <time>2025-05-16T11:06:08Z</time>
      </trkpt>
      <trkpt lat="43.423248007893562" lon="3.72261299751699">
        <ele>9.75</ele>
        <time>2025-05-16T11:06:09Z</time>
      </trkpt>
      <trkpt lat="43.423177013173699" lon="3.722661025822163">
        <ele>10.23</ele>
        <time>2025-05-16T11:06:10Z</time>
      </trkpt>
      <trkpt lat="43.423130996525288" lon="3.722753981128335">
        <ele>10.23</ele>
        <time>2025-05-16T11:06:11Z</time>
      </trkpt>
      <trkpt lat="43.423119010403752" lon="3.72284802608192">
        <ele>10.710000000000001</ele>
        <time>2025-05-16T11:06:12Z</time>
      </trkpt>
      <trkpt lat="43.423119010403752" lon="3.722938969731331">
        <ele>11.19</ele>
        <time>2025-05-16T11:06:13Z</time>
      </trkpt>
      <trkpt lat="43.423038041219115" lon="3.723098980262876">
        <ele>11.67</ele>
        <time>2025-05-16T11:06:15Z</time>
      </trkpt>
      <trkpt lat="43.422988001257181" lon="3.723163018003106">
        <ele>12.15</ele>
        <time>2025-05-16T11:06:16Z</time>
      </trkpt>
      <trkpt lat="43.422917006537318" lon="3.723223032429814">
        <ele>12.15</ele>
        <time>2025-05-16T11:06:17Z</time>
      </trkpt>
      <trkpt lat="43.422832014039159" lon="3.723296960815787">
        <ele>12.630000000000001</ele>
        <time>2025-05-16T11:06:18Z</time>
      </trkpt>
      <trkpt lat="43.422710979357362" lon="3.723399974405766">
        <ele>12.630000000000001</ele>
        <time>2025-05-16T11:06:19Z</time>
      </trkpt>
      <trkpt lat="43.422610983252525" lon="3.723427969962359">
        <ele>12.15</ele>
        <time>2025-05-16T11:06:20Z</time>
      </trkpt>
      <trkpt lat="43.421512031927705" lon="3.723826026543975">
        <ele>11.67</ele>
        <time>2025-05-16T11:06:28Z</time>
      </trkpt>
      <trkpt lat="43.419974958524108" lon="3.724408987909555">
        <ele>11.67</ele>
        <time>2025-05-16T11:06:36Z</time>
      </trkpt>
      <trkpt lat="43.418766958639026" lon="3.724594982340932">
        <ele>14.08</ele>
        <time>2025-05-16T11:06:43Z</time>
      </trkpt>
      <trkpt lat="43.417975036427379" lon="3.724510995671153">
        <ele>16</ele>
        <time>2025-05-16T11:06:49Z</time>
      </trkpt>
      <trkpt lat="43.417889038100839" lon="3.724472019821405">
        <ele>16</ele>
        <time>2025-05-16T11:06:50Z</time>
      </trkpt>
      <trkpt lat="43.417811002582312" lon="3.724435977637768">
        <ele>15.52</ele>
        <time>2025-05-16T11:06:51Z</time>
      </trkpt>
      <trkpt lat="43.41776599176228" lon="3.724344028159976">
        <ele>15.039999999999999</ele>
        <time>2025-05-16T11:06:52Z</time>
      </trkpt>
      <trkpt lat="43.417728021740913" lon="3.724237997084856">
        <ele>14.56</ele>
        <time>2025-05-16T11:06:53Z</time>
      </trkpt>
      <trkpt lat="43.417693991214037" lon="3.724122997373343">
        <ele>14.08</ele>
        <time>2025-05-16T11:06:54Z</time>
      </trkpt>
      <trkpt lat="43.417520988732576" lon="3.723288998007774">
        <ele>11.67</ele>
        <time>2025-05-16T11:07:00Z</time>
      </trkpt>
      <trkpt lat="43.417480001226068" lon="3.723133010789752">
        <ele>11.19</ele>
        <time>2025-05-16T11:07:01Z</time>
      </trkpt>
      <trkpt lat="43.417427027598023" lon="3.722979035228491">
        <ele>10.710000000000001</ele>
        <time>2025-05-16T11:07:02Z</time>
      </trkpt>
      <trkpt lat="43.416579030454159" lon="3.721271976828575">
        <ele>6.39</ele>
        <time>2025-05-16T11:07:13Z</time>
      </trkpt>
      <trkpt lat="43.41578702442348" lon="3.719528960064054">
        <ele>4.94</ele>
        <time>2025-05-16T11:07:24Z</time>
      </trkpt>
      <trkpt lat="43.415017984807491" lon="3.717826008796692">
        <ele>5.91</ele>
        <time>2025-05-16T11:07:37Z</time>
      </trkpt>
      <trkpt lat="43.414721013978124" lon="3.717192001640797">
        <ele>6.39</ele>
        <time>2025-05-16T11:07:45Z</time>
      </trkpt>
      <trkpt lat="43.41441297903657" lon="3.716601999476552">
        <ele>6.87</ele>
        <time>2025-05-16T11:07:54Z</time>
      </trkpt>
      <trkpt lat="43.41379196383059" lon="3.715164000168443">
        <ele>7.35</ele>
        <time>2025-05-16T11:08:06Z</time>
      </trkpt>
      <trkpt lat="43.413034994155169" lon="3.713516034185886">
        <ele>5.91</ele>
        <time>2025-05-16T11:08:16Z</time>
      </trkpt>
      <trkpt lat="43.412464018911123" lon="3.712315997108817">
        <ele>5.91</ele>
        <time>2025-05-16T11:08:25Z</time>
      </trkpt>
      <trkpt lat="43.412165036424994" lon="3.711679978296161">
        <ele>6.87</ele>
        <time>2025-05-16T11:08:34Z</time>
      </trkpt>
      <trkpt lat="43.411495992913842" lon="3.710152041167021">
        <ele>4.94</ele>
        <time>2025-05-16T11:08:46Z</time>
      </trkpt>
      <trkpt lat="43.410655958577991" lon="3.708278015255928">
        <ele>5.42</ele>
        <time>2025-05-16T11:08:59Z</time>
      </trkpt>
      <trkpt lat="43.409832017496228" lon="3.706474984064698">
        <ele>6.87</ele>
        <time>2025-05-16T11:09:13Z</time>
      </trkpt>
      <trkpt lat="43.409517025575042" lon="3.705818010494113">
        <ele>6.39</ele>
        <time>2025-05-16T11:09:22Z</time>
      </trkpt>
      <trkpt lat="43.409408982843161" lon="3.705626986920834">
        <ele>6.39</ele>
        <time>2025-05-16T11:09:26Z</time>
      </trkpt>
      <trkpt lat="43.409111006185412" lon="3.705021981149912">
        <ele>6.39</ele>
        <time>2025-05-16T11:09:36Z</time>
      </trkpt>
      <trkpt lat="43.409069012850523" lon="3.705012006685138">
        <ele>6.39</ele>
        <time>2025-05-16T11:09:37Z</time>
      </trkpt>
      <trkpt lat="43.409019978716969" lon="3.704999014735222">
        <ele>6.39</ele>
        <time>2025-05-16T11:09:38Z</time>
      </trkpt>
      <trkpt lat="43.408950995653868" lon="3.70501602999866">
        <ele>6.39</ele>
        <time>2025-05-16T11:09:39Z</time>
      </trkpt>
      <trkpt lat="43.408935992047191" lon="3.705032039433718">
        <ele>6.87</ele>
        <time>2025-05-16T11:09:40Z</time>
      </trkpt>
      <trkpt lat="43.408958958461881" lon="3.70514796115458">
        <ele>6.39</ele>
        <time>2025-05-16T11:09:41Z</time>
      </trkpt>
      <trkpt lat="43.408973962068558" lon="3.705223985016346">
        <ele>6.39</ele>
        <time>2025-05-16T11:09:42Z</time>
      </trkpt>
      <trkpt lat="43.408948983997107" lon="3.705346025526524">
        <ele>6.87</ele>
        <time>2025-05-16T11:09:43Z</time>
      </trkpt>
      <trkpt lat="43.408920988440514" lon="3.705438980832696">
        <ele>6.87</ele>
        <time>2025-05-16T11:09:44Z</time>
      </trkpt>
      <trkpt lat="43.40889098122716" lon="3.705541994422674">
        <ele>6.87</ele>
        <time>2025-05-16T11:09:45Z</time>
      </trkpt>
      <trkpt lat="43.408858040347695" lon="3.705651964992285">
        <ele>6.87</ele>
        <time>2025-05-16T11:09:46Z</time>
      </trkpt>
      <trkpt lat="43.408742034807801" lon="3.706039963290095">
        <ele>6.87</ele>
        <time>2025-05-16T11:09:50Z</time>
      </trkpt>
      <trkpt lat="43.408711021766067" lon="3.706109030172229">
        <ele>7.35</ele>
        <time>2025-05-16T11:09:51Z</time>
      </trkpt>
      <trkpt lat="43.40867598541081" lon="3.706186981871724">
        <ele>7.35</ele>
        <time>2025-05-16T11:09:52Z</time>
      </trkpt>
      <trkpt lat="43.408523015677929" lon="3.706523012369871">
        <ele>8.789999999999999</ele>
        <time>2025-05-16T11:09:57Z</time>
      </trkpt>
      <trkpt lat="43.408421007916331" lon="3.706748988479376">
        <ele>11.19</ele>
        <time>2025-05-16T11:10:03Z</time>
      </trkpt>
      <trkpt lat="43.408421007916331" lon="3.706748988479376">
        <ele>11.19</ele>
        <time>2025-05-16T11:10:04Z</time>
      </trkpt>
      <trkpt lat="43.408421007916331" lon="3.706748988479376">
        <ele>11.67</ele>
        <time>2025-05-16T11:10:05Z</time>
      </trkpt>
      <trkpt lat="43.408427964895964" lon="3.706760974600911">
        <ele>12.15</ele>
        <time>2025-05-16T11:10:06Z</time>
      </trkpt>
      <trkpt lat="43.408421007916331" lon="3.706747982650995">
        <ele>12.15</ele>
        <time>2025-05-16T11:10:07Z</time>
      </trkpt>
      <trkpt lat="43.408679002895951" lon="3.706179019063711">
        <ele>7.83</ele>
        <time>2025-05-16T11:10:13Z</time>
      </trkpt>
      <trkpt lat="43.408920988440514" lon="3.705439986661077">
        <ele>4.46</ele>
        <time>2025-05-16T11:10:21Z</time>
      </trkpt>
      <trkpt lat="43.408932974562049" lon="3.705401010811329">
        <ele>4.46</ele>
        <time>2025-05-16T11:10:28Z</time>
      </trkpt>
      <trkpt lat="43.40906398370862" lon="3.705289028584957">
        <ele>4.46</ele>
        <time>2025-05-16T11:10:38Z</time>
      </trkpt>
      <trkpt lat="43.409091979265213" lon="3.705256003886461">
        <ele>4.46</ele>
        <time>2025-05-16T11:10:39Z</time>
      </trkpt>
      <trkpt lat="43.409136990085244" lon="3.705202024430037">
        <ele>4.46</ele>
        <time>2025-05-16T11:10:40Z</time>
      </trkpt>
      <trkpt lat="43.409166997298598" lon="3.705131029710174">
        <ele>4.46</ele>
        <time>2025-05-16T11:10:41Z</time>
      </trkpt>
      <trkpt lat="43.409156017005444" lon="3.705066991969943">
        <ele>4.46</ele>
        <time>2025-05-16T11:10:42Z</time>
      </trkpt>
      <trkpt lat="43.409087033942342" lon="3.70501602999866">
        <ele>3.98</ele>
        <time>2025-05-16T11:10:43Z</time>
      </trkpt>
      <trkpt lat="43.409021990373731" lon="3.705000020563602">
        <ele>3.5</ele>
        <time>2025-05-16T11:10:44Z</time>
      </trkpt>
      <trkpt lat="43.40897798538208" lon="3.704989040270448">
        <ele>3.5</ele>
        <time>2025-05-16T11:10:45Z</time>
      </trkpt>
      <trkpt lat="43.408831972628832" lon="3.704962972551584">
        <ele>2.54</ele>
        <time>2025-05-16T11:10:47Z</time>
      </trkpt>
      <trkpt lat="43.408769024536014" lon="3.704922990873456">
        <ele>2.54</ele>
        <time>2025-05-16T11:10:48Z</time>
      </trkpt>
      <trkpt lat="43.408703980967402" lon="3.704882003366947">
        <ele>2.54</ele>
        <time>2025-05-16T11:10:49Z</time>
      </trkpt>
      <trkpt lat="43.408634997904301" lon="3.704839004203677">
        <ele>2.54</ele>
        <time>2025-05-16T11:10:50Z</time>
      </trkpt>
      <trkpt lat="43.408565009012818" lon="3.704786030575633">
        <ele>2.54</ele>
        <time>2025-05-16T11:10:51Z</time>
      </trkpt>
      <trkpt lat="43.408497031778097" lon="3.704734984785318">
        <ele>2.54</ele>
        <time>2025-05-16T11:10:52Z</time>
      </trkpt>
      <trkpt lat="43.408428970724344" lon="3.704684022814035">
        <ele>2.54</ele>
        <time>2025-05-16T11:10:53Z</time>
      </trkpt>
      <trkpt lat="43.408151026815176" lon="3.704475983977318">
        <ele>2.54</ele>
        <time>2025-05-16T11:11:00Z</time>
      </trkpt>
      <trkpt lat="43.407826982438564" lon="3.704256964847446">
        <ele>2.54</ele>
        <time>2025-05-16T11:11:07Z</time>
      </trkpt>
      <trkpt lat="43.407750958576798" lon="3.704204997047782">
        <ele>2.54</ele>
        <time>2025-05-16T11:11:08Z</time>
      </trkpt>
      <trkpt lat="43.407583991065621" lon="3.704087985679507">
        <ele>3.02</ele>
        <time>2025-05-16T11:11:10Z</time>
      </trkpt>
      <trkpt lat="43.407413000240922" lon="3.703971980139613">
        <ele>3.02</ele>
        <time>2025-05-16T11:11:12Z</time>
      </trkpt>
      <trkpt lat="43.4072379861027" lon="3.703853040933609">
        <ele>0.62</ele>
        <time>2025-05-16T11:11:14Z</time>
      </trkpt>
      <trkpt lat="43.407056014984846" lon="3.703729994595051">
        <ele>-0.82</ele>
        <time>2025-05-16T11:11:16Z</time>
      </trkpt>
      <trkpt lat="43.406826015561819" lon="3.703563027083874">
        <ele>-1.3</ele>
        <time>2025-05-16T11:11:19Z</time>
      </trkpt>
      <trkpt lat="43.406758960336447" lon="3.703510975465179">
        <ele>-1.3</ele>
        <time>2025-05-16T11:11:20Z</time>
      </trkpt>
      <trkpt lat="43.405938036739826" lon="3.702919967472553">
        <ele>-2.75</ele>
        <time>2025-05-16T11:11:31Z</time>
      </trkpt>
      <trkpt lat="43.405748018994927" lon="3.702793987467885">
        <ele>-2.75</ele>
        <time>2025-05-16T11:11:34Z</time>
      </trkpt>
      <trkpt lat="43.405679035931826" lon="3.702748976647854">
        <ele>-2.75</ele>
        <time>2025-05-16T11:11:35Z</time>
      </trkpt>
      <trkpt lat="43.405223982408643" lon="3.702448988333345">
        <ele>-5.15</ele>
        <time>2025-05-16T11:11:44Z</time>
      </trkpt>
      <trkpt lat="43.405189029872417" lon="3.702426021918654">
        <ele>-5.63</ele>
        <time>2025-05-16T11:11:45Z</time>
      </trkpt>
      <trkpt lat="43.40491603128612" lon="3.702171966433525">
        <ele>-5.15</ele>
        <time>2025-05-16T11:11:50Z</time>
      </trkpt>
      <trkpt lat="43.404888035729527" lon="3.702058978378773">
        <ele>-4.67</ele>
        <time>2025-05-16T11:11:51Z</time>
      </trkpt>
      <trkpt lat="43.404859034344554" lon="3.701941967010498">
        <ele>-4.19</ele>
        <time>2025-05-16T11:11:52Z</time>
      </trkpt>
      <trkpt lat="43.404764989390969" lon="3.701289016753435">
        <ele>1.1</ele>
        <time>2025-05-16T11:12:00Z</time>
      </trkpt>
      <trkpt lat="43.404750991612673" lon="3.701083995401859">
        <ele>2.06</ele>
        <time>2025-05-16T11:12:03Z</time>
      </trkpt>
      <trkpt lat="43.40474403463304" lon="3.700962038710713">
        <ele>2.54</ele>
        <time>2025-05-16T11:12:04Z</time>
      </trkpt>
      <trkpt lat="43.40472299605608" lon="3.700864976271987">
        <ele>2.54</ele>
        <time>2025-05-16T11:12:05Z</time>
      </trkpt>
      <trkpt lat="43.404704974964261" lon="3.700689040124416">
        <ele>2.54</ele>
        <time>2025-05-16T11:12:07Z</time>
      </trkpt>
      <trkpt lat="43.404693994671106" lon="3.700605975463986">
        <ele>2.54</ele>
        <time>2025-05-16T11:12:08Z</time>
      </trkpt>
      <trkpt lat="43.404685026034713" lon="3.700531963258982">
        <ele>2.54</ele>
        <time>2025-05-16T11:12:09Z</time>
      </trkpt>
      <trkpt lat="43.404675973579288" lon="3.700468009337783">
        <ele>2.54</ele>
        <time>2025-05-16T11:12:10Z</time>
      </trkpt>
      <trkpt lat="43.404669016599655" lon="3.700412018224597">
        <ele>2.54</ele>
        <time>2025-05-16T11:12:11Z</time>
      </trkpt>
      <trkpt lat="43.404644960537553" lon="3.700224012136459">
        <ele>2.54</ele>
        <time>2025-05-16T11:12:14Z</time>
      </trkpt>
      <trkpt lat="43.404609002172947" lon="3.699942966923118">
        <ele>2.06</ele>
        <time>2025-05-16T11:12:22Z</time>
      </trkpt>
      <trkpt lat="43.404606990516186" lon="3.699923017993569">
        <ele>2.06</ele>
        <time>2025-05-16T11:12:51Z</time>
      </trkpt>
      <trkpt lat="43.404598021879792" lon="3.699855040758848">
        <ele>1.58</ele>
        <time>2025-05-16T11:12:52Z</time>
      </trkpt>
      <trkpt lat="43.404585029929876" lon="3.69975202716887">
        <ele>2.06</ele>
        <time>2025-05-16T11:12:53Z</time>
      </trkpt>
      <trkpt lat="43.40457497164607" lon="3.699647001922131">
        <ele>2.06</ele>
        <time>2025-05-16T11:12:54Z</time>
      </trkpt>
      <trkpt lat="43.404567008838058" lon="3.699533008038998">
        <ele>2.54</ele>
        <time>2025-05-16T11:12:55Z</time>
      </trkpt>
      <trkpt lat="43.404506994411349" lon="3.69895700365305">
        <ele>2.54</ele>
        <time>2025-05-16T11:13:00Z</time>
      </trkpt>
      <trkpt lat="43.404471036046743" lon="3.69863597676158">
        <ele>2.54</ele>
        <time>2025-05-16T11:13:03Z</time>
      </trkpt>
      <trkpt lat="43.404459971934557" lon="3.698545033112168">
        <ele>2.54</ele>
        <time>2025-05-16T11:13:04Z</time>
      </trkpt>
      <trkpt lat="43.404387971386313" lon="3.697983026504517">
        <ele>1.1</ele>
        <time>2025-05-16T11:13:10Z</time>
      </trkpt>
      <trkpt lat="43.404375985264778" lon="3.697895016521215">
        <ele>0.62</ele>
        <time>2025-05-16T11:13:11Z</time>
      </trkpt>
      <trkpt lat="43.404361987486482" lon="3.697800971567631">
        <ele>0.14</ele>
        <time>2025-05-16T11:13:12Z</time>
      </trkpt>
      <trkpt lat="43.404346983879805" lon="3.697693012654781">
        <ele>-0.82</ele>
        <time>2025-05-16T11:13:13Z</time>
      </trkpt>
      <trkpt lat="43.404329968616366" lon="3.697573989629746">
        <ele>-0.82</ele>
        <time>2025-05-16T11:13:14Z</time>
      </trkpt>
      <trkpt lat="43.404313959181309" lon="3.697466030716896">
        <ele>-1.3</ele>
        <time>2025-05-16T11:13:15Z</time>
      </trkpt>
      <trkpt lat="43.404285041615367" lon="3.697290010750294">
        <ele>-1.3</ele>
        <time>2025-05-16T11:13:17Z</time>
      </trkpt>
      <trkpt lat="43.404189990833402" lon="3.69680997915566">
        <ele>1.58</ele>
        <time>2025-05-16T11:13:25Z</time>
      </trkpt>
      <trkpt lat="43.404189990833402" lon="3.69680997915566">
        <ele>1.58</ele>
        <time>2025-05-16T11:13:31Z</time>
      </trkpt>
      <trkpt lat="43.403766034170985" lon="3.696866976097226">
        <ele>3.98</ele>
        <time>2025-05-16T11:13:38Z</time>
      </trkpt>
      <trkpt lat="43.403018033131957" lon="3.697018017992377">
        <ele>3.98</ele>
        <time>2025-05-16T11:13:48Z</time>
      </trkpt>
      <trkpt lat="43.402436999604106" lon="3.697148021310568">
        <ele>3.98</ele>
        <time>2025-05-16T11:13:59Z</time>
      </trkpt>
      <trkpt lat="43.402329040691257" lon="3.697157995775342">
        <ele>4.46</ele>
        <time>2025-05-16T11:14:01Z</time>
      </trkpt>
      <trkpt lat="43.402219992130995" lon="3.697167970240116">
        <ele>4.46</ele>
        <time>2025-05-16T11:14:03Z</time>
      </trkpt>
      <trkpt lat="43.402124019339681" lon="3.697177022695541">
        <ele>4.46</ele>
        <time>2025-05-16T11:14:05Z</time>
      </trkpt>
      <trkpt lat="43.402075991034508" lon="3.697172999382019">
        <ele>3.98</ele>
        <time>2025-05-16T11:14:06Z</time>
      </trkpt>
      <trkpt lat="43.402027040719986" lon="3.697165036574006">
        <ele>3.98</ele>
        <time>2025-05-16T11:14:07Z</time>
      </trkpt>
      <trkpt lat="43.401978006586432" lon="3.697157995775342">
        <ele>3.98</ele>
        <time>2025-05-16T11:14:08Z</time>
      </trkpt>
      <trkpt lat="43.401926038786769" lon="3.697150032967329">
        <ele>3.98</ele>
        <time>2025-05-16T11:14:09Z</time>
      </trkpt>
      <trkpt lat="43.401832999661565" lon="3.697135029360652">
        <ele>4.46</ele>
        <time>2025-05-16T11:14:11Z</time>
      </trkpt>
      <trkpt lat="43.401790000498295" lon="3.697178028523922">
        <ele>4.94</ele>
        <time>2025-05-16T11:14:12Z</time>
      </trkpt>
      <trkpt lat="43.40175898745656" lon="3.697209963575006">
        <ele>5.42</ele>
        <time>2025-05-16T11:14:13Z</time>
      </trkpt>
      <trkpt lat="43.401747001335025" lon="3.697221027687192">
        <ele>6.39</ele>
        <time>2025-05-16T11:14:14Z</time>
      </trkpt>
      <trkpt lat="43.401747001335025" lon="3.697241982445121">
        <ele>7.35</ele>
        <time>2025-05-16T11:14:15Z</time>
      </trkpt>
      <trkpt lat="43.401747001335025" lon="3.697307026013732">
        <ele>8.310000000000001</ele>
        <time>2025-05-16T11:14:16Z</time>
      </trkpt>
      <trkpt lat="43.401747001335025" lon="3.697350025177002">
        <ele>8.789999999999999</ele>
        <time>2025-05-16T11:14:17Z</time>
      </trkpt>
      <trkpt lat="43.40175898745656" lon="3.697459995746613">
        <ele>9.27</ele>
        <time>2025-05-16T11:14:18Z</time>
      </trkpt>
      <trkpt lat="43.401768961921334" lon="3.697542976588011">
        <ele>9.27</ele>
        <time>2025-05-16T11:14:19Z</time>
      </trkpt>
      <trkpt lat="43.401768961921334" lon="3.69764699600637">
        <ele>9.27</ele>
        <time>2025-05-16T11:14:20Z</time>
      </trkpt>
      <trkpt lat="43.401780026033521" lon="3.697720002382994">
        <ele>9.75</ele>
        <time>2025-05-16T11:14:21Z</time>
      </trkpt>
      <trkpt lat="43.401792012155056" lon="3.697871966287494">
        <ele>10.23</ele>
        <time>2025-05-16T11:14:23Z</time>
      </trkpt>
      <trkpt lat="43.401796035468578" lon="3.698013033717871">
        <ele>10.710000000000001</ele>
        <time>2025-05-16T11:14:25Z</time>
      </trkpt>
      <trkpt lat="43.401806009933352" lon="3.698439002037048">
        <ele>11.67</ele>
        <time>2025-05-16T11:14:30Z</time>
      </trkpt>
      <trkpt lat="43.401807015761733" lon="3.698503039777279">
        <ele>11.67</ele>
        <time>2025-05-16T11:14:31Z</time>
      </trkpt>
      <trkpt lat="43.401809027418494" lon="3.698552995920181">
        <ele>11.67</ele>
        <time>2025-05-16T11:14:32Z</time>
      </trkpt>
      <trkpt lat="43.401810033246875" lon="3.698599012568593">
        <ele>11.19</ele>
        <time>2025-05-16T11:14:33Z</time>
      </trkpt>
      <trkpt lat="43.401811961084604" lon="3.69867998175323">
        <ele>11.19</ele>
        <time>2025-05-16T11:14:34Z</time>
      </trkpt>
      <trkpt lat="43.401842974126339" lon="3.69867998175323">
        <ele>10.710000000000001</ele>
        <time>2025-05-16T11:14:35Z</time>
      </trkpt>
      <trkpt lat="43.401892008259892" lon="3.698677970096469">
        <ele>10.710000000000001</ele>
        <time>2025-05-16T11:14:36Z</time>
      </trkpt>
      <trkpt lat="43.401940958574414" lon="3.698676964268088">
        <ele>10.23</ele>
        <time>2025-05-16T11:14:37Z</time>
      </trkpt>
      <trkpt lat="43.402003990486264" lon="3.698675036430359">
        <ele>10.23</ele>
        <time>2025-05-16T11:14:38Z</time>
      </trkpt>
      <trkpt lat="43.402076996862888" lon="3.698674030601978">
        <ele>10.23</ele>
        <time>2025-05-16T11:14:39Z</time>
      </trkpt>
      <trkpt lat="43.402627017349005" lon="3.698659026995301">
        <ele>7.83</ele>
        <time>2025-05-16T11:14:48Z</time>
      </trkpt>
      <trkpt lat="43.402657024562359" lon="3.698653997853398">
        <ele>7.35</ele>
        <time>2025-05-16T11:14:49Z</time>
      </trkpt>
      <trkpt lat="43.402701029554009" lon="3.698647040873766">
        <ele>7.35</ele>
        <time>2025-05-16T11:14:50Z</time>
      </trkpt>
      <trkpt lat="43.402999006211758" lon="3.698599012568593">
        <ele>7.83</ele>
        <time>2025-05-16T11:14:55Z</time>
      </trkpt>
      <trkpt lat="43.403053991496563" lon="3.698589960113168">
        <ele>7.83</ele>
        <time>2025-05-16T11:14:56Z</time>
      </trkpt>
      <trkpt lat="43.403254989534616" lon="3.698557019233704">
        <ele>8.789999999999999</ele>
        <time>2025-05-16T11:14:59Z</time>
      </trkpt>
      <trkpt lat="43.40332699008286" lon="3.698545033112168">
        <ele>9.27</ele>
        <time>2025-05-16T11:15:00Z</time>
      </trkpt>
      <trkpt lat="43.403393961489201" lon="3.698534974828363">
        <ele>9.27</ele>
        <time>2025-05-16T11:15:01Z</time>
      </trkpt>
      <trkpt lat="43.403572998940945" lon="3.698491975665093">
        <ele>10.23</ele>
        <time>2025-05-16T11:15:04Z</time>
      </trkpt>
      <trkpt lat="43.403625972568989" lon="3.698477977886796">
        <ele>10.710000000000001</ele>
        <time>2025-05-16T11:15:05Z</time>
      </trkpt>
      <trkpt lat="43.403681041672826" lon="3.6984639801085">
        <ele>10.710000000000001</ele>
        <time>2025-05-16T11:15:06Z</time>
      </trkpt>
      <trkpt lat="43.403850020840764" lon="3.69842098094523">
        <ele>11.19</ele>
        <time>2025-05-16T11:15:09Z</time>
      </trkpt>
      <trkpt lat="43.403902994468808" lon="3.698406983166933">
        <ele>11.19</ele>
        <time>2025-05-16T11:15:10Z</time>
      </trkpt>
      <trkpt lat="43.403962003067136" lon="3.698391979560256">
        <ele>11.19</ele>
        <time>2025-05-16T11:15:11Z</time>
      </trkpt>
      <trkpt lat="43.404140034690499" lon="3.698346968740225">
        <ele>11.67</ele>
        <time>2025-05-16T11:15:14Z</time>
      </trkpt>
      <trkpt lat="43.404198959469795" lon="3.698331965133548">
        <ele>11.67</ele>
        <time>2025-05-16T11:15:15Z</time>
      </trkpt>
      <trkpt lat="43.404243970289826" lon="3.698319979012013">
        <ele>11.67</ele>
        <time>2025-05-16T11:15:16Z</time>
      </trkpt>
      <trkpt lat="43.404270960018039" lon="3.69831302203238">
        <ele>11.19</ele>
        <time>2025-05-16T11:15:17Z</time>
      </trkpt>
      <trkpt lat="43.404270960018039" lon="3.69831302203238">
        <ele>11.19</ele>
        <time>2025-05-16T11:15:26Z</time>
      </trkpt>
      <trkpt lat="43.404278000816703" lon="3.698311010375619">
        <ele>11.19</ele>
        <time>2025-05-16T11:15:38Z</time>
      </trkpt>
      <trkpt lat="43.404313959181309" lon="3.698302041739225">
        <ele>10.710000000000001</ele>
        <time>2025-05-16T11:15:39Z</time>
      </trkpt>
      <trkpt lat="43.404365004971623" lon="3.698288965970278">
        <ele>10.710000000000001</ele>
        <time>2025-05-16T11:15:40Z</time>
      </trkpt>
      <trkpt lat="43.404426025226712" lon="3.698246972635388">
        <ele>10.710000000000001</ele>
        <time>2025-05-16T11:15:41Z</time>
      </trkpt>
      <trkpt lat="43.404416972771287" lon="3.69818695820868">
        <ele>10.23</ele>
        <time>2025-05-16T11:15:42Z</time>
      </trkpt>
      <trkpt lat="43.404406998306513" lon="3.698115041479468">
        <ele>10.23</ele>
        <time>2025-05-16T11:15:43Z</time>
      </trkpt>
      <trkpt lat="43.404395012184978" lon="3.698031976819038">
        <ele>9.75</ele>
        <time>2025-05-16T11:15:44Z</time>
      </trkpt>
      <trkpt lat="43.40435897000134" lon="3.697781022638083">
        <ele>8.310000000000001</ele>
        <time>2025-05-16T11:15:47Z</time>
      </trkpt>
      <trkpt lat="43.40420700609684" lon="3.696883991360664">
        <ele>4.46</ele>
        <time>2025-05-16T11:15:58Z</time>
      </trkpt>
      <trkpt lat="43.404193008318543" lon="3.696814002469182">
        <ele>4.46</ele>
        <time>2025-05-16T11:15:59Z</time>
      </trkpt>
      <trkpt lat="43.404151014983654" lon="3.696771003305912">
        <ele>4.46</ele>
        <time>2025-05-16T11:16:00Z</time>
      </trkpt>
      <trkpt lat="43.404117990285158" lon="3.696779971942306">
        <ele>4.46</ele>
        <time>2025-05-16T11:16:01Z</time>
      </trkpt>
      <trkpt lat="43.404052024707198" lon="3.696796987205744">
        <ele>4.46</ele>
        <time>2025-05-16T11:16:02Z</time>
      </trkpt>
      <trkpt lat="43.403290025889874" lon="3.696969989687204">
        <ele>4.46</ele>
        <time>2025-05-16T11:16:11Z</time>
      </trkpt>
      <trkpt lat="43.403057008981705" lon="3.697013994678855">
        <ele>3.98</ele>
        <time>2025-05-16T11:16:14Z</time>
      </trkpt>
      <trkpt lat="43.403007974848151" lon="3.697019023820758">
        <ele>3.98</ele>
        <time>2025-05-16T11:16:15Z</time>
      </trkpt>
      <trkpt lat="43.402974028140306" lon="3.697022963315249">
        <ele>3.5</ele>
        <time>2025-05-16T11:16:16Z</time>
      </trkpt>
      <trkpt lat="43.402927005663514" lon="3.697027992457151">
        <ele>3.02</ele>
        <time>2025-05-16T11:16:17Z</time>
      </trkpt>
      <trkpt lat="43.402927005663514" lon="3.697027992457151">
        <ele>2.54</ele>
        <time>2025-05-16T11:16:18Z</time>
      </trkpt>
      <trkpt lat="43.402927005663514" lon="3.697027992457151">
        <ele>2.06</ele>
        <time>2025-05-16T11:16:19Z</time>
      </trkpt>
      <trkpt lat="43.402890963479877" lon="3.69702598080039">
        <ele>2.06</ele>
        <time>2025-05-16T11:16:20Z</time>
      </trkpt>
      <trkpt lat="43.402864979580045" lon="3.69702497497201">
        <ele>1.58</ele>
        <time>2025-05-16T11:16:21Z</time>
      </trkpt>
      <trkpt lat="43.402553005144" lon="3.697008965536952">
        <ele>-0.34</ele>
        <time>2025-05-16T11:16:29Z</time>
      </trkpt>
      <trkpt lat="43.402479998767376" lon="3.696974013000727">
        <ele>-1.3</ele>
        <time>2025-05-16T11:16:31Z</time>
      </trkpt>
      <trkpt lat="43.402390982955694" lon="3.696898994967341">
        <ele>-1.79</ele>
        <time>2025-05-16T11:16:34Z</time>
      </trkpt>
      <trkpt lat="43.40238100849092" lon="3.6968959774822">
        <ele>-2.27</ele>
        <time>2025-05-16T11:16:35Z</time>
      </trkpt>
      <trkpt lat="43.402329962700605" lon="3.696878962218761">
        <ele>-2.27</ele>
        <time>2025-05-16T11:16:36Z</time>
      </trkpt>
      <trkpt lat="43.402282018214464" lon="3.696863036602736">
        <ele>-2.75</ele>
        <time>2025-05-16T11:16:37Z</time>
      </trkpt>
      <trkpt lat="43.402232984080911" lon="3.696847027167678">
        <ele>-3.71</ele>
        <time>2025-05-16T11:16:38Z</time>
      </trkpt>
      <trkpt lat="43.402185039594769" lon="3.69683101773262">
        <ele>-4.67</ele>
        <time>2025-05-16T11:16:39Z</time>
      </trkpt>
      <trkpt lat="43.402141034603119" lon="3.696816014125943">
        <ele>-5.15</ele>
        <time>2025-05-16T11:16:40Z</time>
      </trkpt>
      <trkpt lat="43.40210197493434" lon="3.696803022176027">
        <ele>-6.11</ele>
        <time>2025-05-16T11:16:41Z</time>
      </trkpt>
      <trkpt lat="43.401695033535361" lon="3.696682993322611">
        <ele>-12.84</ele>
        <time>2025-05-16T11:16:52Z</time>
      </trkpt>
      <trkpt lat="43.401464028283954" lon="3.696628008037806">
        <ele>-18.129999999999999</ele>
        <time>2025-05-16T11:17:03Z</time>
      </trkpt>
      <trkpt lat="43.401248026639223" lon="3.696564976125956">
        <ele>-22.449999999999999</ele>
        <time>2025-05-16T11:17:15Z</time>
      </trkpt>
      <trkpt lat="43.401248026639223" lon="3.696564976125956">
        <ele>-21.969999999999999</ele>
        <time>2025-05-16T11:17:30Z</time>
      </trkpt>
      <trkpt lat="43.401248026639223" lon="3.696564976125956">
        <ele>-22.449999999999999</ele>
        <time>2025-05-16T11:18:08Z</time>
      </trkpt>
      <trkpt lat="43.401175020262599" lon="3.696536980569363">
        <ele>-22.93</ele>
        <time>2025-05-16T11:18:22Z</time>
      </trkpt>
      <trkpt lat="43.401138978078961" lon="3.696523988619447">
        <ele>-22.449999999999999</ele>
        <time>2025-05-16T11:18:23Z</time>
      </trkpt>
      <trkpt lat="43.401101008057594" lon="3.69650999084115">
        <ele>-19.09</ele>
        <time>2025-05-16T11:18:24Z</time>
      </trkpt>
      <trkpt lat="43.401073012501001" lon="3.696499010547996">
        <ele>-16.690000000000001</ele>
        <time>2025-05-16T11:18:25Z</time>
      </trkpt>
      <trkpt lat="43.401045016944408" lon="3.696488030254841">
        <ele>-14.76</ele>
        <time>2025-05-16T11:18:26Z</time>
      </trkpt>
      <trkpt lat="43.401020038872957" lon="3.696478977799416">
        <ele>-11.880000000000001</ele>
        <time>2025-05-16T11:18:27Z</time>
      </trkpt>
      <trkpt lat="43.400995982810855" lon="3.696470009163022">
        <ele>-9.960000000000001</ele>
        <time>2025-05-16T11:18:28Z</time>
      </trkpt>
      <trkpt lat="43.400972010567784" lon="3.6964659858495">
        <ele>-8.51</ele>
        <time>2025-05-16T11:18:29Z</time>
      </trkpt>
      <trkpt lat="43.400947032496333" lon="3.696460034698248">
        <ele>-7.55</ele>
        <time>2025-05-16T11:18:30Z</time>
      </trkpt>
      <trkpt lat="43.400947032496333" lon="3.696460034698248">
        <ele>-6.59</ele>
        <time>2025-05-16T11:18:31Z</time>
      </trkpt>
      <trkpt lat="43.400947032496333" lon="3.696460034698248">
        <ele>-4.67</ele>
        <time>2025-05-16T11:18:44Z</time>
      </trkpt>
      <trkpt lat="43.400845024734735" lon="3.696436984464526">
        <ele>-3.71</ele>
        <time>2025-05-16T11:18:53Z</time>
      </trkpt>
      <trkpt lat="43.400722984224558" lon="3.696404965594411">
        <ele>-1.79</ele>
        <time>2025-05-16T11:19:06Z</time>
      </trkpt>
      <trkpt lat="43.400679985061288" lon="3.696392979472876">
        <ele>-1.79</ele>
        <time>2025-05-16T11:19:09Z</time>
      </trkpt>
      <trkpt lat="43.400655006989837" lon="3.696386022493243">
        <ele>-1.79</ele>
        <time>2025-05-16T11:19:10Z</time>
      </trkpt>
      <trkpt lat="43.400632040575147" lon="3.69637998752296">
        <ele>-1.3</ele>
        <time>2025-05-16T11:19:11Z</time>
      </trkpt>
      <trkpt lat="43.400613013654947" lon="3.696374958381057">
        <ele>-1.3</ele>
        <time>2025-05-16T11:19:12Z</time>
      </trkpt>
      <trkpt lat="43.400594992563128" lon="3.696370013058186">
        <ele>-0.82</ele>
        <time>2025-05-16T11:19:13Z</time>
      </trkpt>
      <trkpt lat="43.400578983128071" lon="3.696365989744663">
        <ele>-0.82</ele>
        <time>2025-05-16T11:19:14Z</time>
      </trkpt>
      <trkpt lat="43.400578983128071" lon="3.696365989744663">
        <ele>-0.82</ele>
        <time>2025-05-16T11:19:15Z</time>
      </trkpt>
      <trkpt lat="43.400594992563128" lon="3.696359032765031">
        <ele>23.210000000000001</ele>
        <time>2025-05-16T11:23:12Z</time>
      </trkpt>
      <trkpt lat="43.400559034198523" lon="3.69637998752296">
        <ele>12.630000000000001</ele>
        <time>2025-05-16T11:23:26Z</time>
      </trkpt>
      <trkpt lat="43.400249993428588" lon="3.696278985589743">
        <ele>9.75</ele>
        <time>2025-05-16T11:23:33Z</time>
      </trkpt>
      <trkpt lat="43.400109009817243" lon="3.696239003911614">
        <ele>8.789999999999999</ele>
        <time>2025-05-16T11:23:36Z</time>
      </trkpt>
      <trkpt lat="43.400050001218915" lon="3.696222994476557">
        <ele>8.310000000000001</ele>
        <time>2025-05-16T11:23:37Z</time>
      </trkpt>
      <trkpt lat="43.399994010105729" lon="3.696206985041499">
        <ele>7.83</ele>
        <time>2025-05-16T11:23:38Z</time>
      </trkpt>
      <trkpt lat="43.399935001507401" lon="3.696190975606442">
        <ele>7.35</ele>
        <time>2025-05-16T11:23:39Z</time>
      </trkpt>
      <trkpt lat="43.399869035929441" lon="3.696173038333654">
        <ele>6.87</ele>
        <time>2025-05-16T11:23:40Z</time>
      </trkpt>
      <trkpt lat="43.399809021502733" lon="3.696149988099933">
        <ele>6.39</ele>
        <time>2025-05-16T11:23:41Z</time>
      </trkpt>
      <trkpt lat="43.399736015126109" lon="3.696127021685243">
        <ele>5.42</ele>
        <time>2025-05-16T11:23:42Z</time>
      </trkpt>
      <trkpt lat="43.39952495880425" lon="3.696127021685243">
        <ele>5.91</ele>
        <time>2025-05-16T11:23:45Z</time>
      </trkpt>
      <trkpt lat="43.399455975741148" lon="3.696127021685243">
        <ele>5.91</ele>
        <time>2025-05-16T11:23:46Z</time>
      </trkpt>
      <trkpt lat="43.399348016828299" lon="3.696127021685243">
        <ele>9.75</ele>
        <time>2025-05-16T11:23:52Z</time>
      </trkpt>
      <trkpt lat="43.399280039593577" lon="3.696127021685243">
        <ele>11.67</ele>
        <time>2025-05-16T11:23:57Z</time>
      </trkpt>
      <trkpt lat="43.399272998794913" lon="3.696175971999764">
        <ele>11.19</ele>
        <time>2025-05-16T11:23:58Z</time>
      </trkpt>
      <trkpt lat="43.399257995188236" lon="3.696276973932982">
        <ele>11.67</ele>
        <time>2025-05-16T11:23:59Z</time>
      </trkpt>
      <trkpt lat="43.399291019886732" lon="3.696297006681562">
        <ele>12.15</ele>
        <time>2025-05-16T11:24:00Z</time>
      </trkpt>
      <trkpt lat="43.399346005171537" lon="3.696331959217787">
        <ele>11.67</ele>
        <time>2025-05-16T11:24:01Z</time>
      </trkpt>
      <trkpt lat="43.399409959092736" lon="3.696372024714947">
        <ele>11.19</ele>
        <time>2025-05-16T11:24:02Z</time>
      </trkpt>
      <trkpt lat="43.39954499155283" lon="3.696456011384726">
        <ele>9.75</ele>
        <time>2025-05-16T11:24:04Z</time>
      </trkpt>
      <trkpt lat="43.399600982666016" lon="3.696491969749332">
        <ele>9.27</ele>
        <time>2025-05-16T11:24:05Z</time>
      </trkpt>
      <trkpt lat="43.399662002921104" lon="3.696512002497912">
        <ele>8.789999999999999</ele>
        <time>2025-05-16T11:24:06Z</time>
      </trkpt>
      <trkpt lat="43.399713970720768" lon="3.696526000276208">
        <ele>8.789999999999999</ele>
        <time>2025-05-16T11:24:07Z</time>
      </trkpt>
      <trkpt lat="43.399771973490715" lon="3.696541003882885">
        <ele>8.789999999999999</ele>
        <time>2025-05-16T11:24:08Z</time>
      </trkpt>
      <trkpt lat="43.399838022887707" lon="3.696559024974704">
        <ele>8.310000000000001</ele>
        <time>2025-05-16T11:24:09Z</time>
      </trkpt>
      <trkpt lat="43.400050001218915" lon="3.696614010259509">
        <ele>7.83</ele>
        <time>2025-05-16T11:24:13Z</time>
      </trkpt>
      <trkpt lat="43.400097023695707" lon="3.696627002209425">
        <ele>7.83</ele>
        <time>2025-05-16T11:24:14Z</time>
      </trkpt>
      <trkpt lat="43.400267008692026" lon="3.696672013029456">
        <ele>6.87</ele>
        <time>2025-05-16T11:24:18Z</time>
      </trkpt>
      <trkpt lat="43.400439005345106" lon="3.696717023849487">
        <ele>7.83</ele>
        <time>2025-05-16T11:24:28Z</time>
      </trkpt>
      <trkpt lat="43.400536989793181" lon="3.696743007749319">
        <ele>8.789999999999999</ele>
        <time>2025-05-16T11:25:02Z</time>
      </trkpt>
      <trkpt lat="43.400599015876651" lon="3.696760023012757">
        <ele>8.310000000000001</ele>
        <time>2025-05-16T11:25:03Z</time>
      </trkpt>
      <trkpt lat="43.401440978050232" lon="3.697015000507236">
        <ele>7.35</ele>
        <time>2025-05-16T11:25:13Z</time>
      </trkpt>
      <trkpt lat="43.401695033535361" lon="3.697134023532271">
        <ele>6.87</ele>
        <time>2025-05-16T11:25:18Z</time>
      </trkpt>
      <trkpt lat="43.401723029091954" lon="3.697181968018413">
        <ele>6.87</ele>
        <time>2025-05-16T11:25:19Z</time>
      </trkpt>
      <trkpt lat="43.401747001335025" lon="3.697225973010063">
        <ele>6.87</ele>
        <time>2025-05-16T11:25:20Z</time>
      </trkpt>
      <trkpt lat="43.401747001335025" lon="3.697292022407055">
        <ele>6.87</ele>
        <time>2025-05-16T11:25:21Z</time>
      </trkpt>
      <trkpt lat="43.401748007163405" lon="3.697355976328254">
        <ele>6.87</ele>
        <time>2025-05-16T11:25:22Z</time>
      </trkpt>
      <trkpt lat="43.401794023811817" lon="3.697950001806021">
        <ele>7.35</ele>
        <time>2025-05-16T11:25:34Z</time>
      </trkpt>
      <trkpt lat="43.401795029640198" lon="3.697985038161278">
        <ele>7.35</ele>
        <time>2025-05-16T11:25:41Z</time>
      </trkpt>
      <trkpt lat="43.401796035468578" lon="3.698023008182645">
        <ele>7.35</ele>
        <time>2025-05-16T11:25:42Z</time>
      </trkpt>
      <trkpt lat="43.401798969134688" lon="3.698171032592654">
        <ele>7.35</ele>
        <time>2025-05-16T11:25:44Z</time>
      </trkpt>
      <trkpt lat="43.40180198661983" lon="3.698258036747575">
        <ele>7.35</ele>
        <time>2025-05-16T11:25:45Z</time>
      </trkpt>
      <trkpt lat="43.401802992448211" lon="3.698342023417354">
        <ele>7.35</ele>
        <time>2025-05-16T11:25:46Z</time>
      </trkpt>
      <trkpt lat="43.401805004104972" lon="3.69842198677361">
        <ele>7.35</ele>
        <time>2025-05-16T11:25:47Z</time>
      </trkpt>
      <trkpt lat="43.401807015761733" lon="3.698504967615008">
        <ele>7.35</ele>
        <time>2025-05-16T11:25:48Z</time>
      </trkpt>
      <trkpt lat="43.401810033246875" lon="3.698594989255071">
        <ele>7.35</ele>
        <time>2025-05-16T11:25:49Z</time>
      </trkpt>
      <trkpt lat="43.401812966912985" lon="3.698760028928518">
        <ele>6.87</ele>
        <time>2025-05-16T11:25:51Z</time>
      </trkpt>
      <trkpt lat="43.401814978569746" lon="3.698853990063071">
        <ele>6.39</ele>
        <time>2025-05-16T11:25:52Z</time>
      </trkpt>
      <trkpt lat="43.401816990226507" lon="3.69895800948143">
        <ele>6.39</ele>
        <time>2025-05-16T11:25:53Z</time>
      </trkpt>
      <trkpt lat="43.401825036853552" lon="3.699403004720807">
        <ele>5.42</ele>
        <time>2025-05-16T11:25:57Z</time>
      </trkpt>
      <trkpt lat="43.401826964691281" lon="3.699513981118798">
        <ele>4.94</ele>
        <time>2025-05-16T11:25:58Z</time>
      </trkpt>
      <trkpt lat="43.401828976348042" lon="3.699613977223635">
        <ele>4.46</ele>
        <time>2025-05-16T11:25:59Z</time>
      </trkpt>
      <trkpt lat="43.401829982176423" lon="3.699683966115117">
        <ele>3.98</ele>
        <time>2025-05-16T11:26:00Z</time>
      </trkpt>
      <trkpt lat="43.401830988004804" lon="3.699724031612277">
        <ele>3.5</ele>
        <time>2025-05-16T11:26:01Z</time>
      </trkpt>
      <trkpt lat="43.401831993833184" lon="3.699760995805264">
        <ele>3.5</ele>
        <time>2025-05-16T11:26:02Z</time>
      </trkpt>
      <trkpt lat="43.401831993833184" lon="3.69979795999825">
        <ele>3.02</ele>
        <time>2025-05-16T11:26:03Z</time>
      </trkpt>
      <trkpt lat="43.401920003816485" lon="3.69984095916152">
        <ele>3.02</ele>
        <time>2025-05-16T11:26:04Z</time>
      </trkpt>
      <trkpt lat="43.40197398327291" lon="3.699842970818281">
        <ele>3.5</ele>
        <time>2025-05-16T11:26:05Z</time>
      </trkpt>
      <trkpt lat="43.402038021013141" lon="3.699843976646662">
        <ele>3.5</ele>
        <time>2025-05-16T11:26:06Z</time>
      </trkpt>
      <trkpt lat="43.402109015733004" lon="3.699845988303423">
        <ele>3.5</ele>
        <time>2025-05-16T11:26:07Z</time>
      </trkpt>
      <trkpt lat="43.402512017637491" lon="3.699855962768197">
        <ele>3.02</ele>
        <time>2025-05-16T11:26:13Z</time>
      </trkpt>
      <trkpt lat="43.402570020407438" lon="3.699857974424958">
        <ele>3.02</ele>
        <time>2025-05-16T11:26:14Z</time>
      </trkpt>
      <trkpt lat="43.402621988207102" lon="3.699858980253339">
        <ele>3.02</ele>
        <time>2025-05-16T11:26:15Z</time>
      </trkpt>
      <trkpt lat="43.402670016512275" lon="3.6998609919101">
        <ele>2.54</ele>
        <time>2025-05-16T11:26:16Z</time>
      </trkpt>
      <trkpt lat="43.402678985148668" lon="3.699878007173538">
        <ele>2.54</ele>
        <time>2025-05-16T11:26:17Z</time>
      </trkpt>
      <trkpt lat="43.402703963220119" lon="3.699927963316441">
        <ele>2.54</ele>
        <time>2025-05-16T11:26:18Z</time>
      </trkpt>
      <trkpt lat="43.402732964605093" lon="3.699986971914768">
        <ele>2.06</ele>
        <time>2025-05-16T11:26:19Z</time>
      </trkpt>
      <trkpt lat="43.402737993746996" lon="3.700031982734799">
        <ele>1.58</ele>
        <time>2025-05-16T11:26:20Z</time>
      </trkpt>
      <trkpt lat="43.402744028717279" lon="3.700113035738468">
        <ele>1.58</ele>
        <time>2025-05-16T11:26:21Z</time>
      </trkpt>
      <trkpt lat="43.402815023437142" lon="3.700980981811881">
        <ele>-0.82</ele>
        <time>2025-05-16T11:26:29Z</time>
      </trkpt>
      <trkpt lat="43.402841007336974" lon="3.70106203481555">
        <ele>-0.82</ele>
        <time>2025-05-16T11:26:30Z</time>
      </trkpt>
      <trkpt lat="43.40289699845016" lon="3.70110503397882">
        <ele>-0.82</ele>
        <time>2025-05-16T11:26:31Z</time>
      </trkpt>
      <trkpt lat="43.402958018705249" lon="3.701101010665298">
        <ele>-0.82</ele>
        <time>2025-05-16T11:26:32Z</time>
      </trkpt>
      <trkpt lat="43.403034964576364" lon="3.701096987351775">
        <ele>-0.82</ele>
        <time>2025-05-16T11:26:33Z</time>
      </trkpt>
      <trkpt lat="43.403125992044806" lon="3.701092964038253">
        <ele>-0.82</ele>
        <time>2025-05-16T11:26:34Z</time>
      </trkpt>
      <trkpt lat="43.403622033074498" lon="3.701066980138421">
        <ele>-0.82</ele>
        <time>2025-05-16T11:26:40Z</time>
      </trkpt>
      <trkpt lat="43.403888996690512" lon="3.701052982360125">
        <ele>0.14</ele>
        <time>2025-05-16T11:26:44Z</time>
      </trkpt>
      <trkpt lat="43.403968960046768" lon="3.701048959046602">
        <ele>0.14</ele>
        <time>2025-05-16T11:26:45Z</time>
      </trkpt>
      <trkpt lat="43.404472041875124" lon="3.701040996238589">
        <ele>-1.79</ele>
        <time>2025-05-16T11:26:51Z</time>
      </trkpt>
      <trkpt lat="43.404539013281465" lon="3.701034039258957">
        <ele>-1.79</ele>
        <time>2025-05-16T11:26:52Z</time>
      </trkpt>
      <trkpt lat="43.40465703047812" lon="3.70102196931839">
        <ele>-2.75</ele>
        <time>2025-05-16T11:26:54Z</time>
      </trkpt>
      <trkpt lat="43.404688965529203" lon="3.701020963490009">
        <ele>-3.23</ele>
        <time>2025-05-16T11:26:55Z</time>
      </trkpt>
      <trkpt lat="43.404730958864093" lon="3.70106304064393">
        <ele>-3.23</ele>
        <time>2025-05-16T11:26:56Z</time>
      </trkpt>
      <trkpt lat="43.404750991612673" lon="3.701087012887001">
        <ele>-3.23</ele>
        <time>2025-05-16T11:26:57Z</time>
      </trkpt>
      <trkpt lat="43.404753003269434" lon="3.701202012598515">
        <ele>-2.75</ele>
        <time>2025-05-16T11:26:58Z</time>
      </trkpt>
      <trkpt lat="43.404769012704492" lon="3.701313994824886">
        <ele>-2.27</ele>
        <time>2025-05-16T11:26:59Z</time>
      </trkpt>
      <trkpt lat="43.404878983274102" lon="3.702023020014167">
        <ele>-0.34</ele>
        <time>2025-05-16T11:27:06Z</time>
      </trkpt>
      <trkpt lat="43.404905973002315" lon="3.702132990583777">
        <ele>-0.82</ele>
        <time>2025-05-16T11:27:07Z</time>
      </trkpt>
      <trkpt lat="43.4049619641155" lon="3.702239021658897">
        <ele>-0.82</ele>
        <time>2025-05-16T11:27:08Z</time>
      </trkpt>
      <trkpt lat="43.405033964663744" lon="3.702311022207141">
        <ele>-0.82</ele>
        <time>2025-05-16T11:27:09Z</time>
      </trkpt>
      <trkpt lat="43.405114011839032" lon="3.702376987785101">
        <ele>-0.82</ele>
        <time>2025-05-16T11:27:10Z</time>
      </trkpt>
      <trkpt lat="43.40519699268043" lon="3.702430967241526">
        <ele>-0.82</ele>
        <time>2025-05-16T11:27:11Z</time>
      </trkpt>
      <trkpt lat="43.405278967693448" lon="3.702485030516982">
        <ele>-0.34</ele>
        <time>2025-05-16T11:27:12Z</time>
      </trkpt>
      <trkpt lat="43.405358009040356" lon="3.702536998316646">
        <ele>-0.34</ele>
        <time>2025-05-16T11:27:13Z</time>
      </trkpt>
      <trkpt lat="43.405838962644339" lon="3.702854001894593">
        <ele>0.62</ele>
        <time>2025-05-16T11:27:19Z</time>
      </trkpt>
      <trkpt lat="43.406388983130455" lon="3.703246023505926">
        <ele>1.1</ele>
        <time>2025-05-16T11:27:25Z</time>
      </trkpt>
      <trkpt lat="43.407046040520072" lon="3.703723037615418">
        <ele>2.54</ele>
        <time>2025-05-16T11:27:34Z</time>
      </trkpt>
      <trkpt lat="43.40764501132071" lon="3.704130984842777">
        <ele>1.1</ele>
        <time>2025-05-16T11:27:42Z</time>
      </trkpt>
      <trkpt lat="43.407722963020205" lon="3.704184964299202">
        <ele>1.1</ele>
        <time>2025-05-16T11:27:43Z</time>
      </trkpt>
      <trkpt lat="43.407915998250246" lon="3.704315973445773">
        <ele>0.14</ele>
        <time>2025-05-16T11:27:46Z</time>
      </trkpt>
      <trkpt lat="43.408190002664924" lon="3.704504985362291">
        <ele>-0.34</ele>
        <time>2025-05-16T11:27:51Z</time>
      </trkpt>
      <trkpt lat="43.408585041761398" lon="3.70480103418231">
        <ele>0.14</ele>
        <time>2025-05-16T11:27:57Z</time>
      </trkpt>
      <trkpt lat="43.40869702398777" lon="3.704876974225044">
        <ele>0.14</ele>
        <time>2025-05-16T11:27:59Z</time>
      </trkpt>
      <trkpt lat="43.408806994557381" lon="3.704946041107178">
        <ele>0.62</ele>
        <time>2025-05-16T11:28:05Z</time>
      </trkpt>
      <trkpt lat="43.409064989537001" lon="3.705290034413338">
        <ele>1.58</ele>
        <time>2025-05-16T11:28:12Z</time>
      </trkpt>
      <trkpt lat="43.409133972600102" lon="3.705323981121182">
        <ele>2.06</ele>
        <time>2025-05-16T11:28:13Z</time>
      </trkpt>
      <trkpt lat="43.409288031980395" lon="3.705412996932864">
        <ele>2.06</ele>
        <time>2025-05-16T11:28:15Z</time>
      </trkpt>
      <trkpt lat="43.409347962588072" lon="3.705519028007984">
        <ele>2.54</ele>
        <time>2025-05-16T11:28:16Z</time>
      </trkpt>
      <trkpt lat="43.409404037520289" lon="3.70561701245606">
        <ele>2.54</ele>
        <time>2025-05-16T11:28:17Z</time>
      </trkpt>
      <trkpt lat="43.409464973956347" lon="3.70572698302567">
        <ele>2.54</ele>
        <time>2025-05-16T11:28:18Z</time>
      </trkpt>
      <trkpt lat="43.409534962847829" lon="3.705849023535848">
        <ele>2.54</ele>
        <time>2025-05-16T11:28:19Z</time>
      </trkpt>
      <trkpt lat="43.410200988873839" lon="3.707285011187196">
        <ele>2.54</ele>
        <time>2025-05-16T11:28:28Z</time>
      </trkpt>
      <trkpt lat="43.411109000444412" lon="3.70933698490262">
        <ele>3.02</ele>
        <time>2025-05-16T11:28:42Z</time>
      </trkpt>
      <trkpt lat="43.411777038127184" lon="3.710779007524252">
        <ele>3.98</ele>
        <time>2025-05-16T11:28:53Z</time>
      </trkpt>
      <trkpt lat="43.412166964262724" lon="3.711682995781303">
        <ele>4.46</ele>
        <time>2025-05-16T11:29:00Z</time>
      </trkpt>
      <trkpt lat="43.412219015881419" lon="3.711812999099493">
        <ele>4.94</ele>
        <time>2025-05-16T11:29:02Z</time>
      </trkpt>
      <trkpt lat="43.412292022258043" lon="3.711960017681122">
        <ele>4.94</ele>
        <time>2025-05-16T11:29:03Z</time>
      </trkpt>
      <trkpt lat="43.412380032241344" lon="3.712141988798976">
        <ele>5.42</ele>
        <time>2025-05-16T11:29:05Z</time>
      </trkpt>
      <trkpt lat="43.412430994212627" lon="3.712248019874096">
        <ele>5.42</ele>
        <time>2025-05-16T11:29:06Z</time>
      </trkpt>
      <trkpt lat="43.413030970841646" lon="3.713507987558842">
        <ele>5.42</ele>
        <time>2025-05-16T11:29:16Z</time>
      </trkpt>
      <trkpt lat="43.414165964350104" lon="3.715979978442192">
        <ele>5.42</ele>
        <time>2025-05-16T11:29:33Z</time>
      </trkpt>
      <trkpt lat="43.414299990981817" lon="3.716276027262211">
        <ele>5.42</ele>
        <time>2025-05-16T11:29:35Z</time>
      </trkpt>
      <trkpt lat="43.414400992915034" lon="3.716563023626804">
        <ele>5.42</ele>
        <time>2025-05-16T11:29:37Z</time>
      </trkpt>
      <trkpt lat="43.414436029270291" lon="3.716680034995079">
        <ele>5.91</ele>
        <time>2025-05-16T11:29:38Z</time>
      </trkpt>
      <trkpt lat="43.414420019835234" lon="3.716888995841146">
        <ele>5.91</ele>
        <time>2025-05-16T11:29:40Z</time>
      </trkpt>
      <trkpt lat="43.414450027048588" lon="3.7169190030545">
        <ele>5.42</ele>
        <time>2025-05-16T11:29:41Z</time>
      </trkpt>
      <trkpt lat="43.414573995396495" lon="3.71694004163146">
        <ele>5.42</ele>
        <time>2025-05-16T11:29:42Z</time>
      </trkpt>
      <trkpt lat="43.414668962359428" lon="3.717102985829115">
        <ele>5.42</ele>
        <time>2025-05-16T11:29:44Z</time>
      </trkpt>
      <trkpt lat="43.414733000099659" lon="3.717211028560996">
        <ele>5.42</ele>
        <time>2025-05-16T11:29:45Z</time>
      </trkpt>
      <trkpt lat="43.414793014526367" lon="3.717332985252142">
        <ele>5.42</ele>
        <time>2025-05-16T11:29:46Z</time>
      </trkpt>
      <trkpt lat="43.414855040609837" lon="3.717470029368997">
        <ele>5.42</ele>
        <time>2025-05-16T11:29:47Z</time>
      </trkpt>
      <trkpt lat="43.414921006187797" lon="3.717613024637103">
        <ele>5.42</ele>
        <time>2025-05-16T11:29:48Z</time>
      </trkpt>
      <trkpt lat="43.414987977594137" lon="3.717760965228081">
        <ele>5.42</ele>
        <time>2025-05-16T11:29:49Z</time>
      </trkpt>
      <trkpt lat="43.415853995829821" lon="3.719672961160541">
        <ele>5.42</ele>
        <time>2025-05-16T11:30:02Z</time>
      </trkpt>
      <trkpt lat="43.416739040985703" lon="3.721614964306355">
        <ele>6.87</ele>
        <time>2025-05-16T11:30:15Z</time>
      </trkpt>
      <trkpt lat="43.41729199513793" lon="3.723029997199774">
        <ele>9.75</ele>
        <time>2025-05-16T11:30:22Z</time>
      </trkpt>
      <trkpt lat="43.417333988472819" lon="3.723232001066208">
        <ele>10.710000000000001</ele>
        <time>2025-05-16T11:30:23Z</time>
      </trkpt>
      <trkpt lat="43.417366007342935" lon="3.723416989669204">
        <ele>11.19</ele>
        <time>2025-05-16T11:30:24Z</time>
      </trkpt>
      <trkpt lat="43.417338011786342" lon="3.723589992150664">
        <ele>11.67</ele>
        <time>2025-05-16T11:30:25Z</time>
      </trkpt>
      <trkpt lat="43.41731496155262" lon="3.723738016560674">
        <ele>12.15</ele>
        <time>2025-05-16T11:30:26Z</time>
      </trkpt>
      <trkpt lat="43.417279003188014" lon="3.7238609790802">
        <ele>12.630000000000001</ele>
        <time>2025-05-16T11:30:27Z</time>
      </trkpt>
      <trkpt lat="43.417233992367983" lon="3.723958041518927">
        <ele>13.119999999999999</ele>
        <time>2025-05-16T11:30:28Z</time>
      </trkpt>
      <trkpt lat="43.417189987376332" lon="3.724050996825099">
        <ele>13.6</ele>
        <time>2025-05-16T11:30:29Z</time>
      </trkpt>
      <trkpt lat="43.417113041505218" lon="3.724146969616413">
        <ele>13.6</ele>
        <time>2025-05-16T11:30:30Z</time>
      </trkpt>
      <trkpt lat="43.417026959359646" lon="3.724183011800051">
        <ele>14.08</ele>
        <time>2025-05-16T11:30:31Z</time>
      </trkpt>
      <trkpt lat="43.416936015710235" lon="3.724218970164657">
        <ele>14.08</ele>
        <time>2025-05-16T11:30:32Z</time>
      </trkpt>
      <trkpt lat="43.416676009073853" lon="3.724349979311228">
        <ele>14.56</ele>
        <time>2025-05-16T11:30:35Z</time>
      </trkpt>
      <trkpt lat="43.416599985212088" lon="3.724424997344613">
        <ele>14.56</ele>
        <time>2025-05-16T11:30:36Z</time>
      </trkpt>
      <trkpt lat="43.416539970785379" lon="3.724513007327914">
        <ele>14.56</ele>
        <time>2025-05-16T11:30:37Z</time>
      </trkpt>
      <trkpt lat="43.416480962187052" lon="3.724619960412383">
        <ele>14.08</ele>
        <time>2025-05-16T11:30:38Z</time>
      </trkpt>
      <trkpt lat="43.416453972458839" lon="3.724735965952277">
        <ele>14.08</ele>
        <time>2025-05-16T11:30:39Z</time>
      </trkpt>
      <trkpt lat="43.416435029357672" lon="3.724872004240751">
        <ele>14.08</ele>
        <time>2025-05-16T11:30:40Z</time>
      </trkpt>
      <trkpt lat="43.416448021307588" lon="3.725006030872464">
        <ele>14.08</ele>
        <time>2025-05-16T11:30:41Z</time>
      </trkpt>
      <trkpt lat="43.416498983278871" lon="3.725139973685145">
        <ele>14.08</ele>
        <time>2025-05-16T11:30:42Z</time>
      </trkpt>
      <trkpt lat="43.416566960513592" lon="3.725258996710181">
        <ele>14.08</ele>
        <time>2025-05-16T11:30:43Z</time>
      </trkpt>
      <trkpt lat="43.416659999638796" lon="3.725352035835385">
        <ele>14.56</ele>
        <time>2025-05-16T11:30:44Z</time>
      </trkpt>
      <trkpt lat="43.416724959388375" lon="3.725416995584965">
        <ele>14.56</ele>
        <time>2025-05-16T11:30:45Z</time>
      </trkpt>
      <trkpt lat="43.416800983250141" lon="3.725579017773271">
        <ele>14.56</ele>
        <time>2025-05-16T11:30:46Z</time>
      </trkpt>
      <trkpt lat="43.416868038475513" lon="3.725721007212997">
        <ele>14.56</ele>
        <time>2025-05-16T11:30:47Z</time>
      </trkpt>
      <trkpt lat="43.416940961033106" lon="3.725876994431019">
        <ele>14.56</ele>
        <time>2025-05-16T11:30:48Z</time>
      </trkpt>
      <trkpt lat="43.417021008208394" lon="3.726045973598957">
        <ele>14.56</ele>
        <time>2025-05-16T11:30:49Z</time>
      </trkpt>
      <trkpt lat="43.417985010892153" lon="3.728231973946095">
        <ele>8.310000000000001</ele>
        <time>2025-05-16T11:31:00Z</time>
      </trkpt>
      <trkpt lat="43.419126039370894" lon="3.731621028855443">
        <ele>6.39</ele>
        <time>2025-05-16T11:31:14Z</time>
      </trkpt>
      <trkpt lat="43.419872028753161" lon="3.733839970082045">
        <ele>5.91</ele>
        <time>2025-05-16T11:31:24Z</time>
      </trkpt>
      <trkpt lat="43.420992018654943" lon="3.736981004476547">
        <ele>4.94</ele>
        <time>2025-05-16T11:31:38Z</time>
      </trkpt>
      <trkpt lat="43.422145033255219" lon="3.740315996110439">
        <ele>4.94</ele>
        <time>2025-05-16T11:31:53Z</time>
      </trkpt>
      <trkpt lat="43.423276003450155" lon="3.743762969970703">
        <ele>4.94</ele>
        <time>2025-05-16T11:32:08Z</time>
      </trkpt>
      <trkpt lat="43.42410497367382" lon="3.746081991121173">
        <ele>5.42</ele>
        <time>2025-05-16T11:32:18Z</time>
      </trkpt>
      <trkpt lat="43.425168972462416" lon="3.748541995882988">
        <ele>8.789999999999999</ele>
        <time>2025-05-16T11:32:29Z</time>
      </trkpt>
      <trkpt lat="43.426333973184228" lon="3.75045801512897">
        <ele>11.67</ele>
        <time>2025-05-16T11:32:39Z</time>
      </trkpt>
      <trkpt lat="43.428317969664931" lon="3.752656001597643">
        <ele>5.91</ele>
        <time>2025-05-16T11:32:52Z</time>
      </trkpt>
      <trkpt lat="43.430041037499905" lon="3.754312014207244">
        <ele>4.94</ele>
        <time>2025-05-16T11:33:03Z</time>
      </trkpt>
      <trkpt lat="43.432077001780272" lon="3.755882028490305">
        <ele>4.94</ele>
        <time>2025-05-16T11:33:15Z</time>
      </trkpt>
      <trkpt lat="43.434172980487347" lon="3.757713977247477">
        <ele>5.91</ele>
        <time>2025-05-16T11:33:28Z</time>
      </trkpt>
      <trkpt lat="43.436599038541317" lon="3.760161995887756">
        <ele>5.91</ele>
        <time>2025-05-16T11:33:44Z</time>
      </trkpt>
      <trkpt lat="43.438181038945913" lon="3.761729998514056">
        <ele>5.91</ele>
        <time>2025-05-16T11:33:54Z</time>
      </trkpt>
      <trkpt lat="43.439795980229974" lon="3.762925006449223">
        <ele>5.91</ele>
        <time>2025-05-16T11:34:03Z</time>
      </trkpt>
      <trkpt lat="43.441759021952748" lon="3.763619028031826">
        <ele>6.87</ele>
        <time>2025-05-16T11:34:13Z</time>
      </trkpt>
      <trkpt lat="43.443767996504903" lon="3.763610981404781">
        <ele>10.23</ele>
        <time>2025-05-16T11:34:23Z</time>
      </trkpt>
      <trkpt lat="43.445729026570916" lon="3.762973034754396">
        <ele>11.67</ele>
        <time>2025-05-16T11:34:33Z</time>
      </trkpt>
      <trkpt lat="43.448075959458947" lon="3.762177005410194">
        <ele>5.91</ele>
        <time>2025-05-16T11:34:45Z</time>
      </trkpt>
      <trkpt lat="43.449459979310632" lon="3.762514963746071">
        <ele>4.94</ele>
        <time>2025-05-16T11:34:52Z</time>
      </trkpt>
      <trkpt lat="43.450709972530603" lon="3.763367990031838">
        <ele>4.94</ele>
        <time>2025-05-16T11:34:59Z</time>
      </trkpt>
      <trkpt lat="43.453727038577199" lon="3.766151033341885">
        <ele>5.42</ele>
        <time>2025-05-16T11:35:17Z</time>
      </trkpt>
      <trkpt lat="43.455991996452212" lon="3.767953980714083">
        <ele>5.42</ele>
        <time>2025-05-16T11:35:30Z</time>
      </trkpt>
      <trkpt lat="43.457939028739929" lon="3.768691001459956">
        <ele>4.94</ele>
        <time>2025-05-16T11:35:40Z</time>
      </trkpt>
      <trkpt lat="43.459946997463703" lon="3.768730983138084">
        <ele>7.83</ele>
        <time>2025-05-16T11:35:50Z</time>
      </trkpt>
      <trkpt lat="43.461901992559433" lon="3.768134023994207">
        <ele>12.15</ele>
        <time>2025-05-16T11:36:00Z</time>
      </trkpt>
      <trkpt lat="43.464487977325916" lon="3.766682026907802">
        <ele>8.789999999999999</ele>
        <time>2025-05-16T11:36:14Z</time>
      </trkpt>
      <trkpt lat="43.464804980903864" lon="3.766609020531178">
        <ele>8.789999999999999</ele>
        <time>2025-05-16T11:36:16Z</time>
      </trkpt>
      <trkpt lat="43.464958034455776" lon="3.76657297834754">
        <ele>8.310000000000001</ele>
        <time>2025-05-16T11:36:17Z</time>
      </trkpt>
      <trkpt lat="43.465111004188657" lon="3.766598962247372">
        <ele>8.310000000000001</ele>
        <time>2025-05-16T11:36:18Z</time>
      </trkpt>
      <trkpt lat="43.465257016941905" lon="3.766624024137855">
        <ele>7.83</ele>
        <time>2025-05-16T11:36:19Z</time>
      </trkpt>
      <trkpt lat="43.465394983068109" lon="3.766647996380925">
        <ele>7.83</ele>
        <time>2025-05-16T11:36:20Z</time>
      </trkpt>
      <trkpt lat="43.465520963072777" lon="3.766683032736182">
        <ele>7.35</ele>
        <time>2025-05-16T11:36:21Z</time>
      </trkpt>
      <trkpt lat="43.465746017172933" lon="3.766769031062722">
        <ele>7.35</ele>
        <time>2025-05-16T11:36:23Z</time>
      </trkpt>
      <trkpt lat="43.465836960822344" lon="3.766803983598948">
        <ele>7.35</ele>
        <time>2025-05-16T11:36:24Z</time>
      </trkpt>
      <trkpt lat="43.465906027704477" lon="3.76706600189209">
        <ele>7.35</ele>
        <time>2025-05-16T11:36:25Z</time>
      </trkpt>
      <trkpt lat="43.465979034081101" lon="3.767178989946842">
        <ele>7.35</ele>
        <time>2025-05-16T11:36:27Z</time>
      </trkpt>
      <trkpt lat="43.46606302075088" lon="3.767234981060028">
        <ele>7.35</ele>
        <time>2025-05-16T11:36:28Z</time>
      </trkpt>
      <trkpt lat="43.466178020462394" lon="3.767243027687073">
        <ele>7.83</ele>
        <time>2025-05-16T11:36:29Z</time>
      </trkpt>
      <trkpt lat="43.466264018788934" lon="3.767170021310449">
        <ele>8.310000000000001</ele>
        <time>2025-05-16T11:36:30Z</time>
      </trkpt>
      <trkpt lat="43.466329984366894" lon="3.767092991620302">
        <ele>8.310000000000001</ele>
        <time>2025-05-16T11:36:31Z</time>
      </trkpt>
      <trkpt lat="43.466352028772235" lon="3.766966005787253">
        <ele>8.789999999999999</ele>
        <time>2025-05-16T11:36:32Z</time>
      </trkpt>
      <trkpt lat="43.466355968266726" lon="3.76693700440228">
        <ele>9.27</ele>
        <time>2025-05-16T11:36:33Z</time>
      </trkpt>
      <trkpt lat="43.466489994898438" lon="3.766684038564563">
        <ele>9.27</ele>
        <time>2025-05-16T11:36:34Z</time>
      </trkpt>
      <trkpt lat="43.466610023751855" lon="3.766602985560894">
        <ele>9.27</ele>
        <time>2025-05-16T11:36:35Z</time>
      </trkpt>
      <trkpt lat="43.466743966564536" lon="3.766511958092451">
        <ele>9.27</ele>
        <time>2025-05-16T11:36:36Z</time>
      </trkpt>
      <trkpt lat="43.466888973489404" lon="3.766413973644376">
        <ele>8.789999999999999</ele>
        <time>2025-05-16T11:36:37Z</time>
      </trkpt>
      <trkpt lat="43.467893041670322" lon="3.766014995053411">
        <ele>8.310000000000001</ele>
        <time>2025-05-16T11:36:43Z</time>
      </trkpt>
      <trkpt lat="43.468051040545106" lon="3.766014995053411">
        <ele>8.789999999999999</ele>
        <time>2025-05-16T11:36:44Z</time>
      </trkpt>
      <trkpt lat="43.468207027763128" lon="3.766033016145229">
        <ele>8.789999999999999</ele>
        <time>2025-05-16T11:36:45Z</time>
      </trkpt>
      <trkpt lat="43.468364020809531" lon="3.766059000045061">
        <ele>9.27</ele>
        <time>2025-05-16T11:36:46Z</time>
      </trkpt>
      <trkpt lat="43.468521013855934" lon="3.766097975894809">
        <ele>9.27</ele>
        <time>2025-05-16T11:36:47Z</time>
      </trkpt>
      <trkpt lat="43.468678006902337" lon="3.766171988099814">
        <ele>9.27</ele>
        <time>2025-05-16T11:36:48Z</time>
      </trkpt>
      <trkpt lat="43.468837011605501" lon="3.766247006133199">
        <ele>9.27</ele>
        <time>2025-05-16T11:36:49Z</time>
      </trkpt>
      <trkpt lat="43.46898403018713" lon="3.766361000016332">
        <ele>9.27</ele>
        <time>2025-05-16T11:36:50Z</time>
      </trkpt>
      <trkpt lat="43.46913599409163" lon="3.766481028869748">
        <ele>9.27</ele>
        <time>2025-05-16T11:36:51Z</time>
      </trkpt>
      <trkpt lat="43.469288041815162" lon="3.766601979732513">
        <ele>9.75</ele>
        <time>2025-05-16T11:36:52Z</time>
      </trkpt>
      <trkpt lat="43.470857972279191" lon="3.767846021801233">
        <ele>11.19</ele>
        <time>2025-05-16T11:37:03Z</time>
      </trkpt>
      <trkpt lat="43.472522031515837" lon="3.769223000854254">
        <ele>10.710000000000001</ele>
        <time>2025-05-16T11:37:14Z</time>
      </trkpt>
      <trkpt lat="43.473953995853662" lon="3.770207036286593">
        <ele>13.6</ele>
        <time>2025-05-16T11:37:23Z</time>
      </trkpt>
      <trkpt lat="43.475466007366776" lon="3.770792009308934">
        <ele>12.630000000000001</ele>
        <time>2025-05-16T11:37:32Z</time>
      </trkpt>
      <trkpt lat="43.477833978831768" lon="3.771794987842441">
        <ele>10.710000000000001</ele>
        <time>2025-05-16T11:37:46Z</time>
      </trkpt>
      <trkpt lat="43.480273028835654" lon="3.772770976647735">
        <ele>11.19</ele>
        <time>2025-05-16T11:38:00Z</time>
      </trkpt>
      <trkpt lat="43.481537019833922" lon="3.772887988016009">
        <ele>11.67</ele>
        <time>2025-05-16T11:38:07Z</time>
      </trkpt>
      <trkpt lat="43.48329596221447" lon="3.772753039374948">
        <ele>8.310000000000001</ele>
        <time>2025-05-16T11:38:17Z</time>
      </trkpt>
      <trkpt lat="43.4857879858464" lon="3.77252496778965">
        <ele>6.87</ele>
        <time>2025-05-16T11:38:30Z</time>
      </trkpt>
      <trkpt lat="43.488345975056291" lon="3.772453973069787">
        <ele>7.83</ele>
        <time>2025-05-16T11:38:43Z</time>
      </trkpt>
      <trkpt lat="43.488552002236247" lon="3.772520022466779">
        <ele>7.83</ele>
        <time>2025-05-16T11:38:44Z</time>
      </trkpt>
      <trkpt lat="43.488750988617539" lon="3.77260803245008">
        <ele>7.35</ele>
        <time>2025-05-16T11:38:45Z</time>
      </trkpt>
      <trkpt lat="43.490817965939641" lon="3.773915022611618">
        <ele>8.789999999999999</ele>
        <time>2025-05-16T11:38:56Z</time>
      </trkpt>
      <trkpt lat="43.493637973442674" lon="3.7757240049541">
        <ele>16.48</ele>
        <time>2025-05-16T11:39:11Z</time>
      </trkpt>
      <trkpt lat="43.495073961094022" lon="3.776662023738027">
        <ele>19.84</ele>
        <time>2025-05-16T11:39:19Z</time>
      </trkpt>
      <trkpt lat="43.49620602093637" lon="3.777601970359683">
        <ele>19.84</ele>
        <time>2025-05-16T11:39:25Z</time>
      </trkpt>
      <trkpt lat="43.496380029246211" lon="3.777821995317936">
        <ele>19.84</ele>
        <time>2025-05-16T11:39:26Z</time>
      </trkpt>
      <trkpt lat="43.497492978349328" lon="3.779776990413666">
        <ele>18.399999999999999</ele>
        <time>2025-05-16T11:39:34Z</time>
      </trkpt>
      <trkpt lat="43.498799968510866" lon="3.782317964360118">
        <ele>11.67</ele>
        <time>2025-05-16T11:39:45Z</time>
      </trkpt>
      <trkpt lat="43.500264035537839" lon="3.785101007670164">
        <ele>9.27</ele>
        <time>2025-05-16T11:39:58Z</time>
      </trkpt>
      <trkpt lat="43.500712970271707" lon="3.785924026742578">
        <ele>11.19</ele>
        <time>2025-05-16T11:40:04Z</time>
      </trkpt>
      <trkpt lat="43.500768961384892" lon="3.786040032282472">
        <ele>11.19</ele>
        <time>2025-05-16T11:40:05Z</time>
      </trkpt>
      <trkpt lat="43.500819001346827" lon="3.786161988973618">
        <ele>10.710000000000001</ele>
        <time>2025-05-16T11:40:06Z</time>
      </trkpt>
      <trkpt lat="43.50082796998322" lon="3.786265002563596">
        <ele>10.23</ele>
        <time>2025-05-16T11:40:07Z</time>
      </trkpt>
      <trkpt lat="43.500798968598247" lon="3.786439010873437">
        <ele>10.23</ele>
        <time>2025-05-16T11:40:08Z</time>
      </trkpt>
      <trkpt lat="43.500736020505428" lon="3.786502964794636">
        <ele>9.27</ele>
        <time>2025-05-16T11:40:09Z</time>
      </trkpt>
      <trkpt lat="43.500658990815282" lon="3.786578988656402">
        <ele>8.789999999999999</ele>
        <time>2025-05-16T11:40:10Z</time>
      </trkpt>
      <trkpt lat="43.500577015802264" lon="3.786664986982942">
        <ele>7.83</ele>
        <time>2025-05-16T11:40:11Z</time>
      </trkpt>
      <trkpt lat="43.50048397667706" lon="3.786763977259398">
        <ele>6.87</ele>
        <time>2025-05-16T11:40:12Z</time>
      </trkpt>
      <trkpt lat="43.499519973993301" lon="3.787755975499749">
        <ele>3.02</ele>
        <time>2025-05-16T11:40:20Z</time>
      </trkpt>
      <trkpt lat="43.499370021745563" lon="3.78788698464632">
        <ele>3.02</ele>
        <time>2025-05-16T11:40:21Z</time>
      </trkpt>
      <trkpt lat="43.497932022437453" lon="3.78936898894608">
        <ele>3.5</ele>
        <time>2025-05-16T11:40:31Z</time>
      </trkpt>
      <trkpt lat="43.497026022523642" lon="3.790786033496261">
        <ele>3.02</ele>
        <time>2025-05-16T11:40:39Z</time>
      </trkpt>
      <trkpt lat="43.496218007057905" lon="3.79267699085176">
        <ele>4.46</ele>
        <time>2025-05-16T11:40:47Z</time>
      </trkpt>
      <trkpt lat="43.495433041825891" lon="3.794220015406609">
        <ele>9.27</ele>
        <time>2025-05-16T11:40:55Z</time>
      </trkpt>
      <trkpt lat="43.494909005239606" lon="3.795218970626593">
        <ele>5.91</ele>
        <time>2025-05-16T11:41:01Z</time>
      </trkpt>
      <trkpt lat="43.494852008298039" lon="3.795326007530093">
        <ele>5.42</ele>
        <time>2025-05-16T11:41:02Z</time>
      </trkpt>
      <trkpt lat="43.494843039661646" lon="3.795345034450293">
        <ele>4.94</ele>
        <time>2025-05-16T11:41:03Z</time>
      </trkpt>
      <trkpt lat="43.494904981926084" lon="3.795515019446611">
        <ele>4.46</ele>
        <time>2025-05-16T11:41:04Z</time>
      </trkpt>
      <trkpt lat="43.494946975260973" lon="3.795508984476328">
        <ele>3.98</ele>
        <time>2025-05-16T11:41:05Z</time>
      </trkpt>
      <trkpt lat="43.495009001344442" lon="3.795499010011554">
        <ele>3.5</ele>
        <time>2025-05-16T11:41:06Z</time>
      </trkpt>
      <trkpt lat="43.495087036862969" lon="3.795486018061638">
        <ele>3.02</ele>
        <time>2025-05-16T11:41:07Z</time>
      </trkpt>
      <trkpt lat="43.495186027139425" lon="3.795479983091354">
        <ele>2.54</ele>
        <time>2025-05-16T11:41:08Z</time>
      </trkpt>
      <trkpt lat="43.496184982359409" lon="3.795589031651616">
        <ele>2.54</ele>
        <time>2025-05-16T11:41:15Z</time>
      </trkpt>
      <trkpt lat="43.49732500500977" lon="3.795822970569134">
        <ele>2.06</ele>
        <time>2025-05-16T11:41:21Z</time>
      </trkpt>
      <trkpt lat="43.497509993612766" lon="3.795904023572803">
        <ele>1.58</ele>
        <time>2025-05-16T11:41:22Z</time>
      </trkpt>
      <trkpt lat="43.497662963345647" lon="3.796055987477303">
        <ele>0.62</ele>
        <time>2025-05-16T11:41:23Z</time>
      </trkpt>
      <trkpt lat="43.497822973877192" lon="3.796214992180467">
        <ele>0.14</ele>
        <time>2025-05-16T11:41:24Z</time>
      </trkpt>
      <trkpt lat="43.497984996065497" lon="3.796377014368773">
        <ele>-0.34</ele>
        <time>2025-05-16T11:41:25Z</time>
      </trkpt>
      <trkpt lat="43.499372033402324" lon="3.798060016706586">
        <ele>0.14</ele>
        <time>2025-05-16T11:41:34Z</time>
      </trkpt>
      <trkpt lat="43.501280006021261" lon="3.800513986498117">
        <ele>2.06</ele>
        <time>2025-05-16T11:41:48Z</time>
      </trkpt>
      <trkpt lat="43.503155037760735" lon="3.803029982373118">
        <ele>3.98</ele>
        <time>2025-05-16T11:42:01Z</time>
      </trkpt>
      <trkpt lat="43.505464000627398" lon="3.806127011775971">
        <ele>4.46</ele>
        <time>2025-05-16T11:42:17Z</time>
      </trkpt>
      <trkpt lat="43.506631013005972" lon="3.807877991348505">
        <ele>3.98</ele>
        <time>2025-05-16T11:42:26Z</time>
      </trkpt>
      <trkpt lat="43.507880000397563" lon="3.809996014460921">
        <ele>5.42</ele>
        <time>2025-05-16T11:42:36Z</time>
      </trkpt>
      <trkpt lat="43.509199982509017" lon="3.811442982405424">
        <ele>5.42</ele>
        <time>2025-05-16T11:42:45Z</time>
      </trkpt>
      <trkpt lat="43.510611997917295" lon="3.813156997784972">
        <ele>5.91</ele>
        <time>2025-05-16T11:42:54Z</time>
      </trkpt>
      <trkpt lat="43.512447969987988" lon="3.815606022253633">
        <ele>4.94</ele>
        <time>2025-05-16T11:43:07Z</time>
      </trkpt>
      <trkpt lat="43.514218982309103" lon="3.818008024245501">
        <ele>5.42</ele>
        <time>2025-05-16T11:43:20Z</time>
      </trkpt>
      <trkpt lat="43.51590902544558" lon="3.820295026525855">
        <ele>5.42</ele>
        <time>2025-05-16T11:43:32Z</time>
      </trkpt>
      <trkpt lat="43.517980026081204" lon="3.823128025978804">
        <ele>4.94</ele>
        <time>2025-05-16T11:43:47Z</time>
      </trkpt>
      <trkpt lat="43.519412996247411" lon="3.825028035789728">
        <ele>6.39</ele>
        <time>2025-05-16T11:43:57Z</time>
      </trkpt>
      <trkpt lat="43.521059034392238" lon="3.827345967292786">
        <ele>6.87</ele>
        <time>2025-05-16T11:44:09Z</time>
      </trkpt>
      <trkpt lat="43.521686000749469" lon="3.82907398045063">
        <ele>7.35</ele>
        <time>2025-05-16T11:44:16Z</time>
      </trkpt>
      <trkpt lat="43.522493010386825" lon="3.831797009333968">
        <ele>6.39</ele>
        <time>2025-05-16T11:44:27Z</time>
      </trkpt>
      <trkpt lat="43.523466987535357" lon="3.834712989628315">
        <ele>6.39</ele>
        <time>2025-05-16T11:44:39Z</time>
      </trkpt>
      <trkpt lat="43.524572979658842" lon="3.837842037901282">
        <ele>5.42</ele>
        <time>2025-05-16T11:44:52Z</time>
      </trkpt>
      <trkpt lat="43.525417037308216" lon="3.839370980858803">
        <ele>3.98</ele>
        <time>2025-05-16T11:44:59Z</time>
      </trkpt>
      <trkpt lat="43.526237960904837" lon="3.84060999378562">
        <ele>5.42</ele>
        <time>2025-05-16T11:45:05Z</time>
      </trkpt>
      <trkpt lat="43.527691969648004" lon="3.842834969982505">
        <ele>7.35</ele>
        <time>2025-05-16T11:45:16Z</time>
      </trkpt>
      <trkpt lat="43.52856301702559" lon="3.844546973705292">
        <ele>7.35</ele>
        <time>2025-05-16T11:45:24Z</time>
      </trkpt>
      <trkpt lat="43.529030978679657" lon="3.845661012455821">
        <ele>8.789999999999999</ele>
        <time>2025-05-16T11:45:31Z</time>
      </trkpt>
      <trkpt lat="43.529071966186166" lon="3.845774000510573">
        <ele>9.27</ele>
        <time>2025-05-16T11:45:32Z</time>
      </trkpt>
      <trkpt lat="43.529108008369803" lon="3.845872990787029">
        <ele>9.27</ele>
        <time>2025-05-16T11:45:33Z</time>
      </trkpt>
      <trkpt lat="43.529033996164799" lon="3.846072982996702">
        <ele>9.75</ele>
        <time>2025-05-16T11:45:34Z</time>
      </trkpt>
      <trkpt lat="43.529040031135082" lon="3.84611296467483">
        <ele>9.75</ele>
        <time>2025-05-16T11:45:35Z</time>
      </trkpt>
      <trkpt lat="43.529053023084998" lon="3.846206003800035">
        <ele>10.23</ele>
        <time>2025-05-16T11:45:36Z</time>
      </trkpt>
      <trkpt lat="43.529116977006197" lon="3.84630499407649">
        <ele>10.23</ele>
        <time>2025-05-16T11:45:37Z</time>
      </trkpt>
      <trkpt lat="43.529119994491339" lon="3.846309017390013">
        <ele>10.710000000000001</ele>
        <time>2025-05-16T11:45:38Z</time>
      </trkpt>
      <trkpt lat="43.529237005859613" lon="3.846451006829739">
        <ele>10.710000000000001</ele>
        <time>2025-05-16T11:45:39Z</time>
      </trkpt>
      <trkpt lat="43.529244968667626" lon="3.846557959914208">
        <ele>10.710000000000001</ele>
        <time>2025-05-16T11:45:40Z</time>
      </trkpt>
      <trkpt lat="43.529257038608193" lon="3.846678994596005">
        <ele>10.710000000000001</ele>
        <time>2025-05-16T11:45:41Z</time>
      </trkpt>
      <trkpt lat="43.529272964224219" lon="3.846814027056098">
        <ele>11.19</ele>
        <time>2025-05-16T11:45:42Z</time>
      </trkpt>
      <trkpt lat="43.529633972793818" lon="3.847947008907795">
        <ele>13.119999999999999</ele>
        <time>2025-05-16T11:45:49Z</time>
      </trkpt>
      <trkpt lat="43.530007973313332" lon="3.848583027720451">
        <ele>14.56</ele>
        <time>2025-05-16T11:45:54Z</time>
      </trkpt>
      <trkpt lat="43.530034963041544" lon="3.848724011331797">
        <ele>14.56</ele>
        <time>2025-05-16T11:45:55Z</time>
      </trkpt>
      <trkpt lat="43.530078968033195" lon="3.848953004926443">
        <ele>15.039999999999999</ele>
        <time>2025-05-16T11:45:57Z</time>
      </trkpt>
      <trkpt lat="43.530106963589787" lon="3.849099017679691">
        <ele>15.039999999999999</ele>
        <time>2025-05-16T11:45:58Z</time>
      </trkpt>
      <trkpt lat="43.530106963589787" lon="3.849099017679691">
        <ele>14.56</ele>
        <time>2025-05-16T11:46:00Z</time>
      </trkpt>
      <trkpt lat="43.530069999396801" lon="3.849266991019249">
        <ele>14.56</ele>
        <time>2025-05-16T11:46:01Z</time>
      </trkpt>
      <trkpt lat="43.530117021873593" lon="3.849304039031267">
        <ele>14.56</ele>
        <time>2025-05-16T11:46:02Z</time>
      </trkpt>
      <trkpt lat="43.530129007995129" lon="3.849313007667661">
        <ele>14.56</ele>
        <time>2025-05-16T11:46:03Z</time>
      </trkpt>
      <trkpt lat="43.530161026865244" lon="3.84924796409905">
        <ele>14.08</ele>
        <time>2025-05-16T11:46:04Z</time>
      </trkpt>
      <trkpt lat="43.530265968292952" lon="3.849185016006231">
        <ele>14.08</ele>
        <time>2025-05-16T11:46:05Z</time>
      </trkpt>
      <trkpt lat="43.530336963012815" lon="3.849185016006231">
        <ele>13.6</ele>
        <time>2025-05-16T11:46:06Z</time>
      </trkpt>
      <trkpt lat="43.530385997146368" lon="3.849185016006231">
        <ele>13.6</ele>
        <time>2025-05-16T11:46:07Z</time>
      </trkpt>
      <trkpt lat="43.530480964109302" lon="3.849261039867997">
        <ele>13.6</ele>
        <time>2025-05-16T11:46:08Z</time>
      </trkpt>
      <trkpt lat="43.530533015727997" lon="3.849342009052634">
        <ele>13.119999999999999</ele>
        <time>2025-05-16T11:46:09Z</time>
      </trkpt>
      <trkpt lat="43.530590012669563" lon="3.849446028470993">
        <ele>13.6</ele>
        <time>2025-05-16T11:46:10Z</time>
      </trkpt>
      <trkpt lat="43.531301971524954" lon="3.850616980344057">
        <ele>15.039999999999999</ele>
        <time>2025-05-16T11:46:19Z</time>
      </trkpt>
      <trkpt lat="43.53232498280704" lon="3.851985996589065">
        <ele>17.440000000000001</ele>
        <time>2025-05-16T11:46:30Z</time>
      </trkpt>
      <trkpt lat="43.532595969736576" lon="3.852436020970345">
        <ele>17.920000000000002</ele>
        <time>2025-05-16T11:46:35Z</time>
      </trkpt>
      <trkpt lat="43.532661013305187" lon="3.852682029828429">
        <ele>17.920000000000002</ele>
        <time>2025-05-16T11:46:38Z</time>
      </trkpt>
      <trkpt lat="43.532665958628058" lon="3.852714970707893">
        <ele>17.920000000000002</ele>
        <time>2025-05-16T11:46:39Z</time>
      </trkpt>
      <trkpt lat="43.532678028568625" lon="3.852787977084518">
        <ele>17.920000000000002</ele>
        <time>2025-05-16T11:46:40Z</time>
      </trkpt>
      <trkpt lat="43.532749023288488" lon="3.852827036753297">
        <ele>17.920000000000002</ele>
        <time>2025-05-16T11:46:41Z</time>
      </trkpt>
      <trkpt lat="43.532767966389656" lon="3.852831982076168">
        <ele>17.440000000000001</ele>
        <time>2025-05-16T11:46:42Z</time>
      </trkpt>
      <trkpt lat="43.532821023836732" lon="3.852743972092867">
        <ele>17.440000000000001</ele>
        <time>2025-05-16T11:46:43Z</time>
      </trkpt>
      <trkpt lat="43.532832004129887" lon="3.852725028991699">
        <ele>17.440000000000001</ele>
        <time>2025-05-16T11:46:44Z</time>
      </trkpt>
      <trkpt lat="43.532884977757931" lon="3.852568035945296">
        <ele>17.440000000000001</ele>
        <time>2025-05-16T11:46:45Z</time>
      </trkpt>
      <trkpt lat="43.532939041033387" lon="3.852497041225433">
        <ele>17.440000000000001</ele>
        <time>2025-05-16T11:46:46Z</time>
      </trkpt>
      <trkpt lat="43.532995032146573" lon="3.852422023192048">
        <ele>16.960000000000001</ele>
        <time>2025-05-16T11:46:47Z</time>
      </trkpt>
      <trkpt lat="43.53305202908814" lon="3.852345999330282">
        <ele>16.960000000000001</ele>
        <time>2025-05-16T11:46:48Z</time>
      </trkpt>
      <trkpt lat="43.533347994089127" lon="3.852059002965689">
        <ele>16.48</ele>
        <time>2025-05-16T11:46:52Z</time>
      </trkpt>
      <trkpt lat="43.533434998244047" lon="3.851992031559348">
        <ele>16</ele>
        <time>2025-05-16T11:46:53Z</time>
      </trkpt>
      <trkpt lat="43.533525019884109" lon="3.851921958848834">
        <ele>15.52</ele>
        <time>2025-05-16T11:46:54Z</time>
      </trkpt>
      <trkpt lat="43.53363499045372" lon="3.851905027404428">
        <ele>15.52</ele>
        <time>2025-05-16T11:46:55Z</time>
      </trkpt>
      <trkpt lat="43.533749990165234" lon="3.851898992434144">
        <ele>15.039999999999999</ele>
        <time>2025-05-16T11:46:56Z</time>
      </trkpt>
      <trkpt lat="43.533868007361889" lon="3.851893041282892">
        <ele>15.039999999999999</ele>
        <time>2025-05-16T11:46:57Z</time>
      </trkpt>
      <trkpt lat="43.533984012901783" lon="3.851897986605763">
        <ele>15.039999999999999</ele>
        <time>2025-05-16T11:46:58Z</time>
      </trkpt>
      <trkpt lat="43.534089038148522" lon="3.851964036002755">
        <ele>15.039999999999999</ele>
        <time>2025-05-16T11:46:59Z</time>
      </trkpt>
      <trkpt lat="43.534196997061372" lon="3.852033019065857">
        <ele>15.039999999999999</ele>
        <time>2025-05-16T11:47:00Z</time>
      </trkpt>
      <trkpt lat="43.534289030358195" lon="3.852132009342313">
        <ele>15.039999999999999</ele>
        <time>2025-05-16T11:47:01Z</time>
      </trkpt>
      <trkpt lat="43.534381985664368" lon="3.852235022932291">
        <ele>14.56</ele>
        <time>2025-05-16T11:47:02Z</time>
      </trkpt>
      <trkpt lat="43.534477958455682" lon="3.852340970188379">
        <ele>15.039999999999999</ele>
        <time>2025-05-16T11:47:03Z</time>
      </trkpt>
      <trkpt lat="43.534574015066028" lon="3.85244800709188">
        <ele>15.039999999999999</ele>
        <time>2025-05-16T11:47:04Z</time>
      </trkpt>
      <trkpt lat="43.5346669703722" lon="3.852555966004729">
        <ele>15.039999999999999</ele>
        <time>2025-05-16T11:47:05Z</time>
      </trkpt>
      <trkpt lat="43.535882011055946" lon="3.853963036090136">
        <ele>18.879999999999999</ele>
        <time>2025-05-16T11:47:18Z</time>
      </trkpt>
      <trkpt lat="43.53689999319613" lon="3.855085037648678">
        <ele>17.920000000000002</ele>
        <time>2025-05-16T11:47:27Z</time>
      </trkpt>
      <trkpt lat="43.537041982635856" lon="3.855175981298089">
        <ele>17.920000000000002</ele>
        <time>2025-05-16T11:47:28Z</time>
      </trkpt>
      <trkpt lat="43.537177015095949" lon="3.855259967967868">
        <ele>17.920000000000002</ele>
        <time>2025-05-16T11:47:29Z</time>
      </trkpt>
      <trkpt lat="43.537319004535675" lon="3.855300033465028">
        <ele>17.920000000000002</ele>
        <time>2025-05-16T11:47:30Z</time>
      </trkpt>
      <trkpt lat="43.537452025339007" lon="3.855338003486395">
        <ele>17.920000000000002</ele>
        <time>2025-05-16T11:47:31Z</time>
      </trkpt>
      <trkpt lat="43.537572976201773" lon="3.855373039841652">
        <ele>17.440000000000001</ele>
        <time>2025-05-16T11:47:32Z</time>
      </trkpt>
      <trkpt lat="43.537786966189742" lon="3.855433976277709">
        <ele>16.960000000000001</ele>
        <time>2025-05-16T11:47:34Z</time>
      </trkpt>
      <trkpt lat="43.537881011143327" lon="3.855460966005921">
        <ele>16.960000000000001</ele>
        <time>2025-05-16T11:47:35Z</time>
      </trkpt>
      <trkpt lat="43.537958040833473" lon="3.855534978210926">
        <ele>16.960000000000001</ele>
        <time>2025-05-16T11:47:36Z</time>
      </trkpt>
      <trkpt lat="43.538012020289898" lon="3.855618964880705">
        <ele>16.48</ele>
        <time>2025-05-16T11:47:37Z</time>
      </trkpt>
      <trkpt lat="43.53806097060442" lon="3.855697000399232">
        <ele>16.48</ele>
        <time>2025-05-16T11:47:38Z</time>
      </trkpt>
      <trkpt lat="43.538106987252831" lon="3.855769000947475">
        <ele>16</ele>
        <time>2025-05-16T11:47:39Z</time>
      </trkpt>
      <trkpt lat="43.538148980587721" lon="3.855833960697055">
        <ele>15.52</ele>
        <time>2025-05-16T11:47:40Z</time>
      </trkpt>
      <trkpt lat="43.538185022771358" lon="3.855891041457653">
        <ele>15.039999999999999</ele>
        <time>2025-05-16T11:47:41Z</time>
      </trkpt>
      <trkpt lat="43.538201032206416" lon="3.856012998148799">
        <ele>14.56</ele>
        <time>2025-05-16T11:47:42Z</time>
      </trkpt>
      <trkpt lat="43.538180999457836" lon="3.856092961505055">
        <ele>14.08</ele>
        <time>2025-05-16T11:47:43Z</time>
      </trkpt>
      <trkpt lat="43.538159960880876" lon="3.856176026165485">
        <ele>13.6</ele>
        <time>2025-05-16T11:47:44Z</time>
      </trkpt>
      <trkpt lat="43.538073040544987" lon="3.856255989521742">
        <ele>13.119999999999999</ele>
        <time>2025-05-16T11:47:45Z</time>
      </trkpt>
      <trkpt lat="43.53799500502646" lon="3.856311980634928">
        <ele>12.630000000000001</ele>
        <time>2025-05-16T11:47:46Z</time>
      </trkpt>
      <trkpt lat="43.537913030013442" lon="3.856371995061636">
        <ele>12.15</ele>
        <time>2025-05-16T11:47:47Z</time>
      </trkpt>
      <trkpt lat="43.537834994494915" lon="3.856436032801867">
        <ele>12.15</ele>
        <time>2025-05-16T11:47:48Z</time>
      </trkpt>
      <trkpt lat="43.537440961226821" lon="3.856864012777805">
        <ele>11.67</ele>
        <time>2025-05-16T11:47:55Z</time>
      </trkpt>
      <trkpt lat="43.536892030388117" lon="3.857468012720347">
        <ele>13.119999999999999</ele>
        <time>2025-05-16T11:48:03Z</time>
      </trkpt>
      <trkpt lat="43.536176970228553" lon="3.858241997659206">
        <ele>14.08</ele>
        <time>2025-05-16T11:48:12Z</time>
      </trkpt>
      <trkpt lat="43.536140006035566" lon="3.858279967680574">
        <ele>13.6</ele>
        <time>2025-05-16T11:48:13Z</time>
      </trkpt>
      <trkpt lat="43.53610304184258" lon="3.858316009864211">
        <ele>13.6</ele>
        <time>2025-05-16T11:48:14Z</time>
      </trkpt>
      <trkpt lat="43.536072028800845" lon="3.858347022905946">
        <ele>13.6</ele>
        <time>2025-05-16T11:48:15Z</time>
      </trkpt>
      <trkpt lat="43.535986030474305" lon="3.858433021232486">
        <ele>13.119999999999999</ele>
        <time>2025-05-16T11:48:16Z</time>
      </trkpt>
      <trkpt lat="43.535986030474305" lon="3.85839999653399">
        <ele>13.119999999999999</ele>
        <time>2025-05-16T11:48:17Z</time>
      </trkpt>
      <trkpt lat="43.535986030474305" lon="3.858433021232486">
        <ele>12.630000000000001</ele>
        <time>2025-05-16T11:48:18Z</time>
      </trkpt>
      <trkpt lat="43.536072028800845" lon="3.858433021232486">
        <ele>12.630000000000001</ele>
        <time>2025-05-16T11:48:19Z</time>
      </trkpt>
      <trkpt lat="43.536072028800845" lon="3.858433021232486">
        <ele>12.630000000000001</ele>
        <time>2025-05-16T11:48:20Z</time>
      </trkpt>
      <trkpt lat="43.536072028800845" lon="3.858347022905946">
        <ele>12.630000000000001</ele>
        <time>2025-05-16T11:48:21Z</time>
      </trkpt>
      <trkpt lat="43.536072028800845" lon="3.858393961563706">
        <ele>12.630000000000001</ele>
        <time>2025-05-16T11:48:22Z</time>
      </trkpt>
      <trkpt lat="43.536157021299005" lon="3.858262030407786">
        <ele>12.630000000000001</ele>
        <time>2025-05-16T11:48:23Z</time>
      </trkpt>
      <trkpt lat="43.536208989098668" lon="3.858209978789091">
        <ele>12.630000000000001</ele>
        <time>2025-05-16T11:48:24Z</time>
      </trkpt>
      <trkpt lat="43.536270009353757" lon="3.858143007382751">
        <ele>12.630000000000001</ele>
        <time>2025-05-16T11:48:25Z</time>
      </trkpt>
      <trkpt lat="43.536347039043903" lon="3.858060026541352">
        <ele>12.630000000000001</ele>
        <time>2025-05-16T11:48:26Z</time>
      </trkpt>
      <trkpt lat="43.536434965208173" lon="3.857964975759387">
        <ele>12.630000000000001</ele>
        <time>2025-05-16T11:48:27Z</time>
      </trkpt>
      <trkpt lat="43.537311963737011" lon="3.857009019702673">
        <ele>11.19</ele>
        <time>2025-05-16T11:48:37Z</time>
      </trkpt>
      <trkpt lat="43.537954017519951" lon="3.856341987848282">
        <ele>12.15</ele>
        <time>2025-05-16T11:48:45Z</time>
      </trkpt>
      <trkpt lat="43.538020988926291" lon="3.856293959543109">
        <ele>12.15</ele>
        <time>2025-05-16T11:48:46Z</time>
      </trkpt>
      <trkpt lat="43.538088966161013" lon="3.856244003400207">
        <ele>12.15</ele>
        <time>2025-05-16T11:48:47Z</time>
      </trkpt>
      <trkpt lat="43.538200026378036" lon="3.856293959543109">
        <ele>12.15</ele>
        <time>2025-05-16T11:48:48Z</time>
      </trkpt>
      <trkpt lat="43.53823397308588" lon="3.856362020596862">
        <ele>12.630000000000001</ele>
        <time>2025-05-16T11:48:49Z</time>
      </trkpt>
      <trkpt lat="43.53827596642077" lon="3.85644500143826">
        <ele>12.630000000000001</ele>
        <time>2025-05-16T11:48:50Z</time>
      </trkpt>
      <trkpt lat="43.53827697224915" lon="3.856558995321393">
        <ele>12.630000000000001</ele>
        <time>2025-05-16T11:48:51Z</time>
      </trkpt>
      <trkpt lat="43.538271021097898" lon="3.856684975326061">
        <ele>13.119999999999999</ele>
        <time>2025-05-16T11:48:52Z</time>
      </trkpt>
      <trkpt lat="43.538263980299234" lon="3.856827970594168">
        <ele>13.119999999999999</ele>
        <time>2025-05-16T11:48:53Z</time>
      </trkpt>
      <trkpt lat="43.538240008056164" lon="3.856986975297332">
        <ele>12.630000000000001</ele>
        <time>2025-05-16T11:48:54Z</time>
      </trkpt>
      <trkpt lat="43.537937002256513" lon="3.858425980433822">
        <ele>11.19</ele>
        <time>2025-05-16T11:49:01Z</time>
      </trkpt>
      <trkpt lat="43.537617987021804" lon="3.860573004931212">
        <ele>9.27</ele>
        <time>2025-05-16T11:49:09Z</time>
      </trkpt>
      <trkpt lat="43.537795012816787" lon="3.863209029659629">
        <ele>9.75</ele>
        <time>2025-05-16T11:49:18Z</time>
      </trkpt>
      <trkpt lat="43.538064993917942" lon="3.865646990016103">
        <ele>9.27</ele>
        <time>2025-05-16T11:49:27Z</time>
      </trkpt>
      <trkpt lat="43.538097012788057" lon="3.865924011915922">
        <ele>9.27</ele>
        <time>2025-05-16T11:49:28Z</time>
      </trkpt>
      <trkpt lat="43.538340004161" lon="3.868103977292776">
        <ele>6.39</ele>
        <time>2025-05-16T11:49:37Z</time>
      </trkpt>
      <trkpt lat="43.538410998880863" lon="3.869139980524778">
        <ele>5.42</ele>
        <time>2025-05-16T11:49:43Z</time>
      </trkpt>
      <trkpt lat="43.538401024416089" lon="3.869221033528447">
        <ele>5.42</ele>
        <time>2025-05-16T11:49:44Z</time>
      </trkpt>
      <trkpt lat="43.538389960303903" lon="3.869311977177858">
        <ele>5.42</ele>
        <time>2025-05-16T11:49:45Z</time>
      </trkpt>
      <trkpt lat="43.538332963362336" lon="3.869457989931107">
        <ele>5.42</ele>
        <time>2025-05-16T11:49:46Z</time>
      </trkpt>
      <trkpt lat="43.538317959755659" lon="3.869655970484018">
        <ele>5.42</ele>
        <time>2025-05-16T11:49:47Z</time>
      </trkpt>
      <trkpt lat="43.538373028859496" lon="3.869756972417235">
        <ele>5.91</ele>
        <time>2025-05-16T11:49:48Z</time>
      </trkpt>
      <trkpt lat="43.538436982780695" lon="3.869869960471988">
        <ele>5.91</ele>
        <time>2025-05-16T11:49:49Z</time>
      </trkpt>
      <trkpt lat="43.538479981943965" lon="3.869970040395856">
        <ele>5.42</ele>
        <time>2025-05-16T11:49:50Z</time>
      </trkpt>
      <trkpt lat="43.538503032177687" lon="3.870129967108369">
        <ele>5.42</ele>
        <time>2025-05-16T11:49:51Z</time>
      </trkpt>
      <trkpt lat="43.538528010249138" lon="3.870307998731732">
        <ele>5.42</ele>
        <time>2025-05-16T11:49:52Z</time>
      </trkpt>
      <trkpt lat="43.53868299163878" lon="3.871919000521302">
        <ele>4.46</ele>
        <time>2025-05-16T11:49:59Z</time>
      </trkpt>
      <trkpt lat="43.538849959149957" lon="3.874452011659741">
        <ele>3.5</ele>
        <time>2025-05-16T11:50:08Z</time>
      </trkpt>
      <trkpt lat="43.538950961083174" lon="3.877579970285296">
        <ele>3.5</ele>
        <time>2025-05-16T11:50:20Z</time>
      </trkpt>
      <trkpt lat="43.539119018241763" lon="3.880856959149241">
        <ele>3.02</ele>
        <time>2025-05-16T11:50:32Z</time>
      </trkpt>
      <trkpt lat="43.539310041815042" lon="3.884293036535382">
        <ele>2.06</ele>
        <time>2025-05-16T11:50:45Z</time>
      </trkpt>
      <trkpt lat="43.539468040689826" lon="3.887667004019022">
        <ele>-0.34</ele>
        <time>2025-05-16T11:50:58Z</time>
      </trkpt>
      <trkpt lat="43.539644982665777" lon="3.891627034172416">
        <ele>-0.82</ele>
        <time>2025-05-16T11:51:12Z</time>
      </trkpt>
      <trkpt lat="43.539781020954251" lon="3.894488029181957">
        <ele>-0.82</ele>
        <time>2025-05-16T11:51:24Z</time>
      </trkpt>
      <trkpt lat="43.539784960448742" lon="3.895631991326809">
        <ele>-0.82</ele>
        <time>2025-05-16T11:51:30Z</time>
      </trkpt>
      <trkpt lat="43.539749002084136" lon="3.895816979929805">
        <ele>-0.34</ele>
        <time>2025-05-16T11:51:31Z</time>
      </trkpt>
      <trkpt lat="43.539709020406008" lon="3.895994005724788">
        <ele>-0.34</ele>
        <time>2025-05-16T11:51:32Z</time>
      </trkpt>
      <trkpt lat="43.539608018472791" lon="3.896474037319422">
        <ele>-0.34</ele>
        <time>2025-05-16T11:51:35Z</time>
      </trkpt>
      <trkpt lat="43.539595026522875" lon="3.896623989567161">
        <ele>0.14</ele>
        <time>2025-05-16T11:51:36Z</time>
      </trkpt>
      <trkpt lat="43.539594020694494" lon="3.896750975400209">
        <ele>0.62</ele>
        <time>2025-05-16T11:51:37Z</time>
      </trkpt>
      <trkpt lat="43.539597038179636" lon="3.896848037838936">
        <ele>0.62</ele>
        <time>2025-05-16T11:51:38Z</time>
      </trkpt>
      <trkpt lat="43.539598966017365" lon="3.896920038387179">
        <ele>0.62</ele>
        <time>2025-05-16T11:51:39Z</time>
      </trkpt>
      <trkpt lat="43.539600977674127" lon="3.896976029500365">
        <ele>1.1</ele>
        <time>2025-05-16T11:51:40Z</time>
      </trkpt>
      <trkpt lat="43.539608018472791" lon="3.897208962589502">
        <ele>1.1</ele>
        <time>2025-05-16T11:51:45Z</time>
      </trkpt>
      <trkpt lat="43.539609024301171" lon="3.897243998944759">
        <ele>1.1</ele>
        <time>2025-05-16T11:51:46Z</time>
      </trkpt>
      <trkpt lat="43.539611035957932" lon="3.897294038906694">
        <ele>1.1</ele>
        <time>2025-05-16T11:51:47Z</time>
      </trkpt>
      <trkpt lat="43.539609024301171" lon="3.897379031404853">
        <ele>1.1</ele>
        <time>2025-05-16T11:51:48Z</time>
      </trkpt>
      <trkpt lat="43.539588991552591" lon="3.897483972832561">
        <ele>1.1</ele>
        <time>2025-05-16T11:51:49Z</time>
      </trkpt>
      <trkpt lat="43.539567030966282" lon="3.897601990029216">
        <ele>1.1</ele>
        <time>2025-05-16T11:51:50Z</time>
      </trkpt>
      <trkpt lat="43.539552027359605" lon="3.897719001397491">
        <ele>1.1</ele>
        <time>2025-05-16T11:51:51Z</time>
      </trkpt>
      <trkpt lat="43.539573987945914" lon="3.897855039685965">
        <ele>1.1</ele>
        <time>2025-05-16T11:51:52Z</time>
      </trkpt>
      <trkpt lat="43.539580022916198" lon="3.898005997762084">
        <ele>0.62</ele>
        <time>2025-05-16T11:51:53Z</time>
      </trkpt>
      <trkpt lat="43.539546998217702" lon="3.898144969716668">
        <ele>0.14</ele>
        <time>2025-05-16T11:51:54Z</time>
      </trkpt>
      <trkpt lat="43.539506010711193" lon="3.898323001340032">
        <ele>0.14</ele>
        <time>2025-05-16T11:51:55Z</time>
      </trkpt>
      <trkpt lat="43.539428981021047" lon="3.898445041850209">
        <ele>0.14</ele>
        <time>2025-05-16T11:51:56Z</time>
      </trkpt>
      <trkpt lat="43.539337031543255" lon="3.898591976612806">
        <ele>0.14</ele>
        <time>2025-05-16T11:51:57Z</time>
      </trkpt>
      <trkpt lat="43.538604034110904" lon="3.899729987606406">
        <ele>0.14</ele>
        <time>2025-05-16T11:52:03Z</time>
      </trkpt>
      <trkpt lat="43.536259029060602" lon="3.903376031666994">
        <ele>-0.34</ele>
        <time>2025-05-16T11:52:19Z</time>
      </trkpt>
      <trkpt lat="43.534550964832306" lon="3.906113980337977">
        <ele>0.62</ele>
        <time>2025-05-16T11:52:31Z</time>
      </trkpt>
      <trkpt lat="43.534460021182895" lon="3.906388990581036">
        <ele>0.62</ele>
        <time>2025-05-16T11:52:32Z</time>
      </trkpt>
      <trkpt lat="43.534404030069709" lon="3.906679004430771">
        <ele>0.62</ele>
        <time>2025-05-16T11:52:33Z</time>
      </trkpt>
      <trkpt lat="43.534373017027974" lon="3.9069779869169">
        <ele>1.1</ele>
        <time>2025-05-16T11:52:34Z</time>
      </trkpt>
      <trkpt lat="43.534364970400929" lon="3.907281998544931">
        <ele>1.1</ele>
        <time>2025-05-16T11:52:35Z</time>
      </trkpt>
      <trkpt lat="43.534357007592916" lon="3.907588021829724">
        <ele>1.1</ele>
        <time>2025-05-16T11:52:36Z</time>
      </trkpt>
      <trkpt lat="43.53438600897789" lon="3.90790100209415">
        <ele>1.1</ele>
        <time>2025-05-16T11:52:37Z</time>
      </trkpt>
      <trkpt lat="43.534739976748824" lon="3.911368008702993">
        <ele>-0.34</ele>
        <time>2025-05-16T11:52:48Z</time>
      </trkpt>
      <trkpt lat="43.534684991464019" lon="3.91383295878768">
        <ele>-0.82</ele>
        <time>2025-05-16T11:52:56Z</time>
      </trkpt>
      <trkpt lat="43.534219963476062" lon="3.915768004953861">
        <ele>0.62</ele>
        <time>2025-05-16T11:53:03Z</time>
      </trkpt>
      <trkpt lat="43.533283034339547" lon="3.917906982824206">
        <ele>3.5</ele>
        <time>2025-05-16T11:53:12Z</time>
      </trkpt>
      <trkpt lat="43.532221969217062" lon="3.919544974341989">
        <ele>-1.79</ele>
        <time>2025-05-16T11:53:20Z</time>
      </trkpt>
      <trkpt lat="43.530985973775387" lon="3.921356974169612">
        <ele>-4.19</ele>
        <time>2025-05-16T11:53:31Z</time>
      </trkpt>
      <trkpt lat="43.530250964686275" lon="3.922410998493433">
        <ele>-3.71</ele>
        <time>2025-05-16T11:53:40Z</time>
      </trkpt>
      <trkpt lat="43.53017401881516" lon="3.92248903401196">
        <ele>-4.19</ele>
        <time>2025-05-16T11:53:41Z</time>
      </trkpt>
      <trkpt lat="43.530095983296633" lon="3.922541001811624">
        <ele>-4.19</ele>
        <time>2025-05-16T11:53:42Z</time>
      </trkpt>
      <trkpt lat="43.53000202216208" lon="3.922586012631655">
        <ele>-4.67</ele>
        <time>2025-05-16T11:53:43Z</time>
      </trkpt>
      <trkpt lat="43.529818039387465" lon="3.922539995983243">
        <ele>-5.15</ele>
        <time>2025-05-16T11:53:45Z</time>
      </trkpt>
      <trkpt lat="43.529726006090641" lon="3.92255399376154">
        <ele>-5.15</ele>
        <time>2025-05-16T11:53:46Z</time>
      </trkpt>
      <trkpt lat="43.529642019420862" lon="3.922613002359867">
        <ele>-5.15</ele>
        <time>2025-05-16T11:53:47Z</time>
      </trkpt>
      <trkpt lat="43.529577981680632" lon="3.922695983201265">
        <ele>-4.67</ele>
        <time>2025-05-16T11:53:48Z</time>
      </trkpt>
      <trkpt lat="43.529527019709349" lon="3.922794973477721">
        <ele>-4.67</ele>
        <time>2025-05-16T11:53:49Z</time>
      </trkpt>
      <trkpt lat="43.529516039416194" lon="3.922910979017615">
        <ele>-4.67</ele>
        <time>2025-05-16T11:53:50Z</time>
      </trkpt>
      <trkpt lat="43.52951000444591" lon="3.923036959022284">
        <ele>-4.19</ele>
        <time>2025-05-16T11:53:51Z</time>
      </trkpt>
      <trkpt lat="43.529535988345742" lon="3.923152964562178">
        <ele>-3.71</ele>
        <time>2025-05-16T11:53:52Z</time>
      </trkpt>
      <trkpt lat="43.52957303635776" lon="3.923261007294059">
        <ele>-3.23</ele>
        <time>2025-05-16T11:53:53Z</time>
      </trkpt>
      <trkpt lat="43.52961796335876" lon="3.923351028934121">
        <ele>-2.75</ele>
        <time>2025-05-16T11:53:54Z</time>
      </trkpt>
      <trkpt lat="43.529689041897655" lon="3.923416994512081">
        <ele>-2.27</ele>
        <time>2025-05-16T11:53:55Z</time>
      </trkpt>
      <trkpt lat="43.529742015525699" lon="3.923450019210577">
        <ele>-1.3</ele>
        <time>2025-05-16T11:53:56Z</time>
      </trkpt>
      <trkpt lat="43.529862966388464" lon="3.923450019210577">
        <ele>-1.3</ele>
        <time>2025-05-16T11:53:57Z</time>
      </trkpt>
      <trkpt lat="43.529957011342049" lon="3.923450019210577">
        <ele>-0.82</ele>
        <time>2025-05-16T11:53:58Z</time>
      </trkpt>
      <trkpt lat="43.530062036588788" lon="3.923506010323763">
        <ele>-0.34</ele>
        <time>2025-05-16T11:53:59Z</time>
      </trkpt>
      <trkpt lat="43.530163960531354" lon="3.923560995608568">
        <ele>0.14</ele>
        <time>2025-05-16T11:54:00Z</time>
      </trkpt>
      <trkpt lat="43.530265968292952" lon="3.92362997867167">
        <ele>1.1</ele>
        <time>2025-05-16T11:54:01Z</time>
      </trkpt>
      <trkpt lat="43.530361019074917" lon="3.923725029453635">
        <ele>1.58</ele>
        <time>2025-05-16T11:54:02Z</time>
      </trkpt>
      <trkpt lat="43.530457997694612" lon="3.92382200807333">
        <ele>2.54</ele>
        <time>2025-05-16T11:54:03Z</time>
      </trkpt>
      <trkpt lat="43.531658034771681" lon="3.925044005736709">
        <ele>7.83</ele>
        <time>2025-05-16T11:54:14Z</time>
      </trkpt>
      <trkpt lat="43.532039998099208" lon="3.925554966554046">
        <ele>5.91</ele>
        <time>2025-05-16T11:54:18Z</time>
      </trkpt>
      <trkpt lat="43.532107975333929" lon="3.925678012892604">
        <ele>4.94</ele>
        <time>2025-05-16T11:54:19Z</time>
      </trkpt>
      <trkpt lat="43.53215298615396" lon="3.925783038139343">
        <ele>4.46</ele>
        <time>2025-05-16T11:54:20Z</time>
      </trkpt>
      <trkpt lat="43.532175030559301" lon="3.925895020365715">
        <ele>3.98</ele>
        <time>2025-05-16T11:54:21Z</time>
      </trkpt>
      <trkpt lat="43.532180981710553" lon="3.926002979278565">
        <ele>3.5</ele>
        <time>2025-05-16T11:54:22Z</time>
      </trkpt>
      <trkpt lat="43.532158015295863" lon="3.926127031445503">
        <ele>3.5</ele>
        <time>2025-05-16T11:54:23Z</time>
      </trkpt>
      <trkpt lat="43.532146029174328" lon="3.926196014508605">
        <ele>3.02</ele>
        <time>2025-05-16T11:54:24Z</time>
      </trkpt>
      <trkpt lat="43.532146029174328" lon="3.926196014508605">
        <ele>2.54</ele>
        <time>2025-05-16T11:54:25Z</time>
      </trkpt>
      <trkpt lat="43.532135970890522" lon="3.92655098810792">
        <ele>1.58</ele>
        <time>2025-05-16T11:54:26Z</time>
      </trkpt>
      <trkpt lat="43.532060030847788" lon="3.926646960899234">
        <ele>1.1</ele>
        <time>2025-05-16T11:54:27Z</time>
      </trkpt>
      <trkpt lat="43.532013008370996" lon="3.926717033609748">
        <ele>0.14</ele>
        <time>2025-05-16T11:54:28Z</time>
      </trkpt>
      <trkpt lat="43.531951988115907" lon="3.926807977259159">
        <ele>-0.34</ele>
        <time>2025-05-16T11:54:29Z</time>
      </trkpt>
      <trkpt lat="43.531488971784711" lon="3.927508033812046">
        <ele>-4.19</ele>
        <time>2025-05-16T11:54:39Z</time>
      </trkpt>
      <trkpt lat="43.531139027327299" lon="3.928088983520865">
        <ele>-6.11</ele>
        <time>2025-05-16T11:54:48Z</time>
      </trkpt>
      <trkpt lat="43.53109703399241" lon="3.928157966583967">
        <ele>-6.59</ele>
        <time>2025-05-16T11:54:49Z</time>
      </trkpt>
      <trkpt lat="43.530925959348679" lon="3.928442029282451">
        <ele>-7.07</ele>
        <time>2025-05-16T11:54:53Z</time>
      </trkpt>
      <trkpt lat="43.530877009034157" lon="3.928510006517172">
        <ele>-7.07</ele>
        <time>2025-05-16T11:54:54Z</time>
      </trkpt>
      <trkpt lat="43.530822023749352" lon="3.928583012893796">
        <ele>-7.07</ele>
        <time>2025-05-16T11:54:55Z</time>
      </trkpt>
      <trkpt lat="43.530355989933014" lon="3.929396979510784">
        <ele>-7.07</ele>
        <time>2025-05-16T11:55:07Z</time>
      </trkpt>
      <trkpt lat="43.530269991606474" lon="3.929541986435652">
        <ele>-6.59</ele>
        <time>2025-05-16T11:55:09Z</time>
      </trkpt>
      <trkpt lat="43.529865983873606" lon="3.930233996361494">
        <ele>-1.79</ele>
        <time>2025-05-16T11:55:20Z</time>
      </trkpt>
      <trkpt lat="43.529806975275278" lon="3.930337009951472">
        <ele>-1.3</ele>
        <time>2025-05-16T11:55:22Z</time>
      </trkpt>
      <trkpt lat="43.529717037454247" lon="3.930379003286362">
        <ele>-1.3</ele>
        <time>2025-05-16T11:55:23Z</time>
      </trkpt>
      <trkpt lat="43.529674960300326" lon="3.930340027436614">
        <ele>-0.82</ele>
        <time>2025-05-16T11:55:24Z</time>
      </trkpt>
      <trkpt lat="43.529619975015521" lon="3.93028998747468">
        <ele>-0.82</ele>
        <time>2025-05-16T11:55:25Z</time>
      </trkpt>
      <trkpt lat="43.529565995559096" lon="3.930239025503397">
        <ele>-0.82</ele>
        <time>2025-05-16T11:55:26Z</time>
      </trkpt>
      <trkpt lat="43.529334990307689" lon="3.929994022473693">
        <ele>-0.34</ele>
        <time>2025-05-16T11:55:31Z</time>
      </trkpt>
      <trkpt lat="43.529299031943083" lon="3.929940965026617">
        <ele>0.14</ele>
        <time>2025-05-16T11:55:32Z</time>
      </trkpt>
      <trkpt lat="43.528837021440268" lon="3.929284997284412">
        <ele>1.58</ele>
        <time>2025-05-16T11:55:43Z</time>
      </trkpt>
      <trkpt lat="43.528822017833591" lon="3.929264964535832">
        <ele>3.02</ele>
        <time>2025-05-16T11:55:52Z</time>
      </trkpt>
      <trkpt lat="43.528822017833591" lon="3.929264964535832">
        <ele>4.46</ele>
        <time>2025-05-16T11:55:58Z</time>
      </trkpt>
      <trkpt lat="43.528749011456966" lon="3.929240992292762">
        <ele>4.94</ele>
        <time>2025-05-16T11:55:59Z</time>
      </trkpt>
      <trkpt lat="43.528750017285347" lon="3.929239986464381">
        <ele>5.42</ele>
        <time>2025-05-16T11:56:00Z</time>
      </trkpt>
      <trkpt lat="43.528777007013559" lon="3.929200004786253">
        <ele>5.42</ele>
        <time>2025-05-16T11:56:01Z</time>
      </trkpt>
      <trkpt lat="43.528772983700037" lon="3.929524971172214">
        <ele>5.91</ele>
        <time>2025-05-16T11:56:02Z</time>
      </trkpt>
      <trkpt lat="43.528816988691688" lon="3.929571993649006">
        <ele>5.91</ele>
        <time>2025-05-16T11:56:03Z</time>
      </trkpt>
      <trkpt lat="43.528867028653622" lon="3.929625973105431">
        <ele>5.91</ele>
        <time>2025-05-16T11:56:04Z</time>
      </trkpt>
      <trkpt lat="43.529097028076649" lon="3.929872987791896">
        <ele>5.42</ele>
        <time>2025-05-16T11:56:11Z</time>
      </trkpt>
      <trkpt lat="43.529107002541423" lon="3.929884973913431">
        <ele>5.42</ele>
        <time>2025-05-16T11:56:22Z</time>
      </trkpt>
      <trkpt lat="43.52912301197648" lon="3.929901989176869">
        <ele>5.91</ele>
        <time>2025-05-16T11:56:23Z</time>
      </trkpt>
      <trkpt lat="43.529257960617542" lon="3.93005495890975">
        <ele>5.42</ele>
        <time>2025-05-16T11:56:33Z</time>
      </trkpt>
      <trkpt lat="43.529329961165786" lon="3.930272972211242">
        <ele>5.42</ele>
        <time>2025-05-16T11:56:46Z</time>
      </trkpt>
      <trkpt lat="43.529323004186153" lon="3.93046198412776">
        <ele>4.46</ele>
        <time>2025-05-16T11:56:49Z</time>
      </trkpt>
      <trkpt lat="43.529319986701012" lon="3.930561980232596">
        <ele>3.98</ele>
        <time>2025-05-16T11:56:51Z</time>
      </trkpt>
      <trkpt lat="43.52931797504425" lon="3.930606991052628">
        <ele>3.98</ele>
        <time>2025-05-16T11:56:52Z</time>
      </trkpt>
      <trkpt lat="43.52931797504425" lon="3.930606991052628">
        <ele>3.98</ele>
        <time>2025-05-16T11:56:54Z</time>
      </trkpt>
      <trkpt lat="43.529257038608193" lon="3.930563991889358">
        <ele>3.5</ele>
        <time>2025-05-16T11:57:07Z</time>
      </trkpt>
      <trkpt lat="43.529096022248268" lon="3.930455027148128">
        <ele>2.06</ele>
        <time>2025-05-16T11:57:17Z</time>
      </trkpt>
      <trkpt lat="43.529087975621223" lon="3.930370034649968">
        <ele>0.62</ele>
        <time>2025-05-16T11:57:21Z</time>
      </trkpt>
      <trkpt lat="43.529334990307689" lon="3.930143974721432">
        <ele>0.14</ele>
        <time>2025-05-16T11:57:32Z</time>
      </trkpt>
      <trkpt lat="43.529334990307689" lon="3.929994022473693">
        <ele>0.14</ele>
        <time>2025-05-16T11:57:39Z</time>
      </trkpt>
      <trkpt lat="43.529283022508025" lon="3.930083960294724">
        <ele>0.14</ele>
        <time>2025-05-16T11:57:40Z</time>
      </trkpt>
      <trkpt lat="43.529310012236238" lon="3.930114973336458">
        <ele>0.14</ele>
        <time>2025-05-16T11:57:41Z</time>
      </trkpt>
      <trkpt lat="43.529334990307689" lon="3.930143974721432">
        <ele>-0.34</ele>
        <time>2025-05-16T11:57:42Z</time>
      </trkpt>
      <trkpt lat="43.529332978650928" lon="3.930198037996888">
        <ele>-0.34</ele>
        <time>2025-05-16T11:57:43Z</time>
      </trkpt>
      <trkpt lat="43.529329961165786" lon="3.930284036323428">
        <ele>-0.82</ele>
        <time>2025-05-16T11:57:44Z</time>
      </trkpt>
      <trkpt lat="43.529326021671295" lon="3.930371962487698">
        <ele>-1.3</ele>
        <time>2025-05-16T11:57:45Z</time>
      </trkpt>
      <trkpt lat="43.529323004186153" lon="3.930458966642618">
        <ele>-1.79</ele>
        <time>2025-05-16T11:57:46Z</time>
      </trkpt>
      <trkpt lat="43.529319986701012" lon="3.930543959140778">
        <ele>-2.27</ele>
        <time>2025-05-16T11:57:47Z</time>
      </trkpt>
      <trkpt lat="43.52931696921587" lon="3.930630041286349">
        <ele>-2.75</ele>
        <time>2025-05-16T11:57:48Z</time>
      </trkpt>
      <trkpt lat="43.52931403554976" lon="3.930720984935761">
        <ele>-2.75</ele>
        <time>2025-05-16T11:57:49Z</time>
      </trkpt>
      <trkpt lat="43.529313029721379" lon="3.931076964363456">
        <ele>-3.23</ele>
        <time>2025-05-16T11:57:53Z</time>
      </trkpt>
      <trkpt lat="43.529311018064618" lon="3.931275028735399">
        <ele>-3.23</ele>
        <time>2025-05-16T11:57:56Z</time>
      </trkpt>
      <trkpt lat="43.529301965609193" lon="3.931346023455262">
        <ele>-3.23</ele>
        <time>2025-05-16T11:57:57Z</time>
      </trkpt>
      <trkpt lat="43.529291991144419" lon="3.931432021781802">
        <ele>-3.23</ele>
        <time>2025-05-16T11:57:58Z</time>
      </trkpt>
      <trkpt lat="43.529280005022883" lon="3.931881040334702">
        <ele>-3.71</ele>
        <time>2025-05-16T11:58:03Z</time>
      </trkpt>
      <trkpt lat="43.5292739700526" lon="3.931978018954396">
        <ele>-3.23</ele>
        <time>2025-05-16T11:58:04Z</time>
      </trkpt>
      <trkpt lat="43.529262989759445" lon="3.93207399174571">
        <ele>-2.75</ele>
        <time>2025-05-16T11:58:05Z</time>
      </trkpt>
      <trkpt lat="43.529247986152768" lon="3.932166025042534">
        <ele>-2.75</ele>
        <time>2025-05-16T11:58:06Z</time>
      </trkpt>
      <trkpt lat="43.529227031394839" lon="3.932289993390441">
        <ele>-1.79</ele>
        <time>2025-05-16T11:58:07Z</time>
      </trkpt>
      <trkpt lat="43.529174979776144" lon="3.932623006403446">
        <ele>-0.82</ele>
        <time>2025-05-16T11:58:11Z</time>
      </trkpt>
      <trkpt lat="43.529161987826228" lon="3.932700958102942">
        <ele>-0.34</ele>
        <time>2025-05-16T11:58:12Z</time>
      </trkpt>
      <trkpt lat="43.529147990047932" lon="3.932785028591752">
        <ele>0.14</ele>
        <time>2025-05-16T11:58:13Z</time>
      </trkpt>
      <trkpt lat="43.529134998098016" lon="3.93286700360477">
        <ele>0.62</ele>
        <time>2025-05-16T11:58:14Z</time>
      </trkpt>
      <trkpt lat="43.5291220061481" lon="3.932945039123297">
        <ele>1.1</ele>
        <time>2025-05-16T11:58:15Z</time>
      </trkpt>
      <trkpt lat="43.529109014198184" lon="3.933020979166031">
        <ele>1.1</ele>
        <time>2025-05-16T11:58:16Z</time>
      </trkpt>
      <trkpt lat="43.529044976457953" lon="3.933497993275523">
        <ele>3.02</ele>
        <time>2025-05-16T11:58:22Z</time>
      </trkpt>
      <trkpt lat="43.52903600782156" lon="3.933565970510244">
        <ele>3.02</ele>
        <time>2025-05-16T11:58:23Z</time>
      </trkpt>
      <trkpt lat="43.528996026143432" lon="3.933868976309896">
        <ele>3.98</ele>
        <time>2025-05-16T11:58:27Z</time>
      </trkpt>
      <trkpt lat="43.528941040858626" lon="3.934225039556623">
        <ele>3.98</ele>
        <time>2025-05-16T11:58:34Z</time>
      </trkpt>
      <trkpt lat="43.528904998674989" lon="3.93441203981638">
        <ele>3.98</ele>
        <time>2025-05-16T11:58:44Z</time>
      </trkpt>
      <trkpt lat="43.528899969533086" lon="3.93443601205945">
        <ele>3.98</ele>
        <time>2025-05-16T11:58:56Z</time>
      </trkpt>
      <trkpt lat="43.528896030038595" lon="3.934460990130901">
        <ele>4.46</ele>
        <time>2025-05-16T11:59:14Z</time>
      </trkpt>
      <trkpt lat="43.528926959261298" lon="3.934714961796999">
        <ele>3.02</ele>
        <time>2025-05-16T11:59:19Z</time>
      </trkpt>
      <trkpt lat="43.528885971754789" lon="3.934870027005673">
        <ele>2.54</ele>
        <time>2025-05-16T11:59:20Z</time>
      </trkpt>
      <trkpt lat="43.528981022536755" lon="3.934929035604">
        <ele>2.06</ele>
        <time>2025-05-16T11:59:21Z</time>
      </trkpt>
      <trkpt lat="43.529028967022896" lon="3.934929035604">
        <ele>1.58</ele>
        <time>2025-05-16T11:59:22Z</time>
      </trkpt>
      <trkpt lat="43.52907900698483" lon="3.934854017570615">
        <ele>1.1</ele>
        <time>2025-05-16T11:59:23Z</time>
      </trkpt>
      <trkpt lat="43.529097028076649" lon="3.934825016185641">
        <ele>0.62</ele>
        <time>2025-05-16T11:59:24Z</time>
      </trkpt>
      <trkpt lat="43.529087975621223" lon="3.93480196595192">
        <ele>0.62</ele>
        <time>2025-05-16T11:59:25Z</time>
      </trkpt>
      <trkpt lat="43.529072972014546" lon="3.934771036729217">
        <ele>0.14</ele>
        <time>2025-05-16T11:59:26Z</time>
      </trkpt>
      <trkpt lat="43.52905604057014" lon="3.93473600037396">
        <ele>-0.34</ele>
        <time>2025-05-16T11:59:27Z</time>
      </trkpt>
      <trkpt lat="43.529027039185166" lon="3.934731977060437">
        <ele>-0.82</ele>
        <time>2025-05-16T11:59:28Z</time>
      </trkpt>
      <trkpt lat="43.52905604057014" lon="3.93473600037396">
        <ele>-1.3</ele>
        <time>2025-05-16T11:59:29Z</time>
      </trkpt>
      <trkpt lat="43.528903992846608" lon="3.934613037854433">
        <ele>-1.79</ele>
        <time>2025-05-16T11:59:30Z</time>
      </trkpt>
      <trkpt lat="43.52888697758317" lon="3.934537013992667">
        <ele>-2.27</ele>
        <time>2025-05-16T11:59:31Z</time>
      </trkpt>
      <trkpt lat="43.528900975361466" lon="3.934434000402689">
        <ele>-2.75</ele>
        <time>2025-05-16T11:59:32Z</time>
      </trkpt>
      <trkpt lat="43.528914973139763" lon="3.934356970712543">
        <ele>-3.23</ele>
        <time>2025-05-16T11:59:33Z</time>
      </trkpt>
      <trkpt lat="43.528931988403201" lon="3.934267032891512">
        <ele>-3.71</ele>
        <time>2025-05-16T11:59:34Z</time>
      </trkpt>
      <trkpt lat="43.529003988951445" lon="3.933811979368329">
        <ele>-4.67</ele>
        <time>2025-05-16T11:59:39Z</time>
      </trkpt>
      <trkpt lat="43.529041958972812" lon="3.933517020195723">
        <ele>-5.15</ele>
        <time>2025-05-16T11:59:43Z</time>
      </trkpt>
      <trkpt lat="43.529068026691675" lon="3.93331996165216">
        <ele>-5.15</ele>
        <time>2025-05-16T11:59:46Z</time>
      </trkpt>
      <trkpt lat="43.529074983671308" lon="3.933263970538974">
        <ele>-5.15</ele>
        <time>2025-05-16T11:59:47Z</time>
      </trkpt>
      <trkpt lat="43.529082024469972" lon="3.93321099691093">
        <ele>-5.63</ele>
        <time>2025-05-16T11:59:48Z</time>
      </trkpt>
      <trkpt lat="43.529087975621223" lon="3.933163974434137">
        <ele>-5.63</ele>
        <time>2025-05-16T11:59:49Z</time>
      </trkpt>
      <trkpt lat="43.529162993654609" lon="3.93310496583581">
        <ele>-5.63</ele>
        <time>2025-05-16T11:59:50Z</time>
      </trkpt>
      <trkpt lat="43.529211021959782" lon="3.933120975270867">
        <ele>-6.11</ele>
        <time>2025-05-16T11:59:51Z</time>
      </trkpt>
      <trkpt lat="43.529291991144419" lon="3.93314796499908">
        <ele>-5.63</ele>
        <time>2025-05-16T11:59:52Z</time>
      </trkpt>
      <trkpt lat="43.52935804054141" lon="3.933157017454505">
        <ele>-5.63</ele>
        <time>2025-05-16T11:59:53Z</time>
      </trkpt>
      <trkpt lat="43.529695998877287" lon="3.933200016617775">
        <ele>-3.71</ele>
        <time>2025-05-16T11:59:58Z</time>
      </trkpt>
      <trkpt lat="43.529740003868937" lon="3.933204961940646">
        <ele>-3.71</ele>
        <time>2025-05-16T11:59:59Z</time>
      </trkpt>
      <trkpt lat="43.529806975275278" lon="3.933214014396071">
        <ele>-3.23</ele>
        <time>2025-05-16T12:00:00Z</time>
      </trkpt>
      <trkpt lat="43.529804963618517" lon="3.933160034939647">
        <ele>-2.75</ele>
        <time>2025-05-16T12:00:01Z</time>
      </trkpt>
      <trkpt lat="43.529802029952407" lon="3.933087028563023">
        <ele>-2.75</ele>
        <time>2025-05-16T12:00:02Z</time>
      </trkpt>
      <trkpt lat="43.529799012467265" lon="3.932998012751341">
        <ele>-2.27</ele>
        <time>2025-05-16T12:00:03Z</time>
      </trkpt>
      <trkpt lat="43.529795994982123" lon="3.932900028303266">
        <ele>-2.27</ele>
        <time>2025-05-16T12:00:04Z</time>
      </trkpt>
      <trkpt lat="43.529791971668601" lon="3.932801960036159">
        <ele>-2.27</ele>
        <time>2025-05-16T12:00:05Z</time>
      </trkpt>
      <trkpt lat="43.529789038002491" lon="3.932706993073225">
        <ele>-2.27</ele>
        <time>2025-05-16T12:00:06Z</time>
      </trkpt>
      <trkpt lat="43.529786020517349" lon="3.932623006403446">
        <ele>-1.79</ele>
        <time>2025-05-16T12:00:07Z</time>
      </trkpt>
      <trkpt lat="43.529783003032207" lon="3.932543965056539">
        <ele>-1.79</ele>
        <time>2025-05-16T12:00:08Z</time>
      </trkpt>
      <trkpt lat="43.529780991375446" lon="3.932474981993437">
        <ele>-1.79</ele>
        <time>2025-05-16T12:00:09Z</time>
      </trkpt>
      <trkpt lat="43.529778979718685" lon="3.932411028072238">
        <ele>-1.3</ele>
        <time>2025-05-16T12:00:10Z</time>
      </trkpt>
      <trkpt lat="43.529749978333712" lon="3.931551966816187">
        <ele>0.14</ele>
        <time>2025-05-16T12:00:19Z</time>
      </trkpt>
      <trkpt lat="43.529738998040557" lon="3.931205961853266">
        <ele>0.62</ele>
        <time>2025-05-16T12:00:22Z</time>
      </trkpt>
      <trkpt lat="43.529734974727035" lon="3.931093979626894">
        <ele>1.1</ele>
        <time>2025-05-16T12:00:23Z</time>
      </trkpt>
      <trkpt lat="43.52972500026226" lon="3.930784016847611">
        <ele>0.62</ele>
        <time>2025-05-16T12:00:26Z</time>
      </trkpt>
      <trkpt lat="43.529721982777119" lon="3.930686032399535">
        <ele>1.1</ele>
        <time>2025-05-16T12:00:27Z</time>
      </trkpt>
      <trkpt lat="43.529732963070273" lon="3.930592993274331">
        <ele>1.1</ele>
        <time>2025-05-16T12:00:28Z</time>
      </trkpt>
      <trkpt lat="43.529758024960756" lon="3.930457038804889">
        <ele>1.1</ele>
        <time>2025-05-16T12:00:30Z</time>
      </trkpt>
      <trkpt lat="43.529729023575783" lon="3.930390989407897">
        <ele>1.1</ele>
        <time>2025-05-16T12:00:31Z</time>
      </trkpt>
      <trkpt lat="43.529689963907003" lon="3.930354025214911">
        <ele>1.1</ele>
        <time>2025-05-16T12:00:32Z</time>
      </trkpt>
      <trkpt lat="43.529644031077623" lon="3.930311026051641">
        <ele>1.1</ele>
        <time>2025-05-16T12:00:33Z</time>
      </trkpt>
      <trkpt lat="43.529600026085973" lon="3.930270038545132">
        <ele>1.1</ele>
        <time>2025-05-16T12:00:34Z</time>
      </trkpt>
      <trkpt lat="43.529248991981149" lon="3.929865024983883">
        <ele>0.62</ele>
        <time>2025-05-16T12:00:45Z</time>
      </trkpt>
      <trkpt lat="43.529047993943095" lon="3.929582973942161">
        <ele>-0.34</ele>
        <time>2025-05-16T12:00:54Z</time>
      </trkpt>
      <trkpt lat="43.529001977294683" lon="3.929518014192581">
        <ele>-0.34</ele>
        <time>2025-05-16T12:01:04Z</time>
      </trkpt>
      <trkpt lat="43.529001977294683" lon="3.929518014192581">
        <ele>-0.34</ele>
        <time>2025-05-16T12:02:09Z</time>
      </trkpt>
      <trkpt lat="43.529044976457953" lon="3.929466968402267">
        <ele>3.5</ele>
        <time>2025-05-16T12:02:32Z</time>
      </trkpt>
      <trkpt lat="43.52901304140687" lon="3.929780032485724">
        <ele>3.5</ele>
        <time>2025-05-16T12:02:34Z</time>
      </trkpt>
      <trkpt lat="43.528974987566471" lon="3.929739966988564">
        <ele>3.5</ele>
        <time>2025-05-16T12:02:35Z</time>
      </trkpt>
      <trkpt lat="43.529022010043263" lon="3.929790006950498">
        <ele>4.94</ele>
        <time>2025-05-16T12:02:49Z</time>
      </trkpt>
      <trkpt lat="43.52916601113975" lon="3.929950017482042">
        <ele>3.98</ele>
        <time>2025-05-16T12:03:06Z</time>
      </trkpt>
      <trkpt lat="43.529205992817879" lon="3.929994022473693">
        <ele>3.98</ele>
        <time>2025-05-16T12:03:09Z</time>
      </trkpt>
      <trkpt lat="43.529214039444923" lon="3.930003996938467">
        <ele>3.98</ele>
        <time>2025-05-16T12:03:10Z</time>
      </trkpt>
      <trkpt lat="43.529334990307689" lon="3.929994022473693">
        <ele>3.98</ele>
        <time>2025-05-16T12:03:11Z</time>
      </trkpt>
      <trkpt lat="43.529334990307689" lon="3.929994022473693">
        <ele>3.5</ele>
        <time>2025-05-16T12:03:12Z</time>
      </trkpt>
      <trkpt lat="43.529334990307689" lon="3.929994022473693">
        <ele>-0.34</ele>
        <time>2025-05-16T12:03:25Z</time>
      </trkpt>
      <trkpt lat="43.529334990307689" lon="3.929994022473693">
        <ele>-0.34</ele>
        <time>2025-05-16T12:03:41Z</time>
      </trkpt>
      <trkpt lat="43.529301965609193" lon="3.929768968373537">
        <ele>-1.79</ele>
        <time>2025-05-16T12:37:19Z</time>
      </trkpt>
      <trkpt lat="43.529287967830896" lon="3.929758993908763">
        <ele>1.58</ele>
        <time>2025-05-16T12:38:08Z</time>
      </trkpt>
      <trkpt lat="43.529282016679645" lon="3.929762011393905">
        <ele>2.06</ele>
        <time>2025-05-16T12:38:53Z</time>
      </trkpt>
      <trkpt lat="43.529286962002516" lon="3.929764023050666">
        <ele>2.06</ele>
        <time>2025-05-16T12:39:41Z</time>
      </trkpt>
      <trkpt lat="43.529282016679645" lon="3.929767040535808">
        <ele>3.02</ele>
        <time>2025-05-16T12:40:23Z</time>
      </trkpt>
      <trkpt lat="43.529281010851264" lon="3.929768968373537">
        <ele>3.02</ele>
        <time>2025-05-16T12:40:49Z</time>
      </trkpt>
      <trkpt lat="43.529281010851264" lon="3.929767962545157">
        <ele>2.54</ele>
        <time>2025-05-16T12:41:26Z</time>
      </trkpt>
      <trkpt lat="43.529277993366122" lon="3.929763017222285">
        <ele>3.02</ele>
        <time>2025-05-16T12:42:10Z</time>
      </trkpt>
      <trkpt lat="43.529275981709361" lon="3.929764023050666">
        <ele>2.54</ele>
        <time>2025-05-16T12:42:59Z</time>
      </trkpt>
      <trkpt lat="43.5292739700526" lon="3.929762011393905">
        <ele>3.02</ele>
        <time>2025-05-16T12:43:31Z</time>
      </trkpt>
      <trkpt lat="43.5292739700526" lon="3.929762011393905">
        <ele>3.02</ele>
        <time>2025-05-16T12:43:35Z</time>
      </trkpt>
      <trkpt lat="43.529248991981149" lon="3.929870976135135">
        <ele>1.1</ele>
        <time>2025-05-16T12:43:44Z</time>
      </trkpt>
      <trkpt lat="43.529205992817879" lon="3.929994022473693">
        <ele>0.62</ele>
        <time>2025-05-16T12:43:46Z</time>
      </trkpt>
      <trkpt lat="43.52923097088933" lon="3.930023023858666">
        <ele>0.62</ele>
        <time>2025-05-16T12:43:47Z</time>
      </trkpt>
      <trkpt lat="43.529269024729729" lon="3.930067028850317">
        <ele>0.14</ele>
        <time>2025-05-16T12:43:48Z</time>
      </trkpt>
      <trkpt lat="43.529305988922715" lon="3.930111033841968">
        <ele>0.14</ele>
        <time>2025-05-16T12:43:49Z</time>
      </trkpt>
      <trkpt lat="43.529334990307689" lon="3.930143974721432">
        <ele>-0.34</ele>
        <time>2025-05-16T12:43:50Z</time>
      </trkpt>
      <trkpt lat="43.529334990307689" lon="3.930143974721432">
        <ele>-0.34</ele>
        <time>2025-05-16T12:43:51Z</time>
      </trkpt>
      <trkpt lat="43.529334990307689" lon="3.930143974721432">
        <ele>-0.82</ele>
        <time>2025-05-16T12:43:52Z</time>
      </trkpt>
      <trkpt lat="43.529334990307689" lon="3.930143974721432">
        <ele>-0.82</ele>
        <time>2025-05-16T12:43:53Z</time>
      </trkpt>
      <trkpt lat="43.529329961165786" lon="3.930276995524764">
        <ele>-0.82</ele>
        <time>2025-05-16T12:43:54Z</time>
      </trkpt>
      <trkpt lat="43.529328033328056" lon="3.930342039093375">
        <ele>-1.3</ele>
        <time>2025-05-16T12:43:55Z</time>
      </trkpt>
      <trkpt lat="43.529325015842915" lon="3.930406998842955">
        <ele>-1.3</ele>
        <time>2025-05-16T12:43:56Z</time>
      </trkpt>
      <trkpt lat="43.529323004186153" lon="3.930472964420915">
        <ele>-1.79</ele>
        <time>2025-05-16T12:43:57Z</time>
      </trkpt>
      <trkpt lat="43.529319986701012" lon="3.930545970797539">
        <ele>-2.27</ele>
        <time>2025-05-16T12:43:58Z</time>
      </trkpt>
      <trkpt lat="43.52931696921587" lon="3.930626017972827">
        <ele>-2.75</ele>
        <time>2025-05-16T12:43:59Z</time>
      </trkpt>
      <trkpt lat="43.529291991144419" lon="3.93153503537178">
        <ele>-6.11</ele>
        <time>2025-05-16T12:44:09Z</time>
      </trkpt>
      <trkpt lat="43.529206998646259" lon="3.932424020022154">
        <ele>-9</ele>
        <time>2025-05-16T12:44:19Z</time>
      </trkpt>
      <trkpt lat="43.529136003926396" lon="3.932857029139996">
        <ele>-10.44</ele>
        <time>2025-05-16T12:44:24Z</time>
      </trkpt>
      <trkpt lat="43.529127035290003" lon="3.932914026081562">
        <ele>-10.92</ele>
        <time>2025-05-16T12:44:25Z</time>
      </trkpt>
      <trkpt lat="43.529119994491339" lon="3.932956019416452">
        <ele>-11.4</ele>
        <time>2025-05-16T12:44:26Z</time>
      </trkpt>
      <trkpt lat="43.529113959521055" lon="3.932989966124296">
        <ele>-11.4</ele>
        <time>2025-05-16T12:44:27Z</time>
      </trkpt>
      <trkpt lat="43.529211021959782" lon="3.933120975270867">
        <ele>-11.880000000000001</ele>
        <time>2025-05-16T12:44:28Z</time>
      </trkpt>
      <trkpt lat="43.529233988374472" lon="3.933129021897912">
        <ele>-11.880000000000001</ele>
        <time>2025-05-16T12:44:29Z</time>
      </trkpt>
      <trkpt lat="43.529272964224219" lon="3.933142013847828">
        <ele>-12.359999999999999</ele>
        <time>2025-05-16T12:44:30Z</time>
      </trkpt>
      <trkpt lat="43.529330966994166" lon="3.933153999969363">
        <ele>-12.359999999999999</ele>
        <time>2025-05-16T12:44:31Z</time>
      </trkpt>
      <trkpt lat="43.529401961714029" lon="3.933162968605757">
        <ele>-12.359999999999999</ele>
        <time>2025-05-16T12:44:32Z</time>
      </trkpt>
      <trkpt lat="43.529539005830884" lon="3.933180989697576">
        <ele>-12.84</ele>
        <time>2025-05-16T12:44:34Z</time>
      </trkpt>
      <trkpt lat="43.529586028307676" lon="3.933187024667859">
        <ele>-12.84</ele>
        <time>2025-05-16T12:44:35Z</time>
      </trkpt>
      <trkpt lat="43.529626009985805" lon="3.933192975819111">
        <ele>-12.84</ele>
        <time>2025-05-16T12:44:36Z</time>
      </trkpt>
      <trkpt lat="43.529665991663933" lon="3.933196999132633">
        <ele>-12.84</ele>
        <time>2025-05-16T12:44:37Z</time>
      </trkpt>
      <trkpt lat="43.529697004705667" lon="3.933200016617775">
        <ele>-13.32</ele>
        <time>2025-05-16T12:44:38Z</time>
      </trkpt>
      <trkpt lat="43.529806975275278" lon="3.933213008567691">
        <ele>-13.800000000000001</ele>
        <time>2025-05-16T12:44:39Z</time>
      </trkpt>
      <trkpt lat="43.529804041609168" lon="3.933149976655841">
        <ele>-13.800000000000001</ele>
        <time>2025-05-16T12:44:40Z</time>
      </trkpt>
      <trkpt lat="43.529802029952407" lon="3.933077976107597">
        <ele>-13.800000000000001</ele>
        <time>2025-05-16T12:44:41Z</time>
      </trkpt>
      <trkpt lat="43.529799012467265" lon="3.932991977781057">
        <ele>-13.32</ele>
        <time>2025-05-16T12:44:42Z</time>
      </trkpt>
      <trkpt lat="43.529795994982123" lon="3.932899022474885">
        <ele>-13.32</ele>
        <time>2025-05-16T12:44:43Z</time>
      </trkpt>
      <trkpt lat="43.529750984162092" lon="3.931607035920024">
        <ele>-9.960000000000001</ele>
        <time>2025-05-16T12:44:54Z</time>
      </trkpt>
      <trkpt lat="43.529720976948738" lon="3.930658958852291">
        <ele>-5.63</ele>
        <time>2025-05-16T12:45:02Z</time>
      </trkpt>
      <trkpt lat="43.52974796667695" lon="3.930509006604552">
        <ele>-5.15</ele>
        <time>2025-05-16T12:45:03Z</time>
      </trkpt>
      <trkpt lat="43.529775040224195" lon="3.930400041863322">
        <ele>-4.67</ele>
        <time>2025-05-16T12:45:04Z</time>
      </trkpt>
      <trkpt lat="43.529827008023858" lon="3.930301973596215">
        <ele>-4.19</ele>
        <time>2025-05-16T12:45:05Z</time>
      </trkpt>
      <trkpt lat="43.529884004965425" lon="3.930202983319759">
        <ele>-3.71</ele>
        <time>2025-05-16T12:45:06Z</time>
      </trkpt>
      <trkpt lat="43.530305027961731" lon="3.929483983665705">
        <ele>-3.71</ele>
        <time>2025-05-16T12:45:15Z</time>
      </trkpt>
      <trkpt lat="43.530833004042506" lon="3.9285690151155">
        <ele>-3.23</ele>
        <time>2025-05-16T12:45:27Z</time>
      </trkpt>
      <trkpt lat="43.53088597767055" lon="3.928498020395637">
        <ele>-3.23</ele>
        <time>2025-05-16T12:45:28Z</time>
      </trkpt>
      <trkpt lat="43.530940962955356" lon="3.928417973220348">
        <ele>-3.23</ele>
        <time>2025-05-16T12:45:29Z</time>
      </trkpt>
      <trkpt lat="43.531324015930295" lon="3.927779020741582">
        <ele>-1.79</ele>
        <time>2025-05-16T12:45:38Z</time>
      </trkpt>
      <trkpt lat="43.531935978680849" lon="3.926833039149642">
        <ele>-2.27</ele>
        <time>2025-05-16T12:45:50Z</time>
      </trkpt>
      <trkpt lat="43.53204402141273" lon="3.926670011132956">
        <ele>-2.27</ele>
        <time>2025-05-16T12:45:52Z</time>
      </trkpt>
      <trkpt lat="43.532089032232761" lon="3.926611002534628">
        <ele>-2.27</ele>
        <time>2025-05-16T12:45:53Z</time>
      </trkpt>
      <trkpt lat="43.532170001417398" lon="3.926510000601411">
        <ele>-2.75</ele>
        <time>2025-05-16T12:45:56Z</time>
      </trkpt>
      <trkpt lat="43.532251976430416" lon="3.926444035023451">
        <ele>-2.27</ele>
        <time>2025-05-16T12:45:57Z</time>
      </trkpt>
      <trkpt lat="43.532317019999027" lon="3.926478987559676">
        <ele>-2.27</ele>
        <time>2025-05-16T12:45:58Z</time>
      </trkpt>
      <trkpt lat="43.532390026375651" lon="3.926519975066185">
        <ele>-1.79</ele>
        <time>2025-05-16T12:45:59Z</time>
      </trkpt>
      <trkpt lat="43.532484993338585" lon="3.926504971459508">
        <ele>-1.79</ele>
        <time>2025-05-16T12:46:00Z</time>
      </trkpt>
      <trkpt lat="43.532566968351603" lon="3.926458032801747">
        <ele>-1.79</ele>
        <time>2025-05-16T12:46:01Z</time>
      </trkpt>
      <trkpt lat="43.532618014141917" lon="3.926341021433473">
        <ele>-1.79</ele>
        <time>2025-05-16T12:46:02Z</time>
      </trkpt>
      <trkpt lat="43.532660007476807" lon="3.926232978701592">
        <ele>-2.27</ele>
        <time>2025-05-16T12:46:03Z</time>
      </trkpt>
      <trkpt lat="43.532665958628058" lon="3.926111022010446">
        <ele>-2.27</ele>
        <time>2025-05-16T12:46:04Z</time>
      </trkpt>
      <trkpt lat="43.532637963071465" lon="3.925998033955693">
        <ele>-1.79</ele>
        <time>2025-05-16T12:46:05Z</time>
      </trkpt>
      <trkpt lat="43.532587001100183" lon="3.925898037850857">
        <ele>-1.79</ele>
        <time>2025-05-16T12:46:06Z</time>
      </trkpt>
      <trkpt lat="43.532510977238417" lon="3.925851015374064">
        <ele>-1.79</ele>
        <time>2025-05-16T12:46:07Z</time>
      </trkpt>
      <trkpt lat="43.532446017488837" lon="3.925810027867556">
        <ele>-1.3</ele>
        <time>2025-05-16T12:46:08Z</time>
      </trkpt>
      <trkpt lat="43.532358007505536" lon="3.925732998177409">
        <ele>-1.3</ele>
        <time>2025-05-16T12:46:09Z</time>
      </trkpt>
      <trkpt lat="43.532276032492518" lon="3.925660997629166">
        <ele>-0.82</ele>
        <time>2025-05-16T12:46:10Z</time>
      </trkpt>
      <trkpt lat="43.532188022509217" lon="3.9255849737674">
        <ele>-0.82</ele>
        <time>2025-05-16T12:46:11Z</time>
      </trkpt>
      <trkpt lat="43.531324015930295" lon="3.924709986895323">
        <ele>4.94</ele>
        <time>2025-05-16T12:46:22Z</time>
      </trkpt>
      <trkpt lat="43.530557993799448" lon="3.923922004178166">
        <ele>4.46</ele>
        <time>2025-05-16T12:46:31Z</time>
      </trkpt>
      <trkpt lat="43.530529998242855" lon="3.923765011131764">
        <ele>3.98</ele>
        <time>2025-05-16T12:46:32Z</time>
      </trkpt>
      <trkpt lat="43.530437964946032" lon="3.923505004495382">
        <ele>3.02</ele>
        <time>2025-05-16T12:46:34Z</time>
      </trkpt>
      <trkpt lat="43.53038901463151" lon="3.923367038369179">
        <ele>2.06</ele>
        <time>2025-05-16T12:46:35Z</time>
      </trkpt>
      <trkpt lat="43.530360013246536" lon="3.92322001978755">
        <ele>1.58</ele>
        <time>2025-05-16T12:46:36Z</time>
      </trkpt>
      <trkpt lat="43.530350960791111" lon="3.923053974285722">
        <ele>1.1</ele>
        <time>2025-05-16T12:46:37Z</time>
      </trkpt>
      <trkpt lat="43.530350038781762" lon="3.922888012602925">
        <ele>0.62</ele>
        <time>2025-05-16T12:46:38Z</time>
      </trkpt>
      <trkpt lat="43.530391026288271" lon="3.922744011506438">
        <ele>0.14</ele>
        <time>2025-05-16T12:46:39Z</time>
      </trkpt>
      <trkpt lat="43.530426984652877" lon="3.922617025673389">
        <ele>-0.34</ele>
        <time>2025-05-16T12:46:40Z</time>
      </trkpt>
      <trkpt lat="43.530459003522992" lon="3.922503031790257">
        <ele>-0.34</ele>
        <time>2025-05-16T12:46:41Z</time>
      </trkpt>
      <trkpt lat="43.530489010736346" lon="3.922393983229995">
        <ele>-0.82</ele>
        <time>2025-05-16T12:46:42Z</time>
      </trkpt>
      <trkpt lat="43.530521029606462" lon="3.922280995175242">
        <ele>-1.3</ele>
        <time>2025-05-16T12:46:43Z</time>
      </trkpt>
      <trkpt lat="43.530545001849532" lon="3.922127019613981">
        <ele>-1.3</ele>
        <time>2025-05-16T12:46:44Z</time>
      </trkpt>
      <trkpt lat="43.531211027875543" lon="3.921181038022041">
        <ele>-1.79</ele>
        <time>2025-05-16T12:46:51Z</time>
      </trkpt>
      <trkpt lat="43.532156003639102" lon="3.9197619818151">
        <ele>-3.23</ele>
        <time>2025-05-16T12:47:01Z</time>
      </trkpt>
      <trkpt lat="43.532310985028744" lon="3.919542040675879">
        <ele>-3.71</ele>
        <time>2025-05-16T12:47:03Z</time>
      </trkpt>
      <trkpt lat="43.532354990020394" lon="3.919479008764029">
        <ele>-3.71</ele>
        <time>2025-05-16T12:47:04Z</time>
      </trkpt>
      <trkpt lat="43.532375022768974" lon="3.919452019035816">
        <ele>-3.71</ele>
        <time>2025-05-16T12:47:12Z</time>
      </trkpt>
      <trkpt lat="43.532375022768974" lon="3.919452019035816">
        <ele>-3.71</ele>
        <time>2025-05-16T12:47:13Z</time>
      </trkpt>
      <trkpt lat="43.532661013305187" lon="3.919415976852179">
        <ele>-2.75</ele>
        <time>2025-05-16T12:47:23Z</time>
      </trkpt>
      <trkpt lat="43.532675011083484" lon="3.91939602792263">
        <ele>-2.75</ele>
        <time>2025-05-16T12:47:36Z</time>
      </trkpt>
      <trkpt lat="43.532675011083484" lon="3.91939602792263">
        <ele>-2.27</ele>
        <time>2025-05-16T12:48:14Z</time>
      </trkpt>
      <trkpt lat="43.532675011083484" lon="3.91939602792263">
        <ele>-1.79</ele>
        <time>2025-05-16T12:49:11Z</time>
      </trkpt>
      <trkpt lat="43.532675011083484" lon="3.91939602792263">
        <ele>-1.79</ele>
        <time>2025-05-16T12:49:58Z</time>
      </trkpt>
      <trkpt lat="43.532675011083484" lon="3.91939602792263">
        <ele>-1.3</ele>
        <time>2025-05-16T12:50:40Z</time>
      </trkpt>
      <trkpt lat="43.532675011083484" lon="3.91939602792263">
        <ele>-1.3</ele>
        <time>2025-05-16T12:51:28Z</time>
      </trkpt>
      <trkpt lat="43.532675011083484" lon="3.91939602792263">
        <ele>-1.3</ele>
        <time>2025-05-16T12:52:08Z</time>
      </trkpt>
      <trkpt lat="43.532675011083484" lon="3.91939602792263">
        <ele>-1.79</ele>
        <time>2025-05-16T12:52:57Z</time>
      </trkpt>
      <trkpt lat="43.532675011083484" lon="3.91939602792263">
        <ele>-1.79</ele>
        <time>2025-05-16T12:53:42Z</time>
      </trkpt>
      <trkpt lat="43.532850025221705" lon="3.919359985738993">
        <ele>-5.15</ele>
        <time>2025-05-16T12:57:27Z</time>
      </trkpt>
      <trkpt lat="43.532824041321874" lon="3.919410025700927">
        <ele>-14.279999999999999</ele>
        <time>2025-05-16T12:57:46Z</time>
      </trkpt>
      <trkpt lat="43.532813983038068" lon="3.919368032366037">
        <ele>-12.84</ele>
        <time>2025-05-16T12:58:13Z</time>
      </trkpt>
      <trkpt lat="43.532808031886816" lon="3.91920299269259">
        <ele>-4.19</ele>
        <time>2025-05-16T12:58:26Z</time>
      </trkpt>
      <trkpt lat="43.532819012179971" lon="3.919125963002443">
        <ele>2.06</ele>
        <time>2025-05-16T12:58:36Z</time>
      </trkpt>
      <trkpt lat="43.532810965552926" lon="3.919114982709289">
        <ele>2.54</ele>
        <time>2025-05-16T12:58:37Z</time>
      </trkpt>
      <trkpt lat="43.532767966389656" lon="3.91901096329093">
        <ele>1.1</ele>
        <time>2025-05-16T12:58:45Z</time>
      </trkpt>
      <trkpt lat="43.532767966389656" lon="3.918975004926324">
        <ele>1.1</ele>
        <time>2025-05-16T12:58:46Z</time>
      </trkpt>
      <trkpt lat="43.532767966389656" lon="3.918913984671235">
        <ele>1.1</ele>
        <time>2025-05-16T12:58:47Z</time>
      </trkpt>
      <trkpt lat="43.53279403410852" lon="3.918818011879921">
        <ele>1.1</ele>
        <time>2025-05-16T12:58:48Z</time>
      </trkpt>
      <trkpt lat="43.532853964716196" lon="3.918728996068239">
        <ele>1.1</ele>
        <time>2025-05-16T12:58:49Z</time>
      </trkpt>
      <trkpt lat="43.532899981364608" lon="3.918653978034854">
        <ele>1.1</ele>
        <time>2025-05-16T12:58:50Z</time>
      </trkpt>
      <trkpt lat="43.532961001619697" lon="3.918555993586779">
        <ele>1.1</ele>
        <time>2025-05-16T12:58:52Z</time>
      </trkpt>
      <trkpt lat="43.533674972131848" lon="3.917299965396524">
        <ele>3.98</ele>
        <time>2025-05-16T12:59:00Z</time>
      </trkpt>
      <trkpt lat="43.534395983442664" lon="3.915426023304462">
        <ele>3.02</ele>
        <time>2025-05-16T12:59:10Z</time>
      </trkpt>
      <trkpt lat="43.53483603335917" lon="3.91320800408721">
        <ele>-1.79</ele>
        <time>2025-05-16T12:59:20Z</time>
      </trkpt>
      <trkpt lat="43.534813988953829" lon="3.910912033170462">
        <ele>-2.27</ele>
        <time>2025-05-16T12:59:28Z</time>
      </trkpt>
      <trkpt lat="43.534463960677385" lon="3.907940983772278">
        <ele>-3.23</ele>
        <time>2025-05-16T12:59:38Z</time>
      </trkpt>
      <trkpt lat="43.534445017576218" lon="3.90702199190855">
        <ele>-2.75</ele>
        <time>2025-05-16T12:59:41Z</time>
      </trkpt>
      <trkpt lat="43.534477036446333" lon="3.906716974452138">
        <ele>-3.23</ele>
        <time>2025-05-16T12:59:42Z</time>
      </trkpt>
      <trkpt lat="43.534544007852674" lon="3.906429978087544">
        <ele>-3.23</ele>
        <time>2025-05-16T12:59:43Z</time>
      </trkpt>
      <trkpt lat="43.534626988694072" lon="3.906148010864854">
        <ele>-3.23</ele>
        <time>2025-05-16T12:59:44Z</time>
      </trkpt>
      <trkpt lat="43.53475296869874" lon="3.905885992571712">
        <ele>-3.23</ele>
        <time>2025-05-16T12:59:45Z</time>
      </trkpt>
      <trkpt lat="43.534878026694059" lon="3.90562498010695">
        <ele>-3.23</ele>
        <time>2025-05-16T12:59:46Z</time>
      </trkpt>
      <trkpt lat="43.535024961456656" lon="3.905396992340684">
        <ele>-3.23</ele>
        <time>2025-05-16T12:59:47Z</time>
      </trkpt>
      <trkpt lat="43.536534961313009" lon="3.903104960918427">
        <ele>-3.71</ele>
        <time>2025-05-16T12:59:57Z</time>
      </trkpt>
      <trkpt lat="43.538520969450474" lon="3.900025030598044">
        <ele>-2.75</ele>
        <time>2025-05-16T13:00:11Z</time>
      </trkpt>
      <trkpt lat="43.53928598575294" lon="3.898839997127652">
        <ele>-2.75</ele>
        <time>2025-05-16T13:00:18Z</time>
      </trkpt>
      <trkpt lat="43.539632996544242" lon="3.89834102243185">
        <ele>-2.27</ele>
        <time>2025-05-16T13:00:23Z</time>
      </trkpt>
      <trkpt lat="43.539694016799331" lon="3.898305986076593">
        <ele>-2.27</ele>
        <time>2025-05-16T13:00:24Z</time>
      </trkpt>
      <trkpt lat="43.539752019569278" lon="3.898272039368749">
        <ele>-2.27</ele>
        <time>2025-05-16T13:00:25Z</time>
      </trkpt>
      <trkpt lat="43.539812033995986" lon="3.898237003013492">
        <ele>-2.27</ele>
        <time>2025-05-16T13:00:26Z</time>
      </trkpt>
      <trkpt lat="43.539879005402327" lon="3.898218981921673">
        <ele>-1.79</ele>
        <time>2025-05-16T13:00:27Z</time>
      </trkpt>
      <trkpt lat="43.539956035092473" lon="3.898227028548718">
        <ele>-1.79</ele>
        <time>2025-05-16T13:00:28Z</time>
      </trkpt>
      <trkpt lat="43.540042033419013" lon="3.898237003013492">
        <ele>-1.79</ele>
        <time>2025-05-16T13:00:29Z</time>
      </trkpt>
      <trkpt lat="43.540127025917172" lon="3.898194003850222">
        <ele>-1.79</ele>
        <time>2025-05-16T13:00:30Z</time>
      </trkpt>
      <trkpt lat="43.540201960131526" lon="3.898120997473598">
        <ele>-1.79</ele>
        <time>2025-05-16T13:00:31Z</time>
      </trkpt>
      <trkpt lat="43.540261974558234" lon="3.898019995540381">
        <ele>-1.79</ele>
        <time>2025-05-16T13:00:32Z</time>
      </trkpt>
      <trkpt lat="43.540324000641704" lon="3.897916981950402">
        <ele>-1.79</ele>
        <time>2025-05-16T13:00:33Z</time>
      </trkpt>
      <trkpt lat="43.54038099758327" lon="3.897821009159088">
        <ele>-1.3</ele>
        <time>2025-05-16T13:00:34Z</time>
      </trkpt>
      <trkpt lat="43.540431959554553" lon="3.897731993347406">
        <ele>-1.3</ele>
        <time>2025-05-16T13:00:42Z</time>
      </trkpt>
      <trkpt lat="43.542406987398863" lon="3.896835967898369">
        <ele>-2.75</ele>
        <time>2025-05-16T13:00:49Z</time>
      </trkpt>
      <trkpt lat="43.544973023235798" lon="3.895830977708101">
        <ele>-5.15</ele>
        <time>2025-05-16T13:01:01Z</time>
      </trkpt>
      <trkpt lat="43.547307970002294" lon="3.894904023036361">
        <ele>-5.15</ele>
        <time>2025-05-16T13:01:12Z</time>
      </trkpt>
      <trkpt lat="43.549854978919029" lon="3.893904983997345">
        <ele>-5.15</ele>
        <time>2025-05-16T13:01:24Z</time>
      </trkpt>
      <trkpt lat="43.551999991759658" lon="3.893374996259809">
        <ele>-4.67</ele>
        <time>2025-05-16T13:01:34Z</time>
      </trkpt>
      <trkpt lat="43.554395958781242" lon="3.893103003501892">
        <ele>-3.23</ele>
        <time>2025-05-16T13:01:45Z</time>
      </trkpt>
      <trkpt lat="43.557110019028187" lon="3.892850959673524">
        <ele>-6.11</ele>
        <time>2025-05-16T13:01:58Z</time>
      </trkpt>
      <trkpt lat="43.55896501801908" lon="3.893241975456476">
        <ele>-5.63</ele>
        <time>2025-05-16T13:02:07Z</time>
      </trkpt>
      <trkpt lat="43.561526024714112" lon="3.893948988988996">
        <ele>-2.27</ele>
        <time>2025-05-16T13:02:19Z</time>
      </trkpt>
      <trkpt lat="43.563523013144732" lon="3.894316032528877">
        <ele>-0.82</ele>
        <time>2025-05-16T13:02:28Z</time>
      </trkpt>
      <trkpt lat="43.565727034583688" lon="3.894853983074427">
        <ele>-1.3</ele>
        <time>2025-05-16T13:02:38Z</time>
      </trkpt>
      <trkpt lat="43.568134987726808" lon="3.89544197358191">
        <ele>-0.34</ele>
        <time>2025-05-16T13:02:49Z</time>
      </trkpt>
      <trkpt lat="43.570763971656561" lon="3.896099030971527">
        <ele>0.14</ele>
        <time>2025-05-16T13:03:01Z</time>
      </trkpt>
      <trkpt lat="43.572335997596383" lon="3.896474959328771">
        <ele>0.14</ele>
        <time>2025-05-16T13:03:08Z</time>
      </trkpt>
      <trkpt lat="43.576056975871325" lon="3.897362016141415">
        <ele>-0.82</ele>
        <time>2025-05-16T13:03:25Z</time>
      </trkpt>
      <trkpt lat="43.578911013901234" lon="3.898054026067257">
        <ele>-1.3</ele>
        <time>2025-05-16T13:03:38Z</time>
      </trkpt>
      <trkpt lat="43.581079998984933" lon="3.898335993289948">
        <ele>0.62</ele>
        <time>2025-05-16T13:03:48Z</time>
      </trkpt>
      <trkpt lat="43.582312976941466" lon="3.897973978891969">
        <ele>0.62</ele>
        <time>2025-05-16T13:03:55Z</time>
      </trkpt>
      <trkpt lat="43.583585014566779" lon="3.897363021969795">
        <ele>1.1</ele>
        <time>2025-05-16T13:04:04Z</time>
      </trkpt>
      <trkpt lat="43.583717029541731" lon="3.89728800393641">
        <ele>1.1</ele>
        <time>2025-05-16T13:04:05Z</time>
      </trkpt>
      <trkpt lat="43.583848960697651" lon="3.897219020873308">
        <ele>1.1</ele>
        <time>2025-05-16T13:04:06Z</time>
      </trkpt>
      <trkpt lat="43.583972007036209" lon="3.897122964262962">
        <ele>1.1</ele>
        <time>2025-05-16T13:04:07Z</time>
      </trkpt>
      <trkpt lat="43.585087973624468" lon="3.896211013197899">
        <ele>3.02</ele>
        <time>2025-05-16T13:04:15Z</time>
      </trkpt>
      <trkpt lat="43.586192959919572" lon="3.895066967234016">
        <ele>8.310000000000001</ele>
        <time>2025-05-16T13:04:24Z</time>
      </trkpt>
      <trkpt lat="43.586461013182998" lon="3.894853983074427">
        <ele>9.75</ele>
        <time>2025-05-16T13:04:26Z</time>
      </trkpt>
      <trkpt lat="43.586600990965962" lon="3.894768990576267">
        <ele>10.23</ele>
        <time>2025-05-16T13:04:28Z</time>
      </trkpt>
      <trkpt lat="43.587026037275791" lon="3.894615015015006">
        <ele>11.19</ele>
        <time>2025-05-16T13:04:30Z</time>
      </trkpt>
      <trkpt lat="43.587162997573614" lon="3.894592970609665">
        <ele>11.19</ele>
        <time>2025-05-16T13:04:31Z</time>
      </trkpt>
      <trkpt lat="43.587312027812004" lon="3.894619960337877">
        <ele>11.19</ele>
        <time>2025-05-16T13:04:32Z</time>
      </trkpt>
      <trkpt lat="43.587458962574601" lon="3.894673017784953">
        <ele>11.67</ele>
        <time>2025-05-16T13:04:33Z</time>
      </trkpt>
      <trkpt lat="43.587606986984611" lon="3.894746024161577">
        <ele>11.67</ele>
        <time>2025-05-16T13:04:34Z</time>
      </trkpt>
      <trkpt lat="43.587740007787943" lon="3.894861023873091">
        <ele>11.67</ele>
        <time>2025-05-16T13:04:35Z</time>
      </trkpt>
      <trkpt lat="43.587876968085766" lon="3.894993038848043">
        <ele>11.67</ele>
        <time>2025-05-16T13:04:36Z</time>
      </trkpt>
      <trkpt lat="43.588984971866012" lon="3.896399019286037">
        <ele>11.19</ele>
        <time>2025-05-16T13:04:44Z</time>
      </trkpt>
      <trkpt lat="43.590297996997833" lon="3.898591976612806">
        <ele>10.23</ele>
        <time>2025-05-16T13:04:54Z</time>
      </trkpt>
      <trkpt lat="43.591338023543358" lon="3.90057697892189">
        <ele>9.75</ele>
        <time>2025-05-16T13:05:02Z</time>
      </trkpt>
      <trkpt lat="43.592534959316254" lon="3.902904968708754">
        <ele>8.789999999999999</ele>
        <time>2025-05-16T13:05:11Z</time>
      </trkpt>
      <trkpt lat="43.594199018552899" lon="3.906172988936305">
        <ele>7.35</ele>
        <time>2025-05-16T13:05:24Z</time>
      </trkpt>
      <trkpt lat="43.596072038635612" lon="3.909967979416251">
        <ele>9.27</ele>
        <time>2025-05-16T13:05:38Z</time>
      </trkpt>
      <trkpt lat="43.597714975476265" lon="3.913410007953644">
        <ele>16.48</ele>
        <time>2025-05-16T13:05:51Z</time>
      </trkpt>
      <trkpt lat="43.598699010908604" lon="3.915494000539184">
        <ele>17.440000000000001</ele>
        <time>2025-05-16T13:05:59Z</time>
      </trkpt>
      <trkpt lat="43.600018993020058" lon="3.918289029970765">
        <ele>16</ele>
        <time>2025-05-16T13:06:10Z</time>
      </trkpt>
      <trkpt lat="43.600833965465426" lon="3.920078985393047">
        <ele>16</ele>
        <time>2025-05-16T13:06:17Z</time>
      </trkpt>
      <trkpt lat="43.602238018065691" lon="3.923338958993554">
        <ele>17.440000000000001</ele>
        <time>2025-05-16T13:06:29Z</time>
      </trkpt>
      <trkpt lat="43.603825969621539" lon="3.927234029397368">
        <ele>23.210000000000001</ele>
        <time>2025-05-16T13:06:43Z</time>
      </trkpt>
      <trkpt lat="43.604791983962059" lon="3.929697973653674">
        <ele>26.09</ele>
        <time>2025-05-16T13:06:52Z</time>
      </trkpt>
      <trkpt lat="43.605965031310916" lon="3.932342967018485">
        <ele>30.899999999999999</ele>
        <time>2025-05-16T13:07:02Z</time>
      </trkpt>
      <trkpt lat="43.607164984568954" lon="3.934541959315538">
        <ele>35.229999999999997</ele>
        <time>2025-05-16T13:07:11Z</time>
      </trkpt>
      <trkpt lat="43.609318966045976" lon="3.937731022015214">
        <ele>38.109999999999999</ele>
        <time>2025-05-16T13:07:25Z</time>
      </trkpt>
      <trkpt lat="43.610626040026546" lon="3.939453000202775">
        <ele>37.630000000000003</ele>
        <time>2025-05-16T13:07:33Z</time>
      </trkpt>
      <trkpt lat="43.612582040950656" lon="3.941981988027692">
        <ele>34.740000000000002</ele>
        <time>2025-05-16T13:07:45Z</time>
      </trkpt>
      <trkpt lat="43.61469998024404" lon="3.9447480160743">
        <ele>31.379999999999999</ele>
        <time>2025-05-16T13:07:58Z</time>
      </trkpt>
      <trkpt lat="43.615957014262676" lon="3.946541994810104">
        <ele>32.82</ele>
        <time>2025-05-16T13:08:06Z</time>
      </trkpt>
      <trkpt lat="43.617699025198817" lon="3.949353033676744">
        <ele>28.5</ele>
        <time>2025-05-16T13:08:18Z</time>
      </trkpt>
      <trkpt lat="43.618878023698926" lon="3.951971037313342">
        <ele>24.170000000000002</ele>
        <time>2025-05-16T13:08:28Z</time>
      </trkpt>
      <trkpt lat="43.619428966194391" lon="3.953936006873846">
        <ele>19.359999999999999</ele>
        <time>2025-05-16T13:08:35Z</time>
      </trkpt>
      <trkpt lat="43.62026103772223" lon="3.956193001940846">
        <ele>19.84</ele>
        <time>2025-05-16T13:08:43Z</time>
      </trkpt>
      <trkpt lat="43.621592000126839" lon="3.95828403532505">
        <ele>17.440000000000001</ele>
        <time>2025-05-16T13:08:52Z</time>
      </trkpt>
      <trkpt lat="43.623243989422917" lon="3.959857989102602">
        <ele>18.399999999999999</ele>
        <time>2025-05-16T13:09:01Z</time>
      </trkpt>
      <trkpt lat="43.624765975400805" lon="3.961683986708522">
        <ele>17.920000000000002</ele>
        <time>2025-05-16T13:09:10Z</time>
      </trkpt>
      <trkpt lat="43.627405017614365" lon="3.965028030797839">
        <ele>14.56</ele>
        <time>2025-05-16T13:09:26Z</time>
      </trkpt>
      <trkpt lat="43.629940962418914" lon="3.967577973380685">
        <ele>17.920000000000002</ele>
        <time>2025-05-16T13:09:40Z</time>
      </trkpt>
      <trkpt lat="43.632069965824485" lon="3.969289977103472">
        <ele>22.73</ele>
        <time>2025-05-16T13:09:51Z</time>
      </trkpt>
      <trkpt lat="43.634989969432354" lon="3.970841970294714">
        <ele>29.460000000000001</ele>
        <time>2025-05-16T13:10:05Z</time>
      </trkpt>
      <trkpt lat="43.638655040413141" lon="3.972343001514673">
        <ele>31.379999999999999</ele>
        <time>2025-05-16T13:10:22Z</time>
      </trkpt>
      <trkpt lat="43.641100041568279" lon="3.973894994705916">
        <ele>30.899999999999999</ele>
        <time>2025-05-16T13:10:34Z</time>
      </trkpt>
      <trkpt lat="43.643534984439611" lon="3.976106978952885">
        <ele>27.050000000000001</ele>
        <time>2025-05-16T13:10:47Z</time>
      </trkpt>
      <trkpt lat="43.645677985623479" lon="3.978831013664603">
        <ele>23.210000000000001</ele>
        <time>2025-05-16T13:11:00Z</time>
      </trkpt>
      <trkpt lat="43.647263003513217" lon="3.981396965682507">
        <ele>22.25</ele>
        <time>2025-05-16T13:11:10Z</time>
      </trkpt>
      <trkpt lat="43.649021023884416" lon="3.984404979273677">
        <ele>21.289999999999999</ele>
        <time>2025-05-16T13:11:21Z</time>
      </trkpt>
      <trkpt lat="43.650465980172157" lon="3.986894991248846">
        <ele>18.879999999999999</ele>
        <time>2025-05-16T13:11:31Z</time>
      </trkpt>
      <trkpt lat="43.651984026655555" lon="3.989100018516183">
        <ele>18.879999999999999</ele>
        <time>2025-05-16T13:11:41Z</time>
      </trkpt>
      <trkpt lat="43.652948029339314" lon="3.990788972005248">
        <ele>19.359999999999999</ele>
        <time>2025-05-16T13:11:49Z</time>
      </trkpt>
      <trkpt lat="43.653178028762341" lon="3.991378974169493">
        <ele>19.84</ele>
        <time>2025-05-16T13:11:52Z</time>
      </trkpt>
      <trkpt lat="43.653233014047146" lon="3.991590030491352">
        <ele>19.84</ele>
        <time>2025-05-16T13:11:53Z</time>
      </trkpt>
      <trkpt lat="43.653289005160332" lon="3.991807959973812">
        <ele>20.32</ele>
        <time>2025-05-16T13:11:54Z</time>
      </trkpt>
      <trkpt lat="43.653324041515589" lon="3.99203603155911">
        <ele>20.809999999999999</ele>
        <time>2025-05-16T13:11:55Z</time>
      </trkpt>
      <trkpt lat="43.653356982395053" lon="3.992264019325376">
        <ele>21.289999999999999</ele>
        <time>2025-05-16T13:11:56Z</time>
      </trkpt>
      <trkpt lat="43.653386989608407" lon="3.992504999041557">
        <ele>21.77</ele>
        <time>2025-05-16T13:11:57Z</time>
      </trkpt>
      <trkpt lat="43.653531996533275" lon="3.994516991078854">
        <ele>25.609999999999999</ele>
        <time>2025-05-16T13:12:06Z</time>
      </trkpt>
      <trkpt lat="43.653467958793044" lon="3.994798958301544">
        <ele>26.09</ele>
        <time>2025-05-16T13:12:07Z</time>
      </trkpt>
      <trkpt lat="43.653527973219752" lon="3.994979001581669">
        <ele>26.57</ele>
        <time>2025-05-16T13:12:08Z</time>
      </trkpt>
      <trkpt lat="43.653596034273505" lon="3.995183017104864">
        <ele>27.050000000000001</ele>
        <time>2025-05-16T13:12:09Z</time>
      </trkpt>
      <trkpt lat="43.653681026771665" lon="3.995346967130899">
        <ele>27.050000000000001</ele>
        <time>2025-05-16T13:12:10Z</time>
      </trkpt>
      <trkpt lat="43.653993001207709" lon="3.99607895873487">
        <ele>26.57</ele>
        <time>2025-05-16T13:12:14Z</time>
      </trkpt>
      <trkpt lat="43.654054021462798" lon="3.996286997571588">
        <ele>26.57</ele>
        <time>2025-05-16T13:12:15Z</time>
      </trkpt>
      <trkpt lat="43.654363984242082" lon="3.998377025127411">
        <ele>23.210000000000001</ele>
        <time>2025-05-16T13:12:24Z</time>
      </trkpt>
      <trkpt lat="43.654477978125215" lon="3.999349996447563">
        <ele>21.77</ele>
        <time>2025-05-16T13:12:30Z</time>
      </trkpt>
      <trkpt lat="43.654506979510188" lon="3.999545965343714">
        <ele>21.289999999999999</ele>
        <time>2025-05-16T13:12:32Z</time>
      </trkpt>
      <trkpt lat="43.654516031965613" lon="3.999603968113661">
        <ele>20.809999999999999</ele>
        <time>2025-05-16T13:12:33Z</time>
      </trkpt>
      <trkpt lat="43.654518965631723" lon="3.999624000862241">
        <ele>20.809999999999999</ele>
        <time>2025-05-16T13:12:34Z</time>
      </trkpt>
      <trkpt lat="43.65448703058064" lon="3.999909991398454">
        <ele>19.84</ele>
        <time>2025-05-16T13:12:40Z</time>
      </trkpt>
      <trkpt lat="43.654475966468453" lon="4.000010993331671">
        <ele>19.359999999999999</ele>
        <time>2025-05-16T13:12:41Z</time>
      </trkpt>
      <trkpt lat="43.654428021982312" lon="4.000081988051534">
        <ele>19.359999999999999</ele>
        <time>2025-05-16T13:12:42Z</time>
      </trkpt>
      <trkpt lat="43.654357027262449" lon="4.000161029398441">
        <ele>18.879999999999999</ele>
        <time>2025-05-16T13:12:43Z</time>
      </trkpt>
      <trkpt lat="43.654279997572303" lon="4.000211991369724">
        <ele>18.879999999999999</ele>
        <time>2025-05-16T13:12:44Z</time>
      </trkpt>
      <trkpt lat="43.654214031994343" lon="4.000286003574729">
        <ele>18.879999999999999</ele>
        <time>2025-05-16T13:12:45Z</time>
      </trkpt>
      <trkpt lat="43.654147982597351" lon="4.000369990244508">
        <ele>18.399999999999999</ele>
        <time>2025-05-16T13:12:46Z</time>
      </trkpt>
      <trkpt lat="43.65410003811121" lon="4.000483984127641">
        <ele>18.399999999999999</ele>
        <time>2025-05-16T13:12:47Z</time>
      </trkpt>
      <trkpt lat="43.654078999534249" lon="4.000609964132309">
        <ele>18.399999999999999</ele>
        <time>2025-05-16T13:12:48Z</time>
      </trkpt>
      <trkpt lat="43.654057960957289" lon="4.000733010470867">
        <ele>17.920000000000002</ele>
        <time>2025-05-16T13:12:49Z</time>
      </trkpt>
      <trkpt lat="43.654071036726236" lon="4.00086997076869">
        <ele>17.440000000000001</ele>
        <time>2025-05-16T13:12:50Z</time>
      </trkpt>
      <trkpt lat="43.654112024232745" lon="4.000979019328952">
        <ele>17.440000000000001</ele>
        <time>2025-05-16T13:12:51Z</time>
      </trkpt>
      <trkpt lat="43.654153011739254" lon="4.001088989898562">
        <ele>16.960000000000001</ele>
        <time>2025-05-16T13:12:52Z</time>
      </trkpt>
      <trkpt lat="43.654148988425732" lon="4.001226034015417">
        <ele>16</ele>
        <time>2025-05-16T13:12:53Z</time>
      </trkpt>
      <trkpt lat="43.654114035889506" lon="4.001330975443125">
        <ele>15.52</ele>
        <time>2025-05-16T13:12:54Z</time>
      </trkpt>
      <trkpt lat="43.653234019875526" lon="4.00503896176815">
        <ele>12.630000000000001</ele>
        <time>2025-05-16T13:13:16Z</time>
      </trkpt>
      <trkpt lat="43.652777960523963" lon="4.005928030237556">
        <ele>9.75</ele>
        <time>2025-05-16T13:13:20Z</time>
      </trkpt>
      <trkpt lat="43.652518959715962" lon="4.006443014368415">
        <ele>8.310000000000001</ele>
        <time>2025-05-16T13:13:23Z</time>
      </trkpt>
      <trkpt lat="43.652459029108286" lon="4.006633032113314">
        <ele>8.310000000000001</ele>
        <time>2025-05-16T13:13:24Z</time>
      </trkpt>
      <trkpt lat="43.6524030379951" lon="4.006826989352703">
        <ele>8.789999999999999</ele>
        <time>2025-05-16T13:13:25Z</time>
      </trkpt>
      <trkpt lat="43.652359033003449" lon="4.00703301653266">
        <ele>8.789999999999999</ele>
        <time>2025-05-16T13:13:26Z</time>
      </trkpt>
      <trkpt lat="43.652337994426489" lon="4.007236026227474">
        <ele>9.27</ele>
        <time>2025-05-16T13:13:27Z</time>
      </trkpt>
      <trkpt lat="43.652330031618476" lon="4.007428977638483">
        <ele>9.27</ele>
        <time>2025-05-16T13:13:28Z</time>
      </trkpt>
      <trkpt lat="43.652330031618476" lon="4.007610026746988">
        <ele>9.75</ele>
        <time>2025-05-16T13:13:29Z</time>
      </trkpt>
      <trkpt lat="43.652317961677909" lon="4.007771965116262">
        <ele>9.75</ele>
        <time>2025-05-16T13:13:30Z</time>
      </trkpt>
      <trkpt lat="43.652296001091599" lon="4.007910015061498">
        <ele>9.75</ele>
        <time>2025-05-16T13:13:31Z</time>
      </trkpt>
      <trkpt lat="43.65225400775671" lon="4.008020991459489">
        <ele>9.75</ele>
        <time>2025-05-16T13:13:32Z</time>
      </trkpt>
      <trkpt lat="43.652172032743692" lon="4.008205980062485">
        <ele>9.75</ele>
        <time>2025-05-16T13:13:34Z</time>
      </trkpt>
      <trkpt lat="43.652136996388435" lon="4.008335983380675">
        <ele>9.27</ele>
        <time>2025-05-16T13:13:35Z</time>
      </trkpt>
      <trkpt lat="43.652164991945028" lon="4.008423993363977">
        <ele>9.75</ele>
        <time>2025-05-16T13:13:36Z</time>
      </trkpt>
      <trkpt lat="43.652203967794776" lon="4.008545028045774">
        <ele>9.75</ele>
        <time>2025-05-16T13:13:37Z</time>
      </trkpt>
      <trkpt lat="43.652245961129665" lon="4.008676959201694">
        <ele>9.75</ele>
        <time>2025-05-16T13:13:38Z</time>
      </trkpt>
      <trkpt lat="43.652384011074901" lon="4.009064035490155">
        <ele>9.75</ele>
        <time>2025-05-16T13:13:41Z</time>
      </trkpt>
      <trkpt lat="43.652479983866215" lon="4.009116003289819">
        <ele>10.23</ele>
        <time>2025-05-16T13:13:42Z</time>
      </trkpt>
      <trkpt lat="43.652558019384742" lon="4.009103011339903">
        <ele>10.23</ele>
        <time>2025-05-16T13:13:43Z</time>
      </trkpt>
      <trkpt lat="43.652631025761366" lon="4.009046014398336">
        <ele>10.710000000000001</ele>
        <time>2025-05-16T13:13:44Z</time>
      </trkpt>
      <trkpt lat="43.652705037966371" lon="4.008988011628389">
        <ele>11.19</ele>
        <time>2025-05-16T13:13:45Z</time>
      </trkpt>
      <trkpt lat="43.652725992724299" lon="4.008898995816708">
        <ele>11.19</ele>
        <time>2025-05-16T13:13:46Z</time>
      </trkpt>
      <trkpt lat="43.652737978845835" lon="4.008807968348265">
        <ele>11.67</ele>
        <time>2025-05-16T13:13:47Z</time>
      </trkpt>
      <trkpt lat="43.652715012431145" lon="4.008729010820389">
        <ele>12.15</ele>
        <time>2025-05-16T13:13:48Z</time>
      </trkpt>
      <trkpt lat="43.652680981904268" lon="4.008623985573649">
        <ele>12.15</ele>
        <time>2025-05-16T13:13:49Z</time>
      </trkpt>
      <trkpt lat="43.652303963899612" lon="4.007861986756325">
        <ele>14.08</ele>
        <time>2025-05-16T13:13:55Z</time>
      </trkpt>
      <trkpt lat="43.652330031618476" lon="4.007692001760006">
        <ele>14.08</ele>
        <time>2025-05-16T13:13:56Z</time>
      </trkpt>
      <trkpt lat="43.652330031618476" lon="4.00757197290659">
        <ele>14.08</ele>
        <time>2025-05-16T13:13:57Z</time>
      </trkpt>
      <trkpt lat="43.652330031618476" lon="4.007391007617116">
        <ele>14.56</ele>
        <time>2025-05-16T13:13:58Z</time>
      </trkpt>
      <trkpt lat="43.652341011911631" lon="4.007197972387075">
        <ele>15.039999999999999</ele>
        <time>2025-05-16T13:13:59Z</time>
      </trkpt>
      <trkpt lat="43.652366995811462" lon="4.006996974349022">
        <ele>15.039999999999999</ele>
        <time>2025-05-16T13:14:00Z</time>
      </trkpt>
      <trkpt lat="43.652409994974732" lon="4.006796982139349">
        <ele>15.039999999999999</ele>
        <time>2025-05-16T13:14:01Z</time>
      </trkpt>
      <trkpt lat="43.652470009401441" lon="4.006599001586437">
        <ele>14.56</ele>
        <time>2025-05-16T13:14:02Z</time>
      </trkpt>
      <trkpt lat="43.65253203548491" lon="4.006401021033526">
        <ele>14.08</ele>
        <time>2025-05-16T13:14:03Z</time>
      </trkpt>
      <trkpt lat="43.652624990791082" lon="4.006213014945388">
        <ele>13.6</ele>
        <time>2025-05-16T13:14:04Z</time>
      </trkpt>
      <trkpt lat="43.652720041573048" lon="4.006035989150405">
        <ele>13.6</ele>
        <time>2025-05-16T13:14:05Z</time>
      </trkpt>
      <trkpt lat="43.652811991050839" lon="4.005864998325706">
        <ele>12.630000000000001</ele>
        <time>2025-05-16T13:14:06Z</time>
      </trkpt>
      <trkpt lat="43.65289899520576" lon="4.005697024986148">
        <ele>12.15</ele>
        <time>2025-05-16T13:14:07Z</time>
      </trkpt>
      <trkpt lat="43.653542976826429" lon="4.00422197766602">
        <ele>14.08</ele>
        <time>2025-05-16T13:14:16Z</time>
      </trkpt>
      <trkpt lat="43.653783034533262" lon="4.002576023340225">
        <ele>19.84</ele>
        <time>2025-05-16T13:14:24Z</time>
      </trkpt>
      <trkpt lat="43.653847994282842" lon="4.002180984243751">
        <ele>20.32</ele>
        <time>2025-05-16T13:14:26Z</time>
      </trkpt>
      <trkpt lat="43.653896022588015" lon="4.002001024782658">
        <ele>20.809999999999999</ele>
        <time>2025-05-16T13:14:27Z</time>
      </trkpt>
      <trkpt lat="43.653972968459129" lon="4.00185601785779">
        <ele>21.289999999999999</ele>
        <time>2025-05-16T13:14:28Z</time>
      </trkpt>
      <trkpt lat="43.654062990099192" lon="4.00174998678267">
        <ele>21.289999999999999</ele>
        <time>2025-05-16T13:14:29Z</time>
      </trkpt>
      <trkpt lat="43.654144965112209" lon="4.001653008162975">
        <ele>21.77</ele>
        <time>2025-05-16T13:14:30Z</time>
      </trkpt>
      <trkpt lat="43.6542749684304" lon="4.001500960439444">
        <ele>22.25</ele>
        <time>2025-05-16T13:14:32Z</time>
      </trkpt>
      <trkpt lat="43.654326014220715" lon="4.001441029831767">
        <ele>22.73</ele>
        <time>2025-05-16T13:14:33Z</time>
      </trkpt>
      <trkpt lat="43.654411006718874" lon="4.001341033726931">
        <ele>22.73</ele>
        <time>2025-05-16T13:14:34Z</time>
      </trkpt>
      <trkpt lat="43.654459035024047" lon="4.001343967393041">
        <ele>22.73</ele>
        <time>2025-05-16T13:14:35Z</time>
      </trkpt>
      <trkpt lat="43.654556013643742" lon="4.001350002363324">
        <ele>23.210000000000001</ele>
        <time>2025-05-16T13:14:36Z</time>
      </trkpt>
      <trkpt lat="43.654879974201322" lon="4.001401970162988">
        <ele>23.210000000000001</ele>
        <time>2025-05-16T13:14:39Z</time>
      </trkpt>
      <trkpt lat="43.654968990013003" lon="4.001427032053471">
        <ele>23.210000000000001</ele>
        <time>2025-05-16T13:14:40Z</time>
      </trkpt>
      <trkpt lat="43.655031016096473" lon="4.001543037593365">
        <ele>23.210000000000001</ele>
        <time>2025-05-16T13:14:41Z</time>
      </trkpt>
      <trkpt lat="43.655080972239375" lon="4.001636998727918">
        <ele>23.210000000000001</ele>
        <time>2025-05-16T13:14:42Z</time>
      </trkpt>
      <trkpt lat="43.655118020251393" lon="4.001705981791019">
        <ele>23.210000000000001</ele>
        <time>2025-05-16T13:14:43Z</time>
      </trkpt>
      <trkpt lat="43.655145009979606" lon="4.001764990389347">
        <ele>23.210000000000001</ele>
        <time>2025-05-16T13:14:44Z</time>
      </trkpt>
      <trkpt lat="43.655160013586283" lon="4.001822993159294">
        <ele>22.73</ele>
        <time>2025-05-16T13:14:45Z</time>
      </trkpt>
      <trkpt lat="43.655286999419332" lon="4.002297995612025">
        <ele>21.77</ele>
        <time>2025-05-16T13:14:56Z</time>
      </trkpt>
      <trkpt lat="43.655409961938858" lon="4.002713989466429">
        <ele>21.77</ele>
        <time>2025-05-16T13:15:07Z</time>
      </trkpt>
      <trkpt lat="43.655454972758889" lon="4.002877017483115">
        <ele>21.77</ele>
        <time>2025-05-16T13:15:10Z</time>
      </trkpt>
      <trkpt lat="43.6555200163275" lon="4.003116991370916">
        <ele>21.77</ele>
        <time>2025-05-16T13:15:14Z</time>
      </trkpt>
      <trkpt lat="43.655583970248699" lon="4.003346990793943">
        <ele>21.289999999999999</ele>
        <time>2025-05-16T13:15:17Z</time>
      </trkpt>
      <trkpt lat="43.655608026310802" lon="4.003433994948864">
        <ele>20.809999999999999</ele>
        <time>2025-05-16T13:15:18Z</time>
      </trkpt>
      <trkpt lat="43.655633004382253" lon="4.003526028245688">
        <ele>20.809999999999999</ele>
        <time>2025-05-16T13:15:19Z</time>
      </trkpt>
      <trkpt lat="43.655658988282084" lon="4.003615966066718">
        <ele>20.809999999999999</ele>
        <time>2025-05-16T13:15:20Z</time>
      </trkpt>
      <trkpt lat="43.655680026859045" lon="4.003695007413626">
        <ele>20.32</ele>
        <time>2025-05-16T13:15:21Z</time>
      </trkpt>
      <trkpt lat="43.655698969960213" lon="4.003761978819966">
        <ele>20.32</ele>
        <time>2025-05-16T13:15:22Z</time>
      </trkpt>
      <trkpt lat="43.65571497939527" lon="4.003818975761533">
        <ele>20.32</ele>
        <time>2025-05-16T13:15:23Z</time>
      </trkpt>
      <trkpt lat="43.655728977173567" lon="4.003871027380228">
        <ele>20.32</ele>
        <time>2025-05-16T13:15:24Z</time>
      </trkpt>
      <trkpt lat="43.655742974951863" lon="4.003918971866369">
        <ele>19.84</ele>
        <time>2025-05-16T13:15:25Z</time>
      </trkpt>
      <trkpt lat="43.655893011018634" lon="4.004463041201234">
        <ele>18.399999999999999</ele>
        <time>2025-05-16T13:15:36Z</time>
      </trkpt>
      <trkpt lat="43.655908014625311" lon="4.004518026486039">
        <ele>18.399999999999999</ele>
        <time>2025-05-16T13:15:37Z</time>
      </trkpt>
      <trkpt lat="43.655936010181904" lon="4.004621962085366">
        <ele>17.920000000000002</ele>
        <time>2025-05-16T13:15:39Z</time>
      </trkpt>
      <trkpt lat="43.656016979366541" lon="4.004917005077004">
        <ele>18.399999999999999</ele>
        <time>2025-05-16T13:15:43Z</time>
      </trkpt>
      <trkpt lat="43.656039023771882" lon="4.004996968433261">
        <ele>18.879999999999999</ele>
        <time>2025-05-16T13:15:44Z</time>
      </trkpt>
      <trkpt lat="43.656107001006603" lon="4.005241971462965">
        <ele>19.359999999999999</ele>
        <time>2025-05-16T13:15:47Z</time>
      </trkpt>
      <trkpt lat="43.656386034563184" lon="4.00628300383687">
        <ele>19.84</ele>
        <time>2025-05-16T13:15:57Z</time>
      </trkpt>
      <trkpt lat="43.65650899708271" lon="4.006743002682924">
        <ele>19.84</ele>
        <time>2025-05-16T13:16:03Z</time>
      </trkpt>
      <trkpt lat="43.656525006517768" lon="4.00679899379611">
        <ele>19.84</ele>
        <time>2025-05-16T13:16:04Z</time>
      </trkpt>
      <trkpt lat="43.656759029254317" lon="4.007644979283214">
        <ele>20.32</ele>
        <time>2025-05-16T13:16:15Z</time>
      </trkpt>
      <trkpt lat="43.657036973163486" lon="4.008649969473481">
        <ele>17.440000000000001</ele>
        <time>2025-05-16T13:16:24Z</time>
      </trkpt>
      <trkpt lat="43.657359005883336" lon="4.009819999337196">
        <ele>19.359999999999999</ele>
        <time>2025-05-16T13:16:33Z</time>
      </trkpt>
      <trkpt lat="43.657778017222881" lon="4.01126797311008">
        <ele>20.32</ele>
        <time>2025-05-16T13:16:44Z</time>
      </trkpt>
      <trkpt lat="43.658042969182134" lon="4.012286039069295">
        <ele>21.77</ele>
        <time>2025-05-16T13:16:52Z</time>
      </trkpt>
      <trkpt lat="43.65835502743721" lon="4.013409968465567">
        <ele>18.879999999999999</ele>
        <time>2025-05-16T13:17:01Z</time>
      </trkpt>
      <trkpt lat="43.658386962488294" lon="4.013531003147364">
        <ele>17.920000000000002</ele>
        <time>2025-05-16T13:17:02Z</time>
      </trkpt>
      <trkpt lat="43.658664990216494" lon="4.014931032434106">
        <ele>16.960000000000001</ele>
        <time>2025-05-16T13:17:13Z</time>
      </trkpt>
      <trkpt lat="43.658687034621835" lon="4.015062041580677">
        <ele>16.960000000000001</ele>
        <time>2025-05-16T13:17:14Z</time>
      </trkpt>
      <trkpt lat="43.659097999334335" lon="4.016516972333193">
        <ele>16.960000000000001</ele>
        <time>2025-05-16T13:17:25Z</time>
      </trkpt>
      <trkpt lat="43.659657994285226" lon="4.01850700378418">
        <ele>16.960000000000001</ele>
        <time>2025-05-16T13:17:39Z</time>
      </trkpt>
      <trkpt lat="43.659920012578368" lon="4.020170979201794">
        <ele>16</ele>
        <time>2025-05-16T13:17:49Z</time>
      </trkpt>
      <trkpt lat="43.660123022273183" lon="4.021634962409735">
        <ele>16</ele>
        <time>2025-05-16T13:17:58Z</time>
      </trkpt>
      <trkpt lat="43.660356039181352" lon="4.023112021386623">
        <ele>16.48</ele>
        <time>2025-05-16T13:18:05Z</time>
      </trkpt>
      <trkpt lat="43.660757029429078" lon="4.025714015588164">
        <ele>14.56</ele>
        <time>2025-05-16T13:18:15Z</time>
      </trkpt>
      <trkpt lat="43.661046037450433" lon="4.027761965990067">
        <ele>15.039999999999999</ele>
        <time>2025-05-16T13:18:23Z</time>
      </trkpt>
      <trkpt lat="43.661108985543251" lon="4.02800302952528">
        <ele>15.039999999999999</ele>
        <time>2025-05-16T13:18:24Z</time>
      </trkpt>
      <trkpt lat="43.661932004615664" lon="4.030375024303794">
        <ele>15.039999999999999</ele>
        <time>2025-05-16T13:18:34Z</time>
      </trkpt>
      <trkpt lat="43.662711018696427" lon="4.032563036307693">
        <ele>16</ele>
        <time>2025-05-16T13:18:43Z</time>
      </trkpt>
      <trkpt lat="43.663267996162176" lon="4.034070018678904">
        <ele>15.52</ele>
        <time>2025-05-16T13:18:50Z</time>
      </trkpt>
      <trkpt lat="43.664198974147439" lon="4.036565981805325">
        <ele>15.039999999999999</ele>
        <time>2025-05-16T13:19:02Z</time>
      </trkpt>
      <trkpt lat="43.6647570412606" lon="4.038040023297072">
        <ele>13.6</ele>
        <time>2025-05-16T13:19:09Z</time>
      </trkpt>
      <trkpt lat="43.665044959634542" lon="4.038669001311064">
        <ele>13.6</ele>
        <time>2025-05-16T13:19:14Z</time>
      </trkpt>
      <trkpt lat="43.665069015696645" lon="4.038757011294365">
        <ele>14.08</ele>
        <time>2025-05-16T13:19:15Z</time>
      </trkpt>
      <trkpt lat="43.665094999596477" lon="4.038848038762808">
        <ele>14.08</ele>
        <time>2025-05-16T13:19:16Z</time>
      </trkpt>
      <trkpt lat="43.665151996538043" lon="4.039023974910379">
        <ele>14.08</ele>
        <time>2025-05-16T13:19:18Z</time>
      </trkpt>
      <trkpt lat="43.665274037048221" lon="4.039358999580145">
        <ele>13.6</ele>
        <time>2025-05-16T13:19:21Z</time>
      </trkpt>
      <trkpt lat="43.665700005367398" lon="4.040631959214807">
        <ele>14.08</ele>
        <time>2025-05-16T13:19:28Z</time>
      </trkpt>
      <trkpt lat="43.666407018899918" lon="4.042563987895846">
        <ele>15.039999999999999</ele>
        <time>2025-05-16T13:19:36Z</time>
      </trkpt>
      <trkpt lat="43.667604038491845" lon="4.045545011758804">
        <ele>15.039999999999999</ele>
        <time>2025-05-16T13:19:48Z</time>
      </trkpt>
      <trkpt lat="43.669253010302782" lon="4.048396032303572">
        <ele>14.08</ele>
        <time>2025-05-16T13:20:01Z</time>
      </trkpt>
      <trkpt lat="43.671054029837251" lon="4.05086500570178">
        <ele>14.08</ele>
        <time>2025-05-16T13:20:14Z</time>
      </trkpt>
      <trkpt lat="43.672825964167714" lon="4.052939023822546">
        <ele>18.879999999999999</ele>
        <time>2025-05-16T13:20:26Z</time>
      </trkpt>
      <trkpt lat="43.674861006438732" lon="4.055589968338609">
        <ele>17.440000000000001</ele>
        <time>2025-05-16T13:20:41Z</time>
      </trkpt>
      <trkpt lat="43.67548000998795" lon="4.056610967963934">
        <ele>16</ele>
        <time>2025-05-16T13:20:48Z</time>
      </trkpt>
      <trkpt lat="43.675548993051052" lon="4.056714987382293">
        <ele>16</ele>
        <time>2025-05-16T13:20:49Z</time>
      </trkpt>
      <trkpt lat="43.675503982231021" lon="4.057001983746886">
        <ele>16</ele>
        <time>2025-05-16T13:20:50Z</time>
      </trkpt>
      <trkpt lat="43.675529966130853" lon="4.05720398761332">
        <ele>15.52</ele>
        <time>2025-05-16T13:20:52Z</time>
      </trkpt>
      <trkpt lat="43.675589980557561" lon="4.057323010638356">
        <ele>16</ele>
        <time>2025-05-16T13:20:53Z</time>
      </trkpt>
      <trkpt lat="43.675712021067739" lon="4.057473968714476">
        <ele>15.52</ele>
        <time>2025-05-16T13:20:54Z</time>
      </trkpt>
      <trkpt lat="43.675698023289442" lon="4.057638002559543">
        <ele>15.039999999999999</ele>
        <time>2025-05-16T13:20:55Z</time>
      </trkpt>
      <trkpt lat="43.675685031339526" lon="4.057823996990919">
        <ele>14.56</ele>
        <time>2025-05-16T13:20:56Z</time>
      </trkpt>
      <trkpt lat="43.67567103356123" lon="4.058030024170876">
        <ele>14.56</ele>
        <time>2025-05-16T13:20:57Z</time>
      </trkpt>
      <trkpt lat="43.675571037456393" lon="4.059409014880657">
        <ele>14.56</ele>
        <time>2025-05-16T13:21:02Z</time>
      </trkpt>
      <trkpt lat="43.675189996138215" lon="4.063023962080479">
        <ele>13.119999999999999</ele>
        <time>2025-05-16T13:21:13Z</time>
      </trkpt>
      <trkpt lat="43.674758998677135" lon="4.06657001003623">
        <ele>16.48</ele>
        <time>2025-05-16T13:21:25Z</time>
      </trkpt>
      <trkpt lat="43.674478959292173" lon="4.069672990590334">
        <ele>10.710000000000001</ele>
        <time>2025-05-16T13:21:37Z</time>
      </trkpt>
      <trkpt lat="43.674732008948922" lon="4.071960998699069">
        <ele>7.35</ele>
        <time>2025-05-16T13:21:47Z</time>
      </trkpt>
      <trkpt lat="43.675137022510171" lon="4.074660977348685">
        <ele>7.83</ele>
        <time>2025-05-16T13:21:59Z</time>
      </trkpt>
      <trkpt lat="43.675424018874764" lon="4.076783023774624">
        <ele>7.35</ele>
        <time>2025-05-16T13:22:10Z</time>
      </trkpt>
      <trkpt lat="43.675481015816331" lon="4.077283004298806">
        <ele>7.35</ele>
        <time>2025-05-16T13:22:14Z</time>
      </trkpt>
      <trkpt lat="43.675471963360906" lon="4.07737897709012">
        <ele>6.87</ele>
        <time>2025-05-16T13:22:15Z</time>
      </trkpt>
      <trkpt lat="43.675456959754229" lon="4.077480984851718">
        <ele>6.87</ele>
        <time>2025-05-16T13:22:16Z</time>
      </trkpt>
      <trkpt lat="43.675440028309822" lon="4.077601013705134">
        <ele>6.87</ele>
        <time>2025-05-16T13:22:17Z</time>
      </trkpt>
      <trkpt lat="43.67539401166141" lon="4.077692963182926">
        <ele>6.87</ele>
        <time>2025-05-16T13:22:18Z</time>
      </trkpt>
      <trkpt lat="43.675332991406322" lon="4.077819027006626">
        <ele>6.87</ele>
        <time>2025-05-16T13:22:19Z</time>
      </trkpt>
      <trkpt lat="43.675358975306153" lon="4.077922962605953">
        <ele>6.87</ele>
        <time>2025-05-16T13:22:20Z</time>
      </trkpt>
      <trkpt lat="43.675384037196636" lon="4.078022036701441">
        <ele>6.87</ele>
        <time>2025-05-16T13:22:21Z</time>
      </trkpt>
      <trkpt lat="43.675448996946216" lon="4.078114992007613">
        <ele>6.87</ele>
        <time>2025-05-16T13:22:22Z</time>
      </trkpt>
      <trkpt lat="43.675517980009317" lon="4.078178023919463">
        <ele>6.87</ele>
        <time>2025-05-16T13:22:23Z</time>
      </trkpt>
      <trkpt lat="43.675581011921167" lon="4.078266033902764">
        <ele>6.39</ele>
        <time>2025-05-16T13:22:24Z</time>
      </trkpt>
      <trkpt lat="43.675632979720831" lon="4.078362006694078">
        <ele>6.39</ele>
        <time>2025-05-16T13:22:25Z</time>
      </trkpt>
      <trkpt lat="43.675697017461061" lon="4.078524028882384">
        <ele>5.91</ele>
        <time>2025-05-16T13:22:26Z</time>
      </trkpt>
      <trkpt lat="43.675984013825655" lon="4.080407023429871">
        <ele>5.91</ele>
        <time>2025-05-16T13:22:38Z</time>
      </trkpt>
      <trkpt lat="43.676421968266368" lon="4.083074983209372">
        <ele>4.94</ele>
        <time>2025-05-16T13:22:53Z</time>
      </trkpt>
      <trkpt lat="43.676679041236639" lon="4.084784975275397">
        <ele>6.39</ele>
        <time>2025-05-16T13:23:04Z</time>
      </trkpt>
      <trkpt lat="43.676866963505745" lon="4.085509004071355">
        <ele>7.83</ele>
        <time>2025-05-16T13:23:12Z</time>
      </trkpt>
      <trkpt lat="43.676901999861002" lon="4.085615035146475">
        <ele>8.310000000000001</ele>
        <time>2025-05-16T13:23:19Z</time>
      </trkpt>
      <trkpt lat="43.677003001794219" lon="4.085932960733771">
        <ele>8.789999999999999</ele>
        <time>2025-05-16T13:23:24Z</time>
      </trkpt>
      <trkpt lat="43.677025968208909" lon="4.085987024009228">
        <ele>8.789999999999999</ele>
        <time>2025-05-16T13:23:25Z</time>
      </trkpt>
      <trkpt lat="43.67704700678587" lon="4.086034968495369">
        <ele>8.789999999999999</ele>
        <time>2025-05-16T13:23:26Z</time>
      </trkpt>
      <trkpt lat="43.677064022049308" lon="4.086075033992529">
        <ele>8.789999999999999</ele>
        <time>2025-05-16T13:23:27Z</time>
      </trkpt>
      <trkpt lat="43.677077013999224" lon="4.086105963215232">
        <ele>8.789999999999999</ele>
        <time>2025-05-16T13:23:28Z</time>
      </trkpt>
      <trkpt lat="43.677096962928772" lon="4.086150974035263">
        <ele>9.27</ele>
        <time>2025-05-16T13:23:39Z</time>
      </trkpt>
      <trkpt lat="43.677124036476016" lon="4.086215011775494">
        <ele>9.27</ele>
        <time>2025-05-16T13:23:54Z</time>
      </trkpt>
      <trkpt lat="43.677238030359149" lon="4.086479041725397">
        <ele>9.27</ele>
        <time>2025-05-16T13:24:19Z</time>
      </trkpt>
      <trkpt lat="43.677369961515069" lon="4.086784981191158">
        <ele>9.75</ele>
        <time>2025-05-16T13:24:31Z</time>
      </trkpt>
      <trkpt lat="43.677369961515069" lon="4.086784981191158">
        <ele>9.75</ele>
        <time>2025-05-16T13:25:17Z</time>
      </trkpt>
      <trkpt lat="43.677538018673658" lon="4.08717499114573">
        <ele>10.710000000000001</ele>
        <time>2025-05-16T13:25:23Z</time>
      </trkpt>
      <trkpt lat="43.678060965612531" lon="4.088368993252516">
        <ele>7.35</ele>
        <time>2025-05-16T13:25:35Z</time>
      </trkpt>
      <trkpt lat="43.678519958630204" lon="4.089543968439102">
        <ele>8.789999999999999</ele>
        <time>2025-05-16T13:25:44Z</time>
      </trkpt>
      <trkpt lat="43.678650967776775" lon="4.089948982000351">
        <ele>8.310000000000001</ele>
        <time>2025-05-16T13:25:47Z</time>
      </trkpt>
      <trkpt lat="43.678691033273935" lon="4.090078985318542">
        <ele>8.310000000000001</ele>
        <time>2025-05-16T13:25:48Z</time>
      </trkpt>
      <trkpt lat="43.679061010479927" lon="4.091252032667399">
        <ele>6.87</ele>
        <time>2025-05-16T13:25:58Z</time>
      </trkpt>
      <trkpt lat="43.679122030735016" lon="4.091466022655368">
        <ele>3.98</ele>
        <time>2025-05-16T13:26:08Z</time>
      </trkpt>
      <trkpt lat="43.679256979376078" lon="4.091894002631307">
        <ele>3.02</ele>
        <time>2025-05-16T13:26:15Z</time>
      </trkpt>
      <trkpt lat="43.679540036246181" lon="4.093022961169481">
        <ele>3.5</ele>
        <time>2025-05-16T13:26:24Z</time>
      </trkpt>
      <trkpt lat="43.679609019309282" lon="4.093292020261288">
        <ele>3.5</ele>
        <time>2025-05-16T13:26:26Z</time>
      </trkpt>
      <trkpt lat="43.680015960708261" lon="4.095183983445168">
        <ele>3.5</ele>
        <time>2025-05-16T13:26:39Z</time>
      </trkpt>
      <trkpt lat="43.680317960679531" lon="4.096689959987998">
        <ele>3.02</ele>
        <time>2025-05-16T13:26:48Z</time>
      </trkpt>
      <trkpt lat="43.680504038929939" lon="4.098546970635653">
        <ele>3.5</ele>
        <time>2025-05-16T13:26:57Z</time>
      </trkpt>
      <trkpt lat="43.680343022570014" lon="4.099738039076328">
        <ele>3.5</ele>
        <time>2025-05-16T13:27:04Z</time>
      </trkpt>
      <trkpt lat="43.680304968729615" lon="4.099864019080997">
        <ele>3.5</ele>
        <time>2025-05-16T13:27:05Z</time>
      </trkpt>
      <trkpt lat="43.680247971788049" lon="4.099953034892678">
        <ele>3.98</ele>
        <time>2025-05-16T13:27:06Z</time>
      </trkpt>
      <trkpt lat="43.680179994553328" lon="4.100011037662625">
        <ele>3.98</ele>
        <time>2025-05-16T13:27:07Z</time>
      </trkpt>
      <trkpt lat="43.680130038410425" lon="4.100138023495674">
        <ele>3.98</ele>
        <time>2025-05-16T13:27:08Z</time>
      </trkpt>
      <trkpt lat="43.680118974298239" lon="4.100252017378807">
        <ele>3.98</ele>
        <time>2025-05-16T13:27:09Z</time>
      </trkpt>
      <trkpt lat="43.680173959583044" lon="4.100373974069953">
        <ele>4.46</ele>
        <time>2025-05-16T13:27:10Z</time>
      </trkpt>
      <trkpt lat="43.680202960968018" lon="4.100514035671949">
        <ele>4.46</ele>
        <time>2025-05-16T13:27:11Z</time>
      </trkpt>
      <trkpt lat="43.680202960968018" lon="4.100664993748069">
        <ele>4.46</ele>
        <time>2025-05-16T13:27:12Z</time>
      </trkpt>
      <trkpt lat="43.680202960968018" lon="4.100829027593136">
        <ele>3.98</ele>
        <time>2025-05-16T13:27:13Z</time>
      </trkpt>
      <trkpt lat="43.680201033130288" lon="4.101009992882609">
        <ele>3.98</ele>
        <time>2025-05-16T13:27:14Z</time>
      </trkpt>
      <trkpt lat="43.6799690220505" lon="4.102658964693546">
        <ele>3.5</ele>
        <time>2025-05-16T13:27:22Z</time>
      </trkpt>
      <trkpt lat="43.679639026522636" lon="4.104872960597277">
        <ele>3.02</ele>
        <time>2025-05-16T13:27:31Z</time>
      </trkpt>
      <trkpt lat="43.679295033216476" lon="4.107251996174455">
        <ele>3.98</ele>
        <time>2025-05-16T13:27:41Z</time>
      </trkpt>
      <trkpt lat="43.678941987454891" lon="4.109578980132937">
        <ele>2.06</ele>
        <time>2025-05-16T13:27:51Z</time>
      </trkpt>
      <trkpt lat="43.678534040227532" lon="4.112221039831638">
        <ele>2.54</ele>
        <time>2025-05-16T13:28:02Z</time>
      </trkpt>
      <trkpt lat="43.678505960851908" lon="4.112436035647988">
        <ele>2.54</ele>
        <time>2025-05-16T13:28:03Z</time>
      </trkpt>
      <trkpt lat="43.678158028051257" lon="4.114711973816156">
        <ele>0.62</ele>
        <time>2025-05-16T13:28:14Z</time>
      </trkpt>
      <trkpt lat="43.677943032234907" lon="4.116107979789376">
        <ele>0.14</ele>
        <time>2025-05-16T13:28:23Z</time>
      </trkpt>
      <trkpt lat="43.677919982001185" lon="4.116182997822762">
        <ele>0.14</ele>
        <time>2025-05-16T13:28:24Z</time>
      </trkpt>
      <trkpt lat="43.677890980616212" lon="4.116246029734612">
        <ele>-0.34</ele>
        <time>2025-05-16T13:28:25Z</time>
      </trkpt>
      <trkpt lat="43.677843036130071" lon="4.116305038332939">
        <ele>-0.34</ele>
        <time>2025-05-16T13:28:26Z</time>
      </trkpt>
      <trkpt lat="43.67773599922657" lon="4.116310989484191">
        <ele>-0.34</ele>
        <time>2025-05-16T13:28:27Z</time>
      </trkpt>
      <trkpt lat="43.677684031426907" lon="4.116338985040784">
        <ele>-0.34</ele>
        <time>2025-05-16T13:28:28Z</time>
      </trkpt>
      <trkpt lat="43.677611025050282" lon="4.116378966718912">
        <ele>-0.34</ele>
        <time>2025-05-16T13:28:29Z</time>
      </trkpt>
      <trkpt lat="43.677537012845278" lon="4.116419032216072">
        <ele>-0.34</ele>
        <time>2025-05-16T13:28:30Z</time>
      </trkpt>
      <trkpt lat="43.67747699841857" lon="4.116490026935935">
        <ele>-0.34</ele>
        <time>2025-05-16T13:28:31Z</time>
      </trkpt>
      <trkpt lat="43.677437016740441" lon="4.116578036919236">
        <ele>-0.34</ele>
        <time>2025-05-16T13:28:32Z</time>
      </trkpt>
      <trkpt lat="43.677399968728423" lon="4.116707034409046">
        <ele>-0.34</ele>
        <time>2025-05-16T13:28:33Z</time>
      </trkpt>
      <trkpt lat="43.677426958456635" lon="4.116811975836754">
        <ele>-0.34</ele>
        <time>2025-05-16T13:28:34Z</time>
      </trkpt>
      <trkpt lat="43.677455959841609" lon="4.116927981376648">
        <ele>0.14</ele>
        <time>2025-05-16T13:28:35Z</time>
      </trkpt>
      <trkpt lat="43.67750097066164" lon="4.117045998573303">
        <ele>0.14</ele>
        <time>2025-05-16T13:28:36Z</time>
      </trkpt>
      <trkpt lat="43.677575988695025" lon="4.117130991071463">
        <ele>0.14</ele>
        <time>2025-05-16T13:28:37Z</time>
      </trkpt>
      <trkpt lat="43.677685037255287" lon="4.117398038506508">
        <ele>0.14</ele>
        <time>2025-05-16T13:28:39Z</time>
      </trkpt>
      <trkpt lat="43.677704986184835" lon="4.117546984925866">
        <ele>0.14</ele>
        <time>2025-05-16T13:28:40Z</time>
      </trkpt>
      <trkpt lat="43.677705992013216" lon="4.117713030427694">
        <ele>0.14</ele>
        <time>2025-05-16T13:28:41Z</time>
      </trkpt>
      <trkpt lat="43.67769199423492" lon="4.117883015424013">
        <ele>0.14</ele>
        <time>2025-05-16T13:28:42Z</time>
      </trkpt>
      <trkpt lat="43.677676990628242" lon="4.118054006248713">
        <ele>0.14</ele>
        <time>2025-05-16T13:28:43Z</time>
      </trkpt>
      <trkpt lat="43.677299972623587" lon="4.120260961353779">
        <ele>1.58</ele>
        <time>2025-05-16T13:28:56Z</time>
      </trkpt>
      <trkpt lat="43.677056981250644" lon="4.122057035565376">
        <ele>2.06</ele>
        <time>2025-05-16T13:29:07Z</time>
      </trkpt>
      <trkpt lat="43.67685598321259" lon="4.123306022956967">
        <ele>1.1</ele>
        <time>2025-05-16T13:29:16Z</time>
      </trkpt>
      <trkpt lat="43.676845002919436" lon="4.123363019898534">
        <ele>1.1</ele>
        <time>2025-05-16T13:29:17Z</time>
      </trkpt>
      <trkpt lat="43.676808038726449" lon="4.123552031815052">
        <ele>-0.34</ele>
        <time>2025-05-16T13:29:22Z</time>
      </trkpt>
      <trkpt lat="43.676808038726449" lon="4.123552031815052">
        <ele>-0.82</ele>
        <time>2025-05-16T13:29:23Z</time>
      </trkpt>
      <trkpt lat="43.676808038726449" lon="4.123552031815052">
        <ele>-0.82</ele>
        <time>2025-05-16T13:29:39Z</time>
      </trkpt>
      <trkpt lat="43.676735032349825" lon="4.123924020677805">
        <ele>-0.82</ele>
        <time>2025-05-16T13:29:46Z</time>
      </trkpt>
      <trkpt lat="43.676678035408258" lon="4.12421596236527">
        <ele>-1.79</ele>
        <time>2025-05-16T13:29:50Z</time>
      </trkpt>
      <trkpt lat="43.676667977124453" lon="4.124270025640726">
        <ele>-2.27</ele>
        <time>2025-05-16T13:29:51Z</time>
      </trkpt>
      <trkpt lat="43.676608968526125" lon="4.124572025611997">
        <ele>-4.19</ele>
        <time>2025-05-16T13:30:01Z</time>
      </trkpt>
      <trkpt lat="43.676608968526125" lon="4.124572025611997">
        <ele>-4.19</ele>
        <time>2025-05-16T13:30:33Z</time>
      </trkpt>
      <trkpt lat="43.676550965756178" lon="4.124866984784603">
        <ele>-3.71</ele>
        <time>2025-05-16T13:30:51Z</time>
      </trkpt>
      <trkpt lat="43.67636002600193" lon="4.125767033547163">
        <ele>-4.67</ele>
        <time>2025-05-16T13:31:01Z</time>
      </trkpt>
      <trkpt lat="43.676114017143846" lon="4.127106964588165">
        <ele>-4.19</ele>
        <time>2025-05-16T13:31:14Z</time>
      </trkpt>
      <trkpt lat="43.676097001880407" lon="4.127188017591834">
        <ele>-3.71</ele>
        <time>2025-05-16T13:31:15Z</time>
      </trkpt>
      <trkpt lat="43.676084009930491" lon="4.127251971513033">
        <ele>-3.71</ele>
        <time>2025-05-16T13:31:16Z</time>
      </trkpt>
      <trkpt lat="43.676074035465717" lon="4.127296982333064">
        <ele>-3.71</ele>
        <time>2025-05-16T13:31:17Z</time>
      </trkpt>
      <trkpt lat="43.676066994667053" lon="4.127333024516702">
        <ele>-3.23</ele>
        <time>2025-05-16T13:31:18Z</time>
      </trkpt>
      <trkpt lat="43.676060037687421" lon="4.127368982881308">
        <ele>-2.75</ele>
        <time>2025-05-16T13:31:19Z</time>
      </trkpt>
      <trkpt lat="43.676054002717137" lon="4.127397984266281">
        <ele>-2.75</ele>
        <time>2025-05-16T13:31:20Z</time>
      </trkpt>
      <trkpt lat="43.676048973575234" lon="4.127421034500003">
        <ele>-2.75</ele>
        <time>2025-05-16T13:31:21Z</time>
      </trkpt>
      <trkpt lat="43.676045034080744" lon="4.127440983429551">
        <ele>-2.27</ele>
        <time>2025-05-16T13:31:22Z</time>
      </trkpt>
      <trkpt lat="43.676040004938841" lon="4.127464033663273">
        <ele>-2.27</ele>
        <time>2025-05-16T13:31:23Z</time>
      </trkpt>
      <trkpt lat="43.676034975796938" lon="4.127487000077963">
        <ele>-1.79</ele>
        <time>2025-05-16T13:31:24Z</time>
      </trkpt>
      <trkpt lat="43.676031036302447" lon="4.127506026998162">
        <ele>-2.27</ele>
        <time>2025-05-16T13:31:25Z</time>
      </trkpt>
      <trkpt lat="43.676028018817306" lon="4.127523964270949">
        <ele>-2.27</ele>
        <time>2025-05-16T13:31:26Z</time>
      </trkpt>
      <trkpt lat="43.675998011603951" lon="4.127671988680959">
        <ele>-2.27</ele>
        <time>2025-05-16T13:31:37Z</time>
      </trkpt>
      <trkpt lat="43.675792990252376" lon="4.128689970821142">
        <ele>-1.79</ele>
        <time>2025-05-16T13:31:47Z</time>
      </trkpt>
      <trkpt lat="43.67554203607142" lon="4.130053035914898">
        <ele>-0.82</ele>
        <time>2025-05-16T13:31:58Z</time>
      </trkpt>
      <trkpt lat="43.675512028858066" lon="4.13029502145946">
        <ele>-1.3</ele>
        <time>2025-05-16T13:32:01Z</time>
      </trkpt>
      <trkpt lat="43.675503982231021" lon="4.130366016179323">
        <ele>-1.3</ele>
        <time>2025-05-16T13:32:02Z</time>
      </trkpt>
      <trkpt lat="43.675511023029685" lon="4.130433993414044">
        <ele>-1.3</ele>
        <time>2025-05-16T13:32:03Z</time>
      </trkpt>
      <trkpt lat="43.675518985837698" lon="4.130515968427062">
        <ele>-1.3</ele>
        <time>2025-05-16T13:32:04Z</time>
      </trkpt>
      <trkpt lat="43.675527032464743" lon="4.130605990067124">
        <ele>-1.3</ele>
        <time>2025-05-16T13:32:05Z</time>
      </trkpt>
      <trkpt lat="43.675531977787614" lon="4.13070498034358">
        <ele>-1.3</ele>
        <time>2025-05-16T13:32:06Z</time>
      </trkpt>
      <trkpt lat="43.675548993051052" lon="4.131040005013347">
        <ele>-1.79</ele>
        <time>2025-05-16T13:32:10Z</time>
      </trkpt>
      <trkpt lat="43.675553016364574" lon="4.131089961156249">
        <ele>-1.79</ele>
        <time>2025-05-16T13:32:11Z</time>
      </trkpt>
      <trkpt lat="43.675556033849716" lon="4.131132960319519">
        <ele>-1.79</ele>
        <time>2025-05-16T13:32:12Z</time>
      </trkpt>
      <trkpt lat="43.675557961687446" lon="4.131163973361254">
        <ele>-1.79</ele>
        <time>2025-05-16T13:32:13Z</time>
      </trkpt>
      <trkpt lat="43.675559973344207" lon="4.131194986402988">
        <ele>-2.27</ele>
        <time>2025-05-16T13:32:14Z</time>
      </trkpt>
      <trkpt lat="43.675579000264406" lon="4.131453987210989">
        <ele>-1.79</ele>
        <time>2025-05-16T13:32:25Z</time>
      </trkpt>
      <trkpt lat="43.675610013306141" lon="4.131662026047707">
        <ele>-0.34</ele>
        <time>2025-05-16T13:32:31Z</time>
      </trkpt>
      <trkpt lat="43.67562803439796" lon="4.13171298801899">
        <ele>-0.34</ele>
        <time>2025-05-16T13:32:32Z</time>
      </trkpt>
      <trkpt lat="43.675645971670747" lon="4.131831005215645">
        <ele>0.14</ele>
        <time>2025-05-16T13:32:33Z</time>
      </trkpt>
      <trkpt lat="43.675581011921167" lon="4.131950028240681">
        <ele>0.14</ele>
        <time>2025-05-16T13:32:34Z</time>
      </trkpt>
      <trkpt lat="43.675546981394291" lon="4.131975006312132">
        <ele>0.62</ele>
        <time>2025-05-16T13:32:35Z</time>
      </trkpt>
      <trkpt lat="43.67543701082468" lon="4.131997972726822">
        <ele>0.62</ele>
        <time>2025-05-16T13:32:36Z</time>
      </trkpt>
      <trkpt lat="43.675360986962914" lon="4.13201398216188">
        <ele>0.62</ele>
        <time>2025-05-16T13:32:37Z</time>
      </trkpt>
      <trkpt lat="43.674781965091825" lon="4.132114984095097">
        <ele>-0.34</ele>
        <time>2025-05-16T13:32:44Z</time>
      </trkpt>
      <trkpt lat="43.673797007650137" lon="4.132104003801942">
        <ele>2.54</ele>
        <time>2025-05-16T13:32:55Z</time>
      </trkpt>
      <trkpt lat="43.673400962725282" lon="4.132233001291752">
        <ele>3.5</ele>
        <time>2025-05-16T13:33:00Z</time>
      </trkpt>
      <trkpt lat="43.673032997176051" lon="4.132317993789911">
        <ele>4.94</ele>
        <time>2025-05-16T13:33:05Z</time>
      </trkpt>
      <trkpt lat="43.672952027991414" lon="4.132343977689743">
        <ele>4.94</ele>
        <time>2025-05-16T13:33:06Z</time>
      </trkpt>
      <trkpt lat="43.672871980816126" lon="4.132369039580226">
        <ele>5.42</ele>
        <time>2025-05-16T13:33:07Z</time>
      </trkpt>
      <trkpt lat="43.672345010563731" lon="4.132535001263022">
        <ele>6.87</ele>
        <time>2025-05-16T13:33:13Z</time>
      </trkpt>
      <trkpt lat="43.672341993078589" lon="4.132590992376208">
        <ele>7.35</ele>
        <time>2025-05-16T13:33:14Z</time>
      </trkpt>
      <trkpt lat="43.672325983643532" lon="4.132710015401244">
        <ele>7.83</ele>
        <time>2025-05-16T13:33:15Z</time>
      </trkpt>
      <trkpt lat="43.672308968380094" lon="4.132839012891054">
        <ele>8.310000000000001</ele>
        <time>2025-05-16T13:33:16Z</time>
      </trkpt>
      <trkpt lat="43.672290025278926" lon="4.132970022037625">
        <ele>8.789999999999999</ele>
        <time>2025-05-16T13:33:17Z</time>
      </trkpt>
      <trkpt lat="43.672270998358727" lon="4.133100025355816">
        <ele>9.27</ele>
        <time>2025-05-16T13:33:18Z</time>
      </trkpt>
      <trkpt lat="43.672177037224174" lon="4.134223032742739">
        <ele>8.310000000000001</ele>
        <time>2025-05-16T13:33:28Z</time>
      </trkpt>
      <trkpt lat="43.672173013910651" lon="4.134308025240898">
        <ele>8.789999999999999</ele>
        <time>2025-05-16T13:33:35Z</time>
      </trkpt>
      <trkpt lat="43.672160021960735" lon="4.134615976363421">
        <ele>8.310000000000001</ele>
        <time>2025-05-16T13:33:51Z</time>
      </trkpt>
      <trkpt lat="43.672259012237191" lon="4.135571010410786">
        <ele>5.42</ele>
        <time>2025-05-16T13:33:59Z</time>
      </trkpt>
      <trkpt lat="43.672253983095288" lon="4.135659020394087">
        <ele>5.42</ele>
        <time>2025-05-16T13:34:00Z</time>
      </trkpt>
      <trkpt lat="43.672249037772417" lon="4.135734038427472">
        <ele>4.94</ele>
        <time>2025-05-16T13:34:01Z</time>
      </trkpt>
      <trkpt lat="43.672246020287275" lon="4.135786006227136">
        <ele>3.5</ele>
        <time>2025-05-16T13:34:07Z</time>
      </trkpt>
      <trkpt lat="43.672246020287275" lon="4.135786006227136">
        <ele>3.02</ele>
        <time>2025-05-16T13:34:15Z</time>
      </trkpt>
      <trkpt lat="43.672237973660231" lon="4.135878039523959">
        <ele>2.54</ele>
        <time>2025-05-16T13:34:16Z</time>
      </trkpt>
      <trkpt lat="43.672235962003469" lon="4.135900000110269">
        <ele>2.54</ele>
        <time>2025-05-16T13:34:17Z</time>
      </trkpt>
      <trkpt lat="43.672232022508979" lon="4.135932018980384">
        <ele>2.06</ele>
        <time>2025-05-16T13:34:18Z</time>
      </trkpt>
      <trkpt lat="43.672226993367076" lon="4.135980969294906">
        <ele>2.06</ele>
        <time>2025-05-16T13:34:19Z</time>
      </trkpt>
      <trkpt lat="43.672210983932018" lon="4.136385982856154">
        <ele>1.58</ele>
        <time>2025-05-16T13:34:25Z</time>
      </trkpt>
      <trkpt lat="43.672190029174089" lon="4.136606007814407">
        <ele>1.1</ele>
        <time>2025-05-16T13:34:28Z</time>
      </trkpt>
      <trkpt lat="43.672177959233522" lon="4.136716984212399">
        <ele>0.62</ele>
        <time>2025-05-16T13:34:29Z</time>
      </trkpt>
      <trkpt lat="43.672243002802134" lon="4.136700974777341">
        <ele>1.1</ele>
        <time>2025-05-16T13:34:30Z</time>
      </trkpt>
      <trkpt lat="43.672280972823501" lon="4.136692006140947">
        <ele>0.62</ele>
        <time>2025-05-16T13:34:31Z</time>
      </trkpt>
      <trkpt lat="43.672329001128674" lon="4.136680020019412">
        <ele>0.62</ele>
        <time>2025-05-16T13:34:32Z</time>
      </trkpt>
      <trkpt lat="43.672388009727001" lon="4.136678008362651">
        <ele>0.62</ele>
        <time>2025-05-16T13:34:33Z</time>
      </trkpt>
      <trkpt lat="43.672517007216811" lon="4.136687982827425">
        <ele>0.14</ele>
        <time>2025-05-16T13:34:35Z</time>
      </trkpt>
      <trkpt lat="43.672607028856874" lon="4.13669602945447">
        <ele>-0.34</ele>
        <time>2025-05-16T13:34:36Z</time>
      </trkpt>
      <trkpt lat="43.672830993309617" lon="4.136898033320904">
        <ele>-1.79</ele>
        <time>2025-05-16T13:34:40Z</time>
      </trkpt>
      <trkpt lat="43.672890001907945" lon="4.136965004727244">
        <ele>-2.27</ele>
        <time>2025-05-16T13:34:41Z</time>
      </trkpt>
      <trkpt lat="43.673535995185375" lon="4.137528017163277">
        <ele>-4.19</ele>
        <time>2025-05-16T13:34:51Z</time>
      </trkpt>
      <trkpt lat="43.673601960763335" lon="4.137563975527883">
        <ele>-3.71</ele>
        <time>2025-05-16T13:34:52Z</time>
      </trkpt>
      <trkpt lat="43.673730958253145" lon="4.137636981904507">
        <ele>-3.71</ele>
        <time>2025-05-16T13:34:54Z</time>
      </trkpt>
      <trkpt lat="43.673800025135279" lon="4.137679981067777">
        <ele>-3.23</ele>
        <time>2025-05-16T13:34:55Z</time>
      </trkpt>
      <trkpt lat="43.673873031511903" lon="4.137725997716188">
        <ele>-3.23</ele>
        <time>2025-05-16T13:34:56Z</time>
      </trkpt>
      <trkpt lat="43.67393396794796" lon="4.137756004929543">
        <ele>-2.75</ele>
        <time>2025-05-16T13:34:57Z</time>
      </trkpt>
      <trkpt lat="43.674004962667823" lon="4.137791963294148">
        <ele>-2.75</ele>
        <time>2025-05-16T13:34:58Z</time>
      </trkpt>
      <trkpt lat="43.674350967630744" lon="4.137926995754242">
        <ele>-1.79</ele>
        <time>2025-05-16T13:35:03Z</time>
      </trkpt>
      <trkpt lat="43.674544002860785" lon="4.137992039322853">
        <ele>-1.79</ele>
        <time>2025-05-16T13:35:06Z</time>
      </trkpt>
      <trkpt lat="43.674680963158607" lon="4.138024980202317">
        <ele>-1.79</ele>
        <time>2025-05-16T13:35:08Z</time>
      </trkpt>
      <trkpt lat="43.675111038610339" lon="4.138068985193968">
        <ele>-1.79</ele>
        <time>2025-05-16T13:35:14Z</time>
      </trkpt>
      <trkpt lat="43.675182033330202" lon="4.138068985193968">
        <ele>-1.79</ele>
        <time>2025-05-16T13:35:15Z</time>
      </trkpt>
      <trkpt lat="43.675250010564923" lon="4.138074014335871">
        <ele>-1.3</ele>
        <time>2025-05-16T13:35:16Z</time>
      </trkpt>
      <trkpt lat="43.675321005284786" lon="4.138088012114167">
        <ele>-1.3</ele>
        <time>2025-05-16T13:35:17Z</time>
      </trkpt>
      <trkpt lat="43.675386970862746" lon="4.138075020164251">
        <ele>-1.3</ele>
        <time>2025-05-16T13:35:18Z</time>
      </trkpt>
      <trkpt lat="43.675440028309822" lon="4.138059010729194">
        <ele>-0.82</ele>
        <time>2025-05-16T13:35:19Z</time>
      </trkpt>
      <trkpt lat="43.675473975017667" lon="4.13804903626442">
        <ele>-0.82</ele>
        <time>2025-05-16T13:35:20Z</time>
      </trkpt>
      <trkpt lat="43.675494007766247" lon="4.138043001294136">
        <ele>-0.34</ele>
        <time>2025-05-16T13:35:21Z</time>
      </trkpt>
      <trkpt lat="43.675494007766247" lon="4.138043001294136">
        <ele>-0.34</ele>
        <time>2025-05-16T13:35:35Z</time>
      </trkpt>
      <trkpt lat="43.675701962783933" lon="4.138108966872096">
        <ele>3.5</ele>
        <time>2025-05-16T13:35:57Z</time>
      </trkpt>
      <trkpt lat="43.675704980269074" lon="4.138176022097468">
        <ele>3.5</ele>
        <time>2025-05-16T13:35:58Z</time>
      </trkpt>
      <trkpt lat="43.675707997754216" lon="4.138256991282105">
        <ele>3.5</ele>
        <time>2025-05-16T13:35:59Z</time>
      </trkpt>
      <trkpt lat="43.675718978047371" lon="4.138520015403628">
        <ele>1.1</ele>
        <time>2025-05-16T13:36:06Z</time>
      </trkpt>
      <trkpt lat="43.675718978047371" lon="4.138520015403628">
        <ele>1.1</ele>
        <time>2025-05-16T13:36:30Z</time>
      </trkpt>
      <trkpt lat="43.675761977210641" lon="4.138606013730168">
        <ele>-0.34</ele>
        <time>2025-05-16T13:36:56Z</time>
      </trkpt>
      <trkpt lat="43.675804976373911" lon="4.138691006228328">
        <ele>-0.82</ele>
        <time>2025-05-16T13:36:57Z</time>
      </trkpt>
      <trkpt lat="43.676372012123466" lon="4.139500027522445">
        <ele>-1.3</ele>
        <time>2025-05-16T13:37:07Z</time>
      </trkpt>
      <trkpt lat="43.677089000120759" lon="4.140498982742429">
        <ele>-1.79</ele>
        <time>2025-05-16T13:37:18Z</time>
      </trkpt>
      <trkpt lat="43.677355963736773" lon="4.140918999910355">
        <ele>-1.79</ele>
        <time>2025-05-16T13:37:22Z</time>
      </trkpt>
      <trkpt lat="43.678064988926053" lon="4.141975035890937">
        <ele>3.98</ele>
        <time>2025-05-16T13:37:31Z</time>
      </trkpt>
      <trkpt lat="43.678646022453904" lon="4.142832001671195">
        <ele>9.27</ele>
        <time>2025-05-16T13:37:41Z</time>
      </trkpt>
      <trkpt lat="43.679583035409451" lon="4.144237982109189">
        <ele>8.310000000000001</ele>
        <time>2025-05-16T13:37:53Z</time>
      </trkpt>
      <trkpt lat="43.680580984801054" lon="4.145702971145511">
        <ele>7.35</ele>
        <time>2025-05-16T13:38:05Z</time>
      </trkpt>
      <trkpt lat="43.680841997265816" lon="4.146069008857012">
        <ele>6.87</ele>
        <time>2025-05-16T13:38:11Z</time>
      </trkpt>
      <trkpt lat="43.68087200447917" lon="4.146112008020282">
        <ele>6.87</ele>
        <time>2025-05-16T13:38:13Z</time>
      </trkpt>
      <trkpt lat="43.680882984772325" lon="4.146127011626959">
        <ele>7.35</ele>
        <time>2025-05-16T13:38:14Z</time>
      </trkpt>
      <trkpt lat="43.68089597672224" lon="4.146146038547158">
        <ele>7.35</ele>
        <time>2025-05-16T13:38:15Z</time>
      </trkpt>
      <trkpt lat="43.680912991985679" lon="4.14617202244699">
        <ele>7.35</ele>
        <time>2025-05-16T13:38:16Z</time>
      </trkpt>
      <trkpt lat="43.680939981713891" lon="4.146212004125118">
        <ele>6.87</ele>
        <time>2025-05-16T13:38:17Z</time>
      </trkpt>
      <trkpt lat="43.680974012240767" lon="4.146261960268021">
        <ele>6.87</ele>
        <time>2025-05-16T13:38:18Z</time>
      </trkpt>
      <trkpt lat="43.681011982262135" lon="4.146320968866348">
        <ele>6.87</ele>
        <time>2025-05-16T13:38:19Z</time>
      </trkpt>
      <trkpt lat="43.680953979492188" lon="4.146523978561163">
        <ele>6.39</ele>
        <time>2025-05-16T13:38:20Z</time>
      </trkpt>
      <trkpt lat="43.680968983098865" lon="4.146573012694717">
        <ele>6.39</ele>
        <time>2025-05-16T13:38:21Z</time>
      </trkpt>
      <trkpt lat="43.680994966998696" lon="4.146665968000889">
        <ele>5.91</ele>
        <time>2025-05-16T13:38:22Z</time>
      </trkpt>
      <trkpt lat="43.681079959496856" lon="4.146733023226261">
        <ele>5.42</ele>
        <time>2025-05-16T13:38:23Z</time>
      </trkpt>
      <trkpt lat="43.681148020550609" lon="4.146780967712402">
        <ele>5.42</ele>
        <time>2025-05-16T13:38:24Z</time>
      </trkpt>
      <trkpt lat="43.681148020550609" lon="4.146780967712402">
        <ele>5.91</ele>
        <time>2025-05-16T13:38:25Z</time>
      </trkpt>
      <trkpt lat="43.681349018588662" lon="4.146836958825588">
        <ele>5.91</ele>
        <time>2025-05-16T13:38:26Z</time>
      </trkpt>
      <trkpt lat="43.681415989995003" lon="4.146947013214231">
        <ele>5.91</ele>
        <time>2025-05-16T13:38:27Z</time>
      </trkpt>
      <trkpt lat="43.682246971875429" lon="4.148197006434202">
        <ele>7.35</ele>
        <time>2025-05-16T13:38:37Z</time>
      </trkpt>
      <trkpt lat="43.683077031746507" lon="4.149757968261838">
        <ele>6.39</ele>
        <time>2025-05-16T13:38:49Z</time>
      </trkpt>
      <trkpt lat="43.68310896679759" lon="4.149860981851816">
        <ele>6.39</ele>
        <time>2025-05-16T13:38:50Z</time>
      </trkpt>
      <trkpt lat="43.683134028688073" lon="4.149942034855485">
        <ele>5.91</ele>
        <time>2025-05-16T13:38:51Z</time>
      </trkpt>
      <trkpt lat="43.68314903229475" lon="4.149991990998387">
        <ele>5.91</ele>
        <time>2025-05-16T13:38:52Z</time>
      </trkpt>
      <trkpt lat="43.683165041729808" lon="4.150043036788702">
        <ele>5.42</ele>
        <time>2025-05-16T13:39:01Z</time>
      </trkpt>
      <trkpt lat="43.683165041729808" lon="4.150087963789702">
        <ele>5.91</ele>
        <time>2025-05-16T13:39:02Z</time>
      </trkpt>
      <trkpt lat="43.683165041729808" lon="4.150171028450131">
        <ele>5.42</ele>
        <time>2025-05-16T13:39:03Z</time>
      </trkpt>
      <trkpt lat="43.683131011202931" lon="4.150214027613401">
        <ele>5.91</ele>
        <time>2025-05-16T13:39:04Z</time>
      </trkpt>
      <trkpt lat="43.683013999834657" lon="4.15036397986114">
        <ele>5.91</ele>
        <time>2025-05-16T13:39:06Z</time>
      </trkpt>
      <trkpt lat="43.682992961257696" lon="4.150461964309216">
        <ele>5.91</ele>
        <time>2025-05-16T13:39:07Z</time>
      </trkpt>
      <trkpt lat="43.682974018156528" lon="4.150588028132916">
        <ele>6.39</ele>
        <time>2025-05-16T13:39:08Z</time>
      </trkpt>
      <trkpt lat="43.682980975136161" lon="4.150692969560623">
        <ele>6.39</ele>
        <time>2025-05-16T13:39:09Z</time>
      </trkpt>
      <trkpt lat="43.682992961257696" lon="4.150858009234071">
        <ele>6.39</ele>
        <time>2025-05-16T13:39:10Z</time>
      </trkpt>
      <trkpt lat="43.68302003480494" lon="4.15092196315527">
        <ele>5.91</ele>
        <time>2025-05-16T13:39:11Z</time>
      </trkpt>
      <trkpt lat="43.683092035353184" lon="4.151038974523544">
        <ele>5.91</ele>
        <time>2025-05-16T13:39:12Z</time>
      </trkpt>
      <trkpt lat="43.683165041729808" lon="4.151102006435394">
        <ele>6.39</ele>
        <time>2025-05-16T13:39:13Z</time>
      </trkpt>
      <trkpt lat="43.683259002864361" lon="4.151165960356593">
        <ele>6.39</ele>
        <time>2025-05-16T13:39:14Z</time>
      </trkpt>
      <trkpt lat="43.683348018676043" lon="4.151188004761934">
        <ele>6.87</ele>
        <time>2025-05-16T13:39:15Z</time>
      </trkpt>
      <trkpt lat="43.683460000902414" lon="4.151165960356593">
        <ele>6.87</ele>
        <time>2025-05-16T13:39:16Z</time>
      </trkpt>
      <trkpt lat="43.683544993400574" lon="4.15111499838531">
        <ele>6.87</ele>
        <time>2025-05-16T13:39:17Z</time>
      </trkpt>
      <trkpt lat="43.683614982292056" lon="4.151073005050421">
        <ele>6.87</ele>
        <time>2025-05-16T13:39:18Z</time>
      </trkpt>
      <trkpt lat="43.683722019195557" lon="4.151096977293491">
        <ele>6.87</ele>
        <time>2025-05-16T13:39:19Z</time>
      </trkpt>
      <trkpt lat="43.683826960623264" lon="4.151121033355594">
        <ele>6.39</ele>
        <time>2025-05-16T13:39:20Z</time>
      </trkpt>
      <trkpt lat="43.683927962556481" lon="4.151176018640399">
        <ele>6.39</ele>
        <time>2025-05-16T13:39:21Z</time>
      </trkpt>
      <trkpt lat="43.684023013338447" lon="4.15128699503839">
        <ele>6.39</ele>
        <time>2025-05-16T13:39:22Z</time>
      </trkpt>
      <trkpt lat="43.684124015271664" lon="4.151404006406665">
        <ele>6.87</ele>
        <time>2025-05-16T13:39:23Z</time>
      </trkpt>
      <trkpt lat="43.685221960768104" lon="4.152782997116447">
        <ele>7.83</ele>
        <time>2025-05-16T13:39:33Z</time>
      </trkpt>
      <trkpt lat="43.685603002086282" lon="4.153451034799218">
        <ele>9.75</ele>
        <time>2025-05-16T13:39:38Z</time>
      </trkpt>
      <trkpt lat="43.685825038701296" lon="4.154098033905029">
        <ele>10.23</ele>
        <time>2025-05-16T13:39:43Z</time>
      </trkpt>
      <trkpt lat="43.68581498041749" lon="4.154233988374472">
        <ele>10.23</ele>
        <time>2025-05-16T13:39:44Z</time>
      </trkpt>
      <trkpt lat="43.685808023437858" lon="4.154318980872631">
        <ele>10.710000000000001</ele>
        <time>2025-05-16T13:39:45Z</time>
      </trkpt>
      <trkpt lat="43.685784973204136" lon="4.154415037482977">
        <ele>10.710000000000001</ele>
        <time>2025-05-16T13:39:46Z</time>
      </trkpt>
      <trkpt lat="43.685740968212485" lon="4.154502041637898">
        <ele>10.710000000000001</ele>
        <time>2025-05-16T13:39:47Z</time>
      </trkpt>
      <trkpt lat="43.685709033161402" lon="4.15459600277245">
        <ele>10.710000000000001</ele>
        <time>2025-05-16T13:39:48Z</time>
      </trkpt>
      <trkpt lat="43.685686988756061" lon="4.1547039616853">
        <ele>10.710000000000001</ele>
        <time>2025-05-16T13:39:49Z</time>
      </trkpt>
      <trkpt lat="43.68568598292768" lon="4.15480999276042">
        <ele>11.19</ele>
        <time>2025-05-16T13:39:50Z</time>
      </trkpt>
      <trkpt lat="43.685713978484273" lon="4.154927004128695">
        <ele>11.19</ele>
        <time>2025-05-16T13:39:51Z</time>
      </trkpt>
      <trkpt lat="43.685741974040866" lon="4.155047032982111">
        <ele>10.710000000000001</ele>
        <time>2025-05-16T13:39:52Z</time>
      </trkpt>
      <trkpt lat="43.685781033709645" lon="4.155143005773425">
        <ele>10.710000000000001</ele>
        <time>2025-05-16T13:39:53Z</time>
      </trkpt>
      <trkpt lat="43.685862002894282" lon="4.155204026028514">
        <ele>10.710000000000001</ele>
        <time>2025-05-16T13:39:54Z</time>
      </trkpt>
      <trkpt lat="43.6859439779073" lon="4.155264962464571">
        <ele>10.710000000000001</ele>
        <time>2025-05-16T13:39:55Z</time>
      </trkpt>
      <trkpt lat="43.686018995940685" lon="4.155321037396789">
        <ele>10.23</ele>
        <time>2025-05-16T13:39:56Z</time>
      </trkpt>
      <trkpt lat="43.686107005923986" lon="4.15530301630497">
        <ele>10.23</ele>
        <time>2025-05-16T13:39:57Z</time>
      </trkpt>
      <trkpt lat="43.686199961230159" lon="4.155284995213151">
        <ele>10.23</ele>
        <time>2025-05-16T13:39:58Z</time>
      </trkpt>
      <trkpt lat="43.686232985928655" lon="4.155278038233519">
        <ele>10.23</ele>
        <time>2025-05-16T13:39:59Z</time>
      </trkpt>
      <trkpt lat="43.686384027823806" lon="4.155350960791111">
        <ele>10.23</ele>
        <time>2025-05-16T13:40:00Z</time>
      </trkpt>
      <trkpt lat="43.686481006443501" lon="4.155397983267903">
        <ele>10.23</ele>
        <time>2025-05-16T13:40:01Z</time>
      </trkpt>
      <trkpt lat="43.68658603169024" lon="4.155448023229837">
        <ele>9.75</ele>
        <time>2025-05-16T13:40:02Z</time>
      </trkpt>
      <trkpt lat="43.686698013916612" lon="4.155502002686262">
        <ele>9.75</ele>
        <time>2025-05-16T13:40:03Z</time>
      </trkpt>
      <trkpt lat="43.687086012214422" lon="4.155642986297607">
        <ele>9.27</ele>
        <time>2025-05-16T13:40:06Z</time>
      </trkpt>
      <trkpt lat="43.68723202496767" lon="4.155697971582413">
        <ele>8.789999999999999</ele>
        <time>2025-05-16T13:40:07Z</time>
      </trkpt>
      <trkpt lat="43.687346018850803" lon="4.155818000435829">
        <ele>8.789999999999999</ele>
        <time>2025-05-16T13:40:08Z</time>
      </trkpt>
      <trkpt lat="43.687444003298879" lon="4.155952027067542">
        <ele>8.789999999999999</ele>
        <time>2025-05-16T13:40:09Z</time>
      </trkpt>
      <trkpt lat="43.687539976090193" lon="4.156083036214113">
        <ele>9.27</ele>
        <time>2025-05-16T13:40:10Z</time>
      </trkpt>
      <trkpt lat="43.68856499902904" lon="4.157574009150267">
        <ele>12.630000000000001</ele>
        <time>2025-05-16T13:40:21Z</time>
      </trkpt>
      <trkpt lat="43.689303025603294" lon="4.158690981566906">
        <ele>12.630000000000001</ele>
        <time>2025-05-16T13:40:29Z</time>
      </trkpt>
      <trkpt lat="43.689942983910441" lon="4.159641992300749">
        <ele>15.52</ele>
        <time>2025-05-16T13:40:37Z</time>
      </trkpt>
      <trkpt lat="43.690641028806567" lon="4.160682018846273">
        <ele>17.920000000000002</ele>
        <time>2025-05-16T13:40:45Z</time>
      </trkpt>
      <trkpt lat="43.691299008205533" lon="4.161663958802819">
        <ele>18.399999999999999</ele>
        <time>2025-05-16T13:40:53Z</time>
      </trkpt>
      <trkpt lat="43.692225962877274" lon="4.162969021126628">
        <ele>16.48</ele>
        <time>2025-05-16T13:41:03Z</time>
      </trkpt>
      <trkpt lat="43.692434001713991" lon="4.163287030532956">
        <ele>16</ele>
        <time>2025-05-16T13:41:06Z</time>
      </trkpt>
      <trkpt lat="43.692498039454222" lon="4.163385014981031">
        <ele>16</ele>
        <time>2025-05-16T13:41:07Z</time>
      </trkpt>
      <trkpt lat="43.693035989999771" lon="4.164593014866114">
        <ele>16</ele>
        <time>2025-05-16T13:41:17Z</time>
      </trkpt>
      <trkpt lat="43.693634960800409" lon="4.165998995304108">
        <ele>10.23</ele>
        <time>2025-05-16T13:41:26Z</time>
      </trkpt>
      <trkpt lat="43.694297969341278" lon="4.167451998218894">
        <ele>9.27</ele>
        <time>2025-05-16T13:41:35Z</time>
      </trkpt>
      <trkpt lat="43.694453034549952" lon="4.167832033708692">
        <ele>9.27</ele>
        <time>2025-05-16T13:41:38Z</time>
      </trkpt>
      <trkpt lat="43.69442998431623" lon="4.16808801703155">
        <ele>9.27</ele>
        <time>2025-05-16T13:41:39Z</time>
      </trkpt>
      <trkpt lat="43.69442998431623" lon="4.168208967894316">
        <ele>9.27</ele>
        <time>2025-05-16T13:41:42Z</time>
      </trkpt>
      <trkpt lat="43.694468960165977" lon="4.168262025341392">
        <ele>9.75</ele>
        <time>2025-05-16T13:41:43Z</time>
      </trkpt>
      <trkpt lat="43.694521011784673" lon="4.168323967605829">
        <ele>9.75</ele>
        <time>2025-05-16T13:41:44Z</time>
      </trkpt>
      <trkpt lat="43.69455898180604" lon="4.168366966769099">
        <ele>9.75</ele>
        <time>2025-05-16T13:41:45Z</time>
      </trkpt>
      <trkpt lat="43.69475201703608" lon="4.168495964258909">
        <ele>9.75</ele>
        <time>2025-05-16T13:41:46Z</time>
      </trkpt>
      <trkpt lat="43.69477498345077" lon="4.168525971472263">
        <ele>9.27</ele>
        <time>2025-05-16T13:41:47Z</time>
      </trkpt>
      <trkpt lat="43.69486098177731" lon="4.168651029467583">
        <ele>8.789999999999999</ele>
        <time>2025-05-16T13:41:48Z</time>
      </trkpt>
      <trkpt lat="43.694935999810696" lon="4.168799975886941">
        <ele>8.310000000000001</ele>
        <time>2025-05-16T13:41:49Z</time>
      </trkpt>
      <trkpt lat="43.695648964494467" lon="4.170270999893546">
        <ele>7.35</ele>
        <time>2025-05-16T13:41:57Z</time>
      </trkpt>
      <trkpt lat="43.69679200462997" lon="4.172716001048684">
        <ele>7.35</ele>
        <time>2025-05-16T13:42:09Z</time>
      </trkpt>
      <trkpt lat="43.697734968736768" lon="4.174735033884645">
        <ele>7.35</ele>
        <time>2025-05-16T13:42:20Z</time>
      </trkpt>
      <trkpt lat="43.698370987549424" lon="4.176098015159369">
        <ele>8.310000000000001</ele>
        <time>2025-05-16T13:42:26Z</time>
      </trkpt>
      <trkpt lat="43.698925031349063" lon="4.177282964810729">
        <ele>8.310000000000001</ele>
        <time>2025-05-16T13:42:33Z</time>
      </trkpt>
      <trkpt lat="43.700046027079225" lon="4.179681027308106">
        <ele>7.83</ele>
        <time>2025-05-16T13:42:45Z</time>
      </trkpt>
      <trkpt lat="43.700787993147969" lon="4.181266967207193">
        <ele>7.83</ele>
        <time>2025-05-16T13:42:54Z</time>
      </trkpt>
      <trkpt lat="43.701737998053432" lon="4.183304021134973">
        <ele>7.83</ele>
        <time>2025-05-16T13:43:06Z</time>
      </trkpt>
      <trkpt lat="43.70295999571681" lon="4.185930993407965">
        <ele>7.83</ele>
        <time>2025-05-16T13:43:21Z</time>
      </trkpt>
      <trkpt lat="43.704020977020264" lon="4.188172984868288">
        <ele>10.23</ele>
        <time>2025-05-16T13:43:33Z</time>
      </trkpt>
      <trkpt lat="43.704596981406212" lon="4.189388025552034">
        <ele>8.789999999999999</ele>
        <time>2025-05-16T13:43:40Z</time>
      </trkpt>
      <trkpt lat="43.705231994390488" lon="4.19101201929152">
        <ele>9.27</ele>
        <time>2025-05-16T13:43:48Z</time>
      </trkpt>
      <trkpt lat="43.705475991591811" lon="4.19141803868115">
        <ele>10.23</ele>
        <time>2025-05-16T13:43:53Z</time>
      </trkpt>
      <trkpt lat="43.705512033775449" lon="4.191482998430729">
        <ele>10.23</ele>
        <time>2025-05-16T13:43:54Z</time>
      </trkpt>
      <trkpt lat="43.705538017675281" lon="4.191587017849088">
        <ele>10.23</ele>
        <time>2025-05-16T13:43:55Z</time>
      </trkpt>
      <trkpt lat="43.705522008240223" lon="4.191691959276795">
        <ele>10.23</ele>
        <time>2025-05-16T13:43:56Z</time>
      </trkpt>
      <trkpt lat="43.705505998805165" lon="4.191794972866774">
        <ele>10.23</ele>
        <time>2025-05-16T13:43:57Z</time>
      </trkpt>
      <trkpt lat="43.705522008240223" lon="4.191911984235048">
        <ele>9.75</ele>
        <time>2025-05-16T13:43:58Z</time>
      </trkpt>
      <trkpt lat="43.705545980483294" lon="4.192024972289801">
        <ele>10.23</ele>
        <time>2025-05-16T13:43:59Z</time>
      </trkpt>
      <trkpt lat="43.705593002960086" lon="4.192147012799978">
        <ele>10.23</ele>
        <time>2025-05-16T13:44:00Z</time>
      </trkpt>
      <trkpt lat="43.705665003508329" lon="4.192219013348222">
        <ele>10.23</ele>
        <time>2025-05-16T13:44:01Z</time>
      </trkpt>
      <trkpt lat="43.705741027370095" lon="4.192295037209988">
        <ele>10.23</ele>
        <time>2025-05-16T13:44:02Z</time>
      </trkpt>
      <trkpt lat="43.705832976847887" lon="4.192349016666412">
        <ele>9.75</ele>
        <time>2025-05-16T13:44:03Z</time>
      </trkpt>
      <trkpt lat="43.705928027629852" lon="4.192371983081102">
        <ele>9.75</ele>
        <time>2025-05-16T13:44:04Z</time>
      </trkpt>
      <trkpt lat="43.706022994592786" lon="4.192349016666412">
        <ele>10.23</ele>
        <time>2025-05-16T13:44:05Z</time>
      </trkpt>
      <trkpt lat="43.706103041768074" lon="4.192313980311155">
        <ele>9.75</ele>
        <time>2025-05-16T13:44:06Z</time>
      </trkpt>
      <trkpt lat="43.70620496571064" lon="4.192412970587611">
        <ele>9.75</ele>
        <time>2025-05-16T13:44:07Z</time>
      </trkpt>
      <trkpt lat="43.706302028149366" lon="4.192507015541196">
        <ele>10.23</ele>
        <time>2025-05-16T13:44:08Z</time>
      </trkpt>
      <trkpt lat="43.706414010375738" lon="4.192615980282426">
        <ele>10.23</ele>
        <time>2025-05-16T13:44:09Z</time>
      </trkpt>
      <trkpt lat="43.706534961238503" lon="4.192732991650701">
        <ele>10.23</ele>
        <time>2025-05-16T13:44:10Z</time>
      </trkpt>
      <trkpt lat="43.707543974742293" lon="4.193711997941136">
        <ele>11.19</ele>
        <time>2025-05-16T13:44:17Z</time>
      </trkpt>
      <trkpt lat="43.709600977599621" lon="4.195595998317003">
        <ele>10.710000000000001</ele>
        <time>2025-05-16T13:44:31Z</time>
      </trkpt>
      <trkpt lat="43.711079964414239" lon="4.196981023997068">
        <ele>11.19</ele>
        <time>2025-05-16T13:44:41Z</time>
      </trkpt>
      <trkpt lat="43.712980980053544" lon="4.198753964155912">
        <ele>13.119999999999999</ele>
        <time>2025-05-16T13:44:54Z</time>
      </trkpt>
      <trkpt lat="43.714536996558309" lon="4.200168997049332">
        <ele>11.19</ele>
        <time>2025-05-16T13:45:04Z</time>
      </trkpt>
      <trkpt lat="43.716179011389613" lon="4.201676985248923">
        <ele>12.15</ele>
        <time>2025-05-16T13:45:15Z</time>
      </trkpt>
      <trkpt lat="43.717606030404568" lon="4.203007025644183">
        <ele>11.67</ele>
        <time>2025-05-16T13:45:25Z</time>
      </trkpt>
      <trkpt lat="43.718725014477968" lon="4.204231034964323">
        <ele>11.19</ele>
        <time>2025-05-16T13:45:34Z</time>
      </trkpt>
      <trkpt lat="43.719687005504966" lon="4.205932980403304">
        <ele>13.119999999999999</ele>
        <time>2025-05-16T13:45:43Z</time>
      </trkpt>
      <trkpt lat="43.720458978787065" lon="4.2073630169034">
        <ele>12.630000000000001</ele>
        <time>2025-05-16T13:45:51Z</time>
      </trkpt>
      <trkpt lat="43.721252996474504" lon="4.208797998726368">
        <ele>12.15</ele>
        <time>2025-05-16T13:45:59Z</time>
      </trkpt>
      <trkpt lat="43.722253041341901" lon="4.210641011595726">
        <ele>15.039999999999999</ele>
        <time>2025-05-16T13:46:09Z</time>
      </trkpt>
      <trkpt lat="43.723075976595283" lon="4.212119998410344">
        <ele>17.920000000000002</ele>
        <time>2025-05-16T13:46:17Z</time>
      </trkpt>
      <trkpt lat="43.723965967074037" lon="4.213653970509768">
        <ele>18.879999999999999</ele>
        <time>2025-05-16T13:46:26Z</time>
      </trkpt>
      <trkpt lat="43.725017979741096" lon="4.215639978647232">
        <ele>16.48</ele>
        <time>2025-05-16T13:46:36Z</time>
      </trkpt>
      <trkpt lat="43.726319018751383" lon="4.218000993132591">
        <ele>16</ele>
        <time>2025-05-16T13:46:48Z</time>
      </trkpt>
      <trkpt lat="43.726938022300601" lon="4.219135986641049">
        <ele>15.52</ele>
        <time>2025-05-16T13:46:55Z</time>
      </trkpt>
      <trkpt lat="43.727288972586393" lon="4.219816010445356">
        <ele>15.52</ele>
        <time>2025-05-16T13:47:01Z</time>
      </trkpt>
      <trkpt lat="43.727333983406425" lon="4.219902008771896">
        <ele>15.039999999999999</ele>
        <time>2025-05-16T13:47:02Z</time>
      </trkpt>
      <trkpt lat="43.727376982569695" lon="4.219983983784914">
        <ele>15.039999999999999</ele>
        <time>2025-05-16T13:47:03Z</time>
      </trkpt>
      <trkpt lat="43.727485025301576" lon="4.220191016793251">
        <ele>15.52</ele>
        <time>2025-05-16T13:47:06Z</time>
      </trkpt>
      <trkpt lat="43.727600025013089" lon="4.220486981794238">
        <ele>16</ele>
        <time>2025-05-16T13:47:14Z</time>
      </trkpt>
      <trkpt lat="43.727618968114257" lon="4.220549007877708">
        <ele>16.48</ele>
        <time>2025-05-16T13:47:35Z</time>
      </trkpt>
      <trkpt lat="43.727863971143961" lon="4.221292985603213">
        <ele>16.48</ele>
        <time>2025-05-16T13:47:43Z</time>
      </trkpt>
      <trkpt lat="43.728197989985347" lon="4.22233703546226">
        <ele>16.960000000000001</ele>
        <time>2025-05-16T13:47:51Z</time>
      </trkpt>
      <trkpt lat="43.728416003286839" lon="4.223017981275916">
        <ele>15.52</ele>
        <time>2025-05-16T13:47:58Z</time>
      </trkpt>
      <trkpt lat="43.728693025186658" lon="4.223897997289896">
        <ele>16.48</ele>
        <time>2025-05-16T13:48:05Z</time>
      </trkpt>
      <trkpt lat="43.729455024003983" lon="4.225947959348559">
        <ele>16.960000000000001</ele>
        <time>2025-05-16T13:48:16Z</time>
      </trkpt>
      <trkpt lat="43.730544000864029" lon="4.22781796194613">
        <ele>17.440000000000001</ele>
        <time>2025-05-16T13:48:26Z</time>
      </trkpt>
      <trkpt lat="43.730689007788897" lon="4.228062964975834">
        <ele>17.440000000000001</ele>
        <time>2025-05-16T13:48:27Z</time>
      </trkpt>
      <trkpt lat="43.731477996334434" lon="4.229402979835868">
        <ele>17.440000000000001</ele>
        <time>2025-05-16T13:48:33Z</time>
      </trkpt>
      <trkpt lat="43.732742993161082" lon="4.231545981019735">
        <ele>19.359999999999999</ele>
        <time>2025-05-16T13:48:44Z</time>
      </trkpt>
      <trkpt lat="43.733969014137983" lon="4.233621004968882">
        <ele>20.32</ele>
        <time>2025-05-16T13:48:55Z</time>
      </trkpt>
      <trkpt lat="43.73469497077167" lon="4.23488499596715">
        <ele>17.920000000000002</ele>
        <time>2025-05-16T13:49:03Z</time>
      </trkpt>
      <trkpt lat="43.734891023486853" lon="4.235301995649934">
        <ele>16.960000000000001</ele>
        <time>2025-05-16T13:49:09Z</time>
      </trkpt>
      <trkpt lat="43.734919019043446" lon="4.235386988148093">
        <ele>16.960000000000001</ele>
        <time>2025-05-16T13:49:10Z</time>
      </trkpt>
      <trkpt lat="43.734894040971994" lon="4.235476003959775">
        <ele>16.960000000000001</ele>
        <time>2025-05-16T13:49:11Z</time>
      </trkpt>
      <trkpt lat="43.734882976859808" lon="4.235713966190815">
        <ele>16.960000000000001</ele>
        <time>2025-05-16T13:49:13Z</time>
      </trkpt>
      <trkpt lat="43.734921030700207" lon="4.23585201613605">
        <ele>17.440000000000001</ele>
        <time>2025-05-16T13:49:14Z</time>
      </trkpt>
      <trkpt lat="43.734989007934928" lon="4.235919993370771">
        <ele>17.440000000000001</ele>
        <time>2025-05-16T13:49:15Z</time>
      </trkpt>
      <trkpt lat="43.735085986554623" lon="4.235952012240887">
        <ele>17.440000000000001</ele>
        <time>2025-05-16T13:49:16Z</time>
      </trkpt>
      <trkpt lat="43.735182965174317" lon="4.235940026119351">
        <ele>17.440000000000001</ele>
        <time>2025-05-16T13:49:17Z</time>
      </trkpt>
      <trkpt lat="43.735282961279154" lon="4.23604597337544">
        <ele>16.960000000000001</ele>
        <time>2025-05-16T13:49:18Z</time>
      </trkpt>
      <trkpt lat="43.735368959605694" lon="4.236158039420843">
        <ele>16.48</ele>
        <time>2025-05-16T13:49:19Z</time>
      </trkpt>
      <trkpt lat="43.73546501621604" lon="4.236284019425511">
        <ele>16.48</ele>
        <time>2025-05-16T13:49:20Z</time>
      </trkpt>
      <trkpt lat="43.736365986987948" lon="4.237655969336629">
        <ele>17.440000000000001</ele>
        <time>2025-05-16T13:49:28Z</time>
      </trkpt>
      <trkpt lat="43.738307990133762" lon="4.240933964028955">
        <ele>16.960000000000001</ele>
        <time>2025-05-16T13:49:44Z</time>
      </trkpt>
      <trkpt lat="43.740220991894603" lon="4.244217993691564">
        <ele>14.08</ele>
        <time>2025-05-16T13:50:00Z</time>
      </trkpt>
      <trkpt lat="43.741811038926244" lon="4.246885031461716">
        <ele>15.039999999999999</ele>
        <time>2025-05-16T13:50:13Z</time>
      </trkpt>
      <trkpt lat="43.743450036272407" lon="4.249239005148411">
        <ele>14.56</ele>
        <time>2025-05-16T13:50:25Z</time>
      </trkpt>
      <trkpt lat="43.745250971987844" lon="4.251551991328597">
        <ele>13.6</ele>
        <time>2025-05-16T13:50:38Z</time>
      </trkpt>
      <trkpt lat="43.746470035985112" lon="4.253103984519839">
        <ele>14.08</ele>
        <time>2025-05-16T13:50:49Z</time>
      </trkpt>
      <trkpt lat="43.747163973748684" lon="4.254636028781533">
        <ele>13.6</ele>
        <time>2025-05-16T13:50:58Z</time>
      </trkpt>
      <trkpt lat="43.747246032580733" lon="4.25510298460722">
        <ele>12.630000000000001</ele>
        <time>2025-05-16T13:51:01Z</time>
      </trkpt>
      <trkpt lat="43.747250977903605" lon="4.255222007632256">
        <ele>12.630000000000001</ele>
        <time>2025-05-16T13:51:02Z</time>
      </trkpt>
      <trkpt lat="43.747255001217127" lon="4.255329966545105">
        <ele>12.15</ele>
        <time>2025-05-16T13:51:03Z</time>
      </trkpt>
      <trkpt lat="43.747130027040839" lon="4.255486037582159">
        <ele>12.15</ele>
        <time>2025-05-16T13:51:04Z</time>
      </trkpt>
      <trkpt lat="43.747108988463879" lon="4.255542028695345">
        <ele>12.15</ele>
        <time>2025-05-16T13:51:05Z</time>
      </trkpt>
      <trkpt lat="43.747064983472228" lon="4.25566297955811">
        <ele>12.630000000000001</ele>
        <time>2025-05-16T13:51:06Z</time>
      </trkpt>
      <trkpt lat="43.747058026492596" lon="4.255813015624881">
        <ele>12.630000000000001</ele>
        <time>2025-05-16T13:51:07Z</time>
      </trkpt>
      <trkpt lat="43.747076969593763" lon="4.255934972316027">
        <ele>12.630000000000001</ele>
        <time>2025-05-16T13:51:08Z</time>
      </trkpt>
      <trkpt lat="43.74711200594902" lon="4.256045026704669">
        <ele>12.630000000000001</ele>
        <time>2025-05-16T13:51:09Z</time>
      </trkpt>
      <trkpt lat="43.747162967920303" lon="4.256136976182461">
        <ele>12.15</ele>
        <time>2025-05-16T13:51:10Z</time>
      </trkpt>
      <trkpt lat="43.747173026204109" lon="4.256296986714006">
        <ele>12.15</ele>
        <time>2025-05-16T13:51:11Z</time>
      </trkpt>
      <trkpt lat="43.747142013162374" lon="4.256446016952395">
        <ele>11.67</ele>
        <time>2025-05-16T13:51:12Z</time>
      </trkpt>
      <trkpt lat="43.747107982635498" lon="4.256611978635192">
        <ele>11.67</ele>
        <time>2025-05-16T13:51:13Z</time>
      </trkpt>
      <trkpt lat="43.747065989300609" lon="4.256815994158387">
        <ele>11.67</ele>
        <time>2025-05-16T13:51:14Z</time>
      </trkpt>
      <trkpt lat="43.746604984626174" lon="4.258659007027745">
        <ele>12.630000000000001</ele>
        <time>2025-05-16T13:51:23Z</time>
      </trkpt>
      <trkpt lat="43.746719984337687" lon="4.260715004056692">
        <ele>12.630000000000001</ele>
        <time>2025-05-16T13:51:31Z</time>
      </trkpt>
      <trkpt lat="43.74726003035903" lon="4.263410959392786">
        <ele>15.52</ele>
        <time>2025-05-16T13:51:41Z</time>
      </trkpt>
      <trkpt lat="43.748300978913903" lon="4.265930978581309">
        <ele>15.52</ele>
        <time>2025-05-16T13:51:51Z</time>
      </trkpt>
      <trkpt lat="43.74966798350215" lon="4.268127959221602">
        <ele>14.08</ele>
        <time>2025-05-16T13:52:02Z</time>
      </trkpt>
      <trkpt lat="43.751806961372495" lon="4.271237980574369">
        <ele>14.08</ele>
        <time>2025-05-16T13:52:18Z</time>
      </trkpt>
      <trkpt lat="43.752698041498661" lon="4.272542959079146">
        <ele>15.52</ele>
        <time>2025-05-16T13:52:25Z</time>
      </trkpt>
      <trkpt lat="43.754748003557324" lon="4.275571005418897">
        <ele>16.48</ele>
        <time>2025-05-16T13:52:41Z</time>
      </trkpt>
      <trkpt lat="43.75647802837193" lon="4.278126982972026">
        <ele>16.48</ele>
        <time>2025-05-16T13:52:55Z</time>
      </trkpt>
      <trkpt lat="43.757554013282061" lon="4.279341017827392">
        <ele>16</ele>
        <time>2025-05-16T13:53:03Z</time>
      </trkpt>
      <trkpt lat="43.758910959586501" lon="4.279969995841384">
        <ele>15.52</ele>
        <time>2025-05-16T13:53:11Z</time>
      </trkpt>
      <trkpt lat="43.760412996634841" lon="4.279919033870101">
        <ele>15.039999999999999</ele>
        <time>2025-05-16T13:53:19Z</time>
      </trkpt>
      <trkpt lat="43.762822039425373" lon="4.279368007555604">
        <ele>16.960000000000001</ele>
        <time>2025-05-16T13:53:32Z</time>
      </trkpt>
      <trkpt lat="43.765011979267001" lon="4.278837013989687">
        <ele>17.440000000000001</ele>
        <time>2025-05-16T13:53:44Z</time>
      </trkpt>
      <trkpt lat="43.766969991847873" lon="4.278390007093549">
        <ele>17.920000000000002</ele>
        <time>2025-05-16T13:53:56Z</time>
      </trkpt>
      <trkpt lat="43.767404006794095" lon="4.278459995985031">
        <ele>18.399999999999999</ele>
        <time>2025-05-16T13:54:00Z</time>
      </trkpt>
      <trkpt lat="43.767467960715294" lon="4.278494026511908">
        <ele>18.399999999999999</ele>
        <time>2025-05-16T13:54:01Z</time>
      </trkpt>
      <trkpt lat="43.767526969313622" lon="4.278525961562991">
        <ele>18.399999999999999</ele>
        <time>2025-05-16T13:54:02Z</time>
      </trkpt>
      <trkpt lat="43.767514983192086" lon="4.278638027608395">
        <ele>18.879999999999999</ele>
        <time>2025-05-16T13:54:03Z</time>
      </trkpt>
      <trkpt lat="43.767550019547343" lon="4.278720002621412">
        <ele>18.879999999999999</ele>
        <time>2025-05-16T13:54:04Z</time>
      </trkpt>
      <trkpt lat="43.767640963196754" lon="4.278850005939603">
        <ele>18.879999999999999</ele>
        <time>2025-05-16T13:54:05Z</time>
      </trkpt>
      <trkpt lat="43.767764009535313" lon="4.278926029801369">
        <ele>18.879999999999999</ele>
        <time>2025-05-16T13:54:06Z</time>
      </trkpt>
      <trkpt lat="43.767870962619781" lon="4.278932986781001">
        <ele>18.399999999999999</ele>
        <time>2025-05-16T13:54:07Z</time>
      </trkpt>
      <trkpt lat="43.767964001744986" lon="4.278917983174324">
        <ele>18.399999999999999</ele>
        <time>2025-05-16T13:54:08Z</time>
      </trkpt>
      <trkpt lat="43.768072966486216" lon="4.278745986521244">
        <ele>18.399999999999999</ele>
        <time>2025-05-16T13:54:09Z</time>
      </trkpt>
      <trkpt lat="43.768144967034459" lon="4.278745986521244">
        <ele>18.399999999999999</ele>
        <time>2025-05-16T13:54:10Z</time>
      </trkpt>
      <trkpt lat="43.768243035301566" lon="4.278745986521244">
        <ele>18.399999999999999</ele>
        <time>2025-05-16T13:54:11Z</time>
      </trkpt>
      <trkpt lat="43.768335990607738" lon="4.278769958764315">
        <ele>17.920000000000002</ele>
        <time>2025-05-16T13:54:12Z</time>
      </trkpt>
      <trkpt lat="43.768439004197717" lon="4.278807006776333">
        <ele>17.920000000000002</ele>
        <time>2025-05-16T13:54:13Z</time>
      </trkpt>
      <trkpt lat="43.768545035272837" lon="4.278843970969319">
        <ele>18.399999999999999</ele>
        <time>2025-05-16T13:54:14Z</time>
      </trkpt>
      <trkpt lat="43.76865902915597" lon="4.278902979567647">
        <ele>17.920000000000002</ele>
        <time>2025-05-16T13:54:15Z</time>
      </trkpt>
      <trkpt lat="43.769231010228395" lon="4.279474960640073">
        <ele>17.920000000000002</ele>
        <time>2025-05-16T13:54:21Z</time>
      </trkpt>
      <trkpt lat="43.769330000504851" lon="4.279580991715193">
        <ele>18.399999999999999</ele>
        <time>2025-05-16T13:54:22Z</time>
      </trkpt>
      <trkpt lat="43.770386036485434" lon="4.280740041285753">
        <ele>19.84</ele>
        <time>2025-05-16T13:54:32Z</time>
      </trkpt>
      <trkpt lat="43.771823029965162" lon="4.282319024205208">
        <ele>24.170000000000002</ele>
        <time>2025-05-16T13:54:45Z</time>
      </trkpt>
      <trkpt lat="43.772274982184172" lon="4.282820010557771">
        <ele>25.609999999999999</ele>
        <time>2025-05-16T13:54:50Z</time>
      </trkpt>
      <trkpt lat="43.772348994389176" lon="4.282893016934395">
        <ele>25.609999999999999</ele>
        <time>2025-05-16T13:54:51Z</time>
      </trkpt>
      <trkpt lat="43.772918041795492" lon="4.283501962199807">
        <ele>26.09</ele>
        <time>2025-05-16T13:55:00Z</time>
      </trkpt>
      <trkpt lat="43.773024994879961" lon="4.28361201658845">
        <ele>26.09</ele>
        <time>2025-05-16T13:55:06Z</time>
      </trkpt>
      <trkpt lat="43.773078974336386" lon="4.28367898799479">
        <ele>26.09</ele>
        <time>2025-05-16T13:55:17Z</time>
      </trkpt>
      <trkpt lat="43.773501003161073" lon="4.284168994054198">
        <ele>25.609999999999999</ele>
        <time>2025-05-16T13:55:25Z</time>
      </trkpt>
      <trkpt lat="43.77422796562314" lon="4.284962005913258">
        <ele>25.609999999999999</ele>
        <time>2025-05-16T13:55:34Z</time>
      </trkpt>
      <trkpt lat="43.774606995284557" lon="4.2853759881109">
        <ele>25.609999999999999</ele>
        <time>2025-05-16T13:55:38Z</time>
      </trkpt>
      <trkpt lat="43.775831004604697" lon="4.286774005740881">
        <ele>27.050000000000001</ele>
        <time>2025-05-16T13:55:50Z</time>
      </trkpt>
      <trkpt lat="43.777258023619652" lon="4.288345025852323">
        <ele>29.460000000000001</ele>
        <time>2025-05-16T13:56:03Z</time>
      </trkpt>
      <trkpt lat="43.778424030169845" lon="4.28992903791368">
        <ele>29.460000000000001</ele>
        <time>2025-05-16T13:56:14Z</time>
      </trkpt>
      <trkpt lat="43.779139006510377" lon="4.291043998673558">
        <ele>31.379999999999999</ele>
        <time>2025-05-16T13:56:21Z</time>
      </trkpt>
      <trkpt lat="43.780274000018835" lon="4.292763965204358">
        <ele>33.780000000000001</ele>
        <time>2025-05-16T13:56:32Z</time>
      </trkpt>
      <trkpt lat="43.781286031007767" lon="4.29435501806438">
        <ele>33.780000000000001</ele>
        <time>2025-05-16T13:56:42Z</time>
      </trkpt>
      <trkpt lat="43.782270988449454" lon="4.295867029577494">
        <ele>32.82</ele>
        <time>2025-05-16T13:56:52Z</time>
      </trkpt>
      <trkpt lat="43.782852021977305" lon="4.296949971467257">
        <ele>29.940000000000001</ele>
        <time>2025-05-16T13:56:59Z</time>
      </trkpt>
      <trkpt lat="43.782914970070124" lon="4.297094978392124">
        <ele>29.940000000000001</ele>
        <time>2025-05-16T13:57:00Z</time>
      </trkpt>
      <trkpt lat="43.783258041366935" lon="4.298257967457175">
        <ele>28.5</ele>
        <time>2025-05-16T13:57:09Z</time>
      </trkpt>
      <trkpt lat="43.783274972811341" lon="4.298355029895902">
        <ele>28.5</ele>
        <time>2025-05-16T13:57:10Z</time>
      </trkpt>
      <trkpt lat="43.783290982246399" lon="4.298441028222442">
        <ele>28.5</ele>
        <time>2025-05-16T13:57:11Z</time>
      </trkpt>
      <trkpt lat="43.783302968367934" lon="4.298511017113924">
        <ele>28.5</ele>
        <time>2025-05-16T13:57:12Z</time>
      </trkpt>
      <trkpt lat="43.783314032480121" lon="4.298572959378362">
        <ele>28.5</ele>
        <time>2025-05-16T13:57:13Z</time>
      </trkpt>
      <trkpt lat="43.783329036086798" lon="4.298658035695553">
        <ele>28.5</ele>
        <time>2025-05-16T13:57:14Z</time>
      </trkpt>
      <trkpt lat="43.783278996124864" lon="4.298790972679853">
        <ele>28.98</ele>
        <time>2025-05-16T13:57:15Z</time>
      </trkpt>
      <trkpt lat="43.783226022496819" lon="4.298840006813407">
        <ele>28.98</ele>
        <time>2025-05-16T13:57:16Z</time>
      </trkpt>
      <trkpt lat="43.783168019726872" lon="4.298892980441451">
        <ele>28.98</ele>
        <time>2025-05-16T13:57:17Z</time>
      </trkpt>
      <trkpt lat="43.783105993643403" lon="4.298950983211398">
        <ele>29.460000000000001</ele>
        <time>2025-05-16T13:57:18Z</time>
      </trkpt>
      <trkpt lat="43.783041033893824" lon="4.299012003466487">
        <ele>29.460000000000001</ele>
        <time>2025-05-16T13:57:19Z</time>
      </trkpt>
      <trkpt lat="43.78296903334558" lon="4.299063971266151">
        <ele>28.98</ele>
        <time>2025-05-16T13:57:20Z</time>
      </trkpt>
      <trkpt lat="43.782717995345592" lon="4.29923496209085">
        <ele>27.530000000000001</ele>
        <time>2025-05-16T13:57:24Z</time>
      </trkpt>
      <trkpt lat="43.782682036980987" lon="4.299260023981333">
        <ele>27.050000000000001</ele>
        <time>2025-05-16T13:57:25Z</time>
      </trkpt>
      <trkpt lat="43.782608024775982" lon="4.299309980124235">
        <ele>26.57</ele>
        <time>2025-05-16T13:57:28Z</time>
      </trkpt>
      <trkpt lat="43.78258396871388" lon="4.299325989559293">
        <ele>26.57</ele>
        <time>2025-05-16T13:57:29Z</time>
      </trkpt>
      <trkpt lat="43.782556978985667" lon="4.299345016479492">
        <ele>26.09</ele>
        <time>2025-05-16T13:57:30Z</time>
      </trkpt>
      <trkpt lat="43.782566031441092" lon="4.299364965409041">
        <ele>25.609999999999999</ele>
        <time>2025-05-16T13:57:31Z</time>
      </trkpt>
      <trkpt lat="43.78258103504777" lon="4.299392960965633">
        <ele>25.129999999999999</ele>
        <time>2025-05-16T13:57:32Z</time>
      </trkpt>
      <trkpt lat="43.782592015340924" lon="4.299416011199355">
        <ele>24.649999999999999</ele>
        <time>2025-05-16T13:57:33Z</time>
      </trkpt>
      <trkpt lat="43.782592015340924" lon="4.299416011199355">
        <ele>24.170000000000002</ele>
        <time>2025-05-16T13:57:42Z</time>
      </trkpt>
      <trkpt lat="43.782592015340924" lon="4.299416011199355">
        <ele>23.690000000000001</ele>
        <time>2025-05-16T13:58:25Z</time>
      </trkpt>
      <trkpt lat="43.782592015340924" lon="4.299416011199355">
        <ele>23.210000000000001</ele>
        <time>2025-05-16T13:59:05Z</time>
      </trkpt>
      <trkpt lat="43.782592015340924" lon="4.299416011199355">
        <ele>23.210000000000001</ele>
        <time>2025-05-16T13:59:55Z</time>
      </trkpt>
      <trkpt lat="43.782539963722229" lon="4.2995569948107">
        <ele>26.09</ele>
        <time>2025-05-16T14:05:19Z</time>
      </trkpt>
      <trkpt lat="43.78258396871388" lon="4.299468984827399">
        <ele>27.050000000000001</ele>
        <time>2025-05-16T14:05:34Z</time>
      </trkpt>
      <trkpt lat="43.782590003684163" lon="4.299322972074151">
        <ele>26.09</ele>
        <time>2025-05-16T14:05:38Z</time>
      </trkpt>
      <trkpt lat="43.782609030604362" lon="4.299308974295855">
        <ele>25.609999999999999</ele>
        <time>2025-05-16T14:05:39Z</time>
      </trkpt>
      <trkpt lat="43.782639959827065" lon="4.299289025366306">
        <ele>25.609999999999999</ele>
        <time>2025-05-16T14:05:40Z</time>
      </trkpt>
      <trkpt lat="43.782683964818716" lon="4.299258012324572">
        <ele>25.609999999999999</ele>
        <time>2025-05-16T14:05:41Z</time>
      </trkpt>
      <trkpt lat="43.782740961760283" lon="4.299219036474824">
        <ele>25.129999999999999</ele>
        <time>2025-05-16T14:05:42Z</time>
      </trkpt>
      <trkpt lat="43.783131977543235" lon="4.298927010968328">
        <ele>25.609999999999999</ele>
        <time>2025-05-16T14:05:47Z</time>
      </trkpt>
      <trkpt lat="43.783174976706505" lon="4.298887029290199">
        <ele>25.609999999999999</ele>
        <time>2025-05-16T14:05:49Z</time>
      </trkpt>
      <trkpt lat="43.783219987526536" lon="4.298846041783691">
        <ele>25.129999999999999</ele>
        <time>2025-05-16T14:05:58Z</time>
      </trkpt>
      <trkpt lat="43.783350996673107" lon="4.298851992934942">
        <ele>25.129999999999999</ele>
        <time>2025-05-16T14:06:04Z</time>
      </trkpt>
      <trkpt lat="43.783350996673107" lon="4.298851992934942">
        <ele>25.609999999999999</ele>
        <time>2025-05-16T14:06:05Z</time>
      </trkpt>
      <trkpt lat="43.783350996673107" lon="4.298851992934942">
        <ele>25.609999999999999</ele>
        <time>2025-05-16T14:06:06Z</time>
      </trkpt>
      <trkpt lat="43.78333498723805" lon="4.298994988203049">
        <ele>25.609999999999999</ele>
        <time>2025-05-16T14:06:07Z</time>
      </trkpt>
      <trkpt lat="43.783325012773275" lon="4.299081992357969">
        <ele>26.09</ele>
        <time>2025-05-16T14:06:08Z</time>
      </trkpt>
      <trkpt lat="43.783296011388302" lon="4.299337975680828">
        <ele>26.09</ele>
        <time>2025-05-16T14:06:09Z</time>
      </trkpt>
      <trkpt lat="43.783278996124864" lon="4.299494968727231">
        <ele>26.09</ele>
        <time>2025-05-16T14:06:10Z</time>
      </trkpt>
      <trkpt lat="43.78305796533823" lon="4.300721995532513">
        <ele>26.09</ele>
        <time>2025-05-16T14:06:16Z</time>
      </trkpt>
      <trkpt lat="43.782468969002366" lon="4.30338098667562">
        <ele>26.57</ele>
        <time>2025-05-16T14:06:26Z</time>
      </trkpt>
      <trkpt lat="43.781877039000392" lon="4.30670902132988">
        <ele>25.609999999999999</ele>
        <time>2025-05-16T14:06:38Z</time>
      </trkpt>
      <trkpt lat="43.781986003741622" lon="4.308630991727114">
        <ele>25.609999999999999</ele>
        <time>2025-05-16T14:06:45Z</time>
      </trkpt>
      <trkpt lat="43.782633002847433" lon="4.310655975714326">
        <ele>25.129999999999999</ele>
        <time>2025-05-16T14:06:53Z</time>
      </trkpt>
      <trkpt lat="43.783831028267741" lon="4.312537964433432">
        <ele>23.690000000000001</ele>
        <time>2025-05-16T14:07:03Z</time>
      </trkpt>
      <trkpt lat="43.786749020218849" lon="4.31601301766932">
        <ele>25.129999999999999</ele>
        <time>2025-05-16T14:07:21Z</time>
      </trkpt>
      <trkpt lat="43.788861008360982" lon="4.318166999146342">
        <ele>26.09</ele>
        <time>2025-05-16T14:07:34Z</time>
      </trkpt>
      <trkpt lat="43.790564965456724" lon="4.319045003503561">
        <ele>27.050000000000001</ele>
        <time>2025-05-16T14:07:44Z</time>
      </trkpt>
      <trkpt lat="43.792561031877995" lon="4.319221023470163">
        <ele>28.02</ele>
        <time>2025-05-16T14:07:53Z</time>
      </trkpt>
      <trkpt lat="43.793953014537692" lon="4.318851968273521">
        <ele>30.899999999999999</ele>
        <time>2025-05-16T14:08:01Z</time>
      </trkpt>
      <trkpt lat="43.796241022646427" lon="4.317777995020151">
        <ele>31.379999999999999</ele>
        <time>2025-05-16T14:08:13Z</time>
      </trkpt>
      <trkpt lat="43.798228036612272" lon="4.317338028922677">
        <ele>32.82</ele>
        <time>2025-05-16T14:08:22Z</time>
      </trkpt>
      <trkpt lat="43.799478029832244" lon="4.317446993663907">
        <ele>34.259999999999998</ele>
        <time>2025-05-16T14:08:30Z</time>
      </trkpt>
      <trkpt lat="43.799576014280319" lon="4.317484963685274">
        <ele>34.259999999999998</ele>
        <time>2025-05-16T14:08:31Z</time>
      </trkpt>
      <trkpt lat="43.799652960151434" lon="4.317513965070248">
        <ele>34.259999999999998</ele>
        <time>2025-05-16T14:08:32Z</time>
      </trkpt>
      <trkpt lat="43.79977198317647" lon="4.317648997530341">
        <ele>34.740000000000002</ele>
        <time>2025-05-16T14:08:34Z</time>
      </trkpt>
      <trkpt lat="43.799850018694997" lon="4.317786963656545">
        <ele>34.740000000000002</ele>
        <time>2025-05-16T14:08:35Z</time>
      </trkpt>
      <trkpt lat="43.79994498565793" lon="4.317834991961718">
        <ele>34.740000000000002</ele>
        <time>2025-05-16T14:08:36Z</time>
      </trkpt>
      <trkpt lat="43.800175990909338" lon="4.317792998626828">
        <ele>35.229999999999997</ele>
        <time>2025-05-16T14:08:37Z</time>
      </trkpt>
      <trkpt lat="43.800341030582786" lon="4.317771038040519">
        <ele>35.229999999999997</ele>
        <time>2025-05-16T14:08:39Z</time>
      </trkpt>
      <trkpt lat="43.800477990880609" lon="4.317833986133337">
        <ele>35.229999999999997</ele>
        <time>2025-05-16T14:08:40Z</time>
      </trkpt>
      <trkpt lat="43.80063196644187" lon="4.3179049808532">
        <ele>35.229999999999997</ele>
        <time>2025-05-16T14:08:41Z</time>
      </trkpt>
      <trkpt lat="43.800796000286937" lon="4.317979998886585">
        <ele>35.229999999999997</ele>
        <time>2025-05-16T14:08:42Z</time>
      </trkpt>
      <trkpt lat="43.801924036815763" lon="4.318863032385707">
        <ele>35.710000000000001</ele>
        <time>2025-05-16T14:08:49Z</time>
      </trkpt>
      <trkpt lat="43.803409980610013" lon="4.320348976179957">
        <ele>34.740000000000002</ele>
        <time>2025-05-16T14:08:59Z</time>
      </trkpt>
      <trkpt lat="43.804896008223295" lon="4.321788987144828">
        <ele>36.670000000000002</ele>
        <time>2025-05-16T14:09:09Z</time>
      </trkpt>
      <trkpt lat="43.805971993133426" lon="4.32301601395011">
        <ele>37.630000000000003</ele>
        <time>2025-05-16T14:09:19Z</time>
      </trkpt>
      <trkpt lat="43.807530021294951" lon="4.325182987377048">
        <ele>39.07</ele>
        <time>2025-05-16T14:09:37Z</time>
      </trkpt>
      <trkpt lat="43.80907597951591" lon="4.327390026301146">
        <ele>38.109999999999999</ele>
        <time>2025-05-16T14:09:55Z</time>
      </trkpt>
      <trkpt lat="43.809937974438071" lon="4.328586962074041">
        <ele>37.630000000000003</ele>
        <time>2025-05-16T14:10:04Z</time>
      </trkpt>
      <trkpt lat="43.810339970514178" lon="4.329136982560158">
        <ele>39.07</ele>
        <time>2025-05-16T14:10:11Z</time>
      </trkpt>
      <trkpt lat="43.810803992673755" lon="4.329789010807872">
        <ele>39.07</ele>
        <time>2025-05-16T14:10:19Z</time>
      </trkpt>
      <trkpt lat="43.811017982661724" lon="4.330082964152098">
        <ele>38.109999999999999</ele>
        <time>2025-05-16T14:10:27Z</time>
      </trkpt>
      <trkpt lat="43.811123007908463" lon="4.330207016319037">
        <ele>38.109999999999999</ele>
        <time>2025-05-16T14:10:53Z</time>
      </trkpt>
      <trkpt lat="43.811614019796252" lon="4.330906989052892">
        <ele>37.630000000000003</ele>
        <time>2025-05-16T14:11:00Z</time>
      </trkpt>
      <trkpt lat="43.812568970024586" lon="4.332218002527952">
        <ele>38.590000000000003</ele>
        <time>2025-05-16T14:11:11Z</time>
      </trkpt>
      <trkpt lat="43.812816990539432" lon="4.332554033026099">
        <ele>39.07</ele>
        <time>2025-05-16T14:11:16Z</time>
      </trkpt>
      <trkpt lat="43.812850015237927" lon="4.332598960027099">
        <ele>38.590000000000003</ele>
        <time>2025-05-16T14:11:17Z</time>
      </trkpt>
      <trkpt lat="43.813246982172132" lon="4.33316096663475">
        <ele>39.07</ele>
        <time>2025-05-16T14:11:30Z</time>
      </trkpt>
      <trkpt lat="43.813367011025548" lon="4.333332041278482">
        <ele>37.630000000000003</ele>
        <time>2025-05-16T14:11:41Z</time>
      </trkpt>
      <trkpt lat="43.813633974641562" lon="4.333700006827712">
        <ele>37.630000000000003</ele>
        <time>2025-05-16T14:11:54Z</time>
      </trkpt>
      <trkpt lat="43.81386598572135" lon="4.334176015108824">
        <ele>38.109999999999999</ele>
        <time>2025-05-16T14:12:05Z</time>
      </trkpt>
      <trkpt lat="43.813885012641549" lon="4.334658980369568">
        <ele>39.549999999999997</ele>
        <time>2025-05-16T14:12:15Z</time>
      </trkpt>
      <trkpt lat="43.813842013478279" lon="4.334750007838011">
        <ele>39.549999999999997</ele>
        <time>2025-05-16T14:12:16Z</time>
      </trkpt>
      <trkpt lat="43.813847964629531" lon="4.334787977859378">
        <ele>40.030000000000001</ele>
        <time>2025-05-16T14:12:18Z</time>
      </trkpt>
      <trkpt lat="43.813852993771434" lon="4.334821002557874">
        <ele>40.030000000000001</ele>
        <time>2025-05-16T14:12:19Z</time>
      </trkpt>
      <trkpt lat="43.813990959897637" lon="4.335124008357525">
        <ele>38.109999999999999</ele>
        <time>2025-05-16T14:12:31Z</time>
      </trkpt>
      <trkpt lat="43.814077964052558" lon="4.335201038047671">
        <ele>37.630000000000003</ele>
        <time>2025-05-16T14:12:34Z</time>
      </trkpt>
      <trkpt lat="43.814122974872589" lon="4.335300028324127">
        <ele>37.630000000000003</ele>
        <time>2025-05-16T14:12:35Z</time>
      </trkpt>
      <trkpt lat="43.814164968207479" lon="4.335389966145158">
        <ele>37.630000000000003</ele>
        <time>2025-05-16T14:12:36Z</time>
      </trkpt>
      <trkpt lat="43.814637959003448" lon="4.336645994335413">
        <ele>39.07</ele>
        <time>2025-05-16T14:12:46Z</time>
      </trkpt>
      <trkpt lat="43.81494197063148" lon="4.338038982823491">
        <ele>40.509999999999998</ele>
        <time>2025-05-16T14:12:55Z</time>
      </trkpt>
      <trkpt lat="43.815083038061857" lon="4.338695034384728">
        <ele>40.990000000000002</ele>
        <time>2025-05-16T14:13:03Z</time>
      </trkpt>
      <trkpt lat="43.815136011689901" lon="4.33896099217236">
        <ele>42.439999999999998</ele>
        <time>2025-05-16T14:13:14Z</time>
      </trkpt>
      <trkpt lat="43.815189991146326" lon="4.339319989085197">
        <ele>42.439999999999998</ele>
        <time>2025-05-16T14:13:27Z</time>
      </trkpt>
      <trkpt lat="43.815228966996074" lon="4.339565997943282">
        <ele>42.439999999999998</ele>
        <time>2025-05-16T14:13:36Z</time>
      </trkpt>
      <trkpt lat="43.815250005573034" lon="4.339705975726247">
        <ele>41.950000000000003</ele>
        <time>2025-05-16T14:13:49Z</time>
      </trkpt>
      <trkpt lat="43.815280012786388" lon="4.339909991249442">
        <ele>42.439999999999998</ele>
        <time>2025-05-16T14:13:59Z</time>
      </trkpt>
      <trkpt lat="43.815328041091561" lon="4.340341994538903">
        <ele>42.920000000000002</ele>
        <time>2025-05-16T14:14:11Z</time>
      </trkpt>
      <trkpt lat="43.815343966707587" lon="4.340500999242067">
        <ele>42.920000000000002</ele>
        <time>2025-05-16T14:14:17Z</time>
      </trkpt>
      <trkpt lat="43.815246988087893" lon="4.340671990066767">
        <ele>42.920000000000002</ele>
        <time>2025-05-16T14:14:20Z</time>
      </trkpt>
      <trkpt lat="43.815221004188061" lon="4.340768968686461">
        <ele>42.920000000000002</ele>
        <time>2025-05-16T14:14:21Z</time>
      </trkpt>
      <trkpt lat="43.815193008631468" lon="4.340873993933201">
        <ele>42.920000000000002</ele>
        <time>2025-05-16T14:14:22Z</time>
      </trkpt>
      <trkpt lat="43.815179010853171" lon="4.34097901917994">
        <ele>42.920000000000002</ele>
        <time>2025-05-16T14:14:24Z</time>
      </trkpt>
      <trkpt lat="43.815228966996074" lon="4.341199966147542">
        <ele>42.439999999999998</ele>
        <time>2025-05-16T14:14:26Z</time>
      </trkpt>
      <trkpt lat="43.815293004736304" lon="4.341286970302463">
        <ele>42.439999999999998</ele>
        <time>2025-05-16T14:14:27Z</time>
      </trkpt>
      <trkpt lat="43.815451003611088" lon="4.341444969177246">
        <ele>41.950000000000003</ele>
        <time>2025-05-16T14:14:28Z</time>
      </trkpt>
      <trkpt lat="43.815542031079531" lon="4.3414749763906">
        <ele>41.950000000000003</ele>
        <time>2025-05-16T14:14:29Z</time>
      </trkpt>
      <trkpt lat="43.815638003870845" lon="4.34153700247407">
        <ele>41.469999999999999</ele>
        <time>2025-05-16T14:14:31Z</time>
      </trkpt>
      <trkpt lat="43.815729031339288" lon="4.341615037992597">
        <ele>40.990000000000002</ele>
        <time>2025-05-16T14:14:32Z</time>
      </trkpt>
      <trkpt lat="43.815787034109235" lon="4.341711010783911">
        <ele>40.990000000000002</ele>
        <time>2025-05-16T14:14:33Z</time>
      </trkpt>
      <trkpt lat="43.815855011343956" lon="4.341823998838663">
        <ele>40.990000000000002</ele>
        <time>2025-05-16T14:14:34Z</time>
      </trkpt>
      <trkpt lat="43.815947966650128" lon="4.342135973274708">
        <ele>40.990000000000002</ele>
        <time>2025-05-16T14:14:36Z</time>
      </trkpt>
      <trkpt lat="43.816002029925585" lon="4.342324985191226">
        <ele>40.990000000000002</ele>
        <time>2025-05-16T14:14:37Z</time>
      </trkpt>
      <trkpt lat="43.816478038206697" lon="4.343899022787809">
        <ele>40.509999999999998</ele>
        <time>2025-05-16T14:14:45Z</time>
      </trkpt>
      <trkpt lat="43.81665900349617" lon="4.344483995810151">
        <ele>40.030000000000001</ele>
        <time>2025-05-16T14:14:48Z</time>
      </trkpt>
      <trkpt lat="43.816719017922878" lon="4.344676025211811">
        <ele>39.549999999999997</ele>
        <time>2025-05-16T14:14:49Z</time>
      </trkpt>
      <trkpt lat="43.816781966015697" lon="4.344878029078245">
        <ele>39.07</ele>
        <time>2025-05-16T14:14:50Z</time>
      </trkpt>
      <trkpt lat="43.817486967891455" lon="4.34686697088182">
        <ele>36.670000000000002</ele>
        <time>2025-05-16T14:15:00Z</time>
      </trkpt>
      <trkpt lat="43.817538013681769" lon="4.347010971978307">
        <ele>36.670000000000002</ele>
        <time>2025-05-16T14:15:01Z</time>
      </trkpt>
      <trkpt lat="43.817583024501801" lon="4.347138041630387">
        <ele>36.670000000000002</ele>
        <time>2025-05-16T14:15:03Z</time>
      </trkpt>
      <trkpt lat="43.817597022280097" lon="4.347302997484803">
        <ele>37.149999999999999</ele>
        <time>2025-05-16T14:15:04Z</time>
      </trkpt>
      <trkpt lat="43.817571038380265" lon="4.347592005506158">
        <ele>37.149999999999999</ele>
        <time>2025-05-16T14:15:07Z</time>
      </trkpt>
      <trkpt lat="43.817610014230013" lon="4.347664006054401">
        <ele>37.149999999999999</ele>
        <time>2025-05-16T14:15:08Z</time>
      </trkpt>
      <trkpt lat="43.817700035870075" lon="4.347831979393959">
        <ele>37.149999999999999</ele>
        <time>2025-05-16T14:15:09Z</time>
      </trkpt>
      <trkpt lat="43.817870020866394" lon="4.347977992147207">
        <ele>37.630000000000003</ele>
        <time>2025-05-16T14:15:12Z</time>
      </trkpt>
      <trkpt lat="43.817932968959212" lon="4.348103972151876">
        <ele>37.630000000000003</ele>
        <time>2025-05-16T14:15:13Z</time>
      </trkpt>
      <trkpt lat="43.818000024184585" lon="4.348246967419982">
        <ele>37.630000000000003</ele>
        <time>2025-05-16T14:15:14Z</time>
      </trkpt>
      <trkpt lat="43.818604024127126" lon="4.350195005536079">
        <ele>38.109999999999999</ele>
        <time>2025-05-16T14:15:25Z</time>
      </trkpt>
      <trkpt lat="43.818934019654989" lon="4.351478023454547">
        <ele>38.590000000000003</ele>
        <time>2025-05-16T14:15:33Z</time>
      </trkpt>
      <trkpt lat="43.819005014374852" lon="4.351780023425818">
        <ele>38.590000000000003</ele>
        <time>2025-05-16T14:15:36Z</time>
      </trkpt>
      <trkpt lat="43.819018006324768" lon="4.351840037852526">
        <ele>39.07</ele>
        <time>2025-05-16T14:15:38Z</time>
      </trkpt>
      <trkpt lat="43.819061005488038" lon="4.352029971778393">
        <ele>39.549999999999997</ele>
        <time>2025-05-16T14:15:43Z</time>
      </trkpt>
      <trkpt lat="43.819012977182865" lon="4.35232400894165">
        <ele>39.549999999999997</ele>
        <time>2025-05-16T14:15:45Z</time>
      </trkpt>
      <trkpt lat="43.819011971354485" lon="4.352330965921283">
        <ele>40.030000000000001</ele>
        <time>2025-05-16T14:15:46Z</time>
      </trkpt>
      <trkpt lat="43.818998979404569" lon="4.352441020309925">
        <ele>40.030000000000001</ele>
        <time>2025-05-16T14:15:47Z</time>
      </trkpt>
      <trkpt lat="43.819017000496387" lon="4.352555014193058">
        <ele>40.030000000000001</ele>
        <time>2025-05-16T14:15:48Z</time>
      </trkpt>
      <trkpt lat="43.819055976346135" lon="4.35264503583312">
        <ele>40.030000000000001</ele>
        <time>2025-05-16T14:15:49Z</time>
      </trkpt>
      <trkpt lat="43.819122025743127" lon="4.352701026946306">
        <ele>40.030000000000001</ele>
        <time>2025-05-16T14:15:50Z</time>
      </trkpt>
      <trkpt lat="43.81919302046299" lon="4.35281996615231">
        <ele>40.030000000000001</ele>
        <time>2025-05-16T14:15:51Z</time>
      </trkpt>
      <trkpt lat="43.819208024069667" lon="4.352948041632772">
        <ele>40.030000000000001</ele>
        <time>2025-05-16T14:15:52Z</time>
      </trkpt>
      <trkpt lat="43.819225039333105" lon="4.353098999708891">
        <ele>39.549999999999997</ele>
        <time>2025-05-16T14:15:53Z</time>
      </trkpt>
      <trkpt lat="43.819244988262653" lon="4.353262027725577">
        <ele>40.030000000000001</ele>
        <time>2025-05-16T14:15:54Z</time>
      </trkpt>
      <trkpt lat="43.819574983790517" lon="4.355641985312104">
        <ele>40.030000000000001</ele>
        <time>2025-05-16T14:16:06Z</time>
      </trkpt>
      <trkpt lat="43.819819986820221" lon="4.357245024293661">
        <ele>39.549999999999997</ele>
        <time>2025-05-16T14:16:17Z</time>
      </trkpt>
      <trkpt lat="43.819863991811872" lon="4.357531014829874">
        <ele>40.030000000000001</ele>
        <time>2025-05-16T14:16:24Z</time>
      </trkpt>
      <trkpt lat="43.819871032610536" lon="4.357580970972776">
        <ele>40.030000000000001</ele>
        <time>2025-05-16T14:16:32Z</time>
      </trkpt>
      <trkpt lat="43.819871032610536" lon="4.357634028419852">
        <ele>40.509999999999998</ele>
        <time>2025-05-16T14:16:33Z</time>
      </trkpt>
      <trkpt lat="43.819845970720053" lon="4.357751961797476">
        <ele>40.509999999999998</ele>
        <time>2025-05-16T14:16:34Z</time>
      </trkpt>
      <trkpt lat="43.819799032062292" lon="4.357829997316003">
        <ele>40.509999999999998</ele>
        <time>2025-05-16T14:16:35Z</time>
      </trkpt>
      <trkpt lat="43.819748992100358" lon="4.357912978157401">
        <ele>40.509999999999998</ele>
        <time>2025-05-16T14:16:36Z</time>
      </trkpt>
      <trkpt lat="43.8197329826653" lon="4.358012974262238">
        <ele>40.509999999999998</ele>
        <time>2025-05-16T14:16:37Z</time>
      </trkpt>
      <trkpt lat="43.819722002372146" lon="4.358120011165738">
        <ele>40.509999999999998</ele>
        <time>2025-05-16T14:16:38Z</time>
      </trkpt>
      <trkpt lat="43.819778999313712" lon="4.358329977840185">
        <ele>40.509999999999998</ele>
        <time>2025-05-16T14:16:39Z</time>
      </trkpt>
      <trkpt lat="43.819778999313712" lon="4.358329977840185">
        <ele>40.509999999999998</ele>
        <time>2025-05-16T14:16:40Z</time>
      </trkpt>
      <trkpt lat="43.819843959063292" lon="4.358412036672235">
        <ele>40.030000000000001</ele>
        <time>2025-05-16T14:16:41Z</time>
      </trkpt>
      <trkpt lat="43.819918977096677" lon="4.358486970886588">
        <ele>39.549999999999997</ele>
        <time>2025-05-16T14:16:42Z</time>
      </trkpt>
      <trkpt lat="43.820001035928726" lon="4.358526030555368">
        <ele>39.07</ele>
        <time>2025-05-16T14:16:43Z</time>
      </trkpt>
      <trkpt lat="43.820094997063279" lon="4.35866299085319">
        <ele>39.07</ele>
        <time>2025-05-16T14:16:44Z</time>
      </trkpt>
      <trkpt lat="43.820130033418536" lon="4.358797017484903">
        <ele>39.07</ele>
        <time>2025-05-16T14:16:45Z</time>
      </trkpt>
      <trkpt lat="43.820587014779449" lon="4.360655033960939">
        <ele>40.990000000000002</ele>
        <time>2025-05-16T14:16:54Z</time>
      </trkpt>
      <trkpt lat="43.821270978078246" lon="4.363138005137444">
        <ele>42.439999999999998</ele>
        <time>2025-05-16T14:17:08Z</time>
      </trkpt>
      <trkpt lat="43.821597034111619" lon="4.364132015034556">
        <ele>42.439999999999998</ele>
        <time>2025-05-16T14:17:14Z</time>
      </trkpt>
      <trkpt lat="43.821760984137654" lon="4.364623026922345">
        <ele>42.439999999999998</ele>
        <time>2025-05-16T14:17:22Z</time>
      </trkpt>
      <trkpt lat="43.821786968037486" lon="4.36469997279346">
        <ele>42.920000000000002</ele>
        <time>2025-05-16T14:17:33Z</time>
      </trkpt>
      <trkpt lat="43.821814963594079" lon="4.364840034395456">
        <ele>43.880000000000003</ele>
        <time>2025-05-16T14:17:38Z</time>
      </trkpt>
      <trkpt lat="43.821791997179389" lon="4.365001972764731">
        <ele>43.399999999999999</ele>
        <time>2025-05-16T14:17:41Z</time>
      </trkpt>
      <trkpt lat="43.821809012442827" lon="4.365096017718315">
        <ele>43.399999999999999</ele>
        <time>2025-05-16T14:17:42Z</time>
      </trkpt>
      <trkpt lat="43.82183700799942" lon="4.365187967196107">
        <ele>43.399999999999999</ele>
        <time>2025-05-16T14:17:43Z</time>
      </trkpt>
      <trkpt lat="43.821903979405761" lon="4.365243958309293">
        <ele>42.920000000000002</ele>
        <time>2025-05-16T14:17:44Z</time>
      </trkpt>
      <trkpt lat="43.821953013539314" lon="4.365284023806453">
        <ele>41.950000000000003</ele>
        <time>2025-05-16T14:17:45Z</time>
      </trkpt>
      <trkpt lat="43.822091985493898" lon="4.365346971899271">
        <ele>41.469999999999999</ele>
        <time>2025-05-16T14:17:46Z</time>
      </trkpt>
      <trkpt lat="43.822141019627452" lon="4.365459959954023">
        <ele>41.469999999999999</ele>
        <time>2025-05-16T14:17:47Z</time>
      </trkpt>
      <trkpt lat="43.8221799954772" lon="4.365552999079227">
        <ele>41.469999999999999</ele>
        <time>2025-05-16T14:17:48Z</time>
      </trkpt>
      <trkpt lat="43.822369007393718" lon="4.365975027903915">
        <ele>40.990000000000002</ele>
        <time>2025-05-16T14:17:57Z</time>
      </trkpt>
      <trkpt lat="43.822582997381687" lon="4.366420023143292">
        <ele>42.439999999999998</ele>
        <time>2025-05-16T14:18:06Z</time>
      </trkpt>
      <trkpt lat="43.822649968788028" lon="4.366970965638757">
        <ele>43.880000000000003</ele>
        <time>2025-05-16T14:18:15Z</time>
      </trkpt>
      <trkpt lat="43.82267402485013" lon="4.367015976458788">
        <ele>45.32</ele>
        <time>2025-05-16T14:18:18Z</time>
      </trkpt>
      <trkpt lat="43.822948029264808" lon="4.367167018353939">
        <ele>46.280000000000001</ele>
        <time>2025-05-16T14:18:33Z</time>
      </trkpt>
      <trkpt lat="43.823098987340927" lon="4.367478992789984">
        <ele>45.799999999999997</ele>
        <time>2025-05-16T14:18:42Z</time>
      </trkpt>
      <trkpt lat="43.823227984830737" lon="4.3677509855479">
        <ele>45.799999999999997</ele>
        <time>2025-05-16T14:18:51Z</time>
      </trkpt>
      <trkpt lat="43.823350025340915" lon="4.368018032982945">
        <ele>46.759999999999998</ele>
        <time>2025-05-16T14:19:00Z</time>
      </trkpt>
      <trkpt lat="43.823467036709189" lon="4.368546009063721">
        <ele>52.049999999999997</ele>
        <time>2025-05-16T14:19:09Z</time>
      </trkpt>
      <trkpt lat="43.823648001998663" lon="4.3688889965415">
        <ele>55.890000000000001</ele>
        <time>2025-05-16T14:19:19Z</time>
      </trkpt>
      <trkpt lat="43.823905996978283" lon="4.369213040918112">
        <ele>56.859999999999999</ele>
        <time>2025-05-16T14:19:33Z</time>
      </trkpt>
      <trkpt lat="43.824036000296474" lon="4.369512023404241">
        <ele>56.859999999999999</ele>
        <time>2025-05-16T14:19:42Z</time>
      </trkpt>
      <trkpt lat="43.824039017781615" lon="4.369549993425608">
        <ele>56.369999999999997</ele>
        <time>2025-05-16T14:19:45Z</time>
      </trkpt>
      <trkpt lat="43.824054021388292" lon="4.369746968150139">
        <ele>55.890000000000001</ele>
        <time>2025-05-16T14:19:48Z</time>
      </trkpt>
      <trkpt lat="43.824141025543213" lon="4.369864985346794">
        <ele>55.409999999999997</ele>
        <time>2025-05-16T14:19:50Z</time>
      </trkpt>
      <trkpt lat="43.824227023869753" lon="4.369961963966489">
        <ele>54.93</ele>
        <time>2025-05-16T14:19:52Z</time>
      </trkpt>
      <trkpt lat="43.824227023869753" lon="4.369961963966489">
        <ele>54.450000000000003</ele>
        <time>2025-05-16T14:19:53Z</time>
      </trkpt>
      <trkpt lat="43.824240015819669" lon="4.369961963966489">
        <ele>53.969999999999999</ele>
        <time>2025-05-16T14:19:55Z</time>
      </trkpt>
      <trkpt lat="43.824296006932855" lon="4.369961963966489">
        <ele>53.009999999999998</ele>
        <time>2025-05-16T14:19:58Z</time>
      </trkpt>
      <trkpt lat="43.824490970000625" lon="4.370193975046277">
        <ele>52.530000000000001</ele>
        <time>2025-05-16T14:20:01Z</time>
      </trkpt>
      <trkpt lat="43.824546961113811" lon="4.370276033878326">
        <ele>52.530000000000001</ele>
        <time>2025-05-16T14:20:03Z</time>
      </trkpt>
      <trkpt lat="43.825263027101755" lon="4.371288986876607">
        <ele>53.009999999999998</ele>
        <time>2025-05-16T14:20:15Z</time>
      </trkpt>
      <trkpt lat="43.825384983792901" lon="4.371456038206816">
        <ele>52.530000000000001</ele>
        <time>2025-05-16T14:20:18Z</time>
      </trkpt>
      <trkpt lat="43.825815981253982" lon="4.372183000668883">
        <ele>49.649999999999999</ele>
        <time>2025-05-16T14:20:31Z</time>
      </trkpt>
      <trkpt lat="43.825916983187199" lon="4.372352985665202">
        <ele>49.159999999999997</ele>
        <time>2025-05-16T14:20:33Z</time>
      </trkpt>
      <trkpt lat="43.82596199400723" lon="4.372428003698587">
        <ele>49.159999999999997</ele>
        <time>2025-05-16T14:20:34Z</time>
      </trkpt>
      <trkpt lat="43.826484018936753" lon="4.373320005834103">
        <ele>52.530000000000001</ele>
        <time>2025-05-16T14:20:45Z</time>
      </trkpt>
      <trkpt lat="43.826705971732736" lon="4.373685037717223">
        <ele>53.969999999999999</ele>
        <time>2025-05-16T14:20:50Z</time>
      </trkpt>
      <trkpt lat="43.826804962009192" lon="4.373847981914878">
        <ele>55.409999999999997</ele>
        <time>2025-05-16T14:20:52Z</time>
      </trkpt>
      <trkpt lat="43.826976958662271" lon="4.374131038784981">
        <ele>55.890000000000001</ele>
        <time>2025-05-16T14:20:55Z</time>
      </trkpt>
      <trkpt lat="43.827107967808843" lon="4.374370006844401">
        <ele>56.859999999999999</ele>
        <time>2025-05-16T14:21:05Z</time>
      </trkpt>
      <trkpt lat="43.827237971127033" lon="4.374580979347229">
        <ele>56.859999999999999</ele>
        <time>2025-05-16T14:21:10Z</time>
      </trkpt>
      <trkpt lat="43.827274013310671" lon="4.374639987945557">
        <ele>56.369999999999997</ele>
        <time>2025-05-16T14:21:11Z</time>
      </trkpt>
      <trkpt lat="43.827231014147401" lon="4.374854983761907">
        <ele>56.369999999999997</ele>
        <time>2025-05-16T14:21:13Z</time>
      </trkpt>
      <trkpt lat="43.827247023582458" lon="4.374909969046712">
        <ele>56.369999999999997</ele>
        <time>2025-05-16T14:21:14Z</time>
      </trkpt>
      <trkpt lat="43.827364034950733" lon="4.375057993456721">
        <ele>55.890000000000001</ele>
        <time>2025-05-16T14:21:15Z</time>
      </trkpt>
      <trkpt lat="43.82738197222352" lon="4.375068973749876">
        <ele>55.409999999999997</ele>
        <time>2025-05-16T14:21:16Z</time>
      </trkpt>
      <trkpt lat="43.827546006068587" lon="4.375061010941863">
        <ele>53.009999999999998</ele>
        <time>2025-05-16T14:21:18Z</time>
      </trkpt>
      <trkpt lat="43.827589005231857" lon="4.375127982348204">
        <ele>52.049999999999997</ele>
        <time>2025-05-16T14:21:19Z</time>
      </trkpt>
      <trkpt lat="43.82763996720314" lon="4.375209035351872">
        <ele>51.57</ele>
        <time>2025-05-16T14:21:20Z</time>
      </trkpt>
      <trkpt lat="43.827694030478597" lon="4.375319005921483">
        <ele>51.090000000000003</ele>
        <time>2025-05-16T14:21:21Z</time>
      </trkpt>
      <trkpt lat="43.82875400595367" lon="4.377107033506036">
        <ele>48.68</ele>
        <time>2025-05-16T14:21:35Z</time>
      </trkpt>
      <trkpt lat="43.829659000039101" lon="4.378633964806795">
        <ele>48.200000000000003</ele>
        <time>2025-05-16T14:21:46Z</time>
      </trkpt>
      <trkpt lat="43.830480007454753" lon="4.380019996315241">
        <ele>48.68</ele>
        <time>2025-05-16T14:21:57Z</time>
      </trkpt>
      <trkpt lat="43.830607999116182" lon="4.380251001566649">
        <ele>49.159999999999997</ele>
        <time>2025-05-16T14:21:59Z</time>
      </trkpt>
      <trkpt lat="43.830662984400988" lon="4.380353009328246">
        <ele>49.159999999999997</ele>
        <time>2025-05-16T14:22:00Z</time>
      </trkpt>
      <trkpt lat="43.830777984112501" lon="4.380713012069464">
        <ele>49.159999999999997</ele>
        <time>2025-05-16T14:22:05Z</time>
      </trkpt>
      <trkpt lat="43.830787958577275" lon="4.380761040374637">
        <ele>48.68</ele>
        <time>2025-05-16T14:22:06Z</time>
      </trkpt>
      <trkpt lat="43.830799022689462" lon="4.380817031487823">
        <ele>48.200000000000003</ele>
        <time>2025-05-16T14:22:07Z</time>
      </trkpt>
      <trkpt lat="43.830812014639378" lon="4.380880985409021">
        <ele>47.719999999999999</ele>
        <time>2025-05-16T14:22:08Z</time>
      </trkpt>
      <trkpt lat="43.830826012417674" lon="4.380947034806013">
        <ele>47.719999999999999</ele>
        <time>2025-05-16T14:22:09Z</time>
      </trkpt>
      <trkpt lat="43.830841016024351" lon="4.381020963191986">
        <ele>47.719999999999999</ele>
        <time>2025-05-16T14:22:10Z</time>
      </trkpt>
      <trkpt lat="43.83085903711617" lon="4.381106039509177">
        <ele>47.719999999999999</ele>
        <time>2025-05-16T14:22:11Z</time>
      </trkpt>
      <trkpt lat="43.830878986045718" lon="4.381206035614014">
        <ele>47.240000000000002</ele>
        <time>2025-05-16T14:22:12Z</time>
      </trkpt>
      <trkpt lat="43.83086197078228" lon="4.38139203004539">
        <ele>46.280000000000001</ele>
        <time>2025-05-16T14:22:14Z</time>
      </trkpt>
      <trkpt lat="43.830868005752563" lon="4.381472999230027">
        <ele>46.280000000000001</ele>
        <time>2025-05-16T14:22:15Z</time>
      </trkpt>
      <trkpt lat="43.830896001309156" lon="4.381556985899806">
        <ele>45.799999999999997</ele>
        <time>2025-05-16T14:22:16Z</time>
      </trkpt>
      <trkpt lat="43.830926008522511" lon="4.381644995883107">
        <ele>45.32</ele>
        <time>2025-05-16T14:22:17Z</time>
      </trkpt>
      <trkpt lat="43.830971019342542" lon="4.381712973117828">
        <ele>45.32</ele>
        <time>2025-05-16T14:22:18Z</time>
      </trkpt>
      <trkpt lat="43.831036984920502" lon="4.381745997816324">
        <ele>44.840000000000003</ele>
        <time>2025-05-16T14:22:19Z</time>
      </trkpt>
      <trkpt lat="43.831103034317493" lon="4.381764018908143">
        <ele>44.840000000000003</ele>
        <time>2025-05-16T14:22:20Z</time>
      </trkpt>
      <trkpt lat="43.831174029037356" lon="4.381764018908143">
        <ele>44.359999999999999</ele>
        <time>2025-05-16T14:22:21Z</time>
      </trkpt>
      <trkpt lat="43.831262039020658" lon="4.381794026121497">
        <ele>43.880000000000003</ele>
        <time>2025-05-16T14:22:22Z</time>
      </trkpt>
      <trkpt lat="43.831343008205295" lon="4.381835013628006">
        <ele>43.880000000000003</ele>
        <time>2025-05-16T14:22:23Z</time>
      </trkpt>
      <trkpt lat="43.831416014581919" lon="4.381870971992612">
        <ele>44.359999999999999</ele>
        <time>2025-05-16T14:22:24Z</time>
      </trkpt>
      <trkpt lat="43.831522967666388" lon="4.381999969482422">
        <ele>44.359999999999999</ele>
        <time>2025-05-16T14:22:25Z</time>
      </trkpt>
      <trkpt lat="43.831565966829658" lon="4.382075993344188">
        <ele>44.359999999999999</ele>
        <time>2025-05-16T14:22:26Z</time>
      </trkpt>
      <trkpt lat="43.83163696154952" lon="4.382199961692095">
        <ele>44.359999999999999</ele>
        <time>2025-05-16T14:22:27Z</time>
      </trkpt>
      <trkpt lat="43.831711979582906" lon="4.38233700580895">
        <ele>44.359999999999999</ele>
        <time>2025-05-16T14:22:28Z</time>
      </trkpt>
      <trkpt lat="43.831779034808278" lon="4.382478995248675">
        <ele>44.359999999999999</ele>
        <time>2025-05-16T14:22:29Z</time>
      </trkpt>
      <trkpt lat="43.83184801787138" lon="4.382626013830304">
        <ele>44.840000000000003</ele>
        <time>2025-05-16T14:22:30Z</time>
      </trkpt>
      <trkpt lat="43.832282032817602" lon="4.383882964029908">
        <ele>44.840000000000003</ele>
        <time>2025-05-16T14:22:39Z</time>
      </trkpt>
      <trkpt lat="43.832426033914089" lon="4.384352015331388">
        <ele>44.840000000000003</ele>
        <time>2025-05-16T14:22:44Z</time>
      </trkpt>
      <trkpt lat="43.832454029470682" lon="4.384441031143069">
        <ele>44.840000000000003</ele>
        <time>2025-05-16T14:22:45Z</time>
      </trkpt>
      <trkpt lat="43.832528963685036" lon="4.384634988382459">
        <ele>44.359999999999999</ele>
        <time>2025-05-16T14:22:47Z</time>
      </trkpt>
      <trkpt lat="43.833023998886347" lon="4.385546017438173">
        <ele>44.840000000000003</ele>
        <time>2025-05-16T14:22:56Z</time>
      </trkpt>
      <trkpt lat="43.833092981949449" lon="4.385651964694262">
        <ele>45.32</ele>
        <time>2025-05-16T14:22:57Z</time>
      </trkpt>
      <trkpt lat="43.833672003820539" lon="4.386429972946644">
        <ele>46.759999999999998</ele>
        <time>2025-05-16T14:23:04Z</time>
      </trkpt>
      <trkpt lat="43.834510026499629" lon="4.387250980362296">
        <ele>48.200000000000003</ele>
        <time>2025-05-16T14:23:12Z</time>
      </trkpt>
      <trkpt lat="43.834874974563718" lon="4.387512998655438">
        <ele>47.240000000000002</ele>
        <time>2025-05-16T14:23:17Z</time>
      </trkpt>
      <trkpt lat="43.834933983162045" lon="4.387554991990328">
        <ele>47.240000000000002</ele>
        <time>2025-05-16T14:23:18Z</time>
      </trkpt>
      <trkpt lat="43.835164988413453" lon="4.387689018622041">
        <ele>46.759999999999998</ele>
        <time>2025-05-16T14:23:21Z</time>
      </trkpt>
      <trkpt lat="43.835297003388405" lon="4.387760013341904">
        <ele>46.280000000000001</ele>
        <time>2025-05-16T14:23:24Z</time>
      </trkpt>
      <trkpt lat="43.835922963917255" lon="4.388029994443059">
        <ele>46.759999999999998</ele>
        <time>2025-05-16T14:23:32Z</time>
      </trkpt>
      <trkpt lat="43.836024971678853" lon="4.388064024969935">
        <ele>45.799999999999997</ele>
        <time>2025-05-16T14:23:36Z</time>
      </trkpt>
      <trkpt lat="43.836105018854141" lon="4.388091014698148">
        <ele>45.799999999999997</ele>
        <time>2025-05-16T14:23:37Z</time>
      </trkpt>
      <trkpt lat="43.836148018017411" lon="4.388105012476444">
        <ele>45.32</ele>
        <time>2025-05-16T14:23:38Z</time>
      </trkpt>
      <trkpt lat="43.836540961638093" lon="4.388325037434697">
        <ele>43.880000000000003</ele>
        <time>2025-05-16T14:23:49Z</time>
      </trkpt>
      <trkpt lat="43.836540961638093" lon="4.388325037434697">
        <ele>43.880000000000003</ele>
        <time>2025-05-16T14:23:52Z</time>
      </trkpt>
      <trkpt lat="43.836572980508208" lon="4.38835202716291">
        <ele>43.880000000000003</ele>
        <time>2025-05-16T14:23:53Z</time>
      </trkpt>
      <trkpt lat="43.836611034348607" lon="4.388383962213993">
        <ele>43.880000000000003</ele>
        <time>2025-05-16T14:23:55Z</time>
      </trkpt>
      <trkpt lat="43.836672976613045" lon="4.388437019661069">
        <ele>44.359999999999999</ele>
        <time>2025-05-16T14:23:56Z</time>
      </trkpt>
      <trkpt lat="43.836727039888501" lon="4.388500973582268">
        <ele>44.359999999999999</ele>
        <time>2025-05-16T14:23:57Z</time>
      </trkpt>
      <trkpt lat="43.836784958839417" lon="4.38856802880764">
        <ele>44.359999999999999</ele>
        <time>2025-05-16T14:23:58Z</time>
      </trkpt>
      <trkpt lat="43.836856037378311" lon="4.388580014929175">
        <ele>44.359999999999999</ele>
        <time>2025-05-16T14:23:59Z</time>
      </trkpt>
      <trkpt lat="43.836998026818037" lon="4.388493010774255">
        <ele>44.359999999999999</ele>
        <time>2025-05-16T14:24:01Z</time>
      </trkpt>
      <trkpt lat="43.837056029587984" lon="4.388402989134193">
        <ele>44.359999999999999</ele>
        <time>2025-05-16T14:24:02Z</time>
      </trkpt>
      <trkpt lat="43.837187038734555" lon="4.388342974707484">
        <ele>43.880000000000003</ele>
        <time>2025-05-16T14:24:03Z</time>
      </trkpt>
      <trkpt lat="43.837288040667772" lon="4.388358984142542">
        <ele>43.880000000000003</ele>
        <time>2025-05-16T14:24:04Z</time>
      </trkpt>
      <trkpt lat="43.837516028434038" lon="4.38839603215456">
        <ele>43.880000000000003</ele>
        <time>2025-05-16T14:24:06Z</time>
      </trkpt>
      <trkpt lat="43.837910983711481" lon="4.388492004945874">
        <ele>43.399999999999999</ele>
        <time>2025-05-16T14:24:08Z</time>
      </trkpt>
      <trkpt lat="43.838731991127133" lon="4.388725021854043">
        <ele>41.950000000000003</ele>
        <time>2025-05-16T14:24:14Z</time>
      </trkpt>
      <trkpt lat="43.840209972113371" lon="4.389326004311442">
        <ele>39.07</ele>
        <time>2025-05-16T14:24:25Z</time>
      </trkpt>
      <trkpt lat="43.841047994792461" lon="4.389807963743806">
        <ele>40.030000000000001</ele>
        <time>2025-05-16T14:24:31Z</time>
      </trkpt>
      <trkpt lat="43.841158971190453" lon="4.389884993433952">
        <ele>39.549999999999997</ele>
        <time>2025-05-16T14:24:32Z</time>
      </trkpt>
      <trkpt lat="43.841251004487276" lon="4.389948025345802">
        <ele>40.030000000000001</ele>
        <time>2025-05-16T14:24:33Z</time>
      </trkpt>
      <trkpt lat="43.841415038332343" lon="4.390196967869997">
        <ele>40.509999999999998</ele>
        <time>2025-05-16T14:24:35Z</time>
      </trkpt>
      <trkpt lat="43.841450996696949" lon="4.390258993953466">
        <ele>40.990000000000002</ele>
        <time>2025-05-16T14:24:36Z</time>
      </trkpt>
      <trkpt lat="43.84151897393167" lon="4.390357984229922">
        <ele>41.469999999999999</ele>
        <time>2025-05-16T14:24:37Z</time>
      </trkpt>
      <trkpt lat="43.84173103608191" lon="4.390381034463644">
        <ele>41.950000000000003</ele>
        <time>2025-05-16T14:24:39Z</time>
      </trkpt>
      <trkpt lat="43.841826003044844" lon="4.390456974506378">
        <ele>41.950000000000003</ele>
        <time>2025-05-16T14:24:40Z</time>
      </trkpt>
      <trkpt lat="43.842895030975342" lon="4.391445033252239">
        <ele>42.920000000000002</ele>
        <time>2025-05-16T14:24:50Z</time>
      </trkpt>
      <trkpt lat="43.844322971999645" lon="4.393156031146646">
        <ele>44.840000000000003</ele>
        <time>2025-05-16T14:25:01Z</time>
      </trkpt>
      <trkpt lat="43.846172019839287" lon="4.39540296792984">
        <ele>50.609999999999999</ele>
        <time>2025-05-16T14:25:15Z</time>
      </trkpt>
      <trkpt lat="43.846864029765129" lon="4.396236967295408">
        <ele>51.57</ele>
        <time>2025-05-16T14:25:21Z</time>
      </trkpt>
      <trkpt lat="43.84721196256578" lon="4.396842978894711">
        <ele>52.530000000000001</ele>
        <time>2025-05-16T14:25:27Z</time>
      </trkpt>
      <trkpt lat="43.847236018627882" lon="4.396882960572839">
        <ele>52.530000000000001</ele>
        <time>2025-05-16T14:25:36Z</time>
      </trkpt>
      <trkpt lat="43.84725303389132" lon="4.396912967786193">
        <ele>53.490000000000002</ele>
        <time>2025-05-16T14:25:50Z</time>
      </trkpt>
      <trkpt lat="43.847270971164107" lon="4.396943980827928">
        <ele>53.969999999999999</ele>
        <time>2025-05-16T14:25:51Z</time>
      </trkpt>
      <trkpt lat="43.847585041075945" lon="4.397577987983823">
        <ele>55.890000000000001</ele>
        <time>2025-05-16T14:25:56Z</time>
      </trkpt>
      <trkpt lat="43.847839012742043" lon="4.398202020674944">
        <ele>55.890000000000001</ele>
        <time>2025-05-16T14:25:58Z</time>
      </trkpt>
      <trkpt lat="43.847949989140034" lon="4.39836798235774">
        <ele>56.859999999999999</ele>
        <time>2025-05-16T14:26:00Z</time>
      </trkpt>
      <trkpt lat="43.848924972116947" lon="4.399595009163022">
        <ele>56.369999999999997</ele>
        <time>2025-05-16T14:26:10Z</time>
      </trkpt>
      <trkpt lat="43.849500976502895" lon="4.400002034381032">
        <ele>55.890000000000001</ele>
        <time>2025-05-16T14:26:15Z</time>
      </trkpt>
      <trkpt lat="43.850148981437087" lon="4.400354996323586">
        <ele>55.409999999999997</ele>
        <time>2025-05-16T14:26:20Z</time>
      </trkpt>
      <trkpt lat="43.851303001865745" lon="4.400543002411723">
        <ele>55.409999999999997</ele>
        <time>2025-05-16T14:26:29Z</time>
      </trkpt>
      <trkpt lat="43.851716984063387" lon="4.400565968826413">
        <ele>55.890000000000001</ele>
        <time>2025-05-16T14:26:35Z</time>
      </trkpt>
      <trkpt lat="43.851885963231325" lon="4.400584995746613">
        <ele>56.369999999999997</ele>
        <time>2025-05-16T14:26:44Z</time>
      </trkpt>
      <trkpt lat="43.852615021169186" lon="4.400681974366307">
        <ele>56.859999999999999</ele>
        <time>2025-05-16T14:26:52Z</time>
      </trkpt>
      <trkpt lat="43.85357198305428" lon="4.401214979588985">
        <ele>58.780000000000001</ele>
        <time>2025-05-16T14:27:00Z</time>
      </trkpt>
      <trkpt lat="43.854683004319668" lon="4.402416022494435">
        <ele>62.619999999999997</ele>
        <time>2025-05-16T14:27:11Z</time>
      </trkpt>
      <trkpt lat="43.855284992605448" lon="4.403150025755167">
        <ele>63.579999999999998</ele>
        <time>2025-05-16T14:27:19Z</time>
      </trkpt>
      <trkpt lat="43.856256958097219" lon="4.404188962653279">
        <ele>65.510000000000005</ele>
        <time>2025-05-16T14:27:30Z</time>
      </trkpt>
      <trkpt lat="43.856546971946955" lon="4.404458021745086">
        <ele>65.510000000000005</ele>
        <time>2025-05-16T14:27:33Z</time>
      </trkpt>
      <trkpt lat="43.85679398663342" lon="4.404705036431551">
        <ele>65.989999999999995</ele>
        <time>2025-05-16T14:27:37Z</time>
      </trkpt>
      <trkpt lat="43.856856012716889" lon="4.404773013666272">
        <ele>65.989999999999995</ele>
        <time>2025-05-16T14:27:38Z</time>
      </trkpt>
      <trkpt lat="43.856969000771642" lon="4.4049839861691">
        <ele>65.989999999999995</ele>
        <time>2025-05-16T14:27:40Z</time>
      </trkpt>
      <trkpt lat="43.857004037126899" lon="4.405096974223852">
        <ele>65.989999999999995</ele>
        <time>2025-05-16T14:27:41Z</time>
      </trkpt>
      <trkpt lat="43.857136974111199" lon="4.405167968943715">
        <ele>65.989999999999995</ele>
        <time>2025-05-16T14:27:43Z</time>
      </trkpt>
      <trkpt lat="43.857220960780978" lon="4.405193030834198">
        <ele>65.510000000000005</ele>
        <time>2025-05-16T14:27:44Z</time>
      </trkpt>
      <trkpt lat="43.857313999906182" lon="4.405227983370423">
        <ele>65.030000000000001</ele>
        <time>2025-05-16T14:27:45Z</time>
      </trkpt>
      <trkpt lat="43.85741600766778" lon="4.405267965048552">
        <ele>65.030000000000001</ele>
        <time>2025-05-16T14:27:46Z</time>
      </trkpt>
      <trkpt lat="43.857625974342227" lon="4.405453037470579">
        <ele>64.549999999999997</ele>
        <time>2025-05-16T14:27:47Z</time>
      </trkpt>
      <trkpt lat="43.857723036780953" lon="4.405577005818486">
        <ele>64.069999999999993</ele>
        <time>2025-05-16T14:27:48Z</time>
      </trkpt>
      <trkpt lat="43.858475983142853" lon="4.406760027632117">
        <ele>64.549999999999997</ele>
        <time>2025-05-16T14:27:55Z</time>
      </trkpt>
      <trkpt lat="43.859170004725456" lon="4.408554006367922">
        <ele>65.510000000000005</ele>
        <time>2025-05-16T14:28:03Z</time>
      </trkpt>
      <trkpt lat="43.859467981383204" lon="4.410557029768825">
        <ele>66.469999999999999</ele>
        <time>2025-05-16T14:28:12Z</time>
      </trkpt>
      <trkpt lat="43.85943797416985" lon="4.413024997338653">
        <ele>65.510000000000005</ele>
        <time>2025-05-16T14:28:21Z</time>
      </trkpt>
      <trkpt lat="43.859309982508421" lon="4.41497303545475">
        <ele>65.510000000000005</ele>
        <time>2025-05-16T14:28:28Z</time>
      </trkpt>
      <trkpt lat="43.859274024143815" lon="4.415251985192299">
        <ele>65.030000000000001</ele>
        <time>2025-05-16T14:28:29Z</time>
      </trkpt>
      <trkpt lat="43.85921903885901" lon="4.415525989606977">
        <ele>65.030000000000001</ele>
        <time>2025-05-16T14:28:30Z</time>
      </trkpt>
      <trkpt lat="43.859160030260682" lon="4.415817009285092">
        <ele>65.030000000000001</ele>
        <time>2025-05-16T14:28:31Z</time>
      </trkpt>
      <trkpt lat="43.859066991135478" lon="4.416054971516132">
        <ele>65.030000000000001</ele>
        <time>2025-05-16T14:28:32Z</time>
      </trkpt>
      <trkpt lat="43.858970012515783" lon="4.416302992030978">
        <ele>65.030000000000001</ele>
        <time>2025-05-16T14:28:33Z</time>
      </trkpt>
      <trkpt lat="43.858846966177225" lon="4.416532991454005">
        <ele>65.030000000000001</ele>
        <time>2025-05-16T14:28:34Z</time>
      </trkpt>
      <trkpt lat="43.857643995434046" lon="4.418093031272292">
        <ele>64.069999999999993</ele>
        <time>2025-05-16T14:28:42Z</time>
      </trkpt>
      <trkpt lat="43.857551040127873" lon="4.418199984356761">
        <ele>64.069999999999993</ele>
        <time>2025-05-16T14:28:43Z</time>
      </trkpt>
      <trkpt lat="43.857310982421041" lon="4.418472982943058">
        <ele>63.579999999999998</ele>
        <time>2025-05-16T14:28:48Z</time>
      </trkpt>
      <trkpt lat="43.857250967994332" lon="4.41854196600616">
        <ele>63.100000000000001</ele>
        <time>2025-05-16T14:28:52Z</time>
      </trkpt>
      <trkpt lat="43.857093974947929" lon="4.418546995148063">
        <ele>62.619999999999997</ele>
        <time>2025-05-16T14:28:55Z</time>
      </trkpt>
      <trkpt lat="43.857023986056447" lon="4.418593011796475">
        <ele>62.619999999999997</ele>
        <time>2025-05-16T14:28:56Z</time>
      </trkpt>
      <trkpt lat="43.856912003830075" lon="4.418761990964413">
        <ele>62.140000000000001</ele>
        <time>2025-05-16T14:28:57Z</time>
      </trkpt>
      <trkpt lat="43.856880990788341" lon="4.418873973190785">
        <ele>62.140000000000001</ele>
        <time>2025-05-16T14:28:59Z</time>
      </trkpt>
      <trkpt lat="43.856897000223398" lon="4.419122999534011">
        <ele>61.659999999999997</ele>
        <time>2025-05-16T14:29:00Z</time>
      </trkpt>
      <trkpt lat="43.856953997164965" lon="4.419236993417144">
        <ele>61.659999999999997</ele>
        <time>2025-05-16T14:29:01Z</time>
      </trkpt>
      <trkpt lat="43.857044018805027" lon="4.419319974258542">
        <ele>61.659999999999997</ele>
        <time>2025-05-16T14:29:03Z</time>
      </trkpt>
      <trkpt lat="43.857117025181651" lon="4.419461963698268">
        <ele>61.659999999999997</ele>
        <time>2025-05-16T14:29:04Z</time>
      </trkpt>
      <trkpt lat="43.857140997424722" lon="4.419620968401432">
        <ele>62.140000000000001</ele>
        <time>2025-05-16T14:29:05Z</time>
      </trkpt>
      <trkpt lat="43.85713797993958" lon="4.419791037216783">
        <ele>62.619999999999997</ele>
        <time>2025-05-16T14:29:06Z</time>
      </trkpt>
      <trkpt lat="43.857138985767961" lon="4.421359039843082">
        <ele>62.140000000000001</ele>
        <time>2025-05-16T14:29:12Z</time>
      </trkpt>
      <trkpt lat="43.857181984931231" lon="4.421597002074122">
        <ele>62.140000000000001</ele>
        <time>2025-05-16T14:29:13Z</time>
      </trkpt>
      <trkpt lat="43.857234958559275" lon="4.421839993447065">
        <ele>61.659999999999997</ele>
        <time>2025-05-16T14:29:14Z</time>
      </trkpt>
      <trkpt lat="43.857402009889483" lon="4.422307033091784">
        <ele>60.700000000000003</ele>
        <time>2025-05-16T14:29:16Z</time>
      </trkpt>
      <trkpt lat="43.857509968802333" lon="4.422534015029669">
        <ele>59.740000000000002</ele>
        <time>2025-05-16T14:29:18Z</time>
      </trkpt>
      <trkpt lat="43.858892982825637" lon="4.425298031419516">
        <ele>55.409999999999997</ele>
        <time>2025-05-16T14:29:29Z</time>
      </trkpt>
      <trkpt lat="43.859696974977851" lon="4.426652966067195">
        <ele>55.409999999999997</ele>
        <time>2025-05-16T14:29:37Z</time>
      </trkpt>
      <trkpt lat="43.859837036579847" lon="4.426956977695227">
        <ele>55.890000000000001</ele>
        <time>2025-05-16T14:29:39Z</time>
      </trkpt>
      <trkpt lat="43.859894033521414" lon="4.427080024033785">
        <ele>56.369999999999997</ele>
        <time>2025-05-16T14:29:40Z</time>
      </trkpt>
      <trkpt lat="43.85995396412909" lon="4.427211033180356">
        <ele>56.369999999999997</ele>
        <time>2025-05-16T14:29:41Z</time>
      </trkpt>
      <trkpt lat="43.85999402962625" lon="4.427488977089524">
        <ele>57.340000000000003</ele>
        <time>2025-05-16T14:29:43Z</time>
      </trkpt>
      <trkpt lat="43.86014498770237" lon="4.427615962922573">
        <ele>57.340000000000003</ele>
        <time>2025-05-16T14:29:45Z</time>
      </trkpt>
      <trkpt lat="43.860333999618888" lon="4.427761975675821">
        <ele>57.340000000000003</ele>
        <time>2025-05-16T14:29:47Z</time>
      </trkpt>
      <trkpt lat="43.86042301543057" lon="4.427897008135915">
        <ele>57.82</ele>
        <time>2025-05-16T14:29:48Z</time>
      </trkpt>
      <trkpt lat="43.861142015084624" lon="4.42949996329844">
        <ele>59.740000000000002</ele>
        <time>2025-05-16T14:29:56Z</time>
      </trkpt>
      <trkpt lat="43.861528001725674" lon="4.430863028392196">
        <ele>60.700000000000003</ele>
        <time>2025-05-16T14:30:03Z</time>
      </trkpt>
      <trkpt lat="43.862019013613462" lon="4.432652983814478">
        <ele>60.219999999999999</ele>
        <time>2025-05-16T14:30:12Z</time>
      </trkpt>
      <trkpt lat="43.862741030752659" lon="4.434550981968641">
        <ele>56.859999999999999</ele>
        <time>2025-05-16T14:30:21Z</time>
      </trkpt>
      <trkpt lat="43.863723976537585" lon="4.437175020575523">
        <ele>57.82</ele>
        <time>2025-05-16T14:30:32Z</time>
      </trkpt>
      <trkpt lat="43.864794010296464" lon="4.440188985317946">
        <ele>59.259999999999998</ele>
        <time>2025-05-16T14:30:44Z</time>
      </trkpt>
      <trkpt lat="43.86583898216486" lon="4.443257013335824">
        <ele>61.659999999999997</ele>
        <time>2025-05-16T14:30:57Z</time>
      </trkpt>
      <trkpt lat="43.866027994081378" lon="4.44393795914948">
        <ele>62.619999999999997</ele>
        <time>2025-05-16T14:31:02Z</time>
      </trkpt>
      <trkpt lat="43.866052972152829" lon="4.4440439902246">
        <ele>63.579999999999998</ele>
        <time>2025-05-16T14:31:10Z</time>
      </trkpt>
      <trkpt lat="43.866063030436635" lon="4.44408799521625">
        <ele>63.579999999999998</ele>
        <time>2025-05-16T14:31:12Z</time>
      </trkpt>
      <trkpt lat="43.866046015173197" lon="4.44421598687768">
        <ele>63.579999999999998</ele>
        <time>2025-05-16T14:31:14Z</time>
      </trkpt>
      <trkpt lat="43.866020031273365" lon="4.444317994639278">
        <ele>63.579999999999998</ele>
        <time>2025-05-16T14:31:15Z</time>
      </trkpt>
      <trkpt lat="43.86607401072979" lon="4.444590993225575">
        <ele>63.100000000000001</ele>
        <time>2025-05-16T14:31:17Z</time>
      </trkpt>
      <trkpt lat="43.866151962429285" lon="4.444651007652283">
        <ele>63.100000000000001</ele>
        <time>2025-05-16T14:31:18Z</time>
      </trkpt>
      <trkpt lat="43.866232009604573" lon="4.444713033735752">
        <ele>63.100000000000001</ele>
        <time>2025-05-16T14:31:19Z</time>
      </trkpt>
      <trkpt lat="43.866296969354153" lon="4.444804983213544">
        <ele>63.100000000000001</ele>
        <time>2025-05-16T14:31:20Z</time>
      </trkpt>
      <trkpt lat="43.866357989609241" lon="4.444895004853606">
        <ele>63.100000000000001</ele>
        <time>2025-05-16T14:31:21Z</time>
      </trkpt>
      <trkpt lat="43.866426972672343" lon="4.444998018443584">
        <ele>63.100000000000001</ele>
        <time>2025-05-16T14:31:22Z</time>
      </trkpt>
      <trkpt lat="43.866541972383857" lon="4.445171020925045">
        <ele>63.100000000000001</ele>
        <time>2025-05-16T14:31:23Z</time>
      </trkpt>
      <trkpt lat="43.867082018405199" lon="4.446748998016119">
        <ele>64.069999999999993</ele>
        <time>2025-05-16T14:31:31Z</time>
      </trkpt>
      <trkpt lat="43.868038980290294" lon="4.449471021071076">
        <ele>64.549999999999997</ele>
        <time>2025-05-16T14:31:41Z</time>
      </trkpt>
      <trkpt lat="43.869198029860854" lon="4.452881030738354">
        <ele>65.510000000000005</ele>
        <time>2025-05-16T14:31:55Z</time>
      </trkpt>
      <trkpt lat="43.870685985311866" lon="4.45721598342061">
        <ele>66.950000000000003</ele>
        <time>2025-05-16T14:32:11Z</time>
      </trkpt>
      <trkpt lat="43.871796000748873" lon="4.459639023989439">
        <ele>68.390000000000001</ele>
        <time>2025-05-16T14:32:22Z</time>
      </trkpt>
      <trkpt lat="43.873543040826917" lon="4.463354973122478">
        <ele>68.870000000000005</ele>
        <time>2025-05-16T14:32:38Z</time>
      </trkpt>
      <trkpt lat="43.874311996623874" lon="4.464948959648609">
        <ele>69.829999999999998</ele>
        <time>2025-05-16T14:32:46Z</time>
      </trkpt>
      <trkpt lat="43.874617014080286" lon="4.465581960976124">
        <ele>70.310000000000002</ele>
        <time>2025-05-16T14:32:51Z</time>
      </trkpt>
      <trkpt lat="43.874636963009834" lon="4.465663013979793">
        <ele>70.310000000000002</ele>
        <time>2025-05-16T14:32:52Z</time>
      </trkpt>
      <trkpt lat="43.874652972444892" lon="4.465726967900991">
        <ele>70.310000000000002</ele>
        <time>2025-05-16T14:32:53Z</time>
      </trkpt>
      <trkpt lat="43.874665964394808" lon="4.465780025348067">
        <ele>70.310000000000002</ele>
        <time>2025-05-16T14:32:54Z</time>
      </trkpt>
      <trkpt lat="43.874680968001485" lon="4.465840961784124">
        <ele>70.310000000000002</ele>
        <time>2025-05-16T14:32:55Z</time>
      </trkpt>
      <trkpt lat="43.874701000750065" lon="4.465921008959413">
        <ele>70.310000000000002</ele>
        <time>2025-05-16T14:32:56Z</time>
      </trkpt>
      <trkpt lat="43.874724972993135" lon="4.466014970093966">
        <ele>70.310000000000002</ele>
        <time>2025-05-16T14:32:57Z</time>
      </trkpt>
      <trkpt lat="43.874751040711999" lon="4.466121001169086">
        <ele>70.310000000000002</ele>
        <time>2025-05-16T14:32:58Z</time>
      </trkpt>
      <trkpt lat="43.874760009348392" lon="4.466223008930683">
        <ele>70.310000000000002</ele>
        <time>2025-05-16T14:32:59Z</time>
      </trkpt>
      <trkpt lat="43.874832009896636" lon="4.466503970324993">
        <ele>69.829999999999998</ele>
        <time>2025-05-16T14:33:01Z</time>
      </trkpt>
      <trkpt lat="43.874975005164742" lon="4.466521991416812">
        <ele>69.349999999999994</ele>
        <time>2025-05-16T14:33:02Z</time>
      </trkpt>
      <trkpt lat="43.875022027641535" lon="4.466575970873237">
        <ele>68.870000000000005</ele>
        <time>2025-05-16T14:33:03Z</time>
      </trkpt>
      <trkpt lat="43.875100985169411" lon="4.46666699834168">
        <ele>68.390000000000001</ele>
        <time>2025-05-16T14:33:04Z</time>
      </trkpt>
      <trkpt lat="43.875182038173079" lon="4.466760037466884">
        <ele>67.909999999999997</ele>
        <time>2025-05-16T14:33:05Z</time>
      </trkpt>
      <trkpt lat="43.875266024842858" lon="4.466871013864875">
        <ele>67.430000000000007</ele>
        <time>2025-05-16T14:33:06Z</time>
      </trkpt>
      <trkpt lat="43.875320004299283" lon="4.466999005526304">
        <ele>66.950000000000003</ele>
        <time>2025-05-16T14:33:07Z</time>
      </trkpt>
      <trkpt lat="43.875371972098947" lon="4.467119034379721">
        <ele>66.469999999999999</ele>
        <time>2025-05-16T14:33:08Z</time>
      </trkpt>
      <trkpt lat="43.875420000404119" lon="4.467232022434473">
        <ele>65.510000000000005</ele>
        <time>2025-05-16T14:33:09Z</time>
      </trkpt>
      <trkpt lat="43.875469034537673" lon="4.467346016317606">
        <ele>64.549999999999997</ele>
        <time>2025-05-16T14:33:10Z</time>
      </trkpt>
      <trkpt lat="43.875874970108271" lon="4.468342959880829">
        <ele>61.659999999999997</ele>
        <time>2025-05-16T14:33:18Z</time>
      </trkpt>
      <trkpt lat="43.875983012840152" lon="4.468710003420711">
        <ele>59.740000000000002</ele>
        <time>2025-05-16T14:33:27Z</time>
      </trkpt>
      <trkpt lat="43.875999022275209" lon="4.468780998140574">
        <ele>58.299999999999997</ele>
        <time>2025-05-16T14:33:36Z</time>
      </trkpt>
      <trkpt lat="43.876031041145325" lon="4.468920975923538">
        <ele>56.859999999999999</ele>
        <time>2025-05-16T14:33:51Z</time>
      </trkpt>
      <trkpt lat="43.876214018091559" lon="4.469714993610978">
        <ele>57.340000000000003</ele>
        <time>2025-05-16T14:33:59Z</time>
      </trkpt>
      <trkpt lat="43.876242013648152" lon="4.469853965565562">
        <ele>59.259999999999998</ele>
        <time>2025-05-16T14:34:02Z</time>
      </trkpt>
      <trkpt lat="43.876535966992378" lon="4.471066994592547">
        <ele>61.659999999999997</ele>
        <time>2025-05-16T14:34:09Z</time>
      </trkpt>
      <trkpt lat="43.876976016908884" lon="4.472961975261569">
        <ele>63.579999999999998</ele>
        <time>2025-05-16T14:34:18Z</time>
      </trkpt>
      <trkpt lat="43.877469962462783" lon="4.475017972290516">
        <ele>65.989999999999995</ele>
        <time>2025-05-16T14:34:30Z</time>
      </trkpt>
      <trkpt lat="43.877991987392306" lon="4.477211013436317">
        <ele>66.950000000000003</ele>
        <time>2025-05-16T14:34:42Z</time>
      </trkpt>
      <trkpt lat="43.878577966243029" lon="4.479656014591456">
        <ele>67.430000000000007</ele>
        <time>2025-05-16T14:34:55Z</time>
      </trkpt>
      <trkpt lat="43.879085993394256" lon="4.48147002607584">
        <ele>68.870000000000005</ele>
        <time>2025-05-16T14:35:03Z</time>
      </trkpt>
      <trkpt lat="43.879457982257009" lon="4.482793025672436">
        <ele>70.790000000000006</ele>
        <time>2025-05-16T14:35:10Z</time>
      </trkpt>
      <trkpt lat="43.879989981651306" lon="4.484454989433289">
        <ele>73.680000000000007</ele>
        <time>2025-05-16T14:35:20Z</time>
      </trkpt>
      <trkpt lat="43.880325006321073" lon="4.485551007091999">
        <ele>74.159999999999997</ele>
        <time>2025-05-16T14:35:27Z</time>
      </trkpt>
      <trkpt lat="43.88068500906229" lon="4.486748026683927">
        <ele>76.079999999999998</ele>
        <time>2025-05-16T14:35:37Z</time>
      </trkpt>
      <trkpt lat="43.880764972418547" lon="4.487038962543011">
        <ele>75.599999999999994</ele>
        <time>2025-05-16T14:35:42Z</time>
      </trkpt>
      <trkpt lat="43.880785005167127" lon="4.487112974748015">
        <ele>75.120000000000005</ele>
        <time>2025-05-16T14:35:44Z</time>
      </trkpt>
      <trkpt lat="43.88096303679049" lon="4.487611027434468">
        <ele>73.680000000000007</ele>
        <time>2025-05-16T14:35:50Z</time>
      </trkpt>
      <trkpt lat="43.881013998761773" lon="4.487739019095898">
        <ele>73.200000000000003</ele>
        <time>2025-05-16T14:35:52Z</time>
      </trkpt>
      <trkpt lat="43.881117012351751" lon="4.488007994368672">
        <ele>71.269999999999996</ele>
        <time>2025-05-16T14:35:56Z</time>
      </trkpt>
      <trkpt lat="43.881251038983464" lon="4.488375037908554">
        <ele>69.349999999999994</ele>
        <time>2025-05-16T14:36:03Z</time>
      </trkpt>
      <trkpt lat="43.881376013159752" lon="4.488679971545935">
        <ele>69.349999999999994</ele>
        <time>2025-05-16T14:36:09Z</time>
      </trkpt>
      <trkpt lat="43.881401997059584" lon="4.488731017336249">
        <ele>69.349999999999994</ele>
        <time>2025-05-16T14:36:10Z</time>
      </trkpt>
      <trkpt lat="43.881453964859247" lon="4.488863032311201">
        <ele>69.349999999999994</ele>
        <time>2025-05-16T14:36:13Z</time>
      </trkpt>
      <trkpt lat="43.881547003984451" lon="4.489089008420706">
        <ele>69.829999999999998</ele>
        <time>2025-05-16T14:36:15Z</time>
      </trkpt>
      <trkpt lat="43.881691005080938" lon="4.489411963149905">
        <ele>71.269999999999996</ele>
        <time>2025-05-16T14:36:23Z</time>
      </trkpt>
      <trkpt lat="43.881751019507647" lon="4.489546995609999">
        <ele>72.719999999999999</ele>
        <time>2025-05-16T14:36:29Z</time>
      </trkpt>
      <trkpt lat="43.881778009235859" lon="4.489608015865088">
        <ele>72.719999999999999</ele>
        <time>2025-05-16T14:36:33Z</time>
      </trkpt>
      <trkpt lat="43.882066011428833" lon="4.490256020799279">
        <ele>73.680000000000007</ele>
        <time>2025-05-16T14:36:41Z</time>
      </trkpt>
      <trkpt lat="43.882174976170063" lon="4.490484008565545">
        <ele>75.120000000000005</ele>
        <time>2025-05-16T14:36:44Z</time>
      </trkpt>
      <trkpt lat="43.882932029664516" lon="4.492059973999858">
        <ele>78</ele>
        <time>2025-05-16T14:36:55Z</time>
      </trkpt>
      <trkpt lat="43.883591014891863" lon="4.493340980261564">
        <ele>80.890000000000001</ele>
        <time>2025-05-16T14:37:04Z</time>
      </trkpt>
      <trkpt lat="43.884299034252763" lon="4.494717959314585">
        <ele>81.370000000000005</ele>
        <time>2025-05-16T14:37:14Z</time>
      </trkpt>
      <trkpt lat="43.884963970631361" lon="4.496050011366606">
        <ele>80.890000000000001</ele>
        <time>2025-05-16T14:37:24Z</time>
      </trkpt>
      <trkpt lat="43.885667966678739" lon="4.49754299595952">
        <ele>80.890000000000001</ele>
        <time>2025-05-16T14:37:32Z</time>
      </trkpt>
      <trkpt lat="43.886555023491383" lon="4.499294981360436">
        <ele>81.370000000000005</ele>
        <time>2025-05-16T14:37:41Z</time>
      </trkpt>
      <trkpt lat="43.887460017576814" lon="4.501122990623117">
        <ele>83.769999999999996</ele>
        <time>2025-05-16T14:37:51Z</time>
      </trkpt>
      <trkpt lat="43.888606997206807" lon="4.503449974581599">
        <ele>87.620000000000005</ele>
        <time>2025-05-16T14:38:02Z</time>
      </trkpt>
      <trkpt lat="43.890142980962992" lon="4.506476009264588">
        <ele>84.730000000000004</ele>
        <time>2025-05-16T14:38:17Z</time>
      </trkpt>
      <trkpt lat="43.891323991119862" lon="4.508017022162676">
        <ele>83.769999999999996</ele>
        <time>2025-05-16T14:38:25Z</time>
      </trkpt>
      <trkpt lat="43.89292904175818" lon="4.50993999838829">
        <ele>87.620000000000005</ele>
        <time>2025-05-16T14:38:37Z</time>
      </trkpt>
      <trkpt lat="43.893260965123773" lon="4.51034601777792">
        <ele>87.140000000000001</ele>
        <time>2025-05-16T14:38:42Z</time>
      </trkpt>
      <trkpt lat="43.893857002258301" lon="4.511068034917116">
        <ele>86.659999999999997</ele>
        <time>2025-05-16T14:38:49Z</time>
      </trkpt>
      <trkpt lat="43.89469301328063" lon="4.512075958773494">
        <ele>87.140000000000001</ele>
        <time>2025-05-16T14:38:57Z</time>
      </trkpt>
      <trkpt lat="43.896458996459842" lon="4.514371007680893">
        <ele>90.019999999999996</ele>
        <time>2025-05-16T14:39:08Z</time>
      </trkpt>
      <trkpt lat="43.897826001048088" lon="4.515887964516878">
        <ele>89.540000000000006</ele>
        <time>2025-05-16T14:39:16Z</time>
      </trkpt>
      <trkpt lat="43.899276992306113" lon="4.51685699634254">
        <ele>86.659999999999997</ele>
        <time>2025-05-16T14:39:23Z</time>
      </trkpt>
      <trkpt lat="43.901488976553082" lon="4.518235987052321">
        <ele>86.659999999999997</ele>
        <time>2025-05-16T14:39:36Z</time>
      </trkpt>
      <trkpt lat="43.903527036309242" lon="4.51950098387897">
        <ele>86.180000000000007</ele>
        <time>2025-05-16T14:39:47Z</time>
      </trkpt>
      <trkpt lat="43.90644502826035" lon="4.521364029496908">
        <ele>93.870000000000005</ele>
        <time>2025-05-16T14:40:02Z</time>
      </trkpt>
      <trkpt lat="43.908429024741054" lon="4.522621985524893">
        <ele>98.670000000000002</ele>
        <time>2025-05-16T14:40:14Z</time>
      </trkpt>
      <trkpt lat="43.910225015133619" lon="4.524157969281077">
        <ele>105.88</ele>
        <time>2025-05-16T14:40:25Z</time>
      </trkpt>
      <trkpt lat="43.911889996379614" lon="4.525982039049268">
        <ele>102.52</ele>
        <time>2025-05-16T14:40:35Z</time>
      </trkpt>
      <trkpt lat="43.914275988936424" lon="4.52837398275733">
        <ele>92.420000000000002</ele>
        <time>2025-05-16T14:40:49Z</time>
      </trkpt>
      <trkpt lat="43.916388982906938" lon="4.530471973121166">
        <ele>83.769999999999996</ele>
        <time>2025-05-16T14:41:01Z</time>
      </trkpt>
      <trkpt lat="43.918767012655735" lon="4.532830975949764">
        <ele>77.519999999999996</ele>
        <time>2025-05-16T14:41:15Z</time>
      </trkpt>
      <trkpt lat="43.920929040759802" lon="4.535075984895229">
        <ele>70.310000000000002</ele>
        <time>2025-05-16T14:41:28Z</time>
      </trkpt>
      <trkpt lat="43.922638026997447" lon="4.537383019924164">
        <ele>62.140000000000001</ele>
        <time>2025-05-16T14:41:39Z</time>
      </trkpt>
      <trkpt lat="43.923688028007746" lon="4.539109021425247">
        <ele>57.82</ele>
        <time>2025-05-16T14:41:50Z</time>
      </trkpt>
      <trkpt lat="43.924425970762968" lon="4.540463034063578">
        <ele>57.340000000000003</ele>
        <time>2025-05-16T14:41:59Z</time>
      </trkpt>
      <trkpt lat="43.925258964300156" lon="4.542008992284536">
        <ele>56.859999999999999</ele>
        <time>2025-05-16T14:42:11Z</time>
      </trkpt>
      <trkpt lat="43.925787024199963" lon="4.543169969692826">
        <ele>55.409999999999997</ele>
        <time>2025-05-16T14:42:21Z</time>
      </trkpt>
      <trkpt lat="43.926098998636007" lon="4.543810011819005">
        <ele>53.969999999999999</ele>
        <time>2025-05-16T14:42:27Z</time>
      </trkpt>
      <trkpt lat="43.926235036924481" lon="4.544018972665072">
        <ele>53.009999999999998</ele>
        <time>2025-05-16T14:42:29Z</time>
      </trkpt>
      <trkpt lat="43.926313994452357" lon="4.544114023447037">
        <ele>52.530000000000001</ele>
        <time>2025-05-16T14:42:30Z</time>
      </trkpt>
      <trkpt lat="43.926397981122136" lon="4.544203961268067">
        <ele>52.530000000000001</ele>
        <time>2025-05-16T14:42:31Z</time>
      </trkpt>
      <trkpt lat="43.927417974919081" lon="4.54510903917253">
        <ele>46.280000000000001</ele>
        <time>2025-05-16T14:42:43Z</time>
      </trkpt>
      <trkpt lat="43.927577985450625" lon="4.54524097032845">
        <ele>45.32</ele>
        <time>2025-05-16T14:42:45Z</time>
      </trkpt>
      <trkpt lat="43.927660966292024" lon="4.545310037210584">
        <ele>45.32</ele>
        <time>2025-05-16T14:42:46Z</time>
      </trkpt>
      <trkpt lat="43.928416008129716" lon="4.546112017706037">
        <ele>45.32</ele>
        <time>2025-05-16T14:42:55Z</time>
      </trkpt>
      <trkpt lat="43.928498988971114" lon="4.546223999932408">
        <ele>45.32</ele>
        <time>2025-05-16T14:42:56Z</time>
      </trkpt>
      <trkpt lat="43.92902797088027" lon="4.54693503677845">
        <ele>48.68</ele>
        <time>2025-05-16T14:43:02Z</time>
      </trkpt>
      <trkpt lat="43.93029497936368" lon="4.548609992489219">
        <ele>51.57</ele>
        <time>2025-05-16T14:43:14Z</time>
      </trkpt>
      <trkpt lat="43.931429972872138" lon="4.550464991480112">
        <ele>48.200000000000003</ele>
        <time>2025-05-16T14:43:24Z</time>
      </trkpt>
      <trkpt lat="43.931817971169949" lon="4.551348024979234">
        <ele>46.280000000000001</ele>
        <time>2025-05-16T14:43:28Z</time>
      </trkpt>
      <trkpt lat="43.931878991425037" lon="4.551568971946836">
        <ele>45.32</ele>
        <time>2025-05-16T14:43:29Z</time>
      </trkpt>
      <trkpt lat="43.932002959772944" lon="4.552015978842974">
        <ele>42.439999999999998</ele>
        <time>2025-05-16T14:43:31Z</time>
      </trkpt>
      <trkpt lat="43.932095998898149" lon="4.552217982709408">
        <ele>40.990000000000002</ele>
        <time>2025-05-16T14:43:32Z</time>
      </trkpt>
      <trkpt lat="43.932218039408326" lon="4.552405988797545">
        <ele>39.549999999999997</ele>
        <time>2025-05-16T14:43:33Z</time>
      </trkpt>
      <trkpt lat="43.933324031531811" lon="4.554086979478598">
        <ele>29.940000000000001</ele>
        <time>2025-05-16T14:43:42Z</time>
      </trkpt>
      <trkpt lat="43.934030961245298" lon="4.555128011852503">
        <ele>23.690000000000001</ele>
        <time>2025-05-16T14:43:49Z</time>
      </trkpt>
      <trkpt lat="43.934170017018914" lon="4.555411990731955">
        <ele>23.210000000000001</ele>
        <time>2025-05-16T14:43:51Z</time>
      </trkpt>
      <trkpt lat="43.934241011738777" lon="4.555570995435119">
        <ele>22.73</ele>
        <time>2025-05-16T14:43:52Z</time>
      </trkpt>
      <trkpt lat="43.934285016730428" lon="4.555734023451805">
        <ele>22.25</ele>
        <time>2025-05-16T14:43:53Z</time>
      </trkpt>
      <trkpt lat="43.934330027550459" lon="4.555898979306221">
        <ele>21.77</ele>
        <time>2025-05-16T14:43:54Z</time>
      </trkpt>
      <trkpt lat="43.934373026713729" lon="4.556064018979669">
        <ele>21.289999999999999</ele>
        <time>2025-05-16T14:43:55Z</time>
      </trkpt>
      <trkpt lat="43.934476962313056" lon="4.556772960349917">
        <ele>18.879999999999999</ele>
        <time>2025-05-16T14:44:00Z</time>
      </trkpt>
      <trkpt lat="43.934532031416893" lon="4.556874968111515">
        <ele>18.399999999999999</ele>
        <time>2025-05-16T14:44:01Z</time>
      </trkpt>
      <trkpt lat="43.934582993388176" lon="4.55697001889348">
        <ele>18.399999999999999</ele>
        <time>2025-05-16T14:44:02Z</time>
      </trkpt>
      <trkpt lat="43.934654993936419" lon="4.557058028876782">
        <ele>18.399999999999999</ele>
        <time>2025-05-16T14:44:03Z</time>
      </trkpt>
      <trkpt lat="43.934745015576482" lon="4.55707797780633">
        <ele>17.920000000000002</ele>
        <time>2025-05-16T14:44:04Z</time>
      </trkpt>
      <trkpt lat="43.934838976711035" lon="4.557094993069768">
        <ele>17.920000000000002</ele>
        <time>2025-05-16T14:44:06Z</time>
      </trkpt>
      <trkpt lat="43.935126978904009" lon="4.557094993069768">
        <ele>17.440000000000001</ele>
        <time>2025-05-16T14:44:08Z</time>
      </trkpt>
      <trkpt lat="43.935229992493987" lon="4.557071020826697">
        <ele>17.440000000000001</ele>
        <time>2025-05-16T14:44:09Z</time>
      </trkpt>
      <trkpt lat="43.935431996360421" lon="4.556999020278454">
        <ele>17.440000000000001</ele>
        <time>2025-05-16T14:44:11Z</time>
      </trkpt>
      <trkpt lat="43.935623019933701" lon="4.556907992810011">
        <ele>17.920000000000002</ele>
        <time>2025-05-16T14:44:13Z</time>
      </trkpt>
      <trkpt lat="43.935713963583112" lon="4.556861976161599">
        <ele>17.920000000000002</ele>
        <time>2025-05-16T14:44:14Z</time>
      </trkpt>
      <trkpt lat="43.93656799569726" lon="4.55623802728951">
        <ele>19.359999999999999</ele>
        <time>2025-05-16T14:44:24Z</time>
      </trkpt>
      <trkpt lat="43.936680983752012" lon="4.556130990386009">
        <ele>19.84</ele>
        <time>2025-05-16T14:44:26Z</time>
      </trkpt>
      <trkpt lat="43.936730017885566" lon="4.556084973737598">
        <ele>20.32</ele>
        <time>2025-05-16T14:44:27Z</time>
      </trkpt>
      <trkpt lat="43.936819033697248" lon="4.556121015921235">
        <ele>20.809999999999999</ele>
        <time>2025-05-16T14:44:28Z</time>
      </trkpt>
      <trkpt lat="43.936865972355008" lon="4.556159991770983">
        <ele>20.809999999999999</ele>
        <time>2025-05-16T14:44:29Z</time>
      </trkpt>
      <trkpt lat="43.936937972903252" lon="4.556137025356293">
        <ele>21.289999999999999</ele>
        <time>2025-05-16T14:44:30Z</time>
      </trkpt>
      <trkpt lat="43.937007961794734" lon="4.556144988164306">
        <ele>21.289999999999999</ele>
        <time>2025-05-16T14:44:31Z</time>
      </trkpt>
      <trkpt lat="43.937033023685217" lon="4.556193016469479">
        <ele>21.77</ele>
        <time>2025-05-16T14:44:33Z</time>
      </trkpt>
      <trkpt lat="43.937060013413429" lon="4.556242972612381">
        <ele>22.25</ele>
        <time>2025-05-16T14:44:34Z</time>
      </trkpt>
      <trkpt lat="43.937092032283545" lon="4.556302987039089">
        <ele>22.25</ele>
        <time>2025-05-16T14:44:35Z</time>
      </trkpt>
      <trkpt lat="43.937250031158328" lon="4.556595012545586">
        <ele>24.170000000000002</ele>
        <time>2025-05-16T14:44:39Z</time>
      </trkpt>
      <trkpt lat="43.937291018664837" lon="4.556671036407352">
        <ele>24.649999999999999</ele>
        <time>2025-05-16T14:44:40Z</time>
      </trkpt>
      <trkpt lat="43.937775995582342" lon="4.55754904076457">
        <ele>27.530000000000001</ele>
        <time>2025-05-16T14:44:52Z</time>
      </trkpt>
      <trkpt lat="43.937802985310555" lon="4.557596985250711">
        <ele>27.530000000000001</ele>
        <time>2025-05-16T14:44:53Z</time>
      </trkpt>
      <trkpt lat="43.937827963382006" lon="4.557641996070743">
        <ele>28.02</ele>
        <time>2025-05-16T14:44:54Z</time>
      </trkpt>
      <trkpt lat="43.938117977231741" lon="4.55819696187973">
        <ele>29.460000000000001</ele>
        <time>2025-05-16T14:45:08Z</time>
      </trkpt>
      <trkpt lat="43.938231971114874" lon="4.558403994888067">
        <ele>31.379999999999999</ele>
        <time>2025-05-16T14:45:14Z</time>
      </trkpt>
      <trkpt lat="43.938258038833737" lon="4.558455040678382">
        <ele>31.859999999999999</ele>
        <time>2025-05-16T14:45:16Z</time>
      </trkpt>
      <trkpt lat="43.938279999420047" lon="4.558499967679381">
        <ele>31.859999999999999</ele>
        <time>2025-05-16T14:45:17Z</time>
      </trkpt>
      <trkpt lat="43.938359040766954" lon="4.558657966554165">
        <ele>32.340000000000003</ele>
        <time>2025-05-16T14:45:28Z</time>
      </trkpt>
      <trkpt lat="43.93852299079299" lon="4.558991985395551">
        <ele>32.340000000000003</ele>
        <time>2025-05-16T14:45:37Z</time>
      </trkpt>
      <trkpt lat="43.938592979684472" lon="4.559174962341785">
        <ele>32.82</ele>
        <time>2025-05-16T14:45:39Z</time>
      </trkpt>
      <trkpt lat="43.938618041574955" lon="4.559240005910397">
        <ele>32.340000000000003</ele>
        <time>2025-05-16T14:45:40Z</time>
      </trkpt>
      <trkpt lat="43.938632039353251" lon="4.55929197371006">
        <ele>32.340000000000003</ele>
        <time>2025-05-16T14:45:41Z</time>
      </trkpt>
      <trkpt lat="43.938662968575954" lon="4.559404961764813">
        <ele>32.340000000000003</ele>
        <time>2025-05-16T14:45:44Z</time>
      </trkpt>
      <trkpt lat="43.938662968575954" lon="4.559404961764813">
        <ele>32.340000000000003</ele>
        <time>2025-05-16T14:45:54Z</time>
      </trkpt>
      <trkpt lat="43.938662968575954" lon="4.559404961764813">
        <ele>32.340000000000003</ele>
        <time>2025-05-16T14:46:14Z</time>
      </trkpt>
      <trkpt lat="43.938675038516521" lon="4.559449972584844">
        <ele>32.82</ele>
        <time>2025-05-16T14:46:27Z</time>
      </trkpt>
      <trkpt lat="43.938718037679791" lon="4.559618029743433">
        <ele>33.299999999999997</ele>
        <time>2025-05-16T14:46:35Z</time>
      </trkpt>
      <trkpt lat="43.938750978559256" lon="4.559765970334411">
        <ele>31.859999999999999</ele>
        <time>2025-05-16T14:46:43Z</time>
      </trkpt>
      <trkpt lat="43.938779979944229" lon="4.559883987531066">
        <ele>31.859999999999999</ele>
        <time>2025-05-16T14:46:45Z</time>
      </trkpt>
      <trkpt lat="43.938820967450738" lon="4.559883987531066">
        <ele>31.379999999999999</ele>
        <time>2025-05-16T14:46:46Z</time>
      </trkpt>
      <trkpt lat="43.939463021233678" lon="4.559931010007858">
        <ele>29.940000000000001</ele>
        <time>2025-05-16T14:46:56Z</time>
      </trkpt>
      <trkpt lat="43.940151007845998" lon="4.55997996032238">
        <ele>27.530000000000001</ele>
        <time>2025-05-16T14:47:04Z</time>
      </trkpt>
      <trkpt lat="43.940224014222622" lon="4.559985995292664">
        <ele>27.050000000000001</ele>
        <time>2025-05-16T14:47:05Z</time>
      </trkpt>
      <trkpt lat="43.94028696231544" lon="4.559991024434567">
        <ele>26.57</ele>
        <time>2025-05-16T14:47:06Z</time>
      </trkpt>
      <trkpt lat="43.940344965085387" lon="4.559991024434567">
        <ele>26.09</ele>
        <time>2025-05-16T14:47:07Z</time>
      </trkpt>
      <trkpt lat="43.940409002825618" lon="4.559991024434567">
        <ele>25.609999999999999</ele>
        <time>2025-05-16T14:47:08Z</time>
      </trkpt>
      <trkpt lat="43.940490977838635" lon="4.560005022212863">
        <ele>25.129999999999999</ele>
        <time>2025-05-16T14:47:09Z</time>
      </trkpt>
      <trkpt lat="43.941360013559461" lon="4.560164026916027">
        <ele>23.210000000000001</ele>
        <time>2025-05-16T14:47:17Z</time>
      </trkpt>
      <trkpt lat="43.942092005163431" lon="4.560294030234218">
        <ele>22.25</ele>
        <time>2025-05-16T14:47:25Z</time>
      </trkpt>
      <trkpt lat="43.943752963095903" lon="4.560544984415174">
        <ele>24.170000000000002</ele>
        <time>2025-05-16T14:47:39Z</time>
      </trkpt>
      <trkpt lat="43.9438930246979" lon="4.560561999678612">
        <ele>24.170000000000002</ele>
        <time>2025-05-16T14:47:40Z</time>
      </trkpt>
      <trkpt lat="43.945048972964287" lon="4.560254970565438">
        <ele>23.690000000000001</ele>
        <time>2025-05-16T14:47:48Z</time>
      </trkpt>
      <trkpt lat="43.946441961452365" lon="4.559730011969805">
        <ele>24.170000000000002</ele>
        <time>2025-05-16T14:47:56Z</time>
      </trkpt>
      <trkpt lat="43.946619993075728" lon="4.559663040563464">
        <ele>24.170000000000002</ele>
        <time>2025-05-16T14:47:57Z</time>
      </trkpt>
      <trkpt lat="43.948267959058285" lon="4.559067003428936">
        <ele>25.129999999999999</ele>
        <time>2025-05-16T14:48:06Z</time>
      </trkpt>
      <trkpt lat="43.950355974957347" lon="4.55823602154851">
        <ele>24.649999999999999</ele>
        <time>2025-05-16T14:48:17Z</time>
      </trkpt>
      <trkpt lat="43.950844975188375" lon="4.557758001610637">
        <ele>24.649999999999999</ele>
        <time>2025-05-16T14:48:20Z</time>
      </trkpt>
      <trkpt lat="43.951147980988026" lon="4.557382995262742">
        <ele>24.170000000000002</ele>
        <time>2025-05-16T14:48:22Z</time>
      </trkpt>
      <trkpt lat="43.951871003955603" lon="4.556039040908217">
        <ele>23.210000000000001</ele>
        <time>2025-05-16T14:48:28Z</time>
      </trkpt>
      <trkpt lat="43.951945016160607" lon="4.55581096932292">
        <ele>23.210000000000001</ele>
        <time>2025-05-16T14:48:29Z</time>
      </trkpt>
      <trkpt lat="43.952289009466767" lon="4.554103994742036">
        <ele>24.170000000000002</ele>
        <time>2025-05-16T14:48:35Z</time>
      </trkpt>
      <trkpt lat="43.952320022508502" lon="4.553927974775434">
        <ele>24.170000000000002</ele>
        <time>2025-05-16T14:48:37Z</time>
      </trkpt>
      <trkpt lat="43.952629985287786" lon="4.552722992375493">
        <ele>26.09</ele>
        <time>2025-05-16T14:48:47Z</time>
      </trkpt>
      <trkpt lat="43.952926034107804" lon="4.551281975582242">
        <ele>27.530000000000001</ele>
        <time>2025-05-16T14:48:59Z</time>
      </trkpt>
      <trkpt lat="43.952950006350875" lon="4.551177034154534">
        <ele>27.530000000000001</ele>
        <time>2025-05-16T14:49:01Z</time>
      </trkpt>
      <trkpt lat="43.953220993280411" lon="4.550047991797328">
        <ele>28.5</ele>
        <time>2025-05-16T14:49:11Z</time>
      </trkpt>
      <trkpt lat="43.953266004100442" lon="4.549840036779642">
        <ele>28.98</ele>
        <time>2025-05-16T14:49:14Z</time>
      </trkpt>
      <trkpt lat="43.953311014920473" lon="4.549636021256447">
        <ele>29.460000000000001</ele>
        <time>2025-05-16T14:49:16Z</time>
      </trkpt>
      <trkpt lat="43.953638998791575" lon="4.548245966434479">
        <ele>33.299999999999997</ele>
        <time>2025-05-16T14:49:30Z</time>
      </trkpt>
      <trkpt lat="43.953891964629292" lon="4.547196971252561">
        <ele>32.340000000000003</ele>
        <time>2025-05-16T14:49:39Z</time>
      </trkpt>
      <trkpt lat="43.953921971842647" lon="4.54706596210599">
        <ele>32.340000000000003</ele>
        <time>2025-05-16T14:49:40Z</time>
      </trkpt>
      <trkpt lat="43.95395097322762" lon="4.54693696461618">
        <ele>32.340000000000003</ele>
        <time>2025-05-16T14:49:41Z</time>
      </trkpt>
      <trkpt lat="43.953977962955832" lon="4.546820037066937">
        <ele>32.340000000000003</ele>
        <time>2025-05-16T14:49:42Z</time>
      </trkpt>
      <trkpt lat="43.954083994030952" lon="4.54635601490736">
        <ele>31.859999999999999</ele>
        <time>2025-05-16T14:49:46Z</time>
      </trkpt>
      <trkpt lat="43.954164041206241" lon="4.546168008819223">
        <ele>31.859999999999999</ele>
        <time>2025-05-16T14:49:48Z</time>
      </trkpt>
      <trkpt lat="43.954217014834285" lon="4.546101037412882">
        <ele>31.859999999999999</ele>
        <time>2025-05-16T14:49:49Z</time>
      </trkpt>
      <trkpt lat="43.954275017604232" lon="4.546036999672651">
        <ele>31.859999999999999</ele>
        <time>2025-05-16T14:49:50Z</time>
      </trkpt>
      <trkpt lat="43.954438967630267" lon="4.546072036027908">
        <ele>32.340000000000003</ele>
        <time>2025-05-16T14:49:52Z</time>
      </trkpt>
      <trkpt lat="43.954539969563484" lon="4.546150993555784">
        <ele>32.340000000000003</ele>
        <time>2025-05-16T14:49:53Z</time>
      </trkpt>
      <trkpt lat="43.954724036157131" lon="4.546068012714386">
        <ele>31.859999999999999</ele>
        <time>2025-05-16T14:49:54Z</time>
      </trkpt>
      <trkpt lat="43.954723030328751" lon="4.546068012714386">
        <ele>31.859999999999999</ele>
        <time>2025-05-16T14:49:55Z</time>
      </trkpt>
      <trkpt lat="43.954779021441936" lon="4.545978996902704">
        <ele>31.859999999999999</ele>
        <time>2025-05-16T14:49:56Z</time>
      </trkpt>
      <trkpt lat="43.954828977584839" lon="4.545831978321075">
        <ele>31.379999999999999</ele>
        <time>2025-05-16T14:49:57Z</time>
      </trkpt>
      <trkpt lat="43.954840041697025" lon="4.545743968337774">
        <ele>31.379999999999999</ele>
        <time>2025-05-16T14:49:58Z</time>
      </trkpt>
      <trkpt lat="43.954784972593188" lon="4.545579012483358">
        <ele>31.379999999999999</ele>
        <time>2025-05-16T14:49:59Z</time>
      </trkpt>
      <trkpt lat="43.954714983701706" lon="4.545501982793212">
        <ele>31.859999999999999</ele>
        <time>2025-05-16T14:50:00Z</time>
      </trkpt>
      <trkpt lat="43.954668967053294" lon="4.545465018600225">
        <ele>31.859999999999999</ele>
        <time>2025-05-16T14:50:01Z</time>
      </trkpt>
      <trkpt lat="43.954668967053294" lon="4.545465018600225">
        <ele>31.859999999999999</ele>
        <time>2025-05-16T14:50:02Z</time>
      </trkpt>
      <trkpt lat="43.95448699593544" lon="4.545222027227283">
        <ele>31.859999999999999</ele>
        <time>2025-05-16T14:50:03Z</time>
      </trkpt>
      <trkpt lat="43.954480038955808" lon="4.545079031959176">
        <ele>31.859999999999999</ele>
        <time>2025-05-16T14:50:04Z</time>
      </trkpt>
      <trkpt lat="43.954479033127427" lon="4.544924972578883">
        <ele>31.379999999999999</ele>
        <time>2025-05-16T14:50:05Z</time>
      </trkpt>
      <trkpt lat="43.954499987885356" lon="4.544617021456361">
        <ele>30.899999999999999</ele>
        <time>2025-05-16T14:50:07Z</time>
      </trkpt>
      <trkpt lat="43.954510968178511" lon="4.544463967904449">
        <ele>30.420000000000002</ele>
        <time>2025-05-16T14:50:08Z</time>
      </trkpt>
      <trkpt lat="43.954521026462317" lon="4.544312003999949">
        <ele>30.420000000000002</ele>
        <time>2025-05-16T14:50:09Z</time>
      </trkpt>
      <trkpt lat="43.954532006755471" lon="4.544152999296784">
        <ele>29.940000000000001</ele>
        <time>2025-05-16T14:50:10Z</time>
      </trkpt>
      <trkpt lat="43.954541981220245" lon="4.54399298876524">
        <ele>29.460000000000001</ele>
        <time>2025-05-16T14:50:11Z</time>
      </trkpt>
      <trkpt lat="43.954577017575502" lon="4.54322000965476">
        <ele>28.98</ele>
        <time>2025-05-16T14:50:16Z</time>
      </trkpt>
      <trkpt lat="43.954699980095029" lon="4.541774969547987">
        <ele>28.98</ele>
        <time>2025-05-16T14:50:26Z</time>
      </trkpt>
      <trkpt lat="43.954713977873325" lon="4.541632980108261">
        <ele>28.98</ele>
        <time>2025-05-16T14:50:27Z</time>
      </trkpt>
      <trkpt lat="43.954782038927078" lon="4.54059898853302">
        <ele>28.5</ele>
        <time>2025-05-16T14:50:35Z</time>
      </trkpt>
      <trkpt lat="43.954790001735091" lon="4.540476026013494">
        <ele>28.5</ele>
        <time>2025-05-16T14:50:36Z</time>
      </trkpt>
      <trkpt lat="43.954825960099697" lon="4.539826009422541">
        <ele>29.940000000000001</ele>
        <time>2025-05-16T14:50:42Z</time>
      </trkpt>
      <trkpt lat="43.954829983413219" lon="4.539740011096001">
        <ele>30.420000000000002</ele>
        <time>2025-05-16T14:50:43Z</time>
      </trkpt>
      <trkpt lat="43.954833000898361" lon="4.539659963920713">
        <ele>30.899999999999999</ele>
        <time>2025-05-16T14:50:44Z</time>
      </trkpt>
      <trkpt lat="43.954836018383503" lon="4.539576983079314">
        <ele>30.899999999999999</ele>
        <time>2025-05-16T14:50:45Z</time>
      </trkpt>
      <trkpt lat="43.954971972852945" lon="4.539340026676655">
        <ele>31.379999999999999</ele>
        <time>2025-05-16T14:50:47Z</time>
      </trkpt>
      <trkpt lat="43.954982031136751" lon="4.539253022521734">
        <ele>31.859999999999999</ele>
        <time>2025-05-16T14:50:48Z</time>
      </trkpt>
      <trkpt lat="43.954975996166468" lon="4.539147997274995">
        <ele>32.340000000000003</ele>
        <time>2025-05-16T14:50:49Z</time>
      </trkpt>
      <trkpt lat="43.954923022538424" lon="4.539084965363145">
        <ele>32.82</ele>
        <time>2025-05-16T14:50:50Z</time>
      </trkpt>
      <trkpt lat="43.954884968698025" lon="4.539024028927088">
        <ele>33.299999999999997</ele>
        <time>2025-05-16T14:50:51Z</time>
      </trkpt>
      <trkpt lat="43.954839035868645" lon="4.538993015885353">
        <ele>33.780000000000001</ele>
        <time>2025-05-16T14:50:52Z</time>
      </trkpt>
      <trkpt lat="43.954777009785175" lon="4.538988992571831">
        <ele>34.259999999999998</ele>
        <time>2025-05-16T14:50:53Z</time>
      </trkpt>
      <trkpt lat="43.954706015065312" lon="4.538997039198875">
        <ele>34.740000000000002</ele>
        <time>2025-05-16T14:50:54Z</time>
      </trkpt>
      <trkpt lat="43.954552039504051" lon="4.538971977308393">
        <ele>34.740000000000002</ele>
        <time>2025-05-16T14:50:56Z</time>
      </trkpt>
      <trkpt lat="43.954476015642285" lon="4.538934007287026">
        <ele>34.740000000000002</ele>
        <time>2025-05-16T14:50:57Z</time>
      </trkpt>
      <trkpt lat="43.954336037859321" lon="4.538827976211906">
        <ele>34.740000000000002</ele>
        <time>2025-05-16T14:50:59Z</time>
      </trkpt>
      <trkpt lat="43.954084999859333" lon="4.538572998717427">
        <ele>35.229999999999997</ele>
        <time>2025-05-16T14:51:03Z</time>
      </trkpt>
      <trkpt lat="43.953430037945509" lon="4.537941003218293">
        <ele>35.710000000000001</ele>
        <time>2025-05-16T14:51:12Z</time>
      </trkpt>
      <trkpt lat="43.953356025740504" lon="4.537875959649682">
        <ele>35.710000000000001</ele>
        <time>2025-05-16T14:51:13Z</time>
      </trkpt>
      <trkpt lat="43.953291988000274" lon="4.53780303709209">
        <ele>36.189999999999998</ele>
        <time>2025-05-16T14:51:14Z</time>
      </trkpt>
      <trkpt lat="43.953229961916804" lon="4.537730030715466">
        <ele>36.189999999999998</ele>
        <time>2025-05-16T14:51:15Z</time>
      </trkpt>
      <trkpt lat="43.953165002167225" lon="4.537661969661713">
        <ele>36.189999999999998</ele>
        <time>2025-05-16T14:51:16Z</time>
      </trkpt>
      <trkpt lat="43.953030975535512" lon="4.537533978000283">
        <ele>36.189999999999998</ele>
        <time>2025-05-16T14:51:18Z</time>
      </trkpt>
      <trkpt lat="43.952492019161582" lon="4.536979012191296">
        <ele>39.549999999999997</ele>
        <time>2025-05-16T14:51:26Z</time>
      </trkpt>
      <trkpt lat="43.952426975592971" lon="4.536910029128194">
        <ele>40.030000000000001</ele>
        <time>2025-05-16T14:51:27Z</time>
      </trkpt>
      <trkpt lat="43.952247016131878" lon="4.536699978634715">
        <ele>41.950000000000003</ele>
        <time>2025-05-16T14:51:30Z</time>
      </trkpt>
      <trkpt lat="43.952204016968608" lon="4.53662202693522">
        <ele>41.950000000000003</ele>
        <time>2025-05-16T14:51:31Z</time>
      </trkpt>
      <trkpt lat="43.952173003926873" lon="4.536491017788649">
        <ele>41.950000000000003</ele>
        <time>2025-05-16T14:51:33Z</time>
      </trkpt>
      <trkpt lat="43.952206028625369" lon="4.536335030570626">
        <ele>42.439999999999998</ele>
        <time>2025-05-16T14:51:36Z</time>
      </trkpt>
      <trkpt lat="43.952342988923192" lon="4.53617300838232">
        <ele>41.950000000000003</ele>
        <time>2025-05-16T14:51:41Z</time>
      </trkpt>
      <trkpt lat="43.952366961166263" lon="4.53617200255394">
        <ele>41.469999999999999</ele>
        <time>2025-05-16T14:51:42Z</time>
      </trkpt>
      <trkpt lat="43.952407026663423" lon="4.536175020039082">
        <ele>41.469999999999999</ele>
        <time>2025-05-16T14:51:54Z</time>
      </trkpt>
      <trkpt lat="43.95240199752152" lon="4.53617300838232">
        <ele>41.950000000000003</ele>
        <time>2025-05-16T14:52:28Z</time>
      </trkpt>
      <trkpt lat="43.952400991693139" lon="4.536175020039082">
        <ele>41.950000000000003</ele>
        <time>2025-05-16T14:53:17Z</time>
      </trkpt>
      <trkpt lat="43.952411971986294" lon="4.536135960370302">
        <ele>41.469999999999999</ele>
        <time>2025-05-16T14:53:51Z</time>
      </trkpt>
      <trkpt lat="43.95242303609848" lon="4.536113999783993">
        <ele>41.469999999999999</ele>
        <time>2025-05-16T14:53:52Z</time>
      </trkpt>
      <trkpt lat="43.952438961714506" lon="4.536084998399019">
        <ele>40.990000000000002</ele>
        <time>2025-05-16T14:53:53Z</time>
      </trkpt>
      <trkpt lat="43.95246603526175" lon="4.536055997014046">
        <ele>41.469999999999999</ele>
        <time>2025-05-16T14:53:54Z</time>
      </trkpt>
      <trkpt lat="43.952502999454737" lon="4.536032024770975">
        <ele>41.469999999999999</ele>
        <time>2025-05-16T14:53:55Z</time>
      </trkpt>
      <trkpt lat="43.952538035809994" lon="4.536020960658789">
        <ele>41.469999999999999</ele>
        <time>2025-05-16T14:53:56Z</time>
      </trkpt>
      <trkpt lat="43.952562008053064" lon="4.536010986194015">
        <ele>40.990000000000002</ele>
        <time>2025-05-16T14:53:57Z</time>
      </trkpt>
      <trkpt lat="43.952581034973264" lon="4.53600101172924">
        <ele>40.509999999999998</ele>
        <time>2025-05-16T14:53:58Z</time>
      </trkpt>
      <trkpt lat="43.952635014429688" lon="4.535956000909209">
        <ele>37.630000000000003</ele>
        <time>2025-05-16T14:54:02Z</time>
      </trkpt>
      <trkpt lat="43.952671978622675" lon="4.535942003130913">
        <ele>34.259999999999998</ele>
        <time>2025-05-16T14:54:18Z</time>
      </trkpt>
      <trkpt lat="43.952781027182937" lon="4.535900009796023">
        <ele>31.859999999999999</ele>
        <time>2025-05-16T14:54:36Z</time>
      </trkpt>
      <trkpt lat="43.952897032722831" lon="4.535833960399032">
        <ele>31.859999999999999</ele>
        <time>2025-05-16T14:54:38Z</time>
      </trkpt>
      <trkpt lat="43.953215964138508" lon="4.535748967900872">
        <ele>29.940000000000001</ele>
        <time>2025-05-16T14:54:44Z</time>
      </trkpt>
      <trkpt lat="43.953259969130158" lon="4.535747040063143">
        <ele>28.98</ele>
        <time>2025-05-16T14:54:45Z</time>
      </trkpt>
      <trkpt lat="43.953358959406614" lon="4.535762965679169">
        <ele>27.050000000000001</ele>
        <time>2025-05-16T14:54:47Z</time>
      </trkpt>
      <trkpt lat="43.953408999368548" lon="4.535775035619736">
        <ele>26.09</ele>
        <time>2025-05-16T14:54:48Z</time>
      </trkpt>
      <trkpt lat="43.953459039330482" lon="4.535781992599368">
        <ele>25.129999999999999</ele>
        <time>2025-05-16T14:54:49Z</time>
      </trkpt>
      <trkpt lat="43.953504972159863" lon="4.53578501008451">
        <ele>24.170000000000002</ele>
        <time>2025-05-16T14:54:50Z</time>
      </trkpt>
      <trkpt lat="43.953591976314783" lon="4.535798002034426">
        <ele>22.73</ele>
        <time>2025-05-16T14:54:52Z</time>
      </trkpt>
      <trkpt lat="43.953966982662678" lon="4.535885006189346">
        <ele>15.52</ele>
        <time>2025-05-16T14:55:02Z</time>
      </trkpt>
      <trkpt lat="43.95431499928236" lon="4.535638997331262">
        <ele>14.08</ele>
        <time>2025-05-16T14:55:11Z</time>
      </trkpt>
      <trkpt lat="43.954304018989205" lon="4.535507988184691">
        <ele>15.52</ele>
        <time>2025-05-16T14:55:17Z</time>
      </trkpt>
      <trkpt lat="43.954299995675683" lon="4.53546398319304">
        <ele>15.52</ele>
        <time>2025-05-16T14:55:18Z</time>
      </trkpt>
      <trkpt lat="43.954296978190541" lon="4.535432970151305">
        <ele>16</ele>
        <time>2025-05-16T14:55:19Z</time>
      </trkpt>
      <trkpt lat="43.9542939607054" lon="4.535401035100222">
        <ele>16.48</ele>
        <time>2025-05-16T14:55:20Z</time>
      </trkpt>
      <trkpt lat="43.954291027039289" lon="4.535365998744965">
        <ele>16.960000000000001</ele>
        <time>2025-05-16T14:55:21Z</time>
      </trkpt>
      <trkpt lat="43.954288009554148" lon="4.535335991531611">
        <ele>16.960000000000001</ele>
        <time>2025-05-16T14:55:22Z</time>
      </trkpt>
      <trkpt lat="43.954284992069006" lon="4.535298021510243">
        <ele>16.960000000000001</ele>
        <time>2025-05-16T14:55:23Z</time>
      </trkpt>
      <trkpt lat="43.954281974583864" lon="4.535272037610412">
        <ele>16.960000000000001</ele>
        <time>2025-05-16T14:55:24Z</time>
      </trkpt>
      <trkpt lat="43.954281974583864" lon="4.535272037610412">
        <ele>17.440000000000001</ele>
        <time>2025-05-16T14:55:26Z</time>
      </trkpt>
      <trkpt lat="43.954275017604232" lon="4.535188972949982">
        <ele>17.920000000000002</ele>
        <time>2025-05-16T14:55:28Z</time>
      </trkpt>
      <trkpt lat="43.954273005947471" lon="4.535166006535292">
        <ele>17.920000000000002</ele>
        <time>2025-05-16T14:55:29Z</time>
      </trkpt>
      <trkpt lat="43.954261019825935" lon="4.535036003217101">
        <ele>18.399999999999999</ele>
        <time>2025-05-16T14:55:30Z</time>
      </trkpt>
      <trkpt lat="43.954030014574528" lon="4.535126024857163">
        <ele>18.879999999999999</ele>
        <time>2025-05-16T14:55:32Z</time>
      </trkpt>
      <trkpt lat="43.953684009611607" lon="4.534953022375703">
        <ele>29.940000000000001</ele>
        <time>2025-05-16T14:55:49Z</time>
      </trkpt>
      <trkpt lat="43.953402964398265" lon="4.534864006564021">
        <ele>35.710000000000001</ele>
        <time>2025-05-16T14:55:59Z</time>
      </trkpt>
      <trkpt lat="43.953462978824973" lon="4.534453041851521">
        <ele>38.109999999999999</ele>
        <time>2025-05-16T14:56:08Z</time>
      </trkpt>
      <trkpt lat="43.953467002138495" lon="4.534435020759702">
        <ele>37.630000000000003</ele>
        <time>2025-05-16T14:56:10Z</time>
      </trkpt>
      <trkpt lat="43.953479994088411" lon="4.534436026588082">
        <ele>37.630000000000003</ele>
        <time>2025-05-16T14:56:11Z</time>
      </trkpt>
      <trkpt lat="43.953494997695088" lon="4.534438038244844">
        <ele>37.630000000000003</ele>
        <time>2025-05-16T14:56:12Z</time>
      </trkpt>
      <trkpt lat="43.953511007130146" lon="4.534438960254192">
        <ele>38.109999999999999</ele>
        <time>2025-05-16T14:56:13Z</time>
      </trkpt>
      <trkpt lat="43.953530034050345" lon="4.534440971910954">
        <ele>38.109999999999999</ele>
        <time>2025-05-16T14:56:14Z</time>
      </trkpt>
      <trkpt lat="43.95362701267004" lon="4.534450024366379">
        <ele>38.109999999999999</ele>
        <time>2025-05-16T14:56:18Z</time>
      </trkpt>
      <trkpt lat="43.953703036531806" lon="4.534456981346011">
        <ele>39.07</ele>
        <time>2025-05-16T14:56:20Z</time>
      </trkpt>
      <trkpt lat="43.953703036531806" lon="4.534456981346011">
        <ele>39.07</ele>
        <time>2025-05-16T14:56:32Z</time>
      </trkpt>
      <trkpt lat="43.953702030703425" lon="4.534352961927652">
        <ele>40.030000000000001</ele>
        <time>2025-05-16T15:40:37Z</time>
      </trkpt>
      <trkpt lat="43.95368903875351" lon="4.534377017989755">
        <ele>47.240000000000002</ele>
        <time>2025-05-16T15:41:03Z</time>
      </trkpt>
      <trkpt lat="43.953701024875045" lon="4.534383974969387">
        <ele>45.32</ele>
        <time>2025-05-16T15:41:26Z</time>
      </trkpt>
      <trkpt lat="43.953664982691407" lon="4.53441197052598">
        <ele>45.799999999999997</ele>
        <time>2025-05-16T15:41:49Z</time>
      </trkpt>
      <trkpt lat="43.953668000176549" lon="4.534412976354361">
        <ele>45.799999999999997</ele>
        <time>2025-05-16T15:42:36Z</time>
      </trkpt>
      <trkpt lat="43.95366900600493" lon="4.534413982182741">
        <ele>45.799999999999997</ele>
        <time>2025-05-16T15:43:07Z</time>
      </trkpt>
      <trkpt lat="43.953668000176549" lon="4.534414988011122">
        <ele>45.799999999999997</ele>
        <time>2025-05-16T15:43:50Z</time>
      </trkpt>
      <trkpt lat="43.953612009063363" lon="4.534449018537998">
        <ele>45.799999999999997</ele>
        <time>2025-05-16T15:43:54Z</time>
      </trkpt>
      <trkpt lat="43.953580996021628" lon="4.534446001052856">
        <ele>45.799999999999997</ele>
        <time>2025-05-16T15:43:55Z</time>
      </trkpt>
      <trkpt lat="43.953442024067044" lon="4.534559994935989">
        <ele>46.280000000000001</ele>
        <time>2025-05-16T15:44:00Z</time>
      </trkpt>
      <trkpt lat="43.953430037945509" lon="4.534617997705936">
        <ele>46.280000000000001</ele>
        <time>2025-05-16T15:44:01Z</time>
      </trkpt>
      <trkpt lat="43.953360971063375" lon="4.535536989569664">
        <ele>45.799999999999997</ele>
        <time>2025-05-16T15:44:15Z</time>
      </trkpt>
      <trkpt lat="43.953285031020641" lon="4.535752991214395">
        <ele>46.280000000000001</ele>
        <time>2025-05-16T15:44:18Z</time>
      </trkpt>
      <trkpt lat="43.953243959695101" lon="4.535763971507549">
        <ele>46.759999999999998</ele>
        <time>2025-05-16T15:44:19Z</time>
      </trkpt>
      <trkpt lat="43.953199032694101" lon="4.535776041448116">
        <ele>46.759999999999998</ele>
        <time>2025-05-16T15:44:20Z</time>
      </trkpt>
      <trkpt lat="43.95315301604569" lon="4.535788027569652">
        <ele>47.240000000000002</ele>
        <time>2025-05-16T15:44:21Z</time>
      </trkpt>
      <trkpt lat="43.953105993568897" lon="4.535801019519568">
        <ele>47.240000000000002</ele>
        <time>2025-05-16T15:44:22Z</time>
      </trkpt>
      <trkpt lat="43.953059976920485" lon="4.535813005641103">
        <ele>47.240000000000002</ele>
        <time>2025-05-16T15:44:23Z</time>
      </trkpt>
      <trkpt lat="43.953017983585596" lon="4.535824991762638">
        <ele>47.719999999999999</ele>
        <time>2025-05-16T15:44:24Z</time>
      </trkpt>
      <trkpt lat="43.952972972765565" lon="4.535836977884173">
        <ele>47.719999999999999</ele>
        <time>2025-05-16T15:44:25Z</time>
      </trkpt>
      <trkpt lat="43.952758982777596" lon="4.53589397482574">
        <ele>48.200000000000003</ele>
        <time>2025-05-16T15:44:34Z</time>
      </trkpt>
      <trkpt lat="43.952758982777596" lon="4.53589397482574">
        <ele>47.719999999999999</ele>
        <time>2025-05-16T15:44:48Z</time>
      </trkpt>
      <trkpt lat="43.952706009149551" lon="4.535929011180997">
        <ele>47.719999999999999</ele>
        <time>2025-05-16T15:45:06Z</time>
      </trkpt>
      <trkpt lat="43.952679019421339" lon="4.535947032272816">
        <ele>47.240000000000002</ele>
        <time>2025-05-16T15:45:07Z</time>
      </trkpt>
      <trkpt lat="43.952657980844378" lon="4.535960024222732">
        <ele>47.240000000000002</ele>
        <time>2025-05-16T15:45:08Z</time>
      </trkpt>
      <trkpt lat="43.952516997233033" lon="4.536052979528904">
        <ele>46.759999999999998</ele>
        <time>2025-05-16T15:45:17Z</time>
      </trkpt>
      <trkpt lat="43.952169986441731" lon="4.536279961466789">
        <ele>44.840000000000003</ele>
        <time>2025-05-16T15:45:27Z</time>
      </trkpt>
      <trkpt lat="43.95216504111886" lon="4.53645296394825">
        <ele>43.399999999999999</ele>
        <time>2025-05-16T15:45:31Z</time>
      </trkpt>
      <trkpt lat="43.952174009755254" lon="4.536501998081803">
        <ele>43.399999999999999</ele>
        <time>2025-05-16T15:45:32Z</time>
      </trkpt>
      <trkpt lat="43.952181972563267" lon="4.536546003073454">
        <ele>42.920000000000002</ele>
        <time>2025-05-16T15:45:33Z</time>
      </trkpt>
      <trkpt lat="43.95218800753355" lon="4.536576010286808">
        <ele>42.920000000000002</ele>
        <time>2025-05-16T15:45:34Z</time>
      </trkpt>
      <trkpt lat="43.952193036675453" lon="4.53660199418664">
        <ele>42.920000000000002</ele>
        <time>2025-05-16T15:45:35Z</time>
      </trkpt>
      <trkpt lat="43.952198987826705" lon="4.536634013056755">
        <ele>42.920000000000002</ele>
        <time>2025-05-16T15:45:36Z</time>
      </trkpt>
      <trkpt lat="43.952214997261763" lon="4.536659996956587">
        <ele>42.920000000000002</ele>
        <time>2025-05-16T15:45:44Z</time>
      </trkpt>
      <trkpt lat="43.952326979488134" lon="4.536779019981623">
        <ele>43.399999999999999</ele>
        <time>2025-05-16T15:45:47Z</time>
      </trkpt>
      <trkpt lat="43.952428987249732" lon="4.536886978894472">
        <ele>43.880000000000003</ele>
        <time>2025-05-16T15:45:49Z</time>
      </trkpt>
      <trkpt lat="43.95259503275156" lon="4.537060987204313">
        <ele>43.399999999999999</ele>
        <time>2025-05-16T15:45:52Z</time>
      </trkpt>
      <trkpt lat="43.953268015757203" lon="4.537744028493762">
        <ele>42.439999999999998</ele>
        <time>2025-05-16T15:46:02Z</time>
      </trkpt>
      <trkpt lat="43.954114001244307" lon="4.538615997880697">
        <ele>41.950000000000003</ele>
        <time>2025-05-16T15:46:14Z</time>
      </trkpt>
      <trkpt lat="43.954671984538436" lon="4.53928797505796">
        <ele>42.920000000000002</ele>
        <time>2025-05-16T15:46:24Z</time>
      </trkpt>
      <trkpt lat="43.954710960388184" lon="4.539391994476318">
        <ele>42.920000000000002</ele>
        <time>2025-05-16T15:46:26Z</time>
      </trkpt>
      <trkpt lat="43.954710960388184" lon="4.539391994476318">
        <ele>42.920000000000002</ele>
        <time>2025-05-16T15:46:27Z</time>
      </trkpt>
      <trkpt lat="43.954835012555122" lon="4.539587963372469">
        <ele>42.439999999999998</ele>
        <time>2025-05-16T15:46:28Z</time>
      </trkpt>
      <trkpt lat="43.954831995069981" lon="4.539683014154434">
        <ele>42.439999999999998</ele>
        <time>2025-05-16T15:46:29Z</time>
      </trkpt>
      <trkpt lat="43.954827971756458" lon="4.539800025522709">
        <ele>42.439999999999998</ele>
        <time>2025-05-16T15:46:30Z</time>
      </trkpt>
      <trkpt lat="43.954823026433587" lon="4.539921982213855">
        <ele>42.439999999999998</ele>
        <time>2025-05-16T15:46:31Z</time>
      </trkpt>
      <trkpt lat="43.954817997291684" lon="4.540045028552413">
        <ele>41.950000000000003</ele>
        <time>2025-05-16T15:46:32Z</time>
      </trkpt>
      <trkpt lat="43.954737028107047" lon="4.541284963488579">
        <ele>40.030000000000001</ele>
        <time>2025-05-16T15:46:41Z</time>
      </trkpt>
      <trkpt lat="43.954646000638604" lon="4.542303029447794">
        <ele>37.149999999999999</ele>
        <time>2025-05-16T15:46:48Z</time>
      </trkpt>
      <trkpt lat="43.954634014517069" lon="4.542449964210391">
        <ele>36.670000000000002</ele>
        <time>2025-05-16T15:46:49Z</time>
      </trkpt>
      <trkpt lat="43.9545529615134" lon="4.543655030429363">
        <ele>33.780000000000001</ele>
        <time>2025-05-16T15:46:57Z</time>
      </trkpt>
      <trkpt lat="43.954548016190529" lon="4.543811017647386">
        <ele>33.780000000000001</ele>
        <time>2025-05-16T15:46:58Z</time>
      </trkpt>
      <trkpt lat="43.954542987048626" lon="4.543962981551886">
        <ele>33.780000000000001</ele>
        <time>2025-05-16T15:46:59Z</time>
      </trkpt>
      <trkpt lat="43.954506022855639" lon="4.544538985937834">
        <ele>33.780000000000001</ele>
        <time>2025-05-16T15:47:03Z</time>
      </trkpt>
      <trkpt lat="43.95448699593544" lon="4.545225966721773">
        <ele>34.740000000000002</ele>
        <time>2025-05-16T15:47:08Z</time>
      </trkpt>
      <trkpt lat="43.954491019248962" lon="4.545314982533455">
        <ele>35.229999999999997</ele>
        <time>2025-05-16T15:47:09Z</time>
      </trkpt>
      <trkpt lat="43.954494958743453" lon="4.545391006395221">
        <ele>35.710000000000001</ele>
        <time>2025-05-16T15:47:10Z</time>
      </trkpt>
      <trkpt lat="43.954347018152475" lon="4.545550011098385">
        <ele>36.189999999999998</ele>
        <time>2025-05-16T15:47:11Z</time>
      </trkpt>
      <trkpt lat="43.954347018152475" lon="4.545550011098385">
        <ele>36.189999999999998</ele>
        <time>2025-05-16T15:47:12Z</time>
      </trkpt>
      <trkpt lat="43.954328997060657" lon="4.545593010261655">
        <ele>36.670000000000002</ele>
        <time>2025-05-16T15:47:13Z</time>
      </trkpt>
      <trkpt lat="43.954290021210909" lon="4.545682026073337">
        <ele>37.149999999999999</ele>
        <time>2025-05-16T15:47:14Z</time>
      </trkpt>
      <trkpt lat="43.954030014574528" lon="4.546591965481639">
        <ele>36.189999999999998</ele>
        <time>2025-05-16T15:47:22Z</time>
      </trkpt>
      <trkpt lat="43.953643022105098" lon="4.548227023333311">
        <ele>34.259999999999998</ele>
        <time>2025-05-16T15:47:35Z</time>
      </trkpt>
      <trkpt lat="43.953298022970557" lon="4.549693018198013">
        <ele>34.259999999999998</ele>
        <time>2025-05-16T15:47:47Z</time>
      </trkpt>
      <trkpt lat="43.953064000234008" lon="4.550703959539533">
        <ele>34.259999999999998</ele>
        <time>2025-05-16T15:47:56Z</time>
      </trkpt>
      <trkpt lat="43.952783960849047" lon="4.551940960809588">
        <ele>32.82</ele>
        <time>2025-05-16T15:48:05Z</time>
      </trkpt>
      <trkpt lat="43.95242303609848" lon="4.553487002849579">
        <ele>29.940000000000001</ele>
        <time>2025-05-16T15:48:14Z</time>
      </trkpt>
      <trkpt lat="43.952050963416696" lon="4.555484997108579">
        <ele>28.02</ele>
        <time>2025-05-16T15:48:24Z</time>
      </trkpt>
      <trkpt lat="43.951896987855434" lon="4.555957987904549">
        <ele>27.530000000000001</ele>
        <time>2025-05-16T15:48:26Z</time>
      </trkpt>
      <trkpt lat="43.951820963993669" lon="4.556192010641098">
        <ele>28.02</ele>
        <time>2025-05-16T15:48:27Z</time>
      </trkpt>
      <trkpt lat="43.951727002859116" lon="4.556418992578983">
        <ele>27.530000000000001</ele>
        <time>2025-05-16T15:48:28Z</time>
      </trkpt>
      <trkpt lat="43.951604962348938" lon="4.556622002273798">
        <ele>27.530000000000001</ele>
        <time>2025-05-16T15:48:29Z</time>
      </trkpt>
      <trkpt lat="43.951477976515889" lon="4.556832974776626">
        <ele>27.530000000000001</ele>
        <time>2025-05-16T15:48:30Z</time>
      </trkpt>
      <trkpt lat="43.950579017400742" lon="4.558042986318469">
        <ele>28.02</ele>
        <time>2025-05-16T15:48:37Z</time>
      </trkpt>
      <trkpt lat="43.949403036385775" lon="4.558717980980873">
        <ele>28.02</ele>
        <time>2025-05-16T15:48:44Z</time>
      </trkpt>
      <trkpt lat="43.947816006839275" lon="4.559208992868662">
        <ele>24.649999999999999</ele>
        <time>2025-05-16T15:48:52Z</time>
      </trkpt>
      <trkpt lat="43.9463019836694" lon="4.559782985597849">
        <ele>22.25</ele>
        <time>2025-05-16T15:49:00Z</time>
      </trkpt>
      <trkpt lat="43.944629039615393" lon="4.560412969440222">
        <ele>19.359999999999999</ele>
        <time>2025-05-16T15:49:10Z</time>
      </trkpt>
      <trkpt lat="43.944301977753639" lon="4.560530986636877">
        <ele>18.879999999999999</ele>
        <time>2025-05-16T15:49:12Z</time>
      </trkpt>
      <trkpt lat="43.943652966991067" lon="4.560531992465258">
        <ele>18.399999999999999</ele>
        <time>2025-05-16T15:49:16Z</time>
      </trkpt>
      <trkpt lat="43.942434992641211" lon="4.560361001640558">
        <ele>19.84</ele>
        <time>2025-05-16T15:49:25Z</time>
      </trkpt>
      <trkpt lat="43.941624965518713" lon="4.560201996937394">
        <ele>21.77</ele>
        <time>2025-05-16T15:49:34Z</time>
      </trkpt>
      <trkpt lat="43.941187011078" lon="4.560133013874292">
        <ele>20.32</ele>
        <time>2025-05-16T15:49:39Z</time>
      </trkpt>
      <trkpt lat="43.94097201526165" lon="4.560094038024545">
        <ele>20.32</ele>
        <time>2025-05-16T15:49:42Z</time>
      </trkpt>
      <trkpt lat="43.940921975299716" lon="4.56008498556912">
        <ele>19.84</ele>
        <time>2025-05-16T15:49:43Z</time>
      </trkpt>
      <trkpt lat="43.940751990303397" lon="4.560053972527385">
        <ele>18.879999999999999</ele>
        <time>2025-05-16T15:49:46Z</time>
      </trkpt>
      <trkpt lat="43.94069298170507" lon="4.56004299223423">
        <ele>18.879999999999999</ele>
        <time>2025-05-16T15:49:47Z</time>
      </trkpt>
      <trkpt lat="43.940631039440632" lon="4.560032011941075">
        <ele>18.399999999999999</ele>
        <time>2025-05-16T15:49:48Z</time>
      </trkpt>
      <trkpt lat="43.940569013357162" lon="4.56002002581954">
        <ele>17.920000000000002</ele>
        <time>2025-05-16T15:49:49Z</time>
      </trkpt>
      <trkpt lat="43.940505981445313" lon="4.560008961707354">
        <ele>17.920000000000002</ele>
        <time>2025-05-16T15:49:50Z</time>
      </trkpt>
      <trkpt lat="43.940447978675365" lon="4.559996975585818">
        <ele>17.440000000000001</ele>
        <time>2025-05-16T15:49:51Z</time>
      </trkpt>
      <trkpt lat="43.940384024754167" lon="4.559991024434567">
        <ele>17.440000000000001</ele>
        <time>2025-05-16T15:49:52Z</time>
      </trkpt>
      <trkpt lat="43.940291991457343" lon="4.559991024434567">
        <ele>16.960000000000001</ele>
        <time>2025-05-16T15:49:53Z</time>
      </trkpt>
      <trkpt lat="43.940107002854347" lon="4.55997702665627">
        <ele>16.48</ele>
        <time>2025-05-16T15:49:56Z</time>
      </trkpt>
      <trkpt lat="43.940041959285736" lon="4.559971997514367">
        <ele>16</ele>
        <time>2025-05-16T15:49:57Z</time>
      </trkpt>
      <trkpt lat="43.939979011192918" lon="4.559967974200845">
        <ele>16</ele>
        <time>2025-05-16T15:49:58Z</time>
      </trkpt>
      <trkpt lat="43.939601993188262" lon="4.559940984472632">
        <ele>14.56</ele>
        <time>2025-05-16T15:50:04Z</time>
      </trkpt>
      <trkpt lat="43.939539967104793" lon="4.559936039149761">
        <ele>14.08</ele>
        <time>2025-05-16T15:50:05Z</time>
      </trkpt>
      <trkpt lat="43.939357995986938" lon="4.559922963380814">
        <ele>13.119999999999999</ele>
        <time>2025-05-16T15:50:08Z</time>
      </trkpt>
      <trkpt lat="43.939244002103806" lon="4.559915000572801">
        <ele>12.15</ele>
        <time>2025-05-16T15:50:10Z</time>
      </trkpt>
      <trkpt lat="43.939137971028686" lon="4.559907959774137">
        <ele>10.23</ele>
        <time>2025-05-16T15:50:17Z</time>
      </trkpt>
      <trkpt lat="43.939137971028686" lon="4.559907959774137">
        <ele>10.23</ele>
        <time>2025-05-16T15:50:39Z</time>
      </trkpt>
      <trkpt lat="43.939111987128854" lon="4.559906031936407">
        <ele>10.23</ele>
        <time>2025-05-16T15:50:52Z</time>
      </trkpt>
      <trkpt lat="43.939111987128854" lon="4.559906031936407">
        <ele>10.23</ele>
        <time>2025-05-16T15:50:53Z</time>
      </trkpt>
      <trkpt lat="43.939100001007318" lon="4.559904020279646">
        <ele>10.23</ele>
        <time>2025-05-16T15:50:54Z</time>
      </trkpt>
      <trkpt lat="43.939090026542544" lon="4.559903014451265">
        <ele>10.710000000000001</ele>
        <time>2025-05-16T15:50:55Z</time>
      </trkpt>
      <trkpt lat="43.939075022935867" lon="4.559902008622885">
        <ele>11.19</ele>
        <time>2025-05-16T15:50:56Z</time>
      </trkpt>
      <trkpt lat="43.939049039036036" lon="4.559898991137743">
        <ele>11.67</ele>
        <time>2025-05-16T15:50:57Z</time>
      </trkpt>
      <trkpt lat="43.938749972730875" lon="4.559752978384495">
        <ele>12.15</ele>
        <time>2025-05-16T15:51:03Z</time>
      </trkpt>
      <trkpt lat="43.938741004094481" lon="4.559710985049605">
        <ele>12.15</ele>
        <time>2025-05-16T15:51:04Z</time>
      </trkpt>
      <trkpt lat="43.938485020771623" lon="4.558910010382533">
        <ele>13.119999999999999</ele>
        <time>2025-05-16T15:51:13Z</time>
      </trkpt>
      <trkpt lat="43.937743976712227" lon="4.557493971660733">
        <ele>20.32</ele>
        <time>2025-05-16T15:51:27Z</time>
      </trkpt>
      <trkpt lat="43.937036041170359" lon="4.55619796179235">
        <ele>24.649999999999999</ele>
        <time>2025-05-16T15:51:40Z</time>
      </trkpt>
      <trkpt lat="43.93699798732996" lon="4.556070975959301">
        <ele>24.649999999999999</ele>
        <time>2025-05-16T15:51:41Z</time>
      </trkpt>
      <trkpt lat="43.937030006200075" lon="4.555956982076168">
        <ele>25.129999999999999</ele>
        <time>2025-05-16T15:51:42Z</time>
      </trkpt>
      <trkpt lat="43.937022965401411" lon="4.555926974862814">
        <ele>25.609999999999999</ele>
        <time>2025-05-16T15:51:43Z</time>
      </trkpt>
      <trkpt lat="43.937004022300243" lon="4.55585204064846">
        <ele>25.609999999999999</ele>
        <time>2025-05-16T15:51:44Z</time>
      </trkpt>
      <trkpt lat="43.936956999823451" lon="4.555769981816411">
        <ele>25.609999999999999</ele>
        <time>2025-05-16T15:51:45Z</time>
      </trkpt>
      <trkpt lat="43.936877958476543" lon="4.555751960724592">
        <ele>25.609999999999999</ele>
        <time>2025-05-16T15:51:46Z</time>
      </trkpt>
      <trkpt lat="43.936815010383725" lon="4.555777022615075">
        <ele>25.609999999999999</ele>
        <time>2025-05-16T15:51:47Z</time>
      </trkpt>
      <trkpt lat="43.93676396459341" lon="4.555844999849796">
        <ele>26.09</ele>
        <time>2025-05-16T15:51:48Z</time>
      </trkpt>
      <trkpt lat="43.936750972643495" lon="4.555871989578009">
        <ele>26.09</ele>
        <time>2025-05-16T15:51:49Z</time>
      </trkpt>
      <trkpt lat="43.936721971258521" lon="4.556093020364642">
        <ele>26.09</ele>
        <time>2025-05-16T15:51:50Z</time>
      </trkpt>
      <trkpt lat="43.936658017337322" lon="4.55615303479135">
        <ele>26.09</ele>
        <time>2025-05-16T15:51:51Z</time>
      </trkpt>
      <trkpt lat="43.93658903427422" lon="4.55621799454093">
        <ele>26.09</ele>
        <time>2025-05-16T15:51:52Z</time>
      </trkpt>
      <trkpt lat="43.936206987127662" lon="4.556553019210696">
        <ele>25.609999999999999</ele>
        <time>2025-05-16T15:51:57Z</time>
      </trkpt>
      <trkpt lat="43.935570968315005" lon="4.556933976709843">
        <ele>25.129999999999999</ele>
        <time>2025-05-16T15:52:05Z</time>
      </trkpt>
      <trkpt lat="43.935416992753744" lon="4.557003965601325">
        <ele>25.129999999999999</ele>
        <time>2025-05-16T15:52:07Z</time>
      </trkpt>
      <trkpt lat="43.935246001929045" lon="4.557064985856414">
        <ele>25.129999999999999</ele>
        <time>2025-05-16T15:52:09Z</time>
      </trkpt>
      <trkpt lat="43.935161009430885" lon="4.557094993069768">
        <ele>24.649999999999999</ele>
        <time>2025-05-16T15:52:10Z</time>
      </trkpt>
      <trkpt lat="43.93506595864892" lon="4.557094993069768">
        <ele>24.649999999999999</ele>
        <time>2025-05-16T15:52:11Z</time>
      </trkpt>
      <trkpt lat="43.934974009171128" lon="4.557094993069768">
        <ele>24.649999999999999</ele>
        <time>2025-05-16T15:52:12Z</time>
      </trkpt>
      <trkpt lat="43.934894967824221" lon="4.557094993069768">
        <ele>24.170000000000002</ele>
        <time>2025-05-16T15:52:13Z</time>
      </trkpt>
      <trkpt lat="43.934749960899353" lon="4.55707898363471">
        <ele>23.210000000000001</ele>
        <time>2025-05-16T15:52:15Z</time>
      </trkpt>
      <trkpt lat="43.934694975614548" lon="4.557066997513175">
        <ele>22.73</ele>
        <time>2025-05-16T15:52:16Z</time>
      </trkpt>
      <trkpt lat="43.934653988108039" lon="4.557058028876782">
        <ele>22.73</ele>
        <time>2025-05-16T15:52:17Z</time>
      </trkpt>
      <trkpt lat="43.934626998379827" lon="4.557051993906498">
        <ele>22.25</ele>
        <time>2025-05-16T15:52:18Z</time>
      </trkpt>
      <trkpt lat="43.934626998379827" lon="4.557051993906498">
        <ele>21.77</ele>
        <time>2025-05-16T15:52:19Z</time>
      </trkpt>
      <trkpt lat="43.934626998379827" lon="4.557051993906498">
        <ele>21.77</ele>
        <time>2025-05-16T15:52:20Z</time>
      </trkpt>
      <trkpt lat="43.934580981731415" lon="4.557079989463091">
        <ele>21.289999999999999</ele>
        <time>2025-05-16T15:52:21Z</time>
      </trkpt>
      <trkpt lat="43.934545023366809" lon="4.557103039696813">
        <ele>20.809999999999999</ele>
        <time>2025-05-16T15:52:22Z</time>
      </trkpt>
      <trkpt lat="43.934492971748114" lon="4.557134974747896">
        <ele>21.289999999999999</ele>
        <time>2025-05-16T15:52:23Z</time>
      </trkpt>
      <trkpt lat="43.934455001726747" lon="4.557159030809999">
        <ele>21.289999999999999</ele>
        <time>2025-05-16T15:52:24Z</time>
      </trkpt>
      <trkpt lat="43.934431029483676" lon="4.557221978902817">
        <ele>21.77</ele>
        <time>2025-05-16T15:52:25Z</time>
      </trkpt>
      <trkpt lat="43.934393981471658" lon="4.557317029684782">
        <ele>22.25</ele>
        <time>2025-05-16T15:52:26Z</time>
      </trkpt>
      <trkpt lat="43.934357017278671" lon="4.557413002476096">
        <ele>23.210000000000001</ele>
        <time>2025-05-16T15:52:27Z</time>
      </trkpt>
      <trkpt lat="43.934304965659976" lon="4.557545017451048">
        <ele>23.690000000000001</ele>
        <time>2025-05-16T15:52:28Z</time>
      </trkpt>
      <trkpt lat="43.934285016730428" lon="4.557630009949207">
        <ele>24.170000000000002</ele>
        <time>2025-05-16T15:52:29Z</time>
      </trkpt>
      <trkpt lat="43.934255009517074" lon="4.557762024924159">
        <ele>25.129999999999999</ele>
        <time>2025-05-16T15:52:30Z</time>
      </trkpt>
      <trkpt lat="43.934188960120082" lon="4.55804399214685">
        <ele>26.09</ele>
        <time>2025-05-16T15:52:32Z</time>
      </trkpt>
      <trkpt lat="43.933963989838958" lon="4.558763997629285">
        <ele>28.5</ele>
        <time>2025-05-16T15:52:37Z</time>
      </trkpt>
      <trkpt lat="43.933897018432617" lon="4.558898024260998">
        <ele>28.5</ele>
        <time>2025-05-16T15:52:38Z</time>
      </trkpt>
      <trkpt lat="43.933804985135794" lon="4.559001959860325">
        <ele>28.5</ele>
        <time>2025-05-16T15:52:39Z</time>
      </trkpt>
      <trkpt lat="43.933713035658002" lon="4.559100028127432">
        <ele>28.5</ele>
        <time>2025-05-16T15:52:40Z</time>
      </trkpt>
      <trkpt lat="43.933611027896404" lon="4.559177979826927">
        <ele>28.5</ele>
        <time>2025-05-16T15:52:41Z</time>
      </trkpt>
      <trkpt lat="43.933509020134807" lon="4.559256015345454">
        <ele>28.5</ele>
        <time>2025-05-16T15:52:42Z</time>
      </trkpt>
      <trkpt lat="43.933405000716448" lon="4.559335978701711">
        <ele>28.5</ele>
        <time>2025-05-16T15:52:43Z</time>
      </trkpt>
      <trkpt lat="43.933295030146837" lon="4.559402028098702">
        <ele>28.5</ele>
        <time>2025-05-16T15:52:44Z</time>
      </trkpt>
      <trkpt lat="43.932415014132857" lon="4.559788014739752">
        <ele>28.5</ele>
        <time>2025-05-16T15:52:52Z</time>
      </trkpt>
      <trkpt lat="43.931359983980656" lon="4.560008039698005">
        <ele>28.02</ele>
        <time>2025-05-16T15:53:00Z</time>
      </trkpt>
      <trkpt lat="43.929997002705932" lon="4.560241978615522">
        <ele>28.02</ele>
        <time>2025-05-16T15:53:09Z</time>
      </trkpt>
      <trkpt lat="43.928091963753104" lon="4.560839021578431">
        <ele>26.09</ele>
        <time>2025-05-16T15:53:19Z</time>
      </trkpt>
      <trkpt lat="43.926902990788221" lon="4.561331961303949">
        <ele>23.690000000000001</ele>
        <time>2025-05-16T15:53:26Z</time>
      </trkpt>
      <trkpt lat="43.924412978813052" lon="4.562453962862492">
        <ele>23.210000000000001</ele>
        <time>2025-05-16T15:53:38Z</time>
      </trkpt>
      <trkpt lat="43.923046980053186" lon="4.562956960871816">
        <ele>19.84</ele>
        <time>2025-05-16T15:53:46Z</time>
      </trkpt>
      <trkpt lat="43.921167002990842" lon="4.56386698409915">
        <ele>18.399999999999999</ele>
        <time>2025-05-16T15:53:57Z</time>
      </trkpt>
      <trkpt lat="43.919470002874732" lon="4.564729984849691">
        <ele>16.960000000000001</ele>
        <time>2025-05-16T15:54:07Z</time>
      </trkpt>
      <trkpt lat="43.917549960315228" lon="4.565286040306091">
        <ele>18.879999999999999</ele>
        <time>2025-05-16T15:54:18Z</time>
      </trkpt>
      <trkpt lat="43.915517013520002" lon="4.565685018897057">
        <ele>22.73</ele>
        <time>2025-05-16T15:54:30Z</time>
      </trkpt>
      <trkpt lat="43.914344971999526" lon="4.565809993073344">
        <ele>23.210000000000001</ele>
        <time>2025-05-16T15:54:38Z</time>
      </trkpt>
      <trkpt lat="43.913950016722083" lon="4.565871013328433">
        <ele>23.210000000000001</ele>
        <time>2025-05-16T15:54:42Z</time>
      </trkpt>
      <trkpt lat="43.91374901868403" lon="4.565742015838623">
        <ele>23.690000000000001</ele>
        <time>2025-05-16T15:54:44Z</time>
      </trkpt>
      <trkpt lat="43.91368598677218" lon="4.565732041373849">
        <ele>23.690000000000001</ele>
        <time>2025-05-16T15:54:45Z</time>
      </trkpt>
      <trkpt lat="43.91353402286768" lon="4.565914012491703">
        <ele>24.170000000000002</ele>
        <time>2025-05-16T15:54:46Z</time>
      </trkpt>
      <trkpt lat="43.913532011210918" lon="4.565915018320084">
        <ele>24.170000000000002</ele>
        <time>2025-05-16T15:54:47Z</time>
      </trkpt>
      <trkpt lat="43.913446012884378" lon="4.56595097668469">
        <ele>24.170000000000002</ele>
        <time>2025-05-16T15:54:48Z</time>
      </trkpt>
      <trkpt lat="43.913346016779542" lon="4.565991964191198">
        <ele>23.690000000000001</ele>
        <time>2025-05-16T15:54:49Z</time>
      </trkpt>
      <trkpt lat="43.913235040381551" lon="4.56603798083961">
        <ele>23.690000000000001</ele>
        <time>2025-05-16T15:54:50Z</time>
      </trkpt>
      <trkpt lat="43.913114005699754" lon="4.566089026629925">
        <ele>23.210000000000001</ele>
        <time>2025-05-16T15:54:51Z</time>
      </trkpt>
      <trkpt lat="43.912984002381563" lon="4.566134959459305">
        <ele>23.210000000000001</ele>
        <time>2025-05-16T15:54:52Z</time>
      </trkpt>
      <trkpt lat="43.912836983799934" lon="4.566168989986181">
        <ele>22.73</ele>
        <time>2025-05-16T15:54:53Z</time>
      </trkpt>
      <trkpt lat="43.911245008930564" lon="4.566568974405527">
        <ele>23.210000000000001</ele>
        <time>2025-05-16T15:55:02Z</time>
      </trkpt>
      <trkpt lat="43.910702029243112" lon="4.566685985773802">
        <ele>23.210000000000001</ele>
        <time>2025-05-16T15:55:05Z</time>
      </trkpt>
      <trkpt lat="43.910274971276522" lon="4.566795034334064">
        <ele>23.690000000000001</ele>
        <time>2025-05-16T15:55:07Z</time>
      </trkpt>
      <trkpt lat="43.907974977046251" lon="4.567480003461242">
        <ele>25.609999999999999</ele>
        <time>2025-05-16T15:55:19Z</time>
      </trkpt>
      <trkpt lat="43.906518034636974" lon="4.568209983408451">
        <ele>24.649999999999999</ele>
        <time>2025-05-16T15:55:27Z</time>
      </trkpt>
      <trkpt lat="43.905015997588634" lon="4.569264007732272">
        <ele>22.25</ele>
        <time>2025-05-16T15:55:36Z</time>
      </trkpt>
      <trkpt lat="43.903593001887202" lon="4.57005500793457">
        <ele>20.32</ele>
        <time>2025-05-16T15:55:44Z</time>
      </trkpt>
      <trkpt lat="43.901649992913008" lon="4.57067602314055">
        <ele>18.399999999999999</ele>
        <time>2025-05-16T15:55:54Z</time>
      </trkpt>
      <trkpt lat="43.89982801862061" lon="4.571283040568233">
        <ele>17.920000000000002</ele>
        <time>2025-05-16T15:56:04Z</time>
      </trkpt>
      <trkpt lat="43.897542022168636" lon="4.572056019678712">
        <ele>19.359999999999999</ele>
        <time>2025-05-16T15:56:16Z</time>
      </trkpt>
      <trkpt lat="43.896201001480222" lon="4.572515012696385">
        <ele>19.84</ele>
        <time>2025-05-16T15:56:23Z</time>
      </trkpt>
      <trkpt lat="43.894343990832567" lon="4.573150025680661">
        <ele>21.77</ele>
        <time>2025-05-16T15:56:33Z</time>
      </trkpt>
      <trkpt lat="43.893026020377874" lon="4.573598960414529">
        <ele>23.210000000000001</ele>
        <time>2025-05-16T15:56:40Z</time>
      </trkpt>
      <trkpt lat="43.891039006412029" lon="4.574253000319004">
        <ele>24.170000000000002</ele>
        <time>2025-05-16T15:56:50Z</time>
      </trkpt>
      <trkpt lat="43.889079988002777" lon="4.574892958626151">
        <ele>23.210000000000001</ele>
        <time>2025-05-16T15:57:00Z</time>
      </trkpt>
      <trkpt lat="43.887506034225225" lon="4.575247010216117">
        <ele>19.359999999999999</ele>
        <time>2025-05-16T15:57:08Z</time>
      </trkpt>
      <trkpt lat="43.886088989675045" lon="4.574995972216129">
        <ele>19.359999999999999</ele>
        <time>2025-05-16T15:57:15Z</time>
      </trkpt>
      <trkpt lat="43.884411016479135" lon="4.574607973918319">
        <ele>17.920000000000002</ele>
        <time>2025-05-16T15:57:24Z</time>
      </trkpt>
      <trkpt lat="43.882334986701608" lon="4.574410999193788">
        <ele>18.399999999999999</ele>
        <time>2025-05-16T15:57:36Z</time>
      </trkpt>
      <trkpt lat="43.881982024759054" lon="4.574494985863566">
        <ele>17.920000000000002</ele>
        <time>2025-05-16T15:57:38Z</time>
      </trkpt>
      <trkpt lat="43.881814973428845" lon="4.574549971148372">
        <ele>17.920000000000002</ele>
        <time>2025-05-16T15:57:39Z</time>
      </trkpt>
      <trkpt lat="43.880506977438927" lon="4.57520904019475">
        <ele>16.960000000000001</ele>
        <time>2025-05-16T15:57:48Z</time>
      </trkpt>
      <trkpt lat="43.880300028249621" lon="4.575338959693909">
        <ele>16.960000000000001</ele>
        <time>2025-05-16T15:57:50Z</time>
      </trkpt>
      <trkpt lat="43.880070028826594" lon="4.575286991894245">
        <ele>16.960000000000001</ele>
        <time>2025-05-16T15:57:52Z</time>
      </trkpt>
      <trkpt lat="43.879999034106731" lon="4.575396962463856">
        <ele>16.960000000000001</ele>
        <time>2025-05-16T15:57:53Z</time>
      </trkpt>
      <trkpt lat="43.879973972216249" lon="4.575440967455506">
        <ele>16.960000000000001</ele>
        <time>2025-05-16T15:57:54Z</time>
      </trkpt>
      <trkpt lat="43.879927033558488" lon="4.575690999627113">
        <ele>17.440000000000001</ele>
        <time>2025-05-16T15:57:55Z</time>
      </trkpt>
      <trkpt lat="43.879841035231948" lon="4.575784960761666">
        <ele>17.440000000000001</ele>
        <time>2025-05-16T15:57:56Z</time>
      </trkpt>
      <trkpt lat="43.879743972793221" lon="4.575896020978689">
        <ele>17.440000000000001</ele>
        <time>2025-05-16T15:57:57Z</time>
      </trkpt>
      <trkpt lat="43.879638025537133" lon="4.576020995154977">
        <ele>17.440000000000001</ele>
        <time>2025-05-16T15:57:58Z</time>
      </trkpt>
      <trkpt lat="43.878479981794953" lon="4.57731599919498">
        <ele>16</ele>
        <time>2025-05-16T15:58:07Z</time>
      </trkpt>
      <trkpt lat="43.876822963356972" lon="4.578769002109766">
        <ele>17.440000000000001</ele>
        <time>2025-05-16T15:58:17Z</time>
      </trkpt>
      <trkpt lat="43.87522797100246" lon="4.580099964514375">
        <ele>18.879999999999999</ele>
        <time>2025-05-16T15:58:26Z</time>
      </trkpt>
      <trkpt lat="43.873929027467966" lon="4.581203022971749">
        <ele>19.359999999999999</ele>
        <time>2025-05-16T15:58:34Z</time>
      </trkpt>
      <trkpt lat="43.872465966269374" lon="4.58247103728354">
        <ele>15.039999999999999</ele>
        <time>2025-05-16T15:58:43Z</time>
      </trkpt>
      <trkpt lat="43.870666036382318" lon="4.584030993282795">
        <ele>14.56</ele>
        <time>2025-05-16T15:58:55Z</time>
      </trkpt>
      <trkpt lat="43.869576975703239" lon="4.585044030100107">
        <ele>15.52</ele>
        <time>2025-05-16T15:59:04Z</time>
      </trkpt>
      <trkpt lat="43.868097988888621" lon="4.586421009153128">
        <ele>14.08</ele>
        <time>2025-05-16T15:59:16Z</time>
      </trkpt>
      <trkpt lat="43.867463981732726" lon="4.586728038266301">
        <ele>14.56</ele>
        <time>2025-05-16T15:59:23Z</time>
      </trkpt>
      <trkpt lat="43.867421988397837" lon="4.586771037429571">
        <ele>14.56</ele>
        <time>2025-05-16T15:59:24Z</time>
      </trkpt>
      <trkpt lat="43.867421988397837" lon="4.586971029639244">
        <ele>14.56</ele>
        <time>2025-05-16T15:59:25Z</time>
      </trkpt>
      <trkpt lat="43.867327021434903" lon="4.587096003815532">
        <ele>14.56</ele>
        <time>2025-05-16T15:59:26Z</time>
      </trkpt>
      <trkpt lat="43.867231970652938" lon="4.587162975221872">
        <ele>15.039999999999999</ele>
        <time>2025-05-16T15:59:27Z</time>
      </trkpt>
      <trkpt lat="43.867120994254947" lon="4.587243022397161">
        <ele>15.039999999999999</ele>
        <time>2025-05-16T15:59:28Z</time>
      </trkpt>
      <trkpt lat="43.867017980664968" lon="4.587327009066939">
        <ele>15.52</ele>
        <time>2025-05-16T15:59:29Z</time>
      </trkpt>
      <trkpt lat="43.86613997630775" lon="4.588037962093949">
        <ele>16.960000000000001</ele>
        <time>2025-05-16T15:59:36Z</time>
      </trkpt>
      <trkpt lat="43.866007961332798" lon="4.588146004825831">
        <ele>16.960000000000001</ele>
        <time>2025-05-16T15:59:37Z</time>
      </trkpt>
      <trkpt lat="43.865861026570201" lon="4.588183974847198">
        <ele>16.960000000000001</ele>
        <time>2025-05-16T15:59:38Z</time>
      </trkpt>
      <trkpt lat="43.865705039352179" lon="4.5882080309093">
        <ele>16.960000000000001</ele>
        <time>2025-05-16T15:59:39Z</time>
      </trkpt>
      <trkpt lat="43.86556196026504" lon="4.588195960968733">
        <ele>17.440000000000001</ele>
        <time>2025-05-16T15:59:40Z</time>
      </trkpt>
      <trkpt lat="43.865414019674063" lon="4.588182969018817">
        <ele>17.440000000000001</ele>
        <time>2025-05-16T15:59:41Z</time>
      </trkpt>
      <trkpt lat="43.864527968689799" lon="4.588105017319322">
        <ele>17.920000000000002</ele>
        <time>2025-05-16T15:59:47Z</time>
      </trkpt>
      <trkpt lat="43.864381033927202" lon="4.58812303841114">
        <ele>17.920000000000002</ele>
        <time>2025-05-16T15:59:48Z</time>
      </trkpt>
      <trkpt lat="43.864243989810348" lon="4.588206019252539">
        <ele>18.399999999999999</ele>
        <time>2025-05-16T15:59:49Z</time>
      </trkpt>
      <trkpt lat="43.863141015172005" lon="4.588874978944659">
        <ele>18.399999999999999</ele>
        <time>2025-05-16T15:59:57Z</time>
      </trkpt>
      <trkpt lat="43.862876985222101" lon="4.589087963104248">
        <ele>18.399999999999999</ele>
        <time>2025-05-16T15:59:59Z</time>
      </trkpt>
      <trkpt lat="43.862757040187716" lon="4.589229030534625">
        <ele>18.399999999999999</ele>
        <time>2025-05-16T16:00:00Z</time>
      </trkpt>
      <trkpt lat="43.861663034185767" lon="4.590531997382641">
        <ele>18.399999999999999</ele>
        <time>2025-05-16T16:00:08Z</time>
      </trkpt>
      <trkpt lat="43.860053038224578" lon="4.592110980302095">
        <ele>18.399999999999999</ele>
        <time>2025-05-16T16:00:18Z</time>
      </trkpt>
      <trkpt lat="43.859190037474036" lon="4.593010023236275">
        <ele>18.399999999999999</ele>
        <time>2025-05-16T16:00:24Z</time>
      </trkpt>
      <trkpt lat="43.858328964561224" lon="4.59435498341918">
        <ele>16.960000000000001</ele>
        <time>2025-05-16T16:00:31Z</time>
      </trkpt>
      <trkpt lat="43.858184963464737" lon="4.594509964808822">
        <ele>16.960000000000001</ele>
        <time>2025-05-16T16:00:32Z</time>
      </trkpt>
      <trkpt lat="43.858025036752224" lon="4.594643991440535">
        <ele>16.48</ele>
        <time>2025-05-16T16:00:33Z</time>
      </trkpt>
      <trkpt lat="43.857850022614002" lon="4.594734013080597">
        <ele>16</ele>
        <time>2025-05-16T16:00:34Z</time>
      </trkpt>
      <trkpt lat="43.857670985162258" lon="4.59482504054904">
        <ele>16</ele>
        <time>2025-05-16T16:00:35Z</time>
      </trkpt>
      <trkpt lat="43.856584019958973" lon="4.595426023006439">
        <ele>15.039999999999999</ele>
        <time>2025-05-16T16:00:41Z</time>
      </trkpt>
      <trkpt lat="43.856426021084189" lon="4.595592990517616">
        <ele>15.039999999999999</ele>
        <time>2025-05-16T16:00:42Z</time>
      </trkpt>
      <trkpt lat="43.856286965310574" lon="4.595782002434135">
        <ele>15.039999999999999</ele>
        <time>2025-05-16T16:00:43Z</time>
      </trkpt>
      <trkpt lat="43.855608031153679" lon="4.596723038703203">
        <ele>13.6</ele>
        <time>2025-05-16T16:00:48Z</time>
      </trkpt>
      <trkpt lat="43.855450032278895" lon="4.596864022314549">
        <ele>13.6</ele>
        <time>2025-05-16T16:00:49Z</time>
      </trkpt>
      <trkpt lat="43.855291027575731" lon="4.596984973177314">
        <ele>13.119999999999999</ele>
        <time>2025-05-16T16:00:50Z</time>
      </trkpt>
      <trkpt lat="43.855110984295607" lon="4.597064014524221">
        <ele>12.630000000000001</ele>
        <time>2025-05-16T16:00:51Z</time>
      </trkpt>
      <trkpt lat="43.85492398403585" lon="4.59714699536562">
        <ele>12.15</ele>
        <time>2025-05-16T16:00:52Z</time>
      </trkpt>
      <trkpt lat="43.853769041597843" lon="4.597697015851736">
        <ele>11.67</ele>
        <time>2025-05-16T16:00:59Z</time>
      </trkpt>
      <trkpt lat="43.853050963953137" lon="4.598319958895445">
        <ele>11.67</ele>
        <time>2025-05-16T16:01:05Z</time>
      </trkpt>
      <trkpt lat="43.852980975061655" lon="4.598471000790596">
        <ele>12.15</ele>
        <time>2025-05-16T16:01:06Z</time>
      </trkpt>
      <trkpt lat="43.852919032797217" lon="4.598636962473393">
        <ele>12.630000000000001</ele>
        <time>2025-05-16T16:01:07Z</time>
      </trkpt>
      <trkpt lat="43.852856000885367" lon="4.598804013803601">
        <ele>12.630000000000001</ele>
        <time>2025-05-16T16:01:08Z</time>
      </trkpt>
      <trkpt lat="43.852791963145137" lon="4.59897399879992">
        <ele>13.119999999999999</ele>
        <time>2025-05-16T16:01:09Z</time>
      </trkpt>
      <trkpt lat="43.852556012570858" lon="4.600630011409521">
        <ele>12.15</ele>
        <time>2025-05-16T16:01:18Z</time>
      </trkpt>
      <trkpt lat="43.852479988709092" lon="4.600968975573778">
        <ele>12.15</ele>
        <time>2025-05-16T16:01:20Z</time>
      </trkpt>
      <trkpt lat="43.852423997595906" lon="4.601126974448562">
        <ele>12.15</ele>
        <time>2025-05-16T16:01:21Z</time>
      </trkpt>
      <trkpt lat="43.852292988449335" lon="4.601417994126678">
        <ele>12.15</ele>
        <time>2025-05-16T16:01:23Z</time>
      </trkpt>
      <trkpt lat="43.852080004289746" lon="4.601823007687926">
        <ele>12.15</ele>
        <time>2025-05-16T16:01:26Z</time>
      </trkpt>
      <trkpt lat="43.851743973791599" lon="4.602414015680552">
        <ele>12.15</ele>
        <time>2025-05-16T16:01:31Z</time>
      </trkpt>
      <trkpt lat="43.851671973243356" lon="4.602542007341981">
        <ele>12.15</ele>
        <time>2025-05-16T16:01:32Z</time>
      </trkpt>
      <trkpt lat="43.851166963577271" lon="4.603416994214058">
        <ele>12.630000000000001</ele>
        <time>2025-05-16T16:01:40Z</time>
      </trkpt>
      <trkpt lat="43.851044001057744" lon="4.603628972545266">
        <ele>12.630000000000001</ele>
        <time>2025-05-16T16:01:48Z</time>
      </trkpt>
      <trkpt lat="43.850816013291478" lon="4.604014037176967">
        <ele>13.119999999999999</ele>
        <time>2025-05-16T16:01:56Z</time>
      </trkpt>
      <trkpt lat="43.850342016667128" lon="4.604749968275428">
        <ele>13.119999999999999</ele>
        <time>2025-05-16T16:02:03Z</time>
      </trkpt>
      <trkpt lat="43.849582029506564" lon="4.605565024539828">
        <ele>15.039999999999999</ele>
        <time>2025-05-16T16:02:11Z</time>
      </trkpt>
      <trkpt lat="43.848955985158682" lon="4.606204982846975">
        <ele>17.440000000000001</ele>
        <time>2025-05-16T16:02:17Z</time>
      </trkpt>
      <trkpt lat="43.848846014589071" lon="4.60634202696383">
        <ele>17.920000000000002</ele>
        <time>2025-05-16T16:02:18Z</time>
      </trkpt>
      <trkpt lat="43.84873503819108" lon="4.606480998918414">
        <ele>17.920000000000002</ele>
        <time>2025-05-16T16:02:19Z</time>
      </trkpt>
      <trkpt lat="43.847925011068583" lon="4.607441984117031">
        <ele>18.399999999999999</ele>
        <time>2025-05-16T16:02:27Z</time>
      </trkpt>
      <trkpt lat="43.846554988995194" lon="4.608733970671892">
        <ele>18.879999999999999</ele>
        <time>2025-05-16T16:02:40Z</time>
      </trkpt>
      <trkpt lat="43.845934979617596" lon="4.609579034149647">
        <ele>17.440000000000001</ele>
        <time>2025-05-16T16:02:47Z</time>
      </trkpt>
      <trkpt lat="43.845548992976546" lon="4.610151015222073">
        <ele>16</ele>
        <time>2025-05-16T16:02:58Z</time>
      </trkpt>
      <trkpt lat="43.845107015222311" lon="4.610930029302836">
        <ele>16.48</ele>
        <time>2025-05-16T16:03:05Z</time>
      </trkpt>
      <trkpt lat="43.844606028869748" lon="4.612330980598927">
        <ele>16.960000000000001</ele>
        <time>2025-05-16T16:03:12Z</time>
      </trkpt>
      <trkpt lat="43.844102025032043" lon="4.614326041191816">
        <ele>18.399999999999999</ele>
        <time>2025-05-16T16:03:20Z</time>
      </trkpt>
      <trkpt lat="43.843400962650776" lon="4.616938009858131">
        <ele>21.289999999999999</ele>
        <time>2025-05-16T16:03:31Z</time>
      </trkpt>
      <trkpt lat="43.842719011008739" lon="4.618131006136537">
        <ele>22.73</ele>
        <time>2025-05-16T16:03:37Z</time>
      </trkpt>
      <trkpt lat="43.842488005757332" lon="4.618441974744201">
        <ele>23.210000000000001</ele>
        <time>2025-05-16T16:03:39Z</time>
      </trkpt>
      <trkpt lat="43.842108976095915" lon="4.618806000798941">
        <ele>23.210000000000001</ele>
        <time>2025-05-16T16:03:43Z</time>
      </trkpt>
      <trkpt lat="43.841907978057861" lon="4.61887096054852">
        <ele>23.210000000000001</ele>
        <time>2025-05-16T16:03:44Z</time>
      </trkpt>
      <trkpt lat="43.841907978057861" lon="4.61887096054852">
        <ele>23.210000000000001</ele>
        <time>2025-05-16T16:03:45Z</time>
      </trkpt>
      <trkpt lat="43.841801024973392" lon="4.61887096054852">
        <ele>23.210000000000001</ele>
        <time>2025-05-16T16:03:47Z</time>
      </trkpt>
      <trkpt lat="43.841761965304613" lon="4.618950001895428">
        <ele>23.210000000000001</ele>
        <time>2025-05-16T16:03:48Z</time>
      </trkpt>
      <trkpt lat="43.841736987233162" lon="4.619000041857362">
        <ele>23.210000000000001</ele>
        <time>2025-05-16T16:03:49Z</time>
      </trkpt>
      <trkpt lat="43.841736987233162" lon="4.619000041857362">
        <ele>23.210000000000001</ele>
        <time>2025-05-16T16:03:50Z</time>
      </trkpt>
      <trkpt lat="43.841641014441848" lon="4.61923498660326">
        <ele>23.210000000000001</ele>
        <time>2025-05-16T16:03:51Z</time>
      </trkpt>
      <trkpt lat="43.841565996408463" lon="4.619317967444658">
        <ele>23.210000000000001</ele>
        <time>2025-05-16T16:03:52Z</time>
      </trkpt>
      <trkpt lat="43.841478992253542" lon="4.619413018226624">
        <ele>23.210000000000001</ele>
        <time>2025-05-16T16:03:53Z</time>
      </trkpt>
      <trkpt lat="43.841383019462228" lon="4.619519971311092">
        <ele>23.210000000000001</ele>
        <time>2025-05-16T16:03:54Z</time>
      </trkpt>
      <trkpt lat="43.841142039746046" lon="4.619713006541133">
        <ele>22.73</ele>
        <time>2025-05-16T16:03:56Z</time>
      </trkpt>
      <trkpt lat="43.839876037091017" lon="4.620521022006869">
        <ele>21.289999999999999</ele>
        <time>2025-05-16T16:04:04Z</time>
      </trkpt>
      <trkpt lat="43.839317969977856" lon="4.620797960087657">
        <ele>20.809999999999999</ele>
        <time>2025-05-16T16:04:07Z</time>
      </trkpt>
      <trkpt lat="43.839118983596563" lon="4.620869960635901">
        <ele>20.809999999999999</ele>
        <time>2025-05-16T16:04:08Z</time>
      </trkpt>
      <trkpt lat="43.837015964090824" lon="4.621010022237897">
        <ele>19.359999999999999</ele>
        <time>2025-05-16T16:04:18Z</time>
      </trkpt>
      <trkpt lat="43.835324998944998" lon="4.620626969262958">
        <ele>19.359999999999999</ele>
        <time>2025-05-16T16:04:26Z</time>
      </trkpt>
      <trkpt lat="43.834915962070227" lon="4.620514987036586">
        <ele>19.359999999999999</ele>
        <time>2025-05-16T16:04:28Z</time>
      </trkpt>
      <trkpt lat="43.834712030366063" lon="4.6204589959234">
        <ele>19.359999999999999</ele>
        <time>2025-05-16T16:04:29Z</time>
      </trkpt>
      <trkpt lat="43.83322399109602" lon="4.619789030402899">
        <ele>18.399999999999999</ele>
        <time>2025-05-16T16:04:37Z</time>
      </trkpt>
      <trkpt lat="43.831522967666388" lon="4.618819998577237">
        <ele>19.84</ele>
        <time>2025-05-16T16:04:47Z</time>
      </trkpt>
      <trkpt lat="43.830403983592987" lon="4.617335982620716">
        <ele>23.210000000000001</ele>
        <time>2025-05-16T16:04:55Z</time>
      </trkpt>
      <trkpt lat="43.828634982928634" lon="4.614872960373759">
        <ele>33.780000000000001</ele>
        <time>2025-05-16T16:05:08Z</time>
      </trkpt>
      <trkpt lat="43.827326986938715" lon="4.614165024831891">
        <ele>40.509999999999998</ele>
        <time>2025-05-16T16:05:15Z</time>
      </trkpt>
      <trkpt lat="43.824593983590603" lon="4.613486006855965">
        <ele>53.490000000000002</ele>
        <time>2025-05-16T16:05:28Z</time>
      </trkpt>
      <trkpt lat="43.821699041873217" lon="4.612781004980207">
        <ele>57.82</ele>
        <time>2025-05-16T16:05:41Z</time>
      </trkpt>
      <trkpt lat="43.81964698433876" lon="4.612255962565541">
        <ele>52.049999999999997</ele>
        <time>2025-05-16T16:05:51Z</time>
      </trkpt>
      <trkpt lat="43.8188920263201" lon="4.611936025321484">
        <ele>49.159999999999997</ele>
        <time>2025-05-16T16:05:57Z</time>
      </trkpt>
      <trkpt lat="43.81882899440825" lon="4.611895037814975">
        <ele>49.159999999999997</ele>
        <time>2025-05-16T16:05:58Z</time>
      </trkpt>
      <trkpt lat="43.818777026608586" lon="4.611768973991275">
        <ele>49.159999999999997</ele>
        <time>2025-05-16T16:05:59Z</time>
      </trkpt>
      <trkpt lat="43.818688010796905" lon="4.611597983166575">
        <ele>48.68</ele>
        <time>2025-05-16T16:06:01Z</time>
      </trkpt>
      <trkpt lat="43.818618021905422" lon="4.611538974568248">
        <ele>48.68</ele>
        <time>2025-05-16T16:06:02Z</time>
      </trkpt>
      <trkpt lat="43.818506961688399" lon="4.61152003146708">
        <ele>48.68</ele>
        <time>2025-05-16T16:06:03Z</time>
      </trkpt>
      <trkpt lat="43.818420963361859" lon="4.611529000103474">
        <ele>48.68</ele>
        <time>2025-05-16T16:06:04Z</time>
      </trkpt>
      <trkpt lat="43.818324990570545" lon="4.611588008701801">
        <ele>48.68</ele>
        <time>2025-05-16T16:06:05Z</time>
      </trkpt>
      <trkpt lat="43.818261958658695" lon="4.611639976501465">
        <ele>48.68</ele>
        <time>2025-05-16T16:06:06Z</time>
      </trkpt>
      <trkpt lat="43.818121980875731" lon="4.611838040873408">
        <ele>48.200000000000003</ele>
        <time>2025-05-16T16:06:07Z</time>
      </trkpt>
      <trkpt lat="43.818022990599275" lon="4.611809039488435">
        <ele>47.719999999999999</ele>
        <time>2025-05-16T16:06:08Z</time>
      </trkpt>
      <trkpt lat="43.817904973402619" lon="4.6117780264467">
        <ele>47.240000000000002</ele>
        <time>2025-05-16T16:06:09Z</time>
      </trkpt>
      <trkpt lat="43.81777698174119" lon="4.611750030890107">
        <ele>46.759999999999998</ele>
        <time>2025-05-16T16:06:10Z</time>
      </trkpt>
      <trkpt lat="43.815969005227089" lon="4.61134702898562">
        <ele>40.509999999999998</ele>
        <time>2025-05-16T16:06:23Z</time>
      </trkpt>
      <trkpt lat="43.814032031223178" lon="4.611053997650743">
        <ele>27.530000000000001</ele>
        <time>2025-05-16T16:06:34Z</time>
      </trkpt>
      <trkpt lat="43.811804037541151" lon="4.610916031524539">
        <ele>16</ele>
        <time>2025-05-16T16:06:46Z</time>
      </trkpt>
      <trkpt lat="43.809627005830407" lon="4.610721990466118">
        <ele>13.119999999999999</ele>
        <time>2025-05-16T16:06:58Z</time>
      </trkpt>
      <trkpt lat="43.80804299376905" lon="4.610375985503197">
        <ele>12.630000000000001</ele>
        <time>2025-05-16T16:07:07Z</time>
      </trkpt>
      <trkpt lat="43.805884988978505" lon="4.609363032504916">
        <ele>17.440000000000001</ele>
        <time>2025-05-16T16:07:21Z</time>
      </trkpt>
      <trkpt lat="43.803993025794625" lon="4.608721984550357">
        <ele>20.32</ele>
        <time>2025-05-16T16:07:32Z</time>
      </trkpt>
      <trkpt lat="43.802015986293554" lon="4.608155032619834">
        <ele>14.56</ele>
        <time>2025-05-16T16:07:44Z</time>
      </trkpt>
      <trkpt lat="43.800357040017843" lon="4.607808021828532">
        <ele>8.310000000000001</ele>
        <time>2025-05-16T16:07:54Z</time>
      </trkpt>
      <trkpt lat="43.798972014337778" lon="4.608116978779435">
        <ele>4.94</ele>
        <time>2025-05-16T16:08:02Z</time>
      </trkpt>
      <trkpt lat="43.797207958996296" lon="4.609254989773035">
        <ele>7.83</ele>
        <time>2025-05-16T16:08:13Z</time>
      </trkpt>
      <trkpt lat="43.79474401473999" lon="4.611095990985632">
        <ele>8.310000000000001</ele>
        <time>2025-05-16T16:08:28Z</time>
      </trkpt>
      <trkpt lat="43.793700970709324" lon="4.612327963113785">
        <ele>7.83</ele>
        <time>2025-05-16T16:08:35Z</time>
      </trkpt>
      <trkpt lat="43.792798994109035" lon="4.614323023706675">
        <ele>9.27</ele>
        <time>2025-05-16T16:08:44Z</time>
      </trkpt>
      <trkpt lat="43.792442008852959" lon="4.616372985765338">
        <ele>9.27</ele>
        <time>2025-05-16T16:08:52Z</time>
      </trkpt>
      <trkpt lat="43.792544016614556" lon="4.6184800285846">
        <ele>9.27</ele>
        <time>2025-05-16T16:09:00Z</time>
      </trkpt>
      <trkpt lat="43.793171988800168" lon="4.621187970042229">
        <ele>14.08</ele>
        <time>2025-05-16T16:09:11Z</time>
      </trkpt>
      <trkpt lat="43.793683033436537" lon="4.624039996415377">
        <ele>12.15</ele>
        <time>2025-05-16T16:09:22Z</time>
      </trkpt>
      <trkpt lat="43.793637016788125" lon="4.626295985653997">
        <ele>11.67</ele>
        <time>2025-05-16T16:09:31Z</time>
      </trkpt>
      <trkpt lat="43.793242983520031" lon="4.6283870190382">
        <ele>11.19</ele>
        <time>2025-05-16T16:09:40Z</time>
      </trkpt>
      <trkpt lat="43.792922040447593" lon="4.629383962601423">
        <ele>8.789999999999999</ele>
        <time>2025-05-16T16:09:47Z</time>
      </trkpt>
      <trkpt lat="43.792878035455942" lon="4.629470966756344">
        <ele>8.310000000000001</ele>
        <time>2025-05-16T16:09:48Z</time>
      </trkpt>
      <trkpt lat="43.792837969958782" lon="4.629550008103252">
        <ele>8.310000000000001</ele>
        <time>2025-05-16T16:09:49Z</time>
      </trkpt>
      <trkpt lat="43.792737973853946" lon="4.62967598810792">
        <ele>7.83</ele>
        <time>2025-05-16T16:09:51Z</time>
      </trkpt>
      <trkpt lat="43.792671002447605" lon="4.629717981442809">
        <ele>7.83</ele>
        <time>2025-05-16T16:09:52Z</time>
      </trkpt>
      <trkpt lat="43.792620040476322" lon="4.629750000312924">
        <ele>7.83</ele>
        <time>2025-05-16T16:09:53Z</time>
      </trkpt>
      <trkpt lat="43.79244402050972" lon="4.629842033609748">
        <ele>7.83</ele>
        <time>2025-05-16T16:09:54Z</time>
      </trkpt>
      <trkpt lat="43.79238199442625" lon="4.629763998091221">
        <ele>7.83</ele>
        <time>2025-05-16T16:09:55Z</time>
      </trkpt>
      <trkpt lat="43.792308988049626" lon="4.629669031128287">
        <ele>7.83</ele>
        <time>2025-05-16T16:09:56Z</time>
      </trkpt>
      <trkpt lat="43.792235981673002" lon="4.629557970911264">
        <ele>7.83</ele>
        <time>2025-05-16T16:09:57Z</time>
      </trkpt>
      <trkpt lat="43.792158029973507" lon="4.62943903170526">
        <ele>8.310000000000001</ele>
        <time>2025-05-16T16:09:58Z</time>
      </trkpt>
      <trkpt lat="43.791559981182218" lon="4.628587011247873">
        <ele>8.310000000000001</ele>
        <time>2025-05-16T16:10:04Z</time>
      </trkpt>
      <trkpt lat="43.791424026712775" lon="4.628454996272922">
        <ele>8.310000000000001</ele>
        <time>2025-05-16T16:10:05Z</time>
      </trkpt>
      <trkpt lat="43.791280025616288" lon="4.628321975469589">
        <ele>8.310000000000001</ele>
        <time>2025-05-16T16:10:06Z</time>
      </trkpt>
      <trkpt lat="43.791115991771221" lon="4.628226002678275">
        <ele>8.310000000000001</ele>
        <time>2025-05-16T16:10:07Z</time>
      </trkpt>
      <trkpt lat="43.79094198346138" lon="4.628138998523355">
        <ele>7.83</ele>
        <time>2025-05-16T16:10:08Z</time>
      </trkpt>
      <trkpt lat="43.790765041485429" lon="4.628049982711673">
        <ele>7.83</ele>
        <time>2025-05-16T16:10:09Z</time>
      </trkpt>
      <trkpt lat="43.790584998205304" lon="4.627963984385133">
        <ele>7.83</ele>
        <time>2025-05-16T16:10:10Z</time>
      </trkpt>
      <trkpt lat="43.788760006427765" lon="4.627503985539079">
        <ele>7.83</ele>
        <time>2025-05-16T16:10:19Z</time>
      </trkpt>
      <trkpt lat="43.786935014650226" lon="4.627669025212526">
        <ele>7.35</ele>
        <time>2025-05-16T16:10:28Z</time>
      </trkpt>
      <trkpt lat="43.78561302088201" lon="4.627396026626229">
        <ele>10.23</ele>
        <time>2025-05-16T16:10:35Z</time>
      </trkpt>
      <trkpt lat="43.784059016034007" lon="4.626377960667014">
        <ele>11.19</ele>
        <time>2025-05-16T16:10:44Z</time>
      </trkpt>
      <trkpt lat="43.781286031007767" lon="4.62439295835793">
        <ele>10.23</ele>
        <time>2025-05-16T16:11:00Z</time>
      </trkpt>
      <trkpt lat="43.779601017013192" lon="4.623076999559999">
        <ele>9.27</ele>
        <time>2025-05-16T16:11:10Z</time>
      </trkpt>
      <trkpt lat="43.777730008587241" lon="4.621845027431846">
        <ele>8.310000000000001</ele>
        <time>2025-05-16T16:11:21Z</time>
      </trkpt>
      <trkpt lat="43.775561023503542" lon="4.621359966695309">
        <ele>8.789999999999999</ele>
        <time>2025-05-16T16:11:32Z</time>
      </trkpt>
      <trkpt lat="43.773607034236193" lon="4.621288971975446">
        <ele>9.75</ele>
        <time>2025-05-16T16:11:42Z</time>
      </trkpt>
      <trkpt lat="43.771305028349161" lon="4.620702993124723">
        <ele>9.27</ele>
        <time>2025-05-16T16:11:54Z</time>
      </trkpt>
      <trkpt lat="43.768559033051133" lon="4.619981981813908">
        <ele>8.310000000000001</ele>
        <time>2025-05-16T16:12:08Z</time>
      </trkpt>
      <trkpt lat="43.766994969919324" lon="4.619051003828645">
        <ele>6.87</ele>
        <time>2025-05-16T16:12:17Z</time>
      </trkpt>
      <trkpt lat="43.764810981228948" lon="4.617876028642058">
        <ele>6.39</ele>
        <time>2025-05-16T16:12:29Z</time>
      </trkpt>
      <trkpt lat="43.761821994557977" lon="4.616842037066817">
        <ele>9.75</ele>
        <time>2025-05-16T16:12:44Z</time>
      </trkpt>
      <trkpt lat="43.758994024246931" lon="4.615778038278222">
        <ele>11.19</ele>
        <time>2025-05-16T16:12:58Z</time>
      </trkpt>
      <trkpt lat="43.756496971473098" lon="4.614264015108347">
        <ele>11.19</ele>
        <time>2025-05-16T16:13:12Z</time>
      </trkpt>
      <trkpt lat="43.75540598295629" lon="4.613097002729774">
        <ele>10.23</ele>
        <time>2025-05-16T16:13:19Z</time>
      </trkpt>
      <trkpt lat="43.754038978368044" lon="4.611939964815974">
        <ele>9.27</ele>
        <time>2025-05-16T16:13:27Z</time>
      </trkpt>
      <trkpt lat="43.752678008750081" lon="4.611666966229677">
        <ele>7.83</ele>
        <time>2025-05-16T16:13:34Z</time>
      </trkpt>
      <trkpt lat="43.751333970576525" lon="4.61205898784101">
        <ele>6.87</ele>
        <time>2025-05-16T16:13:41Z</time>
      </trkpt>
      <trkpt lat="43.748856028541923" lon="4.612801959738135">
        <ele>6.39</ele>
        <time>2025-05-16T16:13:54Z</time>
      </trkpt>
      <trkpt lat="43.746171975508332" lon="4.613146958872676">
        <ele>4.46</ele>
        <time>2025-05-16T16:14:07Z</time>
      </trkpt>
      <trkpt lat="43.74440498650074" lon="4.612941015511751">
        <ele>4.94</ele>
        <time>2025-05-16T16:14:16Z</time>
      </trkpt>
      <trkpt lat="43.741665026172996" lon="4.611912975087762">
        <ele>3.98</ele>
        <time>2025-05-16T16:14:30Z</time>
      </trkpt>
      <trkpt lat="43.739498974755406" lon="4.61137100122869">
        <ele>4.94</ele>
        <time>2025-05-16T16:14:41Z</time>
      </trkpt>
      <trkpt lat="43.738021999597549" lon="4.611447025090456">
        <ele>6.39</ele>
        <time>2025-05-16T16:14:49Z</time>
      </trkpt>
      <trkpt lat="43.735770033672452" lon="4.611142007634044">
        <ele>3.98</ele>
        <time>2025-05-16T16:15:01Z</time>
      </trkpt>
      <trkpt lat="43.733828030526638" lon="4.610208012163639">
        <ele>6.39</ele>
        <time>2025-05-16T16:15:11Z</time>
      </trkpt>
      <trkpt lat="43.731783013790846" lon="4.609380969777703">
        <ele>6.39</ele>
        <time>2025-05-16T16:15:21Z</time>
      </trkpt>
      <trkpt lat="43.729357039555907" lon="4.608611008152366">
        <ele>7.35</ele>
        <time>2025-05-16T16:15:33Z</time>
      </trkpt>
      <trkpt lat="43.726448016241193" lon="4.607514990493655">
        <ele>8.789999999999999</ele>
        <time>2025-05-16T16:15:48Z</time>
      </trkpt>
      <trkpt lat="43.724077027291059" lon="4.606962036341429">
        <ele>12.15</ele>
        <time>2025-05-16T16:16:00Z</time>
      </trkpt>
      <trkpt lat="43.723277980461717" lon="4.606838990002871">
        <ele>11.19</ele>
        <time>2025-05-16T16:16:04Z</time>
      </trkpt>
      <trkpt lat="43.723087040707469" lon="4.606753997504711">
        <ele>11.19</ele>
        <time>2025-05-16T16:16:05Z</time>
      </trkpt>
      <trkpt lat="43.722902974113822" lon="4.606642015278339">
        <ele>11.19</ele>
        <time>2025-05-16T16:16:06Z</time>
      </trkpt>
      <trkpt lat="43.722718991339207" lon="4.606530033051968">
        <ele>10.710000000000001</ele>
        <time>2025-05-16T16:16:07Z</time>
      </trkpt>
      <trkpt lat="43.722535008564591" lon="4.606415033340454">
        <ele>10.23</ele>
        <time>2025-05-16T16:16:08Z</time>
      </trkpt>
      <trkpt lat="43.721788013353944" lon="4.606017982587218">
        <ele>9.75</ele>
        <time>2025-05-16T16:16:12Z</time>
      </trkpt>
      <trkpt lat="43.721188958734274" lon="4.605921003967524">
        <ele>8.310000000000001</ele>
        <time>2025-05-16T16:16:15Z</time>
      </trkpt>
      <trkpt lat="43.720995001494884" lon="4.605916980654001">
        <ele>7.35</ele>
        <time>2025-05-16T16:16:16Z</time>
      </trkpt>
      <trkpt lat="43.719881968572736" lon="4.606033992022276">
        <ele>3.98</ele>
        <time>2025-05-16T16:16:23Z</time>
      </trkpt>
      <trkpt lat="43.719881968572736" lon="4.606033992022276">
        <ele>3.5</ele>
        <time>2025-05-16T16:16:27Z</time>
      </trkpt>
      <trkpt lat="43.719881968572736" lon="4.606033992022276">
        <ele>3.5</ele>
        <time>2025-05-16T16:16:52Z</time>
      </trkpt>
      <trkpt lat="43.719881968572736" lon="4.606033992022276">
        <ele>3.02</ele>
        <time>2025-05-16T16:17:33Z</time>
      </trkpt>
      <trkpt lat="43.719881968572736" lon="4.606033992022276">
        <ele>3.02</ele>
        <time>2025-05-16T16:18:18Z</time>
      </trkpt>
      <trkpt lat="43.719881968572736" lon="4.606033992022276">
        <ele>3.5</ele>
        <time>2025-05-16T16:18:58Z</time>
      </trkpt>
      <trkpt lat="43.719683988019824" lon="4.606054024770856">
        <ele>5.42</ele>
        <time>2025-05-16T16:19:20Z</time>
      </trkpt>
      <trkpt lat="43.718845965340734" lon="4.606105992570519">
        <ele>5.91</ele>
        <time>2025-05-16T16:19:27Z</time>
      </trkpt>
      <trkpt lat="43.717085011303425" lon="4.606283018365502">
        <ele>6.87</ele>
        <time>2025-05-16T16:19:37Z</time>
      </trkpt>
      <trkpt lat="43.715297989547253" lon="4.606401035562158">
        <ele>6.87</ele>
        <time>2025-05-16T16:19:46Z</time>
      </trkpt>
      <trkpt lat="43.712902022525668" lon="4.606383014470339">
        <ele>7.35</ele>
        <time>2025-05-16T16:19:58Z</time>
      </trkpt>
      <trkpt lat="43.710688026621938" lon="4.606967987492681">
        <ele>9.27</ele>
        <time>2025-05-16T16:20:09Z</time>
      </trkpt>
      <trkpt lat="43.708956995978951" lon="4.607434021309018">
        <ele>9.27</ele>
        <time>2025-05-16T16:20:18Z</time>
      </trkpt>
      <trkpt lat="43.708779970183969" lon="4.607434021309018">
        <ele>9.27</ele>
        <time>2025-05-16T16:20:19Z</time>
      </trkpt>
      <trkpt lat="43.708606967702508" lon="4.607433015480638">
        <ele>8.789999999999999</ele>
        <time>2025-05-16T16:20:20Z</time>
      </trkpt>
      <trkpt lat="43.708449974656105" lon="4.607389010488987">
        <ele>8.789999999999999</ele>
        <time>2025-05-16T16:20:21Z</time>
      </trkpt>
      <trkpt lat="43.708300022408366" lon="4.607347017154098">
        <ele>8.310000000000001</ele>
        <time>2025-05-16T16:20:22Z</time>
      </trkpt>
      <trkpt lat="43.708159038797021" lon="4.607291026040912">
        <ele>8.310000000000001</ele>
        <time>2025-05-16T16:20:23Z</time>
      </trkpt>
      <trkpt lat="43.708033980801702" lon="4.607225982472301">
        <ele>8.310000000000001</ele>
        <time>2025-05-16T16:20:24Z</time>
      </trkpt>
      <trkpt lat="43.707924010232091" lon="4.607167979702354">
        <ele>8.310000000000001</ele>
        <time>2025-05-16T16:20:25Z</time>
      </trkpt>
      <trkpt lat="43.707841029390693" lon="4.606876038014889">
        <ele>7.83</ele>
        <time>2025-05-16T16:20:26Z</time>
      </trkpt>
      <trkpt lat="43.707817979156971" lon="4.606849970296025">
        <ele>8.310000000000001</ele>
        <time>2025-05-16T16:20:27Z</time>
      </trkpt>
      <trkpt lat="43.707743966951966" lon="4.606765983626247">
        <ele>7.83</ele>
        <time>2025-05-16T16:20:28Z</time>
      </trkpt>
      <trkpt lat="43.707659980282187" lon="4.60670898668468">
        <ele>7.83</ele>
        <time>2025-05-16T16:20:29Z</time>
      </trkpt>
      <trkpt lat="43.707569036632776" lon="4.606721978634596">
        <ele>7.83</ele>
        <time>2025-05-16T16:20:30Z</time>
      </trkpt>
      <trkpt lat="43.707454958930612" lon="4.606646038591862">
        <ele>7.83</ele>
        <time>2025-05-16T16:20:31Z</time>
      </trkpt>
      <trkpt lat="43.707354040816426" lon="4.606549981981516">
        <ele>6.87</ele>
        <time>2025-05-16T16:20:32Z</time>
      </trkpt>
      <trkpt lat="43.707237029448152" lon="4.606439005583525">
        <ele>6.87</ele>
        <time>2025-05-16T16:20:33Z</time>
      </trkpt>
      <trkpt lat="43.707111971452832" lon="4.606305984780192">
        <ele>6.39</ele>
        <time>2025-05-16T16:20:34Z</time>
      </trkpt>
      <trkpt lat="43.707006024196744" lon="4.606130970641971">
        <ele>6.39</ele>
        <time>2025-05-16T16:20:35Z</time>
      </trkpt>
      <trkpt lat="43.705922998487949" lon="4.604189973324537">
        <ele>6.39</ele>
        <time>2025-05-16T16:20:44Z</time>
      </trkpt>
      <trkpt lat="43.704925971105695" lon="4.602642003446817">
        <ele>8.310000000000001</ele>
        <time>2025-05-16T16:20:52Z</time>
      </trkpt>
      <trkpt lat="43.703684024512768" lon="4.601851003244519">
        <ele>6.39</ele>
        <time>2025-05-16T16:20:59Z</time>
      </trkpt>
      <trkpt lat="43.701656023040414" lon="4.601400978863239">
        <ele>3.5</ele>
        <time>2025-05-16T16:21:09Z</time>
      </trkpt>
      <trkpt lat="43.700255993753672" lon="4.601104008033872">
        <ele>3.98</ele>
        <time>2025-05-16T16:21:18Z</time>
      </trkpt>
      <trkpt lat="43.699464993551373" lon="4.60092899389565">
        <ele>4.46</ele>
        <time>2025-05-16T16:21:25Z</time>
      </trkpt>
      <trkpt lat="43.699280004948378" lon="4.600864034146071">
        <ele>4.46</ele>
        <time>2025-05-16T16:21:27Z</time>
      </trkpt>
      <trkpt lat="43.699196018278599" lon="4.600834026932716">
        <ele>4.46</ele>
        <time>2025-05-16T16:21:28Z</time>
      </trkpt>
      <trkpt lat="43.699108008295298" lon="4.600589023903012">
        <ele>4.94</ele>
        <time>2025-05-16T16:21:29Z</time>
      </trkpt>
      <trkpt lat="43.699067020788789" lon="4.600568991154432">
        <ele>4.46</ele>
        <time>2025-05-16T16:21:30Z</time>
      </trkpt>
      <trkpt lat="43.698986973613501" lon="4.600529009476304">
        <ele>4.46</ele>
        <time>2025-05-16T16:21:31Z</time>
      </trkpt>
      <trkpt lat="43.698936011642218" lon="4.600503025576472">
        <ele>4.46</ele>
        <time>2025-05-16T16:21:32Z</time>
      </trkpt>
      <trkpt lat="43.698840038850904" lon="4.600580977275968">
        <ele>4.46</ele>
        <time>2025-05-16T16:21:33Z</time>
      </trkpt>
      <trkpt lat="43.698671981692314" lon="4.600663036108017">
        <ele>4.94</ele>
        <time>2025-05-16T16:21:34Z</time>
      </trkpt>
      <trkpt lat="43.698586989194155" lon="4.600596986711025">
        <ele>4.94</ele>
        <time>2025-05-16T16:21:35Z</time>
      </trkpt>
      <trkpt lat="43.69849001057446" lon="4.60051903501153">
        <ele>4.94</ele>
        <time>2025-05-16T16:21:36Z</time>
      </trkpt>
      <trkpt lat="43.697468005120754" lon="4.600085020065308">
        <ele>4.94</ele>
        <time>2025-05-16T16:21:43Z</time>
      </trkpt>
      <trkpt lat="43.695454001426697" lon="4.599128980189562">
        <ele>6.39</ele>
        <time>2025-05-16T16:21:55Z</time>
      </trkpt>
      <trkpt lat="43.694729972630739" lon="4.598780041560531">
        <ele>6.39</ele>
        <time>2025-05-16T16:22:01Z</time>
      </trkpt>
      <trkpt lat="43.694616984575987" lon="4.598725978285074">
        <ele>6.39</ele>
        <time>2025-05-16T16:22:03Z</time>
      </trkpt>
      <trkpt lat="43.694569962099195" lon="4.598703011870384">
        <ele>5.91</ele>
        <time>2025-05-16T16:22:04Z</time>
      </trkpt>
      <trkpt lat="43.694524029269814" lon="4.598680967465043">
        <ele>5.91</ele>
        <time>2025-05-16T16:22:05Z</time>
      </trkpt>
      <trkpt lat="43.69445102289319" lon="4.598421966657043">
        <ele>5.91</ele>
        <time>2025-05-16T16:22:06Z</time>
      </trkpt>
      <trkpt lat="43.69445102289319" lon="4.598421966657043">
        <ele>5.91</ele>
        <time>2025-05-16T16:22:07Z</time>
      </trkpt>
      <trkpt lat="43.694399977102876" lon="4.598236978054047">
        <ele>5.42</ele>
        <time>2025-05-16T16:22:09Z</time>
      </trkpt>
      <trkpt lat="43.694339962676167" lon="4.598166989162564">
        <ele>5.42</ele>
        <time>2025-05-16T16:22:10Z</time>
      </trkpt>
      <trkpt lat="43.69425899349153" lon="4.598104041069746">
        <ele>5.42</ele>
        <time>2025-05-16T16:22:11Z</time>
      </trkpt>
      <trkpt lat="43.694182969629765" lon="4.59807101637125">
        <ele>5.42</ele>
        <time>2025-05-16T16:22:12Z</time>
      </trkpt>
      <trkpt lat="43.694079034030437" lon="4.598077973350883">
        <ele>5.42</ele>
        <time>2025-05-16T16:22:13Z</time>
      </trkpt>
      <trkpt lat="43.69397702626884" lon="4.598141005262733">
        <ele>5.42</ele>
        <time>2025-05-16T16:22:14Z</time>
      </trkpt>
      <trkpt lat="43.693920029327273" lon="4.598233960568905">
        <ele>5.42</ele>
        <time>2025-05-16T16:22:15Z</time>
      </trkpt>
      <trkpt lat="43.693866971880198" lon="4.598352983593941">
        <ele>5.42</ele>
        <time>2025-05-16T16:22:16Z</time>
      </trkpt>
      <trkpt lat="43.69385196827352" lon="4.59847703576088">
        <ele>5.42</ele>
        <time>2025-05-16T16:22:17Z</time>
      </trkpt>
      <trkpt lat="43.693874012678862" lon="4.598616007715464">
        <ele>5.42</ele>
        <time>2025-05-16T16:22:18Z</time>
      </trkpt>
      <trkpt lat="43.693893039599061" lon="4.598722960799933">
        <ele>5.42</ele>
        <time>2025-05-16T16:22:19Z</time>
      </trkpt>
      <trkpt lat="43.693985994905233" lon="4.598806025460362">
        <ele>5.42</ele>
        <time>2025-05-16T16:22:20Z</time>
      </trkpt>
      <trkpt lat="43.694094037637115" lon="4.5990389585495">
        <ele>5.91</ele>
        <time>2025-05-16T16:22:21Z</time>
      </trkpt>
      <trkpt lat="43.694076016545296" lon="4.599202992394567">
        <ele>5.91</ele>
        <time>2025-05-16T16:22:22Z</time>
      </trkpt>
      <trkpt lat="43.694054977968335" lon="4.599385969340801">
        <ele>6.39</ele>
        <time>2025-05-16T16:22:23Z</time>
      </trkpt>
      <trkpt lat="43.694033017382026" lon="4.599580010399222">
        <ele>6.39</ele>
        <time>2025-05-16T16:22:24Z</time>
      </trkpt>
      <trkpt lat="43.694009967148304" lon="4.599781008437276">
        <ele>6.87</ele>
        <time>2025-05-16T16:22:25Z</time>
      </trkpt>
      <trkpt lat="43.693815004080534" lon="4.601458981633186">
        <ele>7.83</ele>
        <time>2025-05-16T16:22:34Z</time>
      </trkpt>
      <trkpt lat="43.693295996636152" lon="4.60301399230957">
        <ele>7.83</ele>
        <time>2025-05-16T16:22:42Z</time>
      </trkpt>
      <trkpt lat="43.69309701025486" lon="4.603366032242775">
        <ele>7.83</ele>
        <time>2025-05-16T16:22:44Z</time>
      </trkpt>
      <trkpt lat="43.692972036078572" lon="4.603514978662133">
        <ele>8.310000000000001</ele>
        <time>2025-05-16T16:22:45Z</time>
      </trkpt>
      <trkpt lat="43.691965034231544" lon="4.604255016893148">
        <ele>8.789999999999999</ele>
        <time>2025-05-16T16:22:52Z</time>
      </trkpt>
      <trkpt lat="43.6909069865942" lon="4.604618959128857">
        <ele>9.27</ele>
        <time>2025-05-16T16:23:00Z</time>
      </trkpt>
      <trkpt lat="43.690814031288028" lon="4.60464402101934">
        <ele>9.27</ele>
        <time>2025-05-16T16:23:01Z</time>
      </trkpt>
      <trkpt lat="43.690727027133107" lon="4.60466799326241">
        <ele>8.789999999999999</ele>
        <time>2025-05-16T16:23:02Z</time>
      </trkpt>
      <trkpt lat="43.690610015764832" lon="4.604579983279109">
        <ele>8.789999999999999</ele>
        <time>2025-05-16T16:23:03Z</time>
      </trkpt>
      <trkpt lat="43.690524017438293" lon="4.60453798994422">
        <ele>8.789999999999999</ele>
        <time>2025-05-16T16:23:04Z</time>
      </trkpt>
      <trkpt lat="43.690436007454991" lon="4.604595992714167">
        <ele>8.789999999999999</ele>
        <time>2025-05-16T16:23:05Z</time>
      </trkpt>
      <trkpt lat="43.690396025776863" lon="4.604622982442379">
        <ele>8.789999999999999</ele>
        <time>2025-05-16T16:23:06Z</time>
      </trkpt>
      <trkpt lat="43.690266022458673" lon="4.604794979095459">
        <ele>9.27</ele>
        <time>2025-05-16T16:23:07Z</time>
      </trkpt>
      <trkpt lat="43.690154040232301" lon="4.604828003793955">
        <ele>9.27</ele>
        <time>2025-05-16T16:23:08Z</time>
      </trkpt>
      <trkpt lat="43.690030993893743" lon="4.604864967986941">
        <ele>9.27</ele>
        <time>2025-05-16T16:23:09Z</time>
      </trkpt>
      <trkpt lat="43.688684022054076" lon="4.605227988213301">
        <ele>11.67</ele>
        <time>2025-05-16T16:23:18Z</time>
      </trkpt>
      <trkpt lat="43.687325986102223" lon="4.605609029531479">
        <ele>13.119999999999999</ele>
        <time>2025-05-16T16:23:27Z</time>
      </trkpt>
      <trkpt lat="43.686053026467562" lon="4.605969032272697">
        <ele>14.08</ele>
        <time>2025-05-16T16:23:35Z</time>
      </trkpt>
      <trkpt lat="43.684330964460969" lon="4.606323000043631">
        <ele>15.039999999999999</ele>
        <time>2025-05-16T16:23:45Z</time>
      </trkpt>
      <trkpt lat="43.682589959353209" lon="4.606411010026932">
        <ele>15.52</ele>
        <time>2025-05-16T16:23:55Z</time>
      </trkpt>
      <trkpt lat="43.680264987051487" lon="4.606678979471326">
        <ele>13.119999999999999</ele>
        <time>2025-05-16T16:24:08Z</time>
      </trkpt>
      <trkpt lat="43.679452026262879" lon="4.607154987752438">
        <ele>12.15</ele>
        <time>2025-05-16T16:24:14Z</time>
      </trkpt>
      <trkpt lat="43.679305007681251" lon="4.607228999957442">
        <ele>12.15</ele>
        <time>2025-05-16T16:24:16Z</time>
      </trkpt>
      <trkpt lat="43.679215991869569" lon="4.607212990522385">
        <ele>12.15</ele>
        <time>2025-05-16T16:24:18Z</time>
      </trkpt>
      <trkpt lat="43.67915203794837" lon="4.607186000794172">
        <ele>12.15</ele>
        <time>2025-05-16T16:24:19Z</time>
      </trkpt>
      <trkpt lat="43.679104009643197" lon="4.607135960832238">
        <ele>12.630000000000001</ele>
        <time>2025-05-16T16:24:20Z</time>
      </trkpt>
      <trkpt lat="43.678964031860232" lon="4.606977039948106">
        <ele>12.630000000000001</ele>
        <time>2025-05-16T16:24:22Z</time>
      </trkpt>
      <trkpt lat="43.678891025483608" lon="4.606897998601198">
        <ele>12.630000000000001</ele>
        <time>2025-05-16T16:24:23Z</time>
      </trkpt>
      <trkpt lat="43.678791029378772" lon="4.606839995831251">
        <ele>12.630000000000001</ele>
        <time>2025-05-16T16:24:24Z</time>
      </trkpt>
      <trkpt lat="43.678693966940045" lon="4.606842007488012">
        <ele>12.15</ele>
        <time>2025-05-16T16:24:25Z</time>
      </trkpt>
      <trkpt lat="43.678608974441886" lon="4.606852987781167">
        <ele>12.15</ele>
        <time>2025-05-16T16:24:26Z</time>
      </trkpt>
      <trkpt lat="43.678519036620855" lon="4.606930017471314">
        <ele>12.15</ele>
        <time>2025-05-16T16:24:27Z</time>
      </trkpt>
      <trkpt lat="43.678457010537386" lon="4.607017021626234">
        <ele>12.15</ele>
        <time>2025-05-16T16:24:28Z</time>
      </trkpt>
      <trkpt lat="43.678398001939058" lon="4.607106959447265">
        <ele>12.15</ele>
        <time>2025-05-16T16:24:29Z</time>
      </trkpt>
      <trkpt lat="43.678330024704337" lon="4.607246015220881">
        <ele>12.15</ele>
        <time>2025-05-16T16:24:30Z</time>
      </trkpt>
      <trkpt lat="43.678322983905673" lon="4.607409965246916">
        <ele>12.15</ele>
        <time>2025-05-16T16:24:31Z</time>
      </trkpt>
      <trkpt lat="43.678336981683969" lon="4.607520019635558">
        <ele>12.15</ele>
        <time>2025-05-16T16:24:32Z</time>
      </trkpt>
      <trkpt lat="43.678379980847239" lon="4.607691010460258">
        <ele>12.15</ele>
        <time>2025-05-16T16:24:33Z</time>
      </trkpt>
      <trkpt lat="43.678379980847239" lon="4.60784699767828">
        <ele>12.630000000000001</ele>
        <time>2025-05-16T16:24:34Z</time>
      </trkpt>
      <trkpt lat="43.678363971412182" lon="4.608012959361076">
        <ele>12.630000000000001</ele>
        <time>2025-05-16T16:24:35Z</time>
      </trkpt>
      <trkpt lat="43.678343016654253" lon="4.608203982934356">
        <ele>13.119999999999999</ele>
        <time>2025-05-16T16:24:37Z</time>
      </trkpt>
      <trkpt lat="43.678202033042908" lon="4.610992977395654">
        <ele>10.23</ele>
        <time>2025-05-16T16:24:48Z</time>
      </trkpt>
      <trkpt lat="43.677941020578146" lon="4.613713994622231">
        <ele>14.08</ele>
        <time>2025-05-16T16:24:58Z</time>
      </trkpt>
      <trkpt lat="43.67728496901691" lon="4.615672007203102">
        <ele>18.879999999999999</ele>
        <time>2025-05-16T16:25:06Z</time>
      </trkpt>
      <trkpt lat="43.676190041005611" lon="4.617455005645752">
        <ele>21.77</ele>
        <time>2025-05-16T16:25:15Z</time>
      </trkpt>
      <trkpt lat="43.674524975940585" lon="4.619602030143142">
        <ele>19.84</ele>
        <time>2025-05-16T16:25:27Z</time>
      </trkpt>
      <trkpt lat="43.674032036215067" lon="4.620052976533771">
        <ele>17.920000000000002</ele>
        <time>2025-05-16T16:25:31Z</time>
      </trkpt>
      <trkpt lat="43.673935979604721" lon="4.620107039809227">
        <ele>17.440000000000001</ele>
        <time>2025-05-16T16:25:32Z</time>
      </trkpt>
      <trkpt lat="43.673839000985026" lon="4.62013503536582">
        <ele>16.960000000000001</ele>
        <time>2025-05-16T16:25:33Z</time>
      </trkpt>
      <trkpt lat="43.673748979344964" lon="4.620160013437271">
        <ele>16.48</ele>
        <time>2025-05-16T16:25:34Z</time>
      </trkpt>
      <trkpt lat="43.673659041523933" lon="4.620159007608891">
        <ele>15.52</ele>
        <time>2025-05-16T16:25:35Z</time>
      </trkpt>
      <trkpt lat="43.673584023490548" lon="4.620083989575505">
        <ele>15.039999999999999</ele>
        <time>2025-05-16T16:25:36Z</time>
      </trkpt>
      <trkpt lat="43.673514034599066" lon="4.620014000684023">
        <ele>14.56</ele>
        <time>2025-05-16T16:25:37Z</time>
      </trkpt>
      <trkpt lat="43.673457037657499" lon="4.619867987930775">
        <ele>14.08</ele>
        <time>2025-05-16T16:25:38Z</time>
      </trkpt>
      <trkpt lat="43.673451002687216" lon="4.61970797739923">
        <ele>13.6</ele>
        <time>2025-05-16T16:25:39Z</time>
      </trkpt>
      <trkpt lat="43.673489978536963" lon="4.619577974081039">
        <ele>13.119999999999999</ele>
        <time>2025-05-16T16:25:40Z</time>
      </trkpt>
      <trkpt lat="43.673572037369013" lon="4.619463980197907">
        <ele>12.630000000000001</ele>
        <time>2025-05-16T16:25:41Z</time>
      </trkpt>
      <trkpt lat="43.673662981018424" lon="4.619390973821282">
        <ele>12.15</ele>
        <time>2025-05-16T16:25:42Z</time>
      </trkpt>
      <trkpt lat="43.673758031800389" lon="4.619315033778548">
        <ele>11.67</ele>
        <time>2025-05-16T16:25:43Z</time>
      </trkpt>
      <trkpt lat="43.673857022076845" lon="4.619246972724795">
        <ele>11.67</ele>
        <time>2025-05-16T16:25:44Z</time>
      </trkpt>
      <trkpt lat="43.673960035666823" lon="4.619205985218287">
        <ele>11.67</ele>
        <time>2025-05-16T16:25:45Z</time>
      </trkpt>
      <trkpt lat="43.67457702755928" lon="4.618979003280401">
        <ele>11.19</ele>
        <time>2025-05-16T16:25:52Z</time>
      </trkpt>
      <trkpt lat="43.67466595955193" lon="4.618979003280401">
        <ele>10.23</ele>
        <time>2025-05-16T16:25:53Z</time>
      </trkpt>
      <trkpt lat="43.674758998677135" lon="4.618979003280401">
        <ele>9.27</ele>
        <time>2025-05-16T16:25:54Z</time>
      </trkpt>
      <trkpt lat="43.674851031973958" lon="4.618979003280401">
        <ele>8.789999999999999</ele>
        <time>2025-05-16T16:25:55Z</time>
      </trkpt>
      <trkpt lat="43.674955973401666" lon="4.619013033807278">
        <ele>8.310000000000001</ele>
        <time>2025-05-16T16:25:56Z</time>
      </trkpt>
      <trkpt lat="43.675034008920193" lon="4.619103977456689">
        <ele>7.83</ele>
        <time>2025-05-16T16:25:57Z</time>
      </trkpt>
      <trkpt lat="43.675074996426702" lon="4.619172038510442">
        <ele>7.35</ele>
        <time>2025-05-16T16:25:58Z</time>
      </trkpt>
      <trkpt lat="43.675146996974945" lon="4.619258036836982">
        <ele>6.87</ele>
        <time>2025-05-16T16:25:59Z</time>
      </trkpt>
      <trkpt lat="43.675159988924861" lon="4.619344035163522">
        <ele>6.87</ele>
        <time>2025-05-16T16:26:00Z</time>
      </trkpt>
      <trkpt lat="43.675123024731874" lon="4.619417963549495">
        <ele>6.39</ele>
        <time>2025-05-16T16:26:01Z</time>
      </trkpt>
      <trkpt lat="43.675081031396985" lon="4.619503039866686">
        <ele>6.39</ele>
        <time>2025-05-16T16:26:02Z</time>
      </trkpt>
      <trkpt lat="43.675044989213347" lon="4.619571017101407">
        <ele>6.39</ele>
        <time>2025-05-16T16:26:03Z</time>
      </trkpt>
      <trkpt lat="43.675001990050077" lon="4.619638994336128">
        <ele>5.91</ele>
        <time>2025-05-16T16:26:04Z</time>
      </trkpt>
      <trkpt lat="43.674954967573285" lon="4.619714012369514">
        <ele>6.39</ele>
        <time>2025-05-16T16:26:05Z</time>
      </trkpt>
      <trkpt lat="43.674901993945241" lon="4.619796993210912">
        <ele>6.39</ele>
        <time>2025-05-16T16:26:06Z</time>
      </trkpt>
      <trkpt lat="43.674846002832055" lon="4.619885003194213">
        <ele>7.35</ele>
        <time>2025-05-16T16:26:07Z</time>
      </trkpt>
      <trkpt lat="43.67479101754725" lon="4.619972007349134">
        <ele>7.83</ele>
        <time>2025-05-16T16:26:08Z</time>
      </trkpt>
      <trkpt lat="43.674741983413696" lon="4.620049959048629">
        <ele>8.310000000000001</ele>
        <time>2025-05-16T16:26:09Z</time>
      </trkpt>
      <trkpt lat="43.674645004794002" lon="4.620203012600541">
        <ele>9.75</ele>
        <time>2025-05-16T16:26:11Z</time>
      </trkpt>
      <trkpt lat="43.674593036994338" lon="4.620288005098701">
        <ele>10.710000000000001</ele>
        <time>2025-05-16T16:26:12Z</time>
      </trkpt>
      <trkpt lat="43.674524975940585" lon="4.620398981496692">
        <ele>13.119999999999999</ele>
        <time>2025-05-16T16:26:17Z</time>
      </trkpt>
      <trkpt lat="43.67444702424109" lon="4.620525967329741">
        <ele>15.039999999999999</ele>
        <time>2025-05-16T16:26:44Z</time>
      </trkpt>
      <trkpt lat="43.674412993714213" lon="4.620581958442926">
        <ele>16</ele>
        <time>2025-05-16T16:26:45Z</time>
      </trkpt>
      <trkpt lat="43.674205960705876" lon="4.620942967012525">
        <ele>19.359999999999999</ele>
        <time>2025-05-16T16:26:51Z</time>
      </trkpt>
      <trkpt lat="43.674174025654793" lon="4.62101798504591">
        <ele>19.84</ele>
        <time>2025-05-16T16:26:52Z</time>
      </trkpt>
      <trkpt lat="43.674141000956297" lon="4.621094008907676">
        <ele>20.32</ele>
        <time>2025-05-16T16:26:53Z</time>
      </trkpt>
      <trkpt lat="43.674108982086182" lon="4.6211670152843">
        <ele>20.809999999999999</ele>
        <time>2025-05-16T16:26:54Z</time>
      </trkpt>
      <trkpt lat="43.67410303093493" lon="4.621227029711008">
        <ele>21.77</ele>
        <time>2025-05-16T16:26:55Z</time>
      </trkpt>
      <trkpt lat="43.674094984307885" lon="4.621315961703658">
        <ele>22.25</ele>
        <time>2025-05-16T16:26:56Z</time>
      </trkpt>
      <trkpt lat="43.674089033156633" lon="4.621386034414172">
        <ele>22.73</ele>
        <time>2025-05-16T16:26:57Z</time>
      </trkpt>
      <trkpt lat="43.674115017056465" lon="4.621471026912332">
        <ele>22.73</ele>
        <time>2025-05-16T16:26:58Z</time>
      </trkpt>
      <trkpt lat="43.674137983471155" lon="4.621549984440208">
        <ele>23.210000000000001</ele>
        <time>2025-05-16T16:26:59Z</time>
      </trkpt>
      <trkpt lat="43.674165979027748" lon="4.621634976938367">
        <ele>23.210000000000001</ele>
        <time>2025-05-16T16:27:00Z</time>
      </trkpt>
      <trkpt lat="43.674199003726244" lon="4.621724998578429">
        <ele>23.210000000000001</ele>
        <time>2025-05-16T16:27:01Z</time>
      </trkpt>
      <trkpt lat="43.674231022596359" lon="4.62181300856173">
        <ele>23.690000000000001</ele>
        <time>2025-05-16T16:27:02Z</time>
      </trkpt>
      <trkpt lat="43.674264969304204" lon="4.621905041858554">
        <ele>23.690000000000001</ele>
        <time>2025-05-16T16:27:03Z</time>
      </trkpt>
      <trkpt lat="43.6742979940027" lon="4.621996991336346">
        <ele>23.690000000000001</ele>
        <time>2025-05-16T16:27:04Z</time>
      </trkpt>
      <trkpt lat="43.674331018701196" lon="4.622086007148027">
        <ele>23.210000000000001</ele>
        <time>2025-05-16T16:27:05Z</time>
      </trkpt>
      <trkpt lat="43.67436203174293" lon="4.622170999646187">
        <ele>23.210000000000001</ele>
        <time>2025-05-16T16:27:06Z</time>
      </trkpt>
      <trkpt lat="43.674388015642762" lon="4.622245011851192">
        <ele>22.73</ele>
        <time>2025-05-16T16:27:07Z</time>
      </trkpt>
      <trkpt lat="43.674411987885833" lon="4.622310977429152">
        <ele>22.73</ele>
        <time>2025-05-16T16:27:08Z</time>
      </trkpt>
      <trkpt lat="43.674435960128903" lon="4.622375015169382">
        <ele>22.25</ele>
        <time>2025-05-16T16:27:09Z</time>
      </trkpt>
      <trkpt lat="43.674459010362625" lon="4.62243402376771">
        <ele>21.77</ele>
        <time>2025-05-16T16:27:10Z</time>
      </trkpt>
      <trkpt lat="43.674480970948935" lon="4.622493032366037">
        <ele>21.77</ele>
        <time>2025-05-16T16:27:11Z</time>
      </trkpt>
      <trkpt lat="43.674501003697515" lon="4.622545000165701">
        <ele>21.289999999999999</ele>
        <time>2025-05-16T16:27:12Z</time>
      </trkpt>
      <trkpt lat="43.674519024789333" lon="4.622593028470874">
        <ele>20.809999999999999</ele>
        <time>2025-05-16T16:27:13Z</time>
      </trkpt>
      <trkpt lat="43.674536040052772" lon="4.622638039290905">
        <ele>20.32</ele>
        <time>2025-05-16T16:27:14Z</time>
      </trkpt>
      <trkpt lat="43.674549032002687" lon="4.622673997655511">
        <ele>20.32</ele>
        <time>2025-05-16T16:27:15Z</time>
      </trkpt>
      <trkpt lat="43.674561018124223" lon="4.622704004868865">
        <ele>19.84</ele>
        <time>2025-05-16T16:27:16Z</time>
      </trkpt>
      <trkpt lat="43.674591025337577" lon="4.622783968225122">
        <ele>16.960000000000001</ele>
        <time>2025-05-16T16:27:26Z</time>
      </trkpt>
      <trkpt lat="43.674696972593665" lon="4.623065013438463">
        <ele>15.52</ele>
        <time>2025-05-16T16:27:59Z</time>
      </trkpt>
      <trkpt lat="43.674723040312529" lon="4.623135002329946">
        <ele>15.039999999999999</ele>
        <time>2025-05-16T16:28:00Z</time>
      </trkpt>
      <trkpt lat="43.67474801838398" lon="4.623199040070176">
        <ele>15.52</ele>
        <time>2025-05-16T16:28:01Z</time>
      </trkpt>
      <trkpt lat="43.674825970083475" lon="4.623406995087862">
        <ele>15.039999999999999</ele>
        <time>2025-05-16T16:28:04Z</time>
      </trkpt>
      <trkpt lat="43.674855977296829" lon="4.623607993125916">
        <ele>15.52</ele>
        <time>2025-05-16T16:28:06Z</time>
      </trkpt>
      <trkpt lat="43.674866035580635" lon="4.623700026422739">
        <ele>15.52</ele>
        <time>2025-05-16T16:28:07Z</time>
      </trkpt>
      <trkpt lat="43.674876010045409" lon="4.623788958415389">
        <ele>15.52</ele>
        <time>2025-05-16T16:28:08Z</time>
      </trkpt>
      <trkpt lat="43.674884978681803" lon="4.62387403473258">
        <ele>16</ele>
        <time>2025-05-16T16:28:09Z</time>
      </trkpt>
      <trkpt lat="43.674893025308847" lon="4.623956009745598">
        <ele>16</ele>
        <time>2025-05-16T16:28:10Z</time>
      </trkpt>
      <trkpt lat="43.67490098811686" lon="4.624034967273474">
        <ele>16</ele>
        <time>2025-05-16T16:28:11Z</time>
      </trkpt>
      <trkpt lat="43.67492001503706" lon="4.624210987240076">
        <ele>16.48</ele>
        <time>2025-05-16T16:28:14Z</time>
      </trkpt>
      <trkpt lat="43.674924960359931" lon="4.62426396086812">
        <ele>16.48</ele>
        <time>2025-05-16T16:28:15Z</time>
      </trkpt>
      <trkpt lat="43.674927977845073" lon="4.624307965859771">
        <ele>16.48</ele>
        <time>2025-05-16T16:28:16Z</time>
      </trkpt>
      <trkpt lat="43.674932001158595" lon="4.624355994164944">
        <ele>16.48</ele>
        <time>2025-05-16T16:28:17Z</time>
      </trkpt>
      <trkpt lat="43.674935018643737" lon="4.624407961964607">
        <ele>16.960000000000001</ele>
        <time>2025-05-16T16:28:18Z</time>
      </trkpt>
      <trkpt lat="43.674938036128879" lon="4.62445599026978">
        <ele>16.960000000000001</ele>
        <time>2025-05-16T16:28:19Z</time>
      </trkpt>
      <trkpt lat="43.674939963966608" lon="4.624484991654754">
        <ele>16.960000000000001</ele>
        <time>2025-05-16T16:28:20Z</time>
      </trkpt>
      <trkpt lat="43.674939963966608" lon="4.624484991654754">
        <ele>16.960000000000001</ele>
        <time>2025-05-16T16:28:34Z</time>
      </trkpt>
      <trkpt lat="43.674945998936892" lon="4.624571995809674">
        <ele>16.48</ele>
        <time>2025-05-16T16:28:46Z</time>
      </trkpt>
      <trkpt lat="43.674947004765272" lon="4.6247139852494">
        <ele>16.960000000000001</ele>
        <time>2025-05-16T16:28:48Z</time>
      </trkpt>
      <trkpt lat="43.674952033907175" lon="4.624795038253069">
        <ele>17.440000000000001</ele>
        <time>2025-05-16T16:28:49Z</time>
      </trkpt>
      <trkpt lat="43.674957985058427" lon="4.624879024922848">
        <ele>17.440000000000001</ele>
        <time>2025-05-16T16:28:50Z</time>
      </trkpt>
      <trkpt lat="43.67496402002871" lon="4.624967034906149">
        <ele>17.440000000000001</ele>
        <time>2025-05-16T16:28:51Z</time>
      </trkpt>
      <trkpt lat="43.674969971179962" lon="4.625053033232689">
        <ele>17.440000000000001</ele>
        <time>2025-05-16T16:28:52Z</time>
      </trkpt>
      <trkpt lat="43.674978017807007" lon="4.625136014074087">
        <ele>17.440000000000001</ele>
        <time>2025-05-16T16:28:53Z</time>
      </trkpt>
      <trkpt lat="43.674984974786639" lon="4.625204997137189">
        <ele>17.440000000000001</ele>
        <time>2025-05-16T16:28:54Z</time>
      </trkpt>
      <trkpt lat="43.674988998100162" lon="4.625266017392278">
        <ele>17.440000000000001</ele>
        <time>2025-05-16T16:28:55Z</time>
      </trkpt>
      <trkpt lat="43.675010958686471" lon="4.625695003196597">
        <ele>16.960000000000001</ele>
        <time>2025-05-16T16:29:03Z</time>
      </trkpt>
      <trkpt lat="43.675015987828374" lon="4.625900024548173">
        <ele>16.48</ele>
        <time>2025-05-16T16:29:07Z</time>
      </trkpt>
      <trkpt lat="43.675017999485135" lon="4.625941012054682">
        <ele>16.48</ele>
        <time>2025-05-16T16:29:08Z</time>
      </trkpt>
      <trkpt lat="43.675019005313516" lon="4.625974036753178">
        <ele>16</ele>
        <time>2025-05-16T16:29:09Z</time>
      </trkpt>
      <trkpt lat="43.675019005313516" lon="4.625974036753178">
        <ele>16</ele>
        <time>2025-05-16T16:29:21Z</time>
      </trkpt>
      <trkpt lat="43.675024034455419" lon="4.626075960695744">
        <ele>16</ele>
        <time>2025-05-16T16:29:25Z</time>
      </trkpt>
      <trkpt lat="43.675025962293148" lon="4.626104962080717">
        <ele>15.52</ele>
        <time>2025-05-16T16:29:26Z</time>
      </trkpt>
      <trkpt lat="43.675052030012012" lon="4.626290034502745">
        <ele>15.52</ele>
        <time>2025-05-16T16:29:29Z</time>
      </trkpt>
      <trkpt lat="43.67507298476994" lon="4.626353988423944">
        <ele>15.52</ele>
        <time>2025-05-16T16:29:30Z</time>
      </trkpt>
      <trkpt lat="43.675125958397985" lon="4.626479968428612">
        <ele>15.52</ele>
        <time>2025-05-16T16:29:32Z</time>
      </trkpt>
      <trkpt lat="43.675152026116848" lon="4.626605026423931">
        <ele>15.039999999999999</ele>
        <time>2025-05-16T16:29:34Z</time>
      </trkpt>
      <trkpt lat="43.675184966996312" lon="4.626849023625255">
        <ele>14.56</ele>
        <time>2025-05-16T16:29:37Z</time>
      </trkpt>
      <trkpt lat="43.675196031108499" lon="4.626933010295034">
        <ele>14.56</ele>
        <time>2025-05-16T16:29:38Z</time>
      </trkpt>
      <trkpt lat="43.675206005573273" lon="4.62701003998518">
        <ele>14.56</ele>
        <time>2025-05-16T16:29:39Z</time>
      </trkpt>
      <trkpt lat="43.675216985866427" lon="4.627095032483339">
        <ele>14.56</ele>
        <time>2025-05-16T16:29:40Z</time>
      </trkpt>
      <trkpt lat="43.675226960331202" lon="4.62718203663826">
        <ele>14.08</ele>
        <time>2025-05-16T16:29:41Z</time>
      </trkpt>
      <trkpt lat="43.675231989473104" lon="4.6272680349648">
        <ele>14.08</ele>
        <time>2025-05-16T16:29:42Z</time>
      </trkpt>
      <trkpt lat="43.675237018615007" lon="4.627352021634579">
        <ele>14.08</ele>
        <time>2025-05-16T16:29:43Z</time>
      </trkpt>
      <trkpt lat="43.675242969766259" lon="4.62744003161788">
        <ele>13.6</ele>
        <time>2025-05-16T16:29:44Z</time>
      </trkpt>
      <trkpt lat="43.675246993079782" lon="4.627517983317375">
        <ele>13.119999999999999</ele>
        <time>2025-05-16T16:29:45Z</time>
      </trkpt>
      <trkpt lat="43.675254033878446" lon="4.627620996907353">
        <ele>12.630000000000001</ele>
        <time>2025-05-16T16:29:52Z</time>
      </trkpt>
      <trkpt lat="43.675271971151233" lon="4.627902964130044">
        <ele>12.630000000000001</ele>
        <time>2025-05-16T16:30:07Z</time>
      </trkpt>
      <trkpt lat="43.675316981971264" lon="4.628588017076254">
        <ele>13.119999999999999</ele>
        <time>2025-05-16T16:30:16Z</time>
      </trkpt>
      <trkpt lat="43.675332991406322" lon="4.62890200316906">
        <ele>14.08</ele>
        <time>2025-05-16T16:30:19Z</time>
      </trkpt>
      <trkpt lat="43.675332991406322" lon="4.629014991223812">
        <ele>14.56</ele>
        <time>2025-05-16T16:30:20Z</time>
      </trkpt>
      <trkpt lat="43.675317987799644" lon="4.629233004525304">
        <ele>15.52</ele>
        <time>2025-05-16T16:30:22Z</time>
      </trkpt>
      <trkpt lat="43.675311030820012" lon="4.629336018115282">
        <ele>16</ele>
        <time>2025-05-16T16:30:23Z</time>
      </trkpt>
      <trkpt lat="43.675268031656742" lon="4.629960972815752">
        <ele>17.440000000000001</ele>
        <time>2025-05-16T16:30:30Z</time>
      </trkpt>
      <trkpt lat="43.675261996686459" lon="4.630052000284195">
        <ele>17.440000000000001</ele>
        <time>2025-05-16T16:30:31Z</time>
      </trkpt>
      <trkpt lat="43.675195025280118" lon="4.630797989666462">
        <ele>17.440000000000001</ele>
        <time>2025-05-16T16:30:40Z</time>
      </trkpt>
      <trkpt lat="43.675110032781959" lon="4.63182301260531">
        <ele>16.48</ele>
        <time>2025-05-16T16:30:52Z</time>
      </trkpt>
      <trkpt lat="43.675068039447069" lon="4.632262978702784">
        <ele>19.359999999999999</ele>
        <time>2025-05-16T16:31:02Z</time>
      </trkpt>
      <trkpt lat="43.675063010305166" lon="4.632331961765885">
        <ele>21.289999999999999</ele>
        <time>2025-05-16T16:31:04Z</time>
      </trkpt>
      <trkpt lat="43.675059992820024" lon="4.632380995899439">
        <ele>21.289999999999999</ele>
        <time>2025-05-16T16:31:05Z</time>
      </trkpt>
      <trkpt lat="43.675055969506502" lon="4.632437992841005">
        <ele>21.77</ele>
        <time>2025-05-16T16:31:06Z</time>
      </trkpt>
      <trkpt lat="43.675054041668773" lon="4.632475040853024">
        <ele>21.77</ele>
        <time>2025-05-16T16:31:07Z</time>
      </trkpt>
      <trkpt lat="43.675090000033379" lon="4.632499013096094">
        <ele>21.77</ele>
        <time>2025-05-16T16:31:08Z</time>
      </trkpt>
      <trkpt lat="43.675138028338552" lon="4.63253203779459">
        <ele>21.77</ele>
        <time>2025-05-16T16:31:09Z</time>
      </trkpt>
      <trkpt lat="43.675182033330202" lon="4.632561039179564">
        <ele>21.289999999999999</ele>
        <time>2025-05-16T16:31:10Z</time>
      </trkpt>
      <trkpt lat="43.675195025280118" lon="4.632500018924475">
        <ele>21.289999999999999</ele>
        <time>2025-05-16T16:31:11Z</time>
      </trkpt>
      <trkpt lat="43.675207011401653" lon="4.632441010326147">
        <ele>21.289999999999999</ele>
        <time>2025-05-16T16:31:12Z</time>
      </trkpt>
      <trkpt lat="43.67524397559464" lon="4.632273958995938">
        <ele>20.809999999999999</ele>
        <time>2025-05-16T16:31:16Z</time>
      </trkpt>
      <trkpt lat="43.675335003063083" lon="4.63191001676023">
        <ele>19.84</ele>
        <time>2025-05-16T16:31:21Z</time>
      </trkpt>
      <trkpt lat="43.675356963649392" lon="4.631842961534858">
        <ele>19.84</ele>
        <time>2025-05-16T16:31:22Z</time>
      </trkpt>
      <trkpt lat="43.675381019711494" lon="4.631770960986614">
        <ele>19.359999999999999</ele>
        <time>2025-05-16T16:31:23Z</time>
      </trkpt>
      <trkpt lat="43.675405997782946" lon="4.631698038429022">
        <ele>19.359999999999999</ele>
        <time>2025-05-16T16:31:24Z</time>
      </trkpt>
      <trkpt lat="43.675430975854397" lon="4.631624026224017">
        <ele>18.879999999999999</ele>
        <time>2025-05-16T16:31:25Z</time>
      </trkpt>
      <trkpt lat="43.675456959754229" lon="4.631543979048729">
        <ele>18.879999999999999</ele>
        <time>2025-05-16T16:31:26Z</time>
      </trkpt>
      <trkpt lat="43.675514962524176" lon="4.631369970738888">
        <ele>18.399999999999999</ele>
        <time>2025-05-16T16:31:28Z</time>
      </trkpt>
      <trkpt lat="43.675543963909149" lon="4.631281960755587">
        <ele>17.920000000000002</ele>
        <time>2025-05-16T16:31:29Z</time>
      </trkpt>
      <trkpt lat="43.675572965294123" lon="4.631195962429047">
        <ele>17.920000000000002</ele>
        <time>2025-05-16T16:31:30Z</time>
      </trkpt>
      <trkpt lat="43.675600960850716" lon="4.631111975759268">
        <ele>17.440000000000001</ele>
        <time>2025-05-16T16:31:31Z</time>
      </trkpt>
      <trkpt lat="43.675632979720831" lon="4.631032012403011">
        <ele>16.960000000000001</ele>
        <time>2025-05-16T16:31:32Z</time>
      </trkpt>
      <trkpt lat="43.675663992762566" lon="4.630961017683148">
        <ele>16.960000000000001</ele>
        <time>2025-05-16T16:31:33Z</time>
      </trkpt>
      <trkpt lat="43.675692994147539" lon="4.630895974114537">
        <ele>16.960000000000001</ele>
        <time>2025-05-16T16:31:34Z</time>
      </trkpt>
      <trkpt lat="43.675719983875751" lon="4.630835959687829">
        <ele>16.48</ele>
        <time>2025-05-16T16:31:35Z</time>
      </trkpt>
      <trkpt lat="43.67586700245738" lon="4.630502024665475">
        <ele>17.920000000000002</ele>
        <time>2025-05-16T16:31:43Z</time>
      </trkpt>
      <trkpt lat="43.675914024934173" lon="4.630394987761974">
        <ele>18.879999999999999</ele>
        <time>2025-05-16T16:31:46Z</time>
      </trkpt>
      <trkpt lat="43.675925005227327" lon="4.630369003862143">
        <ele>18.879999999999999</ele>
        <time>2025-05-16T16:31:47Z</time>
      </trkpt>
      <trkpt lat="43.675965992733836" lon="4.630350982770324">
        <ele>19.359999999999999</ele>
        <time>2025-05-16T16:31:48Z</time>
      </trkpt>
      <trkpt lat="43.675998011603951" lon="4.630350982770324">
        <ele>19.359999999999999</ele>
        <time>2025-05-16T16:31:49Z</time>
      </trkpt>
      <trkpt lat="43.676026007160544" lon="4.63036397472024">
        <ele>19.359999999999999</ele>
        <time>2025-05-16T16:31:50Z</time>
      </trkpt>
      <trkpt lat="43.676057020202279" lon="4.630378978326917">
        <ele>19.84</ele>
        <time>2025-05-16T16:31:51Z</time>
      </trkpt>
      <trkpt lat="43.676090966910124" lon="4.630394987761974">
        <ele>20.32</ele>
        <time>2025-05-16T16:31:52Z</time>
      </trkpt>
      <trkpt lat="43.676122985780239" lon="4.630409991368651">
        <ele>20.32</ele>
        <time>2025-05-16T16:31:53Z</time>
      </trkpt>
      <trkpt lat="43.676161961629987" lon="4.63042801246047">
        <ele>20.809999999999999</ele>
        <time>2025-05-16T16:31:54Z</time>
      </trkpt>
      <trkpt lat="43.676192974671721" lon="4.630442010238767">
        <ele>21.289999999999999</ele>
        <time>2025-05-16T16:31:55Z</time>
      </trkpt>
      <trkpt lat="43.676220970228314" lon="4.630455002188683">
        <ele>21.289999999999999</ele>
        <time>2025-05-16T16:31:56Z</time>
      </trkpt>
      <trkpt lat="43.676258018240333" lon="4.630472017452121">
        <ele>21.289999999999999</ele>
        <time>2025-05-16T16:31:57Z</time>
      </trkpt>
      <trkpt lat="43.676288025453687" lon="4.630487021058798">
        <ele>21.289999999999999</ele>
        <time>2025-05-16T16:31:58Z</time>
      </trkpt>
      <trkpt lat="43.676315015181899" lon="4.630499007180333">
        <ele>21.289999999999999</ele>
        <time>2025-05-16T16:31:59Z</time>
      </trkpt>
      <trkpt lat="43.676344016566873" lon="4.630501018837094">
        <ele>21.289999999999999</ele>
        <time>2025-05-16T16:32:01Z</time>
      </trkpt>
      <trkpt lat="43.676370000466704" lon="4.630501018837094">
        <ele>21.289999999999999</ele>
        <time>2025-05-16T16:32:02Z</time>
      </trkpt>
      <trkpt lat="43.676451975479722" lon="4.630501018837094">
        <ele>21.77</ele>
        <time>2025-05-16T16:32:05Z</time>
      </trkpt>
      <trkpt lat="43.676509978249669" lon="4.630501018837094">
        <ele>21.77</ele>
        <time>2025-05-16T16:32:08Z</time>
      </trkpt>
      <trkpt lat="43.67664098739624" lon="4.630501018837094">
        <ele>20.809999999999999</ele>
        <time>2025-05-16T16:32:11Z</time>
      </trkpt>
      <trkpt lat="43.676718017086387" lon="4.630437986925244">
        <ele>20.809999999999999</ele>
        <time>2025-05-16T16:32:13Z</time>
      </trkpt>
      <trkpt lat="43.676792029291391" lon="4.630415020510554">
        <ele>20.809999999999999</ele>
        <time>2025-05-16T16:32:14Z</time>
      </trkpt>
      <trkpt lat="43.676809966564178" lon="4.630417032167316">
        <ele>20.809999999999999</ele>
        <time>2025-05-16T16:32:15Z</time>
      </trkpt>
      <trkpt lat="43.67707097902894" lon="4.630436981096864">
        <ele>21.77</ele>
        <time>2025-05-16T16:32:23Z</time>
      </trkpt>
      <trkpt lat="43.67707097902894" lon="4.630436981096864">
        <ele>21.77</ele>
        <time>2025-05-16T16:32:24Z</time>
      </trkpt>
      <trkpt lat="43.67711397819221" lon="4.630462964996696">
        <ele>22.25</ele>
        <time>2025-05-16T16:32:25Z</time>
      </trkpt>
      <trkpt lat="43.67711397819221" lon="4.630462964996696">
        <ele>21.77</ele>
        <time>2025-05-16T16:32:30Z</time>
      </trkpt>
      <trkpt lat="43.67707097902894" lon="4.630436981096864">
        <ele>21.289999999999999</ele>
        <time>2025-05-16T16:32:41Z</time>
      </trkpt>
      <trkpt lat="43.67707097902894" lon="4.630436981096864">
        <ele>21.77</ele>
        <time>2025-05-16T16:32:42Z</time>
      </trkpt>
      <trkpt lat="43.677038038149476" lon="4.630434969440103">
        <ele>21.77</ele>
        <time>2025-05-16T16:32:43Z</time>
      </trkpt>
      <trkpt lat="43.676991015672684" lon="4.630431029945612">
        <ele>21.289999999999999</ele>
        <time>2025-05-16T16:32:44Z</time>
      </trkpt>
      <trkpt lat="43.676937958225608" lon="4.63042700663209">
        <ele>21.289999999999999</ele>
        <time>2025-05-16T16:32:45Z</time>
      </trkpt>
      <trkpt lat="43.676885990425944" lon="4.630422983318567">
        <ele>21.289999999999999</ele>
        <time>2025-05-16T16:32:46Z</time>
      </trkpt>
      <trkpt lat="43.676847014576197" lon="4.630419965833426">
        <ele>20.809999999999999</ele>
        <time>2025-05-16T16:32:47Z</time>
      </trkpt>
      <trkpt lat="43.676792029291391" lon="4.630415020510554">
        <ele>20.809999999999999</ele>
        <time>2025-05-16T16:32:48Z</time>
      </trkpt>
      <trkpt lat="43.67678901180625" lon="4.630412003025413">
        <ele>20.809999999999999</ele>
        <time>2025-05-16T16:32:49Z</time>
      </trkpt>
      <trkpt lat="43.676798986271024" lon="4.630333967506886">
        <ele>20.32</ele>
        <time>2025-05-16T16:32:50Z</time>
      </trkpt>
      <trkpt lat="43.676818013191223" lon="4.630291974171996">
        <ele>19.84</ele>
        <time>2025-05-16T16:32:51Z</time>
      </trkpt>
      <trkpt lat="43.676843997091055" lon="4.630239000543952">
        <ele>19.84</ele>
        <time>2025-05-16T16:32:52Z</time>
      </trkpt>
      <trkpt lat="43.676870986819267" lon="4.630180997774005">
        <ele>19.359999999999999</ele>
        <time>2025-05-16T16:32:53Z</time>
      </trkpt>
      <trkpt lat="43.676899988204241" lon="4.630118971690536">
        <ele>19.359999999999999</ele>
        <time>2025-05-16T16:32:54Z</time>
      </trkpt>
      <trkpt lat="43.676929995417595" lon="4.630056023597717">
        <ele>18.879999999999999</ele>
        <time>2025-05-16T16:32:55Z</time>
      </trkpt>
      <trkpt lat="43.676966959610581" lon="4.629919985309243">
        <ele>17.920000000000002</ele>
        <time>2025-05-16T16:32:57Z</time>
      </trkpt>
      <trkpt lat="43.676971988752484" lon="4.629855025559664">
        <ele>17.440000000000001</ele>
        <time>2025-05-16T16:32:58Z</time>
      </trkpt>
      <trkpt lat="43.6769849807024" lon="4.629427967593074">
        <ele>17.440000000000001</ele>
        <time>2025-05-16T16:33:05Z</time>
      </trkpt>
      <trkpt lat="43.677030997350812" lon="4.629432996734977">
        <ele>17.440000000000001</ele>
        <time>2025-05-16T16:33:11Z</time>
      </trkpt>
      <trkpt lat="43.67704801261425" lon="4.629435008391738">
        <ele>17.440000000000001</ele>
        <time>2025-05-16T16:33:12Z</time>
      </trkpt>
      <trkpt lat="43.67719897069037" lon="4.629450011998415">
        <ele>17.440000000000001</ele>
        <time>2025-05-16T16:33:13Z</time>
      </trkpt>
      <trkpt lat="43.677393011748791" lon="4.629450011998415">
        <ele>16.48</ele>
        <time>2025-05-16T16:33:23Z</time>
      </trkpt>
      <trkpt lat="43.677393011748791" lon="4.629450011998415">
        <ele>18.399999999999999</ele>
        <time>2025-05-16T16:33:42Z</time>
      </trkpt>
      <trkpt lat="43.677393011748791" lon="4.6289880014956">
        <ele>18.879999999999999</ele>
        <time>2025-05-16T16:33:51Z</time>
      </trkpt>
      <trkpt lat="43.677393011748791" lon="4.6289880014956">
        <ele>18.879999999999999</ele>
        <time>2025-05-16T16:34:04Z</time>
      </trkpt>
      <trkpt lat="43.677400974556804" lon="4.628845006227493">
        <ele>17.920000000000002</ele>
        <time>2025-05-16T16:34:23Z</time>
      </trkpt>
      <trkpt lat="43.677427964285016" lon="4.628831008449197">
        <ele>17.920000000000002</ele>
        <time>2025-05-16T16:34:24Z</time>
      </trkpt>
      <trkpt lat="43.677541958168149" lon="4.628853974863887">
        <ele>17.920000000000002</ele>
        <time>2025-05-16T16:34:26Z</time>
      </trkpt>
      <trkpt lat="43.67758696898818" lon="4.628865960985422">
        <ele>17.920000000000002</ele>
        <time>2025-05-16T16:34:27Z</time>
      </trkpt>
      <trkpt lat="43.677743962034583" lon="4.628905020654202">
        <ele>18.399999999999999</ele>
        <time>2025-05-16T16:34:32Z</time>
      </trkpt>
      <trkpt lat="43.67775603197515" lon="4.628908038139343">
        <ele>18.879999999999999</ele>
        <time>2025-05-16T16:34:33Z</time>
      </trkpt>
      <trkpt lat="43.677769023925066" lon="4.628910971805453">
        <ele>18.879999999999999</ele>
        <time>2025-05-16T16:34:34Z</time>
      </trkpt>
      <trkpt lat="43.67777899838984" lon="4.628976015374064">
        <ele>19.359999999999999</ele>
        <time>2025-05-16T16:34:35Z</time>
      </trkpt>
      <trkpt lat="43.67777899838984" lon="4.62905497290194">
        <ele>19.84</ele>
        <time>2025-05-16T16:34:36Z</time>
      </trkpt>
      <trkpt lat="43.67777899838984" lon="4.629388991743326">
        <ele>21.289999999999999</ele>
        <time>2025-05-16T16:34:43Z</time>
      </trkpt>
      <trkpt lat="43.67771596647799" lon="4.629431990906596">
        <ele>21.289999999999999</ele>
        <time>2025-05-16T16:34:44Z</time>
      </trkpt>
      <trkpt lat="43.67766902782023" lon="4.629434002563357">
        <ele>21.289999999999999</ele>
        <time>2025-05-16T16:34:45Z</time>
      </trkpt>
      <trkpt lat="43.677614964544773" lon="4.629437020048499">
        <ele>21.77</ele>
        <time>2025-05-16T16:34:46Z</time>
      </trkpt>
      <trkpt lat="43.677561990916729" lon="4.629440037533641">
        <ele>22.25</ele>
        <time>2025-05-16T16:34:47Z</time>
      </trkpt>
      <trkpt lat="43.677516980096698" lon="4.629442971199751">
        <ele>22.25</ele>
        <time>2025-05-16T16:34:48Z</time>
      </trkpt>
      <trkpt lat="43.67747699841857" lon="4.629444982856512">
        <ele>22.73</ele>
        <time>2025-05-16T16:34:49Z</time>
      </trkpt>
      <trkpt lat="43.677446991205215" lon="4.629446994513273">
        <ele>22.73</ele>
        <time>2025-05-16T16:34:50Z</time>
      </trkpt>
      <trkpt lat="43.677393011748791" lon="4.629450011998415">
        <ele>23.210000000000001</ele>
        <time>2025-05-16T16:34:51Z</time>
      </trkpt>
      <trkpt lat="43.677393011748791" lon="4.629450011998415">
        <ele>23.210000000000001</ele>
        <time>2025-05-16T16:34:52Z</time>
      </trkpt>
      <trkpt lat="43.677415978163481" lon="4.629555959254503">
        <ele>23.210000000000001</ele>
        <time>2025-05-16T16:34:53Z</time>
      </trkpt>
      <trkpt lat="43.677428970113397" lon="4.629614967852831">
        <ele>23.690000000000001</ele>
        <time>2025-05-16T16:34:54Z</time>
      </trkpt>
      <trkpt lat="43.6774339992553" lon="4.629694009199739">
        <ele>23.690000000000001</ele>
        <time>2025-05-16T16:34:55Z</time>
      </trkpt>
      <trkpt lat="43.677430981770158" lon="4.629771960899234">
        <ele>23.690000000000001</ele>
        <time>2025-05-16T16:34:56Z</time>
      </trkpt>
      <trkpt lat="43.677427964285016" lon="4.629857037216425">
        <ele>24.170000000000002</ele>
        <time>2025-05-16T16:34:57Z</time>
      </trkpt>
      <trkpt lat="43.677424024790525" lon="4.630001038312912">
        <ele>24.170000000000002</ele>
        <time>2025-05-16T16:34:59Z</time>
      </trkpt>
      <trkpt lat="43.677421007305384" lon="4.630068009719253">
        <ele>24.649999999999999</ele>
        <time>2025-05-16T16:35:00Z</time>
      </trkpt>
      <trkpt lat="43.677418995648623" lon="4.630131963640451">
        <ele>24.649999999999999</ele>
        <time>2025-05-16T16:35:01Z</time>
      </trkpt>
      <trkpt lat="43.677416983991861" lon="4.630180997774005">
        <ele>24.649999999999999</ele>
        <time>2025-05-16T16:35:02Z</time>
      </trkpt>
      <trkpt lat="43.677382031455636" lon="4.630316030234098">
        <ele>25.129999999999999</ele>
        <time>2025-05-16T16:35:03Z</time>
      </trkpt>
      <trkpt lat="43.677320005372167" lon="4.630372021347284">
        <ele>25.609999999999999</ele>
        <time>2025-05-16T16:35:05Z</time>
      </trkpt>
      <trkpt lat="43.677287986502051" lon="4.630401022732258">
        <ele>26.09</ele>
        <time>2025-05-16T16:35:06Z</time>
      </trkpt>
      <trkpt lat="43.677258985117078" lon="4.63042801246047">
        <ele>26.09</ele>
        <time>2025-05-16T16:35:07Z</time>
      </trkpt>
      <trkpt lat="43.677229983732104" lon="4.630453996360302">
        <ele>26.09</ele>
        <time>2025-05-16T16:35:08Z</time>
      </trkpt>
      <trkpt lat="43.677200982347131" lon="4.630479980260134">
        <ele>26.57</ele>
        <time>2025-05-16T16:35:09Z</time>
      </trkpt>
      <trkpt lat="43.677178015932441" lon="4.630501018837094">
        <ele>26.57</ele>
        <time>2025-05-16T16:35:10Z</time>
      </trkpt>
      <trkpt lat="43.677178015932441" lon="4.630501018837094">
        <ele>27.050000000000001</ele>
        <time>2025-05-16T16:35:11Z</time>
      </trkpt>
      <trkpt lat="43.677159994840622" lon="4.630559021607041">
        <ele>27.050000000000001</ele>
        <time>2025-05-16T16:35:12Z</time>
      </trkpt>
      <trkpt lat="43.677147002890706" lon="4.630602020770311">
        <ele>27.530000000000001</ele>
        <time>2025-05-16T16:35:13Z</time>
      </trkpt>
      <trkpt lat="43.67713300511241" lon="4.630648959428072">
        <ele>27.530000000000001</ele>
        <time>2025-05-16T16:35:14Z</time>
      </trkpt>
      <trkpt lat="43.677116995677352" lon="4.630700005218387">
        <ele>27.530000000000001</ele>
        <time>2025-05-16T16:35:15Z</time>
      </trkpt>
      <trkpt lat="43.677101992070675" lon="4.63074903935194">
        <ele>28.02</ele>
        <time>2025-05-16T16:35:16Z</time>
      </trkpt>
      <trkpt lat="43.67709101177752" lon="4.63079203851521">
        <ele>28.02</ele>
        <time>2025-05-16T16:35:17Z</time>
      </trkpt>
      <trkpt lat="43.677087994292378" lon="4.630846017971635">
        <ele>27.530000000000001</ele>
        <time>2025-05-16T16:35:18Z</time>
      </trkpt>
      <trkpt lat="43.677083970978856" lon="4.630895974114537">
        <ele>27.530000000000001</ele>
        <time>2025-05-16T16:35:19Z</time>
      </trkpt>
      <trkpt lat="43.677081959322095" lon="4.630937967449427">
        <ele>27.530000000000001</ele>
        <time>2025-05-16T16:35:20Z</time>
      </trkpt>
      <trkpt lat="43.677080031484365" lon="4.630969986319542">
        <ele>27.050000000000001</ele>
        <time>2025-05-16T16:35:21Z</time>
      </trkpt>
      <trkpt lat="43.67707097902894" lon="4.631102001294494">
        <ele>26.57</ele>
        <time>2025-05-16T16:35:22Z</time>
      </trkpt>
      <trkpt lat="43.677075002342463" lon="4.631040981039405">
        <ele>26.09</ele>
        <time>2025-05-16T16:35:23Z</time>
      </trkpt>
      <trkpt lat="43.677072990685701" lon="4.631074005737901">
        <ele>26.09</ele>
        <time>2025-05-16T16:35:24Z</time>
      </trkpt>
      <trkpt lat="43.67707097902894" lon="4.631102001294494">
        <ele>25.609999999999999</ele>
        <time>2025-05-16T16:35:25Z</time>
      </trkpt>
      <trkpt lat="43.677010964602232" lon="4.631150029599667">
        <ele>25.129999999999999</ele>
        <time>2025-05-16T16:35:26Z</time>
      </trkpt>
      <trkpt lat="43.676963020116091" lon="4.631187999621034">
        <ele>24.649999999999999</ele>
        <time>2025-05-16T16:35:27Z</time>
      </trkpt>
      <trkpt lat="43.676952039822936" lon="4.631209038197994">
        <ele>23.690000000000001</ele>
        <time>2025-05-16T16:35:28Z</time>
      </trkpt>
      <trkpt lat="43.676871992647648" lon="4.631355972960591">
        <ele>21.289999999999999</ele>
        <time>2025-05-16T16:35:32Z</time>
      </trkpt>
      <trkpt lat="43.676878027617931" lon="4.631338035687804">
        <ele>20.32</ele>
        <time>2025-05-16T16:35:33Z</time>
      </trkpt>
      <trkpt lat="43.676852965727448" lon="4.63141699321568">
        <ele>19.84</ele>
        <time>2025-05-16T16:35:34Z</time>
      </trkpt>
      <trkpt lat="43.676840979605913" lon="4.631454963237047">
        <ele>18.879999999999999</ele>
        <time>2025-05-16T16:35:35Z</time>
      </trkpt>
      <trkpt lat="43.676827987655997" lon="4.631496034562588">
        <ele>17.920000000000002</ele>
        <time>2025-05-16T16:35:36Z</time>
      </trkpt>
      <trkpt lat="43.676817007362843" lon="4.631532998755574">
        <ele>17.440000000000001</ele>
        <time>2025-05-16T16:35:37Z</time>
      </trkpt>
      <trkpt lat="43.676806027069688" lon="4.63156602345407">
        <ele>16.960000000000001</ele>
        <time>2025-05-16T16:35:38Z</time>
      </trkpt>
      <trkpt lat="43.676798986271024" lon="4.63158798404038">
        <ele>16</ele>
        <time>2025-05-16T16:35:39Z</time>
      </trkpt>
      <trkpt lat="43.676792029291391" lon="4.631612962111831">
        <ele>13.119999999999999</ele>
        <time>2025-05-16T16:35:51Z</time>
      </trkpt>
      <trkpt lat="43.676795968785882" lon="4.631599970161915">
        <ele>12.630000000000001</ele>
        <time>2025-05-16T16:35:52Z</time>
      </trkpt>
      <trkpt lat="43.676894037052989" lon="4.631681023165584">
        <ele>12.15</ele>
        <time>2025-05-16T16:35:53Z</time>
      </trkpt>
      <trkpt lat="43.676934018731117" lon="4.631681023165584">
        <ele>11.67</ele>
        <time>2025-05-16T16:35:54Z</time>
      </trkpt>
      <trkpt lat="43.677001995965838" lon="4.631650010123849">
        <ele>11.19</ele>
        <time>2025-05-16T16:35:55Z</time>
      </trkpt>
      <trkpt lat="43.677054969593883" lon="4.63160801678896">
        <ele>8.789999999999999</ele>
        <time>2025-05-16T16:36:03Z</time>
      </trkpt>
      <trkpt lat="43.677054969593883" lon="4.63160801678896">
        <ele>9.27</ele>
        <time>2025-05-16T16:36:19Z</time>
      </trkpt>
      <trkpt lat="43.677054969593883" lon="4.63160801678896">
        <ele>9.75</ele>
        <time>2025-05-16T16:37:05Z</time>
      </trkpt>
      <trkpt lat="43.677054969593883" lon="4.63160801678896">
        <ele>10.23</ele>
        <time>2025-05-16T16:37:50Z</time>
      </trkpt>
      <trkpt lat="43.677054969593883" lon="4.63160801678896">
        <ele>11.67</ele>
        <time>2025-05-16T16:38:47Z</time>
      </trkpt>
      <trkpt lat="43.677054969593883" lon="4.63160801678896">
        <ele>12.15</ele>
        <time>2025-05-16T16:39:26Z</time>
      </trkpt>
      <trkpt lat="43.677182961255312" lon="4.631563005968928">
        <ele>30.899999999999999</ele>
        <time>2025-05-17T06:34:04Z</time>
      </trkpt>
      <trkpt lat="43.677182961255312" lon="4.631564011797309">
        <ele>30.420000000000002</ele>
        <time>2025-05-17T06:34:36Z</time>
      </trkpt>
      <trkpt lat="43.677440034225583" lon="4.631752017885447">
        <ele>25.129999999999999</ele>
        <time>2025-05-17T06:34:46Z</time>
      </trkpt>
      <trkpt lat="43.677675984799862" lon="4.631788982078433">
        <ele>22.73</ele>
        <time>2025-05-17T06:34:52Z</time>
      </trkpt>
      <trkpt lat="43.677719989791512" lon="4.631788982078433">
        <ele>22.73</ele>
        <time>2025-05-17T06:34:53Z</time>
      </trkpt>
      <trkpt lat="43.677763994783163" lon="4.631788982078433">
        <ele>22.25</ele>
        <time>2025-05-17T06:34:54Z</time>
      </trkpt>
      <trkpt lat="43.67777899838984" lon="4.631788982078433">
        <ele>21.77</ele>
        <time>2025-05-17T06:34:55Z</time>
      </trkpt>
      <trkpt lat="43.677833983674645" lon="4.631733996793628">
        <ele>21.289999999999999</ele>
        <time>2025-05-17T06:34:56Z</time>
      </trkpt>
      <trkpt lat="43.677871031686664" lon="4.631697032600641">
        <ele>20.809999999999999</ele>
        <time>2025-05-17T06:34:57Z</time>
      </trkpt>
      <trkpt lat="43.677905984222889" lon="4.631660990417004">
        <ele>20.32</ele>
        <time>2025-05-17T06:34:58Z</time>
      </trkpt>
      <trkpt lat="43.677944960072637" lon="4.631638024002314">
        <ele>19.84</ele>
        <time>2025-05-17T06:34:59Z</time>
      </trkpt>
      <trkpt lat="43.677982008084655" lon="4.631617991253734">
        <ele>19.359999999999999</ele>
        <time>2025-05-17T06:35:00Z</time>
      </trkpt>
      <trkpt lat="43.678016038611531" lon="4.631597958505154">
        <ele>19.359999999999999</ele>
        <time>2025-05-17T06:35:01Z</time>
      </trkpt>
      <trkpt lat="43.678058031946421" lon="4.631573986262083">
        <ele>18.879999999999999</ele>
        <time>2025-05-17T06:35:02Z</time>
      </trkpt>
      <trkpt lat="43.678088039159775" lon="4.631560994312167">
        <ele>17.920000000000002</ele>
        <time>2025-05-17T06:35:03Z</time>
      </trkpt>
      <trkpt lat="43.678122991696" lon="4.63154599070549">
        <ele>17.920000000000002</ele>
        <time>2025-05-17T06:35:04Z</time>
      </trkpt>
      <trkpt lat="43.678158028051257" lon="4.631530987098813">
        <ele>17.440000000000001</ele>
        <time>2025-05-17T06:35:05Z</time>
      </trkpt>
      <trkpt lat="43.678193986415863" lon="4.631515983492136">
        <ele>16.48</ele>
        <time>2025-05-17T06:35:06Z</time>
      </trkpt>
      <trkpt lat="43.678230028599501" lon="4.631503997370601">
        <ele>16</ele>
        <time>2025-05-17T06:35:07Z</time>
      </trkpt>
      <trkpt lat="43.678528005257249" lon="4.63139302097261">
        <ele>15.52</ele>
        <time>2025-05-17T06:35:16Z</time>
      </trkpt>
      <trkpt lat="43.678571004420519" lon="4.63137399405241">
        <ele>15.039999999999999</ele>
        <time>2025-05-17T06:35:17Z</time>
      </trkpt>
      <trkpt lat="43.678735960274935" lon="4.631309034302831">
        <ele>14.56</ele>
        <time>2025-05-17T06:35:21Z</time>
      </trkpt>
      <trkpt lat="43.678780971094966" lon="4.631298976019025">
        <ele>14.56</ele>
        <time>2025-05-17T06:35:22Z</time>
      </trkpt>
      <trkpt lat="43.678828999400139" lon="4.631289001554251">
        <ele>14.56</ele>
        <time>2025-05-17T06:35:23Z</time>
      </trkpt>
      <trkpt lat="43.678887002170086" lon="4.631276009604335">
        <ele>14.56</ele>
        <time>2025-05-17T06:35:24Z</time>
      </trkpt>
      <trkpt lat="43.678941987454891" lon="4.6312640234828">
        <ele>14.56</ele>
        <time>2025-05-17T06:35:25Z</time>
      </trkpt>
      <trkpt lat="43.679245999082923" lon="4.631197974085808">
        <ele>14.56</ele>
        <time>2025-05-17T06:35:32Z</time>
      </trkpt>
      <trkpt lat="43.679280029609799" lon="4.631191017106175">
        <ele>14.56</ele>
        <time>2025-05-17T06:35:33Z</time>
      </trkpt>
      <trkpt lat="43.679313976317644" lon="4.631183976307511">
        <ele>14.56</ele>
        <time>2025-05-17T06:35:34Z</time>
      </trkpt>
      <trkpt lat="43.679349012672901" lon="4.631176013499498">
        <ele>14.08</ele>
        <time>2025-05-17T06:35:35Z</time>
      </trkpt>
      <trkpt lat="43.679382959380746" lon="4.631168972700834">
        <ele>14.08</ele>
        <time>2025-05-17T06:35:36Z</time>
      </trkpt>
      <trkpt lat="43.679414978250861" lon="4.631162015721202">
        <ele>14.08</ele>
        <time>2025-05-17T06:35:37Z</time>
      </trkpt>
      <trkpt lat="43.679443979635835" lon="4.631154974922538">
        <ele>14.08</ele>
        <time>2025-05-17T06:35:38Z</time>
      </trkpt>
      <trkpt lat="43.679473986849189" lon="4.631149023771286">
        <ele>14.08</ele>
        <time>2025-05-17T06:35:39Z</time>
      </trkpt>
      <trkpt lat="43.679508017376065" lon="4.631140977144241">
        <ele>13.6</ele>
        <time>2025-05-17T06:35:40Z</time>
      </trkpt>
      <trkpt lat="43.679542969912291" lon="4.631134020164609">
        <ele>13.6</ele>
        <time>2025-05-17T06:35:41Z</time>
      </trkpt>
      <trkpt lat="43.679578006267548" lon="4.631125973537564">
        <ele>13.119999999999999</ele>
        <time>2025-05-17T06:35:42Z</time>
      </trkpt>
      <trkpt lat="43.679687976837158" lon="4.631102001294494">
        <ele>13.119999999999999</ele>
        <time>2025-05-17T06:35:43Z</time>
      </trkpt>
      <trkpt lat="43.679687976837158" lon="4.631102001294494">
        <ele>12.630000000000001</ele>
        <time>2025-05-17T06:35:44Z</time>
      </trkpt>
      <trkpt lat="43.679687976837158" lon="4.631102001294494">
        <ele>11.19</ele>
        <time>2025-05-17T06:35:48Z</time>
      </trkpt>
      <trkpt lat="43.679783027619123" lon="4.631313979625702">
        <ele>11.19</ele>
        <time>2025-05-17T06:35:49Z</time>
      </trkpt>
      <trkpt lat="43.679581023752689" lon="4.631067970767617">
        <ele>10.710000000000001</ele>
        <time>2025-05-17T06:35:51Z</time>
      </trkpt>
      <trkpt lat="43.679652018472552" lon="4.630413008853793">
        <ele>9.75</ele>
        <time>2025-05-17T06:35:55Z</time>
      </trkpt>
      <trkpt lat="43.679623017087579" lon="4.630386019125581">
        <ele>9.27</ele>
        <time>2025-05-17T06:35:56Z</time>
      </trkpt>
      <trkpt lat="43.679452026262879" lon="4.630307983607054">
        <ele>8.789999999999999</ele>
        <time>2025-05-17T06:35:57Z</time>
      </trkpt>
      <trkpt lat="43.679452026262879" lon="4.630307983607054">
        <ele>7.83</ele>
        <time>2025-05-17T06:35:59Z</time>
      </trkpt>
      <trkpt lat="43.679450014606118" lon="4.630302032455802">
        <ele>6.39</ele>
        <time>2025-05-17T06:36:02Z</time>
      </trkpt>
      <trkpt lat="43.67943299934268" lon="4.630251992493868">
        <ele>5.91</ele>
        <time>2025-05-17T06:36:03Z</time>
      </trkpt>
      <trkpt lat="43.679414978250861" lon="4.630202036350966">
        <ele>5.42</ele>
        <time>2025-05-17T06:36:04Z</time>
      </trkpt>
      <trkpt lat="43.679397040978074" lon="4.63014897890389">
        <ele>4.94</ele>
        <time>2025-05-17T06:36:05Z</time>
      </trkpt>
      <trkpt lat="43.679379019886255" lon="4.630099022760987">
        <ele>4.46</ele>
        <time>2025-05-17T06:36:06Z</time>
      </trkpt>
      <trkpt lat="43.679363010451198" lon="4.630053006112576">
        <ele>3.98</ele>
        <time>2025-05-17T06:36:07Z</time>
      </trkpt>
      <trkpt lat="43.679345995187759" lon="4.630004977807403">
        <ele>3.5</ele>
        <time>2025-05-17T06:36:08Z</time>
      </trkpt>
      <trkpt lat="43.679287992417812" lon="4.629847984761">
        <ele>2.06</ele>
        <time>2025-05-17T06:36:11Z</time>
      </trkpt>
      <trkpt lat="43.679265026003122" lon="4.629799034446478">
        <ele>1.58</ele>
        <time>2025-05-17T06:36:12Z</time>
      </trkpt>
      <trkpt lat="43.679241975769401" lon="4.629751006141305">
        <ele>1.58</ele>
        <time>2025-05-17T06:36:13Z</time>
      </trkpt>
      <trkpt lat="43.679195959120989" lon="4.629652015864849">
        <ele>1.1</ele>
        <time>2025-05-17T06:36:15Z</time>
      </trkpt>
      <trkpt lat="43.679173998534679" lon="4.629604993388057">
        <ele>0.62</ele>
        <time>2025-05-17T06:36:16Z</time>
      </trkpt>
      <trkpt lat="43.679128987714648" lon="4.629509020596743">
        <ele>-0.34</ele>
        <time>2025-05-17T06:36:18Z</time>
      </trkpt>
      <trkpt lat="43.679103003814816" lon="4.629455041140318">
        <ele>-0.82</ele>
        <time>2025-05-17T06:36:19Z</time>
      </trkpt>
      <trkpt lat="43.679080037400126" lon="4.629403995350003">
        <ele>-1.3</ele>
        <time>2025-05-17T06:36:20Z</time>
      </trkpt>
      <trkpt lat="43.679057992994785" lon="4.629358984529972">
        <ele>-1.79</ele>
        <time>2025-05-17T06:36:21Z</time>
      </trkpt>
      <trkpt lat="43.67898004129529" lon="4.629192017018795">
        <ele>-1.79</ele>
        <time>2025-05-17T06:36:22Z</time>
      </trkpt>
      <trkpt lat="43.678959002718329" lon="4.629127979278565">
        <ele>-2.27</ele>
        <time>2025-05-17T06:36:23Z</time>
      </trkpt>
      <trkpt lat="43.678959002718329" lon="4.629127979278565">
        <ele>-3.23</ele>
        <time>2025-05-17T06:36:24Z</time>
      </trkpt>
      <trkpt lat="43.678959002718329" lon="4.629127979278565">
        <ele>-3.71</ele>
        <time>2025-05-17T06:36:25Z</time>
      </trkpt>
      <trkpt lat="43.678946010768414" lon="4.629101995378733">
        <ele>-4.19</ele>
        <time>2025-05-17T06:36:26Z</time>
      </trkpt>
      <trkpt lat="43.678925978019834" lon="4.629061007872224">
        <ele>-4.19</ele>
        <time>2025-05-17T06:36:27Z</time>
      </trkpt>
      <trkpt lat="43.678907034918666" lon="4.629023959860206">
        <ele>-4.67</ele>
        <time>2025-05-17T06:36:28Z</time>
      </trkpt>
      <trkpt lat="43.678884990513325" lon="4.628980960696936">
        <ele>-5.15</ele>
        <time>2025-05-17T06:36:29Z</time>
      </trkpt>
      <trkpt lat="43.678873004391789" lon="4.628955982625485">
        <ele>-5.63</ele>
        <time>2025-05-17T06:36:30Z</time>
      </trkpt>
      <trkpt lat="43.678858000785112" lon="4.628883982077241">
        <ele>-6.11</ele>
        <time>2025-05-17T06:36:31Z</time>
      </trkpt>
      <trkpt lat="43.678846014663577" lon="4.628826985135675">
        <ele>-6.59</ele>
        <time>2025-05-17T06:36:32Z</time>
      </trkpt>
      <trkpt lat="43.678832016885281" lon="4.628759007900953">
        <ele>-6.59</ele>
        <time>2025-05-17T06:36:33Z</time>
      </trkpt>
      <trkpt lat="43.678817013278604" lon="4.628686001524329">
        <ele>-7.55</ele>
        <time>2025-05-17T06:36:34Z</time>
      </trkpt>
      <trkpt lat="43.678802009671926" lon="4.628614000976086">
        <ele>-8.029999999999999</ele>
        <time>2025-05-17T06:36:35Z</time>
      </trkpt>
      <trkpt lat="43.67878801189363" lon="4.628546023741365">
        <ele>-8.51</ele>
        <time>2025-05-17T06:36:36Z</time>
      </trkpt>
      <trkpt lat="43.678773008286953" lon="4.628476034849882">
        <ele>-9</ele>
        <time>2025-05-17T06:36:37Z</time>
      </trkpt>
      <trkpt lat="43.678765967488289" lon="4.628440998494625">
        <ele>-9.48</ele>
        <time>2025-05-17T06:36:38Z</time>
      </trkpt>
      <trkpt lat="43.678756998851895" lon="4.628330022096634">
        <ele>-9.960000000000001</ele>
        <time>2025-05-17T06:36:39Z</time>
      </trkpt>
      <trkpt lat="43.678751969709992" lon="4.628261961042881">
        <ele>-10.44</ele>
        <time>2025-05-17T06:36:40Z</time>
      </trkpt>
      <trkpt lat="43.678744006901979" lon="4.628135981038213">
        <ele>-11.880000000000001</ele>
        <time>2025-05-17T06:36:43Z</time>
      </trkpt>
      <trkpt lat="43.678744006901979" lon="4.628115026280284">
        <ele>-12.359999999999999</ele>
        <time>2025-05-17T06:36:44Z</time>
      </trkpt>
      <trkpt lat="43.678744006901979" lon="4.62808895856142">
        <ele>-12.359999999999999</ele>
        <time>2025-05-17T06:36:45Z</time>
      </trkpt>
      <trkpt lat="43.678744006901979" lon="4.628069009631872">
        <ele>-12.359999999999999</ele>
        <time>2025-05-17T06:36:46Z</time>
      </trkpt>
      <trkpt lat="43.678744006901979" lon="4.628046965226531">
        <ele>-12.359999999999999</ele>
        <time>2025-05-17T06:36:47Z</time>
      </trkpt>
      <trkpt lat="43.678744006901979" lon="4.628027016296983">
        <ele>-12.84</ele>
        <time>2025-05-17T06:36:48Z</time>
      </trkpt>
      <trkpt lat="43.678744006901979" lon="4.627996003255248">
        <ele>-13.32</ele>
        <time>2025-05-17T06:36:49Z</time>
      </trkpt>
      <trkpt lat="43.678744006901979" lon="4.627960966899991">
        <ele>-13.32</ele>
        <time>2025-05-17T06:36:50Z</time>
      </trkpt>
      <trkpt lat="43.678744006901979" lon="4.62776399217546">
        <ele>-16.210000000000001</ele>
        <time>2025-05-17T06:36:57Z</time>
      </trkpt>
      <trkpt lat="43.678744006901979" lon="4.627735996618867">
        <ele>-16.210000000000001</ele>
        <time>2025-05-17T06:36:58Z</time>
      </trkpt>
      <trkpt lat="43.678744006901979" lon="4.627604987472296">
        <ele>-15.720000000000001</ele>
        <time>2025-05-17T06:37:10Z</time>
      </trkpt>
      <trkpt lat="43.678744006901979" lon="4.627604987472296">
        <ele>-16.690000000000001</ele>
        <time>2025-05-17T06:37:12Z</time>
      </trkpt>
      <trkpt lat="43.678737971931696" lon="4.627567017450929">
        <ele>-17.170000000000002</ele>
        <time>2025-05-17T06:37:13Z</time>
      </trkpt>
      <trkpt lat="43.678730009123683" lon="4.627517983317375">
        <ele>-17.649999999999999</ele>
        <time>2025-05-17T06:37:14Z</time>
      </trkpt>
      <trkpt lat="43.678722968325019" lon="4.627479007467628">
        <ele>-18.129999999999999</ele>
        <time>2025-05-17T06:37:15Z</time>
      </trkpt>
      <trkpt lat="43.678669994696975" lon="4.627344980835915">
        <ele>-18.609999999999999</ele>
        <time>2025-05-17T06:37:16Z</time>
      </trkpt>
      <trkpt lat="43.678669994696975" lon="4.627344980835915">
        <ele>-21.010000000000002</ele>
        <time>2025-05-17T06:37:30Z</time>
      </trkpt>
      <trkpt lat="43.678701007738709" lon="4.627346992492676">
        <ele>-22.449999999999999</ele>
        <time>2025-05-17T06:37:36Z</time>
      </trkpt>
      <trkpt lat="43.678727997466922" lon="4.627509014680982">
        <ele>-21.969999999999999</ele>
        <time>2025-05-17T06:37:39Z</time>
      </trkpt>
      <trkpt lat="43.678701007738709" lon="4.627346992492676">
        <ele>-21.969999999999999</ele>
        <time>2025-05-17T06:37:40Z</time>
      </trkpt>
      <trkpt lat="43.678798992186785" lon="4.627596018835902">
        <ele>-21.969999999999999</ele>
        <time>2025-05-17T06:37:41Z</time>
      </trkpt>
      <trkpt lat="43.679130999371409" lon="4.627540027722716">
        <ele>-26.780000000000001</ele>
        <time>2025-05-17T06:37:51Z</time>
      </trkpt>
      <trkpt lat="43.67913200519979" lon="4.62752602994442">
        <ele>-27.260000000000002</ele>
        <time>2025-05-17T06:37:52Z</time>
      </trkpt>
      <trkpt lat="43.679137034341693" lon="4.627489987760782">
        <ele>-28.219999999999999</ele>
        <time>2025-05-17T06:37:53Z</time>
      </trkpt>
      <trkpt lat="43.679155977442861" lon="4.627335006371141">
        <ele>-30.620000000000001</ele>
        <time>2025-05-17T06:38:02Z</time>
      </trkpt>
      <trkpt lat="43.679212974384427" lon="4.627000987529755">
        <ele>-29.66</ele>
        <time>2025-05-17T06:38:10Z</time>
      </trkpt>
      <trkpt lat="43.679233007133007" lon="4.626851035282016">
        <ele>-29.18</ele>
        <time>2025-05-17T06:38:11Z</time>
      </trkpt>
      <trkpt lat="43.67921800352633" lon="4.626781968399882">
        <ele>-29.18</ele>
        <time>2025-05-17T06:38:12Z</time>
      </trkpt>
      <trkpt lat="43.679186990484595" lon="4.626640984788537">
        <ele>-28.699999999999999</ele>
        <time>2025-05-17T06:38:14Z</time>
      </trkpt>
      <trkpt lat="43.679172992706299" lon="4.626577030867338">
        <ele>-28.699999999999999</ele>
        <time>2025-05-17T06:38:15Z</time>
      </trkpt>
      <trkpt lat="43.679160000756383" lon="4.626518022269011">
        <ele>-28.699999999999999</ele>
        <time>2025-05-17T06:38:16Z</time>
      </trkpt>
      <trkpt lat="43.679149020463228" lon="4.626464964821935">
        <ele>-28.699999999999999</ele>
        <time>2025-05-17T06:38:17Z</time>
      </trkpt>
      <trkpt lat="43.679137034341693" lon="4.626412997022271">
        <ele>-28.699999999999999</ele>
        <time>2025-05-17T06:38:18Z</time>
      </trkpt>
      <trkpt lat="43.679123036563396" lon="4.626348959282041">
        <ele>-27.739999999999998</ele>
        <time>2025-05-17T06:38:19Z</time>
      </trkpt>
      <trkpt lat="43.679107027128339" lon="4.626288022845984">
        <ele>-27.260000000000002</ele>
        <time>2025-05-17T06:38:20Z</time>
      </trkpt>
      <trkpt lat="43.679092023521662" lon="4.626224990934134">
        <ele>-26.780000000000001</ele>
        <time>2025-05-17T06:38:21Z</time>
      </trkpt>
      <trkpt lat="43.679041983559728" lon="4.626024998724461">
        <ele>-25.82</ele>
        <time>2025-05-17T06:38:24Z</time>
      </trkpt>
      <trkpt lat="43.678963026031852" lon="4.625630965456367">
        <ele>-23.899999999999999</ele>
        <time>2025-05-17T06:38:29Z</time>
      </trkpt>
      <trkpt lat="43.678942993283272" lon="4.625555025413632">
        <ele>-23.899999999999999</ele>
        <time>2025-05-17T06:38:30Z</time>
      </trkpt>
      <trkpt lat="43.678922038525343" lon="4.625475984066725">
        <ele>-23.899999999999999</ele>
        <time>2025-05-17T06:38:31Z</time>
      </trkpt>
      <trkpt lat="43.678898988291621" lon="4.625391997396946">
        <ele>-23.899999999999999</ele>
        <time>2025-05-17T06:38:32Z</time>
      </trkpt>
      <trkpt lat="43.678877027705312" lon="4.625311028212309">
        <ele>-23.899999999999999</ele>
        <time>2025-05-17T06:38:33Z</time>
      </trkpt>
      <trkpt lat="43.678856994956732" lon="4.625236010178924">
        <ele>-23.899999999999999</ele>
        <time>2025-05-17T06:38:34Z</time>
      </trkpt>
      <trkpt lat="43.678759010508657" lon="4.624937027692795">
        <ele>-22.93</ele>
        <time>2025-05-17T06:38:38Z</time>
      </trkpt>
      <trkpt lat="43.678732020780444" lon="4.62486200965941">
        <ele>-22.93</ele>
        <time>2025-05-17T06:38:39Z</time>
      </trkpt>
      <trkpt lat="43.678674018010497" lon="4.6247139852494">
        <ele>-22.449999999999999</ele>
        <time>2025-05-17T06:38:41Z</time>
      </trkpt>
      <trkpt lat="43.678646022453904" lon="4.624645002186298">
        <ele>-22.449999999999999</ele>
        <time>2025-05-17T06:38:42Z</time>
      </trkpt>
      <trkpt lat="43.67861601524055" lon="4.624569984152913">
        <ele>-22.449999999999999</ele>
        <time>2025-05-17T06:38:43Z</time>
      </trkpt>
      <trkpt lat="43.678588019683957" lon="4.62449798360467">
        <ele>-21.969999999999999</ele>
        <time>2025-05-17T06:38:44Z</time>
      </trkpt>
      <trkpt lat="43.678561029955745" lon="4.62443201802671">
        <ele>-21.969999999999999</ele>
        <time>2025-05-17T06:38:45Z</time>
      </trkpt>
      <trkpt lat="43.678550971671939" lon="4.624407039955258">
        <ele>-21.489999999999998</ele>
        <time>2025-05-17T06:38:46Z</time>
      </trkpt>
      <trkpt lat="43.678550971671939" lon="4.624407039955258">
        <ele>-21.489999999999998</ele>
        <time>2025-05-17T06:38:47Z</time>
      </trkpt>
      <trkpt lat="43.678495986387134" lon="4.624277958646417">
        <ele>-21.489999999999998</ele>
        <time>2025-05-17T06:38:48Z</time>
      </trkpt>
      <trkpt lat="43.67848701775074" lon="4.624257003888488">
        <ele>-21.489999999999998</ele>
        <time>2025-05-17T06:38:49Z</time>
      </trkpt>
      <trkpt lat="43.678446030244231" lon="4.624182991683483">
        <ele>-21.010000000000002</ele>
        <time>2025-05-17T06:38:50Z</time>
      </trkpt>
      <trkpt lat="43.678420968353748" lon="4.624137980863452">
        <ele>-21.010000000000002</ele>
        <time>2025-05-17T06:38:51Z</time>
      </trkpt>
      <trkpt lat="43.678396996110678" lon="4.624093975871801">
        <ele>-21.010000000000002</ele>
        <time>2025-05-17T06:38:52Z</time>
      </trkpt>
      <trkpt lat="43.678376041352749" lon="4.624058017507196">
        <ele>-21.010000000000002</ele>
        <time>2025-05-17T06:38:53Z</time>
      </trkpt>
      <trkpt lat="43.67827202193439" lon="4.623871017247438">
        <ele>-19.57</ele>
        <time>2025-05-17T06:38:57Z</time>
      </trkpt>
      <trkpt lat="43.678263975307345" lon="4.623849978670478">
        <ele>-19.09</ele>
        <time>2025-05-17T06:38:58Z</time>
      </trkpt>
      <trkpt lat="43.67822902277112" lon="4.623763980343938">
        <ele>-19.57</ele>
        <time>2025-05-17T06:39:00Z</time>
      </trkpt>
      <trkpt lat="43.678174037486315" lon="4.623663984239101">
        <ele>-20.050000000000001</ele>
        <time>2025-05-17T06:39:01Z</time>
      </trkpt>
      <trkpt lat="43.678147969767451" lon="4.623616961762309">
        <ele>-20.050000000000001</ele>
        <time>2025-05-17T06:39:02Z</time>
      </trkpt>
      <trkpt lat="43.678089966997504" lon="4.623497016727924">
        <ele>-20.530000000000001</ele>
        <time>2025-05-17T06:39:04Z</time>
      </trkpt>
      <trkpt lat="43.678060965612531" lon="4.623429039493203">
        <ele>-20.530000000000001</ele>
        <time>2025-05-17T06:39:05Z</time>
      </trkpt>
      <trkpt lat="43.678031964227557" lon="4.623362990096211">
        <ele>-20.530000000000001</ele>
        <time>2025-05-17T06:39:06Z</time>
      </trkpt>
      <trkpt lat="43.678003968670964" lon="4.623299958184362">
        <ele>-20.530000000000001</ele>
        <time>2025-05-17T06:39:07Z</time>
      </trkpt>
      <trkpt lat="43.677978990599513" lon="4.623241033405066">
        <ele>-20.050000000000001</ele>
        <time>2025-05-17T06:39:08Z</time>
      </trkpt>
      <trkpt lat="43.677925011143088" lon="4.623116981238127">
        <ele>-15.720000000000001</ele>
        <time>2025-05-17T06:39:15Z</time>
      </trkpt>
      <trkpt lat="43.677886035293341" lon="4.623088985681534">
        <ele>-13.32</ele>
        <time>2025-05-17T06:39:30Z</time>
      </trkpt>
      <trkpt lat="43.677757037803531" lon="4.623162997886539">
        <ele>-9.48</ele>
        <time>2025-05-17T06:39:37Z</time>
      </trkpt>
      <trkpt lat="43.677602978423238" lon="4.623262993991375">
        <ele>-9.48</ele>
        <time>2025-05-17T06:39:38Z</time>
      </trkpt>
      <trkpt lat="43.677598033100367" lon="4.623328959569335">
        <ele>-9.48</ele>
        <time>2025-05-17T06:39:39Z</time>
      </trkpt>
      <trkpt lat="43.677559979259968" lon="4.623560970649123">
        <ele>-9.960000000000001</ele>
        <time>2025-05-17T06:39:44Z</time>
      </trkpt>
      <trkpt lat="43.677548998966813" lon="4.62359600700438">
        <ele>-9.960000000000001</ele>
        <time>2025-05-17T06:39:45Z</time>
      </trkpt>
      <trkpt lat="43.677532989531755" lon="4.623643029481173">
        <ele>-9.960000000000001</ele>
        <time>2025-05-17T06:39:46Z</time>
      </trkpt>
      <trkpt lat="43.677513040602207" lon="4.623691979795694">
        <ele>-9.960000000000001</ele>
        <time>2025-05-17T06:39:47Z</time>
      </trkpt>
      <trkpt lat="43.677484961226583" lon="4.623743025586009">
        <ele>-10.44</ele>
        <time>2025-05-17T06:39:48Z</time>
      </trkpt>
      <trkpt lat="43.677458977326751" lon="4.623788958415389">
        <ele>-10.44</ele>
        <time>2025-05-17T06:39:49Z</time>
      </trkpt>
      <trkpt lat="43.67741396650672" lon="4.623871017247438">
        <ele>-10.44</ele>
        <time>2025-05-17T06:39:50Z</time>
      </trkpt>
      <trkpt lat="43.677409021183848" lon="4.623888032510877">
        <ele>-10.44</ele>
        <time>2025-05-17T06:39:51Z</time>
      </trkpt>
      <trkpt lat="43.677395023405552" lon="4.623942011967301">
        <ele>-10.44</ele>
        <time>2025-05-17T06:39:52Z</time>
      </trkpt>
      <trkpt lat="43.677379013970494" lon="4.623999008908868">
        <ele>-10.44</ele>
        <time>2025-05-17T06:39:53Z</time>
      </trkpt>
      <trkpt lat="43.677367027848959" lon="4.624044019728899">
        <ele>-9.960000000000001</ele>
        <time>2025-05-17T06:39:54Z</time>
      </trkpt>
      <trkpt lat="43.677358981221914" lon="4.624073021113873">
        <ele>-9.960000000000001</ele>
        <time>2025-05-17T06:40:03Z</time>
      </trkpt>
      <trkpt lat="43.677235012874007" lon="4.624439980834723">
        <ele>-9</ele>
        <time>2025-05-17T06:40:10Z</time>
      </trkpt>
      <trkpt lat="43.677110960707068" lon="4.624625975266099">
        <ele>-8.51</ele>
        <time>2025-05-17T06:40:14Z</time>
      </trkpt>
      <trkpt lat="43.677049018442631" lon="4.624708034098148">
        <ele>-9</ele>
        <time>2025-05-17T06:40:15Z</time>
      </trkpt>
      <trkpt lat="43.676992021501064" lon="4.624722031876445">
        <ele>-8.51</ele>
        <time>2025-05-17T06:40:16Z</time>
      </trkpt>
      <trkpt lat="43.676820024847984" lon="4.624765031039715">
        <ele>-9</ele>
        <time>2025-05-17T06:40:19Z</time>
      </trkpt>
      <trkpt lat="43.676755987107754" lon="4.62477701716125">
        <ele>-9</ele>
        <time>2025-05-17T06:40:20Z</time>
      </trkpt>
      <trkpt lat="43.676691027358174" lon="4.624786991626024">
        <ele>-9</ele>
        <time>2025-05-17T06:40:21Z</time>
      </trkpt>
      <trkpt lat="43.676626989617944" lon="4.624795960262418">
        <ele>-9.48</ele>
        <time>2025-05-17T06:40:22Z</time>
      </trkpt>
      <trkpt lat="43.676566975191236" lon="4.624805012717843">
        <ele>-9.48</ele>
        <time>2025-05-17T06:40:23Z</time>
      </trkpt>
      <trkpt lat="43.676507966592908" lon="4.624813981354237">
        <ele>-9.48</ele>
        <time>2025-05-17T06:40:24Z</time>
      </trkpt>
      <trkpt lat="43.676374023780227" lon="4.624834014102817">
        <ele>-10.44</ele>
        <time>2025-05-17T06:40:26Z</time>
      </trkpt>
      <trkpt lat="43.676169002428651" lon="4.624857986345887">
        <ele>-10.92</ele>
        <time>2025-05-17T06:40:28Z</time>
      </trkpt>
      <trkpt lat="43.676146036013961" lon="4.624861003831029">
        <ele>-10.92</ele>
        <time>2025-05-17T06:40:29Z</time>
      </trkpt>
      <trkpt lat="43.676005974411964" lon="4.624878019094467">
        <ele>-11.4</ele>
        <time>2025-05-17T06:40:31Z</time>
      </trkpt>
      <trkpt lat="43.67586700245738" lon="4.624896040186286">
        <ele>-11.4</ele>
        <time>2025-05-17T06:40:33Z</time>
      </trkpt>
      <trkpt lat="43.675654018297791" lon="4.624922024086118">
        <ele>-11.4</ele>
        <time>2025-05-17T06:40:36Z</time>
      </trkpt>
      <trkpt lat="43.675537006929517" lon="4.624941973015666">
        <ele>-10.92</ele>
        <time>2025-05-17T06:40:39Z</time>
      </trkpt>
      <trkpt lat="43.67550197057426" lon="4.62494800798595">
        <ele>-10.92</ele>
        <time>2025-05-17T06:40:40Z</time>
      </trkpt>
      <trkpt lat="43.675471963360906" lon="4.624953037127852">
        <ele>-10.92</ele>
        <time>2025-05-17T06:40:41Z</time>
      </trkpt>
      <trkpt lat="43.675447991117835" lon="4.624956976622343">
        <ele>-11.4</ele>
        <time>2025-05-17T06:40:42Z</time>
      </trkpt>
      <trkpt lat="43.675429970026016" lon="4.624958988279104">
        <ele>-11.4</ele>
        <time>2025-05-17T06:40:43Z</time>
      </trkpt>
      <trkpt lat="43.675410021096468" lon="4.624963011592627">
        <ele>-11.4</ele>
        <time>2025-05-17T06:40:51Z</time>
      </trkpt>
      <trkpt lat="43.675380013883114" lon="4.62496804073453">
        <ele>-11.4</ele>
        <time>2025-05-17T06:40:52Z</time>
      </trkpt>
      <trkpt lat="43.675339026376605" lon="4.624974997714162">
        <ele>-11.4</ele>
        <time>2025-05-17T06:40:53Z</time>
      </trkpt>
      <trkpt lat="43.675293009728193" lon="4.624982038512826">
        <ele>-11.880000000000001</ele>
        <time>2025-05-17T06:40:54Z</time>
      </trkpt>
      <trkpt lat="43.675139034166932" lon="4.625008022412658">
        <ele>-12.359999999999999</ele>
        <time>2025-05-17T06:40:55Z</time>
      </trkpt>
      <trkpt lat="43.675139034166932" lon="4.625008022412658">
        <ele>-12.359999999999999</ele>
        <time>2025-05-17T06:40:56Z</time>
      </trkpt>
      <trkpt lat="43.675129981711507" lon="4.625009028241038">
        <ele>-11.880000000000001</ele>
        <time>2025-05-17T06:41:04Z</time>
      </trkpt>
      <trkpt lat="43.67485798895359" lon="4.625036017969251">
        <ele>-9</ele>
        <time>2025-05-17T06:41:15Z</time>
      </trkpt>
      <trkpt lat="43.674487005919218" lon="4.625062001869083">
        <ele>-7.55</ele>
        <time>2025-05-17T06:41:25Z</time>
      </trkpt>
      <trkpt lat="43.674092972651124" lon="4.625107012689114">
        <ele>-7.07</ele>
        <time>2025-05-17T06:41:32Z</time>
      </trkpt>
      <trkpt lat="43.674030024558306" lon="4.625169038772583">
        <ele>-7.07</ele>
        <time>2025-05-17T06:41:33Z</time>
      </trkpt>
      <trkpt lat="43.674033964052796" lon="4.625197034329176">
        <ele>-6.59</ele>
        <time>2025-05-17T06:41:34Z</time>
      </trkpt>
      <trkpt lat="43.674037987366319" lon="4.625232992693782">
        <ele>-6.11</ele>
        <time>2025-05-17T06:41:35Z</time>
      </trkpt>
      <trkpt lat="43.674044022336602" lon="4.625279009342194">
        <ele>-6.11</ele>
        <time>2025-05-17T06:41:36Z</time>
      </trkpt>
      <trkpt lat="43.674045028164983" lon="4.625437008216977">
        <ele>-6.59</ele>
        <time>2025-05-17T06:41:38Z</time>
      </trkpt>
      <trkpt lat="43.674055002629757" lon="4.625499034300447">
        <ele>-7.07</ele>
        <time>2025-05-17T06:41:39Z</time>
      </trkpt>
      <trkpt lat="43.674108982086182" lon="4.625824000686407">
        <ele>-9.960000000000001</ele>
        <time>2025-05-17T06:41:47Z</time>
      </trkpt>
      <trkpt lat="43.674077969044447" lon="4.625830035656691">
        <ele>-10.44</ele>
        <time>2025-05-17T06:41:48Z</time>
      </trkpt>
      <trkpt lat="43.674042010679841" lon="4.625836992636323">
        <ele>-10.44</ele>
        <time>2025-05-17T06:41:49Z</time>
      </trkpt>
      <trkpt lat="43.673468017950654" lon="4.625956015661359">
        <ele>-12.84</ele>
        <time>2025-05-17T06:42:00Z</time>
      </trkpt>
      <trkpt lat="43.673037020489573" lon="4.626045031473041">
        <ele>-13.800000000000001</ele>
        <time>2025-05-17T06:42:08Z</time>
      </trkpt>
      <trkpt lat="43.672993015497923" lon="4.626054000109434">
        <ele>-14.279999999999999</ele>
        <time>2025-05-17T06:42:09Z</time>
      </trkpt>
      <trkpt lat="43.672954039648175" lon="4.626061962917447">
        <ele>-14.279999999999999</ele>
        <time>2025-05-17T06:42:10Z</time>
      </trkpt>
      <trkpt lat="43.672926966100931" lon="4.626067997887731">
        <ele>-14.279999999999999</ele>
        <time>2025-05-17T06:42:11Z</time>
      </trkpt>
      <trkpt lat="43.672912968322635" lon="4.626071015372872">
        <ele>-14.279999999999999</ele>
        <time>2025-05-17T06:42:12Z</time>
      </trkpt>
      <trkpt lat="43.672865023836493" lon="4.626080989837647">
        <ele>-14.279999999999999</ele>
        <time>2025-05-17T06:42:15Z</time>
      </trkpt>
      <trkpt lat="43.672856977209449" lon="4.626024998724461">
        <ele>-14.279999999999999</ele>
        <time>2025-05-17T06:42:16Z</time>
      </trkpt>
      <trkpt lat="43.672850020229816" lon="4.625977976247668">
        <ele>-13.800000000000001</ele>
        <time>2025-05-17T06:42:17Z</time>
      </trkpt>
      <trkpt lat="43.672840967774391" lon="4.62591502815485">
        <ele>-13.32</ele>
        <time>2025-05-17T06:42:18Z</time>
      </trkpt>
      <trkpt lat="43.672833004966378" lon="4.625856019556522">
        <ele>-12.84</ele>
        <time>2025-05-17T06:42:19Z</time>
      </trkpt>
      <trkpt lat="43.672825964167714" lon="4.625804973766208">
        <ele>-12.84</ele>
        <time>2025-05-17T06:42:20Z</time>
      </trkpt>
      <trkpt lat="43.672819007188082" lon="4.625757029280067">
        <ele>-12.359999999999999</ele>
        <time>2025-05-17T06:42:21Z</time>
      </trkpt>
      <trkpt lat="43.672811966389418" lon="4.625713024288416">
        <ele>-11.880000000000001</ele>
        <time>2025-05-17T06:42:22Z</time>
      </trkpt>
      <trkpt lat="43.672806015238166" lon="4.625670025125146">
        <ele>-11.4</ele>
        <time>2025-05-17T06:42:23Z</time>
      </trkpt>
      <trkpt lat="43.672800986096263" lon="4.62563599459827">
        <ele>-10.92</ele>
        <time>2025-05-17T06:42:32Z</time>
      </trkpt>
      <trkpt lat="43.672779025509953" lon="4.625480007380247">
        <ele>-9.960000000000001</ele>
        <time>2025-05-17T06:42:47Z</time>
      </trkpt>
      <trkpt lat="43.672733008861542" lon="4.625341035425663">
        <ele>-9.48</ele>
        <time>2025-05-17T06:42:48Z</time>
      </trkpt>
      <trkpt lat="43.67268699221313" lon="4.625351009890437">
        <ele>-9.48</ele>
        <time>2025-05-17T06:42:49Z</time>
      </trkpt>
      <trkpt lat="43.672627983614802" lon="4.625365007668734">
        <ele>-9.48</ele>
        <time>2025-05-17T06:42:50Z</time>
      </trkpt>
      <trkpt lat="43.672567969188094" lon="4.62537900544703">
        <ele>-9.48</ele>
        <time>2025-05-17T06:42:51Z</time>
      </trkpt>
      <trkpt lat="43.672509966418147" lon="4.625391997396946">
        <ele>-9.48</ele>
        <time>2025-05-17T06:42:52Z</time>
      </trkpt>
      <trkpt lat="43.672261023893952" lon="4.625434996560216">
        <ele>-9.48</ele>
        <time>2025-05-17T06:42:57Z</time>
      </trkpt>
      <trkpt lat="43.672205032780766" lon="4.62544396519661">
        <ele>-9</ele>
        <time>2025-05-17T06:42:58Z</time>
      </trkpt>
      <trkpt lat="43.672153986990452" lon="4.625453017652035">
        <ele>-9</ele>
        <time>2025-05-17T06:42:59Z</time>
      </trkpt>
      <trkpt lat="43.672103025019169" lon="4.625462992116809">
        <ele>-9</ele>
        <time>2025-05-17T06:43:00Z</time>
      </trkpt>
      <trkpt lat="43.672052985057235" lon="4.625471960753202">
        <ele>-9</ele>
        <time>2025-05-17T06:43:01Z</time>
      </trkpt>
      <trkpt lat="43.672033958137035" lon="4.625323014333844">
        <ele>-8.51</ele>
        <time>2025-05-17T06:43:02Z</time>
      </trkpt>
      <trkpt lat="43.672025995329022" lon="4.625371964648366">
        <ele>-8.51</ele>
        <time>2025-05-17T06:43:03Z</time>
      </trkpt>
      <trkpt lat="43.672016020864248" lon="4.625428039580584">
        <ele>-8.029999999999999</ele>
        <time>2025-05-17T06:43:04Z</time>
      </trkpt>
      <trkpt lat="43.672006968408823" lon="4.625480007380247">
        <ele>-8.029999999999999</ele>
        <time>2025-05-17T06:43:05Z</time>
      </trkpt>
      <trkpt lat="43.672013003379107" lon="4.625555025413632">
        <ele>-7.55</ele>
        <time>2025-05-17T06:43:06Z</time>
      </trkpt>
      <trkpt lat="43.6720219720155" lon="4.625644963234663">
        <ele>-7.55</ele>
        <time>2025-05-17T06:43:07Z</time>
      </trkpt>
      <trkpt lat="43.672030018642545" lon="4.625739008188248">
        <ele>-7.55</ele>
        <time>2025-05-17T06:43:08Z</time>
      </trkpt>
      <trkpt lat="43.672038987278938" lon="4.625835986807942">
        <ele>-7.07</ele>
        <time>2025-05-17T06:43:09Z</time>
      </trkpt>
      <trkpt lat="43.672143006697297" lon="4.626971986144781">
        <ele>-3.71</ele>
        <time>2025-05-17T06:43:21Z</time>
      </trkpt>
      <trkpt lat="43.672163961455226" lon="4.627197962254286">
        <ele>-3.23</ele>
        <time>2025-05-17T06:43:24Z</time>
      </trkpt>
      <trkpt lat="43.672168990597129" lon="4.627256970852613">
        <ele>-2.75</ele>
        <time>2025-05-17T06:43:25Z</time>
      </trkpt>
      <trkpt lat="43.672190029174089" lon="4.627476995810866">
        <ele>-2.75</ele>
        <time>2025-05-17T06:43:28Z</time>
      </trkpt>
      <trkpt lat="43.672194974496961" lon="4.627536004409194">
        <ele>-2.75</ele>
        <time>2025-05-17T06:43:29Z</time>
      </trkpt>
      <trkpt lat="43.672207966446877" lon="4.627673970535398">
        <ele>-2.27</ele>
        <time>2025-05-17T06:43:33Z</time>
      </trkpt>
      <trkpt lat="43.672207966446877" lon="4.627673970535398">
        <ele>-2.27</ele>
        <time>2025-05-17T06:43:45Z</time>
      </trkpt>
      <trkpt lat="43.672231016680598" lon="4.627930037677288">
        <ele>0.14</ele>
        <time>2025-05-17T06:43:54Z</time>
      </trkpt>
      <trkpt lat="43.67223696783185" lon="4.627989968284965">
        <ele>0.14</ele>
        <time>2025-05-17T06:43:55Z</time>
      </trkpt>
      <trkpt lat="43.672186005860567" lon="4.628062974661589">
        <ele>0.14</ele>
        <time>2025-05-17T06:43:56Z</time>
      </trkpt>
      <trkpt lat="43.672120962291956" lon="4.628073032945395">
        <ele>0.62</ele>
        <time>2025-05-17T06:43:57Z</time>
      </trkpt>
      <trkpt lat="43.672040998935699" lon="4.62808501906693">
        <ele>0.62</ele>
        <time>2025-05-17T06:43:58Z</time>
      </trkpt>
      <trkpt lat="43.671952988952398" lon="4.628098011016846">
        <ele>1.1</ele>
        <time>2025-05-17T06:43:59Z</time>
      </trkpt>
      <trkpt lat="43.671576976776123" lon="4.628161964938045">
        <ele>1.58</ele>
        <time>2025-05-17T06:44:03Z</time>
      </trkpt>
      <trkpt lat="43.671456025913358" lon="4.628197001293302">
        <ele>2.06</ele>
        <time>2025-05-17T06:44:04Z</time>
      </trkpt>
      <trkpt lat="43.671180009841919" lon="4.628262966871262">
        <ele>2.54</ele>
        <time>2025-05-17T06:44:07Z</time>
      </trkpt>
      <trkpt lat="43.671094011515379" lon="4.628275958821178">
        <ele>2.54</ele>
        <time>2025-05-17T06:44:08Z</time>
      </trkpt>
      <trkpt lat="43.670621020719409" lon="4.628445021808147">
        <ele>2.54</ele>
        <time>2025-05-17T06:44:14Z</time>
      </trkpt>
      <trkpt lat="43.670590007677674" lon="4.628462959080935">
        <ele>3.02</ele>
        <time>2025-05-17T06:44:15Z</time>
      </trkpt>
      <trkpt lat="43.670573998242617" lon="4.628507969900966">
        <ele>3.5</ele>
        <time>2025-05-17T06:44:16Z</time>
      </trkpt>
      <trkpt lat="43.670555977150798" lon="4.628553986549377">
        <ele>3.98</ele>
        <time>2025-05-17T06:44:17Z</time>
      </trkpt>
      <trkpt lat="43.67053996771574" lon="4.628596985712647">
        <ele>4.46</ele>
        <time>2025-05-17T06:44:18Z</time>
      </trkpt>
      <trkpt lat="43.670525969937444" lon="4.628635039553046">
        <ele>4.94</ele>
        <time>2025-05-17T06:44:19Z</time>
      </trkpt>
      <trkpt lat="43.67051599547267" lon="4.628690024837852">
        <ele>5.42</ele>
        <time>2025-05-17T06:44:20Z</time>
      </trkpt>
      <trkpt lat="43.670503003522754" lon="4.628762025386095">
        <ele>5.91</ele>
        <time>2025-05-17T06:44:21Z</time>
      </trkpt>
      <trkpt lat="43.670482970774174" lon="4.628870990127325">
        <ele>6.39</ele>
        <time>2025-05-17T06:44:22Z</time>
      </trkpt>
      <trkpt lat="43.670396972447634" lon="4.629379017278552">
        <ele>7.35</ele>
        <time>2025-05-17T06:44:26Z</time>
      </trkpt>
      <trkpt lat="43.670311979949474" lon="4.629528969526291">
        <ele>7.83</ele>
        <time>2025-05-17T06:44:28Z</time>
      </trkpt>
      <trkpt lat="43.670205026865005" lon="4.629659978672862">
        <ele>7.83</ele>
        <time>2025-05-17T06:44:30Z</time>
      </trkpt>
      <trkpt lat="43.670096984133124" lon="4.629792999476194">
        <ele>7.83</ele>
        <time>2025-05-17T06:44:31Z</time>
      </trkpt>
      <trkpt lat="43.670018026605248" lon="4.629824012517929">
        <ele>7.83</ele>
        <time>2025-05-17T06:44:32Z</time>
      </trkpt>
      <trkpt lat="43.668659990653396" lon="4.630229026079178">
        <ele>7.83</ele>
        <time>2025-05-17T06:44:46Z</time>
      </trkpt>
      <trkpt lat="43.668012991547585" lon="4.630439998582006">
        <ele>5.91</ele>
        <time>2025-05-17T06:44:53Z</time>
      </trkpt>
      <trkpt lat="43.667355012148619" lon="4.630616018548608">
        <ele>3.98</ele>
        <time>2025-05-17T06:45:00Z</time>
      </trkpt>
      <trkpt lat="43.667275970801711" lon="4.630668992176652">
        <ele>3.5</ele>
        <time>2025-05-17T06:45:01Z</time>
      </trkpt>
      <trkpt lat="43.667213022708893" lon="4.63074803352356">
        <ele>3.98</ele>
        <time>2025-05-17T06:45:02Z</time>
      </trkpt>
      <trkpt lat="43.667148984968662" lon="4.630829002708197">
        <ele>4.94</ele>
        <time>2025-05-17T06:45:03Z</time>
      </trkpt>
      <trkpt lat="43.667081007733941" lon="4.630912989377976">
        <ele>4.94</ele>
        <time>2025-05-17T06:45:04Z</time>
      </trkpt>
      <trkpt lat="43.666965002194047" lon="4.63109202682972">
        <ele>4.94</ele>
        <time>2025-05-17T06:45:06Z</time>
      </trkpt>
      <trkpt lat="43.666546996682882" lon="4.631741959601641">
        <ele>2.06</ele>
        <time>2025-05-17T06:45:13Z</time>
      </trkpt>
      <trkpt lat="43.666462004184723" lon="4.631721004843712">
        <ele>1.58</ele>
        <time>2025-05-17T06:45:14Z</time>
      </trkpt>
      <trkpt lat="43.666410958394408" lon="4.631742965430021">
        <ele>1.1</ele>
        <time>2025-05-17T06:45:15Z</time>
      </trkpt>
      <trkpt lat="43.666373994201422" lon="4.631722010672092">
        <ele>0.62</ele>
        <time>2025-05-17T06:45:16Z</time>
      </trkpt>
      <trkpt lat="43.666321020573378" lon="4.631684040650725">
        <ele>0.14</ele>
        <time>2025-05-17T06:45:17Z</time>
      </trkpt>
      <trkpt lat="43.666264023631811" lon="4.631641963496804">
        <ele>0.14</ele>
        <time>2025-05-17T06:45:18Z</time>
      </trkpt>
      <trkpt lat="43.666169978678226" lon="4.631573986262083">
        <ele>-0.34</ele>
        <time>2025-05-17T06:45:19Z</time>
      </trkpt>
      <trkpt lat="43.66615598089993" lon="4.63148002512753">
        <ele>-0.82</ele>
        <time>2025-05-17T06:45:20Z</time>
      </trkpt>
      <trkpt lat="43.66613301448524" lon="4.631335018202663">
        <ele>-0.34</ele>
        <time>2025-05-17T06:45:21Z</time>
      </trkpt>
      <trkpt lat="43.666110970079899" lon="4.631187999621034">
        <ele>0.14</ele>
        <time>2025-05-17T06:45:22Z</time>
      </trkpt>
      <trkpt lat="43.666088003665209" lon="4.631037963554263">
        <ele>0.62</ele>
        <time>2025-05-17T06:45:23Z</time>
      </trkpt>
      <trkpt lat="43.666115999221802" lon="4.63087803684175">
        <ele>0.62</ele>
        <time>2025-05-17T06:45:24Z</time>
      </trkpt>
      <trkpt lat="43.666151035577059" lon="4.630720037966967">
        <ele>1.1</ele>
        <time>2025-05-17T06:45:25Z</time>
      </trkpt>
      <trkpt lat="43.666186993941665" lon="4.630561033263803">
        <ele>1.58</ele>
        <time>2025-05-17T06:45:26Z</time>
      </trkpt>
      <trkpt lat="43.666235022246838" lon="4.630350982770324">
        <ele>1.58</ele>
        <time>2025-05-17T06:45:27Z</time>
      </trkpt>
      <trkpt lat="43.666319008916616" lon="4.630219973623753">
        <ele>2.06</ele>
        <time>2025-05-17T06:45:28Z</time>
      </trkpt>
      <trkpt lat="43.667246969416738" lon="4.628769988194108">
        <ele>1.58</ele>
        <time>2025-05-17T06:45:39Z</time>
      </trkpt>
      <trkpt lat="43.668406018987298" lon="4.627081034705043">
        <ele>1.1</ele>
        <time>2025-05-17T06:45:50Z</time>
      </trkpt>
      <trkpt lat="43.66879896260798" lon="4.626577030867338">
        <ele>1.58</ele>
        <time>2025-05-17T06:45:53Z</time>
      </trkpt>
      <trkpt lat="43.668942963704467" lon="4.626405034214258">
        <ele>1.1</ele>
        <time>2025-05-17T06:45:54Z</time>
      </trkpt>
      <trkpt lat="43.669087970629334" lon="4.626215016469359">
        <ele>0.62</ele>
        <time>2025-05-17T06:45:55Z</time>
      </trkpt>
      <trkpt lat="43.671000972390175" lon="4.623913010582328">
        <ele>1.1</ele>
        <time>2025-05-17T06:46:07Z</time>
      </trkpt>
      <trkpt lat="43.672200003638864" lon="4.622587999328971">
        <ele>1.1</ele>
        <time>2025-05-17T06:46:15Z</time>
      </trkpt>
      <trkpt lat="43.672639969736338" lon="4.62209003046155">
        <ele>1.58</ele>
        <time>2025-05-17T06:46:18Z</time>
      </trkpt>
      <trkpt lat="43.674645004794002" lon="4.619614016264677">
        <ele>9.27</ele>
        <time>2025-05-17T06:46:33Z</time>
      </trkpt>
      <trkpt lat="43.676165984943509" lon="4.617694979533553">
        <ele>15.52</ele>
        <time>2025-05-17T06:46:45Z</time>
      </trkpt>
      <trkpt lat="43.677367027848959" lon="4.615767979994416">
        <ele>16.48</ele>
        <time>2025-05-17T06:46:56Z</time>
      </trkpt>
      <trkpt lat="43.678069012239575" lon="4.613629002124071">
        <ele>14.56</ele>
        <time>2025-05-17T06:47:06Z</time>
      </trkpt>
      <trkpt lat="43.678273027762771" lon="4.611216019839048">
        <ele>5.91</ele>
        <time>2025-05-17T06:47:16Z</time>
      </trkpt>
      <trkpt lat="43.678518030792475" lon="4.609585991129279">
        <ele>2.06</ele>
        <time>2025-05-17T06:47:23Z</time>
      </trkpt>
      <trkpt lat="43.678704025223851" lon="4.608324011787772">
        <ele>3.02</ele>
        <time>2025-05-17T06:47:30Z</time>
      </trkpt>
      <trkpt lat="43.67878801189363" lon="4.608107004314661">
        <ele>3.02</ele>
        <time>2025-05-17T06:47:32Z</time>
      </trkpt>
      <trkpt lat="43.678835034370422" lon="4.608021005988121">
        <ele>3.5</ele>
        <time>2025-05-17T06:47:33Z</time>
      </trkpt>
      <trkpt lat="43.678873004391789" lon="4.607949005439878">
        <ele>3.5</ele>
        <time>2025-05-17T06:47:34Z</time>
      </trkpt>
      <trkpt lat="43.679107027128339" lon="4.607644993811846">
        <ele>3.02</ele>
        <time>2025-05-17T06:47:37Z</time>
      </trkpt>
      <trkpt lat="43.679275000467896" lon="4.607404014095664">
        <ele>3.5</ele>
        <time>2025-05-17T06:47:39Z</time>
      </trkpt>
      <trkpt lat="43.679368039593101" lon="4.607273004949093">
        <ele>3.5</ele>
        <time>2025-05-17T06:47:40Z</time>
      </trkpt>
      <trkpt lat="43.679885035380721" lon="4.606841001659632">
        <ele>3.98</ele>
        <time>2025-05-17T06:47:44Z</time>
      </trkpt>
      <trkpt lat="43.680040016770363" lon="4.606765983626247">
        <ele>3.98</ele>
        <time>2025-05-17T06:47:45Z</time>
      </trkpt>
      <trkpt lat="43.681558985263109" lon="4.606448980048299">
        <ele>5.42</ele>
        <time>2025-05-17T06:47:54Z</time>
      </trkpt>
      <trkpt lat="43.683697963133454" lon="4.606358036398888">
        <ele>10.23</ele>
        <time>2025-05-17T06:48:06Z</time>
      </trkpt>
      <trkpt lat="43.685455983504653" lon="4.606115967035294">
        <ele>12.630000000000001</ele>
        <time>2025-05-17T06:48:16Z</time>
      </trkpt>
      <trkpt lat="43.686765991151333" lon="4.60576199926436">
        <ele>12.15</ele>
        <time>2025-05-17T06:48:25Z</time>
      </trkpt>
      <trkpt lat="43.688698019832373" lon="4.605223964899778">
        <ele>11.67</ele>
        <time>2025-05-17T06:48:37Z</time>
      </trkpt>
      <trkpt lat="43.689986988902092" lon="4.604877959936857">
        <ele>9.75</ele>
        <time>2025-05-17T06:48:46Z</time>
      </trkpt>
      <trkpt lat="43.690215982496738" lon="4.604809982702136">
        <ele>8.789999999999999</ele>
        <time>2025-05-17T06:48:49Z</time>
      </trkpt>
      <trkpt lat="43.690274991095066" lon="4.604793973267078">
        <ele>8.789999999999999</ele>
        <time>2025-05-17T06:48:50Z</time>
      </trkpt>
      <trkpt lat="43.690325031057" lon="4.604783998802304">
        <ele>8.789999999999999</ele>
        <time>2025-05-17T06:48:51Z</time>
      </trkpt>
      <trkpt lat="43.690413041040301" lon="4.604837978258729">
        <ele>8.789999999999999</ele>
        <time>2025-05-17T06:48:52Z</time>
      </trkpt>
      <trkpt lat="43.690439024940133" lon="4.604880977421999">
        <ele>8.310000000000001</ele>
        <time>2025-05-17T06:48:53Z</time>
      </trkpt>
      <trkpt lat="43.690545978024602" lon="4.605035958811641">
        <ele>8.310000000000001</ele>
        <time>2025-05-17T06:48:54Z</time>
      </trkpt>
      <trkpt lat="43.690545978024602" lon="4.605162022635341">
        <ele>7.83</ele>
        <time>2025-05-17T06:48:55Z</time>
      </trkpt>
      <trkpt lat="43.690546983852983" lon="4.605295965448022">
        <ele>7.35</ele>
        <time>2025-05-17T06:48:56Z</time>
      </trkpt>
      <trkpt lat="43.69058595970273" lon="4.606047989800572">
        <ele>7.35</ele>
        <time>2025-05-17T06:49:01Z</time>
      </trkpt>
      <trkpt lat="43.690568022429943" lon="4.606640003621578">
        <ele>7.83</ele>
        <time>2025-05-17T06:49:06Z</time>
      </trkpt>
      <trkpt lat="43.690590988844633" lon="4.606731031090021">
        <ele>7.83</ele>
        <time>2025-05-17T06:49:10Z</time>
      </trkpt>
      <trkpt lat="43.690590988844633" lon="4.606731031090021">
        <ele>7.83</ele>
        <time>2025-05-17T06:49:46Z</time>
      </trkpt>
      <trkpt lat="43.690590988844633" lon="4.606731031090021">
        <ele>8.310000000000001</ele>
        <time>2025-05-17T06:50:30Z</time>
      </trkpt>
      <trkpt lat="43.690612027421594" lon="4.606809988617897">
        <ele>7.83</ele>
        <time>2025-05-17T06:51:10Z</time>
      </trkpt>
      <trkpt lat="43.690674975514412" lon="4.607048034667969">
        <ele>7.35</ele>
        <time>2025-05-17T06:51:13Z</time>
      </trkpt>
      <trkpt lat="43.690760973840952" lon="4.607220031321049">
        <ele>7.35</ele>
        <time>2025-05-17T06:51:14Z</time>
      </trkpt>
      <trkpt lat="43.690756028518081" lon="4.607252972200513">
        <ele>7.35</ele>
        <time>2025-05-17T06:51:15Z</time>
      </trkpt>
      <trkpt lat="43.690739013254642" lon="4.607369983568788">
        <ele>6.87</ele>
        <time>2025-05-17T06:51:16Z</time>
      </trkpt>
      <trkpt lat="43.690761979669333" lon="4.607384987175465">
        <ele>6.87</ele>
        <time>2025-05-17T06:51:17Z</time>
      </trkpt>
      <trkpt lat="43.690888965502381" lon="4.607306029647589">
        <ele>6.39</ele>
        <time>2025-05-17T06:51:18Z</time>
      </trkpt>
      <trkpt lat="43.690869016572833" lon="4.60733100771904">
        <ele>6.39</ele>
        <time>2025-05-17T06:51:19Z</time>
      </trkpt>
      <trkpt lat="43.690888965502381" lon="4.607306029647589">
        <ele>6.87</ele>
        <time>2025-05-17T06:51:20Z</time>
      </trkpt>
      <trkpt lat="43.690860969945788" lon="4.607236040756106">
        <ele>6.87</ele>
        <time>2025-05-17T06:51:21Z</time>
      </trkpt>
      <trkpt lat="43.690845966339111" lon="4.607197986915708">
        <ele>6.39</ele>
        <time>2025-05-17T06:51:22Z</time>
      </trkpt>
      <trkpt lat="43.690727027133107" lon="4.607151970267296">
        <ele>6.39</ele>
        <time>2025-05-17T06:51:23Z</time>
      </trkpt>
      <trkpt lat="43.690672041848302" lon="4.607037976384163">
        <ele>6.39</ele>
        <time>2025-05-17T06:51:24Z</time>
      </trkpt>
      <trkpt lat="43.690614039078355" lon="4.6068150177598">
        <ele>5.91</ele>
        <time>2025-05-17T06:51:26Z</time>
      </trkpt>
      <trkpt lat="43.690579002723098" lon="4.606685014441609">
        <ele>5.91</ele>
        <time>2025-05-17T06:51:27Z</time>
      </trkpt>
      <trkpt lat="43.690577996894717" lon="4.606378991156817">
        <ele>5.42</ele>
        <time>2025-05-17T06:51:29Z</time>
      </trkpt>
      <trkpt lat="43.690584031865001" lon="4.606226021423936">
        <ele>5.42</ele>
        <time>2025-05-17T06:51:30Z</time>
      </trkpt>
      <trkpt lat="43.690579002723098" lon="4.605916980654001">
        <ele>4.94</ele>
        <time>2025-05-17T06:51:32Z</time>
      </trkpt>
      <trkpt lat="43.690571961924434" lon="4.605764010921121">
        <ele>5.42</ele>
        <time>2025-05-17T06:51:33Z</time>
      </trkpt>
      <trkpt lat="43.690565004944801" lon="4.605625960975885">
        <ele>5.42</ele>
        <time>2025-05-17T06:51:34Z</time>
      </trkpt>
      <trkpt lat="43.690552012994885" lon="4.605381041765213">
        <ele>6.39</ele>
        <time>2025-05-17T06:51:36Z</time>
      </trkpt>
      <trkpt lat="43.690545978024602" lon="4.605132015421987">
        <ele>6.87</ele>
        <time>2025-05-17T06:51:38Z</time>
      </trkpt>
      <trkpt lat="43.690545978024602" lon="4.605023972690105">
        <ele>7.35</ele>
        <time>2025-05-17T06:51:39Z</time>
      </trkpt>
      <trkpt lat="43.69058302603662" lon="4.604875026270747">
        <ele>7.35</ele>
        <time>2025-05-17T06:51:40Z</time>
      </trkpt>
      <trkpt lat="43.690631976351142" lon="4.604837978258729">
        <ele>7.35</ele>
        <time>2025-05-17T06:51:41Z</time>
      </trkpt>
      <trkpt lat="43.690729038789868" lon="4.60466698743403">
        <ele>7.35</ele>
        <time>2025-05-17T06:51:42Z</time>
      </trkpt>
      <trkpt lat="43.69084001518786" lon="4.604637986049056">
        <ele>7.83</ele>
        <time>2025-05-17T06:51:43Z</time>
      </trkpt>
      <trkpt lat="43.69096901267767" lon="4.604603033512831">
        <ele>7.83</ele>
        <time>2025-05-17T06:51:44Z</time>
      </trkpt>
      <trkpt lat="43.691105972975492" lon="4.604565985500813">
        <ele>7.83</ele>
        <time>2025-05-17T06:51:45Z</time>
      </trkpt>
      <trkpt lat="43.692365018650889" lon="4.604049995541573">
        <ele>9.27</ele>
        <time>2025-05-17T06:51:53Z</time>
      </trkpt>
      <trkpt lat="43.693302031606436" lon="4.603003012016416">
        <ele>9.75</ele>
        <time>2025-05-17T06:52:00Z</time>
      </trkpt>
      <trkpt lat="43.693809974938631" lon="4.601481026038528">
        <ele>8.310000000000001</ele>
        <time>2025-05-17T06:52:07Z</time>
      </trkpt>
      <trkpt lat="43.694036034867167" lon="4.599555032327771">
        <ele>8.310000000000001</ele>
        <time>2025-05-17T06:52:15Z</time>
      </trkpt>
      <trkpt lat="43.694080961868167" lon="4.599154964089394">
        <ele>8.789999999999999</ele>
        <time>2025-05-17T06:52:17Z</time>
      </trkpt>
      <trkpt lat="43.694096971303225" lon="4.599011968821287">
        <ele>8.789999999999999</ele>
        <time>2025-05-17T06:52:18Z</time>
      </trkpt>
      <trkpt lat="43.694207025691867" lon="4.598876014351845">
        <ele>8.789999999999999</ele>
        <time>2025-05-17T06:52:19Z</time>
      </trkpt>
      <trkpt lat="43.694299980998039" lon="4.598838966339827">
        <ele>8.789999999999999</ele>
        <time>2025-05-17T06:52:20Z</time>
      </trkpt>
      <trkpt lat="43.694323031231761" lon="4.598829997703433">
        <ele>8.789999999999999</ele>
        <time>2025-05-17T06:52:21Z</time>
      </trkpt>
      <trkpt lat="43.694524029269814" lon="4.598681973293424">
        <ele>8.789999999999999</ele>
        <time>2025-05-17T06:52:22Z</time>
      </trkpt>
      <trkpt lat="43.694633999839425" lon="4.598734024912119">
        <ele>8.789999999999999</ele>
        <time>2025-05-17T06:52:23Z</time>
      </trkpt>
      <trkpt lat="43.694760985672474" lon="4.598794039338827">
        <ele>8.789999999999999</ele>
        <time>2025-05-17T06:52:24Z</time>
      </trkpt>
      <trkpt lat="43.694898029789329" lon="4.598860004916787">
        <ele>8.789999999999999</ele>
        <time>2025-05-17T06:52:25Z</time>
      </trkpt>
      <trkpt lat="43.696237960830331" lon="4.599509015679359">
        <ele>8.310000000000001</ele>
        <time>2025-05-17T06:52:33Z</time>
      </trkpt>
      <trkpt lat="43.698330000042915" lon="4.60045600309968">
        <ele>7.83</ele>
        <time>2025-05-17T06:52:45Z</time>
      </trkpt>
      <trkpt lat="43.698591012507677" lon="4.600600004196167">
        <ele>7.83</ele>
        <time>2025-05-17T06:52:47Z</time>
      </trkpt>
      <trkpt lat="43.698691008612514" lon="4.600677033886313">
        <ele>7.35</ele>
        <time>2025-05-17T06:52:48Z</time>
      </trkpt>
      <trkpt lat="43.698757980018854" lon="4.600810976698995">
        <ele>7.35</ele>
        <time>2025-05-17T06:52:49Z</time>
      </trkpt>
      <trkpt lat="43.69879100471735" lon="4.600978028029203">
        <ele>7.35</ele>
        <time>2025-05-17T06:52:50Z</time>
      </trkpt>
      <trkpt lat="43.698869040235877" lon="4.601022033020854">
        <ele>7.35</ele>
        <time>2025-05-17T06:52:51Z</time>
      </trkpt>
      <trkpt lat="43.698950009420514" lon="4.601066038012505">
        <ele>7.35</ele>
        <time>2025-05-17T06:52:52Z</time>
      </trkpt>
      <trkpt lat="43.699059979990125" lon="4.601055979728699">
        <ele>6.87</ele>
        <time>2025-05-17T06:52:53Z</time>
      </trkpt>
      <trkpt lat="43.699108008295298" lon="4.601039970293641">
        <ele>7.35</ele>
        <time>2025-05-17T06:52:54Z</time>
      </trkpt>
      <trkpt lat="43.699302971363068" lon="4.600871996954083">
        <ele>7.35</ele>
        <time>2025-05-17T06:52:55Z</time>
      </trkpt>
      <trkpt lat="43.699436997994781" lon="4.600919019430876">
        <ele>7.35</ele>
        <time>2025-05-17T06:52:56Z</time>
      </trkpt>
      <trkpt lat="43.699588039889932" lon="4.600965036079288">
        <ele>7.35</ele>
        <time>2025-05-17T06:52:57Z</time>
      </trkpt>
      <trkpt lat="43.701136009767652" lon="4.601286984980106">
        <ele>8.310000000000001</ele>
        <time>2025-05-17T06:53:05Z</time>
      </trkpt>
      <trkpt lat="43.704049978405237" lon="4.601992992684245">
        <ele>9.27</ele>
        <time>2025-05-17T06:53:19Z</time>
      </trkpt>
      <trkpt lat="43.705051029101014" lon="4.602757003158331">
        <ele>11.19</ele>
        <time>2025-05-17T06:53:25Z</time>
      </trkpt>
      <trkpt lat="43.705179020762444" lon="4.602941991761327">
        <ele>11.67</ele>
        <time>2025-05-17T06:53:26Z</time>
      </trkpt>
      <trkpt lat="43.705303994938731" lon="4.603122035041452">
        <ele>11.67</ele>
        <time>2025-05-17T06:53:27Z</time>
      </trkpt>
      <trkpt lat="43.70646002702415" lon="4.605175014585257">
        <ele>9.27</ele>
        <time>2025-05-17T06:53:37Z</time>
      </trkpt>
      <trkpt lat="43.707239041104913" lon="4.606551993638277">
        <ele>8.310000000000001</ele>
        <time>2025-05-17T06:53:45Z</time>
      </trkpt>
      <trkpt lat="43.707483960315585" lon="4.607084998860955">
        <ele>8.789999999999999</ele>
        <time>2025-05-17T06:53:49Z</time>
      </trkpt>
      <trkpt lat="43.707531988620758" lon="4.607180971652269">
        <ele>8.789999999999999</ele>
        <time>2025-05-17T06:53:50Z</time>
      </trkpt>
      <trkpt lat="43.707633996382356" lon="4.607228999957442">
        <ele>8.789999999999999</ele>
        <time>2025-05-17T06:53:51Z</time>
      </trkpt>
      <trkpt lat="43.707669032737613" lon="4.607240986078978">
        <ele>8.789999999999999</ele>
        <time>2025-05-17T06:53:52Z</time>
      </trkpt>
      <trkpt lat="43.707851003855467" lon="4.607129003852606">
        <ele>8.310000000000001</ele>
        <time>2025-05-17T06:53:53Z</time>
      </trkpt>
      <trkpt lat="43.707947982475162" lon="4.607179965823889">
        <ele>8.310000000000001</ele>
        <time>2025-05-17T06:53:54Z</time>
      </trkpt>
      <trkpt lat="43.70805200189352" lon="4.607235034927726">
        <ele>7.83</ele>
        <time>2025-05-17T06:53:55Z</time>
      </trkpt>
      <trkpt lat="43.709210967645049" lon="4.607389010488987">
        <ele>8.310000000000001</ele>
        <time>2025-05-17T06:54:04Z</time>
      </trkpt>
      <trkpt lat="43.710506977513433" lon="4.607020961120725">
        <ele>9.27</ele>
        <time>2025-05-17T06:54:11Z</time>
      </trkpt>
      <trkpt lat="43.712514024227858" lon="4.606457026675344">
        <ele>9.75</ele>
        <time>2025-05-17T06:54:20Z</time>
      </trkpt>
      <trkpt lat="43.714224016293883" lon="4.606392988935113">
        <ele>10.710000000000001</ele>
        <time>2025-05-17T06:54:28Z</time>
      </trkpt>
      <trkpt lat="43.716082032769918" lon="4.606372034177184">
        <ele>10.23</ele>
        <time>2025-05-17T06:54:37Z</time>
      </trkpt>
      <trkpt lat="43.718760972842574" lon="4.606114961206913">
        <ele>9.27</ele>
        <time>2025-05-17T06:54:50Z</time>
      </trkpt>
      <trkpt lat="43.721470003947616" lon="4.605941958725452">
        <ele>9.27</ele>
        <time>2025-05-17T06:55:03Z</time>
      </trkpt>
      <trkpt lat="43.722636010497808" lon="4.606479993090034">
        <ele>8.789999999999999</ele>
        <time>2025-05-17T06:55:09Z</time>
      </trkpt>
      <trkpt lat="43.723183013498783" lon="4.606812000274658">
        <ele>8.310000000000001</ele>
        <time>2025-05-17T06:55:12Z</time>
      </trkpt>
      <trkpt lat="43.723373031243682" lon="4.606865979731083">
        <ele>8.310000000000001</ele>
        <time>2025-05-17T06:55:13Z</time>
      </trkpt>
      <trkpt lat="43.723560031503439" lon="4.606919959187508">
        <ele>7.83</ele>
        <time>2025-05-17T06:55:14Z</time>
      </trkpt>
      <trkpt lat="43.723750971257687" lon="4.606940997764468">
        <ele>7.35</ele>
        <time>2025-05-17T06:55:15Z</time>
      </trkpt>
      <trkpt lat="43.723945012316108" lon="4.606954995542765">
        <ele>7.35</ele>
        <time>2025-05-17T06:55:16Z</time>
      </trkpt>
      <trkpt lat="43.725488958880305" lon="4.607158005237579">
        <ele>9.27</ele>
        <time>2025-05-17T06:55:24Z</time>
      </trkpt>
      <trkpt lat="43.729254025965929" lon="4.608571026474237">
        <ele>11.19</ele>
        <time>2025-05-17T06:55:43Z</time>
      </trkpt>
      <trkpt lat="43.731359979137778" lon="4.609249038621783">
        <ele>12.15</ele>
        <time>2025-05-17T06:55:54Z</time>
      </trkpt>
      <trkpt lat="43.734031040221453" lon="4.610314965248108">
        <ele>10.710000000000001</ele>
        <time>2025-05-17T06:56:08Z</time>
      </trkpt>
      <trkpt lat="43.736121989786625" lon="4.611245021224022">
        <ele>11.19</ele>
        <time>2025-05-17T06:56:19Z</time>
      </trkpt>
      <trkpt lat="43.736312007531524" lon="4.611300006508827">
        <ele>10.23</ele>
        <time>2025-05-17T06:56:20Z</time>
      </trkpt>
      <trkpt lat="43.738287035375834" lon="4.611443001776934">
        <ele>8.789999999999999</ele>
        <time>2025-05-17T06:56:30Z</time>
      </trkpt>
      <trkpt lat="43.739881021901965" lon="4.611382987350225">
        <ele>9.27</ele>
        <time>2025-05-17T06:56:38Z</time>
      </trkpt>
      <trkpt lat="43.740080008283257" lon="4.611407965421677">
        <ele>9.75</ele>
        <time>2025-05-17T06:56:39Z</time>
      </trkpt>
      <trkpt lat="43.741829982027411" lon="4.611977012827992">
        <ele>9.75</ele>
        <time>2025-05-17T06:56:48Z</time>
      </trkpt>
      <trkpt lat="43.744921982288361" lon="4.613103959709406">
        <ele>9.75</ele>
        <time>2025-05-17T06:57:04Z</time>
      </trkpt>
      <trkpt lat="43.746500965207815" lon="4.613114017993212">
        <ele>10.710000000000001</ele>
        <time>2025-05-17T06:57:12Z</time>
      </trkpt>
      <trkpt lat="43.750066962093115" lon="4.61255100555718">
        <ele>9.75</ele>
        <time>2025-05-17T06:57:30Z</time>
      </trkpt>
      <trkpt lat="43.751776032149792" lon="4.611892020329833">
        <ele>8.310000000000001</ele>
        <time>2025-05-17T06:57:39Z</time>
      </trkpt>
      <trkpt lat="43.753361972048879" lon="4.611717006191611">
        <ele>8.310000000000001</ele>
        <time>2025-05-17T06:57:47Z</time>
      </trkpt>
      <trkpt lat="43.754671979695559" lon="4.612342966720462">
        <ele>8.310000000000001</ele>
        <time>2025-05-17T06:57:54Z</time>
      </trkpt>
      <trkpt lat="43.755916021764278" lon="4.613707037642598">
        <ele>9.27</ele>
        <time>2025-05-17T06:58:02Z</time>
      </trkpt>
      <trkpt lat="43.75692998059094" lon="4.614564003422856">
        <ele>8.789999999999999</ele>
        <time>2025-05-17T06:58:08Z</time>
      </trkpt>
      <trkpt lat="43.759330976754427" lon="4.615941988304257">
        <ele>7.35</ele>
        <time>2025-05-17T06:58:21Z</time>
      </trkpt>
      <trkpt lat="43.761457968503237" lon="4.616716979071498">
        <ele>8.789999999999999</ele>
        <time>2025-05-17T06:58:32Z</time>
      </trkpt>
      <trkpt lat="43.764561032876372" lon="4.617775026708841">
        <ele>9.27</ele>
        <time>2025-05-17T06:58:48Z</time>
      </trkpt>
      <trkpt lat="43.766069021075964" lon="4.618496038019657">
        <ele>9.27</ele>
        <time>2025-05-17T06:58:56Z</time>
      </trkpt>
      <trkpt lat="43.768629021942616" lon="4.620009977370501">
        <ele>7.35</ele>
        <time>2025-05-17T06:59:10Z</time>
      </trkpt>
      <trkpt lat="43.770195012912154" lon="4.620413985103369">
        <ele>7.83</ele>
        <time>2025-05-17T06:59:18Z</time>
      </trkpt>
      <trkpt lat="43.772751996293664" lon="4.621117981150746">
        <ele>8.789999999999999</ele>
        <time>2025-05-17T06:59:31Z</time>
      </trkpt>
      <trkpt lat="43.774538012221456" lon="4.621335994452238">
        <ele>8.310000000000001</ele>
        <time>2025-05-17T06:59:40Z</time>
      </trkpt>
      <trkpt lat="43.77671898342669" lon="4.621557025238872">
        <ele>8.789999999999999</ele>
        <time>2025-05-17T06:59:51Z</time>
      </trkpt>
      <trkpt lat="43.778462000191212" lon="4.622164964675903">
        <ele>9.27</ele>
        <time>2025-05-17T07:00:00Z</time>
      </trkpt>
      <trkpt lat="43.780338959768414" lon="4.623688962310553">
        <ele>10.23</ele>
        <time>2025-05-17T07:00:11Z</time>
      </trkpt>
      <trkpt lat="43.782843975350261" lon="4.625480007380247">
        <ele>12.15</ele>
        <time>2025-05-17T07:00:25Z</time>
      </trkpt>
      <trkpt lat="43.784417007118464" lon="4.626632016152144">
        <ele>13.6</ele>
        <time>2025-05-17T07:00:34Z</time>
      </trkpt>
      <trkpt lat="43.785615032538772" lon="4.62739703245461">
        <ele>14.56</ele>
        <time>2025-05-17T07:00:42Z</time>
      </trkpt>
      <trkpt lat="43.786964016035199" lon="4.627669025212526">
        <ele>13.119999999999999</ele>
        <time>2025-05-17T07:00:51Z</time>
      </trkpt>
      <trkpt lat="43.78883502446115" lon="4.627501973882318">
        <ele>11.19</ele>
        <time>2025-05-17T07:01:02Z</time>
      </trkpt>
      <trkpt lat="43.790590027347207" lon="4.627964990213513">
        <ele>10.710000000000001</ele>
        <time>2025-05-17T07:01:11Z</time>
      </trkpt>
      <trkpt lat="43.791383961215615" lon="4.628419037908316">
        <ele>10.23</ele>
        <time>2025-05-17T07:01:16Z</time>
      </trkpt>
      <trkpt lat="43.791508013382554" lon="4.628534037619829">
        <ele>10.23</ele>
        <time>2025-05-17T07:01:17Z</time>
      </trkpt>
      <trkpt lat="43.791621001437306" lon="4.628668986260891">
        <ele>10.23</ele>
        <time>2025-05-17T07:01:18Z</time>
      </trkpt>
      <trkpt lat="43.791729966178536" lon="4.628813993185759">
        <ele>10.23</ele>
        <time>2025-05-17T07:01:19Z</time>
      </trkpt>
      <trkpt lat="43.791840020567179" lon="4.628960005939007">
        <ele>10.23</ele>
        <time>2025-05-17T07:01:20Z</time>
      </trkpt>
      <trkpt lat="43.792428011074662" lon="4.629820995032787">
        <ele>9.27</ele>
        <time>2025-05-17T07:01:27Z</time>
      </trkpt>
      <trkpt lat="43.79249095916748" lon="4.629983017221093">
        <ele>9.27</ele>
        <time>2025-05-17T07:01:28Z</time>
      </trkpt>
      <trkpt lat="43.792513003572822" lon="4.630307983607054">
        <ele>8.789999999999999</ele>
        <time>2025-05-17T07:01:30Z</time>
      </trkpt>
      <trkpt lat="43.792586009949446" lon="4.630423989146948">
        <ele>8.310000000000001</ele>
        <time>2025-05-17T07:01:31Z</time>
      </trkpt>
      <trkpt lat="43.792708972468972" lon="4.630501018837094">
        <ele>8.310000000000001</ele>
        <time>2025-05-17T07:01:32Z</time>
      </trkpt>
      <trkpt lat="43.792816009372473" lon="4.630501018837094">
        <ele>8.310000000000001</ele>
        <time>2025-05-17T07:01:33Z</time>
      </trkpt>
      <trkpt lat="43.79291801713407" lon="4.630434969440103">
        <ele>8.310000000000001</ele>
        <time>2025-05-17T07:01:34Z</time>
      </trkpt>
      <trkpt lat="43.793016001582146" lon="4.630357017740607">
        <ele>7.83</ele>
        <time>2025-05-17T07:01:35Z</time>
      </trkpt>
      <trkpt lat="43.79317601211369" lon="4.630369003862143">
        <ele>8.310000000000001</ele>
        <time>2025-05-17T07:01:36Z</time>
      </trkpt>
      <trkpt lat="43.79332797601819" lon="4.630415020510554">
        <ele>8.310000000000001</ele>
        <time>2025-05-17T07:01:37Z</time>
      </trkpt>
      <trkpt lat="43.794721970334649" lon="4.630374033004046">
        <ele>9.75</ele>
        <time>2025-05-17T07:01:46Z</time>
      </trkpt>
      <trkpt lat="43.796627009287477" lon="4.630783991888166">
        <ele>8.310000000000001</ele>
        <time>2025-05-17T07:01:57Z</time>
      </trkpt>
      <trkpt lat="43.798257037997246" lon="4.63113896548748">
        <ele>6.39</ele>
        <time>2025-05-17T07:02:07Z</time>
      </trkpt>
      <trkpt lat="43.79923302680254" lon="4.631366031244397">
        <ele>6.39</ele>
        <time>2025-05-17T07:02:15Z</time>
      </trkpt>
      <trkpt lat="43.799331011250615" lon="4.631401989609003">
        <ele>6.39</ele>
        <time>2025-05-17T07:02:16Z</time>
      </trkpt>
      <trkpt lat="43.799423966556787" lon="4.631455969065428">
        <ele>6.39</ele>
        <time>2025-05-17T07:02:17Z</time>
      </trkpt>
      <trkpt lat="43.799517005681992" lon="4.631510032340884">
        <ele>6.39</ele>
        <time>2025-05-17T07:02:18Z</time>
      </trkpt>
      <trkpt lat="43.799700988456607" lon="4.631616985425353">
        <ele>6.39</ele>
        <time>2025-05-17T07:02:20Z</time>
      </trkpt>
      <trkpt lat="43.800488971173763" lon="4.63236004114151">
        <ele>7.35</ele>
        <time>2025-05-17T07:02:30Z</time>
      </trkpt>
      <trkpt lat="43.801375022158027" lon="4.633203009143472">
        <ele>6.87</ele>
        <time>2025-05-17T07:02:42Z</time>
      </trkpt>
      <trkpt lat="43.801796967163682" lon="4.633608022704721">
        <ele>7.35</ele>
        <time>2025-05-17T07:02:48Z</time>
      </trkpt>
      <trkpt lat="43.802658040076494" lon="4.634465994313359">
        <ele>8.310000000000001</ele>
        <time>2025-05-17T07:03:00Z</time>
      </trkpt>
      <trkpt lat="43.802724005654454" lon="4.634547969326377">
        <ele>8.310000000000001</ele>
        <time>2025-05-17T07:03:01Z</time>
      </trkpt>
      <trkpt lat="43.802788965404034" lon="4.634629022330046">
        <ele>8.789999999999999</ele>
        <time>2025-05-17T07:03:02Z</time>
      </trkpt>
      <trkpt lat="43.803044026717544" lon="4.634946025907993">
        <ele>8.789999999999999</ele>
        <time>2025-05-17T07:03:06Z</time>
      </trkpt>
      <trkpt lat="43.803104963153601" lon="4.635017020627856">
        <ele>8.789999999999999</ele>
        <time>2025-05-17T07:03:07Z</time>
      </trkpt>
      <trkpt lat="43.803202025592327" lon="4.63513202033937">
        <ele>8.789999999999999</ele>
        <time>2025-05-17T07:03:09Z</time>
      </trkpt>
      <trkpt lat="43.803242007270455" lon="4.63517895899713">
        <ele>8.789999999999999</ele>
        <time>2025-05-17T07:03:10Z</time>
      </trkpt>
      <trkpt lat="43.803420038893819" lon="4.635318014770746">
        <ele>9.27</ele>
        <time>2025-05-17T07:03:20Z</time>
      </trkpt>
      <trkpt lat="43.803464965894818" lon="4.635351961478591">
        <ele>9.27</ele>
        <time>2025-05-17T07:04:02Z</time>
      </trkpt>
      <trkpt lat="43.803684990853071" lon="4.635468972846866">
        <ele>8.310000000000001</ele>
        <time>2025-05-17T07:04:06Z</time>
      </trkpt>
      <trkpt lat="43.803824968636036" lon="4.635548014193773">
        <ele>8.310000000000001</ele>
        <time>2025-05-17T07:04:08Z</time>
      </trkpt>
      <trkpt lat="43.803881965577602" lon="4.63560501113534">
        <ele>8.310000000000001</ele>
        <time>2025-05-17T07:04:09Z</time>
      </trkpt>
      <trkpt lat="43.803937034681439" lon="4.635658990591765">
        <ele>8.789999999999999</ele>
        <time>2025-05-17T07:04:10Z</time>
      </trkpt>
      <trkpt lat="43.803994031623006" lon="4.635722022503614">
        <ele>9.27</ele>
        <time>2025-05-17T07:04:11Z</time>
      </trkpt>
      <trkpt lat="43.804053040221334" lon="4.635787988081574">
        <ele>9.27</ele>
        <time>2025-05-17T07:04:12Z</time>
      </trkpt>
      <trkpt lat="43.804113976657391" lon="4.635856971144676">
        <ele>9.75</ele>
        <time>2025-05-17T07:04:13Z</time>
      </trkpt>
      <trkpt lat="43.804177008569241" lon="4.635927965864539">
        <ele>9.75</ele>
        <time>2025-05-17T07:04:14Z</time>
      </trkpt>
      <trkpt lat="43.80423903465271" lon="4.635998038575053">
        <ele>9.75</ele>
        <time>2025-05-17T07:04:15Z</time>
      </trkpt>
      <trkpt lat="43.804298965260386" lon="4.636064004153013">
        <ele>9.75</ele>
        <time>2025-05-17T07:04:16Z</time>
      </trkpt>
      <trkpt lat="43.804840017110109" lon="4.636613018810749">
        <ele>9.27</ele>
        <time>2025-05-17T07:04:24Z</time>
      </trkpt>
      <trkpt lat="43.804896008223295" lon="4.636707985773683">
        <ele>9.27</ele>
        <time>2025-05-17T07:04:25Z</time>
      </trkpt>
      <trkpt lat="43.804943030700088" lon="4.636806976050139">
        <ele>9.27</ele>
        <time>2025-05-17T07:04:26Z</time>
      </trkpt>
      <trkpt lat="43.804990975186229" lon="4.636905966326594">
        <ele>9.27</ele>
        <time>2025-05-17T07:04:27Z</time>
      </trkpt>
      <trkpt lat="43.805040009319782" lon="4.637006968259811">
        <ele>9.27</ele>
        <time>2025-05-17T07:04:28Z</time>
      </trkpt>
      <trkpt lat="43.805089965462685" lon="4.63711098767817">
        <ele>9.27</ele>
        <time>2025-05-17T07:04:29Z</time>
      </trkpt>
      <trkpt lat="43.805138999596238" lon="4.637212995439768">
        <ele>9.27</ele>
        <time>2025-05-17T07:04:30Z</time>
      </trkpt>
      <trkpt lat="43.805188033729792" lon="4.637315003201366">
        <ele>9.27</ele>
        <time>2025-05-17T07:04:31Z</time>
      </trkpt>
      <trkpt lat="43.805237989872694" lon="4.637420028448105">
        <ele>9.27</ele>
        <time>2025-05-17T07:04:32Z</time>
      </trkpt>
      <trkpt lat="43.805518029257655" lon="4.637982035055757">
        <ele>9.75</ele>
        <time>2025-05-17T07:04:38Z</time>
      </trkpt>
      <trkpt lat="43.805557005107403" lon="4.638025034219027">
        <ele>9.75</ele>
        <time>2025-05-17T07:04:39Z</time>
      </trkpt>
      <trkpt lat="43.805605033412576" lon="4.638057975098491">
        <ele>10.23</ele>
        <time>2025-05-17T07:04:40Z</time>
      </trkpt>
      <trkpt lat="43.805652977898717" lon="4.638090999796987">
        <ele>10.23</ele>
        <time>2025-05-17T07:04:41Z</time>
      </trkpt>
      <trkpt lat="43.805697988718748" lon="4.638122012838721">
        <ele>10.710000000000001</ele>
        <time>2025-05-17T07:04:42Z</time>
      </trkpt>
      <trkpt lat="43.805740987882018" lon="4.638152020052075">
        <ele>10.710000000000001</ele>
        <time>2025-05-17T07:04:43Z</time>
      </trkpt>
      <trkpt lat="43.805797984823585" lon="4.638190995901823">
        <ele>11.19</ele>
        <time>2025-05-17T07:04:44Z</time>
      </trkpt>
      <trkpt lat="43.805854981765151" lon="4.638299960643053">
        <ele>11.19</ele>
        <time>2025-05-17T07:04:45Z</time>
      </trkpt>
      <trkpt lat="43.805860010907054" lon="4.63831203058362">
        <ele>11.67</ele>
        <time>2025-05-17T07:04:46Z</time>
      </trkpt>
      <trkpt lat="43.805914996191859" lon="4.6384840272367">
        <ele>12.15</ele>
        <time>2025-05-17T07:04:47Z</time>
      </trkpt>
      <trkpt lat="43.805908961221576" lon="4.63857002556324">
        <ele>12.15</ele>
        <time>2025-05-17T07:04:48Z</time>
      </trkpt>
      <trkpt lat="43.805904015898705" lon="4.638650994747877">
        <ele>12.15</ele>
        <time>2025-05-17T07:04:49Z</time>
      </trkpt>
      <trkpt lat="43.805899992585182" lon="4.638722995296121">
        <ele>12.15</ele>
        <time>2025-05-17T07:04:50Z</time>
      </trkpt>
      <trkpt lat="43.80589596927166" lon="4.638788960874081">
        <ele>12.15</ele>
        <time>2025-05-17T07:04:51Z</time>
      </trkpt>
      <trkpt lat="43.805837966501713" lon="4.639253988862038">
        <ele>10.710000000000001</ele>
        <time>2025-05-17T07:05:02Z</time>
      </trkpt>
      <trkpt lat="43.805747022852302" lon="4.639868969097734">
        <ele>10.23</ele>
        <time>2025-05-17T07:05:15Z</time>
      </trkpt>
      <trkpt lat="43.805650966241956" lon="4.640522003173828">
        <ele>8.789999999999999</ele>
        <time>2025-05-17T07:05:25Z</time>
      </trkpt>
      <trkpt lat="43.80563797429204" lon="4.640612024813891">
        <ele>8.789999999999999</ele>
        <time>2025-05-17T07:05:26Z</time>
      </trkpt>
      <trkpt lat="43.805623976513743" lon="4.640709003433585">
        <ele>8.789999999999999</ele>
        <time>2025-05-17T07:05:27Z</time>
      </trkpt>
      <trkpt lat="43.805609978735447" lon="4.640810005366802">
        <ele>8.789999999999999</ele>
        <time>2025-05-17T07:05:28Z</time>
      </trkpt>
      <trkpt lat="43.80559598095715" lon="4.640906983986497">
        <ele>8.310000000000001</ele>
        <time>2025-05-17T07:05:29Z</time>
      </trkpt>
      <trkpt lat="43.805580977350473" lon="4.641009997576475">
        <ele>8.310000000000001</ele>
        <time>2025-05-17T07:05:30Z</time>
      </trkpt>
      <trkpt lat="43.805550970137119" lon="4.641220970079303">
        <ele>8.310000000000001</ele>
        <time>2025-05-17T07:05:32Z</time>
      </trkpt>
      <trkpt lat="43.805536972358823" lon="4.641320966184139">
        <ele>8.310000000000001</ele>
        <time>2025-05-17T07:05:33Z</time>
      </trkpt>
      <trkpt lat="43.805454997345805" lon="4.641892025247216">
        <ele>9.27</ele>
        <time>2025-05-17T07:05:39Z</time>
      </trkpt>
      <trkpt lat="43.805344020947814" lon="4.642685959115624">
        <ele>7.35</ele>
        <time>2025-05-17T07:05:47Z</time>
      </trkpt>
      <trkpt lat="43.805331028997898" lon="4.642778998240829">
        <ele>6.87</ele>
        <time>2025-05-17T07:05:48Z</time>
      </trkpt>
      <trkpt lat="43.805318037047982" lon="4.64286801405251">
        <ele>6.39</ele>
        <time>2025-05-17T07:05:49Z</time>
      </trkpt>
      <trkpt lat="43.805306972935796" lon="4.642950994893909">
        <ele>6.39</ele>
        <time>2025-05-17T07:05:50Z</time>
      </trkpt>
      <trkpt lat="43.80529398098588" lon="4.64304001070559">
        <ele>5.91</ele>
        <time>2025-05-17T07:05:51Z</time>
      </trkpt>
      <trkpt lat="43.805179987102747" lon="4.643804021179676">
        <ele>4.46</ele>
        <time>2025-05-17T07:05:59Z</time>
      </trkpt>
      <trkpt lat="43.805168000981212" lon="4.643902005627751">
        <ele>4.46</ele>
        <time>2025-05-17T07:06:00Z</time>
      </trkpt>
      <trkpt lat="43.805051995441318" lon="4.644832983613014">
        <ele>3.98</ele>
        <time>2025-05-17T07:06:09Z</time>
      </trkpt>
      <trkpt lat="43.805034980177879" lon="4.64493096806109">
        <ele>4.46</ele>
        <time>2025-05-17T07:06:10Z</time>
      </trkpt>
      <trkpt lat="43.805018970742822" lon="4.645029958337545">
        <ele>3.98</ele>
        <time>2025-05-17T07:06:11Z</time>
      </trkpt>
      <trkpt lat="43.805001033470035" lon="4.645134983584285">
        <ele>4.46</ele>
        <time>2025-05-17T07:06:12Z</time>
      </trkpt>
      <trkpt lat="43.804960967972875" lon="4.645202038809657">
        <ele>4.46</ele>
        <time>2025-05-17T07:06:13Z</time>
      </trkpt>
      <trkpt lat="43.804889973253012" lon="4.645260041579604">
        <ele>4.46</ele>
        <time>2025-05-17T07:06:14Z</time>
      </trkpt>
      <trkpt lat="43.804814033210278" lon="4.645288037136197">
        <ele>4.94</ele>
        <time>2025-05-17T07:06:15Z</time>
      </trkpt>
      <trkpt lat="43.804732980206609" lon="4.645317038521171">
        <ele>4.94</ele>
        <time>2025-05-17T07:06:16Z</time>
      </trkpt>
      <trkpt lat="43.804679000750184" lon="4.645366994664073">
        <ele>4.94</ele>
        <time>2025-05-17T07:06:17Z</time>
      </trkpt>
      <trkpt lat="43.804636001586914" lon="4.645442012697458">
        <ele>4.94</ele>
        <time>2025-05-17T07:06:18Z</time>
      </trkpt>
      <trkpt lat="43.804614963009953" lon="4.645502027124167">
        <ele>4.46</ele>
        <time>2025-05-17T07:06:19Z</time>
      </trkpt>
      <trkpt lat="43.804618986323476" lon="4.645591964945197">
        <ele>4.46</ele>
        <time>2025-05-17T07:06:20Z</time>
      </trkpt>
      <trkpt lat="43.804633989930153" lon="4.645687015727162">
        <ele>4.46</ele>
        <time>2025-05-17T07:06:21Z</time>
      </trkpt>
      <trkpt lat="43.804649999365211" lon="4.64578902348876">
        <ele>4.46</ele>
        <time>2025-05-17T07:06:22Z</time>
      </trkpt>
      <trkpt lat="43.80466902628541" lon="4.645892037078738">
        <ele>3.98</ele>
        <time>2025-05-17T07:06:23Z</time>
      </trkpt>
      <trkpt lat="43.8046919927001" lon="4.645997984334827">
        <ele>3.98</ele>
        <time>2025-05-17T07:06:24Z</time>
      </trkpt>
      <trkpt lat="43.804721999913454" lon="4.646100997924805">
        <ele>3.5</ele>
        <time>2025-05-17T07:06:25Z</time>
      </trkpt>
      <trkpt lat="43.80475795827806" lon="4.646212980151177">
        <ele>3.5</ele>
        <time>2025-05-17T07:06:26Z</time>
      </trkpt>
      <trkpt lat="43.804794000461698" lon="4.646324962377548">
        <ele>3.02</ele>
        <time>2025-05-17T07:06:27Z</time>
      </trkpt>
      <trkpt lat="43.804831970483065" lon="4.646442979574204">
        <ele>2.54</ele>
        <time>2025-05-17T07:06:28Z</time>
      </trkpt>
      <trkpt lat="43.804870024323463" lon="4.646560996770859">
        <ele>2.54</ele>
        <time>2025-05-17T07:06:29Z</time>
      </trkpt>
      <trkpt lat="43.804916040971875" lon="4.646707009524107">
        <ele>3.02</ele>
        <time>2025-05-17T07:06:30Z</time>
      </trkpt>
      <trkpt lat="43.804930038750172" lon="4.64684396982193">
        <ele>3.5</ele>
        <time>2025-05-17T07:06:31Z</time>
      </trkpt>
      <trkpt lat="43.804973959922791" lon="4.647264992818236">
        <ele>5.42</ele>
        <time>2025-05-17T07:06:34Z</time>
      </trkpt>
      <trkpt lat="43.804950993508101" lon="4.647436989471316">
        <ele>6.39</ele>
        <time>2025-05-17T07:06:35Z</time>
      </trkpt>
      <trkpt lat="43.804914029315114" lon="4.647579984739423">
        <ele>7.35</ele>
        <time>2025-05-17T07:06:36Z</time>
      </trkpt>
      <trkpt lat="43.804658968001604" lon="4.649203978478909">
        <ele>15.52</ele>
        <time>2025-05-17T07:06:46Z</time>
      </trkpt>
      <trkpt lat="43.804673971608281" lon="4.65131001546979">
        <ele>19.84</ele>
        <time>2025-05-17T07:06:58Z</time>
      </trkpt>
      <trkpt lat="43.804700961336493" lon="4.653783012181521">
        <ele>17.440000000000001</ele>
        <time>2025-05-17T07:07:11Z</time>
      </trkpt>
      <trkpt lat="43.804700961336493" lon="4.654339989647269">
        <ele>15.52</ele>
        <time>2025-05-17T07:07:15Z</time>
      </trkpt>
      <trkpt lat="43.804749995470047" lon="4.654439985752106">
        <ele>15.039999999999999</ele>
        <time>2025-05-17T07:07:16Z</time>
      </trkpt>
      <trkpt lat="43.804801963269711" lon="4.654503017663956">
        <ele>14.56</ele>
        <time>2025-05-17T07:07:17Z</time>
      </trkpt>
      <trkpt lat="43.804866001009941" lon="4.654562026262283">
        <ele>14.56</ele>
        <time>2025-05-17T07:07:18Z</time>
      </trkpt>
      <trkpt lat="43.804933978244662" lon="4.654624974355102">
        <ele>14.08</ele>
        <time>2025-05-17T07:07:19Z</time>
      </trkpt>
      <trkpt lat="43.805005978792906" lon="4.654691023752093">
        <ele>13.6</ele>
        <time>2025-05-17T07:07:20Z</time>
      </trkpt>
      <trkpt lat="43.805083008483052" lon="4.654725976288319">
        <ele>13.6</ele>
        <time>2025-05-17T07:07:21Z</time>
      </trkpt>
      <trkpt lat="43.805175041779876" lon="4.654722036793828">
        <ele>13.119999999999999</ele>
        <time>2025-05-17T07:07:22Z</time>
      </trkpt>
      <trkpt lat="43.805270008742809" lon="4.654719019308686">
        <ele>12.630000000000001</ele>
        <time>2025-05-17T07:07:23Z</time>
      </trkpt>
      <trkpt lat="43.805705029517412" lon="4.654732011258602">
        <ele>11.19</ele>
        <time>2025-05-17T07:07:28Z</time>
      </trkpt>
      <trkpt lat="43.805774012580514" lon="4.654763024300337">
        <ele>10.710000000000001</ele>
        <time>2025-05-17T07:07:29Z</time>
      </trkpt>
      <trkpt lat="43.805837966501713" lon="4.65479101985693">
        <ele>10.710000000000001</ele>
        <time>2025-05-17T07:07:30Z</time>
      </trkpt>
      <trkpt lat="43.805871997028589" lon="4.654848016798496">
        <ele>10.23</ele>
        <time>2025-05-17T07:07:31Z</time>
      </trkpt>
      <trkpt lat="43.805902004241943" lon="4.654896967113018">
        <ele>9.75</ele>
        <time>2025-05-17T07:07:32Z</time>
      </trkpt>
      <trkpt lat="43.805899992585182" lon="4.654932003468275">
        <ele>9.75</ele>
        <time>2025-05-17T07:07:33Z</time>
      </trkpt>
      <trkpt lat="43.80589697510004" lon="4.654976008459926">
        <ele>9.27</ele>
        <time>2025-05-17T07:07:34Z</time>
      </trkpt>
      <trkpt lat="43.805894963443279" lon="4.655000986531377">
        <ele>8.789999999999999</ele>
        <time>2025-05-17T07:07:35Z</time>
      </trkpt>
      <trkpt lat="43.805892029777169" lon="4.655039962381125">
        <ele>8.789999999999999</ele>
        <time>2025-05-17T07:07:38Z</time>
      </trkpt>
      <trkpt lat="43.805889012292027" lon="4.65507298707962">
        <ele>8.310000000000001</ele>
        <time>2025-05-17T07:07:39Z</time>
      </trkpt>
      <trkpt lat="43.805880965664983" lon="4.65517801232636">
        <ele>8.310000000000001</ele>
        <time>2025-05-17T07:07:40Z</time>
      </trkpt>
      <trkpt lat="43.805879959836602" lon="4.655182035639882">
        <ele>8.310000000000001</ele>
        <time>2025-05-17T07:07:41Z</time>
      </trkpt>
      <trkpt lat="43.805859005078673" lon="4.655242972075939">
        <ele>7.83</ele>
        <time>2025-05-17T07:07:42Z</time>
      </trkpt>
      <trkpt lat="43.805841989815235" lon="4.655296029523015">
        <ele>7.83</ele>
        <time>2025-05-17T07:07:43Z</time>
      </trkpt>
      <trkpt lat="43.805862022563815" lon="4.655335005372763">
        <ele>7.83</ele>
        <time>2025-05-17T07:07:44Z</time>
      </trkpt>
      <trkpt lat="43.805888006463647" lon="4.655369035899639">
        <ele>7.83</ele>
        <time>2025-05-17T07:07:45Z</time>
      </trkpt>
      <trkpt lat="43.805910972878337" lon="4.655398037284613">
        <ele>7.35</ele>
        <time>2025-05-17T07:07:46Z</time>
      </trkpt>
      <trkpt lat="43.805988002568483" lon="4.655370963737369">
        <ele>7.35</ele>
        <time>2025-05-17T07:07:47Z</time>
      </trkpt>
      <trkpt lat="43.805990014225245" lon="4.655371969565749">
        <ele>6.87</ele>
        <time>2025-05-17T07:07:48Z</time>
      </trkpt>
      <trkpt lat="43.806028990074992" lon="4.655390996485949">
        <ele>6.87</ele>
        <time>2025-05-17T07:07:49Z</time>
      </trkpt>
      <trkpt lat="43.80649602971971" lon="4.655573973432183">
        <ele>5.91</ele>
        <time>2025-05-17T07:07:57Z</time>
      </trkpt>
      <trkpt lat="43.806849997490644" lon="4.655718980357051">
        <ele>4.46</ele>
        <time>2025-05-17T07:08:03Z</time>
      </trkpt>
      <trkpt lat="43.806901965290308" lon="4.655743036419153">
        <ele>4.46</ele>
        <time>2025-05-17T07:08:04Z</time>
      </trkpt>
      <trkpt lat="43.806931972503662" lon="4.65575703419745">
        <ele>4.46</ele>
        <time>2025-05-17T07:08:05Z</time>
      </trkpt>
      <trkpt lat="43.806973965838552" lon="4.655804978683591">
        <ele>3.98</ele>
        <time>2025-05-17T07:08:06Z</time>
      </trkpt>
      <trkpt lat="43.807002967223525" lon="4.655839009210467">
        <ele>3.98</ele>
        <time>2025-05-17T07:08:07Z</time>
      </trkpt>
      <trkpt lat="43.807060969993472" lon="4.655906986445189">
        <ele>3.98</ele>
        <time>2025-05-17T07:08:08Z</time>
      </trkpt>
      <trkpt lat="43.807060969993472" lon="4.655937999486923">
        <ele>3.98</ele>
        <time>2025-05-17T07:08:09Z</time>
      </trkpt>
      <trkpt lat="43.807060969993472" lon="4.655992984771729">
        <ele>3.98</ele>
        <time>2025-05-17T07:08:10Z</time>
      </trkpt>
      <trkpt lat="43.807002967223525" lon="4.656120976433158">
        <ele>3.98</ele>
        <time>2025-05-17T07:08:11Z</time>
      </trkpt>
      <trkpt lat="43.806963991373777" lon="4.656205968931317">
        <ele>3.5</ele>
        <time>2025-05-17T07:08:12Z</time>
      </trkpt>
      <trkpt lat="43.806927027180791" lon="4.656294984742999">
        <ele>3.02</ele>
        <time>2025-05-17T07:08:13Z</time>
      </trkpt>
      <trkpt lat="43.806789983063936" lon="4.656635960564017">
        <ele>1.58</ele>
        <time>2025-05-17T07:08:17Z</time>
      </trkpt>
      <trkpt lat="43.806767016649246" lon="4.656709972769022">
        <ele>1.1</ele>
        <time>2025-05-17T07:08:18Z</time>
      </trkpt>
      <trkpt lat="43.806721000000834" lon="4.656852968037128">
        <ele>0.62</ele>
        <time>2025-05-17T07:08:20Z</time>
      </trkpt>
      <trkpt lat="43.806694010272622" lon="4.656937960535288">
        <ele>0.14</ele>
        <time>2025-05-17T07:08:21Z</time>
      </trkpt>
      <trkpt lat="43.806666014716029" lon="4.657025970518589">
        <ele>0.14</ele>
        <time>2025-05-17T07:08:22Z</time>
      </trkpt>
      <trkpt lat="43.806615974754095" lon="4.657217999920249">
        <ele>-0.34</ele>
        <time>2025-05-17T07:08:24Z</time>
      </trkpt>
      <trkpt lat="43.806565012782812" lon="4.657421009615064">
        <ele>-0.34</ele>
        <time>2025-05-17T07:08:26Z</time>
      </trkpt>
      <trkpt lat="43.806542968377471" lon="4.657530980184674">
        <ele>-0.82</ele>
        <time>2025-05-17T07:08:27Z</time>
      </trkpt>
      <trkpt lat="43.806472979485989" lon="4.657862987369299">
        <ele>-0.82</ele>
        <time>2025-05-17T07:08:30Z</time>
      </trkpt>
      <trkpt lat="43.80645495839417" lon="4.657978992909193">
        <ele>-0.82</ele>
        <time>2025-05-17T07:08:31Z</time>
      </trkpt>
      <trkpt lat="43.806442972272635" lon="4.658093992620707">
        <ele>-0.82</ele>
        <time>2025-05-17T07:08:32Z</time>
      </trkpt>
      <trkpt lat="43.806430986151099" lon="4.658200023695827">
        <ele>-0.82</ele>
        <time>2025-05-17T07:08:33Z</time>
      </trkpt>
      <trkpt lat="43.806423023343086" lon="4.658279987052083">
        <ele>-0.82</ele>
        <time>2025-05-17T07:08:34Z</time>
      </trkpt>
      <trkpt lat="43.806416988372803" lon="4.658344024792314">
        <ele>-0.82</ele>
        <time>2025-05-17T07:08:35Z</time>
      </trkpt>
      <trkpt lat="43.80641296505928" lon="4.658405967056751">
        <ele>-0.34</ele>
        <time>2025-05-17T07:08:36Z</time>
      </trkpt>
      <trkpt lat="43.80640902556479" lon="4.658467993140221">
        <ele>-0.34</ele>
        <time>2025-05-17T07:08:37Z</time>
      </trkpt>
      <trkpt lat="43.806403996422887" lon="4.658533036708832">
        <ele>0.14</ele>
        <time>2025-05-17T07:08:38Z</time>
      </trkpt>
      <trkpt lat="43.806398967280984" lon="4.658607970923185">
        <ele>0.14</ele>
        <time>2025-05-17T07:08:39Z</time>
      </trkpt>
      <trkpt lat="43.806396033614874" lon="4.658695980906487">
        <ele>0.62</ele>
        <time>2025-05-17T07:08:40Z</time>
      </trkpt>
      <trkpt lat="43.806427968665957" lon="4.658992029726505">
        <ele>2.06</ele>
        <time>2025-05-17T07:08:43Z</time>
      </trkpt>
      <trkpt lat="43.806442972272635" lon="4.659096971154213">
        <ele>2.54</ele>
        <time>2025-05-17T07:08:44Z</time>
      </trkpt>
      <trkpt lat="43.80654196254909" lon="4.659423027187586">
        <ele>4.46</ele>
        <time>2025-05-17T07:08:47Z</time>
      </trkpt>
      <trkpt lat="43.806574987247586" lon="4.659528974443674">
        <ele>4.46</ele>
        <time>2025-05-17T07:08:48Z</time>
      </trkpt>
      <trkpt lat="43.806872963905334" lon="4.66007798910141">
        <ele>4.46</ele>
        <time>2025-05-17T07:08:54Z</time>
      </trkpt>
      <trkpt lat="43.806945970281959" lon="4.660193994641304">
        <ele>4.94</ele>
        <time>2025-05-17T07:08:56Z</time>
      </trkpt>
      <trkpt lat="43.807232966646552" lon="4.660648964345455">
        <ele>4.94</ele>
        <time>2025-05-17T07:09:02Z</time>
      </trkpt>
      <trkpt lat="43.807273032143712" lon="4.660699004307389">
        <ele>4.94</ele>
        <time>2025-05-17T07:09:03Z</time>
      </trkpt>
      <trkpt lat="43.807404963299632" lon="4.660876030102372">
        <ele>4.46</ele>
        <time>2025-05-17T07:09:06Z</time>
      </trkpt>
      <trkpt lat="43.807473024353385" lon="4.660967979580164">
        <ele>3.98</ele>
        <time>2025-05-17T07:09:08Z</time>
      </trkpt>
      <trkpt lat="43.807490039616823" lon="4.660993041470647">
        <ele>3.98</ele>
        <time>2025-05-17T07:09:09Z</time>
      </trkpt>
      <trkpt lat="43.807533960789442" lon="4.661079961806536">
        <ele>4.46</ele>
        <time>2025-05-17T07:09:10Z</time>
      </trkpt>
      <trkpt lat="43.807574026286602" lon="4.661119021475315">
        <ele>3.98</ele>
        <time>2025-05-17T07:09:11Z</time>
      </trkpt>
      <trkpt lat="43.80761400796473" lon="4.661159003153443">
        <ele>3.98</ele>
        <time>2025-05-17T07:09:12Z</time>
      </trkpt>
      <trkpt lat="43.80767997354269" lon="4.661224968731403">
        <ele>3.5</ele>
        <time>2025-05-17T07:09:14Z</time>
      </trkpt>
      <trkpt lat="43.807809976860881" lon="4.661363018676639">
        <ele>3.02</ele>
        <time>2025-05-17T07:09:17Z</time>
      </trkpt>
      <trkpt lat="43.807860016822815" lon="4.661416998133063">
        <ele>2.54</ele>
        <time>2025-05-17T07:09:18Z</time>
      </trkpt>
      <trkpt lat="43.807910978794098" lon="4.661471983417869">
        <ele>2.54</ele>
        <time>2025-05-17T07:09:19Z</time>
      </trkpt>
      <trkpt lat="43.807963030412793" lon="4.661527974531055">
        <ele>2.54</ele>
        <time>2025-05-17T07:09:20Z</time>
      </trkpt>
      <trkpt lat="43.807998988777399" lon="4.66158396564424">
        <ele>2.06</ele>
        <time>2025-05-17T07:09:21Z</time>
      </trkpt>
      <trkpt lat="43.808034025132656" lon="4.661660995334387">
        <ele>2.06</ele>
        <time>2025-05-17T07:09:22Z</time>
      </trkpt>
      <trkpt lat="43.808069983497262" lon="4.661740036681294">
        <ele>2.06</ele>
        <time>2025-05-17T07:09:23Z</time>
      </trkpt>
      <trkpt lat="43.808094961568713" lon="4.66181899420917">
        <ele>1.58</ele>
        <time>2025-05-17T07:09:24Z</time>
      </trkpt>
      <trkpt lat="43.8081060256809" lon="4.661909015849233">
        <ele>1.1</ele>
        <time>2025-05-17T07:09:25Z</time>
      </trkpt>
      <trkpt lat="43.808117005974054" lon="4.662007000297308">
        <ele>1.1</ele>
        <time>2025-05-17T07:09:26Z</time>
      </trkpt>
      <trkpt lat="43.808127986267209" lon="4.662098027765751">
        <ele>1.1</ele>
        <time>2025-05-17T07:09:27Z</time>
      </trkpt>
      <trkpt lat="43.808121029287577" lon="4.662201041355729">
        <ele>1.1</ele>
        <time>2025-05-17T07:09:28Z</time>
      </trkpt>
      <trkpt lat="43.808094961568713" lon="4.662297014147043">
        <ele>1.1</ele>
        <time>2025-05-17T07:09:29Z</time>
      </trkpt>
      <trkpt lat="43.808069983497262" lon="4.662391981109977">
        <ele>1.1</ele>
        <time>2025-05-17T07:09:30Z</time>
      </trkpt>
      <trkpt lat="43.808048022910953" lon="4.662473034113646">
        <ele>1.1</ele>
        <time>2025-05-17T07:09:31Z</time>
      </trkpt>
      <trkpt lat="43.808048022910953" lon="4.662551991641522">
        <ele>1.58</ele>
        <time>2025-05-17T07:09:32Z</time>
      </trkpt>
      <trkpt lat="43.808005023747683" lon="4.662638995796442">
        <ele>2.06</ele>
        <time>2025-05-17T07:09:33Z</time>
      </trkpt>
      <trkpt lat="43.808005023747683" lon="4.662751983851194">
        <ele>2.54</ele>
        <time>2025-05-17T07:09:34Z</time>
      </trkpt>
      <trkpt lat="43.808040982112288" lon="4.662788026034832">
        <ele>3.02</ele>
        <time>2025-05-17T07:09:35Z</time>
      </trkpt>
      <trkpt lat="43.808089010417461" lon="4.662835970520973">
        <ele>3.02</ele>
        <time>2025-05-17T07:09:36Z</time>
      </trkpt>
      <trkpt lat="43.808134021237493" lon="4.662874024361372">
        <ele>3.5</ele>
        <time>2025-05-17T07:09:37Z</time>
      </trkpt>
      <trkpt lat="43.808177020400763" lon="4.662945019081235">
        <ele>3.5</ele>
        <time>2025-05-17T07:09:38Z</time>
      </trkpt>
      <trkpt lat="43.808224964886904" lon="4.663006961345673">
        <ele>3.98</ele>
        <time>2025-05-17T07:09:39Z</time>
      </trkpt>
      <trkpt lat="43.808277016505599" lon="4.663074016571045">
        <ele>3.98</ele>
        <time>2025-05-17T07:09:40Z</time>
      </trkpt>
      <trkpt lat="43.808392016217113" lon="4.663223968818784">
        <ele>4.46</ele>
        <time>2025-05-17T07:09:42Z</time>
      </trkpt>
      <trkpt lat="43.808799963444471" lon="4.663926959037781">
        <ele>5.91</ele>
        <time>2025-05-17T07:09:51Z</time>
      </trkpt>
      <trkpt lat="43.809324000030756" lon="4.664535988122225">
        <ele>7.35</ele>
        <time>2025-05-17T07:09:58Z</time>
      </trkpt>
      <trkpt lat="43.809378985315561" lon="4.664598014205694">
        <ele>7.35</ele>
        <time>2025-05-17T07:09:59Z</time>
      </trkpt>
      <trkpt lat="43.809394994750619" lon="4.664627015590668">
        <ele>7.35</ele>
        <time>2025-05-17T07:10:00Z</time>
      </trkpt>
      <trkpt lat="43.809416033327579" lon="4.664668003097177">
        <ele>7.83</ele>
        <time>2025-05-17T07:10:01Z</time>
      </trkpt>
      <trkpt lat="43.809435982257128" lon="4.664704967290163">
        <ele>7.83</ele>
        <time>2025-05-17T07:10:02Z</time>
      </trkpt>
      <trkpt lat="43.809459032490849" lon="4.664748972281814">
        <ele>7.83</ele>
        <time>2025-05-17T07:10:03Z</time>
      </trkpt>
      <trkpt lat="43.809489961713552" lon="4.66480596922338">
        <ele>7.83</ele>
        <time>2025-05-17T07:10:04Z</time>
      </trkpt>
      <trkpt lat="43.809527009725571" lon="4.664875036105514">
        <ele>7.83</ele>
        <time>2025-05-17T07:10:05Z</time>
      </trkpt>
      <trkpt lat="43.809811994433403" lon="4.665302010253072">
        <ele>8.310000000000001</ele>
        <time>2025-05-17T07:10:10Z</time>
      </trkpt>
      <trkpt lat="43.809883994981647" lon="4.665378034114838">
        <ele>8.310000000000001</ele>
        <time>2025-05-17T07:10:11Z</time>
      </trkpt>
      <trkpt lat="43.810358997434378" lon="4.665874997153878">
        <ele>9.27</ele>
        <time>2025-05-17T07:10:20Z</time>
      </trkpt>
      <trkpt lat="43.810542980208993" lon="4.666087981313467">
        <ele>9.27</ele>
        <time>2025-05-17T07:10:25Z</time>
      </trkpt>
      <trkpt lat="43.810598971322179" lon="4.666098961606622">
        <ele>9.27</ele>
        <time>2025-05-17T07:10:26Z</time>
      </trkpt>
      <trkpt lat="43.810635013505816" lon="4.666055962443352">
        <ele>9.27</ele>
        <time>2025-05-17T07:10:27Z</time>
      </trkpt>
      <trkpt lat="43.810666026547551" lon="4.666013969108462">
        <ele>9.27</ele>
        <time>2025-05-17T07:10:28Z</time>
      </trkpt>
      <trkpt lat="43.810763005167246" lon="4.665916990488768">
        <ele>9.27</ele>
        <time>2025-05-17T07:10:29Z</time>
      </trkpt>
      <trkpt lat="43.810830982401967" lon="4.665907016023994">
        <ele>9.27</ele>
        <time>2025-05-17T07:10:30Z</time>
      </trkpt>
      <trkpt lat="43.810915974900126" lon="4.665916990488768">
        <ele>9.27</ele>
        <time>2025-05-17T07:10:31Z</time>
      </trkpt>
      <trkpt lat="43.811003984883428" lon="4.665928976610303">
        <ele>9.27</ele>
        <time>2025-05-17T07:10:32Z</time>
      </trkpt>
      <trkpt lat="43.811099035665393" lon="4.665941968560219">
        <ele>9.27</ele>
        <time>2025-05-17T07:10:33Z</time>
      </trkpt>
      <trkpt lat="43.81120003759861" lon="4.665954960510135">
        <ele>9.27</ele>
        <time>2025-05-17T07:10:34Z</time>
      </trkpt>
      <trkpt lat="43.812380963936448" lon="4.665989996865392">
        <ele>7.83</ele>
        <time>2025-05-17T07:10:45Z</time>
      </trkpt>
      <trkpt lat="43.813620982691646" lon="4.665956972166896">
        <ele>7.83</ele>
        <time>2025-05-17T07:10:56Z</time>
      </trkpt>
      <trkpt lat="43.814966026693583" lon="4.665819006040692">
        <ele>7.83</ele>
        <time>2025-05-17T07:11:08Z</time>
      </trkpt>
      <trkpt lat="43.816503016278148" lon="4.665884971618652">
        <ele>9.27</ele>
        <time>2025-05-17T07:11:21Z</time>
      </trkpt>
      <trkpt lat="43.817891981452703" lon="4.666313035413623">
        <ele>10.23</ele>
        <time>2025-05-17T07:11:32Z</time>
      </trkpt>
      <trkpt lat="43.818224994465709" lon="4.66641403734684">
        <ele>9.75</ele>
        <time>2025-05-17T07:11:36Z</time>
      </trkpt>
      <trkpt lat="43.818305963650346" lon="4.666438009589911">
        <ele>9.75</ele>
        <time>2025-05-17T07:11:37Z</time>
      </trkpt>
      <trkpt lat="43.818385004997253" lon="4.666461981832981">
        <ele>9.27</ele>
        <time>2025-05-17T07:11:38Z</time>
      </trkpt>
      <trkpt lat="43.818391039967537" lon="4.666463993489742">
        <ele>9.27</ele>
        <time>2025-05-17T07:11:39Z</time>
      </trkpt>
      <trkpt lat="43.818605029955506" lon="4.666463993489742">
        <ele>9.27</ele>
        <time>2025-05-17T07:11:40Z</time>
      </trkpt>
      <trkpt lat="43.818640988320112" lon="4.666469022631645">
        <ele>9.27</ele>
        <time>2025-05-17T07:11:41Z</time>
      </trkpt>
      <trkpt lat="43.818731009960175" lon="4.6664800029248">
        <ele>9.27</ele>
        <time>2025-05-17T07:11:42Z</time>
      </trkpt>
      <trkpt lat="43.818821031600237" lon="4.666491989046335">
        <ele>9.75</ele>
        <time>2025-05-17T07:11:43Z</time>
      </trkpt>
      <trkpt lat="43.818909963592887" lon="4.666503975167871">
        <ele>9.75</ele>
        <time>2025-05-17T07:11:44Z</time>
      </trkpt>
      <trkpt lat="43.820106983184814" lon="4.666700027883053">
        <ele>10.710000000000001</ele>
        <time>2025-05-17T07:11:55Z</time>
      </trkpt>
      <trkpt lat="43.82157800719142" lon="4.666886022314429">
        <ele>9.75</ele>
        <time>2025-05-17T07:12:06Z</time>
      </trkpt>
      <trkpt lat="43.823138969019055" lon="4.667043015360832">
        <ele>9.27</ele>
        <time>2025-05-17T07:12:15Z</time>
      </trkpt>
      <trkpt lat="43.824633965268731" lon="4.667744999751449">
        <ele>8.789999999999999</ele>
        <time>2025-05-17T07:12:23Z</time>
      </trkpt>
      <trkpt lat="43.824810991063714" lon="4.667867962270975">
        <ele>8.789999999999999</ele>
        <time>2025-05-17T07:12:24Z</time>
      </trkpt>
      <trkpt lat="43.82630598731339" lon="4.669207977131009">
        <ele>9.27</ele>
        <time>2025-05-17T07:12:33Z</time>
      </trkpt>
      <trkpt lat="43.827505018562078" lon="4.670641031116247">
        <ele>9.27</ele>
        <time>2025-05-17T07:12:41Z</time>
      </trkpt>
      <trkpt lat="43.828612016513944" lon="4.671764960512519">
        <ele>8.310000000000001</ele>
        <time>2025-05-17T07:12:48Z</time>
      </trkpt>
      <trkpt lat="43.828977970406413" lon="4.671966964378953">
        <ele>7.83</ele>
        <time>2025-05-17T07:12:50Z</time>
      </trkpt>
      <trkpt lat="43.830756023526192" lon="4.672425035387278">
        <ele>5.42</ele>
        <time>2025-05-17T07:12:59Z</time>
      </trkpt>
      <trkpt lat="43.832297036424279" lon="4.672940019518137">
        <ele>6.87</ele>
        <time>2025-05-17T07:13:07Z</time>
      </trkpt>
      <trkpt lat="43.832481019198895" lon="4.673058036714792">
        <ele>6.87</ele>
        <time>2025-05-17T07:13:08Z</time>
      </trkpt>
      <trkpt lat="43.832661984488368" lon="4.673173958435655">
        <ele>6.87</ele>
        <time>2025-05-17T07:13:09Z</time>
      </trkpt>
      <trkpt lat="43.833409985527396" lon="4.673541001975536">
        <ele>7.83</ele>
        <time>2025-05-17T07:13:13Z</time>
      </trkpt>
      <trkpt lat="43.833606960251927" lon="4.673581989482045">
        <ele>7.83</ele>
        <time>2025-05-17T07:13:14Z</time>
      </trkpt>
      <trkpt lat="43.835198013111949" lon="4.673668993636966">
        <ele>7.35</ele>
        <time>2025-05-17T07:13:22Z</time>
      </trkpt>
      <trkpt lat="43.837369009852409" lon="4.673715010285378">
        <ele>6.87</ele>
        <time>2025-05-17T07:13:33Z</time>
      </trkpt>
      <trkpt lat="43.838894013315439" lon="4.674371983855963">
        <ele>6.87</ele>
        <time>2025-05-17T07:13:41Z</time>
      </trkpt>
      <trkpt lat="43.841112032532692" lon="4.675622982904315">
        <ele>9.27</ele>
        <time>2025-05-17T07:13:53Z</time>
      </trkpt>
      <trkpt lat="43.843908989802003" lon="4.67698697000742">
        <ele>5.42</ele>
        <time>2025-05-17T07:14:08Z</time>
      </trkpt>
      <trkpt lat="43.845988037064672" lon="4.677908979356289">
        <ele>-0.34</ele>
        <time>2025-05-17T07:14:19Z</time>
      </trkpt>
      <trkpt lat="43.848035987466574" lon="4.678955040872097">
        <ele>0.62</ele>
        <time>2025-05-17T07:14:30Z</time>
      </trkpt>
      <trkpt lat="43.851753026247025" lon="4.681010032072663">
        <ele>2.06</ele>
        <time>2025-05-17T07:14:50Z</time>
      </trkpt>
      <trkpt lat="43.854158967733383" lon="4.68237997032702">
        <ele>3.98</ele>
        <time>2025-05-17T07:15:03Z</time>
      </trkpt>
      <trkpt lat="43.855808023363352" lon="4.683306002989411">
        <ele>0.62</ele>
        <time>2025-05-17T07:15:12Z</time>
      </trkpt>
      <trkpt lat="43.857232024893165" lon="4.684360027313232">
        <ele>2.54</ele>
        <time>2025-05-17T07:15:20Z</time>
      </trkpt>
      <trkpt lat="43.859017034992576" lon="4.686104971915484">
        <ele>3.98</ele>
        <time>2025-05-17T07:15:31Z</time>
      </trkpt>
      <trkpt lat="43.859924040734768" lon="4.687011977657676">
        <ele>3.5</ele>
        <time>2025-05-17T07:15:38Z</time>
      </trkpt>
      <trkpt lat="43.861083006486297" lon="4.687976986169815">
        <ele>4.46</ele>
        <time>2025-05-17T07:15:49Z</time>
      </trkpt>
      <trkpt lat="43.861164981499314" lon="4.688047980889678">
        <ele>4.46</ele>
        <time>2025-05-17T07:15:50Z</time>
      </trkpt>
      <trkpt lat="43.861245028674603" lon="4.688131967559457">
        <ele>4.94</ele>
        <time>2025-05-17T07:15:51Z</time>
      </trkpt>
      <trkpt lat="43.861271012574434" lon="4.688251996412873">
        <ele>4.94</ele>
        <time>2025-05-17T07:15:52Z</time>
      </trkpt>
      <trkpt lat="43.861359022557735" lon="4.688328020274639">
        <ele>4.94</ele>
        <time>2025-05-17T07:15:53Z</time>
      </trkpt>
      <trkpt lat="43.861434040591121" lon="4.688316034153104">
        <ele>4.94</ele>
        <time>2025-05-17T07:15:54Z</time>
      </trkpt>
      <trkpt lat="43.86147796176374" lon="4.688307987526059">
        <ele>4.94</ele>
        <time>2025-05-17T07:15:55Z</time>
      </trkpt>
      <trkpt lat="43.861596984788775" lon="4.688141020014882">
        <ele>4.46</ele>
        <time>2025-05-17T07:15:56Z</time>
      </trkpt>
      <trkpt lat="43.861693041399121" lon="4.688148982822895">
        <ele>4.46</ele>
        <time>2025-05-17T07:15:57Z</time>
      </trkpt>
      <trkpt lat="43.861801000311971" lon="4.68815803527832">
        <ele>4.46</ele>
        <time>2025-05-17T07:15:58Z</time>
      </trkpt>
      <trkpt lat="43.861921029165387" lon="4.688168009743094">
        <ele>4.46</ele>
        <time>2025-05-17T07:15:59Z</time>
      </trkpt>
      <trkpt lat="43.862048014998436" lon="4.688178990036249">
        <ele>4.46</ele>
        <time>2025-05-17T07:16:00Z</time>
      </trkpt>
      <trkpt lat="43.8636489585042" lon="4.688316034153104">
        <ele>6.87</ele>
        <time>2025-05-17T07:16:12Z</time>
      </trkpt>
      <trkpt lat="43.865143032744527" lon="4.688558019697666">
        <ele>8.310000000000001</ele>
        <time>2025-05-17T07:16:23Z</time>
      </trkpt>
      <trkpt lat="43.865660028532147" lon="4.688748037442565">
        <ele>9.27</ele>
        <time>2025-05-17T07:16:28Z</time>
      </trkpt>
      <trkpt lat="43.8657539896667" lon="4.688789024949074">
        <ele>9.27</ele>
        <time>2025-05-17T07:16:29Z</time>
      </trkpt>
      <trkpt lat="43.865814004093409" lon="4.688879968598485">
        <ele>9.27</ele>
        <time>2025-05-17T07:16:30Z</time>
      </trkpt>
      <trkpt lat="43.865892039611936" lon="4.688887009397149">
        <ele>9.75</ele>
        <time>2025-05-17T07:16:31Z</time>
      </trkpt>
      <trkpt lat="43.865986000746489" lon="4.688851973041892">
        <ele>9.75</ele>
        <time>2025-05-17T07:16:32Z</time>
      </trkpt>
      <trkpt lat="43.866099994629622" lon="4.688837975263596">
        <ele>9.75</ele>
        <time>2025-05-17T07:16:33Z</time>
      </trkpt>
      <trkpt lat="43.86633301153779" lon="4.688840992748737">
        <ele>8.789999999999999</ele>
        <time>2025-05-17T07:16:35Z</time>
      </trkpt>
      <trkpt lat="43.866455974057317" lon="4.688886003568769">
        <ele>8.310000000000001</ele>
        <time>2025-05-17T07:16:36Z</time>
      </trkpt>
      <trkpt lat="43.866582959890366" lon="4.688933026045561">
        <ele>8.310000000000001</ele>
        <time>2025-05-17T07:16:37Z</time>
      </trkpt>
      <trkpt lat="43.866723021492362" lon="4.689001003280282">
        <ele>7.83</ele>
        <time>2025-05-17T07:16:38Z</time>
      </trkpt>
      <trkpt lat="43.866841960698366" lon="4.689107034355402">
        <ele>7.35</ele>
        <time>2025-05-17T07:16:39Z</time>
      </trkpt>
      <trkpt lat="43.868065970018506" lon="4.690203974023461">
        <ele>7.35</ele>
        <time>2025-05-17T07:16:48Z</time>
      </trkpt>
      <trkpt lat="43.869501035660505" lon="4.690805040299892">
        <ele>7.83</ele>
        <time>2025-05-17T07:16:56Z</time>
      </trkpt>
      <trkpt lat="43.872403018176556" lon="4.691863004118204">
        <ele>10.23</ele>
        <time>2025-05-17T07:17:11Z</time>
      </trkpt>
      <trkpt lat="43.874458009377122" lon="4.692886015400291">
        <ele>9.75</ele>
        <time>2025-05-17T07:17:22Z</time>
      </trkpt>
      <trkpt lat="43.876134976744652" lon="4.693754967302084">
        <ele>9.75</ele>
        <time>2025-05-17T07:17:31Z</time>
      </trkpt>
      <trkpt lat="43.876333041116595" lon="4.693791009485722">
        <ele>9.75</ele>
        <time>2025-05-17T07:17:32Z</time>
      </trkpt>
      <trkpt lat="43.876529010012746" lon="4.693785980343819">
        <ele>9.75</ele>
        <time>2025-05-17T07:17:33Z</time>
      </trkpt>
      <trkpt lat="43.876727996394038" lon="4.693764019757509">
        <ele>9.75</ele>
        <time>2025-05-17T07:17:34Z</time>
      </trkpt>
      <trkpt lat="43.876924971118569" lon="4.693741975352168">
        <ele>9.75</ele>
        <time>2025-05-17T07:17:35Z</time>
      </trkpt>
      <trkpt lat="43.877119012176991" lon="4.693697970360518">
        <ele>9.75</ele>
        <time>2025-05-17T07:17:36Z</time>
      </trkpt>
      <trkpt lat="43.877314981073141" lon="4.693646002560854">
        <ele>9.75</ele>
        <time>2025-05-17T07:17:37Z</time>
      </trkpt>
      <trkpt lat="43.879108037799597" lon="4.6934450045228">
        <ele>9.75</ele>
        <time>2025-05-17T07:17:46Z</time>
      </trkpt>
      <trkpt lat="43.880672017112374" lon="4.69372596591711">
        <ele>9.27</ele>
        <time>2025-05-17T07:17:54Z</time>
      </trkpt>
      <trkpt lat="43.881003018468618" lon="4.693834008648992">
        <ele>9.75</ele>
        <time>2025-05-17T07:17:56Z</time>
      </trkpt>
      <trkpt lat="43.881959980353713" lon="4.694688962772489">
        <ele>10.710000000000001</ele>
        <time>2025-05-17T07:18:03Z</time>
      </trkpt>
      <trkpt lat="43.882885007187724" lon="4.695951025933027">
        <ele>11.67</ele>
        <time>2025-05-17T07:18:09Z</time>
      </trkpt>
      <trkpt lat="43.883918998762965" lon="4.697313001379371">
        <ele>12.630000000000001</ele>
        <time>2025-05-17T07:18:16Z</time>
      </trkpt>
      <trkpt lat="43.885311987251043" lon="4.69836400821805">
        <ele>13.6</ele>
        <time>2025-05-17T07:18:24Z</time>
      </trkpt>
      <trkpt lat="43.886981997638941" lon="4.69924402423203">
        <ele>14.56</ele>
        <time>2025-05-17T07:18:33Z</time>
      </trkpt>
      <trkpt lat="43.888600962236524" lon="4.699708968400955">
        <ele>16.960000000000001</ele>
        <time>2025-05-17T07:18:42Z</time>
      </trkpt>
      <trkpt lat="43.889799993485212" lon="4.700116999447346">
        <ele>18.399999999999999</ele>
        <time>2025-05-17T07:18:51Z</time>
      </trkpt>
      <trkpt lat="43.891030037775636" lon="4.700680011883378">
        <ele>18.399999999999999</ele>
        <time>2025-05-17T07:19:01Z</time>
      </trkpt>
      <trkpt lat="43.891252996399999" lon="4.700832981616259">
        <ele>17.920000000000002</ele>
        <time>2025-05-17T07:19:03Z</time>
      </trkpt>
      <trkpt lat="43.891476960852742" lon="4.700992992147803">
        <ele>18.879999999999999</ele>
        <time>2025-05-17T07:19:05Z</time>
      </trkpt>
      <trkpt lat="43.892670962959528" lon="4.702178025618196">
        <ele>20.32</ele>
        <time>2025-05-17T07:19:16Z</time>
      </trkpt>
      <trkpt lat="43.89323003590107" lon="4.702765010297298">
        <ele>21.289999999999999</ele>
        <time>2025-05-17T07:19:21Z</time>
      </trkpt>
      <trkpt lat="43.893344029784203" lon="4.702885039150715">
        <ele>22.25</ele>
        <time>2025-05-17T07:19:22Z</time>
      </trkpt>
      <trkpt lat="43.894728971645236" lon="4.704497968778014">
        <ele>25.129999999999999</ele>
        <time>2025-05-17T07:19:35Z</time>
      </trkpt>
      <trkpt lat="43.894900968298316" lon="4.704726962372661">
        <ele>26.09</ele>
        <time>2025-05-17T07:19:37Z</time>
      </trkpt>
      <trkpt lat="43.894954025745392" lon="4.704797035083175">
        <ele>26.57</ele>
        <time>2025-05-17T07:19:38Z</time>
      </trkpt>
      <trkpt lat="43.894995013251901" lon="4.704888984560967">
        <ele>27.050000000000001</ele>
        <time>2025-05-17T07:19:39Z</time>
      </trkpt>
      <trkpt lat="43.894995013251901" lon="4.704918991774321">
        <ele>27.530000000000001</ele>
        <time>2025-05-17T07:19:40Z</time>
      </trkpt>
      <trkpt lat="43.894995013251901" lon="4.70506701618433">
        <ele>28.5</ele>
        <time>2025-05-17T07:19:49Z</time>
      </trkpt>
      <trkpt lat="43.8950589671731" lon="4.705173969268799">
        <ele>28.98</ele>
        <time>2025-05-17T07:19:51Z</time>
      </trkpt>
      <trkpt lat="43.895129961892962" lon="4.705194002017379">
        <ele>28.98</ele>
        <time>2025-05-17T07:19:52Z</time>
      </trkpt>
      <trkpt lat="43.895198022946715" lon="4.705214034765959">
        <ele>29.460000000000001</ele>
        <time>2025-05-17T07:19:53Z</time>
      </trkpt>
      <trkpt lat="43.895241022109985" lon="4.705178998410702">
        <ele>29.460000000000001</ele>
        <time>2025-05-17T07:19:54Z</time>
      </trkpt>
      <trkpt lat="43.895303970202804" lon="4.705102974548936">
        <ele>28.98</ele>
        <time>2025-05-17T07:19:55Z</time>
      </trkpt>
      <trkpt lat="43.895316962152719" lon="4.705087970942259">
        <ele>28.98</ele>
        <time>2025-05-17T07:19:56Z</time>
      </trkpt>
      <trkpt lat="43.895367002114654" lon="4.704804997891188">
        <ele>28.98</ele>
        <time>2025-05-17T07:19:57Z</time>
      </trkpt>
      <trkpt lat="43.895447971299291" lon="4.704728974029422">
        <ele>28.98</ele>
        <time>2025-05-17T07:19:58Z</time>
      </trkpt>
      <trkpt lat="43.895538998767734" lon="4.704642975702882">
        <ele>28.5</ele>
        <time>2025-05-17T07:19:59Z</time>
      </trkpt>
      <trkpt lat="43.895635977387428" lon="4.704550020396709">
        <ele>28.5</ele>
        <time>2025-05-17T07:20:00Z</time>
      </trkpt>
      <trkpt lat="43.896580031141639" lon="4.703642008826137">
        <ele>29.460000000000001</ele>
        <time>2025-05-17T07:20:08Z</time>
      </trkpt>
      <trkpt lat="43.898578025400639" lon="4.701676033437252">
        <ele>32.82</ele>
        <time>2025-05-17T07:20:24Z</time>
      </trkpt>
      <trkpt lat="43.900090958923101" lon="4.700185982510448">
        <ele>25.609999999999999</ele>
        <time>2025-05-17T07:20:38Z</time>
      </trkpt>
      <trkpt lat="43.900562021881342" lon="4.699713997542858">
        <ele>21.77</ele>
        <time>2025-05-17T07:20:44Z</time>
      </trkpt>
      <trkpt lat="43.900685990229249" lon="4.699678039178252">
        <ele>21.289999999999999</ele>
        <time>2025-05-17T07:20:45Z</time>
      </trkpt>
      <trkpt lat="43.900766959413886" lon="4.699745010584593">
        <ele>20.32</ele>
        <time>2025-05-17T07:20:46Z</time>
      </trkpt>
      <trkpt lat="43.900907021015882" lon="4.699709974229336">
        <ele>19.84</ele>
        <time>2025-05-17T07:20:48Z</time>
      </trkpt>
      <trkpt lat="43.901037024334073" lon="4.699844000861049">
        <ele>19.359999999999999</ele>
        <time>2025-05-17T07:20:49Z</time>
      </trkpt>
      <trkpt lat="43.901118999347091" lon="4.699962018057704">
        <ele>18.879999999999999</ele>
        <time>2025-05-17T07:20:50Z</time>
      </trkpt>
      <trkpt lat="43.901211032643914" lon="4.700094033032656">
        <ele>18.879999999999999</ele>
        <time>2025-05-17T07:20:51Z</time>
      </trkpt>
      <trkpt lat="43.901308011263609" lon="4.700248008593917">
        <ele>18.399999999999999</ele>
        <time>2025-05-17T07:20:52Z</time>
      </trkpt>
      <trkpt lat="43.902146033942699" lon="4.701837971806526">
        <ele>17.920000000000002</ele>
        <time>2025-05-17T07:21:00Z</time>
      </trkpt>
      <trkpt lat="43.903605993837118" lon="4.704785970970988">
        <ele>16.48</ele>
        <time>2025-05-17T07:21:13Z</time>
      </trkpt>
      <trkpt lat="43.904370004311204" lon="4.706738032400608">
        <ele>16.48</ele>
        <time>2025-05-17T07:21:21Z</time>
      </trkpt>
      <trkpt lat="43.905317997559905" lon="4.709469024091959">
        <ele>15.52</ele>
        <time>2025-05-17T07:21:32Z</time>
      </trkpt>
      <trkpt lat="43.906352994963527" lon="4.712449964135885">
        <ele>15.52</ele>
        <time>2025-05-17T07:21:44Z</time>
      </trkpt>
      <trkpt lat="43.907474996522069" lon="4.716009004041553">
        <ele>16.960000000000001</ele>
        <time>2025-05-17T07:21:58Z</time>
      </trkpt>
      <trkpt lat="43.907874980941415" lon="4.717856962233782">
        <ele>15.52</ele>
        <time>2025-05-17T07:22:05Z</time>
      </trkpt>
      <trkpt lat="43.908552993088961" lon="4.720152011141181">
        <ele>14.56</ele>
        <time>2025-05-17T07:22:14Z</time>
      </trkpt>
      <trkpt lat="43.909614980220795" lon="4.722143970429897">
        <ele>14.08</ele>
        <time>2025-05-17T07:22:23Z</time>
      </trkpt>
      <trkpt lat="43.910661963745952" lon="4.723407961428165">
        <ele>14.56</ele>
        <time>2025-05-17T07:22:30Z</time>
      </trkpt>
      <trkpt lat="43.912544036284089" lon="4.724992979317904">
        <ele>16</ele>
        <time>2025-05-17T07:22:41Z</time>
      </trkpt>
      <trkpt lat="43.914683014154434" lon="4.726464003324509">
        <ele>15.52</ele>
        <time>2025-05-17T07:22:53Z</time>
      </trkpt>
      <trkpt lat="43.916482022032142" lon="4.727699998766184">
        <ele>15.039999999999999</ele>
        <time>2025-05-17T07:23:03Z</time>
      </trkpt>
      <trkpt lat="43.918975973501801" lon="4.729415019974113">
        <ele>14.56</ele>
        <time>2025-05-17T07:23:17Z</time>
      </trkpt>
      <trkpt lat="43.921081004664302" lon="4.731008000671864">
        <ele>15.52</ele>
        <time>2025-05-17T07:23:29Z</time>
      </trkpt>
      <trkpt lat="43.922515986487269" lon="4.732498973608017">
        <ele>16.48</ele>
        <time>2025-05-17T07:23:38Z</time>
      </trkpt>
      <trkpt lat="43.92266602255404" lon="4.732675999403">
        <ele>16</ele>
        <time>2025-05-17T07:23:39Z</time>
      </trkpt>
      <trkpt lat="43.924338966608047" lon="4.734644992277026">
        <ele>16.960000000000001</ele>
        <time>2025-05-17T07:23:50Z</time>
      </trkpt>
      <trkpt lat="43.925707982853055" lon="4.736260017380118">
        <ele>17.920000000000002</ele>
        <time>2025-05-17T07:23:59Z</time>
      </trkpt>
      <trkpt lat="43.927271040156484" lon="4.738383991643786">
        <ele>18.399999999999999</ele>
        <time>2025-05-17T07:24:10Z</time>
      </trkpt>
      <trkpt lat="43.928803000599146" lon="4.740915996953845">
        <ele>22.25</ele>
        <time>2025-05-17T07:24:22Z</time>
      </trkpt>
      <trkpt lat="43.93065900541842" lon="4.74301197566092">
        <ele>22.73</ele>
        <time>2025-05-17T07:24:34Z</time>
      </trkpt>
      <trkpt lat="43.932897979393601" lon="4.744824981316924">
        <ele>21.77</ele>
        <time>2025-05-17T07:24:47Z</time>
      </trkpt>
      <trkpt lat="43.933852007612586" lon="4.746242025867105">
        <ele>21.289999999999999</ele>
        <time>2025-05-17T07:24:54Z</time>
      </trkpt>
      <trkpt lat="43.935253964737058" lon="4.748919038102031">
        <ele>20.809999999999999</ele>
        <time>2025-05-17T07:25:06Z</time>
      </trkpt>
      <trkpt lat="43.93598897382617" lon="4.750557029619813">
        <ele>20.32</ele>
        <time>2025-05-17T07:25:13Z</time>
      </trkpt>
      <trkpt lat="43.936077989637852" lon="4.750801026821137">
        <ele>20.32</ele>
        <time>2025-05-17T07:25:14Z</time>
      </trkpt>
      <trkpt lat="43.936879970133305" lon="4.753006976097822">
        <ele>21.289999999999999</ele>
        <time>2025-05-17T07:25:23Z</time>
      </trkpt>
      <trkpt lat="43.937035035341978" lon="4.753509974107146">
        <ele>20.809999999999999</ele>
        <time>2025-05-17T07:25:25Z</time>
      </trkpt>
      <trkpt lat="43.937712963670492" lon="4.756110962480307">
        <ele>18.879999999999999</ele>
        <time>2025-05-17T07:25:35Z</time>
      </trkpt>
      <trkpt lat="43.938345964998007" lon="4.76017702370882">
        <ele>18.399999999999999</ele>
        <time>2025-05-17T07:25:50Z</time>
      </trkpt>
      <trkpt lat="43.93856598995626" lon="4.763751989230514">
        <ele>18.399999999999999</ele>
        <time>2025-05-17T07:26:03Z</time>
      </trkpt>
      <trkpt lat="43.938795989379287" lon="4.767039036378264">
        <ele>19.359999999999999</ele>
        <time>2025-05-17T07:26:15Z</time>
      </trkpt>
      <trkpt lat="43.939366964623332" lon="4.769981000572443">
        <ele>20.32</ele>
        <time>2025-05-17T07:26:26Z</time>
      </trkpt>
      <trkpt lat="43.93998303450644" lon="4.772139005362988">
        <ele>21.77</ele>
        <time>2025-05-17T07:26:35Z</time>
      </trkpt>
      <trkpt lat="43.940685018897057" lon="4.77427002042532">
        <ele>20.809999999999999</ele>
        <time>2025-05-17T07:26:44Z</time>
      </trkpt>
      <trkpt lat="43.94163703545928" lon="4.776819963008165">
        <ele>19.359999999999999</ele>
        <time>2025-05-17T07:26:55Z</time>
      </trkpt>
      <trkpt lat="43.942084964364767" lon="4.778524003922939">
        <ele>20.32</ele>
        <time>2025-05-17T07:27:02Z</time>
      </trkpt>
      <trkpt lat="43.942412026226521" lon="4.77947199717164">
        <ele>20.32</ele>
        <time>2025-05-17T07:27:06Z</time>
      </trkpt>
      <trkpt lat="43.942538006231189" lon="4.779681041836739">
        <ele>20.809999999999999</ele>
        <time>2025-05-17T07:27:07Z</time>
      </trkpt>
      <trkpt lat="43.942659040912986" lon="4.779881034046412">
        <ele>21.289999999999999</ele>
        <time>2025-05-17T07:27:08Z</time>
      </trkpt>
      <trkpt lat="43.942786026746035" lon="4.780065016821027">
        <ele>21.77</ele>
        <time>2025-05-17T07:27:09Z</time>
      </trkpt>
      <trkpt lat="43.942922987043858" lon="4.780241958796978">
        <ele>21.77</ele>
        <time>2025-05-17T07:27:10Z</time>
      </trkpt>
      <trkpt lat="43.943059025332332" lon="4.78041797876358">
        <ele>21.77</ele>
        <time>2025-05-17T07:27:11Z</time>
      </trkpt>
      <trkpt lat="43.943205960094929" lon="4.780580000951886">
        <ele>22.25</ele>
        <time>2025-05-17T07:27:12Z</time>
      </trkpt>
      <trkpt lat="43.943780036643147" lon="4.78127502836287">
        <ele>22.73</ele>
        <time>2025-05-17T07:27:16Z</time>
      </trkpt>
      <trkpt lat="43.945147041231394" lon="4.783459017053247">
        <ele>22.73</ele>
        <time>2025-05-17T07:27:27Z</time>
      </trkpt>
      <trkpt lat="43.946446990594268" lon="4.785088039934635">
        <ele>21.77</ele>
        <time>2025-05-17T07:27:37Z</time>
      </trkpt>
      <trkpt lat="43.94741702824831" lon="4.786078026518226">
        <ele>21.77</ele>
        <time>2025-05-17T07:27:46Z</time>
      </trkpt>
      <trkpt lat="43.947502020746469" lon="4.78615497238934">
        <ele>21.77</ele>
        <time>2025-05-17T07:27:48Z</time>
      </trkpt>
      <trkpt lat="43.947565974667668" lon="4.78624097071588">
        <ele>21.289999999999999</ele>
        <time>2025-05-17T07:27:49Z</time>
      </trkpt>
      <trkpt lat="43.947625989094377" lon="4.786129994317889">
        <ele>21.289999999999999</ele>
        <time>2025-05-17T07:27:50Z</time>
      </trkpt>
      <trkpt lat="43.947665970772505" lon="4.786054976284504">
        <ele>21.289999999999999</ele>
        <time>2025-05-17T07:27:51Z</time>
      </trkpt>
      <trkpt lat="43.947713999077678" lon="4.785966966301203">
        <ele>20.809999999999999</ele>
        <time>2025-05-17T07:27:52Z</time>
      </trkpt>
      <trkpt lat="43.947751969099045" lon="4.785854984074831">
        <ele>20.809999999999999</ele>
        <time>2025-05-17T07:27:53Z</time>
      </trkpt>
      <trkpt lat="43.947806032374501" lon="4.785716012120247">
        <ele>20.809999999999999</ele>
        <time>2025-05-17T07:27:54Z</time>
      </trkpt>
      <trkpt lat="43.947870992124081" lon="4.785581985488534">
        <ele>20.809999999999999</ele>
        <time>2025-05-17T07:27:55Z</time>
      </trkpt>
      <trkpt lat="43.948360998183489" lon="4.784671040251851">
        <ele>21.289999999999999</ele>
        <time>2025-05-17T07:28:01Z</time>
      </trkpt>
      <trkpt lat="43.948456970974803" lon="4.784569032490253">
        <ele>21.77</ele>
        <time>2025-05-17T07:28:02Z</time>
      </trkpt>
      <trkpt lat="43.948543975129724" lon="4.784475993365049">
        <ele>21.77</ele>
        <time>2025-05-17T07:28:03Z</time>
      </trkpt>
      <trkpt lat="43.948639025911689" lon="4.784373985603452">
        <ele>21.77</ele>
        <time>2025-05-17T07:28:04Z</time>
      </trkpt>
      <trkpt lat="43.948730975389481" lon="4.784355964511633">
        <ele>22.25</ele>
        <time>2025-05-17T07:28:05Z</time>
      </trkpt>
      <trkpt lat="43.948828037828207" lon="4.784394018352032">
        <ele>22.73</ele>
        <time>2025-05-17T07:28:06Z</time>
      </trkpt>
      <trkpt lat="43.948920993134379" lon="4.784440035000444">
        <ele>22.73</ele>
        <time>2025-05-17T07:28:07Z</time>
      </trkpt>
      <trkpt lat="43.948991987854242" lon="4.784496026113629">
        <ele>23.210000000000001</ele>
        <time>2025-05-17T07:28:08Z</time>
      </trkpt>
      <trkpt lat="43.949069017544389" lon="4.78458303026855">
        <ele>23.210000000000001</ele>
        <time>2025-05-17T07:28:09Z</time>
      </trkpt>
      <trkpt lat="43.949122997000813" lon="4.7846719622612">
        <ele>22.73</ele>
        <time>2025-05-17T07:28:10Z</time>
      </trkpt>
      <trkpt lat="43.949161972850561" lon="4.784797020256519">
        <ele>22.25</ele>
        <time>2025-05-17T07:28:11Z</time>
      </trkpt>
      <trkpt lat="43.949194997549057" lon="4.784924006089568">
        <ele>22.25</ele>
        <time>2025-05-17T07:28:12Z</time>
      </trkpt>
      <trkpt lat="43.949178988113999" lon="4.785062978044152">
        <ele>21.77</ele>
        <time>2025-05-17T07:28:13Z</time>
      </trkpt>
      <trkpt lat="43.949160967022181" lon="4.785216031596065">
        <ele>22.25</ele>
        <time>2025-05-17T07:28:14Z</time>
      </trkpt>
      <trkpt lat="43.949108999222517" lon="4.785378975793719">
        <ele>22.25</ele>
        <time>2025-05-17T07:28:15Z</time>
      </trkpt>
      <trkpt lat="43.948971033096313" lon="4.785695979371667">
        <ele>22.25</ele>
        <time>2025-05-17T07:28:17Z</time>
      </trkpt>
      <trkpt lat="43.948180032894015" lon="4.787343023344874">
        <ele>24.649999999999999</ele>
        <time>2025-05-17T07:28:26Z</time>
      </trkpt>
      <trkpt lat="43.94688100554049" lon="4.789991034194827">
        <ele>28.02</ele>
        <time>2025-05-17T07:28:41Z</time>
      </trkpt>
      <trkpt lat="43.945832010358572" lon="4.79210302233696">
        <ele>28.02</ele>
        <time>2025-05-17T07:28:54Z</time>
      </trkpt>
      <trkpt lat="43.944657035171986" lon="4.794462025165558">
        <ele>29.940000000000001</ele>
        <time>2025-05-17T07:29:08Z</time>
      </trkpt>
      <trkpt lat="43.943785987794399" lon="4.796217028051615">
        <ele>27.530000000000001</ele>
        <time>2025-05-17T07:29:19Z</time>
      </trkpt>
      <trkpt lat="43.943736031651497" lon="4.796362034976482">
        <ele>27.530000000000001</ele>
        <time>2025-05-17T07:29:20Z</time>
      </trkpt>
      <trkpt lat="43.943708958104253" lon="4.796506036072969">
        <ele>26.57</ele>
        <time>2025-05-17T07:29:21Z</time>
      </trkpt>
      <trkpt lat="43.94368196837604" lon="4.796648025512695">
        <ele>26.09</ele>
        <time>2025-05-17T07:29:22Z</time>
      </trkpt>
      <trkpt lat="43.943737959489226" lon="4.796793032437563">
        <ele>25.609999999999999</ele>
        <time>2025-05-17T07:29:23Z</time>
      </trkpt>
      <trkpt lat="43.943791016936302" lon="4.796932004392147">
        <ele>25.129999999999999</ele>
        <time>2025-05-17T07:29:24Z</time>
      </trkpt>
      <trkpt lat="43.943820018321276" lon="4.797081034630537">
        <ele>24.170000000000002</ele>
        <time>2025-05-17T07:29:25Z</time>
      </trkpt>
      <trkpt lat="43.94385396502912" lon="4.797249007970095">
        <ele>23.690000000000001</ele>
        <time>2025-05-17T07:29:26Z</time>
      </trkpt>
      <trkpt lat="43.943963013589382" lon="4.797649998217821">
        <ele>21.77</ele>
        <time>2025-05-17T07:29:29Z</time>
      </trkpt>
      <trkpt lat="43.943976005539298" lon="4.797790981829166">
        <ele>20.809999999999999</ele>
        <time>2025-05-17T07:29:30Z</time>
      </trkpt>
      <trkpt lat="43.943965025246143" lon="4.797902964055538">
        <ele>20.32</ele>
        <time>2025-05-17T07:29:31Z</time>
      </trkpt>
      <trkpt lat="43.943933006376028" lon="4.798010000959039">
        <ele>19.84</ele>
        <time>2025-05-17T07:29:32Z</time>
      </trkpt>
      <trkpt lat="43.943899981677532" lon="4.798099016770721">
        <ele>19.359999999999999</ele>
        <time>2025-05-17T07:29:33Z</time>
      </trkpt>
      <trkpt lat="43.943867040798068" lon="4.798179985955358">
        <ele>18.879999999999999</ele>
        <time>2025-05-17T07:29:34Z</time>
      </trkpt>
      <trkpt lat="43.943836027756333" lon="4.798256009817123">
        <ele>18.399999999999999</ele>
        <time>2025-05-17T07:29:35Z</time>
      </trkpt>
      <trkpt lat="43.94380803219974" lon="4.798325998708606">
        <ele>18.399999999999999</ele>
        <time>2025-05-17T07:29:36Z</time>
      </trkpt>
      <trkpt lat="43.943498991429806" lon="4.799056984484196">
        <ele>14.56</ele>
        <time>2025-05-17T07:29:46Z</time>
      </trkpt>
      <trkpt lat="43.943116022273898" lon="4.800107991322875">
        <ele>14.08</ele>
        <time>2025-05-17T07:29:58Z</time>
      </trkpt>
      <trkpt lat="43.942936984822154" lon="4.800808969885111">
        <ele>15.039999999999999</ele>
        <time>2025-05-17T07:30:09Z</time>
      </trkpt>
      <trkpt lat="43.942920975387096" lon="4.800969986245036">
        <ele>15.52</ele>
        <time>2025-05-17T07:30:12Z</time>
      </trkpt>
      <trkpt lat="43.942909995093942" lon="4.801090015098453">
        <ele>16</ele>
        <time>2025-05-17T07:30:15Z</time>
      </trkpt>
      <trkpt lat="43.942909995093942" lon="4.801162015646696">
        <ele>16</ele>
        <time>2025-05-17T07:30:16Z</time>
      </trkpt>
      <trkpt lat="43.942909995093942" lon="4.801199985668063">
        <ele>15.52</ele>
        <time>2025-05-17T07:30:17Z</time>
      </trkpt>
      <trkpt lat="43.942909995093942" lon="4.801226975396276">
        <ele>15.52</ele>
        <time>2025-05-17T07:30:18Z</time>
      </trkpt>
      <trkpt lat="43.942907983437181" lon="4.801258994266391">
        <ele>15.52</ele>
        <time>2025-05-17T07:30:19Z</time>
      </trkpt>
      <trkpt lat="43.942887028679252" lon="4.801554959267378">
        <ele>13.6</ele>
        <time>2025-05-17T07:30:28Z</time>
      </trkpt>
      <trkpt lat="43.942870013415813" lon="4.801915967836976">
        <ele>12.630000000000001</ele>
        <time>2025-05-17T07:30:39Z</time>
      </trkpt>
      <trkpt lat="43.942870013415813" lon="4.801915967836976">
        <ele>12.630000000000001</ele>
        <time>2025-05-17T07:30:59Z</time>
      </trkpt>
      <trkpt lat="43.942835982888937" lon="4.802315030246973">
        <ele>13.119999999999999</ele>
        <time>2025-05-17T07:31:10Z</time>
      </trkpt>
      <trkpt lat="43.942780997604132" lon="4.803097983822227">
        <ele>15.039999999999999</ele>
        <time>2025-05-17T07:31:19Z</time>
      </trkpt>
      <trkpt lat="43.942757025361061" lon="4.803271992132068">
        <ele>15.52</ele>
        <time>2025-05-17T07:31:21Z</time>
      </trkpt>
      <trkpt lat="43.942744033411145" lon="4.803368970751762">
        <ele>15.52</ele>
        <time>2025-05-17T07:31:22Z</time>
      </trkpt>
      <trkpt lat="43.942673960700631" lon="4.804176986217499">
        <ele>15.039999999999999</ele>
        <time>2025-05-17T07:31:30Z</time>
      </trkpt>
      <trkpt lat="43.942668009549379" lon="4.804235994815826">
        <ele>14.56</ele>
        <time>2025-05-17T07:31:31Z</time>
      </trkpt>
      <trkpt lat="43.942658035084605" lon="4.804340014234185">
        <ele>15.039999999999999</ele>
        <time>2025-05-17T07:31:33Z</time>
      </trkpt>
      <trkpt lat="43.942653005942702" lon="4.804383013397455">
        <ele>14.56</ele>
        <time>2025-05-17T07:31:34Z</time>
      </trkpt>
      <trkpt lat="43.94264898262918" lon="4.804421989247203">
        <ele>15.039999999999999</ele>
        <time>2025-05-17T07:31:35Z</time>
      </trkpt>
      <trkpt lat="43.942643031477928" lon="4.804482003673911">
        <ele>15.52</ele>
        <time>2025-05-17T07:31:44Z</time>
      </trkpt>
      <trkpt lat="43.942610006779432" lon="4.804821973666549">
        <ele>17.440000000000001</ele>
        <time>2025-05-17T07:31:54Z</time>
      </trkpt>
      <trkpt lat="43.94258301705122" lon="4.805107964202762">
        <ele>18.399999999999999</ele>
        <time>2025-05-17T07:31:58Z</time>
      </trkpt>
      <trkpt lat="43.942572036758065" lon="4.805273003876209">
        <ele>18.879999999999999</ele>
        <time>2025-05-17T07:32:00Z</time>
      </trkpt>
      <trkpt lat="43.942566001787782" lon="4.80536000803113">
        <ele>18.879999999999999</ele>
        <time>2025-05-17T07:32:01Z</time>
      </trkpt>
      <trkpt lat="43.942546974867582" lon="4.805765021592379">
        <ele>19.84</ele>
        <time>2025-05-17T07:32:06Z</time>
      </trkpt>
      <trkpt lat="43.942542029544711" lon="4.80583400465548">
        <ele>19.84</ele>
        <time>2025-05-17T07:32:07Z</time>
      </trkpt>
      <trkpt lat="43.942514033988118" lon="4.806072972714901">
        <ele>20.32</ele>
        <time>2025-05-17T07:32:10Z</time>
      </trkpt>
      <trkpt lat="43.942501964047551" lon="4.806182021275163">
        <ele>20.32</ele>
        <time>2025-05-17T07:32:11Z</time>
      </trkpt>
      <trkpt lat="43.942494001239538" lon="4.806304983794689">
        <ele>20.32</ele>
        <time>2025-05-17T07:32:12Z</time>
      </trkpt>
      <trkpt lat="43.942487966269255" lon="4.806418977677822">
        <ele>20.32</ele>
        <time>2025-05-17T07:32:13Z</time>
      </trkpt>
      <trkpt lat="43.942481009289622" lon="4.806540012359619">
        <ele>20.32</ele>
        <time>2025-05-17T07:32:14Z</time>
      </trkpt>
      <trkpt lat="43.942442033439875" lon="4.807062959298492">
        <ele>17.440000000000001</ele>
        <time>2025-05-17T07:32:21Z</time>
      </trkpt>
      <trkpt lat="43.942438010126352" lon="4.80712004005909">
        <ele>17.440000000000001</ele>
        <time>2025-05-17T07:32:22Z</time>
      </trkpt>
      <trkpt lat="43.942431975156069" lon="4.807310979813337">
        <ele>16</ele>
        <time>2025-05-17T07:32:27Z</time>
      </trkpt>
      <trkpt lat="43.942430969327688" lon="4.807344004511833">
        <ele>15.52</ele>
        <time>2025-05-17T07:32:34Z</time>
      </trkpt>
      <trkpt lat="43.942429963499308" lon="4.80738096870482">
        <ele>15.039999999999999</ele>
        <time>2025-05-17T07:32:35Z</time>
      </trkpt>
      <trkpt lat="43.942415965721011" lon="4.807849014177918">
        <ele>14.08</ele>
        <time>2025-05-17T07:32:41Z</time>
      </trkpt>
      <trkpt lat="43.942521996796131" lon="4.809038992971182">
        <ele>16.960000000000001</ele>
        <time>2025-05-17T07:32:53Z</time>
      </trkpt>
      <trkpt lat="43.942652000114322" lon="4.809651039540768">
        <ele>17.440000000000001</ele>
        <time>2025-05-17T07:33:02Z</time>
      </trkpt>
      <trkpt lat="43.942716037854552" lon="4.809883972629905">
        <ele>17.920000000000002</ele>
        <time>2025-05-17T07:33:26Z</time>
      </trkpt>
      <trkpt lat="43.942923992872238" lon="4.810894997790456">
        <ele>19.359999999999999</ele>
        <time>2025-05-17T07:33:38Z</time>
      </trkpt>
      <trkpt lat="43.942943019792438" lon="4.811006980016828">
        <ele>19.84</ele>
        <time>2025-05-17T07:33:46Z</time>
      </trkpt>
      <trkpt lat="43.943002028390765" lon="4.811293976381421">
        <ele>19.84</ele>
        <time>2025-05-17T07:34:06Z</time>
      </trkpt>
      <trkpt lat="43.943189028650522" lon="4.812205005437136">
        <ele>19.84</ele>
        <time>2025-05-17T07:34:15Z</time>
      </trkpt>
      <trkpt lat="43.943435959517956" lon="4.813500009477139">
        <ele>21.289999999999999</ele>
        <time>2025-05-17T07:34:27Z</time>
      </trkpt>
      <trkpt lat="43.94363896921277" lon="4.814479015767574">
        <ele>21.77</ele>
        <time>2025-05-17T07:34:35Z</time>
      </trkpt>
      <trkpt lat="43.94393702968955" lon="4.815212013199925">
        <ele>24.170000000000002</ele>
        <time>2025-05-17T07:34:44Z</time>
      </trkpt>
      <trkpt lat="43.943991009145975" lon="4.815302034839988">
        <ele>24.170000000000002</ele>
        <time>2025-05-17T07:34:45Z</time>
      </trkpt>
      <trkpt lat="43.944911006838083" lon="4.816179033368826">
        <ele>24.649999999999999</ele>
        <time>2025-05-17T07:34:58Z</time>
      </trkpt>
      <trkpt lat="43.945578038692474" lon="4.81666199862957">
        <ele>25.609999999999999</ele>
        <time>2025-05-17T07:35:08Z</time>
      </trkpt>
      <trkpt lat="43.946108026430011" lon="4.817051002755761">
        <ele>25.129999999999999</ele>
        <time>2025-05-17T07:35:17Z</time>
      </trkpt>
      <trkpt lat="43.946242975071073" lon="4.817144041880965">
        <ele>24.170000000000002</ele>
        <time>2025-05-17T07:35:26Z</time>
      </trkpt>
      <trkpt lat="43.946398962289095" lon="4.817254012450576">
        <ele>24.170000000000002</ele>
        <time>2025-05-17T07:35:39Z</time>
      </trkpt>
      <trkpt lat="43.94642997533083" lon="4.817275973036885">
        <ele>23.690000000000001</ele>
        <time>2025-05-17T07:36:08Z</time>
      </trkpt>
      <trkpt lat="43.946458976715803" lon="4.817297011613846">
        <ele>23.210000000000001</ele>
        <time>2025-05-17T07:36:09Z</time>
      </trkpt>
      <trkpt lat="43.946557966992259" lon="4.817161979153752">
        <ele>23.210000000000001</ele>
        <time>2025-05-17T07:36:10Z</time>
      </trkpt>
      <trkpt lat="43.946557966992259" lon="4.817161979153752">
        <ele>23.210000000000001</ele>
        <time>2025-05-17T07:36:11Z</time>
      </trkpt>
      <trkpt lat="43.946557966992259" lon="4.817085033282638">
        <ele>23.690000000000001</ele>
        <time>2025-05-17T07:36:12Z</time>
      </trkpt>
      <trkpt lat="43.946557966992259" lon="4.81698595918715">
        <ele>23.690000000000001</ele>
        <time>2025-05-17T07:36:13Z</time>
      </trkpt>
      <trkpt lat="43.946685958653688" lon="4.816419007256627">
        <ele>24.649999999999999</ele>
        <time>2025-05-17T07:36:19Z</time>
      </trkpt>
      <trkpt lat="43.946769023314118" lon="4.816052969545126">
        <ele>24.170000000000002</ele>
        <time>2025-05-17T07:36:23Z</time>
      </trkpt>
      <trkpt lat="43.946788972243667" lon="4.815964037552476">
        <ele>23.210000000000001</ele>
        <time>2025-05-17T07:36:24Z</time>
      </trkpt>
      <trkpt lat="43.946827026084065" lon="4.815796986222267">
        <ele>22.25</ele>
        <time>2025-05-17T07:36:26Z</time>
      </trkpt>
      <trkpt lat="43.946841023862362" lon="4.815733032301068">
        <ele>22.25</ele>
        <time>2025-05-17T07:36:27Z</time>
      </trkpt>
      <trkpt lat="43.946852004155517" lon="4.815685003995895">
        <ele>21.289999999999999</ele>
        <time>2025-05-17T07:36:28Z</time>
      </trkpt>
      <trkpt lat="43.946887962520123" lon="4.815515018999577">
        <ele>20.32</ele>
        <time>2025-05-17T07:36:31Z</time>
      </trkpt>
      <trkpt lat="43.946920987218618" lon="4.815359031781554">
        <ele>19.84</ele>
        <time>2025-05-17T07:36:33Z</time>
      </trkpt>
      <trkpt lat="43.946952000260353" lon="4.815213019028306">
        <ele>20.32</ele>
        <time>2025-05-17T07:36:35Z</time>
      </trkpt>
      <trkpt lat="43.946968009695411" lon="4.815138000994921">
        <ele>20.32</ele>
        <time>2025-05-17T07:36:36Z</time>
      </trkpt>
      <trkpt lat="43.946983013302088" lon="4.815064994618297">
        <ele>20.809999999999999</ele>
        <time>2025-05-17T07:36:37Z</time>
      </trkpt>
      <trkpt lat="43.946998016908765" lon="4.814995005726814">
        <ele>21.289999999999999</ele>
        <time>2025-05-17T07:36:38Z</time>
      </trkpt>
      <trkpt lat="43.947015032172203" lon="4.814914036542177">
        <ele>21.289999999999999</ele>
        <time>2025-05-17T07:36:39Z</time>
      </trkpt>
      <trkpt lat="43.94703003577888" lon="4.814843963831663">
        <ele>21.289999999999999</ele>
        <time>2025-05-17T07:36:40Z</time>
      </trkpt>
      <trkpt lat="43.947045961394906" lon="4.814757965505123">
        <ele>20.809999999999999</ele>
        <time>2025-05-17T07:36:41Z</time>
      </trkpt>
      <trkpt lat="43.94707303494215" lon="4.814618993550539">
        <ele>20.809999999999999</ele>
        <time>2025-05-17T07:36:43Z</time>
      </trkpt>
      <trkpt lat="43.947083009406924" lon="4.814564008265734">
        <ele>20.809999999999999</ele>
        <time>2025-05-17T07:36:44Z</time>
      </trkpt>
      <trkpt lat="43.947092983871698" lon="4.81451204046607">
        <ele>20.32</ele>
        <time>2025-05-17T07:36:45Z</time>
      </trkpt>
      <trkpt lat="43.946993993595243" lon="4.81427701190114">
        <ele>19.84</ele>
        <time>2025-05-17T07:36:46Z</time>
      </trkpt>
      <trkpt lat="43.946981001645327" lon="4.81427600607276">
        <ele>19.359999999999999</ele>
        <time>2025-05-17T07:36:47Z</time>
      </trkpt>
      <trkpt lat="43.947121985256672" lon="4.814365021884441">
        <ele>18.399999999999999</ele>
        <time>2025-05-17T07:36:49Z</time>
      </trkpt>
      <trkpt lat="43.94722499884665" lon="4.81382698751986">
        <ele>12.630000000000001</ele>
        <time>2025-05-17T07:36:58Z</time>
      </trkpt>
      <trkpt lat="43.947265986353159" lon="4.813663959503174">
        <ele>11.67</ele>
        <time>2025-05-17T07:37:00Z</time>
      </trkpt>
      <trkpt lat="43.947295993566513" lon="4.813511995598674">
        <ele>10.23</ele>
        <time>2025-05-17T07:37:02Z</time>
      </trkpt>
      <trkpt lat="43.94731099717319" lon="4.813437983393669">
        <ele>9.75</ele>
        <time>2025-05-17T07:37:03Z</time>
      </trkpt>
      <trkpt lat="43.947322983294725" lon="4.813378974795342">
        <ele>9.27</ele>
        <time>2025-05-17T07:37:04Z</time>
      </trkpt>
      <trkpt lat="43.947335975244641" lon="4.813312003389001">
        <ele>8.789999999999999</ele>
        <time>2025-05-17T07:37:05Z</time>
      </trkpt>
      <trkpt lat="43.947350978851318" lon="4.813234973698854">
        <ele>8.310000000000001</ele>
        <time>2025-05-17T07:37:06Z</time>
      </trkpt>
      <trkpt lat="43.947361959144473" lon="4.813174959272146">
        <ele>7.83</ele>
        <time>2025-05-17T07:37:07Z</time>
      </trkpt>
      <trkpt lat="43.947375034913421" lon="4.813098013401032">
        <ele>7.35</ele>
        <time>2025-05-17T07:37:08Z</time>
      </trkpt>
      <trkpt lat="43.947390038520098" lon="4.813013020902872">
        <ele>6.87</ele>
        <time>2025-05-17T07:37:09Z</time>
      </trkpt>
      <trkpt lat="43.947436977177858" lon="4.812741028144956">
        <ele>5.42</ele>
        <time>2025-05-17T07:37:12Z</time>
      </trkpt>
      <trkpt lat="43.947448963299394" lon="4.812684031203389">
        <ele>4.94</ele>
        <time>2025-05-17T07:37:13Z</time>
      </trkpt>
      <trkpt lat="43.947510989382863" lon="4.812388988211751">
        <ele>2.06</ele>
        <time>2025-05-17T07:37:21Z</time>
      </trkpt>
      <trkpt lat="43.94754602573812" lon="4.812217997387052">
        <ele>2.54</ele>
        <time>2025-05-17T07:37:33Z</time>
      </trkpt>
      <trkpt lat="43.947338992729783" lon="4.812225960195065">
        <ele>0.62</ele>
        <time>2025-05-17T07:37:37Z</time>
      </trkpt>
      <trkpt lat="43.947272021323442" lon="4.812225960195065">
        <ele>0.14</ele>
        <time>2025-05-17T07:37:38Z</time>
      </trkpt>
      <trkpt lat="43.947091978043318" lon="4.812225960195065">
        <ele>-1.79</ele>
        <time>2025-05-17T07:37:41Z</time>
      </trkpt>
      <trkpt lat="43.947040010243654" lon="4.812225960195065">
        <ele>-2.27</ele>
        <time>2025-05-17T07:37:42Z</time>
      </trkpt>
      <trkpt lat="43.94694403745234" lon="4.812225960195065">
        <ele>-3.23</ele>
        <time>2025-05-17T07:37:43Z</time>
      </trkpt>
      <trkpt lat="43.946935990825295" lon="4.812224032357335">
        <ele>-3.71</ele>
        <time>2025-05-17T07:37:44Z</time>
      </trkpt>
      <trkpt lat="43.946875976398587" lon="4.812207017093897">
        <ele>-4.19</ele>
        <time>2025-05-17T07:37:45Z</time>
      </trkpt>
      <trkpt lat="43.9465990383178" lon="4.81212998740375">
        <ele>-7.55</ele>
        <time>2025-05-17T07:37:50Z</time>
      </trkpt>
      <trkpt lat="43.946154965087771" lon="4.811962014064193">
        <ele>-11.880000000000001</ele>
        <time>2025-05-17T07:37:59Z</time>
      </trkpt>
      <trkpt lat="43.9460429828614" lon="4.811882972717285">
        <ele>-11.880000000000001</ele>
        <time>2025-05-17T07:38:00Z</time>
      </trkpt>
      <trkpt lat="43.9460429828614" lon="4.811882972717285">
        <ele>-9.48</ele>
        <time>2025-05-17T07:38:10Z</time>
      </trkpt>
      <trkpt lat="43.946049017831683" lon="4.811888001859188">
        <ele>-8.51</ele>
        <time>2025-05-17T07:38:11Z</time>
      </trkpt>
      <trkpt lat="43.9460429828614" lon="4.811882972717285">
        <ele>-8.029999999999999</ele>
        <time>2025-05-17T07:38:12Z</time>
      </trkpt>
      <trkpt lat="43.946009958162904" lon="4.811809966340661">
        <ele>-7.55</ele>
        <time>2025-05-17T07:38:13Z</time>
      </trkpt>
      <trkpt lat="43.945980034768581" lon="4.811744000762701">
        <ele>-8.029999999999999</ele>
        <time>2025-05-17T07:38:14Z</time>
      </trkpt>
      <trkpt lat="43.945869980379939" lon="4.811497991904616">
        <ele>-8.51</ele>
        <time>2025-05-17T07:38:17Z</time>
      </trkpt>
      <trkpt lat="43.945796974003315" lon="4.811334041878581">
        <ele>-9</ele>
        <time>2025-05-17T07:38:19Z</time>
      </trkpt>
      <trkpt lat="43.945694966241717" lon="4.811106976121664">
        <ele>-8.51</ele>
        <time>2025-05-17T07:38:22Z</time>
      </trkpt>
      <trkpt lat="43.945664037019014" lon="4.811036987230182">
        <ele>-8.51</ele>
        <time>2025-05-17T07:38:23Z</time>
      </trkpt>
      <trkpt lat="43.945632018148899" lon="4.810965992510319">
        <ele>-8.029999999999999</ele>
        <time>2025-05-17T07:38:24Z</time>
      </trkpt>
      <trkpt lat="43.945602010935545" lon="4.810898015275598">
        <ele>-8.029999999999999</ele>
        <time>2025-05-17T07:38:25Z</time>
      </trkpt>
      <trkpt lat="43.945573009550571" lon="4.810833977535367">
        <ele>-7.55</ele>
        <time>2025-05-17T07:38:26Z</time>
      </trkpt>
      <trkpt lat="43.945545013993979" lon="4.810772035270929">
        <ele>-7.55</ele>
        <time>2025-05-17T07:38:27Z</time>
      </trkpt>
      <trkpt lat="43.945519030094147" lon="4.810715038329363">
        <ele>-7.07</ele>
        <time>2025-05-17T07:38:28Z</time>
      </trkpt>
      <trkpt lat="43.94539900124073" lon="4.810444973409176">
        <ele>-5.63</ele>
        <time>2025-05-17T07:38:31Z</time>
      </trkpt>
      <trkpt lat="43.94539900124073" lon="4.810444973409176">
        <ele>-4.67</ele>
        <time>2025-05-17T07:38:32Z</time>
      </trkpt>
      <trkpt lat="43.945383997634053" lon="4.810410020872951">
        <ele>-4.19</ele>
        <time>2025-05-17T07:38:33Z</time>
      </trkpt>
      <trkpt lat="43.945334041491151" lon="4.810295021161437">
        <ele>-3.71</ele>
        <time>2025-05-17T07:38:34Z</time>
      </trkpt>
      <trkpt lat="43.94533202983439" lon="4.810286974534392">
        <ele>-3.23</ele>
        <time>2025-05-17T07:38:35Z</time>
      </trkpt>
      <trkpt lat="43.945307973772287" lon="4.810212040320039">
        <ele>-2.27</ele>
        <time>2025-05-17T07:38:36Z</time>
      </trkpt>
      <trkpt lat="43.945282995700836" lon="4.810131993144751">
        <ele>-0.82</ele>
        <time>2025-05-17T07:38:37Z</time>
      </trkpt>
      <trkpt lat="43.945257011801004" lon="4.810051023960114">
        <ele>0.62</ele>
        <time>2025-05-17T07:38:38Z</time>
      </trkpt>
      <trkpt lat="43.945084009319544" lon="4.809503015130758">
        <ele>7.35</ele>
        <time>2025-05-17T07:38:47Z</time>
      </trkpt>
      <trkpt lat="43.94507696852088" lon="4.809479964897037">
        <ele>8.310000000000001</ele>
        <time>2025-05-17T07:38:48Z</time>
      </trkpt>
      <trkpt lat="43.945064982399344" lon="4.809489017352462">
        <ele>9.27</ele>
        <time>2025-05-17T07:38:49Z</time>
      </trkpt>
      <trkpt lat="43.945028018206358" lon="4.809519024565816">
        <ele>9.27</ele>
        <time>2025-05-17T07:38:50Z</time>
      </trkpt>
      <trkpt lat="43.944984013214707" lon="4.809553977102041">
        <ele>9.75</ele>
        <time>2025-05-17T07:38:51Z</time>
      </trkpt>
      <trkpt lat="43.944937996566296" lon="4.809591025114059">
        <ele>10.23</ele>
        <time>2025-05-17T07:38:52Z</time>
      </trkpt>
      <trkpt lat="43.94486197270453" lon="4.809651039540768">
        <ele>10.710000000000001</ele>
        <time>2025-05-17T07:38:53Z</time>
      </trkpt>
      <trkpt lat="43.944858033210039" lon="4.809662019833922">
        <ele>10.710000000000001</ele>
        <time>2025-05-17T07:38:54Z</time>
      </trkpt>
      <trkpt lat="43.944841017946601" lon="4.809706024825573">
        <ele>11.19</ele>
        <time>2025-05-17T07:38:55Z</time>
      </trkpt>
      <trkpt lat="43.94481997936964" lon="4.809756986796856">
        <ele>11.67</ele>
        <time>2025-05-17T07:38:56Z</time>
      </trkpt>
      <trkpt lat="43.944761976599693" lon="4.809854971244931">
        <ele>12.15</ele>
        <time>2025-05-17T07:38:58Z</time>
      </trkpt>
      <trkpt lat="43.944734986871481" lon="4.809906017035246">
        <ele>12.15</ele>
        <time>2025-05-17T07:38:59Z</time>
      </trkpt>
      <trkpt lat="43.944709002971649" lon="4.809957984834909">
        <ele>13.119999999999999</ele>
        <time>2025-05-17T07:39:00Z</time>
      </trkpt>
      <trkpt lat="43.944683019071817" lon="4.810010036453605">
        <ele>13.119999999999999</ele>
        <time>2025-05-17T07:39:01Z</time>
      </trkpt>
      <trkpt lat="43.94464798271656" lon="4.810081031173468">
        <ele>13.119999999999999</ele>
        <time>2025-05-17T07:39:02Z</time>
      </trkpt>
      <trkpt lat="43.944628033787012" lon="4.810121012851596">
        <ele>13.6</ele>
        <time>2025-05-17T07:39:03Z</time>
      </trkpt>
      <trkpt lat="43.944591991603374" lon="4.810183960944414">
        <ele>13.6</ele>
        <time>2025-05-17T07:39:04Z</time>
      </trkpt>
      <trkpt lat="43.944555027410388" lon="4.810249004513025">
        <ele>14.08</ele>
        <time>2025-05-17T07:39:05Z</time>
      </trkpt>
      <trkpt lat="43.944520996883512" lon="4.810322010889649">
        <ele>14.08</ele>
        <time>2025-05-17T07:39:06Z</time>
      </trkpt>
      <trkpt lat="43.944486966356635" lon="4.810405997559428">
        <ele>14.08</ele>
        <time>2025-05-17T07:39:07Z</time>
      </trkpt>
      <trkpt lat="43.944296026602387" lon="4.810885023325682">
        <ele>14.56</ele>
        <time>2025-05-17T07:39:13Z</time>
      </trkpt>
      <trkpt lat="43.944271970540285" lon="4.810954006388784">
        <ele>15.039999999999999</ele>
        <time>2025-05-17T07:39:14Z</time>
      </trkpt>
      <trkpt lat="43.944240035489202" lon="4.811046039685607">
        <ele>15.039999999999999</ele>
        <time>2025-05-17T07:39:15Z</time>
      </trkpt>
      <trkpt lat="43.944231988862157" lon="4.811060037463903">
        <ele>15.039999999999999</ele>
        <time>2025-05-17T07:39:16Z</time>
      </trkpt>
      <trkpt lat="43.944201981648803" lon="4.811115022748709">
        <ele>15.039999999999999</ele>
        <time>2025-05-17T07:39:17Z</time>
      </trkpt>
      <trkpt lat="43.944170968607068" lon="4.811170008033514">
        <ele>15.039999999999999</ele>
        <time>2025-05-17T07:39:18Z</time>
      </trkpt>
      <trkpt lat="43.944141967222095" lon="4.811222981661558">
        <ele>15.039999999999999</ele>
        <time>2025-05-17T07:39:19Z</time>
      </trkpt>
      <trkpt lat="43.94410902634263" lon="4.811281990259886">
        <ele>15.039999999999999</ele>
        <time>2025-05-17T07:39:20Z</time>
      </trkpt>
      <trkpt lat="43.944077007472515" lon="4.811338987201452">
        <ele>15.039999999999999</ele>
        <time>2025-05-17T07:39:21Z</time>
      </trkpt>
      <trkpt lat="43.943918002769351" lon="4.811625983566046">
        <ele>15.039999999999999</ele>
        <time>2025-05-17T07:39:25Z</time>
      </trkpt>
      <trkpt lat="43.943918002769351" lon="4.811625983566046">
        <ele>14.56</ele>
        <time>2025-05-17T07:39:26Z</time>
      </trkpt>
      <trkpt lat="43.9438930246979" lon="4.811663031578064">
        <ele>15.039999999999999</ele>
        <time>2025-05-17T07:39:27Z</time>
      </trkpt>
      <trkpt lat="43.943618014454842" lon="4.812076007947326">
        <ele>19.359999999999999</ele>
        <time>2025-05-17T07:39:35Z</time>
      </trkpt>
      <trkpt lat="43.943618014454842" lon="4.812076007947326">
        <ele>20.32</ele>
        <time>2025-05-17T07:39:36Z</time>
      </trkpt>
      <trkpt lat="43.94355297088623" lon="4.812140967696905">
        <ele>21.77</ele>
        <time>2025-05-17T07:39:39Z</time>
      </trkpt>
      <trkpt lat="43.94355297088623" lon="4.812140967696905">
        <ele>23.210000000000001</ele>
        <time>2025-05-17T07:39:45Z</time>
      </trkpt>
      <trkpt lat="43.943451968953013" lon="4.811716005206108">
        <ele>25.129999999999999</ele>
        <time>2025-05-17T07:39:49Z</time>
      </trkpt>
      <trkpt lat="43.942821985110641" lon="4.810410020872951">
        <ele>25.609999999999999</ele>
        <time>2025-05-17T07:40:01Z</time>
      </trkpt>
      <trkpt lat="43.942778985947371" lon="4.810183960944414">
        <ele>24.649999999999999</ele>
        <time>2025-05-17T07:40:03Z</time>
      </trkpt>
      <trkpt lat="43.942737998440862" lon="4.809972988441587">
        <ele>24.170000000000002</ele>
        <time>2025-05-17T07:40:05Z</time>
      </trkpt>
      <trkpt lat="43.942716959863901" lon="4.809890007600188">
        <ele>24.170000000000002</ele>
        <time>2025-05-17T07:40:06Z</time>
      </trkpt>
      <trkpt lat="43.942694999277592" lon="4.809801997616887">
        <ele>23.690000000000001</ele>
        <time>2025-05-17T07:40:07Z</time>
      </trkpt>
      <trkpt lat="43.942716959863901" lon="4.809501003473997">
        <ele>22.73</ele>
        <time>2025-05-17T07:40:08Z</time>
      </trkpt>
      <trkpt lat="43.942716959863901" lon="4.809501003473997">
        <ele>21.77</ele>
        <time>2025-05-17T07:40:09Z</time>
      </trkpt>
      <trkpt lat="43.942707991227508" lon="4.809459010139108">
        <ele>20.809999999999999</ele>
        <time>2025-05-17T07:40:10Z</time>
      </trkpt>
      <trkpt lat="43.942662980407476" lon="4.809239991009235">
        <ele>19.359999999999999</ele>
        <time>2025-05-17T07:40:12Z</time>
      </trkpt>
      <trkpt lat="43.942768005654216" lon="4.808408003300428">
        <ele>15.52</ele>
        <time>2025-05-17T07:40:20Z</time>
      </trkpt>
      <trkpt lat="43.942760964855552" lon="4.80832401663065">
        <ele>15.039999999999999</ele>
        <time>2025-05-17T07:40:21Z</time>
      </trkpt>
      <trkpt lat="43.942753002047539" lon="4.808228965848684">
        <ele>14.08</ele>
        <time>2025-05-17T07:40:22Z</time>
      </trkpt>
      <trkpt lat="43.942725006490946" lon="4.807687997817993">
        <ele>8.310000000000001</ele>
        <time>2025-05-17T07:40:27Z</time>
      </trkpt>
      <trkpt lat="43.942733975127339" lon="4.80757299810648">
        <ele>6.39</ele>
        <time>2025-05-17T07:40:28Z</time>
      </trkpt>
      <trkpt lat="43.942751996219158" lon="4.807327995076776">
        <ele>2.54</ele>
        <time>2025-05-17T07:40:30Z</time>
      </trkpt>
      <trkpt lat="43.942759959027171" lon="4.807211989536881">
        <ele>1.1</ele>
        <time>2025-05-17T07:40:31Z</time>
      </trkpt>
      <trkpt lat="43.942780997604132" lon="4.806840000674129">
        <ele>-2.75</ele>
        <time>2025-05-17T07:40:33Z</time>
      </trkpt>
      <trkpt lat="43.942791977897286" lon="4.806708991527557">
        <ele>-8.029999999999999</ele>
        <time>2025-05-17T07:40:36Z</time>
      </trkpt>
      <trkpt lat="43.94279801286757" lon="4.806643025949597">
        <ele>-9.960000000000001</ele>
        <time>2025-05-17T07:40:37Z</time>
      </trkpt>
      <trkpt lat="43.942802036181092" lon="4.806588040664792">
        <ele>-11.4</ele>
        <time>2025-05-17T07:40:38Z</time>
      </trkpt>
      <trkpt lat="43.942805975675583" lon="4.806547975167632">
        <ele>-14.76</ele>
        <time>2025-05-17T07:40:44Z</time>
      </trkpt>
      <trkpt lat="43.942780997604132" lon="4.806840000674129">
        <ele>-18.609999999999999</ele>
        <time>2025-05-17T07:40:48Z</time>
      </trkpt>
      <trkpt lat="43.942780997604132" lon="4.806840000674129">
        <ele>-19.57</ele>
        <time>2025-05-17T07:40:49Z</time>
      </trkpt>
      <trkpt lat="43.942764988169074" lon="4.807133032009006">
        <ele>-21.489999999999998</ele>
        <time>2025-05-17T07:40:54Z</time>
      </trkpt>
      <trkpt lat="43.942759959027171" lon="4.807212995365262">
        <ele>-21.969999999999999</ele>
        <time>2025-05-17T07:40:55Z</time>
      </trkpt>
      <trkpt lat="43.942759959027171" lon="4.807226993143559">
        <ele>-22.449999999999999</ele>
        <time>2025-05-17T07:40:56Z</time>
      </trkpt>
      <trkpt lat="43.942748978734016" lon="4.807374011725187">
        <ele>-22.449999999999999</ele>
        <time>2025-05-17T07:40:57Z</time>
      </trkpt>
      <trkpt lat="43.942742021754384" lon="4.807461015880108">
        <ele>-22.449999999999999</ele>
        <time>2025-05-17T07:40:58Z</time>
      </trkpt>
      <trkpt lat="43.942735986784101" lon="4.807543996721506">
        <ele>-22.449999999999999</ele>
        <time>2025-05-17T07:40:59Z</time>
      </trkpt>
      <trkpt lat="43.942730035632849" lon="4.807626977562904">
        <ele>-22.449999999999999</ele>
        <time>2025-05-17T07:41:00Z</time>
      </trkpt>
      <trkpt lat="43.942716959863901" lon="4.807806015014648">
        <ele>-22.93</ele>
        <time>2025-05-17T07:41:01Z</time>
      </trkpt>
      <trkpt lat="43.942726012319326" lon="4.807912968099117">
        <ele>-22.93</ele>
        <time>2025-05-17T07:41:03Z</time>
      </trkpt>
      <trkpt lat="43.942732969298959" lon="4.807993015274406">
        <ele>-22.93</ele>
        <time>2025-05-17T07:41:04Z</time>
      </trkpt>
      <trkpt lat="43.942759959027171" lon="4.808311024680734">
        <ele>-21.489999999999998</ele>
        <time>2025-05-17T07:41:08Z</time>
      </trkpt>
      <trkpt lat="43.942768005654216" lon="4.808401968330145">
        <ele>-17.649999999999999</ele>
        <time>2025-05-17T07:41:10Z</time>
      </trkpt>
      <trkpt lat="43.942871019244194" lon="4.808523003011942">
        <ele>-15.720000000000001</ele>
        <time>2025-05-17T07:41:11Z</time>
      </trkpt>
      <trkpt lat="43.942886022850871" lon="4.808516968041658">
        <ele>-14.279999999999999</ele>
        <time>2025-05-17T07:41:12Z</time>
      </trkpt>
      <trkpt lat="43.943047039210796" lon="4.808455025777221">
        <ele>-13.32</ele>
        <time>2025-05-17T07:41:16Z</time>
      </trkpt>
      <trkpt lat="43.943105963990092" lon="4.808431975543499">
        <ele>-13.32</ele>
        <time>2025-05-17T07:41:17Z</time>
      </trkpt>
      <trkpt lat="43.943167990073562" lon="4.808408003300428">
        <ele>-13.32</ele>
        <time>2025-05-17T07:41:18Z</time>
      </trkpt>
      <trkpt lat="43.94322901032865" lon="4.808385036885738">
        <ele>-13.32</ele>
        <time>2025-05-17T07:41:19Z</time>
      </trkpt>
      <trkpt lat="43.943291958421469" lon="4.808360980823636">
        <ele>-13.800000000000001</ele>
        <time>2025-05-17T07:41:20Z</time>
      </trkpt>
      <trkpt lat="43.943350967019796" lon="4.808338014408946">
        <ele>-14.279999999999999</ele>
        <time>2025-05-17T07:41:21Z</time>
      </trkpt>
      <trkpt lat="43.943409975618124" lon="4.808314964175224">
        <ele>-14.76</ele>
        <time>2025-05-17T07:41:22Z</time>
      </trkpt>
      <trkpt lat="43.943474013358355" lon="4.808290991932154">
        <ele>-15.24</ele>
        <time>2025-05-17T07:41:23Z</time>
      </trkpt>
      <trkpt lat="43.943697977811098" lon="4.808203987777233">
        <ele>-17.649999999999999</ele>
        <time>2025-05-17T07:41:27Z</time>
      </trkpt>
      <trkpt lat="43.943750029429793" lon="4.808184960857034">
        <ele>-18.129999999999999</ele>
        <time>2025-05-17T07:41:28Z</time>
      </trkpt>
      <trkpt lat="43.943804008886218" lon="4.808164006099105">
        <ele>-19.09</ele>
        <time>2025-05-17T07:41:29Z</time>
      </trkpt>
      <trkpt lat="43.943861005827785" lon="4.808141961693764">
        <ele>-19.57</ele>
        <time>2025-05-17T07:41:30Z</time>
      </trkpt>
      <trkpt lat="43.943911967799067" lon="4.808120001107454">
        <ele>-20.050000000000001</ele>
        <time>2025-05-17T07:41:31Z</time>
      </trkpt>
      <trkpt lat="43.944185972213745" lon="4.807983040809631">
        <ele>-23.41</ele>
        <time>2025-05-17T07:41:36Z</time>
      </trkpt>
      <trkpt lat="43.944229977205396" lon="4.80796099640429">
        <ele>-23.899999999999999</ele>
        <time>2025-05-17T07:41:37Z</time>
      </trkpt>
      <trkpt lat="43.944257972761989" lon="4.807946998625994">
        <ele>-24.859999999999999</ele>
        <time>2025-05-17T07:41:38Z</time>
      </trkpt>
      <trkpt lat="43.944276999682188" lon="4.8079380299896">
        <ele>-25.34</ele>
        <time>2025-05-17T07:41:39Z</time>
      </trkpt>
      <trkpt lat="43.944296026602387" lon="4.807927971705794">
        <ele>-26.300000000000001</ele>
        <time>2025-05-17T07:41:40Z</time>
      </trkpt>
      <trkpt lat="43.944327039644122" lon="4.807912968099117">
        <ele>-26.780000000000001</ele>
        <time>2025-05-17T07:41:41Z</time>
      </trkpt>
      <trkpt lat="43.944354029372334" lon="4.807899976149201">
        <ele>-27.739999999999998</ele>
        <time>2025-05-17T07:41:42Z</time>
      </trkpt>
      <trkpt lat="43.944380013272166" lon="4.807885978370905">
        <ele>-28.219999999999999</ele>
        <time>2025-05-17T07:41:43Z</time>
      </trkpt>
      <trkpt lat="43.944529965519905" lon="4.807698978111148">
        <ele>-27.739999999999998</ele>
        <time>2025-05-17T07:41:50Z</time>
      </trkpt>
      <trkpt lat="43.944558966904879" lon="4.807656984776259">
        <ele>-28.699999999999999</ele>
        <time>2025-05-17T07:41:51Z</time>
      </trkpt>
      <trkpt lat="43.944587968289852" lon="4.807614991441369">
        <ele>-29.66</ele>
        <time>2025-05-17T07:41:52Z</time>
      </trkpt>
      <trkpt lat="43.944662986323237" lon="4.807569980621338">
        <ele>-30.140000000000001</ele>
        <time>2025-05-17T07:41:53Z</time>
      </trkpt>
      <trkpt lat="43.94471101462841" lon="4.8075529653579">
        <ele>-31.109999999999999</ele>
        <time>2025-05-17T07:41:54Z</time>
      </trkpt>
      <trkpt lat="43.944755019620061" lon="4.807537039741874">
        <ele>-31.59</ele>
        <time>2025-05-17T07:41:55Z</time>
      </trkpt>
      <trkpt lat="43.94479600712657" lon="4.807522036135197">
        <ele>-32.549999999999997</ele>
        <time>2025-05-17T07:41:56Z</time>
      </trkpt>
      <trkpt lat="43.944878987967968" lon="4.807499991729856">
        <ele>-33.509999999999998</ele>
        <time>2025-05-17T07:42:04Z</time>
      </trkpt>
      <trkpt lat="43.944878987967968" lon="4.807499991729856">
        <ele>-37.350000000000001</ele>
        <time>2025-05-17T07:42:18Z</time>
      </trkpt>
      <trkpt lat="43.944890974089503" lon="4.807360013946891">
        <ele>34.740000000000002</ele>
        <time>2025-05-17T07:44:08Z</time>
      </trkpt>
      <trkpt lat="43.945132037624717" lon="4.807384992018342">
        <ele>-16.690000000000001</ele>
        <time>2025-05-17T07:44:19Z</time>
      </trkpt>
      <trkpt lat="43.94522599875927" lon="4.807407958433032">
        <ele>-51.770000000000003</ele>
        <time>2025-05-17T07:44:31Z</time>
      </trkpt>
      <trkpt lat="43.94529196433723" lon="4.807463027536869">
        <ele>-58.5</ele>
        <time>2025-05-17T07:44:36Z</time>
      </trkpt>
      <trkpt lat="43.94529196433723" lon="4.807463027536869">
        <ele>-60.909999999999997</ele>
        <time>2025-05-17T07:44:37Z</time>
      </trkpt>
      <trkpt lat="43.945301016792655" lon="4.80746696703136">
        <ele>-61.869999999999997</ele>
        <time>2025-05-17T07:44:38Z</time>
      </trkpt>
      <trkpt lat="43.945107981562614" lon="4.808137016370893">
        <ele>-76.769999999999996</ele>
        <time>2025-05-17T07:44:50Z</time>
      </trkpt>
      <trkpt lat="43.945103036239743" lon="4.808241035789251">
        <ele>-82.060000000000002</ele>
        <time>2025-05-17T07:44:53Z</time>
      </trkpt>
      <trkpt lat="43.945102030411363" lon="4.808280011638999">
        <ele>-80.129999999999995</ele>
        <time>2025-05-17T07:44:54Z</time>
      </trkpt>
      <trkpt lat="43.94509800709784" lon="4.808342959731817">
        <ele>-88.299999999999997</ele>
        <time>2025-05-17T07:45:08Z</time>
      </trkpt>
      <trkpt lat="43.945095995441079" lon="4.808399034664035">
        <ele>-94.549999999999997</ele>
        <time>2025-05-17T07:45:22Z</time>
      </trkpt>
      <trkpt lat="43.945089038461447" lon="4.808527026325464">
        <ele>-95.989999999999995</ele>
        <time>2025-05-17T07:45:24Z</time>
      </trkpt>
      <trkpt lat="43.945084009319544" lon="4.808622999116778">
        <ele>-95.510000000000005</ele>
        <time>2025-05-17T07:45:25Z</time>
      </trkpt>
      <trkpt lat="43.945060037076473" lon="4.809114011004567">
        <ele>-89.269999999999996</ele>
        <time>2025-05-17T07:45:32Z</time>
      </trkpt>
      <trkpt lat="43.945057019591331" lon="4.809171007946134">
        <ele>-86.379999999999995</ele>
        <time>2025-05-17T07:45:33Z</time>
      </trkpt>
      <trkpt lat="43.945056013762951" lon="4.809201015159488">
        <ele>-83.980000000000004</ele>
        <time>2025-05-17T07:45:34Z</time>
      </trkpt>
      <trkpt lat="43.944858033210039" lon="4.809663025662303">
        <ele>-65.709999999999994</ele>
        <time>2025-05-17T07:45:41Z</time>
      </trkpt>
      <trkpt lat="43.944817967712879" lon="4.809762015938759">
        <ele>-62.350000000000001</ele>
        <time>2025-05-17T07:45:42Z</time>
      </trkpt>
      <trkpt lat="43.944742027670145" lon="4.80989302508533">
        <ele>-55.619999999999997</ele>
        <time>2025-05-17T07:45:44Z</time>
      </trkpt>
      <trkpt lat="43.944712020456791" lon="4.809952033683658">
        <ele>-53.219999999999999</ele>
        <time>2025-05-17T07:45:45Z</time>
      </trkpt>
      <trkpt lat="43.944684024900198" lon="4.810008024796844">
        <ele>-51.289999999999999</ele>
        <time>2025-05-17T07:45:46Z</time>
      </trkpt>
      <trkpt lat="43.944588974118233" lon="4.810187984257937">
        <ele>-48.409999999999997</ele>
        <time>2025-05-17T07:45:49Z</time>
      </trkpt>
      <trkpt lat="43.944528037682176" lon="4.810303989797831">
        <ele>-46.490000000000002</ele>
        <time>2025-05-17T07:45:51Z</time>
      </trkpt>
      <trkpt lat="43.944457964971662" lon="4.810479003936052">
        <ele>-45.039999999999999</ele>
        <time>2025-05-17T07:45:53Z</time>
      </trkpt>
      <trkpt lat="43.944258978590369" lon="4.810991976410151">
        <ele>-42.159999999999997</ele>
        <time>2025-05-17T07:45:59Z</time>
      </trkpt>
      <trkpt lat="43.94419401884079" lon="4.811129020527005">
        <ele>-42.159999999999997</ele>
        <time>2025-05-17T07:46:01Z</time>
      </trkpt>
      <trkpt lat="43.944161999970675" lon="4.811186017468572">
        <ele>-42.159999999999997</ele>
        <time>2025-05-17T07:46:02Z</time>
      </trkpt>
      <trkpt lat="43.94411196000874" lon="4.811277966946363">
        <ele>-40.240000000000002</ele>
        <time>2025-05-17T07:46:04Z</time>
      </trkpt>
      <trkpt lat="43.944086981937289" lon="4.811321971938014">
        <ele>-38.32</ele>
        <time>2025-05-17T07:46:05Z</time>
      </trkpt>
      <trkpt lat="43.944050017744303" lon="4.811389027163386">
        <ele>-36.390000000000001</ele>
        <time>2025-05-17T07:46:06Z</time>
      </trkpt>
      <trkpt lat="43.943918002769351" lon="4.811625983566046">
        <ele>-35.909999999999997</ele>
        <time>2025-05-17T07:46:08Z</time>
      </trkpt>
      <trkpt lat="43.943918002769351" lon="4.811625983566046">
        <ele>-34.950000000000003</ele>
        <time>2025-05-17T07:46:09Z</time>
      </trkpt>
      <trkpt lat="43.943735025823116" lon="4.811899987980723">
        <ele>-29.18</ele>
        <time>2025-05-17T07:46:13Z</time>
      </trkpt>
      <trkpt lat="43.943618014454842" lon="4.812076007947326">
        <ele>-16.690000000000001</ele>
        <time>2025-05-17T07:46:16Z</time>
      </trkpt>
      <trkpt lat="43.94355297088623" lon="4.812140967696905">
        <ele>-15.720000000000001</ele>
        <time>2025-05-17T07:46:17Z</time>
      </trkpt>
      <trkpt lat="43.943588007241488" lon="4.812388988211751">
        <ele>-13.800000000000001</ele>
        <time>2025-05-17T07:46:19Z</time>
      </trkpt>
      <trkpt lat="43.943835021927953" lon="4.813602017238736">
        <ele>-8.51</ele>
        <time>2025-05-17T07:46:30Z</time>
      </trkpt>
      <trkpt lat="43.943922026082873" lon="4.814079031348229">
        <ele>-3.23</ele>
        <time>2025-05-17T07:46:38Z</time>
      </trkpt>
      <trkpt lat="43.943922026082873" lon="4.814086994156241">
        <ele>-2.75</ele>
        <time>2025-05-17T07:47:01Z</time>
      </trkpt>
      <trkpt lat="43.943927977234125" lon="4.814251028001308">
        <ele>2.54</ele>
        <time>2025-05-17T07:47:09Z</time>
      </trkpt>
      <trkpt lat="43.944024033844471" lon="4.814724018797278">
        <ele>8.789999999999999</ele>
        <time>2025-05-17T07:47:17Z</time>
      </trkpt>
      <trkpt lat="43.944029984995723" lon="4.814775986596942">
        <ele>9.27</ele>
        <time>2025-05-17T07:47:18Z</time>
      </trkpt>
      <trkpt lat="43.944016993045807" lon="4.814852010458708">
        <ele>13.6</ele>
        <time>2025-05-17T07:47:29Z</time>
      </trkpt>
      <trkpt lat="43.944017998874187" lon="4.814843041822314">
        <ele>14.56</ele>
        <time>2025-05-17T07:48:15Z</time>
      </trkpt>
      <trkpt lat="43.943832004442811" lon="4.815036999061704">
        <ele>17.920000000000002</ele>
        <time>2025-05-17T07:48:36Z</time>
      </trkpt>
      <trkpt lat="43.943832004442811" lon="4.815036999061704">
        <ele>18.879999999999999</ele>
        <time>2025-05-17T07:48:37Z</time>
      </trkpt>
      <trkpt lat="43.943879026919603" lon="4.815116040408611">
        <ele>19.359999999999999</ele>
        <time>2025-05-17T07:48:38Z</time>
      </trkpt>
      <trkpt lat="43.94391699694097" lon="4.815177982673049">
        <ele>19.359999999999999</ele>
        <time>2025-05-17T07:48:39Z</time>
      </trkpt>
      <trkpt lat="43.943961001932621" lon="4.815250989049673">
        <ele>18.879999999999999</ele>
        <time>2025-05-17T07:48:40Z</time>
      </trkpt>
      <trkpt lat="43.944008024409413" lon="4.815330030396581">
        <ele>18.879999999999999</ele>
        <time>2025-05-17T07:48:41Z</time>
      </trkpt>
      <trkpt lat="43.944784021005034" lon="4.816079959273338">
        <ele>17.920000000000002</ele>
        <time>2025-05-17T07:48:51Z</time>
      </trkpt>
      <trkpt lat="43.945059031248093" lon="4.816303001716733">
        <ele>16.960000000000001</ele>
        <time>2025-05-17T07:48:54Z</time>
      </trkpt>
      <trkpt lat="43.946137027814984" lon="4.817071035504341">
        <ele>15.52</ele>
        <time>2025-05-17T07:49:05Z</time>
      </trkpt>
      <trkpt lat="43.947174958884716" lon="4.817808978259563">
        <ele>14.08</ele>
        <time>2025-05-17T07:49:16Z</time>
      </trkpt>
      <trkpt lat="43.947433037683368" lon="4.817980974912643">
        <ele>14.56</ele>
        <time>2025-05-17T07:49:22Z</time>
      </trkpt>
      <trkpt lat="43.947549965232611" lon="4.818059010431171">
        <ele>14.56</ele>
        <time>2025-05-17T07:49:30Z</time>
      </trkpt>
      <trkpt lat="43.947799997404218" lon="4.818240981549025">
        <ele>16</ele>
        <time>2025-05-17T07:49:42Z</time>
      </trkpt>
      <trkpt lat="43.948244992643595" lon="4.818547004833818">
        <ele>16</ele>
        <time>2025-05-17T07:49:50Z</time>
      </trkpt>
      <trkpt lat="43.948383964598179" lon="4.818642977625132">
        <ele>16</ele>
        <time>2025-05-17T07:50:00Z</time>
      </trkpt>
      <trkpt lat="43.948415983468294" lon="4.818664016202092">
        <ele>16</ele>
        <time>2025-05-17T07:50:09Z</time>
      </trkpt>
      <trkpt lat="43.948892997577786" lon="4.81900398619473">
        <ele>16.48</ele>
        <time>2025-05-17T07:50:16Z</time>
      </trkpt>
      <trkpt lat="43.949768990278244" lon="4.819591976702213">
        <ele>16</ele>
        <time>2025-05-17T07:50:27Z</time>
      </trkpt>
      <trkpt lat="43.950003013014793" lon="4.819770008325577">
        <ele>16</ele>
        <time>2025-05-17T07:50:30Z</time>
      </trkpt>
      <trkpt lat="43.950054980814457" lon="4.81982197612524">
        <ele>15.52</ele>
        <time>2025-05-17T07:50:32Z</time>
      </trkpt>
      <trkpt lat="43.950141984969378" lon="4.820009982213378">
        <ele>15.52</ele>
        <time>2025-05-17T07:50:33Z</time>
      </trkpt>
      <trkpt lat="43.950194958597422" lon="4.820003025233746">
        <ele>15.52</ele>
        <time>2025-05-17T07:50:34Z</time>
      </trkpt>
      <trkpt lat="43.950252961367369" lon="4.819994978606701">
        <ele>15.52</ele>
        <time>2025-05-17T07:50:35Z</time>
      </trkpt>
      <trkpt lat="43.950311969965696" lon="4.819988021627069">
        <ele>15.039999999999999</ele>
        <time>2025-05-17T07:50:36Z</time>
      </trkpt>
      <trkpt lat="43.950367961078882" lon="4.819979975000024">
        <ele>15.039999999999999</ele>
        <time>2025-05-17T07:50:37Z</time>
      </trkpt>
      <trkpt lat="43.950419006869197" lon="4.819974023848772">
        <ele>15.039999999999999</ele>
        <time>2025-05-17T07:50:38Z</time>
      </trkpt>
      <trkpt lat="43.950465023517609" lon="4.819967988878489">
        <ele>14.56</ele>
        <time>2025-05-17T07:50:39Z</time>
      </trkpt>
      <trkpt lat="43.95051296800375" lon="4.819962037727237">
        <ele>14.56</ele>
        <time>2025-05-17T07:50:40Z</time>
      </trkpt>
      <trkpt lat="43.950562002137303" lon="4.819954996928573">
        <ele>14.56</ele>
        <time>2025-05-17T07:50:41Z</time>
      </trkpt>
      <trkpt lat="43.950911024585366" lon="4.819895988330245">
        <ele>14.08</ele>
        <time>2025-05-17T07:50:47Z</time>
      </trkpt>
      <trkpt lat="43.95096299238503" lon="4.819887019693852">
        <ele>14.08</ele>
        <time>2025-05-17T07:50:48Z</time>
      </trkpt>
      <trkpt lat="43.951055025681853" lon="4.819871010258794">
        <ele>14.08</ele>
        <time>2025-05-17T07:50:55Z</time>
      </trkpt>
      <trkpt lat="43.951082015410066" lon="4.819865981116891">
        <ele>14.08</ele>
        <time>2025-05-17T07:51:04Z</time>
      </trkpt>
      <trkpt lat="43.951137000694871" lon="4.819844020530582">
        <ele>14.56</ele>
        <time>2025-05-17T07:51:06Z</time>
      </trkpt>
      <trkpt lat="43.951189974322915" lon="4.819823987782002">
        <ele>15.039999999999999</ele>
        <time>2025-05-17T07:51:07Z</time>
      </trkpt>
      <trkpt lat="43.951252000406384" lon="4.81979800388217">
        <ele>15.039999999999999</ele>
        <time>2025-05-17T07:51:08Z</time>
      </trkpt>
      <trkpt lat="43.951315032318234" lon="4.819774031639099">
        <ele>15.52</ele>
        <time>2025-05-17T07:51:09Z</time>
      </trkpt>
      <trkpt lat="43.951406981796026" lon="4.819736983627081">
        <ele>16</ele>
        <time>2025-05-17T07:51:10Z</time>
      </trkpt>
      <trkpt lat="43.951450986787677" lon="4.81969297863543">
        <ele>16.48</ele>
        <time>2025-05-17T07:51:11Z</time>
      </trkpt>
      <trkpt lat="43.951514018699527" lon="4.819630030542612">
        <ele>16.960000000000001</ele>
        <time>2025-05-17T07:51:12Z</time>
      </trkpt>
      <trkpt lat="43.951575038954616" lon="4.819559035822749">
        <ele>17.440000000000001</ele>
        <time>2025-05-17T07:51:13Z</time>
      </trkpt>
      <trkpt lat="43.95162901841104" lon="4.819478988647461">
        <ele>17.440000000000001</ele>
        <time>2025-05-17T07:51:14Z</time>
      </trkpt>
      <trkpt lat="43.951682997867465" lon="4.819397013634443">
        <ele>17.920000000000002</ele>
        <time>2025-05-17T07:51:15Z</time>
      </trkpt>
      <trkpt lat="43.951925989240408" lon="4.818826960399747">
        <ele>18.879999999999999</ele>
        <time>2025-05-17T07:51:24Z</time>
      </trkpt>
      <trkpt lat="43.952036965638399" lon="4.81842496432364">
        <ele>19.359999999999999</ele>
        <time>2025-05-17T07:51:33Z</time>
      </trkpt>
      <trkpt lat="43.952196976169944" lon="4.817892964929342">
        <ele>19.84</ele>
        <time>2025-05-17T07:51:41Z</time>
      </trkpt>
      <trkpt lat="43.95251096226275" lon="4.816868025809526">
        <ele>20.809999999999999</ele>
        <time>2025-05-17T07:51:50Z</time>
      </trkpt>
      <trkpt lat="43.952656975015998" lon="4.816416995599866">
        <ele>20.809999999999999</ele>
        <time>2025-05-17T07:51:54Z</time>
      </trkpt>
      <trkpt lat="43.9526810310781" lon="4.816299984231591">
        <ele>20.809999999999999</ele>
        <time>2025-05-17T07:51:55Z</time>
      </trkpt>
      <trkpt lat="43.952987976372242" lon="4.815144035965204">
        <ele>22.25</ele>
        <time>2025-05-17T07:52:05Z</time>
      </trkpt>
      <trkpt lat="43.953021001070738" lon="4.814995005726814">
        <ele>22.25</ele>
        <time>2025-05-17T07:52:07Z</time>
      </trkpt>
      <trkpt lat="43.953083027154207" lon="4.814731981605291">
        <ele>22.73</ele>
        <time>2025-05-17T07:52:10Z</time>
      </trkpt>
      <trkpt lat="43.953109011054039" lon="4.814630979672074">
        <ele>22.73</ele>
        <time>2025-05-17T07:52:11Z</time>
      </trkpt>
      <trkpt lat="43.953136000782251" lon="4.814526960253716">
        <ele>23.210000000000001</ele>
        <time>2025-05-17T07:52:12Z</time>
      </trkpt>
      <trkpt lat="43.953416040167212" lon="4.813359025865793">
        <ele>23.690000000000001</ele>
        <time>2025-05-17T07:52:20Z</time>
      </trkpt>
      <trkpt lat="43.953574039041996" lon="4.812676990404725">
        <ele>23.690000000000001</ele>
        <time>2025-05-17T07:52:24Z</time>
      </trkpt>
      <trkpt lat="43.953588036820292" lon="4.812383959069848">
        <ele>23.210000000000001</ele>
        <time>2025-05-17T07:52:26Z</time>
      </trkpt>
      <trkpt lat="43.953574039041996" lon="4.810959035530686">
        <ele>22.25</ele>
        <time>2025-05-17T07:52:36Z</time>
      </trkpt>
      <trkpt lat="43.95358401350677" lon="4.809762015938759">
        <ele>23.210000000000001</ele>
        <time>2025-05-17T07:52:43Z</time>
      </trkpt>
      <trkpt lat="43.953664982691407" lon="4.809131026268005">
        <ele>24.170000000000002</ele>
        <time>2025-05-17T07:52:47Z</time>
      </trkpt>
      <trkpt lat="43.953749975189567" lon="4.808495007455349">
        <ele>24.649999999999999</ele>
        <time>2025-05-17T07:52:51Z</time>
      </trkpt>
      <trkpt lat="43.953737989068031" lon="4.807601999491453">
        <ele>23.210000000000001</ele>
        <time>2025-05-17T07:52:57Z</time>
      </trkpt>
      <trkpt lat="43.95373203791678" lon="4.807473002001643">
        <ele>23.210000000000001</ele>
        <time>2025-05-17T07:52:58Z</time>
      </trkpt>
      <trkpt lat="43.953704964369535" lon="4.807216012850404">
        <ele>22.73</ele>
        <time>2025-05-17T07:53:00Z</time>
      </trkpt>
      <trkpt lat="43.95364603959024" lon="4.806921975687146">
        <ele>22.73</ele>
        <time>2025-05-17T07:53:05Z</time>
      </trkpt>
      <trkpt lat="43.95364603959024" lon="4.806921975687146">
        <ele>22.73</ele>
        <time>2025-05-17T07:53:24Z</time>
      </trkpt>
      <trkpt lat="43.95364603959024" lon="4.806921975687146">
        <ele>22.73</ele>
        <time>2025-05-17T07:53:56Z</time>
      </trkpt>
      <trkpt lat="43.95364603959024" lon="4.806921975687146">
        <ele>22.73</ele>
        <time>2025-05-17T07:54:25Z</time>
      </trkpt>
      <trkpt lat="43.95364603959024" lon="4.806921975687146">
        <ele>22.25</ele>
        <time>2025-05-17T07:55:10Z</time>
      </trkpt>
      <trkpt lat="43.953617038205266" lon="4.806787027046084">
        <ele>23.210000000000001</ele>
        <time>2025-05-17T07:55:22Z</time>
      </trkpt>
      <trkpt lat="43.953543026000261" lon="4.806689964607358">
        <ele>23.690000000000001</ele>
        <time>2025-05-17T07:55:23Z</time>
      </trkpt>
      <trkpt lat="43.953484017401934" lon="4.806689964607358">
        <ele>23.690000000000001</ele>
        <time>2025-05-17T07:55:24Z</time>
      </trkpt>
      <trkpt lat="43.953419979661703" lon="4.806689964607358">
        <ele>23.690000000000001</ele>
        <time>2025-05-17T07:55:25Z</time>
      </trkpt>
      <trkpt lat="43.953356025740504" lon="4.806689964607358">
        <ele>23.210000000000001</ele>
        <time>2025-05-17T07:55:26Z</time>
      </trkpt>
      <trkpt lat="43.953298022970557" lon="4.806689964607358">
        <ele>22.73</ele>
        <time>2025-05-17T07:55:27Z</time>
      </trkpt>
      <trkpt lat="43.953245971351862" lon="4.806689964607358">
        <ele>22.73</ele>
        <time>2025-05-17T07:55:28Z</time>
      </trkpt>
      <trkpt lat="43.953187968581915" lon="4.806603966280818">
        <ele>22.25</ele>
        <time>2025-05-17T07:55:29Z</time>
      </trkpt>
      <trkpt lat="43.953158967196941" lon="4.806575970724225">
        <ele>21.77</ele>
        <time>2025-05-17T07:55:30Z</time>
      </trkpt>
      <trkpt lat="43.953112028539181" lon="4.806528026238084">
        <ele>21.289999999999999</ele>
        <time>2025-05-17T07:55:31Z</time>
      </trkpt>
      <trkpt lat="43.953081015497446" lon="4.806497013196349">
        <ele>20.809999999999999</ele>
        <time>2025-05-17T07:55:32Z</time>
      </trkpt>
      <trkpt lat="43.952995017170906" lon="4.806389976292849">
        <ele>20.32</ele>
        <time>2025-05-17T07:55:34Z</time>
      </trkpt>
      <trkpt lat="43.952978001907468" lon="4.806343037635088">
        <ele>19.84</ele>
        <time>2025-05-17T07:55:35Z</time>
      </trkpt>
      <trkpt lat="43.952955035492778" lon="4.806280005723238">
        <ele>19.359999999999999</ele>
        <time>2025-05-17T07:55:36Z</time>
      </trkpt>
      <trkpt lat="43.952933996915817" lon="4.80622099712491">
        <ele>18.879999999999999</ele>
        <time>2025-05-17T07:55:37Z</time>
      </trkpt>
      <trkpt lat="43.952914969995618" lon="4.806169029325247">
        <ele>18.399999999999999</ele>
        <time>2025-05-17T07:55:38Z</time>
      </trkpt>
      <trkpt lat="43.952899966388941" lon="4.806126030161977">
        <ele>17.440000000000001</ele>
        <time>2025-05-17T07:55:39Z</time>
      </trkpt>
      <trkpt lat="43.952886974439025" lon="4.80609099380672">
        <ele>17.440000000000001</ele>
        <time>2025-05-17T07:55:40Z</time>
      </trkpt>
      <trkpt lat="43.952886974439025" lon="4.80609099380672">
        <ele>16.960000000000001</ele>
        <time>2025-05-17T07:55:41Z</time>
      </trkpt>
      <trkpt lat="43.95281002856791" lon="4.80587599799037">
        <ele>15.039999999999999</ele>
        <time>2025-05-17T07:55:51Z</time>
      </trkpt>
      <trkpt lat="43.95281002856791" lon="4.80587599799037">
        <ele>14.08</ele>
        <time>2025-05-17T07:56:01Z</time>
      </trkpt>
      <trkpt lat="43.95281002856791" lon="4.80587599799037">
        <ele>13.6</ele>
        <time>2025-05-17T07:56:07Z</time>
      </trkpt>
      <trkpt lat="43.952857973054051" lon="4.806010024622083">
        <ele>11.19</ele>
        <time>2025-05-17T07:56:11Z</time>
      </trkpt>
      <trkpt lat="43.952889991924167" lon="4.806098034605384">
        <ele>11.19</ele>
        <time>2025-05-17T07:56:12Z</time>
      </trkpt>
      <trkpt lat="43.952970961108804" lon="4.806321999058127">
        <ele>9.75</ele>
        <time>2025-05-17T07:56:15Z</time>
      </trkpt>
      <trkpt lat="43.952995017170906" lon="4.806389976292849">
        <ele>9.27</ele>
        <time>2025-05-17T07:56:16Z</time>
      </trkpt>
      <trkpt lat="43.952995017170906" lon="4.806389976292849">
        <ele>8.310000000000001</ele>
        <time>2025-05-17T07:56:24Z</time>
      </trkpt>
      <trkpt lat="43.95306802354753" lon="4.806364998221397">
        <ele>7.83</ele>
        <time>2025-05-17T07:56:25Z</time>
      </trkpt>
      <trkpt lat="43.95306701771915" lon="4.806358041241765">
        <ele>7.83</ele>
        <time>2025-05-17T07:56:26Z</time>
      </trkpt>
      <trkpt lat="43.953066011890769" lon="4.806338008493185">
        <ele>7.83</ele>
        <time>2025-05-17T07:56:27Z</time>
      </trkpt>
      <trkpt lat="43.953064000234008" lon="4.806321999058127">
        <ele>7.83</ele>
        <time>2025-05-17T07:56:28Z</time>
      </trkpt>
      <trkpt lat="43.953064000234008" lon="4.806321999058127">
        <ele>7.35</ele>
        <time>2025-05-17T07:56:41Z</time>
      </trkpt>
      <trkpt lat="43.953441018238664" lon="4.806784009560943">
        <ele>-17.170000000000002</ele>
        <time>2025-05-17T08:55:46Z</time>
      </trkpt>
      <trkpt lat="43.953335992991924" lon="4.806557027623057">
        <ele>12.630000000000001</ele>
        <time>2025-05-17T08:55:48Z</time>
      </trkpt>
      <trkpt lat="43.953201966360211" lon="4.806631961837411">
        <ele>24.649999999999999</ele>
        <time>2025-05-17T08:55:52Z</time>
      </trkpt>
      <trkpt lat="43.952995017170906" lon="4.806389976292849">
        <ele>26.57</ele>
        <time>2025-05-17T08:55:53Z</time>
      </trkpt>
      <trkpt lat="43.953230967745185" lon="4.806689964607358">
        <ele>26.57</ele>
        <time>2025-05-17T08:55:54Z</time>
      </trkpt>
      <trkpt lat="43.953230967745185" lon="4.806689964607358">
        <ele>30.899999999999999</ele>
        <time>2025-05-17T08:55:55Z</time>
      </trkpt>
      <trkpt lat="43.952995017170906" lon="4.806389976292849">
        <ele>35.229999999999997</ele>
        <time>2025-05-17T08:56:02Z</time>
      </trkpt>
      <trkpt lat="43.952995017170906" lon="4.806389976292849">
        <ele>47.719999999999999</ele>
        <time>2025-05-17T08:56:25Z</time>
      </trkpt>
      <trkpt lat="43.952995017170906" lon="4.806389976292849">
        <ele>44.840000000000003</ele>
        <time>2025-05-17T08:56:52Z</time>
      </trkpt>
      <trkpt lat="43.953230967745185" lon="4.806689964607358">
        <ele>40.030000000000001</ele>
        <time>2025-05-17T08:57:02Z</time>
      </trkpt>
      <trkpt lat="43.95332601852715" lon="4.806761965155602">
        <ele>33.299999999999997</ele>
        <time>2025-05-17T08:57:10Z</time>
      </trkpt>
      <trkpt lat="43.953373963013291" lon="4.806797001510859">
        <ele>32.82</ele>
        <time>2025-05-17T08:57:11Z</time>
      </trkpt>
      <trkpt lat="43.953402964398265" lon="4.806818962097168">
        <ele>32.340000000000003</ele>
        <time>2025-05-17T08:57:12Z</time>
      </trkpt>
      <trkpt lat="43.953402964398265" lon="4.806818962097168">
        <ele>31.859999999999999</ele>
        <time>2025-05-17T08:57:13Z</time>
      </trkpt>
      <trkpt lat="43.953402964398265" lon="4.806818962097168">
        <ele>31.859999999999999</ele>
        <time>2025-05-17T08:57:14Z</time>
      </trkpt>
      <trkpt lat="43.953402964398265" lon="4.806818962097168">
        <ele>31.859999999999999</ele>
        <time>2025-05-17T08:57:15Z</time>
      </trkpt>
      <trkpt lat="43.953666994348168" lon="4.807023983448744">
        <ele>30.899999999999999</ele>
        <time>2025-05-17T08:57:16Z</time>
      </trkpt>
      <trkpt lat="43.953674035146832" lon="4.807061031460762">
        <ele>30.899999999999999</ele>
        <time>2025-05-17T08:57:17Z</time>
      </trkpt>
      <trkpt lat="43.953685015439987" lon="4.807112999260426">
        <ele>30.420000000000002</ele>
        <time>2025-05-17T08:57:19Z</time>
      </trkpt>
      <trkpt lat="43.953689960762858" lon="4.807140994817019">
        <ele>29.940000000000001</ele>
        <time>2025-05-17T08:57:20Z</time>
      </trkpt>
      <trkpt lat="43.953730026260018" lon="4.807427991181612">
        <ele>26.57</ele>
        <time>2025-05-17T08:57:32Z</time>
      </trkpt>
      <trkpt lat="43.953742012381554" lon="4.807692021131516">
        <ele>26.09</ele>
        <time>2025-05-17T08:57:37Z</time>
      </trkpt>
      <trkpt lat="43.953746035695076" lon="4.808628028258681">
        <ele>25.129999999999999</ele>
        <time>2025-05-17T08:57:47Z</time>
      </trkpt>
      <trkpt lat="43.953681997954845" lon="4.809049973264337">
        <ele>25.129999999999999</ele>
        <time>2025-05-17T08:57:59Z</time>
      </trkpt>
      <trkpt lat="43.953594993799925" lon="4.809469990432262">
        <ele>23.210000000000001</ele>
        <time>2025-05-17T08:58:09Z</time>
      </trkpt>
      <trkpt lat="43.953590970486403" lon="4.80957199819386">
        <ele>22.25</ele>
        <time>2025-05-17T08:58:21Z</time>
      </trkpt>
      <trkpt lat="43.953576972708106" lon="4.809969970956445">
        <ele>22.73</ele>
        <time>2025-05-17T08:58:27Z</time>
      </trkpt>
      <trkpt lat="43.953574039041996" lon="4.811359019950032">
        <ele>23.690000000000001</ele>
        <time>2025-05-17T08:58:40Z</time>
      </trkpt>
      <trkpt lat="43.953574039041996" lon="4.811447029933333">
        <ele>23.690000000000001</ele>
        <time>2025-05-17T08:58:41Z</time>
      </trkpt>
      <trkpt lat="43.953577978536487" lon="4.811527999117971">
        <ele>23.690000000000001</ele>
        <time>2025-05-17T08:58:42Z</time>
      </trkpt>
      <trkpt lat="43.953582001850009" lon="4.811597988009453">
        <ele>23.690000000000001</ele>
        <time>2025-05-17T08:58:43Z</time>
      </trkpt>
      <trkpt lat="43.953585019335151" lon="4.811639981344342">
        <ele>23.690000000000001</ele>
        <time>2025-05-17T08:58:44Z</time>
      </trkpt>
      <trkpt lat="43.953585019335151" lon="4.811639981344342">
        <ele>23.210000000000001</ele>
        <time>2025-05-17T08:58:52Z</time>
      </trkpt>
      <trkpt lat="43.953592982143164" lon="4.811765039339662">
        <ele>23.210000000000001</ele>
        <time>2025-05-17T08:59:25Z</time>
      </trkpt>
      <trkpt lat="43.953590970486403" lon="4.812331991270185">
        <ele>23.210000000000001</ele>
        <time>2025-05-17T08:59:31Z</time>
      </trkpt>
      <trkpt lat="43.953579990193248" lon="4.812547992914915">
        <ele>23.210000000000001</ele>
        <time>2025-05-17T08:59:37Z</time>
      </trkpt>
      <trkpt lat="43.953578984364867" lon="4.812576994299889">
        <ele>23.690000000000001</ele>
        <time>2025-05-17T08:59:38Z</time>
      </trkpt>
      <trkpt lat="43.95349700935185" lon="4.81300899758935">
        <ele>23.210000000000001</ele>
        <time>2025-05-17T08:59:51Z</time>
      </trkpt>
      <trkpt lat="43.953484017401934" lon="4.813064988702536">
        <ele>23.210000000000001</ele>
        <time>2025-05-17T09:00:05Z</time>
      </trkpt>
      <trkpt lat="43.953403970226645" lon="4.813408982008696">
        <ele>24.649999999999999</ele>
        <time>2025-05-17T09:00:29Z</time>
      </trkpt>
      <trkpt lat="43.953345967456698" lon="4.813659014180303">
        <ele>26.09</ele>
        <time>2025-05-17T09:00:32Z</time>
      </trkpt>
      <trkpt lat="43.953330041840672" lon="4.813726991415024">
        <ele>26.57</ele>
        <time>2025-05-17T09:00:33Z</time>
      </trkpt>
      <trkpt lat="43.953186040744185" lon="4.814331997185946">
        <ele>27.530000000000001</ele>
        <time>2025-05-17T09:00:40Z</time>
      </trkpt>
      <trkpt lat="43.953034998849034" lon="4.814933985471726">
        <ele>28.98</ele>
        <time>2025-05-17T09:00:47Z</time>
      </trkpt>
      <trkpt lat="43.953018989413977" lon="4.815004980191588">
        <ele>29.460000000000001</ele>
        <time>2025-05-17T09:00:48Z</time>
      </trkpt>
      <trkpt lat="43.952943971380591" lon="4.815315026789904">
        <ele>29.940000000000001</ele>
        <time>2025-05-17T09:00:51Z</time>
      </trkpt>
      <trkpt lat="43.952756971120834" lon="4.816074008122087">
        <ele>29.940000000000001</ele>
        <time>2025-05-17T09:00:59Z</time>
      </trkpt>
      <trkpt lat="43.952672984451056" lon="4.816324962303042">
        <ele>29.940000000000001</ele>
        <time>2025-05-17T09:01:02Z</time>
      </trkpt>
      <trkpt lat="43.952672984451056" lon="4.816367961466312">
        <ele>29.940000000000001</ele>
        <time>2025-05-17T09:01:03Z</time>
      </trkpt>
      <trkpt lat="43.952672984451056" lon="4.816367961466312">
        <ele>29.940000000000001</ele>
        <time>2025-05-17T09:01:04Z</time>
      </trkpt>
      <trkpt lat="43.9526810310781" lon="4.816399980336428">
        <ele>29.940000000000001</ele>
        <time>2025-05-17T09:01:05Z</time>
      </trkpt>
      <trkpt lat="43.952706009149551" lon="4.816511040553451">
        <ele>29.940000000000001</ele>
        <time>2025-05-17T09:01:06Z</time>
      </trkpt>
      <trkpt lat="43.952730987221003" lon="4.816620005294681">
        <ele>30.420000000000002</ele>
        <time>2025-05-17T09:01:07Z</time>
      </trkpt>
      <trkpt lat="43.952737022191286" lon="4.816646995022893">
        <ele>30.420000000000002</ele>
        <time>2025-05-17T09:01:08Z</time>
      </trkpt>
      <trkpt lat="43.952808016911149" lon="4.817080004140735">
        <ele>30.420000000000002</ele>
        <time>2025-05-17T09:01:11Z</time>
      </trkpt>
      <trkpt lat="43.952828971669078" lon="4.817209001630545">
        <ele>30.420000000000002</ele>
        <time>2025-05-17T09:01:12Z</time>
      </trkpt>
      <trkpt lat="43.952850010246038" lon="4.817344034090638">
        <ele>30.420000000000002</ele>
        <time>2025-05-17T09:01:13Z</time>
      </trkpt>
      <trkpt lat="43.95287599414587" lon="4.817486023530364">
        <ele>29.940000000000001</ele>
        <time>2025-05-17T09:01:14Z</time>
      </trkpt>
      <trkpt lat="43.952904995530844" lon="4.817619966343045">
        <ele>29.460000000000001</ele>
        <time>2025-05-17T09:01:15Z</time>
      </trkpt>
      <trkpt lat="43.952990993857384" lon="4.818016011267901">
        <ele>28.02</ele>
        <time>2025-05-17T09:01:26Z</time>
      </trkpt>
      <trkpt lat="43.953199032694101" lon="4.81964897364378">
        <ele>28.98</ele>
        <time>2025-05-17T09:01:30Z</time>
      </trkpt>
      <trkpt lat="43.953141029924154" lon="4.819767996668816">
        <ele>28.98</ele>
        <time>2025-05-17T09:01:31Z</time>
      </trkpt>
      <trkpt lat="43.953138012439013" lon="4.819839997217059">
        <ele>28.98</ele>
        <time>2025-05-17T09:01:32Z</time>
      </trkpt>
      <trkpt lat="43.953112028539181" lon="4.81990403495729">
        <ele>28.98</ele>
        <time>2025-05-17T09:01:33Z</time>
      </trkpt>
      <trkpt lat="43.953085038810968" lon="4.819930018857122">
        <ele>28.98</ele>
        <time>2025-05-17T09:01:34Z</time>
      </trkpt>
      <trkpt lat="43.953045979142189" lon="4.819930018857122">
        <ele>28.5</ele>
        <time>2025-05-17T09:01:35Z</time>
      </trkpt>
      <trkpt lat="43.952999040484428" lon="4.819916021078825">
        <ele>28.5</ele>
        <time>2025-05-17T09:01:36Z</time>
      </trkpt>
      <trkpt lat="43.952950006350875" lon="4.819876961410046">
        <ele>28.5</ele>
        <time>2025-05-17T09:01:37Z</time>
      </trkpt>
      <trkpt lat="43.952906001359224" lon="4.81984100304544">
        <ele>28.5</ele>
        <time>2025-05-17T09:01:38Z</time>
      </trkpt>
      <trkpt lat="43.952608024701476" lon="4.819614021107554">
        <ele>28.02</ele>
        <time>2025-05-17T09:01:45Z</time>
      </trkpt>
      <trkpt lat="43.952073007822037" lon="4.819257035851479">
        <ele>26.57</ele>
        <time>2025-05-17T09:01:53Z</time>
      </trkpt>
      <trkpt lat="43.951921965926886" lon="4.819152010604739">
        <ele>24.649999999999999</ele>
        <time>2025-05-17T09:02:00Z</time>
      </trkpt>
      <trkpt lat="43.951854994520545" lon="4.819042040035129">
        <ele>24.649999999999999</ele>
        <time>2025-05-17T09:02:05Z</time>
      </trkpt>
      <trkpt lat="43.951868992298841" lon="4.81900499202311">
        <ele>24.170000000000002</ele>
        <time>2025-05-17T09:02:06Z</time>
      </trkpt>
      <trkpt lat="43.951891958713531" lon="4.818944977596402">
        <ele>24.170000000000002</ele>
        <time>2025-05-17T09:02:07Z</time>
      </trkpt>
      <trkpt lat="43.951983992010355" lon="4.81861799955368">
        <ele>23.210000000000001</ele>
        <time>2025-05-17T09:02:11Z</time>
      </trkpt>
      <trkpt lat="43.952006958425045" lon="4.818537030369043">
        <ele>22.73</ele>
        <time>2025-05-17T09:02:12Z</time>
      </trkpt>
      <trkpt lat="43.952030008658767" lon="4.818451032042503">
        <ele>22.25</ele>
        <time>2025-05-17T09:02:13Z</time>
      </trkpt>
      <trkpt lat="43.952053980901837" lon="4.818366039544344">
        <ele>22.25</ele>
        <time>2025-05-17T09:02:14Z</time>
      </trkpt>
      <trkpt lat="43.952074013650417" lon="4.818292027339339">
        <ele>21.77</ele>
        <time>2025-05-17T09:02:15Z</time>
      </trkpt>
      <trkpt lat="43.952089017257094" lon="4.818243999034166">
        <ele>21.289999999999999</ele>
        <time>2025-05-17T09:02:16Z</time>
      </trkpt>
      <trkpt lat="43.952098991721869" lon="4.818211980164051">
        <ele>20.809999999999999</ele>
        <time>2025-05-17T09:02:17Z</time>
      </trkpt>
      <trkpt lat="43.952107038348913" lon="4.818184990435839">
        <ele>20.809999999999999</ele>
        <time>2025-05-17T09:02:18Z</time>
      </trkpt>
      <trkpt lat="43.952107038348913" lon="4.818184990435839">
        <ele>20.32</ele>
        <time>2025-05-17T09:02:19Z</time>
      </trkpt>
      <trkpt lat="43.952107038348913" lon="4.818184990435839">
        <ele>19.84</ele>
        <time>2025-05-17T09:02:33Z</time>
      </trkpt>
      <trkpt lat="43.952107038348913" lon="4.818184990435839">
        <ele>19.84</ele>
        <time>2025-05-17T09:02:53Z</time>
      </trkpt>
      <trkpt lat="43.952128998935223" lon="4.818115001544356">
        <ele>20.809999999999999</ele>
        <time>2025-05-17T09:02:54Z</time>
      </trkpt>
      <trkpt lat="43.952083988115191" lon="4.818259002640843">
        <ele>23.210000000000001</ele>
        <time>2025-05-17T09:02:57Z</time>
      </trkpt>
      <trkpt lat="43.95205800421536" lon="4.818350030109286">
        <ele>23.210000000000001</ele>
        <time>2025-05-17T09:02:58Z</time>
      </trkpt>
      <trkpt lat="43.951955996453762" lon="4.818720007315278">
        <ele>22.73</ele>
        <time>2025-05-17T09:03:05Z</time>
      </trkpt>
      <trkpt lat="43.95195297896862" lon="4.818730987608433">
        <ele>22.73</ele>
        <time>2025-05-17T09:03:16Z</time>
      </trkpt>
      <trkpt lat="43.951939987018704" lon="4.818777004256845">
        <ele>22.73</ele>
        <time>2025-05-17T09:03:17Z</time>
      </trkpt>
      <trkpt lat="43.951920960098505" lon="4.818847998976708">
        <ele>22.73</ele>
        <time>2025-05-17T09:03:18Z</time>
      </trkpt>
      <trkpt lat="43.951896987855434" lon="4.818931985646486">
        <ele>22.25</ele>
        <time>2025-05-17T09:03:19Z</time>
      </trkpt>
      <trkpt lat="43.951867986470461" lon="4.819008009508252">
        <ele>22.25</ele>
        <time>2025-05-17T09:03:20Z</time>
      </trkpt>
      <trkpt lat="43.951840996742249" lon="4.819079004228115">
        <ele>22.25</ele>
        <time>2025-05-17T09:03:21Z</time>
      </trkpt>
      <trkpt lat="43.951806966215372" lon="4.819151004776359">
        <ele>21.77</ele>
        <time>2025-05-17T09:03:22Z</time>
      </trkpt>
      <trkpt lat="43.951601022854447" lon="4.81952098198235">
        <ele>19.84</ele>
        <time>2025-05-17T09:03:34Z</time>
      </trkpt>
      <trkpt lat="43.951472025364637" lon="4.819671018049121">
        <ele>21.77</ele>
        <time>2025-05-17T09:04:02Z</time>
      </trkpt>
      <trkpt lat="43.951431037858129" lon="4.81971200555563">
        <ele>21.77</ele>
        <time>2025-05-17T09:04:03Z</time>
      </trkpt>
      <trkpt lat="43.951322995126247" lon="4.819652996957302">
        <ele>22.25</ele>
        <time>2025-05-17T09:04:04Z</time>
      </trkpt>
      <trkpt lat="43.951277984306216" lon="4.819607986137271">
        <ele>22.25</ele>
        <time>2025-05-17T09:04:05Z</time>
      </trkpt>
      <trkpt lat="43.951239008456469" lon="4.819576973095536">
        <ele>22.73</ele>
        <time>2025-05-17T09:04:06Z</time>
      </trkpt>
      <trkpt lat="43.951189974322915" lon="4.819536991417408">
        <ele>23.210000000000001</ele>
        <time>2025-05-17T09:04:07Z</time>
      </trkpt>
      <trkpt lat="43.951129959896207" lon="4.819516036659479">
        <ele>23.690000000000001</ele>
        <time>2025-05-17T09:04:08Z</time>
      </trkpt>
      <trkpt lat="43.951072040945292" lon="4.819507990032435">
        <ele>23.690000000000001</ele>
        <time>2025-05-17T09:04:09Z</time>
      </trkpt>
      <trkpt lat="43.9510059915483" lon="4.819503966718912">
        <ele>24.170000000000002</ele>
        <time>2025-05-17T09:04:10Z</time>
      </trkpt>
      <trkpt lat="43.950939020141959" lon="4.819517964497209">
        <ele>24.170000000000002</ele>
        <time>2025-05-17T09:04:11Z</time>
      </trkpt>
      <trkpt lat="43.95087699405849" lon="4.819530034437776">
        <ele>24.170000000000002</ele>
        <time>2025-05-17T09:04:12Z</time>
      </trkpt>
      <trkpt lat="43.950722012668848" lon="4.81956297531724">
        <ele>24.170000000000002</ele>
        <time>2025-05-17T09:04:20Z</time>
      </trkpt>
      <trkpt lat="43.950722012668848" lon="4.81956297531724">
        <ele>24.170000000000002</ele>
        <time>2025-05-17T09:04:38Z</time>
      </trkpt>
      <trkpt lat="43.950415989384055" lon="4.819631958380342">
        <ele>24.170000000000002</ele>
        <time>2025-05-17T09:04:45Z</time>
      </trkpt>
      <trkpt lat="43.950269976630807" lon="4.819672023877502">
        <ele>24.170000000000002</ele>
        <time>2025-05-17T09:04:52Z</time>
      </trkpt>
      <trkpt lat="43.950269976630807" lon="4.819672023877502">
        <ele>24.170000000000002</ele>
        <time>2025-05-17T09:05:30Z</time>
      </trkpt>
      <trkpt lat="43.95016998052597" lon="4.819742012768984">
        <ele>23.690000000000001</ele>
        <time>2025-05-17T09:05:43Z</time>
      </trkpt>
      <trkpt lat="43.950119018554688" lon="4.81977797113359">
        <ele>23.690000000000001</ele>
        <time>2025-05-17T09:05:44Z</time>
      </trkpt>
      <trkpt lat="43.950067972764373" lon="4.819813007488847">
        <ele>23.690000000000001</ele>
        <time>2025-05-17T09:05:45Z</time>
      </trkpt>
      <trkpt lat="43.950080964714289" lon="4.819938987493515">
        <ele>23.690000000000001</ele>
        <time>2025-05-17T09:05:46Z</time>
      </trkpt>
      <trkpt lat="43.950099991634488" lon="4.82003596611321">
        <ele>23.690000000000001</ele>
        <time>2025-05-17T09:05:47Z</time>
      </trkpt>
      <trkpt lat="43.950108038261533" lon="4.820140991359949">
        <ele>23.690000000000001</ele>
        <time>2025-05-17T09:05:48Z</time>
      </trkpt>
      <trkpt lat="43.950117006897926" lon="4.82025196775794">
        <ele>23.690000000000001</ele>
        <time>2025-05-17T09:05:49Z</time>
      </trkpt>
      <trkpt lat="43.95020904019475" lon="4.821442030370235">
        <ele>22.73</ele>
        <time>2025-05-17T09:06:00Z</time>
      </trkpt>
      <trkpt lat="43.950217003002763" lon="4.821512019261718">
        <ele>22.73</ele>
        <time>2025-05-17T09:06:01Z</time>
      </trkpt>
      <trkpt lat="43.950228989124298" lon="4.821621989831328">
        <ele>23.210000000000001</ele>
        <time>2025-05-17T09:06:09Z</time>
      </trkpt>
      <trkpt lat="43.950262013822794" lon="4.821920972317457">
        <ele>21.77</ele>
        <time>2025-05-17T09:06:17Z</time>
      </trkpt>
      <trkpt lat="43.950269976630807" lon="4.82201099395752">
        <ele>21.77</ele>
        <time>2025-05-17T09:06:26Z</time>
      </trkpt>
      <trkpt lat="43.950273999944329" lon="4.822176033630967">
        <ele>24.170000000000002</ele>
        <time>2025-05-17T09:06:51Z</time>
      </trkpt>
      <trkpt lat="43.950281040742993" lon="4.822267983108759">
        <ele>24.649999999999999</ele>
        <time>2025-05-17T09:06:52Z</time>
      </trkpt>
      <trkpt lat="43.950287997722626" lon="4.822361022233963">
        <ele>25.129999999999999</ele>
        <time>2025-05-17T09:06:53Z</time>
      </trkpt>
      <trkpt lat="43.950305012986064" lon="4.822561014443636">
        <ele>25.609999999999999</ele>
        <time>2025-05-17T09:06:55Z</time>
      </trkpt>
      <trkpt lat="43.950411966070533" lon="4.823876973241568">
        <ele>26.09</ele>
        <time>2025-05-17T09:07:05Z</time>
      </trkpt>
      <trkpt lat="43.950488995760679" lon="4.824622040614486">
        <ele>26.57</ele>
        <time>2025-05-17T09:07:10Z</time>
      </trkpt>
      <trkpt lat="43.950522020459175" lon="4.82476201839745">
        <ele>26.57</ele>
        <time>2025-05-17T09:07:11Z</time>
      </trkpt>
      <trkpt lat="43.951161978766322" lon="4.826338989660144">
        <ele>25.129999999999999</ele>
        <time>2025-05-17T09:07:23Z</time>
      </trkpt>
      <trkpt lat="43.951406981796026" lon="4.827292012050748">
        <ele>25.129999999999999</ele>
        <time>2025-05-17T09:07:31Z</time>
      </trkpt>
      <trkpt lat="43.951406981796026" lon="4.827417992055416">
        <ele>25.129999999999999</ele>
        <time>2025-05-17T09:07:32Z</time>
      </trkpt>
      <trkpt lat="43.951314026489854" lon="4.828583998605609">
        <ele>27.050000000000001</ele>
        <time>2025-05-17T09:07:41Z</time>
      </trkpt>
      <trkpt lat="43.951128032058477" lon="4.829372987151146">
        <ele>27.530000000000001</ele>
        <time>2025-05-17T09:07:48Z</time>
      </trkpt>
      <trkpt lat="43.950982019305229" lon="4.830157030373812">
        <ele>26.57</ele>
        <time>2025-05-17T09:07:56Z</time>
      </trkpt>
      <trkpt lat="43.950989982113242" lon="4.830930009484291">
        <ele>27.050000000000001</ele>
        <time>2025-05-17T09:08:06Z</time>
      </trkpt>
      <trkpt lat="43.950999034568667" lon="4.831002010032535">
        <ele>27.050000000000001</ele>
        <time>2025-05-17T09:08:07Z</time>
      </trkpt>
      <trkpt lat="43.951010014861822" lon="4.831067975610495">
        <ele>26.57</ele>
        <time>2025-05-17T09:08:08Z</time>
      </trkpt>
      <trkpt lat="43.951073968783021" lon="4.831456979736686">
        <ele>26.09</ele>
        <time>2025-05-17T09:08:13Z</time>
      </trkpt>
      <trkpt lat="43.951088972389698" lon="4.831531997770071">
        <ele>25.609999999999999</ele>
        <time>2025-05-17T09:08:14Z</time>
      </trkpt>
      <trkpt lat="43.951103975996375" lon="4.831600980833173">
        <ele>25.609999999999999</ele>
        <time>2025-05-17T09:08:15Z</time>
      </trkpt>
      <trkpt lat="43.951129037886858" lon="4.831717992201448">
        <ele>25.129999999999999</ele>
        <time>2025-05-17T09:08:17Z</time>
      </trkpt>
      <trkpt lat="43.951140018180013" lon="4.831772977486253">
        <ele>25.129999999999999</ele>
        <time>2025-05-17T09:08:18Z</time>
      </trkpt>
      <trkpt lat="43.951149992644787" lon="4.831821005791426">
        <ele>24.649999999999999</ele>
        <time>2025-05-17T09:08:19Z</time>
      </trkpt>
      <trkpt lat="43.951154015958309" lon="4.831855036318302">
        <ele>24.649999999999999</ele>
        <time>2025-05-17T09:08:20Z</time>
      </trkpt>
      <trkpt lat="43.951158039271832" lon="4.831887977197766">
        <ele>24.649999999999999</ele>
        <time>2025-05-17T09:08:21Z</time>
      </trkpt>
      <trkpt lat="43.951162984594703" lon="4.831925025209785">
        <ele>24.170000000000002</ele>
        <time>2025-05-17T09:08:22Z</time>
      </trkpt>
      <trkpt lat="43.951167007908225" lon="4.831957966089249">
        <ele>24.170000000000002</ele>
        <time>2025-05-17T09:08:23Z</time>
      </trkpt>
      <trkpt lat="43.951171031221747" lon="4.831990990787745">
        <ele>24.170000000000002</ele>
        <time>2025-05-17T09:08:24Z</time>
      </trkpt>
      <trkpt lat="43.951174970716238" lon="4.832020998001099">
        <ele>24.170000000000002</ele>
        <time>2025-05-17T09:08:35Z</time>
      </trkpt>
      <trkpt lat="43.951211012899876" lon="4.832236999645829">
        <ele>25.129999999999999</ele>
        <time>2025-05-17T09:09:10Z</time>
      </trkpt>
      <trkpt lat="43.951316038146615" lon="4.832815015688539">
        <ele>25.129999999999999</ele>
        <time>2025-05-17T09:09:18Z</time>
      </trkpt>
      <trkpt lat="43.951492980122566" lon="4.833621019497514">
        <ele>23.690000000000001</ele>
        <time>2025-05-17T09:09:27Z</time>
      </trkpt>
      <trkpt lat="43.951749969273806" lon="4.83451402746141">
        <ele>22.73</ele>
        <time>2025-05-17T09:09:37Z</time>
      </trkpt>
      <trkpt lat="43.951781988143921" lon="4.834640007466078">
        <ele>23.210000000000001</ele>
        <time>2025-05-17T09:09:38Z</time>
      </trkpt>
      <trkpt lat="43.95186304114759" lon="4.835059018805623">
        <ele>23.210000000000001</ele>
        <time>2025-05-17T09:09:41Z</time>
      </trkpt>
      <trkpt lat="43.95199497230351" lon="4.8358269687742">
        <ele>24.170000000000002</ele>
        <time>2025-05-17T09:09:47Z</time>
      </trkpt>
      <trkpt lat="43.952020034193993" lon="4.835949009284377">
        <ele>24.170000000000002</ele>
        <time>2025-05-17T09:09:48Z</time>
      </trkpt>
      <trkpt lat="43.952308958396316" lon="4.837398994714022">
        <ele>23.210000000000001</ele>
        <time>2025-05-17T09:10:00Z</time>
      </trkpt>
      <trkpt lat="43.952332008630037" lon="4.837523968890309">
        <ele>22.73</ele>
        <time>2025-05-17T09:10:01Z</time>
      </trkpt>
      <trkpt lat="43.952500987797976" lon="4.83894201926887">
        <ele>22.73</ele>
        <time>2025-05-17T09:10:12Z</time>
      </trkpt>
      <trkpt lat="43.952519008889794" lon="4.839915996417403">
        <ele>23.210000000000001</ele>
        <time>2025-05-17T09:10:19Z</time>
      </trkpt>
      <trkpt lat="43.952523032203317" lon="4.840057985857129">
        <ele>23.210000000000001</ele>
        <time>2025-05-17T09:10:20Z</time>
      </trkpt>
      <trkpt lat="43.952543986961246" lon="4.840472973883152">
        <ele>23.210000000000001</ele>
        <time>2025-05-17T09:10:23Z</time>
      </trkpt>
      <trkpt lat="43.952543986961246" lon="4.840609012171626">
        <ele>22.73</ele>
        <time>2025-05-17T09:10:24Z</time>
      </trkpt>
      <trkpt lat="43.952543986961246" lon="4.840733986347914">
        <ele>22.25</ele>
        <time>2025-05-17T09:10:25Z</time>
      </trkpt>
      <trkpt lat="43.952537029981613" lon="4.841663036495447">
        <ele>21.289999999999999</ele>
        <time>2025-05-17T09:10:34Z</time>
      </trkpt>
      <trkpt lat="43.952533006668091" lon="4.841715004295111">
        <ele>21.289999999999999</ele>
        <time>2025-05-17T09:10:35Z</time>
      </trkpt>
      <trkpt lat="43.952529989182949" lon="4.84175599180162">
        <ele>21.289999999999999</ele>
        <time>2025-05-17T09:10:36Z</time>
      </trkpt>
      <trkpt lat="43.952495036646724" lon="4.842355968430638">
        <ele>22.73</ele>
        <time>2025-05-17T09:10:49Z</time>
      </trkpt>
      <trkpt lat="43.952426975592971" lon="4.843236990272999">
        <ele>24.649999999999999</ele>
        <time>2025-05-17T09:10:58Z</time>
      </trkpt>
      <trkpt lat="43.952413983643055" lon="4.843378979712725">
        <ele>26.09</ele>
        <time>2025-05-17T09:11:07Z</time>
      </trkpt>
      <trkpt lat="43.952372996136546" lon="4.843682991340756">
        <ele>27.530000000000001</ele>
        <time>2025-05-17T09:11:16Z</time>
      </trkpt>
      <trkpt lat="43.952254978939891" lon="4.844578010961413">
        <ele>28.02</ele>
        <time>2025-05-17T09:11:24Z</time>
      </trkpt>
      <trkpt lat="43.952177027240396" lon="4.844955028966069">
        <ele>28.5</ele>
        <time>2025-05-17T09:11:27Z</time>
      </trkpt>
      <trkpt lat="43.951634969562292" lon="4.846582962200046">
        <ele>29.940000000000001</ele>
        <time>2025-05-17T09:11:39Z</time>
      </trkpt>
      <trkpt lat="43.951495997607708" lon="4.847171036526561">
        <ele>30.420000000000002</ele>
        <time>2025-05-17T09:11:43Z</time>
      </trkpt>
      <trkpt lat="43.951451992616057" lon="4.84753699041903">
        <ele>29.940000000000001</ele>
        <time>2025-05-17T09:11:46Z</time>
      </trkpt>
      <trkpt lat="43.951425002887845" lon="4.847789034247398">
        <ele>28.02</ele>
        <time>2025-05-17T09:11:51Z</time>
      </trkpt>
      <trkpt lat="43.951425002887845" lon="4.847789034247398">
        <ele>27.530000000000001</ele>
        <time>2025-05-17T09:12:04Z</time>
      </trkpt>
      <trkpt lat="43.951425002887845" lon="4.847789034247398">
        <ele>26.57</ele>
        <time>2025-05-17T09:12:46Z</time>
      </trkpt>
      <trkpt lat="43.951425002887845" lon="4.847789034247398">
        <ele>26.57</ele>
        <time>2025-05-17T09:13:36Z</time>
      </trkpt>
      <trkpt lat="43.951425002887845" lon="4.847789034247398">
        <ele>25.609999999999999</ele>
        <time>2025-05-17T09:16:13Z</time>
      </trkpt>
      <trkpt lat="43.951417040079832" lon="4.847860028967261">
        <ele>25.609999999999999</ele>
        <time>2025-05-17T09:16:39Z</time>
      </trkpt>
      <trkpt lat="43.951409999281168" lon="4.84792398288846">
        <ele>25.609999999999999</ele>
        <time>2025-05-17T09:16:40Z</time>
      </trkpt>
      <trkpt lat="43.951324000954628" lon="4.848842974752188">
        <ele>25.609999999999999</ele>
        <time>2025-05-17T09:16:47Z</time>
      </trkpt>
      <trkpt lat="43.951129037886858" lon="4.850727980956435">
        <ele>23.690000000000001</ele>
        <time>2025-05-17T09:16:59Z</time>
      </trkpt>
      <trkpt lat="43.950994005426764" lon="4.851552005857229">
        <ele>23.210000000000001</ele>
        <time>2025-05-17T09:17:06Z</time>
      </trkpt>
      <trkpt lat="43.950961986556649" lon="4.851635992527008">
        <ele>23.210000000000001</ele>
        <time>2025-05-17T09:17:07Z</time>
      </trkpt>
      <trkpt lat="43.950922004878521" lon="4.851728025823832">
        <ele>23.210000000000001</ele>
        <time>2025-05-17T09:17:08Z</time>
      </trkpt>
      <trkpt lat="43.950885040685534" lon="4.85183103941381">
        <ele>23.210000000000001</ele>
        <time>2025-05-17T09:17:09Z</time>
      </trkpt>
      <trkpt lat="43.950886968523264" lon="4.851946961134672">
        <ele>23.210000000000001</ele>
        <time>2025-05-17T09:17:10Z</time>
      </trkpt>
      <trkpt lat="43.950925022363663" lon="4.85204704105854">
        <ele>23.210000000000001</ele>
        <time>2025-05-17T09:17:11Z</time>
      </trkpt>
      <trkpt lat="43.950948994606733" lon="4.852166986092925">
        <ele>23.690000000000001</ele>
        <time>2025-05-17T09:17:12Z</time>
      </trkpt>
      <trkpt lat="43.950969027355313" lon="4.852292966097593">
        <ele>23.690000000000001</ele>
        <time>2025-05-17T09:17:13Z</time>
      </trkpt>
      <trkpt lat="43.950987970456481" lon="4.852426992729306">
        <ele>24.170000000000002</ele>
        <time>2025-05-17T09:17:14Z</time>
      </trkpt>
      <trkpt lat="43.9510059915483" lon="4.852568982169032">
        <ele>24.649999999999999</ele>
        <time>2025-05-17T09:17:15Z</time>
      </trkpt>
      <trkpt lat="43.951025018468499" lon="4.852710971608758">
        <ele>25.129999999999999</ele>
        <time>2025-05-17T09:17:16Z</time>
      </trkpt>
      <trkpt lat="43.951041027903557" lon="4.852857990190387">
        <ele>25.129999999999999</ele>
        <time>2025-05-17T09:17:17Z</time>
      </trkpt>
      <trkpt lat="43.951025018468499" lon="4.852999979630113">
        <ele>25.609999999999999</ele>
        <time>2025-05-17T09:17:18Z</time>
      </trkpt>
      <trkpt lat="43.950870959088206" lon="4.85436899587512">
        <ele>25.129999999999999</ele>
        <time>2025-05-17T09:17:28Z</time>
      </trkpt>
      <trkpt lat="43.950796024873853" lon="4.854903006926179">
        <ele>26.09</ele>
        <time>2025-05-17T09:17:32Z</time>
      </trkpt>
      <trkpt lat="43.950781021267176" lon="4.855025969445705">
        <ele>26.57</ele>
        <time>2025-05-17T09:17:33Z</time>
      </trkpt>
      <trkpt lat="43.950766017660499" lon="4.855147004127502">
        <ele>27.050000000000001</ele>
        <time>2025-05-17T09:17:34Z</time>
      </trkpt>
      <trkpt lat="43.950690999627113" lon="4.855864997953177">
        <ele>27.530000000000001</ele>
        <time>2025-05-17T09:17:40Z</time>
      </trkpt>
      <trkpt lat="43.950677001848817" lon="4.85600003041327">
        <ele>27.530000000000001</ele>
        <time>2025-05-17T09:17:41Z</time>
      </trkpt>
      <trkpt lat="43.950697034597397" lon="4.856394985690713">
        <ele>27.050000000000001</ele>
        <time>2025-05-17T09:17:44Z</time>
      </trkpt>
      <trkpt lat="43.950778003782034" lon="4.857711028307676">
        <ele>24.649999999999999</ele>
        <time>2025-05-17T09:17:55Z</time>
      </trkpt>
      <trkpt lat="43.95077096298337" lon="4.857859974727035">
        <ele>25.129999999999999</ele>
        <time>2025-05-17T09:17:57Z</time>
      </trkpt>
      <trkpt lat="43.95074900239706" lon="4.857919989153743">
        <ele>25.129999999999999</ele>
        <time>2025-05-17T09:17:58Z</time>
      </trkpt>
      <trkpt lat="43.950720001012087" lon="4.857996013015509">
        <ele>25.609999999999999</ele>
        <time>2025-05-17T09:17:59Z</time>
      </trkpt>
      <trkpt lat="43.950720001012087" lon="4.857996013015509">
        <ele>25.609999999999999</ele>
        <time>2025-05-17T09:18:00Z</time>
      </trkpt>
      <trkpt lat="43.950673984363675" lon="4.858052004128695">
        <ele>25.609999999999999</ele>
        <time>2025-05-17T09:18:01Z</time>
      </trkpt>
      <trkpt lat="43.950634002685547" lon="4.858099026605487">
        <ele>25.609999999999999</ele>
        <time>2025-05-17T09:18:02Z</time>
      </trkpt>
      <trkpt lat="43.950569964945316" lon="4.858133979141712">
        <ele>25.609999999999999</ele>
        <time>2025-05-17T09:18:03Z</time>
      </trkpt>
      <trkpt lat="43.950496036559343" lon="4.85814998857677">
        <ele>25.609999999999999</ele>
        <time>2025-05-17T09:18:04Z</time>
      </trkpt>
      <trkpt lat="43.950402997434139" lon="4.858161974698305">
        <ele>25.129999999999999</ele>
        <time>2025-05-17T09:18:05Z</time>
      </trkpt>
      <trkpt lat="43.950310964137316" lon="4.858118975535035">
        <ele>25.129999999999999</ele>
        <time>2025-05-17T09:18:06Z</time>
      </trkpt>
      <trkpt lat="43.950200993567705" lon="4.858078993856907">
        <ele>24.649999999999999</ele>
        <time>2025-05-17T09:18:07Z</time>
      </trkpt>
      <trkpt lat="43.950089011341333" lon="4.858113024383783">
        <ele>24.649999999999999</ele>
        <time>2025-05-17T09:18:08Z</time>
      </trkpt>
      <trkpt lat="43.949980968609452" lon="4.858153006061912">
        <ele>24.649999999999999</ele>
        <time>2025-05-17T09:18:09Z</time>
      </trkpt>
      <trkpt lat="43.949876027181745" lon="4.858212014660239">
        <ele>24.170000000000002</ele>
        <time>2025-05-17T09:18:10Z</time>
      </trkpt>
      <trkpt lat="43.94978198222816" lon="4.85830002464354">
        <ele>24.170000000000002</ele>
        <time>2025-05-17T09:18:11Z</time>
      </trkpt>
      <trkpt lat="43.94969698973" lon="4.858417036011815">
        <ele>24.170000000000002</ele>
        <time>2025-05-17T09:18:12Z</time>
      </trkpt>
      <trkpt lat="43.949634963646531" lon="4.858560031279922">
        <ele>24.170000000000002</ele>
        <time>2025-05-17T09:18:13Z</time>
      </trkpt>
      <trkpt lat="43.949581990018487" lon="4.858724987134337">
        <ele>24.170000000000002</ele>
        <time>2025-05-17T09:18:14Z</time>
      </trkpt>
      <trkpt lat="43.949576960876584" lon="4.858897989615798">
        <ele>24.170000000000002</ele>
        <time>2025-05-17T09:18:15Z</time>
      </trkpt>
      <trkpt lat="43.949571009725332" lon="4.859077027067542">
        <ele>24.649999999999999</ele>
        <time>2025-05-17T09:18:16Z</time>
      </trkpt>
      <trkpt lat="43.949565980583429" lon="4.859243994578719">
        <ele>24.649999999999999</ele>
        <time>2025-05-17T09:18:17Z</time>
      </trkpt>
      <trkpt lat="43.949707970023155" lon="4.860279997810721">
        <ele>25.129999999999999</ele>
        <time>2025-05-17T09:18:24Z</time>
      </trkpt>
      <trkpt lat="43.949780976399779" lon="4.860404971987009">
        <ele>25.129999999999999</ele>
        <time>2025-05-17T09:18:25Z</time>
      </trkpt>
      <trkpt lat="43.949853982776403" lon="4.860521983355284">
        <ele>25.129999999999999</ele>
        <time>2025-05-17T09:18:26Z</time>
      </trkpt>
      <trkpt lat="43.949993960559368" lon="4.860748965293169">
        <ele>25.609999999999999</ele>
        <time>2025-05-17T09:18:28Z</time>
      </trkpt>
      <trkpt lat="43.950054980814457" lon="4.860881986096501">
        <ele>25.609999999999999</ele>
        <time>2025-05-17T09:18:29Z</time>
      </trkpt>
      <trkpt lat="43.950054980814457" lon="4.86102799884975">
        <ele>25.609999999999999</ele>
        <time>2025-05-17T09:18:30Z</time>
      </trkpt>
      <trkpt lat="43.950054980814457" lon="4.861213993281126">
        <ele>25.609999999999999</ele>
        <time>2025-05-17T09:18:31Z</time>
      </trkpt>
      <trkpt lat="43.950024973601103" lon="4.861323963850737">
        <ele>25.609999999999999</ele>
        <time>2025-05-17T09:18:32Z</time>
      </trkpt>
      <trkpt lat="43.949983986094594" lon="4.861481040716171">
        <ele>25.609999999999999</ele>
        <time>2025-05-17T09:18:33Z</time>
      </trkpt>
      <trkpt lat="43.949704030528665" lon="4.863010989502072">
        <ele>25.129999999999999</ele>
        <time>2025-05-17T09:18:41Z</time>
      </trkpt>
      <trkpt lat="43.949625995010138" lon="4.863824034109712">
        <ele>24.649999999999999</ele>
        <time>2025-05-17T09:18:45Z</time>
      </trkpt>
      <trkpt lat="43.949629012495279" lon="4.864032994955778">
        <ele>24.649999999999999</ele>
        <time>2025-05-17T09:18:46Z</time>
      </trkpt>
      <trkpt lat="43.949648039415479" lon="4.864245979115367">
        <ele>24.649999999999999</ele>
        <time>2025-05-17T09:18:47Z</time>
      </trkpt>
      <trkpt lat="43.949840990826488" lon="4.866173984482884">
        <ele>25.609999999999999</ele>
        <time>2025-05-17T09:18:56Z</time>
      </trkpt>
      <trkpt lat="43.949840990826488" lon="4.866371965035796">
        <ele>26.09</ele>
        <time>2025-05-17T09:18:57Z</time>
      </trkpt>
      <trkpt lat="43.949797991663218" lon="4.866568017750979">
        <ele>26.09</ele>
        <time>2025-05-17T09:18:58Z</time>
      </trkpt>
      <trkpt lat="43.949719034135342" lon="4.866747977212071">
        <ele>26.57</ele>
        <time>2025-05-17T09:18:59Z</time>
      </trkpt>
      <trkpt lat="43.949001962319016" lon="4.868478002026677">
        <ele>27.530000000000001</ele>
        <time>2025-05-17T09:19:08Z</time>
      </trkpt>
      <trkpt lat="43.948791995644569" lon="4.869060041382909">
        <ele>28.02</ele>
        <time>2025-05-17T09:19:11Z</time>
      </trkpt>
      <trkpt lat="43.948023039847612" lon="4.87110698595643">
        <ele>29.460000000000001</ele>
        <time>2025-05-17T09:19:21Z</time>
      </trkpt>
      <trkpt lat="43.947080997750163" lon="4.873524997383356">
        <ele>30.899999999999999</ele>
        <time>2025-05-17T09:19:32Z</time>
      </trkpt>
      <trkpt lat="43.945717010647058" lon="4.877060987055302">
        <ele>36.670000000000002</ele>
        <time>2025-05-17T09:19:48Z</time>
      </trkpt>
      <trkpt lat="43.944857027381659" lon="4.879865990951657">
        <ele>32.340000000000003</ele>
        <time>2025-05-17T09:20:00Z</time>
      </trkpt>
      <trkpt lat="43.94453801214695" lon="4.881304996088147">
        <ele>30.899999999999999</ele>
        <time>2025-05-17T09:20:07Z</time>
      </trkpt>
      <trkpt lat="43.944359980523586" lon="4.882128015160561">
        <ele>30.420000000000002</ele>
        <time>2025-05-17T09:20:11Z</time>
      </trkpt>
      <trkpt lat="43.943826975300908" lon="4.884308986365795">
        <ele>30.899999999999999</ele>
        <time>2025-05-17T09:20:21Z</time>
      </trkpt>
      <trkpt lat="43.943151980638504" lon="4.886493980884552">
        <ele>31.379999999999999</ele>
        <time>2025-05-17T09:20:31Z</time>
      </trkpt>
      <trkpt lat="43.942498024553061" lon="4.888423997908831">
        <ele>33.780000000000001</ele>
        <time>2025-05-17T09:20:40Z</time>
      </trkpt>
      <trkpt lat="43.94180903211236" lon="4.890898000448942">
        <ele>33.780000000000001</ele>
        <time>2025-05-17T09:20:52Z</time>
      </trkpt>
      <trkpt lat="43.941425979137421" lon="4.8927600402385">
        <ele>32.82</ele>
        <time>2025-05-17T09:21:02Z</time>
      </trkpt>
      <trkpt lat="43.941049966961145" lon="4.895071014761925">
        <ele>32.340000000000003</ele>
        <time>2025-05-17T09:21:13Z</time>
      </trkpt>
      <trkpt lat="43.940636990591884" lon="4.896715041249991">
        <ele>33.299999999999997</ele>
        <time>2025-05-17T09:21:22Z</time>
      </trkpt>
      <trkpt lat="43.940294003114104" lon="4.897889010608196">
        <ele>33.780000000000001</ele>
        <time>2025-05-17T09:21:30Z</time>
      </trkpt>
      <trkpt lat="43.940255027264357" lon="4.898032005876303">
        <ele>33.780000000000001</ele>
        <time>2025-05-17T09:21:31Z</time>
      </trkpt>
      <trkpt lat="43.940099040046334" lon="4.899430023506284">
        <ele>33.299999999999997</ele>
        <time>2025-05-17T09:21:39Z</time>
      </trkpt>
      <trkpt lat="43.93994296900928" lon="4.900473989546299">
        <ele>34.259999999999998</ele>
        <time>2025-05-17T09:21:46Z</time>
      </trkpt>
      <trkpt lat="43.939766027033329" lon="4.902295041829348">
        <ele>34.740000000000002</ele>
        <time>2025-05-17T09:21:57Z</time>
      </trkpt>
      <trkpt lat="43.939714981243014" lon="4.902862999588251">
        <ele>34.259999999999998</ele>
        <time>2025-05-17T09:22:01Z</time>
      </trkpt>
      <trkpt lat="43.93970400094986" lon="4.902966013178229">
        <ele>34.259999999999998</ele>
        <time>2025-05-17T09:22:02Z</time>
      </trkpt>
      <trkpt lat="43.939691008999944" lon="4.903077995404601">
        <ele>34.259999999999998</ele>
        <time>2025-05-17T09:22:03Z</time>
      </trkpt>
      <trkpt lat="43.939583972096443" lon="4.903178997337818">
        <ele>34.259999999999998</ele>
        <time>2025-05-17T09:22:04Z</time>
      </trkpt>
      <trkpt lat="43.939583972096443" lon="4.903228031471372">
        <ele>34.259999999999998</ele>
        <time>2025-05-17T09:22:05Z</time>
      </trkpt>
      <trkpt lat="43.939610039815307" lon="4.903444033116102">
        <ele>34.259999999999998</ele>
        <time>2025-05-17T09:22:06Z</time>
      </trkpt>
      <trkpt lat="43.939582966268063" lon="4.903564983978868">
        <ele>34.740000000000002</ele>
        <time>2025-05-17T09:22:07Z</time>
      </trkpt>
      <trkpt lat="43.939553964883089" lon="4.903692975640297">
        <ele>34.259999999999998</ele>
        <time>2025-05-17T09:22:08Z</time>
      </trkpt>
      <trkpt lat="43.939351039007306" lon="4.90481598302722">
        <ele>35.229999999999997</ele>
        <time>2025-05-17T09:22:18Z</time>
      </trkpt>
      <trkpt lat="43.939342992380261" lon="4.904888989403844">
        <ele>35.229999999999997</ele>
        <time>2025-05-17T09:22:19Z</time>
      </trkpt>
      <trkpt lat="43.93933704122901" lon="4.904950009658933">
        <ele>35.229999999999997</ele>
        <time>2025-05-17T09:22:20Z</time>
      </trkpt>
      <trkpt lat="43.939330000430346" lon="4.905014969408512">
        <ele>35.710000000000001</ele>
        <time>2025-05-17T09:22:22Z</time>
      </trkpt>
      <trkpt lat="43.939330000430346" lon="4.905016981065273">
        <ele>37.630000000000003</ele>
        <time>2025-05-17T09:22:30Z</time>
      </trkpt>
      <trkpt lat="43.939257999882102" lon="4.905453007668257">
        <ele>39.07</ele>
        <time>2025-05-17T09:22:37Z</time>
      </trkpt>
      <trkpt lat="43.939169989898801" lon="4.906417010352016">
        <ele>40.030000000000001</ele>
        <time>2025-05-17T09:22:45Z</time>
      </trkpt>
      <trkpt lat="43.939156997948885" lon="4.90653402172029">
        <ele>40.509999999999998</ele>
        <time>2025-05-17T09:22:46Z</time>
      </trkpt>
      <trkpt lat="43.939141994342208" lon="4.906652038916946">
        <ele>40.990000000000002</ele>
        <time>2025-05-17T09:22:47Z</time>
      </trkpt>
      <trkpt lat="43.939076028764248" lon="4.907108014449477">
        <ele>42.920000000000002</ele>
        <time>2025-05-17T09:22:51Z</time>
      </trkpt>
      <trkpt lat="43.939035041257739" lon="4.907388975843787">
        <ele>45.32</ele>
        <time>2025-05-17T09:22:54Z</time>
      </trkpt>
      <trkpt lat="43.939004028216004" lon="4.907541023567319">
        <ele>46.280000000000001</ele>
        <time>2025-05-17T09:22:55Z</time>
      </trkpt>
      <trkpt lat="43.938997993245721" lon="4.907575976103544">
        <ele>47.240000000000002</ele>
        <time>2025-05-17T09:22:56Z</time>
      </trkpt>
      <trkpt lat="43.938981983810663" lon="4.90765099413693">
        <ele>48.200000000000003</ele>
        <time>2025-05-17T09:22:57Z</time>
      </trkpt>
      <trkpt lat="43.938967986032367" lon="4.907710002735257">
        <ele>48.68</ele>
        <time>2025-05-17T09:22:58Z</time>
      </trkpt>
      <trkpt lat="43.938954994082451" lon="4.907761970534921">
        <ele>49.159999999999997</ele>
        <time>2025-05-17T09:23:03Z</time>
      </trkpt>
      <trkpt lat="43.938832031562924" lon="4.907830031588674">
        <ele>49.649999999999999</ele>
        <time>2025-05-17T09:23:05Z</time>
      </trkpt>
      <trkpt lat="43.938784003257751" lon="4.907897002995014">
        <ele>50.130000000000003</ele>
        <time>2025-05-17T09:23:06Z</time>
      </trkpt>
      <trkpt lat="43.938747039064765" lon="4.907948970794678">
        <ele>50.609999999999999</ele>
        <time>2025-05-17T09:23:07Z</time>
      </trkpt>
      <trkpt lat="43.938827002421021" lon="4.908134965226054">
        <ele>50.609999999999999</ele>
        <time>2025-05-17T09:23:08Z</time>
      </trkpt>
      <trkpt lat="43.938795989379287" lon="4.908219035714865">
        <ele>50.609999999999999</ele>
        <time>2025-05-17T09:23:09Z</time>
      </trkpt>
      <trkpt lat="43.938764976337552" lon="4.908303022384644">
        <ele>50.609999999999999</ele>
        <time>2025-05-17T09:23:10Z</time>
      </trkpt>
      <trkpt lat="43.938736980780959" lon="4.908387009054422">
        <ele>50.609999999999999</ele>
        <time>2025-05-17T09:23:11Z</time>
      </trkpt>
      <trkpt lat="43.938554003834724" lon="4.908464038744569">
        <ele>50.130000000000003</ele>
        <time>2025-05-17T09:23:12Z</time>
      </trkpt>
      <trkpt lat="43.938535982742906" lon="4.908484993502498">
        <ele>49.649999999999999</ele>
        <time>2025-05-17T09:23:13Z</time>
      </trkpt>
      <trkpt lat="43.938468005508184" lon="4.908566968515515">
        <ele>49.159999999999997</ele>
        <time>2025-05-17T09:23:14Z</time>
      </trkpt>
      <trkpt lat="43.93845995888114" lon="4.90868397988379">
        <ele>49.159999999999997</ele>
        <time>2025-05-17T09:23:15Z</time>
      </trkpt>
      <trkpt lat="43.938475968316197" lon="4.908785987645388">
        <ele>49.159999999999997</ele>
        <time>2025-05-17T09:23:16Z</time>
      </trkpt>
      <trkpt lat="43.938491977751255" lon="4.908875003457069">
        <ele>49.159999999999997</ele>
        <time>2025-05-17T09:23:17Z</time>
      </trkpt>
      <trkpt lat="43.938554003834724" lon="4.908957984298468">
        <ele>48.68</ele>
        <time>2025-05-17T09:23:18Z</time>
      </trkpt>
      <trkpt lat="43.938554003834724" lon="4.908957984298468">
        <ele>48.68</ele>
        <time>2025-05-17T09:23:19Z</time>
      </trkpt>
      <trkpt lat="43.938661040738225" lon="4.90915697067976">
        <ele>48.68</ele>
        <time>2025-05-17T09:23:20Z</time>
      </trkpt>
      <trkpt lat="43.938661040738225" lon="4.909272976219654">
        <ele>48.68</ele>
        <time>2025-05-17T09:23:21Z</time>
      </trkpt>
      <trkpt lat="43.938646959140897" lon="4.909416977316141">
        <ele>48.200000000000003</ele>
        <time>2025-05-17T09:23:22Z</time>
      </trkpt>
      <trkpt lat="43.938618963584304" lon="4.909567013382912">
        <ele>48.200000000000003</ele>
        <time>2025-05-17T09:23:23Z</time>
      </trkpt>
      <trkpt lat="43.938589040189981" lon="4.909723000600934">
        <ele>48.68</ele>
        <time>2025-05-17T09:23:24Z</time>
      </trkpt>
      <trkpt lat="43.938152007758617" lon="4.912049984559417">
        <ele>56.369999999999997</ele>
        <time>2025-05-17T09:23:38Z</time>
      </trkpt>
      <trkpt lat="43.937637023627758" lon="4.914599005132914">
        <ele>59.259999999999998</ele>
        <time>2025-05-17T09:23:51Z</time>
      </trkpt>
      <trkpt lat="43.9369129948318" lon="4.916417039930821">
        <ele>66.469999999999999</ele>
        <time>2025-05-17T09:24:00Z</time>
      </trkpt>
      <trkpt lat="43.936071032658219" lon="4.918401036411524">
        <ele>77.519999999999996</ele>
        <time>2025-05-17T09:24:10Z</time>
      </trkpt>
      <trkpt lat="43.935990985482931" lon="4.91858996450901">
        <ele>78.480000000000004</ele>
        <time>2025-05-17T09:24:11Z</time>
      </trkpt>
      <trkpt lat="43.935912027955055" lon="4.918775036931038">
        <ele>79.930000000000007</ele>
        <time>2025-05-17T09:24:12Z</time>
      </trkpt>
      <trkpt lat="43.935002004727721" lon="4.920927006751299">
        <ele>92.900000000000006</ele>
        <time>2025-05-17T09:24:24Z</time>
      </trkpt>
      <trkpt lat="43.934542005881667" lon="4.921834012493491">
        <ele>95.790000000000006</ele>
        <time>2025-05-17T09:24:29Z</time>
      </trkpt>
      <trkpt lat="43.934408985078335" lon="4.921942977234721">
        <ele>96.75</ele>
        <time>2025-05-17T09:24:30Z</time>
      </trkpt>
      <trkpt lat="43.934256015345454" lon="4.921997962519527">
        <ele>97.709999999999994</ele>
        <time>2025-05-17T09:24:31Z</time>
      </trkpt>
      <trkpt lat="43.934087958186865" lon="4.92200399748981">
        <ele>98.670000000000002</ele>
        <time>2025-05-17T09:24:32Z</time>
      </trkpt>
      <trkpt lat="43.933909004554152" lon="4.92200399748981">
        <ele>99.629999999999995</ele>
        <time>2025-05-17T09:24:33Z</time>
      </trkpt>
      <trkpt lat="43.93336501903832" lon="4.922054037451744">
        <ele>103</ele>
        <time>2025-05-17T09:24:36Z</time>
      </trkpt>
      <trkpt lat="43.932855986058712" lon="4.92223902605474">
        <ele>106.36</ele>
        <time>2025-05-17T09:24:39Z</time>
      </trkpt>
      <trkpt lat="43.932553986087441" lon="4.922382021322846">
        <ele>108.77</ele>
        <time>2025-05-17T09:24:41Z</time>
      </trkpt>
      <trkpt lat="43.932023998349905" lon="4.922701036557555">
        <ele>113.09</ele>
        <time>2025-05-17T09:24:45Z</time>
      </trkpt>
      <trkpt lat="43.931904975324869" lon="4.922803966328502">
        <ele>113.56999999999999</ele>
        <time>2025-05-17T09:24:46Z</time>
      </trkpt>
      <trkpt lat="43.931806990876794" lon="4.92294997908175">
        <ele>114.53</ele>
        <time>2025-05-17T09:24:47Z</time>
      </trkpt>
      <trkpt lat="43.931728033348918" lon="4.923114012926817">
        <ele>115.5</ele>
        <time>2025-05-17T09:24:48Z</time>
      </trkpt>
      <trkpt lat="43.931671036407351" lon="4.923306964337826">
        <ele>116.45999999999999</ele>
        <time>2025-05-17T09:24:49Z</time>
      </trkpt>
      <trkpt lat="43.931639017537236" lon="4.92350704036653">
        <ele>117.42</ele>
        <time>2025-05-17T09:24:50Z</time>
      </trkpt>
      <trkpt lat="43.931627031415701" lon="4.923725975677371">
        <ele>118.38</ele>
        <time>2025-05-17T09:24:51Z</time>
      </trkpt>
      <trkpt lat="43.931642035022378" lon="4.923941977322102">
        <ele>119.34</ele>
        <time>2025-05-17T09:24:52Z</time>
      </trkpt>
      <trkpt lat="43.931672964245081" lon="4.924169965088368">
        <ele>120.3</ele>
        <time>2025-05-17T09:24:53Z</time>
      </trkpt>
      <trkpt lat="43.931709006428719" lon="4.924396025016904">
        <ele>120.78</ele>
        <time>2025-05-17T09:24:54Z</time>
      </trkpt>
      <trkpt lat="43.931750999763608" lon="4.924623006954789">
        <ele>121.26000000000001</ele>
        <time>2025-05-17T09:24:55Z</time>
      </trkpt>
      <trkpt lat="43.932132963091135" lon="4.926626030355692">
        <ele>122.22</ele>
        <time>2025-05-17T09:25:04Z</time>
      </trkpt>
      <trkpt lat="43.932159030809999" lon="4.927089968696237">
        <ele>122.22</ele>
        <time>2025-05-17T09:25:06Z</time>
      </trkpt>
      <trkpt lat="43.932119971141219" lon="4.927318040281534">
        <ele>121.73999999999999</ele>
        <time>2025-05-17T09:25:07Z</time>
      </trkpt>
      <trkpt lat="43.932069009169936" lon="4.927552985027432">
        <ele>121.26000000000001</ele>
        <time>2025-05-17T09:25:08Z</time>
      </trkpt>
      <trkpt lat="43.93201201222837" lon="4.927794970571995">
        <ele>120.78</ele>
        <time>2025-05-17T09:25:09Z</time>
      </trkpt>
      <trkpt lat="43.931939005851746" lon="4.92804198525846">
        <ele>119.81999999999999</ele>
        <time>2025-05-17T09:25:10Z</time>
      </trkpt>
      <trkpt lat="43.93111196346581" lon="4.930803989991546">
        <ele>111.65000000000001</ele>
        <time>2025-05-17T09:25:21Z</time>
      </trkpt>
      <trkpt lat="43.930545011535287" lon="4.932434018701315">
        <ele>108.77</ele>
        <time>2025-05-17T09:25:28Z</time>
      </trkpt>
      <trkpt lat="43.929685028269887" lon="4.934476017951965">
        <ele>110.20999999999999</ele>
        <time>2025-05-17T09:25:38Z</time>
      </trkpt>
      <trkpt lat="43.929438013583422" lon="4.935078006237745">
        <ele>113.56999999999999</ele>
        <time>2025-05-17T09:25:43Z</time>
      </trkpt>
      <trkpt lat="43.929399037733674" lon="4.935171967372298">
        <ele>114.05</ele>
        <time>2025-05-17T09:25:44Z</time>
      </trkpt>
      <trkpt lat="43.9292629994452" lon="4.935222007334232">
        <ele>115.5</ele>
        <time>2025-05-17T09:25:45Z</time>
      </trkpt>
      <trkpt lat="43.929232992231846" lon="4.935243967920542">
        <ele>116.45999999999999</ele>
        <time>2025-05-17T09:25:46Z</time>
      </trkpt>
      <trkpt lat="43.929172977805138" lon="4.935328960418701">
        <ele>116.94</ele>
        <time>2025-05-17T09:25:47Z</time>
      </trkpt>
      <trkpt lat="43.929163003340364" lon="4.935420993715525">
        <ele>118.38</ele>
        <time>2025-05-17T09:25:48Z</time>
      </trkpt>
      <trkpt lat="43.929155040532351" lon="4.935501040890813">
        <ele>119.34</ele>
        <time>2025-05-17T09:25:49Z</time>
      </trkpt>
      <trkpt lat="43.929218994453549" lon="4.935679994523525">
        <ele>119.81999999999999</ele>
        <time>2025-05-17T09:25:50Z</time>
      </trkpt>
      <trkpt lat="43.929183036088943" lon="4.935794994235039">
        <ele>120.3</ele>
        <time>2025-05-17T09:25:51Z</time>
      </trkpt>
      <trkpt lat="43.929142970591784" lon="4.935923991724849">
        <ele>121.26000000000001</ele>
        <time>2025-05-17T09:25:52Z</time>
      </trkpt>
      <trkpt lat="43.929099971428514" lon="4.936062041670084">
        <ele>121.73999999999999</ele>
        <time>2025-05-17T09:25:53Z</time>
      </trkpt>
      <trkpt lat="43.928791014477611" lon="4.937088992446661">
        <ele>124.15000000000001</ele>
        <time>2025-05-17T09:26:02Z</time>
      </trkpt>
      <trkpt lat="43.928780034184456" lon="4.937153030186892">
        <ele>124.15000000000001</ele>
        <time>2025-05-17T09:26:03Z</time>
      </trkpt>
      <trkpt lat="43.928383989259601" lon="4.938512993976474">
        <ele>123.19</ele>
        <time>2025-05-17T09:26:14Z</time>
      </trkpt>
      <trkpt lat="43.92827401868999" lon="4.938786998391151">
        <ele>122.22</ele>
        <time>2025-05-17T09:26:16Z</time>
      </trkpt>
      <trkpt lat="43.928209980949759" lon="4.938927982002497">
        <ele>121.73999999999999</ele>
        <time>2025-05-17T09:26:17Z</time>
      </trkpt>
      <trkpt lat="43.928134962916374" lon="4.939049016684294">
        <ele>121.26000000000001</ele>
        <time>2025-05-17T09:26:18Z</time>
      </trkpt>
      <trkpt lat="43.928063968196511" lon="4.939165022224188">
        <ele>120.3</ele>
        <time>2025-05-17T09:26:19Z</time>
      </trkpt>
      <trkpt lat="43.927970007061958" lon="4.939249008893967">
        <ele>119.81999999999999</ele>
        <time>2025-05-17T09:26:20Z</time>
      </trkpt>
      <trkpt lat="43.927889037877321" lon="4.93932000361383">
        <ele>118.86</ele>
        <time>2025-05-17T09:26:21Z</time>
      </trkpt>
      <trkpt lat="43.927784012630582" lon="4.939337018877268">
        <ele>118.38</ele>
        <time>2025-05-17T09:26:22Z</time>
      </trkpt>
      <trkpt lat="43.927682004868984" lon="4.939353028312326">
        <ele>117.42</ele>
        <time>2025-05-17T09:26:23Z</time>
      </trkpt>
      <trkpt lat="43.927573962137103" lon="4.939369959756732">
        <ele>116.94</ele>
        <time>2025-05-17T09:26:24Z</time>
      </trkpt>
      <trkpt lat="43.92745996825397" lon="4.939382029697299">
        <ele>115.98</ele>
        <time>2025-05-17T09:26:25Z</time>
      </trkpt>
      <trkpt lat="43.927339017391205" lon="4.939365014433861">
        <ele>115.5</ele>
        <time>2025-05-17T09:26:26Z</time>
      </trkpt>
      <trkpt lat="43.927214965224266" lon="4.939347999170423">
        <ele>115.01000000000001</ele>
        <time>2025-05-17T09:26:27Z</time>
      </trkpt>
      <trkpt lat="43.926973985508084" lon="4.939326038584113">
        <ele>113.56999999999999</ele>
        <time>2025-05-17T09:26:29Z</time>
      </trkpt>
      <trkpt lat="43.92685697413981" lon="4.9393439758569">
        <ele>112.61</ele>
        <time>2025-05-17T09:26:30Z</time>
      </trkpt>
      <trkpt lat="43.926743986085057" lon="4.939360991120338">
        <ele>112.13</ele>
        <time>2025-05-17T09:26:31Z</time>
      </trkpt>
      <trkpt lat="43.926656981930137" lon="4.939437014982104">
        <ele>111.17</ele>
        <time>2025-05-17T09:26:32Z</time>
      </trkpt>
      <trkpt lat="43.926575006917119" lon="4.939518989995122">
        <ele>110.69</ele>
        <time>2025-05-17T09:26:33Z</time>
      </trkpt>
      <trkpt lat="43.926496971398592" lon="4.939597025513649">
        <ele>110.20999999999999</ele>
        <time>2025-05-17T09:26:34Z</time>
      </trkpt>
      <trkpt lat="43.926422037184238" lon="4.939671959728003">
        <ele>109.73</ele>
        <time>2025-05-17T09:26:35Z</time>
      </trkpt>
      <trkpt lat="43.926349030807614" lon="4.939743960276246">
        <ele>109.25</ele>
        <time>2025-05-17T09:26:36Z</time>
      </trkpt>
      <trkpt lat="43.926197988912463" lon="4.939896007999778">
        <ele>108.29000000000001</ele>
        <time>2025-05-17T09:26:38Z</time>
      </trkpt>
      <trkpt lat="43.925741007551551" lon="4.940486010164022">
        <ele>104.92</ele>
        <time>2025-05-17T09:26:44Z</time>
      </trkpt>
      <trkpt lat="43.925702031701803" lon="4.940604027360678">
        <ele>104.44</ele>
        <time>2025-05-17T09:26:45Z</time>
      </trkpt>
      <trkpt lat="43.925732038915157" lon="4.940711986273527">
        <ele>103.48</ele>
        <time>2025-05-17T09:26:46Z</time>
      </trkpt>
      <trkpt lat="43.925772020593286" lon="4.940827991813421">
        <ele>103</ele>
        <time>2025-05-17T09:26:47Z</time>
      </trkpt>
      <trkpt lat="43.925863970071077" lon="4.940903009846807">
        <ele>102.52</ele>
        <time>2025-05-17T09:26:48Z</time>
      </trkpt>
      <trkpt lat="43.925966983661056" lon="4.940988002344966">
        <ele>102.04000000000001</ele>
        <time>2025-05-17T09:26:49Z</time>
      </trkpt>
      <trkpt lat="43.926077960059047" lon="4.941070983186364">
        <ele>101.56</ele>
        <time>2025-05-17T09:26:50Z</time>
      </trkpt>
      <trkpt lat="43.926191031932831" lon="4.941152958199382">
        <ele>100.59999999999999</ele>
        <time>2025-05-17T09:26:51Z</time>
      </trkpt>
      <trkpt lat="43.926302008330822" lon="4.94123300537467">
        <ele>100.11</ele>
        <time>2025-05-17T09:26:52Z</time>
      </trkpt>
      <trkpt lat="43.926623035222292" lon="4.941466022282839">
        <ele>97.709999999999994</ele>
        <time>2025-05-17T09:26:56Z</time>
      </trkpt>
      <trkpt lat="43.926712973043323" lon="4.941614968702197">
        <ele>97.230000000000004</ele>
        <time>2025-05-17T09:26:57Z</time>
      </trkpt>
      <trkpt lat="43.926763013005257" lon="4.941725023090839">
        <ele>96.75</ele>
        <time>2025-05-17T09:26:58Z</time>
      </trkpt>
      <trkpt lat="43.926799977198243" lon="4.941873969510198">
        <ele>96.75</ele>
        <time>2025-05-17T09:26:59Z</time>
      </trkpt>
      <trkpt lat="43.926838031038642" lon="4.942024005576968">
        <ele>96.269999999999996</ele>
        <time>2025-05-17T09:27:00Z</time>
      </trkpt>
      <trkpt lat="43.927004998549819" lon="4.943056991323829">
        <ele>90.980000000000004</ele>
        <time>2025-05-17T09:27:09Z</time>
      </trkpt>
      <trkpt lat="43.927113963291049" lon="4.943686975166202">
        <ele>87.140000000000001</ele>
        <time>2025-05-17T09:27:16Z</time>
      </trkpt>
      <trkpt lat="43.927128966897726" lon="4.943776996806264">
        <ele>86.659999999999997</ele>
        <time>2025-05-17T09:27:17Z</time>
      </trkpt>
      <trkpt lat="43.927142964676023" lon="4.943865006789565">
        <ele>85.689999999999998</ele>
        <time>2025-05-17T09:27:18Z</time>
      </trkpt>
      <trkpt lat="43.927242960780859" lon="4.94441301561892">
        <ele>84.25</ele>
        <time>2025-05-17T09:27:24Z</time>
      </trkpt>
      <trkpt lat="43.927257964387536" lon="4.944503959268332">
        <ele>83.769999999999996</ele>
        <time>2025-05-17T09:27:25Z</time>
      </trkpt>
      <trkpt lat="43.927299035713077" lon="4.944765977561474">
        <ele>83.290000000000006</ele>
        <time>2025-05-17T09:27:28Z</time>
      </trkpt>
      <trkpt lat="43.927383022382855" lon="4.945232011377811">
        <ele>80.890000000000001</ele>
        <time>2025-05-17T09:27:33Z</time>
      </trkpt>
      <trkpt lat="43.927432978525758" lon="4.945322033017874">
        <ele>80.409999999999997</ele>
        <time>2025-05-17T09:27:34Z</time>
      </trkpt>
      <trkpt lat="43.927491987124085" lon="4.945395961403847">
        <ele>79.450000000000003</ele>
        <time>2025-05-17T09:27:35Z</time>
      </trkpt>
      <trkpt lat="43.92756599932909" lon="4.945452958345413">
        <ele>78.969999999999999</ele>
        <time>2025-05-17T09:27:36Z</time>
      </trkpt>
      <trkpt lat="43.927653003484011" lon="4.945521019399166">
        <ele>78.480000000000004</ele>
        <time>2025-05-17T09:27:37Z</time>
      </trkpt>
      <trkpt lat="43.927705977112055" lon="4.945548009127379">
        <ele>78</ele>
        <time>2025-05-17T09:27:38Z</time>
      </trkpt>
      <trkpt lat="43.928389018401504" lon="4.94580801576376">
        <ele>77.519999999999996</ele>
        <time>2025-05-17T09:27:47Z</time>
      </trkpt>
      <trkpt lat="43.928543999791145" lon="4.945903988555074">
        <ele>77.040000000000006</ele>
        <time>2025-05-17T09:27:49Z</time>
      </trkpt>
      <trkpt lat="43.928738962858915" lon="4.946137005463243">
        <ele>73.680000000000007</ele>
        <time>2025-05-17T09:27:52Z</time>
      </trkpt>
      <trkpt lat="43.928803000599146" lon="4.946214035153389">
        <ele>72.719999999999999</ele>
        <time>2025-05-17T09:27:53Z</time>
      </trkpt>
      <trkpt lat="43.928842982277274" lon="4.946318976581097">
        <ele>71.269999999999996</ele>
        <time>2025-05-17T09:27:54Z</time>
      </trkpt>
      <trkpt lat="43.928856980055571" lon="4.94643003679812">
        <ele>70.310000000000002</ele>
        <time>2025-05-17T09:27:55Z</time>
      </trkpt>
      <trkpt lat="43.928871983662248" lon="4.946537995710969">
        <ele>69.829999999999998</ele>
        <time>2025-05-17T09:27:56Z</time>
      </trkpt>
      <trkpt lat="43.928845999762416" lon="4.94662600569427">
        <ele>69.349999999999994</ele>
        <time>2025-05-17T09:27:57Z</time>
      </trkpt>
      <trkpt lat="43.928791014477611" lon="4.946722984313965">
        <ele>68.390000000000001</ele>
        <time>2025-05-17T09:27:58Z</time>
      </trkpt>
      <trkpt lat="43.928719013929367" lon="4.94677796959877">
        <ele>67.909999999999997</ele>
        <time>2025-05-17T09:27:59Z</time>
      </trkpt>
      <trkpt lat="43.928643995895982" lon="4.946835972368717">
        <ele>66.950000000000003</ele>
        <time>2025-05-17T09:28:00Z</time>
      </trkpt>
      <trkpt lat="43.927660966292024" lon="4.947514990344644">
        <ele>60.219999999999999</ele>
        <time>2025-05-17T09:28:12Z</time>
      </trkpt>
      <trkpt lat="43.927429039031267" lon="4.947679024189711">
        <ele>59.740000000000002</ele>
        <time>2025-05-17T09:28:15Z</time>
      </trkpt>
      <trkpt lat="43.927293000742793" lon="4.947774996981025">
        <ele>59.740000000000002</ele>
        <time>2025-05-17T09:28:17Z</time>
      </trkpt>
      <trkpt lat="43.927232986316085" lon="4.947817996144295">
        <ele>59.740000000000002</ele>
        <time>2025-05-17T09:28:18Z</time>
      </trkpt>
      <trkpt lat="43.927098959684372" lon="4.947912963107228">
        <ele>59.259999999999998</ele>
        <time>2025-05-17T09:28:24Z</time>
      </trkpt>
      <trkpt lat="43.926972979679704" lon="4.948055036365986">
        <ele>60.219999999999999</ele>
        <time>2025-05-17T09:28:37Z</time>
      </trkpt>
      <trkpt lat="43.92681397497654" lon="4.948274977505207">
        <ele>60.219999999999999</ele>
        <time>2025-05-17T09:28:41Z</time>
      </trkpt>
      <trkpt lat="43.926776004955173" lon="4.948358964174986">
        <ele>60.219999999999999</ele>
        <time>2025-05-17T09:28:42Z</time>
      </trkpt>
      <trkpt lat="43.926738034933805" lon="4.948444962501526">
        <ele>60.219999999999999</ele>
        <time>2025-05-17T09:28:43Z</time>
      </trkpt>
      <trkpt lat="43.926730994135141" lon="4.948555016890168">
        <ele>60.219999999999999</ele>
        <time>2025-05-17T09:28:44Z</time>
      </trkpt>
      <trkpt lat="43.926730994135141" lon="4.948674961924553">
        <ele>60.219999999999999</ele>
        <time>2025-05-17T09:28:45Z</time>
      </trkpt>
      <trkpt lat="43.926730994135141" lon="4.948789961636066">
        <ele>60.219999999999999</ele>
        <time>2025-05-17T09:28:46Z</time>
      </trkpt>
      <trkpt lat="43.926730994135141" lon="4.948899010196328">
        <ele>60.219999999999999</ele>
        <time>2025-05-17T09:28:47Z</time>
      </trkpt>
      <trkpt lat="43.926739962771535" lon="4.949518013745546">
        <ele>59.740000000000002</ele>
        <time>2025-05-17T09:28:53Z</time>
      </trkpt>
      <trkpt lat="43.926752032712102" lon="4.95012897066772">
        <ele>56.859999999999999</ele>
        <time>2025-05-17T09:28:59Z</time>
      </trkpt>
      <trkpt lat="43.926793020218611" lon="4.950371962040663">
        <ele>56.859999999999999</ele>
        <time>2025-05-17T09:29:02Z</time>
      </trkpt>
      <trkpt lat="43.926836019381881" lon="4.950894992798567">
        <ele>55.409999999999997</ele>
        <time>2025-05-17T09:29:08Z</time>
      </trkpt>
      <trkpt lat="43.926833001896739" lon="4.95098602026701">
        <ele>54.93</ele>
        <time>2025-05-17T09:29:09Z</time>
      </trkpt>
      <trkpt lat="43.926838031038642" lon="4.95218999683857">
        <ele>53.490000000000002</ele>
        <time>2025-05-17T09:29:19Z</time>
      </trkpt>
      <trkpt lat="43.926756978034973" lon="4.953579967841506">
        <ele>51.57</ele>
        <time>2025-05-17T09:29:27Z</time>
      </trkpt>
      <trkpt lat="43.926567966118455" lon="4.955016039311886">
        <ele>52.049999999999997</ele>
        <time>2025-05-17T09:29:34Z</time>
      </trkpt>
      <trkpt lat="43.925966983661056" lon="4.95762599632144">
        <ele>54.450000000000003</ele>
        <time>2025-05-17T09:29:44Z</time>
      </trkpt>
      <trkpt lat="43.925905963405967" lon="4.957889020442963">
        <ele>54.450000000000003</ele>
        <time>2025-05-17T09:29:45Z</time>
      </trkpt>
      <trkpt lat="43.92584502696991" lon="4.958150032907724">
        <ele>54.450000000000003</ele>
        <time>2025-05-17T09:29:46Z</time>
      </trkpt>
      <trkpt lat="43.925142036750913" lon="4.961174977943301">
        <ele>53.490000000000002</ele>
        <time>2025-05-17T09:29:58Z</time>
      </trkpt>
      <trkpt lat="43.92442999407649" lon="4.964147033169866">
        <ele>55.409999999999997</ele>
        <time>2025-05-17T09:30:10Z</time>
      </trkpt>
      <trkpt lat="43.923833034932613" lon="4.966683983802795">
        <ele>58.299999999999997</ele>
        <time>2025-05-17T09:30:20Z</time>
      </trkpt>
      <trkpt lat="43.923588031902909" lon="4.968274030834436">
        <ele>61.18</ele>
        <time>2025-05-17T09:30:27Z</time>
      </trkpt>
      <trkpt lat="43.923664977774024" lon="4.969970025122166">
        <ele>63.100000000000001</ele>
        <time>2025-05-17T09:30:35Z</time>
      </trkpt>
      <trkpt lat="43.923920039087534" lon="4.97139897197485">
        <ele>62.140000000000001</ele>
        <time>2025-05-17T09:30:44Z</time>
      </trkpt>
      <trkpt lat="43.923958009108901" lon="4.971641963347793">
        <ele>62.140000000000001</ele>
        <time>2025-05-17T09:30:46Z</time>
      </trkpt>
      <trkpt lat="43.9239770360291" lon="4.97176299802959">
        <ele>61.659999999999997</ele>
        <time>2025-05-17T09:30:47Z</time>
      </trkpt>
      <trkpt lat="43.92391400411725" lon="4.971894007176161">
        <ele>61.659999999999997</ele>
        <time>2025-05-17T09:30:48Z</time>
      </trkpt>
      <trkpt lat="43.923894977197051" lon="4.97208796441555">
        <ele>61.659999999999997</ele>
        <time>2025-05-17T09:30:49Z</time>
      </trkpt>
      <trkpt lat="43.924006037414074" lon="4.97219298966229">
        <ele>61.659999999999997</ele>
        <time>2025-05-17T09:30:50Z</time>
      </trkpt>
      <trkpt lat="43.924029003828764" lon="4.972311006858945">
        <ele>61.18</ele>
        <time>2025-05-17T09:30:51Z</time>
      </trkpt>
      <trkpt lat="43.924056999385357" lon="4.972457019612193">
        <ele>61.18</ele>
        <time>2025-05-17T09:30:52Z</time>
      </trkpt>
      <trkpt lat="43.924408033490181" lon="4.974239012226462">
        <ele>59.259999999999998</ele>
        <time>2025-05-17T09:31:02Z</time>
      </trkpt>
      <trkpt lat="43.924812963232398" lon="4.976402968168259">
        <ele>59.740000000000002</ele>
        <time>2025-05-17T09:31:12Z</time>
      </trkpt>
      <trkpt lat="43.924898961558938" lon="4.97687503695488">
        <ele>60.219999999999999</ele>
        <time>2025-05-17T09:31:14Z</time>
      </trkpt>
      <trkpt lat="43.924941038712859" lon="4.977103024721146">
        <ele>60.700000000000003</ele>
        <time>2025-05-17T09:31:15Z</time>
      </trkpt>
      <trkpt lat="43.92520003952086" lon="4.978632973507047">
        <ele>62.619999999999997</ele>
        <time>2025-05-17T09:31:23Z</time>
      </trkpt>
      <trkpt lat="43.925473038107157" lon="4.980203993618488">
        <ele>65.030000000000001</ele>
        <time>2025-05-17T09:31:33Z</time>
      </trkpt>
      <trkpt lat="43.925771014764905" lon="4.981819018721581">
        <ele>67.430000000000007</ele>
        <time>2025-05-17T09:31:43Z</time>
      </trkpt>
      <trkpt lat="43.926102016121149" lon="4.983604028820992">
        <ele>66.469999999999999</ele>
        <time>2025-05-17T09:31:54Z</time>
      </trkpt>
      <trkpt lat="43.926371997222304" lon="4.985064994543791">
        <ele>66.950000000000003</ele>
        <time>2025-05-17T09:32:03Z</time>
      </trkpt>
      <trkpt lat="43.926408961415291" lon="4.985303962603211">
        <ele>66.950000000000003</ele>
        <time>2025-05-17T09:32:04Z</time>
      </trkpt>
      <trkpt lat="43.926429999992251" lon="4.985399013385177">
        <ele>66.950000000000003</ele>
        <time>2025-05-17T09:32:05Z</time>
      </trkpt>
      <trkpt lat="43.926648013293743" lon="4.986704997718334">
        <ele>66.950000000000003</ele>
        <time>2025-05-17T09:32:14Z</time>
      </trkpt>
      <trkpt lat="43.926710039377213" lon="4.987123003229499">
        <ele>68.390000000000001</ele>
        <time>2025-05-17T09:32:18Z</time>
      </trkpt>
      <trkpt lat="43.926724959164858" lon="4.987217970192432">
        <ele>68.870000000000005</ele>
        <time>2025-05-17T09:32:19Z</time>
      </trkpt>
      <trkpt lat="43.926902990788221" lon="4.988175015896559">
        <ele>72.719999999999999</ele>
        <time>2025-05-17T09:32:28Z</time>
      </trkpt>
      <trkpt lat="43.927076999098063" lon="4.989200960844755">
        <ele>72.719999999999999</ele>
        <time>2025-05-17T09:32:37Z</time>
      </trkpt>
      <trkpt lat="43.927102982997894" lon="4.989316966384649">
        <ele>73.200000000000003</ele>
        <time>2025-05-17T09:32:38Z</time>
      </trkpt>
      <trkpt lat="43.92715604044497" lon="4.989556018263102">
        <ele>72.719999999999999</ele>
        <time>2025-05-17T09:32:40Z</time>
      </trkpt>
      <trkpt lat="43.927182024344802" lon="4.989675963297486">
        <ele>72.719999999999999</ele>
        <time>2025-05-17T09:32:41Z</time>
      </trkpt>
      <trkpt lat="43.927205996587873" lon="4.98979196883738">
        <ele>72.239999999999995</ele>
        <time>2025-05-17T09:32:42Z</time>
      </trkpt>
      <trkpt lat="43.927218988537788" lon="4.989901017397642">
        <ele>72.239999999999995</ele>
        <time>2025-05-17T09:32:43Z</time>
      </trkpt>
      <trkpt lat="43.927233992144465" lon="4.990016017109156">
        <ele>71.760000000000005</ele>
        <time>2025-05-17T09:32:44Z</time>
      </trkpt>
      <trkpt lat="43.927445970475674" lon="4.991228962317109">
        <ele>68.870000000000005</ele>
        <time>2025-05-17T09:32:54Z</time>
      </trkpt>
      <trkpt lat="43.927656020969152" lon="4.992462024092674">
        <ele>66.469999999999999</ele>
        <time>2025-05-17T09:33:05Z</time>
      </trkpt>
      <trkpt lat="43.927677981555462" lon="4.992571994662285">
        <ele>66.469999999999999</ele>
        <time>2025-05-17T09:33:06Z</time>
      </trkpt>
      <trkpt lat="43.927721986547112" lon="4.992794031277299">
        <ele>66.469999999999999</ele>
        <time>2025-05-17T09:33:08Z</time>
      </trkpt>
      <trkpt lat="43.927809996530414" lon="4.993233997374773">
        <ele>66.469999999999999</ele>
        <time>2025-05-17T09:33:12Z</time>
      </trkpt>
      <trkpt lat="43.927926002070308" lon="4.993834979832172">
        <ele>68.390000000000001</ele>
        <time>2025-05-17T09:33:18Z</time>
      </trkpt>
      <trkpt lat="43.928087018430233" lon="4.994835024699569">
        <ele>69.829999999999998</ele>
        <time>2025-05-17T09:33:30Z</time>
      </trkpt>
      <trkpt lat="43.928207969292998" lon="4.995493004098535">
        <ele>73.680000000000007</ele>
        <time>2025-05-17T09:33:40Z</time>
      </trkpt>
      <trkpt lat="43.92825398594141" lon="4.995730966329575">
        <ele>75.120000000000005</ele>
        <time>2025-05-17T09:33:48Z</time>
      </trkpt>
      <trkpt lat="43.928241999819875" lon="4.995817970484495">
        <ele>75.599999999999994</ele>
        <time>2025-05-17T09:33:49Z</time>
      </trkpt>
      <trkpt lat="43.928233031183481" lon="4.995883014053106">
        <ele>75.599999999999994</ele>
        <time>2025-05-17T09:33:50Z</time>
      </trkpt>
      <trkpt lat="43.928201012313366" lon="4.995932970196009">
        <ele>75.599999999999994</ele>
        <time>2025-05-17T09:33:51Z</time>
      </trkpt>
      <trkpt lat="43.928162958472967" lon="4.995996002107859">
        <ele>75.599999999999994</ele>
        <time>2025-05-17T09:33:52Z</time>
      </trkpt>
      <trkpt lat="43.928120965138078" lon="4.996061967685819">
        <ele>75.599999999999994</ele>
        <time>2025-05-17T09:33:53Z</time>
      </trkpt>
      <trkpt lat="43.928078971803188" lon="4.996131034567952">
        <ele>75.599999999999994</ele>
        <time>2025-05-17T09:33:54Z</time>
      </trkpt>
      <trkpt lat="43.927899012342095" lon="4.996456000953913">
        <ele>74.640000000000001</ele>
        <time>2025-05-17T09:33:59Z</time>
      </trkpt>
      <trkpt lat="43.927858024835587" lon="4.996510986238718">
        <ele>74.640000000000001</ele>
        <time>2025-05-17T09:34:00Z</time>
      </trkpt>
      <trkpt lat="43.92767102457583" lon="4.996797982603312">
        <ele>74.159999999999997</ele>
        <time>2025-05-17T09:34:04Z</time>
      </trkpt>
      <trkpt lat="43.927622996270657" lon="4.9968780297786">
        <ele>74.159999999999997</ele>
        <time>2025-05-17T09:34:05Z</time>
      </trkpt>
      <trkpt lat="43.927571028470993" lon="4.99696402810514">
        <ele>73.680000000000007</ele>
        <time>2025-05-17T09:34:06Z</time>
      </trkpt>
      <trkpt lat="43.927525011822581" lon="4.997039968147874">
        <ele>73.680000000000007</ele>
        <time>2025-05-17T09:34:07Z</time>
      </trkpt>
      <trkpt lat="43.927487041801214" lon="4.997103000059724">
        <ele>73.680000000000007</ele>
        <time>2025-05-17T09:34:08Z</time>
      </trkpt>
      <trkpt lat="43.927453011274338" lon="4.99715999700129">
        <ele>73.200000000000003</ele>
        <time>2025-05-17T09:34:09Z</time>
      </trkpt>
      <trkpt lat="43.927421998232603" lon="4.997211964800954">
        <ele>73.680000000000007</ele>
        <time>2025-05-17T09:34:10Z</time>
      </trkpt>
      <trkpt lat="43.927267016842961" lon="4.997212970629334">
        <ele>72.719999999999999</ele>
        <time>2025-05-17T09:34:11Z</time>
      </trkpt>
      <trkpt lat="43.927246984094381" lon="4.99722596257925">
        <ele>71.760000000000005</ele>
        <time>2025-05-17T09:34:12Z</time>
      </trkpt>
      <trkpt lat="43.927202979102731" lon="4.997255969792604">
        <ele>71.760000000000005</ele>
        <time>2025-05-17T09:34:13Z</time>
      </trkpt>
      <trkpt lat="43.927185041829944" lon="4.997345991432667">
        <ele>71.760000000000005</ele>
        <time>2025-05-17T09:34:14Z</time>
      </trkpt>
      <trkpt lat="43.927181018516421" lon="4.997363006696105">
        <ele>71.760000000000005</ele>
        <time>2025-05-17T09:34:15Z</time>
      </trkpt>
      <trkpt lat="43.927217982709408" lon="4.997473983094096">
        <ele>71.269999999999996</ele>
        <time>2025-05-17T09:34:16Z</time>
      </trkpt>
      <trkpt lat="43.927224017679691" lon="4.997492004185915">
        <ele>71.269999999999996</ele>
        <time>2025-05-17T09:34:17Z</time>
      </trkpt>
      <trkpt lat="43.927333988249302" lon="4.997647991403937">
        <ele>71.269999999999996</ele>
        <time>2025-05-17T09:34:18Z</time>
      </trkpt>
      <trkpt lat="43.927358966320753" lon="4.99776097945869">
        <ele>71.269999999999996</ele>
        <time>2025-05-17T09:34:19Z</time>
      </trkpt>
      <trkpt lat="43.92737396992743" lon="4.997834991663694">
        <ele>71.269999999999996</ele>
        <time>2025-05-17T09:34:20Z</time>
      </trkpt>
      <trkpt lat="43.927401965484023" lon="4.998016962781549">
        <ele>71.269999999999996</ele>
        <time>2025-05-17T09:34:21Z</time>
      </trkpt>
      <trkpt lat="43.927423004060984" lon="4.998159036040306">
        <ele>71.269999999999996</ele>
        <time>2025-05-17T09:34:22Z</time>
      </trkpt>
      <trkpt lat="43.927438007667661" lon="4.998303959146142">
        <ele>71.269999999999996</ele>
        <time>2025-05-17T09:34:23Z</time>
      </trkpt>
      <trkpt lat="43.9274359960109" lon="4.998443014919758">
        <ele>70.790000000000006</ele>
        <time>2025-05-17T09:34:24Z</time>
      </trkpt>
      <trkpt lat="43.927433984354138" lon="4.9985789693892">
        <ele>70.310000000000002</ele>
        <time>2025-05-17T09:34:25Z</time>
      </trkpt>
      <trkpt lat="43.927405988797545" lon="5.000013029202819">
        <ele>67.430000000000007</ele>
        <time>2025-05-17T09:34:36Z</time>
      </trkpt>
      <trkpt lat="43.92737396992743" lon="5.000878963619471">
        <ele>66.469999999999999</ele>
        <time>2025-05-17T09:34:44Z</time>
      </trkpt>
      <trkpt lat="43.92737396992743" lon="5.000954987481237">
        <ele>65.989999999999995</ele>
        <time>2025-05-17T09:34:45Z</time>
      </trkpt>
      <trkpt lat="43.927383022382855" lon="5.001990990713239">
        <ele>65.030000000000001</ele>
        <time>2025-05-17T09:34:54Z</time>
      </trkpt>
      <trkpt lat="43.92732803709805" lon="5.00250899232924">
        <ele>64.549999999999997</ele>
        <time>2025-05-17T09:34:58Z</time>
      </trkpt>
      <trkpt lat="43.927310016006231" lon="5.002642013132572">
        <ele>64.549999999999997</ele>
        <time>2025-05-17T09:34:59Z</time>
      </trkpt>
      <trkpt lat="43.927277997136116" lon="5.002753995358944">
        <ele>64.549999999999997</ele>
        <time>2025-05-17T09:35:00Z</time>
      </trkpt>
      <trkpt lat="43.927247989922762" lon="5.002858014777303">
        <ele>64.549999999999997</ele>
        <time>2025-05-17T09:35:01Z</time>
      </trkpt>
      <trkpt lat="43.927116980776191" lon="5.002963962033391">
        <ele>64.549999999999997</ele>
        <time>2025-05-17T09:35:02Z</time>
      </trkpt>
      <trkpt lat="43.927103988826275" lon="5.002996986731887">
        <ele>64.549999999999997</ele>
        <time>2025-05-17T09:35:03Z</time>
      </trkpt>
      <trkpt lat="43.927073981612921" lon="5.003070998936892">
        <ele>64.549999999999997</ele>
        <time>2025-05-17T09:35:04Z</time>
      </trkpt>
      <trkpt lat="43.927100971341133" lon="5.003256993368268">
        <ele>65.030000000000001</ele>
        <time>2025-05-17T09:35:05Z</time>
      </trkpt>
      <trkpt lat="43.927055960521102" lon="5.003364030271769">
        <ele>65.510000000000005</ele>
        <time>2025-05-17T09:35:06Z</time>
      </trkpt>
      <trkpt lat="43.927008016034961" lon="5.00347601249814">
        <ele>65.510000000000005</ele>
        <time>2025-05-17T09:35:07Z</time>
      </trkpt>
      <trkpt lat="43.926960993558168" lon="5.00358497723937">
        <ele>65.989999999999995</ele>
        <time>2025-05-17T09:35:08Z</time>
      </trkpt>
      <trkpt lat="43.926769969984889" lon="5.004029972478747">
        <ele>68.390000000000001</ele>
        <time>2025-05-17T09:35:13Z</time>
      </trkpt>
      <trkpt lat="43.926613982766867" lon="5.004371032118797">
        <ele>69.349999999999994</ele>
        <time>2025-05-17T09:35:17Z</time>
      </trkpt>
      <trkpt lat="43.926562014967203" lon="5.00446499325335">
        <ele>69.829999999999998</ele>
        <time>2025-05-17T09:35:18Z</time>
      </trkpt>
      <trkpt lat="43.926123976707458" lon="5.005206037312746">
        <ele>71.760000000000005</ele>
        <time>2025-05-17T09:35:26Z</time>
      </trkpt>
      <trkpt lat="43.92584603279829" lon="5.005615996196866">
        <ele>70.790000000000006</ele>
        <time>2025-05-17T09:35:30Z</time>
      </trkpt>
      <trkpt lat="43.925767997279763" lon="5.005721021443605">
        <ele>70.790000000000006</ele>
        <time>2025-05-17T09:35:31Z</time>
      </trkpt>
      <trkpt lat="43.925302969291806" lon="5.006322003901005">
        <ele>69.829999999999998</ele>
        <time>2025-05-17T09:35:37Z</time>
      </trkpt>
      <trkpt lat="43.925226023420691" lon="5.006427029147744">
        <ele>70.310000000000002</ele>
        <time>2025-05-17T09:35:38Z</time>
      </trkpt>
      <trkpt lat="43.924448015168309" lon="5.007654977962375">
        <ele>70.310000000000002</ele>
        <time>2025-05-17T09:35:50Z</time>
      </trkpt>
      <trkpt lat="43.924220027402043" lon="5.008070971816778">
        <ele>70.310000000000002</ele>
        <time>2025-05-17T09:35:55Z</time>
      </trkpt>
      <trkpt lat="43.924179039895535" lon="5.008140038698912">
        <ele>70.310000000000002</ele>
        <time>2025-05-17T09:35:56Z</time>
      </trkpt>
      <trkpt lat="43.923602029681206" lon="5.009049978107214">
        <ele>68.870000000000005</ele>
        <time>2025-05-17T09:36:05Z</time>
      </trkpt>
      <trkpt lat="43.923490969464183" lon="5.009272014722228">
        <ele>67.909999999999997</ele>
        <time>2025-05-17T09:36:07Z</time>
      </trkpt>
      <trkpt lat="43.922997023910284" lon="5.010826019570231">
        <ele>64.549999999999997</ele>
        <time>2025-05-17T09:36:19Z</time>
      </trkpt>
      <trkpt lat="43.922958970069885" lon="5.0109329726547">
        <ele>64.069999999999993</ele>
        <time>2025-05-17T09:36:20Z</time>
      </trkpt>
      <trkpt lat="43.922453038394451" lon="5.01215698197484">
        <ele>61.659999999999997</ele>
        <time>2025-05-17T09:36:31Z</time>
      </trkpt>
      <trkpt lat="43.922090018168092" lon="5.013407981023192">
        <ele>64.549999999999997</ele>
        <time>2025-05-17T09:36:39Z</time>
      </trkpt>
      <trkpt lat="43.921989016234875" lon="5.015046978369355">
        <ele>68.870000000000005</ele>
        <time>2025-05-17T09:36:48Z</time>
      </trkpt>
      <trkpt lat="43.922057999297976" lon="5.016122963279486">
        <ele>71.760000000000005</ele>
        <time>2025-05-17T09:36:56Z</time>
      </trkpt>
      <trkpt lat="43.92206696793437" lon="5.016221031546593">
        <ele>72.239999999999995</ele>
        <time>2025-05-17T09:36:57Z</time>
      </trkpt>
      <trkpt lat="43.92200100235641" lon="5.01641197130084">
        <ele>72.719999999999999</ele>
        <time>2025-05-17T09:36:59Z</time>
      </trkpt>
      <trkpt lat="43.922095969319344" lon="5.016588997095823">
        <ele>72.719999999999999</ele>
        <time>2025-05-17T09:37:00Z</time>
      </trkpt>
      <trkpt lat="43.922096975147724" lon="5.016600983217359">
        <ele>73.200000000000003</ele>
        <time>2025-05-17T09:37:01Z</time>
      </trkpt>
      <trkpt lat="43.922108961269259" lon="5.01671296544373">
        <ele>73.680000000000007</ele>
        <time>2025-05-17T09:37:02Z</time>
      </trkpt>
      <trkpt lat="43.922122037038207" lon="5.016841040924192">
        <ele>73.680000000000007</ele>
        <time>2025-05-17T09:37:03Z</time>
      </trkpt>
      <trkpt lat="43.922136034816504" lon="5.016981018707156">
        <ele>73.680000000000007</ele>
        <time>2025-05-17T09:37:04Z</time>
      </trkpt>
      <trkpt lat="43.922184985131025" lon="5.018482971936464">
        <ele>74.640000000000001</ele>
        <time>2025-05-17T09:37:14Z</time>
      </trkpt>
      <trkpt lat="43.922052970156074" lon="5.018670978024602">
        <ele>74.640000000000001</ele>
        <time>2025-05-17T09:37:15Z</time>
      </trkpt>
      <trkpt lat="43.922052970156074" lon="5.018670978024602">
        <ele>74.159999999999997</ele>
        <time>2025-05-17T09:37:16Z</time>
      </trkpt>
      <trkpt lat="43.922009970992804" lon="5.018770974129438">
        <ele>74.640000000000001</ele>
        <time>2025-05-17T09:37:17Z</time>
      </trkpt>
      <trkpt lat="43.921998990699649" lon="5.018912963569164">
        <ele>74.159999999999997</ele>
        <time>2025-05-17T09:37:18Z</time>
      </trkpt>
      <trkpt lat="43.922009970992804" lon="5.019013965502381">
        <ele>74.159999999999997</ele>
        <time>2025-05-17T09:37:19Z</time>
      </trkpt>
      <trkpt lat="43.922009970992804" lon="5.019189985468984">
        <ele>74.159999999999997</ele>
        <time>2025-05-17T09:37:20Z</time>
      </trkpt>
      <trkpt lat="43.922007037326694" lon="5.01933197490871">
        <ele>73.680000000000007</ele>
        <time>2025-05-17T09:37:21Z</time>
      </trkpt>
      <trkpt lat="43.921979963779449" lon="5.019485028460622">
        <ele>73.200000000000003</ele>
        <time>2025-05-17T09:37:22Z</time>
      </trkpt>
      <trkpt lat="43.921476965770125" lon="5.021012965589762">
        <ele>71.269999999999996</ele>
        <time>2025-05-17T09:37:31Z</time>
      </trkpt>
      <trkpt lat="43.920989977195859" lon="5.022971983999014">
        <ele>72.239999999999995</ele>
        <time>2025-05-17T09:37:40Z</time>
      </trkpt>
      <trkpt lat="43.920474993065" lon="5.025597028434277">
        <ele>72.239999999999995</ele>
        <time>2025-05-17T09:37:51Z</time>
      </trkpt>
      <trkpt lat="43.920133011415601" lon="5.02691600471735">
        <ele>73.680000000000007</ele>
        <time>2025-05-17T09:37:59Z</time>
      </trkpt>
      <trkpt lat="43.920081965625286" lon="5.027023963630199">
        <ele>74.159999999999997</ele>
        <time>2025-05-17T09:38:00Z</time>
      </trkpt>
      <trkpt lat="43.920013988390565" lon="5.027167964726687">
        <ele>74.640000000000001</ele>
        <time>2025-05-17T09:38:01Z</time>
      </trkpt>
      <trkpt lat="43.919955985620618" lon="5.027214987203479">
        <ele>75.120000000000005</ele>
        <time>2025-05-17T09:38:02Z</time>
      </trkpt>
      <trkpt lat="43.919884990900755" lon="5.027312971651554">
        <ele>75.120000000000005</ele>
        <time>2025-05-17T09:38:03Z</time>
      </trkpt>
      <trkpt lat="43.919842997565866" lon="5.027425037696958">
        <ele>75.599999999999994</ele>
        <time>2025-05-17T09:38:04Z</time>
      </trkpt>
      <trkpt lat="43.919855989515781" lon="5.027572978287935">
        <ele>75.599999999999994</ele>
        <time>2025-05-17T09:38:05Z</time>
      </trkpt>
      <trkpt lat="43.919869987294078" lon="5.027717985212803">
        <ele>75.599999999999994</ele>
        <time>2025-05-17T09:38:06Z</time>
      </trkpt>
      <trkpt lat="43.919888008385897" lon="5.027871960774064">
        <ele>75.120000000000005</ele>
        <time>2025-05-17T09:38:07Z</time>
      </trkpt>
      <trkpt lat="43.919907035306096" lon="5.028047980740666">
        <ele>74.640000000000001</ele>
        <time>2025-05-17T09:38:08Z</time>
      </trkpt>
      <trkpt lat="43.919890020042658" lon="5.028202040120959">
        <ele>74.159999999999997</ele>
        <time>2025-05-17T09:38:09Z</time>
      </trkpt>
      <trkpt lat="43.919854983687401" lon="5.028373030945659">
        <ele>74.159999999999997</ele>
        <time>2025-05-17T09:38:10Z</time>
      </trkpt>
      <trkpt lat="43.919812990352511" lon="5.028546033427119">
        <ele>74.159999999999997</ele>
        <time>2025-05-17T09:38:11Z</time>
      </trkpt>
      <trkpt lat="43.919764962047338" lon="5.028704032301903">
        <ele>73.680000000000007</ele>
        <time>2025-05-17T09:38:12Z</time>
      </trkpt>
      <trkpt lat="43.919634958729148" lon="5.029176017269492">
        <ele>72.719999999999999</ele>
        <time>2025-05-17T09:38:16Z</time>
      </trkpt>
      <trkpt lat="43.919601012021303" lon="5.029269978404045">
        <ele>73.200000000000003</ele>
        <time>2025-05-17T09:38:17Z</time>
      </trkpt>
      <trkpt lat="43.919571004807949" lon="5.029376009479165">
        <ele>73.200000000000003</ele>
        <time>2025-05-17T09:38:18Z</time>
      </trkpt>
      <trkpt lat="43.919227011501789" lon="5.030680987983942">
        <ele>72.719999999999999</ele>
        <time>2025-05-17T09:38:30Z</time>
      </trkpt>
      <trkpt lat="43.91893096268177" lon="5.03215704113245">
        <ele>73.200000000000003</ele>
        <time>2025-05-17T09:38:42Z</time>
      </trkpt>
      <trkpt lat="43.918916964903474" lon="5.032291989773512">
        <ele>73.680000000000007</ele>
        <time>2025-05-17T09:38:43Z</time>
      </trkpt>
      <trkpt lat="43.919030958786607" lon="5.033897962421179">
        <ele>73.680000000000007</ele>
        <time>2025-05-17T09:38:54Z</time>
      </trkpt>
      <trkpt lat="43.919206978753209" lon="5.034870011731982">
        <ele>71.760000000000005</ele>
        <time>2025-05-17T09:39:03Z</time>
      </trkpt>
      <trkpt lat="43.919244026765227" lon="5.035107973963022">
        <ele>71.760000000000005</ele>
        <time>2025-05-17T09:39:05Z</time>
      </trkpt>
      <trkpt lat="43.91940101981163" lon="5.036128973588347">
        <ele>72.239999999999995</ele>
        <time>2025-05-17T09:39:13Z</time>
      </trkpt>
      <trkpt lat="43.919413005933166" lon="5.036243973299861">
        <ele>73.200000000000003</ele>
        <time>2025-05-17T09:39:14Z</time>
      </trkpt>
      <trkpt lat="43.919457010924816" lon="5.037361029535532">
        <ele>75.599999999999994</ele>
        <time>2025-05-17T09:39:23Z</time>
      </trkpt>
      <trkpt lat="43.919477965682745" lon="5.039169006049633">
        <ele>72.719999999999999</ele>
        <time>2025-05-17T09:39:34Z</time>
      </trkpt>
      <trkpt lat="43.919499004259706" lon="5.040820995345712">
        <ele>70.790000000000006</ele>
        <time>2025-05-17T09:39:44Z</time>
      </trkpt>
      <trkpt lat="43.919478971511126" lon="5.040983017534018">
        <ele>70.310000000000002</ele>
        <time>2025-05-17T09:39:45Z</time>
      </trkpt>
      <trkpt lat="43.919452987611294" lon="5.041135987266898">
        <ele>70.310000000000002</ele>
        <time>2025-05-17T09:39:46Z</time>
      </trkpt>
      <trkpt lat="43.919326001778245" lon="5.041796984151006">
        <ele>70.790000000000006</ele>
        <time>2025-05-17T09:39:52Z</time>
      </trkpt>
      <trkpt lat="43.919260036200285" lon="5.042168973013759">
        <ele>71.760000000000005</ele>
        <time>2025-05-17T09:39:55Z</time>
      </trkpt>
      <trkpt lat="43.919236985966563" lon="5.042298976331949">
        <ele>72.239999999999995</ele>
        <time>2025-05-17T09:39:56Z</time>
      </trkpt>
      <trkpt lat="43.919212007895112" lon="5.042438032105565">
        <ele>72.239999999999995</ele>
        <time>2025-05-17T09:39:57Z</time>
      </trkpt>
      <trkpt lat="43.919187029823661" lon="5.042575998231769">
        <ele>72.719999999999999</ele>
        <time>2025-05-17T09:39:58Z</time>
      </trkpt>
      <trkpt lat="43.919161967933178" lon="5.042717987671495">
        <ele>73.200000000000003</ele>
        <time>2025-05-17T09:39:59Z</time>
      </trkpt>
      <trkpt lat="43.919068006798625" lon="5.043235989287496">
        <ele>73.680000000000007</ele>
        <time>2025-05-17T09:40:03Z</time>
      </trkpt>
      <trkpt lat="43.919045040383935" lon="5.043354006484151">
        <ele>74.159999999999997</ele>
        <time>2025-05-17T09:40:04Z</time>
      </trkpt>
      <trkpt lat="43.919022995978594" lon="5.043469006195664">
        <ele>74.640000000000001</ele>
        <time>2025-05-17T09:40:05Z</time>
      </trkpt>
      <trkpt lat="43.919001035392284" lon="5.043580988422036">
        <ele>74.640000000000001</ele>
        <time>2025-05-17T09:40:06Z</time>
      </trkpt>
      <trkpt lat="43.918979996815324" lon="5.043690958991647">
        <ele>75.120000000000005</ele>
        <time>2025-05-17T09:40:07Z</time>
      </trkpt>
      <trkpt lat="43.918958958238363" lon="5.043810987845063">
        <ele>76.079999999999998</ele>
        <time>2025-05-17T09:40:08Z</time>
      </trkpt>
      <trkpt lat="43.918936997652054" lon="5.043933028355241">
        <ele>76.079999999999998</ele>
        <time>2025-05-17T09:40:09Z</time>
      </trkpt>
      <trkpt lat="43.918797019869089" lon="5.044697960838676">
        <ele>78.480000000000004</ele>
        <time>2025-05-17T09:40:16Z</time>
      </trkpt>
      <trkpt lat="43.918780004605651" lon="5.04481203854084">
        <ele>78.480000000000004</ele>
        <time>2025-05-17T09:40:17Z</time>
      </trkpt>
      <trkpt lat="43.918533995747566" lon="5.046152975410223">
        <ele>79.930000000000007</ele>
        <time>2025-05-17T09:40:28Z</time>
      </trkpt>
      <trkpt lat="43.918436011299491" lon="5.046665025874972">
        <ele>79.450000000000003</ele>
        <time>2025-05-17T09:40:32Z</time>
      </trkpt>
      <trkpt lat="43.918331991881132" lon="5.047251004725695">
        <ele>79.930000000000007</ele>
        <time>2025-05-17T09:40:37Z</time>
      </trkpt>
      <trkpt lat="43.918318999931216" lon="5.047341026365757">
        <ele>79.930000000000007</ele>
        <time>2025-05-17T09:40:38Z</time>
      </trkpt>
      <trkpt lat="43.918303996324539" lon="5.047423001378775">
        <ele>79.930000000000007</ele>
        <time>2025-05-17T09:40:39Z</time>
      </trkpt>
      <trkpt lat="43.918287986889482" lon="5.047510005533695">
        <ele>79.930000000000007</ele>
        <time>2025-05-17T09:40:40Z</time>
      </trkpt>
      <trkpt lat="43.918276000767946" lon="5.047573959454894">
        <ele>79.930000000000007</ele>
        <time>2025-05-17T09:40:41Z</time>
      </trkpt>
      <trkpt lat="43.918191008269787" lon="5.047685019671917">
        <ele>79.930000000000007</ele>
        <time>2025-05-17T09:40:42Z</time>
      </trkpt>
      <trkpt lat="43.918191008269787" lon="5.047783004119992">
        <ele>79.930000000000007</ele>
        <time>2025-05-17T09:40:43Z</time>
      </trkpt>
      <trkpt lat="43.918191008269787" lon="5.047892974689603">
        <ele>79.450000000000003</ele>
        <time>2025-05-17T09:40:44Z</time>
      </trkpt>
      <trkpt lat="43.918173993006349" lon="5.047992970794439">
        <ele>78.969999999999999</ele>
        <time>2025-05-17T09:40:45Z</time>
      </trkpt>
      <trkpt lat="43.918223027139902" lon="5.048134038224816">
        <ele>78.969999999999999</ele>
        <time>2025-05-17T09:40:46Z</time>
      </trkpt>
      <trkpt lat="43.918211041018367" lon="5.04825197160244">
        <ele>78.480000000000004</ele>
        <time>2025-05-17T09:40:47Z</time>
      </trkpt>
      <trkpt lat="43.91819997690618" lon="5.04835800267756">
        <ele>78.480000000000004</ele>
        <time>2025-05-17T09:40:48Z</time>
      </trkpt>
      <trkpt lat="43.918119007721543" lon="5.048795035108924">
        <ele>78</ele>
        <time>2025-05-17T09:40:54Z</time>
      </trkpt>
      <trkpt lat="43.918111966922879" lon="5.048833005130291">
        <ele>78</ele>
        <time>2025-05-17T09:40:55Z</time>
      </trkpt>
      <trkpt lat="43.918105009943247" lon="5.048862006515265">
        <ele>78</ele>
        <time>2025-05-17T09:40:56Z</time>
      </trkpt>
      <trkpt lat="43.918100986629725" lon="5.048883967101574">
        <ele>78</ele>
        <time>2025-05-17T09:40:57Z</time>
      </trkpt>
      <trkpt lat="43.918096041306853" lon="5.048908023163676">
        <ele>78</ele>
        <time>2025-05-17T09:40:58Z</time>
      </trkpt>
      <trkpt lat="43.91809000633657" lon="5.04893702454865">
        <ele>77.519999999999996</ele>
        <time>2025-05-17T09:40:59Z</time>
      </trkpt>
      <trkpt lat="43.918067961931229" lon="5.04902302287519">
        <ele>77.040000000000006</ele>
        <time>2025-05-17T09:41:02Z</time>
      </trkpt>
      <trkpt lat="43.918062010779977" lon="5.049043977633119">
        <ele>77.040000000000006</ele>
        <time>2025-05-17T09:41:03Z</time>
      </trkpt>
      <trkpt lat="43.918062010779977" lon="5.049043977633119">
        <ele>76.560000000000002</ele>
        <time>2025-05-17T09:41:18Z</time>
      </trkpt>
      <trkpt lat="43.917976012453437" lon="5.049118995666504">
        <ele>76.560000000000002</ele>
        <time>2025-05-17T09:41:22Z</time>
      </trkpt>
      <trkpt lat="43.917960003018379" lon="5.049135005101562">
        <ele>76.560000000000002</ele>
        <time>2025-05-17T09:41:23Z</time>
      </trkpt>
      <trkpt lat="43.917976012453437" lon="5.049118995666504">
        <ele>77.040000000000006</ele>
        <time>2025-05-17T09:41:24Z</time>
      </trkpt>
      <trkpt lat="43.917948016896844" lon="5.049207005649805">
        <ele>77.040000000000006</ele>
        <time>2025-05-17T09:41:25Z</time>
      </trkpt>
      <trkpt lat="43.917955979704857" lon="5.049229972064495">
        <ele>77.040000000000006</ele>
        <time>2025-05-17T09:41:26Z</time>
      </trkpt>
      <trkpt lat="43.917889008298516" lon="5.049832966178656">
        <ele>78.969999999999999</ele>
        <time>2025-05-17T09:41:36Z</time>
      </trkpt>
      <trkpt lat="43.917870987206697" lon="5.049918964505196">
        <ele>79.450000000000003</ele>
        <time>2025-05-17T09:41:37Z</time>
      </trkpt>
      <trkpt lat="43.91785598360002" lon="5.049993982538581">
        <ele>79.450000000000003</ele>
        <time>2025-05-17T09:41:38Z</time>
      </trkpt>
      <trkpt lat="43.917841985821724" lon="5.050061037763953">
        <ele>79.450000000000003</ele>
        <time>2025-05-17T09:41:39Z</time>
      </trkpt>
      <trkpt lat="43.917753975838423" lon="5.050493963062763">
        <ele>80.409999999999997</ele>
        <time>2025-05-17T09:41:45Z</time>
      </trkpt>
      <trkpt lat="43.917744001373649" lon="5.050545008853078">
        <ele>80.409999999999997</ele>
        <time>2025-05-17T09:41:46Z</time>
      </trkpt>
      <trkpt lat="43.917705025523901" lon="5.050737960264087">
        <ele>80.890000000000001</ele>
        <time>2025-05-17T09:41:50Z</time>
      </trkpt>
      <trkpt lat="43.917690021917224" lon="5.050811972469091">
        <ele>81.370000000000005</ele>
        <time>2025-05-17T09:41:51Z</time>
      </trkpt>
      <trkpt lat="43.917650040239096" lon="5.051005007699132">
        <ele>80.890000000000001</ele>
        <time>2025-05-17T09:41:54Z</time>
      </trkpt>
      <trkpt lat="43.917638976126909" lon="5.05106502212584">
        <ele>80.890000000000001</ele>
        <time>2025-05-17T09:41:55Z</time>
      </trkpt>
      <trkpt lat="43.917626990005374" lon="5.051126964390278">
        <ele>81.370000000000005</ele>
        <time>2025-05-17T09:41:56Z</time>
      </trkpt>
      <trkpt lat="43.917615003883839" lon="5.051192007958889">
        <ele>81.370000000000005</ele>
        <time>2025-05-17T09:41:57Z</time>
      </trkpt>
      <trkpt lat="43.917602011933923" lon="5.051257973536849">
        <ele>81.370000000000005</ele>
        <time>2025-05-17T09:41:58Z</time>
      </trkpt>
      <trkpt lat="43.917588014155626" lon="5.051329974085093">
        <ele>81.370000000000005</ele>
        <time>2025-05-17T09:41:59Z</time>
      </trkpt>
      <trkpt lat="43.917555995285511" lon="5.051499037072063">
        <ele>81.370000000000005</ele>
        <time>2025-05-17T09:42:01Z</time>
      </trkpt>
      <trkpt lat="43.917478965595365" lon="5.05190103314817">
        <ele>81.849999999999994</ele>
        <time>2025-05-17T09:42:06Z</time>
      </trkpt>
      <trkpt lat="43.917491035535932" lon="5.052075041458011">
        <ele>81.370000000000005</ele>
        <time>2025-05-17T09:42:08Z</time>
      </trkpt>
      <trkpt lat="43.917546020820737" lon="5.052220970392227">
        <ele>80.890000000000001</ele>
        <time>2025-05-17T09:42:10Z</time>
      </trkpt>
      <trkpt lat="43.917569993063807" lon="5.052285008132458">
        <ele>80.890000000000001</ele>
        <time>2025-05-17T09:42:11Z</time>
      </trkpt>
      <trkpt lat="43.917707037180662" lon="5.052477037534118">
        <ele>78</ele>
        <time>2025-05-17T09:42:19Z</time>
      </trkpt>
      <trkpt lat="43.917836034670472" lon="5.052631013095379">
        <ele>73.680000000000007</ele>
        <time>2025-05-17T09:42:31Z</time>
      </trkpt>
      <trkpt lat="43.917894959449768" lon="5.052699996158481">
        <ele>72.239999999999995</ele>
        <time>2025-05-17T09:42:40Z</time>
      </trkpt>
      <trkpt lat="43.917985986918211" lon="5.052851038053632">
        <ele>71.269999999999996</ele>
        <time>2025-05-17T09:42:50Z</time>
      </trkpt>
      <trkpt lat="43.918024962767959" lon="5.052929995581508">
        <ele>71.269999999999996</ele>
        <time>2025-05-17T09:42:52Z</time>
      </trkpt>
      <trkpt lat="43.918062010779977" lon="5.053003001958132">
        <ele>71.269999999999996</ele>
        <time>2025-05-17T09:42:53Z</time>
      </trkpt>
      <trkpt lat="43.918076008558273" lon="5.053066033869982">
        <ele>71.269999999999996</ele>
        <time>2025-05-17T09:42:54Z</time>
      </trkpt>
      <trkpt lat="43.918104004114866" lon="5.053185978904367">
        <ele>71.269999999999996</ele>
        <time>2025-05-17T09:43:01Z</time>
      </trkpt>
      <trkpt lat="43.918169969692826" lon="5.053413966670632">
        <ele>71.760000000000005</ele>
        <time>2025-05-17T09:43:14Z</time>
      </trkpt>
      <trkpt lat="43.918372979387641" lon="5.053883017972112">
        <ele>69.829999999999998</ele>
        <time>2025-05-17T09:43:26Z</time>
      </trkpt>
      <trkpt lat="43.918642960488796" lon="5.054444018751383">
        <ele>68.390000000000001</ele>
        <time>2025-05-17T09:43:34Z</time>
      </trkpt>
      <trkpt lat="43.918686965480447" lon="5.054525993764401">
        <ele>67.909999999999997</ele>
        <time>2025-05-17T09:43:35Z</time>
      </trkpt>
      <trkpt lat="43.918728958815336" lon="5.054605035111308">
        <ele>67.909999999999997</ele>
        <time>2025-05-17T09:43:36Z</time>
      </trkpt>
      <trkpt lat="43.918768018484116" lon="5.054677035659552">
        <ele>67.909999999999997</ele>
        <time>2025-05-17T09:43:37Z</time>
      </trkpt>
      <trkpt lat="43.91880196519196" lon="5.05473998375237">
        <ele>67.909999999999997</ele>
        <time>2025-05-17T09:43:38Z</time>
      </trkpt>
      <trkpt lat="43.918831972405314" lon="5.054796980693936">
        <ele>67.430000000000007</ele>
        <time>2025-05-17T09:43:39Z</time>
      </trkpt>
      <trkpt lat="43.918916964903474" lon="5.05495497956872">
        <ele>67.430000000000007</ele>
        <time>2025-05-17T09:43:42Z</time>
      </trkpt>
      <trkpt lat="43.918943032622337" lon="5.055003007873893">
        <ele>67.430000000000007</ele>
        <time>2025-05-17T09:43:43Z</time>
      </trkpt>
      <trkpt lat="43.918965999037027" lon="5.055049024522305">
        <ele>67.430000000000007</ele>
        <time>2025-05-17T09:43:44Z</time>
      </trkpt>
      <trkpt lat="43.918989971280098" lon="5.055100992321968">
        <ele>67.430000000000007</ele>
        <time>2025-05-17T09:43:45Z</time>
      </trkpt>
      <trkpt lat="43.91901696100831" lon="5.055158995091915">
        <ele>67.430000000000007</ele>
        <time>2025-05-17T09:43:46Z</time>
      </trkpt>
      <trkpt lat="43.919044034555554" lon="5.055215992033482">
        <ele>67.430000000000007</ele>
        <time>2025-05-17T09:43:47Z</time>
      </trkpt>
      <trkpt lat="43.919069012627006" lon="5.055271983146668">
        <ele>66.950000000000003</ele>
        <time>2025-05-17T09:43:48Z</time>
      </trkpt>
      <trkpt lat="43.919092984870076" lon="5.055322023108602">
        <ele>66.950000000000003</ele>
        <time>2025-05-17T09:43:49Z</time>
      </trkpt>
      <trkpt lat="43.919111005961895" lon="5.055357981473208">
        <ele>66.950000000000003</ele>
        <time>2025-05-17T09:43:50Z</time>
      </trkpt>
      <trkpt lat="43.91912198625505" lon="5.055381031706929">
        <ele>66.950000000000003</ele>
        <time>2025-05-17T09:43:51Z</time>
      </trkpt>
      <trkpt lat="43.919136989861727" lon="5.055410033091903">
        <ele>66.469999999999999</ele>
        <time>2025-05-17T09:43:53Z</time>
      </trkpt>
      <trkpt lat="43.919146964326501" lon="5.055430987849832">
        <ele>66.950000000000003</ele>
        <time>2025-05-17T09:43:54Z</time>
      </trkpt>
      <trkpt lat="43.919162973761559" lon="5.05564003251493">
        <ele>66.469999999999999</ele>
        <time>2025-05-17T09:44:00Z</time>
      </trkpt>
      <trkpt lat="43.919159034267068" lon="5.055681020021439">
        <ele>66.469999999999999</ele>
        <time>2025-05-17T09:44:01Z</time>
      </trkpt>
      <trkpt lat="43.919156016781926" lon="5.055702980607748">
        <ele>66.950000000000003</ele>
        <time>2025-05-17T09:44:02Z</time>
      </trkpt>
      <trkpt lat="43.919169008731842" lon="5.055714966729283">
        <ele>66.950000000000003</ele>
        <time>2025-05-17T09:44:03Z</time>
      </trkpt>
      <trkpt lat="43.919187029823661" lon="5.05572703666985">
        <ele>66.950000000000003</ele>
        <time>2025-05-17T09:44:04Z</time>
      </trkpt>
      <trkpt lat="43.919211002066731" lon="5.055742962285876">
        <ele>66.950000000000003</ele>
        <time>2025-05-17T09:44:05Z</time>
      </trkpt>
      <trkpt lat="43.919241009280086" lon="5.055762995034456">
        <ele>66.950000000000003</ele>
        <time>2025-05-17T09:44:06Z</time>
      </trkpt>
      <trkpt lat="43.919278979301453" lon="5.055787973105907">
        <ele>66.950000000000003</ele>
        <time>2025-05-17T09:44:07Z</time>
      </trkpt>
      <trkpt lat="43.919285014271736" lon="5.05579199641943">
        <ele>66.469999999999999</ele>
        <time>2025-05-17T09:44:08Z</time>
      </trkpt>
      <trkpt lat="43.919334970414639" lon="5.055894004181027">
        <ele>65.989999999999995</ele>
        <time>2025-05-17T09:44:09Z</time>
      </trkpt>
      <trkpt lat="43.919361038133502" lon="5.05594496615231">
        <ele>65.510000000000005</ele>
        <time>2025-05-17T09:44:10Z</time>
      </trkpt>
      <trkpt lat="43.919391967356205" lon="5.05600699223578">
        <ele>65.510000000000005</ele>
        <time>2025-05-17T09:44:11Z</time>
      </trkpt>
      <trkpt lat="43.919403031468391" lon="5.056074969470501">
        <ele>65.030000000000001</ele>
        <time>2025-05-17T09:44:12Z</time>
      </trkpt>
      <trkpt lat="43.919417029246688" lon="5.05615702830255">
        <ele>65.030000000000001</ele>
        <time>2025-05-17T09:44:13Z</time>
      </trkpt>
      <trkpt lat="43.919431027024984" lon="5.056237997487187">
        <ele>64.549999999999997</ele>
        <time>2025-05-17T09:44:14Z</time>
      </trkpt>
      <trkpt lat="43.919446030631661" lon="5.05633195862174">
        <ele>64.549999999999997</ele>
        <time>2025-05-17T09:44:15Z</time>
      </trkpt>
      <trkpt lat="43.919457010924816" lon="5.056434972211719">
        <ele>65.030000000000001</ele>
        <time>2025-05-17T09:44:16Z</time>
      </trkpt>
      <trkpt lat="43.919457010924816" lon="5.056670000776649">
        <ele>65.510000000000005</ele>
        <time>2025-05-17T09:44:18Z</time>
      </trkpt>
      <trkpt lat="43.919414011761546" lon="5.057390006259084">
        <ele>65.989999999999995</ele>
        <time>2025-05-17T09:44:24Z</time>
      </trkpt>
      <trkpt lat="43.919370006769896" lon="5.05761799402535">
        <ele>65.989999999999995</ele>
        <time>2025-05-17T09:44:27Z</time>
      </trkpt>
      <trkpt lat="43.919342011213303" lon="5.057758977636695">
        <ele>66.469999999999999</ele>
        <time>2025-05-17T09:44:29Z</time>
      </trkpt>
      <trkpt lat="43.919306974858046" lon="5.057914964854717">
        <ele>66.950000000000003</ele>
        <time>2025-05-17T09:44:31Z</time>
      </trkpt>
      <trkpt lat="43.918983014300466" lon="5.058890031650662">
        <ele>67.909999999999997</ele>
        <time>2025-05-17T09:44:40Z</time>
      </trkpt>
      <trkpt lat="43.918528966605663" lon="5.059952018782497">
        <ele>65.510000000000005</ele>
        <time>2025-05-17T09:44:50Z</time>
      </trkpt>
      <trkpt lat="43.918508011847734" lon="5.060001974925399">
        <ele>65.030000000000001</ele>
        <time>2025-05-17T09:44:51Z</time>
      </trkpt>
      <trkpt lat="43.918128982186317" lon="5.060744024813175">
        <ele>61.18</ele>
        <time>2025-05-17T09:45:01Z</time>
      </trkpt>
      <trkpt lat="43.917722962796688" lon="5.061575006693602">
        <ele>63.579999999999998</ele>
        <time>2025-05-17T09:45:10Z</time>
      </trkpt>
      <trkpt lat="43.917692033573985" lon="5.061638038605452">
        <ele>63.579999999999998</ele>
        <time>2025-05-17T09:45:11Z</time>
      </trkpt>
      <trkpt lat="43.917664038017392" lon="5.061694029718638">
        <ele>64.069999999999993</ele>
        <time>2025-05-17T09:45:12Z</time>
      </trkpt>
      <trkpt lat="43.917635958641768" lon="5.061752032488585">
        <ele>64.069999999999993</ele>
        <time>2025-05-17T09:45:13Z</time>
      </trkpt>
      <trkpt lat="43.917603017762303" lon="5.061815986409783">
        <ele>64.069999999999993</ele>
        <time>2025-05-17T09:45:14Z</time>
      </trkpt>
      <trkpt lat="43.917563036084175" lon="5.061889998614788">
        <ele>64.549999999999997</ele>
        <time>2025-05-17T09:45:15Z</time>
      </trkpt>
      <trkpt lat="43.917521964758635" lon="5.061966022476554">
        <ele>64.549999999999997</ele>
        <time>2025-05-17T09:45:16Z</time>
      </trkpt>
      <trkpt lat="43.917480977252126" lon="5.062041962519288">
        <ele>65.030000000000001</ele>
        <time>2025-05-17T09:45:17Z</time>
      </trkpt>
      <trkpt lat="43.917434038594365" lon="5.062128966674209">
        <ele>65.030000000000001</ele>
        <time>2025-05-17T09:45:18Z</time>
      </trkpt>
      <trkpt lat="43.917276039719582" lon="5.06243197247386">
        <ele>65.510000000000005</ele>
        <time>2025-05-17T09:45:21Z</time>
      </trkpt>
      <trkpt lat="43.91680296510458" lon="5.063650030642748">
        <ele>65.510000000000005</ele>
        <time>2025-05-17T09:45:30Z</time>
      </trkpt>
      <trkpt lat="43.916403986513615" lon="5.06539598107338">
        <ele>66.469999999999999</ele>
        <time>2025-05-17T09:45:42Z</time>
      </trkpt>
      <trkpt lat="43.916321005672216" lon="5.065677026286721">
        <ele>65.989999999999995</ele>
        <time>2025-05-17T09:45:46Z</time>
      </trkpt>
      <trkpt lat="43.916062004864216" lon="5.066263005137444">
        <ele>65.030000000000001</ele>
        <time>2025-05-17T09:45:53Z</time>
      </trkpt>
      <trkpt lat="43.916038032621145" lon="5.066315978765488">
        <ele>65.030000000000001</ele>
        <time>2025-05-17T09:45:54Z</time>
      </trkpt>
      <trkpt lat="43.915737960487604" lon="5.066977981477976">
        <ele>65.030000000000001</ele>
        <time>2025-05-17T09:46:01Z</time>
      </trkpt>
      <trkpt lat="43.91559898853302" lon="5.067411996424198">
        <ele>64.549999999999997</ele>
        <time>2025-05-17T09:46:04Z</time>
      </trkpt>
      <trkpt lat="43.915229011327028" lon="5.068988967686892">
        <ele>66.469999999999999</ele>
        <time>2025-05-17T09:46:14Z</time>
      </trkpt>
      <trkpt lat="43.915120968595147" lon="5.069278981536627">
        <ele>66.469999999999999</ele>
        <time>2025-05-17T09:46:16Z</time>
      </trkpt>
      <trkpt lat="43.915069000795484" lon="5.06943304091692">
        <ele>66.469999999999999</ele>
        <time>2025-05-17T09:46:17Z</time>
      </trkpt>
      <trkpt lat="43.914410015568137" lon="5.070833992213011">
        <ele>65.510000000000005</ele>
        <time>2025-05-17T09:46:27Z</time>
      </trkpt>
      <trkpt lat="43.91366302035749" lon="5.07235798984766">
        <ele>65.030000000000001</ele>
        <time>2025-05-17T09:46:38Z</time>
      </trkpt>
      <trkpt lat="43.912847964093089" lon="5.074246013537049">
        <ele>68.870000000000005</ele>
        <time>2025-05-17T09:46:51Z</time>
      </trkpt>
      <trkpt lat="43.912056041881442" lon="5.075661968439817">
        <ele>69.349999999999994</ele>
        <time>2025-05-17T09:46:59Z</time>
      </trkpt>
      <trkpt lat="43.911073012277484" lon="5.077127041295171">
        <ele>68.390000000000001</ele>
        <time>2025-05-17T09:47:08Z</time>
      </trkpt>
      <trkpt lat="43.909724028781056" lon="5.078729996457696">
        <ele>68.390000000000001</ele>
        <time>2025-05-17T09:47:19Z</time>
      </trkpt>
      <trkpt lat="43.908229032531381" lon="5.080248964950442">
        <ele>69.829999999999998</ele>
        <time>2025-05-17T09:47:30Z</time>
      </trkpt>
      <trkpt lat="43.90737097710371" lon="5.081085981801152">
        <ele>70.790000000000006</ele>
        <time>2025-05-17T09:47:38Z</time>
      </trkpt>
      <trkpt lat="43.907212978228927" lon="5.081184972077608">
        <ele>71.269999999999996</ele>
        <time>2025-05-17T09:47:40Z</time>
      </trkpt>
      <trkpt lat="43.907233010977507" lon="5.081279017031193">
        <ele>71.269999999999996</ele>
        <time>2025-05-17T09:47:41Z</time>
      </trkpt>
      <trkpt lat="43.907239967957139" lon="5.081369960680604">
        <ele>71.760000000000005</ele>
        <time>2025-05-17T09:47:42Z</time>
      </trkpt>
      <trkpt lat="43.907247008755803" lon="5.081455959007144">
        <ele>72.239999999999995</ele>
        <time>2025-05-17T09:47:43Z</time>
      </trkpt>
      <trkpt lat="43.907223958522081" lon="5.081605995073915">
        <ele>72.719999999999999</ele>
        <time>2025-05-17T09:47:44Z</time>
      </trkpt>
      <trkpt lat="43.907207027077675" lon="5.081715965643525">
        <ele>73.200000000000003</ele>
        <time>2025-05-17T09:47:45Z</time>
      </trkpt>
      <trkpt lat="43.907166961580515" lon="5.081823002547026">
        <ele>73.200000000000003</ele>
        <time>2025-05-17T09:47:46Z</time>
      </trkpt>
      <trkpt lat="43.906653989106417" lon="5.083046006038785">
        <ele>74.640000000000001</ele>
        <time>2025-05-17T09:47:54Z</time>
      </trkpt>
      <trkpt lat="43.905910011380911" lon="5.084677040576935">
        <ele>75.120000000000005</ele>
        <time>2025-05-17T09:48:04Z</time>
      </trkpt>
      <trkpt lat="43.90513401478529" lon="5.086240014061332">
        <ele>75.120000000000005</ele>
        <time>2025-05-17T09:48:14Z</time>
      </trkpt>
      <trkpt lat="43.904520040377975" lon="5.087571982294321">
        <ele>71.760000000000005</ele>
        <time>2025-05-17T09:48:21Z</time>
      </trkpt>
      <trkpt lat="43.904267996549606" lon="5.088185034692287">
        <ele>71.269999999999996</ele>
        <time>2025-05-17T09:48:24Z</time>
      </trkpt>
      <trkpt lat="43.903699032962322" lon="5.089615993201733">
        <ele>69.829999999999998</ele>
        <time>2025-05-17T09:48:31Z</time>
      </trkpt>
      <trkpt lat="43.903628960251808" lon="5.089801987633109">
        <ele>70.310000000000002</ele>
        <time>2025-05-17T09:48:32Z</time>
      </trkpt>
      <trkpt lat="43.903526030480862" lon="5.090218987315893">
        <ele>70.790000000000006</ele>
        <time>2025-05-17T09:48:34Z</time>
      </trkpt>
      <trkpt lat="43.903487976640463" lon="5.090457033365965">
        <ele>71.269999999999996</ele>
        <time>2025-05-17T09:48:35Z</time>
      </trkpt>
      <trkpt lat="43.903250014409423" lon="5.092878984287381">
        <ele>76.079999999999998</ele>
        <time>2025-05-17T09:48:45Z</time>
      </trkpt>
      <trkpt lat="43.902938039973378" lon="5.094860969111323">
        <ele>78</ele>
        <time>2025-05-17T09:48:53Z</time>
      </trkpt>
      <trkpt lat="43.902541995048523" lon="5.097889015451074">
        <ele>75.599999999999994</ele>
        <time>2025-05-17T09:49:05Z</time>
      </trkpt>
      <trkpt lat="43.902368992567062" lon="5.098683033138514">
        <ele>75.120000000000005</ele>
        <time>2025-05-17T09:49:09Z</time>
      </trkpt>
      <trkpt lat="43.90229900367558" lon="5.098881013691425">
        <ele>75.120000000000005</ele>
        <time>2025-05-17T09:49:10Z</time>
      </trkpt>
      <trkpt lat="43.902202025055885" lon="5.099066002294421">
        <ele>75.599999999999994</ele>
        <time>2025-05-17T09:49:11Z</time>
      </trkpt>
      <trkpt lat="43.901092009618878" lon="5.101198023185134">
        <ele>76.560000000000002</ele>
        <time>2025-05-17T09:49:22Z</time>
      </trkpt>
      <trkpt lat="43.899946035817266" lon="5.103283021599054">
        <ele>77.040000000000006</ele>
        <time>2025-05-17T09:49:33Z</time>
      </trkpt>
      <trkpt lat="43.899449994787574" lon="5.1041320245713">
        <ele>78.969999999999999</ele>
        <time>2025-05-17T09:49:38Z</time>
      </trkpt>
      <trkpt lat="43.899329965934157" lon="5.1042839884758">
        <ele>79.930000000000007</ele>
        <time>2025-05-17T09:49:39Z</time>
      </trkpt>
      <trkpt lat="43.899194011464715" lon="5.104404017329216">
        <ele>80.409999999999997</ele>
        <time>2025-05-17T09:49:40Z</time>
      </trkpt>
      <trkpt lat="43.898964012041688" lon="5.104609038680792">
        <ele>80.890000000000001</ele>
        <time>2025-05-17T09:49:42Z</time>
      </trkpt>
      <trkpt lat="43.898868039250374" lon="5.10475798510015">
        <ele>81.370000000000005</ele>
        <time>2025-05-17T09:49:43Z</time>
      </trkpt>
      <trkpt lat="43.898790003731847" lon="5.104880025610328">
        <ele>81.849999999999994</ele>
        <time>2025-05-17T09:49:44Z</time>
      </trkpt>
      <trkpt lat="43.89875203371048" lon="5.105031989514828">
        <ele>82.329999999999998</ele>
        <time>2025-05-17T09:49:45Z</time>
      </trkpt>
      <trkpt lat="43.898724960163236" lon="5.105198035016656">
        <ele>82.810000000000002</ele>
        <time>2025-05-17T09:49:46Z</time>
      </trkpt>
      <trkpt lat="43.898697970435023" lon="5.105366008356214">
        <ele>83.290000000000006</ele>
        <time>2025-05-17T09:49:47Z</time>
      </trkpt>
      <trkpt lat="43.898571990430355" lon="5.106152985244989">
        <ele>86.180000000000007</ele>
        <time>2025-05-17T09:49:53Z</time>
      </trkpt>
      <trkpt lat="43.898545000702143" lon="5.106323976069689">
        <ele>86.659999999999997</ele>
        <time>2025-05-17T09:49:55Z</time>
      </trkpt>
      <trkpt lat="43.898534020408988" lon="5.106390025466681">
        <ele>87.140000000000001</ele>
        <time>2025-05-17T09:49:56Z</time>
      </trkpt>
      <trkpt lat="43.898506024852395" lon="5.106520028784871">
        <ele>87.620000000000005</ele>
        <time>2025-05-17T09:49:57Z</time>
      </trkpt>
      <trkpt lat="43.898436035960913" lon="5.106536038219929">
        <ele>88.099999999999994</ele>
        <time>2025-05-17T09:49:58Z</time>
      </trkpt>
      <trkpt lat="43.898348025977612" lon="5.106554981321096">
        <ele>88.579999999999998</ele>
        <time>2025-05-17T09:49:59Z</time>
      </trkpt>
      <trkpt lat="43.898253981024027" lon="5.106576019898057">
        <ele>88.579999999999998</ele>
        <time>2025-05-17T09:50:00Z</time>
      </trkpt>
      <trkpt lat="43.898158008232713" lon="5.106596974655986">
        <ele>88.579999999999998</ele>
        <time>2025-05-17T09:50:01Z</time>
      </trkpt>
      <trkpt lat="43.898078966885805" lon="5.106654977425933">
        <ele>88.579999999999998</ele>
        <time>2025-05-17T09:50:02Z</time>
      </trkpt>
      <trkpt lat="43.898004032671452" lon="5.106736030429602">
        <ele>89.060000000000002</ele>
        <time>2025-05-17T09:50:03Z</time>
      </trkpt>
      <trkpt lat="43.897928008809686" lon="5.106816999614239">
        <ele>89.060000000000002</ele>
        <time>2025-05-17T09:50:04Z</time>
      </trkpt>
      <trkpt lat="43.897855002433062" lon="5.106893023476005">
        <ele>89.540000000000006</ele>
        <time>2025-05-17T09:50:05Z</time>
      </trkpt>
      <trkpt lat="43.897784007713199" lon="5.106969969347119">
        <ele>89.540000000000006</ele>
        <time>2025-05-17T09:50:06Z</time>
      </trkpt>
      <trkpt lat="43.897742014378309" lon="5.107100978493691">
        <ele>90.019999999999996</ele>
        <time>2025-05-17T09:50:07Z</time>
      </trkpt>
      <trkpt lat="43.897697003558278" lon="5.107241962105036">
        <ele>90.5</ele>
        <time>2025-05-17T09:50:08Z</time>
      </trkpt>
      <trkpt lat="43.897278998047113" lon="5.108798984438181">
        <ele>94.829999999999998</ele>
        <time>2025-05-17T09:50:17Z</time>
      </trkpt>
      <trkpt lat="43.896914971992373" lon="5.110103040933609">
        <ele>100.11</ele>
        <time>2025-05-17T09:50:26Z</time>
      </trkpt>
      <trkpt lat="43.896389007568359" lon="5.111237028613687">
        <ele>103.48</ele>
        <time>2025-05-17T09:50:35Z</time>
      </trkpt>
      <trkpt lat="43.896328993141651" lon="5.111379018053412">
        <ele>103.95999999999999</ele>
        <time>2025-05-17T09:50:36Z</time>
      </trkpt>
      <trkpt lat="43.896308038383722" lon="5.111535005271435">
        <ele>104.92</ele>
        <time>2025-05-17T09:50:37Z</time>
      </trkpt>
      <trkpt lat="43.896288005635142" lon="5.111698033288121">
        <ele>105.40000000000001</ele>
        <time>2025-05-17T09:50:38Z</time>
      </trkpt>
      <trkpt lat="43.896268978714943" lon="5.111857960000634">
        <ele>106.36</ele>
        <time>2025-05-17T09:50:39Z</time>
      </trkpt>
      <trkpt lat="43.896251041442156" lon="5.112014031037688">
        <ele>107.31999999999999</ele>
        <time>2025-05-17T09:50:40Z</time>
      </trkpt>
      <trkpt lat="43.896233020350337" lon="5.112167000770569">
        <ele>108.29000000000001</ele>
        <time>2025-05-17T09:50:41Z</time>
      </trkpt>
      <trkpt lat="43.896083990111947" lon="5.112863034009934">
        <ele>112.61</ele>
        <time>2025-05-17T09:50:48Z</time>
      </trkpt>
      <trkpt lat="43.89604602009058" lon="5.112977027893066">
        <ele>113.09</ele>
        <time>2025-05-17T09:50:49Z</time>
      </trkpt>
      <trkpt lat="43.895980976521969" lon="5.113020027056336">
        <ele>113.09</ele>
        <time>2025-05-17T09:50:50Z</time>
      </trkpt>
      <trkpt lat="43.895115964114666" lon="5.113352034240961">
        <ele>113.56999999999999</ele>
        <time>2025-05-17T09:51:01Z</time>
      </trkpt>
      <trkpt lat="43.894803989678621" lon="5.113437026739121">
        <ele>114.05</ele>
        <time>2025-05-17T09:51:05Z</time>
      </trkpt>
      <trkpt lat="43.894339967519045" lon="5.113669037818909">
        <ele>115.01000000000001</ele>
        <time>2025-05-17T09:51:13Z</time>
      </trkpt>
      <trkpt lat="43.894234020262957" lon="5.113707007840276">
        <ele>115.5</ele>
        <time>2025-05-17T09:51:15Z</time>
      </trkpt>
      <trkpt lat="43.894174005836248" lon="5.113707007840276">
        <ele>115.01000000000001</ele>
        <time>2025-05-17T09:51:16Z</time>
      </trkpt>
      <trkpt lat="43.894116003066301" lon="5.113685969263315">
        <ele>115.01000000000001</ele>
        <time>2025-05-17T09:51:17Z</time>
      </trkpt>
      <trkpt lat="43.893964039161801" lon="5.113658979535103">
        <ele>115.01000000000001</ele>
        <time>2025-05-17T09:51:19Z</time>
      </trkpt>
      <trkpt lat="43.893889021128416" lon="5.113677000626922">
        <ele>115.01000000000001</ele>
        <time>2025-05-17T09:51:20Z</time>
      </trkpt>
      <trkpt lat="43.893819032236934" lon="5.113712958991528">
        <ele>115.01000000000001</ele>
        <time>2025-05-17T09:51:21Z</time>
      </trkpt>
      <trkpt lat="43.893691962584853" lon="5.11380298063159">
        <ele>115.01000000000001</ele>
        <time>2025-05-17T09:51:23Z</time>
      </trkpt>
      <trkpt lat="43.893628008663654" lon="5.113848997280002">
        <ele>115.01000000000001</ele>
        <time>2025-05-17T09:51:24Z</time>
      </trkpt>
      <trkpt lat="43.893429022282362" lon="5.114001967012882">
        <ele>115.5</ele>
        <time>2025-05-17T09:51:27Z</time>
      </trkpt>
      <trkpt lat="43.892917977645993" lon="5.114274965599179">
        <ele>115.01000000000001</ele>
        <time>2025-05-17T09:51:36Z</time>
      </trkpt>
      <trkpt lat="43.8928899820894" lon="5.114288963377476">
        <ele>114.53</ele>
        <time>2025-05-17T09:51:37Z</time>
      </trkpt>
      <trkpt lat="43.892862992361188" lon="5.114301033318043">
        <ele>114.53</ele>
        <time>2025-05-17T09:51:38Z</time>
      </trkpt>
      <trkpt lat="43.892839020118117" lon="5.114313019439578">
        <ele>114.05</ele>
        <time>2025-05-17T09:51:39Z</time>
      </trkpt>
      <trkpt lat="43.892805995419621" lon="5.114329028874636">
        <ele>114.05</ele>
        <time>2025-05-17T09:51:40Z</time>
      </trkpt>
      <trkpt lat="43.892797026783228" lon="5.114337997511029">
        <ele>113.09</ele>
        <time>2025-05-17T09:51:49Z</time>
      </trkpt>
      <trkpt lat="43.892828039824963" lon="5.114455008879304">
        <ele>113.09</ele>
        <time>2025-05-17T09:51:50Z</time>
      </trkpt>
      <trkpt lat="43.893304970115423" lon="5.114801013842225">
        <ele>109.73</ele>
        <time>2025-05-17T09:51:58Z</time>
      </trkpt>
      <trkpt lat="43.893363978713751" lon="5.114844013005495">
        <ele>109.25</ele>
        <time>2025-05-17T09:51:59Z</time>
      </trkpt>
      <trkpt lat="43.893376970663667" lon="5.114923976361752">
        <ele>108.77</ele>
        <time>2025-05-17T09:52:00Z</time>
      </trkpt>
      <trkpt lat="43.893422987312078" lon="5.115197980776429">
        <ele>107.81</ele>
        <time>2025-05-17T09:52:03Z</time>
      </trkpt>
      <trkpt lat="43.893436985090375" lon="5.115280039608479">
        <ele>107.81</ele>
        <time>2025-05-17T09:52:04Z</time>
      </trkpt>
      <trkpt lat="43.893461041152477" lon="5.115374000743032">
        <ele>107.81</ele>
        <time>2025-05-17T09:52:05Z</time>
      </trkpt>
      <trkpt lat="43.893520971760154" lon="5.115447007119656">
        <ele>107.81</ele>
        <time>2025-05-17T09:52:06Z</time>
      </trkpt>
      <trkpt lat="43.893586015328765" lon="5.115473996847868">
        <ele>107.81</ele>
        <time>2025-05-17T09:52:07Z</time>
      </trkpt>
      <trkpt lat="43.893659021705389" lon="5.115504004061222">
        <ele>107.81</ele>
        <time>2025-05-17T09:52:08Z</time>
      </trkpt>
      <trkpt lat="43.893807968124747" lon="5.11556401848793">
        <ele>107.81</ele>
        <time>2025-05-17T09:52:10Z</time>
      </trkpt>
      <trkpt lat="43.894049031659961" lon="5.115662002936006">
        <ele>107.81</ele>
        <time>2025-05-17T09:52:13Z</time>
      </trkpt>
      <trkpt lat="43.894642973318696" lon="5.116081014275551">
        <ele>111.65000000000001</ele>
        <time>2025-05-17T09:52:21Z</time>
      </trkpt>
      <trkpt lat="43.894827039912343" lon="5.116254016757011">
        <ele>117.90000000000001</ele>
        <time>2025-05-17T09:52:24Z</time>
      </trkpt>
      <trkpt lat="43.895084029063582" lon="5.11657596565783">
        <ele>122.22</ele>
        <time>2025-05-17T09:52:28Z</time>
      </trkpt>
      <trkpt lat="43.8951660040766" lon="5.116689037531614">
        <ele>123.19</ele>
        <time>2025-05-17T09:52:29Z</time>
      </trkpt>
      <trkpt lat="43.895729016512632" lon="5.117556983605027">
        <ele>129.43000000000001</ele>
        <time>2025-05-17T09:52:35Z</time>
      </trkpt>
      <trkpt lat="43.895844016224146" lon="5.117728980258107">
        <ele>129.91999999999999</ele>
        <time>2025-05-17T09:52:36Z</time>
      </trkpt>
      <trkpt lat="43.895986005663872" lon="5.117837022989988">
        <ele>130.88</ele>
        <time>2025-05-17T09:52:37Z</time>
      </trkpt>
      <trkpt lat="43.896133024245501" lon="5.117950011044741">
        <ele>132.31999999999999</ele>
        <time>2025-05-17T09:52:38Z</time>
      </trkpt>
      <trkpt lat="43.896285993978381" lon="5.118067022413015">
        <ele>133.28</ele>
        <time>2025-05-17T09:52:39Z</time>
      </trkpt>
      <trkpt lat="43.897209009155631" lon="5.118745034560561">
        <ele>139.53</ele>
        <time>2025-05-17T09:52:45Z</time>
      </trkpt>
      <trkpt lat="43.897338006645441" lon="5.118841007351875">
        <ele>140.49000000000001</ele>
        <time>2025-05-17T09:52:46Z</time>
      </trkpt>
      <trkpt lat="43.897446971386671" lon="5.118996994569898">
        <ele>141.44999999999999</ele>
        <time>2025-05-17T09:52:47Z</time>
      </trkpt>
      <trkpt lat="43.897918034344912" lon="5.11973200365901">
        <ele>147.22</ele>
        <time>2025-05-17T09:52:52Z</time>
      </trkpt>
      <trkpt lat="43.897995986044407" lon="5.119895031675696">
        <ele>148.66</ele>
        <time>2025-05-17T09:52:53Z</time>
      </trkpt>
      <trkpt lat="43.898076033219695" lon="5.120061999186873">
        <ele>150.09999999999999</ele>
        <time>2025-05-17T09:52:54Z</time>
      </trkpt>
      <trkpt lat="43.898112997412682" lon="5.120243970304728">
        <ele>151.53999999999999</ele>
        <time>2025-05-17T09:52:55Z</time>
      </trkpt>
      <trkpt lat="43.898149039596319" lon="5.120451003313065">
        <ele>152.99000000000001</ele>
        <time>2025-05-17T09:52:56Z</time>
      </trkpt>
      <trkpt lat="43.898171000182629" lon="5.120658036321402">
        <ele>154.43000000000001</ele>
        <time>2025-05-17T09:52:57Z</time>
      </trkpt>
      <trkpt lat="43.898171000182629" lon="5.120868002995849">
        <ele>155.87</ele>
        <time>2025-05-17T09:52:58Z</time>
      </trkpt>
      <trkpt lat="43.898171000182629" lon="5.121242003515363">
        <ele>158.75</ele>
        <time>2025-05-17T09:53:00Z</time>
      </trkpt>
      <trkpt lat="43.898136969655752" lon="5.121414000168443">
        <ele>159.72</ele>
        <time>2025-05-17T09:53:01Z</time>
      </trkpt>
      <trkpt lat="43.898083996027708" lon="5.12155900709331">
        <ele>160.68000000000001</ele>
        <time>2025-05-17T09:53:02Z</time>
      </trkpt>
      <trkpt lat="43.898036973550916" lon="5.121685992926359">
        <ele>161.16</ele>
        <time>2025-05-17T09:53:03Z</time>
      </trkpt>
      <trkpt lat="43.897964973002672" lon="5.121797975152731">
        <ele>162.12</ele>
        <time>2025-05-17T09:53:04Z</time>
      </trkpt>
      <trkpt lat="43.897882997989655" lon="5.121896965429187">
        <ele>162.59999999999999</ele>
        <time>2025-05-17T09:53:05Z</time>
      </trkpt>
      <trkpt lat="43.897774033248425" lon="5.121997967362404">
        <ele>163.08000000000001</ele>
        <time>2025-05-17T09:53:06Z</time>
      </trkpt>
      <trkpt lat="43.897655010223389" lon="5.122028980404139">
        <ele>163.56</ele>
        <time>2025-05-17T09:53:07Z</time>
      </trkpt>
      <trkpt lat="43.897527018561959" lon="5.122063010931015">
        <ele>164.03999999999999</ele>
        <time>2025-05-17T09:53:08Z</time>
      </trkpt>
      <trkpt lat="43.897391986101866" lon="5.122062005102634">
        <ele>164.52000000000001</ele>
        <time>2025-05-17T09:53:09Z</time>
      </trkpt>
      <trkpt lat="43.897258965298533" lon="5.122042978182435">
        <ele>165</ele>
        <time>2025-05-17T09:53:10Z</time>
      </trkpt>
      <trkpt lat="43.897130973637104" lon="5.122025040909648">
        <ele>165.47999999999999</ele>
        <time>2025-05-17T09:53:11Z</time>
      </trkpt>
      <trkpt lat="43.896021964028478" lon="5.121743995696306">
        <ele>171.72999999999999</ele>
        <time>2025-05-17T09:53:21Z</time>
      </trkpt>
      <trkpt lat="43.895439002662897" lon="5.12162396684289">
        <ele>173.66</ele>
        <time>2025-05-17T09:53:26Z</time>
      </trkpt>
      <trkpt lat="43.895329032093287" lon="5.121670989319682">
        <ele>174.13999999999999</ele>
        <time>2025-05-17T09:53:27Z</time>
      </trkpt>
      <trkpt lat="43.895216966047883" lon="5.121719017624855">
        <ele>174.13999999999999</ele>
        <time>2025-05-17T09:53:28Z</time>
      </trkpt>
      <trkpt lat="43.895156029611826" lon="5.121798980981112">
        <ele>175.09999999999999</ele>
        <time>2025-05-17T09:53:29Z</time>
      </trkpt>
      <trkpt lat="43.895097021013498" lon="5.121924038976431">
        <ele>175.58000000000001</ele>
        <time>2025-05-17T09:53:30Z</time>
      </trkpt>
      <trkpt lat="43.895039018243551" lon="5.122045995667577">
        <ele>176.06</ele>
        <time>2025-05-17T09:53:31Z</time>
      </trkpt>
      <trkpt lat="43.89499400742352" lon="5.122142974287272">
        <ele>176.53999999999999</ele>
        <time>2025-05-17T09:53:32Z</time>
      </trkpt>
      <trkpt lat="43.894970035180449" lon="5.122271971777082">
        <ele>177.02000000000001</ele>
        <time>2025-05-17T09:53:33Z</time>
      </trkpt>
      <trkpt lat="43.894944973289967" lon="5.122405998408794">
        <ele>177.5</ele>
        <time>2025-05-17T09:53:34Z</time>
      </trkpt>
      <trkpt lat="43.894730983301997" lon="5.123804016038775">
        <ele>181.83000000000001</ele>
        <time>2025-05-17T09:53:42Z</time>
      </trkpt>
      <trkpt lat="43.894394030794501" lon="5.125277973711491">
        <ele>188.56</ele>
        <time>2025-05-17T09:53:50Z</time>
      </trkpt>
      <trkpt lat="43.894054982811213" lon="5.126534001901746">
        <ele>197.21000000000001</ele>
        <time>2025-05-17T09:53:58Z</time>
      </trkpt>
      <trkpt lat="43.893920034170151" lon="5.127127021551132">
        <ele>200.56999999999999</ele>
        <time>2025-05-17T09:54:01Z</time>
      </trkpt>
      <trkpt lat="43.893891032785177" lon="5.127346962690353">
        <ele>201.53</ele>
        <time>2025-05-17T09:54:02Z</time>
      </trkpt>
      <trkpt lat="43.893762035295367" lon="5.12817601673305">
        <ele>204.90000000000001</ele>
        <time>2025-05-17T09:54:06Z</time>
      </trkpt>
      <trkpt lat="43.893689028918743" lon="5.128338960930705">
        <ele>205.86000000000001</ele>
        <time>2025-05-17T09:54:07Z</time>
      </trkpt>
      <trkpt lat="43.89362096786499" lon="5.128491008654237">
        <ele>206.81999999999999</ele>
        <time>2025-05-17T09:54:08Z</time>
      </trkpt>
      <trkpt lat="43.893503034487367" lon="5.128635009750724">
        <ele>207.30000000000001</ele>
        <time>2025-05-17T09:54:09Z</time>
      </trkpt>
      <trkpt lat="43.893391974270344" lon="5.128770964220166">
        <ele>208.25999999999999</ele>
        <time>2025-05-17T09:54:10Z</time>
      </trkpt>
      <trkpt lat="43.893282003700733" lon="5.12890599668026">
        <ele>209.69999999999999</ele>
        <time>2025-05-17T09:54:11Z</time>
      </trkpt>
      <trkpt lat="43.893191982060671" lon="5.129084028303623">
        <ele>210.66999999999999</ele>
        <time>2025-05-17T09:54:12Z</time>
      </trkpt>
      <trkpt lat="43.893129033967853" lon="5.129263987764716">
        <ele>212.11000000000001</ele>
        <time>2025-05-17T09:54:13Z</time>
      </trkpt>
      <trkpt lat="43.893097015097737" lon="5.129456017166376">
        <ele>213.55000000000001</ele>
        <time>2025-05-17T09:54:14Z</time>
      </trkpt>
      <trkpt lat="43.893090980127454" lon="5.129650980234146">
        <ele>214.99000000000001</ele>
        <time>2025-05-17T09:54:15Z</time>
      </trkpt>
      <trkpt lat="43.893117969855666" lon="5.129854995757341">
        <ele>216.91</ele>
        <time>2025-05-17T09:54:16Z</time>
      </trkpt>
      <trkpt lat="43.893172033131123" lon="5.130062028765678">
        <ele>218.84</ele>
        <time>2025-05-17T09:54:17Z</time>
      </trkpt>
      <trkpt lat="43.893239004537463" lon="5.130266966298223">
        <ele>220.28</ele>
        <time>2025-05-17T09:54:18Z</time>
      </trkpt>
      <trkpt lat="43.893305975943804" lon="5.130472993478179">
        <ele>221.24000000000001</ele>
        <time>2025-05-17T09:54:19Z</time>
      </trkpt>
      <trkpt lat="43.89349197037518" lon="5.131040029227734">
        <ele>225.09</ele>
        <time>2025-05-17T09:54:22Z</time>
      </trkpt>
      <trkpt lat="43.893521977588534" lon="5.131210014224052">
        <ele>226.05000000000001</ele>
        <time>2025-05-17T09:54:23Z</time>
      </trkpt>
      <trkpt lat="43.89353496953845" lon="5.131378993391991">
        <ele>227.00999999999999</ele>
        <time>2025-05-17T09:54:24Z</time>
      </trkpt>
      <trkpt lat="43.893515020608902" lon="5.131535986438394">
        <ele>227.97</ele>
        <time>2025-05-17T09:54:25Z</time>
      </trkpt>
      <trkpt lat="43.893489958718419" lon="5.131700020283461">
        <ele>228.44999999999999</ele>
        <time>2025-05-17T09:54:26Z</time>
      </trkpt>
      <trkpt lat="43.893442014232278" lon="5.131873022764921">
        <ele>229.41</ele>
        <time>2025-05-17T09:54:27Z</time>
      </trkpt>
      <trkpt lat="43.89335903339088" lon="5.132024986669421">
        <ele>230.37</ele>
        <time>2025-05-17T09:54:28Z</time>
      </trkpt>
      <trkpt lat="43.893261970952153" lon="5.132163958624005">
        <ele>231.33000000000001</ele>
        <time>2025-05-17T09:54:29Z</time>
      </trkpt>
      <trkpt lat="43.893148982897401" lon="5.132266972213984">
        <ele>232.30000000000001</ele>
        <time>2025-05-17T09:54:30Z</time>
      </trkpt>
      <trkpt lat="43.89301504008472" lon="5.132365040481091">
        <ele>233.25999999999999</ele>
        <time>2025-05-17T09:54:31Z</time>
      </trkpt>
      <trkpt lat="43.892874978482723" lon="5.132455984130502">
        <ele>234.22</ele>
        <time>2025-05-17T09:54:32Z</time>
      </trkpt>
      <trkpt lat="43.892469964921474" lon="5.132610965520144">
        <ele>236.62</ele>
        <time>2025-05-17T09:54:35Z</time>
      </trkpt>
      <trkpt lat="43.892348008230329" lon="5.132610965520144">
        <ele>237.09999999999999</ele>
        <time>2025-05-17T09:54:36Z</time>
      </trkpt>
      <trkpt lat="43.892205012962222" lon="5.132610965520144">
        <ele>237.58000000000001</ele>
        <time>2025-05-17T09:54:37Z</time>
      </trkpt>
      <trkpt lat="43.892112979665399" lon="5.132555980235338">
        <ele>237.58000000000001</ele>
        <time>2025-05-17T09:54:38Z</time>
      </trkpt>
      <trkpt lat="43.891990017145872" lon="5.132481968030334">
        <ele>237.09999999999999</ele>
        <time>2025-05-17T09:54:39Z</time>
      </trkpt>
      <trkpt lat="43.891862025484443" lon="5.132405022159219">
        <ele>237.09999999999999</ele>
        <time>2025-05-17T09:54:40Z</time>
      </trkpt>
      <trkpt lat="43.891730010509491" lon="5.132325980812311">
        <ele>236.62</ele>
        <time>2025-05-17T09:54:41Z</time>
      </trkpt>
      <trkpt lat="43.891596989706159" lon="5.132275018841028">
        <ele>236.13999999999999</ele>
        <time>2025-05-17T09:54:42Z</time>
      </trkpt>
      <trkpt lat="43.891467992216349" lon="5.132249034941196">
        <ele>235.66</ele>
        <time>2025-05-17T09:54:43Z</time>
      </trkpt>
      <trkpt lat="43.891347041353583" lon="5.132224978879094">
        <ele>235.18000000000001</ele>
        <time>2025-05-17T09:54:44Z</time>
      </trkpt>
      <trkpt lat="43.891227012500167" lon="5.132250962778926">
        <ele>234.22</ele>
        <time>2025-05-17T09:54:45Z</time>
      </trkpt>
      <trkpt lat="43.891104971989989" lon="5.13227803632617">
        <ele>233.25999999999999</ele>
        <time>2025-05-17T09:54:46Z</time>
      </trkpt>
      <trkpt lat="43.890960970893502" lon="5.132309971377254">
        <ele>232.78</ele>
        <time>2025-05-17T09:54:47Z</time>
      </trkpt>
      <trkpt lat="43.890857035294175" lon="5.132370991632342">
        <ele>231.81</ele>
        <time>2025-05-17T09:54:48Z</time>
      </trkpt>
      <trkpt lat="43.889961009845138" lon="5.132954036816955">
        <ele>224.61000000000001</ele>
        <time>2025-05-17T09:54:57Z</time>
      </trkpt>
      <trkpt lat="43.889837963506579" lon="5.133158974349499">
        <ele>223.16</ele>
        <time>2025-05-17T09:54:59Z</time>
      </trkpt>
      <trkpt lat="43.889780966565013" lon="5.133255030959845">
        <ele>222.68000000000001</ele>
        <time>2025-05-17T09:55:00Z</time>
      </trkpt>
      <trkpt lat="43.889761017635465" lon="5.133369024842978">
        <ele>222.68000000000001</ele>
        <time>2025-05-17T09:55:01Z</time>
      </trkpt>
      <trkpt lat="43.889670995995402" lon="5.133885014802218">
        <ele>221.24000000000001</ele>
        <time>2025-05-17T09:55:08Z</time>
      </trkpt>
      <trkpt lat="43.889653980731964" lon="5.133981993421912">
        <ele>220.28</ele>
        <time>2025-05-17T09:55:11Z</time>
      </trkpt>
      <trkpt lat="43.889650963246822" lon="5.134003031998873">
        <ele>220.28</ele>
        <time>2025-05-17T09:55:12Z</time>
      </trkpt>
      <trkpt lat="43.889650963246822" lon="5.134003031998873">
        <ele>220.28</ele>
        <time>2025-05-17T09:55:13Z</time>
      </trkpt>
      <trkpt lat="43.889650963246822" lon="5.134003031998873">
        <ele>220.28</ele>
        <time>2025-05-17T09:55:24Z</time>
      </trkpt>
      <trkpt lat="43.889584997668862" lon="5.133993979543448">
        <ele>217.40000000000001</ele>
        <time>2025-05-17T10:00:12Z</time>
      </trkpt>
      <trkpt lat="43.889624979346991" lon="5.133962966501713">
        <ele>229.88999999999999</ele>
        <time>2025-05-17T10:00:54Z</time>
      </trkpt>
      <trkpt lat="43.889629002660513" lon="5.133941005915403">
        <ele>226.05000000000001</ele>
        <time>2025-05-17T10:01:48Z</time>
      </trkpt>
      <trkpt lat="43.889631014317274" lon="5.133945029228926">
        <ele>226.53</ele>
        <time>2025-05-17T10:02:35Z</time>
      </trkpt>
      <trkpt lat="43.889629002660513" lon="5.133947962895036">
        <ele>226.05000000000001</ele>
        <time>2025-05-17T10:03:23Z</time>
      </trkpt>
      <trkpt lat="43.889630008488894" lon="5.133948968723416">
        <ele>226.05000000000001</ele>
        <time>2025-05-17T10:04:10Z</time>
      </trkpt>
      <trkpt lat="43.889630008488894" lon="5.133948968723416">
        <ele>226.05000000000001</ele>
        <time>2025-05-17T10:04:11Z</time>
      </trkpt>
      <trkpt lat="43.889647023752332" lon="5.134027004241943">
        <ele>226.05000000000001</ele>
        <time>2025-05-17T10:04:14Z</time>
      </trkpt>
      <trkpt lat="43.889635037630796" lon="5.134092969819903">
        <ele>225.56999999999999</ele>
        <time>2025-05-17T10:04:15Z</time>
      </trkpt>
      <trkpt lat="43.8896210398525" lon="5.134173016995192">
        <ele>225.56999999999999</ele>
        <time>2025-05-17T10:04:16Z</time>
      </trkpt>
      <trkpt lat="43.889518026262522" lon="5.134766958653927">
        <ele>224.12</ele>
        <time>2025-05-17T10:04:22Z</time>
      </trkpt>
      <trkpt lat="43.889333959668875" lon="5.13582500629127">
        <ele>218.84</ele>
        <time>2025-05-17T10:04:29Z</time>
      </trkpt>
      <trkpt lat="43.889316022396088" lon="5.136207975447178">
        <ele>217.40000000000001</ele>
        <time>2025-05-17T10:04:31Z</time>
      </trkpt>
      <trkpt lat="43.889307975769043" lon="5.136408973485231">
        <ele>216.91</ele>
        <time>2025-05-17T10:04:32Z</time>
      </trkpt>
      <trkpt lat="43.889345023781061" lon="5.13655498623848">
        <ele>216.43000000000001</ele>
        <time>2025-05-17T10:04:33Z</time>
      </trkpt>
      <trkpt lat="43.889432027935982" lon="5.136695969849825">
        <ele>215.94999999999999</ele>
        <time>2025-05-17T10:04:34Z</time>
      </trkpt>
      <trkpt lat="43.889545015990734" lon="5.136858997866511">
        <ele>214.99000000000001</ele>
        <time>2025-05-17T10:04:35Z</time>
      </trkpt>
      <trkpt lat="43.889668984338641" lon="5.136926975101233">
        <ele>214.03</ele>
        <time>2025-05-17T10:04:36Z</time>
      </trkpt>
      <trkpt lat="43.889818014577031" lon="5.137009033933282">
        <ele>213.06999999999999</ele>
        <time>2025-05-17T10:04:37Z</time>
      </trkpt>
      <trkpt lat="43.890751004219055" lon="5.137551007792354">
        <ele>208.25999999999999</ele>
        <time>2025-05-17T10:04:43Z</time>
      </trkpt>
      <trkpt lat="43.890864998102188" lon="5.137663995847106">
        <ele>207.78</ele>
        <time>2025-05-17T10:04:44Z</time>
      </trkpt>
      <trkpt lat="43.890939010307193" lon="5.137739013880491">
        <ele>206.81999999999999</ele>
        <time>2025-05-17T10:04:45Z</time>
      </trkpt>
      <trkpt lat="43.890979997813702" lon="5.137916961684823">
        <ele>206.34</ele>
        <time>2025-05-17T10:04:46Z</time>
      </trkpt>
      <trkpt lat="43.891001036390662" lon="5.138031961396337">
        <ele>205.38</ele>
        <time>2025-05-17T10:04:47Z</time>
      </trkpt>
      <trkpt lat="43.890968011692166" lon="5.138177974149585">
        <ele>204.41999999999999</ele>
        <time>2025-05-17T10:04:48Z</time>
      </trkpt>
      <trkpt lat="43.890905985608697" lon="5.138296997174621">
        <ele>203.46000000000001</ele>
        <time>2025-05-17T10:04:49Z</time>
      </trkpt>
      <trkpt lat="43.890808001160622" lon="5.138448039069772">
        <ele>202.49000000000001</ele>
        <time>2025-05-17T10:04:50Z</time>
      </trkpt>
      <trkpt lat="43.890660982578993" lon="5.138485003262758">
        <ele>201.53</ele>
        <time>2025-05-17T10:04:51Z</time>
      </trkpt>
      <trkpt lat="43.890492003411055" lon="5.138502018526197">
        <ele>200.09</ele>
        <time>2025-05-17T10:04:52Z</time>
      </trkpt>
      <trkpt lat="43.890312965959311" lon="5.138517022132874">
        <ele>198.65000000000001</ele>
        <time>2025-05-17T10:04:53Z</time>
      </trkpt>
      <trkpt lat="43.889799993485212" lon="5.138591034337878">
        <ele>193.36000000000001</ele>
        <time>2025-05-17T10:04:56Z</time>
      </trkpt>
      <trkpt lat="43.889659009873867" lon="5.138667980208993">
        <ele>190.96000000000001</ele>
        <time>2025-05-17T10:04:57Z</time>
      </trkpt>
      <trkpt lat="43.889574017375708" lon="5.138794966042042">
        <ele>190</ele>
        <time>2025-05-17T10:04:58Z</time>
      </trkpt>
      <trkpt lat="43.889506962150335" lon="5.138929998502135">
        <ele>188.56</ele>
        <time>2025-05-17T10:04:59Z</time>
      </trkpt>
      <trkpt lat="43.889473015442491" lon="5.139095960184932">
        <ele>187.59</ele>
        <time>2025-05-17T10:05:00Z</time>
      </trkpt>
      <trkpt lat="43.889434961602092" lon="5.139296958222985">
        <ele>186.63</ele>
        <time>2025-05-17T10:05:01Z</time>
      </trkpt>
      <trkpt lat="43.889133967459202" lon="5.14083000831306">
        <ele>180.87</ele>
        <time>2025-05-17T10:05:07Z</time>
      </trkpt>
      <trkpt lat="43.8890649843961" lon="5.142047982662916">
        <ele>177.97999999999999</ele>
        <time>2025-05-17T10:05:13Z</time>
      </trkpt>
      <trkpt lat="43.889098009094596" lon="5.142390970140696">
        <ele>177.02000000000001</ele>
        <time>2025-05-17T10:05:15Z</time>
      </trkpt>
      <trkpt lat="43.889112006872892" lon="5.142546035349369">
        <ele>176.53999999999999</ele>
        <time>2025-05-17T10:05:16Z</time>
      </trkpt>
      <trkpt lat="43.889126004651189" lon="5.142694981768727">
        <ele>176.06</ele>
        <time>2025-05-17T10:05:17Z</time>
      </trkpt>
      <trkpt lat="43.889123992994428" lon="5.142855998128653">
        <ele>175.58000000000001</ele>
        <time>2025-05-17T10:05:18Z</time>
      </trkpt>
      <trkpt lat="43.889072025194764" lon="5.143018020316958">
        <ele>175.09999999999999</ele>
        <time>2025-05-17T10:05:19Z</time>
      </trkpt>
      <trkpt lat="43.888990972191095" lon="5.143168978393078">
        <ele>174.13999999999999</ele>
        <time>2025-05-17T10:05:20Z</time>
      </trkpt>
      <trkpt lat="43.888891981914639" lon="5.143294958397746">
        <ele>173.16999999999999</ele>
        <time>2025-05-17T10:05:21Z</time>
      </trkpt>
      <trkpt lat="43.888168036937714" lon="5.144229037687182">
        <ele>166.93000000000001</ele>
        <time>2025-05-17T10:05:29Z</time>
      </trkpt>
      <trkpt lat="43.887976007536054" lon="5.144475968554616">
        <ele>163.56</ele>
        <time>2025-05-17T10:05:34Z</time>
      </trkpt>
      <trkpt lat="43.887965027242899" lon="5.144489966332912">
        <ele>162.12</ele>
        <time>2025-05-17T10:05:42Z</time>
      </trkpt>
      <trkpt lat="43.88798899948597" lon="5.144459959119558">
        <ele>161.63999999999999</ele>
        <time>2025-05-17T10:05:44Z</time>
      </trkpt>
      <trkpt lat="43.88801196590066" lon="5.144431041553617">
        <ele>161.63999999999999</ele>
        <time>2025-05-17T10:05:45Z</time>
      </trkpt>
      <trkpt lat="43.888048008084297" lon="5.144384019076824">
        <ele>161.16</ele>
        <time>2025-05-17T10:05:46Z</time>
      </trkpt>
      <trkpt lat="43.888096958398819" lon="5.144320987164974">
        <ele>160.68000000000001</ele>
        <time>2025-05-17T10:05:47Z</time>
      </trkpt>
      <trkpt lat="43.888154039159417" lon="5.14424697495997">
        <ele>160.19999999999999</ele>
        <time>2025-05-17T10:05:48Z</time>
      </trkpt>
      <trkpt lat="43.888841019943357" lon="5.143362013623118">
        <ele>161.63999999999999</ele>
        <time>2025-05-17T10:05:56Z</time>
      </trkpt>
      <trkpt lat="43.889093985781074" lon="5.142975021153688">
        <ele>164.03999999999999</ele>
        <time>2025-05-17T10:06:00Z</time>
      </trkpt>
      <trkpt lat="43.889093985781074" lon="5.142975021153688">
        <ele>164.52000000000001</ele>
        <time>2025-05-17T10:06:01Z</time>
      </trkpt>
      <trkpt lat="43.889242010191083" lon="5.142917018383741">
        <ele>165.47999999999999</ele>
        <time>2025-05-17T10:06:02Z</time>
      </trkpt>
      <trkpt lat="43.889278974384069" lon="5.14295800589025">
        <ele>166.44999999999999</ele>
        <time>2025-05-17T10:06:03Z</time>
      </trkpt>
      <trkpt lat="43.889334965497255" lon="5.143019026145339">
        <ele>167.41</ele>
        <time>2025-05-17T10:06:04Z</time>
      </trkpt>
      <trkpt lat="43.889388022944331" lon="5.143101001158357">
        <ele>167.88999999999999</ele>
        <time>2025-05-17T10:06:05Z</time>
      </trkpt>
      <trkpt lat="43.889439990743995" lon="5.143240978941321">
        <ele>168.37</ele>
        <time>2025-05-17T10:06:06Z</time>
      </trkpt>
      <trkpt lat="43.889501010999084" lon="5.143403001129627">
        <ele>168.37</ele>
        <time>2025-05-17T10:06:07Z</time>
      </trkpt>
      <trkpt lat="43.889565970748663" lon="5.143576003611088">
        <ele>168.37</ele>
        <time>2025-05-17T10:06:08Z</time>
      </trkpt>
      <trkpt lat="43.889582986012101" lon="5.143768033012748">
        <ele>168.37</ele>
        <time>2025-05-17T10:06:09Z</time>
      </trkpt>
      <trkpt lat="43.889602012932301" lon="5.143972970545292">
        <ele>168.37</ele>
        <time>2025-05-17T10:06:10Z</time>
      </trkpt>
      <trkpt lat="43.889626991003752" lon="5.14495600014925">
        <ele>168.37</ele>
        <time>2025-05-17T10:06:15Z</time>
      </trkpt>
      <trkpt lat="43.889651969075203" lon="5.145477019250393">
        <ele>167.88999999999999</ele>
        <time>2025-05-17T10:06:19Z</time>
      </trkpt>
      <trkpt lat="43.889651969075203" lon="5.145576009526849">
        <ele>167.88999999999999</ele>
        <time>2025-05-17T10:06:20Z</time>
      </trkpt>
      <trkpt lat="43.889651969075203" lon="5.145671982318163">
        <ele>167.88999999999999</ele>
        <time>2025-05-17T10:06:21Z</time>
      </trkpt>
      <trkpt lat="43.889651969075203" lon="5.145768038928509">
        <ele>168.37</ele>
        <time>2025-05-17T10:06:22Z</time>
      </trkpt>
      <trkpt lat="43.889651969075203" lon="5.145864011719823">
        <ele>168.37</ele>
        <time>2025-05-17T10:06:23Z</time>
      </trkpt>
      <trkpt lat="43.889717012643814" lon="5.147062037140131">
        <ele>169.33000000000001</ele>
        <time>2025-05-17T10:06:33Z</time>
      </trkpt>
      <trkpt lat="43.889749031513929" lon="5.14731802046299">
        <ele>169.81</ele>
        <time>2025-05-17T10:06:35Z</time>
      </trkpt>
      <trkpt lat="43.889775015413761" lon="5.147442994639278">
        <ele>169.81</ele>
        <time>2025-05-17T10:06:36Z</time>
      </trkpt>
      <trkpt lat="43.889813991263509" lon="5.147561011835933">
        <ele>169.81</ele>
        <time>2025-05-17T10:06:37Z</time>
      </trkpt>
      <trkpt lat="43.889865037053823" lon="5.147681962698698">
        <ele>169.81</ele>
        <time>2025-05-17T10:06:38Z</time>
      </trkpt>
      <trkpt lat="43.889935025945306" lon="5.147781958803535">
        <ele>169.33000000000001</ele>
        <time>2025-05-17T10:06:39Z</time>
      </trkpt>
      <trkpt lat="43.890004009008408" lon="5.147882960736752">
        <ele>168.84999999999999</ele>
        <time>2025-05-17T10:06:40Z</time>
      </trkpt>
      <trkpt lat="43.890071986243129" lon="5.147973988205195">
        <ele>168.37</ele>
        <time>2025-05-17T10:06:41Z</time>
      </trkpt>
      <trkpt lat="43.890264015644789" lon="5.148218991234899">
        <ele>166.93000000000001</ele>
        <time>2025-05-17T10:06:44Z</time>
      </trkpt>
      <trkpt lat="43.890384966507554" lon="5.148472040891647">
        <ele>166.93000000000001</ele>
        <time>2025-05-17T10:06:47Z</time>
      </trkpt>
      <trkpt lat="43.890412962064147" lon="5.14862802810967">
        <ele>167.41</ele>
        <time>2025-05-17T10:06:49Z</time>
      </trkpt>
      <trkpt lat="43.890418997034431" lon="5.148704973980784">
        <ele>167.88999999999999</ele>
        <time>2025-05-17T10:06:50Z</time>
      </trkpt>
      <trkpt lat="43.890424026176333" lon="5.148768005892634">
        <ele>167.88999999999999</ele>
        <time>2025-05-17T10:06:51Z</time>
      </trkpt>
      <trkpt lat="43.890424026176333" lon="5.148768005892634">
        <ele>168.37</ele>
        <time>2025-05-17T10:06:52Z</time>
      </trkpt>
      <trkpt lat="43.890397036448121" lon="5.148848975077272">
        <ele>168.37</ele>
        <time>2025-05-17T10:06:53Z</time>
      </trkpt>
      <trkpt lat="43.890382032841444" lon="5.148894991725683">
        <ele>168.37</ele>
        <time>2025-05-17T10:06:54Z</time>
      </trkpt>
      <trkpt lat="43.890363005921245" lon="5.14895198866725">
        <ele>168.37</ele>
        <time>2025-05-17T10:06:55Z</time>
      </trkpt>
      <trkpt lat="43.890338027849793" lon="5.149026000872254">
        <ele>168.84999999999999</ele>
        <time>2025-05-17T10:06:56Z</time>
      </trkpt>
      <trkpt lat="43.890313971787691" lon="5.149092972278595">
        <ele>168.84999999999999</ele>
        <time>2025-05-17T10:06:57Z</time>
      </trkpt>
      <trkpt lat="43.890283964574337" lon="5.149176036939025">
        <ele>168.84999999999999</ele>
        <time>2025-05-17T10:06:58Z</time>
      </trkpt>
      <trkpt lat="43.890252029523253" lon="5.149272009730339">
        <ele>168.37</ele>
        <time>2025-05-17T10:06:59Z</time>
      </trkpt>
      <trkpt lat="43.890243982896209" lon="5.149373011663556">
        <ele>168.37</ele>
        <time>2025-05-17T10:07:00Z</time>
      </trkpt>
      <trkpt lat="43.890236020088196" lon="5.149480970576406">
        <ele>168.37</ele>
        <time>2025-05-17T10:07:01Z</time>
      </trkpt>
      <trkpt lat="43.890239037573338" lon="5.149591024965048">
        <ele>168.37</ele>
        <time>2025-05-17T10:07:02Z</time>
      </trkpt>
      <trkpt lat="43.890254041180015" lon="5.149690015241504">
        <ele>168.37</ele>
        <time>2025-05-17T10:07:03Z</time>
      </trkpt>
      <trkpt lat="43.89026896096766" lon="5.149783976376057">
        <ele>168.37</ele>
        <time>2025-05-17T10:07:04Z</time>
      </trkpt>
      <trkpt lat="43.890282958745956" lon="5.149877015501261">
        <ele>168.84999999999999</ele>
        <time>2025-05-17T10:07:05Z</time>
      </trkpt>
      <trkpt lat="43.890297962352633" lon="5.149970976635814">
        <ele>168.84999999999999</ele>
        <time>2025-05-17T10:07:06Z</time>
      </trkpt>
      <trkpt lat="43.890511030331254" lon="5.15112197957933">
        <ele>168.84999999999999</ele>
        <time>2025-05-17T10:07:17Z</time>
      </trkpt>
      <trkpt lat="43.89065402559936" lon="5.151798985898495">
        <ele>165.96000000000001</ele>
        <time>2025-05-17T10:07:23Z</time>
      </trkpt>
      <trkpt lat="43.89067598618567" lon="5.151903005316854">
        <ele>165.96000000000001</ele>
        <time>2025-05-17T10:07:24Z</time>
      </trkpt>
      <trkpt lat="43.890639021992683" lon="5.152094028890133">
        <ele>165.47999999999999</ele>
        <time>2025-05-17T10:07:25Z</time>
      </trkpt>
      <trkpt lat="43.890658970922232" lon="5.152182960882783">
        <ele>165.47999999999999</ele>
        <time>2025-05-17T10:07:26Z</time>
      </trkpt>
      <trkpt lat="43.89061102643609" lon="5.152278011664748">
        <ele>165</ele>
        <time>2025-05-17T10:07:27Z</time>
      </trkpt>
      <trkpt lat="43.890538020059466" lon="5.152380019426346">
        <ele>165</ele>
        <time>2025-05-17T10:07:28Z</time>
      </trkpt>
      <trkpt lat="43.890467025339603" lon="5.152467023581266">
        <ele>164.52000000000001</ele>
        <time>2025-05-17T10:07:29Z</time>
      </trkpt>
      <trkpt lat="43.890236020088196" lon="5.152749996632338">
        <ele>162.12</ele>
        <time>2025-05-17T10:07:32Z</time>
      </trkpt>
      <trkpt lat="43.890095036476851" lon="5.152924004942179">
        <ele>160.68000000000001</ele>
        <time>2025-05-17T10:07:34Z</time>
      </trkpt>
      <trkpt lat="43.890034016221762" lon="5.152998017147183">
        <ele>159.72</ele>
        <time>2025-05-17T10:07:35Z</time>
      </trkpt>
      <trkpt lat="43.889982970431447" lon="5.153059959411621">
        <ele>159.24000000000001</ele>
        <time>2025-05-17T10:07:36Z</time>
      </trkpt>
      <trkpt lat="43.889931002631783" lon="5.153123997151852">
        <ele>158.75</ele>
        <time>2025-05-17T10:07:37Z</time>
      </trkpt>
      <trkpt lat="43.889912981539965" lon="5.153145035728812">
        <ele>157.78999999999999</ele>
        <time>2025-05-17T10:07:38Z</time>
      </trkpt>
      <trkpt lat="43.889891020953655" lon="5.153171019628644">
        <ele>157.31</ele>
        <time>2025-05-17T10:07:39Z</time>
      </trkpt>
      <trkpt lat="43.889876017346978" lon="5.153189040720463">
        <ele>156.34999999999999</ele>
        <time>2025-05-17T10:07:40Z</time>
      </trkpt>
      <trkpt lat="43.889876017346978" lon="5.153189040720463">
        <ele>155.87</ele>
        <time>2025-05-17T10:07:53Z</time>
      </trkpt>
      <trkpt lat="43.889876017346978" lon="5.153189040720463">
        <ele>152.03</ele>
        <time>2025-05-17T10:08:15Z</time>
      </trkpt>
      <trkpt lat="43.889766968786716" lon="5.153315020725131">
        <ele>152.50999999999999</ele>
        <time>2025-05-17T10:08:20Z</time>
      </trkpt>
      <trkpt lat="43.889722963795066" lon="5.153366988524795">
        <ele>152.50999999999999</ele>
        <time>2025-05-17T10:08:21Z</time>
      </trkpt>
      <trkpt lat="43.889004969969392" lon="5.154243987053633">
        <ele>152.03</ele>
        <time>2025-05-17T10:08:33Z</time>
      </trkpt>
      <trkpt lat="43.888495014980435" lon="5.155251994729042">
        <ele>149.13999999999999</ele>
        <time>2025-05-17T10:08:43Z</time>
      </trkpt>
      <trkpt lat="43.88801297172904" lon="5.156552027910948">
        <ele>144.81999999999999</ele>
        <time>2025-05-17T10:08:54Z</time>
      </trkpt>
      <trkpt lat="43.887503016740084" lon="5.157607980072498">
        <ele>142.88999999999999</ele>
        <time>2025-05-17T10:09:04Z</time>
      </trkpt>
      <trkpt lat="43.886993983760476" lon="5.158869959414005">
        <ele>141.44999999999999</ele>
        <time>2025-05-17T10:09:13Z</time>
      </trkpt>
      <trkpt lat="43.886841014027596" lon="5.159646039828658">
        <ele>141.93000000000001</ele>
        <time>2025-05-17T10:09:18Z</time>
      </trkpt>
      <trkpt lat="43.886841014027596" lon="5.159776965156198">
        <ele>142.41</ele>
        <time>2025-05-17T10:09:19Z</time>
      </trkpt>
      <trkpt lat="43.886855011805892" lon="5.159896994009614">
        <ele>142.41</ele>
        <time>2025-05-17T10:09:20Z</time>
      </trkpt>
      <trkpt lat="43.886882001534104" lon="5.160005036741495">
        <ele>142.41</ele>
        <time>2025-05-17T10:09:21Z</time>
      </trkpt>
      <trkpt lat="43.886906979605556" lon="5.160106038674712">
        <ele>142.88999999999999</ele>
        <time>2025-05-17T10:09:22Z</time>
      </trkpt>
      <trkpt lat="43.887142008170485" lon="5.16102503053844">
        <ele>146.74000000000001</ele>
        <time>2025-05-17T10:09:32Z</time>
      </trkpt>
      <trkpt lat="43.887248961254954" lon="5.162302013486624">
        <ele>149.62</ele>
        <time>2025-05-17T10:09:40Z</time>
      </trkpt>
      <trkpt lat="43.887248961254954" lon="5.162505023181438">
        <ele>150.58000000000001</ele>
        <time>2025-05-17T10:09:41Z</time>
      </trkpt>
      <trkpt lat="43.887162962928414" lon="5.163998007774353">
        <ele>153.94999999999999</ele>
        <time>2025-05-17T10:09:48Z</time>
      </trkpt>
      <trkpt lat="43.886806983500719" lon="5.165385967120528">
        <ele>156.34999999999999</ele>
        <time>2025-05-17T10:09:55Z</time>
      </trkpt>
      <trkpt lat="43.886734982952476" lon="5.165539020672441">
        <ele>156.34999999999999</ele>
        <time>2025-05-17T10:09:56Z</time>
      </trkpt>
      <trkpt lat="43.886328041553497" lon="5.166264977306128">
        <ele>154.91</ele>
        <time>2025-05-17T10:10:03Z</time>
      </trkpt>
      <trkpt lat="43.886218992993236" lon="5.166471004486084">
        <ele>154.91</ele>
        <time>2025-05-17T10:10:06Z</time>
      </trkpt>
      <trkpt lat="43.886123020201921" lon="5.166511991992593">
        <ele>154.91</ele>
        <time>2025-05-17T10:10:07Z</time>
      </trkpt>
      <trkpt lat="43.886111034080386" lon="5.166557002812624">
        <ele>154.91</ele>
        <time>2025-05-17T10:10:08Z</time>
      </trkpt>
      <trkpt lat="43.886122014373541" lon="5.166663033887744">
        <ele>154.91</ele>
        <time>2025-05-17T10:10:09Z</time>
      </trkpt>
      <trkpt lat="43.886106004938483" lon="5.166724976152182">
        <ele>155.38999999999999</ele>
        <time>2025-05-17T10:10:10Z</time>
      </trkpt>
      <trkpt lat="43.886088989675045" lon="5.166791025549173">
        <ele>155.38999999999999</ele>
        <time>2025-05-17T10:10:11Z</time>
      </trkpt>
      <trkpt lat="43.886069962754846" lon="5.166865037754178">
        <ele>154.91</ele>
        <time>2025-05-17T10:10:12Z</time>
      </trkpt>
      <trkpt lat="43.885767962783575" lon="5.167833985760808">
        <ele>155.38999999999999</ele>
        <time>2025-05-17T10:10:22Z</time>
      </trkpt>
      <trkpt lat="43.885407038033009" lon="5.168870994821191">
        <ele>154.43000000000001</ele>
        <time>2025-05-17T10:10:32Z</time>
      </trkpt>
      <trkpt lat="43.885298995301127" lon="5.169090013951063">
        <ele>153.47</ele>
        <time>2025-05-17T10:10:34Z</time>
      </trkpt>
      <trkpt lat="43.885233029723167" lon="5.169161008670926">
        <ele>153.47</ele>
        <time>2025-05-17T10:10:35Z</time>
      </trkpt>
      <trkpt lat="43.885168991982937" lon="5.169228985905647">
        <ele>152.99000000000001</ele>
        <time>2025-05-17T10:10:36Z</time>
      </trkpt>
      <trkpt lat="43.885106965899467" lon="5.169294029474258">
        <ele>152.50999999999999</ele>
        <time>2025-05-17T10:10:37Z</time>
      </trkpt>
      <trkpt lat="43.885037982836366" lon="5.169368041679263">
        <ele>152.50999999999999</ele>
        <time>2025-05-17T10:10:38Z</time>
      </trkpt>
      <trkpt lat="43.884991966187954" lon="5.169400982558727">
        <ele>152.03</ele>
        <time>2025-05-17T10:10:39Z</time>
      </trkpt>
      <trkpt lat="43.88496003113687" lon="5.169424032792449">
        <ele>152.03</ele>
        <time>2025-05-17T10:10:40Z</time>
      </trkpt>
      <trkpt lat="43.884941004216671" lon="5.169438030570746">
        <ele>151.53999999999999</ele>
        <time>2025-05-17T10:10:41Z</time>
      </trkpt>
      <trkpt lat="43.884941004216671" lon="5.169438030570746">
        <ele>151.53999999999999</ele>
        <time>2025-05-17T10:10:42Z</time>
      </trkpt>
      <trkpt lat="43.88491895981133" lon="5.169453034177423">
        <ele>151.06</ele>
        <time>2025-05-17T10:10:45Z</time>
      </trkpt>
      <trkpt lat="43.88487302698195" lon="5.169412968680263">
        <ele>151.53999999999999</ele>
        <time>2025-05-17T10:10:46Z</time>
      </trkpt>
      <trkpt lat="43.884890964254737" lon="5.169486980885267">
        <ele>151.53999999999999</ele>
        <time>2025-05-17T10:10:47Z</time>
      </trkpt>
      <trkpt lat="43.884914014488459" lon="5.169584965333343">
        <ele>151.53999999999999</ele>
        <time>2025-05-17T10:10:48Z</time>
      </trkpt>
      <trkpt lat="43.88493899255991" lon="5.169693008065224">
        <ele>151.53999999999999</ele>
        <time>2025-05-17T10:10:49Z</time>
      </trkpt>
      <trkpt lat="43.885202016681433" lon="5.17084401100874">
        <ele>151.53999999999999</ele>
        <time>2025-05-17T10:10:58Z</time>
      </trkpt>
      <trkpt lat="43.885588003322482" lon="5.172459958121181">
        <ele>149.13999999999999</ele>
        <time>2025-05-17T10:11:08Z</time>
      </trkpt>
      <trkpt lat="43.885791013017297" lon="5.173322036862373">
        <ele>150.09999999999999</ele>
        <time>2025-05-17T10:11:13Z</time>
      </trkpt>
      <trkpt lat="43.886288981884718" lon="5.175114003941417">
        <ele>153.47</ele>
        <time>2025-05-17T10:11:24Z</time>
      </trkpt>
      <trkpt lat="43.886900022625923" lon="5.17694603651762">
        <ele>161.16</ele>
        <time>2025-05-17T10:11:36Z</time>
      </trkpt>
      <trkpt lat="43.887574011459947" lon="5.17890396527946">
        <ele>169.81</ele>
        <time>2025-05-17T10:11:49Z</time>
      </trkpt>
      <trkpt lat="43.888151021674275" lon="5.180593002587557">
        <ele>175.09999999999999</ele>
        <time>2025-05-17T10:12:00Z</time>
      </trkpt>
      <trkpt lat="43.888918971642852" lon="5.181732019409537">
        <ele>177.97999999999999</ele>
        <time>2025-05-17T10:12:07Z</time>
      </trkpt>
      <trkpt lat="43.889594972133636" lon="5.182586973533034">
        <ele>178.94</ele>
        <time>2025-05-17T10:12:12Z</time>
      </trkpt>
      <trkpt lat="43.890746980905533" lon="5.184979001060128">
        <ele>187.11000000000001</ele>
        <time>2025-05-17T10:12:23Z</time>
      </trkpt>
      <trkpt lat="43.891612999141216" lon="5.186448013409972">
        <ele>195.28</ele>
        <time>2025-05-17T10:12:31Z</time>
      </trkpt>
      <trkpt lat="43.892649002373219" lon="5.187595998868346">
        <ele>208.25999999999999</ele>
        <time>2025-05-17T10:12:40Z</time>
      </trkpt>
      <trkpt lat="43.893412007018924" lon="5.18829395994544">
        <ele>217.88</ele>
        <time>2025-05-17T10:12:45Z</time>
      </trkpt>
      <trkpt lat="43.894860986620188" lon="5.189185040071607">
        <ele>232.78</ele>
        <time>2025-05-17T10:12:53Z</time>
      </trkpt>
      <trkpt lat="43.896527979522943" lon="5.189996995031834">
        <ele>246.72</ele>
        <time>2025-05-17T10:13:02Z</time>
      </trkpt>
      <trkpt lat="43.897664984688163" lon="5.190232023596764">
        <ele>255.37</ele>
        <time>2025-05-17T10:13:08Z</time>
      </trkpt>
      <trkpt lat="43.897848967462778" lon="5.190324978902936">
        <ele>256.81</ele>
        <time>2025-05-17T10:13:09Z</time>
      </trkpt>
      <trkpt lat="43.898015012964606" lon="5.190436039119959">
        <ele>258.25</ele>
        <time>2025-05-17T10:13:10Z</time>
      </trkpt>
      <trkpt lat="43.8981310185045" lon="5.190578028559685">
        <ele>260.17000000000002</ele>
        <time>2025-05-17T10:13:11Z</time>
      </trkpt>
      <trkpt lat="43.898233026266098" lon="5.190738039091229">
        <ele>261.62</ele>
        <time>2025-05-17T10:13:12Z</time>
      </trkpt>
      <trkpt lat="43.898332016542554" lon="5.190944988280535">
        <ele>262.57999999999998</ele>
        <time>2025-05-17T10:13:13Z</time>
      </trkpt>
      <trkpt lat="43.898574002087116" lon="5.191347990185022">
        <ele>264.5</ele>
        <time>2025-05-17T10:13:15Z</time>
      </trkpt>
      <trkpt lat="43.898727977648377" lon="5.191517975181341">
        <ele>265.45999999999998</ele>
        <time>2025-05-17T10:13:16Z</time>
      </trkpt>
      <trkpt lat="43.899836987257004" lon="5.19237301312387">
        <ele>271.70999999999998</ele>
        <time>2025-05-17T10:13:23Z</time>
      </trkpt>
      <trkpt lat="43.900316013023257" lon="5.192692028358579">
        <ele>275.56</ele>
        <time>2025-05-17T10:13:26Z</time>
      </trkpt>
      <trkpt lat="43.90044903382659" lon="5.19284700974822">
        <ele>276.51999999999998</ele>
        <time>2025-05-17T10:13:27Z</time>
      </trkpt>
      <trkpt lat="43.90057903714478" lon="5.19299796782434">
        <ele>277.48000000000002</ele>
        <time>2025-05-17T10:13:28Z</time>
      </trkpt>
      <trkpt lat="43.900706022977829" lon="5.193143980577588">
        <ele>277.95999999999998</ele>
        <time>2025-05-17T10:13:29Z</time>
      </trkpt>
      <trkpt lat="43.900865027680993" lon="5.193195026367903">
        <ele>278.44</ele>
        <time>2025-05-17T10:13:30Z</time>
      </trkpt>
      <trkpt lat="43.901014979928732" lon="5.193242970854044">
        <ele>279.88</ele>
        <time>2025-05-17T10:13:31Z</time>
      </trkpt>
      <trkpt lat="43.901155963540077" lon="5.193288987502456">
        <ele>280.83999999999997</ele>
        <time>2025-05-17T10:13:32Z</time>
      </trkpt>
      <trkpt lat="43.901293007656932" lon="5.193332992494106">
        <ele>282.27999999999997</ele>
        <time>2025-05-17T10:13:33Z</time>
      </trkpt>
      <trkpt lat="43.901398032903671" lon="5.193456038832665">
        <ele>283.25</ele>
        <time>2025-05-17T10:13:34Z</time>
      </trkpt>
      <trkpt lat="43.901485037058592" lon="5.193567015230656">
        <ele>284.20999999999998</ele>
        <time>2025-05-17T10:13:35Z</time>
      </trkpt>
      <trkpt lat="43.901544967666268" lon="5.193678997457027">
        <ele>285.17000000000002</ele>
        <time>2025-05-17T10:13:36Z</time>
      </trkpt>
      <trkpt lat="43.901561982929707" lon="5.193796008825302">
        <ele>286.13</ele>
        <time>2025-05-17T10:13:37Z</time>
      </trkpt>
      <trkpt lat="43.901575980708003" lon="5.193890975788236">
        <ele>287.08999999999997</ele>
        <time>2025-05-17T10:13:38Z</time>
      </trkpt>
      <trkpt lat="43.901586038991809" lon="5.193962976336479">
        <ele>287.56999999999999</ele>
        <time>2025-05-17T10:13:39Z</time>
      </trkpt>
      <trkpt lat="43.901595007628202" lon="5.19402801990509">
        <ele>288.52999999999997</ele>
        <time>2025-05-17T10:13:40Z</time>
      </trkpt>
      <trkpt lat="43.901603976264596" lon="5.194087028503418">
        <ele>289.00999999999999</ele>
        <time>2025-05-17T10:13:41Z</time>
      </trkpt>
      <trkpt lat="43.901668014004827" lon="5.194193981587887">
        <ele>289.49000000000001</ele>
        <time>2025-05-17T10:13:42Z</time>
      </trkpt>
      <trkpt lat="43.901689974591136" lon="5.19419901072979">
        <ele>289.49000000000001</ele>
        <time>2025-05-17T10:13:43Z</time>
      </trkpt>
      <trkpt lat="43.901764992624521" lon="5.194218037649989">
        <ele>289.97000000000003</ele>
        <time>2025-05-17T10:13:44Z</time>
      </trkpt>
      <trkpt lat="43.901856020092964" lon="5.194238992407918">
        <ele>290.45999999999998</ele>
        <time>2025-05-17T10:13:45Z</time>
      </trkpt>
      <trkpt lat="43.902580970898271" lon="5.194430015981197">
        <ele>294.77999999999997</ele>
        <time>2025-05-17T10:13:51Z</time>
      </trkpt>
      <trkpt lat="43.902698988094926" lon="5.194491036236286">
        <ele>295.74000000000001</ele>
        <time>2025-05-17T10:13:52Z</time>
      </trkpt>
      <trkpt lat="43.902811976149678" lon="5.194576028734446">
        <ele>296.22000000000003</ele>
        <time>2025-05-17T10:13:53Z</time>
      </trkpt>
      <trkpt lat="43.902928987517953" lon="5.194665966555476">
        <ele>297.18000000000001</ele>
        <time>2025-05-17T10:13:54Z</time>
      </trkpt>
      <trkpt lat="43.903040969744325" lon="5.194751964882016">
        <ele>298.14999999999998</ele>
        <time>2025-05-17T10:13:55Z</time>
      </trkpt>
      <trkpt lat="43.903181031346321" lon="5.194779960438609">
        <ele>299.11000000000001</ele>
        <time>2025-05-17T10:13:56Z</time>
      </trkpt>
      <trkpt lat="43.903318997472525" lon="5.194796975702047">
        <ele>300.06999999999999</ele>
        <time>2025-05-17T10:13:57Z</time>
      </trkpt>
      <trkpt lat="43.903465010225773" lon="5.19480200484395">
        <ele>301.02999999999997</ele>
        <time>2025-05-17T10:13:58Z</time>
      </trkpt>
      <trkpt lat="43.903612028807402" lon="5.194807033985853">
        <ele>301.99000000000001</ele>
        <time>2025-05-17T10:13:59Z</time>
      </trkpt>
      <trkpt lat="43.904071021825075" lon="5.194792030379176">
        <ele>304.88</ele>
        <time>2025-05-17T10:14:02Z</time>
      </trkpt>
      <trkpt lat="43.904218040406704" lon="5.194760011509061">
        <ele>305.83999999999997</ele>
        <time>2025-05-17T10:14:03Z</time>
      </trkpt>
      <trkpt lat="43.904358018189669" lon="5.194711983203888">
        <ele>306.80000000000001</ele>
        <time>2025-05-17T10:14:04Z</time>
      </trkpt>
      <trkpt lat="43.904840983450413" lon="5.194597989320755">
        <ele>310.16000000000003</ele>
        <time>2025-05-17T10:14:08Z</time>
      </trkpt>
      <trkpt lat="43.904956988990307" lon="5.194617016240954">
        <ele>311.12</ele>
        <time>2025-05-17T10:14:09Z</time>
      </trkpt>
      <trkpt lat="43.905047010630369" lon="5.194720029830933">
        <ele>312.08999999999997</ele>
        <time>2025-05-17T10:14:10Z</time>
      </trkpt>
      <trkpt lat="43.905110964551568" lon="5.194837963208556">
        <ele>312.56999999999999</ele>
        <time>2025-05-17T10:14:11Z</time>
      </trkpt>
      <trkpt lat="43.905128985643387" lon="5.194955980405211">
        <ele>313.52999999999997</ele>
        <time>2025-05-17T10:14:12Z</time>
      </trkpt>
      <trkpt lat="43.905138960108161" lon="5.195099981501699">
        <ele>314.00999999999999</ele>
        <time>2025-05-17T10:14:13Z</time>
      </trkpt>
      <trkpt lat="43.905100990086794" lon="5.195248005911708">
        <ele>315.44999999999999</ele>
        <time>2025-05-17T10:14:14Z</time>
      </trkpt>
      <trkpt lat="43.90502898953855" lon="5.19536099396646">
        <ele>316.41000000000003</ele>
        <time>2025-05-17T10:14:15Z</time>
      </trkpt>
      <trkpt lat="43.90496201813221" lon="5.195464007556438">
        <ele>316.88999999999999</ele>
        <time>2025-05-17T10:14:16Z</time>
      </trkpt>
      <trkpt lat="43.904890017583966" lon="5.19557598978281">
        <ele>316.88999999999999</ele>
        <time>2025-05-17T10:14:17Z</time>
      </trkpt>
      <trkpt lat="43.904478969052434" lon="5.196340000256896">
        <ele>316.88999999999999</ele>
        <time>2025-05-17T10:14:23Z</time>
      </trkpt>
      <trkpt lat="43.904478969052434" lon="5.196457011625171">
        <ele>316.41000000000003</ele>
        <time>2025-05-17T10:14:24Z</time>
      </trkpt>
      <trkpt lat="43.904497995972633" lon="5.196599001064897">
        <ele>316.41000000000003</ele>
        <time>2025-05-17T10:14:25Z</time>
      </trkpt>
      <trkpt lat="43.904558010399342" lon="5.196725986897945">
        <ele>315.93000000000001</ele>
        <time>2025-05-17T10:14:26Z</time>
      </trkpt>
      <trkpt lat="43.904649037867785" lon="5.19682296551764">
        <ele>315.93000000000001</ele>
        <time>2025-05-17T10:14:27Z</time>
      </trkpt>
      <trkpt lat="43.904752973467112" lon="5.196879962459207">
        <ele>315.93000000000001</ele>
        <time>2025-05-17T10:14:28Z</time>
      </trkpt>
      <trkpt lat="43.905895007774234" lon="5.197412967681885">
        <ele>321.22000000000003</ele>
        <time>2025-05-17T10:14:39Z</time>
      </trkpt>
      <trkpt lat="43.906010007485747" lon="5.19740098156035">
        <ele>322.18000000000001</ele>
        <time>2025-05-17T10:14:40Z</time>
      </trkpt>
      <trkpt lat="43.906244030222297" lon="5.197376003488898">
        <ele>323.13999999999999</ele>
        <time>2025-05-17T10:14:42Z</time>
      </trkpt>
      <trkpt lat="43.90635802410543" lon="5.197353959083557">
        <ele>324.10000000000002</ele>
        <time>2025-05-17T10:14:43Z</time>
      </trkpt>
      <trkpt lat="43.907191017642617" lon="5.197140974923968">
        <ele>327.94999999999999</ele>
        <time>2025-05-17T10:14:50Z</time>
      </trkpt>
      <trkpt lat="43.907316997647285" lon="5.197157990187407">
        <ele>328.91000000000003</ele>
        <time>2025-05-17T10:14:51Z</time>
      </trkpt>
      <trkpt lat="43.907435014843941" lon="5.197216998785734">
        <ele>329.38999999999999</ele>
        <time>2025-05-17T10:14:52Z</time>
      </trkpt>
      <trkpt lat="43.907552026212215" lon="5.197280030697584">
        <ele>329.87</ele>
        <time>2025-05-17T10:14:53Z</time>
      </trkpt>
      <trkpt lat="43.907660990953445" lon="5.197351025417447">
        <ele>330.35000000000002</ele>
        <time>2025-05-17T10:14:54Z</time>
      </trkpt>
      <trkpt lat="43.907769033685327" lon="5.19742202013731">
        <ele>331.31</ele>
        <time>2025-05-17T10:14:55Z</time>
      </trkpt>
      <trkpt lat="43.908262979239225" lon="5.197692001238465">
        <ele>335.16000000000003</ele>
        <time>2025-05-17T10:15:00Z</time>
      </trkpt>
      <trkpt lat="43.908343026414514" lon="5.197692001238465">
        <ele>336.12</ele>
        <time>2025-05-17T10:15:01Z</time>
      </trkpt>
      <trkpt lat="43.908419972285628" lon="5.197692001238465">
        <ele>336.60000000000002</ele>
        <time>2025-05-17T10:15:02Z</time>
      </trkpt>
      <trkpt lat="43.908774023875594" lon="5.197643972933292">
        <ele>340.44</ele>
        <time>2025-05-17T10:15:07Z</time>
      </trkpt>
      <trkpt lat="43.908844012767076" lon="5.197622012346983">
        <ele>340.92000000000002</ele>
        <time>2025-05-17T10:15:08Z</time>
      </trkpt>
      <trkpt lat="43.908912995830178" lon="5.197599967941642">
        <ele>341.41000000000003</ele>
        <time>2025-05-17T10:15:09Z</time>
      </trkpt>
      <trkpt lat="43.908977033570409" lon="5.197579013183713">
        <ele>341.88999999999999</ele>
        <time>2025-05-17T10:15:10Z</time>
      </trkpt>
      <trkpt lat="43.909035958349705" lon="5.197558980435133">
        <ele>342.37</ele>
        <time>2025-05-17T10:15:11Z</time>
      </trkpt>
      <trkpt lat="43.909085998311639" lon="5.197531990706921">
        <ele>342.37</ele>
        <time>2025-05-17T10:15:12Z</time>
      </trkpt>
      <trkpt lat="43.90913100913167" lon="5.197509024292231">
        <ele>342.85000000000002</ele>
        <time>2025-05-17T10:15:13Z</time>
      </trkpt>
      <trkpt lat="43.909167973324656" lon="5.197488991543651">
        <ele>343.32999999999998</ele>
        <time>2025-05-17T10:15:14Z</time>
      </trkpt>
      <trkpt lat="43.909190017729998" lon="5.197478011250496">
        <ele>343.32999999999998</ele>
        <time>2025-05-17T10:15:15Z</time>
      </trkpt>
      <trkpt lat="43.909190017729998" lon="5.197478011250496">
        <ele>342.85000000000002</ele>
        <time>2025-05-17T10:15:27Z</time>
      </trkpt>
      <trkpt lat="43.909190017729998" lon="5.197478011250496">
        <ele>343.32999999999998</ele>
        <time>2025-05-17T10:16:12Z</time>
      </trkpt>
      <trkpt lat="43.909190017729998" lon="5.197478011250496">
        <ele>343.32999999999998</ele>
        <time>2025-05-17T10:17:06Z</time>
      </trkpt>
      <trkpt lat="43.909169984981418" lon="5.197394024580717">
        <ele>335.63999999999999</ele>
        <time>2025-05-17T10:18:16Z</time>
      </trkpt>
      <trkpt lat="43.909099996089935" lon="5.197408022359014">
        <ele>334.68000000000001</ele>
        <time>2025-05-17T10:18:28Z</time>
      </trkpt>
      <trkpt lat="43.909130003303289" lon="5.197446998208761">
        <ele>336.12</ele>
        <time>2025-05-17T10:18:34Z</time>
      </trkpt>
      <trkpt lat="43.909175014123321" lon="5.197485974058509">
        <ele>336.60000000000002</ele>
        <time>2025-05-17T10:18:36Z</time>
      </trkpt>
      <trkpt lat="43.909214995801449" lon="5.197464013472199">
        <ele>336.60000000000002</ele>
        <time>2025-05-17T10:18:37Z</time>
      </trkpt>
      <trkpt lat="43.909360002726316" lon="5.197386983782053">
        <ele>336.60000000000002</ele>
        <time>2025-05-17T10:18:39Z</time>
      </trkpt>
      <trkpt lat="43.909447006881237" lon="5.19735798239708">
        <ele>337.07999999999998</ele>
        <time>2025-05-17T10:18:40Z</time>
      </trkpt>
      <trkpt lat="43.910215962678194" lon="5.197165030986071">
        <ele>340.92000000000002</ele>
        <time>2025-05-17T10:18:48Z</time>
      </trkpt>
      <trkpt lat="43.910311013460159" lon="5.19712002016604">
        <ele>340.92000000000002</ele>
        <time>2025-05-17T10:18:49Z</time>
      </trkpt>
      <trkpt lat="43.91145003028214" lon="5.19660503603518">
        <ele>347.64999999999998</ele>
        <time>2025-05-17T10:19:00Z</time>
      </trkpt>
      <trkpt lat="43.911888990551233" lon="5.196490036323667">
        <ele>350.54000000000002</ele>
        <time>2025-05-17T10:19:04Z</time>
      </trkpt>
      <trkpt lat="43.911998039111495" lon="5.196490036323667">
        <ele>351.5</ele>
        <time>2025-05-17T10:19:05Z</time>
      </trkpt>
      <trkpt lat="43.912391988560557" lon="5.196515014395118">
        <ele>354.38</ele>
        <time>2025-05-17T10:19:09Z</time>
      </trkpt>
      <trkpt lat="43.912495002150536" lon="5.19654099829495">
        <ele>354.86000000000001</ele>
        <time>2025-05-17T10:19:10Z</time>
      </trkpt>
      <trkpt lat="43.913339981809258" lon="5.196748031303287">
        <ele>356.79000000000002</ele>
        <time>2025-05-17T10:19:18Z</time>
      </trkpt>
      <trkpt lat="43.913434026762843" lon="5.196796981617808">
        <ele>356.79000000000002</ele>
        <time>2025-05-17T10:19:19Z</time>
      </trkpt>
      <trkpt lat="43.913526982069016" lon="5.196846015751362">
        <ele>356.79000000000002</ele>
        <time>2025-05-17T10:19:20Z</time>
      </trkpt>
      <trkpt lat="43.913619015365839" lon="5.196894966065884">
        <ele>357.26999999999998</ele>
        <time>2025-05-17T10:19:21Z</time>
      </trkpt>
      <trkpt lat="43.91370601952076" lon="5.196940982714295">
        <ele>357.26999999999998</ele>
        <time>2025-05-17T10:19:22Z</time>
      </trkpt>
      <trkpt lat="43.913763016462326" lon="5.197006026282907">
        <ele>357.26999999999998</ele>
        <time>2025-05-17T10:19:23Z</time>
      </trkpt>
      <trkpt lat="43.913819007575512" lon="5.197069980204105">
        <ele>357.26999999999998</ele>
        <time>2025-05-17T10:19:24Z</time>
      </trkpt>
      <trkpt lat="43.913855971768498" lon="5.197112979367375">
        <ele>357.26999999999998</ele>
        <time>2025-05-17T10:19:25Z</time>
      </trkpt>
      <trkpt lat="43.913849014788866" lon="5.197180034592748">
        <ele>356.79000000000002</ele>
        <time>2025-05-17T10:19:26Z</time>
      </trkpt>
      <trkpt lat="43.913840968161821" lon="5.197263015434146">
        <ele>356.31</ele>
        <time>2025-05-17T10:19:27Z</time>
      </trkpt>
      <trkpt lat="43.913824958726764" lon="5.197340967133641">
        <ele>355.82999999999998</ele>
        <time>2025-05-17T10:19:28Z</time>
      </trkpt>
      <trkpt lat="43.913775002583861" lon="5.197411039844155">
        <ele>355.33999999999997</ele>
        <time>2025-05-17T10:19:29Z</time>
      </trkpt>
      <trkpt lat="43.913701996207237" lon="5.197488991543651">
        <ele>354.86000000000001</ele>
        <time>2025-05-17T10:19:30Z</time>
      </trkpt>
      <trkpt lat="43.913619015365839" lon="5.197526039555669">
        <ele>353.89999999999998</ele>
        <time>2025-05-17T10:19:31Z</time>
      </trkpt>
      <trkpt lat="43.913527987897396" lon="5.197567027062178">
        <ele>352.94</ele>
        <time>2025-05-17T10:19:32Z</time>
      </trkpt>
      <trkpt lat="43.912714021280408" lon="5.197841031476855">
        <ele>348.13</ele>
        <time>2025-05-17T10:19:40Z</time>
      </trkpt>
      <trkpt lat="43.912360975518823" lon="5.197966005653143">
        <ele>345.73000000000002</ele>
        <time>2025-05-17T10:19:44Z</time>
      </trkpt>
      <trkpt lat="43.912201970815659" lon="5.198072036728263">
        <ele>344.76999999999998</ele>
        <time>2025-05-17T10:19:46Z</time>
      </trkpt>
      <trkpt lat="43.912131981924176" lon="5.198134984821081">
        <ele>344.29000000000002</ele>
        <time>2025-05-17T10:19:47Z</time>
      </trkpt>
      <trkpt lat="43.91207498498261" lon="5.198205979540944">
        <ele>344.29000000000002</ele>
        <time>2025-05-17T10:19:48Z</time>
      </trkpt>
      <trkpt lat="43.911796035245061" lon="5.198549972847104">
        <ele>342.85000000000002</ele>
        <time>2025-05-17T10:19:52Z</time>
      </trkpt>
      <trkpt lat="43.9117940235883" lon="5.198552990332246">
        <ele>342.85000000000002</ele>
        <time>2025-05-17T10:19:53Z</time>
      </trkpt>
      <trkpt lat="43.911750018596649" lon="5.198623985052109">
        <ele>342.37</ele>
        <time>2025-05-17T10:19:54Z</time>
      </trkpt>
      <trkpt lat="43.911710036918521" lon="5.198688022792339">
        <ele>342.37</ele>
        <time>2025-05-17T10:19:55Z</time>
      </trkpt>
      <trkpt lat="43.911679023876786" lon="5.198737978935242">
        <ele>341.88999999999999</ele>
        <time>2025-05-17T10:19:56Z</time>
      </trkpt>
      <trkpt lat="43.911657985299826" lon="5.198771003633738">
        <ele>341.88999999999999</ele>
        <time>2025-05-17T10:19:57Z</time>
      </trkpt>
      <trkpt lat="43.911612974479795" lon="5.198844010010362">
        <ele>340.92000000000002</ele>
        <time>2025-05-17T10:20:05Z</time>
      </trkpt>
      <trkpt lat="43.91158196143806" lon="5.198893966153264">
        <ele>340.92000000000002</ele>
        <time>2025-05-17T10:20:06Z</time>
      </trkpt>
      <trkpt lat="43.911553965881467" lon="5.198965966701508">
        <ele>340.92000000000002</ele>
        <time>2025-05-17T10:20:07Z</time>
      </trkpt>
      <trkpt lat="43.911396972835064" lon="5.199375003576279">
        <ele>339.95999999999998</ele>
        <time>2025-05-17T10:20:12Z</time>
      </trkpt>
      <trkpt lat="43.911371994763613" lon="5.199439963325858">
        <ele>339.48000000000002</ele>
        <time>2025-05-17T10:20:13Z</time>
      </trkpt>
      <trkpt lat="43.91132396645844" lon="5.199558986350894">
        <ele>339</ele>
        <time>2025-05-17T10:20:15Z</time>
      </trkpt>
      <trkpt lat="43.911263030022383" lon="5.199625035747886">
        <ele>338.51999999999998</ele>
        <time>2025-05-17T10:20:16Z</time>
      </trkpt>
      <trkpt lat="43.91128096729517" lon="5.199752021580935">
        <ele>338.51999999999998</ele>
        <time>2025-05-17T10:20:17Z</time>
      </trkpt>
      <trkpt lat="43.91128096729517" lon="5.199778005480766">
        <ele>338.51999999999998</ele>
        <time>2025-05-17T10:20:18Z</time>
      </trkpt>
      <trkpt lat="43.91128096729517" lon="5.199858974665403">
        <ele>338.51999999999998</ele>
        <time>2025-05-17T10:20:19Z</time>
      </trkpt>
      <trkpt lat="43.91128096729517" lon="5.199938016012311">
        <ele>338.51999999999998</ele>
        <time>2025-05-17T10:20:20Z</time>
      </trkpt>
      <trkpt lat="43.911306029185653" lon="5.200198022648692">
        <ele>339.48000000000002</ele>
        <time>2025-05-17T10:20:24Z</time>
      </trkpt>
      <trkpt lat="43.91140996478498" lon="5.200609993189573">
        <ele>341.88999999999999</ele>
        <time>2025-05-17T10:20:35Z</time>
      </trkpt>
      <trkpt lat="43.911480037495494" lon="5.2006880287081">
        <ele>341.41000000000003</ele>
        <time>2025-05-17T10:20:38Z</time>
      </trkpt>
      <trkpt lat="43.911492023617029" lon="5.200702026486397">
        <ele>341.41000000000003</ele>
        <time>2025-05-17T10:20:39Z</time>
      </trkpt>
      <trkpt lat="43.911406025290489" lon="5.200657015666366">
        <ele>341.88999999999999</ele>
        <time>2025-05-17T10:20:40Z</time>
      </trkpt>
      <trkpt lat="43.91140803694725" lon="5.200634971261025">
        <ele>341.41000000000003</ele>
        <time>2025-05-17T10:20:42Z</time>
      </trkpt>
      <trkpt lat="43.911455981433392" lon="5.200661960989237">
        <ele>340.92000000000002</ele>
        <time>2025-05-17T10:20:43Z</time>
      </trkpt>
      <trkpt lat="43.911425974220037" lon="5.200628014281392">
        <ele>340.44</ele>
        <time>2025-05-17T10:20:44Z</time>
      </trkpt>
      <trkpt lat="43.911397978663445" lon="5.200572023168206">
        <ele>339.95999999999998</ele>
        <time>2025-05-17T10:20:45Z</time>
      </trkpt>
      <trkpt lat="43.911384986713529" lon="5.200529024004936">
        <ele>339.95999999999998</ele>
        <time>2025-05-17T10:20:46Z</time>
      </trkpt>
      <trkpt lat="43.911375012248755" lon="5.200497005134821">
        <ele>339.48000000000002</ele>
        <time>2025-05-17T10:20:47Z</time>
      </trkpt>
      <trkpt lat="43.91136696562171" lon="5.200469009578228">
        <ele>339</ele>
        <time>2025-05-17T10:20:48Z</time>
      </trkpt>
      <trkpt lat="43.911360008642077" lon="5.200447971001267">
        <ele>338.04000000000002</ele>
        <time>2025-05-17T10:20:49Z</time>
      </trkpt>
      <trkpt lat="43.911360008642077" lon="5.200447971001267">
        <ele>338.51999999999998</ele>
        <time>2025-05-17T10:20:59Z</time>
      </trkpt>
      <trkpt lat="43.911309968680143" lon="5.200399020686746">
        <ele>339</ele>
        <time>2025-05-17T10:21:01Z</time>
      </trkpt>
      <trkpt lat="43.911305023357272" lon="5.200426010414958">
        <ele>338.51999999999998</ele>
        <time>2025-05-17T10:21:02Z</time>
      </trkpt>
      <trkpt lat="43.911295970901847" lon="5.200470015406609">
        <ele>338.51999999999998</ele>
        <time>2025-05-17T10:21:03Z</time>
      </trkpt>
      <trkpt lat="43.911284990608692" lon="5.200523994863033">
        <ele>338.04000000000002</ele>
        <time>2025-05-17T10:21:04Z</time>
      </trkpt>
      <trkpt lat="43.911274010315537" lon="5.200583003461361">
        <ele>338.04000000000002</ele>
        <time>2025-05-17T10:21:05Z</time>
      </trkpt>
      <trkpt lat="43.911264035850763" lon="5.200641006231308">
        <ele>338.04000000000002</ele>
        <time>2025-05-17T10:21:06Z</time>
      </trkpt>
      <trkpt lat="43.911252971738577" lon="5.200700014829636">
        <ele>337.56</ele>
        <time>2025-05-17T10:21:07Z</time>
      </trkpt>
      <trkpt lat="43.9112379681319" lon="5.200781989842653">
        <ele>337.07999999999998</ele>
        <time>2025-05-17T10:21:10Z</time>
      </trkpt>
      <trkpt lat="43.9112379681319" lon="5.200781989842653">
        <ele>337.07999999999998</ele>
        <time>2025-05-17T10:21:11Z</time>
      </trkpt>
      <trkpt lat="43.911207960918546" lon="5.200922973453999">
        <ele>337.07999999999998</ele>
        <time>2025-05-17T10:21:12Z</time>
      </trkpt>
      <trkpt lat="43.911228999495506" lon="5.20094501785934">
        <ele>337.07999999999998</ele>
        <time>2025-05-17T10:21:13Z</time>
      </trkpt>
      <trkpt lat="43.911265041679144" lon="5.200980976223946">
        <ele>337.07999999999998</ele>
        <time>2025-05-17T10:21:14Z</time>
      </trkpt>
      <trkpt lat="43.911312986165285" lon="5.201027998700738">
        <ele>337.07999999999998</ele>
        <time>2025-05-17T10:21:15Z</time>
      </trkpt>
      <trkpt lat="43.911825958639383" lon="5.201455978676677">
        <ele>337.07999999999998</ele>
        <time>2025-05-17T10:21:22Z</time>
      </trkpt>
      <trkpt lat="43.913010992109776" lon="5.202392991632223">
        <ele>327.47000000000003</ele>
        <time>2025-05-17T10:21:34Z</time>
      </trkpt>
      <trkpt lat="43.913849014788866" lon="5.203163959085941">
        <ele>318.81</ele>
        <time>2025-05-17T10:21:43Z</time>
      </trkpt>
      <trkpt lat="43.91392101533711" lon="5.203280970454216">
        <ele>317.85000000000002</ele>
        <time>2025-05-17T10:21:44Z</time>
      </trkpt>
      <trkpt lat="43.91396502032876" lon="5.203408962115645">
        <ele>316.88999999999999</ele>
        <time>2025-05-17T10:21:45Z</time>
      </trkpt>
      <trkpt lat="43.914001984521747" lon="5.203561009839177">
        <ele>315.93000000000001</ele>
        <time>2025-05-17T10:21:46Z</time>
      </trkpt>
      <trkpt lat="43.914040960371494" lon="5.203723032027483">
        <ele>314.97000000000003</ele>
        <time>2025-05-17T10:21:47Z</time>
      </trkpt>
      <trkpt lat="43.914231983944774" lon="5.204513026401401">
        <ele>312.08999999999997</ele>
        <time>2025-05-17T10:21:52Z</time>
      </trkpt>
      <trkpt lat="43.914264002814889" lon="5.204665996134281">
        <ele>310.63999999999999</ele>
        <time>2025-05-17T10:21:53Z</time>
      </trkpt>
      <trkpt lat="43.914264002814889" lon="5.204826006665826">
        <ele>309.68000000000001</ele>
        <time>2025-05-17T10:21:54Z</time>
      </trkpt>
      <trkpt lat="43.914262996986508" lon="5.204969001933932">
        <ele>308.72000000000003</ele>
        <time>2025-05-17T10:21:55Z</time>
      </trkpt>
      <trkpt lat="43.914241958409548" lon="5.205101016908884">
        <ele>308.24000000000001</ele>
        <time>2025-05-17T10:21:56Z</time>
      </trkpt>
      <trkpt lat="43.91422301530838" lon="5.205223979428411">
        <ele>307.27999999999997</ele>
        <time>2025-05-17T10:21:57Z</time>
      </trkpt>
      <trkpt lat="43.914113966748118" lon="5.206110030412674">
        <ele>300.55000000000001</ele>
        <time>2025-05-17T10:22:07Z</time>
      </trkpt>
      <trkpt lat="43.914100974798203" lon="5.206931037828326">
        <ele>297.18000000000001</ele>
        <time>2025-05-17T10:22:15Z</time>
      </trkpt>
      <trkpt lat="43.914130982011557" lon="5.208242973312736">
        <ele>291.42000000000002</ele>
        <time>2025-05-17T10:22:24Z</time>
      </trkpt>
      <trkpt lat="43.914151014760137" lon="5.208398038521409">
        <ele>290.94</ele>
        <time>2025-05-17T10:22:25Z</time>
      </trkpt>
      <trkpt lat="43.914399035274982" lon="5.209351982921362">
        <ele>287.56999999999999</ele>
        <time>2025-05-17T10:22:31Z</time>
      </trkpt>
      <trkpt lat="43.914445973932743" lon="5.209510987624526">
        <ele>286.61000000000001</ele>
        <time>2025-05-17T10:22:32Z</time>
      </trkpt>
      <trkpt lat="43.914525015279651" lon="5.209635039791465">
        <ele>285.64999999999998</ele>
        <time>2025-05-17T10:22:33Z</time>
      </trkpt>
      <trkpt lat="43.914603972807527" lon="5.209761019796133">
        <ele>284.69</ele>
        <time>2025-05-17T10:22:34Z</time>
      </trkpt>
      <trkpt lat="43.914679996669292" lon="5.209880964830518">
        <ele>284.20999999999998</ele>
        <time>2025-05-17T10:22:35Z</time>
      </trkpt>
      <trkpt lat="43.914774041622877" lon="5.209976015612483">
        <ele>283.25</ele>
        <time>2025-05-17T10:22:36Z</time>
      </trkpt>
      <trkpt lat="43.914865991100669" lon="5.210061008110642">
        <ele>282.76999999999998</ele>
        <time>2025-05-17T10:22:37Z</time>
      </trkpt>
      <trkpt lat="43.914956012740731" lon="5.210144994780421">
        <ele>282.27999999999997</ele>
        <time>2025-05-17T10:22:38Z</time>
      </trkpt>
      <trkpt lat="43.915059026330709" lon="5.210191011428833">
        <ele>281.80000000000001</ele>
        <time>2025-05-17T10:22:39Z</time>
      </trkpt>
      <trkpt lat="43.915166985243559" lon="5.210229987278581">
        <ele>281.31999999999999</ele>
        <time>2025-05-17T10:22:40Z</time>
      </trkpt>
      <trkpt lat="43.915278967469931" lon="5.210269968956709">
        <ele>281.31999999999999</ele>
        <time>2025-05-17T10:22:41Z</time>
      </trkpt>
      <trkpt lat="43.915389021858573" lon="5.210310034453869">
        <ele>280.36000000000001</ele>
        <time>2025-05-17T10:22:42Z</time>
      </trkpt>
      <trkpt lat="43.915495974943042" lon="5.210350016131997">
        <ele>279.88</ele>
        <time>2025-05-17T10:22:43Z</time>
      </trkpt>
      <trkpt lat="43.915604017674923" lon="5.210388991981745">
        <ele>279.39999999999998</ele>
        <time>2025-05-17T10:22:44Z</time>
      </trkpt>
      <trkpt lat="43.915680041536689" lon="5.210415981709957">
        <ele>278.44</ele>
        <time>2025-05-17T10:22:45Z</time>
      </trkpt>
      <trkpt lat="43.915746007114649" lon="5.210547996684909">
        <ele>277.95999999999998</ele>
        <time>2025-05-17T10:22:46Z</time>
      </trkpt>
      <trkpt lat="43.915766039863229" lon="5.210631983354688">
        <ele>277</ele>
        <time>2025-05-17T10:22:47Z</time>
      </trkpt>
      <trkpt lat="43.915761010721326" lon="5.210727034136653">
        <ele>276.51999999999998</ele>
        <time>2025-05-17T10:22:48Z</time>
      </trkpt>
      <trkpt lat="43.915720023214817" lon="5.210819989442825">
        <ele>275.56</ele>
        <time>2025-05-17T10:22:49Z</time>
      </trkpt>
      <trkpt lat="43.915625978261232" lon="5.210912022739649">
        <ele>274.11000000000001</ele>
        <time>2025-05-17T10:22:50Z</time>
      </trkpt>
      <trkpt lat="43.915515001863241" lon="5.21091696806252">
        <ele>272.67000000000002</ele>
        <time>2025-05-17T10:22:51Z</time>
      </trkpt>
      <trkpt lat="43.915389021858573" lon="5.210921997204423">
        <ele>271.70999999999998</ele>
        <time>2025-05-17T10:22:52Z</time>
      </trkpt>
      <trkpt lat="43.915247032418847" lon="5.210929038003087">
        <ele>269.79000000000002</ele>
        <time>2025-05-17T10:22:53Z</time>
      </trkpt>
      <trkpt lat="43.915099008008838" lon="5.210958039388061">
        <ele>268.35000000000002</ele>
        <time>2025-05-17T10:22:54Z</time>
      </trkpt>
      <trkpt lat="43.914453014731407" lon="5.211159959435463">
        <ele>261.62</ele>
        <time>2025-05-17T10:22:58Z</time>
      </trkpt>
      <trkpt lat="43.913812972605228" lon="5.211361041292548">
        <ele>256.32999999999998</ele>
        <time>2025-05-17T10:23:02Z</time>
      </trkpt>
      <trkpt lat="43.913655979558825" lon="5.21134402602911">
        <ele>254.88999999999999</ele>
        <time>2025-05-17T10:23:03Z</time>
      </trkpt>
      <trkpt lat="43.913533017039299" lon="5.211331034079194">
        <ele>254.41</ele>
        <time>2025-05-17T10:23:04Z</time>
      </trkpt>
      <trkpt lat="43.913434026762843" lon="5.211320975795388">
        <ele>253.44</ele>
        <time>2025-05-17T10:23:05Z</time>
      </trkpt>
      <trkpt lat="43.91336303204298" lon="5.211385013535619">
        <ele>252.47999999999999</ele>
        <time>2025-05-17T10:23:06Z</time>
      </trkpt>
      <trkpt lat="43.913307962939143" lon="5.211474029347301">
        <ele>251.52000000000001</ele>
        <time>2025-05-17T10:23:07Z</time>
      </trkpt>
      <trkpt lat="43.913304023444653" lon="5.211563967168331">
        <ele>250.56</ele>
        <time>2025-05-17T10:23:08Z</time>
      </trkpt>
      <trkpt lat="43.913313997909427" lon="5.211677961051464">
        <ele>249.59999999999999</ele>
        <time>2025-05-17T10:23:09Z</time>
      </trkpt>
      <trkpt lat="43.913345010951161" lon="5.211764965206385">
        <ele>249.12</ele>
        <time>2025-05-17T10:23:10Z</time>
      </trkpt>
      <trkpt lat="43.913422962650657" lon="5.211820034310222">
        <ele>248.16</ele>
        <time>2025-05-17T10:23:11Z</time>
      </trkpt>
      <trkpt lat="43.913516001775861" lon="5.211885999888182">
        <ele>247.68000000000001</ele>
        <time>2025-05-17T10:23:12Z</time>
      </trkpt>
      <trkpt lat="43.913730997592211" lon="5.212037963792682">
        <ele>246.72</ele>
        <time>2025-05-17T10:23:14Z</time>
      </trkpt>
      <trkpt lat="43.913852032274008" lon="5.212129997089505">
        <ele>246.22999999999999</ele>
        <time>2025-05-17T10:23:15Z</time>
      </trkpt>
      <trkpt lat="43.914526021108031" lon="5.212877998128533">
        <ele>241.91</ele>
        <time>2025-05-17T10:23:21Z</time>
      </trkpt>
      <trkpt lat="43.914596009999514" lon="5.212995009496808">
        <ele>240.94999999999999</ele>
        <time>2025-05-17T10:23:22Z</time>
      </trkpt>
      <trkpt lat="43.914599027484655" lon="5.21310799755156">
        <ele>239.99000000000001</ele>
        <time>2025-05-17T10:23:23Z</time>
      </trkpt>
      <trkpt lat="43.914586035534739" lon="5.213270019739866">
        <ele>239.02000000000001</ele>
        <time>2025-05-17T10:23:24Z</time>
      </trkpt>
      <trkpt lat="43.914535995572805" lon="5.213406980037689">
        <ele>238.06</ele>
        <time>2025-05-17T10:23:25Z</time>
      </trkpt>
      <trkpt lat="43.914471035823226" lon="5.213586017489433">
        <ele>237.09999999999999</ele>
        <time>2025-05-17T10:23:26Z</time>
      </trkpt>
      <trkpt lat="43.9137920178473" lon="5.215347977355123">
        <ele>227.49000000000001</ele>
        <time>2025-05-17T10:23:35Z</time>
      </trkpt>
      <trkpt lat="43.913735020905733" lon="5.215515028685331">
        <ele>227.00999999999999</ele>
        <time>2025-05-17T10:23:36Z</time>
      </trkpt>
      <trkpt lat="43.913693027570844" lon="5.21568400785327">
        <ele>226.05000000000001</ele>
        <time>2025-05-17T10:23:37Z</time>
      </trkpt>
      <trkpt lat="43.913687998428941" lon="5.215864973142743">
        <ele>225.09</ele>
        <time>2025-05-17T10:23:38Z</time>
      </trkpt>
      <trkpt lat="43.913692021742463" lon="5.216052979230881">
        <ele>224.12</ele>
        <time>2025-05-17T10:23:39Z</time>
      </trkpt>
      <trkpt lat="43.913696967065334" lon="5.216255988925695">
        <ele>223.16</ele>
        <time>2025-05-17T10:23:40Z</time>
      </trkpt>
      <trkpt lat="43.913743989542127" lon="5.218311985954642">
        <ele>214.50999999999999</ele>
        <time>2025-05-17T10:23:49Z</time>
      </trkpt>
      <trkpt lat="43.913740972056985" lon="5.218539973720908">
        <ele>213.55000000000001</ele>
        <time>2025-05-17T10:23:50Z</time>
      </trkpt>
      <trkpt lat="43.913687998428941" lon="5.218759998679161">
        <ele>212.59</ele>
        <time>2025-05-17T10:23:51Z</time>
      </trkpt>
      <trkpt lat="43.913635024800897" lon="5.218980023637414">
        <ele>211.63</ele>
        <time>2025-05-17T10:23:52Z</time>
      </trkpt>
      <trkpt lat="43.913541985675693" lon="5.219173980876803">
        <ele>210.19</ele>
        <time>2025-05-17T10:23:53Z</time>
      </trkpt>
      <trkpt lat="43.913438972085714" lon="5.219347989186645">
        <ele>209.22</ele>
        <time>2025-05-17T10:23:54Z</time>
      </trkpt>
      <trkpt lat="43.913327995687723" lon="5.219528032466769">
        <ele>208.25999999999999</ele>
        <time>2025-05-17T10:23:55Z</time>
      </trkpt>
      <trkpt lat="43.913183994591236" lon="5.219684019684792">
        <ele>207.30000000000001</ele>
        <time>2025-05-17T10:23:56Z</time>
      </trkpt>
      <trkpt lat="43.91304200515151" lon="5.219837995246053">
        <ele>205.86000000000001</ele>
        <time>2025-05-17T10:23:57Z</time>
      </trkpt>
      <trkpt lat="43.912915019318461" lon="5.219975039362907">
        <ele>204.90000000000001</ele>
        <time>2025-05-17T10:23:58Z</time>
      </trkpt>
      <trkpt lat="43.912786021828651" lon="5.220115017145872">
        <ele>203.46000000000001</ele>
        <time>2025-05-17T10:23:59Z</time>
      </trkpt>
      <trkpt lat="43.912651995196939" lon="5.22026002407074">
        <ele>202.49000000000001</ele>
        <time>2025-05-17T10:24:00Z</time>
      </trkpt>
      <trkpt lat="43.911377023905516" lon="5.221672039479017">
        <ele>193.84</ele>
        <time>2025-05-17T10:24:10Z</time>
      </trkpt>
      <trkpt lat="43.910876037552953" lon="5.22221895866096">
        <ele>190.96000000000001</ele>
        <time>2025-05-17T10:24:15Z</time>
      </trkpt>
      <trkpt lat="43.910437999293208" lon="5.222692033275962">
        <ele>190</ele>
        <time>2025-05-17T10:24:20Z</time>
      </trkpt>
      <trkpt lat="43.910359963774681" lon="5.222765039652586">
        <ele>190</ele>
        <time>2025-05-17T10:24:21Z</time>
      </trkpt>
      <trkpt lat="43.910287963226438" lon="5.222804015502334">
        <ele>190</ele>
        <time>2025-05-17T10:24:22Z</time>
      </trkpt>
      <trkpt lat="43.910172963514924" lon="5.222866963595152">
        <ele>189.03999999999999</ele>
        <time>2025-05-17T10:24:28Z</time>
      </trkpt>
      <trkpt lat="43.91014102846384" lon="5.222852965816855">
        <ele>189.03999999999999</ele>
        <time>2025-05-17T10:24:29Z</time>
      </trkpt>
      <trkpt lat="43.910145973786712" lon="5.222909040749073">
        <ele>189.52000000000001</ele>
        <time>2025-05-17T10:24:30Z</time>
      </trkpt>
      <trkpt lat="43.910168018192053" lon="5.223152032122016">
        <ele>189.52000000000001</ele>
        <time>2025-05-17T10:24:32Z</time>
      </trkpt>
      <trkpt lat="43.910275977104902" lon="5.224358020350337">
        <ele>189.03999999999999</ele>
        <time>2025-05-17T10:24:38Z</time>
      </trkpt>
      <trkpt lat="43.910417966544628" lon="5.226602023467422">
        <ele>189.52000000000001</ele>
        <time>2025-05-17T10:24:47Z</time>
      </trkpt>
      <trkpt lat="43.910385025665164" lon="5.228687021881342">
        <ele>190</ele>
        <time>2025-05-17T10:24:56Z</time>
      </trkpt>
      <trkpt lat="43.910416038706899" lon="5.228916015475988">
        <ele>190</ele>
        <time>2025-05-17T10:24:57Z</time>
      </trkpt>
      <trkpt lat="43.910701023414731" lon="5.230357032269239">
        <ele>191.44</ele>
        <time>2025-05-17T10:25:04Z</time>
      </trkpt>
      <trkpt lat="43.910717032849789" lon="5.230568004772067">
        <ele>190.96000000000001</ele>
        <time>2025-05-17T10:25:05Z</time>
      </trkpt>
      <trkpt lat="43.910648971796036" lon="5.231616999953985">
        <ele>189.03999999999999</ele>
        <time>2025-05-17T10:25:11Z</time>
      </trkpt>
      <trkpt lat="43.91061301343143" lon="5.232162997126579">
        <ele>188.56</ele>
        <time>2025-05-17T10:25:16Z</time>
      </trkpt>
      <trkpt lat="43.910594992339611" lon="5.232478994876146">
        <ele>188.56</ele>
        <time>2025-05-17T10:25:18Z</time>
      </trkpt>
      <trkpt lat="43.910556016489863" lon="5.233348030596972">
        <ele>189.03999999999999</ele>
        <time>2025-05-17T10:25:22Z</time>
      </trkpt>
      <trkpt lat="43.910566996783018" lon="5.233569983392954">
        <ele>189.03999999999999</ele>
        <time>2025-05-17T10:25:23Z</time>
      </trkpt>
      <trkpt lat="43.910619970411062" lon="5.233799982815981">
        <ele>189.52000000000001</ele>
        <time>2025-05-17T10:25:24Z</time>
      </trkpt>
      <trkpt lat="43.910713009536266" lon="5.234005004167557">
        <ele>189.52000000000001</ele>
        <time>2025-05-17T10:25:25Z</time>
      </trkpt>
      <trkpt lat="43.9108079764992" lon="5.234212037175894">
        <ele>189.52000000000001</ele>
        <time>2025-05-17T10:25:26Z</time>
      </trkpt>
      <trkpt lat="43.910907972604036" lon="5.234429966658354">
        <ele>189.52000000000001</ele>
        <time>2025-05-17T10:25:27Z</time>
      </trkpt>
      <trkpt lat="43.911012997850776" lon="5.234659966081381">
        <ele>189.52000000000001</ele>
        <time>2025-05-17T10:25:28Z</time>
      </trkpt>
      <trkpt lat="43.911675000563264" lon="5.23626996204257">
        <ele>188.08000000000001</ele>
        <time>2025-05-17T10:25:35Z</time>
      </trkpt>
      <trkpt lat="43.912237007170916" lon="5.238099982962012">
        <ele>182.31</ele>
        <time>2025-05-17T10:25:43Z</time>
      </trkpt>
      <trkpt lat="43.912420989945531" lon="5.23951199837029">
        <ele>180.38</ele>
        <time>2025-05-17T10:25:50Z</time>
      </trkpt>
      <trkpt lat="43.9126349799335" lon="5.241158036515117">
        <ele>180.87</ele>
        <time>2025-05-17T10:25:57Z</time>
      </trkpt>
      <trkpt lat="43.913090033456683" lon="5.244653038680553">
        <ele>183.75</ele>
        <time>2025-05-17T10:26:08Z</time>
      </trkpt>
      <trkpt lat="43.913605017587543" lon="5.248616002500057">
        <ele>188.08000000000001</ele>
        <time>2025-05-17T10:26:22Z</time>
      </trkpt>
      <trkpt lat="43.914101980626583" lon="5.252442006021738">
        <ele>192.40000000000001</ele>
        <time>2025-05-17T10:26:36Z</time>
      </trkpt>
      <trkpt lat="43.914441028609872" lon="5.255056992173195">
        <ele>196.25</ele>
        <time>2025-05-17T10:26:46Z</time>
      </trkpt>
      <trkpt lat="43.914788039401174" lon="5.257639959454536">
        <ele>195.28</ele>
        <time>2025-05-17T10:26:55Z</time>
      </trkpt>
      <trkpt lat="43.915205039083958" lon="5.260092001408339">
        <ele>195.28</ele>
        <time>2025-05-17T10:27:04Z</time>
      </trkpt>
      <trkpt lat="43.916025962680578" lon="5.263019967824221">
        <ele>198.16999999999999</ele>
        <time>2025-05-17T10:27:15Z</time>
      </trkpt>
      <trkpt lat="43.916597021743655" lon="5.265641994774342">
        <ele>200.56999999999999</ele>
        <time>2025-05-17T10:27:25Z</time>
      </trkpt>
      <trkpt lat="43.91688896343112" lon="5.26746204122901">
        <ele>202.97999999999999</ele>
        <time>2025-05-17T10:27:33Z</time>
      </trkpt>
      <trkpt lat="43.917094990611076" lon="5.268920995295048">
        <ele>204.41999999999999</ele>
        <time>2025-05-17T10:27:42Z</time>
      </trkpt>
      <trkpt lat="43.917076969519258" lon="5.269143031910062">
        <ele>204.41999999999999</ele>
        <time>2025-05-17T10:27:43Z</time>
      </trkpt>
      <trkpt lat="43.916998011991382" lon="5.269222995266318">
        <ele>204.90000000000001</ele>
        <time>2025-05-17T10:27:44Z</time>
      </trkpt>
      <trkpt lat="43.916834983974695" lon="5.269428016617894">
        <ele>204.41999999999999</ele>
        <time>2025-05-17T10:27:46Z</time>
      </trkpt>
      <trkpt lat="43.916102992370725" lon="5.270333010703325">
        <ele>203.94</ele>
        <time>2025-05-17T10:27:53Z</time>
      </trkpt>
      <trkpt lat="43.914988031610847" lon="5.271413018926978">
        <ele>203.94</ele>
        <time>2025-05-17T10:28:01Z</time>
      </trkpt>
      <trkpt lat="43.914844030514359" lon="5.271484013646841">
        <ele>203.94</ele>
        <time>2025-05-17T10:28:02Z</time>
      </trkpt>
      <trkpt lat="43.914706986397505" lon="5.271552996709943">
        <ele>203.46000000000001</ele>
        <time>2025-05-17T10:28:03Z</time>
      </trkpt>
      <trkpt lat="43.914560973644257" lon="5.271576968953013">
        <ele>203.46000000000001</ele>
        <time>2025-05-17T10:28:04Z</time>
      </trkpt>
      <trkpt lat="43.914412027224898" lon="5.271586021408439">
        <ele>203.46000000000001</ele>
        <time>2025-05-17T10:28:05Z</time>
      </trkpt>
      <trkpt lat="43.914267020300031" lon="5.271593984216452">
        <ele>202.97999999999999</ele>
        <time>2025-05-17T10:28:06Z</time>
      </trkpt>
      <trkpt lat="43.913854965940118" lon="5.271646035835147">
        <ele>202.49000000000001</ele>
        <time>2025-05-17T10:28:09Z</time>
      </trkpt>
      <trkpt lat="43.913723034784198" lon="5.27171803638339">
        <ele>202.49000000000001</ele>
        <time>2025-05-17T10:28:10Z</time>
      </trkpt>
      <trkpt lat="43.91362002119422" lon="5.271806968376041">
        <ele>202.00999999999999</ele>
        <time>2025-05-17T10:28:11Z</time>
      </trkpt>
      <trkpt lat="43.913521030917764" lon="5.27197896502912">
        <ele>201.53</ele>
        <time>2025-05-17T10:28:12Z</time>
      </trkpt>
      <trkpt lat="43.913435032591224" lon="5.272131012752652">
        <ele>201.05000000000001</ele>
        <time>2025-05-17T10:28:13Z</time>
      </trkpt>
      <trkpt lat="43.913350040093064" lon="5.272279037162662">
        <ele>200.56999999999999</ele>
        <time>2025-05-17T10:28:14Z</time>
      </trkpt>
      <trkpt lat="43.913059020414948" lon="5.272711040452123">
        <ele>199.13</ele>
        <time>2025-05-17T10:28:17Z</time>
      </trkpt>
      <trkpt lat="43.912945026531816" lon="5.272843977436423">
        <ele>198.65000000000001</ele>
        <time>2025-05-17T10:28:18Z</time>
      </trkpt>
      <trkpt lat="43.912810999900103" lon="5.27294397354126">
        <ele>198.16999999999999</ele>
        <time>2025-05-17T10:28:19Z</time>
      </trkpt>
      <trkpt lat="43.912172969430685" lon="5.27339399792254">
        <ele>195.28</ele>
        <time>2025-05-17T10:28:24Z</time>
      </trkpt>
      <trkpt lat="43.912070961669087" lon="5.273465998470783">
        <ele>194.80000000000001</ele>
        <time>2025-05-17T10:28:25Z</time>
      </trkpt>
      <trkpt lat="43.911712970584631" lon="5.2737189643085">
        <ele>193.84</ele>
        <time>2025-05-17T10:28:29Z</time>
      </trkpt>
      <trkpt lat="43.911632001399994" lon="5.273851985111833">
        <ele>192.88</ele>
        <time>2025-05-17T10:28:31Z</time>
      </trkpt>
      <trkpt lat="43.911636024713516" lon="5.273896995931864">
        <ele>192.40000000000001</ele>
        <time>2025-05-17T10:28:32Z</time>
      </trkpt>
      <trkpt lat="43.911641975864768" lon="5.27395399287343">
        <ele>191.91999999999999</ele>
        <time>2025-05-17T10:28:33Z</time>
      </trkpt>
      <trkpt lat="43.91164599917829" lon="5.273994980379939">
        <ele>191.44</ele>
        <time>2025-05-17T10:28:34Z</time>
      </trkpt>
      <trkpt lat="43.911680029705167" lon="5.274076033383608">
        <ele>190.96000000000001</ele>
        <time>2025-05-17T10:28:35Z</time>
      </trkpt>
      <trkpt lat="43.91171196475625" lon="5.274149961769581">
        <ele>190.47999999999999</ele>
        <time>2025-05-17T10:28:36Z</time>
      </trkpt>
      <trkpt lat="43.911745995283127" lon="5.274227997288108">
        <ele>190</ele>
        <time>2025-05-17T10:28:37Z</time>
      </trkpt>
      <trkpt lat="43.911768961697817" lon="5.27433997951448">
        <ele>189.52000000000001</ele>
        <time>2025-05-17T10:28:38Z</time>
      </trkpt>
      <trkpt lat="43.911753036081791" lon="5.274451039731503">
        <ele>189.03999999999999</ele>
        <time>2025-05-17T10:28:39Z</time>
      </trkpt>
      <trkpt lat="43.911736020818353" lon="5.274577019736171">
        <ele>189.52000000000001</ele>
        <time>2025-05-17T10:28:40Z</time>
      </trkpt>
      <trkpt lat="43.911717999726534" lon="5.2747050113976">
        <ele>189.52000000000001</ele>
        <time>2025-05-17T10:28:41Z</time>
      </trkpt>
      <trkpt lat="43.911699978634715" lon="5.27483300305903">
        <ele>190</ele>
        <time>2025-05-17T10:28:42Z</time>
      </trkpt>
      <trkpt lat="43.911682041361928" lon="5.27496200054884">
        <ele>190.96000000000001</ele>
        <time>2025-05-17T10:28:43Z</time>
      </trkpt>
      <trkpt lat="43.911638036370277" lon="5.275236004963517">
        <ele>191.91999999999999</ele>
        <time>2025-05-17T10:28:45Z</time>
      </trkpt>
      <trkpt lat="43.911581039428711" lon="5.275357961654663">
        <ele>192.40000000000001</ele>
        <time>2025-05-17T10:28:46Z</time>
      </trkpt>
      <trkpt lat="43.911077035591006" lon="5.276538971811533">
        <ele>192.88</ele>
        <time>2025-05-17T10:28:54Z</time>
      </trkpt>
      <trkpt lat="43.910622987896204" lon="5.277888961136341">
        <ele>196.25</ele>
        <time>2025-05-17T10:29:02Z</time>
      </trkpt>
      <trkpt lat="43.910502959042788" lon="5.278218034654856">
        <ele>197.21000000000001</ele>
        <time>2025-05-17T10:29:04Z</time>
      </trkpt>
      <trkpt lat="43.909842967987061" lon="5.279515972360969">
        <ele>202.00999999999999</ele>
        <time>2025-05-17T10:29:13Z</time>
      </trkpt>
      <trkpt lat="43.909496963024139" lon="5.280228015035391">
        <ele>204.90000000000001</ele>
        <time>2025-05-17T10:29:20Z</time>
      </trkpt>
      <trkpt lat="43.908875025808811" lon="5.281584961339831">
        <ele>211.15000000000001</ele>
        <time>2025-05-17T10:29:28Z</time>
      </trkpt>
      <trkpt lat="43.90831695869565" lon="5.283398972824216">
        <ele>219.80000000000001</ele>
        <time>2025-05-17T10:29:37Z</time>
      </trkpt>
      <trkpt lat="43.908178992569447" lon="5.284349983558059">
        <ele>227.49000000000001</ele>
        <time>2025-05-17T10:29:43Z</time>
      </trkpt>
      <trkpt lat="43.908146973699331" lon="5.284460037946701">
        <ele>228.44999999999999</ele>
        <time>2025-05-17T10:29:44Z</time>
      </trkpt>
      <trkpt lat="43.908127024769783" lon="5.284531032666564">
        <ele>229.41</ele>
        <time>2025-05-17T10:29:45Z</time>
      </trkpt>
      <trkpt lat="43.908041026443243" lon="5.284564979374409">
        <ele>230.37</ele>
        <time>2025-05-17T10:29:46Z</time>
      </trkpt>
      <trkpt lat="43.907947987318039" lon="5.284603033214808">
        <ele>231.33000000000001</ele>
        <time>2025-05-17T10:29:47Z</time>
      </trkpt>
      <trkpt lat="43.907845979556441" lon="5.284643014892936">
        <ele>232.78</ele>
        <time>2025-05-17T10:29:48Z</time>
      </trkpt>
      <trkpt lat="43.907746989279985" lon="5.284682996571064">
        <ele>233.25999999999999</ele>
        <time>2025-05-17T10:29:49Z</time>
      </trkpt>
      <trkpt lat="43.907655961811543" lon="5.28469598852098">
        <ele>234.69999999999999</ele>
        <time>2025-05-17T10:29:50Z</time>
      </trkpt>
      <trkpt lat="43.907553032040596" lon="5.284676961600781">
        <ele>235.66</ele>
        <time>2025-05-17T10:29:51Z</time>
      </trkpt>
      <trkpt lat="43.90745404176414" lon="5.284660030156374">
        <ele>236.13999999999999</ele>
        <time>2025-05-17T10:29:52Z</time>
      </trkpt>
      <trkpt lat="43.907333007082343" lon="5.284637985751033">
        <ele>236.62</ele>
        <time>2025-05-17T10:29:53Z</time>
      </trkpt>
      <trkpt lat="43.9072419796139" lon="5.284655001014471">
        <ele>237.09999999999999</ele>
        <time>2025-05-17T10:29:54Z</time>
      </trkpt>
      <trkpt lat="43.907128991559148" lon="5.284675033763051">
        <ele>238.06</ele>
        <time>2025-05-17T10:29:55Z</time>
      </trkpt>
      <trkpt lat="43.906773012131453" lon="5.284874020144343">
        <ele>240.94999999999999</ele>
        <time>2025-05-17T10:29:58Z</time>
      </trkpt>
      <trkpt lat="43.906663963571191" lon="5.284937974065542">
        <ele>241.91</ele>
        <time>2025-05-17T10:29:59Z</time>
      </trkpt>
      <trkpt lat="43.906563967466354" lon="5.28499798849225">
        <ele>242.87</ele>
        <time>2025-05-17T10:30:00Z</time>
      </trkpt>
      <trkpt lat="43.906473023816943" lon="5.285051967948675">
        <ele>244.31</ele>
        <time>2025-05-17T10:30:01Z</time>
      </trkpt>
      <trkpt lat="43.906409991905093" lon="5.285089015960693">
        <ele>245.27000000000001</ele>
        <time>2025-05-17T10:30:02Z</time>
      </trkpt>
      <trkpt lat="43.906332962214947" lon="5.28519001789391">
        <ele>246.72</ele>
        <time>2025-05-17T10:30:03Z</time>
      </trkpt>
      <trkpt lat="43.906274037435651" lon="5.285267969593406">
        <ele>248.16</ele>
        <time>2025-05-17T10:30:04Z</time>
      </trkpt>
      <trkpt lat="43.906215028837323" lon="5.285346005111933">
        <ele>249.59999999999999</ele>
        <time>2025-05-17T10:30:05Z</time>
      </trkpt>
      <trkpt lat="43.906158031895757" lon="5.285420017316937">
        <ele>251.03999999999999</ele>
        <time>2025-05-17T10:30:06Z</time>
      </trkpt>
      <trkpt lat="43.906102040782571" lon="5.285494029521942">
        <ele>252</ele>
        <time>2025-05-17T10:30:07Z</time>
      </trkpt>
      <trkpt lat="43.905517989769578" lon="5.286260973662138">
        <ele>263.06</ele>
        <time>2025-05-17T10:30:17Z</time>
      </trkpt>
      <trkpt lat="43.90545504167676" lon="5.286342026665807">
        <ele>264.01999999999998</ele>
        <time>2025-05-17T10:30:18Z</time>
      </trkpt>
      <trkpt lat="43.904994959011674" lon="5.286947032436729">
        <ele>272.67000000000002</ele>
        <time>2025-05-17T10:30:25Z</time>
      </trkpt>
      <trkpt lat="43.904926981776953" lon="5.287034958600998">
        <ele>273.63</ele>
        <time>2025-05-17T10:30:26Z</time>
      </trkpt>
      <trkpt lat="43.904214017093182" lon="5.287848003208637">
        <ele>283.73000000000002</ele>
        <time>2025-05-17T10:30:35Z</time>
      </trkpt>
      <trkpt lat="43.903703978285193" lon="5.288629028946161">
        <ele>296.69999999999999</ele>
        <time>2025-05-17T10:30:44Z</time>
      </trkpt>
      <trkpt lat="43.903627032414079" lon="5.28875500895083">
        <ele>299.11000000000001</ele>
        <time>2025-05-17T10:30:46Z</time>
      </trkpt>
      <trkpt lat="43.903101989999413" lon="5.289210984483361">
        <ele>305.36000000000001</ele>
        <time>2025-05-17T10:30:54Z</time>
      </trkpt>
      <trkpt lat="43.902963018044829" lon="5.28935800306499">
        <ele>305.36000000000001</ele>
        <time>2025-05-17T10:30:56Z</time>
      </trkpt>
      <trkpt lat="43.902895962819457" lon="5.289430003613234">
        <ele>305.36000000000001</ele>
        <time>2025-05-17T10:30:57Z</time>
      </trkpt>
      <trkpt lat="43.902836032211781" lon="5.289494041353464">
        <ele>305.83999999999997</ele>
        <time>2025-05-17T10:30:58Z</time>
      </trkpt>
      <trkpt lat="43.902785992249846" lon="5.289547014981508">
        <ele>305.83999999999997</ele>
        <time>2025-05-17T10:30:59Z</time>
      </trkpt>
      <trkpt lat="43.902740981429815" lon="5.28959495946765">
        <ele>306.31999999999999</ele>
        <time>2025-05-17T10:31:00Z</time>
      </trkpt>
      <trkpt lat="43.902684990316629" lon="5.289619015529752">
        <ele>306.31999999999999</ele>
        <time>2025-05-17T10:31:01Z</time>
      </trkpt>
      <trkpt lat="43.902654983103275" lon="5.289632007479668">
        <ele>306.31999999999999</ele>
        <time>2025-05-17T10:31:02Z</time>
      </trkpt>
      <trkpt lat="43.902636040002108" lon="5.289639970287681">
        <ele>306.80000000000001</ele>
        <time>2025-05-17T10:31:03Z</time>
      </trkpt>
      <trkpt lat="43.902596980333328" lon="5.289713982492685">
        <ele>306.31999999999999</ele>
        <time>2025-05-17T10:31:04Z</time>
      </trkpt>
      <trkpt lat="43.902604021131992" lon="5.289780031889677">
        <ele>306.31999999999999</ele>
        <time>2025-05-17T10:31:05Z</time>
      </trkpt>
      <trkpt lat="43.902611983940005" lon="5.289861001074314">
        <ele>306.31999999999999</ele>
        <time>2025-05-17T10:31:06Z</time>
      </trkpt>
      <trkpt lat="43.902605026960373" lon="5.289948005229235">
        <ele>306.31999999999999</ele>
        <time>2025-05-17T10:31:07Z</time>
      </trkpt>
      <trkpt lat="43.902597986161709" lon="5.290039032697678">
        <ele>306.31999999999999</ele>
        <time>2025-05-17T10:31:08Z</time>
      </trkpt>
      <trkpt lat="43.902591029182076" lon="5.29013198800385">
        <ele>306.80000000000001</ele>
        <time>2025-05-17T10:31:09Z</time>
      </trkpt>
      <trkpt lat="43.902570996433496" lon="5.290193008258939">
        <ele>306.80000000000001</ele>
        <time>2025-05-17T10:31:10Z</time>
      </trkpt>
      <trkpt lat="43.902550963684916" lon="5.290252016857266">
        <ele>306.80000000000001</ele>
        <time>2025-05-17T10:31:11Z</time>
      </trkpt>
      <trkpt lat="43.902529003098607" lon="5.290315970778465">
        <ele>307.27999999999997</ele>
        <time>2025-05-17T10:31:12Z</time>
      </trkpt>
      <trkpt lat="43.902506036683917" lon="5.290385037660599">
        <ele>307.27999999999997</ele>
        <time>2025-05-17T10:31:13Z</time>
      </trkpt>
      <trkpt lat="43.902169000357389" lon="5.291361026465893">
        <ele>311.60000000000002</ele>
        <time>2025-05-17T10:31:26Z</time>
      </trkpt>
      <trkpt lat="43.901962973177433" lon="5.291625978425145">
        <ele>313.52999999999997</ele>
        <time>2025-05-17T10:31:33Z</time>
      </trkpt>
      <trkpt lat="43.901903964579105" lon="5.29167702421546">
        <ele>314.00999999999999</ele>
        <time>2025-05-17T10:31:34Z</time>
      </trkpt>
      <trkpt lat="43.901900025084615" lon="5.291719017550349">
        <ele>314.49000000000001</ele>
        <time>2025-05-17T10:31:35Z</time>
      </trkpt>
      <trkpt lat="43.901893990114331" lon="5.291777020320296">
        <ele>314.97000000000003</ele>
        <time>2025-05-17T10:31:36Z</time>
      </trkpt>
      <trkpt lat="43.901888038963079" lon="5.291838962584734">
        <ele>315.44999999999999</ele>
        <time>2025-05-17T10:31:37Z</time>
      </trkpt>
      <trkpt lat="43.901883009821177" lon="5.291891014203429">
        <ele>315.93000000000001</ele>
        <time>2025-05-17T10:31:38Z</time>
      </trkpt>
      <trkpt lat="43.901883009821177" lon="5.291891014203429">
        <ele>315.93000000000001</ele>
        <time>2025-05-17T10:31:39Z</time>
      </trkpt>
      <trkpt lat="43.901919974014163" lon="5.291965026408434">
        <ele>315.93000000000001</ele>
        <time>2025-05-17T10:31:40Z</time>
      </trkpt>
      <trkpt lat="43.901943024247885" lon="5.292011965066195">
        <ele>315.93000000000001</ele>
        <time>2025-05-17T10:31:41Z</time>
      </trkpt>
      <trkpt lat="43.901966996490955" lon="5.292059993371368">
        <ele>316.41000000000003</ele>
        <time>2025-05-17T10:31:42Z</time>
      </trkpt>
      <trkpt lat="43.901989040896297" lon="5.292103998363018">
        <ele>316.41000000000003</ele>
        <time>2025-05-17T10:31:43Z</time>
      </trkpt>
      <trkpt lat="43.902012007310987" lon="5.292149009183049">
        <ele>316.41000000000003</ele>
        <time>2025-05-17T10:31:44Z</time>
      </trkpt>
      <trkpt lat="43.902032962068915" lon="5.292191002517939">
        <ele>316.88999999999999</ele>
        <time>2025-05-17T10:31:45Z</time>
      </trkpt>
      <trkpt lat="43.902050983160734" lon="5.292226960882545">
        <ele>316.88999999999999</ele>
        <time>2025-05-17T10:31:46Z</time>
      </trkpt>
      <trkpt lat="43.902067998424172" lon="5.292261997237802">
        <ele>317.37</ele>
        <time>2025-05-17T10:31:47Z</time>
      </trkpt>
      <trkpt lat="43.902083002030849" lon="5.292293010279536">
        <ele>316.88999999999999</ele>
        <time>2025-05-17T10:31:48Z</time>
      </trkpt>
      <trkpt lat="43.902098005637527" lon="5.292329974472523">
        <ele>317.37</ele>
        <time>2025-05-17T10:31:49Z</time>
      </trkpt>
      <trkpt lat="43.902100017294288" lon="5.292373979464173">
        <ele>317.85000000000002</ele>
        <time>2025-05-17T10:31:50Z</time>
      </trkpt>
      <trkpt lat="43.902118960395455" lon="5.292685031890869">
        <ele>318.81</ele>
        <time>2025-05-17T10:31:53Z</time>
      </trkpt>
      <trkpt lat="43.902118960395455" lon="5.292685031890869">
        <ele>319.30000000000001</ele>
        <time>2025-05-17T10:31:54Z</time>
      </trkpt>
      <trkpt lat="43.902110997587442" lon="5.292801959440112">
        <ele>320.25999999999999</ele>
        <time>2025-05-17T10:31:57Z</time>
      </trkpt>
      <trkpt lat="43.902102028951049" lon="5.292937997728586">
        <ele>320.74000000000001</ele>
        <time>2025-05-17T10:31:59Z</time>
      </trkpt>
      <trkpt lat="43.902011001482606" lon="5.293428003787994">
        <ele>322.18000000000001</ele>
        <time>2025-05-17T10:32:10Z</time>
      </trkpt>
      <trkpt lat="43.901990968734026" lon="5.293477037921548">
        <ele>322.18000000000001</ele>
        <time>2025-05-17T10:32:11Z</time>
      </trkpt>
      <trkpt lat="43.901972025632858" lon="5.293523976579309">
        <ele>322.66000000000003</ele>
        <time>2025-05-17T10:32:12Z</time>
      </trkpt>
      <trkpt lat="43.901904970407486" lon="5.293754981830716">
        <ele>322.18000000000001</ele>
        <time>2025-05-17T10:32:20Z</time>
      </trkpt>
      <trkpt lat="43.901902036741376" lon="5.293766967952251">
        <ele>322.18000000000001</ele>
        <time>2025-05-17T10:32:28Z</time>
      </trkpt>
      <trkpt lat="43.901882003992796" lon="5.293843997642398">
        <ele>321.69999999999999</ele>
        <time>2025-05-17T10:32:29Z</time>
      </trkpt>
      <trkpt lat="43.901846967637539" lon="5.293861012905836">
        <ele>322.18000000000001</ele>
        <time>2025-05-17T10:32:30Z</time>
      </trkpt>
      <trkpt lat="43.901814026758075" lon="5.293878028169274">
        <ele>322.66000000000003</ele>
        <time>2025-05-17T10:32:31Z</time>
      </trkpt>
      <trkpt lat="43.901775972917676" lon="5.29389102011919">
        <ele>322.66000000000003</ele>
        <time>2025-05-17T10:32:32Z</time>
      </trkpt>
      <trkpt lat="43.901315974071622" lon="5.294004008173943">
        <ele>321.69999999999999</ele>
        <time>2025-05-17T10:32:43Z</time>
      </trkpt>
      <trkpt lat="43.901270963251591" lon="5.294015994295478">
        <ele>321.69999999999999</ele>
        <time>2025-05-17T10:32:44Z</time>
      </trkpt>
      <trkpt lat="43.90105496160686" lon="5.294067040085793">
        <ele>322.18000000000001</ele>
        <time>2025-05-17T10:32:53Z</time>
      </trkpt>
      <trkpt lat="43.901019003242254" lon="5.294072991237044">
        <ele>322.18000000000001</ele>
        <time>2025-05-17T10:33:16Z</time>
      </trkpt>
      <trkpt lat="43.9009889960289" lon="5.294078020378947">
        <ele>322.66000000000003</ele>
        <time>2025-05-17T10:33:17Z</time>
      </trkpt>
      <trkpt lat="43.900939039885998" lon="5.29408598318696">
        <ele>323.13999999999999</ele>
        <time>2025-05-17T10:33:18Z</time>
      </trkpt>
      <trkpt lat="43.900267984718084" lon="5.294195031747222">
        <ele>322.66000000000003</ele>
        <time>2025-05-17T10:33:26Z</time>
      </trkpt>
      <trkpt lat="43.899560971185565" lon="5.294226966798306">
        <ele>323.13999999999999</ele>
        <time>2025-05-17T10:33:35Z</time>
      </trkpt>
      <trkpt lat="43.89948402531445" lon="5.294210035353899">
        <ele>323.13999999999999</ele>
        <time>2025-05-17T10:33:36Z</time>
      </trkpt>
      <trkpt lat="43.899416970089078" lon="5.294156977906823">
        <ele>323.13999999999999</ele>
        <time>2025-05-17T10:33:37Z</time>
      </trkpt>
      <trkpt lat="43.899337006732821" lon="5.294090006500483">
        <ele>323.13999999999999</ele>
        <time>2025-05-17T10:33:38Z</time>
      </trkpt>
      <trkpt lat="43.899257965385914" lon="5.294024040922523">
        <ele>323.13999999999999</ele>
        <time>2025-05-17T10:33:39Z</time>
      </trkpt>
      <trkpt lat="43.89918495900929" lon="5.293963020667434">
        <ele>322.66000000000003</ele>
        <time>2025-05-17T10:33:40Z</time>
      </trkpt>
      <trkpt lat="43.899116981774569" lon="5.293906023725867">
        <ele>322.18000000000001</ele>
        <time>2025-05-17T10:33:41Z</time>
      </trkpt>
      <trkpt lat="43.899045987054706" lon="5.29384802095592">
        <ele>321.69999999999999</ele>
        <time>2025-05-17T10:33:42Z</time>
      </trkpt>
      <trkpt lat="43.898964012041688" lon="5.293779037892819">
        <ele>321.22000000000003</ele>
        <time>2025-05-17T10:33:43Z</time>
      </trkpt>
      <trkpt lat="43.898907015100121" lon="5.293752970173955">
        <ele>321.22000000000003</ele>
        <time>2025-05-17T10:33:44Z</time>
      </trkpt>
      <trkpt lat="43.89875203371048" lon="5.293680969625711">
        <ele>320.25999999999999</ele>
        <time>2025-05-17T10:33:46Z</time>
      </trkpt>
      <trkpt lat="43.8985800370574" lon="5.293650962412357">
        <ele>318.81</ele>
        <time>2025-05-17T10:33:48Z</time>
      </trkpt>
      <trkpt lat="43.898494960740209" lon="5.293670995160937">
        <ele>318.32999999999998</ele>
        <time>2025-05-17T10:33:49Z</time>
      </trkpt>
      <trkpt lat="43.89778702519834" lon="5.293981041759253">
        <ele>313.52999999999997</ele>
        <time>2025-05-17T10:33:57Z</time>
      </trkpt>
      <trkpt lat="43.897727010771632" lon="5.294059999287128">
        <ele>313.52999999999997</ele>
        <time>2025-05-17T10:33:58Z</time>
      </trkpt>
      <trkpt lat="43.897672025486827" lon="5.294158989563584">
        <ele>313.05000000000001</ele>
        <time>2025-05-17T10:33:59Z</time>
      </trkpt>
      <trkpt lat="43.89761796221137" lon="5.29425797984004">
        <ele>312.56999999999999</ele>
        <time>2025-05-17T10:34:00Z</time>
      </trkpt>
      <trkpt lat="43.897560965269804" lon="5.294361999258399">
        <ele>312.56999999999999</ele>
        <time>2025-05-17T10:34:01Z</time>
      </trkpt>
      <trkpt lat="43.897501034662127" lon="5.294470963999629">
        <ele>312.56999999999999</ele>
        <time>2025-05-17T10:34:02Z</time>
      </trkpt>
      <trkpt lat="43.897139020264149" lon="5.295217959210277">
        <ele>309.68000000000001</ele>
        <time>2025-05-17T10:34:08Z</time>
      </trkpt>
      <trkpt lat="43.897085962817073" lon="5.295332036912441">
        <ele>309.19999999999999</ele>
        <time>2025-05-17T10:34:09Z</time>
      </trkpt>
      <trkpt lat="43.897038018330932" lon="5.295435972511768">
        <ele>308.24000000000001</ele>
        <time>2025-05-17T10:34:10Z</time>
      </trkpt>
      <trkpt lat="43.896989990025759" lon="5.295538986101747">
        <ele>307.75999999999999</ele>
        <time>2025-05-17T10:34:11Z</time>
      </trkpt>
      <trkpt lat="43.896930981427431" lon="5.295625990256667">
        <ele>306.80000000000001</ele>
        <time>2025-05-17T10:34:12Z</time>
      </trkpt>
      <trkpt lat="43.896873984485865" lon="5.295706959441304">
        <ele>306.31999999999999</ele>
        <time>2025-05-17T10:34:13Z</time>
      </trkpt>
      <trkpt lat="43.896821010857821" lon="5.295784994959831">
        <ele>305.83999999999997</ele>
        <time>2025-05-17T10:34:14Z</time>
      </trkpt>
      <trkpt lat="43.896753033623099" lon="5.295881973579526">
        <ele>305.36000000000001</ele>
        <time>2025-05-17T10:34:15Z</time>
      </trkpt>
      <trkpt lat="43.896651025861502" lon="5.295901000499725">
        <ele>304.38999999999999</ele>
        <time>2025-05-17T10:34:16Z</time>
      </trkpt>
      <trkpt lat="43.896548012271523" lon="5.295887002721429">
        <ele>303.43000000000001</ele>
        <time>2025-05-17T10:34:17Z</time>
      </trkpt>
      <trkpt lat="43.895448977127671" lon="5.295817013829947">
        <ele>296.22000000000003</ele>
        <time>2025-05-17T10:34:27Z</time>
      </trkpt>
      <trkpt lat="43.894795021042228" lon="5.295761022716761">
        <ele>293.81999999999999</ele>
        <time>2025-05-17T10:34:33Z</time>
      </trkpt>
      <trkpt lat="43.893935959786177" lon="5.295456005260348">
        <ele>292.86000000000001</ele>
        <time>2025-05-17T10:34:40Z</time>
      </trkpt>
      <trkpt lat="43.892776994034648" lon="5.294963987544179">
        <ele>288.52999999999997</ele>
        <time>2025-05-17T10:34:48Z</time>
      </trkpt>
      <trkpt lat="43.892365023493767" lon="5.294732982292771">
        <ele>286.61000000000001</ele>
        <time>2025-05-17T10:34:51Z</time>
      </trkpt>
      <trkpt lat="43.89224499464035" lon="5.294604990631342">
        <ele>285.64999999999998</ele>
        <time>2025-05-17T10:34:52Z</time>
      </trkpt>
      <trkpt lat="43.892134018242359" lon="5.294458977878094">
        <ele>284.69</ele>
        <time>2025-05-17T10:34:53Z</time>
      </trkpt>
      <trkpt lat="43.891465980559587" lon="5.293603017926216">
        <ele>279.39999999999998</ele>
        <time>2025-05-17T10:34:59Z</time>
      </trkpt>
      <trkpt lat="43.891356009989977" lon="5.29350402764976">
        <ele>278.44</ele>
        <time>2025-05-17T10:35:00Z</time>
      </trkpt>
      <trkpt lat="43.891232963651419" lon="5.29343998990953">
        <ele>277.48000000000002</ele>
        <time>2025-05-17T10:35:01Z</time>
      </trkpt>
      <trkpt lat="43.891097009181976" lon="5.293405037373304">
        <ele>276.04000000000002</ele>
        <time>2025-05-17T10:35:02Z</time>
      </trkpt>
      <trkpt lat="43.890948984771967" lon="5.293366983532906">
        <ele>275.06999999999999</ele>
        <time>2025-05-17T10:35:03Z</time>
      </trkpt>
      <trkpt lat="43.890794003382325" lon="5.293327001854777">
        <ele>274.11000000000001</ele>
        <time>2025-05-17T10:35:04Z</time>
      </trkpt>
      <trkpt lat="43.889610981568694" lon="5.293092979118228">
        <ele>265.94</ele>
        <time>2025-05-17T10:35:11Z</time>
      </trkpt>
      <trkpt lat="43.889464968815446" lon="5.293092979118228">
        <ele>264.5</ele>
        <time>2025-05-17T10:35:12Z</time>
      </trkpt>
      <trkpt lat="43.889350974932313" lon="5.293092979118228">
        <ele>263.06</ele>
        <time>2025-05-17T10:35:13Z</time>
      </trkpt>
      <trkpt lat="43.889217032119632" lon="5.293184006586671">
        <ele>261.62</ele>
        <time>2025-05-17T10:35:14Z</time>
      </trkpt>
      <trkpt lat="43.889093985781074" lon="5.293266987428069">
        <ele>260.64999999999998</ele>
        <time>2025-05-17T10:35:15Z</time>
      </trkpt>
      <trkpt lat="43.888971023261547" lon="5.293350974097848">
        <ele>259.20999999999998</ele>
        <time>2025-05-17T10:35:16Z</time>
      </trkpt>
      <trkpt lat="43.88872099108994" lon="5.293509978801012">
        <ele>257.29000000000002</ele>
        <time>2025-05-17T10:35:18Z</time>
      </trkpt>
      <trkpt lat="43.888594005256891" lon="5.293551972135902">
        <ele>255.84999999999999</ele>
        <time>2025-05-17T10:35:19Z</time>
      </trkpt>
      <trkpt lat="43.888470036908984" lon="5.293577034026384">
        <ele>254.41</ele>
        <time>2025-05-17T10:35:20Z</time>
      </trkpt>
      <trkpt lat="43.888338021934032" lon="5.293521964922547">
        <ele>253.44</ele>
        <time>2025-05-17T10:35:21Z</time>
      </trkpt>
      <trkpt lat="43.888198966160417" lon="5.2934639621526">
        <ele>252.47999999999999</ele>
        <time>2025-05-17T10:35:22Z</time>
      </trkpt>
      <trkpt lat="43.886887030676007" lon="5.292916037142277">
        <ele>250.08000000000001</ele>
        <time>2025-05-17T10:35:31Z</time>
      </trkpt>
      <trkpt lat="43.8852399867028" lon="5.292329974472523">
        <ele>242.38999999999999</ele>
        <time>2025-05-17T10:35:41Z</time>
      </trkpt>
      <trkpt lat="43.884453009814024" lon="5.292196031659842">
        <ele>238.06</ele>
        <time>2025-05-17T10:35:46Z</time>
      </trkpt>
      <trkpt lat="43.883266970515251" lon="5.292197959497571">
        <ele>233.25999999999999</ele>
        <time>2025-05-17T10:35:54Z</time>
      </trkpt>
      <trkpt lat="43.883120035752654" lon="5.292217992246151">
        <ele>232.78</ele>
        <time>2025-05-17T10:35:55Z</time>
      </trkpt>
      <trkpt lat="43.882980979979038" lon="5.292296027764678">
        <ele>232.30000000000001</ele>
        <time>2025-05-17T10:35:56Z</time>
      </trkpt>
      <trkpt lat="43.881827965378761" lon="5.29294403269887">
        <ele>226.05000000000001</ele>
        <time>2025-05-17T10:36:04Z</time>
      </trkpt>
      <trkpt lat="43.881380036473274" lon="5.293235974386334">
        <ele>224.12</ele>
        <time>2025-05-17T10:36:07Z</time>
      </trkpt>
      <trkpt lat="43.881232012063265" lon="5.293352985754609">
        <ele>223.63999999999999</ele>
        <time>2025-05-17T10:36:08Z</time>
      </trkpt>
      <trkpt lat="43.880610996857285" lon="5.29406301677227">
        <ele>219.80000000000001</ele>
        <time>2025-05-17T10:36:13Z</time>
      </trkpt>
      <trkpt lat="43.880477976053953" lon="5.294144991785288">
        <ele>218.84</ele>
        <time>2025-05-17T10:36:14Z</time>
      </trkpt>
      <trkpt lat="43.880347972735763" lon="5.294216992333531">
        <ele>218.36000000000001</ele>
        <time>2025-05-17T10:36:15Z</time>
      </trkpt>
      <trkpt lat="43.880216041579843" lon="5.294288992881775">
        <ele>217.40000000000001</ele>
        <time>2025-05-17T10:36:16Z</time>
      </trkpt>
      <trkpt lat="43.880076985806227" lon="5.29434397816658">
        <ele>216.91</ele>
        <time>2025-05-17T10:36:17Z</time>
      </trkpt>
      <trkpt lat="43.878953978419304" lon="5.294789979234338">
        <ele>212.11000000000001</ele>
        <time>2025-05-17T10:36:25Z</time>
      </trkpt>
      <trkpt lat="43.87885901145637" lon="5.294873965904117">
        <ele>212.11000000000001</ele>
        <time>2025-05-17T10:36:26Z</time>
      </trkpt>
      <trkpt lat="43.878817018121481" lon="5.29502802528441">
        <ele>211.15000000000001</ele>
        <time>2025-05-17T10:36:27Z</time>
      </trkpt>
      <trkpt lat="43.87877301312983" lon="5.295195998623967">
        <ele>210.66999999999999</ele>
        <time>2025-05-17T10:36:28Z</time>
      </trkpt>
      <trkpt lat="43.878791034221649" lon="5.295388028025627">
        <ele>209.69999999999999</ele>
        <time>2025-05-17T10:36:29Z</time>
      </trkpt>
      <trkpt lat="43.878810983151197" lon="5.295593971386552">
        <ele>208.74000000000001</ele>
        <time>2025-05-17T10:36:30Z</time>
      </trkpt>
      <trkpt lat="43.878832021728158" lon="5.295807039365172">
        <ele>208.25999999999999</ele>
        <time>2025-05-17T10:36:31Z</time>
      </trkpt>
      <trkpt lat="43.878867980092764" lon="5.296397041529417">
        <ele>206.34</ele>
        <time>2025-05-17T10:36:34Z</time>
      </trkpt>
      <trkpt lat="43.878844007849693" lon="5.296565014868975">
        <ele>205.86000000000001</ele>
        <time>2025-05-17T10:36:35Z</time>
      </trkpt>
      <trkpt lat="43.8788160122931" lon="5.296761989593506">
        <ele>205.38</ele>
        <time>2025-05-17T10:36:36Z</time>
      </trkpt>
      <trkpt lat="43.878760021179914" lon="5.296883024275303">
        <ele>204.90000000000001</ele>
        <time>2025-05-17T10:36:37Z</time>
      </trkpt>
      <trkpt lat="43.878681985661387" lon="5.297044962644577">
        <ele>204.90000000000001</ele>
        <time>2025-05-17T10:36:38Z</time>
      </trkpt>
      <trkpt lat="43.878563968464732" lon="5.29713599011302">
        <ele>204.41999999999999</ele>
        <time>2025-05-17T10:36:39Z</time>
      </trkpt>
      <trkpt lat="43.878441005945206" lon="5.297230035066605">
        <ele>203.94</ele>
        <time>2025-05-17T10:36:40Z</time>
      </trkpt>
      <trkpt lat="43.878317037597299" lon="5.297326007857919">
        <ele>203.46000000000001</ele>
        <time>2025-05-17T10:36:41Z</time>
      </trkpt>
      <trkpt lat="43.878086032345891" lon="5.29752298258245">
        <ele>203.46000000000001</ele>
        <time>2025-05-17T10:36:43Z</time>
      </trkpt>
      <trkpt lat="43.877981007099152" lon="5.29765198007226">
        <ele>202.97999999999999</ele>
        <time>2025-05-17T10:36:44Z</time>
      </trkpt>
      <trkpt lat="43.87787296436727" lon="5.297785000875592">
        <ele>202.97999999999999</ele>
        <time>2025-05-17T10:36:45Z</time>
      </trkpt>
      <trkpt lat="43.877800041809678" lon="5.297948028892279">
        <ele>202.97999999999999</ele>
        <time>2025-05-17T10:36:46Z</time>
      </trkpt>
      <trkpt lat="43.87772100046277" lon="5.298156989738345">
        <ele>202.97999999999999</ele>
        <time>2025-05-17T10:36:47Z</time>
      </trkpt>
      <trkpt lat="43.877671966329217" lon="5.298310965299606">
        <ele>203.46000000000001</ele>
        <time>2025-05-17T10:36:48Z</time>
      </trkpt>
      <trkpt lat="43.877253038808703" lon="5.299436990171671">
        <ele>203.46000000000001</ele>
        <time>2025-05-17T10:36:54Z</time>
      </trkpt>
      <trkpt lat="43.877155976369977" lon="5.299614015966654">
        <ele>202.97999999999999</ele>
        <time>2025-05-17T10:36:55Z</time>
      </trkpt>
      <trkpt lat="43.876394983381033" lon="5.300599979236722">
        <ele>200.09</ele>
        <time>2025-05-17T10:37:02Z</time>
      </trkpt>
      <trkpt lat="43.875429974868894" lon="5.30149600468576">
        <ele>195.77000000000001</ele>
        <time>2025-05-17T10:37:10Z</time>
      </trkpt>
      <trkpt lat="43.874673005193472" lon="5.3021190315485">
        <ele>193.84</ele>
        <time>2025-05-17T10:37:15Z</time>
      </trkpt>
      <trkpt lat="43.873613029718399" lon="5.303449993953109">
        <ele>191.91999999999999</ele>
        <time>2025-05-17T10:37:23Z</time>
      </trkpt>
      <trkpt lat="43.873157976195216" lon="5.303800022229552">
        <ele>191.91999999999999</ele>
        <time>2025-05-17T10:37:26Z</time>
      </trkpt>
      <trkpt lat="43.871956011280417" lon="5.304378960281611">
        <ele>188.56</ele>
        <time>2025-05-17T10:37:33Z</time>
      </trkpt>
      <trkpt lat="43.871766999363899" lon="5.304432017728686">
        <ele>188.08000000000001</ele>
        <time>2025-05-17T10:37:34Z</time>
      </trkpt>
      <trkpt lat="43.871572958305478" lon="5.304459007456899">
        <ele>187.11000000000001</ele>
        <time>2025-05-17T10:37:35Z</time>
      </trkpt>
      <trkpt lat="43.871384030207992" lon="5.304444003850222">
        <ele>186.63</ele>
        <time>2025-05-17T10:37:36Z</time>
      </trkpt>
      <trkpt lat="43.871197029948235" lon="5.304430006071925">
        <ele>185.66999999999999</ele>
        <time>2025-05-17T10:37:37Z</time>
      </trkpt>
      <trkpt lat="43.869569012895226" lon="5.304200006648898">
        <ele>181.34999999999999</ele>
        <time>2025-05-17T10:37:46Z</time>
      </trkpt>
      <trkpt lat="43.867402039468288" lon="5.304068997502327">
        <ele>177.02000000000001</ele>
        <time>2025-05-17T10:37:58Z</time>
      </trkpt>
      <trkpt lat="43.865961022675037" lon="5.304330009967089">
        <ele>174.62</ele>
        <time>2025-05-17T10:38:07Z</time>
      </trkpt>
      <trkpt lat="43.865837976336479" lon="5.304399998858571">
        <ele>174.62</ele>
        <time>2025-05-17T10:38:08Z</time>
      </trkpt>
      <trkpt lat="43.865722976624966" lon="5.304464958608151">
        <ele>174.62</ele>
        <time>2025-05-17T10:38:09Z</time>
      </trkpt>
      <trkpt lat="43.865316035225987" lon="5.304766036570072">
        <ele>174.13999999999999</ele>
        <time>2025-05-17T10:38:14Z</time>
      </trkpt>
      <trkpt lat="43.865169016644359" lon="5.304680038243532">
        <ele>174.13999999999999</ele>
        <time>2025-05-17T10:38:15Z</time>
      </trkpt>
      <trkpt lat="43.865025015547872" lon="5.30469998717308">
        <ele>174.13999999999999</ele>
        <time>2025-05-17T10:38:17Z</time>
      </trkpt>
      <trkpt lat="43.86495603248477" lon="5.304776011034846">
        <ele>174.13999999999999</ele>
        <time>2025-05-17T10:38:18Z</time>
      </trkpt>
      <trkpt lat="43.864911021664739" lon="5.304829990491271">
        <ele>174.62</ele>
        <time>2025-05-17T10:38:19Z</time>
      </trkpt>
      <trkpt lat="43.864911021664739" lon="5.304951025173068">
        <ele>175.09999999999999</ele>
        <time>2025-05-17T10:38:20Z</time>
      </trkpt>
      <trkpt lat="43.864834997802973" lon="5.305114975199103">
        <ele>175.58000000000001</ele>
        <time>2025-05-17T10:38:21Z</time>
      </trkpt>
      <trkpt lat="43.864756962284446" lon="5.305186975747347">
        <ele>176.06</ele>
        <time>2025-05-17T10:38:22Z</time>
      </trkpt>
      <trkpt lat="43.864669036120176" lon="5.305270040407777">
        <ele>176.06</ele>
        <time>2025-05-17T10:38:23Z</time>
      </trkpt>
      <trkpt lat="43.86457297950983" lon="5.305358972400427">
        <ele>176.53999999999999</ele>
        <time>2025-05-17T10:38:24Z</time>
      </trkpt>
      <trkpt lat="43.864016002044082" lon="5.305916033685207">
        <ele>177.02000000000001</ele>
        <time>2025-05-17T10:38:29Z</time>
      </trkpt>
      <trkpt lat="43.863910976797342" lon="5.306070009246469">
        <ele>177.02000000000001</ele>
        <time>2025-05-17T10:38:30Z</time>
      </trkpt>
      <trkpt lat="43.863356010988355" lon="5.306965028867126">
        <ele>177.02000000000001</ele>
        <time>2025-05-17T10:38:36Z</time>
      </trkpt>
      <trkpt lat="43.863062979653478" lon="5.30725596472621">
        <ele>176.53999999999999</ele>
        <time>2025-05-17T10:38:39Z</time>
      </trkpt>
      <trkpt lat="43.862936999648809" lon="5.30731899663806">
        <ele>176.53999999999999</ele>
        <time>2025-05-17T10:38:40Z</time>
      </trkpt>
      <trkpt lat="43.862791992723942" lon="5.307364007458091">
        <ele>176.53999999999999</ele>
        <time>2025-05-17T10:38:41Z</time>
      </trkpt>
      <trkpt lat="43.862025970593095" lon="5.307500967755914">
        <ele>177.02000000000001</ele>
        <time>2025-05-17T10:38:47Z</time>
      </trkpt>
      <trkpt lat="43.861892027780414" lon="5.307481018826366">
        <ele>177.02000000000001</ele>
        <time>2025-05-17T10:38:48Z</time>
      </trkpt>
      <trkpt lat="43.861767975613475" lon="5.3074049949646">
        <ele>177.5</ele>
        <time>2025-05-17T10:38:49Z</time>
      </trkpt>
      <trkpt lat="43.861649036407471" lon="5.307330982759595">
        <ele>177.5</ele>
        <time>2025-05-17T10:38:50Z</time>
      </trkpt>
      <trkpt lat="43.861548034474254" lon="5.307268034666777">
        <ele>177.5</ele>
        <time>2025-05-17T10:38:51Z</time>
      </trkpt>
      <trkpt lat="43.86145600117743" lon="5.307211959734559">
        <ele>177.5</ele>
        <time>2025-05-17T10:38:52Z</time>
      </trkpt>
      <trkpt lat="43.861395986750722" lon="5.307158986106515">
        <ele>177.5</ele>
        <time>2025-05-17T10:38:53Z</time>
      </trkpt>
      <trkpt lat="43.861354999244213" lon="5.307123027741909">
        <ele>177.5</ele>
        <time>2025-05-17T10:38:54Z</time>
      </trkpt>
      <trkpt lat="43.861331027001143" lon="5.307101989164949">
        <ele>177.5</ele>
        <time>2025-05-17T10:38:55Z</time>
      </trkpt>
      <trkpt lat="43.861316023394465" lon="5.307088997215033">
        <ele>177.5</ele>
        <time>2025-05-17T10:38:56Z</time>
      </trkpt>
      <trkpt lat="43.861301019787788" lon="5.306863021105528">
        <ele>177.5</ele>
        <time>2025-05-17T10:39:03Z</time>
      </trkpt>
      <trkpt lat="43.861246034502983" lon="5.306808035820723">
        <ele>177.5</ele>
        <time>2025-05-17T10:39:04Z</time>
      </trkpt>
      <trkpt lat="43.861194988712668" lon="5.306757995858789">
        <ele>177.5</ele>
        <time>2025-05-17T10:39:05Z</time>
      </trkpt>
      <trkpt lat="43.86111200787127" lon="5.306794038042426">
        <ele>177.97999999999999</ele>
        <time>2025-05-17T10:39:06Z</time>
      </trkpt>
      <trkpt lat="43.861052999272943" lon="5.306843994185329">
        <ele>177.97999999999999</ele>
        <time>2025-05-17T10:39:07Z</time>
      </trkpt>
      <trkpt lat="43.861002959311008" lon="5.306982966139913">
        <ele>177.97999999999999</ele>
        <time>2025-05-17T10:39:08Z</time>
      </trkpt>
      <trkpt lat="43.860913021489978" lon="5.307009033858776">
        <ele>178.46000000000001</ele>
        <time>2025-05-17T10:39:09Z</time>
      </trkpt>
      <trkpt lat="43.860807996243238" lon="5.30703904107213">
        <ele>178.46000000000001</ele>
        <time>2025-05-17T10:39:10Z</time>
      </trkpt>
      <trkpt lat="43.860689979046583" lon="5.307072987779975">
        <ele>178.94</ele>
        <time>2025-05-17T10:39:11Z</time>
      </trkpt>
      <trkpt lat="43.860566010698676" lon="5.307109029963613">
        <ele>178.94</ele>
        <time>2025-05-17T10:39:12Z</time>
      </trkpt>
      <trkpt lat="43.860440030694008" lon="5.307145994156599">
        <ele>178.94</ele>
        <time>2025-05-17T10:39:13Z</time>
      </trkpt>
      <trkpt lat="43.860311033204198" lon="5.307182958349586">
        <ele>178.94</ele>
        <time>2025-05-17T10:39:14Z</time>
      </trkpt>
      <trkpt lat="43.859019968658686" lon="5.307569028809667">
        <ele>184.22999999999999</ele>
        <time>2025-05-17T10:39:22Z</time>
      </trkpt>
      <trkpt lat="43.857034966349602" lon="5.308164982125163">
        <ele>183.27000000000001</ele>
        <time>2025-05-17T10:39:32Z</time>
      </trkpt>
      <trkpt lat="43.85513998568058" lon="5.308730006217957">
        <ele>184.22999999999999</ele>
        <time>2025-05-17T10:39:42Z</time>
      </trkpt>
      <trkpt lat="43.853010982275009" lon="5.309350015595555">
        <ele>190</ele>
        <time>2025-05-17T10:39:54Z</time>
      </trkpt>
      <trkpt lat="43.852849965915084" lon="5.309411035850644">
        <ele>190.47999999999999</ele>
        <time>2025-05-17T10:39:55Z</time>
      </trkpt>
      <trkpt lat="43.852713005617261" lon="5.309497034177184">
        <ele>190.96000000000001</ele>
        <time>2025-05-17T10:39:56Z</time>
      </trkpt>
      <trkpt lat="43.852585013955832" lon="5.309625025838614">
        <ele>190.96000000000001</ele>
        <time>2025-05-17T10:39:57Z</time>
      </trkpt>
      <trkpt lat="43.852479988709092" lon="5.309776989743114">
        <ele>191.44</ele>
        <time>2025-05-17T10:39:58Z</time>
      </trkpt>
      <trkpt lat="43.852379992604256" lon="5.309944041073322">
        <ele>191.91999999999999</ele>
        <time>2025-05-17T10:39:59Z</time>
      </trkpt>
      <trkpt lat="43.852277984842658" lon="5.310114026069641">
        <ele>192.40000000000001</ele>
        <time>2025-05-17T10:40:00Z</time>
      </trkpt>
      <trkpt lat="43.851256985217333" lon="5.311502991244197">
        <ele>196.72999999999999</ele>
        <time>2025-05-17T10:40:09Z</time>
      </trkpt>
      <trkpt lat="43.851022962480783" lon="5.311759980395436">
        <ele>197.21000000000001</ele>
        <time>2025-05-17T10:40:11Z</time>
      </trkpt>
      <trkpt lat="43.850890025496483" lon="5.311859976500273">
        <ele>197.21000000000001</ele>
        <time>2025-05-17T10:40:12Z</time>
      </trkpt>
      <trkpt lat="43.850751975551248" lon="5.311926025897265">
        <ele>197.69</ele>
        <time>2025-05-17T10:40:13Z</time>
      </trkpt>
      <trkpt lat="43.850194998085499" lon="5.312076983973384">
        <ele>198.65000000000001</ele>
        <time>2025-05-17T10:40:17Z</time>
      </trkpt>
      <trkpt lat="43.850055020302534" lon="5.312064997851849">
        <ele>198.16999999999999</ele>
        <time>2025-05-17T10:40:18Z</time>
      </trkpt>
      <trkpt lat="43.849912025034428" lon="5.312015963718295">
        <ele>198.16999999999999</ele>
        <time>2025-05-17T10:40:19Z</time>
      </trkpt>
      <trkpt lat="43.849769029766321" lon="5.311966007575393">
        <ele>198.16999999999999</ele>
        <time>2025-05-17T10:40:20Z</time>
      </trkpt>
      <trkpt lat="43.849612036719918" lon="5.311911022290587">
        <ele>198.16999999999999</ele>
        <time>2025-05-17T10:40:21Z</time>
      </trkpt>
      <trkpt lat="43.849498964846134" lon="5.311786970123649">
        <ele>198.16999999999999</ele>
        <time>2025-05-17T10:40:22Z</time>
      </trkpt>
      <trkpt lat="43.849377008154988" lon="5.311652021482587">
        <ele>198.65000000000001</ele>
        <time>2025-05-17T10:40:23Z</time>
      </trkpt>
      <trkpt lat="43.849247004836798" lon="5.3115080203861">
        <ele>199.61000000000001</ele>
        <time>2025-05-17T10:40:24Z</time>
      </trkpt>
      <trkpt lat="43.849117001518607" lon="5.311356978490949">
        <ele>200.56999999999999</ele>
        <time>2025-05-17T10:40:25Z</time>
      </trkpt>
      <trkpt lat="43.848720034584403" lon="5.310937967151403">
        <ele>202.49000000000001</ele>
        <time>2025-05-17T10:40:28Z</time>
      </trkpt>
      <trkpt lat="43.84856203570962" lon="5.310808969661593">
        <ele>202.97999999999999</ele>
        <time>2025-05-17T10:40:29Z</time>
      </trkpt>
      <trkpt lat="43.847464006394148" lon="5.310213016346097">
        <ele>207.78</ele>
        <time>2025-05-17T10:40:35Z</time>
      </trkpt>
      <trkpt lat="43.847303995862603" lon="5.31017797999084">
        <ele>208.74000000000001</ele>
        <time>2025-05-17T10:40:36Z</time>
      </trkpt>
      <trkpt lat="43.84714599698782" lon="5.310156019404531">
        <ele>209.22</ele>
        <time>2025-05-17T10:40:37Z</time>
      </trkpt>
      <trkpt lat="43.846987998113036" lon="5.310172028839588">
        <ele>210.19</ele>
        <time>2025-05-17T10:40:38Z</time>
      </trkpt>
      <trkpt lat="43.846828993409872" lon="5.310187032446265">
        <ele>210.66999999999999</ele>
        <time>2025-05-17T10:40:39Z</time>
      </trkpt>
      <trkpt lat="43.846666971221566" lon="5.310225002467632">
        <ele>211.15000000000001</ele>
        <time>2025-05-17T10:40:40Z</time>
      </trkpt>
      <trkpt lat="43.84583598934114" lon="5.310365986078978">
        <ele>214.03</ele>
        <time>2025-05-17T10:40:45Z</time>
      </trkpt>
      <trkpt lat="43.845259984955192" lon="5.310381995514035">
        <ele>215.47</ele>
        <time>2025-05-17T10:40:49Z</time>
      </trkpt>
      <trkpt lat="43.845123024657369" lon="5.310436980798841">
        <ele>215.94999999999999</ele>
        <time>2025-05-17T10:40:50Z</time>
      </trkpt>
      <trkpt lat="43.844324983656406" lon="5.310831014066935">
        <ele>220.28</ele>
        <time>2025-05-17T10:40:56Z</time>
      </trkpt>
      <trkpt lat="43.844207972288132" lon="5.310866972431541">
        <ele>221.24000000000001</ele>
        <time>2025-05-17T10:40:57Z</time>
      </trkpt>
      <trkpt lat="43.844082998111844" lon="5.310880970209837">
        <ele>221.72</ele>
        <time>2025-05-17T10:40:58Z</time>
      </trkpt>
      <trkpt lat="43.843956012278795" lon="5.310849035158753">
        <ele>222.68000000000001</ele>
        <time>2025-05-17T10:40:59Z</time>
      </trkpt>
      <trkpt lat="43.843826008960605" lon="5.310813998803496">
        <ele>223.16</ele>
        <time>2025-05-17T10:41:00Z</time>
      </trkpt>
      <trkpt lat="43.842780031263828" lon="5.310487020760775">
        <ele>226.53</ele>
        <time>2025-05-17T10:41:07Z</time>
      </trkpt>
      <trkpt lat="43.842640975490212" lon="5.310385012999177">
        <ele>226.53</ele>
        <time>2025-05-17T10:41:08Z</time>
      </trkpt>
      <trkpt lat="43.842512983828783" lon="5.310276970267296">
        <ele>226.53</ele>
        <time>2025-05-17T10:41:09Z</time>
      </trkpt>
      <trkpt lat="43.842403013259172" lon="5.310136992484331">
        <ele>226.53</ele>
        <time>2025-05-17T10:41:10Z</time>
      </trkpt>
      <trkpt lat="43.842298993840814" lon="5.309972036629915">
        <ele>227.00999999999999</ele>
        <time>2025-05-17T10:41:11Z</time>
      </trkpt>
      <trkpt lat="43.842109981924295" lon="5.309592001140118">
        <ele>227.49000000000001</ele>
        <time>2025-05-17T10:41:13Z</time>
      </trkpt>
      <trkpt lat="43.842025995254517" lon="5.309387985616922">
        <ele>227.97</ele>
        <time>2025-05-17T10:41:14Z</time>
      </trkpt>
      <trkpt lat="43.84194502606988" lon="5.309175001457334">
        <ele>227.97</ele>
        <time>2025-05-17T10:41:15Z</time>
      </trkpt>
      <trkpt lat="43.841651994735003" lon="5.307842027395964">
        <ele>232.30000000000001</ele>
        <time>2025-05-17T10:41:21Z</time>
      </trkpt>
      <trkpt lat="43.841577982529998" lon="5.3076639957726">
        <ele>232.78</ele>
        <time>2025-05-17T10:41:22Z</time>
      </trkpt>
      <trkpt lat="43.841499025002122" lon="5.307473978027701">
        <ele>233.25999999999999</ele>
        <time>2025-05-17T10:41:23Z</time>
      </trkpt>
      <trkpt lat="43.841387964785099" lon="5.307301981374621">
        <ele>234.22</ele>
        <time>2025-05-17T10:41:24Z</time>
      </trkpt>
      <trkpt lat="43.841268019750714" lon="5.307139959186316">
        <ele>234.69999999999999</ele>
        <time>2025-05-17T10:41:25Z</time>
      </trkpt>
      <trkpt lat="43.841031985357404" lon="5.306858997792006">
        <ele>236.62</ele>
        <time>2025-05-17T10:41:27Z</time>
      </trkpt>
      <trkpt lat="43.840918997302651" lon="5.306738968938589">
        <ele>237.09999999999999</ele>
        <time>2025-05-17T10:41:28Z</time>
      </trkpt>
      <trkpt lat="43.840778013691306" lon="5.30667400918901">
        <ele>237.58000000000001</ele>
        <time>2025-05-17T10:41:29Z</time>
      </trkpt>
      <trkpt lat="43.840616997331381" lon="5.306624975055456">
        <ele>238.06</ele>
        <time>2025-05-17T10:41:30Z</time>
      </trkpt>
      <trkpt lat="43.84044298902154" lon="5.306607037782669">
        <ele>238.53999999999999</ele>
        <time>2025-05-17T10:41:31Z</time>
      </trkpt>
      <trkpt lat="43.839790038764477" lon="5.306547023355961">
        <ele>240.94999999999999</ele>
        <time>2025-05-17T10:41:35Z</time>
      </trkpt>
      <trkpt lat="43.83964603766799" lon="5.306559009477496">
        <ele>241.43000000000001</ele>
        <time>2025-05-17T10:41:36Z</time>
      </trkpt>
      <trkpt lat="43.839502958580852" lon="5.306616006419063">
        <ele>242.38999999999999</ele>
        <time>2025-05-17T10:41:37Z</time>
      </trkpt>
      <trkpt lat="43.839350994676352" lon="5.306677026674151">
        <ele>243.34999999999999</ele>
        <time>2025-05-17T10:41:38Z</time>
      </trkpt>
      <trkpt lat="43.83919701911509" lon="5.306743998080492">
        <ele>244.31</ele>
        <time>2025-05-17T10:41:39Z</time>
      </trkpt>
      <trkpt lat="43.839041031897068" lon="5.306823961436749">
        <ele>244.78999999999999</ele>
        <time>2025-05-17T10:41:40Z</time>
      </trkpt>
      <trkpt lat="43.838879009708762" lon="5.306906020268798">
        <ele>245.75</ele>
        <time>2025-05-17T10:41:41Z</time>
      </trkpt>
      <trkpt lat="43.837518962100148" lon="5.307670030742884">
        <ele>253.44</ele>
        <time>2025-05-17T10:41:49Z</time>
      </trkpt>
      <trkpt lat="43.837382001802325" lon="5.307800034061074">
        <ele>254.41</ele>
        <time>2025-05-17T10:41:50Z</time>
      </trkpt>
      <trkpt lat="43.837272031232715" lon="5.307958032935858">
        <ele>254.88999999999999</ele>
        <time>2025-05-17T10:41:51Z</time>
      </trkpt>
      <trkpt lat="43.837203970178962" lon="5.308134974911809">
        <ele>255.84999999999999</ele>
        <time>2025-05-17T10:41:52Z</time>
      </trkpt>
      <trkpt lat="43.837185027077794" lon="5.308296997100115">
        <ele>256.32999999999998</ele>
        <time>2025-05-17T10:41:53Z</time>
      </trkpt>
      <trkpt lat="43.837181003764272" lon="5.30848097987473">
        <ele>257.29000000000002</ele>
        <time>2025-05-17T10:41:54Z</time>
      </trkpt>
      <trkpt lat="43.837175974622369" lon="5.30869203619659">
        <ele>258.25</ele>
        <time>2025-05-17T10:41:55Z</time>
      </trkpt>
      <trkpt lat="43.837170023471117" lon="5.308916000649333">
        <ele>258.73000000000002</ele>
        <time>2025-05-17T10:41:56Z</time>
      </trkpt>
      <trkpt lat="43.837148984894156" lon="5.309139965102077">
        <ele>259.20999999999998</ele>
        <time>2025-05-17T10:41:57Z</time>
      </trkpt>
      <trkpt lat="43.837081007659435" lon="5.309379016980529">
        <ele>259.20999999999998</ele>
        <time>2025-05-17T10:41:58Z</time>
      </trkpt>
      <trkpt lat="43.836974976584315" lon="5.309555036947131">
        <ele>259.69</ele>
        <time>2025-05-17T10:41:59Z</time>
      </trkpt>
      <trkpt lat="43.836837010458112" lon="5.309698032215238">
        <ele>259.69</ele>
        <time>2025-05-17T10:42:00Z</time>
      </trkpt>
      <trkpt lat="43.836700972169638" lon="5.309819988906384">
        <ele>259.69</ele>
        <time>2025-05-17T10:42:01Z</time>
      </trkpt>
      <trkpt lat="43.836581027135253" lon="5.309929037466645">
        <ele>260.17000000000002</ele>
        <time>2025-05-17T10:42:02Z</time>
      </trkpt>
      <trkpt lat="43.83646996691823" lon="5.310062980279326">
        <ele>260.17000000000002</ele>
        <time>2025-05-17T10:42:03Z</time>
      </trkpt>
      <trkpt lat="43.836382962763309" lon="5.310239000245929">
        <ele>260.17000000000002</ele>
        <time>2025-05-17T10:42:04Z</time>
      </trkpt>
      <trkpt lat="43.836289001628757" lon="5.310426000505686">
        <ele>260.17000000000002</ele>
        <time>2025-05-17T10:42:05Z</time>
      </trkpt>
      <trkpt lat="43.836178025230765" lon="5.310597997158766">
        <ele>260.17000000000002</ele>
        <time>2025-05-17T10:42:06Z</time>
      </trkpt>
      <trkpt lat="43.836048021912575" lon="5.310746021568775">
        <ele>260.64999999999998</ele>
        <time>2025-05-17T10:42:07Z</time>
      </trkpt>
      <trkpt lat="43.835883988067508" lon="5.310844006016851">
        <ele>261.13999999999999</ele>
        <time>2025-05-17T10:42:08Z</time>
      </trkpt>
      <trkpt lat="43.835710985586047" lon="5.31094903126359">
        <ele>261.62</ele>
        <time>2025-05-17T10:42:09Z</time>
      </trkpt>
      <trkpt lat="43.833984984084964" lon="5.312018981203437">
        <ele>269.79000000000002</ele>
        <time>2025-05-17T10:42:19Z</time>
      </trkpt>
      <trkpt lat="43.833835031837225" lon="5.312144961208105">
        <ele>270.75</ele>
        <time>2025-05-17T10:42:20Z</time>
      </trkpt>
      <trkpt lat="43.833712991327047" lon="5.312302960082889">
        <ele>271.70999999999998</ele>
        <time>2025-05-17T10:42:21Z</time>
      </trkpt>
      <trkpt lat="43.833590028807521" lon="5.312460958957672">
        <ele>272.67000000000002</ele>
        <time>2025-05-17T10:42:22Z</time>
      </trkpt>
      <trkpt lat="43.833467988297343" lon="5.312618035823107">
        <ele>274.11000000000001</ele>
        <time>2025-05-17T10:42:23Z</time>
      </trkpt>
      <trkpt lat="43.833347037434578" lon="5.31277502886951">
        <ele>275.56</ele>
        <time>2025-05-17T10:42:24Z</time>
      </trkpt>
      <trkpt lat="43.833222985267639" lon="5.312935039401054">
        <ele>277</ele>
        <time>2025-05-17T10:42:25Z</time>
      </trkpt>
      <trkpt lat="43.832935988903046" lon="5.313223041594029">
        <ele>279.88</ele>
        <time>2025-05-17T10:42:27Z</time>
      </trkpt>
      <trkpt lat="43.832786958664656" lon="5.313371988013387">
        <ele>280.83999999999997</ele>
        <time>2025-05-17T10:42:28Z</time>
      </trkpt>
      <trkpt lat="43.832614962011576" lon="5.313483970239759">
        <ele>282.27999999999997</ele>
        <time>2025-05-17T10:42:29Z</time>
      </trkpt>
      <trkpt lat="43.830874040722847" lon="5.31464796513319">
        <ele>295.74000000000001</ele>
        <time>2025-05-17T10:42:39Z</time>
      </trkpt>
      <trkpt lat="43.830347992479801" lon="5.314997993409634">
        <ele>301.02999999999997</ele>
        <time>2025-05-17T10:42:43Z</time>
      </trkpt>
      <trkpt lat="43.830195022746921" lon="5.315001010894775">
        <ele>301.99000000000001</ele>
        <time>2025-05-17T10:42:44Z</time>
      </trkpt>
      <trkpt lat="43.830048004165292" lon="5.314980978146195">
        <ele>302.94999999999999</ele>
        <time>2025-05-17T10:42:45Z</time>
      </trkpt>
      <trkpt lat="43.829898973926902" lon="5.314944013953209">
        <ele>304.38999999999999</ele>
        <time>2025-05-17T10:42:46Z</time>
      </trkpt>
      <trkpt lat="43.829752039164305" lon="5.31486002728343">
        <ele>305.36000000000001</ele>
        <time>2025-05-17T10:42:47Z</time>
      </trkpt>
      <trkpt lat="43.829597979784012" lon="5.314759025350213">
        <ele>306.31999999999999</ele>
        <time>2025-05-17T10:42:48Z</time>
      </trkpt>
      <trkpt lat="43.829435035586357" lon="5.314651988446713">
        <ele>307.27999999999997</ele>
        <time>2025-05-17T10:42:49Z</time>
      </trkpt>
      <trkpt lat="43.829090036451817" lon="5.314471023157239">
        <ele>309.68000000000001</ele>
        <time>2025-05-17T10:42:51Z</time>
      </trkpt>
      <trkpt lat="43.828913010656834" lon="5.314401034265757">
        <ele>310.63999999999999</ele>
        <time>2025-05-17T10:42:52Z</time>
      </trkpt>
      <trkpt lat="43.827784974128008" lon="5.314060980454087">
        <ele>319.30000000000001</ele>
        <time>2025-05-17T10:42:59Z</time>
      </trkpt>
      <trkpt lat="43.82763896137476" lon="5.313970958814025">
        <ele>319.77999999999997</ele>
        <time>2025-05-17T10:43:00Z</time>
      </trkpt>
      <trkpt lat="43.82755103521049" lon="5.313844978809357">
        <ele>320.74000000000001</ele>
        <time>2025-05-17T10:43:01Z</time>
      </trkpt>
      <trkpt lat="43.827459001913667" lon="5.313682034611702">
        <ele>321.69999999999999</ele>
        <time>2025-05-17T10:43:02Z</time>
      </trkpt>
      <trkpt lat="43.827382978051901" lon="5.313488999381661">
        <ele>322.66000000000003</ele>
        <time>2025-05-17T10:43:03Z</time>
      </trkpt>
      <trkpt lat="43.827303014695644" lon="5.313285989686847">
        <ele>323.62</ele>
        <time>2025-05-17T10:43:04Z</time>
      </trkpt>
      <trkpt lat="43.826448982581496" lon="5.31142202205956">
        <ele>330.82999999999998</ele>
        <time>2025-05-17T10:43:13Z</time>
      </trkpt>
      <trkpt lat="43.826248990371823" lon="5.310836965218186">
        <ele>333.70999999999998</ele>
        <time>2025-05-17T10:43:16Z</time>
      </trkpt>
      <trkpt lat="43.826204985380173" lon="5.310669997707009">
        <ele>334.68000000000001</ele>
        <time>2025-05-17T10:43:17Z</time>
      </trkpt>
      <trkpt lat="43.826171038672328" lon="5.310517027974129">
        <ele>335.63999999999999</ele>
        <time>2025-05-17T10:43:18Z</time>
      </trkpt>
      <trkpt lat="43.826140025630593" lon="5.310376966372132">
        <ele>336.60000000000002</ele>
        <time>2025-05-17T10:43:19Z</time>
      </trkpt>
      <trkpt lat="43.826085962355137" lon="5.310257021337748">
        <ele>337.07999999999998</ele>
        <time>2025-05-17T10:43:20Z</time>
      </trkpt>
      <trkpt lat="43.826030977070332" lon="5.310140009969473">
        <ele>337.56</ele>
        <time>2025-05-17T10:43:21Z</time>
      </trkpt>
      <trkpt lat="43.82583299651742" lon="5.309858964756131">
        <ele>339.48000000000002</ele>
        <time>2025-05-17T10:43:24Z</time>
      </trkpt>
      <trkpt lat="43.825759990140796" lon="5.309781013056636">
        <ele>339.95999999999998</ele>
        <time>2025-05-17T10:43:25Z</time>
      </trkpt>
      <trkpt lat="43.825686983764172" lon="5.309702977538109">
        <ele>340.44</ele>
        <time>2025-05-17T10:43:26Z</time>
      </trkpt>
      <trkpt lat="43.825452039018273" lon="5.309531986713409">
        <ele>341.88999999999999</ele>
        <time>2025-05-17T10:43:29Z</time>
      </trkpt>
      <trkpt lat="43.825241988524795" lon="5.309386979788542">
        <ele>343.81</ele>
        <time>2025-05-17T10:43:32Z</time>
      </trkpt>
      <trkpt lat="43.825191026553512" lon="5.309352027252317">
        <ele>344.76999999999998</ele>
        <time>2025-05-17T10:43:33Z</time>
      </trkpt>
      <trkpt lat="43.825144004076719" lon="5.309319002553821">
        <ele>345.73000000000002</ele>
        <time>2025-05-17T10:43:34Z</time>
      </trkpt>
      <trkpt lat="43.825107039883733" lon="5.309293018653989">
        <ele>346.69</ele>
        <time>2025-05-17T10:43:35Z</time>
      </trkpt>
      <trkpt lat="43.825078038498759" lon="5.309177013114095">
        <ele>347.64999999999998</ele>
        <time>2025-05-17T10:43:36Z</time>
      </trkpt>
      <trkpt lat="43.82505901157856" lon="5.309096965938807">
        <ele>348.13</ele>
        <time>2025-05-17T10:43:37Z</time>
      </trkpt>
      <trkpt lat="43.82503897882998" lon="5.309006022289395">
        <ele>349.10000000000002</ele>
        <time>2025-05-17T10:43:38Z</time>
      </trkpt>
      <trkpt lat="43.8249740190804" lon="5.308717014268041">
        <ele>351.01999999999998</ele>
        <time>2025-05-17T10:43:41Z</time>
      </trkpt>
      <trkpt lat="43.82495398633182" lon="5.308621963486075">
        <ele>351.5</ele>
        <time>2025-05-17T10:43:42Z</time>
      </trkpt>
      <trkpt lat="43.824933031573892" lon="5.308521967381239">
        <ele>351.5</ele>
        <time>2025-05-17T10:43:43Z</time>
      </trkpt>
      <trkpt lat="43.82491098716855" lon="5.30841501429677">
        <ele>351.5</ele>
        <time>2025-05-17T10:43:44Z</time>
      </trkpt>
      <trkpt lat="43.824896989390254" lon="5.308315018191934">
        <ele>351.5</ele>
        <time>2025-05-17T10:43:45Z</time>
      </trkpt>
      <trkpt lat="43.824785007163882" lon="5.307946968823671">
        <ele>351.98000000000002</ele>
        <time>2025-05-17T10:43:49Z</time>
      </trkpt>
      <trkpt lat="43.824756005778909" lon="5.307854013517499">
        <ele>352.45999999999998</ele>
        <time>2025-05-17T10:43:50Z</time>
      </trkpt>
      <trkpt lat="43.824718035757542" lon="5.307773966342211">
        <ele>352.45999999999998</ele>
        <time>2025-05-17T10:43:51Z</time>
      </trkpt>
      <trkpt lat="43.824626002460718" lon="5.307628959417343">
        <ele>352.94</ele>
        <time>2025-05-17T10:43:53Z</time>
      </trkpt>
      <trkpt lat="43.824581997469068" lon="5.307559976354241">
        <ele>352.94</ele>
        <time>2025-05-17T10:43:54Z</time>
      </trkpt>
      <trkpt lat="43.824470015242696" lon="5.30738496221602">
        <ele>352.94</ele>
        <time>2025-05-17T10:43:57Z</time>
      </trkpt>
      <trkpt lat="43.824419975280762" lon="5.30714800581336">
        <ele>352.94</ele>
        <time>2025-05-17T10:44:00Z</time>
      </trkpt>
      <trkpt lat="43.824401032179594" lon="5.307098971679807">
        <ele>352.94</ele>
        <time>2025-05-17T10:44:01Z</time>
      </trkpt>
      <trkpt lat="43.824377981945872" lon="5.30704096890986">
        <ele>352.45999999999998</ele>
        <time>2025-05-17T10:44:02Z</time>
      </trkpt>
      <trkpt lat="43.824327019974589" lon="5.307027976959944">
        <ele>351.98000000000002</ele>
        <time>2025-05-17T10:44:03Z</time>
      </trkpt>
      <trkpt lat="43.824291983619332" lon="5.30701900832355">
        <ele>351.5</ele>
        <time>2025-05-17T10:44:04Z</time>
      </trkpt>
      <trkpt lat="43.824267005547881" lon="5.30708103440702">
        <ele>351.01999999999998</ele>
        <time>2025-05-17T10:44:05Z</time>
      </trkpt>
      <trkpt lat="43.824168015271425" lon="5.307078016921878">
        <ele>351.01999999999998</ele>
        <time>2025-05-17T10:44:06Z</time>
      </trkpt>
      <trkpt lat="43.824123004451394" lon="5.307052033022046">
        <ele>350.54000000000002</ele>
        <time>2025-05-17T10:44:07Z</time>
      </trkpt>
      <trkpt lat="43.824071958661079" lon="5.307022025808692">
        <ele>350.54000000000002</ele>
        <time>2025-05-17T10:44:08Z</time>
      </trkpt>
      <trkpt lat="43.824017979204655" lon="5.306990006938577">
        <ele>350.54000000000002</ele>
        <time>2025-05-17T10:44:09Z</time>
      </trkpt>
      <trkpt lat="43.823958970606327" lon="5.3069559764117">
        <ele>350.54000000000002</ele>
        <time>2025-05-17T10:44:10Z</time>
      </trkpt>
      <trkpt lat="43.823727965354919" lon="5.306820021942258">
        <ele>350.54000000000002</ele>
        <time>2025-05-17T10:44:14Z</time>
      </trkpt>
      <trkpt lat="43.823674991726875" lon="5.306789008900523">
        <ele>351.01999999999998</ele>
        <time>2025-05-17T10:44:15Z</time>
      </trkpt>
      <trkpt lat="43.823624029755592" lon="5.306759001687169">
        <ele>350.54000000000002</ele>
        <time>2025-05-17T10:44:16Z</time>
      </trkpt>
      <trkpt lat="43.823572983965278" lon="5.306727988645434">
        <ele>350.54000000000002</ele>
        <time>2025-05-17T10:44:17Z</time>
      </trkpt>
      <trkpt lat="43.823522021993995" lon="5.306698987260461">
        <ele>350.06</ele>
        <time>2025-05-17T10:44:18Z</time>
      </trkpt>
      <trkpt lat="43.823476005345583" lon="5.306665962561965">
        <ele>350.06</ele>
        <time>2025-05-17T10:44:19Z</time>
      </trkpt>
      <trkpt lat="43.82342797704041" lon="5.30663101002574">
        <ele>350.06</ele>
        <time>2025-05-17T10:44:20Z</time>
      </trkpt>
      <trkpt lat="43.823377015069127" lon="5.306594967842102">
        <ele>349.57999999999998</ele>
        <time>2025-05-17T10:44:21Z</time>
      </trkpt>
      <trkpt lat="43.823343990370631" lon="5.306556997820735">
        <ele>349.10000000000002</ele>
        <time>2025-05-17T10:44:22Z</time>
      </trkpt>
      <trkpt lat="43.823299985378981" lon="5.306500000879169">
        <ele>349.10000000000002</ele>
        <time>2025-05-17T10:44:23Z</time>
      </trkpt>
      <trkpt lat="43.82325598038733" lon="5.306440992280841">
        <ele>348.62</ele>
        <time>2025-05-17T10:44:24Z</time>
      </trkpt>
      <trkpt lat="43.823210969567299" lon="5.306380977854133">
        <ele>348.62</ele>
        <time>2025-05-17T10:44:25Z</time>
      </trkpt>
      <trkpt lat="43.823165036737919" lon="5.306320963427424">
        <ele>348.62</ele>
        <time>2025-05-17T10:44:26Z</time>
      </trkpt>
      <trkpt lat="43.823121031746268" lon="5.306262960657477">
        <ele>348.13</ele>
        <time>2025-05-17T10:44:27Z</time>
      </trkpt>
      <trkpt lat="43.822903018444777" lon="5.306011000648141">
        <ele>346.20999999999998</ele>
        <time>2025-05-17T10:44:32Z</time>
      </trkpt>
      <trkpt lat="43.822862030938268" lon="5.305980993434787">
        <ele>345.73000000000002</ele>
        <time>2025-05-17T10:44:33Z</time>
      </trkpt>
      <trkpt lat="43.822823977097869" lon="5.305952997878194">
        <ele>345.25</ele>
        <time>2025-05-17T10:44:34Z</time>
      </trkpt>
      <trkpt lat="43.822786007076502" lon="5.305926008149982">
        <ele>345.25</ele>
        <time>2025-05-17T10:44:35Z</time>
      </trkpt>
      <trkpt lat="43.822701014578342" lon="5.305908992886543">
        <ele>344.76999999999998</ele>
        <time>2025-05-17T10:44:36Z</time>
      </trkpt>
      <trkpt lat="43.822665978223085" lon="5.30594696290791">
        <ele>344.29000000000002</ele>
        <time>2025-05-17T10:44:37Z</time>
      </trkpt>
      <trkpt lat="43.822599006816745" lon="5.306021980941296">
        <ele>344.29000000000002</ele>
        <time>2025-05-17T10:44:39Z</time>
      </trkpt>
      <trkpt lat="43.822560030966997" lon="5.306064980104566">
        <ele>344.29000000000002</ele>
        <time>2025-05-17T10:44:40Z</time>
      </trkpt>
      <trkpt lat="43.822534969076514" lon="5.306129017844796">
        <ele>344.29000000000002</ele>
        <time>2025-05-17T10:44:41Z</time>
      </trkpt>
      <trkpt lat="43.822539998218417" lon="5.306174028664827">
        <ele>344.76999999999998</ele>
        <time>2025-05-17T10:44:42Z</time>
      </trkpt>
      <trkpt lat="43.82254502736032" lon="5.306228008121252">
        <ele>345.25</ele>
        <time>2025-05-17T10:44:43Z</time>
      </trkpt>
      <trkpt lat="43.822550978511572" lon="5.306280981749296">
        <ele>345.25</ele>
        <time>2025-05-17T10:44:44Z</time>
      </trkpt>
      <trkpt lat="43.822576962411404" lon="5.306332027539611">
        <ele>345.73000000000002</ele>
        <time>2025-05-17T10:44:45Z</time>
      </trkpt>
      <trkpt lat="43.822617027908564" lon="5.306366980075836">
        <ele>345.73000000000002</ele>
        <time>2025-05-17T10:44:46Z</time>
      </trkpt>
      <trkpt lat="43.822660027071834" lon="5.306405033916235">
        <ele>346.20999999999998</ele>
        <time>2025-05-17T10:44:47Z</time>
      </trkpt>
      <trkpt lat="43.822960015386343" lon="5.306679038330913">
        <ele>346.69</ele>
        <time>2025-05-17T10:44:53Z</time>
      </trkpt>
      <trkpt lat="43.823002008721232" lon="5.306732011958957">
        <ele>346.69</ele>
        <time>2025-05-17T10:44:54Z</time>
      </trkpt>
      <trkpt lat="43.823048025369644" lon="5.306790014728904">
        <ele>346.69</ele>
        <time>2025-05-17T10:44:55Z</time>
      </trkpt>
      <trkpt lat="43.823097981512547" lon="5.306852962821722">
        <ele>346.69</ele>
        <time>2025-05-17T10:44:56Z</time>
      </trkpt>
      <trkpt lat="43.823148021474481" lon="5.306915994733572">
        <ele>346.69</ele>
        <time>2025-05-17T10:44:57Z</time>
      </trkpt>
      <trkpt lat="43.823197977617383" lon="5.306979026645422">
        <ele>347.17000000000002</ele>
        <time>2025-05-17T10:44:58Z</time>
      </trkpt>
      <trkpt lat="43.823251035064459" lon="5.307045998051763">
        <ele>347.17000000000002</ele>
        <time>2025-05-17T10:44:59Z</time>
      </trkpt>
      <trkpt lat="43.823305014520884" lon="5.307112969458103">
        <ele>347.17000000000002</ele>
        <time>2025-05-17T10:45:00Z</time>
      </trkpt>
      <trkpt lat="43.823573989793658" lon="5.307452017441392">
        <ele>348.13</ele>
        <time>2025-05-17T10:45:06Z</time>
      </trkpt>
      <trkpt lat="43.823600979521871" lon="5.307485964149237">
        <ele>348.62</ele>
        <time>2025-05-17T10:45:07Z</time>
      </trkpt>
      <trkpt lat="43.823621012270451" lon="5.307523012161255">
        <ele>349.10000000000002</ele>
        <time>2025-05-17T10:45:08Z</time>
      </trkpt>
      <trkpt lat="43.823643978685141" lon="5.307569028809667">
        <ele>349.10000000000002</ele>
        <time>2025-05-17T10:45:09Z</time>
      </trkpt>
      <trkpt lat="43.823665017262101" lon="5.307612027972937">
        <ele>348.62</ele>
        <time>2025-05-17T10:45:10Z</time>
      </trkpt>
      <trkpt lat="43.823688989505172" lon="5.307658966630697">
        <ele>348.62</ele>
        <time>2025-05-17T10:45:11Z</time>
      </trkpt>
      <trkpt lat="43.823700975626707" lon="5.307725016027689">
        <ele>348.62</ele>
        <time>2025-05-17T10:45:12Z</time>
      </trkpt>
      <trkpt lat="43.823774987831712" lon="5.307935988530517">
        <ele>347.64999999999998</ele>
        <time>2025-05-17T10:45:15Z</time>
      </trkpt>
      <trkpt lat="43.823803989216685" lon="5.308004971593618">
        <ele>347.17000000000002</ele>
        <time>2025-05-17T10:45:16Z</time>
      </trkpt>
      <trkpt lat="43.82383500225842" lon="5.308076972141862">
        <ele>346.69</ele>
        <time>2025-05-17T10:45:17Z</time>
      </trkpt>
      <trkpt lat="43.823866015300155" lon="5.308152996003628">
        <ele>346.69</ele>
        <time>2025-05-17T10:45:18Z</time>
      </trkpt>
      <trkpt lat="43.823897028341889" lon="5.308232037350535">
        <ele>346.69</ele>
        <time>2025-05-17T10:45:19Z</time>
      </trkpt>
      <trkpt lat="43.823931980878115" lon="5.308318035677075">
        <ele>346.20999999999998</ele>
        <time>2025-05-17T10:45:20Z</time>
      </trkpt>
      <trkpt lat="43.824115041643381" lon="5.308766970410943">
        <ele>345.73000000000002</ele>
        <time>2025-05-17T10:45:25Z</time>
      </trkpt>
      <trkpt lat="43.824158962816" lon="5.308856992051005">
        <ele>346.20999999999998</ele>
        <time>2025-05-17T10:45:26Z</time>
      </trkpt>
      <trkpt lat="43.824419975280762" lon="5.309378011152148">
        <ele>350.54000000000002</ele>
        <time>2025-05-17T10:45:32Z</time>
      </trkpt>
      <trkpt lat="43.824449982494116" lon="5.309468032792211">
        <ele>351.5</ele>
        <time>2025-05-17T10:45:33Z</time>
      </trkpt>
      <trkpt lat="43.824477978050709" lon="5.309551013633609">
        <ele>352.45999999999998</ele>
        <time>2025-05-17T10:45:34Z</time>
      </trkpt>
      <trkpt lat="43.824505973607302" lon="5.309637011960149">
        <ele>353.42000000000002</ele>
        <time>2025-05-17T10:45:35Z</time>
      </trkpt>
      <trkpt lat="43.824535980820656" lon="5.30972502194345">
        <ele>353.89999999999998</ele>
        <time>2025-05-17T10:45:36Z</time>
      </trkpt>
      <trkpt lat="43.824554001912475" lon="5.30981102026999">
        <ele>354.86000000000001</ele>
        <time>2025-05-17T10:45:37Z</time>
      </trkpt>
      <trkpt lat="43.824561964720488" lon="5.309882014989853">
        <ele>355.82999999999998</ele>
        <time>2025-05-17T10:45:38Z</time>
      </trkpt>
      <trkpt lat="43.824569005519152" lon="5.3099400177598">
        <ele>356.79000000000002</ele>
        <time>2025-05-17T10:45:39Z</time>
      </trkpt>
      <trkpt lat="43.824561964720488" lon="5.309981005266309">
        <ele>357.75</ele>
        <time>2025-05-17T10:45:40Z</time>
      </trkpt>
      <trkpt lat="43.824548972770572" lon="5.310016041621566">
        <ele>358.70999999999998</ele>
        <time>2025-05-17T10:45:41Z</time>
      </trkpt>
      <trkpt lat="43.824538998305798" lon="5.310042025521398">
        <ele>359.67000000000002</ele>
        <time>2025-05-17T10:45:42Z</time>
      </trkpt>
      <trkpt lat="43.824482001364231" lon="5.310019981116056">
        <ele>361.11000000000001</ele>
        <time>2025-05-17T10:45:44Z</time>
      </trkpt>
      <trkpt lat="43.824469009414315" lon="5.309958960860968">
        <ele>361.58999999999997</ele>
        <time>2025-05-17T10:45:45Z</time>
      </trkpt>
      <trkpt lat="43.824452999979258" lon="5.309886038303375">
        <ele>362.06999999999999</ele>
        <time>2025-05-17T10:45:46Z</time>
      </trkpt>
      <trkpt lat="43.824420981109142" lon="5.309737008064985">
        <ele>363.51999999999998</ele>
        <time>2025-05-17T10:45:48Z</time>
      </trkpt>
      <trkpt lat="43.824404971674085" lon="5.309662995859981">
        <ele>364</ele>
        <time>2025-05-17T10:45:49Z</time>
      </trkpt>
      <trkpt lat="43.824377981945872" lon="5.309589989483357">
        <ele>364.48000000000002</ele>
        <time>2025-05-17T10:45:50Z</time>
      </trkpt>
      <trkpt lat="43.824346968904138" lon="5.309521006420255">
        <ele>364.48000000000002</ele>
        <time>2025-05-17T10:45:51Z</time>
      </trkpt>
      <trkpt lat="43.824315033853054" lon="5.309448000043631">
        <ele>364.95999999999998</ele>
        <time>2025-05-17T10:45:52Z</time>
      </trkpt>
      <trkpt lat="43.824090985581279" lon="5.309010967612267">
        <ele>366.88</ele>
        <time>2025-05-17T10:45:58Z</time>
      </trkpt>
      <trkpt lat="43.824061984196305" lon="5.308958999812603">
        <ele>366.88</ele>
        <time>2025-05-17T10:45:59Z</time>
      </trkpt>
      <trkpt lat="43.824033988639712" lon="5.30891097150743">
        <ele>367.36000000000001</ele>
        <time>2025-05-17T10:46:00Z</time>
      </trkpt>
      <trkpt lat="43.823979003354907" lon="5.308813992887735">
        <ele>367.83999999999997</ele>
        <time>2025-05-17T10:46:02Z</time>
      </trkpt>
      <trkpt lat="43.823954025283456" lon="5.308769987896085">
        <ele>367.83999999999997</ele>
        <time>2025-05-17T10:46:03Z</time>
      </trkpt>
      <trkpt lat="43.823932986706495" lon="5.308734029531479">
        <ele>367.83999999999997</ele>
        <time>2025-05-17T10:46:04Z</time>
      </trkpt>
      <trkpt lat="43.823759984225035" lon="5.308430017903447">
        <ele>369.75999999999999</ele>
        <time>2025-05-17T10:46:13Z</time>
      </trkpt>
      <trkpt lat="43.823530990630388" lon="5.30802701599896">
        <ele>370.73000000000002</ele>
        <time>2025-05-17T10:46:23Z</time>
      </trkpt>
      <trkpt lat="43.823462007567286" lon="5.307904975488782">
        <ele>372.17000000000002</ele>
        <time>2025-05-17T10:46:33Z</time>
      </trkpt>
      <trkpt lat="43.823435017839074" lon="5.307858036831021">
        <ele>372.17000000000002</ele>
        <time>2025-05-17T10:47:20Z</time>
      </trkpt>
      <trkpt lat="43.823176017031074" lon="5.30753399245441">
        <ele>371.69</ele>
        <time>2025-05-17T10:47:25Z</time>
      </trkpt>
      <trkpt lat="43.823103010654449" lon="5.307497028261423">
        <ele>371.69</ele>
        <time>2025-05-17T10:47:27Z</time>
      </trkpt>
      <trkpt lat="43.822858007624745" lon="5.30744799412787">
        <ele>371.20999999999998</ele>
        <time>2025-05-17T10:47:32Z</time>
      </trkpt>
      <trkpt lat="43.822821965441108" lon="5.307458974421024">
        <ele>371.69</ele>
        <time>2025-05-17T10:47:33Z</time>
      </trkpt>
      <trkpt lat="43.822790030390024" lon="5.30749099329114">
        <ele>372.17000000000002</ele>
        <time>2025-05-17T10:47:34Z</time>
      </trkpt>
      <trkpt lat="43.822777038440108" lon="5.307529969140887">
        <ele>372.17000000000002</ele>
        <time>2025-05-17T10:47:35Z</time>
      </trkpt>
      <trkpt lat="43.822765974327922" lon="5.307561988011003">
        <ele>372.64999999999998</ele>
        <time>2025-05-17T10:47:36Z</time>
      </trkpt>
      <trkpt lat="43.822755999863148" lon="5.307590989395976">
        <ele>372.64999999999998</ele>
        <time>2025-05-17T10:47:37Z</time>
      </trkpt>
      <trkpt lat="43.822662960737944" lon="5.307988040149212">
        <ele>373.61000000000001</ele>
        <time>2025-05-17T10:47:45Z</time>
      </trkpt>
      <trkpt lat="43.822608981281519" lon="5.308410990983248">
        <ele>374.08999999999997</ele>
        <time>2025-05-17T10:47:51Z</time>
      </trkpt>
      <trkpt lat="43.822599006816745" lon="5.308486009016633">
        <ele>374.08999999999997</ele>
        <time>2025-05-17T10:47:52Z</time>
      </trkpt>
      <trkpt lat="43.82258702069521" lon="5.308568989858031">
        <ele>373.61000000000001</ele>
        <time>2025-05-17T10:47:53Z</time>
      </trkpt>
      <trkpt lat="43.822575034573674" lon="5.308649959042668">
        <ele>374.08999999999997</ele>
        <time>2025-05-17T10:47:54Z</time>
      </trkpt>
      <trkpt lat="43.822575034573674" lon="5.308701004832983">
        <ele>374.08999999999997</ele>
        <time>2025-05-17T10:47:55Z</time>
      </trkpt>
      <trkpt lat="43.822575034573674" lon="5.308750960975885">
        <ele>373.61000000000001</ele>
        <time>2025-05-17T10:47:56Z</time>
      </trkpt>
      <trkpt lat="43.822575034573674" lon="5.308785997331142">
        <ele>373.61000000000001</ele>
        <time>2025-05-17T10:47:57Z</time>
      </trkpt>
      <trkpt lat="43.822575034573674" lon="5.308785997331142">
        <ele>374.08999999999997</ele>
        <time>2025-05-17T10:48:09Z</time>
      </trkpt>
      <trkpt lat="43.822575034573674" lon="5.308785997331142">
        <ele>374.08999999999997</ele>
        <time>2025-05-17T10:48:55Z</time>
      </trkpt>
      <trkpt lat="43.822575034573674" lon="5.308785997331142">
        <ele>374.08999999999997</ele>
        <time>2025-05-17T10:49:46Z</time>
      </trkpt>
      <trkpt lat="43.822575034573674" lon="5.309240967035294">
        <ele>376.00999999999999</ele>
        <time>2025-05-17T10:50:04Z</time>
      </trkpt>
      <trkpt lat="43.822575034573674" lon="5.309339035302401">
        <ele>376.97000000000003</ele>
        <time>2025-05-17T10:50:05Z</time>
      </trkpt>
      <trkpt lat="43.822575034573674" lon="5.309485970064998">
        <ele>377.94</ele>
        <time>2025-05-17T10:50:07Z</time>
      </trkpt>
      <trkpt lat="43.822602024301887" lon="5.309602981433272">
        <ele>377.94</ele>
        <time>2025-05-17T10:50:08Z</time>
      </trkpt>
      <trkpt lat="43.822619039565325" lon="5.309677999466658">
        <ele>377.94</ele>
        <time>2025-05-17T10:50:09Z</time>
      </trkpt>
      <trkpt lat="43.822661032900214" lon="5.309937000274658">
        <ele>377.94</ele>
        <time>2025-05-17T10:50:12Z</time>
      </trkpt>
      <trkpt lat="43.822677964344621" lon="5.309992991387844">
        <ele>377.94</ele>
        <time>2025-05-17T10:50:13Z</time>
      </trkpt>
      <trkpt lat="43.822951968759298" lon="5.310866972431541">
        <ele>379.86000000000001</ele>
        <time>2025-05-17T10:50:23Z</time>
      </trkpt>
      <trkpt lat="43.822985999286175" lon="5.31094903126359">
        <ele>380.33999999999997</ele>
        <time>2025-05-17T10:50:24Z</time>
      </trkpt>
      <trkpt lat="43.823295962065458" lon="5.311625031754375">
        <ele>385.14999999999998</ele>
        <time>2025-05-17T10:50:31Z</time>
      </trkpt>
      <trkpt lat="43.823348013684154" lon="5.311760986223817">
        <ele>385.63</ele>
        <time>2025-05-17T10:50:32Z</time>
      </trkpt>
      <trkpt lat="43.823364023119211" lon="5.311860982328653">
        <ele>386.11000000000001</ele>
        <time>2025-05-17T10:50:33Z</time>
      </trkpt>
      <trkpt lat="43.823381960391998" lon="5.311969025060535">
        <ele>386.58999999999997</ele>
        <time>2025-05-17T10:50:34Z</time>
      </trkpt>
      <trkpt lat="43.823383972048759" lon="5.312056029215455">
        <ele>387.06999999999999</ele>
        <time>2025-05-17T10:50:35Z</time>
      </trkpt>
      <trkpt lat="43.823367040604353" lon="5.312159964814782">
        <ele>387.55000000000001</ele>
        <time>2025-05-17T10:50:36Z</time>
      </trkpt>
      <trkpt lat="43.823348013684154" lon="5.312271025031805">
        <ele>388.50999999999999</ele>
        <time>2025-05-17T10:50:37Z</time>
      </trkpt>
      <trkpt lat="43.823231002315879" lon="5.31296999193728">
        <ele>389.94999999999999</ele>
        <time>2025-05-17T10:50:42Z</time>
      </trkpt>
      <trkpt lat="43.823199989274144" lon="5.313132014125586">
        <ele>390.91000000000003</ele>
        <time>2025-05-17T10:50:43Z</time>
      </trkpt>
      <trkpt lat="43.823105022311211" lon="5.314733041450381">
        <ele>396.68000000000001</ele>
        <time>2025-05-17T10:50:51Z</time>
      </trkpt>
      <trkpt lat="43.823091024532914" lon="5.315127996727824">
        <ele>399.07999999999998</ele>
        <time>2025-05-17T10:50:53Z</time>
      </trkpt>
      <trkpt lat="43.823007959872484" lon="5.315643986687064">
        <ele>401.97000000000003</ele>
        <time>2025-05-17T10:50:56Z</time>
      </trkpt>
      <trkpt lat="43.82297501899302" lon="5.315752029418945">
        <ele>402.93000000000001</ele>
        <time>2025-05-17T10:50:57Z</time>
      </trkpt>
      <trkpt lat="43.822747031226754" lon="5.316119994968176">
        <ele>408.69999999999999</ele>
        <time>2025-05-17T10:51:02Z</time>
      </trkpt>
      <trkpt lat="43.822663966566324" lon="5.316210016608238">
        <ele>409.66000000000003</ele>
        <time>2025-05-17T10:51:03Z</time>
      </trkpt>
      <trkpt lat="43.822589032351971" lon="5.316291991621256">
        <ele>410.62</ele>
        <time>2025-05-17T10:51:04Z</time>
      </trkpt>
      <trkpt lat="43.822532035410404" lon="5.316353011876345">
        <ele>411.57999999999998</ele>
        <time>2025-05-17T10:51:05Z</time>
      </trkpt>
      <trkpt lat="43.822430027648807" lon="5.316366003826261">
        <ele>413.01999999999998</ele>
        <time>2025-05-17T10:51:06Z</time>
      </trkpt>
      <trkpt lat="43.822317039594054" lon="5.316338008269668">
        <ele>413.5</ele>
        <time>2025-05-17T10:51:07Z</time>
      </trkpt>
      <trkpt lat="43.822212014347315" lon="5.316186966374517">
        <ele>413.98000000000002</ele>
        <time>2025-05-17T10:51:08Z</time>
      </trkpt>
      <trkpt lat="43.822173960506916" lon="5.316027961671352">
        <ele>414.94999999999999</ele>
        <time>2025-05-17T10:51:09Z</time>
      </trkpt>
      <trkpt lat="43.822133978828788" lon="5.315861999988556">
        <ele>415.91000000000003</ele>
        <time>2025-05-17T10:51:10Z</time>
      </trkpt>
      <trkpt lat="43.82209500297904" lon="5.315702995285392">
        <ele>416.38999999999999</ele>
        <time>2025-05-17T10:51:11Z</time>
      </trkpt>
      <trkpt lat="43.822059966623783" lon="5.315558994188905">
        <ele>417.35000000000002</ele>
        <time>2025-05-17T10:51:12Z</time>
      </trkpt>
      <trkpt lat="43.821978997439146" lon="5.31546201556921">
        <ele>418.31</ele>
        <time>2025-05-17T10:51:13Z</time>
      </trkpt>
      <trkpt lat="43.821867015212774" lon="5.315412981435657">
        <ele>418.31</ele>
        <time>2025-05-17T10:51:14Z</time>
      </trkpt>
      <trkpt lat="43.821739023551345" lon="5.315386997535825">
        <ele>418.79000000000002</ele>
        <time>2025-05-17T10:51:15Z</time>
      </trkpt>
      <trkpt lat="43.821614971384406" lon="5.315414993092418">
        <ele>419.26999999999998</ele>
        <time>2025-05-17T10:51:16Z</time>
      </trkpt>
      <trkpt lat="43.821508018299937" lon="5.315472995862365">
        <ele>420.23000000000002</ele>
        <time>2025-05-17T10:51:17Z</time>
      </trkpt>
      <trkpt lat="43.821419002488256" lon="5.315578021109104">
        <ele>420.70999999999998</ele>
        <time>2025-05-17T10:51:18Z</time>
      </trkpt>
      <trkpt lat="43.821369968354702" lon="5.315714981406927">
        <ele>421.19</ele>
        <time>2025-05-17T10:51:19Z</time>
      </trkpt>
      <trkpt lat="43.821318000555038" lon="5.315867029130459">
        <ele>421.68000000000001</ele>
        <time>2025-05-17T10:51:20Z</time>
      </trkpt>
      <trkpt lat="43.821267038583755" lon="5.316014969721437">
        <ele>422.16000000000003</ele>
        <time>2025-05-17T10:51:21Z</time>
      </trkpt>
      <trkpt lat="43.821152038872242" lon="5.316273970529437">
        <ele>424.07999999999998</ele>
        <time>2025-05-17T10:51:23Z</time>
      </trkpt>
      <trkpt lat="43.82108598947525" lon="5.316368015483022">
        <ele>424.56</ele>
        <time>2025-05-17T10:51:24Z</time>
      </trkpt>
      <trkpt lat="43.820993034169078" lon="5.316431969404221">
        <ele>426</ele>
        <time>2025-05-17T10:51:25Z</time>
      </trkpt>
      <trkpt lat="43.820892032235861" lon="5.316457031294704">
        <ele>426.95999999999998</ele>
        <time>2025-05-17T10:51:26Z</time>
      </trkpt>
      <trkpt lat="43.820796981453896" lon="5.316402968019247">
        <ele>427.92000000000002</ele>
        <time>2025-05-17T10:51:27Z</time>
      </trkpt>
      <trkpt lat="43.820691034197807" lon="5.316329961642623">
        <ele>429.37</ele>
        <time>2025-05-17T10:51:28Z</time>
      </trkpt>
      <trkpt lat="43.820581985637546" lon="5.316249998286367">
        <ele>430.32999999999998</ele>
        <time>2025-05-17T10:51:29Z</time>
      </trkpt>
      <trkpt lat="43.820479977875948" lon="5.316159976646304">
        <ele>431.29000000000002</ele>
        <time>2025-05-17T10:51:30Z</time>
      </trkpt>
      <trkpt lat="43.820379981771111" lon="5.316085964441299">
        <ele>432.25</ele>
        <time>2025-05-17T10:51:31Z</time>
      </trkpt>
      <trkpt lat="43.820265987887979" lon="5.316047994419932">
        <ele>432.73000000000002</ele>
        <time>2025-05-17T10:51:32Z</time>
      </trkpt>
      <trkpt lat="43.82016004063189" lon="5.316070038825274">
        <ele>433.20999999999998</ele>
        <time>2025-05-17T10:51:33Z</time>
      </trkpt>
      <trkpt lat="43.820064989849925" lon="5.316138016059995">
        <ele>433.69</ele>
        <time>2025-05-17T10:51:34Z</time>
      </trkpt>
      <trkpt lat="43.819964993745089" lon="5.316269025206566">
        <ele>434.17000000000002</ele>
        <time>2025-05-17T10:51:35Z</time>
      </trkpt>
      <trkpt lat="43.819862985983491" lon="5.316401962190867">
        <ele>434.64999999999998</ele>
        <time>2025-05-17T10:51:36Z</time>
      </trkpt>
      <trkpt lat="43.818745007738471" lon="5.317916991189122">
        <ele>438.98000000000002</ele>
        <time>2025-05-17T10:51:46Z</time>
      </trkpt>
      <trkpt lat="43.817686038091779" lon="5.319400001317263">
        <ele>440.42000000000002</ele>
        <time>2025-05-17T10:51:55Z</time>
      </trkpt>
      <trkpt lat="43.817425025627017" lon="5.319765033200383">
        <ele>440.42000000000002</ele>
        <time>2025-05-17T10:51:57Z</time>
      </trkpt>
      <trkpt lat="43.817247999832034" lon="5.32014699652791">
        <ele>440.89999999999998</ele>
        <time>2025-05-17T10:51:59Z</time>
      </trkpt>
      <trkpt lat="43.817179016768932" lon="5.320368027314544">
        <ele>440.89999999999998</ele>
        <time>2025-05-17T10:52:00Z</time>
      </trkpt>
      <trkpt lat="43.817111039534211" lon="5.320586962625384">
        <ele>440.89999999999998</ele>
        <time>2025-05-17T10:52:01Z</time>
      </trkpt>
      <trkpt lat="43.816608963534236" lon="5.322193019092083">
        <ele>442.33999999999997</ele>
        <time>2025-05-17T10:52:09Z</time>
      </trkpt>
      <trkpt lat="43.816000018268824" lon="5.32392798922956">
        <ele>438.98000000000002</ele>
        <time>2025-05-17T10:52:17Z</time>
      </trkpt>
      <trkpt lat="43.815892981365323" lon="5.324128987267613">
        <ele>438.01999999999998</ele>
        <time>2025-05-17T10:52:18Z</time>
      </trkpt>
      <trkpt lat="43.815213963389397" lon="5.325122997164726">
        <ele>430.81</ele>
        <time>2025-05-17T10:52:24Z</time>
      </trkpt>
      <trkpt lat="43.815170964226127" lon="5.325273033231497">
        <ele>429.85000000000002</ele>
        <time>2025-05-17T10:52:25Z</time>
      </trkpt>
      <trkpt lat="43.81515302695334" lon="5.325405970215797">
        <ele>428.88999999999999</ele>
        <time>2025-05-17T10:52:26Z</time>
      </trkpt>
      <trkpt lat="43.815167024731636" lon="5.325545025989413">
        <ele>427.44</ele>
        <time>2025-05-17T10:52:27Z</time>
      </trkpt>
      <trkpt lat="43.815209018066525" lon="5.325649967417121">
        <ele>426.48000000000002</ele>
        <time>2025-05-17T10:52:28Z</time>
      </trkpt>
      <trkpt lat="43.815300967544317" lon="5.325773013755679">
        <ele>425.51999999999998</ele>
        <time>2025-05-17T10:52:29Z</time>
      </trkpt>
      <trkpt lat="43.815384032204747" lon="5.325827999040484">
        <ele>424.56</ele>
        <time>2025-05-17T10:52:30Z</time>
      </trkpt>
      <trkpt lat="43.8154970202595" lon="5.325870998203754">
        <ele>424.56</ele>
        <time>2025-05-17T10:52:31Z</time>
      </trkpt>
      <trkpt lat="43.815619982779026" lon="5.325894970446825">
        <ele>423.60000000000002</ele>
        <time>2025-05-17T10:52:32Z</time>
      </trkpt>
      <trkpt lat="43.815747974440455" lon="5.325919026508927">
        <ele>423.12</ele>
        <time>2025-05-17T10:52:33Z</time>
      </trkpt>
      <trkpt lat="43.816331019625068" lon="5.326030002906919">
        <ele>418.31</ele>
        <time>2025-05-17T10:52:39Z</time>
      </trkpt>
      <trkpt lat="43.81638097576797" lon="5.326079959049821">
        <ele>417.82999999999998</ele>
        <time>2025-05-17T10:52:40Z</time>
      </trkpt>
      <trkpt lat="43.816420035436749" lon="5.326128993183374">
        <ele>416.38999999999999</ele>
        <time>2025-05-17T10:52:41Z</time>
      </trkpt>
      <trkpt lat="43.816438978537917" lon="5.326206022873521">
        <ele>415.91000000000003</ele>
        <time>2025-05-17T10:52:42Z</time>
      </trkpt>
      <trkpt lat="43.816460017114878" lon="5.326287997886539">
        <ele>414.94999999999999</ele>
        <time>2025-05-17T10:52:43Z</time>
      </trkpt>
      <trkpt lat="43.816419029608369" lon="5.326406015083194">
        <ele>413.98000000000002</ele>
        <time>2025-05-17T10:52:44Z</time>
      </trkpt>
      <trkpt lat="43.816367983818054" lon="5.326554039493203">
        <ele>413.01999999999998</ele>
        <time>2025-05-17T10:52:45Z</time>
      </trkpt>
      <trkpt lat="43.816312998533249" lon="5.326716983690858">
        <ele>412.06</ele>
        <time>2025-05-17T10:52:46Z</time>
      </trkpt>
      <trkpt lat="43.816257007420063" lon="5.326880011707544">
        <ele>411.10000000000002</ele>
        <time>2025-05-17T10:52:47Z</time>
      </trkpt>
      <trkpt lat="43.816202022135258" lon="5.327039016410708">
        <ele>409.66000000000003</ele>
        <time>2025-05-17T10:52:48Z</time>
      </trkpt>
      <trkpt lat="43.816130021587014" lon="5.327119985595346">
        <ele>408.69999999999999</ele>
        <time>2025-05-17T10:52:49Z</time>
      </trkpt>
      <trkpt lat="43.816059026867151" lon="5.327200032770634">
        <ele>407.74000000000001</ele>
        <time>2025-05-17T10:52:50Z</time>
      </trkpt>
      <trkpt lat="43.815980991348624" lon="5.327269015833736">
        <ele>406.76999999999998</ele>
        <time>2025-05-17T10:52:51Z</time>
      </trkpt>
      <trkpt lat="43.815902033820748" lon="5.327327018603683">
        <ele>406.29000000000002</ele>
        <time>2025-05-17T10:52:52Z</time>
      </trkpt>
      <trkpt lat="43.815822992473841" lon="5.32738502137363">
        <ele>405.81</ele>
        <time>2025-05-17T10:52:53Z</time>
      </trkpt>
      <trkpt lat="43.815744034945965" lon="5.327444029971957">
        <ele>405.81</ele>
        <time>2025-05-17T10:52:54Z</time>
      </trkpt>
      <trkpt lat="43.815501965582371" lon="5.327648967504501">
        <ele>404.37</ele>
        <time>2025-05-17T10:52:57Z</time>
      </trkpt>
      <trkpt lat="43.81543398834765" lon="5.32775198109448">
        <ele>403.88999999999999</ele>
        <time>2025-05-17T10:52:58Z</time>
      </trkpt>
      <trkpt lat="43.815366011112928" lon="5.327852983027697">
        <ele>403.41000000000003</ele>
        <time>2025-05-17T10:52:59Z</time>
      </trkpt>
      <trkpt lat="43.815299039706588" lon="5.327953984960914">
        <ele>402.93000000000001</ele>
        <time>2025-05-17T10:53:00Z</time>
      </trkpt>
      <trkpt lat="43.815259980037808" lon="5.328060016036034">
        <ele>402.44999999999999</ele>
        <time>2025-05-17T10:53:01Z</time>
      </trkpt>
      <trkpt lat="43.815231984481215" lon="5.328170992434025">
        <ele>402.44999999999999</ele>
        <time>2025-05-17T10:53:02Z</time>
      </trkpt>
      <trkpt lat="43.815206000581384" lon="5.328276017680764">
        <ele>402.44999999999999</ele>
        <time>2025-05-17T10:53:03Z</time>
      </trkpt>
      <trkpt lat="43.815181022509933" lon="5.328376013785601">
        <ele>401.97000000000003</ele>
        <time>2025-05-17T10:53:04Z</time>
      </trkpt>
      <trkpt lat="43.815151015296578" lon="5.328666027635336">
        <ele>400.52999999999997</ele>
        <time>2025-05-17T10:53:07Z</time>
      </trkpt>
      <trkpt lat="43.815151015296578" lon="5.328769041225314">
        <ele>399.56999999999999</ele>
        <time>2025-05-17T10:53:08Z</time>
      </trkpt>
      <trkpt lat="43.815184962004423" lon="5.329405982047319">
        <ele>395.72000000000003</ele>
        <time>2025-05-17T10:53:15Z</time>
      </trkpt>
      <trkpt lat="43.815189991146326" lon="5.329468008130789">
        <ele>395.24000000000001</ele>
        <time>2025-05-17T10:53:16Z</time>
      </trkpt>
      <trkpt lat="43.815171970054507" lon="5.329528022557497">
        <ele>394.27999999999997</ele>
        <time>2025-05-17T10:53:17Z</time>
      </trkpt>
      <trkpt lat="43.815130982547998" lon="5.329569010064006">
        <ele>393.80000000000001</ele>
        <time>2025-05-17T10:53:18Z</time>
      </trkpt>
      <trkpt lat="43.81507096812129" lon="5.329559035599232">
        <ele>393.31999999999999</ele>
        <time>2025-05-17T10:53:19Z</time>
      </trkpt>
      <trkpt lat="43.815011037513614" lon="5.329521987587214">
        <ele>392.83999999999997</ele>
        <time>2025-05-17T10:53:20Z</time>
      </trkpt>
      <trkpt lat="43.814967032521963" lon="5.329418973997235">
        <ele>392.36000000000001</ele>
        <time>2025-05-17T10:53:21Z</time>
      </trkpt>
      <trkpt lat="43.814907018095255" lon="5.329274972900748">
        <ele>391.38999999999999</ele>
        <time>2025-05-17T10:53:22Z</time>
      </trkpt>
      <trkpt lat="43.81483300589025" lon="5.329098030924797">
        <ele>390.91000000000003</ele>
        <time>2025-05-17T10:53:23Z</time>
      </trkpt>
      <trkpt lat="43.814517008140683" lon="5.328141991049051">
        <ele>387.06999999999999</ele>
        <time>2025-05-17T10:53:28Z</time>
      </trkpt>
      <trkpt lat="43.81450803950429" lon="5.327964965254068">
        <ele>386.11000000000001</ele>
        <time>2025-05-17T10:53:29Z</time>
      </trkpt>
      <trkpt lat="43.814560007303953" lon="5.327842002734542">
        <ele>385.63</ele>
        <time>2025-05-17T10:53:30Z</time>
      </trkpt>
      <trkpt lat="43.814629996195436" lon="5.327711999416351">
        <ele>385.14999999999998</ele>
        <time>2025-05-17T10:53:31Z</time>
      </trkpt>
      <trkpt lat="43.814699985086918" lon="5.327581996098161">
        <ele>384.66000000000003</ele>
        <time>2025-05-17T10:53:32Z</time>
      </trkpt>
      <trkpt lat="43.814765028655529" lon="5.327460961416364">
        <ele>383.69999999999999</ele>
        <time>2025-05-17T10:53:33Z</time>
      </trkpt>
      <trkpt lat="43.814805010333657" lon="5.327355014160276">
        <ele>382.74000000000001</ele>
        <time>2025-05-17T10:53:34Z</time>
      </trkpt>
      <trkpt lat="43.814793024212122" lon="5.327252000570297">
        <ele>381.77999999999997</ele>
        <time>2025-05-17T10:53:35Z</time>
      </trkpt>
      <trkpt lat="43.814750025048852" lon="5.327172037214041">
        <ele>380.33999999999997</ele>
        <time>2025-05-17T10:53:36Z</time>
      </trkpt>
      <trkpt lat="43.814667966216803" lon="5.327132977545261">
        <ele>379.38</ele>
        <time>2025-05-17T10:53:37Z</time>
      </trkpt>
      <trkpt lat="43.814563024789095" lon="5.327083021402359">
        <ele>378.89999999999998</ele>
        <time>2025-05-17T10:53:38Z</time>
      </trkpt>
      <trkpt lat="43.814336964860559" lon="5.326973972842097">
        <ele>376.97000000000003</ele>
        <time>2025-05-17T10:53:40Z</time>
      </trkpt>
      <trkpt lat="43.814248032867908" lon="5.326908007264137">
        <ele>376.49000000000001</ele>
        <time>2025-05-17T10:53:41Z</time>
      </trkpt>
      <trkpt lat="43.814142001792789" lon="5.326802982017398">
        <ele>375.52999999999997</ele>
        <time>2025-05-17T10:53:42Z</time>
      </trkpt>
      <trkpt lat="43.814121969044209" lon="5.326752020046115">
        <ele>375.05000000000001</ele>
        <time>2025-05-17T10:53:43Z</time>
      </trkpt>
      <trkpt lat="43.814079975709319" lon="5.326642971485853">
        <ele>374.56999999999999</ele>
        <time>2025-05-17T10:53:44Z</time>
      </trkpt>
      <trkpt lat="43.81388702429831" lon="5.326150031760335">
        <ele>372.17000000000002</ele>
        <time>2025-05-17T10:53:48Z</time>
      </trkpt>
      <trkpt lat="43.813840001821518" lon="5.326028997078538">
        <ele>371.69</ele>
        <time>2025-05-17T10:53:49Z</time>
      </trkpt>
      <trkpt lat="43.813799014315009" lon="5.325922966003418">
        <ele>371.20999999999998</ele>
        <time>2025-05-17T10:53:50Z</time>
      </trkpt>
      <trkpt lat="43.813735982403159" lon="5.325838979333639">
        <ele>370.73000000000002</ele>
        <time>2025-05-17T10:53:51Z</time>
      </trkpt>
      <trkpt lat="43.813683008775115" lon="5.325767984613776">
        <ele>370.24000000000001</ele>
        <time>2025-05-17T10:53:52Z</time>
      </trkpt>
      <trkpt lat="43.813606984913349" lon="5.325744012370706">
        <ele>369.75999999999999</ele>
        <time>2025-05-17T10:53:53Z</time>
      </trkpt>
      <trkpt lat="43.813533978536725" lon="5.325735965743661">
        <ele>369.27999999999997</ele>
        <time>2025-05-17T10:53:54Z</time>
      </trkpt>
      <trkpt lat="43.81345996633172" lon="5.325745018199086">
        <ele>369.27999999999997</ele>
        <time>2025-05-17T10:53:55Z</time>
      </trkpt>
      <trkpt lat="43.813396012410522" lon="5.325803020969033">
        <ele>369.27999999999997</ele>
        <time>2025-05-17T10:53:56Z</time>
      </trkpt>
      <trkpt lat="43.8133280351758" lon="5.325864041224122">
        <ele>369.27999999999997</ele>
        <time>2025-05-17T10:53:57Z</time>
      </trkpt>
      <trkpt lat="43.813261985778809" lon="5.325939981266856">
        <ele>369.27999999999997</ele>
        <time>2025-05-17T10:53:58Z</time>
      </trkpt>
      <trkpt lat="43.813255028799176" lon="5.326051963493228">
        <ele>368.80000000000001</ele>
        <time>2025-05-17T10:53:59Z</time>
      </trkpt>
      <trkpt lat="43.813248993828893" lon="5.326168974861503">
        <ele>368.80000000000001</ele>
        <time>2025-05-17T10:54:00Z</time>
      </trkpt>
      <trkpt lat="43.81324103102088" lon="5.326309036463499">
        <ele>368.31999999999999</ele>
        <time>2025-05-17T10:54:01Z</time>
      </trkpt>
      <trkpt lat="43.813260979950428" lon="5.326414983719587">
        <ele>368.31999999999999</ele>
        <time>2025-05-17T10:54:02Z</time>
      </trkpt>
      <trkpt lat="43.813512017950416" lon="5.327743012458086">
        <ele>361.11000000000001</ele>
        <time>2025-05-17T10:54:10Z</time>
      </trkpt>
      <trkpt lat="43.81376096047461" lon="5.329145975410938">
        <ele>356.31</ele>
        <time>2025-05-17T10:54:16Z</time>
      </trkpt>
      <trkpt lat="43.813771018758416" lon="5.329383015632629">
        <ele>355.33999999999997</ele>
        <time>2025-05-17T10:54:17Z</time>
      </trkpt>
      <trkpt lat="43.813808988779783" lon="5.330082988366485">
        <ele>351.98000000000002</ele>
        <time>2025-05-17T10:54:20Z</time>
      </trkpt>
      <trkpt lat="43.813846036791801" lon="5.330302007496357">
        <ele>351.01999999999998</ele>
        <time>2025-05-17T10:54:21Z</time>
      </trkpt>
      <trkpt lat="43.813920971006155" lon="5.330752031877637">
        <ele>348.62</ele>
        <time>2025-05-17T10:54:23Z</time>
      </trkpt>
      <trkpt lat="43.813957013189793" lon="5.330969039350748">
        <ele>347.64999999999998</ele>
        <time>2025-05-17T10:54:24Z</time>
      </trkpt>
      <trkpt lat="43.813961958512664" lon="5.331166014075279">
        <ele>346.69</ele>
        <time>2025-05-17T10:54:25Z</time>
      </trkpt>
      <trkpt lat="43.813933962956071" lon="5.331384027376771">
        <ele>345.73000000000002</ele>
        <time>2025-05-17T10:54:26Z</time>
      </trkpt>
      <trkpt lat="43.813872020691633" lon="5.331602040678263">
        <ele>344.29000000000002</ele>
        <time>2025-05-17T10:54:27Z</time>
      </trkpt>
      <trkpt lat="43.813700024038553" lon="5.332201011478901">
        <ele>340.92000000000002</ele>
        <time>2025-05-17T10:54:30Z</time>
      </trkpt>
      <trkpt lat="43.813691977411509" lon="5.33237099647522">
        <ele>339.48000000000002</ele>
        <time>2025-05-17T10:54:31Z</time>
      </trkpt>
      <trkpt lat="43.813698012381792" lon="5.332530001178384">
        <ele>338.04000000000002</ele>
        <time>2025-05-17T10:54:32Z</time>
      </trkpt>
      <trkpt lat="43.813740005716681" lon="5.33267299644649">
        <ele>337.07999999999998</ele>
        <time>2025-05-17T10:54:33Z</time>
      </trkpt>
      <trkpt lat="43.813816029578447" lon="5.33280098810792">
        <ele>336.12</ele>
        <time>2025-05-17T10:54:34Z</time>
      </trkpt>
      <trkpt lat="43.813899010419846" lon="5.33290802501142">
        <ele>335.16000000000003</ele>
        <time>2025-05-17T10:54:35Z</time>
      </trkpt>
      <trkpt lat="43.813985008746386" lon="5.333017995581031">
        <ele>334.68000000000001</ele>
        <time>2025-05-17T10:54:36Z</time>
      </trkpt>
      <trkpt lat="43.814072012901306" lon="5.333127966150641">
        <ele>333.70999999999998</ele>
        <time>2025-05-17T10:54:37Z</time>
      </trkpt>
      <trkpt lat="43.814142001792789" lon="5.333218993619084">
        <ele>333.23000000000002</ele>
        <time>2025-05-17T10:54:38Z</time>
      </trkpt>
      <trkpt lat="43.814160022884607" lon="5.333365006372333">
        <ele>332.26999999999998</ele>
        <time>2025-05-17T10:54:39Z</time>
      </trkpt>
      <trkpt lat="43.81414401344955" lon="5.3335100132972">
        <ele>331.79000000000002</ele>
        <time>2025-05-17T10:54:40Z</time>
      </trkpt>
      <trkpt lat="43.814110988751054" lon="5.333677986636758">
        <ele>331.79000000000002</ele>
        <time>2025-05-17T10:54:41Z</time>
      </trkpt>
      <trkpt lat="43.814047034829855" lon="5.33385300077498">
        <ele>331.31</ele>
        <time>2025-05-17T10:54:42Z</time>
      </trkpt>
      <trkpt lat="43.813937986269593" lon="5.333988033235073">
        <ele>330.82999999999998</ele>
        <time>2025-05-17T10:54:43Z</time>
      </trkpt>
      <trkpt lat="43.813833966851234" lon="5.334118958562613">
        <ele>330.35000000000002</ele>
        <time>2025-05-17T10:54:44Z</time>
      </trkpt>
      <trkpt lat="43.813752997666597" lon="5.33428299240768">
        <ele>329.38999999999999</ele>
        <time>2025-05-17T10:54:45Z</time>
      </trkpt>
      <trkpt lat="43.813688037917018" lon="5.334449959918857">
        <ele>328.91000000000003</ele>
        <time>2025-05-17T10:54:46Z</time>
      </trkpt>
      <trkpt lat="43.813625006005168" lon="5.334613993763924">
        <ele>327.94999999999999</ele>
        <time>2025-05-17T10:54:47Z</time>
      </trkpt>
      <trkpt lat="43.813549987971783" lon="5.334767969325185">
        <ele>326.99000000000001</ele>
        <time>2025-05-17T10:54:48Z</time>
      </trkpt>
      <trkpt lat="43.813452003523707" lon="5.334904007613659">
        <ele>325.54000000000002</ele>
        <time>2025-05-17T10:54:49Z</time>
      </trkpt>
      <trkpt lat="43.813355024904013" lon="5.335038034245372">
        <ele>324.57999999999998</ele>
        <time>2025-05-17T10:54:50Z</time>
      </trkpt>
      <trkpt lat="43.813274977728724" lon="5.335173988714814">
        <ele>323.13999999999999</ele>
        <time>2025-05-17T10:54:51Z</time>
      </trkpt>
      <trkpt lat="43.81319803185761" lon="5.335342967882752">
        <ele>322.18000000000001</ele>
        <time>2025-05-17T10:54:52Z</time>
      </trkpt>
      <trkpt lat="43.813186967745423" lon="5.335499960929155">
        <ele>321.22000000000003</ele>
        <time>2025-05-17T10:54:53Z</time>
      </trkpt>
      <trkpt lat="43.813173975795507" lon="5.335695007815957">
        <ele>320.25999999999999</ele>
        <time>2025-05-17T10:54:54Z</time>
      </trkpt>
      <trkpt lat="43.813122007995844" lon="5.336320968344808">
        <ele>316.88999999999999</ele>
        <time>2025-05-17T10:54:57Z</time>
      </trkpt>
      <trkpt lat="43.813052019104362" lon="5.336525989696384">
        <ele>316.41000000000003</ele>
        <time>2025-05-17T10:54:58Z</time>
      </trkpt>
      <trkpt lat="43.812980018556118" lon="5.336735034361482">
        <ele>315.93000000000001</ele>
        <time>2025-05-17T10:54:59Z</time>
      </trkpt>
      <trkpt lat="43.812773991376162" lon="5.337332999333739">
        <ele>313.52999999999997</ele>
        <time>2025-05-17T10:55:02Z</time>
      </trkpt>
      <trkpt lat="43.81270601414144" lon="5.337531985715032">
        <ele>313.05000000000001</ele>
        <time>2025-05-17T10:55:03Z</time>
      </trkpt>
      <trkpt lat="43.812653040513396" lon="5.337748993188143">
        <ele>312.56999999999999</ele>
        <time>2025-05-17T10:55:04Z</time>
      </trkpt>
      <trkpt lat="43.812546003609896" lon="5.338863031938672">
        <ele>310.16000000000003</ele>
        <time>2025-05-17T10:55:09Z</time>
      </trkpt>
      <trkpt lat="43.812509961426258" lon="5.339237032458186">
        <ele>309.19999999999999</ele>
        <time>2025-05-17T10:55:11Z</time>
      </trkpt>
      <trkpt lat="43.812494035810232" lon="5.339396959170699">
        <ele>308.72000000000003</ele>
        <time>2025-05-17T10:55:12Z</time>
      </trkpt>
      <trkpt lat="43.812412982806563" lon="5.339517993852496">
        <ele>307.75999999999999</ele>
        <time>2025-05-17T10:55:13Z</time>
      </trkpt>
      <trkpt lat="43.812296977266669" lon="5.33963399939239">
        <ele>307.75999999999999</ele>
        <time>2025-05-17T10:55:14Z</time>
      </trkpt>
      <trkpt lat="43.81216999143362" lon="5.339714968577027">
        <ele>307.27999999999997</ele>
        <time>2025-05-17T10:55:15Z</time>
      </trkpt>
      <trkpt lat="43.811368010938168" lon="5.340291978791356">
        <ele>305.83999999999997</ele>
        <time>2025-05-17T10:55:21Z</time>
      </trkpt>
      <trkpt lat="43.811272038146853" lon="5.340411001816392">
        <ele>305.36000000000001</ele>
        <time>2025-05-17T10:55:22Z</time>
      </trkpt>
      <trkpt lat="43.811138011515141" lon="5.34057897515595">
        <ele>305.36000000000001</ele>
        <time>2025-05-17T10:55:23Z</time>
      </trkpt>
      <trkpt lat="43.810539040714502" lon="5.341970035806298">
        <ele>303.43000000000001</ele>
        <time>2025-05-17T10:55:30Z</time>
      </trkpt>
      <trkpt lat="43.810422029346228" lon="5.342295002192259">
        <ele>302.47000000000003</ele>
        <time>2025-05-17T10:55:32Z</time>
      </trkpt>
      <trkpt lat="43.810420017689466" lon="5.342415031045675">
        <ele>301.99000000000001</ele>
        <time>2025-05-17T10:55:33Z</time>
      </trkpt>
      <trkpt lat="43.810444995760918" lon="5.34251200966537">
        <ele>301.50999999999999</ele>
        <time>2025-05-17T10:55:34Z</time>
      </trkpt>
      <trkpt lat="43.810507021844387" lon="5.342612005770207">
        <ele>301.50999999999999</ele>
        <time>2025-05-17T10:55:35Z</time>
      </trkpt>
      <trkpt lat="43.81057801656425" lon="5.342703033238649">
        <ele>301.50999999999999</ele>
        <time>2025-05-17T10:55:36Z</time>
      </trkpt>
      <trkpt lat="43.810653034597635" lon="5.342782996594906">
        <ele>301.02999999999997</ele>
        <time>2025-05-17T10:55:37Z</time>
      </trkpt>
      <trkpt lat="43.810792006552219" lon="5.342933032661676">
        <ele>300.55000000000001</ele>
        <time>2025-05-17T10:55:39Z</time>
      </trkpt>
      <trkpt lat="43.810841040685773" lon="5.343002015724778">
        <ele>300.06999999999999</ele>
        <time>2025-05-17T10:55:40Z</time>
      </trkpt>
      <trkpt lat="43.81085897795856" lon="5.343132019042969">
        <ele>299.58999999999997</ele>
        <time>2025-05-17T10:55:41Z</time>
      </trkpt>
      <trkpt lat="43.810845986008644" lon="5.343164037913084">
        <ele>299.58999999999997</ele>
        <time>2025-05-17T10:55:42Z</time>
      </trkpt>
      <trkpt lat="43.810823019593954" lon="5.343217011541128">
        <ele>299.11000000000001</ele>
        <time>2025-05-17T10:55:43Z</time>
      </trkpt>
      <trkpt lat="43.810739032924175" lon="5.343202007934451">
        <ele>298.63</ele>
        <time>2025-05-17T10:55:44Z</time>
      </trkpt>
      <trkpt lat="43.810694022104144" lon="5.343137970194221">
        <ele>298.63</ele>
        <time>2025-05-17T10:55:45Z</time>
      </trkpt>
      <trkpt lat="43.810631996020675" lon="5.3430509660393">
        <ele>298.14999999999998</ele>
        <time>2025-05-17T10:55:46Z</time>
      </trkpt>
      <trkpt lat="43.81055798381567" lon="5.342951975762844">
        <ele>297.67000000000002</ele>
        <time>2025-05-17T10:55:47Z</time>
      </trkpt>
      <trkpt lat="43.810251960530877" lon="5.342517038807273">
        <ele>295.74000000000001</ele>
        <time>2025-05-17T10:55:51Z</time>
      </trkpt>
      <trkpt lat="43.810194041579962" lon="5.342432968318462">
        <ele>295.74000000000001</ele>
        <time>2025-05-17T10:55:52Z</time>
      </trkpt>
      <trkpt lat="43.810188006609678" lon="5.342331966385245">
        <ele>295.25999999999999</ele>
        <time>2025-05-17T10:55:53Z</time>
      </trkpt>
      <trkpt lat="43.810216002166271" lon="5.342209003865719">
        <ele>294.77999999999997</ele>
        <time>2025-05-17T10:55:54Z</time>
      </trkpt>
      <trkpt lat="43.810251038521528" lon="5.342158041894436">
        <ele>294.30000000000001</ele>
        <time>2025-05-17T10:55:55Z</time>
      </trkpt>
      <trkpt lat="43.810312980785966" lon="5.342069026082754">
        <ele>294.30000000000001</ele>
        <time>2025-05-17T10:55:56Z</time>
      </trkpt>
      <trkpt lat="43.810375006869435" lon="5.341979004442692">
        <ele>293.81999999999999</ele>
        <time>2025-05-17T10:55:57Z</time>
      </trkpt>
      <trkpt lat="43.810422029346228" lon="5.341885965317488">
        <ele>293.33999999999997</ele>
        <time>2025-05-17T10:55:58Z</time>
      </trkpt>
      <trkpt lat="43.810452958568931" lon="5.341783035546541">
        <ele>292.86000000000001</ele>
        <time>2025-05-17T10:55:59Z</time>
      </trkpt>
      <trkpt lat="43.810464022681117" lon="5.341684967279434">
        <ele>292.38</ele>
        <time>2025-05-17T10:56:00Z</time>
      </trkpt>
      <trkpt lat="43.810437032952905" lon="5.341596035286784">
        <ele>292.38</ele>
        <time>2025-05-17T10:56:01Z</time>
      </trkpt>
      <trkpt lat="43.810396967455745" lon="5.341498972848058">
        <ele>291.89999999999998</ele>
        <time>2025-05-17T10:56:02Z</time>
      </trkpt>
      <trkpt lat="43.810321027413011" lon="5.341483969241381">
        <ele>291.89999999999998</ele>
        <time>2025-05-17T10:56:03Z</time>
      </trkpt>
      <trkpt lat="43.810251038521528" lon="5.341516993939877">
        <ele>291.42000000000002</ele>
        <time>2025-05-17T10:56:04Z</time>
      </trkpt>
      <trkpt lat="43.810203010216355" lon="5.341574996709824">
        <ele>290.94</ele>
        <time>2025-05-17T10:56:05Z</time>
      </trkpt>
      <trkpt lat="43.810162022709846" lon="5.341672981157899">
        <ele>290.45999999999998</ele>
        <time>2025-05-17T10:56:06Z</time>
      </trkpt>
      <trkpt lat="43.810115000233054" lon="5.341787980869412">
        <ele>289.97000000000003</ele>
        <time>2025-05-17T10:56:07Z</time>
      </trkpt>
      <trkpt lat="43.810052974149585" lon="5.341927036643028">
        <ele>289.00999999999999</ele>
        <time>2025-05-17T10:56:08Z</time>
      </trkpt>
      <trkpt lat="43.809973010793328" lon="5.342038013041019">
        <ele>288.05000000000001</ele>
        <time>2025-05-17T10:56:09Z</time>
      </trkpt>
      <trkpt lat="43.809853987768292" lon="5.342075983062387">
        <ele>287.08999999999997</ele>
        <time>2025-05-17T10:56:10Z</time>
      </trkpt>
      <trkpt lat="43.809770001098514" lon="5.342053016647697">
        <ele>286.13</ele>
        <time>2025-05-17T10:56:11Z</time>
      </trkpt>
      <trkpt lat="43.80967696197331" lon="5.342010017484427">
        <ele>285.17000000000002</ele>
        <time>2025-05-17T10:56:12Z</time>
      </trkpt>
      <trkpt lat="43.809574032202363" lon="5.341962995007634">
        <ele>284.69</ele>
        <time>2025-05-17T10:56:13Z</time>
      </trkpt>
      <trkpt lat="43.809478981420398" lon="5.341964000836015">
        <ele>284.20999999999998</ele>
        <time>2025-05-17T10:56:14Z</time>
      </trkpt>
      <trkpt lat="43.809415027499199" lon="5.341988978907466">
        <ele>283.25</ele>
        <time>2025-05-17T10:56:15Z</time>
      </trkpt>
      <trkpt lat="43.809372028335929" lon="5.342086963355541">
        <ele>282.76999999999998</ele>
        <time>2025-05-17T10:56:16Z</time>
      </trkpt>
      <trkpt lat="43.809174969792366" lon="5.342525001615286">
        <ele>281.80000000000001</ele>
        <time>2025-05-17T10:56:19Z</time>
      </trkpt>
      <trkpt lat="43.809088971465826" lon="5.342671014368534">
        <ele>281.31999999999999</ele>
        <time>2025-05-17T10:56:20Z</time>
      </trkpt>
      <trkpt lat="43.808975983411074" lon="5.34279003739357">
        <ele>280.83999999999997</ele>
        <time>2025-05-17T10:56:21Z</time>
      </trkpt>
      <trkpt lat="43.807845013216138" lon="5.343746999278665">
        <ele>278.44</ele>
        <time>2025-05-17T10:56:29Z</time>
      </trkpt>
      <trkpt lat="43.807061975821853" lon="5.344117982313037">
        <ele>277.95999999999998</ele>
        <time>2025-05-17T10:56:34Z</time>
      </trkpt>
      <trkpt lat="43.806910011917353" lon="5.344233987852931">
        <ele>277.95999999999998</ele>
        <time>2025-05-17T10:56:35Z</time>
      </trkpt>
      <trkpt lat="43.806759975850582" lon="5.344347981736064">
        <ele>277.48000000000002</ele>
        <time>2025-05-17T10:56:36Z</time>
      </trkpt>
      <trkpt lat="43.805598998442292" lon="5.34509003162384">
        <ele>277</ele>
        <time>2025-05-17T10:56:44Z</time>
      </trkpt>
      <trkpt lat="43.805457009002566" lon="5.345106041058898">
        <ele>276.51999999999998</ele>
        <time>2025-05-17T10:56:45Z</time>
      </trkpt>
      <trkpt lat="43.805338991805911" lon="5.345044014975429">
        <ele>276.04000000000002</ele>
        <time>2025-05-17T10:56:46Z</time>
      </trkpt>
      <trkpt lat="43.805259028449655" lon="5.344999004155397">
        <ele>275.56</ele>
        <time>2025-05-17T10:56:47Z</time>
      </trkpt>
      <trkpt lat="43.805236984044313" lon="5.34489800222218">
        <ele>275.06999999999999</ele>
        <time>2025-05-17T10:56:48Z</time>
      </trkpt>
      <trkpt lat="43.805212005972862" lon="5.344779985025525">
        <ele>274.58999999999997</ele>
        <time>2025-05-17T10:56:49Z</time>
      </trkpt>
      <trkpt lat="43.805181998759508" lon="5.344642018899322">
        <ele>274.11000000000001</ele>
        <time>2025-05-17T10:56:50Z</time>
      </trkpt>
      <trkpt lat="43.80507999099791" lon="5.34416601061821">
        <ele>273.63</ele>
        <time>2025-05-17T10:56:53Z</time>
      </trkpt>
      <trkpt lat="43.805008996278048" lon="5.344033995643258">
        <ele>273.63</ele>
        <time>2025-05-17T10:56:54Z</time>
      </trkpt>
      <trkpt lat="43.804931966587901" lon="5.343946991488338">
        <ele>274.11000000000001</ele>
        <time>2025-05-17T10:56:55Z</time>
      </trkpt>
      <trkpt lat="43.804854014888406" lon="5.343924025073648">
        <ele>274.11000000000001</ele>
        <time>2025-05-17T10:56:56Z</time>
      </trkpt>
      <trkpt lat="43.804767010733485" lon="5.343968030065298">
        <ele>274.58999999999997</ele>
        <time>2025-05-17T10:56:57Z</time>
      </trkpt>
      <trkpt lat="43.80467195995152" lon="5.344014968723059">
        <ele>274.58999999999997</ele>
        <time>2025-05-17T10:56:58Z</time>
      </trkpt>
      <trkpt lat="43.804575987160206" lon="5.344064002856612">
        <ele>274.11000000000001</ele>
        <time>2025-05-17T10:56:59Z</time>
      </trkpt>
      <trkpt lat="43.804489988833666" lon="5.344094010069966">
        <ele>274.11000000000001</ele>
        <time>2025-05-17T10:57:00Z</time>
      </trkpt>
      <trkpt lat="43.804363003000617" lon="5.344070037826896">
        <ele>274.11000000000001</ele>
        <time>2025-05-17T10:57:01Z</time>
      </trkpt>
      <trkpt lat="43.804225036874413" lon="5.344042964279652">
        <ele>274.11000000000001</ele>
        <time>2025-05-17T10:57:02Z</time>
      </trkpt>
      <trkpt lat="43.804085981100798" lon="5.344015974551439">
        <ele>274.11000000000001</ele>
        <time>2025-05-17T10:57:03Z</time>
      </trkpt>
      <trkpt lat="43.803954971954226" lon="5.343990996479988">
        <ele>274.11000000000001</ele>
        <time>2025-05-17T10:57:04Z</time>
      </trkpt>
      <trkpt lat="43.803808037191629" lon="5.343989990651608">
        <ele>273.63</ele>
        <time>2025-05-17T10:57:05Z</time>
      </trkpt>
      <trkpt lat="43.803683985024691" lon="5.344066014513373">
        <ele>273.14999999999998</ele>
        <time>2025-05-17T10:57:06Z</time>
      </trkpt>
      <trkpt lat="43.803559010848403" lon="5.344142038375139">
        <ele>273.14999999999998</ele>
        <time>2025-05-17T10:57:07Z</time>
      </trkpt>
      <trkpt lat="43.803435964509845" lon="5.344206998124719">
        <ele>273.14999999999998</ele>
        <time>2025-05-17T10:57:08Z</time>
      </trkpt>
      <trkpt lat="43.803311996161938" lon="5.344223007559776">
        <ele>273.14999999999998</ele>
        <time>2025-05-17T10:57:09Z</time>
      </trkpt>
      <trkpt lat="43.803204037249088" lon="5.344169028103352">
        <ele>273.14999999999998</ele>
        <time>2025-05-17T10:57:10Z</time>
      </trkpt>
      <trkpt lat="43.803085014224052" lon="5.344084035605192">
        <ele>273.14999999999998</ele>
        <time>2025-05-17T10:57:11Z</time>
      </trkpt>
      <trkpt lat="43.802960962057114" lon="5.343996025621891">
        <ele>273.14999999999998</ele>
        <time>2025-05-17T10:57:12Z</time>
      </trkpt>
      <trkpt lat="43.802831964567304" lon="5.343903992325068">
        <ele>272.67000000000002</ele>
        <time>2025-05-17T10:57:13Z</time>
      </trkpt>
      <trkpt lat="43.80269299261272" lon="5.343872979283333">
        <ele>272.67000000000002</ele>
        <time>2025-05-17T10:57:14Z</time>
      </trkpt>
      <trkpt lat="43.802572041749954" lon="5.34390801563859">
        <ele>272.19</ele>
        <time>2025-05-17T10:57:15Z</time>
      </trkpt>
      <trkpt lat="43.802447989583015" lon="5.343989990651608">
        <ele>272.19</ele>
        <time>2025-05-17T10:57:16Z</time>
      </trkpt>
      <trkpt lat="43.802355034276843" lon="5.344088980928063">
        <ele>272.19</ele>
        <time>2025-05-17T10:57:17Z</time>
      </trkpt>
      <trkpt lat="43.802237017080188" lon="5.344214038923383">
        <ele>271.70999999999998</ele>
        <time>2025-05-17T10:57:18Z</time>
      </trkpt>
      <trkpt lat="43.802116988226771" lon="5.344341024756432">
        <ele>271.23000000000002</ele>
        <time>2025-05-17T10:57:19Z</time>
      </trkpt>
      <trkpt lat="43.801987990736961" lon="5.34442400559783">
        <ele>270.75</ele>
        <time>2025-05-17T10:57:20Z</time>
      </trkpt>
      <trkpt lat="43.801852036267519" lon="5.344417970627546">
        <ele>270.26999999999998</ele>
        <time>2025-05-17T10:57:21Z</time>
      </trkpt>
      <trkpt lat="43.801722032949328" lon="5.344372959807515">
        <ele>270.26999999999998</ele>
        <time>2025-05-17T10:57:22Z</time>
      </trkpt>
      <trkpt lat="43.801590017974377" lon="5.344286039471626">
        <ele>270.26999999999998</ele>
        <time>2025-05-17T10:57:23Z</time>
      </trkpt>
      <trkpt lat="43.801438976079226" lon="5.344186965376139">
        <ele>270.26999999999998</ele>
        <time>2025-05-17T10:57:24Z</time>
      </trkpt>
      <trkpt lat="43.801277037709951" lon="5.34408001229167">
        <ele>270.75</ele>
        <time>2025-05-17T10:57:25Z</time>
      </trkpt>
      <trkpt lat="43.799817999824882" lon="5.343279037624598">
        <ele>272.67000000000002</ele>
        <time>2025-05-17T10:57:33Z</time>
      </trkpt>
      <trkpt lat="43.799149040132761" lon="5.342763969674707">
        <ele>273.63</ele>
        <time>2025-05-17T10:57:37Z</time>
      </trkpt>
      <trkpt lat="43.799015013501048" lon="5.342592978850007">
        <ele>273.63</ele>
        <time>2025-05-17T10:57:38Z</time>
      </trkpt>
      <trkpt lat="43.798878975212574" lon="5.342420982196927">
        <ele>273.63</ele>
        <time>2025-05-17T10:57:39Z</time>
      </trkpt>
      <trkpt lat="43.798791971057653" lon="5.342191988602281">
        <ele>273.63</ele>
        <time>2025-05-17T10:57:40Z</time>
      </trkpt>
      <trkpt lat="43.798717958852649" lon="5.341976992785931">
        <ele>273.63</ele>
        <time>2025-05-17T10:57:41Z</time>
      </trkpt>
      <trkpt lat="43.798649981617928" lon="5.341775994747877">
        <ele>273.63</ele>
        <time>2025-05-17T10:57:42Z</time>
      </trkpt>
      <trkpt lat="43.798606982454658" lon="5.34165202639997">
        <ele>273.63</ele>
        <time>2025-05-17T10:57:43Z</time>
      </trkpt>
      <trkpt lat="43.798481002449989" lon="5.341497967019677">
        <ele>272.67000000000002</ele>
        <time>2025-05-17T10:57:44Z</time>
      </trkpt>
      <trkpt lat="43.798405984416604" lon="5.341413980349898">
        <ele>272.67000000000002</ele>
        <time>2025-05-17T10:57:45Z</time>
      </trkpt>
      <trkpt lat="43.798296013846993" lon="5.34139595925808">
        <ele>272.19</ele>
        <time>2025-05-17T10:57:46Z</time>
      </trkpt>
      <trkpt lat="43.798208003863692" lon="5.34143996424973">
        <ele>271.70999999999998</ele>
        <time>2025-05-17T10:57:47Z</time>
      </trkpt>
      <trkpt lat="43.798133991658688" lon="5.341504001989961">
        <ele>271.70999999999998</ele>
        <time>2025-05-17T10:57:48Z</time>
      </trkpt>
      <trkpt lat="43.798067020252347" lon="5.341571979224682">
        <ele>271.23000000000002</ele>
        <time>2025-05-17T10:57:49Z</time>
      </trkpt>
      <trkpt lat="43.798003988340497" lon="5.341636016964912">
        <ele>271.23000000000002</ele>
        <time>2025-05-17T10:57:50Z</time>
      </trkpt>
      <trkpt lat="43.797936011105776" lon="5.341706005856395">
        <ele>271.70999999999998</ele>
        <time>2025-05-17T10:57:51Z</time>
      </trkpt>
      <trkpt lat="43.797853030264378" lon="5.341790998354554">
        <ele>272.19</ele>
        <time>2025-05-17T10:57:52Z</time>
      </trkpt>
      <trkpt lat="43.797030011191964" lon="5.342658022418618">
        <ele>272.67000000000002</ele>
        <time>2025-05-17T10:57:59Z</time>
      </trkpt>
      <trkpt lat="43.79689397290349" lon="5.34281300380826">
        <ele>272.19</ele>
        <time>2025-05-17T10:58:00Z</time>
      </trkpt>
      <trkpt lat="43.796359039843082" lon="5.343519011512399">
        <ele>270.75</ele>
        <time>2025-05-17T10:58:04Z</time>
      </trkpt>
      <trkpt lat="43.796246973797679" lon="5.343668963760138">
        <ele>269.79000000000002</ele>
        <time>2025-05-17T10:58:05Z</time>
      </trkpt>
      <trkpt lat="43.796083023771644" lon="5.343730989843607">
        <ele>268.35000000000002</ele>
        <time>2025-05-17T10:58:06Z</time>
      </trkpt>
      <trkpt lat="43.795943967998028" lon="5.343768959864974">
        <ele>266.89999999999998</ele>
        <time>2025-05-17T10:58:07Z</time>
      </trkpt>
      <trkpt lat="43.795803990215063" lon="5.343725038692355">
        <ele>266.42000000000002</ele>
        <time>2025-05-17T10:58:08Z</time>
      </trkpt>
      <trkpt lat="43.79566602408886" lon="5.343682039529085">
        <ele>264.98000000000002</ele>
        <time>2025-05-17T10:58:09Z</time>
      </trkpt>
      <trkpt lat="43.795526968315244" lon="5.343679022043943">
        <ele>263.54000000000002</ele>
        <time>2025-05-17T10:58:10Z</time>
      </trkpt>
      <trkpt lat="43.795385984703898" lon="5.343711040914059">
        <ele>262.10000000000002</ele>
        <time>2025-05-17T10:58:11Z</time>
      </trkpt>
      <trkpt lat="43.795231003314257" lon="5.343782035633922">
        <ele>260.64999999999998</ele>
        <time>2025-05-17T10:58:12Z</time>
      </trkpt>
      <trkpt lat="43.79467997699976" lon="5.344032989814878">
        <ele>256.32999999999998</ele>
        <time>2025-05-17T10:58:15Z</time>
      </trkpt>
      <trkpt lat="43.793722009286284" lon="5.344302970916033">
        <ele>251.03999999999999</ele>
        <time>2025-05-17T10:58:20Z</time>
      </trkpt>
      <trkpt lat="43.793575996533036" lon="5.344439009204507">
        <ele>250.08000000000001</ele>
        <time>2025-05-17T10:58:21Z</time>
      </trkpt>
      <trkpt lat="43.793426966294646" lon="5.344577981159091">
        <ele>248.63999999999999</ele>
        <time>2025-05-17T10:58:22Z</time>
      </trkpt>
      <trkpt lat="43.792537981644273" lon="5.345350038260222">
        <ele>243.34999999999999</ele>
        <time>2025-05-17T10:58:29Z</time>
      </trkpt>
      <trkpt lat="43.791556041687727" lon="5.345871979370713">
        <ele>241.91</ele>
        <time>2025-05-17T10:58:36Z</time>
      </trkpt>
      <trkpt lat="43.790778033435345" lon="5.346209015697241">
        <ele>239.99000000000001</ele>
        <time>2025-05-17T10:58:40Z</time>
      </trkpt>
      <trkpt lat="43.790596984326839" lon="5.346368020400405">
        <ele>239.99000000000001</ele>
        <time>2025-05-17T10:58:41Z</time>
      </trkpt>
      <trkpt lat="43.790413001552224" lon="5.34653096459806">
        <ele>239.99000000000001</ele>
        <time>2025-05-17T10:58:42Z</time>
      </trkpt>
      <trkpt lat="43.789269961416721" lon="5.347628993913531">
        <ele>239.50999999999999</ele>
        <time>2025-05-17T10:58:49Z</time>
      </trkpt>
      <trkpt lat="43.789011966437101" lon="5.348008023574948">
        <ele>239.50999999999999</ele>
        <time>2025-05-17T10:58:51Z</time>
      </trkpt>
      <trkpt lat="43.788864025846124" lon="5.348132997751236">
        <ele>239.50999999999999</ele>
        <time>2025-05-17T10:58:52Z</time>
      </trkpt>
      <trkpt lat="43.788716001436114" lon="5.348221007734537">
        <ele>239.02000000000001</ele>
        <time>2025-05-17T10:58:53Z</time>
      </trkpt>
      <trkpt lat="43.788579041138291" lon="5.348243974149227">
        <ele>239.02000000000001</ele>
        <time>2025-05-17T10:58:54Z</time>
      </trkpt>
      <trkpt lat="43.788424981757998" lon="5.348209021613002">
        <ele>238.53999999999999</ele>
        <time>2025-05-17T10:58:55Z</time>
      </trkpt>
      <trkpt lat="43.788250973448157" lon="5.348169961944223">
        <ele>238.53999999999999</ele>
        <time>2025-05-17T10:58:56Z</time>
      </trkpt>
      <trkpt lat="43.788071013987064" lon="5.348091004416347">
        <ele>238.06</ele>
        <time>2025-05-17T10:58:57Z</time>
      </trkpt>
      <trkpt lat="43.787877978757024" lon="5.347979022189975">
        <ele>238.06</ele>
        <time>2025-05-17T10:58:58Z</time>
      </trkpt>
      <trkpt lat="43.787141963839531" lon="5.347523968666792">
        <ele>237.58000000000001</ele>
        <time>2025-05-17T10:59:02Z</time>
      </trkpt>
      <trkpt lat="43.786994023248553" lon="5.347502008080483">
        <ele>237.58000000000001</ele>
        <time>2025-05-17T10:59:03Z</time>
      </trkpt>
      <trkpt lat="43.786842981353402" lon="5.347525980323553">
        <ele>237.09999999999999</ele>
        <time>2025-05-17T10:59:04Z</time>
      </trkpt>
      <trkpt lat="43.785555018112063" lon="5.347676016390324">
        <ele>232.78</ele>
        <time>2025-05-17T10:59:11Z</time>
      </trkpt>
      <trkpt lat="43.785384027287364" lon="5.347670987248421">
        <ele>232.78</ele>
        <time>2025-05-17T10:59:12Z</time>
      </trkpt>
      <trkpt lat="43.785238014534116" lon="5.347611978650093">
        <ele>232.30000000000001</ele>
        <time>2025-05-17T10:59:13Z</time>
      </trkpt>
      <trkpt lat="43.785128965973854" lon="5.34751701168716">
        <ele>231.81</ele>
        <time>2025-05-17T10:59:14Z</time>
      </trkpt>
      <trkpt lat="43.785067023709416" lon="5.347445011138916">
        <ele>231.33000000000001</ele>
        <time>2025-05-17T10:59:15Z</time>
      </trkpt>
      <trkpt lat="43.785036010667682" lon="5.347285000607371">
        <ele>230.84999999999999</ele>
        <time>2025-05-17T10:59:16Z</time>
      </trkpt>
      <trkpt lat="43.785002985969186" lon="5.34710998646915">
        <ele>230.37</ele>
        <time>2025-05-17T10:59:17Z</time>
      </trkpt>
      <trkpt lat="43.784966021776199" lon="5.34691896289587">
        <ele>229.88999999999999</ele>
        <time>2025-05-17T10:59:18Z</time>
      </trkpt>
      <trkpt lat="43.784937020391226" lon="5.346717964857817">
        <ele>229.88999999999999</ele>
        <time>2025-05-17T10:59:19Z</time>
      </trkpt>
      <trkpt lat="43.784885974600911" lon="5.346329966560006">
        <ele>228.93000000000001</ele>
        <time>2025-05-17T10:59:21Z</time>
      </trkpt>
      <trkpt lat="43.784837024286389" lon="5.34618403762579">
        <ele>228.44999999999999</ele>
        <time>2025-05-17T10:59:22Z</time>
      </trkpt>
      <trkpt lat="43.784767035394907" lon="5.346071971580386">
        <ele>227.97</ele>
        <time>2025-05-17T10:59:23Z</time>
      </trkpt>
      <trkpt lat="43.784661004319787" lon="5.346056967973709">
        <ele>227.49000000000001</ele>
        <time>2025-05-17T10:59:24Z</time>
      </trkpt>
      <trkpt lat="43.784566959366202" lon="5.346086975187063">
        <ele>227.00999999999999</ele>
        <time>2025-05-17T10:59:25Z</time>
      </trkpt>
      <trkpt lat="43.784460006281734" lon="5.346167022362351">
        <ele>226.53</ele>
        <time>2025-05-17T10:59:26Z</time>
      </trkpt>
      <trkpt lat="43.78438800573349" lon="5.346307000145316">
        <ele>226.05000000000001</ele>
        <time>2025-05-17T10:59:27Z</time>
      </trkpt>
      <trkpt lat="43.784337965771556" lon="5.346467010676861">
        <ele>226.05000000000001</ele>
        <time>2025-05-17T10:59:28Z</time>
      </trkpt>
      <trkpt lat="43.784326985478401" lon="5.346635989844799">
        <ele>225.56999999999999</ele>
        <time>2025-05-17T10:59:29Z</time>
      </trkpt>
      <trkpt lat="43.784352969378233" lon="5.34680899232626">
        <ele>225.56999999999999</ele>
        <time>2025-05-17T10:59:30Z</time>
      </trkpt>
      <trkpt lat="43.784375013783574" lon="5.346961040049791">
        <ele>225.09</ele>
        <time>2025-05-17T10:59:31Z</time>
      </trkpt>
      <trkpt lat="43.784356992691755" lon="5.347100012004376">
        <ele>225.56999999999999</ele>
        <time>2025-05-17T10:59:32Z</time>
      </trkpt>
      <trkpt lat="43.78432204015553" lon="5.34725901670754">
        <ele>225.09</ele>
        <time>2025-05-17T10:59:33Z</time>
      </trkpt>
      <trkpt lat="43.784260014072061" lon="5.34743101336062">
        <ele>225.09</ele>
        <time>2025-05-17T10:59:34Z</time>
      </trkpt>
      <trkpt lat="43.784162029623985" lon="5.347573002800345">
        <ele>224.61000000000001</ele>
        <time>2025-05-17T10:59:35Z</time>
      </trkpt>
      <trkpt lat="43.784073013812304" lon="5.347703006118536">
        <ele>224.61000000000001</ele>
        <time>2025-05-17T10:59:36Z</time>
      </trkpt>
      <trkpt lat="43.783970000222325" lon="5.347780035808682">
        <ele>224.61000000000001</ele>
        <time>2025-05-17T10:59:37Z</time>
      </trkpt>
      <trkpt lat="43.783858017995954" lon="5.347834015265107">
        <ele>224.61000000000001</ele>
        <time>2025-05-17T10:59:38Z</time>
      </trkpt>
      <trkpt lat="43.783729020506144" lon="5.347847007215023">
        <ele>224.12</ele>
        <time>2025-05-17T10:59:39Z</time>
      </trkpt>
      <trkpt lat="43.782937014475465" lon="5.347941974177957">
        <ele>223.63999999999999</ele>
        <time>2025-05-17T10:59:44Z</time>
      </trkpt>
      <trkpt lat="43.78275596536696" lon="5.347956977784634">
        <ele>223.16</ele>
        <time>2025-05-17T10:59:45Z</time>
      </trkpt>
      <trkpt lat="43.782570976763964" lon="5.347936023026705">
        <ele>222.68000000000001</ele>
        <time>2025-05-17T10:59:46Z</time>
      </trkpt>
      <trkpt lat="43.782395040616393" lon="5.347859999164939">
        <ele>222.19999999999999</ele>
        <time>2025-05-17T10:59:47Z</time>
      </trkpt>
      <trkpt lat="43.78221801482141" lon="5.347783975303173">
        <ele>222.19999999999999</ele>
        <time>2025-05-17T10:59:48Z</time>
      </trkpt>
      <trkpt lat="43.781387032940984" lon="5.347466971725225">
        <ele>220.28</ele>
        <time>2025-05-17T10:59:53Z</time>
      </trkpt>
      <trkpt lat="43.781242026016116" lon="5.347466971725225">
        <ele>220.28</ele>
        <time>2025-05-17T10:59:54Z</time>
      </trkpt>
      <trkpt lat="43.781137000769377" lon="5.347512988373637">
        <ele>220.28</ele>
        <time>2025-05-17T10:59:55Z</time>
      </trkpt>
      <trkpt lat="43.781041027978063" lon="5.347608039155603">
        <ele>219.80000000000001</ele>
        <time>2025-05-17T10:59:56Z</time>
      </trkpt>
      <trkpt lat="43.780941031873226" lon="5.347717003896833">
        <ele>219.31999999999999</ele>
        <time>2025-05-17T10:59:57Z</time>
      </trkpt>
      <trkpt lat="43.780866013839841" lon="5.347895035520196">
        <ele>218.84</ele>
        <time>2025-05-17T10:59:58Z</time>
      </trkpt>
      <trkpt lat="43.780787978321314" lon="5.348079018294811">
        <ele>218.84</ele>
        <time>2025-05-17T10:59:59Z</time>
      </trkpt>
      <trkpt lat="43.780711032450199" lon="5.348259983584285">
        <ele>218.36000000000001</ele>
        <time>2025-05-17T11:00:00Z</time>
      </trkpt>
      <trkpt lat="43.780674990266562" lon="5.348479002714157">
        <ele>217.88</ele>
        <time>2025-05-17T11:00:01Z</time>
      </trkpt>
      <trkpt lat="43.780638026073575" lon="5.34869902767241">
        <ele>218.36000000000001</ele>
        <time>2025-05-17T11:00:02Z</time>
      </trkpt>
      <trkpt lat="43.780601983889937" lon="5.34891402348876">
        <ele>218.84</ele>
        <time>2025-05-17T11:00:03Z</time>
      </trkpt>
      <trkpt lat="43.78054398111999" lon="5.349118039011955">
        <ele>218.84</ele>
        <time>2025-05-17T11:00:04Z</time>
      </trkpt>
      <trkpt lat="43.780461000278592" lon="5.349300010129809">
        <ele>219.31999999999999</ele>
        <time>2025-05-17T11:00:05Z</time>
      </trkpt>
      <trkpt lat="43.780385982245207" lon="5.349464965984225">
        <ele>218.84</ele>
        <time>2025-05-17T11:00:06Z</time>
      </trkpt>
      <trkpt lat="43.780278023332357" lon="5.349561022594571">
        <ele>218.36000000000001</ele>
        <time>2025-05-17T11:00:07Z</time>
      </trkpt>
      <trkpt lat="43.780163023620844" lon="5.349606033414602">
        <ele>218.36000000000001</ele>
        <time>2025-05-17T11:00:08Z</time>
      </trkpt>
      <trkpt lat="43.780039977282286" lon="5.349562028422952">
        <ele>217.88</ele>
        <time>2025-05-17T11:00:09Z</time>
      </trkpt>
      <trkpt lat="43.779911985620856" lon="5.349484998732805">
        <ele>217.88</ele>
        <time>2025-05-17T11:00:10Z</time>
      </trkpt>
      <trkpt lat="43.779771002009511" lon="5.349400006234646">
        <ele>217.40000000000001</ele>
        <time>2025-05-17T11:00:11Z</time>
      </trkpt>
      <trkpt lat="43.779474031180143" lon="5.349271008744836">
        <ele>216.91</ele>
        <time>2025-05-17T11:00:13Z</time>
      </trkpt>
      <trkpt lat="43.779335981234908" lon="5.349282994866371">
        <ele>216.91</ele>
        <time>2025-05-17T11:00:14Z</time>
      </trkpt>
      <trkpt lat="43.779202960431576" lon="5.349339991807938">
        <ele>216.43000000000001</ele>
        <time>2025-05-17T11:00:15Z</time>
      </trkpt>
      <trkpt lat="43.77906097099185" lon="5.349440993741155">
        <ele>216.43000000000001</ele>
        <time>2025-05-17T11:00:16Z</time>
      </trkpt>
      <trkpt lat="43.778908001258969" lon="5.349549958482385">
        <ele>216.91</ele>
        <time>2025-05-17T11:00:17Z</time>
      </trkpt>
      <trkpt lat="43.778429981321096" lon="5.349831003695726">
        <ele>216.91</ele>
        <time>2025-05-17T11:00:20Z</time>
      </trkpt>
      <trkpt lat="43.778253961354494" lon="5.349869979545474">
        <ele>216.91</ele>
        <time>2025-05-17T11:00:21Z</time>
      </trkpt>
      <trkpt lat="43.778065033257008" lon="5.349869979545474">
        <ele>216.43000000000001</ele>
        <time>2025-05-17T11:00:22Z</time>
      </trkpt>
      <trkpt lat="43.777493974193931" lon="5.349863022565842">
        <ele>215.47</ele>
        <time>2025-05-17T11:00:25Z</time>
      </trkpt>
      <trkpt lat="43.777314014732838" lon="5.349797978997231">
        <ele>214.99000000000001</ele>
        <time>2025-05-17T11:00:26Z</time>
      </trkpt>
      <trkpt lat="43.777139000594616" lon="5.349721033126116">
        <ele>214.50999999999999</ele>
        <time>2025-05-17T11:00:27Z</time>
      </trkpt>
      <trkpt lat="43.776817973703146" lon="5.349545013159514">
        <ele>213.55000000000001</ele>
        <time>2025-05-17T11:00:29Z</time>
      </trkpt>
      <trkpt lat="43.776656035333872" lon="5.34951601177454">
        <ele>213.55000000000001</ele>
        <time>2025-05-17T11:00:30Z</time>
      </trkpt>
      <trkpt lat="43.776490995660424" lon="5.349518023431301">
        <ele>213.55000000000001</ele>
        <time>2025-05-17T11:00:31Z</time>
      </trkpt>
      <trkpt lat="43.776326039806008" lon="5.349578037858009">
        <ele>213.55000000000001</ele>
        <time>2025-05-17T11:00:32Z</time>
      </trkpt>
      <trkpt lat="43.776174997910857" lon="5.349684990942478">
        <ele>213.55000000000001</ele>
        <time>2025-05-17T11:00:33Z</time>
      </trkpt>
      <trkpt lat="43.776026973500848" lon="5.349821029230952">
        <ele>213.06999999999999</ele>
        <time>2025-05-17T11:00:34Z</time>
      </trkpt>
      <trkpt lat="43.775892024859786" lon="5.350004006177187">
        <ele>213.06999999999999</ele>
        <time>2025-05-17T11:00:35Z</time>
      </trkpt>
      <trkpt lat="43.77575296908617" lon="5.350191006436944">
        <ele>213.06999999999999</ele>
        <time>2025-05-17T11:00:36Z</time>
      </trkpt>
      <trkpt lat="43.77549497410655" lon="5.35057095810771">
        <ele>213.06999999999999</ele>
        <time>2025-05-17T11:00:38Z</time>
      </trkpt>
      <trkpt lat="43.775382991880178" lon="5.350775979459286">
        <ele>212.59</ele>
        <time>2025-05-17T11:00:39Z</time>
      </trkpt>
      <trkpt lat="43.775282995775342" lon="5.350984018296003">
        <ele>212.59</ele>
        <time>2025-05-17T11:00:40Z</time>
      </trkpt>
      <trkpt lat="43.775210995227098" lon="5.351199014112353">
        <ele>213.06999999999999</ele>
        <time>2025-05-17T11:00:41Z</time>
      </trkpt>
      <trkpt lat="43.775164978578687" lon="5.351424990221858">
        <ele>213.06999999999999</ele>
        <time>2025-05-17T11:00:42Z</time>
      </trkpt>
      <trkpt lat="43.775124996900558" lon="5.351659012958407">
        <ele>212.59</ele>
        <time>2025-05-17T11:00:43Z</time>
      </trkpt>
      <trkpt lat="43.77508400939405" lon="5.351898986846209">
        <ele>212.59</ele>
        <time>2025-05-17T11:00:44Z</time>
      </trkpt>
      <trkpt lat="43.775018965825438" lon="5.352132003754377">
        <ele>212.11000000000001</ele>
        <time>2025-05-17T11:00:45Z</time>
      </trkpt>
      <trkpt lat="43.774933973327279" lon="5.352329984307289">
        <ele>212.11000000000001</ele>
        <time>2025-05-17T11:00:46Z</time>
      </trkpt>
      <trkpt lat="43.774831965565681" lon="5.352466022595763">
        <ele>212.11000000000001</ele>
        <time>2025-05-17T11:00:47Z</time>
      </trkpt>
      <trkpt lat="43.774693999439478" lon="5.352603988721967">
        <ele>211.63</ele>
        <time>2025-05-17T11:00:48Z</time>
      </trkpt>
      <trkpt lat="43.77456902526319" lon="5.352669032290578">
        <ele>211.63</ele>
        <time>2025-05-17T11:00:49Z</time>
      </trkpt>
      <trkpt lat="43.774415971711278" lon="5.352690992876887">
        <ele>211.15000000000001</ele>
        <time>2025-05-17T11:00:50Z</time>
      </trkpt>
      <trkpt lat="43.774265013635159" lon="5.352713037282229">
        <ele>210.66999999999999</ele>
        <time>2025-05-17T11:00:51Z</time>
      </trkpt>
      <trkpt lat="43.774116989225149" lon="5.352733992040157">
        <ele>210.19</ele>
        <time>2025-05-17T11:00:52Z</time>
      </trkpt>
      <trkpt lat="43.773954967036843" lon="5.352814961224794">
        <ele>209.69999999999999</ele>
        <time>2025-05-17T11:00:53Z</time>
      </trkpt>
      <trkpt lat="43.773801997303963" lon="5.352944964542985">
        <ele>208.74000000000001</ele>
        <time>2025-05-17T11:00:54Z</time>
      </trkpt>
      <trkpt lat="43.773642992600799" lon="5.353097012266517">
        <ele>208.25999999999999</ele>
        <time>2025-05-17T11:00:55Z</time>
      </trkpt>
      <trkpt lat="43.773199003189802" lon="5.35355600528419">
        <ele>206.34</ele>
        <time>2025-05-17T11:00:58Z</time>
      </trkpt>
      <trkpt lat="43.773090960457921" lon="5.35374803468585">
        <ele>205.86000000000001</ele>
        <time>2025-05-17T11:00:59Z</time>
      </trkpt>
      <trkpt lat="43.773010997101665" lon="5.353937968611717">
        <ele>205.86000000000001</ele>
        <time>2025-05-17T11:01:00Z</time>
      </trkpt>
      <trkpt lat="43.772945031523705" lon="5.354136032983661">
        <ele>206.34</ele>
        <time>2025-05-17T11:01:01Z</time>
      </trkpt>
      <trkpt lat="43.772887028753757" lon="5.354354968294501">
        <ele>206.34</ele>
        <time>2025-05-17T11:01:02Z</time>
      </trkpt>
      <trkpt lat="43.772848974913359" lon="5.354589996859431">
        <ele>206.34</ele>
        <time>2025-05-17T11:01:03Z</time>
      </trkpt>
      <trkpt lat="43.772804969921708" lon="5.354827037081122">
        <ele>206.34</ele>
        <time>2025-05-17T11:01:04Z</time>
      </trkpt>
      <trkpt lat="43.772712014615536" lon="5.355039015412331">
        <ele>205.86000000000001</ele>
        <time>2025-05-17T11:01:05Z</time>
      </trkpt>
      <trkpt lat="43.772598020732403" lon="5.355246970430017">
        <ele>205.86000000000001</ele>
        <time>2025-05-17T11:01:06Z</time>
      </trkpt>
      <trkpt lat="43.772470029070973" lon="5.355440005660057">
        <ele>205.38</ele>
        <time>2025-05-17T11:01:07Z</time>
      </trkpt>
      <trkpt lat="43.772326027974486" lon="5.355608984827995">
        <ele>205.38</ele>
        <time>2025-05-17T11:01:08Z</time>
      </trkpt>
      <trkpt lat="43.772176997736096" lon="5.355764972046018">
        <ele>205.86000000000001</ele>
        <time>2025-05-17T11:01:09Z</time>
      </trkpt>
      <trkpt lat="43.77115398645401" lon="5.356787983328104">
        <ele>208.74000000000001</ele>
        <time>2025-05-17T11:01:17Z</time>
      </trkpt>
      <trkpt lat="43.771040998399258" lon="5.356900971382856">
        <ele>208.74000000000001</ele>
        <time>2025-05-17T11:01:18Z</time>
      </trkpt>
      <trkpt lat="43.770813010632992" lon="5.357128959149122">
        <ele>209.69999999999999</ele>
        <time>2025-05-17T11:01:20Z</time>
      </trkpt>
      <trkpt lat="43.770698010921478" lon="5.357243036851287">
        <ele>209.69999999999999</ele>
        <time>2025-05-17T11:01:21Z</time>
      </trkpt>
      <trkpt lat="43.76971397548914" lon="5.358234029263258">
        <ele>213.06999999999999</ele>
        <time>2025-05-17T11:01:30Z</time>
      </trkpt>
      <trkpt lat="43.769634012132883" lon="5.358324972912669">
        <ele>213.06999999999999</ele>
        <time>2025-05-17T11:01:31Z</time>
      </trkpt>
      <trkpt lat="43.769554970785975" lon="5.358394039794803">
        <ele>213.55000000000001</ele>
        <time>2025-05-17T11:01:32Z</time>
      </trkpt>
      <trkpt lat="43.769482970237732" lon="5.358457993716002">
        <ele>213.55000000000001</ele>
        <time>2025-05-17T11:01:33Z</time>
      </trkpt>
      <trkpt lat="43.768737986683846" lon="5.359160983934999">
        <ele>214.99000000000001</ele>
        <time>2025-05-17T11:01:41Z</time>
      </trkpt>
      <trkpt lat="43.767782030627131" lon="5.359899010509253">
        <ele>217.40000000000001</ele>
        <time>2025-05-17T11:01:50Z</time>
      </trkpt>
      <trkpt lat="43.767679017037153" lon="5.359978973865509">
        <ele>218.36000000000001</ele>
        <time>2025-05-17T11:01:51Z</time>
      </trkpt>
      <trkpt lat="43.76692296937108" lon="5.360632007941604">
        <ele>220.75999999999999</ele>
        <time>2025-05-17T11:02:00Z</time>
      </trkpt>
      <trkpt lat="43.766635973006487" lon="5.361017994582653">
        <ele>218.84</ele>
        <time>2025-05-17T11:02:05Z</time>
      </trkpt>
      <trkpt lat="43.766593979671597" lon="5.361080020666122">
        <ele>218.36000000000001</ele>
        <time>2025-05-17T11:02:06Z</time>
      </trkpt>
      <trkpt lat="43.766558021306992" lon="5.36113902926445">
        <ele>217.88</ele>
        <time>2025-05-17T11:02:07Z</time>
      </trkpt>
      <trkpt lat="43.76621201634407" lon="5.361883006989956">
        <ele>216.91</ele>
        <time>2025-05-17T11:02:17Z</time>
      </trkpt>
      <trkpt lat="43.766034990549088" lon="5.36244903691113">
        <ele>219.80000000000001</ele>
        <time>2025-05-17T11:02:24Z</time>
      </trkpt>
      <trkpt lat="43.765844972804189" lon="5.363427959382534">
        <ele>223.63999999999999</ele>
        <time>2025-05-17T11:02:34Z</time>
      </trkpt>
      <trkpt lat="43.765828963369131" lon="5.363526027649641">
        <ele>224.12</ele>
        <time>2025-05-17T11:02:35Z</time>
      </trkpt>
      <trkpt lat="43.765812031924725" lon="5.363628035411239">
        <ele>224.61000000000001</ele>
        <time>2025-05-17T11:02:36Z</time>
      </trkpt>
      <trkpt lat="43.765706000849605" lon="5.364119969308376">
        <ele>226.05000000000001</ele>
        <time>2025-05-17T11:02:41Z</time>
      </trkpt>
      <trkpt lat="43.765682028606534" lon="5.364217031747103">
        <ele>226.05000000000001</ele>
        <time>2025-05-17T11:02:42Z</time>
      </trkpt>
      <trkpt lat="43.765282966196537" lon="5.365191008895636">
        <ele>229.88999999999999</ele>
        <time>2025-05-17T11:02:53Z</time>
      </trkpt>
      <trkpt lat="43.765251031145453" lon="5.365277007222176">
        <ele>230.37</ele>
        <time>2025-05-17T11:02:54Z</time>
      </trkpt>
      <trkpt lat="43.765110969543457" lon="5.365340961143374">
        <ele>230.37</ele>
        <time>2025-05-17T11:02:55Z</time>
      </trkpt>
      <trkpt lat="43.765081968158484" lon="5.365409022197127">
        <ele>231.33000000000001</ele>
        <time>2025-05-17T11:02:57Z</time>
      </trkpt>
      <trkpt lat="43.764920029789209" lon="5.365569032728672">
        <ele>231.81</ele>
        <time>2025-05-17T11:03:00Z</time>
      </trkpt>
      <trkpt lat="43.764859009534121" lon="5.365612031891942">
        <ele>232.30000000000001</ele>
        <time>2025-05-17T11:03:01Z</time>
      </trkpt>
      <trkpt lat="43.764637978747487" lon="5.365755027160049">
        <ele>232.78</ele>
        <time>2025-05-17T11:03:04Z</time>
      </trkpt>
      <trkpt lat="43.763808002695441" lon="5.365873966366053">
        <ele>230.37</ele>
        <time>2025-05-17T11:03:13Z</time>
      </trkpt>
      <trkpt lat="43.763615973293781" lon="5.365829039365053">
        <ele>229.41</ele>
        <time>2025-05-17T11:03:15Z</time>
      </trkpt>
      <trkpt lat="43.76335202716291" lon="5.365727031603456">
        <ele>227.97</ele>
        <time>2025-05-17T11:03:18Z</time>
      </trkpt>
      <trkpt lat="43.763277009129524" lon="5.365684032440186">
        <ele>227.97</ele>
        <time>2025-05-17T11:03:19Z</time>
      </trkpt>
      <trkpt lat="43.762615006417036" lon="5.365097969770432">
        <ele>226.53</ele>
        <time>2025-05-17T11:03:27Z</time>
      </trkpt>
      <trkpt lat="43.762534037232399" lon="5.365017000585794">
        <ele>225.56999999999999</ele>
        <time>2025-05-17T11:03:28Z</time>
      </trkpt>
      <trkpt lat="43.76202198676765" lon="5.364623973146081">
        <ele>224.12</ele>
        <time>2025-05-17T11:03:36Z</time>
      </trkpt>
      <trkpt lat="43.76200002618134" lon="5.364610981196165">
        <ele>224.12</ele>
        <time>2025-05-17T11:03:37Z</time>
      </trkpt>
      <trkpt lat="43.761929031461477" lon="5.364418029785156">
        <ele>224.12</ele>
        <time>2025-05-17T11:03:38Z</time>
      </trkpt>
      <trkpt lat="43.76182802952826" lon="5.364524982869625">
        <ele>224.12</ele>
        <time>2025-05-17T11:03:39Z</time>
      </trkpt>
      <trkpt lat="43.761780001223087" lon="5.364532023668289">
        <ele>224.12</ele>
        <time>2025-05-17T11:03:40Z</time>
      </trkpt>
      <trkpt lat="43.76167799346149" lon="5.364547027274966">
        <ele>224.12</ele>
        <time>2025-05-17T11:03:41Z</time>
      </trkpt>
      <trkpt lat="43.760721031576395" lon="5.364820025861263">
        <ele>225.09</ele>
        <time>2025-05-17T11:03:50Z</time>
      </trkpt>
      <trkpt lat="43.760233959183097" lon="5.36496402695775">
        <ele>224.61000000000001</ele>
        <time>2025-05-17T11:03:54Z</time>
      </trkpt>
      <trkpt lat="43.760120971128345" lon="5.365000991150737">
        <ele>224.61000000000001</ele>
        <time>2025-05-17T11:03:55Z</time>
      </trkpt>
      <trkpt lat="43.758867038413882" lon="5.365426959469914">
        <ele>222.19999999999999</ele>
        <time>2025-05-17T11:04:05Z</time>
      </trkpt>
      <trkpt lat="43.758020969107747" lon="5.365699036046863">
        <ele>221.72</ele>
        <time>2025-05-17T11:04:11Z</time>
      </trkpt>
      <trkpt lat="43.757862970232964" lon="5.365732982754707">
        <ele>221.72</ele>
        <time>2025-05-17T11:04:12Z</time>
      </trkpt>
      <trkpt lat="43.757694996893406" lon="5.365743041038513">
        <ele>222.19999999999999</ele>
        <time>2025-05-17T11:04:13Z</time>
      </trkpt>
      <trkpt lat="43.757518976926804" lon="5.365732982754707">
        <ele>222.19999999999999</ele>
        <time>2025-05-17T11:04:14Z</time>
      </trkpt>
      <trkpt lat="43.75733801163733" lon="5.36571403965354">
        <ele>222.19999999999999</ele>
        <time>2025-05-17T11:04:15Z</time>
      </trkpt>
      <trkpt lat="43.757150005549192" lon="5.365679003298283">
        <ele>222.68000000000001</ele>
        <time>2025-05-17T11:04:16Z</time>
      </trkpt>
      <trkpt lat="43.755120998248458" lon="5.365279018878937">
        <ele>228.93000000000001</ele>
        <time>2025-05-17T11:04:26Z</time>
      </trkpt>
      <trkpt lat="43.754514986649156" lon="5.365270972251892">
        <ele>231.33000000000001</ele>
        <time>2025-05-17T11:04:29Z</time>
      </trkpt>
      <trkpt lat="43.754314994439483" lon="5.36526502110064">
        <ele>232.30000000000001</ele>
        <time>2025-05-17T11:04:30Z</time>
      </trkpt>
      <trkpt lat="43.75299702398479" lon="5.36494298838079">
        <ele>238.53999999999999</ele>
        <time>2025-05-17T11:04:37Z</time>
      </trkpt>
      <trkpt lat="43.751932019367814" lon="5.364293977618218">
        <ele>244.31</ele>
        <time>2025-05-17T11:04:43Z</time>
      </trkpt>
      <trkpt lat="43.750760983675718" lon="5.363897010684013">
        <ele>248.63999999999999</ele>
        <time>2025-05-17T11:04:50Z</time>
      </trkpt>
      <trkpt lat="43.750423025339842" lon="5.363820986822248">
        <ele>249.12</ele>
        <time>2025-05-17T11:04:52Z</time>
      </trkpt>
      <trkpt lat="43.750241976231337" lon="5.363802965730429">
        <ele>249.12</ele>
        <time>2025-05-17T11:04:53Z</time>
      </trkpt>
      <trkpt lat="43.7493010237813" lon="5.363756027072668">
        <ele>249.59999999999999</ele>
        <time>2025-05-17T11:04:58Z</time>
      </trkpt>
      <trkpt lat="43.749131038784981" lon="5.363680003210902">
        <ele>249.59999999999999</ele>
        <time>2025-05-17T11:04:59Z</time>
      </trkpt>
      <trkpt lat="43.748983014374971" lon="5.363591993227601">
        <ele>249.59999999999999</ele>
        <time>2025-05-17T11:05:00Z</time>
      </trkpt>
      <trkpt lat="43.748848987743258" lon="5.363514041528106">
        <ele>249.59999999999999</ele>
        <time>2025-05-17T11:05:01Z</time>
      </trkpt>
      <trkpt lat="43.748782016336918" lon="5.363473976030946">
        <ele>250.08000000000001</ele>
        <time>2025-05-17T11:05:02Z</time>
      </trkpt>
      <trkpt lat="43.748646983876824" lon="5.363512029871345">
        <ele>250.08000000000001</ele>
        <time>2025-05-17T11:05:03Z</time>
      </trkpt>
      <trkpt lat="43.748570960015059" lon="5.363569026812911">
        <ele>250.08000000000001</ele>
        <time>2025-05-17T11:05:04Z</time>
      </trkpt>
      <trkpt lat="43.748471969738603" lon="5.363656030967832">
        <ele>249.59999999999999</ele>
        <time>2025-05-17T11:05:05Z</time>
      </trkpt>
      <trkpt lat="43.74835797585547" lon="5.363784022629261">
        <ele>249.59999999999999</ele>
        <time>2025-05-17T11:05:06Z</time>
      </trkpt>
      <trkpt lat="43.748236019164324" lon="5.363919977098703">
        <ele>249.59999999999999</ele>
        <time>2025-05-17T11:05:07Z</time>
      </trkpt>
      <trkpt lat="43.747969977557659" lon="5.364215020090342">
        <ele>249.12</ele>
        <time>2025-05-17T11:05:09Z</time>
      </trkpt>
      <trkpt lat="43.747821031138301" lon="5.364381987601519">
        <ele>248.16</ele>
        <time>2025-05-17T11:05:10Z</time>
      </trkpt>
      <trkpt lat="43.747193980962038" lon="5.364954974502325">
        <ele>247.19999999999999</ele>
        <time>2025-05-17T11:05:14Z</time>
      </trkpt>
      <trkpt lat="43.747055009007454" lon="5.364989005029202">
        <ele>247.19999999999999</ele>
        <time>2025-05-17T11:05:15Z</time>
      </trkpt>
      <trkpt lat="43.746937997639179" lon="5.364954974502325">
        <ele>246.72</ele>
        <time>2025-05-17T11:05:16Z</time>
      </trkpt>
      <trkpt lat="43.746862979605794" lon="5.364852966740727">
        <ele>246.22999999999999</ele>
        <time>2025-05-17T11:05:17Z</time>
      </trkpt>
      <trkpt lat="43.746815035119653" lon="5.36472799256444">
        <ele>246.22999999999999</ele>
        <time>2025-05-17T11:05:18Z</time>
      </trkpt>
      <trkpt lat="43.74678703956306" lon="5.36457602865994">
        <ele>245.75</ele>
        <time>2025-05-17T11:05:19Z</time>
      </trkpt>
      <trkpt lat="43.74678997322917" lon="5.364395985379815">
        <ele>245.27000000000001</ele>
        <time>2025-05-17T11:05:20Z</time>
      </trkpt>
      <trkpt lat="43.746821992099285" lon="5.364199010655284">
        <ele>244.78999999999999</ele>
        <time>2025-05-17T11:05:21Z</time>
      </trkpt>
      <trkpt lat="43.746855016797781" lon="5.363992983475328">
        <ele>244.78999999999999</ele>
        <time>2025-05-17T11:05:22Z</time>
      </trkpt>
      <trkpt lat="43.746886029839516" lon="5.363801959902048">
        <ele>244.31</ele>
        <time>2025-05-17T11:05:23Z</time>
      </trkpt>
      <trkpt lat="43.746869014576077" lon="5.363642033189535">
        <ele>243.83000000000001</ele>
        <time>2025-05-17T11:05:24Z</time>
      </trkpt>
      <trkpt lat="43.746822997927666" lon="5.363510018214583">
        <ele>242.87</ele>
        <time>2025-05-17T11:05:25Z</time>
      </trkpt>
      <trkpt lat="43.74674404039979" lon="5.363367022946477">
        <ele>241.91</ele>
        <time>2025-05-17T11:05:26Z</time>
      </trkpt>
      <trkpt lat="43.746631974354386" lon="5.363296028226614">
        <ele>240.94999999999999</ele>
        <time>2025-05-17T11:05:27Z</time>
      </trkpt>
      <trkpt lat="43.746500965207815" lon="5.363214975222945">
        <ele>240.47</ele>
        <time>2025-05-17T11:05:28Z</time>
      </trkpt>
      <trkpt lat="43.746352018788457" lon="5.363189997151494">
        <ele>239.99000000000001</ele>
        <time>2025-05-17T11:05:29Z</time>
      </trkpt>
      <trkpt lat="43.746197037398815" lon="5.363181028515101">
        <ele>239.50999999999999</ele>
        <time>2025-05-17T11:05:30Z</time>
      </trkpt>
      <trkpt lat="43.746035015210509" lon="5.363201983273029">
        <ele>239.02000000000001</ele>
        <time>2025-05-17T11:05:31Z</time>
      </trkpt>
      <trkpt lat="43.745872993022203" lon="5.363239031285048">
        <ele>238.06</ele>
        <time>2025-05-17T11:05:32Z</time>
      </trkpt>
      <trkpt lat="43.745706025511026" lon="5.363304996863008">
        <ele>237.58000000000001</ele>
        <time>2025-05-17T11:05:33Z</time>
      </trkpt>
      <trkpt lat="43.74554299749434" lon="5.363370040431619">
        <ele>237.09999999999999</ele>
        <time>2025-05-17T11:05:34Z</time>
      </trkpt>
      <trkpt lat="43.745387010276318" lon="5.363432988524437">
        <ele>236.13999999999999</ele>
        <time>2025-05-17T11:05:35Z</time>
      </trkpt>
      <trkpt lat="43.744826009497046" lon="5.363637004047632">
        <ele>233.74000000000001</ele>
        <time>2025-05-17T11:05:39Z</time>
      </trkpt>
      <trkpt lat="43.744700029492378" lon="5.363655025139451">
        <ele>233.25999999999999</ele>
        <time>2025-05-17T11:05:40Z</time>
      </trkpt>
      <trkpt lat="43.744575977325439" lon="5.363672962412238">
        <ele>232.78</ele>
        <time>2025-05-17T11:05:41Z</time>
      </trkpt>
      <trkpt lat="43.744460977613926" lon="5.363686038181186">
        <ele>232.78</ele>
        <time>2025-05-17T11:05:42Z</time>
      </trkpt>
      <trkpt lat="43.744341032579541" lon="5.363641027361155">
        <ele>232.30000000000001</ele>
        <time>2025-05-17T11:05:43Z</time>
      </trkpt>
      <trkpt lat="43.744214968755841" lon="5.363594004884362">
        <ele>231.81</ele>
        <time>2025-05-17T11:05:44Z</time>
      </trkpt>
      <trkpt lat="43.742789039388299" lon="5.363154038786888">
        <ele>228.44999999999999</ele>
        <time>2025-05-17T11:05:54Z</time>
      </trkpt>
      <trkpt lat="43.742614025250077" lon="5.363169964402914">
        <ele>227.97</ele>
        <time>2025-05-17T11:05:55Z</time>
      </trkpt>
      <trkpt lat="43.741215001791716" lon="5.363594004884362">
        <ele>223.16</ele>
        <time>2025-05-17T11:06:03Z</time>
      </trkpt>
      <trkpt lat="43.741063037887216" lon="5.363615965470672">
        <ele>222.68000000000001</ele>
        <time>2025-05-17T11:06:04Z</time>
      </trkpt>
      <trkpt lat="43.740925993770361" lon="5.363618982955813">
        <ele>222.19999999999999</ele>
        <time>2025-05-17T11:06:05Z</time>
      </trkpt>
      <trkpt lat="43.740808982402086" lon="5.3636110201478">
        <ele>221.72</ele>
        <time>2025-05-17T11:06:06Z</time>
      </trkpt>
      <trkpt lat="43.740190984681249" lon="5.363648990169168">
        <ele>219.80000000000001</ele>
        <time>2025-05-17T11:06:14Z</time>
      </trkpt>
      <trkpt lat="43.740047989413142" lon="5.363716967403889">
        <ele>219.31999999999999</ele>
        <time>2025-05-17T11:06:16Z</time>
      </trkpt>
      <trkpt lat="43.739975988864899" lon="5.363768013194203">
        <ele>219.31999999999999</ele>
        <time>2025-05-17T11:06:17Z</time>
      </trkpt>
      <trkpt lat="43.739900970831513" lon="5.363821992650628">
        <ele>219.31999999999999</ele>
        <time>2025-05-17T11:06:18Z</time>
      </trkpt>
      <trkpt lat="43.739107036963105" lon="5.364612992852926">
        <ele>216.43000000000001</ele>
        <time>2025-05-17T11:06:30Z</time>
      </trkpt>
      <trkpt lat="43.738385019823909" lon="5.365364011377096">
        <ele>212.11000000000001</ele>
        <time>2025-05-17T11:06:39Z</time>
      </trkpt>
      <trkpt lat="43.737970031797886" lon="5.365767013281584">
        <ele>207.78</ele>
        <time>2025-05-17T11:06:45Z</time>
      </trkpt>
      <trkpt lat="43.737864000722766" lon="5.365886958315969">
        <ele>206.81999999999999</ele>
        <time>2025-05-17T11:06:47Z</time>
      </trkpt>
      <trkpt lat="43.737799040973186" lon="5.365959964692593">
        <ele>205.86000000000001</ele>
        <time>2025-05-17T11:06:48Z</time>
      </trkpt>
      <trkpt lat="43.737397966906428" lon="5.366353997960687">
        <ele>202.97999999999999</ele>
        <time>2025-05-17T11:06:53Z</time>
      </trkpt>
      <trkpt lat="43.737316997721791" lon="5.366419041529298">
        <ele>202.49000000000001</ele>
        <time>2025-05-17T11:06:54Z</time>
      </trkpt>
      <trkpt lat="43.73707702383399" lon="5.366591038182378">
        <ele>201.53</ele>
        <time>2025-05-17T11:06:57Z</time>
      </trkpt>
      <trkpt lat="43.736967975273728" lon="5.366605035960674">
        <ele>201.05000000000001</ele>
        <time>2025-05-17T11:06:58Z</time>
      </trkpt>
      <trkpt lat="43.736903015524149" lon="5.366562036797404">
        <ele>200.56999999999999</ele>
        <time>2025-05-17T11:06:59Z</time>
      </trkpt>
      <trkpt lat="43.736854987218976" lon="5.366416024044156">
        <ele>200.56999999999999</ele>
        <time>2025-05-17T11:07:00Z</time>
      </trkpt>
      <trkpt lat="43.736839983612299" lon="5.366309992969036">
        <ele>200.09</ele>
        <time>2025-05-17T11:07:01Z</time>
      </trkpt>
      <trkpt lat="43.73681902885437" lon="5.366190969944">
        <ele>200.09</ele>
        <time>2025-05-17T11:07:02Z</time>
      </trkpt>
      <trkpt lat="43.736788015812635" lon="5.36606096662581">
        <ele>199.61000000000001</ele>
        <time>2025-05-17T11:07:03Z</time>
      </trkpt>
      <trkpt lat="43.736749961972237" lon="5.365938004106283">
        <ele>199.13</ele>
        <time>2025-05-17T11:07:04Z</time>
      </trkpt>
      <trkpt lat="43.736691037192941" lon="5.36584597080946">
        <ele>198.65000000000001</ele>
        <time>2025-05-17T11:07:05Z</time>
      </trkpt>
      <trkpt lat="43.736638985574245" lon="5.365763995796442">
        <ele>198.16999999999999</ele>
        <time>2025-05-17T11:07:06Z</time>
      </trkpt>
      <trkpt lat="43.736591963097453" lon="5.365698030218482">
        <ele>197.69</ele>
        <time>2025-05-17T11:07:07Z</time>
      </trkpt>
      <trkpt lat="43.736545024439692" lon="5.365642039105296">
        <ele>197.69</ele>
        <time>2025-05-17T11:07:08Z</time>
      </trkpt>
      <trkpt lat="43.73649699613452" lon="5.365584958344698">
        <ele>197.21000000000001</ele>
        <time>2025-05-17T11:07:09Z</time>
      </trkpt>
      <trkpt lat="43.736442010849714" lon="5.365518992766738">
        <ele>196.72999999999999</ele>
        <time>2025-05-17T11:07:10Z</time>
      </trkpt>
      <trkpt lat="43.736378978937864" lon="5.365432994440198">
        <ele>196.72999999999999</ele>
        <time>2025-05-17T11:07:11Z</time>
      </trkpt>
      <trkpt lat="43.736318964511156" lon="5.36532998085022">
        <ele>196.25</ele>
        <time>2025-05-17T11:07:12Z</time>
      </trkpt>
      <trkpt lat="43.736250987276435" lon="5.365211963653565">
        <ele>195.77000000000001</ele>
        <time>2025-05-17T11:07:13Z</time>
      </trkpt>
      <trkpt lat="43.73621896840632" lon="5.365100987255573">
        <ele>195.77000000000001</ele>
        <time>2025-05-17T11:07:14Z</time>
      </trkpt>
      <trkpt lat="43.736186027526855" lon="5.364968972280622">
        <ele>195.28</ele>
        <time>2025-05-17T11:07:15Z</time>
      </trkpt>
      <trkpt lat="43.736164988949895" lon="5.364739978685975">
        <ele>194.80000000000001</ele>
        <time>2025-05-17T11:07:17Z</time>
      </trkpt>
      <trkpt lat="43.736179992556572" lon="5.364601006731391">
        <ele>194.31999999999999</ele>
        <time>2025-05-17T11:07:18Z</time>
      </trkpt>
      <trkpt lat="43.736192984506488" lon="5.3644710034132">
        <ele>193.84</ele>
        <time>2025-05-17T11:07:19Z</time>
      </trkpt>
      <trkpt lat="43.736206982284784" lon="5.364339994266629">
        <ele>192.88</ele>
        <time>2025-05-17T11:07:20Z</time>
      </trkpt>
      <trkpt lat="43.736229026690125" lon="5.36421300843358">
        <ele>192.40000000000001</ele>
        <time>2025-05-17T11:07:21Z</time>
      </trkpt>
      <trkpt lat="43.736248975619674" lon="5.364093985408545">
        <ele>191.44</ele>
        <time>2025-05-17T11:07:22Z</time>
      </trkpt>
      <trkpt lat="43.736270014196634" lon="5.36397797986865">
        <ele>190.96000000000001</ele>
        <time>2025-05-17T11:07:23Z</time>
      </trkpt>
      <trkpt lat="43.736288035288453" lon="5.363870020955801">
        <ele>190</ele>
        <time>2025-05-17T11:07:24Z</time>
      </trkpt>
      <trkpt lat="43.736311001703143" lon="5.363772036507726">
        <ele>188.56</ele>
        <time>2025-05-17T11:07:25Z</time>
      </trkpt>
      <trkpt lat="43.736335979774594" lon="5.363671034574509">
        <ele>187.59</ele>
        <time>2025-05-17T11:07:26Z</time>
      </trkpt>
      <trkpt lat="43.736363975331187" lon="5.363559974357486">
        <ele>186.63</ele>
        <time>2025-05-17T11:07:27Z</time>
      </trkpt>
      <trkpt lat="43.736397000029683" lon="5.363444974645972">
        <ele>185.66999999999999</ele>
        <time>2025-05-17T11:07:28Z</time>
      </trkpt>
      <trkpt lat="43.736419966444373" lon="5.363327963277698">
        <ele>184.22999999999999</ele>
        <time>2025-05-17T11:07:29Z</time>
      </trkpt>
      <trkpt lat="43.736530020833015" lon="5.362530006095767">
        <ele>177.5</ele>
        <time>2025-05-17T11:07:35Z</time>
      </trkpt>
      <trkpt lat="43.736548963934183" lon="5.362392961978912">
        <ele>176.06</ele>
        <time>2025-05-17T11:07:36Z</time>
      </trkpt>
      <trkpt lat="43.736675027757883" lon="5.361652001738548">
        <ele>169.81</ele>
        <time>2025-05-17T11:07:42Z</time>
      </trkpt>
      <trkpt lat="43.736989013850689" lon="5.360327996313572">
        <ele>162.12</ele>
        <time>2025-05-17T11:07:51Z</time>
      </trkpt>
      <trkpt lat="43.737133014947176" lon="5.359707986935973">
        <ele>157.78999999999999</ele>
        <time>2025-05-17T11:07:55Z</time>
      </trkpt>
      <trkpt lat="43.737138966098428" lon="5.359596004709601">
        <ele>156.34999999999999</ele>
        <time>2025-05-17T11:07:56Z</time>
      </trkpt>
      <trkpt lat="43.737143995240331" lon="5.35950698889792">
        <ele>155.87</ele>
        <time>2025-05-17T11:07:57Z</time>
      </trkpt>
      <trkpt lat="43.737152041867375" lon="5.359375979751349">
        <ele>154.91</ele>
        <time>2025-05-17T11:07:58Z</time>
      </trkpt>
      <trkpt lat="43.737152041867375" lon="5.359375979751349">
        <ele>154.91</ele>
        <time>2025-05-17T11:07:59Z</time>
      </trkpt>
      <trkpt lat="43.73703402467072" lon="5.359275983646512">
        <ele>155.38999999999999</ele>
        <time>2025-05-17T11:08:00Z</time>
      </trkpt>
      <trkpt lat="43.737024972215295" lon="5.359285036101937">
        <ele>155.38999999999999</ele>
        <time>2025-05-17T11:08:01Z</time>
      </trkpt>
      <trkpt lat="43.737007034942508" lon="5.359300961717963">
        <ele>155.38999999999999</ele>
        <time>2025-05-17T11:08:02Z</time>
      </trkpt>
      <trkpt lat="43.736975016072392" lon="5.359331974759698">
        <ele>155.38999999999999</ele>
        <time>2025-05-17T11:08:03Z</time>
      </trkpt>
      <trkpt lat="43.73692698776722" lon="5.359376985579729">
        <ele>155.38999999999999</ele>
        <time>2025-05-17T11:08:04Z</time>
      </trkpt>
      <trkpt lat="43.736873008310795" lon="5.359428031370044">
        <ele>154.91</ele>
        <time>2025-05-17T11:08:05Z</time>
      </trkpt>
      <trkpt lat="43.736393982544541" lon="5.359917031601071">
        <ele>153.94999999999999</ele>
        <time>2025-05-17T11:08:13Z</time>
      </trkpt>
      <trkpt lat="43.736327011138201" lon="5.359978973865509">
        <ele>153.94999999999999</ele>
        <time>2025-05-17T11:08:14Z</time>
      </trkpt>
      <trkpt lat="43.736183010041714" lon="5.360110988840461">
        <ele>153.47</ele>
        <time>2025-05-17T11:08:16Z</time>
      </trkpt>
      <trkpt lat="43.735366025939584" lon="5.360931996256113">
        <ele>152.50999999999999</ele>
        <time>2025-05-17T11:08:26Z</time>
      </trkpt>
      <trkpt lat="43.735300982370973" lon="5.361017994582653">
        <ele>152.50999999999999</ele>
        <time>2025-05-17T11:08:27Z</time>
      </trkpt>
      <trkpt lat="43.735249014571309" lon="5.361121008172631">
        <ele>152.99000000000001</ele>
        <time>2025-05-17T11:08:28Z</time>
      </trkpt>
      <trkpt lat="43.735198974609375" lon="5.361221004277468">
        <ele>153.47</ele>
        <time>2025-05-17T11:08:29Z</time>
      </trkpt>
      <trkpt lat="43.735176008194685" lon="5.361338015645742">
        <ele>153.47</ele>
        <time>2025-05-17T11:08:30Z</time>
      </trkpt>
      <trkpt lat="43.735150024294853" lon="5.361466007307172">
        <ele>153.47</ele>
        <time>2025-05-17T11:08:31Z</time>
      </trkpt>
      <trkpt lat="43.735124040395021" lon="5.361596010625362">
        <ele>152.99000000000001</ele>
        <time>2025-05-17T11:08:32Z</time>
      </trkpt>
      <trkpt lat="43.735081041231751" lon="5.36197897978127">
        <ele>152.99000000000001</ele>
        <time>2025-05-17T11:08:35Z</time>
      </trkpt>
      <trkpt lat="43.735070982947946" lon="5.362101020291448">
        <ele>153.47</ele>
        <time>2025-05-17T11:08:36Z</time>
      </trkpt>
      <trkpt lat="43.73503896407783" lon="5.362258013337851">
        <ele>152.99000000000001</ele>
        <time>2025-05-17T11:08:37Z</time>
      </trkpt>
      <trkpt lat="43.734880965203047" lon="5.363160995766521">
        <ele>150.58000000000001</ele>
        <time>2025-05-17T11:08:43Z</time>
      </trkpt>
      <trkpt lat="43.734583994373679" lon="5.364722963422537">
        <ele>147.22</ele>
        <time>2025-05-17T11:08:53Z</time>
      </trkpt>
      <trkpt lat="43.734569996595383" lon="5.364881968125701">
        <ele>147.22</ele>
        <time>2025-05-17T11:08:54Z</time>
      </trkpt>
      <trkpt lat="43.734561027958989" lon="5.365043990314007">
        <ele>147.22</ele>
        <time>2025-05-17T11:08:55Z</time>
      </trkpt>
      <trkpt lat="43.734581982716918" lon="5.365227973088622">
        <ele>147.22</ele>
        <time>2025-05-17T11:08:56Z</time>
      </trkpt>
      <trkpt lat="43.734619030728936" lon="5.365371974185109">
        <ele>147.69999999999999</ele>
        <time>2025-05-17T11:08:57Z</time>
      </trkpt>
      <trkpt lat="43.734657000750303" lon="5.365517986938357">
        <ele>148.66</ele>
        <time>2025-05-17T11:08:58Z</time>
      </trkpt>
      <trkpt lat="43.734726989641786" lon="5.365804983302951">
        <ele>149.62</ele>
        <time>2025-05-17T11:09:00Z</time>
      </trkpt>
      <trkpt lat="43.734726989641786" lon="5.365943033248186">
        <ele>150.09999999999999</ele>
        <time>2025-05-17T11:09:01Z</time>
      </trkpt>
      <trkpt lat="43.734726989641786" lon="5.366076976060867">
        <ele>150.58000000000001</ele>
        <time>2025-05-17T11:09:02Z</time>
      </trkpt>
      <trkpt lat="43.734726989641786" lon="5.3662099968642">
        <ele>151.53999999999999</ele>
        <time>2025-05-17T11:09:03Z</time>
      </trkpt>
      <trkpt lat="43.734716009348631" lon="5.366341006010771">
        <ele>151.53999999999999</ele>
        <time>2025-05-17T11:09:04Z</time>
      </trkpt>
      <trkpt lat="43.734421972185373" lon="5.367402993142605">
        <ele>156.83000000000001</ele>
        <time>2025-05-17T11:09:13Z</time>
      </trkpt>
      <trkpt lat="43.733974965289235" lon="5.368609987199307">
        <ele>159.24000000000001</ele>
        <time>2025-05-17T11:09:22Z</time>
      </trkpt>
      <trkpt lat="43.733930038288236" lon="5.368878040462732">
        <ele>159.72</ele>
        <time>2025-05-17T11:09:24Z</time>
      </trkpt>
      <trkpt lat="43.733814032748342" lon="5.370127027854323">
        <ele>161.63999999999999</ele>
        <time>2025-05-17T11:09:36Z</time>
      </trkpt>
      <trkpt lat="43.733656033873558" lon="5.371177028864622">
        <ele>165</ele>
        <time>2025-05-17T11:09:47Z</time>
      </trkpt>
      <trkpt lat="43.733641030266881" lon="5.371273001655936">
        <ele>165.47999999999999</ele>
        <time>2025-05-17T11:09:48Z</time>
      </trkpt>
      <trkpt lat="43.733626026660204" lon="5.371370986104012">
        <ele>165.47999999999999</ele>
        <time>2025-05-17T11:09:49Z</time>
      </trkpt>
      <trkpt lat="43.733546985313296" lon="5.371955959126353">
        <ele>166.44999999999999</ele>
        <time>2025-05-17T11:09:55Z</time>
      </trkpt>
      <trkpt lat="43.733546985313296" lon="5.372146982699633">
        <ele>166.44999999999999</ele>
        <time>2025-05-17T11:09:57Z</time>
      </trkpt>
      <trkpt lat="43.733546985313296" lon="5.372239015996456">
        <ele>166.44999999999999</ele>
        <time>2025-05-17T11:09:58Z</time>
      </trkpt>
      <trkpt lat="43.733546985313296" lon="5.372339012101293">
        <ele>166.44999999999999</ele>
        <time>2025-05-17T11:09:59Z</time>
      </trkpt>
      <trkpt lat="43.733642036095262" lon="5.373335033655167">
        <ele>167.41</ele>
        <time>2025-05-17T11:10:08Z</time>
      </trkpt>
      <trkpt lat="43.733718981966376" lon="5.373924029991031">
        <ele>168.37</ele>
        <time>2025-05-17T11:10:14Z</time>
      </trkpt>
      <trkpt lat="43.733714036643505" lon="5.37398898974061">
        <ele>168.84999999999999</ele>
        <time>2025-05-17T11:10:15Z</time>
      </trkpt>
      <trkpt lat="43.733708001673222" lon="5.374067025259137">
        <ele>169.33000000000001</ele>
        <time>2025-05-17T11:10:16Z</time>
      </trkpt>
      <trkpt lat="43.733586966991425" lon="5.374622996896505">
        <ele>172.21000000000001</ele>
        <time>2025-05-17T11:10:26Z</time>
      </trkpt>
      <trkpt lat="43.733582021668553" lon="5.374644035473466">
        <ele>172.21000000000001</ele>
        <time>2025-05-17T11:10:27Z</time>
      </trkpt>
      <trkpt lat="43.73357598669827" lon="5.374665996059775">
        <ele>172.69</ele>
        <time>2025-05-17T11:10:28Z</time>
      </trkpt>
      <trkpt lat="43.73348998837173" lon="5.374760963022709">
        <ele>173.66</ele>
        <time>2025-05-17T11:10:31Z</time>
      </trkpt>
      <trkpt lat="43.733470039442182" lon="5.374753000214696">
        <ele>173.66</ele>
        <time>2025-05-17T11:10:32Z</time>
      </trkpt>
      <trkpt lat="43.733435003086925" lon="5.374741014093161">
        <ele>173.66</ele>
        <time>2025-05-17T11:10:33Z</time>
      </trkpt>
      <trkpt lat="43.7333810236305" lon="5.3747199755162">
        <ele>173.16999999999999</ele>
        <time>2025-05-17T11:10:34Z</time>
      </trkpt>
      <trkpt lat="43.733313968405128" lon="5.37469600327313">
        <ele>173.16999999999999</ele>
        <time>2025-05-17T11:10:35Z</time>
      </trkpt>
      <trkpt lat="43.73316996730864" lon="5.374642023816705">
        <ele>173.16999999999999</ele>
        <time>2025-05-17T11:10:37Z</time>
      </trkpt>
      <trkpt lat="43.733091009780765" lon="5.374613022431731">
        <ele>173.16999999999999</ele>
        <time>2025-05-17T11:10:38Z</time>
      </trkpt>
      <trkpt lat="43.732325993478298" lon="5.37441504187882">
        <ele>172.69</ele>
        <time>2025-05-17T11:10:48Z</time>
      </trkpt>
      <trkpt lat="43.731602970510721" lon="5.374297024682164">
        <ele>169.33000000000001</ele>
        <time>2025-05-17T11:10:58Z</time>
      </trkpt>
      <trkpt lat="43.731366014108062" lon="5.374263999983668">
        <ele>169.81</ele>
        <time>2025-05-17T11:11:01Z</time>
      </trkpt>
      <trkpt lat="43.731290996074677" lon="5.374251008033752">
        <ele>169.33000000000001</ele>
        <time>2025-05-17T11:11:02Z</time>
      </trkpt>
      <trkpt lat="43.731217989698052" lon="5.374239021912217">
        <ele>169.33000000000001</ele>
        <time>2025-05-17T11:11:03Z</time>
      </trkpt>
      <trkpt lat="43.730949014425278" lon="5.374191999435425">
        <ele>168.37</ele>
        <time>2025-05-17T11:11:07Z</time>
      </trkpt>
      <trkpt lat="43.730891011655331" lon="5.374182024970651">
        <ele>168.37</ele>
        <time>2025-05-17T11:11:08Z</time>
      </trkpt>
      <trkpt lat="43.73050200752914" lon="5.374060990288854">
        <ele>166.93000000000001</ele>
        <time>2025-05-17T11:11:14Z</time>
      </trkpt>
      <trkpt lat="43.729786025360227" lon="5.373667040839791">
        <ele>161.16</ele>
        <time>2025-05-17T11:11:24Z</time>
      </trkpt>
      <trkpt lat="43.729480002075434" lon="5.373504012823105">
        <ele>159.72</ele>
        <time>2025-05-17T11:11:29Z</time>
      </trkpt>
      <trkpt lat="43.729425016790628" lon="5.373474005609751">
        <ele>159.24000000000001</ele>
        <time>2025-05-17T11:11:30Z</time>
      </trkpt>
      <trkpt lat="43.729366008192301" lon="5.373442992568016">
        <ele>159.24000000000001</ele>
        <time>2025-05-17T11:11:31Z</time>
      </trkpt>
      <trkpt lat="43.72902000322938" lon="5.373259009793401">
        <ele>157.78999999999999</ele>
        <time>2025-05-17T11:11:36Z</time>
      </trkpt>
      <trkpt lat="43.728972980752587" lon="5.373235959559679">
        <ele>157.78999999999999</ele>
        <time>2025-05-17T11:11:37Z</time>
      </trkpt>
      <trkpt lat="43.72889100573957" lon="5.37319396622479">
        <ele>157.78999999999999</ele>
        <time>2025-05-17T11:11:38Z</time>
      </trkpt>
      <trkpt lat="43.728845994919538" lon="5.373175023123622">
        <ele>157.78999999999999</ele>
        <time>2025-05-17T11:11:39Z</time>
      </trkpt>
      <trkpt lat="43.72878497466445" lon="5.37314903922379">
        <ele>158.27000000000001</ele>
        <time>2025-05-17T11:11:40Z</time>
      </trkpt>
      <trkpt lat="43.728725966066122" lon="5.37312900647521">
        <ele>158.27000000000001</ele>
        <time>2025-05-17T11:11:41Z</time>
      </trkpt>
      <trkpt lat="43.728553969413042" lon="5.373112997040153">
        <ele>158.27000000000001</ele>
        <time>2025-05-17T11:11:48Z</time>
      </trkpt>
      <trkpt lat="43.728404017165303" lon="5.373011995106936">
        <ele>158.75</ele>
        <time>2025-05-17T11:11:52Z</time>
      </trkpt>
      <trkpt lat="43.728298991918564" lon="5.37289397791028">
        <ele>158.75</ele>
        <time>2025-05-17T11:11:54Z</time>
      </trkpt>
      <trkpt lat="43.728236965835094" lon="5.37289397791028">
        <ele>158.75</ele>
        <time>2025-05-17T11:11:55Z</time>
      </trkpt>
      <trkpt lat="43.728178041055799" lon="5.37289397791028">
        <ele>158.75</ele>
        <time>2025-05-17T11:11:56Z</time>
      </trkpt>
      <trkpt lat="43.728110985830426" lon="5.372951980680227">
        <ele>159.24000000000001</ele>
        <time>2025-05-17T11:11:57Z</time>
      </trkpt>
      <trkpt lat="43.728076033294201" lon="5.373020963743329">
        <ele>159.24000000000001</ele>
        <time>2025-05-17T11:11:58Z</time>
      </trkpt>
      <trkpt lat="43.728076033294201" lon="5.37302297540009">
        <ele>159.24000000000001</ele>
        <time>2025-05-17T11:11:59Z</time>
      </trkpt>
      <trkpt lat="43.728033034130931" lon="5.373262027278543">
        <ele>159.24000000000001</ele>
        <time>2025-05-17T11:12:00Z</time>
      </trkpt>
      <trkpt lat="43.727962961420417" lon="5.373303014785051">
        <ele>159.24000000000001</ele>
        <time>2025-05-17T11:12:01Z</time>
      </trkpt>
      <trkpt lat="43.727886015549302" lon="5.373348025605083">
        <ele>158.75</ele>
        <time>2025-05-17T11:12:02Z</time>
      </trkpt>
      <trkpt lat="43.727808985859156" lon="5.373392030596733">
        <ele>158.27000000000001</ele>
        <time>2025-05-17T11:12:03Z</time>
      </trkpt>
      <trkpt lat="43.727732039988041" lon="5.373437041416764">
        <ele>157.78999999999999</ele>
        <time>2025-05-17T11:12:04Z</time>
      </trkpt>
      <trkpt lat="43.727651992812753" lon="5.373483980074525">
        <ele>157.78999999999999</ele>
        <time>2025-05-17T11:12:05Z</time>
      </trkpt>
      <trkpt lat="43.727125022560358" lon="5.373786985874176">
        <ele>155.87</ele>
        <time>2025-05-17T11:12:13Z</time>
      </trkpt>
      <trkpt lat="43.727056961506605" lon="5.373821016401053">
        <ele>155.87</ele>
        <time>2025-05-17T11:12:14Z</time>
      </trkpt>
      <trkpt lat="43.726982027292252" lon="5.37385898642242">
        <ele>155.38999999999999</ele>
        <time>2025-05-17T11:12:15Z</time>
      </trkpt>
      <trkpt lat="43.726895023137331" lon="5.37390198558569">
        <ele>155.38999999999999</ele>
        <time>2025-05-17T11:12:16Z</time>
      </trkpt>
      <trkpt lat="43.726796032860875" lon="5.373958982527256">
        <ele>155.38999999999999</ele>
        <time>2025-05-17T11:12:17Z</time>
      </trkpt>
      <trkpt lat="43.726686984300613" lon="5.374025031924248">
        <ele>154.91</ele>
        <time>2025-05-17T11:12:18Z</time>
      </trkpt>
      <trkpt lat="43.725490970537066" lon="5.374744031578302">
        <ele>155.38999999999999</ele>
        <time>2025-05-17T11:12:27Z</time>
      </trkpt>
      <trkpt lat="43.72382297180593" lon="5.375662017613649">
        <ele>158.27000000000001</ele>
        <time>2025-05-17T11:12:37Z</time>
      </trkpt>
      <trkpt lat="43.72197300195694" lon="5.376551002264023">
        <ele>158.75</ele>
        <time>2025-05-17T11:12:48Z</time>
      </trkpt>
      <trkpt lat="43.720122026279569" lon="5.377184003591538">
        <ele>161.16</ele>
        <time>2025-05-17T11:12:57Z</time>
      </trkpt>
      <trkpt lat="43.719296995550394" lon="5.377276036888361">
        <ele>162.59999999999999</ele>
        <time>2025-05-17T11:13:01Z</time>
      </trkpt>
      <trkpt lat="43.718697018921375" lon="5.377217028290033">
        <ele>163.08000000000001</ele>
        <time>2025-05-17T11:13:04Z</time>
      </trkpt>
      <trkpt lat="43.717388017103076" lon="5.376529041677713">
        <ele>165.47999999999999</ele>
        <time>2025-05-17T11:13:11Z</time>
      </trkpt>
      <trkpt lat="43.716281019151211" lon="5.37523596547544">
        <ele>165.96000000000001</ele>
        <time>2025-05-17T11:13:18Z</time>
      </trkpt>
      <trkpt lat="43.715434027835727" lon="5.373337967321277">
        <ele>165.47999999999999</ele>
        <time>2025-05-17T11:13:26Z</time>
      </trkpt>
      <trkpt lat="43.714097030460835" lon="5.36962796933949">
        <ele>162.12</ele>
        <time>2025-05-17T11:13:41Z</time>
      </trkpt>
      <trkpt lat="43.712953990325332" lon="5.366723975166678">
        <ele>162.12</ele>
        <time>2025-05-17T11:13:53Z</time>
      </trkpt>
      <trkpt lat="43.712834967300296" lon="5.366507973521948">
        <ele>162.12</ele>
        <time>2025-05-17T11:13:54Z</time>
      </trkpt>
      <trkpt lat="43.712686020880938" lon="5.366335976868868">
        <ele>162.12</ele>
        <time>2025-05-17T11:13:55Z</time>
      </trkpt>
      <trkpt lat="43.712531961500645" lon="5.366173032671213">
        <ele>162.12</ele>
        <time>2025-05-17T11:13:56Z</time>
      </trkpt>
      <trkpt lat="43.712371028959751" lon="5.366045963019133">
        <ele>162.12</ele>
        <time>2025-05-17T11:13:57Z</time>
      </trkpt>
      <trkpt lat="43.712203977629542" lon="5.365938004106283">
        <ele>162.59999999999999</ele>
        <time>2025-05-17T11:13:58Z</time>
      </trkpt>
      <trkpt lat="43.712034998461604" lon="5.365844964981079">
        <ele>163.08000000000001</ele>
        <time>2025-05-17T11:13:59Z</time>
      </trkpt>
      <trkpt lat="43.70994295924902" lon="5.364736039191485">
        <ele>164.52000000000001</ele>
        <time>2025-05-17T11:14:12Z</time>
      </trkpt>
      <trkpt lat="43.70841896161437" lon="5.363659970462322">
        <ele>166.44999999999999</ele>
        <time>2025-05-17T11:14:22Z</time>
      </trkpt>
      <trkpt lat="43.70816096663475" lon="5.363303991034627">
        <ele>167.41</ele>
        <time>2025-05-17T11:14:25Z</time>
      </trkpt>
      <trkpt lat="43.708120984956622" lon="5.363193014636636">
        <ele>167.88999999999999</ele>
        <time>2025-05-17T11:14:26Z</time>
      </trkpt>
      <trkpt lat="43.708084020763636" lon="5.363099975511432">
        <ele>168.84999999999999</ele>
        <time>2025-05-17T11:14:27Z</time>
      </trkpt>
      <trkpt lat="43.70805099606514" lon="5.363026969134808">
        <ele>169.33000000000001</ele>
        <time>2025-05-17T11:14:28Z</time>
      </trkpt>
      <trkpt lat="43.708019983023405" lon="5.362961003556848">
        <ele>169.81</ele>
        <time>2025-05-17T11:14:29Z</time>
      </trkpt>
      <trkpt lat="43.708039009943604" lon="5.362801998853684">
        <ele>170.28999999999999</ele>
        <time>2025-05-17T11:14:30Z</time>
      </trkpt>
      <trkpt lat="43.708092989400029" lon="5.362764028832316">
        <ele>170.77000000000001</ele>
        <time>2025-05-17T11:14:31Z</time>
      </trkpt>
      <trkpt lat="43.708165995776653" lon="5.362711977213621">
        <ele>170.77000000000001</ele>
        <time>2025-05-17T11:14:32Z</time>
      </trkpt>
      <trkpt lat="43.708258029073477" lon="5.362648023292422">
        <ele>171.25</ele>
        <time>2025-05-17T11:14:33Z</time>
      </trkpt>
      <trkpt lat="43.708761027082801" lon="5.362290032207966">
        <ele>169.81</ele>
        <time>2025-05-17T11:14:39Z</time>
      </trkpt>
      <trkpt lat="43.708774019032717" lon="5.362225994467735">
        <ele>169.81</ele>
        <time>2025-05-17T11:14:40Z</time>
      </trkpt>
      <trkpt lat="43.70875901542604" lon="5.362164974212647">
        <ele>169.81</ele>
        <time>2025-05-17T11:14:41Z</time>
      </trkpt>
      <trkpt lat="43.70873898267746" lon="5.362081993371248">
        <ele>169.33000000000001</ele>
        <time>2025-05-17T11:14:42Z</time>
      </trkpt>
      <trkpt lat="43.70871601626277" lon="5.361990965902805">
        <ele>168.84999999999999</ele>
        <time>2025-05-17T11:14:43Z</time>
      </trkpt>
      <trkpt lat="43.708690032362938" lon="5.361883006989956">
        <ele>168.37</ele>
        <time>2025-05-17T11:14:44Z</time>
      </trkpt>
      <trkpt lat="43.708659019321203" lon="5.361759038642049">
        <ele>168.37</ele>
        <time>2025-05-17T11:14:45Z</time>
      </trkpt>
      <trkpt lat="43.708590036258101" lon="5.361476987600327">
        <ele>168.37</ele>
        <time>2025-05-17T11:14:47Z</time>
      </trkpt>
      <trkpt lat="43.708554999902844" lon="5.361330974847078">
        <ele>168.37</ele>
        <time>2025-05-17T11:14:48Z</time>
      </trkpt>
      <trkpt lat="43.708509989082813" lon="5.361186973750591">
        <ele>167.88999999999999</ele>
        <time>2025-05-17T11:14:49Z</time>
      </trkpt>
      <trkpt lat="43.708444023504853" lon="5.36105303093791">
        <ele>167.88999999999999</ele>
        <time>2025-05-17T11:14:50Z</time>
      </trkpt>
      <trkpt lat="43.70837202295661" lon="5.360911963507533">
        <ele>167.88999999999999</ele>
        <time>2025-05-17T11:14:51Z</time>
      </trkpt>
      <trkpt lat="43.708112016320229" lon="5.360526982694864">
        <ele>167.41</ele>
        <time>2025-05-17T11:14:54Z</time>
      </trkpt>
      <trkpt lat="43.708011014387012" lon="5.360424974933267">
        <ele>167.41</ele>
        <time>2025-05-17T11:14:55Z</time>
      </trkpt>
      <trkpt lat="43.707927027717233" lon="5.360340988263488">
        <ele>167.41</ele>
        <time>2025-05-17T11:14:56Z</time>
      </trkpt>
      <trkpt lat="43.707797024399042" lon="5.360297989100218">
        <ele>167.41</ele>
        <time>2025-05-17T11:14:57Z</time>
      </trkpt>
      <trkpt lat="43.70768403634429" lon="5.36028097383678">
        <ele>167.88999999999999</ele>
        <time>2025-05-17T11:14:58Z</time>
      </trkpt>
      <trkpt lat="43.707573981955647" lon="5.360289020463824">
        <ele>167.88999999999999</ele>
        <time>2025-05-17T11:14:59Z</time>
      </trkpt>
      <trkpt lat="43.707466023042798" lon="5.360296983271837">
        <ele>168.37</ele>
        <time>2025-05-17T11:15:00Z</time>
      </trkpt>
      <trkpt lat="43.707354040816426" lon="5.360284997150302">
        <ele>168.84999999999999</ele>
        <time>2025-05-17T11:15:01Z</time>
      </trkpt>
      <trkpt lat="43.707241974771023" lon="5.360269993543625">
        <ele>168.84999999999999</ele>
        <time>2025-05-17T11:15:02Z</time>
      </trkpt>
      <trkpt lat="43.707130998373032" lon="5.360252978280187">
        <ele>169.33000000000001</ele>
        <time>2025-05-17T11:15:03Z</time>
      </trkpt>
      <trkpt lat="43.707060003653169" lon="5.360149964690208">
        <ele>169.81</ele>
        <time>2025-05-17T11:15:04Z</time>
      </trkpt>
      <trkpt lat="43.706984985619783" lon="5.360039994120598">
        <ele>169.81</ele>
        <time>2025-05-17T11:15:05Z</time>
      </trkpt>
      <trkpt lat="43.706896975636482" lon="5.359912002459168">
        <ele>170.28999999999999</ele>
        <time>2025-05-17T11:15:06Z</time>
      </trkpt>
      <trkpt lat="43.706867974251509" lon="5.359754003584385">
        <ele>170.77000000000001</ele>
        <time>2025-05-17T11:15:07Z</time>
      </trkpt>
      <trkpt lat="43.70686998590827" lon="5.359559962525964">
        <ele>171.25</ele>
        <time>2025-05-17T11:15:08Z</time>
      </trkpt>
      <trkpt lat="43.706896975636482" lon="5.359371034428477">
        <ele>172.21000000000001</ele>
        <time>2025-05-17T11:15:09Z</time>
      </trkpt>
      <trkpt lat="43.706925977021456" lon="5.359171964228153">
        <ele>172.21000000000001</ele>
        <time>2025-05-17T11:15:10Z</time>
      </trkpt>
      <trkpt lat="43.706954978406429" lon="5.358965015038848">
        <ele>172.69</ele>
        <time>2025-05-17T11:15:11Z</time>
      </trkpt>
      <trkpt lat="43.706957995891571" lon="5.358751025050879">
        <ele>172.69</ele>
        <time>2025-05-17T11:15:12Z</time>
      </trkpt>
      <trkpt lat="43.706943998113275" lon="5.35789598710835">
        <ele>173.66</ele>
        <time>2025-05-17T11:15:16Z</time>
      </trkpt>
      <trkpt lat="43.706940980628133" lon="5.357726002112031">
        <ele>174.13999999999999</ele>
        <time>2025-05-17T11:15:17Z</time>
      </trkpt>
      <trkpt lat="43.706876020878553" lon="5.357585018500686">
        <ele>174.13999999999999</ele>
        <time>2025-05-17T11:15:18Z</time>
      </trkpt>
      <trkpt lat="43.706793040037155" lon="5.357520980760455">
        <ele>174.62</ele>
        <time>2025-05-17T11:15:19Z</time>
      </trkpt>
      <trkpt lat="43.706696983426809" lon="5.357477981597185">
        <ele>175.58000000000001</ele>
        <time>2025-05-17T11:15:20Z</time>
      </trkpt>
      <trkpt lat="43.706591036170721" lon="5.357445040717721">
        <ele>175.58000000000001</ele>
        <time>2025-05-17T11:15:21Z</time>
      </trkpt>
      <trkpt lat="43.706465978175402" lon="5.357405981048942">
        <ele>176.06</ele>
        <time>2025-05-17T11:15:22Z</time>
      </trkpt>
      <trkpt lat="43.706343015655875" lon="5.357367005199194">
        <ele>176.06</ele>
        <time>2025-05-17T11:15:23Z</time>
      </trkpt>
      <trkpt lat="43.706226004287601" lon="5.357358958572149">
        <ele>176.53999999999999</ele>
        <time>2025-05-17T11:15:24Z</time>
      </trkpt>
      <trkpt lat="43.706120979040861" lon="5.357390977442265">
        <ele>177.02000000000001</ele>
        <time>2025-05-17T11:15:25Z</time>
      </trkpt>
      <trkpt lat="43.706026012077928" lon="5.357458032667637">
        <ele>177.5</ele>
        <time>2025-05-17T11:15:26Z</time>
      </trkpt>
      <trkpt lat="43.705928027629852" lon="5.357527015730739">
        <ele>178.46000000000001</ele>
        <time>2025-05-17T11:15:27Z</time>
      </trkpt>
      <trkpt lat="43.705829037353396" lon="5.357597004622221">
        <ele>178.94</ele>
        <time>2025-05-17T11:15:28Z</time>
      </trkpt>
      <trkpt lat="43.70551697909832" lon="5.357773024588823">
        <ele>180.38</ele>
        <time>2025-05-17T11:15:31Z</time>
      </trkpt>
      <trkpt lat="43.705402985215187" lon="5.357782999053598">
        <ele>180.87</ele>
        <time>2025-05-17T11:15:32Z</time>
      </trkpt>
      <trkpt lat="43.705297037959099" lon="5.357755003497005">
        <ele>180.87</ele>
        <time>2025-05-17T11:15:33Z</time>
      </trkpt>
      <trkpt lat="43.705192012712359" lon="5.357693983241916">
        <ele>180.87</ele>
        <time>2025-05-17T11:15:34Z</time>
      </trkpt>
      <trkpt lat="43.705082964152098" lon="5.35761795938015">
        <ele>180.38</ele>
        <time>2025-05-17T11:15:35Z</time>
      </trkpt>
      <trkpt lat="43.705006018280983" lon="5.357477981597185">
        <ele>180.38</ele>
        <time>2025-05-17T11:15:36Z</time>
      </trkpt>
      <trkpt lat="43.704923959448934" lon="5.357330963015556">
        <ele>179.90000000000001</ele>
        <time>2025-05-17T11:15:37Z</time>
      </trkpt>
      <trkpt lat="43.704854976385832" lon="5.357157038524747">
        <ele>179.90000000000001</ele>
        <time>2025-05-17T11:15:38Z</time>
      </trkpt>
      <trkpt lat="43.704576026648283" lon="5.356122041121125">
        <ele>177.97999999999999</ele>
        <time>2025-05-17T11:15:43Z</time>
      </trkpt>
      <trkpt lat="43.704515006393194" lon="5.355898998677731">
        <ele>177.5</ele>
        <time>2025-05-17T11:15:44Z</time>
      </trkpt>
      <trkpt lat="43.704515006393194" lon="5.355686014518142">
        <ele>177.02000000000001</ele>
        <time>2025-05-17T11:15:45Z</time>
      </trkpt>
      <trkpt lat="43.70454803109169" lon="5.355452997609973">
        <ele>177.02000000000001</ele>
        <time>2025-05-17T11:15:46Z</time>
      </trkpt>
      <trkpt lat="43.704630006104708" lon="5.355245964601636">
        <ele>177.5</ele>
        <time>2025-05-17T11:15:47Z</time>
      </trkpt>
      <trkpt lat="43.704719021916389" lon="5.355025017634034">
        <ele>177.97999999999999</ele>
        <time>2025-05-17T11:15:48Z</time>
      </trkpt>
      <trkpt lat="43.705356968566775" lon="5.353428013622761">
        <ele>180.87</ele>
        <time>2025-05-17T11:15:55Z</time>
      </trkpt>
      <trkpt lat="43.705587973818183" lon="5.352687975391746">
        <ele>180.38</ele>
        <time>2025-05-17T11:15:59Z</time>
      </trkpt>
      <trkpt lat="43.705594008788466" lon="5.352500975131989">
        <ele>179.41999999999999</ele>
        <time>2025-05-17T11:16:00Z</time>
      </trkpt>
      <trkpt lat="43.705545980483294" lon="5.352339958772063">
        <ele>178.94</ele>
        <time>2025-05-17T11:16:01Z</time>
      </trkpt>
      <trkpt lat="43.705447996035218" lon="5.352208027616143">
        <ele>178.46000000000001</ele>
        <time>2025-05-17T11:16:02Z</time>
      </trkpt>
      <trkpt lat="43.70534498244524" lon="5.35207400098443">
        <ele>177.97999999999999</ele>
        <time>2025-05-17T11:16:03Z</time>
      </trkpt>
      <trkpt lat="43.705217996612191" lon="5.351955983787775">
        <ele>177.5</ele>
        <time>2025-05-17T11:16:04Z</time>
      </trkpt>
      <trkpt lat="43.704289030283689" lon="5.351097006350756">
        <ele>175.58000000000001</ele>
        <time>2025-05-17T11:16:10Z</time>
      </trkpt>
      <trkpt lat="43.703414965420961" lon="5.350135015323758">
        <ele>175.58000000000001</ele>
        <time>2025-05-17T11:16:16Z</time>
      </trkpt>
      <trkpt lat="43.702565040439367" lon="5.348864989355207">
        <ele>176.53999999999999</ele>
        <time>2025-05-17T11:16:23Z</time>
      </trkpt>
      <trkpt lat="43.702477030456066" lon="5.348646976053715">
        <ele>176.53999999999999</ele>
        <time>2025-05-17T11:16:24Z</time>
      </trkpt>
      <trkpt lat="43.702329006046057" lon="5.348559971898794">
        <ele>176.53999999999999</ele>
        <time>2025-05-17T11:16:25Z</time>
      </trkpt>
      <trkpt lat="43.70216597802937" lon="5.34846399910748">
        <ele>176.53999999999999</ele>
        <time>2025-05-17T11:16:26Z</time>
      </trkpt>
      <trkpt lat="43.701990963891149" lon="5.348380012437701">
        <ele>176.06</ele>
        <time>2025-05-17T11:16:27Z</time>
      </trkpt>
      <trkpt lat="43.701803963631392" lon="5.348298037424684">
        <ele>176.06</ele>
        <time>2025-05-17T11:16:28Z</time>
      </trkpt>
      <trkpt lat="43.701609000563622" lon="5.348213966935873">
        <ele>176.06</ele>
        <time>2025-05-17T11:16:29Z</time>
      </trkpt>
      <trkpt lat="43.700168989598751" lon="5.347609966993332">
        <ele>177.02000000000001</ele>
        <time>2025-05-17T11:16:36Z</time>
      </trkpt>
      <trkpt lat="43.698195973411202" lon="5.346569018438458">
        <ele>179.41999999999999</ele>
        <time>2025-05-17T11:16:46Z</time>
      </trkpt>
      <trkpt lat="43.696087002754211" lon="5.34509003162384">
        <ele>184.22999999999999</ele>
        <time>2025-05-17T11:16:57Z</time>
      </trkpt>
      <trkpt lat="43.695043036714196" lon="5.344125023111701">
        <ele>188.08000000000001</ele>
        <time>2025-05-17T11:17:03Z</time>
      </trkpt>
      <trkpt lat="43.694848995655775" lon="5.344041958451271">
        <ele>188.56</ele>
        <time>2025-05-17T11:17:04Z</time>
      </trkpt>
      <trkpt lat="43.694650009274483" lon="5.343971969559789">
        <ele>189.52000000000001</ele>
        <time>2025-05-17T11:17:05Z</time>
      </trkpt>
      <trkpt lat="43.691645013168454" lon="5.342980977147818">
        <ele>198.65000000000001</ele>
        <time>2025-05-17T11:17:20Z</time>
      </trkpt>
      <trkpt lat="43.689325992017984" lon="5.342157036066055">
        <ele>202.00999999999999</ele>
        <time>2025-05-17T11:17:32Z</time>
      </trkpt>
      <trkpt lat="43.687875000759959" lon="5.341177023947239">
        <ele>206.81999999999999</ele>
        <time>2025-05-17T11:17:40Z</time>
      </trkpt>
      <trkpt lat="43.687520027160645" lon="5.34098600037396">
        <ele>208.25999999999999</ele>
        <time>2025-05-17T11:17:42Z</time>
      </trkpt>
      <trkpt lat="43.687324980273843" lon="5.340930009260774">
        <ele>208.74000000000001</ele>
        <time>2025-05-17T11:17:43Z</time>
      </trkpt>
      <trkpt lat="43.687126999720931" lon="5.340874018147588">
        <ele>209.69999999999999</ele>
        <time>2025-05-17T11:17:44Z</time>
      </trkpt>
      <trkpt lat="43.686926001682878" lon="5.340881980955601">
        <ele>210.66999999999999</ele>
        <time>2025-05-17T11:17:45Z</time>
      </trkpt>
      <trkpt lat="43.686722991988063" lon="5.340915005654097">
        <ele>211.15000000000001</ele>
        <time>2025-05-17T11:17:46Z</time>
      </trkpt>
      <trkpt lat="43.686517970636487" lon="5.340949036180973">
        <ele>211.63</ele>
        <time>2025-05-17T11:17:47Z</time>
      </trkpt>
      <trkpt lat="43.68630800396204" lon="5.340983988717198">
        <ele>212.59</ele>
        <time>2025-05-17T11:17:48Z</time>
      </trkpt>
      <trkpt lat="43.686104994267225" lon="5.341038974002004">
        <ele>213.06999999999999</ele>
        <time>2025-05-17T11:17:49Z</time>
      </trkpt>
      <trkpt lat="43.685908019542694" lon="5.34113796427846">
        <ele>214.03</ele>
        <time>2025-05-17T11:17:50Z</time>
      </trkpt>
      <trkpt lat="43.684291988611221" lon="5.341985039412975">
        <ele>219.80000000000001</ele>
        <time>2025-05-17T11:17:58Z</time>
      </trkpt>
      <trkpt lat="43.682858012616634" lon="5.342601025477052">
        <ele>225.09</ele>
        <time>2025-05-17T11:18:05Z</time>
      </trkpt>
      <trkpt lat="43.681166041642427" lon="5.343254981562495">
        <ele>232.78</ele>
        <time>2025-05-17T11:18:14Z</time>
      </trkpt>
      <trkpt lat="43.680111011490226" lon="5.343663012608886">
        <ele>236.13999999999999</ele>
        <time>2025-05-17T11:18:20Z</time>
      </trkpt>
      <trkpt lat="43.678619032725692" lon="5.344254020601511">
        <ele>240.94999999999999</ele>
        <time>2025-05-17T11:18:27Z</time>
      </trkpt>
      <trkpt lat="43.677223026752472" lon="5.344943013042212">
        <ele>246.72</ele>
        <time>2025-05-17T11:18:35Z</time>
      </trkpt>
      <trkpt lat="43.676869980990887" lon="5.345344003289938">
        <ele>249.12</ele>
        <time>2025-05-17T11:18:38Z</time>
      </trkpt>
      <trkpt lat="43.676771996542811" lon="5.345511976629496">
        <ele>249.59999999999999</ele>
        <time>2025-05-17T11:18:39Z</time>
      </trkpt>
      <trkpt lat="43.676407970488071" lon="5.346317980438471">
        <ele>252.96000000000001</ele>
        <time>2025-05-17T11:18:43Z</time>
      </trkpt>
      <trkpt lat="43.676140001043677" lon="5.347250970080495">
        <ele>255.37</ele>
        <time>2025-05-17T11:18:47Z</time>
      </trkpt>
      <trkpt lat="43.676063977181911" lon="5.347483986988664">
        <ele>256.32999999999998</ele>
        <time>2025-05-17T11:18:48Z</time>
      </trkpt>
      <trkpt lat="43.675958029925823" lon="5.347695965319872">
        <ele>256.81</ele>
        <time>2025-05-17T11:18:49Z</time>
      </trkpt>
      <trkpt lat="43.675851998850703" lon="5.347909033298492">
        <ele>257.29000000000002</ele>
        <time>2025-05-17T11:18:50Z</time>
      </trkpt>
      <trkpt lat="43.675745967775583" lon="5.34812000580132">
        <ele>257.76999999999998</ele>
        <time>2025-05-17T11:18:51Z</time>
      </trkpt>
      <trkpt lat="43.674570992588997" lon="5.349361030384898">
        <ele>262.57999999999998</ele>
        <time>2025-05-17T11:18:59Z</time>
      </trkpt>
      <trkpt lat="43.674396984279156" lon="5.349503019824624">
        <ele>263.54000000000002</ele>
        <time>2025-05-17T11:19:00Z</time>
      </trkpt>
      <trkpt lat="43.673350000753999" lon="5.350462999194861">
        <ele>266.89999999999998</ele>
        <time>2025-05-17T11:19:06Z</time>
      </trkpt>
      <trkpt lat="43.67242899723351" lon="5.351687008515">
        <ele>268.82999999999998</ele>
        <time>2025-05-17T11:19:12Z</time>
      </trkpt>
      <trkpt lat="43.671936979517341" lon="5.352461999282241">
        <ele>270.26999999999998</ele>
        <time>2025-05-17T11:19:16Z</time>
      </trkpt>
      <trkpt lat="43.671773029491305" lon="5.35260901786387">
        <ele>270.75</ele>
        <time>2025-05-17T11:19:17Z</time>
      </trkpt>
      <trkpt lat="43.671597009524703" lon="5.352754024788737">
        <ele>270.75</ele>
        <time>2025-05-17T11:19:18Z</time>
      </trkpt>
      <trkpt lat="43.671417972072959" lon="5.352843040600419">
        <ele>271.23000000000002</ele>
        <time>2025-05-17T11:19:19Z</time>
      </trkpt>
      <trkpt lat="43.671244969591498" lon="5.352913029491901">
        <ele>271.23000000000002</ele>
        <time>2025-05-17T11:19:20Z</time>
      </trkpt>
      <trkpt lat="43.671065010130405" lon="5.352916968986392">
        <ele>271.70999999999998</ele>
        <time>2025-05-17T11:19:21Z</time>
      </trkpt>
      <trkpt lat="43.670878009870648" lon="5.352903977036476">
        <ele>272.19</ele>
        <time>2025-05-17T11:19:22Z</time>
      </trkpt>
      <trkpt lat="43.670680029317737" lon="5.352859972044826">
        <ele>272.67000000000002</ele>
        <time>2025-05-17T11:19:23Z</time>
      </trkpt>
      <trkpt lat="43.670480037108064" lon="5.352814961224794">
        <ele>273.63</ele>
        <time>2025-05-17T11:19:24Z</time>
      </trkpt>
      <trkpt lat="43.670290019363165" lon="5.352771962061524">
        <ele>274.58999999999997</ele>
        <time>2025-05-17T11:19:25Z</time>
      </trkpt>
      <trkpt lat="43.670075023546815" lon="5.352724017575383">
        <ele>275.56</ele>
        <time>2025-05-17T11:19:26Z</time>
      </trkpt>
      <trkpt lat="43.669923981651664" lon="5.352780008688569">
        <ele>276.04000000000002</ele>
        <time>2025-05-17T11:19:27Z</time>
      </trkpt>
      <trkpt lat="43.669747961685061" lon="5.352883022278547">
        <ele>277</ele>
        <time>2025-05-17T11:19:28Z</time>
      </trkpt>
      <trkpt lat="43.669566996395588" lon="5.352995004504919">
        <ele>278.44</ele>
        <time>2025-05-17T11:19:29Z</time>
      </trkpt>
      <trkpt lat="43.669389970600605" lon="5.353102963417769">
        <ele>278.92000000000002</ele>
        <time>2025-05-17T11:19:30Z</time>
      </trkpt>
      <trkpt lat="43.669223003089428" lon="5.353196002542973">
        <ele>279.39999999999998</ele>
        <time>2025-05-17T11:19:31Z</time>
      </trkpt>
      <trkpt lat="43.66903499700129" lon="5.353201031684876">
        <ele>279.88</ele>
        <time>2025-05-17T11:19:32Z</time>
      </trkpt>
      <trkpt lat="43.66883902810514" lon="5.353205977007747">
        <ele>280.36000000000001</ele>
        <time>2025-05-17T11:19:33Z</time>
      </trkpt>
      <trkpt lat="43.668309962376952" lon="5.353175969794393">
        <ele>282.27999999999997</ele>
        <time>2025-05-17T11:19:36Z</time>
      </trkpt>
      <trkpt lat="43.668168978765607" lon="5.353110004216433">
        <ele>282.27999999999997</ele>
        <time>2025-05-17T11:19:37Z</time>
      </trkpt>
      <trkpt lat="43.668054984882474" lon="5.352982012555003">
        <ele>281.80000000000001</ele>
        <time>2025-05-17T11:19:38Z</time>
      </trkpt>
      <trkpt lat="43.667934034019709" lon="5.352844968438149">
        <ele>281.31999999999999</ele>
        <time>2025-05-17T11:19:39Z</time>
      </trkpt>
      <trkpt lat="43.66780998185277" lon="5.352705996483564">
        <ele>281.31999999999999</ele>
        <time>2025-05-17T11:19:40Z</time>
      </trkpt>
      <trkpt lat="43.667693976312876" lon="5.352572975680232">
        <ele>281.31999999999999</ele>
        <time>2025-05-17T11:19:41Z</time>
      </trkpt>
      <trkpt lat="43.667553998529911" lon="5.35250298678875">
        <ele>281.80000000000001</ele>
        <time>2025-05-17T11:19:42Z</time>
      </trkpt>
      <trkpt lat="43.667393987998366" lon="5.352456970140338">
        <ele>282.27999999999997</ele>
        <time>2025-05-17T11:19:43Z</time>
      </trkpt>
      <trkpt lat="43.667226014658809" lon="5.352426040917635">
        <ele>283.25</ele>
        <time>2025-05-17T11:19:44Z</time>
      </trkpt>
      <trkpt lat="43.667054018005729" lon="5.35239796154201">
        <ele>283.73000000000002</ele>
        <time>2025-05-17T11:19:45Z</time>
      </trkpt>
      <trkpt lat="43.66673500277102" lon="5.352325038984418">
        <ele>284.69</ele>
        <time>2025-05-17T11:19:47Z</time>
      </trkpt>
      <trkpt lat="43.666612040251493" lon="5.352296959608793">
        <ele>285.64999999999998</ele>
        <time>2025-05-17T11:19:48Z</time>
      </trkpt>
      <trkpt lat="43.666522018611431" lon="5.352151030674577">
        <ele>286.13</ele>
        <time>2025-05-17T11:19:49Z</time>
      </trkpt>
      <trkpt lat="43.666440965607762" lon="5.351999988779426">
        <ele>286.13</ele>
        <time>2025-05-17T11:19:50Z</time>
      </trkpt>
      <trkpt lat="43.666358990594745" lon="5.351847019046545">
        <ele>286.61000000000001</ele>
        <time>2025-05-17T11:19:51Z</time>
      </trkpt>
      <trkpt lat="43.666276009753346" lon="5.351692037656903">
        <ele>286.61000000000001</ele>
        <time>2025-05-17T11:19:52Z</time>
      </trkpt>
      <trkpt lat="43.665859010070562" lon="5.350931966677308">
        <ele>288.05000000000001</ele>
        <time>2025-05-17T11:19:57Z</time>
      </trkpt>
      <trkpt lat="43.665775023400784" lon="5.350823001936078">
        <ele>289.00999999999999</ele>
        <time>2025-05-17T11:19:58Z</time>
      </trkpt>
      <trkpt lat="43.665691958740354" lon="5.350714959204197">
        <ele>289.49000000000001</ele>
        <time>2025-05-17T11:19:59Z</time>
      </trkpt>
      <trkpt lat="43.665607972070575" lon="5.350605994462967">
        <ele>290.45999999999998</ele>
        <time>2025-05-17T11:20:00Z</time>
      </trkpt>
      <trkpt lat="43.665513005107641" lon="5.350510021671653">
        <ele>290.94</ele>
        <time>2025-05-17T11:20:01Z</time>
      </trkpt>
      <trkpt lat="43.665418960154057" lon="5.350431986153126">
        <ele>291.89999999999998</ele>
        <time>2025-05-17T11:20:02Z</time>
      </trkpt>
      <trkpt lat="43.665327010676265" lon="5.35035596229136">
        <ele>292.38</ele>
        <time>2025-05-17T11:20:03Z</time>
      </trkpt>
      <trkpt lat="43.664341969415545" lon="5.349592035636306">
        <ele>300.06999999999999</ele>
        <time>2025-05-17T11:20:14Z</time>
      </trkpt>
      <trkpt lat="43.664186988025904" lon="5.349460020661354">
        <ele>301.99000000000001</ele>
        <time>2025-05-17T11:20:16Z</time>
      </trkpt>
      <trkpt lat="43.664068970829248" lon="5.349348960444331">
        <ele>303.43000000000001</ele>
        <time>2025-05-17T11:20:18Z</time>
      </trkpt>
      <trkpt lat="43.664021026343107" lon="5.349284000694752">
        <ele>303.91000000000003</ele>
        <time>2025-05-17T11:20:19Z</time>
      </trkpt>
      <trkpt lat="43.663974003866315" lon="5.349219040945172">
        <ele>304.38999999999999</ele>
        <time>2025-05-17T11:20:20Z</time>
      </trkpt>
      <trkpt lat="43.663924969732761" lon="5.349150979891419">
        <ele>304.38999999999999</ele>
        <time>2025-05-17T11:20:21Z</time>
      </trkpt>
      <trkpt lat="43.663863027468324" lon="5.349105969071388">
        <ele>304.88</ele>
        <time>2025-05-17T11:20:22Z</time>
      </trkpt>
      <trkpt lat="43.663795972242951" lon="5.349064981564879">
        <ele>305.36000000000001</ele>
        <time>2025-05-17T11:20:23Z</time>
      </trkpt>
      <trkpt lat="43.663729000836611" lon="5.34902298822999">
        <ele>305.83999999999997</ele>
        <time>2025-05-17T11:20:24Z</time>
      </trkpt>
      <trkpt lat="43.663376960903406" lon="5.348873035982251">
        <ele>307.75999999999999</ele>
        <time>2025-05-17T11:20:29Z</time>
      </trkpt>
      <trkpt lat="43.663306972011924" lon="5.348855014890432">
        <ele>308.24000000000001</ele>
        <time>2025-05-17T11:20:30Z</time>
      </trkpt>
      <trkpt lat="43.663171017542481" lon="5.348879992961884">
        <ele>310.16000000000003</ele>
        <time>2025-05-17T11:20:32Z</time>
      </trkpt>
      <trkpt lat="43.663123995065689" lon="5.348945958539844">
        <ele>311.12</ele>
        <time>2025-05-17T11:20:33Z</time>
      </trkpt>
      <trkpt lat="43.663069009780884" lon="5.349021982401609">
        <ele>312.08999999999997</ele>
        <time>2025-05-17T11:20:34Z</time>
      </trkpt>
      <trkpt lat="43.662657039240003" lon="5.349670993164182">
        <ele>315.44999999999999</ele>
        <time>2025-05-17T11:20:42Z</time>
      </trkpt>
      <trkpt lat="43.662367025390267" lon="5.350254960358143">
        <ele>317.37</ele>
        <time>2025-05-17T11:20:48Z</time>
      </trkpt>
      <trkpt lat="43.662322014570236" lon="5.350340958684683">
        <ele>317.85000000000002</ele>
        <time>2025-05-17T11:20:49Z</time>
      </trkpt>
      <trkpt lat="43.662237022072077" lon="5.350509015843272">
        <ele>318.32999999999998</ele>
        <time>2025-05-17T11:20:51Z</time>
      </trkpt>
      <trkpt lat="43.662198968231678" lon="5.350589985027909">
        <ele>318.81</ele>
        <time>2025-05-17T11:20:52Z</time>
      </trkpt>
      <trkpt lat="43.662082962691784" lon="5.350836999714375">
        <ele>318.81</ele>
        <time>2025-05-17T11:20:55Z</time>
      </trkpt>
      <trkpt lat="43.662044992670417" lon="5.350918974727392">
        <ele>318.81</ele>
        <time>2025-05-17T11:20:56Z</time>
      </trkpt>
      <trkpt lat="43.661435963585973" lon="5.351907033473253">
        <ele>320.25999999999999</ele>
        <time>2025-05-17T11:21:07Z</time>
      </trkpt>
      <trkpt lat="43.661363963037729" lon="5.352015998214483">
        <ele>320.25999999999999</ele>
        <time>2025-05-17T11:21:08Z</time>
      </trkpt>
      <trkpt lat="43.660529963672161" lon="5.352934990078211">
        <ele>319.30000000000001</ele>
        <time>2025-05-17T11:21:18Z</time>
      </trkpt>
      <trkpt lat="43.659637961536646" lon="5.353797990828753">
        <ele>317.85000000000002</ele>
        <time>2025-05-17T11:21:27Z</time>
      </trkpt>
      <trkpt lat="43.658631965517998" lon="5.354688987135887">
        <ele>318.32999999999998</ele>
        <time>2025-05-17T11:21:37Z</time>
      </trkpt>
      <trkpt lat="43.658313034102321" lon="5.354938013479114">
        <ele>318.32999999999998</ele>
        <time>2025-05-17T11:21:40Z</time>
      </trkpt>
      <trkpt lat="43.65820499137044" lon="5.354997022077441">
        <ele>318.32999999999998</ele>
        <time>2025-05-17T11:21:41Z</time>
      </trkpt>
      <trkpt lat="43.658089991658926" lon="5.355024011805654">
        <ele>318.32999999999998</ele>
        <time>2025-05-17T11:21:42Z</time>
      </trkpt>
      <trkpt lat="43.657973986119032" lon="5.354983024299145">
        <ele>318.32999999999998</ele>
        <time>2025-05-17T11:21:43Z</time>
      </trkpt>
      <trkpt lat="43.657844988629222" lon="5.355019988492131">
        <ele>318.32999999999998</ele>
        <time>2025-05-17T11:21:44Z</time>
      </trkpt>
      <trkpt lat="43.657758990302682" lon="5.355104980990291">
        <ele>318.32999999999998</ele>
        <time>2025-05-17T11:21:45Z</time>
      </trkpt>
      <trkpt lat="43.657678021118045" lon="5.355249987915158">
        <ele>318.32999999999998</ele>
        <time>2025-05-17T11:21:46Z</time>
      </trkpt>
      <trkpt lat="43.657599985599518" lon="5.35536096431315">
        <ele>318.32999999999998</ele>
        <time>2025-05-17T11:21:47Z</time>
      </trkpt>
      <trkpt lat="43.657493032515049" lon="5.355446962639689">
        <ele>318.32999999999998</ele>
        <time>2025-05-17T11:21:48Z</time>
      </trkpt>
      <trkpt lat="43.657371997833252" lon="5.355491973459721">
        <ele>318.32999999999998</ele>
        <time>2025-05-17T11:21:49Z</time>
      </trkpt>
      <trkpt lat="43.657247023656964" lon="5.355491973459721">
        <ele>318.32999999999998</ele>
        <time>2025-05-17T11:21:50Z</time>
      </trkpt>
      <trkpt lat="43.657117020338774" lon="5.355491973459721">
        <ele>318.32999999999998</ele>
        <time>2025-05-17T11:21:51Z</time>
      </trkpt>
      <trkpt lat="43.656017985194921" lon="5.355512006208301">
        <ele>316.88999999999999</ele>
        <time>2025-05-17T11:21:58Z</time>
      </trkpt>
      <trkpt lat="43.654192993417382" lon="5.356007963418961">
        <ele>314.49000000000001</ele>
        <time>2025-05-17T11:22:08Z</time>
      </trkpt>
      <trkpt lat="43.653790997341275" lon="5.356179960072041">
        <ele>315.44999999999999</ele>
        <time>2025-05-17T11:22:10Z</time>
      </trkpt>
      <trkpt lat="43.652133978903294" lon="5.357232978567481">
        <ele>318.32999999999998</ele>
        <time>2025-05-17T11:22:19Z</time>
      </trkpt>
      <trkpt lat="43.650928996503353" lon="5.357641009613872">
        <ele>320.25999999999999</ele>
        <time>2025-05-17T11:22:25Z</time>
      </trkpt>
      <trkpt lat="43.648447031155229" lon="5.35806798376143">
        <ele>325.54000000000002</ele>
        <time>2025-05-17T11:22:37Z</time>
      </trkpt>
      <trkpt lat="43.645918965339661" lon="5.358499987050891">
        <ele>327.47000000000003</ele>
        <time>2025-05-17T11:22:49Z</time>
      </trkpt>
      <trkpt lat="43.644262030720711" lon="5.359092000871897">
        <ele>325.54000000000002</ele>
        <time>2025-05-17T11:22:57Z</time>
      </trkpt>
      <trkpt lat="43.643372040241957" lon="5.359824998304248">
        <ele>325.06</ele>
        <time>2025-05-17T11:23:02Z</time>
      </trkpt>
      <trkpt lat="43.643212029710412" lon="5.359919965267181">
        <ele>325.06</ele>
        <time>2025-05-17T11:23:03Z</time>
      </trkpt>
      <trkpt lat="43.643049001693726" lon="5.359978973865509">
        <ele>325.06</ele>
        <time>2025-05-17T11:23:04Z</time>
      </trkpt>
      <trkpt lat="43.642868036404252" lon="5.359975034371018">
        <ele>325.54000000000002</ele>
        <time>2025-05-17T11:23:05Z</time>
      </trkpt>
      <trkpt lat="43.642695033922791" lon="5.359921976923943">
        <ele>325.54000000000002</ele>
        <time>2025-05-17T11:23:06Z</time>
      </trkpt>
      <trkpt lat="43.642526976764202" lon="5.359832961112261">
        <ele>326.01999999999998</ele>
        <time>2025-05-17T11:23:07Z</time>
      </trkpt>
      <trkpt lat="43.642365038394928" lon="5.35970002412796">
        <ele>326.5</ele>
        <time>2025-05-17T11:23:08Z</time>
      </trkpt>
      <trkpt lat="43.64219999872148" lon="5.359563985839486">
        <ele>326.99000000000001</ele>
        <time>2025-05-17T11:23:09Z</time>
      </trkpt>
      <trkpt lat="43.641263991594315" lon="5.35892503336072">
        <ele>327.47000000000003</ele>
        <time>2025-05-17T11:23:15Z</time>
      </trkpt>
      <trkpt lat="43.640720006078482" lon="5.35884196870029">
        <ele>327.94999999999999</ele>
        <time>2025-05-17T11:23:18Z</time>
      </trkpt>
      <trkpt lat="43.640538034960628" lon="5.35886300727725">
        <ele>328.43000000000001</ele>
        <time>2025-05-17T11:23:19Z</time>
      </trkpt>
      <trkpt lat="43.640183983370662" lon="5.358954034745693">
        <ele>328.91000000000003</ele>
        <time>2025-05-17T11:23:21Z</time>
      </trkpt>
      <trkpt lat="43.640002012252808" lon="5.359000973403454">
        <ele>329.38999999999999</ele>
        <time>2025-05-17T11:23:22Z</time>
      </trkpt>
      <trkpt lat="43.639822974801064" lon="5.359046990051866">
        <ele>329.87</ele>
        <time>2025-05-17T11:23:23Z</time>
      </trkpt>
      <trkpt lat="43.639133982360363" lon="5.35955099388957">
        <ele>332.75</ele>
        <time>2025-05-17T11:23:27Z</time>
      </trkpt>
      <trkpt lat="43.63770604133606" lon="5.360853960737586">
        <ele>338.04000000000002</ele>
        <time>2025-05-17T11:23:36Z</time>
      </trkpt>
      <trkpt lat="43.637159960344434" lon="5.361059987917543">
        <ele>339.95999999999998</ele>
        <time>2025-05-17T11:23:39Z</time>
      </trkpt>
      <trkpt lat="43.636971032246947" lon="5.361080020666122">
        <ele>340.44</ele>
        <time>2025-05-17T11:23:40Z</time>
      </trkpt>
      <trkpt lat="43.636793000623584" lon="5.361083038151264">
        <ele>340.92000000000002</ele>
        <time>2025-05-17T11:23:41Z</time>
      </trkpt>
      <trkpt lat="43.636608012020588" lon="5.36105596460402">
        <ele>341.41000000000003</ele>
        <time>2025-05-17T11:23:42Z</time>
      </trkpt>
      <trkpt lat="43.63641900010407" lon="5.361028974875808">
        <ele>342.37</ele>
        <time>2025-05-17T11:23:43Z</time>
      </trkpt>
      <trkpt lat="43.636235017329454" lon="5.360986981540918">
        <ele>342.85000000000002</ele>
        <time>2025-05-17T11:23:44Z</time>
      </trkpt>
      <trkpt lat="43.634215984493494" lon="5.360488006845117">
        <ele>350.54000000000002</ele>
        <time>2025-05-17T11:23:55Z</time>
      </trkpt>
      <trkpt lat="43.633149974048138" lon="5.360051980242133">
        <ele>353.42000000000002</ele>
        <time>2025-05-17T11:24:01Z</time>
      </trkpt>
      <trkpt lat="43.632987029850483" lon="5.35991501994431">
        <ele>353.42000000000002</ele>
        <time>2025-05-17T11:24:02Z</time>
      </trkpt>
      <trkpt lat="43.632841017097235" lon="5.359754003584385">
        <ele>353.42000000000002</ele>
        <time>2025-05-17T11:24:03Z</time>
      </trkpt>
      <trkpt lat="43.631424978375435" lon="5.357963964343071">
        <ele>353.42000000000002</ele>
        <time>2025-05-17T11:24:13Z</time>
      </trkpt>
      <trkpt lat="43.630228964611888" lon="5.35641398280859">
        <ele>359.19</ele>
        <time>2025-05-17T11:24:22Z</time>
      </trkpt>
      <trkpt lat="43.630112959071994" lon="5.356208961457014">
        <ele>359.67000000000002</ele>
        <time>2025-05-17T11:24:23Z</time>
      </trkpt>
      <trkpt lat="43.630012040957808" lon="5.355982985347509">
        <ele>359.67000000000002</ele>
        <time>2025-05-17T11:24:24Z</time>
      </trkpt>
      <trkpt lat="43.629946997389197" lon="5.355735970661044">
        <ele>360.14999999999998</ele>
        <time>2025-05-17T11:24:25Z</time>
      </trkpt>
      <trkpt lat="43.629882037639618" lon="5.355487028136849">
        <ele>360.63</ele>
        <time>2025-05-17T11:24:26Z</time>
      </trkpt>
      <trkpt lat="43.629816994071007" lon="5.355235990136862">
        <ele>360.63</ele>
        <time>2025-05-17T11:24:27Z</time>
      </trkpt>
      <trkpt lat="43.629769971594214" lon="5.354971960186958">
        <ele>360.63</ele>
        <time>2025-05-17T11:24:28Z</time>
      </trkpt>
      <trkpt lat="43.629274014383554" lon="5.352219007909298">
        <ele>363.51999999999998</ele>
        <time>2025-05-17T11:24:38Z</time>
      </trkpt>
      <trkpt lat="43.629106041043997" lon="5.351430019363761">
        <ele>364</ele>
        <time>2025-05-17T11:24:41Z</time>
      </trkpt>
      <trkpt lat="43.629016019403934" lon="5.351191973313689">
        <ele>364.48000000000002</ele>
        <time>2025-05-17T11:24:42Z</time>
      </trkpt>
      <trkpt lat="43.628917029127479" lon="5.350957028567791">
        <ele>364.48000000000002</ele>
        <time>2025-05-17T11:24:43Z</time>
      </trkpt>
      <trkpt lat="43.628820972517133" lon="5.350727029144764">
        <ele>364.95999999999998</ele>
        <time>2025-05-17T11:24:44Z</time>
      </trkpt>
      <trkpt lat="43.628698009997606" lon="5.350531982257962">
        <ele>365.44</ele>
        <time>2025-05-17T11:24:45Z</time>
      </trkpt>
      <trkpt lat="43.628574041649699" lon="5.350340958684683">
        <ele>365.92000000000002</ele>
        <time>2025-05-17T11:24:46Z</time>
      </trkpt>
      <trkpt lat="43.628442026674747" lon="5.350171979516745">
        <ele>366.39999999999998</ele>
        <time>2025-05-17T11:24:47Z</time>
      </trkpt>
      <trkpt lat="43.628286961466074" lon="5.350041976198554">
        <ele>366.88</ele>
        <time>2025-05-17T11:24:48Z</time>
      </trkpt>
      <trkpt lat="43.628136003389955" lon="5.349914990365505">
        <ele>366.88</ele>
        <time>2025-05-17T11:24:49Z</time>
      </trkpt>
      <trkpt lat="43.627979010343552" lon="5.349810970947146">
        <ele>367.36000000000001</ele>
        <time>2025-05-17T11:24:50Z</time>
      </trkpt>
      <trkpt lat="43.627807013690472" lon="5.349711980670691">
        <ele>367.36000000000001</ele>
        <time>2025-05-17T11:24:51Z</time>
      </trkpt>
      <trkpt lat="43.626529024913907" lon="5.349390031769872">
        <ele>367.83999999999997</ele>
        <time>2025-05-17T11:24:58Z</time>
      </trkpt>
      <trkpt lat="43.624960016459227" lon="5.349297998473048">
        <ele>364.48000000000002</ele>
        <time>2025-05-17T11:25:06Z</time>
      </trkpt>
      <trkpt lat="43.624438997358084" lon="5.349380979314446">
        <ele>363.04000000000002</ele>
        <time>2025-05-17T11:25:09Z</time>
      </trkpt>
      <trkpt lat="43.624330032616854" lon="5.349491033703089">
        <ele>363.04000000000002</ele>
        <time>2025-05-17T11:25:10Z</time>
      </trkpt>
      <trkpt lat="43.624231964349747" lon="5.349636962637305">
        <ele>363.04000000000002</ele>
        <time>2025-05-17T11:25:11Z</time>
      </trkpt>
      <trkpt lat="43.62417203374207" lon="5.349748022854328">
        <ele>363.04000000000002</ele>
        <time>2025-05-17T11:25:12Z</time>
      </trkpt>
      <trkpt lat="43.624133979901671" lon="5.349940974265337">
        <ele>363.04000000000002</ele>
        <time>2025-05-17T11:25:13Z</time>
      </trkpt>
      <trkpt lat="43.624093998223543" lon="5.350152030587196">
        <ele>363.04000000000002</ele>
        <time>2025-05-17T11:25:14Z</time>
      </trkpt>
      <trkpt lat="43.624052004888654" lon="5.350363003090024">
        <ele>362.55000000000001</ele>
        <time>2025-05-17T11:25:15Z</time>
      </trkpt>
      <trkpt lat="43.623984027653933" lon="5.350586967542768">
        <ele>362.06999999999999</ele>
        <time>2025-05-17T11:25:16Z</time>
      </trkpt>
      <trkpt lat="43.623881014063954" lon="5.350772961974144">
        <ele>362.06999999999999</ele>
        <time>2025-05-17T11:25:17Z</time>
      </trkpt>
      <trkpt lat="43.623790992423892" lon="5.350877987220883">
        <ele>361.58999999999997</ele>
        <time>2025-05-17T11:25:18Z</time>
      </trkpt>
      <trkpt lat="43.62361497245729" lon="5.350957028567791">
        <ele>361.58999999999997</ele>
        <time>2025-05-17T11:25:19Z</time>
      </trkpt>
      <trkpt lat="43.623473988845944" lon="5.350961973890662">
        <ele>361.58999999999997</ele>
        <time>2025-05-17T11:25:20Z</time>
      </trkpt>
      <trkpt lat="43.623327976092696" lon="5.350958034396172">
        <ele>361.11000000000001</ele>
        <time>2025-05-17T11:25:21Z</time>
      </trkpt>
      <trkpt lat="43.623169977217913" lon="5.35095501691103">
        <ele>361.11000000000001</ele>
        <time>2025-05-17T11:25:22Z</time>
      </trkpt>
      <trkpt lat="43.622527001425624" lon="5.350982006639242">
        <ele>359.67000000000002</ele>
        <time>2025-05-17T11:25:26Z</time>
      </trkpt>
      <trkpt lat="43.62239196896553" lon="5.351045960560441">
        <ele>359.67000000000002</ele>
        <time>2025-05-17T11:25:27Z</time>
      </trkpt>
      <trkpt lat="43.622264983132482" lon="5.351104969158769">
        <ele>359.19</ele>
        <time>2025-05-17T11:25:28Z</time>
      </trkpt>
      <trkpt lat="43.622190970927477" lon="5.351251987740398">
        <ele>358.70999999999998</ele>
        <time>2025-05-17T11:25:29Z</time>
      </trkpt>
      <trkpt lat="43.622121987864375" lon="5.351425996050239">
        <ele>358.23000000000002</ele>
        <time>2025-05-17T11:25:30Z</time>
      </trkpt>
      <trkpt lat="43.622101033106446" lon="5.35162297077477">
        <ele>357.26999999999998</ele>
        <time>2025-05-17T11:25:31Z</time>
      </trkpt>
      <trkpt lat="43.622113019227982" lon="5.351831009611487">
        <ele>357.26999999999998</ele>
        <time>2025-05-17T11:25:32Z</time>
      </trkpt>
      <trkpt lat="43.622136991471052" lon="5.352054974064231">
        <ele>356.79000000000002</ele>
        <time>2025-05-17T11:25:33Z</time>
      </trkpt>
      <trkpt lat="43.622160041704774" lon="5.352272987365723">
        <ele>356.31</ele>
        <time>2025-05-17T11:25:34Z</time>
      </trkpt>
      <trkpt lat="43.622297002002597" lon="5.353227015584707">
        <ele>356.31</ele>
        <time>2025-05-17T11:25:38Z</time>
      </trkpt>
      <trkpt lat="43.622292978689075" lon="5.353706041350961">
        <ele>355.82999999999998</ele>
        <time>2025-05-17T11:25:40Z</time>
      </trkpt>
      <trkpt lat="43.622244028374553" lon="5.353934029117227">
        <ele>355.82999999999998</ele>
        <time>2025-05-17T11:25:41Z</time>
      </trkpt>
      <trkpt lat="43.622166998684406" lon="5.354136032983661">
        <ele>356.31</ele>
        <time>2025-05-17T11:25:42Z</time>
      </trkpt>
      <trkpt lat="43.622060967609286" lon="5.354312974959612">
        <ele>356.31</ele>
        <time>2025-05-17T11:25:43Z</time>
      </trkpt>
      <trkpt lat="43.621953008696437" lon="5.354493018239737">
        <ele>356.31</ele>
        <time>2025-05-17T11:25:44Z</time>
      </trkpt>
      <trkpt lat="43.621811019256711" lon="5.354602988809347">
        <ele>356.79000000000002</ele>
        <time>2025-05-17T11:25:45Z</time>
      </trkpt>
      <trkpt lat="43.621668023988605" lon="5.354708014056087">
        <ele>356.79000000000002</ele>
        <time>2025-05-17T11:25:46Z</time>
      </trkpt>
      <trkpt lat="43.621529974043369" lon="5.354741038754582">
        <ele>356.31</ele>
        <time>2025-05-17T11:25:47Z</time>
      </trkpt>
      <trkpt lat="43.621392007917166" lon="5.354724023491144">
        <ele>356.31</ele>
        <time>2025-05-17T11:25:48Z</time>
      </trkpt>
      <trkpt lat="43.621249012649059" lon="5.354659985750914">
        <ele>356.31</ele>
        <time>2025-05-17T11:25:49Z</time>
      </trkpt>
      <trkpt lat="43.621116997674108" lon="5.354549009352922">
        <ele>355.82999999999998</ele>
        <time>2025-05-17T11:25:50Z</time>
      </trkpt>
      <trkpt lat="43.620975008234382" lon="5.354425041005015">
        <ele>355.33999999999997</ele>
        <time>2025-05-17T11:25:51Z</time>
      </trkpt>
      <trkpt lat="43.620836036279798" lon="5.354303000494838">
        <ele>354.86000000000001</ele>
        <time>2025-05-17T11:25:52Z</time>
      </trkpt>
      <trkpt lat="43.620702009648085" lon="5.354185989126563">
        <ele>353.42000000000002</ele>
        <time>2025-05-17T11:25:53Z</time>
      </trkpt>
      <trkpt lat="43.620550967752934" lon="5.354053974151611">
        <ele>352.45999999999998</ele>
        <time>2025-05-17T11:25:54Z</time>
      </trkpt>
      <trkpt lat="43.620400009676814" lon="5.354023966938257">
        <ele>351.5</ele>
        <time>2025-05-17T11:25:55Z</time>
      </trkpt>
      <trkpt lat="43.620235975831747" lon="5.353991026058793">
        <ele>351.01999999999998</ele>
        <time>2025-05-17T11:25:56Z</time>
      </trkpt>
      <trkpt lat="43.620075965300202" lon="5.354043999686837">
        <ele>350.54000000000002</ele>
        <time>2025-05-17T11:25:57Z</time>
      </trkpt>
      <trkpt lat="43.619918972253799" lon="5.354098984971643">
        <ele>349.57999999999998</ele>
        <time>2025-05-17T11:25:58Z</time>
      </trkpt>
      <trkpt lat="43.619782011955976" lon="5.354182971641421">
        <ele>349.10000000000002</ele>
        <time>2025-05-17T11:25:59Z</time>
      </trkpt>
      <trkpt lat="43.619637005031109" lon="5.354296965524554">
        <ele>348.62</ele>
        <time>2025-05-17T11:26:00Z</time>
      </trkpt>
      <trkpt lat="43.619501972571015" lon="5.35443602129817">
        <ele>348.13</ele>
        <time>2025-05-17T11:26:01Z</time>
      </trkpt>
      <trkpt lat="43.619376998394728" lon="5.354597959667444">
        <ele>347.64999999999998</ele>
        <time>2025-05-17T11:26:02Z</time>
      </trkpt>
      <trkpt lat="43.619279013946652" lon="5.354796024039388">
        <ele>346.69</ele>
        <time>2025-05-17T11:26:03Z</time>
      </trkpt>
      <trkpt lat="43.619184968993068" lon="5.355013031512499">
        <ele>345.73000000000002</ele>
        <time>2025-05-17T11:26:04Z</time>
      </trkpt>
      <trkpt lat="43.619092013686895" lon="5.35523003898561">
        <ele>344.76999999999998</ele>
        <time>2025-05-17T11:26:05Z</time>
      </trkpt>
      <trkpt lat="43.618995035067201" lon="5.355451991781592">
        <ele>343.81</ele>
        <time>2025-05-17T11:26:06Z</time>
      </trkpt>
      <trkpt lat="43.618425987660885" lon="5.356763005256653">
        <ele>335.63999999999999</ele>
        <time>2025-05-17T11:26:12Z</time>
      </trkpt>
      <trkpt lat="43.617826011031866" lon="5.357973016798496">
        <ele>329.38999999999999</ele>
        <time>2025-05-17T11:26:18Z</time>
      </trkpt>
      <trkpt lat="43.616744996979833" lon="5.359234996140003">
        <ele>323.62</ele>
        <time>2025-05-17T11:26:26Z</time>
      </trkpt>
      <trkpt lat="43.615606985986233" lon="5.360425980761647">
        <ele>319.77999999999997</ele>
        <time>2025-05-17T11:26:35Z</time>
      </trkpt>
      <trkpt lat="43.613962959498167" lon="5.362138990312815">
        <ele>317.85000000000002</ele>
        <time>2025-05-17T11:26:47Z</time>
      </trkpt>
      <trkpt lat="43.612543987110257" lon="5.363623006269336">
        <ele>315.93000000000001</ele>
        <time>2025-05-17T11:26:57Z</time>
      </trkpt>
      <trkpt lat="43.611272033303976" lon="5.364890014752746">
        <ele>316.41000000000003</ele>
        <time>2025-05-17T11:27:06Z</time>
      </trkpt>
      <trkpt lat="43.609995972365141" lon="5.365412039682269">
        <ele>313.52999999999997</ele>
        <time>2025-05-17T11:27:13Z</time>
      </trkpt>
      <trkpt lat="43.608002001419663" lon="5.365573978051543">
        <ele>310.63999999999999</ele>
        <time>2025-05-17T11:27:23Z</time>
      </trkpt>
      <trkpt lat="43.606517985463142" lon="5.36569501273334">
        <ele>308.72000000000003</ele>
        <time>2025-05-17T11:27:31Z</time>
      </trkpt>
      <trkpt lat="43.604686036705971" lon="5.365816969424486">
        <ele>302.94999999999999</ele>
        <time>2025-05-17T11:27:40Z</time>
      </trkpt>
      <trkpt lat="43.603086015209556" lon="5.365924006327987">
        <ele>297.18000000000001</ele>
        <time>2025-05-17T11:27:48Z</time>
      </trkpt>
      <trkpt lat="43.601379040628672" lon="5.366036994382739">
        <ele>293.33999999999997</ele>
        <time>2025-05-17T11:27:57Z</time>
      </trkpt>
      <trkpt lat="43.599611967802048" lon="5.36616800352931">
        <ele>290.45999999999998</ele>
        <time>2025-05-17T11:28:06Z</time>
      </trkpt>
      <trkpt lat="43.597451029345393" lon="5.36634000018239">
        <ele>294.30000000000001</ele>
        <time>2025-05-17T11:28:17Z</time>
      </trkpt>
      <trkpt lat="43.595516989007592" lon="5.366461034864187">
        <ele>298.63</ele>
        <time>2025-05-17T11:28:27Z</time>
      </trkpt>
      <trkpt lat="43.593660984188318" lon="5.366606041789055">
        <ele>293.81999999999999</ele>
        <time>2025-05-17T11:28:37Z</time>
      </trkpt>
      <trkpt lat="43.593107024207711" lon="5.366671001538634">
        <ele>291.89999999999998</ele>
        <time>2025-05-17T11:28:40Z</time>
      </trkpt>
      <trkpt lat="43.592932010069489" lon="5.366762029007077">
        <ele>291.42000000000002</ele>
        <time>2025-05-17T11:28:41Z</time>
      </trkpt>
      <trkpt lat="43.592758001759648" lon="5.366851966828108">
        <ele>290.45999999999998</ele>
        <time>2025-05-17T11:28:42Z</time>
      </trkpt>
      <trkpt lat="43.59187999740243" lon="5.367282964289188">
        <ele>287.08999999999997</ele>
        <time>2025-05-17T11:28:47Z</time>
      </trkpt>
      <trkpt lat="43.591141970828176" lon="5.367405004799366">
        <ele>284.69</ele>
        <time>2025-05-17T11:28:51Z</time>
      </trkpt>
      <trkpt lat="43.589286971837282" lon="5.367569038644433">
        <ele>283.73000000000002</ele>
        <time>2025-05-17T11:29:01Z</time>
      </trkpt>
      <trkpt lat="43.587888032197952" lon="5.368327014148235">
        <ele>281.31999999999999</ele>
        <time>2025-05-17T11:29:09Z</time>
      </trkpt>
      <trkpt lat="43.586840964853764" lon="5.369246006011963">
        <ele>275.06999999999999</ele>
        <time>2025-05-17T11:29:17Z</time>
      </trkpt>
      <trkpt lat="43.586706016212702" lon="5.369321024045348">
        <ele>274.58999999999997</ele>
        <time>2025-05-17T11:29:18Z</time>
      </trkpt>
      <trkpt lat="43.586648013442755" lon="5.369352959096432">
        <ele>274.11000000000001</ele>
        <time>2025-05-17T11:29:19Z</time>
      </trkpt>
      <trkpt lat="43.586606020107865" lon="5.369296967983246">
        <ele>273.63</ele>
        <time>2025-05-17T11:29:20Z</time>
      </trkpt>
      <trkpt lat="43.58655103482306" lon="5.369224967435002">
        <ele>272.67000000000002</ele>
        <time>2025-05-17T11:29:21Z</time>
      </trkpt>
      <trkpt lat="43.586509963497519" lon="5.369148021563888">
        <ele>272.19</ele>
        <time>2025-05-17T11:29:22Z</time>
      </trkpt>
      <trkpt lat="43.586451960727572" lon="5.36900301463902">
        <ele>271.70999999999998</ele>
        <time>2025-05-17T11:29:23Z</time>
      </trkpt>
      <trkpt lat="43.58638096600771" lon="5.368920033797622">
        <ele>271.23000000000002</ele>
        <time>2025-05-17T11:29:24Z</time>
      </trkpt>
      <trkpt lat="43.586264960467815" lon="5.368880974128842">
        <ele>271.23000000000002</ele>
        <time>2025-05-17T11:29:25Z</time>
      </trkpt>
      <trkpt lat="43.586160019040108" lon="5.368911987170577">
        <ele>271.23000000000002</ele>
        <time>2025-05-17T11:29:26Z</time>
      </trkpt>
      <trkpt lat="43.586068991571665" lon="5.368989016860724">
        <ele>271.23000000000002</ele>
        <time>2025-05-17T11:29:27Z</time>
      </trkpt>
      <trkpt lat="43.585956003516912" lon="5.369017012417316">
        <ele>270.75</ele>
        <time>2025-05-17T11:29:28Z</time>
      </trkpt>
      <trkpt lat="43.585836980491877" lon="5.36904601380229">
        <ele>270.26999999999998</ele>
        <time>2025-05-17T11:29:29Z</time>
      </trkpt>
      <trkpt lat="43.585727009922266" lon="5.369108961895108">
        <ele>269.79000000000002</ele>
        <time>2025-05-17T11:29:30Z</time>
      </trkpt>
      <trkpt lat="43.585646040737629" lon="5.369223961606622">
        <ele>269.31</ele>
        <time>2025-05-17T11:29:31Z</time>
      </trkpt>
      <trkpt lat="43.58558502048254" lon="5.369365029036999">
        <ele>268.82999999999998</ele>
        <time>2025-05-17T11:29:32Z</time>
      </trkpt>
      <trkpt lat="43.58552098274231" lon="5.369513975456357">
        <ele>268.35000000000002</ele>
        <time>2025-05-17T11:29:33Z</time>
      </trkpt>
      <trkpt lat="43.585418974980712" lon="5.369634004309773">
        <ele>268.35000000000002</ele>
        <time>2025-05-17T11:29:34Z</time>
      </trkpt>
      <trkpt lat="43.585307998582721" lon="5.369703993201256">
        <ele>267.86000000000001</ele>
        <time>2025-05-17T11:29:35Z</time>
      </trkpt>
      <trkpt lat="43.585195010527968" lon="5.369735006242991">
        <ele>267.86000000000001</ele>
        <time>2025-05-17T11:29:36Z</time>
      </trkpt>
      <trkpt lat="43.585066013038158" lon="5.369723020121455">
        <ele>267.38</ele>
        <time>2025-05-17T11:29:37Z</time>
      </trkpt>
      <trkpt lat="43.584924023598433" lon="5.36971103399992">
        <ele>266.89999999999998</ele>
        <time>2025-05-17T11:29:38Z</time>
      </trkpt>
      <trkpt lat="43.583891037851572" lon="5.369613971561194">
        <ele>263.54000000000002</ele>
        <time>2025-05-17T11:29:46Z</time>
      </trkpt>
      <trkpt lat="43.583641005679965" lon="5.369511041790247">
        <ele>262.57999999999998</ele>
        <time>2025-05-17T11:29:48Z</time>
      </trkpt>
      <trkpt lat="43.58354302123189" lon="5.369424037635326">
        <ele>262.57999999999998</ele>
        <time>2025-05-17T11:29:49Z</time>
      </trkpt>
      <trkpt lat="43.583463979884982" lon="5.369312977418304">
        <ele>262.10000000000002</ele>
        <time>2025-05-17T11:29:50Z</time>
      </trkpt>
      <trkpt lat="43.583401031792164" lon="5.369178028777242">
        <ele>261.62</ele>
        <time>2025-05-17T11:29:51Z</time>
      </trkpt>
      <trkpt lat="43.583337999880314" lon="5.369047019630671">
        <ele>260.64999999999998</ele>
        <time>2025-05-17T11:29:52Z</time>
      </trkpt>
      <trkpt lat="43.583301035687327" lon="5.368906036019325">
        <ele>260.17000000000002</ele>
        <time>2025-05-17T11:29:53Z</time>
      </trkpt>
      <trkpt lat="43.583301035687327" lon="5.368751976639032">
        <ele>259.69</ele>
        <time>2025-05-17T11:29:54Z</time>
      </trkpt>
      <trkpt lat="43.583301035687327" lon="5.36859598942101">
        <ele>259.20999999999998</ele>
        <time>2025-05-17T11:29:55Z</time>
      </trkpt>
      <trkpt lat="43.583301035687327" lon="5.368012022227049">
        <ele>258.73000000000002</ele>
        <time>2025-05-17T11:30:01Z</time>
      </trkpt>
      <trkpt lat="43.583301035687327" lon="5.367963993921876">
        <ele>258.25</ele>
        <time>2025-05-17T11:30:03Z</time>
      </trkpt>
      <trkpt lat="43.583262981846929" lon="5.367943961173296">
        <ele>257.76999999999998</ele>
        <time>2025-05-17T11:30:04Z</time>
      </trkpt>
      <trkpt lat="43.583172038197517" lon="5.367960976436734">
        <ele>256.81</ele>
        <time>2025-05-17T11:30:06Z</time>
      </trkpt>
      <trkpt lat="43.583129039034247" lon="5.367969023063779">
        <ele>255.84999999999999</ele>
        <time>2025-05-17T11:30:07Z</time>
      </trkpt>
      <trkpt lat="43.582956958562136" lon="5.368001963943243">
        <ele>253.93000000000001</ele>
        <time>2025-05-17T11:30:11Z</time>
      </trkpt>
      <trkpt lat="43.582700975239277" lon="5.368119981139898">
        <ele>251.52000000000001</ele>
        <time>2025-05-17T11:30:15Z</time>
      </trkpt>
      <trkpt lat="43.582627968862653" lon="5.368192987516522">
        <ele>251.03999999999999</ele>
        <time>2025-05-17T11:30:16Z</time>
      </trkpt>
      <trkpt lat="43.582572983577847" lon="5.368282003328204">
        <ele>250.56</ele>
        <time>2025-05-17T11:30:17Z</time>
      </trkpt>
      <trkpt lat="43.582533001899719" lon="5.368374036625028">
        <ele>251.03999999999999</ele>
        <time>2025-05-17T11:30:18Z</time>
      </trkpt>
      <trkpt lat="43.582494026049972" lon="5.368463974446058">
        <ele>251.52000000000001</ele>
        <time>2025-05-17T11:30:19Z</time>
      </trkpt>
      <trkpt lat="43.582459995523095" lon="5.368542009964585">
        <ele>252</ele>
        <time>2025-05-17T11:30:20Z</time>
      </trkpt>
      <trkpt lat="43.582425964996219" lon="5.368619961664081">
        <ele>252.47999999999999</ele>
        <time>2025-05-17T11:30:21Z</time>
      </trkpt>
      <trkpt lat="43.582171993330121" lon="5.369239971041679">
        <ele>254.41</ele>
        <time>2025-05-17T11:30:28Z</time>
      </trkpt>
      <trkpt lat="43.581819031387568" lon="5.370111018419266">
        <ele>254.41</ele>
        <time>2025-05-17T11:30:37Z</time>
      </trkpt>
      <trkpt lat="43.581777038052678" lon="5.370215037837625">
        <ele>254.41</ele>
        <time>2025-05-17T11:30:38Z</time>
      </trkpt>
      <trkpt lat="43.581691039726138" lon="5.370426010340452">
        <ele>254.88999999999999</ele>
        <time>2025-05-17T11:30:40Z</time>
      </trkpt>
      <trkpt lat="43.581650974228978" lon="5.370525000616908">
        <ele>255.37</ele>
        <time>2025-05-17T11:30:41Z</time>
      </trkpt>
      <trkpt lat="43.581143030896783" lon="5.371766025200486">
        <ele>257.76999999999998</ele>
        <time>2025-05-17T11:30:54Z</time>
      </trkpt>
      <trkpt lat="43.580904984846711" lon="5.372350998222828">
        <ele>258.25</ele>
        <time>2025-05-17T11:31:00Z</time>
      </trkpt>
      <trkpt lat="43.580544982105494" lon="5.373287005349994">
        <ele>261.62</ele>
        <time>2025-05-17T11:31:09Z</time>
      </trkpt>
      <trkpt lat="43.580210963264108" lon="5.374138019979">
        <ele>264.01999999999998</ele>
        <time>2025-05-17T11:31:15Z</time>
      </trkpt>
      <trkpt lat="43.580185985192657" lon="5.374262994155288">
        <ele>264.5</ele>
        <time>2025-05-17T11:31:16Z</time>
      </trkpt>
      <trkpt lat="43.579926984384656" lon="5.375569984316826">
        <ele>263.54000000000002</ele>
        <time>2025-05-17T11:31:27Z</time>
      </trkpt>
      <trkpt lat="43.579751970246434" lon="5.376423010602593">
        <ele>263.54000000000002</ele>
        <time>2025-05-17T11:31:35Z</time>
      </trkpt>
      <trkpt lat="43.579556001350284" lon="5.37738298997283">
        <ele>261.62</ele>
        <time>2025-05-17T11:31:43Z</time>
      </trkpt>
      <trkpt lat="43.579399008303881" lon="5.3781149815768">
        <ele>260.17000000000002</ele>
        <time>2025-05-17T11:31:49Z</time>
      </trkpt>
      <trkpt lat="43.57888100668788" lon="5.379172023385763">
        <ele>261.13999999999999</ele>
        <time>2025-05-17T11:31:59Z</time>
      </trkpt>
      <trkpt lat="43.578509017825127" lon="5.379900997504592">
        <ele>263.06</ele>
        <time>2025-05-17T11:32:09Z</time>
      </trkpt>
      <trkpt lat="43.577956985682249" lon="5.381018975749612">
        <ele>265.45999999999998</ele>
        <time>2025-05-17T11:32:20Z</time>
      </trkpt>
      <trkpt lat="43.577923960983753" lon="5.381133975461125">
        <ele>265.94</ele>
        <time>2025-05-17T11:32:21Z</time>
      </trkpt>
      <trkpt lat="43.57789303176105" lon="5.381241012364626">
        <ele>265.45999999999998</ele>
        <time>2025-05-17T11:32:22Z</time>
      </trkpt>
      <trkpt lat="43.577889008447528" lon="5.381361963227391">
        <ele>265.94</ele>
        <time>2025-05-17T11:32:23Z</time>
      </trkpt>
      <trkpt lat="43.577883979305625" lon="5.381485009565949">
        <ele>265.45999999999998</ele>
        <time>2025-05-17T11:32:24Z</time>
      </trkpt>
      <trkpt lat="43.577880039811134" lon="5.381607972085476">
        <ele>265.45999999999998</ele>
        <time>2025-05-17T11:32:25Z</time>
      </trkpt>
      <trkpt lat="43.57782899402082" lon="5.382552025839686">
        <ele>264.5</ele>
        <time>2025-05-17T11:32:32Z</time>
      </trkpt>
      <trkpt lat="43.577745007351041" lon="5.383072039112449">
        <ele>265.94</ele>
        <time>2025-05-17T11:32:37Z</time>
      </trkpt>
      <trkpt lat="43.577735032886267" lon="5.383130041882396">
        <ele>266.42000000000002</ele>
        <time>2025-05-17T11:32:38Z</time>
      </trkpt>
      <trkpt lat="43.577735032886267" lon="5.383130041882396">
        <ele>266.89999999999998</ele>
        <time>2025-05-17T11:32:46Z</time>
      </trkpt>
      <trkpt lat="43.577755987644196" lon="5.383423995226622">
        <ele>267.86000000000001</ele>
        <time>2025-05-17T11:32:51Z</time>
      </trkpt>
      <trkpt lat="43.577706031501293" lon="5.383510999381542">
        <ele>267.86000000000001</ele>
        <time>2025-05-17T11:32:52Z</time>
      </trkpt>
      <trkpt lat="43.57716497965157" lon="5.384396966546774">
        <ele>269.31</ele>
        <time>2025-05-17T11:32:59Z</time>
      </trkpt>
      <trkpt lat="43.576594004407525" lon="5.385322999209166">
        <ele>269.79000000000002</ele>
        <time>2025-05-17T11:33:05Z</time>
      </trkpt>
      <trkpt lat="43.575493963435292" lon="5.38713701069355">
        <ele>268.82999999999998</ele>
        <time>2025-05-17T11:33:16Z</time>
      </trkpt>
      <trkpt lat="43.574202982708812" lon="5.389260984957218">
        <ele>266.42000000000002</ele>
        <time>2025-05-17T11:33:27Z</time>
      </trkpt>
      <trkpt lat="43.573216013610363" lon="5.390896964818239">
        <ele>266.89999999999998</ele>
        <time>2025-05-17T11:33:37Z</time>
      </trkpt>
      <trkpt lat="43.572979979217052" lon="5.391182033345103">
        <ele>266.42000000000002</ele>
        <time>2025-05-17T11:33:40Z</time>
      </trkpt>
      <trkpt lat="43.572918958961964" lon="5.391255961731076">
        <ele>266.42000000000002</ele>
        <time>2025-05-17T11:33:41Z</time>
      </trkpt>
      <trkpt lat="43.572855005040765" lon="5.391333997249603">
        <ele>266.42000000000002</ele>
        <time>2025-05-17T11:33:42Z</time>
      </trkpt>
      <trkpt lat="43.572528026998043" lon="5.391504988074303">
        <ele>265.94</ele>
        <time>2025-05-17T11:33:46Z</time>
      </trkpt>
      <trkpt lat="43.572474969550967" lon="5.391612024977803">
        <ele>265.94</ele>
        <time>2025-05-17T11:33:47Z</time>
      </trkpt>
      <trkpt lat="43.572449991479516" lon="5.391718978062272">
        <ele>265.45999999999998</ele>
        <time>2025-05-17T11:33:48Z</time>
      </trkpt>
      <trkpt lat="43.572444040328264" lon="5.391886029392481">
        <ele>265.45999999999998</ele>
        <time>2025-05-17T11:33:49Z</time>
      </trkpt>
      <trkpt lat="43.572486033663154" lon="5.39197001606226">
        <ele>265.45999999999998</ele>
        <time>2025-05-17T11:33:50Z</time>
      </trkpt>
      <trkpt lat="43.57256599701941" lon="5.392070012167096">
        <ele>264.98000000000002</ele>
        <time>2025-05-17T11:33:51Z</time>
      </trkpt>
      <trkpt lat="43.572696000337601" lon="5.392214013263583">
        <ele>264.98000000000002</ele>
        <time>2025-05-17T11:33:52Z</time>
      </trkpt>
      <trkpt lat="43.572688037529588" lon="5.392361031845212">
        <ele>264.5</ele>
        <time>2025-05-17T11:33:53Z</time>
      </trkpt>
      <trkpt lat="43.572720978409052" lon="5.392842991277576">
        <ele>264.01999999999998</ele>
        <time>2025-05-17T11:33:56Z</time>
      </trkpt>
      <trkpt lat="43.572747968137264" lon="5.393029991537333">
        <ele>264.01999999999998</ele>
        <time>2025-05-17T11:33:57Z</time>
      </trkpt>
      <trkpt lat="43.57282399199903" lon="5.393186984583736">
        <ele>264.01999999999998</ele>
        <time>2025-05-17T11:33:58Z</time>
      </trkpt>
      <trkpt lat="43.572904039174318" lon="5.393352024257183">
        <ele>264.5</ele>
        <time>2025-05-17T11:33:59Z</time>
      </trkpt>
      <trkpt lat="43.572986014187336" lon="5.393521003425121">
        <ele>264.5</ele>
        <time>2025-05-17T11:34:00Z</time>
      </trkpt>
      <trkpt lat="43.573197992518544" lon="5.394072029739618">
        <ele>264.5</ele>
        <time>2025-05-17T11:34:03Z</time>
      </trkpt>
      <trkpt lat="43.573257001116872" lon="5.394266992807388">
        <ele>264.5</ele>
        <time>2025-05-17T11:34:04Z</time>
      </trkpt>
      <trkpt lat="43.573303017765284" lon="5.394462961703539">
        <ele>264.5</ele>
        <time>2025-05-17T11:34:05Z</time>
      </trkpt>
      <trkpt lat="43.573316009715199" lon="5.394876021891832">
        <ele>264.5</ele>
        <time>2025-05-17T11:34:07Z</time>
      </trkpt>
      <trkpt lat="43.573322966694832" lon="5.395080959424377">
        <ele>264.5</ele>
        <time>2025-05-17T11:34:08Z</time>
      </trkpt>
      <trkpt lat="43.573291031643748" lon="5.395294027402997">
        <ele>264.5</ele>
        <time>2025-05-17T11:34:09Z</time>
      </trkpt>
      <trkpt lat="43.573259012773633" lon="5.395511034876108">
        <ele>264.5</ele>
        <time>2025-05-17T11:34:10Z</time>
      </trkpt>
      <trkpt lat="43.573211990296841" lon="5.395723013207316">
        <ele>264.5</ele>
        <time>2025-05-17T11:34:11Z</time>
      </trkpt>
      <trkpt lat="43.573134038597345" lon="5.395923005416989">
        <ele>264.98000000000002</ele>
        <time>2025-05-17T11:34:12Z</time>
      </trkpt>
      <trkpt lat="43.573056003078818" lon="5.396122997626662">
        <ele>264.98000000000002</ele>
        <time>2025-05-17T11:34:13Z</time>
      </trkpt>
      <trkpt lat="43.57295298948884" lon="5.396307986229658">
        <ele>265.45999999999998</ele>
        <time>2025-05-17T11:34:14Z</time>
      </trkpt>
      <trkpt lat="43.572846036404371" lon="5.396490041166544">
        <ele>265.94</ele>
        <time>2025-05-17T11:34:15Z</time>
      </trkpt>
      <trkpt lat="43.572726007550955" lon="5.396660026162863">
        <ele>265.94</ele>
        <time>2025-05-17T11:34:16Z</time>
      </trkpt>
      <trkpt lat="43.570878971368074" lon="5.399321028962731">
        <ele>276.51999999999998</ele>
        <time>2025-05-17T11:34:31Z</time>
      </trkpt>
      <trkpt lat="43.569792006164789" lon="5.401428993791342">
        <ele>282.27999999999997</ele>
        <time>2025-05-17T11:34:42Z</time>
      </trkpt>
      <trkpt lat="43.568665981292725" lon="5.403513992205262">
        <ele>279.39999999999998</ele>
        <time>2025-05-17T11:34:52Z</time>
      </trkpt>
      <trkpt lat="43.567708013579249" lon="5.404313039034605">
        <ele>280.36000000000001</ele>
        <time>2025-05-17T11:34:58Z</time>
      </trkpt>
      <trkpt lat="43.567525036633015" lon="5.404373975470662">
        <ele>280.83999999999997</ele>
        <time>2025-05-17T11:34:59Z</time>
      </trkpt>
      <trkpt lat="43.566294992342591" lon="5.404469026252627">
        <ele>282.27999999999997</ele>
        <time>2025-05-17T11:35:06Z</time>
      </trkpt>
      <trkpt lat="43.565644975751638" lon="5.404287977144122">
        <ele>282.27999999999997</ele>
        <time>2025-05-17T11:35:12Z</time>
      </trkpt>
      <trkpt lat="43.565499968826771" lon="5.404240032657981">
        <ele>282.27999999999997</ele>
        <time>2025-05-17T11:35:14Z</time>
      </trkpt>
      <trkpt lat="43.565426040440798" lon="5.404028976336122">
        <ele>282.27999999999997</ele>
        <time>2025-05-17T11:35:15Z</time>
      </trkpt>
      <trkpt lat="43.565408019348979" lon="5.404001986607909">
        <ele>282.27999999999997</ele>
        <time>2025-05-17T11:35:16Z</time>
      </trkpt>
      <trkpt lat="43.565354039892554" lon="5.403921017423272">
        <ele>282.27999999999997</ele>
        <time>2025-05-17T11:35:17Z</time>
      </trkpt>
      <trkpt lat="43.56525999493897" lon="5.403899978846312">
        <ele>282.27999999999997</ele>
        <time>2025-05-17T11:35:18Z</time>
      </trkpt>
      <trkpt lat="43.565181037411094" lon="5.403899978846312">
        <ele>282.76999999999998</ele>
        <time>2025-05-17T11:35:19Z</time>
      </trkpt>
      <trkpt lat="43.565109958872199" lon="5.403944989666343">
        <ele>282.76999999999998</ele>
        <time>2025-05-17T11:35:20Z</time>
      </trkpt>
      <trkpt lat="43.565052961930633" lon="5.404013972729445">
        <ele>282.76999999999998</ele>
        <time>2025-05-17T11:35:21Z</time>
      </trkpt>
      <trkpt lat="43.565031001344323" lon="5.404103994369507">
        <ele>282.76999999999998</ele>
        <time>2025-05-17T11:35:22Z</time>
      </trkpt>
      <trkpt lat="43.565019015222788" lon="5.404200972989202">
        <ele>283.25</ele>
        <time>2025-05-17T11:35:23Z</time>
      </trkpt>
      <trkpt lat="43.565042987465858" lon="5.404299963265657">
        <ele>283.73000000000002</ele>
        <time>2025-05-17T11:35:24Z</time>
      </trkpt>
      <trkpt lat="43.565097972750664" lon="5.404386967420578">
        <ele>284.20999999999998</ele>
        <time>2025-05-17T11:35:25Z</time>
      </trkpt>
      <trkpt lat="43.565177014097571" lon="5.404417980462313">
        <ele>284.20999999999998</ele>
        <time>2025-05-17T11:35:26Z</time>
      </trkpt>
      <trkpt lat="43.565286984667182" lon="5.404514959082007">
        <ele>284.20999999999998</ele>
        <time>2025-05-17T11:35:27Z</time>
      </trkpt>
      <trkpt lat="43.565313974395394" lon="5.404644962400198">
        <ele>283.73000000000002</ele>
        <time>2025-05-17T11:35:28Z</time>
      </trkpt>
      <trkpt lat="43.565343981608748" lon="5.40479801595211">
        <ele>283.73000000000002</ele>
        <time>2025-05-17T11:35:29Z</time>
      </trkpt>
      <trkpt lat="43.565364014357328" lon="5.404957020655274">
        <ele>283.73000000000002</ele>
        <time>2025-05-17T11:35:30Z</time>
      </trkpt>
      <trkpt lat="43.5653689596802" lon="5.405110996216536">
        <ele>284.20999999999998</ele>
        <time>2025-05-17T11:35:31Z</time>
      </trkpt>
      <trkpt lat="43.565372982993722" lon="5.405245022848249">
        <ele>284.20999999999998</ele>
        <time>2025-05-17T11:35:32Z</time>
      </trkpt>
      <trkpt lat="43.565377006307244" lon="5.405368991196156">
        <ele>284.69</ele>
        <time>2025-05-17T11:35:33Z</time>
      </trkpt>
      <trkpt lat="43.565381029620767" lon="5.405492959544063">
        <ele>284.69</ele>
        <time>2025-05-17T11:35:34Z</time>
      </trkpt>
      <trkpt lat="43.565411036834121" lon="5.405612988397479">
        <ele>285.17000000000002</ele>
        <time>2025-05-17T11:35:35Z</time>
      </trkpt>
      <trkpt lat="43.565479014068842" lon="5.405710972845554">
        <ele>286.13</ele>
        <time>2025-05-17T11:35:36Z</time>
      </trkpt>
      <trkpt lat="43.565555037930608" lon="5.405804011970758">
        <ele>286.61000000000001</ele>
        <time>2025-05-17T11:35:37Z</time>
      </trkpt>
      <trkpt lat="43.565644975751638" lon="5.40587198920548">
        <ele>287.08999999999997</ele>
        <time>2025-05-17T11:35:38Z</time>
      </trkpt>
      <trkpt lat="43.565734997391701" lon="5.405939966440201">
        <ele>287.56999999999999</ele>
        <time>2025-05-17T11:35:39Z</time>
      </trkpt>
      <trkpt lat="43.566256016492844" lon="5.406343974173069">
        <ele>289.49000000000001</ele>
        <time>2025-05-17T11:35:45Z</time>
      </trkpt>
      <trkpt lat="43.566476963460445" lon="5.406528040766716">
        <ele>289.49000000000001</ele>
        <time>2025-05-17T11:35:48Z</time>
      </trkpt>
      <trkpt lat="43.566711992025375" lon="5.406724009662867">
        <ele>289.97000000000003</ele>
        <time>2025-05-17T11:35:51Z</time>
      </trkpt>
      <trkpt lat="43.566800002008677" lon="5.406797016039491">
        <ele>289.97000000000003</ele>
        <time>2025-05-17T11:35:52Z</time>
      </trkpt>
      <trkpt lat="43.566883988678455" lon="5.406858958303928">
        <ele>289.97000000000003</ele>
        <time>2025-05-17T11:35:53Z</time>
      </trkpt>
      <trkpt lat="43.567069983109832" lon="5.406993990764022">
        <ele>289.49000000000001</ele>
        <time>2025-05-17T11:35:55Z</time>
      </trkpt>
      <trkpt lat="43.567918986082077" lon="5.407614000141621">
        <ele>284.20999999999998</ele>
        <time>2025-05-17T11:36:04Z</time>
      </trkpt>
      <trkpt lat="43.568516029044986" lon="5.408041980117559">
        <ele>282.76999999999998</ele>
        <time>2025-05-17T11:36:10Z</time>
      </trkpt>
      <trkpt lat="43.568562967702746" lon="5.408084979280829">
        <ele>282.27999999999997</ele>
        <time>2025-05-17T11:36:11Z</time>
      </trkpt>
      <trkpt lat="43.568729013204575" lon="5.408240966498852">
        <ele>281.31999999999999</ele>
        <time>2025-05-17T11:36:13Z</time>
      </trkpt>
      <trkpt lat="43.568818029016256" lon="5.408325036987662">
        <ele>281.31999999999999</ele>
        <time>2025-05-17T11:36:14Z</time>
      </trkpt>
      <trkpt lat="43.568918025121093" lon="5.408375998958945">
        <ele>280.83999999999997</ele>
        <time>2025-05-17T11:36:15Z</time>
      </trkpt>
      <trkpt lat="43.569032019004226" lon="5.408399971202016">
        <ele>280.83999999999997</ele>
        <time>2025-05-17T11:36:16Z</time>
      </trkpt>
      <trkpt lat="43.569146012887359" lon="5.408425033092499">
        <ele>280.83999999999997</ele>
        <time>2025-05-17T11:36:17Z</time>
      </trkpt>
      <trkpt lat="43.569255983456969" lon="5.408447999507189">
        <ele>280.83999999999997</ele>
        <time>2025-05-17T11:36:18Z</time>
      </trkpt>
      <trkpt lat="43.569459998980165" lon="5.408492004498839">
        <ele>280.36000000000001</ele>
        <time>2025-05-17T11:36:19Z</time>
      </trkpt>
      <trkpt lat="43.56960198841989" lon="5.408525029197335">
        <ele>279.88</ele>
        <time>2025-05-17T11:36:21Z</time>
      </trkpt>
      <trkpt lat="43.569724028930068" lon="5.408553024753928">
        <ele>279.88</ele>
        <time>2025-05-17T11:36:22Z</time>
      </trkpt>
      <trkpt lat="43.569849003106356" lon="5.408582026138902">
        <ele>279.88</ele>
        <time>2025-05-17T11:36:23Z</time>
      </trkpt>
      <trkpt lat="43.569978000596166" lon="5.408611027523875">
        <ele>279.88</ele>
        <time>2025-05-17T11:36:24Z</time>
      </trkpt>
      <trkpt lat="43.570105992257595" lon="5.408638017252088">
        <ele>279.88</ele>
        <time>2025-05-17T11:36:25Z</time>
      </trkpt>
      <trkpt lat="43.570778975263238" lon="5.408811019733548">
        <ele>281.31999999999999</ele>
        <time>2025-05-17T11:36:30Z</time>
      </trkpt>
      <trkpt lat="43.570915013551712" lon="5.408848989754915">
        <ele>281.80000000000001</ele>
        <time>2025-05-17T11:36:31Z</time>
      </trkpt>
      <trkpt lat="43.571091033518314" lon="5.40890003554523">
        <ele>281.80000000000001</ele>
        <time>2025-05-17T11:36:32Z</time>
      </trkpt>
      <trkpt lat="43.571453969925642" lon="5.40898603387177">
        <ele>282.76999999999998</ele>
        <time>2025-05-17T11:36:35Z</time>
      </trkpt>
      <trkpt lat="43.571584979072213" lon="5.409019980579615">
        <ele>283.73000000000002</ele>
        <time>2025-05-17T11:36:36Z</time>
      </trkpt>
      <trkpt lat="43.572622993960977" lon="5.409306976944208">
        <ele>284.69</ele>
        <time>2025-05-17T11:36:44Z</time>
      </trkpt>
      <trkpt lat="43.573061032220721" lon="5.409379983320832">
        <ele>283.73000000000002</ele>
        <time>2025-05-17T11:36:49Z</time>
      </trkpt>
      <trkpt lat="43.573107970878482" lon="5.409392975270748">
        <ele>283.25</ele>
        <time>2025-05-17T11:36:50Z</time>
      </trkpt>
      <trkpt lat="43.573217019438744" lon="5.409386018291116">
        <ele>283.25</ele>
        <time>2025-05-17T11:36:51Z</time>
      </trkpt>
      <trkpt lat="43.573307041078806" lon="5.409379983320832">
        <ele>283.25</ele>
        <time>2025-05-17T11:36:52Z</time>
      </trkpt>
      <trkpt lat="43.573404019698501" lon="5.4093730263412">
        <ele>283.25</ele>
        <time>2025-05-17T11:36:53Z</time>
      </trkpt>
      <trkpt lat="43.573925038799644" lon="5.409362968057394">
        <ele>283.73000000000002</ele>
        <time>2025-05-17T11:36:58Z</time>
      </trkpt>
      <trkpt lat="43.574052024632692" lon="5.409372020512819">
        <ele>283.25</ele>
        <time>2025-05-17T11:36:59Z</time>
      </trkpt>
      <trkpt lat="43.574066022410989" lon="5.409369003027678">
        <ele>282.76999999999998</ele>
        <time>2025-05-17T11:37:00Z</time>
      </trkpt>
      <trkpt lat="43.574160989373922" lon="5.409337989985943">
        <ele>282.27999999999997</ele>
        <time>2025-05-17T11:37:01Z</time>
      </trkpt>
      <trkpt lat="43.574166018515825" lon="5.409297002479434">
        <ele>281.80000000000001</ele>
        <time>2025-05-17T11:37:02Z</time>
      </trkpt>
      <trkpt lat="43.574173981323838" lon="5.409227013587952">
        <ele>281.80000000000001</ele>
        <time>2025-05-17T11:37:03Z</time>
      </trkpt>
      <trkpt lat="43.574198959395289" lon="5.409022998064756">
        <ele>280.36000000000001</ele>
        <time>2025-05-17T11:37:05Z</time>
      </trkpt>
      <trkpt lat="43.574352012947202" lon="5.407746015116572">
        <ele>274.58999999999997</ele>
        <time>2025-05-17T11:37:13Z</time>
      </trkpt>
      <trkpt lat="43.574467012658715" lon="5.406790981069207">
        <ele>271.23000000000002</ele>
        <time>2025-05-17T11:37:18Z</time>
      </trkpt>
      <trkpt lat="43.574496014043689" lon="5.406637005507946">
        <ele>270.75</ele>
        <time>2025-05-17T11:37:19Z</time>
      </trkpt>
      <trkpt lat="43.574555022642016" lon="5.406513959169388">
        <ele>270.26999999999998</ele>
        <time>2025-05-17T11:37:20Z</time>
      </trkpt>
      <trkpt lat="43.574612019583583" lon="5.406394014135003">
        <ele>269.79000000000002</ele>
        <time>2025-05-17T11:37:21Z</time>
      </trkpt>
      <trkpt lat="43.574674967676401" lon="5.40625898167491">
        <ele>269.79000000000002</ele>
        <time>2025-05-17T11:37:22Z</time>
      </trkpt>
      <trkpt lat="43.575300006195903" lon="5.405147038400173">
        <ele>270.26999999999998</ele>
        <time>2025-05-17T11:37:30Z</time>
      </trkpt>
      <trkpt lat="43.575346022844315" lon="5.404977975413203">
        <ele>270.75</ele>
        <time>2025-05-17T11:37:31Z</time>
      </trkpt>
      <trkpt lat="43.575651040300727" lon="5.403881035745144">
        <ele>274.11000000000001</ele>
        <time>2025-05-17T11:37:39Z</time>
      </trkpt>
      <trkpt lat="43.575677024200559" lon="5.403785984963179">
        <ele>275.06999999999999</ele>
        <time>2025-05-17T11:37:41Z</time>
      </trkpt>
      <trkpt lat="43.575705019757152" lon="5.403685988858342">
        <ele>275.06999999999999</ele>
        <time>2025-05-17T11:37:42Z</time>
      </trkpt>
      <trkpt lat="43.57568297535181" lon="5.403632009401918">
        <ele>275.56</ele>
        <time>2025-05-17T11:37:43Z</time>
      </trkpt>
      <trkpt lat="43.575643999502063" lon="5.403534024953842">
        <ele>275.56</ele>
        <time>2025-05-17T11:37:44Z</time>
      </trkpt>
      <trkpt lat="43.57559597119689" lon="5.403413996100426">
        <ele>276.04000000000002</ele>
        <time>2025-05-17T11:37:45Z</time>
      </trkpt>
      <trkpt lat="43.575422968715429" lon="5.402981992810965">
        <ele>275.56</ele>
        <time>2025-05-17T11:37:48Z</time>
      </trkpt>
      <trkpt lat="43.575360020622611" lon="5.402814019471407">
        <ele>275.56</ele>
        <time>2025-05-17T11:37:49Z</time>
      </trkpt>
      <trkpt lat="43.57533797621727" lon="5.402614027261734">
        <ele>275.06999999999999</ele>
        <time>2025-05-17T11:37:50Z</time>
      </trkpt>
      <trkpt lat="43.575151981785893" lon="5.401297984644771">
        <ele>274.58999999999997</ele>
        <time>2025-05-17T11:37:56Z</time>
      </trkpt>
      <trkpt lat="43.574807988479733" lon="5.399850010871887">
        <ele>272.67000000000002</ele>
        <time>2025-05-17T11:38:02Z</time>
      </trkpt>
      <trkpt lat="43.574548987671733" lon="5.398141024634242">
        <ele>268.35000000000002</ele>
        <time>2025-05-17T11:38:09Z</time>
      </trkpt>
      <trkpt lat="43.574468018487096" lon="5.397932985797525">
        <ele>268.35000000000002</ele>
        <time>2025-05-17T11:38:10Z</time>
      </trkpt>
      <trkpt lat="43.574178004637361" lon="5.397082976996899">
        <ele>268.35000000000002</ele>
        <time>2025-05-17T11:38:14Z</time>
      </trkpt>
      <trkpt lat="43.573649022728205" lon="5.395255973562598">
        <ele>266.89999999999998</ele>
        <time>2025-05-17T11:38:22Z</time>
      </trkpt>
      <trkpt lat="43.573431009426713" lon="5.393166029825807">
        <ele>267.38</ele>
        <time>2025-05-17T11:38:31Z</time>
      </trkpt>
      <trkpt lat="43.573341993615031" lon="5.39259203709662">
        <ele>267.38</ele>
        <time>2025-05-17T11:38:34Z</time>
      </trkpt>
      <trkpt lat="43.573301006108522" lon="5.392442001029849">
        <ele>267.38</ele>
        <time>2025-05-17T11:38:35Z</time>
      </trkpt>
      <trkpt lat="43.573223976418376" lon="5.392321972176433">
        <ele>267.38</ele>
        <time>2025-05-17T11:38:36Z</time>
      </trkpt>
      <trkpt lat="43.573159016668797" lon="5.392219964414835">
        <ele>267.38</ele>
        <time>2025-05-17T11:38:37Z</time>
      </trkpt>
      <trkpt lat="43.573103025555611" lon="5.392133966088295">
        <ele>267.38</ele>
        <time>2025-05-17T11:38:38Z</time>
      </trkpt>
      <trkpt lat="43.573053991422057" lon="5.392060037702322">
        <ele>267.38</ele>
        <time>2025-05-17T11:38:39Z</time>
      </trkpt>
      <trkpt lat="43.573005963116884" lon="5.391988037154079">
        <ele>267.38</ele>
        <time>2025-05-17T11:38:40Z</time>
      </trkpt>
      <trkpt lat="43.572959024459124" lon="5.391917964443564">
        <ele>267.38</ele>
        <time>2025-05-17T11:38:41Z</time>
      </trkpt>
      <trkpt lat="43.572942009195685" lon="5.391801036894321">
        <ele>267.86000000000001</ele>
        <time>2025-05-17T11:38:42Z</time>
      </trkpt>
      <trkpt lat="43.572948966175318" lon="5.391686959192157">
        <ele>268.35000000000002</ele>
        <time>2025-05-17T11:38:43Z</time>
      </trkpt>
      <trkpt lat="43.572957012802362" lon="5.391558967530727">
        <ele>268.35000000000002</ele>
        <time>2025-05-17T11:38:44Z</time>
      </trkpt>
      <trkpt lat="43.573001017794013" lon="5.391432987526059">
        <ele>268.82999999999998</ele>
        <time>2025-05-17T11:38:45Z</time>
      </trkpt>
      <trkpt lat="43.573054997250438" lon="5.391297033056617">
        <ele>268.82999999999998</ele>
        <time>2025-05-17T11:38:46Z</time>
      </trkpt>
      <trkpt lat="43.573110988363624" lon="5.391157977283001">
        <ele>268.82999999999998</ele>
        <time>2025-05-17T11:38:47Z</time>
      </trkpt>
      <trkpt lat="43.573169996961951" lon="5.391010036692023">
        <ele>268.82999999999998</ele>
        <time>2025-05-17T11:38:48Z</time>
      </trkpt>
      <trkpt lat="43.574001984670758" lon="5.389592992141843">
        <ele>268.82999999999998</ele>
        <time>2025-05-17T11:38:56Z</time>
      </trkpt>
      <trkpt lat="43.575219959020615" lon="5.38758896291256">
        <ele>269.31</ele>
        <time>2025-05-17T11:39:07Z</time>
      </trkpt>
      <trkpt lat="43.576203994452953" lon="5.385966980829835">
        <ele>270.26999999999998</ele>
        <time>2025-05-17T11:39:17Z</time>
      </trkpt>
      <trkpt lat="43.57754903845489" lon="5.383772011846304">
        <ele>271.70999999999998</ele>
        <time>2025-05-17T11:39:30Z</time>
      </trkpt>
      <trkpt lat="43.578487979248166" lon="5.382205015048385">
        <ele>272.19</ele>
        <time>2025-05-17T11:39:40Z</time>
      </trkpt>
      <trkpt lat="43.579826988279819" lon="5.379981966689229">
        <ele>268.35000000000002</ele>
        <time>2025-05-17T11:39:53Z</time>
      </trkpt>
      <trkpt lat="43.580841030925512" lon="5.378308016806841">
        <ele>265.45999999999998</ele>
        <time>2025-05-17T11:40:03Z</time>
      </trkpt>
      <trkpt lat="43.582137962803245" lon="5.376182030886412">
        <ele>263.06</ele>
        <time>2025-05-17T11:40:15Z</time>
      </trkpt>
      <trkpt lat="43.583555007353425" lon="5.373843982815743">
        <ele>263.54000000000002</ele>
        <time>2025-05-17T11:40:29Z</time>
      </trkpt>
      <trkpt lat="43.584650019183755" lon="5.372002981603146">
        <ele>265.94</ele>
        <time>2025-05-17T11:40:41Z</time>
      </trkpt>
      <trkpt lat="43.585747964680195" lon="5.370182013139129">
        <ele>267.38</ele>
        <time>2025-05-17T11:40:53Z</time>
      </trkpt>
      <trkpt lat="43.585988022387028" lon="5.369853023439646">
        <ele>267.38</ele>
        <time>2025-05-17T11:40:58Z</time>
      </trkpt>
      <trkpt lat="43.586172005161643" lon="5.369530990719795">
        <ele>266.89999999999998</ele>
        <time>2025-05-17T11:41:08Z</time>
      </trkpt>
      <trkpt lat="43.586236964911222" lon="5.369525039568543">
        <ele>266.89999999999998</ele>
        <time>2025-05-17T11:41:09Z</time>
      </trkpt>
      <trkpt lat="43.586325980722904" lon="5.369525039568543">
        <ele>266.89999999999998</ele>
        <time>2025-05-17T11:41:10Z</time>
      </trkpt>
      <trkpt lat="43.586387000977993" lon="5.36947600543499">
        <ele>266.89999999999998</ele>
        <time>2025-05-17T11:41:11Z</time>
      </trkpt>
      <trkpt lat="43.586455984041095" lon="5.369372991845012">
        <ele>266.42000000000002</ele>
        <time>2025-05-17T11:41:12Z</time>
      </trkpt>
      <trkpt lat="43.586489008739591" lon="5.369270984083414">
        <ele>266.42000000000002</ele>
        <time>2025-05-17T11:41:13Z</time>
      </trkpt>
      <trkpt lat="43.586503006517887" lon="5.369123965501785">
        <ele>266.89999999999998</ele>
        <time>2025-05-17T11:41:14Z</time>
      </trkpt>
      <trkpt lat="43.586476016789675" lon="5.369031010195613">
        <ele>266.89999999999998</ele>
        <time>2025-05-17T11:41:15Z</time>
      </trkpt>
      <trkpt lat="43.586400998756289" lon="5.368944006040692">
        <ele>267.38</ele>
        <time>2025-05-17T11:41:16Z</time>
      </trkpt>
      <trkpt lat="43.586325980722904" lon="5.368880974128842">
        <ele>267.38</ele>
        <time>2025-05-17T11:41:17Z</time>
      </trkpt>
      <trkpt lat="43.586238976567984" lon="5.368880974128842">
        <ele>267.38</ele>
        <time>2025-05-17T11:41:18Z</time>
      </trkpt>
      <trkpt lat="43.586155995726585" lon="5.368916010484099">
        <ele>267.38</ele>
        <time>2025-05-17T11:41:19Z</time>
      </trkpt>
      <trkpt lat="43.586075026541948" lon="5.36898298189044">
        <ele>267.38</ele>
        <time>2025-05-17T11:41:20Z</time>
      </trkpt>
      <trkpt lat="43.586030015721917" lon="5.369091024622321">
        <ele>267.38</ele>
        <time>2025-05-17T11:41:21Z</time>
      </trkpt>
      <trkpt lat="43.586004031822085" lon="5.369160007685423">
        <ele>267.38</ele>
        <time>2025-05-17T11:41:22Z</time>
      </trkpt>
      <trkpt lat="43.586048036813736" lon="5.369301997125149">
        <ele>267.38</ele>
        <time>2025-05-17T11:41:23Z</time>
      </trkpt>
      <trkpt lat="43.586042001843452" lon="5.369530990719795">
        <ele>267.38</ele>
        <time>2025-05-17T11:41:24Z</time>
      </trkpt>
      <trkpt lat="43.585983999073505" lon="5.369641967117786">
        <ele>267.38</ele>
        <time>2025-05-17T11:41:25Z</time>
      </trkpt>
      <trkpt lat="43.585918033495545" lon="5.369768030941486">
        <ele>266.89999999999998</ele>
        <time>2025-05-17T11:41:26Z</time>
      </trkpt>
      <trkpt lat="43.585853995755315" lon="5.369889987632632">
        <ele>266.89999999999998</ele>
        <time>2025-05-17T11:41:27Z</time>
      </trkpt>
      <trkpt lat="43.585066013038158" lon="5.3713249694556">
        <ele>265.45999999999998</ele>
        <time>2025-05-17T11:41:36Z</time>
      </trkpt>
      <trkpt lat="43.584409961476922" lon="5.372425010427833">
        <ele>265.45999999999998</ele>
        <time>2025-05-17T11:41:42Z</time>
      </trkpt>
      <trkpt lat="43.583132978528738" lon="5.374534986913204">
        <ele>263.54000000000002</ele>
        <time>2025-05-17T11:41:52Z</time>
      </trkpt>
      <trkpt lat="43.581792963668704" lon="5.376742025837302">
        <ele>264.01999999999998</ele>
        <time>2025-05-17T11:42:03Z</time>
      </trkpt>
      <trkpt lat="43.580868020653725" lon="5.37826300598681">
        <ele>265.45999999999998</ele>
        <time>2025-05-17T11:42:11Z</time>
      </trkpt>
      <trkpt lat="43.579219970852137" lon="5.380973964929581">
        <ele>269.31</ele>
        <time>2025-05-17T11:42:25Z</time>
      </trkpt>
      <trkpt lat="43.577698990702629" lon="5.383522985503078">
        <ele>270.26999999999998</ele>
        <time>2025-05-17T11:42:38Z</time>
      </trkpt>
      <trkpt lat="43.57581197284162" lon="5.386612974107266">
        <ele>270.75</ele>
        <time>2025-05-17T11:42:54Z</time>
      </trkpt>
      <trkpt lat="43.57406803406775" lon="5.389482015743852">
        <ele>269.79000000000002</ele>
        <time>2025-05-17T11:43:08Z</time>
      </trkpt>
      <trkpt lat="43.572895992547274" lon="5.391284041106701">
        <ele>269.31</ele>
        <time>2025-05-17T11:43:18Z</time>
      </trkpt>
      <trkpt lat="43.572819968685508" lon="5.391374984756112">
        <ele>269.31</ele>
        <time>2025-05-17T11:43:19Z</time>
      </trkpt>
      <trkpt lat="43.572725001722574" lon="5.391389988362789">
        <ele>269.31</ele>
        <time>2025-05-17T11:43:20Z</time>
      </trkpt>
      <trkpt lat="43.572602961212397" lon="5.391405997797847">
        <ele>269.31</ele>
        <time>2025-05-17T11:43:21Z</time>
      </trkpt>
      <trkpt lat="43.572541018947959" lon="5.391488978639245">
        <ele>270.26999999999998</ele>
        <time>2025-05-17T11:43:22Z</time>
      </trkpt>
      <trkpt lat="43.57247899286449" lon="5.391591992229223">
        <ele>271.23000000000002</ele>
        <time>2025-05-17T11:43:23Z</time>
      </trkpt>
      <trkpt lat="43.572455020621419" lon="5.391697017475963">
        <ele>271.70999999999998</ele>
        <time>2025-05-17T11:43:24Z</time>
      </trkpt>
      <trkpt lat="43.572431970387697" lon="5.391797013580799">
        <ele>272.19</ele>
        <time>2025-05-17T11:43:25Z</time>
      </trkpt>
      <trkpt lat="43.572470024228096" lon="5.391936991363764">
        <ele>272.19</ele>
        <time>2025-05-17T11:43:26Z</time>
      </trkpt>
      <trkpt lat="43.572531966492534" lon="5.392027013003826">
        <ele>272.19</ele>
        <time>2025-05-17T11:43:27Z</time>
      </trkpt>
      <trkpt lat="43.5725889634341" lon="5.392086021602154">
        <ele>272.19</ele>
        <time>2025-05-17T11:43:28Z</time>
      </trkpt>
      <trkpt lat="43.572653001174331" lon="5.392117034643889">
        <ele>271.70999999999998</ele>
        <time>2025-05-17T11:43:29Z</time>
      </trkpt>
      <trkpt lat="43.572701029479504" lon="5.392141006886959">
        <ele>271.23000000000002</ele>
        <time>2025-05-17T11:43:30Z</time>
      </trkpt>
      <trkpt lat="43.572775041684508" lon="5.392088033258915">
        <ele>270.75</ele>
        <time>2025-05-17T11:43:31Z</time>
      </trkpt>
      <trkpt lat="43.572900015860796" lon="5.392055008560419">
        <ele>270.75</ele>
        <time>2025-05-17T11:43:32Z</time>
      </trkpt>
      <trkpt lat="43.572985008358955" lon="5.392089961096644">
        <ele>270.75</ele>
        <time>2025-05-17T11:43:33Z</time>
      </trkpt>
      <trkpt lat="43.573077963665128" lon="5.392129020765424">
        <ele>270.75</ele>
        <time>2025-05-17T11:43:34Z</time>
      </trkpt>
      <trkpt lat="43.573174020275474" lon="5.392243014648557">
        <ele>270.26999999999998</ele>
        <time>2025-05-17T11:43:35Z</time>
      </trkpt>
      <trkpt lat="43.573258006945252" lon="5.392374023795128">
        <ele>269.79000000000002</ele>
        <time>2025-05-17T11:43:36Z</time>
      </trkpt>
      <trkpt lat="43.573332019150257" lon="5.39255197159946">
        <ele>269.31</ele>
        <time>2025-05-17T11:43:37Z</time>
      </trkpt>
      <trkpt lat="43.573376024141908" lon="5.392756992951036">
        <ele>268.35000000000002</ele>
        <time>2025-05-17T11:43:38Z</time>
      </trkpt>
      <trkpt lat="43.573406031355262" lon="5.39298003539443">
        <ele>268.35000000000002</ele>
        <time>2025-05-17T11:43:39Z</time>
      </trkpt>
      <trkpt lat="43.573437966406345" lon="5.39321699179709">
        <ele>267.86000000000001</ele>
        <time>2025-05-17T11:43:40Z</time>
      </trkpt>
      <trkpt lat="43.573602000251412" lon="5.395103003829718">
        <ele>266.42000000000002</ele>
        <time>2025-05-17T11:43:47Z</time>
      </trkpt>
      <trkpt lat="43.573682969436049" lon="5.395368961617351">
        <ele>266.42000000000002</ele>
        <time>2025-05-17T11:43:48Z</time>
      </trkpt>
      <trkpt lat="43.573759999126196" lon="5.395619999617338">
        <ele>266.42000000000002</ele>
        <time>2025-05-17T11:43:49Z</time>
      </trkpt>
      <trkpt lat="43.573834011331201" lon="5.395861985161901">
        <ele>265.94</ele>
        <time>2025-05-17T11:43:50Z</time>
      </trkpt>
      <trkpt lat="43.573905006051064" lon="5.396092990413308">
        <ele>265.45999999999998</ele>
        <time>2025-05-17T11:43:51Z</time>
      </trkpt>
      <trkpt lat="43.574296021834016" lon="5.397501988336444">
        <ele>264.98000000000002</ele>
        <time>2025-05-17T11:43:57Z</time>
      </trkpt>
      <trkpt lat="43.574471035972238" lon="5.39794203825295">
        <ele>265.94</ele>
        <time>2025-05-17T11:43:59Z</time>
      </trkpt>
      <trkpt lat="43.574554016813636" lon="5.398163991048932">
        <ele>265.94</ele>
        <time>2025-05-17T11:44:00Z</time>
      </trkpt>
      <trkpt lat="43.57460699044168" lon="5.398403964936733">
        <ele>266.42000000000002</ele>
        <time>2025-05-17T11:44:01Z</time>
      </trkpt>
      <trkpt lat="43.574648983776569" lon="5.398648967966437">
        <ele>266.42000000000002</ele>
        <time>2025-05-17T11:44:02Z</time>
      </trkpt>
      <trkpt lat="43.574683014303446" lon="5.398903023451567">
        <ele>266.89999999999998</ele>
        <time>2025-05-17T11:44:03Z</time>
      </trkpt>
      <trkpt lat="43.575066989287734" lon="5.400956002995372">
        <ele>272.19</ele>
        <time>2025-05-17T11:44:11Z</time>
      </trkpt>
      <trkpt lat="43.575263964012265" lon="5.401915982365608">
        <ele>273.14999999999998</ele>
        <time>2025-05-17T11:44:15Z</time>
      </trkpt>
      <trkpt lat="43.575291037559509" lon="5.402168026193976">
        <ele>273.63</ele>
        <time>2025-05-17T11:44:16Z</time>
      </trkpt>
      <trkpt lat="43.575339987874031" lon="5.402625007554889">
        <ele>274.11000000000001</ele>
        <time>2025-05-17T11:44:18Z</time>
      </trkpt>
      <trkpt lat="43.575361026450992" lon="5.402827011421323">
        <ele>274.58999999999997</ele>
        <time>2025-05-17T11:44:19Z</time>
      </trkpt>
      <trkpt lat="43.575436966493726" lon="5.403016023337841">
        <ele>275.06999999999999</ele>
        <time>2025-05-17T11:44:20Z</time>
      </trkpt>
      <trkpt lat="43.576350007206202" lon="5.405191965401173">
        <ele>280.36000000000001</ele>
        <time>2025-05-17T11:44:31Z</time>
      </trkpt>
      <trkpt lat="43.577114017680287" lon="5.407112007960677">
        <ele>282.27999999999997</ele>
        <time>2025-05-17T11:44:39Z</time>
      </trkpt>
      <trkpt lat="43.57718501240015" lon="5.40739799849689">
        <ele>282.27999999999997</ele>
        <time>2025-05-17T11:44:40Z</time>
      </trkpt>
      <trkpt lat="43.577203033491969" lon="5.407660016790032">
        <ele>282.27999999999997</ele>
        <time>2025-05-17T11:44:41Z</time>
      </trkpt>
      <trkpt lat="43.577221976593137" lon="5.407947013154626">
        <ele>282.27999999999997</ele>
        <time>2025-05-17T11:44:42Z</time>
      </trkpt>
      <trkpt lat="43.577239997684956" lon="5.408222023397684">
        <ele>282.27999999999997</ele>
        <time>2025-05-17T11:44:43Z</time>
      </trkpt>
      <trkpt lat="43.577212002128363" lon="5.408737007528544">
        <ele>281.80000000000001</ele>
        <time>2025-05-17T11:44:45Z</time>
      </trkpt>
      <trkpt lat="43.577187024056911" lon="5.40898603387177">
        <ele>281.31999999999999</ele>
        <time>2025-05-17T11:44:46Z</time>
      </trkpt>
      <trkpt lat="43.576853005215526" lon="5.41051397100091">
        <ele>279.88</ele>
        <time>2025-05-17T11:44:53Z</time>
      </trkpt>
      <trkpt lat="43.576546981930733" lon="5.411889022216201">
        <ele>285.17000000000002</ele>
        <time>2025-05-17T11:45:02Z</time>
      </trkpt>
      <trkpt lat="43.576060999184847" lon="5.413421988487244">
        <ele>289.97000000000003</ele>
        <time>2025-05-17T11:45:12Z</time>
      </trkpt>
      <trkpt lat="43.575713988393545" lon="5.414306027814746">
        <ele>289.97000000000003</ele>
        <time>2025-05-17T11:45:18Z</time>
      </trkpt>
      <trkpt lat="43.575650034472346" lon="5.414613978937268">
        <ele>289.97000000000003</ele>
        <time>2025-05-17T11:45:20Z</time>
      </trkpt>
      <trkpt lat="43.575220964848995" lon="5.416848007589579">
        <ele>291.89999999999998</ele>
        <time>2025-05-17T11:45:34Z</time>
      </trkpt>
      <trkpt lat="43.575080987066031" lon="5.417833970859647">
        <ele>293.33999999999997</ele>
        <time>2025-05-17T11:45:41Z</time>
      </trkpt>
      <trkpt lat="43.57507998123765" lon="5.417942013591528">
        <ele>293.33999999999997</ele>
        <time>2025-05-17T11:45:42Z</time>
      </trkpt>
      <trkpt lat="43.575078975409269" lon="5.418048966675997">
        <ele>292.86000000000001</ele>
        <time>2025-05-17T11:45:43Z</time>
      </trkpt>
      <trkpt lat="43.575076963752508" lon="5.418158015236259">
        <ele>292.86000000000001</ele>
        <time>2025-05-17T11:45:44Z</time>
      </trkpt>
      <trkpt lat="43.575076041743159" lon="5.418262034654617">
        <ele>292.38</ele>
        <time>2025-05-17T11:45:45Z</time>
      </trkpt>
      <trkpt lat="43.575075035914779" lon="5.418370999395847">
        <ele>292.38</ele>
        <time>2025-05-17T11:45:46Z</time>
      </trkpt>
      <trkpt lat="43.575073024258018" lon="5.418493039906025">
        <ele>291.89999999999998</ele>
        <time>2025-05-17T11:45:47Z</time>
      </trkpt>
      <trkpt lat="43.575071012601256" lon="5.418635029345751">
        <ele>291.89999999999998</ele>
        <time>2025-05-17T11:45:48Z</time>
      </trkpt>
      <trkpt lat="43.575021978467703" lon="5.42026799172163">
        <ele>290.45999999999998</ele>
        <time>2025-05-17T11:45:58Z</time>
      </trkpt>
      <trkpt lat="43.574932040646672" lon="5.421453025192022">
        <ele>289.97000000000003</ele>
        <time>2025-05-17T11:46:06Z</time>
      </trkpt>
      <trkpt lat="43.574932040646672" lon="5.421532988548279">
        <ele>289.97000000000003</ele>
        <time>2025-05-17T11:46:07Z</time>
      </trkpt>
      <trkpt lat="43.574932040646672" lon="5.421594008803368">
        <ele>290.45999999999998</ele>
        <time>2025-05-17T11:46:08Z</time>
      </trkpt>
      <trkpt lat="43.574880994856358" lon="5.421717977151275">
        <ele>289.97000000000003</ele>
        <time>2025-05-17T11:46:09Z</time>
      </trkpt>
      <trkpt lat="43.574825003743172" lon="5.421773968264461">
        <ele>289.97000000000003</ele>
        <time>2025-05-17T11:46:10Z</time>
      </trkpt>
      <trkpt lat="43.574737999588251" lon="5.422003967687488">
        <ele>289.97000000000003</ele>
        <time>2025-05-17T11:46:12Z</time>
      </trkpt>
      <trkpt lat="43.574662981554866" lon="5.422069011256099">
        <ele>289.97000000000003</ele>
        <time>2025-05-17T11:46:13Z</time>
      </trkpt>
      <trkpt lat="43.574592992663383" lon="5.422130031511188">
        <ele>290.45999999999998</ele>
        <time>2025-05-17T11:46:14Z</time>
      </trkpt>
      <trkpt lat="43.574404986575246" lon="5.422301022335887">
        <ele>290.94</ele>
        <time>2025-05-17T11:46:17Z</time>
      </trkpt>
      <trkpt lat="43.574343966320157" lon="5.422362964600325">
        <ele>291.42000000000002</ele>
        <time>2025-05-17T11:46:18Z</time>
      </trkpt>
      <trkpt lat="43.574282024055719" lon="5.422422979027033">
        <ele>291.42000000000002</ele>
        <time>2025-05-17T11:46:19Z</time>
      </trkpt>
      <trkpt lat="43.573576016351581" lon="5.422980040311813">
        <ele>293.33999999999997</ele>
        <time>2025-05-17T11:46:28Z</time>
      </trkpt>
      <trkpt lat="43.57277998700738" lon="5.423434004187584">
        <ele>293.81999999999999</ele>
        <time>2025-05-17T11:46:35Z</time>
      </trkpt>
      <trkpt lat="43.571117017418146" lon="5.424229027703404">
        <ele>294.30000000000001</ele>
        <time>2025-05-17T11:46:46Z</time>
      </trkpt>
      <trkpt lat="43.56925799511373" lon="5.42516796849668">
        <ele>299.58999999999997</ele>
        <time>2025-05-17T11:46:57Z</time>
      </trkpt>
      <trkpt lat="43.568006996065378" lon="5.426129959523678">
        <ele>305.83999999999997</ele>
        <time>2025-05-17T11:47:06Z</time>
      </trkpt>
      <trkpt lat="43.566466988995671" lon="5.42724902741611">
        <ele>306.80000000000001</ele>
        <time>2025-05-17T11:47:16Z</time>
      </trkpt>
      <trkpt lat="43.564667981117964" lon="5.428587030619383">
        <ele>304.88</ele>
        <time>2025-05-17T11:47:28Z</time>
      </trkpt>
      <trkpt lat="43.563677994534373" lon="5.429562013596296">
        <ele>306.31999999999999</ele>
        <time>2025-05-17T11:47:35Z</time>
      </trkpt>
      <trkpt lat="43.563542040064931" lon="5.429691011086106">
        <ele>306.80000000000001</ele>
        <time>2025-05-17T11:47:36Z</time>
      </trkpt>
      <trkpt lat="43.562169000506401" lon="5.430714022368193">
        <ele>310.16000000000003</ele>
        <time>2025-05-17T11:47:45Z</time>
      </trkpt>
      <trkpt lat="43.562023993581533" lon="5.430855005979538">
        <ele>310.63999999999999</ele>
        <time>2025-05-17T11:47:46Z</time>
      </trkpt>
      <trkpt lat="43.56188703328371" lon="5.430989032611251">
        <ele>311.12</ele>
        <time>2025-05-17T11:47:47Z</time>
      </trkpt>
      <trkpt lat="43.561753006651998" lon="5.431119035929442">
        <ele>311.60000000000002</ele>
        <time>2025-05-17T11:47:48Z</time>
      </trkpt>
      <trkpt lat="43.561623003333807" lon="5.43124602176249">
        <ele>312.08999999999997</ele>
        <time>2025-05-17T11:47:49Z</time>
      </trkpt>
      <trkpt lat="43.561498029157519" lon="5.431356998160482">
        <ele>312.08999999999997</ele>
        <time>2025-05-17T11:47:50Z</time>
      </trkpt>
      <trkpt lat="43.561361990869045" lon="5.431430004537106">
        <ele>312.56999999999999</ele>
        <time>2025-05-17T11:47:51Z</time>
      </trkpt>
      <trkpt lat="43.561241962015629" lon="5.431494964286685">
        <ele>312.56999999999999</ele>
        <time>2025-05-17T11:47:52Z</time>
      </trkpt>
      <trkpt lat="43.561121011152864" lon="5.431520026177168">
        <ele>313.52999999999997</ele>
        <time>2025-05-17T11:47:53Z</time>
      </trkpt>
      <trkpt lat="43.560522040352225" lon="5.431642988696694">
        <ele>316.88999999999999</ele>
        <time>2025-05-17T11:47:58Z</time>
      </trkpt>
      <trkpt lat="43.560408968478441" lon="5.431721024215221">
        <ele>317.85000000000002</ele>
        <time>2025-05-17T11:47:59Z</time>
      </trkpt>
      <trkpt lat="43.560290029272437" lon="5.431808028370142">
        <ele>318.32999999999998</ele>
        <time>2025-05-17T11:48:00Z</time>
      </trkpt>
      <trkpt lat="43.559185964986682" lon="5.432591987773776">
        <ele>323.13999999999999</ele>
        <time>2025-05-17T11:48:08Z</time>
      </trkpt>
      <trkpt lat="43.558838032186031" lon="5.432845959439874">
        <ele>324.57999999999998</ele>
        <time>2025-05-17T11:48:11Z</time>
      </trkpt>
      <trkpt lat="43.557894984260201" lon="5.433679036796093">
        <ele>327.94999999999999</ele>
        <time>2025-05-17T11:48:21Z</time>
      </trkpt>
      <trkpt lat="43.557836981490254" lon="5.43373896740377">
        <ele>328.43000000000001</ele>
        <time>2025-05-17T11:48:22Z</time>
      </trkpt>
      <trkpt lat="43.557730028405786" lon="5.433777021244168">
        <ele>328.91000000000003</ele>
        <time>2025-05-17T11:48:23Z</time>
      </trkpt>
      <trkpt lat="43.557639000937343" lon="5.433753971010447">
        <ele>329.38999999999999</ele>
        <time>2025-05-17T11:48:24Z</time>
      </trkpt>
      <trkpt lat="43.557533975690603" lon="5.433726981282234">
        <ele>329.87</ele>
        <time>2025-05-17T11:48:25Z</time>
      </trkpt>
      <trkpt lat="43.557420987635851" lon="5.433698985725641">
        <ele>329.87</ele>
        <time>2025-05-17T11:48:26Z</time>
      </trkpt>
      <trkpt lat="43.557313028723001" lon="5.433699991554022">
        <ele>330.35000000000002</ele>
        <time>2025-05-17T11:48:27Z</time>
      </trkpt>
      <trkpt lat="43.557213032618165" lon="5.433735027909279">
        <ele>330.82999999999998</ele>
        <time>2025-05-17T11:48:28Z</time>
      </trkpt>
      <trkpt lat="43.557110019028187" lon="5.433771992102265">
        <ele>331.31</ele>
        <time>2025-05-17T11:48:29Z</time>
      </trkpt>
      <trkpt lat="43.556078039109707" lon="5.433968966826797">
        <ele>335.16000000000003</ele>
        <time>2025-05-17T11:48:38Z</time>
      </trkpt>
      <trkpt lat="43.554862998425961" lon="5.434054965153337">
        <ele>339.48000000000002</ele>
        <time>2025-05-17T11:48:48Z</time>
      </trkpt>
      <trkpt lat="43.553979964926839" lon="5.43434196151793">
        <ele>342.37</ele>
        <time>2025-05-17T11:48:55Z</time>
      </trkpt>
      <trkpt lat="43.553858008235693" lon="5.43442795984447">
        <ele>342.85000000000002</ele>
        <time>2025-05-17T11:48:56Z</time>
      </trkpt>
      <trkpt lat="43.553747031837702" lon="5.434527033939958">
        <ele>342.85000000000002</ele>
        <time>2025-05-17T11:48:57Z</time>
      </trkpt>
      <trkpt lat="43.552787974476814" lon="5.435615004971623">
        <ele>343.81</ele>
        <time>2025-05-17T11:49:05Z</time>
      </trkpt>
      <trkpt lat="43.552365023642778" lon="5.435939971357584">
        <ele>344.76999999999998</ele>
        <time>2025-05-17T11:49:10Z</time>
      </trkpt>
      <trkpt lat="43.552294028922915" lon="5.435957992449403">
        <ele>344.29000000000002</ele>
        <time>2025-05-17T11:49:11Z</time>
      </trkpt>
      <trkpt lat="43.552210964262486" lon="5.435875011608005">
        <ele>344.29000000000002</ele>
        <time>2025-05-17T11:49:12Z</time>
      </trkpt>
      <trkpt lat="43.552137035876513" lon="5.435799993574619">
        <ele>344.29000000000002</ele>
        <time>2025-05-17T11:49:13Z</time>
      </trkpt>
      <trkpt lat="43.552086995914578" lon="5.435704020783305">
        <ele>344.76999999999998</ele>
        <time>2025-05-17T11:49:14Z</time>
      </trkpt>
      <trkpt lat="43.552057994529605" lon="5.435578040778637">
        <ele>345.25</ele>
        <time>2025-05-17T11:49:15Z</time>
      </trkpt>
      <trkpt lat="43.552051037549973" lon="5.435447031632066">
        <ele>345.25</ele>
        <time>2025-05-17T11:49:16Z</time>
      </trkpt>
      <trkpt lat="43.552096970379353" lon="5.435325996950269">
        <ele>345.73000000000002</ele>
        <time>2025-05-17T11:49:17Z</time>
      </trkpt>
      <trkpt lat="43.552172994241118" lon="5.435228012502194">
        <ele>346.20999999999998</ele>
        <time>2025-05-17T11:49:18Z</time>
      </trkpt>
      <trkpt lat="43.552266033366323" lon="5.435181995853782">
        <ele>346.69</ele>
        <time>2025-05-17T11:49:19Z</time>
      </trkpt>
      <trkpt lat="43.552365023642778" lon="5.435175960883498">
        <ele>347.17000000000002</ele>
        <time>2025-05-17T11:49:20Z</time>
      </trkpt>
      <trkpt lat="43.552471976727247" lon="5.435170009732246">
        <ele>348.13</ele>
        <time>2025-05-17T11:49:21Z</time>
      </trkpt>
      <trkpt lat="43.552600974217057" lon="5.435175038874149">
        <ele>348.62</ele>
        <time>2025-05-17T11:49:22Z</time>
      </trkpt>
      <trkpt lat="43.552732989192009" lon="5.435244021937251">
        <ele>349.57999999999998</ele>
        <time>2025-05-17T11:49:23Z</time>
      </trkpt>
      <trkpt lat="43.552861986681819" lon="5.435336977243424">
        <ele>350.06</ele>
        <time>2025-05-17T11:49:24Z</time>
      </trkpt>
      <trkpt lat="43.553004981949925" lon="5.435449965298176">
        <ele>350.54000000000002</ele>
        <time>2025-05-17T11:49:25Z</time>
      </trkpt>
      <trkpt lat="43.553132973611355" lon="5.435600001364946">
        <ele>351.01999999999998</ele>
        <time>2025-05-17T11:49:26Z</time>
      </trkpt>
      <trkpt lat="43.553675031289458" lon="5.436309026554227">
        <ele>352.94</ele>
        <time>2025-05-17T11:49:30Z</time>
      </trkpt>
      <trkpt lat="43.554385984316468" lon="5.438028993085027">
        <ele>356.79000000000002</ele>
        <time>2025-05-17T11:49:37Z</time>
      </trkpt>
      <trkpt lat="43.555493988096714" lon="5.441182013601065">
        <ele>349.10000000000002</ele>
        <time>2025-05-17T11:49:49Z</time>
      </trkpt>
      <trkpt lat="43.556383978575468" lon="5.443745031952858">
        <ele>336.60000000000002</ele>
        <time>2025-05-17T11:49:58Z</time>
      </trkpt>
      <trkpt lat="43.557295007631183" lon="5.44634903781116">
        <ele>330.82999999999998</ele>
        <time>2025-05-17T11:50:08Z</time>
      </trkpt>
      <trkpt lat="43.55831902474165" lon="5.449163010343909">
        <ele>327.94999999999999</ele>
        <time>2025-05-17T11:50:18Z</time>
      </trkpt>
      <trkpt lat="43.559204991906881" lon="5.451138038188219">
        <ele>320.25999999999999</ele>
        <time>2025-05-17T11:50:26Z</time>
      </trkpt>
      <trkpt lat="43.56064198538661" lon="5.453904988244176">
        <ele>309.19999999999999</ele>
        <time>2025-05-17T11:50:37Z</time>
      </trkpt>
      <trkpt lat="43.561491994187236" lon="5.455908011645079">
        <ele>304.88</ele>
        <time>2025-05-17T11:50:45Z</time>
      </trkpt>
      <trkpt lat="43.562481980770826" lon="5.458755008876324">
        <ele>307.27999999999997</ele>
        <time>2025-05-17T11:50:56Z</time>
      </trkpt>
      <trkpt lat="43.563332995399833" lon="5.461208978667855">
        <ele>312.08999999999997</ele>
        <time>2025-05-17T11:51:06Z</time>
      </trkpt>
      <trkpt lat="43.563857031986117" lon="5.462630968540907">
        <ele>312.56999999999999</ele>
        <time>2025-05-17T11:51:14Z</time>
      </trkpt>
      <trkpt lat="43.564045960083604" lon="5.463209990411997">
        <ele>314.49000000000001</ele>
        <time>2025-05-17T11:51:18Z</time>
      </trkpt>
      <trkpt lat="43.564097005873919" lon="5.463448036462069">
        <ele>315.44999999999999</ele>
        <time>2025-05-17T11:51:20Z</time>
      </trkpt>
      <trkpt lat="43.564115026965737" lon="5.463541997596622">
        <ele>316.88999999999999</ele>
        <time>2025-05-17T11:51:21Z</time>
      </trkpt>
      <trkpt lat="43.564127013087273" lon="5.463601006194949">
        <ele>317.85000000000002</ele>
        <time>2025-05-17T11:51:22Z</time>
      </trkpt>
      <trkpt lat="43.564076973125339" lon="5.46381700783968">
        <ele>318.32999999999998</ele>
        <time>2025-05-17T11:51:23Z</time>
      </trkpt>
      <trkpt lat="43.56405601836741" lon="5.463806027546525">
        <ele>319.30000000000001</ele>
        <time>2025-05-17T11:51:24Z</time>
      </trkpt>
      <trkpt lat="43.563973037526011" lon="5.463761016726494">
        <ele>320.74000000000001</ele>
        <time>2025-05-17T11:51:29Z</time>
      </trkpt>
      <trkpt lat="43.563911011442542" lon="5.463728997856379">
        <ele>321.22000000000003</ele>
        <time>2025-05-17T11:51:30Z</time>
      </trkpt>
      <trkpt lat="43.563823001459241" lon="5.463687004521489">
        <ele>321.22000000000003</ele>
        <time>2025-05-17T11:51:31Z</time>
      </trkpt>
      <trkpt lat="43.563032001256943" lon="5.463292971253395">
        <ele>322.18000000000001</ele>
        <time>2025-05-17T11:51:37Z</time>
      </trkpt>
      <trkpt lat="43.562087025493383" lon="5.462816040962935">
        <ele>321.22000000000003</ele>
        <time>2025-05-17T11:51:45Z</time>
      </trkpt>
      <trkpt lat="43.561975965276361" lon="5.462760971859098">
        <ele>321.22000000000003</ele>
        <time>2025-05-17T11:51:46Z</time>
      </trkpt>
      <trkpt lat="43.561867000535131" lon="5.462705986574292">
        <ele>321.22000000000003</ele>
        <time>2025-05-17T11:51:47Z</time>
      </trkpt>
      <trkpt lat="43.560747010633349" lon="5.462130988016725">
        <ele>318.81</ele>
        <time>2025-05-17T11:51:57Z</time>
      </trkpt>
      <trkpt lat="43.560050977393985" lon="5.461772996932268">
        <ele>315.44999999999999</ele>
        <time>2025-05-17T11:52:04Z</time>
      </trkpt>
      <trkpt lat="43.558930987492204" lon="5.461181988939643">
        <ele>312.08999999999997</ele>
        <time>2025-05-17T11:52:14Z</time>
      </trkpt>
      <trkpt lat="43.557617040351033" lon="5.460528032854199">
        <ele>306.31999999999999</ele>
        <time>2025-05-17T11:52:25Z</time>
      </trkpt>
      <trkpt lat="43.557021003216505" lon="5.460204994305968">
        <ele>302.47000000000003</ele>
        <time>2025-05-17T11:52:32Z</time>
      </trkpt>
      <trkpt lat="43.556971969082952" lon="5.460184039548039">
        <ele>301.99000000000001</ele>
        <time>2025-05-17T11:52:33Z</time>
      </trkpt>
      <trkpt lat="43.556776000186801" lon="5.460082031786442">
        <ele>299.58999999999997</ele>
        <time>2025-05-17T11:52:38Z</time>
      </trkpt>
      <trkpt lat="43.556676004081964" lon="5.460026962682605">
        <ele>298.14999999999998</ele>
        <time>2025-05-17T11:52:41Z</time>
      </trkpt>
      <trkpt lat="43.55632203631103" lon="5.459899976849556">
        <ele>295.25999999999999</ele>
        <time>2025-05-17T11:52:46Z</time>
      </trkpt>
      <trkpt lat="43.556256992742419" lon="5.459881033748388">
        <ele>294.77999999999997</ele>
        <time>2025-05-17T11:52:47Z</time>
      </trkpt>
      <trkpt lat="43.556198989972472" lon="5.459862006828189">
        <ele>294.77999999999997</ele>
        <time>2025-05-17T11:52:48Z</time>
      </trkpt>
      <trkpt lat="43.55600100941956" lon="5.459783971309662">
        <ele>293.81999999999999</ele>
        <time>2025-05-17T11:52:52Z</time>
      </trkpt>
      <trkpt lat="43.555815014988184" lon="5.459666959941387">
        <ele>291.89999999999998</ele>
        <time>2025-05-17T11:53:00Z</time>
      </trkpt>
      <trkpt lat="43.555704960599542" lon="5.459588002413511">
        <ele>291.42000000000002</ele>
        <time>2025-05-17T11:53:18Z</time>
      </trkpt>
      <trkpt lat="43.555517038330436" lon="5.459441989660263">
        <ele>290.45999999999998</ele>
        <time>2025-05-17T11:53:22Z</time>
      </trkpt>
      <trkpt lat="43.555455012246966" lon="5.459407037124038">
        <ele>289.97000000000003</ele>
        <time>2025-05-17T11:53:23Z</time>
      </trkpt>
      <trkpt lat="43.555391980335116" lon="5.459373006597161">
        <ele>289.49000000000001</ele>
        <time>2025-05-17T11:53:24Z</time>
      </trkpt>
      <trkpt lat="43.555325008928776" lon="5.459323972463608">
        <ele>289.00999999999999</ele>
        <time>2025-05-17T11:53:25Z</time>
      </trkpt>
      <trkpt lat="43.555252002552152" lon="5.459278961643577">
        <ele>288.52999999999997</ele>
        <time>2025-05-17T11:53:26Z</time>
      </trkpt>
      <trkpt lat="43.555167010053992" lon="5.459233028814197">
        <ele>287.56999999999999</ele>
        <time>2025-05-17T11:53:27Z</time>
      </trkpt>
      <trkpt lat="43.555077994242311" lon="5.459185000509024">
        <ele>286.61000000000001</ele>
        <time>2025-05-17T11:53:28Z</time>
      </trkpt>
      <trkpt lat="43.554985960945487" lon="5.45913596637547">
        <ele>285.64999999999998</ele>
        <time>2025-05-17T11:53:29Z</time>
      </trkpt>
      <trkpt lat="43.554138969630003" lon="5.458691976964474">
        <ele>281.31999999999999</ele>
        <time>2025-05-17T11:53:37Z</time>
      </trkpt>
      <trkpt lat="43.55282099917531" lon="5.458012036979199">
        <ele>282.27999999999997</ele>
        <time>2025-05-17T11:53:48Z</time>
      </trkpt>
      <trkpt lat="43.551542004570365" lon="5.45732899568975">
        <ele>284.20999999999998</ele>
        <time>2025-05-17T11:53:59Z</time>
      </trkpt>
      <trkpt lat="43.5502640157938" lon="5.456657018512487">
        <ele>286.61000000000001</ele>
        <time>2025-05-17T11:54:10Z</time>
      </trkpt>
      <trkpt lat="43.548842025920749" lon="5.455815978348255">
        <ele>288.05000000000001</ele>
        <time>2025-05-17T11:54:23Z</time>
      </trkpt>
      <trkpt lat="43.547510979697108" lon="5.455177025869489">
        <ele>279.39999999999998</ele>
        <time>2025-05-17T11:54:34Z</time>
      </trkpt>
      <trkpt lat="43.546802960336208" lon="5.454900003969669">
        <ele>272.67000000000002</ele>
        <time>2025-05-17T11:54:40Z</time>
      </trkpt>
      <trkpt lat="43.546687960624695" lon="5.454864967614412">
        <ele>271.70999999999998</ele>
        <time>2025-05-17T11:54:41Z</time>
      </trkpt>
      <trkpt lat="43.546571033075452" lon="5.454848958179355">
        <ele>270.75</ele>
        <time>2025-05-17T11:54:42Z</time>
      </trkpt>
      <trkpt lat="43.546451004222035" lon="5.454877037554979">
        <ele>269.79000000000002</ele>
        <time>2025-05-17T11:54:43Z</time>
      </trkpt>
      <trkpt lat="43.546328963711858" lon="5.454905033111572">
        <ele>268.82999999999998</ele>
        <time>2025-05-17T11:54:44Z</time>
      </trkpt>
      <trkpt lat="43.544958019629121" lon="5.455393027514219">
        <ele>255.84999999999999</ele>
        <time>2025-05-17T11:54:56Z</time>
      </trkpt>
      <trkpt lat="43.544834973290563" lon="5.455423034727573">
        <ele>255.37</ele>
        <time>2025-05-17T11:54:57Z</time>
      </trkpt>
      <trkpt lat="43.5444410238415" lon="5.455441977828741">
        <ele>252</ele>
        <time>2025-05-17T11:55:00Z</time>
      </trkpt>
      <trkpt lat="43.544362988322973" lon="5.455425968393683">
        <ele>251.03999999999999</ele>
        <time>2025-05-17T11:55:01Z</time>
      </trkpt>
      <trkpt lat="43.542997995391488" lon="5.455151963979006">
        <ele>240.94999999999999</ele>
        <time>2025-05-17T11:55:13Z</time>
      </trkpt>
      <trkpt lat="43.542918032035232" lon="5.455137966200709">
        <ele>239.99000000000001</ele>
        <time>2025-05-17T11:55:14Z</time>
      </trkpt>
      <trkpt lat="43.54280998930335" lon="5.455011986196041">
        <ele>239.50999999999999</ele>
        <time>2025-05-17T11:55:15Z</time>
      </trkpt>
      <trkpt lat="43.542798003181815" lon="5.454988013952971">
        <ele>238.53999999999999</ele>
        <time>2025-05-17T11:55:16Z</time>
      </trkpt>
      <trkpt lat="43.54276699014008" lon="5.454926993697882">
        <ele>238.06</ele>
        <time>2025-05-17T11:55:17Z</time>
      </trkpt>
      <trkpt lat="43.542609997093678" lon="5.454963035881519">
        <ele>237.09999999999999</ele>
        <time>2025-05-17T11:55:18Z</time>
      </trkpt>
      <trkpt lat="43.542537996545434" lon="5.454890029504895">
        <ele>236.62</ele>
        <time>2025-05-17T11:55:19Z</time>
      </trkpt>
      <trkpt lat="43.541995016857982" lon="5.454494990408421">
        <ele>233.25999999999999</ele>
        <time>2025-05-17T11:55:26Z</time>
      </trkpt>
      <trkpt lat="43.541924022138119" lon="5.45445098541677">
        <ele>232.78</ele>
        <time>2025-05-17T11:55:27Z</time>
      </trkpt>
      <trkpt lat="43.541858978569508" lon="5.454418966546655">
        <ele>232.78</ele>
        <time>2025-05-17T11:55:28Z</time>
      </trkpt>
      <trkpt lat="43.541598971933126" lon="5.454288963228464">
        <ele>230.84999999999999</ele>
        <time>2025-05-17T11:55:32Z</time>
      </trkpt>
      <trkpt lat="43.541532000526786" lon="5.454254010692239">
        <ele>230.84999999999999</ele>
        <time>2025-05-17T11:55:33Z</time>
      </trkpt>
      <trkpt lat="43.540945015847683" lon="5.453958967700601">
        <ele>230.84999999999999</ele>
        <time>2025-05-17T11:55:42Z</time>
      </trkpt>
      <trkpt lat="43.540332969278097" lon="5.45374296605587">
        <ele>232.30000000000001</ele>
        <time>2025-05-17T11:55:51Z</time>
      </trkpt>
      <trkpt lat="43.540258035063744" lon="5.453717987984419">
        <ele>232.78</ele>
        <time>2025-05-17T11:55:52Z</time>
      </trkpt>
      <trkpt lat="43.539931979030371" lon="5.45363299548626">
        <ele>233.25999999999999</ele>
        <time>2025-05-17T11:55:56Z</time>
      </trkpt>
      <trkpt lat="43.539850004017353" lon="5.45361296273768">
        <ele>233.25999999999999</ele>
        <time>2025-05-17T11:55:57Z</time>
      </trkpt>
      <trkpt lat="43.539554961025715" lon="5.45354699715972">
        <ele>234.22</ele>
        <time>2025-05-17T11:56:01Z</time>
      </trkpt>
      <trkpt lat="43.539484972134233" lon="5.453540040180087">
        <ele>234.69999999999999</ele>
        <time>2025-05-17T11:56:02Z</time>
      </trkpt>
      <trkpt lat="43.539415989071131" lon="5.453531993553042">
        <ele>235.18000000000001</ele>
        <time>2025-05-17T11:56:03Z</time>
      </trkpt>
      <trkpt lat="43.539084987714887" lon="5.453497041016817">
        <ele>236.13999999999999</ele>
        <time>2025-05-17T11:56:08Z</time>
      </trkpt>
      <trkpt lat="43.539011981338263" lon="5.453488994389772">
        <ele>236.62</ele>
        <time>2025-05-17T11:56:09Z</time>
      </trkpt>
      <trkpt lat="43.539011981338263" lon="5.453488994389772">
        <ele>237.09999999999999</ele>
        <time>2025-05-17T11:56:10Z</time>
      </trkpt>
      <trkpt lat="43.538829004392028" lon="5.453437026590109">
        <ele>237.09999999999999</ele>
        <time>2025-05-17T11:56:11Z</time>
      </trkpt>
      <trkpt lat="43.53874996304512" lon="5.453378017991781">
        <ele>237.58000000000001</ele>
        <time>2025-05-17T11:56:12Z</time>
      </trkpt>
      <trkpt lat="43.537786966189742" lon="5.453022960573435">
        <ele>240.94999999999999</ele>
        <time>2025-05-17T11:56:23Z</time>
      </trkpt>
      <trkpt lat="43.537682024762034" lon="5.452951965853572">
        <ele>241.43000000000001</ele>
        <time>2025-05-17T11:56:24Z</time>
      </trkpt>
      <trkpt lat="43.537682024762034" lon="5.452951965853572">
        <ele>241.91</ele>
        <time>2025-05-17T11:56:25Z</time>
      </trkpt>
      <trkpt lat="43.537615975365043" lon="5.452833026647568">
        <ele>242.87</ele>
        <time>2025-05-17T11:56:26Z</time>
      </trkpt>
      <trkpt lat="43.537540035322309" lon="5.452863033860922">
        <ele>243.83000000000001</ele>
        <time>2025-05-17T11:56:27Z</time>
      </trkpt>
      <trkpt lat="43.537530982866883" lon="5.452866973355413">
        <ele>244.31</ele>
        <time>2025-05-17T11:56:28Z</time>
      </trkpt>
      <trkpt lat="43.53737398982048" lon="5.452915001660585">
        <ele>244.31</ele>
        <time>2025-05-17T11:56:29Z</time>
      </trkpt>
      <trkpt lat="43.537276005372405" lon="5.452906033024192">
        <ele>244.31</ele>
        <time>2025-05-17T11:56:30Z</time>
      </trkpt>
      <trkpt lat="43.537176009267569" lon="5.452894968912005">
        <ele>244.31</ele>
        <time>2025-05-17T11:56:31Z</time>
      </trkpt>
      <trkpt lat="43.537074001505971" lon="5.452877031639218">
        <ele>243.83000000000001</ele>
        <time>2025-05-17T11:56:32Z</time>
      </trkpt>
      <trkpt lat="43.536976017057896" lon="5.452837971970439">
        <ele>243.83000000000001</ele>
        <time>2025-05-17T11:56:33Z</time>
      </trkpt>
      <trkpt lat="43.536591958254576" lon="5.452646026387811">
        <ele>243.34999999999999</ele>
        <time>2025-05-17T11:56:37Z</time>
      </trkpt>
      <trkpt lat="43.536501014605165" lon="5.452578971162438">
        <ele>242.87</ele>
        <time>2025-05-17T11:56:38Z</time>
      </trkpt>
      <trkpt lat="43.535651005804539" lon="5.451867012307048">
        <ele>239.50999999999999</ele>
        <time>2025-05-17T11:56:47Z</time>
      </trkpt>
      <trkpt lat="43.535556038841605" lon="5.451785959303379">
        <ele>238.53999999999999</ele>
        <time>2025-05-17T11:56:48Z</time>
      </trkpt>
      <trkpt lat="43.535462999716401" lon="5.451705995947123">
        <ele>238.06</ele>
        <time>2025-05-17T11:56:49Z</time>
      </trkpt>
      <trkpt lat="43.535286979749799" lon="5.451555959880352">
        <ele>236.62</ele>
        <time>2025-05-17T11:56:51Z</time>
      </trkpt>
      <trkpt lat="43.535205004736781" lon="5.451487982645631">
        <ele>235.66</ele>
        <time>2025-05-17T11:56:52Z</time>
      </trkpt>
      <trkpt lat="43.53511699475348" lon="5.451434003189206">
        <ele>235.18000000000001</ele>
        <time>2025-05-17T11:56:53Z</time>
      </trkpt>
      <trkpt lat="43.534855982288718" lon="5.451295031234622">
        <ele>232.30000000000001</ele>
        <time>2025-05-17T11:56:56Z</time>
      </trkpt>
      <trkpt lat="43.534660013392568" lon="5.451229987666011">
        <ele>229.88999999999999</ele>
        <time>2025-05-17T11:56:58Z</time>
      </trkpt>
      <trkpt lat="43.533703973516822" lon="5.451053967699409">
        <ele>218.36000000000001</ele>
        <time>2025-05-17T11:57:08Z</time>
      </trkpt>
      <trkpt lat="43.532661013305187" lon="5.450876019895077">
        <ele>209.22</ele>
        <time>2025-05-17T11:57:20Z</time>
      </trkpt>
      <trkpt lat="43.53257903829217" lon="5.450859004631639">
        <ele>207.78</ele>
        <time>2025-05-17T11:57:22Z</time>
      </trkpt>
      <trkpt lat="43.532549031078815" lon="5.450852969661355">
        <ele>207.30000000000001</ele>
        <time>2025-05-17T11:57:23Z</time>
      </trkpt>
      <trkpt lat="43.532549031078815" lon="5.450852969661355">
        <ele>206.81999999999999</ele>
        <time>2025-05-17T11:57:36Z</time>
      </trkpt>
      <trkpt lat="43.532549031078815" lon="5.450852969661355">
        <ele>207.30000000000001</ele>
        <time>2025-05-17T11:58:08Z</time>
      </trkpt>
      <trkpt lat="43.532469989731908" lon="5.450836960226297">
        <ele>206.81999999999999</ele>
        <time>2025-05-17T11:58:16Z</time>
      </trkpt>
      <trkpt lat="43.532338980585337" lon="5.450678039342165">
        <ele>206.81999999999999</ele>
        <time>2025-05-17T11:58:17Z</time>
      </trkpt>
      <trkpt lat="43.532338980585337" lon="5.450678039342165">
        <ele>206.34</ele>
        <time>2025-05-17T11:58:18Z</time>
      </trkpt>
      <trkpt lat="43.532360019162297" lon="5.450571002438664">
        <ele>206.34</ele>
        <time>2025-05-17T11:58:19Z</time>
      </trkpt>
      <trkpt lat="43.532373011112213" lon="5.450482992455363">
        <ele>206.34</ele>
        <time>2025-05-17T11:58:20Z</time>
      </trkpt>
      <trkpt lat="43.53238700889051" lon="5.450385008007288">
        <ele>205.86000000000001</ele>
        <time>2025-05-17T11:58:21Z</time>
      </trkpt>
      <trkpt lat="43.532405029982328" lon="5.450276965275407">
        <ele>205.86000000000001</ele>
        <time>2025-05-17T11:58:22Z</time>
      </trkpt>
      <trkpt lat="43.532421961426735" lon="5.450158026069403">
        <ele>205.86000000000001</ele>
        <time>2025-05-17T11:58:23Z</time>
      </trkpt>
      <trkpt lat="43.53257903829217" lon="5.448933010920882">
        <ele>204.41999999999999</ele>
        <time>2025-05-17T11:58:32Z</time>
      </trkpt>
      <trkpt lat="43.532593036070466" lon="5.448836032301188">
        <ele>204.90000000000001</ele>
        <time>2025-05-17T11:58:38Z</time>
      </trkpt>
      <trkpt lat="43.532594963908195" lon="5.448818011209369">
        <ele>204.90000000000001</ele>
        <time>2025-05-17T11:59:00Z</time>
      </trkpt>
      <trkpt lat="43.532604016363621" lon="5.448763025924563">
        <ele>205.38</ele>
        <time>2025-05-17T11:59:01Z</time>
      </trkpt>
      <trkpt lat="43.532682973891497" lon="5.448216022923589">
        <ele>207.30000000000001</ele>
        <time>2025-05-17T11:59:07Z</time>
      </trkpt>
      <trkpt lat="43.532706024125218" lon="5.448047965764999">
        <ele>209.22</ele>
        <time>2025-05-17T11:59:16Z</time>
      </trkpt>
      <trkpt lat="43.532706024125218" lon="5.448047965764999">
        <ele>209.22</ele>
        <time>2025-05-17T11:59:40Z</time>
      </trkpt>
      <trkpt lat="43.532647015526891" lon="5.447927014902234">
        <ele>219.80000000000001</ele>
        <time>2025-05-17T13:15:40Z</time>
      </trkpt>
      <trkpt lat="43.532655984163284" lon="5.447934977710247">
        <ele>218.84</ele>
        <time>2025-05-17T13:16:17Z</time>
      </trkpt>
      <trkpt lat="43.532653972506523" lon="5.447933971881867">
        <ele>218.36000000000001</ele>
        <time>2025-05-17T13:16:48Z</time>
      </trkpt>
      <trkpt lat="43.532662019133568" lon="5.44791997410357">
        <ele>218.36000000000001</ele>
        <time>2025-05-17T13:17:09Z</time>
      </trkpt>
      <trkpt lat="43.532729996368289" lon="5.447877980768681">
        <ele>219.31999999999999</ele>
        <time>2025-05-17T13:17:24Z</time>
      </trkpt>
      <trkpt lat="43.532744999974966" lon="5.447767004370689">
        <ele>219.80000000000001</ele>
        <time>2025-05-17T13:17:34Z</time>
      </trkpt>
      <trkpt lat="43.532765032723546" lon="5.447540022432804">
        <ele>220.75999999999999</ele>
        <time>2025-05-17T13:18:10Z</time>
      </trkpt>
      <trkpt lat="43.532781964167953" lon="5.447331983596087">
        <ele>217.88</ele>
        <time>2025-05-17T13:18:13Z</time>
      </trkpt>
      <trkpt lat="43.532787999138236" lon="5.447260988876224">
        <ele>216.91</ele>
        <time>2025-05-17T13:18:14Z</time>
      </trkpt>
      <trkpt lat="43.532781964167953" lon="5.447182031348348">
        <ele>216.43000000000001</ele>
        <time>2025-05-17T13:18:15Z</time>
      </trkpt>
      <trkpt lat="43.53277500718832" lon="5.447112964466214">
        <ele>215.94999999999999</ele>
        <time>2025-05-17T13:18:16Z</time>
      </trkpt>
      <trkpt lat="43.532766038551927" lon="5.44703702442348">
        <ele>214.99000000000001</ele>
        <time>2025-05-17T13:18:17Z</time>
      </trkpt>
      <trkpt lat="43.53275497443974" lon="5.446939961984754">
        <ele>214.50999999999999</ele>
        <time>2025-05-17T13:18:18Z</time>
      </trkpt>
      <trkpt lat="43.532743994146585" lon="5.446836026385427">
        <ele>214.03</ele>
        <time>2025-05-17T13:18:19Z</time>
      </trkpt>
      <trkpt lat="43.53273200802505" lon="5.446728989481926">
        <ele>213.55000000000001</ele>
        <time>2025-05-17T13:18:20Z</time>
      </trkpt>
      <trkpt lat="43.532723039388657" lon="5.446659000590444">
        <ele>213.06999999999999</ele>
        <time>2025-05-17T13:18:21Z</time>
      </trkpt>
      <trkpt lat="43.532715998589993" lon="5.446627987548709">
        <ele>212.59</ele>
        <time>2025-05-17T13:18:22Z</time>
      </trkpt>
      <trkpt lat="43.53270904161036" lon="5.446602003648877">
        <ele>212.11000000000001</ele>
        <time>2025-05-17T13:18:23Z</time>
      </trkpt>
      <trkpt lat="43.532698983326554" lon="5.446562021970749">
        <ele>211.63</ele>
        <time>2025-05-17T13:18:24Z</time>
      </trkpt>
      <trkpt lat="43.532683979719877" lon="5.446293968707323">
        <ele>211.15000000000001</ele>
        <time>2025-05-17T13:18:25Z</time>
      </trkpt>
      <trkpt lat="43.532726978883147" lon="5.446267984807491">
        <ele>210.19</ele>
        <time>2025-05-17T13:18:26Z</time>
      </trkpt>
      <trkpt lat="43.532767966389656" lon="5.44624300673604">
        <ele>209.69999999999999</ele>
        <time>2025-05-17T13:18:27Z</time>
      </trkpt>
      <trkpt lat="43.532808031886816" lon="5.44621903449297">
        <ele>209.22</ele>
        <time>2025-05-17T13:18:28Z</time>
      </trkpt>
      <trkpt lat="43.532849019393325" lon="5.446193972602487">
        <ele>208.74000000000001</ele>
        <time>2025-05-17T13:18:29Z</time>
      </trkpt>
      <trkpt lat="43.532891012728214" lon="5.446167988702655">
        <ele>207.78</ele>
        <time>2025-05-17T13:18:30Z</time>
      </trkpt>
      <trkpt lat="43.532939963042736" lon="5.446137981489301">
        <ele>207.30000000000001</ele>
        <time>2025-05-17T13:18:31Z</time>
      </trkpt>
      <trkpt lat="43.532994026318192" lon="5.446105040609837">
        <ele>206.34</ele>
        <time>2025-05-17T13:18:32Z</time>
      </trkpt>
      <trkpt lat="43.533050017431378" lon="5.446073021739721">
        <ele>206.34</ele>
        <time>2025-05-17T13:18:33Z</time>
      </trkpt>
      <trkpt lat="43.533113971352577" lon="5.446038991212845">
        <ele>205.86000000000001</ele>
        <time>2025-05-17T13:18:34Z</time>
      </trkpt>
      <trkpt lat="43.53318396024406" lon="5.446002027019858">
        <ele>205.38</ele>
        <time>2025-05-17T13:18:35Z</time>
      </trkpt>
      <trkpt lat="43.533251015469432" lon="5.445966990664601">
        <ele>205.38</ele>
        <time>2025-05-17T13:18:36Z</time>
      </trkpt>
      <trkpt lat="43.533304994925857" lon="5.445938995108008">
        <ele>205.38</ele>
        <time>2025-05-17T13:18:37Z</time>
      </trkpt>
      <trkpt lat="43.533346988260746" lon="5.445917034521699">
        <ele>205.38</ele>
        <time>2025-05-17T13:18:38Z</time>
      </trkpt>
      <trkpt lat="43.533432986587286" lon="5.445871017873287">
        <ele>205.38</ele>
        <time>2025-05-17T13:18:39Z</time>
      </trkpt>
      <trkpt lat="43.533432986587286" lon="5.445871017873287">
        <ele>205.38</ele>
        <time>2025-05-17T13:18:40Z</time>
      </trkpt>
      <trkpt lat="43.53359199129045" lon="5.445910999551415">
        <ele>204.90000000000001</ele>
        <time>2025-05-17T13:18:41Z</time>
      </trkpt>
      <trkpt lat="43.533602971583605" lon="5.445976965129376">
        <ele>204.41999999999999</ele>
        <time>2025-05-17T13:18:42Z</time>
      </trkpt>
      <trkpt lat="43.533613029867411" lon="5.446046032011509">
        <ele>204.41999999999999</ele>
        <time>2025-05-17T13:18:43Z</time>
      </trkpt>
      <trkpt lat="43.533624010160565" lon="5.446117026731372">
        <ele>204.41999999999999</ele>
        <time>2025-05-17T13:18:44Z</time>
      </trkpt>
      <trkpt lat="43.533639013767242" lon="5.446174023672938">
        <ele>204.41999999999999</ele>
        <time>2025-05-17T13:18:45Z</time>
      </trkpt>
      <trkpt lat="43.533760970458388" lon="5.446654977276921">
        <ele>206.34</ele>
        <time>2025-05-17T13:18:51Z</time>
      </trkpt>
      <trkpt lat="43.533818973228335" lon="5.446751033887267">
        <ele>206.81999999999999</ele>
        <time>2025-05-17T13:18:52Z</time>
      </trkpt>
      <trkpt lat="43.533855015411973" lon="5.4467389639467">
        <ele>206.81999999999999</ele>
        <time>2025-05-17T13:18:53Z</time>
      </trkpt>
      <trkpt lat="43.53391301818192" lon="5.446720020845532">
        <ele>207.30000000000001</ele>
        <time>2025-05-17T13:18:54Z</time>
      </trkpt>
      <trkpt lat="43.533983007073402" lon="5.446696970611811">
        <ele>207.30000000000001</ele>
        <time>2025-05-17T13:18:55Z</time>
      </trkpt>
      <trkpt lat="43.534060958772898" lon="5.446660006418824">
        <ele>207.30000000000001</ele>
        <time>2025-05-17T13:18:56Z</time>
      </trkpt>
      <trkpt lat="43.534282995387912" lon="5.44652396813035">
        <ele>207.30000000000001</ele>
        <time>2025-05-17T13:18:59Z</time>
      </trkpt>
      <trkpt lat="43.53434300981462" lon="5.446484992280603">
        <ele>207.30000000000001</ele>
        <time>2025-05-17T13:19:00Z</time>
      </trkpt>
      <trkpt lat="43.534527998417616" lon="5.446377033367753">
        <ele>208.25999999999999</ele>
        <time>2025-05-17T13:19:03Z</time>
      </trkpt>
      <trkpt lat="43.534564962610602" lon="5.446357000619173">
        <ele>209.22</ele>
        <time>2025-05-17T13:19:04Z</time>
      </trkpt>
      <trkpt lat="43.534635035321116" lon="5.446321964263916">
        <ele>210.19</ele>
        <time>2025-05-17T13:19:05Z</time>
      </trkpt>
      <trkpt lat="43.534641992300749" lon="5.446335962042213">
        <ele>210.66999999999999</ele>
        <time>2025-05-17T13:19:06Z</time>
      </trkpt>
      <trkpt lat="43.534668982028961" lon="5.446382984519005">
        <ele>211.15000000000001</ele>
        <time>2025-05-17T13:19:07Z</time>
      </trkpt>
      <trkpt lat="43.534720027819276" lon="5.446474011987448">
        <ele>211.63</ele>
        <time>2025-05-17T13:19:08Z</time>
      </trkpt>
      <trkpt lat="43.534851036965847" lon="5.447447989135981">
        <ele>216.91</ele>
        <time>2025-05-17T13:19:17Z</time>
      </trkpt>
      <trkpt lat="43.534895963966846" lon="5.448088031262159">
        <ele>216.43000000000001</ele>
        <time>2025-05-17T13:19:23Z</time>
      </trkpt>
      <trkpt lat="43.534907028079033" lon="5.44817796908319">
        <ele>216.43000000000001</ele>
        <time>2025-05-17T13:19:24Z</time>
      </trkpt>
      <trkpt lat="43.535027978941798" lon="5.449125040322542">
        <ele>218.36000000000001</ele>
        <time>2025-05-17T13:19:34Z</time>
      </trkpt>
      <trkpt lat="43.535043988376856" lon="5.449205003678799">
        <ele>218.36000000000001</ele>
        <time>2025-05-17T13:19:35Z</time>
      </trkpt>
      <trkpt lat="43.535061003640294" lon="5.449289996176958">
        <ele>218.84</ele>
        <time>2025-05-17T13:19:36Z</time>
      </trkpt>
      <trkpt lat="43.535078018903732" lon="5.449375994503498">
        <ele>218.84</ele>
        <time>2025-05-17T13:19:37Z</time>
      </trkpt>
      <trkpt lat="43.535096039995551" lon="5.449464004486799">
        <ele>218.84</ele>
        <time>2025-05-17T13:19:38Z</time>
      </trkpt>
      <trkpt lat="43.535127975046635" lon="5.449740020558238">
        <ele>220.28</ele>
        <time>2025-05-17T13:19:41Z</time>
      </trkpt>
      <trkpt lat="43.535127975046635" lon="5.449839010834694">
        <ele>221.24000000000001</ele>
        <time>2025-05-17T13:19:42Z</time>
      </trkpt>
      <trkpt lat="43.535127975046635" lon="5.449947975575924">
        <ele>222.19999999999999</ele>
        <time>2025-05-17T13:19:43Z</time>
      </trkpt>
      <trkpt lat="43.535118000581861" lon="5.450033973902464">
        <ele>223.16</ele>
        <time>2025-05-17T13:19:44Z</time>
      </trkpt>
      <trkpt lat="43.535106014460325" lon="5.450134975835681">
        <ele>223.63999999999999</ele>
        <time>2025-05-17T13:19:45Z</time>
      </trkpt>
      <trkpt lat="43.53509402833879" lon="5.45023899525404">
        <ele>224.61000000000001</ele>
        <time>2025-05-17T13:19:46Z</time>
      </trkpt>
      <trkpt lat="43.535081958398223" lon="5.450339997187257">
        <ele>225.56999999999999</ele>
        <time>2025-05-17T13:19:47Z</time>
      </trkpt>
      <trkpt lat="43.535069972276688" lon="5.450438987463713">
        <ele>226.05000000000001</ele>
        <time>2025-05-17T13:19:48Z</time>
      </trkpt>
      <trkpt lat="43.535037031397223" lon="5.450710980221629">
        <ele>227.97</ele>
        <time>2025-05-17T13:19:51Z</time>
      </trkpt>
      <trkpt lat="43.535009035840631" lon="5.450879037380219">
        <ele>228.93000000000001</ele>
        <time>2025-05-17T13:19:53Z</time>
      </trkpt>
      <trkpt lat="43.534941980615258" lon="5.451282039284706">
        <ele>231.81</ele>
        <time>2025-05-17T13:20:01Z</time>
      </trkpt>
      <trkpt lat="43.534969976171851" lon="5.451342975720763">
        <ele>232.30000000000001</ele>
        <time>2025-05-17T13:20:02Z</time>
      </trkpt>
      <trkpt lat="43.535006018355489" lon="5.451365020126104">
        <ele>232.78</ele>
        <time>2025-05-17T13:20:03Z</time>
      </trkpt>
      <trkpt lat="43.535059997811913" lon="5.451398966833949">
        <ele>233.25999999999999</ele>
        <time>2025-05-17T13:20:04Z</time>
      </trkpt>
      <trkpt lat="43.535118000581861" lon="5.451434003189206">
        <ele>233.74000000000001</ele>
        <time>2025-05-17T13:20:05Z</time>
      </trkpt>
      <trkpt lat="43.535365015268326" lon="5.451622009277344">
        <ele>235.18000000000001</ele>
        <time>2025-05-17T13:20:09Z</time>
      </trkpt>
      <trkpt lat="43.535435004159808" lon="5.451682023704052">
        <ele>235.18000000000001</ele>
        <time>2025-05-17T13:20:10Z</time>
      </trkpt>
      <trkpt lat="43.535501975566149" lon="5.451740026473999">
        <ele>235.66</ele>
        <time>2025-05-17T13:20:11Z</time>
      </trkpt>
      <trkpt lat="43.535569030791521" lon="5.451796017587185">
        <ele>236.13999999999999</ele>
        <time>2025-05-17T13:20:12Z</time>
      </trkpt>
      <trkpt lat="43.535641031339765" lon="5.451857959851623">
        <ele>237.09999999999999</ele>
        <time>2025-05-17T13:20:13Z</time>
      </trkpt>
      <trkpt lat="43.535786038264632" lon="5.451982012018561">
        <ele>238.06</ele>
        <time>2025-05-17T13:20:15Z</time>
      </trkpt>
      <trkpt lat="43.535867007449269" lon="5.452050995081663">
        <ele>238.53999999999999</ele>
        <time>2025-05-17T13:20:16Z</time>
      </trkpt>
      <trkpt lat="43.536209994927049" lon="5.45234402641654">
        <ele>240.94999999999999</ele>
        <time>2025-05-17T13:20:20Z</time>
      </trkpt>
      <trkpt lat="43.536467989906669" lon="5.452556004747748">
        <ele>241.91</ele>
        <time>2025-05-17T13:20:23Z</time>
      </trkpt>
      <trkpt lat="43.536561029031873" lon="5.452622976154089">
        <ele>242.38999999999999</ele>
        <time>2025-05-17T13:20:24Z</time>
      </trkpt>
      <trkpt lat="43.537327973172069" lon="5.452909972518683">
        <ele>244.78999999999999</ele>
        <time>2025-05-17T13:20:33Z</time>
      </trkpt>
      <trkpt lat="43.537432998418808" lon="5.452921036630869">
        <ele>244.78999999999999</ele>
        <time>2025-05-17T13:20:35Z</time>
      </trkpt>
      <trkpt lat="43.537485972046852" lon="5.45292598195374">
        <ele>245.27000000000001</ele>
        <time>2025-05-17T13:20:36Z</time>
      </trkpt>
      <trkpt lat="43.537530982866883" lon="5.452931011095643">
        <ele>245.27000000000001</ele>
        <time>2025-05-17T13:20:37Z</time>
      </trkpt>
      <trkpt lat="43.538249982520938" lon="5.453193029388785">
        <ele>244.31</ele>
        <time>2025-05-17T13:20:46Z</time>
      </trkpt>
      <trkpt lat="43.538404041901231" lon="5.453238962218165">
        <ele>243.34999999999999</ele>
        <time>2025-05-17T13:20:48Z</time>
      </trkpt>
      <trkpt lat="43.538466989994049" lon="5.453256983309984">
        <ele>242.87</ele>
        <time>2025-05-17T13:20:49Z</time>
      </trkpt>
      <trkpt lat="43.538521975278854" lon="5.453273998573422">
        <ele>242.38999999999999</ele>
        <time>2025-05-17T13:20:50Z</time>
      </trkpt>
      <trkpt lat="43.538587018847466" lon="5.453293025493622">
        <ele>241.91</ele>
        <time>2025-05-17T13:20:51Z</time>
      </trkpt>
      <trkpt lat="43.538669999688864" lon="5.453318003565073">
        <ele>241.43000000000001</ele>
        <time>2025-05-17T13:20:52Z</time>
      </trkpt>
      <trkpt lat="43.538742000237107" lon="5.453371983021498">
        <ele>241.43000000000001</ele>
        <time>2025-05-17T13:20:53Z</time>
      </trkpt>
      <trkpt lat="43.538816012442112" lon="5.453427974134684">
        <ele>241.43000000000001</ele>
        <time>2025-05-17T13:20:54Z</time>
      </trkpt>
      <trkpt lat="43.538862029090524" lon="5.453617991879582">
        <ele>241.43000000000001</ele>
        <time>2025-05-17T13:20:55Z</time>
      </trkpt>
      <trkpt lat="43.538899999111891" lon="5.453637018799782">
        <ele>241.43000000000001</ele>
        <time>2025-05-17T13:20:56Z</time>
      </trkpt>
      <trkpt lat="43.539011981338263" lon="5.453488994389772">
        <ele>241.43000000000001</ele>
        <time>2025-05-17T13:20:57Z</time>
      </trkpt>
      <trkpt lat="43.539037965238094" lon="5.453491006046534">
        <ele>240.94999999999999</ele>
        <time>2025-05-17T13:20:58Z</time>
      </trkpt>
      <trkpt lat="43.539089011028409" lon="5.453497041016817">
        <ele>240.47</ele>
        <time>2025-05-17T13:20:59Z</time>
      </trkpt>
      <trkpt lat="43.539145002141595" lon="5.453502992168069">
        <ele>239.99000000000001</ele>
        <time>2025-05-17T13:21:00Z</time>
      </trkpt>
      <trkpt lat="43.539205016568303" lon="5.453509027138352">
        <ele>239.50999999999999</ele>
        <time>2025-05-17T13:21:01Z</time>
      </trkpt>
      <trkpt lat="43.539264025166631" lon="5.453515984117985">
        <ele>239.02000000000001</ele>
        <time>2025-05-17T13:21:02Z</time>
      </trkpt>
      <trkpt lat="43.539322027936578" lon="5.453522019088268">
        <ele>238.53999999999999</ele>
        <time>2025-05-17T13:21:03Z</time>
      </trkpt>
      <trkpt lat="43.539459994062781" lon="5.453537022694945">
        <ele>237.58000000000001</ele>
        <time>2025-05-17T13:21:05Z</time>
      </trkpt>
      <trkpt lat="43.539534006267786" lon="5.453544985502958">
        <ele>237.58000000000001</ele>
        <time>2025-05-17T13:21:06Z</time>
      </trkpt>
      <trkpt lat="43.539612963795662" lon="5.453553032130003">
        <ele>237.09999999999999</ele>
        <time>2025-05-17T13:21:07Z</time>
      </trkpt>
      <trkpt lat="43.540600016713142" lon="5.453831981867552">
        <ele>236.13999999999999</ele>
        <time>2025-05-17T13:21:19Z</time>
      </trkpt>
      <trkpt lat="43.540743011981249" lon="5.453870035707951">
        <ele>236.62</ele>
        <time>2025-05-17T13:21:21Z</time>
      </trkpt>
      <trkpt lat="43.540815012529492" lon="5.453901970759034">
        <ele>236.62</ele>
        <time>2025-05-17T13:21:22Z</time>
      </trkpt>
      <trkpt lat="43.540881983935833" lon="5.453930972144008">
        <ele>236.62</ele>
        <time>2025-05-17T13:21:23Z</time>
      </trkpt>
      <trkpt lat="43.541508028283715" lon="5.454239007085562">
        <ele>239.50999999999999</ele>
        <time>2025-05-17T13:21:34Z</time>
      </trkpt>
      <trkpt lat="43.541797958314419" lon="5.454388037323952">
        <ele>239.50999999999999</ele>
        <time>2025-05-17T13:21:38Z</time>
      </trkpt>
      <trkpt lat="43.541873982176185" lon="5.454426007345319">
        <ele>239.50999999999999</ele>
        <time>2025-05-17T13:21:39Z</time>
      </trkpt>
      <trkpt lat="43.541953023523092" lon="5.454469006508589">
        <ele>239.02000000000001</ele>
        <time>2025-05-17T13:21:40Z</time>
      </trkpt>
      <trkpt lat="43.54209903627634" lon="5.454560033977032">
        <ele>238.06</ele>
        <time>2025-05-17T13:21:42Z</time>
      </trkpt>
      <trkpt lat="43.54237999767065" lon="5.454753991216421">
        <ele>237.58000000000001</ele>
        <time>2025-05-17T13:21:46Z</time>
      </trkpt>
      <trkpt lat="43.542440012097359" lon="5.454799002036452">
        <ele>238.06</ele>
        <time>2025-05-17T13:21:47Z</time>
      </trkpt>
      <trkpt lat="43.542488040402532" lon="5.454840995371342">
        <ele>238.06</ele>
        <time>2025-05-17T13:21:48Z</time>
      </trkpt>
      <trkpt lat="43.542526010423899" lon="5.454877959564328">
        <ele>238.06</ele>
        <time>2025-05-17T13:21:49Z</time>
      </trkpt>
      <trkpt lat="43.542563980445266" lon="5.454916013404727">
        <ele>238.06</ele>
        <time>2025-05-17T13:21:50Z</time>
      </trkpt>
      <trkpt lat="43.54263799265027" lon="5.454991031438112">
        <ele>238.53999999999999</ele>
        <time>2025-05-17T13:21:52Z</time>
      </trkpt>
      <trkpt lat="43.542681997641921" lon="5.455183982849121">
        <ele>239.02000000000001</ele>
        <time>2025-05-17T13:21:53Z</time>
      </trkpt>
      <trkpt lat="43.542738994583488" lon="5.455183982849121">
        <ele>239.02000000000001</ele>
        <time>2025-05-17T13:21:54Z</time>
      </trkpt>
      <trkpt lat="43.54280998930335" lon="5.455120028927922">
        <ele>239.50999999999999</ele>
        <time>2025-05-17T13:21:55Z</time>
      </trkpt>
      <trkpt lat="43.54287201538682" lon="5.455130003392696">
        <ele>239.99000000000001</ele>
        <time>2025-05-17T13:21:56Z</time>
      </trkpt>
      <trkpt lat="43.54313101619482" lon="5.455177025869489">
        <ele>240.94999999999999</ele>
        <time>2025-05-17T13:21:59Z</time>
      </trkpt>
      <trkpt lat="43.54371196590364" lon="5.455284984782338">
        <ele>245.27000000000001</ele>
        <time>2025-05-17T13:22:05Z</time>
      </trkpt>
      <trkpt lat="43.544459966942668" lon="5.455441977828741">
        <ele>251.03999999999999</ele>
        <time>2025-05-17T13:22:12Z</time>
      </trkpt>
      <trkpt lat="43.54456901550293" lon="5.455441977828741">
        <ele>252</ele>
        <time>2025-05-17T13:22:13Z</time>
      </trkpt>
      <trkpt lat="43.544791974127293" lon="5.455434015020728">
        <ele>252.96000000000001</ele>
        <time>2025-05-17T13:22:15Z</time>
      </trkpt>
      <trkpt lat="43.545776009559631" lon="5.455103013664484">
        <ele>259.20999999999998</ele>
        <time>2025-05-17T13:22:24Z</time>
      </trkpt>
      <trkpt lat="43.54588002897799" lon="5.455063031986356">
        <ele>259.69</ele>
        <time>2025-05-17T13:22:25Z</time>
      </trkpt>
      <trkpt lat="43.546096030622721" lon="5.454983990639448">
        <ele>262.10000000000002</ele>
        <time>2025-05-17T13:22:27Z</time>
      </trkpt>
      <trkpt lat="43.546222010627389" lon="5.454948032274842">
        <ele>263.06</ele>
        <time>2025-05-17T13:22:28Z</time>
      </trkpt>
      <trkpt lat="43.546543959528208" lon="5.454855998978019">
        <ele>266.42000000000002</ele>
        <time>2025-05-17T13:22:31Z</time>
      </trkpt>
      <trkpt lat="43.54665401391685" lon="5.454854993149638">
        <ele>267.86000000000001</ele>
        <time>2025-05-17T13:22:32Z</time>
      </trkpt>
      <trkpt lat="43.546764990314841" lon="5.454888017848134">
        <ele>269.31</ele>
        <time>2025-05-17T13:22:33Z</time>
      </trkpt>
      <trkpt lat="43.547906018793583" lon="5.455355979502201">
        <ele>281.80000000000001</ele>
        <time>2025-05-17T13:22:43Z</time>
      </trkpt>
      <trkpt lat="43.548532985150814" lon="5.455643981695175">
        <ele>288.05000000000001</ele>
        <time>2025-05-17T13:22:50Z</time>
      </trkpt>
      <trkpt lat="43.549322979524732" lon="5.456085037440062">
        <ele>294.30000000000001</ele>
        <time>2025-05-17T13:22:58Z</time>
      </trkpt>
      <trkpt lat="43.549654986709356" lon="5.456305984407663">
        <ele>294.77999999999997</ele>
        <time>2025-05-17T13:23:01Z</time>
      </trkpt>
      <trkpt lat="43.54977099224925" lon="5.456373961642385">
        <ele>294.77999999999997</ele>
        <time>2025-05-17T13:23:02Z</time>
      </trkpt>
      <trkpt lat="43.549886997789145" lon="5.456439005210996">
        <ele>294.77999999999997</ele>
        <time>2025-05-17T13:23:03Z</time>
      </trkpt>
      <trkpt lat="43.550930041819811" lon="5.457014003768563">
        <ele>294.77999999999997</ele>
        <time>2025-05-17T13:23:13Z</time>
      </trkpt>
      <trkpt lat="43.552227979525924" lon="5.457696039229631">
        <ele>295.74000000000001</ele>
        <time>2025-05-17T13:23:26Z</time>
      </trkpt>
      <trkpt lat="43.553547039628029" lon="5.458375979214907">
        <ele>297.67000000000002</ele>
        <time>2025-05-17T13:23:38Z</time>
      </trkpt>
      <trkpt lat="43.554458990693092" lon="5.458856010809541">
        <ele>297.67000000000002</ele>
        <time>2025-05-17T13:23:47Z</time>
      </trkpt>
      <trkpt lat="43.554774988442659" lon="5.459021972492337">
        <ele>297.18000000000001</ele>
        <time>2025-05-17T13:23:51Z</time>
      </trkpt>
      <trkpt lat="43.554996019229293" lon="5.459140995517373">
        <ele>296.22000000000003</ele>
        <time>2025-05-17T13:23:57Z</time>
      </trkpt>
      <trkpt lat="43.554996019229293" lon="5.459140995517373">
        <ele>296.22000000000003</ele>
        <time>2025-05-17T13:24:16Z</time>
      </trkpt>
      <trkpt lat="43.555214032530785" lon="5.459258006885648">
        <ele>294.77999999999997</ele>
        <time>2025-05-17T13:24:24Z</time>
      </trkpt>
      <trkpt lat="43.555214032530785" lon="5.459258006885648">
        <ele>294.77999999999997</ele>
        <time>2025-05-17T13:24:40Z</time>
      </trkpt>
      <trkpt lat="43.555231969803572" lon="5.459267981350422">
        <ele>294.77999999999997</ele>
        <time>2025-05-17T13:25:04Z</time>
      </trkpt>
      <trkpt lat="43.555298019200563" lon="5.45930402353406">
        <ele>291.89999999999998</ele>
        <time>2025-05-17T13:25:05Z</time>
      </trkpt>
      <trkpt lat="43.555331965908408" lon="5.459329001605511">
        <ele>291.42000000000002</ele>
        <time>2025-05-17T13:25:06Z</time>
      </trkpt>
      <trkpt lat="43.555394997820258" lon="5.459374012425542">
        <ele>290.94</ele>
        <time>2025-05-17T13:25:07Z</time>
      </trkpt>
      <trkpt lat="43.555475967004895" lon="5.459419023245573">
        <ele>290.94</ele>
        <time>2025-05-17T13:25:08Z</time>
      </trkpt>
      <trkpt lat="43.555556014180183" lon="5.459463028237224">
        <ele>290.94</ele>
        <time>2025-05-17T13:25:09Z</time>
      </trkpt>
      <trkpt lat="43.555865976959467" lon="5.459698978811503">
        <ele>291.42000000000002</ele>
        <time>2025-05-17T13:25:13Z</time>
      </trkpt>
      <trkpt lat="43.556256992742419" lon="5.459881033748388">
        <ele>292.38</ele>
        <time>2025-05-17T13:25:18Z</time>
      </trkpt>
      <trkpt lat="43.556347014382482" lon="5.45990701764822">
        <ele>292.38</ele>
        <time>2025-05-17T13:25:19Z</time>
      </trkpt>
      <trkpt lat="43.556512976065278" lon="5.459968037903309">
        <ele>292.38</ele>
        <time>2025-05-17T13:25:21Z</time>
      </trkpt>
      <trkpt lat="43.557022009044886" lon="5.460206000134349">
        <ele>293.33999999999997</ele>
        <time>2025-05-17T13:25:28Z</time>
      </trkpt>
      <trkpt lat="43.557124016806483" lon="5.46025101095438">
        <ele>293.81999999999999</ele>
        <time>2025-05-17T13:25:29Z</time>
      </trkpt>
      <trkpt lat="43.55799799785018" lon="5.460717966780067">
        <ele>298.63</ele>
        <time>2025-05-17T13:25:37Z</time>
      </trkpt>
      <trkpt lat="43.55881498195231" lon="5.461120968684554">
        <ele>302.47000000000003</ele>
        <time>2025-05-17T13:25:45Z</time>
      </trkpt>
      <trkpt lat="43.55887801386416" lon="5.46115399338305">
        <ele>302.94999999999999</ele>
        <time>2025-05-17T13:25:46Z</time>
      </trkpt>
      <trkpt lat="43.559077000245452" lon="5.461257006973028">
        <ele>304.88</ele>
        <time>2025-05-17T13:25:53Z</time>
      </trkpt>
      <trkpt lat="43.55948100797832" lon="5.461480971425772">
        <ele>307.75999999999999</ele>
        <time>2025-05-17T13:26:01Z</time>
      </trkpt>
      <trkpt lat="43.560288017615676" lon="5.461895037442446">
        <ele>313.05000000000001</ele>
        <time>2025-05-17T13:26:11Z</time>
      </trkpt>
      <trkpt lat="43.561279010027647" lon="5.462407004088163">
        <ele>317.37</ele>
        <time>2025-05-17T13:26:19Z</time>
      </trkpt>
      <trkpt lat="43.562443004921079" lon="5.462993988767266">
        <ele>317.85000000000002</ele>
        <time>2025-05-17T13:26:28Z</time>
      </trkpt>
      <trkpt lat="43.563891984522343" lon="5.463720029219985">
        <ele>320.25999999999999</ele>
        <time>2025-05-17T13:26:39Z</time>
      </trkpt>
      <trkpt lat="43.565349010750651" lon="5.464454032480717">
        <ele>325.06</ele>
        <time>2025-05-17T13:26:49Z</time>
      </trkpt>
      <trkpt lat="43.567055985331535" lon="5.465357014909387">
        <ele>331.79000000000002</ele>
        <time>2025-05-17T13:27:00Z</time>
      </trkpt>
      <trkpt lat="43.569138972088695" lon="5.466647995635867">
        <ele>332.26999999999998</ele>
        <time>2025-05-17T13:27:13Z</time>
      </trkpt>
      <trkpt lat="43.570689037442207" lon="5.46820099465549">
        <ele>335.63999999999999</ele>
        <time>2025-05-17T13:27:24Z</time>
      </trkpt>
      <trkpt lat="43.571400996297598" lon="5.468836007639766">
        <ele>338.04000000000002</ele>
        <time>2025-05-17T13:27:29Z</time>
      </trkpt>
      <trkpt lat="43.571558995172381" lon="5.468914965167642">
        <ele>338.51999999999998</ele>
        <time>2025-05-17T13:27:30Z</time>
      </trkpt>
      <trkpt lat="43.571715988218784" lon="5.468977997079492">
        <ele>339</ele>
        <time>2025-05-17T13:27:31Z</time>
      </trkpt>
      <trkpt lat="43.571880022063851" lon="5.469023007899523">
        <ele>339.48000000000002</ele>
        <time>2025-05-17T13:27:32Z</time>
      </trkpt>
      <trkpt lat="43.572043972089887" lon="5.469024013727903">
        <ele>340.44</ele>
        <time>2025-05-17T13:27:33Z</time>
      </trkpt>
      <trkpt lat="43.57237103395164" lon="5.469019990414381">
        <ele>341.88999999999999</ele>
        <time>2025-05-17T13:27:35Z</time>
      </trkpt>
      <trkpt lat="43.573492029681802" lon="5.468602990731597">
        <ele>344.76999999999998</ele>
        <time>2025-05-17T13:27:42Z</time>
      </trkpt>
      <trkpt lat="43.574157971888781" lon="5.468552028760314">
        <ele>342.85000000000002</ele>
        <time>2025-05-17T13:27:46Z</time>
      </trkpt>
      <trkpt lat="43.574322005733848" lon="5.468563009053469">
        <ele>342.37</ele>
        <time>2025-05-17T13:27:47Z</time>
      </trkpt>
      <trkpt lat="43.574472963809967" lon="5.468611959367991">
        <ele>341.41000000000003</ele>
        <time>2025-05-17T13:27:48Z</time>
      </trkpt>
      <trkpt lat="43.574624005705118" lon="5.468659987673163">
        <ele>340.44</ele>
        <time>2025-05-17T13:27:49Z</time>
      </trkpt>
      <trkpt lat="43.574769012629986" lon="5.468707010149956">
        <ele>339.48000000000002</ele>
        <time>2025-05-17T13:27:50Z</time>
      </trkpt>
      <trkpt lat="43.574904967099428" lon="5.468750009313226">
        <ele>338.51999999999998</ele>
        <time>2025-05-17T13:27:51Z</time>
      </trkpt>
      <trkpt lat="43.575547020882368" lon="5.4688670206815">
        <ele>335.63999999999999</ele>
        <time>2025-05-17T13:27:57Z</time>
      </trkpt>
      <trkpt lat="43.57563897036016" lon="5.468873977661133">
        <ele>335.63999999999999</ele>
        <time>2025-05-17T13:27:58Z</time>
      </trkpt>
      <trkpt lat="43.57572203502059" lon="5.468956036493182">
        <ele>335.63999999999999</ele>
        <time>2025-05-17T13:27:59Z</time>
      </trkpt>
      <trkpt lat="43.57585497200489" lon="5.46893298625946">
        <ele>336.12</ele>
        <time>2025-05-17T13:28:00Z</time>
      </trkpt>
      <trkpt lat="43.577061966061592" lon="5.46953103505075">
        <ele>338.04000000000002</ele>
        <time>2025-05-17T13:28:11Z</time>
      </trkpt>
      <trkpt lat="43.578180028125644" lon="5.470036966726184">
        <ele>334.19999999999999</ele>
        <time>2025-05-17T13:28:21Z</time>
      </trkpt>
      <trkpt lat="43.578276000916958" lon="5.470081977546215">
        <ele>333.70999999999998</ele>
        <time>2025-05-17T13:28:22Z</time>
      </trkpt>
      <trkpt lat="43.578466018661857" lon="5.470168981701136">
        <ele>332.26999999999998</ele>
        <time>2025-05-17T13:28:25Z</time>
      </trkpt>
      <trkpt lat="43.57851798646152" lon="5.470194965600967">
        <ele>331.79000000000002</ele>
        <time>2025-05-17T13:28:26Z</time>
      </trkpt>
      <trkpt lat="43.579214019700885" lon="5.470526972785592">
        <ele>327.94999999999999</ele>
        <time>2025-05-17T13:28:35Z</time>
      </trkpt>
      <trkpt lat="43.579649962484837" lon="5.470711961388588">
        <ele>326.99000000000001</ele>
        <time>2025-05-17T13:28:42Z</time>
      </trkpt>
      <trkpt lat="43.579649962484837" lon="5.470711961388588">
        <ele>326.99000000000001</ele>
        <time>2025-05-17T13:28:53Z</time>
      </trkpt>
      <trkpt lat="43.579663960263133" lon="5.470717996358872">
        <ele>326.99000000000001</ele>
        <time>2025-05-17T13:29:11Z</time>
      </trkpt>
      <trkpt lat="43.579697990790009" lon="5.470732999965549">
        <ele>326.99000000000001</ele>
        <time>2025-05-17T13:29:12Z</time>
      </trkpt>
      <trkpt lat="43.58006302267313" lon="5.470892004668713">
        <ele>325.06</ele>
        <time>2025-05-17T13:29:19Z</time>
      </trkpt>
      <trkpt lat="43.580467030405998" lon="5.471072969958186">
        <ele>324.10000000000002</ele>
        <time>2025-05-17T13:29:27Z</time>
      </trkpt>
      <trkpt lat="43.581392979249358" lon="5.471561970189214">
        <ele>324.10000000000002</ele>
        <time>2025-05-17T13:29:37Z</time>
      </trkpt>
      <trkpt lat="43.582285987213254" lon="5.472270995378494">
        <ele>328.43000000000001</ele>
        <time>2025-05-17T13:29:48Z</time>
      </trkpt>
      <trkpt lat="43.582451026886702" lon="5.472445003688335">
        <ele>330.82999999999998</ele>
        <time>2025-05-17T13:29:55Z</time>
      </trkpt>
      <trkpt lat="43.582530990242958" lon="5.472749015316367">
        <ele>332.75</ele>
        <time>2025-05-17T13:30:05Z</time>
      </trkpt>
      <trkpt lat="43.58247097581625" lon="5.472929980605841">
        <ele>332.26999999999998</ele>
        <time>2025-05-17T13:30:09Z</time>
      </trkpt>
      <trkpt lat="43.582338960841298" lon="5.472833001986146">
        <ele>331.79000000000002</ele>
        <time>2025-05-17T13:30:16Z</time>
      </trkpt>
      <trkpt lat="43.582350024953485" lon="5.472817998379469">
        <ele>331.31</ele>
        <time>2025-05-17T13:30:36Z</time>
      </trkpt>
      <trkpt lat="43.582350024953485" lon="5.472817998379469">
        <ele>331.31</ele>
        <time>2025-05-17T13:30:56Z</time>
      </trkpt>
      <trkpt lat="43.582324041053653" lon="5.472815986722708">
        <ele>333.23000000000002</ele>
        <time>2025-05-17T13:30:57Z</time>
      </trkpt>
      <trkpt lat="43.582306019961834" lon="5.472755972296">
        <ele>331.79000000000002</ele>
        <time>2025-05-17T13:31:07Z</time>
      </trkpt>
      <trkpt lat="43.582311971113086" lon="5.472751026973128">
        <ele>331.31</ele>
        <time>2025-05-17T13:31:54Z</time>
      </trkpt>
      <trkpt lat="43.582310965284705" lon="5.472750021144748">
        <ele>331.31</ele>
        <time>2025-05-17T13:32:40Z</time>
      </trkpt>
      <trkpt lat="43.582312976941466" lon="5.472740968689323">
        <ele>330.82999999999998</ele>
        <time>2025-05-17T13:33:16Z</time>
      </trkpt>
      <trkpt lat="43.582396041601896" lon="5.472425976768136">
        <ele>356.31</ele>
        <time>2025-05-17T13:36:12Z</time>
      </trkpt>
      <trkpt lat="43.582337033003569" lon="5.472673997282982">
        <ele>340.44</ele>
        <time>2025-05-17T13:36:28Z</time>
      </trkpt>
      <trkpt lat="43.582367962226272" lon="5.472566038370132">
        <ele>337.56</ele>
        <time>2025-05-17T13:36:59Z</time>
      </trkpt>
      <trkpt lat="43.582356981933117" lon="5.47249797731638">
        <ele>321.69999999999999</ele>
        <time>2025-05-17T13:37:37Z</time>
      </trkpt>
      <trkpt lat="43.582413978874683" lon="5.472407033666968">
        <ele>327.47000000000003</ele>
        <time>2025-05-17T13:37:55Z</time>
      </trkpt>
      <trkpt lat="43.582387994974852" lon="5.472379960119724">
        <ele>327.47000000000003</ele>
        <time>2025-05-17T13:37:56Z</time>
      </trkpt>
      <trkpt lat="43.582354970276356" lon="5.472345007583499">
        <ele>327.47000000000003</ele>
        <time>2025-05-17T13:37:57Z</time>
      </trkpt>
      <trkpt lat="43.582324041053653" lon="5.472311982885003">
        <ele>327.47000000000003</ele>
        <time>2025-05-17T13:37:58Z</time>
      </trkpt>
      <trkpt lat="43.582174004986882" lon="5.472726970911026">
        <ele>327.94999999999999</ele>
        <time>2025-05-17T13:38:03Z</time>
      </trkpt>
      <trkpt lat="43.582193031907082" lon="5.472757983952761">
        <ele>328.43000000000001</ele>
        <time>2025-05-17T13:38:04Z</time>
      </trkpt>
      <trkpt lat="43.582421019673347" lon="5.473080016672611">
        <ele>329.87</ele>
        <time>2025-05-17T13:38:14Z</time>
      </trkpt>
      <trkpt lat="43.582421019673347" lon="5.473080016672611">
        <ele>330.82999999999998</ele>
        <time>2025-05-17T13:38:15Z</time>
      </trkpt>
      <trkpt lat="43.582456978037953" lon="5.47297197394073">
        <ele>331.31</ele>
        <time>2025-05-17T13:38:16Z</time>
      </trkpt>
      <trkpt lat="43.58247198164463" lon="5.472926963120699">
        <ele>331.79000000000002</ele>
        <time>2025-05-17T13:38:17Z</time>
      </trkpt>
      <trkpt lat="43.582485979422927" lon="5.472883963957429">
        <ele>331.79000000000002</ele>
        <time>2025-05-17T13:38:18Z</time>
      </trkpt>
      <trkpt lat="43.582515986636281" lon="5.472794026136398">
        <ele>331.79000000000002</ele>
        <time>2025-05-17T13:38:20Z</time>
      </trkpt>
      <trkpt lat="43.582552028819919" lon="5.472693024203181">
        <ele>331.79000000000002</ele>
        <time>2025-05-17T13:38:21Z</time>
      </trkpt>
      <trkpt lat="43.582595027983189" lon="5.472679026424885">
        <ele>331.79000000000002</ele>
        <time>2025-05-17T13:38:22Z</time>
      </trkpt>
      <trkpt lat="43.582692006602883" lon="5.472662011161447">
        <ele>331.79000000000002</ele>
        <time>2025-05-17T13:38:23Z</time>
      </trkpt>
      <trkpt lat="43.582740034908056" lon="5.472702998667955">
        <ele>331.31</ele>
        <time>2025-05-17T13:38:24Z</time>
      </trkpt>
      <trkpt lat="43.582790996879339" lon="5.472747003659606">
        <ele>331.31</ele>
        <time>2025-05-17T13:38:25Z</time>
      </trkpt>
      <trkpt lat="43.582828966900706" lon="5.472779022529721">
        <ele>331.31</ele>
        <time>2025-05-17T13:38:26Z</time>
      </trkpt>
      <trkpt lat="43.582884036004543" lon="5.472835013642907">
        <ele>331.79000000000002</ele>
        <time>2025-05-17T13:38:27Z</time>
      </trkpt>
      <trkpt lat="43.582926029339433" lon="5.472877006977797">
        <ele>331.79000000000002</ele>
        <time>2025-05-17T13:38:28Z</time>
      </trkpt>
      <trkpt lat="43.582969028502703" lon="5.472916988655925">
        <ele>332.26999999999998</ele>
        <time>2025-05-17T13:38:29Z</time>
      </trkpt>
      <trkpt lat="43.583488035947084" lon="5.47335796058178">
        <ele>333.70999999999998</ele>
        <time>2025-05-17T13:38:38Z</time>
      </trkpt>
      <trkpt lat="43.58358995988965" lon="5.473495004698634">
        <ele>334.19999999999999</ele>
        <time>2025-05-17T13:38:40Z</time>
      </trkpt>
      <trkpt lat="43.583730021491647" lon="5.473680999130011">
        <ele>334.68000000000001</ele>
        <time>2025-05-17T13:38:43Z</time>
      </trkpt>
      <trkpt lat="43.583859018981457" lon="5.473702037706971">
        <ele>335.16000000000003</ele>
        <time>2025-05-17T13:38:44Z</time>
      </trkpt>
      <trkpt lat="43.584620011970401" lon="5.474115014076233">
        <ele>333.70999999999998</ele>
        <time>2025-05-17T13:38:53Z</time>
      </trkpt>
      <trkpt lat="43.585576973855495" lon="5.474726976826787">
        <ele>336.60000000000002</ele>
        <time>2025-05-17T13:39:04Z</time>
      </trkpt>
      <trkpt lat="43.585917027667165" lon="5.474971979856491">
        <ele>336.12</ele>
        <time>2025-05-17T13:39:09Z</time>
      </trkpt>
      <trkpt lat="43.586754966527224" lon="5.475621996447444">
        <ele>338.04000000000002</ele>
        <time>2025-05-17T13:39:21Z</time>
      </trkpt>
      <trkpt lat="43.587050009518862" lon="5.475839003920555">
        <ele>338.51999999999998</ele>
        <time>2025-05-17T13:39:28Z</time>
      </trkpt>
      <trkpt lat="43.587113041430712" lon="5.475885020568967">
        <ele>338.51999999999998</ele>
        <time>2025-05-17T13:39:29Z</time>
      </trkpt>
      <trkpt lat="43.587654009461403" lon="5.476348958909512">
        <ele>339.48000000000002</ele>
        <time>2025-05-17T13:39:37Z</time>
      </trkpt>
      <trkpt lat="43.587973024696112" lon="5.476615000516176">
        <ele>340.44</ele>
        <time>2025-05-17T13:39:41Z</time>
      </trkpt>
      <trkpt lat="43.588033961132169" lon="5.476676020771265">
        <ele>340.92000000000002</ele>
        <time>2025-05-17T13:39:42Z</time>
      </trkpt>
      <trkpt lat="43.588122976943851" lon="5.47673000022769">
        <ele>340.92000000000002</ele>
        <time>2025-05-17T13:39:43Z</time>
      </trkpt>
      <trkpt lat="43.588209981098771" lon="5.476781968027353">
        <ele>341.88999999999999</ele>
        <time>2025-05-17T13:39:44Z</time>
      </trkpt>
      <trkpt lat="43.588301008567214" lon="5.476840976625681">
        <ele>342.37</ele>
        <time>2025-05-17T13:39:45Z</time>
      </trkpt>
      <trkpt lat="43.588397987186909" lon="5.47690199688077">
        <ele>343.32999999999998</ele>
        <time>2025-05-17T13:39:46Z</time>
      </trkpt>
      <trkpt lat="43.588494965806603" lon="5.476963017135859">
        <ele>344.29000000000002</ele>
        <time>2025-05-17T13:39:47Z</time>
      </trkpt>
      <trkpt lat="43.589241039007902" lon="5.477326037362218">
        <ele>350.54000000000002</ele>
        <time>2025-05-17T13:39:55Z</time>
      </trkpt>
      <trkpt lat="43.589546978473663" lon="5.477563999593258">
        <ele>351.5</ele>
        <time>2025-05-17T13:40:00Z</time>
      </trkpt>
      <trkpt lat="43.589610010385513" lon="5.477615967392921">
        <ele>351.5</ele>
        <time>2025-05-17T13:40:01Z</time>
      </trkpt>
      <trkpt lat="43.589676981791854" lon="5.477671036496759">
        <ele>351.98000000000002</ele>
        <time>2025-05-17T13:40:02Z</time>
      </trkpt>
      <trkpt lat="43.59016397036612" lon="5.478188032284379">
        <ele>350.54000000000002</ele>
        <time>2025-05-17T13:40:09Z</time>
      </trkpt>
      <trkpt lat="43.590564038604498" lon="5.478761019185185">
        <ele>350.06</ele>
        <time>2025-05-17T13:40:16Z</time>
      </trkpt>
      <trkpt lat="43.59061298891902" lon="5.478833019733429">
        <ele>349.57999999999998</ele>
        <time>2025-05-17T13:40:17Z</time>
      </trkpt>
      <trkpt lat="43.590669985860586" lon="5.47892002388835">
        <ele>349.10000000000002</ele>
        <time>2025-05-17T13:40:18Z</time>
      </trkpt>
      <trkpt lat="43.590734023600817" lon="5.479015996679664">
        <ele>349.10000000000002</ele>
        <time>2025-05-17T13:40:19Z</time>
      </trkpt>
      <trkpt lat="43.590802000835538" lon="5.479116998612881">
        <ele>348.62</ele>
        <time>2025-05-17T13:40:20Z</time>
      </trkpt>
      <trkpt lat="43.591624014079571" lon="5.480271019041538">
        <ele>345.25</ele>
        <time>2025-05-17T13:40:30Z</time>
      </trkpt>
      <trkpt lat="43.592914994806051" lon="5.481508020311594">
        <ele>351.5</ele>
        <time>2025-05-17T13:40:43Z</time>
      </trkpt>
      <trkpt lat="43.59334297478199" lon="5.481774983927608">
        <ele>353.42000000000002</ele>
        <time>2025-05-17T13:40:47Z</time>
      </trkpt>
      <trkpt lat="43.593495022505522" lon="5.481867017224431">
        <ele>354.38</ele>
        <time>2025-05-17T13:40:49Z</time>
      </trkpt>
      <trkpt lat="43.593627037480474" lon="5.481947986409068">
        <ele>355.33999999999997</ele>
        <time>2025-05-17T13:40:55Z</time>
      </trkpt>
      <trkpt lat="43.59364103525877" lon="5.481956033036113">
        <ele>355.33999999999997</ele>
        <time>2025-05-17T13:40:56Z</time>
      </trkpt>
      <trkpt lat="43.593657966703176" lon="5.481966007500887">
        <ele>355.33999999999997</ele>
        <time>2025-05-17T13:40:57Z</time>
      </trkpt>
      <trkpt lat="43.59379299916327" lon="5.482048988342285">
        <ele>356.31</ele>
        <time>2025-05-17T13:41:01Z</time>
      </trkpt>
      <trkpt lat="43.593834992498159" lon="5.482076983898878">
        <ele>356.79000000000002</ele>
        <time>2025-05-17T13:41:02Z</time>
      </trkpt>
      <trkpt lat="43.59379299916327" lon="5.482242023572326">
        <ele>356.79000000000002</ele>
        <time>2025-05-17T13:41:03Z</time>
      </trkpt>
      <trkpt lat="43.593829041346908" lon="5.48240102827549">
        <ele>356.79000000000002</ele>
        <time>2025-05-17T13:41:05Z</time>
      </trkpt>
      <trkpt lat="43.593873968347907" lon="5.482485014945269">
        <ele>356.79000000000002</ele>
        <time>2025-05-17T13:41:06Z</time>
      </trkpt>
      <trkpt lat="43.593958038836718" lon="5.482491971924901">
        <ele>357.26999999999998</ele>
        <time>2025-05-17T13:41:07Z</time>
      </trkpt>
      <trkpt lat="43.594021992757916" lon="5.482460036873817">
        <ele>356.79000000000002</ele>
        <time>2025-05-17T13:41:08Z</time>
      </trkpt>
      <trkpt lat="43.594072032719851" lon="5.482434974983335">
        <ele>356.31</ele>
        <time>2025-05-17T13:41:09Z</time>
      </trkpt>
      <trkpt lat="43.594072032719851" lon="5.482434974983335">
        <ele>355.82999999999998</ele>
        <time>2025-05-17T13:41:10Z</time>
      </trkpt>
      <trkpt lat="43.594212010502815" lon="5.482249986380339">
        <ele>355.82999999999998</ele>
        <time>2025-05-17T13:41:11Z</time>
      </trkpt>
      <trkpt lat="43.594284011051059" lon="5.482258033007383">
        <ele>355.33999999999997</ele>
        <time>2025-05-17T13:41:12Z</time>
      </trkpt>
      <trkpt lat="43.594370009377599" lon="5.482285022735596">
        <ele>355.82999999999998</ele>
        <time>2025-05-17T13:41:13Z</time>
      </trkpt>
      <trkpt lat="43.594445027410984" lon="5.482326010242105">
        <ele>356.31</ele>
        <time>2025-05-17T13:41:14Z</time>
      </trkpt>
      <trkpt lat="43.594514010474086" lon="5.482363980263472">
        <ele>356.31</ele>
        <time>2025-05-17T13:41:15Z</time>
      </trkpt>
      <trkpt lat="43.594642002135515" lon="5.482455007731915">
        <ele>357.26999999999998</ele>
        <time>2025-05-17T13:41:17Z</time>
      </trkpt>
      <trkpt lat="43.594705034047365" lon="5.482507981359959">
        <ele>357.26999999999998</ele>
        <time>2025-05-17T13:41:18Z</time>
      </trkpt>
      <trkpt lat="43.595309033989906" lon="5.483040986582637">
        <ele>358.23000000000002</ele>
        <time>2025-05-17T13:41:28Z</time>
      </trkpt>
      <trkpt lat="43.595559988170862" lon="5.483336029574275">
        <ele>358.70999999999998</ele>
        <time>2025-05-17T13:41:32Z</time>
      </trkpt>
      <trkpt lat="43.596345959231257" lon="5.484108002856374">
        <ele>361.11000000000001</ele>
        <time>2025-05-17T13:41:42Z</time>
      </trkpt>
      <trkpt lat="43.596425000578165" lon="5.484168017283082">
        <ele>361.58999999999997</ele>
        <time>2025-05-17T13:41:43Z</time>
      </trkpt>
      <trkpt lat="43.596501024439931" lon="5.484225014224649">
        <ele>362.06999999999999</ele>
        <time>2025-05-17T13:41:44Z</time>
      </trkpt>
      <trkpt lat="43.596570007503033" lon="5.484275976195931">
        <ele>362.06999999999999</ele>
        <time>2025-05-17T13:41:45Z</time>
      </trkpt>
      <trkpt lat="43.596637984737754" lon="5.484327021986246">
        <ele>362.55000000000001</ele>
        <time>2025-05-17T13:41:46Z</time>
      </trkpt>
      <trkpt lat="43.596920035779476" lon="5.484537994489074">
        <ele>363.51999999999998</ele>
        <time>2025-05-17T13:41:50Z</time>
      </trkpt>
      <trkpt lat="43.597135031595826" lon="5.484660034999251">
        <ele>363.51999999999998</ele>
        <time>2025-05-17T13:41:53Z</time>
      </trkpt>
      <trkpt lat="43.597195968031883" lon="5.484691970050335">
        <ele>364</ele>
        <time>2025-05-17T13:41:54Z</time>
      </trkpt>
      <trkpt lat="43.597254976630211" lon="5.48472398892045">
        <ele>364</ele>
        <time>2025-05-17T13:41:55Z</time>
      </trkpt>
      <trkpt lat="43.597356984391809" lon="5.484768999740481">
        <ele>364</ele>
        <time>2025-05-17T13:41:57Z</time>
      </trkpt>
      <trkpt lat="43.597420016303658" lon="5.484795989468694">
        <ele>364.48000000000002</ele>
        <time>2025-05-17T13:41:58Z</time>
      </trkpt>
      <trkpt lat="43.597420016303658" lon="5.484795989468694">
        <ele>364.48000000000002</ele>
        <time>2025-05-17T13:41:59Z</time>
      </trkpt>
      <trkpt lat="43.597464021295309" lon="5.484807975590229">
        <ele>364.48000000000002</ele>
        <time>2025-05-17T13:42:00Z</time>
      </trkpt>
      <trkpt lat="43.597496040165424" lon="5.484817028045654">
        <ele>364.48000000000002</ele>
        <time>2025-05-17T13:42:01Z</time>
      </trkpt>
      <trkpt lat="43.597522024065256" lon="5.484823985025287">
        <ele>364.95999999999998</ele>
        <time>2025-05-17T13:42:02Z</time>
      </trkpt>
      <trkpt lat="43.597548007965088" lon="5.484832031652331">
        <ele>364.95999999999998</ele>
        <time>2025-05-17T13:42:03Z</time>
      </trkpt>
      <trkpt lat="43.597572986036539" lon="5.484838988631964">
        <ele>364.95999999999998</ele>
        <time>2025-05-17T13:42:04Z</time>
      </trkpt>
      <trkpt lat="43.597611039876938" lon="5.484848963096738">
        <ele>365.44</ele>
        <time>2025-05-17T13:42:06Z</time>
      </trkpt>
      <trkpt lat="43.597625959664583" lon="5.48485298641026">
        <ele>365.44</ele>
        <time>2025-05-17T13:42:07Z</time>
      </trkpt>
      <trkpt lat="43.597653033211827" lon="5.484861033037305">
        <ele>365.92000000000002</ele>
        <time>2025-05-17T13:42:08Z</time>
      </trkpt>
      <trkpt lat="43.597743976861238" lon="5.484886011108756">
        <ele>366.39999999999998</ele>
        <time>2025-05-17T13:42:10Z</time>
      </trkpt>
      <trkpt lat="43.597985962405801" lon="5.484952982515097">
        <ele>367.36000000000001</ele>
        <time>2025-05-17T13:42:14Z</time>
      </trkpt>
      <trkpt lat="43.598561966791749" lon="5.485053984448314">
        <ele>368.80000000000001</ele>
        <time>2025-05-17T13:42:25Z</time>
      </trkpt>
      <trkpt lat="43.598707979544997" lon="5.485095977783203">
        <ele>368.80000000000001</ele>
        <time>2025-05-17T13:42:27Z</time>
      </trkpt>
      <trkpt lat="43.598964968696237" lon="5.485138976946473">
        <ele>369.75999999999999</ele>
        <time>2025-05-17T13:42:31Z</time>
      </trkpt>
      <trkpt lat="43.59901400282979" lon="5.485144006088376">
        <ele>369.75999999999999</ele>
        <time>2025-05-17T13:42:32Z</time>
      </trkpt>
      <trkpt lat="43.599146017804742" lon="5.485155992209911">
        <ele>370.24000000000001</ele>
        <time>2025-05-17T13:42:34Z</time>
      </trkpt>
      <trkpt lat="43.599209971725941" lon="5.485162027180195">
        <ele>370.73000000000002</ele>
        <time>2025-05-17T13:42:35Z</time>
      </trkpt>
      <trkpt lat="43.59933502972126" lon="5.48517401330173">
        <ele>370.73000000000002</ele>
        <time>2025-05-17T13:42:37Z</time>
      </trkpt>
      <trkpt lat="43.599414993077517" lon="5.485181976109743">
        <ele>370.73000000000002</ele>
        <time>2025-05-17T13:42:39Z</time>
      </trkpt>
      <trkpt lat="43.59950702637434" lon="5.48528197221458">
        <ele>371.20999999999998</ele>
        <time>2025-05-17T13:42:40Z</time>
      </trkpt>
      <trkpt lat="43.599563017487526" lon="5.485341986641288">
        <ele>370.73000000000002</ele>
        <time>2025-05-17T13:42:41Z</time>
      </trkpt>
      <trkpt lat="43.599612973630428" lon="5.485397977754474">
        <ele>371.20999999999998</ele>
        <time>2025-05-17T13:42:42Z</time>
      </trkpt>
      <trkpt lat="43.599651027470827" lon="5.485438965260983">
        <ele>371.69</ele>
        <time>2025-05-17T13:42:43Z</time>
      </trkpt>
      <trkpt lat="43.599697966128588" lon="5.485533010214567">
        <ele>371.20999999999998</ele>
        <time>2025-05-17T13:42:44Z</time>
      </trkpt>
      <trkpt lat="43.599743982776999" lon="5.485612973570824">
        <ele>371.20999999999998</ele>
        <time>2025-05-17T13:42:45Z</time>
      </trkpt>
      <trkpt lat="43.599794022738934" lon="5.485694026574493">
        <ele>371.20999999999998</ele>
        <time>2025-05-17T13:42:46Z</time>
      </trkpt>
      <trkpt lat="43.600326022133231" lon="5.486541017889977">
        <ele>372.64999999999998</ele>
        <time>2025-05-17T13:42:56Z</time>
      </trkpt>
      <trkpt lat="43.600573036819696" lon="5.486928010359407">
        <ele>373.13</ele>
        <time>2025-05-17T13:43:01Z</time>
      </trkpt>
      <trkpt lat="43.600760959088802" lon="5.487250965088606">
        <ele>372.17000000000002</ele>
        <time>2025-05-17T13:43:05Z</time>
      </trkpt>
      <trkpt lat="43.600798007100821" lon="5.48732397146523">
        <ele>371.69</ele>
        <time>2025-05-17T13:43:06Z</time>
      </trkpt>
      <trkpt lat="43.600809993222356" lon="5.487349033355713">
        <ele>371.20999999999998</ele>
        <time>2025-05-17T13:43:07Z</time>
      </trkpt>
      <trkpt lat="43.600790966302156" lon="5.487566962838173">
        <ele>370.73000000000002</ele>
        <time>2025-05-17T13:43:08Z</time>
      </trkpt>
      <trkpt lat="43.600832037627697" lon="5.487627983093262">
        <ele>370.24000000000001</ele>
        <time>2025-05-17T13:43:09Z</time>
      </trkpt>
      <trkpt lat="43.600914012640715" lon="5.487600993365049">
        <ele>370.24000000000001</ele>
        <time>2025-05-17T13:43:10Z</time>
      </trkpt>
      <trkpt lat="43.601021971553564" lon="5.487677017226815">
        <ele>370.24000000000001</ele>
        <time>2025-05-17T13:43:11Z</time>
      </trkpt>
      <trkpt lat="43.601081985980272" lon="5.487767960876226">
        <ele>369.75999999999999</ele>
        <time>2025-05-17T13:43:12Z</time>
      </trkpt>
      <trkpt lat="43.601130014285445" lon="5.487900981679559">
        <ele>369.75999999999999</ele>
        <time>2025-05-17T13:43:13Z</time>
      </trkpt>
      <trkpt lat="43.601176030933857" lon="5.488039031624794">
        <ele>369.75999999999999</ele>
        <time>2025-05-17T13:43:14Z</time>
      </trkpt>
      <trkpt lat="43.601207965984941" lon="5.488189989700913">
        <ele>370.24000000000001</ele>
        <time>2025-05-17T13:43:15Z</time>
      </trkpt>
      <trkpt lat="43.601229004561901" lon="5.488347988575697">
        <ele>370.24000000000001</ele>
        <time>2025-05-17T13:43:16Z</time>
      </trkpt>
      <trkpt lat="43.601229004561901" lon="5.488517973572016">
        <ele>370.24000000000001</ele>
        <time>2025-05-17T13:43:17Z</time>
      </trkpt>
      <trkpt lat="43.601210983470082" lon="5.488679995760322">
        <ele>369.75999999999999</ele>
        <time>2025-05-17T13:43:18Z</time>
      </trkpt>
      <trkpt lat="43.601192040368915" lon="5.488844029605389">
        <ele>369.27999999999997</ele>
        <time>2025-05-17T13:43:19Z</time>
      </trkpt>
      <trkpt lat="43.601175025105476" lon="5.48899901099503">
        <ele>368.80000000000001</ele>
        <time>2025-05-17T13:43:20Z</time>
      </trkpt>
      <trkpt lat="43.601110987365246" lon="5.489130020141602">
        <ele>368.31999999999999</ele>
        <time>2025-05-17T13:43:21Z</time>
      </trkpt>
      <trkpt lat="43.601045021787286" lon="5.489261029288173">
        <ele>367.83999999999997</ele>
        <time>2025-05-17T13:43:22Z</time>
      </trkpt>
      <trkpt lat="43.600963968783617" lon="5.489376028999686">
        <ele>367.36000000000001</ele>
        <time>2025-05-17T13:43:23Z</time>
      </trkpt>
      <trkpt lat="43.600722989067435" lon="5.489755980670452">
        <ele>365.44</ele>
        <time>2025-05-17T13:43:26Z</time>
      </trkpt>
      <trkpt lat="43.600673032924533" lon="5.489907022565603">
        <ele>364.48000000000002</ele>
        <time>2025-05-17T13:43:27Z</time>
      </trkpt>
      <trkpt lat="43.600632967427373" lon="5.490059992298484">
        <ele>364</ele>
        <time>2025-05-17T13:43:28Z</time>
      </trkpt>
      <trkpt lat="43.600613018497825" lon="5.490235006436706">
        <ele>363.51999999999998</ele>
        <time>2025-05-17T13:43:29Z</time>
      </trkpt>
      <trkpt lat="43.600591979920864" lon="5.490428041666746">
        <ele>362.55000000000001</ele>
        <time>2025-05-17T13:43:30Z</time>
      </trkpt>
      <trkpt lat="43.600473962724209" lon="5.491603016853333">
        <ele>357.75</ele>
        <time>2025-05-17T13:43:35Z</time>
      </trkpt>
      <trkpt lat="43.60051603987813" lon="5.491861011832953">
        <ele>356.31</ele>
        <time>2025-05-17T13:43:36Z</time>
      </trkpt>
      <trkpt lat="43.600564990192652" lon="5.492120012640953">
        <ele>354.86000000000001</ele>
        <time>2025-05-17T13:43:37Z</time>
      </trkpt>
      <trkpt lat="43.600660962983966" lon="5.492340037599206">
        <ele>353.89999999999998</ele>
        <time>2025-05-17T13:43:38Z</time>
      </trkpt>
      <trkpt lat="43.600777974352241" lon="5.49254103563726">
        <ele>352.94</ele>
        <time>2025-05-17T13:43:39Z</time>
      </trkpt>
      <trkpt lat="43.600914012640715" lon="5.492734992876649">
        <ele>351.5</ele>
        <time>2025-05-17T13:43:40Z</time>
      </trkpt>
      <trkpt lat="43.602512022480369" lon="5.49501596018672">
        <ele>337.56</ele>
        <time>2025-05-17T13:43:51Z</time>
      </trkpt>
      <trkpt lat="43.602662980556488" lon="5.49520798958838">
        <ele>336.60000000000002</ele>
        <time>2025-05-17T13:43:52Z</time>
      </trkpt>
      <trkpt lat="43.602833971381187" lon="5.495373029261828">
        <ele>335.63999999999999</ele>
        <time>2025-05-17T13:43:53Z</time>
      </trkpt>
      <trkpt lat="43.603176958858967" lon="5.495704030618072">
        <ele>334.19999999999999</ele>
        <time>2025-05-17T13:43:55Z</time>
      </trkpt>
      <trkpt lat="43.60333202406764" lon="5.495878960937262">
        <ele>333.23000000000002</ele>
        <time>2025-05-17T13:43:56Z</time>
      </trkpt>
      <trkpt lat="43.603613991290331" lon="5.496188001707196">
        <ele>332.26999999999998</ele>
        <time>2025-05-17T13:43:58Z</time>
      </trkpt>
      <trkpt lat="43.603752041235566" lon="5.496251033619046">
        <ele>331.79000000000002</ele>
        <time>2025-05-17T13:43:59Z</time>
      </trkpt>
      <trkpt lat="43.603898975998163" lon="5.49624097533524">
        <ele>330.82999999999998</ele>
        <time>2025-05-17T13:44:00Z</time>
      </trkpt>
      <trkpt lat="43.60404297709465" lon="5.496223960071802">
        <ele>330.35000000000002</ele>
        <time>2025-05-17T13:44:01Z</time>
      </trkpt>
      <trkpt lat="43.604194018989801" lon="5.496128993108869">
        <ele>329.87</ele>
        <time>2025-05-17T13:44:02Z</time>
      </trkpt>
      <trkpt lat="43.604337014257908" lon="5.495988009497523">
        <ele>329.38999999999999</ele>
        <time>2025-05-17T13:44:03Z</time>
      </trkpt>
      <trkpt lat="43.604480009526014" lon="5.495834033936262">
        <ele>329.38999999999999</ele>
        <time>2025-05-17T13:44:04Z</time>
      </trkpt>
      <trkpt lat="43.604619987308979" lon="5.49565801396966">
        <ele>329.38999999999999</ele>
        <time>2025-05-17T13:44:05Z</time>
      </trkpt>
      <trkpt lat="43.605285007506609" lon="5.494818985462189">
        <ele>328.43000000000001</ele>
        <time>2025-05-17T13:44:10Z</time>
      </trkpt>
      <trkpt lat="43.605400007218122" lon="5.494672972708941">
        <ele>328.43000000000001</ele>
        <time>2025-05-17T13:44:11Z</time>
      </trkpt>
      <trkpt lat="43.605931000784039" lon="5.494066039100289">
        <ele>326.99000000000001</ele>
        <time>2025-05-17T13:44:16Z</time>
      </trkpt>
      <trkpt lat="43.606047006323934" lon="5.493991021066904">
        <ele>326.99000000000001</ele>
        <time>2025-05-17T13:44:17Z</time>
      </trkpt>
      <trkpt lat="43.606308018788695" lon="5.493917008861899">
        <ele>326.5</ele>
        <time>2025-05-17T13:44:19Z</time>
      </trkpt>
      <trkpt lat="43.606449002400041" lon="5.493942992761731">
        <ele>326.5</ele>
        <time>2025-05-17T13:44:20Z</time>
      </trkpt>
      <trkpt lat="43.606582023203373" lon="5.494006024673581">
        <ele>326.5</ele>
        <time>2025-05-17T13:44:21Z</time>
      </trkpt>
      <trkpt lat="43.606712026521564" lon="5.494095040485263">
        <ele>326.5</ele>
        <time>2025-05-17T13:44:22Z</time>
      </trkpt>
      <trkpt lat="43.606832977384329" lon="5.494175003841519">
        <ele>326.01999999999998</ele>
        <time>2025-05-17T13:44:23Z</time>
      </trkpt>
      <trkpt lat="43.606930961832404" lon="5.494298972189426">
        <ele>325.54000000000002</ele>
        <time>2025-05-17T13:44:24Z</time>
      </trkpt>
      <trkpt lat="43.607017965987325" lon="5.494417995214462">
        <ele>325.54000000000002</ele>
        <time>2025-05-17T13:44:25Z</time>
      </trkpt>
      <trkpt lat="43.607011009007692" lon="5.494730975478888">
        <ele>325.54000000000002</ele>
        <time>2025-05-17T13:44:26Z</time>
      </trkpt>
      <trkpt lat="43.607022995129228" lon="5.494754025712609">
        <ele>325.06</ele>
        <time>2025-05-17T13:44:27Z</time>
      </trkpt>
      <trkpt lat="43.607067000120878" lon="5.49484102986753">
        <ele>325.06</ele>
        <time>2025-05-17T13:44:28Z</time>
      </trkpt>
      <trkpt lat="43.607159033417702" lon="5.494875982403755">
        <ele>324.57999999999998</ele>
        <time>2025-05-17T13:44:29Z</time>
      </trkpt>
      <trkpt lat="43.607183005660772" lon="5.494881011545658">
        <ele>323.62</ele>
        <time>2025-05-17T13:44:30Z</time>
      </trkpt>
      <trkpt lat="43.607361037284136" lon="5.494779003784061">
        <ele>323.13999999999999</ele>
        <time>2025-05-17T13:44:31Z</time>
      </trkpt>
      <trkpt lat="43.607456004247069" lon="5.494831977412105">
        <ele>323.13999999999999</ele>
        <time>2025-05-17T13:44:32Z</time>
      </trkpt>
      <trkpt lat="43.607569998130202" lon="5.494901966303587">
        <ele>322.66000000000003</ele>
        <time>2025-05-17T13:44:33Z</time>
      </trkpt>
      <trkpt lat="43.607691032811999" lon="5.494983019307256">
        <ele>322.18000000000001</ele>
        <time>2025-05-17T13:44:34Z</time>
      </trkpt>
      <trkpt lat="43.607811983674765" lon="5.495098019018769">
        <ele>321.69999999999999</ele>
        <time>2025-05-17T13:44:35Z</time>
      </trkpt>
      <trkpt lat="43.607941986992955" lon="5.495223999023438">
        <ele>321.22000000000003</ele>
        <time>2025-05-17T13:44:36Z</time>
      </trkpt>
      <trkpt lat="43.609254006296396" lon="5.496787978336215">
        <ele>314.00999999999999</ele>
        <time>2025-05-17T13:44:46Z</time>
      </trkpt>
      <trkpt lat="43.609867980703712" lon="5.497589036822319">
        <ele>310.63999999999999</ele>
        <time>2025-05-17T13:44:51Z</time>
      </trkpt>
      <trkpt lat="43.609968982636929" lon="5.497748041525483">
        <ele>310.16000000000003</ele>
        <time>2025-05-17T13:44:52Z</time>
      </trkpt>
      <trkpt lat="43.610152965411544" lon="5.498035959899426">
        <ele>310.16000000000003</ele>
        <time>2025-05-17T13:44:54Z</time>
      </trkpt>
      <trkpt lat="43.610195964574814" lon="5.498184990137816">
        <ele>310.63999999999999</ele>
        <time>2025-05-17T13:44:55Z</time>
      </trkpt>
      <trkpt lat="43.610224965959787" lon="5.498309964314103">
        <ele>310.63999999999999</ele>
        <time>2025-05-17T13:44:56Z</time>
      </trkpt>
      <trkpt lat="43.610251033678651" lon="5.498421024531126">
        <ele>310.63999999999999</ele>
        <time>2025-05-17T13:44:57Z</time>
      </trkpt>
      <trkpt lat="43.610240975394845" lon="5.498609030619264">
        <ele>310.63999999999999</ele>
        <time>2025-05-17T13:44:58Z</time>
      </trkpt>
      <trkpt lat="43.610300989821553" lon="5.498692011460662">
        <ele>310.63999999999999</ele>
        <time>2025-05-17T13:44:59Z</time>
      </trkpt>
      <trkpt lat="43.61038195900619" lon="5.498736016452313">
        <ele>310.63999999999999</ele>
        <time>2025-05-17T13:45:00Z</time>
      </trkpt>
      <trkpt lat="43.610454965382814" lon="5.498724030330777">
        <ele>310.63999999999999</ele>
        <time>2025-05-17T13:45:01Z</time>
      </trkpt>
      <trkpt lat="43.61055001616478" lon="5.498744985088706">
        <ele>310.16000000000003</ele>
        <time>2025-05-17T13:45:02Z</time>
      </trkpt>
      <trkpt lat="43.610650012269616" lon="5.49877398647368">
        <ele>310.16000000000003</ele>
        <time>2025-05-17T13:45:03Z</time>
      </trkpt>
      <trkpt lat="43.610767023637891" lon="5.498808017000556">
        <ele>309.68000000000001</ele>
        <time>2025-05-17T13:45:04Z</time>
      </trkpt>
      <trkpt lat="43.610872970893979" lon="5.498887980356813">
        <ele>309.68000000000001</ele>
        <time>2025-05-17T13:45:05Z</time>
      </trkpt>
      <trkpt lat="43.610985036939383" lon="5.498972972854972">
        <ele>309.68000000000001</ele>
        <time>2025-05-17T13:45:06Z</time>
      </trkpt>
      <trkpt lat="43.611911991611123" lon="5.499793980270624">
        <ele>312.56999999999999</ele>
        <time>2025-05-17T13:45:13Z</time>
      </trkpt>
      <trkpt lat="43.613013038411736" lon="5.500999968498945">
        <ele>316.88999999999999</ele>
        <time>2025-05-17T13:45:19Z</time>
      </trkpt>
      <trkpt lat="43.614745996892452" lon="5.502882041037083">
        <ele>326.99000000000001</ele>
        <time>2025-05-17T13:45:29Z</time>
      </trkpt>
      <trkpt lat="43.616564031690359" lon="5.504794958978891">
        <ele>336.60000000000002</ele>
        <time>2025-05-17T13:45:40Z</time>
      </trkpt>
      <trkpt lat="43.617821987718344" lon="5.505622001364827">
        <ele>340.44</ele>
        <time>2025-05-17T13:45:47Z</time>
      </trkpt>
      <trkpt lat="43.619989966973662" lon="5.506333960220218">
        <ele>340.44</ele>
        <time>2025-05-17T13:45:58Z</time>
      </trkpt>
      <trkpt lat="43.621835997328162" lon="5.507207019254565">
        <ele>334.19999999999999</ele>
        <time>2025-05-17T13:46:08Z</time>
      </trkpt>
      <trkpt lat="43.623502990230918" lon="5.508635966107249">
        <ele>329.38999999999999</ele>
        <time>2025-05-17T13:46:18Z</time>
      </trkpt>
      <trkpt lat="43.625037968158722" lon="5.509266033768654">
        <ele>326.01999999999998</ele>
        <time>2025-05-17T13:46:26Z</time>
      </trkpt>
      <trkpt lat="43.627614984288812" lon="5.509933987632394">
        <ele>314.49000000000001</ele>
        <time>2025-05-17T13:46:39Z</time>
      </trkpt>
      <trkpt lat="43.629053989425302" lon="5.51059297285974">
        <ele>308.24000000000001</ele>
        <time>2025-05-17T13:46:47Z</time>
      </trkpt>
      <trkpt lat="43.630136009305716" lon="5.511711034923792">
        <ele>305.83999999999997</ele>
        <time>2025-05-17T13:46:54Z</time>
      </trkpt>
      <trkpt lat="43.631619019433856" lon="5.514045981690288">
        <ele>300.55000000000001</ele>
        <time>2025-05-17T13:47:06Z</time>
      </trkpt>
      <trkpt lat="43.63171499222517" lon="5.51426500082016">
        <ele>299.58999999999997</ele>
        <time>2025-05-17T13:47:07Z</time>
      </trkpt>
      <trkpt lat="43.6322729755193" lon="5.515932999551296">
        <ele>292.86000000000001</ele>
        <time>2025-05-17T13:47:14Z</time>
      </trkpt>
      <trkpt lat="43.632391998544335" lon="5.516131985932589">
        <ele>291.89999999999998</ele>
        <time>2025-05-17T13:47:15Z</time>
      </trkpt>
      <trkpt lat="43.632508004084229" lon="5.516322003677487">
        <ele>290.94</ele>
        <time>2025-05-17T13:47:16Z</time>
      </trkpt>
      <trkpt lat="43.632645970210433" lon="5.516451001167297">
        <ele>289.49000000000001</ele>
        <time>2025-05-17T13:47:17Z</time>
      </trkpt>
      <trkpt lat="43.63276700489223" lon="5.516562983393669">
        <ele>288.52999999999997</ele>
        <time>2025-05-17T13:47:18Z</time>
      </trkpt>
      <trkpt lat="43.632869012653828" lon="5.516641018912196">
        <ele>287.56999999999999</ele>
        <time>2025-05-17T13:47:19Z</time>
      </trkpt>
      <trkpt lat="43.63295903429389" lon="5.516689969226718">
        <ele>287.08999999999997</ele>
        <time>2025-05-17T13:47:20Z</time>
      </trkpt>
      <trkpt lat="43.633026005700231" lon="5.516726011410356">
        <ele>286.61000000000001</ele>
        <time>2025-05-17T13:47:21Z</time>
      </trkpt>
      <trkpt lat="43.633078979328275" lon="5.516755012795329">
        <ele>286.13</ele>
        <time>2025-05-17T13:47:22Z</time>
      </trkpt>
      <trkpt lat="43.633129019290209" lon="5.516782002523542">
        <ele>285.64999999999998</ele>
        <time>2025-05-17T13:47:23Z</time>
      </trkpt>
      <trkpt lat="43.633424984291196" lon="5.516904965043068">
        <ele>281.31999999999999</ele>
        <time>2025-05-17T13:47:31Z</time>
      </trkpt>
      <trkpt lat="43.633471000939608" lon="5.51690898835659">
        <ele>280.83999999999997</ele>
        <time>2025-05-17T13:47:32Z</time>
      </trkpt>
      <trkpt lat="43.634096961468458" lon="5.51690798252821">
        <ele>277</ele>
        <time>2025-05-17T13:47:45Z</time>
      </trkpt>
      <trkpt lat="43.634281028062105" lon="5.516890967264772">
        <ele>275.06999999999999</ele>
        <time>2025-05-17T13:47:52Z</time>
      </trkpt>
      <trkpt lat="43.634719988331199" lon="5.516847968101502">
        <ele>274.11000000000001</ele>
        <time>2025-05-17T13:48:01Z</time>
      </trkpt>
      <trkpt lat="43.634928027167916" lon="5.516981994733214">
        <ele>273.63</ele>
        <time>2025-05-17T13:48:03Z</time>
      </trkpt>
      <trkpt lat="43.634959040209651" lon="5.516988029703498">
        <ele>273.63</ele>
        <time>2025-05-17T13:48:04Z</time>
      </trkpt>
      <trkpt lat="43.6350669991225" lon="5.516978977248073">
        <ele>273.14999999999998</ele>
        <time>2025-05-17T13:48:05Z</time>
      </trkpt>
      <trkpt lat="43.635136988013983" lon="5.516927009448409">
        <ele>272.67000000000002</ele>
        <time>2025-05-17T13:48:06Z</time>
      </trkpt>
      <trkpt lat="43.635218041017652" lon="5.516870012506843">
        <ele>272.19</ele>
        <time>2025-05-17T13:48:07Z</time>
      </trkpt>
      <trkpt lat="43.635291969403625" lon="5.516829025000334">
        <ele>271.23000000000002</ele>
        <time>2025-05-17T13:48:08Z</time>
      </trkpt>
      <trkpt lat="43.635379979386926" lon="5.516816033050418">
        <ele>270.75</ele>
        <time>2025-05-17T13:48:09Z</time>
      </trkpt>
      <trkpt lat="43.635833021253347" lon="5.516749983653426">
        <ele>269.79000000000002</ele>
        <time>2025-05-17T13:48:13Z</time>
      </trkpt>
      <trkpt lat="43.63596897572279" lon="5.516730034723878">
        <ele>269.31</ele>
        <time>2025-05-17T13:48:14Z</time>
      </trkpt>
      <trkpt lat="43.637169012799859" lon="5.516849979758263">
        <ele>265.45999999999998</ele>
        <time>2025-05-17T13:48:21Z</time>
      </trkpt>
      <trkpt lat="43.638318004086614" lon="5.517539978027344">
        <ele>262.10000000000002</ele>
        <time>2025-05-17T13:48:28Z</time>
      </trkpt>
      <trkpt lat="43.639260968193412" lon="5.518749989569187">
        <ele>258.25</ele>
        <time>2025-05-17T13:48:35Z</time>
      </trkpt>
      <trkpt lat="43.639888018369675" lon="5.520296031609178">
        <ele>255.37</ele>
        <time>2025-05-17T13:48:42Z</time>
      </trkpt>
      <trkpt lat="43.640133021399379" lon="5.522013986483216">
        <ele>249.59999999999999</ele>
        <time>2025-05-17T13:48:50Z</time>
      </trkpt>
      <trkpt lat="43.640294959768653" lon="5.523855993524194">
        <ele>242.87</ele>
        <time>2025-05-17T13:48:59Z</time>
      </trkpt>
      <trkpt lat="43.640308035537601" lon="5.523974010720849">
        <ele>242.38999999999999</ele>
        <time>2025-05-17T13:49:00Z</time>
      </trkpt>
      <trkpt lat="43.640317004173994" lon="5.524059003219008">
        <ele>241.43000000000001</ele>
        <time>2025-05-17T13:49:01Z</time>
      </trkpt>
      <trkpt lat="43.640324966982007" lon="5.524132009595633">
        <ele>240.47</ele>
        <time>2025-05-17T13:49:02Z</time>
      </trkpt>
      <trkpt lat="43.640332007780671" lon="5.524194035679102">
        <ele>239.99000000000001</ele>
        <time>2025-05-17T13:49:03Z</time>
      </trkpt>
      <trkpt lat="43.640404008328915" lon="5.524851009249687">
        <ele>233.74000000000001</ele>
        <time>2025-05-17T13:49:14Z</time>
      </trkpt>
      <trkpt lat="43.640413982793689" lon="5.524948993697763">
        <ele>233.74000000000001</ele>
        <time>2025-05-17T13:49:15Z</time>
      </trkpt>
      <trkpt lat="43.640421023592353" lon="5.525047983974218">
        <ele>233.25999999999999</ele>
        <time>2025-05-17T13:49:16Z</time>
      </trkpt>
      <trkpt lat="43.640421023592353" lon="5.525141023099423">
        <ele>232.78</ele>
        <time>2025-05-17T13:49:17Z</time>
      </trkpt>
      <trkpt lat="43.640421023592353" lon="5.525231966748834">
        <ele>232.30000000000001</ele>
        <time>2025-05-17T13:49:18Z</time>
      </trkpt>
      <trkpt lat="43.640421023592353" lon="5.52532802335918">
        <ele>231.81</ele>
        <time>2025-05-17T13:49:19Z</time>
      </trkpt>
      <trkpt lat="43.640421023592353" lon="5.525428019464016">
        <ele>231.33000000000001</ele>
        <time>2025-05-17T13:49:20Z</time>
      </trkpt>
      <trkpt lat="43.640340976417065" lon="5.525633040815592">
        <ele>230.84999999999999</ele>
        <time>2025-05-17T13:49:22Z</time>
      </trkpt>
      <trkpt lat="43.640360003337264" lon="5.525719961151481">
        <ele>230.37</ele>
        <time>2025-05-17T13:49:23Z</time>
      </trkpt>
      <trkpt lat="43.640409959480166" lon="5.525811994448304">
        <ele>230.37</ele>
        <time>2025-05-17T13:49:24Z</time>
      </trkpt>
      <trkpt lat="43.640468968078494" lon="5.525831021368504">
        <ele>229.88999999999999</ele>
        <time>2025-05-17T13:49:25Z</time>
      </trkpt>
      <trkpt lat="43.640579022467136" lon="5.525901010259986">
        <ele>229.88999999999999</ele>
        <time>2025-05-17T13:49:26Z</time>
      </trkpt>
      <trkpt lat="43.640601988881826" lon="5.526003018021584">
        <ele>229.88999999999999</ele>
        <time>2025-05-17T13:49:27Z</time>
      </trkpt>
      <trkpt lat="43.640625961124897" lon="5.526122963055968">
        <ele>229.41</ele>
        <time>2025-05-17T13:49:28Z</time>
      </trkpt>
      <trkpt lat="43.64065202884376" lon="5.526261013001204">
        <ele>229.88999999999999</ele>
        <time>2025-05-17T13:49:29Z</time>
      </trkpt>
      <trkpt lat="43.640967020764947" lon="5.527996988967061">
        <ele>233.74000000000001</ele>
        <time>2025-05-17T13:49:40Z</time>
      </trkpt>
      <trkpt lat="43.641352001577616" lon="5.530132027342916">
        <ele>227.97</ele>
        <time>2025-05-17T13:49:51Z</time>
      </trkpt>
      <trkpt lat="43.641655007377267" lon="5.531756021082401">
        <ele>221.24000000000001</ele>
        <time>2025-05-17T13:50:00Z</time>
      </trkpt>
      <trkpt lat="43.641741005703807" lon="5.532244015485048">
        <ele>219.31999999999999</ele>
        <time>2025-05-17T13:50:03Z</time>
      </trkpt>
      <trkpt lat="43.641884000971913" lon="5.533053958788514">
        <ele>214.99000000000001</ele>
        <time>2025-05-17T13:50:08Z</time>
      </trkpt>
      <trkpt lat="43.641914008185267" lon="5.533212963491678">
        <ele>214.50999999999999</ele>
        <time>2025-05-17T13:50:09Z</time>
      </trkpt>
      <trkpt lat="43.641971005126834" lon="5.533507000654936">
        <ele>213.55000000000001</ele>
        <time>2025-05-17T13:50:11Z</time>
      </trkpt>
      <trkpt lat="43.641996989026666" lon="5.533634992316365">
        <ele>213.06999999999999</ele>
        <time>2025-05-17T13:50:12Z</time>
      </trkpt>
      <trkpt lat="43.642119029536843" lon="5.534230023622513">
        <ele>213.55000000000001</ele>
        <time>2025-05-17T13:50:18Z</time>
      </trkpt>
      <trkpt lat="43.64213596098125" lon="5.534311998635531">
        <ele>214.03</ele>
        <time>2025-05-17T13:50:19Z</time>
      </trkpt>
      <trkpt lat="43.642116012051702" lon="5.534598995000124">
        <ele>214.50999999999999</ele>
        <time>2025-05-17T13:50:22Z</time>
      </trkpt>
      <trkpt lat="43.642137972638011" lon="5.534641994163394">
        <ele>214.50999999999999</ele>
        <time>2025-05-17T13:50:23Z</time>
      </trkpt>
      <trkpt lat="43.642226988449693" lon="5.534852966666222">
        <ele>214.50999999999999</ele>
        <time>2025-05-17T13:50:25Z</time>
      </trkpt>
      <trkpt lat="43.642239980399609" lon="5.534965032711625">
        <ele>214.50999999999999</ele>
        <time>2025-05-17T13:50:26Z</time>
      </trkpt>
      <trkpt lat="43.642443995922804" lon="5.536078987643123">
        <ele>215.94999999999999</ele>
        <time>2025-05-17T13:50:34Z</time>
      </trkpt>
      <trkpt lat="43.642604006454349" lon="5.536941988393664">
        <ele>216.43000000000001</ele>
        <time>2025-05-17T13:50:39Z</time>
      </trkpt>
      <trkpt lat="43.64275798201561" lon="5.537851005792618">
        <ele>217.40000000000001</ele>
        <time>2025-05-17T13:50:44Z</time>
      </trkpt>
      <trkpt lat="43.642786983400583" lon="5.538037000223994">
        <ele>217.88</ele>
        <time>2025-05-17T13:50:45Z</time>
      </trkpt>
      <trkpt lat="43.642985969781876" lon="5.53901500068605">
        <ele>216.91</ele>
        <time>2025-05-17T13:50:52Z</time>
      </trkpt>
      <trkpt lat="43.643013965338469" lon="5.539177022874355">
        <ele>214.99000000000001</ele>
        <time>2025-05-17T13:50:57Z</time>
      </trkpt>
      <trkpt lat="43.643066016957164" lon="5.539497965946794">
        <ele>213.55000000000001</ele>
        <time>2025-05-17T13:51:13Z</time>
      </trkpt>
      <trkpt lat="43.643107004463673" lon="5.539764007553458">
        <ele>212.59</ele>
        <time>2025-05-17T13:51:16Z</time>
      </trkpt>
      <trkpt lat="43.643125025555491" lon="5.539876995608211">
        <ele>212.59</ele>
        <time>2025-05-17T13:51:17Z</time>
      </trkpt>
      <trkpt lat="43.643143968656659" lon="5.54024001583457">
        <ele>212.59</ele>
        <time>2025-05-17T13:51:20Z</time>
      </trkpt>
      <trkpt lat="43.643124019727111" lon="5.541485985741019">
        <ele>215.47</ele>
        <time>2025-05-17T13:51:29Z</time>
      </trkpt>
      <trkpt lat="43.643111027777195" lon="5.542145976796746">
        <ele>217.40000000000001</ele>
        <time>2025-05-17T13:51:34Z</time>
      </trkpt>
      <trkpt lat="43.643108010292053" lon="5.542299030348659">
        <ele>217.88</ele>
        <time>2025-05-17T13:51:35Z</time>
      </trkpt>
      <trkpt lat="43.643099963665009" lon="5.543880024924874">
        <ele>220.75999999999999</ele>
        <time>2025-05-17T13:51:44Z</time>
      </trkpt>
      <trkpt lat="43.643253017216921" lon="5.545208975672722">
        <ele>221.24000000000001</ele>
        <time>2025-05-17T13:51:52Z</time>
      </trkpt>
      <trkpt lat="43.643271960318089" lon="5.545376027002931">
        <ele>221.72</ele>
        <time>2025-05-17T13:51:53Z</time>
      </trkpt>
      <trkpt lat="43.643476981669664" lon="5.547275030985475">
        <ele>221.72</ele>
        <time>2025-05-17T13:52:03Z</time>
      </trkpt>
      <trkpt lat="43.643676973879337" lon="5.549140004441142">
        <ele>217.40000000000001</ele>
        <time>2025-05-17T13:52:13Z</time>
      </trkpt>
      <trkpt lat="43.643738999962807" lon="5.549726989120245">
        <ele>216.91</ele>
        <time>2025-05-17T13:52:16Z</time>
      </trkpt>
      <trkpt lat="43.64396296441555" lon="5.551817016676068">
        <ele>217.40000000000001</ele>
        <time>2025-05-17T13:52:26Z</time>
      </trkpt>
      <trkpt lat="43.64421802572906" lon="5.554200997576118">
        <ele>218.36000000000001</ele>
        <time>2025-05-17T13:52:36Z</time>
      </trkpt>
      <trkpt lat="43.644468979910016" lon="5.55659000761807">
        <ele>219.80000000000001</ele>
        <time>2025-05-17T13:52:46Z</time>
      </trkpt>
      <trkpt lat="43.644737033173442" lon="5.559160988777876">
        <ele>220.28</ele>
        <time>2025-05-17T13:52:57Z</time>
      </trkpt>
      <trkpt lat="43.644946999847889" lon="5.561164012178779">
        <ele>221.72</ele>
        <time>2025-05-17T13:53:06Z</time>
      </trkpt>
      <trkpt lat="43.645079014822841" lon="5.562434960156679">
        <ele>221.72</ele>
        <time>2025-05-17T13:53:15Z</time>
      </trkpt>
      <trkpt lat="43.645173981785774" lon="5.563351018354297">
        <ele>221.24000000000001</ele>
        <time>2025-05-17T13:53:22Z</time>
      </trkpt>
      <trkpt lat="43.645182028412819" lon="5.563425030559301">
        <ele>221.24000000000001</ele>
        <time>2025-05-17T13:53:23Z</time>
      </trkpt>
      <trkpt lat="43.645187979564071" lon="5.563489990308881">
        <ele>220.75999999999999</ele>
        <time>2025-05-17T13:53:24Z</time>
      </trkpt>
      <trkpt lat="43.645195020362735" lon="5.56355101056397">
        <ele>220.28</ele>
        <time>2025-05-17T13:53:25Z</time>
      </trkpt>
      <trkpt lat="43.645200971513987" lon="5.563613036647439">
        <ele>220.28</ele>
        <time>2025-05-17T13:53:26Z</time>
      </trkpt>
      <trkpt lat="43.64520700648427" lon="5.563668021932244">
        <ele>220.28</ele>
        <time>2025-05-17T13:53:27Z</time>
      </trkpt>
      <trkpt lat="43.645213041454554" lon="5.56372300721705">
        <ele>220.28</ele>
        <time>2025-05-17T13:53:28Z</time>
      </trkpt>
      <trkpt lat="43.645217986777425" lon="5.563777992501855">
        <ele>219.80000000000001</ele>
        <time>2025-05-17T13:53:29Z</time>
      </trkpt>
      <trkpt lat="43.645225027576089" lon="5.563842030242086">
        <ele>219.80000000000001</ele>
        <time>2025-05-17T13:53:30Z</time>
      </trkpt>
      <trkpt lat="43.645233996212482" lon="5.563929034397006">
        <ele>220.28</ele>
        <time>2025-05-17T13:53:31Z</time>
      </trkpt>
      <trkpt lat="43.645246988162398" lon="5.564049985259771">
        <ele>219.80000000000001</ele>
        <time>2025-05-17T13:53:32Z</time>
      </trkpt>
      <trkpt lat="43.645260985940695" lon="5.564186023548245">
        <ele>219.80000000000001</ele>
        <time>2025-05-17T13:53:33Z</time>
      </trkpt>
      <trkpt lat="43.645273977890611" lon="5.564313009381294">
        <ele>219.80000000000001</ele>
        <time>2025-05-17T13:53:34Z</time>
      </trkpt>
      <trkpt lat="43.645286969840527" lon="5.56443496607244">
        <ele>219.31999999999999</ele>
        <time>2025-05-17T13:53:35Z</time>
      </trkpt>
      <trkpt lat="43.645300967618823" lon="5.564569998532534">
        <ele>218.84</ele>
        <time>2025-05-17T13:53:36Z</time>
      </trkpt>
      <trkpt lat="43.64544396288693" lon="5.565951000899077">
        <ele>217.88</ele>
        <time>2025-05-17T13:53:45Z</time>
      </trkpt>
      <trkpt lat="43.645630041137338" lon="5.567744979634881">
        <ele>216.43000000000001</ele>
        <time>2025-05-17T13:53:55Z</time>
      </trkpt>
      <trkpt lat="43.645738000050187" lon="5.568776959553361">
        <ele>217.88</ele>
        <time>2025-05-17T13:54:02Z</time>
      </trkpt>
      <trkpt lat="43.645747974514961" lon="5.568874021992087">
        <ele>217.88</ele>
        <time>2025-05-17T13:54:03Z</time>
      </trkpt>
      <trkpt lat="43.645759038627148" lon="5.568972006440163">
        <ele>217.88</ele>
        <time>2025-05-17T13:54:04Z</time>
      </trkpt>
      <trkpt lat="43.645776975899935" lon="5.569132016971707">
        <ele>218.36000000000001</ele>
        <time>2025-05-17T13:54:06Z</time>
      </trkpt>
      <trkpt lat="43.645785022526979" lon="5.569209968671203">
        <ele>218.36000000000001</ele>
        <time>2025-05-17T13:54:07Z</time>
      </trkpt>
      <trkpt lat="43.645793991163373" lon="5.569285992532969">
        <ele>218.36000000000001</ele>
        <time>2025-05-17T13:54:08Z</time>
      </trkpt>
      <trkpt lat="43.645802037790418" lon="5.569355981424451">
        <ele>218.84</ele>
        <time>2025-05-17T13:54:09Z</time>
      </trkpt>
      <trkpt lat="43.645810000598431" lon="5.569436028599739">
        <ele>218.84</ele>
        <time>2025-05-17T13:54:10Z</time>
      </trkpt>
      <trkpt lat="43.645820980891585" lon="5.56952697224915">
        <ele>219.31999999999999</ele>
        <time>2025-05-17T13:54:11Z</time>
      </trkpt>
      <trkpt lat="43.645831039175391" lon="5.569623028859496">
        <ele>219.80000000000001</ele>
        <time>2025-05-17T13:54:12Z</time>
      </trkpt>
      <trkpt lat="43.645841013640165" lon="5.569711960852146">
        <ele>219.80000000000001</ele>
        <time>2025-05-17T13:54:13Z</time>
      </trkpt>
      <trkpt lat="43.645850988104939" lon="5.569800976663828">
        <ele>219.80000000000001</ele>
        <time>2025-05-17T13:54:14Z</time>
      </trkpt>
      <trkpt lat="43.645860962569714" lon="5.569886974990368">
        <ele>220.28</ele>
        <time>2025-05-17T13:54:15Z</time>
      </trkpt>
      <trkpt lat="43.645870015025139" lon="5.569973979145289">
        <ele>220.28</ele>
        <time>2025-05-17T13:54:16Z</time>
      </trkpt>
      <trkpt lat="43.645880995318294" lon="5.570067018270493">
        <ele>220.75999999999999</ele>
        <time>2025-05-17T13:54:17Z</time>
      </trkpt>
      <trkpt lat="43.645892981439829" lon="5.570179000496864">
        <ele>220.75999999999999</ele>
        <time>2025-05-17T13:54:18Z</time>
      </trkpt>
      <trkpt lat="43.646033965051174" lon="5.57154499925673">
        <ele>221.72</ele>
        <time>2025-05-17T13:54:27Z</time>
      </trkpt>
      <trkpt lat="43.646106971427798" lon="5.572504978626967">
        <ele>223.16</ele>
        <time>2025-05-17T13:54:35Z</time>
      </trkpt>
      <trkpt lat="43.646106971427798" lon="5.572607992216945">
        <ele>221.72</ele>
        <time>2025-05-17T13:54:40Z</time>
      </trkpt>
      <trkpt lat="43.646106971427798" lon="5.572957014665008">
        <ele>221.72</ele>
        <time>2025-05-17T13:54:50Z</time>
      </trkpt>
      <trkpt lat="43.646106971427798" lon="5.573042007163167">
        <ele>221.24000000000001</ele>
        <time>2025-05-17T13:54:51Z</time>
      </trkpt>
      <trkpt lat="43.646063972264528" lon="5.573321962729096">
        <ele>220.75999999999999</ele>
        <time>2025-05-17T13:54:54Z</time>
      </trkpt>
      <trkpt lat="43.646063972264528" lon="5.57339396327734">
        <ele>220.75999999999999</ele>
        <time>2025-05-17T13:54:55Z</time>
      </trkpt>
      <trkpt lat="43.646167991682887" lon="5.573670985177159">
        <ele>220.28</ele>
        <time>2025-05-17T13:54:57Z</time>
      </trkpt>
      <trkpt lat="43.646137984469533" lon="5.573795959353447">
        <ele>220.28</ele>
        <time>2025-05-17T13:54:58Z</time>
      </trkpt>
      <trkpt lat="43.646104037761688" lon="5.573938032612205">
        <ele>220.28</ele>
        <time>2025-05-17T13:54:59Z</time>
      </trkpt>
      <trkpt lat="43.646063972264528" lon="5.57410198263824">
        <ele>220.28</ele>
        <time>2025-05-17T13:55:00Z</time>
      </trkpt>
      <trkpt lat="43.646032959222794" lon="5.574262998998165">
        <ele>220.28</ele>
        <time>2025-05-17T13:55:01Z</time>
      </trkpt>
      <trkpt lat="43.645794996991754" lon="5.57584198191762">
        <ele>218.36000000000001</ele>
        <time>2025-05-17T13:55:11Z</time>
      </trkpt>
      <trkpt lat="43.645751997828484" lon="5.576480012387037">
        <ele>217.40000000000001</ele>
        <time>2025-05-17T13:55:17Z</time>
      </trkpt>
      <trkpt lat="43.645748980343342" lon="5.576553018763661">
        <ele>217.40000000000001</ele>
        <time>2025-05-17T13:55:18Z</time>
      </trkpt>
      <trkpt lat="43.645746968686581" lon="5.576642034575343">
        <ele>217.40000000000001</ele>
        <time>2025-05-17T13:55:25Z</time>
      </trkpt>
      <trkpt lat="43.645774964243174" lon="5.577027015388012">
        <ele>218.36000000000001</ele>
        <time>2025-05-17T13:55:35Z</time>
      </trkpt>
      <trkpt lat="43.645810000598431" lon="5.577243017032743">
        <ele>218.36000000000001</ele>
        <time>2025-05-17T13:55:38Z</time>
      </trkpt>
      <trkpt lat="43.645821986719966" lon="5.577306970953941">
        <ele>217.88</ele>
        <time>2025-05-17T13:55:39Z</time>
      </trkpt>
      <trkpt lat="43.645878983661532" lon="5.577608970925212">
        <ele>218.36000000000001</ele>
        <time>2025-05-17T13:55:44Z</time>
      </trkpt>
      <trkpt lat="43.645886024460196" lon="5.577670997008681">
        <ele>218.36000000000001</ele>
        <time>2025-05-17T13:55:45Z</time>
      </trkpt>
      <trkpt lat="43.645893987268209" lon="5.577736962586641">
        <ele>218.36000000000001</ele>
        <time>2025-05-17T13:55:46Z</time>
      </trkpt>
      <trkpt lat="43.645950984209776" lon="5.578019013628364">
        <ele>218.84</ele>
        <time>2025-05-17T13:55:50Z</time>
      </trkpt>
      <trkpt lat="43.645964981988072" lon="5.578096965327859">
        <ele>218.84</ele>
        <time>2025-05-17T13:55:51Z</time>
      </trkpt>
      <trkpt lat="43.645979985594749" lon="5.57818103581667">
        <ele>218.84</ele>
        <time>2025-05-17T13:55:52Z</time>
      </trkpt>
      <trkpt lat="43.646128010004759" lon="5.5787009652704">
        <ele>218.84</ele>
        <time>2025-05-17T13:55:57Z</time>
      </trkpt>
      <trkpt lat="43.646160028874874" lon="5.57878402993083">
        <ele>218.84</ele>
        <time>2025-05-17T13:55:58Z</time>
      </trkpt>
      <trkpt lat="43.646191963925958" lon="5.578862987458706">
        <ele>218.84</ele>
        <time>2025-05-17T13:55:59Z</time>
      </trkpt>
      <trkpt lat="43.646223982796073" lon="5.578944040462375">
        <ele>218.84</ele>
        <time>2025-05-17T13:56:00Z</time>
      </trkpt>
      <trkpt lat="43.646249966695905" lon="5.579013023525477">
        <ele>218.84</ele>
        <time>2025-05-17T13:56:01Z</time>
      </trkpt>
      <trkpt lat="43.646377036347985" lon="5.579396998509765">
        <ele>217.88</ele>
        <time>2025-05-17T13:56:09Z</time>
      </trkpt>
      <trkpt lat="43.646416012197733" lon="5.579549968242645">
        <ele>217.88</ele>
        <time>2025-05-17T13:56:13Z</time>
      </trkpt>
      <trkpt lat="43.646450964733958" lon="5.579977026209235">
        <ele>217.40000000000001</ele>
        <time>2025-05-17T13:56:17Z</time>
      </trkpt>
      <trkpt lat="43.646450964733958" lon="5.581049993634224">
        <ele>217.40000000000001</ele>
        <time>2025-05-17T13:56:26Z</time>
      </trkpt>
      <trkpt lat="43.646450964733958" lon="5.581110008060932">
        <ele>217.88</ele>
        <time>2025-05-17T13:56:27Z</time>
      </trkpt>
      <trkpt lat="43.646450964733958" lon="5.581165999174118">
        <ele>217.88</ele>
        <time>2025-05-17T13:56:28Z</time>
      </trkpt>
      <trkpt lat="43.646450964733958" lon="5.581215033307672">
        <ele>217.88</ele>
        <time>2025-05-17T13:56:29Z</time>
      </trkpt>
      <trkpt lat="43.646450964733958" lon="5.581260966137052">
        <ele>217.88</ele>
        <time>2025-05-17T13:56:30Z</time>
      </trkpt>
      <trkpt lat="43.646449958905578" lon="5.581301031634212">
        <ele>217.88</ele>
        <time>2025-05-17T13:56:31Z</time>
      </trkpt>
      <trkpt lat="43.646449958905578" lon="5.581332966685295">
        <ele>217.88</ele>
        <time>2025-05-17T13:56:32Z</time>
      </trkpt>
      <trkpt lat="43.646449036896229" lon="5.581360040232539">
        <ele>217.88</ele>
        <time>2025-05-17T13:56:33Z</time>
      </trkpt>
      <trkpt lat="43.646449036896229" lon="5.581360040232539">
        <ele>218.36000000000001</ele>
        <time>2025-05-17T13:56:47Z</time>
      </trkpt>
      <trkpt lat="43.646438978612423" lon="5.581740997731686">
        <ele>219.31999999999999</ele>
        <time>2025-05-17T13:56:56Z</time>
      </trkpt>
      <trkpt lat="43.646429004147649" lon="5.582407023757696">
        <ele>217.88</ele>
        <time>2025-05-17T13:57:06Z</time>
      </trkpt>
      <trkpt lat="43.646429004147649" lon="5.582454968243837">
        <ele>217.88</ele>
        <time>2025-05-17T13:57:07Z</time>
      </trkpt>
      <trkpt lat="43.646429004147649" lon="5.582496039569378">
        <ele>217.88</ele>
        <time>2025-05-17T13:57:08Z</time>
      </trkpt>
      <trkpt lat="43.646429004147649" lon="5.582543984055519">
        <ele>218.36000000000001</ele>
        <time>2025-05-17T13:57:09Z</time>
      </trkpt>
      <trkpt lat="43.646429004147649" lon="5.582621013745666">
        <ele>218.36000000000001</ele>
        <time>2025-05-17T13:57:10Z</time>
      </trkpt>
      <trkpt lat="43.646429004147649" lon="5.582668958231807">
        <ele>218.36000000000001</ele>
        <time>2025-05-17T13:57:11Z</time>
      </trkpt>
      <trkpt lat="43.646429004147649" lon="5.582734001800418">
        <ele>218.36000000000001</ele>
        <time>2025-05-17T13:57:12Z</time>
      </trkpt>
      <trkpt lat="43.646429004147649" lon="5.582797033712268">
        <ele>218.36000000000001</ele>
        <time>2025-05-17T13:57:13Z</time>
      </trkpt>
      <trkpt lat="43.646429004147649" lon="5.582857970148325">
        <ele>218.84</ele>
        <time>2025-05-17T13:57:14Z</time>
      </trkpt>
      <trkpt lat="43.646429004147649" lon="5.582921002060175">
        <ele>218.84</ele>
        <time>2025-05-17T13:57:15Z</time>
      </trkpt>
      <trkpt lat="43.646429004147649" lon="5.583881987258792">
        <ele>220.28</ele>
        <time>2025-05-17T13:57:26Z</time>
      </trkpt>
      <trkpt lat="43.646441996097565" lon="5.585083030164242">
        <ele>220.28</ele>
        <time>2025-05-17T13:57:36Z</time>
      </trkpt>
      <trkpt lat="43.646450964733958" lon="5.58596296235919">
        <ele>220.28</ele>
        <time>2025-05-17T13:57:43Z</time>
      </trkpt>
      <trkpt lat="43.646340994164348" lon="5.587326027452946">
        <ele>221.24000000000001</ele>
        <time>2025-05-17T13:57:54Z</time>
      </trkpt>
      <trkpt lat="43.646309981122613" lon="5.587919969111681">
        <ele>221.72</ele>
        <time>2025-05-17T13:57:59Z</time>
      </trkpt>
      <trkpt lat="43.646291960030794" lon="5.588138988241553">
        <ele>221.24000000000001</ele>
        <time>2025-05-17T13:58:01Z</time>
      </trkpt>
      <trkpt lat="43.646252984181046" lon="5.58860301040113">
        <ele>220.75999999999999</ele>
        <time>2025-05-17T13:58:06Z</time>
      </trkpt>
      <trkpt lat="43.646247033029795" lon="5.588684985414147">
        <ele>220.28</ele>
        <time>2025-05-17T13:58:07Z</time>
      </trkpt>
      <trkpt lat="43.646235968917608" lon="5.58884097263217">
        <ele>220.28</ele>
        <time>2025-05-17T13:58:09Z</time>
      </trkpt>
      <trkpt lat="43.646222976967692" lon="5.588909033685923">
        <ele>220.28</ele>
        <time>2025-05-17T13:58:10Z</time>
      </trkpt>
      <trkpt lat="43.646146031096578" lon="5.58980698697269">
        <ele>220.28</ele>
        <time>2025-05-17T13:58:18Z</time>
      </trkpt>
      <trkpt lat="43.646129015833139" lon="5.590153997763991">
        <ele>220.28</ele>
        <time>2025-05-17T13:58:21Z</time>
      </trkpt>
      <trkpt lat="43.646128010004759" lon="5.59047200717032">
        <ele>220.28</ele>
        <time>2025-05-17T13:58:24Z</time>
      </trkpt>
      <trkpt lat="43.646161034703255" lon="5.590555993840098">
        <ele>220.75999999999999</ele>
        <time>2025-05-17T13:58:25Z</time>
      </trkpt>
      <trkpt lat="43.646176038309932" lon="5.590640986338258">
        <ele>220.75999999999999</ele>
        <time>2025-05-17T13:58:26Z</time>
      </trkpt>
      <trkpt lat="43.646192969754338" lon="5.590732013806701">
        <ele>220.75999999999999</ele>
        <time>2025-05-17T13:58:27Z</time>
      </trkpt>
      <trkpt lat="43.646205961704254" lon="5.590841984376311">
        <ele>220.75999999999999</ele>
        <time>2025-05-17T13:58:28Z</time>
      </trkpt>
      <trkpt lat="43.646273016929626" lon="5.591941019520164">
        <ele>220.28</ele>
        <time>2025-05-17T13:58:35Z</time>
      </trkpt>
      <trkpt lat="43.646262036636472" lon="5.592312002554536">
        <ele>219.80000000000001</ele>
        <time>2025-05-17T13:58:37Z</time>
      </trkpt>
      <trkpt lat="43.646257007494569" lon="5.592505959793925">
        <ele>219.31999999999999</ele>
        <time>2025-05-17T13:58:38Z</time>
      </trkpt>
      <trkpt lat="43.646250972524285" lon="5.59270603582263">
        <ele>219.31999999999999</ele>
        <time>2025-05-17T13:58:39Z</time>
      </trkpt>
      <trkpt lat="43.646449958905578" lon="5.594391971826553">
        <ele>219.31999999999999</ele>
        <time>2025-05-17T13:58:48Z</time>
      </trkpt>
      <trkpt lat="43.646932002156973" lon="5.595948994159699">
        <ele>219.80000000000001</ele>
        <time>2025-05-17T13:58:58Z</time>
      </trkpt>
      <trkpt lat="43.647467019036412" lon="5.597616992890835">
        <ele>221.72</ele>
        <time>2025-05-17T13:59:09Z</time>
      </trkpt>
      <trkpt lat="43.647725014016032" lon="5.598374968394637">
        <ele>221.72</ele>
        <time>2025-05-17T13:59:14Z</time>
      </trkpt>
      <trkpt lat="43.648123992606997" lon="5.599637031555176">
        <ele>222.19999999999999</ele>
        <time>2025-05-17T13:59:22Z</time>
      </trkpt>
      <trkpt lat="43.64821401424706" lon="5.599912963807583">
        <ele>222.68000000000001</ele>
        <time>2025-05-17T13:59:24Z</time>
      </trkpt>
      <trkpt lat="43.648262964561582" lon="5.600066017359495">
        <ele>223.16</ele>
        <time>2025-05-17T13:59:25Z</time>
      </trkpt>
      <trkpt lat="43.64870997145772" lon="5.60140703804791">
        <ele>221.72</ele>
        <time>2025-05-17T13:59:34Z</time>
      </trkpt>
      <trkpt lat="43.649213975295424" lon="5.602908991277218">
        <ele>221.72</ele>
        <time>2025-05-17T13:59:44Z</time>
      </trkpt>
      <trkpt lat="43.649768019095063" lon="5.604582019150257">
        <ele>221.24000000000001</ele>
        <time>2025-05-17T13:59:55Z</time>
      </trkpt>
      <trkpt lat="43.650386016815901" lon="5.606344984844327">
        <ele>226.53</ele>
        <time>2025-05-17T14:00:05Z</time>
      </trkpt>
      <trkpt lat="43.651327975094318" lon="5.608448004350066">
        <ele>230.84999999999999</ele>
        <time>2025-05-17T14:00:15Z</time>
      </trkpt>
      <trkpt lat="43.652631025761366" lon="5.610645990818739">
        <ele>231.81</ele>
        <time>2025-05-17T14:00:25Z</time>
      </trkpt>
      <trkpt lat="43.653266038745642" lon="5.611688029021025">
        <ele>232.78</ele>
        <time>2025-05-17T14:00:30Z</time>
      </trkpt>
      <trkpt lat="43.653581030666828" lon="5.612317007035017">
        <ele>232.78</ele>
        <time>2025-05-17T14:00:33Z</time>
      </trkpt>
      <trkpt lat="43.653835002332926" lon="5.613000970333815">
        <ele>232.30000000000001</ele>
        <time>2025-05-17T14:00:36Z</time>
      </trkpt>
      <trkpt lat="43.654206991195679" lon="5.614806013181806">
        <ele>231.81</ele>
        <time>2025-05-17T14:00:43Z</time>
      </trkpt>
      <trkpt lat="43.654583003371954" lon="5.617453018203378">
        <ele>233.25999999999999</ele>
        <time>2025-05-17T14:00:53Z</time>
      </trkpt>
      <trkpt lat="43.655165964737535" lon="5.61997102573514">
        <ele>233.25999999999999</ele>
        <time>2025-05-17T14:01:03Z</time>
      </trkpt>
      <trkpt lat="43.655788991600275" lon="5.622435975819826">
        <ele>234.22</ele>
        <time>2025-05-17T14:01:13Z</time>
      </trkpt>
      <trkpt lat="43.656065007671714" lon="5.623684041202068">
        <ele>234.69999999999999</ele>
        <time>2025-05-17T14:01:18Z</time>
      </trkpt>
      <trkpt lat="43.656119992956519" lon="5.623930972069502">
        <ele>234.69999999999999</ele>
        <time>2025-05-17T14:01:19Z</time>
      </trkpt>
      <trkpt lat="43.656247984617949" lon="5.624662041664124">
        <ele>235.66</ele>
        <time>2025-05-17T14:01:22Z</time>
      </trkpt>
      <trkpt lat="43.656544033437967" lon="5.627288008108735">
        <ele>237.09999999999999</ele>
        <time>2025-05-17T14:01:32Z</time>
      </trkpt>
      <trkpt lat="43.65668099373579" lon="5.628101974725723">
        <ele>237.58000000000001</ele>
        <time>2025-05-17T14:01:35Z</time>
      </trkpt>
      <trkpt lat="43.65749697200954" lon="5.630098963156343">
        <ele>237.58000000000001</ele>
        <time>2025-05-17T14:01:43Z</time>
      </trkpt>
      <trkpt lat="43.658123016357422" lon="5.63178900629282">
        <ele>236.62</ele>
        <time>2025-05-17T14:01:50Z</time>
      </trkpt>
      <trkpt lat="43.658195016905665" lon="5.632036020979285">
        <ele>236.62</ele>
        <time>2025-05-17T14:01:51Z</time>
      </trkpt>
      <trkpt lat="43.658600030466914" lon="5.633270004764199">
        <ele>236.13999999999999</ele>
        <time>2025-05-17T14:01:56Z</time>
      </trkpt>
      <trkpt lat="43.658691979944706" lon="5.633512996137142">
        <ele>236.13999999999999</ele>
        <time>2025-05-17T14:01:57Z</time>
      </trkpt>
      <trkpt lat="43.659766037017107" lon="5.635753981769085">
        <ele>239.50999999999999</ele>
        <time>2025-05-17T14:02:07Z</time>
      </trkpt>
      <trkpt lat="43.660690980032086" lon="5.637145964428783">
        <ele>243.34999999999999</ele>
        <time>2025-05-17T14:02:14Z</time>
      </trkpt>
      <trkpt lat="43.661133963614702" lon="5.638003014028072">
        <ele>244.31</ele>
        <time>2025-05-17T14:02:18Z</time>
      </trkpt>
      <trkpt lat="43.662020014598966" lon="5.639796992763877">
        <ele>246.22999999999999</ele>
        <time>2025-05-17T14:02:26Z</time>
      </trkpt>
      <trkpt lat="43.662242973223329" lon="5.640248022973537">
        <ele>245.75</ele>
        <time>2025-05-17T14:02:28Z</time>
      </trkpt>
      <trkpt lat="43.662354033440351" lon="5.640471987426281">
        <ele>245.75</ele>
        <time>2025-05-17T14:02:29Z</time>
      </trkpt>
      <trkpt lat="43.662468027323484" lon="5.640702992677689">
        <ele>245.75</ele>
        <time>2025-05-17T14:02:30Z</time>
      </trkpt>
      <trkpt lat="43.663654988631606" lon="5.642292033880949">
        <ele>245.27000000000001</ele>
        <time>2025-05-17T14:02:38Z</time>
      </trkpt>
      <trkpt lat="43.66510396823287" lon="5.643869005143642">
        <ele>248.63999999999999</ele>
        <time>2025-05-17T14:02:47Z</time>
      </trkpt>
      <trkpt lat="43.666287995874882" lon="5.645295018330216">
        <ele>250.08000000000001</ele>
        <time>2025-05-17T14:02:55Z</time>
      </trkpt>
      <trkpt lat="43.66752902045846" lon="5.647076005116105">
        <ele>249.12</ele>
        <time>2025-05-17T14:03:04Z</time>
      </trkpt>
      <trkpt lat="43.668789993971586" lon="5.648068003356457">
        <ele>248.63999999999999</ele>
        <time>2025-05-17T14:03:11Z</time>
      </trkpt>
      <trkpt lat="43.670369982719421" lon="5.648608971387148">
        <ele>244.78999999999999</ele>
        <time>2025-05-17T14:03:19Z</time>
      </trkpt>
      <trkpt lat="43.671852992847562" lon="5.649311961606145">
        <ele>240.47</ele>
        <time>2025-05-17T14:03:27Z</time>
      </trkpt>
      <trkpt lat="43.67423596791923" lon="5.650737974792719">
        <ele>238.53999999999999</ele>
        <time>2025-05-17T14:03:41Z</time>
      </trkpt>
      <trkpt lat="43.67573800496757" lon="5.651957960799336">
        <ele>237.58000000000001</ele>
        <time>2025-05-17T14:03:50Z</time>
      </trkpt>
      <trkpt lat="43.677610019221902" lon="5.653540967032313">
        <ele>239.02000000000001</ele>
        <time>2025-05-17T14:04:01Z</time>
      </trkpt>
      <trkpt lat="43.679841030389071" lon="5.655317008495331">
        <ele>240.47</ele>
        <time>2025-05-17T14:04:15Z</time>
      </trkpt>
      <trkpt lat="43.681235024705529" lon="5.655724033713341">
        <ele>238.06</ele>
        <time>2025-05-17T14:04:23Z</time>
      </trkpt>
      <trkpt lat="43.682533968240023" lon="5.65604698844254">
        <ele>238.53999999999999</ele>
        <time>2025-05-17T14:04:31Z</time>
      </trkpt>
      <trkpt lat="43.68269800208509" lon="5.6561319809407">
        <ele>238.53999999999999</ele>
        <time>2025-05-17T14:04:32Z</time>
      </trkpt>
      <trkpt lat="43.682864969596267" lon="5.656243041157723">
        <ele>238.53999999999999</ele>
        <time>2025-05-17T14:04:33Z</time>
      </trkpt>
      <trkpt lat="43.683018023148179" lon="5.656385030597448">
        <ele>238.53999999999999</ele>
        <time>2025-05-17T14:04:34Z</time>
      </trkpt>
      <trkpt lat="43.683174010366201" lon="5.656530037522316">
        <ele>239.02000000000001</ele>
        <time>2025-05-17T14:04:35Z</time>
      </trkpt>
      <trkpt lat="43.683807011693716" lon="5.657179970294237">
        <ele>239.50999999999999</ele>
        <time>2025-05-17T14:04:39Z</time>
      </trkpt>
      <trkpt lat="43.684060983359814" lon="5.657622031867504">
        <ele>239.99000000000001</ele>
        <time>2025-05-17T14:04:41Z</time>
      </trkpt>
      <trkpt lat="43.684172965586185" lon="5.65782998688519">
        <ele>239.99000000000001</ele>
        <time>2025-05-17T14:04:42Z</time>
      </trkpt>
      <trkpt lat="43.684258041903377" lon="5.658117989078164">
        <ele>239.99000000000001</ele>
        <time>2025-05-17T14:04:43Z</time>
      </trkpt>
      <trkpt lat="43.684334987774491" lon="5.658382019028068">
        <ele>239.99000000000001</ele>
        <time>2025-05-17T14:04:44Z</time>
      </trkpt>
      <trkpt lat="43.684406988322735" lon="5.65864697098732">
        <ele>239.99000000000001</ele>
        <time>2025-05-17T14:04:45Z</time>
      </trkpt>
      <trkpt lat="43.684469014406204" lon="5.658920975401998">
        <ele>239.99000000000001</ele>
        <time>2025-05-17T14:04:46Z</time>
      </trkpt>
      <trkpt lat="43.685148032382131" lon="5.661562029272318">
        <ele>240.94999999999999</ele>
        <time>2025-05-17T14:04:56Z</time>
      </trkpt>
      <trkpt lat="43.685756977647543" lon="5.663134977221489">
        <ele>240.47</ele>
        <time>2025-05-17T14:05:03Z</time>
      </trkpt>
      <trkpt lat="43.685802994295955" lon="5.663391966372728">
        <ele>240.47</ele>
        <time>2025-05-17T14:05:04Z</time>
      </trkpt>
      <trkpt lat="43.68605000898242" lon="5.664458982646465">
        <ele>239.99000000000001</ele>
        <time>2025-05-17T14:05:08Z</time>
      </trkpt>
      <trkpt lat="43.686131983995438" lon="5.664709014818072">
        <ele>239.99000000000001</ele>
        <time>2025-05-17T14:05:09Z</time>
      </trkpt>
      <trkpt lat="43.686241032555699" lon="5.664927028119564">
        <ele>241.43000000000001</ele>
        <time>2025-05-17T14:05:10Z</time>
      </trkpt>
      <trkpt lat="43.686362989246845" lon="5.66513498313725">
        <ele>241.91</ele>
        <time>2025-05-17T14:05:11Z</time>
      </trkpt>
      <trkpt lat="43.686515036970377" lon="5.665285019204021">
        <ele>242.38999999999999</ele>
        <time>2025-05-17T14:05:12Z</time>
      </trkpt>
      <trkpt lat="43.686676975339651" lon="5.665409993380308">
        <ele>242.87</ele>
        <time>2025-05-17T14:05:13Z</time>
      </trkpt>
      <trkpt lat="43.686836985871196" lon="5.665533961728215">
        <ele>243.34999999999999</ele>
        <time>2025-05-17T14:05:14Z</time>
      </trkpt>
      <trkpt lat="43.686993978917599" lon="5.665654996410012">
        <ele>243.34999999999999</ele>
        <time>2025-05-17T14:05:15Z</time>
      </trkpt>
      <trkpt lat="43.688271967694163" lon="5.666606007143855">
        <ele>247.19999999999999</ele>
        <time>2025-05-17T14:05:24Z</time>
      </trkpt>
      <trkpt lat="43.68839300237596" lon="5.66678898409009">
        <ele>247.19999999999999</ele>
        <time>2025-05-17T14:05:25Z</time>
      </trkpt>
      <trkpt lat="43.688471037894487" lon="5.666904989629984">
        <ele>247.19999999999999</ele>
        <time>2025-05-17T14:05:26Z</time>
      </trkpt>
      <trkpt lat="43.688513031229377" lon="5.667016971856356">
        <ele>247.19999999999999</ele>
        <time>2025-05-17T14:05:27Z</time>
      </trkpt>
      <trkpt lat="43.688602969050407" lon="5.667301034554839">
        <ele>247.19999999999999</ele>
        <time>2025-05-17T14:05:29Z</time>
      </trkpt>
      <trkpt lat="43.688744036480784" lon="5.667421985417604">
        <ele>247.19999999999999</ele>
        <time>2025-05-17T14:05:30Z</time>
      </trkpt>
      <trkpt lat="43.688818970695138" lon="5.66751996986568">
        <ele>247.19999999999999</ele>
        <time>2025-05-17T14:05:31Z</time>
      </trkpt>
      <trkpt lat="43.689394975081086" lon="5.668662004172802">
        <ele>247.68000000000001</ele>
        <time>2025-05-17T14:05:39Z</time>
      </trkpt>
      <trkpt lat="43.689716001972556" lon="5.669243037700653">
        <ele>248.16</ele>
        <time>2025-05-17T14:05:43Z</time>
      </trkpt>
      <trkpt lat="43.689780039712787" lon="5.669419979676604">
        <ele>248.16</ele>
        <time>2025-05-17T14:05:44Z</time>
      </trkpt>
      <trkpt lat="43.690397031605244" lon="5.671199960634112">
        <ele>248.63999999999999</ele>
        <time>2025-05-17T14:05:53Z</time>
      </trkpt>
      <trkpt lat="43.690400971099734" lon="5.671401964500547">
        <ele>249.12</ele>
        <time>2025-05-17T14:05:54Z</time>
      </trkpt>
      <trkpt lat="43.690406000241637" lon="5.671613020822406">
        <ele>249.12</ele>
        <time>2025-05-17T14:05:55Z</time>
      </trkpt>
      <trkpt lat="43.690373981371522" lon="5.673151016235352">
        <ele>251.52000000000001</ele>
        <time>2025-05-17T14:06:02Z</time>
      </trkpt>
      <trkpt lat="43.690322013571858" lon="5.673379004001617">
        <ele>252</ele>
        <time>2025-05-17T14:06:03Z</time>
      </trkpt>
      <trkpt lat="43.690269961953163" lon="5.67360196262598">
        <ele>252.47999999999999</ele>
        <time>2025-05-17T14:06:04Z</time>
      </trkpt>
      <trkpt lat="43.690215982496738" lon="5.674045030027628">
        <ele>253.44</ele>
        <time>2025-05-17T14:06:06Z</time>
      </trkpt>
      <trkpt lat="43.69011196307838" lon="5.676056016236544">
        <ele>255.37</ele>
        <time>2025-05-17T14:06:14Z</time>
      </trkpt>
      <trkpt lat="43.690030993893743" lon="5.677063018083572">
        <ele>256.81</ele>
        <time>2025-05-17T14:06:18Z</time>
      </trkpt>
      <trkpt lat="43.690049014985561" lon="5.677310032770038">
        <ele>256.81</ele>
        <time>2025-05-17T14:06:19Z</time>
      </trkpt>
      <trkpt lat="43.690076004713774" lon="5.677557969465852">
        <ele>257.29000000000002</ele>
        <time>2025-05-17T14:06:20Z</time>
      </trkpt>
      <trkpt lat="43.69019603356719" lon="5.679183974862099">
        <ele>259.69</ele>
        <time>2025-05-17T14:06:27Z</time>
      </trkpt>
      <trkpt lat="43.690200978890061" lon="5.679415985941887">
        <ele>260.17000000000002</ele>
        <time>2025-05-17T14:06:28Z</time>
      </trkpt>
      <trkpt lat="43.690160997211933" lon="5.679654031991959">
        <ele>260.17000000000002</ele>
        <time>2025-05-17T14:06:29Z</time>
      </trkpt>
      <trkpt lat="43.690107017755508" lon="5.679883025586605">
        <ele>260.64999999999998</ele>
        <time>2025-05-17T14:06:30Z</time>
      </trkpt>
      <trkpt lat="43.690051026642323" lon="5.680115958675742">
        <ele>260.64999999999998</ele>
        <time>2025-05-17T14:06:31Z</time>
      </trkpt>
      <trkpt lat="43.689996041357517" lon="5.680345958098769">
        <ele>261.13999999999999</ele>
        <time>2025-05-17T14:06:32Z</time>
      </trkpt>
      <trkpt lat="43.689512992277741" lon="5.681554963812232">
        <ele>264.5</ele>
        <time>2025-05-17T14:06:38Z</time>
      </trkpt>
      <trkpt lat="43.689470998942852" lon="5.681771971285343">
        <ele>265.45999999999998</ele>
        <time>2025-05-17T14:06:39Z</time>
      </trkpt>
      <trkpt lat="43.689441997557878" lon="5.68200197070837">
        <ele>265.94</ele>
        <time>2025-05-17T14:06:40Z</time>
      </trkpt>
      <trkpt lat="43.68925197981298" lon="5.684284027665854">
        <ele>265.94</ele>
        <time>2025-05-17T14:06:49Z</time>
      </trkpt>
      <trkpt lat="43.689146032556891" lon="5.687487004324794">
        <ele>268.82999999999998</ele>
        <time>2025-05-17T14:07:01Z</time>
      </trkpt>
      <trkpt lat="43.689077971503139" lon="5.690798023715615">
        <ele>273.14999999999998</ele>
        <time>2025-05-17T14:07:13Z</time>
      </trkpt>
      <trkpt lat="43.688896000385284" lon="5.693744011223316">
        <ele>275.06999999999999</ele>
        <time>2025-05-17T14:07:24Z</time>
      </trkpt>
      <trkpt lat="43.688658038154244" lon="5.697141028940678">
        <ele>269.79000000000002</ele>
        <time>2025-05-17T14:07:36Z</time>
      </trkpt>
      <trkpt lat="43.688398031517863" lon="5.699205994606018">
        <ele>263.54000000000002</ele>
        <time>2025-05-17T14:07:44Z</time>
      </trkpt>
      <trkpt lat="43.687706021592021" lon="5.70109804160893">
        <ele>261.62</ele>
        <time>2025-05-17T14:07:52Z</time>
      </trkpt>
      <trkpt lat="43.686630958691239" lon="5.703200977295637">
        <ele>260.64999999999998</ele>
        <time>2025-05-17T14:08:02Z</time>
      </trkpt>
      <trkpt lat="43.685970967635512" lon="5.70466797798872">
        <ele>261.62</ele>
        <time>2025-05-17T14:08:10Z</time>
      </trkpt>
      <trkpt lat="43.685782039538026" lon="5.705530978739262">
        <ele>262.10000000000002</ele>
        <time>2025-05-17T14:08:18Z</time>
      </trkpt>
      <trkpt lat="43.68577198125422" lon="5.705726025626063">
        <ele>262.10000000000002</ele>
        <time>2025-05-17T14:08:20Z</time>
      </trkpt>
      <trkpt lat="43.685766030102968" lon="5.705832978710532">
        <ele>262.57999999999998</ele>
        <time>2025-05-17T14:08:21Z</time>
      </trkpt>
      <trkpt lat="43.685694029554725" lon="5.707301991060376">
        <ele>262.57999999999998</ele>
        <time>2025-05-17T14:08:32Z</time>
      </trkpt>
      <trkpt lat="43.685653964057565" lon="5.708940988406539">
        <ele>261.13999999999999</ele>
        <time>2025-05-17T14:08:44Z</time>
      </trkpt>
      <trkpt lat="43.685653964057565" lon="5.709573989734054">
        <ele>261.62</ele>
        <time>2025-05-17T14:08:48Z</time>
      </trkpt>
      <trkpt lat="43.685653964057565" lon="5.709700975567102">
        <ele>262.10000000000002</ele>
        <time>2025-05-17T14:08:49Z</time>
      </trkpt>
      <trkpt lat="43.685681037604809" lon="5.709998030215502">
        <ele>262.10000000000002</ele>
        <time>2025-05-17T14:08:52Z</time>
      </trkpt>
      <trkpt lat="43.685693023726344" lon="5.710076987743378">
        <ele>262.10000000000002</ele>
        <time>2025-05-17T14:08:53Z</time>
      </trkpt>
      <trkpt lat="43.685702998191118" lon="5.710144964978099">
        <ele>262.10000000000002</ele>
        <time>2025-05-17T14:08:54Z</time>
      </trkpt>
      <trkpt lat="43.685711966827512" lon="5.710201039910317">
        <ele>262.10000000000002</ele>
        <time>2025-05-17T14:08:55Z</time>
      </trkpt>
      <trkpt lat="43.685718001797795" lon="5.710243033245206">
        <ele>262.10000000000002</ele>
        <time>2025-05-17T14:08:56Z</time>
      </trkpt>
      <trkpt lat="43.685724036768079" lon="5.710277985781431">
        <ele>262.57999999999998</ele>
        <time>2025-05-17T14:08:57Z</time>
      </trkpt>
      <trkpt lat="43.68572898209095" lon="5.710314027965069">
        <ele>262.57999999999998</ele>
        <time>2025-05-17T14:08:58Z</time>
      </trkpt>
      <trkpt lat="43.685736022889614" lon="5.710355015471578">
        <ele>263.06</ele>
        <time>2025-05-17T14:08:59Z</time>
      </trkpt>
      <trkpt lat="43.685816992074251" lon="5.710799004882574">
        <ele>263.54000000000002</ele>
        <time>2025-05-17T14:09:04Z</time>
      </trkpt>
      <trkpt lat="43.685851022601128" lon="5.710932025685906">
        <ele>263.06</ele>
        <time>2025-05-17T14:09:05Z</time>
      </trkpt>
      <trkpt lat="43.685883963480592" lon="5.711064040660858">
        <ele>263.06</ele>
        <time>2025-05-17T14:09:06Z</time>
      </trkpt>
      <trkpt lat="43.685918999835849" lon="5.711205024272203">
        <ele>262.57999999999998</ele>
        <time>2025-05-17T14:09:07Z</time>
      </trkpt>
      <trkpt lat="43.685954036191106" lon="5.711351959034801">
        <ele>262.57999999999998</ele>
        <time>2025-05-17T14:09:08Z</time>
      </trkpt>
      <trkpt lat="43.686458040028811" lon="5.71330402046442">
        <ele>261.62</ele>
        <time>2025-05-17T14:09:19Z</time>
      </trkpt>
      <trkpt lat="43.687024991959333" lon="5.715557998046279">
        <ele>260.64999999999998</ele>
        <time>2025-05-17T14:09:29Z</time>
      </trkpt>
      <trkpt lat="43.687949012964964" lon="5.718585960566998">
        <ele>261.62</ele>
        <time>2025-05-17T14:09:42Z</time>
      </trkpt>
      <trkpt lat="43.688777983188629" lon="5.720840021967888">
        <ele>260.64999999999998</ele>
        <time>2025-05-17T14:09:52Z</time>
      </trkpt>
      <trkpt lat="43.690121015533805" lon="5.722593013197184">
        <ele>262.10000000000002</ele>
        <time>2025-05-17T14:10:02Z</time>
      </trkpt>
      <trkpt lat="43.691995041444898" lon="5.724930977448821">
        <ele>261.62</ele>
        <time>2025-05-17T14:10:15Z</time>
      </trkpt>
      <trkpt lat="43.693129029124975" lon="5.726523036137223">
        <ele>261.62</ele>
        <time>2025-05-17T14:10:23Z</time>
      </trkpt>
      <trkpt lat="43.69324897415936" lon="5.726751023903489">
        <ele>261.62</ele>
        <time>2025-05-17T14:10:24Z</time>
      </trkpt>
      <trkpt lat="43.693833025172353" lon="5.727864978834987">
        <ele>264.5</ele>
        <time>2025-05-17T14:10:29Z</time>
      </trkpt>
      <trkpt lat="43.693940984085202" lon="5.728073017671704">
        <ele>264.98000000000002</ele>
        <time>2025-05-17T14:10:30Z</time>
      </trkpt>
      <trkpt lat="43.694077022373676" lon="5.728262029588223">
        <ele>265.45999999999998</ele>
        <time>2025-05-17T14:10:31Z</time>
      </trkpt>
      <trkpt lat="43.694219011813402" lon="5.728448024019599">
        <ele>265.45999999999998</ele>
        <time>2025-05-17T14:10:32Z</time>
      </trkpt>
      <trkpt lat="43.694359995424747" lon="5.728634018450975">
        <ele>265.94</ele>
        <time>2025-05-17T14:10:33Z</time>
      </trkpt>
      <trkpt lat="43.695877036079764" lon="5.730667971074581">
        <ele>265.94</ele>
        <time>2025-05-17T14:10:44Z</time>
      </trkpt>
      <trkpt lat="43.696669964119792" lon="5.731754014268518">
        <ele>264.98000000000002</ele>
        <time>2025-05-17T14:10:52Z</time>
      </trkpt>
      <trkpt lat="43.696797033771873" lon="5.732021983712912">
        <ele>264.98000000000002</ele>
        <time>2025-05-17T14:10:54Z</time>
      </trkpt>
      <trkpt lat="43.69687800295651" lon="5.732333036139607">
        <ele>265.45999999999998</ele>
        <time>2025-05-17T14:10:56Z</time>
      </trkpt>
      <trkpt lat="43.696940029039979" lon="5.732395984232426">
        <ele>265.45999999999998</ele>
        <time>2025-05-17T14:10:57Z</time>
      </trkpt>
      <trkpt lat="43.697103979066014" lon="5.732385003939271">
        <ele>265.45999999999998</ele>
        <time>2025-05-17T14:10:58Z</time>
      </trkpt>
      <trkpt lat="43.697205986827612" lon="5.732472008094192">
        <ele>265.45999999999998</ele>
        <time>2025-05-17T14:10:59Z</time>
      </trkpt>
      <trkpt lat="43.697319980710745" lon="5.732567980885506">
        <ele>265.45999999999998</ele>
        <time>2025-05-17T14:11:00Z</time>
      </trkpt>
      <trkpt lat="43.697439003735781" lon="5.732693960890174">
        <ele>265.45999999999998</ele>
        <time>2025-05-17T14:11:01Z</time>
      </trkpt>
      <trkpt lat="43.697558026760817" lon="5.732837039977312">
        <ele>265.45999999999998</ele>
        <time>2025-05-17T14:11:02Z</time>
      </trkpt>
      <trkpt lat="43.698707018047571" lon="5.734117962419987">
        <ele>263.54000000000002</ele>
        <time>2025-05-17T14:11:10Z</time>
      </trkpt>
      <trkpt lat="43.698926037177444" lon="5.734578967094421">
        <ele>263.54000000000002</ele>
        <time>2025-05-17T14:11:12Z</time>
      </trkpt>
      <trkpt lat="43.69902896694839" lon="5.734821036458015">
        <ele>263.54000000000002</ele>
        <time>2025-05-17T14:11:13Z</time>
      </trkpt>
      <trkpt lat="43.699128963053226" lon="5.735055981203914">
        <ele>263.06</ele>
        <time>2025-05-17T14:11:14Z</time>
      </trkpt>
      <trkpt lat="43.699196018278599" lon="5.735319005325437">
        <ele>263.06</ele>
        <time>2025-05-17T14:11:15Z</time>
      </trkpt>
      <trkpt lat="43.699261983856559" lon="5.735579011961818">
        <ele>262.57999999999998</ele>
        <time>2025-05-17T14:11:16Z</time>
      </trkpt>
      <trkpt lat="43.699329039081931" lon="5.735839018598199">
        <ele>262.57999999999998</ele>
        <time>2025-05-17T14:11:17Z</time>
      </trkpt>
      <trkpt lat="43.699834970757365" lon="5.738147981464863">
        <ele>261.62</ele>
        <time>2025-05-17T14:11:27Z</time>
      </trkpt>
      <trkpt lat="43.699923986569047" lon="5.738896988332272">
        <ele>263.06</ele>
        <time>2025-05-17T14:11:32Z</time>
      </trkpt>
      <trkpt lat="43.699836982414126" lon="5.739197982475162">
        <ele>263.06</ele>
        <time>2025-05-17T14:11:34Z</time>
      </trkpt>
      <trkpt lat="43.699836982414126" lon="5.739197982475162">
        <ele>263.54000000000002</ele>
        <time>2025-05-17T14:11:35Z</time>
      </trkpt>
      <trkpt lat="43.699816027656198" lon="5.739304013550282">
        <ele>264.01999999999998</ele>
        <time>2025-05-17T14:11:36Z</time>
      </trkpt>
      <trkpt lat="43.699835976585746" lon="5.739481961354613">
        <ele>264.5</ele>
        <time>2025-05-17T14:11:37Z</time>
      </trkpt>
      <trkpt lat="43.699890039861202" lon="5.739571982994676">
        <ele>264.5</ele>
        <time>2025-05-17T14:11:38Z</time>
      </trkpt>
      <trkpt lat="43.699922980740666" lon="5.739626968279481">
        <ele>264.5</ele>
        <time>2025-05-17T14:11:39Z</time>
      </trkpt>
      <trkpt lat="43.700095983222127" lon="5.739677008241415">
        <ele>264.98000000000002</ele>
        <time>2025-05-17T14:11:40Z</time>
      </trkpt>
      <trkpt lat="43.700151974335313" lon="5.739797037094832">
        <ele>264.98000000000002</ele>
        <time>2025-05-17T14:11:41Z</time>
      </trkpt>
      <trkpt lat="43.700202014297247" lon="5.739906001836062">
        <ele>264.98000000000002</ele>
        <time>2025-05-17T14:11:42Z</time>
      </trkpt>
      <trkpt lat="43.700312990695238" lon="5.740065006539226">
        <ele>264.98000000000002</ele>
        <time>2025-05-17T14:11:43Z</time>
      </trkpt>
      <trkpt lat="43.70063703507185" lon="5.741576012223959">
        <ele>266.42000000000002</ele>
        <time>2025-05-17T14:11:50Z</time>
      </trkpt>
      <trkpt lat="43.701077001169324" lon="5.744818970561028">
        <ele>274.58999999999997</ele>
        <time>2025-05-17T14:12:02Z</time>
      </trkpt>
      <trkpt lat="43.701550997793674" lon="5.746941016986966">
        <ele>278.92000000000002</ele>
        <time>2025-05-17T14:12:10Z</time>
      </trkpt>
      <trkpt lat="43.701574970036745" lon="5.747210998088121">
        <ele>279.39999999999998</ele>
        <time>2025-05-17T14:12:11Z</time>
      </trkpt>
      <trkpt lat="43.701612018048763" lon="5.747997974976897">
        <ele>279.88</ele>
        <time>2025-05-17T14:12:14Z</time>
      </trkpt>
      <trkpt lat="43.701663985848427" lon="5.748226968571544">
        <ele>280.36000000000001</ele>
        <time>2025-05-17T14:12:15Z</time>
      </trkpt>
      <trkpt lat="43.701726011931896" lon="5.748425032943487">
        <ele>280.36000000000001</ele>
        <time>2025-05-17T14:12:16Z</time>
      </trkpt>
      <trkpt lat="43.701845034956932" lon="5.748590994626284">
        <ele>280.83999999999997</ele>
        <time>2025-05-17T14:12:17Z</time>
      </trkpt>
      <trkpt lat="43.701961040496826" lon="5.748752010986209">
        <ele>281.31999999999999</ele>
        <time>2025-05-17T14:12:18Z</time>
      </trkpt>
      <trkpt lat="43.70207897387445" lon="5.748916966840625">
        <ele>281.80000000000001</ele>
        <time>2025-05-17T14:12:19Z</time>
      </trkpt>
      <trkpt lat="43.702984973788261" lon="5.750223034992814">
        <ele>284.20999999999998</ele>
        <time>2025-05-17T14:12:26Z</time>
      </trkpt>
      <trkpt lat="43.703762982040644" lon="5.751566989347339">
        <ele>286.61000000000001</ele>
        <time>2025-05-17T14:12:32Z</time>
      </trkpt>
      <trkpt lat="43.704382991418242" lon="5.753258960321546">
        <ele>289.97000000000003</ele>
        <time>2025-05-17T14:12:40Z</time>
      </trkpt>
      <trkpt lat="43.704416016116738" lon="5.75343799777329">
        <ele>289.97000000000003</ele>
        <time>2025-05-17T14:12:41Z</time>
      </trkpt>
      <trkpt lat="43.704386008903384" lon="5.753681994974613">
        <ele>290.45999999999998</ele>
        <time>2025-05-17T14:12:42Z</time>
      </trkpt>
      <trkpt lat="43.704406041651964" lon="5.753773022443056">
        <ele>290.45999999999998</ele>
        <time>2025-05-17T14:12:43Z</time>
      </trkpt>
      <trkpt lat="43.704460021108389" lon="5.753913000226021">
        <ele>290.45999999999998</ele>
        <time>2025-05-17T14:12:44Z</time>
      </trkpt>
      <trkpt lat="43.704515006393194" lon="5.753981983289123">
        <ele>290.45999999999998</ele>
        <time>2025-05-17T14:12:45Z</time>
      </trkpt>
      <trkpt lat="43.704664958640933" lon="5.754004027694464">
        <ele>290.45999999999998</ele>
        <time>2025-05-17T14:12:46Z</time>
      </trkpt>
      <trkpt lat="43.704731008037925" lon="5.754098994657397">
        <ele>290.94</ele>
        <time>2025-05-17T14:12:47Z</time>
      </trkpt>
      <trkpt lat="43.70480602607131" lon="5.754209971055389">
        <ele>290.94</ele>
        <time>2025-05-17T14:12:48Z</time>
      </trkpt>
      <trkpt lat="43.704885989427567" lon="5.754326982423663">
        <ele>290.94</ele>
        <time>2025-05-17T14:12:49Z</time>
      </trkpt>
      <trkpt lat="43.705730969086289" lon="5.755488965660334">
        <ele>291.42000000000002</ele>
        <time>2025-05-17T14:12:57Z</time>
      </trkpt>
      <trkpt lat="43.705959040671587" lon="5.755857015028596">
        <ele>290.94</ele>
        <time>2025-05-17T14:12:59Z</time>
      </trkpt>
      <trkpt lat="43.70607303455472" lon="5.75605901889503">
        <ele>290.94</ele>
        <time>2025-05-17T14:13:00Z</time>
      </trkpt>
      <trkpt lat="43.706148974597454" lon="5.756290024146438">
        <ele>290.94</ele>
        <time>2025-05-17T14:13:01Z</time>
      </trkpt>
      <trkpt lat="43.706968976184726" lon="5.75876503251493">
        <ele>290.45999999999998</ele>
        <time>2025-05-17T14:13:11Z</time>
      </trkpt>
      <trkpt lat="43.707830971106887" lon="5.76132302172482">
        <ele>289.97000000000003</ele>
        <time>2025-05-17T14:13:22Z</time>
      </trkpt>
      <trkpt lat="43.708462966606021" lon="5.763186989352107">
        <ele>292.38</ele>
        <time>2025-05-17T14:13:31Z</time>
      </trkpt>
      <trkpt lat="43.709090016782284" lon="5.765265030786395">
        <ele>294.30000000000001</ele>
        <time>2025-05-17T14:13:42Z</time>
      </trkpt>
      <trkpt lat="43.709111977368593" lon="5.765469968318939">
        <ele>294.30000000000001</ele>
        <time>2025-05-17T14:13:43Z</time>
      </trkpt>
      <trkpt lat="43.709123963490129" lon="5.765677001327276">
        <ele>294.30000000000001</ele>
        <time>2025-05-17T14:13:44Z</time>
      </trkpt>
      <trkpt lat="43.709080964326859" lon="5.7660729624331">
        <ele>294.77999999999997</ele>
        <time>2025-05-17T14:13:46Z</time>
      </trkpt>
      <trkpt lat="43.708999995142221" lon="5.766602028161287">
        <ele>295.74000000000001</ele>
        <time>2025-05-17T14:13:49Z</time>
      </trkpt>
      <trkpt lat="43.709016004577279" lon="5.766776036471129">
        <ele>295.74000000000001</ele>
        <time>2025-05-17T14:13:50Z</time>
      </trkpt>
      <trkpt lat="43.709066966548562" lon="5.766941998153925">
        <ele>295.25999999999999</ele>
        <time>2025-05-17T14:13:51Z</time>
      </trkpt>
      <trkpt lat="43.709131004288793" lon="5.767094967886806">
        <ele>295.25999999999999</ele>
        <time>2025-05-17T14:13:52Z</time>
      </trkpt>
      <trkpt lat="43.709197975695133" lon="5.767251960933209">
        <ele>294.77999999999997</ele>
        <time>2025-05-17T14:13:53Z</time>
      </trkpt>
      <trkpt lat="43.709265030920506" lon="5.767409959807992">
        <ele>294.77999999999997</ele>
        <time>2025-05-17T14:13:54Z</time>
      </trkpt>
      <trkpt lat="43.710075980052352" lon="5.769131015986204">
        <ele>295.74000000000001</ele>
        <time>2025-05-17T14:14:04Z</time>
      </trkpt>
      <trkpt lat="43.710928000509739" lon="5.770843019708991">
        <ele>296.22000000000003</ele>
        <time>2025-05-17T14:14:13Z</time>
      </trkpt>
      <trkpt lat="43.71144600212574" lon="5.772051019594073">
        <ele>296.69999999999999</ele>
        <time>2025-05-17T14:14:20Z</time>
      </trkpt>
      <trkpt lat="43.712058970704675" lon="5.773493964225054">
        <ele>298.63</ele>
        <time>2025-05-17T14:14:31Z</time>
      </trkpt>
      <trkpt lat="43.712145974859595" lon="5.773751037195325">
        <ele>298.14999999999998</ele>
        <time>2025-05-17T14:14:33Z</time>
      </trkpt>
      <trkpt lat="43.712180005386472" lon="5.773882968351245">
        <ele>298.14999999999998</ele>
        <time>2025-05-17T14:14:34Z</time>
      </trkpt>
      <trkpt lat="43.712212024256587" lon="5.774006014689803">
        <ele>298.63</ele>
        <time>2025-05-17T14:14:35Z</time>
      </trkpt>
      <trkpt lat="43.712238008156419" lon="5.774109028279781">
        <ele>298.63</ele>
        <time>2025-05-17T14:14:36Z</time>
      </trkpt>
      <trkpt lat="43.712260974571109" lon="5.774197038263083">
        <ele>298.63</ele>
        <time>2025-05-17T14:14:37Z</time>
      </trkpt>
      <trkpt lat="43.71215402148664" lon="5.774410022422671">
        <ele>298.63</ele>
        <time>2025-05-17T14:14:38Z</time>
      </trkpt>
      <trkpt lat="43.71215402148664" lon="5.774410022422671">
        <ele>298.63</ele>
        <time>2025-05-17T14:14:39Z</time>
      </trkpt>
      <trkpt lat="43.712137006223202" lon="5.774468025192618">
        <ele>298.63</ele>
        <time>2025-05-17T14:14:40Z</time>
      </trkpt>
      <trkpt lat="43.712125020101666" lon="5.774608002975583">
        <ele>298.63</ele>
        <time>2025-05-17T14:14:41Z</time>
      </trkpt>
      <trkpt lat="43.712146980687976" lon="5.77468503266573">
        <ele>298.63</ele>
        <time>2025-05-17T14:14:42Z</time>
      </trkpt>
      <trkpt lat="43.712201965972781" lon="5.774766001850367">
        <ele>298.63</ele>
        <time>2025-05-17T14:14:43Z</time>
      </trkpt>
      <trkpt lat="43.712256029248238" lon="5.774829033762217">
        <ele>298.63</ele>
        <time>2025-05-17T14:14:44Z</time>
      </trkpt>
      <trkpt lat="43.71228301897645" lon="5.77485996298492">
        <ele>298.63</ele>
        <time>2025-05-17T14:14:45Z</time>
      </trkpt>
      <trkpt lat="43.712401036173105" lon="5.77485996298492">
        <ele>298.63</ele>
        <time>2025-05-17T14:14:46Z</time>
      </trkpt>
      <trkpt lat="43.712547970935702" lon="5.774876978248358">
        <ele>298.14999999999998</ele>
        <time>2025-05-17T14:14:47Z</time>
      </trkpt>
      <trkpt lat="43.712607985362411" lon="5.774970017373562">
        <ele>298.14999999999998</ele>
        <time>2025-05-17T14:14:48Z</time>
      </trkpt>
      <trkpt lat="43.712675962597132" lon="5.775076970458031">
        <ele>297.67000000000002</ele>
        <time>2025-05-17T14:14:49Z</time>
      </trkpt>
      <trkpt lat="43.712750980630517" lon="5.775194987654686">
        <ele>297.18000000000001</ele>
        <time>2025-05-17T14:14:50Z</time>
      </trkpt>
      <trkpt lat="43.712825998663902" lon="5.775324990972877">
        <ele>297.18000000000001</ele>
        <time>2025-05-17T14:14:51Z</time>
      </trkpt>
      <trkpt lat="43.712893975898623" lon="5.775465974584222">
        <ele>296.69999999999999</ele>
        <time>2025-05-17T14:14:52Z</time>
      </trkpt>
      <trkpt lat="43.712966982275248" lon="5.775616010650992">
        <ele>296.22000000000003</ele>
        <time>2025-05-17T14:14:53Z</time>
      </trkpt>
      <trkpt lat="43.713623033836484" lon="5.777141014114022">
        <ele>291.42000000000002</ele>
        <time>2025-05-17T14:15:01Z</time>
      </trkpt>
      <trkpt lat="43.714205995202065" lon="5.778697030618787">
        <ele>286.61000000000001</ele>
        <time>2025-05-17T14:15:08Z</time>
      </trkpt>
      <trkpt lat="43.714338010177016" lon="5.778845977038145">
        <ele>285.64999999999998</ele>
        <time>2025-05-17T14:15:09Z</time>
      </trkpt>
      <trkpt lat="43.714467007666826" lon="5.778990983963013">
        <ele>284.69</ele>
        <time>2025-05-17T14:15:10Z</time>
      </trkpt>
      <trkpt lat="43.714879984036088" lon="5.779355010017753">
        <ele>281.80000000000001</ele>
        <time>2025-05-17T14:15:13Z</time>
      </trkpt>
      <trkpt lat="43.714994983747602" lon="5.779518038034439">
        <ele>280.83999999999997</ele>
        <time>2025-05-17T14:15:14Z</time>
      </trkpt>
      <trkpt lat="43.715086011216044" lon="5.779705960303545">
        <ele>280.36000000000001</ele>
        <time>2025-05-17T14:15:15Z</time>
      </trkpt>
      <trkpt lat="43.715301007032394" lon="5.780347008258104">
        <ele>277.48000000000002</ele>
        <time>2025-05-17T14:15:18Z</time>
      </trkpt>
      <trkpt lat="43.715393962338567" lon="5.780823016539216">
        <ele>276.51999999999998</ele>
        <time>2025-05-17T14:15:20Z</time>
      </trkpt>
      <trkpt lat="43.715691016986966" lon="5.783296013250947">
        <ele>273.14999999999998</ele>
        <time>2025-05-17T14:15:30Z</time>
      </trkpt>
      <trkpt lat="43.715895032510161" lon="5.785106001421809">
        <ele>269.79000000000002</ele>
        <time>2025-05-17T14:15:37Z</time>
      </trkpt>
      <trkpt lat="43.715919004753232" lon="5.785370031371713">
        <ele>269.31</ele>
        <time>2025-05-17T14:15:38Z</time>
      </trkpt>
      <trkpt lat="43.716031992807984" lon="5.786939039826393">
        <ele>264.01999999999998</ele>
        <time>2025-05-17T14:15:45Z</time>
      </trkpt>
      <trkpt lat="43.716062000021338" lon="5.787112964317203">
        <ele>263.06</ele>
        <time>2025-05-17T14:15:46Z</time>
      </trkpt>
      <trkpt lat="43.716096030548215" lon="5.787282027304173">
        <ele>262.57999999999998</ele>
        <time>2025-05-17T14:15:47Z</time>
      </trkpt>
      <trkpt lat="43.716156966984272" lon="5.787442037835717">
        <ele>262.10000000000002</ele>
        <time>2025-05-17T14:15:48Z</time>
      </trkpt>
      <trkpt lat="43.716249000281096" lon="5.787574974820018">
        <ele>261.62</ele>
        <time>2025-05-17T14:15:49Z</time>
      </trkpt>
      <trkpt lat="43.716346984729171" lon="5.787701038643718">
        <ele>261.13999999999999</ele>
        <time>2025-05-17T14:15:50Z</time>
      </trkpt>
      <trkpt lat="43.716455027461052" lon="5.787824001163244">
        <ele>260.64999999999998</ele>
        <time>2025-05-17T14:15:51Z</time>
      </trkpt>
      <trkpt lat="43.71655804105103" lon="5.78794302418828">
        <ele>260.64999999999998</ele>
        <time>2025-05-17T14:15:52Z</time>
      </trkpt>
      <trkpt lat="43.7167530041188" lon="5.788169000297785">
        <ele>259.20999999999998</ele>
        <time>2025-05-17T14:15:54Z</time>
      </trkpt>
      <trkpt lat="43.716801032423973" lon="5.788326999172568">
        <ele>258.73000000000002</ele>
        <time>2025-05-17T14:15:55Z</time>
      </trkpt>
      <trkpt lat="43.716841014102101" lon="5.788493966683745">
        <ele>257.76999999999998</ele>
        <time>2025-05-17T14:15:56Z</time>
      </trkpt>
      <trkpt lat="43.717051986604929" lon="5.790063980966806">
        <ele>259.20999999999998</ele>
        <time>2025-05-17T14:16:04Z</time>
      </trkpt>
      <trkpt lat="43.717206967994571" lon="5.792298009619117">
        <ele>260.64999999999998</ele>
        <time>2025-05-17T14:16:14Z</time>
      </trkpt>
      <trkpt lat="43.717619022354484" lon="5.794169018045068">
        <ele>262.10000000000002</ele>
        <time>2025-05-17T14:16:23Z</time>
      </trkpt>
      <trkpt lat="43.717923033982515" lon="5.796084031462669">
        <ele>263.06</ele>
        <time>2025-05-17T14:16:32Z</time>
      </trkpt>
      <trkpt lat="43.718222016468644" lon="5.798489972949028">
        <ele>264.5</ele>
        <time>2025-05-17T14:16:43Z</time>
      </trkpt>
      <trkpt lat="43.718590987846255" lon="5.80117603763938">
        <ele>267.86000000000001</ele>
        <time>2025-05-17T14:16:56Z</time>
      </trkpt>
      <trkpt lat="43.718589982017875" lon="5.8022749889642">
        <ele>268.82999999999998</ele>
        <time>2025-05-17T14:17:01Z</time>
      </trkpt>
      <trkpt lat="43.718546982854605" lon="5.803882973268628">
        <ele>269.31</ele>
        <time>2025-05-17T14:17:08Z</time>
      </trkpt>
      <trkpt lat="43.718567015603185" lon="5.804112972691655">
        <ele>269.31</ele>
        <time>2025-05-17T14:17:09Z</time>
      </trkpt>
      <trkpt lat="43.718586964532733" lon="5.804342972114682">
        <ele>269.79000000000002</ele>
        <time>2025-05-17T14:17:10Z</time>
      </trkpt>
      <trkpt lat="43.719103960320354" lon="5.806522015482187">
        <ele>272.67000000000002</ele>
        <time>2025-05-17T14:17:20Z</time>
      </trkpt>
      <trkpt lat="43.719662027433515" lon="5.808156989514828">
        <ele>276.51999999999998</ele>
        <time>2025-05-17T14:17:29Z</time>
      </trkpt>
      <trkpt lat="43.719780966639519" lon="5.808481033891439">
        <ele>277.48000000000002</ele>
        <time>2025-05-17T14:17:31Z</time>
      </trkpt>
      <trkpt lat="43.719835029914975" lon="5.808628974482417">
        <ele>277.48000000000002</ele>
        <time>2025-05-17T14:17:32Z</time>
      </trkpt>
      <trkpt lat="43.719886997714639" lon="5.808770963922143">
        <ele>277.95999999999998</ele>
        <time>2025-05-17T14:17:33Z</time>
      </trkpt>
      <trkpt lat="43.720029992982745" lon="5.808989983052015">
        <ele>277.95999999999998</ele>
        <time>2025-05-17T14:17:35Z</time>
      </trkpt>
      <trkpt lat="43.720110962167382" lon="5.809088973328471">
        <ele>278.44</ele>
        <time>2025-05-17T14:17:36Z</time>
      </trkpt>
      <trkpt lat="43.720416985452175" lon="5.809451993554831">
        <ele>278.92000000000002</ele>
        <time>2025-05-17T14:17:40Z</time>
      </trkpt>
      <trkpt lat="43.721271017566323" lon="5.810137968510389">
        <ele>277.95999999999998</ele>
        <time>2025-05-17T14:17:49Z</time>
      </trkpt>
      <trkpt lat="43.721497999504209" lon="5.810238970443606">
        <ele>277.95999999999998</ele>
        <time>2025-05-17T14:17:51Z</time>
      </trkpt>
      <trkpt lat="43.722378015518188" lon="5.810413984581828">
        <ele>277</ele>
        <time>2025-05-17T14:18:00Z</time>
      </trkpt>
      <trkpt lat="43.722448004409671" lon="5.810429994016886">
        <ele>277</ele>
        <time>2025-05-17T14:18:01Z</time>
      </trkpt>
      <trkpt lat="43.72251195833087" lon="5.810444997623563">
        <ele>277</ele>
        <time>2025-05-17T14:18:02Z</time>
      </trkpt>
      <trkpt lat="43.722577001899481" lon="5.810457989573479">
        <ele>277</ele>
        <time>2025-05-17T14:18:03Z</time>
      </trkpt>
      <trkpt lat="43.722583958879113" lon="5.81065303646028">
        <ele>277</ele>
        <time>2025-05-17T14:18:04Z</time>
      </trkpt>
      <trkpt lat="43.722640033811331" lon="5.810709027573466">
        <ele>277.48000000000002</ele>
        <time>2025-05-17T14:18:05Z</time>
      </trkpt>
      <trkpt lat="43.722750004380941" lon="5.810705004259944">
        <ele>277.48000000000002</ele>
        <time>2025-05-17T14:18:06Z</time>
      </trkpt>
      <trkpt lat="43.722774982452393" lon="5.81069502979517">
        <ele>277.48000000000002</ele>
        <time>2025-05-17T14:18:07Z</time>
      </trkpt>
      <trkpt lat="43.72287699021399" lon="5.810538036748767">
        <ele>277.48000000000002</ele>
        <time>2025-05-17T14:18:08Z</time>
      </trkpt>
      <trkpt lat="43.72296198271215" lon="5.81052403897047">
        <ele>277.48000000000002</ele>
        <time>2025-05-17T14:18:09Z</time>
      </trkpt>
      <trkpt lat="43.723059967160225" lon="5.81052303314209">
        <ele>277</ele>
        <time>2025-05-17T14:18:10Z</time>
      </trkpt>
      <trkpt lat="43.723156023770571" lon="5.81052303314209">
        <ele>277</ele>
        <time>2025-05-17T14:18:11Z</time>
      </trkpt>
      <trkpt lat="43.723249984905124" lon="5.81052303314209">
        <ele>276.51999999999998</ele>
        <time>2025-05-17T14:18:12Z</time>
      </trkpt>
      <trkpt lat="43.72354100458324" lon="5.810565026476979">
        <ele>277</ele>
        <time>2025-05-17T14:18:15Z</time>
      </trkpt>
      <trkpt lat="43.724521016702056" lon="5.810691006481648">
        <ele>277</ele>
        <time>2025-05-17T14:18:25Z</time>
      </trkpt>
      <trkpt lat="43.725499017164111" lon="5.810822015628219">
        <ele>277</ele>
        <time>2025-05-17T14:18:37Z</time>
      </trkpt>
      <trkpt lat="43.725809985771775" lon="5.810873983427882">
        <ele>276.04000000000002</ele>
        <time>2025-05-17T14:18:43Z</time>
      </trkpt>
      <trkpt lat="43.725864971056581" lon="5.810887981206179">
        <ele>276.04000000000002</ele>
        <time>2025-05-17T14:18:44Z</time>
      </trkpt>
      <trkpt lat="43.72590403072536" lon="5.810887981206179">
        <ele>276.04000000000002</ele>
        <time>2025-05-17T14:18:45Z</time>
      </trkpt>
      <trkpt lat="43.725965972989798" lon="5.810894016176462">
        <ele>275.56</ele>
        <time>2025-05-17T14:18:46Z</time>
      </trkpt>
      <trkpt lat="43.726026993244886" lon="5.810918994247913">
        <ele>275.56</ele>
        <time>2025-05-17T14:18:47Z</time>
      </trkpt>
      <trkpt lat="43.726092958822846" lon="5.810945983976126">
        <ele>275.56</ele>
        <time>2025-05-17T14:18:48Z</time>
      </trkpt>
      <trkpt lat="43.72616202570498" lon="5.810974985361099">
        <ele>275.56</ele>
        <time>2025-05-17T14:18:49Z</time>
      </trkpt>
      <trkpt lat="43.726316001266241" lon="5.811038017272949">
        <ele>275.06999999999999</ele>
        <time>2025-05-17T14:18:51Z</time>
      </trkpt>
      <trkpt lat="43.726460002362728" lon="5.811226023361087">
        <ele>275.06999999999999</ele>
        <time>2025-05-17T14:18:54Z</time>
      </trkpt>
      <trkpt lat="43.726511970162392" lon="5.811291988939047">
        <ele>275.06999999999999</ele>
        <time>2025-05-17T14:18:55Z</time>
      </trkpt>
      <trkpt lat="43.726544994860888" lon="5.811373963952065">
        <ele>275.06999999999999</ele>
        <time>2025-05-17T14:18:56Z</time>
      </trkpt>
      <trkpt lat="43.726565027609468" lon="5.811453005298972">
        <ele>274.58999999999997</ele>
        <time>2025-05-17T14:18:57Z</time>
      </trkpt>
      <trkpt lat="43.726579025387764" lon="5.8115120138973">
        <ele>275.06999999999999</ele>
        <time>2025-05-17T14:18:58Z</time>
      </trkpt>
      <trkpt lat="43.726591011509299" lon="5.811558030545712">
        <ele>275.06999999999999</ele>
        <time>2025-05-17T14:18:59Z</time>
      </trkpt>
      <trkpt lat="43.726600985974073" lon="5.81159901805222">
        <ele>275.06999999999999</ele>
        <time>2025-05-17T14:19:00Z</time>
      </trkpt>
      <trkpt lat="43.726612972095609" lon="5.811647968366742">
        <ele>275.56</ele>
        <time>2025-05-17T14:19:01Z</time>
      </trkpt>
      <trkpt lat="43.726651025936007" lon="5.811828011646867">
        <ele>276.04000000000002</ele>
        <time>2025-05-17T14:19:04Z</time>
      </trkpt>
      <trkpt lat="43.72665898874402" lon="5.811875034123659">
        <ele>276.04000000000002</ele>
        <time>2025-05-17T14:19:05Z</time>
      </trkpt>
      <trkpt lat="43.726595034822822" lon="5.812024986371398">
        <ele>276.04000000000002</ele>
        <time>2025-05-17T14:19:06Z</time>
      </trkpt>
      <trkpt lat="43.726595034822822" lon="5.812047030776739">
        <ele>276.51999999999998</ele>
        <time>2025-05-17T14:19:07Z</time>
      </trkpt>
      <trkpt lat="43.726595034822822" lon="5.812110984697938">
        <ele>276.51999999999998</ele>
        <time>2025-05-17T14:19:08Z</time>
      </trkpt>
      <trkpt lat="43.726681033149362" lon="5.812198994681239">
        <ele>276.51999999999998</ele>
        <time>2025-05-17T14:19:09Z</time>
      </trkpt>
      <trkpt lat="43.726681033149362" lon="5.812274012714624">
        <ele>277</ele>
        <time>2025-05-17T14:19:10Z</time>
      </trkpt>
      <trkpt lat="43.726681033149362" lon="5.812367973849177">
        <ele>277</ele>
        <time>2025-05-17T14:19:11Z</time>
      </trkpt>
      <trkpt lat="43.726681033149362" lon="5.812451038509607">
        <ele>277.48000000000002</ele>
        <time>2025-05-17T14:19:12Z</time>
      </trkpt>
      <trkpt lat="43.726751022040844" lon="5.812917994335294">
        <ele>279.39999999999998</ele>
        <time>2025-05-17T14:19:17Z</time>
      </trkpt>
      <trkpt lat="43.726767031475902" lon="5.813012039288878">
        <ele>279.39999999999998</ele>
        <time>2025-05-17T14:19:18Z</time>
      </trkpt>
      <trkpt lat="43.726826962083578" lon="5.813071969896555">
        <ele>279.39999999999998</ele>
        <time>2025-05-17T14:19:19Z</time>
      </trkpt>
      <trkpt lat="43.726895023137331" lon="5.813141036778688">
        <ele>279.88</ele>
        <time>2025-05-17T14:19:20Z</time>
      </trkpt>
      <trkpt lat="43.726968029513955" lon="5.813158974051476">
        <ele>279.88</ele>
        <time>2025-05-17T14:19:21Z</time>
      </trkpt>
      <trkpt lat="43.727059978991747" lon="5.813182024285197">
        <ele>279.88</ele>
        <time>2025-05-17T14:19:22Z</time>
      </trkpt>
      <trkpt lat="43.727141031995416" lon="5.813153022900224">
        <ele>279.39999999999998</ele>
        <time>2025-05-17T14:19:23Z</time>
      </trkpt>
      <trkpt lat="43.72723700478673" lon="5.813112035393715">
        <ele>278.92000000000002</ele>
        <time>2025-05-17T14:19:24Z</time>
      </trkpt>
      <trkpt lat="43.727332977578044" lon="5.813071969896555">
        <ele>278.92000000000002</ele>
        <time>2025-05-17T14:19:25Z</time>
      </trkpt>
      <trkpt lat="43.727528024464846" lon="5.813000975176692">
        <ele>277.95999999999998</ele>
        <time>2025-05-17T14:19:27Z</time>
      </trkpt>
      <trkpt lat="43.728211987763643" lon="5.812860997393727">
        <ele>278.92000000000002</ele>
        <time>2025-05-17T14:19:36Z</time>
      </trkpt>
      <trkpt lat="43.728347020223737" lon="5.812834007665515">
        <ele>279.39999999999998</ele>
        <time>2025-05-17T14:19:38Z</time>
      </trkpt>
      <trkpt lat="43.729050010442734" lon="5.812722025439143">
        <ele>279.39999999999998</ele>
        <time>2025-05-17T14:19:47Z</time>
      </trkpt>
      <trkpt lat="43.72912997379899" lon="5.812726970762014">
        <ele>279.88</ele>
        <time>2025-05-17T14:19:48Z</time>
      </trkpt>
      <trkpt lat="43.729233993217349" lon="5.812733005732298">
        <ele>280.36000000000001</ele>
        <time>2025-05-17T14:19:49Z</time>
      </trkpt>
      <trkpt lat="43.729281015694141" lon="5.812753038480878">
        <ele>280.36000000000001</ele>
        <time>2025-05-17T14:19:50Z</time>
      </trkpt>
      <trkpt lat="43.729338012635708" lon="5.812776004895568">
        <ele>280.83999999999997</ele>
        <time>2025-05-17T14:19:51Z</time>
      </trkpt>
      <trkpt lat="43.729389980435371" lon="5.812797965481877">
        <ele>281.31999999999999</ele>
        <time>2025-05-17T14:19:52Z</time>
      </trkpt>
      <trkpt lat="43.729437002912164" lon="5.812816992402077">
        <ele>281.80000000000001</ele>
        <time>2025-05-17T14:19:53Z</time>
      </trkpt>
      <trkpt lat="43.729597013443708" lon="5.812911037355661">
        <ele>283.25</ele>
        <time>2025-05-17T14:19:56Z</time>
      </trkpt>
      <trkpt lat="43.730230014771223" lon="5.813990961760283">
        <ele>288.52999999999997</ele>
        <time>2025-05-17T14:20:10Z</time>
      </trkpt>
      <trkpt lat="43.730952031910419" lon="5.815645968541503">
        <ele>290.45999999999998</ele>
        <time>2025-05-17T14:20:26Z</time>
      </trkpt>
      <trkpt lat="43.731298036873341" lon="5.816702004522085">
        <ele>292.86000000000001</ele>
        <time>2025-05-17T14:20:35Z</time>
      </trkpt>
      <trkpt lat="43.731386968865991" lon="5.817245990037918">
        <ele>294.30000000000001</ele>
        <time>2025-05-17T14:20:39Z</time>
      </trkpt>
      <trkpt lat="43.731409013271332" lon="5.817385967820883">
        <ele>294.30000000000001</ele>
        <time>2025-05-17T14:20:40Z</time>
      </trkpt>
      <trkpt lat="43.731434997171164" lon="5.817528963088989">
        <ele>294.30000000000001</ele>
        <time>2025-05-17T14:20:41Z</time>
      </trkpt>
      <trkpt lat="43.731676982715726" lon="5.819223029538989">
        <ele>295.74000000000001</ele>
        <time>2025-05-17T14:20:52Z</time>
      </trkpt>
      <trkpt lat="43.731819977983832" lon="5.820371014997363">
        <ele>296.22000000000003</ele>
        <time>2025-05-17T14:21:02Z</time>
      </trkpt>
      <trkpt lat="43.732132958248258" lon="5.821885038167238">
        <ele>295.74000000000001</ele>
        <time>2025-05-17T14:21:13Z</time>
      </trkpt>
      <trkpt lat="43.732282994315028" lon="5.822633039206266">
        <ele>295.74000000000001</ele>
        <time>2025-05-17T14:21:21Z</time>
      </trkpt>
      <trkpt lat="43.732504025101662" lon="5.823976993560791">
        <ele>295.74000000000001</ele>
        <time>2025-05-17T14:21:30Z</time>
      </trkpt>
      <trkpt lat="43.732538977637887" lon="5.82474703900516">
        <ele>294.77999999999997</ele>
        <time>2025-05-17T14:21:37Z</time>
      </trkpt>
      <trkpt lat="43.732589017599821" lon="5.825954033061862">
        <ele>295.74000000000001</ele>
        <time>2025-05-17T14:21:46Z</time>
      </trkpt>
      <trkpt lat="43.73277903534472" lon="5.827371999621391">
        <ele>298.14999999999998</ele>
        <time>2025-05-17T14:21:55Z</time>
      </trkpt>
      <trkpt lat="43.732946002855897" lon="5.828664992004633">
        <ele>301.02999999999997</ele>
        <time>2025-05-17T14:22:03Z</time>
      </trkpt>
      <trkpt lat="43.732989002019167" lon="5.830308012664318">
        <ele>302.94999999999999</ele>
        <time>2025-05-17T14:22:13Z</time>
      </trkpt>
      <trkpt lat="43.733107019215822" lon="5.830948976799846">
        <ele>304.88</ele>
        <time>2025-05-17T14:22:17Z</time>
      </trkpt>
      <trkpt lat="43.733194023370743" lon="5.83125801756978">
        <ele>306.31999999999999</ele>
        <time>2025-05-17T14:22:19Z</time>
      </trkpt>
      <trkpt lat="43.733504991978407" lon="5.832121018320322">
        <ele>310.63999999999999</ele>
        <time>2025-05-17T14:22:27Z</time>
      </trkpt>
      <trkpt lat="43.73357598669827" lon="5.832339031621814">
        <ele>311.60000000000002</ele>
        <time>2025-05-17T14:22:29Z</time>
      </trkpt>
      <trkpt lat="43.733716970309615" lon="5.832904977723956">
        <ele>313.05000000000001</ele>
        <time>2025-05-17T14:22:33Z</time>
      </trkpt>
      <trkpt lat="43.733752006664872" lon="5.833070017397404">
        <ele>313.52999999999997</ele>
        <time>2025-05-17T14:22:34Z</time>
      </trkpt>
      <trkpt lat="43.733824007213116" lon="5.833413004875183">
        <ele>314.97000000000003</ele>
        <time>2025-05-17T14:22:36Z</time>
      </trkpt>
      <trkpt lat="43.734097005799413" lon="5.834517991170287">
        <ele>315.93000000000001</ele>
        <time>2025-05-17T14:22:42Z</time>
      </trkpt>
      <trkpt lat="43.734175963327289" lon="5.83469401113689">
        <ele>315.93000000000001</ele>
        <time>2025-05-17T14:22:43Z</time>
      </trkpt>
      <trkpt lat="43.734281994402409" lon="5.834853015840054">
        <ele>315.93000000000001</ele>
        <time>2025-05-17T14:22:44Z</time>
      </trkpt>
      <trkpt lat="43.73495195992291" lon="5.835676034912467">
        <ele>316.88999999999999</ele>
        <time>2025-05-17T14:22:50Z</time>
      </trkpt>
      <trkpt lat="43.73589601367712" lon="5.836738022044301">
        <ele>317.37</ele>
        <time>2025-05-17T14:22:58Z</time>
      </trkpt>
      <trkpt lat="43.736473023891449" lon="5.83766296505928">
        <ele>317.85000000000002</ele>
        <time>2025-05-17T14:23:04Z</time>
      </trkpt>
      <trkpt lat="43.736531026661396" lon="5.837809983640909">
        <ele>317.85000000000002</ele>
        <time>2025-05-17T14:23:05Z</time>
      </trkpt>
      <trkpt lat="43.736546030268073" lon="5.837968988344073">
        <ele>317.85000000000002</ele>
        <time>2025-05-17T14:23:06Z</time>
      </trkpt>
      <trkpt lat="43.736537983641028" lon="5.838148025795817">
        <ele>317.85000000000002</ele>
        <time>2025-05-17T14:23:07Z</time>
      </trkpt>
      <trkpt lat="43.736530020833015" lon="5.838332008570433">
        <ele>317.85000000000002</ele>
        <time>2025-05-17T14:23:08Z</time>
      </trkpt>
      <trkpt lat="43.736499007791281" lon="5.838524037972093">
        <ele>317.85000000000002</ele>
        <time>2025-05-17T14:23:09Z</time>
      </trkpt>
      <trkpt lat="43.736365986987948" lon="5.839496003463864">
        <ele>316.88999999999999</ele>
        <time>2025-05-17T14:23:14Z</time>
      </trkpt>
      <trkpt lat="43.736389959231019" lon="5.839671017602086">
        <ele>316.41000000000003</ele>
        <time>2025-05-17T14:23:15Z</time>
      </trkpt>
      <trkpt lat="43.736444022506475" lon="5.839833039790392">
        <ele>316.41000000000003</ele>
        <time>2025-05-17T14:23:16Z</time>
      </trkpt>
      <trkpt lat="43.73652096837759" lon="5.839994978159666">
        <ele>315.93000000000001</ele>
        <time>2025-05-17T14:23:17Z</time>
      </trkpt>
      <trkpt lat="43.73660696670413" lon="5.840143002569675">
        <ele>315.93000000000001</ele>
        <time>2025-05-17T14:23:18Z</time>
      </trkpt>
      <trkpt lat="43.73669195920229" lon="5.840289015322924">
        <ele>315.44999999999999</ele>
        <time>2025-05-17T14:23:19Z</time>
      </trkpt>
      <trkpt lat="43.73681802302599" lon="5.840357998386025">
        <ele>314.97000000000003</ele>
        <time>2025-05-17T14:23:20Z</time>
      </trkpt>
      <trkpt lat="43.736894968897104" lon="5.840392028912902">
        <ele>314.97000000000003</ele>
        <time>2025-05-17T14:23:21Z</time>
      </trkpt>
      <trkpt lat="43.737049028277397" lon="5.840370990335941">
        <ele>314.49000000000001</ele>
        <time>2025-05-17T14:23:22Z</time>
      </trkpt>
      <trkpt lat="43.737171990796924" lon="5.840353975072503">
        <ele>314.00999999999999</ele>
        <time>2025-05-17T14:23:23Z</time>
      </trkpt>
      <trkpt lat="43.737612962722778" lon="5.840292032808065">
        <ele>312.56999999999999</ele>
        <time>2025-05-17T14:23:26Z</time>
      </trkpt>
      <trkpt lat="43.738756002858281" lon="5.840354980900884">
        <ele>308.24000000000001</ele>
        <time>2025-05-17T14:23:33Z</time>
      </trkpt>
      <trkpt lat="43.739769039675593" lon="5.840523960068822">
        <ele>304.38999999999999</ele>
        <time>2025-05-17T14:23:39Z</time>
      </trkpt>
      <trkpt lat="43.740798002108932" lon="5.840896032750607">
        <ele>297.67000000000002</ele>
        <time>2025-05-17T14:23:46Z</time>
      </trkpt>
      <trkpt lat="43.742028968408704" lon="5.841777976602316">
        <ele>293.33999999999997</ele>
        <time>2025-05-17T14:23:55Z</time>
      </trkpt>
      <trkpt lat="43.742323005571961" lon="5.842010993510485">
        <ele>292.86000000000001</ele>
        <time>2025-05-17T14:23:59Z</time>
      </trkpt>
      <trkpt lat="43.742369022220373" lon="5.842048041522503">
        <ele>292.86000000000001</ele>
        <time>2025-05-17T14:24:00Z</time>
      </trkpt>
      <trkpt lat="43.742586029693484" lon="5.842222971841693">
        <ele>291.42000000000002</ele>
        <time>2025-05-17T14:24:09Z</time>
      </trkpt>
      <trkpt lat="43.742635985836387" lon="5.842263037338853">
        <ele>290.94</ele>
        <time>2025-05-17T14:24:18Z</time>
      </trkpt>
      <trkpt lat="43.742765989154577" lon="5.842124987393618">
        <ele>294.30000000000001</ele>
        <time>2025-05-17T14:26:30Z</time>
      </trkpt>
      <trkpt lat="43.742726007476449" lon="5.842195982113481">
        <ele>296.22000000000003</ele>
        <time>2025-05-17T14:27:06Z</time>
      </trkpt>
      <trkpt lat="43.742760038003325" lon="5.842195982113481">
        <ele>301.50999999999999</ele>
        <time>2025-05-17T14:27:56Z</time>
      </trkpt>
      <trkpt lat="43.742757020518184" lon="5.842169998213649">
        <ele>301.02999999999997</ele>
        <time>2025-05-17T14:28:40Z</time>
      </trkpt>
      <trkpt lat="43.742752997204661" lon="5.842177961021662">
        <ele>299.58999999999997</ele>
        <time>2025-05-17T14:29:37Z</time>
      </trkpt>
      <trkpt lat="43.742752997204661" lon="5.842177961021662">
        <ele>299.58999999999997</ele>
        <time>2025-05-17T14:29:45Z</time>
      </trkpt>
      <trkpt lat="43.742702035233378" lon="5.842193970456719">
        <ele>298.63</ele>
        <time>2025-05-17T14:30:11Z</time>
      </trkpt>
      <trkpt lat="43.742716033011675" lon="5.842206040397286">
        <ele>298.14999999999998</ele>
        <time>2025-05-17T14:30:59Z</time>
      </trkpt>
      <trkpt lat="43.742716033011675" lon="5.842206040397286">
        <ele>298.14999999999998</ele>
        <time>2025-05-17T14:31:21Z</time>
      </trkpt>
      <trkpt lat="43.742720978334546" lon="5.842332020401955">
        <ele>295.74000000000001</ele>
        <time>2025-05-17T14:31:27Z</time>
      </trkpt>
      <trkpt lat="43.742776969447732" lon="5.842377031221986">
        <ele>294.77999999999997</ele>
        <time>2025-05-17T14:31:28Z</time>
      </trkpt>
      <trkpt lat="43.742847964167595" lon="5.842437967658043">
        <ele>294.30000000000001</ele>
        <time>2025-05-17T14:31:29Z</time>
      </trkpt>
      <trkpt lat="43.742925999686122" lon="5.842509968206286">
        <ele>293.81999999999999</ele>
        <time>2025-05-17T14:31:30Z</time>
      </trkpt>
      <trkpt lat="43.74300797469914" lon="5.842584986239672">
        <ele>293.33999999999997</ele>
        <time>2025-05-17T14:31:31Z</time>
      </trkpt>
      <trkpt lat="43.743979018181562" lon="5.843476988375187">
        <ele>292.38</ele>
        <time>2025-05-17T14:31:40Z</time>
      </trkpt>
      <trkpt lat="43.744357964023948" lon="5.843889964744449">
        <ele>292.86000000000001</ele>
        <time>2025-05-17T14:31:43Z</time>
      </trkpt>
      <trkpt lat="43.745034970343113" lon="5.844846004620194">
        <ele>294.77999999999997</ele>
        <time>2025-05-17T14:31:49Z</time>
      </trkpt>
      <trkpt lat="43.745236974209547" lon="5.845130989328027">
        <ele>296.22000000000003</ele>
        <time>2025-05-17T14:31:51Z</time>
      </trkpt>
      <trkpt lat="43.745340993627906" lon="5.845235008746386">
        <ele>296.22000000000003</ele>
        <time>2025-05-17T14:31:52Z</time>
      </trkpt>
      <trkpt lat="43.7454569991678" lon="5.84530902095139">
        <ele>296.69999999999999</ele>
        <time>2025-05-17T14:31:53Z</time>
      </trkpt>
      <trkpt lat="43.745589014142752" lon="5.845349002629519">
        <ele>297.18000000000001</ele>
        <time>2025-05-17T14:31:54Z</time>
      </trkpt>
      <trkpt lat="43.745727986097336" lon="5.845349002629519">
        <ele>297.18000000000001</ele>
        <time>2025-05-17T14:31:55Z</time>
      </trkpt>
      <trkpt lat="43.745873998850584" lon="5.845398958772421">
        <ele>297.67000000000002</ele>
        <time>2025-05-17T14:31:56Z</time>
      </trkpt>
      <trkpt lat="43.74601699411869" lon="5.84545997902751">
        <ele>297.67000000000002</ele>
        <time>2025-05-17T14:31:57Z</time>
      </trkpt>
      <trkpt lat="43.746151020750403" lon="5.845565004274249">
        <ele>297.67000000000002</ele>
        <time>2025-05-17T14:31:58Z</time>
      </trkpt>
      <trkpt lat="43.746279012411833" lon="5.845685033127666">
        <ele>297.67000000000002</ele>
        <time>2025-05-17T14:31:59Z</time>
      </trkpt>
      <trkpt lat="43.746408009901643" lon="5.845815036445856">
        <ele>298.14999999999998</ele>
        <time>2025-05-17T14:32:00Z</time>
      </trkpt>
      <trkpt lat="43.747557001188397" lon="5.847226968035102">
        <ele>299.11000000000001</ele>
        <time>2025-05-17T14:32:09Z</time>
      </trkpt>
      <trkpt lat="43.748168963938951" lon="5.848043030127883">
        <ele>302.47000000000003</ele>
        <time>2025-05-17T14:32:14Z</time>
      </trkpt>
      <trkpt lat="43.74827197752893" lon="5.848208991810679">
        <ele>302.47000000000003</ele>
        <time>2025-05-17T14:32:15Z</time>
      </trkpt>
      <trkpt lat="43.748306008055806" lon="5.848396997898817">
        <ele>302.94999999999999</ele>
        <time>2025-05-17T14:32:16Z</time>
      </trkpt>
      <trkpt lat="43.748341966420412" lon="5.848594978451729">
        <ele>303.43000000000001</ele>
        <time>2025-05-17T14:32:17Z</time>
      </trkpt>
      <trkpt lat="43.74837800860405" lon="5.848798993974924">
        <ele>303.43000000000001</ele>
        <time>2025-05-17T14:32:18Z</time>
      </trkpt>
      <trkpt lat="43.748415978625417" lon="5.849008960649371">
        <ele>303.43000000000001</ele>
        <time>2025-05-17T14:32:19Z</time>
      </trkpt>
      <trkpt lat="43.748459983617067" lon="5.849253963679075">
        <ele>302.94999999999999</ele>
        <time>2025-05-17T14:32:20Z</time>
      </trkpt>
      <trkpt lat="43.748535001650453" lon="5.849435012787581">
        <ele>302.94999999999999</ele>
        <time>2025-05-17T14:32:21Z</time>
      </trkpt>
      <trkpt lat="43.748625023290515" lon="5.849653026089072">
        <ele>303.43000000000001</ele>
        <time>2025-05-17T14:32:22Z</time>
      </trkpt>
      <trkpt lat="43.749587014317513" lon="5.85145303979516">
        <ele>303.43000000000001</ele>
        <time>2025-05-17T14:32:30Z</time>
      </trkpt>
      <trkpt lat="43.750650007277727" lon="5.853026993572712">
        <ele>303.43000000000001</ele>
        <time>2025-05-17T14:32:37Z</time>
      </trkpt>
      <trkpt lat="43.751870999112725" lon="5.855109980329871">
        <ele>302.47000000000003</ele>
        <time>2025-05-17T14:32:46Z</time>
      </trkpt>
      <trkpt lat="43.751897988840938" lon="5.855340985581279">
        <ele>302.47000000000003</ele>
        <time>2025-05-17T14:32:47Z</time>
      </trkpt>
      <trkpt lat="43.751927996054292" lon="5.855605015531182">
        <ele>302.47000000000003</ele>
        <time>2025-05-17T14:32:48Z</time>
      </trkpt>
      <trkpt lat="43.751959009096026" lon="5.855874996632338">
        <ele>301.99000000000001</ele>
        <time>2025-05-17T14:32:49Z</time>
      </trkpt>
      <trkpt lat="43.752135029062629" lon="5.856970008462668">
        <ele>301.50999999999999</ele>
        <time>2025-05-17T14:32:53Z</time>
      </trkpt>
      <trkpt lat="43.752217004075646" lon="5.857234038412571">
        <ele>301.50999999999999</ele>
        <time>2025-05-17T14:32:54Z</time>
      </trkpt>
      <trkpt lat="43.752313982695341" lon="5.857482980936766">
        <ele>301.02999999999997</ele>
        <time>2025-05-17T14:32:55Z</time>
      </trkpt>
      <trkpt lat="43.752492014318705" lon="5.858001988381147">
        <ele>301.02999999999997</ele>
        <time>2025-05-17T14:32:57Z</time>
      </trkpt>
      <trkpt lat="43.753128033131361" lon="5.860203998163343">
        <ele>301.50999999999999</ele>
        <time>2025-05-17T14:33:05Z</time>
      </trkpt>
      <trkpt lat="43.753531035035849" lon="5.861625988036394">
        <ele>302.94999999999999</ele>
        <time>2025-05-17T14:33:11Z</time>
      </trkpt>
      <trkpt lat="43.753639999777079" lon="5.861833021044731">
        <ele>302.94999999999999</ele>
        <time>2025-05-17T14:33:12Z</time>
      </trkpt>
      <trkpt lat="43.753738990053535" lon="5.862022032961249">
        <ele>303.43000000000001</ele>
        <time>2025-05-17T14:33:13Z</time>
      </trkpt>
      <trkpt lat="43.75387703999877" lon="5.862224036827683">
        <ele>303.43000000000001</ele>
        <time>2025-05-17T14:33:14Z</time>
      </trkpt>
      <trkpt lat="43.754005031660199" lon="5.862411037087441">
        <ele>303.43000000000001</ele>
        <time>2025-05-17T14:33:15Z</time>
      </trkpt>
      <trkpt lat="43.754259003326297" lon="5.862785037606955">
        <ele>303.91000000000003</ele>
        <time>2025-05-17T14:33:17Z</time>
      </trkpt>
      <trkpt lat="43.75435397028923" lon="5.863007996231318">
        <ele>303.91000000000003</ele>
        <time>2025-05-17T14:33:18Z</time>
      </trkpt>
      <trkpt lat="43.754452038556337" lon="5.863239001482725">
        <ele>303.91000000000003</ele>
        <time>2025-05-17T14:33:19Z</time>
      </trkpt>
      <trkpt lat="43.755100965499878" lon="5.865232972428203">
        <ele>303.91000000000003</ele>
        <time>2025-05-17T14:33:27Z</time>
      </trkpt>
      <trkpt lat="43.755407994613051" lon="5.86593403480947">
        <ele>303.43000000000001</ele>
        <time>2025-05-17T14:33:30Z</time>
      </trkpt>
      <trkpt lat="43.755459040403366" lon="5.866184988990426">
        <ele>303.43000000000001</ele>
        <time>2025-05-17T14:33:31Z</time>
      </trkpt>
      <trkpt lat="43.755482006818056" lon="5.866439966484904">
        <ele>303.43000000000001</ele>
        <time>2025-05-17T14:33:32Z</time>
      </trkpt>
      <trkpt lat="43.755584014579654" lon="5.867535984143615">
        <ele>302.94999999999999</ele>
        <time>2025-05-17T14:33:37Z</time>
      </trkpt>
      <trkpt lat="43.755649980157614" lon="5.86771703325212">
        <ele>302.94999999999999</ele>
        <time>2025-05-17T14:33:38Z</time>
      </trkpt>
      <trkpt lat="43.755718041211367" lon="5.867857011035085">
        <ele>302.94999999999999</ele>
        <time>2025-05-17T14:33:39Z</time>
      </trkpt>
      <trkpt lat="43.755796998739243" lon="5.86799799464643">
        <ele>302.94999999999999</ele>
        <time>2025-05-17T14:33:40Z</time>
      </trkpt>
      <trkpt lat="43.755876962095499" lon="5.868141995742917">
        <ele>302.94999999999999</ele>
        <time>2025-05-17T14:33:41Z</time>
      </trkpt>
      <trkpt lat="43.755953991785645" lon="5.868279961869121">
        <ele>302.94999999999999</ele>
        <time>2025-05-17T14:33:42Z</time>
      </trkpt>
      <trkpt lat="43.75660702586174" lon="5.869458960369229">
        <ele>303.91000000000003</ele>
        <time>2025-05-17T14:33:51Z</time>
      </trkpt>
      <trkpt lat="43.756658993661404" lon="5.869611008092761">
        <ele>303.91000000000003</ele>
        <time>2025-05-17T14:33:52Z</time>
      </trkpt>
      <trkpt lat="43.756711967289448" lon="5.869765989482403">
        <ele>304.38999999999999</ele>
        <time>2025-05-17T14:33:53Z</time>
      </trkpt>
      <trkpt lat="43.756764018908143" lon="5.869918959215283">
        <ele>304.38999999999999</ele>
        <time>2025-05-17T14:33:54Z</time>
      </trkpt>
      <trkpt lat="43.756769970059395" lon="5.870083998888731">
        <ele>304.38999999999999</ele>
        <time>2025-05-17T14:33:55Z</time>
      </trkpt>
      <trkpt lat="43.756776005029678" lon="5.87025498971343">
        <ele>304.38999999999999</ele>
        <time>2025-05-17T14:33:56Z</time>
      </trkpt>
      <trkpt lat="43.756782039999962" lon="5.87042698636651">
        <ele>304.38999999999999</ele>
        <time>2025-05-17T14:33:57Z</time>
      </trkpt>
      <trkpt lat="43.756676008924842" lon="5.872089033946395">
        <ele>304.88</ele>
        <time>2025-05-17T14:34:07Z</time>
      </trkpt>
      <trkpt lat="43.756698975339532" lon="5.87225197814405">
        <ele>305.36000000000001</ele>
        <time>2025-05-17T14:34:08Z</time>
      </trkpt>
      <trkpt lat="43.756989995017648" lon="5.874405959621072">
        <ele>309.68000000000001</ele>
        <time>2025-05-17T14:34:21Z</time>
      </trkpt>
      <trkpt lat="43.757063001394272" lon="5.874903006479144">
        <ele>311.12</ele>
        <time>2025-05-17T14:34:24Z</time>
      </trkpt>
      <trkpt lat="43.757141036912799" lon="5.875039966776967">
        <ele>312.08999999999997</ele>
        <time>2025-05-17T14:34:25Z</time>
      </trkpt>
      <trkpt lat="43.757224017754197" lon="5.875162007287145">
        <ele>313.05000000000001</ele>
        <time>2025-05-17T14:34:26Z</time>
      </trkpt>
      <trkpt lat="43.757645040750504" lon="5.875761983916163">
        <ele>317.85000000000002</ele>
        <time>2025-05-17T14:34:31Z</time>
      </trkpt>
      <trkpt lat="43.757716035470366" lon="5.875905985012651">
        <ele>318.81</ele>
        <time>2025-05-17T14:34:32Z</time>
      </trkpt>
      <trkpt lat="43.757744031026959" lon="5.876072030514479">
        <ele>320.25999999999999</ele>
        <time>2025-05-17T14:34:33Z</time>
      </trkpt>
      <trkpt lat="43.757750988006592" lon="5.876233968883753">
        <ele>321.22000000000003</ele>
        <time>2025-05-17T14:34:34Z</time>
      </trkpt>
      <trkpt lat="43.757742019370198" lon="5.87639800272882">
        <ele>322.18000000000001</ele>
        <time>2025-05-17T14:34:35Z</time>
      </trkpt>
      <trkpt lat="43.75772500410676" lon="5.876564970239997">
        <ele>323.13999999999999</ele>
        <time>2025-05-17T14:34:36Z</time>
      </trkpt>
      <trkpt lat="43.757665995508432" lon="5.877497037872672">
        <ele>326.5</ele>
        <time>2025-05-17T14:34:42Z</time>
      </trkpt>
      <trkpt lat="43.757686028257012" lon="5.877777999266982">
        <ele>327.47000000000003</ele>
        <time>2025-05-17T14:34:44Z</time>
      </trkpt>
      <trkpt lat="43.757726009935141" lon="5.877918982878327">
        <ele>328.43000000000001</ele>
        <time>2025-05-17T14:34:45Z</time>
      </trkpt>
      <trkpt lat="43.757769009098411" lon="5.878070024773479">
        <ele>328.91000000000003</ele>
        <time>2025-05-17T14:34:46Z</time>
      </trkpt>
      <trkpt lat="43.757827011868358" lon="5.878216959536076">
        <ele>328.91000000000003</ele>
        <time>2025-05-17T14:34:47Z</time>
      </trkpt>
      <trkpt lat="43.757901024073362" lon="5.878351991996169">
        <ele>329.38999999999999</ele>
        <time>2025-05-17T14:34:48Z</time>
      </trkpt>
      <trkpt lat="43.758116019889712" lon="5.878758011385799">
        <ele>331.79000000000002</ele>
        <time>2025-05-17T14:34:51Z</time>
      </trkpt>
      <trkpt lat="43.758142003789544" lon="5.87888902053237">
        <ele>332.75</ele>
        <time>2025-05-17T14:34:52Z</time>
      </trkpt>
      <trkpt lat="43.758196989074349" lon="5.879324041306973">
        <ele>335.63999999999999</ele>
        <time>2025-05-17T14:34:55Z</time>
      </trkpt>
      <trkpt lat="43.758243005722761" lon="5.879447003826499">
        <ele>336.60000000000002</ele>
        <time>2025-05-17T14:34:56Z</time>
      </trkpt>
      <trkpt lat="43.758460013195872" lon="5.879939021542668">
        <ele>340.92000000000002</ele>
        <time>2025-05-17T14:35:01Z</time>
      </trkpt>
      <trkpt lat="43.758460013195872" lon="5.88003097102046">
        <ele>342.37</ele>
        <time>2025-05-17T14:35:02Z</time>
      </trkpt>
      <trkpt lat="43.758450038731098" lon="5.880142031237483">
        <ele>343.81</ele>
        <time>2025-05-17T14:35:03Z</time>
      </trkpt>
      <trkpt lat="43.758417014032602" lon="5.880260970443487">
        <ele>345.25</ele>
        <time>2025-05-17T14:35:04Z</time>
      </trkpt>
      <trkpt lat="43.758352976292372" lon="5.880342023447156">
        <ele>346.69</ele>
        <time>2025-05-17T14:35:05Z</time>
      </trkpt>
      <trkpt lat="43.758289022371173" lon="5.880425004288554">
        <ele>348.13</ele>
        <time>2025-05-17T14:35:06Z</time>
      </trkpt>
      <trkpt lat="43.758246023207903" lon="5.880514020100236">
        <ele>349.10000000000002</ele>
        <time>2025-05-17T14:35:07Z</time>
      </trkpt>
      <trkpt lat="43.758211992681026" lon="5.880617033690214">
        <ele>350.06</ele>
        <time>2025-05-17T14:35:08Z</time>
      </trkpt>
      <trkpt lat="43.758179973810911" lon="5.880712000653148">
        <ele>351.5</ele>
        <time>2025-05-17T14:35:09Z</time>
      </trkpt>
      <trkpt lat="43.758166981860995" lon="5.880829012021422">
        <ele>352.45999999999998</ele>
        <time>2025-05-17T14:35:10Z</time>
      </trkpt>
      <trkpt lat="43.758187014609575" lon="5.880946023389697">
        <ele>353.42000000000002</ele>
        <time>2025-05-17T14:35:11Z</time>
      </trkpt>
      <trkpt lat="43.758222972974181" lon="5.881053982302547">
        <ele>353.89999999999998</ele>
        <time>2025-05-17T14:35:12Z</time>
      </trkpt>
      <trkpt lat="43.758272007107735" lon="5.881155990064144">
        <ele>354.38</ele>
        <time>2025-05-17T14:35:13Z</time>
      </trkpt>
      <trkpt lat="43.758329004049301" lon="5.881234025582671">
        <ele>354.86000000000001</ele>
        <time>2025-05-17T14:35:14Z</time>
      </trkpt>
      <trkpt lat="43.758384995162487" lon="5.881309965625405">
        <ele>354.86000000000001</ele>
        <time>2025-05-17T14:35:15Z</time>
      </trkpt>
      <trkpt lat="43.758473005145788" lon="5.881481040269136">
        <ele>355.82999999999998</ele>
        <time>2025-05-17T14:35:17Z</time>
      </trkpt>
      <trkpt lat="43.758511980995536" lon="5.881568966433406">
        <ele>355.82999999999998</ele>
        <time>2025-05-17T14:35:18Z</time>
      </trkpt>
      <trkpt lat="43.758547017350793" lon="5.881649013608694">
        <ele>356.31</ele>
        <time>2025-05-17T14:35:19Z</time>
      </trkpt>
      <trkpt lat="43.758646007627249" lon="5.881992001086474">
        <ele>357.75</ele>
        <time>2025-05-17T14:35:27Z</time>
      </trkpt>
      <trkpt lat="43.758613988757133" lon="5.882138013839722">
        <ele>359.19</ele>
        <time>2025-05-17T14:35:33Z</time>
      </trkpt>
      <trkpt lat="43.758588004857302" lon="5.882213031873107">
        <ele>359.19</ele>
        <time>2025-05-17T14:35:34Z</time>
      </trkpt>
      <trkpt lat="43.758538970723748" lon="5.882232980802655">
        <ele>359.19</ele>
        <time>2025-05-17T14:35:35Z</time>
      </trkpt>
      <trkpt lat="43.758031027391553" lon="5.882442025467753">
        <ele>359.67000000000002</ele>
        <time>2025-05-17T14:35:41Z</time>
      </trkpt>
      <trkpt lat="43.757953997701406" lon="5.882502961903811">
        <ele>360.14999999999998</ele>
        <time>2025-05-17T14:35:42Z</time>
      </trkpt>
      <trkpt lat="43.757806979119778" lon="5.882644029334188">
        <ele>360.63</ele>
        <time>2025-05-17T14:35:44Z</time>
      </trkpt>
      <trkpt lat="43.757429961115122" lon="5.883095981553197">
        <ele>358.70999999999998</ele>
        <time>2025-05-17T14:35:49Z</time>
      </trkpt>
      <trkpt lat="43.757334994152188" lon="5.883150966838002">
        <ele>358.70999999999998</ele>
        <time>2025-05-17T14:35:50Z</time>
      </trkpt>
      <trkpt lat="43.757150005549192" lon="5.883258003741503">
        <ele>358.70999999999998</ele>
        <time>2025-05-17T14:35:52Z</time>
      </trkpt>
      <trkpt lat="43.75697297975421" lon="5.883362023159862">
        <ele>359.19</ele>
        <time>2025-05-17T14:35:54Z</time>
      </trkpt>
      <trkpt lat="43.756805006414652" lon="5.883460007607937">
        <ele>359.19</ele>
        <time>2025-05-17T14:35:56Z</time>
      </trkpt>
      <trkpt lat="43.756733005866408" lon="5.88353200815618">
        <ele>359.19</ele>
        <time>2025-05-17T14:35:57Z</time>
      </trkpt>
      <trkpt lat="43.756661005318165" lon="5.883604008704424">
        <ele>359.67000000000002</ele>
        <time>2025-05-17T14:35:58Z</time>
      </trkpt>
      <trkpt lat="43.756515998393297" lon="5.883758990094066">
        <ele>359.67000000000002</ele>
        <time>2025-05-17T14:36:00Z</time>
      </trkpt>
      <trkpt lat="43.756454978138208" lon="5.883868960663676">
        <ele>359.67000000000002</ele>
        <time>2025-05-17T14:36:01Z</time>
      </trkpt>
      <trkpt lat="43.756411978974938" lon="5.88398203253746">
        <ele>360.14999999999998</ele>
        <time>2025-05-17T14:36:02Z</time>
      </trkpt>
      <trkpt lat="43.756399992853403" lon="5.88411103002727">
        <ele>360.14999999999998</ele>
        <time>2025-05-17T14:36:03Z</time>
      </trkpt>
      <trkpt lat="43.756400998681784" lon="5.884250001981854">
        <ele>359.67000000000002</ele>
        <time>2025-05-17T14:36:04Z</time>
      </trkpt>
      <trkpt lat="43.756411978974938" lon="5.884396014735103">
        <ele>358.70999999999998</ele>
        <time>2025-05-17T14:36:05Z</time>
      </trkpt>
      <trkpt lat="43.75643502920866" lon="5.884831035509706">
        <ele>356.79000000000002</ele>
        <time>2025-05-17T14:36:08Z</time>
      </trkpt>
      <trkpt lat="43.756423965096474" lon="5.884973024949431">
        <ele>356.31</ele>
        <time>2025-05-17T14:36:09Z</time>
      </trkpt>
      <trkpt lat="43.756332015618682" lon="5.886633982881904">
        <ele>347.64999999999998</ele>
        <time>2025-05-17T14:36:20Z</time>
      </trkpt>
      <trkpt lat="43.756310977041721" lon="5.88677697815001">
        <ele>346.69</ele>
        <time>2025-05-17T14:36:21Z</time>
      </trkpt>
      <trkpt lat="43.756296979263425" lon="5.886922990903258">
        <ele>345.73000000000002</ele>
        <time>2025-05-17T14:36:22Z</time>
      </trkpt>
      <trkpt lat="43.756292033940554" lon="5.887071015313268">
        <ele>345.25</ele>
        <time>2025-05-17T14:36:23Z</time>
      </trkpt>
      <trkpt lat="43.756292033940554" lon="5.887219039723277">
        <ele>344.29000000000002</ele>
        <time>2025-05-17T14:36:24Z</time>
      </trkpt>
      <trkpt lat="43.75630896538496" lon="5.887359017506242">
        <ele>343.32999999999998</ele>
        <time>2025-05-17T14:36:25Z</time>
      </trkpt>
      <trkpt lat="43.756336960941553" lon="5.887495977804065">
        <ele>342.85000000000002</ele>
        <time>2025-05-17T14:36:26Z</time>
      </trkpt>
      <trkpt lat="43.756394041702151" lon="5.887625981122255">
        <ele>342.37</ele>
        <time>2025-05-17T14:36:27Z</time>
      </trkpt>
      <trkpt lat="43.756453972309828" lon="5.88776302523911">
        <ele>341.88999999999999</ele>
        <time>2025-05-17T14:36:28Z</time>
      </trkpt>
      <trkpt lat="43.75660602003336" lon="5.887984978035092">
        <ele>340.92000000000002</ele>
        <time>2025-05-17T14:36:30Z</time>
      </trkpt>
      <trkpt lat="43.756656982004642" lon="5.888050021603704">
        <ele>340.44</ele>
        <time>2025-05-17T14:36:31Z</time>
      </trkpt>
      <trkpt lat="43.756777010858059" lon="5.888094026595354">
        <ele>339.95999999999998</ele>
        <time>2025-05-17T14:36:32Z</time>
      </trkpt>
      <trkpt lat="43.756866026669741" lon="5.888113975524902">
        <ele>339.95999999999998</ele>
        <time>2025-05-17T14:36:33Z</time>
      </trkpt>
      <trkpt lat="43.756968034431338" lon="5.888092014938593">
        <ele>339</ele>
        <time>2025-05-17T14:36:34Z</time>
      </trkpt>
      <trkpt lat="43.75708001665771" lon="5.888057984411717">
        <ele>338.04000000000002</ele>
        <time>2025-05-17T14:36:35Z</time>
      </trkpt>
      <trkpt lat="43.757184036076069" lon="5.888020014390349">
        <ele>337.56</ele>
        <time>2025-05-17T14:36:36Z</time>
      </trkpt>
      <trkpt lat="43.757698014378548" lon="5.887826979160309">
        <ele>333.70999999999998</ele>
        <time>2025-05-17T14:36:43Z</time>
      </trkpt>
      <trkpt lat="43.757793987169862" lon="5.887795966118574">
        <ele>330.35000000000002</ele>
        <time>2025-05-17T14:36:51Z</time>
      </trkpt>
      <trkpt lat="43.757836986333132" lon="5.887782974168658">
        <ele>330.35000000000002</ele>
        <time>2025-05-17T14:36:56Z</time>
      </trkpt>
      <trkpt lat="43.757860036566854" lon="5.887776017189026">
        <ele>329.87</ele>
        <time>2025-05-17T14:36:57Z</time>
      </trkpt>
      <trkpt lat="43.757965983822942" lon="5.887792026624084">
        <ele>328.91000000000003</ele>
        <time>2025-05-17T14:36:58Z</time>
      </trkpt>
      <trkpt lat="43.758041001856327" lon="5.887838965281844">
        <ele>327.94999999999999</ele>
        <time>2025-05-17T14:37:00Z</time>
      </trkpt>
      <trkpt lat="43.758065979927778" lon="5.887900991365314">
        <ele>326.99000000000001</ele>
        <time>2025-05-17T14:37:01Z</time>
      </trkpt>
      <trkpt lat="43.758008982986212" lon="5.888018002733588">
        <ele>326.01999999999998</ele>
        <time>2025-05-17T14:37:02Z</time>
      </trkpt>
      <trkpt lat="43.758008982986212" lon="5.888117998838425">
        <ele>325.06</ele>
        <time>2025-05-17T14:37:03Z</time>
      </trkpt>
      <trkpt lat="43.758008982986212" lon="5.888239033520222">
        <ele>324.57999999999998</ele>
        <time>2025-05-17T14:37:04Z</time>
      </trkpt>
      <trkpt lat="43.758008982986212" lon="5.889054005965591">
        <ele>320.25999999999999</ele>
        <time>2025-05-17T14:37:10Z</time>
      </trkpt>
      <trkpt lat="43.758008982986212" lon="5.889189038425684">
        <ele>319.77999999999997</ele>
        <time>2025-05-17T14:37:11Z</time>
      </trkpt>
      <trkpt lat="43.757990961894393" lon="5.890633994713426">
        <ele>316.88999999999999</ele>
        <time>2025-05-17T14:37:21Z</time>
      </trkpt>
      <trkpt lat="43.758008982986212" lon="5.89178298600018">
        <ele>314.00999999999999</ele>
        <time>2025-05-17T14:37:27Z</time>
      </trkpt>
      <trkpt lat="43.75800596550107" lon="5.891864039003849">
        <ele>313.52999999999997</ele>
        <time>2025-05-17T14:37:28Z</time>
      </trkpt>
      <trkpt lat="43.757999008521438" lon="5.8920409809798">
        <ele>313.05000000000001</ele>
        <time>2025-05-17T14:37:29Z</time>
      </trkpt>
      <trkpt lat="43.757991967722774" lon="5.892205014824867">
        <ele>312.56999999999999</ele>
        <time>2025-05-17T14:37:30Z</time>
      </trkpt>
      <trkpt lat="43.757988028228283" lon="5.892377011477947">
        <ele>311.60000000000002</ele>
        <time>2025-05-17T14:37:31Z</time>
      </trkpt>
      <trkpt lat="43.757988028228283" lon="5.892551019787788">
        <ele>311.12</ele>
        <time>2025-05-17T14:37:32Z</time>
      </trkpt>
      <trkpt lat="43.757814019918442" lon="5.893756002187729">
        <ele>308.72000000000003</ele>
        <time>2025-05-17T14:37:39Z</time>
      </trkpt>
      <trkpt lat="43.757389979436994" lon="5.89513398706913">
        <ele>307.27999999999997</ele>
        <time>2025-05-17T14:37:48Z</time>
      </trkpt>
      <trkpt lat="43.757208008319139" lon="5.895738992840052">
        <ele>308.72000000000003</ele>
        <time>2025-05-17T14:37:52Z</time>
      </trkpt>
      <trkpt lat="43.757204990833998" lon="5.895910989493132">
        <ele>310.16000000000003</ele>
        <time>2025-05-17T14:37:53Z</time>
      </trkpt>
      <trkpt lat="43.757214965298772" lon="5.895989025011659">
        <ele>311.12</ele>
        <time>2025-05-17T14:37:54Z</time>
      </trkpt>
      <trkpt lat="43.757305992767215" lon="5.896170996129513">
        <ele>312.56999999999999</ele>
        <time>2025-05-17T14:37:55Z</time>
      </trkpt>
      <trkpt lat="43.757367013022304" lon="5.89629303663969">
        <ele>313.52999999999997</ele>
        <time>2025-05-17T14:37:56Z</time>
      </trkpt>
      <trkpt lat="43.757429961115122" lon="5.896418010815978">
        <ele>314.49000000000001</ele>
        <time>2025-05-17T14:37:57Z</time>
      </trkpt>
      <trkpt lat="43.757501039654016" lon="5.896528987213969">
        <ele>315.93000000000001</ele>
        <time>2025-05-17T14:37:58Z</time>
      </trkpt>
      <trkpt lat="43.757775966078043" lon="5.897051012143493">
        <ele>319.77999999999997</ele>
        <time>2025-05-17T14:38:02Z</time>
      </trkpt>
      <trkpt lat="43.758104033768177" lon="5.898524969816208">
        <ele>328.43000000000001</ele>
        <time>2025-05-17T14:38:11Z</time>
      </trkpt>
      <trkpt lat="43.758309977129102" lon="5.900364965200424">
        <ele>337.56</ele>
        <time>2025-05-17T14:38:22Z</time>
      </trkpt>
      <trkpt lat="43.758360017091036" lon="5.901957023888826">
        <ele>342.85000000000002</ele>
        <time>2025-05-17T14:38:31Z</time>
      </trkpt>
      <trkpt lat="43.758314000442624" lon="5.902151986956596">
        <ele>343.32999999999998</ele>
        <time>2025-05-17T14:38:32Z</time>
      </trkpt>
      <trkpt lat="43.758033961057663" lon="5.903914030641317">
        <ele>342.37</ele>
        <time>2025-05-17T14:38:40Z</time>
      </trkpt>
      <trkpt lat="43.757916027680039" lon="5.905609019100666">
        <ele>337.07999999999998</ele>
        <time>2025-05-17T14:38:47Z</time>
      </trkpt>
      <trkpt lat="43.75757597386837" lon="5.907957041636109">
        <ele>329.38999999999999</ele>
        <time>2025-05-17T14:38:57Z</time>
      </trkpt>
      <trkpt lat="43.757299035787582" lon="5.910614021122456">
        <ele>321.69999999999999</ele>
        <time>2025-05-17T14:39:08Z</time>
      </trkpt>
      <trkpt lat="43.756909025833011" lon="5.913730999454856">
        <ele>321.22000000000003</ele>
        <time>2025-05-17T14:39:22Z</time>
      </trkpt>
      <trkpt lat="43.756492026150227" lon="5.915659004822373">
        <ele>321.69999999999999</ele>
        <time>2025-05-17T14:39:32Z</time>
      </trkpt>
      <trkpt lat="43.756163958460093" lon="5.917381988838315">
        <ele>323.62</ele>
        <time>2025-05-17T14:39:40Z</time>
      </trkpt>
      <trkpt lat="43.75617896206677" lon="5.917588016018271">
        <ele>324.10000000000002</ele>
        <time>2025-05-17T14:39:41Z</time>
      </trkpt>
      <trkpt lat="43.756215004250407" lon="5.9177350345999">
        <ele>324.10000000000002</ele>
        <time>2025-05-17T14:39:42Z</time>
      </trkpt>
      <trkpt lat="43.756273007020354" lon="5.917881969362497">
        <ele>324.10000000000002</ele>
        <time>2025-05-17T14:39:43Z</time>
      </trkpt>
      <trkpt lat="43.756333021447062" lon="5.918030999600887">
        <ele>324.10000000000002</ele>
        <time>2025-05-17T14:39:44Z</time>
      </trkpt>
      <trkpt lat="43.75639203004539" lon="5.918180029839277">
        <ele>324.57999999999998</ele>
        <time>2025-05-17T14:39:45Z</time>
      </trkpt>
      <trkpt lat="43.756466964259744" lon="5.918307015672326">
        <ele>324.57999999999998</ele>
        <time>2025-05-17T14:39:46Z</time>
      </trkpt>
      <trkpt lat="43.756548017263412" lon="5.918440958485007">
        <ele>325.06</ele>
        <time>2025-05-17T14:39:47Z</time>
      </trkpt>
      <trkpt lat="43.757043974474072" lon="5.919252997264266">
        <ele>327.94999999999999</ele>
        <time>2025-05-17T14:39:53Z</time>
      </trkpt>
      <trkpt lat="43.757141958922148" lon="5.91943396255374">
        <ele>328.91000000000003</ele>
        <time>2025-05-17T14:39:54Z</time>
      </trkpt>
      <trkpt lat="43.757320996373892" lon="5.919839981943369">
        <ele>330.35000000000002</ele>
        <time>2025-05-17T14:39:56Z</time>
      </trkpt>
      <trkpt lat="43.757431972771883" lon="5.91999102383852">
        <ele>331.31</ele>
        <time>2025-05-17T14:39:57Z</time>
      </trkpt>
      <trkpt lat="43.757534986361861" lon="5.920106023550034">
        <ele>331.79000000000002</ele>
        <time>2025-05-17T14:39:58Z</time>
      </trkpt>
      <trkpt lat="43.757665995508432" lon="5.92014298774302">
        <ele>332.75</ele>
        <time>2025-05-17T14:39:59Z</time>
      </trkpt>
      <trkpt lat="43.757795998826623" lon="5.92016201466322">
        <ele>333.70999999999998</ele>
        <time>2025-05-17T14:40:00Z</time>
      </trkpt>
      <trkpt lat="43.757926002144814" lon="5.920105017721653">
        <ele>334.19999999999999</ele>
        <time>2025-05-17T14:40:01Z</time>
      </trkpt>
      <trkpt lat="43.758065979927778" lon="5.920045003294945">
        <ele>335.16000000000003</ele>
        <time>2025-05-17T14:40:02Z</time>
      </trkpt>
      <trkpt lat="43.758208975195885" lon="5.919982977211475">
        <ele>336.12</ele>
        <time>2025-05-17T14:40:03Z</time>
      </trkpt>
      <trkpt lat="43.758358005434275" lon="5.919918017461896">
        <ele>337.07999999999998</ele>
        <time>2025-05-17T14:40:04Z</time>
      </trkpt>
      <trkpt lat="43.758502006530762" lon="5.919897984713316">
        <ele>337.56</ele>
        <time>2025-05-17T14:40:05Z</time>
      </trkpt>
      <trkpt lat="43.758650030940771" lon="5.919906031340361">
        <ele>338.51999999999998</ele>
        <time>2025-05-17T14:40:06Z</time>
      </trkpt>
      <trkpt lat="43.758781040087342" lon="5.919913994148374">
        <ele>339</ele>
        <time>2025-05-17T14:40:07Z</time>
      </trkpt>
      <trkpt lat="43.758925041183829" lon="5.920009966939688">
        <ele>339.48000000000002</ele>
        <time>2025-05-17T14:40:08Z</time>
      </trkpt>
      <trkpt lat="43.759039035066962" lon="5.920085990801454">
        <ele>340.44</ele>
        <time>2025-05-17T14:40:09Z</time>
      </trkpt>
      <trkpt lat="43.759199967607856" lon="5.920241978019476">
        <ele>340.92000000000002</ele>
        <time>2025-05-17T14:40:10Z</time>
      </trkpt>
      <trkpt lat="43.759342040866613" lon="5.92037801630795">
        <ele>340.92000000000002</ele>
        <time>2025-05-17T14:40:11Z</time>
      </trkpt>
      <trkpt lat="43.759480006992817" lon="5.920511959120631">
        <ele>341.41000000000003</ele>
        <time>2025-05-17T14:40:12Z</time>
      </trkpt>
      <trkpt lat="43.759615961462259" lon="5.920642968267202">
        <ele>341.41000000000003</ele>
        <time>2025-05-17T14:40:13Z</time>
      </trkpt>
      <trkpt lat="43.759711012244225" lon="5.920778000727296">
        <ele>341.88999999999999</ele>
        <time>2025-05-17T14:40:14Z</time>
      </trkpt>
      <trkpt lat="43.759813020005822" lon="5.920965000987053">
        <ele>341.88999999999999</ele>
        <time>2025-05-17T14:40:15Z</time>
      </trkpt>
      <trkpt lat="43.7599160335958" lon="5.921154012903571">
        <ele>342.37</ele>
        <time>2025-05-17T14:40:16Z</time>
      </trkpt>
      <trkpt lat="43.760021980851889" lon="5.921347970142961">
        <ele>342.37</ele>
        <time>2025-05-17T14:40:17Z</time>
      </trkpt>
      <trkpt lat="43.760114014148712" lon="5.921555003151298">
        <ele>342.37</ele>
        <time>2025-05-17T14:40:18Z</time>
      </trkpt>
      <trkpt lat="43.760305037721992" lon="5.922017013654113">
        <ele>342.85000000000002</ele>
        <time>2025-05-17T14:40:20Z</time>
      </trkpt>
      <trkpt lat="43.76034501940012" lon="5.922245001420379">
        <ele>342.85000000000002</ele>
        <time>2025-05-17T14:40:21Z</time>
      </trkpt>
      <trkpt lat="43.76075497828424" lon="5.924392025917769">
        <ele>343.81</ele>
        <time>2025-05-17T14:40:29Z</time>
      </trkpt>
      <trkpt lat="43.761240961030126" lon="5.925816027447581">
        <ele>344.76999999999998</ele>
        <time>2025-05-17T14:40:35Z</time>
      </trkpt>
      <trkpt lat="43.761322014033794" lon="5.926006967201829">
        <ele>344.76999999999998</ele>
        <time>2025-05-17T14:40:36Z</time>
      </trkpt>
      <trkpt lat="43.76146400347352" lon="5.92620100826025">
        <ele>344.76999999999998</ele>
        <time>2025-05-17T14:40:37Z</time>
      </trkpt>
      <trkpt lat="43.761580009013414" lon="5.92628700658679">
        <ele>344.76999999999998</ele>
        <time>2025-05-17T14:40:38Z</time>
      </trkpt>
      <trkpt lat="43.761737002059817" lon="5.926402006298304">
        <ele>344.76999999999998</ele>
        <time>2025-05-17T14:40:39Z</time>
      </trkpt>
      <trkpt lat="43.761861976236105" lon="5.926580959931016">
        <ele>344.76999999999998</ele>
        <time>2025-05-17T14:40:40Z</time>
      </trkpt>
      <trkpt lat="43.76195702701807" lon="5.92675899155438">
        <ele>344.76999999999998</ele>
        <time>2025-05-17T14:40:41Z</time>
      </trkpt>
      <trkpt lat="43.762084012851119" lon="5.926885977387428">
        <ele>344.76999999999998</ele>
        <time>2025-05-17T14:40:42Z</time>
      </trkpt>
      <trkpt lat="43.762216027826071" lon="5.926968036219478">
        <ele>344.76999999999998</ele>
        <time>2025-05-17T14:40:43Z</time>
      </trkpt>
      <trkpt lat="43.762374026700854" lon="5.927006006240845">
        <ele>345.25</ele>
        <time>2025-05-17T14:40:44Z</time>
      </trkpt>
      <trkpt lat="43.762545017525554" lon="5.927045987918973">
        <ele>345.25</ele>
        <time>2025-05-17T14:40:45Z</time>
      </trkpt>
      <trkpt lat="43.762715002521873" lon="5.927115976810455">
        <ele>345.25</ele>
        <time>2025-05-17T14:40:46Z</time>
      </trkpt>
      <trkpt lat="43.762865960597992" lon="5.927242962643504">
        <ele>345.73000000000002</ele>
        <time>2025-05-17T14:40:47Z</time>
      </trkpt>
      <trkpt lat="43.762986995279789" lon="5.927424011752009">
        <ele>346.20999999999998</ele>
        <time>2025-05-17T14:40:48Z</time>
      </trkpt>
      <trkpt lat="43.76309403218329" lon="5.927627021446824">
        <ele>346.20999999999998</ele>
        <time>2025-05-17T14:40:49Z</time>
      </trkpt>
      <trkpt lat="43.763158991932869" lon="5.927859032526612">
        <ele>346.69</ele>
        <time>2025-05-17T14:40:50Z</time>
      </trkpt>
      <trkpt lat="43.763218000531197" lon="5.928067993372679">
        <ele>347.17000000000002</ele>
        <time>2025-05-17T14:40:51Z</time>
      </trkpt>
      <trkpt lat="43.76326602883637" lon="5.928239990025759">
        <ele>347.64999999999998</ele>
        <time>2025-05-17T14:40:52Z</time>
      </trkpt>
      <trkpt lat="43.763397037982941" lon="5.928324982523918">
        <ele>348.13</ele>
        <time>2025-05-17T14:40:53Z</time>
      </trkpt>
      <trkpt lat="43.76352796331048" lon="5.928409975022078">
        <ele>348.62</ele>
        <time>2025-05-17T14:40:54Z</time>
      </trkpt>
      <trkpt lat="43.763683028519154" lon="5.928493961691856">
        <ele>349.10000000000002</ele>
        <time>2025-05-17T14:40:55Z</time>
      </trkpt>
      <trkpt lat="43.763854019343853" lon="5.928554981946945">
        <ele>349.57999999999998</ele>
        <time>2025-05-17T14:40:56Z</time>
      </trkpt>
      <trkpt lat="43.764016041532159" lon="5.928621031343937">
        <ele>350.54000000000002</ele>
        <time>2025-05-17T14:40:57Z</time>
      </trkpt>
      <trkpt lat="43.76414998434484" lon="5.928761009126902">
        <ele>351.01999999999998</ele>
        <time>2025-05-17T14:40:58Z</time>
      </trkpt>
      <trkpt lat="43.764266995713115" lon="5.928937029093504">
        <ele>351.5</ele>
        <time>2025-05-17T14:40:59Z</time>
      </trkpt>
      <trkpt lat="43.764340002089739" lon="5.929177002981305">
        <ele>351.98000000000002</ele>
        <time>2025-05-17T14:41:00Z</time>
      </trkpt>
      <trkpt lat="43.76440797932446" lon="5.929434997960925">
        <ele>352.45999999999998</ele>
        <time>2025-05-17T14:41:01Z</time>
      </trkpt>
      <trkpt lat="43.764445027336478" lon="5.92970497906208">
        <ele>352.94</ele>
        <time>2025-05-17T14:41:02Z</time>
      </trkpt>
      <trkpt lat="43.764457013458014" lon="5.929995998740196">
        <ele>353.89999999999998</ele>
        <time>2025-05-17T14:41:03Z</time>
      </trkpt>
      <trkpt lat="43.764433041214943" lon="5.930289030075073">
        <ele>353.89999999999998</ele>
        <time>2025-05-17T14:41:04Z</time>
      </trkpt>
      <trkpt lat="43.764406973496079" lon="5.930588012561202">
        <ele>354.38</ele>
        <time>2025-05-17T14:41:05Z</time>
      </trkpt>
      <trkpt lat="43.764274958521128" lon="5.932166995480657">
        <ele>355.82999999999998</ele>
        <time>2025-05-17T14:41:11Z</time>
      </trkpt>
      <trkpt lat="43.764331033453345" lon="5.932364976033568">
        <ele>356.31</ele>
        <time>2025-05-17T14:41:12Z</time>
      </trkpt>
      <trkpt lat="43.764395993202925" lon="5.932504031807184">
        <ele>356.79000000000002</ele>
        <time>2025-05-17T14:41:13Z</time>
      </trkpt>
      <trkpt lat="43.764511998742819" lon="5.932622971013188">
        <ele>356.79000000000002</ele>
        <time>2025-05-17T14:41:14Z</time>
      </trkpt>
      <trkpt lat="43.764642002061009" lon="5.932758003473282">
        <ele>357.26999999999998</ele>
        <time>2025-05-17T14:41:15Z</time>
      </trkpt>
      <trkpt lat="43.764781979843974" lon="5.932902004569769">
        <ele>357.26999999999998</ele>
        <time>2025-05-17T14:41:16Z</time>
      </trkpt>
      <trkpt lat="43.764922963455319" lon="5.933048017323017">
        <ele>357.26999999999998</ele>
        <time>2025-05-17T14:41:17Z</time>
      </trkpt>
      <trkpt lat="43.765034023672342" lon="5.933237029239535">
        <ele>357.75</ele>
        <time>2025-05-17T14:41:18Z</time>
      </trkpt>
      <trkpt lat="43.765096971765161" lon="5.933459987863898">
        <ele>357.75</ele>
        <time>2025-05-17T14:41:19Z</time>
      </trkpt>
      <trkpt lat="43.765162015333772" lon="5.933690993115306">
        <ele>357.75</ele>
        <time>2025-05-17T14:41:20Z</time>
      </trkpt>
      <trkpt lat="43.765225969254971" lon="5.933916969224811">
        <ele>357.75</ele>
        <time>2025-05-17T14:41:21Z</time>
      </trkpt>
      <trkpt lat="43.765305010601878" lon="5.934099024161696">
        <ele>357.26999999999998</ele>
        <time>2025-05-17T14:41:22Z</time>
      </trkpt>
      <trkpt lat="43.765368964523077" lon="5.934227015823126">
        <ele>356.79000000000002</ele>
        <time>2025-05-17T14:41:23Z</time>
      </trkpt>
      <trkpt lat="43.765497040003538" lon="5.934295998886228">
        <ele>356.31</ele>
        <time>2025-05-17T14:41:24Z</time>
      </trkpt>
      <trkpt lat="43.765620002523065" lon="5.934357019141316">
        <ele>356.31</ele>
        <time>2025-05-17T14:41:25Z</time>
      </trkpt>
      <trkpt lat="43.765776995569468" lon="5.934378979727626">
        <ele>356.31</ele>
        <time>2025-05-17T14:41:26Z</time>
      </trkpt>
      <trkpt lat="43.765946980565786" lon="5.934402029961348">
        <ele>355.82999999999998</ele>
        <time>2025-05-17T14:41:27Z</time>
      </trkpt>
      <trkpt lat="43.766302959993482" lon="5.934475036337972">
        <ele>355.82999999999998</ele>
        <time>2025-05-17T14:41:29Z</time>
      </trkpt>
      <trkpt lat="43.766473028808832" lon="5.934574026614428">
        <ele>355.82999999999998</ele>
        <time>2025-05-17T14:41:30Z</time>
      </trkpt>
      <trkpt lat="43.766630021855235" lon="5.934716016054153">
        <ele>356.31</ele>
        <time>2025-05-17T14:41:31Z</time>
      </trkpt>
      <trkpt lat="43.766776034608483" lon="5.934894969686866">
        <ele>356.31</ele>
        <time>2025-05-17T14:41:32Z</time>
      </trkpt>
      <trkpt lat="43.76692296937108" lon="5.935078030452132">
        <ele>356.31</ele>
        <time>2025-05-17T14:41:33Z</time>
      </trkpt>
      <trkpt lat="43.767223041504622" lon="5.935451025143266">
        <ele>356.31</ele>
        <time>2025-05-17T14:41:35Z</time>
      </trkpt>
      <trkpt lat="43.767340974882245" lon="5.93567599542439">
        <ele>356.31</ele>
        <time>2025-05-17T14:41:36Z</time>
      </trkpt>
      <trkpt lat="43.767440970987082" lon="5.935893002897501">
        <ele>356.31</ele>
        <time>2025-05-17T14:41:37Z</time>
      </trkpt>
      <trkpt lat="43.767507020384073" lon="5.936123002320528">
        <ele>355.82999999999998</ele>
        <time>2025-05-17T14:41:38Z</time>
      </trkpt>
      <trkpt lat="43.767536021769047" lon="5.936372028663755">
        <ele>356.31</ele>
        <time>2025-05-17T14:41:39Z</time>
      </trkpt>
      <trkpt lat="43.767523029819131" lon="5.936606973409653">
        <ele>356.31</ele>
        <time>2025-05-17T14:41:40Z</time>
      </trkpt>
      <trkpt lat="43.76750199124217" lon="5.936842001974583">
        <ele>356.31</ele>
        <time>2025-05-17T14:41:41Z</time>
      </trkpt>
      <trkpt lat="43.767468966543674" lon="5.937062026932836">
        <ele>356.31</ele>
        <time>2025-05-17T14:41:42Z</time>
      </trkpt>
      <trkpt lat="43.767428984865546" lon="5.937270987778902">
        <ele>356.31</ele>
        <time>2025-05-17T14:41:43Z</time>
      </trkpt>
      <trkpt lat="43.767380034551024" lon="5.937468968331814">
        <ele>356.31</ele>
        <time>2025-05-17T14:41:44Z</time>
      </trkpt>
      <trkpt lat="43.767295964062214" lon="5.937881022691727">
        <ele>356.31</ele>
        <time>2025-05-17T14:41:46Z</time>
      </trkpt>
      <trkpt lat="43.76726696267724" lon="5.938083026558161">
        <ele>356.31</ele>
        <time>2025-05-17T14:41:47Z</time>
      </trkpt>
      <trkpt lat="43.767277020961046" lon="5.938280001282692">
        <ele>356.79000000000002</ele>
        <time>2025-05-17T14:41:48Z</time>
      </trkpt>
      <trkpt lat="43.767318008467555" lon="5.938472030684352">
        <ele>356.79000000000002</ele>
        <time>2025-05-17T14:41:49Z</time>
      </trkpt>
      <trkpt lat="43.767396965995431" lon="5.938655007630587">
        <ele>356.79000000000002</ele>
        <time>2025-05-17T14:41:50Z</time>
      </trkpt>
      <trkpt lat="43.76748195849359" lon="5.938850976526737">
        <ele>356.79000000000002</ele>
        <time>2025-05-17T14:41:51Z</time>
      </trkpt>
      <trkpt lat="43.767582038417459" lon="5.939049040898681">
        <ele>356.79000000000002</ele>
        <time>2025-05-17T14:41:52Z</time>
      </trkpt>
      <trkpt lat="43.767772978171706" lon="5.939446007832885">
        <ele>356.79000000000002</ele>
        <time>2025-05-17T14:41:54Z</time>
      </trkpt>
      <trkpt lat="43.767825029790401" lon="5.939665026962757">
        <ele>356.79000000000002</ele>
        <time>2025-05-17T14:41:55Z</time>
      </trkpt>
      <trkpt lat="43.767880015075207" lon="5.939891003072262">
        <ele>357.26999999999998</ele>
        <time>2025-05-17T14:41:56Z</time>
      </trkpt>
      <trkpt lat="43.767894012853503" lon="5.940127037465572">
        <ele>357.26999999999998</ele>
        <time>2025-05-17T14:41:57Z</time>
      </trkpt>
      <trkpt lat="43.76790901646018" lon="5.940363993868232">
        <ele>357.26999999999998</ele>
        <time>2025-05-17T14:41:58Z</time>
      </trkpt>
      <trkpt lat="43.768007000908256" lon="5.941172009333968">
        <ele>358.70999999999998</ele>
        <time>2025-05-17T14:42:02Z</time>
      </trkpt>
      <trkpt lat="43.768056035041809" lon="5.941358003765345">
        <ele>358.70999999999998</ele>
        <time>2025-05-17T14:42:03Z</time>
      </trkpt>
      <trkpt lat="43.768154019489884" lon="5.941513990983367">
        <ele>358.70999999999998</ele>
        <time>2025-05-17T14:42:04Z</time>
      </trkpt>
      <trkpt lat="43.768266001716256" lon="5.941694034263492">
        <ele>358.70999999999998</ele>
        <time>2025-05-17T14:42:05Z</time>
      </trkpt>
      <trkpt lat="43.768349988386035" lon="5.94179998151958">
        <ele>358.70999999999998</ele>
        <time>2025-05-17T14:42:06Z</time>
      </trkpt>
      <trkpt lat="43.769138976931572" lon="5.943086016923189">
        <ele>354.86000000000001</ele>
        <time>2025-05-17T14:42:16Z</time>
      </trkpt>
      <trkpt lat="43.769180970266461" lon="5.943233035504818">
        <ele>354.38</ele>
        <time>2025-05-17T14:42:17Z</time>
      </trkpt>
      <trkpt lat="43.769224975258112" lon="5.943387011066079">
        <ele>353.42000000000002</ele>
        <time>2025-05-17T14:42:18Z</time>
      </trkpt>
      <trkpt lat="43.769231010228395" lon="5.943554984405637">
        <ele>352.45999999999998</ele>
        <time>2025-05-17T14:42:19Z</time>
      </trkpt>
      <trkpt lat="43.769231010228395" lon="5.943723041564226">
        <ele>351.98000000000002</ele>
        <time>2025-05-17T14:42:20Z</time>
      </trkpt>
      <trkpt lat="43.769217012450099" lon="5.943887997418642">
        <ele>351.01999999999998</ele>
        <time>2025-05-17T14:42:21Z</time>
      </trkpt>
      <trkpt lat="43.769181976094842" lon="5.94405697658658">
        <ele>350.54000000000002</ele>
        <time>2025-05-17T14:42:22Z</time>
      </trkpt>
      <trkpt lat="43.769145011901855" lon="5.944232996553183">
        <ele>350.06</ele>
        <time>2025-05-17T14:42:23Z</time>
      </trkpt>
      <trkpt lat="43.769107963889837" lon="5.944413961842656">
        <ele>349.57999999999998</ele>
        <time>2025-05-17T14:42:24Z</time>
      </trkpt>
      <trkpt lat="43.769070999696851" lon="5.944597022607923">
        <ele>349.57999999999998</ele>
        <time>2025-05-17T14:42:25Z</time>
      </trkpt>
      <trkpt lat="43.769014002755284" lon="5.944757033139467">
        <ele>349.57999999999998</ele>
        <time>2025-05-17T14:42:26Z</time>
      </trkpt>
      <trkpt lat="43.768964968621731" lon="5.944904973730445">
        <ele>349.10000000000002</ele>
        <time>2025-05-17T14:42:27Z</time>
      </trkpt>
      <trkpt lat="43.768862960860133" lon="5.945349968969822">
        <ele>349.57999999999998</ele>
        <time>2025-05-17T14:42:30Z</time>
      </trkpt>
      <trkpt lat="43.768852986395359" lon="5.945510985329747">
        <ele>349.57999999999998</ele>
        <time>2025-05-17T14:42:31Z</time>
      </trkpt>
      <trkpt lat="43.768845023587346" lon="5.945681976154447">
        <ele>349.57999999999998</ele>
        <time>2025-05-17T14:42:32Z</time>
      </trkpt>
      <trkpt lat="43.768862960860133" lon="5.945849027484655">
        <ele>349.57999999999998</ele>
        <time>2025-05-17T14:42:33Z</time>
      </trkpt>
      <trkpt lat="43.768899003043771" lon="5.946009960025549">
        <ele>349.57999999999998</ele>
        <time>2025-05-17T14:42:34Z</time>
      </trkpt>
      <trkpt lat="43.768935967236757" lon="5.946169970557094">
        <ele>349.57999999999998</ele>
        <time>2025-05-17T14:42:35Z</time>
      </trkpt>
      <trkpt lat="43.768978966400027" lon="5.946319000795484">
        <ele>349.57999999999998</ele>
        <time>2025-05-17T14:42:36Z</time>
      </trkpt>
      <trkpt lat="43.769038980826735" lon="5.946463001891971">
        <ele>350.06</ele>
        <time>2025-05-17T14:42:37Z</time>
      </trkpt>
      <trkpt lat="43.769891001284122" lon="5.948090013116598">
        <ele>356.79000000000002</ele>
        <time>2025-05-17T14:42:49Z</time>
      </trkpt>
      <trkpt lat="43.770795995369554" lon="5.949229029938579">
        <ele>362.06999999999999</ele>
        <time>2025-05-17T14:42:57Z</time>
      </trkpt>
      <trkpt lat="43.771617002785206" lon="5.950020030140877">
        <ele>363.04000000000002</ele>
        <time>2025-05-17T14:43:03Z</time>
      </trkpt>
      <trkpt lat="43.77175597473979" lon="5.95017702318728">
        <ele>362.55000000000001</ele>
        <time>2025-05-17T14:43:04Z</time>
      </trkpt>
      <trkpt lat="43.771885978057981" lon="5.95035295933485">
        <ele>362.06999999999999</ele>
        <time>2025-05-17T14:43:05Z</time>
      </trkpt>
      <trkpt lat="43.772553009912372" lon="5.951763968914747">
        <ele>362.06999999999999</ele>
        <time>2025-05-17T14:43:12Z</time>
      </trkpt>
      <trkpt lat="43.773421961814165" lon="5.953957010060549">
        <ele>366.39999999999998</ele>
        <time>2025-05-17T14:43:22Z</time>
      </trkpt>
      <trkpt lat="43.77422402612865" lon="5.95578602515161">
        <ele>370.73000000000002</ele>
        <time>2025-05-17T14:43:31Z</time>
      </trkpt>
      <trkpt lat="43.774529965594411" lon="5.957264006137848">
        <ele>373.13</ele>
        <time>2025-05-17T14:43:37Z</time>
      </trkpt>
      <trkpt lat="43.774589980021119" lon="5.957511020824313">
        <ele>373.13</ele>
        <time>2025-05-17T14:43:38Z</time>
      </trkpt>
      <trkpt lat="43.774669021368027" lon="5.957748983055353">
        <ele>373.13</ele>
        <time>2025-05-17T14:43:39Z</time>
      </trkpt>
      <trkpt lat="43.775219963863492" lon="5.959580009803176">
        <ele>371.69</ele>
        <time>2025-05-17T14:43:46Z</time>
      </trkpt>
      <trkpt lat="43.775242008268833" lon="5.959866000339389">
        <ele>371.20999999999998</ele>
        <time>2025-05-17T14:43:47Z</time>
      </trkpt>
      <trkpt lat="43.775377962738276" lon="5.961223030462861">
        <ele>371.69</ele>
        <time>2025-05-17T14:43:52Z</time>
      </trkpt>
      <trkpt lat="43.775438982993364" lon="5.961475996300578">
        <ele>371.69</ele>
        <time>2025-05-17T14:43:53Z</time>
      </trkpt>
      <trkpt lat="43.775683986023068" lon="5.962543012574315">
        <ele>372.64999999999998</ele>
        <time>2025-05-17T14:43:57Z</time>
      </trkpt>
      <trkpt lat="43.7761589884758" lon="5.965019026771188">
        <ele>376.00999999999999</ele>
        <time>2025-05-17T14:44:06Z</time>
      </trkpt>
      <trkpt lat="43.776472974568605" lon="5.967212989926338">
        <ele>378.89999999999998</ele>
        <time>2025-05-17T14:44:14Z</time>
      </trkpt>
      <trkpt lat="43.776629967615008" lon="5.968814017251134">
        <ele>379.38</ele>
        <time>2025-05-17T14:44:20Z</time>
      </trkpt>
      <trkpt lat="43.776642037555575" lon="5.969062959775329">
        <ele>379.38</ele>
        <time>2025-05-17T14:44:21Z</time>
      </trkpt>
      <trkpt lat="43.776900032535195" lon="5.971261030063033">
        <ele>381.30000000000001</ele>
        <time>2025-05-17T14:44:30Z</time>
      </trkpt>
      <trkpt lat="43.777092983946204" lon="5.973611986264586">
        <ele>380.81999999999999</ele>
        <time>2025-05-17T14:44:39Z</time>
      </trkpt>
      <trkpt lat="43.777084015309811" lon="5.973882973194122">
        <ele>380.81999999999999</ele>
        <time>2025-05-17T14:44:40Z</time>
      </trkpt>
      <trkpt lat="43.777029030025005" lon="5.974143985658884">
        <ele>381.30000000000001</ele>
        <time>2025-05-17T14:44:41Z</time>
      </trkpt>
      <trkpt lat="43.776918975636363" lon="5.974872959777713">
        <ele>381.77999999999997</ele>
        <time>2025-05-17T14:44:44Z</time>
      </trkpt>
      <trkpt lat="43.776929033920169" lon="5.9751239977777">
        <ele>382.25999999999999</ele>
        <time>2025-05-17T14:44:45Z</time>
      </trkpt>
      <trkpt lat="43.776947977021337" lon="5.975376963615418">
        <ele>382.74000000000001</ele>
        <time>2025-05-17T14:44:46Z</time>
      </trkpt>
      <trkpt lat="43.777002962306142" lon="5.975612998008728">
        <ele>383.22000000000003</ele>
        <time>2025-05-17T14:44:47Z</time>
      </trkpt>
      <trkpt lat="43.777088038623333" lon="5.975835034623742">
        <ele>383.22000000000003</ele>
        <time>2025-05-17T14:44:48Z</time>
      </trkpt>
      <trkpt lat="43.777184011414647" lon="5.976054975762963">
        <ele>383.22000000000003</ele>
        <time>2025-05-17T14:44:49Z</time>
      </trkpt>
      <trkpt lat="43.777292976155877" lon="5.9762810356915">
        <ele>383.22000000000003</ele>
        <time>2025-05-17T14:44:50Z</time>
      </trkpt>
      <trkpt lat="43.7774040363729" lon="5.976510029286146">
        <ele>383.22000000000003</ele>
        <time>2025-05-17T14:44:51Z</time>
      </trkpt>
      <trkpt lat="43.777500009164214" lon="5.976738017052412">
        <ele>383.22000000000003</ele>
        <time>2025-05-17T14:44:52Z</time>
      </trkpt>
      <trkpt lat="43.777538985013962" lon="5.976996012032032">
        <ele>382.74000000000001</ele>
        <time>2025-05-17T14:44:53Z</time>
      </trkpt>
      <trkpt lat="43.777580978348851" lon="5.977264987304807">
        <ele>382.74000000000001</ele>
        <time>2025-05-17T14:44:54Z</time>
      </trkpt>
      <trkpt lat="43.77762196585536" lon="5.977534968405962">
        <ele>383.22000000000003</ele>
        <time>2025-05-17T14:44:55Z</time>
      </trkpt>
      <trkpt lat="43.777756998315454" lon="5.978520009666681">
        <ele>384.18000000000001</ele>
        <time>2025-05-17T14:44:59Z</time>
      </trkpt>
      <trkpt lat="43.777821036055684" lon="5.978728970512748">
        <ele>384.18000000000001</ele>
        <time>2025-05-17T14:45:00Z</time>
      </trkpt>
      <trkpt lat="43.77789999358356" lon="5.978929968550801">
        <ele>384.66000000000003</ele>
        <time>2025-05-17T14:45:01Z</time>
      </trkpt>
      <trkpt lat="43.777980962768197" lon="5.979138007387519">
        <ele>385.14999999999998</ele>
        <time>2025-05-17T14:45:02Z</time>
      </trkpt>
      <trkpt lat="43.778065033257008" lon="5.979351997375488">
        <ele>385.14999999999998</ele>
        <time>2025-05-17T14:45:03Z</time>
      </trkpt>
      <trkpt lat="43.778155976906419" lon="5.979557018727064">
        <ele>385.63</ele>
        <time>2025-05-17T14:45:04Z</time>
      </trkpt>
      <trkpt lat="43.778878999873996" lon="5.980900973081589">
        <ele>388.50999999999999</ele>
        <time>2025-05-17T14:45:10Z</time>
      </trkpt>
      <trkpt lat="43.779946016147733" lon="5.982893016189337">
        <ele>392.83999999999997</ele>
        <time>2025-05-17T14:45:19Z</time>
      </trkpt>
      <trkpt lat="43.780125975608826" lon="5.983300041407347">
        <ele>393.80000000000001</ele>
        <time>2025-05-17T14:45:21Z</time>
      </trkpt>
      <trkpt lat="43.780223038047552" lon="5.983519982546568">
        <ele>393.80000000000001</ele>
        <time>2025-05-17T14:45:22Z</time>
      </trkpt>
      <trkpt lat="43.780356980860233" lon="5.983713017776609">
        <ele>394.27999999999997</ele>
        <time>2025-05-17T14:45:23Z</time>
      </trkpt>
      <trkpt lat="43.780496958643198" lon="5.983899012207985">
        <ele>394.75999999999999</ele>
        <time>2025-05-17T14:45:24Z</time>
      </trkpt>
      <trkpt lat="43.780639031901956" lon="5.984087018296123">
        <ele>394.75999999999999</ele>
        <time>2025-05-17T14:45:25Z</time>
      </trkpt>
      <trkpt lat="43.780902978032827" lon="5.984484991058707">
        <ele>395.24000000000001</ele>
        <time>2025-05-17T14:45:27Z</time>
      </trkpt>
      <trkpt lat="43.781006997451186" lon="5.984706021845341">
        <ele>395.72000000000003</ele>
        <time>2025-05-17T14:45:28Z</time>
      </trkpt>
      <trkpt lat="43.781066006049514" lon="5.984940966591239">
        <ele>396.19999999999999</ele>
        <time>2025-05-17T14:45:29Z</time>
      </trkpt>
      <trkpt lat="43.78112300299108" lon="5.985179012641311">
        <ele>396.19999999999999</ele>
        <time>2025-05-17T14:45:30Z</time>
      </trkpt>
      <trkpt lat="43.781169019639492" lon="5.985408006235957">
        <ele>396.68000000000001</ele>
        <time>2025-05-17T14:45:31Z</time>
      </trkpt>
      <trkpt lat="43.781198021024466" lon="5.985664995387197">
        <ele>397.16000000000003</ele>
        <time>2025-05-17T14:45:32Z</time>
      </trkpt>
      <trkpt lat="43.7812290340662" lon="5.985944028943777">
        <ele>397.16000000000003</ele>
        <time>2025-05-17T14:45:33Z</time>
      </trkpt>
      <trkpt lat="43.781608985736966" lon="5.987907992675901">
        <ele>398.12</ele>
        <time>2025-05-17T14:45:40Z</time>
      </trkpt>
      <trkpt lat="43.782063033431768" lon="5.990380989387631">
        <ele>400.05000000000001</ele>
        <time>2025-05-17T14:45:49Z</time>
      </trkpt>
      <trkpt lat="43.78258103504777" lon="5.992056028917432">
        <ele>400.52999999999997</ele>
        <time>2025-05-17T14:45:56Z</time>
      </trkpt>
      <trkpt lat="43.782739033922553" lon="5.99250596947968">
        <ele>401.49000000000001</ele>
        <time>2025-05-17T14:45:58Z</time>
      </trkpt>
      <trkpt lat="43.78277700394392" lon="5.992735968902707">
        <ele>401.97000000000003</ele>
        <time>2025-05-17T14:45:59Z</time>
      </trkpt>
      <trkpt lat="43.782791001722217" lon="5.992964040488005">
        <ele>401.97000000000003</ele>
        <time>2025-05-17T14:46:00Z</time>
      </trkpt>
      <trkpt lat="43.782762000337243" lon="5.99319102242589">
        <ele>402.44999999999999</ele>
        <time>2025-05-17T14:46:01Z</time>
      </trkpt>
      <trkpt lat="43.782724030315876" lon="5.993424961343408">
        <ele>402.44999999999999</ele>
        <time>2025-05-17T14:46:02Z</time>
      </trkpt>
      <trkpt lat="43.782682958990335" lon="5.993674993515015">
        <ele>402.44999999999999</ele>
        <time>2025-05-17T14:46:03Z</time>
      </trkpt>
      <trkpt lat="43.782658986747265" lon="5.993942962959409">
        <ele>402.93000000000001</ele>
        <time>2025-05-17T14:46:04Z</time>
      </trkpt>
      <trkpt lat="43.782650018110871" lon="5.994226019829512">
        <ele>402.93000000000001</ele>
        <time>2025-05-17T14:46:05Z</time>
      </trkpt>
      <trkpt lat="43.782652029767632" lon="5.994513016194105">
        <ele>402.93000000000001</ele>
        <time>2025-05-17T14:46:06Z</time>
      </trkpt>
      <trkpt lat="43.782699974253774" lon="5.99480303004384">
        <ele>402.93000000000001</ele>
        <time>2025-05-17T14:46:07Z</time>
      </trkpt>
      <trkpt lat="43.782750014215708" lon="5.99510301835835">
        <ele>402.44999999999999</ele>
        <time>2025-05-17T14:46:08Z</time>
      </trkpt>
      <trkpt lat="43.783362982794642" lon="5.998718971386552">
        <ele>405.81</ele>
        <time>2025-05-17T14:46:20Z</time>
      </trkpt>
      <trkpt lat="43.783501032739878" lon="6.000083964318037">
        <ele>406.76999999999998</ele>
        <time>2025-05-17T14:46:25Z</time>
      </trkpt>
      <trkpt lat="43.783501032739878" lon="6.000331984832883">
        <ele>407.74000000000001</ele>
        <time>2025-05-17T14:46:26Z</time>
      </trkpt>
      <trkpt lat="43.783465996384621" lon="6.000589979812503">
        <ele>407.74000000000001</ele>
        <time>2025-05-17T14:46:27Z</time>
      </trkpt>
      <trkpt lat="43.783405981957912" lon="6.000842023640871">
        <ele>408.69999999999999</ele>
        <time>2025-05-17T14:46:28Z</time>
      </trkpt>
      <trkpt lat="43.783347979187965" lon="6.001089960336685">
        <ele>409.18000000000001</ele>
        <time>2025-05-17T14:46:29Z</time>
      </trkpt>
      <trkpt lat="43.783152010291815" lon="6.001937035471201">
        <ele>413.01999999999998</ele>
        <time>2025-05-17T14:46:34Z</time>
      </trkpt>
      <trkpt lat="43.782855039462447" lon="6.003324994817376">
        <ele>420.23000000000002</ele>
        <time>2025-05-17T14:46:45Z</time>
      </trkpt>
      <trkpt lat="43.782725958153605" lon="6.00414901971817">
        <ele>422.63999999999999</ele>
        <time>2025-05-17T14:46:52Z</time>
      </trkpt>
      <trkpt lat="43.782716989517212" lon="6.004270976409316">
        <ele>422.63999999999999</ele>
        <time>2025-05-17T14:46:53Z</time>
      </trkpt>
      <trkpt lat="43.782664015889168" lon="6.004993999376893">
        <ele>425.04000000000002</ele>
        <time>2025-05-17T14:46:59Z</time>
      </trkpt>
      <trkpt lat="43.782664015889168" lon="6.005111010745168">
        <ele>425.04000000000002</ele>
        <time>2025-05-17T14:47:00Z</time>
      </trkpt>
      <trkpt lat="43.782664015889168" lon="6.005235984921455">
        <ele>425.04000000000002</ele>
        <time>2025-05-17T14:47:01Z</time>
      </trkpt>
      <trkpt lat="43.782664015889168" lon="6.005379986017942">
        <ele>425.04000000000002</ele>
        <time>2025-05-17T14:47:02Z</time>
      </trkpt>
      <trkpt lat="43.782672984525561" lon="6.005491968244314">
        <ele>425.04000000000002</ele>
        <time>2025-05-17T14:47:03Z</time>
      </trkpt>
      <trkpt lat="43.782683964818716" lon="6.005624989047647">
        <ele>425.04000000000002</ele>
        <time>2025-05-17T14:47:04Z</time>
      </trkpt>
      <trkpt lat="43.78266996704042" lon="6.005751974880695">
        <ele>424.56</ele>
        <time>2025-05-17T14:47:05Z</time>
      </trkpt>
      <trkpt lat="43.782652029767632" lon="6.005884995684028">
        <ele>424.07999999999998</ele>
        <time>2025-05-17T14:47:06Z</time>
      </trkpt>
      <trkpt lat="43.78262797370553" lon="6.006013993173838">
        <ele>423.60000000000002</ele>
        <time>2025-05-17T14:47:07Z</time>
      </trkpt>
      <trkpt lat="43.782566031441092" lon="6.006247010082007">
        <ele>422.63999999999999</ele>
        <time>2025-05-17T14:47:09Z</time>
      </trkpt>
      <trkpt lat="43.782470980659127" lon="6.007273038849235">
        <ele>420.23000000000002</ele>
        <time>2025-05-17T14:47:19Z</time>
      </trkpt>
      <trkpt lat="43.782470980659127" lon="6.007384015247226">
        <ele>419.75</ele>
        <time>2025-05-17T14:47:20Z</time>
      </trkpt>
      <trkpt lat="43.782463017851114" lon="6.007503038272262">
        <ele>419.75</ele>
        <time>2025-05-17T14:47:21Z</time>
      </trkpt>
      <trkpt lat="43.782447008416057" lon="6.007618959993124">
        <ele>419.75</ele>
        <time>2025-05-17T14:47:22Z</time>
      </trkpt>
      <trkpt lat="43.78243200480938" lon="6.007734965533018">
        <ele>419.26999999999998</ele>
        <time>2025-05-17T14:47:23Z</time>
      </trkpt>
      <trkpt lat="43.782417001202703" lon="6.007851976901293">
        <ele>419.26999999999998</ele>
        <time>2025-05-17T14:47:24Z</time>
      </trkpt>
      <trkpt lat="43.782395962625742" lon="6.007968988269568">
        <ele>418.79000000000002</ele>
        <time>2025-05-17T14:47:25Z</time>
      </trkpt>
      <trkpt lat="43.78228398039937" lon="6.008434016257525">
        <ele>418.79000000000002</ele>
        <time>2025-05-17T14:47:29Z</time>
      </trkpt>
      <trkpt lat="43.781905034556985" lon="6.00962701253593">
        <ele>419.75</ele>
        <time>2025-05-17T14:47:39Z</time>
      </trkpt>
      <trkpt lat="43.781819958239794" lon="6.009827004745603">
        <ele>420.23000000000002</ele>
        <time>2025-05-17T14:47:41Z</time>
      </trkpt>
      <trkpt lat="43.781783999875188" lon="6.009913003072143">
        <ele>420.70999999999998</ele>
        <time>2025-05-17T14:47:42Z</time>
      </trkpt>
      <trkpt lat="43.781751981005073" lon="6.009989026933909">
        <ele>421.19</ele>
        <time>2025-05-17T14:47:43Z</time>
      </trkpt>
      <trkpt lat="43.781797997653484" lon="6.010127998888493">
        <ele>421.68000000000001</ele>
        <time>2025-05-17T14:47:44Z</time>
      </trkpt>
      <trkpt lat="43.781843008473516" lon="6.010219026356936">
        <ele>422.16000000000003</ele>
        <time>2025-05-17T14:47:45Z</time>
      </trkpt>
      <trkpt lat="43.781906040385365" lon="6.010308964177966">
        <ele>422.16000000000003</ele>
        <time>2025-05-17T14:47:46Z</time>
      </trkpt>
      <trkpt lat="43.781992960721254" lon="6.01035799831152">
        <ele>422.16000000000003</ele>
        <time>2025-05-17T14:47:47Z</time>
      </trkpt>
      <trkpt lat="43.7820890173316" lon="6.01035799831152">
        <ele>422.63999999999999</ele>
        <time>2025-05-17T14:47:48Z</time>
      </trkpt>
      <trkpt lat="43.782182978466153" lon="6.010324973613024">
        <ele>423.12</ele>
        <time>2025-05-17T14:47:49Z</time>
      </trkpt>
      <trkpt lat="43.782285992056131" lon="6.010279962792993">
        <ele>423.12</ele>
        <time>2025-05-17T14:47:50Z</time>
      </trkpt>
      <trkpt lat="43.78262696787715" lon="6.010207962244749">
        <ele>425.51999999999998</ele>
        <time>2025-05-17T14:47:53Z</time>
      </trkpt>
      <trkpt lat="43.782739033922553" lon="6.010239981114864">
        <ele>426.48000000000002</ele>
        <time>2025-05-17T14:47:54Z</time>
      </trkpt>
      <trkpt lat="43.782813968136907" lon="6.01031499914825">
        <ele>426.95999999999998</ele>
        <time>2025-05-17T14:47:55Z</time>
      </trkpt>
      <trkpt lat="43.782870965078473" lon="6.010425975546241">
        <ele>427.92000000000002</ele>
        <time>2025-05-17T14:47:56Z</time>
      </trkpt>
      <trkpt lat="43.78288596868515" lon="6.010571988299489">
        <ele>428.88999999999999</ele>
        <time>2025-05-17T14:47:57Z</time>
      </trkpt>
      <trkpt lat="43.782897032797337" lon="6.010735016316176">
        <ele>429.85000000000002</ele>
        <time>2025-05-17T14:47:58Z</time>
      </trkpt>
      <trkpt lat="43.782908013090491" lon="6.010911036282778">
        <ele>430.81</ele>
        <time>2025-05-17T14:47:59Z</time>
      </trkpt>
      <trkpt lat="43.782921005040407" lon="6.011130977421999">
        <ele>431.76999999999998</ele>
        <time>2025-05-17T14:48:00Z</time>
      </trkpt>
      <trkpt lat="43.782945983111858" lon="6.011309009045363">
        <ele>432.73000000000002</ele>
        <time>2025-05-17T14:48:01Z</time>
      </trkpt>
      <trkpt lat="43.782972972840071" lon="6.011511012911797">
        <ele>433.69</ele>
        <time>2025-05-17T14:48:02Z</time>
      </trkpt>
      <trkpt lat="43.783010020852089" lon="6.011715028434992">
        <ele>434.17000000000002</ele>
        <time>2025-05-17T14:48:03Z</time>
      </trkpt>
      <trkpt lat="43.783052014186978" lon="6.01190404035151">
        <ele>435.13</ele>
        <time>2025-05-17T14:48:04Z</time>
      </trkpt>
      <trkpt lat="43.783093001693487" lon="6.012091040611267">
        <ele>436.10000000000002</ele>
        <time>2025-05-17T14:48:05Z</time>
      </trkpt>
      <trkpt lat="43.783136000856757" lon="6.012282986193895">
        <ele>436.57999999999998</ele>
        <time>2025-05-17T14:48:06Z</time>
      </trkpt>
      <trkpt lat="43.783531961962581" lon="6.01401099935174">
        <ele>440.89999999999998</ele>
        <time>2025-05-17T14:48:14Z</time>
      </trkpt>
      <trkpt lat="43.784123975783587" lon="6.016161041334271">
        <ele>443.79000000000002</ele>
        <time>2025-05-17T14:48:22Z</time>
      </trkpt>
      <trkpt lat="43.78458296880126" lon="6.018011011183262">
        <ele>447.63</ele>
        <time>2025-05-17T14:48:29Z</time>
      </trkpt>
      <trkpt lat="43.785173976793885" lon="6.019770037382841">
        <ele>449.55000000000001</ele>
        <time>2025-05-17T14:48:36Z</time>
      </trkpt>
      <trkpt lat="43.785711005330086" lon="6.021237038075924">
        <ele>449.55000000000001</ele>
        <time>2025-05-17T14:48:42Z</time>
      </trkpt>
      <trkpt lat="43.786590015515685" lon="6.023372998461127">
        <ele>450.02999999999997</ele>
        <time>2025-05-17T14:48:51Z</time>
      </trkpt>
      <trkpt lat="43.787080021575093" lon="6.024332977831364">
        <ele>450.51999999999998</ele>
        <time>2025-05-17T14:48:55Z</time>
      </trkpt>
      <trkpt lat="43.788012005388737" lon="6.025997959077358">
        <ele>451</ele>
        <time>2025-05-17T14:49:02Z</time>
      </trkpt>
      <trkpt lat="43.788205962628126" lon="6.026468016207218">
        <ele>451</ele>
        <time>2025-05-17T14:49:04Z</time>
      </trkpt>
      <trkpt lat="43.788935020565987" lon="6.028135009109974">
        <ele>451</ele>
        <time>2025-05-17T14:49:11Z</time>
      </trkpt>
      <trkpt lat="43.790073031559587" lon="6.029831003397703">
        <ele>451.48000000000002</ele>
        <time>2025-05-17T14:49:19Z</time>
      </trkpt>
      <trkpt lat="43.790228012949228" lon="6.029990008100867">
        <ele>451.95999999999998</ele>
        <time>2025-05-17T14:49:20Z</time>
      </trkpt>
      <trkpt lat="43.79068398848176" lon="6.030469033867121">
        <ele>452.44</ele>
        <time>2025-05-17T14:49:23Z</time>
      </trkpt>
      <trkpt lat="43.790818015113473" lon="6.030679000541568">
        <ele>452.44</ele>
        <time>2025-05-17T14:49:24Z</time>
      </trkpt>
      <trkpt lat="43.790943995118141" lon="6.030913023278117">
        <ele>452.44</ele>
        <time>2025-05-17T14:49:25Z</time>
      </trkpt>
      <trkpt lat="43.791351020336151" lon="6.031619030982256">
        <ele>452.92000000000002</ele>
        <time>2025-05-17T14:49:28Z</time>
      </trkpt>
      <trkpt lat="43.791537014767528" lon="6.031781975179911">
        <ele>453.39999999999998</ele>
        <time>2025-05-17T14:49:29Z</time>
      </trkpt>
      <trkpt lat="43.792246039956808" lon="6.032430985942483">
        <ele>455.80000000000001</ele>
        <time>2025-05-17T14:49:33Z</time>
      </trkpt>
      <trkpt lat="43.792390963062644" lon="6.032621003687382">
        <ele>456.27999999999997</ele>
        <time>2025-05-17T14:49:34Z</time>
      </trkpt>
      <trkpt lat="43.79253001883626" lon="6.032813033089042">
        <ele>456.75999999999999</ele>
        <time>2025-05-17T14:49:35Z</time>
      </trkpt>
      <trkpt lat="43.793414980173111" lon="6.034134021028876">
        <ele>455.31999999999999</ele>
        <time>2025-05-17T14:49:42Z</time>
      </trkpt>
      <trkpt lat="43.794390968978405" lon="6.035308996215463">
        <ele>460.13</ele>
        <time>2025-05-17T14:49:49Z</time>
      </trkpt>
      <trkpt lat="43.795377016067505" lon="6.037174975499511">
        <ele>460.13</ele>
        <time>2025-05-17T14:49:57Z</time>
      </trkpt>
      <trkpt lat="43.796351999044418" lon="6.038987981155515">
        <ele>459.17000000000002</ele>
        <time>2025-05-17T14:50:05Z</time>
      </trkpt>
      <trkpt lat="43.796949964016676" lon="6.040421035140753">
        <ele>458.69</ele>
        <time>2025-05-17T14:50:11Z</time>
      </trkpt>
      <trkpt lat="43.797512976452708" lon="6.042581973597407">
        <ele>458.20999999999998</ele>
        <time>2025-05-17T14:50:19Z</time>
      </trkpt>
      <trkpt lat="43.797698970884085" lon="6.043356964364648">
        <ele>459.17000000000002</ele>
        <time>2025-05-17T14:50:22Z</time>
      </trkpt>
      <trkpt lat="43.797783963382244" lon="6.043599033728242">
        <ele>459.64999999999998</ele>
        <time>2025-05-17T14:50:23Z</time>
      </trkpt>
      <trkpt lat="43.797883037477732" lon="6.043821992352605">
        <ele>460.13</ele>
        <time>2025-05-17T14:50:24Z</time>
      </trkpt>
      <trkpt lat="43.797998037189245" lon="6.044044028967619">
        <ele>460.61000000000001</ele>
        <time>2025-05-17T14:50:25Z</time>
      </trkpt>
      <trkpt lat="43.798139020800591" lon="6.04424100369215">
        <ele>461.08999999999997</ele>
        <time>2025-05-17T14:50:26Z</time>
      </trkpt>
      <trkpt lat="43.799114003777504" lon="6.045596022158861">
        <ele>461.56999999999999</ele>
        <time>2025-05-17T14:50:33Z</time>
      </trkpt>
      <trkpt lat="43.800526019185781" lon="6.047896016389132">
        <ele>463.00999999999999</ele>
        <time>2025-05-17T14:50:44Z</time>
      </trkpt>
      <trkpt lat="43.801850024610758" lon="6.049715979024768">
        <ele>468.77999999999997</ele>
        <time>2025-05-17T14:50:54Z</time>
      </trkpt>
      <trkpt lat="43.803003961220384" lon="6.051171999424696">
        <ele>473.58999999999997</ele>
        <time>2025-05-17T14:51:02Z</time>
      </trkpt>
      <trkpt lat="43.804164016619325" lon="6.052665989845991">
        <ele>476.47000000000003</ele>
        <time>2025-05-17T14:51:10Z</time>
      </trkpt>
      <trkpt lat="43.805840983986855" lon="6.054499028250575">
        <ele>482.24000000000001</ele>
        <time>2025-05-17T14:51:21Z</time>
      </trkpt>
      <trkpt lat="43.806152958422899" lon="6.054825000464916">
        <ele>483.19999999999999</ele>
        <time>2025-05-17T14:51:23Z</time>
      </trkpt>
      <trkpt lat="43.806288996711373" lon="6.054990040138364">
        <ele>483.68000000000001</ele>
        <time>2025-05-17T14:51:24Z</time>
      </trkpt>
      <trkpt lat="43.806393016129732" lon="6.055212998762727">
        <ele>484.16000000000003</ele>
        <time>2025-05-17T14:51:25Z</time>
      </trkpt>
      <trkpt lat="43.806492006406188" lon="6.055422965437174">
        <ele>484.63999999999999</ele>
        <time>2025-05-17T14:51:26Z</time>
      </trkpt>
      <trkpt lat="43.806588985025883" lon="6.055631004273891">
        <ele>485.12</ele>
        <time>2025-05-17T14:51:27Z</time>
      </trkpt>
      <trkpt lat="43.80664698779583" lon="6.055858992040157">
        <ele>485.60000000000002</ele>
        <time>2025-05-17T14:51:28Z</time>
      </trkpt>
      <trkpt lat="43.806696021929383" lon="6.0561019834131">
        <ele>485.60000000000002</ele>
        <time>2025-05-17T14:51:29Z</time>
      </trkpt>
      <trkpt lat="43.807107992470264" lon="6.058235010132194">
        <ele>484.16000000000003</ele>
        <time>2025-05-17T14:51:37Z</time>
      </trkpt>
      <trkpt lat="43.807579977437854" lon="6.060236021876335">
        <ele>483.19999999999999</ele>
        <time>2025-05-17T14:51:45Z</time>
      </trkpt>
      <trkpt lat="43.807673016563058" lon="6.060738014057279">
        <ele>483.68000000000001</ele>
        <time>2025-05-17T14:51:47Z</time>
      </trkpt>
      <trkpt lat="43.807864040136337" lon="6.062378017231822">
        <ele>487.05000000000001</ele>
        <time>2025-05-17T14:51:53Z</time>
      </trkpt>
      <trkpt lat="43.80821599625051" lon="6.064272997900844">
        <ele>490.41000000000003</ele>
        <time>2025-05-17T14:52:01Z</time>
      </trkpt>
      <trkpt lat="43.808283973485231" lon="6.064496040344238">
        <ele>489.93000000000001</ele>
        <time>2025-05-17T14:52:02Z</time>
      </trkpt>
      <trkpt lat="43.808809015899897" lon="6.066201003268361">
        <ele>488.97000000000003</ele>
        <time>2025-05-17T14:52:09Z</time>
      </trkpt>
      <trkpt lat="43.808887973427773" lon="6.066458998247981">
        <ele>488.97000000000003</ele>
        <time>2025-05-17T14:52:10Z</time>
      </trkpt>
      <trkpt lat="43.808971038088202" lon="6.066727973520756">
        <ele>489.44999999999999</ele>
        <time>2025-05-17T14:52:11Z</time>
      </trkpt>
      <trkpt lat="43.80986999720335" lon="6.068792017176747">
        <ele>494.25999999999999</ele>
        <time>2025-05-17T14:52:20Z</time>
      </trkpt>
      <trkpt lat="43.809932023286819" lon="6.069044983014464">
        <ele>494.74000000000001</ele>
        <time>2025-05-17T14:52:21Z</time>
      </trkpt>
      <trkpt lat="43.809987008571625" lon="6.069317981600761">
        <ele>495.22000000000003</ele>
        <time>2025-05-17T14:52:22Z</time>
      </trkpt>
      <trkpt lat="43.810181971639395" lon="6.070113005116582">
        <ele>497.13999999999999</ele>
        <time>2025-05-17T14:52:25Z</time>
      </trkpt>
      <trkpt lat="43.810284985229373" lon="6.070360019803047">
        <ele>498.10000000000002</ele>
        <time>2025-05-17T14:52:26Z</time>
      </trkpt>
      <trkpt lat="43.810396967455745" lon="6.07060301117599">
        <ele>498.57999999999998</ele>
        <time>2025-05-17T14:52:27Z</time>
      </trkpt>
      <trkpt lat="43.810523031279445" lon="6.070829993113875">
        <ele>498.57999999999998</ele>
        <time>2025-05-17T14:52:28Z</time>
      </trkpt>
      <trkpt lat="43.810657979920506" lon="6.071054041385651">
        <ele>499.06</ele>
        <time>2025-05-17T14:52:29Z</time>
      </trkpt>
      <trkpt lat="43.810925027355552" lon="6.071498030796647">
        <ele>499.06</ele>
        <time>2025-05-17T14:52:31Z</time>
      </trkpt>
      <trkpt lat="43.811852987855673" lon="6.073109032586217">
        <ele>502.91000000000003</ele>
        <time>2025-05-17T14:52:39Z</time>
      </trkpt>
      <trkpt lat="43.812150964513421" lon="6.073872959241271">
        <ele>504.82999999999998</ele>
        <time>2025-05-17T14:52:43Z</time>
      </trkpt>
      <trkpt lat="43.812204021960497" lon="6.074089966714382">
        <ele>504.82999999999998</ele>
        <time>2025-05-17T14:52:44Z</time>
      </trkpt>
      <trkpt lat="43.812742978334427" lon="6.076818024739623">
        <ele>506.26999999999998</ele>
        <time>2025-05-17T14:52:55Z</time>
      </trkpt>
      <trkpt lat="43.813001979142427" lon="6.078989021480084">
        <ele>507.70999999999998</ele>
        <time>2025-05-17T14:53:04Z</time>
      </trkpt>
      <trkpt lat="43.81304900161922" lon="6.079210974276066">
        <ele>507.70999999999998</ele>
        <time>2025-05-17T14:53:05Z</time>
      </trkpt>
      <trkpt lat="43.813390983268619" lon="6.080503966659308">
        <ele>508.19</ele>
        <time>2025-05-17T14:53:12Z</time>
      </trkpt>
      <trkpt lat="43.813696000725031" lon="6.081198994070292">
        <ele>508.19</ele>
        <time>2025-05-17T14:53:18Z</time>
      </trkpt>
      <trkpt lat="43.814219031482935" lon="6.082285037264228">
        <ele>507.23000000000002</ele>
        <time>2025-05-17T14:53:28Z</time>
      </trkpt>
      <trkpt lat="43.814732003957033" lon="6.083364961668849">
        <ele>508.19</ele>
        <time>2025-05-17T14:53:36Z</time>
      </trkpt>
      <trkpt lat="43.815011959522963" lon="6.084588970988989">
        <ele>511.56</ele>
        <time>2025-05-17T14:53:42Z</time>
      </trkpt>
      <trkpt lat="43.815118996426463" lon="6.085829995572567">
        <ele>515.39999999999998</ele>
        <time>2025-05-17T14:53:49Z</time>
      </trkpt>
      <trkpt lat="43.81517599336803" lon="6.087633026763797">
        <ele>518.28999999999996</ele>
        <time>2025-05-17T14:54:00Z</time>
      </trkpt>
      <trkpt lat="43.815194014459848" lon="6.088141975924373">
        <ele>518.76999999999998</ele>
        <time>2025-05-17T14:54:03Z</time>
      </trkpt>
      <trkpt lat="43.815461983904243" lon="6.089562037959695">
        <ele>520.21000000000004</ele>
        <time>2025-05-17T14:54:12Z</time>
      </trkpt>
      <trkpt lat="43.815534990280867" lon="6.089825984090567">
        <ele>520.69000000000005</ele>
        <time>2025-05-17T14:54:14Z</time>
      </trkpt>
      <trkpt lat="43.815628029406071" lon="6.090037962421775">
        <ele>521.64999999999998</ele>
        <time>2025-05-17T14:54:16Z</time>
      </trkpt>
      <trkpt lat="43.815613025799394" lon="6.090174000710249">
        <ele>522.13</ele>
        <time>2025-05-17T14:54:17Z</time>
      </trkpt>
      <trkpt lat="43.815641021355987" lon="6.090257987380028">
        <ele>522.13</ele>
        <time>2025-05-17T14:54:18Z</time>
      </trkpt>
      <trkpt lat="43.815702963620424" lon="6.090267039835453">
        <ele>522.61000000000001</ele>
        <time>2025-05-17T14:54:19Z</time>
      </trkpt>
      <trkpt lat="43.815730037167668" lon="6.090267039835453">
        <ele>522.61000000000001</ele>
        <time>2025-05-17T14:54:20Z</time>
      </trkpt>
      <trkpt lat="43.815837996080518" lon="6.090166959911585">
        <ele>523.09000000000003</ele>
        <time>2025-05-17T14:54:21Z</time>
      </trkpt>
      <trkpt lat="43.815918965265155" lon="6.09017601236701">
        <ele>523.09000000000003</ele>
        <time>2025-05-17T14:54:22Z</time>
      </trkpt>
      <trkpt lat="43.816009992733598" lon="6.090187998488545">
        <ele>523.58000000000004</ele>
        <time>2025-05-17T14:54:23Z</time>
      </trkpt>
      <trkpt lat="43.816182995215058" lon="6.090215994045138">
        <ele>523.58000000000004</ele>
        <time>2025-05-17T14:54:25Z</time>
      </trkpt>
      <trkpt lat="43.816260024905205" lon="6.090227980166674">
        <ele>524.05999999999995</ele>
        <time>2025-05-17T14:54:26Z</time>
      </trkpt>
      <trkpt lat="43.817107016220689" lon="6.090365024283528">
        <ele>526.46000000000004</ele>
        <time>2025-05-17T14:54:36Z</time>
      </trkpt>
      <trkpt lat="43.81734699010849" lon="6.090402994304895">
        <ele>526.94000000000005</ele>
        <time>2025-05-17T14:54:39Z</time>
      </trkpt>
      <trkpt lat="43.817738005891442" lon="6.090467032045126">
        <ele>528.38</ele>
        <time>2025-05-17T14:54:45Z</time>
      </trkpt>
      <trkpt lat="43.817842025309801" lon="6.090483041480184">
        <ele>528.38</ele>
        <time>2025-05-17T14:54:47Z</time>
      </trkpt>
      <trkpt lat="43.817887036129832" lon="6.090491004288197">
        <ele>528.86000000000001</ele>
        <time>2025-05-17T14:54:48Z</time>
      </trkpt>
      <trkpt lat="43.817912014201283" lon="6.090495027601719">
        <ele>528.86000000000001</ele>
        <time>2025-05-17T14:54:49Z</time>
      </trkpt>
      <trkpt lat="43.817961970344186" lon="6.090502990409732">
        <ele>529.34000000000003</ele>
        <time>2025-05-17T14:54:55Z</time>
      </trkpt>
      <trkpt lat="43.818003963679075" lon="6.090654032304883">
        <ele>529.34000000000003</ele>
        <time>2025-05-17T14:54:56Z</time>
      </trkpt>
      <trkpt lat="43.817906985059381" lon="6.090633999556303">
        <ele>529.34000000000003</ele>
        <time>2025-05-17T14:54:57Z</time>
      </trkpt>
      <trkpt lat="43.81788301281631" lon="6.09069200232625">
        <ele>529.34000000000003</ele>
        <time>2025-05-17T14:54:58Z</time>
      </trkpt>
      <trkpt lat="43.817853005602956" lon="6.090762997046113">
        <ele>529.34000000000003</ele>
        <time>2025-05-17T14:54:59Z</time>
      </trkpt>
      <trkpt lat="43.817826015874743" lon="6.090832985937595">
        <ele>529.34000000000003</ele>
        <time>2025-05-17T14:55:00Z</time>
      </trkpt>
      <trkpt lat="43.817759966477752" lon="6.091006994247437">
        <ele>529.34000000000003</ele>
        <time>2025-05-17T14:55:03Z</time>
      </trkpt>
      <trkpt lat="43.817746974527836" lon="6.091039013117552">
        <ele>529.34000000000003</ele>
        <time>2025-05-17T14:55:04Z</time>
      </trkpt>
      <trkpt lat="43.817723002284765" lon="6.091125011444092">
        <ele>529.34000000000003</ele>
        <time>2025-05-17T14:55:05Z</time>
      </trkpt>
      <trkpt lat="43.817522004246712" lon="6.091765975579619">
        <ele>528.86000000000001</ele>
        <time>2025-05-17T14:55:13Z</time>
      </trkpt>
      <trkpt lat="43.817461989820004" lon="6.091937972232699">
        <ele>528.38</ele>
        <time>2025-05-17T14:55:18Z</time>
      </trkpt>
      <trkpt lat="43.817446986213326" lon="6.091982983052731">
        <ele>528.38</ele>
        <time>2025-05-17T14:55:19Z</time>
      </trkpt>
      <trkpt lat="43.817429970949888" lon="6.092070993036032">
        <ele>527.89999999999998</ele>
        <time>2025-05-17T14:55:20Z</time>
      </trkpt>
      <trkpt lat="43.817465007305145" lon="6.092081973329186">
        <ele>527.89999999999998</ele>
        <time>2025-05-17T14:55:21Z</time>
      </trkpt>
      <trkpt lat="43.817501971498132" lon="6.092094965279102">
        <ele>527.41999999999996</ele>
        <time>2025-05-17T14:55:22Z</time>
      </trkpt>
      <trkpt lat="43.817661982029676" lon="6.092148022726178">
        <ele>526.46000000000004</ele>
        <time>2025-05-17T14:55:27Z</time>
      </trkpt>
      <trkpt lat="43.817683020606637" lon="6.092154979705811">
        <ele>526.46000000000004</ele>
        <time>2025-05-17T14:55:28Z</time>
      </trkpt>
      <trkpt lat="43.817683020606637" lon="6.092154979705811">
        <ele>526.46000000000004</ele>
        <time>2025-05-17T14:55:29Z</time>
      </trkpt>
      <trkpt lat="43.817683020606637" lon="6.092154979705811">
        <ele>525.98000000000002</ele>
        <time>2025-05-17T14:55:30Z</time>
      </trkpt>
      <trkpt lat="43.817683020606637" lon="6.092154979705811">
        <ele>525.98000000000002</ele>
        <time>2025-05-17T14:55:31Z</time>
      </trkpt>
      <trkpt lat="43.817683020606637" lon="6.092154979705811">
        <ele>524.53999999999996</ele>
        <time>2025-05-17T14:55:43Z</time>
      </trkpt>
      <trkpt lat="43.817729959264398" lon="6.092071998864412">
        <ele>534.14999999999998</ele>
        <time>2025-05-17T14:58:07Z</time>
      </trkpt>
      <trkpt lat="43.817750997841358" lon="6.092007039114833">
        <ele>529.82000000000005</ele>
        <time>2025-05-17T14:58:10Z</time>
      </trkpt>
      <trkpt lat="43.817731970921159" lon="6.091989018023014">
        <ele>527.41999999999996</ele>
        <time>2025-05-17T14:58:24Z</time>
      </trkpt>
      <trkpt lat="43.817704981192946" lon="6.092133019119501">
        <ele>524.05999999999995</ele>
        <time>2025-05-17T14:58:35Z</time>
      </trkpt>
      <trkpt lat="43.817681008949876" lon="6.092136958613992">
        <ele>522.61000000000001</ele>
        <time>2025-05-17T14:58:44Z</time>
      </trkpt>
      <trkpt lat="43.817631974816322" lon="6.092137964442372">
        <ele>523.09000000000003</ele>
        <time>2025-05-17T14:58:46Z</time>
      </trkpt>
      <trkpt lat="43.817609008401632" lon="6.092130001634359">
        <ele>523.09000000000003</ele>
        <time>2025-05-17T14:58:47Z</time>
      </trkpt>
      <trkpt lat="43.817581012845039" lon="6.092121032997966">
        <ele>523.09000000000003</ele>
        <time>2025-05-17T14:58:48Z</time>
      </trkpt>
      <trkpt lat="43.817552011460066" lon="6.092111980542541">
        <ele>523.58000000000004</ele>
        <time>2025-05-17T14:58:49Z</time>
      </trkpt>
      <trkpt lat="43.817499037832022" lon="6.092093959450722">
        <ele>528.86000000000001</ele>
        <time>2025-05-17T14:59:00Z</time>
      </trkpt>
      <trkpt lat="43.817499037832022" lon="6.092093959450722">
        <ele>533.19000000000005</ele>
        <time>2025-05-17T14:59:32Z</time>
      </trkpt>
      <trkpt lat="43.817499037832022" lon="6.092093959450722">
        <ele>534.14999999999998</ele>
        <time>2025-05-17T15:00:03Z</time>
      </trkpt>
      <trkpt lat="43.817499037832022" lon="6.092093959450722">
        <ele>534.14999999999998</ele>
        <time>2025-05-17T15:00:14Z</time>
      </trkpt>
      <trkpt lat="43.817436005920172" lon="6.092073004692793">
        <ele>534.14999999999998</ele>
        <time>2025-05-17T15:00:25Z</time>
      </trkpt>
      <trkpt lat="43.817424019798636" lon="6.092077028006315">
        <ele>533.66999999999996</ele>
        <time>2025-05-17T15:00:26Z</time>
      </trkpt>
      <trkpt lat="43.81741002202034" lon="6.092138970270753">
        <ele>533.66999999999996</ele>
        <time>2025-05-17T15:00:27Z</time>
      </trkpt>
      <trkpt lat="43.817395018413663" lon="6.092203008010984">
        <ele>533.19000000000005</ele>
        <time>2025-05-17T15:00:28Z</time>
      </trkpt>
      <trkpt lat="43.817380014806986" lon="6.092269979417324">
        <ele>532.71000000000004</ele>
        <time>2025-05-17T15:00:29Z</time>
      </trkpt>
      <trkpt lat="43.817362999543548" lon="6.092340974137187">
        <ele>532.23000000000002</ele>
        <time>2025-05-17T15:00:30Z</time>
      </trkpt>
      <trkpt lat="43.81734699010849" lon="6.092414986342192">
        <ele>532.23000000000002</ele>
        <time>2025-05-17T15:00:31Z</time>
      </trkpt>
      <trkpt lat="43.817327041178942" lon="6.092500984668732">
        <ele>531.75</ele>
        <time>2025-05-17T15:00:32Z</time>
      </trkpt>
      <trkpt lat="43.817297033965588" lon="6.09268999658525">
        <ele>531.26999999999998</ele>
        <time>2025-05-17T15:00:34Z</time>
      </trkpt>
      <trkpt lat="43.817272977903485" lon="6.092779012396932">
        <ele>531.26999999999998</ele>
        <time>2025-05-17T15:00:35Z</time>
      </trkpt>
      <trkpt lat="43.817251017317176" lon="6.092859981581569">
        <ele>530.78999999999996</ele>
        <time>2025-05-17T15:00:36Z</time>
      </trkpt>
      <trkpt lat="43.817211035639048" lon="6.093031978234649">
        <ele>530.29999999999995</ele>
        <time>2025-05-17T15:00:38Z</time>
      </trkpt>
      <trkpt lat="43.817188991233706" lon="6.093142032623291">
        <ele>529.82000000000005</ele>
        <time>2025-05-17T15:00:39Z</time>
      </trkpt>
      <trkpt lat="43.817203994840384" lon="6.093573030084372">
        <ele>528.86000000000001</ele>
        <time>2025-05-17T15:00:44Z</time>
      </trkpt>
      <trkpt lat="43.817211035639048" lon="6.093763969838619">
        <ele>527.89999999999998</ele>
        <time>2025-05-17T15:00:45Z</time>
      </trkpt>
      <trkpt lat="43.817212041467428" lon="6.093767993152142">
        <ele>527.41999999999996</ele>
        <time>2025-05-17T15:00:46Z</time>
      </trkpt>
      <trkpt lat="43.817273983731866" lon="6.09393403865397">
        <ele>525.5</ele>
        <time>2025-05-17T15:00:50Z</time>
      </trkpt>
      <trkpt lat="43.817317988723516" lon="6.093978965654969">
        <ele>525.5</ele>
        <time>2025-05-17T15:00:51Z</time>
      </trkpt>
      <trkpt lat="43.817317988723516" lon="6.093978965654969">
        <ele>525.5</ele>
        <time>2025-05-17T15:00:52Z</time>
      </trkpt>
      <trkpt lat="43.817317988723516" lon="6.093978965654969">
        <ele>525.98000000000002</ele>
        <time>2025-05-17T15:00:53Z</time>
      </trkpt>
      <trkpt lat="43.817317988723516" lon="6.093978965654969">
        <ele>525.98000000000002</ele>
        <time>2025-05-17T15:00:54Z</time>
      </trkpt>
      <trkpt lat="43.817340033128858" lon="6.093902019783855">
        <ele>525.98000000000002</ele>
        <time>2025-05-17T15:00:55Z</time>
      </trkpt>
      <trkpt lat="43.817341960966587" lon="6.093895984813571">
        <ele>525.98000000000002</ele>
        <time>2025-05-17T15:00:59Z</time>
      </trkpt>
      <trkpt lat="43.817349001765251" lon="6.0938720125705">
        <ele>526.46000000000004</ele>
        <time>2025-05-17T15:01:00Z</time>
      </trkpt>
      <trkpt lat="43.817359982058406" lon="6.093830019235611">
        <ele>526.46000000000004</ele>
        <time>2025-05-17T15:01:01Z</time>
      </trkpt>
      <trkpt lat="43.817381020635366" lon="6.093774028122425">
        <ele>526.94000000000005</ele>
        <time>2025-05-17T15:01:02Z</time>
      </trkpt>
      <trkpt lat="43.817401975393295" lon="6.093718037009239">
        <ele>526.94000000000005</ele>
        <time>2025-05-17T15:01:03Z</time>
      </trkpt>
      <trkpt lat="43.817423013970256" lon="6.093661040067673">
        <ele>526.94000000000005</ele>
        <time>2025-05-17T15:01:04Z</time>
      </trkpt>
      <trkpt lat="43.817443968728185" lon="6.093603959307075">
        <ele>526.94000000000005</ele>
        <time>2025-05-17T15:01:05Z</time>
      </trkpt>
      <trkpt lat="43.817466013133526" lon="6.093544028699398">
        <ele>526.94000000000005</ele>
        <time>2025-05-17T15:01:06Z</time>
      </trkpt>
      <trkpt lat="43.817487973719835" lon="6.09348401427269">
        <ele>526.94000000000005</ele>
        <time>2025-05-17T15:01:07Z</time>
      </trkpt>
      <trkpt lat="43.817509012296796" lon="6.093428023159504">
        <ele>526.94000000000005</ele>
        <time>2025-05-17T15:01:08Z</time>
      </trkpt>
      <trkpt lat="43.817574977874756" lon="6.09324898570776">
        <ele>526.46000000000004</ele>
        <time>2025-05-17T15:01:09Z</time>
      </trkpt>
      <trkpt lat="43.817703975364566" lon="6.093034995719791">
        <ele>525.5</ele>
        <time>2025-05-17T15:01:17Z</time>
      </trkpt>
      <trkpt lat="43.817703975364566" lon="6.093034995719791">
        <ele>525.5</ele>
        <time>2025-05-17T15:01:18Z</time>
      </trkpt>
      <trkpt lat="43.817703975364566" lon="6.093034995719791">
        <ele>525.5</ele>
        <time>2025-05-17T15:01:19Z</time>
      </trkpt>
      <trkpt lat="43.817704981192946" lon="6.093025021255016">
        <ele>525.98000000000002</ele>
        <time>2025-05-17T15:01:20Z</time>
      </trkpt>
      <trkpt lat="43.817710010334849" lon="6.092988979071379">
        <ele>525.98000000000002</ele>
        <time>2025-05-17T15:01:21Z</time>
      </trkpt>
      <trkpt lat="43.817726019769907" lon="6.092862999066711">
        <ele>525.98000000000002</ele>
        <time>2025-05-17T15:01:22Z</time>
      </trkpt>
      <trkpt lat="43.817726019769907" lon="6.092862999066711">
        <ele>526.46000000000004</ele>
        <time>2025-05-17T15:01:23Z</time>
      </trkpt>
      <trkpt lat="43.817726019769907" lon="6.092862999066711">
        <ele>526.46000000000004</ele>
        <time>2025-05-17T15:01:24Z</time>
      </trkpt>
      <trkpt lat="43.817728031426668" lon="6.092844977974892">
        <ele>526.94000000000005</ele>
        <time>2025-05-17T15:01:25Z</time>
      </trkpt>
      <trkpt lat="43.817744962871075" lon="6.09271002933383">
        <ele>526.94000000000005</ele>
        <time>2025-05-17T15:01:28Z</time>
      </trkpt>
      <trkpt lat="43.817752003669739" lon="6.092663006857038">
        <ele>526.94000000000005</ele>
        <time>2025-05-17T15:01:29Z</time>
      </trkpt>
      <trkpt lat="43.817758960649371" lon="6.092601986601949">
        <ele>526.94000000000005</ele>
        <time>2025-05-17T15:01:30Z</time>
      </trkpt>
      <trkpt lat="43.817766001448035" lon="6.092550018802285">
        <ele>526.94000000000005</ele>
        <time>2025-05-17T15:01:31Z</time>
      </trkpt>
      <trkpt lat="43.817772958427668" lon="6.092496961355209">
        <ele>526.94000000000005</ele>
        <time>2025-05-17T15:01:32Z</time>
      </trkpt>
      <trkpt lat="43.817779999226332" lon="6.092444993555546">
        <ele>526.46000000000004</ele>
        <time>2025-05-17T15:01:33Z</time>
      </trkpt>
      <trkpt lat="43.817786034196615" lon="6.092398976907134">
        <ele>526.46000000000004</ele>
        <time>2025-05-17T15:01:34Z</time>
      </trkpt>
      <trkpt lat="43.817791985347867" lon="6.092352038249373">
        <ele>526.46000000000004</ele>
        <time>2025-05-17T15:01:35Z</time>
      </trkpt>
      <trkpt lat="43.817809000611305" lon="6.092213988304138">
        <ele>525.98000000000002</ele>
        <time>2025-05-17T15:01:38Z</time>
      </trkpt>
      <trkpt lat="43.817812018096447" lon="6.092197978869081">
        <ele>525.98000000000002</ele>
        <time>2025-05-17T15:01:39Z</time>
      </trkpt>
      <trkpt lat="43.817812018096447" lon="6.092197978869081">
        <ele>525.5</ele>
        <time>2025-05-17T15:01:40Z</time>
      </trkpt>
      <trkpt lat="43.817859962582588" lon="6.092087002471089">
        <ele>525.5</ele>
        <time>2025-05-17T15:01:41Z</time>
      </trkpt>
      <trkpt lat="43.817876977846026" lon="6.092047020792961">
        <ele>525.5</ele>
        <time>2025-05-17T15:01:42Z</time>
      </trkpt>
      <trkpt lat="43.817892987281084" lon="6.092009972780943">
        <ele>525.5</ele>
        <time>2025-05-17T15:01:43Z</time>
      </trkpt>
      <trkpt lat="43.817908996716142" lon="6.091975020244718">
        <ele>525.5</ele>
        <time>2025-05-17T15:01:44Z</time>
      </trkpt>
      <trkpt lat="43.817899022251368" lon="6.091906959190965">
        <ele>531.75</ele>
        <time>2025-05-18T06:03:46Z</time>
      </trkpt>
      <trkpt lat="43.817898016422987" lon="6.091907965019345">
        <ele>531.26999999999998</ele>
        <time>2025-05-18T06:04:40Z</time>
      </trkpt>
      <trkpt lat="43.817899022251368" lon="6.091907965019345">
        <ele>531.26999999999998</ele>
        <time>2025-05-18T06:05:19Z</time>
      </trkpt>
      <trkpt lat="43.817897010594606" lon="6.091907965019345">
        <ele>531.26999999999998</ele>
        <time>2025-05-18T06:06:04Z</time>
      </trkpt>
      <trkpt lat="43.817894998937845" lon="6.091922968626022">
        <ele>530.78999999999996</ele>
        <time>2025-05-18T06:06:11Z</time>
      </trkpt>
      <trkpt lat="43.817903967574239" lon="6.091986000537872">
        <ele>530.78999999999996</ele>
        <time>2025-05-18T06:06:13Z</time>
      </trkpt>
      <trkpt lat="43.817858034744859" lon="6.092091025784612">
        <ele>530.29999999999995</ele>
        <time>2025-05-18T06:06:15Z</time>
      </trkpt>
      <trkpt lat="43.817833978682756" lon="6.092145005241036">
        <ele>530.29999999999995</ele>
        <time>2025-05-18T06:06:16Z</time>
      </trkpt>
      <trkpt lat="43.817812018096447" lon="6.092197978869081">
        <ele>529.82000000000005</ele>
        <time>2025-05-18T06:06:24Z</time>
      </trkpt>
      <trkpt lat="43.817812018096447" lon="6.092197978869081">
        <ele>528.86000000000001</ele>
        <time>2025-05-18T06:06:32Z</time>
      </trkpt>
      <trkpt lat="43.817553017288446" lon="6.092111980542541">
        <ele>525.01999999999998</ele>
        <time>2025-05-18T06:06:46Z</time>
      </trkpt>
      <trkpt lat="43.817464001476765" lon="6.092081973329186">
        <ele>523.09000000000003</ele>
        <time>2025-05-18T06:06:58Z</time>
      </trkpt>
      <trkpt lat="43.817425025627017" lon="6.092068981379271">
        <ele>523.09000000000003</ele>
        <time>2025-05-18T06:07:06Z</time>
      </trkpt>
      <trkpt lat="43.817425025627017" lon="6.092068981379271">
        <ele>523.58000000000004</ele>
        <time>2025-05-18T06:07:07Z</time>
      </trkpt>
      <trkpt lat="43.817425025627017" lon="6.092068981379271">
        <ele>524.05999999999995</ele>
        <time>2025-05-18T06:07:23Z</time>
      </trkpt>
      <trkpt lat="43.817409016191959" lon="6.092139976099134">
        <ele>525.01999999999998</ele>
        <time>2025-05-18T06:07:37Z</time>
      </trkpt>
      <trkpt lat="43.817321006208658" lon="6.092525962740183">
        <ele>524.53999999999996</ele>
        <time>2025-05-18T06:07:46Z</time>
      </trkpt>
      <trkpt lat="43.817209023982286" lon="6.093042958527803">
        <ele>522.61000000000001</ele>
        <time>2025-05-18T06:07:56Z</time>
      </trkpt>
      <trkpt lat="43.8171979598701" lon="6.093099033460021">
        <ele>522.13</ele>
        <time>2025-05-18T06:07:57Z</time>
      </trkpt>
      <trkpt lat="43.817189997062087" lon="6.093156030401588">
        <ele>522.13</ele>
        <time>2025-05-18T06:07:58Z</time>
      </trkpt>
      <trkpt lat="43.817188991233706" lon="6.093142032623291">
        <ele>521.64999999999998</ele>
        <time>2025-05-18T06:07:59Z</time>
      </trkpt>
      <trkpt lat="43.817193014547229" lon="6.093253009021282">
        <ele>521.64999999999998</ele>
        <time>2025-05-18T06:08:00Z</time>
      </trkpt>
      <trkpt lat="43.81719502620399" lon="6.093309000134468">
        <ele>521.16999999999996</ele>
        <time>2025-05-18T06:08:01Z</time>
      </trkpt>
      <trkpt lat="43.817197037860751" lon="6.093367002904415">
        <ele>521.16999999999996</ele>
        <time>2025-05-18T06:08:02Z</time>
      </trkpt>
      <trkpt lat="43.817202989012003" lon="6.093548974022269">
        <ele>520.21000000000004</ele>
        <time>2025-05-18T06:08:05Z</time>
      </trkpt>
      <trkpt lat="43.817208018153906" lon="6.09367897734046">
        <ele>520.21000000000004</ele>
        <time>2025-05-18T06:08:07Z</time>
      </trkpt>
      <trkpt lat="43.817254034802318" lon="6.0938720125705">
        <ele>520.69000000000005</ele>
        <time>2025-05-18T06:08:11Z</time>
      </trkpt>
      <trkpt lat="43.817254034802318" lon="6.0938720125705">
        <ele>521.64999999999998</ele>
        <time>2025-05-18T06:08:17Z</time>
      </trkpt>
      <trkpt lat="43.817254034802318" lon="6.0938720125705">
        <ele>521.64999999999998</ele>
        <time>2025-05-18T06:08:18Z</time>
      </trkpt>
      <trkpt lat="43.817266020923853" lon="6.093908976763487">
        <ele>522.13</ele>
        <time>2025-05-18T06:08:19Z</time>
      </trkpt>
      <trkpt lat="43.817297033965588" lon="6.09400000423193">
        <ele>522.13</ele>
        <time>2025-05-18T06:08:20Z</time>
      </trkpt>
      <trkpt lat="43.817297033965588" lon="6.09400000423193">
        <ele>522.13</ele>
        <time>2025-05-18T06:08:21Z</time>
      </trkpt>
      <trkpt lat="43.817297033965588" lon="6.094007967039943">
        <ele>522.13</ele>
        <time>2025-05-18T06:08:22Z</time>
      </trkpt>
      <trkpt lat="43.817284964025021" lon="6.094188010320067">
        <ele>523.09000000000003</ele>
        <time>2025-05-18T06:08:32Z</time>
      </trkpt>
      <trkpt lat="43.81728395819664" lon="6.094213994219899">
        <ele>523.09000000000003</ele>
        <time>2025-05-18T06:08:33Z</time>
      </trkpt>
      <trkpt lat="43.817274989560246" lon="6.09434399753809">
        <ele>522.61000000000001</ele>
        <time>2025-05-18T06:08:34Z</time>
      </trkpt>
      <trkpt lat="43.817288987338543" lon="6.09434500336647">
        <ele>522.13</ele>
        <time>2025-05-18T06:08:35Z</time>
      </trkpt>
      <trkpt lat="43.817335003986955" lon="6.094350032508373">
        <ele>522.13</ele>
        <time>2025-05-18T06:08:36Z</time>
      </trkpt>
      <trkpt lat="43.817378003150225" lon="6.094353972002864">
        <ele>521.64999999999998</ele>
        <time>2025-05-18T06:08:37Z</time>
      </trkpt>
      <trkpt lat="43.817455032840371" lon="6.094303010031581">
        <ele>521.16999999999996</ele>
        <time>2025-05-18T06:08:38Z</time>
      </trkpt>
      <trkpt lat="43.817479005083442" lon="6.094346009194851">
        <ele>520.69000000000005</ele>
        <time>2025-05-18T06:08:39Z</time>
      </trkpt>
      <trkpt lat="43.817507000640035" lon="6.09440702944994">
        <ele>520.21000000000004</ele>
        <time>2025-05-18T06:08:40Z</time>
      </trkpt>
      <trkpt lat="43.817531978711486" lon="6.094465032219887">
        <ele>519.73000000000002</ele>
        <time>2025-05-18T06:08:41Z</time>
      </trkpt>
      <trkpt lat="43.817557962611318" lon="6.094524962827563">
        <ele>518.76999999999998</ele>
        <time>2025-05-18T06:08:42Z</time>
      </trkpt>
      <trkpt lat="43.817588975653052" lon="6.094592018052936">
        <ele>518.28999999999996</ele>
        <time>2025-05-18T06:08:43Z</time>
      </trkpt>
      <trkpt lat="43.817620994523168" lon="6.094663012772799">
        <ele>517.80999999999995</ele>
        <time>2025-05-18T06:08:44Z</time>
      </trkpt>
      <trkpt lat="43.817655025050044" lon="6.094738030806184">
        <ele>517.33000000000004</ele>
        <time>2025-05-18T06:08:45Z</time>
      </trkpt>
      <trkpt lat="43.817686038091779" lon="6.094825034961104">
        <ele>516.85000000000002</ele>
        <time>2025-05-18T06:08:46Z</time>
      </trkpt>
      <trkpt lat="43.817723002284765" lon="6.094911033287644">
        <ele>516.37</ele>
        <time>2025-05-18T06:08:47Z</time>
      </trkpt>
      <trkpt lat="43.817764995619655" lon="6.094981022179127">
        <ele>515.88</ele>
        <time>2025-05-18T06:08:48Z</time>
      </trkpt>
      <trkpt lat="43.817804977297783" lon="6.095047993585467">
        <ele>515.39999999999998</ele>
        <time>2025-05-18T06:08:49Z</time>
      </trkpt>
      <trkpt lat="43.817843031138182" lon="6.095112031325698">
        <ele>514.91999999999996</ele>
        <time>2025-05-18T06:08:50Z</time>
      </trkpt>
      <trkpt lat="43.817879995331168" lon="6.095171961933374">
        <ele>514.91999999999996</ele>
        <time>2025-05-18T06:08:51Z</time>
      </trkpt>
      <trkpt lat="43.817922994494438" lon="6.095233988016844">
        <ele>514.91999999999996</ele>
        <time>2025-05-18T06:08:52Z</time>
      </trkpt>
      <trkpt lat="43.817983008921146" lon="6.095309006050229">
        <ele>514.91999999999996</ele>
        <time>2025-05-18T06:08:53Z</time>
      </trkpt>
      <trkpt lat="43.818001030012965" lon="6.095356028527021">
        <ele>514.91999999999996</ele>
        <time>2025-05-18T06:08:54Z</time>
      </trkpt>
      <trkpt lat="43.818046962842345" lon="6.09548301436007">
        <ele>514.91999999999996</ele>
        <time>2025-05-18T06:08:55Z</time>
      </trkpt>
      <trkpt lat="43.818032965064049" lon="6.095577981323004">
        <ele>514.91999999999996</ele>
        <time>2025-05-18T06:08:56Z</time>
      </trkpt>
      <trkpt lat="43.818018967285752" lon="6.095674959942699">
        <ele>515.39999999999998</ele>
        <time>2025-05-18T06:08:57Z</time>
      </trkpt>
      <trkpt lat="43.818004969507456" lon="6.095772022381425">
        <ele>515.39999999999998</ele>
        <time>2025-05-18T06:08:58Z</time>
      </trkpt>
      <trkpt lat="43.817988038063049" lon="6.095881992951036">
        <ele>515.88</ele>
        <time>2025-05-18T06:08:59Z</time>
      </trkpt>
      <trkpt lat="43.817961970344186" lon="6.096060024574399">
        <ele>516.37</ele>
        <time>2025-05-18T06:09:00Z</time>
      </trkpt>
      <trkpt lat="43.817964987829328" lon="6.096091037616134">
        <ele>516.37</ele>
        <time>2025-05-18T06:09:01Z</time>
      </trkpt>
      <trkpt lat="43.817975968122482" lon="6.096203019842506">
        <ele>516.85000000000002</ele>
        <time>2025-05-18T06:09:02Z</time>
      </trkpt>
      <trkpt lat="43.817999018356204" lon="6.096551036462188">
        <ele>519.73000000000002</ele>
        <time>2025-05-18T06:09:05Z</time>
      </trkpt>
      <trkpt lat="43.818004969507456" lon="6.09666695818305">
        <ele>521.16999999999996</ele>
        <time>2025-05-18T06:09:06Z</time>
      </trkpt>
      <trkpt lat="43.818060960620642" lon="6.097665997222066">
        <ele>526.94000000000005</ele>
        <time>2025-05-18T06:09:14Z</time>
      </trkpt>
      <trkpt lat="43.818068001419306" lon="6.097785020247102">
        <ele>526.94000000000005</ele>
        <time>2025-05-18T06:09:15Z</time>
      </trkpt>
      <trkpt lat="43.818112006410956" lon="6.099051022902131">
        <ele>529.82000000000005</ele>
        <time>2025-05-18T06:09:25Z</time>
      </trkpt>
      <trkpt lat="43.818112006410956" lon="6.099184965714812">
        <ele>530.29999999999995</ele>
        <time>2025-05-18T06:09:26Z</time>
      </trkpt>
      <trkpt lat="43.818112006410956" lon="6.099313041195273">
        <ele>530.29999999999995</ele>
        <time>2025-05-18T06:09:27Z</time>
      </trkpt>
      <trkpt lat="43.818145031109452" lon="6.100121978670359">
        <ele>532.23000000000002</ele>
        <time>2025-05-18T06:09:33Z</time>
      </trkpt>
      <trkpt lat="43.81816104054451" lon="6.100264973938465">
        <ele>532.71000000000004</ele>
        <time>2025-05-18T06:09:34Z</time>
      </trkpt>
      <trkpt lat="43.818178977817297" lon="6.100405035540462">
        <ele>533.66999999999996</ele>
        <time>2025-05-18T06:09:35Z</time>
      </trkpt>
      <trkpt lat="43.818554989993572" lon="6.101909000426531">
        <ele>540.88</ele>
        <time>2025-05-18T06:09:46Z</time>
      </trkpt>
      <trkpt lat="43.818997973576188" lon="6.103508016094565">
        <ele>550.00999999999999</ele>
        <time>2025-05-18T06:09:57Z</time>
      </trkpt>
      <trkpt lat="43.819187991321087" lon="6.104135988280177">
        <ele>553.38</ele>
        <time>2025-05-18T06:10:01Z</time>
      </trkpt>
      <trkpt lat="43.81923601962626" lon="6.10429298132658">
        <ele>553.86000000000001</ele>
        <time>2025-05-18T06:10:02Z</time>
      </trkpt>
      <trkpt lat="43.819281030446291" lon="6.104443017393351">
        <ele>554.34000000000003</ele>
        <time>2025-05-18T06:10:03Z</time>
      </trkpt>
      <trkpt lat="43.819573977962136" lon="6.106306985020638">
        <ele>554.82000000000005</ele>
        <time>2025-05-18T06:10:14Z</time>
      </trkpt>
      <trkpt lat="43.819728037342429" lon="6.107913041487336">
        <ele>557.70000000000005</ele>
        <time>2025-05-18T06:10:24Z</time>
      </trkpt>
      <trkpt lat="43.819742035120726" lon="6.108061987906694">
        <ele>558.17999999999995</ele>
        <time>2025-05-18T06:10:25Z</time>
      </trkpt>
      <trkpt lat="43.819785034283996" lon="6.108364993706346">
        <ele>559.13999999999999</ele>
        <time>2025-05-18T06:10:27Z</time>
      </trkpt>
      <trkpt lat="43.820254001766443" lon="6.110059982165694">
        <ele>562.02999999999997</ele>
        <time>2025-05-18T06:10:38Z</time>
      </trkpt>
      <trkpt lat="43.820434967055917" lon="6.11086598597467">
        <ele>562.99000000000001</ele>
        <time>2025-05-18T06:10:43Z</time>
      </trkpt>
      <trkpt lat="43.820454999804497" lon="6.111032031476498">
        <ele>562.99000000000001</ele>
        <time>2025-05-18T06:10:44Z</time>
      </trkpt>
      <trkpt lat="43.82074199616909" lon="6.112987026572228">
        <ele>568.75999999999999</ele>
        <time>2025-05-18T06:10:56Z</time>
      </trkpt>
      <trkpt lat="43.821247005835176" lon="6.114677991718054">
        <ele>570.20000000000005</ele>
        <time>2025-05-18T06:11:07Z</time>
      </trkpt>
      <trkpt lat="43.821296961978078" lon="6.114836996421218">
        <ele>570.20000000000005</ele>
        <time>2025-05-18T06:11:08Z</time>
      </trkpt>
      <trkpt lat="43.821787973865867" lon="6.116803977638483">
        <ele>571.63999999999999</ele>
        <time>2025-05-18T06:11:18Z</time>
      </trkpt>
      <trkpt lat="43.822159040719271" lon="6.11836401745677">
        <ele>573.08000000000004</ele>
        <time>2025-05-18T06:11:25Z</time>
      </trkpt>
      <trkpt lat="43.82220002822578" lon="6.118593011051416">
        <ele>573.55999999999995</ele>
        <time>2025-05-18T06:11:26Z</time>
      </trkpt>
      <trkpt lat="43.822317961603403" lon="6.119256019592285">
        <ele>574.52999999999997</ele>
        <time>2025-05-18T06:11:29Z</time>
      </trkpt>
      <trkpt lat="43.82230999879539" lon="6.119458023458719">
        <ele>574.03999999999996</ele>
        <time>2025-05-18T06:11:30Z</time>
      </trkpt>
      <trkpt lat="43.822284014895558" lon="6.120118014514446">
        <ele>574.03999999999996</ele>
        <time>2025-05-18T06:11:33Z</time>
      </trkpt>
      <trkpt lat="43.822274962440133" lon="6.120340973138809">
        <ele>574.03999999999996</ele>
        <time>2025-05-18T06:11:34Z</time>
      </trkpt>
      <trkpt lat="43.822342017665505" lon="6.120552029460669">
        <ele>574.03999999999996</ele>
        <time>2025-05-18T06:11:35Z</time>
      </trkpt>
      <trkpt lat="43.822411000728607" lon="6.120759984478355">
        <ele>574.03999999999996</ele>
        <time>2025-05-18T06:11:36Z</time>
      </trkpt>
      <trkpt lat="43.822489036247134" lon="6.120968023315072">
        <ele>574.52999999999997</ele>
        <time>2025-05-18T06:11:37Z</time>
      </trkpt>
      <trkpt lat="43.822590038180351" lon="6.12115703523159">
        <ele>574.52999999999997</ele>
        <time>2025-05-18T06:11:38Z</time>
      </trkpt>
      <trkpt lat="43.824225012212992" lon="6.124158008024097">
        <ele>580.76999999999998</ele>
        <time>2025-05-18T06:11:54Z</time>
      </trkpt>
      <trkpt lat="43.825007965788245" lon="6.125277997925878">
        <ele>586.05999999999995</ele>
        <time>2025-05-18T06:12:02Z</time>
      </trkpt>
      <trkpt lat="43.825830984860659" lon="6.126424977555871">
        <ele>591.35000000000002</ele>
        <time>2025-05-18T06:12:12Z</time>
      </trkpt>
      <trkpt lat="43.826459962874651" lon="6.127884015440941">
        <ele>596.63999999999999</ele>
        <time>2025-05-18T06:12:22Z</time>
      </trkpt>
      <trkpt lat="43.826741008087993" lon="6.128607960417867">
        <ele>596.63999999999999</ele>
        <time>2025-05-18T06:12:27Z</time>
      </trkpt>
      <trkpt lat="43.826791970059276" lon="6.128748022019863">
        <ele>596.63999999999999</ele>
        <time>2025-05-18T06:12:28Z</time>
      </trkpt>
      <trkpt lat="43.82699497975409" lon="6.129680005833507">
        <ele>598.08000000000004</ele>
        <time>2025-05-18T06:12:34Z</time>
      </trkpt>
      <trkpt lat="43.826987016946077" lon="6.130004972219467">
        <ele>599.51999999999998</ele>
        <time>2025-05-18T06:12:36Z</time>
      </trkpt>
      <trkpt lat="43.826976958662271" lon="6.130170011892915">
        <ele>599.51999999999998</ele>
        <time>2025-05-18T06:12:37Z</time>
      </trkpt>
      <trkpt lat="43.826810996979475" lon="6.131955021992326">
        <ele>604.80999999999995</ele>
        <time>2025-05-18T06:12:48Z</time>
      </trkpt>
      <trkpt lat="43.826780989766121" lon="6.132793966680765">
        <ele>606.25</ele>
        <time>2025-05-18T06:12:52Z</time>
      </trkpt>
      <trkpt lat="43.826988022774458" lon="6.135237039998174">
        <ele>606.25</ele>
        <time>2025-05-18T06:13:02Z</time>
      </trkpt>
      <trkpt lat="43.82729304023087" lon="6.136144967749715">
        <ele>606.73000000000002</ele>
        <time>2025-05-18T06:13:06Z</time>
      </trkpt>
      <trkpt lat="43.827390018850565" lon="6.136361975222826">
        <ele>606.73000000000002</ele>
        <time>2025-05-18T06:13:07Z</time>
      </trkpt>
      <trkpt lat="43.827497977763414" lon="6.136565990746021">
        <ele>606.73000000000002</ele>
        <time>2025-05-18T06:13:08Z</time>
      </trkpt>
      <trkpt lat="43.828488970175385" lon="6.138049000874162">
        <ele>608.16999999999996</ele>
        <time>2025-05-18T06:13:16Z</time>
      </trkpt>
      <trkpt lat="43.829479040578008" lon="6.139104031026363">
        <ele>608.64999999999998</ele>
        <time>2025-05-18T06:13:23Z</time>
      </trkpt>
      <trkpt lat="43.830374982208014" lon="6.1398930195719">
        <ele>607.21000000000004</ele>
        <time>2025-05-18T06:13:29Z</time>
      </trkpt>
      <trkpt lat="43.830524012446404" lon="6.140011958777905">
        <ele>606.73000000000002</ele>
        <time>2025-05-18T06:13:30Z</time>
      </trkpt>
      <trkpt lat="43.830668013542891" lon="6.140152020379901">
        <ele>606.25</ele>
        <time>2025-05-18T06:13:31Z</time>
      </trkpt>
      <trkpt lat="43.831296991556883" lon="6.141064977273345">
        <ele>605.76999999999998</ele>
        <time>2025-05-18T06:13:36Z</time>
      </trkpt>
      <trkpt lat="43.831617012619972" lon="6.141587002202869">
        <ele>605.76999999999998</ele>
        <time>2025-05-18T06:13:39Z</time>
      </trkpt>
      <trkpt lat="43.831738969311118" lon="6.141717005521059">
        <ele>605.76999999999998</ele>
        <time>2025-05-18T06:13:40Z</time>
      </trkpt>
      <trkpt lat="43.83187199011445" lon="6.141793029382825">
        <ele>605.76999999999998</ele>
        <time>2025-05-18T06:13:41Z</time>
      </trkpt>
      <trkpt lat="43.832013979554176" lon="6.141851032152772">
        <ele>605.76999999999998</ele>
        <time>2025-05-18T06:13:42Z</time>
      </trkpt>
      <trkpt lat="43.832169966772199" lon="6.141849020496011">
        <ele>605.76999999999998</ele>
        <time>2025-05-18T06:13:43Z</time>
      </trkpt>
      <trkpt lat="43.832289995625615" lon="6.141765033826232">
        <ele>606.25</ele>
        <time>2025-05-18T06:13:44Z</time>
      </trkpt>
      <trkpt lat="43.832418993115425" lon="6.141631007194519">
        <ele>606.25</ele>
        <time>2025-05-18T06:13:45Z</time>
      </trkpt>
      <trkpt lat="43.832508008927107" lon="6.141465967521071">
        <ele>606.73000000000002</ele>
        <time>2025-05-18T06:13:46Z</time>
      </trkpt>
      <trkpt lat="43.83260197006166" lon="6.141291037201881">
        <ele>607.21000000000004</ele>
        <time>2025-05-18T06:13:47Z</time>
      </trkpt>
      <trkpt lat="43.832682017236948" lon="6.141143012791872">
        <ele>607.69000000000005</ele>
        <time>2025-05-18T06:13:48Z</time>
      </trkpt>
      <trkpt lat="43.83281797170639" lon="6.141026001423597">
        <ele>607.69000000000005</ele>
        <time>2025-05-18T06:13:49Z</time>
      </trkpt>
      <trkpt lat="43.832947975024581" lon="6.14094796590507">
        <ele>608.16999999999996</ele>
        <time>2025-05-18T06:13:50Z</time>
      </trkpt>
      <trkpt lat="43.833083007484674" lon="6.140928016975522">
        <ele>608.64999999999998</ele>
        <time>2025-05-18T06:13:51Z</time>
      </trkpt>
      <trkpt lat="43.833228014409542" lon="6.14094696007669">
        <ele>609.61000000000001</ele>
        <time>2025-05-18T06:13:52Z</time>
      </trkpt>
      <trkpt lat="43.833390036597848" lon="6.141005968675017">
        <ele>610.09000000000003</ele>
        <time>2025-05-18T06:13:53Z</time>
      </trkpt>
      <trkpt lat="43.833560021594167" lon="6.141066988930106">
        <ele>610.57000000000005</ele>
        <time>2025-05-18T06:13:54Z</time>
      </trkpt>
      <trkpt lat="43.833733024075627" lon="6.141130020841956">
        <ele>611.05999999999995</ele>
        <time>2025-05-18T06:13:55Z</time>
      </trkpt>
      <trkpt lat="43.833910971879959" lon="6.141193974763155">
        <ele>612.01999999999998</ele>
        <time>2025-05-18T06:13:56Z</time>
      </trkpt>
      <trkpt lat="43.834075005725026" lon="6.141326995566487">
        <ele>612.5</ele>
        <time>2025-05-18T06:13:57Z</time>
      </trkpt>
      <trkpt lat="43.834235016256571" lon="6.141477031633258">
        <ele>612.98000000000002</ele>
        <time>2025-05-18T06:13:58Z</time>
      </trkpt>
      <trkpt lat="43.834398966282606" lon="6.141631007194519">
        <ele>613.94000000000005</ele>
        <time>2025-05-18T06:13:59Z</time>
      </trkpt>
      <trkpt lat="43.83515601977706" lon="6.1423400323838">
        <ele>616.34000000000003</ele>
        <time>2025-05-18T06:14:04Z</time>
      </trkpt>
      <trkpt lat="43.835302032530308" lon="6.142476992681623">
        <ele>616.82000000000005</ele>
        <time>2025-05-18T06:14:05Z</time>
      </trkpt>
      <trkpt lat="43.835433963686228" lon="6.142639014869928">
        <ele>617.29999999999995</ele>
        <time>2025-05-18T06:14:06Z</time>
      </trkpt>
      <trkpt lat="43.83556698448956" lon="6.142808999866247">
        <ele>617.77999999999997</ele>
        <time>2025-05-18T06:14:07Z</time>
      </trkpt>
      <trkpt lat="43.835701011121273" lon="6.142979990690947">
        <ele>618.25999999999999</ele>
        <time>2025-05-18T06:14:08Z</time>
      </trkpt>
      <trkpt lat="43.836480025202036" lon="6.14397500641644">
        <ele>621.63</ele>
        <time>2025-05-18T06:14:14Z</time>
      </trkpt>
      <trkpt lat="43.836572980508208" lon="6.14419000223279">
        <ele>622.11000000000001</ele>
        <time>2025-05-18T06:14:15Z</time>
      </trkpt>
      <trkpt lat="43.837039014324546" lon="6.145341005176306">
        <ele>624.50999999999999</ele>
        <time>2025-05-18T06:14:20Z</time>
      </trkpt>
      <trkpt lat="43.837100034579635" lon="6.145595982670784">
        <ele>624.50999999999999</ele>
        <time>2025-05-18T06:14:21Z</time>
      </trkpt>
      <trkpt lat="43.837274964898825" lon="6.146282041445375">
        <ele>625.96000000000004</ele>
        <time>2025-05-18T06:14:24Z</time>
      </trkpt>
      <trkpt lat="43.837491972371936" lon="6.14696198143065">
        <ele>626.91999999999996</ele>
        <time>2025-05-18T06:14:27Z</time>
      </trkpt>
      <trkpt lat="43.837558021768928" lon="6.147206984460354">
        <ele>626.91999999999996</ele>
        <time>2025-05-18T06:14:28Z</time>
      </trkpt>
      <trkpt lat="43.837584005668759" lon="6.147471014410257">
        <ele>626.91999999999996</ele>
        <time>2025-05-18T06:14:29Z</time>
      </trkpt>
      <trkpt lat="43.837608983740211" lon="6.147737978026271">
        <ele>626.91999999999996</ele>
        <time>2025-05-18T06:14:30Z</time>
      </trkpt>
      <trkpt lat="43.837608983740211" lon="6.14801499992609">
        <ele>627.39999999999998</ele>
        <time>2025-05-18T06:14:31Z</time>
      </trkpt>
      <trkpt lat="43.837598003447056" lon="6.14829302765429">
        <ele>627.88</ele>
        <time>2025-05-18T06:14:32Z</time>
      </trkpt>
      <trkpt lat="43.837592974305153" lon="6.150670973584056">
        <ele>629.79999999999995</ele>
        <time>2025-05-18T06:14:41Z</time>
      </trkpt>
      <trkpt lat="43.837647959589958" lon="6.150903990492225">
        <ele>630.27999999999997</ele>
        <time>2025-05-18T06:14:42Z</time>
      </trkpt>
      <trkpt lat="43.837704034522176" lon="6.151142958551645">
        <ele>630.27999999999997</ele>
        <time>2025-05-18T06:14:43Z</time>
      </trkpt>
      <trkpt lat="43.837762959301472" lon="6.151391984894872">
        <ele>630.75999999999999</ele>
        <time>2025-05-18T06:14:44Z</time>
      </trkpt>
      <trkpt lat="43.837821967899799" lon="6.151645034551621">
        <ele>630.75999999999999</ele>
        <time>2025-05-18T06:14:45Z</time>
      </trkpt>
      <trkpt lat="43.838127991184592" lon="6.153701031580567">
        <ele>633.16999999999996</ele>
        <time>2025-05-18T06:14:53Z</time>
      </trkpt>
      <trkpt lat="43.838183982297778" lon="6.153951985761523">
        <ele>633.64999999999998</ele>
        <time>2025-05-18T06:14:54Z</time>
      </trkpt>
      <trkpt lat="43.838249025866389" lon="6.154190031811595">
        <ele>634.13</ele>
        <time>2025-05-18T06:14:55Z</time>
      </trkpt>
      <trkpt lat="43.83891899138689" lon="6.156106973066926">
        <ele>636.04999999999995</ele>
        <time>2025-05-18T06:15:03Z</time>
      </trkpt>
      <trkpt lat="43.839109009131789" lon="6.156589016318321">
        <ele>636.52999999999997</ele>
        <time>2025-05-18T06:15:05Z</time>
      </trkpt>
      <trkpt lat="43.83923901244998" lon="6.156793031841517">
        <ele>636.52999999999997</ele>
        <time>2025-05-18T06:15:06Z</time>
      </trkpt>
      <trkpt lat="43.83939097635448" lon="6.156961005181074">
        <ele>636.52999999999997</ele>
        <time>2025-05-18T06:15:07Z</time>
      </trkpt>
      <trkpt lat="43.839546041563153" lon="6.157127972692251">
        <ele>636.52999999999997</ele>
        <time>2025-05-18T06:15:08Z</time>
      </trkpt>
      <trkpt lat="43.839701022952795" lon="6.15729502402246">
        <ele>637.00999999999999</ele>
        <time>2025-05-18T06:15:09Z</time>
      </trkpt>
      <trkpt lat="43.839852986857295" lon="6.157471965998411">
        <ele>637.00999999999999</ele>
        <time>2025-05-18T06:15:10Z</time>
      </trkpt>
      <trkpt lat="43.839991958811879" lon="6.15766198374331">
        <ele>637.00999999999999</ele>
        <time>2025-05-18T06:15:11Z</time>
      </trkpt>
      <trkpt lat="43.840262023732066" lon="6.158029027283192">
        <ele>637.49000000000001</ele>
        <time>2025-05-18T06:15:13Z</time>
      </trkpt>
      <trkpt lat="43.840403007343411" lon="6.158179985359311">
        <ele>637.97000000000003</ele>
        <time>2025-05-18T06:15:14Z</time>
      </trkpt>
      <trkpt lat="43.840562012046576" lon="6.158289033919573">
        <ele>637.97000000000003</ele>
        <time>2025-05-18T06:15:15Z</time>
      </trkpt>
      <trkpt lat="43.840726967900991" lon="6.158384000882506">
        <ele>638.45000000000005</ele>
        <time>2025-05-18T06:15:16Z</time>
      </trkpt>
      <trkpt lat="43.840901982039213" lon="6.158471005037427">
        <ele>637.97000000000003</ele>
        <time>2025-05-18T06:15:17Z</time>
      </trkpt>
      <trkpt lat="43.841428030282259" lon="6.158767975866795">
        <ele>638.45000000000005</ele>
        <time>2025-05-18T06:15:20Z</time>
      </trkpt>
      <trkpt lat="43.841574965044856" lon="6.15890602581203">
        <ele>638.45000000000005</ele>
        <time>2025-05-18T06:15:21Z</time>
      </trkpt>
      <trkpt lat="43.841716032475233" lon="6.159064024686813">
        <ele>638.92999999999995</ele>
        <time>2025-05-18T06:15:22Z</time>
      </trkpt>
      <trkpt lat="43.84181896224618" lon="6.15927399136126">
        <ele>639.88999999999999</ele>
        <time>2025-05-18T06:15:23Z</time>
      </trkpt>
      <trkpt lat="43.841921975836158" lon="6.159485969692469">
        <ele>640.38</ele>
        <time>2025-05-18T06:15:24Z</time>
      </trkpt>
      <trkpt lat="43.842020966112614" lon="6.159687973558903">
        <ele>641.34000000000003</ele>
        <time>2025-05-18T06:15:25Z</time>
      </trkpt>
      <trkpt lat="43.842120040208101" lon="6.159873967990279">
        <ele>641.82000000000005</ele>
        <time>2025-05-18T06:15:26Z</time>
      </trkpt>
      <trkpt lat="43.842250965535641" lon="6.16002500988543">
        <ele>642.77999999999997</ele>
        <time>2025-05-18T06:15:27Z</time>
      </trkpt>
      <trkpt lat="43.842387003824115" lon="6.160179991275072">
        <ele>643.74000000000001</ele>
        <time>2025-05-18T06:15:28Z</time>
      </trkpt>
      <trkpt lat="43.842646004632115" lon="6.16051803342998">
        <ele>645.65999999999997</ele>
        <time>2025-05-18T06:15:30Z</time>
      </trkpt>
      <trkpt lat="43.842866029590368" lon="6.160844005644321">
        <ele>647.59000000000003</ele>
        <time>2025-05-18T06:15:32Z</time>
      </trkpt>
      <trkpt lat="43.842998966574669" lon="6.160966968163848">
        <ele>648.54999999999995</ele>
        <time>2025-05-18T06:15:33Z</time>
      </trkpt>
      <trkpt lat="43.843145985156298" lon="6.161084985360503">
        <ele>649.50999999999999</ele>
        <time>2025-05-18T06:15:34Z</time>
      </trkpt>
      <trkpt lat="43.843309013172984" lon="6.161193028092384">
        <ele>650.47000000000003</ele>
        <time>2025-05-18T06:15:35Z</time>
      </trkpt>
      <trkpt lat="43.843484027311206" lon="6.16129201836884">
        <ele>651.42999999999995</ele>
        <time>2025-05-18T06:15:36Z</time>
      </trkpt>
      <trkpt lat="43.843834977596998" lon="6.161444988101721">
        <ele>653.35000000000002</ele>
        <time>2025-05-18T06:15:38Z</time>
      </trkpt>
      <trkpt lat="43.844006974250078" lon="6.161480024456978">
        <ele>654.30999999999995</ele>
        <time>2025-05-18T06:15:39Z</time>
      </trkpt>
      <trkpt lat="43.844170002266765" lon="6.161495028063655">
        <ele>654.79999999999995</ele>
        <time>2025-05-18T06:15:40Z</time>
      </trkpt>
      <trkpt lat="43.844311991706491" lon="6.16150600835681">
        <ele>655.27999999999997</ele>
        <time>2025-05-18T06:15:41Z</time>
      </trkpt>
      <trkpt lat="43.844470996409655" lon="6.161580020561814">
        <ele>655.75999999999999</ele>
        <time>2025-05-18T06:15:42Z</time>
      </trkpt>
      <trkpt lat="43.844613991677761" lon="6.161646991968155">
        <ele>655.75999999999999</ele>
        <time>2025-05-18T06:15:43Z</time>
      </trkpt>
      <trkpt lat="43.844731003046036" lon="6.161791998893023">
        <ele>655.75999999999999</ele>
        <time>2025-05-18T06:15:44Z</time>
      </trkpt>
      <trkpt lat="43.844841979444027" lon="6.161947986111045">
        <ele>656.24000000000001</ele>
        <time>2025-05-18T06:15:45Z</time>
      </trkpt>
      <trkpt lat="43.844958990812302" lon="6.162113025784493">
        <ele>656.72000000000003</ele>
        <time>2025-05-18T06:15:46Z</time>
      </trkpt>
      <trkpt lat="43.845064016059041" lon="6.162308994680643">
        <ele>657.20000000000005</ele>
        <time>2025-05-18T06:15:47Z</time>
      </trkpt>
      <trkpt lat="43.846106976270676" lon="6.164200035855174">
        <ele>659.60000000000002</ele>
        <time>2025-05-18T06:15:56Z</time>
      </trkpt>
      <trkpt lat="43.847556039690971" lon="6.166875958442688">
        <ele>662.49000000000001</ele>
        <time>2025-05-18T06:16:08Z</time>
      </trkpt>
      <trkpt lat="43.848768984898925" lon="6.16934702731669">
        <ele>669.70000000000005</ele>
        <time>2025-05-18T06:16:19Z</time>
      </trkpt>
      <trkpt lat="43.849070984870195" lon="6.170345982536674">
        <ele>672.58000000000004</ele>
        <time>2025-05-18T06:16:23Z</time>
      </trkpt>
      <trkpt lat="43.849172992631793" lon="6.170568019151688">
        <ele>673.05999999999995</ele>
        <time>2025-05-18T06:16:24Z</time>
      </trkpt>
      <trkpt lat="43.849291009828448" lon="6.170778991654515">
        <ele>674.01999999999998</ele>
        <time>2025-05-18T06:16:25Z</time>
      </trkpt>
      <trkpt lat="43.849411960691214" lon="6.170984013006091">
        <ele>674.5</ele>
        <time>2025-05-18T06:16:26Z</time>
      </trkpt>
      <trkpt lat="43.849565014243126" lon="6.171145029366016">
        <ele>674.5</ele>
        <time>2025-05-18T06:16:27Z</time>
      </trkpt>
      <trkpt lat="43.85039197281003" lon="6.172065027058125">
        <ele>676.90999999999997</ele>
        <time>2025-05-18T06:16:33Z</time>
      </trkpt>
      <trkpt lat="43.850479982793331" lon="6.172252027317882">
        <ele>677.38999999999999</ele>
        <time>2025-05-18T06:16:34Z</time>
      </trkpt>
      <trkpt lat="43.850568998605013" lon="6.17244497872889">
        <ele>677.87</ele>
        <time>2025-05-18T06:16:35Z</time>
      </trkpt>
      <trkpt lat="43.850650973618031" lon="6.172644970938563">
        <ele>678.35000000000002</ele>
        <time>2025-05-18T06:16:36Z</time>
      </trkpt>
      <trkpt lat="43.850695984438062" lon="6.172875976189971">
        <ele>678.83000000000004</ele>
        <time>2025-05-18T06:16:37Z</time>
      </trkpt>
      <trkpt lat="43.850740995258093" lon="6.17310899309814">
        <ele>679.78999999999996</ele>
        <time>2025-05-18T06:16:38Z</time>
      </trkpt>
      <trkpt lat="43.851087000221014" lon="6.175460033118725">
        <ele>687</ele>
        <time>2025-05-18T06:16:48Z</time>
      </trkpt>
      <trkpt lat="43.851127987727523" lon="6.175692966207862">
        <ele>687.48000000000002</ele>
        <time>2025-05-18T06:16:49Z</time>
      </trkpt>
      <trkpt lat="43.851988976821303" lon="6.17807200178504">
        <ele>693.25</ele>
        <time>2025-05-18T06:17:00Z</time>
      </trkpt>
      <trkpt lat="43.852455010637641" lon="6.179650984704495">
        <ele>697.09000000000003</ele>
        <time>2025-05-18T06:17:07Z</time>
      </trkpt>
      <trkpt lat="43.85247697122395" lon="6.179894981905818">
        <ele>698.04999999999995</ele>
        <time>2025-05-18T06:17:08Z</time>
      </trkpt>
      <trkpt lat="43.852500021457672" lon="6.180146019905806">
        <ele>699.01999999999998</ele>
        <time>2025-05-18T06:17:09Z</time>
      </trkpt>
      <trkpt lat="43.852500021457672" lon="6.180398985743523">
        <ele>699.98000000000002</ele>
        <time>2025-05-18T06:17:10Z</time>
      </trkpt>
      <trkpt lat="43.852479988709092" lon="6.180657986551523">
        <ele>700.94000000000005</ele>
        <time>2025-05-18T06:17:11Z</time>
      </trkpt>
      <trkpt lat="43.852428020909429" lon="6.18090701289475">
        <ele>701.41999999999996</ele>
        <time>2025-05-18T06:17:12Z</time>
      </trkpt>
      <trkpt lat="43.852374041453004" lon="6.181161990389228">
        <ele>702.38</ele>
        <time>2025-05-18T06:17:13Z</time>
      </trkpt>
      <trkpt lat="43.851865008473396" lon="6.183759961277247">
        <ele>707.19000000000005</ele>
        <time>2025-05-18T06:17:23Z</time>
      </trkpt>
      <trkpt lat="43.852081010118127" lon="6.185370041057468">
        <ele>709.59000000000003</ele>
        <time>2025-05-18T06:17:29Z</time>
      </trkpt>
      <trkpt lat="43.852878967300057" lon="6.1872230283916">
        <ele>713.91999999999996</ele>
        <time>2025-05-18T06:17:37Z</time>
      </trkpt>
      <trkpt lat="43.854539003223181" lon="6.190760023891926">
        <ele>725.45000000000005</ele>
        <time>2025-05-18T06:17:53Z</time>
      </trkpt>
      <trkpt lat="43.855079971253872" lon="6.191942961886525">
        <ele>730.25999999999999</ele>
        <time>2025-05-18T06:18:00Z</time>
      </trkpt>
      <trkpt lat="43.855842975899577" lon="6.193608026951551">
        <ele>728.82000000000005</ele>
        <time>2025-05-18T06:18:08Z</time>
      </trkpt>
      <trkpt lat="43.856852995231748" lon="6.195820011198521">
        <ele>718.72000000000003</ele>
        <time>2025-05-18T06:18:18Z</time>
      </trkpt>
      <trkpt lat="43.857449032366276" lon="6.197158014401794">
        <ele>711.02999999999997</ele>
        <time>2025-05-18T06:18:25Z</time>
      </trkpt>
      <trkpt lat="43.857561014592648" lon="6.19728097692132">
        <ele>710.07000000000005</ele>
        <time>2025-05-18T06:18:26Z</time>
      </trkpt>
      <trkpt lat="43.857689006254077" lon="6.197389019653201">
        <ele>708.63</ele>
        <time>2025-05-18T06:18:27Z</time>
      </trkpt>
      <trkpt lat="43.857822027057409" lon="6.197499996051192">
        <ele>707.19000000000005</ele>
        <time>2025-05-18T06:18:28Z</time>
      </trkpt>
      <trkpt lat="43.857945995405316" lon="6.197612984105945">
        <ele>705.75</ele>
        <time>2025-05-18T06:18:29Z</time>
      </trkpt>
      <trkpt lat="43.858036017045379" lon="6.197766037657857">
        <ele>704.77999999999997</ele>
        <time>2025-05-18T06:18:30Z</time>
      </trkpt>
      <trkpt lat="43.858116986230016" lon="6.197904003784061">
        <ele>703.82000000000005</ele>
        <time>2025-05-18T06:18:31Z</time>
      </trkpt>
      <trkpt lat="43.858261993154883" lon="6.198151018470526">
        <ele>701.41999999999996</ele>
        <time>2025-05-18T06:18:33Z</time>
      </trkpt>
      <trkpt lat="43.858323013409972" lon="6.198254032060504">
        <ele>700.46000000000004</ele>
        <time>2025-05-18T06:18:34Z</time>
      </trkpt>
      <trkpt lat="43.858427032828331" lon="6.198431979864836">
        <ele>697.57000000000005</ele>
        <time>2025-05-18T06:18:36Z</time>
      </trkpt>
      <trkpt lat="43.85846802033484" lon="6.198502974584699">
        <ele>696.61000000000001</ele>
        <time>2025-05-18T06:18:37Z</time>
      </trkpt>
      <trkpt lat="43.858516970649362" lon="6.198585033416748">
        <ele>696.13</ele>
        <time>2025-05-18T06:18:38Z</time>
      </trkpt>
      <trkpt lat="43.858504984527826" lon="6.198642030358315">
        <ele>695.16999999999996</ele>
        <time>2025-05-18T06:18:39Z</time>
      </trkpt>
      <trkpt lat="43.858471037819982" lon="6.198704978451133">
        <ele>694.21000000000004</ele>
        <time>2025-05-18T06:18:40Z</time>
      </trkpt>
      <trkpt lat="43.858427032828331" lon="6.198727022856474">
        <ele>693.73000000000002</ele>
        <time>2025-05-18T06:18:41Z</time>
      </trkpt>
      <trkpt lat="43.858311027288437" lon="6.198630966246128">
        <ele>692.76999999999998</ele>
        <time>2025-05-18T06:18:42Z</time>
      </trkpt>
      <trkpt lat="43.858227962628007" lon="6.198543040081859">
        <ele>691.80999999999995</ele>
        <time>2025-05-18T06:18:43Z</time>
      </trkpt>
      <trkpt lat="43.858128972351551" lon="6.1984390206635">
        <ele>691.33000000000004</ele>
        <time>2025-05-18T06:18:44Z</time>
      </trkpt>
      <trkpt lat="43.8576740026474" lon="6.197961000725627">
        <ele>688.44000000000005</ele>
        <time>2025-05-18T06:18:48Z</time>
      </trkpt>
      <trkpt lat="43.857533019036055" lon="6.197909032925963">
        <ele>687.96000000000004</ele>
        <time>2025-05-18T06:18:49Z</time>
      </trkpt>
      <trkpt lat="43.857252979651093" lon="6.197808030992746">
        <ele>686.03999999999996</ele>
        <time>2025-05-18T06:18:51Z</time>
      </trkpt>
      <trkpt lat="43.857113001868129" lon="6.197727983817458">
        <ele>685.08000000000004</ele>
        <time>2025-05-18T06:18:52Z</time>
      </trkpt>
      <trkpt lat="43.856949973851442" lon="6.197620024904609">
        <ele>684.12</ele>
        <time>2025-05-18T06:18:53Z</time>
      </trkpt>
      <trkpt lat="43.856842014938593" lon="6.197484992444515">
        <ele>683.14999999999998</ele>
        <time>2025-05-18T06:18:54Z</time>
      </trkpt>
      <trkpt lat="43.85672802105546" lon="6.197341997176409">
        <ele>682.19000000000005</ele>
        <time>2025-05-18T06:18:55Z</time>
      </trkpt>
      <trkpt lat="43.856630036607385" lon="6.197160026058555">
        <ele>681.23000000000002</ele>
        <time>2025-05-18T06:18:56Z</time>
      </trkpt>
      <trkpt lat="43.856544038280845" lon="6.196974031627178">
        <ele>680.26999999999998</ele>
        <time>2025-05-18T06:18:57Z</time>
      </trkpt>
      <trkpt lat="43.856456028297544" lon="6.196782002225518">
        <ele>679.30999999999995</ele>
        <time>2025-05-18T06:18:58Z</time>
      </trkpt>
      <trkpt lat="43.856368018314242" lon="6.196590978652239">
        <ele>678.83000000000004</ele>
        <time>2025-05-18T06:18:59Z</time>
      </trkpt>
      <trkpt lat="43.856263998895884" lon="6.196429962292314">
        <ele>677.87</ele>
        <time>2025-05-18T06:19:00Z</time>
      </trkpt>
      <trkpt lat="43.856141036376357" lon="6.196288978680968">
        <ele>677.38999999999999</ele>
        <time>2025-05-18T06:19:01Z</time>
      </trkpt>
      <trkpt lat="43.856021007522941" lon="6.196151012554765">
        <ele>676.41999999999996</ele>
        <time>2025-05-18T06:19:02Z</time>
      </trkpt>
      <trkpt lat="43.855702998116612" lon="6.195784974843264">
        <ele>674.01999999999998</ele>
        <time>2025-05-18T06:19:05Z</time>
      </trkpt>
      <trkpt lat="43.855532007291913" lon="6.195588000118733">
        <ele>672.10000000000002</ele>
        <time>2025-05-18T06:19:07Z</time>
      </trkpt>
      <trkpt lat="43.855469981208444" lon="6.19551700539887">
        <ele>671.62</ele>
        <time>2025-05-18T06:19:08Z</time>
      </trkpt>
      <trkpt lat="43.855411978438497" lon="6.195488004013896">
        <ele>670.65999999999997</ele>
        <time>2025-05-18T06:19:09Z</time>
      </trkpt>
      <trkpt lat="43.85535498149693" lon="6.195521028712392">
        <ele>670.17999999999995</ele>
        <time>2025-05-18T06:19:10Z</time>
      </trkpt>
      <trkpt lat="43.855327991768718" lon="6.195624964311719">
        <ele>670.17999999999995</ele>
        <time>2025-05-18T06:19:11Z</time>
      </trkpt>
      <trkpt lat="43.855340983718634" lon="6.195687996223569">
        <ele>669.70000000000005</ele>
        <time>2025-05-18T06:19:12Z</time>
      </trkpt>
      <trkpt lat="43.855407033115625" lon="6.19579897262156">
        <ele>668.73000000000002</ele>
        <time>2025-05-18T06:19:13Z</time>
      </trkpt>
      <trkpt lat="43.855466963723302" lon="6.195897962898016">
        <ele>667.76999999999998</ele>
        <time>2025-05-18T06:19:14Z</time>
      </trkpt>
      <trkpt lat="43.856009021401405" lon="6.196802034974098">
        <ele>662.00999999999999</ele>
        <time>2025-05-18T06:19:20Z</time>
      </trkpt>
      <trkpt lat="43.856203984469175" lon="6.197150973603129">
        <ele>660.55999999999995</ele>
        <time>2025-05-18T06:19:22Z</time>
      </trkpt>
      <trkpt lat="43.856520988047123" lon="6.198030989617109">
        <ele>657.67999999999995</ele>
        <time>2025-05-18T06:19:28Z</time>
      </trkpt>
      <trkpt lat="43.856520988047123" lon="6.198110030964017">
        <ele>657.67999999999995</ele>
        <time>2025-05-18T06:19:29Z</time>
      </trkpt>
      <trkpt lat="43.856477988883853" lon="6.198177002370358">
        <ele>657.20000000000005</ele>
        <time>2025-05-18T06:19:30Z</time>
      </trkpt>
      <trkpt lat="43.856412023305893" lon="6.1981609929353">
        <ele>657.20000000000005</ele>
        <time>2025-05-18T06:19:31Z</time>
      </trkpt>
      <trkpt lat="43.856359971687198" lon="6.19809796102345">
        <ele>656.72000000000003</ele>
        <time>2025-05-18T06:19:32Z</time>
      </trkpt>
      <trkpt lat="43.856295011937618" lon="6.197980027645826">
        <ele>656.24000000000001</ele>
        <time>2025-05-18T06:19:33Z</time>
      </trkpt>
      <trkpt lat="43.856208007782698" lon="6.197824040427804">
        <ele>655.75999999999999</ele>
        <time>2025-05-18T06:19:34Z</time>
      </trkpt>
      <trkpt lat="43.856114968657494" lon="6.197655983269215">
        <ele>655.27999999999997</ele>
        <time>2025-05-18T06:19:35Z</time>
      </trkpt>
      <trkpt lat="43.855998041108251" lon="6.197492033243179">
        <ele>654.79999999999995</ele>
        <time>2025-05-18T06:19:36Z</time>
      </trkpt>
      <trkpt lat="43.855841970071197" lon="6.197350965812802">
        <ele>653.83000000000004</ele>
        <time>2025-05-18T06:19:37Z</time>
      </trkpt>
      <trkpt lat="43.854660037904978" lon="6.196404984220862">
        <ele>648.54999999999995</ele>
        <time>2025-05-18T06:19:44Z</time>
      </trkpt>
      <trkpt lat="43.854539003223181" lon="6.196261988952756">
        <ele>647.59000000000003</ele>
        <time>2025-05-18T06:19:45Z</time>
      </trkpt>
      <trkpt lat="43.854415034875274" lon="6.196115976199508">
        <ele>646.62</ele>
        <time>2025-05-18T06:19:46Z</time>
      </trkpt>
      <trkpt lat="43.854286037385464" lon="6.195965018123388">
        <ele>645.65999999999997</ele>
        <time>2025-05-18T06:19:47Z</time>
      </trkpt>
      <trkpt lat="43.85412996634841" lon="6.19586200453341">
        <ele>644.70000000000005</ele>
        <time>2025-05-18T06:19:48Z</time>
      </trkpt>
      <trkpt lat="43.853966016322374" lon="6.195753961801529">
        <ele>643.74000000000001</ele>
        <time>2025-05-18T06:19:49Z</time>
      </trkpt>
      <trkpt lat="43.853381965309381" lon="6.195420026779175">
        <ele>639.40999999999997</ele>
        <time>2025-05-18T06:19:53Z</time>
      </trkpt>
      <trkpt lat="43.853256991133094" lon="6.195404017344117">
        <ele>638.45000000000005</ele>
        <time>2025-05-18T06:19:54Z</time>
      </trkpt>
      <trkpt lat="43.853109972551465" lon="6.195392031222582">
        <ele>637.00999999999999</ele>
        <time>2025-05-18T06:19:55Z</time>
      </trkpt>
      <trkpt lat="43.852949040010571" lon="6.195426983758807">
        <ele>636.04999999999995</ele>
        <time>2025-05-18T06:19:56Z</time>
      </trkpt>
      <trkpt lat="43.852778971195221" lon="6.195464031770825">
        <ele>635.57000000000005</ele>
        <time>2025-05-18T06:19:57Z</time>
      </trkpt>
      <trkpt lat="43.852044967934489" lon="6.195622030645609">
        <ele>630.75999999999999</ele>
        <time>2025-05-18T06:20:01Z</time>
      </trkpt>
      <trkpt lat="43.851866014301777" lon="6.19560300372541">
        <ele>629.79999999999995</ele>
        <time>2025-05-18T06:20:02Z</time>
      </trkpt>
      <trkpt lat="43.851693011820316" lon="6.195580959320068">
        <ele>628.36000000000001</ele>
        <time>2025-05-18T06:20:03Z</time>
      </trkpt>
      <trkpt lat="43.851527972146869" lon="6.19556000456214">
        <ele>627.39999999999998</ele>
        <time>2025-05-18T06:20:04Z</time>
      </trkpt>
      <trkpt lat="43.851364022120833" lon="6.195591017603874">
        <ele>626.91999999999996</ele>
        <time>2025-05-18T06:20:05Z</time>
      </trkpt>
      <trkpt lat="43.851194959133863" lon="6.1956259701401">
        <ele>625.96000000000004</ele>
        <time>2025-05-18T06:20:06Z</time>
      </trkpt>
      <trkpt lat="43.851024974137545" lon="6.195695959031582">
        <ele>625.47000000000003</ele>
        <time>2025-05-18T06:20:07Z</time>
      </trkpt>
      <trkpt lat="43.85086202993989" lon="6.195763014256954">
        <ele>624.50999999999999</ele>
        <time>2025-05-18T06:20:08Z</time>
      </trkpt>
      <trkpt lat="43.850705958902836" lon="6.195827974006534">
        <ele>624.02999999999997</ele>
        <time>2025-05-18T06:20:09Z</time>
      </trkpt>
      <trkpt lat="43.850202960893512" lon="6.196130979806185">
        <ele>622.11000000000001</ele>
        <time>2025-05-18T06:20:12Z</time>
      </trkpt>
      <trkpt lat="43.849483039230108" lon="6.196799017488957">
        <ele>619.23000000000002</ele>
        <time>2025-05-18T06:20:17Z</time>
      </trkpt>
      <trkpt lat="43.849374996498227" lon="6.196963973343372">
        <ele>618.75</ele>
        <time>2025-05-18T06:20:18Z</time>
      </trkpt>
      <trkpt lat="43.849285980686545" lon="6.197160026058555">
        <ele>618.75</ele>
        <time>2025-05-18T06:20:19Z</time>
      </trkpt>
      <trkpt lat="43.849099986255169" lon="6.197568979114294">
        <ele>616.34000000000003</ele>
        <time>2025-05-18T06:20:21Z</time>
      </trkpt>
      <trkpt lat="43.848986998200417" lon="6.197740975767374">
        <ele>615.86000000000001</ele>
        <time>2025-05-18T06:20:22Z</time>
      </trkpt>
      <trkpt lat="43.848750041797757" lon="6.19809603318572">
        <ele>613.94000000000005</ele>
        <time>2025-05-18T06:20:24Z</time>
      </trkpt>
      <trkpt lat="43.848649961873889" lon="6.198307005688548">
        <ele>612.98000000000002</ele>
        <time>2025-05-18T06:20:25Z</time>
      </trkpt>
      <trkpt lat="43.848558012396097" lon="6.198532981798053">
        <ele>612.01999999999998</ele>
        <time>2025-05-18T06:20:26Z</time>
      </trkpt>
      <trkpt lat="43.848171019926667" lon="6.199431018903852">
        <ele>606.73000000000002</ele>
        <time>2025-05-18T06:20:30Z</time>
      </trkpt>
      <trkpt lat="43.847022028639913" lon="6.20147000066936">
        <ele>597.60000000000002</ele>
        <time>2025-05-18T06:20:39Z</time>
      </trkpt>
      <trkpt lat="43.84615701623261" lon="6.20297396555543">
        <ele>592.78999999999996</ele>
        <time>2025-05-18T06:20:47Z</time>
      </trkpt>
      <trkpt lat="43.846129020676017" lon="6.203078990802169">
        <ele>592.30999999999995</ele>
        <time>2025-05-18T06:20:48Z</time>
      </trkpt>
      <trkpt lat="43.84611401706934" lon="6.203199019655585">
        <ele>592.30999999999995</ele>
        <time>2025-05-18T06:20:49Z</time>
      </trkpt>
      <trkpt lat="43.846131032332778" lon="6.203322988003492">
        <ele>592.30999999999995</ele>
        <time>2025-05-18T06:20:50Z</time>
      </trkpt>
      <trkpt lat="43.846149975433946" lon="6.203462965786457">
        <ele>591.83000000000004</ele>
        <time>2025-05-18T06:20:51Z</time>
      </trkpt>
      <trkpt lat="43.846178976818919" lon="6.203671004623175">
        <ele>591.35000000000002</ele>
        <time>2025-05-18T06:20:52Z</time>
      </trkpt>
      <trkpt lat="43.846142012625933" lon="6.203779969364405">
        <ele>591.35000000000002</ele>
        <time>2025-05-18T06:20:53Z</time>
      </trkpt>
      <trkpt lat="43.846054002642632" lon="6.203932017087936">
        <ele>590.87</ele>
        <time>2025-05-18T06:20:54Z</time>
      </trkpt>
      <trkpt lat="43.84594595991075" lon="6.204052967950702">
        <ele>590.87</ele>
        <time>2025-05-18T06:20:55Z</time>
      </trkpt>
      <trkpt lat="43.845826014876366" lon="6.204172996804118">
        <ele>590.38999999999999</ele>
        <time>2025-05-18T06:20:56Z</time>
      </trkpt>
      <trkpt lat="43.844699990004301" lon="6.205456014722586">
        <ele>585.58000000000004</ele>
        <time>2025-05-18T06:21:05Z</time>
      </trkpt>
      <trkpt lat="43.844527993351221" lon="6.205782992765307">
        <ele>584.13999999999999</ele>
        <time>2025-05-18T06:21:07Z</time>
      </trkpt>
      <trkpt lat="43.84446102194488" lon="6.205954989418387">
        <ele>583.65999999999997</ele>
        <time>2025-05-18T06:21:08Z</time>
      </trkpt>
      <trkpt lat="43.843835983425379" lon="6.207560040056706">
        <ele>579.80999999999995</ele>
        <time>2025-05-18T06:21:17Z</time>
      </trkpt>
      <trkpt lat="43.843182027339935" lon="6.209596004337072">
        <ele>576.92999999999995</ele>
        <time>2025-05-18T06:21:27Z</time>
      </trkpt>
      <trkpt lat="43.842445006594062" lon="6.212023990228772">
        <ele>577.88999999999999</ele>
        <time>2025-05-18T06:21:38Z</time>
      </trkpt>
      <trkpt lat="43.842319026589394" lon="6.212438978254795">
        <ele>577.88999999999999</ele>
        <time>2025-05-18T06:21:40Z</time>
      </trkpt>
      <trkpt lat="43.842125991359353" lon="6.213408010080457">
        <ele>576.45000000000005</ele>
        <time>2025-05-18T06:21:45Z</time>
      </trkpt>
      <trkpt lat="43.842137977480888" lon="6.213570032268763">
        <ele>576.45000000000005</ele>
        <time>2025-05-18T06:21:46Z</time>
      </trkpt>
      <trkpt lat="43.842167984694242" lon="6.213699029758573">
        <ele>575.97000000000003</ele>
        <time>2025-05-18T06:21:47Z</time>
      </trkpt>
      <trkpt lat="43.842219030484557" lon="6.213809000328183">
        <ele>575.97000000000003</ele>
        <time>2025-05-18T06:21:48Z</time>
      </trkpt>
      <trkpt lat="43.84226999245584" lon="6.213916959241033">
        <ele>575.97000000000003</ele>
        <time>2025-05-18T06:21:49Z</time>
      </trkpt>
      <trkpt lat="43.84233201853931" lon="6.214006980881095">
        <ele>575.49000000000001</ele>
        <time>2025-05-18T06:21:50Z</time>
      </trkpt>
      <trkpt lat="43.842422962188721" lon="6.214099014177918">
        <ele>575.49000000000001</ele>
        <time>2025-05-18T06:21:51Z</time>
      </trkpt>
      <trkpt lat="43.842524969950318" lon="6.214151987805963">
        <ele>575.49000000000001</ele>
        <time>2025-05-18T06:21:52Z</time>
      </trkpt>
      <trkpt lat="43.84306401014328" lon="6.21442599222064">
        <ele>576.45000000000005</ele>
        <time>2025-05-18T06:21:57Z</time>
      </trkpt>
      <trkpt lat="43.843657029792666" lon="6.214655991643667">
        <ele>577.40999999999997</ele>
        <time>2025-05-18T06:22:03Z</time>
      </trkpt>
      <trkpt lat="43.843904966488481" lon="6.214808039367199">
        <ele>577.40999999999997</ele>
        <time>2025-05-18T06:22:06Z</time>
      </trkpt>
      <trkpt lat="43.843971015885472" lon="6.214896971359849">
        <ele>577.40999999999997</ele>
        <time>2025-05-18T06:22:07Z</time>
      </trkpt>
      <trkpt lat="43.844096995890141" lon="6.215085983276367">
        <ele>577.88999999999999</ele>
        <time>2025-05-18T06:22:09Z</time>
      </trkpt>
      <trkpt lat="43.844160027801991" lon="6.215168964117765">
        <ele>578.37</ele>
        <time>2025-05-18T06:22:10Z</time>
      </trkpt>
      <trkpt lat="43.844426991418004" lon="6.215570960193873">
        <ele>578.37</ele>
        <time>2025-05-18T06:22:15Z</time>
      </trkpt>
      <trkpt lat="43.84443998336792" lon="6.215729964897037">
        <ele>578.85000000000002</ele>
        <time>2025-05-18T06:22:16Z</time>
      </trkpt>
      <trkpt lat="43.844450963661075" lon="6.215790985152125">
        <ele>578.85000000000002</ele>
        <time>2025-05-18T06:22:18Z</time>
      </trkpt>
      <trkpt lat="43.844459010288119" lon="6.21584395878017">
        <ele>579.33000000000004</ele>
        <time>2025-05-18T06:22:19Z</time>
      </trkpt>
      <trkpt lat="43.844501003623009" lon="6.21586499735713">
        <ele>579.33000000000004</ele>
        <time>2025-05-18T06:22:20Z</time>
      </trkpt>
      <trkpt lat="43.844530005007982" lon="6.215870026499033">
        <ele>578.85000000000002</ele>
        <time>2025-05-18T06:22:21Z</time>
      </trkpt>
      <trkpt lat="43.844562023878098" lon="6.215874971821904">
        <ele>578.85000000000002</ele>
        <time>2025-05-18T06:22:22Z</time>
      </trkpt>
      <trkpt lat="43.844591025263071" lon="6.215880000963807">
        <ele>578.85000000000002</ele>
        <time>2025-05-18T06:22:23Z</time>
      </trkpt>
      <trkpt lat="43.844593036919832" lon="6.215858962386847">
        <ele>579.33000000000004</ele>
        <time>2025-05-18T06:22:24Z</time>
      </trkpt>
      <trkpt lat="43.844599993899465" lon="6.215808000415564">
        <ele>579.33000000000004</ele>
        <time>2025-05-18T06:22:25Z</time>
      </trkpt>
      <trkpt lat="43.844607034698129" lon="6.215749997645617">
        <ele>578.85000000000002</ele>
        <time>2025-05-18T06:22:26Z</time>
      </trkpt>
      <trkpt lat="43.844611980021" lon="6.215708004310727">
        <ele>578.85000000000002</ele>
        <time>2025-05-18T06:22:27Z</time>
      </trkpt>
      <trkpt lat="43.844715999439359" lon="6.215675985440612">
        <ele>578.85000000000002</ele>
        <time>2025-05-18T06:22:28Z</time>
      </trkpt>
      <trkpt lat="43.844756986945868" lon="6.215663999319077">
        <ele>578.37</ele>
        <time>2025-05-18T06:22:29Z</time>
      </trkpt>
      <trkpt lat="43.844801997765899" lon="6.21565000154078">
        <ele>578.37</ele>
        <time>2025-05-18T06:22:30Z</time>
      </trkpt>
      <trkpt lat="43.84489101357758" lon="6.215622005984187">
        <ele>578.37</ele>
        <time>2025-05-18T06:22:32Z</time>
      </trkpt>
      <trkpt lat="43.844948010519147" lon="6.215622005984187">
        <ele>577.88999999999999</ele>
        <time>2025-05-18T06:22:33Z</time>
      </trkpt>
      <trkpt lat="43.845006013289094" lon="6.215622005984187">
        <ele>577.88999999999999</ele>
        <time>2025-05-18T06:22:34Z</time>
      </trkpt>
      <trkpt lat="43.845068039372563" lon="6.215655030682683">
        <ele>577.88999999999999</ele>
        <time>2025-05-18T06:22:35Z</time>
      </trkpt>
      <trkpt lat="43.845121013000607" lon="6.215722002089024">
        <ele>577.40999999999997</ele>
        <time>2025-05-18T06:22:36Z</time>
      </trkpt>
      <trkpt lat="43.845160994678736" lon="6.215815963223577">
        <ele>576.92999999999995</ele>
        <time>2025-05-18T06:22:37Z</time>
      </trkpt>
      <trkpt lat="43.845199970528483" lon="6.215915037319064">
        <ele>576.92999999999995</ele>
        <time>2025-05-18T06:22:38Z</time>
      </trkpt>
      <trkpt lat="43.845237018540502" lon="6.216006986796856">
        <ele>576.92999999999995</ele>
        <time>2025-05-18T06:22:39Z</time>
      </trkpt>
      <trkpt lat="43.845269959419966" lon="6.216091979295015">
        <ele>577.88999999999999</ele>
        <time>2025-05-18T06:22:40Z</time>
      </trkpt>
      <trkpt lat="43.845398034900427" lon="6.216416023671627">
        <ele>579.80999999999995</ele>
        <time>2025-05-18T06:22:44Z</time>
      </trkpt>
      <trkpt lat="43.845467017963529" lon="6.216565975919366">
        <ele>580.28999999999996</ele>
        <time>2025-05-18T06:22:46Z</time>
      </trkpt>
      <trkpt lat="43.845516974106431" lon="6.216621967032552">
        <ele>580.28999999999996</ele>
        <time>2025-05-18T06:22:47Z</time>
      </trkpt>
      <trkpt lat="43.845563996583223" lon="6.216676030308008">
        <ele>580.76999999999998</ele>
        <time>2025-05-18T06:22:48Z</time>
      </trkpt>
      <trkpt lat="43.845614036545157" lon="6.216732021421194">
        <ele>581.25</ele>
        <time>2025-05-18T06:22:49Z</time>
      </trkpt>
      <trkpt lat="43.845661981031299" lon="6.216787006705999">
        <ele>581.73000000000002</ele>
        <time>2025-05-18T06:22:50Z</time>
      </trkpt>
      <trkpt lat="43.846055008471012" lon="6.217071991413832">
        <ele>584.13999999999999</ele>
        <time>2025-05-18T06:22:57Z</time>
      </trkpt>
      <trkpt lat="43.84611401706934" lon="6.217128988355398">
        <ele>584.62</ele>
        <time>2025-05-18T06:22:58Z</time>
      </trkpt>
      <trkpt lat="43.846460022032261" lon="6.217454038560391">
        <ele>587.5</ele>
        <time>2025-05-18T06:23:05Z</time>
      </trkpt>
      <trkpt lat="43.846586002036929" lon="6.217554034665227">
        <ele>588.95000000000005</ele>
        <time>2025-05-18T06:23:08Z</time>
      </trkpt>
      <trkpt lat="43.846586002036929" lon="6.217554034665227">
        <ele>588.95000000000005</ele>
        <time>2025-05-18T06:23:09Z</time>
      </trkpt>
      <trkpt lat="43.846586002036929" lon="6.217554034665227">
        <ele>588.95000000000005</ele>
        <time>2025-05-18T06:23:10Z</time>
      </trkpt>
      <trkpt lat="43.846570998430252" lon="6.21754196472466">
        <ele>589.90999999999997</ele>
        <time>2025-05-18T06:23:20Z</time>
      </trkpt>
      <trkpt lat="43.846552977338433" lon="6.217526961117983">
        <ele>589.90999999999997</ele>
        <time>2025-05-18T06:23:21Z</time>
      </trkpt>
      <trkpt lat="43.846520958468318" lon="6.217501983046532">
        <ele>589.90999999999997</ele>
        <time>2025-05-18T06:23:22Z</time>
      </trkpt>
      <trkpt lat="43.846101025119424" lon="6.217113984748721">
        <ele>588.95000000000005</ele>
        <time>2025-05-18T06:23:29Z</time>
      </trkpt>
      <trkpt lat="43.845414966344833" lon="6.216460028663278">
        <ele>588.95000000000005</ele>
        <time>2025-05-18T06:23:39Z</time>
      </trkpt>
      <trkpt lat="43.845366016030312" lon="6.216333964839578">
        <ele>588.95000000000005</ele>
        <time>2025-05-18T06:23:40Z</time>
      </trkpt>
      <trkpt lat="43.845315976068377" lon="6.216206979006529">
        <ele>588.95000000000005</ele>
        <time>2025-05-18T06:23:41Z</time>
      </trkpt>
      <trkpt lat="43.845266019925475" lon="6.216083010658622">
        <ele>588.46000000000004</ele>
        <time>2025-05-18T06:23:42Z</time>
      </trkpt>
      <trkpt lat="43.845220003277063" lon="6.215963987633586">
        <ele>587.98000000000002</ele>
        <time>2025-05-18T06:23:43Z</time>
      </trkpt>
      <trkpt lat="43.845174992457032" lon="6.215850999578834">
        <ele>587.5</ele>
        <time>2025-05-18T06:23:44Z</time>
      </trkpt>
      <trkpt lat="43.845126964151859" lon="6.215729964897037">
        <ele>586.53999999999996</ele>
        <time>2025-05-18T06:23:45Z</time>
      </trkpt>
      <trkpt lat="43.845072984695435" lon="6.215662993490696">
        <ele>586.53999999999996</ele>
        <time>2025-05-18T06:23:46Z</time>
      </trkpt>
      <trkpt lat="43.845006013289094" lon="6.215622005984187">
        <ele>586.05999999999995</ele>
        <time>2025-05-18T06:23:47Z</time>
      </trkpt>
      <trkpt lat="43.844932001084089" lon="6.215622005984187">
        <ele>585.10000000000002</ele>
        <time>2025-05-18T06:23:48Z</time>
      </trkpt>
      <trkpt lat="43.844865029677749" lon="6.2156299687922">
        <ele>584.62</ele>
        <time>2025-05-18T06:23:49Z</time>
      </trkpt>
      <trkpt lat="43.844799986109138" lon="6.21565000154078">
        <ele>584.13999999999999</ele>
        <time>2025-05-18T06:23:50Z</time>
      </trkpt>
      <trkpt lat="43.844611980021" lon="6.215708004310727">
        <ele>582.70000000000005</ele>
        <time>2025-05-18T06:23:55Z</time>
      </trkpt>
      <trkpt lat="43.844464961439371" lon="6.21569300070405">
        <ele>582.22000000000003</ele>
        <time>2025-05-18T06:23:56Z</time>
      </trkpt>
      <trkpt lat="43.844456998631358" lon="6.215826021507382">
        <ele>581.73000000000002</ele>
        <time>2025-05-18T06:23:57Z</time>
      </trkpt>
      <trkpt lat="43.844462027773261" lon="6.215858962386847">
        <ele>581.25</ele>
        <time>2025-05-18T06:23:58Z</time>
      </trkpt>
      <trkpt lat="43.844595970585942" lon="6.215890981256962">
        <ele>581.25</ele>
        <time>2025-05-18T06:23:59Z</time>
      </trkpt>
      <trkpt lat="43.844625977799296" lon="6.215961975976825">
        <ele>581.25</ele>
        <time>2025-05-18T06:24:00Z</time>
      </trkpt>
      <trkpt lat="43.84469797834754" lon="6.216130033135414">
        <ele>580.28999999999996</ele>
        <time>2025-05-18T06:24:02Z</time>
      </trkpt>
      <trkpt lat="43.844742989167571" lon="6.216234974563122">
        <ele>579.80999999999995</ele>
        <time>2025-05-18T06:24:03Z</time>
      </trkpt>
      <trkpt lat="43.84484801441431" lon="6.216480983421207">
        <ele>577.88999999999999</ele>
        <time>2025-05-18T06:24:05Z</time>
      </trkpt>
      <trkpt lat="43.844879027456045" lon="6.216618027538061">
        <ele>577.40999999999997</ele>
        <time>2025-05-18T06:24:06Z</time>
      </trkpt>
      <trkpt lat="43.844951028004289" lon="6.217254968360066">
        <ele>575.97000000000003</ele>
        <time>2025-05-18T06:24:10Z</time>
      </trkpt>
      <trkpt lat="43.844948010519147" lon="6.217422019690275">
        <ele>575.97000000000003</ele>
        <time>2025-05-18T06:24:11Z</time>
      </trkpt>
      <trkpt lat="43.844928983598948" lon="6.217585969716311">
        <ele>575.97000000000003</ele>
        <time>2025-05-18T06:24:12Z</time>
      </trkpt>
      <trkpt lat="43.844909034669399" lon="6.217761989682913">
        <ele>575.49000000000001</ele>
        <time>2025-05-18T06:24:13Z</time>
      </trkpt>
      <trkpt lat="43.84489101357758" lon="6.217917976900935">
        <ele>575.49000000000001</ele>
        <time>2025-05-18T06:24:14Z</time>
      </trkpt>
      <trkpt lat="43.844789005815983" lon="6.21824998408556">
        <ele>575.49000000000001</ele>
        <time>2025-05-18T06:24:16Z</time>
      </trkpt>
      <trkpt lat="43.844738965854049" lon="6.218413012102246">
        <ele>575.97000000000003</ele>
        <time>2025-05-18T06:24:17Z</time>
      </trkpt>
      <trkpt lat="43.844673000276089" lon="6.21855198405683">
        <ele>576.45000000000005</ele>
        <time>2025-05-18T06:24:18Z</time>
      </trkpt>
      <trkpt lat="43.844593958929181" lon="6.218681987375021">
        <ele>576.92999999999995</ele>
        <time>2025-05-18T06:24:19Z</time>
      </trkpt>
      <trkpt lat="43.844512989744544" lon="6.218814002349973">
        <ele>577.40999999999997</ele>
        <time>2025-05-18T06:24:20Z</time>
      </trkpt>
      <trkpt lat="43.844421962276101" lon="6.218927996233106">
        <ele>577.88999999999999</ele>
        <time>2025-05-18T06:24:21Z</time>
      </trkpt>
      <trkpt lat="43.844219036400318" lon="6.219148021191359">
        <ele>578.85000000000002</ele>
        <time>2025-05-18T06:24:23Z</time>
      </trkpt>
      <trkpt lat="43.844105964526534" lon="6.219225972890854">
        <ele>579.33000000000004</ele>
        <time>2025-05-18T06:24:24Z</time>
      </trkpt>
      <trkpt lat="43.843990964815021" lon="6.219299985095859">
        <ele>579.80999999999995</ele>
        <time>2025-05-18T06:24:25Z</time>
      </trkpt>
      <trkpt lat="43.843153025954962" lon="6.219609025865793">
        <ele>584.62</ele>
        <time>2025-05-18T06:24:33Z</time>
      </trkpt>
      <trkpt lat="43.842751029878855" lon="6.219717990607023">
        <ele>587.01999999999998</ele>
        <time>2025-05-18T06:24:37Z</time>
      </trkpt>
      <trkpt lat="43.842660002410412" lon="6.219741962850094">
        <ele>588.46000000000004</ele>
        <time>2025-05-18T06:24:39Z</time>
      </trkpt>
      <trkpt lat="43.842606022953987" lon="6.219772975891829">
        <ele>588.95000000000005</ele>
        <time>2025-05-18T06:24:40Z</time>
      </trkpt>
      <trkpt lat="43.842577021569014" lon="6.219788985326886">
        <ele>589.90999999999997</ele>
        <time>2025-05-18T06:24:41Z</time>
      </trkpt>
      <trkpt lat="43.842555982992053" lon="6.219801977276802">
        <ele>590.38999999999999</ele>
        <time>2025-05-18T06:24:42Z</time>
      </trkpt>
      <trkpt lat="43.842542991042137" lon="6.219809018075466">
        <ele>591.35000000000002</ele>
        <time>2025-05-18T06:24:43Z</time>
      </trkpt>
      <trkpt lat="43.842532010748982" lon="6.219814969226718">
        <ele>591.83000000000004</ele>
        <time>2025-05-18T06:24:44Z</time>
      </trkpt>
      <trkpt lat="43.842532010748982" lon="6.219814969226718">
        <ele>592.30999999999995</ele>
        <time>2025-05-18T06:24:45Z</time>
      </trkpt>
      <trkpt lat="43.842532010748982" lon="6.219814969226718">
        <ele>593.26999999999998</ele>
        <time>2025-05-18T06:25:00Z</time>
      </trkpt>
      <trkpt lat="43.842475013807416" lon="6.21977599337697">
        <ele>592.78999999999996</ele>
        <time>2025-05-18T06:36:58Z</time>
      </trkpt>
      <trkpt lat="43.842494962736964" lon="6.219772975891829">
        <ele>596.14999999999998</ele>
        <time>2025-05-18T06:37:18Z</time>
      </trkpt>
      <trkpt lat="43.842476019635797" lon="6.219785967841744">
        <ele>595.19000000000005</ele>
        <time>2025-05-18T06:37:30Z</time>
      </trkpt>
      <trkpt lat="43.842468978837132" lon="6.219851011410356">
        <ele>594.71000000000004</ele>
        <time>2025-05-18T06:37:32Z</time>
      </trkpt>
      <trkpt lat="43.84244098328054" lon="6.219867020845413">
        <ele>594.71000000000004</ele>
        <time>2025-05-18T06:37:33Z</time>
      </trkpt>
      <trkpt lat="43.842393038794398" lon="6.219895016402006">
        <ele>594.71000000000004</ele>
        <time>2025-05-18T06:37:34Z</time>
      </trkpt>
      <trkpt lat="43.842327995225787" lon="6.219936003908515">
        <ele>594.71000000000004</ele>
        <time>2025-05-18T06:37:35Z</time>
      </trkpt>
      <trkpt lat="43.842252977192402" lon="6.21998998336494">
        <ele>594.71000000000004</ele>
        <time>2025-05-18T06:37:36Z</time>
      </trkpt>
      <trkpt lat="43.842080980539322" lon="6.220112023875117">
        <ele>595.66999999999996</ele>
        <time>2025-05-18T06:37:38Z</time>
      </trkpt>
      <trkpt lat="43.841996993869543" lon="6.220211014151573">
        <ele>596.14999999999998</ele>
        <time>2025-05-18T06:37:39Z</time>
      </trkpt>
      <trkpt lat="43.841335996985435" lon="6.221067979931831">
        <ele>603.85000000000002</ele>
        <time>2025-05-18T06:37:47Z</time>
      </trkpt>
      <trkpt lat="43.841272965073586" lon="6.22114802710712">
        <ele>604.33000000000004</ele>
        <time>2025-05-18T06:37:48Z</time>
      </trkpt>
      <trkpt lat="43.841156959533691" lon="6.221201000735164">
        <ele>604.80999999999995</ele>
        <time>2025-05-18T06:37:49Z</time>
      </trkpt>
      <trkpt lat="43.84110800921917" lon="6.221251040697098">
        <ele>605.28999999999996</ele>
        <time>2025-05-18T06:37:50Z</time>
      </trkpt>
      <trkpt lat="43.841030979529023" lon="6.221327986568213">
        <ele>605.76999999999998</ele>
        <time>2025-05-18T06:37:51Z</time>
      </trkpt>
      <trkpt lat="43.840318014845252" lon="6.221877001225948">
        <ele>605.76999999999998</ele>
        <time>2025-05-18T06:37:58Z</time>
      </trkpt>
      <trkpt lat="43.840207038447261" lon="6.221908014267683">
        <ele>605.28999999999996</ele>
        <time>2025-05-18T06:37:59Z</time>
      </trkpt>
      <trkpt lat="43.839671015739441" lon="6.221947995945811">
        <ele>604.80999999999995</ele>
        <time>2025-05-18T06:38:04Z</time>
      </trkpt>
      <trkpt lat="43.839574959129095" lon="6.221875995397568">
        <ele>604.80999999999995</ele>
        <time>2025-05-18T06:38:05Z</time>
      </trkpt>
      <trkpt lat="43.839482003822923" lon="6.221806006506085">
        <ele>604.33000000000004</ele>
        <time>2025-05-18T06:38:06Z</time>
      </trkpt>
      <trkpt lat="43.839393993839622" lon="6.221724031493068">
        <ele>603.85000000000002</ele>
        <time>2025-05-18T06:38:07Z</time>
      </trkpt>
      <trkpt lat="43.839317969977856" lon="6.221616994589567">
        <ele>603.85000000000002</ele>
        <time>2025-05-18T06:38:08Z</time>
      </trkpt>
      <trkpt lat="43.839237000793219" lon="6.221504006534815">
        <ele>603.36000000000001</ele>
        <time>2025-05-18T06:38:09Z</time>
      </trkpt>
      <trkpt lat="43.839148990809917" lon="6.221403004601598">
        <ele>602.88</ele>
        <time>2025-05-18T06:38:10Z</time>
      </trkpt>
      <trkpt lat="43.839051006361842" lon="6.221305020153523">
        <ele>602.39999999999998</ele>
        <time>2025-05-18T06:38:11Z</time>
      </trkpt>
      <trkpt lat="43.838947992771864" lon="6.221236037090421">
        <ele>601.91999999999996</ele>
        <time>2025-05-18T06:38:12Z</time>
      </trkpt>
      <trkpt lat="43.838841039687395" lon="6.22123796492815">
        <ele>600.96000000000004</ele>
        <time>2025-05-18T06:38:13Z</time>
      </trkpt>
      <trkpt lat="43.838730985298753" lon="6.22125799767673">
        <ele>600.48000000000002</ele>
        <time>2025-05-18T06:38:14Z</time>
      </trkpt>
      <trkpt lat="43.838654039427638" lon="6.22132102958858">
        <ele>599.51999999999998</ele>
        <time>2025-05-18T06:38:15Z</time>
      </trkpt>
      <trkpt lat="43.838580027222633" lon="6.221435023471713">
        <ele>599.03999999999996</ele>
        <time>2025-05-18T06:38:16Z</time>
      </trkpt>
      <trkpt lat="43.838500985875726" lon="6.221555974334478">
        <ele>598.55999999999995</ele>
        <time>2025-05-18T06:38:17Z</time>
      </trkpt>
      <trkpt lat="43.838414987549186" lon="6.221688995137811">
        <ele>597.12</ele>
        <time>2025-05-18T06:38:18Z</time>
      </trkpt>
      <trkpt lat="43.838304011151195" lon="6.221741968765855">
        <ele>596.14999999999998</ele>
        <time>2025-05-18T06:38:19Z</time>
      </trkpt>
      <trkpt lat="43.838216001167893" lon="6.221780022606254">
        <ele>595.19000000000005</ele>
        <time>2025-05-18T06:38:20Z</time>
      </trkpt>
      <trkpt lat="43.838137965649366" lon="6.221740962937474">
        <ele>593.75</ele>
        <time>2025-05-18T06:38:21Z</time>
      </trkpt>
      <trkpt lat="43.838079962879419" lon="6.221640966832638">
        <ele>592.78999999999996</ele>
        <time>2025-05-18T06:38:22Z</time>
      </trkpt>
      <trkpt lat="43.83801600895822" lon="6.221521021798253">
        <ele>591.83000000000004</ele>
        <time>2025-05-18T06:38:23Z</time>
      </trkpt>
      <trkpt lat="43.837939985096455" lon="6.221394035965204">
        <ele>590.87</ele>
        <time>2025-05-18T06:38:24Z</time>
      </trkpt>
      <trkpt lat="43.837840994819999" lon="6.221283981576562">
        <ele>589.90999999999997</ele>
        <time>2025-05-18T06:38:25Z</time>
      </trkpt>
      <trkpt lat="43.837725995108485" lon="6.221180967986584">
        <ele>588.95000000000005</ele>
        <time>2025-05-18T06:38:26Z</time>
      </trkpt>
      <trkpt lat="43.836715975776315" lon="6.220765979960561">
        <ele>579.80999999999995</ele>
        <time>2025-05-18T06:38:33Z</time>
      </trkpt>
      <trkpt lat="43.836442977190018" lon="6.220706971362233">
        <ele>577.88999999999999</ele>
        <time>2025-05-18T06:38:35Z</time>
      </trkpt>
      <trkpt lat="43.836315991356969" lon="6.22069900855422">
        <ele>576.45000000000005</ele>
        <time>2025-05-18T06:38:36Z</time>
      </trkpt>
      <trkpt lat="43.836195962503552" lon="6.22074100188911">
        <ele>575.49000000000001</ele>
        <time>2025-05-18T06:38:37Z</time>
      </trkpt>
      <trkpt lat="43.836074005812407" lon="6.220782995223999">
        <ele>574.52999999999997</ele>
        <time>2025-05-18T06:38:38Z</time>
      </trkpt>
      <trkpt lat="43.835945008322597" lon="6.220829011872411">
        <ele>573.55999999999995</ele>
        <time>2025-05-18T06:38:39Z</time>
      </trkpt>
      <trkpt lat="43.835816010832787" lon="6.220867987722158">
        <ele>572.60000000000002</ele>
        <time>2025-05-18T06:38:40Z</time>
      </trkpt>
      <trkpt lat="43.835692964494228" lon="6.220904029905796">
        <ele>571.15999999999997</ele>
        <time>2025-05-18T06:38:41Z</time>
      </trkpt>
      <trkpt lat="43.835576958954334" lon="6.220938982442021">
        <ele>570.67999999999995</ele>
        <time>2025-05-18T06:38:42Z</time>
      </trkpt>
      <trkpt lat="43.835461959242821" lon="6.220973012968898">
        <ele>569.72000000000003</ele>
        <time>2025-05-18T06:38:43Z</time>
      </trkpt>
      <trkpt lat="43.835336985066533" lon="6.221015006303787">
        <ele>568.27999999999997</ele>
        <time>2025-05-18T06:38:44Z</time>
      </trkpt>
      <trkpt lat="43.8352420181036" lon="6.221133023500443">
        <ele>567.32000000000005</ele>
        <time>2025-05-18T06:38:45Z</time>
      </trkpt>
      <trkpt lat="43.835171023383737" lon="6.221222961321473">
        <ele>566.35000000000002</ele>
        <time>2025-05-18T06:38:46Z</time>
      </trkpt>
      <trkpt lat="43.835108997300267" lon="6.221420019865036">
        <ele>565.38999999999999</ele>
        <time>2025-05-18T06:38:47Z</time>
      </trkpt>
      <trkpt lat="43.835060968995094" lon="6.221569972112775">
        <ele>564.42999999999995</ele>
        <time>2025-05-18T06:38:48Z</time>
      </trkpt>
      <trkpt lat="43.835011012852192" lon="6.221714979037643">
        <ele>563.95000000000005</ele>
        <time>2025-05-18T06:38:49Z</time>
      </trkpt>
      <trkpt lat="43.834929037839174" lon="6.221840959042311">
        <ele>562.50999999999999</ele>
        <time>2025-05-18T06:38:50Z</time>
      </trkpt>
      <trkpt lat="43.834824012592435" lon="6.2219019792974">
        <ele>561.54999999999995</ele>
        <time>2025-05-18T06:38:51Z</time>
      </trkpt>
      <trkpt lat="43.834716975688934" lon="6.221932992339134">
        <ele>560.59000000000003</ele>
        <time>2025-05-18T06:38:52Z</time>
      </trkpt>
      <trkpt lat="43.834603987634182" lon="6.22196601703763">
        <ele>559.13999999999999</ele>
        <time>2025-05-18T06:38:53Z</time>
      </trkpt>
      <trkpt lat="43.834486976265907" lon="6.222013961523771">
        <ele>558.17999999999995</ele>
        <time>2025-05-18T06:38:54Z</time>
      </trkpt>
      <trkpt lat="43.834387985989451" lon="6.222112029790878">
        <ele>557.22000000000003</ele>
        <time>2025-05-18T06:38:55Z</time>
      </trkpt>
      <trkpt lat="43.834294024854898" lon="6.222206996753812">
        <ele>556.74000000000001</ele>
        <time>2025-05-18T06:38:56Z</time>
      </trkpt>
      <trkpt lat="43.834216995164752" lon="6.222284026443958">
        <ele>555.77999999999997</ele>
        <time>2025-05-18T06:38:57Z</time>
      </trkpt>
      <trkpt lat="43.834137031808496" lon="6.222300035879016">
        <ele>555.29999999999995</ele>
        <time>2025-05-18T06:38:58Z</time>
      </trkpt>
      <trkpt lat="43.834069976583123" lon="6.222274973988533">
        <ele>554.34000000000003</ele>
        <time>2025-05-18T06:38:59Z</time>
      </trkpt>
      <trkpt lat="43.834003005176783" lon="6.222162991762161">
        <ele>553.38</ele>
        <time>2025-05-18T06:39:00Z</time>
      </trkpt>
      <trkpt lat="43.834000993520021" lon="6.222016979008913">
        <ele>552.40999999999997</ele>
        <time>2025-05-18T06:39:01Z</time>
      </trkpt>
      <trkpt lat="43.834050027653575" lon="6.221918994560838">
        <ele>551.45000000000005</ele>
        <time>2025-05-18T06:39:02Z</time>
      </trkpt>
      <trkpt lat="43.834125967696309" lon="6.221814975142479">
        <ele>550.97000000000003</ele>
        <time>2025-05-18T06:39:03Z</time>
      </trkpt>
      <trkpt lat="43.834210960194468" lon="6.221701987087727">
        <ele>550.00999999999999</ele>
        <time>2025-05-18T06:39:04Z</time>
      </trkpt>
      <trkpt lat="43.834303999319673" lon="6.22157801873982">
        <ele>549.52999999999997</ele>
        <time>2025-05-18T06:39:05Z</time>
      </trkpt>
      <trkpt lat="43.834574986249208" lon="6.221217010170221">
        <ele>547.61000000000001</ele>
        <time>2025-05-18T06:39:08Z</time>
      </trkpt>
      <trkpt lat="43.834637012332678" lon="6.22110603377223">
        <ele>546.64999999999998</ele>
        <time>2025-05-18T06:39:09Z</time>
      </trkpt>
      <trkpt lat="43.834648998454213" lon="6.220990028232336">
        <ele>546.16999999999996</ele>
        <time>2025-05-18T06:39:10Z</time>
      </trkpt>
      <trkpt lat="43.834635000675917" lon="6.220896989107132">
        <ele>545.69000000000005</ele>
        <time>2025-05-18T06:39:11Z</time>
      </trkpt>
      <trkpt lat="43.83457800373435" lon="6.220829011872411">
        <ele>545.20000000000005</ele>
        <time>2025-05-18T06:39:12Z</time>
      </trkpt>
      <trkpt lat="43.834516983479261" lon="6.22080503962934">
        <ele>544.24000000000001</ele>
        <time>2025-05-18T06:39:13Z</time>
      </trkpt>
      <trkpt lat="43.834430985152721" lon="6.220835968852043">
        <ele>543.27999999999997</ele>
        <time>2025-05-18T06:39:14Z</time>
      </trkpt>
      <trkpt lat="43.834324032068253" lon="6.220874022692442">
        <ele>542.32000000000005</ele>
        <time>2025-05-18T06:39:15Z</time>
      </trkpt>
      <trkpt lat="43.834210960194468" lon="6.220922973006964">
        <ele>541.84000000000003</ele>
        <time>2025-05-18T06:39:16Z</time>
      </trkpt>
      <trkpt lat="43.833807958289981" lon="6.221162024885416">
        <ele>538.96000000000004</ele>
        <time>2025-05-18T06:39:19Z</time>
      </trkpt>
      <trkpt lat="43.833530014380813" lon="6.221376014873385">
        <ele>537.02999999999997</ele>
        <time>2025-05-18T06:39:21Z</time>
      </trkpt>
      <trkpt lat="43.833393976092339" lon="6.221503000706434">
        <ele>536.07000000000005</ele>
        <time>2025-05-18T06:39:22Z</time>
      </trkpt>
      <trkpt lat="43.833261961117387" lon="6.221639038994908">
        <ele>535.11000000000001</ele>
        <time>2025-05-18T06:39:23Z</time>
      </trkpt>
      <trkpt lat="43.833144027739763" lon="6.221805000677705">
        <ele>534.63</ele>
        <time>2025-05-18T06:39:24Z</time>
      </trkpt>
      <trkpt lat="43.83302902802825" lon="6.221970040351152">
        <ele>533.66999999999996</ele>
        <time>2025-05-18T06:39:25Z</time>
      </trkpt>
      <trkpt lat="43.831665962934494" lon="6.224090997129679">
        <ele>530.29999999999995</ele>
        <time>2025-05-18T06:39:37Z</time>
      </trkpt>
      <trkpt lat="43.831193977966905" lon="6.22469499707222">
        <ele>529.34000000000003</ele>
        <time>2025-05-18T06:39:41Z</time>
      </trkpt>
      <trkpt lat="43.831071015447378" lon="6.224809996783733">
        <ele>528.86000000000001</ele>
        <time>2025-05-18T06:39:42Z</time>
      </trkpt>
      <trkpt lat="43.830939000472426" lon="6.224883003160358">
        <ele>528.38</ele>
        <time>2025-05-18T06:39:43Z</time>
      </trkpt>
      <trkpt lat="43.830684022977948" lon="6.224949974566698">
        <ele>527.89999999999998</ele>
        <time>2025-05-18T06:39:45Z</time>
      </trkpt>
      <trkpt lat="43.830316979438066" lon="6.224989034235477">
        <ele>526.46000000000004</ele>
        <time>2025-05-18T06:39:48Z</time>
      </trkpt>
      <trkpt lat="43.828801028430462" lon="6.224747970700264">
        <ele>522.61000000000001</ele>
        <time>2025-05-18T06:39:59Z</time>
      </trkpt>
      <trkpt lat="43.828165009617805" lon="6.224679993465543">
        <ele>525.98000000000002</ele>
        <time>2025-05-18T06:40:05Z</time>
      </trkpt>
      <trkpt lat="43.828111030161381" lon="6.224677981808782">
        <ele>526.46000000000004</ele>
        <time>2025-05-18T06:40:06Z</time>
      </trkpt>
      <trkpt lat="43.828016985207796" lon="6.224582009017468">
        <ele>527.41999999999996</ele>
        <time>2025-05-18T06:40:07Z</time>
      </trkpt>
      <trkpt lat="43.82798102684319" lon="6.22462903149426">
        <ele>527.89999999999998</ele>
        <time>2025-05-18T06:40:08Z</time>
      </trkpt>
      <trkpt lat="43.827971974387765" lon="6.224708994850516">
        <ele>528.38</ele>
        <time>2025-05-18T06:40:09Z</time>
      </trkpt>
      <trkpt lat="43.827982032671571" lon="6.224762974306941">
        <ele>528.86000000000001</ele>
        <time>2025-05-18T06:40:10Z</time>
      </trkpt>
      <trkpt lat="43.828070964664221" lon="6.224815025925636">
        <ele>529.34000000000003</ele>
        <time>2025-05-18T06:40:11Z</time>
      </trkpt>
      <trkpt lat="43.828099966049194" lon="6.224912004545331">
        <ele>529.82000000000005</ele>
        <time>2025-05-18T06:40:12Z</time>
      </trkpt>
      <trkpt lat="43.82813198491931" lon="6.225019041448832">
        <ele>530.78999999999996</ele>
        <time>2025-05-18T06:40:13Z</time>
      </trkpt>
      <trkpt lat="43.828167021274567" lon="6.225135968998075">
        <ele>531.26999999999998</ele>
        <time>2025-05-18T06:40:14Z</time>
      </trkpt>
      <trkpt lat="43.828570023179054" lon="6.22600601054728">
        <ele>533.66999999999996</ele>
        <time>2025-05-18T06:40:20Z</time>
      </trkpt>
      <trkpt lat="43.828657027333975" lon="6.226132996380329">
        <ele>534.14999999999998</ele>
        <time>2025-05-18T06:40:21Z</time>
      </trkpt>
      <trkpt lat="43.828746965155005" lon="6.226265011355281">
        <ele>534.14999999999998</ele>
        <time>2025-05-18T06:40:22Z</time>
      </trkpt>
      <trkpt lat="43.828807985410094" lon="6.226404989138246">
        <ele>534.63</ele>
        <time>2025-05-18T06:40:23Z</time>
      </trkpt>
      <trkpt lat="43.828855007886887" lon="6.22656399384141">
        <ele>535.11000000000001</ele>
        <time>2025-05-18T06:40:24Z</time>
      </trkpt>
      <trkpt lat="43.828898007050157" lon="6.226749988272786">
        <ele>535.11000000000001</ele>
        <time>2025-05-18T06:40:25Z</time>
      </trkpt>
      <trkpt lat="43.829010995104909" lon="6.227149972692132">
        <ele>535.59000000000003</ele>
        <time>2025-05-18T06:40:27Z</time>
      </trkpt>
      <trkpt lat="43.829219033941627" lon="6.227608965709806">
        <ele>536.54999999999995</ele>
        <time>2025-05-18T06:40:30Z</time>
      </trkpt>
      <trkpt lat="43.829297991469502" lon="6.22780904173851">
        <ele>536.54999999999995</ele>
        <time>2025-05-18T06:40:32Z</time>
      </trkpt>
      <trkpt lat="43.829298997297883" lon="6.22791700065136">
        <ele>536.54999999999995</ele>
        <time>2025-05-18T06:40:33Z</time>
      </trkpt>
      <trkpt lat="43.829254992306232" lon="6.22798296622932">
        <ele>536.07000000000005</ele>
        <time>2025-05-18T06:40:34Z</time>
      </trkpt>
      <trkpt lat="43.829147033393383" lon="6.227979026734829">
        <ele>536.07000000000005</ele>
        <time>2025-05-18T06:40:35Z</time>
      </trkpt>
      <trkpt lat="43.829089030623436" lon="6.227946002036333">
        <ele>536.07000000000005</ele>
        <time>2025-05-18T06:40:36Z</time>
      </trkpt>
      <trkpt lat="43.829033961519599" lon="6.227802000939846">
        <ele>536.07000000000005</ele>
        <time>2025-05-18T06:40:37Z</time>
      </trkpt>
      <trkpt lat="43.828987022861838" lon="6.227650037035346">
        <ele>535.59000000000003</ele>
        <time>2025-05-18T06:40:38Z</time>
      </trkpt>
      <trkpt lat="43.828936982899904" lon="6.22748801484704">
        <ele>535.59000000000003</ele>
        <time>2025-05-18T06:40:39Z</time>
      </trkpt>
      <trkpt lat="43.828790970146656" lon="6.227151984348893">
        <ele>535.11000000000001</ele>
        <time>2025-05-18T06:40:41Z</time>
      </trkpt>
      <trkpt lat="43.828528029844165" lon="6.22671696357429">
        <ele>535.59000000000003</ele>
        <time>2025-05-18T06:40:44Z</time>
      </trkpt>
      <trkpt lat="43.828438008204103" lon="6.226615039631724">
        <ele>536.07000000000005</ele>
        <time>2025-05-18T06:40:45Z</time>
      </trkpt>
      <trkpt lat="43.828320996835828" lon="6.226576985791326">
        <ele>536.54999999999995</ele>
        <time>2025-05-18T06:40:46Z</time>
      </trkpt>
      <trkpt lat="43.828213037922978" lon="6.226601041853428">
        <ele>537.50999999999999</ele>
        <time>2025-05-18T06:40:47Z</time>
      </trkpt>
      <trkpt lat="43.828107006847858" lon="6.226654015481472">
        <ele>537.99000000000001</ele>
        <time>2025-05-18T06:40:48Z</time>
      </trkpt>
      <trkpt lat="43.828001981601119" lon="6.226730961352587">
        <ele>538.48000000000002</ele>
        <time>2025-05-18T06:40:49Z</time>
      </trkpt>
      <trkpt lat="43.827887987717986" lon="6.226829029619694">
        <ele>539.44000000000005</ele>
        <time>2025-05-18T06:40:50Z</time>
      </trkpt>
      <trkpt lat="43.82776795886457" lon="6.226933971047401">
        <ele>539.91999999999996</ele>
        <time>2025-05-18T06:40:51Z</time>
      </trkpt>
      <trkpt lat="43.827440980821848" lon="6.227216022089124">
        <ele>542.32000000000005</ele>
        <time>2025-05-18T06:40:54Z</time>
      </trkpt>
      <trkpt lat="43.82738096639514" lon="6.227318029850721">
        <ele>543.27999999999997</ele>
        <time>2025-05-18T06:40:55Z</time>
      </trkpt>
      <trkpt lat="43.827367974445224" lon="6.227407967671752">
        <ele>544.72000000000003</ele>
        <time>2025-05-18T06:40:56Z</time>
      </trkpt>
      <trkpt lat="43.82738096639514" lon="6.227481979876757">
        <ele>546.16999999999996</ele>
        <time>2025-05-18T06:40:57Z</time>
      </trkpt>
      <trkpt lat="43.827426983043551" lon="6.22751098126173">
        <ele>548.09000000000003</ele>
        <time>2025-05-18T06:40:58Z</time>
      </trkpt>
      <trkpt lat="43.827506024390459" lon="6.227538976818323">
        <ele>549.52999999999997</ele>
        <time>2025-05-18T06:40:59Z</time>
      </trkpt>
      <trkpt lat="43.827614989131689" lon="6.227559009566903">
        <ele>550.97000000000003</ele>
        <time>2025-05-18T06:41:00Z</time>
      </trkpt>
      <trkpt lat="43.827737029641867" lon="6.227580970153213">
        <ele>551.92999999999995</ele>
        <time>2025-05-18T06:41:01Z</time>
      </trkpt>
      <trkpt lat="43.828055039048195" lon="6.227651964873076">
        <ele>554.34000000000003</ele>
        <time>2025-05-18T06:41:04Z</time>
      </trkpt>
      <trkpt lat="43.828101977705956" lon="6.22772203758359">
        <ele>554.82000000000005</ele>
        <time>2025-05-18T06:41:05Z</time>
      </trkpt>
      <trkpt lat="43.828128967434168" lon="6.227796971797943">
        <ele>555.77999999999997</ele>
        <time>2025-05-18T06:41:06Z</time>
      </trkpt>
      <trkpt lat="43.828116981312633" lon="6.227877018973231">
        <ele>556.25999999999999</ele>
        <time>2025-05-18T06:41:07Z</time>
      </trkpt>
      <trkpt lat="43.828041041269898" lon="6.227950025349855">
        <ele>556.74000000000001</ele>
        <time>2025-05-18T06:41:08Z</time>
      </trkpt>
      <trkpt lat="43.827950013801455" lon="6.227992018684745">
        <ele>557.22000000000003</ele>
        <time>2025-05-18T06:41:09Z</time>
      </trkpt>
      <trkpt lat="43.827840965241194" lon="6.228041974827647">
        <ele>558.17999999999995</ele>
        <time>2025-05-18T06:41:10Z</time>
      </trkpt>
      <trkpt lat="43.827719008550048" lon="6.228098971769214">
        <ele>558.65999999999997</ele>
        <time>2025-05-18T06:41:11Z</time>
      </trkpt>
      <trkpt lat="43.827585987746716" lon="6.228159992024303">
        <ele>559.62</ele>
        <time>2025-05-18T06:41:12Z</time>
      </trkpt>
      <trkpt lat="43.827453972771764" lon="6.228257976472378">
        <ele>560.59000000000003</ele>
        <time>2025-05-18T06:41:13Z</time>
      </trkpt>
      <trkpt lat="43.82731500081718" lon="6.228372976183891">
        <ele>562.02999999999997</ele>
        <time>2025-05-18T06:41:14Z</time>
      </trkpt>
      <trkpt lat="43.826532969251275" lon="6.228977981954813">
        <ele>565.87</ele>
        <time>2025-05-18T06:41:19Z</time>
      </trkpt>
      <trkpt lat="43.82570399902761" lon="6.229388024657965">
        <ele>571.63999999999999</ele>
        <time>2025-05-18T06:41:25Z</time>
      </trkpt>
      <trkpt lat="43.825629986822605" lon="6.229472011327744">
        <ele>572.60000000000002</ele>
        <time>2025-05-18T06:41:26Z</time>
      </trkpt>
      <trkpt lat="43.825582964345813" lon="6.229577036574483">
        <ele>574.03999999999996</ele>
        <time>2025-05-18T06:41:27Z</time>
      </trkpt>
      <trkpt lat="43.82555304095149" lon="6.229681978002191">
        <ele>575.00999999999999</ele>
        <time>2025-05-18T06:41:28Z</time>
      </trkpt>
      <trkpt lat="43.825541976839304" lon="6.22980703599751">
        <ele>576.45000000000005</ele>
        <time>2025-05-18T06:41:29Z</time>
      </trkpt>
      <trkpt lat="43.825527979061007" lon="6.229949025437236">
        <ele>576.92999999999995</ele>
        <time>2025-05-18T06:41:30Z</time>
      </trkpt>
      <trkpt lat="43.82551297545433" lon="6.230111969634891">
        <ele>577.88999999999999</ele>
        <time>2025-05-18T06:41:31Z</time>
      </trkpt>
      <trkpt lat="43.825479028746486" lon="6.230483036488295">
        <ele>579.80999999999995</ele>
        <time>2025-05-18T06:41:33Z</time>
      </trkpt>
      <trkpt lat="43.825432006269693" lon="6.230648998171091">
        <ele>580.28999999999996</ele>
        <time>2025-05-18T06:41:34Z</time>
      </trkpt>
      <trkpt lat="43.825367968529463" lon="6.230800040066242">
        <ele>581.25</ele>
        <time>2025-05-18T06:41:35Z</time>
      </trkpt>
      <trkpt lat="43.825285993516445" lon="6.230931971222162">
        <ele>581.73000000000002</ele>
        <time>2025-05-18T06:41:36Z</time>
      </trkpt>
      <trkpt lat="43.825183985754848" lon="6.231063986197114">
        <ele>582.70000000000005</ele>
        <time>2025-05-18T06:41:37Z</time>
      </trkpt>
      <trkpt lat="43.824349986389279" lon="6.232119016349316">
        <ele>590.87</ele>
        <time>2025-05-18T06:41:44Z</time>
      </trkpt>
      <trkpt lat="43.824076987802982" lon="6.232338035479188">
        <ele>593.26999999999998</ele>
        <time>2025-05-18T06:41:46Z</time>
      </trkpt>
      <trkpt lat="43.823893005028367" lon="6.232425961643457">
        <ele>594.23000000000002</ele>
        <time>2025-05-18T06:41:47Z</time>
      </trkpt>
      <trkpt lat="43.823734000325203" lon="6.232500979676843">
        <ele>594.71000000000004</ele>
        <time>2025-05-18T06:41:48Z</time>
      </trkpt>
      <trkpt lat="43.823586981743574" lon="6.232540961354971">
        <ele>595.66999999999996</ele>
        <time>2025-05-18T06:41:49Z</time>
      </trkpt>
      <trkpt lat="43.823435017839074" lon="6.232496034353972">
        <ele>596.63999999999999</ele>
        <time>2025-05-18T06:41:50Z</time>
      </trkpt>
      <trkpt lat="43.823284981772304" lon="6.232452029362321">
        <ele>597.60000000000002</ele>
        <time>2025-05-18T06:41:51Z</time>
      </trkpt>
      <trkpt lat="43.823157995939255" lon="6.232357984408736">
        <ele>598.55999999999995</ele>
        <time>2025-05-18T06:41:52Z</time>
      </trkpt>
      <trkpt lat="43.823036961257458" lon="6.232254970818758">
        <ele>599.51999999999998</ele>
        <time>2025-05-18T06:41:53Z</time>
      </trkpt>
      <trkpt lat="43.822906035929918" lon="6.232181964442134">
        <ele>600.48000000000002</ele>
        <time>2025-05-18T06:41:54Z</time>
      </trkpt>
      <trkpt lat="43.822772009298205" lon="6.232134019955993">
        <ele>601.44000000000005</ele>
        <time>2025-05-18T06:41:55Z</time>
      </trkpt>
      <trkpt lat="43.822620967403054" lon="6.232111975550652">
        <ele>602.88</ele>
        <time>2025-05-18T06:41:56Z</time>
      </trkpt>
      <trkpt lat="43.822470009326935" lon="6.232137037441135">
        <ele>603.85000000000002</ele>
        <time>2025-05-18T06:41:57Z</time>
      </trkpt>
      <trkpt lat="43.822312010452151" lon="6.232164027169347">
        <ele>605.28999999999996</ele>
        <time>2025-05-18T06:41:58Z</time>
      </trkpt>
      <trkpt lat="43.822146970778704" lon="6.232197973877192">
        <ele>606.73000000000002</ele>
        <time>2025-05-18T06:41:59Z</time>
      </trkpt>
      <trkpt lat="43.821986960247159" lon="6.232272991910577">
        <ele>608.16999999999996</ele>
        <time>2025-05-18T06:42:00Z</time>
      </trkpt>
      <trkpt lat="43.821506006643176" lon="6.232583038508892">
        <ele>612.5</ele>
        <time>2025-05-18T06:42:03Z</time>
      </trkpt>
      <trkpt lat="43.821366028860211" lon="6.232702983543277">
        <ele>613.94000000000005</ele>
        <time>2025-05-18T06:42:04Z</time>
      </trkpt>
      <trkpt lat="43.821242982521653" lon="6.232822006568313">
        <ele>615.38</ele>
        <time>2025-05-18T06:42:05Z</time>
      </trkpt>
      <trkpt lat="43.821143992245197" lon="6.23296701349318">
        <ele>616.82000000000005</ele>
        <time>2025-05-18T06:42:06Z</time>
      </trkpt>
      <trkpt lat="43.821050031110644" lon="6.233102967962623">
        <ele>618.25999999999999</ele>
        <time>2025-05-18T06:42:07Z</time>
      </trkpt>
      <trkpt lat="43.820881973952055" lon="6.233346965163946">
        <ele>620.66999999999996</ele>
        <time>2025-05-18T06:42:09Z</time>
      </trkpt>
      <trkpt lat="43.820799998939037" lon="6.233466994017363">
        <ele>621.63</ele>
        <time>2025-05-18T06:42:10Z</time>
      </trkpt>
      <trkpt lat="43.820689022541046" lon="6.233530025929213">
        <ele>622.59000000000003</ele>
        <time>2025-05-18T06:42:11Z</time>
      </trkpt>
      <trkpt lat="43.820585003122687" lon="6.233584005385637">
        <ele>623.54999999999995</ele>
        <time>2025-05-18T06:42:12Z</time>
      </trkpt>
      <trkpt lat="43.820487018674612" lon="6.233635973185301">
        <ele>624.50999999999999</ele>
        <time>2025-05-18T06:42:13Z</time>
      </trkpt>
      <trkpt lat="43.820391967892647" lon="6.233685007318854">
        <ele>624.99000000000001</ele>
        <time>2025-05-18T06:42:14Z</time>
      </trkpt>
      <trkpt lat="43.820292977616191" lon="6.23374099843204">
        <ele>625.96000000000004</ele>
        <time>2025-05-18T06:42:15Z</time>
      </trkpt>
      <trkpt lat="43.820214020088315" lon="6.233836971223354">
        <ele>626.91999999999996</ele>
        <time>2025-05-18T06:42:16Z</time>
      </trkpt>
      <trkpt lat="43.820162974298" lon="6.233959011733532">
        <ele>627.39999999999998</ele>
        <time>2025-05-18T06:42:17Z</time>
      </trkpt>
      <trkpt lat="43.820121986791492" lon="6.234085997566581">
        <ele>628.36000000000001</ele>
        <time>2025-05-18T06:42:18Z</time>
      </trkpt>
      <trkpt lat="43.820080999284983" lon="6.234216000884771">
        <ele>628.84000000000003</ele>
        <time>2025-05-18T06:42:19Z</time>
      </trkpt>
      <trkpt lat="43.82001000456512" lon="6.234338041394949">
        <ele>629.32000000000005</ele>
        <time>2025-05-18T06:42:20Z</time>
      </trkpt>
      <trkpt lat="43.819915959611535" lon="6.234408030286431">
        <ele>629.79999999999995</ele>
        <time>2025-05-18T06:42:21Z</time>
      </trkpt>
      <trkpt lat="43.819849994033575" lon="6.234440971165896">
        <ele>630.75999999999999</ele>
        <time>2025-05-18T06:42:22Z</time>
      </trkpt>
      <trkpt lat="43.819725019857287" lon="6.234440971165896">
        <ele>631.24000000000001</ele>
        <time>2025-05-18T06:42:23Z</time>
      </trkpt>
      <trkpt lat="43.819616977125406" lon="6.234440971165896">
        <ele>632.20000000000005</ele>
        <time>2025-05-18T06:42:24Z</time>
      </trkpt>
      <trkpt lat="43.819504994899035" lon="6.23447097837925">
        <ele>632.67999999999995</ele>
        <time>2025-05-18T06:42:25Z</time>
      </trkpt>
      <trkpt lat="43.81940801627934" lon="6.23453501611948">
        <ele>632.67999999999995</ele>
        <time>2025-05-18T06:42:26Z</time>
      </trkpt>
      <trkpt lat="43.819292010739446" lon="6.234613973647356">
        <ele>633.16999999999996</ele>
        <time>2025-05-18T06:42:27Z</time>
      </trkpt>
      <trkpt lat="43.819226967170835" lon="6.234742971137166">
        <ele>634.13</ele>
        <time>2025-05-18T06:42:28Z</time>
      </trkpt>
      <trkpt lat="43.819163013249636" lon="6.234870040789247">
        <ele>634.61000000000001</ele>
        <time>2025-05-18T06:42:29Z</time>
      </trkpt>
      <trkpt lat="43.819136023521423" lon="6.235036002472043">
        <ele>635.09000000000003</ele>
        <time>2025-05-18T06:42:30Z</time>
      </trkpt>
      <trkpt lat="43.819123031571507" lon="6.235218979418278">
        <ele>635.09000000000003</ele>
        <time>2025-05-18T06:42:31Z</time>
      </trkpt>
      <trkpt lat="43.819127976894379" lon="6.235407991334796">
        <ele>634.61000000000001</ele>
        <time>2025-05-18T06:42:32Z</time>
      </trkpt>
      <trkpt lat="43.819116996601224" lon="6.235995981842279">
        <ele>633.64999999999998</ele>
        <time>2025-05-18T06:42:35Z</time>
      </trkpt>
      <trkpt lat="43.819076009094715" lon="6.236185999587178">
        <ele>633.16999999999996</ele>
        <time>2025-05-18T06:42:36Z</time>
      </trkpt>
      <trkpt lat="43.819035021588206" lon="6.236379034817219">
        <ele>632.67999999999995</ele>
        <time>2025-05-18T06:42:37Z</time>
      </trkpt>
      <trkpt lat="43.818994034081697" lon="6.236567040905356">
        <ele>632.67999999999995</ele>
        <time>2025-05-18T06:42:38Z</time>
      </trkpt>
      <trkpt lat="43.81895799189806" lon="6.236739037558436">
        <ele>633.16999999999996</ele>
        <time>2025-05-18T06:42:39Z</time>
      </trkpt>
      <trkpt lat="43.818962015211582" lon="6.236936012282968">
        <ele>633.16999999999996</ele>
        <time>2025-05-18T06:42:40Z</time>
      </trkpt>
      <trkpt lat="43.81897802464664" lon="6.237127035856247">
        <ele>633.16999999999996</ele>
        <time>2025-05-18T06:42:41Z</time>
      </trkpt>
      <trkpt lat="43.818992022424936" lon="6.237295009195805">
        <ele>633.64999999999998</ele>
        <time>2025-05-18T06:42:42Z</time>
      </trkpt>
      <trkpt lat="43.81897802464664" lon="6.237498018890619">
        <ele>633.16999999999996</ele>
        <time>2025-05-18T06:42:43Z</time>
      </trkpt>
      <trkpt lat="43.818953968584538" lon="6.237654006108642">
        <ele>633.16999999999996</ele>
        <time>2025-05-18T06:42:44Z</time>
      </trkpt>
      <trkpt lat="43.818888003006577" lon="6.237805970013142">
        <ele>633.16999999999996</ele>
        <time>2025-05-18T06:42:45Z</time>
      </trkpt>
      <trkpt lat="43.818818014115095" lon="6.237967992201448">
        <ele>632.67999999999995</ele>
        <time>2025-05-18T06:42:46Z</time>
      </trkpt>
      <trkpt lat="43.818747019395232" lon="6.238132026046515">
        <ele>632.20000000000005</ele>
        <time>2025-05-18T06:42:47Z</time>
      </trkpt>
      <trkpt lat="43.818280985578895" lon="6.239400962367654">
        <ele>627.88</ele>
        <time>2025-05-18T06:42:54Z</time>
      </trkpt>
      <trkpt lat="43.818190963938832" lon="6.239806981757283">
        <ele>624.99000000000001</ele>
        <time>2025-05-18T06:42:56Z</time>
      </trkpt>
      <trkpt lat="43.818097002804279" lon="6.24037804082036">
        <ele>621.14999999999998</ele>
        <time>2025-05-18T06:42:59Z</time>
      </trkpt>
      <trkpt lat="43.818018967285752" lon="6.240854971110821">
        <ele>617.77999999999997</ele>
        <time>2025-05-18T06:43:02Z</time>
      </trkpt>
      <trkpt lat="43.817983008921146" lon="6.241070972755551">
        <ele>616.34000000000003</ele>
        <time>2025-05-18T06:43:03Z</time>
      </trkpt>
      <trkpt lat="43.817992983385921" lon="6.241191001608968">
        <ele>615.38</ele>
        <time>2025-05-18T06:43:04Z</time>
      </trkpt>
      <trkpt lat="43.818040005862713" lon="6.241801958531141">
        <ele>612.5</ele>
        <time>2025-05-18T06:43:08Z</time>
      </trkpt>
      <trkpt lat="43.818051991984248" lon="6.241954006254673">
        <ele>612.5</ele>
        <time>2025-05-18T06:43:09Z</time>
      </trkpt>
      <trkpt lat="43.818069007247686" lon="6.242165984585881">
        <ele>611.53999999999996</ele>
        <time>2025-05-18T06:43:10Z</time>
      </trkpt>
      <trkpt lat="43.818048974499106" lon="6.24224997125566">
        <ele>611.05999999999995</ele>
        <time>2025-05-18T06:43:11Z</time>
      </trkpt>
      <trkpt lat="43.818003041669726" lon="6.242449041455984">
        <ele>610.57000000000005</ele>
        <time>2025-05-18T06:43:12Z</time>
      </trkpt>
      <trkpt lat="43.817953001707792" lon="6.242665965110064">
        <ele>610.09000000000003</ele>
        <time>2025-05-18T06:43:13Z</time>
      </trkpt>
      <trkpt lat="43.817789973691106" lon="6.243367027491331">
        <ele>609.13</ele>
        <time>2025-05-18T06:43:17Z</time>
      </trkpt>
      <trkpt lat="43.817660976201296" lon="6.24355997890234">
        <ele>608.64999999999998</ele>
        <time>2025-05-18T06:43:18Z</time>
      </trkpt>
      <trkpt lat="43.817645972594619" lon="6.24355997890234">
        <ele>608.16999999999996</ele>
        <time>2025-05-18T06:43:19Z</time>
      </trkpt>
      <trkpt lat="43.817485962063074" lon="6.243525026366115">
        <ele>608.16999999999996</ele>
        <time>2025-05-18T06:43:20Z</time>
      </trkpt>
      <trkpt lat="43.817422008141875" lon="6.243437016382814">
        <ele>607.69000000000005</ele>
        <time>2025-05-18T06:43:21Z</time>
      </trkpt>
      <trkpt lat="43.817349001765251" lon="6.243337020277977">
        <ele>608.64999999999998</ele>
        <time>2025-05-18T06:43:22Z</time>
      </trkpt>
      <trkpt lat="43.817267026752234" lon="6.243224032223225">
        <ele>608.64999999999998</ele>
        <time>2025-05-18T06:43:23Z</time>
      </trkpt>
      <trkpt lat="43.817175999283791" lon="6.243097968399525">
        <ele>608.64999999999998</ele>
        <time>2025-05-18T06:43:24Z</time>
      </trkpt>
      <trkpt lat="43.817080026492476" lon="6.242966037243605">
        <ele>609.13</ele>
        <time>2025-05-18T06:43:25Z</time>
      </trkpt>
      <trkpt lat="43.816984975710511" lon="6.242835028097034">
        <ele>609.13</ele>
        <time>2025-05-18T06:43:26Z</time>
      </trkpt>
      <trkpt lat="43.816895959898829" lon="6.242711981758475">
        <ele>609.61000000000001</ele>
        <time>2025-05-18T06:43:27Z</time>
      </trkpt>
      <trkpt lat="43.816806022077799" lon="6.242654984816909">
        <ele>610.09000000000003</ele>
        <time>2025-05-18T06:43:28Z</time>
      </trkpt>
      <trkpt lat="43.816684987396002" lon="6.242584995925427">
        <ele>611.05999999999995</ele>
        <time>2025-05-18T06:43:29Z</time>
      </trkpt>
      <trkpt lat="43.816568981856108" lon="6.242531016469002">
        <ele>611.53999999999996</ele>
        <time>2025-05-18T06:43:30Z</time>
      </trkpt>
      <trkpt lat="43.816424980759621" lon="6.242539985105395">
        <ele>612.01999999999998</ele>
        <time>2025-05-18T06:43:31Z</time>
      </trkpt>
      <trkpt lat="43.816223982721567" lon="6.242551971226931">
        <ele>612.98000000000002</ele>
        <time>2025-05-18T06:43:32Z</time>
      </trkpt>
      <trkpt lat="43.816123986616731" lon="6.242590025067329">
        <ele>613.46000000000004</ele>
        <time>2025-05-18T06:43:33Z</time>
      </trkpt>
      <trkpt lat="43.81597101688385" lon="6.242648027837277">
        <ele>613.46000000000004</ele>
        <time>2025-05-18T06:43:34Z</time>
      </trkpt>
      <trkpt lat="43.815814023837447" lon="6.242707036435604">
        <ele>613.94000000000005</ele>
        <time>2025-05-18T06:43:35Z</time>
      </trkpt>
      <trkpt lat="43.815510012209415" lon="6.24284902587533">
        <ele>614.89999999999998</ele>
        <time>2025-05-18T06:43:37Z</time>
      </trkpt>
      <trkpt lat="43.815379003062844" lon="6.242948016151786">
        <ele>615.38</ele>
        <time>2025-05-18T06:43:38Z</time>
      </trkpt>
      <trkpt lat="43.815149003639817" lon="6.243192013353109">
        <ele>616.82000000000005</ele>
        <time>2025-05-18T06:43:40Z</time>
      </trkpt>
      <trkpt lat="43.815059987828135" lon="6.243296032771468">
        <ele>617.77999999999997</ele>
        <time>2025-05-18T06:43:41Z</time>
      </trkpt>
      <trkpt lat="43.815013971179724" lon="6.243447996675968">
        <ele>618.25999999999999</ele>
        <time>2025-05-18T06:43:42Z</time>
      </trkpt>
      <trkpt lat="43.814966026693583" lon="6.243607001379132">
        <ele>618.25999999999999</ele>
        <time>2025-05-18T06:43:43Z</time>
      </trkpt>
      <trkpt lat="43.81491799838841" lon="6.243761982768774">
        <ele>618.75</ele>
        <time>2025-05-18T06:43:44Z</time>
      </trkpt>
      <trkpt lat="43.814761005342007" lon="6.244448963552713">
        <ele>620.19000000000005</ele>
        <time>2025-05-18T06:43:48Z</time>
      </trkpt>
      <trkpt lat="43.814722029492259" lon="6.24467602930963">
        <ele>620.66999999999996</ele>
        <time>2025-05-18T06:43:49Z</time>
      </trkpt>
      <trkpt lat="43.814727980643511" lon="6.244836039841175">
        <ele>620.19000000000005</ele>
        <time>2025-05-18T06:43:50Z</time>
      </trkpt>
      <trkpt lat="43.814733009785414" lon="6.24497601762414">
        <ele>619.71000000000004</ele>
        <time>2025-05-18T06:43:51Z</time>
      </trkpt>
      <trkpt lat="43.814737033098936" lon="6.245086994022131">
        <ele>619.23000000000002</ele>
        <time>2025-05-18T06:43:52Z</time>
      </trkpt>
      <trkpt lat="43.814740972593427" lon="6.245177015662193">
        <ele>618.75</ele>
        <time>2025-05-18T06:43:53Z</time>
      </trkpt>
      <trkpt lat="43.814752958714962" lon="6.245275000110269">
        <ele>617.77999999999997</ele>
        <time>2025-05-18T06:43:54Z</time>
      </trkpt>
      <trkpt lat="43.814770979806781" lon="6.245352029800415">
        <ele>616.82000000000005</ele>
        <time>2025-05-18T06:43:55Z</time>
      </trkpt>
      <trkpt lat="43.815002990886569" lon="6.245992993935943">
        <ele>613.46000000000004</ele>
        <time>2025-05-18T06:44:04Z</time>
      </trkpt>
      <trkpt lat="43.815190996974707" lon="6.246412005275488">
        <ele>610.57000000000005</ele>
        <time>2025-05-18T06:44:09Z</time>
      </trkpt>
      <trkpt lat="43.815217986702919" lon="6.246527004987001">
        <ele>609.61000000000001</ele>
        <time>2025-05-18T06:44:10Z</time>
      </trkpt>
      <trkpt lat="43.815235001966357" lon="6.24661099165678">
        <ele>608.64999999999998</ele>
        <time>2025-05-18T06:44:11Z</time>
      </trkpt>
      <trkpt lat="43.815200971439481" lon="6.246733032166958">
        <ele>607.21000000000004</ele>
        <time>2025-05-18T06:44:12Z</time>
      </trkpt>
      <trkpt lat="43.815165013074875" lon="6.246861023828387">
        <ele>606.25</ele>
        <time>2025-05-18T06:44:13Z</time>
      </trkpt>
      <trkpt lat="43.815126037225127" lon="6.246998989954591">
        <ele>605.76999999999998</ele>
        <time>2025-05-18T06:44:14Z</time>
      </trkpt>
      <trkpt lat="43.815086977556348" lon="6.247137961909175">
        <ele>604.80999999999995</ele>
        <time>2025-05-18T06:44:15Z</time>
      </trkpt>
      <trkpt lat="43.815053030848503" lon="6.247343989089131">
        <ele>603.85000000000002</ele>
        <time>2025-05-18T06:44:16Z</time>
      </trkpt>
      <trkpt lat="43.815082032233477" lon="6.247497964650393">
        <ele>603.36000000000001</ele>
        <time>2025-05-18T06:44:17Z</time>
      </trkpt>
      <trkpt lat="43.81511296145618" lon="6.247656969353557">
        <ele>602.39999999999998</ele>
        <time>2025-05-18T06:44:18Z</time>
      </trkpt>
      <trkpt lat="43.815128970891237" lon="6.247782027348876">
        <ele>601.91999999999996</ele>
        <time>2025-05-18T06:44:19Z</time>
      </trkpt>
      <trkpt lat="43.815128970891237" lon="6.247981013730168">
        <ele>601.44000000000005</ele>
        <time>2025-05-18T06:44:20Z</time>
      </trkpt>
      <trkpt lat="43.815065016970038" lon="6.248087966814637">
        <ele>600.96000000000004</ele>
        <time>2025-05-18T06:44:21Z</time>
      </trkpt>
      <trkpt lat="43.815013971179724" lon="6.248121997341514">
        <ele>600.96000000000004</ele>
        <time>2025-05-18T06:44:22Z</time>
      </trkpt>
      <trkpt lat="43.814909029752016" lon="6.248191986232996">
        <ele>601.44000000000005</ele>
        <time>2025-05-18T06:44:23Z</time>
      </trkpt>
      <trkpt lat="43.814793024212122" lon="6.248269015923142">
        <ele>601.91999999999996</ele>
        <time>2025-05-18T06:44:24Z</time>
      </trkpt>
      <trkpt lat="43.814670983701944" lon="6.248356020078063">
        <ele>602.39999999999998</ele>
        <time>2025-05-18T06:44:25Z</time>
      </trkpt>
      <trkpt lat="43.814571993425488" lon="6.248495997861028">
        <ele>602.88</ele>
        <time>2025-05-18T06:44:26Z</time>
      </trkpt>
      <trkpt lat="43.81446897983551" lon="6.248642010614276">
        <ele>603.36000000000001</ele>
        <time>2025-05-18T06:44:27Z</time>
      </trkpt>
      <trkpt lat="43.814369989559054" lon="6.24878098256886">
        <ele>603.36000000000001</ele>
        <time>2025-05-18T06:44:28Z</time>
      </trkpt>
      <trkpt lat="43.814297989010811" lon="6.248933030292392">
        <ele>603.85000000000002</ele>
        <time>2025-05-18T06:44:29Z</time>
      </trkpt>
      <trkpt lat="43.814262030646205" lon="6.249095974490047">
        <ele>603.85000000000002</ele>
        <time>2025-05-18T06:44:30Z</time>
      </trkpt>
      <trkpt lat="43.814228000119328" lon="6.249247016385198">
        <ele>603.85000000000002</ele>
        <time>2025-05-18T06:44:31Z</time>
      </trkpt>
      <trkpt lat="43.814206961542368" lon="6.249439967796207">
        <ele>603.85000000000002</ele>
        <time>2025-05-18T06:44:32Z</time>
      </trkpt>
      <trkpt lat="43.814236968755722" lon="6.249545998871326">
        <ele>603.85000000000002</ele>
        <time>2025-05-18T06:44:33Z</time>
      </trkpt>
      <trkpt lat="43.81427401676774" lon="6.249674996361136">
        <ele>603.85000000000002</ele>
        <time>2025-05-18T06:44:34Z</time>
      </trkpt>
      <trkpt lat="43.814289020374417" lon="6.249757977202535">
        <ele>603.85000000000002</ele>
        <time>2025-05-18T06:44:35Z</time>
      </trkpt>
      <trkpt lat="43.814249960705638" lon="6.249975990504026">
        <ele>603.36000000000001</ele>
        <time>2025-05-18T06:44:36Z</time>
      </trkpt>
      <trkpt lat="43.814234035089612" lon="6.249989988282323">
        <ele>603.36000000000001</ele>
        <time>2025-05-18T06:44:37Z</time>
      </trkpt>
      <trkpt lat="43.814136972650886" lon="6.250076992437244">
        <ele>604.33000000000004</ele>
        <time>2025-05-18T06:44:38Z</time>
      </trkpt>
      <trkpt lat="43.814035970717669" lon="6.250168019905686">
        <ele>604.33000000000004</ele>
        <time>2025-05-18T06:44:39Z</time>
      </trkpt>
      <trkpt lat="43.813429959118366" lon="6.250482005998492">
        <ele>605.28999999999996</ele>
        <time>2025-05-18T06:44:43Z</time>
      </trkpt>
      <trkpt lat="43.813292998820543" lon="6.250505978241563">
        <ele>605.28999999999996</ele>
        <time>2025-05-18T06:44:44Z</time>
      </trkpt>
      <trkpt lat="43.813219992443919" lon="6.250490974634886">
        <ele>604.80999999999995</ele>
        <time>2025-05-18T06:44:45Z</time>
      </trkpt>
      <trkpt lat="43.813109016045928" lon="6.250411011278629">
        <ele>604.33000000000004</ele>
        <time>2025-05-18T06:44:46Z</time>
      </trkpt>
      <trkpt lat="43.813042966648936" lon="6.250362982973456">
        <ele>604.33000000000004</ele>
        <time>2025-05-18T06:44:47Z</time>
      </trkpt>
      <trkpt lat="43.81298404186964" lon="6.250319983810186">
        <ele>604.33000000000004</ele>
        <time>2025-05-18T06:44:48Z</time>
      </trkpt>
      <trkpt lat="43.81298404186964" lon="6.250319983810186">
        <ele>604.33000000000004</ele>
        <time>2025-05-18T06:44:49Z</time>
      </trkpt>
      <trkpt lat="43.812875999137759" lon="6.250341022387147">
        <ele>606.73000000000002</ele>
        <time>2025-05-18T06:44:50Z</time>
      </trkpt>
      <trkpt lat="43.812875999137759" lon="6.250341022387147">
        <ele>608.16999999999996</ele>
        <time>2025-05-18T06:44:51Z</time>
      </trkpt>
      <trkpt lat="43.812831994146109" lon="6.250445041805506">
        <ele>609.61000000000001</ele>
        <time>2025-05-18T06:44:52Z</time>
      </trkpt>
      <trkpt lat="43.81281397305429" lon="6.250485023483634">
        <ele>611.05999999999995</ele>
        <time>2025-05-18T06:44:53Z</time>
      </trkpt>
      <trkpt lat="43.812811961397529" lon="6.250490974634886">
        <ele>612.5</ele>
        <time>2025-05-18T06:44:54Z</time>
      </trkpt>
      <trkpt lat="43.81281103938818" lon="6.250499021261931">
        <ele>612.98000000000002</ele>
        <time>2025-05-18T06:44:55Z</time>
      </trkpt>
      <trkpt lat="43.812809027731419" lon="6.250543026253581">
        <ele>613.94000000000005</ele>
        <time>2025-05-18T06:44:56Z</time>
      </trkpt>
      <trkpt lat="43.812794024124742" lon="6.250804038718343">
        <ele>617.29999999999995</ele>
        <time>2025-05-18T06:45:06Z</time>
      </trkpt>
      <trkpt lat="43.812790000811219" lon="6.250856006518006">
        <ele>620.19000000000005</ele>
        <time>2025-05-18T06:45:21Z</time>
      </trkpt>
      <trkpt lat="43.812790000811219" lon="6.250856006518006">
        <ele>622.59000000000003</ele>
        <time>2025-05-18T06:46:00Z</time>
      </trkpt>
      <trkpt lat="43.812790000811219" lon="6.250856006518006">
        <ele>626.44000000000005</ele>
        <time>2025-05-18T06:47:07Z</time>
      </trkpt>
      <trkpt lat="43.812795029953122" lon="6.25090797431767">
        <ele>632.20000000000005</ele>
        <time>2025-05-18T06:47:09Z</time>
      </trkpt>
      <trkpt lat="43.812798969447613" lon="6.250953990966082">
        <ele>635.09000000000003</ele>
        <time>2025-05-18T06:47:10Z</time>
      </trkpt>
      <trkpt lat="43.812803998589516" lon="6.251024985685945">
        <ele>636.52999999999997</ele>
        <time>2025-05-18T06:47:11Z</time>
      </trkpt>
      <trkpt lat="43.812882034108043" lon="6.251956969499588">
        <ele>639.40999999999997</ele>
        <time>2025-05-18T06:47:18Z</time>
      </trkpt>
      <trkpt lat="43.812940958887339" lon="6.253124987706542">
        <ele>639.40999999999997</ele>
        <time>2025-05-18T06:47:24Z</time>
      </trkpt>
      <trkpt lat="43.812886979430914" lon="6.253307964652777">
        <ele>638.92999999999995</ele>
        <time>2025-05-18T06:47:25Z</time>
      </trkpt>
      <trkpt lat="43.812827970832586" lon="6.253453977406025">
        <ele>638.92999999999995</ele>
        <time>2025-05-18T06:47:26Z</time>
      </trkpt>
      <trkpt lat="43.812739960849285" lon="6.253562020137906">
        <ele>638.45000000000005</ele>
        <time>2025-05-18T06:47:27Z</time>
      </trkpt>
      <trkpt lat="43.812634013593197" lon="6.253660004585981">
        <ele>638.92999999999995</ele>
        <time>2025-05-18T06:47:28Z</time>
      </trkpt>
      <trkpt lat="43.812524965032935" lon="6.253761006519198">
        <ele>639.40999999999997</ele>
        <time>2025-05-18T06:47:29Z</time>
      </trkpt>
      <trkpt lat="43.812441984191537" lon="6.253912970423698">
        <ele>639.88999999999999</ele>
        <time>2025-05-18T06:47:30Z</time>
      </trkpt>
      <trkpt lat="43.812368977814913" lon="6.254057977348566">
        <ele>639.88999999999999</ele>
        <time>2025-05-18T06:47:31Z</time>
      </trkpt>
      <trkpt lat="43.812305023893714" lon="6.254213964566588">
        <ele>640.86000000000001</ele>
        <time>2025-05-18T06:47:32Z</time>
      </trkpt>
      <trkpt lat="43.812264036387205" lon="6.254375986754894">
        <ele>640.86000000000001</ele>
        <time>2025-05-18T06:47:33Z</time>
      </trkpt>
      <trkpt lat="43.81223302334547" lon="6.254503978416324">
        <ele>641.34000000000003</ele>
        <time>2025-05-18T06:47:34Z</time>
      </trkpt>
      <trkpt lat="43.812253978103399" lon="6.254638005048037">
        <ele>641.82000000000005</ele>
        <time>2025-05-18T06:47:35Z</time>
      </trkpt>
      <trkpt lat="43.81227501668036" lon="6.25477496534586">
        <ele>642.29999999999995</ele>
        <time>2025-05-18T06:47:36Z</time>
      </trkpt>
      <trkpt lat="43.812295971438289" lon="6.254908991977572">
        <ele>642.77999999999997</ele>
        <time>2025-05-18T06:47:37Z</time>
      </trkpt>
      <trkpt lat="43.812263030558825" lon="6.255046036094427">
        <ele>642.77999999999997</ele>
        <time>2025-05-18T06:47:38Z</time>
      </trkpt>
      <trkpt lat="43.812204021960497" lon="6.255133040249348">
        <ele>643.25999999999999</ele>
        <time>2025-05-18T06:47:39Z</time>
      </trkpt>
      <trkpt lat="43.81214702501893" lon="6.255190037190914">
        <ele>643.74000000000001</ele>
        <time>2025-05-18T06:47:40Z</time>
      </trkpt>
      <trkpt lat="43.812035964801908" lon="6.255200011655688">
        <ele>643.74000000000001</ele>
        <time>2025-05-18T06:47:41Z</time>
      </trkpt>
      <trkpt lat="43.811915013939142" lon="6.255209986120462">
        <ele>644.22000000000003</ele>
        <time>2025-05-18T06:47:42Z</time>
      </trkpt>
      <trkpt lat="43.811775958165526" lon="6.255220966413617">
        <ele>644.70000000000005</ele>
        <time>2025-05-18T06:47:43Z</time>
      </trkpt>
      <trkpt lat="43.811326017603278" lon="6.255184002220631">
        <ele>648.07000000000005</ele>
        <time>2025-05-18T06:47:46Z</time>
      </trkpt>
      <trkpt lat="43.810967020690441" lon="6.255125999450684">
        <ele>650.47000000000003</ele>
        <time>2025-05-18T06:47:49Z</time>
      </trkpt>
      <trkpt lat="43.810865012928843" lon="6.255205040797591">
        <ele>650.47000000000003</ele>
        <time>2025-05-18T06:47:50Z</time>
      </trkpt>
      <trkpt lat="43.81077297963202" lon="6.255276035517454">
        <ele>650.47000000000003</ele>
        <time>2025-05-18T06:47:51Z</time>
      </trkpt>
      <trkpt lat="43.810730986297131" lon="6.255345018580556">
        <ele>650.47000000000003</ele>
        <time>2025-05-18T06:47:52Z</time>
      </trkpt>
      <trkpt lat="43.810668038204312" lon="6.255448032170534">
        <ele>650.95000000000005</ele>
        <time>2025-05-18T06:47:53Z</time>
      </trkpt>
      <trkpt lat="43.810608023777604" lon="6.255545010790229">
        <ele>651.42999999999995</ele>
        <time>2025-05-18T06:47:54Z</time>
      </trkpt>
      <trkpt lat="43.810529988259077" lon="6.255597984418273">
        <ele>651.42999999999995</ele>
        <time>2025-05-18T06:47:55Z</time>
      </trkpt>
      <trkpt lat="43.810494029894471" lon="6.255620028823614">
        <ele>651.42999999999995</ele>
        <time>2025-05-18T06:47:56Z</time>
      </trkpt>
      <trkpt lat="43.810384981334209" lon="6.255594966933131">
        <ele>651.42999999999995</ele>
        <time>2025-05-18T06:47:57Z</time>
      </trkpt>
      <trkpt lat="43.810300994664431" lon="6.255577029660344">
        <ele>651.42999999999995</ele>
        <time>2025-05-18T06:47:58Z</time>
      </trkpt>
      <trkpt lat="43.810209967195988" lon="6.255495976656675">
        <ele>651.90999999999997</ele>
        <time>2025-05-18T06:47:59Z</time>
      </trkpt>
      <trkpt lat="43.810111982747912" lon="6.255407966673374">
        <ele>652.38999999999999</ele>
        <time>2025-05-18T06:48:00Z</time>
      </trkpt>
      <trkpt lat="43.810045011341572" lon="6.255285004153848">
        <ele>652.87</ele>
        <time>2025-05-18T06:48:01Z</time>
      </trkpt>
      <trkpt lat="43.809963958337903" lon="6.255133040249348">
        <ele>653.35000000000002</ele>
        <time>2025-05-18T06:48:02Z</time>
      </trkpt>
      <trkpt lat="43.809866979718208" lon="6.254977975040674">
        <ele>653.83000000000004</ele>
        <time>2025-05-18T06:48:03Z</time>
      </trkpt>
      <trkpt lat="43.809764971956611" lon="6.254845038056374">
        <ele>654.30999999999995</ele>
        <time>2025-05-18T06:48:04Z</time>
      </trkpt>
      <trkpt lat="43.809636980295181" lon="6.254730960354209">
        <ele>654.79999999999995</ele>
        <time>2025-05-18T06:48:05Z</time>
      </trkpt>
      <trkpt lat="43.809497002512217" lon="6.254662983119488">
        <ele>654.79999999999995</ele>
        <time>2025-05-18T06:48:06Z</time>
      </trkpt>
      <trkpt lat="43.809361970052123" lon="6.254598023369908">
        <ele>655.27999999999997</ele>
        <time>2025-05-18T06:48:07Z</time>
      </trkpt>
      <trkpt lat="43.809230960905552" lon="6.254534991458058">
        <ele>655.27999999999997</ele>
        <time>2025-05-18T06:48:08Z</time>
      </trkpt>
      <trkpt lat="43.809112021699548" lon="6.254476988688111">
        <ele>655.75999999999999</ele>
        <time>2025-05-18T06:48:09Z</time>
      </trkpt>
      <trkpt lat="43.808928038924932" lon="6.254475982859731">
        <ele>655.27999999999997</ele>
        <time>2025-05-18T06:48:11Z</time>
      </trkpt>
      <trkpt lat="43.808855032548308" lon="6.254492998123169">
        <ele>655.27999999999997</ele>
        <time>2025-05-18T06:48:12Z</time>
      </trkpt>
      <trkpt lat="43.808796023949981" lon="6.254568016156554">
        <ele>654.79999999999995</ele>
        <time>2025-05-18T06:48:13Z</time>
      </trkpt>
      <trkpt lat="43.80873098038137" lon="6.254650996997953">
        <ele>654.79999999999995</ele>
        <time>2025-05-18T06:48:14Z</time>
      </trkpt>
      <trkpt lat="43.808658979833126" lon="6.254743030294776">
        <ele>654.79999999999995</ele>
        <time>2025-05-18T06:48:15Z</time>
      </trkpt>
      <trkpt lat="43.808560995385051" lon="6.2548160366714">
        <ele>654.79999999999995</ele>
        <time>2025-05-18T06:48:16Z</time>
      </trkpt>
      <trkpt lat="43.808453036472201" lon="6.254845038056374">
        <ele>654.79999999999995</ele>
        <time>2025-05-18T06:48:17Z</time>
      </trkpt>
      <trkpt lat="43.808340970426798" lon="6.254841014742851">
        <ele>654.79999999999995</ele>
        <time>2025-05-18T06:48:18Z</time>
      </trkpt>
      <trkpt lat="43.808223959058523" lon="6.254836991429329">
        <ele>654.79999999999995</ele>
        <time>2025-05-18T06:48:19Z</time>
      </trkpt>
      <trkpt lat="43.80810895934701" lon="6.254831962287426">
        <ele>654.79999999999995</ele>
        <time>2025-05-18T06:48:20Z</time>
      </trkpt>
      <trkpt lat="43.80765600129962" lon="6.254755016416311">
        <ele>654.79999999999995</ele>
        <time>2025-05-18T06:48:24Z</time>
      </trkpt>
      <trkpt lat="43.80755097605288" lon="6.254728026688099">
        <ele>655.27999999999997</ele>
        <time>2025-05-18T06:48:25Z</time>
      </trkpt>
      <trkpt lat="43.807228021323681" lon="6.254620989784598">
        <ele>657.20000000000005</ele>
        <time>2025-05-18T06:48:31Z</time>
      </trkpt>
      <trkpt lat="43.807228021323681" lon="6.254620989784598">
        <ele>658.15999999999997</ele>
        <time>2025-05-18T06:48:46Z</time>
      </trkpt>
      <trkpt lat="43.807170018553734" lon="6.254599029198289">
        <ele>660.08000000000004</ele>
        <time>2025-05-18T06:49:16Z</time>
      </trkpt>
      <trkpt lat="43.806730974465609" lon="6.254427032545209">
        <ele>661.51999999999998</ele>
        <time>2025-05-18T06:49:21Z</time>
      </trkpt>
      <trkpt lat="43.80662502720952" lon="6.254438012838364">
        <ele>661.51999999999998</ele>
        <time>2025-05-18T06:49:22Z</time>
      </trkpt>
      <trkpt lat="43.806535005569458" lon="6.254500960931182">
        <ele>662.00999999999999</ele>
        <time>2025-05-18T06:49:23Z</time>
      </trkpt>
      <trkpt lat="43.806441966444254" lon="6.254566004499793">
        <ele>662.00999999999999</ele>
        <time>2025-05-18T06:49:24Z</time>
      </trkpt>
      <trkpt lat="43.806336019188166" lon="6.254583019763231">
        <ele>662.00999999999999</ele>
        <time>2025-05-18T06:49:25Z</time>
      </trkpt>
      <trkpt lat="43.806245997548103" lon="6.2545570358634">
        <ele>662.49000000000001</ele>
        <time>2025-05-18T06:49:26Z</time>
      </trkpt>
      <trkpt lat="43.806156981736422" lon="6.254488974809647">
        <ele>662.49000000000001</ele>
        <time>2025-05-18T06:49:27Z</time>
      </trkpt>
      <trkpt lat="43.806062014773488" lon="6.254415968433023">
        <ele>662.97000000000003</ele>
        <time>2025-05-18T06:49:28Z</time>
      </trkpt>
      <trkpt lat="43.805977022275329" lon="6.254325024783611">
        <ele>663.45000000000005</ele>
        <time>2025-05-18T06:49:29Z</time>
      </trkpt>
      <trkpt lat="43.805904015898705" lon="6.25421698205173">
        <ele>663.45000000000005</ele>
        <time>2025-05-18T06:49:30Z</time>
      </trkpt>
      <trkpt lat="43.8058300036937" lon="6.254112040624023">
        <ele>663.45000000000005</ele>
        <time>2025-05-18T06:49:31Z</time>
      </trkpt>
      <trkpt lat="43.805740987882018" lon="6.254053032025695">
        <ele>662.97000000000003</ele>
        <time>2025-05-18T06:49:32Z</time>
      </trkpt>
      <trkpt lat="43.805631017312407" lon="6.254026964306831">
        <ele>662.97000000000003</ele>
        <time>2025-05-18T06:49:33Z</time>
      </trkpt>
      <trkpt lat="43.805513000115752" lon="6.254019001498818">
        <ele>662.97000000000003</ele>
        <time>2025-05-18T06:49:34Z</time>
      </trkpt>
      <trkpt lat="43.805390037596226" lon="6.254011038690805">
        <ele>662.49000000000001</ele>
        <time>2025-05-18T06:49:35Z</time>
      </trkpt>
      <trkpt lat="43.805261962115765" lon="6.254002992063761">
        <ele>662.49000000000001</ele>
        <time>2025-05-18T06:49:36Z</time>
      </trkpt>
      <trkpt lat="43.805130030959845" lon="6.253995029255748">
        <ele>662.00999999999999</ele>
        <time>2025-05-18T06:49:37Z</time>
      </trkpt>
      <trkpt lat="43.804998015984893" lon="6.253985976800323">
        <ele>662.00999999999999</ele>
        <time>2025-05-18T06:49:38Z</time>
      </trkpt>
      <trkpt lat="43.804618986323476" lon="6.253992011770606">
        <ele>661.03999999999996</ele>
        <time>2025-05-18T06:49:41Z</time>
      </trkpt>
      <trkpt lat="43.804495017975569" lon="6.254028975963593">
        <ele>660.55999999999995</ele>
        <time>2025-05-18T06:49:42Z</time>
      </trkpt>
      <trkpt lat="43.804271975532174" lon="6.254096031188965">
        <ele>659.60000000000002</ele>
        <time>2025-05-18T06:49:44Z</time>
      </trkpt>
      <trkpt lat="43.80417600274086" lon="6.254059989005327">
        <ele>659.60000000000002</ele>
        <time>2025-05-18T06:49:45Z</time>
      </trkpt>
      <trkpt lat="43.804087992757559" lon="6.254026964306831">
        <ele>659.12</ele>
        <time>2025-05-18T06:49:46Z</time>
      </trkpt>
      <trkpt lat="43.804006017744541" lon="6.253996035084128">
        <ele>659.12</ele>
        <time>2025-05-18T06:49:47Z</time>
      </trkpt>
      <trkpt lat="43.803929993882775" lon="6.253968039527535">
        <ele>658.63999999999999</ele>
        <time>2025-05-18T06:49:48Z</time>
      </trkpt>
      <trkpt lat="43.803858999162912" lon="6.254032999277115">
        <ele>658.63999999999999</ele>
        <time>2025-05-18T06:49:49Z</time>
      </trkpt>
      <trkpt lat="43.803806025534868" lon="6.254083039239049">
        <ele>658.15999999999997</ele>
        <time>2025-05-18T06:49:50Z</time>
      </trkpt>
      <trkpt lat="43.803748022764921" lon="6.254137018695474">
        <ele>658.15999999999997</ele>
        <time>2025-05-18T06:49:51Z</time>
      </trkpt>
      <trkpt lat="43.80368297919631" lon="6.254198038950563">
        <ele>657.67999999999995</ele>
        <time>2025-05-18T06:49:52Z</time>
      </trkpt>
      <trkpt lat="43.803471000865102" lon="6.254370035603643">
        <ele>656.24000000000001</ele>
        <time>2025-05-18T06:49:55Z</time>
      </trkpt>
      <trkpt lat="43.803396988660097" lon="6.254415968433023">
        <ele>655.75999999999999</ele>
        <time>2025-05-18T06:49:56Z</time>
      </trkpt>
      <trkpt lat="43.803323982283473" lon="6.254460979253054">
        <ele>655.75999999999999</ele>
        <time>2025-05-18T06:49:57Z</time>
      </trkpt>
      <trkpt lat="43.803244018927217" lon="6.254460979253054">
        <ele>655.27999999999997</ele>
        <time>2025-05-18T06:49:58Z</time>
      </trkpt>
      <trkpt lat="43.803164977580309" lon="6.254448993131518">
        <ele>655.27999999999997</ele>
        <time>2025-05-18T06:49:59Z</time>
      </trkpt>
      <trkpt lat="43.803089959546924" lon="6.254423009231687">
        <ele>655.27999999999997</ele>
        <time>2025-05-18T06:50:00Z</time>
      </trkpt>
      <trkpt lat="43.803023993968964" lon="6.254399958997965">
        <ele>655.75999999999999</ele>
        <time>2025-05-18T06:50:01Z</time>
      </trkpt>
      <trkpt lat="43.802965991199017" lon="6.254379004240036">
        <ele>655.75999999999999</ele>
        <time>2025-05-18T06:50:02Z</time>
      </trkpt>
      <trkpt lat="43.802922992035747" lon="6.254364000633359">
        <ele>656.24000000000001</ele>
        <time>2025-05-18T06:50:03Z</time>
      </trkpt>
      <trkpt lat="43.802890973165631" lon="6.254353020340204">
        <ele>656.24000000000001</ele>
        <time>2025-05-18T06:50:04Z</time>
      </trkpt>
      <trkpt lat="43.802869012579322" lon="6.25434497371316">
        <ele>657.67999999999995</ele>
        <time>2025-05-18T06:50:13Z</time>
      </trkpt>
      <trkpt lat="43.802869012579322" lon="6.25434497371316">
        <ele>657.67999999999995</ele>
        <time>2025-05-18T06:50:45Z</time>
      </trkpt>
      <trkpt lat="43.802869012579322" lon="6.25434497371316">
        <ele>657.67999999999995</ele>
        <time>2025-05-18T06:51:23Z</time>
      </trkpt>
      <trkpt lat="43.802869012579322" lon="6.25434497371316">
        <ele>659.12</ele>
        <time>2025-05-18T06:52:20Z</time>
      </trkpt>
      <trkpt lat="43.802869012579322" lon="6.25434497371316">
        <ele>659.60000000000002</ele>
        <time>2025-05-18T06:53:07Z</time>
      </trkpt>
      <trkpt lat="43.802770022302866" lon="6.254311027005315">
        <ele>660.55999999999995</ele>
        <time>2025-05-18T06:53:08Z</time>
      </trkpt>
      <trkpt lat="43.802770022302866" lon="6.254311027005315">
        <ele>661.51999999999998</ele>
        <time>2025-05-18T06:53:09Z</time>
      </trkpt>
      <trkpt lat="43.802729034796357" lon="6.254315972328186">
        <ele>662.49000000000001</ele>
        <time>2025-05-18T06:53:10Z</time>
      </trkpt>
      <trkpt lat="43.80267396569252" lon="6.25432301312685">
        <ele>662.49000000000001</ele>
        <time>2025-05-18T06:53:11Z</time>
      </trkpt>
      <trkpt lat="43.802615040913224" lon="6.254329970106483">
        <ele>662.97000000000003</ele>
        <time>2025-05-18T06:53:12Z</time>
      </trkpt>
      <trkpt lat="43.802567012608051" lon="6.254362994804978">
        <ele>662.97000000000003</ele>
        <time>2025-05-18T06:53:13Z</time>
      </trkpt>
      <trkpt lat="43.80252099595964" lon="6.25440901145339">
        <ele>662.97000000000003</ele>
        <time>2025-05-18T06:53:14Z</time>
      </trkpt>
      <trkpt lat="43.802473973482847" lon="6.254456033930183">
        <ele>662.49000000000001</ele>
        <time>2025-05-18T06:53:15Z</time>
      </trkpt>
      <trkpt lat="43.802442960441113" lon="6.254497021436691">
        <ele>662.49000000000001</ele>
        <time>2025-05-18T06:53:16Z</time>
      </trkpt>
      <trkpt lat="43.802419994026423" lon="6.254577990621328">
        <ele>662.49000000000001</ele>
        <time>2025-05-18T06:53:17Z</time>
      </trkpt>
      <trkpt lat="43.802395015954971" lon="6.254659965634346">
        <ele>662.00999999999999</ele>
        <time>2025-05-18T06:53:18Z</time>
      </trkpt>
      <trkpt lat="43.802315974608064" lon="6.254926007241011">
        <ele>661.51999999999998</ele>
        <time>2025-05-18T06:53:21Z</time>
      </trkpt>
      <trkpt lat="43.802284961566329" lon="6.25503296032548">
        <ele>661.03999999999996</ele>
        <time>2025-05-18T06:53:22Z</time>
      </trkpt>
      <trkpt lat="43.802235005423427" lon="6.2551389914006">
        <ele>661.03999999999996</ele>
        <time>2025-05-18T06:53:23Z</time>
      </trkpt>
      <trkpt lat="43.802175996825099" lon="6.255248039960861">
        <ele>661.03999999999996</ele>
        <time>2025-05-18T06:53:24Z</time>
      </trkpt>
      <trkpt lat="43.802100978791714" lon="6.255360022187233">
        <ele>661.03999999999996</ele>
        <time>2025-05-18T06:53:25Z</time>
      </trkpt>
      <trkpt lat="43.802001988515258" lon="6.255435962229967">
        <ele>661.03999999999996</ele>
        <time>2025-05-18T06:53:26Z</time>
      </trkpt>
      <trkpt lat="43.80189897492528" lon="6.255515003576875">
        <ele>661.51999999999998</ele>
        <time>2025-05-18T06:53:27Z</time>
      </trkpt>
      <trkpt lat="43.801794033497572" lon="6.255595972761512">
        <ele>661.51999999999998</ele>
        <time>2025-05-18T06:53:28Z</time>
      </trkpt>
      <trkpt lat="43.801689008250833" lon="6.2556760199368">
        <ele>661.51999999999998</ele>
        <time>2025-05-18T06:53:29Z</time>
      </trkpt>
      <trkpt lat="43.801567973569036" lon="6.255769981071353">
        <ele>661.51999999999998</ele>
        <time>2025-05-18T06:53:30Z</time>
      </trkpt>
      <trkpt lat="43.801495973020792" lon="6.25587098300457">
        <ele>661.51999999999998</ele>
        <time>2025-05-18T06:53:31Z</time>
      </trkpt>
      <trkpt lat="43.801408968865871" lon="6.255996040999889">
        <ele>661.51999999999998</ele>
        <time>2025-05-18T06:53:32Z</time>
      </trkpt>
      <trkpt lat="43.801319031044841" lon="6.256123026832938">
        <ele>661.51999999999998</ele>
        <time>2025-05-18T06:53:33Z</time>
      </trkpt>
      <trkpt lat="43.801219034940004" lon="6.256234003230929">
        <ele>661.51999999999998</ele>
        <time>2025-05-18T06:53:34Z</time>
      </trkpt>
      <trkpt lat="43.800529958680272" lon="6.257087029516697">
        <ele>662.00999999999999</ele>
        <time>2025-05-18T06:53:41Z</time>
      </trkpt>
      <trkpt lat="43.800441026687622" lon="6.257175961509347">
        <ele>662.00999999999999</ele>
        <time>2025-05-18T06:53:42Z</time>
      </trkpt>
      <trkpt lat="43.800359973683953" lon="6.257257014513016">
        <ele>662.00999999999999</ele>
        <time>2025-05-18T06:53:43Z</time>
      </trkpt>
      <trkpt lat="43.800298031419516" lon="6.257319040596485">
        <ele>662.00999999999999</ele>
        <time>2025-05-18T06:53:44Z</time>
      </trkpt>
      <trkpt lat="43.800297025591135" lon="6.257392968982458">
        <ele>661.51999999999998</ele>
        <time>2025-05-18T06:53:45Z</time>
      </trkpt>
      <trkpt lat="43.800320997834206" lon="6.257478967308998">
        <ele>661.51999999999998</ele>
        <time>2025-05-18T06:53:46Z</time>
      </trkpt>
      <trkpt lat="43.80035100504756" lon="6.257580975070596">
        <ele>661.51999999999998</ele>
        <time>2025-05-18T06:53:47Z</time>
      </trkpt>
      <trkpt lat="43.800383023917675" lon="6.257694968953729">
        <ele>661.03999999999996</ele>
        <time>2025-05-18T06:53:48Z</time>
      </trkpt>
      <trkpt lat="43.800418982282281" lon="6.257796976715326">
        <ele>661.51999999999998</ele>
        <time>2025-05-18T06:53:49Z</time>
      </trkpt>
      <trkpt lat="43.800491988658905" lon="6.25786998309195">
        <ele>661.51999999999998</ele>
        <time>2025-05-18T06:53:50Z</time>
      </trkpt>
      <trkpt lat="43.800571030005813" lon="6.257949024438858">
        <ele>661.51999999999998</ele>
        <time>2025-05-18T06:53:51Z</time>
      </trkpt>
      <trkpt lat="43.800644958391786" lon="6.258023036643863">
        <ele>661.51999999999998</ele>
        <time>2025-05-18T06:53:52Z</time>
      </trkpt>
      <trkpt lat="43.800697010010481" lon="6.258153039962053">
        <ele>661.51999999999998</ele>
        <time>2025-05-18T06:53:53Z</time>
      </trkpt>
      <trkpt lat="43.800745038315654" lon="6.258270973339677">
        <ele>662.00999999999999</ele>
        <time>2025-05-18T06:53:54Z</time>
      </trkpt>
      <trkpt lat="43.800792982801795" lon="6.258393013849855">
        <ele>662.00999999999999</ele>
        <time>2025-05-18T06:53:55Z</time>
      </trkpt>
      <trkpt lat="43.800811003893614" lon="6.258539026603103">
        <ele>662.49000000000001</ele>
        <time>2025-05-18T06:53:56Z</time>
      </trkpt>
      <trkpt lat="43.800799017772079" lon="6.258694007992744">
        <ele>662.49000000000001</ele>
        <time>2025-05-18T06:53:57Z</time>
      </trkpt>
      <trkpt lat="43.800788037478924" lon="6.25885502435267">
        <ele>662.97000000000003</ele>
        <time>2025-05-18T06:53:58Z</time>
      </trkpt>
      <trkpt lat="43.800774961709976" lon="6.259026015177369">
        <ele>663.45000000000005</ele>
        <time>2025-05-18T06:53:59Z</time>
      </trkpt>
      <trkpt lat="43.800762975588441" lon="6.259197006002069">
        <ele>663.92999999999995</ele>
        <time>2025-05-18T06:54:00Z</time>
      </trkpt>
      <trkpt lat="43.800745960325003" lon="6.25935198739171">
        <ele>664.40999999999997</ele>
        <time>2025-05-18T06:54:01Z</time>
      </trkpt>
      <trkpt lat="43.800702039152384" lon="6.259484002366662">
        <ele>664.88999999999999</ele>
        <time>2025-05-18T06:54:02Z</time>
      </trkpt>
      <trkpt lat="43.80063297227025" lon="6.259612999856472">
        <ele>665.37</ele>
        <time>2025-05-18T06:54:03Z</time>
      </trkpt>
      <trkpt lat="43.800542028620839" lon="6.259677959606051">
        <ele>665.85000000000002</ele>
        <time>2025-05-18T06:54:04Z</time>
      </trkpt>
      <trkpt lat="43.800427028909326" lon="6.259696986526251">
        <ele>665.85000000000002</ele>
        <time>2025-05-18T06:54:05Z</time>
      </trkpt>
      <trkpt lat="43.800311023369431" lon="6.259696986526251">
        <ele>666.33000000000004</ele>
        <time>2025-05-18T06:54:06Z</time>
      </trkpt>
      <trkpt lat="43.800192000344396" lon="6.259696986526251">
        <ele>666.80999999999995</ele>
        <time>2025-05-18T06:54:07Z</time>
      </trkpt>
      <trkpt lat="43.800079012289643" lon="6.259696986526251">
        <ele>666.80999999999995</ele>
        <time>2025-05-18T06:54:08Z</time>
      </trkpt>
      <trkpt lat="43.799974992871284" lon="6.259696986526251">
        <ele>666.80999999999995</ele>
        <time>2025-05-18T06:54:09Z</time>
      </trkpt>
      <trkpt lat="43.799882037565112" lon="6.259696986526251">
        <ele>667.28999999999996</ele>
        <time>2025-05-18T06:54:10Z</time>
      </trkpt>
      <trkpt lat="43.799791010096669" lon="6.259669996798039">
        <ele>667.28999999999996</ele>
        <time>2025-05-18T06:54:11Z</time>
      </trkpt>
      <trkpt lat="43.799696965143085" lon="6.259628003463149">
        <ele>667.76999999999998</ele>
        <time>2025-05-18T06:54:12Z</time>
      </trkpt>
      <trkpt lat="43.799597974866629" lon="6.259585004299879">
        <ele>668.25</ele>
        <time>2025-05-18T06:54:13Z</time>
      </trkpt>
      <trkpt lat="43.79949496127665" lon="6.259539993479848">
        <ele>668.73000000000002</ele>
        <time>2025-05-18T06:54:14Z</time>
      </trkpt>
      <trkpt lat="43.799389014020562" lon="6.259492971003056">
        <ele>668.73000000000002</ele>
        <time>2025-05-18T06:54:15Z</time>
      </trkpt>
      <trkpt lat="43.799278037622571" lon="6.259472016245127">
        <ele>668.73000000000002</ele>
        <time>2025-05-18T06:54:16Z</time>
      </trkpt>
      <trkpt lat="43.799162032082677" lon="6.259508980438113">
        <ele>668.73000000000002</ele>
        <time>2025-05-18T06:54:17Z</time>
      </trkpt>
      <trkpt lat="43.799043009057641" lon="6.259547034278512">
        <ele>668.73000000000002</ele>
        <time>2025-05-18T06:54:18Z</time>
      </trkpt>
      <trkpt lat="43.798919962719083" lon="6.259585004299879">
        <ele>668.73000000000002</ele>
        <time>2025-05-18T06:54:19Z</time>
      </trkpt>
      <trkpt lat="43.798430040478706" lon="6.259752977639437">
        <ele>668.73000000000002</ele>
        <time>2025-05-18T06:54:23Z</time>
      </trkpt>
      <trkpt lat="43.798326021060348" lon="6.259837970137596">
        <ele>669.22000000000003</ele>
        <time>2025-05-18T06:54:24Z</time>
      </trkpt>
      <trkpt lat="43.798240022733808" lon="6.259946012869477">
        <ele>668.73000000000002</ele>
        <time>2025-05-18T06:54:25Z</time>
      </trkpt>
      <trkpt lat="43.798165004700422" lon="6.260064030066133">
        <ele>668.73000000000002</ele>
        <time>2025-05-18T06:54:26Z</time>
      </trkpt>
      <trkpt lat="43.798097027465701" lon="6.260195961222053">
        <ele>668.25</ele>
        <time>2025-05-18T06:54:27Z</time>
      </trkpt>
      <trkpt lat="43.798026032745838" lon="6.260333005338907">
        <ele>668.25</ele>
        <time>2025-05-18T06:54:28Z</time>
      </trkpt>
      <trkpt lat="43.797955038025975" lon="6.260470971465111">
        <ele>667.76999999999998</ele>
        <time>2025-05-18T06:54:29Z</time>
      </trkpt>
      <trkpt lat="43.797888988628983" lon="6.26059896312654">
        <ele>667.28999999999996</ele>
        <time>2025-05-18T06:54:30Z</time>
      </trkpt>
      <trkpt lat="43.797834003344178" lon="6.26070499420166">
        <ele>666.80999999999995</ele>
        <time>2025-05-18T06:54:31Z</time>
      </trkpt>
      <trkpt lat="43.797843977808952" lon="6.260807001963258">
        <ele>666.33000000000004</ele>
        <time>2025-05-18T06:54:32Z</time>
      </trkpt>
      <trkpt lat="43.797853030264378" lon="6.260909009724855">
        <ele>665.37</ele>
        <time>2025-05-18T06:54:33Z</time>
      </trkpt>
      <trkpt lat="43.797884965315461" lon="6.261000959202647">
        <ele>664.88999999999999</ele>
        <time>2025-05-18T06:54:34Z</time>
      </trkpt>
      <trkpt lat="43.797941962257028" lon="6.261118976399303">
        <ele>664.40999999999997</ele>
        <time>2025-05-18T06:54:35Z</time>
      </trkpt>
      <trkpt lat="43.798001976683736" lon="6.261245040223002">
        <ele>663.92999999999995</ele>
        <time>2025-05-18T06:54:36Z</time>
      </trkpt>
      <trkpt lat="43.798110019415617" lon="6.261469004675746">
        <ele>662.97000000000003</ele>
        <time>2025-05-18T06:54:38Z</time>
      </trkpt>
      <trkpt lat="43.798127034679055" lon="6.261573024094105">
        <ele>662.00999999999999</ele>
        <time>2025-05-18T06:54:39Z</time>
      </trkpt>
      <trkpt lat="43.798115970566869" lon="6.261651981621981">
        <ele>661.51999999999998</ele>
        <time>2025-05-18T06:54:40Z</time>
      </trkpt>
      <trkpt lat="43.798086969181895" lon="6.261722976341844">
        <ele>660.55999999999995</ele>
        <time>2025-05-18T06:54:41Z</time>
      </trkpt>
      <trkpt lat="43.798035001382232" lon="6.261809980496764">
        <ele>660.08000000000004</ele>
        <time>2025-05-18T06:54:42Z</time>
      </trkpt>
      <trkpt lat="43.797950008884072" lon="6.261877035722137">
        <ele>659.12</ele>
        <time>2025-05-18T06:54:43Z</time>
      </trkpt>
      <trkpt lat="43.797749010846019" lon="6.26203503459692">
        <ele>658.63999999999999</ele>
        <time>2025-05-18T06:54:45Z</time>
      </trkpt>
      <trkpt lat="43.797663012519479" lon="6.262133019044995">
        <ele>658.15999999999997</ele>
        <time>2025-05-18T06:54:46Z</time>
      </trkpt>
      <trkpt lat="43.797467965632677" lon="6.262353966012597">
        <ele>658.15999999999997</ele>
        <time>2025-05-18T06:54:48Z</time>
      </trkpt>
      <trkpt lat="43.797362018376589" lon="6.262441975995898">
        <ele>658.15999999999997</ele>
        <time>2025-05-18T06:54:49Z</time>
      </trkpt>
      <trkpt lat="43.797247018665075" lon="6.262516994029284">
        <ele>658.15999999999997</ele>
        <time>2025-05-18T06:54:50Z</time>
      </trkpt>
      <trkpt lat="43.797135036438704" lon="6.262588994577527">
        <ele>658.15999999999997</ele>
        <time>2025-05-18T06:54:51Z</time>
      </trkpt>
      <trkpt lat="43.797023976221681" lon="6.262673987075687">
        <ele>658.15999999999997</ele>
        <time>2025-05-18T06:54:52Z</time>
      </trkpt>
      <trkpt lat="43.796924985945225" lon="6.262772977352142">
        <ele>658.15999999999997</ele>
        <time>2025-05-18T06:54:53Z</time>
      </trkpt>
      <trkpt lat="43.796722982078791" lon="6.262944974005222">
        <ele>658.15999999999997</ele>
        <time>2025-05-18T06:54:55Z</time>
      </trkpt>
      <trkpt lat="43.796599013730884" lon="6.262971041724086">
        <ele>658.15999999999997</ele>
        <time>2025-05-18T06:54:56Z</time>
      </trkpt>
      <trkpt lat="43.796470016241074" lon="6.262999037280679">
        <ele>658.15999999999997</ele>
        <time>2025-05-18T06:54:57Z</time>
      </trkpt>
      <trkpt lat="43.796339007094502" lon="6.263068020343781">
        <ele>657.67999999999995</ele>
        <time>2025-05-18T06:54:58Z</time>
      </trkpt>
      <trkpt lat="43.796210009604692" lon="6.263138009235263">
        <ele>657.67999999999995</ele>
        <time>2025-05-18T06:54:59Z</time>
      </trkpt>
      <trkpt lat="43.796081012114882" lon="6.263207998126745">
        <ele>657.20000000000005</ele>
        <time>2025-05-18T06:55:00Z</time>
      </trkpt>
      <trkpt lat="43.79594799131155" lon="6.26326197758317">
        <ele>657.20000000000005</ele>
        <time>2025-05-18T06:55:01Z</time>
      </trkpt>
      <trkpt lat="43.795809019356966" lon="6.263273041695356">
        <ele>657.20000000000005</ele>
        <time>2025-05-18T06:55:02Z</time>
      </trkpt>
      <trkpt lat="43.795668035745621" lon="6.263255020603538">
        <ele>657.20000000000005</ele>
        <time>2025-05-18T06:55:03Z</time>
      </trkpt>
      <trkpt lat="43.795536020770669" lon="6.263201963156462">
        <ele>657.20000000000005</ele>
        <time>2025-05-18T06:55:04Z</time>
      </trkpt>
      <trkpt lat="43.795410040766001" lon="6.263151001185179">
        <ele>657.20000000000005</ele>
        <time>2025-05-18T06:55:05Z</time>
      </trkpt>
      <trkpt lat="43.7953220307827" lon="6.263032983988524">
        <ele>657.67999999999995</ele>
        <time>2025-05-18T06:55:06Z</time>
      </trkpt>
      <trkpt lat="43.79523896612227" lon="6.262921001762152">
        <ele>657.67999999999995</ele>
        <time>2025-05-18T06:55:07Z</time>
      </trkpt>
      <trkpt lat="43.795157996937633" lon="6.262811031192541">
        <ele>657.67999999999995</ele>
        <time>2025-05-18T06:55:08Z</time>
      </trkpt>
      <trkpt lat="43.795079039409757" lon="6.26270298846066">
        <ele>657.67999999999995</ele>
        <time>2025-05-18T06:55:09Z</time>
      </trkpt>
      <trkpt lat="43.794989017769694" lon="6.262627970427275">
        <ele>657.67999999999995</ele>
        <time>2025-05-18T06:55:10Z</time>
      </trkpt>
      <trkpt lat="43.794890027493238" lon="6.26257399097085">
        <ele>657.20000000000005</ele>
        <time>2025-05-18T06:55:11Z</time>
      </trkpt>
      <trkpt lat="43.794799000024796" lon="6.262525040656328">
        <ele>657.20000000000005</ele>
        <time>2025-05-18T06:55:12Z</time>
      </trkpt>
      <trkpt lat="43.794721970334649" lon="6.262539038434625">
        <ele>657.20000000000005</ele>
        <time>2025-05-18T06:55:13Z</time>
      </trkpt>
      <trkpt lat="43.794650975614786" lon="6.262588994577527">
        <ele>656.72000000000003</ele>
        <time>2025-05-18T06:55:14Z</time>
      </trkpt>
      <trkpt lat="43.794600013643503" lon="6.262657977640629">
        <ele>656.72000000000003</ele>
        <time>2025-05-18T06:55:15Z</time>
      </trkpt>
      <trkpt lat="43.794559026136994" lon="6.262772977352142">
        <ele>656.24000000000001</ele>
        <time>2025-05-18T06:55:16Z</time>
      </trkpt>
      <trkpt lat="43.794512003660202" lon="6.262901974841952">
        <ele>656.24000000000001</ele>
        <time>2025-05-18T06:55:17Z</time>
      </trkpt>
      <trkpt lat="43.794460035860538" lon="6.263047987595201">
        <ele>655.75999999999999</ele>
        <time>2025-05-18T06:55:18Z</time>
      </trkpt>
      <trkpt lat="43.794391974806786" lon="6.263203974813223">
        <ele>655.75999999999999</ele>
        <time>2025-05-18T06:55:19Z</time>
      </trkpt>
      <trkpt lat="43.794302958995104" lon="6.263356022536755">
        <ele>655.75999999999999</ele>
        <time>2025-05-18T06:55:20Z</time>
      </trkpt>
      <trkpt lat="43.793978998437524" lon="6.264015007764101">
        <ele>656.72000000000003</ele>
        <time>2025-05-18T06:55:24Z</time>
      </trkpt>
      <trkpt lat="43.793928036466241" lon="6.264172000810504">
        <ele>657.20000000000005</ele>
        <time>2025-05-18T06:55:25Z</time>
      </trkpt>
      <trkpt lat="43.793831979855895" lon="6.264468971639872">
        <ele>658.15999999999997</ele>
        <time>2025-05-18T06:55:27Z</time>
      </trkpt>
      <trkpt lat="43.793779006227851" lon="6.264631999656558">
        <ele>659.12</ele>
        <time>2025-05-18T06:55:28Z</time>
      </trkpt>
      <trkpt lat="43.793683033436537" lon="6.264711041003466">
        <ele>659.60000000000002</ele>
        <time>2025-05-18T06:55:29Z</time>
      </trkpt>
      <trkpt lat="43.793574990704656" lon="6.264801984652877">
        <ele>660.55999999999995</ele>
        <time>2025-05-18T06:55:30Z</time>
      </trkpt>
      <trkpt lat="43.793464014306664" lon="6.264895023778081">
        <ele>661.51999999999998</ele>
        <time>2025-05-18T06:55:31Z</time>
      </trkpt>
      <trkpt lat="43.793353037908673" lon="6.264986973255873">
        <ele>662.00999999999999</ele>
        <time>2025-05-18T06:55:32Z</time>
      </trkpt>
      <trkpt lat="43.793235020712018" lon="6.265067020431161">
        <ele>662.97000000000003</ele>
        <time>2025-05-18T06:55:33Z</time>
      </trkpt>
      <trkpt lat="43.79311298020184" lon="6.265091998502612">
        <ele>663.45000000000005</ele>
        <time>2025-05-18T06:55:34Z</time>
      </trkpt>
      <trkpt lat="43.792881974950433" lon="6.265140026807785">
        <ele>664.88999999999999</ele>
        <time>2025-05-18T06:55:36Z</time>
      </trkpt>
      <trkpt lat="43.792644012719393" lon="6.265188977122307">
        <ele>665.85000000000002</ele>
        <time>2025-05-18T06:55:38Z</time>
      </trkpt>
      <trkpt lat="43.792525995522738" lon="6.265184031799436">
        <ele>666.33000000000004</ele>
        <time>2025-05-18T06:55:39Z</time>
      </trkpt>
      <trkpt lat="43.79190900363028" lon="6.26515100710094">
        <ele>668.73000000000002</ele>
        <time>2025-05-18T06:55:44Z</time>
      </trkpt>
      <trkpt lat="43.791785035282373" lon="6.265159975737333">
        <ele>669.22000000000003</ele>
        <time>2025-05-18T06:55:45Z</time>
      </trkpt>
      <trkpt lat="43.791552018374205" lon="6.265231976285577">
        <ele>670.65999999999997</ele>
        <time>2025-05-18T06:55:47Z</time>
      </trkpt>
      <trkpt lat="43.791440036147833" lon="6.26523801125586">
        <ele>671.62</ele>
        <time>2025-05-18T06:55:48Z</time>
      </trkpt>
      <trkpt lat="43.791327970102429" lon="6.265196017920971">
        <ele>672.10000000000002</ele>
        <time>2025-05-18T06:55:49Z</time>
      </trkpt>
      <trkpt lat="43.790874006226659" lon="6.265026032924652">
        <ele>674.98000000000002</ele>
        <time>2025-05-18T06:55:53Z</time>
      </trkpt>
      <trkpt lat="43.790771998465061" lon="6.265008011832833">
        <ele>675.46000000000004</ele>
        <time>2025-05-18T06:55:54Z</time>
      </trkpt>
      <trkpt lat="43.790678959339857" lon="6.265051010996103">
        <ele>675.94000000000005</ele>
        <time>2025-05-18T06:55:55Z</time>
      </trkpt>
      <trkpt lat="43.790579969063401" lon="6.265097027644515">
        <ele>676.41999999999996</ele>
        <time>2025-05-18T06:55:56Z</time>
      </trkpt>
      <trkpt lat="43.790478967130184" lon="6.265143966302276">
        <ele>676.90999999999997</ele>
        <time>2025-05-18T06:55:57Z</time>
      </trkpt>
      <trkpt lat="43.790385005995631" lon="6.265186965465546">
        <ele>677.38999999999999</ele>
        <time>2025-05-18T06:55:58Z</time>
      </trkpt>
      <trkpt lat="43.790298001840711" lon="6.265228036791086">
        <ele>678.35000000000002</ele>
        <time>2025-05-18T06:55:59Z</time>
      </trkpt>
      <trkpt lat="43.790214015170932" lon="6.265267012640834">
        <ele>679.30999999999995</ele>
        <time>2025-05-18T06:56:00Z</time>
      </trkpt>
      <trkpt lat="43.789951996877789" lon="6.265286039561033">
        <ele>680.75</ele>
        <time>2025-05-18T06:56:03Z</time>
      </trkpt>
      <trkpt lat="43.789869016036391" lon="6.265289979055524">
        <ele>681.71000000000004</ele>
        <time>2025-05-18T06:56:04Z</time>
      </trkpt>
      <trkpt lat="43.789629964157939" lon="6.265310011804104">
        <ele>683.63</ele>
        <time>2025-05-18T06:56:07Z</time>
      </trkpt>
      <trkpt lat="43.789548994973302" lon="6.265325015410781">
        <ele>683.63</ele>
        <time>2025-05-18T06:56:08Z</time>
      </trkpt>
      <trkpt lat="43.789466014131904" lon="6.265340019017458">
        <ele>684.60000000000002</ele>
        <time>2025-05-18T06:56:09Z</time>
      </trkpt>
      <trkpt lat="43.789395019412041" lon="6.265411013737321">
        <ele>684.60000000000002</ele>
        <time>2025-05-18T06:56:10Z</time>
      </trkpt>
      <trkpt lat="43.789321007207036" lon="6.265484020113945">
        <ele>685.08000000000004</ele>
        <time>2025-05-18T06:56:11Z</time>
      </trkpt>
      <trkpt lat="43.789273984730244" lon="6.265598013997078">
        <ele>685.08000000000004</ele>
        <time>2025-05-18T06:56:12Z</time>
      </trkpt>
      <trkpt lat="43.789227968081832" lon="6.265716031193733">
        <ele>685.55999999999995</ele>
        <time>2025-05-18T06:56:13Z</time>
      </trkpt>
      <trkpt lat="43.789182035252452" lon="6.265834970399737">
        <ele>686.03999999999996</ele>
        <time>2025-05-18T06:56:14Z</time>
      </trkpt>
      <trkpt lat="43.789151022210717" lon="6.26594896428287">
        <ele>686.51999999999998</ele>
        <time>2025-05-18T06:56:15Z</time>
      </trkpt>
      <trkpt lat="43.789127971976995" lon="6.266073016449809">
        <ele>687</ele>
        <time>2025-05-18T06:56:16Z</time>
      </trkpt>
      <trkpt lat="43.789103999733925" lon="6.266194973140955">
        <ele>687.48000000000002</ele>
        <time>2025-05-18T06:56:17Z</time>
      </trkpt>
      <trkpt lat="43.789080027490854" lon="6.266319025307894">
        <ele>688.44000000000005</ele>
        <time>2025-05-18T06:56:18Z</time>
      </trkpt>
      <trkpt lat="43.789057983085513" lon="6.266434025019407">
        <ele>688.91999999999996</ele>
        <time>2025-05-18T06:56:19Z</time>
      </trkpt>
      <trkpt lat="43.788989000022411" lon="6.266503008082509">
        <ele>689.39999999999998</ele>
        <time>2025-05-18T06:56:20Z</time>
      </trkpt>
      <trkpt lat="43.788916999474168" lon="6.266575008630753">
        <ele>689.88</ele>
        <time>2025-05-18T06:56:21Z</time>
      </trkpt>
      <trkpt lat="43.788843993097544" lon="6.266623958945274">
        <ele>690.36000000000001</ele>
        <time>2025-05-18T06:56:22Z</time>
      </trkpt>
      <trkpt lat="43.788751037791371" lon="6.266610966995359">
        <ele>690.84000000000003</ele>
        <time>2025-05-18T06:56:23Z</time>
      </trkpt>
      <trkpt lat="43.788653975352645" lon="6.266596969217062">
        <ele>691.80999999999995</ele>
        <time>2025-05-18T06:56:24Z</time>
      </trkpt>
      <trkpt lat="43.788554985076189" lon="6.266580959782004">
        <ele>692.76999999999998</ele>
        <time>2025-05-18T06:56:25Z</time>
      </trkpt>
      <trkpt lat="43.788044024258852" lon="6.266396977007389">
        <ele>695.16999999999996</ele>
        <time>2025-05-18T06:56:30Z</time>
      </trkpt>
      <trkpt lat="43.787957020103931" lon="6.266339980065823">
        <ele>695.64999999999998</ele>
        <time>2025-05-18T06:56:31Z</time>
      </trkpt>
      <trkpt lat="43.787786029279232" lon="6.266219029203057">
        <ele>697.09000000000003</ele>
        <time>2025-05-18T06:56:33Z</time>
      </trkpt>
      <trkpt lat="43.787710005417466" lon="6.266149962320924">
        <ele>697.57000000000005</ele>
        <time>2025-05-18T06:56:34Z</time>
      </trkpt>
      <trkpt lat="43.787650996819139" lon="6.266062036156654">
        <ele>698.04999999999995</ele>
        <time>2025-05-18T06:56:35Z</time>
      </trkpt>
      <trkpt lat="43.787597017362714" lon="6.265979977324605">
        <ele>698.52999999999997</ele>
        <time>2025-05-18T06:56:36Z</time>
      </trkpt>
      <trkpt lat="43.787551000714302" lon="6.265912000089884">
        <ele>699.01999999999998</ele>
        <time>2025-05-18T06:56:37Z</time>
      </trkpt>
      <trkpt lat="43.787514958530664" lon="6.265858020633459">
        <ele>699.5</ele>
        <time>2025-05-18T06:56:38Z</time>
      </trkpt>
      <trkpt lat="43.787470031529665" lon="6.265790965408087">
        <ele>699.98000000000002</ele>
        <time>2025-05-18T06:56:39Z</time>
      </trkpt>
      <trkpt lat="43.787440024316311" lon="6.265786020085216">
        <ele>700.46000000000004</ele>
        <time>2025-05-18T06:56:40Z</time>
      </trkpt>
      <trkpt lat="43.787385039031506" lon="6.26577596180141">
        <ele>700.94000000000005</ele>
        <time>2025-05-18T06:56:41Z</time>
      </trkpt>
      <trkpt lat="43.787315972149372" lon="6.26577696762979">
        <ele>701.41999999999996</ele>
        <time>2025-05-18T06:56:42Z</time>
      </trkpt>
      <trkpt lat="43.787241959944367" lon="6.265798006206751">
        <ele>701.89999999999998</ele>
        <time>2025-05-18T06:56:43Z</time>
      </trkpt>
      <trkpt lat="43.787161996588111" lon="6.265821978449822">
        <ele>702.38</ele>
        <time>2025-05-18T06:56:44Z</time>
      </trkpt>
      <trkpt lat="43.787071974948049" lon="6.265847962349653">
        <ele>703.34000000000003</ele>
        <time>2025-05-18T06:56:45Z</time>
      </trkpt>
      <trkpt lat="43.786786990240216" lon="6.26601099036634">
        <ele>704.77999999999997</ele>
        <time>2025-05-18T06:56:48Z</time>
      </trkpt>
      <trkpt lat="43.785961037501693" lon="6.26671900972724">
        <ele>709.11000000000001</ele>
        <time>2025-05-18T06:56:56Z</time>
      </trkpt>
      <trkpt lat="43.78584997728467" lon="6.266753040254116">
        <ele>709.11000000000001</ele>
        <time>2025-05-18T06:56:57Z</time>
      </trkpt>
      <trkpt lat="43.785745035856962" lon="6.266749016940594">
        <ele>709.11000000000001</ele>
        <time>2025-05-18T06:56:58Z</time>
      </trkpt>
      <trkpt lat="43.785543031990528" lon="6.266739964485169">
        <ele>709.11000000000001</ele>
        <time>2025-05-18T06:57:00Z</time>
      </trkpt>
      <trkpt lat="43.785449992865324" lon="6.266736024990678">
        <ele>709.59000000000003</ele>
        <time>2025-05-18T06:57:01Z</time>
      </trkpt>
      <trkpt lat="43.78535502590239" lon="6.266766032204032">
        <ele>709.59000000000003</ele>
        <time>2025-05-18T06:57:02Z</time>
      </trkpt>
      <trkpt lat="43.785259975120425" lon="6.266821017488837">
        <ele>710.07000000000005</ele>
        <time>2025-05-18T06:57:03Z</time>
      </trkpt>
      <trkpt lat="43.785170959308743" lon="6.266899975016713">
        <ele>710.07000000000005</ele>
        <time>2025-05-18T06:57:04Z</time>
      </trkpt>
      <trkpt lat="43.785076998174191" lon="6.266983961686492">
        <ele>710.54999999999995</ele>
        <time>2025-05-18T06:57:05Z</time>
      </trkpt>
      <trkpt lat="43.784454977139831" lon="6.267541022971273">
        <ele>714.39999999999998</ele>
        <time>2025-05-18T06:57:12Z</time>
      </trkpt>
      <trkpt lat="43.784412983804941" lon="6.26762299798429">
        <ele>714.88</ele>
        <time>2025-05-18T06:57:13Z</time>
      </trkpt>
      <trkpt lat="43.784379959106445" lon="6.267700027674437">
        <ele>714.88</ele>
        <time>2025-05-18T06:57:14Z</time>
      </trkpt>
      <trkpt lat="43.784370990470052" lon="6.267788959667087">
        <ele>715.84000000000003</ele>
        <time>2025-05-18T06:57:15Z</time>
      </trkpt>
      <trkpt lat="43.784360010176897" lon="6.267881998792291">
        <ele>716.79999999999995</ele>
        <time>2025-05-18T06:57:16Z</time>
      </trkpt>
      <trkpt lat="43.784349029883742" lon="6.267983000725508">
        <ele>717.27999999999997</ele>
        <time>2025-05-18T06:57:17Z</time>
      </trkpt>
      <trkpt lat="43.784323967993259" lon="6.269135009497404">
        <ele>720.64999999999998</ele>
        <time>2025-05-18T06:57:25Z</time>
      </trkpt>
      <trkpt lat="43.784563019871712" lon="6.270658001303673">
        <ele>724.00999999999999</ele>
        <time>2025-05-18T06:57:33Z</time>
      </trkpt>
      <trkpt lat="43.78458296880126" lon="6.270831003785133">
        <ele>724.00999999999999</ele>
        <time>2025-05-18T06:57:34Z</time>
      </trkpt>
      <trkpt lat="43.784591015428305" lon="6.27099797129631">
        <ele>724.49000000000001</ele>
        <time>2025-05-18T06:57:35Z</time>
      </trkpt>
      <trkpt lat="43.784550027921796" lon="6.271155970171094">
        <ele>724.49000000000001</ele>
        <time>2025-05-18T06:57:36Z</time>
      </trkpt>
      <trkpt lat="43.784506022930145" lon="6.271325033158064">
        <ele>724.97000000000003</ele>
        <time>2025-05-18T06:57:37Z</time>
      </trkpt>
      <trkpt lat="43.784466041252017" lon="6.271504992619157">
        <ele>724.97000000000003</ele>
        <time>2025-05-18T06:57:38Z</time>
      </trkpt>
      <trkpt lat="43.784466041252017" lon="6.271692998707295">
        <ele>724.97000000000003</ele>
        <time>2025-05-18T06:57:39Z</time>
      </trkpt>
      <trkpt lat="43.784466041252017" lon="6.271885028108954">
        <ele>725.45000000000005</ele>
        <time>2025-05-18T06:57:40Z</time>
      </trkpt>
      <trkpt lat="43.784466041252017" lon="6.272057024762034">
        <ele>724.97000000000003</ele>
        <time>2025-05-18T06:57:41Z</time>
      </trkpt>
      <trkpt lat="43.784466041252017" lon="6.272208988666534">
        <ele>724.97000000000003</ele>
        <time>2025-05-18T06:57:42Z</time>
      </trkpt>
      <trkpt lat="43.784466041252017" lon="6.27234703861177">
        <ele>724.49000000000001</ele>
        <time>2025-05-18T06:57:43Z</time>
      </trkpt>
      <trkpt lat="43.784460006281734" lon="6.272471006959677">
        <ele>724.49000000000001</ele>
        <time>2025-05-18T06:57:44Z</time>
      </trkpt>
      <trkpt lat="43.78438800573349" lon="6.272555999457836">
        <ele>724.49000000000001</ele>
        <time>2025-05-18T06:57:45Z</time>
      </trkpt>
      <trkpt lat="43.78430200740695" lon="6.272657001391053">
        <ele>724.49000000000001</ele>
        <time>2025-05-18T06:57:46Z</time>
      </trkpt>
      <trkpt lat="43.784203017130494" lon="6.272773006930947">
        <ele>724.97000000000003</ele>
        <time>2025-05-18T06:57:47Z</time>
      </trkpt>
      <trkpt lat="43.784095980226994" lon="6.272900998592377">
        <ele>724.97000000000003</ele>
        <time>2025-05-18T06:57:48Z</time>
      </trkpt>
      <trkpt lat="43.783997995778918" lon="6.273056985810399">
        <ele>725.45000000000005</ele>
        <time>2025-05-18T06:57:49Z</time>
      </trkpt>
      <trkpt lat="43.783712005242705" lon="6.273512961342931">
        <ele>728.34000000000003</ele>
        <time>2025-05-18T06:57:52Z</time>
      </trkpt>
      <trkpt lat="43.783629024401307" lon="6.273643970489502">
        <ele>729.29999999999995</ele>
        <time>2025-05-18T06:57:53Z</time>
      </trkpt>
      <trkpt lat="43.783583007752895" lon="6.273811021819711">
        <ele>730.25999999999999</ele>
        <time>2025-05-18T06:57:54Z</time>
      </trkpt>
      <trkpt lat="43.783535985276103" lon="6.273977989330888">
        <ele>731.22000000000003</ele>
        <time>2025-05-18T06:57:55Z</time>
      </trkpt>
      <trkpt lat="43.783478988334537" lon="6.274179993197322">
        <ele>732.17999999999995</ele>
        <time>2025-05-18T06:57:56Z</time>
      </trkpt>
      <trkpt lat="43.783457027748227" lon="6.274349978193641">
        <ele>733.13999999999999</ele>
        <time>2025-05-18T06:57:57Z</time>
      </trkpt>
      <trkpt lat="43.783393995836377" lon="6.274749040603638">
        <ele>735.07000000000005</ele>
        <time>2025-05-18T06:57:59Z</time>
      </trkpt>
      <trkpt lat="43.783350996673107" lon="6.274909973144531">
        <ele>736.02999999999997</ele>
        <time>2025-05-18T06:58:00Z</time>
      </trkpt>
      <trkpt lat="43.783240020275116" lon="6.27507995814085">
        <ele>737.47000000000003</ele>
        <time>2025-05-18T06:58:01Z</time>
      </trkpt>
      <trkpt lat="43.78314396366477" lon="6.275225970894098">
        <ele>738.42999999999995</ele>
        <time>2025-05-18T06:58:02Z</time>
      </trkpt>
      <trkpt lat="43.783051008358598" lon="6.275367960333824">
        <ele>739.38999999999999</ele>
        <time>2025-05-18T06:58:03Z</time>
      </trkpt>
      <trkpt lat="43.78296903334558" lon="6.275511961430311">
        <ele>740.83000000000004</ele>
        <time>2025-05-18T06:58:04Z</time>
      </trkpt>
      <trkpt lat="43.782903989776969" lon="6.275682030245662">
        <ele>741.30999999999995</ele>
        <time>2025-05-18T06:58:05Z</time>
      </trkpt>
      <trkpt lat="43.78283903002739" lon="6.275852015241981">
        <ele>741.78999999999996</ele>
        <time>2025-05-18T06:58:06Z</time>
      </trkpt>
      <trkpt lat="43.782793013378978" lon="6.276042032986879">
        <ele>742.75999999999999</ele>
        <time>2025-05-18T06:58:07Z</time>
      </trkpt>
      <trkpt lat="43.782757977023721" lon="6.276236996054649">
        <ele>742.75999999999999</ele>
        <time>2025-05-18T06:58:08Z</time>
      </trkpt>
      <trkpt lat="43.782693017274141" lon="6.276607979089022">
        <ele>743.72000000000003</ele>
        <time>2025-05-18T06:58:10Z</time>
      </trkpt>
      <trkpt lat="43.78266703337431" lon="6.276761032640934">
        <ele>744.20000000000005</ele>
        <time>2025-05-18T06:58:11Z</time>
      </trkpt>
      <trkpt lat="43.782577011734247" lon="6.276863040402532">
        <ele>744.67999999999995</ele>
        <time>2025-05-18T06:58:12Z</time>
      </trkpt>
      <trkpt lat="43.78249503672123" lon="6.276935040950775">
        <ele>745.63999999999999</ele>
        <time>2025-05-18T06:58:13Z</time>
      </trkpt>
      <trkpt lat="43.782399985939264" lon="6.276977034285665">
        <ele>746.60000000000002</ele>
        <time>2025-05-18T06:58:14Z</time>
      </trkpt>
      <trkpt lat="43.782293032854795" lon="6.277023972943425">
        <ele>747.55999999999995</ele>
        <time>2025-05-18T06:58:15Z</time>
      </trkpt>
      <trkpt lat="43.782189013436437" lon="6.277068983763456">
        <ele>748.51999999999998</ele>
        <time>2025-05-18T06:58:16Z</time>
      </trkpt>
      <trkpt lat="43.782121958211064" lon="6.277159005403519">
        <ele>749.49000000000001</ele>
        <time>2025-05-18T06:58:17Z</time>
      </trkpt>
      <trkpt lat="43.782041994854808" lon="6.277294037863612">
        <ele>750.45000000000005</ele>
        <time>2025-05-18T06:58:18Z</time>
      </trkpt>
      <trkpt lat="43.781954990699887" lon="6.277438960969448">
        <ele>751.40999999999997</ele>
        <time>2025-05-18T06:58:19Z</time>
      </trkpt>
      <trkpt lat="43.781860023736954" lon="6.277598971500993">
        <ele>752.37</ele>
        <time>2025-05-18T06:58:20Z</time>
      </trkpt>
      <trkpt lat="43.781756004318595" lon="6.277772979810834">
        <ele>753.80999999999995</ele>
        <time>2025-05-18T06:58:21Z</time>
      </trkpt>
      <trkpt lat="43.781236996874213" lon="6.278663976117969">
        <ele>761.5</ele>
        <time>2025-05-18T06:58:26Z</time>
      </trkpt>
      <trkpt lat="43.781062988564372" lon="6.278930017724633">
        <ele>763.89999999999998</ele>
        <time>2025-05-18T06:58:28Z</time>
      </trkpt>
      <trkpt lat="43.780985958874226" lon="6.279077958315611">
        <ele>765.35000000000002</ele>
        <time>2025-05-18T06:58:29Z</time>
      </trkpt>
      <trkpt lat="43.780937008559704" lon="6.279256995767355">
        <ele>766.30999999999995</ele>
        <time>2025-05-18T06:58:30Z</time>
      </trkpt>
      <trkpt lat="43.780912030488253" lon="6.279448019340634">
        <ele>767.75</ele>
        <time>2025-05-18T06:58:31Z</time>
      </trkpt>
      <trkpt lat="43.78088797442615" lon="6.279634013772011">
        <ele>768.71000000000004</ele>
        <time>2025-05-18T06:58:32Z</time>
      </trkpt>
      <trkpt lat="43.780866013839841" lon="6.279800981283188">
        <ele>770.14999999999998</ele>
        <time>2025-05-18T06:58:33Z</time>
      </trkpt>
      <trkpt lat="43.780845981091261" lon="6.279945988208056">
        <ele>771.11000000000001</ele>
        <time>2025-05-18T06:58:34Z</time>
      </trkpt>
      <trkpt lat="43.78079803660512" lon="6.280049001798034">
        <ele>772.08000000000004</ele>
        <time>2025-05-18T06:58:35Z</time>
      </trkpt>
      <trkpt lat="43.780737016350031" lon="6.28012896515429">
        <ele>773.03999999999996</ele>
        <time>2025-05-18T06:58:36Z</time>
      </trkpt>
      <trkpt lat="43.780675996094942" lon="6.280209012329578">
        <ele>774</ele>
        <time>2025-05-18T06:58:37Z</time>
      </trkpt>
      <trkpt lat="43.780609024688601" lon="6.280284030362964">
        <ele>775.44000000000005</ele>
        <time>2025-05-18T06:58:38Z</time>
      </trkpt>
      <trkpt lat="43.780535012483597" lon="6.280329963192344">
        <ele>777.36000000000001</ele>
        <time>2025-05-18T06:58:39Z</time>
      </trkpt>
      <trkpt lat="43.77974602393806" lon="6.280786022543907">
        <ele>787.46000000000004</ele>
        <time>2025-05-18T06:58:49Z</time>
      </trkpt>
      <trkpt lat="43.779493980109692" lon="6.280889036133885">
        <ele>789.38</ele>
        <time>2025-05-18T06:58:51Z</time>
      </trkpt>
      <trkpt lat="43.779360959306359" lon="6.28094301559031">
        <ele>790.34000000000003</ele>
        <time>2025-05-18T06:58:52Z</time>
      </trkpt>
      <trkpt lat="43.779237996786833" lon="6.281031025573611">
        <ele>791.29999999999995</ele>
        <time>2025-05-18T06:58:53Z</time>
      </trkpt>
      <trkpt lat="43.779114028438926" lon="6.281140996143222">
        <ele>792.25999999999999</ele>
        <time>2025-05-18T06:58:54Z</time>
      </trkpt>
      <trkpt lat="43.778987964615226" lon="6.281252978369594">
        <ele>793.71000000000004</ele>
        <time>2025-05-18T06:58:55Z</time>
      </trkpt>
      <trkpt lat="43.778593009337783" lon="6.281564030796289">
        <ele>796.59000000000003</ele>
        <time>2025-05-18T06:58:58Z</time>
      </trkpt>
      <trkpt lat="43.77768499776721" lon="6.282013971358538">
        <ele>802.36000000000001</ele>
        <time>2025-05-18T06:59:04Z</time>
      </trkpt>
      <trkpt lat="43.777520963922143" lon="6.282026963308454">
        <ele>803.32000000000005</ele>
        <time>2025-05-18T06:59:05Z</time>
      </trkpt>
      <trkpt lat="43.77639401704073" lon="6.282117990776897">
        <ele>809.57000000000005</ele>
        <time>2025-05-18T06:59:13Z</time>
      </trkpt>
      <trkpt lat="43.776178015395999" lon="6.282143974676728">
        <ele>811.97000000000003</ele>
        <time>2025-05-18T06:59:16Z</time>
      </trkpt>
      <trkpt lat="43.776134010404348" lon="6.282150009647012">
        <ele>812.45000000000005</ele>
        <time>2025-05-18T06:59:17Z</time>
      </trkpt>
      <trkpt lat="43.776105009019375" lon="6.282154032960534">
        <ele>813.40999999999997</ele>
        <time>2025-05-18T06:59:18Z</time>
      </trkpt>
      <trkpt lat="43.776083970442414" lon="6.282155960798264">
        <ele>813.88999999999999</ele>
        <time>2025-05-18T06:59:19Z</time>
      </trkpt>
      <trkpt lat="43.776083970442414" lon="6.282155960798264">
        <ele>814.37</ele>
        <time>2025-05-18T06:59:20Z</time>
      </trkpt>
      <trkpt lat="43.776024961844087" lon="6.282186973839998">
        <ele>815.82000000000005</ele>
        <time>2025-05-18T06:59:29Z</time>
      </trkpt>
      <trkpt lat="43.775998977944255" lon="6.282267021015286">
        <ele>816.77999999999997</ele>
        <time>2025-05-18T06:59:39Z</time>
      </trkpt>
      <trkpt lat="43.775837039574981" lon="6.282048001885414">
        <ele>753.33000000000004</ele>
        <time>2025-05-18T07:11:35Z</time>
      </trkpt>
      <trkpt lat="43.775926977396011" lon="6.282190997153521">
        <ele>815.82000000000005</ele>
        <time>2025-05-18T07:12:03Z</time>
      </trkpt>
      <trkpt lat="43.775923037901521" lon="6.282203989103437">
        <ele>815.34000000000003</ele>
        <time>2025-05-18T07:12:15Z</time>
      </trkpt>
      <trkpt lat="43.775991015136242" lon="6.282290993258357">
        <ele>814.85000000000002</ele>
        <time>2025-05-18T07:12:17Z</time>
      </trkpt>
      <trkpt lat="43.775991015136242" lon="6.282290993258357">
        <ele>815.34000000000003</ele>
        <time>2025-05-18T07:12:18Z</time>
      </trkpt>
      <trkpt lat="43.775991015136242" lon="6.282290993258357">
        <ele>815.82000000000005</ele>
        <time>2025-05-18T07:12:19Z</time>
      </trkpt>
      <trkpt lat="43.776012975722551" lon="6.282325023785234">
        <ele>815.82000000000005</ele>
        <time>2025-05-18T07:12:20Z</time>
      </trkpt>
      <trkpt lat="43.776038959622383" lon="6.282363999634981">
        <ele>816.29999999999995</ele>
        <time>2025-05-18T07:12:21Z</time>
      </trkpt>
      <trkpt lat="43.776066033169627" lon="6.28240498714149">
        <ele>816.77999999999997</ele>
        <time>2025-05-18T07:12:22Z</time>
      </trkpt>
      <trkpt lat="43.776076007634401" lon="6.282419990748167">
        <ele>816.77999999999997</ele>
        <time>2025-05-18T07:12:23Z</time>
      </trkpt>
      <trkpt lat="43.776121018454432" lon="6.282413033768535">
        <ele>816.77999999999997</ele>
        <time>2025-05-18T07:12:24Z</time>
      </trkpt>
      <trkpt lat="43.776183966547251" lon="6.282401969656348">
        <ele>816.77999999999997</ele>
        <time>2025-05-18T07:12:25Z</time>
      </trkpt>
      <trkpt lat="43.776259990409017" lon="6.282389983534813">
        <ele>816.77999999999997</ele>
        <time>2025-05-18T07:12:26Z</time>
      </trkpt>
      <trkpt lat="43.776335008442402" lon="6.282376991584897">
        <ele>816.77999999999997</ele>
        <time>2025-05-18T07:12:27Z</time>
      </trkpt>
      <trkpt lat="43.776420000940561" lon="6.282362993806601">
        <ele>817.25999999999999</ele>
        <time>2025-05-18T07:12:28Z</time>
      </trkpt>
      <trkpt lat="43.776522008702159" lon="6.282345978543162">
        <ele>817.25999999999999</ele>
        <time>2025-05-18T07:12:29Z</time>
      </trkpt>
      <trkpt lat="43.776636002585292" lon="6.282347990199924">
        <ele>817.74000000000001</ele>
        <time>2025-05-18T07:12:30Z</time>
      </trkpt>
      <trkpt lat="43.776746978983283" lon="6.282380009070039">
        <ele>818.22000000000003</ele>
        <time>2025-05-18T07:12:31Z</time>
      </trkpt>
      <trkpt lat="43.776857033371925" lon="6.282412027940154">
        <ele>818.70000000000005</ele>
        <time>2025-05-18T07:12:32Z</time>
      </trkpt>
      <trkpt lat="43.776967003941536" lon="6.282444968819618">
        <ele>818.70000000000005</ele>
        <time>2025-05-18T07:12:33Z</time>
      </trkpt>
      <trkpt lat="43.778021028265357" lon="6.282649990171194">
        <ele>822.54999999999995</ele>
        <time>2025-05-18T07:12:42Z</time>
      </trkpt>
      <trkpt lat="43.778497958555818" lon="6.28261998295784">
        <ele>824.47000000000003</ele>
        <time>2025-05-18T07:12:46Z</time>
      </trkpt>
      <trkpt lat="43.77860801294446" lon="6.282613025978208">
        <ele>824.95000000000005</ele>
        <time>2025-05-18T07:12:47Z</time>
      </trkpt>
      <trkpt lat="43.778717983514071" lon="6.282558040693402">
        <ele>825.42999999999995</ele>
        <time>2025-05-18T07:12:48Z</time>
      </trkpt>
      <trkpt lat="43.779435977339745" lon="6.282293004915118">
        <ele>830.72000000000003</ele>
        <time>2025-05-18T07:12:54Z</time>
      </trkpt>
      <trkpt lat="43.779582995921373" lon="6.282283030450344">
        <ele>831.67999999999995</ele>
        <time>2025-05-18T07:12:55Z</time>
      </trkpt>
      <trkpt lat="43.77972699701786" lon="6.282321000471711">
        <ele>832.15999999999997</ele>
        <time>2025-05-18T07:12:56Z</time>
      </trkpt>
      <trkpt lat="43.779873009771109" lon="6.282358970493078">
        <ele>832.63999999999999</ele>
        <time>2025-05-18T07:12:57Z</time>
      </trkpt>
      <trkpt lat="43.780011981725693" lon="6.282395012676716">
        <ele>833.12</ele>
        <time>2025-05-18T07:12:58Z</time>
      </trkpt>
      <trkpt lat="43.780145002529025" lon="6.282370034605265">
        <ele>833.60000000000002</ele>
        <time>2025-05-18T07:12:59Z</time>
      </trkpt>
      <trkpt lat="43.780282968655229" lon="6.282337009906769">
        <ele>834.08000000000004</ele>
        <time>2025-05-18T07:13:00Z</time>
      </trkpt>
      <trkpt lat="43.780416995286942" lon="6.282304991036654">
        <ele>834.55999999999995</ele>
        <time>2025-05-18T07:13:01Z</time>
      </trkpt>
      <trkpt lat="43.780616987496614" lon="6.282303985208273">
        <ele>835.03999999999996</ele>
        <time>2025-05-18T07:13:03Z</time>
      </trkpt>
      <trkpt lat="43.780668033286929" lon="6.282333992421627">
        <ele>835.51999999999998</ele>
        <time>2025-05-18T07:13:04Z</time>
      </trkpt>
      <trkpt lat="43.780675996094942" lon="6.282396018505096">
        <ele>835.51999999999998</ele>
        <time>2025-05-18T07:13:05Z</time>
      </trkpt>
      <trkpt lat="43.780684964731336" lon="6.282471958547831">
        <ele>835.51999999999998</ele>
        <time>2025-05-18T07:13:06Z</time>
      </trkpt>
      <trkpt lat="43.780665015801787" lon="6.282527027651668">
        <ele>836</ele>
        <time>2025-05-18T07:13:07Z</time>
      </trkpt>
      <trkpt lat="43.780560996383429" lon="6.282613025978208">
        <ele>836.48000000000002</ele>
        <time>2025-05-18T07:13:08Z</time>
      </trkpt>
      <trkpt lat="43.780487990006804" lon="6.282613025978208">
        <ele>836.96000000000004</ele>
        <time>2025-05-18T07:13:09Z</time>
      </trkpt>
      <trkpt lat="43.780361004173756" lon="6.282613025978208">
        <ele>837.45000000000005</ele>
        <time>2025-05-18T07:13:10Z</time>
      </trkpt>
      <trkpt lat="43.780225971713662" lon="6.282613025978208">
        <ele>838.40999999999997</ele>
        <time>2025-05-18T07:13:11Z</time>
      </trkpt>
      <trkpt lat="43.780081970617175" lon="6.282629035413265">
        <ele>839.37</ele>
        <time>2025-05-18T07:13:12Z</time>
      </trkpt>
      <trkpt lat="43.779462967067957" lon="6.282771024852991">
        <ele>843.21000000000004</ele>
        <time>2025-05-18T07:13:16Z</time>
      </trkpt>
      <trkpt lat="43.77931703813374" lon="6.282845959067345">
        <ele>844.17999999999995</ele>
        <time>2025-05-18T07:13:17Z</time>
      </trkpt>
      <trkpt lat="43.779175970703363" lon="6.282948972657323">
        <ele>845.13999999999999</ele>
        <time>2025-05-18T07:13:18Z</time>
      </trkpt>
      <trkpt lat="43.778747990727425" lon="6.283248038962483">
        <ele>848.01999999999998</ele>
        <time>2025-05-18T07:13:21Z</time>
      </trkpt>
      <trkpt lat="43.778584040701389" lon="6.283315010368824">
        <ele>848.98000000000002</ele>
        <time>2025-05-18T07:13:22Z</time>
      </trkpt>
      <trkpt lat="43.777360031381249" lon="6.283626984804869">
        <ele>856.66999999999996</ele>
        <time>2025-05-18T07:13:29Z</time>
      </trkpt>
      <trkpt lat="43.776921993121505" lon="6.283639976754785">
        <ele>859.08000000000004</ele>
        <time>2025-05-18T07:13:32Z</time>
      </trkpt>
      <trkpt lat="43.776797018945217" lon="6.28365003503859">
        <ele>859.55999999999995</ele>
        <time>2025-05-18T07:13:33Z</time>
      </trkpt>
      <trkpt lat="43.776694005355239" lon="6.28373502753675">
        <ele>861</ele>
        <time>2025-05-18T07:13:34Z</time>
      </trkpt>
      <trkpt lat="43.776479009538889" lon="6.28390803001821">
        <ele>861.96000000000004</ele>
        <time>2025-05-18T07:13:36Z</time>
      </trkpt>
      <trkpt lat="43.776385970413685" lon="6.284049013629556">
        <ele>862.44000000000005</ele>
        <time>2025-05-18T07:13:37Z</time>
      </trkpt>
      <trkpt lat="43.776298966258764" lon="6.284194020554423">
        <ele>862.91999999999996</ele>
        <time>2025-05-18T07:13:38Z</time>
      </trkpt>
      <trkpt lat="43.776211040094495" lon="6.284341039136052">
        <ele>863.39999999999998</ele>
        <time>2025-05-18T07:13:39Z</time>
      </trkpt>
      <trkpt lat="43.776125041767955" lon="6.284485040232539">
        <ele>863.88</ele>
        <time>2025-05-18T07:13:40Z</time>
      </trkpt>
      <trkpt lat="43.776043988764286" lon="6.284620994701982">
        <ele>864.84000000000003</ele>
        <time>2025-05-18T07:13:41Z</time>
      </trkpt>
      <trkpt lat="43.775966037064791" lon="6.284749992191792">
        <ele>865.79999999999995</ele>
        <time>2025-05-18T07:13:42Z</time>
      </trkpt>
      <trkpt lat="43.775913985446095" lon="6.284899022430182">
        <ele>866.76999999999998</ele>
        <time>2025-05-18T07:13:43Z</time>
      </trkpt>
      <trkpt lat="43.775862017646432" lon="6.285080993548036">
        <ele>867.73000000000002</ele>
        <time>2025-05-18T07:13:44Z</time>
      </trkpt>
      <trkpt lat="43.775846008211374" lon="6.285244021564722">
        <ele>868.69000000000005</ele>
        <time>2025-05-18T07:13:45Z</time>
      </trkpt>
      <trkpt lat="43.775826981291175" lon="6.285431021824479">
        <ele>870.13</ele>
        <time>2025-05-18T07:13:46Z</time>
      </trkpt>
      <trkpt lat="43.775808960199356" lon="6.285612992942333">
        <ele>871.09000000000003</ele>
        <time>2025-05-18T07:13:47Z</time>
      </trkpt>
      <trkpt lat="43.775791022926569" lon="6.285790018737316">
        <ele>872.52999999999997</ele>
        <time>2025-05-18T07:13:48Z</time>
      </trkpt>
      <trkpt lat="43.775788005441427" lon="6.285975007340312">
        <ele>873.5</ele>
        <time>2025-05-18T07:13:49Z</time>
      </trkpt>
      <trkpt lat="43.775839973241091" lon="6.286136023700237">
        <ele>874.94000000000005</ele>
        <time>2025-05-18T07:13:50Z</time>
      </trkpt>
      <trkpt lat="43.775894036516547" lon="6.286303997039795">
        <ele>875.89999999999998</ele>
        <time>2025-05-18T07:13:51Z</time>
      </trkpt>
      <trkpt lat="43.775951033458114" lon="6.286479011178017">
        <ele>877.34000000000003</ele>
        <time>2025-05-18T07:13:52Z</time>
      </trkpt>
      <trkpt lat="43.77600995823741" lon="6.286663999781013">
        <ele>878.77999999999997</ele>
        <time>2025-05-18T07:13:53Z</time>
      </trkpt>
      <trkpt lat="43.776043988764286" lon="6.286862986162305">
        <ele>879.74000000000001</ele>
        <time>2025-05-18T07:13:54Z</time>
      </trkpt>
      <trkpt lat="43.776076007634401" lon="6.287055015563965">
        <ele>881.19000000000005</ele>
        <time>2025-05-18T07:13:55Z</time>
      </trkpt>
      <trkpt lat="43.776076007634401" lon="6.287277974188328">
        <ele>882.14999999999998</ele>
        <time>2025-05-18T07:13:56Z</time>
      </trkpt>
      <trkpt lat="43.776076007634401" lon="6.287494981661439">
        <ele>883.11000000000001</ele>
        <time>2025-05-18T07:13:57Z</time>
      </trkpt>
      <trkpt lat="43.776076007634401" lon="6.287720035761595">
        <ele>884.07000000000005</ele>
        <time>2025-05-18T07:13:58Z</time>
      </trkpt>
      <trkpt lat="43.776076007634401" lon="6.288452027365565">
        <ele>885.99000000000001</ele>
        <time>2025-05-18T07:14:01Z</time>
      </trkpt>
      <trkpt lat="43.776049017906189" lon="6.289116041734815">
        <ele>887.90999999999997</ele>
        <time>2025-05-18T07:14:04Z</time>
      </trkpt>
      <trkpt lat="43.775972994044423" lon="6.289768991991878">
        <ele>891.75999999999999</ele>
        <time>2025-05-18T07:14:07Z</time>
      </trkpt>
      <trkpt lat="43.775976011529565" lon="6.289976025000215">
        <ele>892.72000000000003</ele>
        <time>2025-05-18T07:14:08Z</time>
      </trkpt>
      <trkpt lat="43.775938041508198" lon="6.29054700024426">
        <ele>895.61000000000001</ele>
        <time>2025-05-18T07:14:11Z</time>
      </trkpt>
      <trkpt lat="43.775894036516547" lon="6.290723020210862">
        <ele>896.57000000000005</ele>
        <time>2025-05-18T07:14:12Z</time>
      </trkpt>
      <trkpt lat="43.775847014039755" lon="6.290911026299">
        <ele>897.04999999999995</ele>
        <time>2025-05-18T07:14:13Z</time>
      </trkpt>
      <trkpt lat="43.775704018771648" lon="6.291483007371426">
        <ele>900.40999999999997</ele>
        <time>2025-05-18T07:14:16Z</time>
      </trkpt>
      <trkpt lat="43.775606034323573" lon="6.291644023731351">
        <ele>901.85000000000002</ele>
        <time>2025-05-18T07:14:17Z</time>
      </trkpt>
      <trkpt lat="43.775486005470157" lon="6.291791964322329">
        <ele>903.29999999999995</ele>
        <time>2025-05-18T07:14:18Z</time>
      </trkpt>
      <trkpt lat="43.774775974452496" lon="6.292750015854836">
        <ele>912.42999999999995</ele>
        <time>2025-05-18T07:14:25Z</time>
      </trkpt>
      <trkpt lat="43.774667009711266" lon="6.292997030541301">
        <ele>914.35000000000002</ele>
        <time>2025-05-18T07:14:27Z</time>
      </trkpt>
      <trkpt lat="43.774617975577712" lon="6.293112030252814">
        <ele>915.30999999999995</ele>
        <time>2025-05-18T07:14:28Z</time>
      </trkpt>
      <trkpt lat="43.774573970586061" lon="6.29323298111558">
        <ele>915.78999999999996</ele>
        <time>2025-05-18T07:14:29Z</time>
      </trkpt>
      <trkpt lat="43.774573970586061" lon="6.293364996090531">
        <ele>916.26999999999998</ele>
        <time>2025-05-18T07:14:30Z</time>
      </trkpt>
      <trkpt lat="43.774584028869867" lon="6.293507991358638">
        <ele>917.24000000000001</ele>
        <time>2025-05-18T07:14:31Z</time>
      </trkpt>
      <trkpt lat="43.774619987234473" lon="6.293647969141603">
        <ele>917.72000000000003</ele>
        <time>2025-05-18T07:14:32Z</time>
      </trkpt>
      <trkpt lat="43.774660974740982" lon="6.293803034350276">
        <ele>918.20000000000005</ele>
        <time>2025-05-18T07:14:33Z</time>
      </trkpt>
      <trkpt lat="43.774702968075871" lon="6.293972013518214">
        <ele>919.15999999999997</ele>
        <time>2025-05-18T07:14:34Z</time>
      </trkpt>
      <trkpt lat="43.774689976125956" lon="6.294158007949591">
        <ele>919.63999999999999</ele>
        <time>2025-05-18T07:14:35Z</time>
      </trkpt>
      <trkpt lat="43.774668015539646" lon="6.29430796019733">
        <ele>920.12</ele>
        <time>2025-05-18T07:14:36Z</time>
      </trkpt>
      <trkpt lat="43.774586040526628" lon="6.29443796351552">
        <ele>921.08000000000004</ele>
        <time>2025-05-18T07:14:37Z</time>
      </trkpt>
      <trkpt lat="43.774503981694579" lon="6.294569978490472">
        <ele>922.03999999999996</ele>
        <time>2025-05-18T07:14:38Z</time>
      </trkpt>
      <trkpt lat="43.774350006133318" lon="6.294813975691795">
        <ele>923.48000000000002</ele>
        <time>2025-05-18T07:14:40Z</time>
      </trkpt>
      <trkpt lat="43.7742680311203" lon="6.294944984838367">
        <ele>924.45000000000005</ele>
        <time>2025-05-18T07:14:41Z</time>
      </trkpt>
      <trkpt lat="43.774172980338335" lon="6.295096026733518">
        <ele>925.40999999999997</ele>
        <time>2025-05-18T07:14:42Z</time>
      </trkpt>
      <trkpt lat="43.773585995659232" lon="6.296465964987874">
        <ele>930.69000000000005</ele>
        <time>2025-05-18T07:14:48Z</time>
      </trkpt>
      <trkpt lat="43.773206965997815" lon="6.297620991244912">
        <ele>935.98000000000002</ele>
        <time>2025-05-18T07:14:53Z</time>
      </trkpt>
      <trkpt lat="43.773120967671275" lon="6.297794999554753">
        <ele>936.94000000000005</ele>
        <time>2025-05-18T07:14:54Z</time>
      </trkpt>
      <trkpt lat="43.773010997101665" lon="6.297926008701325">
        <ele>938.38</ele>
        <time>2025-05-18T07:14:55Z</time>
      </trkpt>
      <trkpt lat="43.772879987955093" lon="6.298020975664258">
        <ele>939.35000000000002</ele>
        <time>2025-05-18T07:14:56Z</time>
      </trkpt>
      <trkpt lat="43.772747972980142" lon="6.298117032274604">
        <ele>940.78999999999996</ele>
        <time>2025-05-18T07:14:57Z</time>
      </trkpt>
      <trkpt lat="43.772620987147093" lon="6.298208981752396">
        <ele>941.75</ele>
        <time>2025-05-18T07:14:58Z</time>
      </trkpt>
      <trkpt lat="43.772518979385495" lon="6.298319958150387">
        <ele>942.71000000000004</ele>
        <time>2025-05-18T07:14:59Z</time>
      </trkpt>
      <trkpt lat="43.772425018250942" lon="6.298477035015822">
        <ele>943.66999999999996</ele>
        <time>2025-05-18T07:15:00Z</time>
      </trkpt>
      <trkpt lat="43.77233499661088" lon="6.29862598143518">
        <ele>945.59000000000003</ele>
        <time>2025-05-18T07:15:01Z</time>
      </trkpt>
      <trkpt lat="43.772246986627579" lon="6.298749027773738">
        <ele>947.03999999999996</ele>
        <time>2025-05-18T07:15:02Z</time>
      </trkpt>
      <trkpt lat="43.772159982472658" lon="6.298854975029826">
        <ele>948.48000000000002</ele>
        <time>2025-05-18T07:15:03Z</time>
      </trkpt>
      <trkpt lat="43.772074989974499" lon="6.298957988619804">
        <ele>949.91999999999996</ele>
        <time>2025-05-18T07:15:04Z</time>
      </trkpt>
      <trkpt lat="43.771998966112733" lon="6.299050021916628">
        <ele>951.36000000000001</ele>
        <time>2025-05-18T07:15:05Z</time>
      </trkpt>
      <trkpt lat="43.771966025233269" lon="6.29914197139442">
        <ele>952.79999999999995</ele>
        <time>2025-05-18T07:15:06Z</time>
      </trkpt>
      <trkpt lat="43.771913973614573" lon="6.299285972490907">
        <ele>953.76999999999998</ele>
        <time>2025-05-18T07:15:07Z</time>
      </trkpt>
      <trkpt lat="43.771924031898379" lon="6.29941999912262">
        <ele>954.73000000000002</ele>
        <time>2025-05-18T07:15:08Z</time>
      </trkpt>
      <trkpt lat="43.771936018019915" lon="6.299589984118938">
        <ele>956.16999999999996</ele>
        <time>2025-05-18T07:15:09Z</time>
      </trkpt>
      <trkpt lat="43.771951021626592" lon="6.299780001863837">
        <ele>957.13</ele>
        <time>2025-05-18T07:15:10Z</time>
      </trkpt>
      <trkpt lat="43.772018998861313" lon="6.300653982907534">
        <ele>960.98000000000002</ele>
        <time>2025-05-18T07:15:14Z</time>
      </trkpt>
      <trkpt lat="43.771997038275003" lon="6.300869984552264">
        <ele>961.46000000000004</ele>
        <time>2025-05-18T07:15:15Z</time>
      </trkpt>
      <trkpt lat="43.771969964727759" lon="6.301089003682137">
        <ele>962.89999999999998</ele>
        <time>2025-05-18T07:15:16Z</time>
      </trkpt>
      <trkpt lat="43.771900981664658" lon="6.301295030862093">
        <ele>963.86000000000001</ele>
        <time>2025-05-18T07:15:17Z</time>
      </trkpt>
      <trkpt lat="43.77179604023695" lon="6.30148395895958">
        <ele>964.82000000000005</ele>
        <time>2025-05-18T07:15:18Z</time>
      </trkpt>
      <trkpt lat="43.771677017211914" lon="6.301668025553227">
        <ele>966.25999999999999</ele>
        <time>2025-05-18T07:15:19Z</time>
      </trkpt>
      <trkpt lat="43.771551959216595" lon="6.301834993064404">
        <ele>967.22000000000003</ele>
        <time>2025-05-18T07:15:20Z</time>
      </trkpt>
      <trkpt lat="43.771326988935471" lon="6.302134981378913">
        <ele>969.14999999999998</ele>
        <time>2025-05-18T07:15:22Z</time>
      </trkpt>
      <trkpt lat="43.771253982558846" lon="6.302317036315799">
        <ele>970.11000000000001</ele>
        <time>2025-05-18T07:15:23Z</time>
      </trkpt>
      <trkpt lat="43.771198997274041" lon="6.30251401104033">
        <ele>971.07000000000005</ele>
        <time>2025-05-18T07:15:24Z</time>
      </trkpt>
      <trkpt lat="43.771178964525461" lon="6.302735041826963">
        <ele>972.02999999999997</ele>
        <time>2025-05-18T07:15:25Z</time>
      </trkpt>
      <trkpt lat="43.771172007545829" lon="6.302949031814933">
        <ele>972.99000000000001</ele>
        <time>2025-05-18T07:15:26Z</time>
      </trkpt>
      <trkpt lat="43.771164966747165" lon="6.303148018196225">
        <ele>973.47000000000003</ele>
        <time>2025-05-18T07:15:27Z</time>
      </trkpt>
      <trkpt lat="43.771133031696081" lon="6.303313979879022">
        <ele>974.42999999999995</ele>
        <time>2025-05-18T07:15:28Z</time>
      </trkpt>
      <trkpt lat="43.771074023097754" lon="6.303473990410566">
        <ele>975.38999999999999</ele>
        <time>2025-05-18T07:15:29Z</time>
      </trkpt>
      <trkpt lat="43.771011997014284" lon="6.303641963750124">
        <ele>976.36000000000001</ele>
        <time>2025-05-18T07:15:30Z</time>
      </trkpt>
      <trkpt lat="43.770935973152518" lon="6.303729973733425">
        <ele>977.32000000000005</ele>
        <time>2025-05-18T07:15:31Z</time>
      </trkpt>
      <trkpt lat="43.770838994532824" lon="6.303746988996863">
        <ele>978.27999999999997</ele>
        <time>2025-05-18T07:15:32Z</time>
      </trkpt>
      <trkpt lat="43.770712008699775" lon="6.303770961239934">
        <ele>978.75999999999999</ele>
        <time>2025-05-18T07:15:33Z</time>
      </trkpt>
      <trkpt lat="43.770623998716474" lon="6.303733997046948">
        <ele>979.72000000000003</ele>
        <time>2025-05-18T07:15:34Z</time>
      </trkpt>
      <trkpt lat="43.770249998196959" lon="6.303649004548788">
        <ele>980.67999999999995</ele>
        <time>2025-05-18T07:15:37Z</time>
      </trkpt>
      <trkpt lat="43.770154025405645" lon="6.303641963750124">
        <ele>981.15999999999997</ele>
        <time>2025-05-18T07:15:38Z</time>
      </trkpt>
      <trkpt lat="43.770044976845384" lon="6.303707007318735">
        <ele>981.63999999999999</ele>
        <time>2025-05-18T07:15:39Z</time>
      </trkpt>
      <trkpt lat="43.769939029589295" lon="6.303770961239934">
        <ele>982.12</ele>
        <time>2025-05-18T07:15:40Z</time>
      </trkpt>
      <trkpt lat="43.769902987405658" lon="6.303856959566474">
        <ele>982.12</ele>
        <time>2025-05-18T07:15:41Z</time>
      </trkpt>
      <trkpt lat="43.769874991849065" lon="6.30397698841989">
        <ele>982.60000000000002</ele>
        <time>2025-05-18T07:15:42Z</time>
      </trkpt>
      <trkpt lat="43.769874991849065" lon="6.304118977859616">
        <ele>983.09000000000003</ele>
        <time>2025-05-18T07:15:43Z</time>
      </trkpt>
      <trkpt lat="43.769874991849065" lon="6.3042769767344">
        <ele>983.09000000000003</ele>
        <time>2025-05-18T07:15:44Z</time>
      </trkpt>
      <trkpt lat="43.769874991849065" lon="6.304648965597153">
        <ele>983.57000000000005</ele>
        <time>2025-05-18T07:15:46Z</time>
      </trkpt>
      <trkpt lat="43.769879015162587" lon="6.304861027747393">
        <ele>983.57000000000005</ele>
        <time>2025-05-18T07:15:47Z</time>
      </trkpt>
      <trkpt lat="43.769926959648728" lon="6.30505096167326">
        <ele>983.57000000000005</ele>
        <time>2025-05-18T07:15:48Z</time>
      </trkpt>
      <trkpt lat="43.769970964640379" lon="6.305225975811482">
        <ele>983.57000000000005</ele>
        <time>2025-05-18T07:15:49Z</time>
      </trkpt>
      <trkpt lat="43.770050005987287" lon="6.305344998836517">
        <ele>984.04999999999995</ele>
        <time>2025-05-18T07:15:50Z</time>
      </trkpt>
      <trkpt lat="43.770152013748884" lon="6.305452035740018">
        <ele>984.52999999999997</ele>
        <time>2025-05-18T07:15:51Z</time>
      </trkpt>
      <trkpt lat="43.770261984318495" lon="6.305568963289261">
        <ele>984.52999999999997</ele>
        <time>2025-05-18T07:15:52Z</time>
      </trkpt>
      <trkpt lat="43.770382013171911" lon="6.305695027112961">
        <ele>985.00999999999999</ele>
        <time>2025-05-18T07:15:53Z</time>
      </trkpt>
      <trkpt lat="43.770712008699775" lon="6.306044971570373">
        <ele>986.92999999999995</ele>
        <time>2025-05-18T07:15:56Z</time>
      </trkpt>
      <trkpt lat="43.770741010084748" lon="6.306161982938647">
        <ele>987.40999999999997</ele>
        <time>2025-05-18T07:15:57Z</time>
      </trkpt>
      <trkpt lat="43.770775962620974" lon="6.306302966549993">
        <ele>987.88999999999999</ele>
        <time>2025-05-18T07:15:58Z</time>
      </trkpt>
      <trkpt lat="43.770725000649691" lon="6.306399023160338">
        <ele>987.88999999999999</ele>
        <time>2025-05-18T07:15:59Z</time>
      </trkpt>
      <trkpt lat="43.770662974566221" lon="6.306517962366343">
        <ele>988.85000000000002</ele>
        <time>2025-05-18T07:16:00Z</time>
      </trkpt>
      <trkpt lat="43.770591979846358" lon="6.306652994826436">
        <ele>989.33000000000004</ele>
        <time>2025-05-18T07:16:01Z</time>
      </trkpt>
      <trkpt lat="43.770514028146863" lon="6.306802025064826">
        <ele>989.80999999999995</ele>
        <time>2025-05-18T07:16:02Z</time>
      </trkpt>
      <trkpt lat="43.770432975143194" lon="6.306954994797707">
        <ele>990.77999999999997</ele>
        <time>2025-05-18T07:16:03Z</time>
      </trkpt>
      <trkpt lat="43.770349994301796" lon="6.30711299367249">
        <ele>991.74000000000001</ele>
        <time>2025-05-18T07:16:04Z</time>
      </trkpt>
      <trkpt lat="43.770295009016991" lon="6.307290019467473">
        <ele>992.70000000000005</ele>
        <time>2025-05-18T07:16:05Z</time>
      </trkpt>
      <trkpt lat="43.770237006247044" lon="6.307480959221721">
        <ele>993.17999999999995</ele>
        <time>2025-05-18T07:16:06Z</time>
      </trkpt>
      <trkpt lat="43.77012200653553" lon="6.308121001347899">
        <ele>996.05999999999995</ele>
        <time>2025-05-18T07:16:09Z</time>
      </trkpt>
      <trkpt lat="43.770113037899137" lon="6.308343959972262">
        <ele>997.01999999999998</ele>
        <time>2025-05-18T07:16:10Z</time>
      </trkpt>
      <trkpt lat="43.770127035677433" lon="6.308541018515825">
        <ele>997.99000000000001</ele>
        <time>2025-05-18T07:16:11Z</time>
      </trkpt>
      <trkpt lat="43.770147990435362" lon="6.30872399546206">
        <ele>998.47000000000003</ele>
        <time>2025-05-18T07:16:12Z</time>
      </trkpt>
      <trkpt lat="43.770166011527181" lon="6.308878976851702">
        <ele>998.95000000000005</ele>
        <time>2025-05-18T07:16:13Z</time>
      </trkpt>
      <trkpt lat="43.770160982385278" lon="6.309006968513131">
        <ele>999.42999999999995</ele>
        <time>2025-05-18T07:16:14Z</time>
      </trkpt>
      <trkpt lat="43.770123012363911" lon="6.309103025123477">
        <ele>1000.39</ele>
        <time>2025-05-18T07:16:15Z</time>
      </trkpt>
      <trkpt lat="43.770055035129189" lon="6.309178965166211">
        <ele>1001.35</ele>
        <time>2025-05-18T07:16:16Z</time>
      </trkpt>
      <trkpt lat="43.769975993782282" lon="6.309267980977893">
        <ele>1002.3099999999999</ele>
        <time>2025-05-18T07:16:17Z</time>
      </trkpt>
      <trkpt lat="43.769846996292472" lon="6.309284996241331">
        <ele>1003.27</ele>
        <time>2025-05-18T07:16:18Z</time>
      </trkpt>
      <trkpt lat="43.769719004631042" lon="6.309284996241331">
        <ele>1003.75</ele>
        <time>2025-05-18T07:16:19Z</time>
      </trkpt>
      <trkpt lat="43.769587995484471" lon="6.309224981814623">
        <ele>1004.23</ele>
        <time>2025-05-18T07:16:20Z</time>
      </trkpt>
      <trkpt lat="43.76945598050952" lon="6.309140995144844">
        <ele>1004.72</ele>
        <time>2025-05-18T07:16:21Z</time>
      </trkpt>
      <trkpt lat="43.769317008554935" lon="6.309051979333162">
        <ele>1004.72</ele>
        <time>2025-05-18T07:16:22Z</time>
      </trkpt>
      <trkpt lat="43.769173007458448" lon="6.308961035683751">
        <ele>1005.2</ele>
        <time>2025-05-18T07:16:23Z</time>
      </trkpt>
      <trkpt lat="43.769029006361961" lon="6.308867996558547">
        <ele>1005.2</ele>
        <time>2025-05-18T07:16:24Z</time>
      </trkpt>
      <trkpt lat="43.768673026934266" lon="6.308642020449042">
        <ele>1005.6799999999999</ele>
        <time>2025-05-18T07:16:27Z</time>
      </trkpt>
      <trkpt lat="43.768560038879514" lon="6.308642020449042">
        <ele>1005.6799999999999</ele>
        <time>2025-05-18T07:16:28Z</time>
      </trkpt>
      <trkpt lat="43.768461970612407" lon="6.308642020449042">
        <ele>1005.6799999999999</ele>
        <time>2025-05-18T07:16:29Z</time>
      </trkpt>
      <trkpt lat="43.768369015306234" lon="6.308726007118821">
        <ele>1005.6799999999999</ele>
        <time>2025-05-18T07:16:30Z</time>
      </trkpt>
      <trkpt lat="43.768282011151314" lon="6.308832038193941">
        <ele>1005.6799999999999</ele>
        <time>2025-05-18T07:16:31Z</time>
      </trkpt>
      <trkpt lat="43.768200958147645" lon="6.308932034298778">
        <ele>1005.2</ele>
        <time>2025-05-18T07:16:32Z</time>
      </trkpt>
      <trkpt lat="43.768125018104911" lon="6.30902498960495">
        <ele>1005.2</ele>
        <time>2025-05-18T07:16:33Z</time>
      </trkpt>
      <trkpt lat="43.768053017556667" lon="6.309112999588251">
        <ele>1005.6799999999999</ele>
        <time>2025-05-18T07:16:34Z</time>
      </trkpt>
      <trkpt lat="43.767965007573366" lon="6.309220958501101">
        <ele>1005.6799999999999</ele>
        <time>2025-05-18T07:16:35Z</time>
      </trkpt>
      <trkpt lat="43.767922008410096" lon="6.309331012889743">
        <ele>1005.6799999999999</ele>
        <time>2025-05-18T07:16:36Z</time>
      </trkpt>
      <trkpt lat="43.767689997330308" lon="6.309914980083704">
        <ele>1007.12</ele>
        <time>2025-05-18T07:16:40Z</time>
      </trkpt>
      <trkpt lat="43.76756502315402" lon="6.31022997200489">
        <ele>1008.08</ele>
        <time>2025-05-18T07:16:42Z</time>
      </trkpt>
      <trkpt lat="43.767348015680909" lon="6.311042010784149">
        <ele>1010.48</ele>
        <time>2025-05-18T07:16:47Z</time>
      </trkpt>
      <trkpt lat="43.767354972660542" lon="6.311207972466946">
        <ele>1011.4400000000001</ele>
        <time>2025-05-18T07:16:48Z</time>
      </trkpt>
      <trkpt lat="43.767365030944347" lon="6.31140997633338">
        <ele>1011.9299999999999</ele>
        <time>2025-05-18T07:16:49Z</time>
      </trkpt>
      <trkpt lat="43.767425967380404" lon="6.311594964936376">
        <ele>1012.41</ele>
        <time>2025-05-18T07:16:50Z</time>
      </trkpt>
      <trkpt lat="43.767511965706944" lon="6.31177400238812">
        <ele>1012.89</ele>
        <time>2025-05-18T07:16:51Z</time>
      </trkpt>
      <trkpt lat="43.767615985125303" lon="6.311953961849213">
        <ele>1013.85</ele>
        <time>2025-05-18T07:16:52Z</time>
      </trkpt>
      <trkpt lat="43.767728973180056" lon="6.312149008736014">
        <ele>1014.8099999999999</ele>
        <time>2025-05-18T07:16:53Z</time>
      </trkpt>
      <trkpt lat="43.768313024193048" lon="6.313566975295544">
        <ele>1022.02</ele>
        <time>2025-05-18T07:16:59Z</time>
      </trkpt>
      <trkpt lat="43.768609995022416" lon="6.314973961561918">
        <ele>1028.75</ele>
        <time>2025-05-18T07:17:05Z</time>
      </trkpt>
      <trkpt lat="43.768646037206054" lon="6.315099019557238">
        <ele>1029.71</ele>
        <time>2025-05-18T07:17:06Z</time>
      </trkpt>
      <trkpt lat="43.768718959763646" lon="6.315200021490455">
        <ele>1030.6700000000001</ele>
        <time>2025-05-18T07:17:07Z</time>
      </trkpt>
      <trkpt lat="43.768802024424076" lon="6.315315021201968">
        <ele>1031.6300000000001</ele>
        <time>2025-05-18T07:17:08Z</time>
      </trkpt>
      <trkpt lat="43.76889699138701" lon="6.315390039235354">
        <ele>1032.1099999999999</ele>
        <time>2025-05-18T07:17:09Z</time>
      </trkpt>
      <trkpt lat="43.769380962476134" lon="6.315831011161208">
        <ele>1034.52</ele>
        <time>2025-05-18T07:17:13Z</time>
      </trkpt>
      <trkpt lat="43.769489005208015" lon="6.315952967852354">
        <ele>1035</ele>
        <time>2025-05-18T07:17:14Z</time>
      </trkpt>
      <trkpt lat="43.76956201158464" lon="6.316123036667705">
        <ele>1035.48</ele>
        <time>2025-05-18T07:17:15Z</time>
      </trkpt>
      <trkpt lat="43.76960601657629" lon="6.316296961158514">
        <ele>1035.48</ele>
        <time>2025-05-18T07:17:16Z</time>
      </trkpt>
      <trkpt lat="43.769639041274786" lon="6.316430987790227">
        <ele>1035.48</ele>
        <time>2025-05-18T07:17:17Z</time>
      </trkpt>
      <trkpt lat="43.769745994359255" lon="6.316561996936798">
        <ele>1035.48</ele>
        <time>2025-05-18T07:17:18Z</time>
      </trkpt>
      <trkpt lat="43.769854959100485" lon="6.316697029396892">
        <ele>1035</ele>
        <time>2025-05-18T07:17:19Z</time>
      </trkpt>
      <trkpt lat="43.769974987953901" lon="6.31684597581625">
        <ele>1034.52</ele>
        <time>2025-05-18T07:17:20Z</time>
      </trkpt>
      <trkpt lat="43.770080013200641" lon="6.317046973854303">
        <ele>1034.52</ele>
        <time>2025-05-18T07:17:21Z</time>
      </trkpt>
      <trkpt lat="43.770170034840703" lon="6.317243026569486">
        <ele>1034.04</ele>
        <time>2025-05-18T07:17:22Z</time>
      </trkpt>
      <trkpt lat="43.770243963226676" lon="6.317446958273649">
        <ele>1033.55</ele>
        <time>2025-05-18T07:17:23Z</time>
      </trkpt>
      <trkpt lat="43.770258966833353" lon="6.317608980461955">
        <ele>1033.0699999999999</ele>
        <time>2025-05-18T07:17:24Z</time>
      </trkpt>
      <trkpt lat="43.770231977105141" lon="6.317750969901681">
        <ele>1033.0699999999999</ele>
        <time>2025-05-18T07:17:25Z</time>
      </trkpt>
      <trkpt lat="43.770193001255393" lon="6.317904023453593">
        <ele>1033.0699999999999</ele>
        <time>2025-05-18T07:17:26Z</time>
      </trkpt>
      <trkpt lat="43.770150002092123" lon="6.318075014278293">
        <ele>1033.0699999999999</ele>
        <time>2025-05-18T07:17:27Z</time>
      </trkpt>
      <trkpt lat="43.769920002669096" lon="6.319084027782083">
        <ele>1031.6300000000001</ele>
        <time>2025-05-18T07:17:33Z</time>
      </trkpt>
      <trkpt lat="43.769898964092135" lon="6.319265998899937">
        <ele>1031.6300000000001</ele>
        <time>2025-05-18T07:17:34Z</time>
      </trkpt>
      <trkpt lat="43.769946992397308" lon="6.319442018866539">
        <ele>1030.6700000000001</ele>
        <time>2025-05-18T07:17:35Z</time>
      </trkpt>
      <trkpt lat="43.770006000995636" lon="6.319622984156013">
        <ele>1030.1900000000001</ele>
        <time>2025-05-18T07:17:36Z</time>
      </trkpt>
      <trkpt lat="43.770065009593964" lon="6.319807972759008">
        <ele>1029.71</ele>
        <time>2025-05-18T07:17:37Z</time>
      </trkpt>
      <trkpt lat="43.770113037899137" lon="6.320004025474191">
        <ele>1028.75</ele>
        <time>2025-05-18T07:17:38Z</time>
      </trkpt>
      <trkpt lat="43.770118989050388" lon="6.320208963006735">
        <ele>1027.79</ele>
        <time>2025-05-18T07:17:39Z</time>
      </trkpt>
      <trkpt lat="43.770176991820335" lon="6.321392990648747">
        <ele>1025.3800000000001</ele>
        <time>2025-05-18T07:17:44Z</time>
      </trkpt>
      <trkpt lat="43.770231977105141" lon="6.321613015606999">
        <ele>1025.3800000000001</ele>
        <time>2025-05-18T07:17:45Z</time>
      </trkpt>
      <trkpt lat="43.770288974046707" lon="6.321839997544885">
        <ele>1024.4200000000001</ele>
        <time>2025-05-18T07:17:46Z</time>
      </trkpt>
      <trkpt lat="43.770620981231332" lon="6.322706015780568">
        <ele>1021.0599999999999</ele>
        <time>2025-05-18T07:17:50Z</time>
      </trkpt>
      <trkpt lat="43.770737992599607" lon="6.322896033525467">
        <ele>1020.58</ele>
        <time>2025-05-18T07:17:51Z</time>
      </trkpt>
      <trkpt lat="43.770861038938165" lon="6.323082027956843">
        <ele>1019.62</ele>
        <time>2025-05-18T07:17:52Z</time>
      </trkpt>
      <trkpt lat="43.771005962044001" lon="6.323233991861343">
        <ele>1018.65</ele>
        <time>2025-05-18T07:17:53Z</time>
      </trkpt>
      <trkpt lat="43.771149041131139" lon="6.323383022099733">
        <ele>1017.6900000000001</ele>
        <time>2025-05-18T07:17:54Z</time>
      </trkpt>
      <trkpt lat="43.771672993898392" lon="6.324033960700035">
        <ele>1014.8099999999999</ele>
        <time>2025-05-18T07:17:58Z</time>
      </trkpt>
      <trkpt lat="43.771810960024595" lon="6.324136974290013">
        <ele>1013.85</ele>
        <time>2025-05-18T07:17:59Z</time>
      </trkpt>
      <trkpt lat="43.772078007459641" lon="6.324336966499686">
        <ele>1012.41</ele>
        <time>2025-05-18T07:18:01Z</time>
      </trkpt>
      <trkpt lat="43.772208010777831" lon="6.324467975646257">
        <ele>1011.4400000000001</ele>
        <time>2025-05-18T07:18:02Z</time>
      </trkpt>
      <trkpt lat="43.772325022146106" lon="6.324623040854931">
        <ele>1010.48</ele>
        <time>2025-05-18T07:18:03Z</time>
      </trkpt>
      <trkpt lat="43.772728024050593" lon="6.325216982513666">
        <ele>1007.6</ele>
        <time>2025-05-18T07:18:07Z</time>
      </trkpt>
      <trkpt lat="43.772777980193496" lon="6.325357966125011">
        <ele>1006.64</ele>
        <time>2025-05-18T07:18:08Z</time>
      </trkpt>
      <trkpt lat="43.772780997678638" lon="6.325497021898627">
        <ele>1006.16</ele>
        <time>2025-05-18T07:18:09Z</time>
      </trkpt>
      <trkpt lat="43.772760964930058" lon="6.325647979974747">
        <ele>1005.6799999999999</ele>
        <time>2025-05-18T07:18:10Z</time>
      </trkpt>
      <trkpt lat="43.772739004343748" lon="6.325816037133336">
        <ele>1004.72</ele>
        <time>2025-05-18T07:18:11Z</time>
      </trkpt>
      <trkpt lat="43.772716959938407" lon="6.326173022389412">
        <ele>1003.27</ele>
        <time>2025-05-18T07:18:13Z</time>
      </trkpt>
      <trkpt lat="43.772710002958775" lon="6.32634200155735">
        <ele>1002.79</ele>
        <time>2025-05-18T07:18:14Z</time>
      </trkpt>
      <trkpt lat="43.772758031263947" lon="6.326521039009094">
        <ele>1002.3099999999999</ele>
        <time>2025-05-18T07:18:15Z</time>
      </trkpt>
      <trkpt lat="43.772822991013527" lon="6.326692029833794">
        <ele>1001.35</ele>
        <time>2025-05-18T07:18:16Z</time>
      </trkpt>
      <trkpt lat="43.772891974076629" lon="6.326874000951648">
        <ele>1000.39</ele>
        <time>2025-05-18T07:18:17Z</time>
      </trkpt>
      <trkpt lat="43.772956011816859" lon="6.327059995383024">
        <ele>999.90999999999997</ele>
        <time>2025-05-18T07:18:18Z</time>
      </trkpt>
      <trkpt lat="43.773005967959762" lon="6.327260993421078">
        <ele>998.95000000000005</ele>
        <time>2025-05-18T07:18:19Z</time>
      </trkpt>
      <trkpt lat="43.773052990436554" lon="6.327467020601034">
        <ele>997.99000000000001</ele>
        <time>2025-05-18T07:18:20Z</time>
      </trkpt>
      <trkpt lat="43.77306698821485" lon="6.327701965346932">
        <ele>997.01999999999998</ele>
        <time>2025-05-18T07:18:21Z</time>
      </trkpt>
      <trkpt lat="43.773047039285302" lon="6.327941017225385">
        <ele>996.53999999999996</ele>
        <time>2025-05-18T07:18:22Z</time>
      </trkpt>
      <trkpt lat="43.773007979616523" lon="6.328189037740231">
        <ele>995.58000000000004</ele>
        <time>2025-05-18T07:18:23Z</time>
      </trkpt>
      <trkpt lat="43.772969003766775" lon="6.328434040769935">
        <ele>994.62</ele>
        <time>2025-05-18T07:18:24Z</time>
      </trkpt>
      <trkpt lat="43.772878982126713" lon="6.329112974926829">
        <ele>991.74000000000001</ele>
        <time>2025-05-18T07:18:27Z</time>
      </trkpt>
      <trkpt lat="43.772878982126713" lon="6.329334005713463">
        <ele>990.77999999999997</ele>
        <time>2025-05-18T07:18:28Z</time>
      </trkpt>
      <trkpt lat="43.772878982126713" lon="6.329552019014955">
        <ele>989.80999999999995</ele>
        <time>2025-05-18T07:18:29Z</time>
      </trkpt>
      <trkpt lat="43.772916030138731" lon="6.329777995124459">
        <ele>988.85000000000002</ele>
        <time>2025-05-18T07:18:30Z</time>
      </trkpt>
      <trkpt lat="43.772963974624872" lon="6.330002965405583">
        <ele>987.88999999999999</ele>
        <time>2025-05-18T07:18:31Z</time>
      </trkpt>
      <trkpt lat="43.773018037900329" lon="6.330234976485372">
        <ele>986.92999999999995</ele>
        <time>2025-05-18T07:18:32Z</time>
      </trkpt>
      <trkpt lat="43.773091966286302" lon="6.330450978130102">
        <ele>985.97000000000003</ele>
        <time>2025-05-18T07:18:33Z</time>
      </trkpt>
      <trkpt lat="43.773450963199139" lon="6.331431996077299">
        <ele>982.12</ele>
        <time>2025-05-18T07:18:38Z</time>
      </trkpt>
      <trkpt lat="43.773541990667582" lon="6.331556970253587">
        <ele>981.63999999999999</ele>
        <time>2025-05-18T07:18:39Z</time>
      </trkpt>
      <trkpt lat="43.773628994822502" lon="6.33166803047061">
        <ele>981.63999999999999</ele>
        <time>2025-05-18T07:18:40Z</time>
      </trkpt>
      <trkpt lat="43.773724967613816" lon="6.331760985776782">
        <ele>981.15999999999997</ele>
        <time>2025-05-18T07:18:41Z</time>
      </trkpt>
      <trkpt lat="43.773836027830839" lon="6.33179702796042">
        <ele>980.67999999999995</ele>
        <time>2025-05-18T07:18:42Z</time>
      </trkpt>
      <trkpt lat="43.773956978693604" lon="6.331836003810167">
        <ele>980.20000000000005</ele>
        <time>2025-05-18T07:18:43Z</time>
      </trkpt>
      <trkpt lat="43.774497024714947" lon="6.332048987969756">
        <ele>978.75999999999999</ele>
        <time>2025-05-18T07:18:47Z</time>
      </trkpt>
      <trkpt lat="43.774621998891234" lon="6.332157030701637">
        <ele>978.27999999999997</ele>
        <time>2025-05-18T07:18:48Z</time>
      </trkpt>
      <trkpt lat="43.774746973067522" lon="6.332263983786106">
        <ele>978.27999999999997</ele>
        <time>2025-05-18T07:18:49Z</time>
      </trkpt>
      <trkpt lat="43.774874964728951" lon="6.332374038174748">
        <ele>978.27999999999997</ele>
        <time>2025-05-18T07:18:50Z</time>
      </trkpt>
      <trkpt lat="43.774972027167678" lon="6.332498006522656">
        <ele>978.27999999999997</ele>
        <time>2025-05-18T07:18:51Z</time>
      </trkpt>
      <trkpt lat="43.775612991303205" lon="6.33323896676302">
        <ele>974.42999999999995</ele>
        <time>2025-05-18T07:18:57Z</time>
      </trkpt>
      <trkpt lat="43.775741988793015" lon="6.333338962867856">
        <ele>973.95000000000005</ele>
        <time>2025-05-18T07:18:58Z</time>
      </trkpt>
      <trkpt lat="43.776326039806008" lon="6.33375302888453">
        <ele>972.02999999999997</ele>
        <time>2025-05-18T07:19:02Z</time>
      </trkpt>
      <trkpt lat="43.776451013982296" lon="6.333896024152637">
        <ele>971.54999999999995</ele>
        <time>2025-05-18T07:19:03Z</time>
      </trkpt>
      <trkpt lat="43.77656701952219" lon="6.334062991663814">
        <ele>971.54999999999995</ele>
        <time>2025-05-18T07:19:04Z</time>
      </trkpt>
      <trkpt lat="43.776666009798646" lon="6.334260972216725">
        <ele>971.54999999999995</ele>
        <time>2025-05-18T07:19:05Z</time>
      </trkpt>
      <trkpt lat="43.776770029217005" lon="6.334469011053443">
        <ele>971.54999999999995</ele>
        <time>2025-05-18T07:19:06Z</time>
      </trkpt>
      <trkpt lat="43.777482993900776" lon="6.335756974294782">
        <ele>967.70000000000005</ele>
        <time>2025-05-18T07:19:13Z</time>
      </trkpt>
      <trkpt lat="43.777562035247684" lon="6.335952021181583">
        <ele>966.25999999999999</ele>
        <time>2025-05-18T07:19:14Z</time>
      </trkpt>
      <trkpt lat="43.777629006654024" lon="6.336150001734495">
        <ele>965.29999999999995</ele>
        <time>2025-05-18T07:19:15Z</time>
      </trkpt>
      <trkpt lat="43.777694972231984" lon="6.336347982287407">
        <ele>964.34000000000003</ele>
        <time>2025-05-18T07:19:16Z</time>
      </trkpt>
      <trkpt lat="43.777780970558524" lon="6.336532970890403">
        <ele>962.89999999999998</ele>
        <time>2025-05-18T07:19:17Z</time>
      </trkpt>
      <trkpt lat="43.777875015512109" lon="6.336721982806921">
        <ele>961.46000000000004</ele>
        <time>2025-05-18T07:19:18Z</time>
      </trkpt>
      <trkpt lat="43.778319004923105" lon="6.337590012699366">
        <ele>953.27999999999997</ele>
        <time>2025-05-18T07:19:24Z</time>
      </trkpt>
      <trkpt lat="43.778365021571517" lon="6.337677016854286">
        <ele>952.32000000000005</ele>
        <time>2025-05-18T07:19:25Z</time>
      </trkpt>
      <trkpt lat="43.778750002384186" lon="6.338398028165102">
        <ele>947.51999999999998</ele>
        <time>2025-05-18T07:19:34Z</time>
      </trkpt>
      <trkpt lat="43.779236990958452" lon="6.339295981451869">
        <ele>943.66999999999996</ele>
        <time>2025-05-18T07:19:45Z</time>
      </trkpt>
      <trkpt lat="43.779271021485329" lon="6.339351972565055">
        <ele>943.19000000000005</ele>
        <time>2025-05-18T07:19:46Z</time>
      </trkpt>
      <trkpt lat="43.7794020306319" lon="6.339519023895264">
        <ele>942.23000000000002</ele>
        <time>2025-05-18T07:19:49Z</time>
      </trkpt>
      <trkpt lat="43.779443018138409" lon="6.339560011401773">
        <ele>941.75</ele>
        <time>2025-05-18T07:19:50Z</time>
      </trkpt>
      <trkpt lat="43.779486017301679" lon="6.339603010565043">
        <ele>941.75</ele>
        <time>2025-05-18T07:19:51Z</time>
      </trkpt>
      <trkpt lat="43.779614008963108" lon="6.339731002226472">
        <ele>940.30999999999995</ele>
        <time>2025-05-18T07:19:54Z</time>
      </trkpt>
      <trkpt lat="43.779644016176462" lon="6.339761009439826">
        <ele>939.83000000000004</ele>
        <time>2025-05-18T07:19:55Z</time>
      </trkpt>
      <trkpt lat="43.779668994247913" lon="6.339805014431477">
        <ele>939.83000000000004</ele>
        <time>2025-05-18T07:19:56Z</time>
      </trkpt>
      <trkpt lat="43.779681986197829" lon="6.339843990281224">
        <ele>939.83000000000004</ele>
        <time>2025-05-18T07:19:57Z</time>
      </trkpt>
      <trkpt lat="43.779694978147745" lon="6.339881038293243">
        <ele>939.35000000000002</ele>
        <time>2025-05-18T07:19:58Z</time>
      </trkpt>
      <trkpt lat="43.7797059584409" lon="6.339914985001087">
        <ele>939.35000000000002</ele>
        <time>2025-05-18T07:19:59Z</time>
      </trkpt>
      <trkpt lat="43.77972699701786" lon="6.339977011084557">
        <ele>938.86000000000001</ele>
        <time>2025-05-18T07:20:01Z</time>
      </trkpt>
      <trkpt lat="43.779736971482635" lon="6.340008024126291">
        <ele>938.38</ele>
        <time>2025-05-18T07:20:02Z</time>
      </trkpt>
      <trkpt lat="43.77974996343255" lon="6.340045994147658">
        <ele>937.89999999999998</ele>
        <time>2025-05-18T07:20:03Z</time>
      </trkpt>
      <trkpt lat="43.779762033373117" lon="6.340082958340645">
        <ele>937.41999999999996</ele>
        <time>2025-05-18T07:20:04Z</time>
      </trkpt>
      <trkpt lat="43.779774019494653" lon="6.340117994695902">
        <ele>936.46000000000004</ele>
        <time>2025-05-18T07:20:05Z</time>
      </trkpt>
      <trkpt lat="43.779787011444569" lon="6.34015697054565">
        <ele>935.98000000000002</ele>
        <time>2025-05-18T07:20:06Z</time>
      </trkpt>
      <trkpt lat="43.77978902310133" lon="6.340163005515933">
        <ele>935.98000000000002</ele>
        <time>2025-05-18T07:20:07Z</time>
      </trkpt>
      <trkpt lat="43.779795980080962" lon="6.34024296887219">
        <ele>935.98000000000002</ele>
        <time>2025-05-18T07:20:08Z</time>
      </trkpt>
      <trkpt lat="43.779803020879626" lon="6.340302983298898">
        <ele>935.5</ele>
        <time>2025-05-18T07:20:09Z</time>
      </trkpt>
      <trkpt lat="43.779808972030878" lon="6.34036903269589">
        <ele>935.5</ele>
        <time>2025-05-18T07:20:10Z</time>
      </trkpt>
      <trkpt lat="43.779816012829542" lon="6.340438015758991">
        <ele>935.01999999999998</ele>
        <time>2025-05-18T07:20:11Z</time>
      </trkpt>
      <trkpt lat="43.779851971194148" lon="6.340715037658811">
        <ele>935.01999999999998</ele>
        <time>2025-05-18T07:20:15Z</time>
      </trkpt>
      <trkpt lat="43.779874015599489" lon="6.340848980471492">
        <ele>935.01999999999998</ele>
        <time>2025-05-18T07:20:17Z</time>
      </trkpt>
      <trkpt lat="43.779896982014179" lon="6.340904971584678">
        <ele>935.01999999999998</ele>
        <time>2025-05-18T07:20:18Z</time>
      </trkpt>
      <trkpt lat="43.779921038076282" lon="6.340962974354625">
        <ele>935.01999999999998</ele>
        <time>2025-05-18T07:20:19Z</time>
      </trkpt>
      <trkpt lat="43.779970994219184" lon="6.341083003208041">
        <ele>935.5</ele>
        <time>2025-05-18T07:20:21Z</time>
      </trkpt>
      <trkpt lat="43.780018016695976" lon="6.341195991262794">
        <ele>935.98000000000002</ele>
        <time>2025-05-18T07:20:23Z</time>
      </trkpt>
      <trkpt lat="43.780057998374104" lon="6.341293975710869">
        <ele>935.98000000000002</ele>
        <time>2025-05-18T07:20:25Z</time>
      </trkpt>
      <trkpt lat="43.780079036951065" lon="6.341344015672803">
        <ele>936.46000000000004</ele>
        <time>2025-05-18T07:20:26Z</time>
      </trkpt>
      <trkpt lat="43.780123963952065" lon="6.341453986242414">
        <ele>935.5</ele>
        <time>2025-05-18T07:20:28Z</time>
      </trkpt>
      <trkpt lat="43.780141985043883" lon="6.341517018154264">
        <ele>935.01999999999998</ele>
        <time>2025-05-18T07:20:29Z</time>
      </trkpt>
      <trkpt lat="43.780153971165419" lon="6.341568985953927">
        <ele>935.01999999999998</ele>
        <time>2025-05-18T07:20:30Z</time>
      </trkpt>
      <trkpt lat="43.780165035277605" lon="6.341616008430719">
        <ele>934.53999999999996</ele>
        <time>2025-05-18T07:20:31Z</time>
      </trkpt>
      <trkpt lat="43.78017601557076" lon="6.341664036735892">
        <ele>934.53999999999996</ele>
        <time>2025-05-18T07:20:32Z</time>
      </trkpt>
      <trkpt lat="43.780190013349056" lon="6.341722961515188">
        <ele>934.53999999999996</ele>
        <time>2025-05-18T07:20:33Z</time>
      </trkpt>
      <trkpt lat="43.780238041654229" lon="6.341973999515176">
        <ele>933.58000000000004</ele>
        <time>2025-05-18T07:20:36Z</time>
      </trkpt>
      <trkpt lat="43.780333008617163" lon="6.342492001131177">
        <ele>931.64999999999998</ele>
        <time>2025-05-18T07:20:42Z</time>
      </trkpt>
      <trkpt lat="43.780352035537362" lon="6.342572970315814">
        <ele>931.64999999999998</ele>
        <time>2025-05-18T07:20:43Z</time>
      </trkpt>
      <trkpt lat="43.780372990295291" lon="6.342663997784257">
        <ele>931.16999999999996</ele>
        <time>2025-05-18T07:20:44Z</time>
      </trkpt>
      <trkpt lat="43.780396040529013" lon="6.342759970575571">
        <ele>931.16999999999996</ele>
        <time>2025-05-18T07:20:45Z</time>
      </trkpt>
      <trkpt lat="43.780410960316658" lon="6.342824008315802">
        <ele>930.69000000000005</ele>
        <time>2025-05-18T07:20:46Z</time>
      </trkpt>
      <trkpt lat="43.780495030805469" lon="6.342944959178567">
        <ele>930.69000000000005</ele>
        <time>2025-05-18T07:20:47Z</time>
      </trkpt>
      <trkpt lat="43.780565019696951" lon="6.343045961111784">
        <ele>929.73000000000002</ele>
        <time>2025-05-18T07:20:48Z</time>
      </trkpt>
      <trkpt lat="43.780641965568066" lon="6.343158027157188">
        <ele>929.25</ele>
        <time>2025-05-18T07:20:49Z</time>
      </trkpt>
      <trkpt lat="43.781647039577365" lon="6.344585968181491">
        <ele>918.20000000000005</ele>
        <time>2025-05-18T07:21:00Z</time>
      </trkpt>
      <trkpt lat="43.781925989314914" lon="6.345024006441236">
        <ele>916.26999999999998</ele>
        <time>2025-05-18T07:21:03Z</time>
      </trkpt>
      <trkpt lat="43.781963959336281" lon="6.345188962295651">
        <ele>916.26999999999998</ele>
        <time>2025-05-18T07:21:04Z</time>
      </trkpt>
      <trkpt lat="43.781978040933609" lon="6.345357019454241">
        <ele>915.78999999999996</ele>
        <time>2025-05-18T07:21:05Z</time>
      </trkpt>
      <trkpt lat="43.781992960721254" lon="6.345529016107321">
        <ele>915.30999999999995</ele>
        <time>2025-05-18T07:21:06Z</time>
      </trkpt>
      <trkpt lat="43.781978040933609" lon="6.345715010538697">
        <ele>915.30999999999995</ele>
        <time>2025-05-18T07:21:07Z</time>
      </trkpt>
      <trkpt lat="43.781941998749971" lon="6.345895975828171">
        <ele>915.30999999999995</ele>
        <time>2025-05-18T07:21:08Z</time>
      </trkpt>
      <trkpt lat="43.781890030950308" lon="6.346071995794773">
        <ele>914.83000000000004</ele>
        <time>2025-05-18T07:21:09Z</time>
      </trkpt>
      <trkpt lat="43.781834039837122" lon="6.346241980791092">
        <ele>914.83000000000004</ele>
        <time>2025-05-18T07:21:10Z</time>
      </trkpt>
      <trkpt lat="43.781762961298227" lon="6.346381958574057">
        <ele>914.83000000000004</ele>
        <time>2025-05-18T07:21:11Z</time>
      </trkpt>
      <trkpt lat="43.781544025987387" lon="6.346810022369027">
        <ele>914.83000000000004</ele>
        <time>2025-05-18T07:21:14Z</time>
      </trkpt>
      <trkpt lat="43.781071035191417" lon="6.347734965384007">
        <ele>911.95000000000005</ele>
        <time>2025-05-18T07:21:21Z</time>
      </trkpt>
      <trkpt lat="43.780597960576415" lon="6.348811034113169">
        <ele>905.70000000000005</ele>
        <time>2025-05-18T07:21:29Z</time>
      </trkpt>
      <trkpt lat="43.7804139778018" lon="6.34941603988409">
        <ele>903.29999999999995</ele>
        <time>2025-05-18T07:21:33Z</time>
      </trkpt>
      <trkpt lat="43.780383970588446" lon="6.349569009616971">
        <ele>902.82000000000005</ele>
        <time>2025-05-18T07:21:34Z</time>
      </trkpt>
      <trkpt lat="43.780292021110654" lon="6.350961998105049">
        <ele>900.88999999999999</ele>
        <time>2025-05-18T07:21:41Z</time>
      </trkpt>
      <trkpt lat="43.780214991420507" lon="6.353100975975394">
        <ele>896.09000000000003</ele>
        <time>2025-05-18T07:21:52Z</time>
      </trkpt>
      <trkpt lat="43.780163023620844" lon="6.35446697473526">
        <ele>892.72000000000003</ele>
        <time>2025-05-18T07:22:00Z</time>
      </trkpt>
      <trkpt lat="43.780166963115335" lon="6.355071980506182">
        <ele>890.79999999999995</ele>
        <time>2025-05-18T07:22:03Z</time>
      </trkpt>
      <trkpt lat="43.780174003913999" lon="6.355275996029377">
        <ele>890.32000000000005</ele>
        <time>2025-05-18T07:22:04Z</time>
      </trkpt>
      <trkpt lat="43.780212979763746" lon="6.355464002117515">
        <ele>889.84000000000003</ele>
        <time>2025-05-18T07:22:05Z</time>
      </trkpt>
      <trkpt lat="43.780724024400115" lon="6.357638016343117">
        <ele>882.14999999999998</ele>
        <time>2025-05-18T07:22:15Z</time>
      </trkpt>
      <trkpt lat="43.781576966866851" lon="6.360703026875854">
        <ele>872.04999999999995</ele>
        <time>2025-05-18T07:22:28Z</time>
      </trkpt>
      <trkpt lat="43.782033026218414" lon="6.362239010632038">
        <ele>865.32000000000005</ele>
        <time>2025-05-18T07:22:35Z</time>
      </trkpt>
      <trkpt lat="43.782056998461485" lon="6.362445037811995">
        <ele>864.36000000000001</ele>
        <time>2025-05-18T07:22:36Z</time>
      </trkpt>
      <trkpt lat="43.782279035076499" lon="6.364289978519082">
        <ele>857.14999999999998</ele>
        <time>2025-05-18T07:22:45Z</time>
      </trkpt>
      <trkpt lat="43.782324967905879" lon="6.364530958235264">
        <ele>855.71000000000004</ele>
        <time>2025-05-18T07:22:46Z</time>
      </trkpt>
      <trkpt lat="43.783145975321531" lon="6.366933966055512">
        <ele>846.10000000000002</ele>
        <time>2025-05-18T07:22:56Z</time>
      </trkpt>
      <trkpt lat="43.783611003309488" lon="6.368127968162298">
        <ele>839.85000000000002</ele>
        <time>2025-05-18T07:23:01Z</time>
      </trkpt>
      <trkpt lat="43.783703958615661" lon="6.368368025869131">
        <ele>838.40999999999997</ele>
        <time>2025-05-18T07:23:02Z</time>
      </trkpt>
      <trkpt lat="43.784609958529472" lon="6.370527958497405">
        <ele>827.35000000000002</ele>
        <time>2025-05-18T07:23:11Z</time>
      </trkpt>
      <trkpt lat="43.784845992922783" lon="6.37090103700757">
        <ele>825.42999999999995</ele>
        <time>2025-05-18T07:23:13Z</time>
      </trkpt>
      <trkpt lat="43.784972978755832" lon="6.37107496149838">
        <ele>824.47000000000003</ele>
        <time>2025-05-18T07:23:14Z</time>
      </trkpt>
      <trkpt lat="43.785095019266009" lon="6.371240001171827">
        <ele>823.50999999999999</ele>
        <time>2025-05-18T07:23:15Z</time>
      </trkpt>
      <trkpt lat="43.785445969551802" lon="6.371591035276651">
        <ele>820.62</ele>
        <time>2025-05-18T07:23:18Z</time>
      </trkpt>
      <trkpt lat="43.785546971485019" lon="6.371626993641257">
        <ele>819.65999999999997</ele>
        <time>2025-05-18T07:23:19Z</time>
      </trkpt>
      <trkpt lat="43.785646967589855" lon="6.371596986427903">
        <ele>819.17999999999995</ele>
        <time>2025-05-18T07:23:20Z</time>
      </trkpt>
      <trkpt lat="43.785746041685343" lon="6.37156798504293">
        <ele>818.22000000000003</ele>
        <time>2025-05-18T07:23:21Z</time>
      </trkpt>
      <trkpt lat="43.785841008648276" lon="6.371539989486337">
        <ele>817.25999999999999</ele>
        <time>2025-05-18T07:23:22Z</time>
      </trkpt>
      <trkpt lat="43.785931030288339" lon="6.37156899087131">
        <ele>816.29999999999995</ele>
        <time>2025-05-18T07:23:23Z</time>
      </trkpt>
      <trkpt lat="43.786009987816215" lon="6.371607966721058">
        <ele>815.34000000000003</ele>
        <time>2025-05-18T07:23:24Z</time>
      </trkpt>
      <trkpt lat="43.786054998636246" lon="6.371721038594842">
        <ele>813.88999999999999</ele>
        <time>2025-05-18T07:23:25Z</time>
      </trkpt>
      <trkpt lat="43.7860850058496" lon="6.371856993064284">
        <ele>812.92999999999995</ele>
        <time>2025-05-18T07:23:26Z</time>
      </trkpt>
      <trkpt lat="43.786119958385825" lon="6.372012980282307">
        <ele>811.97000000000003</ele>
        <time>2025-05-18T07:23:27Z</time>
      </trkpt>
      <trkpt lat="43.786190031096339" lon="6.372327972203493">
        <ele>809.57000000000005</ele>
        <time>2025-05-18T07:23:29Z</time>
      </trkpt>
      <trkpt lat="43.786248033866286" lon="6.372459987178445">
        <ele>809.09000000000003</ele>
        <time>2025-05-18T07:23:30Z</time>
      </trkpt>
      <trkpt lat="43.786326991394162" lon="6.372583033517003">
        <ele>808.13</ele>
        <time>2025-05-18T07:23:31Z</time>
      </trkpt>
      <trkpt lat="43.786404021084309" lon="6.372701972723007">
        <ele>807.63999999999999</ele>
        <time>2025-05-18T07:23:32Z</time>
      </trkpt>
      <trkpt lat="43.786479039117694" lon="6.372818984091282">
        <ele>807.15999999999997</ele>
        <time>2025-05-18T07:23:33Z</time>
      </trkpt>
      <trkpt lat="43.786604013293982" lon="6.373059041798115">
        <ele>805.72000000000003</ele>
        <time>2025-05-18T07:23:35Z</time>
      </trkpt>
      <trkpt lat="43.786669978871942" lon="6.373378979042172">
        <ele>804.27999999999997</ele>
        <time>2025-05-18T07:23:37Z</time>
      </trkpt>
      <trkpt lat="43.78670702688396" lon="6.373562961816788">
        <ele>804.27999999999997</ele>
        <time>2025-05-18T07:23:38Z</time>
      </trkpt>
      <trkpt lat="43.786747008562088" lon="6.373755997046828">
        <ele>803.79999999999995</ele>
        <time>2025-05-18T07:23:39Z</time>
      </trkpt>
      <trkpt lat="43.787022018805146" lon="6.374455969780684">
        <ele>800.44000000000005</ele>
        <time>2025-05-18T07:23:43Z</time>
      </trkpt>
      <trkpt lat="43.787112962454557" lon="6.374588990584016">
        <ele>799.47000000000003</ele>
        <time>2025-05-18T07:23:44Z</time>
      </trkpt>
      <trkpt lat="43.787233997136354" lon="6.374730980023742">
        <ele>798.99000000000001</ele>
        <time>2025-05-18T07:23:45Z</time>
      </trkpt>
      <trkpt lat="43.787336004897952" lon="6.374788982793689">
        <ele>798.02999999999997</ele>
        <time>2025-05-18T07:23:46Z</time>
      </trkpt>
      <trkpt lat="43.78746198490262" lon="6.374860983341932">
        <ele>797.07000000000005</ele>
        <time>2025-05-18T07:23:47Z</time>
      </trkpt>
      <trkpt lat="43.787587964907289" lon="6.374932983890176">
        <ele>796.11000000000001</ele>
        <time>2025-05-18T07:23:48Z</time>
      </trkpt>
      <trkpt lat="43.787708999589086" lon="6.375017976388335">
        <ele>794.66999999999996</ele>
        <time>2025-05-18T07:23:49Z</time>
      </trkpt>
      <trkpt lat="43.787820981815457" lon="6.375153008848429">
        <ele>793.71000000000004</ele>
        <time>2025-05-18T07:23:50Z</time>
      </trkpt>
      <trkpt lat="43.787936987355351" lon="6.375293992459774">
        <ele>792.25999999999999</ele>
        <time>2025-05-18T07:23:51Z</time>
      </trkpt>
      <trkpt lat="43.788052992895246" lon="6.375433970242739">
        <ele>791.29999999999995</ele>
        <time>2025-05-18T07:23:52Z</time>
      </trkpt>
      <trkpt lat="43.788187019526958" lon="6.375552993267775">
        <ele>790.34000000000003</ele>
        <time>2025-05-18T07:23:53Z</time>
      </trkpt>
      <trkpt lat="43.788329008966684" lon="6.375659024342895">
        <ele>789.38</ele>
        <time>2025-05-18T07:23:54Z</time>
      </trkpt>
      <trkpt lat="43.788472004234791" lon="6.375766983255744">
        <ele>788.41999999999996</ele>
        <time>2025-05-18T07:23:55Z</time>
      </trkpt>
      <trkpt lat="43.788612987846136" lon="6.375872008502483">
        <ele>786.98000000000002</ele>
        <time>2025-05-18T07:23:56Z</time>
      </trkpt>
      <trkpt lat="43.788750031962991" lon="6.375975022092462">
        <ele>786.01999999999998</ele>
        <time>2025-05-18T07:23:57Z</time>
      </trkpt>
      <trkpt lat="43.789466014131904" lon="6.376512972638011">
        <ele>781.69000000000005</ele>
        <time>2025-05-18T07:24:03Z</time>
      </trkpt>
      <trkpt lat="43.789678998291492" lon="6.37678999453783">
        <ele>780.73000000000002</ele>
        <time>2025-05-18T07:24:05Z</time>
      </trkpt>
      <trkpt lat="43.789766002446413" lon="6.376929972320795">
        <ele>779.76999999999998</ele>
        <time>2025-05-18T07:24:06Z</time>
      </trkpt>
      <trkpt lat="43.789831968024373" lon="6.377094006165862">
        <ele>778.80999999999995</ele>
        <time>2025-05-18T07:24:07Z</time>
      </trkpt>
      <trkpt lat="43.789873961359262" lon="6.377249993383884">
        <ele>778.32000000000005</ele>
        <time>2025-05-18T07:24:08Z</time>
      </trkpt>
      <trkpt lat="43.789861975237727" lon="6.377400029450655">
        <ele>777.36000000000001</ele>
        <time>2025-05-18T07:24:09Z</time>
      </trkpt>
      <trkpt lat="43.789788968861103" lon="6.377516034990549">
        <ele>776.88</ele>
        <time>2025-05-18T07:24:10Z</time>
      </trkpt>
      <trkpt lat="43.789705988019705" lon="6.377592980861664">
        <ele>775.91999999999996</ele>
        <time>2025-05-18T07:24:11Z</time>
      </trkpt>
      <trkpt lat="43.789604986086488" lon="6.377685014158487">
        <ele>774.96000000000004</ele>
        <time>2025-05-18T07:24:12Z</time>
      </trkpt>
      <trkpt lat="43.789258981123567" lon="6.378026995807886">
        <ele>772.55999999999995</ele>
        <time>2025-05-18T07:24:15Z</time>
      </trkpt>
      <trkpt lat="43.789159990847111" lon="6.378180971369147">
        <ele>771.60000000000002</ele>
        <time>2025-05-18T07:24:16Z</time>
      </trkpt>
      <trkpt lat="43.788885986432433" lon="6.37870199047029">
        <ele>769.66999999999996</ele>
        <time>2025-05-18T07:24:19Z</time>
      </trkpt>
      <trkpt lat="43.788819015026093" lon="6.378903994336724">
        <ele>768.71000000000004</ele>
        <time>2025-05-18T07:24:20Z</time>
      </trkpt>
      <trkpt lat="43.788786996155977" lon="6.37910800985992">
        <ele>767.75</ele>
        <time>2025-05-18T07:24:21Z</time>
      </trkpt>
      <trkpt lat="43.788767969235778" lon="6.379321999847889">
        <ele>766.78999999999996</ele>
        <time>2025-05-18T07:24:22Z</time>
      </trkpt>
      <trkpt lat="43.78874902613461" lon="6.379522997885943">
        <ele>765.83000000000004</ele>
        <time>2025-05-18T07:24:23Z</time>
      </trkpt>
      <trkpt lat="43.788736034184694" lon="6.379665993154049">
        <ele>765.35000000000002</ele>
        <time>2025-05-18T07:24:24Z</time>
      </trkpt>
      <trkpt lat="43.788645006716251" lon="6.379826003685594">
        <ele>764.87</ele>
        <time>2025-05-18T07:24:25Z</time>
      </trkpt>
      <trkpt lat="43.788564037531614" lon="6.37996799312532">
        <ele>763.89999999999998</ele>
        <time>2025-05-18T07:24:26Z</time>
      </trkpt>
      <trkpt lat="43.788480972871184" lon="6.380113000050187">
        <ele>763.41999999999996</ele>
        <time>2025-05-18T07:24:27Z</time>
      </trkpt>
      <trkpt lat="43.788420036435127" lon="6.380282985046506">
        <ele>762.46000000000004</ele>
        <time>2025-05-18T07:24:28Z</time>
      </trkpt>
      <trkpt lat="43.788367984816432" lon="6.380431009456515">
        <ele>761.98000000000002</ele>
        <time>2025-05-18T07:24:29Z</time>
      </trkpt>
      <trkpt lat="43.788303025066853" lon="6.380488006398082">
        <ele>761.01999999999998</ele>
        <time>2025-05-18T07:24:30Z</time>
      </trkpt>
      <trkpt lat="43.788228007033467" lon="6.380498986691237">
        <ele>760.05999999999995</ele>
        <time>2025-05-18T07:24:31Z</time>
      </trkpt>
      <trkpt lat="43.788153994828463" lon="6.380482977256179">
        <ele>759.58000000000004</ele>
        <time>2025-05-18T07:24:32Z</time>
      </trkpt>
      <trkpt lat="43.78806003369391" lon="6.38044198974967">
        <ele>758.62</ele>
        <time>2025-05-18T07:24:33Z</time>
      </trkpt>
      <trkpt lat="43.787947967648506" lon="6.380393039435148">
        <ele>758.13999999999999</ele>
        <time>2025-05-18T07:24:34Z</time>
      </trkpt>
      <trkpt lat="43.787830034270883" lon="6.380350040271878">
        <ele>757.65999999999997</ele>
        <time>2025-05-18T07:24:35Z</time>
      </trkpt>
      <trkpt lat="43.787702964618802" lon="6.380334030836821">
        <ele>757.17999999999995</ele>
        <time>2025-05-18T07:24:36Z</time>
      </trkpt>
      <trkpt lat="43.78746198490262" lon="6.380391027778387">
        <ele>755.73000000000002</ele>
        <time>2025-05-18T07:24:38Z</time>
      </trkpt>
      <trkpt lat="43.787346985191107" lon="6.380422040820122">
        <ele>754.76999999999998</ele>
        <time>2025-05-18T07:24:39Z</time>
      </trkpt>
      <trkpt lat="43.78705102019012" lon="6.380538968369365">
        <ele>753.33000000000004</ele>
        <time>2025-05-18T07:24:42Z</time>
      </trkpt>
      <trkpt lat="43.786974996328354" lon="6.380595965310931">
        <ele>752.37</ele>
        <time>2025-05-18T07:24:43Z</time>
      </trkpt>
      <trkpt lat="43.786920011043549" lon="6.380698978900909">
        <ele>751.88999999999999</ele>
        <time>2025-05-18T07:24:44Z</time>
      </trkpt>
      <trkpt lat="43.78692302852869" lon="6.380801992490888">
        <ele>750.92999999999995</ele>
        <time>2025-05-18T07:24:45Z</time>
      </trkpt>
      <trkpt lat="43.786934008821845" lon="6.380888996645808">
        <ele>749.97000000000003</ele>
        <time>2025-05-18T07:24:46Z</time>
      </trkpt>
      <trkpt lat="43.786982037127018" lon="6.380953034386039">
        <ele>749</ele>
        <time>2025-05-18T07:24:47Z</time>
      </trkpt>
      <trkpt lat="43.786997962743044" lon="6.380974994972348">
        <ele>748.03999999999996</ele>
        <time>2025-05-18T07:24:48Z</time>
      </trkpt>
      <trkpt lat="43.787083961069584" lon="6.380966026335955">
        <ele>747.55999999999995</ele>
        <time>2025-05-18T07:24:49Z</time>
      </trkpt>
      <trkpt lat="43.787152022123337" lon="6.38095797970891">
        <ele>747.08000000000004</ele>
        <time>2025-05-18T07:24:50Z</time>
      </trkpt>
      <trkpt lat="43.787198960781097" lon="6.380945993587375">
        <ele>746.12</ele>
        <time>2025-05-18T07:24:51Z</time>
      </trkpt>
      <trkpt lat="43.787265010178089" lon="6.380881033837795">
        <ele>745.15999999999997</ele>
        <time>2025-05-18T07:24:52Z</time>
      </trkpt>
      <trkpt lat="43.787342039868236" lon="6.380804004147649">
        <ele>744.20000000000005</ele>
        <time>2025-05-18T07:24:53Z</time>
      </trkpt>
      <trkpt lat="43.787428960204124" lon="6.380715994164348">
        <ele>743.72000000000003</ele>
        <time>2025-05-18T07:24:54Z</time>
      </trkpt>
      <trkpt lat="43.787532979622483" lon="6.380633013322949">
        <ele>742.75999999999999</ele>
        <time>2025-05-18T07:24:55Z</time>
      </trkpt>
      <trkpt lat="43.7876530084759" lon="6.380572998896241">
        <ele>741.78999999999996</ele>
        <time>2025-05-18T07:24:56Z</time>
      </trkpt>
      <trkpt lat="43.787778988480568" lon="6.380609041079879">
        <ele>740.83000000000004</ele>
        <time>2025-05-18T07:24:57Z</time>
      </trkpt>
      <trkpt lat="43.787900023162365" lon="6.380652962252498">
        <ele>739.87</ele>
        <time>2025-05-18T07:24:58Z</time>
      </trkpt>
      <trkpt lat="43.788018962368369" lon="6.380738038569689">
        <ele>738.90999999999997</ele>
        <time>2025-05-18T07:24:59Z</time>
      </trkpt>
      <trkpt lat="43.788388017565012" lon="6.380997039377689">
        <ele>735.07000000000005</ele>
        <time>2025-05-18T07:25:02Z</time>
      </trkpt>
      <trkpt lat="43.788511985912919" lon="6.381060993298888">
        <ele>734.58000000000004</ele>
        <time>2025-05-18T07:25:03Z</time>
      </trkpt>
      <trkpt lat="43.78864299505949" lon="6.381060993298888">
        <ele>734.10000000000002</ele>
        <time>2025-05-18T07:25:04Z</time>
      </trkpt>
      <trkpt lat="43.788772998377681" lon="6.381055964156985">
        <ele>733.13999999999999</ele>
        <time>2025-05-18T07:25:05Z</time>
      </trkpt>
      <trkpt lat="43.788885986432433" lon="6.381017994135618">
        <ele>732.65999999999997</ele>
        <time>2025-05-18T07:25:06Z</time>
      </trkpt>
      <trkpt lat="43.788968967273831" lon="6.380878016352654">
        <ele>732.17999999999995</ele>
        <time>2025-05-18T07:25:07Z</time>
      </trkpt>
      <trkpt lat="43.789053037762642" lon="6.380737032741308">
        <ele>731.70000000000005</ele>
        <time>2025-05-18T07:25:08Z</time>
      </trkpt>
      <trkpt lat="43.789146998897195" lon="6.380578028038144">
        <ele>731.22000000000003</ele>
        <time>2025-05-18T07:25:09Z</time>
      </trkpt>
      <trkpt lat="43.789356965571642" lon="6.380220958963037">
        <ele>729.77999999999997</ele>
        <time>2025-05-18T07:25:11Z</time>
      </trkpt>
      <trkpt lat="43.789470037445426" lon="6.380043011158705">
        <ele>728.82000000000005</ele>
        <time>2025-05-18T07:25:12Z</time>
      </trkpt>
      <trkpt lat="43.78958897665143" lon="6.379899010062218">
        <ele>728.34000000000003</ele>
        <time>2025-05-18T07:25:13Z</time>
      </trkpt>
      <trkpt lat="43.789756027981639" lon="6.379674961790443">
        <ele>726.40999999999997</ele>
        <time>2025-05-18T07:25:15Z</time>
      </trkpt>
      <trkpt lat="43.78980397246778" lon="6.379530960693955">
        <ele>725.92999999999995</ele>
        <time>2025-05-18T07:25:16Z</time>
      </trkpt>
      <trkpt lat="43.789858035743237" lon="6.379369022324681">
        <ele>724.97000000000003</ele>
        <time>2025-05-18T07:25:17Z</time>
      </trkpt>
      <trkpt lat="43.789912015199661" lon="6.379207000136375">
        <ele>724.00999999999999</ele>
        <time>2025-05-18T07:25:18Z</time>
      </trkpt>
      <trkpt lat="43.790013017132878" lon="6.379100969061256">
        <ele>723.52999999999997</ele>
        <time>2025-05-18T07:25:19Z</time>
      </trkpt>
      <trkpt lat="43.790123993530869" lon="6.378993010148406">
        <ele>723.04999999999995</ele>
        <time>2025-05-18T07:25:20Z</time>
      </trkpt>
      <trkpt lat="43.790250979363918" lon="6.378869963809848">
        <ele>722.09000000000003</ele>
        <time>2025-05-18T07:25:21Z</time>
      </trkpt>
      <trkpt lat="43.790389029309154" lon="6.378737026825547">
        <ele>721.61000000000001</ele>
        <time>2025-05-18T07:25:22Z</time>
      </trkpt>
      <trkpt lat="43.790669990703464" lon="6.378480037674308">
        <ele>719.67999999999995</ele>
        <time>2025-05-18T07:25:24Z</time>
      </trkpt>
      <trkpt lat="43.790819020941854" lon="6.378389010205865">
        <ele>718.72000000000003</ele>
        <time>2025-05-18T07:25:25Z</time>
      </trkpt>
      <trkpt lat="43.790957992896438" lon="6.378304017707706">
        <ele>717.27999999999997</ele>
        <time>2025-05-18T07:25:26Z</time>
      </trkpt>
      <trkpt lat="43.791063018143177" lon="6.378188012167811">
        <ele>716.32000000000005</ele>
        <time>2025-05-18T07:25:27Z</time>
      </trkpt>
      <trkpt lat="43.791144993156195" lon="6.378058008849621">
        <ele>715.36000000000001</ele>
        <time>2025-05-18T07:25:28Z</time>
      </trkpt>
      <trkpt lat="43.791227973997593" lon="6.377924988046289">
        <ele>714.39999999999998</ele>
        <time>2025-05-18T07:25:29Z</time>
      </trkpt>
      <trkpt lat="43.791315983980894" lon="6.377784004434943">
        <ele>713.44000000000005</ele>
        <time>2025-05-18T07:25:30Z</time>
      </trkpt>
      <trkpt lat="43.791430983692408" lon="6.377695994451642">
        <ele>711.99000000000001</ele>
        <time>2025-05-18T07:25:31Z</time>
      </trkpt>
      <trkpt lat="43.791549000889063" lon="6.377623993903399">
        <ele>710.54999999999995</ele>
        <time>2025-05-18T07:25:32Z</time>
      </trkpt>
      <trkpt lat="43.791675986722112" lon="6.377585018053651">
        <ele>708.63</ele>
        <time>2025-05-18T07:25:33Z</time>
      </trkpt>
      <trkpt lat="43.79180003888905" lon="6.377603961154819">
        <ele>707.19000000000005</ele>
        <time>2025-05-18T07:25:34Z</time>
      </trkpt>
      <trkpt lat="43.791912021115422" lon="6.377660036087036">
        <ele>705.75</ele>
        <time>2025-05-18T07:25:35Z</time>
      </trkpt>
      <trkpt lat="43.791985027492046" lon="6.377757014706731">
        <ele>704.29999999999995</ele>
        <time>2025-05-18T07:25:36Z</time>
      </trkpt>
      <trkpt lat="43.792061973363161" lon="6.37788500636816">
        <ele>703.34000000000003</ele>
        <time>2025-05-18T07:25:37Z</time>
      </trkpt>
      <trkpt lat="43.792110001668334" lon="6.378017021343112">
        <ele>702.38</ele>
        <time>2025-05-18T07:25:38Z</time>
      </trkpt>
      <trkpt lat="43.79216599278152" lon="6.378174014389515">
        <ele>701.89999999999998</ele>
        <time>2025-05-18T07:25:39Z</time>
      </trkpt>
      <trkpt lat="43.792657004669309" lon="6.379720978438854">
        <ele>699.98000000000002</ele>
        <time>2025-05-18T07:25:48Z</time>
      </trkpt>
      <trkpt lat="43.792675025761127" lon="6.379867997020483">
        <ele>699.98000000000002</ele>
        <time>2025-05-18T07:25:49Z</time>
      </trkpt>
      <trkpt lat="43.792647030204535" lon="6.380025995895267">
        <ele>699.98000000000002</ele>
        <time>2025-05-18T07:25:50Z</time>
      </trkpt>
      <trkpt lat="43.792591961100698" lon="6.380391027778387">
        <ele>700.94000000000005</ele>
        <time>2025-05-18T07:25:52Z</time>
      </trkpt>
      <trkpt lat="43.792579974979162" lon="6.380594037473202">
        <ele>701.41999999999996</ele>
        <time>2025-05-18T07:25:53Z</time>
      </trkpt>
      <trkpt lat="43.792548039928079" lon="6.381012964993715">
        <ele>703.34000000000003</ele>
        <time>2025-05-18T07:25:55Z</time>
      </trkpt>
      <trkpt lat="43.792504034936428" lon="6.381213963031769">
        <ele>704.29999999999995</ele>
        <time>2025-05-18T07:25:56Z</time>
      </trkpt>
      <trkpt lat="43.792460029944777" lon="6.381417978554964">
        <ele>705.25999999999999</ele>
        <time>2025-05-18T07:25:57Z</time>
      </trkpt>
      <trkpt lat="43.792371014133096" lon="6.381601961329579">
        <ele>706.23000000000002</ele>
        <time>2025-05-18T07:25:58Z</time>
      </trkpt>
      <trkpt lat="43.79227202385664" lon="6.38177203014493">
        <ele>707.19000000000005</ele>
        <time>2025-05-18T07:25:59Z</time>
      </trkpt>
      <trkpt lat="43.792174961417913" lon="6.381936985999346">
        <ele>708.14999999999998</ele>
        <time>2025-05-18T07:26:00Z</time>
      </trkpt>
      <trkpt lat="43.791915038600564" lon="6.382383992895484">
        <ele>711.50999999999999</ele>
        <time>2025-05-18T07:26:03Z</time>
      </trkpt>
      <trkpt lat="43.791834991425276" lon="6.382536962628365">
        <ele>712.47000000000003</ele>
        <time>2025-05-18T07:26:04Z</time>
      </trkpt>
      <trkpt lat="43.791782017797232" lon="6.382729997858405">
        <ele>713.44000000000005</ele>
        <time>2025-05-18T07:26:05Z</time>
      </trkpt>
      <trkpt lat="43.791774976998568" lon="6.382941976189613">
        <ele>714.88</ele>
        <time>2025-05-18T07:26:06Z</time>
      </trkpt>
      <trkpt lat="43.791768020018935" lon="6.383157977834344">
        <ele>715.84000000000003</ele>
        <time>2025-05-18T07:26:07Z</time>
      </trkpt>
      <trkpt lat="43.791767014190555" lon="6.383355958387256">
        <ele>716.32000000000005</ele>
        <time>2025-05-18T07:26:08Z</time>
      </trkpt>
      <trkpt lat="43.791808001697063" lon="6.383529966697097">
        <ele>717.27999999999997</ele>
        <time>2025-05-18T07:26:09Z</time>
      </trkpt>
      <trkpt lat="43.791855024173856" lon="6.383709004148841">
        <ele>718.72000000000003</ele>
        <time>2025-05-18T07:26:10Z</time>
      </trkpt>
      <trkpt lat="43.791953008621931" lon="6.38383699581027">
        <ele>719.67999999999995</ele>
        <time>2025-05-18T07:26:11Z</time>
      </trkpt>
      <trkpt lat="43.792045963928103" lon="6.383958030492067">
        <ele>721.13</ele>
        <time>2025-05-18T07:26:12Z</time>
      </trkpt>
      <trkpt lat="43.79214596003294" lon="6.384016033262014">
        <ele>722.57000000000005</ele>
        <time>2025-05-18T07:26:13Z</time>
      </trkpt>
      <trkpt lat="43.792248973622918" lon="6.384061966091394">
        <ele>723.52999999999997</ele>
        <time>2025-05-18T07:26:14Z</time>
      </trkpt>
      <trkpt lat="43.792363973334432" lon="6.384032964706421">
        <ele>724.97000000000003</ele>
        <time>2025-05-18T07:26:15Z</time>
      </trkpt>
      <trkpt lat="43.792493976652622" lon="6.383993988856673">
        <ele>725.92999999999995</ele>
        <time>2025-05-18T07:26:16Z</time>
      </trkpt>
      <trkpt lat="43.792637977749109" lon="6.383951995521784">
        <ele>726.88999999999999</ele>
        <time>2025-05-18T07:26:17Z</time>
      </trkpt>
      <trkpt lat="43.793710023164749" lon="6.383853005245328">
        <ele>736.99000000000001</ele>
        <time>2025-05-18T07:26:24Z</time>
      </trkpt>
      <trkpt lat="43.794408990070224" lon="6.38383598998189">
        <ele>743.72000000000003</ele>
        <time>2025-05-18T07:26:29Z</time>
      </trkpt>
      <trkpt lat="43.794532036408782" lon="6.383812017738819">
        <ele>744.67999999999995</ele>
        <time>2025-05-18T07:26:30Z</time>
      </trkpt>
      <trkpt lat="43.794639995321631" lon="6.383710009977222">
        <ele>745.15999999999997</ele>
        <time>2025-05-18T07:26:31Z</time>
      </trkpt>
      <trkpt lat="43.794748960062861" lon="6.383587969467044">
        <ele>746.12</ele>
        <time>2025-05-18T07:26:32Z</time>
      </trkpt>
      <trkpt lat="43.794863959774375" lon="6.383460983633995">
        <ele>746.60000000000002</ele>
        <time>2025-05-18T07:26:33Z</time>
      </trkpt>
      <trkpt lat="43.795681027695537" lon="6.382635030895472">
        <ele>748.51999999999998</ele>
        <time>2025-05-18T07:26:40Z</time>
      </trkpt>
      <trkpt lat="43.795777000486851" lon="6.382560012862086">
        <ele>749</ele>
        <time>2025-05-18T07:26:41Z</time>
      </trkpt>
      <trkpt lat="43.795864004641771" lon="6.382492035627365">
        <ele>749</ele>
        <time>2025-05-18T07:26:42Z</time>
      </trkpt>
      <trkpt lat="43.795951008796692" lon="6.382528999820352">
        <ele>749</ele>
        <time>2025-05-18T07:26:43Z</time>
      </trkpt>
      <trkpt lat="43.796034995466471" lon="6.382592031732202">
        <ele>749</ele>
        <time>2025-05-18T07:26:44Z</time>
      </trkpt>
      <trkpt lat="43.796124011278152" lon="6.382659003138542">
        <ele>748.51999999999998</ele>
        <time>2025-05-18T07:26:45Z</time>
      </trkpt>
      <trkpt lat="43.796176984906197" lon="6.382754975929856">
        <ele>749</ele>
        <time>2025-05-18T07:26:46Z</time>
      </trkpt>
      <trkpt lat="43.79622501321137" lon="6.382864024490118">
        <ele>749</ele>
        <time>2025-05-18T07:26:47Z</time>
      </trkpt>
      <trkpt lat="43.79622501321137" lon="6.3829530403018">
        <ele>749</ele>
        <time>2025-05-18T07:26:48Z</time>
      </trkpt>
      <trkpt lat="43.796194000169635" lon="6.383056975901127">
        <ele>749</ele>
        <time>2025-05-18T07:26:49Z</time>
      </trkpt>
      <trkpt lat="43.796134991571307" lon="6.383181028068066">
        <ele>749</ele>
        <time>2025-05-18T07:26:50Z</time>
      </trkpt>
      <trkpt lat="43.796070031821728" lon="6.383315976709127">
        <ele>748.51999999999998</ele>
        <time>2025-05-18T07:26:51Z</time>
      </trkpt>
      <trkpt lat="43.795988978818059" lon="6.383485961705446">
        <ele>749</ele>
        <time>2025-05-18T07:26:52Z</time>
      </trkpt>
      <trkpt lat="43.79596802406013" lon="6.383588975295425">
        <ele>749.49000000000001</ele>
        <time>2025-05-18T07:26:53Z</time>
      </trkpt>
      <trkpt lat="43.796002976596355" lon="6.383723001927137">
        <ele>749.97000000000003</ele>
        <time>2025-05-18T07:26:54Z</time>
      </trkpt>
      <trkpt lat="43.79605402238667" lon="6.383844958618283">
        <ele>750.45000000000005</ele>
        <time>2025-05-18T07:26:55Z</time>
      </trkpt>
      <trkpt lat="43.796145971864462" lon="6.383911008015275">
        <ele>750.92999999999995</ele>
        <time>2025-05-18T07:26:56Z</time>
      </trkpt>
      <trkpt lat="43.79624797962606" lon="6.38398502022028">
        <ele>751.40999999999997</ele>
        <time>2025-05-18T07:26:57Z</time>
      </trkpt>
      <trkpt lat="43.796356022357941" lon="6.384061966091394">
        <ele>751.88999999999999</ele>
        <time>2025-05-18T07:26:58Z</time>
      </trkpt>
      <trkpt lat="43.796568000689149" lon="6.384215019643307">
        <ele>752.85000000000002</ele>
        <time>2025-05-18T07:27:00Z</time>
      </trkpt>
      <trkpt lat="43.796637989580631" lon="6.384331025183201">
        <ele>752.85000000000002</ele>
        <time>2025-05-18T07:27:01Z</time>
      </trkpt>
      <trkpt lat="43.796696998178959" lon="6.384430015459657">
        <ele>753.33000000000004</ele>
        <time>2025-05-18T07:27:02Z</time>
      </trkpt>
      <trkpt lat="43.796690963208675" lon="6.384526994079351">
        <ele>753.33000000000004</ele>
        <time>2025-05-18T07:27:03Z</time>
      </trkpt>
      <trkpt lat="43.796680988743901" lon="6.384672001004219">
        <ele>753.80999999999995</ele>
        <time>2025-05-18T07:27:04Z</time>
      </trkpt>
      <trkpt lat="43.796597002074122" lon="6.384986992925406">
        <ele>754.76999999999998</ele>
        <time>2025-05-18T07:27:06Z</time>
      </trkpt>
      <trkpt lat="43.796546962112188" lon="6.385138034820557">
        <ele>755.73000000000002</ele>
        <time>2025-05-18T07:27:07Z</time>
      </trkpt>
      <trkpt lat="43.796422993764281" lon="6.385280024260283">
        <ele>757.17999999999995</ele>
        <time>2025-05-18T07:27:08Z</time>
      </trkpt>
      <trkpt lat="43.796231970191002" lon="6.385517986491323">
        <ele>758.62</ele>
        <time>2025-05-18T07:27:10Z</time>
      </trkpt>
      <trkpt lat="43.796176984906197" lon="6.385655030608177">
        <ele>759.10000000000002</ele>
        <time>2025-05-18T07:27:11Z</time>
      </trkpt>
      <trkpt lat="43.796160975471139" lon="6.385819986462593">
        <ele>759.58000000000004</ele>
        <time>2025-05-18T07:27:12Z</time>
      </trkpt>
      <trkpt lat="43.796160975471139" lon="6.386001035571098">
        <ele>760.05999999999995</ele>
        <time>2025-05-18T07:27:13Z</time>
      </trkpt>
      <trkpt lat="43.796160975471139" lon="6.386192981153727">
        <ele>760.53999999999996</ele>
        <time>2025-05-18T07:27:14Z</time>
      </trkpt>
      <trkpt lat="43.796160975471139" lon="6.386374030262232">
        <ele>761.01999999999998</ele>
        <time>2025-05-18T07:27:15Z</time>
      </trkpt>
      <trkpt lat="43.796089980751276" lon="6.386508978903294">
        <ele>761.5</ele>
        <time>2025-05-18T07:27:16Z</time>
      </trkpt>
      <trkpt lat="43.796003982424736" lon="6.386602018028498">
        <ele>761.98000000000002</ele>
        <time>2025-05-18T07:27:17Z</time>
      </trkpt>
      <trkpt lat="43.7958849593997" lon="6.386663960292935">
        <ele>762.94000000000005</ele>
        <time>2025-05-18T07:27:18Z</time>
      </trkpt>
      <trkpt lat="43.795631993561983" lon="6.386795975267887">
        <ele>763.89999999999998</ele>
        <time>2025-05-18T07:27:20Z</time>
      </trkpt>
      <trkpt lat="43.795525040477514" lon="6.386811984702945">
        <ele>764.38999999999999</ele>
        <time>2025-05-18T07:27:21Z</time>
      </trkpt>
      <trkpt lat="43.795437030494213" lon="6.386752976104617">
        <ele>764.87</ele>
        <time>2025-05-18T07:27:22Z</time>
      </trkpt>
      <trkpt lat="43.795351032167673" lon="6.386666977778077">
        <ele>764.87</ele>
        <time>2025-05-18T07:27:23Z</time>
      </trkpt>
      <trkpt lat="43.795261010527611" lon="6.386577961966395">
        <ele>765.35000000000002</ele>
        <time>2025-05-18T07:27:24Z</time>
      </trkpt>
      <trkpt lat="43.795176018029451" lon="6.386492969468236">
        <ele>765.83000000000004</ele>
        <time>2025-05-18T07:27:25Z</time>
      </trkpt>
      <trkpt lat="43.795081973075867" lon="6.386447036638856">
        <ele>765.83000000000004</ele>
        <time>2025-05-18T07:27:26Z</time>
      </trkpt>
      <trkpt lat="43.794989017769694" lon="6.386491041630507">
        <ele>766.30999999999995</ele>
        <time>2025-05-18T07:27:27Z</time>
      </trkpt>
      <trkpt lat="43.794913999736309" lon="6.386583996936679">
        <ele>766.30999999999995</ele>
        <time>2025-05-18T07:27:28Z</time>
      </trkpt>
      <trkpt lat="43.794843005016446" lon="6.386690028011799">
        <ele>766.78999999999996</ele>
        <time>2025-05-18T07:27:29Z</time>
      </trkpt>
      <trkpt lat="43.794799000024796" lon="6.386841991916299">
        <ele>766.78999999999996</ele>
        <time>2025-05-18T07:27:30Z</time>
      </trkpt>
      <trkpt lat="43.794751977548003" lon="6.387000996619463">
        <ele>766.78999999999996</ele>
        <time>2025-05-18T07:27:31Z</time>
      </trkpt>
      <trkpt lat="43.794745020568371" lon="6.387166958302259">
        <ele>767.26999999999998</ele>
        <time>2025-05-18T07:27:32Z</time>
      </trkpt>
      <trkpt lat="43.794745020568371" lon="6.387326968833804">
        <ele>767.26999999999998</ele>
        <time>2025-05-18T07:27:33Z</time>
      </trkpt>
      <trkpt lat="43.794781984761357" lon="6.387480022385716">
        <ele>766.78999999999996</ele>
        <time>2025-05-18T07:27:34Z</time>
      </trkpt>
      <trkpt lat="43.794837975874543" lon="6.387641038745642">
        <ele>767.26999999999998</ele>
        <time>2025-05-18T07:27:35Z</time>
      </trkpt>
      <trkpt lat="43.794896984472871" lon="6.387813035398722">
        <ele>767.26999999999998</ele>
        <time>2025-05-18T07:27:36Z</time>
      </trkpt>
      <trkpt lat="43.794987006112933" lon="6.388203967362642">
        <ele>767.75</ele>
        <time>2025-05-18T07:27:38Z</time>
      </trkpt>
      <trkpt lat="43.794995974749327" lon="6.388403037562966">
        <ele>768.23000000000002</ele>
        <time>2025-05-18T07:27:39Z</time>
      </trkpt>
      <trkpt lat="43.79500200971961" lon="6.388528011739254">
        <ele>768.23000000000002</ele>
        <time>2025-05-18T07:27:40Z</time>
      </trkpt>
      <trkpt lat="43.794934032484889" lon="6.388697996735573">
        <ele>768.23000000000002</ele>
        <time>2025-05-18T07:27:41Z</time>
      </trkpt>
      <trkpt lat="43.7948730122298" lon="6.388849960640073">
        <ele>768.71000000000004</ele>
        <time>2025-05-18T07:27:42Z</time>
      </trkpt>
      <trkpt lat="43.794805034995079" lon="6.388896983116865">
        <ele>768.71000000000004</ele>
        <time>2025-05-18T07:27:43Z</time>
      </trkpt>
      <trkpt lat="43.794699003919959" lon="6.388969989493489">
        <ele>769.19000000000005</ele>
        <time>2025-05-18T07:27:44Z</time>
      </trkpt>
      <trkpt lat="43.794580986723304" lon="6.389050958678126">
        <ele>769.66999999999996</ele>
        <time>2025-05-18T07:27:45Z</time>
      </trkpt>
      <trkpt lat="43.794467998668551" lon="6.389170987531543">
        <ele>770.14999999999998</ele>
        <time>2025-05-18T07:27:46Z</time>
      </trkpt>
      <trkpt lat="43.794361967593431" lon="6.38931599445641">
        <ele>770.63</ele>
        <time>2025-05-18T07:27:47Z</time>
      </trkpt>
      <trkpt lat="43.794259959831834" lon="6.389477010816336">
        <ele>770.63</ele>
        <time>2025-05-18T07:27:48Z</time>
      </trkpt>
      <trkpt lat="43.794170022010803" lon="6.389656970277429">
        <ele>771.11000000000001</ele>
        <time>2025-05-18T07:27:49Z</time>
      </trkpt>
      <trkpt lat="43.794076982885599" lon="6.389841958880425">
        <ele>771.11000000000001</ele>
        <time>2025-05-18T07:27:50Z</time>
      </trkpt>
      <trkpt lat="43.793985033407807" lon="6.390026025474072">
        <ele>772.08000000000004</ele>
        <time>2025-05-18T07:27:51Z</time>
      </trkpt>
      <trkpt lat="43.79362897016108" lon="6.391146015375853">
        <ele>773.51999999999998</ele>
        <time>2025-05-18T07:27:58Z</time>
      </trkpt>
      <trkpt lat="43.793612960726023" lon="6.391285993158817">
        <ele>774</ele>
        <time>2025-05-18T07:27:59Z</time>
      </trkpt>
      <trkpt lat="43.793521011248231" lon="6.392353009432554">
        <ele>775.91999999999996</ele>
        <time>2025-05-18T07:28:08Z</time>
      </trkpt>
      <trkpt lat="43.793521011248231" lon="6.392467003315687">
        <ele>775.91999999999996</ele>
        <time>2025-05-18T07:28:09Z</time>
      </trkpt>
      <trkpt lat="43.793526962399483" lon="6.392585020512343">
        <ele>775.91999999999996</ele>
        <time>2025-05-18T07:28:10Z</time>
      </trkpt>
      <trkpt lat="43.793558981269598" lon="6.392703959718347">
        <ele>776.39999999999998</ele>
        <time>2025-05-18T07:28:11Z</time>
      </trkpt>
      <trkpt lat="43.793593011796474" lon="6.392828011885285">
        <ele>776.88</ele>
        <time>2025-05-18T07:28:12Z</time>
      </trkpt>
      <trkpt lat="43.79362603649497" lon="6.392951980233192">
        <ele>777.36000000000001</ele>
        <time>2025-05-18T07:28:13Z</time>
      </trkpt>
      <trkpt lat="43.793659983202815" lon="6.393076032400131">
        <ele>777.84000000000003</ele>
        <time>2025-05-18T07:28:14Z</time>
      </trkpt>
      <trkpt lat="43.79367196932435" lon="6.393216010183096">
        <ele>777.84000000000003</ele>
        <time>2025-05-18T07:28:15Z</time>
      </trkpt>
      <trkpt lat="43.79367196932435" lon="6.393488002941012">
        <ele>778.80999999999995</ele>
        <time>2025-05-18T07:28:17Z</time>
      </trkpt>
      <trkpt lat="43.793698037043214" lon="6.393625969067216">
        <ele>779.28999999999996</ele>
        <time>2025-05-18T07:28:18Z</time>
      </trkpt>
      <trkpt lat="43.793746987357736" lon="6.393765024840832">
        <ele>779.76999999999998</ele>
        <time>2025-05-18T07:28:19Z</time>
      </trkpt>
      <trkpt lat="43.793834997341037" lon="6.394074987620115">
        <ele>780.25</ele>
        <time>2025-05-18T07:28:21Z</time>
      </trkpt>
      <trkpt lat="43.793858969584107" lon="6.394250001758337">
        <ele>780.73000000000002</ele>
        <time>2025-05-18T07:28:22Z</time>
      </trkpt>
      <trkpt lat="43.794015040621161" lon="6.395162036642432">
        <ele>782.16999999999996</ele>
        <time>2025-05-18T07:28:28Z</time>
      </trkpt>
      <trkpt lat="43.794087041169405" lon="6.395427994430065">
        <ele>783.13</ele>
        <time>2025-05-18T07:28:30Z</time>
      </trkpt>
      <trkpt lat="43.794101038947701" lon="6.395748015493155">
        <ele>784.09000000000003</ele>
        <time>2025-05-18T07:28:32Z</time>
      </trkpt>
      <trkpt lat="43.794101038947701" lon="6.395923029631376">
        <ele>785.04999999999995</ele>
        <time>2025-05-18T07:28:33Z</time>
      </trkpt>
      <trkpt lat="43.794109001755714" lon="6.396284038200975">
        <ele>786.01999999999998</ele>
        <time>2025-05-18T07:28:35Z</time>
      </trkpt>
      <trkpt lat="43.794115036725998" lon="6.396454023197293">
        <ele>786.5</ele>
        <time>2025-05-18T07:28:36Z</time>
      </trkpt>
      <trkpt lat="43.79412098787725" lon="6.3965970184654">
        <ele>786.98000000000002</ele>
        <time>2025-05-18T07:28:37Z</time>
      </trkpt>
      <trkpt lat="43.794168010354042" lon="6.396695002913475">
        <ele>787.46000000000004</ele>
        <time>2025-05-18T07:28:38Z</time>
      </trkpt>
      <trkpt lat="43.794235987588763" lon="6.396776977926493">
        <ele>787.94000000000005</ele>
        <time>2025-05-18T07:28:39Z</time>
      </trkpt>
      <trkpt lat="43.794311005622149" lon="6.396868005394936">
        <ele>788.89999999999998</ele>
        <time>2025-05-18T07:28:40Z</time>
      </trkpt>
      <trkpt lat="43.794389963150024" lon="6.396962972357869">
        <ele>789.86000000000001</ele>
        <time>2025-05-18T07:28:41Z</time>
      </trkpt>
      <trkpt lat="43.794463975355029" lon="6.397052993997932">
        <ele>790.34000000000003</ele>
        <time>2025-05-18T07:28:42Z</time>
      </trkpt>
      <trkpt lat="43.79452801309526" lon="6.397147038951516">
        <ele>790.82000000000005</ele>
        <time>2025-05-18T07:28:43Z</time>
      </trkpt>
      <trkpt lat="43.794512003660202" lon="6.397259021177888">
        <ele>791.29999999999995</ele>
        <time>2025-05-18T07:28:44Z</time>
      </trkpt>
      <trkpt lat="43.794494988396764" lon="6.397376032546163">
        <ele>791.29999999999995</ele>
        <time>2025-05-18T07:28:45Z</time>
      </trkpt>
      <trkpt lat="43.794480990618467" lon="6.39747804030776">
        <ele>791.29999999999995</ele>
        <time>2025-05-18T07:28:46Z</time>
      </trkpt>
      <trkpt lat="43.794467998668551" lon="6.39756697230041">
        <ele>791.29999999999995</ele>
        <time>2025-05-18T07:28:47Z</time>
      </trkpt>
      <trkpt lat="43.794430028647184" lon="6.397833013907075">
        <ele>791.77999999999997</ele>
        <time>2025-05-18T07:28:51Z</time>
      </trkpt>
      <trkpt lat="43.794420976191759" lon="6.397897973656654">
        <ele>791.77999999999997</ele>
        <time>2025-05-18T07:28:52Z</time>
      </trkpt>
      <trkpt lat="43.794412007555366" lon="6.397961005568504">
        <ele>791.77999999999997</ele>
        <time>2025-05-18T07:28:53Z</time>
      </trkpt>
      <trkpt lat="43.794401027262211" lon="6.398034011945128">
        <ele>791.77999999999997</ele>
        <time>2025-05-18T07:28:54Z</time>
      </trkpt>
      <trkpt lat="43.79437898285687" lon="6.398065024986863">
        <ele>791.29999999999995</ele>
        <time>2025-05-18T07:28:55Z</time>
      </trkpt>
      <trkpt lat="43.794348975643516" lon="6.398106012493372">
        <ele>791.29999999999995</ele>
        <time>2025-05-18T07:28:56Z</time>
      </trkpt>
      <trkpt lat="43.794320980086923" lon="6.39814498834312">
        <ele>791.29999999999995</ele>
        <time>2025-05-18T07:28:57Z</time>
      </trkpt>
      <trkpt lat="43.794149989262223" lon="6.398285971954465">
        <ele>790.34000000000003</ele>
        <time>2025-05-18T07:29:05Z</time>
      </trkpt>
      <trkpt lat="43.794129034504294" lon="6.398330982774496">
        <ele>790.34000000000003</ele>
        <time>2025-05-18T07:29:06Z</time>
      </trkpt>
      <trkpt lat="43.794144038110971" lon="6.398419998586178">
        <ele>790.34000000000003</ele>
        <time>2025-05-18T07:29:07Z</time>
      </trkpt>
      <trkpt lat="43.794135991483927" lon="6.398371970281005">
        <ele>790.34000000000003</ele>
        <time>2025-05-18T07:29:08Z</time>
      </trkpt>
      <trkpt lat="43.794139008969069" lon="6.398390997201204">
        <ele>790.34000000000003</ele>
        <time>2025-05-18T07:29:09Z</time>
      </trkpt>
      <trkpt lat="43.794118976220489" lon="6.398504991084337">
        <ele>789.86000000000001</ele>
        <time>2025-05-18T07:29:18Z</time>
      </trkpt>
      <trkpt lat="43.794100033119321" lon="6.398573974147439">
        <ele>789.38</ele>
        <time>2025-05-18T07:29:19Z</time>
      </trkpt>
      <trkpt lat="43.794016968458891" lon="6.398855019360781">
        <ele>788.89999999999998</ele>
        <time>2025-05-18T07:29:22Z</time>
      </trkpt>
      <trkpt lat="43.794000037014484" lon="6.398991979658604">
        <ele>788.89999999999998</ele>
        <time>2025-05-18T07:29:23Z</time>
      </trkpt>
      <trkpt lat="43.7940130289644" lon="6.399114020168781">
        <ele>788.41999999999996</ele>
        <time>2025-05-18T07:29:24Z</time>
      </trkpt>
      <trkpt lat="43.794100033119321" lon="6.399203035980463">
        <ele>787.94000000000005</ele>
        <time>2025-05-18T07:29:25Z</time>
      </trkpt>
      <trkpt lat="43.794179996475577" lon="6.399273024871945">
        <ele>787.46000000000004</ele>
        <time>2025-05-18T07:29:26Z</time>
      </trkpt>
      <trkpt lat="43.794263983145356" lon="6.39934603124857">
        <ele>786.98000000000002</ele>
        <time>2025-05-18T07:29:27Z</time>
      </trkpt>
      <trkpt lat="43.794361967593431" lon="6.39943496324122">
        <ele>786.5</ele>
        <time>2025-05-18T07:29:28Z</time>
      </trkpt>
      <trkpt lat="43.79444201476872" lon="6.399576030671597">
        <ele>786.5</ele>
        <time>2025-05-18T07:29:29Z</time>
      </trkpt>
      <trkpt lat="43.794534970074892" lon="6.399742998182774">
        <ele>786.01999999999998</ele>
        <time>2025-05-18T07:29:30Z</time>
      </trkpt>
      <trkpt lat="43.794662961736321" lon="6.400083974003792">
        <ele>784.57000000000005</ele>
        <time>2025-05-18T07:29:32Z</time>
      </trkpt>
      <trkpt lat="43.794753989204764" lon="6.400198973715305">
        <ele>784.57000000000005</ele>
        <time>2025-05-18T07:29:33Z</time>
      </trkpt>
      <trkpt lat="43.794900001958013" lon="6.400431990623474">
        <ele>783.61000000000001</ele>
        <time>2025-05-18T07:29:35Z</time>
      </trkpt>
      <trkpt lat="43.794944006949663" lon="6.400564005598426">
        <ele>783.61000000000001</ele>
        <time>2025-05-18T07:29:36Z</time>
      </trkpt>
      <trkpt lat="43.794967979192734" lon="6.400728961452842">
        <ele>783.13</ele>
        <time>2025-05-18T07:29:37Z</time>
      </trkpt>
      <trkpt lat="43.794934032484889" lon="6.400876985862851">
        <ele>782.64999999999998</ele>
        <time>2025-05-18T07:29:38Z</time>
      </trkpt>
      <trkpt lat="43.7948730122298" lon="6.401021992787719">
        <ele>782.16999999999996</ele>
        <time>2025-05-18T07:29:39Z</time>
      </trkpt>
      <trkpt lat="43.794788019731641" lon="6.401160964742303">
        <ele>781.21000000000004</ele>
        <time>2025-05-18T07:29:40Z</time>
      </trkpt>
      <trkpt lat="43.794688023626804" lon="6.401284011080861">
        <ele>780.73000000000002</ele>
        <time>2025-05-18T07:29:41Z</time>
      </trkpt>
      <trkpt lat="43.794573023915291" lon="6.401389958336949">
        <ele>780.25</ele>
        <time>2025-05-18T07:29:42Z</time>
      </trkpt>
      <trkpt lat="43.794444026425481" lon="6.401509987190366">
        <ele>779.28999999999996</ele>
        <time>2025-05-18T07:29:43Z</time>
      </trkpt>
      <trkpt lat="43.794376971200109" lon="6.401604032143951">
        <ele>778.32000000000005</ele>
        <time>2025-05-18T07:29:44Z</time>
      </trkpt>
      <trkpt lat="43.794208997860551" lon="6.401858003810048">
        <ele>775.44000000000005</ele>
        <time>2025-05-18T07:29:47Z</time>
      </trkpt>
      <trkpt lat="43.7941649928689" lon="6.401961017400026">
        <ele>774.96000000000004</ele>
        <time>2025-05-18T07:29:48Z</time>
      </trkpt>
      <trkpt lat="43.794162981212139" lon="6.401995969936252">
        <ele>774.48000000000002</ele>
        <time>2025-05-18T07:29:49Z</time>
      </trkpt>
      <trkpt lat="43.794159963726997" lon="6.402065958827734">
        <ele>774</ele>
        <time>2025-05-18T07:29:50Z</time>
      </trkpt>
      <trkpt lat="43.794155018404126" lon="6.402147011831403">
        <ele>773.03999999999996</ele>
        <time>2025-05-18T07:29:51Z</time>
      </trkpt>
      <trkpt lat="43.79414496012032" lon="6.402332000434399">
        <ele>771.60000000000002</ele>
        <time>2025-05-18T07:29:53Z</time>
      </trkpt>
      <trkpt lat="43.794139008969069" lon="6.402449011802673">
        <ele>771.11000000000001</ele>
        <time>2025-05-18T07:29:54Z</time>
      </trkpt>
      <trkpt lat="43.794085029512644" lon="6.402848996222019">
        <ele>769.66999999999996</ele>
        <time>2025-05-18T07:29:57Z</time>
      </trkpt>
      <trkpt lat="43.794032977893949" lon="6.402974976226687">
        <ele>769.19000000000005</ele>
        <time>2025-05-18T07:29:58Z</time>
      </trkpt>
      <trkpt lat="43.793963994830847" lon="6.403089975938201">
        <ele>768.71000000000004</ele>
        <time>2025-05-18T07:29:59Z</time>
      </trkpt>
      <trkpt lat="43.793728966265917" lon="6.403475040569902">
        <ele>765.83000000000004</ele>
        <time>2025-05-18T07:30:04Z</time>
      </trkpt>
      <trkpt lat="43.79367196932435" lon="6.403570007532835">
        <ele>762.46000000000004</ele>
        <time>2025-05-18T07:30:13Z</time>
      </trkpt>
      <trkpt lat="43.79367196932435" lon="6.403570007532835">
        <ele>762.46000000000004</ele>
        <time>2025-05-18T07:30:43Z</time>
      </trkpt>
      <trkpt lat="43.79367196932435" lon="6.403570007532835">
        <ele>761.5</ele>
        <time>2025-05-18T07:31:33Z</time>
      </trkpt>
      <trkpt lat="43.79367196932435" lon="6.403570007532835">
        <ele>761.01999999999998</ele>
        <time>2025-05-18T07:32:27Z</time>
      </trkpt>
      <trkpt lat="43.793637016788125" lon="6.403650976717472">
        <ele>761.01999999999998</ele>
        <time>2025-05-18T07:32:31Z</time>
      </trkpt>
      <trkpt lat="43.793607009574771" lon="6.403719959780574">
        <ele>761.01999999999998</ele>
        <time>2025-05-18T07:32:32Z</time>
      </trkpt>
      <trkpt lat="43.79362897016108" lon="6.404021037742496">
        <ele>761.01999999999998</ele>
        <time>2025-05-18T07:32:33Z</time>
      </trkpt>
      <trkpt lat="43.79367196932435" lon="6.403570007532835">
        <ele>761.01999999999998</ele>
        <time>2025-05-18T07:32:34Z</time>
      </trkpt>
      <trkpt lat="43.79367196932435" lon="6.403570007532835">
        <ele>761.01999999999998</ele>
        <time>2025-05-18T07:32:35Z</time>
      </trkpt>
      <trkpt lat="43.79380096681416" lon="6.403357023373246">
        <ele>761.01999999999998</ele>
        <time>2025-05-18T07:32:54Z</time>
      </trkpt>
      <trkpt lat="43.79380096681416" lon="6.403357023373246">
        <ele>761.5</ele>
        <time>2025-05-18T07:33:37Z</time>
      </trkpt>
      <trkpt lat="43.79380096681416" lon="6.403357023373246">
        <ele>761.5</ele>
        <time>2025-05-18T07:34:29Z</time>
      </trkpt>
      <trkpt lat="43.79380096681416" lon="6.403357023373246">
        <ele>761.5</ele>
        <time>2025-05-18T07:34:46Z</time>
      </trkpt>
      <trkpt lat="43.793612038716674" lon="6.403782991692424">
        <ele>761.5</ele>
        <time>2025-05-18T07:34:50Z</time>
      </trkpt>
      <trkpt lat="43.793617989867926" lon="6.403876030817628">
        <ele>761.5</ele>
        <time>2025-05-18T07:34:51Z</time>
      </trkpt>
      <trkpt lat="43.79362603649497" lon="6.403982983902097">
        <ele>761.01999999999998</ele>
        <time>2025-05-18T07:34:52Z</time>
      </trkpt>
      <trkpt lat="43.793665012344718" lon="6.40409798361361">
        <ele>761.01999999999998</ele>
        <time>2025-05-18T07:34:53Z</time>
      </trkpt>
      <trkpt lat="43.793724020943046" lon="6.404221029952169">
        <ele>760.53999999999996</ele>
        <time>2025-05-18T07:34:54Z</time>
      </trkpt>
      <trkpt lat="43.793784035369754" lon="6.404346004128456">
        <ele>760.53999999999996</ele>
        <time>2025-05-18T07:34:55Z</time>
      </trkpt>
      <trkpt lat="43.793902974575758" lon="6.404731990769506">
        <ele>759.58000000000004</ele>
        <time>2025-05-18T07:34:58Z</time>
      </trkpt>
      <trkpt lat="43.793894005939364" lon="6.404878003522754">
        <ele>759.10000000000002</ele>
        <time>2025-05-18T07:34:59Z</time>
      </trkpt>
      <trkpt lat="43.793852012604475" lon="6.405250998213887">
        <ele>758.13999999999999</ele>
        <time>2025-05-18T07:35:01Z</time>
      </trkpt>
      <trkpt lat="43.793772971257567" lon="6.405811998993158">
        <ele>756.21000000000004</ele>
        <time>2025-05-18T07:35:04Z</time>
      </trkpt>
      <trkpt lat="43.793727960437536" lon="6.405968992039561">
        <ele>755.73000000000002</ele>
        <time>2025-05-18T07:35:05Z</time>
      </trkpt>
      <trkpt lat="43.79366802982986" lon="6.40609203837812">
        <ele>755.25</ele>
        <time>2025-05-18T07:35:06Z</time>
      </trkpt>
      <trkpt lat="43.79349997267127" lon="6.406363025307655">
        <ele>754.28999999999996</ele>
        <time>2025-05-18T07:35:09Z</time>
      </trkpt>
      <trkpt lat="43.793454961851239" lon="6.406436031684279">
        <ele>753.80999999999995</ele>
        <time>2025-05-18T07:35:10Z</time>
      </trkpt>
      <trkpt lat="43.793411962687969" lon="6.406515995040536">
        <ele>753.33000000000004</ele>
        <time>2025-05-18T07:35:11Z</time>
      </trkpt>
      <trkpt lat="43.793322024866939" lon="6.406706012785435">
        <ele>753.33000000000004</ele>
        <time>2025-05-18T07:35:13Z</time>
      </trkpt>
      <trkpt lat="43.793199984356761" lon="6.407068027183414">
        <ele>753.33000000000004</ele>
        <time>2025-05-18T07:35:14Z</time>
      </trkpt>
      <trkpt lat="43.793199984356761" lon="6.407068027183414">
        <ele>752.85000000000002</ele>
        <time>2025-05-18T07:35:15Z</time>
      </trkpt>
      <trkpt lat="43.793230997398496" lon="6.406926959753037">
        <ele>752.85000000000002</ele>
        <time>2025-05-18T07:35:16Z</time>
      </trkpt>
      <trkpt lat="43.793210964649916" lon="6.407017987221479">
        <ele>752.85000000000002</ele>
        <time>2025-05-18T07:35:17Z</time>
      </trkpt>
      <trkpt lat="43.793236026540399" lon="6.407202975824475">
        <ele>752.85000000000002</ele>
        <time>2025-05-18T07:35:18Z</time>
      </trkpt>
      <trkpt lat="43.793252035975456" lon="6.407257961109281">
        <ele>752.85000000000002</ele>
        <time>2025-05-18T07:35:19Z</time>
      </trkpt>
      <trkpt lat="43.793291011825204" lon="6.407325016334653">
        <ele>752.85000000000002</ele>
        <time>2025-05-18T07:35:20Z</time>
      </trkpt>
      <trkpt lat="43.79332797601819" lon="6.407354017719626">
        <ele>752.37</ele>
        <time>2025-05-18T07:35:21Z</time>
      </trkpt>
      <trkpt lat="43.793378015980124" lon="6.407392993569374">
        <ele>752.37</ele>
        <time>2025-05-18T07:35:22Z</time>
      </trkpt>
      <trkpt lat="43.793894005939364" lon="6.407765988260508">
        <ele>749</ele>
        <time>2025-05-18T07:35:29Z</time>
      </trkpt>
      <trkpt lat="43.793956032022834" lon="6.407797001302242">
        <ele>748.51999999999998</ele>
        <time>2025-05-18T07:35:30Z</time>
      </trkpt>
      <trkpt lat="43.794040018692613" lon="6.407797001302242">
        <ele>748.03999999999996</ele>
        <time>2025-05-18T07:35:31Z</time>
      </trkpt>
      <trkpt lat="43.794103972613811" lon="6.407746039330959">
        <ele>747.08000000000004</ele>
        <time>2025-05-18T07:35:32Z</time>
      </trkpt>
      <trkpt lat="43.794181002303958" lon="6.407659035176039">
        <ele>746.60000000000002</ele>
        <time>2025-05-18T07:35:33Z</time>
      </trkpt>
      <trkpt lat="43.794261971488595" lon="6.407567001879215">
        <ele>745.63999999999999</ele>
        <time>2025-05-18T07:35:34Z</time>
      </trkpt>
      <trkpt lat="43.794345036149025" lon="6.407473962754011">
        <ele>745.15999999999997</ele>
        <time>2025-05-18T07:35:35Z</time>
      </trkpt>
      <trkpt lat="43.794449977576733" lon="6.407400034368038">
        <ele>745.15999999999997</ele>
        <time>2025-05-18T07:35:36Z</time>
      </trkpt>
      <trkpt lat="43.794570006430149" lon="6.407372038811445">
        <ele>744.67999999999995</ele>
        <time>2025-05-18T07:35:37Z</time>
      </trkpt>
      <trkpt lat="43.79467997699976" lon="6.407346976920962">
        <ele>743.72000000000003</ele>
        <time>2025-05-18T07:35:38Z</time>
      </trkpt>
      <trkpt lat="43.794812997803092" lon="6.407390981912613">
        <ele>743.24000000000001</ele>
        <time>2025-05-18T07:35:39Z</time>
      </trkpt>
      <trkpt lat="43.795612966641784" lon="6.407669009640813">
        <ele>737.47000000000003</ele>
        <time>2025-05-18T07:35:45Z</time>
      </trkpt>
      <trkpt lat="43.796113030984998" lon="6.408008979633451">
        <ele>734.10000000000002</ele>
        <time>2025-05-18T07:35:50Z</time>
      </trkpt>
      <trkpt lat="43.796144966036081" lon="6.408110987395048">
        <ele>733.13999999999999</ele>
        <time>2025-05-18T07:35:51Z</time>
      </trkpt>
      <trkpt lat="43.7961820140481" lon="6.408248031511903">
        <ele>732.17999999999995</ele>
        <time>2025-05-18T07:35:52Z</time>
      </trkpt>
      <trkpt lat="43.796149995177984" lon="6.408345010131598">
        <ele>731.22000000000003</ele>
        <time>2025-05-18T07:35:53Z</time>
      </trkpt>
      <trkpt lat="43.796109007671475" lon="6.408466966822743">
        <ele>729.77999999999997</ele>
        <time>2025-05-18T07:35:54Z</time>
      </trkpt>
      <trkpt lat="43.796065002679825" lon="6.408598981797695">
        <ele>728.34000000000003</ele>
        <time>2025-05-18T07:35:55Z</time>
      </trkpt>
      <trkpt lat="43.796018986031413" lon="6.40873703174293">
        <ele>726.88999999999999</ele>
        <time>2025-05-18T07:35:56Z</time>
      </trkpt>
      <trkpt lat="43.795985039323568" lon="6.408873992040753">
        <ele>725.92999999999995</ele>
        <time>2025-05-18T07:35:57Z</time>
      </trkpt>
      <trkpt lat="43.795950002968311" lon="6.409020004794002">
        <ele>724.49000000000001</ele>
        <time>2025-05-18T07:35:58Z</time>
      </trkpt>
      <trkpt lat="43.79592502489686" lon="6.409291997551918">
        <ele>722.09000000000003</ele>
        <time>2025-05-18T07:36:00Z</time>
      </trkpt>
      <trkpt lat="43.79592502489686" lon="6.409406997263432">
        <ele>720.64999999999998</ele>
        <time>2025-05-18T07:36:01Z</time>
      </trkpt>
      <trkpt lat="43.795971041545272" lon="6.409487966448069">
        <ele>719.20000000000005</ele>
        <time>2025-05-18T07:36:02Z</time>
      </trkpt>
      <trkpt lat="43.796022003516555" lon="6.409569019451737">
        <ele>718.24000000000001</ele>
        <time>2025-05-18T07:36:03Z</time>
      </trkpt>
      <trkpt lat="43.796082017943263" lon="6.409634985029697">
        <ele>716.79999999999995</ele>
        <time>2025-05-18T07:36:04Z</time>
      </trkpt>
      <trkpt lat="43.796131974086165" lon="6.409689970314503">
        <ele>714.88</ele>
        <time>2025-05-18T07:36:05Z</time>
      </trkpt>
      <trkpt lat="43.796175979077816" lon="6.409737998619676">
        <ele>712.95000000000005</ele>
        <time>2025-05-18T07:36:06Z</time>
      </trkpt>
      <trkpt lat="43.796214032918215" lon="6.409778986126185">
        <ele>710.54999999999995</ele>
        <time>2025-05-18T07:36:07Z</time>
      </trkpt>
      <trkpt lat="43.796244040131569" lon="6.409837994724512">
        <ele>708.63</ele>
        <time>2025-05-18T07:36:08Z</time>
      </trkpt>
      <trkpt lat="43.796231970191002" lon="6.40996397472918">
        <ele>705.75</ele>
        <time>2025-05-18T07:36:09Z</time>
      </trkpt>
      <trkpt lat="43.796218978241086" lon="6.410088026896119">
        <ele>703.34000000000003</ele>
        <time>2025-05-18T07:36:10Z</time>
      </trkpt>
      <trkpt lat="43.796203974634409" lon="6.410244014114142">
        <ele>700.94000000000005</ele>
        <time>2025-05-18T07:36:11Z</time>
      </trkpt>
      <trkpt lat="43.796217972412705" lon="6.410340992733836">
        <ele>699.01999999999998</ele>
        <time>2025-05-18T07:36:12Z</time>
      </trkpt>
      <trkpt lat="43.796234987676144" lon="6.410450041294098">
        <ele>697.57000000000005</ele>
        <time>2025-05-18T07:36:13Z</time>
      </trkpt>
      <trkpt lat="43.796250997111201" lon="6.41056202352047">
        <ele>696.13</ele>
        <time>2025-05-18T07:36:14Z</time>
      </trkpt>
      <trkpt lat="43.79626801237464" lon="6.410676017403603">
        <ele>694.69000000000005</ele>
        <time>2025-05-18T07:36:15Z</time>
      </trkpt>
      <trkpt lat="43.796284021809697" lon="6.410779030993581">
        <ele>693.25</ele>
        <time>2025-05-18T07:36:16Z</time>
      </trkpt>
      <trkpt lat="43.796328026801348" lon="6.411073990166187">
        <ele>686.03999999999996</ele>
        <time>2025-05-18T07:36:22Z</time>
      </trkpt>
      <trkpt lat="43.796328026801348" lon="6.411073990166187">
        <ele>684.60000000000002</ele>
        <time>2025-05-18T07:36:36Z</time>
      </trkpt>
      <trkpt lat="43.79633498378098" lon="6.411105003207922">
        <ele>684.60000000000002</ele>
        <time>2025-05-18T07:37:09Z</time>
      </trkpt>
      <trkpt lat="43.796358034014702" lon="6.411138027906418">
        <ele>686.03999999999996</ele>
        <time>2025-05-18T07:37:10Z</time>
      </trkpt>
      <trkpt lat="43.796391980722547" lon="6.411184966564179">
        <ele>687</ele>
        <time>2025-05-18T07:37:11Z</time>
      </trkpt>
      <trkpt lat="43.796435985714197" lon="6.411246992647648">
        <ele>687.96000000000004</ele>
        <time>2025-05-18T07:37:12Z</time>
      </trkpt>
      <trkpt lat="43.796488037332892" lon="6.411318993195891">
        <ele>687.96000000000004</ele>
        <time>2025-05-18T07:37:13Z</time>
      </trkpt>
      <trkpt lat="43.796546962112188" lon="6.41140197403729">
        <ele>687.96000000000004</ele>
        <time>2025-05-18T07:37:14Z</time>
      </trkpt>
      <trkpt lat="43.796586021780968" lon="6.411523008719087">
        <ele>687.96000000000004</ele>
        <time>2025-05-18T07:37:15Z</time>
      </trkpt>
      <trkpt lat="43.796630026772618" lon="6.411662986502051">
        <ele>687.96000000000004</ele>
        <time>2025-05-18T07:37:16Z</time>
      </trkpt>
      <trkpt lat="43.796677971258759" lon="6.411813022568822">
        <ele>687.96000000000004</ele>
        <time>2025-05-18T07:37:17Z</time>
      </trkpt>
      <trkpt lat="43.796733962371945" lon="6.4119609631598">
        <ele>687.96000000000004</ele>
        <time>2025-05-18T07:37:18Z</time>
      </trkpt>
      <trkpt lat="43.796813003718853" lon="6.412079986184835">
        <ele>687.96000000000004</ele>
        <time>2025-05-18T07:37:19Z</time>
      </trkpt>
      <trkpt lat="43.79689103923738" lon="6.41219699755311">
        <ele>687.48000000000002</ele>
        <time>2025-05-18T07:37:20Z</time>
      </trkpt>
      <trkpt lat="43.796973014250398" lon="6.412292970344424">
        <ele>687.48000000000002</ele>
        <time>2025-05-18T07:37:21Z</time>
      </trkpt>
      <trkpt lat="43.797048032283783" lon="6.412382991984487">
        <ele>687.48000000000002</ele>
        <time>2025-05-18T07:37:22Z</time>
      </trkpt>
      <trkpt lat="43.797119027003646" lon="6.412465972825885">
        <ele>687</ele>
        <time>2025-05-18T07:37:23Z</time>
      </trkpt>
      <trkpt lat="43.797149034217" lon="6.412578960880637">
        <ele>686.51999999999998</ele>
        <time>2025-05-18T07:37:24Z</time>
      </trkpt>
      <trkpt lat="43.797162026166916" lon="6.412680968642235">
        <ele>686.03999999999996</ele>
        <time>2025-05-18T07:37:25Z</time>
      </trkpt>
      <trkpt lat="43.797117015346885" lon="6.412767972797155">
        <ele>685.55999999999995</ele>
        <time>2025-05-18T07:37:26Z</time>
      </trkpt>
      <trkpt lat="43.797060018405318" lon="6.412875009700656">
        <ele>684.60000000000002</ele>
        <time>2025-05-18T07:37:27Z</time>
      </trkpt>
      <trkpt lat="43.796997992321849" lon="6.41299101524055">
        <ele>684.12</ele>
        <time>2025-05-18T07:37:28Z</time>
      </trkpt>
      <trkpt lat="43.79693697206676" lon="6.413106014952064">
        <ele>683.63</ele>
        <time>2025-05-18T07:37:29Z</time>
      </trkpt>
      <trkpt lat="43.796877041459084" lon="6.413217997178435">
        <ele>682.66999999999996</ele>
        <time>2025-05-18T07:37:30Z</time>
      </trkpt>
      <trkpt lat="43.796804035082459" lon="6.41335504129529">
        <ele>682.19000000000005</ele>
        <time>2025-05-18T07:37:31Z</time>
      </trkpt>
      <trkpt lat="43.796799005940557" lon="6.413497030735016">
        <ele>682.66999999999996</ele>
        <time>2025-05-18T07:37:32Z</time>
      </trkpt>
      <trkpt lat="43.796787019819021" lon="6.413794001564384">
        <ele>683.14999999999998</ele>
        <time>2025-05-18T07:37:34Z</time>
      </trkpt>
      <trkpt lat="43.796771010383964" lon="6.413922999054194">
        <ele>683.63</ele>
        <time>2025-05-18T07:37:35Z</time>
      </trkpt>
      <trkpt lat="43.796716025099158" lon="6.414071023464203">
        <ele>683.63</ele>
        <time>2025-05-18T07:37:36Z</time>
      </trkpt>
      <trkpt lat="43.796518966555595" lon="6.414490034803748">
        <ele>683.14999999999998</ele>
        <time>2025-05-18T07:37:39Z</time>
      </trkpt>
      <trkpt lat="43.796433974057436" lon="6.414589025080204">
        <ele>682.66999999999996</ele>
        <time>2025-05-18T07:37:40Z</time>
      </trkpt>
      <trkpt lat="43.796346969902515" lon="6.414692960679531">
        <ele>682.19000000000005</ele>
        <time>2025-05-18T07:37:41Z</time>
      </trkpt>
      <trkpt lat="43.796264994889498" lon="6.414789017289877">
        <ele>681.71000000000004</ele>
        <time>2025-05-18T07:37:42Z</time>
      </trkpt>
      <trkpt lat="43.796217972412705" lon="6.414910973981023">
        <ele>681.23000000000002</ele>
        <time>2025-05-18T07:37:43Z</time>
      </trkpt>
      <trkpt lat="43.79620598629117" lon="6.415036031976342">
        <ele>680.75</ele>
        <time>2025-05-18T07:37:44Z</time>
      </trkpt>
      <trkpt lat="43.796192994341254" lon="6.415171986445785">
        <ele>680.26999999999998</ele>
        <time>2025-05-18T07:37:45Z</time>
      </trkpt>
      <trkpt lat="43.796163992956281" lon="6.415314981713891">
        <ele>679.30999999999995</ele>
        <time>2025-05-18T07:37:46Z</time>
      </trkpt>
      <trkpt lat="43.796100039035082" lon="6.41541900113225">
        <ele>678.83000000000004</ele>
        <time>2025-05-18T07:37:47Z</time>
      </trkpt>
      <trkpt lat="43.796029966324568" lon="6.415534000843763">
        <ele>678.35000000000002</ele>
        <time>2025-05-18T07:37:48Z</time>
      </trkpt>
      <trkpt lat="43.795976992696524" lon="6.415693005546928">
        <ele>677.38999999999999</ele>
        <time>2025-05-18T07:37:49Z</time>
      </trkpt>
      <trkpt lat="43.795931981876493" lon="6.415861984714866">
        <ele>676.90999999999997</ele>
        <time>2025-05-18T07:37:50Z</time>
      </trkpt>
      <trkpt lat="43.795872973278165" lon="6.416023001074791">
        <ele>675.94000000000005</ele>
        <time>2025-05-18T07:37:51Z</time>
      </trkpt>
      <trkpt lat="43.795786974951625" lon="6.416162978857756">
        <ele>674.98000000000002</ele>
        <time>2025-05-18T07:37:52Z</time>
      </trkpt>
      <trkpt lat="43.795695025473833" lon="6.416313014924526">
        <ele>674.01999999999998</ele>
        <time>2025-05-18T07:37:53Z</time>
      </trkpt>
      <trkpt lat="43.795597963035107" lon="6.41647101379931">
        <ele>673.05999999999995</ele>
        <time>2025-05-18T07:37:54Z</time>
      </trkpt>
      <trkpt lat="43.795496039092541" lon="6.416636975482106">
        <ele>672.10000000000002</ele>
        <time>2025-05-18T07:37:55Z</time>
      </trkpt>
      <trkpt lat="43.79452901892364" lon="6.418081009760499">
        <ele>662.97000000000003</ele>
        <time>2025-05-18T07:38:04Z</time>
      </trkpt>
      <trkpt lat="43.794423993676901" lon="6.418205983936787">
        <ele>662.49000000000001</ele>
        <time>2025-05-18T07:38:05Z</time>
      </trkpt>
      <trkpt lat="43.794317962601781" lon="6.418331963941455">
        <ele>661.51999999999998</ele>
        <time>2025-05-18T07:38:06Z</time>
      </trkpt>
      <trkpt lat="43.794213021174073" lon="6.418456016108394">
        <ele>660.55999999999995</ele>
        <time>2025-05-18T07:38:07Z</time>
      </trkpt>
      <trkpt lat="43.794155018404126" lon="6.41862097196281">
        <ele>660.08000000000004</ele>
        <time>2025-05-18T07:38:08Z</time>
      </trkpt>
      <trkpt lat="43.794100033119321" lon="6.418788023293018">
        <ele>659.60000000000002</ele>
        <time>2025-05-18T07:38:09Z</time>
      </trkpt>
      <trkpt lat="43.794043036177754" lon="6.418957002460957">
        <ele>659.12</ele>
        <time>2025-05-18T07:38:10Z</time>
      </trkpt>
      <trkpt lat="43.793923007324338" lon="6.419294960796833">
        <ele>657.67999999999995</ele>
        <time>2025-05-18T07:38:12Z</time>
      </trkpt>
      <trkpt lat="43.793793004006147" lon="6.419644989073277">
        <ele>656.24000000000001</ele>
        <time>2025-05-18T07:38:14Z</time>
      </trkpt>
      <trkpt lat="43.793663000687957" lon="6.419993005692959">
        <ele>654.79999999999995</ele>
        <time>2025-05-18T07:38:16Z</time>
      </trkpt>
      <trkpt lat="43.79358597099781" lon="6.420101970434189">
        <ele>654.30999999999995</ele>
        <time>2025-05-18T07:38:17Z</time>
      </trkpt>
      <trkpt lat="43.793509025126696" lon="6.420190986245871">
        <ele>653.83000000000004</ele>
        <time>2025-05-18T07:38:18Z</time>
      </trkpt>
      <trkpt lat="43.793427972123027" lon="6.420285031199455">
        <ele>652.87</ele>
        <time>2025-05-18T07:38:19Z</time>
      </trkpt>
      <trkpt lat="43.793341973796487" lon="6.420400030910969">
        <ele>652.38999999999999</ele>
        <time>2025-05-18T07:38:20Z</time>
      </trkpt>
      <trkpt lat="43.793265027925372" lon="6.420531962066889">
        <ele>651.90999999999997</ele>
        <time>2025-05-18T07:38:21Z</time>
      </trkpt>
      <trkpt lat="43.793185986578465" lon="6.420666994526982">
        <ele>651.42999999999995</ele>
        <time>2025-05-18T07:38:22Z</time>
      </trkpt>
      <trkpt lat="43.793105017393827" lon="6.420806972309947">
        <ele>650.47000000000003</ele>
        <time>2025-05-18T07:38:23Z</time>
      </trkpt>
      <trkpt lat="43.793041985481977" lon="6.420979974791408">
        <ele>649.99000000000001</ele>
        <time>2025-05-18T07:38:24Z</time>
      </trkpt>
      <trkpt lat="43.79300401546061" lon="6.42113302834332">
        <ele>649.02999999999997</ele>
        <time>2025-05-18T07:38:25Z</time>
      </trkpt>
      <trkpt lat="43.792968979105353" lon="6.421273006126285">
        <ele>648.54999999999995</ele>
        <time>2025-05-18T07:38:26Z</time>
      </trkpt>
      <trkpt lat="43.792907958850265" lon="6.421357998624444">
        <ele>647.59000000000003</ele>
        <time>2025-05-18T07:38:27Z</time>
      </trkpt>
      <trkpt lat="43.792825983837247" lon="6.421451959758997">
        <ele>646.62</ele>
        <time>2025-05-18T07:38:28Z</time>
      </trkpt>
      <trkpt lat="43.792734034359455" lon="6.421557990834117">
        <ele>646.13999999999999</ele>
        <time>2025-05-18T07:38:29Z</time>
      </trkpt>
      <trkpt lat="43.792634960263968" lon="6.421670978888869">
        <ele>645.17999999999995</ele>
        <time>2025-05-18T07:38:30Z</time>
      </trkpt>
      <trkpt lat="43.79253395833075" lon="6.421787990257144">
        <ele>644.22000000000003</ele>
        <time>2025-05-18T07:38:31Z</time>
      </trkpt>
      <trkpt lat="43.792441003024578" lon="6.421854961663485">
        <ele>643.25999999999999</ele>
        <time>2025-05-18T07:38:32Z</time>
      </trkpt>
      <trkpt lat="43.792341006919742" lon="6.421926040202379">
        <ele>642.29999999999995</ele>
        <time>2025-05-18T07:38:33Z</time>
      </trkpt>
      <trkpt lat="43.792241010814905" lon="6.421997034922242">
        <ele>641.34000000000003</ele>
        <time>2025-05-18T07:38:34Z</time>
      </trkpt>
      <trkpt lat="43.792150989174843" lon="6.422061994671822">
        <ele>639.88999999999999</ele>
        <time>2025-05-18T07:38:35Z</time>
      </trkpt>
      <trkpt lat="43.792072031646967" lon="6.422138018533588">
        <ele>638.92999999999995</ele>
        <time>2025-05-18T07:38:36Z</time>
      </trkpt>
      <trkpt lat="43.792027020826936" lon="6.422247989103198">
        <ele>637.97000000000003</ele>
        <time>2025-05-18T07:38:37Z</time>
      </trkpt>
      <trkpt lat="43.791977986693382" lon="6.422368017956615">
        <ele>637.00999999999999</ele>
        <time>2025-05-18T07:38:38Z</time>
      </trkpt>
      <trkpt lat="43.791890982538462" lon="6.422582007944584">
        <ele>635.57000000000005</ele>
        <time>2025-05-18T07:38:40Z</time>
      </trkpt>
      <trkpt lat="43.79179903306067" lon="6.422699019312859">
        <ele>635.09000000000003</ele>
        <time>2025-05-18T07:38:41Z</time>
      </trkpt>
      <trkpt lat="43.791700964793563" lon="6.422824999317527">
        <ele>634.61000000000001</ele>
        <time>2025-05-18T07:38:42Z</time>
      </trkpt>
      <trkpt lat="43.790978025645018" lon="6.424053031951189">
        <ele>632.20000000000005</ele>
        <time>2025-05-18T07:38:50Z</time>
      </trkpt>
      <trkpt lat="43.790933014824986" lon="6.424187980592251">
        <ele>631.72000000000003</ele>
        <time>2025-05-18T07:38:51Z</time>
      </trkpt>
      <trkpt lat="43.790904013440013" lon="6.424354026094079">
        <ele>631.24000000000001</ele>
        <time>2025-05-18T07:38:52Z</time>
      </trkpt>
      <trkpt lat="43.790904013440013" lon="6.424503978341818">
        <ele>631.24000000000001</ele>
        <time>2025-05-18T07:38:53Z</time>
      </trkpt>
      <trkpt lat="43.790945000946522" lon="6.424654014408588">
        <ele>630.75999999999999</ele>
        <time>2025-05-18T07:38:54Z</time>
      </trkpt>
      <trkpt lat="43.790986994281411" lon="6.424794998019934">
        <ele>630.27999999999997</ele>
        <time>2025-05-18T07:38:55Z</time>
      </trkpt>
      <trkpt lat="43.791230991482735" lon="6.425771992653608">
        <ele>627.39999999999998</ele>
        <time>2025-05-18T07:39:00Z</time>
      </trkpt>
      <trkpt lat="43.791303997859359" lon="6.426143981516361">
        <ele>626.91999999999996</ele>
        <time>2025-05-18T07:39:02Z</time>
      </trkpt>
      <trkpt lat="43.791424026712775" lon="6.426962977275252">
        <ele>624.99000000000001</ele>
        <time>2025-05-18T07:39:06Z</time>
      </trkpt>
      <trkpt lat="43.791461996734142" lon="6.427260031923652">
        <ele>624.02999999999997</ele>
        <time>2025-05-18T07:39:07Z</time>
      </trkpt>
      <trkpt lat="43.791496027261019" lon="6.427406966686249">
        <ele>623.07000000000005</ele>
        <time>2025-05-18T07:39:08Z</time>
      </trkpt>
      <trkpt lat="43.791655031964183" lon="6.428095959126949">
        <ele>619.23000000000002</ele>
        <time>2025-05-18T07:39:12Z</time>
      </trkpt>
      <trkpt lat="43.791655031964183" lon="6.428095959126949">
        <ele>618.25999999999999</ele>
        <time>2025-05-18T07:39:13Z</time>
      </trkpt>
      <trkpt lat="43.791604992002249" lon="6.428284971043468">
        <ele>617.29999999999995</ele>
        <time>2025-05-18T07:39:14Z</time>
      </trkpt>
      <trkpt lat="43.791574984788895" lon="6.428399970754981">
        <ele>615.86000000000001</ele>
        <time>2025-05-18T07:39:15Z</time>
      </trkpt>
      <trkpt lat="43.791546989232302" lon="6.42856802791357">
        <ele>614.89999999999998</ele>
        <time>2025-05-18T07:39:16Z</time>
      </trkpt>
      <trkpt lat="43.791546989232302" lon="6.428704988211393">
        <ele>613.46000000000004</ele>
        <time>2025-05-18T07:39:17Z</time>
      </trkpt>
      <trkpt lat="43.791604992002249" lon="6.428876984864473">
        <ele>612.98000000000002</ele>
        <time>2025-05-18T07:39:18Z</time>
      </trkpt>
      <trkpt lat="43.791656037792563" lon="6.42899801954627">
        <ele>612.01999999999998</ele>
        <time>2025-05-18T07:39:19Z</time>
      </trkpt>
      <trkpt lat="43.791711023077369" lon="6.429129028692842">
        <ele>611.05999999999995</ele>
        <time>2025-05-18T07:39:20Z</time>
      </trkpt>
      <trkpt lat="43.791777994483709" lon="6.42921200953424">
        <ele>612.5</ele>
        <time>2025-05-18T07:39:21Z</time>
      </trkpt>
      <trkpt lat="43.791848989203572" lon="6.429288033396006">
        <ele>613.46000000000004</ele>
        <time>2025-05-18T07:39:22Z</time>
      </trkpt>
      <trkpt lat="43.791991984471679" lon="6.429455000907183">
        <ele>614.89999999999998</ele>
        <time>2025-05-18T07:39:24Z</time>
      </trkpt>
      <trkpt lat="43.792250985279679" lon="6.429984988644719">
        <ele>617.77999999999997</ele>
        <time>2025-05-18T07:39:28Z</time>
      </trkpt>
      <trkpt lat="43.792304964736104" lon="6.4301379583776">
        <ele>618.25999999999999</ele>
        <time>2025-05-18T07:39:29Z</time>
      </trkpt>
      <trkpt lat="43.79249095916748" lon="6.430670963600278">
        <ele>618.25999999999999</ele>
        <time>2025-05-18T07:39:32Z</time>
      </trkpt>
      <trkpt lat="43.792599001899362" lon="6.431035995483398">
        <ele>617.77999999999997</ele>
        <time>2025-05-18T07:39:35Z</time>
      </trkpt>
      <trkpt lat="43.792599001899362" lon="6.431164992973208">
        <ele>617.29999999999995</ele>
        <time>2025-05-18T07:39:36Z</time>
      </trkpt>
      <trkpt lat="43.792599001899362" lon="6.431293990463018">
        <ele>616.82000000000005</ele>
        <time>2025-05-18T07:39:37Z</time>
      </trkpt>
      <trkpt lat="43.792551979422569" lon="6.431400021538138">
        <ele>616.34000000000003</ele>
        <time>2025-05-18T07:39:38Z</time>
      </trkpt>
      <trkpt lat="43.79248802550137" lon="6.431519966572523">
        <ele>616.34000000000003</ele>
        <time>2025-05-18T07:39:39Z</time>
      </trkpt>
      <trkpt lat="43.792405966669321" lon="6.431629015132785">
        <ele>616.34000000000003</ele>
        <time>2025-05-18T07:39:40Z</time>
      </trkpt>
      <trkpt lat="43.792319968342781" lon="6.431743009015918">
        <ele>615.86000000000001</ele>
        <time>2025-05-18T07:39:41Z</time>
      </trkpt>
      <trkpt lat="43.792245034128428" lon="6.431864965707064">
        <ele>616.34000000000003</ele>
        <time>2025-05-18T07:39:42Z</time>
      </trkpt>
      <trkpt lat="43.792203040793538" lon="6.432007038965821">
        <ele>616.34000000000003</ele>
        <time>2025-05-18T07:39:43Z</time>
      </trkpt>
      <trkpt lat="43.792161969467998" lon="6.432149028405547">
        <ele>616.34000000000003</ele>
        <time>2025-05-18T07:39:44Z</time>
      </trkpt>
      <trkpt lat="43.792164986953139" lon="6.432308033108711">
        <ele>616.82000000000005</ele>
        <time>2025-05-18T07:39:45Z</time>
      </trkpt>
      <trkpt lat="43.7921860255301" lon="6.432438036426902">
        <ele>616.82000000000005</ele>
        <time>2025-05-18T07:39:46Z</time>
      </trkpt>
      <trkpt lat="43.792247967794538" lon="6.432536020874977">
        <ele>617.77999999999997</ele>
        <time>2025-05-18T07:39:47Z</time>
      </trkpt>
      <trkpt lat="43.792326003313065" lon="6.432620007544756">
        <ele>618.25999999999999</ele>
        <time>2025-05-18T07:39:48Z</time>
      </trkpt>
      <trkpt lat="43.792403033003211" lon="6.432703994214535">
        <ele>618.25999999999999</ele>
        <time>2025-05-18T07:39:49Z</time>
      </trkpt>
      <trkpt lat="43.792463969439268" lon="6.432793010026217">
        <ele>618.75</ele>
        <time>2025-05-18T07:39:50Z</time>
      </trkpt>
      <trkpt lat="43.792505040764809" lon="6.432900968939066">
        <ele>619.23000000000002</ele>
        <time>2025-05-18T07:39:51Z</time>
      </trkpt>
      <trkpt lat="43.792548039928079" lon="6.433013034984469">
        <ele>619.23000000000002</ele>
        <time>2025-05-18T07:39:52Z</time>
      </trkpt>
      <trkpt lat="43.792591961100698" lon="6.433128034695983">
        <ele>619.71000000000004</ele>
        <time>2025-05-18T07:39:53Z</time>
      </trkpt>
      <trkpt lat="43.792650969699025" lon="6.433229958638549">
        <ele>620.19000000000005</ele>
        <time>2025-05-18T07:39:54Z</time>
      </trkpt>
      <trkpt lat="43.792739985510707" lon="6.433306988328695">
        <ele>621.14999999999998</ele>
        <time>2025-05-18T07:39:55Z</time>
      </trkpt>
      <trkpt lat="43.792838975787163" lon="6.433391980826855">
        <ele>622.11000000000001</ele>
        <time>2025-05-18T07:39:56Z</time>
      </trkpt>
      <trkpt lat="43.793037040159106" lon="6.433562971651554">
        <ele>623.54999999999995</ele>
        <time>2025-05-18T07:39:58Z</time>
      </trkpt>
      <trkpt lat="43.793123960494995" lon="6.43361602909863">
        <ele>624.02999999999997</ele>
        <time>2025-05-18T07:39:59Z</time>
      </trkpt>
      <trkpt lat="43.793221022933722" lon="6.433632038533688">
        <ele>624.50999999999999</ele>
        <time>2025-05-18T07:40:00Z</time>
      </trkpt>
      <trkpt lat="43.793296040967107" lon="6.433621980249882">
        <ele>625.47000000000003</ele>
        <time>2025-05-18T07:40:01Z</time>
      </trkpt>
      <trkpt lat="43.793408023193479" lon="6.433605970814824">
        <ele>625.96000000000004</ele>
        <time>2025-05-18T07:40:02Z</time>
      </trkpt>
      <trkpt lat="43.793529979884624" lon="6.433588033542037">
        <ele>626.44000000000005</ele>
        <time>2025-05-18T07:40:03Z</time>
      </trkpt>
      <trkpt lat="43.793652020394802" lon="6.433571018278599">
        <ele>626.91999999999996</ele>
        <time>2025-05-18T07:40:04Z</time>
      </trkpt>
      <trkpt lat="43.793750004842877" lon="6.433613011613488">
        <ele>627.39999999999998</ele>
        <time>2025-05-18T07:40:05Z</time>
      </trkpt>
      <trkpt lat="43.793834997341037" lon="6.433692974969745">
        <ele>627.88</ele>
        <time>2025-05-18T07:40:06Z</time>
      </trkpt>
      <trkpt lat="43.793877996504307" lon="6.433830019086599">
        <ele>628.36000000000001</ele>
        <time>2025-05-18T07:40:07Z</time>
      </trkpt>
      <trkpt lat="43.793920995667577" lon="6.433988017961383">
        <ele>628.84000000000003</ele>
        <time>2025-05-18T07:40:08Z</time>
      </trkpt>
      <trkpt lat="43.793971035629511" lon="6.434168983250856">
        <ele>629.32000000000005</ele>
        <time>2025-05-18T07:40:09Z</time>
      </trkpt>
      <trkpt lat="43.794023003429174" lon="6.434355983510613">
        <ele>629.79999999999995</ele>
        <time>2025-05-18T07:40:10Z</time>
      </trkpt>
      <trkpt lat="43.794105984270573" lon="6.434530997648835">
        <ele>630.75999999999999</ele>
        <time>2025-05-18T07:40:11Z</time>
      </trkpt>
      <trkpt lat="43.79450898617506" lon="6.435177996754646">
        <ele>633.16999999999996</ele>
        <time>2025-05-18T07:40:15Z</time>
      </trkpt>
      <trkpt lat="43.794634966179729" lon="6.435303976759315">
        <ele>633.64999999999998</ele>
        <time>2025-05-18T07:40:16Z</time>
      </trkpt>
      <trkpt lat="43.795642973855138" lon="6.436380967497826">
        <ele>640.86000000000001</ele>
        <time>2025-05-18T07:40:24Z</time>
      </trkpt>
      <trkpt lat="43.795756967738271" lon="6.436519017443061">
        <ele>642.29999999999995</ele>
        <time>2025-05-18T07:40:25Z</time>
      </trkpt>
      <trkpt lat="43.795815976336598" lon="6.436701994389296">
        <ele>643.25999999999999</ele>
        <time>2025-05-18T07:40:26Z</time>
      </trkpt>
      <trkpt lat="43.796131974086165" lon="6.43769902177155">
        <ele>646.62</ele>
        <time>2025-05-18T07:40:31Z</time>
      </trkpt>
      <trkpt lat="43.796200035139918" lon="6.437848974019289">
        <ele>647.10000000000002</ele>
        <time>2025-05-18T07:40:32Z</time>
      </trkpt>
      <trkpt lat="43.796295002102852" lon="6.43797998316586">
        <ele>647.59000000000003</ele>
        <time>2025-05-18T07:40:33Z</time>
      </trkpt>
      <trkpt lat="43.796406984329224" lon="6.438094982877374">
        <ele>648.07000000000005</ele>
        <time>2025-05-18T07:40:34Z</time>
      </trkpt>
      <trkpt lat="43.796533970162272" lon="6.438204031437635">
        <ele>648.54999999999995</ele>
        <time>2025-05-18T07:40:35Z</time>
      </trkpt>
      <trkpt lat="43.796652993187308" lon="6.438306039199233">
        <ele>649.50999999999999</ele>
        <time>2025-05-18T07:40:36Z</time>
      </trkpt>
      <trkpt lat="43.796761035919189" lon="6.438398994505405">
        <ele>649.99000000000001</ele>
        <time>2025-05-18T07:40:37Z</time>
      </trkpt>
      <trkpt lat="43.796880980953574" lon="6.438425984233618">
        <ele>650.47000000000003</ele>
        <time>2025-05-18T07:40:38Z</time>
      </trkpt>
      <trkpt lat="43.796995980665088" lon="6.438435036689043">
        <ele>650.95000000000005</ele>
        <time>2025-05-18T07:40:39Z</time>
      </trkpt>
      <trkpt lat="43.797132018953562" lon="6.438419027253985">
        <ele>651.42999999999995</ele>
        <time>2025-05-18T07:40:40Z</time>
      </trkpt>
      <trkpt lat="43.798518972471356" lon="6.438121972605586">
        <ele>652.38999999999999</ele>
        <time>2025-05-18T07:40:48Z</time>
      </trkpt>
      <trkpt lat="43.799179969355464" lon="6.437904965132475">
        <ele>651.90999999999997</ele>
        <time>2025-05-18T07:40:52Z</time>
      </trkpt>
      <trkpt lat="43.799315001815557" lon="6.437860038131475">
        <ele>651.42999999999995</ele>
        <time>2025-05-18T07:40:53Z</time>
      </trkpt>
      <trkpt lat="43.79947199486196" lon="6.437912005931139">
        <ele>650.95000000000005</ele>
        <time>2025-05-18T07:40:54Z</time>
      </trkpt>
      <trkpt lat="43.799598980695009" lon="6.437953999266028">
        <ele>649.99000000000001</ele>
        <time>2025-05-18T07:40:55Z</time>
      </trkpt>
      <trkpt lat="43.799715992063284" lon="6.438050977885723">
        <ele>649.02999999999997</ele>
        <time>2025-05-18T07:40:56Z</time>
      </trkpt>
      <trkpt lat="43.799825962632895" lon="6.438165977597237">
        <ele>648.54999999999995</ele>
        <time>2025-05-18T07:40:57Z</time>
      </trkpt>
      <trkpt lat="43.799936017021537" lon="6.43828097730875">
        <ele>648.54999999999995</ele>
        <time>2025-05-18T07:40:58Z</time>
      </trkpt>
      <trkpt lat="43.800049005076289" lon="6.438395977020264">
        <ele>647.59000000000003</ele>
        <time>2025-05-18T07:40:59Z</time>
      </trkpt>
      <trkpt lat="43.800160987302661" lon="6.438395977020264">
        <ele>647.59000000000003</ele>
        <time>2025-05-18T07:41:00Z</time>
      </trkpt>
      <trkpt lat="43.800301970914006" lon="6.438395977020264">
        <ele>647.10000000000002</ele>
        <time>2025-05-18T07:41:01Z</time>
      </trkpt>
      <trkpt lat="43.800398027524352" lon="6.438352977856994">
        <ele>646.62</ele>
        <time>2025-05-18T07:41:02Z</time>
      </trkpt>
      <trkpt lat="43.800538005307317" lon="6.438289023935795">
        <ele>645.65999999999997</ele>
        <time>2025-05-18T07:41:03Z</time>
      </trkpt>
      <trkpt lat="43.80153302103281" lon="6.437889961525798">
        <ele>642.77999999999997</ele>
        <time>2025-05-18T07:41:09Z</time>
      </trkpt>
      <trkpt lat="43.802581010386348" lon="6.43774101510644">
        <ele>640.86000000000001</ele>
        <time>2025-05-18T07:41:15Z</time>
      </trkpt>
      <trkpt lat="43.802727023139596" lon="6.437757024541497">
        <ele>640.86000000000001</ele>
        <time>2025-05-18T07:41:16Z</time>
      </trkpt>
      <trkpt lat="43.803114015609026" lon="6.437816033139825">
        <ele>640.38</ele>
        <time>2025-05-18T07:41:19Z</time>
      </trkpt>
      <trkpt lat="43.803340997546911" lon="6.437923992052674">
        <ele>639.40999999999997</ele>
        <time>2025-05-18T07:41:21Z</time>
      </trkpt>
      <trkpt lat="43.803451973944902" lon="6.437976965680718">
        <ele>639.40999999999997</ele>
        <time>2025-05-18T07:41:22Z</time>
      </trkpt>
      <trkpt lat="43.804150018841028" lon="6.438480969518423">
        <ele>638.45000000000005</ele>
        <time>2025-05-18T07:41:29Z</time>
      </trkpt>
      <trkpt lat="43.804211039096117" lon="6.438577026128769">
        <ele>638.45000000000005</ele>
        <time>2025-05-18T07:41:30Z</time>
      </trkpt>
      <trkpt lat="43.804257977753878" lon="6.438702000305057">
        <ele>638.45000000000005</ele>
        <time>2025-05-18T07:41:31Z</time>
      </trkpt>
      <trkpt lat="43.804283961653709" lon="6.438854970037937">
        <ele>638.45000000000005</ele>
        <time>2025-05-18T07:41:32Z</time>
      </trkpt>
      <trkpt lat="43.804302988573909" lon="6.439033001661301">
        <ele>638.45000000000005</ele>
        <time>2025-05-18T07:41:33Z</time>
      </trkpt>
      <trkpt lat="43.804324027150869" lon="6.43922402523458">
        <ele>638.92999999999995</ele>
        <time>2025-05-18T07:41:34Z</time>
      </trkpt>
      <trkpt lat="43.804331989958882" lon="6.439420999959111">
        <ele>638.92999999999995</ele>
        <time>2025-05-18T07:41:35Z</time>
      </trkpt>
      <trkpt lat="43.804321009665728" lon="6.439628032967448">
        <ele>638.92999999999995</ele>
        <time>2025-05-18T07:41:36Z</time>
      </trkpt>
      <trkpt lat="43.804271975532174" lon="6.440541995689273">
        <ele>640.38</ele>
        <time>2025-05-18T07:41:41Z</time>
      </trkpt>
      <trkpt lat="43.804314974695444" lon="6.440742993727326">
        <ele>640.38</ele>
        <time>2025-05-18T07:41:42Z</time>
      </trkpt>
      <trkpt lat="43.804353028535843" lon="6.440863022580743">
        <ele>640.38</ele>
        <time>2025-05-18T07:41:43Z</time>
      </trkpt>
      <trkpt lat="43.804422011598945" lon="6.440950026735663">
        <ele>640.86000000000001</ele>
        <time>2025-05-18T07:41:44Z</time>
      </trkpt>
      <trkpt lat="43.804509015753865" lon="6.440978022292256">
        <ele>641.34000000000003</ele>
        <time>2025-05-18T07:41:45Z</time>
      </trkpt>
      <trkpt lat="43.804614963009953" lon="6.441013980656862">
        <ele>641.34000000000003</ele>
        <time>2025-05-18T07:41:46Z</time>
      </trkpt>
      <trkpt lat="43.804679000750184" lon="6.440981961786747">
        <ele>641.82000000000005</ele>
        <time>2025-05-18T07:41:47Z</time>
      </trkpt>
      <trkpt lat="43.804786959663033" lon="6.440927982330322">
        <ele>641.82000000000005</ele>
        <time>2025-05-18T07:41:48Z</time>
      </trkpt>
      <trkpt lat="43.804850997403264" lon="6.440863022580743">
        <ele>641.82000000000005</ele>
        <time>2025-05-18T07:41:49Z</time>
      </trkpt>
      <trkpt lat="43.804926015436649" lon="6.440789010375738">
        <ele>641.82000000000005</ele>
        <time>2025-05-18T07:41:50Z</time>
      </trkpt>
      <trkpt lat="43.804998015984893" lon="6.440717009827495">
        <ele>641.82000000000005</ele>
        <time>2025-05-18T07:41:51Z</time>
      </trkpt>
      <trkpt lat="43.805050989612937" lon="6.440641991794109">
        <ele>641.82000000000005</ele>
        <time>2025-05-18T07:41:52Z</time>
      </trkpt>
      <trkpt lat="43.805103963240981" lon="6.440549958497286">
        <ele>641.82000000000005</ele>
        <time>2025-05-18T07:41:53Z</time>
      </trkpt>
      <trkpt lat="43.805154003202915" lon="6.440462032333016">
        <ele>641.82000000000005</ele>
        <time>2025-05-18T07:41:54Z</time>
      </trkpt>
      <trkpt lat="43.805203037336469" lon="6.440377039834857">
        <ele>641.34000000000003</ele>
        <time>2025-05-18T07:41:55Z</time>
      </trkpt>
      <trkpt lat="43.805246958509088" lon="6.440300010144711">
        <ele>641.34000000000003</ele>
        <time>2025-05-18T07:41:56Z</time>
      </trkpt>
      <trkpt lat="43.805360030382872" lon="6.440177969634533">
        <ele>641.34000000000003</ele>
        <time>2025-05-18T07:41:58Z</time>
      </trkpt>
      <trkpt lat="43.805418033152819" lon="6.440131030976772">
        <ele>641.34000000000003</ele>
        <time>2025-05-18T07:41:59Z</time>
      </trkpt>
      <trkpt lat="43.805494979023933" lon="6.440070010721684">
        <ele>641.34000000000003</ele>
        <time>2025-05-18T07:42:00Z</time>
      </trkpt>
      <trkpt lat="43.805519035086036" lon="6.4400639757514">
        <ele>641.34000000000003</ele>
        <time>2025-05-18T07:42:01Z</time>
      </trkpt>
      <trkpt lat="43.805560022592545" lon="6.440054001286626">
        <ele>641.34000000000003</ele>
        <time>2025-05-18T07:42:02Z</time>
      </trkpt>
      <trkpt lat="43.805592963472009" lon="6.440045032650232">
        <ele>641.34000000000003</ele>
        <time>2025-05-18T07:42:03Z</time>
      </trkpt>
      <trkpt lat="43.805719027295709" lon="6.440187022089958">
        <ele>641.82000000000005</ele>
        <time>2025-05-18T07:42:04Z</time>
      </trkpt>
      <trkpt lat="43.805710980668664" lon="6.44023303873837">
        <ele>641.82000000000005</ele>
        <time>2025-05-18T07:42:05Z</time>
      </trkpt>
      <trkpt lat="43.805697988718748" lon="6.440303027629852">
        <ele>641.82000000000005</ele>
        <time>2025-05-18T07:42:06Z</time>
      </trkpt>
      <trkpt lat="43.80568197928369" lon="6.440391959622502">
        <ele>641.82000000000005</ele>
        <time>2025-05-18T07:42:07Z</time>
      </trkpt>
      <trkpt lat="43.805663958191872" lon="6.440494973212481">
        <ele>642.29999999999995</ele>
        <time>2025-05-18T07:42:08Z</time>
      </trkpt>
      <trkpt lat="43.80563797429204" lon="6.44070602953434">
        <ele>642.29999999999995</ele>
        <time>2025-05-18T07:42:10Z</time>
      </trkpt>
      <trkpt lat="43.805624982342124" lon="6.440808959305286">
        <ele>641.82000000000005</ele>
        <time>2025-05-18T07:42:11Z</time>
      </trkpt>
      <trkpt lat="43.805562034249306" lon="6.441490994766355">
        <ele>641.82000000000005</ele>
        <time>2025-05-18T07:42:18Z</time>
      </trkpt>
      <trkpt lat="43.805473018437624" lon="6.441587973386049">
        <ele>641.82000000000005</ele>
        <time>2025-05-18T07:42:19Z</time>
      </trkpt>
      <trkpt lat="43.805378973484039" lon="6.44167497754097">
        <ele>641.82000000000005</ele>
        <time>2025-05-18T07:42:20Z</time>
      </trkpt>
      <trkpt lat="43.805150985717773" lon="6.441872958093882">
        <ele>641.34000000000003</ele>
        <time>2025-05-18T07:42:22Z</time>
      </trkpt>
      <trkpt lat="43.804720994085073" lon="6.442122990265489">
        <ele>638.92999999999995</ele>
        <time>2025-05-18T07:42:25Z</time>
      </trkpt>
      <trkpt lat="43.804556960240006" lon="6.442176969721913">
        <ele>638.45000000000005</ele>
        <time>2025-05-18T07:42:26Z</time>
      </trkpt>
      <trkpt lat="43.804387981072068" lon="6.44223396666348">
        <ele>637.49000000000001</ele>
        <time>2025-05-18T07:42:27Z</time>
      </trkpt>
      <trkpt lat="43.804223025217652" lon="6.442243019118905">
        <ele>636.52999999999997</ele>
        <time>2025-05-18T07:42:28Z</time>
      </trkpt>
      <trkpt lat="43.804084975272417" lon="6.442219968885183">
        <ele>635.57000000000005</ele>
        <time>2025-05-18T07:42:29Z</time>
      </trkpt>
      <trkpt lat="43.804021021351218" lon="6.442178981378675">
        <ele>634.13</ele>
        <time>2025-05-18T07:42:30Z</time>
      </trkpt>
      <trkpt lat="43.803966036066413" lon="6.442118966951966">
        <ele>633.64999999999998</ele>
        <time>2025-05-18T07:42:31Z</time>
      </trkpt>
      <trkpt lat="43.803907027468085" lon="6.442001033574343">
        <ele>632.67999999999995</ele>
        <time>2025-05-18T07:42:32Z</time>
      </trkpt>
      <trkpt lat="43.803881965577602" lon="6.441869018599391">
        <ele>631.72000000000003</ele>
        <time>2025-05-18T07:42:33Z</time>
      </trkpt>
      <trkpt lat="43.803850030526519" lon="6.44169601611793">
        <ele>631.24000000000001</ele>
        <time>2025-05-18T07:42:34Z</time>
      </trkpt>
      <trkpt lat="43.803810970857739" lon="6.441490994766355">
        <ele>630.27999999999997</ele>
        <time>2025-05-18T07:42:35Z</time>
      </trkpt>
      <trkpt lat="43.803771995007992" lon="6.441279016435146">
        <ele>629.79999999999995</ele>
        <time>2025-05-18T07:42:36Z</time>
      </trkpt>
      <trkpt lat="43.803707035258412" lon="6.440855981782079">
        <ele>629.32000000000005</ele>
        <time>2025-05-18T07:42:38Z</time>
      </trkpt>
      <trkpt lat="43.803693959489465" lon="6.440636962652206">
        <ele>629.32000000000005</ele>
        <time>2025-05-18T07:42:39Z</time>
      </trkpt>
      <trkpt lat="43.803669987246394" lon="6.440232032909989">
        <ele>628.84000000000003</ele>
        <time>2025-05-18T07:42:41Z</time>
      </trkpt>
      <trkpt lat="43.80366001278162" lon="6.440049977973104">
        <ele>628.84000000000003</ele>
        <time>2025-05-18T07:42:42Z</time>
      </trkpt>
      <trkpt lat="43.803626988083124" lon="6.439845962449908">
        <ele>628.36000000000001</ele>
        <time>2025-05-18T07:42:43Z</time>
      </trkpt>
      <trkpt lat="43.803534032776952" lon="6.439717970788479">
        <ele>628.36000000000001</ele>
        <time>2025-05-18T07:42:44Z</time>
      </trkpt>
      <trkpt lat="43.803436970338225" lon="6.439584027975798">
        <ele>628.84000000000003</ele>
        <time>2025-05-18T07:42:45Z</time>
      </trkpt>
      <trkpt lat="43.803239995613694" lon="6.439311029389501">
        <ele>629.79999999999995</ele>
        <time>2025-05-18T07:42:47Z</time>
      </trkpt>
      <trkpt lat="43.803107980638742" lon="6.439212961122394">
        <ele>630.27999999999997</ele>
        <time>2025-05-18T07:42:48Z</time>
      </trkpt>
      <trkpt lat="43.802978983148932" lon="6.439153030514717">
        <ele>630.75999999999999</ele>
        <time>2025-05-18T07:42:49Z</time>
      </trkpt>
      <trkpt lat="43.80284302867949" lon="6.439126040786505">
        <ele>630.75999999999999</ele>
        <time>2025-05-18T07:42:50Z</time>
      </trkpt>
      <trkpt lat="43.802709002047777" lon="6.439156970009208">
        <ele>631.24000000000001</ele>
        <time>2025-05-18T07:42:51Z</time>
      </trkpt>
      <trkpt lat="43.802580004557967" lon="6.439207009971142">
        <ele>631.24000000000001</ele>
        <time>2025-05-18T07:42:52Z</time>
      </trkpt>
      <trkpt lat="43.802445977926254" lon="6.439292002469301">
        <ele>631.24000000000001</ele>
        <time>2025-05-18T07:42:53Z</time>
      </trkpt>
      <trkpt lat="43.802323015406728" lon="6.439402978867292">
        <ele>631.24000000000001</ele>
        <time>2025-05-18T07:42:54Z</time>
      </trkpt>
      <trkpt lat="43.802196029573679" lon="6.439517978578806">
        <ele>631.24000000000001</ele>
        <time>2025-05-18T07:42:55Z</time>
      </trkpt>
      <trkpt lat="43.802066026255488" lon="6.439635995775461">
        <ele>631.24000000000001</ele>
        <time>2025-05-18T07:42:56Z</time>
      </trkpt>
      <trkpt lat="43.801924958825111" lon="6.439703973010182">
        <ele>631.24000000000001</ele>
        <time>2025-05-18T07:42:57Z</time>
      </trkpt>
      <trkpt lat="43.801779029890895" lon="6.439772034063935">
        <ele>631.24000000000001</ele>
        <time>2025-05-18T07:42:58Z</time>
      </trkpt>
      <trkpt lat="43.801632011309266" lon="6.439787959679961">
        <ele>631.24000000000001</ele>
        <time>2025-05-18T07:42:59Z</time>
      </trkpt>
      <trkpt lat="43.80146998912096" lon="6.43978301435709">
        <ele>631.24000000000001</ele>
        <time>2025-05-18T07:43:00Z</time>
      </trkpt>
      <trkpt lat="43.801298998296261" lon="6.439777985215187">
        <ele>631.24000000000001</ele>
        <time>2025-05-18T07:43:01Z</time>
      </trkpt>
      <trkpt lat="43.80095299333334" lon="6.439775973558426">
        <ele>631.24000000000001</ele>
        <time>2025-05-18T07:43:03Z</time>
      </trkpt>
      <trkpt lat="43.800798011943698" lon="6.439804974943399">
        <ele>631.72000000000003</ele>
        <time>2025-05-18T07:43:04Z</time>
      </trkpt>
      <trkpt lat="43.800640013068914" lon="6.439837999641895">
        <ele>631.72000000000003</ele>
        <time>2025-05-18T07:43:05Z</time>
      </trkpt>
      <trkpt lat="43.800514033064246" lon="6.439950987696648">
        <ele>631.72000000000003</ele>
        <time>2025-05-18T07:43:06Z</time>
      </trkpt>
      <trkpt lat="43.800415964797139" lon="6.440077973529697">
        <ele>632.20000000000005</ele>
        <time>2025-05-18T07:43:07Z</time>
      </trkpt>
      <trkpt lat="43.800319992005825" lon="6.440214011818171">
        <ele>632.20000000000005</ele>
        <time>2025-05-18T07:43:08Z</time>
      </trkpt>
      <trkpt lat="43.800282021984458" lon="6.440374022349715">
        <ele>632.67999999999995</ele>
        <time>2025-05-18T07:43:09Z</time>
      </trkpt>
      <trkpt lat="43.80024204030633" lon="6.440545013174415">
        <ele>633.16999999999996</ele>
        <time>2025-05-18T07:43:10Z</time>
      </trkpt>
      <trkpt lat="43.800200968980789" lon="6.440719021484256">
        <ele>633.64999999999998</ele>
        <time>2025-05-18T07:43:11Z</time>
      </trkpt>
      <trkpt lat="43.800160987302661" lon="6.440888000652194">
        <ele>634.13</ele>
        <time>2025-05-18T07:43:12Z</time>
      </trkpt>
      <trkpt lat="43.800083035603166" lon="6.441005012020469">
        <ele>634.13</ele>
        <time>2025-05-18T07:43:13Z</time>
      </trkpt>
      <trkpt lat="43.79998697899282" lon="6.441110959276557">
        <ele>633.64999999999998</ele>
        <time>2025-05-18T07:43:14Z</time>
      </trkpt>
      <trkpt lat="43.799873990938067" lon="6.441145995631814">
        <ele>633.64999999999998</ele>
        <time>2025-05-18T07:43:15Z</time>
      </trkpt>
      <trkpt lat="43.799736024811864" lon="6.441152030602098">
        <ele>633.16999999999996</ele>
        <time>2025-05-18T07:43:16Z</time>
      </trkpt>
      <trkpt lat="43.799607027322054" lon="6.441157981753349">
        <ele>632.67999999999995</ele>
        <time>2025-05-18T07:43:17Z</time>
      </trkpt>
      <trkpt lat="43.799462020397186" lon="6.441167034208775">
        <ele>632.67999999999995</ele>
        <time>2025-05-18T07:43:18Z</time>
      </trkpt>
      <trkpt lat="43.799350960180163" lon="6.441250015050173">
        <ele>632.20000000000005</ele>
        <time>2025-05-18T07:43:19Z</time>
      </trkpt>
      <trkpt lat="43.79923596046865" lon="6.441336013376713">
        <ele>631.72000000000003</ele>
        <time>2025-05-18T07:43:20Z</time>
      </trkpt>
      <trkpt lat="43.799102017655969" lon="6.441374989226461">
        <ele>631.24000000000001</ele>
        <time>2025-05-18T07:43:21Z</time>
      </trkpt>
      <trkpt lat="43.798950975760818" lon="6.441401978954673">
        <ele>631.24000000000001</ele>
        <time>2025-05-18T07:43:22Z</time>
      </trkpt>
      <trkpt lat="43.79880596883595" lon="6.441427040845156">
        <ele>631.24000000000001</ele>
        <time>2025-05-18T07:43:23Z</time>
      </trkpt>
      <trkpt lat="43.798649981617928" lon="6.441462999209762">
        <ele>630.75999999999999</ele>
        <time>2025-05-18T07:43:24Z</time>
      </trkpt>
      <trkpt lat="43.798202974721789" lon="6.441607000306249">
        <ele>630.27999999999997</ele>
        <time>2025-05-18T07:43:27Z</time>
      </trkpt>
      <trkpt lat="43.798075988888741" lon="6.441673971712589">
        <ele>629.79999999999995</ele>
        <time>2025-05-18T07:43:28Z</time>
      </trkpt>
      <trkpt lat="43.797992002218962" lon="6.44180104136467">
        <ele>629.32000000000005</ele>
        <time>2025-05-18T07:43:29Z</time>
      </trkpt>
      <trkpt lat="43.797954032197595" lon="6.44195300526917">
        <ele>629.32000000000005</ele>
        <time>2025-05-18T07:43:30Z</time>
      </trkpt>
      <trkpt lat="43.797920001670718" lon="6.442087031900883">
        <ele>629.79999999999995</ele>
        <time>2025-05-18T07:43:31Z</time>
      </trkpt>
      <trkpt lat="43.797952020540833" lon="6.44223497249186">
        <ele>630.27999999999997</ele>
        <time>2025-05-18T07:43:32Z</time>
      </trkpt>
      <trkpt lat="43.797985967248678" lon="6.442388026043773">
        <ele>630.27999999999997</ele>
        <time>2025-05-18T07:43:33Z</time>
      </trkpt>
      <trkpt lat="43.798023015260696" lon="6.442560022696853">
        <ele>630.75999999999999</ele>
        <time>2025-05-18T07:43:34Z</time>
      </trkpt>
      <trkpt lat="43.798015974462032" lon="6.442752974107862">
        <ele>631.72000000000003</ele>
        <time>2025-05-18T07:43:35Z</time>
      </trkpt>
      <trkpt lat="43.798005999997258" lon="6.442902004346252">
        <ele>632.67999999999995</ele>
        <time>2025-05-18T07:43:36Z</time>
      </trkpt>
      <trkpt lat="43.797914972528815" lon="6.443060003221035">
        <ele>634.13</ele>
        <time>2025-05-18T07:43:37Z</time>
      </trkpt>
      <trkpt lat="43.797826040536165" lon="6.443212972953916">
        <ele>634.61000000000001</ele>
        <time>2025-05-18T07:43:38Z</time>
      </trkpt>
      <trkpt lat="43.797713974490762" lon="6.443360997363925">
        <ele>635.57000000000005</ele>
        <time>2025-05-18T07:43:39Z</time>
      </trkpt>
      <trkpt lat="43.797577014192939" lon="6.443486977368593">
        <ele>636.04999999999995</ele>
        <time>2025-05-18T07:43:40Z</time>
      </trkpt>
      <trkpt lat="43.797425972297788" lon="6.443609017878771">
        <ele>637.00999999999999</ele>
        <time>2025-05-18T07:43:41Z</time>
      </trkpt>
      <trkpt lat="43.797271996736526" lon="6.443722005933523">
        <ele>637.49000000000001</ele>
        <time>2025-05-18T07:43:42Z</time>
      </trkpt>
      <trkpt lat="43.79712900146842" lon="6.443856032565236">
        <ele>637.97000000000003</ele>
        <time>2025-05-18T07:43:43Z</time>
      </trkpt>
      <trkpt lat="43.796861032024026" lon="6.444180998951197">
        <ele>638.92999999999995</ele>
        <time>2025-05-18T07:43:45Z</time>
      </trkpt>
      <trkpt lat="43.79648401401937" lon="6.44459598697722">
        <ele>640.38</ele>
        <time>2025-05-18T07:43:48Z</time>
      </trkpt>
      <trkpt lat="43.796357028186321" lon="6.444672010838985">
        <ele>640.86000000000001</ele>
        <time>2025-05-18T07:43:49Z</time>
      </trkpt>
      <trkpt lat="43.79624898545444" lon="6.444712998345494">
        <ele>641.34000000000003</ele>
        <time>2025-05-18T07:43:50Z</time>
      </trkpt>
      <trkpt lat="43.796138009056449" lon="6.444732025265694">
        <ele>641.34000000000003</ele>
        <time>2025-05-18T07:43:51Z</time>
      </trkpt>
      <trkpt lat="43.796068020164967" lon="6.444680979475379">
        <ele>641.82000000000005</ele>
        <time>2025-05-18T07:43:52Z</time>
      </trkpt>
      <trkpt lat="43.795980010181665" lon="6.444572014734149">
        <ele>641.82000000000005</ele>
        <time>2025-05-18T07:43:53Z</time>
      </trkpt>
      <trkpt lat="43.795916978269815" lon="6.444409992545843">
        <ele>641.34000000000003</ele>
        <time>2025-05-18T07:43:54Z</time>
      </trkpt>
      <trkpt lat="43.795880014076829" lon="6.444234978407621">
        <ele>640.86000000000001</ele>
        <time>2025-05-18T07:43:55Z</time>
      </trkpt>
      <trkpt lat="43.795840032398701" lon="6.44401696510613">
        <ele>640.38</ele>
        <time>2025-05-18T07:43:56Z</time>
      </trkpt>
      <trkpt lat="43.795846989378333" lon="6.44382200203836">
        <ele>640.38</ele>
        <time>2025-05-18T07:43:57Z</time>
      </trkpt>
      <trkpt lat="43.795854030176997" lon="6.443636007606983">
        <ele>639.88999999999999</ele>
        <time>2025-05-18T07:43:58Z</time>
      </trkpt>
      <trkpt lat="43.795855036005378" lon="6.443472979590297">
        <ele>639.88999999999999</ele>
        <time>2025-05-18T07:43:59Z</time>
      </trkpt>
      <trkpt lat="43.79579502157867" lon="6.443377006798983">
        <ele>640.38</ele>
        <time>2025-05-18T07:44:00Z</time>
      </trkpt>
      <trkpt lat="43.795726038515568" lon="6.443293020129204">
        <ele>640.38</ele>
        <time>2025-05-18T07:44:01Z</time>
      </trkpt>
      <trkpt lat="43.795640962198377" lon="6.443239962682128">
        <ele>640.86000000000001</ele>
        <time>2025-05-18T07:44:02Z</time>
      </trkpt>
      <trkpt lat="43.795542977750301" lon="6.443193024024367">
        <ele>642.29999999999995</ele>
        <time>2025-05-18T07:44:03Z</time>
      </trkpt>
      <trkpt lat="43.794562965631485" lon="6.442884989082813">
        <ele>656.24000000000001</ele>
        <time>2025-05-18T07:44:11Z</time>
      </trkpt>
      <trkpt lat="43.794000037014484" lon="6.442553987726569">
        <ele>661.51999999999998</ele>
        <time>2025-05-18T07:44:15Z</time>
      </trkpt>
      <trkpt lat="43.793857041746378" lon="6.442502019926906">
        <ele>662.49000000000001</ele>
        <time>2025-05-18T07:44:16Z</time>
      </trkpt>
      <trkpt lat="43.793713040649891" lon="6.442456003278494">
        <ele>662.97000000000003</ele>
        <time>2025-05-18T07:44:17Z</time>
      </trkpt>
      <trkpt lat="43.793559987097979" lon="6.442442005500197">
        <ele>663.45000000000005</ele>
        <time>2025-05-18T07:44:18Z</time>
      </trkpt>
      <trkpt lat="43.79341296851635" lon="6.442467989400029">
        <ele>663.45000000000005</ele>
        <time>2025-05-18T07:44:19Z</time>
      </trkpt>
      <trkpt lat="43.793264022096992" lon="6.442493973299861">
        <ele>662.97000000000003</ele>
        <time>2025-05-18T07:44:20Z</time>
      </trkpt>
      <trkpt lat="43.793136030435562" lon="6.442581983283162">
        <ele>662.49000000000001</ele>
        <time>2025-05-18T07:44:21Z</time>
      </trkpt>
      <trkpt lat="43.793005021288991" lon="6.442672004923224">
        <ele>662.00999999999999</ele>
        <time>2025-05-18T07:44:22Z</time>
      </trkpt>
      <trkpt lat="43.792865965515375" lon="6.442766971886158">
        <ele>661.03999999999996</ele>
        <time>2025-05-18T07:44:23Z</time>
      </trkpt>
      <trkpt lat="43.792720036581159" lon="6.442819023504853">
        <ele>660.55999999999995</ele>
        <time>2025-05-18T07:44:24Z</time>
      </trkpt>
      <trkpt lat="43.792568994686007" lon="6.442831009626389">
        <ele>660.55999999999995</ele>
        <time>2025-05-18T07:44:25Z</time>
      </trkpt>
      <trkpt lat="43.792396998032928" lon="6.442818017676473">
        <ele>661.03999999999996</ele>
        <time>2025-05-18T07:44:26Z</time>
      </trkpt>
      <trkpt lat="43.792220978066325" lon="6.442804019898176">
        <ele>661.51999999999998</ele>
        <time>2025-05-18T07:44:27Z</time>
      </trkpt>
      <trkpt lat="43.791354959830642" lon="6.442738976329565">
        <ele>665.85000000000002</ele>
        <time>2025-05-18T07:44:32Z</time>
      </trkpt>
      <trkpt lat="43.791208025068045" lon="6.44274802878499">
        <ele>666.33000000000004</ele>
        <time>2025-05-18T07:44:33Z</time>
      </trkpt>
      <trkpt lat="43.791077015921474" lon="6.442806031554937">
        <ele>667.28999999999996</ele>
        <time>2025-05-18T07:44:34Z</time>
      </trkpt>
      <trkpt lat="43.790924968197942" lon="6.442945003509522">
        <ele>668.25</ele>
        <time>2025-05-18T07:44:35Z</time>
      </trkpt>
      <trkpt lat="43.790838969871402" lon="6.443061009049416">
        <ele>669.22000000000003</ele>
        <time>2025-05-18T07:44:36Z</time>
      </trkpt>
      <trkpt lat="43.790722964331508" lon="6.443218002095819">
        <ele>669.70000000000005</ele>
        <time>2025-05-18T07:44:37Z</time>
      </trkpt>
      <trkpt lat="43.790243016555905" lon="6.443868018686771">
        <ele>672.58000000000004</ele>
        <time>2025-05-18T07:44:41Z</time>
      </trkpt>
      <trkpt lat="43.790107984095812" lon="6.443972960114479">
        <ele>673.05999999999995</ele>
        <time>2025-05-18T07:44:42Z</time>
      </trkpt>
      <trkpt lat="43.789969012141228" lon="6.44403800368309">
        <ele>673.53999999999996</ele>
        <time>2025-05-18T07:44:43Z</time>
      </trkpt>
      <trkpt lat="43.789815036579967" lon="6.444075973704457">
        <ele>674.5</ele>
        <time>2025-05-18T07:44:44Z</time>
      </trkpt>
      <trkpt lat="43.789647985249758" lon="6.444058958441019">
        <ele>675.46000000000004</ele>
        <time>2025-05-18T07:44:45Z</time>
      </trkpt>
      <trkpt lat="43.789057983085513" lon="6.443997016176581">
        <ele>678.35000000000002</ele>
        <time>2025-05-18T07:44:49Z</time>
      </trkpt>
      <trkpt lat="43.78892102278769" lon="6.443840023130179">
        <ele>678.83000000000004</ele>
        <time>2025-05-18T07:44:50Z</time>
      </trkpt>
      <trkpt lat="43.788804011419415" lon="6.443707002326846">
        <ele>679.78999999999996</ele>
        <time>2025-05-18T07:44:51Z</time>
      </trkpt>
      <trkpt lat="43.788585998117924" lon="6.443459987640381">
        <ele>681.23000000000002</ele>
        <time>2025-05-18T07:44:53Z</time>
      </trkpt>
      <trkpt lat="43.788435962051153" lon="6.443378012627363">
        <ele>682.19000000000005</ele>
        <time>2025-05-18T07:44:54Z</time>
      </trkpt>
      <trkpt lat="43.788295984268188" lon="6.443335013464093">
        <ele>683.14999999999998</ele>
        <time>2025-05-18T07:44:55Z</time>
      </trkpt>
      <trkpt lat="43.788150977343321" lon="6.443345993757248">
        <ele>683.63</ele>
        <time>2025-05-18T07:44:56Z</time>
      </trkpt>
      <trkpt lat="43.787991972640157" lon="6.443357979878783">
        <ele>684.60000000000002</ele>
        <time>2025-05-18T07:44:57Z</time>
      </trkpt>
      <trkpt lat="43.786548022180796" lon="6.443472979590297">
        <ele>690.36000000000001</ele>
        <time>2025-05-18T07:45:05Z</time>
      </trkpt>
      <trkpt lat="43.786002025008202" lon="6.443566018715501">
        <ele>691.80999999999995</ele>
        <time>2025-05-18T07:45:09Z</time>
      </trkpt>
      <trkpt lat="43.785887025296688" lon="6.443601977080107">
        <ele>691.80999999999995</ele>
        <time>2025-05-18T07:45:10Z</time>
      </trkpt>
      <trkpt lat="43.785797003656626" lon="6.443674983456731">
        <ele>691.80999999999995</ele>
        <time>2025-05-18T07:45:11Z</time>
      </trkpt>
      <trkpt lat="43.785733971744776" lon="6.44380004145205">
        <ele>691.80999999999995</ele>
        <time>2025-05-18T07:45:12Z</time>
      </trkpt>
      <trkpt lat="43.785686027258635" lon="6.44393096677959">
        <ele>691.80999999999995</ele>
        <time>2025-05-18T07:45:13Z</time>
      </trkpt>
      <trkpt lat="43.785672029480338" lon="6.444087037816644">
        <ele>692.28999999999996</ele>
        <time>2025-05-18T07:45:14Z</time>
      </trkpt>
      <trkpt lat="43.785657025873661" lon="6.444258028641343">
        <ele>692.28999999999996</ele>
        <time>2025-05-18T07:45:15Z</time>
      </trkpt>
      <trkpt lat="43.785547977313399" lon="6.445213984698057">
        <ele>695.16999999999996</ele>
        <time>2025-05-18T07:45:20Z</time>
      </trkpt>
      <trkpt lat="43.785497015342116" lon="6.445367960259318">
        <ele>695.64999999999998</ele>
        <time>2025-05-18T07:45:21Z</time>
      </trkpt>
      <trkpt lat="43.785431971773505" lon="6.445535011589527">
        <ele>696.61000000000001</ele>
        <time>2025-05-18T07:45:22Z</time>
      </trkpt>
      <trkpt lat="43.785315966233611" lon="6.445685969665647">
        <ele>696.61000000000001</ele>
        <time>2025-05-18T07:45:23Z</time>
      </trkpt>
      <trkpt lat="43.785195015370846" lon="6.445773979648948">
        <ele>697.09000000000003</ele>
        <time>2025-05-18T07:45:24Z</time>
      </trkpt>
      <trkpt lat="43.785042967647314" lon="6.445839023217559">
        <ele>697.09000000000003</ele>
        <time>2025-05-18T07:45:25Z</time>
      </trkpt>
      <trkpt lat="43.784894021227956" lon="6.445870958268642">
        <ele>697.09000000000003</ele>
        <time>2025-05-18T07:45:26Z</time>
      </trkpt>
      <trkpt lat="43.784721018746495" lon="6.445870958268642">
        <ele>697.09000000000003</ele>
        <time>2025-05-18T07:45:27Z</time>
      </trkpt>
      <trkpt lat="43.784057004377246" lon="6.445804992690682">
        <ele>698.04999999999995</ele>
        <time>2025-05-18T07:45:31Z</time>
      </trkpt>
      <trkpt lat="43.783699013292789" lon="6.445710025727749">
        <ele>699.01999999999998</ele>
        <time>2025-05-18T07:45:33Z</time>
      </trkpt>
      <trkpt lat="43.782967021688819" lon="6.44556200131774">
        <ele>700.94000000000005</ele>
        <time>2025-05-18T07:45:37Z</time>
      </trkpt>
      <trkpt lat="43.782424964010715" lon="6.44543400965631">
        <ele>702.86000000000001</ele>
        <time>2025-05-18T07:45:40Z</time>
      </trkpt>
      <trkpt lat="43.782063033431768" lon="6.445299983024597">
        <ele>703.34000000000003</ele>
        <time>2025-05-18T07:45:42Z</time>
      </trkpt>
      <trkpt lat="43.78125099465251" lon="6.444838978350163">
        <ele>706.23000000000002</ele>
        <time>2025-05-18T07:45:47Z</time>
      </trkpt>
      <trkpt lat="43.78110196441412" lon="6.444723978638649">
        <ele>706.23000000000002</ele>
        <time>2025-05-18T07:45:48Z</time>
      </trkpt>
      <trkpt lat="43.780828965827823" lon="6.444516023620963">
        <ele>707.19000000000005</ele>
        <time>2025-05-18T07:45:50Z</time>
      </trkpt>
      <trkpt lat="43.780711032450199" lon="6.444426001980901">
        <ele>707.19000000000005</ele>
        <time>2025-05-18T07:45:51Z</time>
      </trkpt>
      <trkpt lat="43.780572982504964" lon="6.444457015022636">
        <ele>707.19000000000005</ele>
        <time>2025-05-18T07:45:52Z</time>
      </trkpt>
      <trkpt lat="43.780447002500296" lon="6.444486016407609">
        <ele>706.71000000000004</ele>
        <time>2025-05-18T07:45:53Z</time>
      </trkpt>
      <trkpt lat="43.780346000567079" lon="6.4445969928056">
        <ele>706.23000000000002</ele>
        <time>2025-05-18T07:45:54Z</time>
      </trkpt>
      <trkpt lat="43.780240975320339" lon="6.444728001952171">
        <ele>705.75</ele>
        <time>2025-05-18T07:45:55Z</time>
      </trkpt>
      <trkpt lat="43.780127987265587" lon="6.444868985563517">
        <ele>705.25999999999999</ele>
        <time>2025-05-18T07:45:56Z</time>
      </trkpt>
      <trkpt lat="43.779773013666272" lon="6.445211973041296">
        <ele>703.82000000000005</ele>
        <time>2025-05-18T07:45:59Z</time>
      </trkpt>
      <trkpt lat="43.779634041711688" lon="6.445277016609907">
        <ele>702.86000000000001</ele>
        <time>2025-05-18T07:46:00Z</time>
      </trkpt>
      <trkpt lat="43.77957402728498" lon="6.4453050121665">
        <ele>702.38</ele>
        <time>2025-05-18T07:46:01Z</time>
      </trkpt>
      <trkpt lat="43.779436983168125" lon="6.445266036316752">
        <ele>701.41999999999996</ele>
        <time>2025-05-18T07:46:02Z</time>
      </trkpt>
      <trkpt lat="43.77940303646028" lon="6.445237034931779">
        <ele>700.46000000000004</ele>
        <time>2025-05-18T07:46:03Z</time>
      </trkpt>
      <trkpt lat="43.77931603230536" lon="6.445134021341801">
        <ele>699.01999999999998</ele>
        <time>2025-05-18T07:46:04Z</time>
      </trkpt>
      <trkpt lat="43.779311003163457" lon="6.445067971944809">
        <ele>698.52999999999997</ele>
        <time>2025-05-18T07:46:05Z</time>
      </trkpt>
      <trkpt lat="43.779298011213541" lon="6.444923970848322">
        <ele>698.04999999999995</ele>
        <time>2025-05-18T07:46:06Z</time>
      </trkpt>
      <trkpt lat="43.779285019263625" lon="6.444765971973538">
        <ele>697.57000000000005</ele>
        <time>2025-05-18T07:46:07Z</time>
      </trkpt>
      <trkpt lat="43.779251994565129" lon="6.444609984755516">
        <ele>697.09000000000003</ele>
        <time>2025-05-18T07:46:08Z</time>
      </trkpt>
      <trkpt lat="43.779151998460293" lon="6.44448802806437">
        <ele>696.61000000000001</ele>
        <time>2025-05-18T07:46:09Z</time>
      </trkpt>
      <trkpt lat="43.779036998748779" lon="6.444469001144171">
        <ele>696.61000000000001</ele>
        <time>2025-05-18T07:46:10Z</time>
      </trkpt>
      <trkpt lat="43.778929961845279" lon="6.444501020014286">
        <ele>695.64999999999998</ele>
        <time>2025-05-18T07:46:11Z</time>
      </trkpt>
      <trkpt lat="43.778811022639275" lon="6.444537984207273">
        <ele>695.16999999999996</ele>
        <time>2025-05-18T07:46:12Z</time>
      </trkpt>
      <trkpt lat="43.77867397852242" lon="6.444579977542162">
        <ele>694.21000000000004</ele>
        <time>2025-05-18T07:46:13Z</time>
      </trkpt>
      <trkpt lat="43.778195036575198" lon="6.444738982245326">
        <ele>692.28999999999996</ele>
        <time>2025-05-18T07:46:16Z</time>
      </trkpt>
      <trkpt lat="43.777864035218954" lon="6.444905027747154">
        <ele>690.84000000000003</ele>
        <time>2025-05-18T07:46:18Z</time>
      </trkpt>
      <trkpt lat="43.777689021080732" lon="6.444999994710088">
        <ele>689.88</ele>
        <time>2025-05-18T07:46:19Z</time>
      </trkpt>
      <trkpt lat="43.776522008702159" lon="6.446103975176811">
        <ele>684.60000000000002</ele>
        <time>2025-05-18T07:46:27Z</time>
      </trkpt>
      <trkpt lat="43.776423018425703" lon="6.446240013465285">
        <ele>684.60000000000002</ele>
        <time>2025-05-18T07:46:28Z</time>
      </trkpt>
      <trkpt lat="43.77631195820868" lon="6.44640002399683">
        <ele>684.60000000000002</ele>
        <time>2025-05-18T07:46:29Z</time>
      </trkpt>
      <trkpt lat="43.77626895904541" lon="6.446549976244569">
        <ele>684.60000000000002</ele>
        <time>2025-05-18T07:46:30Z</time>
      </trkpt>
      <trkpt lat="43.776254961267114" lon="6.446693977341056">
        <ele>684.12</ele>
        <time>2025-05-18T07:46:31Z</time>
      </trkpt>
      <trkpt lat="43.776259990409017" lon="6.446881983429194">
        <ele>683.63</ele>
        <time>2025-05-18T07:46:32Z</time>
      </trkpt>
      <trkpt lat="43.776279017329216" lon="6.447078958153725">
        <ele>683.14999999999998</ele>
        <time>2025-05-18T07:46:33Z</time>
      </trkpt>
      <trkpt lat="43.776387982070446" lon="6.447860989719629">
        <ele>682.19000000000005</ele>
        <time>2025-05-18T07:46:37Z</time>
      </trkpt>
      <trkpt lat="43.776429975405335" lon="6.448014965280891">
        <ele>682.19000000000005</ele>
        <time>2025-05-18T07:46:38Z</time>
      </trkpt>
      <trkpt lat="43.776467023417354" lon="6.448152009397745">
        <ele>682.66999999999996</ele>
        <time>2025-05-18T07:46:39Z</time>
      </trkpt>
      <trkpt lat="43.776499964296818" lon="6.448274971917272">
        <ele>682.66999999999996</ele>
        <time>2025-05-18T07:46:40Z</time>
      </trkpt>
      <trkpt lat="43.776527037844062" lon="6.448373962193728">
        <ele>682.19000000000005</ele>
        <time>2025-05-18T07:46:41Z</time>
      </trkpt>
      <trkpt lat="43.776505999267101" lon="6.448502959683538">
        <ele>681.71000000000004</ele>
        <time>2025-05-18T07:46:42Z</time>
      </trkpt>
      <trkpt lat="43.776440033689141" lon="6.448568003252149">
        <ele>680.75</ele>
        <time>2025-05-18T07:46:43Z</time>
      </trkpt>
      <trkpt lat="43.776298966258764" lon="6.448612008243799">
        <ele>680.26999999999998</ele>
        <time>2025-05-18T07:46:44Z</time>
      </trkpt>
      <trkpt lat="43.776200981810689" lon="6.448587030172348">
        <ele>679.78999999999996</ele>
        <time>2025-05-18T07:46:45Z</time>
      </trkpt>
      <trkpt lat="43.776081958785653" lon="6.448558028787375">
        <ele>678.83000000000004</ele>
        <time>2025-05-18T07:46:46Z</time>
      </trkpt>
      <trkpt lat="43.775827987119555" lon="6.448432970792055">
        <ele>677.87</ele>
        <time>2025-05-18T07:46:48Z</time>
      </trkpt>
      <trkpt lat="43.775703012943268" lon="6.448336998000741">
        <ele>677.38999999999999</ele>
        <time>2025-05-18T07:46:49Z</time>
      </trkpt>
      <trkpt lat="43.775574015453458" lon="6.448238007724285">
        <ele>676.41999999999996</ele>
        <time>2025-05-18T07:46:50Z</time>
      </trkpt>
      <trkpt lat="43.775446023792028" lon="6.448143040761352">
        <ele>676.41999999999996</ele>
        <time>2025-05-18T07:46:51Z</time>
      </trkpt>
      <trkpt lat="43.775314008817077" lon="6.448042960837483">
        <ele>675.94000000000005</ele>
        <time>2025-05-18T07:46:52Z</time>
      </trkpt>
      <trkpt lat="43.774217991158366" lon="6.447515990585089">
        <ele>673.05999999999995</ele>
        <time>2025-05-18T07:46:59Z</time>
      </trkpt>
      <trkpt lat="43.77379504032433" lon="6.447369977831841">
        <ele>671.62</ele>
        <time>2025-05-18T07:47:02Z</time>
      </trkpt>
      <trkpt lat="43.773686997592449" lon="6.447430998086929">
        <ele>670.65999999999997</ele>
        <time>2025-05-18T07:47:03Z</time>
      </trkpt>
      <trkpt lat="43.773593036457896" lon="6.447496041655541">
        <ele>670.17999999999995</ele>
        <time>2025-05-18T07:47:04Z</time>
      </trkpt>
      <trkpt lat="43.773530004546046" lon="6.447596037760377">
        <ele>670.17999999999995</ele>
        <time>2025-05-18T07:47:05Z</time>
      </trkpt>
      <trkpt lat="43.773475019261241" lon="6.447721011936665">
        <ele>670.17999999999995</ele>
        <time>2025-05-18T07:47:06Z</time>
      </trkpt>
      <trkpt lat="43.773417016491294" lon="6.447850009426475">
        <ele>670.65999999999997</ele>
        <time>2025-05-18T07:47:07Z</time>
      </trkpt>
      <trkpt lat="43.773354990407825" lon="6.447989987209439">
        <ele>670.17999999999995</ele>
        <time>2025-05-18T07:47:08Z</time>
      </trkpt>
      <trkpt lat="43.773264968767762" lon="6.448127031326294">
        <ele>669.70000000000005</ele>
        <time>2025-05-18T07:47:09Z</time>
      </trkpt>
      <trkpt lat="43.773146029561758" lon="6.448215963318944">
        <ele>669.22000000000003</ele>
        <time>2025-05-18T07:47:10Z</time>
      </trkpt>
      <trkpt lat="43.7730229832232" lon="6.44831201992929">
        <ele>669.22000000000003</ele>
        <time>2025-05-18T07:47:11Z</time>
      </trkpt>
      <trkpt lat="43.772749984636903" lon="6.448545958846808">
        <ele>668.73000000000002</ele>
        <time>2025-05-18T07:47:13Z</time>
      </trkpt>
      <trkpt lat="43.772689970210195" lon="6.448666993528605">
        <ele>668.73000000000002</ele>
        <time>2025-05-18T07:47:14Z</time>
      </trkpt>
      <trkpt lat="43.772616041824222" lon="6.448824992403388">
        <ele>669.22000000000003</ele>
        <time>2025-05-18T07:47:15Z</time>
      </trkpt>
      <trkpt lat="43.77257295884192" lon="6.448990032076836">
        <ele>669.70000000000005</ele>
        <time>2025-05-18T07:47:16Z</time>
      </trkpt>
      <trkpt lat="43.77253096550703" lon="6.449153982102871">
        <ele>669.70000000000005</ele>
        <time>2025-05-18T07:47:17Z</time>
      </trkpt>
      <trkpt lat="43.772489978000522" lon="6.449310975149274">
        <ele>669.70000000000005</ele>
        <time>2025-05-18T07:47:18Z</time>
      </trkpt>
      <trkpt lat="43.772425018250942" lon="6.449428992345929">
        <ele>670.17999999999995</ele>
        <time>2025-05-18T07:47:19Z</time>
      </trkpt>
      <trkpt lat="43.772348994389176" lon="6.449504010379314">
        <ele>670.17999999999995</ele>
        <time>2025-05-18T07:47:20Z</time>
      </trkpt>
      <trkpt lat="43.77229199744761" lon="6.449549021199346">
        <ele>669.70000000000005</ele>
        <time>2025-05-18T07:47:21Z</time>
      </trkpt>
      <trkpt lat="43.772229971364141" lon="6.449507027864456">
        <ele>669.70000000000005</ele>
        <time>2025-05-18T07:47:22Z</time>
      </trkpt>
      <trkpt lat="43.772160988301039" lon="6.449417006224394">
        <ele>669.22000000000003</ele>
        <time>2025-05-18T07:47:23Z</time>
      </trkpt>
      <trkpt lat="43.77214003354311" lon="6.4493010006845">
        <ele>669.22000000000003</ele>
        <time>2025-05-18T07:47:24Z</time>
      </trkpt>
      <trkpt lat="43.772107008844614" lon="6.449124980717897">
        <ele>668.73000000000002</ele>
        <time>2025-05-18T07:47:25Z</time>
      </trkpt>
      <trkpt lat="43.772039031609893" lon="6.449048034846783">
        <ele>668.25</ele>
        <time>2025-05-18T07:47:26Z</time>
      </trkpt>
      <trkpt lat="43.771955966949463" lon="6.448952984064817">
        <ele>668.73000000000002</ele>
        <time>2025-05-18T07:47:27Z</time>
      </trkpt>
      <trkpt lat="43.771827975288033" lon="6.448931023478508">
        <ele>668.73000000000002</ele>
        <time>2025-05-18T07:47:28Z</time>
      </trkpt>
      <trkpt lat="43.771700989454985" lon="6.448907973244786">
        <ele>669.22000000000003</ele>
        <time>2025-05-18T07:47:29Z</time>
      </trkpt>
      <trkpt lat="43.771557994186878" lon="6.448889030143619">
        <ele>670.17999999999995</ele>
        <time>2025-05-18T07:47:30Z</time>
      </trkpt>
      <trkpt lat="43.771409969776869" lon="6.448889030143619">
        <ele>670.65999999999997</ele>
        <time>2025-05-18T07:47:31Z</time>
      </trkpt>
      <trkpt lat="43.770927004516125" lon="6.448889030143619">
        <ele>673.53999999999996</ele>
        <time>2025-05-18T07:47:34Z</time>
      </trkpt>
      <trkpt lat="43.770755007863045" lon="6.448889030143619">
        <ele>674.01999999999998</ele>
        <time>2025-05-18T07:47:35Z</time>
      </trkpt>
      <trkpt lat="43.770426018163562" lon="6.448781993240118">
        <ele>675.46000000000004</ele>
        <time>2025-05-18T07:47:37Z</time>
      </trkpt>
      <trkpt lat="43.770277993753552" lon="6.448691971600056">
        <ele>676.41999999999996</ele>
        <time>2025-05-18T07:47:38Z</time>
      </trkpt>
      <trkpt lat="43.770125024020672" lon="6.448577977716923">
        <ele>676.90999999999997</ele>
        <time>2025-05-18T07:47:39Z</time>
      </trkpt>
      <trkpt lat="43.768838988617063" lon="6.447881022468209">
        <ele>684.60000000000002</ele>
        <time>2025-05-18T07:47:47Z</time>
      </trkpt>
      <trkpt lat="43.768673026934266" lon="6.447815978899598">
        <ele>685.55999999999995</ele>
        <time>2025-05-18T07:47:48Z</time>
      </trkpt>
      <trkpt lat="43.768508993089199" lon="6.447822013869882">
        <ele>686.03999999999996</ele>
        <time>2025-05-18T07:47:49Z</time>
      </trkpt>
      <trkpt lat="43.767689997330308" lon="6.447855038568378">
        <ele>690.36000000000001</ele>
        <time>2025-05-18T07:47:54Z</time>
      </trkpt>
      <trkpt lat="43.767533004283905" lon="6.447901977226138">
        <ele>690.84000000000003</ele>
        <time>2025-05-18T07:47:55Z</time>
      </trkpt>
      <trkpt lat="43.767381040379405" lon="6.447998033836484">
        <ele>691.33000000000004</ele>
        <time>2025-05-18T07:47:56Z</time>
      </trkpt>
      <trkpt lat="43.766001965850592" lon="6.44891501404345">
        <ele>699.5</ele>
        <time>2025-05-18T07:48:04Z</time>
      </trkpt>
      <trkpt lat="43.764436980709434" lon="6.449941964820027">
        <ele>706.23000000000002</ele>
        <time>2025-05-18T07:48:13Z</time>
      </trkpt>
      <trkpt lat="43.763686968013644" lon="6.450361981987953">
        <ele>708.63</ele>
        <time>2025-05-18T07:48:18Z</time>
      </trkpt>
      <trkpt lat="43.763559982180595" lon="6.450501959770918">
        <ele>709.59000000000003</ele>
        <time>2025-05-18T07:48:19Z</time>
      </trkpt>
      <trkpt lat="43.763426961377263" lon="6.450657024979591">
        <ele>710.54999999999995</ele>
        <time>2025-05-18T07:48:20Z</time>
      </trkpt>
      <trkpt lat="43.762595979496837" lon="6.451668972149491">
        <ele>713.44000000000005</ele>
        <time>2025-05-18T07:48:26Z</time>
      </trkpt>
      <trkpt lat="43.762467987835407" lon="6.451837029308081">
        <ele>713.91999999999996</ele>
        <time>2025-05-18T07:48:27Z</time>
      </trkpt>
      <trkpt lat="43.76174395903945" lon="6.452829027548432">
        <ele>714.39999999999998</ele>
        <time>2025-05-18T07:48:33Z</time>
      </trkpt>
      <trkpt lat="43.761647986248136" lon="6.453002030029893">
        <ele>714.39999999999998</ele>
        <time>2025-05-18T07:48:34Z</time>
      </trkpt>
      <trkpt lat="43.760980032384396" lon="6.45486700348556">
        <ele>717.75999999999999</ele>
        <time>2025-05-18T07:48:42Z</time>
      </trkpt>
      <trkpt lat="43.760280981659889" lon="6.456745974719524">
        <ele>720.64999999999998</ele>
        <time>2025-05-18T07:48:50Z</time>
      </trkpt>
      <trkpt lat="43.760081995278597" lon="6.457114024087787">
        <ele>721.61000000000001</ele>
        <time>2025-05-18T07:48:52Z</time>
      </trkpt>
      <trkpt lat="43.759971018880606" lon="6.457290966063738">
        <ele>722.09000000000003</ele>
        <time>2025-05-18T07:48:53Z</time>
      </trkpt>
      <trkpt lat="43.759831041097641" lon="6.457431027665734">
        <ele>722.57000000000005</ele>
        <time>2025-05-18T07:48:54Z</time>
      </trkpt>
      <trkpt lat="43.758480967953801" lon="6.458523022010922">
        <ele>724.49000000000001</ele>
        <time>2025-05-18T07:49:03Z</time>
      </trkpt>
      <trkpt lat="43.758352976292372" lon="6.458709016442299">
        <ele>724.49000000000001</ele>
        <time>2025-05-18T07:49:04Z</time>
      </trkpt>
      <trkpt lat="43.758249040693045" lon="6.458860980346799">
        <ele>724.97000000000003</ele>
        <time>2025-05-18T07:49:05Z</time>
      </trkpt>
      <trkpt lat="43.758162958547473" lon="6.459031971171498">
        <ele>724.97000000000003</ele>
        <time>2025-05-18T07:49:06Z</time>
      </trkpt>
      <trkpt lat="43.758076038211584" lon="6.459231041371822">
        <ele>725.45000000000005</ele>
        <time>2025-05-18T07:49:07Z</time>
      </trkpt>
      <trkpt lat="43.757986016571522" lon="6.459449976682663">
        <ele>725.45000000000005</ele>
        <time>2025-05-18T07:49:08Z</time>
      </trkpt>
      <trkpt lat="43.757793987169862" lon="6.459919027984142">
        <ele>725.92999999999995</ele>
        <time>2025-05-18T07:49:10Z</time>
      </trkpt>
      <trkpt lat="43.757518976926804" lon="6.46032496355474">
        <ele>726.40999999999997</ele>
        <time>2025-05-18T07:49:12Z</time>
      </trkpt>
      <trkpt lat="43.757386961951852" lon="6.460519004613161">
        <ele>726.88999999999999</ele>
        <time>2025-05-18T07:49:13Z</time>
      </trkpt>
      <trkpt lat="43.757208008319139" lon="6.460673986002803">
        <ele>726.88999999999999</ele>
        <time>2025-05-18T07:49:14Z</time>
      </trkpt>
      <trkpt lat="43.757032994180918" lon="6.460827039554715">
        <ele>726.40999999999997</ele>
        <time>2025-05-18T07:49:15Z</time>
      </trkpt>
      <trkpt lat="43.756853034719825" lon="6.460984032601118">
        <ele>726.40999999999997</ele>
        <time>2025-05-18T07:49:16Z</time>
      </trkpt>
      <trkpt lat="43.75667198561132" lon="6.461141025647521">
        <ele>726.40999999999997</ele>
        <time>2025-05-18T07:49:17Z</time>
      </trkpt>
      <trkpt lat="43.756495965644717" lon="6.461293995380402">
        <ele>726.40999999999997</ele>
        <time>2025-05-18T07:49:18Z</time>
      </trkpt>
      <trkpt lat="43.75602699816227" lon="6.461710995063186">
        <ele>726.88999999999999</ele>
        <time>2025-05-18T07:49:21Z</time>
      </trkpt>
      <trkpt lat="43.75589900650084" lon="6.461860025301576">
        <ele>726.88999999999999</ele>
        <time>2025-05-18T07:49:22Z</time>
      </trkpt>
      <trkpt lat="43.755784006789327" lon="6.462032021954656">
        <ele>726.88999999999999</ele>
        <time>2025-05-18T07:49:23Z</time>
      </trkpt>
      <trkpt lat="43.755678981542587" lon="6.462212987244129">
        <ele>726.40999999999997</ele>
        <time>2025-05-18T07:49:24Z</time>
      </trkpt>
      <trkpt lat="43.755608992651105" lon="6.462441980838776">
        <ele>726.40999999999997</ele>
        <time>2025-05-18T07:49:25Z</time>
      </trkpt>
      <trkpt lat="43.7555349804461" lon="6.462682960554957">
        <ele>725.92999999999995</ele>
        <time>2025-05-18T07:49:26Z</time>
      </trkpt>
      <trkpt lat="43.754879012703896" lon="6.464097993448377">
        <ele>723.52999999999997</ele>
        <time>2025-05-18T07:49:32Z</time>
      </trkpt>
      <trkpt lat="43.753820965066552" lon="6.465615034103394">
        <ele>724.00999999999999</ele>
        <time>2025-05-18T07:49:39Z</time>
      </trkpt>
      <trkpt lat="43.752141986042261" lon="6.467939000576735">
        <ele>728.34000000000003</ele>
        <time>2025-05-18T07:49:50Z</time>
      </trkpt>
      <trkpt lat="43.750828960910439" lon="6.469751000404358">
        <ele>729.77999999999997</ele>
        <time>2025-05-18T07:49:59Z</time>
      </trkpt>
      <trkpt lat="43.749549966305494" lon="6.471530981361866">
        <ele>730.25999999999999</ele>
        <time>2025-05-18T07:50:08Z</time>
      </trkpt>
      <trkpt lat="43.748018005862832" lon="6.473680017516017">
        <ele>734.10000000000002</ele>
        <time>2025-05-18T07:50:19Z</time>
      </trkpt>
      <trkpt lat="43.747849026694894" lon="6.474040020257235">
        <ele>735.07000000000005</ele>
        <time>2025-05-18T07:50:21Z</time>
      </trkpt>
      <trkpt lat="43.747687004506588" lon="6.474370015785098">
        <ele>735.54999999999995</ele>
        <time>2025-05-18T07:50:23Z</time>
      </trkpt>
      <trkpt lat="43.747591031715274" lon="6.474515022709966">
        <ele>736.02999999999997</ele>
        <time>2025-05-18T07:50:24Z</time>
      </trkpt>
      <trkpt lat="43.747492041438818" lon="6.474663969129324">
        <ele>735.54999999999995</ele>
        <time>2025-05-18T07:50:25Z</time>
      </trkpt>
      <trkpt lat="43.746493002399802" lon="6.475765015929937">
        <ele>737.47000000000003</ele>
        <time>2025-05-18T07:50:33Z</time>
      </trkpt>
      <trkpt lat="43.745173020288348" lon="6.477156998589635">
        <ele>740.35000000000002</ele>
        <time>2025-05-18T07:50:42Z</time>
      </trkpt>
      <trkpt lat="43.743560006842017" lon="6.478870008140802">
        <ele>742.75999999999999</ele>
        <time>2025-05-18T07:50:53Z</time>
      </trkpt>
      <trkpt lat="43.743013003841043" lon="6.479498986154795">
        <ele>744.20000000000005</ele>
        <time>2025-05-18T07:50:57Z</time>
      </trkpt>
      <trkpt lat="43.742161989212036" lon="6.480808993801475">
        <ele>746.60000000000002</ele>
        <time>2025-05-18T07:51:04Z</time>
      </trkpt>
      <trkpt lat="43.742079008370638" lon="6.481002029031515">
        <ele>747.08000000000004</ele>
        <time>2025-05-18T07:51:05Z</time>
      </trkpt>
      <trkpt lat="43.742000972852111" lon="6.481191962957382">
        <ele>747.08000000000004</ele>
        <time>2025-05-18T07:51:06Z</time>
      </trkpt>
      <trkpt lat="43.74197599478066" lon="6.481417017057538">
        <ele>747.55999999999995</ele>
        <time>2025-05-18T07:51:07Z</time>
      </trkpt>
      <trkpt lat="43.741949005052447" lon="6.481653973460197">
        <ele>748.03999999999996</ele>
        <time>2025-05-18T07:51:08Z</time>
      </trkpt>
      <trkpt lat="43.741802992299199" lon="6.48266701027751">
        <ele>749.49000000000001</ele>
        <time>2025-05-18T07:51:12Z</time>
      </trkpt>
      <trkpt lat="43.74173803254962" lon="6.482908995822072">
        <ele>749.97000000000003</ele>
        <time>2025-05-18T07:51:13Z</time>
      </trkpt>
      <trkpt lat="43.741059014573693" lon="6.48470800369978">
        <ele>753.80999999999995</ele>
        <time>2025-05-18T07:51:21Z</time>
      </trkpt>
      <trkpt lat="43.740776041522622" lon="6.486110966652632">
        <ele>756.21000000000004</ele>
        <time>2025-05-18T07:51:27Z</time>
      </trkpt>
      <trkpt lat="43.740769000723958" lon="6.486334009096026">
        <ele>757.17999999999995</ele>
        <time>2025-05-18T07:51:28Z</time>
      </trkpt>
      <trkpt lat="43.740735976025462" lon="6.487317960709333">
        <ele>759.58000000000004</ele>
        <time>2025-05-18T07:51:32Z</time>
      </trkpt>
      <trkpt lat="43.740672022104263" lon="6.488038972020149">
        <ele>761.01999999999998</ele>
        <time>2025-05-18T07:51:35Z</time>
      </trkpt>
      <trkpt lat="43.740698006004095" lon="6.48825597949326">
        <ele>761.01999999999998</ele>
        <time>2025-05-18T07:51:36Z</time>
      </trkpt>
      <trkpt lat="43.74072901904583" lon="6.488494025543332">
        <ele>761.01999999999998</ele>
        <time>2025-05-18T07:51:37Z</time>
      </trkpt>
      <trkpt lat="43.740972010418773" lon="6.490362016484141">
        <ele>766.30999999999995</ele>
        <time>2025-05-18T07:51:44Z</time>
      </trkpt>
      <trkpt lat="43.741092961281538" lon="6.491526011377573">
        <ele>767.75</ele>
        <time>2025-05-18T07:51:49Z</time>
      </trkpt>
      <trkpt lat="43.741087010130286" lon="6.491957008838654">
        <ele>766.30999999999995</ele>
        <time>2025-05-18T07:51:51Z</time>
      </trkpt>
      <trkpt lat="43.741106959059834" lon="6.492181979119778">
        <ele>765.83000000000004</ele>
        <time>2025-05-18T07:51:52Z</time>
      </trkpt>
      <trkpt lat="43.74113998375833" lon="6.492420025169849">
        <ele>764.87</ele>
        <time>2025-05-18T07:51:53Z</time>
      </trkpt>
      <trkpt lat="43.741560000926256" lon="6.494251973927021">
        <ele>757.65999999999997</ele>
        <time>2025-05-18T07:52:00Z</time>
      </trkpt>
      <trkpt lat="43.74201999977231" lon="6.496194982901216">
        <ele>753.80999999999995</ele>
        <time>2025-05-18T07:52:08Z</time>
      </trkpt>
      <trkpt lat="43.742281012237072" lon="6.49729703553021">
        <ele>750.92999999999995</ele>
        <time>2025-05-18T07:52:15Z</time>
      </trkpt>
      <trkpt lat="43.74244898557663" lon="6.497991979122162">
        <ele>749.97000000000003</ele>
        <time>2025-05-18T07:52:21Z</time>
      </trkpt>
      <trkpt lat="43.742488967254758" lon="6.498189037665725">
        <ele>749.97000000000003</ele>
        <time>2025-05-18T07:52:23Z</time>
      </trkpt>
      <trkpt lat="43.742505982518196" lon="6.498410990461707">
        <ele>750.45000000000005</ele>
        <time>2025-05-18T07:52:25Z</time>
      </trkpt>
      <trkpt lat="43.742478992789984" lon="6.498520961031318">
        <ele>750.45000000000005</ele>
        <time>2025-05-18T07:52:26Z</time>
      </trkpt>
      <trkpt lat="43.74230096116662" lon="6.499179024249315">
        <ele>750.45000000000005</ele>
        <time>2025-05-18T07:52:32Z</time>
      </trkpt>
      <trkpt lat="43.742268020287156" lon="6.499284971505404">
        <ele>750.45000000000005</ele>
        <time>2025-05-18T07:52:33Z</time>
      </trkpt>
      <trkpt lat="43.742217980325222" lon="6.499371975660324">
        <ele>750.45000000000005</ele>
        <time>2025-05-18T07:52:34Z</time>
      </trkpt>
      <trkpt lat="43.742161989212036" lon="6.499450011178851">
        <ele>750.92999999999995</ele>
        <time>2025-05-18T07:52:35Z</time>
      </trkpt>
      <trkpt lat="43.742095017805696" lon="6.499501978978515">
        <ele>751.40999999999997</ele>
        <time>2025-05-18T07:52:36Z</time>
      </trkpt>
      <trkpt lat="43.742027040570974" lon="6.499547995626926">
        <ele>751.40999999999997</ele>
        <time>2025-05-18T07:52:37Z</time>
      </trkpt>
      <trkpt lat="43.74195403419435" lon="6.499545983970165">
        <ele>751.88999999999999</ele>
        <time>2025-05-18T07:52:38Z</time>
      </trkpt>
      <trkpt lat="43.741877004504204" lon="6.499541038647294">
        <ele>752.37</ele>
        <time>2025-05-18T07:52:39Z</time>
      </trkpt>
      <trkpt lat="43.741795029491186" lon="6.499535003677011">
        <ele>752.85000000000002</ele>
        <time>2025-05-18T07:52:40Z</time>
      </trkpt>
      <trkpt lat="43.741700984537601" lon="6.499528968706727">
        <ele>752.85000000000002</ele>
        <time>2025-05-18T07:52:41Z</time>
      </trkpt>
      <trkpt lat="43.741614986211061" lon="6.499497033655644">
        <ele>752.85000000000002</ele>
        <time>2025-05-18T07:52:42Z</time>
      </trkpt>
      <trkpt lat="43.741522030904889" lon="6.499460991472006">
        <ele>752.85000000000002</ele>
        <time>2025-05-18T07:52:43Z</time>
      </trkpt>
      <trkpt lat="43.741429997608066" lon="6.499426038935781">
        <ele>752.85000000000002</ele>
        <time>2025-05-18T07:52:44Z</time>
      </trkpt>
      <trkpt lat="43.741335030645132" lon="6.499389996752143">
        <ele>752.85000000000002</ele>
        <time>2025-05-18T07:52:45Z</time>
      </trkpt>
      <trkpt lat="43.741232017055154" lon="6.499351020902395">
        <ele>753.80999999999995</ele>
        <time>2025-05-18T07:52:46Z</time>
      </trkpt>
      <trkpt lat="43.741135038435459" lon="6.499313972890377">
        <ele>754.76999999999998</ele>
        <time>2025-05-18T07:52:47Z</time>
      </trkpt>
      <trkpt lat="43.741032024845481" lon="6.499273991212249">
        <ele>756.69000000000005</ele>
        <time>2025-05-18T07:52:48Z</time>
      </trkpt>
      <trkpt lat="43.740906966850162" lon="6.499224035069346">
        <ele>758.13999999999999</ele>
        <time>2025-05-18T07:52:49Z</time>
      </trkpt>
      <trkpt lat="43.740781992673874" lon="6.499163014814258">
        <ele>759.58000000000004</ele>
        <time>2025-05-18T07:52:50Z</time>
      </trkpt>
      <trkpt lat="43.740641009062529" lon="6.499087996780872">
        <ele>761.5</ele>
        <time>2025-05-18T07:52:51Z</time>
      </trkpt>
      <trkpt lat="43.740486027672887" lon="6.499006021767855">
        <ele>763.41999999999996</ele>
        <time>2025-05-18T07:52:52Z</time>
      </trkpt>
      <trkpt lat="43.740034997463226" lon="6.498751966282725">
        <ele>767.75</ele>
        <time>2025-05-18T07:52:55Z</time>
      </trkpt>
      <trkpt lat="43.739897031337023" lon="6.498706033453345">
        <ele>769.19000000000005</ele>
        <time>2025-05-18T07:52:56Z</time>
      </trkpt>
      <trkpt lat="43.739741966128349" lon="6.498679965734482">
        <ele>770.14999999999998</ele>
        <time>2025-05-18T07:52:57Z</time>
      </trkpt>
      <trkpt lat="43.739598970860243" lon="6.498708967119455">
        <ele>770.63</ele>
        <time>2025-05-18T07:52:58Z</time>
      </trkpt>
      <trkpt lat="43.739439966157079" lon="6.498755989596248">
        <ele>771.11000000000001</ele>
        <time>2025-05-18T07:52:59Z</time>
      </trkpt>
      <trkpt lat="43.739300994202495" lon="6.498855985701084">
        <ele>772.08000000000004</ele>
        <time>2025-05-18T07:53:00Z</time>
      </trkpt>
      <trkpt lat="43.739150036126375" lon="6.498963022604585">
        <ele>772.55999999999995</ele>
        <time>2025-05-18T07:53:01Z</time>
      </trkpt>
      <trkpt lat="43.738081008195877" lon="6.499925013631582">
        <ele>778.32000000000005</ele>
        <time>2025-05-18T07:53:08Z</time>
      </trkpt>
      <trkpt lat="43.737298976629972" lon="6.500707967206836">
        <ele>785.04999999999995</ele>
        <time>2025-05-18T07:53:14Z</time>
      </trkpt>
      <trkpt lat="43.737152041867375" lon="6.500774016603828">
        <ele>786.5</ele>
        <time>2025-05-18T07:53:15Z</time>
      </trkpt>
      <trkpt lat="43.737010974436998" lon="6.500762030482292">
        <ele>787.46000000000004</ele>
        <time>2025-05-18T07:53:16Z</time>
      </trkpt>
      <trkpt lat="43.736894968897104" lon="6.500751972198486">
        <ele>789.38</ele>
        <time>2025-05-18T07:53:17Z</time>
      </trkpt>
      <trkpt lat="43.736768988892436" lon="6.500796983018518">
        <ele>790.82000000000005</ele>
        <time>2025-05-18T07:53:18Z</time>
      </trkpt>
      <trkpt lat="43.736659018322825" lon="6.500837970525026">
        <ele>792.74000000000001</ele>
        <time>2025-05-18T07:53:19Z</time>
      </trkpt>
      <trkpt lat="43.73662699945271" lon="6.500922041013837">
        <ele>794.19000000000005</ele>
        <time>2025-05-18T07:53:20Z</time>
      </trkpt>
      <trkpt lat="43.736596992239356" lon="6.501026982441545">
        <ele>796.11000000000001</ele>
        <time>2025-05-18T07:53:21Z</time>
      </trkpt>
      <trkpt lat="43.736619036644697" lon="6.501161009073257">
        <ele>797.07000000000005</ele>
        <time>2025-05-18T07:53:22Z</time>
      </trkpt>
      <trkpt lat="43.73664703220129" lon="6.501328982412815">
        <ele>798.50999999999999</ele>
        <time>2025-05-18T07:53:23Z</time>
      </trkpt>
      <trkpt lat="43.736679973080754" lon="6.501525035127997">
        <ele>799.47000000000003</ele>
        <time>2025-05-18T07:53:24Z</time>
      </trkpt>
      <trkpt lat="43.736835038289428" lon="6.502708978950977">
        <ele>805.24000000000001</ele>
        <time>2025-05-18T07:53:29Z</time>
      </trkpt>
      <trkpt lat="43.736866973340511" lon="6.50295197032392">
        <ele>806.20000000000005</ele>
        <time>2025-05-18T07:53:30Z</time>
      </trkpt>
      <trkpt lat="43.737112982198596" lon="6.503823017701507">
        <ele>811.00999999999999</ele>
        <time>2025-05-18T07:53:35Z</time>
      </trkpt>
      <trkpt lat="43.73712002299726" lon="6.503915973007679">
        <ele>811.49000000000001</ele>
        <time>2025-05-18T07:53:36Z</time>
      </trkpt>
      <trkpt lat="43.737078029662371" lon="6.504018986597657">
        <ele>812.45000000000005</ele>
        <time>2025-05-18T07:53:37Z</time>
      </trkpt>
      <trkpt lat="43.73701399192214" lon="6.504049999639392">
        <ele>812.45000000000005</ele>
        <time>2025-05-18T07:53:38Z</time>
      </trkpt>
      <trkpt lat="43.736879965290427" lon="6.504015969112515">
        <ele>812.92999999999995</ele>
        <time>2025-05-18T07:53:39Z</time>
      </trkpt>
      <trkpt lat="43.736765971407294" lon="6.503927959129214">
        <ele>813.40999999999997</ele>
        <time>2025-05-18T07:53:40Z</time>
      </trkpt>
      <trkpt lat="43.736677039414644" lon="6.503813965246081">
        <ele>813.88999999999999</ele>
        <time>2025-05-18T07:53:41Z</time>
      </trkpt>
      <trkpt lat="43.735846979543567" lon="6.502746026962996">
        <ele>821.58000000000004</ele>
        <time>2025-05-18T07:53:48Z</time>
      </trkpt>
      <trkpt lat="43.735728962346911" lon="6.502593979239464">
        <ele>822.54999999999995</ele>
        <time>2025-05-18T07:53:49Z</time>
      </trkpt>
      <trkpt lat="43.735584039241076" lon="6.502513010054827">
        <ele>823.50999999999999</ele>
        <time>2025-05-18T07:53:50Z</time>
      </trkpt>
      <trkpt lat="43.735416987910867" lon="6.502432962879539">
        <ele>824.47000000000003</ele>
        <time>2025-05-18T07:53:51Z</time>
      </trkpt>
      <trkpt lat="43.735071988776326" lon="6.502243028953672">
        <ele>826.38999999999999</ele>
        <time>2025-05-18T07:53:53Z</time>
      </trkpt>
      <trkpt lat="43.734015030786395" lon="6.501430990174413">
        <ele>834.08000000000004</ele>
        <time>2025-05-18T07:53:59Z</time>
      </trkpt>
      <trkpt lat="43.733821995556355" lon="6.501330994069576">
        <ele>835.03999999999996</ele>
        <time>2025-05-18T07:54:00Z</time>
      </trkpt>
      <trkpt lat="43.733139960095286" lon="6.500966968014836">
        <ele>840.33000000000004</ele>
        <time>2025-05-18T07:54:04Z</time>
      </trkpt>
      <trkpt lat="43.733038958162069" lon="6.500827996060252">
        <ele>841.76999999999998</ele>
        <time>2025-05-18T07:54:05Z</time>
      </trkpt>
      <trkpt lat="43.732834020629525" lon="6.500547034665942">
        <ele>844.17999999999995</ele>
        <time>2025-05-18T07:54:07Z</time>
      </trkpt>
      <trkpt lat="43.732720026746392" lon="6.500455001369119">
        <ele>845.62</ele>
        <time>2025-05-18T07:54:08Z</time>
      </trkpt>
      <trkpt lat="43.732584994286299" lon="6.500383000820875">
        <ele>847.05999999999995</ele>
        <time>2025-05-18T07:54:09Z</time>
      </trkpt>
      <trkpt lat="43.73243797570467" lon="6.500305971130729">
        <ele>848.01999999999998</ele>
        <time>2025-05-18T07:54:10Z</time>
      </trkpt>
      <trkpt lat="43.732288023456931" lon="6.500227013602853">
        <ele>848.98000000000002</ele>
        <time>2025-05-18T07:54:11Z</time>
      </trkpt>
      <trkpt lat="43.731861971318722" lon="6.500074965879321">
        <ele>851.38</ele>
        <time>2025-05-18T07:54:14Z</time>
      </trkpt>
      <trkpt lat="43.731704978272319" lon="6.500088041648269">
        <ele>852.35000000000002</ele>
        <time>2025-05-18T07:54:15Z</time>
      </trkpt>
      <trkpt lat="43.731534993276" lon="6.500102039426565">
        <ele>853.78999999999996</ele>
        <time>2025-05-18T07:54:16Z</time>
      </trkpt>
      <trkpt lat="43.730238983407617" lon="6.500157024711371">
        <ele>860.51999999999998</ele>
        <time>2025-05-18T07:54:23Z</time>
      </trkpt>
      <trkpt lat="43.730058018118143" lon="6.500157024711371">
        <ele>861.48000000000002</ele>
        <time>2025-05-18T07:54:24Z</time>
      </trkpt>
      <trkpt lat="43.72988099232316" lon="6.500188959762454">
        <ele>862.44000000000005</ele>
        <time>2025-05-18T07:54:25Z</time>
      </trkpt>
      <trkpt lat="43.729710001498461" lon="6.500219972804189">
        <ele>863.39999999999998</ele>
        <time>2025-05-18T07:54:26Z</time>
      </trkpt>
      <trkpt lat="43.729549990966916" lon="6.500248974189162">
        <ele>864.84000000000003</ele>
        <time>2025-05-18T07:54:27Z</time>
      </trkpt>
      <trkpt lat="43.729398027062416" lon="6.500275963917375">
        <ele>865.79999999999995</ele>
        <time>2025-05-18T07:54:28Z</time>
      </trkpt>
      <trkpt lat="43.72925603762269" lon="6.500301025807858">
        <ele>866.76999999999998</ele>
        <time>2025-05-18T07:54:29Z</time>
      </trkpt>
      <trkpt lat="43.729117987677455" lon="6.500392975285649">
        <ele>867.73000000000002</ele>
        <time>2025-05-18T07:54:30Z</time>
      </trkpt>
      <trkpt lat="43.728991001844406" lon="6.500507974997163">
        <ele>868.69000000000005</ele>
        <time>2025-05-18T07:54:31Z</time>
      </trkpt>
      <trkpt lat="43.728867033496499" lon="6.500645019114018">
        <ele>869.64999999999998</ele>
        <time>2025-05-18T07:54:32Z</time>
      </trkpt>
      <trkpt lat="43.728769971057773" lon="6.500821961089969">
        <ele>870.61000000000001</ele>
        <time>2025-05-18T07:54:33Z</time>
      </trkpt>
      <trkpt lat="43.728671986609697" lon="6.501019019633532">
        <ele>871.57000000000005</ele>
        <time>2025-05-18T07:54:34Z</time>
      </trkpt>
      <trkpt lat="43.728572996333241" lon="6.501215994358063">
        <ele>872.04999999999995</ele>
        <time>2025-05-18T07:54:35Z</time>
      </trkpt>
      <trkpt lat="43.72837602160871" lon="6.501610027626157">
        <ele>873.98000000000002</ele>
        <time>2025-05-18T07:54:37Z</time>
      </trkpt>
      <trkpt lat="43.728277031332254" lon="6.501808008179069">
        <ele>874.46000000000004</ele>
        <time>2025-05-18T07:54:38Z</time>
      </trkpt>
      <trkpt lat="43.728168988600373" lon="6.501989979296923">
        <ele>875.41999999999996</ele>
        <time>2025-05-18T07:54:39Z</time>
      </trkpt>
      <trkpt lat="43.728050971403718" lon="6.50215501897037">
        <ele>876.38</ele>
        <time>2025-05-18T07:54:40Z</time>
      </trkpt>
      <trkpt lat="43.727921973913908" lon="6.502288961783052">
        <ele>877.34000000000003</ele>
        <time>2025-05-18T07:54:41Z</time>
      </trkpt>
      <trkpt lat="43.727786019444466" lon="6.502407984808087">
        <ele>877.82000000000005</ele>
        <time>2025-05-18T07:54:42Z</time>
      </trkpt>
      <trkpt lat="43.727649981155992" lon="6.502543017268181">
        <ele>878.29999999999995</ele>
        <time>2025-05-18T07:54:43Z</time>
      </trkpt>
      <trkpt lat="43.7275580316782" lon="6.502699004486203">
        <ele>878.29999999999995</ele>
        <time>2025-05-18T07:54:44Z</time>
      </trkpt>
      <trkpt lat="43.727468010038137" lon="6.502850968390703">
        <ele>878.29999999999995</ele>
        <time>2025-05-18T07:54:45Z</time>
      </trkpt>
      <trkpt lat="43.727298025041819" lon="6.50318699888885">
        <ele>879.25999999999999</ele>
        <time>2025-05-18T07:54:47Z</time>
      </trkpt>
      <trkpt lat="43.727183025330305" lon="6.503334017470479">
        <ele>879.74000000000001</ele>
        <time>2025-05-18T07:54:48Z</time>
      </trkpt>
      <trkpt lat="43.727041035890579" lon="6.50346402078867">
        <ele>880.22000000000003</ele>
        <time>2025-05-18T07:54:49Z</time>
      </trkpt>
      <trkpt lat="43.725891960784793" lon="6.504607982933521">
        <ele>887.42999999999995</ele>
        <time>2025-05-18T07:54:56Z</time>
      </trkpt>
      <trkpt lat="43.725038012489676" lon="6.505359001457691">
        <ele>892.72000000000003</ele>
        <time>2025-05-18T07:55:01Z</time>
      </trkpt>
      <trkpt lat="43.724849000573158" lon="6.505410969257355">
        <ele>893.67999999999995</ele>
        <time>2025-05-18T07:55:02Z</time>
      </trkpt>
      <trkpt lat="43.723347969353199" lon="6.505777006968856">
        <ele>902.33000000000004</ele>
        <time>2025-05-18T07:55:10Z</time>
      </trkpt>
      <trkpt lat="43.723212014883757" lon="6.505755968391895">
        <ele>902.82000000000005</ele>
        <time>2025-05-18T07:55:11Z</time>
      </trkpt>
      <trkpt lat="43.723110007122159" lon="6.505659995600581">
        <ele>903.29999999999995</ele>
        <time>2025-05-18T07:55:12Z</time>
      </trkpt>
      <trkpt lat="43.723012022674084" lon="6.505537033081055">
        <ele>903.29999999999995</ele>
        <time>2025-05-18T07:55:13Z</time>
      </trkpt>
      <trkpt lat="43.722972040995955" lon="6.505371993407607">
        <ele>902.82000000000005</ele>
        <time>2025-05-18T07:55:14Z</time>
      </trkpt>
      <trkpt lat="43.722926024347544" lon="6.505180969834328">
        <ele>902.33000000000004</ele>
        <time>2025-05-18T07:55:15Z</time>
      </trkpt>
      <trkpt lat="43.72281001880765" lon="6.50482096709311">
        <ele>901.37</ele>
        <time>2025-05-18T07:55:17Z</time>
      </trkpt>
      <trkpt lat="43.7227279599756" lon="6.504674032330513">
        <ele>900.88999999999999</ele>
        <time>2025-05-18T07:55:18Z</time>
      </trkpt>
      <trkpt lat="43.722611032426357" lon="6.504547968506813">
        <ele>900.40999999999997</ele>
        <time>2025-05-18T07:55:19Z</time>
      </trkpt>
      <trkpt lat="43.722485974431038" lon="6.504413019865751">
        <ele>899.92999999999995</ele>
        <time>2025-05-18T07:55:20Z</time>
      </trkpt>
      <trkpt lat="43.72234096750617" lon="6.504316963255405">
        <ele>899.45000000000005</ele>
        <time>2025-05-18T07:55:21Z</time>
      </trkpt>
      <trkpt lat="43.722175005823374" lon="6.504226019605994">
        <ele>899.45000000000005</ele>
        <time>2025-05-18T07:55:22Z</time>
      </trkpt>
      <trkpt lat="43.722004014998674" lon="6.50413298048079">
        <ele>899.45000000000005</ele>
        <time>2025-05-18T07:55:23Z</time>
      </trkpt>
      <trkpt lat="43.721688017249107" lon="6.503926031291485">
        <ele>899.92999999999995</ele>
        <time>2025-05-18T07:55:25Z</time>
      </trkpt>
      <trkpt lat="43.721573017537594" lon="6.503790998831391">
        <ele>899.92999999999995</ele>
        <time>2025-05-18T07:55:26Z</time>
      </trkpt>
      <trkpt lat="43.721488025039434" lon="6.503692008554936">
        <ele>899.92999999999995</ele>
        <time>2025-05-18T07:55:27Z</time>
      </trkpt>
      <trkpt lat="43.721444020047784" lon="6.503514982759953">
        <ele>900.40999999999997</ele>
        <time>2025-05-18T07:55:28Z</time>
      </trkpt>
      <trkpt lat="43.721404038369656" lon="6.503355978056788">
        <ele>900.40999999999997</ele>
        <time>2025-05-18T07:55:29Z</time>
      </trkpt>
      <trkpt lat="43.721376964822412" lon="6.503176018595696">
        <ele>900.40999999999997</ele>
        <time>2025-05-18T07:55:30Z</time>
      </trkpt>
      <trkpt lat="43.721367996186018" lon="6.502961022779346">
        <ele>900.40999999999997</ele>
        <time>2025-05-18T07:55:31Z</time>
      </trkpt>
      <trkpt lat="43.721360033378005" lon="6.502742003649473">
        <ele>899.92999999999995</ele>
        <time>2025-05-18T07:55:32Z</time>
      </trkpt>
      <trkpt lat="43.721389034762979" lon="6.502537988126278">
        <ele>900.40999999999997</ele>
        <time>2025-05-18T07:55:33Z</time>
      </trkpt>
      <trkpt lat="43.721423987299204" lon="6.502297008410096">
        <ele>900.40999999999997</ele>
        <time>2025-05-18T07:55:34Z</time>
      </trkpt>
      <trkpt lat="43.721474027261138" lon="6.50213498622179">
        <ele>900.40999999999997</ele>
        <time>2025-05-18T07:55:35Z</time>
      </trkpt>
      <trkpt lat="43.721532030031085" lon="6.501951003447175">
        <ele>900.40999999999997</ele>
        <time>2025-05-18T07:55:36Z</time>
      </trkpt>
      <trkpt lat="43.721585003659129" lon="6.501775989308953">
        <ele>900.40999999999997</ele>
        <time>2025-05-18T07:55:37Z</time>
      </trkpt>
      <trkpt lat="43.7216089759022" lon="6.501584965735674">
        <ele>900.40999999999997</ele>
        <time>2025-05-18T07:55:38Z</time>
      </trkpt>
      <trkpt lat="43.721576035022736" lon="6.5014040004462">
        <ele>900.88999999999999</ele>
        <time>2025-05-18T07:55:39Z</time>
      </trkpt>
      <trkpt lat="43.721506968140602" lon="6.501280032098293">
        <ele>901.37</ele>
        <time>2025-05-18T07:55:40Z</time>
      </trkpt>
      <trkpt lat="43.721409989520907" lon="6.501198979094625">
        <ele>901.85000000000002</ele>
        <time>2025-05-18T07:55:41Z</time>
      </trkpt>
      <trkpt lat="43.721303958445787" lon="6.501181041821837">
        <ele>902.33000000000004</ele>
        <time>2025-05-18T07:55:42Z</time>
      </trkpt>
      <trkpt lat="43.72119901701808" lon="6.50120903737843">
        <ele>902.82000000000005</ele>
        <time>2025-05-18T07:55:43Z</time>
      </trkpt>
      <trkpt lat="43.721079993993044" lon="6.501270979642868">
        <ele>903.29999999999995</ele>
        <time>2025-05-18T07:55:44Z</time>
      </trkpt>
      <trkpt lat="43.720952002331614" lon="6.50133803486824">
        <ele>904.25999999999999</ele>
        <time>2025-05-18T07:55:45Z</time>
      </trkpt>
      <trkpt lat="43.72081495821476" lon="6.501410035416484">
        <ele>904.74000000000001</ele>
        <time>2025-05-18T07:55:46Z</time>
      </trkpt>
      <trkpt lat="43.720657965168357" lon="6.501452028751373">
        <ele>905.22000000000003</ele>
        <time>2025-05-18T07:55:47Z</time>
      </trkpt>
      <trkpt lat="43.720176005735993" lon="6.501604998484254">
        <ele>906.17999999999995</ele>
        <time>2025-05-18T07:55:50Z</time>
      </trkpt>
      <trkpt lat="43.720050025731325" lon="6.501707006245852">
        <ele>906.17999999999995</ele>
        <time>2025-05-18T07:55:51Z</time>
      </trkpt>
      <trkpt lat="43.719974001869559" lon="6.501848995685577">
        <ele>906.65999999999997</ele>
        <time>2025-05-18T07:55:52Z</time>
      </trkpt>
      <trkpt lat="43.719925973564386" lon="6.502028033137322">
        <ele>906.65999999999997</ele>
        <time>2025-05-18T07:55:53Z</time>
      </trkpt>
      <trkpt lat="43.719871994107962" lon="6.502228025346994">
        <ele>906.65999999999997</ele>
        <time>2025-05-18T07:55:54Z</time>
      </trkpt>
      <trkpt lat="43.719789013266563" lon="6.502438997849822">
        <ele>906.65999999999997</ele>
        <time>2025-05-18T07:55:55Z</time>
      </trkpt>
      <trkpt lat="43.719682982191443" lon="6.502617029473186">
        <ele>907.13999999999999</ele>
        <time>2025-05-18T07:55:56Z</time>
      </trkpt>
      <trkpt lat="43.719563959166408" lon="6.502762036398053">
        <ele>907.13999999999999</ele>
        <time>2025-05-18T07:55:57Z</time>
      </trkpt>
      <trkpt lat="43.719435967504978" lon="6.502890028059483">
        <ele>907.62</ele>
        <time>2025-05-18T07:55:58Z</time>
      </trkpt>
      <trkpt lat="43.719277968630195" lon="6.502966973930597">
        <ele>907.62</ele>
        <time>2025-05-18T07:55:59Z</time>
      </trkpt>
      <trkpt lat="43.719104966148734" lon="6.50303503498435">
        <ele>908.10000000000002</ele>
        <time>2025-05-18T07:56:00Z</time>
      </trkpt>
      <trkpt lat="43.718924000859261" lon="6.503068981692195">
        <ele>908.10000000000002</ele>
        <time>2025-05-18T07:56:01Z</time>
      </trkpt>
      <trkpt lat="43.718744041398168" lon="6.50308096781373">
        <ele>908.58000000000004</ele>
        <time>2025-05-18T07:56:02Z</time>
      </trkpt>
      <trkpt lat="43.718557963147759" lon="6.503052972257137">
        <ele>909.05999999999995</ele>
        <time>2025-05-18T07:56:03Z</time>
      </trkpt>
      <trkpt lat="43.718360988423228" lon="6.503022965043783">
        <ele>910.02999999999997</ele>
        <time>2025-05-18T07:56:04Z</time>
      </trkpt>
      <trkpt lat="43.717983970418572" lon="6.502917017787695">
        <ele>910.99000000000001</ele>
        <time>2025-05-18T07:56:06Z</time>
      </trkpt>
      <trkpt lat="43.717791019007564" lon="6.502839988097549">
        <ele>911.47000000000003</ele>
        <time>2025-05-18T07:56:07Z</time>
      </trkpt>
      <trkpt lat="43.717219959944487" lon="6.502591967582703">
        <ele>911.95000000000005</ele>
        <time>2025-05-18T07:56:10Z</time>
      </trkpt>
      <trkpt lat="43.717026002705097" lon="6.502557015046477">
        <ele>911.47000000000003</ele>
        <time>2025-05-18T07:56:11Z</time>
      </trkpt>
      <trkpt lat="43.71664303354919" lon="6.502532958984375">
        <ele>911.47000000000003</ele>
        <time>2025-05-18T07:56:13Z</time>
      </trkpt>
      <trkpt lat="43.716456033289433" lon="6.502543017268181">
        <ele>911.47000000000003</ele>
        <time>2025-05-18T07:56:14Z</time>
      </trkpt>
      <trkpt lat="43.715143008157611" lon="6.502960016950965">
        <ele>909.53999999999996</ele>
        <time>2025-05-18T07:56:21Z</time>
      </trkpt>
      <trkpt lat="43.714612014591694" lon="6.503193033859134">
        <ele>908.10000000000002</ele>
        <time>2025-05-18T07:56:24Z</time>
      </trkpt>
      <trkpt lat="43.713399991393089" lon="6.504076989367604">
        <ele>903.77999999999997</ele>
        <time>2025-05-18T07:56:32Z</time>
      </trkpt>
      <trkpt lat="43.71333796530962" lon="6.504199029877782">
        <ele>902.82000000000005</ele>
        <time>2025-05-18T07:56:33Z</time>
      </trkpt>
      <trkpt lat="43.713280968368053" lon="6.504314029589295">
        <ele>902.33000000000004</ele>
        <time>2025-05-18T07:56:34Z</time>
      </trkpt>
      <trkpt lat="43.713225983083248" lon="6.504421988502145">
        <ele>901.85000000000002</ele>
        <time>2025-05-18T07:56:35Z</time>
      </trkpt>
      <trkpt lat="43.713170997798443" lon="6.504535982385278">
        <ele>901.37</ele>
        <time>2025-05-18T07:56:36Z</time>
      </trkpt>
      <trkpt lat="43.713119029998779" lon="6.504656011238694">
        <ele>901.37</ele>
        <time>2025-05-18T07:56:37Z</time>
      </trkpt>
      <trkpt lat="43.713007969781756" lon="6.504911994561553">
        <ele>899.92999999999995</ele>
        <time>2025-05-18T07:56:39Z</time>
      </trkpt>
      <trkpt lat="43.712934963405132" lon="6.505023976787925">
        <ele>899.45000000000005</ele>
        <time>2025-05-18T07:56:40Z</time>
      </trkpt>
      <trkpt lat="43.712841002270579" lon="6.505086002871394">
        <ele>898.97000000000003</ele>
        <time>2025-05-18T07:56:41Z</time>
      </trkpt>
      <trkpt lat="43.712749974802136" lon="6.505148028954864">
        <ele>898.97000000000003</ele>
        <time>2025-05-18T07:56:42Z</time>
      </trkpt>
      <trkpt lat="43.712665988132358" lon="6.50520795956254">
        <ele>898.97000000000003</ele>
        <time>2025-05-18T07:56:43Z</time>
      </trkpt>
      <trkpt lat="43.712626006454229" lon="6.505236960947514">
        <ele>898.49000000000001</ele>
        <time>2025-05-18T07:56:44Z</time>
      </trkpt>
      <trkpt lat="43.712565992027521" lon="6.505371993407607">
        <ele>898.00999999999999</ele>
        <time>2025-05-18T07:56:45Z</time>
      </trkpt>
      <trkpt lat="43.712540008127689" lon="6.505429996177554">
        <ele>898.00999999999999</ele>
        <time>2025-05-18T07:56:46Z</time>
      </trkpt>
      <trkpt lat="43.712540008127689" lon="6.505429996177554">
        <ele>897.52999999999997</ele>
        <time>2025-05-18T07:56:47Z</time>
      </trkpt>
      <trkpt lat="43.712398018687963" lon="6.505589000880718">
        <ele>897.04999999999995</ele>
        <time>2025-05-18T07:56:48Z</time>
      </trkpt>
      <trkpt lat="43.712344039231539" lon="6.50559201836586">
        <ele>896.57000000000005</ele>
        <time>2025-05-18T07:56:49Z</time>
      </trkpt>
      <trkpt lat="43.712272960692644" lon="6.505596963688731">
        <ele>896.57000000000005</ele>
        <time>2025-05-18T07:56:50Z</time>
      </trkpt>
      <trkpt lat="43.712190985679626" lon="6.505611967295408">
        <ele>896.09000000000003</ele>
        <time>2025-05-18T07:56:51Z</time>
      </trkpt>
      <trkpt lat="43.712099036201835" lon="6.505645997822285">
        <ele>895.61000000000001</ele>
        <time>2025-05-18T07:56:52Z</time>
      </trkpt>
      <trkpt lat="43.71200499124825" lon="6.505691008642316">
        <ele>895.61000000000001</ele>
        <time>2025-05-18T07:56:53Z</time>
      </trkpt>
      <trkpt lat="43.711911030113697" lon="6.505744988098741">
        <ele>895.12</ele>
        <time>2025-05-18T07:56:54Z</time>
      </trkpt>
      <trkpt lat="43.711813967674971" lon="6.505795028060675">
        <ele>895.12</ele>
        <time>2025-05-18T07:56:55Z</time>
      </trkpt>
      <trkpt lat="43.711715983226895" lon="6.505845990031958">
        <ele>895.61000000000001</ele>
        <time>2025-05-18T07:56:56Z</time>
      </trkpt>
      <trkpt lat="43.711375007405877" lon="6.506023015826941">
        <ele>897.04999999999995</ele>
        <time>2025-05-18T07:57:00Z</time>
      </trkpt>
      <trkpt lat="43.711322033777833" lon="6.506074983626604">
        <ele>897.52999999999997</ele>
        <time>2025-05-18T07:57:01Z</time>
      </trkpt>
      <trkpt lat="43.711270987987518" lon="6.506134998053312">
        <ele>897.04999999999995</ele>
        <time>2025-05-18T07:57:02Z</time>
      </trkpt>
      <trkpt lat="43.711222037672997" lon="6.506193000823259">
        <ele>897.04999999999995</ele>
        <time>2025-05-18T07:57:03Z</time>
      </trkpt>
      <trkpt lat="43.711175015196204" lon="6.506256032735109">
        <ele>897.04999999999995</ele>
        <time>2025-05-18T07:57:04Z</time>
      </trkpt>
      <trkpt lat="43.710778970271349" lon="6.506761964410543">
        <ele>898.97000000000003</ele>
        <time>2025-05-18T07:57:12Z</time>
      </trkpt>
      <trkpt lat="43.710747035220265" lon="6.506803035736084">
        <ele>898.97000000000003</ele>
        <time>2025-05-18T07:57:13Z</time>
      </trkpt>
      <trkpt lat="43.710668999701738" lon="6.506834970787168">
        <ele>899.45000000000005</ele>
        <time>2025-05-18T07:57:14Z</time>
      </trkpt>
      <trkpt lat="43.710624994710088" lon="6.506780991330743">
        <ele>899.92999999999995</ele>
        <time>2025-05-18T07:57:15Z</time>
      </trkpt>
      <trkpt lat="43.710577972233295" lon="6.506720976904035">
        <ele>899.92999999999995</ele>
        <time>2025-05-18T07:57:16Z</time>
      </trkpt>
      <trkpt lat="43.710528016090393" lon="6.506659034639597">
        <ele>900.40999999999997</ele>
        <time>2025-05-18T07:57:17Z</time>
      </trkpt>
      <trkpt lat="43.710437994450331" lon="6.506544034928083">
        <ele>900.40999999999997</ele>
        <time>2025-05-18T07:57:18Z</time>
      </trkpt>
      <trkpt lat="43.710462972521782" lon="6.506446972489357">
        <ele>900.88999999999999</ele>
        <time>2025-05-18T07:57:19Z</time>
      </trkpt>
      <trkpt lat="43.710494991391897" lon="6.506327027454972">
        <ele>901.37</ele>
        <time>2025-05-18T07:57:20Z</time>
      </trkpt>
      <trkpt lat="43.710530027747154" lon="6.506193000823259">
        <ele>901.37</ele>
        <time>2025-05-18T07:57:21Z</time>
      </trkpt>
      <trkpt lat="43.710569003596902" lon="6.506041958928108">
        <ele>901.37</ele>
        <time>2025-05-18T07:57:22Z</time>
      </trkpt>
      <trkpt lat="43.710879972204566" lon="6.504676965996623">
        <ele>903.77999999999997</ele>
        <time>2025-05-18T07:57:30Z</time>
      </trkpt>
      <trkpt lat="43.711127992719412" lon="6.503490004688501">
        <ele>905.70000000000005</ele>
        <time>2025-05-18T07:57:36Z</time>
      </trkpt>
      <trkpt lat="43.711590003222227" lon="6.501468038186431">
        <ele>907.62</ele>
        <time>2025-05-18T07:57:44Z</time>
      </trkpt>
      <trkpt lat="43.712036004289985" lon="6.499464008957148">
        <ele>908.58000000000004</ele>
        <time>2025-05-18T07:57:51Z</time>
      </trkpt>
      <trkpt lat="43.712488040328026" lon="6.497523011639714">
        <ele>911.47000000000003</ele>
        <time>2025-05-18T07:57:58Z</time>
      </trkpt>
      <trkpt lat="43.712669005617499" lon="6.495850989595056">
        <ele>910.99000000000001</ele>
        <time>2025-05-18T07:58:04Z</time>
      </trkpt>
      <trkpt lat="43.712929012253881" lon="6.493565998971462">
        <ele>908.10000000000002</ele>
        <time>2025-05-18T07:58:12Z</time>
      </trkpt>
      <trkpt lat="43.71303403750062" lon="6.492072008550167">
        <ele>907.13999999999999</ele>
        <time>2025-05-18T07:58:17Z</time>
      </trkpt>
      <trkpt lat="43.71303403750062" lon="6.491544032469392">
        <ele>907.62</ele>
        <time>2025-05-18T07:58:19Z</time>
      </trkpt>
      <trkpt lat="43.71307997033" lon="6.491309003904462">
        <ele>907.62</ele>
        <time>2025-05-18T07:58:20Z</time>
      </trkpt>
      <trkpt lat="43.71314400807023" lon="6.491108005866408">
        <ele>907.62</ele>
        <time>2025-05-18T07:58:21Z</time>
      </trkpt>
      <trkpt lat="43.713279962539673" lon="6.490760995075107">
        <ele>909.53999999999996</ele>
        <time>2025-05-18T07:58:23Z</time>
      </trkpt>
      <trkpt lat="43.713333019986749" lon="6.490625962615013">
        <ele>910.50999999999999</ele>
        <time>2025-05-18T07:58:24Z</time>
      </trkpt>
      <trkpt lat="43.713304018601775" lon="6.490478022024036">
        <ele>911.47000000000003</ele>
        <time>2025-05-18T07:58:25Z</time>
      </trkpt>
      <trkpt lat="43.713268982246518" lon="6.490310970693827">
        <ele>911.95000000000005</ele>
        <time>2025-05-18T07:58:26Z</time>
      </trkpt>
      <trkpt lat="43.71322900056839" lon="6.490120030939579">
        <ele>911.95000000000005</ele>
        <time>2025-05-18T07:58:27Z</time>
      </trkpt>
      <trkpt lat="43.713140990585089" lon="6.489701019600034">
        <ele>912.42999999999995</ele>
        <time>2025-05-18T07:58:29Z</time>
      </trkpt>
      <trkpt lat="43.713140990585089" lon="6.489474959671497">
        <ele>912.42999999999995</ele>
        <time>2025-05-18T07:58:30Z</time>
      </trkpt>
      <trkpt lat="43.713140990585089" lon="6.489247977733612">
        <ele>912.90999999999997</ele>
        <time>2025-05-18T07:58:31Z</time>
      </trkpt>
      <trkpt lat="43.713207961991429" lon="6.489041028544307">
        <ele>913.38999999999999</ele>
        <time>2025-05-18T07:58:32Z</time>
      </trkpt>
      <trkpt lat="43.713293960317969" lon="6.488829972222447">
        <ele>913.87</ele>
        <time>2025-05-18T07:58:33Z</time>
      </trkpt>
      <trkpt lat="43.71338197030127" lon="6.488611036911607">
        <ele>914.35000000000002</ele>
        <time>2025-05-18T07:58:34Z</time>
      </trkpt>
      <trkpt lat="43.713474003598094" lon="6.48838397115469">
        <ele>915.30999999999995</ele>
        <time>2025-05-18T07:58:35Z</time>
      </trkpt>
      <trkpt lat="43.713683970272541" lon="6.487958002835512">
        <ele>916.26999999999998</ele>
        <time>2025-05-18T07:58:37Z</time>
      </trkpt>
      <trkpt lat="43.713817996904254" lon="6.487763961777091">
        <ele>916.75</ele>
        <time>2025-05-18T07:58:38Z</time>
      </trkpt>
      <trkpt lat="43.714683009311557" lon="6.486416989937425">
        <ele>922.51999999999998</ele>
        <time>2025-05-18T07:58:45Z</time>
      </trkpt>
      <trkpt lat="43.714761966839433" lon="6.486233007162809">
        <ele>923.48000000000002</ele>
        <time>2025-05-18T07:58:46Z</time>
      </trkpt>
      <trkpt lat="43.71482097543776" lon="6.486038966104388">
        <ele>923.96000000000004</ele>
        <time>2025-05-18T07:58:47Z</time>
      </trkpt>
      <trkpt lat="43.714856011793017" lon="6.485856994986534">
        <ele>924.45000000000005</ele>
        <time>2025-05-18T07:58:48Z</time>
      </trkpt>
      <trkpt lat="43.714865986257792" lon="6.485673012211919">
        <ele>925.40999999999997</ele>
        <time>2025-05-18T07:58:49Z</time>
      </trkpt>
      <trkpt lat="43.714826004579663" lon="6.485489029437304">
        <ele>925.88999999999999</ele>
        <time>2025-05-18T07:58:50Z</time>
      </trkpt>
      <trkpt lat="43.714780993759632" lon="6.485286019742489">
        <ele>926.85000000000002</ele>
        <time>2025-05-18T07:58:51Z</time>
      </trkpt>
      <trkpt lat="43.714732965454459" lon="6.485065994784236">
        <ele>927.80999999999995</ele>
        <time>2025-05-18T07:58:52Z</time>
      </trkpt>
      <trkpt lat="43.714570021256804" lon="6.48419301956892">
        <ele>930.21000000000004</ele>
        <time>2025-05-18T07:58:56Z</time>
      </trkpt>
      <trkpt lat="43.714587036520243" lon="6.483989004045725">
        <ele>931.16999999999996</ele>
        <time>2025-05-18T07:58:57Z</time>
      </trkpt>
      <trkpt lat="43.714619977399707" lon="6.483790017664433">
        <ele>932.13999999999999</ele>
        <time>2025-05-18T07:58:58Z</time>
      </trkpt>
      <trkpt lat="43.714720979332924" lon="6.483629001304507">
        <ele>933.10000000000002</ele>
        <time>2025-05-18T07:58:59Z</time>
      </trkpt>
      <trkpt lat="43.714827010408044" lon="6.483460022136569">
        <ele>934.05999999999995</ele>
        <time>2025-05-18T07:59:00Z</time>
      </trkpt>
      <trkpt lat="43.714935975149274" lon="6.483285007998347">
        <ele>935.01999999999998</ele>
        <time>2025-05-18T07:59:01Z</time>
      </trkpt>
      <trkpt lat="43.715416006743908" lon="6.482567014172673">
        <ele>939.83000000000004</ele>
        <time>2025-05-18T07:59:05Z</time>
      </trkpt>
      <trkpt lat="43.715568976476789" lon="6.482438016682863">
        <ele>940.78999999999996</ele>
        <time>2025-05-18T07:59:06Z</time>
      </trkpt>
      <trkpt lat="43.715737033635378" lon="6.482298038899899">
        <ele>941.26999999999998</ele>
        <time>2025-05-18T07:59:07Z</time>
      </trkpt>
      <trkpt lat="43.715924033895135" lon="6.482246993109584">
        <ele>942.23000000000002</ele>
        <time>2025-05-18T07:59:08Z</time>
      </trkpt>
      <trkpt lat="43.716117991134524" lon="6.482192007824779">
        <ele>943.66999999999996</ele>
        <time>2025-05-18T07:59:09Z</time>
      </trkpt>
      <trkpt lat="43.716712016612291" lon="6.482014982029796">
        <ele>947.51999999999998</ele>
        <time>2025-05-18T07:59:12Z</time>
      </trkpt>
      <trkpt lat="43.716897005215287" lon="6.481922026723623">
        <ele>948.48000000000002</ele>
        <time>2025-05-18T07:59:13Z</time>
      </trkpt>
      <trkpt lat="43.717075958848" lon="6.481823036447167">
        <ele>949.91999999999996</ele>
        <time>2025-05-18T07:59:14Z</time>
      </trkpt>
      <trkpt lat="43.718261998146772" lon="6.480857022106648">
        <ele>958.57000000000005</ele>
        <time>2025-05-18T07:59:21Z</time>
      </trkpt>
      <trkpt lat="43.718523010611534" lon="6.480609001591802">
        <ele>961.46000000000004</ele>
        <time>2025-05-18T07:59:23Z</time>
      </trkpt>
      <trkpt lat="43.718647984787822" lon="6.48045402020216">
        <ele>962.41999999999996</ele>
        <time>2025-05-18T07:59:24Z</time>
      </trkpt>
      <trkpt lat="43.718930035829544" lon="6.480117989704013">
        <ele>964.34000000000003</ele>
        <time>2025-05-18T07:59:26Z</time>
      </trkpt>
      <trkpt lat="43.719090968370438" lon="6.479970971122384">
        <ele>964.82000000000005</ele>
        <time>2025-05-18T07:59:27Z</time>
      </trkpt>
      <trkpt lat="43.719276040792465" lon="6.47985203191638">
        <ele>965.29999999999995</ele>
        <time>2025-05-18T07:59:28Z</time>
      </trkpt>
      <trkpt lat="43.719466980546713" lon="6.479741977527738">
        <ele>965.77999999999997</ele>
        <time>2025-05-18T07:59:29Z</time>
      </trkpt>
      <trkpt lat="43.719650041311979" lon="6.479636030271649">
        <ele>966.25999999999999</ele>
        <time>2025-05-18T07:59:30Z</time>
      </trkpt>
      <trkpt lat="43.719966039061546" lon="6.479435032233596">
        <ele>967.22000000000003</ele>
        <time>2025-05-18T07:59:32Z</time>
      </trkpt>
      <trkpt lat="43.720086989924312" lon="6.479269992560148">
        <ele>967.70000000000005</ele>
        <time>2025-05-18T07:59:33Z</time>
      </trkpt>
      <trkpt lat="43.721016962081194" lon="6.477734008803964">
        <ele>970.59000000000003</ele>
        <time>2025-05-18T07:59:40Z</time>
      </trkpt>
      <trkpt lat="43.721121987327933" lon="6.477461010217667">
        <ele>971.07000000000005</ele>
        <time>2025-05-18T07:59:41Z</time>
      </trkpt>
      <trkpt lat="43.722013989463449" lon="6.474820962175727">
        <ele>977.32000000000005</ele>
        <time>2025-05-18T07:59:50Z</time>
      </trkpt>
      <trkpt lat="43.722396036610007" lon="6.472937967628241">
        <ele>977.79999999999995</ele>
        <time>2025-05-18T07:59:56Z</time>
      </trkpt>
      <trkpt lat="43.722774982452393" lon="6.470453990623355">
        <ele>978.75999999999999</ele>
        <time>2025-05-18T08:00:04Z</time>
      </trkpt>
      <trkpt lat="43.723143031820655" lon="6.468840977177024">
        <ele>979.72000000000003</ele>
        <time>2025-05-18T08:00:10Z</time>
      </trkpt>
      <trkpt lat="43.72349800541997" lon="6.467581009492278">
        <ele>981.15999999999997</ele>
        <time>2025-05-18T08:00:15Z</time>
      </trkpt>
      <trkpt lat="43.723569000139832" lon="6.467396020889282">
        <ele>981.15999999999997</ele>
        <time>2025-05-18T08:00:16Z</time>
      </trkpt>
      <trkpt lat="43.723667990416288" lon="6.467223018407822">
        <ele>980.67999999999995</ele>
        <time>2025-05-18T08:00:17Z</time>
      </trkpt>
      <trkpt lat="43.723790030926466" lon="6.467087985947728">
        <ele>980.67999999999995</ele>
        <time>2025-05-18T08:00:18Z</time>
      </trkpt>
      <trkpt lat="43.723913999274373" lon="6.466977009549737">
        <ele>980.20000000000005</ele>
        <time>2025-05-18T08:00:19Z</time>
      </trkpt>
      <trkpt lat="43.724055988714099" lon="6.466929987072945">
        <ele>979.72000000000003</ele>
        <time>2025-05-18T08:00:20Z</time>
      </trkpt>
      <trkpt lat="43.72420895844698" lon="6.466901991516352">
        <ele>979.72000000000003</ele>
        <time>2025-05-18T08:00:21Z</time>
      </trkpt>
      <trkpt lat="43.724368968978524" lon="6.466947002336383">
        <ele>979.72000000000003</ele>
        <time>2025-05-18T08:00:22Z</time>
      </trkpt>
      <trkpt lat="43.724537026137114" lon="6.466993018984795">
        <ele>979.72000000000003</ele>
        <time>2025-05-18T08:00:23Z</time>
      </trkpt>
      <trkpt lat="43.724716985598207" lon="6.467042975127697">
        <ele>979.24000000000001</ele>
        <time>2025-05-18T08:00:24Z</time>
      </trkpt>
      <trkpt lat="43.724890993908048" lon="6.46709100343287">
        <ele>979.24000000000001</ele>
        <time>2025-05-18T08:00:25Z</time>
      </trkpt>
      <trkpt lat="43.725191988050938" lon="6.467166021466255">
        <ele>979.24000000000001</ele>
        <time>2025-05-18T08:00:27Z</time>
      </trkpt>
      <trkpt lat="43.725314028561115" lon="6.467120004817843">
        <ele>979.72000000000003</ele>
        <time>2025-05-18T08:00:28Z</time>
      </trkpt>
      <trkpt lat="43.725423999130726" lon="6.467011040076613">
        <ele>979.72000000000003</ele>
        <time>2025-05-18T08:00:29Z</time>
      </trkpt>
      <trkpt lat="43.725534975528717" lon="6.466868966817856">
        <ele>979.72000000000003</ele>
        <time>2025-05-18T08:00:30Z</time>
      </trkpt>
      <trkpt lat="43.725650981068611" lon="6.466720020398498">
        <ele>980.20000000000005</ele>
        <time>2025-05-18T08:00:31Z</time>
      </trkpt>
      <trkpt lat="43.726497972384095" lon="6.465283026918769">
        <ele>981.15999999999997</ele>
        <time>2025-05-18T08:00:38Z</time>
      </trkpt>
      <trkpt lat="43.726647002622485" lon="6.465173978358507">
        <ele>981.15999999999997</ele>
        <time>2025-05-18T08:00:39Z</time>
      </trkpt>
      <trkpt lat="43.726799972355366" lon="6.465087980031967">
        <ele>980.67999999999995</ele>
        <time>2025-05-18T08:00:40Z</time>
      </trkpt>
      <trkpt lat="43.726952020078897" lon="6.465045986697078">
        <ele>980.67999999999995</ele>
        <time>2025-05-18T08:00:41Z</time>
      </trkpt>
      <trkpt lat="43.727100966498256" lon="6.465045986697078">
        <ele>980.67999999999995</ele>
        <time>2025-05-18T08:00:42Z</time>
      </trkpt>
      <trkpt lat="43.727229963988066" lon="6.465045986697078">
        <ele>981.15999999999997</ele>
        <time>2025-05-18T08:00:43Z</time>
      </trkpt>
      <trkpt lat="43.727355021983385" lon="6.465015979483724">
        <ele>981.15999999999997</ele>
        <time>2025-05-18T08:00:44Z</time>
      </trkpt>
      <trkpt lat="43.727454012259841" lon="6.464916989207268">
        <ele>981.15999999999997</ele>
        <time>2025-05-18T08:00:45Z</time>
      </trkpt>
      <trkpt lat="43.7275580316782" lon="6.4647910092026">
        <ele>981.15999999999997</ele>
        <time>2025-05-18T08:00:46Z</time>
      </trkpt>
      <trkpt lat="43.727635983377695" lon="6.464624041691423">
        <ele>980.67999999999995</ele>
        <time>2025-05-18T08:00:47Z</time>
      </trkpt>
      <trkpt lat="43.72771100141108" lon="6.464438969269395">
        <ele>980.67999999999995</ele>
        <time>2025-05-18T08:00:48Z</time>
      </trkpt>
      <trkpt lat="43.727772021666169" lon="6.46423302590847">
        <ele>980.67999999999995</ele>
        <time>2025-05-18T08:00:49Z</time>
      </trkpt>
      <trkpt lat="43.727835975587368" lon="6.46401803009212">
        <ele>981.15999999999997</ele>
        <time>2025-05-18T08:00:50Z</time>
      </trkpt>
      <trkpt lat="43.728396976366639" lon="6.461775032803416">
        <ele>982.60000000000002</ele>
        <time>2025-05-18T08:00:59Z</time>
      </trkpt>
      <trkpt lat="43.728581964969635" lon="6.460979003459215">
        <ele>982.60000000000002</ele>
        <time>2025-05-18T08:01:02Z</time>
      </trkpt>
      <trkpt lat="43.72867600992322" lon="6.460742969065905">
        <ele>982.12</ele>
        <time>2025-05-18T08:01:03Z</time>
      </trkpt>
      <trkpt lat="43.729488970711827" lon="6.458531990647316">
        <ele>983.09000000000003</ele>
        <time>2025-05-18T08:01:12Z</time>
      </trkpt>
      <trkpt lat="43.730419026687741" lon="6.456358982250094">
        <ele>982.60000000000002</ele>
        <time>2025-05-18T08:01:21Z</time>
      </trkpt>
      <trkpt lat="43.73050301335752" lon="6.456164019182324">
        <ele>982.60000000000002</ele>
        <time>2025-05-18T08:01:22Z</time>
      </trkpt>
      <trkpt lat="43.730540983378887" lon="6.455942988395691">
        <ele>982.12</ele>
        <time>2025-05-18T08:01:23Z</time>
      </trkpt>
      <trkpt lat="43.730565961450338" lon="6.455708965659142">
        <ele>982.12</ele>
        <time>2025-05-18T08:01:24Z</time>
      </trkpt>
      <trkpt lat="43.730577025562525" lon="6.455463040620089">
        <ele>982.12</ele>
        <time>2025-05-18T08:01:25Z</time>
      </trkpt>
      <trkpt lat="43.73058901168406" lon="6.455205967649818">
        <ele>981.63999999999999</ele>
        <time>2025-05-18T08:01:26Z</time>
      </trkpt>
      <trkpt lat="43.730602003633976" lon="6.454933974891901">
        <ele>981.15999999999997</ele>
        <time>2025-05-18T08:01:27Z</time>
      </trkpt>
      <trkpt lat="43.73063201084733" lon="6.454661982133985">
        <ele>981.15999999999997</ele>
        <time>2025-05-18T08:01:28Z</time>
      </trkpt>
      <trkpt lat="43.730714991688728" lon="6.454166024923325">
        <ele>980.67999999999995</ele>
        <time>2025-05-18T08:01:30Z</time>
      </trkpt>
      <trkpt lat="43.730757990851998" lon="6.453910041600466">
        <ele>980.20000000000005</ele>
        <time>2025-05-18T08:01:31Z</time>
      </trkpt>
      <trkpt lat="43.730751033872366" lon="6.453713988885284">
        <ele>980.20000000000005</ele>
        <time>2025-05-18T08:01:32Z</time>
      </trkpt>
      <trkpt lat="43.730738963931799" lon="6.453289026394486">
        <ele>979.72000000000003</ele>
        <time>2025-05-18T08:01:34Z</time>
      </trkpt>
      <trkpt lat="43.731094021350145" lon="6.451825965195894">
        <ele>980.20000000000005</ele>
        <time>2025-05-18T08:01:42Z</time>
      </trkpt>
      <trkpt lat="43.731765998527408" lon="6.450329963117838">
        <ele>979.72000000000003</ele>
        <time>2025-05-18T08:01:48Z</time>
      </trkpt>
      <trkpt lat="43.732284000143409" lon="6.449525970965624">
        <ele>979.24000000000001</ele>
        <time>2025-05-18T08:01:52Z</time>
      </trkpt>
      <trkpt lat="43.732389025390148" lon="6.449334025382996">
        <ele>979.24000000000001</ele>
        <time>2025-05-18T08:01:53Z</time>
      </trkpt>
      <trkpt lat="43.733225958421826" lon="6.447191024199128">
        <ele>979.24000000000001</ele>
        <time>2025-05-18T08:02:02Z</time>
      </trkpt>
      <trkpt lat="43.733845967799425" lon="6.445762999355793">
        <ele>978.75999999999999</ele>
        <time>2025-05-18T08:02:08Z</time>
      </trkpt>
      <trkpt lat="43.73387698084116" lon="6.44554004073143">
        <ele>978.75999999999999</ele>
        <time>2025-05-18T08:02:09Z</time>
      </trkpt>
      <trkpt lat="43.733907993882895" lon="6.445315992459655">
        <ele>978.75999999999999</ele>
        <time>2025-05-18T08:02:10Z</time>
      </trkpt>
      <trkpt lat="43.734150985255837" lon="6.44395099952817">
        <ele>978.27999999999997</ele>
        <time>2025-05-18T08:02:16Z</time>
      </trkpt>
      <trkpt lat="43.734224997460842" lon="6.443738015368581">
        <ele>978.27999999999997</ele>
        <time>2025-05-18T08:02:17Z</time>
      </trkpt>
      <trkpt lat="43.734812987968326" lon="6.442365981638432">
        <ele>977.32000000000005</ele>
        <time>2025-05-18T08:02:23Z</time>
      </trkpt>
      <trkpt lat="43.735406007617712" lon="6.440673004835844">
        <ele>978.27999999999997</ele>
        <time>2025-05-18T08:02:30Z</time>
      </trkpt>
      <trkpt lat="43.735457975417376" lon="6.440438982099295">
        <ele>978.27999999999997</ele>
        <time>2025-05-18T08:02:31Z</time>
      </trkpt>
      <trkpt lat="43.735483959317207" lon="6.440191967412829">
        <ele>978.27999999999997</ele>
        <time>2025-05-18T08:02:32Z</time>
      </trkpt>
      <trkpt lat="43.735512960702181" lon="6.439727023243904">
        <ele>977.79999999999995</ele>
        <time>2025-05-18T08:02:34Z</time>
      </trkpt>
      <trkpt lat="43.735579010099173" lon="6.439505992457271">
        <ele>977.79999999999995</ele>
        <time>2025-05-18T08:02:35Z</time>
      </trkpt>
      <trkpt lat="43.735830970108509" lon="6.43881700001657">
        <ele>977.79999999999995</ele>
        <time>2025-05-18T08:02:38Z</time>
      </trkpt>
      <trkpt lat="43.735940018668771" lon="6.438591023907065">
        <ele>977.79999999999995</ele>
        <time>2025-05-18T08:02:39Z</time>
      </trkpt>
      <trkpt lat="43.736853981390595" lon="6.437017992138863">
        <ele>977.32000000000005</ele>
        <time>2025-05-18T08:02:47Z</time>
      </trkpt>
      <trkpt lat="43.736944003030658" lon="6.43668900243938">
        <ele>977.32000000000005</ele>
        <time>2025-05-18T08:02:49Z</time>
      </trkpt>
      <trkpt lat="43.736949032172561" lon="6.436528991907835">
        <ele>977.32000000000005</ele>
        <time>2025-05-18T08:02:50Z</time>
      </trkpt>
      <trkpt lat="43.736915001645684" lon="6.436358001083136">
        <ele>977.32000000000005</ele>
        <time>2025-05-18T08:02:51Z</time>
      </trkpt>
      <trkpt lat="43.736852975562215" lon="6.436178963631392">
        <ele>977.32000000000005</ele>
        <time>2025-05-18T08:02:52Z</time>
      </trkpt>
      <trkpt lat="43.736786004155874" lon="6.435989029705524">
        <ele>977.32000000000005</ele>
        <time>2025-05-18T08:02:53Z</time>
      </trkpt>
      <trkpt lat="43.736379984766245" lon="6.435006000101566">
        <ele>976.36000000000001</ele>
        <time>2025-05-18T08:02:58Z</time>
      </trkpt>
      <trkpt lat="43.736315025016665" lon="6.434780023992062">
        <ele>975.88</ele>
        <time>2025-05-18T08:02:59Z</time>
      </trkpt>
      <trkpt lat="43.736256016418338" lon="6.434570979326963">
        <ele>975.38999999999999</ele>
        <time>2025-05-18T08:03:00Z</time>
      </trkpt>
      <trkpt lat="43.736250987276435" lon="6.434359000995755">
        <ele>975.38999999999999</ele>
        <time>2025-05-18T08:03:01Z</time>
      </trkpt>
      <trkpt lat="43.736254004761577" lon="6.434155991300941">
        <ele>975.38999999999999</ele>
        <time>2025-05-18T08:03:02Z</time>
      </trkpt>
      <trkpt lat="43.736294992268085" lon="6.433952981606126">
        <ele>974.90999999999997</ele>
        <time>2025-05-18T08:03:03Z</time>
      </trkpt>
      <trkpt lat="43.736337991431355" lon="6.43374502658844">
        <ele>974.90999999999997</ele>
        <time>2025-05-18T08:03:04Z</time>
      </trkpt>
      <trkpt lat="43.736610990017653" lon="6.432645991444588">
        <ele>974.90999999999997</ele>
        <time>2025-05-18T08:03:09Z</time>
      </trkpt>
      <trkpt lat="43.736707968637347" lon="6.43243501894176">
        <ele>974.90999999999997</ele>
        <time>2025-05-18T08:03:10Z</time>
      </trkpt>
      <trkpt lat="43.736808970570564" lon="6.432215999811888">
        <ele>974.90999999999997</ele>
        <time>2025-05-18T08:03:11Z</time>
      </trkpt>
      <trkpt lat="43.736956994980574" lon="6.432056995108724">
        <ele>974.90999999999997</ele>
        <time>2025-05-18T08:03:12Z</time>
      </trkpt>
      <trkpt lat="43.737111976370215" lon="6.431891033425927">
        <ele>974.90999999999997</ele>
        <time>2025-05-18T08:03:13Z</time>
      </trkpt>
      <trkpt lat="43.737269975244999" lon="6.431720964610577">
        <ele>974.90999999999997</ele>
        <time>2025-05-18T08:03:14Z</time>
      </trkpt>
      <trkpt lat="43.737434009090066" lon="6.431561037898064">
        <ele>974.90999999999997</ele>
        <time>2025-05-18T08:03:15Z</time>
      </trkpt>
      <trkpt lat="43.738441010937095" lon="6.43076098524034">
        <ele>974.90999999999997</ele>
        <time>2025-05-18T08:03:21Z</time>
      </trkpt>
      <trkpt lat="43.738580988720059" lon="6.430582031607628">
        <ele>975.38999999999999</ele>
        <time>2025-05-18T08:03:22Z</time>
      </trkpt>
      <trkpt lat="43.738719038665295" lon="6.430405005812645">
        <ele>975.38999999999999</ele>
        <time>2025-05-18T08:03:23Z</time>
      </trkpt>
      <trkpt lat="43.738820040598512" lon="6.430209958925843">
        <ele>975.88</ele>
        <time>2025-05-18T08:03:24Z</time>
      </trkpt>
      <trkpt lat="43.738905033096671" lon="6.43000896088779">
        <ele>975.88</ele>
        <time>2025-05-18T08:03:25Z</time>
      </trkpt>
      <trkpt lat="43.738958006724715" lon="6.429790025576949">
        <ele>975.88</ele>
        <time>2025-05-18T08:03:26Z</time>
      </trkpt>
      <trkpt lat="43.738996982574463" lon="6.429549967870116">
        <ele>976.36000000000001</ele>
        <time>2025-05-18T08:03:27Z</time>
      </trkpt>
      <trkpt lat="43.739036964252591" lon="6.429303037002683">
        <ele>976.84000000000003</ele>
        <time>2025-05-18T08:03:28Z</time>
      </trkpt>
      <trkpt lat="43.739239973947406" lon="6.428574984893203">
        <ele>976.84000000000003</ele>
        <time>2025-05-18T08:03:31Z</time>
      </trkpt>
      <trkpt lat="43.739352039992809" lon="6.428371975198388">
        <ele>976.84000000000003</ele>
        <time>2025-05-18T08:03:32Z</time>
      </trkpt>
      <trkpt lat="43.739480031654239" lon="6.428168965503573">
        <ele>976.84000000000003</ele>
        <time>2025-05-18T08:03:33Z</time>
      </trkpt>
      <trkpt lat="43.739967020228505" lon="6.427357010543346">
        <ele>978.75999999999999</ele>
        <time>2025-05-18T08:03:37Z</time>
      </trkpt>
      <trkpt lat="43.740059975534678" lon="6.427129022777081">
        <ele>979.24000000000001</ele>
        <time>2025-05-18T08:03:38Z</time>
      </trkpt>
      <trkpt lat="43.740362981334329" lon="6.426455033943057">
        <ele>980.20000000000005</ele>
        <time>2025-05-18T08:03:41Z</time>
      </trkpt>
      <trkpt lat="43.740499019622803" lon="6.426287982612848">
        <ele>980.20000000000005</ele>
        <time>2025-05-18T08:03:42Z</time>
      </trkpt>
      <trkpt lat="43.74064402654767" lon="6.426131995394826">
        <ele>980.67999999999995</ele>
        <time>2025-05-18T08:03:43Z</time>
      </trkpt>
      <trkpt lat="43.740791967138648" lon="6.425971984863281">
        <ele>981.15999999999997</ele>
        <time>2025-05-18T08:03:44Z</time>
      </trkpt>
      <trkpt lat="43.740940997377038" lon="6.425811974331737">
        <ele>981.63999999999999</ele>
        <time>2025-05-18T08:03:45Z</time>
      </trkpt>
      <trkpt lat="43.742122007533908" lon="6.423998968675733">
        <ele>984.52999999999997</ele>
        <time>2025-05-18T08:03:54Z</time>
      </trkpt>
      <trkpt lat="43.742729024961591" lon="6.423017028719187">
        <ele>985.97000000000003</ele>
        <time>2025-05-18T08:03:59Z</time>
      </trkpt>
      <trkpt lat="43.742867996916175" lon="6.422871015965939">
        <ele>985.97000000000003</ele>
        <time>2025-05-18T08:04:00Z</time>
      </trkpt>
      <trkpt lat="43.743037981912494" lon="6.422806978225708">
        <ele>986.45000000000005</ele>
        <time>2025-05-18T08:04:01Z</time>
      </trkpt>
      <trkpt lat="43.743216013535857" lon="6.42274796962738">
        <ele>986.45000000000005</ele>
        <time>2025-05-18T08:04:02Z</time>
      </trkpt>
      <trkpt lat="43.743399996310472" lon="6.422720979899168">
        <ele>986.92999999999995</ele>
        <time>2025-05-18T08:04:03Z</time>
      </trkpt>
      <trkpt lat="43.74358699657023" lon="6.422692984342575">
        <ele>987.88999999999999</ele>
        <time>2025-05-18T08:04:04Z</time>
      </trkpt>
      <trkpt lat="43.743773996829987" lon="6.422664988785982">
        <ele>988.37</ele>
        <time>2025-05-18T08:04:05Z</time>
      </trkpt>
      <trkpt lat="43.743957979604602" lon="6.422636993229389">
        <ele>989.33000000000004</ele>
        <time>2025-05-18T08:04:06Z</time>
      </trkpt>
      <trkpt lat="43.744133999571204" lon="6.422564992681146">
        <ele>989.80999999999995</ele>
        <time>2025-05-18T08:04:07Z</time>
      </trkpt>
      <trkpt lat="43.744300967082381" lon="6.422458961606026">
        <ele>990.29999999999995</ele>
        <time>2025-05-18T08:04:08Z</time>
      </trkpt>
      <trkpt lat="43.744466006755829" lon="6.422354020178318">
        <ele>991.25999999999999</ele>
        <time>2025-05-18T08:04:09Z</time>
      </trkpt>
      <trkpt lat="43.744604978710413" lon="6.422194009646773">
        <ele>991.74000000000001</ele>
        <time>2025-05-18T08:04:10Z</time>
      </trkpt>
      <trkpt lat="43.744727019220591" lon="6.422024024650455">
        <ele>991.74000000000001</ele>
        <time>2025-05-18T08:04:11Z</time>
      </trkpt>
      <trkpt lat="43.744842018932104" lon="6.421799976378679">
        <ele>992.22000000000003</ele>
        <time>2025-05-18T08:04:12Z</time>
      </trkpt>
      <trkpt lat="43.744954001158476" lon="6.421581963077188">
        <ele>992.22000000000003</ele>
        <time>2025-05-18T08:04:13Z</time>
      </trkpt>
      <trkpt lat="43.745064977556467" lon="6.421365961432457">
        <ele>992.22000000000003</ele>
        <time>2025-05-18T08:04:14Z</time>
      </trkpt>
      <trkpt lat="43.745192969217896" lon="6.421174015849829">
        <ele>992.22000000000003</ele>
        <time>2025-05-18T08:04:15Z</time>
      </trkpt>
      <trkpt lat="43.74535096809268" lon="6.421025991439819">
        <ele>992.70000000000005</ele>
        <time>2025-05-18T08:04:16Z</time>
      </trkpt>
      <trkpt lat="43.747080992907286" lon="6.419442985206842">
        <ele>997.01999999999998</ele>
        <time>2025-05-18T08:04:26Z</time>
      </trkpt>
      <trkpt lat="43.747408976778388" lon="6.419142996892333">
        <ele>997.50999999999999</ele>
        <time>2025-05-18T08:04:28Z</time>
      </trkpt>
      <trkpt lat="43.747576028108597" lon="6.419053981080651">
        <ele>997.50999999999999</ele>
        <time>2025-05-18T08:04:29Z</time>
      </trkpt>
      <trkpt lat="43.747745007276535" lon="6.41900503076613">
        <ele>997.50999999999999</ele>
        <time>2025-05-18T08:04:30Z</time>
      </trkpt>
      <trkpt lat="43.748364010825753" lon="6.418830016627908">
        <ele>998.47000000000003</ele>
        <time>2025-05-18T08:04:34Z</time>
      </trkpt>
      <trkpt lat="43.748522009700537" lon="6.418873015791178">
        <ele>998.47000000000003</ele>
        <time>2025-05-18T08:04:35Z</time>
      </trkpt>
      <trkpt lat="43.748681014403701" lon="6.418935963883996">
        <ele>998.47000000000003</ele>
        <time>2025-05-18T08:04:36Z</time>
      </trkpt>
      <trkpt lat="43.74882803298533" lon="6.419006958603859">
        <ele>998.95000000000005</ele>
        <time>2025-05-18T08:04:37Z</time>
      </trkpt>
      <trkpt lat="43.748968010768294" lon="6.419076025485992">
        <ele>999.42999999999995</ele>
        <time>2025-05-18T08:04:38Z</time>
      </trkpt>
      <trkpt lat="43.749389033764601" lon="6.419280963018537">
        <ele>1000.39</ele>
        <time>2025-05-18T08:04:41Z</time>
      </trkpt>
      <trkpt lat="43.749544015154243" lon="6.419320022687316">
        <ele>1000.39</ele>
        <time>2025-05-18T08:04:42Z</time>
      </trkpt>
      <trkpt lat="43.749706037342548" lon="6.419320022687316">
        <ele>1000.39</ele>
        <time>2025-05-18T08:04:43Z</time>
      </trkpt>
      <trkpt lat="43.750509023666382" lon="6.419254979118705">
        <ele>1000.87</ele>
        <time>2025-05-18T08:04:48Z</time>
      </trkpt>
      <trkpt lat="43.750660987570882" lon="6.419228995218873">
        <ele>1001.35</ele>
        <time>2025-05-18T08:04:49Z</time>
      </trkpt>
      <trkpt lat="43.750803982838988" lon="6.419161017984152">
        <ele>1001.35</ele>
        <time>2025-05-18T08:04:50Z</time>
      </trkpt>
      <trkpt lat="43.750945972278714" lon="6.41909496858716">
        <ele>1001.83</ele>
        <time>2025-05-18T08:04:51Z</time>
      </trkpt>
      <trkpt lat="43.751087039709091" lon="6.418995978310704">
        <ele>1001.83</ele>
        <time>2025-05-18T08:04:52Z</time>
      </trkpt>
      <trkpt lat="43.751219976693392" lon="6.418873015791178">
        <ele>1002.3099999999999</ele>
        <time>2025-05-18T08:04:53Z</time>
      </trkpt>
      <trkpt lat="43.751347968354821" lon="6.418722979724407">
        <ele>1002.3099999999999</ele>
        <time>2025-05-18T08:04:54Z</time>
      </trkpt>
      <trkpt lat="43.751463973894715" lon="6.418564980849624">
        <ele>1002.79</ele>
        <time>2025-05-18T08:04:55Z</time>
      </trkpt>
      <trkpt lat="43.751577967777848" lon="6.41840597614646">
        <ele>1003.27</ele>
        <time>2025-05-18T08:04:56Z</time>
      </trkpt>
      <trkpt lat="43.751660026609898" lon="6.418220987543464">
        <ele>1003.27</ele>
        <time>2025-05-18T08:04:57Z</time>
      </trkpt>
      <trkpt lat="43.751739989966154" lon="6.41803901642561">
        <ele>1003.75</ele>
        <time>2025-05-18T08:04:58Z</time>
      </trkpt>
      <trkpt lat="43.751837974414229" lon="6.417673984542489">
        <ele>1003.75</ele>
        <time>2025-05-18T08:05:00Z</time>
      </trkpt>
      <trkpt lat="43.751861024647951" lon="6.417496036738157">
        <ele>1003.75</ele>
        <time>2025-05-18T08:05:01Z</time>
      </trkpt>
      <trkpt lat="43.751870999112725" lon="6.41731096431613">
        <ele>1004.23</ele>
        <time>2025-05-18T08:05:02Z</time>
      </trkpt>
      <trkpt lat="43.751738984137774" lon="6.416347967460752">
        <ele>1004.23</ele>
        <time>2025-05-18T08:05:06Z</time>
      </trkpt>
      <trkpt lat="43.751637982204556" lon="6.41613095998764">
        <ele>1004.23</ele>
        <time>2025-05-18T08:05:07Z</time>
      </trkpt>
      <trkpt lat="43.751263981685042" lon="6.415282962843776">
        <ele>1004.72</ele>
        <time>2025-05-18T08:05:11Z</time>
      </trkpt>
      <trkpt lat="43.751241015270352" lon="6.415079031139612">
        <ele>1004.72</ele>
        <time>2025-05-18T08:05:12Z</time>
      </trkpt>
      <trkpt lat="43.751228023320436" lon="6.414964031428099">
        <ele>1004.72</ele>
        <time>2025-05-18T08:05:13Z</time>
      </trkpt>
      <trkpt lat="43.751268004998565" lon="6.414706958457828">
        <ele>1004.72</ele>
        <time>2025-05-18T08:05:14Z</time>
      </trkpt>
      <trkpt lat="43.75132299028337" lon="6.414562035351992">
        <ele>1004.72</ele>
        <time>2025-05-18T08:05:15Z</time>
      </trkpt>
      <trkpt lat="43.751399014145136" lon="6.414380986243486">
        <ele>1004.23</ele>
        <time>2025-05-18T08:05:16Z</time>
      </trkpt>
      <trkpt lat="43.751475038006902" lon="6.414232961833477">
        <ele>1003.27</ele>
        <time>2025-05-18T08:05:17Z</time>
      </trkpt>
      <trkpt lat="43.751549972221255" lon="6.414127014577389">
        <ele>1002.79</ele>
        <time>2025-05-18T08:05:18Z</time>
      </trkpt>
      <trkpt lat="43.751699002459645" lon="6.41400002874434">
        <ele>1002.3099999999999</ele>
        <time>2025-05-18T08:05:19Z</time>
      </trkpt>
      <trkpt lat="43.751832023262978" lon="6.413886034861207">
        <ele>1001.35</ele>
        <time>2025-05-18T08:05:20Z</time>
      </trkpt>
      <trkpt lat="43.751965966075659" lon="6.413771035149694">
        <ele>1000.87</ele>
        <time>2025-05-18T08:05:21Z</time>
      </trkpt>
      <trkpt lat="43.752073002979159" lon="6.413587974384427">
        <ele>999.90999999999997</ele>
        <time>2025-05-18T08:05:22Z</time>
      </trkpt>
      <trkpt lat="43.752145003527403" lon="6.413435004651547">
        <ele>998.95000000000005</ele>
        <time>2025-05-18T08:05:23Z</time>
      </trkpt>
      <trkpt lat="43.752170987427235" lon="6.413268959149718">
        <ele>998.47000000000003</ele>
        <time>2025-05-18T08:05:24Z</time>
      </trkpt>
      <trkpt lat="43.752167969942093" lon="6.413087993860245">
        <ele>997.99000000000001</ele>
        <time>2025-05-18T08:05:25Z</time>
      </trkpt>
      <trkpt lat="43.752165036275983" lon="6.412889007478952">
        <ele>997.50999999999999</ele>
        <time>2025-05-18T08:05:26Z</time>
      </trkpt>
      <trkpt lat="43.752151038497686" lon="6.411011964082718">
        <ele>992.70000000000005</ele>
        <time>2025-05-18T08:05:35Z</time>
      </trkpt>
      <trkpt lat="43.752167969942093" lon="6.410511983558536">
        <ele>990.29999999999995</ele>
        <time>2025-05-18T08:05:37Z</time>
      </trkpt>
      <trkpt lat="43.752209963276982" lon="6.410257006064057">
        <ele>988.85000000000002</ele>
        <time>2025-05-18T08:05:38Z</time>
      </trkpt>
      <trkpt lat="43.752264026552439" lon="6.410001022741199">
        <ele>987.88999999999999</ele>
        <time>2025-05-18T08:05:39Z</time>
      </trkpt>
      <trkpt lat="43.752607014030218" lon="6.408365964889526">
        <ele>979.24000000000001</ele>
        <time>2025-05-18T08:05:45Z</time>
      </trkpt>
      <trkpt lat="43.752620005980134" lon="6.408092966303229">
        <ele>978.27999999999997</ele>
        <time>2025-05-18T08:05:46Z</time>
      </trkpt>
      <trkpt lat="43.752614976838231" lon="6.407807981595397">
        <ele>976.84000000000003</ele>
        <time>2025-05-18T08:05:47Z</time>
      </trkpt>
      <trkpt lat="43.752564014866948" lon="6.405881987884641">
        <ele>972.50999999999999</ele>
        <time>2025-05-18T08:05:54Z</time>
      </trkpt>
      <trkpt lat="43.7525699660182" lon="6.405648970976472">
        <ele>972.50999999999999</ele>
        <time>2025-05-18T08:05:55Z</time>
      </trkpt>
      <trkpt lat="43.752601984888315" lon="6.405393993481994">
        <ele>972.02999999999997</ele>
        <time>2025-05-18T08:05:56Z</time>
      </trkpt>
      <trkpt lat="43.752666022628546" lon="6.405207999050617">
        <ele>971.54999999999995</ele>
        <time>2025-05-18T08:05:57Z</time>
      </trkpt>
      <trkpt lat="43.752743974328041" lon="6.404981017112732">
        <ele>971.07000000000005</ele>
        <time>2025-05-18T08:05:58Z</time>
      </trkpt>
      <trkpt lat="43.753001969307661" lon="6.404233016073704">
        <ele>969.63</ele>
        <time>2025-05-18T08:06:01Z</time>
      </trkpt>
      <trkpt lat="43.753047985956073" lon="6.403957000002265">
        <ele>969.14999999999998</ele>
        <time>2025-05-18T08:06:02Z</time>
      </trkpt>
      <trkpt lat="43.753073969855905" lon="6.403674026951194">
        <ele>968.66999999999996</ele>
        <time>2025-05-18T08:06:03Z</time>
      </trkpt>
      <trkpt lat="43.753121998161077" lon="6.40291403979063">
        <ele>967.70000000000005</ele>
        <time>2025-05-18T08:06:06Z</time>
      </trkpt>
      <trkpt lat="43.753065001219511" lon="6.40272100456059">
        <ele>967.22000000000003</ele>
        <time>2025-05-18T08:06:07Z</time>
      </trkpt>
      <trkpt lat="43.752991994842887" lon="6.402536015957594">
        <ele>966.74000000000001</ele>
        <time>2025-05-18T08:06:08Z</time>
      </trkpt>
      <trkpt lat="43.752886969596148" lon="6.402351027354598">
        <ele>966.25999999999999</ele>
        <time>2025-05-18T08:06:09Z</time>
      </trkpt>
      <trkpt lat="43.752774987369776" lon="6.402152962982655">
        <ele>965.77999999999997</ele>
        <time>2025-05-18T08:06:10Z</time>
      </trkpt>
      <trkpt lat="43.752209963276982" lon="6.401091981679201">
        <ele>960.49000000000001</ele>
        <time>2025-05-18T08:06:15Z</time>
      </trkpt>
      <trkpt lat="43.752109967172146" lon="6.400955021381378">
        <ele>959.52999999999997</ele>
        <time>2025-05-18T08:06:16Z</time>
      </trkpt>
      <trkpt lat="43.751987004652619" lon="6.400896012783051">
        <ele>958.57000000000005</ele>
        <time>2025-05-18T08:06:17Z</time>
      </trkpt>
      <trkpt lat="43.751716017723083" lon="6.400757040828466">
        <ele>956.16999999999996</ele>
        <time>2025-05-18T08:06:19Z</time>
      </trkpt>
      <trkpt lat="43.751577967777848" lon="6.400635000318289">
        <ele>954.73000000000002</ele>
        <time>2025-05-18T08:06:20Z</time>
      </trkpt>
      <trkpt lat="43.751202961429954" lon="6.400248007848859">
        <ele>950.39999999999998</ele>
        <time>2025-05-18T08:06:23Z</time>
      </trkpt>
      <trkpt lat="43.751127021387219" lon="6.400095038115978">
        <ele>949.44000000000005</ele>
        <time>2025-05-18T08:06:24Z</time>
      </trkpt>
      <trkpt lat="43.750969022512436" lon="6.399732017889619">
        <ele>946.55999999999995</ele>
        <time>2025-05-18T08:06:26Z</time>
      </trkpt>
      <trkpt lat="43.750848993659019" lon="6.399559015408158">
        <ele>945.11000000000001</ele>
        <time>2025-05-18T08:06:27Z</time>
      </trkpt>
      <trkpt lat="43.749821959063411" lon="6.39827499166131">
        <ele>935.5</ele>
        <time>2025-05-18T08:06:34Z</time>
      </trkpt>
      <trkpt lat="43.749703019857407" lon="6.398084973916411">
        <ele>934.53999999999996</ele>
        <time>2025-05-18T08:06:35Z</time>
      </trkpt>
      <trkpt lat="43.749576034024358" lon="6.397883975878358">
        <ele>933.58000000000004</ele>
        <time>2025-05-18T08:06:36Z</time>
      </trkpt>
      <trkpt lat="43.749436978250742" lon="6.397765036672354">
        <ele>932.62</ele>
        <time>2025-05-18T08:06:37Z</time>
      </trkpt>
      <trkpt lat="43.749287026003003" lon="6.397636039182544">
        <ele>931.64999999999998</ele>
        <time>2025-05-18T08:06:38Z</time>
      </trkpt>
      <trkpt lat="43.749147970229387" lon="6.397517016157508">
        <ele>930.21000000000004</ele>
        <time>2025-05-18T08:06:39Z</time>
      </trkpt>
      <trkpt lat="43.749050991609693" lon="6.397362034767866">
        <ele>928.76999999999998</ele>
        <time>2025-05-18T08:06:40Z</time>
      </trkpt>
      <trkpt lat="43.748976979404688" lon="6.397188026458025">
        <ele>927.80999999999995</ele>
        <time>2025-05-18T08:06:41Z</time>
      </trkpt>
      <trkpt lat="43.748919982463121" lon="6.396979987621307">
        <ele>926.37</ele>
        <time>2025-05-18T08:06:42Z</time>
      </trkpt>
      <trkpt lat="43.748858040198684" lon="6.396751999855042">
        <ele>925.40999999999997</ele>
        <time>2025-05-18T08:06:43Z</time>
      </trkpt>
      <trkpt lat="43.74878603965044" lon="6.39651102013886">
        <ele>923.96000000000004</ele>
        <time>2025-05-18T08:06:44Z</time>
      </trkpt>
      <trkpt lat="43.748686965554953" lon="6.396272974088788">
        <ele>923</ele>
        <time>2025-05-18T08:06:45Z</time>
      </trkpt>
      <trkpt lat="43.748586969450116" lon="6.396035011857748">
        <ele>921.55999999999995</ele>
        <time>2025-05-18T08:06:46Z</time>
      </trkpt>
      <trkpt lat="43.748459983617067" lon="6.395815992727876">
        <ele>919.63999999999999</ele>
        <time>2025-05-18T08:06:47Z</time>
      </trkpt>
      <trkpt lat="43.747668983414769" lon="6.394433984532952">
        <ele>910.50999999999999</ele>
        <time>2025-05-18T08:06:53Z</time>
      </trkpt>
      <trkpt lat="43.74670498073101" lon="6.392685016617179">
        <ele>897.04999999999995</ele>
        <time>2025-05-18T08:07:01Z</time>
      </trkpt>
      <trkpt lat="43.746584029868245" lon="6.392568005248904">
        <ele>895.61000000000001</ele>
        <time>2025-05-18T08:07:02Z</time>
      </trkpt>
      <trkpt lat="43.74644698575139" lon="6.392527017742395">
        <ele>894.15999999999997</ele>
        <time>2025-05-18T08:07:03Z</time>
      </trkpt>
      <trkpt lat="43.746299967169762" lon="6.392483012750745">
        <ele>892.72000000000003</ele>
        <time>2025-05-18T08:07:04Z</time>
      </trkpt>
      <trkpt lat="43.746207011863589" lon="6.392455017194152">
        <ele>891.27999999999997</ele>
        <time>2025-05-18T08:07:05Z</time>
      </trkpt>
      <trkpt lat="43.746051024645567" lon="6.392313027754426">
        <ele>889.84000000000003</ele>
        <time>2025-05-18T08:07:06Z</time>
      </trkpt>
      <trkpt lat="43.745962008833885" lon="6.39221697114408">
        <ele>888.39999999999998</ele>
        <time>2025-05-18T08:07:07Z</time>
      </trkpt>
      <trkpt lat="43.745899982750416" lon="6.392056038603187">
        <ele>887.42999999999995</ele>
        <time>2025-05-18T08:07:08Z</time>
      </trkpt>
      <trkpt lat="43.745829993858933" lon="6.391874989494681">
        <ele>885.99000000000001</ele>
        <time>2025-05-18T08:07:09Z</time>
      </trkpt>
      <trkpt lat="43.745751958340406" lon="6.391674997285008">
        <ele>884.54999999999995</ele>
        <time>2025-05-18T08:07:10Z</time>
      </trkpt>
      <trkpt lat="43.745515001937747" lon="6.391067979857326">
        <ele>881.19000000000005</ele>
        <time>2025-05-18T08:07:13Z</time>
      </trkpt>
      <trkpt lat="43.745412994176149" lon="6.390916015952826">
        <ele>879.74000000000001</ele>
        <time>2025-05-18T08:07:14Z</time>
      </trkpt>
      <trkpt lat="43.745296988636255" lon="6.390809984877706">
        <ele>878.77999999999997</ele>
        <time>2025-05-18T08:07:15Z</time>
      </trkpt>
      <trkpt lat="43.745162039995193" lon="6.390748964622617">
        <ele>877.82000000000005</ele>
        <time>2025-05-18T08:07:16Z</time>
      </trkpt>
      <trkpt lat="43.745037987828255" lon="6.390772014856339">
        <ele>876.86000000000001</ele>
        <time>2025-05-18T08:07:17Z</time>
      </trkpt>
      <trkpt lat="43.744932962581515" lon="6.390838986262679">
        <ele>876.38</ele>
        <time>2025-05-18T08:07:18Z</time>
      </trkpt>
      <trkpt lat="43.744810000061989" lon="6.390917021781206">
        <ele>875.41999999999996</ele>
        <time>2025-05-18T08:07:19Z</time>
      </trkpt>
      <trkpt lat="43.744532978162169" lon="6.391092035919428">
        <ele>873.5</ele>
        <time>2025-05-18T08:07:21Z</time>
      </trkpt>
      <trkpt lat="43.744385959580541" lon="6.391218015924096">
        <ele>872.52999999999997</ele>
        <time>2025-05-18T08:07:22Z</time>
      </trkpt>
      <trkpt lat="43.743872987106442" lon="6.391777005046606">
        <ele>868.69000000000005</ele>
        <time>2025-05-18T08:07:26Z</time>
      </trkpt>
      <trkpt lat="43.743775002658367" lon="6.39180701225996">
        <ele>867.73000000000002</ele>
        <time>2025-05-18T08:07:27Z</time>
      </trkpt>
      <trkpt lat="43.743662014603615" lon="6.391789996996522">
        <ele>867.25</ele>
        <time>2025-05-18T08:07:28Z</time>
      </trkpt>
      <trkpt lat="43.74352497048676" lon="6.391768958419561">
        <ele>865.79999999999995</ele>
        <time>2025-05-18T08:07:29Z</time>
      </trkpt>
      <trkpt lat="43.743422962725163" lon="6.391680026426911">
        <ele>864.84000000000003</ele>
        <time>2025-05-18T08:07:30Z</time>
      </trkpt>
      <trkpt lat="43.743290025740862" lon="6.391565026715398">
        <ele>863.88</ele>
        <time>2025-05-18T08:07:31Z</time>
      </trkpt>
      <trkpt lat="43.742873026058078" lon="6.39120502397418">
        <ele>860.51999999999998</ele>
        <time>2025-05-18T08:07:34Z</time>
      </trkpt>
      <trkpt lat="43.742731036618352" lon="6.391081977635622">
        <ele>859.08000000000004</ele>
        <time>2025-05-18T08:07:35Z</time>
      </trkpt>
      <trkpt lat="43.742653001099825" lon="6.39090402983129">
        <ele>857.63</ele>
        <time>2025-05-18T08:07:36Z</time>
      </trkpt>
      <trkpt lat="43.742560967803001" lon="6.390696996822953">
        <ele>856.66999999999996</ele>
        <time>2025-05-18T08:07:37Z</time>
      </trkpt>
      <trkpt lat="43.742464995011687" lon="6.390477977693081">
        <ele>855.23000000000002</ele>
        <time>2025-05-18T08:07:38Z</time>
      </trkpt>
      <trkpt lat="43.742025028914213" lon="6.389028998091817">
        <ele>847.05999999999995</ele>
        <time>2025-05-18T08:07:44Z</time>
      </trkpt>
      <trkpt lat="43.742023017257452" lon="6.388785000890493">
        <ele>845.62</ele>
        <time>2025-05-18T08:07:45Z</time>
      </trkpt>
      <trkpt lat="43.742023017257452" lon="6.388078993186355">
        <ele>840.80999999999995</ele>
        <time>2025-05-18T08:07:48Z</time>
      </trkpt>
      <trkpt lat="43.742046989500523" lon="6.387831978499889">
        <ele>839.37</ele>
        <time>2025-05-18T08:07:49Z</time>
      </trkpt>
      <trkpt lat="43.74219199642539" lon="6.386875016614795">
        <ele>833.60000000000002</ele>
        <time>2025-05-18T08:07:53Z</time>
      </trkpt>
      <trkpt lat="43.742170035839081" lon="6.38669203966856">
        <ele>832.15999999999997</ele>
        <time>2025-05-18T08:07:54Z</time>
      </trkpt>
      <trkpt lat="43.742141034454107" lon="6.3865000102669">
        <ele>831.20000000000005</ele>
        <time>2025-05-18T08:07:55Z</time>
      </trkpt>
      <trkpt lat="43.741883961483836" lon="6.38570599257946">
        <ele>827.35000000000002</ele>
        <time>2025-05-18T08:07:59Z</time>
      </trkpt>
      <trkpt lat="43.741854960098863" lon="6.38549099676311">
        <ele>826.87</ele>
        <time>2025-05-18T08:08:00Z</time>
      </trkpt>
      <trkpt lat="43.741860995069146" lon="6.385268038138747">
        <ele>825.90999999999997</ele>
        <time>2025-05-18T08:08:01Z</time>
      </trkpt>
      <trkpt lat="43.742065010592341" lon="6.383754014968872">
        <ele>820.13999999999999</ele>
        <time>2025-05-18T08:08:07Z</time>
      </trkpt>
      <trkpt lat="43.74214899726212" lon="6.3835159689188">
        <ele>819.17999999999995</ele>
        <time>2025-05-18T08:08:08Z</time>
      </trkpt>
      <trkpt lat="43.74230096116662" lon="6.383080026134849">
        <ele>816.77999999999997</ele>
        <time>2025-05-18T08:08:10Z</time>
      </trkpt>
      <trkpt lat="43.74236399307847" lon="6.382901994511485">
        <ele>815.82000000000005</ele>
        <time>2025-05-18T08:08:11Z</time>
      </trkpt>
      <trkpt lat="43.742419984191656" lon="6.38274198397994">
        <ele>814.37</ele>
        <time>2025-05-18T08:08:12Z</time>
      </trkpt>
      <trkpt lat="43.742456026375294" lon="6.382614998146892">
        <ele>812.92999999999995</ele>
        <time>2025-05-18T08:08:13Z</time>
      </trkpt>
      <trkpt lat="43.742473963648081" lon="6.382477032020688">
        <ele>811.49000000000001</ele>
        <time>2025-05-18T08:08:14Z</time>
      </trkpt>
      <trkpt lat="43.742428030818701" lon="6.382350968196988">
        <ele>810.04999999999995</ele>
        <time>2025-05-18T08:08:15Z</time>
      </trkpt>
      <trkpt lat="43.742371033877134" lon="6.382216019555926">
        <ele>808.61000000000001</ele>
        <time>2025-05-18T08:08:16Z</time>
      </trkpt>
      <trkpt lat="43.742280006408691" lon="6.382104959338903">
        <ele>807.15999999999997</ele>
        <time>2025-05-18T08:08:17Z</time>
      </trkpt>
      <trkpt lat="43.742156960070133" lon="6.382061038166285">
        <ele>806.20000000000005</ele>
        <time>2025-05-18T08:08:18Z</time>
      </trkpt>
      <trkpt lat="43.742022011429071" lon="6.382012004032731">
        <ele>805.24000000000001</ele>
        <time>2025-05-18T08:08:19Z</time>
      </trkpt>
      <trkpt lat="43.741744989529252" lon="6.381914019584656">
        <ele>802.84000000000003</ele>
        <time>2025-05-18T08:08:21Z</time>
      </trkpt>
      <trkpt lat="43.741624038666487" lon="6.381913013756275">
        <ele>801.39999999999998</ele>
        <time>2025-05-18T08:08:22Z</time>
      </trkpt>
      <trkpt lat="43.74152303673327" lon="6.381963975727558">
        <ele>800.44000000000005</ele>
        <time>2025-05-18T08:08:23Z</time>
      </trkpt>
      <trkpt lat="43.741422034800053" lon="6.382028013467789">
        <ele>799.47000000000003</ele>
        <time>2025-05-18T08:08:24Z</time>
      </trkpt>
      <trkpt lat="43.741314997896552" lon="6.382094984874129">
        <ele>798.50999999999999</ele>
        <time>2025-05-18T08:08:25Z</time>
      </trkpt>
      <trkpt lat="43.741205027326941" lon="6.382164973765612">
        <ele>797.07000000000005</ele>
        <time>2025-05-18T08:08:26Z</time>
      </trkpt>
      <trkpt lat="43.741092039272189" lon="6.382158016785979">
        <ele>796.11000000000001</ele>
        <time>2025-05-18T08:08:27Z</time>
      </trkpt>
      <trkpt lat="43.740972010418773" lon="6.382133960723877">
        <ele>795.14999999999998</ele>
        <time>2025-05-18T08:08:28Z</time>
      </trkpt>
      <trkpt lat="43.740904033184052" lon="6.382107976824045">
        <ele>794.19000000000005</ele>
        <time>2025-05-18T08:08:29Z</time>
      </trkpt>
      <trkpt lat="43.740820968523622" lon="6.382075035944581">
        <ele>793.22000000000003</ele>
        <time>2025-05-18T08:08:30Z</time>
      </trkpt>
      <trkpt lat="43.740671016275883" lon="6.382017033174634">
        <ele>792.25999999999999</ele>
        <time>2025-05-18T08:08:32Z</time>
      </trkpt>
      <trkpt lat="43.740166006609797" lon="6.381903039291501">
        <ele>788.89999999999998</ele>
        <time>2025-05-18T08:08:40Z</time>
      </trkpt>
      <trkpt lat="43.740120995789766" lon="6.381872026249766">
        <ele>788.41999999999996</ele>
        <time>2025-05-18T08:08:41Z</time>
      </trkpt>
      <trkpt lat="43.740083025768399" lon="6.381845958530903">
        <ele>787.94000000000005</ele>
        <time>2025-05-18T08:08:42Z</time>
      </trkpt>
      <trkpt lat="43.740054024383426" lon="6.381825003772974">
        <ele>787.46000000000004</ele>
        <time>2025-05-18T08:08:43Z</time>
      </trkpt>
      <trkpt lat="43.740037009119987" lon="6.381813017651439">
        <ele>786.98000000000002</ele>
        <time>2025-05-18T08:08:44Z</time>
      </trkpt>
      <trkpt lat="43.740057041868567" lon="6.381827015429735">
        <ele>785.04999999999995</ele>
        <time>2025-05-18T08:08:48Z</time>
      </trkpt>
      <trkpt lat="43.740088976919651" lon="6.381849981844425">
        <ele>784.57000000000005</ele>
        <time>2025-05-18T08:08:49Z</time>
      </trkpt>
      <trkpt lat="43.740125019103289" lon="6.381874037906528">
        <ele>785.04999999999995</ele>
        <time>2025-05-18T08:08:50Z</time>
      </trkpt>
      <trkpt lat="43.740163994953036" lon="6.38190102763474">
        <ele>784.57000000000005</ele>
        <time>2025-05-18T08:08:51Z</time>
      </trkpt>
      <trkpt lat="43.740220991894603" lon="6.381941009312868">
        <ele>784.09000000000003</ele>
        <time>2025-05-18T08:08:52Z</time>
      </trkpt>
      <trkpt lat="43.740220991894603" lon="6.381941009312868">
        <ele>783.61000000000001</ele>
        <time>2025-05-18T08:08:53Z</time>
      </trkpt>
      <trkpt lat="43.740229038521647" lon="6.381942015141249">
        <ele>783.61000000000001</ele>
        <time>2025-05-18T08:08:54Z</time>
      </trkpt>
      <trkpt lat="43.740252004936337" lon="6.38194402679801">
        <ele>783.13</ele>
        <time>2025-05-18T08:08:55Z</time>
      </trkpt>
      <trkpt lat="43.740266002714634" lon="6.381946038454771">
        <ele>783.13</ele>
        <time>2025-05-18T08:08:56Z</time>
      </trkpt>
      <trkpt lat="43.740244964137673" lon="6.382016027346253">
        <ele>781.69000000000005</ele>
        <time>2025-05-18T08:09:05Z</time>
      </trkpt>
      <trkpt lat="43.740244964137673" lon="6.382016027346253">
        <ele>781.69000000000005</ele>
        <time>2025-05-18T08:09:36Z</time>
      </trkpt>
      <trkpt lat="43.740248987451196" lon="6.382032036781311">
        <ele>782.64999999999998</ele>
        <time>2025-05-18T08:10:28Z</time>
      </trkpt>
      <trkpt lat="43.740195007994771" lon="6.381831038743258">
        <ele>822.05999999999995</ele>
        <time>2025-05-18T08:13:23Z</time>
      </trkpt>
      <trkpt lat="43.740283017978072" lon="6.38203295879066">
        <ele>795.63</ele>
        <time>2025-05-18T08:13:45Z</time>
      </trkpt>
      <trkpt lat="43.740284023806453" lon="6.382026001811028">
        <ele>795.63</ele>
        <time>2025-05-18T08:13:46Z</time>
      </trkpt>
      <trkpt lat="43.740220991894603" lon="6.381941009312868">
        <ele>795.63</ele>
        <time>2025-05-18T08:13:48Z</time>
      </trkpt>
      <trkpt lat="43.740206994116306" lon="6.381931034848094">
        <ele>794.19000000000005</ele>
        <time>2025-05-18T08:13:49Z</time>
      </trkpt>
      <trkpt lat="43.740089982748032" lon="6.381849981844425">
        <ele>792.74000000000001</ele>
        <time>2025-05-18T08:13:51Z</time>
      </trkpt>
      <trkpt lat="43.740019993856549" lon="6.381802037358284">
        <ele>792.25999999999999</ele>
        <time>2025-05-18T08:13:52Z</time>
      </trkpt>
      <trkpt lat="43.739249026402831" lon="6.381357964128256">
        <ele>786.5</ele>
        <time>2025-05-18T08:14:01Z</time>
      </trkpt>
      <trkpt lat="43.739130003377795" lon="6.381329968571663">
        <ele>786.01999999999998</ele>
        <time>2025-05-18T08:14:02Z</time>
      </trkpt>
      <trkpt lat="43.739022966474295" lon="6.381359975785017">
        <ele>785.04999999999995</ele>
        <time>2025-05-18T08:14:03Z</time>
      </trkpt>
      <trkpt lat="43.738911990076303" lon="6.381435999646783">
        <ele>784.09000000000003</ele>
        <time>2025-05-18T08:14:04Z</time>
      </trkpt>
      <trkpt lat="43.738794978708029" lon="6.381515963003039">
        <ele>783.13</ele>
        <time>2025-05-18T08:14:05Z</time>
      </trkpt>
      <trkpt lat="43.738676039502025" lon="6.381598021835089">
        <ele>782.16999999999996</ele>
        <time>2025-05-18T08:14:06Z</time>
      </trkpt>
      <trkpt lat="43.738569002598524" lon="6.381726013496518">
        <ele>781.21000000000004</ele>
        <time>2025-05-18T08:14:07Z</time>
      </trkpt>
      <trkpt lat="43.737764004617929" lon="6.382713988423348">
        <ele>781.69000000000005</ele>
        <time>2025-05-18T08:14:14Z</time>
      </trkpt>
      <trkpt lat="43.737656967714429" lon="6.382883973419666">
        <ele>782.16999999999996</ele>
        <time>2025-05-18T08:14:15Z</time>
      </trkpt>
      <trkpt lat="43.737564012408257" lon="6.383058987557888">
        <ele>782.64999999999998</ele>
        <time>2025-05-18T08:14:16Z</time>
      </trkpt>
      <trkpt lat="43.737491006031632" lon="6.383226960897446">
        <ele>783.13</ele>
        <time>2025-05-18T08:14:17Z</time>
      </trkpt>
      <trkpt lat="43.73744398355484" lon="6.383401975035667">
        <ele>783.61000000000001</ele>
        <time>2025-05-18T08:14:18Z</time>
      </trkpt>
      <trkpt lat="43.737445995211601" lon="6.383589981123805">
        <ele>784.09000000000003</ele>
        <time>2025-05-18T08:14:19Z</time>
      </trkpt>
      <trkpt lat="43.737488994374871" lon="6.38377103023231">
        <ele>784.57000000000005</ele>
        <time>2025-05-18T08:14:20Z</time>
      </trkpt>
      <trkpt lat="43.737538028508425" lon="6.383978985249996">
        <ele>785.04999999999995</ele>
        <time>2025-05-18T08:14:21Z</time>
      </trkpt>
      <trkpt lat="43.737620003521442" lon="6.384124998003244">
        <ele>785.52999999999997</ele>
        <time>2025-05-18T08:14:22Z</time>
      </trkpt>
      <trkpt lat="43.737717987969518" lon="6.384296994656324">
        <ele>785.52999999999997</ele>
        <time>2025-05-18T08:14:23Z</time>
      </trkpt>
      <trkpt lat="43.738735970109701" lon="6.386304963380098">
        <ele>795.63</ele>
        <time>2025-05-18T08:14:33Z</time>
      </trkpt>
      <trkpt lat="43.738808976486325" lon="6.386523982509971">
        <ele>796.59000000000003</ele>
        <time>2025-05-18T08:14:34Z</time>
      </trkpt>
      <trkpt lat="43.738847030326724" lon="6.386770997196436">
        <ele>797.54999999999995</ele>
        <time>2025-05-18T08:14:35Z</time>
      </trkpt>
      <trkpt lat="43.738847030326724" lon="6.387011976912618">
        <ele>798.50999999999999</ele>
        <time>2025-05-18T08:14:36Z</time>
      </trkpt>
      <trkpt lat="43.738830015063286" lon="6.387243987992406">
        <ele>799.47000000000003</ele>
        <time>2025-05-18T08:14:37Z</time>
      </trkpt>
      <trkpt lat="43.738805959001184" lon="6.387451021000743">
        <ele>799.95000000000005</ele>
        <time>2025-05-18T08:14:38Z</time>
      </trkpt>
      <trkpt lat="43.738779975101352" lon="6.387655036523938">
        <ele>799.95000000000005</ele>
        <time>2025-05-18T08:14:39Z</time>
      </trkpt>
      <trkpt lat="43.738695988431573" lon="6.387811023741961">
        <ele>799.95000000000005</ele>
        <time>2025-05-18T08:14:40Z</time>
      </trkpt>
      <trkpt lat="43.738633040338755" lon="6.387928035110235">
        <ele>799.95000000000005</ele>
        <time>2025-05-18T08:14:41Z</time>
      </trkpt>
      <trkpt lat="43.738483004271984" lon="6.388006992638111">
        <ele>799.47000000000003</ele>
        <time>2025-05-18T08:14:42Z</time>
      </trkpt>
      <trkpt lat="43.738355012610555" lon="6.388075975701213">
        <ele>799.47000000000003</ele>
        <time>2025-05-18T08:14:43Z</time>
      </trkpt>
      <trkpt lat="43.738216962665319" lon="6.388140013441443">
        <ele>798.99000000000001</ele>
        <time>2025-05-18T08:14:44Z</time>
      </trkpt>
      <trkpt lat="43.737922003492713" lon="6.388286026194692">
        <ele>799.47000000000003</ele>
        <time>2025-05-18T08:14:46Z</time>
      </trkpt>
      <trkpt lat="43.737790994346142" lon="6.388390967622399">
        <ele>799.47000000000003</ele>
        <time>2025-05-18T08:14:47Z</time>
      </trkpt>
      <trkpt lat="43.737687980756164" lon="6.388537986204028">
        <ele>799.95000000000005</ele>
        <time>2025-05-18T08:14:48Z</time>
      </trkpt>
      <trkpt lat="43.737587984651327" lon="6.388715011999011">
        <ele>800.44000000000005</ele>
        <time>2025-05-18T08:14:49Z</time>
      </trkpt>
      <trkpt lat="43.737480025738478" lon="6.38890796341002">
        <ele>800.44000000000005</ele>
        <time>2025-05-18T08:14:50Z</time>
      </trkpt>
      <trkpt lat="43.736436981707811" lon="6.390771009027958">
        <ele>804.27999999999997</ele>
        <time>2025-05-18T08:14:58Z</time>
      </trkpt>
      <trkpt lat="43.735397038981318" lon="6.392626008018851">
        <ele>803.32000000000005</ele>
        <time>2025-05-18T08:15:06Z</time>
      </trkpt>
      <trkpt lat="43.734919019043446" lon="6.393480040132999">
        <ele>798.02999999999997</ele>
        <time>2025-05-18T08:15:12Z</time>
      </trkpt>
      <trkpt lat="43.734798990190029" lon="6.393640972673893">
        <ele>795.63</ele>
        <time>2025-05-18T08:15:15Z</time>
      </trkpt>
      <trkpt lat="43.734759008511901" lon="6.393675003200769">
        <ele>795.14999999999998</ele>
        <time>2025-05-18T08:15:16Z</time>
      </trkpt>
      <trkpt lat="43.734706034883857" lon="6.393721019849181">
        <ele>794.66999999999996</ele>
        <time>2025-05-18T08:15:17Z</time>
      </trkpt>
      <trkpt lat="43.734664041548967" lon="6.393721019849181">
        <ele>793.71000000000004</ele>
        <time>2025-05-18T08:15:18Z</time>
      </trkpt>
      <trkpt lat="43.734620036557317" lon="6.393721019849181">
        <ele>793.22000000000003</ele>
        <time>2025-05-18T08:15:19Z</time>
      </trkpt>
      <trkpt lat="43.73456303961575" lon="6.39365597628057">
        <ele>792.25999999999999</ele>
        <time>2025-05-18T08:15:20Z</time>
      </trkpt>
      <trkpt lat="43.734515011310577" lon="6.393600990995765">
        <ele>791.29999999999995</ele>
        <time>2025-05-18T08:15:21Z</time>
      </trkpt>
      <trkpt lat="43.734470000490546" lon="6.393550029024482">
        <ele>790.82000000000005</ele>
        <time>2025-05-18T08:15:22Z</time>
      </trkpt>
      <trkpt lat="43.734452985227108" lon="6.393484985455871">
        <ele>789.86000000000001</ele>
        <time>2025-05-18T08:15:23Z</time>
      </trkpt>
      <trkpt lat="43.734428007155657" lon="6.393393035978079">
        <ele>788.89999999999998</ele>
        <time>2025-05-18T08:15:24Z</time>
      </trkpt>
      <trkpt lat="43.734404034912586" lon="6.393302008509636">
        <ele>787.46000000000004</ele>
        <time>2025-05-18T08:15:25Z</time>
      </trkpt>
      <trkpt lat="43.734379978850484" lon="6.393213998526335">
        <ele>786.01999999999998</ele>
        <time>2025-05-18T08:15:26Z</time>
      </trkpt>
      <trkpt lat="43.734308984130621" lon="6.39294502325356">
        <ele>783.13</ele>
        <time>2025-05-18T08:15:29Z</time>
      </trkpt>
      <trkpt lat="43.734275959432125" lon="6.392871011048555">
        <ele>782.16999999999996</ele>
        <time>2025-05-18T08:15:30Z</time>
      </trkpt>
      <trkpt lat="43.734224997460842" lon="6.392792975530028">
        <ele>781.21000000000004</ele>
        <time>2025-05-18T08:15:31Z</time>
      </trkpt>
      <trkpt lat="43.734168000519276" lon="6.392703959718347">
        <ele>780.73000000000002</ele>
        <time>2025-05-18T08:15:32Z</time>
      </trkpt>
      <trkpt lat="43.734107986092567" lon="6.392612010240555">
        <ele>779.76999999999998</ele>
        <time>2025-05-18T08:15:33Z</time>
      </trkpt>
      <trkpt lat="43.733985023573041" lon="6.392456023022533">
        <ele>778.32000000000005</ele>
        <time>2025-05-18T08:15:35Z</time>
      </trkpt>
      <trkpt lat="43.733913023024797" lon="6.392375975847244">
        <ele>777.36000000000001</ele>
        <time>2025-05-18T08:15:36Z</time>
      </trkpt>
      <trkpt lat="43.733302988111973" lon="6.391810029745102">
        <ele>772.55999999999995</ele>
        <time>2025-05-18T08:15:41Z</time>
      </trkpt>
      <trkpt lat="43.732376033440232" lon="6.390939988195896">
        <ele>765.83000000000004</ele>
        <time>2025-05-18T08:15:47Z</time>
      </trkpt>
      <trkpt lat="43.732280982658267" lon="6.390780983492732">
        <ele>765.35000000000002</ele>
        <time>2025-05-18T08:15:48Z</time>
      </trkpt>
      <trkpt lat="43.732228009030223" lon="6.39058199711144">
        <ele>764.38999999999999</ele>
        <time>2025-05-18T08:15:49Z</time>
      </trkpt>
      <trkpt lat="43.732060035690665" lon="6.390082016587257">
        <ele>761.5</ele>
        <time>2025-05-18T08:15:52Z</time>
      </trkpt>
      <trkpt lat="43.731997003778815" lon="6.389997024089098">
        <ele>760.53999999999996</ele>
        <time>2025-05-18T08:15:53Z</time>
      </trkpt>
      <trkpt lat="43.731891978532076" lon="6.389947989955545">
        <ele>759.58000000000004</ele>
        <time>2025-05-18T08:15:54Z</time>
      </trkpt>
      <trkpt lat="43.731773039326072" lon="6.389891998842359">
        <ele>758.62</ele>
        <time>2025-05-18T08:15:55Z</time>
      </trkpt>
      <trkpt lat="43.731645969673991" lon="6.389847993850708">
        <ele>757.65999999999997</ele>
        <time>2025-05-18T08:15:56Z</time>
      </trkpt>
      <trkpt lat="43.731518983840942" lon="6.389822009950876">
        <ele>756.69000000000005</ele>
        <time>2025-05-18T08:15:57Z</time>
      </trkpt>
      <trkpt lat="43.731068959459662" lon="6.389731988310814">
        <ele>752.37</ele>
        <time>2025-05-18T08:16:02Z</time>
      </trkpt>
      <trkpt lat="43.731010034680367" lon="6.389695024117827">
        <ele>751.40999999999997</ele>
        <time>2025-05-18T08:16:03Z</time>
      </trkpt>
      <trkpt lat="43.730957983061671" lon="6.389657976105809">
        <ele>750.92999999999995</ele>
        <time>2025-05-18T08:16:04Z</time>
      </trkpt>
      <trkpt lat="43.730497984215617" lon="6.389324963092804">
        <ele>744.20000000000005</ele>
        <time>2025-05-18T08:16:16Z</time>
      </trkpt>
      <trkpt lat="43.730392958968878" lon="6.38924902305007">
        <ele>742.27999999999997</ele>
        <time>2025-05-18T08:16:26Z</time>
      </trkpt>
      <trkpt lat="43.730392958968878" lon="6.38924902305007">
        <ele>741.78999999999996</ele>
        <time>2025-05-18T08:17:08Z</time>
      </trkpt>
      <trkpt lat="43.730174023658037" lon="6.389091024175286">
        <ele>742.27999999999997</ele>
        <time>2025-05-18T08:17:25Z</time>
      </trkpt>
      <trkpt lat="43.730107974261045" lon="6.389042995870113">
        <ele>741.78999999999996</ele>
        <time>2025-05-18T08:17:26Z</time>
      </trkpt>
      <trkpt lat="43.730043014511466" lon="6.388990022242069">
        <ele>741.30999999999995</ele>
        <time>2025-05-18T08:17:27Z</time>
      </trkpt>
      <trkpt lat="43.729990962892771" lon="6.388910980895162">
        <ele>740.83000000000004</ele>
        <time>2025-05-18T08:17:28Z</time>
      </trkpt>
      <trkpt lat="43.729936983436346" lon="6.388828000053763">
        <ele>740.35000000000002</ele>
        <time>2025-05-18T08:17:29Z</time>
      </trkpt>
      <trkpt lat="43.729884009808302" lon="6.388746025040746">
        <ele>740.35000000000002</ele>
        <time>2025-05-18T08:17:30Z</time>
      </trkpt>
      <trkpt lat="43.729714024811983" lon="6.388400020077825">
        <ele>737.95000000000005</ele>
        <time>2025-05-18T08:17:34Z</time>
      </trkpt>
      <trkpt lat="43.72968502342701" lon="6.388290971517563">
        <ele>737.47000000000003</ele>
        <time>2025-05-18T08:17:35Z</time>
      </trkpt>
      <trkpt lat="43.72968502342701" lon="6.38819701038301">
        <ele>736.99000000000001</ele>
        <time>2025-05-18T08:17:36Z</time>
      </trkpt>
      <trkpt lat="43.72968502342701" lon="6.388105982914567">
        <ele>736.50999999999999</ele>
        <time>2025-05-18T08:17:37Z</time>
      </trkpt>
      <trkpt lat="43.729706984013319" lon="6.387987965717912">
        <ele>736.50999999999999</ele>
        <time>2025-05-18T08:17:38Z</time>
      </trkpt>
      <trkpt lat="43.729742020368576" lon="6.387914037331939">
        <ele>736.02999999999997</ele>
        <time>2025-05-18T08:17:39Z</time>
      </trkpt>
      <trkpt lat="43.72977202758193" lon="6.387849999591708">
        <ele>736.02999999999997</ele>
        <time>2025-05-18T08:17:40Z</time>
      </trkpt>
      <trkpt lat="43.72979499399662" lon="6.387801971286535">
        <ele>736.02999999999997</ele>
        <time>2025-05-18T08:17:41Z</time>
      </trkpt>
      <trkpt lat="43.730048965662718" lon="6.387382037937641">
        <ele>733.62</ele>
        <time>2025-05-18T08:17:54Z</time>
      </trkpt>
      <trkpt lat="43.730274019762874" lon="6.387031003832817">
        <ele>734.10000000000002</ele>
        <time>2025-05-18T08:18:07Z</time>
      </trkpt>
      <trkpt lat="43.730585994198918" lon="6.386576034128666">
        <ele>734.10000000000002</ele>
        <time>2025-05-18T08:18:14Z</time>
      </trkpt>
      <trkpt lat="43.730650031939149" lon="6.386544015258551">
        <ele>734.10000000000002</ele>
        <time>2025-05-18T08:18:15Z</time>
      </trkpt>
      <trkpt lat="43.730705017223954" lon="6.386516019701958">
        <ele>734.10000000000002</ele>
        <time>2025-05-18T08:18:16Z</time>
      </trkpt>
      <trkpt lat="43.730766959488392" lon="6.386529011651874">
        <ele>734.10000000000002</ele>
        <time>2025-05-18T08:18:17Z</time>
      </trkpt>
      <trkpt lat="43.730821022763848" lon="6.386547032743692">
        <ele>734.10000000000002</ele>
        <time>2025-05-18T08:18:18Z</time>
      </trkpt>
      <trkpt lat="43.730876008048654" lon="6.38658600859344">
        <ele>734.10000000000002</ele>
        <time>2025-05-18T08:18:19Z</time>
      </trkpt>
      <trkpt lat="43.730925964191556" lon="6.386636970564723">
        <ele>734.10000000000002</ele>
        <time>2025-05-18T08:18:20Z</time>
      </trkpt>
      <trkpt lat="43.730977009981871" lon="6.386688016355038">
        <ele>734.10000000000002</ele>
        <time>2025-05-18T08:18:21Z</time>
      </trkpt>
      <trkpt lat="43.731442037969828" lon="6.387256979942322">
        <ele>734.10000000000002</ele>
        <time>2025-05-18T08:18:30Z</time>
      </trkpt>
      <trkpt lat="43.731495011597872" lon="6.387322023510933">
        <ele>734.58000000000004</ele>
        <time>2025-05-18T08:18:31Z</time>
      </trkpt>
      <trkpt lat="43.731542034074664" lon="6.387379020452499">
        <ele>734.58000000000004</ele>
        <time>2025-05-18T08:18:32Z</time>
      </trkpt>
      <trkpt lat="43.731613028794527" lon="6.387377008795738">
        <ele>735.07000000000005</ele>
        <time>2025-05-18T08:18:33Z</time>
      </trkpt>
      <trkpt lat="43.73168402351439" lon="6.387358987703919">
        <ele>735.54999999999995</ele>
        <time>2025-05-18T08:18:34Z</time>
      </trkpt>
      <trkpt lat="43.731757029891014" lon="6.387341972440481">
        <ele>735.54999999999995</ele>
        <time>2025-05-18T08:18:35Z</time>
      </trkpt>
      <trkpt lat="43.731826012954116" lon="6.387325040996075">
        <ele>736.02999999999997</ele>
        <time>2025-05-18T08:18:36Z</time>
      </trkpt>
      <trkpt lat="43.731894996017218" lon="6.387309031561017">
        <ele>736.02999999999997</ele>
        <time>2025-05-18T08:18:37Z</time>
      </trkpt>
      <trkpt lat="43.732035979628563" lon="6.387275001034141">
        <ele>736.99000000000001</ele>
        <time>2025-05-18T08:18:39Z</time>
      </trkpt>
      <trkpt lat="43.732110997661948" lon="6.387267038226128">
        <ele>736.99000000000001</ele>
        <time>2025-05-18T08:18:40Z</time>
      </trkpt>
      <trkpt lat="43.732756990939379" lon="6.387362005189061">
        <ele>743.72000000000003</ele>
        <time>2025-05-18T08:18:48Z</time>
      </trkpt>
      <trkpt lat="43.732833014801145" lon="6.387314982712269">
        <ele>744.67999999999995</ele>
        <time>2025-05-18T08:18:49Z</time>
      </trkpt>
      <trkpt lat="43.732896968722343" lon="6.387254968285561">
        <ele>745.63999999999999</ele>
        <time>2025-05-18T08:18:50Z</time>
      </trkpt>
      <trkpt lat="43.732942985370755" lon="6.387162012979388">
        <ele>746.60000000000002</ele>
        <time>2025-05-18T08:18:51Z</time>
      </trkpt>
      <trkpt lat="43.732968969270587" lon="6.387046007439494">
        <ele>747.08000000000004</ele>
        <time>2025-05-18T08:18:52Z</time>
      </trkpt>
      <trkpt lat="43.732971986755729" lon="6.386920027434826">
        <ele>748.51999999999998</ele>
        <time>2025-05-18T08:18:53Z</time>
      </trkpt>
      <trkpt lat="43.73297500424087" lon="6.386777032166719">
        <ele>749.49000000000001</ele>
        <time>2025-05-18T08:18:54Z</time>
      </trkpt>
      <trkpt lat="43.732979027554393" lon="6.386622972786427">
        <ele>750.92999999999995</ele>
        <time>2025-05-18T08:18:55Z</time>
      </trkpt>
      <trkpt lat="43.732982967048883" lon="6.386459022760391">
        <ele>751.88999999999999</ele>
        <time>2025-05-18T08:18:56Z</time>
      </trkpt>
      <trkpt lat="43.732986990362406" lon="6.386283002793789">
        <ele>752.85000000000002</ele>
        <time>2025-05-18T08:18:57Z</time>
      </trkpt>
      <trkpt lat="43.732982967048883" lon="6.386096002534032">
        <ele>753.80999999999995</ele>
        <time>2025-05-18T08:18:58Z</time>
      </trkpt>
      <trkpt lat="43.732967041432858" lon="6.385900033637881">
        <ele>754.76999999999998</ele>
        <time>2025-05-18T08:18:59Z</time>
      </trkpt>
      <trkpt lat="43.732950026169419" lon="6.385700963437557">
        <ele>755.25</ele>
        <time>2025-05-18T08:19:00Z</time>
      </trkpt>
      <trkpt lat="43.732965029776096" lon="6.385501977056265">
        <ele>756.21000000000004</ele>
        <time>2025-05-18T08:19:01Z</time>
      </trkpt>
      <trkpt lat="43.733013980090618" lon="6.385093024000526">
        <ele>758.13999999999999</ele>
        <time>2025-05-18T08:19:03Z</time>
      </trkpt>
      <trkpt lat="43.733027977868915" lon="6.384877022355795">
        <ele>758.62</ele>
        <time>2025-05-18T08:19:04Z</time>
      </trkpt>
      <trkpt lat="43.732934016734362" lon="6.383476993069053">
        <ele>764.87</ele>
        <time>2025-05-18T08:19:10Z</time>
      </trkpt>
      <trkpt lat="43.732936028391123" lon="6.383237019181252">
        <ele>765.83000000000004</ele>
        <time>2025-05-18T08:19:11Z</time>
      </trkpt>
      <trkpt lat="43.732964023947716" lon="6.382995033636689">
        <ele>766.78999999999996</ele>
        <time>2025-05-18T08:19:12Z</time>
      </trkpt>
      <trkpt lat="43.732993025332689" lon="6.38274097815156">
        <ele>767.75</ele>
        <time>2025-05-18T08:19:13Z</time>
      </trkpt>
      <trkpt lat="43.733022026717663" lon="6.382481977343559">
        <ele>768.71000000000004</ele>
        <time>2025-05-18T08:19:14Z</time>
      </trkpt>
      <trkpt lat="43.733203997835517" lon="6.380888996645808">
        <ele>776.88</ele>
        <time>2025-05-18T08:19:20Z</time>
      </trkpt>
      <trkpt lat="43.73312696814537" lon="6.37913097627461">
        <ele>784.57000000000005</ele>
        <time>2025-05-18T08:19:27Z</time>
      </trkpt>
      <trkpt lat="43.733075000345707" lon="6.378909023478627">
        <ele>785.52999999999997</ele>
        <time>2025-05-18T08:19:28Z</time>
      </trkpt>
      <trkpt lat="43.732691025361419" lon="6.377320988103747">
        <ele>793.22000000000003</ele>
        <time>2025-05-18T08:19:35Z</time>
      </trkpt>
      <trkpt lat="43.732668980956078" lon="6.377165000885725">
        <ele>794.19000000000005</ele>
        <time>2025-05-18T08:19:36Z</time>
      </trkpt>
      <trkpt lat="43.732711980119348" lon="6.377045977860689">
        <ele>795.14999999999998</ele>
        <time>2025-05-18T08:19:37Z</time>
      </trkpt>
      <trkpt lat="43.732765037566423" lon="6.376914968714118">
        <ele>795.63</ele>
        <time>2025-05-18T08:19:38Z</time>
      </trkpt>
      <trkpt lat="43.732825974002481" lon="6.376764010637999">
        <ele>796.11000000000001</ele>
        <time>2025-05-18T08:19:39Z</time>
      </trkpt>
      <trkpt lat="43.732892023399472" lon="6.376601988449693">
        <ele>797.07000000000005</ele>
        <time>2025-05-18T08:19:40Z</time>
      </trkpt>
      <trkpt lat="43.732957988977432" lon="6.376439966261387">
        <ele>797.54999999999995</ele>
        <time>2025-05-18T08:19:41Z</time>
      </trkpt>
      <trkpt lat="43.733029989525676" lon="6.376308035105467">
        <ele>798.50999999999999</ele>
        <time>2025-05-18T08:19:42Z</time>
      </trkpt>
      <trkpt lat="43.733117999508977" lon="6.376190017908812">
        <ele>798.99000000000001</ele>
        <time>2025-05-18T08:19:43Z</time>
      </trkpt>
      <trkpt lat="43.733219001442194" lon="6.376162022352219">
        <ele>799.47000000000003</ele>
        <time>2025-05-18T08:19:44Z</time>
      </trkpt>
      <trkpt lat="43.733309023082256" lon="6.376152969896793">
        <ele>799.95000000000005</ele>
        <time>2025-05-18T08:19:45Z</time>
      </trkpt>
      <trkpt lat="43.73342502862215" lon="6.376177025958896">
        <ele>800.91999999999996</ele>
        <time>2025-05-18T08:19:46Z</time>
      </trkpt>
      <trkpt lat="43.733508009463549" lon="6.376285990700126">
        <ele>801.39999999999998</ele>
        <time>2025-05-18T08:19:47Z</time>
      </trkpt>
      <trkpt lat="43.73359601944685" lon="6.376400990411639">
        <ele>802.36000000000001</ele>
        <time>2025-05-18T08:19:48Z</time>
      </trkpt>
      <trkpt lat="43.733691992238164" lon="6.376526970416307">
        <ele>803.32000000000005</ele>
        <time>2025-05-18T08:19:49Z</time>
      </trkpt>
      <trkpt lat="43.733807997778058" lon="6.376619003713131">
        <ele>804.27999999999997</ele>
        <time>2025-05-18T08:19:50Z</time>
      </trkpt>
      <trkpt lat="43.733930038288236" lon="6.376697039231658">
        <ele>805.24000000000001</ele>
        <time>2025-05-18T08:19:51Z</time>
      </trkpt>
      <trkpt lat="43.734071021899581" lon="6.376744983717799">
        <ele>806.20000000000005</ele>
        <time>2025-05-18T08:19:52Z</time>
      </trkpt>
      <trkpt lat="43.734218962490559" lon="6.376796029508114">
        <ele>806.67999999999995</ele>
        <time>2025-05-18T08:19:53Z</time>
      </trkpt>
      <trkpt lat="43.734375033527613" lon="6.376850008964539">
        <ele>807.63999999999999</ele>
        <time>2025-05-18T08:19:54Z</time>
      </trkpt>
      <trkpt lat="43.734689019620419" lon="6.376943970099092">
        <ele>810.04999999999995</ele>
        <time>2025-05-18T08:19:56Z</time>
      </trkpt>
      <trkpt lat="43.734847018495202" lon="6.376955034211278">
        <ele>811.49000000000001</ele>
        <time>2025-05-18T08:19:57Z</time>
      </trkpt>
      <trkpt lat="43.735009962692857" lon="6.376956040039659">
        <ele>812.92999999999995</ele>
        <time>2025-05-18T08:19:58Z</time>
      </trkpt>
      <trkpt lat="43.736077984794974" lon="6.376876998692751">
        <ele>820.62</ele>
        <time>2025-05-18T08:20:04Z</time>
      </trkpt>
      <trkpt lat="43.736654995009303" lon="6.376931983977556">
        <ele>826.87</ele>
        <time>2025-05-18T08:20:08Z</time>
      </trkpt>
      <trkpt lat="43.736778041347861" lon="6.376922009512782">
        <ele>828.30999999999995</ele>
        <time>2025-05-18T08:20:09Z</time>
      </trkpt>
      <trkpt lat="43.736907038837671" lon="6.376882027834654">
        <ele>829.26999999999998</ele>
        <time>2025-05-18T08:20:10Z</time>
      </trkpt>
      <trkpt lat="43.737293025478721" lon="6.376688992604613">
        <ele>833.12</ele>
        <time>2025-05-18T08:20:13Z</time>
      </trkpt>
      <trkpt lat="43.737402996048331" lon="6.37659402564168">
        <ele>834.08000000000004</ele>
        <time>2025-05-18T08:20:14Z</time>
      </trkpt>
      <trkpt lat="43.73750701546669" lon="6.376494029536843">
        <ele>835.03999999999996</ele>
        <time>2025-05-18T08:20:15Z</time>
      </trkpt>
      <trkpt lat="43.737592007964849" lon="6.37636000290513">
        <ele>836</ele>
        <time>2025-05-18T08:20:16Z</time>
      </trkpt>
      <trkpt lat="43.737670965492725" lon="6.376205021515489">
        <ele>836.96000000000004</ele>
        <time>2025-05-18T08:20:17Z</time>
      </trkpt>
      <trkpt lat="43.737727962434292" lon="6.376040987670422">
        <ele>837.45000000000005</ele>
        <time>2025-05-18T08:20:18Z</time>
      </trkpt>
      <trkpt lat="43.737782025709748" lon="6.375888017937541">
        <ele>838.40999999999997</ele>
        <time>2025-05-18T08:20:19Z</time>
      </trkpt>
      <trkpt lat="43.737855032086372" lon="6.375763965770602">
        <ele>838.88999999999999</ele>
        <time>2025-05-18T08:20:20Z</time>
      </trkpt>
      <trkpt lat="43.737942958250642" lon="6.375666987150908">
        <ele>839.85000000000002</ele>
        <time>2025-05-18T08:20:21Z</time>
      </trkpt>
      <trkpt lat="43.738061981275678" lon="6.375577971339226">
        <ele>840.80999999999995</ele>
        <time>2025-05-18T08:20:22Z</time>
      </trkpt>
      <trkpt lat="43.738189972937107" lon="6.375480992719531">
        <ele>841.28999999999996</ele>
        <time>2025-05-18T08:20:23Z</time>
      </trkpt>
      <trkpt lat="43.739299988374114" lon="6.374425040557981">
        <ele>849.46000000000004</ele>
        <time>2025-05-18T08:20:31Z</time>
      </trkpt>
      <trkpt lat="43.740097023546696" lon="6.373595986515284">
        <ele>859.08000000000004</ele>
        <time>2025-05-18T08:20:38Z</time>
      </trkpt>
      <trkpt lat="43.740177992731333" lon="6.373530020937324">
        <ele>866.28999999999996</ele>
        <time>2025-05-18T08:20:44Z</time>
      </trkpt>
      <trkpt lat="43.740177992731333" lon="6.373530020937324">
        <ele>866.28999999999996</ele>
        <time>2025-05-18T08:21:23Z</time>
      </trkpt>
      <trkpt lat="43.740242030471563" lon="6.373421978205442">
        <ele>870.61000000000001</ele>
        <time>2025-05-18T08:21:29Z</time>
      </trkpt>
      <trkpt lat="43.740242030471563" lon="6.373421978205442">
        <ele>871.09000000000003</ele>
        <time>2025-05-18T08:21:30Z</time>
      </trkpt>
      <trkpt lat="43.740242030471563" lon="6.373421978205442">
        <ele>871.57000000000005</ele>
        <time>2025-05-18T08:21:31Z</time>
      </trkpt>
      <trkpt lat="43.74023700132966" lon="6.373403035104275">
        <ele>872.52999999999997</ele>
        <time>2025-05-18T08:21:32Z</time>
      </trkpt>
      <trkpt lat="43.740217974409461" lon="6.373338997364044">
        <ele>873.00999999999999</ele>
        <time>2025-05-18T08:21:33Z</time>
      </trkpt>
      <trkpt lat="43.740181010216475" lon="6.373269008472562">
        <ele>873.5</ele>
        <time>2025-05-18T08:21:34Z</time>
      </trkpt>
      <trkpt lat="43.740104986354709" lon="6.373258028179407">
        <ele>873.98000000000002</ele>
        <time>2025-05-18T08:21:35Z</time>
      </trkpt>
      <trkpt lat="43.740011025220156" lon="6.37324302457273">
        <ele>873.98000000000002</ele>
        <time>2025-05-18T08:21:36Z</time>
      </trkpt>
      <trkpt lat="43.739900970831513" lon="6.373217040672898">
        <ele>874.46000000000004</ele>
        <time>2025-05-18T08:21:37Z</time>
      </trkpt>
      <trkpt lat="43.739793011918664" lon="6.373147973790765">
        <ele>875.41999999999996</ele>
        <time>2025-05-18T08:21:38Z</time>
      </trkpt>
      <trkpt lat="43.739669965580106" lon="6.373074967414141">
        <ele>875.89999999999998</ele>
        <time>2025-05-18T08:21:39Z</time>
      </trkpt>
      <trkpt lat="43.739281967282295" lon="6.372959967702627">
        <ele>876.86000000000001</ele>
        <time>2025-05-18T08:21:42Z</time>
      </trkpt>
      <trkpt lat="43.739090021699667" lon="6.372886961326003">
        <ele>877.34000000000003</ele>
        <time>2025-05-18T08:21:44Z</time>
      </trkpt>
      <trkpt lat="43.739039981737733" lon="6.372820995748043">
        <ele>877.34000000000003</ele>
        <time>2025-05-18T08:21:45Z</time>
      </trkpt>
      <trkpt lat="43.739027995616198" lon="6.372718987986445">
        <ele>877.34000000000003</ele>
        <time>2025-05-18T08:21:46Z</time>
      </trkpt>
      <trkpt lat="43.739035958424211" lon="6.37262100353837">
        <ele>877.34000000000003</ele>
        <time>2025-05-18T08:21:47Z</time>
      </trkpt>
      <trkpt lat="43.739088010042906" lon="6.372537016868591">
        <ele>877.34000000000003</ele>
        <time>2025-05-18T08:21:48Z</time>
      </trkpt>
      <trkpt lat="43.739148024469614" lon="6.372440038248897">
        <ele>877.34000000000003</ele>
        <time>2025-05-18T08:21:49Z</time>
      </trkpt>
      <trkpt lat="43.739197980612516" lon="6.372329983860254">
        <ele>877.34000000000003</ele>
        <time>2025-05-18T08:21:50Z</time>
      </trkpt>
      <trkpt lat="43.739228993654251" lon="6.37217097915709">
        <ele>876.86000000000001</ele>
        <time>2025-05-18T08:21:51Z</time>
      </trkpt>
      <trkpt lat="43.739260006695986" lon="6.372005017474294">
        <ele>876.86000000000001</ele>
        <time>2025-05-18T08:21:52Z</time>
      </trkpt>
      <trkpt lat="43.739266963675618" lon="6.371848024427891">
        <ele>876.38</ele>
        <time>2025-05-18T08:21:53Z</time>
      </trkpt>
      <trkpt lat="43.739245003089309" lon="6.371681978926063">
        <ele>876.38</ele>
        <time>2025-05-18T08:21:54Z</time>
      </trkpt>
      <trkpt lat="43.739225976169109" lon="6.371534038335085">
        <ele>876.38</ele>
        <time>2025-05-18T08:21:55Z</time>
      </trkpt>
      <trkpt lat="43.739203009754419" lon="6.371408980339766">
        <ele>876.38</ele>
        <time>2025-05-18T08:21:56Z</time>
      </trkpt>
      <trkpt lat="43.739148024469614" lon="6.371298003941774">
        <ele>875.89999999999998</ele>
        <time>2025-05-18T08:21:57Z</time>
      </trkpt>
      <trkpt lat="43.739065965637565" lon="6.37124503031373">
        <ele>874.94000000000005</ele>
        <time>2025-05-18T08:21:58Z</time>
      </trkpt>
      <trkpt lat="43.738965969532728" lon="6.371178980916739">
        <ele>874.46000000000004</ele>
        <time>2025-05-18T08:21:59Z</time>
      </trkpt>
      <trkpt lat="43.738853987306356" lon="6.371105974540114">
        <ele>873.5</ele>
        <time>2025-05-18T08:22:00Z</time>
      </trkpt>
      <trkpt lat="43.738031974062324" lon="6.370568023994565">
        <ele>871.09000000000003</ele>
        <time>2025-05-18T08:22:07Z</time>
      </trkpt>
      <trkpt lat="43.737914962694049" lon="6.370553020387888">
        <ele>870.61000000000001</ele>
        <time>2025-05-18T08:22:08Z</time>
      </trkpt>
      <trkpt lat="43.737799962982535" lon="6.370538016781211">
        <ele>869.64999999999998</ele>
        <time>2025-05-18T08:22:09Z</time>
      </trkpt>
      <trkpt lat="43.73675499111414" lon="6.370587972924113">
        <ele>866.76999999999998</ele>
        <time>2025-05-18T08:22:16Z</time>
      </trkpt>
      <trkpt lat="43.735641036182642" lon="6.371084013953805">
        <ele>863.39999999999998</ele>
        <time>2025-05-18T08:22:22Z</time>
      </trkpt>
      <trkpt lat="43.735431991517544" lon="6.371130030602217">
        <ele>862.44000000000005</ele>
        <time>2025-05-18T08:22:23Z</time>
      </trkpt>
      <trkpt lat="43.734002038836479" lon="6.371680973097682">
        <ele>865.32000000000005</ele>
        <time>2025-05-18T08:22:30Z</time>
      </trkpt>
      <trkpt lat="43.733240040019155" lon="6.372167961671948">
        <ele>870.13</ele>
        <time>2025-05-18T08:22:34Z</time>
      </trkpt>
      <trkpt lat="43.733072988688946" lon="6.372337024658918">
        <ele>871.57000000000005</ele>
        <time>2025-05-18T08:22:35Z</time>
      </trkpt>
      <trkpt lat="43.732769982889295" lon="6.372654028236866">
        <ele>873.98000000000002</ele>
        <time>2025-05-18T08:22:37Z</time>
      </trkpt>
      <trkpt lat="43.732671998441219" lon="6.372828036546707">
        <ele>875.41999999999996</ele>
        <time>2025-05-18T08:22:38Z</time>
      </trkpt>
      <trkpt lat="43.732584994286299" lon="6.372993998229504">
        <ele>876.38</ele>
        <time>2025-05-18T08:22:39Z</time>
      </trkpt>
      <trkpt lat="43.732434036210179" lon="6.373228020966053">
        <ele>878.29999999999995</ele>
        <time>2025-05-18T08:22:41Z</time>
      </trkpt>
      <trkpt lat="43.732389025390148" lon="6.373250987380743">
        <ele>878.77999999999997</ele>
        <time>2025-05-18T08:22:42Z</time>
      </trkpt>
      <trkpt lat="43.732309984043241" lon="6.373234977945685">
        <ele>879.25999999999999</ele>
        <time>2025-05-18T08:22:43Z</time>
      </trkpt>
      <trkpt lat="43.732276037335396" lon="6.373183010146022">
        <ele>879.74000000000001</ele>
        <time>2025-05-18T08:22:44Z</time>
      </trkpt>
      <trkpt lat="43.732264973223209" lon="6.373083014041185">
        <ele>879.74000000000001</ele>
        <time>2025-05-18T08:22:45Z</time>
      </trkpt>
      <trkpt lat="43.732279976829886" lon="6.373015958815813">
        <ele>880.22000000000003</ele>
        <time>2025-05-18T08:22:46Z</time>
      </trkpt>
      <trkpt lat="43.73235197737813" lon="6.372943036258221">
        <ele>880.22000000000003</ele>
        <time>2025-05-18T08:22:47Z</time>
      </trkpt>
      <trkpt lat="43.732433030381799" lon="6.372862989082933">
        <ele>880.22000000000003</ele>
        <time>2025-05-18T08:22:48Z</time>
      </trkpt>
      <trkpt lat="43.732522968202829" lon="6.372742038220167">
        <ele>880.71000000000004</ele>
        <time>2025-05-18T08:22:49Z</time>
      </trkpt>
      <trkpt lat="43.732593040913343" lon="6.372590996325016">
        <ele>880.71000000000004</ele>
        <time>2025-05-18T08:22:50Z</time>
      </trkpt>
      <trkpt lat="43.732841983437538" lon="6.372052039951086">
        <ele>882.14999999999998</ele>
        <time>2025-05-18T08:22:53Z</time>
      </trkpt>
      <trkpt lat="43.733760975301266" lon="6.370749995112419">
        <ele>887.42999999999995</ele>
        <time>2025-05-18T08:23:00Z</time>
      </trkpt>
      <trkpt lat="43.734266990795732" lon="6.369888000190258">
        <ele>891.75999999999999</ele>
        <time>2025-05-18T08:23:04Z</time>
      </trkpt>
      <trkpt lat="43.735168967396021" lon="6.367906015366316">
        <ele>899.92999999999995</ele>
        <time>2025-05-18T08:23:13Z</time>
      </trkpt>
      <trkpt lat="43.735258989036083" lon="6.367752961814404">
        <ele>901.37</ele>
        <time>2025-05-18T08:23:14Z</time>
      </trkpt>
      <trkpt lat="43.735416987910867" lon="6.367490021511912">
        <ele>903.77999999999997</ele>
        <time>2025-05-18T08:23:16Z</time>
      </trkpt>
      <trkpt lat="43.735499968752265" lon="6.367349959909916">
        <ele>904.25999999999999</ele>
        <time>2025-05-18T08:23:17Z</time>
      </trkpt>
      <trkpt lat="43.735510027036071" lon="6.367219034582377">
        <ele>904.74000000000001</ele>
        <time>2025-05-18T08:23:18Z</time>
      </trkpt>
      <trkpt lat="43.735521007329226" lon="6.367071010172367">
        <ele>905.22000000000003</ele>
        <time>2025-05-18T08:23:19Z</time>
      </trkpt>
      <trkpt lat="43.735512038692832" lon="6.366956010460854">
        <ele>905.22000000000003</ele>
        <time>2025-05-18T08:23:20Z</time>
      </trkpt>
      <trkpt lat="43.735502986237407" lon="6.366837993264198">
        <ele>905.70000000000005</ele>
        <time>2025-05-18T08:23:21Z</time>
      </trkpt>
      <trkpt lat="43.735494017601013" lon="6.366728022694588">
        <ele>906.17999999999995</ele>
        <time>2025-05-18T08:23:22Z</time>
      </trkpt>
      <trkpt lat="43.735486976802349" lon="6.366644036024809">
        <ele>906.65999999999997</ele>
        <time>2025-05-18T08:23:23Z</time>
      </trkpt>
      <trkpt lat="43.735481025651097" lon="6.366567006334662">
        <ele>907.13999999999999</ele>
        <time>2025-05-18T08:23:24Z</time>
      </trkpt>
      <trkpt lat="43.735389998182654" lon="6.365696964785457">
        <ele>907.62</ele>
        <time>2025-05-18T08:23:34Z</time>
      </trkpt>
      <trkpt lat="43.735350016504526" lon="6.365504013374448">
        <ele>905.70000000000005</ele>
        <time>2025-05-18T08:23:36Z</time>
      </trkpt>
      <trkpt lat="43.735350016504526" lon="6.365504013374448">
        <ele>903.29999999999995</ele>
        <time>2025-05-18T08:23:42Z</time>
      </trkpt>
      <trkpt lat="43.735350016504526" lon="6.365504013374448">
        <ele>903.29999999999995</ele>
        <time>2025-05-18T08:24:10Z</time>
      </trkpt>
      <trkpt lat="43.735350016504526" lon="6.365504013374448">
        <ele>901.37</ele>
        <time>2025-05-18T08:25:06Z</time>
      </trkpt>
      <trkpt lat="43.735366025939584" lon="6.365154990926385">
        <ele>916.75</ele>
        <time>2025-05-18T08:26:24Z</time>
      </trkpt>
      <trkpt lat="43.73533601872623" lon="6.365181980654597">
        <ele>926.85000000000002</ele>
        <time>2025-05-18T08:26:36Z</time>
      </trkpt>
      <trkpt lat="43.735223030671477" lon="6.364545039832592">
        <ele>915.78999999999996</ele>
        <time>2025-05-18T08:26:49Z</time>
      </trkpt>
      <trkpt lat="43.735139966011047" lon="6.364267012104392">
        <ele>907.62</ele>
        <time>2025-05-18T08:26:50Z</time>
      </trkpt>
      <trkpt lat="43.735074000433087" lon="6.364094009622932">
        <ele>908.10000000000002</ele>
        <time>2025-05-18T08:26:51Z</time>
      </trkpt>
      <trkpt lat="43.734941985458136" lon="6.363744987174869">
        <ele>910.99000000000001</ele>
        <time>2025-05-18T08:26:52Z</time>
      </trkpt>
      <trkpt lat="43.734792033210397" lon="6.363572990521789">
        <ele>910.99000000000001</ele>
        <time>2025-05-18T08:26:53Z</time>
      </trkpt>
      <trkpt lat="43.734664963558316" lon="6.36355203576386">
        <ele>914.35000000000002</ele>
        <time>2025-05-18T08:26:54Z</time>
      </trkpt>
      <trkpt lat="43.734539989382029" lon="6.36355203576386">
        <ele>914.83000000000004</ele>
        <time>2025-05-18T08:26:55Z</time>
      </trkpt>
      <trkpt lat="43.734403029084206" lon="6.36355203576386">
        <ele>916.75</ele>
        <time>2025-05-18T08:26:56Z</time>
      </trkpt>
      <trkpt lat="43.733154963701963" lon="6.36364096775651">
        <ele>920.60000000000002</ele>
        <time>2025-05-18T08:27:03Z</time>
      </trkpt>
      <trkpt lat="43.731497023254633" lon="6.364052016288042">
        <ele>915.30999999999995</ele>
        <time>2025-05-18T08:27:12Z</time>
      </trkpt>
      <trkpt lat="43.72964202426374" lon="6.364489970728755">
        <ele>905.70000000000005</ele>
        <time>2025-05-18T08:27:23Z</time>
      </trkpt>
      <trkpt lat="43.728562016040087" lon="6.364553002640605">
        <ele>899.45000000000005</ele>
        <time>2025-05-18T08:27:29Z</time>
      </trkpt>
      <trkpt lat="43.728393036872149" lon="6.364561971276999">
        <ele>898.49000000000001</ele>
        <time>2025-05-18T08:27:30Z</time>
      </trkpt>
      <trkpt lat="43.728250963613391" lon="6.364645035937429">
        <ele>897.52999999999997</ele>
        <time>2025-05-18T08:27:31Z</time>
      </trkpt>
      <trkpt lat="43.728130012750626" lon="6.364720975980163">
        <ele>896.09000000000003</ele>
        <time>2025-05-18T08:27:32Z</time>
      </trkpt>
      <trkpt lat="43.728022975847125" lon="6.364836981520057">
        <ele>895.61000000000001</ele>
        <time>2025-05-18T08:27:33Z</time>
      </trkpt>
      <trkpt lat="43.727810997515917" lon="6.365006966516376">
        <ele>893.20000000000005</ele>
        <time>2025-05-18T08:27:35Z</time>
      </trkpt>
      <trkpt lat="43.72771100141108" lon="6.365032028406858">
        <ele>892.24000000000001</ele>
        <time>2025-05-18T08:27:36Z</time>
      </trkpt>
      <trkpt lat="43.727637995034456" lon="6.36499104090035">
        <ele>891.27999999999997</ele>
        <time>2025-05-18T08:27:37Z</time>
      </trkpt>
      <trkpt lat="43.727545039728284" lon="6.364919962361455">
        <ele>890.32000000000005</ele>
        <time>2025-05-18T08:27:38Z</time>
      </trkpt>
      <trkpt lat="43.727487958967686" lon="6.364770010113716">
        <ele>889.36000000000001</ele>
        <time>2025-05-18T08:27:39Z</time>
      </trkpt>
      <trkpt lat="43.727502962574363" lon="6.36458401568234">
        <ele>888.39999999999998</ele>
        <time>2025-05-18T08:27:40Z</time>
      </trkpt>
      <trkpt lat="43.727546967566013" lon="6.364450994879007">
        <ele>887.90999999999997</ele>
        <time>2025-05-18T08:27:41Z</time>
      </trkpt>
      <trkpt lat="43.727630032226443" lon="6.364311017096043">
        <ele>887.42999999999995</ele>
        <time>2025-05-18T08:27:42Z</time>
      </trkpt>
      <trkpt lat="43.727716030552983" lon="6.364189982414246">
        <ele>886.95000000000005</ele>
        <time>2025-05-18T08:27:43Z</time>
      </trkpt>
      <trkpt lat="43.727807980030775" lon="6.364058973267674">
        <ele>886.47000000000003</ele>
        <time>2025-05-18T08:27:44Z</time>
      </trkpt>
      <trkpt lat="43.728740969672799" lon="6.362744020298123">
        <ele>882.14999999999998</ele>
        <time>2025-05-18T08:27:52Z</time>
      </trkpt>
      <trkpt lat="43.729807985946536" lon="6.361229997128248">
        <ele>875.41999999999996</ele>
        <time>2025-05-18T08:28:00Z</time>
      </trkpt>
      <trkpt lat="43.729909993708134" lon="6.361010977998376">
        <ele>874.46000000000004</ele>
        <time>2025-05-18T08:28:01Z</time>
      </trkpt>
      <trkpt lat="43.730103028938174" lon="6.360320979729295">
        <ele>872.04999999999995</ele>
        <time>2025-05-18T08:28:04Z</time>
      </trkpt>
      <trkpt lat="43.730139993131161" lon="6.360089974477887">
        <ele>871.09000000000003</ele>
        <time>2025-05-18T08:28:05Z</time>
      </trkpt>
      <trkpt lat="43.730286005884409" lon="6.357737006619573">
        <ele>861.48000000000002</ele>
        <time>2025-05-18T08:28:14Z</time>
      </trkpt>
      <trkpt lat="43.730286005884409" lon="6.357543971389532">
        <ele>860.51999999999998</ele>
        <time>2025-05-18T08:28:15Z</time>
      </trkpt>
      <trkpt lat="43.730254992842674" lon="6.35734498500824">
        <ele>859.08000000000004</ele>
        <time>2025-05-18T08:28:16Z</time>
      </trkpt>
      <trkpt lat="43.730226997286081" lon="6.357159996405244">
        <ele>858.11000000000001</ele>
        <time>2025-05-18T08:28:17Z</time>
      </trkpt>
      <trkpt lat="43.730200007557869" lon="6.356985988095403">
        <ele>857.14999999999998</ele>
        <time>2025-05-18T08:28:18Z</time>
      </trkpt>
      <trkpt lat="43.730231020599604" lon="6.35680602863431">
        <ele>856.19000000000005</ele>
        <time>2025-05-18T08:28:19Z</time>
      </trkpt>
      <trkpt lat="43.730262033641338" lon="6.356626991182566">
        <ele>854.75</ele>
        <time>2025-05-18T08:28:20Z</time>
      </trkpt>
      <trkpt lat="43.730303021147847" lon="6.356435967609286">
        <ele>853.78999999999996</ele>
        <time>2025-05-18T08:28:21Z</time>
      </trkpt>
      <trkpt lat="43.730511981993914" lon="6.355779999867082">
        <ele>851.38</ele>
        <time>2025-05-18T08:28:24Z</time>
      </trkpt>
      <trkpt lat="43.731224024668336" lon="6.354266982525587">
        <ele>844.17999999999995</ele>
        <time>2025-05-18T08:28:31Z</time>
      </trkpt>
      <trkpt lat="43.732112003490329" lon="6.353044984862208">
        <ele>836.96000000000004</ele>
        <time>2025-05-18T08:28:38Z</time>
      </trkpt>
      <trkpt lat="43.732248963788152" lon="6.352900983765721">
        <ele>836.48000000000002</ele>
        <time>2025-05-18T08:28:39Z</time>
      </trkpt>
      <trkpt lat="43.732387013733387" lon="6.35279000736773">
        <ele>835.51999999999998</ele>
        <time>2025-05-18T08:28:40Z</time>
      </trkpt>
      <trkpt lat="43.732546018436551" lon="6.352708032354713">
        <ele>834.55999999999995</ele>
        <time>2025-05-18T08:28:41Z</time>
      </trkpt>
      <trkpt lat="43.732712985947728" lon="6.352621028199792">
        <ele>834.08000000000004</ele>
        <time>2025-05-18T08:28:42Z</time>
      </trkpt>
      <trkpt lat="43.732880959287286" lon="6.352534024044871">
        <ele>833.12</ele>
        <time>2025-05-18T08:28:43Z</time>
      </trkpt>
      <trkpt lat="43.733043987303972" lon="6.352417012676597">
        <ele>832.15999999999997</ele>
        <time>2025-05-18T08:28:44Z</time>
      </trkpt>
      <trkpt lat="43.73469497077167" lon="6.351183028891683">
        <ele>824.95000000000005</ele>
        <time>2025-05-18T08:28:54Z</time>
      </trkpt>
      <trkpt lat="43.734966963529587" lon="6.350980019196868">
        <ele>823.99000000000001</ele>
        <time>2025-05-18T08:28:56Z</time>
      </trkpt>
      <trkpt lat="43.735087998211384" lon="6.350874993950129">
        <ele>823.02999999999997</ele>
        <time>2025-05-18T08:28:57Z</time>
      </trkpt>
      <trkpt lat="43.735241973772645" lon="6.350720012560487">
        <ele>822.54999999999995</ele>
        <time>2025-05-18T08:28:58Z</time>
      </trkpt>
      <trkpt lat="43.735978994518518" lon="6.349359964951873">
        <ele>817.74000000000001</ele>
        <time>2025-05-18T08:29:05Z</time>
      </trkpt>
      <trkpt lat="43.736169012263417" lon="6.349009014666081">
        <ele>816.29999999999995</ele>
        <time>2025-05-18T08:29:07Z</time>
      </trkpt>
      <trkpt lat="43.736245036125183" lon="6.348832994699478">
        <ele>815.82000000000005</ele>
        <time>2025-05-18T08:29:08Z</time>
      </trkpt>
      <trkpt lat="43.736289963126183" lon="6.348640965297818">
        <ele>815.34000000000003</ele>
        <time>2025-05-18T08:29:09Z</time>
      </trkpt>
      <trkpt lat="43.736337991431355" lon="6.348440973088145">
        <ele>814.85000000000002</ele>
        <time>2025-05-18T08:29:10Z</time>
      </trkpt>
      <trkpt lat="43.736385013908148" lon="6.348245004191995">
        <ele>813.88999999999999</ele>
        <time>2025-05-18T08:29:11Z</time>
      </trkpt>
      <trkpt lat="43.736484004184604" lon="6.347874021157622">
        <ele>811.97000000000003</ele>
        <time>2025-05-18T08:29:13Z</time>
      </trkpt>
      <trkpt lat="43.736562039703131" lon="6.347724990919232">
        <ele>811.00999999999999</ele>
        <time>2025-05-18T08:29:14Z</time>
      </trkpt>
      <trkpt lat="43.736691037192941" lon="6.347454003989697">
        <ele>809.09000000000003</ele>
        <time>2025-05-18T08:29:16Z</time>
      </trkpt>
      <trkpt lat="43.736723978072405" lon="6.347302962094545">
        <ele>808.61000000000001</ele>
        <time>2025-05-18T08:29:17Z</time>
      </trkpt>
      <trkpt lat="43.736877031624317" lon="6.346670966595411">
        <ele>804.75999999999999</ele>
        <time>2025-05-18T08:29:21Z</time>
      </trkpt>
      <trkpt lat="43.736924976110458" lon="6.34655999019742">
        <ele>803.79999999999995</ele>
        <time>2025-05-18T08:29:22Z</time>
      </trkpt>
      <trkpt lat="43.737097978591919" lon="6.346161011606455">
        <ele>800.44000000000005</ele>
        <time>2025-05-18T08:29:29Z</time>
      </trkpt>
      <trkpt lat="43.737125974148512" lon="6.346026984974742">
        <ele>798.02999999999997</ele>
        <time>2025-05-18T08:29:34Z</time>
      </trkpt>
      <trkpt lat="43.737124968320131" lon="6.346005024388433">
        <ele>797.54999999999995</ele>
        <time>2025-05-18T08:29:35Z</time>
      </trkpt>
      <trkpt lat="43.737122034654021" lon="6.34597803466022">
        <ele>797.54999999999995</ele>
        <time>2025-05-18T08:29:36Z</time>
      </trkpt>
      <trkpt lat="43.73711901716888" lon="6.345927994698286">
        <ele>797.07000000000005</ele>
        <time>2025-05-18T08:29:37Z</time>
      </trkpt>
      <trkpt lat="43.737112982198596" lon="6.345859011635184">
        <ele>796.59000000000003</ele>
        <time>2025-05-18T08:29:38Z</time>
      </trkpt>
      <trkpt lat="43.737107031047344" lon="6.345772007480264">
        <ele>796.11000000000001</ele>
        <time>2025-05-18T08:29:39Z</time>
      </trkpt>
      <trkpt lat="43.7370989844203" lon="6.345671005547047">
        <ele>795.14999999999998</ele>
        <time>2025-05-18T08:29:40Z</time>
      </trkpt>
      <trkpt lat="43.737090015783906" lon="6.345557011663914">
        <ele>794.66999999999996</ele>
        <time>2025-05-18T08:29:41Z</time>
      </trkpt>
      <trkpt lat="43.737108036875725" lon="6.345427008345723">
        <ele>794.19000000000005</ele>
        <time>2025-05-18T08:29:42Z</time>
      </trkpt>
      <trkpt lat="43.737148018553853" lon="6.345294993370771">
        <ele>793.71000000000004</ele>
        <time>2025-05-18T08:29:43Z</time>
      </trkpt>
      <trkpt lat="43.73722898773849" lon="6.34520698338747">
        <ele>793.22000000000003</ele>
        <time>2025-05-18T08:29:44Z</time>
      </trkpt>
      <trkpt lat="43.737322026863694" lon="6.345105981454253">
        <ele>792.25999999999999</ele>
        <time>2025-05-18T08:29:45Z</time>
      </trkpt>
      <trkpt lat="43.737422022968531" lon="6.344998022541404">
        <ele>791.77999999999997</ele>
        <time>2025-05-18T08:29:46Z</time>
      </trkpt>
      <trkpt lat="43.737715976312757" lon="6.344643970951438">
        <ele>789.86000000000001</ele>
        <time>2025-05-18T08:29:49Z</time>
      </trkpt>
      <trkpt lat="43.737796023488045" lon="6.344497036188841">
        <ele>789.38</ele>
        <time>2025-05-18T08:29:50Z</time>
      </trkpt>
      <trkpt lat="43.737838016822934" lon="6.344354040920734">
        <ele>788.41999999999996</ele>
        <time>2025-05-18T08:29:51Z</time>
      </trkpt>
      <trkpt lat="43.737887972965837" lon="6.344180032610893">
        <ele>787.94000000000005</ele>
        <time>2025-05-18T08:29:52Z</time>
      </trkpt>
      <trkpt lat="43.737945975735784" lon="6.34398196823895">
        <ele>787.46000000000004</ele>
        <time>2025-05-18T08:29:53Z</time>
      </trkpt>
      <trkpt lat="43.738027028739452" lon="6.34383000433445">
        <ele>787.46000000000004</ele>
        <time>2025-05-18T08:29:54Z</time>
      </trkpt>
      <trkpt lat="43.738116966560483" lon="6.343663958832622">
        <ele>787.46000000000004</ele>
        <time>2025-05-18T08:29:55Z</time>
      </trkpt>
      <trkpt lat="43.738575037568808" lon="6.342807998880744">
        <ele>790.34000000000003</ele>
        <time>2025-05-18T08:30:00Z</time>
      </trkpt>
      <trkpt lat="43.738632034510374" lon="6.342593003064394">
        <ele>790.82000000000005</ele>
        <time>2025-05-18T08:30:01Z</time>
      </trkpt>
      <trkpt lat="43.738803025335073" lon="6.341958995908499">
        <ele>793.71000000000004</ele>
        <time>2025-05-18T08:30:04Z</time>
      </trkpt>
      <trkpt lat="43.738878965377808" lon="6.341753974556923">
        <ele>794.19000000000005</ele>
        <time>2025-05-18T08:30:05Z</time>
      </trkpt>
      <trkpt lat="43.739154981449246" lon="6.341242007911205">
        <ele>796.59000000000003</ele>
        <time>2025-05-18T08:30:08Z</time>
      </trkpt>
      <trkpt lat="43.739234022796154" lon="6.341097000986338">
        <ele>797.54999999999995</ele>
        <time>2025-05-18T08:30:09Z</time>
      </trkpt>
      <trkpt lat="43.739297976717353" lon="6.340977977961302">
        <ele>798.02999999999997</ele>
        <time>2025-05-18T08:30:10Z</time>
      </trkpt>
      <trkpt lat="43.739424962550402" lon="6.340927015990019">
        <ele>798.50999999999999</ele>
        <time>2025-05-18T08:30:11Z</time>
      </trkpt>
      <trkpt lat="43.739547003060579" lon="6.340878987684846">
        <ele>798.50999999999999</ele>
        <time>2025-05-18T08:30:12Z</time>
      </trkpt>
      <trkpt lat="43.739673988893628" lon="6.340851997956634">
        <ele>798.99000000000001</ele>
        <time>2025-05-18T08:30:13Z</time>
      </trkpt>
      <trkpt lat="43.739811033010483" lon="6.340859038755298">
        <ele>799.47000000000003</ele>
        <time>2025-05-18T08:30:14Z</time>
      </trkpt>
      <trkpt lat="43.739954028278589" lon="6.340867001563311">
        <ele>799.47000000000003</ele>
        <time>2025-05-18T08:30:15Z</time>
      </trkpt>
      <trkpt lat="43.741250960156322" lon="6.340934978798032">
        <ele>801.39999999999998</ele>
        <time>2025-05-18T08:30:24Z</time>
      </trkpt>
      <trkpt lat="43.741363026201725" lon="6.340891979634762">
        <ele>801.39999999999998</ele>
        <time>2025-05-18T08:30:25Z</time>
      </trkpt>
      <trkpt lat="43.74148397706449" lon="6.340845040977001">
        <ele>800.91999999999996</ele>
        <time>2025-05-18T08:30:26Z</time>
      </trkpt>
      <trkpt lat="43.74159000813961" lon="6.340756025165319">
        <ele>800.91999999999996</ele>
        <time>2025-05-18T08:30:27Z</time>
      </trkpt>
      <trkpt lat="43.74167600646615" lon="6.340652005746961">
        <ele>800.44000000000005</ele>
        <time>2025-05-18T08:30:28Z</time>
      </trkpt>
      <trkpt lat="43.741748007014394" lon="6.340555027127266">
        <ele>799.95000000000005</ele>
        <time>2025-05-18T08:30:29Z</time>
      </trkpt>
      <trkpt lat="43.741779020056129" lon="6.340431980788708">
        <ele>799.47000000000003</ele>
        <time>2025-05-18T08:30:30Z</time>
      </trkpt>
      <trkpt lat="43.741773990914226" lon="6.340302983298898">
        <ele>798.50999999999999</ele>
        <time>2025-05-18T08:30:31Z</time>
      </trkpt>
      <trkpt lat="43.741753958165646" lon="6.340153031051159">
        <ele>798.02999999999997</ele>
        <time>2025-05-18T08:30:32Z</time>
      </trkpt>
      <trkpt lat="43.741709031164646" lon="6.339995032176375">
        <ele>798.02999999999997</ele>
        <time>2025-05-18T08:30:33Z</time>
      </trkpt>
      <trkpt lat="43.741641975939274" lon="6.339841978624463">
        <ele>798.02999999999997</ele>
        <time>2025-05-18T08:30:34Z</time>
      </trkpt>
      <trkpt lat="43.741571987047791" lon="6.339680040255189">
        <ele>798.50999999999999</ele>
        <time>2025-05-18T08:30:35Z</time>
      </trkpt>
      <trkpt lat="43.741499986499548" lon="6.339516006410122">
        <ele>798.99000000000001</ele>
        <time>2025-05-18T08:30:36Z</time>
      </trkpt>
      <trkpt lat="43.741427985951304" lon="6.339349960908294">
        <ele>798.99000000000001</ele>
        <time>2025-05-18T08:30:37Z</time>
      </trkpt>
      <trkpt lat="43.741356991231441" lon="6.339186010882258">
        <ele>799.95000000000005</ele>
        <time>2025-05-18T08:30:38Z</time>
      </trkpt>
      <trkpt lat="43.74131198041141" lon="6.339006973430514">
        <ele>800.44000000000005</ele>
        <time>2025-05-18T08:30:39Z</time>
      </trkpt>
      <trkpt lat="43.741305023431778" lon="6.338832965120673">
        <ele>800.91999999999996</ele>
        <time>2025-05-18T08:30:40Z</time>
      </trkpt>
      <trkpt lat="43.741297982633114" lon="6.338664991781116">
        <ele>801.39999999999998</ele>
        <time>2025-05-18T08:30:41Z</time>
      </trkpt>
      <trkpt lat="43.741325978189707" lon="6.338472040370107">
        <ele>801.88</ele>
        <time>2025-05-18T08:30:42Z</time>
      </trkpt>
      <trkpt lat="43.74139797873795" lon="6.338307000696659">
        <ele>802.84000000000003</ele>
        <time>2025-05-18T08:30:43Z</time>
      </trkpt>
      <trkpt lat="43.741488000378013" lon="6.338149001821876">
        <ele>803.32000000000005</ele>
        <time>2025-05-18T08:30:44Z</time>
      </trkpt>
      <trkpt lat="43.741585984826088" lon="6.337977005168796">
        <ele>804.27999999999997</ele>
        <time>2025-05-18T08:30:45Z</time>
      </trkpt>
      <trkpt lat="43.741798968985677" lon="6.337604010477662">
        <ele>806.67999999999995</ele>
        <time>2025-05-18T08:30:47Z</time>
      </trkpt>
      <trkpt lat="43.741881027817726" lon="6.33738499134779">
        <ele>807.63999999999999</ele>
        <time>2025-05-18T08:30:48Z</time>
      </trkpt>
      <trkpt lat="43.74208596535027" lon="6.336704967543483">
        <ele>811.49000000000001</ele>
        <time>2025-05-18T08:30:51Z</time>
      </trkpt>
      <trkpt lat="43.742129970341921" lon="6.336470022797585">
        <ele>812.45000000000005</ele>
        <time>2025-05-18T08:30:52Z</time>
      </trkpt>
      <trkpt lat="43.74217196367681" lon="6.336244968697429">
        <ele>813.88999999999999</ele>
        <time>2025-05-18T08:30:53Z</time>
      </trkpt>
      <trkpt lat="43.742703041061759" lon="6.334479991346598">
        <ele>823.50999999999999</ele>
        <time>2025-05-18T08:31:01Z</time>
      </trkpt>
      <trkpt lat="43.742980984970927" lon="6.333599975332618">
        <ele>828.78999999999996</ele>
        <time>2025-05-18T08:31:05Z</time>
      </trkpt>
      <trkpt lat="43.7430290132761" lon="6.333369975909591">
        <ele>829.75999999999999</ele>
        <time>2025-05-18T08:31:06Z</time>
      </trkpt>
      <trkpt lat="43.743130015209317" lon="6.332886004820466">
        <ele>832.15999999999997</ele>
        <time>2025-05-18T08:31:08Z</time>
      </trkpt>
      <trkpt lat="43.743192041292787" lon="6.332647036761046">
        <ele>833.12</ele>
        <time>2025-05-18T08:31:09Z</time>
      </trkpt>
      <trkpt lat="43.743493035435677" lon="6.331721004098654">
        <ele>836.96000000000004</ele>
        <time>2025-05-18T08:31:13Z</time>
      </trkpt>
      <trkpt lat="43.74354399740696" lon="6.331512965261936">
        <ele>837.45000000000005</ele>
        <time>2025-05-18T08:31:14Z</time>
      </trkpt>
      <trkpt lat="43.743592025712132" lon="6.331315990537405">
        <ele>838.40999999999997</ele>
        <time>2025-05-18T08:31:15Z</time>
      </trkpt>
      <trkpt lat="43.743655979633331" lon="6.331146005541086">
        <ele>838.88999999999999</ele>
        <time>2025-05-18T08:31:16Z</time>
      </trkpt>
      <trkpt lat="43.743733009323478" lon="6.330993035808206">
        <ele>839.37</ele>
        <time>2025-05-18T08:31:17Z</time>
      </trkpt>
      <trkpt lat="43.743806015700102" lon="6.330847023054957">
        <ele>839.85000000000002</ele>
        <time>2025-05-18T08:31:18Z</time>
      </trkpt>
      <trkpt lat="43.743847003206611" lon="6.330710984766483">
        <ele>840.33000000000004</ele>
        <time>2025-05-18T08:31:19Z</time>
      </trkpt>
      <trkpt lat="43.743847003206611" lon="6.33057695813477">
        <ele>840.33000000000004</ele>
        <time>2025-05-18T08:31:20Z</time>
      </trkpt>
      <trkpt lat="43.743847003206611" lon="6.33044502697885">
        <ele>840.80999999999995</ele>
        <time>2025-05-18T08:31:21Z</time>
      </trkpt>
      <trkpt lat="43.743877010419965" lon="6.330327009782195">
        <ele>840.80999999999995</ele>
        <time>2025-05-18T08:31:22Z</time>
      </trkpt>
      <trkpt lat="43.743939958512783" lon="6.330219972878695">
        <ele>840.80999999999995</ele>
        <time>2025-05-18T08:31:23Z</time>
      </trkpt>
      <trkpt lat="43.744010031223297" lon="6.33010103367269">
        <ele>840.80999999999995</ele>
        <time>2025-05-18T08:31:24Z</time>
      </trkpt>
      <trkpt lat="43.744072979316115" lon="6.329958038404584">
        <ele>840.80999999999995</ele>
        <time>2025-05-18T08:31:25Z</time>
      </trkpt>
      <trkpt lat="43.744112960994244" lon="6.329776989296079">
        <ele>840.80999999999995</ele>
        <time>2025-05-18T08:31:26Z</time>
      </trkpt>
      <trkpt lat="43.744154032319784" lon="6.329588983207941">
        <ele>840.33000000000004</ele>
        <time>2025-05-18T08:31:27Z</time>
      </trkpt>
      <trkpt lat="43.744169035926461" lon="6.329412963241339">
        <ele>840.33000000000004</ele>
        <time>2025-05-18T08:31:28Z</time>
      </trkpt>
      <trkpt lat="43.744155960157514" lon="6.329267034307122">
        <ele>840.33000000000004</ele>
        <time>2025-05-18T08:31:29Z</time>
      </trkpt>
      <trkpt lat="43.744110027328134" lon="6.329129990190268">
        <ele>839.85000000000002</ele>
        <time>2025-05-18T08:31:30Z</time>
      </trkpt>
      <trkpt lat="43.744059987366199" lon="6.328979032114148">
        <ele>839.85000000000002</ele>
        <time>2025-05-18T08:31:31Z</time>
      </trkpt>
      <trkpt lat="43.744008019566536" lon="6.328821033239365">
        <ele>839.37</ele>
        <time>2025-05-18T08:31:32Z</time>
      </trkpt>
      <trkpt lat="43.744007013738155" lon="6.32870402187109">
        <ele>839.37</ele>
        <time>2025-05-18T08:31:33Z</time>
      </trkpt>
      <trkpt lat="43.744018999859691" lon="6.328596984967589">
        <ele>838.88999999999999</ele>
        <time>2025-05-18T08:31:34Z</time>
      </trkpt>
      <trkpt lat="43.74408102594316" lon="6.32851199246943">
        <ele>838.40999999999997</ele>
        <time>2025-05-18T08:31:35Z</time>
      </trkpt>
      <trkpt lat="43.744152020663023" lon="6.328413002192974">
        <ele>838.40999999999997</ele>
        <time>2025-05-18T08:31:36Z</time>
      </trkpt>
      <trkpt lat="43.744213040918112" lon="6.328248968347907">
        <ele>838.40999999999997</ele>
        <time>2025-05-18T08:31:37Z</time>
      </trkpt>
      <trkpt lat="43.744215974584222" lon="6.328069008886814">
        <ele>838.40999999999997</ele>
        <time>2025-05-18T08:31:38Z</time>
      </trkpt>
      <trkpt lat="43.744184039533138" lon="6.327926013618708">
        <ele>838.40999999999997</ele>
        <time>2025-05-18T08:31:39Z</time>
      </trkpt>
      <trkpt lat="43.744150009006262" lon="6.327772960066795">
        <ele>838.40999999999997</ele>
        <time>2025-05-18T08:31:40Z</time>
      </trkpt>
      <trkpt lat="43.744116984307766" lon="6.327624013647437">
        <ele>838.88999999999999</ele>
        <time>2025-05-18T08:31:41Z</time>
      </trkpt>
      <trkpt lat="43.744100974872708" lon="6.327503984794021">
        <ele>838.88999999999999</ele>
        <time>2025-05-18T08:31:42Z</time>
      </trkpt>
      <trkpt lat="43.744095023721457" lon="6.327379010617733">
        <ele>839.37</ele>
        <time>2025-05-18T08:31:43Z</time>
      </trkpt>
      <trkpt lat="43.744087982922792" lon="6.327249007299542">
        <ele>839.85000000000002</ele>
        <time>2025-05-18T08:31:44Z</time>
      </trkpt>
      <trkpt lat="43.74408102594316" lon="6.327110035344958">
        <ele>839.85000000000002</ele>
        <time>2025-05-18T08:31:45Z</time>
      </trkpt>
      <trkpt lat="43.744072979316115" lon="6.326958993449807">
        <ele>839.85000000000002</ele>
        <time>2025-05-18T08:31:46Z</time>
      </trkpt>
      <trkpt lat="43.744065016508102" lon="6.326806023716927">
        <ele>839.85000000000002</ele>
        <time>2025-05-18T08:31:47Z</time>
      </trkpt>
      <trkpt lat="43.744070967659354" lon="6.326682977378368">
        <ele>839.85000000000002</ele>
        <time>2025-05-18T08:31:48Z</time>
      </trkpt>
      <trkpt lat="43.744111033156514" lon="6.326591027900577">
        <ele>839.37</ele>
        <time>2025-05-18T08:31:49Z</time>
      </trkpt>
      <trkpt lat="43.744186973199248" lon="6.326505029574037">
        <ele>839.37</ele>
        <time>2025-05-18T08:31:50Z</time>
      </trkpt>
      <trkpt lat="43.744271965697408" lon="6.326408972963691">
        <ele>839.37</ele>
        <time>2025-05-18T08:31:51Z</time>
      </trkpt>
      <trkpt lat="43.744362993165851" lon="6.326305037364364">
        <ele>838.88999999999999</ele>
        <time>2025-05-18T08:31:52Z</time>
      </trkpt>
      <trkpt lat="43.744440022855997" lon="6.326145026832819">
        <ele>838.88999999999999</ele>
        <time>2025-05-18T08:31:53Z</time>
      </trkpt>
      <trkpt lat="43.744495008140802" lon="6.325970012694597">
        <ele>838.40999999999997</ele>
        <time>2025-05-18T08:31:54Z</time>
      </trkpt>
      <trkpt lat="43.744550999253988" lon="6.325787035748363">
        <ele>838.40999999999997</ele>
        <time>2025-05-18T08:31:55Z</time>
      </trkpt>
      <trkpt lat="43.744658036157489" lon="6.325444970279932">
        <ele>837.45000000000005</ele>
        <time>2025-05-18T08:31:57Z</time>
      </trkpt>
      <trkpt lat="43.744702041149139" lon="6.325301975011826">
        <ele>836.96000000000004</ele>
        <time>2025-05-18T08:31:58Z</time>
      </trkpt>
      <trkpt lat="43.744704974815249" lon="6.325142970308662">
        <ele>836.96000000000004</ele>
        <time>2025-05-18T08:31:59Z</time>
      </trkpt>
      <trkpt lat="43.744671028107405" lon="6.325010033324361">
        <ele>836.96000000000004</ele>
        <time>2025-05-18T08:32:00Z</time>
      </trkpt>
      <trkpt lat="43.744627023115754" lon="6.324896039441228">
        <ele>836.96000000000004</ele>
        <time>2025-05-18T08:32:01Z</time>
      </trkpt>
      <trkpt lat="43.744577988982201" lon="6.324769975617528">
        <ele>836.96000000000004</ele>
        <time>2025-05-18T08:32:02Z</time>
      </trkpt>
      <trkpt lat="43.74449098482728" lon="6.324541987851262">
        <ele>836.96000000000004</ele>
        <time>2025-05-18T08:32:04Z</time>
      </trkpt>
      <trkpt lat="43.744474975392222" lon="6.324401004239917">
        <ele>836.48000000000002</ele>
        <time>2025-05-18T08:32:05Z</time>
      </trkpt>
      <trkpt lat="43.744484027847648" lon="6.324305031448603">
        <ele>836.48000000000002</ele>
        <time>2025-05-18T08:32:06Z</time>
      </trkpt>
      <trkpt lat="43.744530966505408" lon="6.324167987331748">
        <ele>836.48000000000002</ele>
        <time>2025-05-18T08:32:07Z</time>
      </trkpt>
      <trkpt lat="43.744581006467342" lon="6.3240219745785">
        <ele>836</ele>
        <time>2025-05-18T08:32:08Z</time>
      </trkpt>
      <trkpt lat="43.744630962610245" lon="6.323875961825252">
        <ele>836</ele>
        <time>2025-05-18T08:32:09Z</time>
      </trkpt>
      <trkpt lat="43.744716038927436" lon="6.323628025129437">
        <ele>835.51999999999998</ele>
        <time>2025-05-18T08:32:11Z</time>
      </trkpt>
      <trkpt lat="43.744780998677015" lon="6.323552001267672">
        <ele>835.51999999999998</ele>
        <time>2025-05-18T08:32:12Z</time>
      </trkpt>
      <trkpt lat="43.744878983125091" lon="6.323486035689712">
        <ele>835.03999999999996</ele>
        <time>2025-05-18T08:32:13Z</time>
      </trkpt>
      <trkpt lat="43.744998006150126" lon="6.323461979627609">
        <ele>835.03999999999996</ele>
        <time>2025-05-18T08:32:14Z</time>
      </trkpt>
      <trkpt lat="43.745128009468317" lon="6.323457034304738">
        <ele>835.03999999999996</ele>
        <time>2025-05-18T08:32:15Z</time>
      </trkpt>
      <trkpt lat="43.745271004736423" lon="6.323482012376189">
        <ele>835.03999999999996</ele>
        <time>2025-05-18T08:32:16Z</time>
      </trkpt>
      <trkpt lat="43.745425986126065" lon="6.323507996276021">
        <ele>835.51999999999998</ele>
        <time>2025-05-18T08:32:17Z</time>
      </trkpt>
      <trkpt lat="43.745869975537062" lon="6.323564993217588">
        <ele>836</ele>
        <time>2025-05-18T08:32:20Z</time>
      </trkpt>
      <trkpt lat="43.746012970805168" lon="6.323531968519092">
        <ele>836</ele>
        <time>2025-05-18T08:32:21Z</time>
      </trkpt>
      <trkpt lat="43.746537007391453" lon="6.323413029313088">
        <ele>837.45000000000005</ele>
        <time>2025-05-18T08:32:25Z</time>
      </trkpt>
      <trkpt lat="43.746610013768077" lon="6.32335402071476">
        <ele>837.92999999999995</ele>
        <time>2025-05-18T08:32:26Z</time>
      </trkpt>
      <trkpt lat="43.746668016538024" lon="6.323276991024613">
        <ele>838.40999999999997</ele>
        <time>2025-05-18T08:32:27Z</time>
      </trkpt>
      <trkpt lat="43.746702969074249" lon="6.323193004354835">
        <ele>838.40999999999997</ele>
        <time>2025-05-18T08:32:28Z</time>
      </trkpt>
      <trkpt lat="43.746710009872913" lon="6.323067024350166">
        <ele>838.88999999999999</ele>
        <time>2025-05-18T08:32:29Z</time>
      </trkpt>
      <trkpt lat="43.746716966852546" lon="6.322942972183228">
        <ele>839.37</ele>
        <time>2025-05-18T08:32:30Z</time>
      </trkpt>
      <trkpt lat="43.746721995994449" lon="6.322845993563533">
        <ele>839.37</ele>
        <time>2025-05-18T08:32:31Z</time>
      </trkpt>
      <trkpt lat="43.746778992936015" lon="6.322767036035657">
        <ele>839.85000000000002</ele>
        <time>2025-05-18T08:32:32Z</time>
      </trkpt>
      <trkpt lat="43.746820986270905" lon="6.322708027437329">
        <ele>839.85000000000002</ele>
        <time>2025-05-18T08:32:33Z</time>
      </trkpt>
      <trkpt lat="43.74687697738409" lon="6.322693023830652">
        <ele>839.85000000000002</ele>
        <time>2025-05-18T08:32:34Z</time>
      </trkpt>
      <trkpt lat="43.746970016509295" lon="6.322686988860369">
        <ele>839.85000000000002</ele>
        <time>2025-05-18T08:32:35Z</time>
      </trkpt>
      <trkpt lat="43.747081998735666" lon="6.322680031880736">
        <ele>839.85000000000002</ele>
        <time>2025-05-18T08:32:36Z</time>
      </trkpt>
      <trkpt lat="43.747204039245844" lon="6.322696963325143">
        <ele>839.85000000000002</ele>
        <time>2025-05-18T08:32:37Z</time>
      </trkpt>
      <trkpt lat="43.747322978451848" lon="6.322747003287077">
        <ele>839.85000000000002</ele>
        <time>2025-05-18T08:32:38Z</time>
      </trkpt>
      <trkpt lat="43.747510984539986" lon="6.322825960814953">
        <ele>839.37</ele>
        <time>2025-05-18T08:32:40Z</time>
      </trkpt>
      <trkpt lat="43.747576028108597" lon="6.322825960814953">
        <ele>839.37</ele>
        <time>2025-05-18T08:32:41Z</time>
      </trkpt>
      <trkpt lat="43.747635036706924" lon="6.322753960266709">
        <ele>838.88999999999999</ele>
        <time>2025-05-18T08:32:42Z</time>
      </trkpt>
      <trkpt lat="43.747699996456504" lon="6.322673996910453">
        <ele>838.40999999999997</ele>
        <time>2025-05-18T08:32:43Z</time>
      </trkpt>
      <trkpt lat="43.747781971469522" lon="6.322593027725816">
        <ele>838.40999999999997</ele>
        <time>2025-05-18T08:32:44Z</time>
      </trkpt>
      <trkpt lat="43.747868975624442" lon="6.322541981935501">
        <ele>837.92999999999995</ele>
        <time>2025-05-18T08:32:45Z</time>
      </trkpt>
      <trkpt lat="43.747955979779363" lon="6.322492025792599">
        <ele>837.45000000000005</ele>
        <time>2025-05-18T08:32:46Z</time>
      </trkpt>
      <trkpt lat="43.748036026954651" lon="6.322432011365891">
        <ele>836.96000000000004</ele>
        <time>2025-05-18T08:32:47Z</time>
      </trkpt>
      <trkpt lat="43.748115990310907" lon="6.32234500721097">
        <ele>836.48000000000002</ele>
        <time>2025-05-18T08:32:48Z</time>
      </trkpt>
      <trkpt lat="43.748204000294209" lon="6.322250040248036">
        <ele>836</ele>
        <time>2025-05-18T08:32:49Z</time>
      </trkpt>
      <trkpt lat="43.748306008055806" lon="6.322155995294452">
        <ele>835.51999999999998</ele>
        <time>2025-05-18T08:32:50Z</time>
      </trkpt>
      <trkpt lat="43.748424025252461" lon="6.322078965604305">
        <ele>835.03999999999996</ele>
        <time>2025-05-18T08:32:51Z</time>
      </trkpt>
      <trkpt lat="43.748545981943607" lon="6.321999002248049">
        <ele>834.55999999999995</ele>
        <time>2025-05-18T08:32:52Z</time>
      </trkpt>
      <trkpt lat="43.748888969421387" lon="6.321774031966925">
        <ele>832.15999999999997</ele>
        <time>2025-05-18T08:32:55Z</time>
      </trkpt>
      <trkpt lat="43.7490229960531" lon="6.321756010875106">
        <ele>831.67999999999995</ele>
        <time>2025-05-18T08:32:56Z</time>
      </trkpt>
      <trkpt lat="43.749122992157936" lon="6.32174301892519">
        <ele>830.72000000000003</ele>
        <time>2025-05-18T08:32:57Z</time>
      </trkpt>
      <trkpt lat="43.749217037111521" lon="6.321729021146894">
        <ele>829.75999999999999</ele>
        <time>2025-05-18T08:32:58Z</time>
      </trkpt>
      <trkpt lat="43.749312004074454" lon="6.321692978963256">
        <ele>829.26999999999998</ele>
        <time>2025-05-18T08:32:59Z</time>
      </trkpt>
      <trkpt lat="43.749404959380627" lon="6.321658026427031">
        <ele>828.78999999999996</ele>
        <time>2025-05-18T08:33:00Z</time>
      </trkpt>
      <trkpt lat="43.749553989619017" lon="6.321602035313845">
        <ele>827.83000000000004</ele>
        <time>2025-05-18T08:33:02Z</time>
      </trkpt>
      <trkpt lat="43.749579973518848" lon="6.321532968431711">
        <ele>827.83000000000004</ele>
        <time>2025-05-18T08:33:03Z</time>
      </trkpt>
      <trkpt lat="43.749619033187628" lon="6.321430038660765">
        <ele>827.35000000000002</ele>
        <time>2025-05-18T08:33:04Z</time>
      </trkpt>
      <trkpt lat="43.749619033187628" lon="6.321383016183972">
        <ele>827.35000000000002</ele>
        <time>2025-05-18T08:33:05Z</time>
      </trkpt>
      <trkpt lat="43.749619033187628" lon="6.321278996765614">
        <ele>826.87</ele>
        <time>2025-05-18T08:33:06Z</time>
      </trkpt>
      <trkpt lat="43.749619033187628" lon="6.321171037852764">
        <ele>826.38999999999999</ele>
        <time>2025-05-18T08:33:07Z</time>
      </trkpt>
      <trkpt lat="43.749619033187628" lon="6.321129966527224">
        <ele>825.90999999999997</ele>
        <time>2025-05-18T08:33:08Z</time>
      </trkpt>
      <trkpt lat="43.749678041785955" lon="6.321051008999348">
        <ele>825.42999999999995</ele>
        <time>2025-05-18T08:33:09Z</time>
      </trkpt>
      <trkpt lat="43.749709976837039" lon="6.321009015664458">
        <ele>824.95000000000005</ele>
        <time>2025-05-18T08:33:10Z</time>
      </trkpt>
      <trkpt lat="43.749740989878774" lon="6.320967022329569">
        <ele>824.47000000000003</ele>
        <time>2025-05-18T08:33:11Z</time>
      </trkpt>
      <trkpt lat="43.749761022627354" lon="6.320960987359285">
        <ele>823.99000000000001</ele>
        <time>2025-05-18T08:33:12Z</time>
      </trkpt>
      <trkpt lat="43.74981801956892" lon="6.320973979309201">
        <ele>823.99000000000001</ele>
        <time>2025-05-18T08:33:13Z</time>
      </trkpt>
      <trkpt lat="43.749950034543872" lon="6.321003986522555">
        <ele>823.50999999999999</ele>
        <time>2025-05-18T08:33:15Z</time>
      </trkpt>
      <trkpt lat="43.750363010913134" lon="6.321199033409357">
        <ele>822.54999999999995</ele>
        <time>2025-05-18T08:33:22Z</time>
      </trkpt>
      <trkpt lat="43.750554034486413" lon="6.321377987042069">
        <ele>822.05999999999995</ele>
        <time>2025-05-18T08:33:30Z</time>
      </trkpt>
      <trkpt lat="43.750588987022638" lon="6.321398019790649">
        <ele>822.54999999999995</ele>
        <time>2025-05-18T08:33:36Z</time>
      </trkpt>
      <trkpt lat="43.750772969797254" lon="6.321436995640397">
        <ele>823.50999999999999</ele>
        <time>2025-05-18T08:33:40Z</time>
      </trkpt>
      <trkpt lat="43.750836001709104" lon="6.321420986205339">
        <ele>823.99000000000001</ele>
        <time>2025-05-18T08:33:41Z</time>
      </trkpt>
      <trkpt lat="43.750908002257347" lon="6.321402965113521">
        <ele>823.99000000000001</ele>
        <time>2025-05-18T08:33:42Z</time>
      </trkpt>
      <trkpt lat="43.750982014462352" lon="6.321370024234057">
        <ele>824.47000000000003</ele>
        <time>2025-05-18T08:33:43Z</time>
      </trkpt>
      <trkpt lat="43.751038005575538" lon="6.321282014250755">
        <ele>824.95000000000005</ele>
        <time>2025-05-18T08:33:44Z</time>
      </trkpt>
      <trkpt lat="43.751098020002246" lon="6.321187969297171">
        <ele>825.42999999999995</ele>
        <time>2025-05-18T08:33:45Z</time>
      </trkpt>
      <trkpt lat="43.751127021387219" lon="6.321085039526224">
        <ele>825.42999999999995</ele>
        <time>2025-05-18T08:33:46Z</time>
      </trkpt>
      <trkpt lat="43.751141019165516" lon="6.320944977924228">
        <ele>824.95000000000005</ele>
        <time>2025-05-18T08:33:47Z</time>
      </trkpt>
      <trkpt lat="43.751155016943812" lon="6.32079603150487">
        <ele>824.95000000000005</ele>
        <time>2025-05-18T08:33:48Z</time>
      </trkpt>
      <trkpt lat="43.751314021646976" lon="6.319113029167056">
        <ele>825.42999999999995</ele>
        <time>2025-05-18T08:33:57Z</time>
      </trkpt>
      <trkpt lat="43.751303041353822" lon="6.318925023078919">
        <ele>825.90999999999997</ele>
        <time>2025-05-18T08:33:58Z</time>
      </trkpt>
      <trkpt lat="43.751246966421604" lon="6.31710397079587">
        <ele>832.15999999999997</ele>
        <time>2025-05-18T08:34:06Z</time>
      </trkpt>
      <trkpt lat="43.751269010826945" lon="6.316500976681709">
        <ele>835.51999999999998</ele>
        <time>2025-05-18T08:34:09Z</time>
      </trkpt>
      <trkpt lat="43.751304969191551" lon="6.316351024433971">
        <ele>836.48000000000002</ele>
        <time>2025-05-18T08:34:10Z</time>
      </trkpt>
      <trkpt lat="43.75136598944664" lon="6.316213980317116">
        <ele>837.45000000000005</ele>
        <time>2025-05-18T08:34:11Z</time>
      </trkpt>
      <trkpt lat="43.751610992476344" lon="6.315846014767885">
        <ele>839.85000000000002</ele>
        <time>2025-05-18T08:34:14Z</time>
      </trkpt>
      <trkpt lat="43.751802016049623" lon="6.315532028675079">
        <ele>841.76999999999998</ele>
        <time>2025-05-18T08:34:16Z</time>
      </trkpt>
      <trkpt lat="43.75196797773242" lon="6.315158028155565">
        <ele>843.69000000000005</ele>
        <time>2025-05-18T08:34:18Z</time>
      </trkpt>
      <trkpt lat="43.752537025138736" lon="6.314108027145267">
        <ele>851.87</ele>
        <time>2025-05-18T08:34:24Z</time>
      </trkpt>
      <trkpt lat="43.752613971009851" lon="6.313883978873491">
        <ele>859.08000000000004</ele>
        <time>2025-05-18T08:34:29Z</time>
      </trkpt>
      <trkpt lat="43.752613971009851" lon="6.313883978873491">
        <ele>859.08000000000004</ele>
        <time>2025-05-18T08:34:57Z</time>
      </trkpt>
      <trkpt lat="43.752613971009851" lon="6.313883978873491">
        <ele>860.51999999999998</ele>
        <time>2025-05-18T08:35:46Z</time>
      </trkpt>
      <trkpt lat="43.752614976838231" lon="6.313866963610053">
        <ele>862.44000000000005</ele>
        <time>2025-05-18T08:35:54Z</time>
      </trkpt>
      <trkpt lat="43.752623023465276" lon="6.313791023567319">
        <ele>866.28999999999996</ele>
        <time>2025-05-18T08:35:55Z</time>
      </trkpt>
      <trkpt lat="43.75243904069066" lon="6.313461028039455">
        <ele>870.61000000000001</ele>
        <time>2025-05-18T08:36:00Z</time>
      </trkpt>
      <trkpt lat="43.752413978800178" lon="6.313346028327942">
        <ele>871.57000000000005</ele>
        <time>2025-05-18T08:36:01Z</time>
      </trkpt>
      <trkpt lat="43.752424037083983" lon="6.313248965889216">
        <ele>872.04999999999995</ele>
        <time>2025-05-18T08:36:02Z</time>
      </trkpt>
      <trkpt lat="43.752511041238904" lon="6.31314997561276">
        <ele>872.52999999999997</ele>
        <time>2025-05-18T08:36:03Z</time>
      </trkpt>
      <trkpt lat="43.752607014030218" lon="6.313102031126618">
        <ele>873.00999999999999</ele>
        <time>2025-05-18T08:36:04Z</time>
      </trkpt>
      <trkpt lat="43.75272000208497" lon="6.313046040013433">
        <ele>873.5</ele>
        <time>2025-05-18T08:36:05Z</time>
      </trkpt>
      <trkpt lat="43.753325007855892" lon="6.312787961214781">
        <ele>879.25999999999999</ele>
        <time>2025-05-18T08:36:10Z</time>
      </trkpt>
      <trkpt lat="43.753426009789109" lon="6.312753008678556">
        <ele>880.22000000000003</ele>
        <time>2025-05-18T08:36:11Z</time>
      </trkpt>
      <trkpt lat="43.753523994237185" lon="6.312717972323299">
        <ele>881.19000000000005</ele>
        <time>2025-05-18T08:36:12Z</time>
      </trkpt>
      <trkpt lat="43.753617033362389" lon="6.312637003138661">
        <ele>881.66999999999996</ele>
        <time>2025-05-18T08:36:13Z</time>
      </trkpt>
      <trkpt lat="43.753706971183419" lon="6.312538012862206">
        <ele>881.66999999999996</ele>
        <time>2025-05-18T08:36:14Z</time>
      </trkpt>
      <trkpt lat="43.753763968124986" lon="6.312378002330661">
        <ele>882.14999999999998</ele>
        <time>2025-05-18T08:36:15Z</time>
      </trkpt>
      <trkpt lat="43.753819037228823" lon="6.312200976535678">
        <ele>883.11000000000001</ele>
        <time>2025-05-18T08:36:16Z</time>
      </trkpt>
      <trkpt lat="43.753864970058203" lon="6.312006013467908">
        <ele>883.59000000000003</ele>
        <time>2025-05-18T08:36:17Z</time>
      </trkpt>
      <trkpt lat="43.753963960334659" lon="6.311588007956743">
        <ele>886.47000000000003</ele>
        <time>2025-05-18T08:36:19Z</time>
      </trkpt>
      <trkpt lat="43.754000002518296" lon="6.311375023797154">
        <ele>887.90999999999997</ele>
        <time>2025-05-18T08:36:20Z</time>
      </trkpt>
      <trkpt lat="43.754012994468212" lon="6.311142006888986">
        <ele>888.88</ele>
        <time>2025-05-18T08:36:21Z</time>
      </trkpt>
      <trkpt lat="43.753949040547013" lon="6.309633012861013">
        <ele>896.57000000000005</ele>
        <time>2025-05-18T08:36:27Z</time>
      </trkpt>
      <trkpt lat="43.753892965614796" lon="6.309397984296084">
        <ele>898.00999999999999</ele>
        <time>2025-05-18T08:36:28Z</time>
      </trkpt>
      <trkpt lat="43.75379397533834" lon="6.308991964906454">
        <ele>900.88999999999999</ele>
        <time>2025-05-18T08:36:30Z</time>
      </trkpt>
      <trkpt lat="43.753781989216805" lon="6.308795996010304">
        <ele>902.33000000000004</ele>
        <time>2025-05-18T08:36:31Z</time>
      </trkpt>
      <trkpt lat="43.753797998651862" lon="6.308600027114153">
        <ele>903.77999999999997</ele>
        <time>2025-05-18T08:36:32Z</time>
      </trkpt>
      <trkpt lat="43.753862036392093" lon="6.308429958298802">
        <ele>905.22000000000003</ele>
        <time>2025-05-18T08:36:33Z</time>
      </trkpt>
      <trkpt lat="43.753932025283575" lon="6.308246981352568">
        <ele>906.65999999999997</ele>
        <time>2025-05-18T08:36:34Z</time>
      </trkpt>
      <trkpt lat="43.754077032208443" lon="6.307867029681802">
        <ele>909.53999999999996</ele>
        <time>2025-05-18T08:36:36Z</time>
      </trkpt>
      <trkpt lat="43.754130005836487" lon="6.307672988623381">
        <ele>910.50999999999999</ele>
        <time>2025-05-18T08:36:37Z</time>
      </trkpt>
      <trkpt lat="43.754247017204762" lon="6.305925026535988">
        <ele>918.20000000000005</ele>
        <time>2025-05-18T08:36:44Z</time>
      </trkpt>
      <trkpt lat="43.754294039681554" lon="6.305702989920974">
        <ele>919.15999999999997</ele>
        <time>2025-05-18T08:36:45Z</time>
      </trkpt>
      <trkpt lat="43.754357993602753" lon="6.305496040731669">
        <ele>920.12</ele>
        <time>2025-05-18T08:36:46Z</time>
      </trkpt>
      <trkpt lat="43.754441980272532" lon="6.305290013551712">
        <ele>921.55999999999995</ele>
        <time>2025-05-18T08:36:47Z</time>
      </trkpt>
      <trkpt lat="43.754528984427452" lon="6.305079041048884">
        <ele>922.51999999999998</ele>
        <time>2025-05-18T08:36:48Z</time>
      </trkpt>
      <trkpt lat="43.754613976925611" lon="6.304872008040547">
        <ele>923.96000000000004</ele>
        <time>2025-05-18T08:36:49Z</time>
      </trkpt>
      <trkpt lat="43.754679020494223" lon="6.304651983082295">
        <ele>925.40999999999997</ele>
        <time>2025-05-18T08:36:50Z</time>
      </trkpt>
      <trkpt lat="43.75471799634397" lon="6.304414020851255">
        <ele>926.85000000000002</ele>
        <time>2025-05-18T08:36:51Z</time>
      </trkpt>
      <trkpt lat="43.754755966365337" lon="6.304175974801183">
        <ele>927.80999999999995</ele>
        <time>2025-05-18T08:36:52Z</time>
      </trkpt>
      <trkpt lat="43.754794020205736" lon="6.303941030055285">
        <ele>928.76999999999998</ele>
        <time>2025-05-18T08:36:53Z</time>
      </trkpt>
      <trkpt lat="43.754884963855147" lon="6.303540039807558">
        <ele>931.16999999999996</ele>
        <time>2025-05-18T08:36:55Z</time>
      </trkpt>
      <trkpt lat="43.754940032958984" lon="6.303378017619252">
        <ele>932.62</ele>
        <time>2025-05-18T08:36:56Z</time>
      </trkpt>
      <trkpt lat="43.755033994093537" lon="6.303252037614584">
        <ele>934.05999999999995</ele>
        <time>2025-05-18T08:36:57Z</time>
      </trkpt>
      <trkpt lat="43.755454011261463" lon="6.302692964673042">
        <ele>939.35000000000002</ele>
        <time>2025-05-18T08:37:01Z</time>
      </trkpt>
      <trkpt lat="43.75553397461772" lon="6.302519040182233">
        <ele>940.30999999999995</ele>
        <time>2025-05-18T08:37:02Z</time>
      </trkpt>
      <trkpt lat="43.755594994872808" lon="6.302320975810289">
        <ele>941.75</ele>
        <time>2025-05-18T08:37:03Z</time>
      </trkpt>
      <trkpt lat="43.755861958488822" lon="6.301587978377938">
        <ele>946.07000000000005</ele>
        <time>2025-05-18T08:37:07Z</time>
      </trkpt>
      <trkpt lat="43.755932031199336" lon="6.301469039171934">
        <ele>946.55999999999995</ele>
        <time>2025-05-18T08:37:08Z</time>
      </trkpt>
      <trkpt lat="43.755989028140903" lon="6.301371976733208">
        <ele>947.03999999999996</ele>
        <time>2025-05-18T08:37:09Z</time>
      </trkpt>
      <trkpt lat="43.756017023697495" lon="6.301278015598655">
        <ele>947.03999999999996</ele>
        <time>2025-05-18T08:37:10Z</time>
      </trkpt>
      <trkpt lat="43.756033033132553" lon="6.30120400339365">
        <ele>947.51999999999998</ele>
        <time>2025-05-18T08:37:11Z</time>
      </trkpt>
      <trkpt lat="43.756022974848747" lon="6.301130997017026">
        <ele>947.51999999999998</ele>
        <time>2025-05-18T08:37:12Z</time>
      </trkpt>
      <trkpt lat="43.756000008434057" lon="6.301056984812021">
        <ele>948</ele>
        <time>2025-05-18T08:37:13Z</time>
      </trkpt>
      <trkpt lat="43.755948040634394" lon="6.301020020619035">
        <ele>948.48000000000002</ele>
        <time>2025-05-18T08:37:14Z</time>
      </trkpt>
      <trkpt lat="43.755888026207685" lon="6.300978027284145">
        <ele>948.48000000000002</ele>
        <time>2025-05-18T08:37:15Z</time>
      </trkpt>
      <trkpt lat="43.755816025659442" lon="6.300996970385313">
        <ele>948.96000000000004</ele>
        <time>2025-05-18T08:37:16Z</time>
      </trkpt>
      <trkpt lat="43.755756011232734" lon="6.301044998690486">
        <ele>949.44000000000005</ele>
        <time>2025-05-18T08:37:17Z</time>
      </trkpt>
      <trkpt lat="43.75572600401938" lon="6.301165027543902">
        <ele>949.91999999999996</ele>
        <time>2025-05-18T08:37:18Z</time>
      </trkpt>
      <trkpt lat="43.755692979320884" lon="6.301298970356584">
        <ele>950.39999999999998</ele>
        <time>2025-05-18T08:37:19Z</time>
      </trkpt>
      <trkpt lat="43.755656015127897" lon="6.301446994766593">
        <ele>950.88</ele>
        <time>2025-05-18T08:37:20Z</time>
      </trkpt>
      <trkpt lat="43.75557797960937" lon="6.301584960892797">
        <ele>950.88</ele>
        <time>2025-05-18T08:37:21Z</time>
      </trkpt>
      <trkpt lat="43.755492987111211" lon="6.30171999335289">
        <ele>951.36000000000001</ele>
        <time>2025-05-18T08:37:22Z</time>
      </trkpt>
      <trkpt lat="43.755403971299529" lon="6.301859971135855">
        <ele>951.84000000000003</ele>
        <time>2025-05-18T08:37:23Z</time>
      </trkpt>
      <trkpt lat="43.755298024043441" lon="6.301976982504129">
        <ele>952.32000000000005</ele>
        <time>2025-05-18T08:37:24Z</time>
      </trkpt>
      <trkpt lat="43.75516802072525" lon="6.302056023851037">
        <ele>953.27999999999997</ele>
        <time>2025-05-18T08:37:25Z</time>
      </trkpt>
      <trkpt lat="43.755027037113905" lon="6.302141016349196">
        <ele>953.76999999999998</ele>
        <time>2025-05-18T08:37:26Z</time>
      </trkpt>
      <trkpt lat="43.754882030189037" lon="6.302229026332498">
        <ele>954.25</ele>
        <time>2025-05-18T08:37:27Z</time>
      </trkpt>
      <trkpt lat="43.754409039393067" lon="6.302563967183232">
        <ele>956.16999999999996</ele>
        <time>2025-05-18T08:37:31Z</time>
      </trkpt>
      <trkpt lat="43.754328992217779" lon="6.302683996036649">
        <ele>956.16999999999996</ele>
        <time>2025-05-18T08:37:32Z</time>
      </trkpt>
      <trkpt lat="43.754252968356013" lon="6.302813999354839">
        <ele>956.64999999999998</ele>
        <time>2025-05-18T08:37:33Z</time>
      </trkpt>
      <trkpt lat="43.75409496948123" lon="6.303010974079371">
        <ele>957.61000000000001</ele>
        <time>2025-05-18T08:37:35Z</time>
      </trkpt>
      <trkpt lat="43.754018023610115" lon="6.30303000099957">
        <ele>958.09000000000003</ele>
        <time>2025-05-18T08:37:36Z</time>
      </trkpt>
      <trkpt lat="43.75396303832531" lon="6.303031006827951">
        <ele>958.57000000000005</ele>
        <time>2025-05-18T08:37:37Z</time>
      </trkpt>
      <trkpt lat="43.753906963393092" lon="6.3029870018363">
        <ele>959.04999999999995</ele>
        <time>2025-05-18T08:37:38Z</time>
      </trkpt>
      <trkpt lat="43.753877962008119" lon="6.302893962711096">
        <ele>959.52999999999997</ele>
        <time>2025-05-18T08:37:39Z</time>
      </trkpt>
      <trkpt lat="43.753895983099937" lon="6.302787009626627">
        <ele>960.00999999999999</ele>
        <time>2025-05-18T08:37:40Z</time>
      </trkpt>
      <trkpt lat="43.753925990313292" lon="6.302678966894746">
        <ele>960.49000000000001</ele>
        <time>2025-05-18T08:37:41Z</time>
      </trkpt>
      <trkpt lat="43.75400603748858" lon="6.302575031295419">
        <ele>960.49000000000001</ele>
        <time>2025-05-18T08:37:42Z</time>
      </trkpt>
      <trkpt lat="43.754096981137991" lon="6.302460031583905">
        <ele>960.98000000000002</ele>
        <time>2025-05-18T08:37:43Z</time>
      </trkpt>
      <trkpt lat="43.754196977242827" lon="6.302332039922476">
        <ele>960.98000000000002</ele>
        <time>2025-05-18T08:37:44Z</time>
      </trkpt>
      <trkpt lat="43.754302002489567" lon="6.302196001634002">
        <ele>961.46000000000004</ele>
        <time>2025-05-18T08:37:45Z</time>
      </trkpt>
      <trkpt lat="43.754597967490554" lon="6.301670959219337">
        <ele>963.86000000000001</ele>
        <time>2025-05-18T08:37:48Z</time>
      </trkpt>
      <trkpt lat="43.754684971645474" lon="6.301475996151567">
        <ele>965.29999999999995</ele>
        <time>2025-05-18T08:37:49Z</time>
      </trkpt>
      <trkpt lat="43.754769964143634" lon="6.301284972578287">
        <ele>966.25999999999999</ele>
        <time>2025-05-18T08:37:50Z</time>
      </trkpt>
      <trkpt lat="43.754852022975683" lon="6.301100989803672">
        <ele>967.22000000000003</ele>
        <time>2025-05-18T08:37:51Z</time>
      </trkpt>
      <trkpt lat="43.754945984110236" lon="6.300953971222043">
        <ele>968.66999999999996</ele>
        <time>2025-05-18T08:37:52Z</time>
      </trkpt>
      <trkpt lat="43.755056960508227" lon="6.300808964297175">
        <ele>970.11000000000001</ele>
        <time>2025-05-18T08:37:53Z</time>
      </trkpt>
      <trkpt lat="43.755170032382011" lon="6.300661023706198">
        <ele>971.54999999999995</ele>
        <time>2025-05-18T08:37:54Z</time>
      </trkpt>
      <trkpt lat="43.75594200566411" lon="6.299240961670876">
        <ele>983.09000000000003</ele>
        <time>2025-05-18T08:38:02Z</time>
      </trkpt>
      <trkpt lat="43.756062034517527" lon="6.298832008615136">
        <ele>985.97000000000003</ele>
        <time>2025-05-18T08:38:04Z</time>
      </trkpt>
      <trkpt lat="43.756077960133553" lon="6.298628998920322">
        <ele>987.40999999999997</ele>
        <time>2025-05-18T08:38:05Z</time>
      </trkpt>
      <trkpt lat="43.756077960133553" lon="6.298419032245874">
        <ele>988.85000000000002</ele>
        <time>2025-05-18T08:38:06Z</time>
      </trkpt>
      <trkpt lat="43.756077960133553" lon="6.29821602255106">
        <ele>989.80999999999995</ele>
        <time>2025-05-18T08:38:07Z</time>
      </trkpt>
      <trkpt lat="43.756038984283805" lon="6.298043020069599">
        <ele>991.25999999999999</ele>
        <time>2025-05-18T08:38:08Z</time>
      </trkpt>
      <trkpt lat="43.755986010655761" lon="6.297882003709674">
        <ele>992.22000000000003</ele>
        <time>2025-05-18T08:38:09Z</time>
      </trkpt>
      <trkpt lat="43.755901018157601" lon="6.297720987349749">
        <ele>993.65999999999997</ele>
        <time>2025-05-18T08:38:10Z</time>
      </trkpt>
      <trkpt lat="43.755818037316203" lon="6.297562988474965">
        <ele>994.62</ele>
        <time>2025-05-18T08:38:11Z</time>
      </trkpt>
      <trkpt lat="43.755737990140915" lon="6.297264005988836">
        <ele>997.01999999999998</ele>
        <time>2025-05-18T08:38:13Z</time>
      </trkpt>
      <trkpt lat="43.755763974040747" lon="6.297159986570478">
        <ele>997.01999999999998</ele>
        <time>2025-05-18T08:38:14Z</time>
      </trkpt>
      <trkpt lat="43.755818959325552" lon="6.297069964930415">
        <ele>997.50999999999999</ele>
        <time>2025-05-18T08:38:15Z</time>
      </trkpt>
      <trkpt lat="43.755902023985982" lon="6.29697198048234">
        <ele>997.50999999999999</ele>
        <time>2025-05-18T08:38:16Z</time>
      </trkpt>
      <trkpt lat="43.756001014262438" lon="6.296854969114065">
        <ele>997.99000000000001</ele>
        <time>2025-05-18T08:38:17Z</time>
      </trkpt>
      <trkpt lat="43.756109979003668" lon="6.296727983281016">
        <ele>998.47000000000003</ele>
        <time>2025-05-18T08:38:18Z</time>
      </trkpt>
      <trkpt lat="43.756863009184599" lon="6.295406995341182">
        <ele>1004.72</ele>
        <time>2025-05-18T08:38:25Z</time>
      </trkpt>
      <trkpt lat="43.756957976147532" lon="6.29525201395154">
        <ele>1005.6799999999999</ele>
        <time>2025-05-18T08:38:26Z</time>
      </trkpt>
      <trkpt lat="43.757060989737511" lon="6.295149000361562">
        <ele>1006.64</ele>
        <time>2025-05-18T08:38:27Z</time>
      </trkpt>
      <trkpt lat="43.757172971963882" lon="6.29505998454988">
        <ele>1007.6</ele>
        <time>2025-05-18T08:38:28Z</time>
      </trkpt>
      <trkpt lat="43.75729501247406" lon="6.295065013691783">
        <ele>1008.5599999999999</ele>
        <time>2025-05-18T08:38:29Z</time>
      </trkpt>
      <trkpt lat="43.757417974993587" lon="6.295070964843035">
        <ele>1009.52</ele>
        <time>2025-05-18T08:38:30Z</time>
      </trkpt>
      <trkpt lat="43.757542027160525" lon="6.295075993984938">
        <ele>1010.48</ele>
        <time>2025-05-18T08:38:31Z</time>
      </trkpt>
      <trkpt lat="43.757658032700419" lon="6.295054033398628">
        <ele>1011.4400000000001</ele>
        <time>2025-05-18T08:38:32Z</time>
      </trkpt>
      <trkpt lat="43.757782001048326" lon="6.294960994273424">
        <ele>1012.41</ele>
        <time>2025-05-18T08:38:33Z</time>
      </trkpt>
      <trkpt lat="43.758442997932434" lon="6.294302009046078">
        <ele>1018.17</ele>
        <time>2025-05-18T08:38:38Z</time>
      </trkpt>
      <trkpt lat="43.758573001250625" lon="6.294144010171294">
        <ele>1019.62</ele>
        <time>2025-05-18T08:38:39Z</time>
      </trkpt>
      <trkpt lat="43.758824039250612" lon="6.293623996898532">
        <ele>1022.5</ele>
        <time>2025-05-18T08:38:42Z</time>
      </trkpt>
      <trkpt lat="43.758869972079992" lon="6.293456023558974">
        <ele>1023.9400000000001</ele>
        <time>2025-05-18T08:38:43Z</time>
      </trkpt>
      <trkpt lat="43.758898973464966" lon="6.293313028290868">
        <ele>1024.9000000000001</ele>
        <time>2025-05-18T08:38:44Z</time>
      </trkpt>
      <trkpt lat="43.758881958201528" lon="6.293144971132278">
        <ele>1025.8599999999999</ele>
        <time>2025-05-18T08:38:45Z</time>
      </trkpt>
      <trkpt lat="43.758845999836922" lon="6.29299895837903">
        <ele>1027.3099999999999</ele>
        <time>2025-05-18T08:38:46Z</time>
      </trkpt>
      <trkpt lat="43.758779028430581" lon="6.29291296005249">
        <ele>1028.75</ele>
        <time>2025-05-18T08:38:47Z</time>
      </trkpt>
      <trkpt lat="43.758695963770151" lon="6.292806006968021">
        <ele>1030.6700000000001</ele>
        <time>2025-05-18T08:38:48Z</time>
      </trkpt>
      <trkpt lat="43.758606025949121" lon="6.292731994763017">
        <ele>1032.1099999999999</ele>
        <time>2025-05-18T08:38:49Z</time>
      </trkpt>
      <trkpt lat="43.758286004886031" lon="6.292466958984733">
        <ele>1036.4400000000001</ele>
        <time>2025-05-18T08:38:52Z</time>
      </trkpt>
      <trkpt lat="43.758177040144801" lon="6.292377021163702">
        <ele>1037.8800000000001</ele>
        <time>2025-05-18T08:38:53Z</time>
      </trkpt>
      <trkpt lat="43.758070003241301" lon="6.292283982038498">
        <ele>1038.8399999999999</ele>
        <time>2025-05-18T08:38:54Z</time>
      </trkpt>
      <trkpt lat="43.758000014349818" lon="6.292132018133998">
        <ele>1040.28</ele>
        <time>2025-05-18T08:38:55Z</time>
      </trkpt>
      <trkpt lat="43.757929019629955" lon="6.291978964582086">
        <ele>1041.25</ele>
        <time>2025-05-18T08:38:56Z</time>
      </trkpt>
      <trkpt lat="43.757863976061344" lon="6.29183697514236">
        <ele>1042.6900000000001</ele>
        <time>2025-05-18T08:38:57Z</time>
      </trkpt>
      <trkpt lat="43.757804967463017" lon="6.291689034551382">
        <ele>1043.6500000000001</ele>
        <time>2025-05-18T08:38:58Z</time>
      </trkpt>
      <trkpt lat="43.757780995219946" lon="6.291545033454895">
        <ele>1044.6099999999999</ele>
        <time>2025-05-18T08:38:59Z</time>
      </trkpt>
      <trkpt lat="43.757820976898074" lon="6.291465992107987">
        <ele>1045.5699999999999</ele>
        <time>2025-05-18T08:39:00Z</time>
      </trkpt>
      <trkpt lat="43.757887026295066" lon="6.291383011266589">
        <ele>1046.05</ele>
        <time>2025-05-18T08:39:01Z</time>
      </trkpt>
      <trkpt lat="43.758074026554823" lon="6.291196011006832">
        <ele>1047.01</ele>
        <time>2025-05-18T08:39:03Z</time>
      </trkpt>
      <trkpt lat="43.758183997124434" lon="6.291086040437222">
        <ele>1047.49</ele>
        <time>2025-05-18T08:39:04Z</time>
      </trkpt>
      <trkpt lat="43.758845999836922" lon="6.290123965591192">
        <ele>1051.8199999999999</ele>
        <time>2025-05-18T08:39:10Z</time>
      </trkpt>
      <trkpt lat="43.758895033970475" lon="6.289987005293369">
        <ele>1051.8199999999999</ele>
        <time>2025-05-18T08:39:11Z</time>
      </trkpt>
      <trkpt lat="43.758925041183829" lon="6.289811991155148">
        <ele>1052.3</ele>
        <time>2025-05-18T08:39:12Z</time>
      </trkpt>
      <trkpt lat="43.758910037577152" lon="6.289628008380532">
        <ele>1052.78</ele>
        <time>2025-05-18T08:39:13Z</time>
      </trkpt>
      <trkpt lat="43.758895033970475" lon="6.289446037262678">
        <ele>1053.26</ele>
        <time>2025-05-18T08:39:14Z</time>
      </trkpt>
      <trkpt lat="43.758896961808205" lon="6.289277980104089">
        <ele>1053.74</ele>
        <time>2025-05-18T08:39:15Z</time>
      </trkpt>
      <trkpt lat="43.758931998163462" lon="6.289111012592912">
        <ele>1054.22</ele>
        <time>2025-05-18T08:39:16Z</time>
      </trkpt>
      <trkpt lat="43.759022019803524" lon="6.289000958204269">
        <ele>1055.1800000000001</ele>
        <time>2025-05-18T08:39:17Z</time>
      </trkpt>
      <trkpt lat="43.759124027565122" lon="6.288877995684743">
        <ele>1055.6700000000001</ele>
        <time>2025-05-18T08:39:18Z</time>
      </trkpt>
      <trkpt lat="43.759231986477971" lon="6.288746986538172">
        <ele>1056.1500000000001</ele>
        <time>2025-05-18T08:39:19Z</time>
      </trkpt>
      <trkpt lat="43.759332988411188" lon="6.288609020411968">
        <ele>1056.6300000000001</ele>
        <time>2025-05-18T08:39:20Z</time>
      </trkpt>
      <trkpt lat="43.759399959817529" lon="6.288462001830339">
        <ele>1057.1099999999999</ele>
        <time>2025-05-18T08:39:21Z</time>
      </trkpt>
      <trkpt lat="43.759430972859263" lon="6.288315989077091">
        <ele>1057.5899999999999</ele>
        <time>2025-05-18T08:39:22Z</time>
      </trkpt>
      <trkpt lat="43.759440025314689" lon="6.288166036829352">
        <ele>1058.0699999999999</ele>
        <time>2025-05-18T08:39:23Z</time>
      </trkpt>
      <trkpt lat="43.759426027536392" lon="6.28798901103437">
        <ele>1058.55</ele>
        <time>2025-05-18T08:39:24Z</time>
      </trkpt>
      <trkpt lat="43.759372970089316" lon="6.287804022431374">
        <ele>1059.51</ele>
        <time>2025-05-18T08:39:25Z</time>
      </trkpt>
      <trkpt lat="43.759213965386152" lon="6.287240004166961">
        <ele>1061.4300000000001</ele>
        <time>2025-05-18T08:39:28Z</time>
      </trkpt>
      <trkpt lat="43.759222012013197" lon="6.287100026383996">
        <ele>1062.3900000000001</ele>
        <time>2025-05-18T08:39:29Z</time>
      </trkpt>
      <trkpt lat="43.759231986477971" lon="6.286990977823734">
        <ele>1062.8699999999999</ele>
        <time>2025-05-18T08:39:30Z</time>
      </trkpt>
      <trkpt lat="43.759314967319369" lon="6.286913026124239">
        <ele>1063.3599999999999</ele>
        <time>2025-05-18T08:39:31Z</time>
      </trkpt>
      <trkpt lat="43.759414041414857" lon="6.286817975342274">
        <ele>1063.8399999999999</ele>
        <time>2025-05-18T08:39:32Z</time>
      </trkpt>
      <trkpt lat="43.759641023352742" lon="6.286596022546291">
        <ele>1065.28</ele>
        <time>2025-05-18T08:39:34Z</time>
      </trkpt>
      <trkpt lat="43.759756023064256" lon="6.286442968994379">
        <ele>1066.24</ele>
        <time>2025-05-18T08:39:35Z</time>
      </trkpt>
      <trkpt lat="43.759877979755402" lon="6.286278013139963">
        <ele>1066.72</ele>
        <time>2025-05-18T08:39:36Z</time>
      </trkpt>
      <trkpt lat="43.759974036365747" lon="6.286097969859839">
        <ele>1067.6800000000001</ele>
        <time>2025-05-18T08:39:37Z</time>
      </trkpt>
      <trkpt lat="43.760061040520668" lon="6.285918010398746">
        <ele>1068.6400000000001</ele>
        <time>2025-05-18T08:39:38Z</time>
      </trkpt>
      <trkpt lat="43.76011099666357" lon="6.285750959068537">
        <ele>1069.5999999999999</ele>
        <time>2025-05-18T08:39:39Z</time>
      </trkpt>
      <trkpt lat="43.760156007483602" lon="6.285603018477559">
        <ele>1070.5699999999999</ele>
        <time>2025-05-18T08:39:40Z</time>
      </trkpt>
      <trkpt lat="43.760198000818491" lon="6.285466980189085">
        <ele>1071.53</ele>
        <time>2025-05-18T08:39:41Z</time>
      </trkpt>
      <trkpt lat="43.760294979438186" lon="6.285402020439506">
        <ele>1072.01</ele>
        <time>2025-05-18T08:39:42Z</time>
      </trkpt>
      <trkpt lat="43.760407967492938" lon="6.28532700240612">
        <ele>1072.97</ele>
        <time>2025-05-18T08:39:43Z</time>
      </trkpt>
      <trkpt lat="43.760534031316638" lon="6.285243015736342">
        <ele>1073.9300000000001</ele>
        <time>2025-05-18T08:39:44Z</time>
      </trkpt>
      <trkpt lat="43.760665040463209" lon="6.28515500575304">
        <ele>1074.4100000000001</ele>
        <time>2025-05-18T08:39:45Z</time>
      </trkpt>
      <trkpt lat="43.760800994932652" lon="6.285064984112978">
        <ele>1074.8900000000001</ele>
        <time>2025-05-18T08:39:46Z</time>
      </trkpt>
      <trkpt lat="43.76092404127121" lon="6.284926012158394">
        <ele>1075.8499999999999</ele>
        <time>2025-05-18T08:39:47Z</time>
      </trkpt>
      <trkpt lat="43.761025965213776" lon="6.284787962213159">
        <ele>1076.3299999999999</ele>
        <time>2025-05-18T08:39:48Z</time>
      </trkpt>
      <trkpt lat="43.76111900433898" lon="6.28466097638011">
        <ele>1077.29</ele>
        <time>2025-05-18T08:39:49Z</time>
      </trkpt>
      <trkpt lat="43.761178012937307" lon="6.284520998597145">
        <ele>1078.26</ele>
        <time>2025-05-18T08:39:50Z</time>
      </trkpt>
      <trkpt lat="43.76122796908021" lon="6.284370962530375">
        <ele>1079.22</ele>
        <time>2025-05-18T08:39:51Z</time>
      </trkpt>
      <trkpt lat="43.761215982958674" lon="6.284216986969113">
        <ele>1079.7</ele>
        <time>2025-05-18T08:39:52Z</time>
      </trkpt>
      <trkpt lat="43.761203996837139" lon="6.284044990316033">
        <ele>1080.6600000000001</ele>
        <time>2025-05-18T08:39:53Z</time>
      </trkpt>
      <trkpt lat="43.761166026815772" lon="6.283529000356793">
        <ele>1082.5799999999999</ele>
        <time>2025-05-18T08:39:56Z</time>
      </trkpt>
      <trkpt lat="43.761183964088559" lon="6.283408971503377">
        <ele>1083.0599999999999</ele>
        <time>2025-05-18T08:39:57Z</time>
      </trkpt>
      <trkpt lat="43.761213971301913" lon="6.283290032297373">
        <ele>1083.54</ele>
        <time>2025-05-18T08:39:58Z</time>
      </trkpt>
      <trkpt lat="43.76127096824348" lon="6.283222977072001">
        <ele>1083.54</ele>
        <time>2025-05-18T08:39:59Z</time>
      </trkpt>
      <trkpt lat="43.761366019025445" lon="6.283196993172169">
        <ele>1084.02</ele>
        <time>2025-05-18T08:40:00Z</time>
      </trkpt>
      <trkpt lat="43.761470038443804" lon="6.283166985958815">
        <ele>1084.5</ele>
        <time>2025-05-18T08:40:01Z</time>
      </trkpt>
      <trkpt lat="43.761585960164666" lon="6.283134967088699">
        <ele>1084.99</ele>
        <time>2025-05-18T08:40:02Z</time>
      </trkpt>
      <trkpt lat="43.761712023988366" lon="6.283099008724093">
        <ele>1085.47</ele>
        <time>2025-05-18T08:40:03Z</time>
      </trkpt>
      <trkpt lat="43.761841021478176" lon="6.283062966540456">
        <ele>1086.4300000000001</ele>
        <time>2025-05-18T08:40:04Z</time>
      </trkpt>
      <trkpt lat="43.761955015361309" lon="6.282997000962496">
        <ele>1087.8699999999999</ele>
        <time>2025-05-18T08:40:05Z</time>
      </trkpt>
      <trkpt lat="43.762060962617397" lon="6.282876972109079">
        <ele>1089.3099999999999</ele>
        <time>2025-05-18T08:40:06Z</time>
      </trkpt>
      <trkpt lat="43.762174034491181" lon="6.282749986276031">
        <ele>1090.27</ele>
        <time>2025-05-18T08:40:07Z</time>
      </trkpt>
      <trkpt lat="43.762291967868805" lon="6.282624006271362">
        <ele>1091.71</ele>
        <time>2025-05-18T08:40:08Z</time>
      </trkpt>
      <trkpt lat="43.762419037520885" lon="6.282503977417946">
        <ele>1092.6800000000001</ele>
        <time>2025-05-18T08:40:09Z</time>
      </trkpt>
      <trkpt lat="43.76300903968513" lon="6.281834011897445">
        <ele>1099.4000000000001</ele>
        <time>2025-05-18T08:40:14Z</time>
      </trkpt>
      <trkpt lat="43.763115992769599" lon="6.281797969713807">
        <ele>1100.8499999999999</ele>
        <time>2025-05-18T08:40:15Z</time>
      </trkpt>
      <trkpt lat="43.763238033279777" lon="6.281797969713807">
        <ele>1102.29</ele>
        <time>2025-05-18T08:40:16Z</time>
      </trkpt>
      <trkpt lat="43.763365019112825" lon="6.281797969713807">
        <ele>1103.73</ele>
        <time>2025-05-18T08:40:17Z</time>
      </trkpt>
      <trkpt lat="43.763497034087777" lon="6.281740972772241">
        <ele>1105.1700000000001</ele>
        <time>2025-05-18T08:40:18Z</time>
      </trkpt>
      <trkpt lat="43.763617984950542" lon="6.281652040779591">
        <ele>1107.0999999999999</ele>
        <time>2025-05-18T08:40:19Z</time>
      </trkpt>
      <trkpt lat="43.763722004368901" lon="6.2815220374614">
        <ele>1108.54</ele>
        <time>2025-05-18T08:40:20Z</time>
      </trkpt>
      <trkpt lat="43.763829963281751" lon="6.281384993344545">
        <ele>1109.98</ele>
        <time>2025-05-18T08:40:21Z</time>
      </trkpt>
      <trkpt lat="43.763943035155535" lon="6.2812440097332">
        <ele>1111.9000000000001</ele>
        <time>2025-05-18T08:40:22Z</time>
      </trkpt>
      <trkpt lat="43.764988007023931" lon="6.279638959094882">
        <ele>1128.24</ele>
        <time>2025-05-18T08:40:31Z</time>
      </trkpt>
      <trkpt lat="43.765433002263308" lon="6.278664981946349">
        <ele>1139.3</ele>
        <time>2025-05-18T08:40:37Z</time>
      </trkpt>
      <trkpt lat="43.765452029183507" lon="6.278486028313637">
        <ele>1141.22</ele>
        <time>2025-05-18T08:40:38Z</time>
      </trkpt>
      <trkpt lat="43.765471978113055" lon="6.278295004740357">
        <ele>1142.6600000000001</ele>
        <time>2025-05-18T08:40:39Z</time>
      </trkpt>
      <trkpt lat="43.765489999204874" lon="6.278113033622503">
        <ele>1143.6300000000001</ele>
        <time>2025-05-18T08:40:40Z</time>
      </trkpt>
      <trkpt lat="43.765529980883002" lon="6.277946988120675">
        <ele>1145.0699999999999</ele>
        <time>2025-05-18T08:40:41Z</time>
      </trkpt>
      <trkpt lat="43.765635006129742" lon="6.2778490036726">
        <ele>1146.03</ele>
        <time>2025-05-18T08:40:42Z</time>
      </trkpt>
      <trkpt lat="43.765735002234578" lon="6.277781026437879">
        <ele>1147.47</ele>
        <time>2025-05-18T08:40:43Z</time>
      </trkpt>
      <trkpt lat="43.76584698446095" lon="6.277703996747732">
        <ele>1148.4300000000001</ele>
        <time>2025-05-18T08:40:44Z</time>
      </trkpt>
      <trkpt lat="43.765968019142747" lon="6.277621015906334">
        <ele>1149.8699999999999</ele>
        <time>2025-05-18T08:40:45Z</time>
      </trkpt>
      <trkpt lat="43.766096010804176" lon="6.277532000094652">
        <ele>1151.3199999999999</ele>
        <time>2025-05-18T08:40:46Z</time>
      </trkpt>
      <trkpt lat="43.766227019950747" lon="6.27744197845459">
        <ele>1152.28</ele>
        <time>2025-05-18T08:40:47Z</time>
      </trkpt>
      <trkpt lat="43.766563972458243" lon="6.27703201957047">
        <ele>1156.1199999999999</ele>
        <time>2025-05-18T08:40:50Z</time>
      </trkpt>
      <trkpt lat="43.766666986048222" lon="6.276906039565802">
        <ele>1157.0799999999999</ele>
        <time>2025-05-18T08:40:51Z</time>
      </trkpt>
      <trkpt lat="43.76674996688962" lon="6.276772012934089">
        <ele>1158.53</ele>
        <time>2025-05-18T08:40:52Z</time>
      </trkpt>
      <trkpt lat="43.766817022114992" lon="6.276618037372828">
        <ele>1159.97</ele>
        <time>2025-05-18T08:40:53Z</time>
      </trkpt>
      <trkpt lat="43.766869995743036" lon="6.276454003527761">
        <ele>1161.4100000000001</ele>
        <time>2025-05-18T08:40:54Z</time>
      </trkpt>
      <trkpt lat="43.767061019316316" lon="6.275655962526798">
        <ele>1168.1400000000001</ele>
        <time>2025-05-18T08:40:59Z</time>
      </trkpt>
      <trkpt lat="43.767110975459218" lon="6.275510033592582">
        <ele>1169.5799999999999</ele>
        <time>2025-05-18T08:41:00Z</time>
      </trkpt>
      <trkpt lat="43.76717995852232" lon="6.275390004739165">
        <ele>1170.54</ele>
        <time>2025-05-18T08:41:01Z</time>
      </trkpt>
      <trkpt lat="43.767621014267206" lon="6.274548964574933">
        <ele>1178.71</ele>
        <time>2025-05-18T08:41:10Z</time>
      </trkpt>
      <trkpt lat="43.767613973468542" lon="6.274482998996973">
        <ele>1180.6400000000001</ele>
        <time>2025-05-18T08:41:13Z</time>
      </trkpt>
      <trkpt lat="43.767609028145671" lon="6.274439999833703">
        <ele>1180.6400000000001</ele>
        <time>2025-05-18T08:41:14Z</time>
      </trkpt>
      <trkpt lat="43.767603999003768" lon="6.274401023983955">
        <ele>1181.1199999999999</ele>
        <time>2025-05-18T08:41:15Z</time>
      </trkpt>
      <trkpt lat="43.767600981518626" lon="6.274374034255743">
        <ele>1181.5999999999999</ele>
        <time>2025-05-18T08:41:16Z</time>
      </trkpt>
      <trkpt lat="43.767600981518626" lon="6.274374034255743">
        <ele>1182.0799999999999</ele>
        <time>2025-05-18T08:41:29Z</time>
      </trkpt>
      <trkpt lat="43.767600981518626" lon="6.274374034255743">
        <ele>1181.5999999999999</ele>
        <time>2025-05-18T08:42:18Z</time>
      </trkpt>
      <trkpt lat="43.767600981518626" lon="6.274374034255743">
        <ele>1181.5999999999999</ele>
        <time>2025-05-18T08:43:03Z</time>
      </trkpt>
      <trkpt lat="43.767514983192086" lon="6.27430496737361">
        <ele>1181.5999999999999</ele>
        <time>2025-05-18T08:43:29Z</time>
      </trkpt>
      <trkpt lat="43.767443988472223" lon="6.274289963766933">
        <ele>1182.0799999999999</ele>
        <time>2025-05-18T08:43:30Z</time>
      </trkpt>
      <trkpt lat="43.767364025115967" lon="6.274273032322526">
        <ele>1182.0799999999999</ele>
        <time>2025-05-18T08:43:31Z</time>
      </trkpt>
      <trkpt lat="43.76653203740716" lon="6.274100029841065">
        <ele>1184.96</ele>
        <time>2025-05-18T08:43:38Z</time>
      </trkpt>
      <trkpt lat="43.766259038820863" lon="6.27396097406745">
        <ele>1186.4000000000001</ele>
        <time>2025-05-18T08:43:40Z</time>
      </trkpt>
      <trkpt lat="43.766132974997163" lon="6.273857960477471">
        <ele>1186.8800000000001</ele>
        <time>2025-05-18T08:43:41Z</time>
      </trkpt>
      <trkpt lat="43.766002971678972" lon="6.273739021271467">
        <ele>1187.8499999999999</ele>
        <time>2025-05-18T08:43:42Z</time>
      </trkpt>
      <trkpt lat="43.765896018594503" lon="6.273593008518219">
        <ele>1188.3299999999999</ele>
        <time>2025-05-18T08:43:43Z</time>
      </trkpt>
      <trkpt lat="43.765787975862622" lon="6.273424029350281">
        <ele>1189.29</ele>
        <time>2025-05-18T08:43:44Z</time>
      </trkpt>
      <trkpt lat="43.765678005293012" lon="6.273252032697201">
        <ele>1190.25</ele>
        <time>2025-05-18T08:43:45Z</time>
      </trkpt>
      <trkpt lat="43.765589995309711" lon="6.273068971931934">
        <ele>1190.73</ele>
        <time>2025-05-18T08:43:46Z</time>
      </trkpt>
      <trkpt lat="43.765513971447945" lon="6.272857999429107">
        <ele>1191.6900000000001</ele>
        <time>2025-05-18T08:43:47Z</time>
      </trkpt>
      <trkpt lat="43.765439037233591" lon="6.272646021097899">
        <ele>1192.6500000000001</ele>
        <time>2025-05-18T08:43:48Z</time>
      </trkpt>
      <trkpt lat="43.765383968129754" lon="6.272429013624787">
        <ele>1194.0899999999999</ele>
        <time>2025-05-18T08:43:49Z</time>
      </trkpt>
      <trkpt lat="43.765340968966484" lon="6.272201025858522">
        <ele>1195.54</ele>
        <time>2025-05-18T08:43:50Z</time>
      </trkpt>
      <trkpt lat="43.765305010601878" lon="6.272013019770384">
        <ele>1196.98</ele>
        <time>2025-05-18T08:43:51Z</time>
      </trkpt>
      <trkpt lat="43.765311967581511" lon="6.271821996197105">
        <ele>1197.9400000000001</ele>
        <time>2025-05-18T08:43:52Z</time>
      </trkpt>
      <trkpt lat="43.765318002551794" lon="6.271657962352037">
        <ele>1198.9000000000001</ele>
        <time>2025-05-18T08:43:53Z</time>
      </trkpt>
      <trkpt lat="43.765323031693697" lon="6.271508010104299">
        <ele>1199.8599999999999</ele>
        <time>2025-05-18T08:43:54Z</time>
      </trkpt>
      <trkpt lat="43.765320014208555" lon="6.271379012614489">
        <ele>1200.3399999999999</ele>
        <time>2025-05-18T08:43:55Z</time>
      </trkpt>
      <trkpt lat="43.765306016430259" lon="6.271254038438201">
        <ele>1200.3399999999999</ele>
        <time>2025-05-18T08:43:56Z</time>
      </trkpt>
      <trkpt lat="43.765253964811563" lon="6.271199975162745">
        <ele>1200.3399999999999</ele>
        <time>2025-05-18T08:43:57Z</time>
      </trkpt>
      <trkpt lat="43.765165032818913" lon="6.271127974614501">
        <ele>1200.3399999999999</ele>
        <time>2025-05-18T08:43:58Z</time>
      </trkpt>
      <trkpt lat="43.765060007572174" lon="6.271042982116342">
        <ele>1200.3399999999999</ele>
        <time>2025-05-18T08:43:59Z</time>
      </trkpt>
      <trkpt lat="43.764667985960841" lon="6.270791022107005">
        <ele>1198.4200000000001</ele>
        <time>2025-05-18T08:44:02Z</time>
      </trkpt>
      <trkpt lat="43.764532031491399" lon="6.270727990195155">
        <ele>1197.46</ele>
        <time>2025-05-18T08:44:03Z</time>
      </trkpt>
      <trkpt lat="43.764404039829969" lon="6.270669987425208">
        <ele>1196.98</ele>
        <time>2025-05-18T08:44:04Z</time>
      </trkpt>
      <trkpt lat="43.764288034290075" lon="6.270581977441907">
        <ele>1196.02</ele>
        <time>2025-05-18T08:44:05Z</time>
      </trkpt>
      <trkpt lat="43.764201030135155" lon="6.270484998822212">
        <ele>1195.0599999999999</ele>
        <time>2025-05-18T08:44:06Z</time>
      </trkpt>
      <trkpt lat="43.764143027365208" lon="6.270318031311035">
        <ele>1194.5799999999999</ele>
        <time>2025-05-18T08:44:07Z</time>
      </trkpt>
      <trkpt lat="43.764110002666712" lon="6.270137988030911">
        <ele>1193.6099999999999</ele>
        <time>2025-05-18T08:44:08Z</time>
      </trkpt>
      <trkpt lat="43.764074966311455" lon="6.269955011084676">
        <ele>1192.6500000000001</ele>
        <time>2025-05-18T08:44:09Z</time>
      </trkpt>
      <trkpt lat="43.76404101960361" lon="6.269773961976171">
        <ele>1191.6900000000001</ele>
        <time>2025-05-18T08:44:10Z</time>
      </trkpt>
      <trkpt lat="43.764068009331822" lon="6.269601965323091">
        <ele>1190.73</ele>
        <time>2025-05-18T08:44:11Z</time>
      </trkpt>
      <trkpt lat="43.764101034030318" lon="6.26942896284163">
        <ele>1189.77</ele>
        <time>2025-05-18T08:44:12Z</time>
      </trkpt>
      <trkpt lat="43.764129029586911" lon="6.269274987280369">
        <ele>1188.8099999999999</ele>
        <time>2025-05-18T08:44:13Z</time>
      </trkpt>
      <trkpt lat="43.764154007658362" lon="6.269144983962178">
        <ele>1187.3699999999999</ele>
        <time>2025-05-18T08:44:14Z</time>
      </trkpt>
      <trkpt lat="43.764159958809614" lon="6.269058985635638">
        <ele>1185.4400000000001</ele>
        <time>2025-05-18T08:44:15Z</time>
      </trkpt>
      <trkpt lat="43.764117965474725" lon="6.26897600479424">
        <ele>1183.52</ele>
        <time>2025-05-18T08:44:16Z</time>
      </trkpt>
      <trkpt lat="43.764058034867048" lon="6.268898975104094">
        <ele>1182.0799999999999</ele>
        <time>2025-05-18T08:44:17Z</time>
      </trkpt>
      <trkpt lat="43.763978993520141" lon="6.268821023404598">
        <ele>1180.6400000000001</ele>
        <time>2025-05-18T08:44:18Z</time>
      </trkpt>
      <trkpt lat="43.763899030163884" lon="6.26874097622931">
        <ele>1179.1900000000001</ele>
        <time>2025-05-18T08:44:19Z</time>
      </trkpt>
      <trkpt lat="43.763825017958879" lon="6.268666964024305">
        <ele>1177.75</ele>
        <time>2025-05-18T08:44:20Z</time>
      </trkpt>
      <trkpt lat="43.763808002695441" lon="6.268555987626314">
        <ele>1176.3099999999999</ele>
        <time>2025-05-18T08:44:21Z</time>
      </trkpt>
      <trkpt lat="43.763815965503454" lon="6.268479041755199">
        <ele>1174.3900000000001</ele>
        <time>2025-05-18T08:44:22Z</time>
      </trkpt>
      <trkpt lat="43.763852007687092" lon="6.268383990973234">
        <ele>1172.95</ele>
        <time>2025-05-18T08:44:23Z</time>
      </trkpt>
      <trkpt lat="43.763899030163884" lon="6.268307967111468">
        <ele>1171.02</ele>
        <time>2025-05-18T08:44:24Z</time>
      </trkpt>
      <trkpt lat="43.763974970206618" lon="6.268221968784928">
        <ele>1169.5799999999999</ele>
        <time>2025-05-18T08:44:25Z</time>
      </trkpt>
      <trkpt lat="43.7640639860183" lon="6.268078973516822">
        <ele>1167.6600000000001</ele>
        <time>2025-05-18T08:44:26Z</time>
      </trkpt>
      <trkpt lat="43.764117965474725" lon="6.26792399212718">
        <ele>1165.74</ele>
        <time>2025-05-18T08:44:27Z</time>
      </trkpt>
      <trkpt lat="43.764166999608278" lon="6.267786026000977">
        <ele>1163.8099999999999</ele>
        <time>2025-05-18T08:44:28Z</time>
      </trkpt>
      <trkpt lat="43.764262972399592" lon="6.267689969390631">
        <ele>1162.3699999999999</ele>
        <time>2025-05-18T08:44:29Z</time>
      </trkpt>
      <trkpt lat="43.764359029009938" lon="6.267593996599317">
        <ele>1160.45</ele>
        <time>2025-05-18T08:44:30Z</time>
      </trkpt>
      <trkpt lat="43.764448966830969" lon="6.267504980787635">
        <ele>1158.53</ele>
        <time>2025-05-18T08:44:31Z</time>
      </trkpt>
      <trkpt lat="43.764533959329128" lon="6.267356034368277">
        <ele>1156.5999999999999</ele>
        <time>2025-05-18T08:44:32Z</time>
      </trkpt>
      <trkpt lat="43.764570001512766" lon="6.267225025221705">
        <ele>1155.1600000000001</ele>
        <time>2025-05-18T08:44:33Z</time>
      </trkpt>
      <trkpt lat="43.764599002897739" lon="6.267066020518541">
        <ele>1153.24</ele>
        <time>2025-05-18T08:44:34Z</time>
      </trkpt>
      <trkpt lat="43.764628004282713" lon="6.266898969188333">
        <ele>1151.8</ele>
        <time>2025-05-18T08:44:35Z</time>
      </trkpt>
      <trkpt lat="43.764740992337465" lon="6.266387002542615">
        <ele>1146.51</ele>
        <time>2025-05-18T08:44:38Z</time>
      </trkpt>
      <trkpt lat="43.764824979007244" lon="6.266229003667831">
        <ele>1145.0699999999999</ele>
        <time>2025-05-18T08:44:39Z</time>
      </trkpt>
      <trkpt lat="43.765183975920081" lon="6.265555014833808">
        <ele>1138.3399999999999</ele>
        <time>2025-05-18T08:44:43Z</time>
      </trkpt>
      <trkpt lat="43.765299981459975" lon="6.26543004065752">
        <ele>1136.4200000000001</ele>
        <time>2025-05-18T08:44:44Z</time>
      </trkpt>
      <trkpt lat="43.765439037233591" lon="6.265326021239162">
        <ele>1134.97</ele>
        <time>2025-05-18T08:44:45Z</time>
      </trkpt>
      <trkpt lat="43.765583960339427" lon="6.265218984335661">
        <ele>1133.53</ele>
        <time>2025-05-18T08:44:46Z</time>
      </trkpt>
      <trkpt lat="43.765727039426565" lon="6.265113037079573">
        <ele>1132.0899999999999</ele>
        <time>2025-05-18T08:44:47Z</time>
      </trkpt>
      <trkpt lat="43.765884032472968" lon="6.264997031539679">
        <ele>1130.6500000000001</ele>
        <time>2025-05-18T08:44:48Z</time>
      </trkpt>
      <trkpt lat="43.766031973063946" lon="6.264954032376409">
        <ele>1129.21</ele>
        <time>2025-05-18T08:44:49Z</time>
      </trkpt>
      <trkpt lat="43.766189971938729" lon="6.264908015727997">
        <ele>1127.76</ele>
        <time>2025-05-18T08:44:50Z</time>
      </trkpt>
      <trkpt lat="43.766548968851566" lon="6.264802990481257">
        <ele>1123.4400000000001</ele>
        <time>2025-05-18T08:44:53Z</time>
      </trkpt>
      <trkpt lat="43.766637984663248" lon="6.264684973284602">
        <ele>1122</ele>
        <time>2025-05-18T08:44:54Z</time>
      </trkpt>
      <trkpt lat="43.767042998224497" lon="6.264145011082292">
        <ele>1118.6300000000001</ele>
        <time>2025-05-18T08:44:59Z</time>
      </trkpt>
      <trkpt lat="43.767084991559386" lon="6.2640340346843">
        <ele>1118.6300000000001</ele>
        <time>2025-05-18T08:45:00Z</time>
      </trkpt>
      <trkpt lat="43.767099995166063" lon="6.263913000002503">
        <ele>1118.1500000000001</ele>
        <time>2025-05-18T08:45:01Z</time>
      </trkpt>
      <trkpt lat="43.767074011266232" lon="6.263801017776132">
        <ele>1117.6700000000001</ele>
        <time>2025-05-18T08:45:02Z</time>
      </trkpt>
      <trkpt lat="43.767044004052877" lon="6.263667996972799">
        <ele>1117.6700000000001</ele>
        <time>2025-05-18T08:45:03Z</time>
      </trkpt>
      <trkpt lat="43.767010979354382" lon="6.263522990047932">
        <ele>1117.1900000000001</ele>
        <time>2025-05-18T08:45:04Z</time>
      </trkpt>
      <trkpt lat="43.766999999061227" lon="6.263372031971812">
        <ele>1116.71</ele>
        <time>2025-05-18T08:45:05Z</time>
      </trkpt>
      <trkpt lat="43.767020031809807" lon="6.263214033097029">
        <ele>1116.71</ele>
        <time>2025-05-18T08:45:06Z</time>
      </trkpt>
      <trkpt lat="43.767079962417483" lon="6.263080006465316">
        <ele>1116.23</ele>
        <time>2025-05-18T08:45:07Z</time>
      </trkpt>
      <trkpt lat="43.767140982672572" lon="6.262944974005222">
        <ele>1115.27</ele>
        <time>2025-05-18T08:45:08Z</time>
      </trkpt>
      <trkpt lat="43.767193034291267" lon="6.262828968465328">
        <ele>1114.79</ele>
        <time>2025-05-18T08:45:09Z</time>
      </trkpt>
      <trkpt lat="43.767218012362719" lon="6.262687984853983">
        <ele>1113.8199999999999</ele>
        <time>2025-05-18T08:45:10Z</time>
      </trkpt>
      <trkpt lat="43.767247013747692" lon="6.262520011514425">
        <ele>1112.8599999999999</ele>
        <time>2025-05-18T08:45:11Z</time>
      </trkpt>
      <trkpt lat="43.767280960455537" lon="6.262328987941146">
        <ele>1111.9000000000001</ele>
        <time>2025-05-18T08:45:12Z</time>
      </trkpt>
      <trkpt lat="43.767315996810794" lon="6.262132013216615">
        <ele>1110.46</ele>
        <time>2025-05-18T08:45:13Z</time>
      </trkpt>
      <trkpt lat="43.767404006794095" lon="6.261952975764871">
        <ele>1109.5</ele>
        <time>2025-05-18T08:45:14Z</time>
      </trkpt>
      <trkpt lat="43.767492016777396" lon="6.261796988546848">
        <ele>1108.0599999999999</ele>
        <time>2025-05-18T08:45:15Z</time>
      </trkpt>
      <trkpt lat="43.767625959590077" lon="6.261697998270392">
        <ele>1106.6099999999999</ele>
        <time>2025-05-18T08:45:16Z</time>
      </trkpt>
      <trkpt lat="43.767765015363693" lon="6.261625997722149">
        <ele>1106.1300000000001</ele>
        <time>2025-05-18T08:45:17Z</time>
      </trkpt>
      <trkpt lat="43.767910022288561" lon="6.261549973860383">
        <ele>1105.1700000000001</ele>
        <time>2025-05-18T08:45:18Z</time>
      </trkpt>
      <trkpt lat="43.768065003678203" lon="6.261488031595945">
        <ele>1104.21</ele>
        <time>2025-05-18T08:45:19Z</time>
      </trkpt>
      <trkpt lat="43.76822903752327" lon="6.261458024382591">
        <ele>1103.73</ele>
        <time>2025-05-18T08:45:20Z</time>
      </trkpt>
      <trkpt lat="43.768386030569673" lon="6.261428017169237">
        <ele>1103.25</ele>
        <time>2025-05-18T08:45:21Z</time>
      </trkpt>
      <trkpt lat="43.76853397116065" lon="6.261400021612644">
        <ele>1102.29</ele>
        <time>2025-05-18T08:45:22Z</time>
      </trkpt>
      <trkpt lat="43.768680989742279" lon="6.261373031884432">
        <ele>1101.3299999999999</ele>
        <time>2025-05-18T08:45:23Z</time>
      </trkpt>
      <trkpt lat="43.768816022202373" lon="6.261293990537524">
        <ele>1100.3699999999999</ele>
        <time>2025-05-18T08:45:24Z</time>
      </trkpt>
      <trkpt lat="43.768957005813718" lon="6.261204974725843">
        <ele>1099.4000000000001</ele>
        <time>2025-05-18T08:45:25Z</time>
      </trkpt>
      <trkpt lat="43.769095977768302" lon="6.261116964742541">
        <ele>1098.4400000000001</ele>
        <time>2025-05-18T08:45:26Z</time>
      </trkpt>
      <trkpt lat="43.769242996349931" lon="6.261072959750891">
        <ele>1097.48</ele>
        <time>2025-05-18T08:45:27Z</time>
      </trkpt>
      <trkpt lat="43.769374005496502" lon="6.261034989729524">
        <ele>1097</ele>
        <time>2025-05-18T08:45:28Z</time>
      </trkpt>
      <trkpt lat="43.769480036571622" lon="6.260967012494803">
        <ele>1096.04</ele>
        <time>2025-05-18T08:45:29Z</time>
      </trkpt>
      <trkpt lat="43.769693020731211" lon="6.260801972821355">
        <ele>1094.5999999999999</ele>
        <time>2025-05-18T08:45:31Z</time>
      </trkpt>
      <trkpt lat="43.76982101239264" lon="6.260733995586634">
        <ele>1093.6400000000001</ele>
        <time>2025-05-18T08:45:32Z</time>
      </trkpt>
      <trkpt lat="43.769937017932534" lon="6.260762996971607">
        <ele>1092.6800000000001</ele>
        <time>2025-05-18T08:45:33Z</time>
      </trkpt>
      <trkpt lat="43.770061992108822" lon="6.260795015841723">
        <ele>1091.71</ele>
        <time>2025-05-18T08:45:34Z</time>
      </trkpt>
      <trkpt lat="43.770179003477097" lon="6.260824017226696">
        <ele>1091.23</ele>
        <time>2025-05-18T08:45:35Z</time>
      </trkpt>
      <trkpt lat="43.770280005410314" lon="6.260848995298147">
        <ele>1090.27</ele>
        <time>2025-05-18T08:45:36Z</time>
      </trkpt>
      <trkpt lat="43.770340019837022" lon="6.26081395894289">
        <ele>1089.3099999999999</ele>
        <time>2025-05-18T08:45:37Z</time>
      </trkpt>
      <trkpt lat="43.77040296792984" lon="6.260740030556917">
        <ele>1087.3900000000001</ele>
        <time>2025-05-18T08:45:38Z</time>
      </trkpt>
      <trkpt lat="43.770588040351868" lon="6.260541966184974">
        <ele>1084.99</ele>
        <time>2025-05-18T08:45:40Z</time>
      </trkpt>
      <trkpt lat="43.770711002871394" lon="6.260480023920536">
        <ele>1083.54</ele>
        <time>2025-05-18T08:45:41Z</time>
      </trkpt>
      <trkpt lat="43.770927004516125" lon="6.260371981188655">
        <ele>1081.1400000000001</ele>
        <time>2025-05-18T08:45:43Z</time>
      </trkpt>
      <trkpt lat="43.770990958437324" lon="6.260266033932567">
        <ele>1080.1800000000001</ele>
        <time>2025-05-18T08:45:44Z</time>
      </trkpt>
      <trkpt lat="43.771046027541161" lon="6.260140975937247">
        <ele>1079.22</ele>
        <time>2025-05-18T08:45:45Z</time>
      </trkpt>
      <trkpt lat="43.771120039746165" lon="6.259976020082831">
        <ele>1078.26</ele>
        <time>2025-05-18T08:45:46Z</time>
      </trkpt>
      <trkpt lat="43.771193968132138" lon="6.25986697152257">
        <ele>1077.29</ele>
        <time>2025-05-18T08:45:47Z</time>
      </trkpt>
      <trkpt lat="43.77128298394382" lon="6.259736968204379">
        <ele>1075.8499999999999</ele>
        <time>2025-05-18T08:45:48Z</time>
      </trkpt>
      <trkpt lat="43.77136898227036" lon="6.25960998237133">
        <ele>1074.4100000000001</ele>
        <time>2025-05-18T08:45:49Z</time>
      </trkpt>
      <trkpt lat="43.771470990031958" lon="6.25950001180172">
        <ele>1073.45</ele>
        <time>2025-05-18T08:45:50Z</time>
      </trkpt>
      <trkpt lat="43.771668970584869" lon="6.259315023198724">
        <ele>1071.53</ele>
        <time>2025-05-18T08:45:52Z</time>
      </trkpt>
      <trkpt lat="43.771724039688706" lon="6.259205974638462">
        <ele>1070.5699999999999</ele>
        <time>2025-05-18T08:45:53Z</time>
      </trkpt>
      <trkpt lat="43.7717330083251" lon="6.259084017947316">
        <ele>1069.1199999999999</ele>
        <time>2025-05-18T08:45:54Z</time>
      </trkpt>
      <trkpt lat="43.771740971133113" lon="6.258940016850829">
        <ele>1068.1600000000001</ele>
        <time>2025-05-18T08:45:55Z</time>
      </trkpt>
      <trkpt lat="43.771718004718423" lon="6.258780006319284">
        <ele>1066.24</ele>
        <time>2025-05-18T08:45:56Z</time>
      </trkpt>
      <trkpt lat="43.771682968363166" lon="6.258613960817456">
        <ele>1064.3199999999999</ele>
        <time>2025-05-18T08:45:57Z</time>
      </trkpt>
      <trkpt lat="43.771609039977193" lon="6.25847197137773">
        <ele>1062.3900000000001</ele>
        <time>2025-05-18T08:45:58Z</time>
      </trkpt>
      <trkpt lat="43.771529998630285" lon="6.25831900164485">
        <ele>1060.47</ele>
        <time>2025-05-18T08:45:59Z</time>
      </trkpt>
      <trkpt lat="43.771447017788887" lon="6.258158991113305">
        <ele>1058.55</ele>
        <time>2025-05-18T08:46:00Z</time>
      </trkpt>
      <trkpt lat="43.771347021684051" lon="6.258006021380425">
        <ele>1057.1099999999999</ele>
        <time>2025-05-18T08:46:01Z</time>
      </trkpt>
      <trkpt lat="43.771232021972537" lon="6.257875012233853">
        <ele>1055.1800000000001</ele>
        <time>2025-05-18T08:46:02Z</time>
      </trkpt>
      <trkpt lat="43.771120961755514" lon="6.257748026400805">
        <ele>1053.74</ele>
        <time>2025-05-18T08:46:03Z</time>
      </trkpt>
      <trkpt lat="43.771015014499426" lon="6.257626991719008">
        <ele>1051.8199999999999</ele>
        <time>2025-05-18T08:46:04Z</time>
      </trkpt>
      <trkpt lat="43.770937984809279" lon="6.257518026977778">
        <ele>1050.3800000000001</ele>
        <time>2025-05-18T08:46:05Z</time>
      </trkpt>
      <trkpt lat="43.770887022837996" lon="6.25735298730433">
        <ele>1048.45</ele>
        <time>2025-05-18T08:46:06Z</time>
      </trkpt>
      <trkpt lat="43.770832037553191" lon="6.257177973166108">
        <ele>1046.53</ele>
        <time>2025-05-18T08:46:07Z</time>
      </trkpt>
      <trkpt lat="43.770778980106115" lon="6.257004970684648">
        <ele>1045.0899999999999</ele>
        <time>2025-05-18T08:46:08Z</time>
      </trkpt>
      <trkpt lat="43.770762970671058" lon="6.256827022880316">
        <ele>1043.1700000000001</ele>
        <time>2025-05-18T08:46:09Z</time>
      </trkpt>
      <trkpt lat="43.770778980106115" lon="6.256649997085333">
        <ele>1041.73</ele>
        <time>2025-05-18T08:46:10Z</time>
      </trkpt>
      <trkpt lat="43.770792977884412" lon="6.256482023745775">
        <ele>1039.8</ele>
        <time>2025-05-18T08:46:11Z</time>
      </trkpt>
      <trkpt lat="43.770806975662708" lon="6.256317989900708">
        <ele>1038.3599999999999</ele>
        <time>2025-05-18T08:46:12Z</time>
      </trkpt>
      <trkpt lat="43.770818961784244" lon="6.256178012117744">
        <ele>1036.9200000000001</ele>
        <time>2025-05-18T08:46:13Z</time>
      </trkpt>
      <trkpt lat="43.770855003967881" lon="6.256082039326429">
        <ele>1035</ele>
        <time>2025-05-18T08:46:14Z</time>
      </trkpt>
      <trkpt lat="43.770918035879731" lon="6.255996040999889">
        <ele>1033.55</ele>
        <time>2025-05-18T08:46:15Z</time>
      </trkpt>
      <trkpt lat="43.771042004227638" lon="6.255975002422929">
        <ele>1031.6300000000001</ele>
        <time>2025-05-18T08:46:16Z</time>
      </trkpt>
      <trkpt lat="43.771077962592244" lon="6.256028981879354">
        <ele>1030.6700000000001</ele>
        <time>2025-05-18T08:46:17Z</time>
      </trkpt>
      <trkpt lat="43.771120039746165" lon="6.256092013791204">
        <ele>1028.75</ele>
        <time>2025-05-18T08:46:18Z</time>
      </trkpt>
      <trkpt lat="43.771122973412275" lon="6.256223022937775">
        <ele>1027.3099999999999</ele>
        <time>2025-05-18T08:46:19Z</time>
      </trkpt>
      <trkpt lat="43.771126996725798" lon="6.256354032084346">
        <ele>1025.3800000000001</ele>
        <time>2025-05-18T08:46:20Z</time>
      </trkpt>
      <trkpt lat="43.77113102003932" lon="6.25651597045362">
        <ele>1023.9400000000001</ele>
        <time>2025-05-18T08:46:21Z</time>
      </trkpt>
      <trkpt lat="43.771134959533811" lon="6.256681010127068">
        <ele>1022.02</ele>
        <time>2025-05-18T08:46:22Z</time>
      </trkpt>
      <trkpt lat="43.771138982847333" lon="6.256825011223555">
        <ele>1021.0599999999999</ele>
        <time>2025-05-18T08:46:23Z</time>
      </trkpt>
      <trkpt lat="43.771177958697081" lon="6.256973035633564">
        <ele>1019.62</ele>
        <time>2025-05-18T08:46:24Z</time>
      </trkpt>
      <trkpt lat="43.771268986165524" lon="6.257107984274626">
        <ele>1018.17</ele>
        <time>2025-05-18T08:46:25Z</time>
      </trkpt>
      <trkpt lat="43.771369988098741" lon="6.257148971781135">
        <ele>1016.25</ele>
        <time>2025-05-18T08:46:26Z</time>
      </trkpt>
      <trkpt lat="43.771495968103409" lon="6.257199011743069">
        <ele>1014.8099999999999</ele>
        <time>2025-05-18T08:46:27Z</time>
      </trkpt>
      <trkpt lat="43.771640975028276" lon="6.257257014513016">
        <ele>1012.41</ele>
        <time>2025-05-18T08:46:28Z</time>
      </trkpt>
      <trkpt lat="43.771787993609905" lon="6.257316023111343">
        <ele>1010.48</ele>
        <time>2025-05-18T08:46:29Z</time>
      </trkpt>
      <trkpt lat="43.772259978577495" lon="6.257496988400817">
        <ele>1003.75</ele>
        <time>2025-05-18T08:46:32Z</time>
      </trkpt>
      <trkpt lat="43.772744033485651" lon="6.257596984505653">
        <ele>997.01999999999998</ele>
        <time>2025-05-18T08:46:35Z</time>
      </trkpt>
      <trkpt lat="43.772897003218532" lon="6.257607964798808">
        <ele>994.62</ele>
        <time>2025-05-18T08:46:36Z</time>
      </trkpt>
      <trkpt lat="43.773076040670276" lon="6.257584998384118">
        <ele>992.22000000000003</ele>
        <time>2025-05-18T08:46:37Z</time>
      </trkpt>
      <trkpt lat="43.773220041766763" lon="6.257521966472268">
        <ele>989.80999999999995</ele>
        <time>2025-05-18T08:46:38Z</time>
      </trkpt>
      <trkpt lat="43.773358007892966" lon="6.257461030036211">
        <ele>987.88999999999999</ele>
        <time>2025-05-18T08:46:39Z</time>
      </trkpt>
      <trkpt lat="43.773544002324343" lon="6.257378971204162">
        <ele>985.49000000000001</ele>
        <time>2025-05-18T08:46:40Z</time>
      </trkpt>
      <trkpt lat="43.773623965680599" lon="6.257386012002826">
        <ele>982.60000000000002</ele>
        <time>2025-05-18T08:46:42Z</time>
      </trkpt>
      <trkpt lat="43.773801997303963" lon="6.257401015609503">
        <ele>981.63999999999999</ele>
        <time>2025-05-18T08:46:43Z</time>
      </trkpt>
      <trkpt lat="43.77381700091064" lon="6.257362039759755">
        <ele>980.67999999999995</ele>
        <time>2025-05-18T08:46:44Z</time>
      </trkpt>
      <trkpt lat="43.773758998140693" lon="6.257186019793153">
        <ele>979.72000000000003</ele>
        <time>2025-05-18T08:46:45Z</time>
      </trkpt>
      <trkpt lat="43.773758998140693" lon="6.257186019793153">
        <ele>979.72000000000003</ele>
        <time>2025-05-18T08:46:46Z</time>
      </trkpt>
      <trkpt lat="43.773680040612817" lon="6.257171016186476">
        <ele>979.72000000000003</ele>
        <time>2025-05-18T08:46:47Z</time>
      </trkpt>
      <trkpt lat="43.773655984550714" lon="6.257165987044573">
        <ele>980.67999999999995</ele>
        <time>2025-05-18T08:46:48Z</time>
      </trkpt>
      <trkpt lat="43.773578032851219" lon="6.257150983437896">
        <ele>980.20000000000005</ele>
        <time>2025-05-18T08:46:49Z</time>
      </trkpt>
      <trkpt lat="43.773365970700979" lon="6.257109995931387">
        <ele>978.75999999999999</ele>
        <time>2025-05-18T08:46:51Z</time>
      </trkpt>
      <trkpt lat="43.773246025666595" lon="6.257087029516697">
        <ele>978.27999999999997</ele>
        <time>2025-05-18T08:46:52Z</time>
      </trkpt>
      <trkpt lat="43.77310998737812" lon="6.257060961797833">
        <ele>977.32000000000005</ele>
        <time>2025-05-18T08:46:53Z</time>
      </trkpt>
      <trkpt lat="43.772715032100677" lon="6.256985021755099">
        <ele>974.42999999999995</ele>
        <time>2025-05-18T08:46:56Z</time>
      </trkpt>
      <trkpt lat="43.772643031552434" lon="6.256971023976803">
        <ele>973.95000000000005</ele>
        <time>2025-05-18T08:46:57Z</time>
      </trkpt>
      <trkpt lat="43.772620987147093" lon="6.256949985399842">
        <ele>972.99000000000001</ele>
        <time>2025-05-18T08:46:58Z</time>
      </trkpt>
      <trkpt lat="43.772557033225894" lon="6.256886031478643">
        <ele>972.02999999999997</ele>
        <time>2025-05-18T08:46:59Z</time>
      </trkpt>
      <trkpt lat="43.772561978548765" lon="6.256848983466625">
        <ele>970.59000000000003</ele>
        <time>2025-05-18T08:47:00Z</time>
      </trkpt>
      <trkpt lat="43.772681001573801" lon="6.256734989583492">
        <ele>969.14999999999998</ele>
        <time>2025-05-18T08:47:01Z</time>
      </trkpt>
      <trkpt lat="43.772774040699005" lon="6.256734989583492">
        <ele>967.70000000000005</ele>
        <time>2025-05-18T08:47:02Z</time>
      </trkpt>
      <trkpt lat="43.772877976298332" lon="6.256734989583492">
        <ele>966.25999999999999</ele>
        <time>2025-05-18T08:47:03Z</time>
      </trkpt>
      <trkpt lat="43.772995993494987" lon="6.256734989583492">
        <ele>965.29999999999995</ele>
        <time>2025-05-18T08:47:04Z</time>
      </trkpt>
      <trkpt lat="43.773104958236217" lon="6.256689978763461">
        <ele>963.86000000000001</ele>
        <time>2025-05-18T08:47:05Z</time>
      </trkpt>
      <trkpt lat="43.773232027888298" lon="6.256613032892346">
        <ele>962.89999999999998</ele>
        <time>2025-05-18T08:47:06Z</time>
      </trkpt>
      <trkpt lat="43.773361025378108" lon="6.256533991545439">
        <ele>961.46000000000004</ele>
        <time>2025-05-18T08:47:07Z</time>
      </trkpt>
      <trkpt lat="43.773724967613816" lon="6.256313966587186">
        <ele>958.09000000000003</ele>
        <time>2025-05-18T08:47:10Z</time>
      </trkpt>
      <trkpt lat="43.773835022002459" lon="6.256248001009226">
        <ele>957.13</ele>
        <time>2025-05-18T08:47:11Z</time>
      </trkpt>
      <trkpt lat="43.773938035592437" lon="6.256241966038942">
        <ele>956.16999999999996</ele>
        <time>2025-05-18T08:47:12Z</time>
      </trkpt>
      <trkpt lat="43.774058986455202" lon="6.256241966038942">
        <ele>956.16999999999996</ele>
        <time>2025-05-18T08:47:13Z</time>
      </trkpt>
      <trkpt lat="43.774086982011795" lon="6.256279014050961">
        <ele>955.21000000000004</ele>
        <time>2025-05-18T08:47:14Z</time>
      </trkpt>
      <trkpt lat="43.774187983945012" lon="6.256417986005545">
        <ele>953.76999999999998</ele>
        <time>2025-05-18T08:47:15Z</time>
      </trkpt>
      <trkpt lat="43.774196030572057" lon="6.256571961566806">
        <ele>952.32000000000005</ele>
        <time>2025-05-18T08:47:16Z</time>
      </trkpt>
      <trkpt lat="43.77420399338007" lon="6.256745969876647">
        <ele>951.36000000000001</ele>
        <time>2025-05-18T08:47:17Z</time>
      </trkpt>
      <trkpt lat="43.774213967844844" lon="6.256945040076971">
        <ele>950.39999999999998</ele>
        <time>2025-05-18T08:47:18Z</time>
      </trkpt>
      <trkpt lat="43.774293009191751" lon="6.257531018927693">
        <ele>946.07000000000005</ele>
        <time>2025-05-18T08:47:21Z</time>
      </trkpt>
      <trkpt lat="43.774340031668544" lon="6.257710978388786">
        <ele>945.11000000000001</ele>
        <time>2025-05-18T08:47:22Z</time>
      </trkpt>
      <trkpt lat="43.774402979761362" lon="6.257867971435189">
        <ele>943.66999999999996</ele>
        <time>2025-05-18T08:47:23Z</time>
      </trkpt>
      <trkpt lat="43.774488978087902" lon="6.258029993623495">
        <ele>942.71000000000004</ele>
        <time>2025-05-18T08:47:24Z</time>
      </trkpt>
      <trkpt lat="43.774583023041487" lon="6.258206013590097">
        <ele>941.75</ele>
        <time>2025-05-18T08:47:25Z</time>
      </trkpt>
      <trkpt lat="43.77506498247385" lon="6.259108996018767">
        <ele>936.94000000000005</ele>
        <time>2025-05-18T08:47:30Z</time>
      </trkpt>
      <trkpt lat="43.775142012163997" lon="6.259252997115254">
        <ele>935.98000000000002</ele>
        <time>2025-05-18T08:47:31Z</time>
      </trkpt>
      <trkpt lat="43.775218036025763" lon="6.259395992383361">
        <ele>935.01999999999998</ele>
        <time>2025-05-18T08:47:32Z</time>
      </trkpt>
      <trkpt lat="43.775261035189033" lon="6.259610988199711">
        <ele>933.58000000000004</ele>
        <time>2025-05-18T08:47:33Z</time>
      </trkpt>
      <trkpt lat="43.775261035189033" lon="6.259717019274831">
        <ele>932.13999999999999</ele>
        <time>2025-05-18T08:47:34Z</time>
      </trkpt>
      <trkpt lat="43.775261035189033" lon="6.259854985401034">
        <ele>930.69000000000005</ele>
        <time>2025-05-18T08:47:35Z</time>
      </trkpt>
      <trkpt lat="43.775261035189033" lon="6.259967973455787">
        <ele>929.73000000000002</ele>
        <time>2025-05-18T08:47:36Z</time>
      </trkpt>
      <trkpt lat="43.775261035189033" lon="6.260057995095849">
        <ele>928.76999999999998</ele>
        <time>2025-05-18T08:47:37Z</time>
      </trkpt>
      <trkpt lat="43.775261035189033" lon="6.260190010070801">
        <ele>927.33000000000004</ele>
        <time>2025-05-18T08:47:38Z</time>
      </trkpt>
      <trkpt lat="43.775267992168665" lon="6.260205013677478">
        <ele>926.85000000000002</ele>
        <time>2025-05-18T08:47:39Z</time>
      </trkpt>
      <trkpt lat="43.775347033515573" lon="6.260362006723881">
        <ele>925.88999999999999</ele>
        <time>2025-05-18T08:47:40Z</time>
      </trkpt>
      <trkpt lat="43.775477036833763" lon="6.260272990912199">
        <ele>925.40999999999997</ele>
        <time>2025-05-18T08:47:41Z</time>
      </trkpt>
      <trkpt lat="43.775468990206718" lon="6.260093031451106">
        <ele>924.92999999999995</ele>
        <time>2025-05-18T08:47:42Z</time>
      </trkpt>
      <trkpt lat="43.775452980771661" lon="6.260014995932579">
        <ele>924.45000000000005</ele>
        <time>2025-05-18T08:47:43Z</time>
      </trkpt>
      <trkpt lat="43.775432026013732" lon="6.25990997068584">
        <ele>924.45000000000005</ele>
        <time>2025-05-18T08:47:44Z</time>
      </trkpt>
      <trkpt lat="43.775410987436771" lon="6.259804023429751">
        <ele>923.96000000000004</ele>
        <time>2025-05-18T08:47:45Z</time>
      </trkpt>
      <trkpt lat="43.775421967729926" lon="6.259665973484516">
        <ele>923.96000000000004</ele>
        <time>2025-05-18T08:47:46Z</time>
      </trkpt>
      <trkpt lat="43.775431020185351" lon="6.259538987651467">
        <ele>923.96000000000004</ele>
        <time>2025-05-18T08:47:47Z</time>
      </trkpt>
      <trkpt lat="43.775477036833763" lon="6.259443014860153">
        <ele>923.96000000000004</ele>
        <time>2025-05-18T08:47:48Z</time>
      </trkpt>
      <trkpt lat="43.775539984926581" lon="6.25932801514864">
        <ele>923.48000000000002</ele>
        <time>2025-05-18T08:47:49Z</time>
      </trkpt>
      <trkpt lat="43.775611985474825" lon="6.259236987680197">
        <ele>923</ele>
        <time>2025-05-18T08:47:50Z</time>
      </trkpt>
      <trkpt lat="43.775693960487843" lon="6.259149983525276">
        <ele>922.51999999999998</ele>
        <time>2025-05-18T08:47:51Z</time>
      </trkpt>
      <trkpt lat="43.776047006249428" lon="6.258784029632807">
        <ele>922.51999999999998</ele>
        <time>2025-05-18T08:47:55Z</time>
      </trkpt>
      <trkpt lat="43.776138033717871" lon="6.25866299495101">
        <ele>922.51999999999998</ele>
        <time>2025-05-18T08:47:56Z</time>
      </trkpt>
      <trkpt lat="43.776219002902508" lon="6.258528968319297">
        <ele>922.51999999999998</ele>
        <time>2025-05-18T08:47:57Z</time>
      </trkpt>
      <trkpt lat="43.776303995400667" lon="6.258386978879571">
        <ele>922.51999999999998</ele>
        <time>2025-05-18T08:47:58Z</time>
      </trkpt>
      <trkpt lat="43.776387982070446" lon="6.258247001096606">
        <ele>922.51999999999998</ele>
        <time>2025-05-18T08:47:59Z</time>
      </trkpt>
      <trkpt lat="43.776469035074115" lon="6.258111968636513">
        <ele>922.03999999999996</ele>
        <time>2025-05-18T08:48:00Z</time>
      </trkpt>
      <trkpt lat="43.776556961238384" lon="6.257972996681929">
        <ele>921.55999999999995</ele>
        <time>2025-05-18T08:48:01Z</time>
      </trkpt>
      <trkpt lat="43.776668021455407" lon="6.257875012233853">
        <ele>920.60000000000002</ele>
        <time>2025-05-18T08:48:02Z</time>
      </trkpt>
      <trkpt lat="43.777550971135497" lon="6.257104966789484">
        <ele>918.67999999999995</ele>
        <time>2025-05-18T08:48:09Z</time>
      </trkpt>
      <trkpt lat="43.777633029967546" lon="6.257033972069621">
        <ele>918.67999999999995</ele>
        <time>2025-05-18T08:48:10Z</time>
      </trkpt>
      <trkpt lat="43.777690026909113" lon="6.256984015926719">
        <ele>919.15999999999997</ele>
        <time>2025-05-18T08:48:11Z</time>
      </trkpt>
      <trkpt lat="43.777729002758861" lon="6.256949985399842">
        <ele>919.63999999999999</ele>
        <time>2025-05-18T08:48:12Z</time>
      </trkpt>
      <trkpt lat="43.777721961960196" lon="6.25692299567163">
        <ele>921.08000000000004</ele>
        <time>2025-05-18T08:48:13Z</time>
      </trkpt>
      <trkpt lat="43.77770503051579" lon="6.256863987073302">
        <ele>923.48000000000002</ele>
        <time>2025-05-18T08:48:14Z</time>
      </trkpt>
      <trkpt lat="43.777638981118798" lon="6.256868010386825">
        <ele>925.88999999999999</ele>
        <time>2025-05-18T08:48:15Z</time>
      </trkpt>
      <trkpt lat="43.777588019147515" lon="6.256918972358108">
        <ele>926.85000000000002</ele>
        <time>2025-05-18T08:48:16Z</time>
      </trkpt>
      <trkpt lat="43.777523981407285" lon="6.256982004269958">
        <ele>927.33000000000004</ele>
        <time>2025-05-18T08:48:17Z</time>
      </trkpt>
      <trkpt lat="43.777448041364551" lon="6.257059033960104">
        <ele>927.33000000000004</ele>
        <time>2025-05-18T08:48:18Z</time>
      </trkpt>
      <trkpt lat="43.77736397087574" lon="6.257143020629883">
        <ele>927.80999999999995</ele>
        <time>2025-05-18T08:48:19Z</time>
      </trkpt>
      <trkpt lat="43.777261041104794" lon="6.257190965116024">
        <ele>927.80999999999995</ele>
        <time>2025-05-18T08:48:20Z</time>
      </trkpt>
      <trkpt lat="43.776441039517522" lon="6.257572006434202">
        <ele>924.45000000000005</ele>
        <time>2025-05-18T08:48:26Z</time>
      </trkpt>
      <trkpt lat="43.776311036199331" lon="6.257655993103981">
        <ele>923.48000000000002</ele>
        <time>2025-05-18T08:48:27Z</time>
      </trkpt>
      <trkpt lat="43.776046000421047" lon="6.2578259781003">
        <ele>922.03999999999996</ele>
        <time>2025-05-18T08:48:29Z</time>
      </trkpt>
      <trkpt lat="43.775936029851437" lon="6.257896972820163">
        <ele>921.08000000000004</ele>
        <time>2025-05-18T08:48:30Z</time>
      </trkpt>
      <trkpt lat="43.775851959362626" lon="6.257951036095619">
        <ele>920.12</ele>
        <time>2025-05-18T08:48:31Z</time>
      </trkpt>
      <trkpt lat="43.775774007663131" lon="6.257920023053885">
        <ele>918.67999999999995</ele>
        <time>2025-05-18T08:48:32Z</time>
      </trkpt>
      <trkpt lat="43.775681974366307" lon="6.257851039990783">
        <ele>917.72000000000003</ele>
        <time>2025-05-18T08:48:33Z</time>
      </trkpt>
      <trkpt lat="43.775636963546276" lon="6.257731011137366">
        <ele>916.26999999999998</ele>
        <time>2025-05-18T08:48:34Z</time>
      </trkpt>
      <trkpt lat="43.775582984089851" lon="6.25758801586926">
        <ele>915.30999999999995</ele>
        <time>2025-05-18T08:48:35Z</time>
      </trkpt>
      <trkpt lat="43.775518024340272" lon="6.25745901837945">
        <ele>913.87</ele>
        <time>2025-05-18T08:48:36Z</time>
      </trkpt>
      <trkpt lat="43.775431020185351" lon="6.257316023111343">
        <ele>912.42999999999995</ele>
        <time>2025-05-18T08:48:37Z</time>
      </trkpt>
      <trkpt lat="43.775324989110231" lon="6.257143020629883">
        <ele>910.99000000000001</ele>
        <time>2025-05-18T08:48:38Z</time>
      </trkpt>
      <trkpt lat="43.775281989946961" lon="6.256947973743081">
        <ele>909.53999999999996</ele>
        <time>2025-05-18T08:48:39Z</time>
      </trkpt>
      <trkpt lat="43.77527603879571" lon="6.256772037595511">
        <ele>908.10000000000002</ele>
        <time>2025-05-18T08:48:40Z</time>
      </trkpt>
      <trkpt lat="43.775270003825426" lon="6.256582019850612">
        <ele>906.65999999999997</ele>
        <time>2025-05-18T08:48:41Z</time>
      </trkpt>
      <trkpt lat="43.775262963026762" lon="6.256374986842275">
        <ele>905.22000000000003</ele>
        <time>2025-05-18T08:48:42Z</time>
      </trkpt>
      <trkpt lat="43.77523697912693" lon="6.256172982975841">
        <ele>903.77999999999997</ele>
        <time>2025-05-18T08:48:43Z</time>
      </trkpt>
      <trkpt lat="43.775201020762324" lon="6.255948012694717">
        <ele>902.33000000000004</ele>
        <time>2025-05-18T08:48:44Z</time>
      </trkpt>
      <trkpt lat="43.775137988850474" lon="6.255550039932132">
        <ele>898.97000000000003</ele>
        <time>2025-05-18T08:48:46Z</time>
      </trkpt>
      <trkpt lat="43.775153998285532" lon="6.255362033843994">
        <ele>897.52999999999997</ele>
        <time>2025-05-18T08:48:47Z</time>
      </trkpt>
      <trkpt lat="43.775212001055479" lon="6.255214009433985">
        <ele>896.09000000000003</ele>
        <time>2025-05-18T08:48:48Z</time>
      </trkpt>
      <trkpt lat="43.775268997997046" lon="6.255069002509117">
        <ele>895.61000000000001</ele>
        <time>2025-05-18T08:48:49Z</time>
      </trkpt>
      <trkpt lat="43.775334041565657" lon="6.25490396283567">
        <ele>894.63999999999999</ele>
        <time>2025-05-18T08:48:50Z</time>
      </trkpt>
      <trkpt lat="43.775395983830094" lon="6.254725009202957">
        <ele>893.20000000000005</ele>
        <time>2025-05-18T08:48:51Z</time>
      </trkpt>
      <trkpt lat="43.775435965508223" lon="6.25451403670013">
        <ele>891.27999999999997</ele>
        <time>2025-05-18T08:48:52Z</time>
      </trkpt>
      <trkpt lat="43.775475025177002" lon="6.254304992035031">
        <ele>889.84000000000003</ele>
        <time>2025-05-18T08:48:53Z</time>
      </trkpt>
      <trkpt lat="43.775518024340272" lon="6.254074992612004">
        <ele>888.88</ele>
        <time>2025-05-18T08:48:54Z</time>
      </trkpt>
      <trkpt lat="43.775607962161303" lon="6.253884974867106">
        <ele>888.39999999999998</ele>
        <time>2025-05-18T08:48:55Z</time>
      </trkpt>
      <trkpt lat="43.776110038161278" lon="6.252770014107227">
        <ele>882.63</ele>
        <time>2025-05-18T08:49:00Z</time>
      </trkpt>
      <trkpt lat="43.776199975982308" lon="6.252535991370678">
        <ele>881.66999999999996</ele>
        <time>2025-05-18T08:49:01Z</time>
      </trkpt>
      <trkpt lat="43.776277005672455" lon="6.252310015261173">
        <ele>880.22000000000003</ele>
        <time>2025-05-18T08:49:02Z</time>
      </trkpt>
      <trkpt lat="43.776314975693822" lon="6.252064006403089">
        <ele>878.77999999999997</ele>
        <time>2025-05-18T08:49:03Z</time>
      </trkpt>
      <trkpt lat="43.776354035362601" lon="6.251815985888243">
        <ele>877.82000000000005</ele>
        <time>2025-05-18T08:49:04Z</time>
      </trkpt>
      <trkpt lat="43.776383958756924" lon="6.251558996737003">
        <ele>876.38</ele>
        <time>2025-05-18T08:49:05Z</time>
      </trkpt>
      <trkpt lat="43.77650298178196" lon="6.250340016558766">
        <ele>869.16999999999996</ele>
        <time>2025-05-18T08:49:10Z</time>
      </trkpt>
      <trkpt lat="43.776582023128867" lon="6.250151004642248">
        <ele>868.21000000000004</ele>
        <time>2025-05-18T08:49:11Z</time>
      </trkpt>
      <trkpt lat="43.777092983946204" lon="6.248971000313759">
        <ele>859.55999999999995</ele>
        <time>2025-05-18T08:49:17Z</time>
      </trkpt>
      <trkpt lat="43.777139000594616" lon="6.248777965083718">
        <ele>858.11000000000001</ele>
        <time>2025-05-18T08:49:18Z</time>
      </trkpt>
      <trkpt lat="43.777161967009306" lon="6.248572021722794">
        <ele>856.19000000000005</ele>
        <time>2025-05-18T08:49:19Z</time>
      </trkpt>
      <trkpt lat="43.777140006422997" lon="6.248380998149514">
        <ele>854.75</ele>
        <time>2025-05-18T08:49:20Z</time>
      </trkpt>
      <trkpt lat="43.777099018916488" lon="6.248211013153195">
        <ele>852.83000000000004</ele>
        <time>2025-05-18T08:49:21Z</time>
      </trkpt>
      <trkpt lat="43.777031963691115" lon="6.24804899096489">
        <ele>851.87</ele>
        <time>2025-05-18T08:49:22Z</time>
      </trkpt>
      <trkpt lat="43.776964992284775" lon="6.24790096655488">
        <ele>850.89999999999998</ele>
        <time>2025-05-18T08:49:23Z</time>
      </trkpt>
      <trkpt lat="43.776863990351558" lon="6.24777096323669">
        <ele>849.46000000000004</ele>
        <time>2025-05-18T08:49:24Z</time>
      </trkpt>
      <trkpt lat="43.776753013953567" lon="6.247627967968583">
        <ele>848.01999999999998</ele>
        <time>2025-05-18T08:49:25Z</time>
      </trkpt>
      <trkpt lat="43.776633990928531" lon="6.247474998235703">
        <ele>846.58000000000004</ele>
        <time>2025-05-18T08:49:26Z</time>
      </trkpt>
      <trkpt lat="43.776513040065765" lon="6.247320016846061">
        <ele>845.13999999999999</ele>
        <time>2025-05-18T08:49:27Z</time>
      </trkpt>
      <trkpt lat="43.775933012366295" lon="6.246534967795014">
        <ele>839.37</ele>
        <time>2025-05-18T08:49:32Z</time>
      </trkpt>
      <trkpt lat="43.77588196657598" lon="6.24637302942574">
        <ele>837.92999999999995</ele>
        <time>2025-05-18T08:49:33Z</time>
      </trkpt>
      <trkpt lat="43.77587903290987" lon="6.246217964217067">
        <ele>836.96000000000004</ele>
        <time>2025-05-18T08:49:34Z</time>
      </trkpt>
      <trkpt lat="43.775877021253109" lon="6.246073041111231">
        <ele>836.48000000000002</ele>
        <time>2025-05-18T08:49:35Z</time>
      </trkpt>
      <trkpt lat="43.775874003767967" lon="6.245933985337615">
        <ele>836</ele>
        <time>2025-05-18T08:49:36Z</time>
      </trkpt>
      <trkpt lat="43.775871992111206" lon="6.245787972584367">
        <ele>836</ele>
        <time>2025-05-18T08:49:37Z</time>
      </trkpt>
      <trkpt lat="43.77590099349618" lon="6.245009964331985">
        <ele>834.08000000000004</ele>
        <time>2025-05-18T08:49:42Z</time>
      </trkpt>
      <trkpt lat="43.775927983224392" lon="6.244859006255865">
        <ele>833.60000000000002</ele>
        <time>2025-05-18T08:49:43Z</time>
      </trkpt>
      <trkpt lat="43.775985985994339" lon="6.244607968255878">
        <ele>831.67999999999995</ele>
        <time>2025-05-18T08:49:45Z</time>
      </trkpt>
      <trkpt lat="43.775972994044423" lon="6.244519036263228">
        <ele>830.72000000000003</ele>
        <time>2025-05-18T08:49:46Z</time>
      </trkpt>
      <trkpt lat="43.775923037901521" lon="6.244470002129674">
        <ele>829.75999999999999</ele>
        <time>2025-05-18T08:49:47Z</time>
      </trkpt>
      <trkpt lat="43.775851037353277" lon="6.2444410007447">
        <ele>828.78999999999996</ele>
        <time>2025-05-18T08:49:48Z</time>
      </trkpt>
      <trkpt lat="43.775760009884834" lon="6.244443012401462">
        <ele>827.83000000000004</ele>
        <time>2025-05-18T08:49:49Z</time>
      </trkpt>
      <trkpt lat="43.774860966950655" lon="6.244415016844869">
        <ele>821.10000000000002</ele>
        <time>2025-05-18T08:49:56Z</time>
      </trkpt>
      <trkpt lat="43.774723000824451" lon="6.244376040995121">
        <ele>820.62</ele>
        <time>2025-05-18T08:49:57Z</time>
      </trkpt>
      <trkpt lat="43.774584028869867" lon="6.244335975497961">
        <ele>819.65999999999997</ele>
        <time>2025-05-18T08:49:58Z</time>
      </trkpt>
      <trkpt lat="43.77444296143949" lon="6.244294987991452">
        <ele>818.70000000000005</ele>
        <time>2025-05-18T08:49:59Z</time>
      </trkpt>
      <trkpt lat="43.774020010605454" lon="6.244174037128687">
        <ele>815.82000000000005</ele>
        <time>2025-05-18T08:50:02Z</time>
      </trkpt>
      <trkpt lat="43.773226998746395" lon="6.243843035772443">
        <ele>808.61000000000001</ele>
        <time>2025-05-18T08:50:08Z</time>
      </trkpt>
      <trkpt lat="43.773113004863262" lon="6.243848986923695">
        <ele>807.63999999999999</ele>
        <time>2025-05-18T08:50:09Z</time>
      </trkpt>
      <trkpt lat="43.772901026532054" lon="6.24386097304523">
        <ele>805.24000000000001</ele>
        <time>2025-05-18T08:50:11Z</time>
      </trkpt>
      <trkpt lat="43.772788038477302" lon="6.243789978325367">
        <ele>803.79999999999995</ele>
        <time>2025-05-18T08:50:12Z</time>
      </trkpt>
      <trkpt lat="43.772684019058943" lon="6.243726024404168">
        <ele>803.32000000000005</ele>
        <time>2025-05-18T08:50:13Z</time>
      </trkpt>
      <trkpt lat="43.772583017125726" lon="6.243661986663938">
        <ele>802.36000000000001</ele>
        <time>2025-05-18T08:50:14Z</time>
      </trkpt>
      <trkpt lat="43.772486038506031" lon="6.243657963350415">
        <ele>801.39999999999998</ele>
        <time>2025-05-18T08:50:15Z</time>
      </trkpt>
      <trkpt lat="43.772402973845601" lon="6.243671961128712">
        <ele>799.95000000000005</ele>
        <time>2025-05-18T08:50:16Z</time>
      </trkpt>
      <trkpt lat="43.772331979125738" lon="6.243684031069279">
        <ele>798.99000000000001</ele>
        <time>2025-05-18T08:50:17Z</time>
      </trkpt>
      <trkpt lat="43.77227196469903" lon="6.243694005534053">
        <ele>798.50999999999999</ele>
        <time>2025-05-18T08:50:18Z</time>
      </trkpt>
      <trkpt lat="43.771982034668326" lon="6.243639020249248">
        <ele>792.74000000000001</ele>
        <time>2025-05-18T08:50:26Z</time>
      </trkpt>
      <trkpt lat="43.771982034668326" lon="6.243639020249248">
        <ele>791.77999999999997</ele>
        <time>2025-05-18T08:50:35Z</time>
      </trkpt>
      <trkpt lat="43.771982034668326" lon="6.243639020249248">
        <ele>791.29999999999995</ele>
        <time>2025-05-18T08:51:19Z</time>
      </trkpt>
      <trkpt lat="43.771982034668326" lon="6.243639020249248">
        <ele>789.86000000000001</ele>
        <time>2025-05-18T08:51:38Z</time>
      </trkpt>
      <trkpt lat="43.771953033283353" lon="6.243634996935725">
        <ele>789.86000000000001</ele>
        <time>2025-05-18T08:51:53Z</time>
      </trkpt>
      <trkpt lat="43.771952027454972" lon="6.243634996935725">
        <ele>789.86000000000001</ele>
        <time>2025-05-18T08:51:54Z</time>
      </trkpt>
      <trkpt lat="43.772041965276003" lon="6.243637008592486">
        <ele>789.86000000000001</ele>
        <time>2025-05-18T08:51:55Z</time>
      </trkpt>
      <trkpt lat="43.772041965276003" lon="6.24355997890234">
        <ele>789.86000000000001</ele>
        <time>2025-05-18T08:52:09Z</time>
      </trkpt>
      <trkpt lat="43.772041965276003" lon="6.24355997890234">
        <ele>789.86000000000001</ele>
        <time>2025-05-18T08:52:10Z</time>
      </trkpt>
      <trkpt lat="43.772075995802879" lon="6.243511028587818">
        <ele>789.86000000000001</ele>
        <time>2025-05-18T08:52:11Z</time>
      </trkpt>
      <trkpt lat="43.772620987147093" lon="6.243094028905034">
        <ele>787.46000000000004</ele>
        <time>2025-05-18T08:52:17Z</time>
      </trkpt>
      <trkpt lat="43.772731041535735" lon="6.243055975064635">
        <ele>786.01999999999998</ele>
        <time>2025-05-18T08:52:18Z</time>
      </trkpt>
      <trkpt lat="43.773274021223187" lon="6.242917003110051">
        <ele>782.64999999999998</ele>
        <time>2025-05-18T08:52:23Z</time>
      </trkpt>
      <trkpt lat="43.773369994014502" lon="6.242917003110051">
        <ele>782.16999999999996</ele>
        <time>2025-05-18T08:52:24Z</time>
      </trkpt>
      <trkpt lat="43.774001989513636" lon="6.243027979508042">
        <ele>778.80999999999995</ele>
        <time>2025-05-18T08:52:31Z</time>
      </trkpt>
      <trkpt lat="43.774355035275221" lon="6.243095034733415">
        <ele>777.84000000000003</ele>
        <time>2025-05-18T08:52:35Z</time>
      </trkpt>
      <trkpt lat="43.774425024166703" lon="6.243106015026569">
        <ele>777.36000000000001</ele>
        <time>2025-05-18T08:52:36Z</time>
      </trkpt>
      <trkpt lat="43.774499036371708" lon="6.243115989491344">
        <ele>776.88</ele>
        <time>2025-05-18T08:52:37Z</time>
      </trkpt>
      <trkpt lat="43.774975966662169" lon="6.243198970332742">
        <ele>775.91999999999996</ele>
        <time>2025-05-18T08:52:44Z</time>
      </trkpt>
      <trkpt lat="43.775032041594386" lon="6.243213973939419">
        <ele>775.91999999999996</ele>
        <time>2025-05-18T08:52:45Z</time>
      </trkpt>
      <trkpt lat="43.775196997448802" lon="6.243259990587831">
        <ele>775.91999999999996</ele>
        <time>2025-05-18T08:52:48Z</time>
      </trkpt>
      <trkpt lat="43.77523597329855" lon="6.243254039436579">
        <ele>775.91999999999996</ele>
        <time>2025-05-18T08:52:49Z</time>
      </trkpt>
      <trkpt lat="43.775284001603723" lon="6.243248004466295">
        <ele>776.39999999999998</ele>
        <time>2025-05-18T08:52:50Z</time>
      </trkpt>
      <trkpt lat="43.775395983830094" lon="6.243230989202857">
        <ele>776.39999999999998</ele>
        <time>2025-05-18T08:52:52Z</time>
      </trkpt>
      <trkpt lat="43.775506038218737" lon="6.243243981152773">
        <ele>776.88</ele>
        <time>2025-05-18T08:52:57Z</time>
      </trkpt>
      <trkpt lat="43.775560017675161" lon="6.243196036666632">
        <ele>776.39999999999998</ele>
        <time>2025-05-18T08:52:58Z</time>
      </trkpt>
      <trkpt lat="43.775560017675161" lon="6.243196036666632">
        <ele>776.88</ele>
        <time>2025-05-18T08:53:11Z</time>
      </trkpt>
      <trkpt lat="43.775564962998033" lon="6.243195030838251">
        <ele>776.88</ele>
        <time>2025-05-18T08:53:22Z</time>
      </trkpt>
      <trkpt lat="43.775547025725245" lon="6.243199976161122">
        <ele>779.28999999999996</ele>
        <time>2025-05-18T08:53:23Z</time>
      </trkpt>
      <trkpt lat="43.775497991591692" lon="6.243221014738083">
        <ele>780.73000000000002</ele>
        <time>2025-05-18T08:53:24Z</time>
      </trkpt>
      <trkpt lat="43.775288024917245" lon="6.243246998637915">
        <ele>784.09000000000003</ele>
        <time>2025-05-18T08:53:28Z</time>
      </trkpt>
      <trkpt lat="43.775055008009076" lon="6.243221014738083">
        <ele>785.52999999999997</ele>
        <time>2025-05-18T08:53:35Z</time>
      </trkpt>
      <trkpt lat="43.775030029937625" lon="6.243213973939419">
        <ele>785.52999999999997</ele>
        <time>2025-05-18T08:53:36Z</time>
      </trkpt>
      <trkpt lat="43.774949982762337" lon="6.243191007524729">
        <ele>785.04999999999995</ele>
        <time>2025-05-18T08:53:45Z</time>
      </trkpt>
      <trkpt lat="43.774918969720602" lon="6.243182960897684">
        <ele>785.04999999999995</ele>
        <time>2025-05-18T08:53:49Z</time>
      </trkpt>
      <trkpt lat="43.774727024137974" lon="6.243142979219556">
        <ele>784.09000000000003</ele>
        <time>2025-05-18T08:53:59Z</time>
      </trkpt>
      <trkpt lat="43.774709003046155" lon="6.243140967562795">
        <ele>784.57000000000005</ele>
        <time>2025-05-18T08:54:00Z</time>
      </trkpt>
      <trkpt lat="43.774686036631465" lon="6.243138033896685">
        <ele>784.57000000000005</ele>
        <time>2025-05-18T08:54:01Z</time>
      </trkpt>
      <trkpt lat="43.774667009711266" lon="6.243136022239924">
        <ele>784.57000000000005</ele>
        <time>2025-05-18T08:54:02Z</time>
      </trkpt>
      <trkpt lat="43.774648988619447" lon="6.243134010583162">
        <ele>785.04999999999995</ele>
        <time>2025-05-18T08:54:03Z</time>
      </trkpt>
      <trkpt lat="43.774648988619447" lon="6.243134010583162">
        <ele>785.04999999999995</ele>
        <time>2025-05-18T08:54:17Z</time>
      </trkpt>
      <trkpt lat="43.774560978636146" lon="6.243144990876317">
        <ele>789.86000000000001</ele>
        <time>2025-05-18T09:44:54Z</time>
      </trkpt>
      <trkpt lat="43.77461101859808" lon="6.243088999763131">
        <ele>771.60000000000002</ele>
        <time>2025-05-18T09:45:37Z</time>
      </trkpt>
      <trkpt lat="43.774585034698248" lon="6.243139039725065">
        <ele>788.41999999999996</ele>
        <time>2025-05-18T09:46:26Z</time>
      </trkpt>
      <trkpt lat="43.774584028869867" lon="6.243136022239924">
        <ele>792.25999999999999</ele>
        <time>2025-05-18T09:47:28Z</time>
      </trkpt>
      <trkpt lat="43.774584028869867" lon="6.24312998726964">
        <ele>792.25999999999999</ele>
        <time>2025-05-18T09:47:58Z</time>
      </trkpt>
      <trkpt lat="43.774546980857849" lon="6.243122024461627">
        <ele>792.74000000000001</ele>
        <time>2025-05-18T09:48:01Z</time>
      </trkpt>
      <trkpt lat="43.774512028321624" lon="6.243118001148105">
        <ele>792.74000000000001</ele>
        <time>2025-05-18T09:48:02Z</time>
      </trkpt>
      <trkpt lat="43.77446198835969" lon="6.243111966177821">
        <ele>792.74000000000001</ele>
        <time>2025-05-18T09:48:03Z</time>
      </trkpt>
      <trkpt lat="43.774401973932981" lon="6.243102997541428">
        <ele>792.25999999999999</ele>
        <time>2025-05-18T09:48:04Z</time>
      </trkpt>
      <trkpt lat="43.774149008095264" lon="6.243058992549777">
        <ele>791.29999999999995</ele>
        <time>2025-05-18T09:48:08Z</time>
      </trkpt>
      <trkpt lat="43.774087987840176" lon="6.243046000599861">
        <ele>791.29999999999995</ele>
        <time>2025-05-18T09:48:09Z</time>
      </trkpt>
      <trkpt lat="43.773950021713972" lon="6.243016999214888">
        <ele>790.34000000000003</ele>
        <time>2025-05-18T09:48:11Z</time>
      </trkpt>
      <trkpt lat="43.773743994534016" lon="6.242970982566476">
        <ele>789.38</ele>
        <time>2025-05-18T09:48:14Z</time>
      </trkpt>
      <trkpt lat="43.773677023127675" lon="6.242952961474657">
        <ele>788.89999999999998</ele>
        <time>2025-05-18T09:48:15Z</time>
      </trkpt>
      <trkpt lat="43.77338700927794" lon="6.242917003110051">
        <ele>788.89999999999998</ele>
        <time>2025-05-18T09:48:19Z</time>
      </trkpt>
      <trkpt lat="43.77315198071301" lon="6.242929995059967">
        <ele>787.46000000000004</ele>
        <time>2025-05-18T09:48:22Z</time>
      </trkpt>
      <trkpt lat="43.772598020732403" lon="6.243101991713047">
        <ele>782.16999999999996</ele>
        <time>2025-05-18T09:48:30Z</time>
      </trkpt>
      <trkpt lat="43.772548986598849" lon="6.243119006976485">
        <ele>781.69000000000005</ele>
        <time>2025-05-18T09:48:31Z</time>
      </trkpt>
      <trkpt lat="43.772503975778818" lon="6.243139039725065">
        <ele>781.21000000000004</ele>
        <time>2025-05-18T09:48:32Z</time>
      </trkpt>
      <trkpt lat="43.772461982443929" lon="6.243171980604529">
        <ele>781.21000000000004</ele>
        <time>2025-05-18T09:48:33Z</time>
      </trkpt>
      <trkpt lat="43.77218596637249" lon="6.243386976420879">
        <ele>781.69000000000005</ele>
        <time>2025-05-18T09:48:39Z</time>
      </trkpt>
      <trkpt lat="43.772041965276003" lon="6.243573976680636">
        <ele>782.16999999999996</ele>
        <time>2025-05-18T09:48:45Z</time>
      </trkpt>
      <trkpt lat="43.772041965276003" lon="6.24360297806561">
        <ele>782.16999999999996</ele>
        <time>2025-05-18T09:48:46Z</time>
      </trkpt>
      <trkpt lat="43.772041965276003" lon="6.24364597722888">
        <ele>781.69000000000005</ele>
        <time>2025-05-18T09:48:47Z</time>
      </trkpt>
      <trkpt lat="43.772041965276003" lon="6.24364597722888">
        <ele>781.69000000000005</ele>
        <time>2025-05-18T09:48:48Z</time>
      </trkpt>
      <trkpt lat="43.772041965276003" lon="6.24364597722888">
        <ele>782.16999999999996</ele>
        <time>2025-05-18T09:48:49Z</time>
      </trkpt>
      <trkpt lat="43.772042971104383" lon="6.243558973073959">
        <ele>782.16999999999996</ele>
        <time>2025-05-18T09:48:50Z</time>
      </trkpt>
      <trkpt lat="43.772082030773163" lon="6.243500970304012">
        <ele>781.69000000000005</ele>
        <time>2025-05-18T09:48:51Z</time>
      </trkpt>
      <trkpt lat="43.772126035764813" lon="6.243433998897672">
        <ele>781.69000000000005</ele>
        <time>2025-05-18T09:48:52Z</time>
      </trkpt>
      <trkpt lat="43.772188983857632" lon="6.243383958935738">
        <ele>781.21000000000004</ele>
        <time>2025-05-18T09:48:53Z</time>
      </trkpt>
      <trkpt lat="43.772258972749114" lon="6.243329979479313">
        <ele>780.73000000000002</ele>
        <time>2025-05-18T09:48:54Z</time>
      </trkpt>
      <trkpt lat="43.77233600243926" lon="6.243269965052605">
        <ele>780.73000000000002</ele>
        <time>2025-05-18T09:48:55Z</time>
      </trkpt>
      <trkpt lat="43.772694999352098" lon="6.243068967014551">
        <ele>777.84000000000003</ele>
        <time>2025-05-18T09:48:59Z</time>
      </trkpt>
      <trkpt lat="43.77278602682054" lon="6.243037031963468">
        <ele>776.39999999999998</ele>
        <time>2025-05-18T09:49:00Z</time>
      </trkpt>
      <trkpt lat="43.773320959880948" lon="6.242917003110051">
        <ele>768.71000000000004</ele>
        <time>2025-05-18T09:49:06Z</time>
      </trkpt>
      <trkpt lat="43.773407964035869" lon="6.242917003110051">
        <ele>767.75</ele>
        <time>2025-05-18T09:49:07Z</time>
      </trkpt>
      <trkpt lat="43.773592030629516" lon="6.242929995059967">
        <ele>764.87</ele>
        <time>2025-05-18T09:49:09Z</time>
      </trkpt>
      <trkpt lat="43.773681968450546" lon="6.242953967303038">
        <ele>763.41999999999996</ele>
        <time>2025-05-18T09:49:10Z</time>
      </trkpt>
      <trkpt lat="43.773765033110976" lon="6.242977017536759">
        <ele>761.5</ele>
        <time>2025-05-18T09:49:11Z</time>
      </trkpt>
      <trkpt lat="43.774150013923645" lon="6.243058992549777">
        <ele>752.37</ele>
        <time>2025-05-18T09:49:17Z</time>
      </trkpt>
      <trkpt lat="43.774256967008114" lon="6.243078019469976">
        <ele>748.03999999999996</ele>
        <time>2025-05-18T09:49:20Z</time>
      </trkpt>
      <trkpt lat="43.774302983656526" lon="6.243085982277989">
        <ele>746.60000000000002</ele>
        <time>2025-05-18T09:49:21Z</time>
      </trkpt>
      <trkpt lat="43.774464000016451" lon="6.243111966177821">
        <ele>742.27999999999997</ele>
        <time>2025-05-18T09:49:24Z</time>
      </trkpt>
      <trkpt lat="43.77452602609992" lon="6.243119006976485">
        <ele>740.83000000000004</ele>
        <time>2025-05-18T09:49:25Z</time>
      </trkpt>
      <trkpt lat="43.774648988619447" lon="6.243133004754782">
        <ele>738.90999999999997</ele>
        <time>2025-05-18T09:49:27Z</time>
      </trkpt>
      <trkpt lat="43.774707997217774" lon="6.243140967562795">
        <ele>737.95000000000005</ele>
        <time>2025-05-18T09:49:28Z</time>
      </trkpt>
      <trkpt lat="43.774761976674199" lon="6.243147002533078">
        <ele>736.50999999999999</ele>
        <time>2025-05-18T09:49:29Z</time>
      </trkpt>
      <trkpt lat="43.775033969432116" lon="6.243214979767799">
        <ele>732.17999999999995</ele>
        <time>2025-05-18T09:49:34Z</time>
      </trkpt>
      <trkpt lat="43.775102030485868" lon="6.243234006687999">
        <ele>731.22000000000003</ele>
        <time>2025-05-18T09:49:35Z</time>
      </trkpt>
      <trkpt lat="43.775196997448802" lon="6.243259990587831">
        <ele>729.77999999999997</ele>
        <time>2025-05-18T09:49:36Z</time>
      </trkpt>
      <trkpt lat="43.775265980511904" lon="6.243250016123056">
        <ele>728.82000000000005</ele>
        <time>2025-05-18T09:49:37Z</time>
      </trkpt>
      <trkpt lat="43.77534200437367" lon="6.243239035829902">
        <ele>728.34000000000003</ele>
        <time>2025-05-18T09:49:38Z</time>
      </trkpt>
      <trkpt lat="43.775673005729914" lon="6.243157982826233">
        <ele>724.49000000000001</ele>
        <time>2025-05-18T09:49:43Z</time>
      </trkpt>
      <trkpt lat="43.776052035391331" lon="6.242996966466308">
        <ele>719.20000000000005</ele>
        <time>2025-05-18T09:49:49Z</time>
      </trkpt>
      <trkpt lat="43.776106014847755" lon="6.242968970909715">
        <ele>718.24000000000001</ele>
        <time>2025-05-18T09:49:50Z</time>
      </trkpt>
      <trkpt lat="43.7762660253793" lon="6.242885990068317">
        <ele>716.32000000000005</ele>
        <time>2025-05-18T09:49:53Z</time>
      </trkpt>
      <trkpt lat="43.776316987350583" lon="6.242861011996865">
        <ele>715.84000000000003</ele>
        <time>2025-05-18T09:49:54Z</time>
      </trkpt>
      <trkpt lat="43.776402985677123" lon="6.242764033377171">
        <ele>715.36000000000001</ele>
        <time>2025-05-18T09:49:55Z</time>
      </trkpt>
      <trkpt lat="43.776421006768942" lon="6.24272002838552">
        <ele>718.24000000000001</ele>
        <time>2025-05-18T09:49:56Z</time>
      </trkpt>
      <trkpt lat="43.776424024254084" lon="6.242582984268665">
        <ele>717.75999999999999</ele>
        <time>2025-05-18T09:49:57Z</time>
      </trkpt>
      <trkpt lat="43.776412038132548" lon="6.242525987327099">
        <ele>719.20000000000005</ele>
        <time>2025-05-18T09:49:58Z</time>
      </trkpt>
      <trkpt lat="43.776377001777291" lon="6.242452980950475">
        <ele>720.64999999999998</ele>
        <time>2025-05-18T09:49:59Z</time>
      </trkpt>
      <trkpt lat="43.776340037584305" lon="6.242431020364165">
        <ele>721.61000000000001</ele>
        <time>2025-05-18T09:50:00Z</time>
      </trkpt>
      <trkpt lat="43.776299972087145" lon="6.242406964302063">
        <ele>722.09000000000003</ele>
        <time>2025-05-18T09:50:01Z</time>
      </trkpt>
      <trkpt lat="43.776240963488817" lon="6.242428002879024">
        <ele>722.57000000000005</ele>
        <time>2025-05-18T09:50:02Z</time>
      </trkpt>
      <trkpt lat="43.776186984032393" lon="6.242455998435617">
        <ele>723.52999999999997</ele>
        <time>2025-05-18T09:50:03Z</time>
      </trkpt>
      <trkpt lat="43.776134010404348" lon="6.242483993992209">
        <ele>724.97000000000003</ele>
        <time>2025-05-18T09:50:04Z</time>
      </trkpt>
      <trkpt lat="43.775839973241091" lon="6.242637969553471">
        <ele>730.25999999999999</ele>
        <time>2025-05-18T09:50:09Z</time>
      </trkpt>
      <trkpt lat="43.775789011269808" lon="6.242652973160148">
        <ele>731.70000000000005</ele>
        <time>2025-05-18T09:50:10Z</time>
      </trkpt>
      <trkpt lat="43.77573000267148" lon="6.242670994251967">
        <ele>732.17999999999995</ele>
        <time>2025-05-18T09:50:11Z</time>
      </trkpt>
      <trkpt lat="43.775668982416391" lon="6.242689015343785">
        <ele>732.65999999999997</ele>
        <time>2025-05-18T09:50:12Z</time>
      </trkpt>
      <trkpt lat="43.775605028495193" lon="6.242702007293701">
        <ele>732.65999999999997</ele>
        <time>2025-05-18T09:50:13Z</time>
      </trkpt>
      <trkpt lat="43.775203032419086" lon="6.242693038657308">
        <ele>733.13999999999999</ele>
        <time>2025-05-18T09:50:19Z</time>
      </trkpt>
      <trkpt lat="43.775138994678855" lon="6.242687003687024">
        <ele>733.62</ele>
        <time>2025-05-18T09:50:20Z</time>
      </trkpt>
      <trkpt lat="43.775056013837457" lon="6.242663031443954">
        <ele>733.62</ele>
        <time>2025-05-18T09:50:21Z</time>
      </trkpt>
      <trkpt lat="43.775005973875523" lon="6.242592958733439">
        <ele>733.62</ele>
        <time>2025-05-18T09:50:22Z</time>
      </trkpt>
      <trkpt lat="43.774953000247478" lon="6.242491034790874">
        <ele>733.13999999999999</ele>
        <time>2025-05-18T09:50:23Z</time>
      </trkpt>
      <trkpt lat="43.774931039661169" lon="6.242381986230612">
        <ele>733.13999999999999</ele>
        <time>2025-05-18T09:50:24Z</time>
      </trkpt>
      <trkpt lat="43.774914024397731" lon="6.242290958762169">
        <ele>736.02999999999997</ele>
        <time>2025-05-18T09:50:25Z</time>
      </trkpt>
      <trkpt lat="43.774899020791054" lon="6.242188028991222">
        <ele>737.95000000000005</ele>
        <time>2025-05-18T09:50:26Z</time>
      </trkpt>
      <trkpt lat="43.774906983599067" lon="6.242070011794567">
        <ele>739.38999999999999</ele>
        <time>2025-05-18T09:50:27Z</time>
      </trkpt>
      <trkpt lat="43.774937996640801" lon="6.241787038743496">
        <ele>742.75999999999999</ele>
        <time>2025-05-18T09:50:30Z</time>
      </trkpt>
      <trkpt lat="43.774972027167678" lon="6.241698022931814">
        <ele>744.67999999999995</ele>
        <time>2025-05-18T09:50:31Z</time>
      </trkpt>
      <trkpt lat="43.775005973875523" lon="6.241613030433655">
        <ele>745.63999999999999</ele>
        <time>2025-05-18T09:50:32Z</time>
      </trkpt>
      <trkpt lat="43.775099013000727" lon="6.241310024634004">
        <ele>746.60000000000002</ele>
        <time>2025-05-18T09:50:35Z</time>
      </trkpt>
      <trkpt lat="43.775121979415417" lon="6.241206005215645">
        <ele>748.51999999999998</ele>
        <time>2025-05-18T09:50:36Z</time>
      </trkpt>
      <trkpt lat="43.775114016607404" lon="6.241084970533848">
        <ele>750.45000000000005</ele>
        <time>2025-05-18T09:50:37Z</time>
      </trkpt>
      <trkpt lat="43.775083003565669" lon="6.24095899052918">
        <ele>750.45000000000005</ele>
        <time>2025-05-18T09:50:38Z</time>
      </trkpt>
      <trkpt lat="43.775049978867173" lon="6.240828987210989">
        <ele>750.92999999999995</ele>
        <time>2025-05-18T09:50:39Z</time>
      </trkpt>
      <trkpt lat="43.775016032159328" lon="6.240691021084786">
        <ele>750.92999999999995</ele>
        <time>2025-05-18T09:50:40Z</time>
      </trkpt>
      <trkpt lat="43.774982001632452" lon="6.240555988624692">
        <ele>750.92999999999995</ele>
        <time>2025-05-18T09:50:41Z</time>
      </trkpt>
      <trkpt lat="43.774990970268846" lon="6.240450963377953">
        <ele>750.45000000000005</ele>
        <time>2025-05-18T09:50:42Z</time>
      </trkpt>
      <trkpt lat="43.775002034381032" lon="6.240309979766607">
        <ele>750.45000000000005</ele>
        <time>2025-05-18T09:50:43Z</time>
      </trkpt>
      <trkpt lat="43.775014020502567" lon="6.240167990326881">
        <ele>750.45000000000005</ele>
        <time>2025-05-18T09:50:44Z</time>
      </trkpt>
      <trkpt lat="43.775017959997058" lon="6.240010997280479">
        <ele>750.45000000000005</ele>
        <time>2025-05-18T09:50:45Z</time>
      </trkpt>
      <trkpt lat="43.774982001632452" lon="6.239847969263792">
        <ele>750.45000000000005</ele>
        <time>2025-05-18T09:50:46Z</time>
      </trkpt>
      <trkpt lat="43.774920981377363" lon="6.239787032827735">
        <ele>749.97000000000003</ele>
        <time>2025-05-18T09:50:47Z</time>
      </trkpt>
      <trkpt lat="43.774850992485881" lon="6.239717965945602">
        <ele>749.49000000000001</ele>
        <time>2025-05-18T09:50:48Z</time>
      </trkpt>
      <trkpt lat="43.774770023301244" lon="6.239635990932584">
        <ele>749</ele>
        <time>2025-05-18T09:50:49Z</time>
      </trkpt>
      <trkpt lat="43.774582017213106" lon="6.239447984844446">
        <ele>747.08000000000004</ele>
        <time>2025-05-18T09:50:51Z</time>
      </trkpt>
      <trkpt lat="43.77450498752296" lon="6.239332985132933">
        <ele>746.12</ele>
        <time>2025-05-18T09:50:52Z</time>
      </trkpt>
      <trkpt lat="43.774428963661194" lon="6.239187978208065">
        <ele>745.15999999999997</ele>
        <time>2025-05-18T09:50:53Z</time>
      </trkpt>
      <trkpt lat="43.774082958698273" lon="6.238304022699595">
        <ele>742.27999999999997</ele>
        <time>2025-05-18T09:50:58Z</time>
      </trkpt>
      <trkpt lat="43.774040965363383" lon="6.238132026046515">
        <ele>741.78999999999996</ele>
        <time>2025-05-18T09:50:59Z</time>
      </trkpt>
      <trkpt lat="43.773972988128662" lon="6.237852992489934">
        <ele>740.83000000000004</ele>
        <time>2025-05-18T09:51:01Z</time>
      </trkpt>
      <trkpt lat="43.773915991187096" lon="6.237760037183762">
        <ele>740.83000000000004</ele>
        <time>2025-05-18T09:51:02Z</time>
      </trkpt>
      <trkpt lat="43.773858994245529" lon="6.237679990008473">
        <ele>740.35000000000002</ele>
        <time>2025-05-18T09:51:03Z</time>
      </trkpt>
      <trkpt lat="43.773755980655551" lon="6.237663980573416">
        <ele>740.35000000000002</ele>
        <time>2025-05-18T09:51:04Z</time>
      </trkpt>
      <trkpt lat="43.773703007027507" lon="6.23773799277842">
        <ele>739.87</ele>
        <time>2025-05-18T09:51:05Z</time>
      </trkpt>
      <trkpt lat="43.773654978722334" lon="6.237853998318315">
        <ele>739.87</ele>
        <time>2025-05-18T09:51:06Z</time>
      </trkpt>
      <trkpt lat="43.773663025349379" lon="6.237967992201448">
        <ele>739.38999999999999</ele>
        <time>2025-05-18T09:51:07Z</time>
      </trkpt>
      <trkpt lat="43.773671993985772" lon="6.238095983862877">
        <ele>739.38999999999999</ele>
        <time>2025-05-18T09:51:08Z</time>
      </trkpt>
      <trkpt lat="43.773681968450546" lon="6.238234033808112">
        <ele>738.90999999999997</ele>
        <time>2025-05-18T09:51:09Z</time>
      </trkpt>
      <trkpt lat="43.773693032562733" lon="6.238383986055851">
        <ele>738.42999999999995</ele>
        <time>2025-05-18T09:51:10Z</time>
      </trkpt>
      <trkpt lat="43.773669982329011" lon="6.238509966060519">
        <ele>737.95000000000005</ele>
        <time>2025-05-18T09:51:11Z</time>
      </trkpt>
      <trkpt lat="43.773627988994122" lon="6.238610967993736">
        <ele>737.47000000000003</ele>
        <time>2025-05-18T09:51:12Z</time>
      </trkpt>
      <trkpt lat="43.773549031466246" lon="6.238709958270192">
        <ele>736.99000000000001</ele>
        <time>2025-05-18T09:51:13Z</time>
      </trkpt>
      <trkpt lat="43.773479964584112" lon="6.238796962425113">
        <ele>736.50999999999999</ele>
        <time>2025-05-18T09:51:14Z</time>
      </trkpt>
      <trkpt lat="43.773357002064586" lon="6.238857982680202">
        <ele>736.02999999999997</ele>
        <time>2025-05-18T09:51:15Z</time>
      </trkpt>
      <trkpt lat="43.773264968767762" lon="6.238880027085543">
        <ele>736.02999999999997</ele>
        <time>2025-05-18T09:51:16Z</time>
      </trkpt>
      <trkpt lat="43.773138988763094" lon="6.238872986286879">
        <ele>735.54999999999995</ele>
        <time>2025-05-18T09:51:17Z</time>
      </trkpt>
      <trkpt lat="43.772597014904022" lon="6.238841973245144">
        <ele>732.17999999999995</ele>
        <time>2025-05-18T09:51:21Z</time>
      </trkpt>
      <trkpt lat="43.772186972200871" lon="6.238641981035471">
        <ele>730.25999999999999</ele>
        <time>2025-05-18T09:51:24Z</time>
      </trkpt>
      <trkpt lat="43.771704006940126" lon="6.23833604156971">
        <ele>726.88999999999999</ele>
        <time>2025-05-18T09:51:28Z</time>
      </trkpt>
      <trkpt lat="43.771609961986542" lon="6.238264963030815">
        <ele>726.40999999999997</ele>
        <time>2025-05-18T09:51:29Z</time>
      </trkpt>
      <trkpt lat="43.771533016115427" lon="6.238174019381404">
        <ele>725.92999999999995</ele>
        <time>2025-05-18T09:51:30Z</time>
      </trkpt>
      <trkpt lat="43.771481970325112" lon="6.238024989143014">
        <ele>725.45000000000005</ele>
        <time>2025-05-18T09:51:31Z</time>
      </trkpt>
      <trkpt lat="43.771464033052325" lon="6.237860033288598">
        <ele>724.49000000000001</ele>
        <time>2025-05-18T09:51:32Z</time>
      </trkpt>
      <trkpt lat="43.771425979211926" lon="6.237150002270937">
        <ele>723.04999999999995</ele>
        <time>2025-05-18T09:51:36Z</time>
      </trkpt>
      <trkpt lat="43.771436959505081" lon="6.236992003396154">
        <ele>722.57000000000005</ele>
        <time>2025-05-18T09:51:37Z</time>
      </trkpt>
      <trkpt lat="43.771502003073692" lon="6.23685403726995">
        <ele>722.09000000000003</ele>
        <time>2025-05-18T09:51:38Z</time>
      </trkpt>
      <trkpt lat="43.771592024713755" lon="6.236741971224546">
        <ele>721.61000000000001</ele>
        <time>2025-05-18T09:51:39Z</time>
      </trkpt>
      <trkpt lat="43.771691014990211" lon="6.236618002876639">
        <ele>721.13</ele>
        <time>2025-05-18T09:51:40Z</time>
      </trkpt>
      <trkpt lat="43.772160988301039" lon="6.236131014302373">
        <ele>719.20000000000005</ele>
        <time>2025-05-18T09:51:44Z</time>
      </trkpt>
      <trkpt lat="43.772308006882668" lon="6.236073011532426">
        <ele>718.24000000000001</ele>
        <time>2025-05-18T09:51:45Z</time>
      </trkpt>
      <trkpt lat="43.772611012682319" lon="6.235950971022248">
        <ele>716.79999999999995</ele>
        <time>2025-05-18T09:51:47Z</time>
      </trkpt>
      <trkpt lat="43.772755013778806" lon="6.235893974080682">
        <ele>716.32000000000005</ele>
        <time>2025-05-18T09:51:48Z</time>
      </trkpt>
      <trkpt lat="43.772885017096996" lon="6.235775034874678">
        <ele>715.36000000000001</ele>
        <time>2025-05-18T09:51:49Z</time>
      </trkpt>
      <trkpt lat="43.773002028465271" lon="6.235642014071345">
        <ele>714.88</ele>
        <time>2025-05-18T09:51:50Z</time>
      </trkpt>
      <trkpt lat="43.773116022348404" lon="6.235514022409916">
        <ele>713.91999999999996</ele>
        <time>2025-05-18T09:51:51Z</time>
      </trkpt>
      <trkpt lat="43.77321601845324" lon="6.235401034355164">
        <ele>713.44000000000005</ele>
        <time>2025-05-18T09:51:52Z</time>
      </trkpt>
      <trkpt lat="43.773287013173103" lon="6.235320987179875">
        <ele>712.47000000000003</ele>
        <time>2025-05-18T09:51:53Z</time>
      </trkpt>
      <trkpt lat="43.773378040641546" lon="6.235339008271694">
        <ele>711.99000000000001</ele>
        <time>2025-05-18T09:51:54Z</time>
      </trkpt>
      <trkpt lat="43.773435959592462" lon="6.235391981899738">
        <ele>711.02999999999997</ele>
        <time>2025-05-18T09:51:55Z</time>
      </trkpt>
      <trkpt lat="43.773502008989453" lon="6.235474040731788">
        <ele>710.54999999999995</ele>
        <time>2025-05-18T09:51:56Z</time>
      </trkpt>
      <trkpt lat="43.773544002324343" lon="6.235603038221598">
        <ele>709.59000000000003</ele>
        <time>2025-05-18T09:51:57Z</time>
      </trkpt>
      <trkpt lat="43.773636035621166" lon="6.235887017101049">
        <ele>708.63</ele>
        <time>2025-05-18T09:51:59Z</time>
      </trkpt>
      <trkpt lat="43.773739971220493" lon="6.236176025122404">
        <ele>707.66999999999996</ele>
        <time>2025-05-18T09:52:01Z</time>
      </trkpt>
      <trkpt lat="43.773810965940356" lon="6.236293958500028">
        <ele>707.19000000000005</ele>
        <time>2025-05-18T09:52:02Z</time>
      </trkpt>
      <trkpt lat="43.773910040035844" lon="6.236408036202192">
        <ele>706.23000000000002</ele>
        <time>2025-05-18T09:52:03Z</time>
      </trkpt>
      <trkpt lat="43.774364003911614" lon="6.236809026449919">
        <ele>701.89999999999998</ele>
        <time>2025-05-18T09:52:07Z</time>
      </trkpt>
      <trkpt lat="43.7745719589293" lon="6.236992003396154">
        <ele>699.98000000000002</ele>
        <time>2025-05-18T09:52:09Z</time>
      </trkpt>
      <trkpt lat="43.774671033024788" lon="6.236994015052915">
        <ele>699.01999999999998</ele>
        <time>2025-05-18T09:52:10Z</time>
      </trkpt>
      <trkpt lat="43.774767005816102" lon="6.236959984526038">
        <ele>698.52999999999997</ele>
        <time>2025-05-18T09:52:11Z</time>
      </trkpt>
      <trkpt lat="43.774969009682536" lon="6.236852025613189">
        <ele>696.61000000000001</ele>
        <time>2025-05-18T09:52:13Z</time>
      </trkpt>
      <trkpt lat="43.775286013260484" lon="6.23668204061687">
        <ele>694.21000000000004</ele>
        <time>2025-05-18T09:52:16Z</time>
      </trkpt>
      <trkpt lat="43.77534200437367" lon="6.236595958471298">
        <ele>693.73000000000002</ele>
        <time>2025-05-18T09:52:17Z</time>
      </trkpt>
      <trkpt lat="43.775390032678843" lon="6.236500991508365">
        <ele>694.21000000000004</ele>
        <time>2025-05-18T09:52:18Z</time>
      </trkpt>
      <trkpt lat="43.775390032678843" lon="6.236406024545431">
        <ele>694.69000000000005</ele>
        <time>2025-05-18T09:52:19Z</time>
      </trkpt>
      <trkpt lat="43.775315014645457" lon="6.236304016783834">
        <ele>693.73000000000002</ele>
        <time>2025-05-18T09:52:20Z</time>
      </trkpt>
      <trkpt lat="43.775281989946961" lon="6.236265040934086">
        <ele>692.28999999999996</ele>
        <time>2025-05-18T09:52:21Z</time>
      </trkpt>
      <trkpt lat="43.775185011327267" lon="6.236265040934086">
        <ele>691.33000000000004</ele>
        <time>2025-05-18T09:52:22Z</time>
      </trkpt>
      <trkpt lat="43.775115022435784" lon="6.236284989863634">
        <ele>689.88</ele>
        <time>2025-05-18T09:52:23Z</time>
      </trkpt>
      <trkpt lat="43.775034975260496" lon="6.236382974311709">
        <ele>687.96000000000004</ele>
        <time>2025-05-18T09:52:24Z</time>
      </trkpt>
      <trkpt lat="43.774948976933956" lon="6.236487999558449">
        <ele>686.51999999999998</ele>
        <time>2025-05-18T09:52:25Z</time>
      </trkpt>
      <trkpt lat="43.774846969172359" lon="6.236539967358112">
        <ele>684.60000000000002</ele>
        <time>2025-05-18T09:52:26Z</time>
      </trkpt>
      <trkpt lat="43.774756025522947" lon="6.236547008156776">
        <ele>682.66999999999996</ele>
        <time>2025-05-18T09:52:27Z</time>
      </trkpt>
      <trkpt lat="43.774672038853168" lon="6.236499985679984">
        <ele>680.75</ele>
        <time>2025-05-18T09:52:28Z</time>
      </trkpt>
      <trkpt lat="43.774596014991403" lon="6.236457992345095">
        <ele>679.30999999999995</ele>
        <time>2025-05-18T09:52:29Z</time>
      </trkpt>
      <trkpt lat="43.774527031928301" lon="6.236342992633581">
        <ele>677.38999999999999</ele>
        <time>2025-05-18T09:52:30Z</time>
      </trkpt>
      <trkpt lat="43.774451008066535" lon="6.236213995143771">
        <ele>675.94000000000005</ele>
        <time>2025-05-18T09:52:31Z</time>
      </trkpt>
      <trkpt lat="43.774020010605454" lon="6.235420983284712">
        <ele>669.70000000000005</ele>
        <time>2025-05-18T09:52:36Z</time>
      </trkpt>
      <trkpt lat="43.773930994793773" lon="6.235256027430296">
        <ele>668.73000000000002</ele>
        <time>2025-05-18T09:52:37Z</time>
      </trkpt>
      <trkpt lat="43.773871986195445" lon="6.235080007463694">
        <ele>667.76999999999998</ele>
        <time>2025-05-18T09:52:38Z</time>
      </trkpt>
      <trkpt lat="43.773805014789104" lon="6.234881021082401">
        <ele>666.80999999999995</ele>
        <time>2025-05-18T09:52:39Z</time>
      </trkpt>
      <trkpt lat="43.773737959563732" lon="6.234677005559206">
        <ele>665.85000000000002</ele>
        <time>2025-05-18T09:52:40Z</time>
      </trkpt>
      <trkpt lat="43.773640980944037" lon="6.234467960894108">
        <ele>664.88999999999999</ele>
        <time>2025-05-18T09:52:41Z</time>
      </trkpt>
      <trkpt lat="43.773153992369771" lon="6.233527008444071">
        <ele>659.60000000000002</ele>
        <time>2025-05-18T09:52:46Z</time>
      </trkpt>
      <trkpt lat="43.773085009306669" lon="6.233363980427384">
        <ele>658.63999999999999</ele>
        <time>2025-05-18T09:52:47Z</time>
      </trkpt>
      <trkpt lat="43.77300102263689" lon="6.232938012108207">
        <ele>656.24000000000001</ele>
        <time>2025-05-18T09:52:49Z</time>
      </trkpt>
      <trkpt lat="43.772901026532054" lon="6.232424033805728">
        <ele>652.38999999999999</ele>
        <time>2025-05-18T09:52:52Z</time>
      </trkpt>
      <trkpt lat="43.772911000996828" lon="6.232318002730608">
        <ele>651.42999999999995</ele>
        <time>2025-05-18T09:52:53Z</time>
      </trkpt>
      <trkpt lat="43.772943019866943" lon="6.232187999412417">
        <ele>650.47000000000003</ele>
        <time>2025-05-18T09:52:54Z</time>
      </trkpt>
      <trkpt lat="43.773002028465271" lon="6.23212999664247">
        <ele>649.50999999999999</ele>
        <time>2025-05-18T09:52:55Z</time>
      </trkpt>
      <trkpt lat="43.77312901429832" lon="6.232097977772355">
        <ele>648.54999999999995</ele>
        <time>2025-05-18T09:52:56Z</time>
      </trkpt>
      <trkpt lat="43.773271003738046" lon="6.23217299580574">
        <ele>647.59000000000003</ele>
        <time>2025-05-18T09:52:57Z</time>
      </trkpt>
      <trkpt lat="43.773329006507993" lon="6.23227902688086">
        <ele>646.13999999999999</ele>
        <time>2025-05-18T09:52:58Z</time>
      </trkpt>
      <trkpt lat="43.773395977914333" lon="6.23243099078536">
        <ele>644.22000000000003</ele>
        <time>2025-05-18T09:52:59Z</time>
      </trkpt>
      <trkpt lat="43.773447023704648" lon="6.232583038508892">
        <ele>642.77999999999997</ele>
        <time>2025-05-18T09:53:00Z</time>
      </trkpt>
      <trkpt lat="43.773570992052555" lon="6.232870034873486">
        <ele>640.38</ele>
        <time>2025-05-18T09:53:02Z</time>
      </trkpt>
      <trkpt lat="43.77366503700614" lon="6.232987968251109">
        <ele>639.40999999999997</ele>
        <time>2025-05-18T09:53:03Z</time>
      </trkpt>
      <trkpt lat="43.773777019232512" lon="6.233071032911539">
        <ele>638.92999999999995</ele>
        <time>2025-05-18T09:53:04Z</time>
      </trkpt>
      <trkpt lat="43.774470034986734" lon="6.233464982360601">
        <ele>635.09000000000003</ele>
        <time>2025-05-18T09:53:09Z</time>
      </trkpt>
      <trkpt lat="43.774615963920951" lon="6.233475040644407">
        <ele>634.61000000000001</ele>
        <time>2025-05-18T09:53:10Z</time>
      </trkpt>
      <trkpt lat="43.774756025522947" lon="6.233475040644407">
        <ele>633.64999999999998</ele>
        <time>2025-05-18T09:53:11Z</time>
      </trkpt>
      <trkpt lat="43.77489298582077" lon="6.233432041481137">
        <ele>633.16999999999996</ele>
        <time>2025-05-18T09:53:12Z</time>
      </trkpt>
      <trkpt lat="43.775006979703903" lon="6.233350988477469">
        <ele>632.20000000000005</ele>
        <time>2025-05-18T09:53:13Z</time>
      </trkpt>
      <trkpt lat="43.775126002728939" lon="6.233265995979309">
        <ele>631.72000000000003</ele>
        <time>2025-05-18T09:53:14Z</time>
      </trkpt>
      <trkpt lat="43.775521963834763" lon="6.232994003221393">
        <ele>629.79999999999995</ele>
        <time>2025-05-18T09:53:17Z</time>
      </trkpt>
      <trkpt lat="43.775669988244772" lon="6.232939017936587">
        <ele>629.32000000000005</ele>
        <time>2025-05-18T09:53:18Z</time>
      </trkpt>
      <trkpt lat="43.776421006768942" lon="6.232661996036768">
        <ele>625.96000000000004</ele>
        <time>2025-05-18T09:53:24Z</time>
      </trkpt>
      <trkpt lat="43.776527959853411" lon="6.232655961066485">
        <ele>624.99000000000001</ele>
        <time>2025-05-18T09:53:25Z</time>
      </trkpt>
      <trkpt lat="43.776634996756911" lon="6.232698960229754">
        <ele>624.50999999999999</ele>
        <time>2025-05-18T09:53:26Z</time>
      </trkpt>
      <trkpt lat="43.776735998690128" lon="6.232778001576662">
        <ele>623.54999999999995</ele>
        <time>2025-05-18T09:53:27Z</time>
      </trkpt>
      <trkpt lat="43.776823002845049" lon="6.232900964096189">
        <ele>623.07000000000005</ele>
        <time>2025-05-18T09:53:28Z</time>
      </trkpt>
      <trkpt lat="43.776915036141872" lon="6.233030967414379">
        <ele>622.11000000000001</ele>
        <time>2025-05-18T09:53:29Z</time>
      </trkpt>
      <trkpt lat="43.777004973962903" lon="6.233158959075809">
        <ele>621.14999999999998</ele>
        <time>2025-05-18T09:53:30Z</time>
      </trkpt>
      <trkpt lat="43.777088960632682" lon="6.233278987929225">
        <ele>620.19000000000005</ele>
        <time>2025-05-18T09:53:31Z</time>
      </trkpt>
      <trkpt lat="43.777193985879421" lon="6.233346965163946">
        <ele>619.23000000000002</ele>
        <time>2025-05-18T09:53:32Z</time>
      </trkpt>
      <trkpt lat="43.777278978377581" lon="6.233389964327216">
        <ele>618.75</ele>
        <time>2025-05-18T09:53:33Z</time>
      </trkpt>
      <trkpt lat="43.777376040816307" lon="6.233344031497836">
        <ele>617.77999999999997</ele>
        <time>2025-05-18T09:53:34Z</time>
      </trkpt>
      <trkpt lat="43.777428008615971" lon="6.233282005414367">
        <ele>617.77999999999997</ele>
        <time>2025-05-18T09:53:35Z</time>
      </trkpt>
      <trkpt lat="43.777459021657705" lon="6.233114032074809">
        <ele>618.75</ele>
        <time>2025-05-18T09:53:36Z</time>
      </trkpt>
      <trkpt lat="43.777486011385918" lon="6.232968019321561">
        <ele>619.71000000000004</ele>
        <time>2025-05-18T09:53:37Z</time>
      </trkpt>
      <trkpt lat="43.777514006942511" lon="6.23281697742641">
        <ele>619.71000000000004</ele>
        <time>2025-05-18T09:53:38Z</time>
      </trkpt>
      <trkpt lat="43.777557006105781" lon="6.232672976329923">
        <ele>620.19000000000005</ele>
        <time>2025-05-18T09:53:39Z</time>
      </trkpt>
      <trkpt lat="43.777614003047347" lon="6.232593012973666">
        <ele>620.19000000000005</ele>
        <time>2025-05-18T09:53:40Z</time>
      </trkpt>
      <trkpt lat="43.777696983888745" lon="6.232545990496874">
        <ele>619.71000000000004</ele>
        <time>2025-05-18T09:53:41Z</time>
      </trkpt>
      <trkpt lat="43.777798991650343" lon="6.232532998546958">
        <ele>620.19000000000005</ele>
        <time>2025-05-18T09:53:42Z</time>
      </trkpt>
      <trkpt lat="43.777921032160521" lon="6.2325360160321">
        <ele>620.19000000000005</ele>
        <time>2025-05-18T09:53:43Z</time>
      </trkpt>
      <trkpt lat="43.77865101210773" lon="6.232573986053467">
        <ele>621.14999999999998</ele>
        <time>2025-05-18T09:53:48Z</time>
      </trkpt>
      <trkpt lat="43.778725024312735" lon="6.232657972723246">
        <ele>621.14999999999998</ele>
        <time>2025-05-18T09:53:49Z</time>
      </trkpt>
      <trkpt lat="43.778796019032598" lon="6.232739025726914">
        <ele>620.66999999999996</ele>
        <time>2025-05-18T09:53:50Z</time>
      </trkpt>
      <trkpt lat="43.778818985447288" lon="6.232825024053454">
        <ele>620.66999999999996</ele>
        <time>2025-05-18T09:53:51Z</time>
      </trkpt>
      <trkpt lat="43.778851004317403" lon="6.232962990179658">
        <ele>619.71000000000004</ele>
        <time>2025-05-18T09:53:52Z</time>
      </trkpt>
      <trkpt lat="43.778883023187518" lon="6.233103973791003">
        <ele>618.75</ele>
        <time>2025-05-18T09:53:53Z</time>
      </trkpt>
      <trkpt lat="43.77897597849369" lon="6.233243029564619">
        <ele>618.25999999999999</ele>
        <time>2025-05-18T09:53:54Z</time>
      </trkpt>
      <trkpt lat="43.779071029275656" lon="6.233278987929225">
        <ele>617.77999999999997</ele>
        <time>2025-05-18T09:53:55Z</time>
      </trkpt>
      <trkpt lat="43.779159961268306" lon="6.233211010694504">
        <ele>616.82000000000005</ele>
        <time>2025-05-18T09:53:56Z</time>
      </trkpt>
      <trkpt lat="43.779240008443594" lon="6.233140015974641">
        <ele>616.34000000000003</ele>
        <time>2025-05-18T09:53:57Z</time>
      </trkpt>
      <trkpt lat="43.779307985678315" lon="6.233056029304862">
        <ele>615.86000000000001</ele>
        <time>2025-05-18T09:53:58Z</time>
      </trkpt>
      <trkpt lat="43.779387027025223" lon="6.232931977137923">
        <ele>614.89999999999998</ele>
        <time>2025-05-18T09:53:59Z</time>
      </trkpt>
      <trkpt lat="43.779470007866621" lon="6.232799962162972">
        <ele>614.41999999999996</ele>
        <time>2025-05-18T09:54:00Z</time>
      </trkpt>
      <trkpt lat="43.779734959825873" lon="6.232447000220418">
        <ele>613.46000000000004</ele>
        <time>2025-05-18T09:54:03Z</time>
      </trkpt>
      <trkpt lat="43.77983596175909" lon="6.232409030199051">
        <ele>612.98000000000002</ele>
        <time>2025-05-18T09:54:04Z</time>
      </trkpt>
      <trkpt lat="43.779956996440887" lon="6.232420010492206">
        <ele>612.5</ele>
        <time>2025-05-18T09:54:05Z</time>
      </trkpt>
      <trkpt lat="43.780089011415839" lon="6.232441971078515">
        <ele>612.5</ele>
        <time>2025-05-18T09:54:06Z</time>
      </trkpt>
      <trkpt lat="43.780204011127353" lon="6.232460997998714">
        <ele>612.01999999999998</ele>
        <time>2025-05-18T09:54:07Z</time>
      </trkpt>
      <trkpt lat="43.780308030545712" lon="6.232411041855812">
        <ele>612.01999999999998</ele>
        <time>2025-05-18T09:54:08Z</time>
      </trkpt>
      <trkpt lat="43.780377013608813" lon="6.232324037700892">
        <ele>612.5</ele>
        <time>2025-05-18T09:54:09Z</time>
      </trkpt>
      <trkpt lat="43.78043401055038" lon="6.23221599496901">
        <ele>612.5</ele>
        <time>2025-05-18T09:54:10Z</time>
      </trkpt>
      <trkpt lat="43.780494024977088" lon="6.232102001085877">
        <ele>612.98000000000002</ele>
        <time>2025-05-18T09:54:11Z</time>
      </trkpt>
      <trkpt lat="43.780565019696951" lon="6.23200099915266">
        <ele>612.5</ele>
        <time>2025-05-18T09:54:12Z</time>
      </trkpt>
      <trkpt lat="43.780646994709969" lon="6.231951965019107">
        <ele>612.5</ele>
        <time>2025-05-18T09:54:13Z</time>
      </trkpt>
      <trkpt lat="43.780741961672902" lon="6.232010973617435">
        <ele>612.5</ele>
        <time>2025-05-18T09:54:14Z</time>
      </trkpt>
      <trkpt lat="43.780817985534668" lon="6.232059001922607">
        <ele>612.01999999999998</ele>
        <time>2025-05-18T09:54:15Z</time>
      </trkpt>
      <trkpt lat="43.780852016061544" lon="6.232161009684205">
        <ele>612.01999999999998</ele>
        <time>2025-05-18T09:54:16Z</time>
      </trkpt>
      <trkpt lat="43.780903983861208" lon="6.232316996902227">
        <ele>612.01999999999998</ele>
        <time>2025-05-18T09:54:17Z</time>
      </trkpt>
      <trkpt lat="43.780928961932659" lon="6.232449011877179">
        <ele>611.53999999999996</ele>
        <time>2025-05-18T09:54:18Z</time>
      </trkpt>
      <trkpt lat="43.780957041308284" lon="6.232597036287189">
        <ele>611.53999999999996</ele>
        <time>2025-05-18T09:54:19Z</time>
      </trkpt>
      <trkpt lat="43.781020995229483" lon="6.23275201767683">
        <ele>611.53999999999996</ele>
        <time>2025-05-18T09:54:20Z</time>
      </trkpt>
      <trkpt lat="43.7811219971627" lon="6.232834998518229">
        <ele>611.53999999999996</ele>
        <time>2025-05-18T09:54:21Z</time>
      </trkpt>
      <trkpt lat="43.781198021024466" lon="6.232863999903202">
        <ele>611.53999999999996</ele>
        <time>2025-05-18T09:54:22Z</time>
      </trkpt>
      <trkpt lat="43.781273039057851" lon="6.232858970761299">
        <ele>611.53999999999996</ele>
        <time>2025-05-18T09:54:23Z</time>
      </trkpt>
      <trkpt lat="43.781330035999417" lon="6.232840027660132">
        <ele>611.05999999999995</ele>
        <time>2025-05-18T09:54:24Z</time>
      </trkpt>
      <trkpt lat="43.781376974657178" lon="6.232824018225074">
        <ele>611.05999999999995</ele>
        <time>2025-05-18T09:54:25Z</time>
      </trkpt>
      <trkpt lat="43.781408993527293" lon="6.232813037931919">
        <ele>611.05999999999995</ele>
        <time>2025-05-18T09:54:32Z</time>
      </trkpt>
      <trkpt lat="43.781428020447493" lon="6.232804991304874">
        <ele>611.05999999999995</ele>
        <time>2025-05-18T09:54:47Z</time>
      </trkpt>
      <trkpt lat="43.781418967992067" lon="6.232807002961636">
        <ele>613.46000000000004</ele>
        <time>2025-05-18T09:54:48Z</time>
      </trkpt>
      <trkpt lat="43.781409999355674" lon="6.232758974656463">
        <ele>614.41999999999996</ele>
        <time>2025-05-18T09:54:49Z</time>
      </trkpt>
      <trkpt lat="43.781398013234138" lon="6.232689991593361">
        <ele>614.89999999999998</ele>
        <time>2025-05-18T09:54:50Z</time>
      </trkpt>
      <trkpt lat="43.781382003799081" lon="6.232603993266821">
        <ele>614.89999999999998</ele>
        <time>2025-05-18T09:54:51Z</time>
      </trkpt>
      <trkpt lat="43.781365994364023" lon="6.232510032132268">
        <ele>614.89999999999998</ele>
        <time>2025-05-18T09:54:52Z</time>
      </trkpt>
      <trkpt lat="43.781312014907598" lon="6.232209037989378">
        <ele>614.41999999999996</ele>
        <time>2025-05-18T09:54:55Z</time>
      </trkpt>
      <trkpt lat="43.781247977167368" lon="6.232091020792723">
        <ele>614.89999999999998</ele>
        <time>2025-05-18T09:54:56Z</time>
      </trkpt>
      <trkpt lat="43.781057959422469" lon="6.231739986687899">
        <ele>614.41999999999996</ele>
        <time>2025-05-18T09:54:59Z</time>
      </trkpt>
      <trkpt lat="43.780982019379735" lon="6.231634961441159">
        <ele>613.94000000000005</ele>
        <time>2025-05-18T09:55:00Z</time>
      </trkpt>
      <trkpt lat="43.780903983861208" lon="6.231544017791748">
        <ele>613.46000000000004</ele>
        <time>2025-05-18T09:55:01Z</time>
      </trkpt>
      <trkpt lat="43.780781021341681" lon="6.231518033891916">
        <ele>613.46000000000004</ele>
        <time>2025-05-18T09:55:02Z</time>
      </trkpt>
      <trkpt lat="43.7806729786098" lon="6.231494983658195">
        <ele>612.98000000000002</ele>
        <time>2025-05-18T09:55:03Z</time>
      </trkpt>
      <trkpt lat="43.780574994161725" lon="6.231450978666544">
        <ele>612.01999999999998</ele>
        <time>2025-05-18T09:55:04Z</time>
      </trkpt>
      <trkpt lat="43.780507016927004" lon="6.231381995603442">
        <ele>611.53999999999996</ele>
        <time>2025-05-18T09:55:05Z</time>
      </trkpt>
      <trkpt lat="43.780487990006804" lon="6.231281999498606">
        <ele>611.05999999999995</ele>
        <time>2025-05-18T09:55:06Z</time>
      </trkpt>
      <trkpt lat="43.780480027198792" lon="6.231187032535672">
        <ele>610.57000000000005</ele>
        <time>2025-05-18T09:55:07Z</time>
      </trkpt>
      <trkpt lat="43.780516991391778" lon="6.231088964268565">
        <ele>610.09000000000003</ele>
        <time>2025-05-18T09:55:08Z</time>
      </trkpt>
      <trkpt lat="43.78058597445488" lon="6.231010006740689">
        <ele>609.61000000000001</ele>
        <time>2025-05-18T09:55:09Z</time>
      </trkpt>
      <trkpt lat="43.780670966953039" lon="6.230930965393782">
        <ele>609.61000000000001</ele>
        <time>2025-05-18T09:55:10Z</time>
      </trkpt>
      <trkpt lat="43.780771968886256" lon="6.230857037007809">
        <ele>609.13</ele>
        <time>2025-05-18T09:55:11Z</time>
      </trkpt>
      <trkpt lat="43.780871964991093" lon="6.230784030631185">
        <ele>608.64999999999998</ele>
        <time>2025-05-18T09:55:12Z</time>
      </trkpt>
      <trkpt lat="43.78097397275269" lon="6.230688979849219">
        <ele>608.16999999999996</ele>
        <time>2025-05-18T09:55:13Z</time>
      </trkpt>
      <trkpt lat="43.781060976907611" lon="6.230557970702648">
        <ele>607.21000000000004</ele>
        <time>2025-05-18T09:55:14Z</time>
      </trkpt>
      <trkpt lat="43.781153010204434" lon="6.230420004576445">
        <ele>606.25</ele>
        <time>2025-05-18T09:55:15Z</time>
      </trkpt>
      <trkpt lat="43.78125200048089" lon="6.230271980166435">
        <ele>605.76999999999998</ele>
        <time>2025-05-18T09:55:16Z</time>
      </trkpt>
      <trkpt lat="43.78135803155601" lon="6.230124039575458">
        <ele>604.80999999999995</ele>
        <time>2025-05-18T09:55:17Z</time>
      </trkpt>
      <trkpt lat="43.781673023477197" lon="6.229704022407532">
        <ele>602.88</ele>
        <time>2025-05-18T09:55:20Z</time>
      </trkpt>
      <trkpt lat="43.781725997105241" lon="6.229550968855619">
        <ele>601.91999999999996</ele>
        <time>2025-05-18T09:55:21Z</time>
      </trkpt>
      <trkpt lat="43.781762961298227" lon="6.229440998286009">
        <ele>601.44000000000005</ele>
        <time>2025-05-18T09:55:22Z</time>
      </trkpt>
      <trkpt lat="43.781733037903905" lon="6.229335973039269">
        <ele>600.48000000000002</ele>
        <time>2025-05-18T09:55:23Z</time>
      </trkpt>
      <trkpt lat="43.781696995720267" lon="6.229291968047619">
        <ele>600</ele>
        <time>2025-05-18T09:55:24Z</time>
      </trkpt>
      <trkpt lat="43.781626001000404" lon="6.22929397970438">
        <ele>599.03999999999996</ele>
        <time>2025-05-18T09:55:25Z</time>
      </trkpt>
      <trkpt lat="43.781544025987387" lon="6.229296997189522">
        <ele>598.55999999999995</ele>
        <time>2025-05-18T09:55:26Z</time>
      </trkpt>
      <trkpt lat="43.781457021832466" lon="6.229299008846283">
        <ele>598.08000000000004</ele>
        <time>2025-05-18T09:55:27Z</time>
      </trkpt>
      <trkpt lat="43.781234985217452" lon="6.229305965825915">
        <ele>597.60000000000002</ele>
        <time>2025-05-18T09:55:29Z</time>
      </trkpt>
      <trkpt lat="43.781109005212784" lon="6.229309989139438">
        <ele>597.12</ele>
        <time>2025-05-18T09:55:30Z</time>
      </trkpt>
      <trkpt lat="43.780987970530987" lon="6.229280987754464">
        <ele>596.14999999999998</ele>
        <time>2025-05-18T09:55:31Z</time>
      </trkpt>
      <trkpt lat="43.780854027718306" lon="6.229218039661646">
        <ele>595.66999999999996</ele>
        <time>2025-05-18T09:55:32Z</time>
      </trkpt>
      <trkpt lat="43.780727041885257" lon="6.229158025234938">
        <ele>595.66999999999996</ele>
        <time>2025-05-18T09:55:33Z</time>
      </trkpt>
      <trkpt lat="43.780592009425163" lon="6.229132041335106">
        <ele>595.19000000000005</ele>
        <time>2025-05-18T09:55:34Z</time>
      </trkpt>
      <trkpt lat="43.780454965308309" lon="6.229119971394539">
        <ele>595.19000000000005</ele>
        <time>2025-05-18T09:55:35Z</time>
      </trkpt>
      <trkpt lat="43.78000502474606" lon="6.22907898388803">
        <ele>594.23000000000002</ele>
        <time>2025-05-18T09:55:38Z</time>
      </trkpt>
      <trkpt lat="43.779858006164432" lon="6.229020981118083">
        <ele>593.75</ele>
        <time>2025-05-18T09:55:39Z</time>
      </trkpt>
      <trkpt lat="43.779707970097661" lon="6.228954009711742">
        <ele>593.26999999999998</ele>
        <time>2025-05-18T09:55:40Z</time>
      </trkpt>
      <trkpt lat="43.77957402728498" lon="6.228892989456654">
        <ele>592.30999999999995</ele>
        <time>2025-05-18T09:55:41Z</time>
      </trkpt>
      <trkpt lat="43.779480988159776" lon="6.228812020272017">
        <ele>591.83000000000004</ele>
        <time>2025-05-18T09:55:42Z</time>
      </trkpt>
      <trkpt lat="43.7794020306319" lon="6.228732978925109">
        <ele>591.35000000000002</ele>
        <time>2025-05-18T09:55:43Z</time>
      </trkpt>
      <trkpt lat="43.779378980398178" lon="6.228622002527118">
        <ele>591.35000000000002</ele>
        <time>2025-05-18T09:55:44Z</time>
      </trkpt>
      <trkpt lat="43.779352996498346" lon="6.228491999208927">
        <ele>590.87</ele>
        <time>2025-05-18T09:55:45Z</time>
      </trkpt>
      <trkpt lat="43.779326006770134" lon="6.228365013375878">
        <ele>590.38999999999999</ele>
        <time>2025-05-18T09:55:46Z</time>
      </trkpt>
      <trkpt lat="43.779300022870302" lon="6.22823903337121">
        <ele>589.90999999999997</ele>
        <time>2025-05-18T09:55:47Z</time>
      </trkpt>
      <trkpt lat="43.779259035363793" lon="6.228085979819298">
        <ele>588.95000000000005</ele>
        <time>2025-05-18T09:55:48Z</time>
      </trkpt>
      <trkpt lat="43.779183011502028" lon="6.227958993986249">
        <ele>587.98000000000002</ele>
        <time>2025-05-18T09:55:49Z</time>
      </trkpt>
      <trkpt lat="43.779100030660629" lon="6.227822033688426">
        <ele>587.01999999999998</ele>
        <time>2025-05-18T09:55:50Z</time>
      </trkpt>
      <trkpt lat="43.779001040384173" lon="6.227690018713474">
        <ele>586.05999999999995</ele>
        <time>2025-05-18T09:55:51Z</time>
      </trkpt>
      <trkpt lat="43.778905989602208" lon="6.227570995688438">
        <ele>585.10000000000002</ele>
        <time>2025-05-18T09:55:52Z</time>
      </trkpt>
      <trkpt lat="43.77882300876081" lon="6.22746697627008">
        <ele>584.62</ele>
        <time>2025-05-18T09:55:53Z</time>
      </trkpt>
      <trkpt lat="43.77878000959754" lon="6.227317024022341">
        <ele>583.65999999999997</ele>
        <time>2025-05-18T09:55:54Z</time>
      </trkpt>
      <trkpt lat="43.778786966577172" lon="6.227147961035371">
        <ele>583.17999999999995</ele>
        <time>2025-05-18T09:55:55Z</time>
      </trkpt>
      <trkpt lat="43.778794007375836" lon="6.226960960775614">
        <ele>582.22000000000003</ele>
        <time>2025-05-18T09:55:56Z</time>
      </trkpt>
      <trkpt lat="43.778800964355469" lon="6.226789969950914">
        <ele>581.73000000000002</ele>
        <time>2025-05-18T09:55:57Z</time>
      </trkpt>
      <trkpt lat="43.778765005990863" lon="6.226637000218034">
        <ele>581.25</ele>
        <time>2025-05-18T09:55:58Z</time>
      </trkpt>
      <trkpt lat="43.778629973530769" lon="6.22611497528851">
        <ele>579.80999999999995</ele>
        <time>2025-05-18T09:56:01Z</time>
      </trkpt>
      <trkpt lat="43.778616981580853" lon="6.225944990292192">
        <ele>579.33000000000004</ele>
        <time>2025-05-18T09:56:02Z</time>
      </trkpt>
      <trkpt lat="43.778574988245964" lon="6.225206041708589">
        <ele>576.92999999999995</ele>
        <time>2025-05-18T09:56:06Z</time>
      </trkpt>
      <trkpt lat="43.778526959940791" lon="6.225086012855172">
        <ele>576.45000000000005</ele>
        <time>2025-05-18T09:56:07Z</time>
      </trkpt>
      <trkpt lat="43.778456971049309" lon="6.22497696429491">
        <ele>575.49000000000001</ele>
        <time>2025-05-18T09:56:08Z</time>
      </trkpt>
      <trkpt lat="43.778357980772853" lon="6.224877974018455">
        <ele>575.00999999999999</ele>
        <time>2025-05-18T09:56:09Z</time>
      </trkpt>
      <trkpt lat="43.778251027688384" lon="6.224771020933986">
        <ele>574.52999999999997</ele>
        <time>2025-05-18T09:56:10Z</time>
      </trkpt>
      <trkpt lat="43.777824975550175" lon="6.224298030138016">
        <ele>572.12</ele>
        <time>2025-05-18T09:56:14Z</time>
      </trkpt>
      <trkpt lat="43.777741994708776" lon="6.224181018769741">
        <ele>571.15999999999997</ele>
        <time>2025-05-18T09:56:15Z</time>
      </trkpt>
      <trkpt lat="43.777693966403604" lon="6.224040035158396">
        <ele>570.67999999999995</ele>
        <time>2025-05-18T09:56:16Z</time>
      </trkpt>
      <trkpt lat="43.777647027745843" lon="6.223874995484948">
        <ele>570.20000000000005</ele>
        <time>2025-05-18T09:56:17Z</time>
      </trkpt>
      <trkpt lat="43.777596987783909" lon="6.223696963861585">
        <ele>569.24000000000001</ele>
        <time>2025-05-18T09:56:18Z</time>
      </trkpt>
      <trkpt lat="43.777436977252364" lon="6.223133029416204">
        <ele>567.79999999999995</ele>
        <time>2025-05-18T09:56:21Z</time>
      </trkpt>
      <trkpt lat="43.777319965884089" lon="6.222786018624902">
        <ele>566.83000000000004</ele>
        <time>2025-05-18T09:56:23Z</time>
      </trkpt>
      <trkpt lat="43.777256011962891" lon="6.222612010315061">
        <ele>566.35000000000002</ele>
        <time>2025-05-18T09:56:24Z</time>
      </trkpt>
      <trkpt lat="43.777165990322828" lon="6.222455017268658">
        <ele>565.87</ele>
        <time>2025-05-18T09:56:25Z</time>
      </trkpt>
      <trkpt lat="43.776843035593629" lon="6.222045980393887">
        <ele>563.95000000000005</ele>
        <time>2025-05-18T09:56:28Z</time>
      </trkpt>
      <trkpt lat="43.776643965393305" lon="6.22183601371944">
        <ele>562.02999999999997</ele>
        <time>2025-05-18T09:56:30Z</time>
      </trkpt>
      <trkpt lat="43.776576993986964" lon="6.221702992916107">
        <ele>561.07000000000005</ele>
        <time>2025-05-18T09:56:31Z</time>
      </trkpt>
      <trkpt lat="43.776527037844062" lon="6.221566032618284">
        <ele>560.59000000000003</ele>
        <time>2025-05-18T09:56:32Z</time>
      </trkpt>
      <trkpt lat="43.776527037844062" lon="6.22138598933816">
        <ele>559.62</ele>
        <time>2025-05-18T09:56:33Z</time>
      </trkpt>
      <trkpt lat="43.776542041450739" lon="6.221245005726814">
        <ele>558.65999999999997</ele>
        <time>2025-05-18T09:56:34Z</time>
      </trkpt>
      <trkpt lat="43.776587974280119" lon="6.221121037378907">
        <ele>557.70000000000005</ele>
        <time>2025-05-18T09:56:35Z</time>
      </trkpt>
      <trkpt lat="43.776665003970265" lon="6.220982987433672">
        <ele>557.22000000000003</ele>
        <time>2025-05-18T09:56:36Z</time>
      </trkpt>
      <trkpt lat="43.77676198258996" lon="6.220856001600623">
        <ele>556.25999999999999</ele>
        <time>2025-05-18T09:56:37Z</time>
      </trkpt>
      <trkpt lat="43.777085021138191" lon="6.220433972775936">
        <ele>553.86000000000001</ele>
        <time>2025-05-18T09:56:40Z</time>
      </trkpt>
      <trkpt lat="43.777189962565899" lon="6.220277985557914">
        <ele>552.89999999999998</ele>
        <time>2025-05-18T09:56:41Z</time>
      </trkpt>
      <trkpt lat="43.777267998084426" lon="6.220094002783299">
        <ele>551.92999999999995</ele>
        <time>2025-05-18T09:56:42Z</time>
      </trkpt>
      <trkpt lat="43.777580978348851" lon="6.219364022836089">
        <ele>548.09000000000003</ele>
        <time>2025-05-18T09:56:46Z</time>
      </trkpt>
      <trkpt lat="43.777663959190249" lon="6.219209041446447">
        <ele>547.13</ele>
        <time>2025-05-18T09:56:47Z</time>
      </trkpt>
      <trkpt lat="43.778257984668016" lon="6.218355009332299">
        <ele>540.88</ele>
        <time>2025-05-18T09:56:53Z</time>
      </trkpt>
      <trkpt lat="43.778308024629951" lon="6.218283008784056">
        <ele>539.44000000000005</ele>
        <time>2025-05-18T09:56:54Z</time>
      </trkpt>
      <trkpt lat="43.778395028784871" lon="6.21827001683414">
        <ele>538.48000000000002</ele>
        <time>2025-05-18T09:56:55Z</time>
      </trkpt>
      <trkpt lat="43.778492007404566" lon="6.218256019055843">
        <ele>537.50999999999999</ele>
        <time>2025-05-18T09:56:56Z</time>
      </trkpt>
      <trkpt lat="43.778601977974176" lon="6.218239003792405">
        <ele>536.07000000000005</ele>
        <time>2025-05-18T09:56:57Z</time>
      </trkpt>
      <trkpt lat="43.778700968250632" lon="6.218224000185728">
        <ele>535.11000000000001</ele>
        <time>2025-05-18T09:56:58Z</time>
      </trkpt>
      <trkpt lat="43.778783027082682" lon="6.218173038214445">
        <ele>534.14999999999998</ele>
        <time>2025-05-18T09:56:59Z</time>
      </trkpt>
      <trkpt lat="43.77886701375246" lon="6.218076981604099">
        <ele>533.66999999999996</ele>
        <time>2025-05-18T09:57:00Z</time>
      </trkpt>
      <trkpt lat="43.778876988217235" lon="6.217966005206108">
        <ele>533.19000000000005</ele>
        <time>2025-05-18T09:57:01Z</time>
      </trkpt>
      <trkpt lat="43.778886962682009" lon="6.217861985787749">
        <ele>532.71000000000004</ele>
        <time>2025-05-18T09:57:02Z</time>
      </trkpt>
      <trkpt lat="43.778825020417571" lon="6.217775987461209">
        <ele>532.23000000000002</ele>
        <time>2025-05-18T09:57:03Z</time>
      </trkpt>
      <trkpt lat="43.778756959363818" lon="6.217746986076236">
        <ele>531.75</ele>
        <time>2025-05-18T09:57:04Z</time>
      </trkpt>
      <trkpt lat="43.778682025149465" lon="6.217768024653196">
        <ele>531.26999999999998</ele>
        <time>2025-05-18T09:57:05Z</time>
      </trkpt>
      <trkpt lat="43.778594015166163" lon="6.217823009938002">
        <ele>530.78999999999996</ele>
        <time>2025-05-18T09:57:06Z</time>
      </trkpt>
      <trkpt lat="43.778497036546469" lon="6.217879001051188">
        <ele>530.29999999999995</ele>
        <time>2025-05-18T09:57:07Z</time>
      </trkpt>
      <trkpt lat="43.778386982157826" lon="6.217937003821135">
        <ele>528.86000000000001</ele>
        <time>2025-05-18T09:57:08Z</time>
      </trkpt>
      <trkpt lat="43.778266031295061" lon="6.218001041561365">
        <ele>527.89999999999998</ele>
        <time>2025-05-18T09:57:09Z</time>
      </trkpt>
      <trkpt lat="43.778138039633632" lon="6.218044040724635">
        <ele>526.94000000000005</ele>
        <time>2025-05-18T09:57:10Z</time>
      </trkpt>
      <trkpt lat="43.777991021052003" lon="6.218030964955688">
        <ele>525.5</ele>
        <time>2025-05-18T09:57:11Z</time>
      </trkpt>
      <trkpt lat="43.777840984985232" lon="6.218017973005772">
        <ele>524.05999999999995</ele>
        <time>2025-05-18T09:57:12Z</time>
      </trkpt>
      <trkpt lat="43.777697989717126" lon="6.218004981055856">
        <ele>522.13</ele>
        <time>2025-05-18T09:57:13Z</time>
      </trkpt>
      <trkpt lat="43.777334969490767" lon="6.218020990490913">
        <ele>518.76999999999998</ele>
        <time>2025-05-18T09:57:16Z</time>
      </trkpt>
      <trkpt lat="43.777261041104794" lon="6.218086034059525">
        <ele>517.33000000000004</ele>
        <time>2025-05-18T09:57:17Z</time>
      </trkpt>
      <trkpt lat="43.777189962565899" lon="6.218160968273878">
        <ele>515.88</ele>
        <time>2025-05-18T09:57:18Z</time>
      </trkpt>
      <trkpt lat="43.777156015858054" lon="6.218276973813772">
        <ele>514.91999999999996</ele>
        <time>2025-05-18T09:57:19Z</time>
      </trkpt>
      <trkpt lat="43.777118967846036" lon="6.218397002667189">
        <ele>513.96000000000004</ele>
        <time>2025-05-18T09:57:20Z</time>
      </trkpt>
      <trkpt lat="43.777077980339527" lon="6.218533040955663">
        <ele>512.51999999999998</ele>
        <time>2025-05-18T09:57:21Z</time>
      </trkpt>
      <trkpt lat="43.777035987004638" lon="6.218675030395389">
        <ele>511.56</ele>
        <time>2025-05-18T09:57:22Z</time>
      </trkpt>
      <trkpt lat="43.776974966749549" lon="6.218826994299889">
        <ele>510.12</ele>
        <time>2025-05-18T09:57:23Z</time>
      </trkpt>
      <trkpt lat="43.776885028928518" lon="6.218931013718247">
        <ele>509.16000000000003</ele>
        <time>2025-05-18T09:57:24Z</time>
      </trkpt>
      <trkpt lat="43.77676198258996" lon="6.219007959589362">
        <ele>508.19</ele>
        <time>2025-05-18T09:57:25Z</time>
      </trkpt>
      <trkpt lat="43.776637008413672" lon="6.21906696818769">
        <ele>507.23000000000002</ele>
        <time>2025-05-18T09:57:26Z</time>
      </trkpt>
      <trkpt lat="43.776504993438721" lon="6.219103010371327">
        <ele>506.75</ele>
        <time>2025-05-18T09:57:27Z</time>
      </trkpt>
      <trkpt lat="43.776356969028711" lon="6.219092030078173">
        <ele>505.79000000000002</ele>
        <time>2025-05-18T09:57:28Z</time>
      </trkpt>
      <trkpt lat="43.776214979588985" lon="6.21904500760138">
        <ele>504.82999999999998</ele>
        <time>2025-05-18T09:57:29Z</time>
      </trkpt>
      <trkpt lat="43.776075001806021" lon="6.218997985124588">
        <ele>503.87</ele>
        <time>2025-05-18T09:57:30Z</time>
      </trkpt>
      <trkpt lat="43.775950027629733" lon="6.218955991789699">
        <ele>502.91000000000003</ele>
        <time>2025-05-18T09:57:31Z</time>
      </trkpt>
      <trkpt lat="43.775846008211374" lon="6.218930007889867">
        <ele>502.43000000000001</ele>
        <time>2025-05-18T09:57:32Z</time>
      </trkpt>
      <trkpt lat="43.775755986571312" lon="6.218948028981686">
        <ele>501.45999999999998</ele>
        <time>2025-05-18T09:57:33Z</time>
      </trkpt>
      <trkpt lat="43.775702007114887" lon="6.219048025086522">
        <ele>500.98000000000002</ele>
        <time>2025-05-18T09:57:34Z</time>
      </trkpt>
      <trkpt lat="43.775649033486843" lon="6.219148021191359">
        <ele>500.5</ele>
        <time>2025-05-18T09:57:35Z</time>
      </trkpt>
      <trkpt lat="43.775590024888515" lon="6.21925899758935">
        <ele>499.54000000000002</ele>
        <time>2025-05-18T09:57:36Z</time>
      </trkpt>
      <trkpt lat="43.775461027398705" lon="6.219504000619054">
        <ele>498.10000000000002</ele>
        <time>2025-05-18T09:57:38Z</time>
      </trkpt>
      <trkpt lat="43.775388021022081" lon="6.219640038907528">
        <ele>497.62</ele>
        <time>2025-05-18T09:57:39Z</time>
      </trkpt>
      <trkpt lat="43.775290036574006" lon="6.219735005870462">
        <ele>496.66000000000003</ele>
        <time>2025-05-18T09:57:40Z</time>
      </trkpt>
      <trkpt lat="43.775184005498886" lon="6.219812035560608">
        <ele>496.18000000000001</ele>
        <time>2025-05-18T09:57:41Z</time>
      </trkpt>
      <trkpt lat="43.775060037150979" lon="6.219850005581975">
        <ele>496.18000000000001</ele>
        <time>2025-05-18T09:57:42Z</time>
      </trkpt>
      <trkpt lat="43.774932967498899" lon="6.219850005581975">
        <ele>495.69999999999999</ele>
        <time>2025-05-18T09:57:43Z</time>
      </trkpt>
      <trkpt lat="43.774801036342978" lon="6.21981798671186">
        <ele>494.74000000000001</ele>
        <time>2025-05-18T09:57:44Z</time>
      </trkpt>
      <trkpt lat="43.774667009711266" lon="6.21977498754859">
        <ele>494.25999999999999</ele>
        <time>2025-05-18T09:57:45Z</time>
      </trkpt>
      <trkpt lat="43.774543041363358" lon="6.219687983393669">
        <ele>493.76999999999998</ele>
        <time>2025-05-18T09:57:46Z</time>
      </trkpt>
      <trkpt lat="43.774421000853181" lon="6.219601985067129">
        <ele>493.29000000000002</ele>
        <time>2025-05-18T09:57:47Z</time>
      </trkpt>
      <trkpt lat="43.774198964238167" lon="6.219445997849107">
        <ele>492.81</ele>
        <time>2025-05-18T09:57:49Z</time>
      </trkpt>
      <trkpt lat="43.774101985618472" lon="6.219378020614386">
        <ele>492.81</ele>
        <time>2025-05-18T09:57:50Z</time>
      </trkpt>
      <trkpt lat="43.774069966748357" lon="6.219312977045775">
        <ele>492.32999999999998</ele>
        <time>2025-05-18T09:57:51Z</time>
      </trkpt>
      <trkpt lat="43.774029985070229" lon="6.219210969284177">
        <ele>492.32999999999998</ele>
        <time>2025-05-18T09:57:52Z</time>
      </trkpt>
      <trkpt lat="43.774004001170397" lon="6.219079960137606">
        <ele>491.85000000000002</ele>
        <time>2025-05-18T09:57:53Z</time>
      </trkpt>
      <trkpt lat="43.773894030600786" lon="6.218566987663508">
        <ele>489.93000000000001</ele>
        <time>2025-05-18T09:57:59Z</time>
      </trkpt>
      <trkpt lat="43.773869974538684" lon="6.218471014872193">
        <ele>489.93000000000001</ele>
        <time>2025-05-18T09:58:01Z</time>
      </trkpt>
      <trkpt lat="43.773866035044193" lon="6.218455005437136">
        <ele>489.93000000000001</ele>
        <time>2025-05-18T09:58:02Z</time>
      </trkpt>
      <trkpt lat="43.773747012019157" lon="6.218481995165348">
        <ele>489.93000000000001</ele>
        <time>2025-05-18T09:58:03Z</time>
      </trkpt>
      <trkpt lat="43.773664031177759" lon="6.218501022085547">
        <ele>490.41000000000003</ele>
        <time>2025-05-18T09:58:04Z</time>
      </trkpt>
      <trkpt lat="43.773566968739033" lon="6.218522982671857">
        <ele>490.41000000000003</ele>
        <time>2025-05-18T09:58:05Z</time>
      </trkpt>
      <trkpt lat="43.772516967728734" lon="6.218720963224769">
        <ele>491.85000000000002</ele>
        <time>2025-05-18T09:58:13Z</time>
      </trkpt>
      <trkpt lat="43.771028006449342" lon="6.218875022605062">
        <ele>491.37</ele>
        <time>2025-05-18T09:58:21Z</time>
      </trkpt>
      <trkpt lat="43.7694760132581" lon="6.218711994588375">
        <ele>491.85000000000002</ele>
        <time>2025-05-18T09:58:29Z</time>
      </trkpt>
      <trkpt lat="43.769015008583665" lon="6.218582997098565">
        <ele>492.32999999999998</ele>
        <time>2025-05-18T09:58:33Z</time>
      </trkpt>
      <trkpt lat="43.768962034955621" lon="6.218565981835127">
        <ele>492.32999999999998</ele>
        <time>2025-05-18T09:58:34Z</time>
      </trkpt>
      <trkpt lat="43.768781991675496" lon="6.218505967408419">
        <ele>494.25999999999999</ele>
        <time>2025-05-18T09:58:43Z</time>
      </trkpt>
      <trkpt lat="43.768781991675496" lon="6.218505967408419">
        <ele>494.25999999999999</ele>
        <time>2025-05-18T09:59:19Z</time>
      </trkpt>
      <trkpt lat="43.768781991675496" lon="6.218505967408419">
        <ele>495.69999999999999</ele>
        <time>2025-05-18T10:00:28Z</time>
      </trkpt>
      <trkpt lat="43.768781991675496" lon="6.218505967408419">
        <ele>496.66000000000003</ele>
        <time>2025-05-18T10:01:29Z</time>
      </trkpt>
      <trkpt lat="43.768781991675496" lon="6.218505967408419">
        <ele>497.62</ele>
        <time>2025-05-18T10:02:32Z</time>
      </trkpt>
      <trkpt lat="43.768688030540943" lon="6.218475038185716">
        <ele>500.5</ele>
        <time>2025-05-18T10:03:26Z</time>
      </trkpt>
      <trkpt lat="43.76842500641942" lon="6.218388034030795">
        <ele>501.45999999999998</ele>
        <time>2025-05-18T10:03:29Z</time>
      </trkpt>
      <trkpt lat="43.767453962936997" lon="6.218067007139325">
        <ele>502.91000000000003</ele>
        <time>2025-05-18T10:03:35Z</time>
      </trkpt>
      <trkpt lat="43.765401989221573" lon="6.217465018853545">
        <ele>507.70999999999998</ele>
        <time>2025-05-18T10:03:45Z</time>
      </trkpt>
      <trkpt lat="43.763911016285419" lon="6.217656964436173">
        <ele>510.60000000000002</ele>
        <time>2025-05-18T10:03:52Z</time>
      </trkpt>
      <trkpt lat="43.762023998424411" lon="6.218001963570714">
        <ele>512.51999999999998</ele>
        <time>2025-05-18T10:04:01Z</time>
      </trkpt>
      <trkpt lat="43.759797010570765" lon="6.217960976064205">
        <ele>512.03999999999996</ele>
        <time>2025-05-18T10:04:11Z</time>
      </trkpt>
      <trkpt lat="43.759596012532711" lon="6.21799198910594">
        <ele>512.03999999999996</ele>
        <time>2025-05-18T10:04:12Z</time>
      </trkpt>
      <trkpt lat="43.759403983131051" lon="6.218083016574383">
        <ele>511.56</ele>
        <time>2025-05-18T10:04:13Z</time>
      </trkpt>
      <trkpt lat="43.759217988699675" lon="6.218193992972374">
        <ele>511.07999999999998</ele>
        <time>2025-05-18T10:04:14Z</time>
      </trkpt>
      <trkpt lat="43.759054038673639" lon="6.21837998740375">
        <ele>510.12</ele>
        <time>2025-05-18T10:04:15Z</time>
      </trkpt>
      <trkpt lat="43.758888999000192" lon="6.218576040118933">
        <ele>509.16000000000003</ele>
        <time>2025-05-18T10:04:16Z</time>
      </trkpt>
      <trkpt lat="43.758722031489015" lon="6.218793969601393">
        <ele>508.67000000000002</ele>
        <time>2025-05-18T10:04:17Z</time>
      </trkpt>
      <trkpt lat="43.758007977157831" lon="6.219648001715541">
        <ele>507.70999999999998</ele>
        <time>2025-05-18T10:04:21Z</time>
      </trkpt>
      <trkpt lat="43.757791975513101" lon="6.219768030568957">
        <ele>507.70999999999998</ele>
        <time>2025-05-18T10:04:22Z</time>
      </trkpt>
      <trkpt lat="43.757579997181892" lon="6.219886969774962">
        <ele>508.19</ele>
        <time>2025-05-18T10:04:23Z</time>
      </trkpt>
      <trkpt lat="43.757371036335826" lon="6.219956958666444">
        <ele>509.16000000000003</ele>
        <time>2025-05-18T10:04:24Z</time>
      </trkpt>
      <trkpt lat="43.757156040519476" lon="6.219995012506843">
        <ele>510.12</ele>
        <time>2025-05-18T10:04:25Z</time>
      </trkpt>
      <trkpt lat="43.756941966712475" lon="6.219961987808347">
        <ele>511.56</ele>
        <time>2025-05-18T10:04:26Z</time>
      </trkpt>
      <trkpt lat="43.756722025573254" lon="6.219918988645077">
        <ele>512.51999999999998</ele>
        <time>2025-05-18T10:04:27Z</time>
      </trkpt>
      <trkpt lat="43.756514992564917" lon="6.219845982268453">
        <ele>513.96000000000004</ele>
        <time>2025-05-18T10:04:28Z</time>
      </trkpt>
      <trkpt lat="43.756318017840385" lon="6.219700975343585">
        <ele>515.39999999999998</ele>
        <time>2025-05-18T10:04:29Z</time>
      </trkpt>
      <trkpt lat="43.756120037287474" lon="6.219555968418717">
        <ele>516.85000000000002</ele>
        <time>2025-05-18T10:04:30Z</time>
      </trkpt>
      <trkpt lat="43.754906002432108" lon="6.218656003475189">
        <ele>526.94000000000005</ele>
        <time>2025-05-18T10:04:37Z</time>
      </trkpt>
      <trkpt lat="43.754783039912581" lon="6.218627002090216">
        <ele>527.41999999999996</ele>
        <time>2025-05-18T10:04:38Z</time>
      </trkpt>
      <trkpt lat="43.754666028544307" lon="6.218646029010415">
        <ele>528.38</ele>
        <time>2025-05-18T10:04:39Z</time>
      </trkpt>
      <trkpt lat="43.754580030217767" lon="6.218745019286871">
        <ele>529.34000000000003</ele>
        <time>2025-05-18T10:04:40Z</time>
      </trkpt>
      <trkpt lat="43.754526972770691" lon="6.21885297819972">
        <ele>529.82000000000005</ele>
        <time>2025-05-18T10:04:41Z</time>
      </trkpt>
      <trkpt lat="43.754513980820775" lon="6.218990022316575">
        <ele>530.78999999999996</ele>
        <time>2025-05-18T10:04:42Z</time>
      </trkpt>
      <trkpt lat="43.754547005519271" lon="6.219111979007721">
        <ele>531.75</ele>
        <time>2025-05-18T10:04:43Z</time>
      </trkpt>
      <trkpt lat="43.754596961662173" lon="6.219249023124576">
        <ele>532.71000000000004</ele>
        <time>2025-05-18T10:04:44Z</time>
      </trkpt>
      <trkpt lat="43.754700981080532" lon="6.219352958723903">
        <ele>533.19000000000005</ele>
        <time>2025-05-18T10:04:45Z</time>
      </trkpt>
      <trkpt lat="43.754814974963665" lon="6.219467036426067">
        <ele>533.66999999999996</ele>
        <time>2025-05-18T10:04:46Z</time>
      </trkpt>
      <trkpt lat="43.754927963018417" lon="6.219600979238749">
        <ele>534.14999999999998</ele>
        <time>2025-05-18T10:04:47Z</time>
      </trkpt>
      <trkpt lat="43.755036005750299" lon="6.219739029183984">
        <ele>535.11000000000001</ele>
        <time>2025-05-18T10:04:48Z</time>
      </trkpt>
      <trkpt lat="43.755141030997038" lon="6.219873977825046">
        <ele>535.59000000000003</ele>
        <time>2025-05-18T10:04:49Z</time>
      </trkpt>
      <trkpt lat="43.755174977704883" lon="6.220059972256422">
        <ele>536.54999999999995</ele>
        <time>2025-05-18T10:04:50Z</time>
      </trkpt>
      <trkpt lat="43.755198027938604" lon="6.220257030799985">
        <ele>537.50999999999999</ele>
        <time>2025-05-18T10:04:51Z</time>
      </trkpt>
      <trkpt lat="43.755165003240108" lon="6.220428021624684">
        <ele>537.99000000000001</ele>
        <time>2025-05-18T10:04:52Z</time>
      </trkpt>
      <trkpt lat="43.755126027390361" lon="6.220633964985609">
        <ele>538.96000000000004</ele>
        <time>2025-05-18T10:04:53Z</time>
      </trkpt>
      <trkpt lat="43.754792008548975" lon="6.222369018942118">
        <ele>545.69000000000005</ele>
        <time>2025-05-18T10:05:00Z</time>
      </trkpt>
      <trkpt lat="43.754552034661174" lon="6.223388006910682">
        <ele>550.49000000000001</ele>
        <time>2025-05-18T10:05:04Z</time>
      </trkpt>
      <trkpt lat="43.754464024677873" lon="6.223629992455244">
        <ele>551.92999999999995</ele>
        <time>2025-05-18T10:05:05Z</time>
      </trkpt>
      <trkpt lat="43.754339972510934" lon="6.223844988271594">
        <ele>552.89999999999998</ele>
        <time>2025-05-18T10:05:06Z</time>
      </trkpt>
      <trkpt lat="43.75420100055635" lon="6.224064007401466">
        <ele>554.34000000000003</ele>
        <time>2025-05-18T10:05:07Z</time>
      </trkpt>
      <trkpt lat="43.75403000973165" lon="6.224226029589772">
        <ele>555.77999999999997</ele>
        <time>2025-05-18T10:05:08Z</time>
      </trkpt>
      <trkpt lat="43.753852983936667" lon="6.224395008757711">
        <ele>556.74000000000001</ele>
        <time>2025-05-18T10:05:09Z</time>
      </trkpt>
      <trkpt lat="43.753670006990433" lon="6.224570022895932">
        <ele>558.17999999999995</ele>
        <time>2025-05-18T10:05:10Z</time>
      </trkpt>
      <trkpt lat="43.752145003527403" lon="6.225794032216072">
        <ele>565.38999999999999</ele>
        <time>2025-05-18T10:05:18Z</time>
      </trkpt>
      <trkpt lat="43.751979041844606" lon="6.225900985300541">
        <ele>565.87</ele>
        <time>2025-05-18T10:05:19Z</time>
      </trkpt>
      <trkpt lat="43.751852978020906" lon="6.226089997217059">
        <ele>566.83000000000004</ele>
        <time>2025-05-18T10:05:20Z</time>
      </trkpt>
      <trkpt lat="43.75175298191607" lon="6.226303987205029">
        <ele>567.79999999999995</ele>
        <time>2025-05-18T10:05:21Z</time>
      </trkpt>
      <trkpt lat="43.751673018559813" lon="6.226518983021379">
        <ele>569.24000000000001</ele>
        <time>2025-05-18T10:05:22Z</time>
      </trkpt>
      <trkpt lat="43.751581991091371" lon="6.226705983281136">
        <ele>570.20000000000005</ele>
        <time>2025-05-18T10:05:23Z</time>
      </trkpt>
      <trkpt lat="43.751479983329773" lon="6.226807991042733">
        <ele>571.63999999999999</ele>
        <time>2025-05-18T10:05:24Z</time>
      </trkpt>
      <trkpt lat="43.751370012760162" lon="6.226837998256087">
        <ele>572.60000000000002</ele>
        <time>2025-05-18T10:05:25Z</time>
      </trkpt>
      <trkpt lat="43.751276973634958" lon="6.226787036284804">
        <ele>573.55999999999995</ele>
        <time>2025-05-18T10:05:26Z</time>
      </trkpt>
      <trkpt lat="43.751164991408587" lon="6.226703971624374">
        <ele>575.00999999999999</ele>
        <time>2025-05-18T10:05:27Z</time>
      </trkpt>
      <trkpt lat="43.751077987253666" lon="6.226559970527887">
        <ele>575.97000000000003</ele>
        <time>2025-05-18T10:05:28Z</time>
      </trkpt>
      <trkpt lat="43.750981008633971" lon="6.226398032158613">
        <ele>576.92999999999995</ele>
        <time>2025-05-18T10:05:29Z</time>
      </trkpt>
      <trkpt lat="43.750025974586606" lon="6.22482399456203">
        <ele>589.42999999999995</ele>
        <time>2025-05-18T10:05:37Z</time>
      </trkpt>
      <trkpt lat="43.749506967142224" lon="6.223975997418165">
        <ele>595.66999999999996</ele>
        <time>2025-05-18T10:05:41Z</time>
      </trkpt>
      <trkpt lat="43.749342011287808" lon="6.223810035735369">
        <ele>597.12</ele>
        <time>2025-05-18T10:05:42Z</time>
      </trkpt>
      <trkpt lat="43.747833017259836" lon="6.222467003390193">
        <ele>606.73000000000002</ele>
        <time>2025-05-18T10:05:51Z</time>
      </trkpt>
      <trkpt lat="43.747687004506588" lon="6.222358960658312">
        <ele>607.69000000000005</ele>
        <time>2025-05-18T10:05:52Z</time>
      </trkpt>
      <trkpt lat="43.747531017288566" lon="6.222276985645294">
        <ele>608.64999999999998</ele>
        <time>2025-05-18T10:05:53Z</time>
      </trkpt>
      <trkpt lat="43.747362960129976" lon="6.222232980653644">
        <ele>609.61000000000001</ele>
        <time>2025-05-18T10:05:54Z</time>
      </trkpt>
      <trkpt lat="43.747187023982406" lon="6.222188975661993">
        <ele>610.09000000000003</ele>
        <time>2025-05-18T10:05:55Z</time>
      </trkpt>
      <trkpt lat="43.747011004015803" lon="6.222206996753812">
        <ele>611.05999999999995</ele>
        <time>2025-05-18T10:05:56Z</time>
      </trkpt>
      <trkpt lat="43.746836995705962" lon="6.22226600535214">
        <ele>611.53999999999996</ele>
        <time>2025-05-18T10:05:57Z</time>
      </trkpt>
      <trkpt lat="43.746670028194785" lon="6.222330965101719">
        <ele>612.5</ele>
        <time>2025-05-18T10:05:58Z</time>
      </trkpt>
      <trkpt lat="43.746485961601138" lon="6.222402965649962">
        <ele>612.98000000000002</ele>
        <time>2025-05-18T10:05:59Z</time>
      </trkpt>
      <trkpt lat="43.746344977989793" lon="6.222491981461644">
        <ele>613.46000000000004</ele>
        <time>2025-05-18T10:06:00Z</time>
      </trkpt>
      <trkpt lat="43.744755014777184" lon="6.223423965275288">
        <ele>616.34000000000003</ele>
        <time>2025-05-18T10:06:09Z</time>
      </trkpt>
      <trkpt lat="43.744578994810581" lon="6.223463024944067">
        <ele>616.82000000000005</ele>
        <time>2025-05-18T10:06:10Z</time>
      </trkpt>
      <trkpt lat="43.74440498650074" lon="6.223466964438558">
        <ele>616.82000000000005</ele>
        <time>2025-05-18T10:06:11Z</time>
      </trkpt>
      <trkpt lat="43.744239024817944" lon="6.223400998860598">
        <ele>617.29999999999995</ele>
        <time>2025-05-18T10:06:12Z</time>
      </trkpt>
      <trkpt lat="43.744079014286399" lon="6.223324974998832">
        <ele>617.29999999999995</ele>
        <time>2025-05-18T10:06:13Z</time>
      </trkpt>
      <trkpt lat="43.743927972391248" lon="6.223192038014531">
        <ele>617.77999999999997</ele>
        <time>2025-05-18T10:06:14Z</time>
      </trkpt>
      <trkpt lat="43.743769973516464" lon="6.223051976412535">
        <ele>618.25999999999999</ele>
        <time>2025-05-18T10:06:15Z</time>
      </trkpt>
      <trkpt lat="43.742455020546913" lon="6.221925029531121">
        <ele>624.50999999999999</ele>
        <time>2025-05-18T10:06:23Z</time>
      </trkpt>
      <trkpt lat="43.742286041378975" lon="6.221869038417935">
        <ele>625.47000000000003</ele>
        <time>2025-05-18T10:06:24Z</time>
      </trkpt>
      <trkpt lat="43.742115972563624" lon="6.221844982355833">
        <ele>626.44000000000005</ele>
        <time>2025-05-18T10:06:25Z</time>
      </trkpt>
      <trkpt lat="43.741940036416054" lon="6.221874989569187">
        <ele>627.39999999999998</ele>
        <time>2025-05-18T10:06:26Z</time>
      </trkpt>
      <trkpt lat="43.741764016449451" lon="6.221937015652657">
        <ele>627.88</ele>
        <time>2025-05-18T10:06:27Z</time>
      </trkpt>
      <trkpt lat="43.741581961512566" lon="6.222001975402236">
        <ele>628.36000000000001</ele>
        <time>2025-05-18T10:06:28Z</time>
      </trkpt>
      <trkpt lat="43.741205027326941" lon="6.222112029790878">
        <ele>629.32000000000005</ele>
        <time>2025-05-18T10:06:30Z</time>
      </trkpt>
      <trkpt lat="43.741021966561675" lon="6.222141031175852">
        <ele>629.32000000000005</ele>
        <time>2025-05-18T10:06:31Z</time>
      </trkpt>
      <trkpt lat="43.74085902236402" lon="6.222086967900395">
        <ele>629.79999999999995</ele>
        <time>2025-05-18T10:06:32Z</time>
      </trkpt>
      <trkpt lat="43.740702029317617" lon="6.221993006765842">
        <ele>630.27999999999997</ele>
        <time>2025-05-18T10:06:33Z</time>
      </trkpt>
      <trkpt lat="43.74055702239275" lon="6.221866020932794">
        <ele>630.27999999999997</ele>
        <time>2025-05-18T10:06:34Z</time>
      </trkpt>
      <trkpt lat="43.740411009639502" lon="6.221744986250997">
        <ele>630.75999999999999</ele>
        <time>2025-05-18T10:06:35Z</time>
      </trkpt>
      <trkpt lat="43.74025703407824" lon="6.221653036773205">
        <ele>631.24000000000001</ele>
        <time>2025-05-18T10:06:36Z</time>
      </trkpt>
      <trkpt lat="43.74008503742516" lon="6.221630992367864">
        <ele>631.24000000000001</ele>
        <time>2025-05-18T10:06:37Z</time>
      </trkpt>
      <trkpt lat="43.739909017458558" lon="6.221630992367864">
        <ele>631.24000000000001</ele>
        <time>2025-05-18T10:06:38Z</time>
      </trkpt>
      <trkpt lat="43.739706007763743" lon="6.221630992367864">
        <ele>631.24000000000001</ele>
        <time>2025-05-18T10:06:39Z</time>
      </trkpt>
      <trkpt lat="43.73825803399086" lon="6.222048997879028">
        <ele>634.13</ele>
        <time>2025-05-18T10:06:46Z</time>
      </trkpt>
      <trkpt lat="43.737211972475052" lon="6.222526011988521">
        <ele>636.52999999999997</ele>
        <time>2025-05-18T10:06:51Z</time>
      </trkpt>
      <trkpt lat="43.737014997750521" lon="6.222553001716733">
        <ele>637.00999999999999</ele>
        <time>2025-05-18T10:06:52Z</time>
      </trkpt>
      <trkpt lat="43.736823974177241" lon="6.222553001716733">
        <ele>637.49000000000001</ele>
        <time>2025-05-18T10:06:53Z</time>
      </trkpt>
      <trkpt lat="43.73664703220129" lon="6.222515031695366">
        <ele>637.97000000000003</ele>
        <time>2025-05-18T10:06:54Z</time>
      </trkpt>
      <trkpt lat="43.736486015841365" lon="6.222449988126755">
        <ele>638.45000000000005</ele>
        <time>2025-05-18T10:06:55Z</time>
      </trkpt>
      <trkpt lat="43.736333968117833" lon="6.222354015335441">
        <ele>638.92999999999995</ele>
        <time>2025-05-18T10:06:56Z</time>
      </trkpt>
      <trkpt lat="43.736178986728191" lon="6.222229963168502">
        <ele>639.40999999999997</ele>
        <time>2025-05-18T10:06:57Z</time>
      </trkpt>
      <trkpt lat="43.736018976196647" lon="6.222081016749144">
        <ele>639.88999999999999</ele>
        <time>2025-05-18T10:06:58Z</time>
      </trkpt>
      <trkpt lat="43.734649959951639" lon="6.220632959157229">
        <ele>644.70000000000005</ele>
        <time>2025-05-18T10:07:06Z</time>
      </trkpt>
      <trkpt lat="43.733922997489572" lon="6.220027031376958">
        <ele>648.54999999999995</ele>
        <time>2025-05-18T10:07:11Z</time>
      </trkpt>
      <trkpt lat="43.733775978907943" lon="6.219993000850081">
        <ele>648.54999999999995</ele>
        <time>2025-05-18T10:07:12Z</time>
      </trkpt>
      <trkpt lat="43.732409980148077" lon="6.219868026673794">
        <ele>649.02999999999997</ele>
        <time>2025-05-18T10:07:19Z</time>
      </trkpt>
      <trkpt lat="43.731805980205536" lon="6.219828967005014">
        <ele>649.99000000000001</ele>
        <time>2025-05-18T10:07:22Z</time>
      </trkpt>
      <trkpt lat="43.731628032401204" lon="6.21988202445209">
        <ele>649.99000000000001</ele>
        <time>2025-05-18T10:07:23Z</time>
      </trkpt>
      <trkpt lat="43.731458969414234" lon="6.219985038042069">
        <ele>649.99000000000001</ele>
        <time>2025-05-18T10:07:24Z</time>
      </trkpt>
      <trkpt lat="43.731110030785203" lon="6.220202967524529">
        <ele>650.47000000000003</ele>
        <time>2025-05-18T10:07:26Z</time>
      </trkpt>
      <trkpt lat="43.730928981676698" lon="6.220278991386294">
        <ele>650.47000000000003</ele>
        <time>2025-05-18T10:07:27Z</time>
      </trkpt>
      <trkpt lat="43.730734018608928" lon="6.220284020528197">
        <ele>650.47000000000003</ele>
        <time>2025-05-18T10:07:28Z</time>
      </trkpt>
      <trkpt lat="43.728689001873136" lon="6.220343029126525">
        <ele>653.83000000000004</ele>
        <time>2025-05-18T10:07:39Z</time>
      </trkpt>
      <trkpt lat="43.728520022705197" lon="6.220431961119175">
        <ele>654.30999999999995</ele>
        <time>2025-05-18T10:07:40Z</time>
      </trkpt>
      <trkpt lat="43.728344002738595" lon="6.220531035214663">
        <ele>654.30999999999995</ele>
        <time>2025-05-18T10:07:41Z</time>
      </trkpt>
      <trkpt lat="43.726300997659564" lon="6.221676003187895">
        <ele>659.12</ele>
        <time>2025-05-18T10:07:51Z</time>
      </trkpt>
      <trkpt lat="43.724271990358829" lon="6.222793981432915">
        <ele>667.76999999999998</ele>
        <time>2025-05-18T10:08:01Z</time>
      </trkpt>
      <trkpt lat="43.722152039408684" lon="6.223805006593466">
        <ele>679.30999999999995</ele>
        <time>2025-05-18T10:08:12Z</time>
      </trkpt>
      <trkpt lat="43.721960010007024" lon="6.223811963573098">
        <ele>679.78999999999996</ele>
        <time>2025-05-18T10:08:13Z</time>
      </trkpt>
      <trkpt lat="43.720652014017105" lon="6.223493032157421">
        <ele>682.19000000000005</ele>
        <time>2025-05-18T10:08:20Z</time>
      </trkpt>
      <trkpt lat="43.718202989548445" lon="6.222543027251959">
        <ele>676.90999999999997</ele>
        <time>2025-05-18T10:08:32Z</time>
      </trkpt>
      <trkpt lat="43.716486040502787" lon="6.221585981547833">
        <ele>674.98000000000002</ele>
        <time>2025-05-18T10:08:41Z</time>
      </trkpt>
      <trkpt lat="43.71520796790719" lon="6.220701020210981">
        <ele>676.41999999999996</ele>
        <time>2025-05-18T10:08:48Z</time>
      </trkpt>
      <trkpt lat="43.713180972263217" lon="6.219685971736908">
        <ele>672.58000000000004</ele>
        <time>2025-05-18T10:08:58Z</time>
      </trkpt>
      <trkpt lat="43.711708020418882" lon="6.219415990635753">
        <ele>669.22000000000003</ele>
        <time>2025-05-18T10:09:05Z</time>
      </trkpt>
      <trkpt lat="43.711514985188842" lon="6.219471981748939">
        <ele>668.73000000000002</ele>
        <time>2025-05-18T10:09:06Z</time>
      </trkpt>
      <trkpt lat="43.710448974743485" lon="6.219721008092165">
        <ele>666.80999999999995</ele>
        <time>2025-05-18T10:09:11Z</time>
      </trkpt>
      <trkpt lat="43.710230039432645" lon="6.219721008092165">
        <ele>666.33000000000004</ele>
        <time>2025-05-18T10:09:12Z</time>
      </trkpt>
      <trkpt lat="43.710016971454024" lon="6.219708016142249">
        <ele>665.85000000000002</ele>
        <time>2025-05-18T10:09:13Z</time>
      </trkpt>
      <trkpt lat="43.7098110280931" lon="6.219628974795342">
        <ele>665.85000000000002</ele>
        <time>2025-05-18T10:09:14Z</time>
      </trkpt>
      <trkpt lat="43.70959896594286" lon="6.219546999782324">
        <ele>665.85000000000002</ele>
        <time>2025-05-18T10:09:15Z</time>
      </trkpt>
      <trkpt lat="43.707285979762673" lon="6.218539997935295">
        <ele>663.92999999999995</ele>
        <time>2025-05-18T10:09:26Z</time>
      </trkpt>
      <trkpt lat="43.706033974885941" lon="6.218212014064193">
        <ele>663.45000000000005</ele>
        <time>2025-05-18T10:09:32Z</time>
      </trkpt>
      <trkpt lat="43.703208016231656" lon="6.217989977449179">
        <ele>663.92999999999995</ele>
        <time>2025-05-18T10:09:45Z</time>
      </trkpt>
      <trkpt lat="43.700762009248137" lon="6.217944966629148">
        <ele>662.00999999999999</ele>
        <time>2025-05-18T10:09:56Z</time>
      </trkpt>
      <trkpt lat="43.698110980913043" lon="6.217672973871231">
        <ele>667.76999999999998</ele>
        <time>2025-05-18T10:10:08Z</time>
      </trkpt>
      <trkpt lat="43.696335023269057" lon="6.21807798743248">
        <ele>668.73000000000002</ele>
        <time>2025-05-18T10:10:16Z</time>
      </trkpt>
      <trkpt lat="43.694189004600048" lon="6.218729009851813">
        <ele>669.70000000000005</ele>
        <time>2025-05-18T10:10:26Z</time>
      </trkpt>
      <trkpt lat="43.693597996607423" lon="6.21897803619504">
        <ele>670.65999999999997</ele>
        <time>2025-05-18T10:10:29Z</time>
      </trkpt>
      <trkpt lat="43.692052038386464" lon="6.220030970871449">
        <ele>672.10000000000002</ele>
        <time>2025-05-18T10:10:37Z</time>
      </trkpt>
      <trkpt lat="43.69000299833715" lon="6.22140702791512">
        <ele>676.41999999999996</ele>
        <time>2025-05-18T10:10:47Z</time>
      </trkpt>
      <trkpt lat="43.688163002952933" lon="6.222406988963485">
        <ele>677.38999999999999</ele>
        <time>2025-05-18T10:10:56Z</time>
      </trkpt>
      <trkpt lat="43.686212031170726" lon="6.223433017730713">
        <ele>680.26999999999998</ele>
        <time>2025-05-18T10:11:06Z</time>
      </trkpt>
      <trkpt lat="43.685816992074251" lon="6.223537959158421">
        <ele>680.75</ele>
        <time>2025-05-18T10:11:08Z</time>
      </trkpt>
      <trkpt lat="43.685614988207817" lon="6.223523961380124">
        <ele>681.23000000000002</ele>
        <time>2025-05-18T10:11:09Z</time>
      </trkpt>
      <trkpt lat="43.685408961027861" lon="6.223509041592479">
        <ele>681.71000000000004</ele>
        <time>2025-05-18T10:11:10Z</time>
      </trkpt>
      <trkpt lat="43.682819036766887" lon="6.223290022462606">
        <ele>687.96000000000004</ele>
        <time>2025-05-18T10:11:22Z</time>
      </trkpt>
      <trkpt lat="43.680523987859488" lon="6.223079971969128">
        <ele>695.16999999999996</ele>
        <time>2025-05-18T10:11:33Z</time>
      </trkpt>
      <trkpt lat="43.679064027965069" lon="6.222946029156447">
        <ele>701.41999999999996</ele>
        <time>2025-05-18T10:11:42Z</time>
      </trkpt>
      <trkpt lat="43.678185017779469" lon="6.222956003621221">
        <ele>705.75</ele>
        <time>2025-05-18T10:11:49Z</time>
      </trkpt>
      <trkpt lat="43.678060965612531" lon="6.223038984462619">
        <ele>706.71000000000004</ele>
        <time>2025-05-18T10:11:50Z</time>
      </trkpt>
      <trkpt lat="43.67793096229434" lon="6.223135963082314">
        <ele>707.19000000000005</ele>
        <time>2025-05-18T10:11:51Z</time>
      </trkpt>
      <trkpt lat="43.677806993946433" lon="6.22323595918715">
        <ele>707.66999999999996</ele>
        <time>2025-05-18T10:11:52Z</time>
      </trkpt>
      <trkpt lat="43.677694005891681" lon="6.223375014960766">
        <ele>707.66999999999996</ele>
        <time>2025-05-18T10:11:53Z</time>
      </trkpt>
      <trkpt lat="43.676993027329445" lon="6.224188981577754">
        <ele>708.63</ele>
        <time>2025-05-18T10:11:59Z</time>
      </trkpt>
      <trkpt lat="43.676885990425944" lon="6.224255030974746">
        <ele>708.63</ele>
        <time>2025-05-18T10:12:00Z</time>
      </trkpt>
      <trkpt lat="43.676792029291391" lon="6.224313033744693">
        <ele>709.59000000000003</ele>
        <time>2025-05-18T10:12:02Z</time>
      </trkpt>
      <trkpt lat="43.676778031513095" lon="6.224421998485923">
        <ele>710.07000000000005</ele>
        <time>2025-05-18T10:12:03Z</time>
      </trkpt>
      <trkpt lat="43.676766967400908" lon="6.224507996812463">
        <ele>710.07000000000005</ele>
        <time>2025-05-18T10:12:04Z</time>
      </trkpt>
      <trkpt lat="43.676753975450993" lon="6.224615033715963">
        <ele>710.07000000000005</ele>
        <time>2025-05-18T10:12:05Z</time>
      </trkpt>
      <trkpt lat="43.676696978509426" lon="6.224745959043503">
        <ele>710.07000000000005</ele>
        <time>2025-05-18T10:12:06Z</time>
      </trkpt>
      <trkpt lat="43.676632018759847" lon="6.224857019260526">
        <ele>710.54999999999995</ele>
        <time>2025-05-18T10:12:07Z</time>
      </trkpt>
      <trkpt lat="43.676560018211603" lon="6.224981993436813">
        <ele>710.54999999999995</ele>
        <time>2025-05-18T10:12:08Z</time>
      </trkpt>
      <trkpt lat="43.675799025222659" lon="6.226082034409046">
        <ele>711.99000000000001</ele>
        <time>2025-05-18T10:12:15Z</time>
      </trkpt>
      <trkpt lat="43.674645004794002" lon="6.227730000391603">
        <ele>714.39999999999998</ele>
        <time>2025-05-18T10:12:23Z</time>
      </trkpt>
      <trkpt lat="43.673086976632476" lon="6.229953970760107">
        <ele>719.20000000000005</ele>
        <time>2025-05-18T10:12:33Z</time>
      </trkpt>
      <trkpt lat="43.671469017863274" lon="6.232265029102564">
        <ele>724.97000000000003</ele>
        <time>2025-05-18T10:12:43Z</time>
      </trkpt>
      <trkpt lat="43.669863967224956" lon="6.234555970877409">
        <ele>730.25999999999999</ele>
        <time>2025-05-18T10:12:53Z</time>
      </trkpt>
      <trkpt lat="43.668912034481764" lon="6.235897997394204">
        <ele>731.22000000000003</ele>
        <time>2025-05-18T10:12:59Z</time>
      </trkpt>
      <trkpt lat="43.668499980121851" lon="6.236446006223559">
        <ele>733.13999999999999</ele>
        <time>2025-05-18T10:13:02Z</time>
      </trkpt>
      <trkpt lat="43.668348016217351" lon="6.236597970128059">
        <ele>733.62</ele>
        <time>2025-05-18T10:13:03Z</time>
      </trkpt>
      <trkpt lat="43.668191023170948" lon="6.236722022294998">
        <ele>734.58000000000004</ele>
        <time>2025-05-18T10:13:04Z</time>
      </trkpt>
      <trkpt lat="43.668018020689487" lon="6.236811960116029">
        <ele>735.07000000000005</ele>
        <time>2025-05-18T10:13:05Z</time>
      </trkpt>
      <trkpt lat="43.66783102042973" lon="6.236860994249582">
        <ele>735.54999999999995</ele>
        <time>2025-05-18T10:13:06Z</time>
      </trkpt>
      <trkpt lat="43.667645025998354" lon="6.236910028383136">
        <ele>736.02999999999997</ele>
        <time>2025-05-18T10:13:07Z</time>
      </trkpt>
      <trkpt lat="43.66746699437499" lon="6.236956967040896">
        <ele>736.50999999999999</ele>
        <time>2025-05-18T10:13:08Z</time>
      </trkpt>
      <trkpt lat="43.667297009378672" lon="6.237000972032547">
        <ele>737.47000000000003</ele>
        <time>2025-05-18T10:13:09Z</time>
      </trkpt>
      <trkpt lat="43.667149990797043" lon="6.237098034471273">
        <ele>737.95000000000005</ele>
        <time>2025-05-18T10:13:10Z</time>
      </trkpt>
      <trkpt lat="43.667017975822091" lon="6.237214040011168">
        <ele>737.95000000000005</ele>
        <time>2025-05-18T10:13:11Z</time>
      </trkpt>
      <trkpt lat="43.666897024959326" lon="6.237319987267256">
        <ele>737.95000000000005</ele>
        <time>2025-05-18T10:13:12Z</time>
      </trkpt>
      <trkpt lat="43.666785964742303" lon="6.237417971715331">
        <ele>738.42999999999995</ele>
        <time>2025-05-18T10:13:13Z</time>
      </trkpt>
      <trkpt lat="43.666707007214427" lon="6.237487960606813">
        <ele>738.90999999999997</ele>
        <time>2025-05-18T10:13:14Z</time>
      </trkpt>
      <trkpt lat="43.666631989181042" lon="6.237515034154058">
        <ele>739.38999999999999</ele>
        <time>2025-05-18T10:13:15Z</time>
      </trkpt>
      <trkpt lat="43.666592007502913" lon="6.237529031932354">
        <ele>739.87</ele>
        <time>2025-05-18T10:13:16Z</time>
      </trkpt>
      <trkpt lat="43.666465021669865" lon="6.237606983631849">
        <ele>740.35000000000002</ele>
        <time>2025-05-18T10:13:19Z</time>
      </trkpt>
      <trkpt lat="43.666453035548329" lon="6.237683007493615">
        <ele>739.87</ele>
        <time>2025-05-18T10:13:20Z</time>
      </trkpt>
      <trkpt lat="43.666436020284891" lon="6.237793983891606">
        <ele>739.38999999999999</ele>
        <time>2025-05-18T10:13:21Z</time>
      </trkpt>
      <trkpt lat="43.666364019736648" lon="6.238246019929647">
        <ele>739.87</ele>
        <time>2025-05-18T10:13:24Z</time>
      </trkpt>
      <trkpt lat="43.666339041665196" lon="6.238612979650497">
        <ele>741.78999999999996</ele>
        <time>2025-05-18T10:13:26Z</time>
      </trkpt>
      <trkpt lat="43.666336024180055" lon="6.238810960203409">
        <ele>742.75999999999999</ele>
        <time>2025-05-18T10:13:27Z</time>
      </trkpt>
      <trkpt lat="43.666332000866532" lon="6.23902796767652">
        <ele>743.72000000000003</ele>
        <time>2025-05-18T10:13:28Z</time>
      </trkpt>
      <trkpt lat="43.666295036673546" lon="6.239911001175642">
        <ele>746.12</ele>
        <time>2025-05-18T10:13:32Z</time>
      </trkpt>
      <trkpt lat="43.666220018640161" lon="6.240103030577302">
        <ele>746.60000000000002</ele>
        <time>2025-05-18T10:13:33Z</time>
      </trkpt>
      <trkpt lat="43.665691958740354" lon="6.241778992116451">
        <ele>750.45000000000005</ele>
        <time>2025-05-18T10:13:40Z</time>
      </trkpt>
      <trkpt lat="43.66520999930799" lon="6.243564002215862">
        <ele>757.65999999999997</ele>
        <time>2025-05-18T10:13:47Z</time>
      </trkpt>
      <trkpt lat="43.665107991546392" lon="6.243751002475619">
        <ele>758.62</ele>
        <time>2025-05-18T10:13:48Z</time>
      </trkpt>
      <trkpt lat="43.665014030411839" lon="6.243915036320686">
        <ele>760.05999999999995</ele>
        <time>2025-05-18T10:13:49Z</time>
      </trkpt>
      <trkpt lat="43.664923002943397" lon="6.24407404102385">
        <ele>761.01999999999998</ele>
        <time>2025-05-18T10:13:50Z</time>
      </trkpt>
      <trkpt lat="43.664854019880295" lon="6.244257017970085">
        <ele>761.5</ele>
        <time>2025-05-18T10:13:51Z</time>
      </trkpt>
      <trkpt lat="43.664832981303334" lon="6.244475031271577">
        <ele>762.46000000000004</ele>
        <time>2025-05-18T10:13:52Z</time>
      </trkpt>
      <trkpt lat="43.664810014888644" lon="6.244704024866223">
        <ele>762.94000000000005</ele>
        <time>2025-05-18T10:13:53Z</time>
      </trkpt>
      <trkpt lat="43.664787970483303" lon="6.244936035946012">
        <ele>763.89999999999998</ele>
        <time>2025-05-18T10:13:54Z</time>
      </trkpt>
      <trkpt lat="43.664744971320033" lon="6.245162012055516">
        <ele>764.38999999999999</ele>
        <time>2025-05-18T10:13:55Z</time>
      </trkpt>
      <trkpt lat="43.66467397660017" lon="6.245373990386725">
        <ele>765.35000000000002</ele>
        <time>2025-05-18T10:13:56Z</time>
      </trkpt>
      <trkpt lat="43.66458697244525" lon="6.245561996474862">
        <ele>766.30999999999995</ele>
        <time>2025-05-18T10:13:57Z</time>
      </trkpt>
      <trkpt lat="43.6644980404526" lon="6.245752014219761">
        <ele>766.78999999999996</ele>
        <time>2025-05-18T10:13:58Z</time>
      </trkpt>
      <trkpt lat="43.664407012984157" lon="6.245946977287531">
        <ele>767.26999999999998</ele>
        <time>2025-05-18T10:13:59Z</time>
      </trkpt>
      <trkpt lat="43.664315985515714" lon="6.246142024174333">
        <ele>767.75</ele>
        <time>2025-05-18T10:14:00Z</time>
      </trkpt>
      <trkpt lat="43.664218001067638" lon="6.246327012777329">
        <ele>768.71000000000004</ele>
        <time>2025-05-18T10:14:01Z</time>
      </trkpt>
      <trkpt lat="43.664083974435925" lon="6.246453998610377">
        <ele>769.19000000000005</ele>
        <time>2025-05-18T10:14:02Z</time>
      </trkpt>
      <trkpt lat="43.663948019966483" lon="6.246582996100187">
        <ele>769.19000000000005</ele>
        <time>2025-05-18T10:14:03Z</time>
      </trkpt>
      <trkpt lat="43.663807958364487" lon="6.246718028560281">
        <ele>769.66999999999996</ele>
        <time>2025-05-18T10:14:04Z</time>
      </trkpt>
      <trkpt lat="43.663703016936779" lon="6.246902011334896">
        <ele>770.63</ele>
        <time>2025-05-18T10:14:05Z</time>
      </trkpt>
      <trkpt lat="43.66359799169004" lon="6.247088005766273">
        <ele>770.63</ele>
        <time>2025-05-18T10:14:06Z</time>
      </trkpt>
      <trkpt lat="43.663279982283711" lon="6.247646994888783">
        <ele>772.08000000000004</ele>
        <time>2025-05-18T10:14:09Z</time>
      </trkpt>
      <trkpt lat="43.663203958421946" lon="6.247868025675416">
        <ele>772.08000000000004</ele>
        <time>2025-05-18T10:14:10Z</time>
      </trkpt>
      <trkpt lat="43.663128018379211" lon="6.248096013441682">
        <ele>773.03999999999996</ele>
        <time>2025-05-18T10:14:11Z</time>
      </trkpt>
      <trkpt lat="43.663053000345826" lon="6.248320983722806">
        <ele>773.03999999999996</ele>
        <time>2025-05-18T10:14:12Z</time>
      </trkpt>
      <trkpt lat="43.662978988140821" lon="6.24854201450944">
        <ele>773.51999999999998</ele>
        <time>2025-05-18T10:14:13Z</time>
      </trkpt>
      <trkpt lat="43.662862982600927" lon="6.248713005334139">
        <ele>774</ele>
        <time>2025-05-18T10:14:14Z</time>
      </trkpt>
      <trkpt lat="43.662743959575891" lon="6.248878967016935">
        <ele>774</ele>
        <time>2025-05-18T10:14:15Z</time>
      </trkpt>
      <trkpt lat="43.662629965692759" lon="6.249035960063338">
        <ele>774.48000000000002</ele>
        <time>2025-05-18T10:14:16Z</time>
      </trkpt>
      <trkpt lat="43.662533992901444" lon="6.249219020828605">
        <ele>774.48000000000002</ele>
        <time>2025-05-18T10:14:17Z</time>
      </trkpt>
      <trkpt lat="43.662453023716807" lon="6.249415995553136">
        <ele>774.48000000000002</ele>
        <time>2025-05-18T10:14:18Z</time>
      </trkpt>
      <trkpt lat="43.662396026775241" lon="6.249631997197866">
        <ele>774.48000000000002</ele>
        <time>2025-05-18T10:14:19Z</time>
      </trkpt>
      <trkpt lat="43.662339029833674" lon="6.249852022156119">
        <ele>774.48000000000002</ele>
        <time>2025-05-18T10:14:20Z</time>
      </trkpt>
      <trkpt lat="43.662065025418997" lon="6.250973017886281">
        <ele>776.39999999999998</ele>
        <time>2025-05-18T10:14:25Z</time>
      </trkpt>
      <trkpt lat="43.66200702264905" lon="6.251221038401127">
        <ele>777.36000000000001</ele>
        <time>2025-05-18T10:14:26Z</time>
      </trkpt>
      <trkpt lat="43.662020014598966" lon="6.251427987590432">
        <ele>777.84000000000003</ele>
        <time>2025-05-18T10:14:27Z</time>
      </trkpt>
      <trkpt lat="43.662033006548882" lon="6.251652035862207">
        <ele>778.32000000000005</ele>
        <time>2025-05-18T10:14:28Z</time>
      </trkpt>
      <trkpt lat="43.662044992670417" lon="6.251856973394752">
        <ele>778.80999999999995</ele>
        <time>2025-05-18T10:14:29Z</time>
      </trkpt>
      <trkpt lat="43.662023032084107" lon="6.252069035544992">
        <ele>779.28999999999996</ele>
        <time>2025-05-18T10:14:30Z</time>
      </trkpt>
      <trkpt lat="43.661978021264076" lon="6.252259975299239">
        <ele>779.76999999999998</ele>
        <time>2025-05-18T10:14:31Z</time>
      </trkpt>
      <trkpt lat="43.661934016272426" lon="6.252447981387377">
        <ele>780.73000000000002</ele>
        <time>2025-05-18T10:14:32Z</time>
      </trkpt>
      <trkpt lat="43.661899985745549" lon="6.252630958333612">
        <ele>781.21000000000004</ele>
        <time>2025-05-18T10:14:33Z</time>
      </trkpt>
      <trkpt lat="43.661896968260407" lon="6.252821981906891">
        <ele>782.16999999999996</ele>
        <time>2025-05-18T10:14:34Z</time>
      </trkpt>
      <trkpt lat="43.661894034594297" lon="6.253021974116564">
        <ele>783.13</ele>
        <time>2025-05-18T10:14:35Z</time>
      </trkpt>
      <trkpt lat="43.66188196465373" lon="6.253910036757588">
        <ele>786.5</ele>
        <time>2025-05-18T10:14:39Z</time>
      </trkpt>
      <trkpt lat="43.66187802515924" lon="6.254161996766925">
        <ele>786.98000000000002</ele>
        <time>2025-05-18T10:14:40Z</time>
      </trkpt>
      <trkpt lat="43.661813987419009" lon="6.254386967048049">
        <ele>787.46000000000004</ele>
        <time>2025-05-18T10:14:41Z</time>
      </trkpt>
      <trkpt lat="43.661747016012669" lon="6.254620989784598">
        <ele>787.94000000000005</ele>
        <time>2025-05-18T10:14:42Z</time>
      </trkpt>
      <trkpt lat="43.661679960787296" lon="6.254857024177909">
        <ele>788.89999999999998</ele>
        <time>2025-05-18T10:14:43Z</time>
      </trkpt>
      <trkpt lat="43.661619024351239" lon="6.255083000287414">
        <ele>789.38</ele>
        <time>2025-05-18T10:14:44Z</time>
      </trkpt>
      <trkpt lat="43.661596979945898" lon="6.255321968346834">
        <ele>789.86000000000001</ele>
        <time>2025-05-18T10:14:45Z</time>
      </trkpt>
      <trkpt lat="43.661576025187969" lon="6.255553979426622">
        <ele>790.82000000000005</ele>
        <time>2025-05-18T10:14:46Z</time>
      </trkpt>
      <trkpt lat="43.66155699826777" lon="6.255768975242972">
        <ele>791.29999999999995</ele>
        <time>2025-05-18T10:14:47Z</time>
      </trkpt>
      <trkpt lat="43.661475023254752" lon="6.255955975502729">
        <ele>791.77999999999997</ele>
        <time>2025-05-18T10:14:48Z</time>
      </trkpt>
      <trkpt lat="43.661390030756593" lon="6.256152028217912">
        <ele>791.77999999999997</ele>
        <time>2025-05-18T10:14:49Z</time>
      </trkpt>
      <trkpt lat="43.661301014944911" lon="6.256355959922075">
        <ele>792.25999999999999</ele>
        <time>2025-05-18T10:14:50Z</time>
      </trkpt>
      <trkpt lat="43.661208981648088" lon="6.256567016243935">
        <ele>792.74000000000001</ele>
        <time>2025-05-18T10:14:51Z</time>
      </trkpt>
      <trkpt lat="43.661138992756605" lon="6.256807995960116">
        <ele>792.74000000000001</ele>
        <time>2025-05-18T10:14:52Z</time>
      </trkpt>
      <trkpt lat="43.661073027178645" lon="6.257056016474962">
        <ele>793.71000000000004</ele>
        <time>2025-05-18T10:14:53Z</time>
      </trkpt>
      <trkpt lat="43.660761974751949" lon="6.258224034681916">
        <ele>797.54999999999995</ele>
        <time>2025-05-18T10:14:58Z</time>
      </trkpt>
      <trkpt lat="43.660672958940268" lon="6.258422015234828">
        <ele>798.50999999999999</ele>
        <time>2025-05-18T10:14:59Z</time>
      </trkpt>
      <trkpt lat="43.66056902334094" lon="6.258605998009443">
        <ele>799.47000000000003</ele>
        <time>2025-05-18T10:15:00Z</time>
      </trkpt>
      <trkpt lat="43.660466009750962" lon="6.258786963298917">
        <ele>800.44000000000005</ele>
        <time>2025-05-18T10:15:01Z</time>
      </trkpt>
      <trkpt lat="43.660362996160984" lon="6.258969018235803">
        <ele>800.91999999999996</ele>
        <time>2025-05-18T10:15:02Z</time>
      </trkpt>
      <trkpt lat="43.660269035026431" lon="6.259175967425108">
        <ele>801.88</ele>
        <time>2025-05-18T10:15:03Z</time>
      </trkpt>
      <trkpt lat="43.660206003114581" lon="6.259417030960321">
        <ele>802.36000000000001</ele>
        <time>2025-05-18T10:15:04Z</time>
      </trkpt>
      <trkpt lat="43.659967035055161" lon="6.260411962866783">
        <ele>805.24000000000001</ele>
        <time>2025-05-18T10:15:08Z</time>
      </trkpt>
      <trkpt lat="43.659934010356665" lon="6.260663000866771">
        <ele>805.72000000000003</ele>
        <time>2025-05-18T10:15:09Z</time>
      </trkpt>
      <trkpt lat="43.659790009260178" lon="6.26156103797257">
        <ele>808.61000000000001</ele>
        <time>2025-05-18T10:15:13Z</time>
      </trkpt>
      <trkpt lat="43.659706022590399" lon="6.261739991605282">
        <ele>809.09000000000003</ele>
        <time>2025-05-18T10:15:14Z</time>
      </trkpt>
      <trkpt lat="43.659599991515279" lon="6.261910982429981">
        <ele>809.09000000000003</ele>
        <time>2025-05-18T10:15:15Z</time>
      </trkpt>
      <trkpt lat="43.659491026774049" lon="6.262087002396584">
        <ele>809.57000000000005</ele>
        <time>2025-05-18T10:15:16Z</time>
      </trkpt>
      <trkpt lat="43.659380972385406" lon="6.262263022363186">
        <ele>810.04999999999995</ele>
        <time>2025-05-18T10:15:17Z</time>
      </trkpt>
      <trkpt lat="43.658616039901972" lon="6.263494994491339">
        <ele>813.88999999999999</ele>
        <time>2025-05-18T10:15:25Z</time>
      </trkpt>
      <trkpt lat="43.657942973077297" lon="6.264579026028514">
        <ele>812.92999999999995</ele>
        <time>2025-05-18T10:15:34Z</time>
      </trkpt>
      <trkpt lat="43.6577960383147" lon="6.264814976602793">
        <ele>812.45000000000005</ele>
        <time>2025-05-18T10:15:36Z</time>
      </trkpt>
      <trkpt lat="43.657650025561452" lon="6.265051010996103">
        <ele>811.97000000000003</ele>
        <time>2025-05-18T10:15:38Z</time>
      </trkpt>
      <trkpt lat="43.657505018636584" lon="6.265284027904272">
        <ele>811.49000000000001</ele>
        <time>2025-05-18T10:15:40Z</time>
      </trkpt>
      <trkpt lat="43.657435029745102" lon="6.265397015959024">
        <ele>811.49000000000001</ele>
        <time>2025-05-18T10:15:41Z</time>
      </trkpt>
      <trkpt lat="43.657208969816566" lon="6.265755007043481">
        <ele>811.49000000000001</ele>
        <time>2025-05-18T10:15:44Z</time>
      </trkpt>
      <trkpt lat="43.65713101811707" lon="6.265867995098233">
        <ele>811.49000000000001</ele>
        <time>2025-05-18T10:15:45Z</time>
      </trkpt>
      <trkpt lat="43.656268017366529" lon="6.267114970833063">
        <ele>808.61000000000001</ele>
        <time>2025-05-18T10:15:54Z</time>
      </trkpt>
      <trkpt lat="43.65605897270143" lon="6.267443038523197">
        <ele>807.63999999999999</ele>
        <time>2025-05-18T10:15:56Z</time>
      </trkpt>
      <trkpt lat="43.655958976596594" lon="6.267613023519516">
        <ele>807.15999999999997</ele>
        <time>2025-05-18T10:15:57Z</time>
      </trkpt>
      <trkpt lat="43.655873984098434" lon="6.267807986587286">
        <ele>806.20000000000005</ele>
        <time>2025-05-18T10:15:58Z</time>
      </trkpt>
      <trkpt lat="43.655784968286753" lon="6.268013007938862">
        <ele>805.24000000000001</ele>
        <time>2025-05-18T10:15:59Z</time>
      </trkpt>
      <trkpt lat="43.6556910071522" lon="6.268225992098451">
        <ele>804.27999999999997</ele>
        <time>2025-05-18T10:16:00Z</time>
      </trkpt>
      <trkpt lat="43.655044008046389" lon="6.269704978913069">
        <ele>794.66999999999996</ele>
        <time>2025-05-18T10:16:07Z</time>
      </trkpt>
      <trkpt lat="43.654459035024047" lon="6.271052034571767">
        <ele>784.09000000000003</ele>
        <time>2025-05-18T10:16:14Z</time>
      </trkpt>
      <trkpt lat="43.654332971200347" lon="6.271409019827843">
        <ele>780.73000000000002</ele>
        <time>2025-05-18T10:16:16Z</time>
      </trkpt>
      <trkpt lat="43.654281003400683" lon="6.271556038409472">
        <ele>778.80999999999995</ele>
        <time>2025-05-18T10:16:17Z</time>
      </trkpt>
      <trkpt lat="43.654162986204028" lon="6.271889973431826">
        <ele>774.48000000000002</ele>
        <time>2025-05-18T10:16:20Z</time>
      </trkpt>
      <trkpt lat="43.654127027839422" lon="6.271993992850184">
        <ele>773.51999999999998</ele>
        <time>2025-05-18T10:16:21Z</time>
      </trkpt>
      <trkpt lat="43.654088973999023" lon="6.272099018096924">
        <ele>772.08000000000004</ele>
        <time>2025-05-18T10:16:22Z</time>
      </trkpt>
      <trkpt lat="43.65405997261405" lon="6.272191973403096">
        <ele>770.63</ele>
        <time>2025-05-18T10:16:23Z</time>
      </trkpt>
      <trkpt lat="43.654028959572315" lon="6.272291969507933">
        <ele>769.19000000000005</ele>
        <time>2025-05-18T10:16:24Z</time>
      </trkpt>
      <trkpt lat="43.653997024521232" lon="6.272390959784389">
        <ele>768.23000000000002</ele>
        <time>2025-05-18T10:16:25Z</time>
      </trkpt>
      <trkpt lat="43.653831984847784" lon="6.272936034947634">
        <ele>767.26999999999998</ele>
        <time>2025-05-18T10:16:31Z</time>
      </trkpt>
      <trkpt lat="43.653794014826417" lon="6.273020021617413">
        <ele>766.78999999999996</ele>
        <time>2025-05-18T10:16:32Z</time>
      </trkpt>
      <trkpt lat="43.653750009834766" lon="6.273117000237107">
        <ele>766.78999999999996</ele>
        <time>2025-05-18T10:16:33Z</time>
      </trkpt>
      <trkpt lat="43.653710028156638" lon="6.273204004392028">
        <ele>766.30999999999995</ele>
        <time>2025-05-18T10:16:34Z</time>
      </trkpt>
      <trkpt lat="43.65367298014462" lon="6.273285979405046">
        <ele>765.83000000000004</ele>
        <time>2025-05-18T10:16:35Z</time>
      </trkpt>
      <trkpt lat="43.653637021780014" lon="6.273365020751953">
        <ele>765.35000000000002</ele>
        <time>2025-05-18T10:16:36Z</time>
      </trkpt>
      <trkpt lat="43.653598967939615" lon="6.273449007421732">
        <ele>764.87</ele>
        <time>2025-05-18T10:16:37Z</time>
      </trkpt>
      <trkpt lat="43.653558986261487" lon="6.273537017405033">
        <ele>764.87</ele>
        <time>2025-05-18T10:16:38Z</time>
      </trkpt>
      <trkpt lat="43.653389001265168" lon="6.273897020146251">
        <ele>766.78999999999996</ele>
        <time>2025-05-18T10:16:42Z</time>
      </trkpt>
      <trkpt lat="43.653325969353318" lon="6.273973966017366">
        <ele>766.78999999999996</ele>
        <time>2025-05-18T10:16:43Z</time>
      </trkpt>
      <trkpt lat="43.653114996850491" lon="6.274194996803999">
        <ele>765.83000000000004</ele>
        <time>2025-05-18T10:16:46Z</time>
      </trkpt>
      <trkpt lat="43.653032016009092" lon="6.274263979867101">
        <ele>764.87</ele>
        <time>2025-05-18T10:16:47Z</time>
      </trkpt>
      <trkpt lat="43.652943000197411" lon="6.274340003728867">
        <ele>763.89999999999998</ele>
        <time>2025-05-18T10:16:48Z</time>
      </trkpt>
      <trkpt lat="43.652045968919992" lon="6.275175008922815">
        <ele>758.62</ele>
        <time>2025-05-18T10:16:55Z</time>
      </trkpt>
      <trkpt lat="43.651339039206505" lon="6.275995010510087">
        <ele>755.25</ele>
        <time>2025-05-18T10:17:00Z</time>
      </trkpt>
      <trkpt lat="43.65107199177146" lon="6.276222998276353">
        <ele>754.76999999999998</ele>
        <time>2025-05-18T10:17:02Z</time>
      </trkpt>
      <trkpt lat="43.65096302703023" lon="6.27638996578753">
        <ele>754.76999999999998</ele>
        <time>2025-05-18T10:17:03Z</time>
      </trkpt>
      <trkpt lat="43.65087702870369" lon="6.276580989360809">
        <ele>754.28999999999996</ele>
        <time>2025-05-18T10:17:04Z</time>
      </trkpt>
      <trkpt lat="43.650000030174851" lon="6.277982024475932">
        <ele>748.51999999999998</ele>
        <time>2025-05-18T10:17:11Z</time>
      </trkpt>
      <trkpt lat="43.649795008823276" lon="6.27830196171999">
        <ele>747.55999999999995</ele>
        <time>2025-05-18T10:17:13Z</time>
      </trkpt>
      <trkpt lat="43.649720996618271" lon="6.278387038037181">
        <ele>747.55999999999995</ele>
        <time>2025-05-18T10:17:14Z</time>
      </trkpt>
      <trkpt lat="43.649626029655337" lon="6.27845099195838">
        <ele>747.55999999999995</ele>
        <time>2025-05-18T10:17:15Z</time>
      </trkpt>
      <trkpt lat="43.649544976651669" lon="6.27847395837307">
        <ele>747.55999999999995</ele>
        <time>2025-05-18T10:17:16Z</time>
      </trkpt>
      <trkpt lat="43.649459984153509" lon="6.278498014435172">
        <ele>748.03999999999996</ele>
        <time>2025-05-18T10:17:17Z</time>
      </trkpt>
      <trkpt lat="43.649317994713783" lon="6.278586024418473">
        <ele>748.51999999999998</ele>
        <time>2025-05-18T10:17:18Z</time>
      </trkpt>
      <trkpt lat="43.649303996935487" lon="6.278681997209787">
        <ele>749.49000000000001</ele>
        <time>2025-05-18T10:17:19Z</time>
      </trkpt>
      <trkpt lat="43.649286981672049" lon="6.278791967779398">
        <ele>750.45000000000005</ele>
        <time>2025-05-18T10:17:20Z</time>
      </trkpt>
      <trkpt lat="43.6492670327425" lon="6.278921971097589">
        <ele>751.88999999999999</ele>
        <time>2025-05-18T10:17:21Z</time>
      </trkpt>
      <trkpt lat="43.649239959195256" lon="6.279093967750669">
        <ele>752.37</ele>
        <time>2025-05-18T10:17:22Z</time>
      </trkpt>
      <trkpt lat="43.649186985567212" lon="6.279199998825789">
        <ele>753.33000000000004</ele>
        <time>2025-05-18T10:17:23Z</time>
      </trkpt>
      <trkpt lat="43.64907500334084" lon="6.279345005750656">
        <ele>753.33000000000004</ele>
        <time>2025-05-18T10:17:24Z</time>
      </trkpt>
      <trkpt lat="43.64894500002265" lon="6.279475009068847">
        <ele>753.33000000000004</ele>
        <time>2025-05-18T10:17:25Z</time>
      </trkpt>
      <trkpt lat="43.648509979248047" lon="6.27991002984345">
        <ele>752.85000000000002</ele>
        <time>2025-05-18T10:17:28Z</time>
      </trkpt>
      <trkpt lat="43.648428004235029" lon="6.280037015676498">
        <ele>752.85000000000002</ele>
        <time>2025-05-18T10:17:29Z</time>
      </trkpt>
      <trkpt lat="43.648316022008657" lon="6.280209012329578">
        <ele>752.37</ele>
        <time>2025-05-18T10:17:30Z</time>
      </trkpt>
      <trkpt lat="43.648035982623696" lon="6.280507994815707">
        <ele>752.37</ele>
        <time>2025-05-18T10:17:32Z</time>
      </trkpt>
      <trkpt lat="43.64701297134161" lon="6.28158699721098">
        <ele>751.88999999999999</ele>
        <time>2025-05-18T10:17:39Z</time>
      </trkpt>
      <trkpt lat="43.646909035742283" lon="6.281775003299117">
        <ele>751.88999999999999</ele>
        <time>2025-05-18T10:17:40Z</time>
      </trkpt>
      <trkpt lat="43.646141001954675" lon="6.283601000905037">
        <ele>758.13999999999999</ele>
        <time>2025-05-18T10:17:48Z</time>
      </trkpt>
      <trkpt lat="43.645957019180059" lon="6.284051025286317">
        <ele>760.53999999999996</ele>
        <time>2025-05-18T10:17:50Z</time>
      </trkpt>
      <trkpt lat="43.645836990326643" lon="6.28425101749599">
        <ele>762.46000000000004</ele>
        <time>2025-05-18T10:17:51Z</time>
      </trkpt>
      <trkpt lat="43.645566003397107" lon="6.284613031893969">
        <ele>766.30999999999995</ele>
        <time>2025-05-18T10:17:53Z</time>
      </trkpt>
      <trkpt lat="43.64542200230062" lon="6.284757032990456">
        <ele>768.23000000000002</ele>
        <time>2025-05-18T10:17:54Z</time>
      </trkpt>
      <trkpt lat="43.64527003839612" lon="6.284908996894956">
        <ele>770.14999999999998</ele>
        <time>2025-05-18T10:17:55Z</time>
      </trkpt>
      <trkpt lat="43.64510097540915" lon="6.285014022141695">
        <ele>772.55999999999995</ele>
        <time>2025-05-18T10:17:56Z</time>
      </trkpt>
      <trkpt lat="43.644924033433199" lon="6.285124998539686">
        <ele>774.96000000000004</ele>
        <time>2025-05-18T10:17:57Z</time>
      </trkpt>
      <trkpt lat="43.644569981843233" lon="6.285345023497939">
        <ele>778.32000000000005</ele>
        <time>2025-05-18T10:17:59Z</time>
      </trkpt>
      <trkpt lat="43.644405025988817" lon="6.285448037087917">
        <ele>779.28999999999996</ele>
        <time>2025-05-18T10:18:00Z</time>
      </trkpt>
      <trkpt lat="43.644263036549091" lon="6.285566976293922">
        <ele>779.76999999999998</ele>
        <time>2025-05-18T10:18:01Z</time>
      </trkpt>
      <trkpt lat="43.644152982160449" lon="6.285716006532311">
        <ele>780.25</ele>
        <time>2025-05-18T10:18:02Z</time>
      </trkpt>
      <trkpt lat="43.644040999934077" lon="6.285866964608431">
        <ele>780.73000000000002</ele>
        <time>2025-05-18T10:18:03Z</time>
      </trkpt>
      <trkpt lat="43.64391703158617" lon="6.286020018160343">
        <ele>781.21000000000004</ele>
        <time>2025-05-18T10:18:04Z</time>
      </trkpt>
      <trkpt lat="43.643762972205877" lon="6.286133006215096">
        <ele>782.16999999999996</ele>
        <time>2025-05-18T10:18:05Z</time>
      </trkpt>
      <trkpt lat="43.643601033836603" lon="6.28625001758337">
        <ele>783.13</ele>
        <time>2025-05-18T10:18:06Z</time>
      </trkpt>
      <trkpt lat="43.643447980284691" lon="6.286360993981361">
        <ele>783.61000000000001</ele>
        <time>2025-05-18T10:18:07Z</time>
      </trkpt>
      <trkpt lat="43.64323197863996" lon="6.286518992856145">
        <ele>784.57000000000005</ele>
        <time>2025-05-18T10:18:09Z</time>
      </trkpt>
      <trkpt lat="43.643193002790213" lon="6.286656036973">
        <ele>785.04999999999995</ele>
        <time>2025-05-18T10:18:10Z</time>
      </trkpt>
      <trkpt lat="43.643156038597226" lon="6.28678604029119">
        <ele>785.52999999999997</ele>
        <time>2025-05-18T10:18:11Z</time>
      </trkpt>
      <trkpt lat="43.643113961443305" lon="6.286930041387677">
        <ele>786.01999999999998</ele>
        <time>2025-05-18T10:18:12Z</time>
      </trkpt>
      <trkpt lat="43.64309904165566" lon="6.287073036655784">
        <ele>786.5</ele>
        <time>2025-05-18T10:18:13Z</time>
      </trkpt>
      <trkpt lat="43.643093006685376" lon="6.287243021652103">
        <ele>786.98000000000002</ele>
        <time>2025-05-18T10:18:14Z</time>
      </trkpt>
      <trkpt lat="43.643086971715093" lon="6.28741099499166">
        <ele>787.46000000000004</ele>
        <time>2025-05-18T10:18:15Z</time>
      </trkpt>
      <trkpt lat="43.643071968108416" lon="6.287599001079798">
        <ele>787.94000000000005</ele>
        <time>2025-05-18T10:18:16Z</time>
      </trkpt>
      <trkpt lat="43.643020000308752" lon="6.287755994126201">
        <ele>788.41999999999996</ele>
        <time>2025-05-18T10:18:17Z</time>
      </trkpt>
      <trkpt lat="43.642920004203916" lon="6.287922961637378">
        <ele>788.89999999999998</ele>
        <time>2025-05-18T10:18:18Z</time>
      </trkpt>
      <trkpt lat="43.642807016149163" lon="6.288066040724516">
        <ele>789.38</ele>
        <time>2025-05-18T10:18:19Z</time>
      </trkpt>
      <trkpt lat="43.642688998952508" lon="6.288213981315494">
        <ele>789.38</ele>
        <time>2025-05-18T10:18:20Z</time>
      </trkpt>
      <trkpt lat="43.642569975927472" lon="6.288364017382264">
        <ele>788.89999999999998</ele>
        <time>2025-05-18T10:18:21Z</time>
      </trkpt>
      <trkpt lat="43.642426980659366" lon="6.288487985730171">
        <ele>788.89999999999998</ele>
        <time>2025-05-18T10:18:22Z</time>
      </trkpt>
      <trkpt lat="43.641390977427363" lon="6.289159040898085">
        <ele>784.09000000000003</ele>
        <time>2025-05-18T10:18:29Z</time>
      </trkpt>
      <trkpt lat="43.640435021370649" lon="6.290408028289676">
        <ele>778.32000000000005</ele>
        <time>2025-05-18T10:18:37Z</time>
      </trkpt>
      <trkpt lat="43.639889024198055" lon="6.291360966861248">
        <ele>775.44000000000005</ele>
        <time>2025-05-18T10:18:43Z</time>
      </trkpt>
      <trkpt lat="43.639264991506934" lon="6.292877001687884">
        <ele>771.60000000000002</ele>
        <time>2025-05-18T10:18:50Z</time>
      </trkpt>
      <trkpt lat="43.639035997912288" lon="6.293735979124904">
        <ele>769.66999999999996</ele>
        <time>2025-05-18T10:18:54Z</time>
      </trkpt>
      <trkpt lat="43.638984030112624" lon="6.293939994648099">
        <ele>769.19000000000005</ele>
        <time>2025-05-18T10:18:55Z</time>
      </trkpt>
      <trkpt lat="43.638879004865885" lon="6.295224018394947">
        <ele>767.26999999999998</ele>
        <time>2025-05-18T10:19:00Z</time>
      </trkpt>
      <trkpt lat="43.638875987380743" lon="6.2958740349859">
        <ele>765.83000000000004</ele>
        <time>2025-05-18T10:19:03Z</time>
      </trkpt>
      <trkpt lat="43.638826031237841" lon="6.295995991677046">
        <ele>765.35000000000002</ele>
        <time>2025-05-18T10:19:04Z</time>
      </trkpt>
      <trkpt lat="43.638753024861217" lon="6.296172011643648">
        <ele>765.83000000000004</ele>
        <time>2025-05-18T10:19:05Z</time>
      </trkpt>
      <trkpt lat="43.638677000999451" lon="6.296354988589883">
        <ele>766.30999999999995</ele>
        <time>2025-05-18T10:19:06Z</time>
      </trkpt>
      <trkpt lat="43.638614974915981" lon="6.29656202159822">
        <ele>766.30999999999995</ele>
        <time>2025-05-18T10:19:07Z</time>
      </trkpt>
      <trkpt lat="43.638599971309304" lon="6.296804007142782">
        <ele>766.78999999999996</ele>
        <time>2025-05-18T10:19:08Z</time>
      </trkpt>
      <trkpt lat="43.638510033488274" lon="6.298072021454573">
        <ele>766.30999999999995</ele>
        <time>2025-05-18T10:19:13Z</time>
      </trkpt>
      <trkpt lat="43.638378018513322" lon="6.298748021945357">
        <ele>766.30999999999995</ele>
        <time>2025-05-18T10:19:16Z</time>
      </trkpt>
      <trkpt lat="43.638361003249884" lon="6.298952959477902">
        <ele>766.30999999999995</ele>
        <time>2025-05-18T10:19:17Z</time>
      </trkpt>
      <trkpt lat="43.638361003249884" lon="6.299138031899929">
        <ele>766.30999999999995</ele>
        <time>2025-05-18T10:19:18Z</time>
      </trkpt>
      <trkpt lat="43.638361003249884" lon="6.299306005239487">
        <ele>766.78999999999996</ele>
        <time>2025-05-18T10:19:19Z</time>
      </trkpt>
      <trkpt lat="43.638361003249884" lon="6.299469033256173">
        <ele>767.26999999999998</ele>
        <time>2025-05-18T10:19:20Z</time>
      </trkpt>
      <trkpt lat="43.638340970501304" lon="6.299644969403744">
        <ele>767.26999999999998</ele>
        <time>2025-05-18T10:19:21Z</time>
      </trkpt>
      <trkpt lat="43.638266958296299" lon="6.299782013520598">
        <ele>767.26999999999998</ele>
        <time>2025-05-18T10:19:22Z</time>
      </trkpt>
      <trkpt lat="43.638189006596804" lon="6.299928026273847">
        <ele>767.26999999999998</ele>
        <time>2025-05-18T10:19:23Z</time>
      </trkpt>
      <trkpt lat="43.638105019927025" lon="6.300084013491869">
        <ele>766.78999999999996</ele>
        <time>2025-05-18T10:19:24Z</time>
      </trkpt>
      <trkpt lat="43.638033019378781" lon="6.300244024023414">
        <ele>766.78999999999996</ele>
        <time>2025-05-18T10:19:25Z</time>
      </trkpt>
      <trkpt lat="43.637970993295312" lon="6.300419038161635">
        <ele>766.30999999999995</ele>
        <time>2025-05-18T10:19:26Z</time>
      </trkpt>
      <trkpt lat="43.637928999960423" lon="6.300592962652445">
        <ele>765.83000000000004</ele>
        <time>2025-05-18T10:19:27Z</time>
      </trkpt>
      <trkpt lat="43.637921959161758" lon="6.300770994275808">
        <ele>765.35000000000002</ele>
        <time>2025-05-18T10:19:28Z</time>
      </trkpt>
      <trkpt lat="43.63790201023221" lon="6.301283966749907">
        <ele>764.87</ele>
        <time>2025-05-18T10:19:31Z</time>
      </trkpt>
      <trkpt lat="43.637895975261927" lon="6.301449006423354">
        <ele>765.35000000000002</ele>
        <time>2025-05-18T10:19:32Z</time>
      </trkpt>
      <trkpt lat="43.637889018282294" lon="6.301625026389957">
        <ele>764.87</ele>
        <time>2025-05-18T10:19:33Z</time>
      </trkpt>
      <trkpt lat="43.637818023562431" lon="6.301931971684098">
        <ele>764.87</ele>
        <time>2025-05-18T10:19:35Z</time>
      </trkpt>
      <trkpt lat="43.63738602027297" lon="6.303311968222261">
        <ele>763.41999999999996</ele>
        <time>2025-05-18T10:19:41Z</time>
      </trkpt>
      <trkpt lat="43.63667699508369" lon="6.305066971108317">
        <ele>758.13999999999999</ele>
        <time>2025-05-18T10:19:48Z</time>
      </trkpt>
      <trkpt lat="43.636598037555814" lon="6.305323038250208">
        <ele>757.17999999999995</ele>
        <time>2025-05-18T10:19:49Z</time>
      </trkpt>
      <trkpt lat="43.636253960430622" lon="6.306517962366343">
        <ele>754.28999999999996</ele>
        <time>2025-05-18T10:19:54Z</time>
      </trkpt>
      <trkpt lat="43.636163016781211" lon="6.306689959019423">
        <ele>754.28999999999996</ele>
        <time>2025-05-18T10:19:55Z</time>
      </trkpt>
      <trkpt lat="43.636081041768193" lon="6.306845024228096">
        <ele>753.80999999999995</ele>
        <time>2025-05-18T10:19:56Z</time>
      </trkpt>
      <trkpt lat="43.635998982936144" lon="6.307000005617738">
        <ele>752.85000000000002</ele>
        <time>2025-05-18T10:19:57Z</time>
      </trkpt>
      <trkpt lat="43.635929999873042" lon="6.30717501975596">
        <ele>752.37</ele>
        <time>2025-05-18T10:19:58Z</time>
      </trkpt>
      <trkpt lat="43.635906027629972" lon="6.307388003915548">
        <ele>751.88999999999999</ele>
        <time>2025-05-18T10:19:59Z</time>
      </trkpt>
      <trkpt lat="43.635879037901759" lon="6.307616997510195">
        <ele>750.92999999999995</ele>
        <time>2025-05-18T10:20:00Z</time>
      </trkpt>
      <trkpt lat="43.635772000998259" lon="6.308564990758896">
        <ele>747.08000000000004</ele>
        <time>2025-05-18T10:20:04Z</time>
      </trkpt>
      <trkpt lat="43.635742999613285" lon="6.308813011273742">
        <ele>746.12</ele>
        <time>2025-05-18T10:20:05Z</time>
      </trkpt>
      <trkpt lat="43.635686002671719" lon="6.308977967128158">
        <ele>745.15999999999997</ele>
        <time>2025-05-18T10:20:06Z</time>
      </trkpt>
      <trkpt lat="43.635572008788586" lon="6.309081986546516">
        <ele>744.20000000000005</ele>
        <time>2025-05-18T10:20:07Z</time>
      </trkpt>
      <trkpt lat="43.63543395884335" lon="6.309158010408282">
        <ele>745.63999999999999</ele>
        <time>2025-05-18T10:20:08Z</time>
      </trkpt>
      <trkpt lat="43.635296998545527" lon="6.309234034270048">
        <ele>745.63999999999999</ele>
        <time>2025-05-18T10:20:09Z</time>
      </trkpt>
      <trkpt lat="43.63515199162066" lon="6.309313997626305">
        <ele>745.15999999999997</ele>
        <time>2025-05-18T10:20:10Z</time>
      </trkpt>
      <trkpt lat="43.635002039372921" lon="6.309395972639322">
        <ele>744.20000000000005</ele>
        <time>2025-05-18T10:20:11Z</time>
      </trkpt>
      <trkpt lat="43.634876981377602" lon="6.309539973735809">
        <ele>743.72000000000003</ele>
        <time>2025-05-18T10:20:12Z</time>
      </trkpt>
      <trkpt lat="43.634755024686456" lon="6.309705013409257">
        <ele>742.75999999999999</ele>
        <time>2025-05-18T10:20:13Z</time>
      </trkpt>
      <trkpt lat="43.634629966691136" lon="6.309873992577195">
        <ele>742.27999999999997</ele>
        <time>2025-05-18T10:20:14Z</time>
      </trkpt>
      <trkpt lat="43.634499963372946" lon="6.310029979795218">
        <ele>741.78999999999996</ele>
        <time>2025-05-18T10:20:15Z</time>
      </trkpt>
      <trkpt lat="43.634370965883136" lon="6.310144979506731">
        <ele>741.30999999999995</ele>
        <time>2025-05-18T10:20:16Z</time>
      </trkpt>
      <trkpt lat="43.634243980050087" lon="6.310165012255311">
        <ele>740.35000000000002</ele>
        <time>2025-05-18T10:20:17Z</time>
      </trkpt>
      <trkpt lat="43.634125040844083" lon="6.310165012255311">
        <ele>740.35000000000002</ele>
        <time>2025-05-18T10:20:18Z</time>
      </trkpt>
      <trkpt lat="43.634003000333905" lon="6.310165012255311">
        <ele>739.87</ele>
        <time>2025-05-18T10:20:19Z</time>
      </trkpt>
      <trkpt lat="43.633870985358953" lon="6.310165012255311">
        <ele>739.87</ele>
        <time>2025-05-18T10:20:20Z</time>
      </trkpt>
      <trkpt lat="43.633730001747608" lon="6.310227960348129">
        <ele>740.35000000000002</ele>
        <time>2025-05-18T10:20:21Z</time>
      </trkpt>
      <trkpt lat="43.633591029793024" lon="6.31031303666532">
        <ele>739.87</ele>
        <time>2025-05-18T10:20:22Z</time>
      </trkpt>
      <trkpt lat="43.633444011211395" lon="6.310403980314732">
        <ele>739.87</ele>
        <time>2025-05-18T10:20:23Z</time>
      </trkpt>
      <trkpt lat="43.633308978751302" lon="6.310526020824909">
        <ele>739.38999999999999</ele>
        <time>2025-05-18T10:20:24Z</time>
      </trkpt>
      <trkpt lat="43.633178975433111" lon="6.310642026364803">
        <ele>738.42999999999995</ele>
        <time>2025-05-18T10:20:25Z</time>
      </trkpt>
      <trkpt lat="43.633056012913585" lon="6.310753002762795">
        <ele>737.95000000000005</ele>
        <time>2025-05-18T10:20:26Z</time>
      </trkpt>
      <trkpt lat="43.632830958813429" lon="6.310956012457609">
        <ele>737.47000000000003</ele>
        <time>2025-05-18T10:20:28Z</time>
      </trkpt>
      <trkpt lat="43.632714031264186" lon="6.311004962772131">
        <ele>736.99000000000001</ele>
        <time>2025-05-18T10:20:29Z</time>
      </trkpt>
      <trkpt lat="43.632581010460854" lon="6.311041004955769">
        <ele>736.50999999999999</ele>
        <time>2025-05-18T10:20:30Z</time>
      </trkpt>
      <trkpt lat="43.632437009364367" lon="6.311079980805516">
        <ele>735.54999999999995</ele>
        <time>2025-05-18T10:20:31Z</time>
      </trkpt>
      <trkpt lat="43.632284961640835" lon="6.311128009110689">
        <ele>735.54999999999995</ele>
        <time>2025-05-18T10:20:32Z</time>
      </trkpt>
      <trkpt lat="43.632136015221477" lon="6.311190035194159">
        <ele>735.07000000000005</ele>
        <time>2025-05-18T10:20:33Z</time>
      </trkpt>
      <trkpt lat="43.631991008296609" lon="6.311298999935389">
        <ele>734.58000000000004</ele>
        <time>2025-05-18T10:20:34Z</time>
      </trkpt>
      <trkpt lat="43.631852036342025" lon="6.311437971889973">
        <ele>734.58000000000004</ele>
        <time>2025-05-18T10:20:35Z</time>
      </trkpt>
      <trkpt lat="43.631706023588777" lon="6.311593959107995">
        <ele>734.10000000000002</ele>
        <time>2025-05-18T10:20:36Z</time>
      </trkpt>
      <trkpt lat="43.631565039977431" lon="6.311784982681274">
        <ele>733.62</ele>
        <time>2025-05-18T10:20:37Z</time>
      </trkpt>
      <trkpt lat="43.631422966718674" lon="6.311979023739696">
        <ele>732.65999999999997</ele>
        <time>2025-05-18T10:20:38Z</time>
      </trkpt>
      <trkpt lat="43.630329966545105" lon="6.313331024721265">
        <ele>725.92999999999995</ele>
        <time>2025-05-18T10:20:45Z</time>
      </trkpt>
      <trkpt lat="43.630031989887357" lon="6.313703013584018">
        <ele>724.00999999999999</ele>
        <time>2025-05-18T10:20:47Z</time>
      </trkpt>
      <trkpt lat="43.629902992397547" lon="6.313917003571987">
        <ele>723.04999999999995</ele>
        <time>2025-05-18T10:20:48Z</time>
      </trkpt>
      <trkpt lat="43.629527986049652" lon="6.314572971314192">
        <ele>720.15999999999997</ele>
        <time>2025-05-18T10:20:51Z</time>
      </trkpt>
      <trkpt lat="43.62943897023797" lon="6.314809005707502">
        <ele>719.20000000000005</ele>
        <time>2025-05-18T10:20:52Z</time>
      </trkpt>
      <trkpt lat="43.62935003824532" lon="6.315046967938542">
        <ele>718.72000000000003</ele>
        <time>2025-05-18T10:20:53Z</time>
      </trkpt>
      <trkpt lat="43.629236966371536" lon="6.315274033695459">
        <ele>717.75999999999999</ele>
        <time>2025-05-18T10:20:54Z</time>
      </trkpt>
      <trkpt lat="43.629106041043997" lon="6.315479977056384">
        <ele>717.27999999999997</ele>
        <time>2025-05-18T10:20:55Z</time>
      </trkpt>
      <trkpt lat="43.628489971160889" lon="6.316761989146471">
        <ele>711.02999999999997</ele>
        <time>2025-05-18T10:21:01Z</time>
      </trkpt>
      <trkpt lat="43.628444960340858" lon="6.316976984962821">
        <ele>710.07000000000005</ele>
        <time>2025-05-18T10:21:02Z</time>
      </trkpt>
      <trkpt lat="43.628430962562561" lon="6.317219976335764">
        <ele>709.11000000000001</ele>
        <time>2025-05-18T10:21:03Z</time>
      </trkpt>
      <trkpt lat="43.628415958955884" lon="6.317481994628906">
        <ele>707.66999999999996</ele>
        <time>2025-05-18T10:21:04Z</time>
      </trkpt>
      <trkpt lat="43.628400033339858" lon="6.317758010700345">
        <ele>706.71000000000004</ele>
        <time>2025-05-18T10:21:05Z</time>
      </trkpt>
      <trkpt lat="43.628343036398292" lon="6.318803988397121">
        <ele>702.86000000000001</ele>
        <time>2025-05-18T10:21:09Z</time>
      </trkpt>
      <trkpt lat="43.6283840239048" lon="6.319018984213471">
        <ele>702.38</ele>
        <time>2025-05-18T10:21:10Z</time>
      </trkpt>
      <trkpt lat="43.62846901640296" lon="6.319454004988074">
        <ele>700.46000000000004</ele>
        <time>2025-05-18T10:21:12Z</time>
      </trkpt>
      <trkpt lat="43.62846901640296" lon="6.319665983319283">
        <ele>699.98000000000002</ele>
        <time>2025-05-18T10:21:13Z</time>
      </trkpt>
      <trkpt lat="43.62846901640296" lon="6.319856001064181">
        <ele>699.01999999999998</ele>
        <time>2025-05-18T10:21:14Z</time>
      </trkpt>
      <trkpt lat="43.628497011959553" lon="6.320035960525274">
        <ele>699.01999999999998</ele>
        <time>2025-05-18T10:21:15Z</time>
      </trkpt>
      <trkpt lat="43.628532970324159" lon="6.320199994370341">
        <ele>698.04999999999995</ele>
        <time>2025-05-18T10:21:16Z</time>
      </trkpt>
      <trkpt lat="43.628575969487429" lon="6.320399986580014">
        <ele>697.09000000000003</ele>
        <time>2025-05-18T10:21:17Z</time>
      </trkpt>
      <trkpt lat="43.628546968102455" lon="6.320524038746953">
        <ele>696.61000000000001</ele>
        <time>2025-05-18T10:21:18Z</time>
      </trkpt>
      <trkpt lat="43.628507992252707" lon="6.32069100625813">
        <ele>695.16999999999996</ele>
        <time>2025-05-18T10:21:19Z</time>
      </trkpt>
      <trkpt lat="43.628416964784265" lon="6.320846993476152">
        <ele>694.21000000000004</ele>
        <time>2025-05-18T10:21:20Z</time>
      </trkpt>
      <trkpt lat="43.628315040841699" lon="6.320962999016047">
        <ele>693.25</ele>
        <time>2025-05-18T10:21:21Z</time>
      </trkpt>
      <trkpt lat="43.628213033080101" lon="6.32107699289918">
        <ele>692.28999999999996</ele>
        <time>2025-05-18T10:21:22Z</time>
      </trkpt>
      <trkpt lat="43.628127034753561" lon="6.321224011480808">
        <ele>691.33000000000004</ele>
        <time>2025-05-18T10:21:23Z</time>
      </trkpt>
      <trkpt lat="43.628074983134866" lon="6.321411011740565">
        <ele>689.88</ele>
        <time>2025-05-18T10:21:24Z</time>
      </trkpt>
      <trkpt lat="43.62799703143537" lon="6.321688033640385">
        <ele>688.91999999999996</ele>
        <time>2025-05-18T10:21:25Z</time>
      </trkpt>
      <trkpt lat="43.62799703143537" lon="6.32180898450315">
        <ele>688.44000000000005</ele>
        <time>2025-05-18T10:21:26Z</time>
      </trkpt>
      <trkpt lat="43.62799703143537" lon="6.322035966441035">
        <ele>687.48000000000002</ele>
        <time>2025-05-18T10:21:27Z</time>
      </trkpt>
      <trkpt lat="43.628021003678441" lon="6.322287004441023">
        <ele>687</ele>
        <time>2025-05-18T10:21:28Z</time>
      </trkpt>
      <trkpt lat="43.628072971478105" lon="6.322519015520811">
        <ele>686.03999999999996</ele>
        <time>2025-05-18T10:21:29Z</time>
      </trkpt>
      <trkpt lat="43.6281250230968" lon="6.322749014943838">
        <ele>685.08000000000004</ele>
        <time>2025-05-18T10:21:30Z</time>
      </trkpt>
      <trkpt lat="43.628175985068083" lon="6.322975996881723">
        <ele>684.60000000000002</ele>
        <time>2025-05-18T10:21:31Z</time>
      </trkpt>
      <trkpt lat="43.628185037523508" lon="6.323209013789892">
        <ele>683.63</ele>
        <time>2025-05-18T10:21:32Z</time>
      </trkpt>
      <trkpt lat="43.628114964812994" lon="6.324536958709359">
        <ele>678.35000000000002</ele>
        <time>2025-05-18T10:21:37Z</time>
      </trkpt>
      <trkpt lat="43.628054028376937" lon="6.324810041114688">
        <ele>677.87</ele>
        <time>2025-05-18T10:21:38Z</time>
      </trkpt>
      <trkpt lat="43.627993008121848" lon="6.325085973367095">
        <ele>676.90999999999997</ele>
        <time>2025-05-18T10:21:39Z</time>
      </trkpt>
      <trkpt lat="43.627894017845392" lon="6.325355032458901">
        <ele>676.41999999999996</ele>
        <time>2025-05-18T10:21:40Z</time>
      </trkpt>
      <trkpt lat="43.627787986770272" lon="6.325603974983096">
        <ele>675.46000000000004</ele>
        <time>2025-05-18T10:21:41Z</time>
      </trkpt>
      <trkpt lat="43.627682961523533" lon="6.325849983841181">
        <ele>674.98000000000002</ele>
        <time>2025-05-18T10:21:42Z</time>
      </trkpt>
      <trkpt lat="43.627478023990989" lon="6.326331021264195">
        <ele>673.53999999999996</ele>
        <time>2025-05-18T10:21:44Z</time>
      </trkpt>
      <trkpt lat="43.627187004312873" lon="6.326740980148315">
        <ele>671.13999999999999</ele>
        <time>2025-05-18T10:21:46Z</time>
      </trkpt>
      <trkpt lat="43.627023976296186" lon="6.32692102342844">
        <ele>670.65999999999997</ele>
        <time>2025-05-18T10:21:47Z</time>
      </trkpt>
      <trkpt lat="43.626287039369345" lon="6.32775804027915">
        <ele>666.80999999999995</ele>
        <time>2025-05-18T10:21:52Z</time>
      </trkpt>
      <trkpt lat="43.626190982758999" lon="6.327922996133566">
        <ele>666.33000000000004</ele>
        <time>2025-05-18T10:21:53Z</time>
      </trkpt>
      <trkpt lat="43.626146977767348" lon="6.328132962808013">
        <ele>665.37</ele>
        <time>2025-05-18T10:21:54Z</time>
      </trkpt>
      <trkpt lat="43.626114958897233" lon="6.32836002856493">
        <ele>664.88999999999999</ele>
        <time>2025-05-18T10:21:55Z</time>
      </trkpt>
      <trkpt lat="43.626082018017769" lon="6.328593967482448">
        <ele>664.88999999999999</ele>
        <time>2025-05-18T10:21:56Z</time>
      </trkpt>
      <trkpt lat="43.625680021941662" lon="6.330604031682015">
        <ele>662.00999999999999</ele>
        <time>2025-05-18T10:22:04Z</time>
      </trkpt>
      <trkpt lat="43.625409035012126" lon="6.332907965406776">
        <ele>660.55999999999995</ele>
        <time>2025-05-18T10:22:12Z</time>
      </trkpt>
      <trkpt lat="43.625270985066891" lon="6.334086041897535">
        <ele>660.55999999999995</ele>
        <time>2025-05-18T10:22:16Z</time>
      </trkpt>
      <trkpt lat="43.625264028087258" lon="6.334320986643434">
        <ele>660.55999999999995</ele>
        <time>2025-05-18T10:22:17Z</time>
      </trkpt>
      <trkpt lat="43.62531297840178" lon="6.334535982459784">
        <ele>660.08000000000004</ele>
        <time>2025-05-18T10:22:18Z</time>
      </trkpt>
      <trkpt lat="43.625367963686585" lon="6.334761958569288">
        <ele>660.08000000000004</ele>
        <time>2025-05-18T10:22:19Z</time>
      </trkpt>
      <trkpt lat="43.625450022518635" lon="6.334988018497825">
        <ele>659.60000000000002</ele>
        <time>2025-05-18T10:22:20Z</time>
      </trkpt>
      <trkpt lat="43.62608696334064" lon="6.336748972535133">
        <ele>656.72000000000003</ele>
        <time>2025-05-18T10:22:27Z</time>
      </trkpt>
      <trkpt lat="43.62625895999372" lon="6.337222969159484">
        <ele>656.24000000000001</ele>
        <time>2025-05-18T10:22:29Z</time>
      </trkpt>
      <trkpt lat="43.626295002177358" lon="6.337463026866317">
        <ele>656.72000000000003</ele>
        <time>2025-05-18T10:22:30Z</time>
      </trkpt>
      <trkpt lat="43.626365996897221" lon="6.337969964370132">
        <ele>656.72000000000003</ele>
        <time>2025-05-18T10:22:32Z</time>
      </trkpt>
      <trkpt lat="43.626365996897221" lon="6.338205998763442">
        <ele>656.24000000000001</ele>
        <time>2025-05-18T10:22:33Z</time>
      </trkpt>
      <trkpt lat="43.626336995512247" lon="6.338447984308004">
        <ele>655.75999999999999</ele>
        <time>2025-05-18T10:22:34Z</time>
      </trkpt>
      <trkpt lat="43.626216966658831" lon="6.33916798979044">
        <ele>654.79999999999995</ele>
        <time>2025-05-18T10:22:37Z</time>
      </trkpt>
      <trkpt lat="43.626145971938968" lon="6.339350966736674">
        <ele>654.79999999999995</ele>
        <time>2025-05-18T10:22:38Z</time>
      </trkpt>
      <trkpt lat="43.626047987490892" lon="6.339481975883246">
        <ele>653.83000000000004</ele>
        <time>2025-05-18T10:22:39Z</time>
      </trkpt>
      <trkpt lat="43.625549012795091" lon="6.340031996369362">
        <ele>650.95000000000005</ele>
        <time>2025-05-18T10:22:43Z</time>
      </trkpt>
      <trkpt lat="43.625049032270908" lon="6.34045603685081">
        <ele>647.59000000000003</ele>
        <time>2025-05-18T10:22:46Z</time>
      </trkpt>
      <trkpt lat="43.624149989336729" lon="6.341536967083812">
        <ele>642.77999999999997</ele>
        <time>2025-05-18T10:22:52Z</time>
      </trkpt>
      <trkpt lat="43.623616984114051" lon="6.34217600338161">
        <ele>640.86000000000001</ele>
        <time>2025-05-18T10:22:57Z</time>
      </trkpt>
      <trkpt lat="43.623527968302369" lon="6.342226965352893">
        <ele>640.38</ele>
        <time>2025-05-18T10:22:58Z</time>
      </trkpt>
      <trkpt lat="43.623440964147449" lon="6.342234006151557">
        <ele>640.38</ele>
        <time>2025-05-18T10:22:59Z</time>
      </trkpt>
      <trkpt lat="43.62335697747767" lon="6.342240963131189">
        <ele>640.38</ele>
        <time>2025-05-18T10:23:00Z</time>
      </trkpt>
      <trkpt lat="43.62327097915113" lon="6.342263007536531">
        <ele>640.86000000000001</ele>
        <time>2025-05-18T10:23:01Z</time>
      </trkpt>
      <trkpt lat="43.623203001916409" lon="6.342291003093123">
        <ele>641.34000000000003</ele>
        <time>2025-05-18T10:23:02Z</time>
      </trkpt>
      <trkpt lat="43.623128989711404" lon="6.342320004478097">
        <ele>642.29999999999995</ele>
        <time>2025-05-18T10:23:03Z</time>
      </trkpt>
      <trkpt lat="43.623054977506399" lon="6.342372978106141">
        <ele>643.25999999999999</ele>
        <time>2025-05-18T10:23:04Z</time>
      </trkpt>
      <trkpt lat="43.622982976958156" lon="6.342435004189611">
        <ele>643.25999999999999</ele>
        <time>2025-05-18T10:23:05Z</time>
      </trkpt>
      <trkpt lat="43.622906031087041" lon="6.342502981424332">
        <ele>643.74000000000001</ele>
        <time>2025-05-18T10:23:06Z</time>
      </trkpt>
      <trkpt lat="43.622821038588881" lon="6.342575987800956">
        <ele>643.74000000000001</ele>
        <time>2025-05-18T10:23:07Z</time>
      </trkpt>
      <trkpt lat="43.6227320227772" lon="6.342654023319483">
        <ele>643.74000000000001</ele>
        <time>2025-05-18T10:23:08Z</time>
      </trkpt>
      <trkpt lat="43.621512036770582" lon="6.343675022944808">
        <ele>643.25999999999999</ele>
        <time>2025-05-18T10:23:20Z</time>
      </trkpt>
      <trkpt lat="43.620423981919885" lon="6.344180032610893">
        <ele>643.25999999999999</ele>
        <time>2025-05-18T10:23:27Z</time>
      </trkpt>
      <trkpt lat="43.619969012215734" lon="6.344436015933752">
        <ele>643.25999999999999</ele>
        <time>2025-05-18T10:23:30Z</time>
      </trkpt>
      <trkpt lat="43.619873039424419" lon="6.344563001766801">
        <ele>643.25999999999999</ele>
        <time>2025-05-18T10:23:31Z</time>
      </trkpt>
      <trkpt lat="43.619818976148963" lon="6.344742961227894">
        <ele>643.25999999999999</ele>
        <time>2025-05-18T10:23:32Z</time>
      </trkpt>
      <trkpt lat="43.619758961722255" lon="6.344943037256599">
        <ele>642.77999999999997</ele>
        <time>2025-05-18T10:23:33Z</time>
      </trkpt>
      <trkpt lat="43.619696013629436" lon="6.345150992274284">
        <ele>642.29999999999995</ele>
        <time>2025-05-18T10:23:34Z</time>
      </trkpt>
      <trkpt lat="43.619544971734285" lon="6.345555000007153">
        <ele>641.82000000000005</ele>
        <time>2025-05-18T10:23:36Z</time>
      </trkpt>
      <trkpt lat="43.619445981457829" lon="6.345732025802136">
        <ele>641.34000000000003</ele>
        <time>2025-05-18T10:23:37Z</time>
      </trkpt>
      <trkpt lat="43.619313966482878" lon="6.345867980271578">
        <ele>641.34000000000003</ele>
        <time>2025-05-18T10:23:38Z</time>
      </trkpt>
      <trkpt lat="43.619173988699913" lon="6.346011981368065">
        <ele>641.34000000000003</ele>
        <time>2025-05-18T10:23:39Z</time>
      </trkpt>
      <trkpt lat="43.619031999260187" lon="6.346158999949694">
        <ele>640.86000000000001</ele>
        <time>2025-05-18T10:23:40Z</time>
      </trkpt>
      <trkpt lat="43.618095992133021" lon="6.347271027043462">
        <ele>637.00999999999999</ele>
        <time>2025-05-18T10:23:46Z</time>
      </trkpt>
      <trkpt lat="43.616071008145809" lon="6.349451998248696">
        <ele>631.72000000000003</ele>
        <time>2025-05-18T10:23:57Z</time>
      </trkpt>
      <trkpt lat="43.614421030506492" lon="6.35072898119688">
        <ele>632.67999999999995</ele>
        <time>2025-05-18T10:24:06Z</time>
      </trkpt>
      <trkpt lat="43.614346012473106" lon="6.350850015878677">
        <ele>633.16999999999996</ele>
        <time>2025-05-18T10:24:07Z</time>
      </trkpt>
      <trkpt lat="43.61428901553154" lon="6.350998040288687">
        <ele>633.64999999999998</ele>
        <time>2025-05-18T10:24:08Z</time>
      </trkpt>
      <trkpt lat="43.614223971962929" lon="6.351170036941767">
        <ele>634.61000000000001</ele>
        <time>2025-05-18T10:24:09Z</time>
      </trkpt>
      <trkpt lat="43.614146020263433" lon="6.35137296281755">
        <ele>635.57000000000005</ele>
        <time>2025-05-18T10:24:10Z</time>
      </trkpt>
      <trkpt lat="43.613975029438734" lon="6.351807983592153">
        <ele>636.04999999999995</ele>
        <time>2025-05-18T10:24:12Z</time>
      </trkpt>
      <trkpt lat="43.61385902389884" lon="6.351987021043897">
        <ele>636.52999999999997</ele>
        <time>2025-05-18T10:24:13Z</time>
      </trkpt>
      <trkpt lat="43.613746035844088" lon="6.352163041010499">
        <ele>637.00999999999999</ele>
        <time>2025-05-18T10:24:14Z</time>
      </trkpt>
      <trkpt lat="43.613628018647432" lon="6.352344006299973">
        <ele>637.49000000000001</ele>
        <time>2025-05-18T10:24:15Z</time>
      </trkpt>
      <trkpt lat="43.613504972308874" lon="6.352534024044871">
        <ele>637.49000000000001</ele>
        <time>2025-05-18T10:24:16Z</time>
      </trkpt>
      <trkpt lat="43.613147987052798" lon="6.353080021217465">
        <ele>637.97000000000003</ele>
        <time>2025-05-18T10:24:19Z</time>
      </trkpt>
      <trkpt lat="43.612987976521254" lon="6.35326199233532">
        <ele>638.45000000000005</ele>
        <time>2025-05-18T10:24:20Z</time>
      </trkpt>
      <trkpt lat="43.612458994612098" lon="6.353898011147976">
        <ele>637.97000000000003</ele>
        <time>2025-05-18T10:24:24Z</time>
      </trkpt>
      <trkpt lat="43.612387999892235" lon="6.354092974215746">
        <ele>637.97000000000003</ele>
        <time>2025-05-18T10:24:25Z</time>
      </trkpt>
      <trkpt lat="43.612318011000752" lon="6.354289026930928">
        <ele>637.97000000000003</ele>
        <time>2025-05-18T10:24:26Z</time>
      </trkpt>
      <trkpt lat="43.612061021849513" lon="6.354929991066456">
        <ele>638.45000000000005</ele>
        <time>2025-05-18T10:24:30Z</time>
      </trkpt>
      <trkpt lat="43.611998995766044" lon="6.355026969686151">
        <ele>638.92999999999995</ele>
        <time>2025-05-18T10:24:31Z</time>
      </trkpt>
      <trkpt lat="43.611920960247517" lon="6.35506896302104">
        <ele>638.92999999999995</ele>
        <time>2025-05-18T10:24:32Z</time>
      </trkpt>
      <trkpt lat="43.611837979406118" lon="6.355056976899505">
        <ele>638.92999999999995</ele>
        <time>2025-05-18T10:24:33Z</time>
      </trkpt>
      <trkpt lat="43.611756004393101" lon="6.354993022978306">
        <ele>639.40999999999997</ele>
        <time>2025-05-18T10:24:34Z</time>
      </trkpt>
      <trkpt lat="43.611672017723322" lon="6.354908030480146">
        <ele>639.88999999999999</ele>
        <time>2025-05-18T10:24:35Z</time>
      </trkpt>
      <trkpt lat="43.61158199608326" lon="6.354818008840084">
        <ele>640.38</ele>
        <time>2025-05-18T10:24:36Z</time>
      </trkpt>
      <trkpt lat="43.611479988321662" lon="6.354717006906867">
        <ele>640.86000000000001</ele>
        <time>2025-05-18T10:24:37Z</time>
      </trkpt>
      <trkpt lat="43.611373035237193" lon="6.354601001366973">
        <ele>641.82000000000005</ele>
        <time>2025-05-18T10:24:38Z</time>
      </trkpt>
      <trkpt lat="43.611114034429193" lon="6.354159023612738">
        <ele>643.25999999999999</ele>
        <time>2025-05-18T10:24:41Z</time>
      </trkpt>
      <trkpt lat="43.611083021387458" lon="6.354010999202728">
        <ele>643.74000000000001</ele>
        <time>2025-05-18T10:24:42Z</time>
      </trkpt>
      <trkpt lat="43.611016971990466" lon="6.353783011436462">
        <ele>644.70000000000005</ele>
        <time>2025-05-18T10:24:44Z</time>
      </trkpt>
      <trkpt lat="43.6109599750489" lon="6.353681003674865">
        <ele>645.17999999999995</ele>
        <time>2025-05-18T10:24:45Z</time>
      </trkpt>
      <trkpt lat="43.610876994207501" lon="6.353660970926285">
        <ele>645.65999999999997</ele>
        <time>2025-05-18T10:24:46Z</time>
      </trkpt>
      <trkpt lat="43.610767023637891" lon="6.353632975369692">
        <ele>646.62</ele>
        <time>2025-05-18T10:24:47Z</time>
      </trkpt>
      <trkpt lat="43.610641965642571" lon="6.353601962327957">
        <ele>647.10000000000002</ele>
        <time>2025-05-18T10:24:48Z</time>
      </trkpt>
      <trkpt lat="43.610243992879987" lon="6.353525016456842">
        <ele>648.07000000000005</ele>
        <time>2025-05-18T10:24:51Z</time>
      </trkpt>
      <trkpt lat="43.610122036188841" lon="6.353591987863183">
        <ele>648.54999999999995</ele>
        <time>2025-05-18T10:24:52Z</time>
      </trkpt>
      <trkpt lat="43.609988009557128" lon="6.353664994239807">
        <ele>649.50999999999999</ele>
        <time>2025-05-18T10:24:53Z</time>
      </trkpt>
      <trkpt lat="43.608948988839984" lon="6.354322973638773">
        <ele>649.50999999999999</ele>
        <time>2025-05-18T10:25:00Z</time>
      </trkpt>
      <trkpt lat="43.608815968036652" lon="6.354332026094198">
        <ele>649.50999999999999</ele>
        <time>2025-05-18T10:25:01Z</time>
      </trkpt>
      <trkpt lat="43.608686970546842" lon="6.354302018880844">
        <ele>649.50999999999999</ele>
        <time>2025-05-18T10:25:02Z</time>
      </trkpt>
      <trkpt lat="43.607468996196985" lon="6.353810001164675">
        <ele>649.99000000000001</ele>
        <time>2025-05-18T10:25:10Z</time>
      </trkpt>
      <trkpt lat="43.607187028974295" lon="6.35369198396802">
        <ele>649.99000000000001</ele>
        <time>2025-05-18T10:25:12Z</time>
      </trkpt>
      <trkpt lat="43.607044033706188" lon="6.353681003674865">
        <ele>649.99000000000001</ele>
        <time>2025-05-18T10:25:13Z</time>
      </trkpt>
      <trkpt lat="43.606899026781321" lon="6.353707993403077">
        <ele>649.50999999999999</ele>
        <time>2025-05-18T10:25:14Z</time>
      </trkpt>
      <trkpt lat="43.606747984886169" lon="6.353764990344644">
        <ele>649.02999999999997</ele>
        <time>2025-05-18T10:25:15Z</time>
      </trkpt>
      <trkpt lat="43.606594009324908" lon="6.353822993114591">
        <ele>648.54999999999995</ele>
        <time>2025-05-18T10:25:16Z</time>
      </trkpt>
      <trkpt lat="43.605637969449162" lon="6.354195987805724">
        <ele>645.17999999999995</ele>
        <time>2025-05-18T10:25:22Z</time>
      </trkpt>
      <trkpt lat="43.605527998879552" lon="6.354342000558972">
        <ele>644.70000000000005</ele>
        <time>2025-05-18T10:25:23Z</time>
      </trkpt>
      <trkpt lat="43.605447029694915" lon="6.354502011090517">
        <ele>644.22000000000003</ele>
        <time>2025-05-18T10:25:24Z</time>
      </trkpt>
      <trkpt lat="43.604747978970408" lon="6.356016034260392">
        <ele>640.86000000000001</ele>
        <time>2025-05-18T10:25:31Z</time>
      </trkpt>
      <trkpt lat="43.604249004274607" lon="6.357030998915434">
        <ele>638.45000000000005</ele>
        <time>2025-05-18T10:25:37Z</time>
      </trkpt>
      <trkpt lat="43.60416904091835" lon="6.357179023325443">
        <ele>636.52999999999997</ele>
        <time>2025-05-18T10:25:42Z</time>
      </trkpt>
      <trkpt lat="43.604156970977783" lon="6.357199978083372">
        <ele>636.04999999999995</ele>
        <time>2025-05-18T10:25:43Z</time>
      </trkpt>
      <trkpt lat="43.604175997897983" lon="6.357254963368177">
        <ele>636.04999999999995</ele>
        <time>2025-05-18T10:25:44Z</time>
      </trkpt>
      <trkpt lat="43.604208016768098" lon="6.357351019978523">
        <ele>635.57000000000005</ele>
        <time>2025-05-18T10:25:45Z</time>
      </trkpt>
      <trkpt lat="43.604242969304323" lon="6.357457973062992">
        <ele>635.09000000000003</ele>
        <time>2025-05-18T10:25:46Z</time>
      </trkpt>
      <trkpt lat="43.604242969304323" lon="6.357612032443285">
        <ele>634.61000000000001</ele>
        <time>2025-05-18T10:25:47Z</time>
      </trkpt>
      <trkpt lat="43.60421497374773" lon="6.357776988297701">
        <ele>634.13</ele>
        <time>2025-05-18T10:25:48Z</time>
      </trkpt>
      <trkpt lat="43.604162000119686" lon="6.357975974678993">
        <ele>633.64999999999998</ele>
        <time>2025-05-18T10:25:49Z</time>
      </trkpt>
      <trkpt lat="43.604103997349739" lon="6.358192982152104">
        <ele>633.64999999999998</ele>
        <time>2025-05-18T10:25:50Z</time>
      </trkpt>
      <trkpt lat="43.603495974093676" lon="6.360282003879547">
        <ele>632.67999999999995</ele>
        <time>2025-05-18T10:25:58Z</time>
      </trkpt>
      <trkpt lat="43.602969003841281" lon="6.362279998138547">
        <ele>633.16999999999996</ele>
        <time>2025-05-18T10:26:06Z</time>
      </trkpt>
      <trkpt lat="43.602979984134436" lon="6.362460963428021">
        <ele>633.64999999999998</ele>
        <time>2025-05-18T10:26:07Z</time>
      </trkpt>
      <trkpt lat="43.603019965812564" lon="6.362649975344539">
        <ele>634.13</ele>
        <time>2025-05-18T10:26:08Z</time>
      </trkpt>
      <trkpt lat="43.603211995214224" lon="6.363204019144177">
        <ele>635.09000000000003</ele>
        <time>2025-05-18T10:26:11Z</time>
      </trkpt>
      <trkpt lat="43.603213001042604" lon="6.363433012738824">
        <ele>634.61000000000001</ele>
        <time>2025-05-18T10:26:12Z</time>
      </trkpt>
      <trkpt lat="43.603163966909051" lon="6.363643985241652">
        <ele>633.64999999999998</ele>
        <time>2025-05-18T10:26:13Z</time>
      </trkpt>
      <trkpt lat="43.603104036301374" lon="6.363838026300073">
        <ele>632.67999999999995</ele>
        <time>2025-05-18T10:26:14Z</time>
      </trkpt>
      <trkpt lat="43.603041004389524" lon="6.364039024338126">
        <ele>631.72000000000003</ele>
        <time>2025-05-18T10:26:15Z</time>
      </trkpt>
      <trkpt lat="43.60299096442759" lon="6.364260977134109">
        <ele>630.75999999999999</ele>
        <time>2025-05-18T10:26:16Z</time>
      </trkpt>
      <trkpt lat="43.602981995791197" lon="6.364508997648954">
        <ele>629.79999999999995</ele>
        <time>2025-05-18T10:26:17Z</time>
      </trkpt>
      <trkpt lat="43.602994987741113" lon="6.364769004285336">
        <ele>629.32000000000005</ele>
        <time>2025-05-18T10:26:18Z</time>
      </trkpt>
      <trkpt lat="43.603018037974834" lon="6.365222968161106">
        <ele>627.88</ele>
        <time>2025-05-18T10:26:20Z</time>
      </trkpt>
      <trkpt lat="43.603055002167821" lon="6.365336962044239">
        <ele>627.39999999999998</ele>
        <time>2025-05-18T10:26:21Z</time>
      </trkpt>
      <trkpt lat="43.603107975795865" lon="6.36544399894774">
        <ele>626.91999999999996</ele>
        <time>2025-05-18T10:26:22Z</time>
      </trkpt>
      <trkpt lat="43.603179976344109" lon="6.365539971739054">
        <ele>626.91999999999996</ele>
        <time>2025-05-18T10:26:23Z</time>
      </trkpt>
      <trkpt lat="43.603275027126074" lon="6.365647008642554">
        <ele>626.91999999999996</ele>
        <time>2025-05-18T10:26:24Z</time>
      </trkpt>
      <trkpt lat="43.603379968553782" lon="6.365763014182448">
        <ele>626.44000000000005</ele>
        <time>2025-05-18T10:26:25Z</time>
      </trkpt>
      <trkpt lat="43.604309018701315" lon="6.366815026849508">
        <ele>626.44000000000005</ele>
        <time>2025-05-18T10:26:32Z</time>
      </trkpt>
      <trkpt lat="43.604438016191125" lon="6.36701200157404">
        <ele>626.91999999999996</ele>
        <time>2025-05-18T10:26:33Z</time>
      </trkpt>
      <trkpt lat="43.605546019971371" lon="6.369109991937876">
        <ele>631.72000000000003</ele>
        <time>2025-05-18T10:26:42Z</time>
      </trkpt>
      <trkpt lat="43.605966037139297" lon="6.369964024052024">
        <ele>633.64999999999998</ele>
        <time>2025-05-18T10:26:46Z</time>
      </trkpt>
      <trkpt lat="43.606028985232115" lon="6.370197040960193">
        <ele>634.13</ele>
        <time>2025-05-18T10:26:47Z</time>
      </trkpt>
      <trkpt lat="43.606093022972345" lon="6.370432991534472">
        <ele>634.61000000000001</ele>
        <time>2025-05-18T10:26:48Z</time>
      </trkpt>
      <trkpt lat="43.606156976893544" lon="6.370673971250653">
        <ele>634.61000000000001</ele>
        <time>2025-05-18T10:26:49Z</time>
      </trkpt>
      <trkpt lat="43.606221014633775" lon="6.370908999815583">
        <ele>634.13</ele>
        <time>2025-05-18T10:26:50Z</time>
      </trkpt>
      <trkpt lat="43.606431987136602" lon="6.372356973588467">
        <ele>630.75999999999999</ele>
        <time>2025-05-18T10:26:57Z</time>
      </trkpt>
      <trkpt lat="43.606410026550293" lon="6.372583033517003">
        <ele>629.79999999999995</ele>
        <time>2025-05-18T10:26:58Z</time>
      </trkpt>
      <trkpt lat="43.606379013508558" lon="6.372817978262901">
        <ele>628.84000000000003</ele>
        <time>2025-05-18T10:26:59Z</time>
      </trkpt>
      <trkpt lat="43.606313969939947" lon="6.37305099517107">
        <ele>627.39999999999998</ele>
        <time>2025-05-18T10:27:00Z</time>
      </trkpt>
      <trkpt lat="43.606228977441788" lon="6.373283006250858">
        <ele>625.96000000000004</ele>
        <time>2025-05-18T10:27:01Z</time>
      </trkpt>
      <trkpt lat="43.606106014922261" lon="6.373487021774054">
        <ele>624.99000000000001</ele>
        <time>2025-05-18T10:27:02Z</time>
      </trkpt>
      <trkpt lat="43.605981040745974" lon="6.373679973185062">
        <ele>623.54999999999995</ele>
        <time>2025-05-18T10:27:03Z</time>
      </trkpt>
      <trkpt lat="43.605821030214429" lon="6.373854987323284">
        <ele>622.11000000000001</ele>
        <time>2025-05-18T10:27:04Z</time>
      </trkpt>
      <trkpt lat="43.605658002197742" lon="6.374034024775028">
        <ele>621.14999999999998</ele>
        <time>2025-05-18T10:27:05Z</time>
      </trkpt>
      <trkpt lat="43.605493968352675" lon="6.374213984236121">
        <ele>620.19000000000005</ele>
        <time>2025-05-18T10:27:06Z</time>
      </trkpt>
      <trkpt lat="43.605041010305285" lon="6.374794011935592">
        <ele>616.82000000000005</ele>
        <time>2025-05-18T10:27:09Z</time>
      </trkpt>
      <trkpt lat="43.604917963966727" lon="6.375040020793676">
        <ele>615.86000000000001</ele>
        <time>2025-05-18T10:27:10Z</time>
      </trkpt>
      <trkpt lat="43.604805981740355" lon="6.375304972752929">
        <ele>613.94000000000005</ele>
        <time>2025-05-18T10:27:11Z</time>
      </trkpt>
      <trkpt lat="43.604705985635519" lon="6.375584006309509">
        <ele>612.01999999999998</ele>
        <time>2025-05-18T10:27:12Z</time>
      </trkpt>
      <trkpt lat="43.604615963995457" lon="6.375873014330864">
        <ele>610.57000000000005</ele>
        <time>2025-05-18T10:27:13Z</time>
      </trkpt>
      <trkpt lat="43.604261996224523" lon="6.377360969781876">
        <ele>602.39999999999998</ele>
        <time>2025-05-18T10:27:18Z</time>
      </trkpt>
      <trkpt lat="43.60423400066793" lon="6.377672022208571">
        <ele>600.48000000000002</ele>
        <time>2025-05-18T10:27:19Z</time>
      </trkpt>
      <trkpt lat="43.604224026203156" lon="6.37799103744328">
        <ele>598.55999999999995</ele>
        <time>2025-05-18T10:27:20Z</time>
      </trkpt>
      <trkpt lat="43.604158982634544" lon="6.380244009196758">
        <ele>586.53999999999996</ele>
        <time>2025-05-18T10:27:27Z</time>
      </trkpt>
      <trkpt lat="43.603984974324703" lon="6.381055964156985">
        <ele>581.25</ele>
        <time>2025-05-18T10:27:30Z</time>
      </trkpt>
      <trkpt lat="43.603885984048247" lon="6.381243970245123">
        <ele>579.80999999999995</ele>
        <time>2025-05-18T10:27:31Z</time>
      </trkpt>
      <trkpt lat="43.603779030963778" lon="6.381406998261809">
        <ele>577.88999999999999</ele>
        <time>2025-05-18T10:27:32Z</time>
      </trkpt>
      <trkpt lat="43.603678029030561" lon="6.381518980488181">
        <ele>576.92999999999995</ele>
        <time>2025-05-18T10:27:33Z</time>
      </trkpt>
      <trkpt lat="43.60361197963357" lon="6.381585029885173">
        <ele>575.49000000000001</ele>
        <time>2025-05-18T10:27:34Z</time>
      </trkpt>
      <trkpt lat="43.603300005197525" lon="6.381746968254447">
        <ele>570.67999999999995</ele>
        <time>2025-05-18T10:27:39Z</time>
      </trkpt>
      <trkpt lat="43.603251976892352" lon="6.381759038195014">
        <ele>570.20000000000005</ele>
        <time>2025-05-18T10:27:40Z</time>
      </trkpt>
      <trkpt lat="43.603220963850617" lon="6.381767001003027">
        <ele>569.72000000000003</ele>
        <time>2025-05-18T10:27:41Z</time>
      </trkpt>
      <trkpt lat="43.603207971900702" lon="6.381771024316549">
        <ele>568.75999999999999</ele>
        <time>2025-05-18T10:27:42Z</time>
      </trkpt>
      <trkpt lat="43.603218030184507" lon="6.381768006831408">
        <ele>568.27999999999997</ele>
        <time>2025-05-18T10:27:43Z</time>
      </trkpt>
      <trkpt lat="43.603234961628914" lon="6.381763983517885">
        <ele>567.79999999999995</ele>
        <time>2025-05-18T10:27:44Z</time>
      </trkpt>
      <trkpt lat="43.603251976892352" lon="6.381759960204363">
        <ele>567.32000000000005</ele>
        <time>2025-05-18T10:27:45Z</time>
      </trkpt>
      <trkpt lat="43.60328902490437" lon="6.381749985739589">
        <ele>566.35000000000002</ele>
        <time>2025-05-18T10:27:52Z</time>
      </trkpt>
      <trkpt lat="43.603325989097357" lon="6.381741017103195">
        <ele>566.35000000000002</ele>
        <time>2025-05-18T10:27:53Z</time>
      </trkpt>
      <trkpt lat="43.6033979896456" lon="6.381718972697854">
        <ele>565.87</ele>
        <time>2025-05-18T10:27:54Z</time>
      </trkpt>
      <trkpt lat="43.603466972708702" lon="6.381681002676487">
        <ele>565.38999999999999</ele>
        <time>2025-05-18T10:27:55Z</time>
      </trkpt>
      <trkpt lat="43.603535033762455" lon="6.38164303265512">
        <ele>565.87</ele>
        <time>2025-05-18T10:27:56Z</time>
      </trkpt>
      <trkpt lat="43.603613991290331" lon="6.381636997684836">
        <ele>565.87</ele>
        <time>2025-05-18T10:27:57Z</time>
      </trkpt>
      <trkpt lat="43.603683980181813" lon="6.381672034040093">
        <ele>565.87</ele>
        <time>2025-05-18T10:27:58Z</time>
      </trkpt>
      <trkpt lat="43.603765033185482" lon="6.381702041253448">
        <ele>565.87</ele>
        <time>2025-05-18T10:27:59Z</time>
      </trkpt>
      <trkpt lat="43.603837033733726" lon="6.38168603181839">
        <ele>566.35000000000002</ele>
        <time>2025-05-18T10:28:00Z</time>
      </trkpt>
      <trkpt lat="43.603907022625208" lon="6.381671028211713">
        <ele>566.35000000000002</ele>
        <time>2025-05-18T10:28:01Z</time>
      </trkpt>
      <trkpt lat="43.603973994031549" lon="6.381657030433416">
        <ele>566.35000000000002</ele>
        <time>2025-05-18T10:28:02Z</time>
      </trkpt>
      <trkpt lat="43.604039959609509" lon="6.38164303265512">
        <ele>566.35000000000002</ele>
        <time>2025-05-18T10:28:03Z</time>
      </trkpt>
      <trkpt lat="43.604091005399823" lon="6.381650995463133">
        <ele>566.35000000000002</ele>
        <time>2025-05-18T10:28:04Z</time>
      </trkpt>
      <trkpt lat="43.604141967371106" lon="6.381663987413049">
        <ele>566.35000000000002</ele>
        <time>2025-05-18T10:28:05Z</time>
      </trkpt>
      <trkpt lat="43.604182032868266" lon="6.381674967706204">
        <ele>566.35000000000002</ele>
        <time>2025-05-18T10:28:06Z</time>
      </trkpt>
      <trkpt lat="43.604216985404491" lon="6.381684020161629">
        <ele>566.35000000000002</ele>
        <time>2025-05-18T10:28:07Z</time>
      </trkpt>
      <trkpt lat="43.604249004274607" lon="6.381691982969642">
        <ele>566.35000000000002</ele>
        <time>2025-05-18T10:28:08Z</time>
      </trkpt>
      <trkpt lat="43.604279011487961" lon="6.381700029596686">
        <ele>565.87</ele>
        <time>2025-05-18T10:28:09Z</time>
      </trkpt>
      <trkpt lat="43.604309018701315" lon="6.381706986576319">
        <ele>565.87</ele>
        <time>2025-05-18T10:28:10Z</time>
      </trkpt>
      <trkpt lat="43.604338020086288" lon="6.381715033203363">
        <ele>566.35000000000002</ele>
        <time>2025-05-18T10:28:11Z</time>
      </trkpt>
      <trkpt lat="43.604356963187456" lon="6.381719978526235">
        <ele>566.35000000000002</ele>
        <time>2025-05-18T10:28:12Z</time>
      </trkpt>
      <trkpt lat="43.604356963187456" lon="6.381719978526235">
        <ele>566.35000000000002</ele>
        <time>2025-05-18T10:28:27Z</time>
      </trkpt>
      <trkpt lat="43.604356963187456" lon="6.381719978526235">
        <ele>566.35000000000002</ele>
        <time>2025-05-18T10:29:06Z</time>
      </trkpt>
      <trkpt lat="43.60446902923286" lon="6.381747974082828">
        <ele>568.27999999999997</ele>
        <time>2025-05-18T10:29:49Z</time>
      </trkpt>
      <trkpt lat="43.604844035580754" lon="6.381800025701523">
        <ele>569.24000000000001</ele>
        <time>2025-05-18T10:29:54Z</time>
      </trkpt>
      <trkpt lat="43.604928022250533" lon="6.381791979074478">
        <ele>569.72000000000003</ele>
        <time>2025-05-18T10:29:55Z</time>
      </trkpt>
      <trkpt lat="43.605189034715295" lon="6.381774041801691">
        <ele>570.67999999999995</ele>
        <time>2025-05-18T10:29:58Z</time>
      </trkpt>
      <trkpt lat="43.605271009728312" lon="6.381789967417717">
        <ele>571.63999999999999</ele>
        <time>2025-05-18T10:29:59Z</time>
      </trkpt>
      <trkpt lat="43.605380980297923" lon="6.381812011823058">
        <ele>573.08000000000004</ele>
        <time>2025-05-18T10:30:00Z</time>
      </trkpt>
      <trkpt lat="43.605570998042822" lon="6.381928017362952">
        <ele>575.97000000000003</ele>
        <time>2025-05-18T10:30:02Z</time>
      </trkpt>
      <trkpt lat="43.60567300580442" lon="6.381990965455771">
        <ele>577.40999999999997</ele>
        <time>2025-05-18T10:30:03Z</time>
      </trkpt>
      <trkpt lat="43.605909962207079" lon="6.382135972380638">
        <ele>581.25</ele>
        <time>2025-05-18T10:30:06Z</time>
      </trkpt>
      <trkpt lat="43.605973999947309" lon="6.382175032049418">
        <ele>581.73000000000002</ele>
        <time>2025-05-18T10:30:07Z</time>
      </trkpt>
      <trkpt lat="43.606026973575354" lon="6.382206967100501">
        <ele>582.70000000000005</ele>
        <time>2025-05-18T10:30:08Z</time>
      </trkpt>
      <trkpt lat="43.606066033244133" lon="6.382231023162603">
        <ele>584.13999999999999</ele>
        <time>2025-05-18T10:30:09Z</time>
      </trkpt>
      <trkpt lat="43.606087993830442" lon="6.3822450209409">
        <ele>585.10000000000002</ele>
        <time>2025-05-18T10:30:10Z</time>
      </trkpt>
      <trkpt lat="43.606111966073513" lon="6.382259018719196">
        <ele>585.58000000000004</ele>
        <time>2025-05-18T10:30:11Z</time>
      </trkpt>
      <trkpt lat="43.606139961630106" lon="6.382341999560595">
        <ele>586.53999999999996</ele>
        <time>2025-05-18T10:30:12Z</time>
      </trkpt>
      <trkpt lat="43.606133004650474" lon="6.382377035915852">
        <ele>587.01999999999998</ele>
        <time>2025-05-18T10:30:13Z</time>
      </trkpt>
      <trkpt lat="43.606123030185699" lon="6.382424980401993">
        <ele>587.98000000000002</ele>
        <time>2025-05-18T10:30:14Z</time>
      </trkpt>
      <trkpt lat="43.606053963303566" lon="6.38274097815156">
        <ele>590.87</ele>
        <time>2025-05-18T10:30:18Z</time>
      </trkpt>
      <trkpt lat="43.605993026867509" lon="6.382883973419666">
        <ele>592.30999999999995</ele>
        <time>2025-05-18T10:30:20Z</time>
      </trkpt>
      <trkpt lat="43.605766966938972" lon="6.383270965889096">
        <ele>595.19000000000005</ele>
        <time>2025-05-18T10:30:25Z</time>
      </trkpt>
      <trkpt lat="43.605751041322947" lon="6.383355958387256">
        <ele>595.66999999999996</ele>
        <time>2025-05-18T10:30:26Z</time>
      </trkpt>
      <trkpt lat="43.605731008574367" lon="6.38347003608942">
        <ele>596.14999999999998</ele>
        <time>2025-05-18T10:30:27Z</time>
      </trkpt>
      <trkpt lat="43.605680968612432" lon="6.3840720243752">
        <ele>597.60000000000002</ele>
        <time>2025-05-18T10:30:32Z</time>
      </trkpt>
      <trkpt lat="43.605658002197742" lon="6.384192975237966">
        <ele>597.60000000000002</ele>
        <time>2025-05-18T10:30:33Z</time>
      </trkpt>
      <trkpt lat="43.605612991377711" lon="6.384318033233285">
        <ele>597.12</ele>
        <time>2025-05-18T10:30:34Z</time>
      </trkpt>
      <trkpt lat="43.605491034686565" lon="6.384538980200887">
        <ele>595.19000000000005</ele>
        <time>2025-05-18T10:30:36Z</time>
      </trkpt>
      <trkpt lat="43.605465972796082" lon="6.384640987962484">
        <ele>594.71000000000004</ele>
        <time>2025-05-18T10:30:37Z</time>
      </trkpt>
      <trkpt lat="43.605465972796082" lon="6.384742995724082">
        <ele>595.19000000000005</ele>
        <time>2025-05-18T10:30:38Z</time>
      </trkpt>
      <trkpt lat="43.605490028858185" lon="6.385134011507034">
        <ele>593.75</ele>
        <time>2025-05-18T10:30:41Z</time>
      </trkpt>
      <trkpt lat="43.60552104189992" lon="6.385268960148096">
        <ele>593.75</ele>
        <time>2025-05-18T10:30:42Z</time>
      </trkpt>
      <trkpt lat="43.605569992214441" lon="6.385368034243584">
        <ele>593.26999999999998</ele>
        <time>2025-05-18T10:30:43Z</time>
      </trkpt>
      <trkpt lat="43.605617014691234" lon="6.385439028963447">
        <ele>592.30999999999995</ele>
        <time>2025-05-18T10:30:44Z</time>
      </trkpt>
      <trkpt lat="43.60567300580442" lon="6.38544799759984">
        <ele>591.35000000000002</ele>
        <time>2025-05-18T10:30:45Z</time>
      </trkpt>
      <trkpt lat="43.605745006352663" lon="6.385459983721376">
        <ele>590.87</ele>
        <time>2025-05-18T10:30:46Z</time>
      </trkpt>
      <trkpt lat="43.605836033821106" lon="6.385444980114698">
        <ele>590.38999999999999</ele>
        <time>2025-05-18T10:30:47Z</time>
      </trkpt>
      <trkpt lat="43.605946004390717" lon="6.38542695902288">
        <ele>590.38999999999999</ele>
        <time>2025-05-18T10:30:48Z</time>
      </trkpt>
      <trkpt lat="43.60604097135365" lon="6.385379014536738">
        <ele>590.38999999999999</ele>
        <time>2025-05-18T10:30:49Z</time>
      </trkpt>
      <trkpt lat="43.606137027963996" lon="6.385283041745424">
        <ele>590.38999999999999</ele>
        <time>2025-05-18T10:30:50Z</time>
      </trkpt>
      <trkpt lat="43.606236018240452" lon="6.385183967649937">
        <ele>590.38999999999999</ele>
        <time>2025-05-18T10:30:51Z</time>
      </trkpt>
      <trkpt lat="43.606353029608727" lon="6.385105010122061">
        <ele>589.90999999999997</ele>
        <time>2025-05-18T10:30:52Z</time>
      </trkpt>
      <trkpt lat="43.606473980471492" lon="6.385024040937424">
        <ele>589.42999999999995</ele>
        <time>2025-05-18T10:30:53Z</time>
      </trkpt>
      <trkpt lat="43.606604989618063" lon="6.384949022904038">
        <ele>588.95000000000005</ele>
        <time>2025-05-18T10:30:54Z</time>
      </trkpt>
      <trkpt lat="43.607602017000318" lon="6.384517019614577">
        <ele>581.25</ele>
        <time>2025-05-18T10:31:01Z</time>
      </trkpt>
      <trkpt lat="43.608005018904805" lon="6.384285008534789">
        <ele>578.85000000000002</ele>
        <time>2025-05-18T10:31:04Z</time>
      </trkpt>
      <trkpt lat="43.608267959207296" lon="6.384132960811257">
        <ele>577.40999999999997</ele>
        <time>2025-05-18T10:31:06Z</time>
      </trkpt>
      <trkpt lat="43.60840399749577" lon="6.384063977748156">
        <ele>576.45000000000005</ele>
        <time>2025-05-18T10:31:07Z</time>
      </trkpt>
      <trkpt lat="43.608554033562541" lon="6.384052997455001">
        <ele>575.49000000000001</ele>
        <time>2025-05-18T10:31:08Z</time>
      </trkpt>
      <trkpt lat="43.609403958544135" lon="6.38398895971477">
        <ele>569.72000000000003</ele>
        <time>2025-05-18T10:31:13Z</time>
      </trkpt>
      <trkpt lat="43.610007036477327" lon="6.383944032713771">
        <ele>564.90999999999997</ele>
        <time>2025-05-18T10:31:17Z</time>
      </trkpt>
      <trkpt lat="43.610128993168473" lon="6.383916037157178">
        <ele>562.99000000000001</ele>
        <time>2025-05-18T10:31:18Z</time>
      </trkpt>
      <trkpt lat="43.610233012586832" lon="6.383839007467032">
        <ele>562.02999999999997</ele>
        <time>2025-05-18T10:31:19Z</time>
      </trkpt>
      <trkpt lat="43.610339965671301" lon="6.383760971948504">
        <ele>560.59000000000003</ele>
        <time>2025-05-18T10:31:20Z</time>
      </trkpt>
      <trkpt lat="43.610456977039576" lon="6.383673967793584">
        <ele>559.13999999999999</ele>
        <time>2025-05-18T10:31:21Z</time>
      </trkpt>
      <trkpt lat="43.611058965325356" lon="6.383270965889096">
        <ele>552.40999999999997</ele>
        <time>2025-05-18T10:31:27Z</time>
      </trkpt>
      <trkpt lat="43.61111001111567" lon="6.383250011131167">
        <ele>551.45000000000005</ele>
        <time>2025-05-18T10:31:28Z</time>
      </trkpt>
      <trkpt lat="43.611193997785449" lon="6.383272977545857">
        <ele>550.49000000000001</ele>
        <time>2025-05-18T10:31:29Z</time>
      </trkpt>
      <trkpt lat="43.611276978626847" lon="6.383295021951199">
        <ele>549.04999999999995</ele>
        <time>2025-05-18T10:31:30Z</time>
      </trkpt>
      <trkpt lat="43.611345961689949" lon="6.383313965052366">
        <ele>548.09000000000003</ele>
        <time>2025-05-18T10:31:31Z</time>
      </trkpt>
      <trkpt lat="43.61143397167325" lon="6.383402980864048">
        <ele>546.64999999999998</ele>
        <time>2025-05-18T10:31:32Z</time>
      </trkpt>
      <trkpt lat="43.611512007191777" lon="6.383505994454026">
        <ele>545.20000000000005</ele>
        <time>2025-05-18T10:31:33Z</time>
      </trkpt>
      <trkpt lat="43.611571015790105" lon="6.383661981672049">
        <ele>544.24000000000001</ele>
        <time>2025-05-18T10:31:34Z</time>
      </trkpt>
      <trkpt lat="43.611635975539684" lon="6.383830038830638">
        <ele>542.79999999999995</ele>
        <time>2025-05-18T10:31:35Z</time>
      </trkpt>
      <trkpt lat="43.611702024936676" lon="6.384003963321447">
        <ele>542.32000000000005</ele>
        <time>2025-05-18T10:31:36Z</time>
      </trkpt>
      <trkpt lat="43.6117750313133" lon="6.384193981066346">
        <ele>541.84000000000003</ele>
        <time>2025-05-18T10:31:37Z</time>
      </trkpt>
      <trkpt lat="43.611799003556371" lon="6.384360026568174">
        <ele>541.36000000000001</ele>
        <time>2025-05-18T10:31:38Z</time>
      </trkpt>
      <trkpt lat="43.611856000497937" lon="6.384822959080339">
        <ele>539.91999999999996</ele>
        <time>2025-05-18T10:31:41Z</time>
      </trkpt>
      <trkpt lat="43.6118199583143" lon="6.384972995147109">
        <ele>539.91999999999996</ele>
        <time>2025-05-18T10:31:42Z</time>
      </trkpt>
      <trkpt lat="43.611768996343017" lon="6.385107021778822">
        <ele>539.44000000000005</ele>
        <time>2025-05-18T10:31:43Z</time>
      </trkpt>
      <trkpt lat="43.611705964431167" lon="6.385250017046928">
        <ele>539.44000000000005</ele>
        <time>2025-05-18T10:31:44Z</time>
      </trkpt>
      <trkpt lat="43.61162499524653" lon="6.385395023971796">
        <ele>539.91999999999996</ele>
        <time>2025-05-18T10:31:45Z</time>
      </trkpt>
      <trkpt lat="43.611104981973767" lon="6.386334970593453">
        <ele>538.48000000000002</ele>
        <time>2025-05-18T10:31:51Z</time>
      </trkpt>
      <trkpt lat="43.611053014174104" lon="6.386477965861559">
        <ele>538.48000000000002</ele>
        <time>2025-05-18T10:31:52Z</time>
      </trkpt>
      <trkpt lat="43.61102300696075" lon="6.386638982221484">
        <ele>537.99000000000001</ele>
        <time>2025-05-18T10:31:53Z</time>
      </trkpt>
      <trkpt lat="43.610912030562758" lon="6.387164024636149">
        <ele>536.54999999999995</ele>
        <time>2025-05-18T10:31:56Z</time>
      </trkpt>
      <trkpt lat="43.610844975337386" lon="6.38733996078372">
        <ele>536.07000000000005</ele>
        <time>2025-05-18T10:31:57Z</time>
      </trkpt>
      <trkpt lat="43.610757971182466" lon="6.387510029599071">
        <ele>535.59000000000003</ele>
        <time>2025-05-18T10:31:58Z</time>
      </trkpt>
      <trkpt lat="43.610423030331731" lon="6.388163985684514">
        <ele>533.19000000000005</ele>
        <time>2025-05-18T10:32:02Z</time>
      </trkpt>
      <trkpt lat="43.610402997583151" lon="6.388299018144608">
        <ele>533.19000000000005</ele>
        <time>2025-05-18T10:32:03Z</time>
      </trkpt>
      <trkpt lat="43.610406015068293" lon="6.388474032282829">
        <ele>532.71000000000004</ele>
        <time>2025-05-18T10:32:04Z</time>
      </trkpt>
      <trkpt lat="43.610409032553434" lon="6.388662960380316">
        <ele>532.23000000000002</ele>
        <time>2025-05-18T10:32:05Z</time>
      </trkpt>
      <trkpt lat="43.610412972047925" lon="6.38886496424675">
        <ele>531.75</ele>
        <time>2025-05-18T10:32:06Z</time>
      </trkpt>
      <trkpt lat="43.610448008403182" lon="6.389496037736535">
        <ele>529.34000000000003</ele>
        <time>2025-05-18T10:32:09Z</time>
      </trkpt>
      <trkpt lat="43.610484972596169" lon="6.389655964449048">
        <ele>528.38</ele>
        <time>2025-05-18T10:32:10Z</time>
      </trkpt>
      <trkpt lat="43.610540041700006" lon="6.389763001352549">
        <ele>527.89999999999998</ele>
        <time>2025-05-18T10:32:11Z</time>
      </trkpt>
      <trkpt lat="43.610596032813191" lon="6.389867020770907">
        <ele>526.94000000000005</ele>
        <time>2025-05-18T10:32:12Z</time>
      </trkpt>
      <trkpt lat="43.610640037804842" lon="6.389946984127164">
        <ele>526.46000000000004</ele>
        <time>2025-05-18T10:32:13Z</time>
      </trkpt>
      <trkpt lat="43.610707009211183" lon="6.390014039352536">
        <ele>525.98000000000002</ele>
        <time>2025-05-18T10:32:14Z</time>
      </trkpt>
      <trkpt lat="43.610770963132381" lon="6.390076987445355">
        <ele>525.98000000000002</ele>
        <time>2025-05-18T10:32:15Z</time>
      </trkpt>
      <trkpt lat="43.610833995044231" lon="6.390141025185585">
        <ele>525.98000000000002</ele>
        <time>2025-05-18T10:32:16Z</time>
      </trkpt>
      <trkpt lat="43.610896021127701" lon="6.390202967450023">
        <ele>525.98000000000002</ele>
        <time>2025-05-18T10:32:17Z</time>
      </trkpt>
      <trkpt lat="43.610965004190803" lon="6.390272034332156">
        <ele>525.98000000000002</ele>
        <time>2025-05-18T10:32:18Z</time>
      </trkpt>
      <trkpt lat="43.61104697920382" lon="6.390353003516793">
        <ele>525.98000000000002</ele>
        <time>2025-05-18T10:32:19Z</time>
      </trkpt>
      <trkpt lat="43.611147981137037" lon="6.390442019328475">
        <ele>526.46000000000004</ele>
        <time>2025-05-18T10:32:20Z</time>
      </trkpt>
      <trkpt lat="43.611265998333693" lon="6.390546038746834">
        <ele>526.94000000000005</ele>
        <time>2025-05-18T10:32:21Z</time>
      </trkpt>
      <trkpt lat="43.611526004970074" lon="6.390773020684719">
        <ele>527.41999999999996</ele>
        <time>2025-05-18T10:32:23Z</time>
      </trkpt>
      <trkpt lat="43.611666988581419" lon="6.39084099791944">
        <ele>528.38</ele>
        <time>2025-05-18T10:32:24Z</time>
      </trkpt>
      <trkpt lat="43.611821969971061" lon="6.390895983204246">
        <ele>529.34000000000003</ele>
        <time>2025-05-18T10:32:25Z</time>
      </trkpt>
      <trkpt lat="43.612638032063842" lon="6.391265960410237">
        <ele>534.14999999999998</ele>
        <time>2025-05-18T10:32:30Z</time>
      </trkpt>
      <trkpt lat="43.612768035382032" lon="6.391369979828596">
        <ele>534.63</ele>
        <time>2025-05-18T10:32:31Z</time>
      </trkpt>
      <trkpt lat="43.612890997901559" lon="6.391467964276671">
        <ele>535.11000000000001</ele>
        <time>2025-05-18T10:32:32Z</time>
      </trkpt>
      <trkpt lat="43.612933997064829" lon="6.391597967594862">
        <ele>535.59000000000003</ele>
        <time>2025-05-18T10:32:33Z</time>
      </trkpt>
      <trkpt lat="43.612962998449802" lon="6.391752026975155">
        <ele>536.54999999999995</ele>
        <time>2025-05-18T10:32:34Z</time>
      </trkpt>
      <trkpt lat="43.612975990399718" lon="6.391923017799854">
        <ele>537.50999999999999</ele>
        <time>2025-05-18T10:32:35Z</time>
      </trkpt>
      <trkpt lat="43.612938020378351" lon="6.392093002796173">
        <ele>538.48000000000002</ele>
        <time>2025-05-18T10:32:36Z</time>
      </trkpt>
      <trkpt lat="43.612847998738289" lon="6.392231974750757">
        <ele>539.44000000000005</ele>
        <time>2025-05-18T10:32:37Z</time>
      </trkpt>
      <trkpt lat="43.612738028168678" lon="6.392320990562439">
        <ele>539.91999999999996</ele>
        <time>2025-05-18T10:32:38Z</time>
      </trkpt>
      <trkpt lat="43.612602995708585" lon="6.392391985282302">
        <ele>540.88</ele>
        <time>2025-05-18T10:32:39Z</time>
      </trkpt>
      <trkpt lat="43.612451031804085" lon="6.392399026080966">
        <ele>542.32000000000005</ele>
        <time>2025-05-18T10:32:40Z</time>
      </trkpt>
      <trkpt lat="43.612289009615779" lon="6.392405983060598">
        <ele>543.27999999999997</ele>
        <time>2025-05-18T10:32:41Z</time>
      </trkpt>
      <trkpt lat="43.612131010740995" lon="6.392411012202501">
        <ele>544.72000000000003</ele>
        <time>2025-05-18T10:32:42Z</time>
      </trkpt>
      <trkpt lat="43.611984997987747" lon="6.392381004989147">
        <ele>545.69000000000005</ele>
        <time>2025-05-18T10:32:43Z</time>
      </trkpt>
      <trkpt lat="43.611848037689924" lon="6.392312021926045">
        <ele>547.13</ele>
        <time>2025-05-18T10:32:44Z</time>
      </trkpt>
      <trkpt lat="43.611709987744689" lon="6.392208002507687">
        <ele>548.57000000000005</ele>
        <time>2025-05-18T10:32:45Z</time>
      </trkpt>
      <trkpt lat="43.611575039103627" lon="6.39210700057447">
        <ele>550.00999999999999</ele>
        <time>2025-05-18T10:32:46Z</time>
      </trkpt>
      <trkpt lat="43.61145299859345" lon="6.392014967277646">
        <ele>551.45000000000005</ele>
        <time>2025-05-18T10:32:47Z</time>
      </trkpt>
      <trkpt lat="43.61132500693202" lon="6.391973979771137">
        <ele>552.40999999999997</ele>
        <time>2025-05-18T10:32:48Z</time>
      </trkpt>
      <trkpt lat="43.611216964200139" lon="6.391961993649602">
        <ele>553.38</ele>
        <time>2025-05-18T10:32:49Z</time>
      </trkpt>
      <trkpt lat="43.611094001680613" lon="6.39199904166162">
        <ele>554.34000000000003</ele>
        <time>2025-05-18T10:32:50Z</time>
      </trkpt>
      <trkpt lat="43.610979001969099" lon="6.392042962834239">
        <ele>555.29999999999995</ele>
        <time>2025-05-18T10:32:51Z</time>
      </trkpt>
      <trkpt lat="43.610870037227869" lon="6.392122004181147">
        <ele>556.25999999999999</ele>
        <time>2025-05-18T10:32:52Z</time>
      </trkpt>
      <trkpt lat="43.610738022252917" lon="6.392226023599505">
        <ele>557.22000000000003</ele>
        <time>2025-05-18T10:32:53Z</time>
      </trkpt>
      <trkpt lat="43.610597038641572" lon="6.392367007210851">
        <ele>558.17999999999995</ele>
        <time>2025-05-18T10:32:54Z</time>
      </trkpt>
      <trkpt lat="43.609765972942114" lon="6.393197989091277">
        <ele>561.54999999999995</ele>
        <time>2025-05-18T10:32:59Z</time>
      </trkpt>
      <trkpt lat="43.609665976837277" lon="6.393395969644189">
        <ele>562.50999999999999</ele>
        <time>2025-05-18T10:33:00Z</time>
      </trkpt>
      <trkpt lat="43.609586013481021" lon="6.393589004874229">
        <ele>563.47000000000003</ele>
        <time>2025-05-18T10:33:01Z</time>
      </trkpt>
      <trkpt lat="43.609515018761158" lon="6.393792014569044">
        <ele>564.42999999999995</ele>
        <time>2025-05-18T10:33:02Z</time>
      </trkpt>
      <trkpt lat="43.609479982405901" lon="6.394022013992071">
        <ele>565.38999999999999</ele>
        <time>2025-05-18T10:33:03Z</time>
      </trkpt>
      <trkpt lat="43.609445029869676" lon="6.39425796456635">
        <ele>566.35000000000002</ele>
        <time>2025-05-18T10:33:04Z</time>
      </trkpt>
      <trkpt lat="43.609408987686038" lon="6.394495004788041">
        <ele>567.79999999999995</ele>
        <time>2025-05-18T10:33:05Z</time>
      </trkpt>
      <trkpt lat="43.60939297825098" lon="6.39470798894763">
        <ele>569.24000000000001</ele>
        <time>2025-05-18T10:33:06Z</time>
      </trkpt>
      <trkpt lat="43.60939297825098" lon="6.394869005307555">
        <ele>570.20000000000005</ele>
        <time>2025-05-18T10:33:07Z</time>
      </trkpt>
      <trkpt lat="43.609458021819592" lon="6.394980987533927">
        <ele>571.15999999999997</ele>
        <time>2025-05-18T10:33:08Z</time>
      </trkpt>
      <trkpt lat="43.609543014317751" lon="6.395116019994021">
        <ele>572.12</ele>
        <time>2025-05-18T10:33:09Z</time>
      </trkpt>
      <trkpt lat="43.609622977674007" lon="6.395162036642432">
        <ele>572.60000000000002</ele>
        <time>2025-05-18T10:33:10Z</time>
      </trkpt>
      <trkpt lat="43.609747029840946" lon="6.395232025533915">
        <ele>573.08000000000004</ele>
        <time>2025-05-18T10:33:11Z</time>
      </trkpt>
      <trkpt lat="43.609995972365141" lon="6.395422965288162">
        <ele>574.03999999999996</ele>
        <time>2025-05-18T10:33:13Z</time>
      </trkpt>
      <trkpt lat="43.610070990398526" lon="6.395535031333566">
        <ele>574.03999999999996</ele>
        <time>2025-05-18T10:33:14Z</time>
      </trkpt>
      <trkpt lat="43.61012295819819" lon="6.395656988024712">
        <ele>574.03999999999996</ele>
        <time>2025-05-18T10:33:15Z</time>
      </trkpt>
      <trkpt lat="43.61012295819819" lon="6.39582403935492">
        <ele>574.52999999999997</ele>
        <time>2025-05-18T10:33:16Z</time>
      </trkpt>
      <trkpt lat="43.61012295819819" lon="6.39601799659431">
        <ele>575.00999999999999</ele>
        <time>2025-05-18T10:33:17Z</time>
      </trkpt>
      <trkpt lat="43.61012295819819" lon="6.396446982398629">
        <ele>576.45000000000005</ele>
        <time>2025-05-18T10:33:19Z</time>
      </trkpt>
      <trkpt lat="43.610126981511712" lon="6.396678993478417">
        <ele>576.92999999999995</ele>
        <time>2025-05-18T10:33:20Z</time>
      </trkpt>
      <trkpt lat="43.610182972624898" lon="6.396900024265051">
        <ele>577.40999999999997</ele>
        <time>2025-05-18T10:33:21Z</time>
      </trkpt>
      <trkpt lat="43.610238041728735" lon="6.397120971232653">
        <ele>577.88999999999999</ele>
        <time>2025-05-18T10:33:22Z</time>
      </trkpt>
      <trkpt lat="43.61029202118516" lon="6.397337978705764">
        <ele>578.85000000000002</ele>
        <time>2025-05-18T10:33:23Z</time>
      </trkpt>
      <trkpt lat="43.610339965671301" lon="6.397529002279043">
        <ele>579.33000000000004</ele>
        <time>2025-05-18T10:33:24Z</time>
      </trkpt>
      <trkpt lat="43.610373996198177" lon="6.397711979225278">
        <ele>579.33000000000004</ele>
        <time>2025-05-18T10:33:25Z</time>
      </trkpt>
      <trkpt lat="43.610325967893004" lon="6.397882970049977">
        <ele>579.80999999999995</ele>
        <time>2025-05-18T10:33:26Z</time>
      </trkpt>
      <trkpt lat="43.61027299426496" lon="6.398072987794876">
        <ele>579.80999999999995</ele>
        <time>2025-05-18T10:33:27Z</time>
      </trkpt>
      <trkpt lat="43.610223960131407" lon="6.398268034681678">
        <ele>579.80999999999995</ele>
        <time>2025-05-18T10:33:28Z</time>
      </trkpt>
      <trkpt lat="43.610192025080323" lon="6.398486969992518">
        <ele>579.80999999999995</ele>
        <time>2025-05-18T10:33:29Z</time>
      </trkpt>
      <trkpt lat="43.610160006210208" lon="6.398701965808868">
        <ele>579.80999999999995</ele>
        <time>2025-05-18T10:33:30Z</time>
      </trkpt>
      <trkpt lat="43.610131004825234" lon="6.398901036009193">
        <ele>579.80999999999995</ele>
        <time>2025-05-18T10:33:31Z</time>
      </trkpt>
      <trkpt lat="43.610047018155456" lon="6.399031961336732">
        <ele>580.28999999999996</ele>
        <time>2025-05-18T10:33:32Z</time>
      </trkpt>
      <trkpt lat="43.609941992908716" lon="6.399136986583471">
        <ele>580.76999999999998</ele>
        <time>2025-05-18T10:33:33Z</time>
      </trkpt>
      <trkpt lat="43.609820958226919" lon="6.399259027093649">
        <ele>581.25</ele>
        <time>2025-05-18T10:33:34Z</time>
      </trkpt>
      <trkpt lat="43.60900598578155" lon="6.400153962895274">
        <ele>586.53999999999996</ele>
        <time>2025-05-18T10:33:40Z</time>
      </trkpt>
      <trkpt lat="43.608913030475378" lon="6.400334006175399">
        <ele>587.01999999999998</ele>
        <time>2025-05-18T10:33:41Z</time>
      </trkpt>
      <trkpt lat="43.608754025772214" lon="6.400643968954682">
        <ele>587.5</ele>
        <time>2025-05-18T10:33:43Z</time>
      </trkpt>
      <trkpt lat="43.608673978596926" lon="6.400741031393409">
        <ele>587.5</ele>
        <time>2025-05-18T10:33:44Z</time>
      </trkpt>
      <trkpt lat="43.608576999977231" lon="6.400824012234807">
        <ele>587.5</ele>
        <time>2025-05-18T10:33:45Z</time>
      </trkpt>
      <trkpt lat="43.608471974730492" lon="6.400914033874869">
        <ele>587.98000000000002</ele>
        <time>2025-05-18T10:33:46Z</time>
      </trkpt>
      <trkpt lat="43.608385976403952" lon="6.401045965030789">
        <ele>588.46000000000004</ele>
        <time>2025-05-18T10:33:47Z</time>
      </trkpt>
      <trkpt lat="43.608308024704456" lon="6.40121896751225">
        <ele>588.46000000000004</ele>
        <time>2025-05-18T10:33:48Z</time>
      </trkpt>
      <trkpt lat="43.608224038034678" lon="6.401407979428768">
        <ele>588.95000000000005</ele>
        <time>2025-05-18T10:33:49Z</time>
      </trkpt>
      <trkpt lat="43.608142985031009" lon="6.401589028537273">
        <ele>589.42999999999995</ele>
        <time>2025-05-18T10:33:50Z</time>
      </trkpt>
      <trkpt lat="43.608072996139526" lon="6.401745015755296">
        <ele>589.42999999999995</ele>
        <time>2025-05-18T10:33:51Z</time>
      </trkpt>
      <trkpt lat="43.607954978942871" lon="6.401826990768313">
        <ele>589.90999999999997</ele>
        <time>2025-05-18T10:33:52Z</time>
      </trkpt>
      <trkpt lat="43.607842996716499" lon="6.401868984103203">
        <ele>589.90999999999997</ele>
        <time>2025-05-18T10:33:53Z</time>
      </trkpt>
      <trkpt lat="43.607722967863083" lon="6.401843000203371">
        <ele>589.90999999999997</ele>
        <time>2025-05-18T10:33:54Z</time>
      </trkpt>
      <trkpt lat="43.607591036707163" lon="6.401816010475159">
        <ele>590.38999999999999</ele>
        <time>2025-05-18T10:33:55Z</time>
      </trkpt>
      <trkpt lat="43.607333041727543" lon="6.401767982169986">
        <ele>591.35000000000002</ele>
        <time>2025-05-18T10:33:57Z</time>
      </trkpt>
      <trkpt lat="43.607188034802675" lon="6.401793966069818">
        <ele>591.83000000000004</ele>
        <time>2025-05-18T10:33:58Z</time>
      </trkpt>
      <trkpt lat="43.607055013999343" lon="6.401849035173655">
        <ele>592.30999999999995</ele>
        <time>2025-05-18T10:33:59Z</time>
      </trkpt>
      <trkpt lat="43.606934985145926" lon="6.401960011571646">
        <ele>592.78999999999996</ele>
        <time>2025-05-18T10:34:00Z</time>
      </trkpt>
      <trkpt lat="43.606817973777652" lon="6.402067970484495">
        <ele>593.26999999999998</ele>
        <time>2025-05-18T10:34:01Z</time>
      </trkpt>
      <trkpt lat="43.606741027906537" lon="6.402234015986323">
        <ele>593.75</ele>
        <time>2025-05-18T10:34:02Z</time>
      </trkpt>
      <trkpt lat="43.606665004044771" lon="6.402410035952926">
        <ele>594.71000000000004</ele>
        <time>2025-05-18T10:34:03Z</time>
      </trkpt>
      <trkpt lat="43.606628039851785" lon="6.402625031769276">
        <ele>595.66999999999996</ele>
        <time>2025-05-18T10:34:04Z</time>
      </trkpt>
      <trkpt lat="43.606588980183005" lon="6.402853019535542">
        <ele>596.14999999999998</ele>
        <time>2025-05-18T10:34:05Z</time>
      </trkpt>
      <trkpt lat="43.606219002977014" lon="6.405014041811228">
        <ele>602.88</ele>
        <time>2025-05-18T10:34:13Z</time>
      </trkpt>
      <trkpt lat="43.605689015239477" lon="6.408109981566668">
        <ele>608.16999999999996</ele>
        <time>2025-05-18T10:34:23Z</time>
      </trkpt>
      <trkpt lat="43.604955011978745" lon="6.412397995591164">
        <ele>606.73000000000002</ele>
        <time>2025-05-18T10:34:36Z</time>
      </trkpt>
      <trkpt lat="43.604289991781116" lon="6.416220981627703">
        <ele>607.21000000000004</ele>
        <time>2025-05-18T10:34:48Z</time>
      </trkpt>
      <trkpt lat="43.603696972131729" lon="6.419652029871941">
        <ele>610.09000000000003</ele>
        <time>2025-05-18T10:34:59Z</time>
      </trkpt>
      <trkpt lat="43.603551965206861" lon="6.420494997873902">
        <ele>611.05999999999995</ele>
        <time>2025-05-18T10:35:02Z</time>
      </trkpt>
      <trkpt lat="43.603222975507379" lon="6.422395007684827">
        <ele>612.98000000000002</ele>
        <time>2025-05-18T10:35:09Z</time>
      </trkpt>
      <trkpt lat="43.603149969130754" lon="6.42313102260232">
        <ele>613.46000000000004</ele>
        <time>2025-05-18T10:35:12Z</time>
      </trkpt>
      <trkpt lat="43.603156004101038" lon="6.423383988440037">
        <ele>612.98000000000002</ele>
        <time>2025-05-18T10:35:13Z</time>
      </trkpt>
      <trkpt lat="43.603187017142773" lon="6.425135973840952">
        <ele>615.38</ele>
        <time>2025-05-18T10:35:19Z</time>
      </trkpt>
      <trkpt lat="43.603174025192857" lon="6.42702198587358">
        <ele>622.59000000000003</ele>
        <time>2025-05-18T10:35:26Z</time>
      </trkpt>
      <trkpt lat="43.603205038234591" lon="6.427255002781749">
        <ele>623.54999999999995</ele>
        <time>2025-05-18T10:35:27Z</time>
      </trkpt>
      <trkpt lat="43.603413999080658" lon="6.428286982700229">
        <ele>625.47000000000003</ele>
        <time>2025-05-18T10:35:31Z</time>
      </trkpt>
      <trkpt lat="43.603429002687335" lon="6.428549000993371">
        <ele>625.47000000000003</ele>
        <time>2025-05-18T10:35:32Z</time>
      </trkpt>
      <trkpt lat="43.603443000465631" lon="6.428786041215062">
        <ele>625.47000000000003</ele>
        <time>2025-05-18T10:35:33Z</time>
      </trkpt>
      <trkpt lat="43.603475019335747" lon="6.429004976525903">
        <ele>625.47000000000003</ele>
        <time>2025-05-18T10:35:34Z</time>
      </trkpt>
      <trkpt lat="43.60352598130703" lon="6.429231958463788">
        <ele>625.47000000000003</ele>
        <time>2025-05-18T10:35:35Z</time>
      </trkpt>
      <trkpt lat="43.603672999888659" lon="6.429883986711502">
        <ele>626.44000000000005</ele>
        <time>2025-05-18T10:35:38Z</time>
      </trkpt>
      <trkpt lat="43.603672999888659" lon="6.430098982527852">
        <ele>626.91999999999996</ele>
        <time>2025-05-18T10:35:39Z</time>
      </trkpt>
      <trkpt lat="43.603648021817207" lon="6.430298974737525">
        <ele>627.39999999999998</ele>
        <time>2025-05-18T10:35:40Z</time>
      </trkpt>
      <trkpt lat="43.603608040139079" lon="6.430500978603959">
        <ele>627.88</ele>
        <time>2025-05-18T10:35:41Z</time>
      </trkpt>
      <trkpt lat="43.60356998629868" lon="6.430692002177239">
        <ele>628.36000000000001</ele>
        <time>2025-05-18T10:35:42Z</time>
      </trkpt>
      <trkpt lat="43.603534027934074" lon="6.430870033800602">
        <ele>629.32000000000005</ele>
        <time>2025-05-18T10:35:43Z</time>
      </trkpt>
      <trkpt lat="43.603502009063959" lon="6.431029038503766">
        <ele>629.79999999999995</ele>
        <time>2025-05-18T10:35:44Z</time>
      </trkpt>
      <trkpt lat="43.603470996022224" lon="6.431186031550169">
        <ele>630.27999999999997</ele>
        <time>2025-05-18T10:35:45Z</time>
      </trkpt>
      <trkpt lat="43.603507038205862" lon="6.431307988241315">
        <ele>630.27999999999997</ele>
        <time>2025-05-18T10:35:46Z</time>
      </trkpt>
      <trkpt lat="43.603558000177145" lon="6.43144603818655">
        <ele>630.75999999999999</ele>
        <time>2025-05-18T10:35:47Z</time>
      </trkpt>
      <trkpt lat="43.603623965755105" lon="6.43157796934247">
        <ele>630.27999999999997</ele>
        <time>2025-05-18T10:35:48Z</time>
      </trkpt>
      <trkpt lat="43.604280017316341" lon="6.432769037783146">
        <ele>629.32000000000005</ele>
        <time>2025-05-18T10:35:55Z</time>
      </trkpt>
      <trkpt lat="43.604371966794133" lon="6.432932987809181">
        <ele>628.84000000000003</ele>
        <time>2025-05-18T10:35:56Z</time>
      </trkpt>
      <trkpt lat="43.604438016191125" lon="6.433109007775784">
        <ele>628.36000000000001</ele>
        <time>2025-05-18T10:35:57Z</time>
      </trkpt>
      <trkpt lat="43.604479003697634" lon="6.433287961408496">
        <ele>627.88</ele>
        <time>2025-05-18T10:35:58Z</time>
      </trkpt>
      <trkpt lat="43.604479003697634" lon="6.433473033830524">
        <ele>627.39999999999998</ele>
        <time>2025-05-18T10:35:59Z</time>
      </trkpt>
      <trkpt lat="43.604479003697634" lon="6.433615023270249">
        <ele>626.44000000000005</ele>
        <time>2025-05-18T10:36:00Z</time>
      </trkpt>
      <trkpt lat="43.604415971785784" lon="6.433730022981763">
        <ele>625.96000000000004</ele>
        <time>2025-05-18T10:36:01Z</time>
      </trkpt>
      <trkpt lat="43.604332990944386" lon="6.43378802575171">
        <ele>624.99000000000001</ele>
        <time>2025-05-18T10:36:02Z</time>
      </trkpt>
      <trkpt lat="43.604232994839549" lon="6.433802023530006">
        <ele>624.02999999999997</ele>
        <time>2025-05-18T10:36:03Z</time>
      </trkpt>
      <trkpt lat="43.604124030098319" lon="6.433781990781426">
        <ele>623.07000000000005</ele>
        <time>2025-05-18T10:36:04Z</time>
      </trkpt>
      <trkpt lat="43.603994026780128" lon="6.433752989396453">
        <ele>622.11000000000001</ele>
        <time>2025-05-18T10:36:05Z</time>
      </trkpt>
      <trkpt lat="43.603851031512022" lon="6.433720970526338">
        <ele>621.14999999999998</ele>
        <time>2025-05-18T10:36:06Z</time>
      </trkpt>
      <trkpt lat="43.60311702825129" lon="6.433607982471585">
        <ele>618.75</ele>
        <time>2025-05-18T10:36:11Z</time>
      </trkpt>
      <trkpt lat="43.603013008832932" lon="6.433669002726674">
        <ele>618.75</ele>
        <time>2025-05-18T10:36:12Z</time>
      </trkpt>
      <trkpt lat="43.602908989414573" lon="6.433729017153382">
        <ele>617.77999999999997</ele>
        <time>2025-05-18T10:36:13Z</time>
      </trkpt>
      <trkpt lat="43.602849980816245" lon="6.433849968016148">
        <ele>617.29999999999995</ele>
        <time>2025-05-18T10:36:14Z</time>
      </trkpt>
      <trkpt lat="43.602800024673343" lon="6.433983994647861">
        <ele>616.82000000000005</ele>
        <time>2025-05-18T10:36:15Z</time>
      </trkpt>
      <trkpt lat="43.602758031338453" lon="6.434124978259206">
        <ele>616.34000000000003</ele>
        <time>2025-05-18T10:36:16Z</time>
      </trkpt>
      <trkpt lat="43.602737998589873" lon="6.434295969083905">
        <ele>615.86000000000001</ele>
        <time>2025-05-18T10:36:17Z</time>
      </trkpt>
      <trkpt lat="43.602699022740126" lon="6.434633005410433">
        <ele>615.38</ele>
        <time>2025-05-18T10:36:19Z</time>
      </trkpt>
      <trkpt lat="43.60273296944797" lon="6.434744987636805">
        <ele>614.89999999999998</ele>
        <time>2025-05-18T10:36:20Z</time>
      </trkpt>
      <trkpt lat="43.602784015238285" lon="6.434898041188717">
        <ele>614.41999999999996</ele>
        <time>2025-05-18T10:36:21Z</time>
      </trkpt>
      <trkpt lat="43.602854004129767" lon="6.434956965968013">
        <ele>613.94000000000005</ele>
        <time>2025-05-18T10:36:22Z</time>
      </trkpt>
      <trkpt lat="43.602961963042617" lon="6.435047993436456">
        <ele>612.98000000000002</ele>
        <time>2025-05-18T10:36:23Z</time>
      </trkpt>
      <trkpt lat="43.603085009381175" lon="6.435151007026434">
        <ele>611.53999999999996</ele>
        <time>2025-05-18T10:36:24Z</time>
      </trkpt>
      <trkpt lat="43.603216018527746" lon="6.435260977596045">
        <ele>610.57000000000005</ele>
        <time>2025-05-18T10:36:25Z</time>
      </trkpt>
      <trkpt lat="43.603335041552782" lon="6.43538000062108">
        <ele>609.13</ele>
        <time>2025-05-18T10:36:26Z</time>
      </trkpt>
      <trkpt lat="43.603412993252277" lon="6.435553003102541">
        <ele>607.21000000000004</ele>
        <time>2025-05-18T10:36:27Z</time>
      </trkpt>
      <trkpt lat="43.603454986587167" lon="6.435735980048776">
        <ele>605.76999999999998</ele>
        <time>2025-05-18T10:36:28Z</time>
      </trkpt>
      <trkpt lat="43.603492034599185" lon="6.435949970036745">
        <ele>604.33000000000004</ele>
        <time>2025-05-18T10:36:29Z</time>
      </trkpt>
      <trkpt lat="43.603519024327397" lon="6.436163960024715">
        <ele>602.39999999999998</ele>
        <time>2025-05-18T10:36:30Z</time>
      </trkpt>
      <trkpt lat="43.603527992963791" lon="6.436378033831716">
        <ele>600.96000000000004</ele>
        <time>2025-05-18T10:36:31Z</time>
      </trkpt>
      <trkpt lat="43.603508966043591" lon="6.436591017991304">
        <ele>599.51999999999998</ele>
        <time>2025-05-18T10:36:32Z</time>
      </trkpt>
      <trkpt lat="43.603492034599185" lon="6.436783969402313">
        <ele>598.55999999999995</ele>
        <time>2025-05-18T10:36:33Z</time>
      </trkpt>
      <trkpt lat="43.603475019335747" lon="6.436974992975593">
        <ele>597.60000000000002</ele>
        <time>2025-05-18T10:36:34Z</time>
      </trkpt>
      <trkpt lat="43.603481976315379" lon="6.437160987406969">
        <ele>596.14999999999998</ele>
        <time>2025-05-18T10:36:35Z</time>
      </trkpt>
      <trkpt lat="43.603495974093676" lon="6.437337007373571">
        <ele>595.19000000000005</ele>
        <time>2025-05-18T10:36:36Z</time>
      </trkpt>
      <trkpt lat="43.603513995185494" lon="6.437558960169554">
        <ele>594.23000000000002</ele>
        <time>2025-05-18T10:36:37Z</time>
      </trkpt>
      <trkpt lat="43.603492034599185" lon="6.437632972374558">
        <ele>592.78999999999996</ele>
        <time>2025-05-18T10:36:38Z</time>
      </trkpt>
      <trkpt lat="43.603454986587167" lon="6.437756018713117">
        <ele>591.83000000000004</ele>
        <time>2025-05-18T10:36:39Z</time>
      </trkpt>
      <trkpt lat="43.60341802239418" lon="6.437879987061024">
        <ele>590.87</ele>
        <time>2025-05-18T10:36:40Z</time>
      </trkpt>
      <trkpt lat="43.603406958281994" lon="6.438173018395901">
        <ele>587.98000000000002</ele>
        <time>2025-05-18T10:36:42Z</time>
      </trkpt>
      <trkpt lat="43.603427996858954" lon="6.438351972028613">
        <ele>586.53999999999996</ele>
        <time>2025-05-18T10:36:43Z</time>
      </trkpt>
      <trkpt lat="43.603449035435915" lon="6.438527991995215">
        <ele>585.10000000000002</ele>
        <time>2025-05-18T10:36:44Z</time>
      </trkpt>
      <trkpt lat="43.603470996022224" lon="6.438718009740114">
        <ele>584.13999999999999</ele>
        <time>2025-05-18T10:36:45Z</time>
      </trkpt>
      <trkpt lat="43.603462027385831" lon="6.43883703276515">
        <ele>582.70000000000005</ele>
        <time>2025-05-18T10:36:46Z</time>
      </trkpt>
      <trkpt lat="43.603423973545432" lon="6.439054040238261">
        <ele>581.25</ele>
        <time>2025-05-18T10:36:47Z</time>
      </trkpt>
      <trkpt lat="43.603341998532414" lon="6.439169039949775">
        <ele>579.80999999999995</ele>
        <time>2025-05-18T10:36:48Z</time>
      </trkpt>
      <trkpt lat="43.603226998820901" lon="6.439325027167797">
        <ele>578.37</ele>
        <time>2025-05-18T10:36:49Z</time>
      </trkpt>
      <trkpt lat="43.603105964139104" lon="6.439424017444253">
        <ele>576.92999999999995</ele>
        <time>2025-05-18T10:36:50Z</time>
      </trkpt>
      <trkpt lat="43.602972021326423" lon="6.439533988013864">
        <ele>575.49000000000001</ele>
        <time>2025-05-18T10:36:51Z</time>
      </trkpt>
      <trkpt lat="43.602529959753156" lon="6.439897008240223">
        <ele>570.67999999999995</ele>
        <time>2025-05-18T10:36:54Z</time>
      </trkpt>
      <trkpt lat="43.60230197198689" lon="6.440129019320011">
        <ele>567.79999999999995</ele>
        <time>2025-05-18T10:36:56Z</time>
      </trkpt>
      <trkpt lat="43.602183032780886" lon="6.440284000709653">
        <ele>566.35000000000002</ele>
        <time>2025-05-18T10:36:57Z</time>
      </trkpt>
      <trkpt lat="43.602166017517447" lon="6.440381985157728">
        <ele>564.90999999999997</ele>
        <time>2025-05-18T10:36:58Z</time>
      </trkpt>
      <trkpt lat="43.602118995040655" lon="6.440649032592773">
        <ele>563.95000000000005</ele>
        <time>2025-05-18T10:36:59Z</time>
      </trkpt>
      <trkpt lat="43.602140033617616" lon="6.440777024254203">
        <ele>563.47000000000003</ele>
        <time>2025-05-18T10:37:00Z</time>
      </trkpt>
      <trkpt lat="43.60217398032546" lon="6.440989002585411">
        <ele>562.50999999999999</ele>
        <time>2025-05-18T10:37:01Z</time>
      </trkpt>
      <trkpt lat="43.602310018613935" lon="6.441729040816426">
        <ele>560.59000000000003</ele>
        <time>2025-05-18T10:37:04Z</time>
      </trkpt>
      <trkpt lat="43.602371960878372" lon="6.441965997219086">
        <ele>559.62</ele>
        <time>2025-05-18T10:37:05Z</time>
      </trkpt>
      <trkpt lat="43.602468017488718" lon="6.442205971106887">
        <ele>558.65999999999997</ele>
        <time>2025-05-18T10:37:06Z</time>
      </trkpt>
      <trkpt lat="43.602759037166834" lon="6.442788010463119">
        <ele>557.70000000000005</ele>
        <time>2025-05-18T10:37:09Z</time>
      </trkpt>
      <trkpt lat="43.602832965552807" lon="6.442954977974296">
        <ele>557.22000000000003</ele>
        <time>2025-05-18T10:37:10Z</time>
      </trkpt>
      <trkpt lat="43.602870013564825" lon="6.443138038739562">
        <ele>555.77999999999997</ele>
        <time>2025-05-18T10:37:11Z</time>
      </trkpt>
      <trkpt lat="43.60283900052309" lon="6.443295031785965">
        <ele>554.82000000000005</ele>
        <time>2025-05-18T10:37:12Z</time>
      </trkpt>
      <trkpt lat="43.602790972217917" lon="6.443448001518846">
        <ele>553.86000000000001</ele>
        <time>2025-05-18T10:37:13Z</time>
      </trkpt>
      <trkpt lat="43.602731041610241" lon="6.443604994565249">
        <ele>553.38</ele>
        <time>2025-05-18T10:37:14Z</time>
      </trkpt>
      <trkpt lat="43.602604977786541" lon="6.443937001749873">
        <ele>552.89999999999998</ele>
        <time>2025-05-18T10:37:16Z</time>
      </trkpt>
      <trkpt lat="43.602571031078696" lon="6.444114027544856">
        <ele>553.38</ele>
        <time>2025-05-18T10:37:17Z</time>
      </trkpt>
      <trkpt lat="43.602550998330116" lon="6.444307984784246">
        <ele>553.38</ele>
        <time>2025-05-18T10:37:18Z</time>
      </trkpt>
      <trkpt lat="43.602571031078696" lon="6.444504037499428">
        <ele>552.89999999999998</ele>
        <time>2025-05-18T10:37:19Z</time>
      </trkpt>
      <trkpt lat="43.602591985836625" lon="6.444709980860353">
        <ele>551.92999999999995</ele>
        <time>2025-05-18T10:37:20Z</time>
      </trkpt>
      <trkpt lat="43.602663986384869" lon="6.446364987641573">
        <ele>545.20000000000005</ele>
        <time>2025-05-18T10:37:27Z</time>
      </trkpt>
      <trkpt lat="43.602631967514753" lon="6.446563974022865">
        <ele>543.75999999999999</ele>
        <time>2025-05-18T10:37:28Z</time>
      </trkpt>
      <trkpt lat="43.602586034685373" lon="6.446758015081286">
        <ele>542.32000000000005</ele>
        <time>2025-05-18T10:37:29Z</time>
      </trkpt>
      <trkpt lat="43.602518979460001" lon="6.446935962885618">
        <ele>541.84000000000003</ele>
        <time>2025-05-18T10:37:30Z</time>
      </trkpt>
      <trkpt lat="43.602425018325448" lon="6.447135033085942">
        <ele>541.36000000000001</ele>
        <time>2025-05-18T10:37:31Z</time>
      </trkpt>
      <trkpt lat="43.602328039705753" lon="6.447339970618486">
        <ele>540.39999999999998</ele>
        <time>2025-05-18T10:37:32Z</time>
      </trkpt>
      <trkpt lat="43.60223600640893" lon="6.447534011676908">
        <ele>539.44000000000005</ele>
        <time>2025-05-18T10:37:33Z</time>
      </trkpt>
      <trkpt lat="43.602074990049005" lon="6.447875993326306">
        <ele>537.99000000000001</ele>
        <time>2025-05-18T10:37:35Z</time>
      </trkpt>
      <trkpt lat="43.601997960358858" lon="6.448042960837483">
        <ele>537.50999999999999</ele>
        <time>2025-05-18T10:37:36Z</time>
      </trkpt>
      <trkpt lat="43.601926965638995" lon="6.448215963318944">
        <ele>536.54999999999995</ele>
        <time>2025-05-18T10:37:37Z</time>
      </trkpt>
      <trkpt lat="43.601851025596261" lon="6.448401035740972">
        <ele>536.07000000000005</ele>
        <time>2025-05-18T10:37:38Z</time>
      </trkpt>
      <trkpt lat="43.601749017834663" lon="6.448568003252149">
        <ele>535.59000000000003</ele>
        <time>2025-05-18T10:37:39Z</time>
      </trkpt>
      <trkpt lat="43.601621026173234" lon="6.448729019612074">
        <ele>535.59000000000003</ele>
        <time>2025-05-18T10:37:40Z</time>
      </trkpt>
      <trkpt lat="43.600981989875436" lon="6.449476014822722">
        <ele>535.59000000000003</ele>
        <time>2025-05-18T10:37:45Z</time>
      </trkpt>
      <trkpt lat="43.600853998214006" lon="6.449586991220713">
        <ele>535.11000000000001</ele>
        <time>2025-05-18T10:37:46Z</time>
      </trkpt>
      <trkpt lat="43.600712008774281" lon="6.449672989547253">
        <ele>534.14999999999998</ele>
        <time>2025-05-18T10:37:47Z</time>
      </trkpt>
      <trkpt lat="43.600476980209351" lon="6.449853032827377">
        <ele>532.23000000000002</ele>
        <time>2025-05-18T10:37:49Z</time>
      </trkpt>
      <trkpt lat="43.600399028509855" lon="6.449940958991647">
        <ele>531.75</ele>
        <time>2025-05-18T10:37:50Z</time>
      </trkpt>
      <trkpt lat="43.600351000204682" lon="6.450083032250404">
        <ele>530.78999999999996</ele>
        <time>2025-05-18T10:37:51Z</time>
      </trkpt>
      <trkpt lat="43.600315963849425" lon="6.450220998376608">
        <ele>530.29999999999995</ele>
        <time>2025-05-18T10:37:52Z</time>
      </trkpt>
      <trkpt lat="43.600278999656439" lon="6.450369022786617">
        <ele>529.82000000000005</ele>
        <time>2025-05-18T10:37:53Z</time>
      </trkpt>
      <trkpt lat="43.600228037685156" lon="6.450672028586268">
        <ele>528.38</ele>
        <time>2025-05-18T10:37:55Z</time>
      </trkpt>
      <trkpt lat="43.600223008543253" lon="6.450847964733839">
        <ele>528.38</ele>
        <time>2025-05-18T10:37:56Z</time>
      </trkpt>
      <trkpt lat="43.60021797940135" lon="6.451047034934163">
        <ele>527.41999999999996</ele>
        <time>2025-05-18T10:37:57Z</time>
      </trkpt>
      <trkpt lat="43.600179003551602" lon="6.451455987989903">
        <ele>526.94000000000005</ele>
        <time>2025-05-18T10:37:59Z</time>
      </trkpt>
      <trkpt lat="43.600144973024726" lon="6.451570987701416">
        <ele>526.46000000000004</ele>
        <time>2025-05-18T10:38:00Z</time>
      </trkpt>
      <trkpt lat="43.600035002455115" lon="6.451655980199575">
        <ele>525.98000000000002</ele>
        <time>2025-05-18T10:38:01Z</time>
      </trkpt>
      <trkpt lat="43.599952021613717" lon="6.451721023768187">
        <ele>525.5</ele>
        <time>2025-05-18T10:38:02Z</time>
      </trkpt>
      <trkpt lat="43.599881026893854" lon="6.451677018776536">
        <ele>524.53999999999996</ele>
        <time>2025-05-18T10:38:03Z</time>
      </trkpt>
      <trkpt lat="43.599780024960637" lon="6.451613986864686">
        <ele>524.05999999999995</ele>
        <time>2025-05-18T10:38:04Z</time>
      </trkpt>
      <trkpt lat="43.599725039675832" lon="6.45151399075985">
        <ele>523.09000000000003</ele>
        <time>2025-05-18T10:38:05Z</time>
      </trkpt>
      <trkpt lat="43.599647004157305" lon="6.451375018805265">
        <ele>522.13</ele>
        <time>2025-05-18T10:38:06Z</time>
      </trkpt>
      <trkpt lat="43.599566034972668" lon="6.451228000223637">
        <ele>521.64999999999998</ele>
        <time>2025-05-18T10:38:07Z</time>
      </trkpt>
      <trkpt lat="43.59950702637434" lon="6.45110696554184">
        <ele>521.16999999999996</ele>
        <time>2025-05-18T10:38:08Z</time>
      </trkpt>
      <trkpt lat="43.599448017776012" lon="6.450984003022313">
        <ele>520.69000000000005</ele>
        <time>2025-05-18T10:38:09Z</time>
      </trkpt>
      <trkpt lat="43.599252970889211" lon="6.450587036088109">
        <ele>518.76999999999998</ele>
        <time>2025-05-18T10:38:13Z</time>
      </trkpt>
      <trkpt lat="43.599203014746308" lon="6.450501959770918">
        <ele>517.80999999999995</ele>
        <time>2025-05-18T10:38:14Z</time>
      </trkpt>
      <trkpt lat="43.599158003926277" lon="6.450414033606648">
        <ele>516.85000000000002</ele>
        <time>2025-05-18T10:38:15Z</time>
      </trkpt>
      <trkpt lat="43.599116010591388" lon="6.450329041108489">
        <ele>516.37</ele>
        <time>2025-05-18T10:38:16Z</time>
      </trkpt>
      <trkpt lat="43.599072005599737" lon="6.450241031125188">
        <ele>515.39999999999998</ele>
        <time>2025-05-18T10:38:17Z</time>
      </trkpt>
      <trkpt lat="43.599030012264848" lon="6.450156960636377">
        <ele>514.91999999999996</ele>
        <time>2025-05-18T10:38:18Z</time>
      </trkpt>
      <trkpt lat="43.598874025046825" lon="6.449893014505506">
        <ele>513.48000000000002</ele>
        <time>2025-05-18T10:38:21Z</time>
      </trkpt>
      <trkpt lat="43.598790960386395" lon="6.449811039492488">
        <ele>513.48000000000002</ele>
        <time>2025-05-18T10:38:22Z</time>
      </trkpt>
      <trkpt lat="43.598709991201758" lon="6.449798969551921">
        <ele>513</ele>
        <time>2025-05-18T10:38:23Z</time>
      </trkpt>
      <trkpt lat="43.598623992875218" lon="6.449785977602005">
        <ele>513</ele>
        <time>2025-05-18T10:38:24Z</time>
      </trkpt>
      <trkpt lat="43.598530031740665" lon="6.449770973995328">
        <ele>512.51999999999998</ele>
        <time>2025-05-18T10:38:25Z</time>
      </trkpt>
      <trkpt lat="43.598258038982749" lon="6.449757982045412">
        <ele>511.56</ele>
        <time>2025-05-18T10:38:28Z</time>
      </trkpt>
      <trkpt lat="43.598170028999448" lon="6.44975395873189">
        <ele>511.56</ele>
        <time>2025-05-18T10:38:29Z</time>
      </trkpt>
      <trkpt lat="43.598088975995779" lon="6.449750019237399">
        <ele>511.07999999999998</ele>
        <time>2025-05-18T10:38:30Z</time>
      </trkpt>
      <trkpt lat="43.598020998761058" lon="6.449747001752257">
        <ele>510.60000000000002</ele>
        <time>2025-05-18T10:38:31Z</time>
      </trkpt>
      <trkpt lat="43.59796098433435" lon="6.44981699064374">
        <ele>510.12</ele>
        <time>2025-05-18T10:38:32Z</time>
      </trkpt>
      <trkpt lat="43.597900969907641" lon="6.449888991191983">
        <ele>509.63999999999999</ele>
        <time>2025-05-18T10:38:33Z</time>
      </trkpt>
      <trkpt lat="43.597838021814823" lon="6.449961997568607">
        <ele>509.16000000000003</ele>
        <time>2025-05-18T10:38:34Z</time>
      </trkpt>
      <trkpt lat="43.597712963819504" lon="6.450110021978617">
        <ele>508.19</ele>
        <time>2025-05-18T10:38:36Z</time>
      </trkpt>
      <trkpt lat="43.597528981044888" lon="6.45028998143971">
        <ele>507.70999999999998</ele>
        <time>2025-05-18T10:38:39Z</time>
      </trkpt>
      <trkpt lat="43.597469972446561" lon="6.450343038886786">
        <ele>507.23000000000002</ele>
        <time>2025-05-18T10:38:40Z</time>
      </trkpt>
      <trkpt lat="43.59740300104022" lon="6.450366005301476">
        <ele>507.23000000000002</ele>
        <time>2025-05-18T10:38:41Z</time>
      </trkpt>
      <trkpt lat="43.597324965521693" lon="6.450357958674431">
        <ele>507.23000000000002</ele>
        <time>2025-05-18T10:38:42Z</time>
      </trkpt>
      <trkpt lat="43.597243996337056" lon="6.450349995866418">
        <ele>506.75</ele>
        <time>2025-05-18T10:38:43Z</time>
      </trkpt>
      <trkpt lat="43.5971640329808" lon="6.450323006138206">
        <ele>506.75</ele>
        <time>2025-05-18T10:38:44Z</time>
      </trkpt>
      <trkpt lat="43.597073005512357" lon="6.45028998143971">
        <ele>506.26999999999998</ele>
        <time>2025-05-18T10:38:45Z</time>
      </trkpt>
      <trkpt lat="43.596991030499339" lon="6.450261985883117">
        <ele>505.79000000000002</ele>
        <time>2025-05-18T10:38:46Z</time>
      </trkpt>
      <trkpt lat="43.596890028566122" lon="6.450254023075104">
        <ele>505.31</ele>
        <time>2025-05-18T10:38:47Z</time>
      </trkpt>
      <trkpt lat="43.596793971955776" lon="6.45024698227644">
        <ele>505.31</ele>
        <time>2025-05-18T10:38:48Z</time>
      </trkpt>
      <trkpt lat="43.596699004992843" lon="6.450242036953569">
        <ele>504.82999999999998</ele>
        <time>2025-05-18T10:38:49Z</time>
      </trkpt>
      <trkpt lat="43.596603032201529" lon="6.450256034731865">
        <ele>504.35000000000002</ele>
        <time>2025-05-18T10:38:50Z</time>
      </trkpt>
      <trkpt lat="43.596508987247944" lon="6.450280006974936">
        <ele>503.87</ele>
        <time>2025-05-18T10:38:51Z</time>
      </trkpt>
      <trkpt lat="43.596323998644948" lon="6.450345972552896">
        <ele>502.43000000000001</ele>
        <time>2025-05-18T10:38:53Z</time>
      </trkpt>
      <trkpt lat="43.596232971176505" lon="6.450377991423011">
        <ele>501.94999999999999</ele>
        <time>2025-05-18T10:38:54Z</time>
      </trkpt>
      <trkpt lat="43.596152001991868" lon="6.450434988364577">
        <ele>501.45999999999998</ele>
        <time>2025-05-18T10:38:55Z</time>
      </trkpt>
      <trkpt lat="43.59607002697885" lon="6.450516963377595">
        <ele>500.98000000000002</ele>
        <time>2025-05-18T10:38:56Z</time>
      </trkpt>
      <trkpt lat="43.595986040309072" lon="6.450601033866406">
        <ele>500.5</ele>
        <time>2025-05-18T10:38:57Z</time>
      </trkpt>
      <trkpt lat="43.595755035057664" lon="6.450871014967561">
        <ele>498.10000000000002</ele>
        <time>2025-05-18T10:39:00Z</time>
      </trkpt>
      <trkpt lat="43.595634000375867" lon="6.451051980257034">
        <ele>496.66000000000003</ele>
        <time>2025-05-18T10:39:02Z</time>
      </trkpt>
      <trkpt lat="43.595537021756172" lon="6.451281979680061">
        <ele>494.74000000000001</ele>
        <time>2025-05-18T10:39:04Z</time>
      </trkpt>
      <trkpt lat="43.595492010936141" lon="6.451397985219955">
        <ele>493.29000000000002</ele>
        <time>2025-05-18T10:39:05Z</time>
      </trkpt>
      <trkpt lat="43.59544700011611" lon="6.451511979103088">
        <ele>492.32999999999998</ele>
        <time>2025-05-18T10:39:06Z</time>
      </trkpt>
      <trkpt lat="43.59542403370142" lon="6.451570987701416">
        <ele>491.37</ele>
        <time>2025-05-18T10:39:07Z</time>
      </trkpt>
      <trkpt lat="43.595431996509433" lon="6.45170602016151">
        <ele>489.93000000000001</ele>
        <time>2025-05-18T10:39:08Z</time>
      </trkpt>
      <trkpt lat="43.595439037308097" lon="6.451820014044642">
        <ele>488.49000000000001</ele>
        <time>2025-05-18T10:39:09Z</time>
      </trkpt>
      <trkpt lat="43.595445994287729" lon="6.451936019584537">
        <ele>487.05000000000001</ele>
        <time>2025-05-18T10:39:10Z</time>
      </trkpt>
      <trkpt lat="43.595445994287729" lon="6.452067028731108">
        <ele>486.07999999999998</ele>
        <time>2025-05-18T10:39:11Z</time>
      </trkpt>
      <trkpt lat="43.59542797319591" lon="6.452193008735776">
        <ele>485.12</ele>
        <time>2025-05-18T10:39:12Z</time>
      </trkpt>
      <trkpt lat="43.595378017053008" lon="6.452314965426922">
        <ele>484.16000000000003</ele>
        <time>2025-05-18T10:39:13Z</time>
      </trkpt>
      <trkpt lat="43.595325965434313" lon="6.452442035079002">
        <ele>483.19999999999999</ele>
        <time>2025-05-18T10:39:14Z</time>
      </trkpt>
      <trkpt lat="43.59527600929141" lon="6.452563991770148">
        <ele>481.75999999999999</ele>
        <time>2025-05-18T10:39:15Z</time>
      </trkpt>
      <trkpt lat="43.595234015956521" lon="6.452698018401861">
        <ele>480.80000000000001</ele>
        <time>2025-05-18T10:39:16Z</time>
      </trkpt>
      <trkpt lat="43.595160003751516" lon="6.453009992837906">
        <ele>477.91000000000003</ele>
        <time>2025-05-18T10:39:18Z</time>
      </trkpt>
      <trkpt lat="43.595119016245008" lon="6.453175032511354">
        <ele>476.47000000000003</ele>
        <time>2025-05-18T10:39:19Z</time>
      </trkpt>
      <trkpt lat="43.595027988776565" lon="6.453494969755411">
        <ele>474.06999999999999</ele>
        <time>2025-05-18T10:39:21Z</time>
      </trkpt>
      <trkpt lat="43.594983983784914" lon="6.453650034964085">
        <ele>473.11000000000001</ele>
        <time>2025-05-18T10:39:22Z</time>
      </trkpt>
      <trkpt lat="43.594948025420308" lon="6.453809961676598">
        <ele>471.66000000000003</ele>
        <time>2025-05-18T10:39:23Z</time>
      </trkpt>
      <trkpt lat="43.594925981014967" lon="6.454111961647868">
        <ele>470.22000000000003</ele>
        <time>2025-05-18T10:39:25Z</time>
      </trkpt>
      <trkpt lat="43.594913994893432" lon="6.454279012978077">
        <ele>469.74000000000001</ele>
        <time>2025-05-18T10:39:26Z</time>
      </trkpt>
      <trkpt lat="43.594922041520476" lon="6.454472970217466">
        <ele>468.77999999999997</ele>
        <time>2025-05-18T10:39:27Z</time>
      </trkpt>
      <trkpt lat="43.594967974349856" lon="6.455261036753655">
        <ele>464.93000000000001</ele>
        <time>2025-05-18T10:39:31Z</time>
      </trkpt>
      <trkpt lat="43.594985995441675" lon="6.455464968457818">
        <ele>463.49000000000001</ele>
        <time>2025-05-18T10:39:32Z</time>
      </trkpt>
      <trkpt lat="43.595036035403609" lon="6.455670995637775">
        <ele>462.05000000000001</ele>
        <time>2025-05-18T10:39:33Z</time>
      </trkpt>
      <trkpt lat="43.595085991546512" lon="6.455880962312222">
        <ele>461.08999999999997</ele>
        <time>2025-05-18T10:39:34Z</time>
      </trkpt>
      <trkpt lat="43.595100995153189" lon="6.456111967563629">
        <ele>459.64999999999998</ele>
        <time>2025-05-18T10:39:35Z</time>
      </trkpt>
      <trkpt lat="43.595097977668047" lon="6.45634800195694">
        <ele>458.20999999999998</ele>
        <time>2025-05-18T10:39:36Z</time>
      </trkpt>
      <trkpt lat="43.595081968232989" lon="6.457955986261368">
        <ele>450.02999999999997</ele>
        <time>2025-05-18T10:39:43Z</time>
      </trkpt>
      <trkpt lat="43.595206020399928" lon="6.4587970264256">
        <ele>444.26999999999998</ele>
        <time>2025-05-18T10:39:47Z</time>
      </trkpt>
      <trkpt lat="43.595259999856353" lon="6.459006993100047">
        <ele>443.31</ele>
        <time>2025-05-18T10:39:48Z</time>
      </trkpt>
      <trkpt lat="43.595542972907424" lon="6.459769997745752">
        <ele>438.98000000000002</ele>
        <time>2025-05-18T10:39:52Z</time>
      </trkpt>
      <trkpt lat="43.595583038404584" lon="6.459949035197496">
        <ele>437.54000000000002</ele>
        <time>2025-05-18T10:39:53Z</time>
      </trkpt>
      <trkpt lat="43.595584966242313" lon="6.460140980780125">
        <ele>436.10000000000002</ele>
        <time>2025-05-18T10:39:54Z</time>
      </trkpt>
      <trkpt lat="43.595548002049327" lon="6.460318006575108">
        <ele>435.13</ele>
        <time>2025-05-18T10:39:55Z</time>
      </trkpt>
      <trkpt lat="43.595511959865689" lon="6.460492014884949">
        <ele>434.17000000000002</ele>
        <time>2025-05-18T10:39:56Z</time>
      </trkpt>
      <trkpt lat="43.595497962087393" lon="6.460680020973086">
        <ele>433.69</ele>
        <time>2025-05-18T10:39:57Z</time>
      </trkpt>
      <trkpt lat="43.595521012321115" lon="6.460872972384095">
        <ele>432.73000000000002</ele>
        <time>2025-05-18T10:39:58Z</time>
      </trkpt>
      <trkpt lat="43.595543978735805" lon="6.461071036756039">
        <ele>432.25</ele>
        <time>2025-05-18T10:39:59Z</time>
      </trkpt>
      <trkpt lat="43.595610028132796" lon="6.461258959025145">
        <ele>431.29000000000002</ele>
        <time>2025-05-18T10:40:00Z</time>
      </trkpt>
      <trkpt lat="43.595689991489053" lon="6.461427016183734">
        <ele>430.32999999999998</ele>
        <time>2025-05-18T10:40:01Z</time>
      </trkpt>
      <trkpt lat="43.59576903283596" lon="6.461590966209769">
        <ele>429.37</ele>
        <time>2025-05-18T10:40:02Z</time>
      </trkpt>
      <trkpt lat="43.59585402533412" lon="6.461727004498243">
        <ele>428.39999999999998</ele>
        <time>2025-05-18T10:40:03Z</time>
      </trkpt>
      <trkpt lat="43.595944968983531" lon="6.461832029744983">
        <ele>427.92000000000002</ele>
        <time>2025-05-18T10:40:04Z</time>
      </trkpt>
      <trkpt lat="43.596072038635612" lon="6.461877962574363">
        <ele>427.44</ele>
        <time>2025-05-18T10:40:05Z</time>
      </trkpt>
      <trkpt lat="43.596187960356474" lon="6.461908975616098">
        <ele>426.95999999999998</ele>
        <time>2025-05-18T10:40:06Z</time>
      </trkpt>
      <trkpt lat="43.596385018900037" lon="6.461977958679199">
        <ele>426</ele>
        <time>2025-05-18T10:40:08Z</time>
      </trkpt>
      <trkpt lat="43.596431035548449" lon="6.462039984762669">
        <ele>426</ele>
        <time>2025-05-18T10:40:09Z</time>
      </trkpt>
      <trkpt lat="43.596419971436262" lon="6.462142998352647">
        <ele>425.51999999999998</ele>
        <time>2025-05-18T10:40:10Z</time>
      </trkpt>
      <trkpt lat="43.596405973657966" lon="6.462249029427767">
        <ele>425.51999999999998</ele>
        <time>2025-05-18T10:40:11Z</time>
      </trkpt>
      <trkpt lat="43.596388958394527" lon="6.462381966412067">
        <ele>425.51999999999998</ele>
        <time>2025-05-18T10:40:12Z</time>
      </trkpt>
      <trkpt lat="43.596216039732099" lon="6.46363103762269">
        <ele>424.07999999999998</ele>
        <time>2025-05-18T10:40:18Z</time>
      </trkpt>
      <trkpt lat="43.595885960385203" lon="6.465625008568168">
        <ele>422.63999999999999</ele>
        <time>2025-05-18T10:40:26Z</time>
      </trkpt>
      <trkpt lat="43.595846984535456" lon="6.465825000777841">
        <ele>422.63999999999999</ele>
        <time>2025-05-18T10:40:27Z</time>
      </trkpt>
      <trkpt lat="43.595810020342469" lon="6.466012001037598">
        <ele>423.12</ele>
        <time>2025-05-18T10:40:28Z</time>
      </trkpt>
      <trkpt lat="43.595736008137465" lon="6.466161031275988">
        <ele>423.12</ele>
        <time>2025-05-18T10:40:29Z</time>
      </trkpt>
      <trkpt lat="43.59566199593246" lon="6.466308971866965">
        <ele>423.12</ele>
        <time>2025-05-18T10:40:30Z</time>
      </trkpt>
      <trkpt lat="43.595570968464017" lon="6.466439981013537">
        <ele>423.60000000000002</ele>
        <time>2025-05-18T10:40:31Z</time>
      </trkpt>
      <trkpt lat="43.594677960500121" lon="6.467384034767747">
        <ele>426</ele>
        <time>2025-05-18T10:40:40Z</time>
      </trkpt>
      <trkpt lat="43.594548963010311" lon="6.467531975358725">
        <ele>426.48000000000002</ele>
        <time>2025-05-18T10:40:42Z</time>
      </trkpt>
      <trkpt lat="43.594508981332183" lon="6.467581009492278">
        <ele>426.95999999999998</ele>
        <time>2025-05-18T10:40:43Z</time>
      </trkpt>
      <trkpt lat="43.594519961625338" lon="6.467679999768734">
        <ele>426.95999999999998</ele>
        <time>2025-05-18T10:40:44Z</time>
      </trkpt>
      <trkpt lat="43.594570001587272" lon="6.467710006982088">
        <ele>427.44</ele>
        <time>2025-05-18T10:40:45Z</time>
      </trkpt>
      <trkpt lat="43.594634039327502" lon="6.467747977003455">
        <ele>427.92000000000002</ele>
        <time>2025-05-18T10:40:46Z</time>
      </trkpt>
      <trkpt lat="43.594705034047365" lon="6.467789970338345">
        <ele>428.39999999999998</ele>
        <time>2025-05-18T10:40:47Z</time>
      </trkpt>
      <trkpt lat="43.595171989873052" lon="6.468106973916292">
        <ele>429.37</ele>
        <time>2025-05-18T10:40:53Z</time>
      </trkpt>
      <trkpt lat="43.59521297737956" lon="6.468152990564704">
        <ele>429.37</ele>
        <time>2025-05-18T10:40:54Z</time>
      </trkpt>
      <trkpt lat="43.595273997634649" lon="6.468221973627806">
        <ele>428.88999999999999</ele>
        <time>2025-05-18T10:40:55Z</time>
      </trkpt>
      <trkpt lat="43.595273997634649" lon="6.468221973627806">
        <ele>428.88999999999999</ele>
        <time>2025-05-18T10:40:56Z</time>
      </trkpt>
      <trkpt lat="43.59521197155118" lon="6.468362035229802">
        <ele>429.37</ele>
        <time>2025-05-18T10:40:57Z</time>
      </trkpt>
      <trkpt lat="43.595156986266375" lon="6.468368992209435">
        <ele>429.37</ele>
        <time>2025-05-18T10:40:58Z</time>
      </trkpt>
      <trkpt lat="43.59508397988975" lon="6.468378966674209">
        <ele>429.85000000000002</ele>
        <time>2025-05-18T10:40:59Z</time>
      </trkpt>
      <trkpt lat="43.594522979110479" lon="6.468565966933966">
        <ele>432.25</ele>
        <time>2025-05-18T10:41:04Z</time>
      </trkpt>
      <trkpt lat="43.594408985227346" lon="6.468650959432125">
        <ele>432.73000000000002</ele>
        <time>2025-05-18T10:41:05Z</time>
      </trkpt>
      <trkpt lat="43.593816971406341" lon="6.469049016013742">
        <ele>435.61000000000001</ele>
        <time>2025-05-18T10:41:09Z</time>
      </trkpt>
      <trkpt lat="43.593650003895164" lon="6.469145994633436">
        <ele>436.10000000000002</ele>
        <time>2025-05-18T10:41:10Z</time>
      </trkpt>
      <trkpt lat="43.593487981706858" lon="6.469191005453467">
        <ele>437.06</ele>
        <time>2025-05-18T10:41:11Z</time>
      </trkpt>
      <trkpt lat="43.593300981447101" lon="6.4691979624331">
        <ele>438.01999999999998</ele>
        <time>2025-05-18T10:41:12Z</time>
      </trkpt>
      <trkpt lat="43.593113981187344" lon="6.469205003231764">
        <ele>438.98000000000002</ele>
        <time>2025-05-18T10:41:13Z</time>
      </trkpt>
      <trkpt lat="43.592935027554631" lon="6.46923802793026">
        <ele>439.94</ele>
        <time>2025-05-18T10:41:14Z</time>
      </trkpt>
      <trkpt lat="43.592806030064821" lon="6.469295024871826">
        <ele>440.42000000000002</ele>
        <time>2025-05-18T10:41:15Z</time>
      </trkpt>
      <trkpt lat="43.592652976512909" lon="6.469452017918229">
        <ele>440.89999999999998</ele>
        <time>2025-05-18T10:41:16Z</time>
      </trkpt>
      <trkpt lat="43.592506963759661" lon="6.469601970165968">
        <ele>441.86000000000001</ele>
        <time>2025-05-18T10:41:17Z</time>
      </trkpt>
      <trkpt lat="43.592348964884877" lon="6.469763992354274">
        <ele>443.31</ele>
        <time>2025-05-18T10:41:18Z</time>
      </trkpt>
      <trkpt lat="43.591295024380088" lon="6.47084902971983">
        <ele>451.48000000000002</ele>
        <time>2025-05-18T10:41:25Z</time>
      </trkpt>
      <trkpt lat="43.591178013011813" lon="6.470870990306139">
        <ele>452.92000000000002</ele>
        <time>2025-05-18T10:41:26Z</time>
      </trkpt>
      <trkpt lat="43.591047003865242" lon="6.470882976427674">
        <ele>453.88</ele>
        <time>2025-05-18T10:41:27Z</time>
      </trkpt>
      <trkpt lat="43.591005010530353" lon="6.470832014456391">
        <ele>454.83999999999997</ele>
        <time>2025-05-18T10:41:28Z</time>
      </trkpt>
      <trkpt lat="43.590939966961741" lon="6.470708968117833">
        <ele>455.80000000000001</ele>
        <time>2025-05-18T10:41:29Z</time>
      </trkpt>
      <trkpt lat="43.590939966961741" lon="6.470577036961913">
        <ele>456.75999999999999</ele>
        <time>2025-05-18T10:41:30Z</time>
      </trkpt>
      <trkpt lat="43.590969974175096" lon="6.470427000895143">
        <ele>457.72000000000003</ele>
        <time>2025-05-18T10:41:31Z</time>
      </trkpt>
      <trkpt lat="43.591054966673255" lon="6.470310995355249">
        <ele>458.69</ele>
        <time>2025-05-18T10:41:32Z</time>
      </trkpt>
      <trkpt lat="43.591151023283601" lon="6.470208987593651">
        <ele>460.13</ele>
        <time>2025-05-18T10:41:33Z</time>
      </trkpt>
      <trkpt lat="43.591251019388437" lon="6.470102034509182">
        <ele>461.08999999999997</ele>
        <time>2025-05-18T10:41:34Z</time>
      </trkpt>
      <trkpt lat="43.591318996623158" lon="6.469971025362611">
        <ele>462.05000000000001</ele>
        <time>2025-05-18T10:41:35Z</time>
      </trkpt>
      <trkpt lat="43.591371970251203" lon="6.469830963760614">
        <ele>463.00999999999999</ele>
        <time>2025-05-18T10:41:36Z</time>
      </trkpt>
      <trkpt lat="43.591397032141685" lon="6.469698026776314">
        <ele>463.97000000000003</ele>
        <time>2025-05-18T10:41:37Z</time>
      </trkpt>
      <trkpt lat="43.591335006058216" lon="6.46958596073091">
        <ele>464.93000000000001</ele>
        <time>2025-05-18T10:41:38Z</time>
      </trkpt>
      <trkpt lat="43.591264011338353" lon="6.469490993767977">
        <ele>465.89999999999998</ele>
        <time>2025-05-18T10:41:39Z</time>
      </trkpt>
      <trkpt lat="43.591184969991446" lon="6.469467021524906">
        <ele>466.86000000000001</ele>
        <time>2025-05-18T10:41:40Z</time>
      </trkpt>
      <trkpt lat="43.591047003865242" lon="6.469467021524906">
        <ele>467.33999999999997</ele>
        <time>2025-05-18T10:41:41Z</time>
      </trkpt>
      <trkpt lat="43.590980032458901" lon="6.46949996240437">
        <ele>468.30000000000001</ele>
        <time>2025-05-18T10:41:42Z</time>
      </trkpt>
      <trkpt lat="43.590875007212162" lon="6.469553019851446">
        <ele>469.25999999999999</ele>
        <time>2025-05-18T10:41:43Z</time>
      </trkpt>
      <trkpt lat="43.59063696116209" lon="6.469789976254106">
        <ele>470.69999999999999</ele>
        <time>2025-05-18T10:41:45Z</time>
      </trkpt>
      <trkpt lat="43.590512992814183" lon="6.469914028421044">
        <ele>471.18000000000001</ele>
        <time>2025-05-18T10:41:46Z</time>
      </trkpt>
      <trkpt lat="43.590360023081303" lon="6.470068003982306">
        <ele>472.13999999999999</ele>
        <time>2025-05-18T10:41:47Z</time>
      </trkpt>
      <trkpt lat="43.590254997834563" lon="6.470213010907173">
        <ele>472.63</ele>
        <time>2025-05-18T10:41:48Z</time>
      </trkpt>
      <trkpt lat="43.590131029486656" lon="6.470384001731873">
        <ele>473.58999999999997</ele>
        <time>2025-05-18T10:41:49Z</time>
      </trkpt>
      <trkpt lat="43.589843027293682" lon="6.470692036673427">
        <ele>475.02999999999997</ele>
        <time>2025-05-18T10:41:51Z</time>
      </trkpt>
      <trkpt lat="43.589069964364171" lon="6.471406007185578">
        <ele>480.80000000000001</ele>
        <time>2025-05-18T10:41:56Z</time>
      </trkpt>
      <trkpt lat="43.588950019329786" lon="6.471578003838658">
        <ele>481.75999999999999</ele>
        <time>2025-05-18T10:41:57Z</time>
      </trkpt>
      <trkpt lat="43.588838037103415" lon="6.471759974956513">
        <ele>483.19999999999999</ele>
        <time>2025-05-18T10:41:58Z</time>
      </trkpt>
      <trkpt lat="43.58865799382329" lon="6.472086030989885">
        <ele>485.12</ele>
        <time>2025-05-18T10:42:00Z</time>
      </trkpt>
      <trkpt lat="43.588634021580219" lon="6.472228020429611">
        <ele>485.60000000000002</ele>
        <time>2025-05-18T10:42:01Z</time>
      </trkpt>
      <trkpt lat="43.588633015751839" lon="6.47231200709939">
        <ele>486.56</ele>
        <time>2025-05-18T10:42:02Z</time>
      </trkpt>
      <trkpt lat="43.588695041835308" lon="6.472387025132775">
        <ele>487.05000000000001</ele>
        <time>2025-05-18T10:42:03Z</time>
      </trkpt>
      <trkpt lat="43.588781040161848" lon="6.472451984882355">
        <ele>488.00999999999999</ele>
        <time>2025-05-18T10:42:04Z</time>
      </trkpt>
      <trkpt lat="43.588899979367852" lon="6.47250697016716">
        <ele>488.49000000000001</ele>
        <time>2025-05-18T10:42:05Z</time>
      </trkpt>
      <trkpt lat="43.589025037363172" lon="6.472565978765488">
        <ele>488.97000000000003</ele>
        <time>2025-05-18T10:42:06Z</time>
      </trkpt>
      <trkpt lat="43.589114975184202" lon="6.472674021497369">
        <ele>489.44999999999999</ele>
        <time>2025-05-18T10:42:07Z</time>
      </trkpt>
      <trkpt lat="43.589188987389207" lon="6.47278499789536">
        <ele>490.41000000000003</ele>
        <time>2025-05-18T10:42:08Z</time>
      </trkpt>
      <trkpt lat="43.589223017916083" lon="6.472935033962131">
        <ele>491.37</ele>
        <time>2025-05-18T10:42:09Z</time>
      </trkpt>
      <trkpt lat="43.589202985167503" lon="6.473103007301688">
        <ele>491.85000000000002</ele>
        <time>2025-05-18T10:42:10Z</time>
      </trkpt>
      <trkpt lat="43.589145988225937" lon="6.473251031711698">
        <ele>493.29000000000002</ele>
        <time>2025-05-18T10:42:11Z</time>
      </trkpt>
      <trkpt lat="43.589086979627609" lon="6.47340701892972">
        <ele>493.76999999999998</ele>
        <time>2025-05-18T10:42:12Z</time>
      </trkpt>
      <trkpt lat="43.588493037968874" lon="6.474766982719302">
        <ele>497.13999999999999</ele>
        <time>2025-05-18T10:42:19Z</time>
      </trkpt>
      <trkpt lat="43.588058017194271" lon="6.476069027557969">
        <ele>495.69999999999999</ele>
        <time>2025-05-18T10:42:25Z</time>
      </trkpt>
      <trkpt lat="43.588024992495775" lon="6.476292992010713">
        <ele>494.74000000000001</ele>
        <time>2025-05-18T10:42:26Z</time>
      </trkpt>
      <trkpt lat="43.58797000721097" lon="6.476675039157271">
        <ele>493.76999999999998</ele>
        <time>2025-05-18T10:42:28Z</time>
      </trkpt>
      <trkpt lat="43.587931031361222" lon="6.476819962263107">
        <ele>492.81</ele>
        <time>2025-05-18T10:42:29Z</time>
      </trkpt>
      <trkpt lat="43.587888032197952" lon="6.476918030530214">
        <ele>492.32999999999998</ele>
        <time>2025-05-18T10:42:30Z</time>
      </trkpt>
      <trkpt lat="43.587823994457722" lon="6.476987013593316">
        <ele>491.85000000000002</ele>
        <time>2025-05-18T10:42:31Z</time>
      </trkpt>
      <trkpt lat="43.587760962545872" lon="6.477028001099825">
        <ele>491.85000000000002</ele>
        <time>2025-05-18T10:42:32Z</time>
      </trkpt>
      <trkpt lat="43.587673958390951" lon="6.476981984451413">
        <ele>491.37</ele>
        <time>2025-05-18T10:42:33Z</time>
      </trkpt>
      <trkpt lat="43.587571028620005" lon="6.476891040802002">
        <ele>490.88999999999999</ele>
        <time>2025-05-18T10:42:34Z</time>
      </trkpt>
      <trkpt lat="43.587516965344548" lon="6.47680202499032">
        <ele>490.41000000000003</ele>
        <time>2025-05-18T10:42:35Z</time>
      </trkpt>
      <trkpt lat="43.587430967018008" lon="6.476661963388324">
        <ele>489.93000000000001</ele>
        <time>2025-05-18T10:42:36Z</time>
      </trkpt>
      <trkpt lat="43.587338011711836" lon="6.476508993655443">
        <ele>489.44999999999999</ele>
        <time>2025-05-18T10:42:37Z</time>
      </trkpt>
      <trkpt lat="43.587224017828703" lon="6.476364992558956">
        <ele>488.49000000000001</ele>
        <time>2025-05-18T10:42:38Z</time>
      </trkpt>
      <trkpt lat="43.587081022560596" lon="6.476263990625739">
        <ele>488.00999999999999</ele>
        <time>2025-05-18T10:42:39Z</time>
      </trkpt>
      <trkpt lat="43.586928974837065" lon="6.47615703754127">
        <ele>487.05000000000001</ele>
        <time>2025-05-18T10:42:40Z</time>
      </trkpt>
      <trkpt lat="43.586747003719211" lon="6.476097023114562">
        <ele>486.56</ele>
        <time>2025-05-18T10:42:41Z</time>
      </trkpt>
      <trkpt lat="43.586565032601357" lon="6.476046983152628">
        <ele>486.07999999999998</ele>
        <time>2025-05-18T10:42:42Z</time>
      </trkpt>
      <trkpt lat="43.58638096600771" lon="6.475997027009726">
        <ele>485.12</ele>
        <time>2025-05-18T10:42:43Z</time>
      </trkpt>
      <trkpt lat="43.586191032081842" lon="6.475947992876172">
        <ele>484.16000000000003</ele>
        <time>2025-05-18T10:42:44Z</time>
      </trkpt>
      <trkpt lat="43.58601400628686" lon="6.475972970947623">
        <ele>483.19999999999999</ele>
        <time>2025-05-18T10:42:45Z</time>
      </trkpt>
      <trkpt lat="43.585835974663496" lon="6.475998032838106">
        <ele>482.72000000000003</ele>
        <time>2025-05-18T10:42:46Z</time>
      </trkpt>
      <trkpt lat="43.585646962746978" lon="6.475995015352964">
        <ele>481.27999999999997</ele>
        <time>2025-05-18T10:42:47Z</time>
      </trkpt>
      <trkpt lat="43.585453005507588" lon="6.475962996482849">
        <ele>480.31999999999999</ele>
        <time>2025-05-18T10:42:48Z</time>
      </trkpt>
      <trkpt lat="43.58526399359107" lon="6.475930977612734">
        <ele>479.35000000000002</ele>
        <time>2025-05-18T10:42:49Z</time>
      </trkpt>
      <trkpt lat="43.585081016644835" lon="6.475909017026424">
        <ele>478.38999999999999</ele>
        <time>2025-05-18T10:42:50Z</time>
      </trkpt>
      <trkpt lat="43.584895022213459" lon="6.475955033674836">
        <ele>476.94999999999999</ele>
        <time>2025-05-18T10:42:51Z</time>
      </trkpt>
      <trkpt lat="43.584712967276573" lon="6.476054023951292">
        <ele>475.50999999999999</ele>
        <time>2025-05-18T10:42:52Z</time>
      </trkpt>
      <trkpt lat="43.584524039179087" lon="6.47615603171289">
        <ele>474.06999999999999</ele>
        <time>2025-05-18T10:42:53Z</time>
      </trkpt>
      <trkpt lat="43.583773020654917" lon="6.476528020575643">
        <ele>468.77999999999997</ele>
        <time>2025-05-18T10:42:57Z</time>
      </trkpt>
      <trkpt lat="43.583617033436894" lon="6.476660035550594">
        <ele>467.33999999999997</ele>
        <time>2025-05-18T10:42:58Z</time>
      </trkpt>
      <trkpt lat="43.583487030118704" lon="6.476828008890152">
        <ele>465.89999999999998</ele>
        <time>2025-05-18T10:42:59Z</time>
      </trkpt>
      <trkpt lat="43.583370018750429" lon="6.477021966129541">
        <ele>464.44999999999999</ele>
        <time>2025-05-18T10:43:00Z</time>
      </trkpt>
      <trkpt lat="43.583246972411871" lon="6.477228999137878">
        <ele>463.00999999999999</ele>
        <time>2025-05-18T10:43:01Z</time>
      </trkpt>
      <trkpt lat="43.5831159632653" lon="6.477432008832693">
        <ele>461.56999999999999</ele>
        <time>2025-05-18T10:43:02Z</time>
      </trkpt>
      <trkpt lat="43.582726959139109" lon="6.478046989068389">
        <ele>457.24000000000001</ele>
        <time>2025-05-18T10:43:05Z</time>
      </trkpt>
      <trkpt lat="43.582286993041635" lon="6.479096990078688">
        <ele>450.51999999999998</ele>
        <time>2025-05-18T10:43:09Z</time>
      </trkpt>
      <trkpt lat="43.582198983058333" lon="6.47937904112041">
        <ele>449.06999999999999</ele>
        <time>2025-05-18T10:43:10Z</time>
      </trkpt>
      <trkpt lat="43.581931013613939" lon="6.480171969160438">
        <ele>443.31</ele>
        <time>2025-05-18T10:43:13Z</time>
      </trkpt>
      <trkpt lat="43.581797992810607" lon="6.480383025482297">
        <ele>441.86000000000001</ele>
        <time>2025-05-18T10:43:14Z</time>
      </trkpt>
      <trkpt lat="43.581549972295761" lon="6.480846041813493">
        <ele>438.5</ele>
        <time>2025-05-18T10:43:16Z</time>
      </trkpt>
      <trkpt lat="43.581455005332828" lon="6.481114011257887">
        <ele>437.06</ele>
        <time>2025-05-18T10:43:17Z</time>
      </trkpt>
      <trkpt lat="43.581355009227991" lon="6.481388015672565">
        <ele>435.13</ele>
        <time>2025-05-18T10:43:18Z</time>
      </trkpt>
      <trkpt lat="43.580627962946892" lon="6.48329003714025">
        <ele>423.60000000000002</ele>
        <time>2025-05-18T10:43:25Z</time>
      </trkpt>
      <trkpt lat="43.580550011247396" lon="6.483566975221038">
        <ele>422.16000000000003</ele>
        <time>2025-05-18T10:43:26Z</time>
      </trkpt>
      <trkpt lat="43.580466024577618" lon="6.483838967978954">
        <ele>421.19</ele>
        <time>2025-05-18T10:43:27Z</time>
      </trkpt>
      <trkpt lat="43.58036401681602" lon="6.484096040949225">
        <ele>419.75</ele>
        <time>2025-05-18T10:43:28Z</time>
      </trkpt>
      <trkpt lat="43.580263014882803" lon="6.484352024272084">
        <ele>418.31</ele>
        <time>2025-05-18T10:43:29Z</time>
      </trkpt>
      <trkpt lat="43.580162012949586" lon="6.484607001766563">
        <ele>416.87</ele>
        <time>2025-05-18T10:43:30Z</time>
      </trkpt>
      <trkpt lat="43.580090012401342" lon="6.484875977039337">
        <ele>415.91000000000003</ele>
        <time>2025-05-18T10:43:31Z</time>
      </trkpt>
      <trkpt lat="43.57993402518332" lon="6.485646022483707">
        <ele>411.10000000000002</ele>
        <time>2025-05-18T10:43:34Z</time>
      </trkpt>
      <trkpt lat="43.579940982162952" lon="6.485898988321424">
        <ele>410.13999999999999</ele>
        <time>2025-05-18T10:43:35Z</time>
      </trkpt>
      <trkpt lat="43.579945005476475" lon="6.486400980502367">
        <ele>407.74000000000001</ele>
        <time>2025-05-18T10:43:37Z</time>
      </trkpt>
      <trkpt lat="43.579916004091501" lon="6.486633997410536">
        <ele>406.76999999999998</ele>
        <time>2025-05-18T10:43:38Z</time>
      </trkpt>
      <trkpt lat="43.579840986058116" lon="6.486841030418873">
        <ele>405.81</ele>
        <time>2025-05-18T10:43:39Z</time>
      </trkpt>
      <trkpt lat="43.579759011045098" lon="6.487038005143404">
        <ele>404.85000000000002</ele>
        <time>2025-05-18T10:43:40Z</time>
      </trkpt>
      <trkpt lat="43.579690027981997" lon="6.48724302649498">
        <ele>403.41000000000003</ele>
        <time>2025-05-18T10:43:41Z</time>
      </trkpt>
      <trkpt lat="43.579666977748275" lon="6.487463973462582">
        <ele>402.44999999999999</ele>
        <time>2025-05-18T10:43:42Z</time>
      </trkpt>
      <trkpt lat="43.579643005505204" lon="6.487702019512653">
        <ele>401.00999999999999</ele>
        <time>2025-05-18T10:43:43Z</time>
      </trkpt>
      <trkpt lat="43.579574022442102" lon="6.488372990861535">
        <ele>398.12</ele>
        <time>2025-05-18T10:43:46Z</time>
      </trkpt>
      <trkpt lat="43.579514008015394" lon="6.488540964201093">
        <ele>397.63999999999999</ele>
        <time>2025-05-18T10:43:47Z</time>
      </trkpt>
      <trkpt lat="43.579480983316898" lon="6.488607013598084">
        <ele>396.68000000000001</ele>
        <time>2025-05-18T10:43:48Z</time>
      </trkpt>
      <trkpt lat="43.579380987212062" lon="6.488689994439483">
        <ele>395.72000000000003</ele>
        <time>2025-05-18T10:43:49Z</time>
      </trkpt>
      <trkpt lat="43.579314015805721" lon="6.488713966682553">
        <ele>395.24000000000001</ele>
        <time>2025-05-18T10:43:50Z</time>
      </trkpt>
      <trkpt lat="43.579232040792704" lon="6.488713966682553">
        <ele>394.27999999999997</ele>
        <time>2025-05-18T10:43:51Z</time>
      </trkpt>
      <trkpt lat="43.579158028587699" lon="6.488648001104593">
        <ele>393.31999999999999</ele>
        <time>2025-05-18T10:43:52Z</time>
      </trkpt>
      <trkpt lat="43.579093990847468" lon="6.488552028313279">
        <ele>393.31999999999999</ele>
        <time>2025-05-18T10:43:53Z</time>
      </trkpt>
      <trkpt lat="43.579068006947637" lon="6.488431999459863">
        <ele>393.31999999999999</ele>
        <time>2025-05-18T10:43:54Z</time>
      </trkpt>
      <trkpt lat="43.579051997512579" lon="6.488198982551694">
        <ele>392.83999999999997</ele>
        <time>2025-05-18T10:43:55Z</time>
      </trkpt>
      <trkpt lat="43.579080998897552" lon="6.488075014203787">
        <ele>392.83999999999997</ele>
        <time>2025-05-18T10:43:56Z</time>
      </trkpt>
      <trkpt lat="43.579125003889203" lon="6.487880973145366">
        <ele>392.36000000000001</ele>
        <time>2025-05-18T10:43:57Z</time>
      </trkpt>
      <trkpt lat="43.579212008044124" lon="6.487492974847555">
        <ele>391.38999999999999</ele>
        <time>2025-05-18T10:43:59Z</time>
      </trkpt>
      <trkpt lat="43.579250983893871" lon="6.487307986244559">
        <ele>390.91000000000003</ele>
        <time>2025-05-18T10:44:00Z</time>
      </trkpt>
      <trkpt lat="43.579254001379013" lon="6.487144036218524">
        <ele>390.43000000000001</ele>
        <time>2025-05-18T10:44:01Z</time>
      </trkpt>
      <trkpt lat="43.579212008044124" lon="6.486997017636895">
        <ele>390.43000000000001</ele>
        <time>2025-05-18T10:44:02Z</time>
      </trkpt>
      <trkpt lat="43.579158028587699" lon="6.486857961863279">
        <ele>389.47000000000003</ele>
        <time>2025-05-18T10:44:03Z</time>
      </trkpt>
      <trkpt lat="43.57907303608954" lon="6.486746985465288">
        <ele>388.99000000000001</ele>
        <time>2025-05-18T10:44:04Z</time>
      </trkpt>
      <trkpt lat="43.578972034156322" lon="6.486656963825226">
        <ele>388.50999999999999</ele>
        <time>2025-05-18T10:44:05Z</time>
      </trkpt>
      <trkpt lat="43.578849993646145" lon="6.48662100546062">
        <ele>387.55000000000001</ele>
        <time>2025-05-18T10:44:06Z</time>
      </trkpt>
      <trkpt lat="43.57873298227787" lon="6.486628968268633">
        <ele>387.06999999999999</ele>
        <time>2025-05-18T10:44:07Z</time>
      </trkpt>
      <trkpt lat="43.57862301170826" lon="6.486675990745425">
        <ele>386.11000000000001</ele>
        <time>2025-05-18T10:44:08Z</time>
      </trkpt>
      <trkpt lat="43.578521003946662" lon="6.486800964921713">
        <ele>385.14999999999998</ele>
        <time>2025-05-18T10:44:09Z</time>
      </trkpt>
      <trkpt lat="43.578415978699923" lon="6.486943038180471">
        <ele>384.18000000000001</ele>
        <time>2025-05-18T10:44:10Z</time>
      </trkpt>
      <trkpt lat="43.578337021172047" lon="6.48711696267128">
        <ele>382.74000000000001</ele>
        <time>2025-05-18T10:44:11Z</time>
      </trkpt>
      <trkpt lat="43.578283041715622" lon="6.487303962931037">
        <ele>381.77999999999997</ele>
        <time>2025-05-18T10:44:12Z</time>
      </trkpt>
      <trkpt lat="43.578231995925307" lon="6.48750202730298">
        <ele>380.81999999999999</ele>
        <time>2025-05-18T10:44:13Z</time>
      </trkpt>
      <trkpt lat="43.57808698900044" lon="6.488122036680579">
        <ele>378.42000000000002</ele>
        <time>2025-05-18T10:44:16Z</time>
      </trkpt>
      <trkpt lat="43.578067040070891" lon="6.488333009183407">
        <ele>377.94</ele>
        <time>2025-05-18T10:44:17Z</time>
      </trkpt>
      <trkpt lat="43.578075002878904" lon="6.488558985292912">
        <ele>377.94</ele>
        <time>2025-05-18T10:44:18Z</time>
      </trkpt>
      <trkpt lat="43.578082965686917" lon="6.488799965009093">
        <ele>377.94</ele>
        <time>2025-05-18T10:44:19Z</time>
      </trkpt>
      <trkpt lat="43.578095035627484" lon="6.489055026322603">
        <ele>377.44999999999999</ele>
        <time>2025-05-18T10:44:20Z</time>
      </trkpt>
      <trkpt lat="43.578328974545002" lon="6.491338005289435">
        <ele>375.05000000000001</ele>
        <time>2025-05-18T10:44:28Z</time>
      </trkpt>
      <trkpt lat="43.578386977314949" lon="6.492900978773832">
        <ele>374.56999999999999</ele>
        <time>2025-05-18T10:44:33Z</time>
      </trkpt>
      <trkpt lat="43.578069973737001" lon="6.494394969195128">
        <ele>375.52999999999997</ele>
        <time>2025-05-18T10:44:38Z</time>
      </trkpt>
      <trkpt lat="43.577946005389094" lon="6.494660004973412">
        <ele>375.52999999999997</ele>
        <time>2025-05-18T10:44:39Z</time>
      </trkpt>
      <trkpt lat="43.577823964878917" lon="6.494920011609793">
        <ele>375.52999999999997</ele>
        <time>2025-05-18T10:44:40Z</time>
      </trkpt>
      <trkpt lat="43.577675018459558" lon="6.495152022689581">
        <ele>375.05000000000001</ele>
        <time>2025-05-18T10:44:41Z</time>
      </trkpt>
      <trkpt lat="43.577510984614491" lon="6.495372969657183">
        <ele>374.56999999999999</ele>
        <time>2025-05-18T10:44:42Z</time>
      </trkpt>
      <trkpt lat="43.577334964647889" lon="6.4955810084939">
        <ele>373.61000000000001</ele>
        <time>2025-05-18T10:44:43Z</time>
      </trkpt>
      <trkpt lat="43.577145030722022" lon="6.49577303789556">
        <ele>372.64999999999998</ele>
        <time>2025-05-18T10:44:44Z</time>
      </trkpt>
      <trkpt lat="43.576954007148743" lon="6.49596699513495">
        <ele>371.69</ele>
        <time>2025-05-18T10:44:45Z</time>
      </trkpt>
      <trkpt lat="43.575292965397239" lon="6.497643040493131">
        <ele>358.70999999999998</ele>
        <time>2025-05-18T10:44:53Z</time>
      </trkpt>
      <trkpt lat="43.574737999588251" lon="6.498304037377238">
        <ele>353.42000000000002</ele>
        <time>2025-05-18T10:44:56Z</time>
      </trkpt>
      <trkpt lat="43.574602967128158" lon="6.498560020700097">
        <ele>351.5</ele>
        <time>2025-05-18T10:44:57Z</time>
      </trkpt>
      <trkpt lat="43.574504982680082" lon="6.498822038993239">
        <ele>350.06</ele>
        <time>2025-05-18T10:44:58Z</time>
      </trkpt>
      <trkpt lat="43.574418984353542" lon="6.499084979295731">
        <ele>348.62</ele>
        <time>2025-05-18T10:44:59Z</time>
      </trkpt>
      <trkpt lat="43.574330974370241" lon="6.499356972053647">
        <ele>347.17000000000002</ele>
        <time>2025-05-18T10:45:00Z</time>
      </trkpt>
      <trkpt lat="43.574299961328506" lon="6.499607004225254">
        <ele>345.73000000000002</ele>
        <time>2025-05-18T10:45:01Z</time>
      </trkpt>
      <trkpt lat="43.574267020449042" lon="6.499873967841268">
        <ele>344.29000000000002</ele>
        <time>2025-05-18T10:45:02Z</time>
      </trkpt>
      <trkpt lat="43.574232989922166" lon="6.500141015276313">
        <ele>342.85000000000002</ele>
        <time>2025-05-18T10:45:03Z</time>
      </trkpt>
      <trkpt lat="43.574168030172586" lon="6.500667985528708">
        <ele>339.95999999999998</ele>
        <time>2025-05-18T10:45:05Z</time>
      </trkpt>
      <trkpt lat="43.573967032134533" lon="6.502643013373017">
        <ele>330.35000000000002</ele>
        <time>2025-05-18T10:45:12Z</time>
      </trkpt>
      <trkpt lat="43.573792017996311" lon="6.504057962447405">
        <ele>322.66000000000003</ele>
        <time>2025-05-18T10:45:17Z</time>
      </trkpt>
      <trkpt lat="43.573735021054745" lon="6.504289973527193">
        <ele>321.22000000000003</ele>
        <time>2025-05-18T10:45:18Z</time>
      </trkpt>
      <trkpt lat="43.573623038828373" lon="6.504506981000304">
        <ele>319.77999999999997</ele>
        <time>2025-05-18T10:45:19Z</time>
      </trkpt>
      <trkpt lat="43.573496975004673" lon="6.504661962389946">
        <ele>317.85000000000002</ele>
        <time>2025-05-18T10:45:20Z</time>
      </trkpt>
      <trkpt lat="43.573329001665115" lon="6.504768999293447">
        <ele>316.41000000000003</ele>
        <time>2025-05-18T10:45:21Z</time>
      </trkpt>
      <trkpt lat="43.573149964213371" lon="6.504848040640354">
        <ele>314.97000000000003</ele>
        <time>2025-05-18T10:45:22Z</time>
      </trkpt>
      <trkpt lat="43.572964975610375" lon="6.504924986511469">
        <ele>313.52999999999997</ele>
        <time>2025-05-18T10:45:23Z</time>
      </trkpt>
      <trkpt lat="43.57277998700738" lon="6.505001010373235">
        <ele>312.08999999999997</ele>
        <time>2025-05-18T10:45:24Z</time>
      </trkpt>
      <trkpt lat="43.572606984525919" lon="6.505072005093098">
        <ele>311.12</ele>
        <time>2025-05-18T10:45:25Z</time>
      </trkpt>
      <trkpt lat="43.572452003136277" lon="6.505169989541173">
        <ele>309.68000000000001</ele>
        <time>2025-05-18T10:45:26Z</time>
      </trkpt>
      <trkpt lat="43.572310013696551" lon="6.505299992859364">
        <ele>308.72000000000003</ele>
        <time>2025-05-18T10:45:27Z</time>
      </trkpt>
      <trkpt lat="43.572187973186374" lon="6.505462015047669">
        <ele>306.80000000000001</ele>
        <time>2025-05-18T10:45:28Z</time>
      </trkpt>
      <trkpt lat="43.57211496680975" lon="6.505653960630298">
        <ele>305.36000000000001</ele>
        <time>2025-05-18T10:45:29Z</time>
      </trkpt>
      <trkpt lat="43.572047995403409" lon="6.505869040265679">
        <ele>303.91000000000003</ele>
        <time>2025-05-18T10:45:30Z</time>
      </trkpt>
      <trkpt lat="43.571980018168688" lon="6.506089987233281">
        <ele>302.47000000000003</ele>
        <time>2025-05-18T10:45:31Z</time>
      </trkpt>
      <trkpt lat="43.571909023448825" lon="6.506316969171166">
        <ele>300.55000000000001</ele>
        <time>2025-05-18T10:45:32Z</time>
      </trkpt>
      <trkpt lat="43.571836017072201" lon="6.506543029099703">
        <ele>299.11000000000001</ele>
        <time>2025-05-18T10:45:33Z</time>
      </trkpt>
      <trkpt lat="43.571716994047165" lon="6.506733968853951">
        <ele>297.67000000000002</ele>
        <time>2025-05-18T10:45:34Z</time>
      </trkpt>
      <trkpt lat="43.571584979072213" lon="6.50690202601254">
        <ele>296.22000000000003</ele>
        <time>2025-05-18T10:45:35Z</time>
      </trkpt>
      <trkpt lat="43.571421029046178" lon="6.507003027945757">
        <ele>294.77999999999997</ele>
        <time>2025-05-18T10:45:36Z</time>
      </trkpt>
      <trkpt lat="43.571248026564717" lon="6.507064970210195">
        <ele>293.33999999999997</ele>
        <time>2025-05-18T10:45:37Z</time>
      </trkpt>
      <trkpt lat="43.57106395997107" lon="6.507075028494">
        <ele>292.38</ele>
        <time>2025-05-18T10:45:38Z</time>
      </trkpt>
      <trkpt lat="43.570879977196455" lon="6.507069999352098">
        <ele>290.94</ele>
        <time>2025-05-18T10:45:39Z</time>
      </trkpt>
      <trkpt lat="43.570691971108317" lon="6.50703202933073">
        <ele>289.97000000000003</ele>
        <time>2025-05-18T10:45:40Z</time>
      </trkpt>
      <trkpt lat="43.568326011300087" lon="6.506720976904035">
        <ele>281.31999999999999</ele>
        <time>2025-05-18T10:45:52Z</time>
      </trkpt>
      <trkpt lat="43.567960979416966" lon="6.506784008815885">
        <ele>280.83999999999997</ele>
        <time>2025-05-18T10:45:54Z</time>
      </trkpt>
      <trkpt lat="43.567785965278745" lon="6.506839999929071">
        <ele>280.36000000000001</ele>
        <time>2025-05-18T10:45:55Z</time>
      </trkpt>
      <trkpt lat="43.567617991939187" lon="6.506912000477314">
        <ele>280.36000000000001</ele>
        <time>2025-05-18T10:45:56Z</time>
      </trkpt>
      <trkpt lat="43.566177980974317" lon="6.50769897736609">
        <ele>279.39999999999998</ele>
        <time>2025-05-18T10:46:05Z</time>
      </trkpt>
      <trkpt lat="43.564514005556703" lon="6.508784014731646">
        <ele>276.04000000000002</ele>
        <time>2025-05-18T10:46:15Z</time>
      </trkpt>
      <trkpt lat="43.562864027917385" lon="6.510324021801353">
        <ele>272.67000000000002</ele>
        <time>2025-05-18T10:46:25Z</time>
      </trkpt>
      <trkpt lat="43.562724972143769" lon="6.510526025667787">
        <ele>272.19</ele>
        <time>2025-05-18T10:46:26Z</time>
      </trkpt>
      <trkpt lat="43.561553014442325" lon="6.512216990813613">
        <ele>266.89999999999998</ele>
        <time>2025-05-18T10:46:35Z</time>
      </trkpt>
      <trkpt lat="43.561412030830979" lon="6.512311035767198">
        <ele>266.89999999999998</ele>
        <time>2025-05-18T10:46:36Z</time>
      </trkpt>
      <trkpt lat="43.561260988935828" lon="6.512392004951835">
        <ele>266.42000000000002</ele>
        <time>2025-05-18T10:46:37Z</time>
      </trkpt>
      <trkpt lat="43.561101984232664" lon="6.512478003278375">
        <ele>266.42000000000002</ele>
        <time>2025-05-18T10:46:38Z</time>
      </trkpt>
      <trkpt lat="43.560930993407965" lon="6.512561989948154">
        <ele>265.94</ele>
        <time>2025-05-18T10:46:39Z</time>
      </trkpt>
      <trkpt lat="43.559090998023748" lon="6.513257017359138">
        <ele>263.06</ele>
        <time>2025-05-18T10:46:49Z</time>
      </trkpt>
      <trkpt lat="43.558912966400385" lon="6.51334997266531">
        <ele>263.06</ele>
        <time>2025-05-18T10:46:50Z</time>
      </trkpt>
      <trkpt lat="43.55842899531126" lon="6.513636969029903">
        <ele>261.13999999999999</ele>
        <time>2025-05-18T10:46:53Z</time>
      </trkpt>
      <trkpt lat="43.557215966284275" lon="6.514095040038228">
        <ele>255.84999999999999</ele>
        <time>2025-05-18T10:47:01Z</time>
      </trkpt>
      <trkpt lat="43.557081017643213" lon="6.514206016436219">
        <ele>255.37</ele>
        <time>2025-05-18T10:47:02Z</time>
      </trkpt>
      <trkpt lat="43.556942967697978" lon="6.514323027804494">
        <ele>254.88999999999999</ele>
        <time>2025-05-18T10:47:03Z</time>
      </trkpt>
      <trkpt lat="43.556818999350071" lon="6.514469040557742">
        <ele>254.41</ele>
        <time>2025-05-18T10:47:04Z</time>
      </trkpt>
      <trkpt lat="43.556692013517022" lon="6.514626033604145">
        <ele>253.93000000000001</ele>
        <time>2025-05-18T10:47:05Z</time>
      </trkpt>
      <trkpt lat="43.556583970785141" lon="6.514816973358393">
        <ele>253.93000000000001</ele>
        <time>2025-05-18T10:47:06Z</time>
      </trkpt>
      <trkpt lat="43.556484980508685" lon="6.51502501219511">
        <ele>253.44</ele>
        <time>2025-05-18T10:47:07Z</time>
      </trkpt>
      <trkpt lat="43.555302964523435" lon="6.517586018890142">
        <ele>250.56</ele>
        <time>2025-05-18T10:47:19Z</time>
      </trkpt>
      <trkpt lat="43.554324964061379" lon="6.519687026739121">
        <ele>250.08000000000001</ele>
        <time>2025-05-18T10:47:28Z</time>
      </trkpt>
      <trkpt lat="43.554064035415649" lon="6.52035104110837">
        <ele>250.08000000000001</ele>
        <time>2025-05-18T10:47:31Z</time>
      </trkpt>
      <trkpt lat="43.554007960483432" lon="6.520572993904352">
        <ele>249.59999999999999</ele>
        <time>2025-05-18T10:47:32Z</time>
      </trkpt>
      <trkpt lat="43.553997986018658" lon="6.520817996934056">
        <ele>250.08000000000001</ele>
        <time>2025-05-18T10:47:33Z</time>
      </trkpt>
      <trkpt lat="43.553990023210645" lon="6.521066017448902">
        <ele>250.08000000000001</ele>
        <time>2025-05-18T10:47:34Z</time>
      </trkpt>
      <trkpt lat="43.553993962705135" lon="6.521318983286619">
        <ele>250.08000000000001</ele>
        <time>2025-05-18T10:47:35Z</time>
      </trkpt>
      <trkpt lat="43.554007960483432" lon="6.522358004003763">
        <ele>250.56</ele>
        <time>2025-05-18T10:47:39Z</time>
      </trkpt>
      <trkpt lat="43.553970996290445" lon="6.522577023133636">
        <ele>250.56</ele>
        <time>2025-05-18T10:47:40Z</time>
      </trkpt>
      <trkpt lat="43.553892038762569" lon="6.522761005908251">
        <ele>250.08000000000001</ele>
        <time>2025-05-18T10:47:41Z</time>
      </trkpt>
      <trkpt lat="43.553811991587281" lon="6.522933002561331">
        <ele>250.56</ele>
        <time>2025-05-18T10:47:42Z</time>
      </trkpt>
      <trkpt lat="43.553736973553896" lon="6.523097036406398">
        <ele>250.56</ele>
        <time>2025-05-18T10:47:43Z</time>
      </trkpt>
      <trkpt lat="43.553518038243055" lon="6.523625012487173">
        <ele>249.59999999999999</ele>
        <time>2025-05-18T10:47:47Z</time>
      </trkpt>
      <trkpt lat="43.553366996347904" lon="6.523732971400023">
        <ele>249.12</ele>
        <time>2025-05-18T10:47:48Z</time>
      </trkpt>
      <trkpt lat="43.553356016054749" lon="6.523749986663461">
        <ele>249.12</ele>
        <time>2025-05-18T10:47:49Z</time>
      </trkpt>
      <trkpt lat="43.553307987749577" lon="6.523846965283155">
        <ele>249.59999999999999</ele>
        <time>2025-05-18T10:47:50Z</time>
      </trkpt>
      <trkpt lat="43.553320979699492" lon="6.523935981094837">
        <ele>249.12</ele>
        <time>2025-05-18T10:47:51Z</time>
      </trkpt>
      <trkpt lat="43.553341012448072" lon="6.524015022441745">
        <ele>248.63999999999999</ele>
        <time>2025-05-18T10:47:52Z</time>
      </trkpt>
      <trkpt lat="43.553376970812678" lon="6.524033965542913">
        <ele>248.63999999999999</ele>
        <time>2025-05-18T10:47:53Z</time>
      </trkpt>
      <trkpt lat="43.553450983017683" lon="6.524033965542913">
        <ele>248.16</ele>
        <time>2025-05-18T10:47:54Z</time>
      </trkpt>
      <trkpt lat="43.553495993837714" lon="6.524033965542913">
        <ele>248.16</ele>
        <time>2025-05-18T10:47:55Z</time>
      </trkpt>
      <trkpt lat="43.553657010197639" lon="6.524042012169957">
        <ele>248.63999999999999</ele>
        <time>2025-05-18T10:47:56Z</time>
      </trkpt>
      <trkpt lat="43.553745020180941" lon="6.524106971919537">
        <ele>249.12</ele>
        <time>2025-05-18T10:47:57Z</time>
      </trkpt>
      <trkpt lat="43.554494027048349" lon="6.524554984644055">
        <ele>250.56</ele>
        <time>2025-05-18T10:48:03Z</time>
      </trkpt>
      <trkpt lat="43.55572298169136" lon="6.525117997080088">
        <ele>250.56</ele>
        <time>2025-05-18T10:48:11Z</time>
      </trkpt>
      <trkpt lat="43.557355022057891" lon="6.525619989261031">
        <ele>251.52000000000001</ele>
        <time>2025-05-18T10:48:20Z</time>
      </trkpt>
      <trkpt lat="43.559365002438426" lon="6.52621703222394">
        <ele>252</ele>
        <time>2025-05-18T10:48:29Z</time>
      </trkpt>
      <trkpt lat="43.561269035562873" lon="6.526800999417901">
        <ele>254.88999999999999</ele>
        <time>2025-05-18T10:48:38Z</time>
      </trkpt>
      <trkpt lat="43.562645008787513" lon="6.527192015200853">
        <ele>255.84999999999999</ele>
        <time>2025-05-18T10:48:45Z</time>
      </trkpt>
      <trkpt lat="43.564922958612442" lon="6.527901040390134">
        <ele>262.10000000000002</ele>
        <time>2025-05-18T10:48:56Z</time>
      </trkpt>
      <trkpt lat="43.565685963258147" lon="6.528068007901311">
        <ele>264.5</ele>
        <time>2025-05-18T10:49:00Z</time>
      </trkpt>
      <trkpt lat="43.565858965739608" lon="6.528055015951395">
        <ele>265.45999999999998</ele>
        <time>2025-05-18T10:49:01Z</time>
      </trkpt>
      <trkpt lat="43.566032974049449" lon="6.527964994311333">
        <ele>265.94</ele>
        <time>2025-05-18T10:49:02Z</time>
      </trkpt>
      <trkpt lat="43.566407980397344" lon="6.527771959081292">
        <ele>266.42000000000002</ele>
        <time>2025-05-18T10:49:04Z</time>
      </trkpt>
      <trkpt lat="43.566595986485481" lon="6.527724014595151">
        <ele>266.89999999999998</ele>
        <time>2025-05-18T10:49:05Z</time>
      </trkpt>
      <trkpt lat="43.566794972866774" lon="6.527724014595151">
        <ele>266.89999999999998</ele>
        <time>2025-05-18T10:49:06Z</time>
      </trkpt>
      <trkpt lat="43.56745395809412" lon="6.527706999331713">
        <ele>266.42000000000002</ele>
        <time>2025-05-18T10:49:09Z</time>
      </trkpt>
      <trkpt lat="43.568854993209243" lon="6.527420002967119">
        <ele>264.01999999999998</ele>
        <time>2025-05-18T10:49:15Z</time>
      </trkpt>
      <trkpt lat="43.569225976243615" lon="6.527369040995836">
        <ele>264.01999999999998</ele>
        <time>2025-05-18T10:49:17Z</time>
      </trkpt>
      <trkpt lat="43.569362014532089" lon="6.52740097604692">
        <ele>263.54000000000002</ele>
        <time>2025-05-18T10:49:18Z</time>
      </trkpt>
      <trkpt lat="43.569524958729744" lon="6.527510024607182">
        <ele>263.54000000000002</ele>
        <time>2025-05-18T10:49:19Z</time>
      </trkpt>
      <trkpt lat="43.569634007290006" lon="6.527646984905005">
        <ele>264.01999999999998</ele>
        <time>2025-05-18T10:49:20Z</time>
      </trkpt>
      <trkpt lat="43.5697500128299" lon="6.52783096767962">
        <ele>264.5</ele>
        <time>2025-05-18T10:49:21Z</time>
      </trkpt>
      <trkpt lat="43.569855960085988" lon="6.528035989031196">
        <ele>264.5</ele>
        <time>2025-05-18T10:49:22Z</time>
      </trkpt>
      <trkpt lat="43.569973977282643" lon="6.528179990127683">
        <ele>264.5</ele>
        <time>2025-05-18T10:49:23Z</time>
      </trkpt>
      <trkpt lat="43.570119990035892" lon="6.528283003717661">
        <ele>264.5</ele>
        <time>2025-05-18T10:49:24Z</time>
      </trkpt>
      <trkpt lat="43.570263991132379" lon="6.52828199788928">
        <ele>264.98000000000002</ele>
        <time>2025-05-18T10:49:25Z</time>
      </trkpt>
      <trkpt lat="43.570398017764091" lon="6.528233969584107">
        <ele>264.98000000000002</ele>
        <time>2025-05-18T10:49:26Z</time>
      </trkpt>
      <trkpt lat="43.57056800276041" lon="6.528157023712993">
        <ele>265.45999999999998</ele>
        <time>2025-05-18T10:49:27Z</time>
      </trkpt>
      <trkpt lat="43.570935968309641" lon="6.528017967939377">
        <ele>266.42000000000002</ele>
        <time>2025-05-18T10:49:29Z</time>
      </trkpt>
      <trkpt lat="43.571335030719638" lon="6.52804696932435">
        <ele>267.86000000000001</ele>
        <time>2025-05-18T10:49:31Z</time>
      </trkpt>
      <trkpt lat="43.571538040414453" lon="6.528083011507988">
        <ele>268.35000000000002</ele>
        <time>2025-05-18T10:49:32Z</time>
      </trkpt>
      <trkpt lat="43.571692015975714" lon="6.528111007064581">
        <ele>269.31</ele>
        <time>2025-05-18T10:49:33Z</time>
      </trkpt>
      <trkpt lat="43.571853032335639" lon="6.528236987069249">
        <ele>269.79000000000002</ele>
        <time>2025-05-18T10:49:34Z</time>
      </trkpt>
      <trkpt lat="43.571992004290223" lon="6.528347041457892">
        <ele>270.75</ele>
        <time>2025-05-18T10:49:35Z</time>
      </trkpt>
      <trkpt lat="43.572058975696564" lon="6.528499005362392">
        <ele>271.70999999999998</ele>
        <time>2025-05-18T10:49:36Z</time>
      </trkpt>
      <trkpt lat="43.572144974023104" lon="6.528696985915303">
        <ele>272.19</ele>
        <time>2025-05-18T10:49:37Z</time>
      </trkpt>
      <trkpt lat="43.572238013148308" lon="6.528924973681569">
        <ele>273.63</ele>
        <time>2025-05-18T10:49:38Z</time>
      </trkpt>
      <trkpt lat="43.572712009772658" lon="6.530231963843107">
        <ele>280.36000000000001</ele>
        <time>2025-05-18T10:49:44Z</time>
      </trkpt>
      <trkpt lat="43.572743022814393" lon="6.530414018779993">
        <ele>280.36000000000001</ele>
        <time>2025-05-18T10:49:45Z</time>
      </trkpt>
      <trkpt lat="43.572743022814393" lon="6.530594984069467">
        <ele>280.83999999999997</ele>
        <time>2025-05-18T10:49:46Z</time>
      </trkpt>
      <trkpt lat="43.572703041136265" lon="6.530774021521211">
        <ele>280.83999999999997</ele>
        <time>2025-05-18T10:49:47Z</time>
      </trkpt>
      <trkpt lat="43.572634980082512" lon="6.530961021780968">
        <ele>281.31999999999999</ele>
        <time>2025-05-18T10:49:48Z</time>
      </trkpt>
      <trkpt lat="43.572562979534268" lon="6.531157996505499">
        <ele>281.31999999999999</ele>
        <time>2025-05-18T10:49:49Z</time>
      </trkpt>
      <trkpt lat="43.572421995922923" lon="6.531543983146548">
        <ele>281.80000000000001</ele>
        <time>2025-05-18T10:49:51Z</time>
      </trkpt>
      <trkpt lat="43.57237002812326" lon="6.531751016154885">
        <ele>281.80000000000001</ele>
        <time>2025-05-18T10:49:52Z</time>
      </trkpt>
      <trkpt lat="43.572339015081525" lon="6.531967017799616">
        <ele>281.80000000000001</ele>
        <time>2025-05-18T10:49:53Z</time>
      </trkpt>
      <trkpt lat="43.572252010926604" lon="6.533755967393518">
        <ele>277.95999999999998</ele>
        <time>2025-05-18T10:50:01Z</time>
      </trkpt>
      <trkpt lat="43.572142962366343" lon="6.53569302521646">
        <ele>272.67000000000002</ele>
        <time>2025-05-18T10:50:09Z</time>
      </trkpt>
      <trkpt lat="43.572094012051821" lon="6.536650992929936">
        <ele>271.70999999999998</ele>
        <time>2025-05-18T10:50:13Z</time>
      </trkpt>
      <trkpt lat="43.572081020101905" lon="6.536884009838104">
        <ele>271.23000000000002</ele>
        <time>2025-05-18T10:50:14Z</time>
      </trkpt>
      <trkpt lat="43.571869041770697" lon="6.539108986034989">
        <ele>267.38</ele>
        <time>2025-05-18T10:50:23Z</time>
      </trkpt>
      <trkpt lat="43.571980018168688" lon="6.541186021640897">
        <ele>262.10000000000002</ele>
        <time>2025-05-18T10:50:31Z</time>
      </trkpt>
      <trkpt lat="43.572238013148308" lon="6.543632028624415">
        <ele>263.06</ele>
        <time>2025-05-18T10:50:40Z</time>
      </trkpt>
      <trkpt lat="43.572266008704901" lon="6.546060014516115">
        <ele>267.38</ele>
        <time>2025-05-18T10:50:49Z</time>
      </trkpt>
      <trkpt lat="43.572271037846804" lon="6.546332007274032">
        <ele>267.86000000000001</ele>
        <time>2025-05-18T10:50:50Z</time>
      </trkpt>
      <trkpt lat="43.572305990383029" lon="6.546595031395555">
        <ele>268.35000000000002</ele>
        <time>2025-05-18T10:50:51Z</time>
      </trkpt>
      <trkpt lat="43.572649983689189" lon="6.548819001764059">
        <ele>270.26999999999998</ele>
        <time>2025-05-18T10:50:59Z</time>
      </trkpt>
      <trkpt lat="43.572778981178999" lon="6.551038026809692">
        <ele>274.58999999999997</ele>
        <time>2025-05-18T10:51:07Z</time>
      </trkpt>
      <trkpt lat="43.572391988709569" lon="6.553565002977848">
        <ele>274.58999999999997</ele>
        <time>2025-05-18T10:51:16Z</time>
      </trkpt>
      <trkpt lat="43.571978006511927" lon="6.556819025427103">
        <ele>270.26999999999998</ele>
        <time>2025-05-18T10:51:27Z</time>
      </trkpt>
      <trkpt lat="43.572175987064838" lon="6.559299984946847">
        <ele>269.79000000000002</ele>
        <time>2025-05-18T10:51:36Z</time>
      </trkpt>
      <trkpt lat="43.572360975667834" lon="6.560212019830942">
        <ele>271.23000000000002</ele>
        <time>2025-05-18T10:51:40Z</time>
      </trkpt>
      <trkpt lat="43.572946032509208" lon="6.561415996402502">
        <ele>274.11000000000001</ele>
        <time>2025-05-18T10:51:48Z</time>
      </trkpt>
      <trkpt lat="43.573006968945265" lon="6.561533007770777">
        <ele>274.58999999999997</ele>
        <time>2025-05-18T10:51:49Z</time>
      </trkpt>
      <trkpt lat="43.573068995028734" lon="6.561655970290303">
        <ele>274.58999999999997</ele>
        <time>2025-05-18T10:51:50Z</time>
      </trkpt>
      <trkpt lat="43.573134960606694" lon="6.561787985265255">
        <ele>275.06999999999999</ele>
        <time>2025-05-18T10:51:51Z</time>
      </trkpt>
      <trkpt lat="43.573208972811699" lon="6.56192796304822">
        <ele>275.56</ele>
        <time>2025-05-18T10:51:52Z</time>
      </trkpt>
      <trkpt lat="43.573301006108522" lon="6.5620999597013">
        <ele>276.04000000000002</ele>
        <time>2025-05-18T10:51:53Z</time>
      </trkpt>
      <trkpt lat="43.573380969464779" lon="6.562225017696619">
        <ele>277</ele>
        <time>2025-05-18T10:51:54Z</time>
      </trkpt>
      <trkpt lat="43.573856977745891" lon="6.563208969309926">
        <ele>283.25</ele>
        <time>2025-05-18T10:51:59Z</time>
      </trkpt>
      <trkpt lat="43.57393903657794" lon="6.56345397233963">
        <ele>284.69</ele>
        <time>2025-05-18T10:52:00Z</time>
      </trkpt>
      <trkpt lat="43.574020005762577" lon="6.563713978976011">
        <ele>286.13</ele>
        <time>2025-05-18T10:52:01Z</time>
      </trkpt>
      <trkpt lat="43.574441028758883" lon="6.565604014322162">
        <ele>293.81999999999999</ele>
        <time>2025-05-18T10:52:07Z</time>
      </trkpt>
      <trkpt lat="43.574708998203278" lon="6.566788963973522">
        <ele>296.69999999999999</ele>
        <time>2025-05-18T10:52:11Z</time>
      </trkpt>
      <trkpt lat="43.574677985161543" lon="6.567069003358483">
        <ele>296.69999999999999</ele>
        <time>2025-05-18T10:52:12Z</time>
      </trkpt>
      <trkpt lat="43.574644960463047" lon="6.567363040521741">
        <ele>297.18000000000001</ele>
        <time>2025-05-18T10:52:13Z</time>
      </trkpt>
      <trkpt lat="43.574571032077074" lon="6.567925969138742">
        <ele>297.67000000000002</ele>
        <time>2025-05-18T10:52:15Z</time>
      </trkpt>
      <trkpt lat="43.574582012370229" lon="6.568187987431884">
        <ele>297.67000000000002</ele>
        <time>2025-05-18T10:52:16Z</time>
      </trkpt>
      <trkpt lat="43.574615959078074" lon="6.568424021825194">
        <ele>297.67000000000002</ele>
        <time>2025-05-18T10:52:17Z</time>
      </trkpt>
      <trkpt lat="43.574691982939839" lon="6.56865200959146">
        <ele>297.67000000000002</ele>
        <time>2025-05-18T10:52:18Z</time>
      </trkpt>
      <trkpt lat="43.574779992923141" lon="6.568883014842868">
        <ele>297.67000000000002</ele>
        <time>2025-05-18T10:52:19Z</time>
      </trkpt>
      <trkpt lat="43.574889963492751" lon="6.56912399455905">
        <ele>297.67000000000002</ele>
        <time>2025-05-18T10:52:20Z</time>
      </trkpt>
      <trkpt lat="43.575006974861026" lon="6.569376960396767">
        <ele>297.67000000000002</ele>
        <time>2025-05-18T10:52:21Z</time>
      </trkpt>
      <trkpt lat="43.575814990326762" lon="6.571313012391329">
        <ele>301.50999999999999</ele>
        <time>2025-05-18T10:52:28Z</time>
      </trkpt>
      <trkpt lat="43.57589403167367" lon="6.571618029847741">
        <ele>302.47000000000003</ele>
        <time>2025-05-18T10:52:29Z</time>
      </trkpt>
      <trkpt lat="43.575958991423249" lon="6.571930004283786">
        <ele>303.91000000000003</ele>
        <time>2025-05-18T10:52:30Z</time>
      </trkpt>
      <trkpt lat="43.576005008071661" lon="6.572269974276424">
        <ele>305.36000000000001</ele>
        <time>2025-05-18T10:52:31Z</time>
      </trkpt>
      <trkpt lat="43.576037026941776" lon="6.572578009217978">
        <ele>307.27999999999997</ele>
        <time>2025-05-18T10:52:32Z</time>
      </trkpt>
      <trkpt lat="43.576123025268316" lon="6.575206993147731">
        <ele>321.69999999999999</ele>
        <time>2025-05-18T10:52:40Z</time>
      </trkpt>
      <trkpt lat="43.576080026105046" lon="6.576744988560677">
        <ele>326.01999999999998</ele>
        <time>2025-05-18T10:52:45Z</time>
      </trkpt>
      <trkpt lat="43.576019005849957" lon="6.577050006017089">
        <ele>326.01999999999998</ele>
        <time>2025-05-18T10:52:46Z</time>
      </trkpt>
      <trkpt lat="43.575953040271997" lon="6.577358962967992">
        <ele>326.01999999999998</ele>
        <time>2025-05-18T10:52:47Z</time>
      </trkpt>
      <trkpt lat="43.575846003368497" lon="6.577974027022719">
        <ele>325.06</ele>
        <time>2025-05-18T10:52:49Z</time>
      </trkpt>
      <trkpt lat="43.575803004205227" lon="6.578289018943906">
        <ele>324.57999999999998</ele>
        <time>2025-05-18T10:52:50Z</time>
      </trkpt>
      <trkpt lat="43.575771991163492" lon="6.578594958409667">
        <ele>323.62</ele>
        <time>2025-05-18T10:52:51Z</time>
      </trkpt>
      <trkpt lat="43.575785988941789" lon="6.578905005007982">
        <ele>322.66000000000003</ele>
        <time>2025-05-18T10:52:52Z</time>
      </trkpt>
      <trkpt lat="43.575800992548466" lon="6.579212034121156">
        <ele>321.69999999999999</ele>
        <time>2025-05-18T10:52:53Z</time>
      </trkpt>
      <trkpt lat="43.575814990326762" lon="6.579518979415298">
        <ele>320.25999999999999</ele>
        <time>2025-05-18T10:52:54Z</time>
      </trkpt>
      <trkpt lat="43.57615303248167" lon="6.582320965826511">
        <ele>309.68000000000001</ele>
        <time>2025-05-18T10:53:03Z</time>
      </trkpt>
      <trkpt lat="43.5766919888556" lon="6.585167041048408">
        <ele>302.47000000000003</ele>
        <time>2025-05-18T10:53:13Z</time>
      </trkpt>
      <trkpt lat="43.577042017132044" lon="6.586455004289746">
        <ele>300.06999999999999</ele>
        <time>2025-05-18T10:53:18Z</time>
      </trkpt>
      <trkpt lat="43.577073030173779" lon="6.586747029796243">
        <ele>299.11000000000001</ele>
        <time>2025-05-18T10:53:19Z</time>
      </trkpt>
      <trkpt lat="43.577094990760088" lon="6.587053975090385">
        <ele>298.63</ele>
        <time>2025-05-18T10:53:20Z</time>
      </trkpt>
      <trkpt lat="43.577071018517017" lon="6.587369972839952">
        <ele>297.67000000000002</ele>
        <time>2025-05-18T10:53:21Z</time>
      </trkpt>
      <trkpt lat="43.577033970504999" lon="6.587689993903041">
        <ele>297.18000000000001</ele>
        <time>2025-05-18T10:53:22Z</time>
      </trkpt>
      <trkpt lat="43.576685031875968" lon="6.590505978092551">
        <ele>291.89999999999998</ele>
        <time>2025-05-18T10:53:31Z</time>
      </trkpt>
      <trkpt lat="43.576401975005865" lon="6.592492992058396">
        <ele>289.00999999999999</ele>
        <time>2025-05-18T10:53:38Z</time>
      </trkpt>
      <trkpt lat="43.576395018026233" lon="6.592773031443358">
        <ele>289.00999999999999</ele>
        <time>2025-05-18T10:53:39Z</time>
      </trkpt>
      <trkpt lat="43.57639099471271" lon="6.593053992837668">
        <ele>289.00999999999999</ele>
        <time>2025-05-18T10:53:40Z</time>
      </trkpt>
      <trkpt lat="43.576451009139419" lon="6.59537997096777">
        <ele>289.49000000000001</ele>
        <time>2025-05-18T10:53:48Z</time>
      </trkpt>
      <trkpt lat="43.576503982767463" lon="6.595652969554067">
        <ele>289.49000000000001</ele>
        <time>2025-05-18T10:53:49Z</time>
      </trkpt>
      <trkpt lat="43.576555028557777" lon="6.595912976190448">
        <ele>289.49000000000001</ele>
        <time>2025-05-18T10:53:50Z</time>
      </trkpt>
      <trkpt lat="43.576601967215538" lon="6.5961520280689">
        <ele>289.49000000000001</ele>
        <time>2025-05-18T10:53:51Z</time>
      </trkpt>
      <trkpt lat="43.57664798386395" lon="6.596383033320308">
        <ele>289.49000000000001</ele>
        <time>2025-05-18T10:53:52Z</time>
      </trkpt>
      <trkpt lat="43.57660599052906" lon="6.596615966409445">
        <ele>289.00999999999999</ele>
        <time>2025-05-18T10:53:53Z</time>
      </trkpt>
      <trkpt lat="43.576551005244255" lon="6.596799027174711">
        <ele>289.00999999999999</ele>
        <time>2025-05-18T10:53:54Z</time>
      </trkpt>
      <trkpt lat="43.576471963897347" lon="6.596958031877875">
        <ele>289.00999999999999</ele>
        <time>2025-05-18T10:53:55Z</time>
      </trkpt>
      <trkpt lat="43.576394012197852" lon="6.597114019095898">
        <ele>289.49000000000001</ele>
        <time>2025-05-18T10:53:56Z</time>
      </trkpt>
      <trkpt lat="43.576370039954782" lon="6.5972900390625">
        <ele>289.49000000000001</ele>
        <time>2025-05-18T10:53:57Z</time>
      </trkpt>
      <trkpt lat="43.576370039954782" lon="6.597491037100554">
        <ele>289.49000000000001</ele>
        <time>2025-05-18T10:53:58Z</time>
      </trkpt>
      <trkpt lat="43.576399041339755" lon="6.597672002390027">
        <ele>289.49000000000001</ele>
        <time>2025-05-18T10:53:59Z</time>
      </trkpt>
      <trkpt lat="43.576459977775812" lon="6.597843999043107">
        <ele>289.00999999999999</ele>
        <time>2025-05-18T10:54:00Z</time>
      </trkpt>
      <trkpt lat="43.576549999415874" lon="6.597964027896524">
        <ele>289.00999999999999</ele>
        <time>2025-05-18T10:54:01Z</time>
      </trkpt>
      <trkpt lat="43.576659969985485" lon="6.598053965717554">
        <ele>288.52999999999997</ele>
        <time>2025-05-18T10:54:02Z</time>
      </trkpt>
      <trkpt lat="43.576790979132056" lon="6.59810702316463">
        <ele>288.52999999999997</ele>
        <time>2025-05-18T10:54:03Z</time>
      </trkpt>
      <trkpt lat="43.57692601159215" lon="6.598090007901192">
        <ele>288.52999999999997</ele>
        <time>2025-05-18T10:54:04Z</time>
      </trkpt>
      <trkpt lat="43.577057020738721" lon="6.598030999302864">
        <ele>288.05000000000001</ele>
        <time>2025-05-18T10:54:05Z</time>
      </trkpt>
      <trkpt lat="43.577188029885292" lon="6.597972996532917">
        <ele>288.05000000000001</ele>
        <time>2025-05-18T10:54:06Z</time>
      </trkpt>
      <trkpt lat="43.577318033203483" lon="6.597954975441098">
        <ele>287.56999999999999</ele>
        <time>2025-05-18T10:54:07Z</time>
      </trkpt>
      <trkpt lat="43.57742004096508" lon="6.597989005967975">
        <ele>286.61000000000001</ele>
        <time>2025-05-18T10:54:08Z</time>
      </trkpt>
      <trkpt lat="43.577500004321337" lon="6.598066035658121">
        <ele>285.64999999999998</ele>
        <time>2025-05-18T10:54:09Z</time>
      </trkpt>
      <trkpt lat="43.57757200486958" lon="6.598194027319551">
        <ele>285.17000000000002</ele>
        <time>2025-05-18T10:54:10Z</time>
      </trkpt>
      <trkpt lat="43.577603017911315" lon="6.598370969295502">
        <ele>284.20999999999998</ele>
        <time>2025-05-18T10:54:11Z</time>
      </trkpt>
      <trkpt lat="43.577635958790779" lon="6.598565010353923">
        <ele>283.73000000000002</ele>
        <time>2025-05-18T10:54:12Z</time>
      </trkpt>
      <trkpt lat="43.577635958790779" lon="6.598791992291808">
        <ele>283.25</ele>
        <time>2025-05-18T10:54:13Z</time>
      </trkpt>
      <trkpt lat="43.577575022354722" lon="6.598974969238043">
        <ele>282.27999999999997</ele>
        <time>2025-05-18T10:54:14Z</time>
      </trkpt>
      <trkpt lat="43.577468991279602" lon="6.599156018346548">
        <ele>281.31999999999999</ele>
        <time>2025-05-18T10:54:15Z</time>
      </trkpt>
      <trkpt lat="43.577344017103314" lon="6.599318962544203">
        <ele>280.83999999999997</ele>
        <time>2025-05-18T10:54:16Z</time>
      </trkpt>
      <trkpt lat="43.577233040705323" lon="6.59950302913785">
        <ele>280.36000000000001</ele>
        <time>2025-05-18T10:54:17Z</time>
      </trkpt>
      <trkpt lat="43.577137989923358" lon="6.599724981933832">
        <ele>279.88</ele>
        <time>2025-05-18T10:54:18Z</time>
      </trkpt>
      <trkpt lat="43.577041011303663" lon="6.599951963871718">
        <ele>278.92000000000002</ele>
        <time>2025-05-18T10:54:19Z</time>
      </trkpt>
      <trkpt lat="43.576941015198827" lon="6.600183974951506">
        <ele>278.44</ele>
        <time>2025-05-18T10:54:20Z</time>
      </trkpt>
      <trkpt lat="43.576747979968786" lon="6.600635005161166">
        <ele>277.48000000000002</ele>
        <time>2025-05-18T10:54:22Z</time>
      </trkpt>
      <trkpt lat="43.576682014390826" lon="6.60085896961391">
        <ele>276.51999999999998</ele>
        <time>2025-05-18T10:54:23Z</time>
      </trkpt>
      <trkpt lat="43.576654018834233" lon="6.601112019270659">
        <ele>276.04000000000002</ele>
        <time>2025-05-18T10:54:24Z</time>
      </trkpt>
      <trkpt lat="43.576608002185822" lon="6.601594984531403">
        <ele>274.58999999999997</ele>
        <time>2025-05-18T10:54:26Z</time>
      </trkpt>
      <trkpt lat="43.576621999964118" lon="6.601811992004514">
        <ele>273.63</ele>
        <time>2025-05-18T10:54:27Z</time>
      </trkpt>
      <trkpt lat="43.576672961935401" lon="6.602009972557426">
        <ele>272.67000000000002</ele>
        <time>2025-05-18T10:54:28Z</time>
      </trkpt>
      <trkpt lat="43.576756026595831" lon="6.602204013615847">
        <ele>271.70999999999998</ele>
        <time>2025-05-18T10:54:29Z</time>
      </trkpt>
      <trkpt lat="43.576851999387145" lon="6.602323958650231">
        <ele>270.26999999999998</ele>
        <time>2025-05-18T10:54:30Z</time>
      </trkpt>
      <trkpt lat="43.576972028240561" lon="6.602473994717002">
        <ele>269.31</ele>
        <time>2025-05-18T10:54:31Z</time>
      </trkpt>
      <trkpt lat="43.577103037387133" lon="6.602652026340365">
        <ele>267.86000000000001</ele>
        <time>2025-05-18T10:54:32Z</time>
      </trkpt>
      <trkpt lat="43.577145030722022" lon="6.602862998843193">
        <ele>266.89999999999998</ele>
        <time>2025-05-18T10:54:33Z</time>
      </trkpt>
      <trkpt lat="43.577188029885292" lon="6.603076988831163">
        <ele>265.94</ele>
        <time>2025-05-18T10:54:34Z</time>
      </trkpt>
      <trkpt lat="43.577252989634871" lon="6.60328502766788">
        <ele>264.98000000000002</ele>
        <time>2025-05-18T10:54:35Z</time>
      </trkpt>
      <trkpt lat="43.577361032366753" lon="6.603458030149341">
        <ele>264.5</ele>
        <time>2025-05-18T10:54:36Z</time>
      </trkpt>
      <trkpt lat="43.577493969351053" lon="6.603601025417447">
        <ele>264.01999999999998</ele>
        <time>2025-05-18T10:54:37Z</time>
      </trkpt>
      <trkpt lat="43.57761500403285" lon="6.60377997905016">
        <ele>263.06</ele>
        <time>2025-05-18T10:54:38Z</time>
      </trkpt>
      <trkpt lat="43.57778599485755" lon="6.604156997054815">
        <ele>262.10000000000002</ele>
        <time>2025-05-18T10:54:40Z</time>
      </trkpt>
      <trkpt lat="43.577924966812134" lon="6.604276020079851">
        <ele>261.62</ele>
        <time>2025-05-18T10:54:41Z</time>
      </trkpt>
      <trkpt lat="43.578061005100608" lon="6.604392025619745">
        <ele>260.64999999999998</ele>
        <time>2025-05-18T10:54:42Z</time>
      </trkpt>
      <trkpt lat="43.578164018690586" lon="6.604538038372994">
        <ele>259.69</ele>
        <time>2025-05-18T10:54:43Z</time>
      </trkpt>
      <trkpt lat="43.57821598649025" lon="6.604698970913887">
        <ele>258.73000000000002</ele>
        <time>2025-05-18T10:54:44Z</time>
      </trkpt>
      <trkpt lat="43.578221015632153" lon="6.604864010587335">
        <ele>258.25</ele>
        <time>2025-05-18T10:54:45Z</time>
      </trkpt>
      <trkpt lat="43.578171981498599" lon="6.605057967826724">
        <ele>257.76999999999998</ele>
        <time>2025-05-18T10:54:46Z</time>
      </trkpt>
      <trkpt lat="43.578085983172059" lon="6.605186965316534">
        <ele>256.81</ele>
        <time>2025-05-18T10:54:47Z</time>
      </trkpt>
      <trkpt lat="43.577954974025488" lon="6.605314034968615">
        <ele>256.32999999999998</ele>
        <time>2025-05-18T10:54:48Z</time>
      </trkpt>
      <trkpt lat="43.577812984585762" lon="6.605452001094818">
        <ele>254.88999999999999</ele>
        <time>2025-05-18T10:54:49Z</time>
      </trkpt>
      <trkpt lat="43.577377963811159" lon="6.605873024091125">
        <ele>252.47999999999999</ele>
        <time>2025-05-18T10:54:52Z</time>
      </trkpt>
      <trkpt lat="43.577282996848226" lon="6.606088019907475">
        <ele>251.52000000000001</ele>
        <time>2025-05-18T10:54:53Z</time>
      </trkpt>
      <trkpt lat="43.577203033491969" lon="6.60629597492516">
        <ele>250.56</ele>
        <time>2025-05-18T10:54:54Z</time>
      </trkpt>
      <trkpt lat="43.577173026278615" lon="6.60655003041029">
        <ele>249.59999999999999</ele>
        <time>2025-05-18T10:54:55Z</time>
      </trkpt>
      <trkpt lat="43.577143019065261" lon="6.606814982369542">
        <ele>249.12</ele>
        <time>2025-05-18T10:54:56Z</time>
      </trkpt>
      <trkpt lat="43.577095996588469" lon="6.607084041461349">
        <ele>248.16</ele>
        <time>2025-05-18T10:54:57Z</time>
      </trkpt>
      <trkpt lat="43.577009998261929" lon="6.607343964278698">
        <ele>247.19999999999999</ele>
        <time>2025-05-18T10:54:58Z</time>
      </trkpt>
      <trkpt lat="43.576921988278627" lon="6.60760598257184">
        <ele>246.22999999999999</ele>
        <time>2025-05-18T10:54:59Z</time>
      </trkpt>
      <trkpt lat="43.576744040474296" lon="6.608139993622899">
        <ele>243.83000000000001</ele>
        <time>2025-05-18T10:55:01Z</time>
      </trkpt>
      <trkpt lat="43.576674973592162" lon="6.608430007472634">
        <ele>242.87</ele>
        <time>2025-05-18T10:55:02Z</time>
      </trkpt>
      <trkpt lat="43.576635997742414" lon="6.608728989958763">
        <ele>241.91</ele>
        <time>2025-05-18T10:55:03Z</time>
      </trkpt>
      <trkpt lat="43.576488979160786" lon="6.609875969588757">
        <ele>237.58000000000001</ele>
        <time>2025-05-18T10:55:07Z</time>
      </trkpt>
      <trkpt lat="43.576429970562458" lon="6.610124995931983">
        <ele>236.13999999999999</ele>
        <time>2025-05-18T10:55:08Z</time>
      </trkpt>
      <trkpt lat="43.576337015256286" lon="6.610324988141656">
        <ele>235.18000000000001</ele>
        <time>2025-05-18T10:55:09Z</time>
      </trkpt>
      <trkpt lat="43.576212041079998" lon="6.610494973137975">
        <ele>234.22</ele>
        <time>2025-05-18T10:55:10Z</time>
      </trkpt>
      <trkpt lat="43.576072985306382" lon="6.610638974234462">
        <ele>233.25999999999999</ele>
        <time>2025-05-18T10:55:11Z</time>
      </trkpt>
      <trkpt lat="43.575906017795205" lon="6.610775012522936">
        <ele>232.30000000000001</ele>
        <time>2025-05-18T10:55:12Z</time>
      </trkpt>
      <trkpt lat="43.575562024489045" lon="6.611054968088865">
        <ele>230.84999999999999</ele>
        <time>2025-05-18T10:55:14Z</time>
      </trkpt>
      <trkpt lat="43.5754020139575" lon="6.611208021640778">
        <ele>229.88999999999999</ele>
        <time>2025-05-18T10:55:15Z</time>
      </trkpt>
      <trkpt lat="43.575262958183885" lon="6.611369960010052">
        <ele>228.93000000000001</ele>
        <time>2025-05-18T10:55:16Z</time>
      </trkpt>
      <trkpt lat="43.575161034241319" lon="6.611582022160292">
        <ele>228.44999999999999</ele>
        <time>2025-05-18T10:55:17Z</time>
      </trkpt>
      <trkpt lat="43.575090039521456" lon="6.6117940004915">
        <ele>227.97</ele>
        <time>2025-05-18T10:55:18Z</time>
      </trkpt>
      <trkpt lat="43.575033964589238" lon="6.612017964944243">
        <ele>227.00999999999999</ele>
        <time>2025-05-18T10:55:19Z</time>
      </trkpt>
      <trkpt lat="43.574988031759858" lon="6.612256010994315">
        <ele>226.05000000000001</ele>
        <time>2025-05-18T10:55:20Z</time>
      </trkpt>
      <trkpt lat="43.574942015111446" lon="6.612492967396975">
        <ele>225.09</ele>
        <time>2025-05-18T10:55:21Z</time>
      </trkpt>
      <trkpt lat="43.574875965714455" lon="6.61271802149713">
        <ele>224.12</ele>
        <time>2025-05-18T10:55:22Z</time>
      </trkpt>
      <trkpt lat="43.574768006801605" lon="6.612908039242029">
        <ele>223.16</ele>
        <time>2025-05-18T10:55:23Z</time>
      </trkpt>
      <trkpt lat="43.574635991826653" lon="6.613078024238348">
        <ele>222.68000000000001</ele>
        <time>2025-05-18T10:55:24Z</time>
      </trkpt>
      <trkpt lat="43.574486039578915" lon="6.613220013678074">
        <ele>221.72</ele>
        <time>2025-05-18T10:55:25Z</time>
      </trkpt>
      <trkpt lat="43.574343966320157" lon="6.613354040309787">
        <ele>221.24000000000001</ele>
        <time>2025-05-18T10:55:26Z</time>
      </trkpt>
      <trkpt lat="43.574222009629011" lon="6.613500975072384">
        <ele>220.28</ele>
        <time>2025-05-18T10:55:27Z</time>
      </trkpt>
      <trkpt lat="43.574146991595626" lon="6.613678000867367">
        <ele>219.31999999999999</ele>
        <time>2025-05-18T10:55:28Z</time>
      </trkpt>
      <trkpt lat="43.574108015745878" lon="6.613869024440646">
        <ele>218.36000000000001</ele>
        <time>2025-05-18T10:55:29Z</time>
      </trkpt>
      <trkpt lat="43.574095023795962" lon="6.614048983901739">
        <ele>217.88</ele>
        <time>2025-05-18T10:55:30Z</time>
      </trkpt>
      <trkpt lat="43.574153026565909" lon="6.614256016910076">
        <ele>216.91</ele>
        <time>2025-05-18T10:55:31Z</time>
      </trkpt>
      <trkpt lat="43.574202982708812" lon="6.614434970542789">
        <ele>216.43000000000001</ele>
        <time>2025-05-18T10:55:32Z</time>
      </trkpt>
      <trkpt lat="43.574312031269073" lon="6.614585006609559">
        <ele>215.47</ele>
        <time>2025-05-18T10:55:33Z</time>
      </trkpt>
      <trkpt lat="43.574431976303458" lon="6.614688020199537">
        <ele>214.50999999999999</ele>
        <time>2025-05-18T10:55:34Z</time>
      </trkpt>
      <trkpt lat="43.574573965743184" lon="6.614730013534427">
        <ele>214.03</ele>
        <time>2025-05-18T10:55:35Z</time>
      </trkpt>
      <trkpt lat="43.574739005416632" lon="6.6147780418396">
        <ele>213.06999999999999</ele>
        <time>2025-05-18T10:55:36Z</time>
      </trkpt>
      <trkpt lat="43.574856016784906" lon="6.614735964685679">
        <ele>212.59</ele>
        <time>2025-05-18T10:55:37Z</time>
      </trkpt>
      <trkpt lat="43.575016027316451" lon="6.614677961915731">
        <ele>212.11000000000001</ele>
        <time>2025-05-18T10:55:38Z</time>
      </trkpt>
      <trkpt lat="43.575177965685725" lon="6.614619959145784">
        <ele>211.63</ele>
        <time>2025-05-18T10:55:39Z</time>
      </trkpt>
      <trkpt lat="43.575339987874031" lon="6.614561034366489">
        <ele>211.15000000000001</ele>
        <time>2025-05-18T10:55:40Z</time>
      </trkpt>
      <trkpt lat="43.57551097869873" lon="6.614499008283019">
        <ele>210.66999999999999</ele>
        <time>2025-05-18T10:55:41Z</time>
      </trkpt>
      <trkpt lat="43.575653973966837" lon="6.614490961655974">
        <ele>210.19</ele>
        <time>2025-05-18T10:55:42Z</time>
      </trkpt>
      <trkpt lat="43.57581096701324" lon="6.6144809871912">
        <ele>210.19</ele>
        <time>2025-05-18T10:55:43Z</time>
      </trkpt>
      <trkpt lat="43.576278006657958" lon="6.614435976371169">
        <ele>208.74000000000001</ele>
        <time>2025-05-18T10:55:46Z</time>
      </trkpt>
      <trkpt lat="43.576427958905697" lon="6.614383002743125">
        <ele>207.78</ele>
        <time>2025-05-18T10:55:47Z</time>
      </trkpt>
      <trkpt lat="43.576726019382477" lon="6.614278983324766">
        <ele>206.34</ele>
        <time>2025-05-18T10:55:49Z</time>
      </trkpt>
      <trkpt lat="43.577015027403831" lon="6.614177981391549">
        <ele>204.41999999999999</ele>
        <time>2025-05-18T10:55:51Z</time>
      </trkpt>
      <trkpt lat="43.577149976044893" lon="6.614091983065009">
        <ele>203.94</ele>
        <time>2025-05-18T10:55:52Z</time>
      </trkpt>
      <trkpt lat="43.57729397714138" lon="6.613954016938806">
        <ele>203.46000000000001</ele>
        <time>2025-05-18T10:55:53Z</time>
      </trkpt>
      <trkpt lat="43.578170975670218" lon="6.612807037308812">
        <ele>200.56999999999999</ele>
        <time>2025-05-18T10:55:58Z</time>
      </trkpt>
      <trkpt lat="43.578346995636821" lon="6.612577037885785">
        <ele>199.13</ele>
        <time>2025-05-18T10:55:59Z</time>
      </trkpt>
      <trkpt lat="43.578545982018113" lon="6.612433036789298">
        <ele>198.16999999999999</ele>
        <time>2025-05-18T10:56:00Z</time>
      </trkpt>
      <trkpt lat="43.578743962571025" lon="6.612318959087133">
        <ele>197.69</ele>
        <time>2025-05-18T10:56:01Z</time>
      </trkpt>
      <trkpt lat="43.578928029164672" lon="6.612213011831045">
        <ele>196.72999999999999</ele>
        <time>2025-05-18T10:56:02Z</time>
      </trkpt>
      <trkpt lat="43.579102037474513" lon="6.612172024324536">
        <ele>195.77000000000001</ele>
        <time>2025-05-18T10:56:03Z</time>
      </trkpt>
      <trkpt lat="43.579261964187026" lon="6.612140005454421">
        <ele>194.80000000000001</ele>
        <time>2025-05-18T10:56:04Z</time>
      </trkpt>
      <trkpt lat="43.57937403023243" lon="6.612181998789311">
        <ele>193.84</ele>
        <time>2025-05-18T10:56:05Z</time>
      </trkpt>
      <trkpt lat="43.579465979710221" lon="6.612296998500824">
        <ele>192.88</ele>
        <time>2025-05-18T10:56:06Z</time>
      </trkpt>
      <trkpt lat="43.57954896055162" lon="6.612405041232705">
        <ele>192.40000000000001</ele>
        <time>2025-05-18T10:56:07Z</time>
      </trkpt>
      <trkpt lat="43.579607969149947" lon="6.61256899125874">
        <ele>191.91999999999999</ele>
        <time>2025-05-18T10:56:08Z</time>
      </trkpt>
      <trkpt lat="43.579672006890178" lon="6.612749034538865">
        <ele>191.44</ele>
        <time>2025-05-18T10:56:09Z</time>
      </trkpt>
      <trkpt lat="43.579774014651775" lon="6.61312404088676">
        <ele>191.44</ele>
        <time>2025-05-18T10:56:11Z</time>
      </trkpt>
      <trkpt lat="43.579801004379988" lon="6.613304000347853">
        <ele>191.44</ele>
        <time>2025-05-18T10:56:12Z</time>
      </trkpt>
      <trkpt lat="43.579789018258452" lon="6.613498963415623">
        <ele>191.44</ele>
        <time>2025-05-18T10:56:13Z</time>
      </trkpt>
      <trkpt lat="43.579740989953279" lon="6.613687975332141">
        <ele>191.91999999999999</ele>
        <time>2025-05-18T10:56:14Z</time>
      </trkpt>
      <trkpt lat="43.579636970534921" lon="6.613867012783885">
        <ele>192.88</ele>
        <time>2025-05-18T10:56:15Z</time>
      </trkpt>
      <trkpt lat="43.579523982480168" lon="6.614059964194894">
        <ele>193.84</ele>
        <time>2025-05-18T10:56:16Z</time>
      </trkpt>
      <trkpt lat="43.578919982537627" lon="6.615564012899995">
        <ele>199.13</ele>
        <time>2025-05-18T10:56:22Z</time>
      </trkpt>
      <trkpt lat="43.578652013093233" lon="6.616664975881577">
        <ele>203.46000000000001</ele>
        <time>2025-05-18T10:56:26Z</time>
      </trkpt>
      <trkpt lat="43.578643966466188" lon="6.616910984739661">
        <ele>204.41999999999999</ele>
        <time>2025-05-18T10:56:27Z</time>
      </trkpt>
      <trkpt lat="43.578643966466188" lon="6.617132015526295">
        <ele>205.38</ele>
        <time>2025-05-18T10:56:28Z</time>
      </trkpt>
      <trkpt lat="43.578643966466188" lon="6.617327984422445">
        <ele>205.86000000000001</ele>
        <time>2025-05-18T10:56:29Z</time>
      </trkpt>
      <trkpt lat="43.578594010323286" lon="6.617479026317596">
        <ele>205.86000000000001</ele>
        <time>2025-05-18T10:56:30Z</time>
      </trkpt>
      <trkpt lat="43.578525027260184" lon="6.617582961916924">
        <ele>206.34</ele>
        <time>2025-05-18T10:56:31Z</time>
      </trkpt>
      <trkpt lat="43.578418996185064" lon="6.617628978565335">
        <ele>206.81999999999999</ele>
        <time>2025-05-18T10:56:32Z</time>
      </trkpt>
      <trkpt lat="43.578294022008777" lon="6.617645993828774">
        <ele>207.30000000000001</ele>
        <time>2025-05-18T10:56:33Z</time>
      </trkpt>
      <trkpt lat="43.578147003427148" lon="6.617630990222096">
        <ele>208.25999999999999</ele>
        <time>2025-05-18T10:56:34Z</time>
      </trkpt>
      <trkpt lat="43.577984981238842" lon="6.617612969130278">
        <ele>208.74000000000001</ele>
        <time>2025-05-18T10:56:35Z</time>
      </trkpt>
      <trkpt lat="43.577812984585762" lon="6.617676001042128">
        <ele>210.19</ele>
        <time>2025-05-18T10:56:36Z</time>
      </trkpt>
      <trkpt lat="43.57763696461916" lon="6.617768034338951">
        <ele>211.15000000000001</ele>
        <time>2025-05-18T10:56:37Z</time>
      </trkpt>
      <trkpt lat="43.577455999329686" lon="6.617876999080181">
        <ele>212.11000000000001</ele>
        <time>2025-05-18T10:56:38Z</time>
      </trkpt>
      <trkpt lat="43.57727101072669" lon="6.617991998791695">
        <ele>213.55000000000001</ele>
        <time>2025-05-18T10:56:39Z</time>
      </trkpt>
      <trkpt lat="43.577103037387133" lon="6.618122002109885">
        <ele>214.50999999999999</ele>
        <time>2025-05-18T10:56:40Z</time>
      </trkpt>
      <trkpt lat="43.5769700165838" lon="6.618313025683165">
        <ele>215.47</ele>
        <time>2025-05-18T10:56:41Z</time>
      </trkpt>
      <trkpt lat="43.576851999387145" lon="6.618521986529231">
        <ele>216.91</ele>
        <time>2025-05-18T10:56:42Z</time>
      </trkpt>
      <trkpt lat="43.576310025528073" lon="6.619766028597951">
        <ele>221.72</ele>
        <time>2025-05-18T10:56:47Z</time>
      </trkpt>
      <trkpt lat="43.576140040531754" lon="6.620245976373553">
        <ele>223.63999999999999</ele>
        <time>2025-05-18T10:56:49Z</time>
      </trkpt>
      <trkpt lat="43.576049013063312" lon="6.620471030473709">
        <ele>224.61000000000001</ele>
        <time>2025-05-18T10:56:50Z</time>
      </trkpt>
      <trkpt lat="43.575910963118076" lon="6.620654007419944">
        <ele>226.05000000000001</ele>
        <time>2025-05-18T10:56:51Z</time>
      </trkpt>
      <trkpt lat="43.575740978121758" lon="6.620794991031289">
        <ele>227.00999999999999</ele>
        <time>2025-05-18T10:56:52Z</time>
      </trkpt>
      <trkpt lat="43.575559007003903" lon="6.6209049616009">
        <ele>228.44999999999999</ele>
        <time>2025-05-18T10:56:53Z</time>
      </trkpt>
      <trkpt lat="43.575383992865682" lon="6.620996994897723">
        <ele>229.41</ele>
        <time>2025-05-18T10:56:54Z</time>
      </trkpt>
      <trkpt lat="43.575219037011266" lon="6.621102020144463">
        <ele>230.84999999999999</ele>
        <time>2025-05-18T10:56:55Z</time>
      </trkpt>
      <trkpt lat="43.575064977630973" lon="6.621218025684357">
        <ele>232.30000000000001</ele>
        <time>2025-05-18T10:56:56Z</time>
      </trkpt>
      <trkpt lat="43.57495098374784" lon="6.621353980153799">
        <ele>233.25999999999999</ele>
        <time>2025-05-18T10:56:57Z</time>
      </trkpt>
      <trkpt lat="43.574894992634654" lon="6.621489012613893">
        <ele>233.74000000000001</ele>
        <time>2025-05-18T10:56:58Z</time>
      </trkpt>
      <trkpt lat="43.574868002906442" lon="6.621623039245606">
        <ele>234.22</ele>
        <time>2025-05-18T10:56:59Z</time>
      </trkpt>
      <trkpt lat="43.574903961271048" lon="6.621714988723397">
        <ele>235.18000000000001</ele>
        <time>2025-05-18T10:57:00Z</time>
      </trkpt>
      <trkpt lat="43.574976967647672" lon="6.621769974008203">
        <ele>235.66</ele>
        <time>2025-05-18T10:57:01Z</time>
      </trkpt>
      <trkpt lat="43.575063971802592" lon="6.621769974008203">
        <ele>236.13999999999999</ele>
        <time>2025-05-18T10:57:02Z</time>
      </trkpt>
      <trkpt lat="43.575172014534473" lon="6.621712977066636">
        <ele>237.09999999999999</ele>
        <time>2025-05-18T10:57:03Z</time>
      </trkpt>
      <trkpt lat="43.575293971225619" lon="6.621647011488676">
        <ele>238.06</ele>
        <time>2025-05-18T10:57:04Z</time>
      </trkpt>
      <trkpt lat="43.575435960665345" lon="6.62161398679018">
        <ele>239.02000000000001</ele>
        <time>2025-05-18T10:57:05Z</time>
      </trkpt>
      <trkpt lat="43.575598988682032" lon="6.621599989011884">
        <ele>239.50999999999999</ele>
        <time>2025-05-18T10:57:06Z</time>
      </trkpt>
      <trkpt lat="43.575769979506731" lon="6.621583979576826">
        <ele>240.47</ele>
        <time>2025-05-18T10:57:07Z</time>
      </trkpt>
      <trkpt lat="43.575952034443617" lon="6.621580040082336">
        <ele>241.43000000000001</ele>
        <time>2025-05-18T10:57:08Z</time>
      </trkpt>
      <trkpt lat="43.576151020824909" lon="6.621577022597194">
        <ele>242.87</ele>
        <time>2025-05-18T10:57:09Z</time>
      </trkpt>
      <trkpt lat="43.577000023797154" lon="6.62150401622057">
        <ele>248.63999999999999</ele>
        <time>2025-05-18T10:57:13Z</time>
      </trkpt>
      <trkpt lat="43.578757960349321" lon="6.621082993224263">
        <ele>260.64999999999998</ele>
        <time>2025-05-18T10:57:21Z</time>
      </trkpt>
      <trkpt lat="43.579478971660137" lon="6.620818041265011">
        <ele>265.94</ele>
        <time>2025-05-18T10:57:25Z</time>
      </trkpt>
      <trkpt lat="43.579638982191682" lon="6.620849976316094">
        <ele>267.38</ele>
        <time>2025-05-18T10:57:26Z</time>
      </trkpt>
      <trkpt lat="43.579796981066465" lon="6.620900016278029">
        <ele>268.35000000000002</ele>
        <time>2025-05-18T10:57:27Z</time>
      </trkpt>
      <trkpt lat="43.579925978556275" lon="6.621019039303064">
        <ele>269.31</ele>
        <time>2025-05-18T10:57:28Z</time>
      </trkpt>
      <trkpt lat="43.580053970217705" lon="6.621187012642622">
        <ele>270.26999999999998</ele>
        <time>2025-05-18T10:57:29Z</time>
      </trkpt>
      <trkpt lat="43.580166036263108" lon="6.621387004852295">
        <ele>271.23000000000002</ele>
        <time>2025-05-18T10:57:30Z</time>
      </trkpt>
      <trkpt lat="43.580259997397661" lon="6.621629996225238">
        <ele>272.19</ele>
        <time>2025-05-18T10:57:31Z</time>
      </trkpt>
      <trkpt lat="43.580358987674117" lon="6.621883967891336">
        <ele>273.14999999999998</ele>
        <time>2025-05-18T10:57:32Z</time>
      </trkpt>
      <trkpt lat="43.580422019585967" lon="6.622155038639903">
        <ele>274.11000000000001</ele>
        <time>2025-05-18T10:57:33Z</time>
      </trkpt>
      <trkpt lat="43.58047298155725" lon="6.622424013912678">
        <ele>275.06999999999999</ele>
        <time>2025-05-18T10:57:34Z</time>
      </trkpt>
      <trkpt lat="43.580521009862423" lon="6.622678991407156">
        <ele>276.04000000000002</ele>
        <time>2025-05-18T10:57:35Z</time>
      </trkpt>
      <trkpt lat="43.580624023452401" lon="6.623228006064892">
        <ele>276.51999999999998</ele>
        <time>2025-05-18T10:57:37Z</time>
      </trkpt>
      <trkpt lat="43.580695018172264" lon="6.623496981337667">
        <ele>276.04000000000002</ele>
        <time>2025-05-18T10:57:38Z</time>
      </trkpt>
      <trkpt lat="43.58081697486341" lon="6.623754976317287">
        <ele>275.56</ele>
        <time>2025-05-18T10:57:39Z</time>
      </trkpt>
      <trkpt lat="43.581062983721495" lon="6.624300973489881">
        <ele>273.63</ele>
        <time>2025-05-18T10:57:41Z</time>
      </trkpt>
      <trkpt lat="43.581156022846699" lon="6.624590987339616">
        <ele>272.19</ele>
        <time>2025-05-18T10:57:42Z</time>
      </trkpt>
      <trkpt lat="43.58120103366673" lon="6.624906985089183">
        <ele>271.23000000000002</ele>
        <time>2025-05-18T10:57:43Z</time>
      </trkpt>
      <trkpt lat="43.581228023394942" lon="6.625217031687498">
        <ele>270.75</ele>
        <time>2025-05-18T10:57:44Z</time>
      </trkpt>
      <trkpt lat="43.581254007294774" lon="6.625518025830388">
        <ele>270.26999999999998</ele>
        <time>2025-05-18T10:57:45Z</time>
      </trkpt>
      <trkpt lat="43.581306980922818" lon="6.625804016366601">
        <ele>269.79000000000002</ele>
        <time>2025-05-18T10:57:46Z</time>
      </trkpt>
      <trkpt lat="43.581372024491429" lon="6.62608003243804">
        <ele>268.82999999999998</ele>
        <time>2025-05-18T10:57:47Z</time>
      </trkpt>
      <trkpt lat="43.581432960927486" lon="6.62633903324604">
        <ele>267.86000000000001</ele>
        <time>2025-05-18T10:57:48Z</time>
      </trkpt>
      <trkpt lat="43.581421980634332" lon="6.626600967720151">
        <ele>267.38</ele>
        <time>2025-05-18T10:57:49Z</time>
      </trkpt>
      <trkpt lat="43.581402031704783" lon="6.626842031255364">
        <ele>266.89999999999998</ele>
        <time>2025-05-18T10:57:50Z</time>
      </trkpt>
      <trkpt lat="43.581317961215973" lon="6.627050992101431">
        <ele>266.42000000000002</ele>
        <time>2025-05-18T10:57:51Z</time>
      </trkpt>
      <trkpt lat="43.581216037273407" lon="6.627262970432639">
        <ele>266.42000000000002</ele>
        <time>2025-05-18T10:57:52Z</time>
      </trkpt>
      <trkpt lat="43.581101037561893" lon="6.627476960420609">
        <ele>266.42000000000002</ele>
        <time>2025-05-18T10:57:53Z</time>
      </trkpt>
      <trkpt lat="43.580982014536858" lon="6.627696985378861">
        <ele>266.42000000000002</ele>
        <time>2025-05-18T10:57:54Z</time>
      </trkpt>
      <trkpt lat="43.580861985683441" lon="6.627921033650637">
        <ele>266.89999999999998</ele>
        <time>2025-05-18T10:57:55Z</time>
      </trkpt>
      <trkpt lat="43.580775987356901" lon="6.628175005316734">
        <ele>267.86000000000001</ele>
        <time>2025-05-18T10:57:56Z</time>
      </trkpt>
      <trkpt lat="43.580530984327197" lon="6.629222994670272">
        <ele>271.23000000000002</ele>
        <time>2025-05-18T10:58:00Z</time>
      </trkpt>
      <trkpt lat="43.580495025962591" lon="6.629504039883614">
        <ele>271.23000000000002</ele>
        <time>2025-05-18T10:58:01Z</time>
      </trkpt>
      <trkpt lat="43.580252034589648" lon="6.63229102268815">
        <ele>271.70999999999998</ele>
        <time>2025-05-18T10:58:10Z</time>
      </trkpt>
      <trkpt lat="43.580161007121205" lon="6.633917028084397">
        <ele>271.70999999999998</ele>
        <time>2025-05-18T10:58:16Z</time>
      </trkpt>
      <trkpt lat="43.580194031819701" lon="6.634163036942482">
        <ele>270.75</ele>
        <time>2025-05-18T10:58:17Z</time>
      </trkpt>
      <trkpt lat="43.580267038196325" lon="6.634420026093721">
        <ele>270.26999999999998</ele>
        <time>2025-05-18T10:58:18Z</time>
      </trkpt>
      <trkpt lat="43.580337027087808" lon="6.634670980274677">
        <ele>269.79000000000002</ele>
        <time>2025-05-18T10:58:19Z</time>
      </trkpt>
      <trkpt lat="43.580425959080458" lon="6.634885976091027">
        <ele>269.79000000000002</ele>
        <time>2025-05-18T10:58:20Z</time>
      </trkpt>
      <trkpt lat="43.580524027347565" lon="6.635080017149448">
        <ele>269.79000000000002</ele>
        <time>2025-05-18T10:58:21Z</time>
      </trkpt>
      <trkpt lat="43.580627040937543" lon="6.635221000760794">
        <ele>269.79000000000002</ele>
        <time>2025-05-18T10:58:22Z</time>
      </trkpt>
      <trkpt lat="43.580758972093463" lon="6.635316973552108">
        <ele>269.79000000000002</ele>
        <time>2025-05-18T10:58:23Z</time>
      </trkpt>
      <trkpt lat="43.580897022038698" lon="6.635365001857281">
        <ele>269.79000000000002</ele>
        <time>2025-05-18T10:58:24Z</time>
      </trkpt>
      <trkpt lat="43.58107496984303" lon="6.6353830229491">
        <ele>269.79000000000002</ele>
        <time>2025-05-18T10:58:25Z</time>
      </trkpt>
      <trkpt lat="43.581270016729832" lon="6.635402971878648">
        <ele>269.31</ele>
        <time>2025-05-18T10:58:26Z</time>
      </trkpt>
      <trkpt lat="43.581662960350513" lon="6.635452006012201">
        <ele>267.86000000000001</ele>
        <time>2025-05-18T10:58:28Z</time>
      </trkpt>
      <trkpt lat="43.581820959225297" lon="6.63555895909667">
        <ele>266.89999999999998</ele>
        <time>2025-05-18T10:58:29Z</time>
      </trkpt>
      <trkpt lat="43.58197602443397" lon="6.63566499017179">
        <ele>265.94</ele>
        <time>2025-05-18T10:58:30Z</time>
      </trkpt>
      <trkpt lat="43.582120025530457" lon="6.635763980448246">
        <ele>264.98000000000002</ele>
        <time>2025-05-18T10:58:31Z</time>
      </trkpt>
      <trkpt lat="43.582317000254989" lon="6.635852996259928">
        <ele>264.01999999999998</ele>
        <time>2025-05-18T10:58:32Z</time>
      </trkpt>
      <trkpt lat="43.582511963322759" lon="6.635941006243229">
        <ele>262.57999999999998</ele>
        <time>2025-05-18T10:58:33Z</time>
      </trkpt>
      <trkpt lat="43.582708016037941" lon="6.636030022054911">
        <ele>261.13999999999999</ele>
        <time>2025-05-18T10:58:34Z</time>
      </trkpt>
      <trkpt lat="43.583075981587172" lon="6.636195983737707">
        <ele>259.69</ele>
        <time>2025-05-18T10:58:36Z</time>
      </trkpt>
      <trkpt lat="43.583248984068632" lon="6.636275025084615">
        <ele>259.20999999999998</ele>
        <time>2025-05-18T10:58:37Z</time>
      </trkpt>
      <trkpt lat="43.583423998206854" lon="6.636239988729358">
        <ele>258.25</ele>
        <time>2025-05-18T10:58:38Z</time>
      </trkpt>
      <trkpt lat="43.583603035658598" lon="6.636196989566088">
        <ele>256.81</ele>
        <time>2025-05-18T10:58:39Z</time>
      </trkpt>
      <trkpt lat="43.583770003169775" lon="6.636088024824858">
        <ele>255.84999999999999</ele>
        <time>2025-05-18T10:58:40Z</time>
      </trkpt>
      <trkpt lat="43.583948034793139" lon="6.635961961001158">
        <ele>254.41</ele>
        <time>2025-05-18T10:58:41Z</time>
      </trkpt>
      <trkpt lat="43.584137968719006" lon="6.635827012360096">
        <ele>252.96000000000001</ele>
        <time>2025-05-18T10:58:42Z</time>
      </trkpt>
      <trkpt lat="43.585841003805399" lon="6.634167982265353">
        <ele>241.43000000000001</ele>
        <time>2025-05-18T10:58:52Z</time>
      </trkpt>
      <trkpt lat="43.585995985195041" lon="6.634011995047331">
        <ele>240.47</ele>
        <time>2025-05-18T10:58:53Z</time>
      </trkpt>
      <trkpt lat="43.586178962141275" lon="6.633917028084397">
        <ele>239.50999999999999</ele>
        <time>2025-05-18T10:58:54Z</time>
      </trkpt>
      <trkpt lat="43.586354982107878" lon="6.633887020871043">
        <ele>239.02000000000001</ele>
        <time>2025-05-18T10:58:55Z</time>
      </trkpt>
      <trkpt lat="43.586536031216383" lon="6.633909987285733">
        <ele>238.06</ele>
        <time>2025-05-18T10:58:56Z</time>
      </trkpt>
      <trkpt lat="43.586718002334237" lon="6.633932031691074">
        <ele>237.58000000000001</ele>
        <time>2025-05-18T10:58:57Z</time>
      </trkpt>
      <trkpt lat="43.586873989552259" lon="6.634019035845995">
        <ele>236.62</ele>
        <time>2025-05-18T10:58:58Z</time>
      </trkpt>
      <trkpt lat="43.587018996477127" lon="6.634136969223619">
        <ele>235.66</ele>
        <time>2025-05-18T10:58:59Z</time>
      </trkpt>
      <trkpt lat="43.587148999795318" lon="6.634273007512093">
        <ele>234.69999999999999</ele>
        <time>2025-05-18T10:59:00Z</time>
      </trkpt>
      <trkpt lat="43.587241033092141" lon="6.634449027478695">
        <ele>233.74000000000001</ele>
        <time>2025-05-18T10:59:01Z</time>
      </trkpt>
      <trkpt lat="43.587334994226694" lon="6.634625969454646">
        <ele>232.78</ele>
        <time>2025-05-18T10:59:02Z</time>
      </trkpt>
      <trkpt lat="43.587377993389964" lon="6.634820010513067">
        <ele>231.81</ele>
        <time>2025-05-18T10:59:03Z</time>
      </trkpt>
      <trkpt lat="43.587343962863088" lon="6.63497700355947">
        <ele>230.84999999999999</ele>
        <time>2025-05-18T10:59:04Z</time>
      </trkpt>
      <trkpt lat="43.587291995063424" lon="6.635227035731077">
        <ele>229.88999999999999</ele>
        <time>2025-05-18T10:59:05Z</time>
      </trkpt>
      <trkpt lat="43.587216977030039" lon="6.635400960221887">
        <ele>229.41</ele>
        <time>2025-05-18T10:59:06Z</time>
      </trkpt>
      <trkpt lat="43.587124021723866" lon="6.635614028200507">
        <ele>229.41</ele>
        <time>2025-05-18T10:59:07Z</time>
      </trkpt>
      <trkpt lat="43.586614988744259" lon="6.636791015043855">
        <ele>229.41</ele>
        <time>2025-05-18T10:59:12Z</time>
      </trkpt>
      <trkpt lat="43.586571989580989" lon="6.637070970609784">
        <ele>229.88999999999999</ele>
        <time>2025-05-18T10:59:13Z</time>
      </trkpt>
      <trkpt lat="43.586540976539254" lon="6.637341035529971">
        <ele>230.37</ele>
        <time>2025-05-18T10:59:14Z</time>
      </trkpt>
      <trkpt lat="43.586546005681157" lon="6.637602970004082">
        <ele>231.33000000000001</ele>
        <time>2025-05-18T10:59:15Z</time>
      </trkpt>
      <trkpt lat="43.586580036208034" lon="6.637837998569012">
        <ele>232.30000000000001</ele>
        <time>2025-05-18T10:59:16Z</time>
      </trkpt>
      <trkpt lat="43.586669974029064" lon="6.638029022142291">
        <ele>233.25999999999999</ele>
        <time>2025-05-18T10:59:17Z</time>
      </trkpt>
      <trkpt lat="43.586763013154268" lon="6.638204958289862">
        <ele>234.69999999999999</ele>
        <time>2025-05-18T10:59:18Z</time>
      </trkpt>
      <trkpt lat="43.58689796179533" lon="6.638320041820407">
        <ele>235.66</ele>
        <time>2025-05-18T10:59:19Z</time>
      </trkpt>
      <trkpt lat="43.587039029225707" lon="6.638423977419734">
        <ele>236.62</ele>
        <time>2025-05-18T10:59:20Z</time>
      </trkpt>
      <trkpt lat="43.587184958159924" lon="6.638484997674823">
        <ele>237.58000000000001</ele>
        <time>2025-05-18T10:59:21Z</time>
      </trkpt>
      <trkpt lat="43.587345974519849" lon="6.638519028201699">
        <ele>238.53999999999999</ele>
        <time>2025-05-18T10:59:22Z</time>
      </trkpt>
      <trkpt lat="43.587493998929858" lon="6.638550041243434">
        <ele>239.50999999999999</ele>
        <time>2025-05-18T10:59:23Z</time>
      </trkpt>
      <trkpt lat="43.587600030004978" lon="6.638661017641425">
        <ele>240.47</ele>
        <time>2025-05-18T10:59:24Z</time>
      </trkpt>
      <trkpt lat="43.587673958390951" lon="6.638788003474474">
        <ele>241.91</ele>
        <time>2025-05-18T10:59:25Z</time>
      </trkpt>
      <trkpt lat="43.587716035544872" lon="6.638941979035735">
        <ele>242.87</ele>
        <time>2025-05-18T10:59:26Z</time>
      </trkpt>
      <trkpt lat="43.587710000574589" lon="6.639099977910519">
        <ele>243.83000000000001</ele>
        <time>2025-05-18T10:59:27Z</time>
      </trkpt>
      <trkpt lat="43.587684016674757" lon="6.639283960685134">
        <ele>245.27000000000001</ele>
        <time>2025-05-18T10:59:28Z</time>
      </trkpt>
      <trkpt lat="43.587619978934526" lon="6.639464003965259">
        <ele>246.22999999999999</ele>
        <time>2025-05-18T10:59:29Z</time>
      </trkpt>
      <trkpt lat="43.587480001151562" lon="6.639860970899463">
        <ele>248.63999999999999</ele>
        <time>2025-05-18T10:59:31Z</time>
      </trkpt>
      <trkpt lat="43.587429039180279" lon="6.640086024999619">
        <ele>249.59999999999999</ele>
        <time>2025-05-18T10:59:32Z</time>
      </trkpt>
      <trkpt lat="43.587403977289796" lon="6.640324993059039">
        <ele>250.56</ele>
        <time>2025-05-18T10:59:33Z</time>
      </trkpt>
      <trkpt lat="43.587287971749902" lon="6.641069976612926">
        <ele>252.96000000000001</ele>
        <time>2025-05-18T10:59:36Z</time>
      </trkpt>
      <trkpt lat="43.587189987301826" lon="6.641297964379191">
        <ele>252.96000000000001</ele>
        <time>2025-05-18T10:59:37Z</time>
      </trkpt>
      <trkpt lat="43.587078005075455" lon="6.641503991559148">
        <ele>253.44</ele>
        <time>2025-05-18T10:59:38Z</time>
      </trkpt>
      <trkpt lat="43.586958982050419" lon="6.641700966283679">
        <ele>253.93000000000001</ele>
        <time>2025-05-18T10:59:39Z</time>
      </trkpt>
      <trkpt lat="43.586821015924215" lon="6.641855025663972">
        <ele>254.41</ele>
        <time>2025-05-18T10:59:40Z</time>
      </trkpt>
      <trkpt lat="43.586211986839771" lon="6.642837971448898">
        <ele>258.73000000000002</ele>
        <time>2025-05-18T10:59:46Z</time>
      </trkpt>
      <trkpt lat="43.585416963323951" lon="6.644489038735628">
        <ele>257.29000000000002</ele>
        <time>2025-05-18T10:59:54Z</time>
      </trkpt>
      <trkpt lat="43.58496299944818" lon="6.645530993118882">
        <ele>254.88999999999999</ele>
        <time>2025-05-18T10:59:59Z</time>
      </trkpt>
      <trkpt lat="43.584921006113291" lon="6.645767027512193">
        <ele>254.41</ele>
        <time>2025-05-18T11:00:00Z</time>
      </trkpt>
      <trkpt lat="43.584901979193091" lon="6.6459980327636">
        <ele>253.93000000000001</ele>
        <time>2025-05-18T11:00:01Z</time>
      </trkpt>
      <trkpt lat="43.584803994745016" lon="6.647406024858356">
        <ele>250.56</ele>
        <time>2025-05-18T11:00:07Z</time>
      </trkpt>
      <trkpt lat="43.584849005565047" lon="6.647615991532803">
        <ele>249.59999999999999</ele>
        <time>2025-05-18T11:00:08Z</time>
      </trkpt>
      <trkpt lat="43.584912037476897" lon="6.647827969864011">
        <ele>249.12</ele>
        <time>2025-05-18T11:00:09Z</time>
      </trkpt>
      <trkpt lat="43.585034999996424" lon="6.648243041709065">
        <ele>247.68000000000001</ele>
        <time>2025-05-18T11:00:11Z</time>
      </trkpt>
      <trkpt lat="43.585082022473216" lon="6.648458037525415">
        <ele>247.19999999999999</ele>
        <time>2025-05-18T11:00:12Z</time>
      </trkpt>
      <trkpt lat="43.585082022473216" lon="6.648676972836256">
        <ele>246.22999999999999</ele>
        <time>2025-05-18T11:00:13Z</time>
      </trkpt>
      <trkpt lat="43.585082022473216" lon="6.648903032764792">
        <ele>245.27000000000001</ele>
        <time>2025-05-18T11:00:14Z</time>
      </trkpt>
      <trkpt lat="43.585041034966707" lon="6.649149041622877">
        <ele>244.31</ele>
        <time>2025-05-18T11:00:15Z</time>
      </trkpt>
      <trkpt lat="43.584997029975057" lon="6.649398989975452">
        <ele>242.87</ele>
        <time>2025-05-18T11:00:16Z</time>
      </trkpt>
      <trkpt lat="43.584864009171724" lon="6.650186972692609">
        <ele>239.50999999999999</ele>
        <time>2025-05-18T11:00:19Z</time>
      </trkpt>
      <trkpt lat="43.584845988079906" lon="6.650452008470893">
        <ele>238.06</ele>
        <time>2025-05-18T11:00:20Z</time>
      </trkpt>
      <trkpt lat="43.584882030263543" lon="6.650706985965371">
        <ele>237.09999999999999</ele>
        <time>2025-05-18T11:00:21Z</time>
      </trkpt>
      <trkpt lat="43.58491899445653" lon="6.650948971509934">
        <ele>236.13999999999999</ele>
        <time>2025-05-18T11:00:22Z</time>
      </trkpt>
      <trkpt lat="43.584972973912954" lon="6.651191962882876">
        <ele>235.66</ele>
        <time>2025-05-18T11:00:23Z</time>
      </trkpt>
      <trkpt lat="43.585075987502933" lon="6.651409976184368">
        <ele>235.18000000000001</ele>
        <time>2025-05-18T11:00:24Z</time>
      </trkpt>
      <trkpt lat="43.585170032456517" lon="6.65162798948586">
        <ele>235.18000000000001</ele>
        <time>2025-05-18T11:00:25Z</time>
      </trkpt>
      <trkpt lat="43.585254019126296" lon="6.651836028322578">
        <ele>234.69999999999999</ele>
        <time>2025-05-18T11:00:26Z</time>
      </trkpt>
      <trkpt lat="43.585339011624455" lon="6.652050018310547">
        <ele>234.22</ele>
        <time>2025-05-18T11:00:27Z</time>
      </trkpt>
      <trkpt lat="43.585375975817442" lon="6.652271971106529">
        <ele>234.22</ele>
        <time>2025-05-18T11:00:28Z</time>
      </trkpt>
      <trkpt lat="43.585400031879544" lon="6.652524014934897">
        <ele>234.22</ele>
        <time>2025-05-18T11:00:29Z</time>
      </trkpt>
      <trkpt lat="43.585390979424119" lon="6.652792990207672">
        <ele>234.22</ele>
        <time>2025-05-18T11:00:30Z</time>
      </trkpt>
      <trkpt lat="43.585366001352668" lon="6.655518030747771">
        <ele>237.58000000000001</ele>
        <time>2025-05-18T11:00:39Z</time>
      </trkpt>
      <trkpt lat="43.58534898608923" lon="6.657307986170054">
        <ele>239.50999999999999</ele>
        <time>2025-05-18T11:00:45Z</time>
      </trkpt>
      <trkpt lat="43.585304981097579" lon="6.657578973099589">
        <ele>240.47</ele>
        <time>2025-05-18T11:00:46Z</time>
      </trkpt>
      <trkpt lat="43.585218982771039" lon="6.657826993614435">
        <ele>240.94999999999999</ele>
        <time>2025-05-18T11:00:47Z</time>
      </trkpt>
      <trkpt lat="43.585122004151344" lon="6.658071996644139">
        <ele>241.43000000000001</ele>
        <time>2025-05-18T11:00:48Z</time>
      </trkpt>
      <trkpt lat="43.584980014711618" lon="6.658277017995715">
        <ele>241.91</ele>
        <time>2025-05-18T11:00:49Z</time>
      </trkpt>
      <trkpt lat="43.584840036928654" lon="6.658479021862149">
        <ele>242.87</ele>
        <time>2025-05-18T11:00:50Z</time>
      </trkpt>
      <trkpt lat="43.584708021953702" lon="6.658666022121906">
        <ele>243.34999999999999</ele>
        <time>2025-05-18T11:00:51Z</time>
      </trkpt>
      <trkpt lat="43.584612971171737" lon="6.658871965482831">
        <ele>244.31</ele>
        <time>2025-05-18T11:00:52Z</time>
      </trkpt>
      <trkpt lat="43.584548011422157" lon="6.659080004319549">
        <ele>244.78999999999999</ele>
        <time>2025-05-18T11:00:53Z</time>
      </trkpt>
      <trkpt lat="43.584564020857215" lon="6.659292988479137">
        <ele>245.27000000000001</ele>
        <time>2025-05-18T11:00:54Z</time>
      </trkpt>
      <trkpt lat="43.584581036120653" lon="6.659478982910514">
        <ele>246.22999999999999</ele>
        <time>2025-05-18T11:00:55Z</time>
      </trkpt>
      <trkpt lat="43.584622023627162" lon="6.659655002877116">
        <ele>246.72</ele>
        <time>2025-05-18T11:00:56Z</time>
      </trkpt>
      <trkpt lat="43.58470500446856" lon="6.659826999530196">
        <ele>247.19999999999999</ele>
        <time>2025-05-18T11:00:57Z</time>
      </trkpt>
      <trkpt lat="43.584841964766383" lon="6.659951973706484">
        <ele>248.16</ele>
        <time>2025-05-18T11:00:58Z</time>
      </trkpt>
      <trkpt lat="43.585003986954689" lon="6.660062028095126">
        <ele>249.59999999999999</ele>
        <time>2025-05-18T11:00:59Z</time>
      </trkpt>
      <trkpt lat="43.585165003314614" lon="6.660171998664737">
        <ele>250.56</ele>
        <time>2025-05-18T11:01:00Z</time>
      </trkpt>
      <trkpt lat="43.58528696000576" lon="6.660274006426334">
        <ele>251.52000000000001</ele>
        <time>2025-05-18T11:01:01Z</time>
      </trkpt>
      <trkpt lat="43.585350997745991" lon="6.660418007522821">
        <ele>252</ele>
        <time>2025-05-18T11:01:02Z</time>
      </trkpt>
      <trkpt lat="43.585352003574371" lon="6.660562008619309">
        <ele>252.96000000000001</ele>
        <time>2025-05-18T11:01:03Z</time>
      </trkpt>
      <trkpt lat="43.585339011624455" lon="6.660740040242672">
        <ele>253.44</ele>
        <time>2025-05-18T11:01:04Z</time>
      </trkpt>
      <trkpt lat="43.585246978327632" lon="6.660869037732482">
        <ele>253.93000000000001</ele>
        <time>2025-05-18T11:01:05Z</time>
      </trkpt>
      <trkpt lat="43.585146982222795" lon="6.661009015515447">
        <ele>254.41</ele>
        <time>2025-05-18T11:01:06Z</time>
      </trkpt>
      <trkpt lat="43.585042962804437" lon="6.661154022440314">
        <ele>255.37</ele>
        <time>2025-05-18T11:01:07Z</time>
      </trkpt>
      <trkpt lat="43.584821010008454" lon="6.661465996876359">
        <ele>256.81</ele>
        <time>2025-05-18T11:01:09Z</time>
      </trkpt>
      <trkpt lat="43.584740040823817" lon="6.661677975207567">
        <ele>257.76999999999998</ele>
        <time>2025-05-18T11:01:10Z</time>
      </trkpt>
      <trkpt lat="43.584670973941684" lon="6.661913003772497">
        <ele>259.20999999999998</ele>
        <time>2025-05-18T11:01:11Z</time>
      </trkpt>
      <trkpt lat="43.584645995870233" lon="6.66217502206564">
        <ele>260.17000000000002</ele>
        <time>2025-05-18T11:01:12Z</time>
      </trkpt>
      <trkpt lat="43.584621017798781" lon="6.662449026480317">
        <ele>261.13999999999999</ele>
        <time>2025-05-18T11:01:13Z</time>
      </trkpt>
      <trkpt lat="43.584472993388772" lon="6.663845032453537">
        <ele>265.94</ele>
        <time>2025-05-18T11:01:18Z</time>
      </trkpt>
      <trkpt lat="43.584413984790444" lon="6.664061034098268">
        <ele>266.42000000000002</ele>
        <time>2025-05-18T11:01:19Z</time>
      </trkpt>
      <trkpt lat="43.584332009777427" lon="6.664238981902599">
        <ele>267.38</ele>
        <time>2025-05-18T11:01:20Z</time>
      </trkpt>
      <trkpt lat="43.584239976480603" lon="6.664393041282892">
        <ele>268.82999999999998</ele>
        <time>2025-05-18T11:01:21Z</time>
      </trkpt>
      <trkpt lat="43.584129000082612" lon="6.664513992145658">
        <ele>269.79000000000002</ele>
        <time>2025-05-18T11:01:22Z</time>
      </trkpt>
      <trkpt lat="43.584014000371099" lon="6.664637960493565">
        <ele>270.75</ele>
        <time>2025-05-18T11:01:23Z</time>
      </trkpt>
      <trkpt lat="43.583897994831204" lon="6.664763018488884">
        <ele>271.70999999999998</ele>
        <time>2025-05-18T11:01:24Z</time>
      </trkpt>
      <trkpt lat="43.583681993186474" lon="6.664997041225433">
        <ele>273.63</ele>
        <time>2025-05-18T11:01:26Z</time>
      </trkpt>
      <trkpt lat="43.583401031792164" lon="6.665368024259806">
        <ele>276.04000000000002</ele>
        <time>2025-05-18T11:01:29Z</time>
      </trkpt>
      <trkpt lat="43.583336994051933" lon="6.665525017306209">
        <ele>276.51999999999998</ele>
        <time>2025-05-18T11:01:30Z</time>
      </trkpt>
      <trkpt lat="43.583272034302354" lon="6.665686033666134">
        <ele>277</ele>
        <time>2025-05-18T11:01:31Z</time>
      </trkpt>
      <trkpt lat="43.583215037360787" lon="6.665826011449099">
        <ele>277.48000000000002</ele>
        <time>2025-05-18T11:01:32Z</time>
      </trkpt>
      <trkpt lat="43.583206990733743" lon="6.666016029193997">
        <ele>277.95999999999998</ele>
        <time>2025-05-18T11:01:33Z</time>
      </trkpt>
      <trkpt lat="43.58320003375411" lon="6.666186014190316">
        <ele>277.95999999999998</ele>
        <time>2025-05-18T11:01:34Z</time>
      </trkpt>
      <trkpt lat="43.583192992955446" lon="6.666362034156919">
        <ele>278.44</ele>
        <time>2025-05-18T11:01:35Z</time>
      </trkpt>
      <trkpt lat="43.5832230001688" lon="6.666542999446392">
        <ele>278.44</ele>
        <time>2025-05-18T11:01:36Z</time>
      </trkpt>
      <trkpt lat="43.583489041775465" lon="6.668177973479033">
        <ele>278.92000000000002</ele>
        <time>2025-05-18T11:01:43Z</time>
      </trkpt>
      <trkpt lat="43.58363295905292" lon="6.668655993416905">
        <ele>279.39999999999998</ele>
        <time>2025-05-18T11:01:45Z</time>
      </trkpt>
      <trkpt lat="43.583700014278293" lon="6.668848022818565">
        <ele>279.39999999999998</ele>
        <time>2025-05-18T11:01:46Z</time>
      </trkpt>
      <trkpt lat="43.583814008161426" lon="6.668999986723065">
        <ele>279.88</ele>
        <time>2025-05-18T11:01:47Z</time>
      </trkpt>
      <trkpt lat="43.583945017307997" lon="6.669105011969805">
        <ele>279.88</ele>
        <time>2025-05-18T11:01:48Z</time>
      </trkpt>
      <trkpt lat="43.584093041718006" lon="6.669198973104358">
        <ele>279.88</ele>
        <time>2025-05-18T11:01:49Z</time>
      </trkpt>
      <trkpt lat="43.58427501283586" lon="6.669271979480982">
        <ele>280.36000000000001</ele>
        <time>2025-05-18T11:01:50Z</time>
      </trkpt>
      <trkpt lat="43.584464024752378" lon="6.669349009171128">
        <ele>280.36000000000001</ele>
        <time>2025-05-18T11:01:51Z</time>
      </trkpt>
      <trkpt lat="43.584843976423144" lon="6.669501978904009">
        <ele>281.31999999999999</ele>
        <time>2025-05-18T11:01:53Z</time>
      </trkpt>
      <trkpt lat="43.585037011653185" lon="6.669615972787142">
        <ele>281.80000000000001</ele>
        <time>2025-05-18T11:01:54Z</time>
      </trkpt>
      <trkpt lat="43.585790041834116" lon="6.670159958302975">
        <ele>282.76999999999998</ele>
        <time>2025-05-18T11:01:58Z</time>
      </trkpt>
      <trkpt lat="43.585968995466828" lon="6.670213015750051">
        <ele>282.76999999999998</ele>
        <time>2025-05-18T11:01:59Z</time>
      </trkpt>
      <trkpt lat="43.586153984069824" lon="6.670268001034856">
        <ele>283.25</ele>
        <time>2025-05-18T11:02:00Z</time>
      </trkpt>
      <trkpt lat="43.586297985166311" lon="6.670246962457895">
        <ele>283.25</ele>
        <time>2025-05-18T11:02:01Z</time>
      </trkpt>
      <trkpt lat="43.586452966555953" lon="6.670158030465245">
        <ele>283.73000000000002</ele>
        <time>2025-05-18T11:02:02Z</time>
      </trkpt>
      <trkpt lat="43.586601996794343" lon="6.670025009661913">
        <ele>284.20999999999998</ele>
        <time>2025-05-18T11:02:03Z</time>
      </trkpt>
      <trkpt lat="43.586742980405688" lon="6.669869022443891">
        <ele>284.69</ele>
        <time>2025-05-18T11:02:04Z</time>
      </trkpt>
      <trkpt lat="43.587055960670114" lon="6.669570039957762">
        <ele>284.69</ele>
        <time>2025-05-18T11:02:06Z</time>
      </trkpt>
      <trkpt lat="43.587208008393645" lon="6.669452022761107">
        <ele>284.69</ele>
        <time>2025-05-18T11:02:07Z</time>
      </trkpt>
      <trkpt lat="43.587313033640385" lon="6.669409023597837">
        <ele>284.69</ele>
        <time>2025-05-18T11:02:08Z</time>
      </trkpt>
      <trkpt lat="43.587488969787955" lon="6.669428972527385">
        <ele>284.69</ele>
        <time>2025-05-18T11:02:09Z</time>
      </trkpt>
      <trkpt lat="43.587560970336199" lon="6.669496027752757">
        <ele>284.69</ele>
        <time>2025-05-18T11:02:10Z</time>
      </trkpt>
      <trkpt lat="43.587631965056062" lon="6.669596023857594">
        <ele>285.17000000000002</ele>
        <time>2025-05-18T11:02:11Z</time>
      </trkpt>
      <trkpt lat="43.587720980867743" lon="6.669773971661925">
        <ele>285.17000000000002</ele>
        <time>2025-05-18T11:02:12Z</time>
      </trkpt>
      <trkpt lat="43.587720980867743" lon="6.669927025213838">
        <ele>285.17000000000002</ele>
        <time>2025-05-18T11:02:13Z</time>
      </trkpt>
      <trkpt lat="43.587720980867743" lon="6.670145960524678">
        <ele>285.17000000000002</ele>
        <time>2025-05-18T11:02:14Z</time>
      </trkpt>
      <trkpt lat="43.587679993361235" lon="6.670378977432847">
        <ele>285.17000000000002</ele>
        <time>2025-05-18T11:02:15Z</time>
      </trkpt>
      <trkpt lat="43.587598018348217" lon="6.670601014047861">
        <ele>285.64999999999998</ele>
        <time>2025-05-18T11:02:16Z</time>
      </trkpt>
      <trkpt lat="43.587513025850058" lon="6.670837970450521">
        <ele>285.64999999999998</ele>
        <time>2025-05-18T11:02:17Z</time>
      </trkpt>
      <trkpt lat="43.586927969008684" lon="6.672220984473825">
        <ele>288.05000000000001</ele>
        <time>2025-05-18T11:02:23Z</time>
      </trkpt>
      <trkpt lat="43.586858985945582" lon="6.672433968633413">
        <ele>288.52999999999997</ele>
        <time>2025-05-18T11:02:24Z</time>
      </trkpt>
      <trkpt lat="43.586815986782312" lon="6.672665979713202">
        <ele>289.00999999999999</ele>
        <time>2025-05-18T11:02:25Z</time>
      </trkpt>
      <trkpt lat="43.586801989004016" lon="6.672907965257764">
        <ele>289.49000000000001</ele>
        <time>2025-05-18T11:02:26Z</time>
      </trkpt>
      <trkpt lat="43.586821015924215" lon="6.673141987994313">
        <ele>289.49000000000001</ele>
        <time>2025-05-18T11:02:27Z</time>
      </trkpt>
      <trkpt lat="43.586864015087485" lon="6.67339202016592">
        <ele>289.97000000000003</ele>
        <time>2025-05-18T11:02:28Z</time>
      </trkpt>
      <trkpt lat="43.586925035342574" lon="6.673658983781934">
        <ele>289.97000000000003</ele>
        <time>2025-05-18T11:02:29Z</time>
      </trkpt>
      <trkpt lat="43.58739098533988" lon="6.675554970279336">
        <ele>292.38</ele>
        <time>2025-05-18T11:02:36Z</time>
      </trkpt>
      <trkpt lat="43.587480001151562" lon="6.675735013559461">
        <ele>292.86000000000001</ele>
        <time>2025-05-18T11:02:37Z</time>
      </trkpt>
      <trkpt lat="43.587588965892792" lon="6.6758849658072">
        <ele>293.81999999999999</ele>
        <time>2025-05-18T11:02:38Z</time>
      </trkpt>
      <trkpt lat="43.587737996131182" lon="6.675942968577147">
        <ele>294.30000000000001</ele>
        <time>2025-05-18T11:02:39Z</time>
      </trkpt>
      <trkpt lat="43.587890965864062" lon="6.675998037680984">
        <ele>294.77999999999997</ele>
        <time>2025-05-18T11:02:40Z</time>
      </trkpt>
      <trkpt lat="43.588063968345523" lon="6.676060985773802">
        <ele>295.25999999999999</ele>
        <time>2025-05-18T11:02:41Z</time>
      </trkpt>
      <trkpt lat="43.589577991515398" lon="6.676449989899993">
        <ele>295.25999999999999</ele>
        <time>2025-05-18T11:02:49Z</time>
      </trkpt>
      <trkpt lat="43.58994897454977" lon="6.676607988774777">
        <ele>295.74000000000001</ele>
        <time>2025-05-18T11:02:51Z</time>
      </trkpt>
      <trkpt lat="43.59007503837347" lon="6.676731035113335">
        <ele>295.25999999999999</ele>
        <time>2025-05-18T11:02:52Z</time>
      </trkpt>
      <trkpt lat="43.590171011164784" lon="6.676879981532693">
        <ele>295.74000000000001</ele>
        <time>2025-05-18T11:02:53Z</time>
      </trkpt>
      <trkpt lat="43.590229013934731" lon="6.677060024812818">
        <ele>295.25999999999999</ele>
        <time>2025-05-18T11:02:54Z</time>
      </trkpt>
      <trkpt lat="43.590262038633227" lon="6.677267979830504">
        <ele>295.74000000000001</ele>
        <time>2025-05-18T11:02:55Z</time>
      </trkpt>
      <trkpt lat="43.590258015319705" lon="6.677475012838841">
        <ele>296.22000000000003</ele>
        <time>2025-05-18T11:02:56Z</time>
      </trkpt>
      <trkpt lat="43.590230019763112" lon="6.677693026140332">
        <ele>296.22000000000003</ele>
        <time>2025-05-18T11:02:57Z</time>
      </trkpt>
      <trkpt lat="43.590180985629559" lon="6.677898969501257">
        <ele>296.69999999999999</ele>
        <time>2025-05-18T11:02:58Z</time>
      </trkpt>
      <trkpt lat="43.590083001181483" lon="6.678095022216439">
        <ele>297.18000000000001</ele>
        <time>2025-05-18T11:02:59Z</time>
      </trkpt>
      <trkpt lat="43.589981999248266" lon="6.678299037739635">
        <ele>297.67000000000002</ele>
        <time>2025-05-18T11:03:00Z</time>
      </trkpt>
      <trkpt lat="43.589871022850275" lon="6.678507998585701">
        <ele>298.14999999999998</ele>
        <time>2025-05-18T11:03:01Z</time>
      </trkpt>
      <trkpt lat="43.589121010154486" lon="6.679783975705504">
        <ele>302.94999999999999</ele>
        <time>2025-05-18T11:03:07Z</time>
      </trkpt>
      <trkpt lat="43.589067030698061" lon="6.680000983178616">
        <ele>303.43000000000001</ele>
        <time>2025-05-18T11:03:08Z</time>
      </trkpt>
      <trkpt lat="43.589015984907746" lon="6.680213967338204">
        <ele>303.91000000000003</ele>
        <time>2025-05-18T11:03:09Z</time>
      </trkpt>
      <trkpt lat="43.589029982686043" lon="6.680416977033019">
        <ele>304.38999999999999</ele>
        <time>2025-05-18T11:03:10Z</time>
      </trkpt>
      <trkpt lat="43.589055966585875" lon="6.680626021698117">
        <ele>305.36000000000001</ele>
        <time>2025-05-18T11:03:11Z</time>
      </trkpt>
      <trkpt lat="43.589102989062667" lon="6.680814027786255">
        <ele>305.83999999999997</ele>
        <time>2025-05-18T11:03:12Z</time>
      </trkpt>
      <trkpt lat="43.589198039844632" lon="6.680979989469051">
        <ele>306.80000000000001</ele>
        <time>2025-05-18T11:03:13Z</time>
      </trkpt>
      <trkpt lat="43.58932301402092" lon="6.681104963645339">
        <ele>307.27999999999997</ele>
        <time>2025-05-18T11:03:14Z</time>
      </trkpt>
      <trkpt lat="43.589484030380845" lon="6.681198002770543">
        <ele>308.24000000000001</ele>
        <time>2025-05-18T11:03:15Z</time>
      </trkpt>
      <trkpt lat="43.589662984013557" lon="6.681284001097083">
        <ele>308.72000000000003</ele>
        <time>2025-05-18T11:03:16Z</time>
      </trkpt>
      <trkpt lat="43.591091008856893" lon="6.681903004646301">
        <ele>309.68000000000001</ele>
        <time>2025-05-18T11:03:23Z</time>
      </trkpt>
      <trkpt lat="43.592625986784697" lon="6.682548997923732">
        <ele>303.43000000000001</ele>
        <time>2025-05-18T11:03:31Z</time>
      </trkpt>
      <trkpt lat="43.592958999797702" lon="6.682682018727064">
        <ele>301.50999999999999</ele>
        <time>2025-05-18T11:03:33Z</time>
      </trkpt>
      <trkpt lat="43.593136025592685" lon="6.682728035375476">
        <ele>300.06999999999999</ele>
        <time>2025-05-18T11:03:34Z</time>
      </trkpt>
      <trkpt lat="43.594360034912825" lon="6.68297303840518">
        <ele>292.86000000000001</ele>
        <time>2025-05-18T11:03:41Z</time>
      </trkpt>
      <trkpt lat="43.594485009089112" lon="6.683046966791153">
        <ele>291.89999999999998</ele>
        <time>2025-05-18T11:03:42Z</time>
      </trkpt>
      <trkpt lat="43.594567989930511" lon="6.683142017573118">
        <ele>290.94</ele>
        <time>2025-05-18T11:03:43Z</time>
      </trkpt>
      <trkpt lat="43.594616018235683" lon="6.683260034769774">
        <ele>289.97000000000003</ele>
        <time>2025-05-18T11:03:44Z</time>
      </trkpt>
      <trkpt lat="43.594657005742192" lon="6.683415016159415">
        <ele>289.49000000000001</ele>
        <time>2025-05-18T11:03:45Z</time>
      </trkpt>
      <trkpt lat="43.594682989642024" lon="6.683598998934031">
        <ele>289.00999999999999</ele>
        <time>2025-05-18T11:03:46Z</time>
      </trkpt>
      <trkpt lat="43.594687012955546" lon="6.683804020285606">
        <ele>288.05000000000001</ele>
        <time>2025-05-18T11:03:47Z</time>
      </trkpt>
      <trkpt lat="43.59467402100563" lon="6.684009963646531">
        <ele>287.08999999999997</ele>
        <time>2025-05-18T11:03:48Z</time>
      </trkpt>
      <trkpt lat="43.594645019620657" lon="6.68422001414001">
        <ele>286.61000000000001</ele>
        <time>2025-05-18T11:03:49Z</time>
      </trkpt>
      <trkpt lat="43.594593973830342" lon="6.68443601578474">
        <ele>285.64999999999998</ele>
        <time>2025-05-18T11:03:50Z</time>
      </trkpt>
      <trkpt lat="43.594051999971271" lon="6.686153970658779">
        <ele>278.44</ele>
        <time>2025-05-18T11:03:57Z</time>
      </trkpt>
      <trkpt lat="43.593639023602009" lon="6.687579983845353">
        <ele>269.79000000000002</ele>
        <time>2025-05-18T11:04:03Z</time>
      </trkpt>
      <trkpt lat="43.593622008338571" lon="6.687805959954858">
        <ele>268.35000000000002</ele>
        <time>2025-05-18T11:04:04Z</time>
      </trkpt>
      <trkpt lat="43.593635000288486" lon="6.688034031540155">
        <ele>266.89999999999998</ele>
        <time>2025-05-18T11:04:05Z</time>
      </trkpt>
      <trkpt lat="43.593679005280137" lon="6.68823704123497">
        <ele>265.45999999999998</ele>
        <time>2025-05-18T11:04:06Z</time>
      </trkpt>
      <trkpt lat="43.593777995556593" lon="6.68841197155416">
        <ele>264.5</ele>
        <time>2025-05-18T11:04:07Z</time>
      </trkpt>
      <trkpt lat="43.593884026631713" lon="6.688576005399227">
        <ele>263.54000000000002</ele>
        <time>2025-05-18T11:04:08Z</time>
      </trkpt>
      <trkpt lat="43.594020986929536" lon="6.688730986788869">
        <ele>262.57999999999998</ele>
        <time>2025-05-18T11:04:09Z</time>
      </trkpt>
      <trkpt lat="43.594173034653068" lon="6.688876999542117">
        <ele>261.62</ele>
        <time>2025-05-18T11:04:10Z</time>
      </trkpt>
      <trkpt lat="43.594327010214329" lon="6.689026029780507">
        <ele>260.64999999999998</ele>
        <time>2025-05-18T11:04:11Z</time>
      </trkpt>
      <trkpt lat="43.594476040452719" lon="6.689170030876994">
        <ele>259.69</ele>
        <time>2025-05-18T11:04:12Z</time>
      </trkpt>
      <trkpt lat="43.594636972993612" lon="6.689247982576489">
        <ele>258.73000000000002</ele>
        <time>2025-05-18T11:04:13Z</time>
      </trkpt>
      <trkpt lat="43.594792960211635" lon="6.689293999224901">
        <ele>257.76999999999998</ele>
        <time>2025-05-18T11:04:14Z</time>
      </trkpt>
      <trkpt lat="43.594957999885082" lon="6.689317971467972">
        <ele>257.29000000000002</ele>
        <time>2025-05-18T11:04:15Z</time>
      </trkpt>
      <trkpt lat="43.595133014023304" lon="6.689309002831578">
        <ele>256.81</ele>
        <time>2025-05-18T11:04:16Z</time>
      </trkpt>
      <trkpt lat="43.595310961827636" lon="6.689301040023565">
        <ele>255.37</ele>
        <time>2025-05-18T11:04:17Z</time>
      </trkpt>
      <trkpt lat="43.596183015033603" lon="6.689378991723061">
        <ele>249.59999999999999</ele>
        <time>2025-05-18T11:04:23Z</time>
      </trkpt>
      <trkpt lat="43.596303965896368" lon="6.689421990886331">
        <ele>248.63999999999999</ele>
        <time>2025-05-18T11:04:24Z</time>
      </trkpt>
      <trkpt lat="43.596417959779501" lon="6.689487034454942">
        <ele>248.16</ele>
        <time>2025-05-18T11:04:25Z</time>
      </trkpt>
      <trkpt lat="43.596527008339763" lon="6.689569009467959">
        <ele>247.19999999999999</ele>
        <time>2025-05-18T11:04:26Z</time>
      </trkpt>
      <trkpt lat="43.59662801027298" lon="6.689675962552428">
        <ele>246.72</ele>
        <time>2025-05-18T11:04:27Z</time>
      </trkpt>
      <trkpt lat="43.596821967512369" lon="6.689880983904004">
        <ele>245.75</ele>
        <time>2025-05-18T11:04:29Z</time>
      </trkpt>
      <trkpt lat="43.596903020516038" lon="6.690012998878956">
        <ele>245.27000000000001</ele>
        <time>2025-05-18T11:04:30Z</time>
      </trkpt>
      <trkpt lat="43.596956999972463" lon="6.690132021903992">
        <ele>245.27000000000001</ele>
        <time>2025-05-18T11:04:31Z</time>
      </trkpt>
      <trkpt lat="43.596925986930728" lon="6.690351963043213">
        <ele>245.27000000000001</ele>
        <time>2025-05-18T11:04:32Z</time>
      </trkpt>
      <trkpt lat="43.596925986930728" lon="6.69040703214705">
        <ele>244.78999999999999</ele>
        <time>2025-05-18T11:04:33Z</time>
      </trkpt>
      <trkpt lat="43.596925986930728" lon="6.690522031858563">
        <ele>244.78999999999999</ele>
        <time>2025-05-18T11:04:34Z</time>
      </trkpt>
      <trkpt lat="43.596925986930728" lon="6.690635019913316">
        <ele>244.78999999999999</ele>
        <time>2025-05-18T11:04:35Z</time>
      </trkpt>
      <trkpt lat="43.597026988863945" lon="6.690696040168405">
        <ele>244.31</ele>
        <time>2025-05-18T11:04:36Z</time>
      </trkpt>
      <trkpt lat="43.597171995788813" lon="6.690824031829834">
        <ele>243.83000000000001</ele>
        <time>2025-05-18T11:04:37Z</time>
      </trkpt>
      <trkpt lat="43.597181970253587" lon="6.690957974642515">
        <ele>243.83000000000001</ele>
        <time>2025-05-18T11:04:38Z</time>
      </trkpt>
      <trkpt lat="43.597179036587477" lon="6.691113039851189">
        <ele>243.83000000000001</ele>
        <time>2025-05-18T11:04:39Z</time>
      </trkpt>
      <trkpt lat="43.597174007445574" lon="6.691269027069211">
        <ele>243.83000000000001</ele>
        <time>2025-05-18T11:04:40Z</time>
      </trkpt>
      <trkpt lat="43.59716797247529" lon="6.69143901206553">
        <ele>243.83000000000001</ele>
        <time>2025-05-18T11:04:41Z</time>
      </trkpt>
      <trkpt lat="43.597156992182136" lon="6.691627018153667">
        <ele>243.34999999999999</ele>
        <time>2025-05-18T11:04:42Z</time>
      </trkpt>
      <trkpt lat="43.59712396748364" lon="6.691824998706579">
        <ele>243.34999999999999</ele>
        <time>2025-05-18T11:04:43Z</time>
      </trkpt>
      <trkpt lat="43.597089014947414" lon="6.692038988694549">
        <ele>242.87</ele>
        <time>2025-05-18T11:04:44Z</time>
      </trkpt>
      <trkpt lat="43.596481997519732" lon="6.693683015182614">
        <ele>242.38999999999999</ele>
        <time>2025-05-18T11:04:51Z</time>
      </trkpt>
      <trkpt lat="43.596173962578177" lon="6.694421041756868">
        <ele>242.87</ele>
        <time>2025-05-18T11:04:54Z</time>
      </trkpt>
      <trkpt lat="43.596139010041952" lon="6.694692028686404">
        <ele>242.87</ele>
        <time>2025-05-18T11:04:55Z</time>
      </trkpt>
      <trkpt lat="43.596102967858315" lon="6.694964021444321">
        <ele>242.87</ele>
        <time>2025-05-18T11:04:56Z</time>
      </trkpt>
      <trkpt lat="43.596100034192204" lon="6.695223022252321">
        <ele>242.87</ele>
        <time>2025-05-18T11:04:57Z</time>
      </trkpt>
      <trkpt lat="43.596118977293372" lon="6.695482023060322">
        <ele>242.87</ele>
        <time>2025-05-18T11:04:58Z</time>
      </trkpt>
      <trkpt lat="43.596150996163487" lon="6.695727026090026">
        <ele>242.38999999999999</ele>
        <time>2025-05-18T11:04:59Z</time>
      </trkpt>
      <trkpt lat="43.596234982833266" lon="6.695966999977827">
        <ele>242.38999999999999</ele>
        <time>2025-05-18T11:05:00Z</time>
      </trkpt>
      <trkpt lat="43.596321986988187" lon="6.696216026321054">
        <ele>242.38999999999999</ele>
        <time>2025-05-18T11:05:01Z</time>
      </trkpt>
      <trkpt lat="43.596791038289666" lon="6.697490997612476">
        <ele>242.38999999999999</ele>
        <time>2025-05-18T11:05:06Z</time>
      </trkpt>
      <trkpt lat="43.596921963617206" lon="6.697719991207123">
        <ele>242.38999999999999</ele>
        <time>2025-05-18T11:05:07Z</time>
      </trkpt>
      <trkpt lat="43.59725397080183" lon="6.698091980069876">
        <ele>242.38999999999999</ele>
        <time>2025-05-18T11:05:09Z</time>
      </trkpt>
      <trkpt lat="43.597426973283291" lon="6.698257019743323">
        <ele>242.87</ele>
        <time>2025-05-18T11:05:10Z</time>
      </trkpt>
      <trkpt lat="43.597619002684951" lon="6.698385011404753">
        <ele>242.87</ele>
        <time>2025-05-18T11:05:11Z</time>
      </trkpt>
      <trkpt lat="43.59780902042985" lon="6.698499005287886">
        <ele>242.87</ele>
        <time>2025-05-18T11:05:12Z</time>
      </trkpt>
      <trkpt lat="43.598002977669239" lon="6.698577040806413">
        <ele>242.87</ele>
        <time>2025-05-18T11:05:13Z</time>
      </trkpt>
      <trkpt lat="43.598191989585757" lon="6.698623979464173">
        <ele>242.87</ele>
        <time>2025-05-18T11:05:14Z</time>
      </trkpt>
      <trkpt lat="43.598373038694263" lon="6.698668990284205">
        <ele>242.38999999999999</ele>
        <time>2025-05-18T11:05:15Z</time>
      </trkpt>
      <trkpt lat="43.599924026057124" lon="6.69906796887517">
        <ele>239.02000000000001</ele>
        <time>2025-05-18T11:05:23Z</time>
      </trkpt>
      <trkpt lat="43.601039992645383" lon="6.699357982724905">
        <ele>236.62</ele>
        <time>2025-05-18T11:05:28Z</time>
      </trkpt>
      <trkpt lat="43.601252976804972" lon="6.69941196218133">
        <ele>236.13999999999999</ele>
        <time>2025-05-18T11:05:29Z</time>
      </trkpt>
      <trkpt lat="43.602916030213237" lon="6.699836002662778">
        <ele>232.78</ele>
        <time>2025-05-18T11:05:37Z</time>
      </trkpt>
      <trkpt lat="43.603852037340403" lon="6.700197011232376">
        <ele>229.41</ele>
        <time>2025-05-18T11:05:42Z</time>
      </trkpt>
      <trkpt lat="43.605488017201424" lon="6.700931014493108">
        <ele>227.00999999999999</ele>
        <time>2025-05-18T11:05:51Z</time>
      </trkpt>
      <trkpt lat="43.606285974383354" lon="6.701354971155524">
        <ele>227.49000000000001</ele>
        <time>2025-05-18T11:05:56Z</time>
      </trkpt>
      <trkpt lat="43.606411032378674" lon="6.701496038585901">
        <ele>227.00999999999999</ele>
        <time>2025-05-18T11:05:57Z</time>
      </trkpt>
      <trkpt lat="43.606530977413058" lon="6.701656971126795">
        <ele>226.53</ele>
        <time>2025-05-18T11:05:58Z</time>
      </trkpt>
      <trkpt lat="43.606652012094855" lon="6.70181798748672">
        <ele>226.53</ele>
        <time>2025-05-18T11:05:59Z</time>
      </trkpt>
      <trkpt lat="43.606746979057789" lon="6.702012028545141">
        <ele>226.05000000000001</ele>
        <time>2025-05-18T11:06:00Z</time>
      </trkpt>
      <trkpt lat="43.606813028454781" lon="6.702224006876349">
        <ele>225.56999999999999</ele>
        <time>2025-05-18T11:06:01Z</time>
      </trkpt>
      <trkpt lat="43.606858961284161" lon="6.702447971329093">
        <ele>225.09</ele>
        <time>2025-05-18T11:06:02Z</time>
      </trkpt>
      <trkpt lat="43.606903972104192" lon="6.702680988237262">
        <ele>225.09</ele>
        <time>2025-05-18T11:06:03Z</time>
      </trkpt>
      <trkpt lat="43.606949988752604" lon="6.702918028458953">
        <ele>224.61000000000001</ele>
        <time>2025-05-18T11:06:04Z</time>
      </trkpt>
      <trkpt lat="43.607278978452086" lon="6.705299997702241">
        <ele>219.80000000000001</ele>
        <time>2025-05-18T11:06:13Z</time>
      </trkpt>
      <trkpt lat="43.607653984799981" lon="6.70796200633049">
        <ele>221.24000000000001</ele>
        <time>2025-05-18T11:06:23Z</time>
      </trkpt>
      <trkpt lat="43.607991021126509" lon="6.710618985816836">
        <ele>221.24000000000001</ele>
        <time>2025-05-18T11:06:34Z</time>
      </trkpt>
      <trkpt lat="43.608041983097792" lon="6.710955016314983">
        <ele>221.24000000000001</ele>
        <time>2025-05-18T11:06:36Z</time>
      </trkpt>
      <trkpt lat="43.608066961169243" lon="6.711103040724993">
        <ele>220.75999999999999</ele>
        <time>2025-05-18T11:06:37Z</time>
      </trkpt>
      <trkpt lat="43.607977023348212" lon="6.711337985470891">
        <ele>220.75999999999999</ele>
        <time>2025-05-18T11:06:38Z</time>
      </trkpt>
      <trkpt lat="43.607977023348212" lon="6.711404034867883">
        <ele>220.28</ele>
        <time>2025-05-18T11:06:39Z</time>
      </trkpt>
      <trkpt lat="43.607977023348212" lon="6.71150897629559">
        <ele>220.28</ele>
        <time>2025-05-18T11:06:40Z</time>
      </trkpt>
      <trkpt lat="43.608138961717486" lon="6.711648032069206">
        <ele>220.28</ele>
        <time>2025-05-18T11:06:41Z</time>
      </trkpt>
      <trkpt lat="43.608167041093111" lon="6.711812987923622">
        <ele>220.28</ele>
        <time>2025-05-18T11:06:42Z</time>
      </trkpt>
      <trkpt lat="43.608192019164562" lon="6.712003005668521">
        <ele>220.28</ele>
        <time>2025-05-18T11:06:43Z</time>
      </trkpt>
      <trkpt lat="43.608411960303783" lon="6.713710986077786">
        <ele>218.84</ele>
        <time>2025-05-18T11:06:50Z</time>
      </trkpt>
      <trkpt lat="43.608508016914129" lon="6.714271986857057">
        <ele>218.36000000000001</ele>
        <time>2025-05-18T11:06:52Z</time>
      </trkpt>
      <trkpt lat="43.608568031340837" lon="6.714554037898779">
        <ele>218.36000000000001</ele>
        <time>2025-05-18T11:06:53Z</time>
      </trkpt>
      <trkpt lat="43.608656041324139" lon="6.714821001514792">
        <ele>218.36000000000001</ele>
        <time>2025-05-18T11:06:54Z</time>
      </trkpt>
      <trkpt lat="43.609332041814923" lon="6.716696033254266">
        <ele>214.99000000000001</ele>
        <time>2025-05-18T11:07:02Z</time>
      </trkpt>
      <trkpt lat="43.60981903038919" lon="6.71866200864315">
        <ele>216.43000000000001</ele>
        <time>2025-05-18T11:07:10Z</time>
      </trkpt>
      <trkpt lat="43.610165035352111" lon="6.721630040556192">
        <ele>219.80000000000001</ele>
        <time>2025-05-18T11:07:21Z</time>
      </trkpt>
      <trkpt lat="43.610398974269629" lon="6.72433496452868">
        <ele>224.12</ele>
        <time>2025-05-18T11:07:31Z</time>
      </trkpt>
      <trkpt lat="43.610605001449585" lon="6.725673973560333">
        <ele>226.05000000000001</ele>
        <time>2025-05-18T11:07:36Z</time>
      </trkpt>
      <trkpt lat="43.610630985349417" lon="6.72594303265214">
        <ele>226.53</ele>
        <time>2025-05-18T11:07:37Z</time>
      </trkpt>
      <trkpt lat="43.610656969249249" lon="6.726212007924914">
        <ele>227.00999999999999</ele>
        <time>2025-05-18T11:07:38Z</time>
      </trkpt>
      <trkpt lat="43.610440967604518" lon="6.728591965511441">
        <ele>229.88999999999999</ele>
        <time>2025-05-18T11:07:47Z</time>
      </trkpt>
      <trkpt lat="43.610140979290009" lon="6.731007965281606">
        <ele>225.09</ele>
        <time>2025-05-18T11:07:57Z</time>
      </trkpt>
      <trkpt lat="43.61010099761188" lon="6.731355981901288">
        <ele>224.12</ele>
        <time>2025-05-18T11:07:59Z</time>
      </trkpt>
      <trkpt lat="43.61010099761188" lon="6.731506017968059">
        <ele>223.63999999999999</ele>
        <time>2025-05-18T11:08:00Z</time>
      </trkpt>
      <trkpt lat="43.61010099761188" lon="6.731648007407785">
        <ele>223.16</ele>
        <time>2025-05-18T11:08:01Z</time>
      </trkpt>
      <trkpt lat="43.610042994841933" lon="6.731958976015449">
        <ele>223.16</ele>
        <time>2025-05-18T11:08:03Z</time>
      </trkpt>
      <trkpt lat="43.610085994005203" lon="6.732099959626794">
        <ele>223.16</ele>
        <time>2025-05-18T11:08:04Z</time>
      </trkpt>
      <trkpt lat="43.610111977905035" lon="6.732446970418096">
        <ele>223.16</ele>
        <time>2025-05-18T11:08:06Z</time>
      </trkpt>
      <trkpt lat="43.61012002453208" lon="6.732647968456149">
        <ele>223.16</ele>
        <time>2025-05-18T11:08:07Z</time>
      </trkpt>
      <trkpt lat="43.610103009268641" lon="6.732858018949628">
        <ele>223.63999999999999</ele>
        <time>2025-05-18T11:08:08Z</time>
      </trkpt>
      <trkpt lat="43.610068978741765" lon="6.733080977573991">
        <ele>223.63999999999999</ele>
        <time>2025-05-18T11:08:09Z</time>
      </trkpt>
      <trkpt lat="43.610033020377159" lon="6.733316006138921">
        <ele>224.12</ele>
        <time>2025-05-18T11:08:10Z</time>
      </trkpt>
      <trkpt lat="43.60999396070838" lon="6.733567966148257">
        <ele>224.12</ele>
        <time>2025-05-18T11:08:11Z</time>
      </trkpt>
      <trkpt lat="43.609458021819592" lon="6.735884975641966">
        <ele>217.88</ele>
        <time>2025-05-18T11:08:19Z</time>
      </trkpt>
      <trkpt lat="43.608331996947527" lon="6.740696020424366">
        <ele>206.34</ele>
        <time>2025-05-18T11:08:34Z</time>
      </trkpt>
      <trkpt lat="43.608070984482765" lon="6.741740992292762">
        <ele>203.94</ele>
        <time>2025-05-18T11:08:39Z</time>
      </trkpt>
      <trkpt lat="43.6079310066998" lon="6.742311967536807">
        <ele>202.00999999999999</ele>
        <time>2025-05-18T11:08:44Z</time>
      </trkpt>
      <trkpt lat="43.607891025021672" lon="6.742408024147153">
        <ele>201.53</ele>
        <time>2025-05-18T11:08:45Z</time>
      </trkpt>
      <trkpt lat="43.607849031686783" lon="6.742506008595228">
        <ele>201.53</ele>
        <time>2025-05-18T11:08:46Z</time>
      </trkpt>
      <trkpt lat="43.607826987281442" lon="6.742642968893051">
        <ele>201.53</ele>
        <time>2025-05-18T11:08:47Z</time>
      </trkpt>
      <trkpt lat="43.607826987281442" lon="6.742729973047972">
        <ele>201.05000000000001</ele>
        <time>2025-05-18T11:08:48Z</time>
      </trkpt>
      <trkpt lat="43.607892030850053" lon="6.742841033264995">
        <ele>201.05000000000001</ele>
        <time>2025-05-18T11:08:49Z</time>
      </trkpt>
      <trkpt lat="43.607904016971588" lon="6.742943041026592">
        <ele>201.05000000000001</ele>
        <time>2025-05-18T11:08:50Z</time>
      </trkpt>
      <trkpt lat="43.60790996812284" lon="6.743057034909725">
        <ele>201.05000000000001</ele>
        <time>2025-05-18T11:08:51Z</time>
      </trkpt>
      <trkpt lat="43.607903011143208" lon="6.743179997429252">
        <ele>201.05000000000001</ele>
        <time>2025-05-18T11:08:52Z</time>
      </trkpt>
      <trkpt lat="43.607894964516163" lon="6.743315029889345">
        <ele>201.05000000000001</ele>
        <time>2025-05-18T11:08:53Z</time>
      </trkpt>
      <trkpt lat="43.607782982289791" lon="6.744798962026835">
        <ele>200.56999999999999</ele>
        <time>2025-05-18T11:09:01Z</time>
      </trkpt>
      <trkpt lat="43.607749035581946" lon="6.745339008048177">
        <ele>200.56999999999999</ele>
        <time>2025-05-18T11:09:03Z</time>
      </trkpt>
      <trkpt lat="43.607528004795313" lon="6.746722022071481">
        <ele>199.61000000000001</ele>
        <time>2025-05-18T11:09:09Z</time>
      </trkpt>
      <trkpt lat="43.607148975133896" lon="6.748250965029001">
        <ele>199.13</ele>
        <time>2025-05-18T11:09:19Z</time>
      </trkpt>
      <trkpt lat="43.606653017923236" lon="6.750001022592187">
        <ele>197.69</ele>
        <time>2025-05-18T11:09:30Z</time>
      </trkpt>
      <trkpt lat="43.606258984655142" lon="6.751945037394762">
        <ele>196.25</ele>
        <time>2025-05-18T11:09:40Z</time>
      </trkpt>
      <trkpt lat="43.605968970805407" lon="6.753690987825394">
        <ele>191.91999999999999</ele>
        <time>2025-05-18T11:09:50Z</time>
      </trkpt>
      <trkpt lat="43.605934018269181" lon="6.753992987796664">
        <ele>190.96000000000001</ele>
        <time>2025-05-18T11:09:52Z</time>
      </trkpt>
      <trkpt lat="43.605827987194061" lon="6.754635041579604">
        <ele>189.52000000000001</ele>
        <time>2025-05-18T11:09:57Z</time>
      </trkpt>
      <trkpt lat="43.605788005515933" lon="6.754875015467405">
        <ele>189.03999999999999</ele>
        <time>2025-05-18T11:09:59Z</time>
      </trkpt>
      <trkpt lat="43.605680968612432" lon="6.755004012957215">
        <ele>188.56</ele>
        <time>2025-05-18T11:10:00Z</time>
      </trkpt>
      <trkpt lat="43.605650039389729" lon="6.755051035434008">
        <ele>188.56</ele>
        <time>2025-05-18T11:10:01Z</time>
      </trkpt>
      <trkpt lat="43.605594970285892" lon="6.755133010447025">
        <ele>188.08000000000001</ele>
        <time>2025-05-18T11:10:02Z</time>
      </trkpt>
      <trkpt lat="43.605594970285892" lon="6.755284974351525">
        <ele>188.56</ele>
        <time>2025-05-18T11:10:03Z</time>
      </trkpt>
      <trkpt lat="43.605594970285892" lon="6.755347000434995">
        <ele>188.56</ele>
        <time>2025-05-18T11:10:04Z</time>
      </trkpt>
      <trkpt lat="43.605702007189393" lon="6.755483038723469">
        <ele>188.08000000000001</ele>
        <time>2025-05-18T11:10:05Z</time>
      </trkpt>
      <trkpt lat="43.605702007189393" lon="6.755604995414615">
        <ele>188.08000000000001</ele>
        <time>2025-05-18T11:10:06Z</time>
      </trkpt>
      <trkpt lat="43.605712987482548" lon="6.755731981247664">
        <ele>187.59</ele>
        <time>2025-05-18T11:10:07Z</time>
      </trkpt>
      <trkpt lat="43.605723967775702" lon="6.755882017314434">
        <ele>187.59</ele>
        <time>2025-05-18T11:10:08Z</time>
      </trkpt>
      <trkpt lat="43.605626989156008" lon="6.757214991375804">
        <ele>186.15000000000001</ele>
        <time>2025-05-18T11:10:15Z</time>
      </trkpt>
      <trkpt lat="43.605535039678216" lon="6.757837012410164">
        <ele>185.19</ele>
        <time>2025-05-18T11:10:18Z</time>
      </trkpt>
      <trkpt lat="43.605508971959352" lon="6.758043961599469">
        <ele>185.19</ele>
        <time>2025-05-18T11:10:19Z</time>
      </trkpt>
      <trkpt lat="43.605591030791402" lon="6.76036398857832">
        <ele>185.19</ele>
        <time>2025-05-18T11:10:29Z</time>
      </trkpt>
      <trkpt lat="43.605714999139309" lon="6.761681037023664">
        <ele>186.63</ele>
        <time>2025-05-18T11:10:36Z</time>
      </trkpt>
      <trkpt lat="43.605727991089225" lon="6.761809028685093">
        <ele>187.11000000000001</ele>
        <time>2025-05-18T11:10:37Z</time>
      </trkpt>
      <trkpt lat="43.60573997721076" lon="6.761937020346522">
        <ele>187.11000000000001</ele>
        <time>2025-05-18T11:10:38Z</time>
      </trkpt>
      <trkpt lat="43.605745006352663" lon="6.762257041409612">
        <ele>187.59</ele>
        <time>2025-05-18T11:10:40Z</time>
      </trkpt>
      <trkpt lat="43.605723967775702" lon="6.763680037111044">
        <ele>187.59</ele>
        <time>2025-05-18T11:10:47Z</time>
      </trkpt>
      <trkpt lat="43.60578197054565" lon="6.765566971153021">
        <ele>186.63</ele>
        <time>2025-05-18T11:10:56Z</time>
      </trkpt>
      <trkpt lat="43.605626989156008" lon="6.76766999065876">
        <ele>183.27000000000001</ele>
        <time>2025-05-18T11:11:06Z</time>
      </trkpt>
      <trkpt lat="43.605195991694927" lon="6.769195999950171">
        <ele>182.31</ele>
        <time>2025-05-18T11:11:14Z</time>
      </trkpt>
      <trkpt lat="43.605086021125317" lon="6.76962498575449">
        <ele>182.31</ele>
        <time>2025-05-18T11:11:17Z</time>
      </trkpt>
      <trkpt lat="43.605044027790427" lon="6.769764041528106">
        <ele>182.31</ele>
        <time>2025-05-18T11:11:18Z</time>
      </trkpt>
      <trkpt lat="43.605054002255201" lon="6.769872000440955">
        <ele>182.31</ele>
        <time>2025-05-18T11:11:19Z</time>
      </trkpt>
      <trkpt lat="43.604928022250533" lon="6.770195038989186">
        <ele>182.31</ele>
        <time>2025-05-18T11:11:21Z</time>
      </trkpt>
      <trkpt lat="43.60485996119678" lon="6.770347002893686">
        <ele>182.31</ele>
        <time>2025-05-18T11:11:22Z</time>
      </trkpt>
      <trkpt lat="43.604785026982427" lon="6.770513970404863">
        <ele>182.31</ele>
        <time>2025-05-18T11:11:23Z</time>
      </trkpt>
      <trkpt lat="43.604565002024174" lon="6.771097015589476">
        <ele>182.78999999999999</ele>
        <time>2025-05-18T11:11:26Z</time>
      </trkpt>
      <trkpt lat="43.603818006813526" lon="6.773201962932944">
        <ele>185.19</ele>
        <time>2025-05-18T11:11:36Z</time>
      </trkpt>
      <trkpt lat="43.603007979691029" lon="6.775550991296768">
        <ele>189.03999999999999</ele>
        <time>2025-05-18T11:11:46Z</time>
      </trkpt>
      <trkpt lat="43.602275988087058" lon="6.777604976668954">
        <ele>188.56</ele>
        <time>2025-05-18T11:11:56Z</time>
      </trkpt>
      <trkpt lat="43.602063003927469" lon="6.778210988268256">
        <ele>188.08000000000001</ele>
        <time>2025-05-18T11:12:00Z</time>
      </trkpt>
      <trkpt lat="43.601903999224305" lon="6.778286006301642">
        <ele>188.08000000000001</ele>
        <time>2025-05-18T11:12:01Z</time>
      </trkpt>
      <trkpt lat="43.601866029202938" lon="6.778323976323009">
        <ele>188.08000000000001</ele>
        <time>2025-05-18T11:12:02Z</time>
      </trkpt>
      <trkpt lat="43.601810038089752" lon="6.778448028489947">
        <ele>188.56</ele>
        <time>2025-05-18T11:12:03Z</time>
      </trkpt>
      <trkpt lat="43.601797968149185" lon="6.778559004887939">
        <ele>188.56</ele>
        <time>2025-05-18T11:12:04Z</time>
      </trkpt>
      <trkpt lat="43.601830992847681" lon="6.778655983507633">
        <ele>188.56</ele>
        <time>2025-05-18T11:12:05Z</time>
      </trkpt>
      <trkpt lat="43.601842978969216" lon="6.778828985989094">
        <ele>188.56</ele>
        <time>2025-05-18T11:12:06Z</time>
      </trkpt>
      <trkpt lat="43.601793022826314" lon="6.778967035934329">
        <ele>189.03999999999999</ele>
        <time>2025-05-18T11:12:07Z</time>
      </trkpt>
      <trkpt lat="43.601739965379238" lon="6.779108019545674">
        <ele>188.56</ele>
        <time>2025-05-18T11:12:08Z</time>
      </trkpt>
      <trkpt lat="43.601360013708472" lon="6.780095994472504">
        <ele>189.52000000000001</ele>
        <time>2025-05-18T11:12:13Z</time>
      </trkpt>
      <trkpt lat="43.600378995761275" lon="6.782721960917115">
        <ele>192.88</ele>
        <time>2025-05-18T11:12:23Z</time>
      </trkpt>
      <trkpt lat="43.599906004965305" lon="6.783982012420893">
        <ele>197.21000000000001</ele>
        <time>2025-05-18T11:12:29Z</time>
      </trkpt>
      <trkpt lat="43.599285995587707" lon="6.785430992022157">
        <ele>204.90000000000001</ele>
        <time>2025-05-18T11:12:38Z</time>
      </trkpt>
      <trkpt lat="43.599240984767675" lon="6.7855029925704">
        <ele>205.38</ele>
        <time>2025-05-18T11:12:39Z</time>
      </trkpt>
      <trkpt lat="43.599178958684206" lon="6.785602988675237">
        <ele>205.86000000000001</ele>
        <time>2025-05-18T11:12:40Z</time>
      </trkpt>
      <trkpt lat="43.599108969792724" lon="6.785643976181746">
        <ele>206.81999999999999</ele>
        <time>2025-05-18T11:12:41Z</time>
      </trkpt>
      <trkpt lat="43.599010985344648" lon="6.785703990608454">
        <ele>207.30000000000001</ele>
        <time>2025-05-18T11:12:42Z</time>
      </trkpt>
      <trkpt lat="43.598920963704586" lon="6.78580398671329">
        <ele>207.78</ele>
        <time>2025-05-18T11:12:43Z</time>
      </trkpt>
      <trkpt lat="43.598891040310264" lon="6.785956034436822">
        <ele>208.74000000000001</ele>
        <time>2025-05-18T11:12:44Z</time>
      </trkpt>
      <trkpt lat="43.598879976198077" lon="6.7861039750278">
        <ele>209.22</ele>
        <time>2025-05-18T11:12:45Z</time>
      </trkpt>
      <trkpt lat="43.598963040858507" lon="6.786285024136305">
        <ele>209.69999999999999</ele>
        <time>2025-05-18T11:12:46Z</time>
      </trkpt>
      <trkpt lat="43.598943008109927" lon="6.786438999697566">
        <ele>209.69999999999999</ele>
        <time>2025-05-18T11:12:47Z</time>
      </trkpt>
      <trkpt lat="43.598879976198077" lon="6.786647038534284">
        <ele>210.19</ele>
        <time>2025-05-18T11:12:48Z</time>
      </trkpt>
      <trkpt lat="43.59882096759975" lon="6.786842001602054">
        <ele>211.15000000000001</ele>
        <time>2025-05-18T11:12:49Z</time>
      </trkpt>
      <trkpt lat="43.598252004012465" lon="6.788515029475093">
        <ele>220.28</ele>
        <time>2025-05-18T11:12:57Z</time>
      </trkpt>
      <trkpt lat="43.597685974091291" lon="6.789667960256338">
        <ele>227.00999999999999</ele>
        <time>2025-05-18T11:13:03Z</time>
      </trkpt>
      <trkpt lat="43.597547002136707" lon="6.790053024888039">
        <ele>228.93000000000001</ele>
        <time>2025-05-18T11:13:05Z</time>
      </trkpt>
      <trkpt lat="43.597375005483627" lon="6.790668005123735">
        <ele>230.84999999999999</ele>
        <time>2025-05-18T11:13:08Z</time>
      </trkpt>
      <trkpt lat="43.597321026027203" lon="6.790867997333407">
        <ele>231.33000000000001</ele>
        <time>2025-05-18T11:13:09Z</time>
      </trkpt>
      <trkpt lat="43.597179958596826" lon="6.791394967585802">
        <ele>233.74000000000001</ele>
        <time>2025-05-18T11:13:12Z</time>
      </trkpt>
      <trkpt lat="43.597154980525374" lon="6.791550032794476">
        <ele>234.69999999999999</ele>
        <time>2025-05-18T11:13:13Z</time>
      </trkpt>
      <trkpt lat="43.597140982747078" lon="6.791718006134033">
        <ele>235.18000000000001</ele>
        <time>2025-05-18T11:13:14Z</time>
      </trkpt>
      <trkpt lat="43.597161015495658" lon="6.793550960719585">
        <ele>245.27000000000001</ele>
        <time>2025-05-18T11:13:25Z</time>
      </trkpt>
      <trkpt lat="43.597127990797162" lon="6.793717006221414">
        <ele>245.75</ele>
        <time>2025-05-18T11:13:26Z</time>
      </trkpt>
      <trkpt lat="43.597001004964113" lon="6.794370040297508">
        <ele>246.72</ele>
        <time>2025-05-18T11:13:30Z</time>
      </trkpt>
      <trkpt lat="43.596945013850927" lon="6.794533990323544">
        <ele>247.19999999999999</ele>
        <time>2025-05-18T11:13:31Z</time>
      </trkpt>
      <trkpt lat="43.596532037481666" lon="6.795923039317131">
        <ele>254.41</ele>
        <time>2025-05-18T11:13:40Z</time>
      </trkpt>
      <trkpt lat="43.596518961712718" lon="6.796245994046331">
        <ele>256.32999999999998</ele>
        <time>2025-05-18T11:13:42Z</time>
      </trkpt>
      <trkpt lat="43.596540000289679" lon="6.796420002356172">
        <ele>257.29000000000002</ele>
        <time>2025-05-18T11:13:43Z</time>
      </trkpt>
      <trkpt lat="43.596561038866639" lon="6.796582024544478">
        <ele>257.76999999999998</ele>
        <time>2025-05-18T11:13:44Z</time>
      </trkpt>
      <trkpt lat="43.596582999452949" lon="6.79676097817719">
        <ele>258.73000000000002</ele>
        <time>2025-05-18T11:13:45Z</time>
      </trkpt>
      <trkpt lat="43.596630021929741" lon="6.796893998980522">
        <ele>259.20999999999998</ele>
        <time>2025-05-18T11:13:46Z</time>
      </trkpt>
      <trkpt lat="43.596684001386166" lon="6.797046968713403">
        <ele>259.69</ele>
        <time>2025-05-18T11:13:47Z</time>
      </trkpt>
      <trkpt lat="43.59673697501421" lon="6.797198010608554">
        <ele>259.69</ele>
        <time>2025-05-18T11:13:48Z</time>
      </trkpt>
      <trkpt lat="43.596896985545754" lon="6.797651974484325">
        <ele>260.17000000000002</ele>
        <time>2025-05-18T11:13:51Z</time>
      </trkpt>
      <trkpt lat="43.59695197083056" lon="6.797802010551095">
        <ele>260.17000000000002</ele>
        <time>2025-05-18T11:13:52Z</time>
      </trkpt>
      <trkpt lat="43.597007039934397" lon="6.797954980283976">
        <ele>260.64999999999998</ele>
        <time>2025-05-18T11:13:53Z</time>
      </trkpt>
      <trkpt lat="43.597063031047583" lon="6.798108033835888">
        <ele>261.13999999999999</ele>
        <time>2025-05-18T11:13:54Z</time>
      </trkpt>
      <trkpt lat="43.597120027989149" lon="6.79826402105391">
        <ele>261.13999999999999</ele>
        <time>2025-05-18T11:13:55Z</time>
      </trkpt>
      <trkpt lat="43.597592012956738" lon="6.799680981785059">
        <ele>262.10000000000002</ele>
        <time>2025-05-18T11:14:03Z</time>
      </trkpt>
      <trkpt lat="43.598210010677576" lon="6.800855034962297">
        <ele>257.76999999999998</ele>
        <time>2025-05-18T11:14:10Z</time>
      </trkpt>
      <trkpt lat="43.598609995096922" lon="6.801516031846404">
        <ele>258.25</ele>
        <time>2025-05-18T11:14:16Z</time>
      </trkpt>
      <trkpt lat="43.598637990653515" lon="6.801554001867771">
        <ele>258.25</ele>
        <time>2025-05-18T11:14:17Z</time>
      </trkpt>
      <trkpt lat="43.598658023402095" lon="6.801580991595984">
        <ele>258.25</ele>
        <time>2025-05-18T11:14:18Z</time>
      </trkpt>
      <trkpt lat="43.598658023402095" lon="6.801580991595984">
        <ele>258.25</ele>
        <time>2025-05-18T11:14:27Z</time>
      </trkpt>
      <trkpt lat="43.598658023402095" lon="6.801580991595984">
        <ele>258.25</ele>
        <time>2025-05-18T11:15:22Z</time>
      </trkpt>
      <trkpt lat="43.598658023402095" lon="6.801580991595984">
        <ele>258.25</ele>
        <time>2025-05-18T11:16:36Z</time>
      </trkpt>
      <trkpt lat="43.598658023402095" lon="6.801580991595984">
        <ele>257.76999999999998</ele>
        <time>2025-05-18T11:17:33Z</time>
      </trkpt>
      <trkpt lat="43.598757013678551" lon="6.801715018227696">
        <ele>258.25</ele>
        <time>2025-05-18T11:18:13Z</time>
      </trkpt>
      <trkpt lat="43.599235033616424" lon="6.802259003743529">
        <ele>259.69</ele>
        <time>2025-05-18T11:18:19Z</time>
      </trkpt>
      <trkpt lat="43.600158970803022" lon="6.803381005302072">
        <ele>260.64999999999998</ele>
        <time>2025-05-18T11:18:27Z</time>
      </trkpt>
      <trkpt lat="43.601235961541533" lon="6.804868038743734">
        <ele>257.76999999999998</ele>
        <time>2025-05-18T11:18:35Z</time>
      </trkpt>
      <trkpt lat="43.602488972246647" lon="6.805857019498944">
        <ele>254.41</ele>
        <time>2025-05-18T11:18:42Z</time>
      </trkpt>
      <trkpt lat="43.602670021355152" lon="6.805993979796767">
        <ele>253.93000000000001</ele>
        <time>2025-05-18T11:18:43Z</time>
      </trkpt>
      <trkpt lat="43.603329006582499" lon="6.806660005822778">
        <ele>252</ele>
        <time>2025-05-18T11:18:47Z</time>
      </trkpt>
      <trkpt lat="43.603505026549101" lon="6.806795038282871">
        <ele>251.52000000000001</ele>
        <time>2025-05-18T11:18:48Z</time>
      </trkpt>
      <trkpt lat="43.603703007102013" lon="6.806873995810747">
        <ele>250.56</ele>
        <time>2025-05-18T11:18:49Z</time>
      </trkpt>
      <trkpt lat="43.605316020548344" lon="6.807542033493519">
        <ele>247.68000000000001</ele>
        <time>2025-05-18T11:18:57Z</time>
      </trkpt>
      <trkpt lat="43.605671999976039" lon="6.807833975180984">
        <ele>247.19999999999999</ele>
        <time>2025-05-18T11:18:59Z</time>
      </trkpt>
      <trkpt lat="43.605852965265512" lon="6.807983005419374">
        <ele>246.22999999999999</ele>
        <time>2025-05-18T11:19:00Z</time>
      </trkpt>
      <trkpt lat="43.605993026867509" lon="6.80819196626544">
        <ele>245.75</ele>
        <time>2025-05-18T11:19:01Z</time>
      </trkpt>
      <trkpt lat="43.606131998822093" lon="6.808396987617016">
        <ele>245.27000000000001</ele>
        <time>2025-05-18T11:19:02Z</time>
      </trkpt>
      <trkpt lat="43.606267031282187" lon="6.808597985655069">
        <ele>244.78999999999999</ele>
        <time>2025-05-18T11:19:03Z</time>
      </trkpt>
      <trkpt lat="43.606402985751629" lon="6.808799989521503">
        <ele>243.83000000000001</ele>
        <time>2025-05-18T11:19:04Z</time>
      </trkpt>
      <trkpt lat="43.606544975191355" lon="6.808996964246035">
        <ele>242.87</ele>
        <time>2025-05-18T11:19:05Z</time>
      </trkpt>
      <trkpt lat="43.606714038178325" lon="6.809166027233005">
        <ele>241.91</ele>
        <time>2025-05-18T11:19:06Z</time>
      </trkpt>
      <trkpt lat="43.606884023174644" lon="6.809314973652363">
        <ele>240.94999999999999</ele>
        <time>2025-05-18T11:19:07Z</time>
      </trkpt>
      <trkpt lat="43.607061970978975" lon="6.809447994455695">
        <ele>239.50999999999999</ele>
        <time>2025-05-18T11:19:08Z</time>
      </trkpt>
      <trkpt lat="43.608164023607969" lon="6.810076972469688">
        <ele>234.22</ele>
        <time>2025-05-18T11:19:14Z</time>
      </trkpt>
      <trkpt lat="43.608678001910448" lon="6.810352988541126">
        <ele>231.33000000000001</ele>
        <time>2025-05-18T11:19:17Z</time>
      </trkpt>
      <trkpt lat="43.608822003006935" lon="6.810480980202556">
        <ele>230.37</ele>
        <time>2025-05-18T11:19:18Z</time>
      </trkpt>
      <trkpt lat="43.608933985233307" lon="6.810649959370494">
        <ele>229.88999999999999</ele>
        <time>2025-05-18T11:19:19Z</time>
      </trkpt>
      <trkpt lat="43.609036998823285" lon="6.810837965458632">
        <ele>229.41</ele>
        <time>2025-05-18T11:19:20Z</time>
      </trkpt>
      <trkpt lat="43.609118973836303" lon="6.811062013730407">
        <ele>228.44999999999999</ele>
        <time>2025-05-18T11:19:21Z</time>
      </trkpt>
      <trkpt lat="43.609163984656334" lon="6.811329983174801">
        <ele>227.97</ele>
        <time>2025-05-18T11:19:22Z</time>
      </trkpt>
      <trkpt lat="43.60919700935483" lon="6.811593007296324">
        <ele>227.00999999999999</ele>
        <time>2025-05-18T11:19:23Z</time>
      </trkpt>
      <trkpt lat="43.609179994091392" lon="6.811867011711001">
        <ele>226.53</ele>
        <time>2025-05-18T11:19:24Z</time>
      </trkpt>
      <trkpt lat="43.609162978827953" lon="6.812133975327015">
        <ele>225.56999999999999</ele>
        <time>2025-05-18T11:19:25Z</time>
      </trkpt>
      <trkpt lat="43.609147975221276" lon="6.812385013327003">
        <ele>224.61000000000001</ele>
        <time>2025-05-18T11:19:26Z</time>
      </trkpt>
      <trkpt lat="43.609146969392896" lon="6.812621969729662">
        <ele>223.63999999999999</ele>
        <time>2025-05-18T11:19:27Z</time>
      </trkpt>
      <trkpt lat="43.609199021011591" lon="6.812841994687915">
        <ele>222.68000000000001</ele>
        <time>2025-05-18T11:19:28Z</time>
      </trkpt>
      <trkpt lat="43.609280996024609" lon="6.813039975240827">
        <ele>221.72</ele>
        <time>2025-05-18T11:19:29Z</time>
      </trkpt>
      <trkpt lat="43.609397001564503" lon="6.813235022127628">
        <ele>220.75999999999999</ele>
        <time>2025-05-18T11:19:30Z</time>
      </trkpt>
      <trkpt lat="43.609518958255649" lon="6.813440965488553">
        <ele>219.31999999999999</ele>
        <time>2025-05-18T11:19:31Z</time>
      </trkpt>
      <trkpt lat="43.609659019857645" lon="6.81362796574831">
        <ele>218.36000000000001</ele>
        <time>2025-05-18T11:19:32Z</time>
      </trkpt>
      <trkpt lat="43.60981903038919" lon="6.813812032341957">
        <ele>216.91</ele>
        <time>2025-05-18T11:19:33Z</time>
      </trkpt>
      <trkpt lat="43.611245965585113" lon="6.815156992524862">
        <ele>206.81999999999999</ele>
        <time>2025-05-18T11:19:41Z</time>
      </trkpt>
      <trkpt lat="43.611517958343029" lon="6.815530993044376">
        <ele>204.41999999999999</ele>
        <time>2025-05-18T11:19:43Z</time>
      </trkpt>
      <trkpt lat="43.611633963882923" lon="6.815727967768908">
        <ele>203.94</ele>
        <time>2025-05-18T11:19:44Z</time>
      </trkpt>
      <trkpt lat="43.611736977472901" lon="6.815932989120483">
        <ele>202.97999999999999</ele>
        <time>2025-05-18T11:19:45Z</time>
      </trkpt>
      <trkpt lat="43.611811995506287" lon="6.816147984936833">
        <ele>202.49000000000001</ele>
        <time>2025-05-18T11:19:46Z</time>
      </trkpt>
      <trkpt lat="43.61188299022615" lon="6.816358035430312">
        <ele>202.00999999999999</ele>
        <time>2025-05-18T11:19:47Z</time>
      </trkpt>
      <trkpt lat="43.611924983561039" lon="6.816574959084392">
        <ele>201.05000000000001</ele>
        <time>2025-05-18T11:19:48Z</time>
      </trkpt>
      <trkpt lat="43.611964965239167" lon="6.81678400374949">
        <ele>200.09</ele>
        <time>2025-05-18T11:19:49Z</time>
      </trkpt>
      <trkpt lat="43.612280040979385" lon="6.81835200637579">
        <ele>194.80000000000001</ele>
        <time>2025-05-18T11:19:57Z</time>
      </trkpt>
      <trkpt lat="43.612455977126956" lon="6.818828014656901">
        <ele>193.36000000000001</ele>
        <time>2025-05-18T11:19:59Z</time>
      </trkpt>
      <trkpt lat="43.612582962960005" lon="6.819031024351716">
        <ele>192.40000000000001</ele>
        <time>2025-05-18T11:20:00Z</time>
      </trkpt>
      <trkpt lat="43.612711960449815" lon="6.819244008511305">
        <ele>191.44</ele>
        <time>2025-05-18T11:20:01Z</time>
      </trkpt>
      <trkpt lat="43.613010020926595" lon="6.819600993767381">
        <ele>189.52000000000001</ele>
        <time>2025-05-18T11:20:03Z</time>
      </trkpt>
      <trkpt lat="43.614026997238398" lon="6.820732969790697">
        <ele>180.38</ele>
        <time>2025-05-18T11:20:10Z</time>
      </trkpt>
      <trkpt lat="43.614175021648407" lon="6.820856016129255">
        <ele>178.94</ele>
        <time>2025-05-18T11:20:11Z</time>
      </trkpt>
      <trkpt lat="43.614334026351571" lon="6.820908989757299">
        <ele>177.5</ele>
        <time>2025-05-18T11:20:12Z</time>
      </trkpt>
      <trkpt lat="43.614503005519509" lon="6.820965986698866">
        <ele>176.06</ele>
        <time>2025-05-18T11:20:13Z</time>
      </trkpt>
      <trkpt lat="43.615760039538145" lon="6.821423973888159">
        <ele>172.21000000000001</ele>
        <time>2025-05-18T11:20:20Z</time>
      </trkpt>
      <trkpt lat="43.616268988698721" lon="6.821710970252752">
        <ele>172.69</ele>
        <time>2025-05-18T11:20:23Z</time>
      </trkpt>
      <trkpt lat="43.616424975916743" lon="6.821853965520859">
        <ele>172.69</ele>
        <time>2025-05-18T11:20:24Z</time>
      </trkpt>
      <trkpt lat="43.616576017811894" lon="6.821993021294475">
        <ele>173.16999999999999</ele>
        <time>2025-05-18T11:20:25Z</time>
      </trkpt>
      <trkpt lat="43.616870976984501" lon="6.822264008224011">
        <ele>172.69</ele>
        <time>2025-05-18T11:20:27Z</time>
      </trkpt>
      <trkpt lat="43.61704096198082" lon="6.822335002943873">
        <ele>171.72999999999999</ele>
        <time>2025-05-18T11:20:28Z</time>
      </trkpt>
      <trkpt lat="43.617208013311028" lon="6.822398034855723">
        <ele>170.77000000000001</ele>
        <time>2025-05-18T11:20:29Z</time>
      </trkpt>
      <trkpt lat="43.617526022717357" lon="6.822519991546869">
        <ele>168.84999999999999</ele>
        <time>2025-05-18T11:20:31Z</time>
      </trkpt>
      <trkpt lat="43.617672035470605" lon="6.822614958509803">
        <ele>168.37</ele>
        <time>2025-05-18T11:20:32Z</time>
      </trkpt>
      <trkpt lat="43.617806984111667" lon="6.82275703176856">
        <ele>167.41</ele>
        <time>2025-05-18T11:20:33Z</time>
      </trkpt>
      <trkpt lat="43.617948973551393" lon="6.822903966531158">
        <ele>166.44999999999999</ele>
        <time>2025-05-18T11:20:34Z</time>
      </trkpt>
      <trkpt lat="43.61809398047626" lon="6.823055008426309">
        <ele>165.47999999999999</ele>
        <time>2025-05-18T11:20:35Z</time>
      </trkpt>
      <trkpt lat="43.618245022371411" lon="6.823192974552512">
        <ele>165</ele>
        <time>2025-05-18T11:20:36Z</time>
      </trkpt>
      <trkpt lat="43.618403021246195" lon="6.823308980092406">
        <ele>164.03999999999999</ele>
        <time>2025-05-18T11:20:37Z</time>
      </trkpt>
      <trkpt lat="43.619189998134971" lon="6.823782976716757">
        <ele>160.19999999999999</ele>
        <time>2025-05-18T11:20:42Z</time>
      </trkpt>
      <trkpt lat="43.619359983131289" lon="6.823808960616589">
        <ele>159.24000000000001</ele>
        <time>2025-05-18T11:20:43Z</time>
      </trkpt>
      <trkpt lat="43.619534997269511" lon="6.823822958394885">
        <ele>158.27000000000001</ele>
        <time>2025-05-18T11:20:44Z</time>
      </trkpt>
      <trkpt lat="43.61970498226583" lon="6.823837039992213">
        <ele>157.31</ele>
        <time>2025-05-18T11:20:45Z</time>
      </trkpt>
      <trkpt lat="43.619870021939278" lon="6.823909962549806">
        <ele>156.34999999999999</ele>
        <time>2025-05-18T11:20:46Z</time>
      </trkpt>
      <trkpt lat="43.620029026642442" lon="6.823993027210236">
        <ele>155.38999999999999</ele>
        <time>2025-05-18T11:20:47Z</time>
      </trkpt>
      <trkpt lat="43.620185013860464" lon="6.824073996394873">
        <ele>154.43000000000001</ele>
        <time>2025-05-18T11:20:48Z</time>
      </trkpt>
      <trkpt lat="43.62034703604877" lon="6.824126970022917">
        <ele>153.47</ele>
        <time>2025-05-18T11:20:49Z</time>
      </trkpt>
      <trkpt lat="43.62052196636796" lon="6.824162006378174">
        <ele>152.50999999999999</ele>
        <time>2025-05-18T11:20:50Z</time>
      </trkpt>
      <trkpt lat="43.620708966627717" lon="6.824162006378174">
        <ele>151.53999999999999</ele>
        <time>2025-05-18T11:20:51Z</time>
      </trkpt>
      <trkpt lat="43.620899990200996" lon="6.824162006378174">
        <ele>150.58000000000001</ele>
        <time>2025-05-18T11:20:52Z</time>
      </trkpt>
      <trkpt lat="43.62107902765274" lon="6.824136022478342">
        <ele>149.62</ele>
        <time>2025-05-18T11:20:53Z</time>
      </trkpt>
      <trkpt lat="43.621252030134201" lon="6.824098974466324">
        <ele>149.13999999999999</ele>
        <time>2025-05-18T11:20:54Z</time>
      </trkpt>
      <trkpt lat="43.621425032615662" lon="6.824011970311403">
        <ele>148.18000000000001</ele>
        <time>2025-05-18T11:20:55Z</time>
      </trkpt>
      <trkpt lat="43.621933981776237" lon="6.823731008917093">
        <ele>146.25999999999999</ele>
        <time>2025-05-18T11:20:58Z</time>
      </trkpt>
      <trkpt lat="43.622093992307782" lon="6.823595976457">
        <ele>144.81999999999999</ele>
        <time>2025-05-18T11:20:59Z</time>
      </trkpt>
      <trkpt lat="43.622255008667707" lon="6.823459016159177">
        <ele>143.84999999999999</ele>
        <time>2025-05-18T11:21:00Z</time>
      </trkpt>
      <trkpt lat="43.622415019199252" lon="6.823320966213942">
        <ele>142.41</ele>
        <time>2025-05-18T11:21:01Z</time>
      </trkpt>
      <trkpt lat="43.622576035559177" lon="6.823184005916119">
        <ele>140.97</ele>
        <time>2025-05-18T11:21:02Z</time>
      </trkpt>
      <trkpt lat="43.622746020555496" lon="6.823064982891083">
        <ele>140.00999999999999</ele>
        <time>2025-05-18T11:21:03Z</time>
      </trkpt>
      <trkpt lat="43.622921034693718" lon="6.822949983179569">
        <ele>138.56999999999999</ele>
        <time>2025-05-18T11:21:04Z</time>
      </trkpt>
      <trkpt lat="43.623253041878343" lon="6.822731969878078">
        <ele>136.16</ele>
        <time>2025-05-18T11:21:06Z</time>
      </trkpt>
      <trkpt lat="43.623395031318069" lon="6.822596015408635">
        <ele>134.72</ele>
        <time>2025-05-18T11:21:07Z</time>
      </trkpt>
      <trkpt lat="43.623522017151117" lon="6.822456959635019">
        <ele>133.28</ele>
        <time>2025-05-18T11:21:08Z</time>
      </trkpt>
      <trkpt lat="43.623891994357109" lon="6.822121012955904">
        <ele>129.91999999999999</ele>
        <time>2025-05-18T11:21:11Z</time>
      </trkpt>
      <trkpt lat="43.6240029707551" lon="6.822097962722182">
        <ele>128.47</ele>
        <time>2025-05-18T11:21:12Z</time>
      </trkpt>
      <trkpt lat="43.624121993780136" lon="6.822092011570931">
        <ele>127.03</ele>
        <time>2025-05-18T11:21:13Z</time>
      </trkpt>
      <trkpt lat="43.624240010976791" lon="6.822084970772266">
        <ele>125.59</ele>
        <time>2025-05-18T11:21:14Z</time>
      </trkpt>
      <trkpt lat="43.624364985153079" lon="6.822030991315842">
        <ele>123.67</ele>
        <time>2025-05-18T11:21:15Z</time>
      </trkpt>
      <trkpt lat="43.624456012621522" lon="6.821909034624696">
        <ele>121.73999999999999</ele>
        <time>2025-05-18T11:21:16Z</time>
      </trkpt>
      <trkpt lat="43.624501023441553" lon="6.821798980236054">
        <ele>120.3</ele>
        <time>2025-05-18T11:21:17Z</time>
      </trkpt>
      <trkpt lat="43.624561037868261" lon="6.821653973311186">
        <ele>118.86</ele>
        <time>2025-05-18T11:21:18Z</time>
      </trkpt>
      <trkpt lat="43.624631026759744" lon="6.821482982486486">
        <ele>116.94</ele>
        <time>2025-05-18T11:21:19Z</time>
      </trkpt>
      <trkpt lat="43.624789025634527" lon="6.821098001673818">
        <ele>113.56999999999999</ele>
        <time>2025-05-18T11:21:21Z</time>
      </trkpt>
      <trkpt lat="43.624884998425841" lon="6.820974033325911">
        <ele>112.13</ele>
        <time>2025-05-18T11:21:22Z</time>
      </trkpt>
      <trkpt lat="43.624998992308974" lon="6.820843024179339">
        <ele>110.69</ele>
        <time>2025-05-18T11:21:23Z</time>
      </trkpt>
      <trkpt lat="43.62511801533401" lon="6.820724001154304">
        <ele>109.25</ele>
        <time>2025-05-18T11:21:24Z</time>
      </trkpt>
      <trkpt lat="43.62526997923851" lon="6.820622999221087">
        <ele>107.31999999999999</ele>
        <time>2025-05-18T11:21:25Z</time>
      </trkpt>
      <trkpt lat="43.625412974506617" lon="6.820496013388038">
        <ele>105.88</ele>
        <time>2025-05-18T11:21:26Z</time>
      </trkpt>
      <trkpt lat="43.62552797421813" lon="6.82037296704948">
        <ele>103.95999999999999</ele>
        <time>2025-05-18T11:21:27Z</time>
      </trkpt>
      <trkpt lat="43.625652026385069" lon="6.820216979831457">
        <ele>102.52</ele>
        <time>2025-05-18T11:21:28Z</time>
      </trkpt>
      <trkpt lat="43.625726038590074" lon="6.820025034248829">
        <ele>101.08</ele>
        <time>2025-05-18T11:21:29Z</time>
      </trkpt>
      <trkpt lat="43.625807007774711" lon="6.81981397792697">
        <ele>100.11</ele>
        <time>2025-05-18T11:21:30Z</time>
      </trkpt>
      <trkpt lat="43.625976992771029" lon="6.819370994344354">
        <ele>98.670000000000002</ele>
        <time>2025-05-18T11:21:32Z</time>
      </trkpt>
      <trkpt lat="43.626057039946318" lon="6.819163961336017">
        <ele>98.189999999999998</ele>
        <time>2025-05-18T11:21:33Z</time>
      </trkpt>
      <trkpt lat="43.626174973323941" lon="6.819035969674587">
        <ele>97.709999999999994</ele>
        <time>2025-05-18T11:21:34Z</time>
      </trkpt>
      <trkpt lat="43.626320986077189" lon="6.818895991891623">
        <ele>96.75</ele>
        <time>2025-05-18T11:21:35Z</time>
      </trkpt>
      <trkpt lat="43.626483008265495" lon="6.8187400046736">
        <ele>96.269999999999996</ele>
        <time>2025-05-18T11:21:36Z</time>
      </trkpt>
      <trkpt lat="43.626644024625421" lon="6.818579994142056">
        <ele>95.310000000000002</ele>
        <time>2025-05-18T11:21:37Z</time>
      </trkpt>
      <trkpt lat="43.626786014065146" lon="6.81841503828764">
        <ele>94.349999999999994</ele>
        <time>2025-05-18T11:21:38Z</time>
      </trkpt>
      <trkpt lat="43.627432007342577" lon="6.817602999508381">
        <ele>90.019999999999996</ele>
        <time>2025-05-18T11:21:44Z</time>
      </trkpt>
      <trkpt lat="43.627606015652418" lon="6.817392027005553">
        <ele>89.060000000000002</ele>
        <time>2025-05-18T11:21:46Z</time>
      </trkpt>
      <trkpt lat="43.627685979008675" lon="6.817339975386858">
        <ele>88.099999999999994</ele>
        <time>2025-05-18T11:21:47Z</time>
      </trkpt>
      <trkpt lat="43.62780399620533" lon="6.817295970395207">
        <ele>87.620000000000005</ele>
        <time>2025-05-18T11:21:48Z</time>
      </trkpt>
      <trkpt lat="43.627878008410335" lon="6.817345004528761">
        <ele>87.140000000000001</ele>
        <time>2025-05-18T11:21:49Z</time>
      </trkpt>
      <trkpt lat="43.627970963716507" lon="6.817442988976836">
        <ele>87.140000000000001</ele>
        <time>2025-05-18T11:21:50Z</time>
      </trkpt>
      <trkpt lat="43.62804296426475" lon="6.81755798868835">
        <ele>87.140000000000001</ele>
        <time>2025-05-18T11:21:51Z</time>
      </trkpt>
      <trkpt lat="43.628111025318503" lon="6.817677011713386">
        <ele>87.620000000000005</ele>
        <time>2025-05-18T11:21:52Z</time>
      </trkpt>
      <trkpt lat="43.628229964524508" lon="6.817947998642921">
        <ele>88.099999999999994</ele>
        <time>2025-05-18T11:21:54Z</time>
      </trkpt>
      <trkpt lat="43.62825402058661" lon="6.818096023052931">
        <ele>88.099999999999994</ele>
        <time>2025-05-18T11:21:55Z</time>
      </trkpt>
      <trkpt lat="43.62825402058661" lon="6.818242035806179">
        <ele>88.099999999999994</ele>
        <time>2025-05-18T11:21:56Z</time>
      </trkpt>
      <trkpt lat="43.628200041130185" lon="6.818343037739396">
        <ele>87.620000000000005</ele>
        <time>2025-05-18T11:21:57Z</time>
      </trkpt>
      <trkpt lat="43.628142960369587" lon="6.818428030237556">
        <ele>87.620000000000005</ele>
        <time>2025-05-18T11:21:58Z</time>
      </trkpt>
      <trkpt lat="43.62808302976191" lon="6.818518973886967">
        <ele>87.140000000000001</ele>
        <time>2025-05-18T11:21:59Z</time>
      </trkpt>
      <trkpt lat="43.627984961494803" lon="6.818616036325693">
        <ele>87.140000000000001</ele>
        <time>2025-05-18T11:22:00Z</time>
      </trkpt>
      <trkpt lat="43.627882031723857" lon="6.81871896609664">
        <ele>86.659999999999997</ele>
        <time>2025-05-18T11:22:01Z</time>
      </trkpt>
      <trkpt lat="43.627593023702502" lon="6.819051979109645">
        <ele>89.060000000000002</ele>
        <time>2025-05-18T11:22:04Z</time>
      </trkpt>
      <trkpt lat="43.627510964870453" lon="6.819193968549371">
        <ele>90.019999999999996</ele>
        <time>2025-05-18T11:22:05Z</time>
      </trkpt>
      <trkpt lat="43.627339974045753" lon="6.819564029574394">
        <ele>91.939999999999998</ele>
        <time>2025-05-18T11:22:07Z</time>
      </trkpt>
      <trkpt lat="43.62726797349751" lon="6.819753963500261">
        <ele>93.390000000000001</ele>
        <time>2025-05-18T11:22:08Z</time>
      </trkpt>
      <trkpt lat="43.627147022634745" lon="6.82011497206986">
        <ele>95.310000000000002</ele>
        <time>2025-05-18T11:22:10Z</time>
      </trkpt>
      <trkpt lat="43.62709597684443" lon="6.820278000086546">
        <ele>95.790000000000006</ele>
        <time>2025-05-18T11:22:11Z</time>
      </trkpt>
      <trkpt lat="43.627011990174651" lon="6.820375984534621">
        <ele>96.75</ele>
        <time>2025-05-18T11:22:12Z</time>
      </trkpt>
      <trkpt lat="43.626909982413054" lon="6.820495007559657">
        <ele>97.230000000000004</ele>
        <time>2025-05-18T11:22:13Z</time>
      </trkpt>
      <trkpt lat="43.62681501545012" lon="6.820605983957648">
        <ele>97.709999999999994</ele>
        <time>2025-05-18T11:22:14Z</time>
      </trkpt>
      <trkpt lat="43.626722982153296" lon="6.820712015032768">
        <ele>98.670000000000002</ele>
        <time>2025-05-18T11:22:15Z</time>
      </trkpt>
      <trkpt lat="43.626655004918575" lon="6.820860039442778">
        <ele>99.150000000000006</ele>
        <time>2025-05-18T11:22:16Z</time>
      </trkpt>
      <trkpt lat="43.626598007977009" lon="6.821008985862136">
        <ele>100.11</ele>
        <time>2025-05-18T11:22:17Z</time>
      </trkpt>
      <trkpt lat="43.626571018248796" lon="6.821159021928906">
        <ele>101.08</ele>
        <time>2025-05-18T11:22:18Z</time>
      </trkpt>
      <trkpt lat="43.626526007428765" lon="6.821303023025394">
        <ele>101.56</ele>
        <time>2025-05-18T11:22:19Z</time>
      </trkpt>
      <trkpt lat="43.626451995223761" lon="6.821479965001345">
        <ele>103</ele>
        <time>2025-05-18T11:22:20Z</time>
      </trkpt>
      <trkpt lat="43.626201041042805" lon="6.821914985775948">
        <ele>106.84</ele>
        <time>2025-05-18T11:22:23Z</time>
      </trkpt>
      <trkpt lat="43.626118982210755" lon="6.82206803932786">
        <ele>107.81</ele>
        <time>2025-05-18T11:22:24Z</time>
      </trkpt>
      <trkpt lat="43.626062991097569" lon="6.822226038202643">
        <ele>108.29000000000001</ele>
        <time>2025-05-18T11:22:25Z</time>
      </trkpt>
      <trkpt lat="43.625540966168046" lon="6.823807032778859">
        <ele>119.34</ele>
        <time>2025-05-18T11:22:35Z</time>
      </trkpt>
      <trkpt lat="43.625256987288594" lon="6.824845969676971">
        <ele>125.11</ele>
        <time>2025-05-18T11:22:41Z</time>
      </trkpt>
      <trkpt lat="43.62522698007524" lon="6.825030036270618">
        <ele>126.06999999999999</ele>
        <time>2025-05-18T11:22:42Z</time>
      </trkpt>
      <trkpt lat="43.625112986192107" lon="6.82595900259912">
        <ele>130.88</ele>
        <time>2025-05-18T11:22:47Z</time>
      </trkpt>
      <trkpt lat="43.624922968447208" lon="6.826627040281892">
        <ele>135.68000000000001</ele>
        <time>2025-05-18T11:22:51Z</time>
      </trkpt>
      <trkpt lat="43.624889021739364" lon="6.826782021671534">
        <ele>137.13</ele>
        <time>2025-05-18T11:22:52Z</time>
      </trkpt>
      <trkpt lat="43.624843005090952" lon="6.826994000002742">
        <ele>138.56999999999999</ele>
        <time>2025-05-18T11:22:53Z</time>
      </trkpt>
      <trkpt lat="43.62490301951766" lon="6.828424958512187">
        <ele>146.74000000000001</ele>
        <time>2025-05-18T11:23:01Z</time>
      </trkpt>
      <trkpt lat="43.625056995078921" lon="6.829967983067036">
        <ele>154.43000000000001</ele>
        <time>2025-05-18T11:23:10Z</time>
      </trkpt>
      <trkpt lat="43.625251036137342" lon="6.831908980384469">
        <ele>163.56</ele>
        <time>2025-05-18T11:23:21Z</time>
      </trkpt>
      <trkpt lat="43.625308033078909" lon="6.832062033936381">
        <ele>165</ele>
        <time>2025-05-18T11:23:22Z</time>
      </trkpt>
      <trkpt lat="43.625478018075228" lon="6.832515997812152">
        <ele>166.93000000000001</ele>
        <time>2025-05-18T11:23:25Z</time>
      </trkpt>
      <trkpt lat="43.625524034723639" lon="6.832679025828838">
        <ele>167.41</ele>
        <time>2025-05-18T11:23:26Z</time>
      </trkpt>
      <trkpt lat="43.625556975603104" lon="6.832848004996777">
        <ele>168.37</ele>
        <time>2025-05-18T11:23:27Z</time>
      </trkpt>
      <trkpt lat="43.625657977536321" lon="6.833367012441158">
        <ele>171.25</ele>
        <time>2025-05-18T11:23:30Z</time>
      </trkpt>
      <trkpt lat="43.625726960599422" lon="6.833483017981052">
        <ele>171.72999999999999</ele>
        <time>2025-05-18T11:23:31Z</time>
      </trkpt>
      <trkpt lat="43.626492982730269" lon="6.834707027301192">
        <ele>180.87</ele>
        <time>2025-05-18T11:23:40Z</time>
      </trkpt>
      <trkpt lat="43.626917023211718" lon="6.835342962294817">
        <ele>184.71000000000001</ele>
        <time>2025-05-18T11:23:45Z</time>
      </trkpt>
      <trkpt lat="43.62776099704206" lon="6.836306964978576">
        <ele>190.47999999999999</ele>
        <time>2025-05-18T11:23:53Z</time>
      </trkpt>
      <trkpt lat="43.627864010632038" lon="6.836373014375567">
        <ele>191.44</ele>
        <time>2025-05-18T11:23:54Z</time>
      </trkpt>
      <trkpt lat="43.627971969544888" lon="6.836440991610289">
        <ele>192.40000000000001</ele>
        <time>2025-05-18T11:23:55Z</time>
      </trkpt>
      <trkpt lat="43.628086969256401" lon="6.836483990773559">
        <ele>192.88</ele>
        <time>2025-05-18T11:23:56Z</time>
      </trkpt>
      <trkpt lat="43.628208003938198" lon="6.836519027128816">
        <ele>193.84</ele>
        <time>2025-05-18T11:23:57Z</time>
      </trkpt>
      <trkpt lat="43.628328032791615" lon="6.836554985493422">
        <ele>194.80000000000001</ele>
        <time>2025-05-18T11:23:58Z</time>
      </trkpt>
      <trkpt lat="43.628443032503128" lon="6.836628997698426">
        <ele>196.25</ele>
        <time>2025-05-18T11:23:59Z</time>
      </trkpt>
      <trkpt lat="43.628554008901119" lon="6.836716001853347">
        <ele>196.72999999999999</ele>
        <time>2025-05-18T11:24:00Z</time>
      </trkpt>
      <trkpt lat="43.628670014441013" lon="6.8368099629879">
        <ele>197.69</ele>
        <time>2025-05-18T11:24:01Z</time>
      </trkpt>
      <trkpt lat="43.628772022202611" lon="6.836928986012936">
        <ele>198.65000000000001</ele>
        <time>2025-05-18T11:24:02Z</time>
      </trkpt>
      <trkpt lat="43.628872018307447" lon="6.83704499155283">
        <ele>199.61000000000001</ele>
        <time>2025-05-18T11:24:03Z</time>
      </trkpt>
      <trkpt lat="43.629037979990244" lon="6.837325030937791">
        <ele>201.53</ele>
        <time>2025-05-18T11:24:05Z</time>
      </trkpt>
      <trkpt lat="43.629112998023629" lon="6.837468026205897">
        <ele>202.49000000000001</ele>
        <time>2025-05-18T11:24:06Z</time>
      </trkpt>
      <trkpt lat="43.629166977480054" lon="6.837623007595539">
        <ele>203.46000000000001</ele>
        <time>2025-05-18T11:24:07Z</time>
      </trkpt>
      <trkpt lat="43.629221962764859" lon="6.837781006470323">
        <ele>204.41999999999999</ele>
        <time>2025-05-18T11:24:08Z</time>
      </trkpt>
      <trkpt lat="43.629276026040316" lon="6.837939005345106">
        <ele>205.38</ele>
        <time>2025-05-18T11:24:09Z</time>
      </trkpt>
      <trkpt lat="43.629327993839979" lon="6.838089041411877">
        <ele>206.34</ele>
        <time>2025-05-18T11:24:10Z</time>
      </trkpt>
      <trkpt lat="43.629419021308422" lon="6.838217033073306">
        <ele>207.78</ele>
        <time>2025-05-18T11:24:11Z</time>
      </trkpt>
      <trkpt lat="43.629508959129453" lon="6.838343013077974">
        <ele>208.74000000000001</ele>
        <time>2025-05-18T11:24:12Z</time>
      </trkpt>
      <trkpt lat="43.629613984376192" lon="6.838411996141076">
        <ele>209.69999999999999</ele>
        <time>2025-05-18T11:24:13Z</time>
      </trkpt>
      <trkpt lat="43.62973703071475" lon="6.838453989475966">
        <ele>210.66999999999999</ele>
        <time>2025-05-18T11:24:14Z</time>
      </trkpt>
      <trkpt lat="43.629870973527431" lon="6.838474022224546">
        <ele>211.63</ele>
        <time>2025-05-18T11:24:15Z</time>
      </trkpt>
      <trkpt lat="43.630003994330764" lon="6.838474022224546">
        <ele>212.59</ele>
        <time>2025-05-18T11:24:16Z</time>
      </trkpt>
      <trkpt lat="43.630374977365136" lon="6.838474022224546">
        <ele>214.50999999999999</ele>
        <time>2025-05-18T11:24:19Z</time>
      </trkpt>
      <trkpt lat="43.630487965419888" lon="6.838523978367448">
        <ele>214.99000000000001</ele>
        <time>2025-05-18T11:24:20Z</time>
      </trkpt>
      <trkpt lat="43.63059701398015" lon="6.838573012501001">
        <ele>215.47</ele>
        <time>2025-05-18T11:24:21Z</time>
      </trkpt>
      <trkpt lat="43.63070597872138" lon="6.838621962815523">
        <ele>216.43000000000001</ele>
        <time>2025-05-18T11:24:22Z</time>
      </trkpt>
      <trkpt lat="43.630823995918036" lon="6.83867996558547">
        <ele>216.91</ele>
        <time>2025-05-18T11:24:23Z</time>
      </trkpt>
      <trkpt lat="43.63192998804152" lon="6.83955998159945">
        <ele>224.61000000000001</ele>
        <time>2025-05-18T11:24:33Z</time>
      </trkpt>
      <trkpt lat="43.632031995803118" lon="6.839643968269229">
        <ele>225.09</ele>
        <time>2025-05-18T11:24:34Z</time>
      </trkpt>
      <trkpt lat="43.632115982472897" lon="6.839766008779407">
        <ele>225.56999999999999</ele>
        <time>2025-05-18T11:24:35Z</time>
      </trkpt>
      <trkpt lat="43.632157975807786" lon="6.839901963248849">
        <ele>226.53</ele>
        <time>2025-05-18T11:24:36Z</time>
      </trkpt>
      <trkpt lat="43.632178008556366" lon="6.840054010972381">
        <ele>227.00999999999999</ele>
        <time>2025-05-18T11:24:37Z</time>
      </trkpt>
      <trkpt lat="43.632169961929321" lon="6.840213015675545">
        <ele>227.49000000000001</ele>
        <time>2025-05-18T11:24:38Z</time>
      </trkpt>
      <trkpt lat="43.632163004949689" lon="6.840378977358341">
        <ele>227.97</ele>
        <time>2025-05-18T11:24:39Z</time>
      </trkpt>
      <trkpt lat="43.632168034091592" lon="6.840545022860169">
        <ele>228.44999999999999</ele>
        <time>2025-05-18T11:24:40Z</time>
      </trkpt>
      <trkpt lat="43.632191000506282" lon="6.840706039220095">
        <ele>229.41</ele>
        <time>2025-05-18T11:24:41Z</time>
      </trkpt>
      <trkpt lat="43.632254032418132" lon="6.840845011174679">
        <ele>229.88999999999999</ele>
        <time>2025-05-18T11:24:42Z</time>
      </trkpt>
      <trkpt lat="43.632332989946008" lon="6.840978031978011">
        <ele>229.88999999999999</ele>
        <time>2025-05-18T11:24:43Z</time>
      </trkpt>
      <trkpt lat="43.632427034899592" lon="6.841098982840776">
        <ele>229.88999999999999</ele>
        <time>2025-05-18T11:24:44Z</time>
      </trkpt>
      <trkpt lat="43.632535999640822" lon="6.841172995045781">
        <ele>230.37</ele>
        <time>2025-05-18T11:24:45Z</time>
      </trkpt>
      <trkpt lat="43.632648987695575" lon="6.841242983937264">
        <ele>230.84999999999999</ele>
        <time>2025-05-18T11:24:46Z</time>
      </trkpt>
      <trkpt lat="43.632748983800411" lon="6.841306015849114">
        <ele>230.84999999999999</ele>
        <time>2025-05-18T11:24:47Z</time>
      </trkpt>
      <trkpt lat="43.632825007662177" lon="6.841356977820396">
        <ele>230.84999999999999</ele>
        <time>2025-05-18T11:24:48Z</time>
      </trkpt>
      <trkpt lat="43.63287596963346" lon="6.841460997238755">
        <ele>231.33000000000001</ele>
        <time>2025-05-18T11:24:49Z</time>
      </trkpt>
      <trkpt lat="43.632876975461841" lon="6.841565016657114">
        <ele>231.81</ele>
        <time>2025-05-18T11:24:50Z</time>
      </trkpt>
      <trkpt lat="43.632858032360673" lon="6.841670041903853">
        <ele>232.30000000000001</ele>
        <time>2025-05-18T11:24:51Z</time>
      </trkpt>
      <trkpt lat="43.632803969085217" lon="6.841753022745252">
        <ele>232.78</ele>
        <time>2025-05-18T11:24:52Z</time>
      </trkpt>
      <trkpt lat="43.632729034870863" lon="6.841776994988322">
        <ele>232.78</ele>
        <time>2025-05-18T11:24:53Z</time>
      </trkpt>
      <trkpt lat="43.632629038766026" lon="6.841756962239742">
        <ele>232.78</ele>
        <time>2025-05-18T11:24:54Z</time>
      </trkpt>
      <trkpt lat="43.632510015740991" lon="6.841732989996672">
        <ele>232.78</ele>
        <time>2025-05-18T11:24:55Z</time>
      </trkpt>
      <trkpt lat="43.632373977452517" lon="6.841706000268459">
        <ele>233.25999999999999</ele>
        <time>2025-05-18T11:24:56Z</time>
      </trkpt>
      <trkpt lat="43.632222013548017" lon="6.84172997251153">
        <ele>233.25999999999999</ele>
        <time>2025-05-18T11:24:57Z</time>
      </trkpt>
      <trkpt lat="43.632080024108291" lon="6.841790992766619">
        <ele>233.74000000000001</ele>
        <time>2025-05-18T11:24:58Z</time>
      </trkpt>
      <trkpt lat="43.631941974163055" lon="6.841881014406681">
        <ele>234.22</ele>
        <time>2025-05-18T11:24:59Z</time>
      </trkpt>
      <trkpt lat="43.63182102330029" lon="6.841986961662769">
        <ele>234.69999999999999</ele>
        <time>2025-05-18T11:25:00Z</time>
      </trkpt>
      <trkpt lat="43.631712980568409" lon="6.842081006616354">
        <ele>234.69999999999999</ele>
        <time>2025-05-18T11:25:01Z</time>
      </trkpt>
      <trkpt lat="43.631626982241869" lon="6.842187959700823">
        <ele>235.66</ele>
        <time>2025-05-18T11:25:02Z</time>
      </trkpt>
      <trkpt lat="43.631565039977431" lon="6.842294996604323">
        <ele>236.62</ele>
        <time>2025-05-18T11:25:03Z</time>
      </trkpt>
      <trkpt lat="43.631510976701975" lon="6.842407984659076">
        <ele>237.58000000000001</ele>
        <time>2025-05-18T11:25:04Z</time>
      </trkpt>
      <trkpt lat="43.631489016115665" lon="6.842527007684112">
        <ele>239.02000000000001</ele>
        <time>2025-05-18T11:25:05Z</time>
      </trkpt>
      <trkpt lat="43.631473006680608" lon="6.842647958546877">
        <ele>239.99000000000001</ele>
        <time>2025-05-18T11:25:06Z</time>
      </trkpt>
      <trkpt lat="43.631483986973763" lon="6.842777039855719">
        <ele>241.43000000000001</ele>
        <time>2025-05-18T11:25:07Z</time>
      </trkpt>
      <trkpt lat="43.631503013893962" lon="6.842904025688767">
        <ele>242.38999999999999</ele>
        <time>2025-05-18T11:25:08Z</time>
      </trkpt>
      <trkpt lat="43.631521034985781" lon="6.843021037057042">
        <ele>243.34999999999999</ele>
        <time>2025-05-18T11:25:09Z</time>
      </trkpt>
      <trkpt lat="43.631537966430187" lon="6.843134025111795">
        <ele>244.31</ele>
        <time>2025-05-18T11:25:10Z</time>
      </trkpt>
      <trkpt lat="43.631545007228851" lon="6.843296969309449">
        <ele>245.27000000000001</ele>
        <time>2025-05-18T11:25:11Z</time>
      </trkpt>
      <trkpt lat="43.631451968103647" lon="6.843410041183233">
        <ele>246.22999999999999</ele>
        <time>2025-05-18T11:25:12Z</time>
      </trkpt>
      <trkpt lat="43.631451968103647" lon="6.843501990661025">
        <ele>247.19999999999999</ele>
        <time>2025-05-18T11:25:13Z</time>
      </trkpt>
      <trkpt lat="43.631559005007148" lon="6.843645991757512">
        <ele>247.68000000000001</ele>
        <time>2025-05-18T11:25:14Z</time>
      </trkpt>
      <trkpt lat="43.63158599473536" lon="6.84374900534749">
        <ele>248.16</ele>
        <time>2025-05-18T11:25:15Z</time>
      </trkpt>
      <trkpt lat="43.631709963083267" lon="6.844229036942124">
        <ele>248.63999999999999</ele>
        <time>2025-05-18T11:25:18Z</time>
      </trkpt>
      <trkpt lat="43.63177701830864" lon="6.844379995018244">
        <ele>248.16</ele>
        <time>2025-05-18T11:25:19Z</time>
      </trkpt>
      <trkpt lat="43.631865028291941" lon="6.844512009993196">
        <ele>248.16</ele>
        <time>2025-05-18T11:25:20Z</time>
      </trkpt>
      <trkpt lat="43.63197298720479" lon="6.844620974734426">
        <ele>248.16</ele>
        <time>2025-05-18T11:25:21Z</time>
      </trkpt>
      <trkpt lat="43.632094021886587" lon="6.844712002202869">
        <ele>248.63999999999999</ele>
        <time>2025-05-18T11:25:22Z</time>
      </trkpt>
      <trkpt lat="43.632206004112959" lon="6.844795988872647">
        <ele>248.63999999999999</ele>
        <time>2025-05-18T11:25:23Z</time>
      </trkpt>
      <trkpt lat="43.632602971047163" lon="6.845120033249259">
        <ele>247.68000000000001</ele>
        <time>2025-05-18T11:25:27Z</time>
      </trkpt>
      <trkpt lat="43.632689975202084" lon="6.845217011868954">
        <ele>247.68000000000001</ele>
        <time>2025-05-18T11:25:28Z</time>
      </trkpt>
      <trkpt lat="43.632775973528624" lon="6.845326982438564">
        <ele>247.68000000000001</ele>
        <time>2025-05-18T11:25:29Z</time>
      </trkpt>
      <trkpt lat="43.632845040410757" lon="6.845457991585136">
        <ele>247.68000000000001</ele>
        <time>2025-05-18T11:25:30Z</time>
      </trkpt>
      <trkpt lat="43.632893990725279" lon="6.845608027651906">
        <ele>247.68000000000001</ele>
        <time>2025-05-18T11:25:31Z</time>
      </trkpt>
      <trkpt lat="43.632937995716929" lon="6.8457689601928">
        <ele>247.68000000000001</ele>
        <time>2025-05-18T11:25:32Z</time>
      </trkpt>
      <trkpt lat="43.63298200070858" lon="6.845931988209486">
        <ele>248.16</ele>
        <time>2025-05-18T11:25:33Z</time>
      </trkpt>
      <trkpt lat="43.632997004315257" lon="6.846105996519327">
        <ele>248.16</ele>
        <time>2025-05-18T11:25:34Z</time>
      </trkpt>
      <trkpt lat="43.632992981001735" lon="6.846289979293943">
        <ele>248.16</ele>
        <time>2025-05-18T11:25:35Z</time>
      </trkpt>
      <trkpt lat="43.632978983223438" lon="6.846783002838492">
        <ele>248.16</ele>
        <time>2025-05-18T11:25:38Z</time>
      </trkpt>
      <trkpt lat="43.632957022637129" lon="6.847753040492535">
        <ele>248.63999999999999</ele>
        <time>2025-05-18T11:25:45Z</time>
      </trkpt>
      <trkpt lat="43.632970014587045" lon="6.847924031317234">
        <ele>248.63999999999999</ele>
        <time>2025-05-18T11:25:46Z</time>
      </trkpt>
      <trkpt lat="43.633003039285541" lon="6.848085969686508">
        <ele>248.16</ele>
        <time>2025-05-18T11:25:47Z</time>
      </trkpt>
      <trkpt lat="43.633056012913585" lon="6.848242962732911">
        <ele>247.68000000000001</ele>
        <time>2025-05-18T11:25:48Z</time>
      </trkpt>
      <trkpt lat="43.633107980713248" lon="6.848400961607695">
        <ele>247.68000000000001</ele>
        <time>2025-05-18T11:25:49Z</time>
      </trkpt>
      <trkpt lat="43.633645009249449" lon="6.849714992567897">
        <ele>246.72</ele>
        <time>2025-05-18T11:25:58Z</time>
      </trkpt>
      <trkpt lat="43.634111965075135" lon="6.850747978314757">
        <ele>246.72</ele>
        <time>2025-05-18T11:26:06Z</time>
      </trkpt>
      <trkpt lat="43.634353028610349" lon="6.851335968822241">
        <ele>245.75</ele>
        <time>2025-05-18T11:26:12Z</time>
      </trkpt>
      <trkpt lat="43.634397033601999" lon="6.851476030424237">
        <ele>245.75</ele>
        <time>2025-05-18T11:26:13Z</time>
      </trkpt>
      <trkpt lat="43.634416982531548" lon="6.85163201764226">
        <ele>245.75</ele>
        <time>2025-05-18T11:26:14Z</time>
      </trkpt>
      <trkpt lat="43.634438021108508" lon="6.851793034002185">
        <ele>245.75</ele>
        <time>2025-05-18T11:26:15Z</time>
      </trkpt>
      <trkpt lat="43.634457970038056" lon="6.851952960714698">
        <ele>245.75</ele>
        <time>2025-05-18T11:26:16Z</time>
      </trkpt>
      <trkpt lat="43.634536005556583" lon="6.852599959820509">
        <ele>245.75</ele>
        <time>2025-05-18T11:26:20Z</time>
      </trkpt>
      <trkpt lat="43.634559977799654" lon="6.852745972573757">
        <ele>245.75</ele>
        <time>2025-05-18T11:26:21Z</time>
      </trkpt>
      <trkpt lat="43.634584033861756" lon="6.852888967841864">
        <ele>246.22999999999999</ele>
        <time>2025-05-18T11:26:22Z</time>
      </trkpt>
      <trkpt lat="43.634609011933208" lon="6.853039003908634">
        <ele>246.22999999999999</ele>
        <time>2025-05-18T11:26:23Z</time>
      </trkpt>
      <trkpt lat="43.634632984176278" lon="6.853184010833502">
        <ele>246.72</ele>
        <time>2025-05-18T11:26:24Z</time>
      </trkpt>
      <trkpt lat="43.635064987465739" lon="6.855187034234405">
        <ele>247.68000000000001</ele>
        <time>2025-05-18T11:26:38Z</time>
      </trkpt>
      <trkpt lat="43.635114021599293" lon="6.855447040870786">
        <ele>247.68000000000001</ele>
        <time>2025-05-18T11:26:40Z</time>
      </trkpt>
      <trkpt lat="43.635174036026001" lon="6.855636974796653">
        <ele>247.68000000000001</ele>
        <time>2025-05-18T11:26:42Z</time>
      </trkpt>
      <trkpt lat="43.635221980512142" lon="6.855860017240048">
        <ele>247.68000000000001</ele>
        <time>2025-05-18T11:26:44Z</time>
      </trkpt>
      <trkpt lat="43.635616013780236" lon="6.857321988791227">
        <ele>247.19999999999999</ele>
        <time>2025-05-18T11:26:54Z</time>
      </trkpt>
      <trkpt lat="43.635864034295082" lon="6.858089016750455">
        <ele>246.22999999999999</ele>
        <time>2025-05-18T11:27:00Z</time>
      </trkpt>
      <trkpt lat="43.635828997939825" lon="6.858214996755123">
        <ele>246.22999999999999</ele>
        <time>2025-05-18T11:27:01Z</time>
      </trkpt>
      <trkpt lat="43.63583997823298" lon="6.858294038102031">
        <ele>246.22999999999999</ele>
        <time>2025-05-18T11:27:02Z</time>
      </trkpt>
      <trkpt lat="43.635979034006596" lon="6.858409037813544">
        <ele>246.22999999999999</ele>
        <time>2025-05-18T11:27:03Z</time>
      </trkpt>
      <trkpt lat="43.635994959622622" lon="6.85844499617815">
        <ele>245.75</ele>
        <time>2025-05-18T11:27:04Z</time>
      </trkpt>
      <trkpt lat="43.636440960690379" lon="6.859482005238533">
        <ele>241.91</ele>
        <time>2025-05-18T11:27:11Z</time>
      </trkpt>
      <trkpt lat="43.63697798922658" lon="6.860659997910261">
        <ele>237.09999999999999</ele>
        <time>2025-05-18T11:27:19Z</time>
      </trkpt>
      <trkpt lat="43.63704496063292" lon="6.860809028148651">
        <ele>236.62</ele>
        <time>2025-05-18T11:27:20Z</time>
      </trkpt>
      <trkpt lat="43.637424996122718" lon="6.861693989485502">
        <ele>232.30000000000001</ele>
        <time>2025-05-18T11:27:26Z</time>
      </trkpt>
      <trkpt lat="43.637466989457607" lon="6.861820975318551">
        <ele>231.33000000000001</ele>
        <time>2025-05-18T11:27:27Z</time>
      </trkpt>
      <trkpt lat="43.637474030256271" lon="6.861928012222052">
        <ele>230.37</ele>
        <time>2025-05-18T11:27:28Z</time>
      </trkpt>
      <trkpt lat="43.637466989457607" lon="6.861987020820379">
        <ele>229.41</ele>
        <time>2025-05-18T11:27:29Z</time>
      </trkpt>
      <trkpt lat="43.637461038306355" lon="6.862049968913198">
        <ele>228.93000000000001</ele>
        <time>2025-05-18T11:27:30Z</time>
      </trkpt>
      <trkpt lat="43.637442011386156" lon="6.862115012481809">
        <ele>227.97</ele>
        <time>2025-05-18T11:27:31Z</time>
      </trkpt>
      <trkpt lat="43.637414015829563" lon="6.862205034121871">
        <ele>227.49000000000001</ele>
        <time>2025-05-18T11:27:32Z</time>
      </trkpt>
      <trkpt lat="43.637374034151435" lon="6.862335037440062">
        <ele>227.00999999999999</ele>
        <time>2025-05-18T11:27:33Z</time>
      </trkpt>
      <trkpt lat="43.637314019724727" lon="6.862445008009672">
        <ele>226.05000000000001</ele>
        <time>2025-05-18T11:27:34Z</time>
      </trkpt>
      <trkpt lat="43.637245036661625" lon="6.862571993842721">
        <ele>225.09</ele>
        <time>2025-05-18T11:27:35Z</time>
      </trkpt>
      <trkpt lat="43.636563001200557" lon="6.863799020648003">
        <ele>219.80000000000001</ele>
        <time>2025-05-18T11:27:43Z</time>
      </trkpt>
      <trkpt lat="43.63648496568203" lon="6.863938998430967">
        <ele>219.31999999999999</ele>
        <time>2025-05-18T11:27:44Z</time>
      </trkpt>
      <trkpt lat="43.636379018425941" lon="6.8642239831388">
        <ele>217.88</ele>
        <time>2025-05-18T11:27:46Z</time>
      </trkpt>
      <trkpt lat="43.636368960142136" lon="6.864369995892048">
        <ele>217.40000000000001</ele>
        <time>2025-05-18T11:27:47Z</time>
      </trkpt>
      <trkpt lat="43.636397961527109" lon="6.864493964239955">
        <ele>217.40000000000001</ele>
        <time>2025-05-18T11:27:48Z</time>
      </trkpt>
      <trkpt lat="43.636450013145804" lon="6.864618016406894">
        <ele>216.91</ele>
        <time>2025-05-18T11:27:49Z</time>
      </trkpt>
      <trkpt lat="43.636511033400893" lon="6.864695968106389">
        <ele>216.91</ele>
        <time>2025-05-18T11:27:50Z</time>
      </trkpt>
      <trkpt lat="43.636607006192207" lon="6.864749025553465">
        <ele>216.43000000000001</ele>
        <time>2025-05-18T11:27:51Z</time>
      </trkpt>
      <trkpt lat="43.636704990640283" lon="6.86478297226131">
        <ele>215.47</ele>
        <time>2025-05-18T11:27:52Z</time>
      </trkpt>
      <trkpt lat="43.636819990351796" lon="6.864790013059974">
        <ele>214.50999999999999</ele>
        <time>2025-05-18T11:27:53Z</time>
      </trkpt>
      <trkpt lat="43.636938007548451" lon="6.864795964211226">
        <ele>214.03</ele>
        <time>2025-05-18T11:27:54Z</time>
      </trkpt>
      <trkpt lat="43.637277977541089" lon="6.864819014444947">
        <ele>212.59</ele>
        <time>2025-05-18T11:27:57Z</time>
      </trkpt>
      <trkpt lat="43.637691959738731" lon="6.864838963374496">
        <ele>210.19</ele>
        <time>2025-05-18T11:28:01Z</time>
      </trkpt>
      <trkpt lat="43.638143995776772" lon="6.864901995286346">
        <ele>205.86000000000001</ele>
        <time>2025-05-18T11:28:05Z</time>
      </trkpt>
      <trkpt lat="43.638271987438202" lon="6.86495304107666">
        <ele>204.90000000000001</ele>
        <time>2025-05-18T11:28:06Z</time>
      </trkpt>
      <trkpt lat="43.638363014906645" lon="6.865056976675987">
        <ele>203.94</ele>
        <time>2025-05-18T11:28:07Z</time>
      </trkpt>
      <trkpt lat="43.63843702711165" lon="6.865196032449603">
        <ele>203.46000000000001</ele>
        <time>2025-05-18T11:28:08Z</time>
      </trkpt>
      <trkpt lat="43.638485977426171" lon="6.865333998575807">
        <ele>202.97999999999999</ele>
        <time>2025-05-18T11:28:09Z</time>
      </trkpt>
      <trkpt lat="43.638530988246202" lon="6.865495014935732">
        <ele>202.49000000000001</ele>
        <time>2025-05-18T11:28:10Z</time>
      </trkpt>
      <trkpt lat="43.638875987380743" lon="6.867393013089895">
        <ele>194.80000000000001</ele>
        <time>2025-05-18T11:28:21Z</time>
      </trkpt>
      <trkpt lat="43.639042032882571" lon="6.869301991537213">
        <ele>191.91999999999999</ele>
        <time>2025-05-18T11:28:33Z</time>
      </trkpt>
      <trkpt lat="43.639023005962372" lon="6.869618995115161">
        <ele>191.44</ele>
        <time>2025-05-18T11:28:35Z</time>
      </trkpt>
      <trkpt lat="43.639013031497598" lon="6.869786968454719">
        <ele>191.44</ele>
        <time>2025-05-18T11:28:36Z</time>
      </trkpt>
      <trkpt lat="43.638875987380743" lon="6.87142001464963">
        <ele>190.96000000000001</ele>
        <time>2025-05-18T11:28:47Z</time>
      </trkpt>
      <trkpt lat="43.63880499266088" lon="6.871577007696033">
        <ele>191.44</ele>
        <time>2025-05-18T11:28:48Z</time>
      </trkpt>
      <trkpt lat="43.638832988217473" lon="6.871648002415896">
        <ele>191.44</ele>
        <time>2025-05-18T11:28:49Z</time>
      </trkpt>
      <trkpt lat="43.638951005414128" lon="6.871844977140427">
        <ele>191.44</ele>
        <time>2025-05-18T11:28:51Z</time>
      </trkpt>
      <trkpt lat="43.639018982648849" lon="6.87270998954773">
        <ele>191.91999999999999</ele>
        <time>2025-05-18T11:28:56Z</time>
      </trkpt>
      <trkpt lat="43.639013031497598" lon="6.872899001464248">
        <ele>191.91999999999999</ele>
        <time>2025-05-18T11:28:57Z</time>
      </trkpt>
      <trkpt lat="43.639004984870553" lon="6.873170994222164">
        <ele>191.44</ele>
        <time>2025-05-18T11:28:58Z</time>
      </trkpt>
      <trkpt lat="43.638920998200774" lon="6.874916022643447">
        <ele>193.84</ele>
        <time>2025-05-18T11:29:08Z</time>
      </trkpt>
      <trkpt lat="43.638961985707283" lon="6.875575007870793">
        <ele>197.21000000000001</ele>
        <time>2025-05-18T11:29:12Z</time>
      </trkpt>
      <trkpt lat="43.639004984870553" lon="6.875722026452422">
        <ele>197.69</ele>
        <time>2025-05-18T11:29:13Z</time>
      </trkpt>
      <trkpt lat="43.639049995690584" lon="6.875873990356922">
        <ele>198.16999999999999</ele>
        <time>2025-05-18T11:29:14Z</time>
      </trkpt>
      <trkpt lat="43.639103975147009" lon="6.876012962311506">
        <ele>198.65000000000001</ele>
        <time>2025-05-18T11:29:15Z</time>
      </trkpt>
      <trkpt lat="43.639163989573717" lon="6.876141037791967">
        <ele>199.13</ele>
        <time>2025-05-18T11:29:16Z</time>
      </trkpt>
      <trkpt lat="43.639224004000425" lon="6.876267017796636">
        <ele>200.09</ele>
        <time>2025-05-18T11:29:17Z</time>
      </trkpt>
      <trkpt lat="43.639285024255514" lon="6.876382017508149">
        <ele>200.56999999999999</ele>
        <time>2025-05-18T11:29:18Z</time>
      </trkpt>
      <trkpt lat="43.639356018975377" lon="6.876484025269747">
        <ele>201.05000000000001</ele>
        <time>2025-05-18T11:29:19Z</time>
      </trkpt>
      <trkpt lat="43.639522986486554" lon="6.876649986952543">
        <ele>201.53</ele>
        <time>2025-05-18T11:29:21Z</time>
      </trkpt>
      <trkpt lat="43.639601022005081" lon="6.876729028299451">
        <ele>201.53</ele>
        <time>2025-05-18T11:29:22Z</time>
      </trkpt>
      <trkpt lat="43.639674028381705" lon="6.876802034676075">
        <ele>201.53</ele>
        <time>2025-05-18T11:29:23Z</time>
      </trkpt>
      <trkpt lat="43.640199992805719" lon="6.87720101326704">
        <ele>202.00999999999999</ele>
        <time>2025-05-18T11:29:31Z</time>
      </trkpt>
      <trkpt lat="43.640421023592353" lon="6.877369992434979">
        <ele>202.00999999999999</ele>
        <time>2025-05-18T11:29:34Z</time>
      </trkpt>
      <trkpt lat="43.641048995777965" lon="6.878242967650294">
        <ele>200.56999999999999</ele>
        <time>2025-05-18T11:29:44Z</time>
      </trkpt>
      <trkpt lat="43.641430037096143" lon="6.878750994801521">
        <ele>195.28</ele>
        <time>2025-05-18T11:29:51Z</time>
      </trkpt>
      <trkpt lat="43.642002018168569" lon="6.879577031359077">
        <ele>191.91999999999999</ele>
        <time>2025-05-18T11:30:00Z</time>
      </trkpt>
      <trkpt lat="43.642638036981225" lon="6.88057498075068">
        <ele>188.56</ele>
        <time>2025-05-18T11:30:09Z</time>
      </trkpt>
      <trkpt lat="43.643323006108403" lon="6.881946008652449">
        <ele>191.44</ele>
        <time>2025-05-18T11:30:20Z</time>
      </trkpt>
      <trkpt lat="43.643869003280997" lon="6.883271019905806">
        <ele>197.21000000000001</ele>
        <time>2025-05-18T11:30:31Z</time>
      </trkpt>
      <trkpt lat="43.6439189594239" lon="6.883320976048708">
        <ele>197.21000000000001</ele>
        <time>2025-05-18T11:30:32Z</time>
      </trkpt>
      <trkpt lat="43.644056003540754" lon="6.883510993793607">
        <ele>197.69</ele>
        <time>2025-05-18T11:30:34Z</time>
      </trkpt>
      <trkpt lat="43.644114006310701" lon="6.883626999333501">
        <ele>198.16999999999999</ele>
        <time>2025-05-18T11:30:35Z</time>
      </trkpt>
      <trkpt lat="43.644662015140057" lon="6.884737014770508">
        <ele>201.05000000000001</ele>
        <time>2025-05-18T11:30:43Z</time>
      </trkpt>
      <trkpt lat="43.645476987585425" lon="6.886462010443211">
        <ele>204.41999999999999</ele>
        <time>2025-05-18T11:30:55Z</time>
      </trkpt>
      <trkpt lat="43.645726013928652" lon="6.887057041749358">
        <ele>205.38</ele>
        <time>2025-05-18T11:30:59Z</time>
      </trkpt>
      <trkpt lat="43.645768007263541" lon="6.887209005653858">
        <ele>205.38</ele>
        <time>2025-05-18T11:31:00Z</time>
      </trkpt>
      <trkpt lat="43.645804971456528" lon="6.887367004528642">
        <ele>205.86000000000001</ele>
        <time>2025-05-18T11:31:01Z</time>
      </trkpt>
      <trkpt lat="43.645826010033488" lon="6.887531960383058">
        <ele>206.34</ele>
        <time>2025-05-18T11:31:02Z</time>
      </trkpt>
      <trkpt lat="43.645828021690249" lon="6.88770798034966">
        <ele>206.81999999999999</ele>
        <time>2025-05-18T11:31:03Z</time>
      </trkpt>
      <trkpt lat="43.645828021690249" lon="6.887891041114926">
        <ele>207.78</ele>
        <time>2025-05-18T11:31:04Z</time>
      </trkpt>
      <trkpt lat="43.645804971456528" lon="6.8880720064044">
        <ele>208.25999999999999</ele>
        <time>2025-05-18T11:31:05Z</time>
      </trkpt>
      <trkpt lat="43.645773958414793" lon="6.888261018320918">
        <ele>209.22</ele>
        <time>2025-05-18T11:31:06Z</time>
      </trkpt>
      <trkpt lat="43.645720984786749" lon="6.88843703828752">
        <ele>209.69999999999999</ele>
        <time>2025-05-18T11:31:07Z</time>
      </trkpt>
      <trkpt lat="43.64565996453166" lon="6.888607023283839">
        <ele>210.66999999999999</ele>
        <time>2025-05-18T11:31:08Z</time>
      </trkpt>
      <trkpt lat="43.645600033923984" lon="6.888771979138255">
        <ele>211.15000000000001</ele>
        <time>2025-05-18T11:31:09Z</time>
      </trkpt>
      <trkpt lat="43.645543036982417" lon="6.888928972184658">
        <ele>212.11000000000001</ele>
        <time>2025-05-18T11:31:10Z</time>
      </trkpt>
      <trkpt lat="43.644964015111327" lon="6.890405025333166">
        <ele>217.40000000000001</ele>
        <time>2025-05-18T11:31:20Z</time>
      </trkpt>
      <trkpt lat="43.644660003483295" lon="6.891320999711752">
        <ele>222.19999999999999</ele>
        <time>2025-05-18T11:31:26Z</time>
      </trkpt>
      <trkpt lat="43.644642988219857" lon="6.8914860393852">
        <ele>222.68000000000001</ele>
        <time>2025-05-18T11:31:27Z</time>
      </trkpt>
      <trkpt lat="43.644633013755083" lon="6.891656024381518">
        <ele>223.16</ele>
        <time>2025-05-18T11:31:28Z</time>
      </trkpt>
      <trkpt lat="43.644634019583464" lon="6.891822991892695">
        <ele>223.63999999999999</ele>
        <time>2025-05-18T11:31:29Z</time>
      </trkpt>
      <trkpt lat="43.644652962684631" lon="6.891990965232253">
        <ele>224.12</ele>
        <time>2025-05-18T11:31:30Z</time>
      </trkpt>
      <trkpt lat="43.644681964069605" lon="6.892139995470643">
        <ele>224.61000000000001</ele>
        <time>2025-05-18T11:31:31Z</time>
      </trkpt>
      <trkpt lat="43.644709959626198" lon="6.892302017658949">
        <ele>225.09</ele>
        <time>2025-05-18T11:31:32Z</time>
      </trkpt>
      <trkpt lat="43.644683975726366" lon="6.892447024583817">
        <ele>225.56999999999999</ele>
        <time>2025-05-18T11:31:33Z</time>
      </trkpt>
      <trkpt lat="43.64466997794807" lon="6.892525982111692">
        <ele>225.56999999999999</ele>
        <time>2025-05-18T11:31:34Z</time>
      </trkpt>
      <trkpt lat="43.644771985709667" lon="6.893240958452225">
        <ele>224.61000000000001</ele>
        <time>2025-05-18T11:31:38Z</time>
      </trkpt>
      <trkpt lat="43.64482001401484" lon="6.893386971205473">
        <ele>224.12</ele>
        <time>2025-05-18T11:31:39Z</time>
      </trkpt>
      <trkpt lat="43.64486301317811" lon="6.893536001443863">
        <ele>223.63999999999999</ele>
        <time>2025-05-18T11:31:40Z</time>
      </trkpt>
      <trkpt lat="43.644905006513" lon="6.893682014197111">
        <ele>223.63999999999999</ele>
        <time>2025-05-18T11:31:41Z</time>
      </trkpt>
      <trkpt lat="43.644943982362747" lon="6.893820986151695">
        <ele>223.16</ele>
        <time>2025-05-18T11:31:42Z</time>
      </trkpt>
      <trkpt lat="43.64497097209096" lon="6.893959036096931">
        <ele>222.68000000000001</ele>
        <time>2025-05-18T11:31:43Z</time>
      </trkpt>
      <trkpt lat="43.645048001781106" lon="6.894212001934648">
        <ele>221.72</ele>
        <time>2025-05-18T11:31:45Z</time>
      </trkpt>
      <trkpt lat="43.645146992057562" lon="6.894446024671197">
        <ele>219.80000000000001</ele>
        <time>2025-05-18T11:31:47Z</time>
      </trkpt>
      <trkpt lat="43.64524899981916" lon="6.894650962203741">
        <ele>217.88</ele>
        <time>2025-05-18T11:31:49Z</time>
      </trkpt>
      <trkpt lat="43.64524899981916" lon="6.894787000492215">
        <ele>216.91</ele>
        <time>2025-05-18T11:31:50Z</time>
      </trkpt>
      <trkpt lat="43.64524899981916" lon="6.894919015467167">
        <ele>215.94999999999999</ele>
        <time>2025-05-18T11:31:51Z</time>
      </trkpt>
      <trkpt lat="43.645242964848876" lon="6.895058993250132">
        <ele>214.99000000000001</ele>
        <time>2025-05-18T11:31:52Z</time>
      </trkpt>
      <trkpt lat="43.645201977342367" lon="6.895219003781676">
        <ele>214.03</ele>
        <time>2025-05-18T11:31:53Z</time>
      </trkpt>
      <trkpt lat="43.645072979852557" lon="6.895718984305859">
        <ele>211.15000000000001</ele>
        <time>2025-05-18T11:31:56Z</time>
      </trkpt>
      <trkpt lat="43.645029980689287" lon="6.895880000665784">
        <ele>210.66999999999999</ele>
        <time>2025-05-18T11:31:57Z</time>
      </trkpt>
      <trkpt lat="43.644987987354398" lon="6.896037999540567">
        <ele>209.69999999999999</ele>
        <time>2025-05-18T11:31:58Z</time>
      </trkpt>
      <trkpt lat="43.644944988191128" lon="6.896197004243732">
        <ele>209.22</ele>
        <time>2025-05-18T11:31:59Z</time>
      </trkpt>
      <trkpt lat="43.644901989027858" lon="6.896353997290134">
        <ele>208.74000000000001</ele>
        <time>2025-05-18T11:32:00Z</time>
      </trkpt>
      <trkpt lat="43.644313998520374" lon="6.897842036560178">
        <ele>202.49000000000001</ele>
        <time>2025-05-18T11:32:10Z</time>
      </trkpt>
      <trkpt lat="43.644279967993498" lon="6.89799701794982">
        <ele>202.00999999999999</ele>
        <time>2025-05-18T11:32:11Z</time>
      </trkpt>
      <trkpt lat="43.644246021285653" lon="6.898154010996223">
        <ele>200.56999999999999</ele>
        <time>2025-05-18T11:32:12Z</time>
      </trkpt>
      <trkpt lat="43.644219031557441" lon="6.898314021527767">
        <ele>199.61000000000001</ele>
        <time>2025-05-18T11:32:13Z</time>
      </trkpt>
      <trkpt lat="43.644219031557441" lon="6.898453999310732">
        <ele>199.13</ele>
        <time>2025-05-18T11:32:14Z</time>
      </trkpt>
      <trkpt lat="43.644220037385821" lon="6.898561036214232">
        <ele>198.16999999999999</ele>
        <time>2025-05-18T11:32:15Z</time>
      </trkpt>
      <trkpt lat="43.644223976880312" lon="6.898636976256967">
        <ele>197.69</ele>
        <time>2025-05-18T11:32:16Z</time>
      </trkpt>
      <trkpt lat="43.644223976880312" lon="6.899430993944407">
        <ele>192.88</ele>
        <time>2025-05-18T11:32:26Z</time>
      </trkpt>
      <trkpt lat="43.644219031557441" lon="6.899792002514005">
        <ele>192.40000000000001</ele>
        <time>2025-05-18T11:32:29Z</time>
      </trkpt>
      <trkpt lat="43.644219031557441" lon="6.89991001971066">
        <ele>192.40000000000001</ele>
        <time>2025-05-18T11:32:30Z</time>
      </trkpt>
      <trkpt lat="43.644250966608524" lon="6.900022001937032">
        <ele>192.40000000000001</ele>
        <time>2025-05-18T11:32:31Z</time>
      </trkpt>
      <trkpt lat="43.644289020448923" lon="6.900129038840532">
        <ele>192.40000000000001</ele>
        <time>2025-05-18T11:32:32Z</time>
      </trkpt>
      <trkpt lat="43.644327996298671" lon="6.900241021066904">
        <ele>192.88</ele>
        <time>2025-05-18T11:32:33Z</time>
      </trkpt>
      <trkpt lat="43.644373007118702" lon="6.900361971929669">
        <ele>192.88</ele>
        <time>2025-05-18T11:32:34Z</time>
      </trkpt>
      <trkpt lat="43.644449030980468" lon="6.900444030761719">
        <ele>192.88</ele>
        <time>2025-05-18T11:32:35Z</time>
      </trkpt>
      <trkpt lat="43.644532011821866" lon="6.900532962754369">
        <ele>192.88</ele>
        <time>2025-05-18T11:32:36Z</time>
      </trkpt>
      <trkpt lat="43.645289987325668" lon="6.90141599625349">
        <ele>188.08000000000001</ele>
        <time>2025-05-18T11:32:44Z</time>
      </trkpt>
      <trkpt lat="43.645491991192102" lon="6.901824027299881">
        <ele>185.66999999999999</ele>
        <time>2025-05-18T11:32:47Z</time>
      </trkpt>
      <trkpt lat="43.64552803337574" lon="6.901988983154297">
        <ele>185.19</ele>
        <time>2025-05-18T11:32:48Z</time>
      </trkpt>
      <trkpt lat="43.64552803337574" lon="6.902132984250784">
        <ele>184.22999999999999</ele>
        <time>2025-05-18T11:32:49Z</time>
      </trkpt>
      <trkpt lat="43.64552803337574" lon="6.902246978133917">
        <ele>183.75</ele>
        <time>2025-05-18T11:32:50Z</time>
      </trkpt>
      <trkpt lat="43.64548796787858" lon="6.9024049770087">
        <ele>183.27000000000001</ele>
        <time>2025-05-18T11:32:51Z</time>
      </trkpt>
      <trkpt lat="43.645455026999116" lon="6.902536991983652">
        <ele>183.27000000000001</ele>
        <time>2025-05-18T11:32:52Z</time>
      </trkpt>
      <trkpt lat="43.64542200230062" lon="6.902671018615365">
        <ele>182.78999999999999</ele>
        <time>2025-05-18T11:32:53Z</time>
      </trkpt>
      <trkpt lat="43.64533600397408" lon="6.90276900306344">
        <ele>182.78999999999999</ele>
        <time>2025-05-18T11:32:54Z</time>
      </trkpt>
      <trkpt lat="43.645256040617824" lon="6.902858018875122">
        <ele>182.31</ele>
        <time>2025-05-18T11:32:55Z</time>
      </trkpt>
      <trkpt lat="43.645171970129013" lon="6.902908980846405">
        <ele>181.83000000000001</ele>
        <time>2025-05-18T11:32:56Z</time>
      </trkpt>
      <trkpt lat="43.645088989287615" lon="6.902935970574617">
        <ele>181.83000000000001</ele>
        <time>2025-05-18T11:32:57Z</time>
      </trkpt>
      <trkpt lat="43.644999973475933" lon="6.902942005544901">
        <ele>181.34999999999999</ele>
        <time>2025-05-18T11:32:58Z</time>
      </trkpt>
      <trkpt lat="43.644908023998141" lon="6.902905963361263">
        <ele>181.34999999999999</ele>
        <time>2025-05-18T11:32:59Z</time>
      </trkpt>
      <trkpt lat="43.644692022353411" lon="6.902839997783303">
        <ele>181.34999999999999</ele>
        <time>2025-05-18T11:33:01Z</time>
      </trkpt>
      <trkpt lat="43.644572999328375" lon="6.902829017490149">
        <ele>180.87</ele>
        <time>2025-05-18T11:33:02Z</time>
      </trkpt>
      <trkpt lat="43.644236968830228" lon="6.902924990281463">
        <ele>180.38</ele>
        <time>2025-05-18T11:33:05Z</time>
      </trkpt>
      <trkpt lat="43.644122974947095" lon="6.902924990281463">
        <ele>180.38</ele>
        <time>2025-05-18T11:33:06Z</time>
      </trkpt>
      <trkpt lat="43.644004035741091" lon="6.902911998331547">
        <ele>180.38</ele>
        <time>2025-05-18T11:33:07Z</time>
      </trkpt>
      <trkpt lat="43.643765989691019" lon="6.902876039966941">
        <ele>180.87</ele>
        <time>2025-05-18T11:33:09Z</time>
      </trkpt>
      <trkpt lat="43.643644032999873" lon="6.90289699472487">
        <ele>181.34999999999999</ele>
        <time>2025-05-18T11:33:10Z</time>
      </trkpt>
      <trkpt lat="43.64352903328836" lon="6.902933958917856">
        <ele>181.83000000000001</ele>
        <time>2025-05-18T11:33:11Z</time>
      </trkpt>
      <trkpt lat="43.643428031355143" lon="6.90302699804306">
        <ele>182.78999999999999</ele>
        <time>2025-05-18T11:33:12Z</time>
      </trkpt>
      <trkpt lat="43.643328035250306" lon="6.903119031339884">
        <ele>183.27000000000001</ele>
        <time>2025-05-18T11:33:13Z</time>
      </trkpt>
      <trkpt lat="43.643262991681695" lon="6.90326202660799">
        <ele>184.71000000000001</ele>
        <time>2025-05-18T11:33:14Z</time>
      </trkpt>
      <trkpt lat="43.643218986690044" lon="6.903410973027349">
        <ele>185.66999999999999</ele>
        <time>2025-05-18T11:33:15Z</time>
      </trkpt>
      <trkpt lat="43.643189985305071" lon="6.903561009094119">
        <ele>186.63</ele>
        <time>2025-05-18T11:33:16Z</time>
      </trkpt>
      <trkpt lat="43.643194008618593" lon="6.903713978827">
        <ele>187.59</ele>
        <time>2025-05-18T11:33:17Z</time>
      </trkpt>
      <trkpt lat="43.643198031932116" lon="6.903868960216641">
        <ele>188.08000000000001</ele>
        <time>2025-05-18T11:33:18Z</time>
      </trkpt>
      <trkpt lat="43.643201971426606" lon="6.904018996283412">
        <ele>189.03999999999999</ele>
        <time>2025-05-18T11:33:19Z</time>
      </trkpt>
      <trkpt lat="43.643204988911748" lon="6.90416500903666">
        <ele>190</ele>
        <time>2025-05-18T11:33:20Z</time>
      </trkpt>
      <trkpt lat="43.643291993066669" lon="6.904964977875352">
        <ele>194.31999999999999</ele>
        <time>2025-05-18T11:33:26Z</time>
      </trkpt>
      <trkpt lat="43.643284030258656" lon="6.905094981193543">
        <ele>195.28</ele>
        <time>2025-05-18T11:33:27Z</time>
      </trkpt>
      <trkpt lat="43.643268020823598" lon="6.905234958976507">
        <ele>195.77000000000001</ele>
        <time>2025-05-18T11:33:28Z</time>
      </trkpt>
      <trkpt lat="43.64325100556016" lon="6.905361022800207">
        <ele>196.25</ele>
        <time>2025-05-18T11:33:29Z</time>
      </trkpt>
      <trkpt lat="43.643185961991549" lon="6.90547501668334">
        <ele>197.21000000000001</ele>
        <time>2025-05-18T11:33:30Z</time>
      </trkpt>
      <trkpt lat="43.642978006973863" lon="6.905892016366124">
        <ele>199.61000000000001</ele>
        <time>2025-05-18T11:33:33Z</time>
      </trkpt>
      <trkpt lat="43.642925033345819" lon="6.906058983877301">
        <ele>200.09</ele>
        <time>2025-05-18T11:33:34Z</time>
      </trkpt>
      <trkpt lat="43.642737027257681" lon="6.906681004911661">
        <ele>203.94</ele>
        <time>2025-05-18T11:33:38Z</time>
      </trkpt>
      <trkpt lat="43.642618004232645" lon="6.90712901763618">
        <ele>206.34</ele>
        <time>2025-05-18T11:33:41Z</time>
      </trkpt>
      <trkpt lat="43.642587997019291" lon="6.907267989590764">
        <ele>206.81999999999999</ele>
        <time>2025-05-18T11:33:42Z</time>
      </trkpt>
      <trkpt lat="43.642597971484065" lon="6.907420959323645">
        <ele>207.30000000000001</ele>
        <time>2025-05-18T11:33:43Z</time>
      </trkpt>
      <trkpt lat="43.642608029767871" lon="6.907560015097261">
        <ele>207.78</ele>
        <time>2025-05-18T11:33:44Z</time>
      </trkpt>
      <trkpt lat="43.642637031152844" lon="6.90768800675869">
        <ele>208.25999999999999</ele>
        <time>2025-05-18T11:33:45Z</time>
      </trkpt>
      <trkpt lat="43.642676007002592" lon="6.907828990370035">
        <ele>208.74000000000001</ele>
        <time>2025-05-18T11:33:46Z</time>
      </trkpt>
      <trkpt lat="43.642734009772539" lon="6.907954970374703">
        <ele>208.74000000000001</ele>
        <time>2025-05-18T11:33:47Z</time>
      </trkpt>
      <trkpt lat="43.642791006714106" lon="6.90807499922812">
        <ele>208.25999999999999</ele>
        <time>2025-05-18T11:33:48Z</time>
      </trkpt>
      <trkpt lat="43.642969038337469" lon="6.908510020002723">
        <ele>208.74000000000001</ele>
        <time>2025-05-18T11:33:52Z</time>
      </trkpt>
      <trkpt lat="43.642955962568521" lon="6.908595012500882">
        <ele>209.22</ele>
        <time>2025-05-18T11:33:53Z</time>
      </trkpt>
      <trkpt lat="43.642915980890393" lon="6.908646980300546">
        <ele>209.22</ele>
        <time>2025-05-18T11:33:54Z</time>
      </trkpt>
      <trkpt lat="43.642845991998911" lon="6.90867799334228">
        <ele>209.69999999999999</ele>
        <time>2025-05-18T11:33:55Z</time>
      </trkpt>
      <trkpt lat="43.642716994509101" lon="6.908641029149294">
        <ele>209.69999999999999</ele>
        <time>2025-05-18T11:33:56Z</time>
      </trkpt>
      <trkpt lat="43.642663015052676" lon="6.908589983358979">
        <ele>210.19</ele>
        <time>2025-05-18T11:33:57Z</time>
      </trkpt>
      <trkpt lat="43.642569975927472" lon="6.908503985032439">
        <ele>210.66999999999999</ele>
        <time>2025-05-18T11:33:58Z</time>
      </trkpt>
      <trkpt lat="43.642472997307777" lon="6.908412035554647">
        <ele>210.66999999999999</ele>
        <time>2025-05-18T11:33:59Z</time>
      </trkpt>
      <trkpt lat="43.642374007031322" lon="6.908318996429443">
        <ele>211.15000000000001</ele>
        <time>2025-05-18T11:34:00Z</time>
      </trkpt>
      <trkpt lat="43.642271999269724" lon="6.90822402946651">
        <ele>211.63</ele>
        <time>2025-05-18T11:34:01Z</time>
      </trkpt>
      <trkpt lat="43.64196396432817" lon="6.907958993688226">
        <ele>212.59</ele>
        <time>2025-05-18T11:34:04Z</time>
      </trkpt>
      <trkpt lat="43.641841001808643" lon="6.907910965383053">
        <ele>213.06999999999999</ele>
        <time>2025-05-18T11:34:05Z</time>
      </trkpt>
      <trkpt lat="43.641717033460736" lon="6.907910965383053">
        <ele>213.55000000000001</ele>
        <time>2025-05-18T11:34:06Z</time>
      </trkpt>
      <trkpt lat="43.641590969637036" lon="6.907940972596407">
        <ele>214.03</ele>
        <time>2025-05-18T11:34:07Z</time>
      </trkpt>
      <trkpt lat="43.641474964097142" lon="6.907986989244819">
        <ele>214.99000000000001</ele>
        <time>2025-05-18T11:34:08Z</time>
      </trkpt>
      <trkpt lat="43.641370022669435" lon="6.908078016713262">
        <ele>215.94999999999999</ele>
        <time>2025-05-18T11:34:09Z</time>
      </trkpt>
      <trkpt lat="43.64127597771585" lon="6.908170972019434">
        <ele>216.91</ele>
        <time>2025-05-18T11:34:10Z</time>
      </trkpt>
      <trkpt lat="43.641197020187974" lon="6.908265016973019">
        <ele>217.88</ele>
        <time>2025-05-18T11:34:11Z</time>
      </trkpt>
      <trkpt lat="43.641137005761266" lon="6.908367024734616">
        <ele>219.31999999999999</ele>
        <time>2025-05-18T11:34:12Z</time>
      </trkpt>
      <trkpt lat="43.641083026304841" lon="6.908458974212408">
        <ele>220.28</ele>
        <time>2025-05-18T11:34:13Z</time>
      </trkpt>
      <trkpt lat="43.640915974974632" lon="6.908821994438767">
        <ele>223.63999999999999</ele>
        <time>2025-05-18T11:34:17Z</time>
      </trkpt>
      <trkpt lat="43.640764011070132" lon="6.909241005778313">
        <ele>225.56999999999999</ele>
        <time>2025-05-18T11:34:21Z</time>
      </trkpt>
      <trkpt lat="43.640764011070132" lon="6.909438986331224">
        <ele>227.00999999999999</ele>
        <time>2025-05-18T11:34:23Z</time>
      </trkpt>
      <trkpt lat="43.640764011070132" lon="6.909512998536229">
        <ele>227.97</ele>
        <time>2025-05-18T11:34:24Z</time>
      </trkpt>
      <trkpt lat="43.640764011070132" lon="6.909635039046407">
        <ele>229.41</ele>
        <time>2025-05-18T11:34:26Z</time>
      </trkpt>
      <trkpt lat="43.640764011070132" lon="6.909693963825703">
        <ele>229.88999999999999</ele>
        <time>2025-05-18T11:34:27Z</time>
      </trkpt>
      <trkpt lat="43.640764011070132" lon="6.909763030707836">
        <ele>230.37</ele>
        <time>2025-05-18T11:34:28Z</time>
      </trkpt>
      <trkpt lat="43.640764011070132" lon="6.909821033477783">
        <ele>231.33000000000001</ele>
        <time>2025-05-18T11:34:29Z</time>
      </trkpt>
      <trkpt lat="43.640693016350269" lon="6.909951958805323">
        <ele>231.81</ele>
        <time>2025-05-18T11:34:30Z</time>
      </trkpt>
      <trkpt lat="43.640710031613708" lon="6.91002999432385">
        <ele>232.30000000000001</ele>
        <time>2025-05-18T11:34:31Z</time>
      </trkpt>
      <trkpt lat="43.640785971656442" lon="6.910099983215332">
        <ele>233.25999999999999</ele>
        <time>2025-05-18T11:34:32Z</time>
      </trkpt>
      <trkpt lat="43.640811033546925" lon="6.910175001248717">
        <ele>233.25999999999999</ele>
        <time>2025-05-18T11:34:33Z</time>
      </trkpt>
      <trkpt lat="43.640871969982982" lon="6.910337023437023">
        <ele>234.22</ele>
        <time>2025-05-18T11:34:35Z</time>
      </trkpt>
      <trkpt lat="43.640960985794663" lon="6.910507008433342">
        <ele>235.18000000000001</ele>
        <time>2025-05-18T11:34:37Z</time>
      </trkpt>
      <trkpt lat="43.641430037096143" lon="6.911136992275715">
        <ele>239.50999999999999</ele>
        <time>2025-05-18T11:34:45Z</time>
      </trkpt>
      <trkpt lat="43.641467001289129" lon="6.911178985610604">
        <ele>239.99000000000001</ele>
        <time>2025-05-18T11:34:46Z</time>
      </trkpt>
      <trkpt lat="43.641529027372599" lon="6.911295996978879">
        <ele>240.47</ele>
        <time>2025-05-18T11:34:47Z</time>
      </trkpt>
      <trkpt lat="43.641493991017342" lon="6.911473022773862">
        <ele>240.94999999999999</ele>
        <time>2025-05-18T11:34:49Z</time>
      </trkpt>
      <trkpt lat="43.641523998230696" lon="6.911528008058667">
        <ele>241.43000000000001</ele>
        <time>2025-05-18T11:34:50Z</time>
      </trkpt>
      <trkpt lat="43.641565991565585" lon="6.911604031920433">
        <ele>241.91</ele>
        <time>2025-05-18T11:34:51Z</time>
      </trkpt>
      <trkpt lat="43.641614019870758" lon="6.911667985841632">
        <ele>241.91</ele>
        <time>2025-05-18T11:34:52Z</time>
      </trkpt>
      <trkpt lat="43.64168300293386" lon="6.911677960306406">
        <ele>242.38999999999999</ele>
        <time>2025-05-18T11:34:53Z</time>
      </trkpt>
      <trkpt lat="43.641750980168581" lon="6.911688018590212">
        <ele>242.87</ele>
        <time>2025-05-18T11:34:54Z</time>
      </trkpt>
      <trkpt lat="43.641934962943196" lon="6.91172800026834">
        <ele>243.83000000000001</ele>
        <time>2025-05-18T11:34:56Z</time>
      </trkpt>
      <trkpt lat="43.64200402982533" lon="6.91181399859488">
        <ele>244.78999999999999</ele>
        <time>2025-05-18T11:34:57Z</time>
      </trkpt>
      <trkpt lat="43.642160017043352" lon="6.911987001076341">
        <ele>246.22999999999999</ele>
        <time>2025-05-18T11:34:59Z</time>
      </trkpt>
      <trkpt lat="43.64224199205637" lon="6.91207098774612">
        <ele>246.72</ele>
        <time>2025-05-18T11:35:00Z</time>
      </trkpt>
      <trkpt lat="43.642508033663034" lon="6.912337029352784">
        <ele>248.63999999999999</ele>
        <time>2025-05-18T11:35:03Z</time>
      </trkpt>
      <trkpt lat="43.642601994797587" lon="6.912430990487337">
        <ele>249.59999999999999</ele>
        <time>2025-05-18T11:35:04Z</time>
      </trkpt>
      <trkpt lat="43.643677979707718" lon="6.913503035902977">
        <ele>258.73000000000002</ele>
        <time>2025-05-18T11:35:16Z</time>
      </trkpt>
      <trkpt lat="43.644163962453604" lon="6.913907965645194">
        <ele>264.01999999999998</ele>
        <time>2025-05-18T11:35:21Z</time>
      </trkpt>
      <trkpt lat="43.644514996558428" lon="6.914279032498598">
        <ele>268.35000000000002</ele>
        <time>2025-05-18T11:35:25Z</time>
      </trkpt>
      <trkpt lat="43.644606024026871" lon="6.914306022226811">
        <ele>269.31</ele>
        <time>2025-05-18T11:35:26Z</time>
      </trkpt>
      <trkpt lat="43.644717000424862" lon="6.914334017783403">
        <ele>269.79000000000002</ele>
        <time>2025-05-18T11:35:27Z</time>
      </trkpt>
      <trkpt lat="43.64486301317811" lon="6.914369976148009">
        <ele>270.26999999999998</ele>
        <time>2025-05-18T11:35:28Z</time>
      </trkpt>
      <trkpt lat="43.644934007897973" lon="6.914369976148009">
        <ele>270.75</ele>
        <time>2025-05-18T11:35:29Z</time>
      </trkpt>
      <trkpt lat="43.645037021487951" lon="6.914369976148009">
        <ele>271.70999999999998</ele>
        <time>2025-05-18T11:35:30Z</time>
      </trkpt>
      <trkpt lat="43.645134000107646" lon="6.914368970319629">
        <ele>271.70999999999998</ele>
        <time>2025-05-18T11:35:31Z</time>
      </trkpt>
      <trkpt lat="43.645633980631828" lon="6.914310967549682">
        <ele>274.11000000000001</ele>
        <time>2025-05-18T11:35:36Z</time>
      </trkpt>
      <trkpt lat="43.645839001983404" lon="6.914246007800102">
        <ele>273.63</ele>
        <time>2025-05-18T11:35:38Z</time>
      </trkpt>
      <trkpt lat="43.645940003916621" lon="6.914207031950355">
        <ele>273.63</ele>
        <time>2025-05-18T11:35:39Z</time>
      </trkpt>
      <trkpt lat="43.64724799990654" lon="6.913386024534702">
        <ele>277</ele>
        <time>2025-05-18T11:35:52Z</time>
      </trkpt>
      <trkpt lat="43.647352019324899" lon="6.91331896930933">
        <ele>277.48000000000002</ele>
        <time>2025-05-18T11:35:53Z</time>
      </trkpt>
      <trkpt lat="43.647421002388" lon="6.913306983187795">
        <ele>277.95999999999998</ele>
        <time>2025-05-18T11:35:54Z</time>
      </trkpt>
      <trkpt lat="43.647490991279483" lon="6.91329600289464">
        <ele>277.95999999999998</ele>
        <time>2025-05-18T11:35:55Z</time>
      </trkpt>
      <trkpt lat="43.647630969062448" lon="6.913340007886291">
        <ele>278.44</ele>
        <time>2025-05-18T11:35:56Z</time>
      </trkpt>
      <trkpt lat="43.647630969062448" lon="6.913340007886291">
        <ele>278.44</ele>
        <time>2025-05-18T11:35:57Z</time>
      </trkpt>
      <trkpt lat="43.647724008187652" lon="6.913465987890959">
        <ele>278.44</ele>
        <time>2025-05-18T11:35:58Z</time>
      </trkpt>
      <trkpt lat="43.647750997915864" lon="6.913582999259234">
        <ele>278.44</ele>
        <time>2025-05-18T11:35:59Z</time>
      </trkpt>
      <trkpt lat="43.647758960723877" lon="6.913724988698959">
        <ele>277.95999999999998</ele>
        <time>2025-05-18T11:36:00Z</time>
      </trkpt>
      <trkpt lat="43.647758960723877" lon="6.91385499201715">
        <ele>277.95999999999998</ele>
        <time>2025-05-18T11:36:01Z</time>
      </trkpt>
      <trkpt lat="43.647731970995665" lon="6.914500985294581">
        <ele>279.39999999999998</ele>
        <time>2025-05-18T11:36:07Z</time>
      </trkpt>
      <trkpt lat="43.647725014016032" lon="6.914602993056178">
        <ele>279.88</ele>
        <time>2025-05-18T11:36:08Z</time>
      </trkpt>
      <trkpt lat="43.647716967388988" lon="6.91473500803113">
        <ele>280.36000000000001</ele>
        <time>2025-05-18T11:36:09Z</time>
      </trkpt>
      <trkpt lat="43.647712022066116" lon="6.914845984429121">
        <ele>280.83999999999997</ele>
        <time>2025-05-18T11:36:10Z</time>
      </trkpt>
      <trkpt lat="43.647705987095833" lon="6.914962995797396">
        <ele>281.31999999999999</ele>
        <time>2025-05-18T11:36:11Z</time>
      </trkpt>
      <trkpt lat="43.647690983489156" lon="6.915316041558981">
        <ele>282.76999999999998</ele>
        <time>2025-05-18T11:36:14Z</time>
      </trkpt>
      <trkpt lat="43.647686960175633" lon="6.915441015735269">
        <ele>283.25</ele>
        <time>2025-05-18T11:36:15Z</time>
      </trkpt>
      <trkpt lat="43.647654019296169" lon="6.916348021477461">
        <ele>286.61000000000001</ele>
        <time>2025-05-18T11:36:23Z</time>
      </trkpt>
      <trkpt lat="43.647694000974298" lon="6.916581960394979">
        <ele>287.56999999999999</ele>
        <time>2025-05-18T11:36:25Z</time>
      </trkpt>
      <trkpt lat="43.647716967388988" lon="6.916687991470099">
        <ele>287.56999999999999</ele>
        <time>2025-05-18T11:36:26Z</time>
      </trkpt>
      <trkpt lat="43.647777987644076" lon="6.916779018938541">
        <ele>288.05000000000001</ele>
        <time>2025-05-18T11:36:27Z</time>
      </trkpt>
      <trkpt lat="43.647838002070785" lon="6.916869962587953">
        <ele>288.52999999999997</ele>
        <time>2025-05-18T11:36:28Z</time>
      </trkpt>
      <trkpt lat="43.647887958213687" lon="6.916944980621338">
        <ele>289.00999999999999</ele>
        <time>2025-05-18T11:36:29Z</time>
      </trkpt>
      <trkpt lat="43.647971022874117" lon="6.916980016976595">
        <ele>289.97000000000003</ele>
        <time>2025-05-18T11:36:30Z</time>
      </trkpt>
      <trkpt lat="43.648054003715515" lon="6.91701396368444">
        <ele>290.45999999999998</ele>
        <time>2025-05-18T11:36:31Z</time>
      </trkpt>
      <trkpt lat="43.648137990385294" lon="6.917049000039697">
        <ele>290.45999999999998</ele>
        <time>2025-05-18T11:36:32Z</time>
      </trkpt>
      <trkpt lat="43.648217031732202" lon="6.917082024738193">
        <ele>290.94</ele>
        <time>2025-05-18T11:36:33Z</time>
      </trkpt>
      <trkpt lat="43.648294983431697" lon="6.917113959789276">
        <ele>291.42000000000002</ele>
        <time>2025-05-18T11:36:34Z</time>
      </trkpt>
      <trkpt lat="43.648375030606985" lon="6.917147990316153">
        <ele>291.89999999999998</ele>
        <time>2025-05-18T11:36:35Z</time>
      </trkpt>
      <trkpt lat="43.648454993963242" lon="6.917181015014648">
        <ele>292.38</ele>
        <time>2025-05-18T11:36:36Z</time>
      </trkpt>
      <trkpt lat="43.648534035310149" lon="6.917214039713144">
        <ele>292.86000000000001</ele>
        <time>2025-05-18T11:36:37Z</time>
      </trkpt>
      <trkpt lat="43.648986993357539" lon="6.917347982525826">
        <ele>296.22000000000003</ele>
        <time>2025-05-18T11:36:43Z</time>
      </trkpt>
      <trkpt lat="43.649061005562544" lon="6.91737798973918">
        <ele>296.69999999999999</ele>
        <time>2025-05-18T11:36:44Z</time>
      </trkpt>
      <trkpt lat="43.649135017767549" lon="6.917411014437676">
        <ele>296.69999999999999</ele>
        <time>2025-05-18T11:36:45Z</time>
      </trkpt>
      <trkpt lat="43.649498960003257" lon="6.917573036625981">
        <ele>297.18000000000001</ele>
        <time>2025-05-18T11:36:50Z</time>
      </trkpt>
      <trkpt lat="43.649583030492067" lon="6.917610000818968">
        <ele>297.67000000000002</ele>
        <time>2025-05-18T11:36:51Z</time>
      </trkpt>
      <trkpt lat="43.649634998291731" lon="6.917652999982238">
        <ele>297.67000000000002</ele>
        <time>2025-05-18T11:36:52Z</time>
      </trkpt>
      <trkpt lat="43.649702975526452" lon="6.917859027162194">
        <ele>298.63</ele>
        <time>2025-05-18T11:36:54Z</time>
      </trkpt>
      <trkpt lat="43.649789979681373" lon="6.917910994961858">
        <ele>298.63</ele>
        <time>2025-05-18T11:36:55Z</time>
      </trkpt>
      <trkpt lat="43.649841025471687" lon="6.917910994961858">
        <ele>299.11000000000001</ele>
        <time>2025-05-18T11:36:56Z</time>
      </trkpt>
      <trkpt lat="43.65008301101625" lon="6.917818039655685">
        <ele>299.58999999999997</ele>
        <time>2025-05-18T11:36:59Z</time>
      </trkpt>
      <trkpt lat="43.650145037099719" lon="6.917878976091743">
        <ele>300.06999999999999</ele>
        <time>2025-05-18T11:37:00Z</time>
      </trkpt>
      <trkpt lat="43.650204967707396" lon="6.917950976639986">
        <ele>300.55000000000001</ele>
        <time>2025-05-18T11:37:01Z</time>
      </trkpt>
      <trkpt lat="43.650264982134104" lon="6.918021971359849">
        <ele>301.50999999999999</ele>
        <time>2025-05-18T11:37:02Z</time>
      </trkpt>
      <trkpt lat="43.650333965197206" lon="6.918104030191898">
        <ele>301.99000000000001</ele>
        <time>2025-05-18T11:37:03Z</time>
      </trkpt>
      <trkpt lat="43.65074803121388" lon="6.918993014842272">
        <ele>305.36000000000001</ele>
        <time>2025-05-18T11:37:12Z</time>
      </trkpt>
      <trkpt lat="43.650802010670304" lon="6.919108014553785">
        <ele>305.83999999999997</ele>
        <time>2025-05-18T11:37:13Z</time>
      </trkpt>
      <trkpt lat="43.65085800178349" lon="6.919227037578821">
        <ele>305.83999999999997</ele>
        <time>2025-05-18T11:37:14Z</time>
      </trkpt>
      <trkpt lat="43.651091018691659" lon="6.919708997011185">
        <ele>307.75999999999999</ele>
        <time>2025-05-18T11:37:19Z</time>
      </trkpt>
      <trkpt lat="43.65113602951169" lon="6.919774040579796">
        <ele>308.24000000000001</ele>
        <time>2025-05-18T11:37:20Z</time>
      </trkpt>
      <trkpt lat="43.651180034503341" lon="6.919839000329375">
        <ele>308.72000000000003</ele>
        <time>2025-05-18T11:37:21Z</time>
      </trkpt>
      <trkpt lat="43.651219010353088" lon="6.919895997270942">
        <ele>309.68000000000001</ele>
        <time>2025-05-18T11:37:22Z</time>
      </trkpt>
      <trkpt lat="43.651248011738062" lon="6.919937990605831">
        <ele>310.16000000000003</ele>
        <time>2025-05-18T11:37:23Z</time>
      </trkpt>
      <trkpt lat="43.6512650270015" lon="6.919962968677282">
        <ele>310.63999999999999</ele>
        <time>2025-05-18T11:37:24Z</time>
      </trkpt>
      <trkpt lat="43.6512650270015" lon="6.919962968677282">
        <ele>311.12</ele>
        <time>2025-05-18T11:37:37Z</time>
      </trkpt>
      <trkpt lat="43.6512650270015" lon="6.919962968677282">
        <ele>312.56999999999999</ele>
        <time>2025-05-18T11:37:51Z</time>
      </trkpt>
      <trkpt lat="43.651301991194487" lon="6.920016026124358">
        <ele>312.56999999999999</ele>
        <time>2025-05-18T11:37:52Z</time>
      </trkpt>
      <trkpt lat="43.651342978700995" lon="6.920056007802486">
        <ele>313.05000000000001</ele>
        <time>2025-05-18T11:37:53Z</time>
      </trkpt>
      <trkpt lat="43.651708010584116" lon="6.920180981978774">
        <ele>312.08999999999997</ele>
        <time>2025-05-18T11:38:01Z</time>
      </trkpt>
      <trkpt lat="43.651708010584116" lon="6.920180981978774">
        <ele>313.52999999999997</ele>
        <time>2025-05-18T11:38:13Z</time>
      </trkpt>
      <trkpt lat="43.651757966727018" lon="6.920182993635535">
        <ele>313.52999999999997</ele>
        <time>2025-05-18T11:38:36Z</time>
      </trkpt>
      <trkpt lat="43.651810018345714" lon="6.920164972543716">
        <ele>314.00999999999999</ele>
        <time>2025-05-18T11:38:44Z</time>
      </trkpt>
      <trkpt lat="43.651810018345714" lon="6.920164972543716">
        <ele>314.00999999999999</ele>
        <time>2025-05-18T11:39:06Z</time>
      </trkpt>
      <trkpt lat="43.651890987530351" lon="6.920288018882275">
        <ele>303.43000000000001</ele>
        <time>2025-05-18T12:03:01Z</time>
      </trkpt>
      <trkpt lat="43.651881013065577" lon="6.920301010832191">
        <ele>301.50999999999999</ele>
        <time>2025-05-18T12:03:33Z</time>
      </trkpt>
      <trkpt lat="43.651876989752054" lon="6.920205038040876">
        <ele>301.50999999999999</ele>
        <time>2025-05-18T12:03:51Z</time>
      </trkpt>
      <trkpt lat="43.651873972266912" lon="6.920180981978774">
        <ele>302.47000000000003</ele>
        <time>2025-05-18T12:03:55Z</time>
      </trkpt>
      <trkpt lat="43.651843965053558" lon="6.920153992250562">
        <ele>301.99000000000001</ele>
        <time>2025-05-18T12:03:57Z</time>
      </trkpt>
      <trkpt lat="43.651808006688952" lon="6.920165978372097">
        <ele>302.47000000000003</ele>
        <time>2025-05-18T12:03:58Z</time>
      </trkpt>
      <trkpt lat="43.651761990040541" lon="6.920180981978774">
        <ele>302.47000000000003</ele>
        <time>2025-05-18T12:03:59Z</time>
      </trkpt>
      <trkpt lat="43.651701975613832" lon="6.920180981978774">
        <ele>302.47000000000003</ele>
        <time>2025-05-18T12:04:00Z</time>
      </trkpt>
      <trkpt lat="43.651642967015505" lon="6.920176036655903">
        <ele>302.47000000000003</ele>
        <time>2025-05-18T12:04:01Z</time>
      </trkpt>
      <trkpt lat="43.651581024751067" lon="6.920171007514">
        <ele>301.99000000000001</ele>
        <time>2025-05-18T12:04:02Z</time>
      </trkpt>
      <trkpt lat="43.65152201615274" lon="6.920165978372097">
        <ele>301.99000000000001</ele>
        <time>2025-05-18T12:04:03Z</time>
      </trkpt>
      <trkpt lat="43.651453033089638" lon="6.920136976987124">
        <ele>301.99000000000001</ele>
        <time>2025-05-18T12:04:04Z</time>
      </trkpt>
      <trkpt lat="43.651396036148071" lon="6.920099006965756">
        <ele>301.99000000000001</ele>
        <time>2025-05-18T12:04:05Z</time>
      </trkpt>
      <trkpt lat="43.65132998675108" lon="6.920044021680951">
        <ele>301.99000000000001</ele>
        <time>2025-05-18T12:04:06Z</time>
      </trkpt>
      <trkpt lat="43.651269972324371" lon="6.919969003647566">
        <ele>301.99000000000001</ele>
        <time>2025-05-18T12:04:07Z</time>
      </trkpt>
      <trkpt lat="43.651212975382805" lon="6.919887028634548">
        <ele>301.99000000000001</ele>
        <time>2025-05-18T12:04:08Z</time>
      </trkpt>
      <trkpt lat="43.651155978441238" lon="6.919804969802499">
        <ele>301.50999999999999</ele>
        <time>2025-05-18T12:04:09Z</time>
      </trkpt>
      <trkpt lat="43.651046007871628" lon="6.919631967321038">
        <ele>301.02999999999997</ele>
        <time>2025-05-18T12:04:11Z</time>
      </trkpt>
      <trkpt lat="43.651012983173132" lon="6.919559966772795">
        <ele>300.55000000000001</ele>
        <time>2025-05-18T12:04:12Z</time>
      </trkpt>
      <trkpt lat="43.650983981788158" lon="6.919499030336738">
        <ele>299.58999999999997</ele>
        <time>2025-05-18T12:04:13Z</time>
      </trkpt>
      <trkpt lat="43.65092103369534" lon="6.919363997876644">
        <ele>297.67000000000002</ele>
        <time>2025-05-18T12:04:15Z</time>
      </trkpt>
      <trkpt lat="43.65085699595511" lon="6.919226031750441">
        <ele>295.74000000000001</ele>
        <time>2025-05-18T12:04:17Z</time>
      </trkpt>
      <trkpt lat="43.650782983750105" lon="6.919067027047277">
        <ele>294.30000000000001</ele>
        <time>2025-05-18T12:04:19Z</time>
      </trkpt>
      <trkpt lat="43.650467991828918" lon="6.918391026556492">
        <ele>288.52999999999997</ele>
        <time>2025-05-18T12:04:25Z</time>
      </trkpt>
      <trkpt lat="43.650419041514397" lon="6.918286001309753">
        <ele>287.08999999999997</ele>
        <time>2025-05-18T12:04:26Z</time>
      </trkpt>
      <trkpt lat="43.650131039321423" lon="6.917862966656685">
        <ele>281.80000000000001</ele>
        <time>2025-05-18T12:04:32Z</time>
      </trkpt>
      <trkpt lat="43.650098014622927" lon="6.917824996635318">
        <ele>281.80000000000001</ele>
        <time>2025-05-18T12:04:33Z</time>
      </trkpt>
      <trkpt lat="43.650098014622927" lon="6.917824996635318">
        <ele>279.88</ele>
        <time>2025-05-18T12:04:42Z</time>
      </trkpt>
      <trkpt lat="43.650098014622927" lon="6.917824996635318">
        <ele>279.88</ele>
        <time>2025-05-18T12:04:54Z</time>
      </trkpt>
      <trkpt lat="43.650087034329772" lon="6.917819967493415">
        <ele>278.92000000000002</ele>
        <time>2025-05-18T12:04:55Z</time>
      </trkpt>
      <trkpt lat="43.649861980229616" lon="6.917781997472048">
        <ele>276.04000000000002</ele>
        <time>2025-05-18T12:05:00Z</time>
      </trkpt>
      <trkpt lat="43.6496970243752" lon="6.917805969715118">
        <ele>276.51999999999998</ele>
        <time>2025-05-18T12:05:01Z</time>
      </trkpt>
      <trkpt lat="43.649755027145147" lon="6.917910994961858">
        <ele>280.83999999999997</ele>
        <time>2025-05-18T12:05:03Z</time>
      </trkpt>
      <trkpt lat="43.649755027145147" lon="6.917910994961858">
        <ele>282.27999999999997</ele>
        <time>2025-05-18T12:05:04Z</time>
      </trkpt>
      <trkpt lat="43.649814035743475" lon="6.917910994961858">
        <ele>282.76999999999998</ele>
        <time>2025-05-18T12:05:05Z</time>
      </trkpt>
      <trkpt lat="43.649915037676692" lon="6.917781997472048">
        <ele>281.80000000000001</ele>
        <time>2025-05-18T12:05:07Z</time>
      </trkpt>
      <trkpt lat="43.649975974112749" lon="6.917781997472048">
        <ele>281.80000000000001</ele>
        <time>2025-05-18T12:05:08Z</time>
      </trkpt>
      <trkpt lat="43.65006297826767" lon="6.917809993028641">
        <ele>281.80000000000001</ele>
        <time>2025-05-18T12:05:09Z</time>
      </trkpt>
      <trkpt lat="43.650204967707396" lon="6.917949970811606">
        <ele>281.80000000000001</ele>
        <time>2025-05-18T12:05:10Z</time>
      </trkpt>
      <trkpt lat="43.650264982134104" lon="6.918020965531468">
        <ele>282.27999999999997</ele>
        <time>2025-05-18T12:05:12Z</time>
      </trkpt>
      <trkpt lat="43.650334971025586" lon="6.918104030191898">
        <ele>282.76999999999998</ele>
        <time>2025-05-18T12:05:13Z</time>
      </trkpt>
      <trkpt lat="43.650380987673998" lon="6.918205032125115">
        <ele>282.76999999999998</ele>
        <time>2025-05-18T12:05:14Z</time>
      </trkpt>
      <trkpt lat="43.65042801015079" lon="6.918304022401571">
        <ele>283.73000000000002</ele>
        <time>2025-05-18T12:05:15Z</time>
      </trkpt>
      <trkpt lat="43.650725986808538" lon="6.918944986537099">
        <ele>286.13</ele>
        <time>2025-05-18T12:05:20Z</time>
      </trkpt>
      <trkpt lat="43.650778038427234" lon="6.919055040925741">
        <ele>287.56999999999999</ele>
        <time>2025-05-18T12:05:21Z</time>
      </trkpt>
      <trkpt lat="43.651226973161101" lon="6.919906977564097">
        <ele>293.81999999999999</ele>
        <time>2025-05-18T12:05:29Z</time>
      </trkpt>
      <trkpt lat="43.651299979537725" lon="6.920014014467597">
        <ele>297.18000000000001</ele>
        <time>2025-05-18T12:05:31Z</time>
      </trkpt>
      <trkpt lat="43.651457978412509" lon="6.920139994472265">
        <ele>298.63</ele>
        <time>2025-05-18T12:05:32Z</time>
      </trkpt>
      <trkpt lat="43.651636010035872" lon="6.920175030827522">
        <ele>302.47000000000003</ele>
        <time>2025-05-18T12:05:34Z</time>
      </trkpt>
      <trkpt lat="43.651730976998806" lon="6.920182993635535">
        <ele>303.91000000000003</ele>
        <time>2025-05-18T12:05:35Z</time>
      </trkpt>
      <trkpt lat="43.651820998638868" lon="6.920162038877606">
        <ele>305.83999999999997</ele>
        <time>2025-05-18T12:05:37Z</time>
      </trkpt>
      <trkpt lat="43.652014033868909" lon="6.920081991702318">
        <ele>306.80000000000001</ele>
        <time>2025-05-18T12:05:38Z</time>
      </trkpt>
      <trkpt lat="43.652113024145365" lon="6.920037986710668">
        <ele>309.19999999999999</ele>
        <time>2025-05-18T12:05:40Z</time>
      </trkpt>
      <trkpt lat="43.652206985279918" lon="6.919996999204159">
        <ele>310.16000000000003</ele>
        <time>2025-05-18T12:05:41Z</time>
      </trkpt>
      <trkpt lat="43.652302036061883" lon="6.919950982555747">
        <ele>311.60000000000002</ele>
        <time>2025-05-18T12:05:42Z</time>
      </trkpt>
      <trkpt lat="43.652398008853197" lon="6.919897003099322">
        <ele>312.56999999999999</ele>
        <time>2025-05-18T12:05:43Z</time>
      </trkpt>
      <trkpt lat="43.652883991599083" lon="6.919633978977799">
        <ele>317.85000000000002</ele>
        <time>2025-05-18T12:05:48Z</time>
      </trkpt>
      <trkpt lat="43.653073003515601" lon="6.919534988701344">
        <ele>318.81</ele>
        <time>2025-05-18T12:05:50Z</time>
      </trkpt>
      <trkpt lat="43.653151039034128" lon="6.919471034780145">
        <ele>318.81</ele>
        <time>2025-05-18T12:05:51Z</time>
      </trkpt>
      <trkpt lat="43.653317000716925" lon="6.919304989278317">
        <ele>318.81</ele>
        <time>2025-05-18T12:05:52Z</time>
      </trkpt>
      <trkpt lat="43.653565021231771" lon="6.919087981805205">
        <ele>320.74000000000001</ele>
        <time>2025-05-18T12:05:55Z</time>
      </trkpt>
      <trkpt lat="43.653730982914567" lon="6.918994020670652">
        <ele>322.18000000000001</ele>
        <time>2025-05-18T12:05:57Z</time>
      </trkpt>
      <trkpt lat="43.65401697345078" lon="6.918893018737435">
        <ele>324.57999999999998</ele>
        <time>2025-05-18T12:06:01Z</time>
      </trkpt>
      <trkpt lat="43.654515026137233" lon="6.918724039569497">
        <ele>327.47000000000003</ele>
        <time>2025-05-18T12:06:08Z</time>
      </trkpt>
      <trkpt lat="43.654579985886812" lon="6.918704006820917">
        <ele>327.47000000000003</ele>
        <time>2025-05-18T12:06:09Z</time>
      </trkpt>
      <trkpt lat="43.654656009748578" lon="6.918685985729098">
        <ele>327.94999999999999</ele>
        <time>2025-05-18T12:06:10Z</time>
      </trkpt>
      <trkpt lat="43.654715018346906" lon="6.91870803013444">
        <ele>328.43000000000001</ele>
        <time>2025-05-18T12:06:11Z</time>
      </trkpt>
      <trkpt lat="43.654779978096485" lon="6.918733008205891">
        <ele>328.91000000000003</ele>
        <time>2025-05-18T12:06:12Z</time>
      </trkpt>
      <trkpt lat="43.654848039150238" lon="6.918767038732767">
        <ele>329.38999999999999</ele>
        <time>2025-05-18T12:06:14Z</time>
      </trkpt>
      <trkpt lat="43.655183985829353" lon="6.918991003185511">
        <ele>331.79000000000002</ele>
        <time>2025-05-18T12:06:18Z</time>
      </trkpt>
      <trkpt lat="43.655251041054726" lon="6.919036014005542">
        <ele>332.75</ele>
        <time>2025-05-18T12:06:19Z</time>
      </trkpt>
      <trkpt lat="43.655422031879425" lon="6.919149002060294">
        <ele>334.68000000000001</ele>
        <time>2025-05-18T12:06:22Z</time>
      </trkpt>
      <trkpt lat="43.655481962487102" lon="6.919189989566803">
        <ele>336.12</ele>
        <time>2025-05-18T12:06:23Z</time>
      </trkpt>
      <trkpt lat="43.655749009922147" lon="6.919370032846928">
        <ele>339</ele>
        <time>2025-05-18T12:06:27Z</time>
      </trkpt>
      <trkpt lat="43.65579703822732" lon="6.919401967898011">
        <ele>339.48000000000002</ele>
        <time>2025-05-18T12:06:28Z</time>
      </trkpt>
      <trkpt lat="43.655913965776563" lon="6.919482015073299">
        <ele>340.92000000000002</ele>
        <time>2025-05-18T12:06:31Z</time>
      </trkpt>
      <trkpt lat="43.656602958217263" lon="6.919957017526031">
        <ele>343.81</ele>
        <time>2025-05-18T12:06:41Z</time>
      </trkpt>
      <trkpt lat="43.656646041199565" lon="6.919983001425862">
        <ele>344.29000000000002</ele>
        <time>2025-05-18T12:06:42Z</time>
      </trkpt>
      <trkpt lat="43.656697003170848" lon="6.920007979497314">
        <ele>344.29000000000002</ele>
        <time>2025-05-18T12:06:43Z</time>
      </trkpt>
      <trkpt lat="43.65674301981926" lon="6.920031029731035">
        <ele>344.76999999999998</ele>
        <time>2025-05-18T12:06:44Z</time>
      </trkpt>
      <trkpt lat="43.656749976798892" lon="6.920034969225526">
        <ele>345.25</ele>
        <time>2025-05-18T12:06:45Z</time>
      </trkpt>
      <trkpt lat="43.656858019530773" lon="6.920142006129026">
        <ele>345.25</ele>
        <time>2025-05-18T12:06:46Z</time>
      </trkpt>
      <trkpt lat="43.656863970682025" lon="6.920153992250562">
        <ele>344.76999999999998</ele>
        <time>2025-05-18T12:06:48Z</time>
      </trkpt>
      <trkpt lat="43.657089024782181" lon="6.920538973063231">
        <ele>341.41000000000003</ele>
        <time>2025-05-18T12:06:54Z</time>
      </trkpt>
      <trkpt lat="43.657122971490026" lon="6.920596975833178">
        <ele>340.92000000000002</ele>
        <time>2025-05-18T12:06:55Z</time>
      </trkpt>
      <trkpt lat="43.657158007845283" lon="6.920656990259886">
        <ele>340.44</ele>
        <time>2025-05-18T12:06:56Z</time>
      </trkpt>
      <trkpt lat="43.657261021435261" lon="6.920895958319306">
        <ele>339.95999999999998</ele>
        <time>2025-05-18T12:06:59Z</time>
      </trkpt>
      <trkpt lat="43.657285999506712" lon="6.920956978574395">
        <ele>339.48000000000002</ele>
        <time>2025-05-18T12:07:00Z</time>
      </trkpt>
      <trkpt lat="43.657287005335093" lon="6.920957984402776">
        <ele>339.48000000000002</ele>
        <time>2025-05-18T12:07:01Z</time>
      </trkpt>
      <trkpt lat="43.65734601393342" lon="6.921144984662533">
        <ele>339</ele>
        <time>2025-05-18T12:07:02Z</time>
      </trkpt>
      <trkpt lat="43.657414996996522" lon="6.921108020469546">
        <ele>338.51999999999998</ele>
        <time>2025-05-18T12:07:04Z</time>
      </trkpt>
      <trkpt lat="43.657460007816553" lon="6.921108020469546">
        <ele>338.51999999999998</ele>
        <time>2025-05-18T12:07:05Z</time>
      </trkpt>
      <trkpt lat="43.657512981444597" lon="6.921108020469546">
        <ele>338.51999999999998</ele>
        <time>2025-05-18T12:07:06Z</time>
      </trkpt>
      <trkpt lat="43.65760400891304" lon="6.921170968562365">
        <ele>338.51999999999998</ele>
        <time>2025-05-18T12:07:07Z</time>
      </trkpt>
      <trkpt lat="43.657696964219213" lon="6.921269958838821">
        <ele>339</ele>
        <time>2025-05-18T12:07:09Z</time>
      </trkpt>
      <trkpt lat="43.657747004181147" lon="6.921323016285896">
        <ele>339</ele>
        <time>2025-05-18T12:07:10Z</time>
      </trkpt>
      <trkpt lat="43.657831996679306" lon="6.921413037925959">
        <ele>339.48000000000002</ele>
        <time>2025-05-18T12:07:12Z</time>
      </trkpt>
      <trkpt lat="43.657866027206182" lon="6.921450002118945">
        <ele>339.48000000000002</ele>
        <time>2025-05-18T12:07:13Z</time>
      </trkpt>
      <trkpt lat="43.658002987504005" lon="6.921587968245149">
        <ele>339</ele>
        <time>2025-05-18T12:07:16Z</time>
      </trkpt>
      <trkpt lat="43.658055039122701" lon="6.921637002378702">
        <ele>338.51999999999998</ele>
        <time>2025-05-18T12:07:17Z</time>
      </trkpt>
      <trkpt lat="43.658320996910334" lon="6.921863984316587">
        <ele>337.56</ele>
        <time>2025-05-18T12:07:22Z</time>
      </trkpt>
      <trkpt lat="43.658361984416842" lon="6.921899020671845">
        <ele>337.56</ele>
        <time>2025-05-18T12:07:23Z</time>
      </trkpt>
      <trkpt lat="43.658410012722015" lon="6.921940008178353">
        <ele>337.07999999999998</ele>
        <time>2025-05-18T12:07:24Z</time>
      </trkpt>
      <trkpt lat="43.658458963036537" lon="6.921982001513243">
        <ele>337.07999999999998</ele>
        <time>2025-05-18T12:07:25Z</time>
      </trkpt>
      <trkpt lat="43.658501962199807" lon="6.922017959877849">
        <ele>337.07999999999998</ele>
        <time>2025-05-18T12:07:26Z</time>
      </trkpt>
      <trkpt lat="43.658543033525348" lon="6.922052996233106">
        <ele>337.07999999999998</ele>
        <time>2025-05-18T12:07:28Z</time>
      </trkpt>
      <trkpt lat="43.658661972731352" lon="6.922142012044787">
        <ele>337.07999999999998</ele>
        <time>2025-05-18T12:07:36Z</time>
      </trkpt>
      <trkpt lat="43.658661972731352" lon="6.922142012044787">
        <ele>337.07999999999998</ele>
        <time>2025-05-18T12:07:55Z</time>
      </trkpt>
      <trkpt lat="43.658694997429848" lon="6.922167995944619">
        <ele>383.69999999999999</ele>
        <time>2025-05-18T13:11:10Z</time>
      </trkpt>
      <trkpt lat="43.658655015751719" lon="6.922137988731265">
        <ele>380.33999999999997</ele>
        <time>2025-05-18T13:11:31Z</time>
      </trkpt>
      <trkpt lat="43.658595001325011" lon="6.922065988183022">
        <ele>372.64999999999998</ele>
        <time>2025-05-18T13:12:01Z</time>
      </trkpt>
      <trkpt lat="43.658657027408481" lon="6.92214896902442">
        <ele>370.24000000000001</ele>
        <time>2025-05-18T13:12:40Z</time>
      </trkpt>
      <trkpt lat="43.658640012145042" lon="6.922152992337942">
        <ele>368.80000000000001</ele>
        <time>2025-05-18T13:13:30Z</time>
      </trkpt>
      <trkpt lat="43.658641017973423" lon="6.922156009823084">
        <ele>368.80000000000001</ele>
        <time>2025-05-18T13:14:16Z</time>
      </trkpt>
      <trkpt lat="43.658645041286945" lon="6.922160033136606">
        <ele>368.80000000000001</ele>
        <time>2025-05-18T13:15:05Z</time>
      </trkpt>
      <trkpt lat="43.658645963296294" lon="6.922156009823084">
        <ele>368.31999999999999</ele>
        <time>2025-05-18T13:15:50Z</time>
      </trkpt>
      <trkpt lat="43.658702960237861" lon="6.9221499748528">
        <ele>368.31999999999999</ele>
        <time>2025-05-18T13:16:27Z</time>
      </trkpt>
      <trkpt lat="43.658720981329679" lon="6.922150980681181">
        <ele>368.31999999999999</ele>
        <time>2025-05-18T13:16:28Z</time>
      </trkpt>
      <trkpt lat="43.658786024898291" lon="6.922121979296207">
        <ele>366.39999999999998</ele>
        <time>2025-05-18T13:16:44Z</time>
      </trkpt>
      <trkpt lat="43.658786024898291" lon="6.922121979296207">
        <ele>366.39999999999998</ele>
        <time>2025-05-18T13:16:59Z</time>
      </trkpt>
      <trkpt lat="43.658811002969742" lon="6.922209989279509">
        <ele>365.92000000000002</ele>
        <time>2025-05-18T13:17:01Z</time>
      </trkpt>
      <trkpt lat="43.658915022388101" lon="6.922231027856469">
        <ele>363.51999999999998</ele>
        <time>2025-05-18T13:17:03Z</time>
      </trkpt>
      <trkpt lat="43.659560009837151" lon="6.922325994819403">
        <ele>357.75</ele>
        <time>2025-05-18T13:17:13Z</time>
      </trkpt>
      <trkpt lat="43.659631004557014" lon="6.922332029789686">
        <ele>356.79000000000002</ele>
        <time>2025-05-18T13:17:14Z</time>
      </trkpt>
      <trkpt lat="43.659698981791735" lon="6.922347033396363">
        <ele>356.31</ele>
        <time>2025-05-18T13:17:15Z</time>
      </trkpt>
      <trkpt lat="43.659778023138642" lon="6.92236497066915">
        <ele>355.33999999999997</ele>
        <time>2025-05-18T13:17:16Z</time>
      </trkpt>
      <trkpt lat="43.659853963181376" lon="6.922379974275827">
        <ele>354.86000000000001</ele>
        <time>2025-05-18T13:17:17Z</time>
      </trkpt>
      <trkpt lat="43.659920012578368" lon="6.922392966225743">
        <ele>354.38</ele>
        <time>2025-05-18T13:17:18Z</time>
      </trkpt>
      <trkpt lat="43.659973992034793" lon="6.922403024509549">
        <ele>353.42000000000002</ele>
        <time>2025-05-18T13:17:19Z</time>
      </trkpt>
      <trkpt lat="43.660025959834456" lon="6.922412998974323">
        <ele>352.94</ele>
        <time>2025-05-18T13:17:20Z</time>
      </trkpt>
      <trkpt lat="43.660081028938293" lon="6.922422973439097">
        <ele>352.45999999999998</ele>
        <time>2025-05-18T13:17:21Z</time>
      </trkpt>
      <trkpt lat="43.660150012001395" lon="6.922435965389013">
        <ele>351.5</ele>
        <time>2025-05-18T13:17:22Z</time>
      </trkpt>
      <trkpt lat="43.660161998122931" lon="6.922437977045775">
        <ele>351.5</ele>
        <time>2025-05-18T13:17:23Z</time>
      </trkpt>
      <trkpt lat="43.660254031419754" lon="6.922453986480832">
        <ele>351.01999999999998</ele>
        <time>2025-05-18T13:17:24Z</time>
      </trkpt>
      <trkpt lat="43.660308010876179" lon="6.922446023672819">
        <ele>351.01999999999998</ele>
        <time>2025-05-18T13:17:25Z</time>
      </trkpt>
      <trkpt lat="43.660364001989365" lon="6.922458009794354">
        <ele>351.01999999999998</ele>
        <time>2025-05-18T13:17:26Z</time>
      </trkpt>
      <trkpt lat="43.660425022244453" lon="6.92247100174427">
        <ele>351.01999999999998</ele>
        <time>2025-05-18T13:17:27Z</time>
      </trkpt>
      <trkpt lat="43.660492999479175" lon="6.922484999522567">
        <ele>351.01999999999998</ele>
        <time>2025-05-18T13:17:28Z</time>
      </trkpt>
      <trkpt lat="43.660567011684179" lon="6.922501008957624">
        <ele>351.98000000000002</ele>
        <time>2025-05-18T13:17:30Z</time>
      </trkpt>
      <trkpt lat="43.660715958103538" lon="6.92251400090754">
        <ele>351.98000000000002</ele>
        <time>2025-05-18T13:17:31Z</time>
      </trkpt>
      <trkpt lat="43.660775972530246" lon="6.922503020614386">
        <ele>351.98000000000002</ele>
        <time>2025-05-18T13:17:32Z</time>
      </trkpt>
      <trkpt lat="43.660822995007038" lon="6.922549959272146">
        <ele>352.45999999999998</ele>
        <time>2025-05-18T13:17:33Z</time>
      </trkpt>
      <trkpt lat="43.66084897890687" lon="6.922621037811041">
        <ele>352.45999999999998</ele>
        <time>2025-05-18T13:17:34Z</time>
      </trkpt>
      <trkpt lat="43.660878986120224" lon="6.92270502448082">
        <ele>352.94</ele>
        <time>2025-05-18T13:17:35Z</time>
      </trkpt>
      <trkpt lat="43.660970013588667" lon="6.922851959243417">
        <ele>352.45999999999998</ele>
        <time>2025-05-18T13:17:37Z</time>
      </trkpt>
      <trkpt lat="43.661023993045092" lon="6.922897975891829">
        <ele>352.45999999999998</ele>
        <time>2025-05-18T13:17:38Z</time>
      </trkpt>
      <trkpt lat="43.661062968894839" lon="6.922932006418705">
        <ele>352.45999999999998</ele>
        <time>2025-05-18T13:17:40Z</time>
      </trkpt>
      <trkpt lat="43.66115097887814" lon="6.922932006418705">
        <ele>352.45999999999998</ele>
        <time>2025-05-18T13:17:41Z</time>
      </trkpt>
      <trkpt lat="43.661202024668455" lon="6.922932006418705">
        <ele>352.45999999999998</ele>
        <time>2025-05-18T13:17:42Z</time>
      </trkpt>
      <trkpt lat="43.661374021321535" lon="6.923015993088484">
        <ele>351.01999999999998</ele>
        <time>2025-05-18T13:17:45Z</time>
      </trkpt>
      <trkpt lat="43.661435041576624" lon="6.923069972544909">
        <ele>350.06</ele>
        <time>2025-05-18T13:17:46Z</time>
      </trkpt>
      <trkpt lat="43.661498995497823" lon="6.923126969486475">
        <ele>349.57999999999998</ele>
        <time>2025-05-18T13:17:47Z</time>
      </trkpt>
      <trkpt lat="43.661949019879103" lon="6.923584034666419">
        <ele>345.25</ele>
        <time>2025-05-18T13:17:53Z</time>
      </trkpt>
      <trkpt lat="43.662010040134192" lon="6.923670032992959">
        <ele>344.76999999999998</ele>
        <time>2025-05-18T13:17:54Z</time>
      </trkpt>
      <trkpt lat="43.662065025418997" lon="6.923763994127512">
        <ele>343.81</ele>
        <time>2025-05-18T13:17:55Z</time>
      </trkpt>
      <trkpt lat="43.662415975704789" lon="6.924628000706434">
        <ele>336.12</ele>
        <time>2025-05-18T13:18:03Z</time>
      </trkpt>
      <trkpt lat="43.662620997056365" lon="6.924922959879041">
        <ele>333.23000000000002</ele>
        <time>2025-05-18T13:18:06Z</time>
      </trkpt>
      <trkpt lat="43.663005977869034" lon="6.925321016460657">
        <ele>327.47000000000003</ele>
        <time>2025-05-18T13:18:11Z</time>
      </trkpt>
      <trkpt lat="43.6630820017308" lon="6.925399973988533">
        <ele>326.5</ele>
        <time>2025-05-18T13:18:12Z</time>
      </trkpt>
      <trkpt lat="43.663131035864353" lon="6.925492007285357">
        <ele>325.54000000000002</ele>
        <time>2025-05-18T13:18:13Z</time>
      </trkpt>
      <trkpt lat="43.66314796730876" lon="6.925609018653631">
        <ele>324.57999999999998</ele>
        <time>2025-05-18T13:18:14Z</time>
      </trkpt>
      <trkpt lat="43.663164982572198" lon="6.925719995051622">
        <ele>323.62</ele>
        <time>2025-05-18T13:18:15Z</time>
      </trkpt>
      <trkpt lat="43.663183003664017" lon="6.925838012248278">
        <ele>323.13999999999999</ele>
        <time>2025-05-18T13:18:16Z</time>
      </trkpt>
      <trkpt lat="43.663160037249327" lon="6.925954017788172">
        <ele>322.66000000000003</ele>
        <time>2025-05-18T13:18:17Z</time>
      </trkpt>
      <trkpt lat="43.663119971752167" lon="6.926074968650937">
        <ele>322.18000000000001</ele>
        <time>2025-05-18T13:18:18Z</time>
      </trkpt>
      <trkpt lat="43.663079990074039" lon="6.926194997504354">
        <ele>321.69999999999999</ele>
        <time>2025-05-18T13:18:19Z</time>
      </trkpt>
      <trkpt lat="43.663045959547162" lon="6.926314020529389">
        <ele>321.69999999999999</ele>
        <time>2025-05-18T13:18:20Z</time>
      </trkpt>
      <trkpt lat="43.66301603615284" lon="6.926451986655593">
        <ele>321.22000000000003</ele>
        <time>2025-05-18T13:18:21Z</time>
      </trkpt>
      <trkpt lat="43.66301997564733" lon="6.926576960831881">
        <ele>320.25999999999999</ele>
        <time>2025-05-18T13:18:22Z</time>
      </trkpt>
      <trkpt lat="43.663033973425627" lon="6.926962025463581">
        <ele>317.37</ele>
        <time>2025-05-18T13:18:26Z</time>
      </trkpt>
      <trkpt lat="43.663035985082388" lon="6.927027991041541">
        <ele>316.41000000000003</ele>
        <time>2025-05-18T13:18:27Z</time>
      </trkpt>
      <trkpt lat="43.66301997564733" lon="6.927060009911656">
        <ele>315.44999999999999</ele>
        <time>2025-05-18T13:18:28Z</time>
      </trkpt>
      <trkpt lat="43.662990974262357" lon="6.927075013518333">
        <ele>314.00999999999999</ele>
        <time>2025-05-18T13:18:29Z</time>
      </trkpt>
      <trkpt lat="43.662935988977551" lon="6.927064033225179">
        <ele>313.05000000000001</ele>
        <time>2025-05-18T13:18:30Z</time>
      </trkpt>
      <trkpt lat="43.662916040048003" lon="6.927023967728019">
        <ele>312.08999999999997</ele>
        <time>2025-05-18T13:18:31Z</time>
      </trkpt>
      <trkpt lat="43.662915034219623" lon="6.926923971623182">
        <ele>310.63999999999999</ele>
        <time>2025-05-18T13:18:32Z</time>
      </trkpt>
      <trkpt lat="43.662920985370874" lon="6.926847025752068">
        <ele>309.68000000000001</ele>
        <time>2025-05-18T13:18:33Z</time>
      </trkpt>
      <trkpt lat="43.662927020341158" lon="6.926763039082289">
        <ele>308.72000000000003</ele>
        <time>2025-05-18T13:18:34Z</time>
      </trkpt>
      <trkpt lat="43.662945963442326" lon="6.926496997475624">
        <ele>306.31999999999999</ele>
        <time>2025-05-18T13:18:37Z</time>
      </trkpt>
      <trkpt lat="43.662961972877383" lon="6.926285019144416">
        <ele>304.38999999999999</ele>
        <time>2025-05-18T13:18:39Z</time>
      </trkpt>
      <trkpt lat="43.662970019504428" lon="6.926178988069296">
        <ele>303.91000000000003</ele>
        <time>2025-05-18T13:18:40Z</time>
      </trkpt>
      <trkpt lat="43.66297697648406" lon="6.925745978951454">
        <ele>301.99000000000001</ele>
        <time>2025-05-18T13:18:44Z</time>
      </trkpt>
      <trkpt lat="43.662951998412609" lon="6.925593009218574">
        <ele>301.50999999999999</ele>
        <time>2025-05-18T13:18:45Z</time>
      </trkpt>
      <trkpt lat="43.662926014512777" lon="6.925570964813232">
        <ele>300.55000000000001</ele>
        <time>2025-05-18T13:18:46Z</time>
      </trkpt>
      <trkpt lat="43.662862982600927" lon="6.925516985356808">
        <ele>300.06999999999999</ele>
        <time>2025-05-18T13:18:47Z</time>
      </trkpt>
      <trkpt lat="43.662767009809613" lon="6.925462000072002">
        <ele>299.58999999999997</ele>
        <time>2025-05-18T13:18:48Z</time>
      </trkpt>
      <trkpt lat="43.662681011483073" lon="6.925458982586861">
        <ele>299.58999999999997</ele>
        <time>2025-05-18T13:18:49Z</time>
      </trkpt>
      <trkpt lat="43.662590989843011" lon="6.925454959273338">
        <ele>299.11000000000001</ele>
        <time>2025-05-18T13:18:50Z</time>
      </trkpt>
      <trkpt lat="43.66243802011013" lon="6.925449008122087">
        <ele>297.18000000000001</ele>
        <time>2025-05-18T13:18:52Z</time>
      </trkpt>
      <trkpt lat="43.662360990419984" lon="6.925444984808564">
        <ele>296.22000000000003</ele>
        <time>2025-05-18T13:18:53Z</time>
      </trkpt>
      <trkpt lat="43.662283960729837" lon="6.925440961495042">
        <ele>295.74000000000001</ele>
        <time>2025-05-18T13:18:54Z</time>
      </trkpt>
      <trkpt lat="43.662211038172245" lon="6.925386982038617">
        <ele>295.25999999999999</ele>
        <time>2025-05-18T13:18:55Z</time>
      </trkpt>
      <trkpt lat="43.662139037624002" lon="6.925333002582192">
        <ele>294.77999999999997</ele>
        <time>2025-05-18T13:18:56Z</time>
      </trkpt>
      <trkpt lat="43.662066031247377" lon="6.925280028954148">
        <ele>294.77999999999997</ele>
        <time>2025-05-18T13:18:57Z</time>
      </trkpt>
      <trkpt lat="43.66175296716392" lon="6.924977023154497">
        <ele>296.22000000000003</ele>
        <time>2025-05-18T13:19:02Z</time>
      </trkpt>
      <trkpt lat="43.661716002970934" lon="6.924884989857674">
        <ele>296.69999999999999</ele>
        <time>2025-05-18T13:19:03Z</time>
      </trkpt>
      <trkpt lat="43.661678032949567" lon="6.924792034551501">
        <ele>297.18000000000001</ele>
        <time>2025-05-18T13:19:04Z</time>
      </trkpt>
      <trkpt lat="43.661641990765929" lon="6.924701007083058">
        <ele>297.67000000000002</ele>
        <time>2025-05-18T13:19:05Z</time>
      </trkpt>
      <trkpt lat="43.661606032401323" lon="6.924629006534815">
        <ele>298.63</ele>
        <time>2025-05-18T13:19:06Z</time>
      </trkpt>
      <trkpt lat="43.661552974954247" lon="6.924563962966204">
        <ele>299.58999999999997</ele>
        <time>2025-05-18T13:19:07Z</time>
      </trkpt>
      <trkpt lat="43.661497989669442" lon="6.924540996551514">
        <ele>301.02999999999997</ele>
        <time>2025-05-18T13:19:08Z</time>
      </trkpt>
      <trkpt lat="43.66144903935492" lon="6.924540996551514">
        <ele>301.99000000000001</ele>
        <time>2025-05-18T13:19:09Z</time>
      </trkpt>
      <trkpt lat="43.661351976916194" lon="6.924637975171208">
        <ele>303.91000000000003</ele>
        <time>2025-05-18T13:19:11Z</time>
      </trkpt>
      <trkpt lat="43.66129900328815" lon="6.924691032618284">
        <ele>304.38999999999999</ele>
        <time>2025-05-18T13:19:12Z</time>
      </trkpt>
      <trkpt lat="43.661262961104512" lon="6.924759009853005">
        <ele>305.36000000000001</ele>
        <time>2025-05-18T13:19:13Z</time>
      </trkpt>
      <trkpt lat="43.661032039672136" lon="6.925150025635958">
        <ele>306.31999999999999</ele>
        <time>2025-05-18T13:19:18Z</time>
      </trkpt>
      <trkpt lat="43.660986023023725" lon="6.925223032012582">
        <ele>306.31999999999999</ele>
        <time>2025-05-18T13:19:19Z</time>
      </trkpt>
      <trkpt lat="43.660940006375313" lon="6.925293020904064">
        <ele>305.83999999999997</ele>
        <time>2025-05-18T13:19:20Z</time>
      </trkpt>
      <trkpt lat="43.660856019705534" lon="6.925352029502392">
        <ele>305.36000000000001</ele>
        <time>2025-05-18T13:19:21Z</time>
      </trkpt>
      <trkpt lat="43.660787036642432" lon="6.92537197843194">
        <ele>304.88</ele>
        <time>2025-05-18T13:19:22Z</time>
      </trkpt>
      <trkpt lat="43.660713024437428" lon="6.925394022837281">
        <ele>304.88</ele>
        <time>2025-05-18T13:19:23Z</time>
      </trkpt>
      <trkpt lat="43.660279009491205" lon="6.925506005063653">
        <ele>302.94999999999999</ele>
        <time>2025-05-18T13:19:29Z</time>
      </trkpt>
      <trkpt lat="43.660025959834456" lon="6.925616981461644">
        <ele>301.99000000000001</ele>
        <time>2025-05-18T13:19:33Z</time>
      </trkpt>
      <trkpt lat="43.65988296456635" lon="6.925721000880003">
        <ele>301.50999999999999</ele>
        <time>2025-05-18T13:19:34Z</time>
      </trkpt>
      <trkpt lat="43.65988296456635" lon="6.925721000880003">
        <ele>301.50999999999999</ele>
        <time>2025-05-18T13:19:35Z</time>
      </trkpt>
      <trkpt lat="43.659714991226792" lon="6.925856033340097">
        <ele>301.50999999999999</ele>
        <time>2025-05-18T13:19:38Z</time>
      </trkpt>
      <trkpt lat="43.65964500233531" lon="6.925911018624902">
        <ele>301.02999999999997</ele>
        <time>2025-05-18T13:19:39Z</time>
      </trkpt>
      <trkpt lat="43.659561015665531" lon="6.925978995859623">
        <ele>301.02999999999997</ele>
        <time>2025-05-18T13:19:40Z</time>
      </trkpt>
      <trkpt lat="43.659561015665531" lon="6.925978995859623">
        <ele>300.55000000000001</ele>
        <time>2025-05-18T13:19:41Z</time>
      </trkpt>
      <trkpt lat="43.659403016790748" lon="6.926000034436584">
        <ele>300.55000000000001</ele>
        <time>2025-05-18T13:19:42Z</time>
      </trkpt>
      <trkpt lat="43.659330010414124" lon="6.926010008901358">
        <ele>300.06999999999999</ele>
        <time>2025-05-18T13:19:43Z</time>
      </trkpt>
      <trkpt lat="43.659035973250866" lon="6.926028029993177">
        <ele>298.63</ele>
        <time>2025-05-18T13:19:47Z</time>
      </trkpt>
      <trkpt lat="43.658953998237848" lon="6.926003973931074">
        <ele>298.14999999999998</ele>
        <time>2025-05-18T13:19:48Z</time>
      </trkpt>
      <trkpt lat="43.658846961334348" lon="6.925937002524734">
        <ele>297.67000000000002</ele>
        <time>2025-05-18T13:19:50Z</time>
      </trkpt>
      <trkpt lat="43.658802034333348" lon="6.925912024453282">
        <ele>297.18000000000001</ele>
        <time>2025-05-18T13:19:51Z</time>
      </trkpt>
      <trkpt lat="43.658748976886272" lon="6.925892997533083">
        <ele>296.69999999999999</ele>
        <time>2025-05-18T13:19:52Z</time>
      </trkpt>
      <trkpt lat="43.658689968287945" lon="6.925871958956122">
        <ele>296.69999999999999</ele>
        <time>2025-05-18T13:19:53Z</time>
      </trkpt>
      <trkpt lat="43.658629031851888" lon="6.925851004198194">
        <ele>296.69999999999999</ele>
        <time>2025-05-18T13:19:54Z</time>
      </trkpt>
      <trkpt lat="43.658487964421511" lon="6.92580096423626">
        <ele>296.22000000000003</ele>
        <time>2025-05-18T13:19:56Z</time>
      </trkpt>
      <trkpt lat="43.658418981358409" lon="6.925776991993189">
        <ele>296.22000000000003</ele>
        <time>2025-05-18T13:19:57Z</time>
      </trkpt>
      <trkpt lat="43.658284032717347" lon="6.925728963688016">
        <ele>296.22000000000003</ele>
        <time>2025-05-18T13:19:59Z</time>
      </trkpt>
      <trkpt lat="43.658158974722028" lon="6.925684958696365">
        <ele>296.22000000000003</ele>
        <time>2025-05-18T13:20:01Z</time>
      </trkpt>
      <trkpt lat="43.658025031909347" lon="6.925639025866985">
        <ele>296.69999999999999</ele>
        <time>2025-05-18T13:20:03Z</time>
      </trkpt>
      <trkpt lat="43.657611971721053" lon="6.925452025607228">
        <ele>297.18000000000001</ele>
        <time>2025-05-18T13:20:09Z</time>
      </trkpt>
      <trkpt lat="43.657546006143093" lon="6.925396034494042">
        <ele>297.18000000000001</ele>
        <time>2025-05-18T13:20:10Z</time>
      </trkpt>
      <trkpt lat="43.657490015029907" lon="6.92532503977418">
        <ele>297.67000000000002</ele>
        <time>2025-05-18T13:20:11Z</time>
      </trkpt>
      <trkpt lat="43.657378032803535" lon="6.925182966515422">
        <ele>298.14999999999998</ele>
        <time>2025-05-18T13:20:13Z</time>
      </trkpt>
      <trkpt lat="43.657326987013221" lon="6.925109038129449">
        <ele>298.14999999999998</ele>
        <time>2025-05-18T13:20:14Z</time>
      </trkpt>
      <trkpt lat="43.657304020598531" lon="6.925020022317767">
        <ele>298.14999999999998</ele>
        <time>2025-05-18T13:20:15Z</time>
      </trkpt>
      <trkpt lat="43.657287005335093" lon="6.924917008727789">
        <ele>298.63</ele>
        <time>2025-05-18T13:20:16Z</time>
      </trkpt>
      <trkpt lat="43.657287005335093" lon="6.924821035936475">
        <ele>298.63</ele>
        <time>2025-05-18T13:20:17Z</time>
      </trkpt>
      <trkpt lat="43.657287005335093" lon="6.924734031781554">
        <ele>298.63</ele>
        <time>2025-05-18T13:20:18Z</time>
      </trkpt>
      <trkpt lat="43.657307960093021" lon="6.924619032070041">
        <ele>298.14999999999998</ele>
        <time>2025-05-18T13:20:19Z</time>
      </trkpt>
      <trkpt lat="43.65732598118484" lon="6.924524987116456">
        <ele>298.14999999999998</ele>
        <time>2025-05-18T13:20:20Z</time>
      </trkpt>
      <trkpt lat="43.657344002276659" lon="6.924428008496761">
        <ele>297.67000000000002</ele>
        <time>2025-05-18T13:20:21Z</time>
      </trkpt>
      <trkpt lat="43.657362023368478" lon="6.92433899268508">
        <ele>297.18000000000001</ele>
        <time>2025-05-18T13:20:22Z</time>
      </trkpt>
      <trkpt lat="43.657379960641265" lon="6.924257017672062">
        <ele>296.69999999999999</ele>
        <time>2025-05-18T13:20:23Z</time>
      </trkpt>
      <trkpt lat="43.657395970076323" lon="6.924179987981916">
        <ele>296.69999999999999</ele>
        <time>2025-05-18T13:20:24Z</time>
      </trkpt>
      <trkpt lat="43.657410973683" lon="6.924109999090433">
        <ele>296.22000000000003</ele>
        <time>2025-05-18T13:20:25Z</time>
      </trkpt>
      <trkpt lat="43.657480040565133" lon="6.924004973843694">
        <ele>296.22000000000003</ele>
        <time>2025-05-18T13:20:26Z</time>
      </trkpt>
      <trkpt lat="43.657472999766469" lon="6.92397303879261">
        <ele>295.74000000000001</ele>
        <time>2025-05-18T13:20:27Z</time>
      </trkpt>
      <trkpt lat="43.657350959256291" lon="6.923918975517154">
        <ele>295.74000000000001</ele>
        <time>2025-05-18T13:20:28Z</time>
      </trkpt>
      <trkpt lat="43.657349031418562" lon="6.923916963860393">
        <ele>295.25999999999999</ele>
        <time>2025-05-18T13:20:29Z</time>
      </trkpt>
      <trkpt lat="43.657301003113389" lon="6.923868013545871">
        <ele>294.77999999999997</ele>
        <time>2025-05-18T13:20:30Z</time>
      </trkpt>
      <trkpt lat="43.657248029485345" lon="6.923805987462401">
        <ele>294.77999999999997</ele>
        <time>2025-05-18T13:20:31Z</time>
      </trkpt>
      <trkpt lat="43.657192038372159" lon="6.923731975257397">
        <ele>294.30000000000001</ele>
        <time>2025-05-18T13:20:32Z</time>
      </trkpt>
      <trkpt lat="43.657143004238605" lon="6.92365100607276">
        <ele>293.81999999999999</ele>
        <time>2025-05-18T13:20:33Z</time>
      </trkpt>
      <trkpt lat="43.656802028417587" lon="6.923081958666444">
        <ele>292.38</ele>
        <time>2025-05-18T13:20:41Z</time>
      </trkpt>
      <trkpt lat="43.656802028417587" lon="6.923081958666444">
        <ele>292.38</ele>
        <time>2025-05-18T13:20:42Z</time>
      </trkpt>
      <trkpt lat="43.656685017049313" lon="6.922909962013364">
        <ele>291.89999999999998</ele>
        <time>2025-05-18T13:20:44Z</time>
      </trkpt>
      <trkpt lat="43.656639000400901" lon="6.922864029183984">
        <ele>291.89999999999998</ele>
        <time>2025-05-18T13:20:45Z</time>
      </trkpt>
      <trkpt lat="43.656589966267347" lon="6.922822035849094">
        <ele>291.89999999999998</ele>
        <time>2025-05-18T13:20:46Z</time>
      </trkpt>
      <trkpt lat="43.656536992639303" lon="6.922779958695173">
        <ele>292.38</ele>
        <time>2025-05-18T13:20:47Z</time>
      </trkpt>
      <trkpt lat="43.656478989869356" lon="6.922736037522554">
        <ele>292.86000000000001</ele>
        <time>2025-05-18T13:20:48Z</time>
      </trkpt>
      <trkpt lat="43.656416963785887" lon="6.92268599756062">
        <ele>292.86000000000001</ele>
        <time>2025-05-18T13:20:49Z</time>
      </trkpt>
      <trkpt lat="43.656347980722785" lon="6.922626988962293">
        <ele>293.33999999999997</ele>
        <time>2025-05-18T13:20:50Z</time>
      </trkpt>
      <trkpt lat="43.655889993533492" lon="6.922221975401044">
        <ele>293.33999999999997</ele>
        <time>2025-05-18T13:20:56Z</time>
      </trkpt>
      <trkpt lat="43.655737023800611" lon="6.92208300344646">
        <ele>292.86000000000001</ele>
        <time>2025-05-18T13:20:58Z</time>
      </trkpt>
      <trkpt lat="43.655288005247712" lon="6.921705985441804">
        <ele>293.33999999999997</ele>
        <time>2025-05-18T13:21:05Z</time>
      </trkpt>
      <trkpt lat="43.655222961679101" lon="6.921652005985379">
        <ele>293.81999999999999</ele>
        <time>2025-05-18T13:21:06Z</time>
      </trkpt>
      <trkpt lat="43.654665984213352" lon="6.921188989654183">
        <ele>292.86000000000001</ele>
        <time>2025-05-18T13:21:14Z</time>
      </trkpt>
      <trkpt lat="43.654599012807012" lon="6.921134004369378">
        <ele>292.38</ele>
        <time>2025-05-18T13:21:15Z</time>
      </trkpt>
      <trkpt lat="43.654132978990674" lon="6.920753968879581">
        <ele>288.05000000000001</ele>
        <time>2025-05-18T13:21:22Z</time>
      </trkpt>
      <trkpt lat="43.654058966785669" lon="6.920717004686594">
        <ele>287.56999999999999</ele>
        <time>2025-05-18T13:21:23Z</time>
      </trkpt>
      <trkpt lat="43.653988977894187" lon="6.920699989423156">
        <ele>287.08999999999997</ele>
        <time>2025-05-18T13:21:24Z</time>
      </trkpt>
      <trkpt lat="43.653901973739266" lon="6.920699989423156">
        <ele>286.61000000000001</ele>
        <time>2025-05-18T13:21:25Z</time>
      </trkpt>
      <trkpt lat="43.653829973191023" lon="6.920727984979749">
        <ele>286.61000000000001</ele>
        <time>2025-05-18T13:21:26Z</time>
      </trkpt>
      <trkpt lat="43.653769958764315" lon="6.920798979699612">
        <ele>286.13</ele>
        <time>2025-05-18T13:21:27Z</time>
      </trkpt>
      <trkpt lat="43.653708016499877" lon="6.920870980247855">
        <ele>286.13</ele>
        <time>2025-05-18T13:21:28Z</time>
      </trkpt>
      <trkpt lat="43.653190014883876" lon="6.921434998512268">
        <ele>285.17000000000002</ele>
        <time>2025-05-18T13:21:36Z</time>
      </trkpt>
      <trkpt lat="43.653117008507252" lon="6.921467017382383">
        <ele>285.17000000000002</ele>
        <time>2025-05-18T13:21:37Z</time>
      </trkpt>
      <trkpt lat="43.653038972988725" lon="6.921472968533635">
        <ele>285.17000000000002</ele>
        <time>2025-05-18T13:21:38Z</time>
      </trkpt>
      <trkpt lat="43.652963032945991" lon="6.921472968533635">
        <ele>285.17000000000002</ele>
        <time>2025-05-18T13:21:39Z</time>
      </trkpt>
      <trkpt lat="43.65287896245718" lon="6.921476991847158">
        <ele>285.64999999999998</ele>
        <time>2025-05-18T13:21:40Z</time>
      </trkpt>
      <trkpt lat="43.652798999100924" lon="6.921487972140312">
        <ele>285.64999999999998</ele>
        <time>2025-05-18T13:21:41Z</time>
      </trkpt>
      <trkpt lat="43.652718029916286" lon="6.921499958261848">
        <ele>286.61000000000001</ele>
        <time>2025-05-18T13:21:42Z</time>
      </trkpt>
      <trkpt lat="43.652635971084237" lon="6.921512028202415">
        <ele>287.08999999999997</ele>
        <time>2025-05-18T13:21:43Z</time>
      </trkpt>
      <trkpt lat="43.652559025213122" lon="6.921558966860175">
        <ele>287.56999999999999</ele>
        <time>2025-05-18T13:21:44Z</time>
      </trkpt>
      <trkpt lat="43.652490964159369" lon="6.921617975458503">
        <ele>288.05000000000001</ele>
        <time>2025-05-18T13:21:45Z</time>
      </trkpt>
      <trkpt lat="43.652359033003449" lon="6.921731969341636">
        <ele>289.00999999999999</ele>
        <time>2025-05-18T13:21:47Z</time>
      </trkpt>
      <trkpt lat="43.652293989434838" lon="6.921788966283202">
        <ele>289.97000000000003</ele>
        <time>2025-05-18T13:21:48Z</time>
      </trkpt>
      <trkpt lat="43.652040017768741" lon="6.922008991241455">
        <ele>291.89999999999998</ele>
        <time>2025-05-18T13:21:52Z</time>
      </trkpt>
      <trkpt lat="43.651828961446881" lon="6.922110999003053">
        <ele>292.86000000000001</ele>
        <time>2025-05-18T13:21:55Z</time>
      </trkpt>
      <trkpt lat="43.651682026684284" lon="6.922151986509562">
        <ele>292.86000000000001</ele>
        <time>2025-05-18T13:21:57Z</time>
      </trkpt>
      <trkpt lat="43.651616983115673" lon="6.92217000760138">
        <ele>292.86000000000001</ele>
        <time>2025-05-18T13:21:58Z</time>
      </trkpt>
      <trkpt lat="43.651211969554424" lon="6.922120973467827">
        <ele>292.38</ele>
        <time>2025-05-18T13:22:04Z</time>
      </trkpt>
      <trkpt lat="43.651147009804845" lon="6.922104964032769">
        <ele>292.86000000000001</ele>
        <time>2025-05-18T13:22:05Z</time>
      </trkpt>
      <trkpt lat="43.651066040620208" lon="6.922094989567995">
        <ele>293.33999999999997</ele>
        <time>2025-05-18T13:22:06Z</time>
      </trkpt>
      <trkpt lat="43.650996973738074" lon="6.922094989567995">
        <ele>293.33999999999997</ele>
        <time>2025-05-18T13:22:07Z</time>
      </trkpt>
      <trkpt lat="43.650935031473637" lon="6.922094989567995">
        <ele>293.81999999999999</ele>
        <time>2025-05-18T13:22:08Z</time>
      </trkpt>
      <trkpt lat="43.65085699595511" lon="6.922130025923252">
        <ele>293.81999999999999</ele>
        <time>2025-05-18T13:22:09Z</time>
      </trkpt>
      <trkpt lat="43.650795975700021" lon="6.922157015651465">
        <ele>294.30000000000001</ele>
        <time>2025-05-18T13:22:10Z</time>
      </trkpt>
      <trkpt lat="43.650709977373481" lon="6.922132037580013">
        <ele>294.77999999999997</ele>
        <time>2025-05-18T13:22:11Z</time>
      </trkpt>
      <trkpt lat="43.650655997917056" lon="6.922051990404725">
        <ele>295.25999999999999</ele>
        <time>2025-05-18T13:22:12Z</time>
      </trkpt>
      <trkpt lat="43.650604030117393" lon="6.922058025375009">
        <ele>295.25999999999999</ele>
        <time>2025-05-18T13:22:13Z</time>
      </trkpt>
      <trkpt lat="43.650542004033923" lon="6.922065988183022">
        <ele>295.74000000000001</ele>
        <time>2025-05-18T13:22:14Z</time>
      </trkpt>
      <trkpt lat="43.650485007092357" lon="6.922073028981686">
        <ele>295.74000000000001</ele>
        <time>2025-05-18T13:22:15Z</time>
      </trkpt>
      <trkpt lat="43.650424992665648" lon="6.922147963196039">
        <ele>295.74000000000001</ele>
        <time>2025-05-18T13:22:16Z</time>
      </trkpt>
      <trkpt lat="43.650399008765817" lon="6.922180987894535">
        <ele>295.74000000000001</ele>
        <time>2025-05-18T13:22:17Z</time>
      </trkpt>
      <trkpt lat="43.650399008765817" lon="6.922303028404713">
        <ele>295.25999999999999</ele>
        <time>2025-05-18T13:22:18Z</time>
      </trkpt>
      <trkpt lat="43.650249978527427" lon="6.922562029212713">
        <ele>294.30000000000001</ele>
        <time>2025-05-18T13:22:20Z</time>
      </trkpt>
      <trkpt lat="43.649519998580217" lon="6.923312963917851">
        <ele>288.52999999999997</ele>
        <time>2025-05-18T13:22:28Z</time>
      </trkpt>
      <trkpt lat="43.649090006947517" lon="6.923812022432685">
        <ele>282.76999999999998</ele>
        <time>2025-05-18T13:22:33Z</time>
      </trkpt>
      <trkpt lat="43.649050025269389" lon="6.923930961638689">
        <ele>281.31999999999999</ele>
        <time>2025-05-18T13:22:34Z</time>
      </trkpt>
      <trkpt lat="43.649006020277739" lon="6.924062976613641">
        <ele>280.36000000000001</ele>
        <time>2025-05-18T13:22:35Z</time>
      </trkpt>
      <trkpt lat="43.64875003695488" lon="6.925204005092382">
        <ele>274.11000000000001</ele>
        <time>2025-05-18T13:22:43Z</time>
      </trkpt>
      <trkpt lat="43.648690022528172" lon="6.925483038648963">
        <ele>272.67000000000002</ele>
        <time>2025-05-18T13:22:45Z</time>
      </trkpt>
      <trkpt lat="43.648659009486437" lon="6.92562703974545">
        <ele>272.19</ele>
        <time>2025-05-18T13:22:46Z</time>
      </trkpt>
      <trkpt lat="43.648586003109813" lon="6.92595100030303">
        <ele>271.23000000000002</ele>
        <time>2025-05-18T13:22:48Z</time>
      </trkpt>
      <trkpt lat="43.648416018113494" lon="6.926533039659262">
        <ele>269.31</ele>
        <time>2025-05-18T13:22:52Z</time>
      </trkpt>
      <trkpt lat="43.64836597815156" lon="6.926676034927368">
        <ele>268.82999999999998</ele>
        <time>2025-05-18T13:22:53Z</time>
      </trkpt>
      <trkpt lat="43.648296995088458" lon="6.926802014932036">
        <ele>267.86000000000001</ele>
        <time>2025-05-18T13:22:54Z</time>
      </trkpt>
      <trkpt lat="43.647819980978966" lon="6.927695022895932">
        <ele>262.10000000000002</ele>
        <time>2025-05-18T13:23:01Z</time>
      </trkpt>
      <trkpt lat="43.64780698902905" lon="6.927846986800432">
        <ele>261.13999999999999</ele>
        <time>2025-05-18T13:23:02Z</time>
      </trkpt>
      <trkpt lat="43.647792991250753" lon="6.928003979846835">
        <ele>260.17000000000002</ele>
        <time>2025-05-18T13:23:03Z</time>
      </trkpt>
      <trkpt lat="43.64778502844274" lon="6.928158039227128">
        <ele>258.73000000000002</ele>
        <time>2025-05-18T13:23:04Z</time>
      </trkpt>
      <trkpt lat="43.647836996242404" lon="6.928302040323615">
        <ele>257.76999999999998</ele>
        <time>2025-05-18T13:23:05Z</time>
      </trkpt>
      <trkpt lat="43.647887958213687" lon="6.928446041420102">
        <ele>256.32999999999998</ele>
        <time>2025-05-18T13:23:06Z</time>
      </trkpt>
      <trkpt lat="43.647968005388975" lon="6.92857101559639">
        <ele>254.41</ele>
        <time>2025-05-18T13:23:07Z</time>
      </trkpt>
      <trkpt lat="43.648049980401993" lon="6.928699007257819">
        <ele>252.96000000000001</ele>
        <time>2025-05-18T13:23:08Z</time>
      </trkpt>
      <trkpt lat="43.648132961243391" lon="6.928824987262487">
        <ele>251.52000000000001</ele>
        <time>2025-05-18T13:23:09Z</time>
      </trkpt>
      <trkpt lat="43.648455999791622" lon="6.929340977221727">
        <ele>245.75</ele>
        <time>2025-05-18T13:23:13Z</time>
      </trkpt>
      <trkpt lat="43.64858197979629" lon="6.929789995774627">
        <ele>241.91</ele>
        <time>2025-05-18T13:23:16Z</time>
      </trkpt>
      <trkpt lat="43.648591032251716" lon="6.929956041276455">
        <ele>240.94999999999999</ele>
        <time>2025-05-18T13:23:17Z</time>
      </trkpt>
      <trkpt lat="43.648600000888109" lon="6.930124014616013">
        <ele>239.50999999999999</ele>
        <time>2025-05-18T13:23:18Z</time>
      </trkpt>
      <trkpt lat="43.648664960637689" lon="6.930937981233001">
        <ele>233.74000000000001</ele>
        <time>2025-05-18T13:23:23Z</time>
      </trkpt>
      <trkpt lat="43.648721035569906" lon="6.931081982329488">
        <ele>232.78</ele>
        <time>2025-05-18T13:23:24Z</time>
      </trkpt>
      <trkpt lat="43.648778032511473" lon="6.931226989254355">
        <ele>231.33000000000001</ele>
        <time>2025-05-18T13:23:25Z</time>
      </trkpt>
      <trkpt lat="43.648851038888097" lon="6.931354980915785">
        <ele>230.84999999999999</ele>
        <time>2025-05-18T13:23:26Z</time>
      </trkpt>
      <trkpt lat="43.648931002244353" lon="6.931480960920453">
        <ele>229.41</ele>
        <time>2025-05-18T13:23:27Z</time>
      </trkpt>
      <trkpt lat="43.64900903776288" lon="6.931605013087392">
        <ele>228.93000000000001</ele>
        <time>2025-05-18T13:23:28Z</time>
      </trkpt>
      <trkpt lat="43.649077014997602" lon="6.931739039719105">
        <ele>228.44999999999999</ele>
        <time>2025-05-18T13:23:29Z</time>
      </trkpt>
      <trkpt lat="43.649111967533827" lon="6.931883962824941">
        <ele>227.49000000000001</ele>
        <time>2025-05-18T13:23:30Z</time>
      </trkpt>
      <trkpt lat="43.6491409689188" lon="6.932026958093047">
        <ele>226.53</ele>
        <time>2025-05-18T13:23:31Z</time>
      </trkpt>
      <trkpt lat="43.649153960868716" lon="6.932180011644959">
        <ele>226.05000000000001</ele>
        <time>2025-05-18T13:23:32Z</time>
      </trkpt>
      <trkpt lat="43.649145998060703" lon="6.932344967499375">
        <ele>225.09</ele>
        <time>2025-05-18T13:23:33Z</time>
      </trkpt>
      <trkpt lat="43.649126971140504" lon="6.932511013001204">
        <ele>224.12</ele>
        <time>2025-05-18T13:23:34Z</time>
      </trkpt>
      <trkpt lat="43.648893032222986" lon="6.933829989284277">
        <ele>216.43000000000001</ele>
        <time>2025-05-18T13:23:42Z</time>
      </trkpt>
      <trkpt lat="43.648864030838013" lon="6.933982037007809">
        <ele>215.94999999999999</ele>
        <time>2025-05-18T13:23:43Z</time>
      </trkpt>
      <trkpt lat="43.648834023624659" lon="6.934141963720322">
        <ele>214.99000000000001</ele>
        <time>2025-05-18T13:23:44Z</time>
      </trkpt>
      <trkpt lat="43.648739978671074" lon="6.934649990871549">
        <ele>212.11000000000001</ele>
        <time>2025-05-18T13:23:47Z</time>
      </trkpt>
      <trkpt lat="43.64853898063302" lon="6.935628997161984">
        <ele>206.34</ele>
        <time>2025-05-18T13:23:53Z</time>
      </trkpt>
      <trkpt lat="43.648489024490118" lon="6.935781966894865">
        <ele>205.38</ele>
        <time>2025-05-18T13:23:54Z</time>
      </trkpt>
      <trkpt lat="43.648416018113494" lon="6.935913981869817">
        <ele>204.90000000000001</ele>
        <time>2025-05-18T13:23:55Z</time>
      </trkpt>
      <trkpt lat="43.648329013958573" lon="6.936030993238092">
        <ele>203.94</ele>
        <time>2025-05-18T13:23:56Z</time>
      </trkpt>
      <trkpt lat="43.648234969004989" lon="6.936124032363296">
        <ele>202.97999999999999</ele>
        <time>2025-05-18T13:23:57Z</time>
      </trkpt>
      <trkpt lat="43.648114018142223" lon="6.936174994334579">
        <ele>202.49000000000001</ele>
        <time>2025-05-18T13:23:58Z</time>
      </trkpt>
      <trkpt lat="43.647993989288807" lon="6.936206007376313">
        <ele>201.53</ele>
        <time>2025-05-18T13:23:59Z</time>
      </trkpt>
      <trkpt lat="43.647874966263771" lon="6.936238026246429">
        <ele>201.05000000000001</ele>
        <time>2025-05-18T13:24:00Z</time>
      </trkpt>
      <trkpt lat="43.647522004321218" lon="6.936330981552601">
        <ele>198.65000000000001</ele>
        <time>2025-05-18T13:24:03Z</time>
      </trkpt>
      <trkpt lat="43.647425025701523" lon="6.936408011242747">
        <ele>197.69</ele>
        <time>2025-05-18T13:24:04Z</time>
      </trkpt>
      <trkpt lat="43.647344978526235" lon="6.936513958498836">
        <ele>197.21000000000001</ele>
        <time>2025-05-18T13:24:05Z</time>
      </trkpt>
      <trkpt lat="43.647300973534584" lon="6.936644967645407">
        <ele>196.72999999999999</ele>
        <time>2025-05-18T13:24:06Z</time>
      </trkpt>
      <trkpt lat="43.647286975756288" lon="6.936804978176951">
        <ele>196.25</ele>
        <time>2025-05-18T13:24:07Z</time>
      </trkpt>
      <trkpt lat="43.647317988798022" lon="6.936975969001651">
        <ele>196.25</ele>
        <time>2025-05-18T13:24:08Z</time>
      </trkpt>
      <trkpt lat="43.647390995174646" lon="6.937094992026687">
        <ele>195.77000000000001</ele>
        <time>2025-05-18T13:24:09Z</time>
      </trkpt>
      <trkpt lat="43.647476993501186" lon="6.937202028930187">
        <ele>194.80000000000001</ele>
        <time>2025-05-18T13:24:10Z</time>
      </trkpt>
      <trkpt lat="43.647566009312868" lon="6.937314011156559">
        <ele>193.84</ele>
        <time>2025-05-18T13:24:11Z</time>
      </trkpt>
      <trkpt lat="43.64765603095293" lon="6.937425993382931">
        <ele>192.88</ele>
        <time>2025-05-18T13:24:12Z</time>
      </trkpt>
      <trkpt lat="43.647726019844413" lon="6.937554990872741">
        <ele>191.44</ele>
        <time>2025-05-18T13:24:13Z</time>
      </trkpt>
      <trkpt lat="43.647755021229386" lon="6.937719024717808">
        <ele>190</ele>
        <time>2025-05-18T13:24:14Z</time>
      </trkpt>
      <trkpt lat="43.647779999300838" lon="6.937868976965547">
        <ele>188.56</ele>
        <time>2025-05-18T13:24:15Z</time>
      </trkpt>
      <trkpt lat="43.647748986259103" lon="6.938027981668711">
        <ele>187.11000000000001</ele>
        <time>2025-05-18T13:24:16Z</time>
      </trkpt>
      <trkpt lat="43.647728031501174" lon="6.938196960836649">
        <ele>185.66999999999999</ele>
        <time>2025-05-18T13:24:17Z</time>
      </trkpt>
      <trkpt lat="43.647632980719209" lon="6.938688978552818">
        <ele>181.83000000000001</ele>
        <time>2025-05-18T13:24:20Z</time>
      </trkpt>
      <trkpt lat="43.647598028182983" lon="6.938826022669673">
        <ele>180.87</ele>
        <time>2025-05-18T13:24:21Z</time>
      </trkpt>
      <trkpt lat="43.647511024028063" lon="6.938942028209567">
        <ele>179.41999999999999</ele>
        <time>2025-05-18T13:24:22Z</time>
      </trkpt>
      <trkpt lat="43.647413039579988" lon="6.939030038192868">
        <ele>177.97999999999999</ele>
        <time>2025-05-18T13:24:23Z</time>
      </trkpt>
      <trkpt lat="43.647296028211713" lon="6.939093992114067">
        <ele>176.53999999999999</ele>
        <time>2025-05-18T13:24:24Z</time>
      </trkpt>
      <trkpt lat="43.647177005186677" lon="6.939107989892364">
        <ele>175.58000000000001</ele>
        <time>2025-05-18T13:24:25Z</time>
      </trkpt>
      <trkpt lat="43.647053958848119" lon="6.939123999327421">
        <ele>174.13999999999999</ele>
        <time>2025-05-18T13:24:26Z</time>
      </trkpt>
      <trkpt lat="43.646930996328592" lon="6.939139002934098">
        <ele>173.16999999999999</ele>
        <time>2025-05-18T13:24:27Z</time>
      </trkpt>
      <trkpt lat="43.646443001925945" lon="6.939211003482342">
        <ele>169.81</ele>
        <time>2025-05-18T13:24:31Z</time>
      </trkpt>
      <trkpt lat="43.646323978900909" lon="6.939231958240271">
        <ele>168.84999999999999</ele>
        <time>2025-05-18T13:24:32Z</time>
      </trkpt>
      <trkpt lat="43.646082999184728" lon="6.939275041222572">
        <ele>167.88999999999999</ele>
        <time>2025-05-18T13:24:34Z</time>
      </trkpt>
      <trkpt lat="43.645964981988072" lon="6.939312005415559">
        <ele>167.41</ele>
        <time>2025-05-18T13:24:35Z</time>
      </trkpt>
      <trkpt lat="43.645846964791417" lon="6.939367996528745">
        <ele>166.44999999999999</ele>
        <time>2025-05-18T13:24:36Z</time>
      </trkpt>
      <trkpt lat="43.645251011475921" lon="6.940075010061264">
        <ele>164.03999999999999</ele>
        <time>2025-05-18T13:24:44Z</time>
      </trkpt>
      <trkpt lat="43.645202983170748" lon="6.940137958154082">
        <ele>163.56</ele>
        <time>2025-05-18T13:24:45Z</time>
      </trkpt>
      <trkpt lat="43.645202983170748" lon="6.940137958154082">
        <ele>163.56</ele>
        <time>2025-05-18T13:24:46Z</time>
      </trkpt>
      <trkpt lat="43.64496803842485" lon="6.940191015601158">
        <ele>164.03999999999999</ele>
        <time>2025-05-18T13:24:48Z</time>
      </trkpt>
      <trkpt lat="43.64490601234138" lon="6.940269973129034">
        <ele>164.52000000000001</ele>
        <time>2025-05-18T13:24:50Z</time>
      </trkpt>
      <trkpt lat="43.644147031009197" lon="6.941455006599426">
        <ele>171.25</ele>
        <time>2025-05-18T13:25:01Z</time>
      </trkpt>
      <trkpt lat="43.643989032134414" lon="6.941659022122622">
        <ele>172.69</ele>
        <time>2025-05-18T13:25:03Z</time>
      </trkpt>
      <trkpt lat="43.643900016322732" lon="6.941747032105923">
        <ele>172.69</ele>
        <time>2025-05-18T13:25:04Z</time>
      </trkpt>
      <trkpt lat="43.643798008561134" lon="6.941802017390728">
        <ele>173.16999999999999</ele>
        <time>2025-05-18T13:25:05Z</time>
      </trkpt>
      <trkpt lat="43.643690971657634" lon="6.941843004897237">
        <ele>173.16999999999999</ele>
        <time>2025-05-18T13:25:06Z</time>
      </trkpt>
      <trkpt lat="43.643583012744784" lon="6.941884998232126">
        <ele>173.66</ele>
        <time>2025-05-18T13:25:07Z</time>
      </trkpt>
      <trkpt lat="43.643476981669664" lon="6.941925985738635">
        <ele>173.16999999999999</ele>
        <time>2025-05-18T13:25:08Z</time>
      </trkpt>
      <trkpt lat="43.643153021112084" lon="6.942017013207078">
        <ele>172.69</ele>
        <time>2025-05-18T13:25:11Z</time>
      </trkpt>
      <trkpt lat="43.642673995345831" lon="6.942093037068844">
        <ele>171.25</ele>
        <time>2025-05-18T13:25:16Z</time>
      </trkpt>
      <trkpt lat="43.642597971484065" lon="6.942104017361999">
        <ele>170.77000000000001</ele>
        <time>2025-05-18T13:25:17Z</time>
      </trkpt>
      <trkpt lat="43.642523037269711" lon="6.942114997655153">
        <ele>170.77000000000001</ele>
        <time>2025-05-18T13:25:18Z</time>
      </trkpt>
      <trkpt lat="43.642458999529481" lon="6.942151039838791">
        <ele>170.77000000000001</ele>
        <time>2025-05-18T13:25:19Z</time>
      </trkpt>
      <trkpt lat="43.642385993152857" lon="6.942240977659822">
        <ele>170.77000000000001</ele>
        <time>2025-05-18T13:25:20Z</time>
      </trkpt>
      <trkpt lat="43.642293037846684" lon="6.942292023450136">
        <ele>170.77000000000001</ele>
        <time>2025-05-18T13:25:21Z</time>
      </trkpt>
      <trkpt lat="43.642194969579577" lon="6.94232395850122">
        <ele>171.25</ele>
        <time>2025-05-18T13:25:22Z</time>
      </trkpt>
      <trkpt lat="43.642083993181586" lon="6.942328987643123">
        <ele>171.25</ele>
        <time>2025-05-18T13:25:23Z</time>
      </trkpt>
      <trkpt lat="43.641866985708475" lon="6.942328987643123">
        <ele>171.72999999999999</ele>
        <time>2025-05-18T13:25:25Z</time>
      </trkpt>
      <trkpt lat="43.641761038452387" lon="6.942328987643123">
        <ele>172.21000000000001</ele>
        <time>2025-05-18T13:25:26Z</time>
      </trkpt>
      <trkpt lat="43.641087971627712" lon="6.94228095933795">
        <ele>172.69</ele>
        <time>2025-05-18T13:25:32Z</time>
      </trkpt>
      <trkpt lat="43.640635013580322" lon="6.942148022353649">
        <ele>172.21000000000001</ele>
        <time>2025-05-18T13:25:36Z</time>
      </trkpt>
      <trkpt lat="43.639302961528301" lon="6.941391974687576">
        <ele>173.66</ele>
        <time>2025-05-18T13:25:48Z</time>
      </trkpt>
      <trkpt lat="43.639155020937324" lon="6.941342018544674">
        <ele>173.66</ele>
        <time>2025-05-18T13:25:49Z</time>
      </trkpt>
      <trkpt lat="43.639070028439164" lon="6.941332966089249">
        <ele>174.13999999999999</ele>
        <time>2025-05-18T13:25:50Z</time>
      </trkpt>
      <trkpt lat="43.638205016031861" lon="6.941331960260868">
        <ele>175.58000000000001</ele>
        <time>2025-05-18T13:25:57Z</time>
      </trkpt>
      <trkpt lat="43.637952972203493" lon="6.941287033259869">
        <ele>175.58000000000001</ele>
        <time>2025-05-18T13:25:59Z</time>
      </trkpt>
      <trkpt lat="43.637738982215524" lon="6.941159963607788">
        <ele>175.09999999999999</ele>
        <time>2025-05-18T13:26:01Z</time>
      </trkpt>
      <trkpt lat="43.63764401525259" lon="6.941104978322983">
        <ele>175.09999999999999</ele>
        <time>2025-05-18T13:26:02Z</time>
      </trkpt>
      <trkpt lat="43.637589029967785" lon="6.941062984988093">
        <ele>174.62</ele>
        <time>2025-05-18T13:26:03Z</time>
      </trkpt>
      <trkpt lat="43.637417033314705" lon="6.940956031903625">
        <ele>174.13999999999999</ele>
        <time>2025-05-18T13:26:04Z</time>
      </trkpt>
      <trkpt lat="43.637410998344421" lon="6.940954020246863">
        <ele>174.13999999999999</ele>
        <time>2025-05-18T13:26:05Z</time>
      </trkpt>
      <trkpt lat="43.637331034988165" lon="6.94092602469027">
        <ele>173.66</ele>
        <time>2025-05-18T13:26:06Z</time>
      </trkpt>
      <trkpt lat="43.636838011443615" lon="6.940762996673584">
        <ele>172.21000000000001</ele>
        <time>2025-05-18T13:26:13Z</time>
      </trkpt>
      <trkpt lat="43.63676299341023" lon="6.940644979476929">
        <ele>172.21000000000001</ele>
        <time>2025-05-18T13:26:15Z</time>
      </trkpt>
      <trkpt lat="43.636704990640283" lon="6.940644979476929">
        <ele>172.69</ele>
        <time>2025-05-18T13:26:16Z</time>
      </trkpt>
      <trkpt lat="43.636670960113406" lon="6.940686972811818">
        <ele>172.69</ele>
        <time>2025-05-18T13:26:17Z</time>
      </trkpt>
      <trkpt lat="43.636660985648632" lon="6.940760985016823">
        <ele>172.69</ele>
        <time>2025-05-18T13:26:18Z</time>
      </trkpt>
      <trkpt lat="43.636685041710734" lon="6.940822005271912">
        <ele>173.16999999999999</ele>
        <time>2025-05-18T13:26:19Z</time>
      </trkpt>
      <trkpt lat="43.636727035045624" lon="6.940880008041859">
        <ele>173.16999999999999</ele>
        <time>2025-05-18T13:26:20Z</time>
      </trkpt>
      <trkpt lat="43.636755030602217" lon="6.940955026075244">
        <ele>172.69</ele>
        <time>2025-05-18T13:26:21Z</time>
      </trkpt>
      <trkpt lat="43.63676399923861" lon="6.941067008301616">
        <ele>172.69</ele>
        <time>2025-05-18T13:26:22Z</time>
      </trkpt>
      <trkpt lat="43.636771040037274" lon="6.94120698608458">
        <ele>172.69</ele>
        <time>2025-05-18T13:26:23Z</time>
      </trkpt>
      <trkpt lat="43.636746983975172" lon="6.941350987181068">
        <ele>172.69</ele>
        <time>2025-05-18T13:26:24Z</time>
      </trkpt>
      <trkpt lat="43.636470967903733" lon="6.942815976217389">
        <ele>166.93000000000001</ele>
        <time>2025-05-18T13:26:34Z</time>
      </trkpt>
      <trkpt lat="43.63633300177753" lon="6.943351998925209">
        <ele>165</ele>
        <time>2025-05-18T13:26:37Z</time>
      </trkpt>
      <trkpt lat="43.635633029043674" lon="6.944797961041331">
        <ele>159.72</ele>
        <time>2025-05-18T13:26:44Z</time>
      </trkpt>
      <trkpt lat="43.634674977511168" lon="6.945769004523754">
        <ele>153.94999999999999</ele>
        <time>2025-05-18T13:26:51Z</time>
      </trkpt>
      <trkpt lat="43.633968969807029" lon="6.946187010034919">
        <ele>150.09999999999999</ele>
        <time>2025-05-18T13:26:54Z</time>
      </trkpt>
      <trkpt lat="43.632326032966375" lon="6.946678021922708">
        <ele>139.05000000000001</ele>
        <time>2025-05-18T13:27:03Z</time>
      </trkpt>
      <trkpt lat="43.629944985732436" lon="6.947267018258572">
        <ele>127.98999999999999</ele>
        <time>2025-05-18T13:27:16Z</time>
      </trkpt>
      <trkpt lat="43.627605009824038" lon="6.94788702763617">
        <ele>121.26000000000001</ele>
        <time>2025-05-18T13:27:28Z</time>
      </trkpt>
      <trkpt lat="43.625726038590074" lon="6.948165977373719">
        <ele>115.5</ele>
        <time>2025-05-18T13:27:39Z</time>
      </trkpt>
      <trkpt lat="43.623904986307025" lon="6.947707990184426">
        <ele>107.31999999999999</ele>
        <time>2025-05-18T13:27:47Z</time>
      </trkpt>
      <trkpt lat="43.621946973726153" lon="6.946545001119375">
        <ele>96.269999999999996</ele>
        <time>2025-05-18T13:27:57Z</time>
      </trkpt>
      <trkpt lat="43.621541038155556" lon="6.946388008072972">
        <ele>94.829999999999998</ele>
        <time>2025-05-18T13:27:59Z</time>
      </trkpt>
      <trkpt lat="43.620679965242743" lon="6.946234032511711">
        <ele>90.980000000000004</ele>
        <time>2025-05-18T13:28:03Z</time>
      </trkpt>
      <trkpt lat="43.620459018275142" lon="6.946249958127737">
        <ele>90.019999999999996</ele>
        <time>2025-05-18T13:28:04Z</time>
      </trkpt>
      <trkpt lat="43.620244022458792" lon="6.946309972554445">
        <ele>89.060000000000002</ele>
        <time>2025-05-18T13:28:05Z</time>
      </trkpt>
      <trkpt lat="43.620032966136932" lon="6.946394965052605">
        <ele>88.579999999999998</ele>
        <time>2025-05-18T13:28:06Z</time>
      </trkpt>
      <trkpt lat="43.619825011119246" lon="6.946483980864286">
        <ele>88.099999999999994</ele>
        <time>2025-05-18T13:28:07Z</time>
      </trkpt>
      <trkpt lat="43.619633987545967" lon="6.946623958647251">
        <ele>87.140000000000001</ele>
        <time>2025-05-18T13:28:08Z</time>
      </trkpt>
      <trkpt lat="43.619451010599732" lon="6.946787992492318">
        <ele>86.659999999999997</ele>
        <time>2025-05-18T13:28:09Z</time>
      </trkpt>
      <trkpt lat="43.619283959269524" lon="6.946979016065598">
        <ele>86.180000000000007</ele>
        <time>2025-05-18T13:28:10Z</time>
      </trkpt>
      <trkpt lat="43.619121015071869" lon="6.947167022153735">
        <ele>85.209999999999994</ele>
        <time>2025-05-18T13:28:11Z</time>
      </trkpt>
      <trkpt lat="43.618980031460524" lon="6.947386963292956">
        <ele>84.730000000000004</ele>
        <time>2025-05-18T13:28:12Z</time>
      </trkpt>
      <trkpt lat="43.61884499900043" lon="6.947611011564732">
        <ele>83.769999999999996</ele>
        <time>2025-05-18T13:28:13Z</time>
      </trkpt>
      <trkpt lat="43.617976969107985" lon="6.94954002276063">
        <ele>78.480000000000004</ele>
        <time>2025-05-18T13:28:21Z</time>
      </trkpt>
      <trkpt lat="43.617369029670954" lon="6.951910005882382">
        <ele>79.930000000000007</ele>
        <time>2025-05-18T13:28:30Z</time>
      </trkpt>
      <trkpt lat="43.616972984746099" lon="6.954649966210127">
        <ele>79.450000000000003</ele>
        <time>2025-05-18T13:28:40Z</time>
      </trkpt>
      <trkpt lat="43.616300001740456" lon="6.957494029775262">
        <ele>84.25</ele>
        <time>2025-05-18T13:28:51Z</time>
      </trkpt>
      <trkpt lat="43.615343039855361" lon="6.959795029833913">
        <ele>89.540000000000006</ele>
        <time>2025-05-18T13:29:00Z</time>
      </trkpt>
      <trkpt lat="43.614436034113169" lon="6.96187399327755">
        <ele>95.790000000000006</ele>
        <time>2025-05-18T13:29:08Z</time>
      </trkpt>
      <trkpt lat="43.613221999257803" lon="6.964670028537512">
        <ele>104.92</ele>
        <time>2025-05-18T13:29:19Z</time>
      </trkpt>
      <trkpt lat="43.612041994929314" lon="6.967378975823522">
        <ele>112.13</ele>
        <time>2025-05-18T13:29:30Z</time>
      </trkpt>
      <trkpt lat="43.610965004190803" lon="6.969711994752288">
        <ele>115.98</ele>
        <time>2025-05-18T13:29:39Z</time>
      </trkpt>
      <trkpt lat="43.609256017953157" lon="6.973449988290668">
        <ele>117.90000000000001</ele>
        <time>2025-05-18T13:29:53Z</time>
      </trkpt>
      <trkpt lat="43.60855202190578" lon="6.975100971758366">
        <ele>111.65000000000001</ele>
        <time>2025-05-18T13:29:59Z</time>
      </trkpt>
      <trkpt lat="43.607849031686783" lon="6.977673964574933">
        <ele>106.36</ele>
        <time>2025-05-18T13:30:08Z</time>
      </trkpt>
      <trkpt lat="43.607663959264755" lon="6.980343014001846">
        <ele>109.73</ele>
        <time>2025-05-18T13:30:17Z</time>
      </trkpt>
      <trkpt lat="43.607566980645061" lon="6.983698038384318">
        <ele>119.34</ele>
        <time>2025-05-18T13:30:29Z</time>
      </trkpt>
      <trkpt lat="43.607434965670109" lon="6.984791038557887">
        <ele>126.06999999999999</ele>
        <time>2025-05-18T13:30:33Z</time>
      </trkpt>
      <trkpt lat="43.607376962900162" lon="6.985071999952197">
        <ele>127.98999999999999</ele>
        <time>2025-05-18T13:30:34Z</time>
      </trkpt>
      <trkpt lat="43.607293982058764" lon="6.98533502407372">
        <ele>129.43000000000001</ele>
        <time>2025-05-18T13:30:35Z</time>
      </trkpt>
      <trkpt lat="43.606480015441775" lon="6.98709798976779">
        <ele>137.13</ele>
        <time>2025-05-18T13:30:42Z</time>
      </trkpt>
      <trkpt lat="43.605676023289561" lon="6.9889020267874">
        <ele>142.41</ele>
        <time>2025-05-18T13:30:50Z</time>
      </trkpt>
      <trkpt lat="43.604897009208798" lon="6.991484994068742">
        <ele>149.13999999999999</ele>
        <time>2025-05-18T13:31:01Z</time>
      </trkpt>
      <trkpt lat="43.604801036417484" lon="6.992328967899084">
        <ele>152.03</ele>
        <time>2025-05-18T13:31:04Z</time>
      </trkpt>
      <trkpt lat="43.604801036417484" lon="6.992614036425948">
        <ele>152.99000000000001</ele>
        <time>2025-05-18T13:31:05Z</time>
      </trkpt>
      <trkpt lat="43.604801036417484" lon="6.9928980153054">
        <ele>153.94999999999999</ele>
        <time>2025-05-18T13:31:06Z</time>
      </trkpt>
      <trkpt lat="43.605198003351688" lon="6.994973961263895">
        <ele>160.19999999999999</ele>
        <time>2025-05-18T13:31:14Z</time>
      </trkpt>
      <trkpt lat="43.605547025799751" lon="6.996457977220416">
        <ele>165.96000000000001</ele>
        <time>2025-05-18T13:31:20Z</time>
      </trkpt>
      <trkpt lat="43.605594970285892" lon="6.99700397439301">
        <ele>167.88999999999999</ele>
        <time>2025-05-18T13:31:22Z</time>
      </trkpt>
      <trkpt lat="43.605578038841486" lon="6.997289964929223">
        <ele>169.33000000000001</ele>
        <time>2025-05-18T13:31:23Z</time>
      </trkpt>
      <trkpt lat="43.605560017749667" lon="6.997573021799326">
        <ele>170.28999999999999</ele>
        <time>2025-05-18T13:31:24Z</time>
      </trkpt>
      <trkpt lat="43.605543002486229" lon="6.997858006507158">
        <ele>171.72999999999999</ele>
        <time>2025-05-18T13:31:25Z</time>
      </trkpt>
      <trkpt lat="43.605506960302591" lon="6.998137962073088">
        <ele>173.16999999999999</ele>
        <time>2025-05-18T13:31:26Z</time>
      </trkpt>
      <trkpt lat="43.605432026088238" lon="6.998408026993275">
        <ele>174.13999999999999</ele>
        <time>2025-05-18T13:31:27Z</time>
      </trkpt>
      <trkpt lat="43.605356002226472" lon="6.998675996437669">
        <ele>175.58000000000001</ele>
        <time>2025-05-18T13:31:28Z</time>
      </trkpt>
      <trkpt lat="43.60526698641479" lon="6.998929968103766">
        <ele>176.53999999999999</ele>
        <time>2025-05-18T13:31:29Z</time>
      </trkpt>
      <trkpt lat="43.605164978653193" lon="6.999163990840316">
        <ele>177.5</ele>
        <time>2025-05-18T13:31:30Z</time>
      </trkpt>
      <trkpt lat="43.605042016133666" lon="6.99938896112144">
        <ele>178.46000000000001</ele>
        <time>2025-05-18T13:31:31Z</time>
      </trkpt>
      <trkpt lat="43.603895036503673" lon="7.001099037006497">
        <ele>184.22999999999999</ele>
        <time>2025-05-18T13:31:39Z</time>
      </trkpt>
      <trkpt lat="43.60264697112143" lon="7.002213997766376">
        <ele>184.71000000000001</ele>
        <time>2025-05-18T13:31:46Z</time>
      </trkpt>
      <trkpt lat="43.601289018988609" lon="7.002579029649496">
        <ele>178.94</ele>
        <time>2025-05-18T13:31:53Z</time>
      </trkpt>
      <trkpt lat="43.599446006119251" lon="7.002334026619792">
        <ele>165.47999999999999</ele>
        <time>2025-05-18T13:32:02Z</time>
      </trkpt>
      <trkpt lat="43.597860988229513" lon="7.001442024484277">
        <ele>153.47</ele>
        <time>2025-05-18T13:32:10Z</time>
      </trkpt>
      <trkpt lat="43.596129035577178" lon="7.000452037900686">
        <ele>141.93000000000001</ele>
        <time>2025-05-18T13:32:19Z</time>
      </trkpt>
      <trkpt lat="43.59533803537488" lon="7.000093962997198">
        <ele>137.13</ele>
        <time>2025-05-18T13:32:23Z</time>
      </trkpt>
      <trkpt lat="43.595139971002936" lon="7.000041995197535">
        <ele>135.68000000000001</ele>
        <time>2025-05-18T13:32:24Z</time>
      </trkpt>
      <trkpt lat="43.594933021813631" lon="6.99998902156949">
        <ele>134.72</ele>
        <time>2025-05-18T13:32:25Z</time>
      </trkpt>
      <trkpt lat="43.59329997561872" lon="6.999974017962813">
        <ele>123.67</ele>
        <time>2025-05-18T13:32:33Z</time>
      </trkpt>
      <trkpt lat="43.591168960556388" lon="7.000592015683651">
        <ele>114.05</ele>
        <time>2025-05-18T13:32:44Z</time>
      </trkpt>
      <trkpt lat="43.589578997343779" lon="7.001676969230175">
        <ele>112.13</ele>
        <time>2025-05-18T13:32:53Z</time>
      </trkpt>
      <trkpt lat="43.587894989177585" lon="7.003466002643108">
        <ele>118.38</ele>
        <time>2025-05-18T13:33:04Z</time>
      </trkpt>
      <trkpt lat="43.587079010903835" lon="7.004505023360252">
        <ele>126.06999999999999</ele>
        <time>2025-05-18T13:33:11Z</time>
      </trkpt>
      <trkpt lat="43.586774999275804" lon="7.004833007231355">
        <ele>130.40000000000001</ele>
        <time>2025-05-18T13:33:17Z</time>
      </trkpt>
      <trkpt lat="43.586754966527224" lon="7.004853961989284">
        <ele>132.31999999999999</ele>
        <time>2025-05-18T13:33:25Z</time>
      </trkpt>
      <trkpt lat="43.586515998467803" lon="7.005032999441028">
        <ele>135.68000000000001</ele>
        <time>2025-05-18T13:33:45Z</time>
      </trkpt>
      <trkpt lat="43.586367974057794" lon="7.005110029131174">
        <ele>137.61000000000001</ele>
        <time>2025-05-18T13:33:49Z</time>
      </trkpt>
      <trkpt lat="43.586367974057794" lon="7.005110029131174">
        <ele>137.61000000000001</ele>
        <time>2025-05-18T13:33:50Z</time>
      </trkpt>
      <trkpt lat="43.586235959082842" lon="7.005136013031006">
        <ele>138.09</ele>
        <time>2025-05-18T13:33:51Z</time>
      </trkpt>
      <trkpt lat="43.586077960208058" lon="7.005152022466064">
        <ele>138.56999999999999</ele>
        <time>2025-05-18T13:33:53Z</time>
      </trkpt>
      <trkpt lat="43.586007971316576" lon="7.005189992487431">
        <ele>139.05000000000001</ele>
        <time>2025-05-18T13:33:54Z</time>
      </trkpt>
      <trkpt lat="43.585933959111571" lon="7.0052520185709">
        <ele>139.05000000000001</ele>
        <time>2025-05-18T13:33:55Z</time>
      </trkpt>
      <trkpt lat="43.585863970220089" lon="7.005310021340847">
        <ele>139.05000000000001</ele>
        <time>2025-05-18T13:33:56Z</time>
      </trkpt>
      <trkpt lat="43.585790041834116" lon="7.005371963605285">
        <ele>139.53</ele>
        <time>2025-05-18T13:33:57Z</time>
      </trkpt>
      <trkpt lat="43.58577998355031" lon="7.005397025495768">
        <ele>139.53</ele>
        <time>2025-05-18T13:33:58Z</time>
      </trkpt>
      <trkpt lat="43.585770009085536" lon="7.005419991910458">
        <ele>139.53</ele>
        <time>2025-05-18T13:33:59Z</time>
      </trkpt>
      <trkpt lat="43.585770009085536" lon="7.005419991910458">
        <ele>139.53</ele>
        <time>2025-05-18T13:34:13Z</time>
      </trkpt>
      <trkpt lat="43.58573698438704" lon="7.005500961095095">
        <ele>139.53</ele>
        <time>2025-05-18T13:34:25Z</time>
      </trkpt>
      <trkpt lat="43.58562701381743" lon="7.005821987986565">
        <ele>139.05000000000001</ele>
        <time>2025-05-18T13:34:29Z</time>
      </trkpt>
      <trkpt lat="43.585594994947314" lon="7.006032960489392">
        <ele>139.05000000000001</ele>
        <time>2025-05-18T13:34:31Z</time>
      </trkpt>
      <trkpt lat="43.585574962198734" lon="7.006505029276013">
        <ele>138.56999999999999</ele>
        <time>2025-05-18T13:34:35Z</time>
      </trkpt>
      <trkpt lat="43.585544032976031" lon="7.006616005674005">
        <ele>138.56999999999999</ele>
        <time>2025-05-18T13:34:36Z</time>
      </trkpt>
      <trkpt lat="43.585511008277535" lon="7.006733017042279">
        <ele>138.56999999999999</ele>
        <time>2025-05-18T13:34:37Z</time>
      </trkpt>
      <trkpt lat="43.585472032427788" lon="7.006847010925412">
        <ele>138.09</ele>
        <time>2025-05-18T13:34:38Z</time>
      </trkpt>
      <trkpt lat="43.585422998294234" lon="7.006955975666642">
        <ele>138.09</ele>
        <time>2025-05-18T13:34:39Z</time>
      </trkpt>
      <trkpt lat="43.585381004959345" lon="7.007048008963466">
        <ele>137.61000000000001</ele>
        <time>2025-05-18T13:34:40Z</time>
      </trkpt>
      <trkpt lat="43.585118986666203" lon="7.007500967010856">
        <ele>135.68000000000001</ele>
        <time>2025-05-18T13:34:48Z</time>
      </trkpt>
      <trkpt lat="43.585085039958358" lon="7.007561987265945">
        <ele>135.68000000000001</ele>
        <time>2025-05-18T13:34:49Z</time>
      </trkpt>
      <trkpt lat="43.58504899777472" lon="7.007625019177795">
        <ele>135.19999999999999</ele>
        <time>2025-05-18T13:34:50Z</time>
      </trkpt>
      <trkpt lat="43.584582963958383" lon="7.008444014936686">
        <ele>130.40000000000001</ele>
        <time>2025-05-18T13:35:00Z</time>
      </trkpt>
      <trkpt lat="43.584453966468573" lon="7.008629003539681">
        <ele>128.94999999999999</ele>
        <time>2025-05-18T13:35:02Z</time>
      </trkpt>
      <trkpt lat="43.584094969555736" lon="7.00897098518908">
        <ele>124.63</ele>
        <time>2025-05-18T13:35:10Z</time>
      </trkpt>
      <trkpt lat="43.584064040333033" lon="7.008992023766041">
        <ele>122.22</ele>
        <time>2025-05-18T13:35:21Z</time>
      </trkpt>
      <trkpt lat="43.583689033985138" lon="7.009241972118616">
        <ele>119.34</ele>
        <time>2025-05-18T13:35:28Z</time>
      </trkpt>
      <trkpt lat="43.582612965255976" lon="7.009644974023104">
        <ele>117.42</ele>
        <time>2025-05-18T13:35:41Z</time>
      </trkpt>
      <trkpt lat="43.581599006429315" lon="7.010147972032428">
        <ele>115.5</ele>
        <time>2025-05-18T13:35:51Z</time>
      </trkpt>
      <trkpt lat="43.580238958820701" lon="7.01086001470685">
        <ele>108.77</ele>
        <time>2025-05-18T13:36:03Z</time>
      </trkpt>
      <trkpt lat="43.578757038339972" lon="7.011631987988949">
        <ele>100.11</ele>
        <time>2025-05-18T13:36:16Z</time>
      </trkpt>
      <trkpt lat="43.577201021835208" lon="7.012130962684751">
        <ele>93.390000000000001</ele>
        <time>2025-05-18T13:36:29Z</time>
      </trkpt>
      <trkpt lat="43.57540100812912" lon="7.012207992374897">
        <ele>83.290000000000006</ele>
        <time>2025-05-18T13:36:44Z</time>
      </trkpt>
      <trkpt lat="43.574555022642016" lon="7.012239005416632">
        <ele>78.480000000000004</ele>
        <time>2025-05-18T13:36:51Z</time>
      </trkpt>
      <trkpt lat="43.574439017102122" lon="7.012241017073393">
        <ele>78</ele>
        <time>2025-05-18T13:36:52Z</time>
      </trkpt>
      <trkpt lat="43.574077002704144" lon="7.012286027893424">
        <ele>75.120000000000005</ele>
        <time>2025-05-18T13:36:55Z</time>
      </trkpt>
      <trkpt lat="43.573262030258775" lon="7.012595990672708">
        <ele>69.829999999999998</ele>
        <time>2025-05-18T13:37:02Z</time>
      </trkpt>
      <trkpt lat="43.573130015283823" lon="7.012667991220951">
        <ele>69.349999999999994</ele>
        <time>2025-05-18T13:37:03Z</time>
      </trkpt>
      <trkpt lat="43.573032030835748" lon="7.01272901147604">
        <ele>69.349999999999994</ele>
        <time>2025-05-18T13:37:04Z</time>
      </trkpt>
      <trkpt lat="43.572366004809737" lon="7.013148022815585">
        <ele>67.430000000000007</ele>
        <time>2025-05-18T13:37:10Z</time>
      </trkpt>
      <trkpt lat="43.572258967906237" lon="7.013219017535448">
        <ele>66.950000000000003</ele>
        <time>2025-05-18T13:37:11Z</time>
      </trkpt>
      <trkpt lat="43.571058008819818" lon="7.014096016064286">
        <ele>65.510000000000005</ele>
        <time>2025-05-18T13:37:22Z</time>
      </trkpt>
      <trkpt lat="43.570769000798464" lon="7.0144700165838">
        <ele>65.030000000000001</ele>
        <time>2025-05-18T13:37:25Z</time>
      </trkpt>
      <trkpt lat="43.570457026362419" lon="7.014948958531022">
        <ele>64.549999999999997</ele>
        <time>2025-05-18T13:37:29Z</time>
      </trkpt>
      <trkpt lat="43.570378990843892" lon="7.015065969899297">
        <ele>64.069999999999993</ele>
        <time>2025-05-18T13:37:30Z</time>
      </trkpt>
      <trkpt lat="43.569927038624883" lon="7.015794022008777">
        <ele>62.619999999999997</ele>
        <time>2025-05-18T13:37:38Z</time>
      </trkpt>
      <trkpt lat="43.569697039201856" lon="7.016055034473538">
        <ele>62.140000000000001</ele>
        <time>2025-05-18T13:37:42Z</time>
      </trkpt>
      <trkpt lat="43.569587990641594" lon="7.016179002821446">
        <ele>61.659999999999997</ele>
        <time>2025-05-18T13:37:44Z</time>
      </trkpt>
      <trkpt lat="43.569485982879996" lon="7.016254020854831">
        <ele>61.659999999999997</ele>
        <time>2025-05-18T13:37:46Z</time>
      </trkpt>
      <trkpt lat="43.569393027573824" lon="7.016259972006083">
        <ele>61.18</ele>
        <time>2025-05-18T13:37:48Z</time>
      </trkpt>
      <trkpt lat="43.569352962076664" lon="7.016262989491224">
        <ele>61.18</ele>
        <time>2025-05-18T13:37:49Z</time>
      </trkpt>
      <trkpt lat="43.569315997883677" lon="7.016266006976366">
        <ele>60.700000000000003</ele>
        <time>2025-05-18T13:37:50Z</time>
      </trkpt>
      <trkpt lat="43.569280039519072" lon="7.016269024461508">
        <ele>60.700000000000003</ele>
        <time>2025-05-18T13:37:51Z</time>
      </trkpt>
      <trkpt lat="43.569241985678673" lon="7.016271036118269">
        <ele>60.700000000000003</ele>
        <time>2025-05-18T13:37:52Z</time>
      </trkpt>
      <trkpt lat="43.569198986515403" lon="7.01627497561276">
        <ele>60.219999999999999</ele>
        <time>2025-05-18T13:37:53Z</time>
      </trkpt>
      <trkpt lat="43.569147018715739" lon="7.016278998926282">
        <ele>60.219999999999999</ele>
        <time>2025-05-18T13:37:54Z</time>
      </trkpt>
      <trkpt lat="43.569088010117412" lon="7.016284028068185">
        <ele>60.219999999999999</ele>
        <time>2025-05-18T13:37:55Z</time>
      </trkpt>
      <trkpt lat="43.568897992372513" lon="7.016299031674862">
        <ele>59.740000000000002</ele>
        <time>2025-05-18T13:37:58Z</time>
      </trkpt>
      <trkpt lat="43.568684002384543" lon="7.016314035281539">
        <ele>59.259999999999998</ele>
        <time>2025-05-18T13:38:02Z</time>
      </trkpt>
      <trkpt lat="43.568633962422609" lon="7.01631797477603">
        <ele>59.259999999999998</ele>
        <time>2025-05-18T13:38:03Z</time>
      </trkpt>
      <trkpt lat="43.568530026823282" lon="7.016325015574694">
        <ele>58.780000000000001</ele>
        <time>2025-05-18T13:38:05Z</time>
      </trkpt>
      <trkpt lat="43.568479986861348" lon="7.016329038888216">
        <ele>58.299999999999997</ele>
        <time>2025-05-18T13:38:06Z</time>
      </trkpt>
      <trkpt lat="43.568375967442989" lon="7.016335995867848">
        <ele>58.299999999999997</ele>
        <time>2025-05-18T13:38:08Z</time>
      </trkpt>
      <trkpt lat="43.568325005471706" lon="7.016340019181371">
        <ele>58.299999999999997</ele>
        <time>2025-05-18T13:38:09Z</time>
      </trkpt>
      <trkpt lat="43.568277982994914" lon="7.016343036666513">
        <ele>57.82</ele>
        <time>2025-05-18T13:38:10Z</time>
      </trkpt>
      <trkpt lat="43.568239007145166" lon="7.016345970332623">
        <ele>57.82</ele>
        <time>2025-05-18T13:38:11Z</time>
      </trkpt>
      <trkpt lat="43.568201037123799" lon="7.016348987817764">
        <ele>57.82</ele>
        <time>2025-05-18T13:38:12Z</time>
      </trkpt>
      <trkpt lat="43.56816197745502" lon="7.016350999474526">
        <ele>57.82</ele>
        <time>2025-05-18T13:38:13Z</time>
      </trkpt>
      <trkpt lat="43.567951004952192" lon="7.016349993646145">
        <ele>57.82</ele>
        <time>2025-05-18T13:38:18Z</time>
      </trkpt>
      <trkpt lat="43.567700972780585" lon="7.016294002532959">
        <ele>56.859999999999999</ele>
        <time>2025-05-18T13:38:26Z</time>
      </trkpt>
      <trkpt lat="43.567708013579249" lon="7.016298025846481">
        <ele>56.859999999999999</ele>
        <time>2025-05-18T13:38:36Z</time>
      </trkpt>
      <trkpt lat="43.5674739908427" lon="7.016357034444809">
        <ele>55.890000000000001</ele>
        <time>2025-05-18T13:38:47Z</time>
      </trkpt>
      <trkpt lat="43.567248014733195" lon="7.016385030001402">
        <ele>54.450000000000003</ele>
        <time>2025-05-18T13:38:53Z</time>
      </trkpt>
      <trkpt lat="43.566956995055079" lon="7.016413025557995">
        <ele>53.969999999999999</ele>
        <time>2025-05-18T13:38:58Z</time>
      </trkpt>
      <trkpt lat="43.566438993439078" lon="7.016449989750981">
        <ele>53.969999999999999</ele>
        <time>2025-05-18T13:39:08Z</time>
      </trkpt>
      <trkpt lat="43.566354000940919" lon="7.016454013064504">
        <ele>54.450000000000003</ele>
        <time>2025-05-18T13:39:15Z</time>
      </trkpt>
      <trkpt lat="43.566124001517892" lon="7.016465999186039">
        <ele>54.450000000000003</ele>
        <time>2025-05-18T13:39:29Z</time>
      </trkpt>
      <trkpt lat="43.5656279604882" lon="7.01646700501442">
        <ele>52.049999999999997</ele>
        <time>2025-05-18T13:39:38Z</time>
      </trkpt>
      <trkpt lat="43.565574986860156" lon="7.016472034156323">
        <ele>52.049999999999997</ele>
        <time>2025-05-18T13:39:39Z</time>
      </trkpt>
      <trkpt lat="43.565339036285877" lon="7.016495000571013">
        <ele>50.130000000000003</ele>
        <time>2025-05-18T13:39:43Z</time>
      </trkpt>
      <trkpt lat="43.56528296135366" lon="7.016500029712915">
        <ele>49.159999999999997</ele>
        <time>2025-05-18T13:39:44Z</time>
      </trkpt>
      <trkpt lat="43.565228981897235" lon="7.016504975035787">
        <ele>48.68</ele>
        <time>2025-05-18T13:39:45Z</time>
      </trkpt>
      <trkpt lat="43.564904015511274" lon="7.01653003692627">
        <ele>45.32</ele>
        <time>2025-05-18T13:39:51Z</time>
      </trkpt>
      <trkpt lat="43.564848024398088" lon="7.01653003692627">
        <ele>45.32</ele>
        <time>2025-05-18T13:39:52Z</time>
      </trkpt>
      <trkpt lat="43.564795972779393" lon="7.01653003692627">
        <ele>45.32</ele>
        <time>2025-05-18T13:39:53Z</time>
      </trkpt>
      <trkpt lat="43.564782980829477" lon="7.01653003692627">
        <ele>45.32</ele>
        <time>2025-05-18T13:39:54Z</time>
      </trkpt>
      <trkpt lat="43.564697988331318" lon="7.01653003692627">
        <ele>44.840000000000003</ele>
        <time>2025-05-18T13:39:55Z</time>
      </trkpt>
      <trkpt lat="43.564653983339667" lon="7.01653003692627">
        <ele>44.840000000000003</ele>
        <time>2025-05-18T13:39:56Z</time>
      </trkpt>
      <trkpt lat="43.564504031091928" lon="7.01653003692627">
        <ele>43.880000000000003</ele>
        <time>2025-05-18T13:40:02Z</time>
      </trkpt>
      <trkpt lat="43.564375033602118" lon="7.016508998349309">
        <ele>42.439999999999998</ele>
        <time>2025-05-18T13:40:27Z</time>
      </trkpt>
      <trkpt lat="43.56367195956409" lon="7.016551997512579">
        <ele>39.07</ele>
        <time>2025-05-18T13:40:37Z</time>
      </trkpt>
      <trkpt lat="43.563252026215196" lon="7.016573958098888">
        <ele>35.710000000000001</ele>
        <time>2025-05-18T13:40:43Z</time>
      </trkpt>
      <trkpt lat="43.563192011788487" lon="7.016579993069172">
        <ele>35.229999999999997</ele>
        <time>2025-05-18T13:40:44Z</time>
      </trkpt>
      <trkpt lat="43.563122022897005" lon="7.016588039696217">
        <ele>34.740000000000002</ele>
        <time>2025-05-18T13:40:45Z</time>
      </trkpt>
      <trkpt lat="43.563066031783819" lon="7.016593990847468">
        <ele>33.780000000000001</ele>
        <time>2025-05-18T13:40:46Z</time>
      </trkpt>
      <trkpt lat="43.562963018193841" lon="7.016601031646133">
        <ele>33.299999999999997</ele>
        <time>2025-05-18T13:40:47Z</time>
      </trkpt>
      <trkpt lat="43.562877019867301" lon="7.016606982797384">
        <ele>32.82</ele>
        <time>2025-05-18T13:40:48Z</time>
      </trkpt>
      <trkpt lat="43.562795966863632" lon="7.016612011939287">
        <ele>31.859999999999999</ele>
        <time>2025-05-18T13:40:49Z</time>
      </trkpt>
      <trkpt lat="43.562743999063969" lon="7.01661603525281">
        <ele>31.379999999999999</ele>
        <time>2025-05-18T13:40:50Z</time>
      </trkpt>
      <trkpt lat="43.562652971595526" lon="7.016620980575681">
        <ele>30.899999999999999</ele>
        <time>2025-05-18T13:40:51Z</time>
      </trkpt>
      <trkpt lat="43.562579965218902" lon="7.016623998060823">
        <ele>30.420000000000002</ele>
        <time>2025-05-18T13:40:52Z</time>
      </trkpt>
      <trkpt lat="43.562501007691026" lon="7.016629027202725">
        <ele>29.940000000000001</ele>
        <time>2025-05-18T13:40:53Z</time>
      </trkpt>
      <trkpt lat="43.56242498382926" lon="7.016632966697216">
        <ele>29.940000000000001</ele>
        <time>2025-05-18T13:40:54Z</time>
      </trkpt>
      <trkpt lat="43.562271008267999" lon="7.016636990010738">
        <ele>29.940000000000001</ele>
        <time>2025-05-18T13:40:56Z</time>
      </trkpt>
      <trkpt lat="43.561992980539799" lon="7.016636990010738">
        <ele>28.98</ele>
        <time>2025-05-18T13:40:59Z</time>
      </trkpt>
      <trkpt lat="43.561906982213259" lon="7.016636990010738">
        <ele>28.98</ele>
        <time>2025-05-18T13:41:00Z</time>
      </trkpt>
      <trkpt lat="43.561892984434962" lon="7.016637995839119">
        <ele>28.98</ele>
        <time>2025-05-18T13:41:01Z</time>
      </trkpt>
      <trkpt lat="43.561563994735479" lon="7.01665903441608">
        <ele>27.530000000000001</ele>
        <time>2025-05-18T13:41:05Z</time>
      </trkpt>
      <trkpt lat="43.561513032764196" lon="7.016660962253809">
        <ele>26.57</ele>
        <time>2025-05-18T13:41:06Z</time>
      </trkpt>
      <trkpt lat="43.561437008902431" lon="7.016663979738951">
        <ele>26.09</ele>
        <time>2025-05-18T13:41:07Z</time>
      </trkpt>
      <trkpt lat="43.561356961727142" lon="7.016668003052473">
        <ele>25.129999999999999</ele>
        <time>2025-05-18T13:41:08Z</time>
      </trkpt>
      <trkpt lat="43.561293007805943" lon="7.016671020537615">
        <ele>24.649999999999999</ele>
        <time>2025-05-18T13:41:09Z</time>
      </trkpt>
      <trkpt lat="43.561245985329151" lon="7.016673032194376">
        <ele>23.690000000000001</ele>
        <time>2025-05-18T13:41:10Z</time>
      </trkpt>
      <trkpt lat="43.561183037236333" lon="7.016674960032105">
        <ele>23.690000000000001</ele>
        <time>2025-05-18T13:41:11Z</time>
      </trkpt>
      <trkpt lat="43.560941973701119" lon="7.01665903441608">
        <ele>20.32</ele>
        <time>2025-05-18T13:41:17Z</time>
      </trkpt>
      <trkpt lat="43.560891011729836" lon="7.016664985567331">
        <ele>19.84</ele>
        <time>2025-05-18T13:41:18Z</time>
      </trkpt>
      <trkpt lat="43.560828985646367" lon="7.016673032194376">
        <ele>19.359999999999999</ele>
        <time>2025-05-18T13:41:19Z</time>
      </trkpt>
      <trkpt lat="43.560757990926504" lon="7.016680995002389">
        <ele>19.359999999999999</ele>
        <time>2025-05-18T13:41:20Z</time>
      </trkpt>
      <trkpt lat="43.560683978721499" lon="7.016685018315911">
        <ele>18.879999999999999</ele>
        <time>2025-05-18T13:41:21Z</time>
      </trkpt>
      <trkpt lat="43.560606027022004" lon="7.016689041629434">
        <ele>18.879999999999999</ele>
        <time>2025-05-18T13:41:22Z</time>
      </trkpt>
      <trkpt lat="43.560539977625012" lon="7.016691975295544">
        <ele>19.359999999999999</ele>
        <time>2025-05-18T13:41:23Z</time>
      </trkpt>
      <trkpt lat="43.560479963198304" lon="7.016694992780685">
        <ele>19.359999999999999</ele>
        <time>2025-05-18T13:41:24Z</time>
      </trkpt>
      <trkpt lat="43.56042698957026" lon="7.016698010265827">
        <ele>19.84</ele>
        <time>2025-05-18T13:41:25Z</time>
      </trkpt>
      <trkpt lat="43.560372004285455" lon="7.016701027750969">
        <ele>20.32</ele>
        <time>2025-05-18T13:41:26Z</time>
      </trkpt>
      <trkpt lat="43.560311989858747" lon="7.016703961417079">
        <ele>20.809999999999999</ele>
        <time>2025-05-18T13:41:27Z</time>
      </trkpt>
      <trkpt lat="43.560248035937548" lon="7.016707984730601">
        <ele>21.289999999999999</ele>
        <time>2025-05-18T13:41:28Z</time>
      </trkpt>
      <trkpt lat="43.559935977682471" lon="7.01672499999404">
        <ele>23.210000000000001</ele>
        <time>2025-05-18T13:41:32Z</time>
      </trkpt>
      <trkpt lat="43.55933197773993" lon="7.01674503274262">
        <ele>27.050000000000001</ele>
        <time>2025-05-18T13:41:39Z</time>
      </trkpt>
      <trkpt lat="43.55933197773993" lon="7.01674503274262">
        <ele>27.050000000000001</ele>
        <time>2025-05-18T13:41:40Z</time>
      </trkpt>
      <trkpt lat="43.559293001890182" lon="7.01674796640873">
        <ele>27.050000000000001</ele>
        <time>2025-05-18T13:41:41Z</time>
      </trkpt>
      <trkpt lat="43.559041963890195" lon="7.016772022470832">
        <ele>28.5</ele>
        <time>2025-05-18T13:41:45Z</time>
      </trkpt>
      <trkpt lat="43.558975998312235" lon="7.016778979450464">
        <ele>28.98</ele>
        <time>2025-05-18T13:41:46Z</time>
      </trkpt>
      <trkpt lat="43.558785980567336" lon="7.016793983057141">
        <ele>29.940000000000001</ele>
        <time>2025-05-18T13:41:49Z</time>
      </trkpt>
      <trkpt lat="43.558738958090544" lon="7.016798006370664">
        <ele>29.940000000000001</ele>
        <time>2025-05-18T13:41:50Z</time>
      </trkpt>
      <trkpt lat="43.558705011382699" lon="7.016800018027425">
        <ele>30.420000000000002</ele>
        <time>2025-05-18T13:41:51Z</time>
      </trkpt>
      <trkpt lat="43.558679027482867" lon="7.016802029684186">
        <ele>31.859999999999999</ele>
        <time>2025-05-18T13:42:00Z</time>
      </trkpt>
      <trkpt lat="43.558636028319597" lon="7.016804963350296">
        <ele>32.340000000000003</ele>
        <time>2025-05-18T13:42:02Z</time>
      </trkpt>
      <trkpt lat="43.558450033888221" lon="7.016808986663818">
        <ele>33.780000000000001</ele>
        <time>2025-05-18T13:42:06Z</time>
      </trkpt>
      <trkpt lat="43.558398988097906" lon="7.016808986663818">
        <ele>33.780000000000001</ele>
        <time>2025-05-18T13:42:07Z</time>
      </trkpt>
      <trkpt lat="43.558355988934636" lon="7.016808986663818">
        <ele>34.259999999999998</ele>
        <time>2025-05-18T13:42:08Z</time>
      </trkpt>
      <trkpt lat="43.558323970064521" lon="7.016808986663818">
        <ele>34.259999999999998</ele>
        <time>2025-05-18T13:42:09Z</time>
      </trkpt>
      <trkpt lat="43.558291029185057" lon="7.016807980835438">
        <ele>34.259999999999998</ele>
        <time>2025-05-18T13:42:10Z</time>
      </trkpt>
      <trkpt lat="43.558215005323291" lon="7.016804041340947">
        <ele>35.229999999999997</ele>
        <time>2025-05-18T13:42:14Z</time>
      </trkpt>
      <trkpt lat="43.558215005323291" lon="7.016804041340947">
        <ele>35.229999999999997</ele>
        <time>2025-05-18T13:42:15Z</time>
      </trkpt>
      <trkpt lat="43.55808399617672" lon="7.016798006370664">
        <ele>36.670000000000002</ele>
        <time>2025-05-18T13:42:27Z</time>
      </trkpt>
      <trkpt lat="43.557798005640507" lon="7.016794988885522">
        <ele>35.710000000000001</ele>
        <time>2025-05-18T13:42:38Z</time>
      </trkpt>
      <trkpt lat="43.557704966515303" lon="7.016804041340947">
        <ele>34.740000000000002</ele>
        <time>2025-05-18T13:42:40Z</time>
      </trkpt>
      <trkpt lat="43.557382011786103" lon="7.016836982220411">
        <ele>29.940000000000001</ele>
        <time>2025-05-18T13:42:50Z</time>
      </trkpt>
      <trkpt lat="43.557382011786103" lon="7.016836982220411">
        <ele>29.940000000000001</ele>
        <time>2025-05-18T13:43:19Z</time>
      </trkpt>
      <trkpt lat="43.557176990434527" lon="7.016852991655469">
        <ele>30.899999999999999</ele>
        <time>2025-05-18T13:43:35Z</time>
      </trkpt>
      <trkpt lat="43.557165004312992" lon="7.01685399748385">
        <ele>31.379999999999999</ele>
        <time>2025-05-18T13:43:50Z</time>
      </trkpt>
      <trkpt lat="43.556937016546726" lon="7.016860032454133">
        <ele>28.98</ele>
        <time>2025-05-18T13:44:01Z</time>
      </trkpt>
      <trkpt lat="43.556886976584792" lon="7.016861038282514">
        <ele>28.98</ele>
        <time>2025-05-18T13:44:02Z</time>
      </trkpt>
      <trkpt lat="43.556740041822195" lon="7.016864977777004">
        <ele>28.02</ele>
        <time>2025-05-18T13:44:05Z</time>
      </trkpt>
      <trkpt lat="43.556692013517022" lon="7.016866989433765">
        <ele>27.530000000000001</ele>
        <time>2025-05-18T13:44:06Z</time>
      </trkpt>
      <trkpt lat="43.556639039888978" lon="7.016867995262146">
        <ele>27.530000000000001</ele>
        <time>2025-05-18T13:44:07Z</time>
      </trkpt>
      <trkpt lat="43.556581037119031" lon="7.016870006918907">
        <ele>27.530000000000001</ele>
        <time>2025-05-18T13:44:08Z</time>
      </trkpt>
      <trkpt lat="43.556520016863942" lon="7.016872018575668">
        <ele>27.530000000000001</ele>
        <time>2025-05-18T13:44:09Z</time>
      </trkpt>
      <trkpt lat="43.556361012160778" lon="7.01687796972692">
        <ele>26.57</ele>
        <time>2025-05-18T13:44:12Z</time>
      </trkpt>
      <trkpt lat="43.556310972198844" lon="7.016880987212062">
        <ele>26.57</ele>
        <time>2025-05-18T13:44:13Z</time>
      </trkpt>
      <trkpt lat="43.556260010227561" lon="7.016882998868823">
        <ele>26.57</ele>
        <time>2025-05-18T13:44:14Z</time>
      </trkpt>
      <trkpt lat="43.556204019114375" lon="7.016886016353965">
        <ele>26.57</ele>
        <time>2025-05-18T13:44:15Z</time>
      </trkpt>
      <trkpt lat="43.556148028001189" lon="7.016889033839107">
        <ele>26.57</ele>
        <time>2025-05-18T13:44:16Z</time>
      </trkpt>
      <trkpt lat="43.556027999147773" lon="7.016894984990358">
        <ele>26.57</ele>
        <time>2025-05-18T13:44:18Z</time>
      </trkpt>
      <trkpt lat="43.555969996377826" lon="7.016902025789022">
        <ele>26.57</ele>
        <time>2025-05-18T13:44:19Z</time>
      </trkpt>
      <trkpt lat="43.555903024971485" lon="7.016909988597035">
        <ele>26.57</ele>
        <time>2025-05-18T13:44:20Z</time>
      </trkpt>
      <trkpt lat="43.555643018335104" lon="7.016935972496867">
        <ele>28.02</ele>
        <time>2025-05-18T13:44:25Z</time>
      </trkpt>
      <trkpt lat="43.555332971736789" lon="7.016925998032093">
        <ele>28.5</ele>
        <time>2025-05-18T13:44:29Z</time>
      </trkpt>
      <trkpt lat="43.554932987317443" lon="7.016945024952292">
        <ele>28.98</ele>
        <time>2025-05-18T13:44:34Z</time>
      </trkpt>
      <trkpt lat="43.554845983162522" lon="7.01696103438735">
        <ele>28.98</ele>
        <time>2025-05-18T13:44:35Z</time>
      </trkpt>
      <trkpt lat="43.554764008149505" lon="7.016965979710221">
        <ele>28.5</ele>
        <time>2025-05-18T13:44:36Z</time>
      </trkpt>
      <trkpt lat="43.554686978459358" lon="7.016971008852124">
        <ele>28.98</ele>
        <time>2025-05-18T13:44:37Z</time>
      </trkpt>
      <trkpt lat="43.554616989567876" lon="7.016975032165647">
        <ele>28.98</ele>
        <time>2025-05-18T13:44:38Z</time>
      </trkpt>
      <trkpt lat="43.554525962099433" lon="7.016980983316898">
        <ele>28.98</ele>
        <time>2025-05-18T13:44:39Z</time>
      </trkpt>
      <trkpt lat="43.554348014295101" lon="7.016980983316898">
        <ele>28.02</ele>
        <time>2025-05-18T13:44:44Z</time>
      </trkpt>
      <trkpt lat="43.554348014295101" lon="7.016980983316898">
        <ele>27.530000000000001</ele>
        <time>2025-05-18T13:44:52Z</time>
      </trkpt>
      <trkpt lat="43.554348014295101" lon="7.016980983316898">
        <ele>26.57</ele>
        <time>2025-05-18T13:45:14Z</time>
      </trkpt>
      <trkpt lat="43.554348014295101" lon="7.016980983316898">
        <ele>26.57</ele>
        <time>2025-05-18T13:45:41Z</time>
      </trkpt>
      <trkpt lat="43.554247012361884" lon="7.016980983316898">
        <ele>28.5</ele>
        <time>2025-05-18T13:46:03Z</time>
      </trkpt>
      <trkpt lat="43.554139975458384" lon="7.017066981643438">
        <ele>28.98</ele>
        <time>2025-05-18T13:46:04Z</time>
      </trkpt>
      <trkpt lat="43.553775027394295" lon="7.017051978036761">
        <ele>28.02</ele>
        <time>2025-05-18T13:46:13Z</time>
      </trkpt>
      <trkpt lat="43.553775027394295" lon="7.017051978036761">
        <ele>28.02</ele>
        <time>2025-05-18T13:46:28Z</time>
      </trkpt>
      <trkpt lat="43.553775027394295" lon="7.017051978036761">
        <ele>28.02</ele>
        <time>2025-05-18T13:47:08Z</time>
      </trkpt>
      <trkpt lat="43.553752982988954" lon="7.017045021057129">
        <ele>29.460000000000001</ele>
        <time>2025-05-18T13:47:47Z</time>
      </trkpt>
      <trkpt lat="43.553708977997303" lon="7.01702599413693">
        <ele>29.940000000000001</ele>
        <time>2025-05-18T13:48:01Z</time>
      </trkpt>
      <trkpt lat="43.553708977997303" lon="7.01702599413693">
        <ele>29.940000000000001</ele>
        <time>2025-05-18T13:48:29Z</time>
      </trkpt>
      <trkpt lat="43.553708977997303" lon="7.01702599413693">
        <ele>29.460000000000001</ele>
        <time>2025-05-18T13:49:17Z</time>
      </trkpt>
      <trkpt lat="43.553662039339542" lon="7.01700596138835">
        <ele>28.98</ele>
        <time>2025-05-18T13:49:51Z</time>
      </trkpt>
      <trkpt lat="43.553662039339542" lon="7.01700596138835">
        <ele>28.98</ele>
        <time>2025-05-18T13:50:28Z</time>
      </trkpt>
      <trkpt lat="43.553662039339542" lon="7.01700596138835">
        <ele>27.050000000000001</ele>
        <time>2025-05-18T13:51:01Z</time>
      </trkpt>
      <trkpt lat="43.553662039339542" lon="7.01700596138835">
        <ele>26.57</ele>
        <time>2025-05-18T13:51:53Z</time>
      </trkpt>
      <trkpt lat="43.553546033799648" lon="7.016934966668487">
        <ele>24.170000000000002</ele>
        <time>2025-05-18T13:52:05Z</time>
      </trkpt>
      <trkpt lat="43.553495993837714" lon="7.016894984990358">
        <ele>23.690000000000001</ele>
        <time>2025-05-18T13:52:06Z</time>
      </trkpt>
      <trkpt lat="43.553495993837714" lon="7.016894984990358">
        <ele>23.210000000000001</ele>
        <time>2025-05-18T13:52:07Z</time>
      </trkpt>
      <trkpt lat="43.553495993837714" lon="7.016894984990358">
        <ele>23.210000000000001</ele>
        <time>2025-05-18T13:52:08Z</time>
      </trkpt>
      <trkpt lat="43.553481996059418" lon="7.016904037445784">
        <ele>22.73</ele>
        <time>2025-05-18T13:52:09Z</time>
      </trkpt>
      <trkpt lat="43.553481996059418" lon="7.016904037445784">
        <ele>22.25</ele>
        <time>2025-05-18T13:52:10Z</time>
      </trkpt>
      <trkpt lat="43.553481996059418" lon="7.016904037445784">
        <ele>21.77</ele>
        <time>2025-05-18T13:52:25Z</time>
      </trkpt>
      <trkpt lat="43.553481996059418" lon="7.016904037445784">
        <ele>21.77</ele>
        <time>2025-05-18T13:53:11Z</time>
      </trkpt>
      <trkpt lat="43.553458023816347" lon="7.016921974718571">
        <ele>21.289999999999999</ele>
        <time>2025-05-18T13:53:36Z</time>
      </trkpt>
      <trkpt lat="43.553440002724528" lon="7.016934966668487">
        <ele>20.809999999999999</ele>
        <time>2025-05-18T13:53:37Z</time>
      </trkpt>
      <trkpt lat="43.553415024653077" lon="7.016951981931925">
        <ele>20.809999999999999</ele>
        <time>2025-05-18T13:53:38Z</time>
      </trkpt>
      <trkpt lat="43.553389962762594" lon="7.016970003023744">
        <ele>20.809999999999999</ele>
        <time>2025-05-18T13:53:39Z</time>
      </trkpt>
      <trkpt lat="43.553362973034382" lon="7.016990035772324">
        <ele>21.289999999999999</ele>
        <time>2025-05-18T13:53:40Z</time>
      </trkpt>
      <trkpt lat="43.553321985527873" lon="7.01700696721673">
        <ele>21.77</ele>
        <time>2025-05-18T13:53:41Z</time>
      </trkpt>
      <trkpt lat="43.553242022171617" lon="7.01702599413693">
        <ele>24.649999999999999</ele>
        <time>2025-05-18T13:53:50Z</time>
      </trkpt>
      <trkpt lat="43.553242022171617" lon="7.01702599413693">
        <ele>24.649999999999999</ele>
        <time>2025-05-18T13:54:11Z</time>
      </trkpt>
      <trkpt lat="43.553242022171617" lon="7.01702599413693">
        <ele>25.129999999999999</ele>
        <time>2025-05-18T13:54:40Z</time>
      </trkpt>
      <trkpt lat="43.5531410202384" lon="7.01704996638">
        <ele>29.460000000000001</ele>
        <time>2025-05-18T13:55:13Z</time>
      </trkpt>
      <trkpt lat="43.5531410202384" lon="7.01704996638">
        <ele>32.340000000000003</ele>
        <time>2025-05-18T13:55:25Z</time>
      </trkpt>
      <trkpt lat="43.5531410202384" lon="7.01704996638">
        <ele>33.299999999999997</ele>
        <time>2025-05-18T13:55:41Z</time>
      </trkpt>
      <trkpt lat="43.5531410202384" lon="7.01704996638">
        <ele>33.299999999999997</ele>
        <time>2025-05-18T13:56:03Z</time>
      </trkpt>
      <trkpt lat="43.5531410202384" lon="7.01704996638">
        <ele>35.229999999999997</ele>
        <time>2025-05-18T13:56:27Z</time>
      </trkpt>
      <trkpt lat="43.552975980564952" lon="7.01708902604878">
        <ele>35.229999999999997</ele>
        <time>2025-05-18T13:56:37Z</time>
      </trkpt>
      <trkpt lat="43.552934993058443" lon="7.017097994685173">
        <ele>35.710000000000001</ele>
        <time>2025-05-18T13:56:38Z</time>
      </trkpt>
      <trkpt lat="43.552589993923903" lon="7.01717896386981">
        <ele>29.460000000000001</ele>
        <time>2025-05-18T13:56:52Z</time>
      </trkpt>
      <trkpt lat="43.552589993923903" lon="7.01717896386981">
        <ele>29.460000000000001</ele>
        <time>2025-05-18T13:57:14Z</time>
      </trkpt>
      <trkpt lat="43.552589993923903" lon="7.01717896386981">
        <ele>29.940000000000001</ele>
        <time>2025-05-18T13:57:48Z</time>
      </trkpt>
      <trkpt lat="43.552589993923903" lon="7.01717896386981">
        <ele>28.5</ele>
        <time>2025-05-18T13:58:09Z</time>
      </trkpt>
      <trkpt lat="43.552589993923903" lon="7.01717896386981">
        <ele>28.5</ele>
        <time>2025-05-18T13:58:36Z</time>
      </trkpt>
      <trkpt lat="43.552589993923903" lon="7.01717896386981">
        <ele>27.530000000000001</ele>
        <time>2025-05-18T13:59:14Z</time>
      </trkpt>
      <trkpt lat="43.552399976179004" lon="7.017222968861461">
        <ele>20.809999999999999</ele>
        <time>2025-05-18T13:59:43Z</time>
      </trkpt>
      <trkpt lat="43.552249018102884" lon="7.017252976074815">
        <ele>17.440000000000001</ele>
        <time>2025-05-18T13:59:50Z</time>
      </trkpt>
      <trkpt lat="43.552249018102884" lon="7.017252976074815">
        <ele>16.960000000000001</ele>
        <time>2025-05-18T14:00:13Z</time>
      </trkpt>
      <trkpt lat="43.552249018102884" lon="7.017252976074815">
        <ele>16.960000000000001</ele>
        <time>2025-05-18T14:00:34Z</time>
      </trkpt>
      <trkpt lat="43.552199983969331" lon="7.01726102270186">
        <ele>14.08</ele>
        <time>2025-05-18T14:00:48Z</time>
      </trkpt>
      <trkpt lat="43.552199983969331" lon="7.01726102270186">
        <ele>13.119999999999999</ele>
        <time>2025-05-18T14:01:10Z</time>
      </trkpt>
      <trkpt lat="43.552199983969331" lon="7.01726102270186">
        <ele>13.119999999999999</ele>
        <time>2025-05-18T14:01:38Z</time>
      </trkpt>
      <trkpt lat="43.552199983969331" lon="7.01726102270186">
        <ele>12.630000000000001</ele>
        <time>2025-05-18T14:01:47Z</time>
      </trkpt>
      <trkpt lat="43.552039973437786" lon="7.017288012430072">
        <ele>11.19</ele>
        <time>2025-05-18T14:01:58Z</time>
      </trkpt>
      <trkpt lat="43.552039973437786" lon="7.017288012430072">
        <ele>10.23</ele>
        <time>2025-05-18T14:02:24Z</time>
      </trkpt>
      <trkpt lat="43.551951041445136" lon="7.017303016036749">
        <ele>9.75</ele>
        <time>2025-05-18T14:02:47Z</time>
      </trkpt>
      <trkpt lat="43.551944000646472" lon="7.01730402186513">
        <ele>9.27</ele>
        <time>2025-05-18T14:02:56Z</time>
      </trkpt>
      <trkpt lat="43.551927991211414" lon="7.017306033521891">
        <ele>8.789999999999999</ele>
        <time>2025-05-18T14:02:57Z</time>
      </trkpt>
      <trkpt lat="43.551927991211414" lon="7.017306033521891">
        <ele>7.35</ele>
        <time>2025-05-18T14:03:08Z</time>
      </trkpt>
      <trkpt lat="43.551879040896893" lon="7.017313996329904">
        <ele>6.87</ele>
        <time>2025-05-18T14:03:18Z</time>
      </trkpt>
      <trkpt lat="43.551879040896893" lon="7.017313996329904">
        <ele>5.91</ele>
        <time>2025-05-18T14:03:32Z</time>
      </trkpt>
      <trkpt lat="43.551692962646484" lon="7.017346015200019">
        <ele>2.54</ele>
        <time>2025-05-18T14:03:47Z</time>
      </trkpt>
      <trkpt lat="43.551692962646484" lon="7.017346015200019">
        <ele>2.06</ele>
        <time>2025-05-18T14:03:58Z</time>
      </trkpt>
      <trkpt lat="43.551692962646484" lon="7.017346015200019">
        <ele>2.54</ele>
        <time>2025-05-18T14:04:12Z</time>
      </trkpt>
      <trkpt lat="43.55159598402679" lon="7.017346015200019">
        <ele>2.54</ele>
        <time>2025-05-18T14:04:35Z</time>
      </trkpt>
      <trkpt lat="43.55159598402679" lon="7.017346015200019">
        <ele>0.62</ele>
        <time>2025-05-18T14:04:52Z</time>
      </trkpt>
      <trkpt lat="43.551415018737316" lon="7.017346015200019">
        <ele>-0.34</ele>
        <time>2025-05-18T14:05:13Z</time>
      </trkpt>
      <trkpt lat="43.55136196129024" lon="7.017635023221374">
        <ele>-1.3</ele>
        <time>2025-05-18T14:05:23Z</time>
      </trkpt>
      <trkpt lat="43.551285015419126" lon="7.017901986837387">
        <ele>-1.79</ele>
        <time>2025-05-18T14:05:27Z</time>
      </trkpt>
      <trkpt lat="43.551271017640829" lon="7.017954960465431">
        <ele>-1.79</ele>
        <time>2025-05-18T14:05:28Z</time>
      </trkpt>
      <trkpt lat="43.551260959357023" lon="7.017997037619352">
        <ele>-1.79</ele>
        <time>2025-05-18T14:05:29Z</time>
      </trkpt>
      <trkpt lat="43.551248973235488" lon="7.018039030954242">
        <ele>-1.3</ele>
        <time>2025-05-18T14:05:30Z</time>
      </trkpt>
      <trkpt lat="43.551240004599094" lon="7.018074989318848">
        <ele>-1.3</ele>
        <time>2025-05-18T14:05:31Z</time>
      </trkpt>
      <trkpt lat="43.551217960193753" lon="7.018157970160246">
        <ele>-0.82</ele>
        <time>2025-05-18T14:05:34Z</time>
      </trkpt>
      <trkpt lat="43.551217960193753" lon="7.018157970160246">
        <ele>-0.34</ele>
        <time>2025-05-18T14:05:35Z</time>
      </trkpt>
      <trkpt lat="43.551217960193753" lon="7.018157970160246">
        <ele>0.14</ele>
        <time>2025-05-18T14:05:36Z</time>
      </trkpt>
      <trkpt lat="43.551202034577727" lon="7.018223013728857">
        <ele>0.14</ele>
        <time>2025-05-18T14:05:37Z</time>
      </trkpt>
      <trkpt lat="43.551190970465541" lon="7.018261989578605">
        <ele>0.14</ele>
        <time>2025-05-18T14:05:38Z</time>
      </trkpt>
      <trkpt lat="43.551033977419138" lon="7.018713019788265">
        <ele>-1.3</ele>
        <time>2025-05-18T14:05:44Z</time>
      </trkpt>
      <trkpt lat="43.551008999347687" lon="7.018782002851367">
        <ele>-1.79</ele>
        <time>2025-05-18T14:05:45Z</time>
      </trkpt>
      <trkpt lat="43.550990978255868" lon="7.018831958994269">
        <ele>-2.27</ele>
        <time>2025-05-18T14:05:46Z</time>
      </trkpt>
      <trkpt lat="43.550867009907961" lon="7.019216017797589">
        <ele>-10.92</ele>
        <time>2025-05-18T14:05:55Z</time>
      </trkpt>
      <trkpt lat="43.550847982987761" lon="7.019278965890408">
        <ele>-11.880000000000001</ele>
        <time>2025-05-18T14:05:56Z</time>
      </trkpt>
      <trkpt lat="43.550828034058213" lon="7.019349038600922">
        <ele>-12.84</ele>
        <time>2025-05-18T14:05:57Z</time>
      </trkpt>
      <trkpt lat="43.550786962732673" lon="7.019499996677041">
        <ele>-13.800000000000001</ele>
        <time>2025-05-18T14:05:59Z</time>
      </trkpt>
      <trkpt lat="43.550774976611137" lon="7.019573003053665">
        <ele>-14.279999999999999</ele>
        <time>2025-05-18T14:06:00Z</time>
      </trkpt>
      <trkpt lat="43.550762990489602" lon="7.019642991945148">
        <ele>-14.76</ele>
        <time>2025-05-18T14:06:01Z</time>
      </trkpt>
      <trkpt lat="43.550753016024828" lon="7.019706023856998">
        <ele>-15.24</ele>
        <time>2025-05-18T14:06:02Z</time>
      </trkpt>
      <trkpt lat="43.550744969397783" lon="7.019751034677029">
        <ele>-15.24</ele>
        <time>2025-05-18T14:06:03Z</time>
      </trkpt>
      <trkpt lat="43.550741029903293" lon="7.019780036062002">
        <ele>-16.210000000000001</ele>
        <time>2025-05-18T14:06:04Z</time>
      </trkpt>
      <trkpt lat="43.550734994933009" lon="7.019810965284705">
        <ele>-16.210000000000001</ele>
        <time>2025-05-18T14:06:05Z</time>
      </trkpt>
      <trkpt lat="43.550729965791106" lon="7.01984197832644">
        <ele>-16.210000000000001</ele>
        <time>2025-05-18T14:06:06Z</time>
      </trkpt>
      <trkpt lat="43.550723008811474" lon="7.019883971661329">
        <ele>-15.720000000000001</ele>
        <time>2025-05-18T14:06:07Z</time>
      </trkpt>
      <trkpt lat="43.550712028518319" lon="7.01994901522994">
        <ele>-15.720000000000001</ele>
        <time>2025-05-18T14:06:08Z</time>
      </trkpt>
      <trkpt lat="43.550701970234513" lon="7.020041970536113">
        <ele>-15.720000000000001</ele>
        <time>2025-05-18T14:06:09Z</time>
      </trkpt>
      <trkpt lat="43.550697024911642" lon="7.02012101188302">
        <ele>-14.76</ele>
        <time>2025-05-18T14:06:10Z</time>
      </trkpt>
      <trkpt lat="43.550690989941359" lon="7.020203992724419">
        <ele>-14.279999999999999</ele>
        <time>2025-05-18T14:06:11Z</time>
      </trkpt>
      <trkpt lat="43.550685960799456" lon="7.020279010757804">
        <ele>-13.32</ele>
        <time>2025-05-18T14:06:12Z</time>
      </trkpt>
      <trkpt lat="43.550667017698288" lon="7.020557038486004">
        <ele>-10.44</ele>
        <time>2025-05-18T14:06:18Z</time>
      </trkpt>
      <trkpt lat="43.550662994384766" lon="7.020608000457287">
        <ele>-9.960000000000001</ele>
        <time>2025-05-18T14:06:19Z</time>
      </trkpt>
      <trkpt lat="43.550647990778089" lon="7.020732974633575">
        <ele>-9</ele>
        <time>2025-05-18T14:06:21Z</time>
      </trkpt>
      <trkpt lat="43.55060800909996" lon="7.021054001525044">
        <ele>-7.55</ele>
        <time>2025-05-18T14:06:26Z</time>
      </trkpt>
      <trkpt lat="43.550599962472916" lon="7.021115021780133">
        <ele>-7.55</ele>
        <time>2025-05-18T14:06:27Z</time>
      </trkpt>
      <trkpt lat="43.550578001886606" lon="7.021293975412846">
        <ele>-6.59</ele>
        <time>2025-05-18T14:06:29Z</time>
      </trkpt>
      <trkpt lat="43.550492003560066" lon="7.021636962890625">
        <ele>-3.71</ele>
        <time>2025-05-18T14:06:39Z</time>
      </trkpt>
      <trkpt lat="43.550475994125009" lon="7.021728996187449">
        <ele>-2.75</ele>
        <time>2025-05-18T14:06:52Z</time>
      </trkpt>
      <trkpt lat="43.550408016890287" lon="7.022122023627162">
        <ele>-1.3</ele>
        <time>2025-05-18T14:07:01Z</time>
      </trkpt>
      <trkpt lat="43.55032604187727" lon="7.022598031908274">
        <ele>-0.34</ele>
        <time>2025-05-18T14:07:13Z</time>
      </trkpt>
      <trkpt lat="43.550277007743716" lon="7.022882010787725">
        <ele>1.1</ele>
        <time>2025-05-18T14:07:23Z</time>
      </trkpt>
      <trkpt lat="43.550212970003486" lon="7.023203037679195">
        <ele>1.1</ele>
        <time>2025-05-18T14:07:32Z</time>
      </trkpt>
      <trkpt lat="43.550196960568428" lon="7.023284006863833">
        <ele>1.1</ele>
        <time>2025-05-18T14:07:33Z</time>
      </trkpt>
      <trkpt lat="43.550163013860583" lon="7.023462038487196">
        <ele>1.58</ele>
        <time>2025-05-18T14:07:36Z</time>
      </trkpt>
      <trkpt lat="43.550152033567429" lon="7.023520041257143">
        <ele>1.1</ele>
        <time>2025-05-18T14:07:37Z</time>
      </trkpt>
      <trkpt lat="43.550140969455242" lon="7.023576032370329">
        <ele>1.1</ele>
        <time>2025-05-18T14:07:38Z</time>
      </trkpt>
      <trkpt lat="43.550129989162087" lon="7.023635962978005">
        <ele>1.1</ele>
        <time>2025-05-18T14:07:39Z</time>
      </trkpt>
      <trkpt lat="43.550118003040552" lon="7.023694971576333">
        <ele>0.62</ele>
        <time>2025-05-18T14:07:40Z</time>
      </trkpt>
      <trkpt lat="43.550106016919017" lon="7.023759009316564">
        <ele>0.62</ele>
        <time>2025-05-18T14:07:41Z</time>
      </trkpt>
      <trkpt lat="43.55009201914072" lon="7.023826986551285">
        <ele>0.62</ele>
        <time>2025-05-18T14:07:42Z</time>
      </trkpt>
      <trkpt lat="43.550081038847566" lon="7.023887000977993">
        <ele>0.62</ele>
        <time>2025-05-18T14:07:43Z</time>
      </trkpt>
      <trkpt lat="43.550068968906999" lon="7.023947015404701">
        <ele>0.14</ele>
        <time>2025-05-18T14:07:44Z</time>
      </trkpt>
      <trkpt lat="43.550056982785463" lon="7.024014992639422">
        <ele>0.14</ele>
        <time>2025-05-18T14:07:45Z</time>
      </trkpt>
      <trkpt lat="43.55004801414907" lon="7.024077018722892">
        <ele>0.14</ele>
        <time>2025-05-18T14:07:46Z</time>
      </trkpt>
      <trkpt lat="43.550040973350406" lon="7.024125969037414">
        <ele>0.14</ele>
        <time>2025-05-18T14:07:47Z</time>
      </trkpt>
      <trkpt lat="43.550038039684296" lon="7.024136027321219">
        <ele>-0.34</ele>
        <time>2025-05-18T14:07:48Z</time>
      </trkpt>
      <trkpt lat="43.549965033307672" lon="7.024369966238737">
        <ele>-1.79</ele>
        <time>2025-05-18T14:07:55Z</time>
      </trkpt>
      <trkpt lat="43.549931002780795" lon="7.024483038112521">
        <ele>-2.27</ele>
        <time>2025-05-18T14:07:57Z</time>
      </trkpt>
      <trkpt lat="43.549918010830879" lon="7.024538023397327">
        <ele>-2.27</ele>
        <time>2025-05-18T14:07:58Z</time>
      </trkpt>
      <trkpt lat="43.549905018880963" lon="7.024590997025371">
        <ele>-2.75</ele>
        <time>2025-05-18T14:07:59Z</time>
      </trkpt>
      <trkpt lat="43.549893032759428" lon="7.024641036987305">
        <ele>-2.75</ele>
        <time>2025-05-18T14:08:00Z</time>
      </trkpt>
      <trkpt lat="43.549880962818861" lon="7.024689987301827">
        <ele>-3.23</ele>
        <time>2025-05-18T14:08:01Z</time>
      </trkpt>
      <trkpt lat="43.549869982525706" lon="7.024738015606999">
        <ele>-3.23</ele>
        <time>2025-05-18T14:08:02Z</time>
      </trkpt>
      <trkpt lat="43.549860008060932" lon="7.024781014770269">
        <ele>-3.23</ele>
        <time>2025-05-18T14:08:03Z</time>
      </trkpt>
      <trkpt lat="43.549849027767777" lon="7.024824013933539">
        <ele>-3.23</ele>
        <time>2025-05-18T14:08:04Z</time>
      </trkpt>
      <trkpt lat="43.549800999462605" lon="7.025013025850058">
        <ele>2.06</ele>
        <time>2025-05-18T14:08:12Z</time>
      </trkpt>
      <trkpt lat="43.549800999462605" lon="7.025013025850058">
        <ele>2.06</ele>
        <time>2025-05-18T14:08:41Z</time>
      </trkpt>
      <trkpt lat="43.549800999462605" lon="7.025013025850058">
        <ele>2.54</ele>
        <time>2025-05-18T14:08:55Z</time>
      </trkpt>
      <trkpt lat="43.549800999462605" lon="7.025013025850058">
        <ele>9.75</ele>
        <time>2025-05-18T14:08:57Z</time>
      </trkpt>
      <trkpt lat="43.54976998642087" lon="7.02512601390481">
        <ele>11.19</ele>
        <time>2025-05-18T14:08:58Z</time>
      </trkpt>
      <trkpt lat="43.549763029441237" lon="7.025149986147881">
        <ele>12.15</ele>
        <time>2025-05-18T14:08:59Z</time>
      </trkpt>
      <trkpt lat="43.549753976985812" lon="7.025184016674757">
        <ele>12.630000000000001</ele>
        <time>2025-05-18T14:09:00Z</time>
      </trkpt>
      <trkpt lat="43.549740985035896" lon="7.025230033323169">
        <ele>13.119999999999999</ele>
        <time>2025-05-18T14:09:01Z</time>
      </trkpt>
      <trkpt lat="43.549516014754772" lon="7.025969987735152">
        <ele>10.710000000000001</ele>
        <time>2025-05-18T14:09:12Z</time>
      </trkpt>
      <trkpt lat="43.549491036683321" lon="7.026048023253679">
        <ele>11.19</ele>
        <time>2025-05-18T14:09:13Z</time>
      </trkpt>
      <trkpt lat="43.54944602586329" lon="7.026184983551502">
        <ele>11.19</ele>
        <time>2025-05-18T14:09:15Z</time>
      </trkpt>
      <trkpt lat="43.549377964809537" lon="7.0263940282166">
        <ele>12.630000000000001</ele>
        <time>2025-05-18T14:09:21Z</time>
      </trkpt>
      <trkpt lat="43.549366984516382" lon="7.026425041258335">
        <ele>12.630000000000001</ele>
        <time>2025-05-18T14:09:22Z</time>
      </trkpt>
      <trkpt lat="43.549356004223228" lon="7.026456976309419">
        <ele>12.630000000000001</ele>
        <time>2025-05-18T14:09:23Z</time>
      </trkpt>
      <trkpt lat="43.549346029758453" lon="7.026483966037631">
        <ele>12.630000000000001</ele>
        <time>2025-05-18T14:09:24Z</time>
      </trkpt>
      <trkpt lat="43.549337983131409" lon="7.026508022099733">
        <ele>12.630000000000001</ele>
        <time>2025-05-18T14:09:25Z</time>
      </trkpt>
      <trkpt lat="43.549332031980157" lon="7.026525037363172">
        <ele>12.630000000000001</ele>
        <time>2025-05-18T14:09:26Z</time>
      </trkpt>
      <trkpt lat="43.549323985353112" lon="7.0265459921211">
        <ele>12.630000000000001</ele>
        <time>2025-05-18T14:09:27Z</time>
      </trkpt>
      <trkpt lat="43.549315016716719" lon="7.026570970192552">
        <ele>13.119999999999999</ele>
        <time>2025-05-18T14:09:28Z</time>
      </trkpt>
      <trkpt lat="43.549305964261293" lon="7.026597037911415">
        <ele>13.119999999999999</ele>
        <time>2025-05-18T14:09:29Z</time>
      </trkpt>
      <trkpt lat="43.549299007281661" lon="7.026615981012583">
        <ele>13.6</ele>
        <time>2025-05-18T14:09:30Z</time>
      </trkpt>
      <trkpt lat="43.549269000068307" lon="7.026700973510742">
        <ele>13.6</ele>
        <time>2025-05-18T14:09:31Z</time>
      </trkpt>
      <trkpt lat="43.549229018390179" lon="7.026811027899385">
        <ele>15.52</ele>
        <time>2025-05-18T14:09:43Z</time>
      </trkpt>
      <trkpt lat="43.549114018678665" lon="7.027126019820571">
        <ele>14.56</ele>
        <time>2025-05-18T14:09:50Z</time>
      </trkpt>
      <trkpt lat="43.548925006762147" lon="7.027626000344753">
        <ele>13.119999999999999</ele>
        <time>2025-05-18T14:10:02Z</time>
      </trkpt>
      <trkpt lat="43.548901034519076" lon="7.027687020599842">
        <ele>13.119999999999999</ele>
        <time>2025-05-18T14:10:03Z</time>
      </trkpt>
      <trkpt lat="43.548878990113735" lon="7.027741000056267">
        <ele>13.119999999999999</ele>
        <time>2025-05-18T14:10:04Z</time>
      </trkpt>
      <trkpt lat="43.548859963193536" lon="7.027791040018201">
        <ele>13.119999999999999</ele>
        <time>2025-05-18T14:10:05Z</time>
      </trkpt>
      <trkpt lat="43.548836996778846" lon="7.027848958969116">
        <ele>13.119999999999999</ele>
        <time>2025-05-18T14:10:06Z</time>
      </trkpt>
      <trkpt lat="43.548814030364156" lon="7.027906961739063">
        <ele>13.119999999999999</ele>
        <time>2025-05-18T14:10:07Z</time>
      </trkpt>
      <trkpt lat="43.548793997615576" lon="7.027958007529378">
        <ele>13.119999999999999</ele>
        <time>2025-05-18T14:10:08Z</time>
      </trkpt>
      <trkpt lat="43.548772959038615" lon="7.028010981157422">
        <ele>13.119999999999999</ele>
        <time>2025-05-18T14:10:09Z</time>
      </trkpt>
      <trkpt lat="43.548732977360487" lon="7.02811298891902">
        <ele>13.6</ele>
        <time>2025-05-18T14:10:11Z</time>
      </trkpt>
      <trkpt lat="43.548614960163832" lon="7.028412977233529">
        <ele>15.52</ele>
        <time>2025-05-18T14:10:20Z</time>
      </trkpt>
      <trkpt lat="43.548604985699058" lon="7.028439966961741">
        <ele>15.52</ele>
        <time>2025-05-18T14:10:32Z</time>
      </trkpt>
      <trkpt lat="43.548431983217597" lon="7.028868030756712">
        <ele>15.039999999999999</ele>
        <time>2025-05-18T14:10:42Z</time>
      </trkpt>
      <trkpt lat="43.548363000154495" lon="7.029004991054535">
        <ele>14.08</ele>
        <time>2025-05-18T14:10:45Z</time>
      </trkpt>
      <trkpt lat="43.548213969916105" lon="7.029304979369044">
        <ele>13.6</ele>
        <time>2025-05-18T14:10:53Z</time>
      </trkpt>
      <trkpt lat="43.548203995451331" lon="7.029323000460863">
        <ele>13.6</ele>
        <time>2025-05-18T14:10:54Z</time>
      </trkpt>
      <trkpt lat="43.548195026814938" lon="7.029342027381063">
        <ele>13.119999999999999</ele>
        <time>2025-05-18T14:11:10Z</time>
      </trkpt>
      <trkpt lat="43.548141969367862" lon="7.029448980465531">
        <ele>14.56</ele>
        <time>2025-05-18T14:11:57Z</time>
      </trkpt>
      <trkpt lat="43.548117997124791" lon="7.029492985457182">
        <ele>15.039999999999999</ele>
        <time>2025-05-18T14:12:10Z</time>
      </trkpt>
      <trkpt lat="43.548117997124791" lon="7.029492985457182">
        <ele>14.56</ele>
        <time>2025-05-18T14:12:55Z</time>
      </trkpt>
      <trkpt lat="43.548117997124791" lon="7.029492985457182">
        <ele>14.56</ele>
        <time>2025-05-18T14:13:45Z</time>
      </trkpt>
      <trkpt lat="43.548091007396579" lon="7.029540007933974">
        <ele>13.6</ele>
        <time>2025-05-18T14:14:28Z</time>
      </trkpt>
      <trkpt lat="43.548053037375212" lon="7.029606979340315">
        <ele>13.6</ele>
        <time>2025-05-18T14:14:39Z</time>
      </trkpt>
      <trkpt lat="43.548053037375212" lon="7.029606979340315">
        <ele>13.6</ele>
        <time>2025-05-18T14:15:00Z</time>
      </trkpt>
      <trkpt lat="43.548053037375212" lon="7.029606979340315">
        <ele>10.710000000000001</ele>
        <time>2025-05-18T14:15:13Z</time>
      </trkpt>
      <trkpt lat="43.548053037375212" lon="7.029606979340315">
        <ele>8.310000000000001</ele>
        <time>2025-05-18T14:15:25Z</time>
      </trkpt>
      <trkpt lat="43.547941977158189" lon="7.029804037883878">
        <ele>3.5</ele>
        <time>2025-05-18T14:15:39Z</time>
      </trkpt>
      <trkpt lat="43.547747014090419" lon="7.030151970684528">
        <ele>-1.3</ele>
        <time>2025-05-18T14:15:51Z</time>
      </trkpt>
      <trkpt lat="43.547479966655374" lon="7.030686987563968">
        <ele>-2.75</ele>
        <time>2025-05-18T14:16:00Z</time>
      </trkpt>
      <trkpt lat="43.5474509652704" lon="7.030739961192012">
        <ele>-2.75</ele>
        <time>2025-05-18T14:16:01Z</time>
      </trkpt>
      <trkpt lat="43.547421963885427" lon="7.030794024467468">
        <ele>-3.23</ele>
        <time>2025-05-18T14:16:02Z</time>
      </trkpt>
      <trkpt lat="43.547421963885427" lon="7.030793018639088">
        <ele>-3.71</ele>
        <time>2025-05-18T14:16:03Z</time>
      </trkpt>
      <trkpt lat="43.547397991642356" lon="7.030836017802358">
        <ele>-3.71</ele>
        <time>2025-05-18T14:16:04Z</time>
      </trkpt>
      <trkpt lat="43.547355998307467" lon="7.030914975330234">
        <ele>-3.71</ele>
        <time>2025-05-18T14:16:05Z</time>
      </trkpt>
      <trkpt lat="43.547339988872409" lon="7.030950011685491">
        <ele>-3.71</ele>
        <time>2025-05-18T14:16:06Z</time>
      </trkpt>
      <trkpt lat="43.547320961952209" lon="7.030996028333902">
        <ele>-4.19</ele>
        <time>2025-05-18T14:16:07Z</time>
      </trkpt>
      <trkpt lat="43.547294978052378" lon="7.031056964769959">
        <ele>-3.71</ele>
        <time>2025-05-18T14:16:08Z</time>
      </trkpt>
      <trkpt lat="43.547294978052378" lon="7.031056964769959">
        <ele>-3.23</ele>
        <time>2025-05-18T14:16:09Z</time>
      </trkpt>
      <trkpt lat="43.547257008031011" lon="7.031117985025048">
        <ele>-2.75</ele>
        <time>2025-05-18T14:16:10Z</time>
      </trkpt>
      <trkpt lat="43.547238986939192" lon="7.031145980581641">
        <ele>-1.79</ele>
        <time>2025-05-18T14:16:11Z</time>
      </trkpt>
      <trkpt lat="43.547187019139528" lon="7.031228961423039">
        <ele>-1.3</ele>
        <time>2025-05-18T14:16:12Z</time>
      </trkpt>
      <trkpt lat="43.547207973897457" lon="7.031195014715195">
        <ele>-0.82</ele>
        <time>2025-05-18T14:16:13Z</time>
      </trkpt>
      <trkpt lat="43.547186013311148" lon="7.031230973079801">
        <ele>-0.34</ele>
        <time>2025-05-18T14:16:14Z</time>
      </trkpt>
      <trkpt lat="43.547173021361232" lon="7.031257040798664">
        <ele>0.14</ele>
        <time>2025-05-18T14:16:15Z</time>
      </trkpt>
      <trkpt lat="43.547157011926174" lon="7.031289981678128">
        <ele>0.62</ele>
        <time>2025-05-18T14:16:16Z</time>
      </trkpt>
      <trkpt lat="43.547141002491117" lon="7.031322000548244">
        <ele>1.1</ele>
        <time>2025-05-18T14:16:17Z</time>
      </trkpt>
      <trkpt lat="43.547109989449382" lon="7.031383020803332">
        <ele>1.58</ele>
        <time>2025-05-18T14:16:19Z</time>
      </trkpt>
      <trkpt lat="43.546983003616333" lon="7.031635986641049">
        <ele>5.42</ele>
        <time>2025-05-18T14:16:27Z</time>
      </trkpt>
      <trkpt lat="43.546957019716501" lon="7.031687032431364">
        <ele>5.91</ele>
        <time>2025-05-18T14:16:28Z</time>
      </trkpt>
      <trkpt lat="43.54693204164505" lon="7.031734976917505">
        <ele>5.91</ele>
        <time>2025-05-18T14:16:29Z</time>
      </trkpt>
      <trkpt lat="43.546732971444726" lon="7.032125992700458">
        <ele>5.91</ele>
        <time>2025-05-18T14:16:35Z</time>
      </trkpt>
      <trkpt lat="43.546698018908501" lon="7.032196987420321">
        <ele>5.91</ele>
        <time>2025-05-18T14:16:36Z</time>
      </trkpt>
      <trkpt lat="43.54626702144742" lon="7.033066023141146">
        <ele>8.789999999999999</ele>
        <time>2025-05-18T14:16:46Z</time>
      </trkpt>
      <trkpt lat="43.546172976493835" lon="7.033236008137465">
        <ele>8.789999999999999</ele>
        <time>2025-05-18T14:16:48Z</time>
      </trkpt>
      <trkpt lat="43.546046996489167" lon="7.033467013388872">
        <ele>7.83</ele>
        <time>2025-05-18T14:16:51Z</time>
      </trkpt>
      <trkpt lat="43.546023024246097" lon="7.033520992845297">
        <ele>7.35</ele>
        <time>2025-05-18T14:16:52Z</time>
      </trkpt>
      <trkpt lat="43.546002991497517" lon="7.033567009493709">
        <ele>7.35</ele>
        <time>2025-05-18T14:16:53Z</time>
      </trkpt>
      <trkpt lat="43.545968038961291" lon="7.033644039183855">
        <ele>5.42</ele>
        <time>2025-05-18T14:17:01Z</time>
      </trkpt>
      <trkpt lat="43.545954963192344" lon="7.033716039732099">
        <ele>5.91</ele>
        <time>2025-05-18T14:17:17Z</time>
      </trkpt>
      <trkpt lat="43.545954963192344" lon="7.033716039732099">
        <ele>6.39</ele>
        <time>2025-05-18T14:17:38Z</time>
      </trkpt>
      <trkpt lat="43.54594498872757" lon="7.033786028623581">
        <ele>5.91</ele>
        <time>2025-05-18T14:18:00Z</time>
      </trkpt>
      <trkpt lat="43.545938031747937" lon="7.033839002251625">
        <ele>6.39</ele>
        <time>2025-05-18T14:18:01Z</time>
      </trkpt>
      <trkpt lat="43.545929985120893" lon="7.033897005021572">
        <ele>6.39</ele>
        <time>2025-05-18T14:18:02Z</time>
      </trkpt>
      <trkpt lat="43.545921016484499" lon="7.033954001963139">
        <ele>6.39</ele>
        <time>2025-05-18T14:18:03Z</time>
      </trkpt>
      <trkpt lat="43.545939959585667" lon="7.033972023054957">
        <ele>6.39</ele>
        <time>2025-05-18T14:18:04Z</time>
      </trkpt>
      <trkpt lat="43.545940965414047" lon="7.033973028883338">
        <ele>6.39</ele>
        <time>2025-05-18T14:18:05Z</time>
      </trkpt>
      <trkpt lat="43.545999974012375" lon="7.034032037481666">
        <ele>6.39</ele>
        <time>2025-05-18T14:18:06Z</time>
      </trkpt>
      <trkpt lat="43.546291999518871" lon="7.034329008311033">
        <ele>6.39</ele>
        <time>2025-05-18T14:18:16Z</time>
      </trkpt>
      <trkpt lat="43.546429965645075" lon="7.034604018554092">
        <ele>7.35</ele>
        <time>2025-05-18T14:18:27Z</time>
      </trkpt>
      <trkpt lat="43.546538008376956" lon="7.034964021295309">
        <ele>7.83</ele>
        <time>2025-05-18T14:18:35Z</time>
      </trkpt>
      <trkpt lat="43.546548988670111" lon="7.035025041550398">
        <ele>7.83</ele>
        <time>2025-05-18T14:18:36Z</time>
      </trkpt>
      <trkpt lat="43.546558963134885" lon="7.035550000146031">
        <ele>9.27</ele>
        <time>2025-05-18T14:18:46Z</time>
      </trkpt>
      <trkpt lat="43.546551000326872" lon="7.035646978765726">
        <ele>9.27</ele>
        <time>2025-05-18T14:18:48Z</time>
      </trkpt>
      <trkpt lat="43.546544965356588" lon="7.035715039819479">
        <ele>9.27</ele>
        <time>2025-05-18T14:18:49Z</time>
      </trkpt>
      <trkpt lat="43.546538008376956" lon="7.035791985690594">
        <ele>9.27</ele>
        <time>2025-05-18T14:18:50Z</time>
      </trkpt>
      <trkpt lat="43.546529961749911" lon="7.035881001502276">
        <ele>9.75</ele>
        <time>2025-05-18T14:18:51Z</time>
      </trkpt>
      <trkpt lat="43.546521998941898" lon="7.035971023142338">
        <ele>9.27</ele>
        <time>2025-05-18T14:18:52Z</time>
      </trkpt>
      <trkpt lat="43.546515963971615" lon="7.036142013967037">
        <ele>8.789999999999999</ele>
        <time>2025-05-18T14:18:54Z</time>
      </trkpt>
      <trkpt lat="43.546513030305505" lon="7.036222983151674">
        <ele>9.27</ele>
        <time>2025-05-18T14:18:55Z</time>
      </trkpt>
      <trkpt lat="43.546478999778628" lon="7.037280024960637">
        <ele>11.67</ele>
        <time>2025-05-18T14:19:07Z</time>
      </trkpt>
      <trkpt lat="43.546457961201668" lon="7.037551011890173">
        <ele>13.6</ele>
        <time>2025-05-18T14:19:11Z</time>
      </trkpt>
      <trkpt lat="43.546414962038398" lon="7.037686966359615">
        <ele>14.08</ele>
        <time>2025-05-18T14:19:12Z</time>
      </trkpt>
      <trkpt lat="43.546414040029049" lon="7.037690989673138">
        <ele>14.08</ele>
        <time>2025-05-18T14:19:13Z</time>
      </trkpt>
      <trkpt lat="43.546399036422372" lon="7.037751004099846">
        <ele>14.56</ele>
        <time>2025-05-18T14:19:14Z</time>
      </trkpt>
      <trkpt lat="43.546422002837062" lon="7.037811018526554">
        <ele>14.56</ele>
        <time>2025-05-18T14:19:15Z</time>
      </trkpt>
      <trkpt lat="43.546457039192319" lon="7.037885030731559">
        <ele>14.56</ele>
        <time>2025-05-18T14:19:16Z</time>
      </trkpt>
      <trkpt lat="43.546449998393655" lon="7.038035988807678">
        <ele>14.56</ele>
        <time>2025-05-18T14:19:18Z</time>
      </trkpt>
      <trkpt lat="43.546445975080132" lon="7.038121987134218">
        <ele>14.56</ele>
        <time>2025-05-18T14:19:19Z</time>
      </trkpt>
      <trkpt lat="43.546442035585642" lon="7.038205973803997">
        <ele>14.56</ele>
        <time>2025-05-18T14:19:20Z</time>
      </trkpt>
      <trkpt lat="43.546423008665442" lon="7.038576034829021">
        <ele>15.52</ele>
        <time>2025-05-18T14:19:25Z</time>
      </trkpt>
      <trkpt lat="43.546409010887146" lon="7.038784995675087">
        <ele>16.48</ele>
        <time>2025-05-18T14:19:28Z</time>
      </trkpt>
      <trkpt lat="43.546402975916862" lon="7.038856996223331">
        <ele>16</ele>
        <time>2025-05-18T14:19:29Z</time>
      </trkpt>
      <trkpt lat="43.546398030593991" lon="7.038925979286432">
        <ele>16</ele>
        <time>2025-05-18T14:19:30Z</time>
      </trkpt>
      <trkpt lat="43.546393001452088" lon="7.038994040340185">
        <ele>16</ele>
        <time>2025-05-18T14:19:31Z</time>
      </trkpt>
      <trkpt lat="43.546388978138566" lon="7.039061011746526">
        <ele>16</ele>
        <time>2025-05-18T14:19:32Z</time>
      </trkpt>
      <trkpt lat="43.546371962875128" lon="7.039403999224305">
        <ele>15.039999999999999</ele>
        <time>2025-05-18T14:19:37Z</time>
      </trkpt>
      <trkpt lat="43.546371040865779" lon="7.039433000609279">
        <ele>14.56</ele>
        <time>2025-05-18T14:19:38Z</time>
      </trkpt>
      <trkpt lat="43.546365005895495" lon="7.039555041119456">
        <ele>15.039999999999999</ele>
        <time>2025-05-18T14:19:40Z</time>
      </trkpt>
      <trkpt lat="43.546361988410354" lon="7.039614971727133">
        <ele>15.039999999999999</ele>
        <time>2025-05-18T14:19:41Z</time>
      </trkpt>
      <trkpt lat="43.546358970925212" lon="7.039675991982222">
        <ele>15.039999999999999</ele>
        <time>2025-05-18T14:19:42Z</time>
      </trkpt>
      <trkpt lat="43.546356037259102" lon="7.03973701223731">
        <ele>15.039999999999999</ele>
        <time>2025-05-18T14:19:43Z</time>
      </trkpt>
      <trkpt lat="43.54635301977396" lon="7.03980197198689">
        <ele>15.52</ele>
        <time>2025-05-18T14:19:44Z</time>
      </trkpt>
      <trkpt lat="43.546351008117199" lon="7.039871038869023">
        <ele>16</ele>
        <time>2025-05-18T14:19:45Z</time>
      </trkpt>
      <trkpt lat="43.546347990632057" lon="7.040313016623259">
        <ele>18.879999999999999</ele>
        <time>2025-05-18T14:19:51Z</time>
      </trkpt>
      <trkpt lat="43.546331981197" lon="7.040747031569481">
        <ele>22.25</ele>
        <time>2025-05-18T14:19:59Z</time>
      </trkpt>
      <trkpt lat="43.546290993690491" lon="7.041884958744049">
        <ele>24.170000000000002</ele>
        <time>2025-05-18T14:20:11Z</time>
      </trkpt>
      <trkpt lat="43.546308008953929" lon="7.042155023664236">
        <ele>24.170000000000002</ele>
        <time>2025-05-18T14:20:14Z</time>
      </trkpt>
      <trkpt lat="43.546312032267451" lon="7.042247978970408">
        <ele>24.170000000000002</ele>
        <time>2025-05-18T14:20:15Z</time>
      </trkpt>
      <trkpt lat="43.546367017552257" lon="7.042784001678228">
        <ele>22.73</ele>
        <time>2025-05-18T14:20:21Z</time>
      </trkpt>
      <trkpt lat="43.546388978138566" lon="7.043014001101255">
        <ele>21.77</ele>
        <time>2025-05-18T14:20:24Z</time>
      </trkpt>
      <trkpt lat="43.546397024765611" lon="7.043092036619782">
        <ele>21.77</ele>
        <time>2025-05-18T14:20:25Z</time>
      </trkpt>
      <trkpt lat="43.546449998393655" lon="7.043614983558655">
        <ele>21.289999999999999</ele>
        <time>2025-05-18T14:20:31Z</time>
      </trkpt>
      <trkpt lat="43.546458967030048" lon="7.043705005198717">
        <ele>21.289999999999999</ele>
        <time>2025-05-18T14:20:32Z</time>
      </trkpt>
      <trkpt lat="43.546467013657093" lon="7.043789997696877">
        <ele>20.809999999999999</ele>
        <time>2025-05-18T14:20:33Z</time>
      </trkpt>
      <trkpt lat="43.546533985063434" lon="7.044230969622731">
        <ele>21.289999999999999</ele>
        <time>2025-05-18T14:20:38Z</time>
      </trkpt>
      <trkpt lat="43.546572960913181" lon="7.044300036504865">
        <ele>21.289999999999999</ele>
        <time>2025-05-18T14:20:39Z</time>
      </trkpt>
      <trkpt lat="43.546607997268438" lon="7.044360972940922">
        <ele>21.77</ele>
        <time>2025-05-18T14:20:40Z</time>
      </trkpt>
      <trkpt lat="43.546673962846398" lon="7.044414030387998">
        <ele>21.77</ele>
        <time>2025-05-18T14:20:41Z</time>
      </trkpt>
      <trkpt lat="43.546715034171939" lon="7.044446971267462">
        <ele>21.77</ele>
        <time>2025-05-18T14:20:42Z</time>
      </trkpt>
      <trkpt lat="43.54674001224339" lon="7.044446971267462">
        <ele>21.289999999999999</ele>
        <time>2025-05-18T14:20:43Z</time>
      </trkpt>
      <trkpt lat="43.546759961172938" lon="7.044446971267462">
        <ele>21.289999999999999</ele>
        <time>2025-05-18T14:20:44Z</time>
      </trkpt>
      <trkpt lat="43.546759961172938" lon="7.044446971267462">
        <ele>21.289999999999999</ele>
        <time>2025-05-18T14:20:45Z</time>
      </trkpt>
      <trkpt lat="43.546941010281444" lon="7.044446971267462">
        <ele>21.77</ele>
        <time>2025-05-18T14:20:54Z</time>
      </trkpt>
      <trkpt lat="43.547110995277762" lon="7.044446971267462">
        <ele>21.77</ele>
        <time>2025-05-18T14:20:59Z</time>
      </trkpt>
      <trkpt lat="43.547152988612652" lon="7.044491982087493">
        <ele>21.77</ele>
        <time>2025-05-18T14:21:00Z</time>
      </trkpt>
      <trkpt lat="43.54725600220263" lon="7.044652998447418">
        <ele>22.25</ele>
        <time>2025-05-18T14:21:05Z</time>
      </trkpt>
      <trkpt lat="43.547260025516152" lon="7.044713012874126">
        <ele>21.77</ele>
        <time>2025-05-18T14:21:06Z</time>
      </trkpt>
      <trkpt lat="43.547262959182262" lon="7.044773027300835">
        <ele>21.77</ele>
        <time>2025-05-18T14:21:07Z</time>
      </trkpt>
      <trkpt lat="43.547274023294449" lon="7.044948041439056">
        <ele>21.289999999999999</ele>
        <time>2025-05-18T14:21:10Z</time>
      </trkpt>
      <trkpt lat="43.547283997759223" lon="7.045017024502158">
        <ele>20.809999999999999</ele>
        <time>2025-05-18T14:21:11Z</time>
      </trkpt>
      <trkpt lat="43.547294978052378" lon="7.045090030878782">
        <ele>20.809999999999999</ele>
        <time>2025-05-18T14:21:12Z</time>
      </trkpt>
      <trkpt lat="43.547294978052378" lon="7.045158008113504">
        <ele>20.32</ele>
        <time>2025-05-18T14:21:13Z</time>
      </trkpt>
      <trkpt lat="43.547295983880758" lon="7.045234031975269">
        <ele>20.32</ele>
        <time>2025-05-18T14:21:14Z</time>
      </trkpt>
      <trkpt lat="43.547312999144197" lon="7.045419020578265">
        <ele>20.32</ele>
        <time>2025-05-18T14:21:17Z</time>
      </trkpt>
      <trkpt lat="43.54732196778059" lon="7.045480962842703">
        <ele>20.32</ele>
        <time>2025-05-18T14:21:18Z</time>
      </trkpt>
      <trkpt lat="43.547347029671073" lon="7.045672992244363">
        <ele>19.84</ele>
        <time>2025-05-18T14:21:21Z</time>
      </trkpt>
      <trkpt lat="43.547273017466068" lon="7.046331977471709">
        <ele>18.399999999999999</ele>
        <time>2025-05-18T14:21:29Z</time>
      </trkpt>
      <trkpt lat="43.547305958345532" lon="7.046435996890068">
        <ele>18.399999999999999</ele>
        <time>2025-05-18T14:21:30Z</time>
      </trkpt>
      <trkpt lat="43.547346023842692" lon="7.04650497995317">
        <ele>17.920000000000002</ele>
        <time>2025-05-18T14:21:31Z</time>
      </trkpt>
      <trkpt lat="43.547372007742524" lon="7.046585027128458">
        <ele>17.920000000000002</ele>
        <time>2025-05-18T14:21:32Z</time>
      </trkpt>
      <trkpt lat="43.547389023005962" lon="7.046662978827953">
        <ele>17.440000000000001</ele>
        <time>2025-05-18T14:21:33Z</time>
      </trkpt>
      <trkpt lat="43.547404026612639" lon="7.0467400085181">
        <ele>17.440000000000001</ele>
        <time>2025-05-18T14:21:34Z</time>
      </trkpt>
      <trkpt lat="43.547409977763891" lon="7.046811003237963">
        <ele>16.960000000000001</ele>
        <time>2025-05-18T14:21:35Z</time>
      </trkpt>
      <trkpt lat="43.547416012734175" lon="7.046875040978193">
        <ele>16.960000000000001</ele>
        <time>2025-05-18T14:21:36Z</time>
      </trkpt>
      <trkpt lat="43.547445014119148" lon="7.047228002920747">
        <ele>15.52</ele>
        <time>2025-05-18T14:21:42Z</time>
      </trkpt>
      <trkpt lat="43.547445014119148" lon="7.047291034832597">
        <ele>15.52</ele>
        <time>2025-05-18T14:21:43Z</time>
      </trkpt>
      <trkpt lat="43.547447025775909" lon="7.047361023724079">
        <ele>15.039999999999999</ele>
        <time>2025-05-18T14:21:44Z</time>
      </trkpt>
      <trkpt lat="43.547449037432671" lon="7.047435035929084">
        <ele>15.039999999999999</ele>
        <time>2025-05-18T14:21:45Z</time>
      </trkpt>
      <trkpt lat="43.547451971098781" lon="7.047508964315057">
        <ele>14.56</ele>
        <time>2025-05-18T14:21:46Z</time>
      </trkpt>
      <trkpt lat="43.547454988583922" lon="7.047585994005203">
        <ele>14.56</ele>
        <time>2025-05-18T14:21:47Z</time>
      </trkpt>
      <trkpt lat="43.547488013282418" lon="7.04860900528729">
        <ele>13.6</ele>
        <time>2025-05-18T14:21:57Z</time>
      </trkpt>
      <trkpt lat="43.547379970550537" lon="7.050223024562001">
        <ele>13.6</ele>
        <time>2025-05-18T14:22:08Z</time>
      </trkpt>
      <trkpt lat="43.547477032989264" lon="7.051568990573287">
        <ele>15.039999999999999</ele>
        <time>2025-05-18T14:22:17Z</time>
      </trkpt>
      <trkpt lat="43.54770602658391" lon="7.052911017090082">
        <ele>16.48</ele>
        <time>2025-05-18T14:22:28Z</time>
      </trkpt>
      <trkpt lat="43.548026969656348" lon="7.05378700979054">
        <ele>18.399999999999999</ele>
        <time>2025-05-18T14:22:38Z</time>
      </trkpt>
      <trkpt lat="43.548620995134115" lon="7.054830975830555">
        <ele>21.289999999999999</ele>
        <time>2025-05-18T14:22:48Z</time>
      </trkpt>
      <trkpt lat="43.549442002549767" lon="7.05576203763485">
        <ele>23.210000000000001</ele>
        <time>2025-05-18T14:22:57Z</time>
      </trkpt>
      <trkpt lat="43.550284970551729" lon="7.056420017033815">
        <ele>21.77</ele>
        <time>2025-05-18T14:23:07Z</time>
      </trkpt>
      <trkpt lat="43.551137996837497" lon="7.05701001919806">
        <ele>18.879999999999999</ele>
        <time>2025-05-18T14:23:19Z</time>
      </trkpt>
      <trkpt lat="43.552016001194715" lon="7.057703034952283">
        <ele>19.359999999999999</ele>
        <time>2025-05-18T14:23:30Z</time>
      </trkpt>
      <trkpt lat="43.553003976121545" lon="7.058549020439386">
        <ele>22.73</ele>
        <time>2025-05-18T14:23:41Z</time>
      </trkpt>
      <trkpt lat="43.553927997127175" lon="7.059602038934827">
        <ele>19.359999999999999</ele>
        <time>2025-05-18T14:23:51Z</time>
      </trkpt>
      <trkpt lat="43.555158041417599" lon="7.060936018824577">
        <ele>14.56</ele>
        <time>2025-05-18T14:24:02Z</time>
      </trkpt>
      <trkpt lat="43.556555975228548" lon="7.061971016228199">
        <ele>12.630000000000001</ele>
        <time>2025-05-18T14:24:13Z</time>
      </trkpt>
      <trkpt lat="43.55793203227222" lon="7.062957985326648">
        <ele>15.039999999999999</ele>
        <time>2025-05-18T14:24:25Z</time>
      </trkpt>
      <trkpt lat="43.558324975892901" lon="7.063364004716277">
        <ele>20.32</ele>
        <time>2025-05-18T14:24:33Z</time>
      </trkpt>
      <trkpt lat="43.558906009420753" lon="7.063944032415748">
        <ele>22.25</ele>
        <time>2025-05-18T14:24:40Z</time>
      </trkpt>
      <trkpt lat="43.559936983510852" lon="7.064925972372294">
        <ele>17.440000000000001</ele>
        <time>2025-05-18T14:24:50Z</time>
      </trkpt>
      <trkpt lat="43.561138026416302" lon="7.065825015306473">
        <ele>13.6</ele>
        <time>2025-05-18T14:24:59Z</time>
      </trkpt>
      <trkpt lat="43.562406962737441" lon="7.066453993320465">
        <ele>15.52</ele>
        <time>2025-05-18T14:25:08Z</time>
      </trkpt>
      <trkpt lat="43.563084974884987" lon="7.06685003824532">
        <ele>16.48</ele>
        <time>2025-05-18T14:25:15Z</time>
      </trkpt>
      <trkpt lat="43.563141971826553" lon="7.066912986338139">
        <ele>16</ele>
        <time>2025-05-18T14:25:16Z</time>
      </trkpt>
      <trkpt lat="43.563193017616868" lon="7.06698196940124">
        <ele>16</ele>
        <time>2025-05-18T14:25:17Z</time>
      </trkpt>
      <trkpt lat="43.563281027600169" lon="7.067169975489378">
        <ele>15.52</ele>
        <time>2025-05-18T14:25:19Z</time>
      </trkpt>
      <trkpt lat="43.563416982069612" lon="7.067204006016254">
        <ele>15.52</ele>
        <time>2025-05-18T14:25:20Z</time>
      </trkpt>
      <trkpt lat="43.563644969835877" lon="7.067492008209229">
        <ele>14.56</ele>
        <time>2025-05-18T14:25:23Z</time>
      </trkpt>
      <trkpt lat="43.563725017011166" lon="7.067549005150795">
        <ele>14.08</ele>
        <time>2025-05-18T14:25:24Z</time>
      </trkpt>
      <trkpt lat="43.563904976472259" lon="7.067665010690689">
        <ele>13.6</ele>
        <time>2025-05-18T14:25:26Z</time>
      </trkpt>
      <trkpt lat="43.564663035795093" lon="7.068392978981137">
        <ele>15.039999999999999</ele>
        <time>2025-05-18T14:25:34Z</time>
      </trkpt>
      <trkpt lat="43.564855987206101" lon="7.068603029474616">
        <ele>16</ele>
        <time>2025-05-18T14:25:36Z</time>
      </trkpt>
      <trkpt lat="43.565724017098546" lon="7.069763001054525">
        <ele>14.56</ele>
        <time>2025-05-18T14:25:46Z</time>
      </trkpt>
      <trkpt lat="43.566467994824052" lon="7.070615021511912">
        <ele>16.960000000000001</ele>
        <time>2025-05-18T14:25:54Z</time>
      </trkpt>
      <trkpt lat="43.566562961786985" lon="7.070709988474846">
        <ele>17.440000000000001</ele>
        <time>2025-05-18T14:25:55Z</time>
      </trkpt>
      <trkpt lat="43.566652983427048" lon="7.070800010114908">
        <ele>17.440000000000001</ele>
        <time>2025-05-18T14:25:56Z</time>
      </trkpt>
      <trkpt lat="43.566746022552252" lon="7.070892965421081">
        <ele>17.440000000000001</ele>
        <time>2025-05-18T14:25:57Z</time>
      </trkpt>
      <trkpt lat="43.56682900339365" lon="7.07097502425313">
        <ele>17.440000000000001</ele>
        <time>2025-05-18T14:25:58Z</time>
      </trkpt>
      <trkpt lat="43.566903015598655" lon="7.071049958467484">
        <ele>17.440000000000001</ele>
        <time>2025-05-18T14:25:59Z</time>
      </trkpt>
      <trkpt lat="43.566969987004995" lon="7.071120031177998">
        <ele>17.920000000000002</ele>
        <time>2025-05-18T14:26:00Z</time>
      </trkpt>
      <trkpt lat="43.567025978118181" lon="7.071179961785674">
        <ele>17.920000000000002</ele>
        <time>2025-05-18T14:26:01Z</time>
      </trkpt>
      <trkpt lat="43.56719302944839" lon="7.071357993409038">
        <ele>16.960000000000001</ele>
        <time>2025-05-18T14:26:08Z</time>
      </trkpt>
      <trkpt lat="43.567209960892797" lon="7.071376014500856">
        <ele>16.960000000000001</ele>
        <time>2025-05-18T14:26:20Z</time>
      </trkpt>
      <trkpt lat="43.567511960864067" lon="7.071697963401675">
        <ele>16</ele>
        <time>2025-05-18T14:26:27Z</time>
      </trkpt>
      <trkpt lat="43.567871963605285" lon="7.072229962795973">
        <ele>15.52</ele>
        <time>2025-05-18T14:26:34Z</time>
      </trkpt>
      <trkpt lat="43.568158037960529" lon="7.072860030457377">
        <ele>14.56</ele>
        <time>2025-05-18T14:26:42Z</time>
      </trkpt>
      <trkpt lat="43.5681820102036" lon="7.072918033227325">
        <ele>14.56</ele>
        <time>2025-05-18T14:26:43Z</time>
      </trkpt>
      <trkpt lat="43.568284017965198" lon="7.073174016550183">
        <ele>14.56</ele>
        <time>2025-05-18T14:26:48Z</time>
      </trkpt>
      <trkpt lat="43.568306984379888" lon="7.073235036805272">
        <ele>14.08</ele>
        <time>2025-05-18T14:26:49Z</time>
      </trkpt>
      <trkpt lat="43.568330034613609" lon="7.073295973241329">
        <ele>13.6</ele>
        <time>2025-05-18T14:26:50Z</time>
      </trkpt>
      <trkpt lat="43.568470012396574" lon="7.073651030659676">
        <ele>12.630000000000001</ele>
        <time>2025-05-18T14:26:55Z</time>
      </trkpt>
      <trkpt lat="43.568504964932799" lon="7.07372797653079">
        <ele>12.15</ele>
        <time>2025-05-18T14:26:56Z</time>
      </trkpt>
      <trkpt lat="43.568647960200906" lon="7.074084961786866">
        <ele>10.710000000000001</ele>
        <time>2025-05-18T14:27:00Z</time>
      </trkpt>
      <trkpt lat="43.568695988506079" lon="7.074171965941787">
        <ele>10.23</ele>
        <time>2025-05-18T14:27:01Z</time>
      </trkpt>
      <trkpt lat="43.568746028468013" lon="7.074255030602217">
        <ele>9.75</ele>
        <time>2025-05-18T14:27:02Z</time>
      </trkpt>
      <trkpt lat="43.568796990439296" lon="7.074340023100376">
        <ele>9.27</ele>
        <time>2025-05-18T14:27:03Z</time>
      </trkpt>
      <trkpt lat="43.56884803622961" lon="7.074425015598536">
        <ele>8.789999999999999</ele>
        <time>2025-05-18T14:27:04Z</time>
      </trkpt>
      <trkpt lat="43.568997988477349" lon="7.074661972001195">
        <ele>7.83</ele>
        <time>2025-05-18T14:27:07Z</time>
      </trkpt>
      <trkpt lat="43.569037970155478" lon="7.07475601695478">
        <ele>8.310000000000001</ele>
        <time>2025-05-18T14:27:08Z</time>
      </trkpt>
      <trkpt lat="43.569156993180513" lon="7.075074026361108">
        <ele>10.23</ele>
        <time>2025-05-18T14:27:15Z</time>
      </trkpt>
      <trkpt lat="43.56927802786231" lon="7.075451966375113">
        <ele>9.75</ele>
        <time>2025-05-18T14:27:22Z</time>
      </trkpt>
      <trkpt lat="43.569466033950448" lon="7.076096031814814">
        <ele>9.27</ele>
        <time>2025-05-18T14:27:29Z</time>
      </trkpt>
      <trkpt lat="43.569495035335422" lon="7.076197033748031">
        <ele>9.75</ele>
        <time>2025-05-18T14:27:30Z</time>
      </trkpt>
      <trkpt lat="43.569523030892015" lon="7.0763039868325">
        <ele>9.75</ele>
        <time>2025-05-18T14:27:31Z</time>
      </trkpt>
      <trkpt lat="43.569529987871647" lon="7.076404988765717">
        <ele>9.27</ele>
        <time>2025-05-18T14:27:32Z</time>
      </trkpt>
      <trkpt lat="43.569538034498692" lon="7.076520994305611">
        <ele>8.789999999999999</ele>
        <time>2025-05-18T14:27:33Z</time>
      </trkpt>
      <trkpt lat="43.569544991478324" lon="7.076652003452182">
        <ele>8.310000000000001</ele>
        <time>2025-05-18T14:27:34Z</time>
      </trkpt>
      <trkpt lat="43.569553960114717" lon="7.076788041740656">
        <ele>8.310000000000001</ele>
        <time>2025-05-18T14:27:35Z</time>
      </trkpt>
      <trkpt lat="43.569562006741762" lon="7.077935021370649">
        <ele>5.91</ele>
        <time>2025-05-18T14:27:44Z</time>
      </trkpt>
      <trkpt lat="43.569576004520059" lon="7.078062007203698">
        <ele>5.42</ele>
        <time>2025-05-18T14:27:45Z</time>
      </trkpt>
      <trkpt lat="43.569595031440258" lon="7.078183963894844">
        <ele>4.94</ele>
        <time>2025-05-18T14:27:46Z</time>
      </trkpt>
      <trkpt lat="43.569648005068302" lon="7.078404994681478">
        <ele>3.5</ele>
        <time>2025-05-18T14:27:48Z</time>
      </trkpt>
      <trkpt lat="43.570058969780803" lon="7.079223990440369">
        <ele>0.14</ele>
        <time>2025-05-18T14:27:56Z</time>
      </trkpt>
      <trkpt lat="43.570104986429214" lon="7.079317029565573">
        <ele>0.14</ele>
        <time>2025-05-18T14:27:57Z</time>
      </trkpt>
      <trkpt lat="43.570143962278962" lon="7.079394981265068">
        <ele>-0.34</ele>
        <time>2025-05-18T14:27:58Z</time>
      </trkpt>
      <trkpt lat="43.570174975320697" lon="7.079456001520157">
        <ele>-0.34</ele>
        <time>2025-05-18T14:27:59Z</time>
      </trkpt>
      <trkpt lat="43.57020397670567" lon="7.079514004290104">
        <ele>-0.34</ele>
        <time>2025-05-18T14:28:00Z</time>
      </trkpt>
      <trkpt lat="43.570229960605502" lon="7.079573012888432">
        <ele>-0.34</ele>
        <time>2025-05-18T14:28:01Z</time>
      </trkpt>
      <trkpt lat="43.570295004174113" lon="7.079725982621312">
        <ele>-0.82</ele>
        <time>2025-05-18T14:28:04Z</time>
      </trkpt>
      <trkpt lat="43.570317970588803" lon="7.079779040068388">
        <ele>-1.3</ele>
        <time>2025-05-18T14:28:05Z</time>
      </trkpt>
      <trkpt lat="43.570344038307667" lon="7.079839976504445">
        <ele>-1.3</ele>
        <time>2025-05-18T14:28:06Z</time>
      </trkpt>
      <trkpt lat="43.570373961701989" lon="7.079908959567547">
        <ele>-1.3</ele>
        <time>2025-05-18T14:28:07Z</time>
      </trkpt>
      <trkpt lat="43.570407992228866" lon="7.079991018399596">
        <ele>-1.79</ele>
        <time>2025-05-18T14:28:08Z</time>
      </trkpt>
      <trkpt lat="43.570436993613839" lon="7.08008699119091">
        <ele>-1.79</ele>
        <time>2025-05-18T14:28:09Z</time>
      </trkpt>
      <trkpt lat="43.570606978610158" lon="7.080871034413576">
        <ele>0.62</ele>
        <time>2025-05-18T14:28:16Z</time>
      </trkpt>
      <trkpt lat="43.570777969434857" lon="7.081896979361773">
        <ele>5.42</ele>
        <time>2025-05-18T14:28:26Z</time>
      </trkpt>
      <trkpt lat="43.570820968598127" lon="7.082137959077954">
        <ele>5.91</ele>
        <time>2025-05-18T14:28:28Z</time>
      </trkpt>
      <trkpt lat="43.570852987468243" lon="7.082254970446229">
        <ele>5.91</ele>
        <time>2025-05-18T14:28:29Z</time>
      </trkpt>
      <trkpt lat="43.57089196331799" lon="7.082369970157743">
        <ele>6.39</ele>
        <time>2025-05-18T14:28:30Z</time>
      </trkpt>
      <trkpt lat="43.570946026593447" lon="7.08247197791934">
        <ele>6.39</ele>
        <time>2025-05-18T14:28:31Z</time>
      </trkpt>
      <trkpt lat="43.570992965251207" lon="7.082563005387783">
        <ele>6.87</ele>
        <time>2025-05-18T14:28:32Z</time>
      </trkpt>
      <trkpt lat="43.571038981899619" lon="7.082650009542704">
        <ele>6.87</ele>
        <time>2025-05-18T14:28:33Z</time>
      </trkpt>
      <trkpt lat="43.571338970214128" lon="7.083096010610461">
        <ele>7.35</ele>
        <time>2025-05-18T14:28:38Z</time>
      </trkpt>
      <trkpt lat="43.57140501961112" lon="7.083189971745014">
        <ele>7.35</ele>
        <time>2025-05-18T14:28:39Z</time>
      </trkpt>
      <trkpt lat="43.571722023189068" lon="7.083634966984391">
        <ele>8.789999999999999</ele>
        <time>2025-05-18T14:28:44Z</time>
      </trkpt>
      <trkpt lat="43.571772985160351" lon="7.083706967532635">
        <ele>8.789999999999999</ele>
        <time>2025-05-18T14:28:45Z</time>
      </trkpt>
      <trkpt lat="43.572014970704913" lon="7.084009973332286">
        <ele>9.75</ele>
        <time>2025-05-18T14:28:53Z</time>
      </trkpt>
      <trkpt lat="43.572109015658498" lon="7.084113992750645">
        <ele>11.19</ele>
        <time>2025-05-18T14:29:17Z</time>
      </trkpt>
      <trkpt lat="43.572621988132596" lon="7.084807008504868">
        <ele>14.08</ele>
        <time>2025-05-18T14:29:26Z</time>
      </trkpt>
      <trkpt lat="43.572668004781008" lon="7.084925025701523">
        <ele>14.08</ele>
        <time>2025-05-18T14:29:27Z</time>
      </trkpt>
      <trkpt lat="43.573017027229071" lon="7.085834965109825">
        <ele>13.6</ele>
        <time>2025-05-18T14:29:37Z</time>
      </trkpt>
      <trkpt lat="43.573177037760615" lon="7.08629697561264">
        <ele>12.630000000000001</ele>
        <time>2025-05-18T14:29:46Z</time>
      </trkpt>
      <trkpt lat="43.573202015832067" lon="7.086368976160884">
        <ele>12.630000000000001</ele>
        <time>2025-05-18T14:29:47Z</time>
      </trkpt>
      <trkpt lat="43.573227999731898" lon="7.086442988365889">
        <ele>13.119999999999999</ele>
        <time>2025-05-18T14:29:48Z</time>
      </trkpt>
      <trkpt lat="43.57325398363173" lon="7.086517000570893">
        <ele>13.119999999999999</ele>
        <time>2025-05-18T14:29:49Z</time>
      </trkpt>
      <trkpt lat="43.573278961703181" lon="7.086590006947517">
        <ele>13.119999999999999</ele>
        <time>2025-05-18T14:29:50Z</time>
      </trkpt>
      <trkpt lat="43.573364960029721" lon="7.086806008592248">
        <ele>12.630000000000001</ele>
        <time>2025-05-18T14:29:53Z</time>
      </trkpt>
      <trkpt lat="43.573388010263443" lon="7.086859988048673">
        <ele>12.630000000000001</ele>
        <time>2025-05-18T14:29:54Z</time>
      </trkpt>
      <trkpt lat="43.573455987498164" lon="7.087180009111762">
        <ele>11.67</ele>
        <time>2025-05-18T14:30:03Z</time>
      </trkpt>
      <trkpt lat="43.573507033288479" lon="7.087645037099719">
        <ele>9.27</ele>
        <time>2025-05-18T14:30:11Z</time>
      </trkpt>
      <trkpt lat="43.573536034673452" lon="7.088381974026561">
        <ele>7.35</ele>
        <time>2025-05-18T14:30:18Z</time>
      </trkpt>
      <trkpt lat="43.573798974975944" lon="7.089653005823493">
        <ele>8.789999999999999</ele>
        <time>2025-05-18T14:30:29Z</time>
      </trkpt>
      <trkpt lat="43.573882961645722" lon="7.090042009949684">
        <ele>9.75</ele>
        <time>2025-05-18T14:30:33Z</time>
      </trkpt>
      <trkpt lat="43.573894025757909" lon="7.090122979134321">
        <ele>9.75</ele>
        <time>2025-05-18T14:30:34Z</time>
      </trkpt>
      <trkpt lat="43.573925960808992" lon="7.090358007699251">
        <ele>10.23</ele>
        <time>2025-05-18T14:30:37Z</time>
      </trkpt>
      <trkpt lat="43.573937024921179" lon="7.090435037389398">
        <ele>10.23</ele>
        <time>2025-05-18T14:30:38Z</time>
      </trkpt>
      <trkpt lat="43.57393903657794" lon="7.090506032109261">
        <ele>10.23</ele>
        <time>2025-05-18T14:30:39Z</time>
      </trkpt>
      <trkpt lat="43.573905006051064" lon="7.090575015172362">
        <ele>10.710000000000001</ele>
        <time>2025-05-18T14:30:40Z</time>
      </trkpt>
      <trkpt lat="43.573887990787625" lon="7.090680962428451">
        <ele>10.710000000000001</ele>
        <time>2025-05-18T14:30:41Z</time>
      </trkpt>
      <trkpt lat="43.573897965252399" lon="7.090758997946978">
        <ele>10.710000000000001</ele>
        <time>2025-05-18T14:30:42Z</time>
      </trkpt>
      <trkpt lat="43.573923027142882" lon="7.090829992666841">
        <ele>11.19</ele>
        <time>2025-05-18T14:30:43Z</time>
      </trkpt>
      <trkpt lat="43.573967032134533" lon="7.090901993215084">
        <ele>10.710000000000001</ele>
        <time>2025-05-18T14:30:44Z</time>
      </trkpt>
      <trkpt lat="43.574011959135532" lon="7.090962007641792">
        <ele>10.710000000000001</ele>
        <time>2025-05-18T14:30:45Z</time>
      </trkpt>
      <trkpt lat="43.574058981612325" lon="7.091030990704894">
        <ele>10.710000000000001</ele>
        <time>2025-05-18T14:30:46Z</time>
      </trkpt>
      <trkpt lat="43.574112039059401" lon="7.091109026223421">
        <ele>10.710000000000001</ele>
        <time>2025-05-18T14:30:47Z</time>
      </trkpt>
      <trkpt lat="43.574167024344206" lon="7.091202987357974">
        <ele>10.23</ele>
        <time>2025-05-18T14:30:48Z</time>
      </trkpt>
      <trkpt lat="43.574212035164237" lon="7.091330979019404">
        <ele>9.75</ele>
        <time>2025-05-18T14:30:49Z</time>
      </trkpt>
      <trkpt lat="43.574754009023309" lon="7.093083970248699">
        <ele>9.27</ele>
        <time>2025-05-18T14:31:02Z</time>
      </trkpt>
      <trkpt lat="43.575091967359185" lon="7.09445801563561">
        <ele>12.15</ele>
        <time>2025-05-18T14:31:12Z</time>
      </trkpt>
      <trkpt lat="43.575093979015946" lon="7.095665009692311">
        <ele>13.6</ele>
        <time>2025-05-18T14:31:22Z</time>
      </trkpt>
      <trkpt lat="43.575074030086398" lon="7.095866007730365">
        <ele>14.08</ele>
        <time>2025-05-18T14:31:27Z</time>
      </trkpt>
      <trkpt lat="43.575071012601256" lon="7.095895009115338">
        <ele>14.08</ele>
        <time>2025-05-18T14:31:34Z</time>
      </trkpt>
      <trkpt lat="43.575032958760858" lon="7.096276972442865">
        <ele>14.08</ele>
        <time>2025-05-18T14:31:41Z</time>
      </trkpt>
      <trkpt lat="43.575004041194916" lon="7.09656497463584">
        <ele>14.56</ele>
        <time>2025-05-18T14:31:47Z</time>
      </trkpt>
      <trkpt lat="43.574966993182898" lon="7.096945010125637">
        <ele>14.08</ele>
        <time>2025-05-18T14:31:51Z</time>
      </trkpt>
      <trkpt lat="43.574958024546504" lon="7.097033020108938">
        <ele>14.08</ele>
        <time>2025-05-18T14:31:52Z</time>
      </trkpt>
      <trkpt lat="43.574954001232982" lon="7.09708197042346">
        <ele>14.08</ele>
        <time>2025-05-18T14:31:53Z</time>
      </trkpt>
      <trkpt lat="43.574960036203265" lon="7.097179032862186">
        <ele>14.08</ele>
        <time>2025-05-18T14:31:54Z</time>
      </trkpt>
      <trkpt lat="43.574964981526136" lon="7.097248015925288">
        <ele>14.08</ele>
        <time>2025-05-18T14:31:55Z</time>
      </trkpt>
      <trkpt lat="43.574997000396252" lon="7.098026024177671">
        <ele>14.56</ele>
        <time>2025-05-18T14:32:04Z</time>
      </trkpt>
      <trkpt lat="43.575018038973212" lon="7.098288964480162">
        <ele>14.08</ele>
        <time>2025-05-18T14:32:07Z</time>
      </trkpt>
      <trkpt lat="43.575018038973212" lon="7.098332969471812">
        <ele>14.08</ele>
        <time>2025-05-18T14:32:08Z</time>
      </trkpt>
      <trkpt lat="43.575018038973212" lon="7.098359959200025">
        <ele>14.08</ele>
        <time>2025-05-18T14:32:09Z</time>
      </trkpt>
      <trkpt lat="43.575018038973212" lon="7.098359959200025">
        <ele>14.08</ele>
        <time>2025-05-18T14:32:23Z</time>
      </trkpt>
      <trkpt lat="43.575018038973212" lon="7.098359959200025">
        <ele>14.56</ele>
        <time>2025-05-18T14:33:02Z</time>
      </trkpt>
      <trkpt lat="43.575018038973212" lon="7.098363982513547">
        <ele>14.56</ele>
        <time>2025-05-18T14:33:21Z</time>
      </trkpt>
      <trkpt lat="43.575059026479721" lon="7.098824987187982">
        <ele>14.56</ele>
        <time>2025-05-18T14:33:26Z</time>
      </trkpt>
      <trkpt lat="43.575190035626292" lon="7.099484978243709">
        <ele>14.56</ele>
        <time>2025-05-18T14:33:30Z</time>
      </trkpt>
      <trkpt lat="43.575277961790562" lon="7.099602995440364">
        <ele>14.56</ele>
        <time>2025-05-18T14:33:31Z</time>
      </trkpt>
      <trkpt lat="43.575365971773863" lon="7.099705003201962">
        <ele>14.56</ele>
        <time>2025-05-18T14:33:32Z</time>
      </trkpt>
      <trkpt lat="43.575555989518762" lon="7.099896026775241">
        <ele>14.56</ele>
        <time>2025-05-18T14:33:34Z</time>
      </trkpt>
      <trkpt lat="43.575630001723766" lon="7.100029969587922">
        <ele>14.08</ele>
        <time>2025-05-18T14:33:35Z</time>
      </trkpt>
      <trkpt lat="43.575685992836952" lon="7.10017598234117">
        <ele>13.119999999999999</ele>
        <time>2025-05-18T14:33:36Z</time>
      </trkpt>
      <trkpt lat="43.575790012255311" lon="7.100450992584229">
        <ele>11.19</ele>
        <time>2025-05-18T14:33:38Z</time>
      </trkpt>
      <trkpt lat="43.575858995318413" lon="7.100560963153839">
        <ele>9.75</ele>
        <time>2025-05-18T14:33:39Z</time>
      </trkpt>
      <trkpt lat="43.575943987816572" lon="7.100632963702083">
        <ele>8.789999999999999</ele>
        <time>2025-05-18T14:33:40Z</time>
      </trkpt>
      <trkpt lat="43.576052030548453" lon="7.100658025592566">
        <ele>8.310000000000001</ele>
        <time>2025-05-18T14:33:41Z</time>
      </trkpt>
      <trkpt lat="43.576163006946445" lon="7.100684009492397">
        <ele>6.87</ele>
        <time>2025-05-18T14:33:42Z</time>
      </trkpt>
      <trkpt lat="43.5762810241431" lon="7.100705970078707">
        <ele>5.91</ele>
        <time>2025-05-18T14:33:43Z</time>
      </trkpt>
      <trkpt lat="43.576387977227569" lon="7.100724996998906">
        <ele>5.42</ele>
        <time>2025-05-18T14:33:44Z</time>
      </trkpt>
      <trkpt lat="43.576446985825896" lon="7.100804038345814">
        <ele>4.46</ele>
        <time>2025-05-18T14:33:45Z</time>
      </trkpt>
      <trkpt lat="43.576504988595843" lon="7.100928006693721">
        <ele>3.5</ele>
        <time>2025-05-18T14:33:46Z</time>
      </trkpt>
      <trkpt lat="43.57656299136579" lon="7.101052980870009">
        <ele>3.02</ele>
        <time>2025-05-18T14:33:47Z</time>
      </trkpt>
      <trkpt lat="43.576608002185822" lon="7.101203016936779">
        <ele>2.06</ele>
        <time>2025-05-18T14:33:48Z</time>
      </trkpt>
      <trkpt lat="43.57690597884357" lon="7.102746963500977">
        <ele>4.94</ele>
        <time>2025-05-18T14:33:58Z</time>
      </trkpt>
      <trkpt lat="43.577261958271265" lon="7.103991005569696">
        <ele>7.83</ele>
        <time>2025-05-18T14:34:07Z</time>
      </trkpt>
      <trkpt lat="43.577328007668257" lon="7.104560974985361">
        <ele>10.23</ele>
        <time>2025-05-18T14:34:11Z</time>
      </trkpt>
      <trkpt lat="43.577321972697973" lon="7.104693995788693">
        <ele>11.19</ele>
        <time>2025-05-18T14:34:12Z</time>
      </trkpt>
      <trkpt lat="43.57731400988996" lon="7.105038994923234">
        <ele>13.119999999999999</ele>
        <time>2025-05-18T14:34:15Z</time>
      </trkpt>
      <trkpt lat="43.57731400988996" lon="7.105106972157955">
        <ele>14.08</ele>
        <time>2025-05-18T14:34:16Z</time>
      </trkpt>
      <trkpt lat="43.577370001003146" lon="7.105186013504863">
        <ele>14.56</ele>
        <time>2025-05-18T14:34:17Z</time>
      </trkpt>
      <trkpt lat="43.577413000166416" lon="7.105246027931571">
        <ele>15.039999999999999</ele>
        <time>2025-05-18T14:34:18Z</time>
      </trkpt>
      <trkpt lat="43.577420962974429" lon="7.105258014053106">
        <ele>15.52</ele>
        <time>2025-05-18T14:34:19Z</time>
      </trkpt>
      <trkpt lat="43.577514002099633" lon="7.105422969907522">
        <ele>16.48</ele>
        <time>2025-05-18T14:34:21Z</time>
      </trkpt>
      <trkpt lat="43.57767703011632" lon="7.105734022334218">
        <ele>16.960000000000001</ele>
        <time>2025-05-18T14:34:24Z</time>
      </trkpt>
      <trkpt lat="43.578212969005108" lon="7.106960965320468">
        <ele>19.359999999999999</ele>
        <time>2025-05-18T14:34:32Z</time>
      </trkpt>
      <trkpt lat="43.57922600582242" lon="7.108611026778817">
        <ele>26.09</ele>
        <time>2025-05-18T14:34:41Z</time>
      </trkpt>
      <trkpt lat="43.579873004928231" lon="7.110155979171395">
        <ele>29.940000000000001</ele>
        <time>2025-05-18T14:34:48Z</time>
      </trkpt>
      <trkpt lat="43.579920027405024" lon="7.110405005514622">
        <ele>29.460000000000001</ele>
        <time>2025-05-18T14:34:49Z</time>
      </trkpt>
      <trkpt lat="43.580057993531227" lon="7.112074010074139">
        <ele>28.02</ele>
        <time>2025-05-18T14:34:56Z</time>
      </trkpt>
      <trkpt lat="43.580081965774298" lon="7.114231009036303">
        <ele>24.170000000000002</ele>
        <time>2025-05-18T14:35:05Z</time>
      </trkpt>
      <trkpt lat="43.580425037071109" lon="7.115544034168124">
        <ele>21.77</ele>
        <time>2025-05-18T14:35:12Z</time>
      </trkpt>
      <trkpt lat="43.580746985971928" lon="7.116287006065249">
        <ele>20.32</ele>
        <time>2025-05-18T14:35:15Z</time>
      </trkpt>
      <trkpt lat="43.581723980605602" lon="7.117439014837146">
        <ele>16</ele>
        <time>2025-05-18T14:35:23Z</time>
      </trkpt>
      <trkpt lat="43.582741040736437" lon="7.118024993687868">
        <ele>12.15</ele>
        <time>2025-05-18T14:35:30Z</time>
      </trkpt>
      <trkpt lat="43.583891037851572" lon="7.118420032784343">
        <ele>9.27</ele>
        <time>2025-05-18T14:35:38Z</time>
      </trkpt>
      <trkpt lat="43.584008971229196" lon="7.118453979492188">
        <ele>8.789999999999999</ele>
        <time>2025-05-18T14:35:39Z</time>
      </trkpt>
      <trkpt lat="43.584096981212497" lon="7.118489015847445">
        <ele>8.310000000000001</ele>
        <time>2025-05-18T14:35:40Z</time>
      </trkpt>
      <trkpt lat="43.584191026166081" lon="7.118526985868812">
        <ele>7.83</ele>
        <time>2025-05-18T14:35:41Z</time>
      </trkpt>
      <trkpt lat="43.58427400700748" lon="7.118547018617392">
        <ele>7.35</ele>
        <time>2025-05-18T14:35:42Z</time>
      </trkpt>
      <trkpt lat="43.584739034995437" lon="7.118616001680493">
        <ele>6.39</ele>
        <time>2025-05-18T14:35:49Z</time>
      </trkpt>
      <trkpt lat="43.584802988916636" lon="7.118625976145268">
        <ele>6.39</ele>
        <time>2025-05-18T14:35:50Z</time>
      </trkpt>
      <trkpt lat="43.584836013615131" lon="7.118625976145268">
        <ele>6.39</ele>
        <time>2025-05-18T14:35:51Z</time>
      </trkpt>
      <trkpt lat="43.585036005824804" lon="7.118605021387339">
        <ele>7.35</ele>
        <time>2025-05-18T14:35:55Z</time>
      </trkpt>
      <trkpt lat="43.585082022473216" lon="7.118575014173985">
        <ele>7.83</ele>
        <time>2025-05-18T14:35:56Z</time>
      </trkpt>
      <trkpt lat="43.585131978616118" lon="7.118541989475489">
        <ele>7.83</ele>
        <time>2025-05-18T14:35:57Z</time>
      </trkpt>
      <trkpt lat="43.585167014971375" lon="7.118518017232418">
        <ele>8.310000000000001</ele>
        <time>2025-05-18T14:35:58Z</time>
      </trkpt>
      <trkpt lat="43.585183024406433" lon="7.118473006412387">
        <ele>8.310000000000001</ele>
        <time>2025-05-18T14:35:59Z</time>
      </trkpt>
      <trkpt lat="43.58524102717638" lon="7.118297992274165">
        <ele>10.23</ele>
        <time>2025-05-18T14:36:04Z</time>
      </trkpt>
      <trkpt lat="43.585382010787725" lon="7.118324982002378">
        <ele>10.23</ele>
        <time>2025-05-18T14:36:05Z</time>
      </trkpt>
      <trkpt lat="43.585641011595726" lon="7.118431013077498">
        <ele>11.19</ele>
        <time>2025-05-18T14:36:08Z</time>
      </trkpt>
      <trkpt lat="43.585743019357324" lon="7.118472000584006">
        <ele>11.19</ele>
        <time>2025-05-18T14:36:09Z</time>
      </trkpt>
      <trkpt lat="43.585846032947302" lon="7.118513993918896">
        <ele>11.19</ele>
        <time>2025-05-18T14:36:10Z</time>
      </trkpt>
      <trkpt lat="43.585961032658815" lon="7.118561016395688">
        <ele>11.19</ele>
        <time>2025-05-18T14:36:11Z</time>
      </trkpt>
      <trkpt lat="43.586050970479846" lon="7.118594041094184">
        <ele>11.67</ele>
        <time>2025-05-18T14:36:12Z</time>
      </trkpt>
      <trkpt lat="43.586496971547604" lon="7.118763020262122">
        <ele>12.630000000000001</ele>
        <time>2025-05-18T14:36:17Z</time>
      </trkpt>
      <trkpt lat="43.586572995409369" lon="7.118793027475476">
        <ele>12.630000000000001</ele>
        <time>2025-05-18T14:36:18Z</time>
      </trkpt>
      <trkpt lat="43.587125027552247" lon="7.119005005806685">
        <ele>15.52</ele>
        <time>2025-05-18T14:36:27Z</time>
      </trkpt>
      <trkpt lat="43.587284032255411" lon="7.119065020233393">
        <ele>16.960000000000001</ele>
        <time>2025-05-18T14:36:37Z</time>
      </trkpt>
      <trkpt lat="43.587313033640385" lon="7.119076000526547">
        <ele>16.960000000000001</ele>
        <time>2025-05-18T14:36:57Z</time>
      </trkpt>
      <trkpt lat="43.587375981733203" lon="7.11910299025476">
        <ele>17.920000000000002</ele>
        <time>2025-05-18T14:36:58Z</time>
      </trkpt>
      <trkpt lat="43.587443958967924" lon="7.119131991639733">
        <ele>17.920000000000002</ele>
        <time>2025-05-18T14:36:59Z</time>
      </trkpt>
      <trkpt lat="43.58837996609509" lon="7.119460981339216">
        <ele>19.359999999999999</ele>
        <time>2025-05-18T14:37:09Z</time>
      </trkpt>
      <trkpt lat="43.589574974030256" lon="7.120207976549864">
        <ele>21.289999999999999</ele>
        <time>2025-05-18T14:37:21Z</time>
      </trkpt>
      <trkpt lat="43.590644001960754" lon="7.120797978714109">
        <ele>23.690000000000001</ele>
        <time>2025-05-18T14:37:32Z</time>
      </trkpt>
      <trkpt lat="43.590839970856905" lon="7.120855981484056">
        <ele>24.649999999999999</ele>
        <time>2025-05-18T14:37:34Z</time>
      </trkpt>
      <trkpt lat="43.591374987736344" lon="7.120899986475706">
        <ele>26.09</ele>
        <time>2025-05-18T14:37:40Z</time>
      </trkpt>
      <trkpt lat="43.591470960527658" lon="7.120899986475706">
        <ele>27.050000000000001</ele>
        <time>2025-05-18T14:37:41Z</time>
      </trkpt>
      <trkpt lat="43.592235976830125" lon="7.120804013684392">
        <ele>28.02</ele>
        <time>2025-05-18T14:37:48Z</time>
      </trkpt>
      <trkpt lat="43.592447033151984" lon="7.120727989822626">
        <ele>27.530000000000001</ele>
        <time>2025-05-18T14:37:50Z</time>
      </trkpt>
      <trkpt lat="43.592875013127923" lon="7.120486004278064">
        <ele>25.609999999999999</ele>
        <time>2025-05-18T14:37:55Z</time>
      </trkpt>
      <trkpt lat="43.593063019216061" lon="7.120382990688086">
        <ele>24.649999999999999</ele>
        <time>2025-05-18T14:37:57Z</time>
      </trkpt>
      <trkpt lat="43.593157986178994" lon="7.120333034545183">
        <ele>24.649999999999999</ele>
        <time>2025-05-18T14:37:58Z</time>
      </trkpt>
      <trkpt lat="43.593838009983301" lon="7.120108986273408">
        <ele>24.170000000000002</ele>
        <time>2025-05-18T14:38:06Z</time>
      </trkpt>
      <trkpt lat="43.593943035230041" lon="7.120089959353209">
        <ele>23.690000000000001</ele>
        <time>2025-05-18T14:38:14Z</time>
      </trkpt>
      <trkpt lat="43.594176974147558" lon="7.12004603818059">
        <ele>23.210000000000001</ele>
        <time>2025-05-18T14:38:33Z</time>
      </trkpt>
      <trkpt lat="43.594989012926817" lon="7.120038997381926">
        <ele>21.289999999999999</ele>
        <time>2025-05-18T14:38:40Z</time>
      </trkpt>
      <trkpt lat="43.596345037221909" lon="7.120062969624996">
        <ele>20.32</ele>
        <time>2025-05-18T14:38:51Z</time>
      </trkpt>
      <trkpt lat="43.597577009350061" lon="7.120187021791935">
        <ele>21.289999999999999</ele>
        <time>2025-05-18T14:39:01Z</time>
      </trkpt>
      <trkpt lat="43.599118022248149" lon="7.120669987052679">
        <ele>20.32</ele>
        <time>2025-05-18T14:39:14Z</time>
      </trkpt>
      <trkpt lat="43.599455980584025" lon="7.120875008404255">
        <ele>17.920000000000002</ele>
        <time>2025-05-18T14:39:17Z</time>
      </trkpt>
      <trkpt lat="43.599825035780668" lon="7.121225036680698">
        <ele>15.52</ele>
        <time>2025-05-18T14:39:21Z</time>
      </trkpt>
      <trkpt lat="43.599987979978323" lon="7.121386975049973">
        <ele>14.08</ele>
        <time>2025-05-18T14:39:24Z</time>
      </trkpt>
      <trkpt lat="43.600027039647102" lon="7.121426034718752">
        <ele>13.6</ele>
        <time>2025-05-18T14:39:25Z</time>
      </trkpt>
      <trkpt lat="43.600054029375315" lon="7.121453024446964">
        <ele>13.6</ele>
        <time>2025-05-18T14:39:26Z</time>
      </trkpt>
      <trkpt lat="43.600071966648102" lon="7.121470961719751">
        <ele>13.119999999999999</ele>
        <time>2025-05-18T14:39:27Z</time>
      </trkpt>
      <trkpt lat="43.600085964426398" lon="7.121484959498048">
        <ele>12.630000000000001</ele>
        <time>2025-05-18T14:39:28Z</time>
      </trkpt>
      <trkpt lat="43.600085964426398" lon="7.121484959498048">
        <ele>11.67</ele>
        <time>2025-05-18T14:39:44Z</time>
      </trkpt>
      <trkpt lat="43.600372038781643" lon="7.121782014146447">
        <ele>12.15</ele>
        <time>2025-05-18T14:40:03Z</time>
      </trkpt>
      <trkpt lat="43.601160021498799" lon="7.12225902825594">
        <ele>10.23</ele>
        <time>2025-05-18T14:40:11Z</time>
      </trkpt>
      <trkpt lat="43.602356035262346" lon="7.122569996863604">
        <ele>11.67</ele>
        <time>2025-05-18T14:40:21Z</time>
      </trkpt>
      <trkpt lat="43.603449035435915" lon="7.122809970751405">
        <ele>13.119999999999999</ele>
        <time>2025-05-18T14:40:30Z</time>
      </trkpt>
      <trkpt lat="43.603559006005526" lon="7.122832015156746">
        <ele>13.119999999999999</ele>
        <time>2025-05-18T14:40:31Z</time>
      </trkpt>
      <trkpt lat="43.605119967833161" lon="7.123253960162401">
        <ele>13.119999999999999</ele>
        <time>2025-05-18T14:40:44Z</time>
      </trkpt>
      <trkpt lat="43.606489989906549" lon="7.123756036162376">
        <ele>13.119999999999999</ele>
        <time>2025-05-18T14:40:56Z</time>
      </trkpt>
      <trkpt lat="43.606821997091174" lon="7.123880004510284">
        <ele>13.6</ele>
        <time>2025-05-18T14:41:03Z</time>
      </trkpt>
      <trkpt lat="43.607099018990993" lon="7.123967008665204">
        <ele>14.08</ele>
        <time>2025-05-18T14:41:17Z</time>
      </trkpt>
      <trkpt lat="43.607443012297153" lon="7.124145040288568">
        <ele>14.08</ele>
        <time>2025-05-18T14:41:23Z</time>
      </trkpt>
      <trkpt lat="43.608442973345518" lon="7.124636974185705">
        <ele>15.039999999999999</ele>
        <time>2025-05-18T14:41:32Z</time>
      </trkpt>
      <trkpt lat="43.609645022079349" lon="7.125241979956627">
        <ele>15.039999999999999</ele>
        <time>2025-05-18T14:41:40Z</time>
      </trkpt>
      <trkpt lat="43.611183017492294" lon="7.126011019572616">
        <ele>10.710000000000001</ele>
        <time>2025-05-18T14:41:51Z</time>
      </trkpt>
      <trkpt lat="43.61229001544416" lon="7.126521980389953">
        <ele>9.75</ele>
        <time>2025-05-18T14:42:00Z</time>
      </trkpt>
      <trkpt lat="43.613301962614059" lon="7.127064038068056">
        <ele>9.27</ele>
        <time>2025-05-18T14:42:09Z</time>
      </trkpt>
      <trkpt lat="43.615598017349839" lon="7.128036003559828">
        <ele>10.710000000000001</ele>
        <time>2025-05-18T14:42:22Z</time>
      </trkpt>
      <trkpt lat="43.617613026872277" lon="7.128695994615555">
        <ele>11.19</ele>
        <time>2025-05-18T14:42:34Z</time>
      </trkpt>
      <trkpt lat="43.619641028344631" lon="7.12937300093472">
        <ele>11.67</ele>
        <time>2025-05-18T14:42:46Z</time>
      </trkpt>
      <trkpt lat="43.621159996837378" lon="7.129913968965411">
        <ele>12.15</ele>
        <time>2025-05-18T14:42:55Z</time>
      </trkpt>
      <trkpt lat="43.623300986364484" lon="7.130811000242829">
        <ele>12.15</ele>
        <time>2025-05-18T14:43:08Z</time>
      </trkpt>
      <trkpt lat="43.624760024249554" lon="7.13145799934864">
        <ele>11.67</ele>
        <time>2025-05-18T14:43:18Z</time>
      </trkpt>
      <trkpt lat="43.625594023615122" lon="7.13184398598969">
        <ele>11.19</ele>
        <time>2025-05-18T14:43:28Z</time>
      </trkpt>
      <trkpt lat="43.626277986913919" lon="7.132174987345934">
        <ele>10.710000000000001</ele>
        <time>2025-05-18T14:43:37Z</time>
      </trkpt>
      <trkpt lat="43.626717031002045" lon="7.132386965677142">
        <ele>12.630000000000001</ele>
        <time>2025-05-18T14:43:46Z</time>
      </trkpt>
      <trkpt lat="43.627311978489161" lon="7.132670022547245">
        <ele>12.630000000000001</ele>
        <time>2025-05-18T14:43:56Z</time>
      </trkpt>
      <trkpt lat="43.627968030050397" lon="7.132976967841387">
        <ele>12.15</ele>
        <time>2025-05-18T14:44:06Z</time>
      </trkpt>
      <trkpt lat="43.628666996955872" lon="7.133316015824676">
        <ele>10.23</ele>
        <time>2025-05-18T14:44:16Z</time>
      </trkpt>
      <trkpt lat="43.629147028550506" lon="7.133537968620658">
        <ele>10.23</ele>
        <time>2025-05-18T14:44:27Z</time>
      </trkpt>
      <trkpt lat="43.629574002698064" lon="7.133747013285756">
        <ele>10.23</ele>
        <time>2025-05-18T14:44:36Z</time>
      </trkpt>
      <trkpt lat="43.629734013229609" lon="7.133822031319141">
        <ele>11.67</ele>
        <time>2025-05-18T14:44:55Z</time>
      </trkpt>
      <trkpt lat="43.630212033167481" lon="7.134039038792253">
        <ele>12.15</ele>
        <time>2025-05-18T14:45:07Z</time>
      </trkpt>
      <trkpt lat="43.630501963198185" lon="7.134158983826637">
        <ele>12.15</ele>
        <time>2025-05-18T14:45:12Z</time>
      </trkpt>
      <trkpt lat="43.63083497621119" lon="7.134306002408266">
        <ele>11.19</ele>
        <time>2025-05-18T14:45:21Z</time>
      </trkpt>
      <trkpt lat="43.631093977019191" lon="7.13442100211978">
        <ele>11.19</ele>
        <time>2025-05-18T14:45:34Z</time>
      </trkpt>
      <trkpt lat="43.63111300393939" lon="7.134428964927793">
        <ele>11.19</ele>
        <time>2025-05-18T14:45:45Z</time>
      </trkpt>
      <trkpt lat="43.631309978663921" lon="7.1345080062747">
        <ele>10.710000000000001</ele>
        <time>2025-05-18T14:46:03Z</time>
      </trkpt>
      <trkpt lat="43.631449034437537" lon="7.134562991559506">
        <ele>9.75</ele>
        <time>2025-05-18T14:46:05Z</time>
      </trkpt>
      <trkpt lat="43.631897969171405" lon="7.134638009592891">
        <ele>7.83</ele>
        <time>2025-05-18T14:46:14Z</time>
      </trkpt>
      <trkpt lat="43.631922025233507" lon="7.134641027078033">
        <ele>6.87</ele>
        <time>2025-05-18T14:46:30Z</time>
      </trkpt>
      <trkpt lat="43.632265012711287" lon="7.134611019864678">
        <ele>7.83</ele>
        <time>2025-05-18T14:46:39Z</time>
      </trkpt>
      <trkpt lat="43.632611017674208" lon="7.134497025981545">
        <ele>9.27</ele>
        <time>2025-05-18T14:46:48Z</time>
      </trkpt>
      <trkpt lat="43.63313396461308" lon="7.134290998801589">
        <ele>11.19</ele>
        <time>2025-05-18T14:46:57Z</time>
      </trkpt>
      <trkpt lat="43.634214978665113" lon="7.133854972198606">
        <ele>13.6</ele>
        <time>2025-05-18T14:47:10Z</time>
      </trkpt>
      <trkpt lat="43.635209994390607" lon="7.133683981373906">
        <ele>16.48</ele>
        <time>2025-05-18T14:47:22Z</time>
      </trkpt>
      <trkpt lat="43.635979034006596" lon="7.133560013025999">
        <ele>17.920000000000002</ele>
        <time>2025-05-18T14:47:32Z</time>
      </trkpt>
      <trkpt lat="43.636151030659676" lon="7.133646011352539">
        <ele>17.920000000000002</ele>
        <time>2025-05-18T14:47:33Z</time>
      </trkpt>
      <trkpt lat="43.636830970644951" lon="7.13360401801765">
        <ele>19.359999999999999</ele>
        <time>2025-05-18T14:47:39Z</time>
      </trkpt>
      <trkpt lat="43.636932978406549" lon="7.133666966110468">
        <ele>19.84</ele>
        <time>2025-05-18T14:47:40Z</time>
      </trkpt>
      <trkpt lat="43.637035991996527" lon="7.133736032992601">
        <ele>20.32</ele>
        <time>2025-05-18T14:47:41Z</time>
      </trkpt>
      <trkpt lat="43.63713095895946" lon="7.133810967206955">
        <ele>20.809999999999999</ele>
        <time>2025-05-18T14:47:42Z</time>
      </trkpt>
      <trkpt lat="43.637216035276651" lon="7.133903000503779">
        <ele>21.289999999999999</ele>
        <time>2025-05-18T14:47:43Z</time>
      </trkpt>
      <trkpt lat="43.637293986976147" lon="7.133995033800602">
        <ele>21.77</ele>
        <time>2025-05-18T14:47:44Z</time>
      </trkpt>
      <trkpt lat="43.637367999181151" lon="7.134082959964871">
        <ele>21.77</ele>
        <time>2025-05-18T14:47:45Z</time>
      </trkpt>
      <trkpt lat="43.637441005557775" lon="7.134168958291411">
        <ele>21.77</ele>
        <time>2025-05-18T14:47:46Z</time>
      </trkpt>
      <trkpt lat="43.638083981350064" lon="7.135477038100362">
        <ele>19.84</ele>
        <time>2025-05-18T14:47:55Z</time>
      </trkpt>
      <trkpt lat="43.638634001836181" lon="7.136652013286948">
        <ele>15.52</ele>
        <time>2025-05-18T14:48:03Z</time>
      </trkpt>
      <trkpt lat="43.638945976272225" lon="7.137546027079225">
        <ele>13.6</ele>
        <time>2025-05-18T14:48:10Z</time>
      </trkpt>
      <trkpt lat="43.638983024284244" lon="7.137636970728636">
        <ele>13.119999999999999</ele>
        <time>2025-05-18T14:48:11Z</time>
      </trkpt>
      <trkpt lat="43.639353001490235" lon="7.138349013403058">
        <ele>10.710000000000001</ele>
        <time>2025-05-18T14:48:19Z</time>
      </trkpt>
      <trkpt lat="43.639392983168364" lon="7.138431994244456">
        <ele>10.710000000000001</ele>
        <time>2025-05-18T14:48:20Z</time>
      </trkpt>
      <trkpt lat="43.639521980658174" lon="7.138693006709218">
        <ele>11.19</ele>
        <time>2025-05-18T14:48:23Z</time>
      </trkpt>
      <trkpt lat="43.639573026448488" lon="7.138795014470816">
        <ele>11.19</ele>
        <time>2025-05-18T14:48:24Z</time>
      </trkpt>
      <trkpt lat="43.640037970617414" lon="7.139760022982955">
        <ele>11.67</ele>
        <time>2025-05-18T14:48:33Z</time>
      </trkpt>
      <trkpt lat="43.640730986371636" lon="7.141127027571201">
        <ele>10.710000000000001</ele>
        <time>2025-05-18T14:48:45Z</time>
      </trkpt>
      <trkpt lat="43.641622988507152" lon="7.142426976934075">
        <ele>10.23</ele>
        <time>2025-05-18T14:48:57Z</time>
      </trkpt>
      <trkpt lat="43.642705008387566" lon="7.143672024831176">
        <ele>11.67</ele>
        <time>2025-05-18T14:49:10Z</time>
      </trkpt>
      <trkpt lat="43.643043972551823" lon="7.14404602535069">
        <ele>12.15</ele>
        <time>2025-05-18T14:49:14Z</time>
      </trkpt>
      <trkpt lat="43.643127959221601" lon="7.144147027283907">
        <ele>11.67</ele>
        <time>2025-05-18T14:49:15Z</time>
      </trkpt>
      <trkpt lat="43.643624000251293" lon="7.14467198587954">
        <ele>11.67</ele>
        <time>2025-05-18T14:49:22Z</time>
      </trkpt>
      <trkpt lat="43.64370396360755" lon="7.144718002527952">
        <ele>11.67</ele>
        <time>2025-05-18T14:49:23Z</time>
      </trkpt>
      <trkpt lat="43.64379096776247" lon="7.144724959507585">
        <ele>11.67</ele>
        <time>2025-05-18T14:49:24Z</time>
      </trkpt>
      <trkpt lat="43.643878977745771" lon="7.144733006134629">
        <ele>11.67</ele>
        <time>2025-05-18T14:49:25Z</time>
      </trkpt>
      <trkpt lat="43.643967993557453" lon="7.144740968942642">
        <ele>11.67</ele>
        <time>2025-05-18T14:49:26Z</time>
      </trkpt>
      <trkpt lat="43.644235963001847" lon="7.144830990582705">
        <ele>10.710000000000001</ele>
        <time>2025-05-18T14:49:29Z</time>
      </trkpt>
      <trkpt lat="43.644323972985148" lon="7.144902991130948">
        <ele>10.23</ele>
        <time>2025-05-18T14:49:30Z</time>
      </trkpt>
      <trkpt lat="43.644410977140069" lon="7.144974991679192">
        <ele>9.75</ele>
        <time>2025-05-18T14:49:31Z</time>
      </trkpt>
      <trkpt lat="43.644457999616861" lon="7.145072976127267">
        <ele>9.27</ele>
        <time>2025-05-18T14:49:32Z</time>
      </trkpt>
      <trkpt lat="43.644508961588144" lon="7.145179007202387">
        <ele>8.789999999999999</ele>
        <time>2025-05-18T14:49:33Z</time>
      </trkpt>
      <trkpt lat="43.644559001550078" lon="7.145283026620746">
        <ele>8.310000000000001</ele>
        <time>2025-05-18T14:49:34Z</time>
      </trkpt>
      <trkpt lat="43.644840968772769" lon="7.145876968279481">
        <ele>8.310000000000001</ele>
        <time>2025-05-18T14:49:40Z</time>
      </trkpt>
      <trkpt lat="43.644946999847889" lon="7.145966989919543">
        <ele>7.83</ele>
        <time>2025-05-18T14:49:41Z</time>
      </trkpt>
      <trkpt lat="43.645021012052894" lon="7.146033961325884">
        <ele>7.83</ele>
        <time>2025-05-18T14:49:42Z</time>
      </trkpt>
      <trkpt lat="43.645093012601137" lon="7.146101016551256">
        <ele>7.83</ele>
        <time>2025-05-18T14:49:43Z</time>
      </trkpt>
      <trkpt lat="43.645164007321" lon="7.146168993785977">
        <ele>7.35</ele>
        <time>2025-05-18T14:49:44Z</time>
      </trkpt>
      <trkpt lat="43.646110994741321" lon="7.147054960951209">
        <ele>7.35</ele>
        <time>2025-05-18T14:49:57Z</time>
      </trkpt>
      <trkpt lat="43.647134006023407" lon="7.148040002211928">
        <ele>6.39</ele>
        <time>2025-05-18T14:50:10Z</time>
      </trkpt>
      <trkpt lat="43.648116029798985" lon="7.148982966318727">
        <ele>5.42</ele>
        <time>2025-05-18T14:50:23Z</time>
      </trkpt>
      <trkpt lat="43.648512996733189" lon="7.149438019841909">
        <ele>5.42</ele>
        <time>2025-05-18T14:50:31Z</time>
      </trkpt>
      <trkpt lat="43.648548033088446" lon="7.149476995691657">
        <ele>5.42</ele>
        <time>2025-05-18T14:50:32Z</time>
      </trkpt>
      <trkpt lat="43.648582985624671" lon="7.149515971541405">
        <ele>5.42</ele>
        <time>2025-05-18T14:50:33Z</time>
      </trkpt>
      <trkpt lat="43.648620033636689" lon="7.149556959047914">
        <ele>5.42</ele>
        <time>2025-05-18T14:50:34Z</time>
      </trkpt>
      <trkpt lat="43.648656997829676" lon="7.149597024545074">
        <ele>5.42</ele>
        <time>2025-05-18T14:50:35Z</time>
      </trkpt>
      <trkpt lat="43.648691028356552" lon="7.149634994566441">
        <ele>5.91</ele>
        <time>2025-05-18T14:50:36Z</time>
      </trkpt>
      <trkpt lat="43.648723969236016" lon="7.149671036750078">
        <ele>5.91</ele>
        <time>2025-05-18T14:50:37Z</time>
      </trkpt>
      <trkpt lat="43.648784989491105" lon="7.149738008156419">
        <ele>5.91</ele>
        <time>2025-05-18T14:50:39Z</time>
      </trkpt>
      <trkpt lat="43.648818014189601" lon="7.149772960692644">
        <ele>5.91</ele>
        <time>2025-05-18T14:50:40Z</time>
      </trkpt>
      <trkpt lat="43.648850033059716" lon="7.149809002876282">
        <ele>5.91</ele>
        <time>2025-05-18T14:50:41Z</time>
      </trkpt>
      <trkpt lat="43.64909796975553" lon="7.150103040039539">
        <ele>5.91</ele>
        <time>2025-05-18T14:50:51Z</time>
      </trkpt>
      <trkpt lat="43.64911800250411" lon="7.15012701228261">
        <ele>5.42</ele>
        <time>2025-05-18T14:50:59Z</time>
      </trkpt>
      <trkpt lat="43.64911800250411" lon="7.15012701228261">
        <ele>5.42</ele>
        <time>2025-05-18T14:51:22Z</time>
      </trkpt>
      <trkpt lat="43.64911800250411" lon="7.15012701228261">
        <ele>4.94</ele>
        <time>2025-05-18T14:51:41Z</time>
      </trkpt>
      <trkpt lat="43.649416984990239" lon="7.150476034730673">
        <ele>6.39</ele>
        <time>2025-05-18T14:51:54Z</time>
      </trkpt>
      <trkpt lat="43.649572972208261" lon="7.150650965049863">
        <ele>8.310000000000001</ele>
        <time>2025-05-18T14:52:03Z</time>
      </trkpt>
      <trkpt lat="43.649730971083045" lon="7.150825979188085">
        <ele>9.27</ele>
        <time>2025-05-18T14:52:17Z</time>
      </trkpt>
      <trkpt lat="43.649797020480037" lon="7.150946008041501">
        <ele>8.789999999999999</ele>
        <time>2025-05-18T14:52:28Z</time>
      </trkpt>
      <trkpt lat="43.650024002417922" lon="7.151161003857851">
        <ele>6.87</ele>
        <time>2025-05-18T14:52:39Z</time>
      </trkpt>
      <trkpt lat="43.650216031819582" lon="7.151325959712267">
        <ele>6.39</ele>
        <time>2025-05-18T14:52:48Z</time>
      </trkpt>
      <trkpt lat="43.650262970477343" lon="7.151383040472865">
        <ele>5.91</ele>
        <time>2025-05-18T14:52:49Z</time>
      </trkpt>
      <trkpt lat="43.650304963812232" lon="7.151434002444148">
        <ele>5.91</ele>
        <time>2025-05-18T14:52:50Z</time>
      </trkpt>
      <trkpt lat="43.650346035137773" lon="7.151483036577702">
        <ele>5.91</ele>
        <time>2025-05-18T14:52:51Z</time>
      </trkpt>
      <trkpt lat="43.650376964360476" lon="7.151520000770688">
        <ele>5.42</ele>
        <time>2025-05-18T14:52:52Z</time>
      </trkpt>
      <trkpt lat="43.650463968515396" lon="7.151681017130613">
        <ele>4.94</ele>
        <time>2025-05-18T14:53:00Z</time>
      </trkpt>
      <trkpt lat="43.650463968515396" lon="7.151681017130613">
        <ele>4.94</ele>
        <time>2025-05-18T14:53:38Z</time>
      </trkpt>
      <trkpt lat="43.650463968515396" lon="7.151681017130613">
        <ele>4.94</ele>
        <time>2025-05-18T14:54:02Z</time>
      </trkpt>
      <trkpt lat="43.650588020682335" lon="7.151942029595375">
        <ele>4.94</ele>
        <time>2025-05-18T14:54:14Z</time>
      </trkpt>
      <trkpt lat="43.650620961561799" lon="7.152021992951632">
        <ele>4.94</ele>
        <time>2025-05-18T14:54:15Z</time>
      </trkpt>
      <trkpt lat="43.650763034820557" lon="7.151957033202052">
        <ele>4.94</ele>
        <time>2025-05-18T14:54:16Z</time>
      </trkpt>
      <trkpt lat="43.650809973478317" lon="7.151983017101884">
        <ele>4.94</ele>
        <time>2025-05-18T14:54:17Z</time>
      </trkpt>
      <trkpt lat="43.650852972641587" lon="7.152004977688193">
        <ele>4.94</ele>
        <time>2025-05-18T14:54:18Z</time>
      </trkpt>
      <trkpt lat="43.650913992896676" lon="7.152034984901547">
        <ele>5.42</ele>
        <time>2025-05-18T14:54:19Z</time>
      </trkpt>
      <trkpt lat="43.651113985106349" lon="7.152024004608393">
        <ele>3.5</ele>
        <time>2025-05-18T14:54:28Z</time>
      </trkpt>
      <trkpt lat="43.651173999533057" lon="7.15201998129487">
        <ele>2.54</ele>
        <time>2025-05-18T14:54:44Z</time>
      </trkpt>
      <trkpt lat="43.651173999533057" lon="7.15201998129487">
        <ele>2.54</ele>
        <time>2025-05-18T14:55:01Z</time>
      </trkpt>
      <trkpt lat="43.651242982596159" lon="7.15201604180038">
        <ele>2.54</ele>
        <time>2025-05-18T14:55:04Z</time>
      </trkpt>
      <trkpt lat="43.651278018951416" lon="7.152014030143619">
        <ele>2.54</ele>
        <time>2025-05-18T14:55:05Z</time>
      </trkpt>
      <trkpt lat="43.651336021721363" lon="7.152009001001716">
        <ele>3.02</ele>
        <time>2025-05-18T14:55:07Z</time>
      </trkpt>
      <trkpt lat="43.651379020884633" lon="7.152004977688193">
        <ele>3.5</ele>
        <time>2025-05-18T14:55:08Z</time>
      </trkpt>
      <trkpt lat="43.651725025847554" lon="7.151957033202052">
        <ele>3.5</ele>
        <time>2025-05-18T14:55:15Z</time>
      </trkpt>
      <trkpt lat="43.651970028877258" lon="7.151917973533273">
        <ele>3.98</ele>
        <time>2025-05-18T14:55:24Z</time>
      </trkpt>
      <trkpt lat="43.652208996936679" lon="7.151881009340286">
        <ele>4.94</ele>
        <time>2025-05-18T14:55:35Z</time>
      </trkpt>
      <trkpt lat="43.652264988049865" lon="7.151872962713242">
        <ele>5.42</ele>
        <time>2025-05-18T14:55:44Z</time>
      </trkpt>
      <trkpt lat="43.652264988049865" lon="7.151872962713242">
        <ele>5.91</ele>
        <time>2025-05-18T14:56:05Z</time>
      </trkpt>
      <trkpt lat="43.652483001351357" lon="7.151840021833777">
        <ele>10.23</ele>
        <time>2025-05-18T14:56:22Z</time>
      </trkpt>
      <trkpt lat="43.652582997456193" lon="7.1518250182271">
        <ele>11.19</ele>
        <time>2025-05-18T14:56:59Z</time>
      </trkpt>
      <trkpt lat="43.652969989925623" lon="7.151774978265166">
        <ele>12.15</ele>
        <time>2025-05-18T14:57:06Z</time>
      </trkpt>
      <trkpt lat="43.653135029599071" lon="7.151750000193715">
        <ele>14.08</ele>
        <time>2025-05-18T14:57:14Z</time>
      </trkpt>
      <trkpt lat="43.653286993503571" lon="7.151722004637122">
        <ele>14.56</ele>
        <time>2025-05-18T14:57:27Z</time>
      </trkpt>
      <trkpt lat="43.653792003169656" lon="7.151661990210414">
        <ele>14.08</ele>
        <time>2025-05-18T14:57:36Z</time>
      </trkpt>
      <trkpt lat="43.654097020626068" lon="7.151607004925609">
        <ele>14.56</ele>
        <time>2025-05-18T14:57:45Z</time>
      </trkpt>
      <trkpt lat="43.654097020626068" lon="7.151607004925609">
        <ele>15.039999999999999</ele>
        <time>2025-05-18T14:58:03Z</time>
      </trkpt>
      <trkpt lat="43.654322996735573" lon="7.1515660174191">
        <ele>16</ele>
        <time>2025-05-18T14:58:16Z</time>
      </trkpt>
      <trkpt lat="43.654322996735573" lon="7.1515660174191">
        <ele>16.48</ele>
        <time>2025-05-18T14:58:29Z</time>
      </trkpt>
      <trkpt lat="43.654547967016697" lon="7.151527963578701">
        <ele>18.399999999999999</ele>
        <time>2025-05-18T14:58:37Z</time>
      </trkpt>
      <trkpt lat="43.654749970883131" lon="7.151499968022108">
        <ele>19.359999999999999</ele>
        <time>2025-05-18T14:58:44Z</time>
      </trkpt>
      <trkpt lat="43.654749970883131" lon="7.151499968022108">
        <ele>19.359999999999999</ele>
        <time>2025-05-18T14:58:59Z</time>
      </trkpt>
      <trkpt lat="43.654749970883131" lon="7.151499968022108">
        <ele>19.359999999999999</ele>
        <time>2025-05-18T14:59:29Z</time>
      </trkpt>
      <trkpt lat="43.654925990849733" lon="7.151477001607418">
        <ele>16.960000000000001</ele>
        <time>2025-05-18T14:59:58Z</time>
      </trkpt>
      <trkpt lat="43.655205024406314" lon="7.151343980804086">
        <ele>15.52</ele>
        <time>2025-05-18T15:00:03Z</time>
      </trkpt>
      <trkpt lat="43.655257998034358" lon="7.151329983025789">
        <ele>15.52</ele>
        <time>2025-05-18T15:00:04Z</time>
      </trkpt>
      <trkpt lat="43.655308960005641" lon="7.151316991075873">
        <ele>15.52</ele>
        <time>2025-05-18T15:00:05Z</time>
      </trkpt>
      <trkpt lat="43.655366040766239" lon="7.151305004954338">
        <ele>15.52</ele>
        <time>2025-05-18T15:00:06Z</time>
      </trkpt>
      <trkpt lat="43.655412979424" lon="7.151298969984055">
        <ele>15.52</ele>
        <time>2025-05-18T15:00:07Z</time>
      </trkpt>
      <trkpt lat="43.65545698441565" lon="7.151295030489564">
        <ele>15.52</ele>
        <time>2025-05-18T15:00:08Z</time>
      </trkpt>
      <trkpt lat="43.65562504157424" lon="7.151276003569365">
        <ele>16</ele>
        <time>2025-05-18T15:00:13Z</time>
      </trkpt>
      <trkpt lat="43.65562504157424" lon="7.151276003569365">
        <ele>16</ele>
        <time>2025-05-18T15:00:21Z</time>
      </trkpt>
      <trkpt lat="43.65562504157424" lon="7.151276003569365">
        <ele>16</ele>
        <time>2025-05-18T15:00:41Z</time>
      </trkpt>
      <trkpt lat="43.65562504157424" lon="7.151276003569365">
        <ele>16</ele>
        <time>2025-05-18T15:01:13Z</time>
      </trkpt>
      <trkpt lat="43.65562504157424" lon="7.151276003569365">
        <ele>16.48</ele>
        <time>2025-05-18T15:01:37Z</time>
      </trkpt>
      <trkpt lat="43.655682960525155" lon="7.151455041021109">
        <ele>103</ele>
        <time>2025-05-18T15:31:54Z</time>
      </trkpt>
      <trkpt lat="43.655695030465722" lon="7.151325037702918">
        <ele>45.32</ele>
        <time>2025-05-18T15:32:15Z</time>
      </trkpt>
      <trkpt lat="43.655708022415638" lon="7.151325959712267">
        <ele>49.159999999999997</ele>
        <time>2025-05-18T15:32:42Z</time>
      </trkpt>
      <trkpt lat="43.655723026022315" lon="7.151284972205758">
        <ele>48.68</ele>
        <time>2025-05-18T15:32:46Z</time>
      </trkpt>
      <trkpt lat="43.655595034360886" lon="7.151199979707599">
        <ele>40.509999999999998</ele>
        <time>2025-05-18T15:32:57Z</time>
      </trkpt>
      <trkpt lat="43.655586987733841" lon="7.151198973879218">
        <ele>40.030000000000001</ele>
        <time>2025-05-18T15:32:58Z</time>
      </trkpt>
      <trkpt lat="43.655548011884093" lon="7.151283966377378">
        <ele>40.030000000000001</ele>
        <time>2025-05-18T15:33:00Z</time>
      </trkpt>
      <trkpt lat="43.655409961938858" lon="7.151299975812435">
        <ele>36.670000000000002</ele>
        <time>2025-05-18T15:33:10Z</time>
      </trkpt>
      <trkpt lat="43.655291022732854" lon="7.151322020217776">
        <ele>28.5</ele>
        <time>2025-05-18T15:33:37Z</time>
      </trkpt>
      <trkpt lat="43.655199995264411" lon="7.151344986632466">
        <ele>28.02</ele>
        <time>2025-05-18T15:33:45Z</time>
      </trkpt>
      <trkpt lat="43.655107039958239" lon="7.151368036866188">
        <ele>27.050000000000001</ele>
        <time>2025-05-18T15:33:57Z</time>
      </trkpt>
      <trkpt lat="43.655107039958239" lon="7.151368036866188">
        <ele>28.02</ele>
        <time>2025-05-18T15:34:24Z</time>
      </trkpt>
      <trkpt lat="43.655107039958239" lon="7.151368036866188">
        <ele>28.02</ele>
        <time>2025-05-18T15:34:31Z</time>
      </trkpt>
      <trkpt lat="43.655097987502813" lon="7.151369964703918">
        <ele>28.02</ele>
        <time>2025-05-18T15:34:32Z</time>
      </trkpt>
      <trkpt lat="43.655139980837703" lon="7.151483036577702">
        <ele>25.609999999999999</ele>
        <time>2025-05-18T15:34:39Z</time>
      </trkpt>
      <trkpt lat="43.655149033293128" lon="7.151506002992392">
        <ele>25.609999999999999</ele>
        <time>2025-05-18T15:34:41Z</time>
      </trkpt>
      <trkpt lat="43.655164036899805" lon="7.151544978842139">
        <ele>24.649999999999999</ele>
        <time>2025-05-18T15:34:42Z</time>
      </trkpt>
      <trkpt lat="43.65517501719296" lon="7.151574986055493">
        <ele>23.690000000000001</ele>
        <time>2025-05-18T15:34:52Z</time>
      </trkpt>
      <trkpt lat="43.655216004699469" lon="7.151685040444136">
        <ele>22.73</ele>
        <time>2025-05-18T15:35:03Z</time>
      </trkpt>
      <trkpt lat="43.655317006632686" lon="7.152010006830096">
        <ele>22.25</ele>
        <time>2025-05-18T15:35:22Z</time>
      </trkpt>
      <trkpt lat="43.655438963323832" lon="7.152436980977655">
        <ele>19.84</ele>
        <time>2025-05-18T15:35:29Z</time>
      </trkpt>
      <trkpt lat="43.65545698441565" lon="7.152496995404363">
        <ele>19.359999999999999</ele>
        <time>2025-05-18T15:35:30Z</time>
      </trkpt>
      <trkpt lat="43.655491014942527" lon="7.152609983459115">
        <ele>18.399999999999999</ele>
        <time>2025-05-18T15:35:32Z</time>
      </trkpt>
      <trkpt lat="43.655508030205965" lon="7.152665974572301">
        <ele>17.920000000000002</ele>
        <time>2025-05-18T15:35:33Z</time>
      </trkpt>
      <trkpt lat="43.655568966642022" lon="7.152869990095496">
        <ele>14.08</ele>
        <time>2025-05-18T15:35:42Z</time>
      </trkpt>
      <trkpt lat="43.655568966642022" lon="7.152869990095496">
        <ele>14.08</ele>
        <time>2025-05-18T15:36:19Z</time>
      </trkpt>
      <trkpt lat="43.655610959976912" lon="7.153011979535222">
        <ele>10.710000000000001</ele>
        <time>2025-05-18T15:36:23Z</time>
      </trkpt>
      <trkpt lat="43.655633004382253" lon="7.153085991740227">
        <ele>10.23</ele>
        <time>2025-05-18T15:36:24Z</time>
      </trkpt>
      <trkpt lat="43.655870966613293" lon="7.153883026912808">
        <ele>8.310000000000001</ele>
        <time>2025-05-18T15:36:33Z</time>
      </trkpt>
      <trkpt lat="43.655915977433324" lon="7.154088970273733">
        <ele>7.83</ele>
        <time>2025-05-18T15:36:37Z</time>
      </trkpt>
      <trkpt lat="43.655955959111452" lon="7.154216961935163">
        <ele>7.35</ele>
        <time>2025-05-18T15:36:46Z</time>
      </trkpt>
      <trkpt lat="43.655998958274722" lon="7.154354006052017">
        <ele>7.35</ele>
        <time>2025-05-18T15:36:55Z</time>
      </trkpt>
      <trkpt lat="43.656094009056687" lon="7.154647959396243">
        <ele>6.39</ele>
        <time>2025-05-18T15:37:07Z</time>
      </trkpt>
      <trkpt lat="43.656235998496413" lon="7.155077029019594">
        <ele>5.91</ele>
        <time>2025-05-18T15:37:13Z</time>
      </trkpt>
      <trkpt lat="43.656301964074373" lon="7.155256988480687">
        <ele>6.87</ele>
        <time>2025-05-18T15:37:20Z</time>
      </trkpt>
      <trkpt lat="43.656352004036307" lon="7.155392020940781">
        <ele>6.87</ele>
        <time>2025-05-18T15:37:29Z</time>
      </trkpt>
      <trkpt lat="43.6563799995929" lon="7.155463015660644">
        <ele>6.87</ele>
        <time>2025-05-18T15:37:41Z</time>
      </trkpt>
      <trkpt lat="43.656479995697737" lon="7.155691003426909">
        <ele>9.75</ele>
        <time>2025-05-18T15:38:14Z</time>
      </trkpt>
      <trkpt lat="43.656712006777525" lon="7.156269019469619">
        <ele>9.27</ele>
        <time>2025-05-18T15:38:23Z</time>
      </trkpt>
      <trkpt lat="43.656712006777525" lon="7.156269019469619">
        <ele>8.789999999999999</ele>
        <time>2025-05-18T15:38:36Z</time>
      </trkpt>
      <trkpt lat="43.656781995669007" lon="7.156451996415854">
        <ele>9.27</ele>
        <time>2025-05-18T15:38:46Z</time>
      </trkpt>
      <trkpt lat="43.656781995669007" lon="7.156451996415854">
        <ele>9.27</ele>
        <time>2025-05-18T15:39:10Z</time>
      </trkpt>
      <trkpt lat="43.65678995847702" lon="7.156473034992814">
        <ele>9.27</ele>
        <time>2025-05-18T15:39:11Z</time>
      </trkpt>
      <trkpt lat="43.656799010932446" lon="7.156497007235885">
        <ele>9.75</ele>
        <time>2025-05-18T15:39:12Z</time>
      </trkpt>
      <trkpt lat="43.656815020367503" lon="7.156537994742394">
        <ele>10.23</ele>
        <time>2025-05-18T15:39:13Z</time>
      </trkpt>
      <trkpt lat="43.65700101479888" lon="7.157117016613483">
        <ele>10.23</ele>
        <time>2025-05-18T15:39:20Z</time>
      </trkpt>
      <trkpt lat="43.657191032543778" lon="7.15758397243917">
        <ele>9.75</ele>
        <time>2025-05-18T15:39:25Z</time>
      </trkpt>
      <trkpt lat="43.65734500810504" lon="7.157983034849167">
        <ele>10.23</ele>
        <time>2025-05-18T15:39:30Z</time>
      </trkpt>
      <trkpt lat="43.657375015318394" lon="7.158065009862185">
        <ele>10.23</ele>
        <time>2025-05-18T15:39:31Z</time>
      </trkpt>
      <trkpt lat="43.65740804001689" lon="7.158152014017105">
        <ele>10.23</ele>
        <time>2025-05-18T15:39:32Z</time>
      </trkpt>
      <trkpt lat="43.657433018088341" lon="7.1582299657166">
        <ele>10.710000000000001</ele>
        <time>2025-05-18T15:39:33Z</time>
      </trkpt>
      <trkpt lat="43.657459001988173" lon="7.15831596404314">
        <ele>10.710000000000001</ele>
        <time>2025-05-18T15:39:34Z</time>
      </trkpt>
      <trkpt lat="43.657766031101346" lon="7.159239985048771">
        <ele>8.310000000000001</ele>
        <time>2025-05-18T15:39:45Z</time>
      </trkpt>
      <trkpt lat="43.657951019704342" lon="7.159793023020029">
        <ele>10.23</ele>
        <time>2025-05-18T15:39:51Z</time>
      </trkpt>
      <trkpt lat="43.658000975847244" lon="7.159972982481122">
        <ele>11.19</ele>
        <time>2025-05-18T15:39:53Z</time>
      </trkpt>
      <trkpt lat="43.658092003315687" lon="7.160236006602645">
        <ele>12.630000000000001</ele>
        <time>2025-05-18T15:39:56Z</time>
      </trkpt>
      <trkpt lat="43.658124022185802" lon="7.160323010757566">
        <ele>12.630000000000001</ele>
        <time>2025-05-18T15:39:57Z</time>
      </trkpt>
      <trkpt lat="43.658156963065267" lon="7.160411020740867">
        <ele>12.630000000000001</ele>
        <time>2025-05-18T15:39:58Z</time>
      </trkpt>
      <trkpt lat="43.658209014683962" lon="7.160554016008973">
        <ele>12.630000000000001</ele>
        <time>2025-05-18T15:40:00Z</time>
      </trkpt>
      <trkpt lat="43.658277997747064" lon="7.160650994628668">
        <ele>12.630000000000001</ele>
        <time>2025-05-18T15:40:01Z</time>
      </trkpt>
      <trkpt lat="43.658309010788798" lon="7.160736992955208">
        <ele>12.630000000000001</ele>
        <time>2025-05-18T15:40:02Z</time>
      </trkpt>
      <trkpt lat="43.658340023830533" lon="7.160820979624987">
        <ele>12.630000000000001</ele>
        <time>2025-05-18T15:40:03Z</time>
      </trkpt>
      <trkpt lat="43.658369025215507" lon="7.160903960466385">
        <ele>12.630000000000001</ele>
        <time>2025-05-18T15:40:04Z</time>
      </trkpt>
      <trkpt lat="43.658612016588449" lon="7.161605022847652">
        <ele>10.710000000000001</ele>
        <time>2025-05-18T15:40:12Z</time>
      </trkpt>
      <trkpt lat="43.658671025186777" lon="7.161776013672352">
        <ele>10.23</ele>
        <time>2025-05-18T15:40:14Z</time>
      </trkpt>
      <trkpt lat="43.658694997429848" lon="7.161844996735454">
        <ele>9.75</ele>
        <time>2025-05-18T15:40:15Z</time>
      </trkpt>
      <trkpt lat="43.658756017684937" lon="7.162023028358817">
        <ele>8.310000000000001</ele>
        <time>2025-05-18T15:40:22Z</time>
      </trkpt>
      <trkpt lat="43.658756017684937" lon="7.162023028358817">
        <ele>8.310000000000001</ele>
        <time>2025-05-18T15:40:36Z</time>
      </trkpt>
      <trkpt lat="43.658794993534684" lon="7.162143979221582">
        <ele>8.310000000000001</ele>
        <time>2025-05-18T15:41:04Z</time>
      </trkpt>
      <trkpt lat="43.65882801823318" lon="7.162269037216902">
        <ele>7.83</ele>
        <time>2025-05-18T15:41:06Z</time>
      </trkpt>
      <trkpt lat="43.658889960497618" lon="7.162499958649278">
        <ele>9.75</ele>
        <time>2025-05-18T15:41:11Z</time>
      </trkpt>
      <trkpt lat="43.658906975761056" lon="7.162565002217889">
        <ele>10.23</ele>
        <time>2025-05-18T15:41:12Z</time>
      </trkpt>
      <trkpt lat="43.658916028216481" lon="7.162598026916385">
        <ele>11.19</ele>
        <time>2025-05-18T15:41:13Z</time>
      </trkpt>
      <trkpt lat="43.658916028216481" lon="7.162598026916385">
        <ele>10.710000000000001</ele>
        <time>2025-05-18T15:41:25Z</time>
      </trkpt>
      <trkpt lat="43.658970007672906" lon="7.162802964448929">
        <ele>10.23</ele>
        <time>2025-05-18T15:41:39Z</time>
      </trkpt>
      <trkpt lat="43.659081989899278" lon="7.163293976336718">
        <ele>10.710000000000001</ele>
        <time>2025-05-18T15:41:51Z</time>
      </trkpt>
      <trkpt lat="43.659153990447521" lon="7.163683986291289">
        <ele>9.75</ele>
        <time>2025-05-18T15:42:01Z</time>
      </trkpt>
      <trkpt lat="43.659187015146017" lon="7.164348000660539">
        <ele>8.310000000000001</ele>
        <time>2025-05-18T15:42:09Z</time>
      </trkpt>
      <trkpt lat="43.65919497795403" lon="7.164510022848845">
        <ele>8.310000000000001</ele>
        <time>2025-05-18T15:42:11Z</time>
      </trkpt>
      <trkpt lat="43.659201012924314" lon="7.16463197953999">
        <ele>8.310000000000001</ele>
        <time>2025-05-18T15:42:13Z</time>
      </trkpt>
      <trkpt lat="43.659206964075565" lon="7.164756031706929">
        <ele>7.83</ele>
        <time>2025-05-18T15:42:15Z</time>
      </trkpt>
      <trkpt lat="43.659218028187752" lon="7.165062977001071">
        <ele>7.35</ele>
        <time>2025-05-18T15:42:19Z</time>
      </trkpt>
      <trkpt lat="43.659230014309287" lon="7.165536973625422">
        <ele>6.87</ele>
        <time>2025-05-18T15:42:24Z</time>
      </trkpt>
      <trkpt lat="43.659252980723977" lon="7.166066039353609">
        <ele>5.42</ele>
        <time>2025-05-18T15:42:31Z</time>
      </trkpt>
      <trkpt lat="43.65925800986588" lon="7.166167041286826">
        <ele>4.46</ele>
        <time>2025-05-18T15:42:33Z</time>
      </trkpt>
      <trkpt lat="43.659261027351022" lon="7.166230995208025">
        <ele>4.46</ele>
        <time>2025-05-18T15:42:34Z</time>
      </trkpt>
      <trkpt lat="43.659261027351022" lon="7.166282963007689">
        <ele>3.5</ele>
        <time>2025-05-18T15:42:35Z</time>
      </trkpt>
      <trkpt lat="43.659261027351022" lon="7.16630500741303">
        <ele>3.02</ele>
        <time>2025-05-18T15:42:36Z</time>
      </trkpt>
      <trkpt lat="43.659261027351022" lon="7.16630500741303">
        <ele>2.54</ele>
        <time>2025-05-18T15:42:37Z</time>
      </trkpt>
      <trkpt lat="43.659261027351022" lon="7.16630500741303">
        <ele>2.06</ele>
        <time>2025-05-18T15:42:53Z</time>
      </trkpt>
      <trkpt lat="43.659261027351022" lon="7.166369967162609">
        <ele>1.58</ele>
        <time>2025-05-18T15:43:00Z</time>
      </trkpt>
      <trkpt lat="43.659261027351022" lon="7.166411960497499">
        <ele>2.54</ele>
        <time>2025-05-18T15:43:01Z</time>
      </trkpt>
      <trkpt lat="43.659263961017132" lon="7.166604995727539">
        <ele>7.83</ele>
        <time>2025-05-18T15:43:11Z</time>
      </trkpt>
      <trkpt lat="43.659294974058867" lon="7.166843041777611">
        <ele>9.27</ele>
        <time>2025-05-18T15:43:15Z</time>
      </trkpt>
      <trkpt lat="43.659381978213787" lon="7.167517030611634">
        <ele>11.67</ele>
        <time>2025-05-18T15:43:22Z</time>
      </trkpt>
      <trkpt lat="43.659392958506942" lon="7.167603028938174">
        <ele>12.15</ele>
        <time>2025-05-18T15:43:23Z</time>
      </trkpt>
      <trkpt lat="43.659446015954018" lon="7.16804500669241">
        <ele>13.6</ele>
        <time>2025-05-18T15:43:30Z</time>
      </trkpt>
      <trkpt lat="43.659460013732314" lon="7.168160006403923">
        <ele>14.08</ele>
        <time>2025-05-18T15:43:31Z</time>
      </trkpt>
      <trkpt lat="43.659471999853849" lon="7.168272994458675">
        <ele>13.6</ele>
        <time>2025-05-18T15:43:32Z</time>
      </trkpt>
      <trkpt lat="43.659484991803765" lon="7.168387994170189">
        <ele>13.119999999999999</ele>
        <time>2025-05-18T15:43:33Z</time>
      </trkpt>
      <trkpt lat="43.65949597209692" lon="7.168486984446645">
        <ele>12.630000000000001</ele>
        <time>2025-05-18T15:43:34Z</time>
      </trkpt>
      <trkpt lat="43.659507036209106" lon="7.168571976944804">
        <ele>11.19</ele>
        <time>2025-05-18T15:43:35Z</time>
      </trkpt>
      <trkpt lat="43.659517010673881" lon="7.168654035776854">
        <ele>10.710000000000001</ele>
        <time>2025-05-18T15:43:36Z</time>
      </trkpt>
      <trkpt lat="43.659526985138655" lon="7.168731987476349">
        <ele>9.75</ele>
        <time>2025-05-18T15:43:37Z</time>
      </trkpt>
      <trkpt lat="43.659534025937319" lon="7.168789990246296">
        <ele>8.789999999999999</ele>
        <time>2025-05-18T15:43:38Z</time>
      </trkpt>
      <trkpt lat="43.659561015665531" lon="7.169244959950447">
        <ele>4.94</ele>
        <time>2025-05-18T15:43:47Z</time>
      </trkpt>
      <trkpt lat="43.659705016762018" lon="7.170389005914331">
        <ele>6.39</ele>
        <time>2025-05-18T15:43:58Z</time>
      </trkpt>
      <trkpt lat="43.659836025908589" lon="7.171220993623138">
        <ele>8.789999999999999</ele>
        <time>2025-05-18T15:44:05Z</time>
      </trkpt>
      <trkpt lat="43.659933004528284" lon="7.171851983293891">
        <ele>10.710000000000001</ele>
        <time>2025-05-18T15:44:10Z</time>
      </trkpt>
      <trkpt lat="43.659947002306581" lon="7.171948039904237">
        <ele>11.19</ele>
        <time>2025-05-18T15:44:11Z</time>
      </trkpt>
      <trkpt lat="43.660005005076528" lon="7.172339977696538">
        <ele>11.67</ele>
        <time>2025-05-18T15:44:17Z</time>
      </trkpt>
      <trkpt lat="43.660010034218431" lon="7.17236596159637">
        <ele>13.119999999999999</ele>
        <time>2025-05-18T15:44:27Z</time>
      </trkpt>
      <trkpt lat="43.660010034218431" lon="7.17236596159637">
        <ele>13.119999999999999</ele>
        <time>2025-05-18T15:44:33Z</time>
      </trkpt>
      <trkpt lat="43.660020008683205" lon="7.172422036528587">
        <ele>13.119999999999999</ele>
        <time>2025-05-18T15:44:34Z</time>
      </trkpt>
      <trkpt lat="43.660028977319598" lon="7.17247199267149">
        <ele>13.119999999999999</ele>
        <time>2025-05-18T15:44:35Z</time>
      </trkpt>
      <trkpt lat="43.660132996737957" lon="7.173004997894168">
        <ele>14.08</ele>
        <time>2025-05-18T15:44:42Z</time>
      </trkpt>
      <trkpt lat="43.660132996737957" lon="7.173004997894168">
        <ele>14.08</ele>
        <time>2025-05-18T15:44:53Z</time>
      </trkpt>
      <trkpt lat="43.660141965374351" lon="7.17305101454258">
        <ele>14.08</ele>
        <time>2025-05-18T15:45:20Z</time>
      </trkpt>
      <trkpt lat="43.660154035314918" lon="7.173122009262443">
        <ele>13.6</ele>
        <time>2025-05-18T15:45:21Z</time>
      </trkpt>
      <trkpt lat="43.660274986177683" lon="7.173900017514825">
        <ele>14.56</ele>
        <time>2025-05-18T15:45:29Z</time>
      </trkpt>
      <trkpt lat="43.660285966470838" lon="7.174016023054719">
        <ele>14.56</ele>
        <time>2025-05-18T15:45:30Z</time>
      </trkpt>
      <trkpt lat="43.660370958968997" lon="7.174677019938827">
        <ele>14.56</ele>
        <time>2025-05-18T15:45:37Z</time>
      </trkpt>
      <trkpt lat="43.660382023081183" lon="7.174767041578889">
        <ele>14.56</ele>
        <time>2025-05-18T15:45:38Z</time>
      </trkpt>
      <trkpt lat="43.660413036122918" lon="7.175109023228288">
        <ele>14.56</ele>
        <time>2025-05-18T15:45:42Z</time>
      </trkpt>
      <trkpt lat="43.66046198643744" lon="7.175682010129094">
        <ele>16.960000000000001</ele>
        <time>2025-05-18T15:45:51Z</time>
      </trkpt>
      <trkpt lat="43.660519989207387" lon="7.176429005339742">
        <ele>19.359999999999999</ele>
        <time>2025-05-18T15:45:58Z</time>
      </trkpt>
      <trkpt lat="43.660527030006051" lon="7.176568983122706">
        <ele>19.359999999999999</ele>
        <time>2025-05-18T15:45:59Z</time>
      </trkpt>
      <trkpt lat="43.66063398309052" lon="7.178184008225799">
        <ele>20.32</ele>
        <time>2025-05-18T15:46:10Z</time>
      </trkpt>
      <trkpt lat="43.660629037767649" lon="7.178301019594073">
        <ele>20.32</ele>
        <time>2025-05-18T15:46:11Z</time>
      </trkpt>
      <trkpt lat="43.660566005855799" lon="7.17870301567018">
        <ele>18.879999999999999</ele>
        <time>2025-05-18T15:46:15Z</time>
      </trkpt>
      <trkpt lat="43.660543039441109" lon="7.17881198041141">
        <ele>18.879999999999999</ele>
        <time>2025-05-18T15:46:16Z</time>
      </trkpt>
      <trkpt lat="43.660442037507892" lon="7.179134013131261">
        <ele>18.399999999999999</ele>
        <time>2025-05-18T15:46:19Z</time>
      </trkpt>
      <trkpt lat="43.660416975617409" lon="7.179250018671155">
        <ele>18.399999999999999</ele>
        <time>2025-05-18T15:46:20Z</time>
      </trkpt>
      <trkpt lat="43.660342041403055" lon="7.179609015583992">
        <ele>18.879999999999999</ele>
        <time>2025-05-18T15:46:25Z</time>
      </trkpt>
      <trkpt lat="43.660336006432772" lon="7.179641034454107">
        <ele>18.399999999999999</ele>
        <time>2025-05-18T15:46:26Z</time>
      </trkpt>
      <trkpt lat="43.660336006432772" lon="7.179641034454107">
        <ele>18.399999999999999</ele>
        <time>2025-05-18T15:46:27Z</time>
      </trkpt>
      <trkpt lat="43.660298958420753" lon="7.179851001128554">
        <ele>17.920000000000002</ele>
        <time>2025-05-18T15:46:35Z</time>
      </trkpt>
      <trkpt lat="43.660290995612741" lon="7.180057028308511">
        <ele>17.920000000000002</ele>
        <time>2025-05-18T15:46:37Z</time>
      </trkpt>
      <trkpt lat="43.660290995612741" lon="7.180174961686134">
        <ele>17.920000000000002</ele>
        <time>2025-05-18T15:46:38Z</time>
      </trkpt>
      <trkpt lat="43.660290995612741" lon="7.180294990539551">
        <ele>17.440000000000001</ele>
        <time>2025-05-18T15:46:39Z</time>
      </trkpt>
      <trkpt lat="43.660335000604391" lon="7.181281959638">
        <ele>15.52</ele>
        <time>2025-05-18T15:46:47Z</time>
      </trkpt>
      <trkpt lat="43.660373976454139" lon="7.181862993165851">
        <ele>13.119999999999999</ele>
        <time>2025-05-18T15:46:51Z</time>
      </trkpt>
      <trkpt lat="43.660359978675842" lon="7.18201101757586">
        <ele>12.630000000000001</ele>
        <time>2025-05-18T15:46:52Z</time>
      </trkpt>
      <trkpt lat="43.660315973684192" lon="7.182310000061989">
        <ele>12.15</ele>
        <time>2025-05-18T15:46:54Z</time>
      </trkpt>
      <trkpt lat="43.660145988687873" lon="7.183051966130734">
        <ele>11.67</ele>
        <time>2025-05-18T15:46:59Z</time>
      </trkpt>
      <trkpt lat="43.659884976223111" lon="7.18514802865684">
        <ele>8.310000000000001</ele>
        <time>2025-05-18T15:47:12Z</time>
      </trkpt>
      <trkpt lat="43.659891011193395" lon="7.186472034081817">
        <ele>4.94</ele>
        <time>2025-05-18T15:47:20Z</time>
      </trkpt>
      <trkpt lat="43.659896962344646" lon="7.186639001592994">
        <ele>4.46</ele>
        <time>2025-05-18T15:47:21Z</time>
      </trkpt>
      <trkpt lat="43.65990299731493" lon="7.186803035438061">
        <ele>4.46</ele>
        <time>2025-05-18T15:47:22Z</time>
      </trkpt>
      <trkpt lat="43.659915989264846" lon="7.186958016827703">
        <ele>4.46</ele>
        <time>2025-05-18T15:47:23Z</time>
      </trkpt>
      <trkpt lat="43.659933004528284" lon="7.187122972682118">
        <ele>3.98</ele>
        <time>2025-05-18T15:47:24Z</time>
      </trkpt>
      <trkpt lat="43.660161998122931" lon="7.188644036650658">
        <ele>5.42</ele>
        <time>2025-05-18T15:47:34Z</time>
      </trkpt>
      <trkpt lat="43.660237016156316" lon="7.188967997208238">
        <ele>5.91</ele>
        <time>2025-05-18T15:47:36Z</time>
      </trkpt>
      <trkpt lat="43.660789970308542" lon="7.190730962902308">
        <ele>9.75</ele>
        <time>2025-05-18T15:47:48Z</time>
      </trkpt>
      <trkpt lat="43.660884015262127" lon="7.190983006730676">
        <ele>10.23</ele>
        <time>2025-05-18T15:47:50Z</time>
      </trkpt>
      <trkpt lat="43.660933971405029" lon="7.191115021705627">
        <ele>10.710000000000001</ele>
        <time>2025-05-18T15:47:51Z</time>
      </trkpt>
      <trkpt lat="43.660984011366963" lon="7.191248964518309">
        <ele>10.710000000000001</ele>
        <time>2025-05-18T15:47:52Z</time>
      </trkpt>
      <trkpt lat="43.661349965259433" lon="7.192180026322603">
        <ele>11.67</ele>
        <time>2025-05-18T15:48:01Z</time>
      </trkpt>
      <trkpt lat="43.661538977175951" lon="7.192670032382011">
        <ele>14.56</ele>
        <time>2025-05-18T15:48:08Z</time>
      </trkpt>
      <trkpt lat="43.66155800409615" lon="7.192714959383011">
        <ele>15.039999999999999</ele>
        <time>2025-05-18T15:48:09Z</time>
      </trkpt>
      <trkpt lat="43.661713991314173" lon="7.19311703927815">
        <ele>16.48</ele>
        <time>2025-05-18T15:48:19Z</time>
      </trkpt>
      <trkpt lat="43.661721032112837" lon="7.193134976550937">
        <ele>15.52</ele>
        <time>2025-05-18T15:48:29Z</time>
      </trkpt>
      <trkpt lat="43.661723965778947" lon="7.193143023177981">
        <ele>15.52</ele>
        <time>2025-05-18T15:48:44Z</time>
      </trkpt>
      <trkpt lat="43.661767970770597" lon="7.193257017061114">
        <ele>14.56</ele>
        <time>2025-05-18T15:48:47Z</time>
      </trkpt>
      <trkpt lat="43.661789009347558" lon="7.193310996517539">
        <ele>14.56</ele>
        <time>2025-05-18T15:48:48Z</time>
      </trkpt>
      <trkpt lat="43.661807030439377" lon="7.19335600733757">
        <ele>14.56</ele>
        <time>2025-05-18T15:48:49Z</time>
      </trkpt>
      <trkpt lat="43.661824967712164" lon="7.193400012329221">
        <ele>14.56</ele>
        <time>2025-05-18T15:48:50Z</time>
      </trkpt>
      <trkpt lat="43.661847012117505" lon="7.193453991785646">
        <ele>15.039999999999999</ele>
        <time>2025-05-18T15:48:51Z</time>
      </trkpt>
      <trkpt lat="43.661872996017337" lon="7.193520963191986">
        <ele>15.039999999999999</ele>
        <time>2025-05-18T15:48:52Z</time>
      </trkpt>
      <trkpt lat="43.662221012637019" lon="7.194439033046365">
        <ele>17.920000000000002</ele>
        <time>2025-05-18T15:49:02Z</time>
      </trkpt>
      <trkpt lat="43.6628039740026" lon="7.195850964635611">
        <ele>20.32</ele>
        <time>2025-05-18T15:49:11Z</time>
      </trkpt>
      <trkpt lat="43.663454996421933" lon="7.197370016947389">
        <ele>20.32</ele>
        <time>2025-05-18T15:49:21Z</time>
      </trkpt>
      <trkpt lat="43.664252031594515" lon="7.199445040896535">
        <ele>20.809999999999999</ele>
        <time>2025-05-18T15:49:33Z</time>
      </trkpt>
      <trkpt lat="43.665074966847897" lon="7.201659036800265">
        <ele>22.25</ele>
        <time>2025-05-18T15:49:46Z</time>
      </trkpt>
      <trkpt lat="43.665548963472247" lon="7.203414039686322">
        <ele>24.170000000000002</ele>
        <time>2025-05-18T15:49:56Z</time>
      </trkpt>
      <trkpt lat="43.665606966242194" lon="7.203558040782809">
        <ele>24.649999999999999</ele>
        <time>2025-05-18T15:49:57Z</time>
      </trkpt>
      <trkpt lat="43.665681984275579" lon="7.203691983595491">
        <ele>24.649999999999999</ele>
        <time>2025-05-18T15:49:58Z</time>
      </trkpt>
      <trkpt lat="43.665977027267218" lon="7.204219959676266">
        <ele>24.170000000000002</ele>
        <time>2025-05-18T15:50:04Z</time>
      </trkpt>
      <trkpt lat="43.666036035865545" lon="7.204365972429514">
        <ele>23.690000000000001</ele>
        <time>2025-05-18T15:50:14Z</time>
      </trkpt>
      <trkpt lat="43.666085992008448" lon="7.204488012939692">
        <ele>23.210000000000001</ele>
        <time>2025-05-18T15:50:17Z</time>
      </trkpt>
      <trkpt lat="43.666237033903599" lon="7.20487198792398">
        <ele>22.73</ele>
        <time>2025-05-18T15:50:27Z</time>
      </trkpt>
      <trkpt lat="43.666373994201422" lon="7.205295022577047">
        <ele>20.32</ele>
        <time>2025-05-18T15:50:39Z</time>
      </trkpt>
      <trkpt lat="43.666459992527962" lon="7.205597022548318">
        <ele>20.32</ele>
        <time>2025-05-18T15:50:48Z</time>
      </trkpt>
      <trkpt lat="43.666459992527962" lon="7.205597022548318">
        <ele>20.32</ele>
        <time>2025-05-18T15:51:26Z</time>
      </trkpt>
      <trkpt lat="43.666468961164355" lon="7.20562300644815">
        <ele>19.84</ele>
        <time>2025-05-18T15:51:27Z</time>
      </trkpt>
      <trkpt lat="43.666630983352661" lon="7.206083005294204">
        <ele>17.440000000000001</ele>
        <time>2025-05-18T15:51:34Z</time>
      </trkpt>
      <trkpt lat="43.666670965030789" lon="7.206194987520576">
        <ele>16.48</ele>
        <time>2025-05-18T15:51:36Z</time>
      </trkpt>
      <trkpt lat="43.666695021092892" lon="7.206261036917567">
        <ele>16</ele>
        <time>2025-05-18T15:51:37Z</time>
      </trkpt>
      <trkpt lat="43.666940024122596" lon="7.206951035186648">
        <ele>10.710000000000001</ele>
        <time>2025-05-18T15:51:47Z</time>
      </trkpt>
      <trkpt lat="43.666985034942627" lon="7.207077015191317">
        <ele>10.23</ele>
        <time>2025-05-18T15:51:49Z</time>
      </trkpt>
      <trkpt lat="43.667016969993711" lon="7.207165025174618">
        <ele>9.27</ele>
        <time>2025-05-18T15:51:56Z</time>
      </trkpt>
      <trkpt lat="43.667016969993711" lon="7.207165025174618">
        <ele>9.27</ele>
        <time>2025-05-18T15:52:30Z</time>
      </trkpt>
      <trkpt lat="43.6671660002321" lon="7.207595016807318">
        <ele>7.83</ele>
        <time>2025-05-18T15:52:38Z</time>
      </trkpt>
      <trkpt lat="43.667246969416738" lon="7.2078359965235">
        <ele>6.87</ele>
        <time>2025-05-18T15:52:42Z</time>
      </trkpt>
      <trkpt lat="43.667268007993698" lon="7.20790003426373">
        <ele>6.39</ele>
        <time>2025-05-18T15:52:43Z</time>
      </trkpt>
      <trkpt lat="43.667296003550291" lon="7.207974968478084">
        <ele>6.39</ele>
        <time>2025-05-18T15:52:44Z</time>
      </trkpt>
      <trkpt lat="43.667435981333256" lon="7.208404960110784">
        <ele>3.98</ele>
        <time>2025-05-18T15:52:49Z</time>
      </trkpt>
      <trkpt lat="43.667503036558628" lon="7.208577962592244">
        <ele>3.02</ele>
        <time>2025-05-18T15:52:51Z</time>
      </trkpt>
      <trkpt lat="43.667538994923234" lon="7.208672007545829">
        <ele>2.54</ele>
        <time>2025-05-18T15:52:52Z</time>
      </trkpt>
      <trkpt lat="43.667877959087491" lon="7.209555041044951">
        <ele>5.42</ele>
        <time>2025-05-18T15:53:02Z</time>
      </trkpt>
      <trkpt lat="43.667935961857438" lon="7.209713961929083">
        <ele>6.39</ele>
        <time>2025-05-18T15:53:04Z</time>
      </trkpt>
      <trkpt lat="43.667961023747921" lon="7.209788979962468">
        <ele>6.87</ele>
        <time>2025-05-18T15:53:05Z</time>
      </trkpt>
      <trkpt lat="43.667980972677469" lon="7.209856035187841">
        <ele>7.35</ele>
        <time>2025-05-18T15:53:06Z</time>
      </trkpt>
      <trkpt lat="43.667995976284146" lon="7.209904985502362">
        <ele>7.83</ele>
        <time>2025-05-18T15:53:07Z</time>
      </trkpt>
      <trkpt lat="43.668016009032726" lon="7.209971034899354">
        <ele>8.310000000000001</ele>
        <time>2025-05-18T15:53:08Z</time>
      </trkpt>
      <trkpt lat="43.668016009032726" lon="7.209971034899354">
        <ele>8.789999999999999</ele>
        <time>2025-05-18T15:53:09Z</time>
      </trkpt>
      <trkpt lat="43.668027995154262" lon="7.210004981607199">
        <ele>8.789999999999999</ele>
        <time>2025-05-18T15:53:10Z</time>
      </trkpt>
      <trkpt lat="43.668039981275797" lon="7.210037000477314">
        <ele>8.789999999999999</ele>
        <time>2025-05-18T15:53:11Z</time>
      </trkpt>
      <trkpt lat="43.668039981275797" lon="7.210037000477314">
        <ele>9.27</ele>
        <time>2025-05-18T15:53:12Z</time>
      </trkpt>
      <trkpt lat="43.668039981275797" lon="7.210037000477314">
        <ele>13.119999999999999</ele>
        <time>2025-05-18T15:53:20Z</time>
      </trkpt>
      <trkpt lat="43.668078035116196" lon="7.210141019895673">
        <ele>13.6</ele>
        <time>2025-05-18T15:53:35Z</time>
      </trkpt>
      <trkpt lat="43.668092032894492" lon="7.210179995745421">
        <ele>13.6</ele>
        <time>2025-05-18T15:53:36Z</time>
      </trkpt>
      <trkpt lat="43.668112987652421" lon="7.210233975201845">
        <ele>14.08</ele>
        <time>2025-05-18T15:53:37Z</time>
      </trkpt>
      <trkpt lat="43.668142994865775" lon="7.210317039862275">
        <ele>14.08</ele>
        <time>2025-05-18T15:53:38Z</time>
      </trkpt>
      <trkpt lat="43.668173002079129" lon="7.210398009046912">
        <ele>14.08</ele>
        <time>2025-05-18T15:53:39Z</time>
      </trkpt>
      <trkpt lat="43.668205020949244" lon="7.210486019030213">
        <ele>14.08</ele>
        <time>2025-05-18T15:53:40Z</time>
      </trkpt>
      <trkpt lat="43.668309962376952" lon="7.210768992081285">
        <ele>12.630000000000001</ele>
        <time>2025-05-18T15:53:45Z</time>
      </trkpt>
      <trkpt lat="43.668315997347236" lon="7.210786007344723">
        <ele>12.630000000000001</ele>
        <time>2025-05-18T15:53:46Z</time>
      </trkpt>
      <trkpt lat="43.66836603730917" lon="7.210919028148055">
        <ele>11.19</ele>
        <time>2025-05-18T15:53:51Z</time>
      </trkpt>
      <trkpt lat="43.668375005945563" lon="7.210944006219506">
        <ele>11.19</ele>
        <time>2025-05-18T15:53:52Z</time>
      </trkpt>
      <trkpt lat="43.668384980410337" lon="7.210970995947719">
        <ele>10.710000000000001</ele>
        <time>2025-05-18T15:53:53Z</time>
      </trkpt>
      <trkpt lat="43.668394032865763" lon="7.21099304035306">
        <ele>9.75</ele>
        <time>2025-05-18T15:54:06Z</time>
      </trkpt>
      <trkpt lat="43.668499980121851" lon="7.211322030052543">
        <ele>8.789999999999999</ele>
        <time>2025-05-18T15:54:11Z</time>
      </trkpt>
      <trkpt lat="43.668771972879767" lon="7.21211202442646">
        <ele>7.35</ele>
        <time>2025-05-18T15:54:20Z</time>
      </trkpt>
      <trkpt lat="43.668803991749883" lon="7.212198022753">
        <ele>7.35</ele>
        <time>2025-05-18T15:54:21Z</time>
      </trkpt>
      <trkpt lat="43.66883902810514" lon="7.212288966402412">
        <ele>7.35</ele>
        <time>2025-05-18T15:54:22Z</time>
      </trkpt>
      <trkpt lat="43.668913962319493" lon="7.212488036602736">
        <ele>7.35</ele>
        <time>2025-05-18T15:54:24Z</time>
      </trkpt>
      <trkpt lat="43.669071039184928" lon="7.212888021022081">
        <ele>7.35</ele>
        <time>2025-05-18T15:54:28Z</time>
      </trkpt>
      <trkpt lat="43.669302966445684" lon="7.213147021830082">
        <ele>8.789999999999999</ele>
        <time>2025-05-18T15:54:31Z</time>
      </trkpt>
      <trkpt lat="43.669343031942844" lon="7.213247017934918">
        <ele>9.75</ele>
        <time>2025-05-18T15:54:32Z</time>
      </trkpt>
      <trkpt lat="43.669995982199907" lon="7.214910993352532">
        <ele>17.920000000000002</ele>
        <time>2025-05-18T15:54:44Z</time>
      </trkpt>
      <trkpt lat="43.670437959954143" lon="7.216155035421252">
        <ele>20.32</ele>
        <time>2025-05-18T15:54:53Z</time>
      </trkpt>
      <trkpt lat="43.670992003753781" lon="7.217565039172769">
        <ele>20.809999999999999</ele>
        <time>2025-05-18T15:55:02Z</time>
      </trkpt>
      <trkpt lat="43.671663980931044" lon="7.219079984351993">
        <ele>21.77</ele>
        <time>2025-05-18T15:55:11Z</time>
      </trkpt>
      <trkpt lat="43.672624966129661" lon="7.220757035538554">
        <ele>28.02</ele>
        <time>2025-05-18T15:55:21Z</time>
      </trkpt>
      <trkpt lat="43.673559967428446" lon="7.221760014072061">
        <ele>30.420000000000002</ele>
        <time>2025-05-18T15:55:29Z</time>
      </trkpt>
      <trkpt lat="43.674860000610352" lon="7.222655033692718">
        <ele>27.530000000000001</ele>
        <time>2025-05-18T15:55:38Z</time>
      </trkpt>
      <trkpt lat="43.675707997754216" lon="7.223317958414555">
        <ele>30.899999999999999</ele>
        <time>2025-05-18T15:55:44Z</time>
      </trkpt>
      <trkpt lat="43.677089000120759" lon="7.224409030750394">
        <ele>34.740000000000002</ele>
        <time>2025-05-18T15:55:54Z</time>
      </trkpt>
      <trkpt lat="43.678484000265598" lon="7.225619964301586">
        <ele>33.780000000000001</ele>
        <time>2025-05-18T15:56:04Z</time>
      </trkpt>
      <trkpt lat="43.679915964603424" lon="7.227405980229378">
        <ele>30.899999999999999</ele>
        <time>2025-05-18T15:56:15Z</time>
      </trkpt>
      <trkpt lat="43.681148020550609" lon="7.229337003082037">
        <ele>30.420000000000002</ele>
        <time>2025-05-18T15:56:26Z</time>
      </trkpt>
      <trkpt lat="43.682404970750213" lon="7.231264002621174">
        <ele>31.859999999999999</ele>
        <time>2025-05-18T15:56:38Z</time>
      </trkpt>
      <trkpt lat="43.683743979781866" lon="7.233028979972005">
        <ele>26.57</ele>
        <time>2025-05-18T15:56:50Z</time>
      </trkpt>
      <trkpt lat="43.684893976897001" lon="7.234108988195658">
        <ele>24.170000000000002</ele>
        <time>2025-05-18T15:56:59Z</time>
      </trkpt>
      <trkpt lat="43.686349997296929" lon="7.235709009692073">
        <ele>22.73</ele>
        <time>2025-05-18T15:57:11Z</time>
      </trkpt>
      <trkpt lat="43.687638966366649" lon="7.237382037565112">
        <ele>19.84</ele>
        <time>2025-05-18T15:57:23Z</time>
      </trkpt>
      <trkpt lat="43.688555024564266" lon="7.238588025793433">
        <ele>19.359999999999999</ele>
        <time>2025-05-18T15:57:32Z</time>
      </trkpt>
      <trkpt lat="43.689320040866733" lon="7.239608019590378">
        <ele>19.359999999999999</ele>
        <time>2025-05-18T15:57:40Z</time>
      </trkpt>
      <trkpt lat="43.690125038847327" lon="7.240632036700845">
        <ele>22.73</ele>
        <time>2025-05-18T15:57:48Z</time>
      </trkpt>
      <trkpt lat="43.691103961318731" lon="7.241961993277073">
        <ele>24.649999999999999</ele>
        <time>2025-05-18T15:57:57Z</time>
      </trkpt>
      <trkpt lat="43.692410029470921" lon="7.243692018091679">
        <ele>23.690000000000001</ele>
        <time>2025-05-18T15:58:09Z</time>
      </trkpt>
      <trkpt lat="43.693767981603742" lon="7.245475016534329">
        <ele>23.690000000000001</ele>
        <time>2025-05-18T15:58:22Z</time>
      </trkpt>
      <trkpt lat="43.694476000964642" lon="7.246369030326605">
        <ele>25.609999999999999</ele>
        <time>2025-05-18T15:58:28Z</time>
      </trkpt>
      <trkpt lat="43.695390969514847" lon="7.247229013592005">
        <ele>26.09</ele>
        <time>2025-05-18T15:58:35Z</time>
      </trkpt>
      <trkpt lat="43.696701982989907" lon="7.247897973284125">
        <ele>26.57</ele>
        <time>2025-05-18T15:58:44Z</time>
      </trkpt>
      <trkpt lat="43.698220029473305" lon="7.248700959607959">
        <ele>27.050000000000001</ele>
        <time>2025-05-18T15:58:54Z</time>
      </trkpt>
      <trkpt lat="43.698751023039222" lon="7.249234970659018">
        <ele>27.050000000000001</ele>
        <time>2025-05-18T15:58:58Z</time>
      </trkpt>
      <trkpt lat="43.699508998543024" lon="7.250257981941104">
        <ele>28.02</ele>
        <time>2025-05-18T15:59:06Z</time>
      </trkpt>
      <trkpt lat="43.699636990204453" lon="7.250547995790839">
        <ele>27.530000000000001</ele>
        <time>2025-05-18T15:59:13Z</time>
      </trkpt>
      <trkpt lat="43.699644031003118" lon="7.250565011054277">
        <ele>27.530000000000001</ele>
        <time>2025-05-18T15:59:15Z</time>
      </trkpt>
      <trkpt lat="43.699644031003118" lon="7.250565011054277">
        <ele>27.530000000000001</ele>
        <time>2025-05-18T15:59:35Z</time>
      </trkpt>
      <trkpt lat="43.699644031003118" lon="7.250565011054277">
        <ele>27.530000000000001</ele>
        <time>2025-05-18T15:59:55Z</time>
      </trkpt>
      <trkpt lat="43.699688035994768" lon="7.250665007159114">
        <ele>27.050000000000001</ele>
        <time>2025-05-18T16:00:39Z</time>
      </trkpt>
      <trkpt lat="43.699730029329658" lon="7.250761985778809">
        <ele>27.050000000000001</ele>
        <time>2025-05-18T16:00:40Z</time>
      </trkpt>
      <trkpt lat="43.699740003794432" lon="7.250843960791826">
        <ele>27.050000000000001</ele>
        <time>2025-05-18T16:00:41Z</time>
      </trkpt>
      <trkpt lat="43.699752995744348" lon="7.250947980210185">
        <ele>27.050000000000001</ele>
        <time>2025-05-18T16:00:42Z</time>
      </trkpt>
      <trkpt lat="43.699760958552361" lon="7.251049987971783">
        <ele>27.050000000000001</ele>
        <time>2025-05-18T16:00:43Z</time>
      </trkpt>
      <trkpt lat="43.699703039601445" lon="7.251358022913337">
        <ele>27.530000000000001</ele>
        <time>2025-05-18T16:00:46Z</time>
      </trkpt>
      <trkpt lat="43.699601031839848" lon="7.251599002629519">
        <ele>27.050000000000001</ele>
        <time>2025-05-18T16:00:49Z</time>
      </trkpt>
      <trkpt lat="43.699588039889932" lon="7.251693969592452">
        <ele>27.050000000000001</ele>
        <time>2025-05-18T16:00:50Z</time>
      </trkpt>
      <trkpt lat="43.699576975777745" lon="7.251791032031179">
        <ele>27.050000000000001</ele>
        <time>2025-05-18T16:00:51Z</time>
      </trkpt>
      <trkpt lat="43.699570018798113" lon="7.251896979287267">
        <ele>26.57</ele>
        <time>2025-05-18T16:00:52Z</time>
      </trkpt>
      <trkpt lat="43.699562977999449" lon="7.252006027847529">
        <ele>26.09</ele>
        <time>2025-05-18T16:00:53Z</time>
      </trkpt>
      <trkpt lat="43.699558032676578" lon="7.252229992300272">
        <ele>25.609999999999999</ele>
        <time>2025-05-18T16:00:55Z</time>
      </trkpt>
      <trkpt lat="43.699558032676578" lon="7.252350021153688">
        <ele>25.129999999999999</ele>
        <time>2025-05-18T16:00:56Z</time>
      </trkpt>
      <trkpt lat="43.699558032676578" lon="7.252724021673203">
        <ele>24.170000000000002</ele>
        <time>2025-05-18T16:00:59Z</time>
      </trkpt>
      <trkpt lat="43.699558032676578" lon="7.25284799002111">
        <ele>23.690000000000001</ele>
        <time>2025-05-18T16:01:00Z</time>
      </trkpt>
      <trkpt lat="43.699558032676578" lon="7.253109002485871">
        <ele>23.210000000000001</ele>
        <time>2025-05-18T16:01:02Z</time>
      </trkpt>
      <trkpt lat="43.699579993262887" lon="7.254346003755927">
        <ele>22.25</ele>
        <time>2025-05-18T16:01:11Z</time>
      </trkpt>
      <trkpt lat="43.699579993262887" lon="7.254346003755927">
        <ele>22.25</ele>
        <time>2025-05-18T16:01:12Z</time>
      </trkpt>
      <trkpt lat="43.699579993262887" lon="7.254346003755927">
        <ele>22.25</ele>
        <time>2025-05-18T16:01:13Z</time>
      </trkpt>
      <trkpt lat="43.699579993262887" lon="7.254350027069449">
        <ele>22.25</ele>
        <time>2025-05-18T16:01:14Z</time>
      </trkpt>
      <trkpt lat="43.699579993262887" lon="7.254390008747578">
        <ele>22.25</ele>
        <time>2025-05-18T16:01:15Z</time>
      </trkpt>
      <trkpt lat="43.699579993262887" lon="7.25441699847579">
        <ele>21.77</ele>
        <time>2025-05-18T16:01:25Z</time>
      </trkpt>
      <trkpt lat="43.699579993262887" lon="7.254699971526861">
        <ele>21.77</ele>
        <time>2025-05-18T16:01:46Z</time>
      </trkpt>
      <trkpt lat="43.699579993262887" lon="7.25499602034688">
        <ele>21.289999999999999</ele>
        <time>2025-05-18T16:01:50Z</time>
      </trkpt>
      <trkpt lat="43.699579993262887" lon="7.255073972046375">
        <ele>21.289999999999999</ele>
        <time>2025-05-18T16:01:51Z</time>
      </trkpt>
      <trkpt lat="43.699579993262887" lon="7.255158964544535">
        <ele>20.809999999999999</ele>
        <time>2025-05-18T16:01:52Z</time>
      </trkpt>
      <trkpt lat="43.699579993262887" lon="7.255647964775562">
        <ele>19.84</ele>
        <time>2025-05-18T16:01:58Z</time>
      </trkpt>
      <trkpt lat="43.699579993262887" lon="7.255931021645665">
        <ele>19.359999999999999</ele>
        <time>2025-05-18T16:02:02Z</time>
      </trkpt>
      <trkpt lat="43.699579993262887" lon="7.256035041064024">
        <ele>19.359999999999999</ele>
        <time>2025-05-18T16:02:09Z</time>
      </trkpt>
      <trkpt lat="43.699579993262887" lon="7.256035041064024">
        <ele>19.359999999999999</ele>
        <time>2025-05-18T16:02:53Z</time>
      </trkpt>
      <trkpt lat="43.699579993262887" lon="7.256055995821953">
        <ele>19.359999999999999</ele>
        <time>2025-05-18T16:03:05Z</time>
      </trkpt>
      <trkpt lat="43.699579993262887" lon="7.256111986935139">
        <ele>19.359999999999999</ele>
        <time>2025-05-18T16:03:06Z</time>
      </trkpt>
      <trkpt lat="43.699579993262887" lon="7.256193961948156">
        <ele>19.359999999999999</ele>
        <time>2025-05-18T16:03:07Z</time>
      </trkpt>
      <trkpt lat="43.699593991041183" lon="7.25641599856317">
        <ele>18.879999999999999</ele>
        <time>2025-05-18T16:03:09Z</time>
      </trkpt>
      <trkpt lat="43.699598014354706" lon="7.256659995764494">
        <ele>18.879999999999999</ele>
        <time>2025-05-18T16:03:11Z</time>
      </trkpt>
      <trkpt lat="43.699588039889932" lon="7.257098034024239">
        <ele>17.440000000000001</ele>
        <time>2025-05-18T16:03:15Z</time>
      </trkpt>
      <trkpt lat="43.69958502240479" lon="7.257203981280327">
        <ele>16.960000000000001</ele>
        <time>2025-05-18T16:03:16Z</time>
      </trkpt>
      <trkpt lat="43.699582004919648" lon="7.257478991523385">
        <ele>16</ele>
        <time>2025-05-18T16:03:19Z</time>
      </trkpt>
      <trkpt lat="43.699586028233171" lon="7.257543029263616">
        <ele>15.52</ele>
        <time>2025-05-18T16:03:20Z</time>
      </trkpt>
      <trkpt lat="43.699601031839848" lon="7.257821979001164">
        <ele>14.08</ele>
        <time>2025-05-18T16:03:23Z</time>
      </trkpt>
      <trkpt lat="43.699601031839848" lon="7.258439976722002">
        <ele>12.15</ele>
        <time>2025-05-18T16:03:29Z</time>
      </trkpt>
      <trkpt lat="43.699601031839848" lon="7.258558999747038">
        <ele>12.15</ele>
        <time>2025-05-18T16:03:30Z</time>
      </trkpt>
      <trkpt lat="43.699601031839848" lon="7.258682968094945">
        <ele>12.15</ele>
        <time>2025-05-18T16:03:31Z</time>
      </trkpt>
      <trkpt lat="43.699601031839848" lon="7.258810959756374">
        <ele>11.67</ele>
        <time>2025-05-18T16:03:32Z</time>
      </trkpt>
      <trkpt lat="43.699601031839848" lon="7.258931994438171">
        <ele>11.67</ele>
        <time>2025-05-18T16:03:33Z</time>
      </trkpt>
      <trkpt lat="43.699601031839848" lon="7.25903500802815">
        <ele>11.19</ele>
        <time>2025-05-18T16:03:34Z</time>
      </trkpt>
      <trkpt lat="43.699601031839848" lon="7.259258972480893">
        <ele>11.19</ele>
        <time>2025-05-18T16:03:35Z</time>
      </trkpt>
      <trkpt lat="43.699601031839848" lon="7.259258972480893">
        <ele>10.710000000000001</ele>
        <time>2025-05-18T16:03:36Z</time>
      </trkpt>
      <trkpt lat="43.699601031839848" lon="7.259258972480893">
        <ele>10.23</ele>
        <time>2025-05-18T16:03:37Z</time>
      </trkpt>
      <trkpt lat="43.699601031839848" lon="7.259258972480893">
        <ele>8.789999999999999</ele>
        <time>2025-05-18T16:03:52Z</time>
      </trkpt>
      <trkpt lat="43.699601031839848" lon="7.259258972480893">
        <ele>8.789999999999999</ele>
        <time>2025-05-18T16:03:56Z</time>
      </trkpt>
      <trkpt lat="43.699518973007798" lon="7.259245980530977">
        <ele>9.27</ele>
        <time>2025-05-18T16:03:58Z</time>
      </trkpt>
      <trkpt lat="43.699183026328683" lon="7.259192001074553">
        <ele>9.27</ele>
        <time>2025-05-18T16:04:03Z</time>
      </trkpt>
      <trkpt lat="43.699107002466917" lon="7.259179009124637">
        <ele>8.789999999999999</ele>
        <time>2025-05-18T16:04:04Z</time>
      </trkpt>
      <trkpt lat="43.699032990261912" lon="7.259167023003101">
        <ele>8.789999999999999</ele>
        <time>2025-05-18T16:04:05Z</time>
      </trkpt>
      <trkpt lat="43.698873985558748" lon="7.25914103910327">
        <ele>7.83</ele>
        <time>2025-05-18T16:04:07Z</time>
      </trkpt>
      <trkpt lat="43.698656978085637" lon="7.259111031889916">
        <ele>6.87</ele>
        <time>2025-05-18T16:04:10Z</time>
      </trkpt>
      <trkpt lat="43.698599981144071" lon="7.259102985262871">
        <ele>6.39</ele>
        <time>2025-05-18T16:04:11Z</time>
      </trkpt>
      <trkpt lat="43.698550025001168" lon="7.259096028283238">
        <ele>5.91</ele>
        <time>2025-05-18T16:04:12Z</time>
      </trkpt>
      <trkpt lat="43.698497973382473" lon="7.259088987484574">
        <ele>5.91</ele>
        <time>2025-05-18T16:04:13Z</time>
      </trkpt>
      <trkpt lat="43.698444999754429" lon="7.259082030504942">
        <ele>5.42</ele>
        <time>2025-05-18T16:04:14Z</time>
      </trkpt>
      <trkpt lat="43.698392026126385" lon="7.259074989706278">
        <ele>4.94</ele>
        <time>2025-05-18T16:04:15Z</time>
      </trkpt>
      <trkpt lat="43.698164038360119" lon="7.259044982492924">
        <ele>4.94</ele>
        <time>2025-05-18T16:04:18Z</time>
      </trkpt>
      <trkpt lat="43.698164038360119" lon="7.259044982492924">
        <ele>4.94</ele>
        <time>2025-05-18T16:04:19Z</time>
      </trkpt>
      <trkpt lat="43.697907971218228" lon="7.258973987773061">
        <ele>3.98</ele>
        <time>2025-05-18T16:04:27Z</time>
      </trkpt>
      <trkpt lat="43.697872012853622" lon="7.258964013308287">
        <ele>3.02</ele>
        <time>2025-05-18T16:04:39Z</time>
      </trkpt>
      <trkpt lat="43.697618963196874" lon="7.258887989446521">
        <ele>3.02</ele>
        <time>2025-05-18T16:04:58Z</time>
      </trkpt>
      <trkpt lat="43.697527013719082" lon="7.258857982233167">
        <ele>3.5</ele>
        <time>2025-05-18T16:05:00Z</time>
      </trkpt>
      <trkpt lat="43.697472028434277" lon="7.258840966969729">
        <ele>3.98</ele>
        <time>2025-05-18T16:05:01Z</time>
      </trkpt>
      <trkpt lat="43.697356022894382" lon="7.258805008605123">
        <ele>4.46</ele>
        <time>2025-05-18T16:05:03Z</time>
      </trkpt>
      <trkpt lat="43.697014963254333" lon="7.258708029985428">
        <ele>3.98</ele>
        <time>2025-05-18T16:05:12Z</time>
      </trkpt>
      <trkpt lat="43.696734001860023" lon="7.258626976981759">
        <ele>3.98</ele>
        <time>2025-05-18T16:05:18Z</time>
      </trkpt>
      <trkpt lat="43.696410041302443" lon="7.258551036939025">
        <ele>3.98</ele>
        <time>2025-05-18T16:05:24Z</time>
      </trkpt>
      <trkpt lat="43.696338040754199" lon="7.258551036939025">
        <ele>3.98</ele>
        <time>2025-05-18T16:05:25Z</time>
      </trkpt>
      <trkpt lat="43.695930009707808" lon="7.258551036939025">
        <ele>10.23</ele>
        <time>2025-05-18T16:05:32Z</time>
      </trkpt>
      <trkpt lat="43.695884998887777" lon="7.258551036939025">
        <ele>13.6</ele>
        <time>2025-05-18T16:05:43Z</time>
      </trkpt>
      <trkpt lat="43.695884998887777" lon="7.258551036939025">
        <ele>14.08</ele>
        <time>2025-05-18T16:06:20Z</time>
      </trkpt>
      <trkpt lat="43.695787014439702" lon="7.258551036939025">
        <ele>16.960000000000001</ele>
        <time>2025-05-18T16:06:24Z</time>
      </trkpt>
      <trkpt lat="43.695265995338559" lon="7.258551036939025">
        <ele>25.609999999999999</ele>
        <time>2025-05-18T16:06:34Z</time>
      </trkpt>
      <trkpt lat="43.695013029500842" lon="7.258551036939025">
        <ele>29.460000000000001</ele>
        <time>2025-05-18T16:06:46Z</time>
      </trkpt>
      <trkpt lat="43.694656966254115" lon="7.258551036939025">
        <ele>33.780000000000001</ele>
        <time>2025-05-18T16:06:54Z</time>
      </trkpt>
      <trkpt lat="43.694366030395031" lon="7.258551036939025">
        <ele>31.859999999999999</ele>
        <time>2025-05-18T16:07:01Z</time>
      </trkpt>
      <trkpt lat="43.694340968504548" lon="7.258551036939025">
        <ele>28.5</ele>
        <time>2025-05-18T16:07:04Z</time>
      </trkpt>
      <trkpt lat="43.69428195990622" lon="7.258551036939025">
        <ele>27.530000000000001</ele>
        <time>2025-05-18T16:07:05Z</time>
      </trkpt>
      <trkpt lat="43.694248013198376" lon="7.258624965324998">
        <ele>26.57</ele>
        <time>2025-05-18T16:07:06Z</time>
      </trkpt>
      <trkpt lat="43.694259999319911" lon="7.258707024157047">
        <ele>26.09</ele>
        <time>2025-05-18T16:07:07Z</time>
      </trkpt>
      <trkpt lat="43.694275002926588" lon="7.258804002776742">
        <ele>25.609999999999999</ele>
        <time>2025-05-18T16:07:08Z</time>
      </trkpt>
      <trkpt lat="43.694291012361646" lon="7.258913973346353">
        <ele>25.129999999999999</ele>
        <time>2025-05-18T16:07:09Z</time>
      </trkpt>
      <trkpt lat="43.694310039281845" lon="7.25903500802815">
        <ele>24.649999999999999</ele>
        <time>2025-05-18T16:07:10Z</time>
      </trkpt>
      <trkpt lat="43.694329988211393" lon="7.259160988032818">
        <ele>24.170000000000002</ele>
        <time>2025-05-18T16:07:11Z</time>
      </trkpt>
      <trkpt lat="43.694524029269814" lon="7.260556994006038">
        <ele>20.32</ele>
        <time>2025-05-18T16:07:21Z</time>
      </trkpt>
      <trkpt lat="43.694670964032412" lon="7.261759964749217">
        <ele>16.960000000000001</ele>
        <time>2025-05-18T16:07:30Z</time>
      </trkpt>
      <trkpt lat="43.694768026471138" lon="7.262937035411596">
        <ele>14.56</ele>
        <time>2025-05-18T16:07:40Z</time>
      </trkpt>
      <trkpt lat="43.694796022027731" lon="7.263312041759491">
        <ele>13.6</ele>
        <time>2025-05-18T16:07:44Z</time>
      </trkpt>
      <trkpt lat="43.694802979007363" lon="7.263387981802225">
        <ele>13.6</ele>
        <time>2025-05-18T16:07:45Z</time>
      </trkpt>
      <trkpt lat="43.694807002320886" lon="7.263428969308734">
        <ele>13.119999999999999</ele>
        <time>2025-05-18T16:07:46Z</time>
      </trkpt>
      <trkpt lat="43.694809013977647" lon="7.263455037027597">
        <ele>13.119999999999999</ele>
        <time>2025-05-18T16:07:47Z</time>
      </trkpt>
      <trkpt lat="43.694812031462789" lon="7.263489989563823">
        <ele>13.119999999999999</ele>
        <time>2025-05-18T16:07:48Z</time>
      </trkpt>
      <trkpt lat="43.694814965128899" lon="7.263515973463655">
        <ele>12.630000000000001</ele>
        <time>2025-05-18T16:07:49Z</time>
      </trkpt>
      <trkpt lat="43.694814965128899" lon="7.263515973463655">
        <ele>12.630000000000001</ele>
        <time>2025-05-18T16:08:02Z</time>
      </trkpt>
      <trkpt lat="43.694815970957279" lon="7.263787966221571">
        <ele>11.67</ele>
        <time>2025-05-18T16:08:23Z</time>
      </trkpt>
      <trkpt lat="43.694867016747594" lon="7.26488197222352">
        <ele>11.67</ele>
        <time>2025-05-18T16:08:33Z</time>
      </trkpt>
      <trkpt lat="43.694871962070465" lon="7.264968976378441">
        <ele>11.67</ele>
        <time>2025-05-18T16:08:34Z</time>
      </trkpt>
      <trkpt lat="43.694875985383987" lon="7.265055980533361">
        <ele>11.19</ele>
        <time>2025-05-18T16:08:35Z</time>
      </trkpt>
      <trkpt lat="43.694901969283819" lon="7.266056025400758">
        <ele>12.630000000000001</ele>
        <time>2025-05-18T16:08:44Z</time>
      </trkpt>
      <trkpt lat="43.694963995367289" lon="7.267466029152274">
        <ele>11.19</ele>
        <time>2025-05-18T16:08:54Z</time>
      </trkpt>
      <trkpt lat="43.694987967610359" lon="7.26885499432683">
        <ele>11.19</ele>
        <time>2025-05-18T16:09:06Z</time>
      </trkpt>
      <trkpt lat="43.695039013400674" lon="7.269191024824977">
        <ele>10.23</ele>
        <time>2025-05-18T16:09:16Z</time>
      </trkpt>
      <trkpt lat="43.695039013400674" lon="7.269191024824977">
        <ele>10.23</ele>
        <time>2025-05-18T16:09:46Z</time>
      </trkpt>
      <trkpt lat="43.695087963715196" lon="7.269302001222968">
        <ele>11.19</ele>
        <time>2025-05-18T16:09:51Z</time>
      </trkpt>
      <trkpt lat="43.695116965100169" lon="7.269389005377889">
        <ele>10.710000000000001</ele>
        <time>2025-05-18T16:09:52Z</time>
      </trkpt>
      <trkpt lat="43.695116965100169" lon="7.269464023411274">
        <ele>10.710000000000001</ele>
        <time>2025-05-18T16:09:53Z</time>
      </trkpt>
      <trkpt lat="43.695116965100169" lon="7.269538035616279">
        <ele>10.710000000000001</ele>
        <time>2025-05-18T16:09:54Z</time>
      </trkpt>
      <trkpt lat="43.695116965100169" lon="7.269687987864018">
        <ele>10.23</ele>
        <time>2025-05-18T16:09:55Z</time>
      </trkpt>
      <trkpt lat="43.69513800367713" lon="7.270032986998558">
        <ele>9.27</ele>
        <time>2025-05-18T16:10:00Z</time>
      </trkpt>
      <trkpt lat="43.695144960656762" lon="7.270124014467001">
        <ele>9.27</ele>
        <time>2025-05-18T16:10:01Z</time>
      </trkpt>
      <trkpt lat="43.695150995627046" lon="7.270203977823257">
        <ele>8.789999999999999</ele>
        <time>2025-05-18T16:10:02Z</time>
      </trkpt>
      <trkpt lat="43.69513800367713" lon="7.270761039108038">
        <ele>6.87</ele>
        <time>2025-05-18T16:10:13Z</time>
      </trkpt>
      <trkpt lat="43.69513800367713" lon="7.270761039108038">
        <ele>6.87</ele>
        <time>2025-05-18T16:10:37Z</time>
      </trkpt>
      <trkpt lat="43.69513800367713" lon="7.270761039108038">
        <ele>6.39</ele>
        <time>2025-05-18T16:11:10Z</time>
      </trkpt>
      <trkpt lat="43.69513800367713" lon="7.270761039108038">
        <ele>6.39</ele>
        <time>2025-05-18T16:11:53Z</time>
      </trkpt>
      <trkpt lat="43.69513800367713" lon="7.270761039108038">
        <ele>6.39</ele>
        <time>2025-05-18T16:12:41Z</time>
      </trkpt>
      <trkpt lat="43.69513800367713" lon="7.270761039108038">
        <ele>6.39</ele>
        <time>2025-05-18T16:13:19Z</time>
      </trkpt>
      <trkpt lat="43.69513800367713" lon="7.270761039108038">
        <ele>6.87</ele>
        <time>2025-05-18T16:13:58Z</time>
      </trkpt>
      <trkpt lat="43.69513800367713" lon="7.270761039108038">
        <ele>6.87</ele>
        <time>2025-05-18T16:14:16Z</time>
      </trkpt>
      <trkpt lat="43.69513800367713" lon="7.270761039108038">
        <ele>6.87</ele>
        <time>2025-05-18T16:14:19Z</time>
      </trkpt>
      <trkpt lat="43.69513800367713" lon="7.270761039108038">
        <ele>7.35</ele>
        <time>2025-05-18T16:14:20Z</time>
      </trkpt>
      <trkpt lat="43.69513800367713" lon="7.270761039108038">
        <ele>7.83</ele>
        <time>2025-05-18T16:14:24Z</time>
      </trkpt>
      <trkpt lat="43.69513800367713" lon="7.270756009966135">
        <ele>8.310000000000001</ele>
        <time>2025-05-18T16:14:25Z</time>
      </trkpt>
      <trkpt lat="43.695142026990652" lon="7.270673029124737">
        <ele>8.789999999999999</ele>
        <time>2025-05-18T16:14:26Z</time>
      </trkpt>
      <trkpt lat="43.695152001455426" lon="7.270205989480019">
        <ele>9.27</ele>
        <time>2025-05-18T16:14:32Z</time>
      </trkpt>
      <trkpt lat="43.695116965100169" lon="7.269687987864018">
        <ele>9.27</ele>
        <time>2025-05-18T16:14:38Z</time>
      </trkpt>
      <trkpt lat="43.695116965100169" lon="7.269554967060685">
        <ele>9.27</ele>
        <time>2025-05-18T16:14:39Z</time>
      </trkpt>
      <trkpt lat="43.695116965100169" lon="7.269466035068035">
        <ele>9.27</ele>
        <time>2025-05-18T16:14:40Z</time>
      </trkpt>
      <trkpt lat="43.695130040869117" lon="7.269260007888079">
        <ele>9.27</ele>
        <time>2025-05-18T16:14:43Z</time>
      </trkpt>
      <trkpt lat="43.695136997848749" lon="7.269202005118132">
        <ele>9.27</ele>
        <time>2025-05-18T16:14:44Z</time>
      </trkpt>
      <trkpt lat="43.695219978690147" lon="7.269068984314799">
        <ele>9.27</ele>
        <time>2025-05-18T16:14:45Z</time>
      </trkpt>
      <trkpt lat="43.695460958406329" lon="7.269078958779573">
        <ele>9.27</ele>
        <time>2025-05-18T16:14:49Z</time>
      </trkpt>
      <trkpt lat="43.696093037724495" lon="7.269130004569888">
        <ele>9.75</ele>
        <time>2025-05-18T16:14:57Z</time>
      </trkpt>
      <trkpt lat="43.69614701718092" lon="7.269150959327817">
        <ele>9.75</ele>
        <time>2025-05-18T16:14:58Z</time>
      </trkpt>
      <trkpt lat="43.696208037436008" lon="7.269274005666375">
        <ele>9.27</ele>
        <time>2025-05-18T16:14:59Z</time>
      </trkpt>
      <trkpt lat="43.696250030770898" lon="7.269357992336154">
        <ele>9.27</ele>
        <time>2025-05-18T16:15:00Z</time>
      </trkpt>
      <trkpt lat="43.696289006620646" lon="7.2694350220263">
        <ele>9.75</ele>
        <time>2025-05-18T16:15:01Z</time>
      </trkpt>
      <trkpt lat="43.696349021047354" lon="7.269561002030969">
        <ele>10.710000000000001</ele>
        <time>2025-05-18T16:15:03Z</time>
      </trkpt>
      <trkpt lat="43.696393026039004" lon="7.269668960943818">
        <ele>11.19</ele>
        <time>2025-05-18T16:15:11Z</time>
      </trkpt>
      <trkpt lat="43.696464020758867" lon="7.269841963425279">
        <ele>13.6</ele>
        <time>2025-05-18T16:15:41Z</time>
      </trkpt>
      <trkpt lat="43.696539960801601" lon="7.270028041675687">
        <ele>16</ele>
        <time>2025-05-18T16:15:44Z</time>
      </trkpt>
      <trkpt lat="43.696568962186575" lon="7.270100964233279">
        <ele>16.960000000000001</ele>
        <time>2025-05-18T16:15:45Z</time>
      </trkpt>
      <trkpt lat="43.696597963571548" lon="7.270178999751806">
        <ele>17.440000000000001</ele>
        <time>2025-05-18T16:15:46Z</time>
      </trkpt>
      <trkpt lat="43.69672603905201" lon="7.270525004714727">
        <ele>17.440000000000001</ele>
        <time>2025-05-18T16:15:50Z</time>
      </trkpt>
      <trkpt lat="43.696732996031642" lon="7.270545959472656">
        <ele>17.440000000000001</ele>
        <time>2025-05-18T16:15:51Z</time>
      </trkpt>
      <trkpt lat="43.696955032646656" lon="7.271237969398499">
        <ele>16.48</ele>
        <time>2025-05-18T16:15:59Z</time>
      </trkpt>
      <trkpt lat="43.696985961869359" lon="7.271335031837225">
        <ele>16.48</ele>
        <time>2025-05-18T16:16:00Z</time>
      </trkpt>
      <trkpt lat="43.697013035416603" lon="7.271420024335384">
        <ele>16</ele>
        <time>2025-05-18T16:16:01Z</time>
      </trkpt>
      <trkpt lat="43.697154019027948" lon="7.271856972947717">
        <ele>15.52</ele>
        <time>2025-05-18T16:16:06Z</time>
      </trkpt>
      <trkpt lat="43.697183020412922" lon="7.27194800041616">
        <ele>15.039999999999999</ele>
        <time>2025-05-18T16:16:07Z</time>
      </trkpt>
      <trkpt lat="43.697213027626276" lon="7.272041961550713">
        <ele>15.039999999999999</ele>
        <time>2025-05-18T16:16:08Z</time>
      </trkpt>
      <trkpt lat="43.697471022605896" lon="7.272884007543325">
        <ele>15.039999999999999</ele>
        <time>2025-05-18T16:16:18Z</time>
      </trkpt>
      <trkpt lat="43.697486026212573" lon="7.272943016141653">
        <ele>15.039999999999999</ele>
        <time>2025-05-18T16:16:19Z</time>
      </trkpt>
      <trkpt lat="43.697642013430595" lon="7.273570988327265">
        <ele>16</ele>
        <time>2025-05-18T16:16:25Z</time>
      </trkpt>
      <trkpt lat="43.697674032300711" lon="7.273686993867159">
        <ele>16</ele>
        <time>2025-05-18T16:16:26Z</time>
      </trkpt>
      <trkpt lat="43.697702027857304" lon="7.273787995800376">
        <ele>16</ele>
        <time>2025-05-18T16:16:27Z</time>
      </trkpt>
      <trkpt lat="43.697747038677335" lon="7.273951023817062">
        <ele>15.52</ele>
        <time>2025-05-18T16:16:29Z</time>
      </trkpt>
      <trkpt lat="43.697819961234927" lon="7.274214969947934">
        <ele>15.52</ele>
        <time>2025-05-18T16:16:36Z</time>
      </trkpt>
      <trkpt lat="43.697819961234927" lon="7.274214969947934">
        <ele>16</ele>
        <time>2025-05-18T16:17:11Z</time>
      </trkpt>
      <trkpt lat="43.698030011728406" lon="7.274975040927529">
        <ele>16</ele>
        <time>2025-05-18T16:17:18Z</time>
      </trkpt>
      <trkpt lat="43.698498979210854" lon="7.276337016373873">
        <ele>18.879999999999999</ele>
        <time>2025-05-18T16:17:28Z</time>
      </trkpt>
      <trkpt lat="43.698672987520695" lon="7.276672041043639">
        <ele>20.809999999999999</ele>
        <time>2025-05-18T16:17:32Z</time>
      </trkpt>
      <trkpt lat="43.698679022490978" lon="7.276683021336794">
        <ele>21.289999999999999</ele>
        <time>2025-05-18T16:17:38Z</time>
      </trkpt>
      <trkpt lat="43.698699977248907" lon="7.276832973584533">
        <ele>21.289999999999999</ele>
        <time>2025-05-18T16:18:10Z</time>
      </trkpt>
      <trkpt lat="43.698699977248907" lon="7.276832973584533">
        <ele>22.73</ele>
        <time>2025-05-18T16:18:11Z</time>
      </trkpt>
      <trkpt lat="43.698719004169106" lon="7.276871027424932">
        <ele>24.170000000000002</ele>
        <time>2025-05-18T16:18:12Z</time>
      </trkpt>
      <trkpt lat="43.699171962216496" lon="7.277520038187504">
        <ele>21.289999999999999</ele>
        <time>2025-05-18T16:18:21Z</time>
      </trkpt>
      <trkpt lat="43.699921974912286" lon="7.278133006766439">
        <ele>18.879999999999999</ele>
        <time>2025-05-18T16:18:32Z</time>
      </trkpt>
      <trkpt lat="43.700114004313946" lon="7.278192015364766">
        <ele>18.399999999999999</ele>
        <time>2025-05-18T16:18:36Z</time>
      </trkpt>
      <trkpt lat="43.700781036168337" lon="7.278656959533691">
        <ele>21.77</ele>
        <time>2025-05-18T16:18:45Z</time>
      </trkpt>
      <trkpt lat="43.700871979817748" lon="7.278718985617161">
        <ele>21.77</ele>
        <time>2025-05-18T16:18:46Z</time>
      </trkpt>
      <trkpt lat="43.700953032821417" lon="7.278779000043869">
        <ele>21.77</ele>
        <time>2025-05-18T16:18:47Z</time>
      </trkpt>
      <trkpt lat="43.701032996177673" lon="7.278838008642197">
        <ele>21.77</ele>
        <time>2025-05-18T16:18:48Z</time>
      </trkpt>
      <trkpt lat="43.70111002586782" lon="7.278895005583763">
        <ele>21.77</ele>
        <time>2025-05-18T16:18:49Z</time>
      </trkpt>
      <trkpt lat="43.701187977567315" lon="7.27895200252533">
        <ele>21.77</ele>
        <time>2025-05-18T16:18:50Z</time>
      </trkpt>
      <trkpt lat="43.701268024742603" lon="7.279011011123657">
        <ele>21.289999999999999</ele>
        <time>2025-05-18T16:18:51Z</time>
      </trkpt>
      <trkpt lat="43.70134899392724" lon="7.279071025550365">
        <ele>20.809999999999999</ele>
        <time>2025-05-18T16:18:52Z</time>
      </trkpt>
      <trkpt lat="43.701431974768639" lon="7.279131961986423">
        <ele>20.809999999999999</ele>
        <time>2025-05-18T16:18:53Z</time>
      </trkpt>
      <trkpt lat="43.701515961438417" lon="7.279194993898273">
        <ele>20.809999999999999</ele>
        <time>2025-05-18T16:18:54Z</time>
      </trkpt>
      <trkpt lat="43.701595002785325" lon="7.27925299666822">
        <ele>20.32</ele>
        <time>2025-05-18T16:18:55Z</time>
      </trkpt>
      <trkpt lat="43.702086014673114" lon="7.279624985530973">
        <ele>17.440000000000001</ele>
        <time>2025-05-18T16:19:03Z</time>
      </trkpt>
      <trkpt lat="43.702108981087804" lon="7.279644012451172">
        <ele>17.440000000000001</ele>
        <time>2025-05-18T16:19:04Z</time>
      </trkpt>
      <trkpt lat="43.702127002179623" lon="7.279659016057849">
        <ele>17.440000000000001</ele>
        <time>2025-05-18T16:19:05Z</time>
      </trkpt>
      <trkpt lat="43.702127002179623" lon="7.279659016057849">
        <ele>16.960000000000001</ele>
        <time>2025-05-18T16:19:16Z</time>
      </trkpt>
      <trkpt lat="43.702127002179623" lon="7.279659016057849">
        <ele>15.52</ele>
        <time>2025-05-18T16:19:43Z</time>
      </trkpt>
      <trkpt lat="43.702306039631367" lon="7.27979295887053">
        <ele>13.6</ele>
        <time>2025-05-18T16:20:12Z</time>
      </trkpt>
      <trkpt lat="43.702510977163911" lon="7.279925979673863">
        <ele>12.15</ele>
        <time>2025-05-18T16:20:21Z</time>
      </trkpt>
      <trkpt lat="43.702672999352217" lon="7.280153967440128">
        <ele>10.710000000000001</ele>
        <time>2025-05-18T16:20:27Z</time>
      </trkpt>
      <trkpt lat="43.702661013230681" lon="7.280203001573682">
        <ele>10.710000000000001</ele>
        <time>2025-05-18T16:20:28Z</time>
      </trkpt>
      <trkpt lat="43.702645003795624" lon="7.280272990465164">
        <ele>10.23</ele>
        <time>2025-05-18T16:20:29Z</time>
      </trkpt>
      <trkpt lat="43.702624971047044" lon="7.280358988791704">
        <ele>10.23</ele>
        <time>2025-05-18T16:20:30Z</time>
      </trkpt>
      <trkpt lat="43.70259596966207" lon="7.280448004603386">
        <ele>9.75</ele>
        <time>2025-05-18T16:20:31Z</time>
      </trkpt>
      <trkpt lat="43.702176036313176" lon="7.281834958121181">
        <ele>6.87</ele>
        <time>2025-05-18T16:20:43Z</time>
      </trkpt>
      <trkpt lat="43.701845034956932" lon="7.282938016578555">
        <ele>6.39</ele>
        <time>2025-05-18T16:20:52Z</time>
      </trkpt>
      <trkpt lat="43.701726011931896" lon="7.28331302292645">
        <ele>5.91</ele>
        <time>2025-05-18T16:20:59Z</time>
      </trkpt>
      <trkpt lat="43.701705979183316" lon="7.283385023474693">
        <ele>6.87</ele>
        <time>2025-05-18T16:21:29Z</time>
      </trkpt>
      <trkpt lat="43.70151998475194" lon="7.284007966518402">
        <ele>6.39</ele>
        <time>2025-05-18T16:21:37Z</time>
      </trkpt>
      <trkpt lat="43.701431974768639" lon="7.284293035045266">
        <ele>6.39</ele>
        <time>2025-05-18T16:21:42Z</time>
      </trkpt>
      <trkpt lat="43.701374977827072" lon="7.284491015598178">
        <ele>6.39</ele>
        <time>2025-05-18T16:21:44Z</time>
      </trkpt>
      <trkpt lat="43.701314963400364" lon="7.28471003472805">
        <ele>6.39</ele>
        <time>2025-05-18T16:21:46Z</time>
      </trkpt>
      <trkpt lat="43.701285040006042" lon="7.284820005297661">
        <ele>6.39</ele>
        <time>2025-05-18T16:21:47Z</time>
      </trkpt>
      <trkpt lat="43.701038025319576" lon="7.28569901548326">
        <ele>7.83</ele>
        <time>2025-05-18T16:21:55Z</time>
      </trkpt>
      <trkpt lat="43.701012041419744" lon="7.285789959132671">
        <ele>9.27</ele>
        <time>2025-05-18T16:21:56Z</time>
      </trkpt>
      <trkpt lat="43.700669975951314" lon="7.287040958181024">
        <ele>17.440000000000001</ele>
        <time>2025-05-18T16:22:06Z</time>
      </trkpt>
      <trkpt lat="43.700567968189716" lon="7.287257965654135">
        <ele>16.960000000000001</ele>
        <time>2025-05-18T16:22:08Z</time>
      </trkpt>
      <trkpt lat="43.700516000390053" lon="7.287363996729255">
        <ele>16.960000000000001</ele>
        <time>2025-05-18T16:22:09Z</time>
      </trkpt>
      <trkpt lat="43.700277032330632" lon="7.287870012223721">
        <ele>16</ele>
        <time>2025-05-18T16:22:14Z</time>
      </trkpt>
      <trkpt lat="43.700235961005092" lon="7.287978976964951">
        <ele>16</ele>
        <time>2025-05-18T16:22:15Z</time>
      </trkpt>
      <trkpt lat="43.700222969055176" lon="7.288092970848084">
        <ele>16.48</ele>
        <time>2025-05-18T16:22:16Z</time>
      </trkpt>
      <trkpt lat="43.700222969055176" lon="7.288217023015022">
        <ele>16.960000000000001</ele>
        <time>2025-05-18T16:22:17Z</time>
      </trkpt>
      <trkpt lat="43.700222969055176" lon="7.288345014676452">
        <ele>17.440000000000001</ele>
        <time>2025-05-18T16:22:18Z</time>
      </trkpt>
      <trkpt lat="43.700222969055176" lon="7.288474012166262">
        <ele>17.920000000000002</ele>
        <time>2025-05-18T16:22:19Z</time>
      </trkpt>
      <trkpt lat="43.700299998745322" lon="7.288877014070749">
        <ele>20.809999999999999</ele>
        <time>2025-05-18T16:22:22Z</time>
      </trkpt>
      <trkpt lat="43.700351966544986" lon="7.289002994075418">
        <ele>21.77</ele>
        <time>2025-05-18T16:22:23Z</time>
      </trkpt>
      <trkpt lat="43.700408963486552" lon="7.289126040413976">
        <ele>22.73</ele>
        <time>2025-05-18T16:22:24Z</time>
      </trkpt>
      <trkpt lat="43.700870973989367" lon="7.289729034528136">
        <ele>25.609999999999999</ele>
        <time>2025-05-18T16:22:30Z</time>
      </trkpt>
      <trkpt lat="43.70093903504312" lon="7.289879992604256">
        <ele>26.09</ele>
        <time>2025-05-18T16:22:31Z</time>
      </trkpt>
      <trkpt lat="43.700994020327926" lon="7.290024999529123">
        <ele>27.050000000000001</ele>
        <time>2025-05-18T16:22:32Z</time>
      </trkpt>
      <trkpt lat="43.701031990349293" lon="7.290195990353823">
        <ele>28.02</ele>
        <time>2025-05-18T16:22:33Z</time>
      </trkpt>
      <trkpt lat="43.70106702670455" lon="7.290362035855651">
        <ele>28.98</ele>
        <time>2025-05-18T16:22:34Z</time>
      </trkpt>
      <trkpt lat="43.701192000880837" lon="7.291030995547772">
        <ele>34.259999999999998</ele>
        <time>2025-05-18T16:22:38Z</time>
      </trkpt>
      <trkpt lat="43.701200969517231" lon="7.291381023824215">
        <ele>36.670000000000002</ele>
        <time>2025-05-18T16:22:40Z</time>
      </trkpt>
      <trkpt lat="43.701231982558966" lon="7.291917968541384">
        <ele>39.549999999999997</ele>
        <time>2025-05-18T16:22:43Z</time>
      </trkpt>
      <trkpt lat="43.701252015307546" lon="7.292096000164747">
        <ele>40.990000000000002</ele>
        <time>2025-05-18T16:22:44Z</time>
      </trkpt>
      <trkpt lat="43.701316975057125" lon="7.292238995432854">
        <ele>41.950000000000003</ele>
        <time>2025-05-18T16:22:45Z</time>
      </trkpt>
      <trkpt lat="43.701392998918891" lon="7.292390037328005">
        <ele>42.920000000000002</ele>
        <time>2025-05-18T16:22:46Z</time>
      </trkpt>
      <trkpt lat="43.701472040265799" lon="7.292517023161054">
        <ele>44.359999999999999</ele>
        <time>2025-05-18T16:22:47Z</time>
      </trkpt>
      <trkpt lat="43.70156298391521" lon="7.292637974023819">
        <ele>45.32</ele>
        <time>2025-05-18T16:22:48Z</time>
      </trkpt>
      <trkpt lat="43.701655017212033" lon="7.292755991220474">
        <ele>46.280000000000001</ele>
        <time>2025-05-18T16:22:49Z</time>
      </trkpt>
      <trkpt lat="43.70237804017961" lon="7.293758969753981">
        <ele>52.530000000000001</ele>
        <time>2025-05-18T16:22:57Z</time>
      </trkpt>
      <trkpt lat="43.702425984665751" lon="7.293919986113906">
        <ele>53.490000000000002</ele>
        <time>2025-05-18T16:22:58Z</time>
      </trkpt>
      <trkpt lat="43.702434031292796" lon="7.294077984988689">
        <ele>53.969999999999999</ele>
        <time>2025-05-18T16:22:59Z</time>
      </trkpt>
      <trkpt lat="43.702434031292796" lon="7.294234978035092">
        <ele>55.409999999999997</ele>
        <time>2025-05-18T16:23:00Z</time>
      </trkpt>
      <trkpt lat="43.70237804017961" lon="7.294346960261464">
        <ele>56.369999999999997</ele>
        <time>2025-05-18T16:23:01Z</time>
      </trkpt>
      <trkpt lat="43.702317019924521" lon="7.294467994943261">
        <ele>56.859999999999999</ele>
        <time>2025-05-18T16:23:02Z</time>
      </trkpt>
      <trkpt lat="43.70227200910449" lon="7.294531026855111">
        <ele>57.82</ele>
        <time>2025-05-18T16:23:03Z</time>
      </trkpt>
      <trkpt lat="43.702237978577614" lon="7.294570002704859">
        <ele>58.780000000000001</ele>
        <time>2025-05-18T16:23:04Z</time>
      </trkpt>
      <trkpt lat="43.702237978577614" lon="7.294570002704859">
        <ele>60.219999999999999</ele>
        <time>2025-05-18T16:23:12Z</time>
      </trkpt>
      <trkpt lat="43.702154997736216" lon="7.294644014909864">
        <ele>60.700000000000003</ele>
        <time>2025-05-18T16:23:24Z</time>
      </trkpt>
      <trkpt lat="43.702105041593313" lon="7.294648038223386">
        <ele>60.700000000000003</ele>
        <time>2025-05-18T16:23:25Z</time>
      </trkpt>
      <trkpt lat="43.702055001631379" lon="7.294651977717876">
        <ele>61.18</ele>
        <time>2025-05-18T16:23:26Z</time>
      </trkpt>
      <trkpt lat="43.702005967497826" lon="7.294654995203018">
        <ele>61.659999999999997</ele>
        <time>2025-05-18T16:23:27Z</time>
      </trkpt>
      <trkpt lat="43.701952993869781" lon="7.294659018516541">
        <ele>61.659999999999997</ele>
        <time>2025-05-18T16:23:28Z</time>
      </trkpt>
      <trkpt lat="43.701902031898499" lon="7.294662036001682">
        <ele>62.140000000000001</ele>
        <time>2025-05-18T16:23:29Z</time>
      </trkpt>
      <trkpt lat="43.701408002525568" lon="7.294493978843093">
        <ele>65.030000000000001</ele>
        <time>2025-05-18T16:23:36Z</time>
      </trkpt>
      <trkpt lat="43.701224019750953" lon="7.294424995779991">
        <ele>66.469999999999999</ele>
        <time>2025-05-18T16:23:39Z</time>
      </trkpt>
      <trkpt lat="43.701162999495864" lon="7.294401023536921">
        <ele>66.469999999999999</ele>
        <time>2025-05-18T16:23:40Z</time>
      </trkpt>
      <trkpt lat="43.700426984578371" lon="7.294134981930256">
        <ele>68.870000000000005</ele>
        <time>2025-05-18T16:23:48Z</time>
      </trkpt>
      <trkpt lat="43.699278999119997" lon="7.293805992230773">
        <ele>71.760000000000005</ele>
        <time>2025-05-18T16:23:58Z</time>
      </trkpt>
      <trkpt lat="43.698323965072632" lon="7.293832981958985">
        <ele>78.480000000000004</ele>
        <time>2025-05-18T16:24:06Z</time>
      </trkpt>
      <trkpt lat="43.698206031695008" lon="7.293840022757649">
        <ele>79.450000000000003</ele>
        <time>2025-05-18T16:24:07Z</time>
      </trkpt>
      <trkpt lat="43.698088014498353" lon="7.293846979737282">
        <ele>80.409999999999997</ele>
        <time>2025-05-18T16:24:08Z</time>
      </trkpt>
      <trkpt lat="43.69773899205029" lon="7.293848991394043">
        <ele>83.769999999999996</ele>
        <time>2025-05-18T16:24:12Z</time>
      </trkpt>
      <trkpt lat="43.697690963745117" lon="7.293848991394043">
        <ele>84.25</ele>
        <time>2025-05-18T16:24:13Z</time>
      </trkpt>
      <trkpt lat="43.697518967092037" lon="7.293929038569331">
        <ele>85.209999999999994</ele>
        <time>2025-05-18T16:24:15Z</time>
      </trkpt>
      <trkpt lat="43.6974379979074" lon="7.293966002762318">
        <ele>85.689999999999998</ele>
        <time>2025-05-18T16:24:16Z</time>
      </trkpt>
      <trkpt lat="43.697377983480692" lon="7.294030040502548">
        <ele>85.689999999999998</ele>
        <time>2025-05-18T16:24:17Z</time>
      </trkpt>
      <trkpt lat="43.697313023731112" lon="7.294126013293862">
        <ele>86.180000000000007</ele>
        <time>2025-05-18T16:24:18Z</time>
      </trkpt>
      <trkpt lat="43.697249991819263" lon="7.294220980256796">
        <ele>86.659999999999997</ele>
        <time>2025-05-18T16:24:19Z</time>
      </trkpt>
      <trkpt lat="43.697241023182869" lon="7.294324999675155">
        <ele>87.140000000000001</ele>
        <time>2025-05-18T16:24:20Z</time>
      </trkpt>
      <trkpt lat="43.697241023182869" lon="7.294447040185332">
        <ele>87.620000000000005</ele>
        <time>2025-05-18T16:24:21Z</time>
      </trkpt>
      <trkpt lat="43.697241023182869" lon="7.294570002704859">
        <ele>88.579999999999998</ele>
        <time>2025-05-18T16:24:22Z</time>
      </trkpt>
      <trkpt lat="43.697254015132785" lon="7.294666981324554">
        <ele>89.060000000000002</ele>
        <time>2025-05-18T16:24:23Z</time>
      </trkpt>
      <trkpt lat="43.697275975719094" lon="7.294777035713196">
        <ele>89.540000000000006</ele>
        <time>2025-05-18T16:24:24Z</time>
      </trkpt>
      <trkpt lat="43.69730799458921" lon="7.294843001291156">
        <ele>90.5</ele>
        <time>2025-05-18T16:24:25Z</time>
      </trkpt>
      <trkpt lat="43.69737102650106" lon="7.294913996011019">
        <ele>91.459999999999994</ele>
        <time>2025-05-18T16:24:26Z</time>
      </trkpt>
      <trkpt lat="43.697426011785865" lon="7.294977027922869">
        <ele>92.900000000000006</ele>
        <time>2025-05-18T16:24:27Z</time>
      </trkpt>
      <trkpt lat="43.697474040091038" lon="7.295009968802333">
        <ele>93.390000000000001</ele>
        <time>2025-05-18T16:24:28Z</time>
      </trkpt>
      <trkpt lat="43.69752399623394" lon="7.295038970187306">
        <ele>93.870000000000005</ele>
        <time>2025-05-18T16:24:29Z</time>
      </trkpt>
      <trkpt lat="43.697570012882352" lon="7.29506503790617">
        <ele>94.349999999999994</ele>
        <time>2025-05-18T16:24:30Z</time>
      </trkpt>
      <trkpt lat="43.6976089887321" lon="7.29508800432086">
        <ele>94.829999999999998</ele>
        <time>2025-05-18T16:24:31Z</time>
      </trkpt>
      <trkpt lat="43.697642013430595" lon="7.29510803706944">
        <ele>95.310000000000002</ele>
        <time>2025-05-18T16:24:32Z</time>
      </trkpt>
      <trkpt lat="43.697766987606883" lon="7.295168973505497">
        <ele>97.709999999999994</ele>
        <time>2025-05-18T16:24:42Z</time>
      </trkpt>
      <trkpt lat="43.697977960109711" lon="7.295258995145559">
        <ele>101.08</ele>
        <time>2025-05-18T16:24:59Z</time>
      </trkpt>
      <trkpt lat="43.698822017759085" lon="7.295589996501803">
        <ele>103.95999999999999</ele>
        <time>2025-05-18T16:25:09Z</time>
      </trkpt>
      <trkpt lat="43.700073016807437" lon="7.296101963147521">
        <ele>111.17</ele>
        <time>2025-05-18T16:25:21Z</time>
      </trkpt>
      <trkpt lat="43.70027300901711" lon="7.296190978959203">
        <ele>112.61</ele>
        <time>2025-05-18T16:25:23Z</time>
      </trkpt>
      <trkpt lat="43.700379962101579" lon="7.29624898172915">
        <ele>113.56999999999999</ele>
        <time>2025-05-18T16:25:24Z</time>
      </trkpt>
      <trkpt lat="43.700484987348318" lon="7.296315031126142">
        <ele>114.53</ele>
        <time>2025-05-18T16:25:25Z</time>
      </trkpt>
      <trkpt lat="43.701644958928227" lon="7.297210972756147">
        <ele>124.63</ele>
        <time>2025-05-18T16:25:36Z</time>
      </trkpt>
      <trkpt lat="43.702189028263092" lon="7.297653034329414">
        <ele>130.40000000000001</ele>
        <time>2025-05-18T16:25:41Z</time>
      </trkpt>
      <trkpt lat="43.702301010489464" lon="7.29775101877749">
        <ele>132.31999999999999</ele>
        <time>2025-05-18T16:25:42Z</time>
      </trkpt>
      <trkpt lat="43.702409975230694" lon="7.297845985740423">
        <ele>133.75999999999999</ele>
        <time>2025-05-18T16:25:43Z</time>
      </trkpt>
      <trkpt lat="43.703382024541497" lon="7.298687025904656">
        <ele>145.78</ele>
        <time>2025-05-18T16:25:52Z</time>
      </trkpt>
      <trkpt lat="43.703720988705754" lon="7.298977039754391">
        <ele>148.66</ele>
        <time>2025-05-18T16:25:55Z</time>
      </trkpt>
      <trkpt lat="43.704588012769818" lon="7.299777008593082">
        <ele>153.94999999999999</ele>
        <time>2025-05-18T16:26:05Z</time>
      </trkpt>
      <trkpt lat="43.705114983022213" lon="7.300240024924278">
        <ele>156.34999999999999</ele>
        <time>2025-05-18T16:26:12Z</time>
      </trkpt>
      <trkpt lat="43.705763993784785" lon="7.300831032916904">
        <ele>158.75</ele>
        <time>2025-05-18T16:26:22Z</time>
      </trkpt>
      <trkpt lat="43.706039004027843" lon="7.301079975441098">
        <ele>158.75</ele>
        <time>2025-05-18T16:26:26Z</time>
      </trkpt>
      <trkpt lat="43.706108992919326" lon="7.301135966554284">
        <ele>158.27000000000001</ele>
        <time>2025-05-18T16:26:27Z</time>
      </trkpt>
      <trkpt lat="43.706163978204131" lon="7.301205033436418">
        <ele>157.31</ele>
        <time>2025-05-18T16:26:34Z</time>
      </trkpt>
      <trkpt lat="43.706252994015813" lon="7.301316009834409">
        <ele>156.83000000000001</ele>
        <time>2025-05-18T16:27:05Z</time>
      </trkpt>
      <trkpt lat="43.70671802200377" lon="7.301894025877118">
        <ele>155.87</ele>
        <time>2025-05-18T16:27:12Z</time>
      </trkpt>
      <trkpt lat="43.706879038363695" lon="7.302085971459746">
        <ele>155.87</ele>
        <time>2025-05-18T16:27:14Z</time>
      </trkpt>
      <trkpt lat="43.706965036690235" lon="7.302187979221344">
        <ele>156.34999999999999</ele>
        <time>2025-05-18T16:27:15Z</time>
      </trkpt>
      <trkpt lat="43.707497036084533" lon="7.302837995812297">
        <ele>159.24000000000001</ele>
        <time>2025-05-18T16:27:22Z</time>
      </trkpt>
      <trkpt lat="43.707561995834112" lon="7.302969004958868">
        <ele>159.72</ele>
        <time>2025-05-18T16:27:23Z</time>
      </trkpt>
      <trkpt lat="43.70759803801775" lon="7.303095990791917">
        <ele>159.72</ele>
        <time>2025-05-18T16:27:24Z</time>
      </trkpt>
      <trkpt lat="43.707633996382356" lon="7.303320039063692">
        <ele>160.19999999999999</ele>
        <time>2025-05-18T16:27:25Z</time>
      </trkpt>
      <trkpt lat="43.707593008875847" lon="7.303465967997909">
        <ele>160.19999999999999</ele>
        <time>2025-05-18T16:27:26Z</time>
      </trkpt>
      <trkpt lat="43.707553027197719" lon="7.303610974922776">
        <ele>160.19999999999999</ele>
        <time>2025-05-18T16:27:27Z</time>
      </trkpt>
      <trkpt lat="43.707461999729276" lon="7.303741984069347">
        <ele>160.19999999999999</ele>
        <time>2025-05-18T16:27:28Z</time>
      </trkpt>
      <trkpt lat="43.707379018887877" lon="7.30383301153779">
        <ele>160.19999999999999</ele>
        <time>2025-05-18T16:27:29Z</time>
      </trkpt>
      <trkpt lat="43.707294026389718" lon="7.303926972672343">
        <ele>160.68000000000001</ele>
        <time>2025-05-18T16:27:30Z</time>
      </trkpt>
      <trkpt lat="43.707205010578036" lon="7.30402403511107">
        <ele>160.68000000000001</ele>
        <time>2025-05-18T16:27:31Z</time>
      </trkpt>
      <trkpt lat="43.706407975405455" lon="7.304836995899677">
        <ele>160.68000000000001</ele>
        <time>2025-05-18T16:27:40Z</time>
      </trkpt>
      <trkpt lat="43.706328012049198" lon="7.304943026974797">
        <ele>161.16</ele>
        <time>2025-05-18T16:27:41Z</time>
      </trkpt>
      <trkpt lat="43.706271015107632" lon="7.305049980059266">
        <ele>161.16</ele>
        <time>2025-05-18T16:27:42Z</time>
      </trkpt>
      <trkpt lat="43.706219969317317" lon="7.305180989205837">
        <ele>161.16</ele>
        <time>2025-05-18T16:27:43Z</time>
      </trkpt>
      <trkpt lat="43.706169007346034" lon="7.305310992524028">
        <ele>161.63999999999999</ele>
        <time>2025-05-18T16:27:44Z</time>
      </trkpt>
      <trkpt lat="43.706137994304299" lon="7.305437978357077">
        <ele>162.12</ele>
        <time>2025-05-18T16:27:45Z</time>
      </trkpt>
      <trkpt lat="43.706122990697622" lon="7.305577034130693">
        <ele>162.12</ele>
        <time>2025-05-18T16:27:46Z</time>
      </trkpt>
      <trkpt lat="43.706108992919326" lon="7.305713994428515">
        <ele>162.12</ele>
        <time>2025-05-18T16:27:47Z</time>
      </trkpt>
      <trkpt lat="43.706112010404468" lon="7.305843997746706">
        <ele>161.63999999999999</ele>
        <time>2025-05-18T16:27:48Z</time>
      </trkpt>
      <trkpt lat="43.706130031496286" lon="7.305971989408135">
        <ele>162.12</ele>
        <time>2025-05-18T16:27:49Z</time>
      </trkpt>
      <trkpt lat="43.706149980425835" lon="7.306094029918313">
        <ele>162.12</ele>
        <time>2025-05-18T16:27:50Z</time>
      </trkpt>
      <trkpt lat="43.706186022609472" lon="7.306207017973065">
        <ele>161.63999999999999</ele>
        <time>2025-05-18T16:27:51Z</time>
      </trkpt>
      <trkpt lat="43.706220975145698" lon="7.306321011856198">
        <ele>161.63999999999999</ele>
        <time>2025-05-18T16:27:52Z</time>
      </trkpt>
      <trkpt lat="43.706261040642858" lon="7.306438023224473">
        <ele>161.16</ele>
        <time>2025-05-18T16:27:53Z</time>
      </trkpt>
      <trkpt lat="43.706479975953698" lon="7.30675402097404">
        <ele>161.16</ele>
        <time>2025-05-18T16:27:56Z</time>
      </trkpt>
      <trkpt lat="43.706575026735663" lon="7.306835995987058">
        <ele>161.16</ele>
        <time>2025-05-18T16:27:57Z</time>
      </trkpt>
      <trkpt lat="43.706678962334991" lon="7.306914031505585">
        <ele>161.63999999999999</ele>
        <time>2025-05-18T16:27:58Z</time>
      </trkpt>
      <trkpt lat="43.706778958439827" lon="7.306986032053828">
        <ele>161.63999999999999</ele>
        <time>2025-05-18T16:27:59Z</time>
      </trkpt>
      <trkpt lat="43.706883983686566" lon="7.307039005681872">
        <ele>161.63999999999999</ele>
        <time>2025-05-18T16:28:00Z</time>
      </trkpt>
      <trkpt lat="43.706992026418447" lon="7.307091979309917">
        <ele>161.63999999999999</ele>
        <time>2025-05-18T16:28:01Z</time>
      </trkpt>
      <trkpt lat="43.7071050144732" lon="7.307136990129948">
        <ele>161.16</ele>
        <time>2025-05-18T16:28:02Z</time>
      </trkpt>
      <trkpt lat="43.708206983283162" lon="7.307622972875834">
        <ele>165</ele>
        <time>2025-05-18T16:28:12Z</time>
      </trkpt>
      <trkpt lat="43.708316031843424" lon="7.307692039757967">
        <ele>165</ele>
        <time>2025-05-18T16:28:13Z</time>
      </trkpt>
      <trkpt lat="43.70841602794826" lon="7.307774014770985">
        <ele>165.47999999999999</ele>
        <time>2025-05-18T16:28:14Z</time>
      </trkpt>
      <trkpt lat="43.708512000739574" lon="7.30785196647048">
        <ele>165.96000000000001</ele>
        <time>2025-05-18T16:28:15Z</time>
      </trkpt>
      <trkpt lat="43.708604034036398" lon="7.307959003373981">
        <ele>166.44999999999999</ele>
        <time>2025-05-18T16:28:16Z</time>
      </trkpt>
      <trkpt lat="43.708682991564274" lon="7.308080038055778">
        <ele>167.88999999999999</ele>
        <time>2025-05-18T16:28:17Z</time>
      </trkpt>
      <trkpt lat="43.708908967673779" lon="7.308416990563273">
        <ele>170.28999999999999</ele>
        <time>2025-05-18T16:28:20Z</time>
      </trkpt>
      <trkpt lat="43.709085993468761" lon="7.308606002479792">
        <ele>170.77000000000001</ele>
        <time>2025-05-18T16:28:22Z</time>
      </trkpt>
      <trkpt lat="43.709170985966921" lon="7.308698035776615">
        <ele>171.72999999999999</ele>
        <time>2025-05-18T16:28:23Z</time>
      </trkpt>
      <trkpt lat="43.709280034527183" lon="7.308743968605995">
        <ele>171.72999999999999</ele>
        <time>2025-05-18T16:28:24Z</time>
      </trkpt>
      <trkpt lat="43.709391010925174" lon="7.308789985254407">
        <ele>171.72999999999999</ele>
        <time>2025-05-18T16:28:25Z</time>
      </trkpt>
      <trkpt lat="43.709501987323165" lon="7.30883801355958">
        <ele>171.25</ele>
        <time>2025-05-18T16:28:26Z</time>
      </trkpt>
      <trkpt lat="43.709614975377917" lon="7.308885036036372">
        <ele>171.25</ele>
        <time>2025-05-18T16:28:27Z</time>
      </trkpt>
      <trkpt lat="43.709716983139515" lon="7.308928035199642">
        <ele>170.77000000000001</ele>
        <time>2025-05-18T16:28:28Z</time>
      </trkpt>
      <trkpt lat="43.709795018658042" lon="7.30907597579062">
        <ele>170.28999999999999</ele>
        <time>2025-05-18T16:28:29Z</time>
      </trkpt>
      <trkpt lat="43.709848998114467" lon="7.309192987158895">
        <ele>169.81</ele>
        <time>2025-05-18T16:28:30Z</time>
      </trkpt>
      <trkpt lat="43.70985796675086" lon="7.309346040710807">
        <ele>169.81</ele>
        <time>2025-05-18T16:28:31Z</time>
      </trkpt>
      <trkpt lat="43.70985796675086" lon="7.309513008221984">
        <ele>169.81</ele>
        <time>2025-05-18T16:28:32Z</time>
      </trkpt>
      <trkpt lat="43.7098110280931" lon="7.309630019590259">
        <ele>169.81</ele>
        <time>2025-05-18T16:28:33Z</time>
      </trkpt>
      <trkpt lat="43.709756964817643" lon="7.30976496823132">
        <ele>169.81</ele>
        <time>2025-05-18T16:28:34Z</time>
      </trkpt>
      <trkpt lat="43.709692005068064" lon="7.309902012348175">
        <ele>169.81</ele>
        <time>2025-05-18T16:28:35Z</time>
      </trkpt>
      <trkpt lat="43.709499975666404" lon="7.310251034796238">
        <ele>170.28999999999999</ele>
        <time>2025-05-18T16:28:38Z</time>
      </trkpt>
      <trkpt lat="43.709487989544868" lon="7.310381960123777">
        <ele>170.77000000000001</ele>
        <time>2025-05-18T16:28:39Z</time>
      </trkpt>
      <trkpt lat="43.709481032565236" lon="7.310525039210916">
        <ele>171.25</ele>
        <time>2025-05-18T16:28:40Z</time>
      </trkpt>
      <trkpt lat="43.709471980109811" lon="7.310714973136783">
        <ele>171.72999999999999</ele>
        <time>2025-05-18T16:28:41Z</time>
      </trkpt>
      <trkpt lat="43.709522020071745" lon="7.310796026140451">
        <ele>172.21000000000001</ele>
        <time>2025-05-18T16:28:42Z</time>
      </trkpt>
      <trkpt lat="43.709591003134847" lon="7.310908008366823">
        <ele>172.69</ele>
        <time>2025-05-18T16:28:43Z</time>
      </trkpt>
      <trkpt lat="43.70966199785471" lon="7.311010016128421">
        <ele>172.69</ele>
        <time>2025-05-18T16:28:44Z</time>
      </trkpt>
      <trkpt lat="43.709759982302785" lon="7.311090985313058">
        <ele>173.16999999999999</ele>
        <time>2025-05-18T16:28:45Z</time>
      </trkpt>
      <trkpt lat="43.70985696092248" lon="7.311172038316727">
        <ele>173.16999999999999</ele>
        <time>2025-05-18T16:28:46Z</time>
      </trkpt>
      <trkpt lat="43.709944970905781" lon="7.311273962259293">
        <ele>173.66</ele>
        <time>2025-05-18T16:28:47Z</time>
      </trkpt>
      <trkpt lat="43.71002702973783" lon="7.311398014426231">
        <ele>174.13999999999999</ele>
        <time>2025-05-18T16:28:48Z</time>
      </trkpt>
      <trkpt lat="43.710038010030985" lon="7.311564981937408">
        <ele>174.13999999999999</ele>
        <time>2025-05-18T16:28:49Z</time>
      </trkpt>
      <trkpt lat="43.710046978667378" lon="7.311737984418869">
        <ele>174.13999999999999</ele>
        <time>2025-05-18T16:28:50Z</time>
      </trkpt>
      <trkpt lat="43.710046978667378" lon="7.311907969415188">
        <ele>173.66</ele>
        <time>2025-05-18T16:28:51Z</time>
      </trkpt>
      <trkpt lat="43.710040021687746" lon="7.312077032402158">
        <ele>173.66</ele>
        <time>2025-05-18T16:28:52Z</time>
      </trkpt>
      <trkpt lat="43.710032980889082" lon="7.312240982428193">
        <ele>173.16999999999999</ele>
        <time>2025-05-18T16:28:53Z</time>
      </trkpt>
      <trkpt lat="43.710040021687746" lon="7.31240401044488">
        <ele>173.16999999999999</ele>
        <time>2025-05-18T16:28:54Z</time>
      </trkpt>
      <trkpt lat="43.710059970617294" lon="7.312566032633185">
        <ele>173.66</ele>
        <time>2025-05-18T16:28:55Z</time>
      </trkpt>
      <trkpt lat="43.71009198948741" lon="7.312733000144362">
        <ele>174.13999999999999</ele>
        <time>2025-05-18T16:28:56Z</time>
      </trkpt>
      <trkpt lat="43.71013599447906" lon="7.312883036211133">
        <ele>174.62</ele>
        <time>2025-05-18T16:28:57Z</time>
      </trkpt>
      <trkpt lat="43.71017899364233" lon="7.31302997097373">
        <ele>175.09999999999999</ele>
        <time>2025-05-18T16:28:58Z</time>
      </trkpt>
      <trkpt lat="43.710201038047671" lon="7.313159974291921">
        <ele>175.58000000000001</ele>
        <time>2025-05-18T16:28:59Z</time>
      </trkpt>
      <trkpt lat="43.710244037210941" lon="7.313417969271541">
        <ele>176.06</ele>
        <time>2025-05-18T16:29:00Z</time>
      </trkpt>
      <trkpt lat="43.710244037210941" lon="7.313417969271541">
        <ele>177.02000000000001</ele>
        <time>2025-05-18T16:29:01Z</time>
      </trkpt>
      <trkpt lat="43.710268009454012" lon="7.313505979254842">
        <ele>177.5</ele>
        <time>2025-05-18T16:29:02Z</time>
      </trkpt>
      <trkpt lat="43.710308996960521" lon="7.313655009493232">
        <ele>177.97999999999999</ele>
        <time>2025-05-18T16:29:03Z</time>
      </trkpt>
      <trkpt lat="43.710330035537481" lon="7.313804961740971">
        <ele>178.46000000000001</ele>
        <time>2025-05-18T16:29:04Z</time>
      </trkpt>
      <trkpt lat="43.710340010002255" lon="7.313908981159329">
        <ele>178.94</ele>
        <time>2025-05-18T16:29:05Z</time>
      </trkpt>
      <trkpt lat="43.710343027487397" lon="7.3140590172261">
        <ele>178.94</ele>
        <time>2025-05-18T16:29:06Z</time>
      </trkpt>
      <trkpt lat="43.71030698530376" lon="7.314234031364322">
        <ele>178.94</ele>
        <time>2025-05-18T16:29:07Z</time>
      </trkpt>
      <trkpt lat="43.710272032767534" lon="7.31440301053226">
        <ele>178.94</ele>
        <time>2025-05-18T16:29:08Z</time>
      </trkpt>
      <trkpt lat="43.710207995027304" lon="7.314714984968305">
        <ele>179.90000000000001</ele>
        <time>2025-05-18T16:29:10Z</time>
      </trkpt>
      <trkpt lat="43.709909012541175" lon="7.315544961020351">
        <ele>178.94</ele>
        <time>2025-05-18T16:29:16Z</time>
      </trkpt>
      <trkpt lat="43.709884034469724" lon="7.315690973773599">
        <ele>179.41999999999999</ele>
        <time>2025-05-18T16:29:17Z</time>
      </trkpt>
      <trkpt lat="43.709865007549524" lon="7.315834974870086">
        <ele>179.90000000000001</ele>
        <time>2025-05-18T16:29:18Z</time>
      </trkpt>
      <trkpt lat="43.709860984236002" lon="7.315970007330179">
        <ele>180.87</ele>
        <time>2025-05-18T16:29:19Z</time>
      </trkpt>
      <trkpt lat="43.709866013377905" lon="7.316094981506467">
        <ele>181.34999999999999</ele>
        <time>2025-05-18T16:29:20Z</time>
      </trkpt>
      <trkpt lat="43.709872970357537" lon="7.316306959837675">
        <ele>181.83000000000001</ele>
        <time>2025-05-18T16:29:22Z</time>
      </trkpt>
      <trkpt lat="43.70987699367106" lon="7.316399998962879">
        <ele>181.83000000000001</ele>
        <time>2025-05-18T16:29:23Z</time>
      </trkpt>
      <trkpt lat="43.709882022812963" lon="7.31655003502965">
        <ele>181.83000000000001</ele>
        <time>2025-05-18T16:29:25Z</time>
      </trkpt>
      <trkpt lat="43.709884034469724" lon="7.316600997000933">
        <ele>181.83000000000001</ele>
        <time>2025-05-18T16:29:26Z</time>
      </trkpt>
      <trkpt lat="43.709885962307453" lon="7.316643996164203">
        <ele>181.83000000000001</ele>
        <time>2025-05-18T16:29:27Z</time>
      </trkpt>
      <trkpt lat="43.709886968135834" lon="7.316676015034318">
        <ele>181.83000000000001</ele>
        <time>2025-05-18T16:29:28Z</time>
      </trkpt>
      <trkpt lat="43.709886968135834" lon="7.316697975620627">
        <ele>181.83000000000001</ele>
        <time>2025-05-18T16:29:29Z</time>
      </trkpt>
      <trkpt lat="43.709886968135834" lon="7.316697975620627">
        <ele>181.34999999999999</ele>
        <time>2025-05-18T16:29:43Z</time>
      </trkpt>
      <trkpt lat="43.709923010319471" lon="7.316765030846">
        <ele>176.06</ele>
        <time>2025-05-18T16:32:36Z</time>
      </trkpt>
      <trkpt lat="43.709827959537506" lon="7.316742986440659">
        <ele>191.44</ele>
        <time>2025-05-18T16:33:06Z</time>
      </trkpt>
      <trkpt lat="43.709893003106117" lon="7.31685396283865">
        <ele>193.36000000000001</ele>
        <time>2025-05-18T16:33:17Z</time>
      </trkpt>
      <trkpt lat="43.70989702641964" lon="7.316952031105757">
        <ele>192.88</ele>
        <time>2025-05-18T16:33:18Z</time>
      </trkpt>
      <trkpt lat="43.709901971742511" lon="7.317480007186532">
        <ele>193.36000000000001</ele>
        <time>2025-05-18T16:33:22Z</time>
      </trkpt>
      <trkpt lat="43.709907000884414" lon="7.317629037424922">
        <ele>193.36000000000001</ele>
        <time>2025-05-18T16:33:23Z</time>
      </trkpt>
      <trkpt lat="43.709917981177568" lon="7.318555992096663">
        <ele>192.40000000000001</ele>
        <time>2025-05-18T16:33:29Z</time>
      </trkpt>
      <trkpt lat="43.709942037239671" lon="7.318714996799827">
        <ele>192.40000000000001</ele>
        <time>2025-05-18T16:33:30Z</time>
      </trkpt>
      <trkpt lat="43.709965003654361" lon="7.318868972361088">
        <ele>192.88</ele>
        <time>2025-05-18T16:33:31Z</time>
      </trkpt>
      <trkpt lat="43.71004899032414" lon="7.318966034799814">
        <ele>193.36000000000001</ele>
        <time>2025-05-18T16:33:32Z</time>
      </trkpt>
      <trkpt lat="43.710144963115454" lon="7.319077011197805">
        <ele>193.36000000000001</ele>
        <time>2025-05-18T16:33:33Z</time>
      </trkpt>
      <trkpt lat="43.710244037210941" lon="7.319192010909319">
        <ele>193.36000000000001</ele>
        <time>2025-05-18T16:33:34Z</time>
      </trkpt>
      <trkpt lat="43.711116006597877" lon="7.319781007245183">
        <ele>197.69</ele>
        <time>2025-05-18T16:33:42Z</time>
      </trkpt>
      <trkpt lat="43.71142596937716" lon="7.319890977814794">
        <ele>199.61000000000001</ele>
        <time>2025-05-18T16:33:45Z</time>
      </trkpt>
      <trkpt lat="43.711838023737073" lon="7.319975970312953">
        <ele>202.00999999999999</ele>
        <time>2025-05-18T16:33:49Z</time>
      </trkpt>
      <trkpt lat="43.712148992344737" lon="7.3200339730829">
        <ele>203.46000000000001</ele>
        <time>2025-05-18T16:33:52Z</time>
      </trkpt>
      <trkpt lat="43.712252005934715" lon="7.320053000003099">
        <ele>203.94</ele>
        <time>2025-05-18T16:33:53Z</time>
      </trkpt>
      <trkpt lat="43.712350996211171" lon="7.320070015266538">
        <ele>204.41999999999999</ele>
        <time>2025-05-18T16:33:54Z</time>
      </trkpt>
      <trkpt lat="43.71245501562953" lon="7.320070015266538">
        <ele>205.38</ele>
        <time>2025-05-18T16:33:55Z</time>
      </trkpt>
      <trkpt lat="43.712561968713999" lon="7.320070015266538">
        <ele>205.86000000000001</ele>
        <time>2025-05-18T16:33:56Z</time>
      </trkpt>
      <trkpt lat="43.712872015312314" lon="7.320070015266538">
        <ele>207.30000000000001</ele>
        <time>2025-05-18T16:33:59Z</time>
      </trkpt>
      <trkpt lat="43.712968993932009" lon="7.320070015266538">
        <ele>207.78</ele>
        <time>2025-05-18T16:34:00Z</time>
      </trkpt>
      <trkpt lat="43.713084999471903" lon="7.320186020806432">
        <ele>208.74000000000001</ele>
        <time>2025-05-18T16:34:01Z</time>
      </trkpt>
      <trkpt lat="43.713180972263217" lon="7.320281993597746">
        <ele>209.22</ele>
        <time>2025-05-18T16:34:02Z</time>
      </trkpt>
      <trkpt lat="43.713248027488589" lon="7.320411996915937">
        <ele>209.69999999999999</ele>
        <time>2025-05-18T16:34:03Z</time>
      </trkpt>
      <trkpt lat="43.71329496614635" lon="7.320560021325946">
        <ele>210.66999999999999</ele>
        <time>2025-05-18T16:34:04Z</time>
      </trkpt>
      <trkpt lat="43.713309969753027" lon="7.320727994665504">
        <ele>211.15000000000001</ele>
        <time>2025-05-18T16:34:05Z</time>
      </trkpt>
      <trkpt lat="43.713279040530324" lon="7.320896973833442">
        <ele>211.63</ele>
        <time>2025-05-18T16:34:06Z</time>
      </trkpt>
      <trkpt lat="43.713211985304952" lon="7.321054972708225">
        <ele>212.59</ele>
        <time>2025-05-18T16:34:07Z</time>
      </trkpt>
      <trkpt lat="43.713132021948695" lon="7.321196962147951">
        <ele>213.06999999999999</ele>
        <time>2025-05-18T16:34:08Z</time>
      </trkpt>
      <trkpt lat="43.713035965338349" lon="7.321313973516226">
        <ele>213.55000000000001</ele>
        <time>2025-05-18T16:34:09Z</time>
      </trkpt>
      <trkpt lat="43.712686020880938" lon="7.321858964860439">
        <ele>215.47</ele>
        <time>2025-05-18T16:34:13Z</time>
      </trkpt>
      <trkpt lat="43.712615026161075" lon="7.322011012583971">
        <ele>216.43000000000001</ele>
        <time>2025-05-18T16:34:14Z</time>
      </trkpt>
      <trkpt lat="43.712573032826185" lon="7.322200024500489">
        <ele>217.40000000000001</ele>
        <time>2025-05-18T16:34:15Z</time>
      </trkpt>
      <trkpt lat="43.712531039491296" lon="7.322392975911498">
        <ele>217.88</ele>
        <time>2025-05-18T16:34:16Z</time>
      </trkpt>
      <trkpt lat="43.712488962337375" lon="7.3225880227983">
        <ele>218.84</ele>
        <time>2025-05-18T16:34:17Z</time>
      </trkpt>
      <trkpt lat="43.712174976244569" lon="7.324361968785524">
        <ele>225.09</ele>
        <time>2025-05-18T16:34:26Z</time>
      </trkpt>
      <trkpt lat="43.712192997336388" lon="7.324596997350454">
        <ele>226.05000000000001</ele>
        <time>2025-05-18T16:34:27Z</time>
      </trkpt>
      <trkpt lat="43.712230967357755" lon="7.324796989560127">
        <ele>227.00999999999999</ele>
        <time>2025-05-18T16:34:28Z</time>
      </trkpt>
      <trkpt lat="43.712276984006166" lon="7.325005028396845">
        <ele>227.97</ele>
        <time>2025-05-18T16:34:29Z</time>
      </trkpt>
      <trkpt lat="43.712323000654578" lon="7.325214995071292">
        <ele>229.41</ele>
        <time>2025-05-18T16:34:30Z</time>
      </trkpt>
      <trkpt lat="43.71236901730299" lon="7.325424961745739">
        <ele>230.37</ele>
        <time>2025-05-18T16:34:31Z</time>
      </trkpt>
      <trkpt lat="43.712983997538686" lon="7.327776001766324">
        <ele>241.43000000000001</ele>
        <time>2025-05-18T16:34:42Z</time>
      </trkpt>
      <trkpt lat="43.713557990267873" lon="7.329277032986283">
        <ele>250.56</ele>
        <time>2025-05-18T16:34:50Z</time>
      </trkpt>
      <trkpt lat="43.714510006830096" lon="7.331237979233265">
        <ele>261.13999999999999</ele>
        <time>2025-05-18T16:35:02Z</time>
      </trkpt>
      <trkpt lat="43.714981991797686" lon="7.332008024677634">
        <ele>265.45999999999998</ele>
        <time>2025-05-18T16:35:08Z</time>
      </trkpt>
      <trkpt lat="43.715091040357947" lon="7.33208698220551">
        <ele>265.94</ele>
        <time>2025-05-18T16:35:09Z</time>
      </trkpt>
      <trkpt lat="43.715203022584319" lon="7.332165017724037">
        <ele>266.42000000000002</ele>
        <time>2025-05-18T16:35:10Z</time>
      </trkpt>
      <trkpt lat="43.715322967618704" lon="7.332234000787139">
        <ele>267.38</ele>
        <time>2025-05-18T16:35:11Z</time>
      </trkpt>
      <trkpt lat="43.715436961501837" lon="7.332299966365099">
        <ele>267.86000000000001</ele>
        <time>2025-05-18T16:35:12Z</time>
      </trkpt>
      <trkpt lat="43.716568015515804" lon="7.332919975742698">
        <ele>267.86000000000001</ele>
        <time>2025-05-18T16:35:21Z</time>
      </trkpt>
      <trkpt lat="43.716836990788579" lon="7.333142012357712">
        <ele>268.82999999999998</ele>
        <time>2025-05-18T16:35:23Z</time>
      </trkpt>
      <trkpt lat="43.71694402769208" lon="7.333268998190761">
        <ele>268.82999999999998</ele>
        <time>2025-05-18T16:35:24Z</time>
      </trkpt>
      <trkpt lat="43.717056009918451" lon="7.333506960421801">
        <ele>269.31</ele>
        <time>2025-05-18T16:35:25Z</time>
      </trkpt>
      <trkpt lat="43.717128010466695" lon="7.333672000095248">
        <ele>269.79000000000002</ele>
        <time>2025-05-18T16:35:26Z</time>
      </trkpt>
      <trkpt lat="43.718137023970485" lon="7.335624983534217">
        <ele>276.04000000000002</ele>
        <time>2025-05-18T16:35:39Z</time>
      </trkpt>
      <trkpt lat="43.718541031703353" lon="7.336523020640016">
        <ele>277.48000000000002</ele>
        <time>2025-05-18T16:35:45Z</time>
      </trkpt>
      <trkpt lat="43.71877396479249" lon="7.337440000846982">
        <ele>277.95999999999998</ele>
        <time>2025-05-18T16:35:50Z</time>
      </trkpt>
      <trkpt lat="43.719098009169102" lon="7.338281041011214">
        <ele>278.44</ele>
        <time>2025-05-18T16:35:55Z</time>
      </trkpt>
      <trkpt lat="43.719170009717345" lon="7.338431999087334">
        <ele>278.44</ele>
        <time>2025-05-18T16:35:56Z</time>
      </trkpt>
      <trkpt lat="43.719251984730363" lon="7.338562002405524">
        <ele>278.44</ele>
        <time>2025-05-18T16:35:57Z</time>
      </trkpt>
      <trkpt lat="43.719356004148722" lon="7.338666021823883">
        <ele>277.95999999999998</ele>
        <time>2025-05-18T16:35:58Z</time>
      </trkpt>
      <trkpt lat="43.719468992203474" lon="7.338736010715365">
        <ele>277.48000000000002</ele>
        <time>2025-05-18T16:35:59Z</time>
      </trkpt>
      <trkpt lat="43.71958902105689" lon="7.338771969079971">
        <ele>277.48000000000002</ele>
        <time>2025-05-18T16:36:00Z</time>
      </trkpt>
      <trkpt lat="43.719703014940023" lon="7.338781021535397">
        <ele>277.48000000000002</ele>
        <time>2025-05-18T16:36:01Z</time>
      </trkpt>
      <trkpt lat="43.719836035743356" lon="7.338781021535397">
        <ele>277</ele>
        <time>2025-05-18T16:36:02Z</time>
      </trkpt>
      <trkpt lat="43.720108028501272" lon="7.338787978515029">
        <ele>276.51999999999998</ele>
        <time>2025-05-18T16:36:04Z</time>
      </trkpt>
      <trkpt lat="43.720237025991082" lon="7.338811028748751">
        <ele>276.51999999999998</ele>
        <time>2025-05-18T16:36:05Z</time>
      </trkpt>
      <trkpt lat="43.720355965197086" lon="7.338883029296994">
        <ele>276.51999999999998</ele>
        <time>2025-05-18T16:36:06Z</time>
      </trkpt>
      <trkpt lat="43.720525028184056" lon="7.339103976264596">
        <ele>277</ele>
        <time>2025-05-18T16:36:08Z</time>
      </trkpt>
      <trkpt lat="43.7205970287323" lon="7.339232973754406">
        <ele>277</ele>
        <time>2025-05-18T16:36:09Z</time>
      </trkpt>
      <trkpt lat="43.720615971833467" lon="7.339385021477938">
        <ele>277.48000000000002</ele>
        <time>2025-05-18T16:36:10Z</time>
      </trkpt>
      <trkpt lat="43.720625024288893" lon="7.339558023959398">
        <ele>277.48000000000002</ele>
        <time>2025-05-18T16:36:11Z</time>
      </trkpt>
      <trkpt lat="43.720631981268525" lon="7.33973303809762">
        <ele>277.95999999999998</ele>
        <time>2025-05-18T16:36:12Z</time>
      </trkpt>
      <trkpt lat="43.720688978210092" lon="7.341597005724907">
        <ele>279.88</ele>
        <time>2025-05-18T16:36:22Z</time>
      </trkpt>
      <trkpt lat="43.720933981239796" lon="7.34317003749311">
        <ele>280.36000000000001</ele>
        <time>2025-05-18T16:36:30Z</time>
      </trkpt>
      <trkpt lat="43.72098402120173" lon="7.343347985297442">
        <ele>280.36000000000001</ele>
        <time>2025-05-18T16:36:31Z</time>
      </trkpt>
      <trkpt lat="43.721051998436451" lon="7.343502966687083">
        <ele>280.36000000000001</ele>
        <time>2025-05-18T16:36:32Z</time>
      </trkpt>
      <trkpt lat="43.721134979277849" lon="7.343631964176893">
        <ele>280.36000000000001</ele>
        <time>2025-05-18T16:36:33Z</time>
      </trkpt>
      <trkpt lat="43.721231035888195" lon="7.343780994415283">
        <ele>280.36000000000001</ele>
        <time>2025-05-18T16:36:34Z</time>
      </trkpt>
      <trkpt lat="43.721326002851129" lon="7.343864981085062">
        <ele>280.36000000000001</ele>
        <time>2025-05-18T16:36:35Z</time>
      </trkpt>
      <trkpt lat="43.721435973420739" lon="7.343961037695408">
        <ele>280.36000000000001</ele>
        <time>2025-05-18T16:36:36Z</time>
      </trkpt>
      <trkpt lat="43.72154401615262" lon="7.344054998829961">
        <ele>280.36000000000001</ele>
        <time>2025-05-18T16:36:37Z</time>
      </trkpt>
      <trkpt lat="43.721671001985669" lon="7.344114007428289">
        <ele>279.88</ele>
        <time>2025-05-18T16:36:38Z</time>
      </trkpt>
      <trkpt lat="43.721798993647099" lon="7.344156000763178">
        <ele>279.88</ele>
        <time>2025-05-18T16:36:39Z</time>
      </trkpt>
      <trkpt lat="43.721928996965289" lon="7.344151977449656">
        <ele>279.88</ele>
        <time>2025-05-18T16:36:40Z</time>
      </trkpt>
      <trkpt lat="43.722054976969957" lon="7.344132028520107">
        <ele>279.88</ele>
        <time>2025-05-18T16:36:41Z</time>
      </trkpt>
      <trkpt lat="43.722181040793657" lon="7.344111995771527">
        <ele>279.39999999999998</ele>
        <time>2025-05-18T16:36:42Z</time>
      </trkpt>
      <trkpt lat="43.722299979999661" lon="7.344068996608257">
        <ele>279.39999999999998</ele>
        <time>2025-05-18T16:36:43Z</time>
      </trkpt>
      <trkpt lat="43.722410034388304" lon="7.344007976353169">
        <ele>279.88</ele>
        <time>2025-05-18T16:36:44Z</time>
      </trkpt>
      <trkpt lat="43.722632993012667" lon="7.343933964148164">
        <ele>279.88</ele>
        <time>2025-05-18T16:36:46Z</time>
      </trkpt>
      <trkpt lat="43.722735000774264" lon="7.343913009390235">
        <ele>280.36000000000001</ele>
        <time>2025-05-18T16:36:47Z</time>
      </trkpt>
      <trkpt lat="43.722845977172256" lon="7.343929018825293">
        <ele>280.36000000000001</ele>
        <time>2025-05-18T16:36:48Z</time>
      </trkpt>
      <trkpt lat="43.722937004640698" lon="7.343977969139814">
        <ele>280.36000000000001</ele>
        <time>2025-05-18T16:36:49Z</time>
      </trkpt>
      <trkpt lat="43.723040018230677" lon="7.344041001051664">
        <ele>280.36000000000001</ele>
        <time>2025-05-18T16:36:50Z</time>
      </trkpt>
      <trkpt lat="43.723143031820655" lon="7.344108978286386">
        <ele>280.83999999999997</ele>
        <time>2025-05-18T16:36:51Z</time>
      </trkpt>
      <trkpt lat="43.723192987963557" lon="7.344238981604576">
        <ele>281.31999999999999</ele>
        <time>2025-05-18T16:36:52Z</time>
      </trkpt>
      <trkpt lat="43.723245039582253" lon="7.344373008236289">
        <ele>281.80000000000001</ele>
        <time>2025-05-18T16:36:53Z</time>
      </trkpt>
      <trkpt lat="43.723289966583252" lon="7.344513991847634">
        <ele>282.27999999999997</ele>
        <time>2025-05-18T16:36:54Z</time>
      </trkpt>
      <trkpt lat="43.723289966583252" lon="7.344674002379179">
        <ele>282.76999999999998</ele>
        <time>2025-05-18T16:36:55Z</time>
      </trkpt>
      <trkpt lat="43.723289966583252" lon="7.344838036224246">
        <ele>283.25</ele>
        <time>2025-05-18T16:36:56Z</time>
      </trkpt>
      <trkpt lat="43.723289966583252" lon="7.345001986250281">
        <ele>283.25</ele>
        <time>2025-05-18T16:36:57Z</time>
      </trkpt>
      <trkpt lat="43.723289966583252" lon="7.345165014266968">
        <ele>283.73000000000002</ele>
        <time>2025-05-18T16:36:58Z</time>
      </trkpt>
      <trkpt lat="43.723339000716805" lon="7.346043018624187">
        <ele>285.64999999999998</ele>
        <time>2025-05-18T16:37:03Z</time>
      </trkpt>
      <trkpt lat="43.723366996273398" lon="7.346228007227182">
        <ele>286.13</ele>
        <time>2025-05-18T16:37:04Z</time>
      </trkpt>
      <trkpt lat="43.723488030955195" lon="7.346590021625161">
        <ele>288.52999999999997</ele>
        <time>2025-05-18T16:37:06Z</time>
      </trkpt>
      <trkpt lat="43.723558019846678" lon="7.346767969429493">
        <ele>289.49000000000001</ele>
        <time>2025-05-18T16:37:07Z</time>
      </trkpt>
      <trkpt lat="43.72364996932447" lon="7.346927979961038">
        <ele>290.45999999999998</ele>
        <time>2025-05-18T16:37:08Z</time>
      </trkpt>
      <trkpt lat="43.723752982914448" lon="7.347066029906273">
        <ele>291.89999999999998</ele>
        <time>2025-05-18T16:37:09Z</time>
      </trkpt>
      <trkpt lat="43.72386303730309" lon="7.347195027396083">
        <ele>292.86000000000001</ele>
        <time>2025-05-18T16:37:10Z</time>
      </trkpt>
      <trkpt lat="43.723975019529462" lon="7.34731899574399">
        <ele>293.81999999999999</ele>
        <time>2025-05-18T16:37:11Z</time>
      </trkpt>
      <trkpt lat="43.724083984270692" lon="7.347440030425787">
        <ele>294.77999999999997</ele>
        <time>2025-05-18T16:37:12Z</time>
      </trkpt>
      <trkpt lat="43.724313983693719" lon="7.347639016807079">
        <ele>297.18000000000001</ele>
        <time>2025-05-18T16:37:14Z</time>
      </trkpt>
      <trkpt lat="43.724432000890374" lon="7.347723003476858">
        <ele>298.14999999999998</ele>
        <time>2025-05-18T16:37:15Z</time>
      </trkpt>
      <trkpt lat="43.724556975066662" lon="7.347766002640128">
        <ele>299.58999999999997</ele>
        <time>2025-05-18T16:37:16Z</time>
      </trkpt>
      <trkpt lat="43.724688990041614" lon="7.347788969054818">
        <ele>300.55000000000001</ele>
        <time>2025-05-18T16:37:17Z</time>
      </trkpt>
      <trkpt lat="43.724835002794862" lon="7.347815036773682">
        <ele>301.02999999999997</ele>
        <time>2025-05-18T16:37:18Z</time>
      </trkpt>
      <trkpt lat="43.724957965314388" lon="7.347801961004734">
        <ele>301.99000000000001</ele>
        <time>2025-05-18T16:37:19Z</time>
      </trkpt>
      <trkpt lat="43.725241022184491" lon="7.347777988761663">
        <ele>302.94999999999999</ele>
        <time>2025-05-18T16:37:21Z</time>
      </trkpt>
      <trkpt lat="43.725375970825553" lon="7.347817970439792">
        <ele>303.43000000000001</ele>
        <time>2025-05-18T16:37:22Z</time>
      </trkpt>
      <trkpt lat="43.725513014942408" lon="7.347858035936952">
        <ele>303.91000000000003</ele>
        <time>2025-05-18T16:37:23Z</time>
      </trkpt>
      <trkpt lat="43.725641006603837" lon="7.347933975979686">
        <ele>304.38999999999999</ele>
        <time>2025-05-18T16:37:24Z</time>
      </trkpt>
      <trkpt lat="43.725752988830209" lon="7.348045958206058">
        <ele>305.36000000000001</ele>
        <time>2025-05-18T16:37:25Z</time>
      </trkpt>
      <trkpt lat="43.725865976884961" lon="7.348159030079842">
        <ele>306.31999999999999</ele>
        <time>2025-05-18T16:37:26Z</time>
      </trkpt>
      <trkpt lat="43.725963039323688" lon="7.348304959014058">
        <ele>307.27999999999997</ele>
        <time>2025-05-18T16:37:27Z</time>
      </trkpt>
      <trkpt lat="43.726045014336705" lon="7.348461030051112">
        <ele>308.72000000000003</ele>
        <time>2025-05-18T16:37:28Z</time>
      </trkpt>
      <trkpt lat="43.726942967623472" lon="7.350164987146854">
        <ele>318.81</ele>
        <time>2025-05-18T16:37:39Z</time>
      </trkpt>
      <trkpt lat="43.72695998288691" lon="7.35034896992147">
        <ele>319.77999999999997</ele>
        <time>2025-05-18T16:37:40Z</time>
      </trkpt>
      <trkpt lat="43.726976998150349" lon="7.350533958524466">
        <ele>320.74000000000001</ele>
        <time>2025-05-18T16:37:41Z</time>
      </trkpt>
      <trkpt lat="43.726966017857194" lon="7.350731017068029">
        <ele>321.69999999999999</ele>
        <time>2025-05-18T16:37:42Z</time>
      </trkpt>
      <trkpt lat="43.726945985108614" lon="7.350916005671024">
        <ele>322.18000000000001</ele>
        <time>2025-05-18T16:37:43Z</time>
      </trkpt>
      <trkpt lat="43.726853029802442" lon="7.352378983050585">
        <ele>328.43000000000001</ele>
        <time>2025-05-18T16:37:51Z</time>
      </trkpt>
      <trkpt lat="43.726865015923977" lon="7.352564977481961">
        <ele>329.38999999999999</ele>
        <time>2025-05-18T16:37:52Z</time>
      </trkpt>
      <trkpt lat="43.726882031187415" lon="7.352734040468931">
        <ele>330.35000000000002</ele>
        <time>2025-05-18T16:37:53Z</time>
      </trkpt>
      <trkpt lat="43.726933998987079" lon="7.352902013808489">
        <ele>330.82999999999998</ele>
        <time>2025-05-18T16:37:54Z</time>
      </trkpt>
      <trkpt lat="43.726987978443503" lon="7.353071998804808">
        <ele>331.79000000000002</ele>
        <time>2025-05-18T16:37:55Z</time>
      </trkpt>
      <trkpt lat="43.72704598121345" lon="7.353245001286268">
        <ele>332.26999999999998</ele>
        <time>2025-05-18T16:37:56Z</time>
      </trkpt>
      <trkpt lat="43.727102978155017" lon="7.353415992110968">
        <ele>333.23000000000002</ele>
        <time>2025-05-18T16:37:57Z</time>
      </trkpt>
      <trkpt lat="43.72786003164947" lon="7.355245007202029">
        <ele>341.41000000000003</ele>
        <time>2025-05-18T16:38:08Z</time>
      </trkpt>
      <trkpt lat="43.72790202498436" lon="7.355422032997012">
        <ele>341.41000000000003</ele>
        <time>2025-05-18T16:38:09Z</time>
      </trkpt>
      <trkpt lat="43.727928008884192" lon="7.355601992458105">
        <ele>341.88999999999999</ele>
        <time>2025-05-18T16:38:10Z</time>
      </trkpt>
      <trkpt lat="43.72801098972559" lon="7.356484020128846">
        <ele>344.29000000000002</ele>
        <time>2025-05-18T16:38:15Z</time>
      </trkpt>
      <trkpt lat="43.728086007758975" lon="7.356666997075081">
        <ele>344.76999999999998</ele>
        <time>2025-05-18T16:38:16Z</time>
      </trkpt>
      <trkpt lat="43.72816102579236" lon="7.356848968192935">
        <ele>344.76999999999998</ele>
        <time>2025-05-18T16:38:17Z</time>
      </trkpt>
      <trkpt lat="43.728253981098533" lon="7.356917029246688">
        <ele>345.25</ele>
        <time>2025-05-18T16:38:18Z</time>
      </trkpt>
      <trkpt lat="43.728366969153285" lon="7.357001015916467">
        <ele>345.73000000000002</ele>
        <time>2025-05-18T16:38:19Z</time>
      </trkpt>
      <trkpt lat="43.728902991861105" lon="7.357307961210609">
        <ele>347.17000000000002</ele>
        <time>2025-05-18T16:38:24Z</time>
      </trkpt>
      <trkpt lat="43.729138020426035" lon="7.357388008385897">
        <ele>348.13</ele>
        <time>2025-05-18T16:38:26Z</time>
      </trkpt>
      <trkpt lat="43.729243967682123" lon="7.357467971742153">
        <ele>348.13</ele>
        <time>2025-05-18T16:38:27Z</time>
      </trkpt>
      <trkpt lat="43.729340024292469" lon="7.357575008645654">
        <ele>348.62</ele>
        <time>2025-05-18T16:38:28Z</time>
      </trkpt>
      <trkpt lat="43.72943096794188" lon="7.357693025842309">
        <ele>349.57999999999998</ele>
        <time>2025-05-18T16:38:29Z</time>
      </trkpt>
      <trkpt lat="43.729518977925181" lon="7.357816994190216">
        <ele>350.06</ele>
        <time>2025-05-18T16:38:30Z</time>
      </trkpt>
      <trkpt lat="43.72966499067843" lon="7.358055040240288">
        <ele>350.54000000000002</ele>
        <time>2025-05-18T16:38:32Z</time>
      </trkpt>
      <trkpt lat="43.72972802259028" lon="7.358157970011234">
        <ele>351.01999999999998</ele>
        <time>2025-05-18T16:38:33Z</time>
      </trkpt>
      <trkpt lat="43.729743026196957" lon="7.358262995257974">
        <ele>351.01999999999998</ele>
        <time>2025-05-18T16:38:34Z</time>
      </trkpt>
      <trkpt lat="43.729763980954885" lon="7.358410013839603">
        <ele>351.5</ele>
        <time>2025-05-18T16:38:35Z</time>
      </trkpt>
      <trkpt lat="43.72977102175355" lon="7.35855401493609">
        <ele>351.5</ele>
        <time>2025-05-18T16:38:36Z</time>
      </trkpt>
      <trkpt lat="43.729803040623665" lon="7.360409013926983">
        <ele>354.86000000000001</ele>
        <time>2025-05-18T16:38:47Z</time>
      </trkpt>
      <trkpt lat="43.72981402091682" lon="7.361331023275852">
        <ele>357.75</ele>
        <time>2025-05-18T16:38:55Z</time>
      </trkpt>
      <trkpt lat="43.72981402091682" lon="7.361430013552308">
        <ele>357.75</ele>
        <time>2025-05-18T16:38:56Z</time>
      </trkpt>
      <trkpt lat="43.72981402091682" lon="7.36177702434361">
        <ele>358.70999999999998</ele>
        <time>2025-05-18T16:38:59Z</time>
      </trkpt>
      <trkpt lat="43.729816032573581" lon="7.361880037933588">
        <ele>358.70999999999998</ele>
        <time>2025-05-18T16:39:00Z</time>
      </trkpt>
      <trkpt lat="43.729846039786935" lon="7.361981039866805">
        <ele>358.70999999999998</ele>
        <time>2025-05-18T16:39:01Z</time>
      </trkpt>
      <trkpt lat="43.729888033121824" lon="7.36207902431488">
        <ele>359.19</ele>
        <time>2025-05-18T16:39:02Z</time>
      </trkpt>
      <trkpt lat="43.729926003143191" lon="7.362178014591336">
        <ele>359.19</ele>
        <time>2025-05-18T16:39:03Z</time>
      </trkpt>
      <trkpt lat="43.730020970106125" lon="7.362371971830726">
        <ele>359.67000000000002</ele>
        <time>2025-05-18T16:39:05Z</time>
      </trkpt>
      <trkpt lat="43.730634022504091" lon="7.363037997856736">
        <ele>359.67000000000002</ele>
        <time>2025-05-18T16:39:15Z</time>
      </trkpt>
      <trkpt lat="43.730694958940148" lon="7.36315400339663">
        <ele>360.14999999999998</ele>
        <time>2025-05-18T16:39:16Z</time>
      </trkpt>
      <trkpt lat="43.731126040220261" lon="7.363954978063703">
        <ele>361.11000000000001</ele>
        <time>2025-05-18T16:39:23Z</time>
      </trkpt>
      <trkpt lat="43.731185970827937" lon="7.364065032452345">
        <ele>361.11000000000001</ele>
        <time>2025-05-18T16:39:24Z</time>
      </trkpt>
      <trkpt lat="43.731229975819588" lon="7.364199981093407">
        <ele>361.11000000000001</ele>
        <time>2025-05-18T16:39:25Z</time>
      </trkpt>
      <trkpt lat="43.731229975819588" lon="7.364346999675036">
        <ele>361.58999999999997</ele>
        <time>2025-05-18T16:39:26Z</time>
      </trkpt>
      <trkpt lat="43.731229975819588" lon="7.364510027691722">
        <ele>361.58999999999997</ele>
        <time>2025-05-18T16:39:27Z</time>
      </trkpt>
      <trkpt lat="43.731196029111743" lon="7.364661991596222">
        <ele>361.11000000000001</ele>
        <time>2025-05-18T16:39:28Z</time>
      </trkpt>
      <trkpt lat="43.731143977493048" lon="7.36483097076416">
        <ele>361.11000000000001</ele>
        <time>2025-05-18T16:39:29Z</time>
      </trkpt>
      <trkpt lat="43.731056973338127" lon="7.364924009889364">
        <ele>361.11000000000001</ele>
        <time>2025-05-18T16:39:30Z</time>
      </trkpt>
      <trkpt lat="43.730972986668348" lon="7.365015037357807">
        <ele>361.58999999999997</ele>
        <time>2025-05-18T16:39:31Z</time>
      </trkpt>
      <trkpt lat="43.730888999998569" lon="7.365104975178838">
        <ele>362.55000000000001</ele>
        <time>2025-05-18T16:39:32Z</time>
      </trkpt>
      <trkpt lat="43.730806019157171" lon="7.365182004868984">
        <ele>363.04000000000002</ele>
        <time>2025-05-18T16:39:33Z</time>
      </trkpt>
      <trkpt lat="43.730722032487392" lon="7.365255011245608">
        <ele>363.04000000000002</ele>
        <time>2025-05-18T16:39:34Z</time>
      </trkpt>
      <trkpt lat="43.730637961998582" lon="7.365328017622232">
        <ele>364</ele>
        <time>2025-05-18T16:39:35Z</time>
      </trkpt>
      <trkpt lat="43.730488009750843" lon="7.365502025932074">
        <ele>364.95999999999998</ele>
        <time>2025-05-18T16:39:37Z</time>
      </trkpt>
      <trkpt lat="43.730425983667374" lon="7.365605039522052">
        <ele>365.44</ele>
        <time>2025-05-18T16:39:38Z</time>
      </trkpt>
      <trkpt lat="43.730377033352852" lon="7.365721967071295">
        <ele>365.44</ele>
        <time>2025-05-18T16:39:39Z</time>
      </trkpt>
      <trkpt lat="43.73033001087606" lon="7.365841995924711">
        <ele>365.44</ele>
        <time>2025-05-18T16:39:40Z</time>
      </trkpt>
      <trkpt lat="43.730282988399267" lon="7.365962024778128">
        <ele>365.92000000000002</ele>
        <time>2025-05-18T16:39:41Z</time>
      </trkpt>
      <trkpt lat="43.730179974809289" lon="7.366196969524026">
        <ele>365.44</ele>
        <time>2025-05-18T16:39:43Z</time>
      </trkpt>
      <trkpt lat="43.730119038373232" lon="7.366307023912668">
        <ele>365.44</ele>
        <time>2025-05-18T16:39:44Z</time>
      </trkpt>
      <trkpt lat="43.73002901673317" lon="7.366382963955402">
        <ele>365.44</ele>
        <time>2025-05-18T16:39:45Z</time>
      </trkpt>
      <trkpt lat="43.729946035891771" lon="7.366421017795801">
        <ele>364.95999999999998</ele>
        <time>2025-05-18T16:39:46Z</time>
      </trkpt>
      <trkpt lat="43.729865988716483" lon="7.366456976160407">
        <ele>364.95999999999998</ele>
        <time>2025-05-18T16:39:47Z</time>
      </trkpt>
      <trkpt lat="43.729787031188607" lon="7.366498969495297">
        <ele>364.48000000000002</ele>
        <time>2025-05-18T16:39:48Z</time>
      </trkpt>
      <trkpt lat="43.729705978184938" lon="7.366540962830186">
        <ele>364</ele>
        <time>2025-05-18T16:39:49Z</time>
      </trkpt>
      <trkpt lat="43.729618974030018" lon="7.366586979478598">
        <ele>364</ele>
        <time>2025-05-18T16:39:50Z</time>
      </trkpt>
      <trkpt lat="43.729491988196969" lon="7.366655040532351">
        <ele>363.51999999999998</ele>
        <time>2025-05-18T16:39:51Z</time>
      </trkpt>
      <trkpt lat="43.729447983205318" lon="7.366698039695621">
        <ele>363.04000000000002</ele>
        <time>2025-05-18T16:39:52Z</time>
      </trkpt>
      <trkpt lat="43.729117987677455" lon="7.367008002474904">
        <ele>363.04000000000002</ele>
        <time>2025-05-18T16:39:56Z</time>
      </trkpt>
      <trkpt lat="43.729072976857424" lon="7.367123002186418">
        <ele>363.04000000000002</ele>
        <time>2025-05-18T16:39:57Z</time>
      </trkpt>
      <trkpt lat="43.729034001007676" lon="7.367249988019466">
        <ele>363.04000000000002</ele>
        <time>2025-05-18T16:39:58Z</time>
      </trkpt>
      <trkpt lat="43.728998964652419" lon="7.367373034358025">
        <ele>363.04000000000002</ele>
        <time>2025-05-18T16:39:59Z</time>
      </trkpt>
      <trkpt lat="43.729018997400999" lon="7.367517035454512">
        <ele>362.55000000000001</ele>
        <time>2025-05-18T16:40:00Z</time>
      </trkpt>
      <trkpt lat="43.72904104180634" lon="7.367685008794069">
        <ele>362.55000000000001</ele>
        <time>2025-05-18T16:40:01Z</time>
      </trkpt>
      <trkpt lat="43.729071971029043" lon="7.367789028212428">
        <ele>363.04000000000002</ele>
        <time>2025-05-18T16:40:02Z</time>
      </trkpt>
      <trkpt lat="43.729112958535552" lon="7.367929005995393">
        <ele>363.04000000000002</ele>
        <time>2025-05-18T16:40:03Z</time>
      </trkpt>
      <trkpt lat="43.729154029861093" lon="7.368076024577022">
        <ele>362.55000000000001</ele>
        <time>2025-05-18T16:40:04Z</time>
      </trkpt>
      <trkpt lat="43.72921303845942" lon="7.368393028154969">
        <ele>362.06999999999999</ele>
        <time>2025-05-18T16:40:06Z</time>
      </trkpt>
      <trkpt lat="43.729227958247066" lon="7.368534011766315">
        <ele>361.58999999999997</ele>
        <time>2025-05-18T16:40:07Z</time>
      </trkpt>
      <trkpt lat="43.729222007095814" lon="7.368693016469479">
        <ele>361.11000000000001</ele>
        <time>2025-05-18T16:40:08Z</time>
      </trkpt>
      <trkpt lat="43.729202980175614" lon="7.368852021172643">
        <ele>360.63</ele>
        <time>2025-05-18T16:40:09Z</time>
      </trkpt>
      <trkpt lat="43.729181019589305" lon="7.369023011997342">
        <ele>360.14999999999998</ele>
        <time>2025-05-18T16:40:10Z</time>
      </trkpt>
      <trkpt lat="43.729011034592986" lon="7.370193041861057">
        <ele>357.75</ele>
        <time>2025-05-18T16:40:16Z</time>
      </trkpt>
      <trkpt lat="43.728984966874123" lon="7.370375012978911">
        <ele>357.26999999999998</ele>
        <time>2025-05-18T16:40:17Z</time>
      </trkpt>
      <trkpt lat="43.728953031823039" lon="7.37056796438992">
        <ele>356.31</ele>
        <time>2025-05-18T16:40:18Z</time>
      </trkpt>
      <trkpt lat="43.728834008798003" lon="7.371144974604249">
        <ele>355.82999999999998</ele>
        <time>2025-05-18T16:40:21Z</time>
      </trkpt>
      <trkpt lat="43.728787992149591" lon="7.371347984299064">
        <ele>356.31</ele>
        <time>2025-05-18T16:40:22Z</time>
      </trkpt>
      <trkpt lat="43.728638039901853" lon="7.372061032801867">
        <ele>355.33999999999997</ele>
        <time>2025-05-18T16:40:26Z</time>
      </trkpt>
      <trkpt lat="43.72865698300302" lon="7.372216014191508">
        <ele>354.86000000000001</ele>
        <time>2025-05-18T16:40:27Z</time>
      </trkpt>
      <trkpt lat="43.728683972731233" lon="7.372368983924389">
        <ele>354.38</ele>
        <time>2025-05-18T16:40:28Z</time>
      </trkpt>
      <trkpt lat="43.728726971894503" lon="7.372496975585818">
        <ele>353.89999999999998</ele>
        <time>2025-05-18T16:40:29Z</time>
      </trkpt>
      <trkpt lat="43.728796038776636" lon="7.372580962255597">
        <ele>352.94</ele>
        <time>2025-05-18T16:40:30Z</time>
      </trkpt>
      <trkpt lat="43.728887988254428" lon="7.372648017480969">
        <ele>351.98000000000002</ele>
        <time>2025-05-18T16:40:31Z</time>
      </trkpt>
      <trkpt lat="43.728987984359264" lon="7.372721023857594">
        <ele>351.01999999999998</ele>
        <time>2025-05-18T16:40:32Z</time>
      </trkpt>
      <trkpt lat="43.729096027091146" lon="7.372797969728708">
        <ele>350.06</ele>
        <time>2025-05-18T16:40:33Z</time>
      </trkpt>
      <trkpt lat="43.72934203594923" lon="7.372941970825195">
        <ele>347.17000000000002</ele>
        <time>2025-05-18T16:40:35Z</time>
      </trkpt>
      <trkpt lat="43.729519983753562" lon="7.373192002996802">
        <ele>345.25</ele>
        <time>2025-05-18T16:40:37Z</time>
      </trkpt>
      <trkpt lat="43.729611011222005" lon="7.373342039063573">
        <ele>343.81</ele>
        <time>2025-05-18T16:40:38Z</time>
      </trkpt>
      <trkpt lat="43.729698015376925" lon="7.373485034331679">
        <ele>342.85000000000002</ele>
        <time>2025-05-18T16:40:39Z</time>
      </trkpt>
      <trkpt lat="43.729790970683098" lon="7.37361797131598">
        <ele>341.41000000000003</ele>
        <time>2025-05-18T16:40:40Z</time>
      </trkpt>
      <trkpt lat="43.72988099232316" lon="7.37374696880579">
        <ele>340.44</ele>
        <time>2025-05-18T16:40:41Z</time>
      </trkpt>
      <trkpt lat="43.729963973164558" lon="7.373864986002445">
        <ele>339.48000000000002</ele>
        <time>2025-05-18T16:40:42Z</time>
      </trkpt>
      <trkpt lat="43.730086013674736" lon="7.373926006257534">
        <ele>338.04000000000002</ele>
        <time>2025-05-18T16:40:43Z</time>
      </trkpt>
      <trkpt lat="43.730334034189582" lon="7.374049974605441">
        <ele>334.19999999999999</ele>
        <time>2025-05-18T16:40:45Z</time>
      </trkpt>
      <trkpt lat="43.73047904111445" lon="7.374121975153685">
        <ele>332.75</ele>
        <time>2025-05-18T16:40:46Z</time>
      </trkpt>
      <trkpt lat="43.730693031102419" lon="7.374207973480225">
        <ele>330.35000000000002</ele>
        <time>2025-05-18T16:40:48Z</time>
      </trkpt>
      <trkpt lat="43.730799984186888" lon="7.374261030927301">
        <ele>328.91000000000003</ele>
        <time>2025-05-18T16:40:49Z</time>
      </trkpt>
      <trkpt lat="43.730897968634963" lon="7.374349962919951">
        <ele>327.94999999999999</ele>
        <time>2025-05-18T16:40:50Z</time>
      </trkpt>
      <trkpt lat="43.730971980839968" lon="7.374472003430128">
        <ele>326.99000000000001</ele>
        <time>2025-05-18T16:40:51Z</time>
      </trkpt>
      <trkpt lat="43.731057979166508" lon="7.374616004526615">
        <ele>326.5</ele>
        <time>2025-05-18T16:40:52Z</time>
      </trkpt>
      <trkpt lat="43.731076000258327" lon="7.374751958996058">
        <ele>326.01999999999998</ele>
        <time>2025-05-18T16:40:53Z</time>
      </trkpt>
      <trkpt lat="43.731097960844636" lon="7.374921021983028">
        <ele>325.06</ele>
        <time>2025-05-18T16:40:54Z</time>
      </trkpt>
      <trkpt lat="43.731159986928105" lon="7.375617977231741">
        <ele>323.13999999999999</ele>
        <time>2025-05-18T16:40:58Z</time>
      </trkpt>
      <trkpt lat="43.731144983321428" lon="7.376178978011012">
        <ele>320.74000000000001</ele>
        <time>2025-05-18T16:41:01Z</time>
      </trkpt>
      <trkpt lat="43.731110030785203" lon="7.376343011856079">
        <ele>319.30000000000001</ele>
        <time>2025-05-18T16:41:02Z</time>
      </trkpt>
      <trkpt lat="43.730963012203574" lon="7.376598995178938">
        <ele>317.85000000000002</ele>
        <time>2025-05-18T16:41:04Z</time>
      </trkpt>
      <trkpt lat="43.730883970856667" lon="7.376724975183606">
        <ele>316.88999999999999</ele>
        <time>2025-05-18T16:41:05Z</time>
      </trkpt>
      <trkpt lat="43.730473006144166" lon="7.377278013154864">
        <ele>311.12</ele>
        <time>2025-05-18T16:41:10Z</time>
      </trkpt>
      <trkpt lat="43.730397988110781" lon="7.377415979281068">
        <ele>310.63999999999999</ele>
        <time>2025-05-18T16:41:11Z</time>
      </trkpt>
      <trkpt lat="43.73035297729075" lon="7.377560986205936">
        <ele>310.16000000000003</ele>
        <time>2025-05-18T16:41:12Z</time>
      </trkpt>
      <trkpt lat="43.730335962027311" lon="7.377728959545493">
        <ele>309.68000000000001</ele>
        <time>2025-05-18T16:41:13Z</time>
      </trkpt>
      <trkpt lat="43.730348031967878" lon="7.377878995612264">
        <ele>309.19999999999999</ele>
        <time>2025-05-18T16:41:14Z</time>
      </trkpt>
      <trkpt lat="43.730394970625639" lon="7.378017967566848">
        <ele>309.19999999999999</ele>
        <time>2025-05-18T16:41:15Z</time>
      </trkpt>
      <trkpt lat="43.730464959517121" lon="7.378129027783871">
        <ele>309.19999999999999</ele>
        <time>2025-05-18T16:41:16Z</time>
      </trkpt>
      <trkpt lat="43.730542995035648" lon="7.378220977261663">
        <ele>308.72000000000003</ele>
        <time>2025-05-18T16:41:17Z</time>
      </trkpt>
      <trkpt lat="43.730649026110768" lon="7.378290966153145">
        <ele>307.75999999999999</ele>
        <time>2025-05-18T16:41:18Z</time>
      </trkpt>
      <trkpt lat="43.730760002508759" lon="7.37836497835815">
        <ele>306.80000000000001</ele>
        <time>2025-05-18T16:41:19Z</time>
      </trkpt>
      <trkpt lat="43.731103995814919" lon="7.378593971952796">
        <ele>305.36000000000001</ele>
        <time>2025-05-18T16:41:22Z</time>
      </trkpt>
      <trkpt lat="43.731214972212911" lon="7.37868600524962">
        <ele>304.38999999999999</ele>
        <time>2025-05-18T16:41:23Z</time>
      </trkpt>
      <trkpt lat="43.731304993852973" lon="7.378802010789514">
        <ele>303.91000000000003</ele>
        <time>2025-05-18T16:41:24Z</time>
      </trkpt>
      <trkpt lat="43.731387974694371" lon="7.378954980522394">
        <ele>303.91000000000003</ele>
        <time>2025-05-18T16:41:25Z</time>
      </trkpt>
      <trkpt lat="43.731454024091363" lon="7.37911599688232">
        <ele>303.43000000000001</ele>
        <time>2025-05-18T16:41:26Z</time>
      </trkpt>
      <trkpt lat="43.731495011597872" lon="7.379282964393497">
        <ele>302.94999999999999</ele>
        <time>2025-05-18T16:41:27Z</time>
      </trkpt>
      <trkpt lat="43.731538010761142" lon="7.379453033208847">
        <ele>302.47000000000003</ele>
        <time>2025-05-18T16:41:28Z</time>
      </trkpt>
      <trkpt lat="43.731552008539438" lon="7.379655037075281">
        <ele>301.50999999999999</ele>
        <time>2025-05-18T16:41:29Z</time>
      </trkpt>
      <trkpt lat="43.731534993276" lon="7.37984798848629">
        <ele>300.55000000000001</ele>
        <time>2025-05-18T16:41:30Z</time>
      </trkpt>
      <trkpt lat="43.731506997719407" lon="7.380028031766415">
        <ele>299.11000000000001</ele>
        <time>2025-05-18T16:41:31Z</time>
      </trkpt>
      <trkpt lat="43.731470033526421" lon="7.380204973742366">
        <ele>298.14999999999998</ele>
        <time>2025-05-18T16:41:32Z</time>
      </trkpt>
      <trkpt lat="43.731415970250964" lon="7.38036397844553">
        <ele>296.69999999999999</ele>
        <time>2025-05-18T16:41:33Z</time>
      </trkpt>
      <trkpt lat="43.731364002451301" lon="7.380520971491933">
        <ele>294.77999999999997</ele>
        <time>2025-05-18T16:41:34Z</time>
      </trkpt>
      <trkpt lat="43.731314968317747" lon="7.380667990073562">
        <ele>293.81999999999999</ele>
        <time>2025-05-18T16:41:35Z</time>
      </trkpt>
      <trkpt lat="43.731268029659986" lon="7.380808973684907">
        <ele>292.38</ele>
        <time>2025-05-18T16:41:36Z</time>
      </trkpt>
      <trkpt lat="43.731244979426265" lon="7.380964960902929">
        <ele>291.42000000000002</ele>
        <time>2025-05-18T16:41:37Z</time>
      </trkpt>
      <trkpt lat="43.731235004961491" lon="7.381122959777713">
        <ele>290.45999999999998</ele>
        <time>2025-05-18T16:41:38Z</time>
      </trkpt>
      <trkpt lat="43.731255037710071" lon="7.381270984187722">
        <ele>289.49000000000001</ele>
        <time>2025-05-18T16:41:39Z</time>
      </trkpt>
      <trkpt lat="43.731302982196212" lon="7.381398975849152">
        <ele>288.05000000000001</ele>
        <time>2025-05-18T16:41:40Z</time>
      </trkpt>
      <trkpt lat="43.731358973309398" lon="7.381547000259161">
        <ele>287.56999999999999</ele>
        <time>2025-05-18T16:41:41Z</time>
      </trkpt>
      <trkpt lat="43.731452012434602" lon="7.381617994979024">
        <ele>287.08999999999997</ele>
        <time>2025-05-18T16:41:42Z</time>
      </trkpt>
      <trkpt lat="43.731552008539438" lon="7.38169502466917">
        <ele>286.61000000000001</ele>
        <time>2025-05-18T16:41:43Z</time>
      </trkpt>
      <trkpt lat="43.731656027957797" lon="7.381773982197046">
        <ele>285.64999999999998</ele>
        <time>2025-05-18T16:41:44Z</time>
      </trkpt>
      <trkpt lat="43.732000021263957" lon="7.381989983841777">
        <ele>283.73000000000002</ele>
        <time>2025-05-18T16:41:47Z</time>
      </trkpt>
      <trkpt lat="43.732091970741749" lon="7.382083022966981">
        <ele>283.25</ele>
        <time>2025-05-18T16:41:48Z</time>
      </trkpt>
      <trkpt lat="43.732174029573798" lon="7.382195005193353">
        <ele>282.76999999999998</ele>
        <time>2025-05-18T16:41:49Z</time>
      </trkpt>
      <trkpt lat="43.732236977666616" lon="7.382315034046769">
        <ele>282.27999999999997</ele>
        <time>2025-05-18T16:41:50Z</time>
      </trkpt>
      <trkpt lat="43.732285005971789" lon="7.382458029314876">
        <ele>281.31999999999999</ele>
        <time>2025-05-18T16:41:51Z</time>
      </trkpt>
      <trkpt lat="43.732328005135059" lon="7.382606975734234">
        <ele>280.83999999999997</ele>
        <time>2025-05-18T16:41:52Z</time>
      </trkpt>
      <trkpt lat="43.732344014570117" lon="7.38277000375092">
        <ele>279.88</ele>
        <time>2025-05-18T16:41:53Z</time>
      </trkpt>
      <trkpt lat="43.732334962114692" lon="7.38292096182704">
        <ele>278.92000000000002</ele>
        <time>2025-05-18T16:41:54Z</time>
      </trkpt>
      <trkpt lat="43.732316019013524" lon="7.383247017860413">
        <ele>277</ele>
        <time>2025-05-18T16:41:56Z</time>
      </trkpt>
      <trkpt lat="43.732280982658267" lon="7.383926035836339">
        <ele>274.11000000000001</ele>
        <time>2025-05-18T16:42:00Z</time>
      </trkpt>
      <trkpt lat="43.732297997921705" lon="7.384085040539503">
        <ele>273.14999999999998</ele>
        <time>2025-05-18T16:42:01Z</time>
      </trkpt>
      <trkpt lat="43.732328005135059" lon="7.384257037192583">
        <ele>272.19</ele>
        <time>2025-05-18T16:42:02Z</time>
      </trkpt>
      <trkpt lat="43.732373015955091" lon="7.38442299887538">
        <ele>271.70999999999998</ele>
        <time>2025-05-18T16:42:03Z</time>
      </trkpt>
      <trkpt lat="43.732439987361431" lon="7.384580997750163">
        <ele>270.75</ele>
        <time>2025-05-18T16:42:04Z</time>
      </trkpt>
      <trkpt lat="43.732507964596152" lon="7.384741008281708">
        <ele>269.79000000000002</ele>
        <time>2025-05-18T16:42:05Z</time>
      </trkpt>
      <trkpt lat="43.732581976801157" lon="7.384915016591549">
        <ele>269.31</ele>
        <time>2025-05-18T16:42:06Z</time>
      </trkpt>
      <trkpt lat="43.733367025852203" lon="7.386546973139048">
        <ele>261.62</ele>
        <time>2025-05-18T16:42:17Z</time>
      </trkpt>
      <trkpt lat="43.73348998837173" lon="7.386860959231854">
        <ele>260.64999999999998</ele>
        <time>2025-05-18T16:42:19Z</time>
      </trkpt>
      <trkpt lat="43.733503986150026" lon="7.387043014168739">
        <ele>260.17000000000002</ele>
        <time>2025-05-18T16:42:20Z</time>
      </trkpt>
      <trkpt lat="43.733503986150026" lon="7.387208975851536">
        <ele>259.69</ele>
        <time>2025-05-18T16:42:21Z</time>
      </trkpt>
      <trkpt lat="43.733503986150026" lon="7.387374015524983">
        <ele>258.73000000000002</ele>
        <time>2025-05-18T16:42:22Z</time>
      </trkpt>
      <trkpt lat="43.733475990593433" lon="7.387538971379399">
        <ele>258.25</ele>
        <time>2025-05-18T16:42:23Z</time>
      </trkpt>
      <trkpt lat="43.733438020572066" lon="7.387693030759692">
        <ele>257.76999999999998</ele>
        <time>2025-05-18T16:42:24Z</time>
      </trkpt>
      <trkpt lat="43.733397033065557" lon="7.387854969128966">
        <ele>257.29000000000002</ele>
        <time>2025-05-18T16:42:25Z</time>
      </trkpt>
      <trkpt lat="43.733343975618482" lon="7.387999976053834">
        <ele>256.81</ele>
        <time>2025-05-18T16:42:26Z</time>
      </trkpt>
      <trkpt lat="43.733288990333676" lon="7.388151017948985">
        <ele>256.32999999999998</ele>
        <time>2025-05-18T16:42:27Z</time>
      </trkpt>
      <trkpt lat="43.733234005048871" lon="7.388303987681866">
        <ele>255.84999999999999</ele>
        <time>2025-05-18T16:42:28Z</time>
      </trkpt>
      <trkpt lat="43.733201986178756" lon="7.388473972678185">
        <ele>255.37</ele>
        <time>2025-05-18T16:42:29Z</time>
      </trkpt>
      <trkpt lat="43.733172984793782" lon="7.388653010129929">
        <ele>254.88999999999999</ele>
        <time>2025-05-18T16:42:30Z</time>
      </trkpt>
      <trkpt lat="43.732984978705645" lon="7.38975296728313">
        <ele>249.59999999999999</ele>
        <time>2025-05-18T16:42:36Z</time>
      </trkpt>
      <trkpt lat="43.732912978157401" lon="7.389895962551236">
        <ele>248.63999999999999</ele>
        <time>2025-05-18T16:42:37Z</time>
      </trkpt>
      <trkpt lat="43.732840977609158" lon="7.390039041638374">
        <ele>247.68000000000001</ele>
        <time>2025-05-18T16:42:38Z</time>
      </trkpt>
      <trkpt lat="43.732747016474605" lon="7.390165021643043">
        <ele>247.19999999999999</ele>
        <time>2025-05-18T16:42:39Z</time>
      </trkpt>
      <trkpt lat="43.732636040076613" lon="7.390244984999299">
        <ele>246.22999999999999</ele>
        <time>2025-05-18T16:42:40Z</time>
      </trkpt>
      <trkpt lat="43.732524979859591" lon="7.390325032174587">
        <ele>245.75</ele>
        <time>2025-05-18T16:42:41Z</time>
      </trkpt>
      <trkpt lat="43.732403023168445" lon="7.390408013015986">
        <ele>245.27000000000001</ele>
        <time>2025-05-18T16:42:42Z</time>
      </trkpt>
      <trkpt lat="43.732280982658267" lon="7.390402983874083">
        <ele>244.78999999999999</ele>
        <time>2025-05-18T16:42:43Z</time>
      </trkpt>
      <trkpt lat="43.73215701431036" lon="7.390398038551211">
        <ele>244.31</ele>
        <time>2025-05-18T16:42:44Z</time>
      </trkpt>
      <trkpt lat="43.732036985456944" lon="7.390393009409308">
        <ele>242.87</ele>
        <time>2025-05-18T16:42:45Z</time>
      </trkpt>
      <trkpt lat="43.731894996017218" lon="7.390386974439025">
        <ele>241.43000000000001</ele>
        <time>2025-05-18T16:42:46Z</time>
      </trkpt>
      <trkpt lat="43.731794999912381" lon="7.390368031337857">
        <ele>239.99000000000001</ele>
        <time>2025-05-18T16:42:47Z</time>
      </trkpt>
      <trkpt lat="43.730870978906751" lon="7.390252025797963">
        <ele>233.25999999999999</ele>
        <time>2025-05-18T16:42:54Z</time>
      </trkpt>
      <trkpt lat="43.73073996976018" lon="7.390270968899131">
        <ele>232.30000000000001</ele>
        <time>2025-05-18T16:42:55Z</time>
      </trkpt>
      <trkpt lat="43.730473006144166" lon="7.39035596139729">
        <ele>230.84999999999999</ele>
        <time>2025-05-18T16:42:57Z</time>
      </trkpt>
      <trkpt lat="43.730216016992927" lon="7.390498034656048">
        <ele>229.41</ele>
        <time>2025-05-18T16:42:59Z</time>
      </trkpt>
      <trkpt lat="43.730090036988258" lon="7.390582021325827">
        <ele>228.93000000000001</ele>
        <time>2025-05-18T16:43:00Z</time>
      </trkpt>
      <trkpt lat="43.729718970134854" lon="7.390830041840673">
        <ele>226.53</ele>
        <time>2025-05-18T16:43:03Z</time>
      </trkpt>
      <trkpt lat="43.729583015665412" lon="7.390883015468717">
        <ele>225.56999999999999</ele>
        <time>2025-05-18T16:43:04Z</time>
      </trkpt>
      <trkpt lat="43.729441026225686" lon="7.39093498326838">
        <ele>224.61000000000001</ele>
        <time>2025-05-18T16:43:05Z</time>
      </trkpt>
      <trkpt lat="43.72930096462369" lon="7.390987034887075">
        <ele>223.63999999999999</ele>
        <time>2025-05-18T16:43:06Z</time>
      </trkpt>
      <trkpt lat="43.729154029861093" lon="7.39099801518023">
        <ele>222.68000000000001</ele>
        <time>2025-05-18T16:43:07Z</time>
      </trkpt>
      <trkpt lat="43.72900097630918" lon="7.391008995473385">
        <ele>222.19999999999999</ele>
        <time>2025-05-18T16:43:08Z</time>
      </trkpt>
      <trkpt lat="43.728845994919538" lon="7.390975970774889">
        <ele>221.24000000000001</ele>
        <time>2025-05-18T16:43:09Z</time>
      </trkpt>
      <trkpt lat="43.728694031015038" lon="7.390942024067044">
        <ele>220.28</ele>
        <time>2025-05-18T16:43:10Z</time>
      </trkpt>
      <trkpt lat="43.728553969413042" lon="7.390887960791588">
        <ele>219.80000000000001</ele>
        <time>2025-05-18T16:43:11Z</time>
      </trkpt>
      <trkpt lat="43.728422038257122" lon="7.39080497995019">
        <ele>218.84</ele>
        <time>2025-05-18T16:43:12Z</time>
      </trkpt>
      <trkpt lat="43.72826898470521" lon="7.390709007158876">
        <ele>217.88</ele>
        <time>2025-05-18T16:43:13Z</time>
      </trkpt>
      <trkpt lat="43.72816395945847" lon="7.390624014660716">
        <ele>217.40000000000001</ele>
        <time>2025-05-18T16:43:14Z</time>
      </trkpt>
      <trkpt lat="43.727003987878561" lon="7.389333033934236">
        <ele>212.59</ele>
        <time>2025-05-18T16:43:24Z</time>
      </trkpt>
      <trkpt lat="43.726902985945344" lon="7.389186015352607">
        <ele>212.11000000000001</ele>
        <time>2025-05-18T16:43:25Z</time>
      </trkpt>
      <trkpt lat="43.726784968748689" lon="7.389062969014049">
        <ele>211.15000000000001</ele>
        <time>2025-05-18T16:43:26Z</time>
      </trkpt>
      <trkpt lat="43.726681033149362" lon="7.388971019536257">
        <ele>210.66999999999999</ele>
        <time>2025-05-18T16:43:27Z</time>
      </trkpt>
      <trkpt lat="43.726525967940688" lon="7.388906981796026">
        <ele>209.69999999999999</ele>
        <time>2025-05-18T16:43:28Z</time>
      </trkpt>
      <trkpt lat="43.726389007642865" lon="7.38885099068284">
        <ele>209.22</ele>
        <time>2025-05-18T16:43:29Z</time>
      </trkpt>
      <trkpt lat="43.726245006546378" lon="7.388825006783009">
        <ele>208.25999999999999</ele>
        <time>2025-05-18T16:43:30Z</time>
      </trkpt>
      <trkpt lat="43.726097987964749" lon="7.388834981247783">
        <ele>207.30000000000001</ele>
        <time>2025-05-18T16:43:31Z</time>
      </trkpt>
      <trkpt lat="43.725952981039882" lon="7.388863982632756">
        <ele>206.34</ele>
        <time>2025-05-18T16:43:32Z</time>
      </trkpt>
      <trkpt lat="43.725823983550072" lon="7.388931959867477">
        <ele>205.86000000000001</ele>
        <time>2025-05-18T16:43:33Z</time>
      </trkpt>
      <trkpt lat="43.725702026858926" lon="7.388998009264469">
        <ele>204.90000000000001</ele>
        <time>2025-05-18T16:43:34Z</time>
      </trkpt>
      <trkpt lat="43.725586021319032" lon="7.389089958742261">
        <ele>203.94</ele>
        <time>2025-05-18T16:43:35Z</time>
      </trkpt>
      <trkpt lat="43.725479990243912" lon="7.389210993424058">
        <ele>202.97999999999999</ele>
        <time>2025-05-18T16:43:36Z</time>
      </trkpt>
      <trkpt lat="43.725412013009191" lon="7.389367986470461">
        <ele>202.49000000000001</ele>
        <time>2025-05-18T16:43:37Z</time>
      </trkpt>
      <trkpt lat="43.725343029946089" lon="7.389534031972289">
        <ele>201.53</ele>
        <time>2025-05-18T16:43:38Z</time>
      </trkpt>
      <trkpt lat="43.725292989984155" lon="7.389719020575285">
        <ele>200.56999999999999</ele>
        <time>2025-05-18T16:43:39Z</time>
      </trkpt>
      <trkpt lat="43.725242028012872" lon="7.389905015006661">
        <ele>199.13</ele>
        <time>2025-05-18T16:43:40Z</time>
      </trkpt>
      <trkpt lat="43.725088974460959" lon="7.390466015785933">
        <ele>195.77000000000001</ele>
        <time>2025-05-18T16:43:43Z</time>
      </trkpt>
      <trkpt lat="43.725041029974818" lon="7.390651004388928">
        <ele>194.80000000000001</ele>
        <time>2025-05-18T16:43:44Z</time>
      </trkpt>
      <trkpt lat="43.724601985886693" lon="7.392611028626561">
        <ele>185.66999999999999</ele>
        <time>2025-05-18T16:43:56Z</time>
      </trkpt>
      <trkpt lat="43.724609026685357" lon="7.3927609808743">
        <ele>185.19</ele>
        <time>2025-05-18T16:43:57Z</time>
      </trkpt>
      <trkpt lat="43.724617995321751" lon="7.392877992242575">
        <ele>184.71000000000001</ele>
        <time>2025-05-18T16:43:58Z</time>
      </trkpt>
      <trkpt lat="43.724693013355136" lon="7.393404962494969">
        <ele>180.87</ele>
        <time>2025-05-18T16:44:06Z</time>
      </trkpt>
      <trkpt lat="43.724756967276335" lon="7.393673015758395">
        <ele>179.41999999999999</ele>
        <time>2025-05-18T16:44:10Z</time>
      </trkpt>
      <trkpt lat="43.724804995581508" lon="7.393867978826165">
        <ele>178.94</ele>
        <time>2025-05-18T16:44:13Z</time>
      </trkpt>
      <trkpt lat="43.724860986694694" lon="7.394004017114639">
        <ele>178.46000000000001</ele>
        <time>2025-05-18T16:44:15Z</time>
      </trkpt>
      <trkpt lat="43.724961988627911" lon="7.394217001274228">
        <ele>177.5</ele>
        <time>2025-05-18T16:44:18Z</time>
      </trkpt>
      <trkpt lat="43.724997024983168" lon="7.394290007650852">
        <ele>177.02000000000001</ele>
        <time>2025-05-18T16:44:19Z</time>
      </trkpt>
      <trkpt lat="43.725356021896005" lon="7.394874980673194">
        <ele>176.53999999999999</ele>
        <time>2025-05-18T16:44:29Z</time>
      </trkpt>
      <trkpt lat="43.725620973855257" lon="7.395331040024757">
        <ele>174.62</ele>
        <time>2025-05-18T16:44:37Z</time>
      </trkpt>
      <trkpt lat="43.725679982453585" lon="7.395435981452465">
        <ele>174.62</ele>
        <time>2025-05-18T16:44:39Z</time>
      </trkpt>
      <trkpt lat="43.725844016298652" lon="7.395730018615723">
        <ele>174.13999999999999</ele>
        <time>2025-05-18T16:44:49Z</time>
      </trkpt>
      <trkpt lat="43.725850973278284" lon="7.395752985030413">
        <ele>174.13999999999999</ele>
        <time>2025-05-18T16:44:59Z</time>
      </trkpt>
      <trkpt lat="43.725924985483289" lon="7.395999999716878">
        <ele>176.06</ele>
        <time>2025-05-18T16:45:19Z</time>
      </trkpt>
      <trkpt lat="43.726066974923015" lon="7.396729979664087">
        <ele>174.13999999999999</ele>
        <time>2025-05-18T16:45:30Z</time>
      </trkpt>
      <trkpt lat="43.726074015721679" lon="7.39692997187376">
        <ele>173.66</ele>
        <time>2025-05-18T16:45:32Z</time>
      </trkpt>
      <trkpt lat="43.726068986579776" lon="7.397027034312487">
        <ele>173.16999999999999</ele>
        <time>2025-05-18T16:45:33Z</time>
      </trkpt>
      <trkpt lat="43.725921967998147" lon="7.398068988695741">
        <ele>170.28999999999999</ele>
        <time>2025-05-18T16:45:43Z</time>
      </trkpt>
      <trkpt lat="43.725805962458253" lon="7.398782959207892">
        <ele>166.93000000000001</ele>
        <time>2025-05-18T16:45:50Z</time>
      </trkpt>
      <trkpt lat="43.725792970508337" lon="7.398864012211561">
        <ele>166.44999999999999</ele>
        <time>2025-05-18T16:45:51Z</time>
      </trkpt>
      <trkpt lat="43.725718036293983" lon="7.399228038266301">
        <ele>163.08000000000001</ele>
        <time>2025-05-18T16:45:58Z</time>
      </trkpt>
      <trkpt lat="43.725718036293983" lon="7.399228038266301">
        <ele>162.12</ele>
        <time>2025-05-18T16:46:10Z</time>
      </trkpt>
      <trkpt lat="43.725707978010178" lon="7.399260979145765">
        <ele>161.63999999999999</ele>
        <time>2025-05-18T16:46:15Z</time>
      </trkpt>
      <trkpt lat="43.725700015202165" lon="7.399292998015881">
        <ele>161.16</ele>
        <time>2025-05-18T16:46:16Z</time>
      </trkpt>
      <trkpt lat="43.725536987185478" lon="7.399890962988138">
        <ele>160.68000000000001</ele>
        <time>2025-05-18T16:46:24Z</time>
      </trkpt>
      <trkpt lat="43.725203974172473" lon="7.400943981483579">
        <ele>155.87</ele>
        <time>2025-05-18T16:46:32Z</time>
      </trkpt>
      <trkpt lat="43.725144965574145" lon="7.401085970923305">
        <ele>155.38999999999999</ele>
        <time>2025-05-18T16:46:33Z</time>
      </trkpt>
      <trkpt lat="43.72506701387465" lon="7.401228966191411">
        <ele>154.43000000000001</ele>
        <time>2025-05-18T16:46:34Z</time>
      </trkpt>
      <trkpt lat="43.724984033033252" lon="7.40135402418673">
        <ele>153.94999999999999</ele>
        <time>2025-05-18T16:46:35Z</time>
      </trkpt>
      <trkpt lat="43.724897028878331" lon="7.401485033333302">
        <ele>152.99000000000001</ele>
        <time>2025-05-18T16:46:36Z</time>
      </trkpt>
      <trkpt lat="43.724569967016578" lon="7.401969004422426">
        <ele>150.58000000000001</ele>
        <time>2025-05-18T16:46:40Z</time>
      </trkpt>
      <trkpt lat="43.724509030580521" lon="7.402090961113572">
        <ele>149.62</ele>
        <time>2025-05-18T16:46:41Z</time>
      </trkpt>
      <trkpt lat="43.724473994225264" lon="7.402221970260143">
        <ele>149.13999999999999</ele>
        <time>2025-05-18T16:46:42Z</time>
      </trkpt>
      <trkpt lat="43.724448010325432" lon="7.402358008548617">
        <ele>148.66</ele>
        <time>2025-05-18T16:46:43Z</time>
      </trkpt>
      <trkpt lat="43.724425965920091" lon="7.40249496884644">
        <ele>147.69999999999999</ele>
        <time>2025-05-18T16:46:44Z</time>
      </trkpt>
      <trkpt lat="43.724416997283697" lon="7.402640981599689">
        <ele>146.74000000000001</ele>
        <time>2025-05-18T16:46:45Z</time>
      </trkpt>
      <trkpt lat="43.724409034475684" lon="7.402789006009698">
        <ele>145.78</ele>
        <time>2025-05-18T16:46:46Z</time>
      </trkpt>
      <trkpt lat="43.724399982020259" lon="7.402937030419707">
        <ele>145.30000000000001</ele>
        <time>2025-05-18T16:46:47Z</time>
      </trkpt>
      <trkpt lat="43.724381038919091" lon="7.403239030390978">
        <ele>143.37</ele>
        <time>2025-05-18T16:46:49Z</time>
      </trkpt>
      <trkpt lat="43.724371986463666" lon="7.403393005952239">
        <ele>142.41</ele>
        <time>2025-05-18T16:46:50Z</time>
      </trkpt>
      <trkpt lat="43.724362011998892" lon="7.40354597568512">
        <ele>140.97</ele>
        <time>2025-05-18T16:46:51Z</time>
      </trkpt>
      <trkpt lat="43.724324963986874" lon="7.403683019801974">
        <ele>140.00999999999999</ele>
        <time>2025-05-18T16:46:52Z</time>
      </trkpt>
      <trkpt lat="43.724289005622268" lon="7.403819980099797">
        <ele>139.05000000000001</ele>
        <time>2025-05-18T16:46:53Z</time>
      </trkpt>
      <trkpt lat="43.724211975932121" lon="7.404108988121152">
        <ele>137.61000000000001</ele>
        <time>2025-05-18T16:46:55Z</time>
      </trkpt>
      <trkpt lat="43.724087001755834" lon="7.405147003009915">
        <ele>130.40000000000001</ele>
        <time>2025-05-18T16:47:02Z</time>
      </trkpt>
      <trkpt lat="43.724110973998904" lon="7.405300978571177">
        <ele>129.43000000000001</ele>
        <time>2025-05-18T16:47:03Z</time>
      </trkpt>
      <trkpt lat="43.724149027839303" lon="7.405439028516412">
        <ele>128.47</ele>
        <time>2025-05-18T16:47:04Z</time>
      </trkpt>
      <trkpt lat="43.724188003689051" lon="7.405574982985854">
        <ele>127.51000000000001</ele>
        <time>2025-05-18T16:47:05Z</time>
      </trkpt>
      <trkpt lat="43.724238965660334" lon="7.405709009617567">
        <ele>126.55</ele>
        <time>2025-05-18T16:47:06Z</time>
      </trkpt>
      <trkpt lat="43.724308032542467" lon="7.405819986015558">
        <ele>125.59</ele>
        <time>2025-05-18T16:47:07Z</time>
      </trkpt>
      <trkpt lat="43.724591005593538" lon="7.406269004568458">
        <ele>122.70999999999999</ele>
        <time>2025-05-18T16:47:11Z</time>
      </trkpt>
      <trkpt lat="43.724660994485021" lon="7.406365983188152">
        <ele>122.22</ele>
        <time>2025-05-18T16:47:12Z</time>
      </trkpt>
      <trkpt lat="43.724846988916397" lon="7.406505960971117">
        <ele>120.78</ele>
        <time>2025-05-18T16:47:14Z</time>
      </trkpt>
      <trkpt lat="43.724940028041601" lon="7.406564969569445">
        <ele>119.81999999999999</ele>
        <time>2025-05-18T16:47:15Z</time>
      </trkpt>
      <trkpt lat="43.725039018318057" lon="7.406612997874618">
        <ele>118.86</ele>
        <time>2025-05-18T16:47:16Z</time>
      </trkpt>
      <trkpt lat="43.725975025445223" lon="7.407019017264247">
        <ele>113.09</ele>
        <time>2025-05-18T16:47:25Z</time>
      </trkpt>
      <trkpt lat="43.726705005392432" lon="7.407240970060229">
        <ele>108.77</ele>
        <time>2025-05-18T16:47:32Z</time>
      </trkpt>
      <trkpt lat="43.727110018953681" lon="7.407334009185433">
        <ele>106.84</ele>
        <time>2025-05-18T16:47:36Z</time>
      </trkpt>
      <trkpt lat="43.727200962603092" lon="7.407350018620491">
        <ele>106.84</ele>
        <time>2025-05-18T16:47:37Z</time>
      </trkpt>
      <trkpt lat="43.727289978414774" lon="7.407365022227168">
        <ele>106.84</ele>
        <time>2025-05-18T16:47:38Z</time>
      </trkpt>
      <trkpt lat="43.72738896869123" lon="7.407382037490606">
        <ele>106.84</ele>
        <time>2025-05-18T16:47:39Z</time>
      </trkpt>
      <trkpt lat="43.727473961189389" lon="7.407439034432173">
        <ele>106.84</ele>
        <time>2025-05-18T16:47:40Z</time>
      </trkpt>
      <trkpt lat="43.727559959515929" lon="7.407498965039849">
        <ele>106.84</ele>
        <time>2025-05-18T16:47:41Z</time>
      </trkpt>
      <trkpt lat="43.72764403000474" lon="7.407557973638177">
        <ele>107.31999999999999</ele>
        <time>2025-05-18T16:47:42Z</time>
      </trkpt>
      <trkpt lat="43.727787025272846" lon="7.40771496668458">
        <ele>108.77</ele>
        <time>2025-05-18T16:47:44Z</time>
      </trkpt>
      <trkpt lat="43.727857014164329" lon="7.407785961404443">
        <ele>109.25</ele>
        <time>2025-05-18T16:47:45Z</time>
      </trkpt>
      <trkpt lat="43.72792499139905" lon="7.407854022458196">
        <ele>110.69</ele>
        <time>2025-05-18T16:47:46Z</time>
      </trkpt>
      <trkpt lat="43.728038985282183" lon="7.407968016341329">
        <ele>111.65000000000001</ele>
        <time>2025-05-18T16:47:48Z</time>
      </trkpt>
      <trkpt lat="43.728280970826745" lon="7.40820899605751">
        <ele>115.98</ele>
        <time>2025-05-18T16:47:55Z</time>
      </trkpt>
      <trkpt lat="43.72829002328217" lon="7.408217964693904">
        <ele>116.45999999999999</ele>
        <time>2025-05-18T16:47:56Z</time>
      </trkpt>
      <trkpt lat="43.728315001353621" lon="7.408227017149329">
        <ele>116.94</ele>
        <time>2025-05-18T16:47:57Z</time>
      </trkpt>
      <trkpt lat="43.728348026052117" lon="7.408239003270865">
        <ele>116.94</ele>
        <time>2025-05-18T16:47:58Z</time>
      </trkpt>
      <trkpt lat="43.728385996073484" lon="7.408253001049161">
        <ele>117.42</ele>
        <time>2025-05-18T16:47:59Z</time>
      </trkpt>
      <trkpt lat="43.728792015463114" lon="7.408346962183714">
        <ele>121.26000000000001</ele>
        <time>2025-05-18T16:48:07Z</time>
      </trkpt>
      <trkpt lat="43.728868961334229" lon="7.408496998250485">
        <ele>121.73999999999999</ele>
        <time>2025-05-18T16:48:08Z</time>
      </trkpt>
      <trkpt lat="43.728954959660769" lon="7.408496998250485">
        <ele>122.22</ele>
        <time>2025-05-18T16:48:09Z</time>
      </trkpt>
      <trkpt lat="43.728974992409348" lon="7.408517030999064">
        <ele>122.22</ele>
        <time>2025-05-18T16:48:10Z</time>
      </trkpt>
      <trkpt lat="43.729023020714521" lon="7.408562963828445">
        <ele>122.70999999999999</ele>
        <time>2025-05-18T16:48:11Z</time>
      </trkpt>
      <trkpt lat="43.729090997949243" lon="7.408588025718927">
        <ele>122.70999999999999</ele>
        <time>2025-05-18T16:48:12Z</time>
      </trkpt>
      <trkpt lat="43.729299958795309" lon="7.408663965761662">
        <ele>124.15000000000001</ele>
        <time>2025-05-18T16:48:15Z</time>
      </trkpt>
      <trkpt lat="43.729371037334204" lon="7.408689027652144">
        <ele>124.63</ele>
        <time>2025-05-18T16:48:16Z</time>
      </trkpt>
      <trkpt lat="43.730001021176577" lon="7.409082977101207">
        <ele>129.91999999999999</ele>
        <time>2025-05-18T16:48:24Z</time>
      </trkpt>
      <trkpt lat="43.730305032804608" lon="7.409336026757956">
        <ele>131.84</ele>
        <time>2025-05-18T16:48:28Z</time>
      </trkpt>
      <trkpt lat="43.730556992813945" lon="7.409549010917544">
        <ele>133.28</ele>
        <time>2025-05-18T16:48:31Z</time>
      </trkpt>
      <trkpt lat="43.730633016675711" lon="7.409628974273801">
        <ele>133.28</ele>
        <time>2025-05-18T16:48:32Z</time>
      </trkpt>
      <trkpt lat="43.730813981965184" lon="7.409894010052085">
        <ele>134.72</ele>
        <time>2025-05-18T16:48:35Z</time>
      </trkpt>
      <trkpt lat="43.730875002220273" lon="7.409983025863767">
        <ele>134.72</ele>
        <time>2025-05-18T16:48:36Z</time>
      </trkpt>
      <trkpt lat="43.730919007211924" lon="7.410086039453745">
        <ele>135.19999999999999</ele>
        <time>2025-05-18T16:48:37Z</time>
      </trkpt>
      <trkpt lat="43.730996958911419" lon="7.410288965329528">
        <ele>135.19999999999999</ele>
        <time>2025-05-18T16:48:39Z</time>
      </trkpt>
      <trkpt lat="43.731031995266676" lon="7.410382004454732">
        <ele>135.19999999999999</ele>
        <time>2025-05-18T16:48:40Z</time>
      </trkpt>
      <trkpt lat="43.731071976944804" lon="7.41059398278594">
        <ele>135.19999999999999</ele>
        <time>2025-05-18T16:48:42Z</time>
      </trkpt>
      <trkpt lat="43.731103995814919" lon="7.410938981920481">
        <ele>135.68000000000001</ele>
        <time>2025-05-18T16:48:45Z</time>
      </trkpt>
      <trkpt lat="43.731114976108074" lon="7.411062028259039">
        <ele>135.19999999999999</ele>
        <time>2025-05-18T16:48:46Z</time>
      </trkpt>
      <trkpt lat="43.731203991919756" lon="7.411401998251677">
        <ele>134.72</ele>
        <time>2025-05-18T16:48:49Z</time>
      </trkpt>
      <trkpt lat="43.731229975819588" lon="7.411995017901063">
        <ele>135.19999999999999</ele>
        <time>2025-05-18T16:48:53Z</time>
      </trkpt>
      <trkpt lat="43.731216983869672" lon="7.412126027047634">
        <ele>135.68000000000001</ele>
        <time>2025-05-18T16:48:55Z</time>
      </trkpt>
      <trkpt lat="43.731194017454982" lon="7.412367006763816">
        <ele>136.63999999999999</ele>
        <time>2025-05-18T16:48:57Z</time>
      </trkpt>
      <trkpt lat="43.731182031333447" lon="7.412486029788852">
        <ele>137.13</ele>
        <time>2025-05-18T16:48:58Z</time>
      </trkpt>
      <trkpt lat="43.731143977493048" lon="7.413004031404853">
        <ele>139.05000000000001</ele>
        <time>2025-05-18T16:49:03Z</time>
      </trkpt>
      <trkpt lat="43.731194017454982" lon="7.413153983652592">
        <ele>139.05000000000001</ele>
        <time>2025-05-18T16:49:04Z</time>
      </trkpt>
      <trkpt lat="43.731230981647968" lon="7.413264038041234">
        <ele>138.56999999999999</ele>
        <time>2025-05-18T16:49:05Z</time>
      </trkpt>
      <trkpt lat="43.731272974982858" lon="7.413390018045902">
        <ele>138.09</ele>
        <time>2025-05-18T16:49:06Z</time>
      </trkpt>
      <trkpt lat="43.731323014944792" lon="7.413448020815849">
        <ele>137.13</ele>
        <time>2025-05-18T16:49:07Z</time>
      </trkpt>
      <trkpt lat="43.731385041028261" lon="7.413520021364093">
        <ele>136.63999999999999</ele>
        <time>2025-05-18T16:49:08Z</time>
      </trkpt>
      <trkpt lat="43.731400966644287" lon="7.413539970293641">
        <ele>136.16</ele>
        <time>2025-05-18T16:49:09Z</time>
      </trkpt>
      <trkpt lat="43.731480007991195" lon="7.413555979728699">
        <ele>135.19999999999999</ele>
        <time>2025-05-18T16:49:10Z</time>
      </trkpt>
      <trkpt lat="43.731509009376168" lon="7.413561008870602">
        <ele>134.72</ele>
        <time>2025-05-18T16:49:11Z</time>
      </trkpt>
      <trkpt lat="43.731552008539438" lon="7.413711966946721">
        <ele>134.72</ele>
        <time>2025-05-18T16:49:12Z</time>
      </trkpt>
      <trkpt lat="43.731604982167482" lon="7.413734011352062">
        <ele>134.24000000000001</ele>
        <time>2025-05-18T16:49:13Z</time>
      </trkpt>
      <trkpt lat="43.731664996594191" lon="7.413759995251894">
        <ele>133.75999999999999</ele>
        <time>2025-05-18T16:49:14Z</time>
      </trkpt>
      <trkpt lat="43.731744037941098" lon="7.413730993866921">
        <ele>133.75999999999999</ele>
        <time>2025-05-18T16:49:15Z</time>
      </trkpt>
      <trkpt lat="43.731799023225904" lon="7.413490014150739">
        <ele>133.28</ele>
        <time>2025-05-18T16:49:16Z</time>
      </trkpt>
      <trkpt lat="43.731871023774147" lon="7.413483979180455">
        <ele>133.28</ele>
        <time>2025-05-18T16:49:17Z</time>
      </trkpt>
      <trkpt lat="43.732022987678647" lon="7.413480039685965">
        <ele>132.80000000000001</ele>
        <time>2025-05-18T16:49:19Z</time>
      </trkpt>
      <trkpt lat="43.732104040682316" lon="7.413486996665597">
        <ele>132.31999999999999</ele>
        <time>2025-05-18T16:49:20Z</time>
      </trkpt>
      <trkpt lat="43.732367986813188" lon="7.413511974737048">
        <ele>130.40000000000001</ele>
        <time>2025-05-18T16:49:23Z</time>
      </trkpt>
      <trkpt lat="43.732467982918024" lon="7.413521027192473">
        <ele>129.91999999999999</ele>
        <time>2025-05-18T16:49:24Z</time>
      </trkpt>
      <trkpt lat="43.732969975098968" lon="7.413575006648898">
        <ele>124.63</ele>
        <time>2025-05-18T16:49:29Z</time>
      </trkpt>
      <trkpt lat="43.733257977291942" lon="7.413596967235208">
        <ele>118.86</ele>
        <time>2025-05-18T16:49:33Z</time>
      </trkpt>
      <trkpt lat="43.733332995325327" lon="7.413690006360412">
        <ele>117.90000000000001</ele>
        <time>2025-05-18T16:49:34Z</time>
      </trkpt>
      <trkpt lat="43.733456963673234" lon="7.413810035213828">
        <ele>116.45999999999999</ele>
        <time>2025-05-18T16:49:36Z</time>
      </trkpt>
      <trkpt lat="43.734007989987731" lon="7.414692984893918">
        <ele>110.20999999999999</ele>
        <time>2025-05-18T16:49:45Z</time>
      </trkpt>
      <trkpt lat="43.734086025506258" lon="7.414787029847503">
        <ele>109.73</ele>
        <time>2025-05-18T16:49:46Z</time>
      </trkpt>
      <trkpt lat="43.734416021034122" lon="7.415085006505251">
        <ele>105.88</ele>
        <time>2025-05-18T16:49:50Z</time>
      </trkpt>
      <trkpt lat="43.734506964683533" lon="7.41514703258872">
        <ele>104.92</ele>
        <time>2025-05-18T16:49:51Z</time>
      </trkpt>
      <trkpt lat="43.734596986323595" lon="7.415208974853158">
        <ele>104.44</ele>
        <time>2025-05-18T16:49:52Z</time>
      </trkpt>
      <trkpt lat="43.735137032344937" lon="7.415623040869832">
        <ele>98.670000000000002</ele>
        <time>2025-05-18T16:49:58Z</time>
      </trkpt>
      <trkpt lat="43.73544498346746" lon="7.415994023904204">
        <ele>95.310000000000002</ele>
        <time>2025-05-18T16:50:02Z</time>
      </trkpt>
      <trkpt lat="43.735542967915535" lon="7.41613601334393">
        <ele>94.349999999999994</ele>
        <time>2025-05-18T16:50:03Z</time>
      </trkpt>
      <trkpt lat="43.735604993999004" lon="7.41617800667882">
        <ele>92.900000000000006</ele>
        <time>2025-05-18T16:50:04Z</time>
      </trkpt>
      <trkpt lat="43.735785959288478" lon="7.416245983913541">
        <ele>90.980000000000004</ele>
        <time>2025-05-18T16:50:06Z</time>
      </trkpt>
      <trkpt lat="43.735887967050076" lon="7.416267022490501">
        <ele>90.5</ele>
        <time>2025-05-18T16:50:07Z</time>
      </trkpt>
      <trkpt lat="43.735987041145563" lon="7.41628697142005">
        <ele>89.540000000000006</ele>
        <time>2025-05-18T16:50:08Z</time>
      </trkpt>
      <trkpt lat="43.7360870372504" lon="7.41630800999701">
        <ele>89.060000000000002</ele>
        <time>2025-05-18T16:50:09Z</time>
      </trkpt>
      <trkpt lat="43.736293986439705" lon="7.41635100916028">
        <ele>88.579999999999998</ele>
        <time>2025-05-18T16:50:10Z</time>
      </trkpt>
      <trkpt lat="43.736293986439705" lon="7.41635100916028">
        <ele>87.620000000000005</ele>
        <time>2025-05-18T16:50:11Z</time>
      </trkpt>
      <trkpt lat="43.736464977264404" lon="7.41635100916028">
        <ele>86.659999999999997</ele>
        <time>2025-05-18T16:50:12Z</time>
      </trkpt>
      <trkpt lat="43.736464977264404" lon="7.41635100916028">
        <ele>85.689999999999998</ele>
        <time>2025-05-18T16:50:13Z</time>
      </trkpt>
      <trkpt lat="43.736574025824666" lon="7.416386967524886">
        <ele>85.209999999999994</ele>
        <time>2025-05-18T16:50:14Z</time>
      </trkpt>
      <trkpt lat="43.736666981130838" lon="7.416417980566621">
        <ele>84.25</ele>
        <time>2025-05-18T16:50:15Z</time>
      </trkpt>
      <trkpt lat="43.736762031912804" lon="7.416449999436736">
        <ele>83.769999999999996</ele>
        <time>2025-05-18T16:50:16Z</time>
      </trkpt>
      <trkpt lat="43.736851969733834" lon="7.41648000665009">
        <ele>83.290000000000006</ele>
        <time>2025-05-18T16:50:17Z</time>
      </trkpt>
      <trkpt lat="43.736909972503781" lon="7.416567010805011">
        <ele>83.290000000000006</ele>
        <time>2025-05-18T16:50:18Z</time>
      </trkpt>
      <trkpt lat="43.736977027729154" lon="7.416667006909847">
        <ele>83.290000000000006</ele>
        <time>2025-05-18T16:50:19Z</time>
      </trkpt>
      <trkpt lat="43.737042993307114" lon="7.416767003014684">
        <ele>83.290000000000006</ele>
        <time>2025-05-18T16:50:20Z</time>
      </trkpt>
      <trkpt lat="43.737102001905441" lon="7.416854007169604">
        <ele>83.290000000000006</ele>
        <time>2025-05-18T16:50:21Z</time>
      </trkpt>
      <trkpt lat="43.737152041867375" lon="7.417017035186291">
        <ele>82.810000000000002</ele>
        <time>2025-05-18T16:50:23Z</time>
      </trkpt>
      <trkpt lat="43.737170984968543" lon="7.417083000764251">
        <ele>82.810000000000002</ele>
        <time>2025-05-18T16:50:24Z</time>
      </trkpt>
      <trkpt lat="43.737195041030645" lon="7.417165981605649">
        <ele>82.329999999999998</ele>
        <time>2025-05-18T16:50:25Z</time>
      </trkpt>
      <trkpt lat="43.737180959433317" lon="7.41723001934588">
        <ele>81.849999999999994</ele>
        <time>2025-05-18T16:50:26Z</time>
      </trkpt>
      <trkpt lat="43.737152041867375" lon="7.41735901683569">
        <ele>81.370000000000005</ele>
        <time>2025-05-18T16:50:27Z</time>
      </trkpt>
      <trkpt lat="43.737158998847008" lon="7.417417019605637">
        <ele>80.890000000000001</ele>
        <time>2025-05-18T16:50:28Z</time>
      </trkpt>
      <trkpt lat="43.737171990796924" lon="7.417515004053712">
        <ele>80.409999999999997</ele>
        <time>2025-05-18T16:50:29Z</time>
      </trkpt>
      <trkpt lat="43.73718498274684" lon="7.417619023472071">
        <ele>80.409999999999997</ele>
        <time>2025-05-18T16:50:30Z</time>
      </trkpt>
      <trkpt lat="43.737201998010278" lon="7.417714996263385">
        <ele>80.409999999999997</ele>
        <time>2025-05-18T16:50:31Z</time>
      </trkpt>
      <trkpt lat="43.737244997173548" lon="7.41778900846839">
        <ele>80.409999999999997</ele>
        <time>2025-05-18T16:50:32Z</time>
      </trkpt>
      <trkpt lat="43.737281039357185" lon="7.417852962389588">
        <ele>80.409999999999997</ele>
        <time>2025-05-18T16:50:33Z</time>
      </trkpt>
      <trkpt lat="43.737351028248668" lon="7.417917000129819">
        <ele>80.890000000000001</ele>
        <time>2025-05-18T16:50:34Z</time>
      </trkpt>
      <trkpt lat="43.737406013533473" lon="7.417968967929483">
        <ele>80.409999999999997</ele>
        <time>2025-05-18T16:50:35Z</time>
      </trkpt>
      <trkpt lat="43.737579016014934" lon="7.41817600093782">
        <ele>80.409999999999997</ele>
        <time>2025-05-18T16:50:38Z</time>
      </trkpt>
      <trkpt lat="43.737602988258004" lon="7.418260993435979">
        <ele>80.409999999999997</ele>
        <time>2025-05-18T16:50:39Z</time>
      </trkpt>
      <trkpt lat="43.737602988258004" lon="7.418260993435979">
        <ele>79.930000000000007</ele>
        <time>2025-05-18T16:50:40Z</time>
      </trkpt>
      <trkpt lat="43.737581027671695" lon="7.418411029502749">
        <ele>79.930000000000007</ele>
        <time>2025-05-18T16:50:41Z</time>
      </trkpt>
      <trkpt lat="43.737537022680044" lon="7.418528040871024">
        <ele>79.450000000000003</ele>
        <time>2025-05-18T16:50:42Z</time>
      </trkpt>
      <trkpt lat="43.737516989931464" lon="7.418583026155829">
        <ele>79.450000000000003</ele>
        <time>2025-05-18T16:50:43Z</time>
      </trkpt>
      <trkpt lat="43.73744297772646" lon="7.418694002553821">
        <ele>79.450000000000003</ele>
        <time>2025-05-18T16:50:44Z</time>
      </trkpt>
      <trkpt lat="43.737238040193915" lon="7.419012011960149">
        <ele>77.519999999999996</ele>
        <time>2025-05-18T16:50:49Z</time>
      </trkpt>
      <trkpt lat="43.737131003290415" lon="7.419140003621578">
        <ele>77.040000000000006</ele>
        <time>2025-05-18T16:50:50Z</time>
      </trkpt>
      <trkpt lat="43.737131003290415" lon="7.419140003621578">
        <ele>77.040000000000006</ele>
        <time>2025-05-18T16:50:51Z</time>
      </trkpt>
      <trkpt lat="43.737108958885074" lon="7.419194988906384">
        <ele>76.560000000000002</ele>
        <time>2025-05-18T16:50:52Z</time>
      </trkpt>
      <trkpt lat="43.737088004127145" lon="7.419247962534428">
        <ele>76.560000000000002</ele>
        <time>2025-05-18T16:50:53Z</time>
      </trkpt>
      <trkpt lat="43.73705598525703" lon="7.419344019144774">
        <ele>76.560000000000002</ele>
        <time>2025-05-18T16:50:54Z</time>
      </trkpt>
      <trkpt lat="43.737051961943507" lon="7.419446026906371">
        <ele>76.560000000000002</ele>
        <time>2025-05-18T16:50:55Z</time>
      </trkpt>
      <trkpt lat="43.737061014398932" lon="7.419538982212544">
        <ele>76.079999999999998</ele>
        <time>2025-05-18T16:50:56Z</time>
      </trkpt>
      <trkpt lat="43.737086998298764" lon="7.419623974710703">
        <ele>76.079999999999998</ele>
        <time>2025-05-18T16:50:57Z</time>
      </trkpt>
      <trkpt lat="43.737132009118795" lon="7.419696981087327">
        <ele>76.079999999999998</ele>
        <time>2025-05-18T16:50:58Z</time>
      </trkpt>
      <trkpt lat="43.737176014110446" lon="7.419766969978809">
        <ele>75.599999999999994</ele>
        <time>2025-05-18T16:50:59Z</time>
      </trkpt>
      <trkpt lat="43.737219013273716" lon="7.419836036860943">
        <ele>75.599999999999994</ele>
        <time>2025-05-18T16:51:00Z</time>
      </trkpt>
      <trkpt lat="43.737261006608605" lon="7.419902002438903">
        <ele>75.120000000000005</ele>
        <time>2025-05-18T16:51:01Z</time>
      </trkpt>
      <trkpt lat="43.737306017428637" lon="7.419943995773792">
        <ele>74.640000000000001</ele>
        <time>2025-05-18T16:51:02Z</time>
      </trkpt>
      <trkpt lat="43.737361002713442" lon="7.419966040179133">
        <ele>74.159999999999997</ele>
        <time>2025-05-18T16:51:03Z</time>
      </trkpt>
      <trkpt lat="43.737410036846995" lon="7.419957993552089">
        <ele>73.680000000000007</ele>
        <time>2025-05-18T16:51:04Z</time>
      </trkpt>
      <trkpt lat="43.73746401630342" lon="7.419912982732058">
        <ele>73.200000000000003</ele>
        <time>2025-05-18T16:51:05Z</time>
      </trkpt>
      <trkpt lat="43.737538028508425" lon="7.419849028810859">
        <ele>72.719999999999999</ele>
        <time>2025-05-18T16:51:06Z</time>
      </trkpt>
      <trkpt lat="43.737563006579876" lon="7.419802006334066">
        <ele>72.239999999999995</ele>
        <time>2025-05-18T16:51:07Z</time>
      </trkpt>
      <trkpt lat="43.737597959116101" lon="7.419737968593836">
        <ele>72.239999999999995</ele>
        <time>2025-05-18T16:51:08Z</time>
      </trkpt>
      <trkpt lat="43.737632995471358" lon="7.419673008844256">
        <ele>71.760000000000005</ele>
        <time>2025-05-18T16:51:09Z</time>
      </trkpt>
      <trkpt lat="43.737672977149487" lon="7.419598996639252">
        <ele>71.760000000000005</ele>
        <time>2025-05-18T16:51:10Z</time>
      </trkpt>
      <trkpt lat="43.737688986584544" lon="7.419569995254278">
        <ele>71.269999999999996</ele>
        <time>2025-05-18T16:51:11Z</time>
      </trkpt>
      <trkpt lat="43.737770039588213" lon="7.419488020241261">
        <ele>70.790000000000006</ele>
        <time>2025-05-18T16:51:12Z</time>
      </trkpt>
      <trkpt lat="43.737818989902735" lon="7.419439991936088">
        <ele>70.310000000000002</ele>
        <time>2025-05-18T16:51:13Z</time>
      </trkpt>
      <trkpt lat="43.737883027642965" lon="7.419419959187508">
        <ele>69.829999999999998</ele>
        <time>2025-05-18T16:51:14Z</time>
      </trkpt>
      <trkpt lat="43.737951004877687" lon="7.419399004429579">
        <ele>69.349999999999994</ele>
        <time>2025-05-18T16:51:15Z</time>
      </trkpt>
      <trkpt lat="43.738018982112408" lon="7.419377965852618">
        <ele>68.870000000000005</ele>
        <time>2025-05-18T16:51:16Z</time>
      </trkpt>
      <trkpt lat="43.73808897100389" lon="7.419356005266309">
        <ele>68.390000000000001</ele>
        <time>2025-05-18T16:51:17Z</time>
      </trkpt>
      <trkpt lat="43.738161977380514" lon="7.419332033023238">
        <ele>67.909999999999997</ele>
        <time>2025-05-18T16:51:18Z</time>
      </trkpt>
      <trkpt lat="43.7382179684937" lon="7.419288028031588">
        <ele>67.909999999999997</ele>
        <time>2025-05-18T16:51:19Z</time>
      </trkpt>
      <trkpt lat="43.738268008455634" lon="7.419247962534428">
        <ele>67.430000000000007</ele>
        <time>2025-05-18T16:51:20Z</time>
      </trkpt>
      <trkpt lat="43.738317964598536" lon="7.419222984462977">
        <ele>66.950000000000003</ele>
        <time>2025-05-18T16:51:21Z</time>
      </trkpt>
      <trkpt lat="43.738397005945444" lon="7.419183002784848">
        <ele>66.950000000000003</ele>
        <time>2025-05-18T16:51:22Z</time>
      </trkpt>
      <trkpt lat="43.738433970138431" lon="7.419189037755132">
        <ele>66.950000000000003</ele>
        <time>2025-05-18T16:51:23Z</time>
      </trkpt>
      <trkpt lat="43.738524997606874" lon="7.419204963371158">
        <ele>66.469999999999999</ele>
        <time>2025-05-18T16:51:24Z</time>
      </trkpt>
      <trkpt lat="43.738571014255285" lon="7.419249974191189">
        <ele>66.469999999999999</ele>
        <time>2025-05-18T16:51:25Z</time>
      </trkpt>
      <trkpt lat="43.738625999540091" lon="7.419305965304375">
        <ele>66.950000000000003</ele>
        <time>2025-05-18T16:51:26Z</time>
      </trkpt>
      <trkpt lat="43.738682996481657" lon="7.419362040236592">
        <ele>67.430000000000007</ele>
        <time>2025-05-18T16:51:27Z</time>
      </trkpt>
      <trkpt lat="43.738777963444591" lon="7.419555997475982">
        <ele>67.909999999999997</ele>
        <time>2025-05-18T16:51:29Z</time>
      </trkpt>
      <trkpt lat="43.738794978708029" lon="7.419647024944425">
        <ele>67.909999999999997</ele>
        <time>2025-05-18T16:51:30Z</time>
      </trkpt>
      <trkpt lat="43.738804031163454" lon="7.419697986915708">
        <ele>67.430000000000007</ele>
        <time>2025-05-18T16:51:31Z</time>
      </trkpt>
      <trkpt lat="43.738790033385158" lon="7.419793037697673">
        <ele>66.950000000000003</ele>
        <time>2025-05-18T16:51:32Z</time>
      </trkpt>
      <trkpt lat="43.738777041435242" lon="7.419879036024213">
        <ele>66.469999999999999</ele>
        <time>2025-05-18T16:51:33Z</time>
      </trkpt>
      <trkpt lat="43.738762959837914" lon="7.419969979673624">
        <ele>65.989999999999995</ele>
        <time>2025-05-18T16:51:34Z</time>
      </trkpt>
      <trkpt lat="43.738761032000184" lon="7.420072993263602">
        <ele>65.510000000000005</ele>
        <time>2025-05-18T16:51:35Z</time>
      </trkpt>
      <trkpt lat="43.738761032000184" lon="7.420169971883297">
        <ele>64.549999999999997</ele>
        <time>2025-05-18T16:51:36Z</time>
      </trkpt>
      <trkpt lat="43.738787015900016" lon="7.420388991013169">
        <ele>63.100000000000001</ele>
        <time>2025-05-18T16:51:38Z</time>
      </trkpt>
      <trkpt lat="43.738825991749763" lon="7.420492004603148">
        <ele>62.619999999999997</ele>
        <time>2025-05-18T16:51:39Z</time>
      </trkpt>
      <trkpt lat="43.738854993134737" lon="7.420585965737701">
        <ele>62.140000000000001</ele>
        <time>2025-05-18T16:51:40Z</time>
      </trkpt>
      <trkpt lat="43.738886006176472" lon="7.420683028176427">
        <ele>61.659999999999997</ele>
        <time>2025-05-18T16:51:41Z</time>
      </trkpt>
      <trkpt lat="43.738915007561445" lon="7.420775983482599">
        <ele>61.659999999999997</ele>
        <time>2025-05-18T16:51:42Z</time>
      </trkpt>
      <trkpt lat="43.73894602060318" lon="7.420873967930675">
        <ele>61.659999999999997</ele>
        <time>2025-05-18T16:51:43Z</time>
      </trkpt>
      <trkpt lat="43.738978039473295" lon="7.420974969863892">
        <ele>61.659999999999997</ele>
        <time>2025-05-18T16:51:44Z</time>
      </trkpt>
      <trkpt lat="43.739037970080972" lon="7.421165993437171">
        <ele>62.140000000000001</ele>
        <time>2025-05-18T16:51:46Z</time>
      </trkpt>
      <trkpt lat="43.739093961194158" lon="7.421344025060535">
        <ele>62.619999999999997</ele>
        <time>2025-05-18T16:51:48Z</time>
      </trkpt>
      <trkpt lat="43.739119023084641" lon="7.421423988416791">
        <ele>63.100000000000001</ele>
        <time>2025-05-18T16:51:49Z</time>
      </trkpt>
      <trkpt lat="43.739147018641233" lon="7.421513004228473">
        <ele>63.100000000000001</ele>
        <time>2025-05-18T16:51:50Z</time>
      </trkpt>
      <trkpt lat="43.739198986440897" lon="7.421678965911269">
        <ele>63.579999999999998</ele>
        <time>2025-05-18T16:51:52Z</time>
      </trkpt>
      <trkpt lat="43.739246008917689" lon="7.421826990321279">
        <ele>64.549999999999997</ele>
        <time>2025-05-18T16:51:54Z</time>
      </trkpt>
      <trkpt lat="43.739320021122694" lon="7.422063024714589">
        <ele>65.030000000000001</ele>
        <time>2025-05-18T16:51:59Z</time>
      </trkpt>
      <trkpt lat="43.739320021122694" lon="7.422063024714589">
        <ele>64.549999999999997</ele>
        <time>2025-05-18T16:52:13Z</time>
      </trkpt>
      <trkpt lat="43.739349022507668" lon="7.422154974192381">
        <ele>65.510000000000005</ele>
        <time>2025-05-18T16:52:41Z</time>
      </trkpt>
      <trkpt lat="43.739366959780455" lon="7.422213982790709">
        <ele>65.510000000000005</ele>
        <time>2025-05-18T16:52:42Z</time>
      </trkpt>
      <trkpt lat="43.73948598280549" lon="7.422587983310223">
        <ele>67.909999999999997</ele>
        <time>2025-05-18T16:52:48Z</time>
      </trkpt>
      <trkpt lat="43.739511966705322" lon="7.42266995832324">
        <ele>67.430000000000007</ele>
        <time>2025-05-18T16:52:49Z</time>
      </trkpt>
      <trkpt lat="43.739898959174752" lon="7.423861026763916">
        <ele>64.069999999999993</ele>
        <time>2025-05-18T16:52:59Z</time>
      </trkpt>
      <trkpt lat="43.739941958338022" lon="7.423990024253726">
        <ele>63.100000000000001</ele>
        <time>2025-05-18T16:53:01Z</time>
      </trkpt>
      <trkpt lat="43.739997027441859" lon="7.424107035622001">
        <ele>61.18</ele>
        <time>2025-05-18T16:53:03Z</time>
      </trkpt>
      <trkpt lat="43.740039020776749" lon="7.424196973443031">
        <ele>59.740000000000002</ele>
        <time>2025-05-18T16:53:04Z</time>
      </trkpt>
      <trkpt lat="43.740113032981753" lon="7.424354972317815">
        <ele>58.299999999999997</ele>
        <time>2025-05-18T16:53:05Z</time>
      </trkpt>
      <trkpt lat="43.740185033529997" lon="7.424421021714807">
        <ele>55.409999999999997</ele>
        <time>2025-05-18T16:53:07Z</time>
      </trkpt>
      <trkpt lat="43.740261979401112" lon="7.424491010606289">
        <ele>53.969999999999999</ele>
        <time>2025-05-18T16:53:08Z</time>
      </trkpt>
      <trkpt lat="43.740599015727639" lon="7.424799967557192">
        <ele>46.759999999999998</ele>
        <time>2025-05-18T16:53:13Z</time>
      </trkpt>
      <trkpt lat="43.740703035145998" lon="7.425004988908768">
        <ele>44.840000000000003</ele>
        <time>2025-05-18T16:53:15Z</time>
      </trkpt>
      <trkpt lat="43.740848964080215" lon="7.425085036084056">
        <ele>43.399999999999999</ele>
        <time>2025-05-18T16:53:17Z</time>
      </trkpt>
      <trkpt lat="43.740908978506923" lon="7.425112025812268">
        <ele>42.439999999999998</ele>
        <time>2025-05-18T16:53:18Z</time>
      </trkpt>
      <trkpt lat="43.740963963791728" lon="7.425137003883719">
        <ele>41.469999999999999</ele>
        <time>2025-05-18T16:53:19Z</time>
      </trkpt>
      <trkpt lat="43.741121962666512" lon="7.425148990005255">
        <ele>37.630000000000003</ele>
        <time>2025-05-18T16:53:26Z</time>
      </trkpt>
      <trkpt lat="43.741144007071853" lon="7.425171034410596">
        <ele>35.710000000000001</ele>
        <time>2025-05-18T16:54:13Z</time>
      </trkpt>
      <trkpt lat="43.741250960156322" lon="7.425276981666684">
        <ele>33.780000000000001</ele>
        <time>2025-05-18T16:54:14Z</time>
      </trkpt>
      <trkpt lat="43.741250960156322" lon="7.425276981666684">
        <ele>32.82</ele>
        <time>2025-05-18T16:54:15Z</time>
      </trkpt>
      <trkpt lat="43.741254983469844" lon="7.425275975838304">
        <ele>31.859999999999999</ele>
        <time>2025-05-18T16:54:16Z</time>
      </trkpt>
      <trkpt lat="43.741357997059822" lon="7.425233982503414">
        <ele>31.379999999999999</ele>
        <time>2025-05-18T16:54:17Z</time>
      </trkpt>
      <trkpt lat="43.741357997059822" lon="7.425233982503414">
        <ele>30.420000000000002</ele>
        <time>2025-05-18T16:54:18Z</time>
      </trkpt>
      <trkpt lat="43.741377023980021" lon="7.425242029130459">
        <ele>30.420000000000002</ele>
        <time>2025-05-18T16:54:19Z</time>
      </trkpt>
      <trkpt lat="43.741465033963323" lon="7.425276981666684">
        <ele>29.940000000000001</ele>
        <time>2025-05-18T16:54:20Z</time>
      </trkpt>
      <trkpt lat="43.741468973457813" lon="7.425283016636968">
        <ele>29.940000000000001</ele>
        <time>2025-05-18T16:54:21Z</time>
      </trkpt>
      <trkpt lat="43.741980018094182" lon="7.425963962450624">
        <ele>28.98</ele>
        <time>2025-05-18T16:54:32Z</time>
      </trkpt>
      <trkpt lat="43.742027962580323" lon="7.426011990755796">
        <ele>28.98</ele>
        <time>2025-05-18T16:54:33Z</time>
      </trkpt>
      <trkpt lat="43.742043972015381" lon="7.426028000190854">
        <ele>28.98</ele>
        <time>2025-05-18T16:54:34Z</time>
      </trkpt>
      <trkpt lat="43.742117984220386" lon="7.426058007404208">
        <ele>28.98</ele>
        <time>2025-05-18T16:54:35Z</time>
      </trkpt>
      <trkpt lat="43.742194008082151" lon="7.426088014617562">
        <ele>29.460000000000001</ele>
        <time>2025-05-18T16:54:37Z</time>
      </trkpt>
      <trkpt lat="43.742258967831731" lon="7.426113998517394">
        <ele>30.420000000000002</ele>
        <time>2025-05-18T16:54:38Z</time>
      </trkpt>
      <trkpt lat="43.742266008630395" lon="7.426105029881001">
        <ele>30.899999999999999</ele>
        <time>2025-05-18T16:54:39Z</time>
      </trkpt>
      <trkpt lat="43.742288975045085" lon="7.426077034324408">
        <ele>30.899999999999999</ele>
        <time>2025-05-18T16:54:40Z</time>
      </trkpt>
      <trkpt lat="43.742313031107187" lon="7.426046021282673">
        <ele>30.899999999999999</ele>
        <time>2025-05-18T16:54:41Z</time>
      </trkpt>
      <trkpt lat="43.742339015007019" lon="7.426015008240938">
        <ele>30.899999999999999</ele>
        <time>2025-05-18T16:54:42Z</time>
      </trkpt>
      <trkpt lat="43.742366004735231" lon="7.425979971885681">
        <ele>30.420000000000002</ele>
        <time>2025-05-18T16:54:43Z</time>
      </trkpt>
      <trkpt lat="43.742392994463444" lon="7.425947031006217">
        <ele>29.940000000000001</ele>
        <time>2025-05-18T16:54:44Z</time>
      </trkpt>
      <trkpt lat="43.74242601916194" lon="7.425905959680677">
        <ele>29.940000000000001</ele>
        <time>2025-05-18T16:54:45Z</time>
      </trkpt>
      <trkpt lat="43.742462983354926" lon="7.425851980224252">
        <ele>30.420000000000002</ele>
        <time>2025-05-18T16:54:46Z</time>
      </trkpt>
      <trkpt lat="43.742546970024705" lon="7.425727006047964">
        <ele>28.98</ele>
        <time>2025-05-18T16:54:49Z</time>
      </trkpt>
      <trkpt lat="43.742564991116524" lon="7.425701022148132">
        <ele>28.5</ele>
        <time>2025-05-18T16:54:50Z</time>
      </trkpt>
      <trkpt lat="43.742588041350245" lon="7.425666991621256">
        <ele>28.5</ele>
        <time>2025-05-18T16:54:51Z</time>
      </trkpt>
      <trkpt lat="43.742613019421697" lon="7.425632039085031">
        <ele>28.5</ele>
        <time>2025-05-18T16:54:52Z</time>
      </trkpt>
      <trkpt lat="43.742709998041391" lon="7.425491977483034">
        <ele>28.02</ele>
        <time>2025-05-18T16:54:53Z</time>
      </trkpt>
      <trkpt lat="43.742734976112843" lon="7.425522990524769">
        <ele>27.530000000000001</ele>
        <time>2025-05-18T16:54:54Z</time>
      </trkpt>
      <trkpt lat="43.742773029953241" lon="7.425570013001561">
        <ele>27.050000000000001</ele>
        <time>2025-05-18T16:54:55Z</time>
      </trkpt>
      <trkpt lat="43.74281301163137" lon="7.425618963316083">
        <ele>27.050000000000001</ele>
        <time>2025-05-18T16:54:56Z</time>
      </trkpt>
      <trkpt lat="43.74285601079464" lon="7.425671014934778">
        <ele>26.57</ele>
        <time>2025-05-18T16:54:57Z</time>
      </trkpt>
      <trkpt lat="43.742902027443051" lon="7.425728011876345">
        <ele>26.09</ele>
        <time>2025-05-18T16:54:58Z</time>
      </trkpt>
      <trkpt lat="43.743181983008981" lon="7.426070999354124">
        <ele>25.129999999999999</ele>
        <time>2025-05-18T16:55:02Z</time>
      </trkpt>
      <trkpt lat="43.74322003684938" lon="7.426117016002536">
        <ele>25.129999999999999</ele>
        <time>2025-05-18T16:55:04Z</time>
      </trkpt>
      <trkpt lat="43.743289019912481" lon="7.426199996843934">
        <ele>26.57</ele>
        <time>2025-05-18T16:55:05Z</time>
      </trkpt>
      <trkpt lat="43.743332019075751" lon="7.426242996007204">
        <ele>26.57</ele>
        <time>2025-05-18T16:55:06Z</time>
      </trkpt>
      <trkpt lat="43.743707025423646" lon="7.426754040643573">
        <ele>29.460000000000001</ele>
        <time>2025-05-18T16:55:13Z</time>
      </trkpt>
      <trkpt lat="43.743763016536832" lon="7.426829980686307">
        <ele>29.940000000000001</ele>
        <time>2025-05-18T16:55:14Z</time>
      </trkpt>
      <trkpt lat="43.743897965177894" lon="7.427056962624192">
        <ele>33.780000000000001</ele>
        <time>2025-05-18T16:55:17Z</time>
      </trkpt>
      <trkpt lat="43.744007013738155" lon="7.427256032824516">
        <ele>38.109999999999999</ele>
        <time>2025-05-18T16:55:20Z</time>
      </trkpt>
      <trkpt lat="43.744114972651005" lon="7.427358040586114">
        <ele>46.280000000000001</ele>
        <time>2025-05-18T16:55:27Z</time>
      </trkpt>
      <trkpt lat="43.744150009006262" lon="7.427377989515662">
        <ele>47.240000000000002</ele>
        <time>2025-05-18T16:55:28Z</time>
      </trkpt>
      <trkpt lat="43.744217986240983" lon="7.42741696536541">
        <ele>49.159999999999997</ele>
        <time>2025-05-18T16:55:29Z</time>
      </trkpt>
      <trkpt lat="43.744286969304085" lon="7.42745703086257">
        <ele>50.130000000000003</ele>
        <time>2025-05-18T16:55:30Z</time>
      </trkpt>
      <trkpt lat="43.744578994810581" lon="7.427623998373747">
        <ele>55.409999999999997</ele>
        <time>2025-05-18T16:55:36Z</time>
      </trkpt>
      <trkpt lat="43.744653007015586" lon="7.4275469686836">
        <ele>57.82</ele>
        <time>2025-05-18T16:55:37Z</time>
      </trkpt>
      <trkpt lat="43.744652001187205" lon="7.427561972290278">
        <ele>59.740000000000002</ele>
        <time>2025-05-18T16:55:38Z</time>
      </trkpt>
      <trkpt lat="43.744653007015586" lon="7.427553003653884">
        <ele>61.659999999999997</ele>
        <time>2025-05-18T16:55:39Z</time>
      </trkpt>
      <trkpt lat="43.744661975651979" lon="7.427465999498963">
        <ele>63.100000000000001</ele>
        <time>2025-05-18T16:55:40Z</time>
      </trkpt>
      <trkpt lat="43.744659963995218" lon="7.427440015599132">
        <ele>64.069999999999993</ele>
        <time>2025-05-18T16:55:41Z</time>
      </trkpt>
      <trkpt lat="43.744613025337458" lon="7.427202975377441">
        <ele>71.760000000000005</ele>
        <time>2025-05-18T16:55:51Z</time>
      </trkpt>
      <trkpt lat="43.744601961225271" lon="7.427183026447892">
        <ele>72.239999999999995</ele>
        <time>2025-05-18T16:55:52Z</time>
      </trkpt>
      <trkpt lat="43.744587041437626" lon="7.427156958729029">
        <ele>73.200000000000003</ele>
        <time>2025-05-18T16:55:53Z</time>
      </trkpt>
      <trkpt lat="43.744574971497059" lon="7.4271360039711">
        <ele>73.200000000000003</ele>
        <time>2025-05-18T16:55:54Z</time>
      </trkpt>
      <trkpt lat="43.744566002860665" lon="7.427119994536042">
        <ele>73.680000000000007</ele>
        <time>2025-05-18T16:55:55Z</time>
      </trkpt>
      <trkpt lat="43.744555022567511" lon="7.427100967615843">
        <ele>74.159999999999997</ele>
        <time>2025-05-18T16:55:56Z</time>
      </trkpt>
      <trkpt lat="43.744555022567511" lon="7.427100967615843">
        <ele>74.640000000000001</ele>
        <time>2025-05-18T16:55:57Z</time>
      </trkpt>
      <trkpt lat="43.744555022567511" lon="7.427100967615843">
        <ele>76.560000000000002</ele>
        <time>2025-05-18T16:56:00Z</time>
      </trkpt>
      <trkpt lat="43.744618976488709" lon="7.427057968452573">
        <ele>78.480000000000004</ele>
        <time>2025-05-18T16:56:04Z</time>
      </trkpt>
      <trkpt lat="43.744654012843966" lon="7.427078001201153">
        <ele>79.930000000000007</ele>
        <time>2025-05-18T16:56:05Z</time>
      </trkpt>
      <trkpt lat="43.744716038927436" lon="7.42711303755641">
        <ele>81.849999999999994</ele>
        <time>2025-05-18T16:56:06Z</time>
      </trkpt>
      <trkpt lat="43.744787033647299" lon="7.427157964557409">
        <ele>83.290000000000006</ele>
        <time>2025-05-18T16:56:07Z</time>
      </trkpt>
      <trkpt lat="43.744842018932104" lon="7.42720196954906">
        <ele>84.730000000000004</ele>
        <time>2025-05-18T16:56:08Z</time>
      </trkpt>
      <trkpt lat="43.745239991694689" lon="7.427432974800468">
        <ele>90.019999999999996</ele>
        <time>2025-05-18T16:56:15Z</time>
      </trkpt>
      <trkpt lat="43.745283996686339" lon="7.427455019205809">
        <ele>90.5</ele>
        <time>2025-05-18T16:56:16Z</time>
      </trkpt>
      <trkpt lat="43.745320038869977" lon="7.427473040297627">
        <ele>90.5</ele>
        <time>2025-05-18T16:56:17Z</time>
      </trkpt>
      <trkpt lat="43.745349040254951" lon="7.427487960085273">
        <ele>90.5</ele>
        <time>2025-05-18T16:56:18Z</time>
      </trkpt>
      <trkpt lat="43.745386004447937" lon="7.427498018369079">
        <ele>90.980000000000004</ele>
        <time>2025-05-18T16:56:19Z</time>
      </trkpt>
      <trkpt lat="43.745426991954446" lon="7.427510004490614">
        <ele>91.459999999999994</ele>
        <time>2025-05-18T16:56:20Z</time>
      </trkpt>
      <trkpt lat="43.745820019394159" lon="7.427622992545366">
        <ele>94.829999999999998</ele>
        <time>2025-05-18T16:56:26Z</time>
      </trkpt>
      <trkpt lat="43.745901994407177" lon="7.427625004202128">
        <ele>95.310000000000002</ele>
        <time>2025-05-18T16:56:27Z</time>
      </trkpt>
      <trkpt lat="43.745982963591814" lon="7.427598014473915">
        <ele>95.790000000000006</ele>
        <time>2025-05-18T16:56:28Z</time>
      </trkpt>
      <trkpt lat="43.746538013219833" lon="7.427333984524012">
        <ele>100.11</ele>
        <time>2025-05-18T16:56:35Z</time>
      </trkpt>
      <trkpt lat="43.746601967141032" lon="7.427283022552729">
        <ele>100.59999999999999</ele>
        <time>2025-05-18T16:56:36Z</time>
      </trkpt>
      <trkpt lat="43.746898015961051" lon="7.42694104090333">
        <ele>104.44</ele>
        <time>2025-05-18T16:56:45Z</time>
      </trkpt>
      <trkpt lat="43.746917964890599" lon="7.426915979012847">
        <ele>104.92</ele>
        <time>2025-05-18T16:56:46Z</time>
      </trkpt>
      <trkpt lat="43.746946966275573" lon="7.426879014819861">
        <ele>105.88</ele>
        <time>2025-05-18T16:56:47Z</time>
      </trkpt>
      <trkpt lat="43.74698300845921" lon="7.426834003999829">
        <ele>106.36</ele>
        <time>2025-05-18T16:56:48Z</time>
      </trkpt>
      <trkpt lat="43.747066995128989" lon="7.426684973761439">
        <ele>108.29000000000001</ele>
        <time>2025-05-18T16:56:50Z</time>
      </trkpt>
      <trkpt lat="43.747146036475897" lon="7.426433013752103">
        <ele>110.69</ele>
        <time>2025-05-18T16:56:53Z</time>
      </trkpt>
      <trkpt lat="43.747224994003773" lon="7.426181975752115">
        <ele>113.56999999999999</ele>
        <time>2025-05-18T16:56:56Z</time>
      </trkpt>
      <trkpt lat="43.747345022857189" lon="7.425920963287354">
        <ele>116.45999999999999</ele>
        <time>2025-05-18T16:57:00Z</time>
      </trkpt>
      <trkpt lat="43.747345022857189" lon="7.425920963287354">
        <ele>116.45999999999999</ele>
        <time>2025-05-18T16:57:01Z</time>
      </trkpt>
      <trkpt lat="43.747414005920291" lon="7.425897996872664">
        <ele>117.42</ele>
        <time>2025-05-18T16:57:02Z</time>
      </trkpt>
      <trkpt lat="43.747467985376716" lon="7.425879975780845">
        <ele>117.90000000000001</ele>
        <time>2025-05-18T16:57:03Z</time>
      </trkpt>
      <trkpt lat="43.747489023953676" lon="7.425886010751128">
        <ele>118.86</ele>
        <time>2025-05-18T16:57:04Z</time>
      </trkpt>
      <trkpt lat="43.747546020895243" lon="7.425915012136102">
        <ele>119.34</ele>
        <time>2025-05-18T16:57:05Z</time>
      </trkpt>
      <trkpt lat="43.747602012008429" lon="7.425943007692695">
        <ele>120.3</ele>
        <time>2025-05-18T16:57:06Z</time>
      </trkpt>
      <trkpt lat="43.747622966766357" lon="7.425973014906049">
        <ele>120.78</ele>
        <time>2025-05-18T16:57:07Z</time>
      </trkpt>
      <trkpt lat="43.747763028368354" lon="7.426177030429244">
        <ele>123.19</ele>
        <time>2025-05-18T16:57:10Z</time>
      </trkpt>
      <trkpt lat="43.74786201864481" lon="7.426321031525731">
        <ele>125.11</ele>
        <time>2025-05-18T16:57:12Z</time>
      </trkpt>
      <trkpt lat="43.747908035293221" lon="7.426390014588833">
        <ele>126.06999999999999</ele>
        <time>2025-05-18T16:57:13Z</time>
      </trkpt>
      <trkpt lat="43.748104004189372" lon="7.426693020388484">
        <ele>130.88</ele>
        <time>2025-05-18T16:57:19Z</time>
      </trkpt>
      <trkpt lat="43.748116996139288" lon="7.426714980974793">
        <ele>131.84</ele>
        <time>2025-05-18T16:57:20Z</time>
      </trkpt>
      <trkpt lat="43.748116996139288" lon="7.426714980974793">
        <ele>131.84</ele>
        <time>2025-05-18T16:57:21Z</time>
      </trkpt>
      <trkpt lat="43.748090006411076" lon="7.426759991794825">
        <ele>132.31999999999999</ele>
        <time>2025-05-18T16:57:22Z</time>
      </trkpt>
      <trkpt lat="43.748068967834115" lon="7.426795028150082">
        <ele>132.31999999999999</ele>
        <time>2025-05-18T16:57:23Z</time>
      </trkpt>
      <trkpt lat="43.748040972277522" lon="7.426841966807842">
        <ele>132.80000000000001</ele>
        <time>2025-05-18T16:57:24Z</time>
      </trkpt>
      <trkpt lat="43.748005013912916" lon="7.426901981234551">
        <ele>132.80000000000001</ele>
        <time>2025-05-18T16:57:25Z</time>
      </trkpt>
      <trkpt lat="43.74797098338604" lon="7.426969036459923">
        <ele>132.80000000000001</ele>
        <time>2025-05-18T16:57:26Z</time>
      </trkpt>
      <trkpt lat="43.747710976749659" lon="7.42754302918911">
        <ele>132.80000000000001</ele>
        <time>2025-05-18T16:57:36Z</time>
      </trkpt>
      <trkpt lat="43.747591031715274" lon="7.427619975060225">
        <ele>147.69999999999999</ele>
        <time>2025-05-19T06:03:44Z</time>
      </trkpt>
      <trkpt lat="43.747634030878544" lon="7.427896996960044">
        <ele>128.47</ele>
        <time>2025-05-19T06:04:49Z</time>
      </trkpt>
      <trkpt lat="43.74760796315968" lon="7.427963968366385">
        <ele>133.75999999999999</ele>
        <time>2025-05-19T06:05:28Z</time>
      </trkpt>
      <trkpt lat="43.747673006728292" lon="7.427956005558372">
        <ele>135.68000000000001</ele>
        <time>2025-05-19T06:06:02Z</time>
      </trkpt>
      <trkpt lat="43.747673006728292" lon="7.427957011386752">
        <ele>135.68000000000001</ele>
        <time>2025-05-19T06:06:36Z</time>
      </trkpt>
      <trkpt lat="43.747673006728292" lon="7.427958017215133">
        <ele>135.19999999999999</ele>
        <time>2025-05-19T06:07:18Z</time>
      </trkpt>
      <trkpt lat="43.74766998924315" lon="7.427959023043513">
        <ele>135.19999999999999</ele>
        <time>2025-05-19T06:07:51Z</time>
      </trkpt>
      <trkpt lat="43.74766998924315" lon="7.427959023043513">
        <ele>135.19999999999999</ele>
        <time>2025-05-19T06:08:30Z</time>
      </trkpt>
      <trkpt lat="43.747667977586389" lon="7.427959023043513">
        <ele>134.72</ele>
        <time>2025-05-19T06:09:12Z</time>
      </trkpt>
      <trkpt lat="43.747665965929627" lon="7.427962040528655">
        <ele>134.72</ele>
        <time>2025-05-19T06:09:56Z</time>
      </trkpt>
      <trkpt lat="43.747665965929627" lon="7.427964974194765">
        <ele>134.72</ele>
        <time>2025-05-19T06:10:39Z</time>
      </trkpt>
      <trkpt lat="43.747666971758008" lon="7.427960028871894">
        <ele>134.72</ele>
        <time>2025-05-19T06:11:26Z</time>
      </trkpt>
      <trkpt lat="43.74766998924315" lon="7.427976038306952">
        <ele>135.19999999999999</ele>
        <time>2025-05-19T06:11:47Z</time>
      </trkpt>
      <trkpt lat="43.747662026435137" lon="7.427970003336668">
        <ele>135.68000000000001</ele>
        <time>2025-05-19T06:11:53Z</time>
      </trkpt>
      <trkpt lat="43.747635036706924" lon="7.427903031930327">
        <ele>135.19999999999999</ele>
        <time>2025-05-19T06:11:55Z</time>
      </trkpt>
      <trkpt lat="43.747658003121614" lon="7.427765987813473">
        <ele>134.72</ele>
        <time>2025-05-19T06:11:58Z</time>
      </trkpt>
      <trkpt lat="43.747783983126283" lon="7.427382012829185">
        <ele>133.28</ele>
        <time>2025-05-19T06:12:07Z</time>
      </trkpt>
      <trkpt lat="43.747805021703243" lon="7.427335996180773">
        <ele>132.80000000000001</ele>
        <time>2025-05-19T06:12:08Z</time>
      </trkpt>
      <trkpt lat="43.747827988117933" lon="7.42728503420949">
        <ele>132.80000000000001</ele>
        <time>2025-05-19T06:12:09Z</time>
      </trkpt>
      <trkpt lat="43.747850032523274" lon="7.427236000075936">
        <ele>132.31999999999999</ele>
        <time>2025-05-19T06:12:10Z</time>
      </trkpt>
      <trkpt lat="43.747870987281203" lon="7.427187971770763">
        <ele>131.84</ele>
        <time>2025-05-19T06:12:11Z</time>
      </trkpt>
      <trkpt lat="43.747982969507575" lon="7.42694104090333">
        <ele>130.40000000000001</ele>
        <time>2025-05-19T06:12:16Z</time>
      </trkpt>
      <trkpt lat="43.748101992532611" lon="7.426691008731723">
        <ele>129.91999999999999</ele>
        <time>2025-05-19T06:12:21Z</time>
      </trkpt>
      <trkpt lat="43.748073996976018" lon="7.426645997911692">
        <ele>129.43000000000001</ele>
        <time>2025-05-19T06:12:22Z</time>
      </trkpt>
      <trkpt lat="43.748046001419425" lon="7.426600987091661">
        <ele>128.94999999999999</ele>
        <time>2025-05-19T06:12:23Z</time>
      </trkpt>
      <trkpt lat="43.748009959235787" lon="7.426542984321713">
        <ele>129.43000000000001</ele>
        <time>2025-05-19T06:12:24Z</time>
      </trkpt>
      <trkpt lat="43.747983975335956" lon="7.426504008471966">
        <ele>129.43000000000001</ele>
        <time>2025-05-19T06:12:25Z</time>
      </trkpt>
      <trkpt lat="43.747918009757996" lon="7.426406024023891">
        <ele>129.91999999999999</ele>
        <time>2025-05-19T06:12:27Z</time>
      </trkpt>
      <trkpt lat="43.747891020029783" lon="7.426365958526731">
        <ele>129.91999999999999</ele>
        <time>2025-05-19T06:12:28Z</time>
      </trkpt>
      <trkpt lat="43.747861012816429" lon="7.426320025697351">
        <ele>130.40000000000001</ele>
        <time>2025-05-19T06:12:29Z</time>
      </trkpt>
      <trkpt lat="43.747771997004747" lon="7.42619002237916">
        <ele>130.40000000000001</ele>
        <time>2025-05-19T06:12:32Z</time>
      </trkpt>
      <trkpt lat="43.747742995619774" lon="7.42614702321589">
        <ele>130.40000000000001</ele>
        <time>2025-05-19T06:12:33Z</time>
      </trkpt>
      <trkpt lat="43.747710976749659" lon="7.426101006567478">
        <ele>130.88</ele>
        <time>2025-05-19T06:12:34Z</time>
      </trkpt>
      <trkpt lat="43.747681975364685" lon="7.426059013232589">
        <ele>131.36000000000001</ele>
        <time>2025-05-19T06:12:35Z</time>
      </trkpt>
      <trkpt lat="43.747652973979712" lon="7.426016014069319">
        <ele>131.36000000000001</ele>
        <time>2025-05-19T06:12:36Z</time>
      </trkpt>
      <trkpt lat="43.747621960937977" lon="7.425971003249288">
        <ele>131.84</ele>
        <time>2025-05-19T06:12:37Z</time>
      </trkpt>
      <trkpt lat="43.74752095900476" lon="7.425902020186186">
        <ele>132.80000000000001</ele>
        <time>2025-05-19T06:12:40Z</time>
      </trkpt>
      <trkpt lat="43.74747603200376" lon="7.425878969952464">
        <ele>132.80000000000001</ele>
        <time>2025-05-19T06:12:41Z</time>
      </trkpt>
      <trkpt lat="43.747473014518619" lon="7.425877964124084">
        <ele>132.80000000000001</ele>
        <time>2025-05-19T06:12:42Z</time>
      </trkpt>
      <trkpt lat="43.747397996485233" lon="7.425903026014566">
        <ele>132.31999999999999</ele>
        <time>2025-05-19T06:12:44Z</time>
      </trkpt>
      <trkpt lat="43.747345022857189" lon="7.425920963287354">
        <ele>131.84</ele>
        <time>2025-05-19T06:12:45Z</time>
      </trkpt>
      <trkpt lat="43.747345022857189" lon="7.425920963287354">
        <ele>131.84</ele>
        <time>2025-05-19T06:12:46Z</time>
      </trkpt>
      <trkpt lat="43.747279979288578" lon="7.426006961613894">
        <ele>130.88</ele>
        <time>2025-05-19T06:12:48Z</time>
      </trkpt>
      <trkpt lat="43.747268998995423" lon="7.426041997969151">
        <ele>130.40000000000001</ele>
        <time>2025-05-19T06:12:49Z</time>
      </trkpt>
      <trkpt lat="43.747247038409114" lon="7.426110981032252">
        <ele>129.43000000000001</ele>
        <time>2025-05-19T06:12:50Z</time>
      </trkpt>
      <trkpt lat="43.747223988175392" lon="7.426184993237257">
        <ele>128.94999999999999</ele>
        <time>2025-05-19T06:12:51Z</time>
      </trkpt>
      <trkpt lat="43.747201021760702" lon="7.426257999613881">
        <ele>127.98999999999999</ele>
        <time>2025-05-19T06:12:52Z</time>
      </trkpt>
      <trkpt lat="43.7471769656986" lon="7.426336035132408">
        <ele>127.51000000000001</ele>
        <time>2025-05-19T06:12:53Z</time>
      </trkpt>
      <trkpt lat="43.74713103286922" lon="7.426482969895005">
        <ele>125.59</ele>
        <time>2025-05-19T06:12:55Z</time>
      </trkpt>
      <trkpt lat="43.747109994292259" lon="7.426549019291997">
        <ele>125.11</ele>
        <time>2025-05-19T06:12:56Z</time>
      </trkpt>
      <trkpt lat="43.74708803370595" lon="7.426618002355099">
        <ele>124.15000000000001</ele>
        <time>2025-05-19T06:12:57Z</time>
      </trkpt>
      <trkpt lat="43.747064983472228" lon="7.426690002903342">
        <ele>123.19</ele>
        <time>2025-05-19T06:12:58Z</time>
      </trkpt>
      <trkpt lat="43.747037993744016" lon="7.426765020936728">
        <ele>122.22</ele>
        <time>2025-05-19T06:12:59Z</time>
      </trkpt>
      <trkpt lat="43.746872032061219" lon="7.426971970126033">
        <ele>118.86</ele>
        <time>2025-05-19T06:13:03Z</time>
      </trkpt>
      <trkpt lat="43.74683003872633" lon="7.426951015368104">
        <ele>117.90000000000001</ele>
        <time>2025-05-19T06:13:04Z</time>
      </trkpt>
      <trkpt lat="43.74683003872633" lon="7.426951015368104">
        <ele>116.94</ele>
        <time>2025-05-19T06:13:05Z</time>
      </trkpt>
      <trkpt lat="43.746764995157719" lon="7.426971970126033">
        <ele>115.01000000000001</ele>
        <time>2025-05-19T06:13:07Z</time>
      </trkpt>
      <trkpt lat="43.746690982952714" lon="7.427033996209502">
        <ele>113.09</ele>
        <time>2025-05-19T06:13:09Z</time>
      </trkpt>
      <trkpt lat="43.746635997667909" lon="7.427080012857914">
        <ele>112.61</ele>
        <time>2025-05-19T06:13:10Z</time>
      </trkpt>
      <trkpt lat="43.74659601598978" lon="7.42711303755641">
        <ele>112.13</ele>
        <time>2025-05-19T06:13:11Z</time>
      </trkpt>
      <trkpt lat="43.746280018240213" lon="7.427231976762414">
        <ele>110.69</ele>
        <time>2025-05-19T06:13:16Z</time>
      </trkpt>
      <trkpt lat="43.746185973286629" lon="7.427251003682613">
        <ele>110.20999999999999</ele>
        <time>2025-05-19T06:13:17Z</time>
      </trkpt>
      <trkpt lat="43.746134005486965" lon="7.427262989804149">
        <ele>110.20999999999999</ele>
        <time>2025-05-19T06:13:18Z</time>
      </trkpt>
      <trkpt lat="43.746065022423863" lon="7.427278999239206">
        <ele>109.73</ele>
        <time>2025-05-19T06:13:19Z</time>
      </trkpt>
      <trkpt lat="43.746000984683633" lon="7.427294002845883">
        <ele>108.77</ele>
        <time>2025-05-19T06:13:20Z</time>
      </trkpt>
      <trkpt lat="43.745935019105673" lon="7.42730900645256">
        <ele>107.81</ele>
        <time>2025-05-19T06:13:21Z</time>
      </trkpt>
      <trkpt lat="43.74590702354908" lon="7.427315963432193">
        <ele>107.31999999999999</ele>
        <time>2025-05-19T06:13:22Z</time>
      </trkpt>
      <trkpt lat="43.745799986645579" lon="7.427337002009153">
        <ele>106.84</ele>
        <time>2025-05-19T06:13:23Z</time>
      </trkpt>
      <trkpt lat="43.745727986097336" lon="7.427320992574096">
        <ele>106.36</ele>
        <time>2025-05-19T06:13:24Z</time>
      </trkpt>
      <trkpt lat="43.745677024126053" lon="7.427291991189122">
        <ele>105.40000000000001</ele>
        <time>2025-05-19T06:13:25Z</time>
      </trkpt>
      <trkpt lat="43.745635030791163" lon="7.427268018946052">
        <ele>104.92</ele>
        <time>2025-05-19T06:13:26Z</time>
      </trkpt>
      <trkpt lat="43.745597982779145" lon="7.42720196954906">
        <ele>105.88</ele>
        <time>2025-05-19T06:13:27Z</time>
      </trkpt>
      <trkpt lat="43.745591025799513" lon="7.42715897038579">
        <ele>105.40000000000001</ele>
        <time>2025-05-19T06:13:28Z</time>
      </trkpt>
      <trkpt lat="43.745617009699345" lon="7.427090993151069">
        <ele>104.92</ele>
        <time>2025-05-19T06:13:29Z</time>
      </trkpt>
      <trkpt lat="43.745662020519376" lon="7.427096022292972">
        <ele>104.44</ele>
        <time>2025-05-19T06:13:30Z</time>
      </trkpt>
      <trkpt lat="43.745705019682646" lon="7.427114965394139">
        <ele>103.95999999999999</ele>
        <time>2025-05-19T06:13:31Z</time>
      </trkpt>
      <trkpt lat="43.745756987482309" lon="7.427139021456242">
        <ele>103</ele>
        <time>2025-05-19T06:13:32Z</time>
      </trkpt>
      <trkpt lat="43.745813984423876" lon="7.427165005356073">
        <ele>103</ele>
        <time>2025-05-19T06:13:33Z</time>
      </trkpt>
      <trkpt lat="43.745870981365442" lon="7.427191995084286">
        <ele>102.52</ele>
        <time>2025-05-19T06:13:34Z</time>
      </trkpt>
      <trkpt lat="43.74590702354908" lon="7.427209010347724">
        <ele>102.04000000000001</ele>
        <time>2025-05-19T06:13:35Z</time>
      </trkpt>
      <trkpt lat="43.745962008833885" lon="7.427167017012835">
        <ele>102.52</ele>
        <time>2025-05-19T06:13:36Z</time>
      </trkpt>
      <trkpt lat="43.745988998562098" lon="7.427146984264255">
        <ele>102.52</ele>
        <time>2025-05-19T06:13:37Z</time>
      </trkpt>
      <trkpt lat="43.745986986905336" lon="7.427118988707662">
        <ele>102.52</ele>
        <time>2025-05-19T06:13:38Z</time>
      </trkpt>
      <trkpt lat="43.745977012440562" lon="7.427080012857914">
        <ele>103</ele>
        <time>2025-05-19T06:13:39Z</time>
      </trkpt>
      <trkpt lat="43.745958991348743" lon="7.427057968452573">
        <ele>103</ele>
        <time>2025-05-19T06:13:40Z</time>
      </trkpt>
      <trkpt lat="43.745910963043571" lon="7.427057968452573">
        <ele>103.48</ele>
        <time>2025-05-19T06:13:41Z</time>
      </trkpt>
      <trkpt lat="43.745748018845916" lon="7.4269840400666">
        <ele>104.44</ele>
        <time>2025-05-19T06:13:44Z</time>
      </trkpt>
      <trkpt lat="43.745583985000849" lon="7.426906004548073">
        <ele>105.40000000000001</ele>
        <time>2025-05-19T06:13:46Z</time>
      </trkpt>
      <trkpt lat="43.745538974180818" lon="7.426830986514688">
        <ele>105.88</ele>
        <time>2025-05-19T06:13:47Z</time>
      </trkpt>
      <trkpt lat="43.745369995012879" lon="7.426542984321713">
        <ele>107.81</ele>
        <time>2025-05-19T06:13:50Z</time>
      </trkpt>
      <trkpt lat="43.745201015844941" lon="7.426144005730748">
        <ele>110.20999999999999</ele>
        <time>2025-05-19T06:13:54Z</time>
      </trkpt>
      <trkpt lat="43.744842018932104" lon="7.425097022205591">
        <ele>120.3</ele>
        <time>2025-05-19T06:14:04Z</time>
      </trkpt>
      <trkpt lat="43.744736993685365" lon="7.424850007519126">
        <ele>123.67</ele>
        <time>2025-05-19T06:14:07Z</time>
      </trkpt>
      <trkpt lat="43.744727019220591" lon="7.424827041104436">
        <ele>125.11</ele>
        <time>2025-05-19T06:14:08Z</time>
      </trkpt>
      <trkpt lat="43.744727019220591" lon="7.424754034727812">
        <ele>125.59</ele>
        <time>2025-05-19T06:14:09Z</time>
      </trkpt>
      <trkpt lat="43.744727019220591" lon="7.424718998372555">
        <ele>127.03</ele>
        <time>2025-05-19T06:14:10Z</time>
      </trkpt>
      <trkpt lat="43.744734982028604" lon="7.424711035564542">
        <ele>127.98999999999999</ele>
        <time>2025-05-19T06:14:11Z</time>
      </trkpt>
      <trkpt lat="43.744806982576847" lon="7.424680022522807">
        <ele>128.94999999999999</ele>
        <time>2025-05-19T06:14:12Z</time>
      </trkpt>
      <trkpt lat="43.744833972305059" lon="7.424718998372555">
        <ele>129.43000000000001</ele>
        <time>2025-05-19T06:14:13Z</time>
      </trkpt>
      <trkpt lat="43.744860040023923" lon="7.424806002527475">
        <ele>130.40000000000001</ele>
        <time>2025-05-19T06:14:14Z</time>
      </trkpt>
      <trkpt lat="43.744879988953471" lon="7.424871968105435">
        <ele>131.84</ele>
        <time>2025-05-19T06:14:15Z</time>
      </trkpt>
      <trkpt lat="43.744902033358812" lon="7.424947991967201">
        <ele>132.80000000000001</ele>
        <time>2025-05-19T06:14:16Z</time>
      </trkpt>
      <trkpt lat="43.744928017258644" lon="7.425032984465361">
        <ele>133.75999999999999</ele>
        <time>2025-05-19T06:14:17Z</time>
      </trkpt>
      <trkpt lat="43.744954001158476" lon="7.42511797696352">
        <ele>134.72</ele>
        <time>2025-05-19T06:14:18Z</time>
      </trkpt>
      <trkpt lat="43.744987025856972" lon="7.425196012482047">
        <ele>135.68000000000001</ele>
        <time>2025-05-19T06:14:19Z</time>
      </trkpt>
      <trkpt lat="43.745026001706719" lon="7.425275975838304">
        <ele>136.63999999999999</ele>
        <time>2025-05-19T06:14:20Z</time>
      </trkpt>
      <trkpt lat="43.745067995041609" lon="7.425358034670353">
        <ele>137.61000000000001</ele>
        <time>2025-05-19T06:14:21Z</time>
      </trkpt>
      <trkpt lat="43.745104959234595" lon="7.425432968884707">
        <ele>138.09</ele>
        <time>2025-05-19T06:14:22Z</time>
      </trkpt>
      <trkpt lat="43.745142007246614" lon="7.425507986918092">
        <ele>138.09</ele>
        <time>2025-05-19T06:14:23Z</time>
      </trkpt>
      <trkpt lat="43.745190035551786" lon="7.425578981637955">
        <ele>138.09</ele>
        <time>2025-05-19T06:14:24Z</time>
      </trkpt>
      <trkpt lat="43.745341999456286" lon="7.425770005211234">
        <ele>139.05000000000001</ele>
        <time>2025-05-19T06:14:27Z</time>
      </trkpt>
      <trkpt lat="43.745798980817199" lon="7.426264034584165">
        <ele>143.84999999999999</ele>
        <time>2025-05-19T06:14:35Z</time>
      </trkpt>
      <trkpt lat="43.745856983587146" lon="7.426314996555448">
        <ele>144.34</ele>
        <time>2025-05-19T06:14:36Z</time>
      </trkpt>
      <trkpt lat="43.746052030473948" lon="7.426454974338412">
        <ele>146.25999999999999</ele>
        <time>2025-05-19T06:14:39Z</time>
      </trkpt>
      <trkpt lat="43.746193014085293" lon="7.426499985158444">
        <ele>147.69999999999999</ele>
        <time>2025-05-19T06:14:41Z</time>
      </trkpt>
      <trkpt lat="43.746263002976775" lon="7.426499985158444">
        <ele>148.18000000000001</ele>
        <time>2025-05-19T06:14:42Z</time>
      </trkpt>
      <trkpt lat="43.746331986039877" lon="7.426499985158444">
        <ele>149.13999999999999</ele>
        <time>2025-05-19T06:14:43Z</time>
      </trkpt>
      <trkpt lat="43.746432987973094" lon="7.426499985158444">
        <ele>151.06</ele>
        <time>2025-05-19T06:14:45Z</time>
      </trkpt>
      <trkpt lat="43.746442962437868" lon="7.426499985158444">
        <ele>152.03</ele>
        <time>2025-05-19T06:14:46Z</time>
      </trkpt>
      <trkpt lat="43.746442962437868" lon="7.426452040672302">
        <ele>152.50999999999999</ele>
        <time>2025-05-19T06:14:47Z</time>
      </trkpt>
      <trkpt lat="43.746442962437868" lon="7.426395965740085">
        <ele>153.47</ele>
        <time>2025-05-19T06:14:48Z</time>
      </trkpt>
      <trkpt lat="43.746442962437868" lon="7.426350032910705">
        <ele>154.43000000000001</ele>
        <time>2025-05-19T06:14:49Z</time>
      </trkpt>
      <trkpt lat="43.746421001851559" lon="7.426350032910705">
        <ele>154.91</ele>
        <time>2025-05-19T06:14:50Z</time>
      </trkpt>
      <trkpt lat="43.746370961889625" lon="7.426350032910705">
        <ele>155.87</ele>
        <time>2025-05-19T06:14:51Z</time>
      </trkpt>
      <trkpt lat="43.746183039620519" lon="7.426306027919054">
        <ele>158.27000000000001</ele>
        <time>2025-05-19T06:14:54Z</time>
      </trkpt>
      <trkpt lat="43.746112966910005" lon="7.426270991563797">
        <ele>158.75</ele>
        <time>2025-05-19T06:14:55Z</time>
      </trkpt>
      <trkpt lat="43.746013976633549" lon="7.426221035420895">
        <ele>159.24000000000001</ele>
        <time>2025-05-19T06:14:56Z</time>
      </trkpt>
      <trkpt lat="43.745915992185473" lon="7.426064964383841">
        <ele>160.19999999999999</ele>
        <time>2025-05-19T06:14:58Z</time>
      </trkpt>
      <trkpt lat="43.745767967775464" lon="7.425832031294704">
        <ele>162.12</ele>
        <time>2025-05-19T06:15:01Z</time>
      </trkpt>
      <trkpt lat="43.745732009410858" lon="7.425778973847628">
        <ele>162.59999999999999</ele>
        <time>2025-05-19T06:15:02Z</time>
      </trkpt>
      <trkpt lat="43.745695967227221" lon="7.425727006047964">
        <ele>163.08000000000001</ele>
        <time>2025-05-19T06:15:03Z</time>
      </trkpt>
      <trkpt lat="43.74560602940619" lon="7.425595996901393">
        <ele>164.52000000000001</ele>
        <time>2025-05-19T06:15:06Z</time>
      </trkpt>
      <trkpt lat="43.74560602940619" lon="7.425565989688039">
        <ele>165</ele>
        <time>2025-05-19T06:15:07Z</time>
      </trkpt>
      <trkpt lat="43.74560602940619" lon="7.425546962767839">
        <ele>165</ele>
        <time>2025-05-19T06:15:08Z</time>
      </trkpt>
      <trkpt lat="43.745706025511026" lon="7.42552500218153">
        <ele>165.47999999999999</ele>
        <time>2025-05-19T06:15:09Z</time>
      </trkpt>
      <trkpt lat="43.745732009410858" lon="7.4255680013448">
        <ele>165.96000000000001</ele>
        <time>2025-05-19T06:15:10Z</time>
      </trkpt>
      <trkpt lat="43.745768973603845" lon="7.425628015771508">
        <ele>166.44999999999999</ele>
        <time>2025-05-19T06:15:11Z</time>
      </trkpt>
      <trkpt lat="43.745810966938734" lon="7.425695993006229">
        <ele>166.44999999999999</ele>
        <time>2025-05-19T06:15:12Z</time>
      </trkpt>
      <trkpt lat="43.746125958859921" lon="7.426094971597195">
        <ele>166.44999999999999</ele>
        <time>2025-05-19T06:15:17Z</time>
      </trkpt>
      <trkpt lat="43.746220003813505" lon="7.426141994073987">
        <ele>165.96000000000001</ele>
        <time>2025-05-19T06:15:18Z</time>
      </trkpt>
      <trkpt lat="43.746293010190129" lon="7.426178958266974">
        <ele>165.96000000000001</ele>
        <time>2025-05-19T06:15:19Z</time>
      </trkpt>
      <trkpt lat="43.746408009901643" lon="7.426156997680664">
        <ele>165.96000000000001</ele>
        <time>2025-05-19T06:15:20Z</time>
      </trkpt>
      <trkpt lat="43.746512029320002" lon="7.426137970760465">
        <ele>165.47999999999999</ele>
        <time>2025-05-19T06:15:21Z</time>
      </trkpt>
      <trkpt lat="43.746615964919329" lon="7.426118021830916">
        <ele>165</ele>
        <time>2025-05-19T06:15:22Z</time>
      </trkpt>
      <trkpt lat="43.74670498073101" lon="7.426058007404208">
        <ele>164.52000000000001</ele>
        <time>2025-05-19T06:15:23Z</time>
      </trkpt>
      <trkpt lat="43.746799025684595" lon="7.425981983542442">
        <ele>164.03999999999999</ele>
        <time>2025-05-19T06:15:24Z</time>
      </trkpt>
      <trkpt lat="43.746883012354374" lon="7.425900008529425">
        <ele>164.03999999999999</ele>
        <time>2025-05-19T06:15:25Z</time>
      </trkpt>
      <trkpt lat="43.746947972103953" lon="7.425770005211234">
        <ele>164.03999999999999</ele>
        <time>2025-05-19T06:15:26Z</time>
      </trkpt>
      <trkpt lat="43.747009998187423" lon="7.425638996064663">
        <ele>164.03999999999999</ele>
        <time>2025-05-19T06:15:27Z</time>
      </trkpt>
      <trkpt lat="43.747060038149357" lon="7.425489965826273">
        <ele>164.03999999999999</ele>
        <time>2025-05-19T06:15:28Z</time>
      </trkpt>
      <trkpt lat="43.747446024790406" lon="7.424440970644355">
        <ele>163.08000000000001</ele>
        <time>2025-05-19T06:15:35Z</time>
      </trkpt>
      <trkpt lat="43.747523976489902" lon="7.424329994246364">
        <ele>163.08000000000001</ele>
        <time>2025-05-19T06:15:36Z</time>
      </trkpt>
      <trkpt lat="43.747609974816442" lon="7.424233015626669">
        <ele>163.56</ele>
        <time>2025-05-19T06:15:37Z</time>
      </trkpt>
      <trkpt lat="43.747720029205084" lon="7.424183981493115">
        <ele>164.03999999999999</ele>
        <time>2025-05-19T06:15:38Z</time>
      </trkpt>
      <trkpt lat="43.747824970632792" lon="7.424194039776921">
        <ele>164.52000000000001</ele>
        <time>2025-05-19T06:15:39Z</time>
      </trkpt>
      <trkpt lat="43.747932007536292" lon="7.424211977049708">
        <ele>165.47999999999999</ele>
        <time>2025-05-19T06:15:40Z</time>
      </trkpt>
      <trkpt lat="43.748015994206071" lon="7.424296969547868">
        <ele>165.96000000000001</ele>
        <time>2025-05-19T06:15:41Z</time>
      </trkpt>
      <trkpt lat="43.748102998360991" lon="7.424382967874408">
        <ele>166.93000000000001</ele>
        <time>2025-05-19T06:15:42Z</time>
      </trkpt>
      <trkpt lat="43.748188996687531" lon="7.424469972029328">
        <ele>167.88999999999999</ele>
        <time>2025-05-19T06:15:43Z</time>
      </trkpt>
      <trkpt lat="43.748420001938939" lon="7.424796028062701">
        <ele>170.77000000000001</ele>
        <time>2025-05-19T06:15:46Z</time>
      </trkpt>
      <trkpt lat="43.74848797917366" lon="7.424925025552511">
        <ele>171.25</ele>
        <time>2025-05-19T06:15:47Z</time>
      </trkpt>
      <trkpt lat="43.748545981943607" lon="7.425054023042321">
        <ele>172.21000000000001</ele>
        <time>2025-05-19T06:15:48Z</time>
      </trkpt>
      <trkpt lat="43.748601973056793" lon="7.425196012482047">
        <ele>172.69</ele>
        <time>2025-05-19T06:15:49Z</time>
      </trkpt>
      <trkpt lat="43.748656958341599" lon="7.425335990265012">
        <ele>173.16999999999999</ele>
        <time>2025-05-19T06:15:50Z</time>
      </trkpt>
      <trkpt lat="43.748843958601356" lon="7.425734968855977">
        <ele>174.62</ele>
        <time>2025-05-19T06:15:53Z</time>
      </trkpt>
      <trkpt lat="43.748930040746927" lon="7.425843011587858">
        <ele>175.58000000000001</ele>
        <time>2025-05-19T06:15:54Z</time>
      </trkpt>
      <trkpt lat="43.749015033245087" lon="7.425949964672327">
        <ele>176.53999999999999</ele>
        <time>2025-05-19T06:15:55Z</time>
      </trkpt>
      <trkpt lat="43.749113017693162" lon="7.426039986312389">
        <ele>177.5</ele>
        <time>2025-05-19T06:15:56Z</time>
      </trkpt>
      <trkpt lat="43.749213013797998" lon="7.426103018224239">
        <ele>178.46000000000001</ele>
        <time>2025-05-19T06:15:57Z</time>
      </trkpt>
      <trkpt lat="43.749521970748901" lon="7.426261017099023">
        <ele>180.87</ele>
        <time>2025-05-19T06:16:00Z</time>
      </trkpt>
      <trkpt lat="43.750242982059717" lon="7.426535021513701">
        <ele>186.15000000000001</ele>
        <time>2025-05-19T06:16:07Z</time>
      </trkpt>
      <trkpt lat="43.750347001478076" lon="7.426500990986824">
        <ele>187.11000000000001</ele>
        <time>2025-05-19T06:16:08Z</time>
      </trkpt>
      <trkpt lat="43.750448003411293" lon="7.426451034843922">
        <ele>188.08000000000001</ele>
        <time>2025-05-19T06:16:09Z</time>
      </trkpt>
      <trkpt lat="43.750546993687749" lon="7.426372999325395">
        <ele>189.03999999999999</ele>
        <time>2025-05-19T06:16:10Z</time>
      </trkpt>
      <trkpt lat="43.750646989792585" lon="7.426294041797519">
        <ele>189.52000000000001</ele>
        <time>2025-05-19T06:16:11Z</time>
      </trkpt>
      <trkpt lat="43.750746985897422" lon="7.426215000450611">
        <ele>190.47999999999999</ele>
        <time>2025-05-19T06:16:12Z</time>
      </trkpt>
      <trkpt lat="43.751045968383551" lon="7.425958011299372">
        <ele>192.88</ele>
        <time>2025-05-19T06:16:15Z</time>
      </trkpt>
      <trkpt lat="43.751146970316768" lon="7.425874024629593">
        <ele>194.31999999999999</ele>
        <time>2025-05-19T06:16:16Z</time>
      </trkpt>
      <trkpt lat="43.751426003873348" lon="7.425626004114747">
        <ele>197.69</ele>
        <time>2025-05-19T06:16:19Z</time>
      </trkpt>
      <trkpt lat="43.751620966941118" lon="7.42546197026968">
        <ele>199.61000000000001</ele>
        <time>2025-05-19T06:16:21Z</time>
      </trkpt>
      <trkpt lat="43.751728003844619" lon="7.425429029390216">
        <ele>200.09</ele>
        <time>2025-05-19T06:16:22Z</time>
      </trkpt>
      <trkpt lat="43.751833029091358" lon="7.425406984984875">
        <ele>201.05000000000001</ele>
        <time>2025-05-19T06:16:23Z</time>
      </trkpt>
      <trkpt lat="43.751935958862305" lon="7.425442021340132">
        <ele>201.53</ele>
        <time>2025-05-19T06:16:24Z</time>
      </trkpt>
      <trkpt lat="43.752038972452283" lon="7.425489965826273">
        <ele>202.49000000000001</ele>
        <time>2025-05-19T06:16:25Z</time>
      </trkpt>
      <trkpt lat="43.752124970778823" lon="7.42558803409338">
        <ele>202.97999999999999</ele>
        <time>2025-05-19T06:16:26Z</time>
      </trkpt>
      <trkpt lat="43.752202000468969" lon="7.425707979127765">
        <ele>203.94</ele>
        <time>2025-05-19T06:16:27Z</time>
      </trkpt>
      <trkpt lat="43.752260003238916" lon="7.425862038508058">
        <ele>204.41999999999999</ele>
        <time>2025-05-19T06:16:28Z</time>
      </trkpt>
      <trkpt lat="43.75226897187531" lon="7.426000004634261">
        <ele>204.90000000000001</ele>
        <time>2025-05-19T06:16:29Z</time>
      </trkpt>
      <trkpt lat="43.752277018502355" lon="7.426117016002536">
        <ele>205.38</ele>
        <time>2025-05-19T06:16:30Z</time>
      </trkpt>
      <trkpt lat="43.752247011289001" lon="7.426239978522062">
        <ele>205.38</ele>
        <time>2025-05-19T06:16:31Z</time>
      </trkpt>
      <trkpt lat="43.75220300629735" lon="7.426349027082324">
        <ele>205.86000000000001</ele>
        <time>2025-05-19T06:16:32Z</time>
      </trkpt>
      <trkpt lat="43.752157995477319" lon="7.426463020965457">
        <ele>205.86000000000001</ele>
        <time>2025-05-19T06:16:33Z</time>
      </trkpt>
      <trkpt lat="43.752109967172146" lon="7.426581960171461">
        <ele>205.38</ele>
        <time>2025-05-19T06:16:34Z</time>
      </trkpt>
      <trkpt lat="43.751783994957805" lon="7.427381007000804">
        <ele>204.90000000000001</ele>
        <time>2025-05-19T06:16:40Z</time>
      </trkpt>
      <trkpt lat="43.751589031890035" lon="7.428795034065843">
        <ele>200.09</ele>
        <time>2025-05-19T06:16:49Z</time>
      </trkpt>
      <trkpt lat="43.751586014404893" lon="7.430406035855413">
        <ele>194.31999999999999</ele>
        <time>2025-05-19T06:16:59Z</time>
      </trkpt>
      <trkpt lat="43.751843003556132" lon="7.431613029912114">
        <ele>189.03999999999999</ele>
        <time>2025-05-19T06:17:07Z</time>
      </trkpt>
      <trkpt lat="43.751905029639602" lon="7.431736998260021">
        <ele>188.56</ele>
        <time>2025-05-19T06:17:08Z</time>
      </trkpt>
      <trkpt lat="43.751958003267646" lon="7.431843029335141">
        <ele>187.59</ele>
        <time>2025-05-19T06:17:09Z</time>
      </trkpt>
      <trkpt lat="43.752063028514385" lon="7.431948976591229">
        <ele>186.63</ele>
        <time>2025-05-19T06:17:10Z</time>
      </trkpt>
      <trkpt lat="43.752154977992177" lon="7.432041009888053">
        <ele>185.66999999999999</ele>
        <time>2025-05-19T06:17:11Z</time>
      </trkpt>
      <trkpt lat="43.752241982147098" lon="7.432113010436297">
        <ele>184.71000000000001</ele>
        <time>2025-05-19T06:17:12Z</time>
      </trkpt>
      <trkpt lat="43.752338960766792" lon="7.432155003771186">
        <ele>183.75</ele>
        <time>2025-05-19T06:17:13Z</time>
      </trkpt>
      <trkpt lat="43.752430994063616" lon="7.432194985449314">
        <ele>182.78999999999999</ele>
        <time>2025-05-19T06:17:14Z</time>
      </trkpt>
      <trkpt lat="43.752525961026549" lon="7.432235972955823">
        <ele>181.83000000000001</ele>
        <time>2025-05-19T06:17:15Z</time>
      </trkpt>
      <trkpt lat="43.752833995968103" lon="7.432316020131111">
        <ele>177.97999999999999</ele>
        <time>2025-05-19T06:17:19Z</time>
      </trkpt>
      <trkpt lat="43.752879006788135" lon="7.432329012081027">
        <ele>177.5</ele>
        <time>2025-05-19T06:17:20Z</time>
      </trkpt>
      <trkpt lat="43.752962993457913" lon="7.432350972667337">
        <ele>175.09999999999999</ele>
        <time>2025-05-19T06:17:23Z</time>
      </trkpt>
      <trkpt lat="43.752983026206493" lon="7.43235700763762">
        <ele>174.13999999999999</ele>
        <time>2025-05-19T06:17:24Z</time>
      </trkpt>
      <trkpt lat="43.753056032583117" lon="7.432492962107062">
        <ele>168.37</ele>
        <time>2025-05-19T06:17:35Z</time>
      </trkpt>
      <trkpt lat="43.753210008144379" lon="7.432414004579186">
        <ele>169.33000000000001</ele>
        <time>2025-05-19T06:21:37Z</time>
      </trkpt>
      <trkpt lat="43.753204979002476" lon="7.432471001520753">
        <ele>205.38</ele>
        <time>2025-05-19T06:22:11Z</time>
      </trkpt>
      <trkpt lat="43.753124009817839" lon="7.432420961558819">
        <ele>190.47999999999999</ele>
        <time>2025-05-19T06:22:51Z</time>
      </trkpt>
      <trkpt lat="43.753118980675936" lon="7.432452980428934">
        <ele>190.47999999999999</ele>
        <time>2025-05-19T06:22:59Z</time>
      </trkpt>
      <trkpt lat="43.753153011202812" lon="7.432530010119081">
        <ele>193.36000000000001</ele>
        <time>2025-05-19T06:23:01Z</time>
      </trkpt>
      <trkpt lat="43.753224005922675" lon="7.432530010119081">
        <ele>186.63</ele>
        <time>2025-05-19T06:23:02Z</time>
      </trkpt>
      <trkpt lat="43.753224005922675" lon="7.432530010119081">
        <ele>183.27000000000001</ele>
        <time>2025-05-19T06:23:03Z</time>
      </trkpt>
      <trkpt lat="43.753224005922675" lon="7.432530010119081">
        <ele>181.83000000000001</ele>
        <time>2025-05-19T06:23:04Z</time>
      </trkpt>
      <trkpt lat="43.7532779853791" lon="7.43246303871274">
        <ele>176.06</ele>
        <time>2025-05-19T06:23:09Z</time>
      </trkpt>
      <trkpt lat="43.753349985927343" lon="7.432439988479018">
        <ele>176.53999999999999</ele>
        <time>2025-05-19T06:23:10Z</time>
      </trkpt>
      <trkpt lat="43.753399020060897" lon="7.432461027055979">
        <ele>176.53999999999999</ele>
        <time>2025-05-19T06:23:11Z</time>
      </trkpt>
      <trkpt lat="43.753480995073915" lon="7.432495979592204">
        <ele>175.09999999999999</ele>
        <time>2025-05-19T06:23:12Z</time>
      </trkpt>
      <trkpt lat="43.753567999228835" lon="7.432533027604222">
        <ele>174.13999999999999</ele>
        <time>2025-05-19T06:23:13Z</time>
      </trkpt>
      <trkpt lat="43.753658020868897" lon="7.432610979303718">
        <ele>173.16999999999999</ele>
        <time>2025-05-19T06:23:14Z</time>
      </trkpt>
      <trkpt lat="43.753721974790096" lon="7.432720027863979">
        <ele>172.21000000000001</ele>
        <time>2025-05-19T06:23:15Z</time>
      </trkpt>
      <trkpt lat="43.753767991438508" lon="7.432849025353789">
        <ele>171.72999999999999</ele>
        <time>2025-05-19T06:23:16Z</time>
      </trkpt>
      <trkpt lat="43.753787018358707" lon="7.432991014793515">
        <ele>171.25</ele>
        <time>2025-05-19T06:23:17Z</time>
      </trkpt>
      <trkpt lat="43.753795986995101" lon="7.433135015890002">
        <ele>170.28999999999999</ele>
        <time>2025-05-19T06:23:18Z</time>
      </trkpt>
      <trkpt lat="43.753806967288256" lon="7.433281028643251">
        <ele>169.81</ele>
        <time>2025-05-19T06:23:19Z</time>
      </trkpt>
      <trkpt lat="43.753819959238172" lon="7.433421006426215">
        <ele>168.84999999999999</ele>
        <time>2025-05-19T06:23:20Z</time>
      </trkpt>
      <trkpt lat="43.753850972279906" lon="7.433546986430883">
        <ele>167.88999999999999</ele>
        <time>2025-05-19T06:23:21Z</time>
      </trkpt>
      <trkpt lat="43.753899000585079" lon="7.433679001405835">
        <ele>166.93000000000001</ele>
        <time>2025-05-19T06:23:22Z</time>
      </trkpt>
      <trkpt lat="43.753957003355026" lon="7.433806993067265">
        <ele>165.96000000000001</ele>
        <time>2025-05-19T06:23:23Z</time>
      </trkpt>
      <trkpt lat="43.754197983071208" lon="7.434296999126673">
        <ele>161.63999999999999</ele>
        <time>2025-05-19T06:23:27Z</time>
      </trkpt>
      <trkpt lat="43.754304014146328" lon="7.434510989114642">
        <ele>158.75</ele>
        <time>2025-05-19T06:23:30Z</time>
      </trkpt>
      <trkpt lat="43.754320023581386" lon="7.43457100354135">
        <ele>157.78999999999999</ele>
        <time>2025-05-19T06:23:31Z</time>
      </trkpt>
      <trkpt lat="43.75433100387454" lon="7.434611991047859">
        <ele>156.83000000000001</ele>
        <time>2025-05-19T06:23:32Z</time>
      </trkpt>
      <trkpt lat="43.754337038844824" lon="7.434632023796439">
        <ele>155.87</ele>
        <time>2025-05-19T06:23:33Z</time>
      </trkpt>
      <trkpt lat="43.754337038844824" lon="7.434632023796439">
        <ele>154.43000000000001</ele>
        <time>2025-05-19T06:23:34Z</time>
      </trkpt>
      <trkpt lat="43.75404903665185" lon="7.434405041858554">
        <ele>148.66</ele>
        <time>2025-05-19T06:23:39Z</time>
      </trkpt>
      <trkpt lat="43.753978963941336" lon="7.434193985536695">
        <ele>147.22</ele>
        <time>2025-05-19T06:23:41Z</time>
      </trkpt>
      <trkpt lat="43.75394300557673" lon="7.434086026623845">
        <ele>146.74000000000001</ele>
        <time>2025-05-19T06:23:42Z</time>
      </trkpt>
      <trkpt lat="43.753910986706614" lon="7.433988964185119">
        <ele>146.25999999999999</ele>
        <time>2025-05-19T06:23:43Z</time>
      </trkpt>
      <trkpt lat="43.753650980070233" lon="7.433542041108012">
        <ele>141.44999999999999</ele>
        <time>2025-05-19T06:23:48Z</time>
      </trkpt>
      <trkpt lat="43.75359901227057" lon="7.43345201946795">
        <ele>140.97</ele>
        <time>2025-05-19T06:23:49Z</time>
      </trkpt>
      <trkpt lat="43.753523994237185" lon="7.433324027806521">
        <ele>140.00999999999999</ele>
        <time>2025-05-19T06:23:50Z</time>
      </trkpt>
      <trkpt lat="43.753477977588773" lon="7.433306006714702">
        <ele>139.53</ele>
        <time>2025-05-19T06:23:51Z</time>
      </trkpt>
      <trkpt lat="43.753330959007144" lon="7.433238029479981">
        <ele>139.05000000000001</ele>
        <time>2025-05-19T06:23:52Z</time>
      </trkpt>
      <trkpt lat="43.753292988985777" lon="7.433254960924387">
        <ele>138.09</ele>
        <time>2025-05-19T06:23:53Z</time>
      </trkpt>
      <trkpt lat="43.753219982609153" lon="7.433285973966122">
        <ele>137.61000000000001</ele>
        <time>2025-05-19T06:23:54Z</time>
      </trkpt>
      <trkpt lat="43.753150999546051" lon="7.433316987007856">
        <ele>137.61000000000001</ele>
        <time>2025-05-19T06:23:55Z</time>
      </trkpt>
      <trkpt lat="43.752967016771436" lon="7.43340902030468">
        <ele>137.61000000000001</ele>
        <time>2025-05-19T06:23:58Z</time>
      </trkpt>
      <trkpt lat="43.752327980473638" lon="7.433728035539389">
        <ele>136.16</ele>
        <time>2025-05-19T06:24:08Z</time>
      </trkpt>
      <trkpt lat="43.752256985753775" lon="7.433743961155415">
        <ele>135.68000000000001</ele>
        <time>2025-05-19T06:24:09Z</time>
      </trkpt>
      <trkpt lat="43.752184985205531" lon="7.433743039146066">
        <ele>135.68000000000001</ele>
        <time>2025-05-19T06:24:10Z</time>
      </trkpt>
      <trkpt lat="43.752120025455952" lon="7.433720994740725">
        <ele>135.19999999999999</ele>
        <time>2025-05-19T06:24:11Z</time>
      </trkpt>
      <trkpt lat="43.752059005200863" lon="7.433700961992145">
        <ele>134.72</ele>
        <time>2025-05-19T06:24:12Z</time>
      </trkpt>
      <trkpt lat="43.751999996602535" lon="7.433599960058928">
        <ele>134.24000000000001</ele>
        <time>2025-05-19T06:24:13Z</time>
      </trkpt>
      <trkpt lat="43.751975018531084" lon="7.433500969782472">
        <ele>133.75999999999999</ele>
        <time>2025-05-19T06:24:14Z</time>
      </trkpt>
      <trkpt lat="43.751950040459633" lon="7.433399967849255">
        <ele>132.80000000000001</ele>
        <time>2025-05-19T06:24:15Z</time>
      </trkpt>
      <trkpt lat="43.75192497856915" lon="7.433297960087657">
        <ele>132.80000000000001</ele>
        <time>2025-05-19T06:24:16Z</time>
      </trkpt>
      <trkpt lat="43.751893965527415" lon="7.43317399173975">
        <ele>132.80000000000001</ele>
        <time>2025-05-19T06:24:17Z</time>
      </trkpt>
      <trkpt lat="43.751835962757468" lon="7.433123029768467">
        <ele>132.80000000000001</ele>
        <time>2025-05-19T06:24:18Z</time>
      </trkpt>
      <trkpt lat="43.751705959439278" lon="7.433009035885334">
        <ele>133.28</ele>
        <time>2025-05-19T06:24:20Z</time>
      </trkpt>
      <trkpt lat="43.751645023003221" lon="7.432955978438258">
        <ele>133.75999999999999</ele>
        <time>2025-05-19T06:24:21Z</time>
      </trkpt>
      <trkpt lat="43.751518037170172" lon="7.432870985940099">
        <ele>134.72</ele>
        <time>2025-05-19T06:24:23Z</time>
      </trkpt>
      <trkpt lat="43.751447964459658" lon="7.432866962626576">
        <ele>135.19999999999999</ele>
        <time>2025-05-19T06:24:24Z</time>
      </trkpt>
      <trkpt lat="43.751379987224936" lon="7.432862017303705">
        <ele>135.68000000000001</ele>
        <time>2025-05-19T06:24:25Z</time>
      </trkpt>
      <trkpt lat="43.751159962266684" lon="7.432848019525409">
        <ele>137.13</ele>
        <time>2025-05-19T06:24:28Z</time>
      </trkpt>
      <trkpt lat="43.750929040834308" lon="7.432833015918732">
        <ele>137.61000000000001</ele>
        <time>2025-05-19T06:24:31Z</time>
      </trkpt>
      <trkpt lat="43.750856034457684" lon="7.43280996568501">
        <ele>137.61000000000001</ele>
        <time>2025-05-19T06:24:32Z</time>
      </trkpt>
      <trkpt lat="43.750791996717453" lon="7.43276403285563">
        <ele>138.09</ele>
        <time>2025-05-19T06:24:33Z</time>
      </trkpt>
      <trkpt lat="43.750729970633984" lon="7.432717010378838">
        <ele>138.09</ele>
        <time>2025-05-19T06:24:34Z</time>
      </trkpt>
      <trkpt lat="43.750671967864037" lon="7.432647021487355">
        <ele>138.09</ele>
        <time>2025-05-19T06:24:35Z</time>
      </trkpt>
      <trkpt lat="43.750479016453028" lon="7.432345021516085">
        <ele>139.05000000000001</ele>
        <time>2025-05-19T06:24:39Z</time>
      </trkpt>
      <trkpt lat="43.75044297426939" lon="7.432262962684035">
        <ele>139.05000000000001</ele>
        <time>2025-05-19T06:24:40Z</time>
      </trkpt>
      <trkpt lat="43.750406010076404" lon="7.432178976014257">
        <ele>139.05000000000001</ele>
        <time>2025-05-19T06:24:41Z</time>
      </trkpt>
      <trkpt lat="43.750305008143187" lon="7.431940007954836">
        <ele>139.05000000000001</ele>
        <time>2025-05-19T06:24:44Z</time>
      </trkpt>
      <trkpt lat="43.750298973172903" lon="7.431857027113438">
        <ele>139.05000000000001</ele>
        <time>2025-05-19T06:24:45Z</time>
      </trkpt>
      <trkpt lat="43.750294027850032" lon="7.431771028786898">
        <ele>139.05000000000001</ele>
        <time>2025-05-19T06:24:46Z</time>
      </trkpt>
      <trkpt lat="43.750349013134837" lon="7.4311129655689">
        <ele>138.09</ele>
        <time>2025-05-19T06:24:53Z</time>
      </trkpt>
      <trkpt lat="43.750360999256372" lon="7.430889001116157">
        <ele>137.61000000000001</ele>
        <time>2025-05-19T06:24:55Z</time>
      </trkpt>
      <trkpt lat="43.75041900202632" lon="7.430579038336873">
        <ele>138.56999999999999</ele>
        <time>2025-05-19T06:24:58Z</time>
      </trkpt>
      <trkpt lat="43.750439034774899" lon="7.430490022525191">
        <ele>139.05000000000001</ele>
        <time>2025-05-19T06:24:59Z</time>
      </trkpt>
      <trkpt lat="43.750457977876067" lon="7.43040201254189">
        <ele>139.53</ele>
        <time>2025-05-19T06:25:00Z</time>
      </trkpt>
      <trkpt lat="43.750478010624647" lon="7.430311990901828">
        <ele>139.53</ele>
        <time>2025-05-19T06:25:01Z</time>
      </trkpt>
      <trkpt lat="43.750498965382576" lon="7.430218029767275">
        <ele>140.00999999999999</ele>
        <time>2025-05-19T06:25:02Z</time>
      </trkpt>
      <trkpt lat="43.750520003959537" lon="7.430119961500168">
        <ele>140.00999999999999</ele>
        <time>2025-05-19T06:25:03Z</time>
      </trkpt>
      <trkpt lat="43.750581024214625" lon="7.429842017591">
        <ele>140.00999999999999</ele>
        <time>2025-05-19T06:25:06Z</time>
      </trkpt>
      <trkpt lat="43.750604996457696" lon="7.42975702509284">
        <ele>140.00999999999999</ele>
        <time>2025-05-19T06:25:07Z</time>
      </trkpt>
      <trkpt lat="43.750630980357528" lon="7.42967002093792">
        <ele>140.00999999999999</ele>
        <time>2025-05-19T06:25:08Z</time>
      </trkpt>
      <trkpt lat="43.75065696425736" lon="7.429582010954619">
        <ele>140.00999999999999</ele>
        <time>2025-05-19T06:25:09Z</time>
      </trkpt>
      <trkpt lat="43.750684037804604" lon="7.429490983486176">
        <ele>139.53</ele>
        <time>2025-05-19T06:25:10Z</time>
      </trkpt>
      <trkpt lat="43.750712033361197" lon="7.429396016523242">
        <ele>139.53</ele>
        <time>2025-05-19T06:25:11Z</time>
      </trkpt>
      <trkpt lat="43.750799037516117" lon="7.429104996845126">
        <ele>138.56999999999999</ele>
        <time>2025-05-19T06:25:14Z</time>
      </trkpt>
      <trkpt lat="43.750820998102427" lon="7.429031990468502">
        <ele>138.09</ele>
        <time>2025-05-19T06:25:15Z</time>
      </trkpt>
      <trkpt lat="43.750814041122794" lon="7.428964013233781">
        <ele>137.61000000000001</ele>
        <time>2025-05-19T06:25:16Z</time>
      </trkpt>
      <trkpt lat="43.75080700032413" lon="7.428884971886873">
        <ele>137.13</ele>
        <time>2025-05-19T06:25:17Z</time>
      </trkpt>
      <trkpt lat="43.750799037516117" lon="7.428796039894223">
        <ele>137.13</ele>
        <time>2025-05-19T06:25:18Z</time>
      </trkpt>
      <trkpt lat="43.750732988119125" lon="7.428650027140975">
        <ele>136.63999999999999</ele>
        <time>2025-05-19T06:25:20Z</time>
      </trkpt>
      <trkpt lat="43.750723013654351" lon="7.428564028814435">
        <ele>136.16</ele>
        <time>2025-05-19T06:25:21Z</time>
      </trkpt>
      <trkpt lat="43.750682026147842" lon="7.428192961961031">
        <ele>134.24000000000001</ele>
        <time>2025-05-19T06:25:25Z</time>
      </trkpt>
      <trkpt lat="43.750670040026307" lon="7.428088020533323">
        <ele>133.75999999999999</ele>
        <time>2025-05-19T06:25:26Z</time>
      </trkpt>
      <trkpt lat="43.750627962872386" lon="7.428002022206783">
        <ele>133.28</ele>
        <time>2025-05-19T06:25:27Z</time>
      </trkpt>
      <trkpt lat="43.750602984800935" lon="7.427948964759708">
        <ele>132.80000000000001</ele>
        <time>2025-05-19T06:25:28Z</time>
      </trkpt>
      <trkpt lat="43.750577000901103" lon="7.427891967818141">
        <ele>132.31999999999999</ele>
        <time>2025-05-19T06:25:29Z</time>
      </trkpt>
      <trkpt lat="43.750520003959537" lon="7.427765987813473">
        <ele>131.84</ele>
        <time>2025-05-19T06:25:30Z</time>
      </trkpt>
      <trkpt lat="43.750546993687749" lon="7.4278249964118">
        <ele>131.36000000000001</ele>
        <time>2025-05-19T06:25:31Z</time>
      </trkpt>
      <trkpt lat="43.750507012009621" lon="7.42776196449995">
        <ele>130.88</ele>
        <time>2025-05-19T06:25:32Z</time>
      </trkpt>
      <trkpt lat="43.750283969566226" lon="7.427788032218814">
        <ele>129.43000000000001</ele>
        <time>2025-05-19T06:25:39Z</time>
      </trkpt>
      <trkpt lat="43.75022797845304" lon="7.427844023332">
        <ele>129.43000000000001</ele>
        <time>2025-05-19T06:25:40Z</time>
      </trkpt>
      <trkpt lat="43.750177016481757" lon="7.427899008616805">
        <ele>128.94999999999999</ele>
        <time>2025-05-19T06:25:41Z</time>
      </trkpt>
      <trkpt lat="43.750120019540191" lon="7.427962040528655">
        <ele>128.47</ele>
        <time>2025-05-19T06:25:42Z</time>
      </trkpt>
      <trkpt lat="43.750051958486438" lon="7.428034963086247">
        <ele>127.98999999999999</ele>
        <time>2025-05-19T06:25:43Z</time>
      </trkpt>
      <trkpt lat="43.749983981251717" lon="7.428109981119633">
        <ele>127.98999999999999</ele>
        <time>2025-05-19T06:25:44Z</time>
      </trkpt>
      <trkpt lat="43.749951040372252" lon="7.428197991102934">
        <ele>127.51000000000001</ele>
        <time>2025-05-19T06:25:45Z</time>
      </trkpt>
      <trkpt lat="43.749913992360234" lon="7.42829698137939">
        <ele>127.51000000000001</ele>
        <time>2025-05-19T06:25:46Z</time>
      </trkpt>
      <trkpt lat="43.749878033995628" lon="7.428393037989736">
        <ele>127.03</ele>
        <time>2025-05-19T06:25:47Z</time>
      </trkpt>
      <trkpt lat="43.749838974326849" lon="7.428496973589063">
        <ele>127.03</ele>
        <time>2025-05-19T06:25:48Z</time>
      </trkpt>
      <trkpt lat="43.749803015962243" lon="7.428592024371028">
        <ele>126.55</ele>
        <time>2025-05-19T06:25:49Z</time>
      </trkpt>
      <trkpt lat="43.749749036505818" lon="7.42868397384882">
        <ele>126.06999999999999</ele>
        <time>2025-05-19T06:25:50Z</time>
      </trkpt>
      <trkpt lat="43.749693967401981" lon="7.428762009367347">
        <ele>125.59</ele>
        <time>2025-05-19T06:25:51Z</time>
      </trkpt>
      <trkpt lat="43.749643005430698" lon="7.428836021572352">
        <ele>125.11</ele>
        <time>2025-05-19T06:25:52Z</time>
      </trkpt>
      <trkpt lat="43.749546026811004" lon="7.42883300408721">
        <ele>124.63</ele>
        <time>2025-05-19T06:25:53Z</time>
      </trkpt>
      <trkpt lat="43.749464973807335" lon="7.428827974945307">
        <ele>124.15000000000001</ele>
        <time>2025-05-19T06:25:54Z</time>
      </trkpt>
      <trkpt lat="43.749382998794317" lon="7.428823029622436">
        <ele>123.67</ele>
        <time>2025-05-19T06:25:55Z</time>
      </trkpt>
      <trkpt lat="43.748674979433417" lon="7.428779024630785">
        <ele>121.26000000000001</ele>
        <time>2025-05-19T06:26:04Z</time>
      </trkpt>
      <trkpt lat="43.748611025512218" lon="7.428775001317263">
        <ele>120.78</ele>
        <time>2025-05-19T06:26:05Z</time>
      </trkpt>
      <trkpt lat="43.748543970286846" lon="7.428826969116926">
        <ele>120.78</ele>
        <time>2025-05-19T06:26:06Z</time>
      </trkpt>
      <trkpt lat="43.748481022194028" lon="7.42887600325048">
        <ele>120.78</ele>
        <time>2025-05-19T06:26:07Z</time>
      </trkpt>
      <trkpt lat="43.748416984453797" lon="7.428925037384033">
        <ele>120.78</ele>
        <time>2025-05-19T06:26:08Z</time>
      </trkpt>
      <trkpt lat="43.748363004997373" lon="7.428987985476852">
        <ele>120.3</ele>
        <time>2025-05-19T06:26:09Z</time>
      </trkpt>
      <trkpt lat="43.748307013884187" lon="7.429053029045463">
        <ele>120.3</ele>
        <time>2025-05-19T06:26:10Z</time>
      </trkpt>
      <trkpt lat="43.748194025829434" lon="7.429183032363653">
        <ele>120.3</ele>
        <time>2025-05-19T06:26:12Z</time>
      </trkpt>
      <trkpt lat="43.748148009181023" lon="7.429235000163317">
        <ele>120.3</ele>
        <time>2025-05-19T06:26:13Z</time>
      </trkpt>
      <trkpt lat="43.748089000582695" lon="7.429270958527923">
        <ele>120.3</ele>
        <time>2025-05-19T06:26:14Z</time>
      </trkpt>
      <trkpt lat="43.748027980327606" lon="7.429301971569657">
        <ele>120.3</ele>
        <time>2025-05-19T06:26:15Z</time>
      </trkpt>
      <trkpt lat="43.747966038063169" lon="7.429332984611392">
        <ele>120.3</ele>
        <time>2025-05-19T06:26:16Z</time>
      </trkpt>
      <trkpt lat="43.74790501780808" lon="7.429363997653127">
        <ele>120.3</ele>
        <time>2025-05-19T06:26:17Z</time>
      </trkpt>
      <trkpt lat="43.747880961745977" lon="7.429375983774662">
        <ele>120.3</ele>
        <time>2025-05-19T06:26:18Z</time>
      </trkpt>
      <trkpt lat="43.747791023924947" lon="7.429323010146618">
        <ele>119.81999999999999</ele>
        <time>2025-05-19T06:26:19Z</time>
      </trkpt>
      <trkpt lat="43.747728997841477" lon="7.42928696796298">
        <ele>119.81999999999999</ele>
        <time>2025-05-19T06:26:20Z</time>
      </trkpt>
      <trkpt lat="43.747668983414769" lon="7.429252015426755">
        <ele>119.81999999999999</ele>
        <time>2025-05-19T06:26:21Z</time>
      </trkpt>
      <trkpt lat="43.747094990685582" lon="7.428895030170679">
        <ele>120.3</ele>
        <time>2025-05-19T06:26:30Z</time>
      </trkpt>
      <trkpt lat="43.747071018442512" lon="7.428818000480533">
        <ele>119.81999999999999</ele>
        <time>2025-05-19T06:26:31Z</time>
      </trkpt>
      <trkpt lat="43.747055009007454" lon="7.428752034902573">
        <ele>119.81999999999999</ele>
        <time>2025-05-19T06:26:32Z</time>
      </trkpt>
      <trkpt lat="43.747066995128989" lon="7.428652038797736">
        <ele>119.81999999999999</ele>
        <time>2025-05-19T06:26:33Z</time>
      </trkpt>
      <trkpt lat="43.747095996513963" lon="7.428577020764351">
        <ele>119.81999999999999</ele>
        <time>2025-05-19T06:26:34Z</time>
      </trkpt>
      <trkpt lat="43.747129021212459" lon="7.428493034094572">
        <ele>119.81999999999999</ele>
        <time>2025-05-19T06:26:35Z</time>
      </trkpt>
      <trkpt lat="43.747163973748684" lon="7.42840301245451">
        <ele>119.81999999999999</ele>
        <time>2025-05-19T06:26:36Z</time>
      </trkpt>
      <trkpt lat="43.747212002053857" lon="7.428208971396089">
        <ele>119.81999999999999</ele>
        <time>2025-05-19T06:26:38Z</time>
      </trkpt>
      <trkpt lat="43.747228011488914" lon="7.428101012483239">
        <ele>119.81999999999999</ele>
        <time>2025-05-19T06:26:39Z</time>
      </trkpt>
      <trkpt lat="43.747244020923972" lon="7.427990958094597">
        <ele>119.34</ele>
        <time>2025-05-19T06:26:40Z</time>
      </trkpt>
      <trkpt lat="43.747259024530649" lon="7.427894985303283">
        <ele>118.38</ele>
        <time>2025-05-19T06:26:41Z</time>
      </trkpt>
      <trkpt lat="43.74730403535068" lon="7.427800018340349">
        <ele>117.42</ele>
        <time>2025-05-19T06:26:42Z</time>
      </trkpt>
      <trkpt lat="43.747344017028809" lon="7.42771502584219">
        <ele>116.94</ele>
        <time>2025-05-19T06:26:43Z</time>
      </trkpt>
      <trkpt lat="43.747387016192079" lon="7.427626010030508">
        <ele>115.98</ele>
        <time>2025-05-19T06:26:44Z</time>
      </trkpt>
      <trkpt lat="43.747567981481552" lon="7.427159976214171">
        <ele>113.56999999999999</ele>
        <time>2025-05-19T06:26:49Z</time>
      </trkpt>
      <trkpt lat="43.747597988694906" lon="7.427069032564759">
        <ele>113.09</ele>
        <time>2025-05-19T06:26:50Z</time>
      </trkpt>
      <trkpt lat="43.747622966766357" lon="7.426989991217852">
        <ele>112.61</ele>
        <time>2025-05-19T06:26:51Z</time>
      </trkpt>
      <trkpt lat="43.747622966766357" lon="7.426893012598157">
        <ele>112.13</ele>
        <time>2025-05-19T06:26:52Z</time>
      </trkpt>
      <trkpt lat="43.747609974816442" lon="7.426789999008179">
        <ele>111.65000000000001</ele>
        <time>2025-05-19T06:26:53Z</time>
      </trkpt>
      <trkpt lat="43.747574016451836" lon="7.426707018166781">
        <ele>111.17</ele>
        <time>2025-05-19T06:26:54Z</time>
      </trkpt>
      <trkpt lat="43.747527999803424" lon="7.426636023446918">
        <ele>111.17</ele>
        <time>2025-05-19T06:26:55Z</time>
      </trkpt>
      <trkpt lat="43.747477037832141" lon="7.426576009020209">
        <ele>110.69</ele>
        <time>2025-05-19T06:26:56Z</time>
      </trkpt>
      <trkpt lat="43.747405959293246" lon="7.426515994593501">
        <ele>110.20999999999999</ele>
        <time>2025-05-19T06:26:57Z</time>
      </trkpt>
      <trkpt lat="43.747313003987074" lon="7.426524963229895">
        <ele>109.73</ele>
        <time>2025-05-19T06:26:58Z</time>
      </trkpt>
      <trkpt lat="43.747253995388746" lon="7.426569974049926">
        <ele>109.73</ele>
        <time>2025-05-19T06:26:59Z</time>
      </trkpt>
      <trkpt lat="43.747194986790419" lon="7.426615990698338">
        <ele>109.25</ele>
        <time>2025-05-19T06:27:00Z</time>
      </trkpt>
      <trkpt lat="43.747140001505613" lon="7.426677010953426">
        <ele>109.25</ele>
        <time>2025-05-19T06:27:01Z</time>
      </trkpt>
      <trkpt lat="43.747104965150356" lon="7.426753034815192">
        <ele>108.29000000000001</ele>
        <time>2025-05-19T06:27:02Z</time>
      </trkpt>
      <trkpt lat="43.74706800095737" lon="7.426834003999829">
        <ele>107.81</ele>
        <time>2025-05-19T06:27:03Z</time>
      </trkpt>
      <trkpt lat="43.747028019279242" lon="7.426902987062931">
        <ele>107.31999999999999</ele>
        <time>2025-05-19T06:27:04Z</time>
      </trkpt>
      <trkpt lat="43.74694000929594" lon="7.426989991217852">
        <ele>105.88</ele>
        <time>2025-05-19T06:27:06Z</time>
      </trkpt>
      <trkpt lat="43.746872032061219" lon="7.426971970126033">
        <ele>105.40000000000001</ele>
        <time>2025-05-19T06:27:07Z</time>
      </trkpt>
      <trkpt lat="43.74683003872633" lon="7.426951015368104">
        <ele>104.92</ele>
        <time>2025-05-19T06:27:08Z</time>
      </trkpt>
      <trkpt lat="43.746816962957382" lon="7.426955038681626">
        <ele>103.95999999999999</ele>
        <time>2025-05-19T06:27:09Z</time>
      </trkpt>
      <trkpt lat="43.746764995157719" lon="7.427040031179786">
        <ele>103.48</ele>
        <time>2025-05-19T06:27:10Z</time>
      </trkpt>
      <trkpt lat="43.746764995157719" lon="7.427057968452573">
        <ele>102.52</ele>
        <time>2025-05-19T06:27:11Z</time>
      </trkpt>
      <trkpt lat="43.746764995157719" lon="7.427057968452573">
        <ele>102.04000000000001</ele>
        <time>2025-05-19T06:27:12Z</time>
      </trkpt>
      <trkpt lat="43.746721995994449" lon="7.427186965942383">
        <ele>101.56</ele>
        <time>2025-05-19T06:27:13Z</time>
      </trkpt>
      <trkpt lat="43.746671034023166" lon="7.427228037267923">
        <ele>101.08</ele>
        <time>2025-05-19T06:27:14Z</time>
      </trkpt>
      <trkpt lat="43.746604984626174" lon="7.427281010895968">
        <ele>100.59999999999999</ele>
        <time>2025-05-19T06:27:15Z</time>
      </trkpt>
      <trkpt lat="43.74653197824955" lon="7.427339013665915">
        <ele>100.11</ele>
        <time>2025-05-19T06:27:16Z</time>
      </trkpt>
      <trkpt lat="43.74590702354908" lon="7.427622992545366">
        <ele>101.56</ele>
        <time>2025-05-19T06:27:24Z</time>
      </trkpt>
      <trkpt lat="43.745741983875632" lon="7.427600026130676">
        <ele>103</ele>
        <time>2025-05-19T06:27:31Z</time>
      </trkpt>
      <trkpt lat="43.745266981422901" lon="7.427446972578764">
        <ele>103</ele>
        <time>2025-05-19T06:27:47Z</time>
      </trkpt>
      <trkpt lat="43.744835983961821" lon="7.427197024226189">
        <ele>103.48</ele>
        <time>2025-05-19T06:28:03Z</time>
      </trkpt>
      <trkpt lat="43.744770018383861" lon="7.427143966779113">
        <ele>103.48</ele>
        <time>2025-05-19T06:28:11Z</time>
      </trkpt>
      <trkpt lat="43.744622999802232" lon="7.427059980109334">
        <ele>102.04000000000001</ele>
        <time>2025-05-19T06:28:20Z</time>
      </trkpt>
      <trkpt lat="43.744575977325439" lon="7.427014969289303">
        <ele>101.08</ele>
        <time>2025-05-19T06:28:32Z</time>
      </trkpt>
      <trkpt lat="43.744541024789214" lon="7.426972975954413">
        <ele>100.59999999999999</ele>
        <time>2025-05-19T06:28:33Z</time>
      </trkpt>
      <trkpt lat="43.744525015354156" lon="7.426954032853246">
        <ele>100.11</ele>
        <time>2025-05-19T06:28:34Z</time>
      </trkpt>
      <trkpt lat="43.744400041177869" lon="7.426840960979462">
        <ele>100.11</ele>
        <time>2025-05-19T06:28:43Z</time>
      </trkpt>
      <trkpt lat="43.744182027876377" lon="7.42662001401186">
        <ele>100.59999999999999</ele>
        <time>2025-05-19T06:28:48Z</time>
      </trkpt>
      <trkpt lat="43.743896959349513" lon="7.426296975463629">
        <ele>100.59999999999999</ele>
        <time>2025-05-19T06:28:54Z</time>
      </trkpt>
      <trkpt lat="43.743849014863372" lon="7.426242996007204">
        <ele>101.08</ele>
        <time>2025-05-19T06:28:55Z</time>
      </trkpt>
      <trkpt lat="43.743738038465381" lon="7.426119027659297">
        <ele>101.56</ele>
        <time>2025-05-19T06:28:57Z</time>
      </trkpt>
      <trkpt lat="43.743685986846685" lon="7.42606102488935">
        <ele>101.56</ele>
        <time>2025-05-19T06:28:58Z</time>
      </trkpt>
      <trkpt lat="43.743644999340177" lon="7.426015008240938">
        <ele>102.04000000000001</ele>
        <time>2025-05-19T06:28:59Z</time>
      </trkpt>
      <trkpt lat="43.743504015728831" lon="7.425857009366155">
        <ele>102.04000000000001</ele>
        <time>2025-05-19T06:29:00Z</time>
      </trkpt>
      <trkpt lat="43.743504015728831" lon="7.425857009366155">
        <ele>102.52</ele>
        <time>2025-05-19T06:29:01Z</time>
      </trkpt>
      <trkpt lat="43.743504015728831" lon="7.425857009366155">
        <ele>102.52</ele>
        <time>2025-05-19T06:29:02Z</time>
      </trkpt>
      <trkpt lat="43.743504015728831" lon="7.425857009366155">
        <ele>103</ele>
        <time>2025-05-19T06:29:03Z</time>
      </trkpt>
      <trkpt lat="43.743504015728831" lon="7.425857009366155">
        <ele>103</ele>
        <time>2025-05-19T06:29:04Z</time>
      </trkpt>
      <trkpt lat="43.743411982432008" lon="7.425743015483022">
        <ele>103.95999999999999</ele>
        <time>2025-05-19T06:29:13Z</time>
      </trkpt>
      <trkpt lat="43.743172008544207" lon="7.425456019118428">
        <ele>102.52</ele>
        <time>2025-05-19T06:29:25Z</time>
      </trkpt>
      <trkpt lat="43.742976961657405" lon="7.425230965018272">
        <ele>101.08</ele>
        <time>2025-05-19T06:29:35Z</time>
      </trkpt>
      <trkpt lat="43.74294200912118" lon="7.425189977511764">
        <ele>101.08</ele>
        <time>2025-05-19T06:29:36Z</time>
      </trkpt>
      <trkpt lat="43.742902027443051" lon="7.425143960863352">
        <ele>101.08</ele>
        <time>2025-05-19T06:29:37Z</time>
      </trkpt>
      <trkpt lat="43.742863973602653" lon="7.425099033862352">
        <ele>101.08</ele>
        <time>2025-05-19T06:29:38Z</time>
      </trkpt>
      <trkpt lat="43.742736987769604" lon="7.424946986138821">
        <ele>101.08</ele>
        <time>2025-05-19T06:29:43Z</time>
      </trkpt>
      <trkpt lat="43.74272801913321" lon="7.424936005845666">
        <ele>101.08</ele>
        <time>2025-05-19T06:29:44Z</time>
      </trkpt>
      <trkpt lat="43.742712009698153" lon="7.424916978925467">
        <ele>100.59999999999999</ele>
        <time>2025-05-19T06:29:50Z</time>
      </trkpt>
      <trkpt lat="43.742690971121192" lon="7.424892000854015">
        <ele>100.59999999999999</ele>
        <time>2025-05-19T06:29:51Z</time>
      </trkpt>
      <trkpt lat="43.742662975564599" lon="7.42485897615552">
        <ele>100.11</ele>
        <time>2025-05-19T06:29:52Z</time>
      </trkpt>
      <trkpt lat="43.742631962522864" lon="7.424822011962533">
        <ele>100.11</ele>
        <time>2025-05-19T06:29:53Z</time>
      </trkpt>
      <trkpt lat="43.742601033300161" lon="7.424785969778895">
        <ele>99.629999999999995</ele>
        <time>2025-05-19T06:29:54Z</time>
      </trkpt>
      <trkpt lat="43.742412021383643" lon="7.424556976184249">
        <ele>97.230000000000004</ele>
        <time>2025-05-19T06:30:00Z</time>
      </trkpt>
      <trkpt lat="43.742387965321541" lon="7.424525963142514">
        <ele>96.75</ele>
        <time>2025-05-19T06:30:01Z</time>
      </trkpt>
      <trkpt lat="43.742258967831731" lon="7.424333011731505">
        <ele>94.349999999999994</ele>
        <time>2025-05-19T06:30:04Z</time>
      </trkpt>
      <trkpt lat="43.742227032780647" lon="7.424339968711138">
        <ele>92.900000000000006</ele>
        <time>2025-05-19T06:30:05Z</time>
      </trkpt>
      <trkpt lat="43.74216802418232" lon="7.424351032823324">
        <ele>91.939999999999998</ele>
        <time>2025-05-19T06:30:06Z</time>
      </trkpt>
      <trkpt lat="43.742114966735244" lon="7.424380034208298">
        <ele>90.980000000000004</ele>
        <time>2025-05-19T06:30:07Z</time>
      </trkpt>
      <trkpt lat="43.742066016420722" lon="7.424414986744523">
        <ele>90.019999999999996</ele>
        <time>2025-05-19T06:30:08Z</time>
      </trkpt>
      <trkpt lat="43.742001978680491" lon="7.424462009221315">
        <ele>89.540000000000006</ele>
        <time>2025-05-19T06:30:09Z</time>
      </trkpt>
      <trkpt lat="43.74195596203208" lon="7.424508025869727">
        <ele>89.060000000000002</ele>
        <time>2025-05-19T06:30:10Z</time>
      </trkpt>
      <trkpt lat="43.741899970918894" lon="7.424564016982913">
        <ele>88.099999999999994</ele>
        <time>2025-05-19T06:30:11Z</time>
      </trkpt>
      <trkpt lat="43.741872981190681" lon="7.424591006711125">
        <ele>87.140000000000001</ele>
        <time>2025-05-19T06:30:12Z</time>
      </trkpt>
      <trkpt lat="43.741813972592354" lon="7.424681028351188">
        <ele>85.689999999999998</ele>
        <time>2025-05-19T06:30:13Z</time>
      </trkpt>
      <trkpt lat="43.741771979257464" lon="7.424744982272387">
        <ele>84.730000000000004</ele>
        <time>2025-05-19T06:30:14Z</time>
      </trkpt>
      <trkpt lat="43.741731997579336" lon="7.424807008355856">
        <ele>83.769999999999996</ele>
        <time>2025-05-19T06:30:15Z</time>
      </trkpt>
      <trkpt lat="43.741657985374331" lon="7.424919996410608">
        <ele>78.480000000000004</ele>
        <time>2025-05-19T06:30:21Z</time>
      </trkpt>
      <trkpt lat="43.741621021181345" lon="7.424976993352175">
        <ele>77.519999999999996</ele>
        <time>2025-05-19T06:30:23Z</time>
      </trkpt>
      <trkpt lat="43.741551032289863" lon="7.425084030255675">
        <ele>71.269999999999996</ele>
        <time>2025-05-19T06:30:31Z</time>
      </trkpt>
      <trkpt lat="43.741492023691535" lon="7.425026027485728">
        <ele>69.829999999999998</ele>
        <time>2025-05-19T06:30:52Z</time>
      </trkpt>
      <trkpt lat="43.7412020098418" lon="7.424758980050683">
        <ele>69.349999999999994</ele>
        <time>2025-05-19T06:30:59Z</time>
      </trkpt>
      <trkpt lat="43.741113999858499" lon="7.424683962017298">
        <ele>68.390000000000001</ele>
        <time>2025-05-19T06:31:01Z</time>
      </trkpt>
      <trkpt lat="43.741064965724945" lon="7.424657978117466">
        <ele>68.390000000000001</ele>
        <time>2025-05-19T06:31:02Z</time>
      </trkpt>
      <trkpt lat="43.741025989875197" lon="7.42466501891613">
        <ele>67.909999999999997</ele>
        <time>2025-05-19T06:31:03Z</time>
      </trkpt>
      <trkpt lat="43.740986008197069" lon="7.424672981724143">
        <ele>67.430000000000007</ele>
        <time>2025-05-19T06:31:04Z</time>
      </trkpt>
      <trkpt lat="43.740960024297237" lon="7.424693014472723">
        <ele>66.950000000000003</ele>
        <time>2025-05-19T06:31:05Z</time>
      </trkpt>
      <trkpt lat="43.740937979891896" lon="7.424725033342838">
        <ele>66.469999999999999</ele>
        <time>2025-05-19T06:31:06Z</time>
      </trkpt>
      <trkpt lat="43.740920964628458" lon="7.424749005585909">
        <ele>65.989999999999995</ele>
        <time>2025-05-19T06:31:07Z</time>
      </trkpt>
      <trkpt lat="43.740920964628458" lon="7.424749005585909">
        <ele>65.030000000000001</ele>
        <time>2025-05-19T06:31:19Z</time>
      </trkpt>
      <trkpt lat="43.740866985172033" lon="7.424826035276055">
        <ele>64.549999999999997</ele>
        <time>2025-05-19T06:31:59Z</time>
      </trkpt>
      <trkpt lat="43.740851981565356" lon="7.424846990033984">
        <ele>65.030000000000001</ele>
        <time>2025-05-19T06:32:00Z</time>
      </trkpt>
      <trkpt lat="43.740777969360352" lon="7.424855036661029">
        <ele>65.510000000000005</ele>
        <time>2025-05-19T06:32:01Z</time>
      </trkpt>
      <trkpt lat="43.740742010995746" lon="7.424825029447675">
        <ele>65.989999999999995</ele>
        <time>2025-05-19T06:32:02Z</time>
      </trkpt>
      <trkpt lat="43.740693982690573" lon="7.424784963950515">
        <ele>66.950000000000003</ele>
        <time>2025-05-19T06:32:03Z</time>
      </trkpt>
      <trkpt lat="43.740633968263865" lon="7.424727967008948">
        <ele>67.909999999999997</ele>
        <time>2025-05-19T06:32:04Z</time>
      </trkpt>
      <trkpt lat="43.740199031308293" lon="7.424311973154545">
        <ele>70.310000000000002</ele>
        <time>2025-05-19T06:32:11Z</time>
      </trkpt>
      <trkpt lat="43.740269020199776" lon="7.424379028379917">
        <ele>70.310000000000002</ele>
        <time>2025-05-19T06:32:12Z</time>
      </trkpt>
      <trkpt lat="43.740254016593099" lon="7.42436402477324">
        <ele>70.790000000000006</ele>
        <time>2025-05-19T06:32:13Z</time>
      </trkpt>
      <trkpt lat="43.740242030471563" lon="7.424352960661054">
        <ele>71.269999999999996</ele>
        <time>2025-05-19T06:32:14Z</time>
      </trkpt>
      <trkpt lat="43.740228032693267" lon="7.424338962882757">
        <ele>71.760000000000005</ele>
        <time>2025-05-19T06:32:15Z</time>
      </trkpt>
      <trkpt lat="43.7402159627527" lon="7.424327982589603">
        <ele>72.719999999999999</ele>
        <time>2025-05-19T06:32:24Z</time>
      </trkpt>
      <trkpt lat="43.740185033529997" lon="7.424319013953209">
        <ele>73.680000000000007</ele>
        <time>2025-05-19T06:32:31Z</time>
      </trkpt>
      <trkpt lat="43.740180004388094" lon="7.42432102560997">
        <ele>73.200000000000003</ele>
        <time>2025-05-19T06:32:32Z</time>
      </trkpt>
      <trkpt lat="43.740198025479913" lon="7.424311973154545">
        <ele>73.200000000000003</ele>
        <time>2025-05-19T06:32:33Z</time>
      </trkpt>
      <trkpt lat="43.740582000464201" lon="7.424783958122134">
        <ele>69.829999999999998</ele>
        <time>2025-05-19T06:32:39Z</time>
      </trkpt>
      <trkpt lat="43.74062399379909" lon="7.424823017790914">
        <ele>69.349999999999994</ele>
        <time>2025-05-19T06:32:40Z</time>
      </trkpt>
      <trkpt lat="43.740628017112613" lon="7.424827041104436">
        <ele>68.870000000000005</ele>
        <time>2025-05-19T06:32:41Z</time>
      </trkpt>
      <trkpt lat="43.740657018497586" lon="7.42490197531879">
        <ele>68.390000000000001</ele>
        <time>2025-05-19T06:32:42Z</time>
      </trkpt>
      <trkpt lat="43.740677973255515" lon="7.424957966431975">
        <ele>67.430000000000007</ele>
        <time>2025-05-19T06:32:43Z</time>
      </trkpt>
      <trkpt lat="43.740692976862192" lon="7.424998031929135">
        <ele>66.950000000000003</ele>
        <time>2025-05-19T06:32:44Z</time>
      </trkpt>
      <trkpt lat="43.740692976862192" lon="7.425055028870702">
        <ele>65.989999999999995</ele>
        <time>2025-05-19T06:32:45Z</time>
      </trkpt>
      <trkpt lat="43.740690965205431" lon="7.425112025812268">
        <ele>65.030000000000001</ele>
        <time>2025-05-19T06:32:46Z</time>
      </trkpt>
      <trkpt lat="43.740671016275883" lon="7.425192994996905">
        <ele>64.549999999999997</ele>
        <time>2025-05-19T06:32:47Z</time>
      </trkpt>
      <trkpt lat="43.740649977698922" lon="7.425276981666684">
        <ele>63.579999999999998</ele>
        <time>2025-05-19T06:32:48Z</time>
      </trkpt>
      <trkpt lat="43.740632962435484" lon="7.425314029678702">
        <ele>62.619999999999997</ele>
        <time>2025-05-19T06:32:49Z</time>
      </trkpt>
      <trkpt lat="43.740613013505936" lon="7.425360968336463">
        <ele>62.140000000000001</ele>
        <time>2025-05-19T06:32:50Z</time>
      </trkpt>
      <trkpt lat="43.740582000464201" lon="7.425431041046977">
        <ele>59.740000000000002</ele>
        <time>2025-05-19T06:32:59Z</time>
      </trkpt>
      <trkpt lat="43.740556016564369" lon="7.425490971654654">
        <ele>59.259999999999998</ele>
        <time>2025-05-19T06:33:32Z</time>
      </trkpt>
      <trkpt lat="43.740530032664537" lon="7.425550986081362">
        <ele>58.299999999999997</ele>
        <time>2025-05-19T06:33:33Z</time>
      </trkpt>
      <trkpt lat="43.740390976890922" lon="7.425565989688039">
        <ele>57.82</ele>
        <time>2025-05-19T06:33:34Z</time>
      </trkpt>
      <trkpt lat="43.740329034626484" lon="7.425535982474685">
        <ele>58.299999999999997</ele>
        <time>2025-05-19T06:33:35Z</time>
      </trkpt>
      <trkpt lat="43.740266002714634" lon="7.425503963604569">
        <ele>58.299999999999997</ele>
        <time>2025-05-19T06:33:36Z</time>
      </trkpt>
      <trkpt lat="43.740201964974403" lon="7.425469011068344">
        <ele>58.299999999999997</ele>
        <time>2025-05-19T06:33:37Z</time>
      </trkpt>
      <trkpt lat="43.74012996442616" lon="7.425431041046977">
        <ele>57.82</ele>
        <time>2025-05-19T06:33:38Z</time>
      </trkpt>
      <trkpt lat="43.740053018555045" lon="7.425389969721437">
        <ele>57.82</ele>
        <time>2025-05-19T06:33:39Z</time>
      </trkpt>
      <trkpt lat="43.739866018295288" lon="7.425279999151826">
        <ele>57.82</ele>
        <time>2025-05-19T06:33:42Z</time>
      </trkpt>
      <trkpt lat="43.739774990826845" lon="7.425221996381879">
        <ele>57.82</ele>
        <time>2025-05-19T06:33:44Z</time>
      </trkpt>
      <trkpt lat="43.739739032462239" lon="7.425199029967189">
        <ele>57.82</ele>
        <time>2025-05-19T06:33:45Z</time>
      </trkpt>
      <trkpt lat="43.739711958914995" lon="7.425228031352162">
        <ele>57.82</ele>
        <time>2025-05-19T06:33:46Z</time>
      </trkpt>
      <trkpt lat="43.739687986671925" lon="7.425284022465348">
        <ele>57.82</ele>
        <time>2025-05-19T06:33:47Z</time>
      </trkpt>
      <trkpt lat="43.739658985286951" lon="7.425351999700069">
        <ele>57.82</ele>
        <time>2025-05-19T06:33:48Z</time>
      </trkpt>
      <trkpt lat="43.739578016102314" lon="7.425544029101729">
        <ele>57.340000000000003</ele>
        <time>2025-05-19T06:33:51Z</time>
      </trkpt>
      <trkpt lat="43.739523030817509" lon="7.425675038248301">
        <ele>56.859999999999999</ele>
        <time>2025-05-19T06:33:53Z</time>
      </trkpt>
      <trkpt lat="43.739491011947393" lon="7.425748966634274">
        <ele>56.369999999999997</ele>
        <time>2025-05-19T06:33:54Z</time>
      </trkpt>
      <trkpt lat="43.739450024440885" lon="7.425790959969163">
        <ele>55.890000000000001</ele>
        <time>2025-05-19T06:33:55Z</time>
      </trkpt>
      <trkpt lat="43.739385986700654" lon="7.425807975232601">
        <ele>55.409999999999997</ele>
        <time>2025-05-19T06:33:56Z</time>
      </trkpt>
      <trkpt lat="43.739335024729371" lon="7.425802024081349">
        <ele>54.93</ele>
        <time>2025-05-19T06:33:57Z</time>
      </trkpt>
      <trkpt lat="43.739288002252579" lon="7.425794983282685">
        <ele>54.450000000000003</ele>
        <time>2025-05-19T06:33:58Z</time>
      </trkpt>
      <trkpt lat="43.739105025306344" lon="7.425771011039615">
        <ele>53.969999999999999</ele>
        <time>2025-05-19T06:33:59Z</time>
      </trkpt>
      <trkpt lat="43.739105025306344" lon="7.425771011039615">
        <ele>53.009999999999998</ele>
        <time>2025-05-19T06:34:00Z</time>
      </trkpt>
      <trkpt lat="43.738892963156104" lon="7.42601802572608">
        <ele>49.649999999999999</ele>
        <time>2025-05-19T06:34:04Z</time>
      </trkpt>
      <trkpt lat="43.738852981477976" lon="7.426092037931085">
        <ele>49.159999999999997</ele>
        <time>2025-05-19T06:34:05Z</time>
      </trkpt>
      <trkpt lat="43.738418966531754" lon="7.42687800899148">
        <ele>41.469999999999999</ele>
        <time>2025-05-19T06:34:15Z</time>
      </trkpt>
      <trkpt lat="43.738348977640271" lon="7.42692100815475">
        <ele>40.509999999999998</ele>
        <time>2025-05-19T06:34:16Z</time>
      </trkpt>
      <trkpt lat="43.738268008455634" lon="7.426971970126033">
        <ele>40.030000000000001</ele>
        <time>2025-05-19T06:34:17Z</time>
      </trkpt>
      <trkpt lat="43.738202964887023" lon="7.42694397456944">
        <ele>39.549999999999997</ele>
        <time>2025-05-19T06:34:18Z</time>
      </trkpt>
      <trkpt lat="43.738125013187528" lon="7.426909022033215">
        <ele>38.590000000000003</ele>
        <time>2025-05-19T06:34:19Z</time>
      </trkpt>
      <trkpt lat="43.738048989325762" lon="7.426853030920029">
        <ele>38.109999999999999</ele>
        <time>2025-05-19T06:34:20Z</time>
      </trkpt>
      <trkpt lat="43.737987969070673" lon="7.426774995401502">
        <ele>37.149999999999999</ele>
        <time>2025-05-19T06:34:21Z</time>
      </trkpt>
      <trkpt lat="43.737930972129107" lon="7.426701989024878">
        <ele>36.670000000000002</ele>
        <time>2025-05-19T06:34:22Z</time>
      </trkpt>
      <trkpt lat="43.737903982400894" lon="7.426600987091661">
        <ele>36.189999999999998</ele>
        <time>2025-05-19T06:34:23Z</time>
      </trkpt>
      <trkpt lat="43.737881015986204" lon="7.426496967673302">
        <ele>35.710000000000001</ele>
        <time>2025-05-19T06:34:24Z</time>
      </trkpt>
      <trkpt lat="43.737862994894385" lon="7.42638498544693">
        <ele>35.710000000000001</ele>
        <time>2025-05-19T06:34:25Z</time>
      </trkpt>
      <trkpt lat="43.737843967974186" lon="7.426271997392178">
        <ele>35.229999999999997</ele>
        <time>2025-05-19T06:34:26Z</time>
      </trkpt>
      <trkpt lat="43.737773979082704" lon="7.425985001027584">
        <ele>34.259999999999998</ele>
        <time>2025-05-19T06:34:29Z</time>
      </trkpt>
      <trkpt lat="43.737741038203239" lon="7.425816021859646">
        <ele>33.780000000000001</ele>
        <time>2025-05-19T06:34:30Z</time>
      </trkpt>
      <trkpt lat="43.737702984362841" lon="7.425690963864327">
        <ele>33.299999999999997</ele>
        <time>2025-05-19T06:34:31Z</time>
      </trkpt>
      <trkpt lat="43.737465022131801" lon="7.424985961988568">
        <ele>30.420000000000002</ele>
        <time>2025-05-19T06:34:36Z</time>
      </trkpt>
      <trkpt lat="43.737449012696743" lon="7.424841960892081">
        <ele>29.460000000000001</ele>
        <time>2025-05-19T06:34:37Z</time>
      </trkpt>
      <trkpt lat="43.737431997433305" lon="7.424696031957865">
        <ele>28.5</ele>
        <time>2025-05-19T06:34:38Z</time>
      </trkpt>
      <trkpt lat="43.737415987998247" lon="7.424551025032997">
        <ele>27.050000000000001</ele>
        <time>2025-05-19T06:34:39Z</time>
      </trkpt>
      <trkpt lat="43.737398972734809" lon="7.424403000622988">
        <ele>25.129999999999999</ele>
        <time>2025-05-19T06:34:40Z</time>
      </trkpt>
      <trkpt lat="43.737367037683725" lon="7.424119021743536">
        <ele>22.25</ele>
        <time>2025-05-19T06:34:42Z</time>
      </trkpt>
      <trkpt lat="43.73733501881361" lon="7.423960017040372">
        <ele>20.32</ele>
        <time>2025-05-19T06:34:43Z</time>
      </trkpt>
      <trkpt lat="43.737302999943495" lon="7.42380796931684">
        <ele>18.879999999999999</ele>
        <time>2025-05-19T06:34:44Z</time>
      </trkpt>
      <trkpt lat="43.737272992730141" lon="7.423663968220353">
        <ele>17.920000000000002</ele>
        <time>2025-05-19T06:34:45Z</time>
      </trkpt>
      <trkpt lat="43.737243991345167" lon="7.423523990437388">
        <ele>16.48</ele>
        <time>2025-05-19T06:34:46Z</time>
      </trkpt>
      <trkpt lat="43.737217001616955" lon="7.423387030139566">
        <ele>14.56</ele>
        <time>2025-05-19T06:34:47Z</time>
      </trkpt>
      <trkpt lat="43.737191017717123" lon="7.423253003507853">
        <ele>13.119999999999999</ele>
        <time>2025-05-19T06:34:48Z</time>
      </trkpt>
      <trkpt lat="43.737164027988911" lon="7.423114031553268">
        <ele>11.67</ele>
        <time>2025-05-19T06:34:49Z</time>
      </trkpt>
      <trkpt lat="43.737131003290415" lon="7.422938011586666">
        <ele>10.23</ele>
        <time>2025-05-19T06:34:50Z</time>
      </trkpt>
      <trkpt lat="43.737100996077061" lon="7.422714969143271">
        <ele>6.87</ele>
        <time>2025-05-19T06:34:52Z</time>
      </trkpt>
      <trkpt lat="43.737071994692087" lon="7.42249502800405">
        <ele>3.5</ele>
        <time>2025-05-19T06:34:54Z</time>
      </trkpt>
      <trkpt lat="43.73705699108541" lon="7.42238799110055">
        <ele>2.06</ele>
        <time>2025-05-19T06:34:55Z</time>
      </trkpt>
      <trkpt lat="43.737002005800605" lon="7.421865966171026">
        <ele>-2.27</ele>
        <time>2025-05-19T06:35:00Z</time>
      </trkpt>
      <trkpt lat="43.736996976658702" lon="7.421820033341646">
        <ele>-2.27</ele>
        <time>2025-05-19T06:35:01Z</time>
      </trkpt>
      <trkpt lat="43.736979961395264" lon="7.421650970354676">
        <ele>-2.27</ele>
        <time>2025-05-19T06:35:02Z</time>
      </trkpt>
      <trkpt lat="43.736951965838671" lon="7.421554997563362">
        <ele>-2.75</ele>
        <time>2025-05-19T06:35:04Z</time>
      </trkpt>
      <trkpt lat="43.736920030787587" lon="7.421506969258189">
        <ele>-3.23</ele>
        <time>2025-05-19T06:35:05Z</time>
      </trkpt>
      <trkpt lat="43.736916007474065" lon="7.421501018106937">
        <ele>-3.71</ele>
        <time>2025-05-19T06:35:06Z</time>
      </trkpt>
      <trkpt lat="43.73686202801764" lon="7.421544017270207">
        <ele>-4.19</ele>
        <time>2025-05-19T06:35:07Z</time>
      </trkpt>
      <trkpt lat="43.736845012754202" lon="7.421558015048504">
        <ele>-4.67</ele>
        <time>2025-05-19T06:35:08Z</time>
      </trkpt>
      <trkpt lat="43.736808970570564" lon="7.421587016433477">
        <ele>-4.67</ele>
        <time>2025-05-19T06:35:09Z</time>
      </trkpt>
      <trkpt lat="43.736808970570564" lon="7.421587016433477">
        <ele>-4.67</ele>
        <time>2025-05-19T06:35:10Z</time>
      </trkpt>
      <trkpt lat="43.736787009984255" lon="7.421630015596747">
        <ele>-5.15</ele>
        <time>2025-05-19T06:35:11Z</time>
      </trkpt>
      <trkpt lat="43.736796984449029" lon="7.421651976183057">
        <ele>-4.67</ele>
        <time>2025-05-19T06:35:12Z</time>
      </trkpt>
      <trkpt lat="43.736827997490764" lon="7.421724982559681">
        <ele>-4.19</ele>
        <time>2025-05-19T06:35:13Z</time>
      </trkpt>
      <trkpt lat="43.736853981390595" lon="7.42180896922946">
        <ele>-4.67</ele>
        <time>2025-05-19T06:35:14Z</time>
      </trkpt>
      <trkpt lat="43.736860016360879" lon="7.421878958120942">
        <ele>-4.67</ele>
        <time>2025-05-19T06:35:15Z</time>
      </trkpt>
      <trkpt lat="43.736869990825653" lon="7.421995969489217">
        <ele>-4.67</ele>
        <time>2025-05-19T06:35:17Z</time>
      </trkpt>
      <trkpt lat="43.736877031624317" lon="7.422075010836124">
        <ele>-4.67</ele>
        <time>2025-05-19T06:35:18Z</time>
      </trkpt>
      <trkpt lat="43.736895974725485" lon="7.422243990004063">
        <ele>-5.63</ele>
        <time>2025-05-19T06:35:20Z</time>
      </trkpt>
      <trkpt lat="43.736915001645684" lon="7.422434007748961">
        <ele>-6.11</ele>
        <time>2025-05-19T06:35:22Z</time>
      </trkpt>
      <trkpt lat="43.736953977495432" lon="7.42283801548183">
        <ele>-8.029999999999999</ele>
        <time>2025-05-19T06:35:28Z</time>
      </trkpt>
      <trkpt lat="43.736958000808954" lon="7.42288202047348">
        <ele>-8.51</ele>
        <time>2025-05-19T06:35:29Z</time>
      </trkpt>
      <trkpt lat="43.736961018294096" lon="7.422908004373312">
        <ele>-8.51</ele>
        <time>2025-05-19T06:35:30Z</time>
      </trkpt>
      <trkpt lat="43.736963029950857" lon="7.422930970788002">
        <ele>-8.029999999999999</ele>
        <time>2025-05-19T06:35:31Z</time>
      </trkpt>
      <trkpt lat="43.736965963616967" lon="7.422957038506866">
        <ele>-8.029999999999999</ele>
        <time>2025-05-19T06:35:32Z</time>
      </trkpt>
      <trkpt lat="43.736966969445348" lon="7.422975981608033">
        <ele>-8.029999999999999</ele>
        <time>2025-05-19T06:35:33Z</time>
      </trkpt>
      <trkpt lat="43.736966969445348" lon="7.422975981608033">
        <ele>-8.029999999999999</ele>
        <time>2025-05-19T06:35:34Z</time>
      </trkpt>
      <trkpt lat="43.73697099275887" lon="7.42301101796329">
        <ele>-7.55</ele>
        <time>2025-05-19T06:35:35Z</time>
      </trkpt>
      <trkpt lat="43.73697099275887" lon="7.42301101796329">
        <ele>-8.51</ele>
        <time>2025-05-19T06:35:51Z</time>
      </trkpt>
      <trkpt lat="43.73697099275887" lon="7.42301101796329">
        <ele>-7.55</ele>
        <time>2025-05-19T06:36:24Z</time>
      </trkpt>
      <trkpt lat="43.73697099275887" lon="7.42301101796329">
        <ele>-8.029999999999999</ele>
        <time>2025-05-19T06:37:09Z</time>
      </trkpt>
      <trkpt lat="43.73697099275887" lon="7.42301101796329">
        <ele>-7.55</ele>
        <time>2025-05-19T06:37:54Z</time>
      </trkpt>
      <trkpt lat="43.740154020488262" lon="7.430324982851744">
        <ele>-9</ele>
        <time>2025-05-19T06:45:26Z</time>
      </trkpt>
      <trkpt lat="43.74075198546052" lon="7.430360019207001">
        <ele>2.06</ele>
        <time>2025-05-19T06:45:39Z</time>
      </trkpt>
      <trkpt lat="43.741057002916932" lon="7.430383991450071">
        <ele>10.23</ele>
        <time>2025-05-19T06:45:49Z</time>
      </trkpt>
      <trkpt lat="43.741127997636795" lon="7.430383991450071">
        <ele>10.710000000000001</ele>
        <time>2025-05-19T06:45:59Z</time>
      </trkpt>
      <trkpt lat="43.741127997636795" lon="7.430383991450071">
        <ele>15.039999999999999</ele>
        <time>2025-05-19T06:46:12Z</time>
      </trkpt>
      <trkpt lat="43.741317009553313" lon="7.430407963693142">
        <ele>15.039999999999999</ele>
        <time>2025-05-19T06:46:17Z</time>
      </trkpt>
      <trkpt lat="43.741518007591367" lon="7.430411987006664">
        <ele>14.08</ele>
        <time>2025-05-19T06:46:20Z</time>
      </trkpt>
      <trkpt lat="43.741593025624752" lon="7.430374016985297">
        <ele>13.6</ele>
        <time>2025-05-19T06:46:21Z</time>
      </trkpt>
      <trkpt lat="43.741651028394699" lon="7.430312996730208">
        <ele>13.119999999999999</ele>
        <time>2025-05-19T06:46:22Z</time>
      </trkpt>
      <trkpt lat="43.741708025336266" lon="7.430234039202333">
        <ele>13.119999999999999</ele>
        <time>2025-05-19T06:46:23Z</time>
      </trkpt>
      <trkpt lat="43.741743983700871" lon="7.430170001462102">
        <ele>12.630000000000001</ele>
        <time>2025-05-19T06:46:24Z</time>
      </trkpt>
      <trkpt lat="43.741808021441102" lon="7.429998004809022">
        <ele>12.630000000000001</ele>
        <time>2025-05-19T06:46:25Z</time>
      </trkpt>
      <trkpt lat="43.741808021441102" lon="7.429998004809022">
        <ele>12.630000000000001</ele>
        <time>2025-05-19T06:46:26Z</time>
      </trkpt>
      <trkpt lat="43.741808021441102" lon="7.429998004809022">
        <ele>12.630000000000001</ele>
        <time>2025-05-19T06:46:27Z</time>
      </trkpt>
      <trkpt lat="43.741894019767642" lon="7.429933967068791">
        <ele>13.119999999999999</ele>
        <time>2025-05-19T06:46:28Z</time>
      </trkpt>
      <trkpt lat="43.741898965090513" lon="7.429932961240411">
        <ele>12.15</ele>
        <time>2025-05-19T06:46:35Z</time>
      </trkpt>
      <trkpt lat="43.741936013102531" lon="7.42992801591754">
        <ele>12.15</ele>
        <time>2025-05-19T06:46:36Z</time>
      </trkpt>
      <trkpt lat="43.742144973948598" lon="7.429901026189327">
        <ele>12.630000000000001</ele>
        <time>2025-05-19T06:46:39Z</time>
      </trkpt>
      <trkpt lat="43.742228038609028" lon="7.429889962077141">
        <ele>12.630000000000001</ele>
        <time>2025-05-19T06:46:40Z</time>
      </trkpt>
      <trkpt lat="43.742932034656405" lon="7.429797006770968">
        <ele>13.6</ele>
        <time>2025-05-19T06:46:47Z</time>
      </trkpt>
      <trkpt lat="43.743035970255733" lon="7.429976966232061">
        <ele>14.08</ele>
        <time>2025-05-19T06:46:48Z</time>
      </trkpt>
      <trkpt lat="43.743122974410653" lon="7.4299939814955">
        <ele>15.039999999999999</ele>
        <time>2025-05-19T06:46:49Z</time>
      </trkpt>
      <trkpt lat="43.743208972737193" lon="7.430016025900841">
        <ele>15.52</ele>
        <time>2025-05-19T06:46:50Z</time>
      </trkpt>
      <trkpt lat="43.743307963013649" lon="7.430039998143911">
        <ele>15.52</ele>
        <time>2025-05-19T06:46:51Z</time>
      </trkpt>
      <trkpt lat="43.74339597299695" lon="7.430061958730221">
        <ele>15.52</ele>
        <time>2025-05-19T06:46:52Z</time>
      </trkpt>
      <trkpt lat="43.74369696713984" lon="7.430234039202333">
        <ele>16</ele>
        <time>2025-05-19T06:46:55Z</time>
      </trkpt>
      <trkpt lat="43.744340026751161" lon="7.430170001462102">
        <ele>17.920000000000002</ele>
        <time>2025-05-19T06:47:00Z</time>
      </trkpt>
      <trkpt lat="43.74440498650074" lon="7.430191040039063">
        <ele>18.399999999999999</ele>
        <time>2025-05-19T06:47:01Z</time>
      </trkpt>
      <trkpt lat="43.744890969246626" lon="7.430492034181953">
        <ele>21.289999999999999</ele>
        <time>2025-05-19T06:47:09Z</time>
      </trkpt>
      <trkpt lat="43.745036981999874" lon="7.430583983659744">
        <ele>21.77</ele>
        <time>2025-05-19T06:47:13Z</time>
      </trkpt>
      <trkpt lat="43.74509297311306" lon="7.430621031671763">
        <ele>21.77</ele>
        <time>2025-05-19T06:47:14Z</time>
      </trkpt>
      <trkpt lat="43.745150975883007" lon="7.430646009743214">
        <ele>21.77</ele>
        <time>2025-05-19T06:47:15Z</time>
      </trkpt>
      <trkpt lat="43.745208978652954" lon="7.430670987814665">
        <ele>22.25</ele>
        <time>2025-05-19T06:47:16Z</time>
      </trkpt>
      <trkpt lat="43.745266981422901" lon="7.430696971714497">
        <ele>22.25</ele>
        <time>2025-05-19T06:47:17Z</time>
      </trkpt>
      <trkpt lat="43.745320038869977" lon="7.430715998634696">
        <ele>22.25</ele>
        <time>2025-05-19T06:47:18Z</time>
      </trkpt>
      <trkpt lat="43.74537100084126" lon="7.430731002241373">
        <ele>22.73</ele>
        <time>2025-05-19T06:47:19Z</time>
      </trkpt>
      <trkpt lat="43.745523970574141" lon="7.430856982246041">
        <ele>22.25</ele>
        <time>2025-05-19T06:47:22Z</time>
      </trkpt>
      <trkpt lat="43.745583985000849" lon="7.430911967530847">
        <ele>22.25</ele>
        <time>2025-05-19T06:47:23Z</time>
      </trkpt>
      <trkpt lat="43.746221009641886" lon="7.431513033807278">
        <ele>19.84</ele>
        <time>2025-05-19T06:47:31Z</time>
      </trkpt>
      <trkpt lat="43.746687965467572" lon="7.432263968512416">
        <ele>17.920000000000002</ele>
        <time>2025-05-19T06:47:38Z</time>
      </trkpt>
      <trkpt lat="43.74674797989428" lon="7.432375028729439">
        <ele>17.440000000000001</ele>
        <time>2025-05-19T06:47:39Z</time>
      </trkpt>
      <trkpt lat="43.74681101180613" lon="7.432491034269333">
        <ele>17.440000000000001</ele>
        <time>2025-05-19T06:47:40Z</time>
      </trkpt>
      <trkpt lat="43.747334964573383" lon="7.433375995606184">
        <ele>17.440000000000001</ele>
        <time>2025-05-19T06:47:48Z</time>
      </trkpt>
      <trkpt lat="43.747396990656853" lon="7.433481020852923">
        <ele>17.440000000000001</ele>
        <time>2025-05-19T06:47:49Z</time>
      </trkpt>
      <trkpt lat="43.747581979259849" lon="7.43379601277411">
        <ele>17.440000000000001</ele>
        <time>2025-05-19T06:47:52Z</time>
      </trkpt>
      <trkpt lat="43.748138034716249" lon="7.434739982709289">
        <ele>20.32</ele>
        <time>2025-05-19T06:48:03Z</time>
      </trkpt>
      <trkpt lat="43.748663999140263" lon="7.435683030635119">
        <ele>24.170000000000002</ele>
        <time>2025-05-19T06:48:14Z</time>
      </trkpt>
      <trkpt lat="43.749078987166286" lon="7.436663964763284">
        <ele>21.289999999999999</ele>
        <time>2025-05-19T06:48:22Z</time>
      </trkpt>
      <trkpt lat="43.749427003785968" lon="7.437484972178936">
        <ele>13.6</ele>
        <time>2025-05-19T06:48:29Z</time>
      </trkpt>
      <trkpt lat="43.749472014605999" lon="7.43759997189045">
        <ele>12.15</ele>
        <time>2025-05-19T06:48:30Z</time>
      </trkpt>
      <trkpt lat="43.749514007940888" lon="7.43770600296557">
        <ele>11.19</ele>
        <time>2025-05-19T06:48:31Z</time>
      </trkpt>
      <trkpt lat="43.749547032639384" lon="7.437781020998955">
        <ele>10.23</ele>
        <time>2025-05-19T06:48:32Z</time>
      </trkpt>
      <trkpt lat="43.749579973518848" lon="7.43785603903234">
        <ele>9.75</ele>
        <time>2025-05-19T06:48:33Z</time>
      </trkpt>
      <trkpt lat="43.749609980732203" lon="7.4379220046103">
        <ele>8.310000000000001</ele>
        <time>2025-05-19T06:48:34Z</time>
      </trkpt>
      <trkpt lat="43.749648034572601" lon="7.43800699710846">
        <ele>8.310000000000001</ele>
        <time>2025-05-19T06:48:35Z</time>
      </trkpt>
      <trkpt lat="43.749672006815672" lon="7.438061982393265">
        <ele>7.35</ele>
        <time>2025-05-19T06:48:36Z</time>
      </trkpt>
      <trkpt lat="43.749694973230362" lon="7.438107999041677">
        <ele>6.87</ele>
        <time>2025-05-19T06:48:37Z</time>
      </trkpt>
      <trkpt lat="43.749727997928858" lon="7.438168013468385">
        <ele>6.39</ele>
        <time>2025-05-19T06:48:38Z</time>
      </trkpt>
      <trkpt lat="43.749777032062411" lon="7.438255017623305">
        <ele>6.39</ele>
        <time>2025-05-19T06:48:39Z</time>
      </trkpt>
      <trkpt lat="43.749825982376933" lon="7.438378985971212">
        <ele>6.39</ele>
        <time>2025-05-19T06:48:40Z</time>
      </trkpt>
      <trkpt lat="43.749877028167248" lon="7.438517035916448">
        <ele>6.39</ele>
        <time>2025-05-19T06:48:41Z</time>
      </trkpt>
      <trkpt lat="43.749939976260066" lon="7.438647039234638">
        <ele>5.91</ele>
        <time>2025-05-19T06:48:42Z</time>
      </trkpt>
      <trkpt lat="43.750210041180253" lon="7.439204016700387">
        <ele>4.94</ele>
        <time>2025-05-19T06:48:46Z</time>
      </trkpt>
      <trkpt lat="43.750258991494775" lon="7.439314993098378">
        <ele>5.42</ele>
        <time>2025-05-19T06:48:47Z</time>
      </trkpt>
      <trkpt lat="43.750322023406625" lon="7.439434016123414">
        <ele>5.42</ele>
        <time>2025-05-19T06:48:48Z</time>
      </trkpt>
      <trkpt lat="43.750386983156204" lon="7.439536023885012">
        <ele>5.42</ele>
        <time>2025-05-19T06:48:49Z</time>
      </trkpt>
      <trkpt lat="43.75046200118959" lon="7.4396419711411">
        <ele>5.42</ele>
        <time>2025-05-19T06:48:50Z</time>
      </trkpt>
      <trkpt lat="43.750690994784236" lon="7.43989996612072">
        <ele>7.35</ele>
        <time>2025-05-19T06:48:54Z</time>
      </trkpt>
      <trkpt lat="43.750756038352847" lon="7.439975989982486">
        <ele>7.83</ele>
        <time>2025-05-19T06:48:55Z</time>
      </trkpt>
      <trkpt lat="43.750842036679387" lon="7.440169025212526">
        <ele>8.789999999999999</ele>
        <time>2025-05-19T06:48:56Z</time>
      </trkpt>
      <trkpt lat="43.750823009759188" lon="7.440202971920371">
        <ele>9.27</ele>
        <time>2025-05-19T06:48:57Z</time>
      </trkpt>
      <trkpt lat="43.750797025859356" lon="7.440251000225544">
        <ele>9.75</ele>
        <time>2025-05-19T06:48:58Z</time>
      </trkpt>
      <trkpt lat="43.750629974529147" lon="7.440211018547416">
        <ele>11.19</ele>
        <time>2025-05-19T06:48:59Z</time>
      </trkpt>
      <trkpt lat="43.750610025599599" lon="7.440182017162442">
        <ele>11.19</ele>
        <time>2025-05-19T06:49:00Z</time>
      </trkpt>
      <trkpt lat="43.750582030043006" lon="7.440141029655933">
        <ele>12.15</ele>
        <time>2025-05-19T06:49:01Z</time>
      </trkpt>
      <trkpt lat="43.750541964545846" lon="7.440083026885986">
        <ele>12.630000000000001</ele>
        <time>2025-05-19T06:49:02Z</time>
      </trkpt>
      <trkpt lat="43.750501982867718" lon="7.44002602994442">
        <ele>13.6</ele>
        <time>2025-05-19T06:49:03Z</time>
      </trkpt>
      <trkpt lat="43.750321017578244" lon="7.439668038859963">
        <ele>16.48</ele>
        <time>2025-05-19T06:49:08Z</time>
      </trkpt>
      <trkpt lat="43.750293022021651" lon="7.439590003341436">
        <ele>16.960000000000001</ele>
        <time>2025-05-19T06:49:09Z</time>
      </trkpt>
      <trkpt lat="43.750273995101452" lon="7.439438961446285">
        <ele>17.920000000000002</ele>
        <time>2025-05-19T06:49:11Z</time>
      </trkpt>
      <trkpt lat="43.750295033678412" lon="7.439360003918409">
        <ele>18.399999999999999</ele>
        <time>2025-05-19T06:49:12Z</time>
      </trkpt>
      <trkpt lat="43.750347001478076" lon="7.439286997541785">
        <ele>19.359999999999999</ele>
        <time>2025-05-19T06:49:13Z</time>
      </trkpt>
      <trkpt lat="43.750426964834332" lon="7.439224971458316">
        <ele>20.32</ele>
        <time>2025-05-19T06:49:14Z</time>
      </trkpt>
      <trkpt lat="43.750508017838001" lon="7.439224971458316">
        <ele>20.809999999999999</ele>
        <time>2025-05-19T06:49:15Z</time>
      </trkpt>
      <trkpt lat="43.750584963709116" lon="7.439224971458316">
        <ele>22.25</ele>
        <time>2025-05-19T06:49:16Z</time>
      </trkpt>
      <trkpt lat="43.750689988955855" lon="7.439286997541785">
        <ele>23.690000000000001</ele>
        <time>2025-05-19T06:49:17Z</time>
      </trkpt>
      <trkpt lat="43.750747991725802" lon="7.439376013353467">
        <ele>24.649999999999999</ele>
        <time>2025-05-19T06:49:18Z</time>
      </trkpt>
      <trkpt lat="43.750804988667369" lon="7.439472991973162">
        <ele>25.609999999999999</ele>
        <time>2025-05-19T06:49:19Z</time>
      </trkpt>
      <trkpt lat="43.751184018328786" lon="7.44002896361053">
        <ele>30.899999999999999</ele>
        <time>2025-05-19T06:49:25Z</time>
      </trkpt>
      <trkpt lat="43.751249983906746" lon="7.440102975815535">
        <ele>31.859999999999999</ele>
        <time>2025-05-19T06:49:26Z</time>
      </trkpt>
      <trkpt lat="43.751331036910415" lon="7.440126026049256">
        <ele>32.82</ele>
        <time>2025-05-19T06:49:27Z</time>
      </trkpt>
      <trkpt lat="43.751407982781529" lon="7.440097024664283">
        <ele>33.780000000000001</ele>
        <time>2025-05-19T06:49:28Z</time>
      </trkpt>
      <trkpt lat="43.751470008864999" lon="7.440033992752433">
        <ele>35.229999999999997</ele>
        <time>2025-05-19T06:49:29Z</time>
      </trkpt>
      <trkpt lat="43.751502027735114" lon="7.439929973334074">
        <ele>36.670000000000002</ele>
        <time>2025-05-19T06:49:30Z</time>
      </trkpt>
      <trkpt lat="43.751524994149804" lon="7.43981103412807">
        <ele>37.630000000000003</ele>
        <time>2025-05-19T06:49:31Z</time>
      </trkpt>
      <trkpt lat="43.751548966392875" lon="7.439683964475989">
        <ele>38.590000000000003</ele>
        <time>2025-05-19T06:49:32Z</time>
      </trkpt>
      <trkpt lat="43.751615015789866" lon="7.439218014478684">
        <ele>42.439999999999998</ele>
        <time>2025-05-19T06:49:36Z</time>
      </trkpt>
      <trkpt lat="43.751615015789866" lon="7.439112989231944">
        <ele>41.950000000000003</ele>
        <time>2025-05-19T06:49:37Z</time>
      </trkpt>
      <trkpt lat="43.751615015789866" lon="7.439009975641966">
        <ele>41.950000000000003</ele>
        <time>2025-05-19T06:49:38Z</time>
      </trkpt>
      <trkpt lat="43.751633036881685" lon="7.438810989260674">
        <ele>41.950000000000003</ele>
        <time>2025-05-19T06:49:40Z</time>
      </trkpt>
      <trkpt lat="43.751661032438278" lon="7.438714010640979">
        <ele>41.950000000000003</ele>
        <time>2025-05-19T06:49:41Z</time>
      </trkpt>
      <trkpt lat="43.751753987744451" lon="7.438421985134482">
        <ele>41.950000000000003</ele>
        <time>2025-05-19T06:49:44Z</time>
      </trkpt>
      <trkpt lat="43.751834034919739" lon="7.43820296600461">
        <ele>42.920000000000002</ele>
        <time>2025-05-19T06:49:47Z</time>
      </trkpt>
      <trkpt lat="43.751864964142442" lon="7.43811596184969">
        <ele>42.920000000000002</ele>
        <time>2025-05-19T06:49:48Z</time>
      </trkpt>
      <trkpt lat="43.751915004104376" lon="7.437980007380247">
        <ele>43.399999999999999</ele>
        <time>2025-05-19T06:49:49Z</time>
      </trkpt>
      <trkpt lat="43.751884996891022" lon="7.437867019325495">
        <ele>43.399999999999999</ele>
        <time>2025-05-19T06:49:50Z</time>
      </trkpt>
      <trkpt lat="43.751850966364145" lon="7.437809016555548">
        <ele>43.399999999999999</ele>
        <time>2025-05-19T06:49:51Z</time>
      </trkpt>
      <trkpt lat="43.751765973865986" lon="7.437787977978587">
        <ele>43.399999999999999</ele>
        <time>2025-05-19T06:49:52Z</time>
      </trkpt>
      <trkpt lat="43.751717023551464" lon="7.437774986028671">
        <ele>43.399999999999999</ele>
        <time>2025-05-19T06:49:53Z</time>
      </trkpt>
      <trkpt lat="43.751671006903052" lon="7.437768029049039">
        <ele>43.399999999999999</ele>
        <time>2025-05-19T06:49:54Z</time>
      </trkpt>
      <trkpt lat="43.751592971384525" lon="7.437786972150207">
        <ele>43.399999999999999</ele>
        <time>2025-05-19T06:49:55Z</time>
      </trkpt>
      <trkpt lat="43.751565981656313" lon="7.437798036262393">
        <ele>43.399999999999999</ele>
        <time>2025-05-19T06:49:56Z</time>
      </trkpt>
      <trkpt lat="43.751509990543127" lon="7.437819996848702">
        <ele>43.399999999999999</ele>
        <time>2025-05-19T06:49:57Z</time>
      </trkpt>
      <trkpt lat="43.751414017751813" lon="7.437884034588933">
        <ele>43.399999999999999</ele>
        <time>2025-05-19T06:49:59Z</time>
      </trkpt>
      <trkpt lat="43.751366995275021" lon="7.437927033752203">
        <ele>43.399999999999999</ele>
        <time>2025-05-19T06:50:00Z</time>
      </trkpt>
      <trkpt lat="43.751352997496724" lon="7.437985958531499">
        <ele>43.880000000000003</ele>
        <time>2025-05-19T06:50:01Z</time>
      </trkpt>
      <trkpt lat="43.751345034688711" lon="7.4380739685148">
        <ele>44.359999999999999</ele>
        <time>2025-05-19T06:50:02Z</time>
      </trkpt>
      <trkpt lat="43.751337993890047" lon="7.438150998204947">
        <ele>45.32</ele>
        <time>2025-05-19T06:50:03Z</time>
      </trkpt>
      <trkpt lat="43.751349980011582" lon="7.438198020681739">
        <ele>46.759999999999998</ele>
        <time>2025-05-19T06:50:04Z</time>
      </trkpt>
      <trkpt lat="43.751400019973516" lon="7.438281001523137">
        <ele>48.200000000000003</ele>
        <time>2025-05-19T06:50:05Z</time>
      </trkpt>
      <trkpt lat="43.751442013308406" lon="7.438300028443337">
        <ele>49.649999999999999</ele>
        <time>2025-05-19T06:50:06Z</time>
      </trkpt>
      <trkpt lat="43.751791035756469" lon="7.438512006774545">
        <ele>53.490000000000002</ele>
        <time>2025-05-19T06:50:11Z</time>
      </trkpt>
      <trkpt lat="43.751869993284345" lon="7.438641004264355">
        <ele>53.490000000000002</ele>
        <time>2025-05-19T06:50:13Z</time>
      </trkpt>
      <trkpt lat="43.751933025196195" lon="7.438766984269023">
        <ele>53.009999999999998</ele>
        <time>2025-05-19T06:50:15Z</time>
      </trkpt>
      <trkpt lat="43.751969989389181" lon="7.438842002302408">
        <ele>53.009999999999998</ele>
        <time>2025-05-19T06:50:16Z</time>
      </trkpt>
      <trkpt lat="43.752001002430916" lon="7.438903022557497">
        <ele>52.530000000000001</ele>
        <time>2025-05-19T06:50:17Z</time>
      </trkpt>
      <trkpt lat="43.752070991322398" lon="7.438973011448979">
        <ele>52.530000000000001</ele>
        <time>2025-05-19T06:50:18Z</time>
      </trkpt>
      <trkpt lat="43.75211700797081" lon="7.439019028097391">
        <ele>52.530000000000001</ele>
        <time>2025-05-19T06:50:19Z</time>
      </trkpt>
      <trkpt lat="43.752153972163796" lon="7.439055992290378">
        <ele>52.049999999999997</ele>
        <time>2025-05-19T06:50:20Z</time>
      </trkpt>
      <trkpt lat="43.752184985205531" lon="7.439088011160493">
        <ele>52.049999999999997</ele>
        <time>2025-05-19T06:50:21Z</time>
      </trkpt>
      <trkpt lat="43.752224966883659" lon="7.439126987010241">
        <ele>52.049999999999997</ele>
        <time>2025-05-19T06:50:22Z</time>
      </trkpt>
      <trkpt lat="43.7522660382092" lon="7.439167974516749">
        <ele>51.57</ele>
        <time>2025-05-19T06:50:23Z</time>
      </trkpt>
      <trkpt lat="43.752323035150766" lon="7.439224971458316">
        <ele>51.57</ele>
        <time>2025-05-19T06:50:24Z</time>
      </trkpt>
      <trkpt lat="43.752381959930062" lon="7.439261013641954">
        <ele>51.090000000000003</ele>
        <time>2025-05-19T06:50:25Z</time>
      </trkpt>
      <trkpt lat="43.752429988235235" lon="7.439289009198546">
        <ele>51.090000000000003</ele>
        <time>2025-05-19T06:50:26Z</time>
      </trkpt>
      <trkpt lat="43.752509029582143" lon="7.439348017796874">
        <ele>51.57</ele>
        <time>2025-05-19T06:50:27Z</time>
      </trkpt>
      <trkpt lat="43.752574995160103" lon="7.439397973939776">
        <ele>52.049999999999997</ele>
        <time>2025-05-19T06:50:28Z</time>
      </trkpt>
      <trkpt lat="43.752640038728714" lon="7.439451031386852">
        <ele>52.530000000000001</ele>
        <time>2025-05-19T06:50:29Z</time>
      </trkpt>
      <trkpt lat="43.752710027620196" lon="7.43951003998518">
        <ele>53.009999999999998</ele>
        <time>2025-05-19T06:50:30Z</time>
      </trkpt>
      <trkpt lat="43.752772975713015" lon="7.439582040533423">
        <ele>53.009999999999998</ele>
        <time>2025-05-19T06:50:31Z</time>
      </trkpt>
      <trkpt lat="43.752883030101657" lon="7.439765017479658">
        <ele>53.969999999999999</ele>
        <time>2025-05-19T06:50:33Z</time>
      </trkpt>
      <trkpt lat="43.75316902063787" lon="7.440401958301663">
        <ele>55.890000000000001</ele>
        <time>2025-05-19T06:50:40Z</time>
      </trkpt>
      <trkpt lat="43.753185030072927" lon="7.440510001033545">
        <ele>55.890000000000001</ele>
        <time>2025-05-19T06:50:41Z</time>
      </trkpt>
      <trkpt lat="43.753201961517334" lon="7.440627012401819">
        <ele>56.369999999999997</ele>
        <time>2025-05-19T06:50:42Z</time>
      </trkpt>
      <trkpt lat="43.753242027014494" lon="7.440885007381439">
        <ele>56.859999999999999</ele>
        <time>2025-05-19T06:50:44Z</time>
      </trkpt>
      <trkpt lat="43.753417041152716" lon="7.442481005564332">
        <ele>62.140000000000001</ele>
        <time>2025-05-19T06:50:55Z</time>
      </trkpt>
      <trkpt lat="43.753417041152716" lon="7.442631963640451">
        <ele>62.140000000000001</ele>
        <time>2025-05-19T06:50:56Z</time>
      </trkpt>
      <trkpt lat="43.753403965383768" lon="7.442786023020744">
        <ele>62.619999999999997</ele>
        <time>2025-05-19T06:50:57Z</time>
      </trkpt>
      <trkpt lat="43.753388961777091" lon="7.442938992753625">
        <ele>63.579999999999998</ele>
        <time>2025-05-19T06:50:58Z</time>
      </trkpt>
      <trkpt lat="43.753201961517334" lon="7.445092974230647">
        <ele>66.950000000000003</ele>
        <time>2025-05-19T06:51:12Z</time>
      </trkpt>
      <trkpt lat="43.75321302562952" lon="7.445367984473705">
        <ele>67.430000000000007</ele>
        <time>2025-05-19T06:51:14Z</time>
      </trkpt>
      <trkpt lat="43.753219982609153" lon="7.445495976135135">
        <ele>67.430000000000007</ele>
        <time>2025-05-19T06:51:15Z</time>
      </trkpt>
      <trkpt lat="43.753259964287281" lon="7.445618016645312">
        <ele>67.909999999999997</ele>
        <time>2025-05-19T06:51:16Z</time>
      </trkpt>
      <trkpt lat="43.753322996199131" lon="7.445729998871684">
        <ele>68.390000000000001</ele>
        <time>2025-05-19T06:51:17Z</time>
      </trkpt>
      <trkpt lat="43.753388961777091" lon="7.445847010239959">
        <ele>68.870000000000005</ele>
        <time>2025-05-19T06:51:18Z</time>
      </trkpt>
      <trkpt lat="43.753456017002463" lon="7.445967039093375">
        <ele>68.870000000000005</ele>
        <time>2025-05-19T06:51:19Z</time>
      </trkpt>
      <trkpt lat="43.753526005893946" lon="7.446090001612902">
        <ele>69.349999999999994</ele>
        <time>2025-05-19T06:51:20Z</time>
      </trkpt>
      <trkpt lat="43.753597000613809" lon="7.44621598161757">
        <ele>69.829999999999998</ele>
        <time>2025-05-19T06:51:21Z</time>
      </trkpt>
      <trkpt lat="43.753738990053535" lon="7.446427037939429">
        <ele>70.790000000000006</ele>
        <time>2025-05-19T06:51:23Z</time>
      </trkpt>
      <trkpt lat="43.753819959238172" lon="7.446495015174151">
        <ele>70.790000000000006</ele>
        <time>2025-05-19T06:51:24Z</time>
      </trkpt>
      <trkpt lat="43.753906041383743" lon="7.446524016559124">
        <ele>71.269999999999996</ele>
        <time>2025-05-19T06:51:25Z</time>
      </trkpt>
      <trkpt lat="43.754003020003438" lon="7.446555029600859">
        <ele>71.269999999999996</ele>
        <time>2025-05-19T06:51:26Z</time>
      </trkpt>
      <trkpt lat="43.754099998623133" lon="7.446585036814213">
        <ele>70.790000000000006</ele>
        <time>2025-05-19T06:51:27Z</time>
      </trkpt>
      <trkpt lat="43.754167975857854" lon="7.446605991572142">
        <ele>71.269999999999996</ele>
        <time>2025-05-19T06:51:28Z</time>
      </trkpt>
      <trkpt lat="43.754228996112943" lon="7.446673968806863">
        <ele>70.790000000000006</ele>
        <time>2025-05-19T06:51:29Z</time>
      </trkpt>
      <trkpt lat="43.754253974184394" lon="7.446700958535075">
        <ele>71.269999999999996</ele>
        <time>2025-05-19T06:51:30Z</time>
      </trkpt>
      <trkpt lat="43.754302002489567" lon="7.446755021810532">
        <ele>71.760000000000005</ele>
        <time>2025-05-19T06:51:38Z</time>
      </trkpt>
      <trkpt lat="43.754302002489567" lon="7.446755021810532">
        <ele>71.760000000000005</ele>
        <time>2025-05-19T06:51:47Z</time>
      </trkpt>
      <trkpt lat="43.754380960017443" lon="7.446872033178806">
        <ele>72.239999999999995</ele>
        <time>2025-05-19T06:52:07Z</time>
      </trkpt>
      <trkpt lat="43.754549017176032" lon="7.447300013154745">
        <ele>71.760000000000005</ele>
        <time>2025-05-19T06:52:17Z</time>
      </trkpt>
      <trkpt lat="43.754777004942298" lon="7.447539987042546">
        <ele>70.310000000000002</ele>
        <time>2025-05-19T06:52:27Z</time>
      </trkpt>
      <trkpt lat="43.754805000498891" lon="7.447561025619507">
        <ele>70.310000000000002</ele>
        <time>2025-05-19T06:52:28Z</time>
      </trkpt>
      <trkpt lat="43.754839031025767" lon="7.447587009519339">
        <ele>70.310000000000002</ele>
        <time>2025-05-19T06:52:29Z</time>
      </trkpt>
      <trkpt lat="43.754879012703896" lon="7.447617016732693">
        <ele>69.829999999999998</ele>
        <time>2025-05-19T06:52:30Z</time>
      </trkpt>
      <trkpt lat="43.754922011867166" lon="7.447647023946047">
        <ele>69.829999999999998</ele>
        <time>2025-05-19T06:52:31Z</time>
      </trkpt>
      <trkpt lat="43.754967022687197" lon="7.447679964825511">
        <ele>69.829999999999998</ele>
        <time>2025-05-19T06:52:32Z</time>
      </trkpt>
      <trkpt lat="43.755016978830099" lon="7.447715001180768">
        <ele>69.349999999999994</ele>
        <time>2025-05-19T06:52:33Z</time>
      </trkpt>
      <trkpt lat="43.755068024620414" lon="7.447751965373755">
        <ele>69.349999999999994</ele>
        <time>2025-05-19T06:52:34Z</time>
      </trkpt>
      <trkpt lat="43.755119992420077" lon="7.447789013385773">
        <ele>69.349999999999994</ele>
        <time>2025-05-19T06:52:35Z</time>
      </trkpt>
      <trkpt lat="43.75549097545445" lon="7.448067963123322">
        <ele>67.430000000000007</ele>
        <time>2025-05-19T06:52:45Z</time>
      </trkpt>
      <trkpt lat="43.755648974329233" lon="7.44834397919476">
        <ele>67.430000000000007</ele>
        <time>2025-05-19T06:52:55Z</time>
      </trkpt>
      <trkpt lat="43.755740001797676" lon="7.448527961969376">
        <ele>66.950000000000003</ele>
        <time>2025-05-19T06:53:07Z</time>
      </trkpt>
      <trkpt lat="43.755827005952597" lon="7.448670035228133">
        <ele>66.469999999999999</ele>
        <time>2025-05-19T06:53:14Z</time>
      </trkpt>
      <trkpt lat="43.756043007597327" lon="7.448969017714262">
        <ele>66.950000000000003</ele>
        <time>2025-05-19T06:53:27Z</time>
      </trkpt>
      <trkpt lat="43.756424970924854" lon="7.44903196580708">
        <ele>67.909999999999997</ele>
        <time>2025-05-19T06:53:37Z</time>
      </trkpt>
      <trkpt lat="43.756463024765253" lon="7.449034983292222">
        <ele>67.909999999999997</ele>
        <time>2025-05-19T06:53:38Z</time>
      </trkpt>
      <trkpt lat="43.756503006443381" lon="7.449036994948983">
        <ele>67.430000000000007</ele>
        <time>2025-05-19T06:53:39Z</time>
      </trkpt>
      <trkpt lat="43.756550028920174" lon="7.449040012434125">
        <ele>67.430000000000007</ele>
        <time>2025-05-19T06:53:40Z</time>
      </trkpt>
      <trkpt lat="43.756599985063076" lon="7.449043029919267">
        <ele>67.430000000000007</ele>
        <time>2025-05-19T06:53:41Z</time>
      </trkpt>
      <trkpt lat="43.75664901919663" lon="7.449045041576028">
        <ele>67.909999999999997</ele>
        <time>2025-05-19T06:53:42Z</time>
      </trkpt>
      <trkpt lat="43.756764018908143" lon="7.44905199855566">
        <ele>67.909999999999997</ele>
        <time>2025-05-19T06:53:49Z</time>
      </trkpt>
      <trkpt lat="43.75693098641932" lon="7.449156017974019">
        <ele>67.909999999999997</ele>
        <time>2025-05-19T06:53:52Z</time>
      </trkpt>
      <trkpt lat="43.756989995017648" lon="7.449193987995386">
        <ele>67.909999999999997</ele>
        <time>2025-05-19T06:53:53Z</time>
      </trkpt>
      <trkpt lat="43.757049003615975" lon="7.449230030179024">
        <ele>67.909999999999997</ele>
        <time>2025-05-19T06:53:54Z</time>
      </trkpt>
      <trkpt lat="43.757159980013967" lon="7.44933002628386">
        <ele>67.909999999999997</ele>
        <time>2025-05-19T06:53:56Z</time>
      </trkpt>
      <trkpt lat="43.757268022745848" lon="7.449462963268161">
        <ele>68.390000000000001</ele>
        <time>2025-05-19T06:53:58Z</time>
      </trkpt>
      <trkpt lat="43.757324013859034" lon="7.449529012665153">
        <ele>67.909999999999997</ele>
        <time>2025-05-19T06:53:59Z</time>
      </trkpt>
      <trkpt lat="43.757516965270042" lon="7.449732022359967">
        <ele>67.909999999999997</ele>
        <time>2025-05-19T06:54:02Z</time>
      </trkpt>
      <trkpt lat="43.758201012387872" lon="7.450240971520543">
        <ele>72.239999999999995</ele>
        <time>2025-05-19T06:54:13Z</time>
      </trkpt>
      <trkpt lat="43.758794032037258" lon="7.450738018378615">
        <ele>74.159999999999997</ele>
        <time>2025-05-19T06:54:22Z</time>
      </trkpt>
      <trkpt lat="43.758850023150444" lon="7.450795015320182">
        <ele>74.159999999999997</ele>
        <time>2025-05-19T06:54:23Z</time>
      </trkpt>
      <trkpt lat="43.758908025920391" lon="7.450852012261748">
        <ele>73.680000000000007</ele>
        <time>2025-05-19T06:54:24Z</time>
      </trkpt>
      <trkpt lat="43.759134002029896" lon="7.45111201889813">
        <ele>74.640000000000001</ele>
        <time>2025-05-19T06:54:28Z</time>
      </trkpt>
      <trkpt lat="43.759192004799843" lon="7.45117899030447">
        <ele>74.640000000000001</ele>
        <time>2025-05-19T06:54:29Z</time>
      </trkpt>
      <trkpt lat="43.75925101339817" lon="7.451245961710811">
        <ele>74.640000000000001</ele>
        <time>2025-05-19T06:54:30Z</time>
      </trkpt>
      <trkpt lat="43.759664995595813" lon="7.451726999133825">
        <ele>75.599999999999994</ele>
        <time>2025-05-19T06:54:36Z</time>
      </trkpt>
      <trkpt lat="43.759726015850902" lon="7.451798999682069">
        <ele>76.079999999999998</ele>
        <time>2025-05-19T06:54:37Z</time>
      </trkpt>
      <trkpt lat="43.760137986391783" lon="7.452283976599574">
        <ele>75.120000000000005</ele>
        <time>2025-05-19T06:54:44Z</time>
      </trkpt>
      <trkpt lat="43.760176040232182" lon="7.452464019879699">
        <ele>74.640000000000001</ele>
        <time>2025-05-19T06:54:46Z</time>
      </trkpt>
      <trkpt lat="43.760191965848207" lon="7.452490003779531">
        <ele>74.640000000000001</ele>
        <time>2025-05-19T06:54:47Z</time>
      </trkpt>
      <trkpt lat="43.760240999981761" lon="7.452570972964168">
        <ele>74.640000000000001</ele>
        <time>2025-05-19T06:54:48Z</time>
      </trkpt>
      <trkpt lat="43.760266983881593" lon="7.452612966299057">
        <ele>74.640000000000001</ele>
        <time>2025-05-19T06:54:49Z</time>
      </trkpt>
      <trkpt lat="43.760387012735009" lon="7.452555969357491">
        <ele>74.640000000000001</ele>
        <time>2025-05-19T06:54:50Z</time>
      </trkpt>
      <trkpt lat="43.76045498996973" lon="7.452665017917752">
        <ele>74.640000000000001</ele>
        <time>2025-05-19T06:54:52Z</time>
      </trkpt>
      <trkpt lat="43.760492037981749" lon="7.452735006809235">
        <ele>75.120000000000005</ele>
        <time>2025-05-19T06:54:53Z</time>
      </trkpt>
      <trkpt lat="43.760913982987404" lon="7.453519972041249">
        <ele>75.120000000000005</ele>
        <time>2025-05-19T06:55:03Z</time>
      </trkpt>
      <trkpt lat="43.76111900433898" lon="7.453876035287976">
        <ele>74.640000000000001</ele>
        <time>2025-05-19T06:55:07Z</time>
      </trkpt>
      <trkpt lat="43.761181030422449" lon="7.453954992815852">
        <ele>75.120000000000005</ele>
        <time>2025-05-19T06:55:08Z</time>
      </trkpt>
      <trkpt lat="43.761250013485551" lon="7.454016013070941">
        <ele>75.120000000000005</ele>
        <time>2025-05-19T06:55:09Z</time>
      </trkpt>
      <trkpt lat="43.761329976841807" lon="7.454065969213843">
        <ele>74.640000000000001</ele>
        <time>2025-05-19T06:55:10Z</time>
      </trkpt>
      <trkpt lat="43.761406000703573" lon="7.454115003347397">
        <ele>74.159999999999997</ele>
        <time>2025-05-19T06:55:11Z</time>
      </trkpt>
      <trkpt lat="43.761481018736959" lon="7.45414299890399">
        <ele>73.680000000000007</ele>
        <time>2025-05-19T06:55:12Z</time>
      </trkpt>
      <trkpt lat="43.761562993749976" lon="7.454154985025525">
        <ele>74.159999999999997</ele>
        <time>2025-05-19T06:55:13Z</time>
      </trkpt>
      <trkpt lat="43.761743037030101" lon="7.454180968925357">
        <ele>74.640000000000001</ele>
        <time>2025-05-19T06:55:15Z</time>
      </trkpt>
      <trkpt lat="43.76180799677968" lon="7.45416403748095">
        <ele>74.640000000000001</ele>
        <time>2025-05-19T06:55:16Z</time>
      </trkpt>
      <trkpt lat="43.762061968445778" lon="7.4541010055691">
        <ele>74.640000000000001</ele>
        <time>2025-05-19T06:55:19Z</time>
      </trkpt>
      <trkpt lat="43.762148972600698" lon="7.454078961163759">
        <ele>74.640000000000001</ele>
        <time>2025-05-19T06:55:20Z</time>
      </trkpt>
      <trkpt lat="43.762474022805691" lon="7.454020036384463">
        <ele>74.159999999999997</ele>
        <time>2025-05-19T06:55:24Z</time>
      </trkpt>
      <trkpt lat="43.76255800947547" lon="7.454007966443896">
        <ele>73.680000000000007</ele>
        <time>2025-05-19T06:55:25Z</time>
      </trkpt>
      <trkpt lat="43.76283897086978" lon="7.453965973109007">
        <ele>73.200000000000003</ele>
        <time>2025-05-19T06:55:29Z</time>
      </trkpt>
      <trkpt lat="43.762907031923532" lon="7.453965973109007">
        <ele>72.719999999999999</ele>
        <time>2025-05-19T06:55:30Z</time>
      </trkpt>
      <trkpt lat="43.762977020815015" lon="7.453965973109007">
        <ele>72.719999999999999</ele>
        <time>2025-05-19T06:55:31Z</time>
      </trkpt>
      <trkpt lat="43.763023959472775" lon="7.453988017514348">
        <ele>72.719999999999999</ele>
        <time>2025-05-19T06:55:32Z</time>
      </trkpt>
      <trkpt lat="43.763087997213006" lon="7.454024981707335">
        <ele>72.239999999999995</ele>
        <time>2025-05-19T06:55:33Z</time>
      </trkpt>
      <trkpt lat="43.763153040781617" lon="7.454063035547733">
        <ele>72.239999999999995</ele>
        <time>2025-05-19T06:55:34Z</time>
      </trkpt>
      <trkpt lat="43.763244990259409" lon="7.454116009175777">
        <ele>71.760000000000005</ele>
        <time>2025-05-19T06:55:35Z</time>
      </trkpt>
      <trkpt lat="43.763254964724183" lon="7.454150961712003">
        <ele>71.760000000000005</ele>
        <time>2025-05-19T06:55:36Z</time>
      </trkpt>
      <trkpt lat="43.763280026614666" lon="7.454239977523685">
        <ele>71.760000000000005</ele>
        <time>2025-05-19T06:55:37Z</time>
      </trkpt>
      <trkpt lat="43.763273991644382" lon="7.454347014427185">
        <ele>71.269999999999996</ele>
        <time>2025-05-19T06:55:38Z</time>
      </trkpt>
      <trkpt lat="43.763256976380944" lon="7.454450028017163">
        <ele>71.269999999999996</ele>
        <time>2025-05-19T06:55:39Z</time>
      </trkpt>
      <trkpt lat="43.763239039108157" lon="7.454556981101632">
        <ele>71.269999999999996</ele>
        <time>2025-05-19T06:55:40Z</time>
      </trkpt>
      <trkpt lat="43.763221018016338" lon="7.454657983034849">
        <ele>71.269999999999996</ele>
        <time>2025-05-19T06:55:41Z</time>
      </trkpt>
      <trkpt lat="43.763106018304825" lon="7.454901980236173">
        <ele>70.310000000000002</ele>
        <time>2025-05-19T06:55:44Z</time>
      </trkpt>
      <trkpt lat="43.763068970292807" lon="7.4549800157547">
        <ele>70.310000000000002</ele>
        <time>2025-05-19T06:55:45Z</time>
      </trkpt>
      <trkpt lat="43.763019014149904" lon="7.455028966069222">
        <ele>69.829999999999998</ele>
        <time>2025-05-19T06:55:46Z</time>
      </trkpt>
      <trkpt lat="43.762962017208338" lon="7.455050004646182">
        <ele>69.349999999999994</ele>
        <time>2025-05-19T06:55:47Z</time>
      </trkpt>
      <trkpt lat="43.76290300861001" lon="7.455070959404111">
        <ele>68.390000000000001</ele>
        <time>2025-05-19T06:55:48Z</time>
      </trkpt>
      <trkpt lat="43.76283997669816" lon="7.455094009637833">
        <ele>67.909999999999997</ele>
        <time>2025-05-19T06:55:49Z</time>
      </trkpt>
      <trkpt lat="43.762776022776961" lon="7.455116976052523">
        <ele>67.430000000000007</ele>
        <time>2025-05-19T06:55:50Z</time>
      </trkpt>
      <trkpt lat="43.76270997337997" lon="7.455140026286244">
        <ele>66.950000000000003</ele>
        <time>2025-05-19T06:55:51Z</time>
      </trkpt>
      <trkpt lat="43.76249497756362" lon="7.455220995470882">
        <ele>65.510000000000005</ele>
        <time>2025-05-19T06:55:54Z</time>
      </trkpt>
      <trkpt lat="43.761888965964317" lon="7.455665990710259">
        <ele>63.100000000000001</ele>
        <time>2025-05-19T06:56:03Z</time>
      </trkpt>
      <trkpt lat="43.761754017323256" lon="7.455918034538627">
        <ele>61.659999999999997</ele>
        <time>2025-05-19T06:56:06Z</time>
      </trkpt>
      <trkpt lat="43.761715041473508" lon="7.455994980409741">
        <ele>61.18</ele>
        <time>2025-05-19T06:56:07Z</time>
      </trkpt>
      <trkpt lat="43.761686040088534" lon="7.456080978736281">
        <ele>61.18</ele>
        <time>2025-05-19T06:56:08Z</time>
      </trkpt>
      <trkpt lat="43.761662989854813" lon="7.456174017861486">
        <ele>60.219999999999999</ele>
        <time>2025-05-19T06:56:09Z</time>
      </trkpt>
      <trkpt lat="43.76163499429822" lon="7.456283988431096">
        <ele>60.219999999999999</ele>
        <time>2025-05-19T06:56:10Z</time>
      </trkpt>
      <trkpt lat="43.761645974591374" lon="7.456388007849455">
        <ele>60.219999999999999</ele>
        <time>2025-05-19T06:56:11Z</time>
      </trkpt>
      <trkpt lat="43.761657038703561" lon="7.456496972590685">
        <ele>60.219999999999999</ele>
        <time>2025-05-19T06:56:12Z</time>
      </trkpt>
      <trkpt lat="43.761684028431773" lon="7.456603003665805">
        <ele>59.740000000000002</ele>
        <time>2025-05-19T06:56:13Z</time>
      </trkpt>
      <trkpt lat="43.761710012331605" lon="7.456701993942261">
        <ele>59.740000000000002</ele>
        <time>2025-05-19T06:56:14Z</time>
      </trkpt>
      <trkpt lat="43.761758040636778" lon="7.456890000030398">
        <ele>59.740000000000002</ele>
        <time>2025-05-19T06:56:16Z</time>
      </trkpt>
      <trkpt lat="43.761780001223087" lon="7.456974992528558">
        <ele>59.740000000000002</ele>
        <time>2025-05-19T06:56:17Z</time>
      </trkpt>
      <trkpt lat="43.761814031749964" lon="7.45708404108882">
        <ele>60.219999999999999</ele>
        <time>2025-05-19T06:56:18Z</time>
      </trkpt>
      <trkpt lat="43.761861976236105" lon="7.457128968089819">
        <ele>61.18</ele>
        <time>2025-05-19T06:56:19Z</time>
      </trkpt>
      <trkpt lat="43.761908998712897" lon="7.45717297308147">
        <ele>62.140000000000001</ele>
        <time>2025-05-19T06:56:20Z</time>
      </trkpt>
      <trkpt lat="43.761954009532928" lon="7.457214966416359">
        <ele>62.619999999999997</ele>
        <time>2025-05-19T06:56:21Z</time>
      </trkpt>
      <trkpt lat="43.761997008696198" lon="7.457255031913519">
        <ele>63.100000000000001</ele>
        <time>2025-05-19T06:56:22Z</time>
      </trkpt>
      <trkpt lat="43.762034978717566" lon="7.457290990278125">
        <ele>63.100000000000001</ele>
        <time>2025-05-19T06:56:23Z</time>
      </trkpt>
      <trkpt lat="43.762101028114557" lon="7.457353016361594">
        <ele>64.069999999999993</ele>
        <time>2025-05-19T06:56:25Z</time>
      </trkpt>
      <trkpt lat="43.762149978429079" lon="7.457399033010006">
        <ele>64.069999999999993</ele>
        <time>2025-05-19T06:56:26Z</time>
      </trkpt>
      <trkpt lat="43.762156013399363" lon="7.457416970282793">
        <ele>64.069999999999993</ele>
        <time>2025-05-19T06:56:27Z</time>
      </trkpt>
      <trkpt lat="43.762175962328911" lon="7.457484025508165">
        <ele>64.069999999999993</ele>
        <time>2025-05-19T06:56:28Z</time>
      </trkpt>
      <trkpt lat="43.76221502199769" lon="7.457614028826356">
        <ele>64.069999999999993</ele>
        <time>2025-05-19T06:56:29Z</time>
      </trkpt>
      <trkpt lat="43.762218039482832" lon="7.457650993019342">
        <ele>64.069999999999993</ele>
        <time>2025-05-19T06:56:30Z</time>
      </trkpt>
      <trkpt lat="43.762228013947606" lon="7.457757024094462">
        <ele>64.549999999999997</ele>
        <time>2025-05-19T06:56:31Z</time>
      </trkpt>
      <trkpt lat="43.762227008119226" lon="7.45790203101933">
        <ele>64.549999999999997</ele>
        <time>2025-05-19T06:56:32Z</time>
      </trkpt>
      <trkpt lat="43.762160958722234" lon="7.458382984623313">
        <ele>66.469999999999999</ele>
        <time>2025-05-19T06:56:36Z</time>
      </trkpt>
      <trkpt lat="43.762191971763968" lon="7.459129979833961">
        <ele>71.760000000000005</ele>
        <time>2025-05-19T06:56:44Z</time>
      </trkpt>
      <trkpt lat="43.762203035876155" lon="7.459196029230952">
        <ele>72.239999999999995</ele>
        <time>2025-05-19T06:56:45Z</time>
      </trkpt>
      <trkpt lat="43.762216027826071" lon="7.459281021729112">
        <ele>72.719999999999999</ele>
        <time>2025-05-19T06:56:46Z</time>
      </trkpt>
      <trkpt lat="43.762290040031075" lon="7.459785025566816">
        <ele>74.640000000000001</ele>
        <time>2025-05-19T06:56:51Z</time>
      </trkpt>
      <trkpt lat="43.762308983132243" lon="7.459894996136427">
        <ele>75.120000000000005</ele>
        <time>2025-05-19T06:56:52Z</time>
      </trkpt>
      <trkpt lat="43.762348964810371" lon="7.460121978074312">
        <ele>76.079999999999998</ele>
        <time>2025-05-19T06:56:54Z</time>
      </trkpt>
      <trkpt lat="43.762376038357615" lon="7.460229014977813">
        <ele>76.560000000000002</ele>
        <time>2025-05-19T06:56:55Z</time>
      </trkpt>
      <trkpt lat="43.762423982843757" lon="7.46031098999083">
        <ele>76.560000000000002</ele>
        <time>2025-05-19T06:56:56Z</time>
      </trkpt>
      <trkpt lat="43.762474022805691" lon="7.46039598248899">
        <ele>76.560000000000002</ele>
        <time>2025-05-19T06:56:57Z</time>
      </trkpt>
      <trkpt lat="43.762520961463451" lon="7.460476029664278">
        <ele>76.560000000000002</ele>
        <time>2025-05-19T06:56:58Z</time>
      </trkpt>
      <trkpt lat="43.762564966455102" lon="7.460550963878632">
        <ele>76.560000000000002</ele>
        <time>2025-05-19T06:56:59Z</time>
      </trkpt>
      <trkpt lat="43.762598996981978" lon="7.460621036589146">
        <ele>76.560000000000002</ele>
        <time>2025-05-19T06:57:00Z</time>
      </trkpt>
      <trkpt lat="43.762632021680474" lon="7.46069697663188">
        <ele>76.560000000000002</ele>
        <time>2025-05-19T06:57:01Z</time>
      </trkpt>
      <trkpt lat="43.762662028893828" lon="7.460767971351743">
        <ele>77.040000000000006</ele>
        <time>2025-05-19T06:57:02Z</time>
      </trkpt>
      <trkpt lat="43.762707961723208" lon="7.460876014083624">
        <ele>76.560000000000002</ele>
        <time>2025-05-19T06:57:03Z</time>
      </trkpt>
      <trkpt lat="43.762707961723208" lon="7.460923036560416">
        <ele>76.560000000000002</ele>
        <time>2025-05-19T06:57:04Z</time>
      </trkpt>
      <trkpt lat="43.762707961723208" lon="7.46101900935173">
        <ele>76.560000000000002</ele>
        <time>2025-05-19T06:57:05Z</time>
      </trkpt>
      <trkpt lat="43.762621963396668" lon="7.461841022595763">
        <ele>75.599999999999994</ele>
        <time>2025-05-19T06:57:14Z</time>
      </trkpt>
      <trkpt lat="43.762563038617373" lon="7.461948981508613">
        <ele>75.599999999999994</ele>
        <time>2025-05-19T06:57:15Z</time>
      </trkpt>
      <trkpt lat="43.762523978948593" lon="7.462019976228476">
        <ele>75.120000000000005</ele>
        <time>2025-05-19T06:57:16Z</time>
      </trkpt>
      <trkpt lat="43.76193598844111" lon="7.462870990857482">
        <ele>78.480000000000004</ele>
        <time>2025-05-19T06:57:26Z</time>
      </trkpt>
      <trkpt lat="43.761280020698905" lon="7.463772967457771">
        <ele>85.689999999999998</ele>
        <time>2025-05-19T06:57:36Z</time>
      </trkpt>
      <trkpt lat="43.760915994644165" lon="7.464304966852069">
        <ele>88.099999999999994</ele>
        <time>2025-05-19T06:57:44Z</time>
      </trkpt>
      <trkpt lat="43.760791020467877" lon="7.464361963793635">
        <ele>88.579999999999998</ele>
        <time>2025-05-19T06:57:46Z</time>
      </trkpt>
      <trkpt lat="43.76075598411262" lon="7.464416027069092">
        <ele>89.060000000000002</ele>
        <time>2025-05-19T06:57:47Z</time>
      </trkpt>
      <trkpt lat="43.760752966627479" lon="7.464530020952225">
        <ele>89.060000000000002</ele>
        <time>2025-05-19T06:57:48Z</time>
      </trkpt>
      <trkpt lat="43.760719019919634" lon="7.464568996801972">
        <ele>89.540000000000006</ele>
        <time>2025-05-19T06:57:49Z</time>
      </trkpt>
      <trkpt lat="43.760680966079235" lon="7.464614007622004">
        <ele>90.019999999999996</ele>
        <time>2025-05-19T06:57:50Z</time>
      </trkpt>
      <trkpt lat="43.760632015764713" lon="7.464665975421667">
        <ele>90.019999999999996</ele>
        <time>2025-05-19T06:57:51Z</time>
      </trkpt>
      <trkpt lat="43.760568983852863" lon="7.464720038697124">
        <ele>90.5</ele>
        <time>2025-05-19T06:57:52Z</time>
      </trkpt>
      <trkpt lat="43.760504024103284" lon="7.464775023981929">
        <ele>90.980000000000004</ele>
        <time>2025-05-19T06:57:53Z</time>
      </trkpt>
      <trkpt lat="43.760447027161717" lon="7.464845012873411">
        <ele>91.459999999999994</ele>
        <time>2025-05-19T06:57:54Z</time>
      </trkpt>
      <trkpt lat="43.760387012735009" lon="7.464921958744526">
        <ele>91.459999999999994</ele>
        <time>2025-05-19T06:57:55Z</time>
      </trkpt>
      <trkpt lat="43.76032599247992" lon="7.465006029233336">
        <ele>91.939999999999998</ele>
        <time>2025-05-19T06:57:56Z</time>
      </trkpt>
      <trkpt lat="43.760261032730341" lon="7.465095967054367">
        <ele>91.939999999999998</ele>
        <time>2025-05-19T06:57:57Z</time>
      </trkpt>
      <trkpt lat="43.759586960077286" lon="7.466198019683361">
        <ele>96.269999999999996</ele>
        <time>2025-05-19T06:58:09Z</time>
      </trkpt>
      <trkpt lat="43.759236009791493" lon="7.466824986040592">
        <ele>98.189999999999998</ele>
        <time>2025-05-19T06:58:17Z</time>
      </trkpt>
      <trkpt lat="43.75875698402524" lon="7.467798963189125">
        <ele>102.04000000000001</ele>
        <time>2025-05-19T06:58:26Z</time>
      </trkpt>
      <trkpt lat="43.758413996547461" lon="7.468747040256858">
        <ele>105.88</ele>
        <time>2025-05-19T06:58:36Z</time>
      </trkpt>
      <trkpt lat="43.758360017091036" lon="7.468918031081557">
        <ele>106.84</ele>
        <time>2025-05-19T06:58:38Z</time>
      </trkpt>
      <trkpt lat="43.758331015706062" lon="7.469129003584385">
        <ele>108.77</ele>
        <time>2025-05-19T06:58:41Z</time>
      </trkpt>
      <trkpt lat="43.758331015706062" lon="7.469188012182713">
        <ele>109.25</ele>
        <time>2025-05-19T06:58:42Z</time>
      </trkpt>
      <trkpt lat="43.758331015706062" lon="7.469248026609421">
        <ele>109.73</ele>
        <time>2025-05-19T06:58:43Z</time>
      </trkpt>
      <trkpt lat="43.758331015706062" lon="7.469303011894226">
        <ele>109.73</ele>
        <time>2025-05-19T06:58:44Z</time>
      </trkpt>
      <trkpt lat="43.758331015706062" lon="7.469308041036129">
        <ele>110.20999999999999</ele>
        <time>2025-05-19T06:58:45Z</time>
      </trkpt>
      <trkpt lat="43.758402010425925" lon="7.469450030475855">
        <ele>111.65000000000001</ele>
        <time>2025-05-19T06:58:48Z</time>
      </trkpt>
      <trkpt lat="43.75843302346766" lon="7.469511972740293">
        <ele>111.65000000000001</ele>
        <time>2025-05-19T06:58:49Z</time>
      </trkpt>
      <trkpt lat="43.758470993489027" lon="7.469577016308904">
        <ele>112.13</ele>
        <time>2025-05-19T06:58:50Z</time>
      </trkpt>
      <trkpt lat="43.758824039250612" lon="7.470081020146608">
        <ele>112.13</ele>
        <time>2025-05-19T06:58:56Z</time>
      </trkpt>
      <trkpt lat="43.758947001770139" lon="7.470216974616051">
        <ele>111.17</ele>
        <time>2025-05-19T06:58:58Z</time>
      </trkpt>
      <trkpt lat="43.759397026151419" lon="7.470531966537237">
        <ele>110.20999999999999</ele>
        <time>2025-05-19T06:59:02Z</time>
      </trkpt>
      <trkpt lat="43.759499033913016" lon="7.470592986792326">
        <ele>109.73</ele>
        <time>2025-05-19T06:59:03Z</time>
      </trkpt>
      <trkpt lat="43.75995802693069" lon="7.470747968181968">
        <ele>108.29000000000001</ele>
        <time>2025-05-19T06:59:08Z</time>
      </trkpt>
      <trkpt lat="43.760391036048532" lon="7.470811000093818">
        <ele>103.95999999999999</ele>
        <time>2025-05-19T06:59:16Z</time>
      </trkpt>
      <trkpt lat="43.760452978312969" lon="7.470818962901831">
        <ele>101.56</ele>
        <time>2025-05-19T06:59:24Z</time>
      </trkpt>
      <trkpt lat="43.760726982727647" lon="7.470869002863765">
        <ele>99.629999999999995</ele>
        <time>2025-05-19T06:59:34Z</time>
      </trkpt>
      <trkpt lat="43.76133400015533" lon="7.470981990918517">
        <ele>96.75</ele>
        <time>2025-05-19T06:59:40Z</time>
      </trkpt>
      <trkpt lat="43.761424021795392" lon="7.470980985090137">
        <ele>96.269999999999996</ele>
        <time>2025-05-19T06:59:41Z</time>
      </trkpt>
      <trkpt lat="43.761522006243467" lon="7.470938991755247">
        <ele>95.310000000000002</ele>
        <time>2025-05-19T06:59:42Z</time>
      </trkpt>
      <trkpt lat="43.762046964839101" lon="7.470703041180968">
        <ele>91.459999999999994</ele>
        <time>2025-05-19T06:59:47Z</time>
      </trkpt>
      <trkpt lat="43.762158025056124" lon="7.470693988725543">
        <ele>90.980000000000004</ele>
        <time>2025-05-19T06:59:48Z</time>
      </trkpt>
      <trkpt lat="43.762269001454115" lon="7.470684014260769">
        <ele>90.019999999999996</ele>
        <time>2025-05-19T06:59:49Z</time>
      </trkpt>
      <trkpt lat="43.762377966195345" lon="7.470726007595658">
        <ele>88.579999999999998</ele>
        <time>2025-05-19T06:59:50Z</time>
      </trkpt>
      <trkpt lat="43.762464970350266" lon="7.470791973173618">
        <ele>87.620000000000005</ele>
        <time>2025-05-19T06:59:51Z</time>
      </trkpt>
      <trkpt lat="43.762524984776974" lon="7.470898004248738">
        <ele>86.659999999999997</ele>
        <time>2025-05-19T06:59:52Z</time>
      </trkpt>
      <trkpt lat="43.762572007253766" lon="7.471023984253407">
        <ele>86.180000000000007</ele>
        <time>2025-05-19T06:59:53Z</time>
      </trkpt>
      <trkpt lat="43.762589022517204" lon="7.471174020320177">
        <ele>85.209999999999994</ele>
        <time>2025-05-19T06:59:54Z</time>
      </trkpt>
      <trkpt lat="43.76260100863874" lon="7.471347022801638">
        <ele>84.730000000000004</ele>
        <time>2025-05-19T06:59:55Z</time>
      </trkpt>
      <trkpt lat="43.76258198171854" lon="7.471484988927841">
        <ele>84.25</ele>
        <time>2025-05-19T06:59:56Z</time>
      </trkpt>
      <trkpt lat="43.762562032788992" lon="7.471631001681089">
        <ele>83.290000000000006</ele>
        <time>2025-05-19T06:59:57Z</time>
      </trkpt>
      <trkpt lat="43.762544011697173" lon="7.471767039969564">
        <ele>82.810000000000002</ele>
        <time>2025-05-19T06:59:58Z</time>
      </trkpt>
      <trkpt lat="43.762374026700854" lon="7.472619982436299">
        <ele>77.519999999999996</ele>
        <time>2025-05-19T07:00:05Z</time>
      </trkpt>
      <trkpt lat="43.76232298091054" lon="7.472735987976193">
        <ele>77.040000000000006</ele>
        <time>2025-05-19T07:00:06Z</time>
      </trkpt>
      <trkpt lat="43.762272018939257" lon="7.472854005172849">
        <ele>76.079999999999998</ele>
        <time>2025-05-19T07:00:07Z</time>
      </trkpt>
      <trkpt lat="43.762200018391013" lon="7.472967999055982">
        <ele>75.120000000000005</ele>
        <time>2025-05-19T07:00:08Z</time>
      </trkpt>
      <trkpt lat="43.762112008407712" lon="7.473048968240619">
        <ele>74.640000000000001</ele>
        <time>2025-05-19T07:00:09Z</time>
      </trkpt>
      <trkpt lat="43.762025004252791" lon="7.473130021244288">
        <ele>73.680000000000007</ele>
        <time>2025-05-19T07:00:10Z</time>
      </trkpt>
      <trkpt lat="43.76193598844111" lon="7.473205039277673">
        <ele>73.200000000000003</ele>
        <time>2025-05-19T07:00:11Z</time>
      </trkpt>
      <trkpt lat="43.761844038963318" lon="7.473257007077336">
        <ele>72.719999999999999</ele>
        <time>2025-05-19T07:00:12Z</time>
      </trkpt>
      <trkpt lat="43.761759968474507" lon="7.473318027332425">
        <ele>71.760000000000005</ele>
        <time>2025-05-19T07:00:13Z</time>
      </trkpt>
      <trkpt lat="43.761672964319587" lon="7.473392961546779">
        <ele>71.760000000000005</ele>
        <time>2025-05-19T07:00:14Z</time>
      </trkpt>
      <trkpt lat="43.76161303371191" lon="7.473493963479996">
        <ele>71.269999999999996</ele>
        <time>2025-05-19T07:00:15Z</time>
      </trkpt>
      <trkpt lat="43.761553019285202" lon="7.473614998161793">
        <ele>70.790000000000006</ele>
        <time>2025-05-19T07:00:16Z</time>
      </trkpt>
      <trkpt lat="43.761501973494887" lon="7.473729997873306">
        <ele>70.310000000000002</ele>
        <time>2025-05-19T07:00:17Z</time>
      </trkpt>
      <trkpt lat="43.761470960453153" lon="7.473870981484652">
        <ele>69.829999999999998</ele>
        <time>2025-05-19T07:00:18Z</time>
      </trkpt>
      <trkpt lat="43.76144103705883" lon="7.474013976752758">
        <ele>68.870000000000005</ele>
        <time>2025-05-19T07:00:19Z</time>
      </trkpt>
      <trkpt lat="43.761402983218431" lon="7.474170969799161">
        <ele>67.909999999999997</ele>
        <time>2025-05-19T07:00:20Z</time>
      </trkpt>
      <trkpt lat="43.761340035125613" lon="7.474298039451242">
        <ele>66.950000000000003</ele>
        <time>2025-05-19T07:00:21Z</time>
      </trkpt>
      <trkpt lat="43.76127096824348" lon="7.474414967000485">
        <ele>66.469999999999999</ele>
        <time>2025-05-19T07:00:22Z</time>
      </trkpt>
      <trkpt lat="43.761181030422449" lon="7.474539019167423">
        <ele>65.510000000000005</ele>
        <time>2025-05-19T07:00:23Z</time>
      </trkpt>
      <trkpt lat="43.761097965762019" lon="7.47466298751533">
        <ele>64.549999999999997</ele>
        <time>2025-05-19T07:00:24Z</time>
      </trkpt>
      <trkpt lat="43.760719019919634" lon="7.475250978022814">
        <ele>60.700000000000003</ele>
        <time>2025-05-19T07:00:29Z</time>
      </trkpt>
      <trkpt lat="43.760650958865881" lon="7.475365977734327">
        <ele>60.219999999999999</ele>
        <time>2025-05-19T07:00:30Z</time>
      </trkpt>
      <trkpt lat="43.760262038558722" lon="7.475938964635134">
        <ele>56.369999999999997</ele>
        <time>2025-05-19T07:00:35Z</time>
      </trkpt>
      <trkpt lat="43.760160030797124" lon="7.476011971011758">
        <ele>55.409999999999997</ele>
        <time>2025-05-19T07:00:36Z</time>
      </trkpt>
      <trkpt lat="43.760049976408482" lon="7.476091012358666">
        <ele>54.93</ele>
        <time>2025-05-19T07:00:37Z</time>
      </trkpt>
      <trkpt lat="43.759819976985455" lon="7.476255968213081">
        <ele>53.490000000000002</ele>
        <time>2025-05-19T07:00:39Z</time>
      </trkpt>
      <trkpt lat="43.759710006415844" lon="7.476344984024763">
        <ele>52.530000000000001</ele>
        <time>2025-05-19T07:00:40Z</time>
      </trkpt>
      <trkpt lat="43.75961797311902" lon="7.476458977907896">
        <ele>52.049999999999997</ele>
        <time>2025-05-19T07:00:41Z</time>
      </trkpt>
      <trkpt lat="43.759540021419525" lon="7.476578000932932">
        <ele>51.090000000000003</ele>
        <time>2025-05-19T07:00:42Z</time>
      </trkpt>
      <trkpt lat="43.759491993114352" lon="7.476711021736264">
        <ele>50.130000000000003</ele>
        <time>2025-05-19T07:00:43Z</time>
      </trkpt>
      <trkpt lat="43.759483024477959" lon="7.476850999519229">
        <ele>49.649999999999999</ele>
        <time>2025-05-19T07:00:44Z</time>
      </trkpt>
      <trkpt lat="43.75950800254941" lon="7.476973040029407">
        <ele>49.159999999999997</ele>
        <time>2025-05-19T07:00:45Z</time>
      </trkpt>
      <trkpt lat="43.759562987834215" lon="7.477063983678818">
        <ele>48.68</ele>
        <time>2025-05-19T07:00:46Z</time>
      </trkpt>
      <trkpt lat="43.759629037231207" lon="7.477158028632402">
        <ele>48.200000000000003</ele>
        <time>2025-05-19T07:00:47Z</time>
      </trkpt>
      <trkpt lat="43.759705983102322" lon="7.477254001423717">
        <ele>47.719999999999999</ele>
        <time>2025-05-19T07:00:48Z</time>
      </trkpt>
      <trkpt lat="43.760279975831509" lon="7.477788012474775">
        <ele>44.359999999999999</ele>
        <time>2025-05-19T07:00:55Z</time>
      </trkpt>
      <trkpt lat="43.760349964722991" lon="7.477846015244722">
        <ele>44.359999999999999</ele>
        <time>2025-05-19T07:00:56Z</time>
      </trkpt>
      <trkpt lat="43.760420959442854" lon="7.477903012186289">
        <ele>43.880000000000003</ele>
        <time>2025-05-19T07:00:57Z</time>
      </trkpt>
      <trkpt lat="43.761125961318612" lon="7.478458983823657">
        <ele>41.469999999999999</ele>
        <time>2025-05-19T07:01:07Z</time>
      </trkpt>
      <trkpt lat="43.7615289632231" lon="7.478606002405286">
        <ele>39.07</ele>
        <time>2025-05-19T07:01:11Z</time>
      </trkpt>
      <trkpt lat="43.761620996519923" lon="7.478612959384918">
        <ele>38.590000000000003</ele>
        <time>2025-05-19T07:01:12Z</time>
      </trkpt>
      <trkpt lat="43.761719986796379" lon="7.478595022112131">
        <ele>38.109999999999999</ele>
        <time>2025-05-19T07:01:13Z</time>
      </trkpt>
      <trkpt lat="43.762260032817721" lon="7.478545987978578">
        <ele>35.229999999999997</ele>
        <time>2025-05-19T07:01:18Z</time>
      </trkpt>
      <trkpt lat="43.76234301365912" lon="7.478556968271732">
        <ele>34.740000000000002</ele>
        <time>2025-05-19T07:01:19Z</time>
      </trkpt>
      <trkpt lat="43.762447033077478" lon="7.47863600961864">
        <ele>33.780000000000001</ele>
        <time>2025-05-19T07:01:20Z</time>
      </trkpt>
      <trkpt lat="43.762535965070128" lon="7.478703986853361">
        <ele>33.299999999999997</ele>
        <time>2025-05-19T07:01:21Z</time>
      </trkpt>
      <trkpt lat="43.762621963396668" lon="7.478770958259702">
        <ele>32.340000000000003</ele>
        <time>2025-05-19T07:01:22Z</time>
      </trkpt>
      <trkpt lat="43.76283603720367" lon="7.478984026238322">
        <ele>29.940000000000001</ele>
        <time>2025-05-19T07:01:25Z</time>
      </trkpt>
      <trkpt lat="43.762888005003333" lon="7.479070024564862">
        <ele>29.940000000000001</ele>
        <time>2025-05-19T07:01:26Z</time>
      </trkpt>
      <trkpt lat="43.763001998886466" lon="7.479245960712433">
        <ele>28.98</ele>
        <time>2025-05-19T07:01:28Z</time>
      </trkpt>
      <trkpt lat="43.76305497251451" lon="7.479330031201243">
        <ele>28.5</ele>
        <time>2025-05-19T07:01:29Z</time>
      </trkpt>
      <trkpt lat="43.763111969456077" lon="7.479417035356164">
        <ele>28.02</ele>
        <time>2025-05-19T07:01:30Z</time>
      </trkpt>
      <trkpt lat="43.763172989711165" lon="7.479501022025943">
        <ele>27.530000000000001</ele>
        <time>2025-05-19T07:01:31Z</time>
      </trkpt>
      <trkpt lat="43.763236021623015" lon="7.479586014524102">
        <ele>27.050000000000001</ele>
        <time>2025-05-19T07:01:32Z</time>
      </trkpt>
      <trkpt lat="43.763297963887453" lon="7.479671007022262">
        <ele>27.050000000000001</ele>
        <time>2025-05-19T07:01:33Z</time>
      </trkpt>
      <trkpt lat="43.7633559666574" lon="7.479752982035279">
        <ele>26.57</ele>
        <time>2025-05-19T07:01:34Z</time>
      </trkpt>
      <trkpt lat="43.763412963598967" lon="7.479838980361819">
        <ele>26.09</ele>
        <time>2025-05-19T07:01:35Z</time>
      </trkpt>
      <trkpt lat="43.763673976063728" lon="7.480229996144772">
        <ele>24.649999999999999</ele>
        <time>2025-05-19T07:01:40Z</time>
      </trkpt>
      <trkpt lat="43.763781012967229" lon="7.480401992797852">
        <ele>24.649999999999999</ele>
        <time>2025-05-19T07:01:41Z</time>
      </trkpt>
      <trkpt lat="43.763813031837344" lon="7.480447003617883">
        <ele>23.690000000000001</ele>
        <time>2025-05-19T07:01:42Z</time>
      </trkpt>
      <trkpt lat="43.763872040435672" lon="7.480529984459281">
        <ele>23.210000000000001</ele>
        <time>2025-05-19T07:01:43Z</time>
      </trkpt>
      <trkpt lat="43.763923002406955" lon="7.480621011927724">
        <ele>22.73</ele>
        <time>2025-05-19T07:01:44Z</time>
      </trkpt>
      <trkpt lat="43.764116037636995" lon="7.481002975255251">
        <ele>20.32</ele>
        <time>2025-05-19T07:01:48Z</time>
      </trkpt>
      <trkpt lat="43.764175968244672" lon="7.481100959703326">
        <ele>19.359999999999999</ele>
        <time>2025-05-19T07:01:50Z</time>
      </trkpt>
      <trkpt lat="43.764191977679729" lon="7.48112702742219">
        <ele>18.399999999999999</ele>
        <time>2025-05-19T07:01:51Z</time>
      </trkpt>
      <trkpt lat="43.764279987663031" lon="7.481269016861916">
        <ele>15.52</ele>
        <time>2025-05-19T07:01:59Z</time>
      </trkpt>
      <trkpt lat="43.764445027336478" lon="7.48153799213469">
        <ele>12.15</ele>
        <time>2025-05-19T07:02:12Z</time>
      </trkpt>
      <trkpt lat="43.7646200414747" lon="7.481851978227496">
        <ele>11.19</ele>
        <time>2025-05-19T07:02:24Z</time>
      </trkpt>
      <trkpt lat="43.764754990115762" lon="7.48222203925252">
        <ele>11.19</ele>
        <time>2025-05-19T07:02:31Z</time>
      </trkpt>
      <trkpt lat="43.764782985672355" lon="7.482320023700595">
        <ele>11.67</ele>
        <time>2025-05-19T07:02:32Z</time>
      </trkpt>
      <trkpt lat="43.76487803645432" lon="7.482714978978038">
        <ele>12.15</ele>
        <time>2025-05-19T07:02:38Z</time>
      </trkpt>
      <trkpt lat="43.764954982325435" lon="7.483117980882525">
        <ele>12.630000000000001</ele>
        <time>2025-05-19T07:02:42Z</time>
      </trkpt>
      <trkpt lat="43.764961017295718" lon="7.483364995568991">
        <ele>12.630000000000001</ele>
        <time>2025-05-19T07:02:45Z</time>
      </trkpt>
      <trkpt lat="43.764961017295718" lon="7.483540009707212">
        <ele>12.630000000000001</ele>
        <time>2025-05-19T07:02:47Z</time>
      </trkpt>
      <trkpt lat="43.764961017295718" lon="7.483740001916885">
        <ele>12.15</ele>
        <time>2025-05-19T07:02:49Z</time>
      </trkpt>
      <trkpt lat="43.764961017295718" lon="7.483838992193341">
        <ele>12.15</ele>
        <time>2025-05-19T07:02:50Z</time>
      </trkpt>
      <trkpt lat="43.764982977882028" lon="7.484252974390984">
        <ele>11.67</ele>
        <time>2025-05-19T07:02:54Z</time>
      </trkpt>
      <trkpt lat="43.764982977882028" lon="7.484328998252749">
        <ele>11.67</ele>
        <time>2025-05-19T07:02:55Z</time>
      </trkpt>
      <trkpt lat="43.764982977882028" lon="7.484388006851077">
        <ele>11.19</ele>
        <time>2025-05-19T07:02:56Z</time>
      </trkpt>
      <trkpt lat="43.764982977882028" lon="7.484454978257418">
        <ele>11.19</ele>
        <time>2025-05-19T07:02:57Z</time>
      </trkpt>
      <trkpt lat="43.764982977882028" lon="7.484533013775945">
        <ele>10.710000000000001</ele>
        <time>2025-05-19T07:02:58Z</time>
      </trkpt>
      <trkpt lat="43.764982977882028" lon="7.484621023759246">
        <ele>10.710000000000001</ele>
        <time>2025-05-19T07:02:59Z</time>
      </trkpt>
      <trkpt lat="43.764982977882028" lon="7.484706016257405">
        <ele>10.23</ele>
        <time>2025-05-19T07:03:00Z</time>
      </trkpt>
      <trkpt lat="43.764984989538789" lon="7.484798971563578">
        <ele>9.75</ele>
        <time>2025-05-19T07:03:01Z</time>
      </trkpt>
      <trkpt lat="43.764995969831944" lon="7.484882036224008">
        <ele>9.27</ele>
        <time>2025-05-19T07:03:02Z</time>
      </trkpt>
      <trkpt lat="43.76500703394413" lon="7.484963005408645">
        <ele>8.789999999999999</ele>
        <time>2025-05-19T07:03:03Z</time>
      </trkpt>
      <trkpt lat="43.765017008408904" lon="7.485036011785269">
        <ele>8.310000000000001</ele>
        <time>2025-05-19T07:03:04Z</time>
      </trkpt>
      <trkpt lat="43.765026982873678" lon="7.485113041475415">
        <ele>7.83</ele>
        <time>2025-05-19T07:03:05Z</time>
      </trkpt>
      <trkpt lat="43.765038968995214" lon="7.485201973468065">
        <ele>6.87</ele>
        <time>2025-05-19T07:03:06Z</time>
      </trkpt>
      <trkpt lat="43.765051038935781" lon="7.485295012593269">
        <ele>5.91</ele>
        <time>2025-05-19T07:03:07Z</time>
      </trkpt>
      <trkpt lat="43.765064030885696" lon="7.485389979556203">
        <ele>5.42</ele>
        <time>2025-05-19T07:03:08Z</time>
      </trkpt>
      <trkpt lat="43.76526796258986" lon="7.486247029155493">
        <ele>4.94</ele>
        <time>2025-05-19T07:03:16Z</time>
      </trkpt>
      <trkpt lat="43.765367036685348" lon="7.486567972227931">
        <ele>5.91</ele>
        <time>2025-05-19T07:03:19Z</time>
      </trkpt>
      <trkpt lat="43.765558982267976" lon="7.486996036022902">
        <ele>8.789999999999999</ele>
        <time>2025-05-19T07:03:25Z</time>
      </trkpt>
      <trkpt lat="43.765558982267976" lon="7.486996036022902">
        <ele>9.27</ele>
        <time>2025-05-19T07:03:32Z</time>
      </trkpt>
      <trkpt lat="43.765572980046272" lon="7.487020008265972">
        <ele>9.27</ele>
        <time>2025-05-19T07:03:43Z</time>
      </trkpt>
      <trkpt lat="43.76558898948133" lon="7.487046997994185">
        <ele>9.75</ele>
        <time>2025-05-19T07:03:44Z</time>
      </trkpt>
      <trkpt lat="43.765643974766135" lon="7.487142970785499">
        <ele>11.19</ele>
        <time>2025-05-19T07:03:46Z</time>
      </trkpt>
      <trkpt lat="43.765755034983158" lon="7.487461986020207">
        <ele>13.119999999999999</ele>
        <time>2025-05-19T07:03:54Z</time>
      </trkpt>
      <trkpt lat="43.76569502055645" lon="7.487545972689986">
        <ele>13.119999999999999</ele>
        <time>2025-05-19T07:03:55Z</time>
      </trkpt>
      <trkpt lat="43.765664007514715" lon="7.487588971853256">
        <ele>13.119999999999999</ele>
        <time>2025-05-19T07:03:56Z</time>
      </trkpt>
      <trkpt lat="43.765612961724401" lon="7.4876609724015">
        <ele>12.630000000000001</ele>
        <time>2025-05-19T07:04:04Z</time>
      </trkpt>
      <trkpt lat="43.765469966456294" lon="7.487915027886629">
        <ele>11.67</ele>
        <time>2025-05-19T07:04:20Z</time>
      </trkpt>
      <trkpt lat="43.765442976728082" lon="7.487973030656576">
        <ele>11.67</ele>
        <time>2025-05-19T07:04:21Z</time>
      </trkpt>
      <trkpt lat="43.765420010313392" lon="7.488022986799479">
        <ele>11.67</ele>
        <time>2025-05-19T07:04:22Z</time>
      </trkpt>
      <trkpt lat="43.765419004485011" lon="7.488049976527691">
        <ele>11.19</ele>
        <time>2025-05-19T07:04:23Z</time>
      </trkpt>
      <trkpt lat="43.765449011698365" lon="7.4880909640342">
        <ele>11.19</ele>
        <time>2025-05-19T07:04:24Z</time>
      </trkpt>
      <trkpt lat="43.765482036396861" lon="7.488133041188121">
        <ele>11.19</ele>
        <time>2025-05-19T07:04:25Z</time>
      </trkpt>
      <trkpt lat="43.76552302390337" lon="7.488179979845882">
        <ele>11.19</ele>
        <time>2025-05-19T07:04:26Z</time>
      </trkpt>
      <trkpt lat="43.765568034723401" lon="7.488232031464577">
        <ele>10.710000000000001</ele>
        <time>2025-05-19T07:04:27Z</time>
      </trkpt>
      <trkpt lat="43.765616985037923" lon="7.488287016749382">
        <ele>10.710000000000001</ele>
        <time>2025-05-19T07:04:28Z</time>
      </trkpt>
      <trkpt lat="43.765774983912706" lon="7.488447027280927">
        <ele>9.75</ele>
        <time>2025-05-19T07:04:31Z</time>
      </trkpt>
      <trkpt lat="43.765830975025892" lon="7.488503018394113">
        <ele>9.75</ele>
        <time>2025-05-19T07:04:32Z</time>
      </trkpt>
      <trkpt lat="43.765885960310698" lon="7.488554986193776">
        <ele>9.75</ele>
        <time>2025-05-19T07:04:33Z</time>
      </trkpt>
      <trkpt lat="43.766639996320009" lon="7.489245990291238">
        <ele>8.310000000000001</ele>
        <time>2025-05-19T07:04:44Z</time>
      </trkpt>
      <trkpt lat="43.767496040090919" lon="7.490101028233767">
        <ele>9.75</ele>
        <time>2025-05-19T07:04:56Z</time>
      </trkpt>
      <trkpt lat="43.768396005034447" lon="7.491296958178282">
        <ele>11.19</ele>
        <time>2025-05-19T07:05:11Z</time>
      </trkpt>
      <trkpt lat="43.76904702745378" lon="7.492186026647687">
        <ele>13.119999999999999</ele>
        <time>2025-05-19T07:05:23Z</time>
      </trkpt>
      <trkpt lat="43.769561005756259" lon="7.492984989657998">
        <ele>12.15</ele>
        <time>2025-05-19T07:05:33Z</time>
      </trkpt>
      <trkpt lat="43.770177997648716" lon="7.494120988994837">
        <ele>13.119999999999999</ele>
        <time>2025-05-19T07:05:46Z</time>
      </trkpt>
      <trkpt lat="43.770564990118146" lon="7.494852980598807">
        <ele>12.630000000000001</ele>
        <time>2025-05-19T07:05:56Z</time>
      </trkpt>
      <trkpt lat="43.771103024482727" lon="7.495847996324301">
        <ele>13.119999999999999</ele>
        <time>2025-05-19T07:06:07Z</time>
      </trkpt>
      <trkpt lat="43.771464033052325" lon="7.496546963229775">
        <ele>11.67</ele>
        <time>2025-05-19T07:06:17Z</time>
      </trkpt>
      <trkpt lat="43.771623959764838" lon="7.496860027313232">
        <ele>10.23</ele>
        <time>2025-05-19T07:06:27Z</time>
      </trkpt>
      <trkpt lat="43.771732002496719" lon="7.497088015079498">
        <ele>10.23</ele>
        <time>2025-05-19T07:06:33Z</time>
      </trkpt>
      <trkpt lat="43.77175597473979" lon="7.497143000364304">
        <ele>10.23</ele>
        <time>2025-05-19T07:06:34Z</time>
      </trkpt>
      <trkpt lat="43.771810960024595" lon="7.497252970933914">
        <ele>9.27</ele>
        <time>2025-05-19T07:06:36Z</time>
      </trkpt>
      <trkpt lat="43.771833004429936" lon="7.497295970097184">
        <ele>8.789999999999999</ele>
        <time>2025-05-19T07:06:37Z</time>
      </trkpt>
      <trkpt lat="43.772133998572826" lon="7.497883038595319">
        <ele>5.91</ele>
        <time>2025-05-19T07:06:46Z</time>
      </trkpt>
      <trkpt lat="43.772303983569145" lon="7.498457031324506">
        <ele>5.42</ele>
        <time>2025-05-19T07:06:54Z</time>
      </trkpt>
      <trkpt lat="43.772329967468977" lon="7.498572031036019">
        <ele>5.91</ele>
        <time>2025-05-19T07:06:55Z</time>
      </trkpt>
      <trkpt lat="43.772381013259292" lon="7.498669009655714">
        <ele>5.91</ele>
        <time>2025-05-19T07:06:56Z</time>
      </trkpt>
      <trkpt lat="43.772701034322381" lon="7.499287007376552">
        <ele>6.39</ele>
        <time>2025-05-19T07:07:02Z</time>
      </trkpt>
      <trkpt lat="43.772758031263947" lon="7.499396977946162">
        <ele>5.91</ele>
        <time>2025-05-19T07:07:03Z</time>
      </trkpt>
      <trkpt lat="43.772814022377133" lon="7.499505020678043">
        <ele>5.91</ele>
        <time>2025-05-19T07:07:04Z</time>
      </trkpt>
      <trkpt lat="43.772929022088647" lon="7.499695038422942">
        <ele>5.42</ele>
        <time>2025-05-19T07:07:06Z</time>
      </trkpt>
      <trkpt lat="43.773122979328036" lon="7.49999200925231">
        <ele>5.42</ele>
        <time>2025-05-19T07:07:09Z</time>
      </trkpt>
      <trkpt lat="43.773179976269603" lon="7.5001220125705">
        <ele>5.91</ele>
        <time>2025-05-19T07:07:10Z</time>
      </trkpt>
      <trkpt lat="43.773587001487613" lon="7.501141000539064">
        <ele>6.87</ele>
        <time>2025-05-19T07:07:20Z</time>
      </trkpt>
      <trkpt lat="43.773749023675919" lon="7.50153997913003">
        <ele>8.310000000000001</ele>
        <time>2025-05-19T07:07:27Z</time>
      </trkpt>
      <trkpt lat="43.773782970383763" lon="7.501628994941711">
        <ele>8.310000000000001</ele>
        <time>2025-05-19T07:07:28Z</time>
      </trkpt>
      <trkpt lat="43.773822030052543" lon="7.501720022410154">
        <ele>8.789999999999999</ele>
        <time>2025-05-19T07:07:29Z</time>
      </trkpt>
      <trkpt lat="43.774108020588756" lon="7.502711014822125">
        <ele>11.19</ele>
        <time>2025-05-19T07:07:38Z</time>
      </trkpt>
      <trkpt lat="43.774171974509954" lon="7.502947971224785">
        <ele>11.19</ele>
        <time>2025-05-19T07:07:40Z</time>
      </trkpt>
      <trkpt lat="43.774230983108282" lon="7.503169002011418">
        <ele>11.19</ele>
        <time>2025-05-19T07:07:42Z</time>
      </trkpt>
      <trkpt lat="43.774263001978397" lon="7.503270003944635">
        <ele>11.67</ele>
        <time>2025-05-19T07:07:43Z</time>
      </trkpt>
      <trkpt lat="43.774295020848513" lon="7.503372011706233">
        <ele>12.15</ele>
        <time>2025-05-19T07:07:44Z</time>
      </trkpt>
      <trkpt lat="43.774325028061867" lon="7.503469996154308">
        <ele>12.630000000000001</ele>
        <time>2025-05-19T07:07:45Z</time>
      </trkpt>
      <trkpt lat="43.774349000304937" lon="7.503567980602384">
        <ele>12.630000000000001</ele>
        <time>2025-05-19T07:07:46Z</time>
      </trkpt>
      <trkpt lat="43.774575982242823" lon="7.504380019381642">
        <ele>13.119999999999999</ele>
        <time>2025-05-19T07:07:55Z</time>
      </trkpt>
      <trkpt lat="43.774721994996071" lon="7.504857033491135">
        <ele>14.08</ele>
        <time>2025-05-19T07:08:00Z</time>
      </trkpt>
      <trkpt lat="43.774748984724283" lon="7.504926016554236">
        <ele>14.08</ele>
        <time>2025-05-19T07:08:01Z</time>
      </trkpt>
      <trkpt lat="43.774772034958005" lon="7.505001034587622">
        <ele>14.08</ele>
        <time>2025-05-19T07:08:02Z</time>
      </trkpt>
      <trkpt lat="43.774788966402411" lon="7.505100024864078">
        <ele>14.08</ele>
        <time>2025-05-19T07:08:03Z</time>
      </trkpt>
      <trkpt lat="43.774776980280876" lon="7.505160039290786">
        <ele>14.08</ele>
        <time>2025-05-19T07:08:04Z</time>
      </trkpt>
      <trkpt lat="43.774682013317943" lon="7.505272021517158">
        <ele>14.08</ele>
        <time>2025-05-19T07:08:05Z</time>
      </trkpt>
      <trkpt lat="43.774680001661181" lon="7.505277972668409">
        <ele>14.56</ele>
        <time>2025-05-19T07:08:06Z</time>
      </trkpt>
      <trkpt lat="43.774627028033137" lon="7.505434965714812">
        <ele>14.56</ele>
        <time>2025-05-19T07:08:08Z</time>
      </trkpt>
      <trkpt lat="43.774600960314274" lon="7.50551400706172">
        <ele>14.08</ele>
        <time>2025-05-19T07:08:09Z</time>
      </trkpt>
      <trkpt lat="43.774576988071203" lon="7.505586007609963">
        <ele>14.08</ele>
        <time>2025-05-19T07:08:10Z</time>
      </trkpt>
      <trkpt lat="43.774398034438491" lon="7.506156982854009">
        <ele>12.630000000000001</ele>
        <time>2025-05-19T07:08:21Z</time>
      </trkpt>
      <trkpt lat="43.774381019175053" lon="7.506477003917098">
        <ele>13.119999999999999</ele>
        <time>2025-05-19T07:08:25Z</time>
      </trkpt>
      <trkpt lat="43.774381019175053" lon="7.50656702555716">
        <ele>13.119999999999999</ele>
        <time>2025-05-19T07:08:26Z</time>
      </trkpt>
      <trkpt lat="43.774382025003433" lon="7.506656041368842">
        <ele>12.630000000000001</ele>
        <time>2025-05-19T07:08:27Z</time>
      </trkpt>
      <trkpt lat="43.774398034438491" lon="7.506829965859652">
        <ele>12.630000000000001</ele>
        <time>2025-05-19T07:08:29Z</time>
      </trkpt>
      <trkpt lat="43.774429969489574" lon="7.506961980834603">
        <ele>12.630000000000001</ele>
        <time>2025-05-19T07:08:31Z</time>
      </trkpt>
      <trkpt lat="43.774718977510929" lon="7.50774702988565">
        <ele>12.15</ele>
        <time>2025-05-19T07:08:40Z</time>
      </trkpt>
      <trkpt lat="43.775005973875523" lon="7.508342983201146">
        <ele>10.710000000000001</ele>
        <time>2025-05-19T07:08:49Z</time>
      </trkpt>
      <trkpt lat="43.775046039372683" lon="7.508382964879274">
        <ele>10.710000000000001</ele>
        <time>2025-05-19T07:08:50Z</time>
      </trkpt>
      <trkpt lat="43.775144023820758" lon="7.508367039263248">
        <ele>10.710000000000001</ele>
        <time>2025-05-19T07:08:51Z</time>
      </trkpt>
      <trkpt lat="43.775218036025763" lon="7.508404003456235">
        <ele>10.710000000000001</ele>
        <time>2025-05-19T07:08:52Z</time>
      </trkpt>
      <trkpt lat="43.775305040180683" lon="7.508439961820841">
        <ele>10.710000000000001</ele>
        <time>2025-05-19T07:08:53Z</time>
      </trkpt>
      <trkpt lat="43.775418028235435" lon="7.508487990126014">
        <ele>10.23</ele>
        <time>2025-05-19T07:08:54Z</time>
      </trkpt>
      <trkpt lat="43.775573009625077" lon="7.508517997339368">
        <ele>10.23</ele>
        <time>2025-05-19T07:08:55Z</time>
      </trkpt>
      <trkpt lat="43.77585900016129" lon="7.508533000946045">
        <ele>10.23</ele>
        <time>2025-05-19T07:08:57Z</time>
      </trkpt>
      <trkpt lat="43.775955978780985" lon="7.508510034531355">
        <ele>10.23</ele>
        <time>2025-05-19T07:08:58Z</time>
      </trkpt>
      <trkpt lat="43.776040971279144" lon="7.508493019267917">
        <ele>10.23</ele>
        <time>2025-05-19T07:08:59Z</time>
      </trkpt>
      <trkpt lat="43.77620198763907" lon="7.508408026769757">
        <ele>10.23</ele>
        <time>2025-05-19T07:09:01Z</time>
      </trkpt>
      <trkpt lat="43.776283962652087" lon="7.508363015949726">
        <ele>10.23</ele>
        <time>2025-05-19T07:09:02Z</time>
      </trkpt>
      <trkpt lat="43.77719197422266" lon="7.507861023768783">
        <ele>9.75</ele>
        <time>2025-05-19T07:09:13Z</time>
      </trkpt>
      <trkpt lat="43.777994960546494" lon="7.507536979392171">
        <ele>11.67</ele>
        <time>2025-05-19T07:09:22Z</time>
      </trkpt>
      <trkpt lat="43.778713038191199" lon="7.507361965253949">
        <ele>13.119999999999999</ele>
        <time>2025-05-19T07:09:30Z</time>
      </trkpt>
      <trkpt lat="43.778769029304385" lon="7.507389960810542">
        <ele>13.119999999999999</ele>
        <time>2025-05-19T07:09:31Z</time>
      </trkpt>
      <trkpt lat="43.778828037902713" lon="7.507419968023896">
        <ele>13.119999999999999</ele>
        <time>2025-05-19T07:09:32Z</time>
      </trkpt>
      <trkpt lat="43.778884029015899" lon="7.507453998550773">
        <ele>13.119999999999999</ele>
        <time>2025-05-19T07:09:33Z</time>
      </trkpt>
      <trkpt lat="43.778947982937098" lon="7.507506972178817">
        <ele>13.119999999999999</ele>
        <time>2025-05-19T07:09:34Z</time>
      </trkpt>
      <trkpt lat="43.77901897765696" lon="7.507566986605525">
        <ele>13.119999999999999</ele>
        <time>2025-05-19T07:09:35Z</time>
      </trkpt>
      <trkpt lat="43.779816012829542" lon="7.508247010409832">
        <ele>12.15</ele>
        <time>2025-05-19T07:09:43Z</time>
      </trkpt>
      <trkpt lat="43.780422024428844" lon="7.50895100645721">
        <ele>10.710000000000001</ele>
        <time>2025-05-19T07:09:51Z</time>
      </trkpt>
      <trkpt lat="43.780987970530987" lon="7.50950999557972">
        <ele>10.23</ele>
        <time>2025-05-19T07:09:57Z</time>
      </trkpt>
      <trkpt lat="43.781795985996723" lon="7.510719001293182">
        <ele>6.87</ele>
        <time>2025-05-19T07:10:07Z</time>
      </trkpt>
      <trkpt lat="43.782364027574658" lon="7.511855000630021">
        <ele>7.35</ele>
        <time>2025-05-19T07:10:17Z</time>
      </trkpt>
      <trkpt lat="43.782528983429074" lon="7.512206034734845">
        <ele>8.310000000000001</ele>
        <time>2025-05-19T07:10:24Z</time>
      </trkpt>
      <trkpt lat="43.782528983429074" lon="7.512206034734845">
        <ele>8.310000000000001</ele>
        <time>2025-05-19T07:10:37Z</time>
      </trkpt>
      <trkpt lat="43.78256100229919" lon="7.512277029454708">
        <ele>8.789999999999999</ele>
        <time>2025-05-19T07:11:10Z</time>
      </trkpt>
      <trkpt lat="43.782593021169305" lon="7.512347018346191">
        <ele>8.789999999999999</ele>
        <time>2025-05-19T07:11:11Z</time>
      </trkpt>
      <trkpt lat="43.783015972003341" lon="7.513522999361157">
        <ele>9.75</ele>
        <time>2025-05-19T07:11:21Z</time>
      </trkpt>
      <trkpt lat="43.783397013321519" lon="7.514671990647912">
        <ele>9.27</ele>
        <time>2025-05-19T07:11:28Z</time>
      </trkpt>
      <trkpt lat="43.783800015226007" lon="7.516314005479217">
        <ele>9.75</ele>
        <time>2025-05-19T07:11:39Z</time>
      </trkpt>
      <trkpt lat="43.784061027690768" lon="7.517517982050777">
        <ele>11.19</ele>
        <time>2025-05-19T07:11:49Z</time>
      </trkpt>
      <trkpt lat="43.784441985189915" lon="7.519164020195603">
        <ele>11.67</ele>
        <time>2025-05-19T07:12:01Z</time>
      </trkpt>
      <trkpt lat="43.784591015428305" lon="7.520050993189216">
        <ele>11.67</ele>
        <time>2025-05-19T07:12:09Z</time>
      </trkpt>
      <trkpt lat="43.784748008474708" lon="7.52167196944356">
        <ele>11.67</ele>
        <time>2025-05-19T07:12:20Z</time>
      </trkpt>
      <trkpt lat="43.784972978755832" lon="7.523250030353665">
        <ele>10.710000000000001</ele>
        <time>2025-05-19T07:12:30Z</time>
      </trkpt>
      <trkpt lat="43.785127960145473" lon="7.524846028536558">
        <ele>11.19</ele>
        <time>2025-05-19T07:12:40Z</time>
      </trkpt>
      <trkpt lat="43.785105999559164" lon="7.526072971522808">
        <ele>11.19</ele>
        <time>2025-05-19T07:12:47Z</time>
      </trkpt>
      <trkpt lat="43.785002985969186" lon="7.527480041608214">
        <ele>10.710000000000001</ele>
        <time>2025-05-19T07:12:55Z</time>
      </trkpt>
      <trkpt lat="43.784961998462677" lon="7.527634017169476">
        <ele>10.23</ele>
        <time>2025-05-19T07:12:56Z</time>
      </trkpt>
      <trkpt lat="43.784922016784549" lon="7.527785981073976">
        <ele>10.23</ele>
        <time>2025-05-19T07:12:57Z</time>
      </trkpt>
      <trkpt lat="43.784613981842995" lon="7.528734980151057">
        <ele>8.789999999999999</ele>
        <time>2025-05-19T07:13:03Z</time>
      </trkpt>
      <trkpt lat="43.784540975466371" lon="7.528832964599133">
        <ele>8.789999999999999</ele>
        <time>2025-05-19T07:13:04Z</time>
      </trkpt>
      <trkpt lat="43.784413989633322" lon="7.529002027586103">
        <ele>8.789999999999999</ele>
        <time>2025-05-19T07:13:06Z</time>
      </trkpt>
      <trkpt lat="43.784373002126813" lon="7.529118033125997">
        <ele>8.789999999999999</ele>
        <time>2025-05-19T07:13:07Z</time>
      </trkpt>
      <trkpt lat="43.784362021833658" lon="7.529224986210465">
        <ele>8.310000000000001</ele>
        <time>2025-05-19T07:13:08Z</time>
      </trkpt>
      <trkpt lat="43.784349029883742" lon="7.52934099175036">
        <ele>8.789999999999999</ele>
        <time>2025-05-19T07:13:09Z</time>
      </trkpt>
      <trkpt lat="43.784337965771556" lon="7.529456997290254">
        <ele>8.789999999999999</ele>
        <time>2025-05-19T07:13:10Z</time>
      </trkpt>
      <trkpt lat="43.784344000741839" lon="7.529581971466541">
        <ele>8.789999999999999</ele>
        <time>2025-05-19T07:13:11Z</time>
      </trkpt>
      <trkpt lat="43.784350035712123" lon="7.529707029461861">
        <ele>8.789999999999999</ele>
        <time>2025-05-19T07:13:12Z</time>
      </trkpt>
      <trkpt lat="43.784450031816959" lon="7.531214011833072">
        <ele>11.67</ele>
        <time>2025-05-19T07:13:24Z</time>
      </trkpt>
      <trkpt lat="43.784522032365203" lon="7.531503019854426">
        <ele>12.15</ele>
        <time>2025-05-19T07:13:26Z</time>
      </trkpt>
      <trkpt lat="43.784562014043331" lon="7.531660012900829">
        <ele>12.630000000000001</ele>
        <time>2025-05-19T07:13:27Z</time>
      </trkpt>
      <trkpt lat="43.784638037905097" lon="7.531793033704162">
        <ele>12.630000000000001</ele>
        <time>2025-05-19T07:13:28Z</time>
      </trkpt>
      <trkpt lat="43.784822020679712" lon="7.532180026173592">
        <ele>14.08</ele>
        <time>2025-05-19T07:13:31Z</time>
      </trkpt>
      <trkpt lat="43.784857979044318" lon="7.532314974814653">
        <ele>15.039999999999999</ele>
        <time>2025-05-19T07:13:32Z</time>
      </trkpt>
      <trkpt lat="43.784873988479376" lon="7.532523013651371">
        <ele>15.52</ele>
        <time>2025-05-19T07:13:33Z</time>
      </trkpt>
      <trkpt lat="43.784873988479376" lon="7.532643964514136">
        <ele>16.48</ele>
        <time>2025-05-19T07:13:34Z</time>
      </trkpt>
      <trkpt lat="43.784873988479376" lon="7.53288796171546">
        <ele>16.960000000000001</ele>
        <time>2025-05-19T07:13:35Z</time>
      </trkpt>
      <trkpt lat="43.784868959337473" lon="7.532982006669045">
        <ele>17.920000000000002</ele>
        <time>2025-05-19T07:13:36Z</time>
      </trkpt>
      <trkpt lat="43.784852027893066" lon="7.533318037167192">
        <ele>17.920000000000002</ele>
        <time>2025-05-19T07:13:38Z</time>
      </trkpt>
      <trkpt lat="43.784405020996928" lon="7.538925027474761">
        <ele>17.920000000000002</ele>
        <time>2025-05-19T07:14:08Z</time>
      </trkpt>
      <trkpt lat="43.784524966031313" lon="7.539651989936829">
        <ele>33.299999999999997</ele>
        <time>2025-05-19T07:14:13Z</time>
      </trkpt>
      <trkpt lat="43.785024024546146" lon="7.541234996169806">
        <ele>34.740000000000002</ele>
        <time>2025-05-19T07:14:17Z</time>
      </trkpt>
      <trkpt lat="43.785050008445978" lon="7.541440017521381">
        <ele>35.710000000000001</ele>
        <time>2025-05-19T07:14:18Z</time>
      </trkpt>
      <trkpt lat="43.785103987902403" lon="7.541870009154081">
        <ele>38.109999999999999</ele>
        <time>2025-05-19T07:14:20Z</time>
      </trkpt>
      <trkpt lat="43.785084960982203" lon="7.542327996343374">
        <ele>39.07</ele>
        <time>2025-05-19T07:14:22Z</time>
      </trkpt>
      <trkpt lat="43.785071969032288" lon="7.542542992159724">
        <ele>38.109999999999999</ele>
        <time>2025-05-19T07:14:23Z</time>
      </trkpt>
      <trkpt lat="43.78503299318254" lon="7.542759999632835">
        <ele>38.590000000000003</ele>
        <time>2025-05-19T07:14:24Z</time>
      </trkpt>
      <trkpt lat="43.784868959337473" lon="7.543357964605093">
        <ele>39.549999999999997</ele>
        <time>2025-05-19T07:14:27Z</time>
      </trkpt>
      <trkpt lat="43.784807017073035" lon="7.543553011491895">
        <ele>39.07</ele>
        <time>2025-05-19T07:14:28Z</time>
      </trkpt>
      <trkpt lat="43.784744990989566" lon="7.543745040893555">
        <ele>38.590000000000003</ele>
        <time>2025-05-19T07:14:29Z</time>
      </trkpt>
      <trkpt lat="43.784639965742826" lon="7.544072018936276">
        <ele>38.109999999999999</ele>
        <time>2025-05-19T07:14:31Z</time>
      </trkpt>
      <trkpt lat="43.784589003771544" lon="7.544234041124582">
        <ele>37.630000000000003</ele>
        <time>2025-05-19T07:14:32Z</time>
      </trkpt>
      <trkpt lat="43.78400101326406" lon="7.545787040144205">
        <ele>37.630000000000003</ele>
        <time>2025-05-19T07:14:40Z</time>
      </trkpt>
      <trkpt lat="43.783021001145244" lon="7.547737006098032">
        <ele>44.359999999999999</ele>
        <time>2025-05-19T07:14:50Z</time>
      </trkpt>
      <trkpt lat="43.782551027834415" lon="7.548950035125017">
        <ele>49.649999999999999</ele>
        <time>2025-05-19T07:14:56Z</time>
      </trkpt>
      <trkpt lat="43.782502999529243" lon="7.549170982092619">
        <ele>50.609999999999999</ele>
        <time>2025-05-19T07:14:57Z</time>
      </trkpt>
      <trkpt lat="43.782492019236088" lon="7.549415985122323">
        <ele>51.090000000000003</ele>
        <time>2025-05-19T07:14:58Z</time>
      </trkpt>
      <trkpt lat="43.782492019236088" lon="7.549876989796758">
        <ele>51.090000000000003</ele>
        <time>2025-05-19T07:15:00Z</time>
      </trkpt>
      <trkpt lat="43.782592015340924" lon="7.551296968013048">
        <ele>50.130000000000003</ele>
        <time>2025-05-19T07:15:06Z</time>
      </trkpt>
      <trkpt lat="43.78288496285677" lon="7.552129961550236">
        <ele>47.719999999999999</ele>
        <time>2025-05-19T07:15:10Z</time>
      </trkpt>
      <trkpt lat="43.784768041223288" lon="7.556600030511618">
        <ele>47.719999999999999</ele>
        <time>2025-05-19T07:15:33Z</time>
      </trkpt>
      <trkpt lat="43.785155033692718" lon="7.556947963312268">
        <ele>41.469999999999999</ele>
        <time>2025-05-19T07:15:37Z</time>
      </trkpt>
      <trkpt lat="43.786173015832901" lon="7.557579958811402">
        <ele>40.509999999999998</ele>
        <time>2025-05-19T07:15:47Z</time>
      </trkpt>
      <trkpt lat="43.78653896972537" lon="7.557793026790023">
        <ele>40.509999999999998</ele>
        <time>2025-05-19T07:15:51Z</time>
      </trkpt>
      <trkpt lat="43.786913976073265" lon="7.557996036484838">
        <ele>40.990000000000002</ele>
        <time>2025-05-19T07:15:55Z</time>
      </trkpt>
      <trkpt lat="43.787851994857192" lon="7.558353021740913">
        <ele>38.590000000000003</ele>
        <time>2025-05-19T07:16:03Z</time>
      </trkpt>
      <trkpt lat="43.788306964561343" lon="7.558663990348578">
        <ele>36.189999999999998</ele>
        <time>2025-05-19T07:16:07Z</time>
      </trkpt>
      <trkpt lat="43.788409978151321" lon="7.558782007545233">
        <ele>35.710000000000001</ele>
        <time>2025-05-19T07:16:08Z</time>
      </trkpt>
      <trkpt lat="43.788510980084538" lon="7.558897007256746">
        <ele>35.710000000000001</ele>
        <time>2025-05-19T07:16:09Z</time>
      </trkpt>
      <trkpt lat="43.789188992232084" lon="7.559934016317129">
        <ele>33.299999999999997</ele>
        <time>2025-05-19T07:16:17Z</time>
      </trkpt>
      <trkpt lat="43.789275996387005" lon="7.560059996321797">
        <ele>33.299999999999997</ele>
        <time>2025-05-19T07:16:18Z</time>
      </trkpt>
      <trkpt lat="43.790328009054065" lon="7.561606960371137">
        <ele>28.98</ele>
        <time>2025-05-19T07:16:30Z</time>
      </trkpt>
      <trkpt lat="43.790417024865746" lon="7.561710979789496">
        <ele>28.5</ele>
        <time>2025-05-19T07:16:31Z</time>
      </trkpt>
      <trkpt lat="43.790512997657061" lon="7.561798989772797">
        <ele>28.02</ele>
        <time>2025-05-19T07:16:32Z</time>
      </trkpt>
      <trkpt lat="43.790608970448375" lon="7.561886999756098">
        <ele>27.530000000000001</ele>
        <time>2025-05-19T07:16:33Z</time>
      </trkpt>
      <trkpt lat="43.790712989866734" lon="7.561965035274625">
        <ele>27.530000000000001</ele>
        <time>2025-05-19T07:16:34Z</time>
      </trkpt>
      <trkpt lat="43.790821032598615" lon="7.562023038044572">
        <ele>27.530000000000001</ele>
        <time>2025-05-19T07:16:35Z</time>
      </trkpt>
      <trkpt lat="43.791504995897412" lon="7.562381029129028">
        <ele>30.420000000000002</ele>
        <time>2025-05-19T07:16:41Z</time>
      </trkpt>
      <trkpt lat="43.791957031935453" lon="7.562602981925011">
        <ele>33.299999999999997</ele>
        <time>2025-05-19T07:16:45Z</time>
      </trkpt>
      <trkpt lat="43.792586009949446" lon="7.562889978289604">
        <ele>37.149999999999999</ele>
        <time>2025-05-19T07:16:52Z</time>
      </trkpt>
      <trkpt lat="43.792662033811212" lon="7.562928032130003">
        <ele>37.149999999999999</ele>
        <time>2025-05-19T07:16:53Z</time>
      </trkpt>
      <trkpt lat="43.79274501465261" lon="7.562969019636512">
        <ele>37.149999999999999</ele>
        <time>2025-05-19T07:16:54Z</time>
      </trkpt>
      <trkpt lat="43.793312972411513" lon="7.563159037381411">
        <ele>37.149999999999999</ele>
        <time>2025-05-19T07:17:00Z</time>
      </trkpt>
      <trkpt lat="43.79341296851635" lon="7.563161971047521">
        <ele>36.670000000000002</ele>
        <time>2025-05-19T07:17:01Z</time>
      </trkpt>
      <trkpt lat="43.793528974056244" lon="7.56315995939076">
        <ele>36.670000000000002</ele>
        <time>2025-05-19T07:17:02Z</time>
      </trkpt>
      <trkpt lat="43.79422802478075" lon="7.563143027946353">
        <ele>32.340000000000003</ele>
        <time>2025-05-19T07:17:09Z</time>
      </trkpt>
      <trkpt lat="43.794469004496932" lon="7.563204970210791">
        <ele>30.899999999999999</ele>
        <time>2025-05-19T07:17:12Z</time>
      </trkpt>
      <trkpt lat="43.79452901892364" lon="7.563256016001105">
        <ele>30.899999999999999</ele>
        <time>2025-05-19T07:17:13Z</time>
      </trkpt>
      <trkpt lat="43.794569000601768" lon="7.563308989629149">
        <ele>30.899999999999999</ele>
        <time>2025-05-19T07:17:14Z</time>
      </trkpt>
      <trkpt lat="43.794573023915291" lon="7.563315024599433">
        <ele>30.420000000000002</ele>
        <time>2025-05-19T07:17:15Z</time>
      </trkpt>
      <trkpt lat="43.794573023915291" lon="7.563315024599433">
        <ele>30.420000000000002</ele>
        <time>2025-05-19T07:17:16Z</time>
      </trkpt>
      <trkpt lat="43.79467997699976" lon="7.563550975173712">
        <ele>29.940000000000001</ele>
        <time>2025-05-19T07:17:17Z</time>
      </trkpt>
      <trkpt lat="43.794671008363366" lon="7.563629010692239">
        <ele>29.460000000000001</ele>
        <time>2025-05-19T07:17:18Z</time>
      </trkpt>
      <trkpt lat="43.794659022241831" lon="7.563744010403752">
        <ele>28.98</ele>
        <time>2025-05-19T07:17:19Z</time>
      </trkpt>
      <trkpt lat="43.794605964794755" lon="7.563849035650492">
        <ele>28.5</ele>
        <time>2025-05-19T07:17:20Z</time>
      </trkpt>
      <trkpt lat="43.794561037793756" lon="7.563938973471522">
        <ele>28.5</ele>
        <time>2025-05-19T07:17:21Z</time>
      </trkpt>
      <trkpt lat="43.794519966468215" lon="7.564021032303572">
        <ele>28.5</ele>
        <time>2025-05-19T07:17:22Z</time>
      </trkpt>
      <trkpt lat="43.794262977316976" lon="7.564468961209059">
        <ele>26.57</ele>
        <time>2025-05-19T07:17:29Z</time>
      </trkpt>
      <trkpt lat="43.793871039524674" lon="7.565123001113534">
        <ele>24.649999999999999</ele>
        <time>2025-05-19T07:17:36Z</time>
      </trkpt>
      <trkpt lat="43.793616984039545" lon="7.565538994967938">
        <ele>24.649999999999999</ele>
        <time>2025-05-19T07:17:40Z</time>
      </trkpt>
      <trkpt lat="43.793578008189797" lon="7.565655000507832">
        <ele>24.649999999999999</ele>
        <time>2025-05-19T07:17:41Z</time>
      </trkpt>
      <trkpt lat="43.793540960177779" lon="7.56578198634088">
        <ele>24.649999999999999</ele>
        <time>2025-05-19T07:17:42Z</time>
      </trkpt>
      <trkpt lat="43.793531991541386" lon="7.566206026822329">
        <ele>25.129999999999999</ele>
        <time>2025-05-19T07:17:45Z</time>
      </trkpt>
      <trkpt lat="43.793646991252899" lon="7.567537995055318">
        <ele>27.530000000000001</ele>
        <time>2025-05-19T07:17:55Z</time>
      </trkpt>
      <trkpt lat="43.793679010123014" lon="7.567798001691699">
        <ele>28.02</ele>
        <time>2025-05-19T07:17:57Z</time>
      </trkpt>
      <trkpt lat="43.793817982077599" lon="7.569058975204825">
        <ele>30.899999999999999</ele>
        <time>2025-05-19T07:18:07Z</time>
      </trkpt>
      <trkpt lat="43.793981010094285" lon="7.570272004231811">
        <ele>32.82</ele>
        <time>2025-05-19T07:18:15Z</time>
      </trkpt>
      <trkpt lat="43.794027026742697" lon="7.570409970358014">
        <ele>32.82</ele>
        <time>2025-05-19T07:18:16Z</time>
      </trkpt>
      <trkpt lat="43.794080000370741" lon="7.570535028353334">
        <ele>32.82</ele>
        <time>2025-05-19T07:18:17Z</time>
      </trkpt>
      <trkpt lat="43.794152000918984" lon="7.570637036114931">
        <ele>32.82</ele>
        <time>2025-05-19T07:18:18Z</time>
      </trkpt>
      <trkpt lat="43.794226013123989" lon="7.570732003077865">
        <ele>32.82</ele>
        <time>2025-05-19T07:18:19Z</time>
      </trkpt>
      <trkpt lat="43.794315028935671" lon="7.570802997797728">
        <ele>33.299999999999997</ele>
        <time>2025-05-19T07:18:20Z</time>
      </trkpt>
      <trkpt lat="43.794414019212127" lon="7.570862006396055">
        <ele>33.299999999999997</ele>
        <time>2025-05-19T07:18:21Z</time>
      </trkpt>
      <trkpt lat="43.794515021145344" lon="7.570923026651144">
        <ele>32.82</ele>
        <time>2025-05-19T07:18:22Z</time>
      </trkpt>
      <trkpt lat="43.795092031359673" lon="7.571289986371994">
        <ele>32.340000000000003</ele>
        <time>2025-05-19T07:18:28Z</time>
      </trkpt>
      <trkpt lat="43.795155985280871" lon="7.571379002183676">
        <ele>32.340000000000003</ele>
        <time>2025-05-19T07:18:29Z</time>
      </trkpt>
      <trkpt lat="43.795208958908916" lon="7.571486039087176">
        <ele>32.340000000000003</ele>
        <time>2025-05-19T07:18:30Z</time>
      </trkpt>
      <trkpt lat="43.795237960293889" lon="7.571621993556619">
        <ele>32.340000000000003</ele>
        <time>2025-05-19T07:18:31Z</time>
      </trkpt>
      <trkpt lat="43.795237960293889" lon="7.571757026016712">
        <ele>31.859999999999999</ele>
        <time>2025-05-19T07:18:32Z</time>
      </trkpt>
      <trkpt lat="43.795182975009084" lon="7.571877976879478">
        <ele>31.859999999999999</ele>
        <time>2025-05-19T07:18:33Z</time>
      </trkpt>
      <trkpt lat="43.79513100720942" lon="7.571961963549256">
        <ele>31.859999999999999</ele>
        <time>2025-05-19T07:18:34Z</time>
      </trkpt>
      <trkpt lat="43.795028999447823" lon="7.572020972147584">
        <ele>31.379999999999999</ele>
        <time>2025-05-19T07:18:35Z</time>
      </trkpt>
      <trkpt lat="43.79493503831327" lon="7.57207696326077">
        <ele>31.379999999999999</ele>
        <time>2025-05-19T07:18:36Z</time>
      </trkpt>
      <trkpt lat="43.794834958389401" lon="7.572134966030717">
        <ele>31.379999999999999</ele>
        <time>2025-05-19T07:18:37Z</time>
      </trkpt>
      <trkpt lat="43.794454000890255" lon="7.572392961010337">
        <ele>31.379999999999999</ele>
        <time>2025-05-19T07:18:41Z</time>
      </trkpt>
      <trkpt lat="43.794386023655534" lon="7.572473008185625">
        <ele>31.379999999999999</ele>
        <time>2025-05-19T07:18:42Z</time>
      </trkpt>
      <trkpt lat="43.794319974258542" lon="7.572552971541882">
        <ele>30.899999999999999</ele>
        <time>2025-05-19T07:18:43Z</time>
      </trkpt>
      <trkpt lat="43.794284015893936" lon="7.572662020102143">
        <ele>30.899999999999999</ele>
        <time>2025-05-19T07:18:44Z</time>
      </trkpt>
      <trkpt lat="43.794267000630498" lon="7.572782970964909">
        <ele>30.899999999999999</ele>
        <time>2025-05-19T07:18:45Z</time>
      </trkpt>
      <trkpt lat="43.794251997023821" lon="7.572910040616989">
        <ele>30.899999999999999</ele>
        <time>2025-05-19T07:18:46Z</time>
      </trkpt>
      <trkpt lat="43.794289967045188" lon="7.573026968166232">
        <ele>30.899999999999999</ele>
        <time>2025-05-19T07:18:47Z</time>
      </trkpt>
      <trkpt lat="43.794330032542348" lon="7.573151020333171">
        <ele>30.899999999999999</ele>
        <time>2025-05-19T07:18:48Z</time>
      </trkpt>
      <trkpt lat="43.79442298784852" lon="7.573442962020636">
        <ele>30.899999999999999</ele>
        <time>2025-05-19T07:18:50Z</time>
      </trkpt>
      <trkpt lat="43.794435979798436" lon="7.57357900030911">
        <ele>30.899999999999999</ele>
        <time>2025-05-19T07:18:51Z</time>
      </trkpt>
      <trkpt lat="43.794444026425481" lon="7.573735993355513">
        <ele>30.899999999999999</ele>
        <time>2025-05-19T07:18:52Z</time>
      </trkpt>
      <trkpt lat="43.79442298784852" lon="7.574021983891726">
        <ele>31.859999999999999</ele>
        <time>2025-05-19T07:18:54Z</time>
      </trkpt>
      <trkpt lat="43.794366996735334" lon="7.574189035221934">
        <ele>32.340000000000003</ele>
        <time>2025-05-19T07:18:55Z</time>
      </trkpt>
      <trkpt lat="43.794319974258542" lon="7.57433102466166">
        <ele>33.299999999999997</ele>
        <time>2025-05-19T07:18:56Z</time>
      </trkpt>
      <trkpt lat="43.794272029772401" lon="7.574473014101386">
        <ele>34.259999999999998</ele>
        <time>2025-05-19T07:18:57Z</time>
      </trkpt>
      <trkpt lat="43.794226013123989" lon="7.57461198605597">
        <ele>34.740000000000002</ele>
        <time>2025-05-19T07:18:58Z</time>
      </trkpt>
      <trkpt lat="43.794132973998785" lon="7.57489001378417">
        <ele>35.710000000000001</ele>
        <time>2025-05-19T07:19:00Z</time>
      </trkpt>
      <trkpt lat="43.794085029512644" lon="7.575034014880657">
        <ele>36.189999999999998</ele>
        <time>2025-05-19T07:19:01Z</time>
      </trkpt>
      <trkpt lat="43.79403498955071" lon="7.575186984613538">
        <ele>36.670000000000002</ele>
        <time>2025-05-19T07:19:02Z</time>
      </trkpt>
      <trkpt lat="43.79394999705255" lon="7.57551496848464">
        <ele>38.109999999999999</ele>
        <time>2025-05-19T07:19:04Z</time>
      </trkpt>
      <trkpt lat="43.793661994859576" lon="7.576577961444855">
        <ele>41.469999999999999</ele>
        <time>2025-05-19T07:19:11Z</time>
      </trkpt>
      <trkpt lat="43.793626958504319" lon="7.576747024431825">
        <ele>42.439999999999998</ele>
        <time>2025-05-19T07:19:12Z</time>
      </trkpt>
      <trkpt lat="43.793594017624855" lon="7.576905023306608">
        <ele>42.920000000000002</ele>
        <time>2025-05-19T07:19:13Z</time>
      </trkpt>
      <trkpt lat="43.79337097518146" lon="7.578271022066474">
        <ele>48.200000000000003</ele>
        <time>2025-05-19T07:19:22Z</time>
      </trkpt>
      <trkpt lat="43.793308027088642" lon="7.578431032598019">
        <ele>48.68</ele>
        <time>2025-05-19T07:19:23Z</time>
      </trkpt>
      <trkpt lat="43.793211970478296" lon="7.578675029799342">
        <ele>49.649999999999999</ele>
        <time>2025-05-19T07:19:25Z</time>
      </trkpt>
      <trkpt lat="43.793172994628549" lon="7.578774020075798">
        <ele>50.130000000000003</ele>
        <time>2025-05-19T07:19:26Z</time>
      </trkpt>
      <trkpt lat="43.793137036263943" lon="7.57886697538197">
        <ele>51.090000000000003</ele>
        <time>2025-05-19T07:19:27Z</time>
      </trkpt>
      <trkpt lat="43.793135024607182" lon="7.578978035598993">
        <ele>51.57</ele>
        <time>2025-05-19T07:19:28Z</time>
      </trkpt>
      <trkpt lat="43.793147010728717" lon="7.579090017825365">
        <ele>52.530000000000001</ele>
        <time>2025-05-19T07:19:29Z</time>
      </trkpt>
      <trkpt lat="43.793191015720367" lon="7.579190013930202">
        <ele>53.490000000000002</ele>
        <time>2025-05-19T07:19:30Z</time>
      </trkpt>
      <trkpt lat="43.793247006833553" lon="7.579291015863419">
        <ele>54.450000000000003</ele>
        <time>2025-05-19T07:19:31Z</time>
      </trkpt>
      <trkpt lat="43.793316995725036" lon="7.57937902584672">
        <ele>55.409999999999997</ele>
        <time>2025-05-19T07:19:32Z</time>
      </trkpt>
      <trkpt lat="43.79339000210166" lon="7.579472986981273">
        <ele>55.890000000000001</ele>
        <time>2025-05-19T07:19:33Z</time>
      </trkpt>
      <trkpt lat="43.793456973508" lon="7.579557979479432">
        <ele>56.859999999999999</ele>
        <time>2025-05-19T07:19:34Z</time>
      </trkpt>
      <trkpt lat="43.793489998206496" lon="7.579669039696455">
        <ele>56.859999999999999</ele>
        <time>2025-05-19T07:19:35Z</time>
      </trkpt>
      <trkpt lat="43.793522017076612" lon="7.579779010266066">
        <ele>57.82</ele>
        <time>2025-05-19T07:19:36Z</time>
      </trkpt>
      <trkpt lat="43.793564010411501" lon="7.579923011362553">
        <ele>58.299999999999997</ele>
        <time>2025-05-19T07:19:37Z</time>
      </trkpt>
      <trkpt lat="43.793538026511669" lon="7.58002501912415">
        <ele>58.780000000000001</ele>
        <time>2025-05-19T07:19:38Z</time>
      </trkpt>
      <trkpt lat="43.793505001813173" lon="7.580156028270721">
        <ele>59.740000000000002</ele>
        <time>2025-05-19T07:19:39Z</time>
      </trkpt>
      <trkpt lat="43.793470971286297" lon="7.580290976911783">
        <ele>60.219999999999999</ele>
        <time>2025-05-19T07:19:40Z</time>
      </trkpt>
      <trkpt lat="43.793334010988474" lon="7.580830017104745">
        <ele>62.619999999999997</ele>
        <time>2025-05-19T07:19:44Z</time>
      </trkpt>
      <trkpt lat="43.793298974633217" lon="7.580965971574187">
        <ele>63.579999999999998</ele>
        <time>2025-05-19T07:19:45Z</time>
      </trkpt>
      <trkpt lat="43.793266033753753" lon="7.581096980720758">
        <ele>64.549999999999997</ele>
        <time>2025-05-19T07:19:46Z</time>
      </trkpt>
      <trkpt lat="43.793232003226876" lon="7.581232013180852">
        <ele>65.030000000000001</ele>
        <time>2025-05-19T07:19:47Z</time>
      </trkpt>
      <trkpt lat="43.793226974084973" lon="7.581382971256971">
        <ele>65.989999999999995</ele>
        <time>2025-05-19T07:19:48Z</time>
      </trkpt>
      <trkpt lat="43.793235020712018" lon="7.581519009545445">
        <ele>66.469999999999999</ele>
        <time>2025-05-19T07:19:49Z</time>
      </trkpt>
      <trkpt lat="43.79324197769165" lon="7.581660998985171">
        <ele>67.430000000000007</ele>
        <time>2025-05-19T07:19:50Z</time>
      </trkpt>
      <trkpt lat="43.793249018490314" lon="7.581791002303362">
        <ele>67.909999999999997</ele>
        <time>2025-05-19T07:19:51Z</time>
      </trkpt>
      <trkpt lat="43.793255975469947" lon="7.581931985914707">
        <ele>68.390000000000001</ele>
        <time>2025-05-19T07:19:52Z</time>
      </trkpt>
      <trkpt lat="43.793270979076624" lon="7.582223005592823">
        <ele>69.349999999999994</ele>
        <time>2025-05-19T07:19:54Z</time>
      </trkpt>
      <trkpt lat="43.793296040967107" lon="7.582621984183788">
        <ele>70.790000000000006</ele>
        <time>2025-05-19T07:19:57Z</time>
      </trkpt>
      <trkpt lat="43.79330400377512" lon="7.582771014422178">
        <ele>71.269999999999996</ele>
        <time>2025-05-19T07:19:58Z</time>
      </trkpt>
      <trkpt lat="43.793307021260262" lon="7.583721019327641">
        <ele>72.719999999999999</ele>
        <time>2025-05-19T07:20:04Z</time>
      </trkpt>
      <trkpt lat="43.793270979076624" lon="7.583857979625464">
        <ele>72.719999999999999</ele>
        <time>2025-05-19T07:20:05Z</time>
      </trkpt>
      <trkpt lat="43.793236026540399" lon="7.583992006257176">
        <ele>72.239999999999995</ele>
        <time>2025-05-19T07:20:06Z</time>
      </trkpt>
      <trkpt lat="43.793204007670283" lon="7.584115974605084">
        <ele>72.239999999999995</ele>
        <time>2025-05-19T07:20:07Z</time>
      </trkpt>
      <trkpt lat="43.793194033205509" lon="7.584265004843473">
        <ele>71.760000000000005</ele>
        <time>2025-05-19T07:20:08Z</time>
      </trkpt>
      <trkpt lat="43.793235020712018" lon="7.584390984848142">
        <ele>71.269999999999996</ele>
        <time>2025-05-19T07:20:09Z</time>
      </trkpt>
      <trkpt lat="43.793279025703669" lon="7.584531968459487">
        <ele>71.269999999999996</ele>
        <time>2025-05-19T07:20:10Z</time>
      </trkpt>
      <trkpt lat="43.79332797601819" lon="7.584684016183019">
        <ele>70.790000000000006</ele>
        <time>2025-05-19T07:20:11Z</time>
      </trkpt>
      <trkpt lat="43.793380027636886" lon="7.584846038371325">
        <ele>70.310000000000002</ele>
        <time>2025-05-19T07:20:12Z</time>
      </trkpt>
      <trkpt lat="43.793431995436549" lon="7.585008982568979">
        <ele>70.790000000000006</ele>
        <time>2025-05-19T07:20:13Z</time>
      </trkpt>
      <trkpt lat="43.793484969064593" lon="7.585175028070808">
        <ele>70.790000000000006</ele>
        <time>2025-05-19T07:20:14Z</time>
      </trkpt>
      <trkpt lat="43.793508019298315" lon="7.585336966440082">
        <ele>71.269999999999996</ele>
        <time>2025-05-19T07:20:15Z</time>
      </trkpt>
      <trkpt lat="43.79352000541985" lon="7.585518015548587">
        <ele>71.269999999999996</ele>
        <time>2025-05-19T07:20:16Z</time>
      </trkpt>
      <trkpt lat="43.793532997369766" lon="7.585696969181299">
        <ele>71.269999999999996</ele>
        <time>2025-05-19T07:20:17Z</time>
      </trkpt>
      <trkpt lat="43.79354196600616" lon="7.585855973884463">
        <ele>71.269999999999996</ele>
        <time>2025-05-19T07:20:18Z</time>
      </trkpt>
      <trkpt lat="43.793526962399483" lon="7.58601900190115">
        <ele>71.269999999999996</ele>
        <time>2025-05-19T07:20:19Z</time>
      </trkpt>
      <trkpt lat="43.793517993763089" lon="7.587134968489409">
        <ele>72.239999999999995</ele>
        <time>2025-05-19T07:20:26Z</time>
      </trkpt>
      <trkpt lat="43.79349603317678" lon="7.587289027869701">
        <ele>72.239999999999995</ele>
        <time>2025-05-19T07:20:27Z</time>
      </trkpt>
      <trkpt lat="43.793479017913342" lon="7.587410984560847">
        <ele>72.719999999999999</ele>
        <time>2025-05-19T07:20:28Z</time>
      </trkpt>
      <trkpt lat="43.793408023193479" lon="7.587584992870688">
        <ele>73.200000000000003</ele>
        <time>2025-05-19T07:20:29Z</time>
      </trkpt>
      <trkpt lat="43.79334700293839" lon="7.58773603476584">
        <ele>73.200000000000003</ele>
        <time>2025-05-19T07:20:30Z</time>
      </trkpt>
      <trkpt lat="43.793281959369779" lon="7.587894033640623">
        <ele>73.200000000000003</ele>
        <time>2025-05-19T07:20:31Z</time>
      </trkpt>
      <trkpt lat="43.79283201880753" lon="7.589222984388471">
        <ele>75.599999999999994</ele>
        <time>2025-05-19T07:20:39Z</time>
      </trkpt>
      <trkpt lat="43.792791031301022" lon="7.589404033496976">
        <ele>76.079999999999998</ele>
        <time>2025-05-19T07:20:40Z</time>
      </trkpt>
      <trkpt lat="43.792504034936428" lon="7.591000031679869">
        <ele>79.450000000000003</ele>
        <time>2025-05-19T07:20:49Z</time>
      </trkpt>
      <trkpt lat="43.792247967794538" lon="7.592427972704172">
        <ele>78.480000000000004</ele>
        <time>2025-05-19T07:20:57Z</time>
      </trkpt>
      <trkpt lat="43.792218966409564" lon="7.592586977407336">
        <ele>78.480000000000004</ele>
        <time>2025-05-19T07:20:58Z</time>
      </trkpt>
      <trkpt lat="43.792164986953139" lon="7.592719998210669">
        <ele>78</ele>
        <time>2025-05-19T07:20:59Z</time>
      </trkpt>
      <trkpt lat="43.79210296086967" lon="7.592844972386956">
        <ele>77.519999999999996</ele>
        <time>2025-05-19T07:21:00Z</time>
      </trkpt>
      <trkpt lat="43.79203800112009" lon="7.592974975705147">
        <ele>77.519999999999996</ele>
        <time>2025-05-19T07:21:01Z</time>
      </trkpt>
      <trkpt lat="43.791748993098736" lon="7.593510998412967">
        <ele>76.079999999999998</ele>
        <time>2025-05-19T07:21:05Z</time>
      </trkpt>
      <trkpt lat="43.791508013382554" lon="7.593973008915782">
        <ele>75.120000000000005</ele>
        <time>2025-05-19T07:21:08Z</time>
      </trkpt>
      <trkpt lat="43.791416985914111" lon="7.594127990305424">
        <ele>75.120000000000005</ele>
        <time>2025-05-19T07:21:09Z</time>
      </trkpt>
      <trkpt lat="43.790803011506796" lon="7.595010017976165">
        <ele>74.159999999999997</ele>
        <time>2025-05-19T07:21:16Z</time>
      </trkpt>
      <trkpt lat="43.790750037878752" lon="7.59513096883893">
        <ele>74.159999999999997</ele>
        <time>2025-05-19T07:21:17Z</time>
      </trkpt>
      <trkpt lat="43.79070402123034" lon="7.595276981592178">
        <ele>74.159999999999997</ele>
        <time>2025-05-19T07:21:18Z</time>
      </trkpt>
      <trkpt lat="43.790664961561561" lon="7.595425006002188">
        <ele>73.680000000000007</ele>
        <time>2025-05-19T07:21:19Z</time>
      </trkpt>
      <trkpt lat="43.790650963783264" lon="7.595593985170126">
        <ele>73.200000000000003</ele>
        <time>2025-05-19T07:21:20Z</time>
      </trkpt>
      <trkpt lat="43.790646018460393" lon="7.595760030671954">
        <ele>72.239999999999995</ele>
        <time>2025-05-19T07:21:21Z</time>
      </trkpt>
      <trkpt lat="43.790648030117154" lon="7.595920963212848">
        <ele>71.760000000000005</ele>
        <time>2025-05-19T07:21:22Z</time>
      </trkpt>
      <trkpt lat="43.790658004581928" lon="7.596077034249902">
        <ele>71.269999999999996</ele>
        <time>2025-05-19T07:21:23Z</time>
      </trkpt>
      <trkpt lat="43.790710978209972" lon="7.596726967021823">
        <ele>68.390000000000001</ele>
        <time>2025-05-19T07:21:27Z</time>
      </trkpt>
      <trkpt lat="43.790799994021654" lon="7.597198029980063">
        <ele>66.950000000000003</ele>
        <time>2025-05-19T07:21:30Z</time>
      </trkpt>
      <trkpt lat="43.790841987356544" lon="7.597344964742661">
        <ele>66.469999999999999</ele>
        <time>2025-05-19T07:21:31Z</time>
      </trkpt>
      <trkpt lat="43.790881969034672" lon="7.597487038001418">
        <ele>65.510000000000005</ele>
        <time>2025-05-19T07:21:32Z</time>
      </trkpt>
      <trkpt lat="43.791311038658023" lon="7.598483981564641">
        <ele>61.659999999999997</ele>
        <time>2025-05-19T07:21:39Z</time>
      </trkpt>
      <trkpt lat="43.791643967851996" lon="7.599213039502502">
        <ele>58.780000000000001</ele>
        <time>2025-05-19T07:21:45Z</time>
      </trkpt>
      <trkpt lat="43.791639022529125" lon="7.599357962608337">
        <ele>58.299999999999997</ele>
        <time>2025-05-19T07:21:46Z</time>
      </trkpt>
      <trkpt lat="43.791615972295403" lon="7.599504981189966">
        <ele>57.82</ele>
        <time>2025-05-19T07:21:47Z</time>
      </trkpt>
      <trkpt lat="43.791576996445656" lon="7.599639007821679">
        <ele>56.859999999999999</ele>
        <time>2025-05-19T07:21:48Z</time>
      </trkpt>
      <trkpt lat="43.791528968140483" lon="7.599773034453392">
        <ele>56.369999999999997</ele>
        <time>2025-05-19T07:21:49Z</time>
      </trkpt>
      <trkpt lat="43.791473982855678" lon="7.599903959780932">
        <ele>55.890000000000001</ele>
        <time>2025-05-19T07:21:50Z</time>
      </trkpt>
      <trkpt lat="43.790708966553211" lon="7.601597020402551">
        <ele>47.719999999999999</ele>
        <time>2025-05-19T07:22:03Z</time>
      </trkpt>
      <trkpt lat="43.790027014911175" lon="7.602523975074291">
        <ele>45.32</ele>
        <time>2025-05-19T07:22:12Z</time>
      </trkpt>
      <trkpt lat="43.789963982999325" lon="7.602654984220862">
        <ele>44.840000000000003</ele>
        <time>2025-05-19T07:22:13Z</time>
      </trkpt>
      <trkpt lat="43.789928024634719" lon="7.602805020287633">
        <ele>44.359999999999999</ele>
        <time>2025-05-19T07:22:14Z</time>
      </trkpt>
      <trkpt lat="43.789890976622701" lon="7.602961007505655">
        <ele>43.880000000000003</ele>
        <time>2025-05-19T07:22:15Z</time>
      </trkpt>
      <trkpt lat="43.789859963580966" lon="7.6031210180372">
        <ele>43.399999999999999</ele>
        <time>2025-05-19T07:22:16Z</time>
      </trkpt>
      <trkpt lat="43.789700036868453" lon="7.604048978537321">
        <ele>37.630000000000003</ele>
        <time>2025-05-19T07:22:22Z</time>
      </trkpt>
      <trkpt lat="43.789688972756267" lon="7.604176970198751">
        <ele>37.149999999999999</ele>
        <time>2025-05-19T07:22:23Z</time>
      </trkpt>
      <trkpt lat="43.789720991626382" lon="7.604289958253503">
        <ele>36.189999999999998</ele>
        <time>2025-05-19T07:22:24Z</time>
      </trkpt>
      <trkpt lat="43.789753010496497" lon="7.604404035955668">
        <ele>35.710000000000001</ele>
        <time>2025-05-19T07:22:25Z</time>
      </trkpt>
      <trkpt lat="43.789810007438064" lon="7.604483999311924">
        <ele>34.740000000000002</ele>
        <time>2025-05-19T07:22:26Z</time>
      </trkpt>
      <trkpt lat="43.789873961359262" lon="7.604534961283207">
        <ele>34.259999999999998</ele>
        <time>2025-05-19T07:22:27Z</time>
      </trkpt>
      <trkpt lat="43.789964988827705" lon="7.604534961283207">
        <ele>33.299999999999997</ele>
        <time>2025-05-19T07:22:28Z</time>
      </trkpt>
      <trkpt lat="43.790056016296148" lon="7.604534961283207">
        <ele>32.82</ele>
        <time>2025-05-19T07:22:29Z</time>
      </trkpt>
      <trkpt lat="43.790127011016011" lon="7.604509983211756">
        <ele>31.859999999999999</ele>
        <time>2025-05-19T07:22:30Z</time>
      </trkpt>
      <trkpt lat="43.79021099768579" lon="7.60445399209857">
        <ele>30.899999999999999</ele>
        <time>2025-05-19T07:22:31Z</time>
      </trkpt>
      <trkpt lat="43.790303030982614" lon="7.604393977671862">
        <ele>30.420000000000002</ele>
        <time>2025-05-19T07:22:32Z</time>
      </trkpt>
      <trkpt lat="43.790770992636681" lon="7.604062976315618">
        <ele>27.530000000000001</ele>
        <time>2025-05-19T07:22:37Z</time>
      </trkpt>
      <trkpt lat="43.790939971804619" lon="7.603924004361033">
        <ele>26.57</ele>
        <time>2025-05-19T07:22:39Z</time>
      </trkpt>
      <trkpt lat="43.791612032800913" lon="7.603397034108639">
        <ele>21.77</ele>
        <time>2025-05-19T07:22:47Z</time>
      </trkpt>
      <trkpt lat="43.791654026135802" lon="7.603377001360059">
        <ele>21.289999999999999</ele>
        <time>2025-05-19T07:22:48Z</time>
      </trkpt>
      <trkpt lat="43.791718985885382" lon="7.603355040773749">
        <ele>20.32</ele>
        <time>2025-05-19T07:22:49Z</time>
      </trkpt>
      <trkpt lat="43.791796015575528" lon="7.603397034108639">
        <ele>19.84</ele>
        <time>2025-05-19T07:22:50Z</time>
      </trkpt>
      <trkpt lat="43.791796015575528" lon="7.603397034108639">
        <ele>18.399999999999999</ele>
        <time>2025-05-19T07:22:57Z</time>
      </trkpt>
      <trkpt lat="43.791804984211922" lon="7.603569030761719">
        <ele>17.440000000000001</ele>
        <time>2025-05-19T07:23:02Z</time>
      </trkpt>
      <trkpt lat="43.791815964505076" lon="7.603585962206125">
        <ele>16.960000000000001</ele>
        <time>2025-05-19T07:23:03Z</time>
      </trkpt>
      <trkpt lat="43.79186499863863" lon="7.603638013824821">
        <ele>16.48</ele>
        <time>2025-05-19T07:23:04Z</time>
      </trkpt>
      <trkpt lat="43.791917972266674" lon="7.603651005774736">
        <ele>16</ele>
        <time>2025-05-19T07:23:05Z</time>
      </trkpt>
      <trkpt lat="43.791933981701732" lon="7.603655029088259">
        <ele>16</ele>
        <time>2025-05-19T07:23:06Z</time>
      </trkpt>
      <trkpt lat="43.792028026655316" lon="7.603632984682918">
        <ele>15.52</ele>
        <time>2025-05-19T07:23:07Z</time>
      </trkpt>
      <trkpt lat="43.79207999445498" lon="7.603677995502949">
        <ele>15.52</ele>
        <time>2025-05-19T07:23:08Z</time>
      </trkpt>
      <trkpt lat="43.792133973911405" lon="7.603734992444515">
        <ele>15.52</ele>
        <time>2025-05-19T07:23:09Z</time>
      </trkpt>
      <trkpt lat="43.792168004438281" lon="7.603815961629152">
        <ele>15.039999999999999</ele>
        <time>2025-05-19T07:23:10Z</time>
      </trkpt>
      <trkpt lat="43.792203962802887" lon="7.603898020461202">
        <ele>14.56</ele>
        <time>2025-05-19T07:23:11Z</time>
      </trkpt>
      <trkpt lat="43.792687011882663" lon="7.604939974844456">
        <ele>13.119999999999999</ele>
        <time>2025-05-19T07:23:24Z</time>
      </trkpt>
      <trkpt lat="43.792712995782495" lon="7.604995965957642">
        <ele>12.630000000000001</ele>
        <time>2025-05-19T07:23:25Z</time>
      </trkpt>
      <trkpt lat="43.792735040187836" lon="7.605045000091195">
        <ele>12.15</ele>
        <time>2025-05-19T07:23:26Z</time>
      </trkpt>
      <trkpt lat="43.792664967477322" lon="7.605095962062478">
        <ele>12.15</ele>
        <time>2025-05-19T07:23:27Z</time>
      </trkpt>
      <trkpt lat="43.792620040476322" lon="7.605146002024412">
        <ele>11.67</ele>
        <time>2025-05-19T07:23:28Z</time>
      </trkpt>
      <trkpt lat="43.792566983029246" lon="7.605202998965979">
        <ele>11.67</ele>
        <time>2025-05-19T07:23:29Z</time>
      </trkpt>
      <trkpt lat="43.792511997744441" lon="7.605264019221067">
        <ele>11.19</ele>
        <time>2025-05-19T07:23:30Z</time>
      </trkpt>
      <trkpt lat="43.792455000802875" lon="7.605326967313886">
        <ele>10.710000000000001</ele>
        <time>2025-05-19T07:23:31Z</time>
      </trkpt>
      <trkpt lat="43.792197005823255" lon="7.605609018355608">
        <ele>9.75</ele>
        <time>2025-05-19T07:23:35Z</time>
      </trkpt>
      <trkpt lat="43.791489992290735" lon="7.606260040774941">
        <ele>8.789999999999999</ele>
        <time>2025-05-19T07:23:44Z</time>
      </trkpt>
      <trkpt lat="43.790779961273074" lon="7.606877032667399">
        <ele>8.789999999999999</ele>
        <time>2025-05-19T07:23:54Z</time>
      </trkpt>
      <trkpt lat="43.79023103043437" lon="7.607219014316797">
        <ele>7.35</ele>
        <time>2025-05-19T07:24:03Z</time>
      </trkpt>
      <trkpt lat="43.790184007957578" lon="7.607235023751855">
        <ele>7.35</ele>
        <time>2025-05-19T07:24:04Z</time>
      </trkpt>
      <trkpt lat="43.78971797414124" lon="7.607392016798258">
        <ele>5.91</ele>
        <time>2025-05-19T07:24:12Z</time>
      </trkpt>
      <trkpt lat="43.788880035281181" lon="7.607687981799245">
        <ele>5.42</ele>
        <time>2025-05-19T07:24:23Z</time>
      </trkpt>
      <trkpt lat="43.788392962887883" lon="7.607860984280706">
        <ele>4.46</ele>
        <time>2025-05-19T07:24:31Z</time>
      </trkpt>
      <trkpt lat="43.788371002301574" lon="7.607899038121104">
        <ele>4.46</ele>
        <time>2025-05-19T07:24:32Z</time>
      </trkpt>
      <trkpt lat="43.788345018401742" lon="7.607943965122104">
        <ele>4.94</ele>
        <time>2025-05-19T07:24:33Z</time>
      </trkpt>
      <trkpt lat="43.788306964561343" lon="7.608011020347476">
        <ele>4.94</ele>
        <time>2025-05-19T07:24:34Z</time>
      </trkpt>
      <trkpt lat="43.788302019238472" lon="7.608033986762166">
        <ele>4.94</ele>
        <time>2025-05-19T07:24:35Z</time>
      </trkpt>
      <trkpt lat="43.788286009803414" lon="7.60810699313879">
        <ele>4.94</ele>
        <time>2025-05-19T07:24:36Z</time>
      </trkpt>
      <trkpt lat="43.788188025355339" lon="7.608547965064645">
        <ele>4.46</ele>
        <time>2025-05-19T07:24:42Z</time>
      </trkpt>
      <trkpt lat="43.788172015920281" lon="7.608615020290017">
        <ele>4.46</ele>
        <time>2025-05-19T07:24:43Z</time>
      </trkpt>
      <trkpt lat="43.788158018141985" lon="7.608675034716725">
        <ele>3.98</ele>
        <time>2025-05-19T07:24:44Z</time>
      </trkpt>
      <trkpt lat="43.788143014535308" lon="7.608736976981163">
        <ele>3.5</ele>
        <time>2025-05-19T07:24:45Z</time>
      </trkpt>
      <trkpt lat="43.788123987615108" lon="7.60881400667131">
        <ele>3.5</ele>
        <time>2025-05-19T07:24:46Z</time>
      </trkpt>
      <trkpt lat="43.78810403868556" lon="7.60890000499785">
        <ele>3.5</ele>
        <time>2025-05-19T07:24:47Z</time>
      </trkpt>
      <trkpt lat="43.788059027865529" lon="7.609085999429226">
        <ele>3.5</ele>
        <time>2025-05-19T07:24:49Z</time>
      </trkpt>
      <trkpt lat="43.788036983460188" lon="7.609177026897669">
        <ele>3.02</ele>
        <time>2025-05-19T07:24:50Z</time>
      </trkpt>
      <trkpt lat="43.788015022873878" lon="7.60926797054708">
        <ele>3.02</ele>
        <time>2025-05-19T07:24:51Z</time>
      </trkpt>
      <trkpt lat="43.78795400261879" lon="7.60952303186059">
        <ele>5.42</ele>
        <time>2025-05-19T07:24:54Z</time>
      </trkpt>
      <trkpt lat="43.787932964041829" lon="7.609610036015511">
        <ele>5.91</ele>
        <time>2025-05-19T07:24:55Z</time>
      </trkpt>
      <trkpt lat="43.78791100345552" lon="7.609699973836541">
        <ele>6.87</ele>
        <time>2025-05-19T07:24:56Z</time>
      </trkpt>
      <trkpt lat="43.787889964878559" lon="7.609788989648223">
        <ele>7.83</ele>
        <time>2025-05-19T07:24:57Z</time>
      </trkpt>
      <trkpt lat="43.78786800429225" lon="7.609876999631524">
        <ele>8.789999999999999</ele>
        <time>2025-05-19T07:24:58Z</time>
      </trkpt>
      <trkpt lat="43.787821987643838" lon="7.610070034861565">
        <ele>10.23</ele>
        <time>2025-05-19T07:25:01Z</time>
      </trkpt>
      <trkpt lat="43.787807989865541" lon="7.610128037631512">
        <ele>11.19</ele>
        <time>2025-05-19T07:25:02Z</time>
      </trkpt>
      <trkpt lat="43.787748981267214" lon="7.610371029004455">
        <ele>12.15</ele>
        <time>2025-05-19T07:25:06Z</time>
      </trkpt>
      <trkpt lat="43.787735989317298" lon="7.610427020117641">
        <ele>12.15</ele>
        <time>2025-05-19T07:25:07Z</time>
      </trkpt>
      <trkpt lat="43.787690978497267" lon="7.610615026205778">
        <ele>12.630000000000001</ele>
        <time>2025-05-19T07:25:10Z</time>
      </trkpt>
      <trkpt lat="43.78767597489059" lon="7.610675040632486">
        <ele>12.630000000000001</ele>
        <time>2025-05-19T07:25:11Z</time>
      </trkpt>
      <trkpt lat="43.787662982940674" lon="7.610730025917292">
        <ele>13.119999999999999</ele>
        <time>2025-05-19T07:25:12Z</time>
      </trkpt>
      <trkpt lat="43.787649990990758" lon="7.610780987888575">
        <ele>13.119999999999999</ele>
        <time>2025-05-19T07:25:13Z</time>
      </trkpt>
      <trkpt lat="43.787639010697603" lon="7.610827004536986">
        <ele>13.119999999999999</ele>
        <time>2025-05-19T07:25:14Z</time>
      </trkpt>
      <trkpt lat="43.787627024576068" lon="7.61087603867054">
        <ele>13.119999999999999</ele>
        <time>2025-05-19T07:25:15Z</time>
      </trkpt>
      <trkpt lat="43.787612020969391" lon="7.610938986763358">
        <ele>13.6</ele>
        <time>2025-05-19T07:25:16Z</time>
      </trkpt>
      <trkpt lat="43.787471959367394" lon="7.611504010856152">
        <ele>13.119999999999999</ele>
        <time>2025-05-19T07:25:23Z</time>
      </trkpt>
      <trkpt lat="43.787448992952704" lon="7.611595038324595">
        <ele>13.119999999999999</ele>
        <time>2025-05-19T07:25:24Z</time>
      </trkpt>
      <trkpt lat="43.787425020709634" lon="7.611690005287528">
        <ele>13.119999999999999</ele>
        <time>2025-05-19T07:25:25Z</time>
      </trkpt>
      <trkpt lat="43.7873749807477" lon="7.611885974183679">
        <ele>13.6</ele>
        <time>2025-05-19T07:25:27Z</time>
      </trkpt>
      <trkpt lat="43.787212958559394" lon="7.612473964691162">
        <ele>14.08</ele>
        <time>2025-05-19T07:25:34Z</time>
      </trkpt>
      <trkpt lat="43.787201978266239" lon="7.612513024359942">
        <ele>14.56</ele>
        <time>2025-05-19T07:25:35Z</time>
      </trkpt>
      <trkpt lat="43.787182029336691" lon="7.612589970231056">
        <ele>14.56</ele>
        <time>2025-05-19T07:25:36Z</time>
      </trkpt>
      <trkpt lat="43.786951024085283" lon="7.61345598846674">
        <ele>16</ele>
        <time>2025-05-19T07:25:47Z</time>
      </trkpt>
      <trkpt lat="43.786844993010163" lon="7.613854967057705">
        <ele>16</ele>
        <time>2025-05-19T07:25:55Z</time>
      </trkpt>
      <trkpt lat="43.786739967763424" lon="7.614286970347166">
        <ele>15.52</ele>
        <time>2025-05-19T07:26:04Z</time>
      </trkpt>
      <trkpt lat="43.786726975813508" lon="7.614353019744158">
        <ele>15.039999999999999</ele>
        <time>2025-05-19T07:26:10Z</time>
      </trkpt>
      <trkpt lat="43.786722030490637" lon="7.614381015300751">
        <ele>15.039999999999999</ele>
        <time>2025-05-19T07:26:11Z</time>
      </trkpt>
      <trkpt lat="43.786717001348734" lon="7.614405993372202">
        <ele>14.56</ele>
        <time>2025-05-19T07:26:12Z</time>
      </trkpt>
      <trkpt lat="43.786717001348734" lon="7.614405993372202">
        <ele>14.56</ele>
        <time>2025-05-19T07:26:13Z</time>
      </trkpt>
      <trkpt lat="43.786689005792141" lon="7.61440297588706">
        <ele>12.15</ele>
        <time>2025-05-19T08:04:49Z</time>
      </trkpt>
      <trkpt lat="43.78666402772069" lon="7.614440023899078">
        <ele>18.399999999999999</ele>
        <time>2025-05-19T08:05:31Z</time>
      </trkpt>
      <trkpt lat="43.786662016063929" lon="7.614404987543821">
        <ele>14.56</ele>
        <time>2025-05-19T08:06:23Z</time>
      </trkpt>
      <trkpt lat="43.786655981093645" lon="7.614414962008596">
        <ele>15.52</ele>
        <time>2025-05-19T08:06:53Z</time>
      </trkpt>
      <trkpt lat="43.78670702688396" lon="7.614459972828627">
        <ele>15.52</ele>
        <time>2025-05-19T08:06:55Z</time>
      </trkpt>
      <trkpt lat="43.786697974428535" lon="7.6145080011338">
        <ele>15.52</ele>
        <time>2025-05-19T08:06:56Z</time>
      </trkpt>
      <trkpt lat="43.786684982478619" lon="7.614575978368521">
        <ele>15.52</ele>
        <time>2025-05-19T08:06:57Z</time>
      </trkpt>
      <trkpt lat="43.786640977486968" lon="7.614805977791548">
        <ele>15.039999999999999</ele>
        <time>2025-05-19T08:07:00Z</time>
      </trkpt>
      <trkpt lat="43.78662496805191" lon="7.614890970289707">
        <ele>15.039999999999999</ele>
        <time>2025-05-19T08:07:01Z</time>
      </trkpt>
      <trkpt lat="43.786608958616853" lon="7.614975962787867">
        <ele>14.56</ele>
        <time>2025-05-19T08:07:02Z</time>
      </trkpt>
      <trkpt lat="43.786485996097326" lon="7.615624973550439">
        <ele>14.08</ele>
        <time>2025-05-19T08:07:10Z</time>
      </trkpt>
      <trkpt lat="43.786439979448915" lon="7.615864025428891">
        <ele>13.6</ele>
        <time>2025-05-19T08:07:14Z</time>
      </trkpt>
      <trkpt lat="43.786401003599167" lon="7.616006014868617">
        <ele>13.6</ele>
        <time>2025-05-19T08:07:15Z</time>
      </trkpt>
      <trkpt lat="43.786416007205844" lon="7.616068962961435">
        <ele>13.119999999999999</ele>
        <time>2025-05-19T08:07:16Z</time>
      </trkpt>
      <trkpt lat="43.786482978612185" lon="7.616036022081971">
        <ele>13.119999999999999</ele>
        <time>2025-05-19T08:07:17Z</time>
      </trkpt>
      <trkpt lat="43.786499993875623" lon="7.616040967404842">
        <ele>12.630000000000001</ele>
        <time>2025-05-19T08:07:18Z</time>
      </trkpt>
      <trkpt lat="43.786482978612185" lon="7.616036022081971">
        <ele>12.630000000000001</ele>
        <time>2025-05-19T08:07:19Z</time>
      </trkpt>
      <trkpt lat="43.786585992202163" lon="7.616064017638564">
        <ele>12.15</ele>
        <time>2025-05-19T08:07:20Z</time>
      </trkpt>
      <trkpt lat="43.786636032164097" lon="7.616078015416861">
        <ele>12.15</ele>
        <time>2025-05-19T08:07:21Z</time>
      </trkpt>
      <trkpt lat="43.786696968600154" lon="7.616095030680299">
        <ele>11.67</ele>
        <time>2025-05-19T08:07:22Z</time>
      </trkpt>
      <trkpt lat="43.78681699745357" lon="7.616128977388144">
        <ele>11.19</ele>
        <time>2025-05-19T08:07:24Z</time>
      </trkpt>
      <trkpt lat="43.78688002936542" lon="7.616145992651582">
        <ele>11.19</ele>
        <time>2025-05-19T08:07:25Z</time>
      </trkpt>
      <trkpt lat="43.786942977458239" lon="7.616164013743401">
        <ele>11.19</ele>
        <time>2025-05-19T08:07:26Z</time>
      </trkpt>
      <trkpt lat="43.787070969119668" lon="7.616198966279626">
        <ele>11.19</ele>
        <time>2025-05-19T08:07:28Z</time>
      </trkpt>
      <trkpt lat="43.787131989374757" lon="7.616215981543064">
        <ele>11.19</ele>
        <time>2025-05-19T08:07:29Z</time>
      </trkpt>
      <trkpt lat="43.787195021286607" lon="7.616234002634883">
        <ele>11.19</ele>
        <time>2025-05-19T08:07:30Z</time>
      </trkpt>
      <trkpt lat="43.787386966869235" lon="7.616265015676618">
        <ele>10.710000000000001</ele>
        <time>2025-05-19T08:07:33Z</time>
      </trkpt>
      <trkpt lat="43.787714028730989" lon="7.6163350045681">
        <ele>11.19</ele>
        <time>2025-05-19T08:07:39Z</time>
      </trkpt>
      <trkpt lat="43.787714028730989" lon="7.6163350045681">
        <ele>11.19</ele>
        <time>2025-05-19T08:07:40Z</time>
      </trkpt>
      <trkpt lat="43.787860041484237" lon="7.616370040923357">
        <ele>10.23</ele>
        <time>2025-05-19T08:07:48Z</time>
      </trkpt>
      <trkpt lat="43.788329008966684" lon="7.616439023986459">
        <ele>9.27</ele>
        <time>2025-05-19T08:07:55Z</time>
      </trkpt>
      <trkpt lat="43.788729999214411" lon="7.616510018706322">
        <ele>9.27</ele>
        <time>2025-05-19T08:08:01Z</time>
      </trkpt>
      <trkpt lat="43.788782972842455" lon="7.616519993171096">
        <ele>9.75</ele>
        <time>2025-05-19T08:08:02Z</time>
      </trkpt>
      <trkpt lat="43.789123026654124" lon="7.616571960970759">
        <ele>9.75</ele>
        <time>2025-05-19T08:08:11Z</time>
      </trkpt>
      <trkpt lat="43.789123026654124" lon="7.616571960970759">
        <ele>10.23</ele>
        <time>2025-05-19T08:08:13Z</time>
      </trkpt>
      <trkpt lat="43.789123026654124" lon="7.616571960970759">
        <ele>10.23</ele>
        <time>2025-05-19T08:08:14Z</time>
      </trkpt>
      <trkpt lat="43.7890500202775" lon="7.616567015647888">
        <ele>10.23</ele>
        <time>2025-05-19T08:08:15Z</time>
      </trkpt>
      <trkpt lat="43.789008026942611" lon="7.616559974849224">
        <ele>9.75</ele>
        <time>2025-05-19T08:08:16Z</time>
      </trkpt>
      <trkpt lat="43.788953041657805" lon="7.61655000038445">
        <ele>9.27</ele>
        <time>2025-05-19T08:08:17Z</time>
      </trkpt>
      <trkpt lat="43.788893027231097" lon="7.616539020091295">
        <ele>8.789999999999999</ele>
        <time>2025-05-19T08:08:18Z</time>
      </trkpt>
      <trkpt lat="43.788363039493561" lon="7.616444975137711">
        <ele>7.35</ele>
        <time>2025-05-19T08:08:27Z</time>
      </trkpt>
      <trkpt lat="43.788363039493561" lon="7.616444975137711">
        <ele>7.35</ele>
        <time>2025-05-19T08:08:47Z</time>
      </trkpt>
      <trkpt lat="43.788156006485224" lon="7.616408010944724">
        <ele>7.35</ele>
        <time>2025-05-19T08:08:56Z</time>
      </trkpt>
      <trkpt lat="43.78810596652329" lon="7.616399964317679">
        <ele>9.75</ele>
        <time>2025-05-19T08:08:57Z</time>
      </trkpt>
      <trkpt lat="43.788114013150334" lon="7.61640097014606">
        <ele>10.710000000000001</ele>
        <time>2025-05-19T08:08:58Z</time>
      </trkpt>
      <trkpt lat="43.788099009543657" lon="7.616444975137711">
        <ele>11.67</ele>
        <time>2025-05-19T08:08:59Z</time>
      </trkpt>
      <trkpt lat="43.788077970966697" lon="7.616508007049561">
        <ele>12.15</ele>
        <time>2025-05-19T08:09:00Z</time>
      </trkpt>
      <trkpt lat="43.788092974573374" lon="7.616569027304649">
        <ele>12.15</ele>
        <time>2025-05-19T08:09:01Z</time>
      </trkpt>
      <trkpt lat="43.788131028413773" lon="7.616639016196132">
        <ele>12.630000000000001</ele>
        <time>2025-05-19T08:09:02Z</time>
      </trkpt>
      <trkpt lat="43.788167992606759" lon="7.616706993430853">
        <ele>12.630000000000001</ele>
        <time>2025-05-19T08:09:03Z</time>
      </trkpt>
      <trkpt lat="43.788196993991733" lon="7.616817969828844">
        <ele>12.630000000000001</ele>
        <time>2025-05-19T08:09:04Z</time>
      </trkpt>
      <trkpt lat="43.78819297067821" lon="7.616916038095951">
        <ele>12.630000000000001</ele>
        <time>2025-05-19T08:09:05Z</time>
      </trkpt>
      <trkpt lat="43.788188025355339" lon="7.617018967866898">
        <ele>12.630000000000001</ele>
        <time>2025-05-19T08:09:06Z</time>
      </trkpt>
      <trkpt lat="43.788182996213436" lon="7.617119969800115">
        <ele>12.630000000000001</ele>
        <time>2025-05-19T08:09:07Z</time>
      </trkpt>
      <trkpt lat="43.788173021748662" lon="7.617314010858536">
        <ele>12.15</ele>
        <time>2025-05-19T08:09:09Z</time>
      </trkpt>
      <trkpt lat="43.788142008706927" lon="7.617974001914263">
        <ele>11.19</ele>
        <time>2025-05-19T08:09:16Z</time>
      </trkpt>
      <trkpt lat="43.78814603202045" lon="7.61809897609055">
        <ele>11.19</ele>
        <time>2025-05-19T08:09:17Z</time>
      </trkpt>
      <trkpt lat="43.788188025355339" lon="7.618111968040466">
        <ele>10.710000000000001</ele>
        <time>2025-05-19T08:09:18Z</time>
      </trkpt>
      <trkpt lat="43.788231024518609" lon="7.618125965818763">
        <ele>10.23</ele>
        <time>2025-05-19T08:09:19Z</time>
      </trkpt>
      <trkpt lat="43.788274023681879" lon="7.61813904158771">
        <ele>10.23</ele>
        <time>2025-05-19T08:09:20Z</time>
      </trkpt>
      <trkpt lat="43.78831802867353" lon="7.618153039366007">
        <ele>9.75</ele>
        <time>2025-05-19T08:09:21Z</time>
      </trkpt>
      <trkpt lat="43.7883610278368" lon="7.618166031315923">
        <ele>9.75</ele>
        <time>2025-05-19T08:09:22Z</time>
      </trkpt>
      <trkpt lat="43.788446020334959" lon="7.618193021044135">
        <ele>8.789999999999999</ele>
        <time>2025-05-19T08:09:24Z</time>
      </trkpt>
      <trkpt lat="43.788478961214423" lon="7.618202995508909">
        <ele>8.789999999999999</ele>
        <time>2025-05-19T08:09:25Z</time>
      </trkpt>
      <trkpt lat="43.788661016151309" lon="7.61826996691525">
        <ele>7.35</ele>
        <time>2025-05-19T08:09:29Z</time>
      </trkpt>
      <trkpt lat="43.788777021691203" lon="7.61831296607852">
        <ele>6.87</ele>
        <time>2025-05-19T08:09:31Z</time>
      </trkpt>
      <trkpt lat="43.789078015834093" lon="7.618422014638782">
        <ele>6.87</ele>
        <time>2025-05-19T08:09:39Z</time>
      </trkpt>
      <trkpt lat="43.789160996675491" lon="7.618610020726919">
        <ele>7.35</ele>
        <time>2025-05-19T08:09:44Z</time>
      </trkpt>
      <trkpt lat="43.789149010553956" lon="7.618673974648118">
        <ele>6.87</ele>
        <time>2025-05-19T08:09:45Z</time>
      </trkpt>
      <trkpt lat="43.78913501277566" lon="7.618753015995026">
        <ele>6.87</ele>
        <time>2025-05-19T08:09:46Z</time>
      </trkpt>
      <trkpt lat="43.789004003629088" lon="7.619500011205673">
        <ele>6.39</ele>
        <time>2025-05-19T08:09:55Z</time>
      </trkpt>
      <trkpt lat="43.788898978382349" lon="7.620094958692789">
        <ele>6.39</ele>
        <time>2025-05-19T08:10:02Z</time>
      </trkpt>
      <trkpt lat="43.788817003369331" lon="7.620559986680746">
        <ele>7.83</ele>
        <time>2025-05-19T08:10:07Z</time>
      </trkpt>
      <trkpt lat="43.788782972842455" lon="7.620916971936822">
        <ele>9.27</ele>
        <time>2025-05-19T08:10:11Z</time>
      </trkpt>
      <trkpt lat="43.788778027519584" lon="7.620998024940491">
        <ele>9.75</ele>
        <time>2025-05-19T08:10:12Z</time>
      </trkpt>
      <trkpt lat="43.788794036954641" lon="7.622068980708718">
        <ele>12.15</ele>
        <time>2025-05-19T08:10:23Z</time>
      </trkpt>
      <trkpt lat="43.788930997252464" lon="7.623421987518668">
        <ele>14.56</ele>
        <time>2025-05-19T08:10:34Z</time>
      </trkpt>
      <trkpt lat="43.788942983374" lon="7.623541010543704">
        <ele>14.56</ele>
        <time>2025-05-19T08:10:35Z</time>
      </trkpt>
      <trkpt lat="43.789053959771991" lon="7.624683966860175">
        <ele>16</ele>
        <time>2025-05-19T08:10:43Z</time>
      </trkpt>
      <trkpt lat="43.789245989173651" lon="7.626393036916852">
        <ele>21.77</ele>
        <time>2025-05-19T08:10:54Z</time>
      </trkpt>
      <trkpt lat="43.789315978065133" lon="7.626815987750888">
        <ele>24.170000000000002</ele>
        <time>2025-05-19T08:10:57Z</time>
      </trkpt>
      <trkpt lat="43.789395019412041" lon="7.626925958320499">
        <ele>24.170000000000002</ele>
        <time>2025-05-19T08:10:58Z</time>
      </trkpt>
      <trkpt lat="43.789476994425058" lon="7.627039030194283">
        <ele>24.170000000000002</ele>
        <time>2025-05-19T08:10:59Z</time>
      </trkpt>
      <trkpt lat="43.789749993011355" lon="7.627419987693429">
        <ele>24.649999999999999</ele>
        <time>2025-05-19T08:11:03Z</time>
      </trkpt>
      <trkpt lat="43.789798021316528" lon="7.627515038475394">
        <ele>24.170000000000002</ele>
        <time>2025-05-19T08:11:04Z</time>
      </trkpt>
      <trkpt lat="43.789832973852754" lon="7.627622997388244">
        <ele>24.170000000000002</ele>
        <time>2025-05-19T08:11:05Z</time>
      </trkpt>
      <trkpt lat="43.789840014651418" lon="7.627747971564531">
        <ele>23.690000000000001</ele>
        <time>2025-05-19T08:11:06Z</time>
      </trkpt>
      <trkpt lat="43.78984596580267" lon="7.627873029559851">
        <ele>23.210000000000001</ele>
        <time>2025-05-19T08:11:07Z</time>
      </trkpt>
      <trkpt lat="43.789847977459431" lon="7.627996997907758">
        <ele>22.73</ele>
        <time>2025-05-19T08:11:08Z</time>
      </trkpt>
      <trkpt lat="43.789799027144909" lon="7.628093976527453">
        <ele>21.77</ele>
        <time>2025-05-19T08:11:09Z</time>
      </trkpt>
      <trkpt lat="43.789749993011355" lon="7.628191960975528">
        <ele>21.289999999999999</ele>
        <time>2025-05-19T08:11:10Z</time>
      </trkpt>
      <trkpt lat="43.789701964706182" lon="7.628288017585874">
        <ele>20.809999999999999</ele>
        <time>2025-05-19T08:11:11Z</time>
      </trkpt>
      <trkpt lat="43.789654020220041" lon="7.628372004255652">
        <ele>19.84</ele>
        <time>2025-05-19T08:11:12Z</time>
      </trkpt>
      <trkpt lat="43.78960900940001" lon="7.628459008410573">
        <ele>18.879999999999999</ele>
        <time>2025-05-19T08:11:13Z</time>
      </trkpt>
      <trkpt lat="43.789574978873134" lon="7.628552969545126">
        <ele>18.399999999999999</ele>
        <time>2025-05-19T08:11:14Z</time>
      </trkpt>
      <trkpt lat="43.78954203799367" lon="7.628641985356808">
        <ele>17.920000000000002</ele>
        <time>2025-05-19T08:11:15Z</time>
      </trkpt>
      <trkpt lat="43.789529968053102" lon="7.628735024482012">
        <ele>16.960000000000001</ele>
        <time>2025-05-19T08:11:16Z</time>
      </trkpt>
      <trkpt lat="43.789529968053102" lon="7.628829991444945">
        <ele>16</ele>
        <time>2025-05-19T08:11:17Z</time>
      </trkpt>
      <trkpt lat="43.789529968053102" lon="7.628889000043273">
        <ele>15.52</ele>
        <time>2025-05-19T08:11:18Z</time>
      </trkpt>
      <trkpt lat="43.789494009688497" lon="7.629034006968141">
        <ele>15.039999999999999</ele>
        <time>2025-05-19T08:11:19Z</time>
      </trkpt>
      <trkpt lat="43.789528962224722" lon="7.629081029444933">
        <ele>14.08</ele>
        <time>2025-05-19T08:11:20Z</time>
      </trkpt>
      <trkpt lat="43.789615966379642" lon="7.628996036946774">
        <ele>13.6</ele>
        <time>2025-05-19T08:11:21Z</time>
      </trkpt>
      <trkpt lat="43.789653014391661" lon="7.629003999754787">
        <ele>13.119999999999999</ele>
        <time>2025-05-19T08:11:22Z</time>
      </trkpt>
      <trkpt lat="43.789713028818369" lon="7.629015985876322">
        <ele>12.630000000000001</ele>
        <time>2025-05-19T08:11:23Z</time>
      </trkpt>
      <trkpt lat="43.789921989664435" lon="7.62905596755445">
        <ele>9.75</ele>
        <time>2025-05-19T08:11:30Z</time>
      </trkpt>
      <trkpt lat="43.790025003254414" lon="7.629073988646269">
        <ele>8.789999999999999</ele>
        <time>2025-05-19T08:11:43Z</time>
      </trkpt>
      <trkpt lat="43.790723970159888" lon="7.629169961437583">
        <ele>4.94</ele>
        <time>2025-05-19T08:11:51Z</time>
      </trkpt>
      <trkpt lat="43.791694007813931" lon="7.629330977797508">
        <ele>3.02</ele>
        <time>2025-05-19T08:12:01Z</time>
      </trkpt>
      <trkpt lat="43.792632026597857" lon="7.629543039947748">
        <ele>4.46</ele>
        <time>2025-05-19T08:12:11Z</time>
      </trkpt>
      <trkpt lat="43.792852973565459" lon="7.629542034119368">
        <ele>4.46</ele>
        <time>2025-05-19T08:12:13Z</time>
      </trkpt>
      <trkpt lat="43.794070025905967" lon="7.629371965304017">
        <ele>7.35</ele>
        <time>2025-05-19T08:12:24Z</time>
      </trkpt>
      <trkpt lat="43.794966973364353" lon="7.62905303388834">
        <ele>9.27</ele>
        <time>2025-05-19T08:12:32Z</time>
      </trkpt>
      <trkpt lat="43.795900968834758" lon="7.62849303893745">
        <ele>8.789999999999999</ele>
        <time>2025-05-19T08:12:40Z</time>
      </trkpt>
      <trkpt lat="43.796789031475782" lon="7.627682005986571">
        <ele>6.39</ele>
        <time>2025-05-19T08:12:49Z</time>
      </trkpt>
      <trkpt lat="43.797264033928514" lon="7.62720599770546">
        <ele>7.35</ele>
        <time>2025-05-19T08:12:56Z</time>
      </trkpt>
      <trkpt lat="43.797883037477732" lon="7.626677015796304">
        <ele>9.27</ele>
        <time>2025-05-19T08:13:04Z</time>
      </trkpt>
      <trkpt lat="43.798949969932437" lon="7.626120960339904">
        <ele>9.75</ele>
        <time>2025-05-19T08:13:13Z</time>
      </trkpt>
      <trkpt lat="43.800447983667254" lon="7.62561502866447">
        <ele>12.15</ele>
        <time>2025-05-19T08:13:26Z</time>
      </trkpt>
      <trkpt lat="43.801419027149677" lon="7.625306993722916">
        <ele>11.67</ele>
        <time>2025-05-19T08:13:34Z</time>
      </trkpt>
      <trkpt lat="43.801842983812094" lon="7.625168021768332">
        <ele>12.15</ele>
        <time>2025-05-19T08:13:38Z</time>
      </trkpt>
      <trkpt lat="43.803091971203685" lon="7.624768959358335">
        <ele>14.56</ele>
        <time>2025-05-19T08:13:49Z</time>
      </trkpt>
      <trkpt lat="43.804073994979262" lon="7.624598974362016">
        <ele>14.56</ele>
        <time>2025-05-19T08:13:57Z</time>
      </trkpt>
      <trkpt lat="43.804205004125834" lon="7.624608026817441">
        <ele>14.08</ele>
        <time>2025-05-19T08:13:58Z</time>
      </trkpt>
      <trkpt lat="43.804357973858714" lon="7.624619007110596">
        <ele>14.08</ele>
        <time>2025-05-19T08:13:59Z</time>
      </trkpt>
      <trkpt lat="43.804459981620312" lon="7.624644991010428">
        <ele>13.6</ele>
        <time>2025-05-19T08:14:00Z</time>
      </trkpt>
      <trkpt lat="43.804571963846684" lon="7.62467198073864">
        <ele>13.6</ele>
        <time>2025-05-19T08:14:01Z</time>
      </trkpt>
      <trkpt lat="43.804673971608281" lon="7.624706011265516">
        <ele>13.6</ele>
        <time>2025-05-19T08:14:02Z</time>
      </trkpt>
      <trkpt lat="43.804772039875388" lon="7.624741969630122">
        <ele>13.6</ele>
        <time>2025-05-19T08:14:03Z</time>
      </trkpt>
      <trkpt lat="43.804843034595251" lon="7.624820005148649">
        <ele>14.08</ele>
        <time>2025-05-19T08:14:04Z</time>
      </trkpt>
      <trkpt lat="43.804909000173211" lon="7.624904997646809">
        <ele>14.56</ele>
        <time>2025-05-19T08:14:05Z</time>
      </trkpt>
      <trkpt lat="43.804974965751171" lon="7.624985966831446">
        <ele>15.039999999999999</ele>
        <time>2025-05-19T08:14:06Z</time>
      </trkpt>
      <trkpt lat="43.805130030959845" lon="7.625004993751645">
        <ele>15.52</ele>
        <time>2025-05-19T08:14:07Z</time>
      </trkpt>
      <trkpt lat="43.805147968232632" lon="7.624996025115252">
        <ele>16</ele>
        <time>2025-05-19T08:14:08Z</time>
      </trkpt>
      <trkpt lat="43.805218040943146" lon="7.624957971274853">
        <ele>16.48</ele>
        <time>2025-05-19T08:14:09Z</time>
      </trkpt>
      <trkpt lat="43.805300015956163" lon="7.624914972111583">
        <ele>16.960000000000001</ele>
        <time>2025-05-19T08:14:10Z</time>
      </trkpt>
      <trkpt lat="43.805391965433955" lon="7.624866021797061">
        <ele>16.960000000000001</ele>
        <time>2025-05-19T08:14:11Z</time>
      </trkpt>
      <trkpt lat="43.805493973195553" lon="7.624837020412087">
        <ele>16.960000000000001</ele>
        <time>2025-05-19T08:14:12Z</time>
      </trkpt>
      <trkpt lat="43.805604027584195" lon="7.624846994876862">
        <ele>16.960000000000001</ele>
        <time>2025-05-19T08:14:13Z</time>
      </trkpt>
      <trkpt lat="43.805717015638947" lon="7.624856969341636">
        <ele>16.960000000000001</ele>
        <time>2025-05-19T08:14:14Z</time>
      </trkpt>
      <trkpt lat="43.806765004992485" lon="7.62495101429522">
        <ele>16.960000000000001</ele>
        <time>2025-05-19T08:14:23Z</time>
      </trkpt>
      <trkpt lat="43.807126013562083" lon="7.624984038993716">
        <ele>16.960000000000001</ele>
        <time>2025-05-19T08:14:26Z</time>
      </trkpt>
      <trkpt lat="43.807233972474933" lon="7.624996025115252">
        <ele>16.960000000000001</ele>
        <time>2025-05-19T08:14:27Z</time>
      </trkpt>
      <trkpt lat="43.807703023776412" lon="7.625137008726597">
        <ele>16.48</ele>
        <time>2025-05-19T08:14:31Z</time>
      </trkpt>
      <trkpt lat="43.808750007301569" lon="7.62576799839735">
        <ele>16</ele>
        <time>2025-05-19T08:14:41Z</time>
      </trkpt>
      <trkpt lat="43.80941703915596" lon="7.626406028866768">
        <ele>18.399999999999999</ele>
        <time>2025-05-19T08:14:50Z</time>
      </trkpt>
      <trkpt lat="43.810329996049404" lon="7.627284033223987">
        <ele>19.84</ele>
        <time>2025-05-19T08:15:00Z</time>
      </trkpt>
      <trkpt lat="43.810936007648706" lon="7.627803962677717">
        <ele>18.399999999999999</ele>
        <time>2025-05-19T08:15:07Z</time>
      </trkpt>
      <trkpt lat="43.811177993193269" lon="7.627934971824288">
        <ele>17.920000000000002</ele>
        <time>2025-05-19T08:15:10Z</time>
      </trkpt>
      <trkpt lat="43.811260974034667" lon="7.627977970987558">
        <ele>17.440000000000001</ele>
        <time>2025-05-19T08:15:11Z</time>
      </trkpt>
      <trkpt lat="43.811555011197925" lon="7.628131024539471">
        <ele>16.960000000000001</ele>
        <time>2025-05-19T08:15:15Z</time>
      </trkpt>
      <trkpt lat="43.811626005917788" lon="7.628166982904077">
        <ele>16.960000000000001</ele>
        <time>2025-05-19T08:15:16Z</time>
      </trkpt>
      <trkpt lat="43.812501998618245" lon="7.628571996465325">
        <ele>16.48</ele>
        <time>2025-05-19T08:15:27Z</time>
      </trkpt>
      <trkpt lat="43.8132019713521" lon="7.628877013921738">
        <ele>16.48</ele>
        <time>2025-05-19T08:15:34Z</time>
      </trkpt>
      <trkpt lat="43.813273971900344" lon="7.628885982558131">
        <ele>16.48</ele>
        <time>2025-05-19T08:15:35Z</time>
      </trkpt>
      <trkpt lat="43.813331974670291" lon="7.628894029185176">
        <ele>16.48</ele>
        <time>2025-05-19T08:15:36Z</time>
      </trkpt>
      <trkpt lat="43.813377991318703" lon="7.628899980336428">
        <ele>16.960000000000001</ele>
        <time>2025-05-19T08:15:37Z</time>
      </trkpt>
      <trkpt lat="43.813407998532057" lon="7.62890400364995">
        <ele>16.960000000000001</ele>
        <time>2025-05-19T08:15:38Z</time>
      </trkpt>
      <trkpt lat="43.81345602683723" lon="7.628910960629582">
        <ele>17.440000000000001</ele>
        <time>2025-05-19T08:15:48Z</time>
      </trkpt>
      <trkpt lat="43.81350003182888" lon="7.628901991993189">
        <ele>17.920000000000002</ele>
        <time>2025-05-19T08:15:50Z</time>
      </trkpt>
      <trkpt lat="43.813970005139709" lon="7.628764025866985">
        <ele>19.84</ele>
        <time>2025-05-19T08:15:56Z</time>
      </trkpt>
      <trkpt lat="43.814119035378098" lon="7.628651037812233">
        <ele>20.809999999999999</ele>
        <time>2025-05-19T08:15:58Z</time>
      </trkpt>
      <trkpt lat="43.814174020662904" lon="7.628564033657312">
        <ele>21.289999999999999</ele>
        <time>2025-05-19T08:15:59Z</time>
      </trkpt>
      <trkpt lat="43.81442204117775" lon="7.628222974017263">
        <ele>24.170000000000002</ele>
        <time>2025-05-19T08:16:04Z</time>
      </trkpt>
      <trkpt lat="43.814477026462555" lon="7.628168994560838">
        <ele>24.649999999999999</ele>
        <time>2025-05-19T08:16:05Z</time>
      </trkpt>
      <trkpt lat="43.814658997580409" lon="7.627986017614603">
        <ele>26.09</ele>
        <time>2025-05-19T08:16:08Z</time>
      </trkpt>
      <trkpt lat="43.814730998128653" lon="7.62791401706636">
        <ele>27.050000000000001</ele>
        <time>2025-05-19T08:16:09Z</time>
      </trkpt>
      <trkpt lat="43.815165013074875" lon="7.627515960484743">
        <ele>29.460000000000001</ele>
        <time>2025-05-19T08:16:14Z</time>
      </trkpt>
      <trkpt lat="43.815237013623118" lon="7.627452006563544">
        <ele>30.899999999999999</ele>
        <time>2025-05-19T08:16:15Z</time>
      </trkpt>
      <trkpt lat="43.815416973084211" lon="7.627366008237004">
        <ele>33.299999999999997</ele>
        <time>2025-05-19T08:16:17Z</time>
      </trkpt>
      <trkpt lat="43.815510012209415" lon="7.627366008237004">
        <ele>34.740000000000002</ele>
        <time>2025-05-19T08:16:18Z</time>
      </trkpt>
      <trkpt lat="43.815603973343968" lon="7.627366008237004">
        <ele>36.189999999999998</ele>
        <time>2025-05-19T08:16:19Z</time>
      </trkpt>
      <trkpt lat="43.815852999687195" lon="7.627394003793597">
        <ele>38.590000000000003</ele>
        <time>2025-05-19T08:16:22Z</time>
      </trkpt>
      <trkpt lat="43.815902033820748" lon="7.627409007400274">
        <ele>39.07</ele>
        <time>2025-05-19T08:16:23Z</time>
      </trkpt>
      <trkpt lat="43.815957019105554" lon="7.627472039312124">
        <ele>39.549999999999997</ele>
        <time>2025-05-19T08:16:24Z</time>
      </trkpt>
      <trkpt lat="43.816063972190022" lon="7.627596007660031">
        <ele>40.509999999999998</ele>
        <time>2025-05-19T08:16:26Z</time>
      </trkpt>
      <trkpt lat="43.816119041293859" lon="7.627659039571881">
        <ele>40.990000000000002</ele>
        <time>2025-05-19T08:16:27Z</time>
      </trkpt>
      <trkpt lat="43.816170003265142" lon="7.627716036513448">
        <ele>40.990000000000002</ele>
        <time>2025-05-19T08:16:28Z</time>
      </trkpt>
      <trkpt lat="43.816222976893187" lon="7.627760963514447">
        <ele>41.469999999999999</ele>
        <time>2025-05-19T08:16:29Z</time>
      </trkpt>
      <trkpt lat="43.816285002976656" lon="7.627787031233311">
        <ele>41.950000000000003</ele>
        <time>2025-05-19T08:16:30Z</time>
      </trkpt>
      <trkpt lat="43.816351974382997" lon="7.627816032618284">
        <ele>42.439999999999998</ele>
        <time>2025-05-19T08:16:31Z</time>
      </trkpt>
      <trkpt lat="43.816395979374647" lon="7.627816032618284">
        <ele>42.920000000000002</ele>
        <time>2025-05-19T08:16:32Z</time>
      </trkpt>
      <trkpt lat="43.816454987972975" lon="7.627816032618284">
        <ele>42.920000000000002</ele>
        <time>2025-05-19T08:16:33Z</time>
      </trkpt>
      <trkpt lat="43.816517014056444" lon="7.627813015133143">
        <ele>43.399999999999999</ele>
        <time>2025-05-19T08:16:34Z</time>
      </trkpt>
      <trkpt lat="43.81659303791821" lon="7.627806980162859">
        <ele>43.880000000000003</ele>
        <time>2025-05-19T08:16:35Z</time>
      </trkpt>
      <trkpt lat="43.816665960475802" lon="7.627801029011607">
        <ele>44.359999999999999</ele>
        <time>2025-05-19T08:16:36Z</time>
      </trkpt>
      <trkpt lat="43.816738966852427" lon="7.627794994041324">
        <ele>44.840000000000003</ele>
        <time>2025-05-19T08:16:37Z</time>
      </trkpt>
      <trkpt lat="43.816815996542573" lon="7.627783007919788">
        <ele>44.840000000000003</ele>
        <time>2025-05-19T08:16:38Z</time>
      </trkpt>
      <trkpt lat="43.817235007882118" lon="7.627730034291744">
        <ele>45.799999999999997</ele>
        <time>2025-05-19T08:16:43Z</time>
      </trkpt>
      <trkpt lat="43.817574977874756" lon="7.627708995714784">
        <ele>44.840000000000003</ele>
        <time>2025-05-19T08:16:47Z</time>
      </trkpt>
      <trkpt lat="43.81764798425138" lon="7.627698015421629">
        <ele>44.840000000000003</ele>
        <time>2025-05-19T08:16:48Z</time>
      </trkpt>
      <trkpt lat="43.817726019769907" lon="7.627686029300094">
        <ele>44.840000000000003</ele>
        <time>2025-05-19T08:16:49Z</time>
      </trkpt>
      <trkpt lat="43.817801959812641" lon="7.627673959359527">
        <ele>44.840000000000003</ele>
        <time>2025-05-19T08:16:50Z</time>
      </trkpt>
      <trkpt lat="43.817886030301452" lon="7.627660967409611">
        <ele>45.32</ele>
        <time>2025-05-19T08:16:51Z</time>
      </trkpt>
      <trkpt lat="43.817985020577908" lon="7.627645963802934">
        <ele>45.32</ele>
        <time>2025-05-19T08:16:52Z</time>
      </trkpt>
      <trkpt lat="43.819046001881361" lon="7.627524007111788">
        <ele>47.240000000000002</ele>
        <time>2025-05-19T08:17:02Z</time>
      </trkpt>
      <trkpt lat="43.819800037890673" lon="7.627525012940168">
        <ele>47.240000000000002</ele>
        <time>2025-05-19T08:17:10Z</time>
      </trkpt>
      <trkpt lat="43.82003297097981" lon="7.6275700237602">
        <ele>47.719999999999999</ele>
        <time>2025-05-19T08:17:12Z</time>
      </trkpt>
      <trkpt lat="43.82091298699379" lon="7.627931032329798">
        <ele>48.200000000000003</ele>
        <time>2025-05-19T08:17:21Z</time>
      </trkpt>
      <trkpt lat="43.82170801050961" lon="7.628224985674024">
        <ele>49.649999999999999</ele>
        <time>2025-05-19T08:17:29Z</time>
      </trkpt>
      <trkpt lat="43.822906035929918" lon="7.628331016749144">
        <ele>49.649999999999999</ele>
        <time>2025-05-19T08:17:39Z</time>
      </trkpt>
      <trkpt lat="43.823965005576611" lon="7.628368986770511">
        <ele>47.719999999999999</ele>
        <time>2025-05-19T08:17:49Z</time>
      </trkpt>
      <trkpt lat="43.825441980734468" lon="7.628289023414254">
        <ele>46.759999999999998</ele>
        <time>2025-05-19T08:18:02Z</time>
      </trkpt>
      <trkpt lat="43.826845027506351" lon="7.6277219876647">
        <ele>48.200000000000003</ele>
        <time>2025-05-19T08:18:15Z</time>
      </trkpt>
      <trkpt lat="43.82699497975409" lon="7.627665996551514">
        <ele>48.200000000000003</ele>
        <time>2025-05-19T08:18:16Z</time>
      </trkpt>
      <trkpt lat="43.827107967808843" lon="7.627645041793585">
        <ele>48.200000000000003</ele>
        <time>2025-05-19T08:18:17Z</time>
      </trkpt>
      <trkpt lat="43.827247023582458" lon="7.627645041793585">
        <ele>48.68</ele>
        <time>2025-05-19T08:18:18Z</time>
      </trkpt>
      <trkpt lat="43.82738197222352" lon="7.627645041793585">
        <ele>48.68</ele>
        <time>2025-05-19T08:18:19Z</time>
      </trkpt>
      <trkpt lat="43.827522033825517" lon="7.627683011814952">
        <ele>49.159999999999997</ele>
        <time>2025-05-19T08:18:20Z</time>
      </trkpt>
      <trkpt lat="43.82765899412334" lon="7.627719976007938">
        <ele>49.649999999999999</ele>
        <time>2025-05-19T08:18:21Z</time>
      </trkpt>
      <trkpt lat="43.828477989882231" lon="7.627929020673037">
        <ele>52.530000000000001</ele>
        <time>2025-05-19T08:18:27Z</time>
      </trkpt>
      <trkpt lat="43.828616961836815" lon="7.627940000966191">
        <ele>53.009999999999998</ele>
        <time>2025-05-19T08:18:28Z</time>
      </trkpt>
      <trkpt lat="43.829942978918552" lon="7.627873029559851">
        <ele>60.219999999999999</ele>
        <time>2025-05-19T08:18:38Z</time>
      </trkpt>
      <trkpt lat="43.830559970811009" lon="7.627693992108107">
        <ele>61.659999999999997</ele>
        <time>2025-05-19T08:18:43Z</time>
      </trkpt>
      <trkpt lat="43.830686034634709" lon="7.627705978229642">
        <ele>62.140000000000001</ele>
        <time>2025-05-19T08:18:44Z</time>
      </trkpt>
      <trkpt lat="43.831129018217325" lon="7.627708995714784">
        <ele>63.100000000000001</ele>
        <time>2025-05-19T08:18:48Z</time>
      </trkpt>
      <trkpt lat="43.831237982958555" lon="7.627696003764868">
        <ele>63.100000000000001</ele>
        <time>2025-05-19T08:18:49Z</time>
      </trkpt>
      <trkpt lat="43.831748021766543" lon="7.627481007948518">
        <ele>62.619999999999997</ele>
        <time>2025-05-19T08:18:54Z</time>
      </trkpt>
      <trkpt lat="43.831852041184902" lon="7.627415964379907">
        <ele>62.619999999999997</ele>
        <time>2025-05-19T08:18:55Z</time>
      </trkpt>
      <trkpt lat="43.831954970955849" lon="7.627343041822314">
        <ele>62.619999999999997</ele>
        <time>2025-05-19T08:18:56Z</time>
      </trkpt>
      <trkpt lat="43.832370964810252" lon="7.626997036859393">
        <ele>62.140000000000001</ele>
        <time>2025-05-19T08:19:00Z</time>
      </trkpt>
      <trkpt lat="43.832488982006907" lon="7.626939034089446">
        <ele>62.140000000000001</ele>
        <time>2025-05-19T08:19:01Z</time>
      </trkpt>
      <trkpt lat="43.832617979496717" lon="7.626900980249047">
        <ele>61.659999999999997</ele>
        <time>2025-05-19T08:19:02Z</time>
      </trkpt>
      <trkpt lat="43.832749994471669" lon="7.6268620043993">
        <ele>61.18</ele>
        <time>2025-05-19T08:19:03Z</time>
      </trkpt>
      <trkpt lat="43.832885026931763" lon="7.626860998570919">
        <ele>61.18</ele>
        <time>2025-05-19T08:19:04Z</time>
      </trkpt>
      <trkpt lat="43.833027016371489" lon="7.626877008005977">
        <ele>60.700000000000003</ele>
        <time>2025-05-19T08:19:05Z</time>
      </trkpt>
      <trkpt lat="43.834352027624846" lon="7.626741975545883">
        <ele>59.740000000000002</ele>
        <time>2025-05-19T08:19:15Z</time>
      </trkpt>
      <trkpt lat="43.83558701723814" lon="7.626557992771268">
        <ele>62.140000000000001</ele>
        <time>2025-05-19T08:19:26Z</time>
      </trkpt>
      <trkpt lat="43.835720960050821" lon="7.626571990549564">
        <ele>62.619999999999997</ele>
        <time>2025-05-19T08:19:27Z</time>
      </trkpt>
      <trkpt lat="43.835854986682534" lon="7.626623036339879">
        <ele>62.619999999999997</ele>
        <time>2025-05-19T08:19:28Z</time>
      </trkpt>
      <trkpt lat="43.835993958637118" lon="7.626675004139543">
        <ele>62.619999999999997</ele>
        <time>2025-05-19T08:19:29Z</time>
      </trkpt>
      <trkpt lat="43.836128991097212" lon="7.626725966110826">
        <ele>62.140000000000001</ele>
        <time>2025-05-19T08:19:30Z</time>
      </trkpt>
      <trkpt lat="43.836366031318903" lon="7.626815987750888">
        <ele>62.140000000000001</ele>
        <time>2025-05-19T08:19:32Z</time>
      </trkpt>
      <trkpt lat="43.836479019373655" lon="7.626847000792623">
        <ele>62.140000000000001</ele>
        <time>2025-05-19T08:19:33Z</time>
      </trkpt>
      <trkpt lat="43.83659603074193" lon="7.626822022721171">
        <ele>62.140000000000001</ele>
        <time>2025-05-19T08:19:34Z</time>
      </trkpt>
      <trkpt lat="43.836714969947934" lon="7.626796960830689">
        <ele>62.140000000000001</ele>
        <time>2025-05-19T08:19:35Z</time>
      </trkpt>
      <trkpt lat="43.836836004629731" lon="7.626771982759237">
        <ele>62.140000000000001</ele>
        <time>2025-05-19T08:19:36Z</time>
      </trkpt>
      <trkpt lat="43.837819034233689" lon="7.6265839766711">
        <ele>63.579999999999998</ele>
        <time>2025-05-19T08:19:44Z</time>
      </trkpt>
      <trkpt lat="43.837946020066738" lon="7.626609960570931">
        <ele>64.069999999999993</ele>
        <time>2025-05-19T08:19:45Z</time>
      </trkpt>
      <trkpt lat="43.838064037263393" lon="7.626677015796304">
        <ele>64.549999999999997</ele>
        <time>2025-05-19T08:19:46Z</time>
      </trkpt>
      <trkpt lat="43.838310968130827" lon="7.62679997831583">
        <ele>65.030000000000001</ele>
        <time>2025-05-19T08:19:48Z</time>
      </trkpt>
      <trkpt lat="43.838448012247682" lon="7.626828979700804">
        <ele>65.510000000000005</ele>
        <time>2025-05-19T08:19:49Z</time>
      </trkpt>
      <trkpt lat="43.838584972545505" lon="7.626828979700804">
        <ele>65.510000000000005</ele>
        <time>2025-05-19T08:19:50Z</time>
      </trkpt>
      <trkpt lat="43.839109009131789" lon="7.626752033829689">
        <ele>67.909999999999997</ele>
        <time>2025-05-19T08:19:54Z</time>
      </trkpt>
      <trkpt lat="43.839228032156825" lon="7.626695958897471">
        <ele>68.390000000000001</ele>
        <time>2025-05-19T08:19:55Z</time>
      </trkpt>
      <trkpt lat="43.839343031868339" lon="7.626636028289795">
        <ele>68.390000000000001</ele>
        <time>2025-05-19T08:19:56Z</time>
      </trkpt>
      <trkpt lat="43.83945501409471" lon="7.626557992771268">
        <ele>68.870000000000005</ele>
        <time>2025-05-19T08:19:57Z</time>
      </trkpt>
      <trkpt lat="43.83956003934145" lon="7.626466965302825">
        <ele>68.870000000000005</ele>
        <time>2025-05-19T08:19:58Z</time>
      </trkpt>
      <trkpt lat="43.839657017961144" lon="7.626351965591312">
        <ele>68.870000000000005</ele>
        <time>2025-05-19T08:19:59Z</time>
      </trkpt>
      <trkpt lat="43.839752990752459" lon="7.626238977536559">
        <ele>69.349999999999994</ele>
        <time>2025-05-19T08:20:00Z</time>
      </trkpt>
      <trkpt lat="43.839845024049282" lon="7.626130012795329">
        <ele>69.349999999999994</ele>
        <time>2025-05-19T08:20:01Z</time>
      </trkpt>
      <trkpt lat="43.839954994618893" lon="7.626063041388989">
        <ele>68.870000000000005</ele>
        <time>2025-05-19T08:20:02Z</time>
      </trkpt>
      <trkpt lat="43.840074017643929" lon="7.626010989770293">
        <ele>68.870000000000005</ele>
        <time>2025-05-19T08:20:03Z</time>
      </trkpt>
      <trkpt lat="43.841156959533691" lon="7.625906970351934">
        <ele>68.390000000000001</ele>
        <time>2025-05-19T08:20:11Z</time>
      </trkpt>
      <trkpt lat="43.842349033802748" lon="7.625709995627403">
        <ele>67.430000000000007</ele>
        <time>2025-05-19T08:20:20Z</time>
      </trkpt>
      <trkpt lat="43.842473002150655" lon="7.625651992857456">
        <ele>67.430000000000007</ele>
        <time>2025-05-19T08:20:21Z</time>
      </trkpt>
      <trkpt lat="43.842596970498562" lon="7.625588960945606">
        <ele>67.430000000000007</ele>
        <time>2025-05-19T08:20:22Z</time>
      </trkpt>
      <trkpt lat="43.843717966228724" lon="7.624883959069848">
        <ele>66.469999999999999</ele>
        <time>2025-05-19T08:20:31Z</time>
      </trkpt>
      <trkpt lat="43.845040965825319" lon="7.624524962157011">
        <ele>63.579999999999998</ele>
        <time>2025-05-19T08:20:42Z</time>
      </trkpt>
      <trkpt lat="43.846099013462663" lon="7.624217011034489">
        <ele>58.780000000000001</ele>
        <time>2025-05-19T08:20:52Z</time>
      </trkpt>
      <trkpt lat="43.846762022003531" lon="7.624061023816466">
        <ele>54.450000000000003</ele>
        <time>2025-05-19T08:21:01Z</time>
      </trkpt>
      <trkpt lat="43.846842991188169" lon="7.624046020209789">
        <ele>54.450000000000003</ele>
        <time>2025-05-19T08:21:02Z</time>
      </trkpt>
      <trkpt lat="43.847558973357081" lon="7.623909981921315">
        <ele>54.93</ele>
        <time>2025-05-19T08:21:10Z</time>
      </trkpt>
      <trkpt lat="43.847651006653905" lon="7.623896989971399">
        <ele>54.93</ele>
        <time>2025-05-19T08:21:11Z</time>
      </trkpt>
      <trkpt lat="43.847741028293967" lon="7.623882992193103">
        <ele>54.93</ele>
        <time>2025-05-19T08:21:12Z</time>
      </trkpt>
      <trkpt lat="43.848468996584415" lon="7.623750977218151">
        <ele>56.369999999999997</ele>
        <time>2025-05-19T08:21:21Z</time>
      </trkpt>
      <trkpt lat="43.849168969318271" lon="7.623623991385102">
        <ele>56.859999999999999</ele>
        <time>2025-05-19T08:21:28Z</time>
      </trkpt>
      <trkpt lat="43.850034987553954" lon="7.623220989480615">
        <ele>60.219999999999999</ele>
        <time>2025-05-19T08:21:38Z</time>
      </trkpt>
      <trkpt lat="43.850525999441743" lon="7.622976992279291">
        <ele>62.619999999999997</ele>
        <time>2025-05-19T08:21:43Z</time>
      </trkpt>
      <trkpt lat="43.850619960576296" lon="7.62295201420784">
        <ele>63.579999999999998</ele>
        <time>2025-05-19T08:21:44Z</time>
      </trkpt>
      <trkpt lat="43.850714005529881" lon="7.622984033077955">
        <ele>64.069999999999993</ele>
        <time>2025-05-19T08:21:45Z</time>
      </trkpt>
      <trkpt lat="43.850806038826704" lon="7.6230179797858">
        <ele>64.069999999999993</ele>
        <time>2025-05-19T08:21:46Z</time>
      </trkpt>
      <trkpt lat="43.850896982476115" lon="7.623071959242225">
        <ele>64.549999999999997</ele>
        <time>2025-05-19T08:21:47Z</time>
      </trkpt>
      <trkpt lat="43.850985998287797" lon="7.62312401086092">
        <ele>64.549999999999997</ele>
        <time>2025-05-19T08:21:48Z</time>
      </trkpt>
      <trkpt lat="43.851265031844378" lon="7.623289972543716">
        <ele>65.989999999999995</ele>
        <time>2025-05-19T08:21:54Z</time>
      </trkpt>
      <trkpt lat="43.851568959653378" lon="7.623480996116996">
        <ele>67.430000000000007</ele>
        <time>2025-05-19T08:22:00Z</time>
      </trkpt>
      <trkpt lat="43.851626962423325" lon="7.623520977795124">
        <ele>67.430000000000007</ele>
        <time>2025-05-19T08:22:01Z</time>
      </trkpt>
      <trkpt lat="43.851689994335175" lon="7.623560037463903">
        <ele>66.950000000000003</ele>
        <time>2025-05-19T08:22:02Z</time>
      </trkpt>
      <trkpt lat="43.851986965164542" lon="7.62374603189528">
        <ele>66.469999999999999</ele>
        <time>2025-05-19T08:22:07Z</time>
      </trkpt>
      <trkpt lat="43.852057037875056" lon="7.623790036886931">
        <ele>66.469999999999999</ele>
        <time>2025-05-19T08:22:08Z</time>
      </trkpt>
      <trkpt lat="43.852401031181216" lon="7.624002015218139">
        <ele>65.030000000000001</ele>
        <time>2025-05-19T08:22:16Z</time>
      </trkpt>
      <trkpt lat="43.852487029507756" lon="7.624054988846183">
        <ele>64.549999999999997</ele>
        <time>2025-05-19T08:22:19Z</time>
      </trkpt>
      <trkpt lat="43.852575039491057" lon="7.624108968302608">
        <ele>64.069999999999993</ele>
        <time>2025-05-19T08:22:21Z</time>
      </trkpt>
      <trkpt lat="43.852636981755495" lon="7.624147022143006">
        <ele>64.069999999999993</ele>
        <time>2025-05-19T08:22:22Z</time>
      </trkpt>
      <trkpt lat="43.852707976475358" lon="7.624181974679232">
        <ele>63.579999999999998</ele>
        <time>2025-05-19T08:22:23Z</time>
      </trkpt>
      <trkpt lat="43.852837979793549" lon="7.624247018247843">
        <ele>63.579999999999998</ele>
        <time>2025-05-19T08:22:25Z</time>
      </trkpt>
      <trkpt lat="43.852914003655314" lon="7.624274007976055">
        <ele>63.579999999999998</ele>
        <time>2025-05-19T08:22:26Z</time>
      </trkpt>
      <trkpt lat="43.852994972839952" lon="7.6242630276829">
        <ele>63.579999999999998</ele>
        <time>2025-05-19T08:22:27Z</time>
      </trkpt>
      <trkpt lat="43.85309899225831" lon="7.624250035732985">
        <ele>63.100000000000001</ele>
        <time>2025-05-19T08:22:28Z</time>
      </trkpt>
      <trkpt lat="43.85320401750505" lon="7.624236959964037">
        <ele>62.619999999999997</ele>
        <time>2025-05-19T08:22:29Z</time>
      </trkpt>
      <trkpt lat="43.853296972811222" lon="7.624225979670882">
        <ele>61.659999999999997</ele>
        <time>2025-05-19T08:22:30Z</time>
      </trkpt>
      <trkpt lat="43.853381965309381" lon="7.624214999377728">
        <ele>61.18</ele>
        <time>2025-05-19T08:22:31Z</time>
      </trkpt>
      <trkpt lat="43.853919999673963" lon="7.624098993837833">
        <ele>58.780000000000001</ele>
        <time>2025-05-19T08:22:40Z</time>
      </trkpt>
      <trkpt lat="43.854374969378114" lon="7.624000003561378">
        <ele>58.299999999999997</ele>
        <time>2025-05-19T08:22:48Z</time>
      </trkpt>
      <trkpt lat="43.854488041251898" lon="7.623975025489926">
        <ele>57.82</ele>
        <time>2025-05-19T08:22:50Z</time>
      </trkpt>
      <trkpt lat="43.85455803014338" lon="7.623960021883249">
        <ele>57.82</ele>
        <time>2025-05-19T08:22:51Z</time>
      </trkpt>
      <trkpt lat="43.855409966781735" lon="7.623784001916647">
        <ele>57.340000000000003</ele>
        <time>2025-05-19T08:22:59Z</time>
      </trkpt>
      <trkpt lat="43.856385033577681" lon="7.623691968619824">
        <ele>59.740000000000002</ele>
        <time>2025-05-19T08:23:06Z</time>
      </trkpt>
      <trkpt lat="43.857758995145559" lon="7.623932026326656">
        <ele>60.700000000000003</ele>
        <time>2025-05-19T08:23:17Z</time>
      </trkpt>
      <trkpt lat="43.858989039435983" lon="7.623851979151368">
        <ele>62.619999999999997</ele>
        <time>2025-05-19T08:23:27Z</time>
      </trkpt>
      <trkpt lat="43.860298041254282" lon="7.623675037175417">
        <ele>65.510000000000005</ele>
        <time>2025-05-19T08:23:37Z</time>
      </trkpt>
      <trkpt lat="43.860421003773808" lon="7.623583003878593">
        <ele>65.989999999999995</ele>
        <time>2025-05-19T08:23:38Z</time>
      </trkpt>
      <trkpt lat="43.860536003485322" lon="7.623498011380434">
        <ele>66.469999999999999</ele>
        <time>2025-05-19T08:23:39Z</time>
      </trkpt>
      <trkpt lat="43.861069008708" lon="7.623100960627198">
        <ele>67.909999999999997</ele>
        <time>2025-05-19T08:23:44Z</time>
      </trkpt>
      <trkpt lat="43.861149977892637" lon="7.623025020584464">
        <ele>68.390000000000001</ele>
        <time>2025-05-19T08:23:45Z</time>
      </trkpt>
      <trkpt lat="43.861213009804487" lon="7.622911026701331">
        <ele>68.870000000000005</ele>
        <time>2025-05-19T08:23:46Z</time>
      </trkpt>
      <trkpt lat="43.86126103810966" lon="7.622790997847915">
        <ele>69.349999999999994</ele>
        <time>2025-05-19T08:23:47Z</time>
      </trkpt>
      <trkpt lat="43.861299008131027" lon="7.622659988701344">
        <ele>69.349999999999994</ele>
        <time>2025-05-19T08:23:48Z</time>
      </trkpt>
      <trkpt lat="43.861334966495633" lon="7.622534008696675">
        <ele>70.310000000000002</ele>
        <time>2025-05-19T08:23:49Z</time>
      </trkpt>
      <trkpt lat="43.861419036984444" lon="7.622311972081661">
        <ele>71.269999999999996</ele>
        <time>2025-05-19T08:23:51Z</time>
      </trkpt>
      <trkpt lat="43.861480979248881" lon="7.622215999290347">
        <ele>71.760000000000005</ele>
        <time>2025-05-19T08:23:52Z</time>
      </trkpt>
      <trkpt lat="43.86156396009028" lon="7.622142992913723">
        <ele>71.760000000000005</ele>
        <time>2025-05-19T08:23:53Z</time>
      </trkpt>
      <trkpt lat="43.861656999215484" lon="7.622084990143776">
        <ele>72.239999999999995</ele>
        <time>2025-05-19T08:23:54Z</time>
      </trkpt>
      <trkpt lat="43.861764036118984" lon="7.622077027335763">
        <ele>72.719999999999999</ele>
        <time>2025-05-19T08:23:55Z</time>
      </trkpt>
      <trkpt lat="43.861854979768395" lon="7.622069986537099">
        <ele>73.200000000000003</ele>
        <time>2025-05-19T08:23:56Z</time>
      </trkpt>
      <trkpt lat="43.86199101805687" lon="7.622090019285679">
        <ele>73.680000000000007</ele>
        <time>2025-05-19T08:23:58Z</time>
      </trkpt>
      <trkpt lat="43.86205798946321" lon="7.622109968215227">
        <ele>74.159999999999997</ele>
        <time>2025-05-19T08:23:59Z</time>
      </trkpt>
      <trkpt lat="43.862107023596764" lon="7.622183980420232">
        <ele>74.159999999999997</ele>
        <time>2025-05-19T08:24:00Z</time>
      </trkpt>
      <trkpt lat="43.862165026366711" lon="7.622269978746772">
        <ele>74.640000000000001</ele>
        <time>2025-05-19T08:24:01Z</time>
      </trkpt>
      <trkpt lat="43.86222898028791" lon="7.622366035357118">
        <ele>74.640000000000001</ele>
        <time>2025-05-19T08:24:02Z</time>
      </trkpt>
      <trkpt lat="43.862300980836153" lon="7.622453961521387">
        <ele>74.640000000000001</ele>
        <time>2025-05-19T08:24:03Z</time>
      </trkpt>
      <trkpt lat="43.862393014132977" lon="7.622526967898011">
        <ele>74.640000000000001</ele>
        <time>2025-05-19T08:24:04Z</time>
      </trkpt>
      <trkpt lat="43.862497033551335" lon="7.62260802090168">
        <ele>74.640000000000001</ele>
        <time>2025-05-19T08:24:05Z</time>
      </trkpt>
      <trkpt lat="43.862851001322269" lon="7.622795021161437">
        <ele>73.680000000000007</ele>
        <time>2025-05-19T08:24:08Z</time>
      </trkpt>
      <trkpt lat="43.862989973276854" lon="7.62282301671803">
        <ele>73.680000000000007</ele>
        <time>2025-05-19T08:24:09Z</time>
      </trkpt>
      <trkpt lat="43.863128023222089" lon="7.622850006446242">
        <ele>73.680000000000007</ele>
        <time>2025-05-19T08:24:10Z</time>
      </trkpt>
      <trkpt lat="43.863273030146956" lon="7.622835002839565">
        <ele>73.680000000000007</ele>
        <time>2025-05-19T08:24:11Z</time>
      </trkpt>
      <trkpt lat="43.863419964909554" lon="7.622798038646579">
        <ele>73.200000000000003</ele>
        <time>2025-05-19T08:24:12Z</time>
      </trkpt>
      <trkpt lat="43.863566983491182" lon="7.622760990634561">
        <ele>73.680000000000007</ele>
        <time>2025-05-19T08:24:13Z</time>
      </trkpt>
      <trkpt lat="43.863709978759289" lon="7.622725032269955">
        <ele>73.680000000000007</ele>
        <time>2025-05-19T08:24:14Z</time>
      </trkpt>
      <trkpt lat="43.863841993734241" lon="7.622692007571459">
        <ele>73.680000000000007</ele>
        <time>2025-05-19T08:24:15Z</time>
      </trkpt>
      <trkpt lat="43.863966967910528" lon="7.622695025056601">
        <ele>73.680000000000007</ele>
        <time>2025-05-19T08:24:16Z</time>
      </trkpt>
      <trkpt lat="43.864095965400338" lon="7.622702987864614">
        <ele>73.680000000000007</ele>
        <time>2025-05-19T08:24:17Z</time>
      </trkpt>
      <trkpt lat="43.864212976768613" lon="7.622726960107684">
        <ele>74.159999999999997</ele>
        <time>2025-05-19T08:24:18Z</time>
      </trkpt>
      <trkpt lat="43.864324036985636" lon="7.622788986191154">
        <ele>74.159999999999997</ele>
        <time>2025-05-19T08:24:19Z</time>
      </trkpt>
      <trkpt lat="43.864425038918853" lon="7.62284598313272">
        <ele>74.159999999999997</ele>
        <time>2025-05-19T08:24:20Z</time>
      </trkpt>
      <trkpt lat="43.864525035023689" lon="7.622901974245906">
        <ele>74.159999999999997</ele>
        <time>2025-05-19T08:24:21Z</time>
      </trkpt>
      <trkpt lat="43.864611033350229" lon="7.623002976179123">
        <ele>74.159999999999997</ele>
        <time>2025-05-19T08:24:22Z</time>
      </trkpt>
      <trkpt lat="43.864699965342879" lon="7.623108001425862">
        <ele>73.680000000000007</ele>
        <time>2025-05-19T08:24:23Z</time>
      </trkpt>
      <trkpt lat="43.865523990243673" lon="7.624070998281241">
        <ele>74.640000000000001</ele>
        <time>2025-05-19T08:24:31Z</time>
      </trkpt>
      <trkpt lat="43.866146011278033" lon="7.624654965475202">
        <ele>76.560000000000002</ele>
        <time>2025-05-19T08:24:36Z</time>
      </trkpt>
      <trkpt lat="43.866296969354153" lon="7.624724032357335">
        <ele>77.519999999999996</ele>
        <time>2025-05-19T08:24:37Z</time>
      </trkpt>
      <trkpt lat="43.867721976712346" lon="7.625305987894535">
        <ele>80.409999999999997</ele>
        <time>2025-05-19T08:24:46Z</time>
      </trkpt>
      <trkpt lat="43.869610000401735" lon="7.625391986221075">
        <ele>82.329999999999998</ele>
        <time>2025-05-19T08:24:58Z</time>
      </trkpt>
      <trkpt lat="43.870750023052096" lon="7.625463986769319">
        <ele>82.810000000000002</ele>
        <time>2025-05-19T08:25:05Z</time>
      </trkpt>
      <trkpt lat="43.870876003056765" lon="7.625499023124576">
        <ele>82.810000000000002</ele>
        <time>2025-05-19T08:25:06Z</time>
      </trkpt>
      <trkpt lat="43.871011035516858" lon="7.625623997300863">
        <ele>82.810000000000002</ele>
        <time>2025-05-19T08:25:07Z</time>
      </trkpt>
      <trkpt lat="43.871130980551243" lon="7.625734973698854">
        <ele>82.810000000000002</ele>
        <time>2025-05-19T08:25:08Z</time>
      </trkpt>
      <trkpt lat="43.871222008019686" lon="7.625880986452103">
        <ele>82.810000000000002</ele>
        <time>2025-05-19T08:25:09Z</time>
      </trkpt>
      <trkpt lat="43.871302977204323" lon="7.626065975055099">
        <ele>83.290000000000006</ele>
        <time>2025-05-19T08:25:10Z</time>
      </trkpt>
      <trkpt lat="43.871355028823018" lon="7.626269990578294">
        <ele>83.769999999999996</ele>
        <time>2025-05-19T08:25:11Z</time>
      </trkpt>
      <trkpt lat="43.871392998844385" lon="7.626491021364927">
        <ele>83.769999999999996</ele>
        <time>2025-05-19T08:25:12Z</time>
      </trkpt>
      <trkpt lat="43.871408002451062" lon="7.626726971939206">
        <ele>84.25</ele>
        <time>2025-05-19T08:25:13Z</time>
      </trkpt>
      <trkpt lat="43.871535994112492" lon="7.628220040351152">
        <ele>85.209999999999994</ele>
        <time>2025-05-19T08:25:19Z</time>
      </trkpt>
      <trkpt lat="43.871584022417665" lon="7.62847300618887">
        <ele>85.689999999999998</ele>
        <time>2025-05-19T08:25:20Z</time>
      </trkpt>
      <trkpt lat="43.871627021580935" lon="7.628695964813232">
        <ele>85.689999999999998</ele>
        <time>2025-05-19T08:25:21Z</time>
      </trkpt>
      <trkpt lat="43.87172601185739" lon="7.628916995599866">
        <ele>85.689999999999998</ele>
        <time>2025-05-19T08:25:22Z</time>
      </trkpt>
      <trkpt lat="43.871813016012311" lon="7.629114976152778">
        <ele>85.689999999999998</ele>
        <time>2025-05-19T08:25:23Z</time>
      </trkpt>
      <trkpt lat="43.871903959661722" lon="7.629294013604522">
        <ele>85.689999999999998</ele>
        <time>2025-05-19T08:25:24Z</time>
      </trkpt>
      <trkpt lat="43.872035974636674" lon="7.629417981952429">
        <ele>86.180000000000007</ele>
        <time>2025-05-19T08:25:25Z</time>
      </trkpt>
      <trkpt lat="43.872142005711794" lon="7.629511021077633">
        <ele>86.659999999999997</ele>
        <time>2025-05-19T08:25:26Z</time>
      </trkpt>
      <trkpt lat="43.872310984879732" lon="7.629559971392155">
        <ele>87.140000000000001</ele>
        <time>2025-05-19T08:25:27Z</time>
      </trkpt>
      <trkpt lat="43.872469989582896" lon="7.629604982212186">
        <ele>87.620000000000005</ele>
        <time>2025-05-19T08:25:28Z</time>
      </trkpt>
      <trkpt lat="43.872620025649667" lon="7.629630966112018">
        <ele>88.099999999999994</ele>
        <time>2025-05-19T08:25:29Z</time>
      </trkpt>
      <trkpt lat="43.872782969847322" lon="7.629574974998832">
        <ele>88.579999999999998</ele>
        <time>2025-05-19T08:25:30Z</time>
      </trkpt>
      <trkpt lat="43.872951027005911" lon="7.629517978057265">
        <ele>89.060000000000002</ele>
        <time>2025-05-19T08:25:31Z</time>
      </trkpt>
      <trkpt lat="43.873113971203566" lon="7.629461986944079">
        <ele>89.540000000000006</ele>
        <time>2025-05-19T08:25:32Z</time>
      </trkpt>
      <trkpt lat="43.873404990881681" lon="7.629361990839243">
        <ele>90.5</ele>
        <time>2025-05-19T08:25:34Z</time>
      </trkpt>
      <trkpt lat="43.873538011685014" lon="7.629360985010862">
        <ele>90.980000000000004</ele>
        <time>2025-05-19T08:25:35Z</time>
      </trkpt>
      <trkpt lat="43.873672038316727" lon="7.629360985010862">
        <ele>91.459999999999994</ele>
        <time>2025-05-19T08:25:36Z</time>
      </trkpt>
      <trkpt lat="43.87378896586597" lon="7.629426028579474">
        <ele>91.459999999999994</ele>
        <time>2025-05-19T08:25:37Z</time>
      </trkpt>
      <trkpt lat="43.873882004991174" lon="7.629538010805845">
        <ele>91.939999999999998</ele>
        <time>2025-05-19T08:25:38Z</time>
      </trkpt>
      <trkpt lat="43.873983006924391" lon="7.629676982760429">
        <ele>92.420000000000002</ele>
        <time>2025-05-19T08:25:39Z</time>
      </trkpt>
      <trkpt lat="43.874060036614537" lon="7.629845039919019">
        <ele>92.420000000000002</ele>
        <time>2025-05-19T08:25:40Z</time>
      </trkpt>
      <trkpt lat="43.87413396500051" lon="7.630013013258576">
        <ele>92.900000000000006</ele>
        <time>2025-05-19T08:25:41Z</time>
      </trkpt>
      <trkpt lat="43.874414004385471" lon="7.630705023184419">
        <ele>95.310000000000002</ele>
        <time>2025-05-19T08:25:47Z</time>
      </trkpt>
      <trkpt lat="43.874532021582127" lon="7.631236016750336">
        <ele>96.75</ele>
        <time>2025-05-19T08:25:51Z</time>
      </trkpt>
      <trkpt lat="43.87466898187995" lon="7.632673010230064">
        <ele>98.670000000000002</ele>
        <time>2025-05-19T08:26:01Z</time>
      </trkpt>
      <trkpt lat="43.874832009896636" lon="7.633876986801624">
        <ele>99.629999999999995</ele>
        <time>2025-05-19T08:26:09Z</time>
      </trkpt>
      <trkpt lat="43.87488498352468" lon="7.634022999554873">
        <ele>99.629999999999995</ele>
        <time>2025-05-19T08:26:10Z</time>
      </trkpt>
      <trkpt lat="43.874936029314995" lon="7.634163983166218">
        <ele>99.629999999999995</ele>
        <time>2025-05-19T08:26:11Z</time>
      </trkpt>
      <trkpt lat="43.875001994892955" lon="7.634271020069718">
        <ele>99.629999999999995</ele>
        <time>2025-05-19T08:26:12Z</time>
      </trkpt>
      <trkpt lat="43.875080030411482" lon="7.634369004517794">
        <ele>99.629999999999995</ele>
        <time>2025-05-19T08:26:13Z</time>
      </trkpt>
      <trkpt lat="43.875155970454216" lon="7.634463971480727">
        <ele>99.629999999999995</ele>
        <time>2025-05-19T08:26:14Z</time>
      </trkpt>
      <trkpt lat="43.875225037336349" lon="7.634546030312777">
        <ele>99.150000000000006</ele>
        <time>2025-05-19T08:26:15Z</time>
      </trkpt>
      <trkpt lat="43.876103041693568" lon="7.635394027456641">
        <ele>96.75</ele>
        <time>2025-05-19T08:26:27Z</time>
      </trkpt>
      <trkpt lat="43.876921031624079" lon="7.636249987408519">
        <ele>97.709999999999994</ele>
        <time>2025-05-19T08:26:37Z</time>
      </trkpt>
      <trkpt lat="43.877736004069448" lon="7.637189012020826">
        <ele>101.08</ele>
        <time>2025-05-19T08:26:48Z</time>
      </trkpt>
      <trkpt lat="43.878274960443377" lon="7.637788988649845">
        <ele>103.48</ele>
        <time>2025-05-19T08:26:55Z</time>
      </trkpt>
      <trkpt lat="43.878521975129843" lon="7.638097023591399">
        <ele>103.95999999999999</ele>
        <time>2025-05-19T08:27:00Z</time>
      </trkpt>
      <trkpt lat="43.878556005656719" lon="7.638140022754669">
        <ele>104.44</ele>
        <time>2025-05-19T08:27:01Z</time>
      </trkpt>
      <trkpt lat="43.878718027845025" lon="7.638342026621103">
        <ele>104.92</ele>
        <time>2025-05-19T08:27:09Z</time>
      </trkpt>
      <trkpt lat="43.878743005916476" lon="7.638373039662838">
        <ele>104.92</ele>
        <time>2025-05-19T08:27:10Z</time>
      </trkpt>
      <trkpt lat="43.878767983987927" lon="7.638403968885541">
        <ele>104.92</ele>
        <time>2025-05-19T08:27:11Z</time>
      </trkpt>
      <trkpt lat="43.878793967887759" lon="7.638434981927276">
        <ele>104.92</ele>
        <time>2025-05-19T08:27:12Z</time>
      </trkpt>
      <trkpt lat="43.878821963444352" lon="7.638470018282533">
        <ele>104.44</ele>
        <time>2025-05-19T08:27:13Z</time>
      </trkpt>
      <trkpt lat="43.878855993971229" lon="7.638512011617422">
        <ele>103.95999999999999</ele>
        <time>2025-05-19T08:27:14Z</time>
      </trkpt>
      <trkpt lat="43.878892036154866" lon="7.638557022437453">
        <ele>103.48</ele>
        <time>2025-05-19T08:27:15Z</time>
      </trkpt>
      <trkpt lat="43.878933023661375" lon="7.638606978580356">
        <ele>103.48</ele>
        <time>2025-05-19T08:27:16Z</time>
      </trkpt>
      <trkpt lat="43.8789870031178" lon="7.638674033805728">
        <ele>103</ele>
        <time>2025-05-19T08:27:17Z</time>
      </trkpt>
      <trkpt lat="43.87900996953249" lon="7.638693982735276">
        <ele>103</ele>
        <time>2025-05-19T08:27:18Z</time>
      </trkpt>
      <trkpt lat="43.879040982574224" lon="7.63872298412025">
        <ele>102.52</ele>
        <time>2025-05-19T08:27:19Z</time>
      </trkpt>
      <trkpt lat="43.879071995615959" lon="7.638749973848462">
        <ele>102.04000000000001</ele>
        <time>2025-05-19T08:27:20Z</time>
      </trkpt>
      <trkpt lat="43.87922303751111" lon="7.638888023793697">
        <ele>101.08</ele>
        <time>2025-05-19T08:27:25Z</time>
      </trkpt>
      <trkpt lat="43.879236029461026" lon="7.638891041278839">
        <ele>101.08</ele>
        <time>2025-05-19T08:27:26Z</time>
      </trkpt>
      <trkpt lat="43.879273999482393" lon="7.638897998258472">
        <ele>101.08</ele>
        <time>2025-05-19T08:27:27Z</time>
      </trkpt>
      <trkpt lat="43.879364021122456" lon="7.63891601935029">
        <ele>101.08</ele>
        <time>2025-05-19T08:27:29Z</time>
      </trkpt>
      <trkpt lat="43.879409031942487" lon="7.638924987986684">
        <ele>101.56</ele>
        <time>2025-05-19T08:27:30Z</time>
      </trkpt>
      <trkpt lat="43.879453958943486" lon="7.638934040442109">
        <ele>101.56</ele>
        <time>2025-05-19T08:27:31Z</time>
      </trkpt>
      <trkpt lat="43.879554038867354" lon="7.638953989371657">
        <ele>102.04000000000001</ele>
        <time>2025-05-19T08:27:33Z</time>
      </trkpt>
      <trkpt lat="43.879900965839624" lon="7.639020038768649">
        <ele>103.48</ele>
        <time>2025-05-19T08:27:42Z</time>
      </trkpt>
      <trkpt lat="43.879992999136448" lon="7.639037976041436">
        <ele>103.48</ele>
        <time>2025-05-19T08:27:44Z</time>
      </trkpt>
      <trkpt lat="43.88004002161324" lon="7.639047028496862">
        <ele>103.48</ele>
        <time>2025-05-19T08:27:45Z</time>
      </trkpt>
      <trkpt lat="43.880224004387856" lon="7.639083992689848">
        <ele>104.44</ele>
        <time>2025-05-19T08:27:49Z</time>
      </trkpt>
      <trkpt lat="43.880720967426896" lon="7.639236962422729">
        <ele>106.36</ele>
        <time>2025-05-19T08:27:57Z</time>
      </trkpt>
      <trkpt lat="43.880972005426884" lon="7.639404013752937">
        <ele>106.84</ele>
        <time>2025-05-19T08:28:02Z</time>
      </trkpt>
      <trkpt lat="43.88100796379149" lon="7.639429997652769">
        <ele>106.84</ele>
        <time>2025-05-19T08:28:03Z</time>
      </trkpt>
      <trkpt lat="43.881332008168101" lon="7.639671983197331">
        <ele>107.31999999999999</ele>
        <time>2025-05-19T08:28:12Z</time>
      </trkpt>
      <trkpt lat="43.881730986759067" lon="7.639960991218686">
        <ele>107.31999999999999</ele>
        <time>2025-05-19T08:28:19Z</time>
      </trkpt>
      <trkpt lat="43.881792007014155" lon="7.639994015917182">
        <ele>106.36</ele>
        <time>2025-05-19T08:28:20Z</time>
      </trkpt>
      <trkpt lat="43.881855960935354" lon="7.640028968453407">
        <ele>105.88</ele>
        <time>2025-05-19T08:28:21Z</time>
      </trkpt>
      <trkpt lat="43.882358958944678" lon="7.640201970934868">
        <ele>105.40000000000001</ele>
        <time>2025-05-19T08:28:26Z</time>
      </trkpt>
      <trkpt lat="43.883411977440119" lon="7.640586029738188">
        <ele>112.13</ele>
        <time>2025-05-19T08:28:35Z</time>
      </trkpt>
      <trkpt lat="43.88362898491323" lon="7.640690971165896">
        <ele>112.61</ele>
        <time>2025-05-19T08:28:37Z</time>
      </trkpt>
      <trkpt lat="43.883741972967982" lon="7.640690971165896">
        <ele>113.09</ele>
        <time>2025-05-19T08:28:38Z</time>
      </trkpt>
      <trkpt lat="43.883850015699863" lon="7.64067797921598">
        <ele>113.09</ele>
        <time>2025-05-19T08:28:39Z</time>
      </trkpt>
      <trkpt lat="43.883963003754616" lon="7.64063598588109">
        <ele>113.56999999999999</ele>
        <time>2025-05-19T08:28:40Z</time>
      </trkpt>
      <trkpt lat="43.884072974324226" lon="7.640596004202962">
        <ele>113.56999999999999</ele>
        <time>2025-05-19T08:28:41Z</time>
      </trkpt>
      <trkpt lat="43.884385032579303" lon="7.640434987843037">
        <ele>114.05</ele>
        <time>2025-05-19T08:28:44Z</time>
      </trkpt>
      <trkpt lat="43.884490979835391" lon="7.640364998951554">
        <ele>114.53</ele>
        <time>2025-05-19T08:28:45Z</time>
      </trkpt>
      <trkpt lat="43.884821981191635" lon="7.640170035883784">
        <ele>114.05</ele>
        <time>2025-05-19T08:28:48Z</time>
      </trkpt>
      <trkpt lat="43.884947039186954" lon="7.640151008963585">
        <ele>114.05</ele>
        <time>2025-05-19T08:28:49Z</time>
      </trkpt>
      <trkpt lat="43.885072013363242" lon="7.640132987871766">
        <ele>114.05</ele>
        <time>2025-05-19T08:28:50Z</time>
      </trkpt>
      <trkpt lat="43.885332019999623" lon="7.640094012022018">
        <ele>114.05</ele>
        <time>2025-05-19T08:28:52Z</time>
      </trkpt>
      <trkpt lat="43.885459005832672" lon="7.640132987871766">
        <ele>114.53</ele>
        <time>2025-05-19T08:28:53Z</time>
      </trkpt>
      <trkpt lat="43.885592026636004" lon="7.640190990641713">
        <ele>115.01000000000001</ele>
        <time>2025-05-19T08:28:54Z</time>
      </trkpt>
      <trkpt lat="43.886098964139819" lon="7.640500031411648">
        <ele>117.90000000000001</ele>
        <time>2025-05-19T08:28:58Z</time>
      </trkpt>
      <trkpt lat="43.8862260337919" lon="7.640602961182594">
        <ele>118.86</ele>
        <time>2025-05-19T08:28:59Z</time>
      </trkpt>
      <trkpt lat="43.887262959033251" lon="7.641547014936805">
        <ele>127.51000000000001</ele>
        <time>2025-05-19T08:29:08Z</time>
      </trkpt>
      <trkpt lat="43.888180023059249" lon="7.642116984352469">
        <ele>127.98999999999999</ele>
        <time>2025-05-19T08:29:16Z</time>
      </trkpt>
      <trkpt lat="43.888283036649227" lon="7.642206000164151">
        <ele>127.98999999999999</ele>
        <time>2025-05-19T08:29:17Z</time>
      </trkpt>
      <trkpt lat="43.888360988348722" lon="7.64231001958251">
        <ele>127.98999999999999</ele>
        <time>2025-05-19T08:29:18Z</time>
      </trkpt>
      <trkpt lat="43.888424020260572" lon="7.64246198348701">
        <ele>128.47</ele>
        <time>2025-05-19T08:29:19Z</time>
      </trkpt>
      <trkpt lat="43.888477999716997" lon="7.642628028988838">
        <ele>128.47</ele>
        <time>2025-05-19T08:29:20Z</time>
      </trkpt>
      <trkpt lat="43.888586964458227" lon="7.642965987324715">
        <ele>128.47</ele>
        <time>2025-05-19T08:29:22Z</time>
      </trkpt>
      <trkpt lat="43.888662988319993" lon="7.643107976764441">
        <ele>128.47</ele>
        <time>2025-05-19T08:29:23Z</time>
      </trkpt>
      <trkpt lat="43.888774970546365" lon="7.643205039203167">
        <ele>128.47</ele>
        <time>2025-05-19T08:29:24Z</time>
      </trkpt>
      <trkpt lat="43.888891981914639" lon="7.643306963145733">
        <ele>128.47</ele>
        <time>2025-05-19T08:29:25Z</time>
      </trkpt>
      <trkpt lat="43.889012010768056" lon="7.643409976735711">
        <ele>128.94999999999999</ele>
        <time>2025-05-19T08:29:26Z</time>
      </trkpt>
      <trkpt lat="43.889393974095583" lon="7.643694961443543">
        <ele>129.43000000000001</ele>
        <time>2025-05-19T08:29:29Z</time>
      </trkpt>
      <trkpt lat="43.889518026262522" lon="7.64375003054738">
        <ele>129.91999999999999</ele>
        <time>2025-05-19T08:29:30Z</time>
      </trkpt>
      <trkpt lat="43.889658004045486" lon="7.64379302971065">
        <ele>130.40000000000001</ele>
        <time>2025-05-19T08:29:31Z</time>
      </trkpt>
      <trkpt lat="43.890018006786704" lon="7.643903000280261">
        <ele>130.88</ele>
        <time>2025-05-19T08:29:34Z</time>
      </trkpt>
      <trkpt lat="43.890063017606735" lon="7.643984975293279">
        <ele>130.88</ele>
        <time>2025-05-19T08:29:35Z</time>
      </trkpt>
      <trkpt lat="43.890095958486199" lon="7.644082037732005">
        <ele>130.88</ele>
        <time>2025-05-19T08:29:36Z</time>
      </trkpt>
      <trkpt lat="43.890095958486199" lon="7.644171975553036">
        <ele>131.36000000000001</ele>
        <time>2025-05-19T08:29:37Z</time>
      </trkpt>
      <trkpt lat="43.890081038698554" lon="7.644316982477903">
        <ele>131.36000000000001</ele>
        <time>2025-05-19T08:29:38Z</time>
      </trkpt>
      <trkpt lat="43.890052959322929" lon="7.644421001896262">
        <ele>131.84</ele>
        <time>2025-05-19T08:29:39Z</time>
      </trkpt>
      <trkpt lat="43.890021024271846" lon="7.644542958587408">
        <ele>131.84</ele>
        <time>2025-05-19T08:29:40Z</time>
      </trkpt>
      <trkpt lat="43.890007026493549" lon="7.644657958298922">
        <ele>131.84</ele>
        <time>2025-05-19T08:29:41Z</time>
      </trkpt>
      <trkpt lat="43.890052959322929" lon="7.644731970503926">
        <ele>132.31999999999999</ele>
        <time>2025-05-19T08:29:42Z</time>
      </trkpt>
      <trkpt lat="43.890101993456483" lon="7.644811011850834">
        <ele>132.31999999999999</ele>
        <time>2025-05-19T08:29:43Z</time>
      </trkpt>
      <trkpt lat="43.890186985954642" lon="7.644834984093905">
        <ele>132.31999999999999</ele>
        <time>2025-05-19T08:29:44Z</time>
      </trkpt>
      <trkpt lat="43.890297962352633" lon="7.644865997135639">
        <ele>132.31999999999999</ele>
        <time>2025-05-19T08:29:45Z</time>
      </trkpt>
      <trkpt lat="43.890425032004714" lon="7.644902039319277">
        <ele>132.31999999999999</ele>
        <time>2025-05-19T08:29:46Z</time>
      </trkpt>
      <trkpt lat="43.89056802727282" lon="7.644942020997405">
        <ele>132.31999999999999</ele>
        <time>2025-05-19T08:29:47Z</time>
      </trkpt>
      <trkpt lat="43.891231035813689" lon="7.645159028470516">
        <ele>132.80000000000001</ele>
        <time>2025-05-19T08:29:51Z</time>
      </trkpt>
      <trkpt lat="43.89140697196126" lon="7.645227005705237">
        <ele>132.80000000000001</ele>
        <time>2025-05-19T08:29:52Z</time>
      </trkpt>
      <trkpt lat="43.891885997727513" lon="7.645497992634773">
        <ele>133.28</ele>
        <time>2025-05-19T08:29:55Z</time>
      </trkpt>
      <trkpt lat="43.892029998824" lon="7.645601006224752">
        <ele>133.75999999999999</ele>
        <time>2025-05-19T08:29:56Z</time>
      </trkpt>
      <trkpt lat="43.892164025455713" lon="7.645734027028084">
        <ele>134.24000000000001</ele>
        <time>2025-05-19T08:29:57Z</time>
      </trkpt>
      <trkpt lat="43.892407016828656" lon="7.646040972322226">
        <ele>135.68000000000001</ele>
        <time>2025-05-19T08:29:59Z</time>
      </trkpt>
      <trkpt lat="43.892526961863041" lon="7.64620098285377">
        <ele>136.63999999999999</ele>
        <time>2025-05-19T08:30:00Z</time>
      </trkpt>
      <trkpt lat="43.892913032323122" lon="7.646719990298152">
        <ele>140.00999999999999</ele>
        <time>2025-05-19T08:30:04Z</time>
      </trkpt>
      <trkpt lat="43.89308201149106" lon="7.646769024431706">
        <ele>140.49000000000001</ele>
        <time>2025-05-19T08:30:05Z</time>
      </trkpt>
      <trkpt lat="43.893206985667348" lon="7.646805988624692">
        <ele>141.44999999999999</ele>
        <time>2025-05-19T08:30:06Z</time>
      </trkpt>
      <trkpt lat="43.893336988985538" lon="7.646843958646059">
        <ele>141.93000000000001</ele>
        <time>2025-05-19T08:30:07Z</time>
      </trkpt>
      <trkpt lat="43.893471015617251" lon="7.646873965859413">
        <ele>141.93000000000001</ele>
        <time>2025-05-19T08:30:08Z</time>
      </trkpt>
      <trkpt lat="43.893615016713738" lon="7.646884024143219">
        <ele>142.41</ele>
        <time>2025-05-19T08:30:09Z</time>
      </trkpt>
      <trkpt lat="43.893763041123748" lon="7.64688603579998">
        <ele>142.88999999999999</ele>
        <time>2025-05-19T08:30:10Z</time>
      </trkpt>
      <trkpt lat="43.89391802251339" lon="7.646859968081117">
        <ele>142.88999999999999</ele>
        <time>2025-05-19T08:30:11Z</time>
      </trkpt>
      <trkpt lat="43.894562004134059" lon="7.646762989461422">
        <ele>143.84999999999999</ele>
        <time>2025-05-19T08:30:15Z</time>
      </trkpt>
      <trkpt lat="43.894867021590471" lon="7.646815963089466">
        <ele>144.34</ele>
        <time>2025-05-19T08:30:17Z</time>
      </trkpt>
      <trkpt lat="43.895170027390122" lon="7.646958958357573">
        <ele>145.30000000000001</ele>
        <time>2025-05-19T08:30:19Z</time>
      </trkpt>
      <trkpt lat="43.895327020436525" lon="7.647045962512493">
        <ele>145.78</ele>
        <time>2025-05-19T08:30:20Z</time>
      </trkpt>
      <trkpt lat="43.895475966855884" lon="7.647171020507813">
        <ele>146.74000000000001</ele>
        <time>2025-05-19T08:30:21Z</time>
      </trkpt>
      <trkpt lat="43.896721014752984" lon="7.648228984326124">
        <ele>148.66</ele>
        <time>2025-05-19T08:30:30Z</time>
      </trkpt>
      <trkpt lat="43.896856969222426" lon="7.648263014853001">
        <ele>148.18000000000001</ele>
        <time>2025-05-19T08:30:31Z</time>
      </trkpt>
      <trkpt lat="43.897005999460816" lon="7.64823803678155">
        <ele>148.18000000000001</ele>
        <time>2025-05-19T08:30:32Z</time>
      </trkpt>
      <trkpt lat="43.897169027477503" lon="7.648214986547828">
        <ele>148.18000000000001</ele>
        <time>2025-05-19T08:30:33Z</time>
      </trkpt>
      <trkpt lat="43.897339012473822" lon="7.648195959627628">
        <ele>147.69999999999999</ele>
        <time>2025-05-19T08:30:34Z</time>
      </trkpt>
      <trkpt lat="43.898419020697474" lon="7.648086994886398">
        <ele>145.30000000000001</ele>
        <time>2025-05-19T08:30:40Z</time>
      </trkpt>
      <trkpt lat="43.898580959066749" lon="7.64811197295785">
        <ele>145.30000000000001</ele>
        <time>2025-05-19T08:30:41Z</time>
      </trkpt>
      <trkpt lat="43.898713979870081" lon="7.648229990154505">
        <ele>145.30000000000001</ele>
        <time>2025-05-19T08:30:42Z</time>
      </trkpt>
      <trkpt lat="43.898847000673413" lon="7.648363010957837">
        <ele>145.30000000000001</ele>
        <time>2025-05-19T08:30:43Z</time>
      </trkpt>
      <trkpt lat="43.898981027305126" lon="7.64849703758955">
        <ele>145.78</ele>
        <time>2025-05-19T08:30:44Z</time>
      </trkpt>
      <trkpt lat="43.899138020351529" lon="7.648594016209245">
        <ele>146.25999999999999</ele>
        <time>2025-05-19T08:30:45Z</time>
      </trkpt>
      <trkpt lat="43.899301970377564" lon="7.648693006485701">
        <ele>146.74000000000001</ele>
        <time>2025-05-19T08:30:46Z</time>
      </trkpt>
      <trkpt lat="43.899471033364534" lon="7.648795014247298">
        <ele>146.74000000000001</ele>
        <time>2025-05-19T08:30:47Z</time>
      </trkpt>
      <trkpt lat="43.899643030017614" lon="7.648900039494038">
        <ele>147.22</ele>
        <time>2025-05-19T08:30:48Z</time>
      </trkpt>
      <trkpt lat="43.900294974446297" lon="7.649288037791848">
        <ele>149.13999999999999</ele>
        <time>2025-05-19T08:30:52Z</time>
      </trkpt>
      <trkpt lat="43.900576019659638" lon="7.64942298643291">
        <ele>149.62</ele>
        <time>2025-05-19T08:30:54Z</time>
      </trkpt>
      <trkpt lat="43.900715997442603" lon="7.649455005303025">
        <ele>150.09999999999999</ele>
        <time>2025-05-19T08:30:55Z</time>
      </trkpt>
      <trkpt lat="43.900857986882329" lon="7.649461962282658">
        <ele>150.09999999999999</ele>
        <time>2025-05-19T08:30:56Z</time>
      </trkpt>
      <trkpt lat="43.901454024016857" lon="7.649360038340092">
        <ele>150.58000000000001</ele>
        <time>2025-05-19T08:31:00Z</time>
      </trkpt>
      <trkpt lat="43.901571035385132" lon="7.649274040013552">
        <ele>151.06</ele>
        <time>2025-05-19T08:31:01Z</time>
      </trkpt>
      <trkpt lat="43.902463959529996" lon="7.648615976795554">
        <ele>152.03</ele>
        <time>2025-05-19T08:31:07Z</time>
      </trkpt>
      <trkpt lat="43.902615001425147" lon="7.648522015661001">
        <ele>152.03</ele>
        <time>2025-05-19T08:31:08Z</time>
      </trkpt>
      <trkpt lat="43.902782974764705" lon="7.648517992347479">
        <ele>152.50999999999999</ele>
        <time>2025-05-19T08:31:09Z</time>
      </trkpt>
      <trkpt lat="43.903515972197056" lon="7.648551017045975">
        <ele>151.06</ele>
        <time>2025-05-19T08:31:13Z</time>
      </trkpt>
      <trkpt lat="43.903671959415078" lon="7.648631986230612">
        <ele>150.58000000000001</ele>
        <time>2025-05-19T08:31:14Z</time>
      </trkpt>
      <trkpt lat="43.903816966339946" lon="7.648750003427267">
        <ele>150.58000000000001</ele>
        <time>2025-05-19T08:31:15Z</time>
      </trkpt>
      <trkpt lat="43.904230026528239" lon="7.649122998118401">
        <ele>148.18000000000001</ele>
        <time>2025-05-19T08:31:18Z</time>
      </trkpt>
      <trkpt lat="43.904310995712876" lon="7.649294994771481">
        <ele>147.22</ele>
        <time>2025-05-19T08:31:19Z</time>
      </trkpt>
      <trkpt lat="43.904388025403023" lon="7.649459028616548">
        <ele>146.74000000000001</ele>
        <time>2025-05-19T08:31:20Z</time>
      </trkpt>
      <trkpt lat="43.904463965445757" lon="7.649621972814202">
        <ele>146.25999999999999</ele>
        <time>2025-05-19T08:31:21Z</time>
      </trkpt>
      <trkpt lat="43.9045549929142" lon="7.649786006659269">
        <ele>146.25999999999999</ele>
        <time>2025-05-19T08:31:22Z</time>
      </trkpt>
      <trkpt lat="43.9046620298177" lon="7.64991600997746">
        <ele>145.78</ele>
        <time>2025-05-19T08:31:23Z</time>
      </trkpt>
      <trkpt lat="43.904767977073789" lon="7.65004500746727">
        <ele>146.25999999999999</ele>
        <time>2025-05-19T08:31:24Z</time>
      </trkpt>
      <trkpt lat="43.904896974563599" lon="7.6501539722085">
        <ele>146.25999999999999</ele>
        <time>2025-05-19T08:31:25Z</time>
      </trkpt>
      <trkpt lat="43.905032007023692" lon="7.650233013555408">
        <ele>146.25999999999999</ele>
        <time>2025-05-19T08:31:26Z</time>
      </trkpt>
      <trkpt lat="43.90517701394856" lon="7.650293027982116">
        <ele>146.74000000000001</ele>
        <time>2025-05-19T08:31:27Z</time>
      </trkpt>
      <trkpt lat="43.905326966196299" lon="7.650342984125018">
        <ele>147.22</ele>
        <time>2025-05-19T08:31:28Z</time>
      </trkpt>
      <trkpt lat="43.905619997531176" lon="7.650410961359739">
        <ele>147.69999999999999</ele>
        <time>2025-05-19T08:31:30Z</time>
      </trkpt>
      <trkpt lat="43.905761986970901" lon="7.650410961359739">
        <ele>148.18000000000001</ele>
        <time>2025-05-19T08:31:31Z</time>
      </trkpt>
      <trkpt lat="43.905915040522814" lon="7.650396041572094">
        <ele>148.66</ele>
        <time>2025-05-19T08:31:32Z</time>
      </trkpt>
      <trkpt lat="43.907195962965488" lon="7.649882985278964">
        <ele>149.62</ele>
        <time>2025-05-19T08:31:40Z</time>
      </trkpt>
      <trkpt lat="43.90764799900353" lon="7.649627001956105">
        <ele>150.09999999999999</ele>
        <time>2025-05-19T08:31:43Z</time>
      </trkpt>
      <trkpt lat="43.908383008092642" lon="7.649377975612879">
        <ele>152.03</ele>
        <time>2025-05-19T08:31:48Z</time>
      </trkpt>
      <trkpt lat="43.909478019922972" lon="7.649391973391175">
        <ele>157.78999999999999</ele>
        <time>2025-05-19T08:31:55Z</time>
      </trkpt>
      <trkpt lat="43.910422995686531" lon="7.650030003860593">
        <ele>159.24000000000001</ele>
        <time>2025-05-19T08:32:02Z</time>
      </trkpt>
      <trkpt lat="43.91106597147882" lon="7.65045203268528">
        <ele>162.12</ele>
        <time>2025-05-19T08:32:07Z</time>
      </trkpt>
      <trkpt lat="43.911355985328555" lon="7.650539958849549">
        <ele>163.08000000000001</ele>
        <time>2025-05-19T08:32:09Z</time>
      </trkpt>
      <trkpt lat="43.911827970296144" lon="7.650556974112988">
        <ele>164.52000000000001</ele>
        <time>2025-05-19T08:32:12Z</time>
      </trkpt>
      <trkpt lat="43.911982029676437" lon="7.650543982163072">
        <ele>165.47999999999999</ele>
        <time>2025-05-19T08:32:13Z</time>
      </trkpt>
      <trkpt lat="43.912125024944544" lon="7.650471981614828">
        <ele>165.96000000000001</ele>
        <time>2025-05-19T08:32:14Z</time>
      </trkpt>
      <trkpt lat="43.912269026041031" lon="7.650399981066585">
        <ele>166.44999999999999</ele>
        <time>2025-05-19T08:32:15Z</time>
      </trkpt>
      <trkpt lat="43.912417972460389" lon="7.650324963033199">
        <ele>167.41</ele>
        <time>2025-05-19T08:32:16Z</time>
      </trkpt>
      <trkpt lat="43.91252500936389" lon="7.650203006342053">
        <ele>167.88999999999999</ele>
        <time>2025-05-19T08:32:17Z</time>
      </trkpt>
      <trkpt lat="43.912607990205288" lon="7.65006504021585">
        <ele>168.84999999999999</ele>
        <time>2025-05-19T08:32:18Z</time>
      </trkpt>
      <trkpt lat="43.912658030167222" lon="7.649905029684305">
        <ele>169.81</ele>
        <time>2025-05-19T08:32:19Z</time>
      </trkpt>
      <trkpt lat="43.912668004631996" lon="7.649736972525716">
        <ele>170.77000000000001</ele>
        <time>2025-05-19T08:32:20Z</time>
      </trkpt>
      <trkpt lat="43.91267797909677" lon="7.649558018893004">
        <ele>171.72999999999999</ele>
        <time>2025-05-19T08:32:21Z</time>
      </trkpt>
      <trkpt lat="43.912689965218306" lon="7.649354003369808">
        <ele>172.21000000000001</ele>
        <time>2025-05-19T08:32:22Z</time>
      </trkpt>
      <trkpt lat="43.91269700601697" lon="7.649231040850282">
        <ele>173.16999999999999</ele>
        <time>2025-05-19T08:32:23Z</time>
      </trkpt>
      <trkpt lat="43.912779986858368" lon="7.649127021431923">
        <ele>173.66</ele>
        <time>2025-05-19T08:32:24Z</time>
      </trkpt>
      <trkpt lat="43.912880988791585" lon="7.649001041427255">
        <ele>174.62</ele>
        <time>2025-05-19T08:32:25Z</time>
      </trkpt>
      <trkpt lat="43.912979979068041" lon="7.648896016180515">
        <ele>175.58000000000001</ele>
        <time>2025-05-19T08:32:26Z</time>
      </trkpt>
      <trkpt lat="43.913120962679386" lon="7.648822003975511">
        <ele>176.06</ele>
        <time>2025-05-19T08:32:27Z</time>
      </trkpt>
      <trkpt lat="43.913267981261015" lon="7.648743968456984">
        <ele>177.02000000000001</ele>
        <time>2025-05-19T08:32:28Z</time>
      </trkpt>
      <trkpt lat="43.913409970700741" lon="7.648684959858656">
        <ele>177.97999999999999</ele>
        <time>2025-05-19T08:32:29Z</time>
      </trkpt>
      <trkpt lat="43.913567969575524" lon="7.648651013150811">
        <ele>178.94</ele>
        <time>2025-05-19T08:32:30Z</time>
      </trkpt>
      <trkpt lat="43.914276994764805" lon="7.64851899817586">
        <ele>182.78999999999999</ele>
        <time>2025-05-19T08:32:35Z</time>
      </trkpt>
      <trkpt lat="43.914419990032911" lon="7.648503994569182">
        <ele>183.27000000000001</ele>
        <time>2025-05-19T08:32:36Z</time>
      </trkpt>
      <trkpt lat="43.914556028321385" lon="7.648557974025607">
        <ele>183.75</ele>
        <time>2025-05-19T08:32:37Z</time>
      </trkpt>
      <trkpt lat="43.914701035246253" lon="7.648615976795554">
        <ele>184.22999999999999</ele>
        <time>2025-05-19T08:32:38Z</time>
      </trkpt>
      <trkpt lat="43.914848975837231" lon="7.648674985393882">
        <ele>184.71000000000001</ele>
        <time>2025-05-19T08:32:39Z</time>
      </trkpt>
      <trkpt lat="43.915755981579423" lon="7.648973967880011">
        <ele>187.59</ele>
        <time>2025-05-19T08:32:45Z</time>
      </trkpt>
      <trkpt lat="43.915914986282587" lon="7.648973967880011">
        <ele>188.08000000000001</ele>
        <time>2025-05-19T08:32:46Z</time>
      </trkpt>
      <trkpt lat="43.916074996814132" lon="7.648960975930095">
        <ele>188.56</ele>
        <time>2025-05-19T08:32:47Z</time>
      </trkpt>
      <trkpt lat="43.917415011674166" lon="7.648635003715754">
        <ele>191.91999999999999</ele>
        <time>2025-05-19T08:32:55Z</time>
      </trkpt>
      <trkpt lat="43.918257979676127" lon="7.648443980142474">
        <ele>193.36000000000001</ele>
        <time>2025-05-19T08:33:00Z</time>
      </trkpt>
      <trkpt lat="43.918422013521194" lon="7.64839000068605">
        <ele>193.84</ele>
        <time>2025-05-19T08:33:01Z</time>
      </trkpt>
      <trkpt lat="43.918578000739217" lon="7.648285981267691">
        <ele>193.84</ele>
        <time>2025-05-19T08:33:02Z</time>
      </trkpt>
      <trkpt lat="43.918732982128859" lon="7.648181961849332">
        <ele>194.31999999999999</ele>
        <time>2025-05-19T08:33:03Z</time>
      </trkpt>
      <trkpt lat="43.918891986832023" lon="7.648077020421624">
        <ele>194.80000000000001</ele>
        <time>2025-05-19T08:33:04Z</time>
      </trkpt>
      <trkpt lat="43.919326001778245" lon="7.647692039608955">
        <ele>195.77000000000001</ele>
        <time>2025-05-19T08:33:07Z</time>
      </trkpt>
      <trkpt lat="43.919456005096436" lon="7.64753102324903">
        <ele>196.72999999999999</ele>
        <time>2025-05-19T08:33:08Z</time>
      </trkpt>
      <trkpt lat="43.920072996988893" lon="7.646706998348236">
        <ele>199.61000000000001</ele>
        <time>2025-05-19T08:33:13Z</time>
      </trkpt>
      <trkpt lat="43.920213980600238" lon="7.646599961444736">
        <ele>200.09</ele>
        <time>2025-05-19T08:33:14Z</time>
      </trkpt>
      <trkpt lat="43.920357981696725" lon="7.646493008360267">
        <ele>201.05000000000001</ele>
        <time>2025-05-19T08:33:15Z</time>
      </trkpt>
      <trkpt lat="43.920781016349792" lon="7.646236019209027">
        <ele>203.94</ele>
        <time>2025-05-19T08:33:18Z</time>
      </trkpt>
      <trkpt lat="43.920915964990854" lon="7.646163012832403">
        <ele>205.38</ele>
        <time>2025-05-19T08:33:19Z</time>
      </trkpt>
      <trkpt lat="43.921039011329412" lon="7.646174998953939">
        <ele>206.81999999999999</ele>
        <time>2025-05-19T08:33:20Z</time>
      </trkpt>
      <trkpt lat="43.921181000769138" lon="7.646207017824054">
        <ele>208.25999999999999</ele>
        <time>2025-05-19T08:33:21Z</time>
      </trkpt>
      <trkpt lat="43.921317961066961" lon="7.646268960088491">
        <ele>209.69999999999999</ele>
        <time>2025-05-19T08:33:22Z</time>
      </trkpt>
      <trkpt lat="43.921452993527055" lon="7.64630600810051">
        <ele>210.66999999999999</ele>
        <time>2025-05-19T08:33:23Z</time>
      </trkpt>
      <trkpt lat="43.921585008502007" lon="7.646327968686819">
        <ele>212.11000000000001</ele>
        <time>2025-05-19T08:33:24Z</time>
      </trkpt>
      <trkpt lat="43.921696990728378" lon="7.646294021978974">
        <ele>213.06999999999999</ele>
        <time>2025-05-19T08:33:25Z</time>
      </trkpt>
      <trkpt lat="43.921826994046569" lon="7.646223027259111">
        <ele>213.55000000000001</ele>
        <time>2025-05-19T08:33:26Z</time>
      </trkpt>
      <trkpt lat="43.921964960172772" lon="7.646131999790669">
        <ele>214.50999999999999</ele>
        <time>2025-05-19T08:33:27Z</time>
      </trkpt>
      <trkpt lat="43.922218009829521" lon="7.645954973995686">
        <ele>215.94999999999999</ele>
        <time>2025-05-19T08:33:29Z</time>
      </trkpt>
      <trkpt lat="43.922355975955725" lon="7.645918009802699">
        <ele>216.43000000000001</ele>
        <time>2025-05-19T08:33:30Z</time>
      </trkpt>
      <trkpt lat="43.922487990930676" lon="7.645944999530911">
        <ele>216.91</ele>
        <time>2025-05-19T08:33:31Z</time>
      </trkpt>
      <trkpt lat="43.922628974542022" lon="7.645972995087504">
        <ele>217.88</ele>
        <time>2025-05-19T08:33:32Z</time>
      </trkpt>
      <trkpt lat="43.922780016437173" lon="7.646003002300859">
        <ele>218.36000000000001</ele>
        <time>2025-05-19T08:33:33Z</time>
      </trkpt>
      <trkpt lat="43.922932986170053" lon="7.646081959828734">
        <ele>218.84</ele>
        <time>2025-05-19T08:33:34Z</time>
      </trkpt>
      <trkpt lat="43.923074975609779" lon="7.646173993125558">
        <ele>219.31999999999999</ele>
        <time>2025-05-19T08:33:35Z</time>
      </trkpt>
      <trkpt lat="43.923212019726634" lon="7.646280024200678">
        <ele>220.28</ele>
        <time>2025-05-19T08:33:36Z</time>
      </trkpt>
      <trkpt lat="43.923313021659851" lon="7.646423019468784">
        <ele>221.24000000000001</ele>
        <time>2025-05-19T08:33:37Z</time>
      </trkpt>
      <trkpt lat="43.923403965309262" lon="7.646616976708174">
        <ele>222.19999999999999</ele>
        <time>2025-05-19T08:33:38Z</time>
      </trkpt>
      <trkpt lat="43.923963038250804" lon="7.648008037358522">
        <ele>226.53</ele>
        <time>2025-05-19T08:33:45Z</time>
      </trkpt>
      <trkpt lat="43.924153978005052" lon="7.648312970995903">
        <ele>226.53</ele>
        <time>2025-05-19T08:33:47Z</time>
      </trkpt>
      <trkpt lat="43.924251040443778" lon="7.648441968485713">
        <ele>226.53</ele>
        <time>2025-05-19T08:33:48Z</time>
      </trkpt>
      <trkpt lat="43.924349024891853" lon="7.648484967648983">
        <ele>226.53</ele>
        <time>2025-05-19T08:33:49Z</time>
      </trkpt>
      <trkpt lat="43.924477016553283" lon="7.648524027317762">
        <ele>226.05000000000001</ele>
        <time>2025-05-19T08:33:50Z</time>
      </trkpt>
      <trkpt lat="43.924596039578319" lon="7.648534001782537">
        <ele>226.05000000000001</ele>
        <time>2025-05-19T08:33:51Z</time>
      </trkpt>
      <trkpt lat="43.924756972119212" lon="7.648500977084041">
        <ele>226.05000000000001</ele>
        <time>2025-05-19T08:33:52Z</time>
      </trkpt>
      <trkpt lat="43.924872977659106" lon="7.648429982364178">
        <ele>225.56999999999999</ele>
        <time>2025-05-19T08:33:53Z</time>
      </trkpt>
      <trkpt lat="43.925010021775961" lon="7.648345995694399">
        <ele>225.56999999999999</ele>
        <time>2025-05-19T08:33:54Z</time>
      </trkpt>
      <trkpt lat="43.925115969032049" lon="7.648222027346492">
        <ele>225.09</ele>
        <time>2025-05-19T08:33:55Z</time>
      </trkpt>
      <trkpt lat="43.925204984843731" lon="7.648079032078385">
        <ele>224.61000000000001</ele>
        <time>2025-05-19T08:33:56Z</time>
      </trkpt>
      <trkpt lat="43.925290983170271" lon="7.647914998233318">
        <ele>224.61000000000001</ele>
        <time>2025-05-19T08:33:57Z</time>
      </trkpt>
      <trkpt lat="43.92537597566843" lon="7.647751970216632">
        <ele>224.12</ele>
        <time>2025-05-19T08:33:58Z</time>
      </trkpt>
      <trkpt lat="43.92548100091517" lon="7.647610986605287">
        <ele>223.63999999999999</ele>
        <time>2025-05-19T08:33:59Z</time>
      </trkpt>
      <trkpt lat="43.925604969263077" lon="7.647499004378915">
        <ele>223.63999999999999</ele>
        <time>2025-05-19T08:34:00Z</time>
      </trkpt>
      <trkpt lat="43.925744025036693" lon="7.647398002445698">
        <ele>223.16</ele>
        <time>2025-05-19T08:34:01Z</time>
      </trkpt>
      <trkpt lat="43.925893977284431" lon="7.647307980805636">
        <ele>222.68000000000001</ele>
        <time>2025-05-19T08:34:02Z</time>
      </trkpt>
      <trkpt lat="43.926038984209299" lon="7.647246960550547">
        <ele>222.68000000000001</ele>
        <time>2025-05-19T08:34:03Z</time>
      </trkpt>
      <trkpt lat="43.926180973649025" lon="7.647222988307476">
        <ele>222.68000000000001</ele>
        <time>2025-05-19T08:34:04Z</time>
      </trkpt>
      <trkpt lat="43.926303014159203" lon="7.647237991914153">
        <ele>222.19999999999999</ele>
        <time>2025-05-19T08:34:05Z</time>
      </trkpt>
      <trkpt lat="43.926431005820632" lon="7.647284008562565">
        <ele>222.19999999999999</ele>
        <time>2025-05-19T08:34:06Z</time>
      </trkpt>
      <trkpt lat="43.926538964733481" lon="7.647370006889105">
        <ele>222.19999999999999</ele>
        <time>2025-05-19T08:34:07Z</time>
      </trkpt>
      <trkpt lat="43.926656981930137" lon="7.647497998550534">
        <ele>222.19999999999999</ele>
        <time>2025-05-19T08:34:08Z</time>
      </trkpt>
      <trkpt lat="43.926774999126792" lon="7.647633031010628">
        <ele>222.19999999999999</ele>
        <time>2025-05-19T08:34:09Z</time>
      </trkpt>
      <trkpt lat="43.92743700183928" lon="7.648683032020927">
        <ele>227.00999999999999</ele>
        <time>2025-05-19T08:34:16Z</time>
      </trkpt>
      <trkpt lat="43.927516965195537" lon="7.648785039782524">
        <ele>227.97</ele>
        <time>2025-05-19T08:34:17Z</time>
      </trkpt>
      <trkpt lat="43.927606986835599" lon="7.648876989260316">
        <ele>228.44999999999999</ele>
        <time>2025-05-19T08:34:18Z</time>
      </trkpt>
      <trkpt lat="43.927703965455294" lon="7.648962987586856">
        <ele>229.41</ele>
        <time>2025-05-19T08:34:19Z</time>
      </trkpt>
      <trkpt lat="43.927804967388511" lon="7.649052003398538">
        <ele>229.88999999999999</ele>
        <time>2025-05-19T08:34:20Z</time>
      </trkpt>
      <trkpt lat="43.927905969321728" lon="7.649141019210219">
        <ele>230.37</ele>
        <time>2025-05-19T08:34:21Z</time>
      </trkpt>
      <trkpt lat="43.928373008966446" lon="7.649521976709366">
        <ele>233.25999999999999</ele>
        <time>2025-05-19T08:34:25Z</time>
      </trkpt>
      <trkpt lat="43.928490020334721" lon="7.649617027491331">
        <ele>234.22</ele>
        <time>2025-05-19T08:34:26Z</time>
      </trkpt>
      <trkpt lat="43.929126961156726" lon="7.650180039927363">
        <ele>237.58000000000001</ele>
        <time>2025-05-19T08:34:31Z</time>
      </trkpt>
      <trkpt lat="43.929327037185431" lon="7.650451026856899">
        <ele>238.53999999999999</ele>
        <time>2025-05-19T08:34:33Z</time>
      </trkpt>
      <trkpt lat="43.929407000541687" lon="7.65060500241816">
        <ele>239.02000000000001</ele>
        <time>2025-05-19T08:34:34Z</time>
      </trkpt>
      <trkpt lat="43.929486963897943" lon="7.650760989636183">
        <ele>239.99000000000001</ele>
        <time>2025-05-19T08:34:35Z</time>
      </trkpt>
      <trkpt lat="43.930047964677215" lon="7.652138974517584">
        <ele>242.38999999999999</ele>
        <time>2025-05-19T08:34:44Z</time>
      </trkpt>
      <trkpt lat="43.930163970217109" lon="7.652423959225416">
        <ele>242.87</ele>
        <time>2025-05-19T08:34:46Z</time>
      </trkpt>
      <trkpt lat="43.930220967158675" lon="7.65255999751389">
        <ele>242.87</ele>
        <time>2025-05-19T08:34:47Z</time>
      </trkpt>
      <trkpt lat="43.930266983807087" lon="7.652671979740262">
        <ele>242.87</ele>
        <time>2025-05-19T08:34:48Z</time>
      </trkpt>
      <trkpt lat="43.930303025990725" lon="7.652756972238421">
        <ele>242.87</ele>
        <time>2025-05-19T08:34:49Z</time>
      </trkpt>
      <trkpt lat="43.930335966870189" lon="7.652836013585329">
        <ele>242.87</ele>
        <time>2025-05-19T08:34:50Z</time>
      </trkpt>
      <trkpt lat="43.930365974083543" lon="7.652914971113205">
        <ele>242.87</ele>
        <time>2025-05-19T08:34:51Z</time>
      </trkpt>
      <trkpt lat="43.9304010104388" lon="7.653004992753267">
        <ele>242.87</ele>
        <time>2025-05-19T08:34:52Z</time>
      </trkpt>
      <trkpt lat="43.93044400960207" lon="7.653114963322878">
        <ele>242.87</ele>
        <time>2025-05-19T08:34:53Z</time>
      </trkpt>
      <trkpt lat="43.930590022355318" lon="7.653492987155914">
        <ele>242.87</ele>
        <time>2025-05-19T08:34:56Z</time>
      </trkpt>
      <trkpt lat="43.930737040936947" lon="7.653706977143884">
        <ele>243.34999999999999</ele>
        <time>2025-05-19T08:34:58Z</time>
      </trkpt>
      <trkpt lat="43.930892022326589" lon="7.653928007930517">
        <ele>243.34999999999999</ele>
        <time>2025-05-19T08:35:00Z</time>
      </trkpt>
      <trkpt lat="43.93096100538969" lon="7.654023980721831">
        <ele>242.87</ele>
        <time>2025-05-19T08:35:01Z</time>
      </trkpt>
      <trkpt lat="43.931451011449099" lon="7.654788997024298">
        <ele>242.87</ele>
        <time>2025-05-19T08:35:07Z</time>
      </trkpt>
      <trkpt lat="43.931484958156943" lon="7.654915982857347">
        <ele>242.87</ele>
        <time>2025-05-19T08:35:08Z</time>
      </trkpt>
      <trkpt lat="43.931537009775639" lon="7.655110023915768">
        <ele>243.34999999999999</ele>
        <time>2025-05-19T08:35:09Z</time>
      </trkpt>
      <trkpt lat="43.931657960638404" lon="7.655674964189529">
        <ele>244.78999999999999</ele>
        <time>2025-05-19T08:35:12Z</time>
      </trkpt>
      <trkpt lat="43.931706994771957" lon="7.655870011076331">
        <ele>244.78999999999999</ele>
        <time>2025-05-19T08:35:13Z</time>
      </trkpt>
      <trkpt lat="43.931805985048413" lon="7.656251974403858">
        <ele>245.27000000000001</ele>
        <time>2025-05-19T08:35:15Z</time>
      </trkpt>
      <trkpt lat="43.931854013353586" lon="7.656436963006854">
        <ele>245.75</ele>
        <time>2025-05-19T08:35:16Z</time>
      </trkpt>
      <trkpt lat="43.932129023596644" lon="7.657692991197109">
        <ele>246.22999999999999</ele>
        <time>2025-05-19T08:35:23Z</time>
      </trkpt>
      <trkpt lat="43.932360028848052" lon="7.659780001267791">
        <ele>248.16</ele>
        <time>2025-05-19T08:35:34Z</time>
      </trkpt>
      <trkpt lat="43.932522973045707" lon="7.66059497371316">
        <ele>248.63999999999999</ele>
        <time>2025-05-19T08:35:39Z</time>
      </trkpt>
      <trkpt lat="43.9325060416013" lon="7.660730006173253">
        <ele>248.63999999999999</ele>
        <time>2025-05-19T08:35:40Z</time>
      </trkpt>
      <trkpt lat="43.932450972497463" lon="7.660839976742864">
        <ele>248.63999999999999</ele>
        <time>2025-05-19T08:35:41Z</time>
      </trkpt>
      <trkpt lat="43.932374026626348" lon="7.660967968404293">
        <ele>248.16</ele>
        <time>2025-05-19T08:35:42Z</time>
      </trkpt>
      <trkpt lat="43.932288028299809" lon="7.661049021407962">
        <ele>248.16</ele>
        <time>2025-05-19T08:35:43Z</time>
      </trkpt>
      <trkpt lat="43.932188032194972" lon="7.661144994199276">
        <ele>248.16</ele>
        <time>2025-05-19T08:35:44Z</time>
      </trkpt>
      <trkpt lat="43.932006983086467" lon="7.661315985023975">
        <ele>249.59999999999999</ele>
        <time>2025-05-19T08:35:46Z</time>
      </trkpt>
      <trkpt lat="43.93192601390183" lon="7.661414975300431">
        <ele>250.56</ele>
        <time>2025-05-19T08:35:47Z</time>
      </trkpt>
      <trkpt lat="43.931856025010347" lon="7.661520000547171">
        <ele>251.52000000000001</ele>
        <time>2025-05-19T08:35:48Z</time>
      </trkpt>
      <trkpt lat="43.931795004755259" lon="7.661612033843994">
        <ele>252</ele>
        <time>2025-05-19T08:35:49Z</time>
      </trkpt>
      <trkpt lat="43.931759968400002" lon="7.66173399053514">
        <ele>252.47999999999999</ele>
        <time>2025-05-19T08:35:50Z</time>
      </trkpt>
      <trkpt lat="43.931723004207015" lon="7.661861982196569">
        <ele>252.96000000000001</ele>
        <time>2025-05-19T08:35:51Z</time>
      </trkpt>
      <trkpt lat="43.931687967851758" lon="7.661985028535128">
        <ele>253.93000000000001</ele>
        <time>2025-05-19T08:35:52Z</time>
      </trkpt>
      <trkpt lat="43.931656032800674" lon="7.662097010761499">
        <ele>254.41</ele>
        <time>2025-05-19T08:35:53Z</time>
      </trkpt>
      <trkpt lat="43.93158596009016" lon="7.662417031824589">
        <ele>256.32999999999998</ele>
        <time>2025-05-19T08:35:56Z</time>
      </trkpt>
      <trkpt lat="43.931571962311864" lon="7.662499006837606">
        <ele>256.81</ele>
        <time>2025-05-19T08:35:57Z</time>
      </trkpt>
      <trkpt lat="43.931557964533567" lon="7.662580981850624">
        <ele>257.29000000000002</ele>
        <time>2025-05-19T08:35:58Z</time>
      </trkpt>
      <trkpt lat="43.931542038917542" lon="7.662677960470319">
        <ele>257.76999999999998</ele>
        <time>2025-05-19T08:35:59Z</time>
      </trkpt>
      <trkpt lat="43.931525023654103" lon="7.662778040394187">
        <ele>258.25</ele>
        <time>2025-05-19T08:36:00Z</time>
      </trkpt>
      <trkpt lat="43.931508008390665" lon="7.662879964336753">
        <ele>258.73000000000002</ele>
        <time>2025-05-19T08:36:01Z</time>
      </trkpt>
      <trkpt lat="43.931455034762621" lon="7.663196967914701">
        <ele>259.20999999999998</ele>
        <time>2025-05-19T08:36:04Z</time>
      </trkpt>
      <trkpt lat="43.931483030319214" lon="7.663441970944405">
        <ele>259.69</ele>
        <time>2025-05-19T08:36:06Z</time>
      </trkpt>
      <trkpt lat="43.931601969525218" lon="7.663843967020512">
        <ele>261.62</ele>
        <time>2025-05-19T08:36:10Z</time>
      </trkpt>
      <trkpt lat="43.931643962860107" lon="7.663908004760742">
        <ele>261.62</ele>
        <time>2025-05-19T08:36:11Z</time>
      </trkpt>
      <trkpt lat="43.931915033608675" lon="7.664160970598459">
        <ele>263.54000000000002</ele>
        <time>2025-05-19T08:36:16Z</time>
      </trkpt>
      <trkpt lat="43.932052999734879" lon="7.66426800750196">
        <ele>263.54000000000002</ele>
        <time>2025-05-19T08:36:18Z</time>
      </trkpt>
      <trkpt lat="43.932135980576277" lon="7.664326010271907">
        <ele>263.54000000000002</ele>
        <time>2025-05-19T08:36:19Z</time>
      </trkpt>
      <trkpt lat="43.932245029136539" lon="7.664402034133673">
        <ele>264.01999999999998</ele>
        <time>2025-05-19T08:36:20Z</time>
      </trkpt>
      <trkpt lat="43.932290961965919" lon="7.66446297056973">
        <ele>264.01999999999998</ele>
        <time>2025-05-19T08:36:21Z</time>
      </trkpt>
      <trkpt lat="43.932354999706149" lon="7.664547963067889">
        <ele>264.01999999999998</ele>
        <time>2025-05-19T08:36:22Z</time>
      </trkpt>
      <trkpt lat="43.932374026626348" lon="7.664573024958372">
        <ele>264.01999999999998</ele>
        <time>2025-05-19T08:36:23Z</time>
      </trkpt>
      <trkpt lat="43.932410990819335" lon="7.664793971925974">
        <ele>264.5</ele>
        <time>2025-05-19T08:36:24Z</time>
      </trkpt>
      <trkpt lat="43.932437980547547" lon="7.664960017427802">
        <ele>264.5</ele>
        <time>2025-05-19T08:36:25Z</time>
      </trkpt>
      <trkpt lat="43.932394981384277" lon="7.66523796133697">
        <ele>263.54000000000002</ele>
        <time>2025-05-19T08:36:28Z</time>
      </trkpt>
      <trkpt lat="43.932351982221007" lon="7.665353966876864">
        <ele>263.54000000000002</ele>
        <time>2025-05-19T08:36:29Z</time>
      </trkpt>
      <trkpt lat="43.932275036349893" lon="7.665560999885202">
        <ele>264.01999999999998</ele>
        <time>2025-05-19T08:36:31Z</time>
      </trkpt>
      <trkpt lat="43.932230025529861" lon="7.665659990161657">
        <ele>264.01999999999998</ele>
        <time>2025-05-19T08:36:32Z</time>
      </trkpt>
      <trkpt lat="43.932018969208002" lon="7.666114959865809">
        <ele>264.98000000000002</ele>
        <time>2025-05-19T08:36:36Z</time>
      </trkpt>
      <trkpt lat="43.931960966438055" lon="7.666244963183999">
        <ele>264.5</ele>
        <time>2025-05-19T08:36:37Z</time>
      </trkpt>
      <trkpt lat="43.931913021951914" lon="7.666359962895513">
        <ele>264.5</ele>
        <time>2025-05-19T08:36:38Z</time>
      </trkpt>
      <trkpt lat="43.931872034445405" lon="7.666456019505858">
        <ele>264.01999999999998</ele>
        <time>2025-05-19T08:36:39Z</time>
      </trkpt>
      <trkpt lat="43.931833980605006" lon="7.66654503531754">
        <ele>263.06</ele>
        <time>2025-05-19T08:36:40Z</time>
      </trkpt>
      <trkpt lat="43.931793998926878" lon="7.666641008108854">
        <ele>262.10000000000002</ele>
        <time>2025-05-19T08:36:41Z</time>
      </trkpt>
      <trkpt lat="43.931744964793324" lon="7.666757013648748">
        <ele>261.62</ele>
        <time>2025-05-19T08:36:42Z</time>
      </trkpt>
      <trkpt lat="43.931446988135576" lon="7.667455980554223">
        <ele>257.29000000000002</ele>
        <time>2025-05-19T08:36:48Z</time>
      </trkpt>
      <trkpt lat="43.931029988452792" lon="7.668550992384553">
        <ele>253.93000000000001</ele>
        <time>2025-05-19T08:36:58Z</time>
      </trkpt>
      <trkpt lat="43.930982965976" lon="7.668686024844647">
        <ele>253.93000000000001</ele>
        <time>2025-05-19T08:36:59Z</time>
      </trkpt>
      <trkpt lat="43.930949019268155" lon="7.668848969042301">
        <ele>253.44</ele>
        <time>2025-05-19T08:37:00Z</time>
      </trkpt>
      <trkpt lat="43.930934015661478" lon="7.668987018987536">
        <ele>253.44</ele>
        <time>2025-05-19T08:37:01Z</time>
      </trkpt>
      <trkpt lat="43.930920017883182" lon="7.669122973456979">
        <ele>253.44</ele>
        <time>2025-05-19T08:37:02Z</time>
      </trkpt>
      <trkpt lat="43.930907025933266" lon="7.669250965118408">
        <ele>253.44</ele>
        <time>2025-05-19T08:37:03Z</time>
      </trkpt>
      <trkpt lat="43.930850028991699" lon="7.669654972851276">
        <ele>254.41</ele>
        <time>2025-05-19T08:37:07Z</time>
      </trkpt>
      <trkpt lat="43.930818010121584" lon="7.669742982834578">
        <ele>254.88999999999999</ele>
        <time>2025-05-19T08:37:08Z</time>
      </trkpt>
      <trkpt lat="43.930781967937946" lon="7.669839961454272">
        <ele>254.88999999999999</ele>
        <time>2025-05-19T08:37:09Z</time>
      </trkpt>
      <trkpt lat="43.930734023451805" lon="7.669952027499676">
        <ele>255.37</ele>
        <time>2025-05-19T08:37:10Z</time>
      </trkpt>
      <trkpt lat="43.930684989318252" lon="7.670067027211189">
        <ele>255.84999999999999</ele>
        <time>2025-05-19T08:37:11Z</time>
      </trkpt>
      <trkpt lat="43.93063897266984" lon="7.670203987509012">
        <ele>256.32999999999998</ele>
        <time>2025-05-19T08:37:12Z</time>
      </trkpt>
      <trkpt lat="43.930649030953646" lon="7.670385958626866">
        <ele>256.81</ele>
        <time>2025-05-19T08:37:13Z</time>
      </trkpt>
      <trkpt lat="43.930663028731942" lon="7.670549992471933">
        <ele>257.29000000000002</ele>
        <time>2025-05-19T08:37:14Z</time>
      </trkpt>
      <trkpt lat="43.930886993184686" lon="7.672092011198402">
        <ele>257.76999999999998</ele>
        <time>2025-05-19T08:37:22Z</time>
      </trkpt>
      <trkpt lat="43.931459980085492" lon="7.674091011285782">
        <ele>257.76999999999998</ele>
        <time>2025-05-19T08:37:31Z</time>
      </trkpt>
      <trkpt lat="43.931525023654103" lon="7.674314975738525">
        <ele>257.76999999999998</ele>
        <time>2025-05-19T08:37:32Z</time>
      </trkpt>
      <trkpt lat="43.931571962311864" lon="7.674557967111468">
        <ele>257.76999999999998</ele>
        <time>2025-05-19T08:37:33Z</time>
      </trkpt>
      <trkpt lat="43.931934982538223" lon="7.676578005775809">
        <ele>260.64999999999998</ele>
        <time>2025-05-19T08:37:42Z</time>
      </trkpt>
      <trkpt lat="43.932003965601325" lon="7.676713038235903">
        <ele>261.62</ele>
        <time>2025-05-19T08:37:43Z</time>
      </trkpt>
      <trkpt lat="43.932109996676445" lon="7.676824014633894">
        <ele>262.10000000000002</ele>
        <time>2025-05-19T08:37:44Z</time>
      </trkpt>
      <trkpt lat="43.93317399546504" lon="7.677802015095949">
        <ele>266.42000000000002</ele>
        <time>2025-05-19T08:37:52Z</time>
      </trkpt>
      <trkpt lat="43.93405300565064" lon="7.678439039736986">
        <ele>269.79000000000002</ele>
        <time>2025-05-19T08:37:58Z</time>
      </trkpt>
      <trkpt lat="43.934190971776843" lon="7.678564013913274">
        <ele>270.26999999999998</ele>
        <time>2025-05-19T08:37:59Z</time>
      </trkpt>
      <trkpt lat="43.934328015893698" lon="7.678709020838141">
        <ele>270.75</ele>
        <time>2025-05-19T08:38:00Z</time>
      </trkpt>
      <trkpt lat="43.935135025531054" lon="7.679937975481153">
        <ele>275.56</ele>
        <time>2025-05-19T08:38:07Z</time>
      </trkpt>
      <trkpt lat="43.935363013297319" lon="7.680450025945902">
        <ele>277.48000000000002</ele>
        <time>2025-05-19T08:38:10Z</time>
      </trkpt>
      <trkpt lat="43.935437025502324" lon="7.68059796653688">
        <ele>277.95999999999998</ele>
        <time>2025-05-19T08:38:11Z</time>
      </trkpt>
      <trkpt lat="43.935531992465258" lon="7.680699974298477">
        <ele>278.44</ele>
        <time>2025-05-19T08:38:12Z</time>
      </trkpt>
      <trkpt lat="43.935623019933701" lon="7.680797958746553">
        <ele>279.39999999999998</ele>
        <time>2025-05-19T08:38:13Z</time>
      </trkpt>
      <trkpt lat="43.935724021866918" lon="7.680890997871757">
        <ele>279.88</ele>
        <time>2025-05-19T08:38:14Z</time>
      </trkpt>
      <trkpt lat="43.93583700992167" lon="7.68094003200531">
        <ele>280.83999999999997</ele>
        <time>2025-05-19T08:38:15Z</time>
      </trkpt>
      <trkpt lat="43.935953015461564" lon="7.680989988148212">
        <ele>281.31999999999999</ele>
        <time>2025-05-19T08:38:16Z</time>
      </trkpt>
      <trkpt lat="43.936070026829839" lon="7.681040028110147">
        <ele>281.80000000000001</ele>
        <time>2025-05-19T08:38:17Z</time>
      </trkpt>
      <trkpt lat="43.936191983520985" lon="7.68109199590981">
        <ele>282.27999999999997</ele>
        <time>2025-05-19T08:38:18Z</time>
      </trkpt>
      <trkpt lat="43.936497000977397" lon="7.681266004219651">
        <ele>284.69</ele>
        <time>2025-05-19T08:38:21Z</time>
      </trkpt>
      <trkpt lat="43.936575958505273" lon="7.681374968960881">
        <ele>285.17000000000002</ele>
        <time>2025-05-19T08:38:22Z</time>
      </trkpt>
      <trkpt lat="43.936652988195419" lon="7.681500026956201">
        <ele>285.64999999999998</ele>
        <time>2025-05-19T08:38:23Z</time>
      </trkpt>
      <trkpt lat="43.93725598230958" lon="7.682706015184522">
        <ele>294.30000000000001</ele>
        <time>2025-05-19T08:38:31Z</time>
      </trkpt>
      <trkpt lat="43.937536021694541" lon="7.683081021532416">
        <ele>297.18000000000001</ele>
        <time>2025-05-19T08:38:34Z</time>
      </trkpt>
      <trkpt lat="43.937631994485855" lon="7.683199038729072">
        <ele>298.14999999999998</ele>
        <time>2025-05-19T08:38:35Z</time>
      </trkpt>
      <trkpt lat="43.938281005248427" lon="7.683775965124369">
        <ele>303.91000000000003</ele>
        <time>2025-05-19T08:38:41Z</time>
      </trkpt>
      <trkpt lat="43.939257999882102" lon="7.684589009732008">
        <ele>314.97000000000003</ele>
        <time>2025-05-19T08:38:50Z</time>
      </trkpt>
      <trkpt lat="43.93933997489512" lon="7.684634020552039">
        <ele>316.88999999999999</ele>
        <time>2025-05-19T08:38:51Z</time>
      </trkpt>
      <trkpt lat="43.939434019848704" lon="7.684626979753375">
        <ele>318.32999999999998</ele>
        <time>2025-05-19T08:38:52Z</time>
      </trkpt>
      <trkpt lat="43.939535021781921" lon="7.684620022773743">
        <ele>320.25999999999999</ele>
        <time>2025-05-19T08:38:53Z</time>
      </trkpt>
      <trkpt lat="43.939633006229997" lon="7.684624968096614">
        <ele>321.69999999999999</ele>
        <time>2025-05-19T08:38:54Z</time>
      </trkpt>
      <trkpt lat="43.939739037305117" lon="7.684666039422154">
        <ele>323.13999999999999</ele>
        <time>2025-05-19T08:38:55Z</time>
      </trkpt>
      <trkpt lat="43.939981022849679" lon="7.684810040518642">
        <ele>327.47000000000003</ele>
        <time>2025-05-19T08:38:58Z</time>
      </trkpt>
      <trkpt lat="43.940036008134484" lon="7.684858990833163">
        <ele>328.91000000000003</ele>
        <time>2025-05-19T08:38:59Z</time>
      </trkpt>
      <trkpt lat="43.940087975934148" lon="7.684907019138336">
        <ele>330.35000000000002</ele>
        <time>2025-05-19T08:39:00Z</time>
      </trkpt>
      <trkpt lat="43.94019702449441" lon="7.684924034401774">
        <ele>332.26999999999998</ele>
        <time>2025-05-19T08:39:01Z</time>
      </trkpt>
      <trkpt lat="43.940269025042653" lon="7.684911964461207">
        <ele>333.70999999999998</ele>
        <time>2025-05-19T08:39:02Z</time>
      </trkpt>
      <trkpt lat="43.940339013934135" lon="7.684899978339672">
        <ele>335.16000000000003</ele>
        <time>2025-05-19T08:39:03Z</time>
      </trkpt>
      <trkpt lat="43.940377989783883" lon="7.68489402718842">
        <ele>336.60000000000002</ele>
        <time>2025-05-19T08:39:04Z</time>
      </trkpt>
      <trkpt lat="43.940377989783883" lon="7.68489402718842">
        <ele>338.04000000000002</ele>
        <time>2025-05-19T08:39:05Z</time>
      </trkpt>
      <trkpt lat="43.940587034448981" lon="7.684976002201438">
        <ele>339</ele>
        <time>2025-05-19T08:39:07Z</time>
      </trkpt>
      <trkpt lat="43.940708991140127" lon="7.68502302467823">
        <ele>339.48000000000002</ele>
        <time>2025-05-19T08:39:08Z</time>
      </trkpt>
      <trkpt lat="43.941298993304372" lon="7.685465002432466">
        <ele>341.41000000000003</ele>
        <time>2025-05-19T08:39:14Z</time>
      </trkpt>
      <trkpt lat="43.941475013270974" lon="7.685598023235798">
        <ele>342.37</ele>
        <time>2025-05-19T08:39:16Z</time>
      </trkpt>
      <trkpt lat="43.941643992438912" lon="7.685666000470519">
        <ele>342.85000000000002</ele>
        <time>2025-05-19T08:39:18Z</time>
      </trkpt>
      <trkpt lat="43.941666036844254" lon="7.685688966885209">
        <ele>343.32999999999998</ele>
        <time>2025-05-19T08:39:19Z</time>
      </trkpt>
      <trkpt lat="43.941794028505683" lon="7.68581603653729">
        <ele>344.29000000000002</ele>
        <time>2025-05-19T08:39:21Z</time>
      </trkpt>
      <trkpt lat="43.941868962720037" lon="7.685878984630108">
        <ele>344.76999999999998</ele>
        <time>2025-05-19T08:39:22Z</time>
      </trkpt>
      <trkpt lat="43.941937023773789" lon="7.685871021822095">
        <ele>344.76999999999998</ele>
        <time>2025-05-19T08:39:23Z</time>
      </trkpt>
      <trkpt lat="43.942130981013179" lon="7.685846965759993">
        <ele>346.20999999999998</ele>
        <time>2025-05-19T08:39:25Z</time>
      </trkpt>
      <trkpt lat="43.942238017916679" lon="7.685842020437121">
        <ele>346.69</ele>
        <time>2025-05-19T08:39:26Z</time>
      </trkpt>
      <trkpt lat="43.942359974607825" lon="7.685857024043798">
        <ele>347.64999999999998</ele>
        <time>2025-05-19T08:39:27Z</time>
      </trkpt>
      <trkpt lat="43.942487966269255" lon="7.685874039307237">
        <ele>348.62</ele>
        <time>2025-05-19T08:39:28Z</time>
      </trkpt>
      <trkpt lat="43.942610006779432" lon="7.685888959094882">
        <ele>349.57999999999998</ele>
        <time>2025-05-19T08:39:29Z</time>
      </trkpt>
      <trkpt lat="43.942716959863901" lon="7.68590203486383">
        <ele>350.54000000000002</ele>
        <time>2025-05-19T08:39:30Z</time>
      </trkpt>
      <trkpt lat="43.942817961797118" lon="7.685866998508573">
        <ele>351.5</ele>
        <time>2025-05-19T08:39:31Z</time>
      </trkpt>
      <trkpt lat="43.943090038374066" lon="7.68577697686851">
        <ele>355.82999999999998</ele>
        <time>2025-05-19T08:39:34Z</time>
      </trkpt>
      <trkpt lat="43.943125996738672" lon="7.685790974646807">
        <ele>356.79000000000002</ele>
        <time>2025-05-19T08:39:35Z</time>
      </trkpt>
      <trkpt lat="43.943153992295265" lon="7.685802038758993">
        <ele>357.75</ele>
        <time>2025-05-19T08:39:36Z</time>
      </trkpt>
      <trkpt lat="43.943189028650522" lon="7.685880996286869">
        <ele>358.23000000000002</ele>
        <time>2025-05-19T08:39:38Z</time>
      </trkpt>
      <trkpt lat="43.943133037537336" lon="7.685936987400055">
        <ele>358.23000000000002</ele>
        <time>2025-05-19T08:39:39Z</time>
      </trkpt>
      <trkpt lat="43.943123985081911" lon="7.6859450340271">
        <ele>358.23000000000002</ele>
        <time>2025-05-19T08:39:40Z</time>
      </trkpt>
      <trkpt lat="43.943053996190429" lon="7.685957020148635">
        <ele>358.23000000000002</ele>
        <time>2025-05-19T08:39:41Z</time>
      </trkpt>
      <trkpt lat="43.94297101534903" lon="7.685971017926931">
        <ele>358.23000000000002</ele>
        <time>2025-05-19T08:39:42Z</time>
      </trkpt>
      <trkpt lat="43.942866995930672" lon="7.68598803319037">
        <ele>358.70999999999998</ele>
        <time>2025-05-19T08:39:43Z</time>
      </trkpt>
      <trkpt lat="43.942561978474259" lon="7.686032960191369">
        <ele>361.58999999999997</ele>
        <time>2025-05-19T08:39:46Z</time>
      </trkpt>
      <trkpt lat="43.942484026774764" lon="7.686036983504891">
        <ele>362.55000000000001</ele>
        <time>2025-05-19T08:39:47Z</time>
      </trkpt>
      <trkpt lat="43.942248998209834" lon="7.686049975454807">
        <ele>369.75999999999999</ele>
        <time>2025-05-19T08:39:54Z</time>
      </trkpt>
      <trkpt lat="43.942248998209834" lon="7.686049975454807">
        <ele>370.73000000000002</ele>
        <time>2025-05-19T08:40:28Z</time>
      </trkpt>
      <trkpt lat="43.942235000431538" lon="7.686049975454807">
        <ele>372.17000000000002</ele>
        <time>2025-05-19T08:40:40Z</time>
      </trkpt>
      <trkpt lat="43.942184038460255" lon="7.686061961576343">
        <ele>373.13</ele>
        <time>2025-05-19T08:40:41Z</time>
      </trkpt>
      <trkpt lat="43.942136010155082" lon="7.686090040951967">
        <ele>374.56999999999999</ele>
        <time>2025-05-19T08:40:42Z</time>
      </trkpt>
      <trkpt lat="43.941998966038227" lon="7.686166986823082">
        <ele>376.00999999999999</ele>
        <time>2025-05-19T08:40:44Z</time>
      </trkpt>
      <trkpt lat="43.941922020167112" lon="7.686209985986352">
        <ele>376.97000000000003</ele>
        <time>2025-05-19T08:40:45Z</time>
      </trkpt>
      <trkpt lat="43.941782964393497" lon="7.68628902733326">
        <ele>377.94</ele>
        <time>2025-05-19T08:40:47Z</time>
      </trkpt>
      <trkpt lat="43.941708030179143" lon="7.686331020668149">
        <ele>378.89999999999998</ele>
        <time>2025-05-19T08:40:48Z</time>
      </trkpt>
      <trkpt lat="43.941649021580815" lon="7.686307970434427">
        <ele>379.86000000000001</ele>
        <time>2025-05-19T08:40:49Z</time>
      </trkpt>
      <trkpt lat="43.941580960527062" lon="7.686261031776667">
        <ele>380.33999999999997</ele>
        <time>2025-05-19T08:40:50Z</time>
      </trkpt>
      <trkpt lat="43.941518012434244" lon="7.686174027621746">
        <ele>381.30000000000001</ele>
        <time>2025-05-19T08:40:51Z</time>
      </trkpt>
      <trkpt lat="43.941450035199523" lon="7.686079982668161">
        <ele>381.77999999999997</ele>
        <time>2025-05-19T08:40:52Z</time>
      </trkpt>
      <trkpt lat="43.941387003287673" lon="7.68599197268486">
        <ele>382.74000000000001</ele>
        <time>2025-05-19T08:40:53Z</time>
      </trkpt>
      <trkpt lat="43.941308967769146" lon="7.685901029035449">
        <ele>383.22000000000003</ele>
        <time>2025-05-19T08:40:54Z</time>
      </trkpt>
      <trkpt lat="43.941220035776496" lon="7.685888959094882">
        <ele>383.69999999999999</ele>
        <time>2025-05-19T08:40:55Z</time>
      </trkpt>
      <trkpt lat="43.941125990822911" lon="7.685875967144966">
        <ele>384.66000000000003</ele>
        <time>2025-05-19T08:40:56Z</time>
      </trkpt>
      <trkpt lat="43.941027000546455" lon="7.68586297519505">
        <ele>385.14999999999998</ele>
        <time>2025-05-19T08:40:57Z</time>
      </trkpt>
      <trkpt lat="43.94082197919488" lon="7.68579700961709">
        <ele>387.06999999999999</ele>
        <time>2025-05-19T08:40:59Z</time>
      </trkpt>
      <trkpt lat="43.940631961449981" lon="7.685730960220099">
        <ele>388.50999999999999</ele>
        <time>2025-05-19T08:41:01Z</time>
      </trkpt>
      <trkpt lat="43.940571025013924" lon="7.685708999633789">
        <ele>389.47000000000003</ele>
        <time>2025-05-19T08:41:02Z</time>
      </trkpt>
      <trkpt lat="43.940483015030622" lon="7.685774965211749">
        <ele>390.43000000000001</ele>
        <time>2025-05-19T08:41:03Z</time>
      </trkpt>
      <trkpt lat="43.940399028360844" lon="7.685837997123599">
        <ele>391.38999999999999</ele>
        <time>2025-05-19T08:41:04Z</time>
      </trkpt>
      <trkpt lat="43.94032996147871" lon="7.685928018763661">
        <ele>392.36000000000001</ele>
        <time>2025-05-19T08:41:05Z</time>
      </trkpt>
      <trkpt lat="43.940252009779215" lon="7.686030026525259">
        <ele>392.83999999999997</ele>
        <time>2025-05-19T08:41:06Z</time>
      </trkpt>
      <trkpt lat="43.940174980089068" lon="7.686130022630096">
        <ele>393.80000000000001</ele>
        <time>2025-05-19T08:41:07Z</time>
      </trkpt>
      <trkpt lat="43.940119994804263" lon="7.68620302900672">
        <ele>394.27999999999997</ele>
        <time>2025-05-19T08:41:08Z</time>
      </trkpt>
      <trkpt lat="43.940013963729143" lon="7.686210991814733">
        <ele>395.24000000000001</ele>
        <time>2025-05-19T08:41:09Z</time>
      </trkpt>
      <trkpt lat="43.939931988716125" lon="7.686217026785016">
        <ele>395.72000000000003</ele>
        <time>2025-05-19T08:41:10Z</time>
      </trkpt>
      <trkpt lat="43.939840039238334" lon="7.686223983764648">
        <ele>396.19999999999999</ele>
        <time>2025-05-19T08:41:11Z</time>
      </trkpt>
      <trkpt lat="43.939738031476736" lon="7.686232030391693">
        <ele>397.16000000000003</ele>
        <time>2025-05-19T08:41:12Z</time>
      </trkpt>
      <trkpt lat="43.939628982916474" lon="7.686239993199706">
        <ele>397.63999999999999</ele>
        <time>2025-05-19T08:41:13Z</time>
      </trkpt>
      <trkpt lat="43.939518006518483" lon="7.686239993199706">
        <ele>398.60000000000002</ele>
        <time>2025-05-19T08:41:14Z</time>
      </trkpt>
      <trkpt lat="43.93938397988677" lon="7.686221972107887">
        <ele>399.56999999999999</ele>
        <time>2025-05-19T08:41:15Z</time>
      </trkpt>
      <trkpt lat="43.93912598490715" lon="7.686189031228423">
        <ele>401.49000000000001</ele>
        <time>2025-05-19T08:41:17Z</time>
      </trkpt>
      <trkpt lat="43.939006039872766" lon="7.686131028458476">
        <ele>402.44999999999999</ele>
        <time>2025-05-19T08:41:18Z</time>
      </trkpt>
      <trkpt lat="43.93888802267611" lon="7.686036983504891">
        <ele>402.93000000000001</ele>
        <time>2025-05-19T08:41:19Z</time>
      </trkpt>
      <trkpt lat="43.938389969989657" lon="7.685654014348984">
        <ele>407.25999999999999</ele>
        <time>2025-05-19T08:41:24Z</time>
      </trkpt>
      <trkpt lat="43.938289973884821" lon="7.685617972165346">
        <ele>408.22000000000003</ele>
        <time>2025-05-19T08:41:25Z</time>
      </trkpt>
      <trkpt lat="43.938182014971972" lon="7.685578996315599">
        <ele>408.69999999999999</ele>
        <time>2025-05-19T08:41:26Z</time>
      </trkpt>
      <trkpt lat="43.938065003603697" lon="7.685537002980709">
        <ele>409.18000000000001</ele>
        <time>2025-05-19T08:41:27Z</time>
      </trkpt>
      <trkpt lat="43.937947992235422" lon="7.685494003817439">
        <ele>409.66000000000003</ele>
        <time>2025-05-19T08:41:28Z</time>
      </trkpt>
      <trkpt lat="43.937847996130586" lon="7.685434995219111">
        <ele>410.62</ele>
        <time>2025-05-19T08:41:29Z</time>
      </trkpt>
      <trkpt lat="43.937756968662143" lon="7.685348996892571">
        <ele>411.10000000000002</ele>
        <time>2025-05-19T08:41:30Z</time>
      </trkpt>
      <trkpt lat="43.937672981992364" lon="7.685270039364696">
        <ele>412.54000000000002</ele>
        <time>2025-05-19T08:41:31Z</time>
      </trkpt>
      <trkpt lat="43.937598969787359" lon="7.685199966654182">
        <ele>413.5</ele>
        <time>2025-05-19T08:41:32Z</time>
      </trkpt>
      <trkpt lat="43.937540967017412" lon="7.685145987197757">
        <ele>414.94999999999999</ele>
        <time>2025-05-19T08:41:33Z</time>
      </trkpt>
      <trkpt lat="43.937500985339284" lon="7.685141041874886">
        <ele>416.87</ele>
        <time>2025-05-19T08:41:34Z</time>
      </trkpt>
      <trkpt lat="43.937456980347633" lon="7.685163002461195">
        <ele>418.31</ele>
        <time>2025-05-19T08:41:35Z</time>
      </trkpt>
      <trkpt lat="43.93744801171124" lon="7.685197032988071">
        <ele>419.26999999999998</ele>
        <time>2025-05-19T08:41:36Z</time>
      </trkpt>
      <trkpt lat="43.937469972297549" lon="7.685246989130974">
        <ele>421.19</ele>
        <time>2025-05-19T08:41:37Z</time>
      </trkpt>
      <trkpt lat="43.937501991167665" lon="7.68532301299274">
        <ele>422.63999999999999</ele>
        <time>2025-05-19T08:41:38Z</time>
      </trkpt>
      <trkpt lat="43.937554964795709" lon="7.685364000499249">
        <ele>423.60000000000002</ele>
        <time>2025-05-19T08:41:39Z</time>
      </trkpt>
      <trkpt lat="43.937619002535939" lon="7.685414962470532">
        <ele>424.56</ele>
        <time>2025-05-19T08:41:40Z</time>
      </trkpt>
      <trkpt lat="43.937693014740944" lon="7.685472965240479">
        <ele>425.51999999999998</ele>
        <time>2025-05-19T08:41:41Z</time>
      </trkpt>
      <trkpt lat="43.938127029687166" lon="7.68581603653729">
        <ele>430.32999999999998</ele>
        <time>2025-05-19T08:41:46Z</time>
      </trkpt>
      <trkpt lat="43.938225014135242" lon="7.685892982408404">
        <ele>431.29000000000002</ele>
        <time>2025-05-19T08:41:47Z</time>
      </trkpt>
      <trkpt lat="43.938432969152927" lon="7.68609800375998">
        <ele>433.69</ele>
        <time>2025-05-19T08:41:49Z</time>
      </trkpt>
      <trkpt lat="43.938533971086144" lon="7.686214009299874">
        <ele>434.64999999999998</ele>
        <time>2025-05-19T08:41:50Z</time>
      </trkpt>
      <trkpt lat="43.938981983810663" lon="7.686706027016044">
        <ele>439.94</ele>
        <time>2025-05-19T08:41:55Z</time>
      </trkpt>
      <trkpt lat="43.939079968258739" lon="7.686788002029061">
        <ele>441.38</ele>
        <time>2025-05-19T08:41:56Z</time>
      </trkpt>
      <trkpt lat="43.93929798156023" lon="7.686910964548588">
        <ele>444.26999999999998</ele>
        <time>2025-05-19T08:41:58Z</time>
      </trkpt>
      <trkpt lat="43.939537033438683" lon="7.686982965096831">
        <ele>446.67000000000002</ele>
        <time>2025-05-19T08:42:00Z</time>
      </trkpt>
      <trkpt lat="43.939735013991594" lon="7.687009032815695">
        <ele>448.58999999999997</ele>
        <time>2025-05-19T08:42:02Z</time>
      </trkpt>
      <trkpt lat="43.939816989004612" lon="7.687030993402004">
        <ele>450.02999999999997</ele>
        <time>2025-05-19T08:42:03Z</time>
      </trkpt>
      <trkpt lat="43.939909022301435" lon="7.687095031142235">
        <ele>451.48000000000002</ele>
        <time>2025-05-19T08:42:04Z</time>
      </trkpt>
      <trkpt lat="43.940009018406272" lon="7.687164014205337">
        <ele>452.44</ele>
        <time>2025-05-19T08:42:05Z</time>
      </trkpt>
      <trkpt lat="43.940127035602927" lon="7.687215982005">
        <ele>453.88</ele>
        <time>2025-05-19T08:42:06Z</time>
      </trkpt>
      <trkpt lat="43.940233988687396" lon="7.687227968126535">
        <ele>455.31999999999999</ele>
        <time>2025-05-19T08:42:07Z</time>
      </trkpt>
      <trkpt lat="43.940355023369193" lon="7.687223022803664">
        <ele>456.75999999999999</ele>
        <time>2025-05-19T08:42:08Z</time>
      </trkpt>
      <trkpt lat="43.940487038344145" lon="7.68719301559031">
        <ele>458.20999999999998</ele>
        <time>2025-05-19T08:42:09Z</time>
      </trkpt>
      <trkpt lat="43.940587034448981" lon="7.687119003385305">
        <ele>459.64999999999998</ele>
        <time>2025-05-19T08:42:10Z</time>
      </trkpt>
      <trkpt lat="43.940677978098392" lon="7.687050020322204">
        <ele>460.61000000000001</ele>
        <time>2025-05-19T08:42:11Z</time>
      </trkpt>
      <trkpt lat="43.940744027495384" lon="7.687014983966947">
        <ele>461.56999999999999</ele>
        <time>2025-05-19T08:42:12Z</time>
      </trkpt>
      <trkpt lat="43.940804963931441" lon="7.687006015330553">
        <ele>462.52999999999997</ele>
        <time>2025-05-19T08:42:13Z</time>
      </trkpt>
      <trkpt lat="43.940871013328433" lon="7.686996962875128">
        <ele>463.49000000000001</ele>
        <time>2025-05-19T08:42:14Z</time>
      </trkpt>
      <trkpt lat="43.940903032198548" lon="7.68702001310885">
        <ele>463.97000000000003</ele>
        <time>2025-05-19T08:42:15Z</time>
      </trkpt>
      <trkpt lat="43.940975032746792" lon="7.687073992565274">
        <ele>464.44999999999999</ele>
        <time>2025-05-19T08:42:16Z</time>
      </trkpt>
      <trkpt lat="43.941046027466655" lon="7.687127972021699">
        <ele>465.42000000000002</ele>
        <time>2025-05-19T08:42:17Z</time>
      </trkpt>
      <trkpt lat="43.94110101275146" lon="7.687168959528208">
        <ele>465.89999999999998</ele>
        <time>2025-05-19T08:42:18Z</time>
      </trkpt>
      <trkpt lat="43.941140994429588" lon="7.687198966741562">
        <ele>466.38</ele>
        <time>2025-05-19T08:42:19Z</time>
      </trkpt>
      <trkpt lat="43.941174019128084" lon="7.687224028632045">
        <ele>467.33999999999997</ele>
        <time>2025-05-19T08:42:20Z</time>
      </trkpt>
      <trkpt lat="43.941206960007548" lon="7.687248000875115">
        <ele>467.81999999999999</ele>
        <time>2025-05-19T08:42:21Z</time>
      </trkpt>
      <trkpt lat="43.941264040768147" lon="7.687291000038385">
        <ele>468.77999999999997</ele>
        <time>2025-05-19T08:42:22Z</time>
      </trkpt>
      <trkpt lat="43.941332018002868" lon="7.687341962009668">
        <ele>469.25999999999999</ele>
        <time>2025-05-19T08:42:23Z</time>
      </trkpt>
      <trkpt lat="43.941385997459292" lon="7.687383033335209">
        <ele>470.22000000000003</ele>
        <time>2025-05-19T08:42:24Z</time>
      </trkpt>
      <trkpt lat="43.941441988572478" lon="7.687424020841718">
        <ele>470.69999999999999</ele>
        <time>2025-05-19T08:42:25Z</time>
      </trkpt>
      <trkpt lat="43.941557994112372" lon="7.687512030825019">
        <ele>471.18000000000001</ele>
        <time>2025-05-19T08:42:26Z</time>
      </trkpt>
      <trkpt lat="43.941603004932404" lon="7.687563998624682">
        <ele>471.66000000000003</ele>
        <time>2025-05-19T08:42:27Z</time>
      </trkpt>
      <trkpt lat="43.941672993823886" lon="7.68764496780932">
        <ele>472.63</ele>
        <time>2025-05-19T08:42:28Z</time>
      </trkpt>
      <trkpt lat="43.941734014078975" lon="7.687716968357563">
        <ele>473.11000000000001</ele>
        <time>2025-05-19T08:42:29Z</time>
      </trkpt>
      <trkpt lat="43.941825963556767" lon="7.687810007482767">
        <ele>473.58999999999997</ele>
        <time>2025-05-19T08:42:30Z</time>
      </trkpt>
      <trkpt lat="43.941956972703338" lon="7.687780000269413">
        <ele>474.55000000000001</ele>
        <time>2025-05-19T08:42:31Z</time>
      </trkpt>
      <trkpt lat="43.942044982686639" lon="7.687710011377931">
        <ele>475.02999999999997</ele>
        <time>2025-05-19T08:42:32Z</time>
      </trkpt>
      <trkpt lat="43.942127041518688" lon="7.687643961980939">
        <ele>475.99000000000001</ele>
        <time>2025-05-19T08:42:33Z</time>
      </trkpt>
      <trkpt lat="43.942326027899981" lon="7.687485041096807">
        <ele>476.94999999999999</ele>
        <time>2025-05-19T08:42:36Z</time>
      </trkpt>
      <trkpt lat="43.942372966557741" lon="7.687446987256408">
        <ele>477.43000000000001</ele>
        <time>2025-05-19T08:42:37Z</time>
      </trkpt>
      <trkpt lat="43.942387970164418" lon="7.687457967549563">
        <ele>477.91000000000003</ele>
        <time>2025-05-19T08:42:38Z</time>
      </trkpt>
      <trkpt lat="43.942523002624512" lon="7.68755704164505">
        <ele>478.87</ele>
        <time>2025-05-19T08:42:40Z</time>
      </trkpt>
      <trkpt lat="43.942597014829516" lon="7.687612026929855">
        <ele>479.35000000000002</ele>
        <time>2025-05-19T08:42:41Z</time>
      </trkpt>
      <trkpt lat="43.942668009549379" lon="7.687663994729519">
        <ele>479.35000000000002</ele>
        <time>2025-05-19T08:42:42Z</time>
      </trkpt>
      <trkpt lat="43.942780997604132" lon="7.687747981399298">
        <ele>479.35000000000002</ele>
        <time>2025-05-19T08:42:43Z</time>
      </trkpt>
      <trkpt lat="43.942852998152375" lon="7.687747981399298">
        <ele>479.35000000000002</ele>
        <time>2025-05-19T08:42:44Z</time>
      </trkpt>
      <trkpt lat="43.942959029227495" lon="7.687747981399298">
        <ele>479.35000000000002</ele>
        <time>2025-05-19T08:42:45Z</time>
      </trkpt>
      <trkpt lat="43.943077968433499" lon="7.687747981399298">
        <ele>479.35000000000002</ele>
        <time>2025-05-19T08:42:46Z</time>
      </trkpt>
      <trkpt lat="43.943197997286916" lon="7.687747981399298">
        <ele>479.35000000000002</ele>
        <time>2025-05-19T08:42:47Z</time>
      </trkpt>
      <trkpt lat="43.943307967856526" lon="7.687777988612652">
        <ele>478.87</ele>
        <time>2025-05-19T08:42:48Z</time>
      </trkpt>
      <trkpt lat="43.943391032516956" lon="7.687811013311148">
        <ele>478.38999999999999</ele>
        <time>2025-05-19T08:42:49Z</time>
      </trkpt>
      <trkpt lat="43.943467978388071" lon="7.687873961403966">
        <ele>477.91000000000003</ele>
        <time>2025-05-19T08:42:50Z</time>
      </trkpt>
      <trkpt lat="43.943511983379722" lon="7.687954008579254">
        <ele>477.43000000000001</ele>
        <time>2025-05-19T08:42:51Z</time>
      </trkpt>
      <trkpt lat="43.943556994199753" lon="7.688035983592272">
        <ele>476.94999999999999</ele>
        <time>2025-05-19T08:42:52Z</time>
      </trkpt>
      <trkpt lat="43.943633018061519" lon="7.688084011897445">
        <ele>476.47000000000003</ele>
        <time>2025-05-19T08:42:53Z</time>
      </trkpt>
      <trkpt lat="43.943713987246156" lon="7.688068002462387">
        <ele>475.99000000000001</ele>
        <time>2025-05-19T08:42:54Z</time>
      </trkpt>
      <trkpt lat="43.943819012492895" lon="7.688023997470737">
        <ele>475.99000000000001</ele>
        <time>2025-05-19T08:42:55Z</time>
      </trkpt>
      <trkpt lat="43.943942980840802" lon="7.687971023842692">
        <ele>475.99000000000001</ele>
        <time>2025-05-19T08:42:56Z</time>
      </trkpt>
      <trkpt lat="43.944369032979012" lon="7.687789974734187">
        <ele>477.43000000000001</ele>
        <time>2025-05-19T08:42:59Z</time>
      </trkpt>
      <trkpt lat="43.944502975791693" lon="7.68773197196424">
        <ele>477.91000000000003</ele>
        <time>2025-05-19T08:43:00Z</time>
      </trkpt>
      <trkpt lat="43.944619987159967" lon="7.687683021649718">
        <ele>478.87</ele>
        <time>2025-05-19T08:43:01Z</time>
      </trkpt>
      <trkpt lat="43.944744039326906" lon="7.687661983072758">
        <ele>479.35000000000002</ele>
        <time>2025-05-19T08:43:02Z</time>
      </trkpt>
      <trkpt lat="43.94485903903842" lon="7.687661983072758">
        <ele>480.31999999999999</ele>
        <time>2025-05-19T08:43:03Z</time>
      </trkpt>
      <trkpt lat="43.944984013214707" lon="7.687683021649718">
        <ele>481.27999999999997</ele>
        <time>2025-05-19T08:43:04Z</time>
      </trkpt>
      <trkpt lat="43.945113010704517" lon="7.687716968357563">
        <ele>481.75999999999999</ele>
        <time>2025-05-19T08:43:05Z</time>
      </trkpt>
      <trkpt lat="43.94524703733623" lon="7.687753010541201">
        <ele>482.72000000000003</ele>
        <time>2025-05-19T08:43:06Z</time>
      </trkpt>
      <trkpt lat="43.94569898955524" lon="7.687918972223997">
        <ele>487.05000000000001</ele>
        <time>2025-05-19T08:43:11Z</time>
      </trkpt>
      <trkpt lat="43.94576302729547" lon="7.688022991642356">
        <ele>487.52999999999997</ele>
        <time>2025-05-19T08:43:12Z</time>
      </trkpt>
      <trkpt lat="43.945808038115501" lon="7.688097003847361">
        <ele>488.00999999999999</ele>
        <time>2025-05-19T08:43:13Z</time>
      </trkpt>
      <trkpt lat="43.945854976773262" lon="7.688173027709127">
        <ele>488.97000000000003</ele>
        <time>2025-05-19T08:43:14Z</time>
      </trkpt>
      <trkpt lat="43.945954972878098" lon="7.6882020290941">
        <ele>489.93000000000001</ele>
        <time>2025-05-19T08:43:15Z</time>
      </trkpt>
      <trkpt lat="43.946007024496794" lon="7.688204040750861">
        <ele>490.41000000000003</ele>
        <time>2025-05-19T08:43:16Z</time>
      </trkpt>
      <trkpt lat="43.946083970367908" lon="7.688207980245352">
        <ele>491.37</ele>
        <time>2025-05-19T08:43:17Z</time>
      </trkpt>
      <trkpt lat="43.946185978129506" lon="7.688212003558874">
        <ele>492.32999999999998</ele>
        <time>2025-05-19T08:43:18Z</time>
      </trkpt>
      <trkpt lat="43.946288991719484" lon="7.688217032700777">
        <ele>493.29000000000002</ele>
        <time>2025-05-19T08:43:19Z</time>
      </trkpt>
      <trkpt lat="43.946342971175909" lon="7.688219966366887">
        <ele>493.76999999999998</ele>
        <time>2025-05-19T08:43:20Z</time>
      </trkpt>
      <trkpt lat="43.946460988372564" lon="7.688336977735162">
        <ele>494.74000000000001</ele>
        <time>2025-05-19T08:43:21Z</time>
      </trkpt>
      <trkpt lat="43.94653600640595" lon="7.688413001596928">
        <ele>495.22000000000003</ele>
        <time>2025-05-19T08:43:22Z</time>
      </trkpt>
      <trkpt lat="43.946608006954193" lon="7.688483996316791">
        <ele>495.69999999999999</ele>
        <time>2025-05-19T08:43:23Z</time>
      </trkpt>
      <trkpt lat="43.946683024987578" lon="7.68854602240026">
        <ele>496.18000000000001</ele>
        <time>2025-05-19T08:43:24Z</time>
      </trkpt>
      <trkpt lat="43.946761982515454" lon="7.688598996028304">
        <ele>496.66000000000003</ele>
        <time>2025-05-19T08:43:25Z</time>
      </trkpt>
      <trkpt lat="43.946844041347504" lon="7.688653981313109">
        <ele>497.62</ele>
        <time>2025-05-19T08:43:26Z</time>
      </trkpt>
      <trkpt lat="43.946984019130468" lon="7.688696980476379">
        <ele>498.57999999999998</ele>
        <time>2025-05-19T08:43:28Z</time>
      </trkpt>
      <trkpt lat="43.947057025507092" lon="7.688701003789902">
        <ele>499.06</ele>
        <time>2025-05-19T08:43:29Z</time>
      </trkpt>
      <trkpt lat="43.947234973311424" lon="7.688711984083056">
        <ele>500.5</ele>
        <time>2025-05-19T08:43:32Z</time>
      </trkpt>
      <trkpt lat="43.94724402576685" lon="7.688712989911437">
        <ele>501.45999999999998</ele>
        <time>2025-05-19T08:43:33Z</time>
      </trkpt>
      <trkpt lat="43.94724402576685" lon="7.688712989911437">
        <ele>501.94999999999999</ele>
        <time>2025-05-19T08:43:34Z</time>
      </trkpt>
      <trkpt lat="43.947265986353159" lon="7.688841987401247">
        <ele>502.91000000000003</ele>
        <time>2025-05-19T08:43:35Z</time>
      </trkpt>
      <trkpt lat="43.947265986353159" lon="7.688841987401247">
        <ele>503.38999999999999</ele>
        <time>2025-05-19T08:43:36Z</time>
      </trkpt>
      <trkpt lat="43.947265986353159" lon="7.688841987401247">
        <ele>504.35000000000002</ele>
        <time>2025-05-19T08:43:37Z</time>
      </trkpt>
      <trkpt lat="43.947258023545146" lon="7.68884701654315">
        <ele>505.79000000000002</ele>
        <time>2025-05-19T08:43:38Z</time>
      </trkpt>
      <trkpt lat="43.94720102660358" lon="7.688884986564517">
        <ele>506.75</ele>
        <time>2025-05-19T08:43:39Z</time>
      </trkpt>
      <trkpt lat="43.947058031335473" lon="7.688877023756504">
        <ele>507.23000000000002</ele>
        <time>2025-05-19T08:43:40Z</time>
      </trkpt>
      <trkpt lat="43.946907995268703" lon="7.688868977129459">
        <ele>507.70999999999998</ele>
        <time>2025-05-19T08:43:41Z</time>
      </trkpt>
      <trkpt lat="43.946777991950512" lon="7.688843999058008">
        <ele>507.70999999999998</ele>
        <time>2025-05-19T08:43:42Z</time>
      </trkpt>
      <trkpt lat="43.946486972272396" lon="7.688689017668366">
        <ele>511.07999999999998</ele>
        <time>2025-05-19T08:43:45Z</time>
      </trkpt>
      <trkpt lat="43.946323022246361" lon="7.688601007685065">
        <ele>513</ele>
        <time>2025-05-19T08:43:47Z</time>
      </trkpt>
      <trkpt lat="43.946266025304794" lon="7.688569994643331">
        <ele>513.96000000000004</ele>
        <time>2025-05-19T08:43:48Z</time>
      </trkpt>
      <trkpt lat="43.9461500197649" lon="7.688583992421627">
        <ele>514.91999999999996</ele>
        <time>2025-05-19T08:43:49Z</time>
      </trkpt>
      <trkpt lat="43.946170974522829" lon="7.688669990748167">
        <ele>515.88</ele>
        <time>2025-05-19T08:43:50Z</time>
      </trkpt>
      <trkpt lat="43.946170974522829" lon="7.688669990748167">
        <ele>517.33000000000004</ele>
        <time>2025-05-19T08:43:51Z</time>
      </trkpt>
      <trkpt lat="43.946273988112807" lon="7.688707960769534">
        <ele>517.80999999999995</ele>
        <time>2025-05-19T08:43:52Z</time>
      </trkpt>
      <trkpt lat="43.946320004761219" lon="7.688723970204592">
        <ele>518.28999999999996</ele>
        <time>2025-05-19T08:43:53Z</time>
      </trkpt>
      <trkpt lat="43.946421006694436" lon="7.688771998509765">
        <ele>519.25</ele>
        <time>2025-05-19T08:43:54Z</time>
      </trkpt>
      <trkpt lat="43.946474986150861" lon="7.688838969916105">
        <ele>519.73000000000002</ele>
        <time>2025-05-19T08:43:55Z</time>
      </trkpt>
      <trkpt lat="43.946544975042343" lon="7.688923962414265">
        <ele>520.21000000000004</ele>
        <time>2025-05-19T08:43:56Z</time>
      </trkpt>
      <trkpt lat="43.946627033874393" lon="7.689010966569185">
        <ele>521.16999999999996</ele>
        <time>2025-05-19T08:43:57Z</time>
      </trkpt>
      <trkpt lat="43.946742033585906" lon="7.689093025401235">
        <ele>521.64999999999998</ele>
        <time>2025-05-19T08:43:58Z</time>
      </trkpt>
      <trkpt lat="43.946847980841994" lon="7.689143987372518">
        <ele>522.13</ele>
        <time>2025-05-19T08:43:59Z</time>
      </trkpt>
      <trkpt lat="43.946963986381888" lon="7.689196038991213">
        <ele>523.09000000000003</ele>
        <time>2025-05-19T08:44:00Z</time>
      </trkpt>
      <trkpt lat="43.947070017457008" lon="7.689222022891045">
        <ele>524.05999999999995</ele>
        <time>2025-05-19T08:44:01Z</time>
      </trkpt>
      <trkpt lat="43.947180993855" lon="7.689242977648974">
        <ele>525.01999999999998</ele>
        <time>2025-05-19T08:44:02Z</time>
      </trkpt>
      <trkpt lat="43.947638981044292" lon="7.689300980418921">
        <ele>529.34000000000003</ele>
        <time>2025-05-19T08:44:06Z</time>
      </trkpt>
      <trkpt lat="43.947748029604554" lon="7.689282037317753">
        <ele>530.78999999999996</ele>
        <time>2025-05-19T08:44:07Z</time>
      </trkpt>
      <trkpt lat="43.947854982689023" lon="7.689264016225934">
        <ele>531.75</ele>
        <time>2025-05-19T08:44:08Z</time>
      </trkpt>
      <trkpt lat="43.948106020689011" lon="7.689222022891045">
        <ele>537.02999999999997</ele>
        <time>2025-05-19T08:44:11Z</time>
      </trkpt>
      <trkpt lat="43.948155976831913" lon="7.689215987920761">
        <ele>537.99000000000001</ele>
        <time>2025-05-19T08:44:12Z</time>
      </trkpt>
      <trkpt lat="43.948196964338422" lon="7.689210958778858">
        <ele>539.44000000000005</ele>
        <time>2025-05-19T08:44:13Z</time>
      </trkpt>
      <trkpt lat="43.948230994865298" lon="7.689211964607239">
        <ele>540.39999999999998</ele>
        <time>2025-05-19T08:44:14Z</time>
      </trkpt>
      <trkpt lat="43.948230994865298" lon="7.689245995134115">
        <ele>541.36000000000001</ele>
        <time>2025-05-19T08:44:15Z</time>
      </trkpt>
      <trkpt lat="43.948230994865298" lon="7.689276002347469">
        <ele>542.32000000000005</ele>
        <time>2025-05-19T08:44:16Z</time>
      </trkpt>
      <trkpt lat="43.948195958510041" lon="7.689323024824262">
        <ele>543.75999999999999</ele>
        <time>2025-05-19T08:44:17Z</time>
      </trkpt>
      <trkpt lat="43.948125969618559" lon="7.689341967925429">
        <ele>544.72000000000003</ele>
        <time>2025-05-19T08:44:18Z</time>
      </trkpt>
      <trkpt lat="43.948022034019232" lon="7.689370969310403">
        <ele>545.69000000000005</ele>
        <time>2025-05-19T08:44:19Z</time>
      </trkpt>
      <trkpt lat="43.947895970195532" lon="7.689420003443956">
        <ele>547.13</ele>
        <time>2025-05-19T08:44:20Z</time>
      </trkpt>
      <trkpt lat="43.947762027382851" lon="7.689475994557142">
        <ele>548.09000000000003</ele>
        <time>2025-05-19T08:44:21Z</time>
      </trkpt>
      <trkpt lat="43.947637975215912" lon="7.689528968185186">
        <ele>549.52999999999997</ele>
        <time>2025-05-19T08:44:22Z</time>
      </trkpt>
      <trkpt lat="43.947494979947805" lon="7.68955503590405">
        <ele>550.97000000000003</ele>
        <time>2025-05-19T08:44:23Z</time>
      </trkpt>
      <trkpt lat="43.947140006348491" lon="7.689584037289023">
        <ele>554.82000000000005</ele>
        <time>2025-05-19T08:44:26Z</time>
      </trkpt>
      <trkpt lat="43.947044033557177" lon="7.689616978168488">
        <ele>555.77999999999997</ele>
        <time>2025-05-19T08:44:27Z</time>
      </trkpt>
      <trkpt lat="43.946957029402256" lon="7.689645979553461">
        <ele>556.74000000000001</ele>
        <time>2025-05-19T08:44:28Z</time>
      </trkpt>
      <trkpt lat="43.946843035519123" lon="7.689673975110054">
        <ele>557.70000000000005</ele>
        <time>2025-05-19T08:44:29Z</time>
      </trkpt>
      <trkpt lat="43.946741027757525" lon="7.689640028402209">
        <ele>558.65999999999997</ele>
        <time>2025-05-19T08:44:30Z</time>
      </trkpt>
      <trkpt lat="43.946636002510786" lon="7.689604992046952">
        <ele>559.13999999999999</ele>
        <time>2025-05-19T08:44:31Z</time>
      </trkpt>
      <trkpt lat="43.946527959778905" lon="7.689569033682346">
        <ele>560.59000000000003</ele>
        <time>2025-05-19T08:44:32Z</time>
      </trkpt>
      <trkpt lat="43.946331990882754" lon="7.689502984285355">
        <ele>562.99000000000001</ele>
        <time>2025-05-19T08:44:34Z</time>
      </trkpt>
      <trkpt lat="43.946251021698117" lon="7.689477000385523">
        <ele>563.95000000000005</ele>
        <time>2025-05-19T08:44:35Z</time>
      </trkpt>
      <trkpt lat="43.946191007271409" lon="7.689485969021916">
        <ele>565.38999999999999</ele>
        <time>2025-05-19T08:44:36Z</time>
      </trkpt>
      <trkpt lat="43.946137027814984" lon="7.68953500315547">
        <ele>566.35000000000002</ele>
        <time>2025-05-19T08:44:37Z</time>
      </trkpt>
      <trkpt lat="43.946083970367908" lon="7.689584037289023">
        <ele>567.79999999999995</ele>
        <time>2025-05-19T08:44:38Z</time>
      </trkpt>
      <trkpt lat="43.946030996739864" lon="7.689633993431926">
        <ele>568.75999999999999</ele>
        <time>2025-05-19T08:44:39Z</time>
      </trkpt>
      <trkpt lat="43.945980034768581" lon="7.689680010080338">
        <ele>569.72000000000003</ele>
        <time>2025-05-19T08:44:40Z</time>
      </trkpt>
      <trkpt lat="43.94593502394855" lon="7.689722003415227">
        <ele>570.67999999999995</ele>
        <time>2025-05-19T08:44:41Z</time>
      </trkpt>
      <trkpt lat="43.945847013965249" lon="7.689632987603545">
        <ele>571.63999999999999</ele>
        <time>2025-05-19T08:44:42Z</time>
      </trkpt>
      <trkpt lat="43.945778030902147" lon="7.689564004540443">
        <ele>572.60000000000002</ele>
        <time>2025-05-19T08:44:43Z</time>
      </trkpt>
      <trkpt lat="43.945678034797311" lon="7.689507007598877">
        <ele>573.55999999999995</ele>
        <time>2025-05-19T08:44:44Z</time>
      </trkpt>
      <trkpt lat="43.945549037307501" lon="7.689464008435607">
        <ele>574.03999999999996</ele>
        <time>2025-05-19T08:44:45Z</time>
      </trkpt>
      <trkpt lat="43.945453986525536" lon="7.689502984285355">
        <ele>575.00999999999999</ele>
        <time>2025-05-19T08:44:46Z</time>
      </trkpt>
      <trkpt lat="43.945347033441067" lon="7.689545983448625">
        <ele>575.49000000000001</ele>
        <time>2025-05-19T08:44:47Z</time>
      </trkpt>
      <trkpt lat="43.944417983293533" lon="7.689779000356793">
        <ele>584.13999999999999</ele>
        <time>2025-05-19T08:44:55Z</time>
      </trkpt>
      <trkpt lat="43.944329973310232" lon="7.68981596454978">
        <ele>585.58000000000004</ele>
        <time>2025-05-19T08:44:56Z</time>
      </trkpt>
      <trkpt lat="43.944161999970675" lon="7.689946973696351">
        <ele>587.98000000000002</ele>
        <time>2025-05-19T08:44:58Z</time>
      </trkpt>
      <trkpt lat="43.944071978330612" lon="7.690016962587833">
        <ele>588.95000000000005</ele>
        <time>2025-05-19T08:44:59Z</time>
      </trkpt>
      <trkpt lat="43.943876009434462" lon="7.690169010311365">
        <ele>591.35000000000002</ele>
        <time>2025-05-19T08:45:01Z</time>
      </trkpt>
      <trkpt lat="43.943748017773032" lon="7.690238999202848">
        <ele>592.30999999999995</ele>
        <time>2025-05-19T08:45:02Z</time>
      </trkpt>
      <trkpt lat="43.943622959777713" lon="7.690246040001512">
        <ele>593.75</ele>
        <time>2025-05-19T08:45:03Z</time>
      </trkpt>
      <trkpt lat="43.943060031160712" lon="7.690279986709356">
        <ele>601.91999999999996</ele>
        <time>2025-05-19T08:45:08Z</time>
      </trkpt>
      <trkpt lat="43.942917035892606" lon="7.690327009186149">
        <ele>603.36000000000001</ele>
        <time>2025-05-19T08:45:09Z</time>
      </trkpt>
      <trkpt lat="43.942793989554048" lon="7.690367996692658">
        <ele>605.28999999999996</ele>
        <time>2025-05-19T08:45:10Z</time>
      </trkpt>
      <trkpt lat="43.941906010732055" lon="7.690770998597145">
        <ele>616.82000000000005</ele>
        <time>2025-05-19T08:45:18Z</time>
      </trkpt>
      <trkpt lat="43.941749017685652" lon="7.690839981660247">
        <ele>618.75</ele>
        <time>2025-05-19T08:45:20Z</time>
      </trkpt>
      <trkpt lat="43.941708030179143" lon="7.690859008580446">
        <ele>619.71000000000004</ele>
        <time>2025-05-19T08:45:21Z</time>
      </trkpt>
      <trkpt lat="43.941664025187492" lon="7.690946012735367">
        <ele>620.19000000000005</ele>
        <time>2025-05-19T08:45:22Z</time>
      </trkpt>
      <trkpt lat="43.941621026024222" lon="7.691032011061907">
        <ele>621.14999999999998</ele>
        <time>2025-05-19T08:45:23Z</time>
      </trkpt>
      <trkpt lat="43.941607028245926" lon="7.691112980246544">
        <ele>621.63</ele>
        <time>2025-05-19T08:45:24Z</time>
      </trkpt>
      <trkpt lat="43.941626977175474" lon="7.69123300909996">
        <ele>622.59000000000003</ele>
        <time>2025-05-19T08:45:25Z</time>
      </trkpt>
      <trkpt lat="43.941650027409196" lon="7.691369969397783">
        <ele>623.07000000000005</ele>
        <time>2025-05-19T08:45:26Z</time>
      </trkpt>
      <trkpt lat="43.941751029342413" lon="7.691989978775382">
        <ele>624.99000000000001</ele>
        <time>2025-05-19T08:45:30Z</time>
      </trkpt>
      <trkpt lat="43.941751029342413" lon="7.692273035645485">
        <ele>625.96000000000004</ele>
        <time>2025-05-19T08:45:32Z</time>
      </trkpt>
      <trkpt lat="43.941751029342413" lon="7.692517032846808">
        <ele>626.91999999999996</ele>
        <time>2025-05-19T08:45:34Z</time>
      </trkpt>
      <trkpt lat="43.941751029342413" lon="7.692617028951645">
        <ele>627.39999999999998</ele>
        <time>2025-05-19T08:45:35Z</time>
      </trkpt>
      <trkpt lat="43.941783970221877" lon="7.692705038934946">
        <ele>627.88</ele>
        <time>2025-05-19T08:45:36Z</time>
      </trkpt>
      <trkpt lat="43.941841972991824" lon="7.692781984806061">
        <ele>628.36000000000001</ele>
        <time>2025-05-19T08:45:37Z</time>
      </trkpt>
      <trkpt lat="43.941909028217196" lon="7.692872006446123">
        <ele>628.84000000000003</ele>
        <time>2025-05-19T08:45:38Z</time>
      </trkpt>
      <trkpt lat="43.94198396243155" lon="7.692970996722579">
        <ele>628.84000000000003</ele>
        <time>2025-05-19T08:45:39Z</time>
      </trkpt>
      <trkpt lat="43.942385958507657" lon="7.693750010803342">
        <ele>631.72000000000003</ele>
        <time>2025-05-19T08:45:45Z</time>
      </trkpt>
      <trkpt lat="43.942459970712662" lon="7.693843971937895">
        <ele>632.67999999999995</ele>
        <time>2025-05-19T08:45:46Z</time>
      </trkpt>
      <trkpt lat="43.942610006779432" lon="7.694033989682794">
        <ele>634.13</ele>
        <time>2025-05-19T08:45:48Z</time>
      </trkpt>
      <trkpt lat="43.942694999277592" lon="7.694142032414675">
        <ele>635.09000000000003</ele>
        <time>2025-05-19T08:45:49Z</time>
      </trkpt>
      <trkpt lat="43.942714026197791" lon="7.694244962185621">
        <ele>636.04999999999995</ele>
        <time>2025-05-19T08:45:50Z</time>
      </trkpt>
      <trkpt lat="43.942765993997455" lon="7.694529024884105">
        <ele>637.97000000000003</ele>
        <time>2025-05-19T08:45:52Z</time>
      </trkpt>
      <trkpt lat="43.942814022302628" lon="7.694787019863725">
        <ele>639.88999999999999</ele>
        <time>2025-05-19T08:45:54Z</time>
      </trkpt>
      <trkpt lat="43.942832965403795" lon="7.694892967119813">
        <ele>640.86000000000001</ele>
        <time>2025-05-19T08:45:55Z</time>
      </trkpt>
      <trkpt lat="43.942876970395446" lon="7.695003021508455">
        <ele>641.34000000000003</ele>
        <time>2025-05-19T08:45:56Z</time>
      </trkpt>
      <trkpt lat="43.943234039470553" lon="7.695565028116107">
        <ele>644.22000000000003</ele>
        <time>2025-05-19T08:46:01Z</time>
      </trkpt>
      <trkpt lat="43.943281983956695" lon="7.695702994242311">
        <ele>644.70000000000005</ele>
        <time>2025-05-19T08:46:02Z</time>
      </trkpt>
      <trkpt lat="43.943369993939996" lon="7.695955038070679">
        <ele>646.62</ele>
        <time>2025-05-19T08:46:04Z</time>
      </trkpt>
      <trkpt lat="43.943406958132982" lon="7.696057967841625">
        <ele>647.10000000000002</ele>
        <time>2025-05-19T08:46:05Z</time>
      </trkpt>
      <trkpt lat="43.943450041115284" lon="7.696128962561488">
        <ele>648.07000000000005</ele>
        <time>2025-05-19T08:46:06Z</time>
      </trkpt>
      <trkpt lat="43.943541990593076" lon="7.696156958118081">
        <ele>648.54999999999995</ele>
        <time>2025-05-19T08:46:07Z</time>
      </trkpt>
      <trkpt lat="43.9436149969697" lon="7.696154024451971">
        <ele>649.02999999999997</ele>
        <time>2025-05-19T08:46:08Z</time>
      </trkpt>
      <trkpt lat="43.943708958104253" lon="7.696151006966829">
        <ele>649.50999999999999</ele>
        <time>2025-05-19T08:46:09Z</time>
      </trkpt>
      <trkpt lat="43.943820018321276" lon="7.696146983653307">
        <ele>649.50999999999999</ele>
        <time>2025-05-19T08:46:10Z</time>
      </trkpt>
      <trkpt lat="43.944055968895555" lon="7.696139020845294">
        <ele>650.47000000000003</ele>
        <time>2025-05-19T08:46:12Z</time>
      </trkpt>
      <trkpt lat="43.944180021062493" lon="7.696096021682024">
        <ele>650.95000000000005</ele>
        <time>2025-05-19T08:46:13Z</time>
      </trkpt>
      <trkpt lat="43.944369032979012" lon="7.696009017527103">
        <ele>650.95000000000005</ele>
        <time>2025-05-19T08:46:15Z</time>
      </trkpt>
      <trkpt lat="43.944447990506887" lon="7.696009017527103">
        <ele>651.42999999999995</ele>
        <time>2025-05-19T08:46:16Z</time>
      </trkpt>
      <trkpt lat="43.944524014368653" lon="7.696012035012245">
        <ele>651.90999999999997</ele>
        <time>2025-05-19T08:46:17Z</time>
      </trkpt>
      <trkpt lat="43.944596014916897" lon="7.696059979498386">
        <ele>651.90999999999997</ele>
        <time>2025-05-19T08:46:18Z</time>
      </trkpt>
      <trkpt lat="43.944662986323237" lon="7.696133991703391">
        <ele>652.38999999999999</ele>
        <time>2025-05-19T08:46:19Z</time>
      </trkpt>
      <trkpt lat="43.944701040163636" lon="7.696237005293369">
        <ele>652.38999999999999</ele>
        <time>2025-05-19T08:46:20Z</time>
      </trkpt>
      <trkpt lat="43.944739010185003" lon="7.696339013054967">
        <ele>652.87</ele>
        <time>2025-05-19T08:46:21Z</time>
      </trkpt>
      <trkpt lat="43.944777986034751" lon="7.696439009159803">
        <ele>653.83000000000004</ele>
        <time>2025-05-19T08:46:22Z</time>
      </trkpt>
      <trkpt lat="43.944845963269472" lon="7.696506986394525">
        <ele>654.30999999999995</ele>
        <time>2025-05-19T08:46:23Z</time>
      </trkpt>
      <trkpt lat="43.944930033758283" lon="7.696555014699698">
        <ele>654.79999999999995</ele>
        <time>2025-05-19T08:46:24Z</time>
      </trkpt>
      <trkpt lat="43.945112004876137" lon="7.696640007197857">
        <ele>655.75999999999999</ele>
        <time>2025-05-19T08:46:26Z</time>
      </trkpt>
      <trkpt lat="43.945204960182309" lon="7.696683006361127">
        <ele>656.24000000000001</ele>
        <time>2025-05-19T08:46:27Z</time>
      </trkpt>
      <trkpt lat="43.945300010964274" lon="7.696727011352778">
        <ele>656.72000000000003</ele>
        <time>2025-05-19T08:46:28Z</time>
      </trkpt>
      <trkpt lat="43.945463038980961" lon="7.696803035214543">
        <ele>656.72000000000003</ele>
        <time>2025-05-19T08:46:30Z</time>
      </trkpt>
      <trkpt lat="43.945494974032044" lon="7.696864977478981">
        <ele>656.72000000000003</ele>
        <time>2025-05-19T08:46:31Z</time>
      </trkpt>
      <trkpt lat="43.945537973195314" lon="7.696952987462282">
        <ele>656.72000000000003</ele>
        <time>2025-05-19T08:46:32Z</time>
      </trkpt>
      <trkpt lat="43.94556999206543" lon="7.697048960253596">
        <ele>656.24000000000001</ele>
        <time>2025-05-19T08:46:33Z</time>
      </trkpt>
      <trkpt lat="43.945566974580288" lon="7.697174018248916">
        <ele>656.24000000000001</ele>
        <time>2025-05-19T08:46:34Z</time>
      </trkpt>
      <trkpt lat="43.94555096514523" lon="7.697796961292625">
        <ele>656.24000000000001</ele>
        <time>2025-05-19T08:46:39Z</time>
      </trkpt>
      <trkpt lat="43.945579966530204" lon="7.697916990146041">
        <ele>656.72000000000003</ele>
        <time>2025-05-19T08:46:40Z</time>
      </trkpt>
      <trkpt lat="43.9456129912287" lon="7.697960995137692">
        <ele>657.20000000000005</ele>
        <time>2025-05-19T08:46:41Z</time>
      </trkpt>
      <trkpt lat="43.945664959028363" lon="7.697969963774085">
        <ele>657.67999999999995</ele>
        <time>2025-05-19T08:46:42Z</time>
      </trkpt>
      <trkpt lat="43.945704018697143" lon="7.697977004572749">
        <ele>657.67999999999995</ele>
        <time>2025-05-19T08:46:43Z</time>
      </trkpt>
      <trkpt lat="43.945760009810328" lon="7.697986979037523">
        <ele>658.15999999999997</ele>
        <time>2025-05-19T08:46:44Z</time>
      </trkpt>
      <trkpt lat="43.945839973166585" lon="7.69800097681582">
        <ele>658.15999999999997</ele>
        <time>2025-05-19T08:46:45Z</time>
      </trkpt>
      <trkpt lat="43.945936029776931" lon="7.698017992079258">
        <ele>658.63999999999999</ele>
        <time>2025-05-19T08:46:46Z</time>
      </trkpt>
      <trkpt lat="43.946032002568245" lon="7.698055962100625">
        <ele>658.63999999999999</ele>
        <time>2025-05-19T08:46:47Z</time>
      </trkpt>
      <trkpt lat="43.946111965924501" lon="7.698099967092276">
        <ele>658.63999999999999</ele>
        <time>2025-05-19T08:46:48Z</time>
      </trkpt>
      <trkpt lat="43.946184972301126" lon="7.698196023702622">
        <ele>659.12</ele>
        <time>2025-05-19T08:46:49Z</time>
      </trkpt>
      <trkpt lat="43.94621497951448" lon="7.698336001485586">
        <ele>659.60000000000002</ele>
        <time>2025-05-19T08:46:50Z</time>
      </trkpt>
      <trkpt lat="43.946220008656383" lon="7.698477990925312">
        <ele>660.55999999999995</ele>
        <time>2025-05-19T08:46:51Z</time>
      </trkpt>
      <trkpt lat="43.946225959807634" lon="7.698631966486573">
        <ele>661.51999999999998</ele>
        <time>2025-05-19T08:46:52Z</time>
      </trkpt>
      <trkpt lat="43.94623601809144" lon="7.698862971737981">
        <ele>663.45000000000005</ele>
        <time>2025-05-19T08:46:54Z</time>
      </trkpt>
      <trkpt lat="43.946283962577581" lon="7.698960034176707">
        <ele>664.40999999999997</ele>
        <time>2025-05-19T08:46:55Z</time>
      </trkpt>
      <trkpt lat="43.94632201641798" lon="7.69903396256268">
        <ele>665.37</ele>
        <time>2025-05-19T08:46:56Z</time>
      </trkpt>
      <trkpt lat="43.946369038894773" lon="7.699068998917937">
        <ele>665.85000000000002</ele>
        <time>2025-05-19T08:46:57Z</time>
      </trkpt>
      <trkpt lat="43.946446990594268" lon="7.699127001687884">
        <ele>666.80999999999995</ele>
        <time>2025-05-19T08:46:58Z</time>
      </trkpt>
      <trkpt lat="43.946542041376233" lon="7.699196990579367">
        <ele>667.76999999999998</ele>
        <time>2025-05-19T08:46:59Z</time>
      </trkpt>
      <trkpt lat="43.946634996682405" lon="7.699264967814088">
        <ele>668.25</ele>
        <time>2025-05-19T08:47:00Z</time>
      </trkpt>
      <trkpt lat="43.94672904163599" lon="7.699335040524602">
        <ele>669.22000000000003</ele>
        <time>2025-05-19T08:47:01Z</time>
      </trkpt>
      <trkpt lat="43.946798024699092" lon="7.699335040524602">
        <ele>670.17999999999995</ele>
        <time>2025-05-19T08:47:02Z</time>
      </trkpt>
      <trkpt lat="43.946889974176884" lon="7.699335040524602">
        <ele>670.65999999999997</ele>
        <time>2025-05-19T08:47:03Z</time>
      </trkpt>
      <trkpt lat="43.946978989988565" lon="7.699335040524602">
        <ele>671.13999999999999</ele>
        <time>2025-05-19T08:47:04Z</time>
      </trkpt>
      <trkpt lat="43.947050990536809" lon="7.699335040524602">
        <ele>671.13999999999999</ele>
        <time>2025-05-19T08:47:05Z</time>
      </trkpt>
      <trkpt lat="43.947108993306756" lon="7.699409974738956">
        <ele>671.62</ele>
        <time>2025-05-19T08:47:06Z</time>
      </trkpt>
      <trkpt lat="43.947177976369858" lon="7.699501002207398">
        <ele>672.10000000000002</ele>
        <time>2025-05-19T08:47:07Z</time>
      </trkpt>
      <trkpt lat="43.947248971089721" lon="7.699593035504222">
        <ele>672.58000000000004</ele>
        <time>2025-05-19T08:47:08Z</time>
      </trkpt>
      <trkpt lat="43.94735299050808" lon="7.69969898276031">
        <ele>673.05999999999995</ele>
        <time>2025-05-19T08:47:09Z</time>
      </trkpt>
      <trkpt lat="43.947456004098058" lon="7.69969898276031">
        <ele>674.01999999999998</ele>
        <time>2025-05-19T08:47:10Z</time>
      </trkpt>
      <trkpt lat="43.947563963010907" lon="7.69969898276031">
        <ele>674.5</ele>
        <time>2025-05-19T08:47:11Z</time>
      </trkpt>
      <trkpt lat="43.947669994086027" lon="7.69969898276031">
        <ele>675.46000000000004</ele>
        <time>2025-05-19T08:47:12Z</time>
      </trkpt>
      <trkpt lat="43.947752974927425" lon="7.69969898276031">
        <ele>675.94000000000005</ele>
        <time>2025-05-19T08:47:13Z</time>
      </trkpt>
      <trkpt lat="43.947780970484018" lon="7.69969898276031">
        <ele>676.41999999999996</ele>
        <time>2025-05-19T08:47:14Z</time>
      </trkpt>
      <trkpt lat="43.947851965203881" lon="7.699735024943948">
        <ele>676.90999999999997</ele>
        <time>2025-05-19T08:47:15Z</time>
      </trkpt>
      <trkpt lat="43.947865962982178" lon="7.69974198192358">
        <ele>677.38999999999999</ele>
        <time>2025-05-19T08:47:16Z</time>
      </trkpt>
      <trkpt lat="43.947865962982178" lon="7.69974198192358">
        <ele>677.87</ele>
        <time>2025-05-19T08:47:17Z</time>
      </trkpt>
      <trkpt lat="43.947888007387519" lon="7.699872991070151">
        <ele>678.35000000000002</ele>
        <time>2025-05-19T08:47:18Z</time>
      </trkpt>
      <trkpt lat="43.947910973802209" lon="7.700011041015387">
        <ele>678.35000000000002</ele>
        <time>2025-05-19T08:47:19Z</time>
      </trkpt>
      <trkpt lat="43.947937041521072" lon="7.70016903989017">
        <ele>678.83000000000004</ele>
        <time>2025-05-19T08:47:20Z</time>
      </trkpt>
      <trkpt lat="43.947974005714059" lon="7.70038596354425">
        <ele>679.30999999999995</ele>
        <time>2025-05-19T08:47:21Z</time>
      </trkpt>
      <trkpt lat="43.947974005714059" lon="7.700458969920874">
        <ele>679.78999999999996</ele>
        <time>2025-05-19T08:47:22Z</time>
      </trkpt>
      <trkpt lat="43.947974005714059" lon="7.700585033744574">
        <ele>680.26999999999998</ele>
        <time>2025-05-19T08:47:23Z</time>
      </trkpt>
      <trkpt lat="43.947974005714059" lon="7.700715959072113">
        <ele>680.26999999999998</ele>
        <time>2025-05-19T08:47:24Z</time>
      </trkpt>
      <trkpt lat="43.947985991835594" lon="7.700902037322521">
        <ele>680.75</ele>
        <time>2025-05-19T08:47:25Z</time>
      </trkpt>
      <trkpt lat="43.948042988777161" lon="7.701003961265087">
        <ele>681.23000000000002</ele>
        <time>2025-05-19T08:47:26Z</time>
      </trkpt>
      <trkpt lat="43.948101997375488" lon="7.701112003996968">
        <ele>681.71000000000004</ele>
        <time>2025-05-19T08:47:27Z</time>
      </trkpt>
      <trkpt lat="43.948158994317055" lon="7.701215017586947">
        <ele>682.19000000000005</ele>
        <time>2025-05-19T08:47:28Z</time>
      </trkpt>
      <trkpt lat="43.948209034278989" lon="7.701305961236358">
        <ele>682.66999999999996</ele>
        <time>2025-05-19T08:47:29Z</time>
      </trkpt>
      <trkpt lat="43.948253961279988" lon="7.701387014240027">
        <ele>683.14999999999998</ele>
        <time>2025-05-19T08:47:30Z</time>
      </trkpt>
      <trkpt lat="43.9482999779284" lon="7.701472006738186">
        <ele>683.63</ele>
        <time>2025-05-19T08:47:31Z</time>
      </trkpt>
      <trkpt lat="43.948322022333741" lon="7.701537972316146">
        <ele>684.60000000000002</ele>
        <time>2025-05-19T08:47:32Z</time>
      </trkpt>
      <trkpt lat="43.948335014283657" lon="7.701625982299447">
        <ele>685.08000000000004</ele>
        <time>2025-05-19T08:47:33Z</time>
      </trkpt>
      <trkpt lat="43.948319004848599" lon="7.701671998947859">
        <ele>685.55999999999995</ele>
        <time>2025-05-19T08:47:34Z</time>
      </trkpt>
      <trkpt lat="43.948257984593511" lon="7.701732013374567">
        <ele>685.55999999999995</ele>
        <time>2025-05-19T08:47:35Z</time>
      </trkpt>
      <trkpt lat="43.948199981823564" lon="7.701791021972895">
        <ele>686.03999999999996</ele>
        <time>2025-05-19T08:47:36Z</time>
      </trkpt>
      <trkpt lat="43.948124041780829" lon="7.701866962015629">
        <ele>686.03999999999996</ele>
        <time>2025-05-19T08:47:37Z</time>
      </trkpt>
      <trkpt lat="43.948027985170484" lon="7.701901998370886">
        <ele>686.03999999999996</ele>
        <time>2025-05-19T08:47:38Z</time>
      </trkpt>
      <trkpt lat="43.947907034307718" lon="7.701946003362536">
        <ele>686.51999999999998</ele>
        <time>2025-05-19T08:47:39Z</time>
      </trkpt>
      <trkpt lat="43.947419039905071" lon="7.702125962823629">
        <ele>689.88</ele>
        <time>2025-05-19T08:47:43Z</time>
      </trkpt>
      <trkpt lat="43.947285013273358" lon="7.702184971421957">
        <ele>690.84000000000003</ele>
        <time>2025-05-19T08:47:44Z</time>
      </trkpt>
      <trkpt lat="43.947133971378207" lon="7.702302988618612">
        <ele>691.80999999999995</ele>
        <time>2025-05-19T08:47:45Z</time>
      </trkpt>
      <trkpt lat="43.94709499552846" lon="7.702410025522113">
        <ele>692.76999999999998</ele>
        <time>2025-05-19T08:47:46Z</time>
      </trkpt>
      <trkpt lat="43.94705300219357" lon="7.702582022175193">
        <ele>693.73000000000002</ele>
        <time>2025-05-19T08:47:47Z</time>
      </trkpt>
      <trkpt lat="43.947058031335473" lon="7.702688975259662">
        <ele>694.69000000000005</ele>
        <time>2025-05-19T08:47:48Z</time>
      </trkpt>
      <trkpt lat="43.947061970829964" lon="7.702799029648304">
        <ele>695.64999999999998</ele>
        <time>2025-05-19T08:47:49Z</time>
      </trkpt>
      <trkpt lat="43.94707303494215" lon="7.703046966344118">
        <ele>697.09000000000003</ele>
        <time>2025-05-19T08:47:51Z</time>
      </trkpt>
      <trkpt lat="43.947036992758512" lon="7.703100023791194">
        <ele>698.04999999999995</ele>
        <time>2025-05-19T08:47:52Z</time>
      </trkpt>
      <trkpt lat="43.94698703661561" lon="7.703175963833928">
        <ele>699.01999999999998</ele>
        <time>2025-05-19T08:47:53Z</time>
      </trkpt>
      <trkpt lat="43.946907995268703" lon="7.703220974653959">
        <ele>699.98000000000002</ele>
        <time>2025-05-19T08:47:54Z</time>
      </trkpt>
      <trkpt lat="43.946811016649008" lon="7.703273026272655">
        <ele>701.89999999999998</ele>
        <time>2025-05-19T08:47:55Z</time>
      </trkpt>
      <trkpt lat="43.946710014715791" lon="7.703319964930415">
        <ele>703.82000000000005</ele>
        <time>2025-05-19T08:47:56Z</time>
      </trkpt>
      <trkpt lat="43.946613958105445" lon="7.703363969922066">
        <ele>705.25999999999999</ele>
        <time>2025-05-19T08:47:57Z</time>
      </trkpt>
      <trkpt lat="43.946446990594268" lon="7.703505959361792">
        <ele>707.66999999999996</ele>
        <time>2025-05-19T08:47:59Z</time>
      </trkpt>
      <trkpt lat="43.946368033066392" lon="7.703590029850602">
        <ele>708.63</ele>
        <time>2025-05-19T08:48:00Z</time>
      </trkpt>
      <trkpt lat="43.946209028363228" lon="7.70375800319016">
        <ele>710.54999999999995</ele>
        <time>2025-05-19T08:48:02Z</time>
      </trkpt>
      <trkpt lat="43.946170974522829" lon="7.703797984868288">
        <ele>711.99000000000001</ele>
        <time>2025-05-19T08:48:03Z</time>
      </trkpt>
      <trkpt lat="43.946124035865068" lon="7.703922959044576">
        <ele>712.95000000000005</ele>
        <time>2025-05-19T08:48:04Z</time>
      </trkpt>
      <trkpt lat="43.94610702060163" lon="7.703969981521368">
        <ele>714.39999999999998</ele>
        <time>2025-05-19T08:48:05Z</time>
      </trkpt>
      <trkpt lat="43.946120012551546" lon="7.70399403758347">
        <ele>715.84000000000003</ele>
        <time>2025-05-19T08:48:06Z</time>
      </trkpt>
      <trkpt lat="43.946156976744533" lon="7.704064026474953">
        <ele>717.75999999999999</ele>
        <time>2025-05-19T08:48:07Z</time>
      </trkpt>
      <trkpt lat="43.946202993392944" lon="7.704150024801493">
        <ele>719.20000000000005</ele>
        <time>2025-05-19T08:48:08Z</time>
      </trkpt>
      <trkpt lat="43.946260996162891" lon="7.704257983714342">
        <ele>720.64999999999998</ele>
        <time>2025-05-19T08:48:09Z</time>
      </trkpt>
      <trkpt lat="43.946326961740851" lon="7.704382035881281">
        <ele>721.61000000000001</ele>
        <time>2025-05-19T08:48:10Z</time>
      </trkpt>
      <trkpt lat="43.946454031392932" lon="7.70461798645556">
        <ele>724.49000000000001</ele>
        <time>2025-05-19T08:48:12Z</time>
      </trkpt>
      <trkpt lat="43.946540029719472" lon="7.704716976732016">
        <ele>725.45000000000005</ele>
        <time>2025-05-19T08:48:13Z</time>
      </trkpt>
      <trkpt lat="43.946624016389251" lon="7.704814961180091">
        <ele>726.40999999999997</ele>
        <time>2025-05-19T08:48:14Z</time>
      </trkpt>
      <trkpt lat="43.946714960038662" lon="7.704930966719985">
        <ele>727.86000000000001</ele>
        <time>2025-05-19T08:48:15Z</time>
      </trkpt>
      <trkpt lat="43.946762988343835" lon="7.705052001401782">
        <ele>728.82000000000005</ele>
        <time>2025-05-19T08:48:16Z</time>
      </trkpt>
      <trkpt lat="43.946800958365202" lon="7.705212011933327">
        <ele>729.77999999999997</ele>
        <time>2025-05-19T08:48:17Z</time>
      </trkpt>
      <trkpt lat="43.94681403413415" lon="7.705354001373053">
        <ele>730.74000000000001</ele>
        <time>2025-05-19T08:48:18Z</time>
      </trkpt>
      <trkpt lat="43.946827026084065" lon="7.705494984984398">
        <ele>731.70000000000005</ele>
        <time>2025-05-19T08:48:19Z</time>
      </trkpt>
      <trkpt lat="43.946828031912446" lon="7.705664969980717">
        <ele>733.13999999999999</ele>
        <time>2025-05-19T08:48:20Z</time>
      </trkpt>
      <trkpt lat="43.946806993335485" lon="7.705814000219107">
        <ele>734.10000000000002</ele>
        <time>2025-05-19T08:48:21Z</time>
      </trkpt>
      <trkpt lat="43.946786960586905" lon="7.705960012972355">
        <ele>735.07000000000005</ele>
        <time>2025-05-19T08:48:22Z</time>
      </trkpt>
      <trkpt lat="43.946765000000596" lon="7.706116000190377">
        <ele>736.02999999999997</ele>
        <time>2025-05-19T08:48:23Z</time>
      </trkpt>
      <trkpt lat="43.946748990565538" lon="7.706260001286864">
        <ele>736.99000000000001</ele>
        <time>2025-05-19T08:48:24Z</time>
      </trkpt>
      <trkpt lat="43.946740021929145" lon="7.706415988504887">
        <ele>738.42999999999995</ele>
        <time>2025-05-19T08:48:25Z</time>
      </trkpt>
      <trkpt lat="43.94673096947372" lon="7.706570969894528">
        <ele>739.87</ele>
        <time>2025-05-19T08:48:26Z</time>
      </trkpt>
      <trkpt lat="43.946698028594255" lon="7.70672301761806">
        <ele>740.83000000000004</ele>
        <time>2025-05-19T08:48:27Z</time>
      </trkpt>
      <trkpt lat="43.946661986410618" lon="7.706856038421392">
        <ele>741.78999999999996</ele>
        <time>2025-05-19T08:48:28Z</time>
      </trkpt>
      <trkpt lat="43.94660197198391" lon="7.707075979560614">
        <ele>744.20000000000005</ele>
        <time>2025-05-19T08:48:30Z</time>
      </trkpt>
      <trkpt lat="43.946599960327148" lon="7.707081008702517">
        <ele>745.15999999999997</ele>
        <time>2025-05-19T08:48:31Z</time>
      </trkpt>
      <trkpt lat="43.94664203748107" lon="7.707184022292495">
        <ele>746.12</ele>
        <time>2025-05-19T08:48:32Z</time>
      </trkpt>
      <trkpt lat="43.946653017774224" lon="7.707187039777637">
        <ele>747.55999999999995</ele>
        <time>2025-05-19T08:48:33Z</time>
      </trkpt>
      <trkpt lat="43.946729963645339" lon="7.707178993150592">
        <ele>749</ele>
        <time>2025-05-19T08:48:34Z</time>
      </trkpt>
      <trkpt lat="43.94683700054884" lon="7.707167007029057">
        <ele>749.97000000000003</ele>
        <time>2025-05-19T08:48:35Z</time>
      </trkpt>
      <trkpt lat="43.946930039674044" lon="7.707112021744251">
        <ele>750.92999999999995</ele>
        <time>2025-05-19T08:48:36Z</time>
      </trkpt>
      <trkpt lat="43.94703296944499" lon="7.707051001489162">
        <ele>751.88999999999999</ele>
        <time>2025-05-19T08:48:37Z</time>
      </trkpt>
      <trkpt lat="43.947131959721446" lon="7.706992998719215">
        <ele>752.85000000000002</ele>
        <time>2025-05-19T08:48:38Z</time>
      </trkpt>
      <trkpt lat="43.94720102660358" lon="7.706952011212707">
        <ele>753.80999999999995</ele>
        <time>2025-05-19T08:48:39Z</time>
      </trkpt>
      <trkpt lat="43.947306973859668" lon="7.706997022032738">
        <ele>754.28999999999996</ele>
        <time>2025-05-19T08:48:40Z</time>
      </trkpt>
      <trkpt lat="43.947390038520098" lon="7.707031974568963">
        <ele>755.25</ele>
        <time>2025-05-19T08:48:41Z</time>
      </trkpt>
      <trkpt lat="43.947470001876354" lon="7.707064999267459">
        <ele>755.73000000000002</ele>
        <time>2025-05-19T08:48:42Z</time>
      </trkpt>
      <trkpt lat="43.947533033788204" lon="7.707091988995671">
        <ele>756.69000000000005</ele>
        <time>2025-05-19T08:48:43Z</time>
      </trkpt>
      <trkpt lat="43.947640992701054" lon="7.707101041451097">
        <ele>757.17999999999995</ele>
        <time>2025-05-19T08:48:44Z</time>
      </trkpt>
      <trkpt lat="43.947702012956142" lon="7.707057958468795">
        <ele>758.13999999999999</ele>
        <time>2025-05-19T08:48:45Z</time>
      </trkpt>
      <trkpt lat="43.947947015985847" lon="7.706884033977985">
        <ele>760.53999999999996</ele>
        <time>2025-05-19T08:48:48Z</time>
      </trkpt>
      <trkpt lat="43.948124041780829" lon="7.706758975982666">
        <ele>762.46000000000004</ele>
        <time>2025-05-19T08:48:50Z</time>
      </trkpt>
      <trkpt lat="43.948184978216887" lon="7.70676601678133">
        <ele>762.94000000000005</ele>
        <time>2025-05-19T08:48:51Z</time>
      </trkpt>
      <trkpt lat="43.948272988200188" lon="7.706775991246104">
        <ele>763.41999999999996</ele>
        <time>2025-05-19T08:48:52Z</time>
      </trkpt>
      <trkpt lat="43.948362004011869" lon="7.706786971539259">
        <ele>763.89999999999998</ele>
        <time>2025-05-19T08:48:53Z</time>
      </trkpt>
      <trkpt lat="43.948488989844918" lon="7.706801975145936">
        <ele>764.38999999999999</ele>
        <time>2025-05-19T08:48:54Z</time>
      </trkpt>
      <trkpt lat="43.948565013706684" lon="7.706794012337923">
        <ele>764.38999999999999</ele>
        <time>2025-05-19T08:48:55Z</time>
      </trkpt>
      <trkpt lat="43.948672972619534" lon="7.706782026216388">
        <ele>764.87</ele>
        <time>2025-05-19T08:48:56Z</time>
      </trkpt>
      <trkpt lat="43.948785960674286" lon="7.706769034266472">
        <ele>765.35000000000002</ele>
        <time>2025-05-19T08:48:57Z</time>
      </trkpt>
      <trkpt lat="43.948900038376451" lon="7.706755958497524">
        <ele>765.83000000000004</ele>
        <time>2025-05-19T08:48:58Z</time>
      </trkpt>
      <trkpt lat="43.949015038087964" lon="7.706743972375989">
        <ele>766.30999999999995</ele>
        <time>2025-05-19T08:48:59Z</time>
      </trkpt>
      <trkpt lat="43.949126014485955" lon="7.706730980426073">
        <ele>766.78999999999996</ele>
        <time>2025-05-19T08:49:00Z</time>
      </trkpt>
      <trkpt lat="43.949260963127017" lon="7.706715976819396">
        <ele>767.26999999999998</ele>
        <time>2025-05-19T08:49:01Z</time>
      </trkpt>
      <trkpt lat="43.949303962290287" lon="7.706732992082834">
        <ele>767.75</ele>
        <time>2025-05-19T08:49:02Z</time>
      </trkpt>
      <trkpt lat="43.949392978101969" lon="7.706780014559627">
        <ele>768.23000000000002</ele>
        <time>2025-05-19T08:49:03Z</time>
      </trkpt>
      <trkpt lat="43.949472019448876" lon="7.706847991794348">
        <ele>768.71000000000004</ele>
        <time>2025-05-19T08:49:04Z</time>
      </trkpt>
      <trkpt lat="43.949546031653881" lon="7.706911023706198">
        <ele>769.66999999999996</ele>
        <time>2025-05-19T08:49:05Z</time>
      </trkpt>
      <trkpt lat="43.949666982516646" lon="7.707014959305525">
        <ele>771.11000000000001</ele>
        <time>2025-05-19T08:49:07Z</time>
      </trkpt>
      <trkpt lat="43.949703024700284" lon="7.707106992602348">
        <ele>772.08000000000004</ele>
        <time>2025-05-19T08:49:08Z</time>
      </trkpt>
      <trkpt lat="43.949731020256877" lon="7.707212017849088">
        <ele>773.03999999999996</ele>
        <time>2025-05-19T08:49:09Z</time>
      </trkpt>
      <trkpt lat="43.949720039963722" lon="7.70734696649015">
        <ele>773.51999999999998</ele>
        <time>2025-05-19T08:49:10Z</time>
      </trkpt>
      <trkpt lat="43.949705958366394" lon="7.707508988678455">
        <ele>774.48000000000002</ele>
        <time>2025-05-19T08:49:11Z</time>
      </trkpt>
      <trkpt lat="43.949691960588098" lon="7.707676040008664">
        <ele>775.44000000000005</ele>
        <time>2025-05-19T08:49:12Z</time>
      </trkpt>
      <trkpt lat="43.949651978909969" lon="7.708139978349209">
        <ele>778.32000000000005</ele>
        <time>2025-05-19T08:49:15Z</time>
      </trkpt>
      <trkpt lat="43.949676034972072" lon="7.708252966403961">
        <ele>778.80999999999995</ele>
        <time>2025-05-19T08:49:16Z</time>
      </trkpt>
      <trkpt lat="43.949715010821819" lon="7.708332007750869">
        <ele>779.28999999999996</ele>
        <time>2025-05-19T08:49:17Z</time>
      </trkpt>
      <trkpt lat="43.949754992499948" lon="7.708410965278745">
        <ele>779.76999999999998</ele>
        <time>2025-05-19T08:49:18Z</time>
      </trkpt>
      <trkpt lat="43.949797991663218" lon="7.708413982763887">
        <ele>779.76999999999998</ele>
        <time>2025-05-19T08:49:19Z</time>
      </trkpt>
      <trkpt lat="43.949878960847855" lon="7.708419011905789">
        <ele>780.25</ele>
        <time>2025-05-19T08:49:20Z</time>
      </trkpt>
      <trkpt lat="43.950355974957347" lon="7.70839998498559">
        <ele>781.21000000000004</ele>
        <time>2025-05-19T08:49:24Z</time>
      </trkpt>
      <trkpt lat="43.950669039040804" lon="7.70835698582232">
        <ele>782.16999999999996</ele>
        <time>2025-05-19T08:49:27Z</time>
      </trkpt>
      <trkpt lat="43.950741961598396" lon="7.708347011357546">
        <ele>782.64999999999998</ele>
        <time>2025-05-19T08:49:28Z</time>
      </trkpt>
      <trkpt lat="43.950808010995388" lon="7.708418006077409">
        <ele>783.13</ele>
        <time>2025-05-19T08:49:29Z</time>
      </trkpt>
      <trkpt lat="43.950871964916587" lon="7.708486989140511">
        <ele>784.09000000000003</ele>
        <time>2025-05-19T08:49:30Z</time>
      </trkpt>
      <trkpt lat="43.950928039848804" lon="7.708547003567219">
        <ele>784.57000000000005</ele>
        <time>2025-05-19T08:49:31Z</time>
      </trkpt>
      <trkpt lat="43.950980007648468" lon="7.708602994680405">
        <ele>785.04999999999995</ele>
        <time>2025-05-19T08:49:32Z</time>
      </trkpt>
      <trkpt lat="43.951058965176344" lon="7.708646999672055">
        <ele>786.01999999999998</ele>
        <time>2025-05-19T08:49:33Z</time>
      </trkpt>
      <trkpt lat="43.951152004301548" lon="7.708646999672055">
        <ele>786.5</ele>
        <time>2025-05-19T08:49:34Z</time>
      </trkpt>
      <trkpt lat="43.951256023719907" lon="7.708646999672055">
        <ele>786.98000000000002</ele>
        <time>2025-05-19T08:49:35Z</time>
      </trkpt>
      <trkpt lat="43.951365994289517" lon="7.708646999672055">
        <ele>787.46000000000004</ele>
        <time>2025-05-19T08:49:36Z</time>
      </trkpt>
      <trkpt lat="43.951584007591009" lon="7.708656974136829">
        <ele>787.94000000000005</ele>
        <time>2025-05-19T08:49:38Z</time>
      </trkpt>
      <trkpt lat="43.951729014515877" lon="7.708711959421635">
        <ele>787.94000000000005</ele>
        <time>2025-05-19T08:49:39Z</time>
      </trkpt>
      <trkpt lat="43.951781988143921" lon="7.708765016868711">
        <ele>787.94000000000005</ele>
        <time>2025-05-19T08:49:40Z</time>
      </trkpt>
      <trkpt lat="43.951878966763616" lon="7.708861995488405">
        <ele>787.94000000000005</ele>
        <time>2025-05-19T08:49:41Z</time>
      </trkpt>
      <trkpt lat="43.951932024210691" lon="7.708967020735145">
        <ele>787.94000000000005</ele>
        <time>2025-05-19T08:49:42Z</time>
      </trkpt>
      <trkpt lat="43.951986003667116" lon="7.709075985476375">
        <ele>788.89999999999998</ele>
        <time>2025-05-19T08:49:43Z</time>
      </trkpt>
      <trkpt lat="43.952050963416696" lon="7.709204982966185">
        <ele>789.86000000000001</ele>
        <time>2025-05-19T08:49:44Z</time>
      </trkpt>
      <trkpt lat="43.952089017257094" lon="7.709243958815932">
        <ele>790.82000000000005</ele>
        <time>2025-05-19T08:49:45Z</time>
      </trkpt>
      <trkpt lat="43.952165963128209" lon="7.709290981292725">
        <ele>792.25999999999999</ele>
        <time>2025-05-19T08:49:46Z</time>
      </trkpt>
      <trkpt lat="43.952241986989975" lon="7.709290981292725">
        <ele>793.22000000000003</ele>
        <time>2025-05-19T08:49:47Z</time>
      </trkpt>
      <trkpt lat="43.952337959781289" lon="7.709276983514428">
        <ele>794.66999999999996</ele>
        <time>2025-05-19T08:49:48Z</time>
      </trkpt>
      <trkpt lat="43.952433010563254" lon="7.709232978522778">
        <ele>795.63</ele>
        <time>2025-05-19T08:49:49Z</time>
      </trkpt>
      <trkpt lat="43.952527977526188" lon="7.709187967702746">
        <ele>796.59000000000003</ele>
        <time>2025-05-19T08:49:50Z</time>
      </trkpt>
      <trkpt lat="43.952623028308153" lon="7.709143040701747">
        <ele>798.02999999999997</ele>
        <time>2025-05-19T08:49:51Z</time>
      </trkpt>
      <trkpt lat="43.952719001099467" lon="7.70912803709507">
        <ele>798.99000000000001</ele>
        <time>2025-05-19T08:49:52Z</time>
      </trkpt>
      <trkpt lat="43.952825032174587" lon="7.709146980196238">
        <ele>800.44000000000005</ele>
        <time>2025-05-19T08:49:53Z</time>
      </trkpt>
      <trkpt lat="43.953178999945521" lon="7.709228033199906">
        <ele>804.27999999999997</ele>
        <time>2025-05-19T08:49:57Z</time>
      </trkpt>
      <trkpt lat="43.953273966908455" lon="7.709290981292725">
        <ele>804.75999999999999</ele>
        <time>2025-05-19T08:49:58Z</time>
      </trkpt>
      <trkpt lat="43.953289976343513" lon="7.709344960749149">
        <ele>805.24000000000001</ele>
        <time>2025-05-19T08:49:59Z</time>
      </trkpt>
      <trkpt lat="43.953317971900105" lon="7.709440011531115">
        <ele>806.20000000000005</ele>
        <time>2025-05-19T08:50:00Z</time>
      </trkpt>
      <trkpt lat="43.953338004648685" lon="7.709505977109075">
        <ele>806.67999999999995</ele>
        <time>2025-05-19T08:50:01Z</time>
      </trkpt>
      <trkpt lat="43.95341201685369" lon="7.709578983485699">
        <ele>807.15999999999997</ele>
        <time>2025-05-19T08:50:02Z</time>
      </trkpt>
      <trkpt lat="43.953483011573553" lon="7.709628017619252">
        <ele>808.13</ele>
        <time>2025-05-19T08:50:03Z</time>
      </trkpt>
      <trkpt lat="43.953555012121797" lon="7.709657019004226">
        <ele>808.61000000000001</ele>
        <time>2025-05-19T08:50:04Z</time>
      </trkpt>
      <trkpt lat="43.953660037368536" lon="7.709699012339115">
        <ele>809.09000000000003</ele>
        <time>2025-05-19T08:50:05Z</time>
      </trkpt>
      <trkpt lat="43.953703958541155" lon="7.709691971540451">
        <ele>809.09000000000003</ele>
        <time>2025-05-19T08:50:06Z</time>
      </trkpt>
      <trkpt lat="43.953858017921448" lon="7.709671016782522">
        <ele>809.09000000000003</ele>
        <time>2025-05-19T08:50:08Z</time>
      </trkpt>
      <trkpt lat="43.953960025683045" lon="7.709656013175845">
        <ele>808.61000000000001</ele>
        <time>2025-05-19T08:50:09Z</time>
      </trkpt>
      <trkpt lat="43.95399397239089" lon="7.709689037874341">
        <ele>808.13</ele>
        <time>2025-05-19T08:50:10Z</time>
      </trkpt>
      <trkpt lat="43.954043006524444" lon="7.709799008443952">
        <ele>808.13</ele>
        <time>2025-05-19T08:50:11Z</time>
      </trkpt>
      <trkpt lat="43.954071002081037" lon="7.709920965135098">
        <ele>808.13</ele>
        <time>2025-05-19T08:50:12Z</time>
      </trkpt>
      <trkpt lat="43.954102015122771" lon="7.710055997595191">
        <ele>808.13</ele>
        <time>2025-05-19T08:50:13Z</time>
      </trkpt>
      <trkpt lat="43.954132022336125" lon="7.710186000913382">
        <ele>808.13</ele>
        <time>2025-05-19T08:50:14Z</time>
      </trkpt>
      <trkpt lat="43.954146020114422" lon="7.710295971482992">
        <ele>807.63999999999999</ele>
        <time>2025-05-19T08:50:15Z</time>
      </trkpt>
      <trkpt lat="43.954102015122771" lon="7.710396973416209">
        <ele>807.63999999999999</ele>
        <time>2025-05-19T08:50:16Z</time>
      </trkpt>
      <trkpt lat="43.954052980989218" lon="7.710509039461613">
        <ele>807.63999999999999</ele>
        <time>2025-05-19T08:50:17Z</time>
      </trkpt>
      <trkpt lat="43.954003024846315" lon="7.710625967010856">
        <ele>807.63999999999999</ele>
        <time>2025-05-19T08:50:18Z</time>
      </trkpt>
      <trkpt lat="43.954003024846315" lon="7.71076200529933">
        <ele>808.13</ele>
        <time>2025-05-19T08:50:19Z</time>
      </trkpt>
      <trkpt lat="43.954003024846315" lon="7.710921010002494">
        <ele>809.57000000000005</ele>
        <time>2025-05-19T08:50:20Z</time>
      </trkpt>
      <trkpt lat="43.954003024846315" lon="7.711060987785459">
        <ele>809.09000000000003</ele>
        <time>2025-05-19T08:50:21Z</time>
      </trkpt>
      <trkpt lat="43.953977962955832" lon="7.711162995547056">
        <ele>811.00999999999999</ele>
        <time>2025-05-19T08:50:22Z</time>
      </trkpt>
      <trkpt lat="43.953914009034634" lon="7.711283024400473">
        <ele>811.97000000000003</ele>
        <time>2025-05-19T08:50:23Z</time>
      </trkpt>
      <trkpt lat="43.953788029029965" lon="7.711539007723332">
        <ele>812.92999999999995</ele>
        <time>2025-05-19T08:50:25Z</time>
      </trkpt>
      <trkpt lat="43.953736983239651" lon="7.711674040183425">
        <ele>813.40999999999997</ele>
        <time>2025-05-19T08:50:26Z</time>
      </trkpt>
      <trkpt lat="43.953684009611607" lon="7.71181502379477">
        <ele>814.37</ele>
        <time>2025-05-19T08:50:27Z</time>
      </trkpt>
      <trkpt lat="43.953632041811943" lon="7.711955001577735">
        <ele>815.82000000000005</ele>
        <time>2025-05-19T08:50:28Z</time>
      </trkpt>
      <trkpt lat="43.953587030991912" lon="7.712019961327314">
        <ele>816.77999999999997</ele>
        <time>2025-05-19T08:50:29Z</time>
      </trkpt>
      <trkpt lat="43.95349801518023" lon="7.712096991017461">
        <ele>817.74000000000001</ele>
        <time>2025-05-19T08:50:30Z</time>
      </trkpt>
      <trkpt lat="43.953408999368548" lon="7.712173014879227">
        <ele>819.17999999999995</ele>
        <time>2025-05-19T08:50:31Z</time>
      </trkpt>
      <trkpt lat="43.95332601852715" lon="7.71224400959909">
        <ele>820.13999999999999</ele>
        <time>2025-05-19T08:50:32Z</time>
      </trkpt>
      <trkpt lat="43.953255023807287" lon="7.712363032624126">
        <ele>821.10000000000002</ele>
        <time>2025-05-19T08:50:33Z</time>
      </trkpt>
      <trkpt lat="43.953199032694101" lon="7.71248297765851">
        <ele>821.58000000000004</ele>
        <time>2025-05-19T08:50:34Z</time>
      </trkpt>
      <trkpt lat="43.953167013823986" lon="7.712602000683546">
        <ele>822.54999999999995</ele>
        <time>2025-05-19T08:50:35Z</time>
      </trkpt>
      <trkpt lat="43.95313298329711" lon="7.712725969031453">
        <ele>823.50999999999999</ele>
        <time>2025-05-19T08:50:36Z</time>
      </trkpt>
      <trkpt lat="43.953100964426994" lon="7.712842980399728">
        <ele>824.47000000000003</ele>
        <time>2025-05-19T08:50:37Z</time>
      </trkpt>
      <trkpt lat="43.953064000234008" lon="7.712951023131609">
        <ele>825.90999999999997</ele>
        <time>2025-05-19T08:50:38Z</time>
      </trkpt>
      <trkpt lat="43.953001974150538" lon="7.713073985651135">
        <ele>826.87</ele>
        <time>2025-05-19T08:50:39Z</time>
      </trkpt>
      <trkpt lat="43.952947994694114" lon="7.713182028383017">
        <ele>827.83000000000004</ele>
        <time>2025-05-19T08:50:40Z</time>
      </trkpt>
      <trkpt lat="43.952901978045702" lon="7.713274983689189">
        <ele>829.26999999999998</ele>
        <time>2025-05-19T08:50:41Z</time>
      </trkpt>
      <trkpt lat="43.952887980267406" lon="7.713420996442437">
        <ele>830.24000000000001</ele>
        <time>2025-05-19T08:50:42Z</time>
      </trkpt>
      <trkpt lat="43.952887980267406" lon="7.713529039174318">
        <ele>831.67999999999995</ele>
        <time>2025-05-19T08:50:43Z</time>
      </trkpt>
      <trkpt lat="43.952915975823998" lon="7.713644038885832">
        <ele>833.12</ele>
        <time>2025-05-19T08:50:44Z</time>
      </trkpt>
      <trkpt lat="43.952962998300791" lon="7.713744034990668">
        <ele>834.55999999999995</ele>
        <time>2025-05-19T08:50:45Z</time>
      </trkpt>
      <trkpt lat="43.953014966100454" lon="7.713858028873801">
        <ele>836</ele>
        <time>2025-05-19T08:50:46Z</time>
      </trkpt>
      <trkpt lat="43.953070035204291" lon="7.713975962251425">
        <ele>836.48000000000002</ele>
        <time>2025-05-19T08:50:47Z</time>
      </trkpt>
      <trkpt lat="43.953126026317477" lon="7.714095991104841">
        <ele>837.45000000000005</ele>
        <time>2025-05-19T08:50:48Z</time>
      </trkpt>
      <trkpt lat="43.953181011602283" lon="7.714205961674452">
        <ele>838.40999999999997</ele>
        <time>2025-05-19T08:50:49Z</time>
      </trkpt>
      <trkpt lat="43.953242031857371" lon="7.714295983314514">
        <ele>839.37</ele>
        <time>2025-05-19T08:50:50Z</time>
      </trkpt>
      <trkpt lat="43.953297017142177" lon="7.714378964155912">
        <ele>840.33000000000004</ele>
        <time>2025-05-19T08:50:51Z</time>
      </trkpt>
      <trkpt lat="43.953430959954858" lon="7.714525982737541">
        <ele>842.25</ele>
        <time>2025-05-19T08:50:53Z</time>
      </trkpt>
      <trkpt lat="43.953516958281398" lon="7.714563030749559">
        <ele>843.21000000000004</ele>
        <time>2025-05-19T08:50:54Z</time>
      </trkpt>
      <trkpt lat="43.953616032376885" lon="7.714605024084449">
        <ele>844.17999999999995</ele>
        <time>2025-05-19T08:50:55Z</time>
      </trkpt>
      <trkpt lat="43.954371996223927" lon="7.714926972985268">
        <ele>851.38</ele>
        <time>2025-05-19T08:51:02Z</time>
      </trkpt>
      <trkpt lat="43.954456988722086" lon="7.714964020997286">
        <ele>851.87</ele>
        <time>2025-05-19T08:51:03Z</time>
      </trkpt>
      <trkpt lat="43.954553967341781" lon="7.71499696187675">
        <ele>852.83000000000004</ele>
        <time>2025-05-19T08:51:04Z</time>
      </trkpt>
      <trkpt lat="43.954646000638604" lon="7.714986987411976">
        <ele>853.30999999999995</ele>
        <time>2025-05-19T08:51:05Z</time>
      </trkpt>
      <trkpt lat="43.954777009785175" lon="7.714943988248706">
        <ele>854.26999999999998</ele>
        <time>2025-05-19T08:51:06Z</time>
      </trkpt>
      <trkpt lat="43.954886980354786" lon="7.714858995750547">
        <ele>855.23000000000002</ele>
        <time>2025-05-19T08:51:07Z</time>
      </trkpt>
      <trkpt lat="43.955262992531061" lon="7.714524976909161">
        <ele>856.19000000000005</ele>
        <time>2025-05-19T08:51:10Z</time>
      </trkpt>
      <trkpt lat="43.955512018874288" lon="7.714291037991643">
        <ele>856.66999999999996</ele>
        <time>2025-05-19T08:51:12Z</time>
      </trkpt>
      <trkpt lat="43.955631963908672" lon="7.714176960289478">
        <ele>856.66999999999996</ele>
        <time>2025-05-19T08:51:13Z</time>
      </trkpt>
      <trkpt lat="43.955980986356735" lon="7.713883006945252">
        <ele>857.14999999999998</ele>
        <time>2025-05-19T08:51:16Z</time>
      </trkpt>
      <trkpt lat="43.956089029088616" lon="7.713801031932235">
        <ele>857.14999999999998</ele>
        <time>2025-05-19T08:51:17Z</time>
      </trkpt>
      <trkpt lat="43.956379964947701" lon="7.713470030575991">
        <ele>857.14999999999998</ele>
        <time>2025-05-19T08:51:20Z</time>
      </trkpt>
      <trkpt lat="43.956513991579413" lon="7.713303985074163">
        <ele>857.14999999999998</ele>
        <time>2025-05-19T08:51:21Z</time>
      </trkpt>
      <trkpt lat="43.957411022856832" lon="7.712555984035134">
        <ele>857.14999999999998</ele>
        <time>2025-05-19T08:51:30Z</time>
      </trkpt>
      <trkpt lat="43.957472965121269" lon="7.712494963780046">
        <ele>857.14999999999998</ele>
        <time>2025-05-19T08:51:31Z</time>
      </trkpt>
      <trkpt lat="43.957554018124938" lon="7.712461017072201">
        <ele>857.14999999999998</ele>
        <time>2025-05-19T08:51:32Z</time>
      </trkpt>
      <trkpt lat="43.957653008401394" lon="7.712512984871864">
        <ele>857.14999999999998</ele>
        <time>2025-05-19T08:51:33Z</time>
      </trkpt>
      <trkpt lat="43.957678992301226" lon="7.712586997076869">
        <ele>857.14999999999998</ele>
        <time>2025-05-19T08:51:34Z</time>
      </trkpt>
      <trkpt lat="43.957715034484863" lon="7.712683975696564">
        <ele>856.66999999999996</ele>
        <time>2025-05-19T08:51:35Z</time>
      </trkpt>
      <trkpt lat="43.957746969535947" lon="7.712818002328277">
        <ele>856.66999999999996</ele>
        <time>2025-05-19T08:51:36Z</time>
      </trkpt>
      <trkpt lat="43.957764990627766" lon="7.712950017303228">
        <ele>856.19000000000005</ele>
        <time>2025-05-19T08:51:37Z</time>
      </trkpt>
      <trkpt lat="43.957784017547965" lon="7.713083038106561">
        <ele>856.19000000000005</ele>
        <time>2025-05-19T08:51:38Z</time>
      </trkpt>
      <trkpt lat="43.957802960649133" lon="7.713223015889525">
        <ele>856.19000000000005</ele>
        <time>2025-05-19T08:51:39Z</time>
      </trkpt>
      <trkpt lat="43.957822993397713" lon="7.713368022814393">
        <ele>856.19000000000005</ele>
        <time>2025-05-19T08:51:40Z</time>
      </trkpt>
      <trkpt lat="43.957860041409731" lon="7.713459972292185">
        <ele>856.66999999999996</ele>
        <time>2025-05-19T08:51:41Z</time>
      </trkpt>
      <trkpt lat="43.957908991724253" lon="7.713583018630743">
        <ele>857.14999999999998</ele>
        <time>2025-05-19T08:51:42Z</time>
      </trkpt>
      <trkpt lat="43.957965988665819" lon="7.713626017794013">
        <ele>857.63</ele>
        <time>2025-05-19T08:51:43Z</time>
      </trkpt>
      <trkpt lat="43.958045030012727" lon="7.713685026392341">
        <ele>858.11000000000001</ele>
        <time>2025-05-19T08:51:44Z</time>
      </trkpt>
      <trkpt lat="43.95813999697566" lon="7.713728025555611">
        <ele>858.59000000000003</ele>
        <time>2025-05-19T08:51:45Z</time>
      </trkpt>
      <trkpt lat="43.958244016394019" lon="7.713758032768965">
        <ele>859.08000000000004</ele>
        <time>2025-05-19T08:51:46Z</time>
      </trkpt>
      <trkpt lat="43.958350969478488" lon="7.713788961991668">
        <ele>860.03999999999996</ele>
        <time>2025-05-19T08:51:47Z</time>
      </trkpt>
      <trkpt lat="43.958536963909864" lon="7.713849982246757">
        <ele>861</ele>
        <time>2025-05-19T08:51:49Z</time>
      </trkpt>
      <trkpt lat="43.958601001650095" lon="7.713945033028722">
        <ele>861.96000000000004</ele>
        <time>2025-05-19T08:51:50Z</time>
      </trkpt>
      <trkpt lat="43.958660010248423" lon="7.714105965569615">
        <ele>862.91999999999996</ele>
        <time>2025-05-19T08:51:51Z</time>
      </trkpt>
      <trkpt lat="43.958660010248423" lon="7.714279973879457">
        <ele>864.36000000000001</ele>
        <time>2025-05-19T08:51:52Z</time>
      </trkpt>
      <trkpt lat="43.958660010248423" lon="7.714462028816342">
        <ele>865.32000000000005</ele>
        <time>2025-05-19T08:51:53Z</time>
      </trkpt>
      <trkpt lat="43.95859002135694" lon="7.714616004377604">
        <ele>866.28999999999996</ele>
        <time>2025-05-19T08:51:54Z</time>
      </trkpt>
      <trkpt lat="43.958522966131568" lon="7.714764028787613">
        <ele>866.76999999999998</ele>
        <time>2025-05-19T08:51:55Z</time>
      </trkpt>
      <trkpt lat="43.958453983068466" lon="7.714914986863732">
        <ele>868.21000000000004</ele>
        <time>2025-05-19T08:51:56Z</time>
      </trkpt>
      <trkpt lat="43.958349963650107" lon="7.715143980458379">
        <ele>870.13</ele>
        <time>2025-05-19T08:51:58Z</time>
      </trkpt>
      <trkpt lat="43.958337977528572" lon="7.715169964358211">
        <ele>871.57000000000005</ele>
        <time>2025-05-19T08:51:59Z</time>
      </trkpt>
      <trkpt lat="43.958325991407037" lon="7.7153380215168">
        <ele>872.52999999999997</ele>
        <time>2025-05-19T08:52:00Z</time>
      </trkpt>
      <trkpt lat="43.958319034427404" lon="7.715435000136495">
        <ele>873.98000000000002</ele>
        <time>2025-05-19T08:52:01Z</time>
      </trkpt>
      <trkpt lat="43.958333032205701" lon="7.715522004291415">
        <ele>875.41999999999996</ele>
        <time>2025-05-19T08:52:02Z</time>
      </trkpt>
      <trkpt lat="43.958364967256784" lon="7.715615965425968">
        <ele>876.86000000000001</ele>
        <time>2025-05-19T08:52:03Z</time>
      </trkpt>
      <trkpt lat="43.958393968641758" lon="7.715703975409269">
        <ele>878.29999999999995</ele>
        <time>2025-05-19T08:52:04Z</time>
      </trkpt>
      <trkpt lat="43.958409978076816" lon="7.715731970965862">
        <ele>879.74000000000001</ele>
        <time>2025-05-19T08:52:05Z</time>
      </trkpt>
      <trkpt lat="43.958468986675143" lon="7.715766001492739">
        <ele>880.71000000000004</ele>
        <time>2025-05-19T08:52:06Z</time>
      </trkpt>
      <trkpt lat="43.95854601636529" lon="7.715807994827628">
        <ele>881.66999999999996</ele>
        <time>2025-05-19T08:52:07Z</time>
      </trkpt>
      <trkpt lat="43.958646012470126" lon="7.715863985940814">
        <ele>882.63</ele>
        <time>2025-05-19T08:52:08Z</time>
      </trkpt>
      <trkpt lat="43.958754977211356" lon="7.715924000367522">
        <ele>884.07000000000005</ele>
        <time>2025-05-19T08:52:09Z</time>
      </trkpt>
      <trkpt lat="43.958852961659431" lon="7.716029025614262">
        <ele>885.50999999999999</ele>
        <time>2025-05-19T08:52:10Z</time>
      </trkpt>
      <trkpt lat="43.958932003006339" lon="7.716133967041969">
        <ele>886.47000000000003</ele>
        <time>2025-05-19T08:52:11Z</time>
      </trkpt>
      <trkpt lat="43.958995034918189" lon="7.71626103669405">
        <ele>887.90999999999997</ele>
        <time>2025-05-19T08:52:12Z</time>
      </trkpt>
      <trkpt lat="43.959015989676118" lon="7.716354997828603">
        <ele>888.88</ele>
        <time>2025-05-19T08:52:13Z</time>
      </trkpt>
      <trkpt lat="43.959016995504498" lon="7.716475026682019">
        <ele>889.84000000000003</ele>
        <time>2025-05-19T08:52:14Z</time>
      </trkpt>
      <trkpt lat="43.959008026868105" lon="7.71658499725163">
        <ele>890.79999999999995</ele>
        <time>2025-05-19T08:52:15Z</time>
      </trkpt>
      <trkpt lat="43.95899604074657" lon="7.716720029711723">
        <ele>891.75999999999999</ele>
        <time>2025-05-19T08:52:16Z</time>
      </trkpt>
      <trkpt lat="43.958982964977622" lon="7.716869981959462">
        <ele>893.20000000000005</ele>
        <time>2025-05-19T08:52:17Z</time>
      </trkpt>
      <trkpt lat="43.959001991897821" lon="7.716996967792511">
        <ele>894.15999999999997</ele>
        <time>2025-05-19T08:52:18Z</time>
      </trkpt>
      <trkpt lat="43.959023030474782" lon="7.717107022181153">
        <ele>895.12</ele>
        <time>2025-05-19T08:52:19Z</time>
      </trkpt>
      <trkpt lat="43.959039961919188" lon="7.717197965830565">
        <ele>896.09000000000003</ele>
        <time>2025-05-19T08:52:20Z</time>
      </trkpt>
      <trkpt lat="43.959065023809671" lon="7.717234008014202">
        <ele>897.04999999999995</ele>
        <time>2025-05-19T08:52:21Z</time>
      </trkpt>
      <trkpt lat="43.959138030186296" lon="7.717246999964118">
        <ele>898.00999999999999</ele>
        <time>2025-05-19T08:52:22Z</time>
      </trkpt>
      <trkpt lat="43.959231991320848" lon="7.717264015227556">
        <ele>898.97000000000003</ele>
        <time>2025-05-19T08:52:23Z</time>
      </trkpt>
      <trkpt lat="43.959333999082446" lon="7.717268038541079">
        <ele>899.45000000000005</ele>
        <time>2025-05-19T08:52:24Z</time>
      </trkpt>
      <trkpt lat="43.959447992965579" lon="7.717256974428892">
        <ele>900.40999999999997</ele>
        <time>2025-05-19T08:52:25Z</time>
      </trkpt>
      <trkpt lat="43.959566010162234" lon="7.717244988307357">
        <ele>901.37</ele>
        <time>2025-05-19T08:52:26Z</time>
      </trkpt>
      <trkpt lat="43.960424987599254" lon="7.717158989980817">
        <ele>910.02999999999997</ele>
        <time>2025-05-19T08:52:33Z</time>
      </trkpt>
      <trkpt lat="43.960568988695741" lon="7.71714499220252">
        <ele>910.99000000000001</ele>
        <time>2025-05-19T08:52:34Z</time>
      </trkpt>
      <trkpt lat="43.960660016164184" lon="7.717185979709029">
        <ele>911.95000000000005</ele>
        <time>2025-05-19T08:52:35Z</time>
      </trkpt>
      <trkpt lat="43.960780967026949" lon="7.717241970822215">
        <ele>912.90999999999997</ele>
        <time>2025-05-19T08:52:36Z</time>
      </trkpt>
      <trkpt lat="43.960892027243972" lon="7.717324029654265">
        <ele>913.87</ele>
        <time>2025-05-19T08:52:37Z</time>
      </trkpt>
      <trkpt lat="43.960989005863667" lon="7.717435006052256">
        <ele>914.83000000000004</ele>
        <time>2025-05-19T08:52:38Z</time>
      </trkpt>
      <trkpt lat="43.9610839728266" lon="7.717543970793486">
        <ele>916.26999999999998</ele>
        <time>2025-05-19T08:52:39Z</time>
      </trkpt>
      <trkpt lat="43.961173994466662" lon="7.717646984383464">
        <ele>917.24000000000001</ele>
        <time>2025-05-19T08:52:40Z</time>
      </trkpt>
      <trkpt lat="43.961252029985189" lon="7.717738011851907">
        <ele>918.20000000000005</ele>
        <time>2025-05-19T08:52:41Z</time>
      </trkpt>
      <trkpt lat="43.961330987513065" lon="7.717794002965093">
        <ele>919.15999999999997</ele>
        <time>2025-05-19T08:52:42Z</time>
      </trkpt>
      <trkpt lat="43.961398964747787" lon="7.717827027663589">
        <ele>920.12</ele>
        <time>2025-05-19T08:52:43Z</time>
      </trkpt>
      <trkpt lat="43.961469959467649" lon="7.717799032106996">
        <ele>921.08000000000004</ele>
        <time>2025-05-19T08:52:44Z</time>
      </trkpt>
      <trkpt lat="43.961543971672654" lon="7.717756032943726">
        <ele>922.03999999999996</ele>
        <time>2025-05-19T08:52:45Z</time>
      </trkpt>
      <trkpt lat="43.96161999553442" lon="7.71766098216176">
        <ele>923</ele>
        <time>2025-05-19T08:52:46Z</time>
      </trkpt>
      <trkpt lat="43.961703982204199" lon="7.717556040734053">
        <ele>923.96000000000004</ele>
        <time>2025-05-19T08:52:47Z</time>
      </trkpt>
      <trkpt lat="43.96187799051404" lon="7.717339033260942">
        <ele>925.40999999999997</ele>
        <time>2025-05-19T08:52:49Z</time>
      </trkpt>
      <trkpt lat="43.961971029639244" lon="7.717225039377809">
        <ele>926.37</ele>
        <time>2025-05-19T08:52:50Z</time>
      </trkpt>
      <trkpt lat="43.962452989071608" lon="7.71679999306798">
        <ele>931.64999999999998</ele>
        <time>2025-05-19T08:52:55Z</time>
      </trkpt>
      <trkpt lat="43.962518032640219" lon="7.716730004176498">
        <ele>933.10000000000002</ele>
        <time>2025-05-19T08:52:56Z</time>
      </trkpt>
      <trkpt lat="43.962654992938042" lon="7.716502016410232">
        <ele>936.46000000000004</ele>
        <time>2025-05-19T08:52:59Z</time>
      </trkpt>
      <trkpt lat="43.962708972394466" lon="7.716421969234943">
        <ele>937.41999999999996</ele>
        <time>2025-05-19T08:53:00Z</time>
      </trkpt>
      <trkpt lat="43.962875017896295" lon="7.716267993673682">
        <ele>940.30999999999995</ele>
        <time>2025-05-19T08:53:02Z</time>
      </trkpt>
      <trkpt lat="43.963797027245164" lon="7.715435000136495">
        <ele>953.76999999999998</ele>
        <time>2025-05-19T08:53:11Z</time>
      </trkpt>
      <trkpt lat="43.964373031631112" lon="7.715008025988936">
        <ele>962.89999999999998</ele>
        <time>2025-05-19T08:53:17Z</time>
      </trkpt>
      <trkpt lat="43.964446038007736" lon="7.714998973533511">
        <ele>964.34000000000003</ele>
        <time>2025-05-19T08:53:18Z</time>
      </trkpt>
      <trkpt lat="43.964504040777683" lon="7.714998973533511">
        <ele>965.77999999999997</ele>
        <time>2025-05-19T08:53:19Z</time>
      </trkpt>
      <trkpt lat="43.964553996920586" lon="7.71508296020329">
        <ele>967.22000000000003</ele>
        <time>2025-05-19T08:53:20Z</time>
      </trkpt>
      <trkpt lat="43.964581992477179" lon="7.715149009600282">
        <ele>968.17999999999995</ele>
        <time>2025-05-19T08:53:21Z</time>
      </trkpt>
      <trkpt lat="43.964581992477179" lon="7.715149009600282">
        <ele>969.63</ele>
        <time>2025-05-19T08:53:22Z</time>
      </trkpt>
      <trkpt lat="43.964574029669166" lon="7.715300973504782">
        <ele>971.54999999999995</ele>
        <time>2025-05-19T08:53:23Z</time>
      </trkpt>
      <trkpt lat="43.964567994698882" lon="7.715425025671721">
        <ele>972.99000000000001</ele>
        <time>2025-05-19T08:53:24Z</time>
      </trkpt>
      <trkpt lat="43.964589033275843" lon="7.715626023709774">
        <ele>973.95000000000005</ele>
        <time>2025-05-19T08:53:25Z</time>
      </trkpt>
      <trkpt lat="43.964624991640449" lon="7.715685032308102">
        <ele>974.90999999999997</ele>
        <time>2025-05-19T08:53:26Z</time>
      </trkpt>
      <trkpt lat="43.964711995795369" lon="7.715735994279385">
        <ele>975.88</ele>
        <time>2025-05-19T08:53:27Z</time>
      </trkpt>
      <trkpt lat="43.964767986908555" lon="7.715769018977881">
        <ele>976.36000000000001</ele>
        <time>2025-05-19T08:53:28Z</time>
      </trkpt>
      <trkpt lat="43.964833030477166" lon="7.715807994827628">
        <ele>977.32000000000005</ele>
        <time>2025-05-19T08:53:29Z</time>
      </trkpt>
      <trkpt lat="43.965042997151613" lon="7.715970017015934">
        <ele>980.20000000000005</ele>
        <time>2025-05-19T08:53:32Z</time>
      </trkpt>
      <trkpt lat="43.965098988264799" lon="7.7160460408777">
        <ele>980.67999999999995</ele>
        <time>2025-05-19T08:53:33Z</time>
      </trkpt>
      <trkpt lat="43.965132012963295" lon="7.716144025325775">
        <ele>981.15999999999997</ele>
        <time>2025-05-19T08:53:34Z</time>
      </trkpt>
      <trkpt lat="43.965152967721224" lon="7.716253995895386">
        <ele>981.63999999999999</ele>
        <time>2025-05-19T08:53:35Z</time>
      </trkpt>
      <trkpt lat="43.965177023783326" lon="7.716381987556815">
        <ele>982.12</ele>
        <time>2025-05-19T08:53:36Z</time>
      </trkpt>
      <trkpt lat="43.965218011289835" lon="7.716495981439948">
        <ele>982.60000000000002</ele>
        <time>2025-05-19T08:53:37Z</time>
      </trkpt>
      <trkpt lat="43.965274002403021" lon="7.716624978929758">
        <ele>983.09000000000003</ele>
        <time>2025-05-19T08:53:38Z</time>
      </trkpt>
      <trkpt lat="43.96533502265811" lon="7.716765962541103">
        <ele>983.57000000000005</ele>
        <time>2025-05-19T08:53:39Z</time>
      </trkpt>
      <trkpt lat="43.965397970750928" lon="7.716911975294352">
        <ele>984.04999999999995</ele>
        <time>2025-05-19T08:53:40Z</time>
      </trkpt>
      <trkpt lat="43.965467037633061" lon="7.717083971947432">
        <ele>985.00999999999999</ele>
        <time>2025-05-19T08:53:41Z</time>
      </trkpt>
      <trkpt lat="43.965506013482809" lon="7.717265021055937">
        <ele>985.97000000000003</ele>
        <time>2025-05-19T08:53:42Z</time>
      </trkpt>
      <trkpt lat="43.965725032612681" lon="7.718294989317656">
        <ele>991.74000000000001</ele>
        <time>2025-05-19T08:53:48Z</time>
      </trkpt>
      <trkpt lat="43.965758979320526" lon="7.718396997079253">
        <ele>993.17999999999995</ele>
        <time>2025-05-19T08:53:49Z</time>
      </trkpt>
      <trkpt lat="43.965825028717518" lon="7.718504033982754">
        <ele>994.13999999999999</ele>
        <time>2025-05-19T08:53:50Z</time>
      </trkpt>
      <trkpt lat="43.965893005952239" lon="7.718612998723984">
        <ele>995.58000000000004</ele>
        <time>2025-05-19T08:53:51Z</time>
      </trkpt>
      <trkpt lat="43.965965006500483" lon="7.718727998435497">
        <ele>996.53999999999996</ele>
        <time>2025-05-19T08:53:52Z</time>
      </trkpt>
      <trkpt lat="43.966182013973594" lon="7.719078026711941">
        <ele>1000.39</ele>
        <time>2025-05-19T08:53:55Z</time>
      </trkpt>
      <trkpt lat="43.96623901091516" lon="7.719208030030131">
        <ele>1001.83</ele>
        <time>2025-05-19T08:53:56Z</time>
      </trkpt>
      <trkpt lat="43.966255020350218" lon="7.719352031126618">
        <ele>1003.27</ele>
        <time>2025-05-19T08:53:57Z</time>
      </trkpt>
      <trkpt lat="43.966272035613656" lon="7.719499971717596">
        <ele>1004.72</ele>
        <time>2025-05-19T08:53:58Z</time>
      </trkpt>
      <trkpt lat="43.966287961229682" lon="7.719650007784367">
        <ele>1006.16</ele>
        <time>2025-05-19T08:53:59Z</time>
      </trkpt>
      <trkpt lat="43.96630497649312" lon="7.719796020537615">
        <ele>1007.6</ele>
        <time>2025-05-19T08:54:00Z</time>
      </trkpt>
      <trkpt lat="43.966319980099797" lon="7.719933986663818">
        <ele>1009.04</ele>
        <time>2025-05-19T08:54:01Z</time>
      </trkpt>
      <trkpt lat="43.966378988698125" lon="7.720039011910558">
        <ele>1010.48</ele>
        <time>2025-05-19T08:54:02Z</time>
      </trkpt>
      <trkpt lat="43.966427017003298" lon="7.720127021893859">
        <ele>1011.9299999999999</ele>
        <time>2025-05-19T08:54:03Z</time>
      </trkpt>
      <trkpt lat="43.966530030593276" lon="7.72021695971489">
        <ele>1013.37</ele>
        <time>2025-05-19T08:54:04Z</time>
      </trkpt>
      <trkpt lat="43.966619968414307" lon="7.720298012718558">
        <ele>1014.8099999999999</ele>
        <time>2025-05-19T08:54:05Z</time>
      </trkpt>
      <trkpt lat="43.966706972569227" lon="7.720374036580324">
        <ele>1016.25</ele>
        <time>2025-05-19T08:54:06Z</time>
      </trkpt>
      <trkpt lat="43.966787019744515" lon="7.720444025471807">
        <ele>1018.17</ele>
        <time>2025-05-19T08:54:07Z</time>
      </trkpt>
      <trkpt lat="43.966848962008953" lon="7.720547961071134">
        <ele>1019.62</ele>
        <time>2025-05-19T08:54:08Z</time>
      </trkpt>
      <trkpt lat="43.966865977272391" lon="7.720696991309524">
        <ele>1020.58</ele>
        <time>2025-05-19T08:54:09Z</time>
      </trkpt>
      <trkpt lat="43.966850973665714" lon="7.720828000456095">
        <ele>1022.02</ele>
        <time>2025-05-19T08:54:10Z</time>
      </trkpt>
      <trkpt lat="43.966834964230657" lon="7.720964038744569">
        <ele>1022.98</ele>
        <time>2025-05-19T08:54:11Z</time>
      </trkpt>
      <trkpt lat="43.966768998652697" lon="7.721078032627702">
        <ele>1024.4200000000001</ele>
        <time>2025-05-19T08:54:12Z</time>
      </trkpt>
      <trkpt lat="43.966706972569227" lon="7.721184985712171">
        <ele>1025.3800000000001</ele>
        <time>2025-05-19T08:54:13Z</time>
      </trkpt>
      <trkpt lat="43.96664503030479" lon="7.721292022615671">
        <ele>1026.3399999999999</ele>
        <time>2025-05-19T08:54:14Z</time>
      </trkpt>
      <trkpt lat="43.966589961200953" lon="7.721407022327185">
        <ele>1027.3099999999999</ele>
        <time>2025-05-19T08:54:15Z</time>
      </trkpt>
      <trkpt lat="43.966556014493108" lon="7.721544988453388">
        <ele>1028.75</ele>
        <time>2025-05-19T08:54:16Z</time>
      </trkpt>
      <trkpt lat="43.966426011174917" lon="7.721965005621314">
        <ele>1032.5899999999999</ele>
        <time>2025-05-19T08:54:19Z</time>
      </trkpt>
      <trkpt lat="43.966355016455054" lon="7.722088973969221">
        <ele>1033.55</ele>
        <time>2025-05-19T08:54:20Z</time>
      </trkpt>
      <trkpt lat="43.966130968183279" lon="7.722484013065696">
        <ele>1037.8800000000001</ele>
        <time>2025-05-19T08:54:23Z</time>
      </trkpt>
      <trkpt lat="43.966095009818673" lon="7.722610998898745">
        <ele>1038.8399999999999</ele>
        <time>2025-05-19T08:54:24Z</time>
      </trkpt>
      <trkpt lat="43.966075982898474" lon="7.72275198251009">
        <ele>1040.28</ele>
        <time>2025-05-19T08:54:25Z</time>
      </trkpt>
      <trkpt lat="43.966068020090461" lon="7.722885003313422">
        <ele>1041.73</ele>
        <time>2025-05-19T08:54:26Z</time>
      </trkpt>
      <trkpt lat="43.966090986505151" lon="7.723024981096387">
        <ele>1043.1700000000001</ele>
        <time>2025-05-19T08:54:27Z</time>
      </trkpt>
      <trkpt lat="43.966114036738873" lon="7.723121037706733">
        <ele>1044.6099999999999</ele>
        <time>2025-05-19T08:54:28Z</time>
      </trkpt>
      <trkpt lat="43.96617597900331" lon="7.723208041861653">
        <ele>1045.5699999999999</ele>
        <time>2025-05-19T08:54:29Z</time>
      </trkpt>
      <trkpt lat="43.966244962066412" lon="7.723283981904388">
        <ele>1047.01</ele>
        <time>2025-05-19T08:54:30Z</time>
      </trkpt>
      <trkpt lat="43.96675399504602" lon="7.723711039870977">
        <ele>1052.3</ele>
        <time>2025-05-19T08:54:35Z</time>
      </trkpt>
      <trkpt lat="43.966835970059037" lon="7.723813969641924">
        <ele>1053.26</ele>
        <time>2025-05-19T08:54:36Z</time>
      </trkpt>
      <trkpt lat="43.9669069647789" lon="7.723901979625225">
        <ele>1054.22</ele>
        <time>2025-05-19T08:54:37Z</time>
      </trkpt>
      <trkpt lat="43.966942001134157" lon="7.723946990445256">
        <ele>1055.1800000000001</ele>
        <time>2025-05-19T08:54:38Z</time>
      </trkpt>
      <trkpt lat="43.967063035815954" lon="7.723970962688327">
        <ele>1056.1500000000001</ele>
        <time>2025-05-19T08:54:39Z</time>
      </trkpt>
      <trkpt lat="43.967164037749171" lon="7.723990995436907">
        <ele>1057.1099999999999</ele>
        <time>2025-05-19T08:54:40Z</time>
      </trkpt>
      <trkpt lat="43.967276019975543" lon="7.724013039842248">
        <ele>1058.0699999999999</ele>
        <time>2025-05-19T08:54:41Z</time>
      </trkpt>
      <trkpt lat="43.967394037172198" lon="7.724037012085319">
        <ele>1059.03</ele>
        <time>2025-05-19T08:54:42Z</time>
      </trkpt>
      <trkpt lat="43.967826040461659" lon="7.724181013181806">
        <ele>1063.3599999999999</ele>
        <time>2025-05-19T08:54:46Z</time>
      </trkpt>
      <trkpt lat="43.967901980504394" lon="7.724229963496327">
        <ele>1063.8399999999999</ele>
        <time>2025-05-19T08:54:47Z</time>
      </trkpt>
      <trkpt lat="43.967940034344792" lon="7.724329959601164">
        <ele>1064.8</ele>
        <time>2025-05-19T08:54:48Z</time>
      </trkpt>
      <trkpt lat="43.967951014637947" lon="7.724418975412846">
        <ele>1065.76</ele>
        <time>2025-05-19T08:54:49Z</time>
      </trkpt>
      <trkpt lat="43.967951014637947" lon="7.724572028964758">
        <ele>1067.2</ele>
        <time>2025-05-19T08:54:50Z</time>
      </trkpt>
      <trkpt lat="43.967951014637947" lon="7.724713012576103">
        <ele>1068.1600000000001</ele>
        <time>2025-05-19T08:54:51Z</time>
      </trkpt>
      <trkpt lat="43.967951014637947" lon="7.725017024204135">
        <ele>1070.5699999999999</ele>
        <time>2025-05-19T08:54:53Z</time>
      </trkpt>
      <trkpt lat="43.96795897744596" lon="7.725340984761715">
        <ele>1072.49</ele>
        <time>2025-05-19T08:54:55Z</time>
      </trkpt>
      <trkpt lat="43.967990996316075" lon="7.725509963929653">
        <ele>1073.45</ele>
        <time>2025-05-19T08:54:56Z</time>
      </trkpt>
      <trkpt lat="43.968084035441279" lon="7.726051015779376">
        <ele>1077.78</ele>
        <time>2025-05-19T08:54:59Z</time>
      </trkpt>
      <trkpt lat="43.968097027391195" lon="7.726227035745978">
        <ele>1079.22</ele>
        <time>2025-05-19T08:55:00Z</time>
      </trkpt>
      <trkpt lat="43.968116976320744" lon="7.726513026282191">
        <ele>1082.5799999999999</ele>
        <time>2025-05-19T08:55:02Z</time>
      </trkpt>
      <trkpt lat="43.968134997412562" lon="7.726607993245125">
        <ele>1084.02</ele>
        <time>2025-05-19T08:55:03Z</time>
      </trkpt>
      <trkpt lat="43.968181014060974" lon="7.726688962429762">
        <ele>1084.99</ele>
        <time>2025-05-19T08:55:04Z</time>
      </trkpt>
      <trkpt lat="43.968233987689018" lon="7.72674503736198">
        <ele>1086.4300000000001</ele>
        <time>2025-05-19T08:55:05Z</time>
      </trkpt>
      <trkpt lat="43.968316968530416" lon="7.726774960756302">
        <ele>1087.3900000000001</ele>
        <time>2025-05-19T08:55:06Z</time>
      </trkpt>
      <trkpt lat="43.968402966856956" lon="7.726805973798037">
        <ele>1088.3499999999999</ele>
        <time>2025-05-19T08:55:07Z</time>
      </trkpt>
      <trkpt lat="43.968479996547103" lon="7.726832963526249">
        <ele>1089.3099999999999</ele>
        <time>2025-05-19T08:55:08Z</time>
      </trkpt>
      <trkpt lat="43.968541016802192" lon="7.726906975731254">
        <ele>1090.27</ele>
        <time>2025-05-19T08:55:09Z</time>
      </trkpt>
      <trkpt lat="43.968569012358785" lon="7.727014012634754">
        <ele>1091.23</ele>
        <time>2025-05-19T08:55:10Z</time>
      </trkpt>
      <trkpt lat="43.968556020408869" lon="7.727124989032745">
        <ele>1091.71</ele>
        <time>2025-05-19T08:55:11Z</time>
      </trkpt>
      <trkpt lat="43.968518972396851" lon="7.727235965430737">
        <ele>1092.6800000000001</ele>
        <time>2025-05-19T08:55:12Z</time>
      </trkpt>
      <trkpt lat="43.968462981283665" lon="7.727355994284153">
        <ele>1093.1600000000001</ele>
        <time>2025-05-19T08:55:13Z</time>
      </trkpt>
      <trkpt lat="43.968401039019227" lon="7.727487003430724">
        <ele>1093.6400000000001</ele>
        <time>2025-05-19T08:55:14Z</time>
      </trkpt>
      <trkpt lat="43.968368014320731" lon="7.727657994255424">
        <ele>1094.5999999999999</ele>
        <time>2025-05-19T08:55:15Z</time>
      </trkpt>
      <trkpt lat="43.968335995450616" lon="7.727824961766601">
        <ele>1095.0799999999999</ele>
        <time>2025-05-19T08:55:16Z</time>
      </trkpt>
      <trkpt lat="43.968306994065642" lon="7.727977009490132">
        <ele>1096.04</ele>
        <time>2025-05-19T08:55:17Z</time>
      </trkpt>
      <trkpt lat="43.968281010165811" lon="7.728109024465084">
        <ele>1097.48</ele>
        <time>2025-05-19T08:55:18Z</time>
      </trkpt>
      <trkpt lat="43.96823700517416" lon="7.72820801474154">
        <ele>1097.96</ele>
        <time>2025-05-19T08:55:19Z</time>
      </trkpt>
      <trkpt lat="43.968177996575832" lon="7.728298958390951">
        <ele>1098.9200000000001</ele>
        <time>2025-05-19T08:55:20Z</time>
      </trkpt>
      <trkpt lat="43.968113958835602" lon="7.728398032486439">
        <ele>1099.8900000000001</ele>
        <time>2025-05-19T08:55:21Z</time>
      </trkpt>
      <trkpt lat="43.968050004914403" lon="7.728496016934514">
        <ele>1101.3299999999999</ele>
        <time>2025-05-19T08:55:22Z</time>
      </trkpt>
      <trkpt lat="43.968024021014571" lon="7.728616967797279">
        <ele>1102.29</ele>
        <time>2025-05-19T08:55:23Z</time>
      </trkpt>
      <trkpt lat="43.968008011579514" lon="7.728741019964218">
        <ele>1103.25</ele>
        <time>2025-05-19T08:55:24Z</time>
      </trkpt>
      <trkpt lat="43.967990996316075" lon="7.728874962776899">
        <ele>1104.6900000000001</ele>
        <time>2025-05-19T08:55:25Z</time>
      </trkpt>
      <trkpt lat="43.967951014637947" lon="7.729180986061692">
        <ele>1107.0999999999999</ele>
        <time>2025-05-19T08:55:27Z</time>
      </trkpt>
      <trkpt lat="43.967870967462659" lon="7.72962799295783">
        <ele>1110.46</ele>
        <time>2025-05-19T08:55:30Z</time>
      </trkpt>
      <trkpt lat="43.967879014089704" lon="7.729791020974517">
        <ele>1111.9000000000001</ele>
        <time>2025-05-19T08:55:31Z</time>
      </trkpt>
      <trkpt lat="43.967885971069336" lon="7.730138031765819">
        <ele>1114.3099999999999</ele>
        <time>2025-05-19T08:55:33Z</time>
      </trkpt>
      <trkpt lat="43.967882031574845" lon="7.730322014540434">
        <ele>1116.23</ele>
        <time>2025-05-19T08:55:34Z</time>
      </trkpt>
      <trkpt lat="43.967865016311407" lon="7.730513038113713">
        <ele>1117.6700000000001</ele>
        <time>2025-05-19T08:55:35Z</time>
      </trkpt>
      <trkpt lat="43.967800978571177" lon="7.730962978675962">
        <ele>1122</ele>
        <time>2025-05-19T08:55:38Z</time>
      </trkpt>
      <trkpt lat="43.967820005491376" lon="7.731132041662931">
        <ele>1123.4400000000001</ele>
        <time>2025-05-19T08:55:39Z</time>
      </trkpt>
      <trkpt lat="43.967836014926434" lon="7.731271013617516">
        <ele>1124.4000000000001</ele>
        <time>2025-05-19T08:55:40Z</time>
      </trkpt>
      <trkpt lat="43.967941962182522" lon="7.732151029631496">
        <ele>1127.76</ele>
        <time>2025-05-19T08:55:47Z</time>
      </trkpt>
      <trkpt lat="43.967951014637947" lon="7.732294024899602">
        <ele>1127.28</ele>
        <time>2025-05-19T08:55:48Z</time>
      </trkpt>
      <trkpt lat="43.967929976060987" lon="7.732424028217793">
        <ele>1127.28</ele>
        <time>2025-05-19T08:55:49Z</time>
      </trkpt>
      <trkpt lat="43.967757979407907" lon="7.733544018119574">
        <ele>1126.3199999999999</ele>
        <time>2025-05-19T08:55:56Z</time>
      </trkpt>
      <trkpt lat="43.967757979407907" lon="7.733696987852454">
        <ele>1125.8399999999999</ele>
        <time>2025-05-19T08:55:57Z</time>
      </trkpt>
      <trkpt lat="43.967757979407907" lon="7.733847023919225">
        <ele>1125.8399999999999</ele>
        <time>2025-05-19T08:55:58Z</time>
      </trkpt>
      <trkpt lat="43.967739958316088" lon="7.733993036672473">
        <ele>1125.8399999999999</ele>
        <time>2025-05-19T08:55:59Z</time>
      </trkpt>
      <trkpt lat="43.967701988294721" lon="7.734141983091831">
        <ele>1125.8399999999999</ele>
        <time>2025-05-19T08:56:00Z</time>
      </trkpt>
      <trkpt lat="43.967663012444973" lon="7.734295958653092">
        <ele>1125.3599999999999</ele>
        <time>2025-05-19T08:56:01Z</time>
      </trkpt>
      <trkpt lat="43.967623030766845" lon="7.734449012205005">
        <ele>1124.8800000000001</ele>
        <time>2025-05-19T08:56:02Z</time>
      </trkpt>
      <trkpt lat="43.967583971098065" lon="7.734599970281124">
        <ele>1124.8800000000001</ele>
        <time>2025-05-19T08:56:03Z</time>
      </trkpt>
      <trkpt lat="43.967543989419937" lon="7.734769033268094">
        <ele>1124.4000000000001</ele>
        <time>2025-05-19T08:56:04Z</time>
      </trkpt>
      <trkpt lat="43.967559998854995" lon="7.734938012436032">
        <ele>1124.4000000000001</ele>
        <time>2025-05-19T08:56:05Z</time>
      </trkpt>
      <trkpt lat="43.967575002461672" lon="7.735107997432351">
        <ele>1123.9200000000001</ele>
        <time>2025-05-19T08:56:06Z</time>
      </trkpt>
      <trkpt lat="43.967591011896729" lon="7.735279994085431">
        <ele>1123.4400000000001</ele>
        <time>2025-05-19T08:56:07Z</time>
      </trkpt>
      <trkpt lat="43.967650020495057" lon="7.73592003621161">
        <ele>1122</ele>
        <time>2025-05-19T08:56:12Z</time>
      </trkpt>
      <trkpt lat="43.967778012156487" lon="7.736111981794238">
        <ele>1122</ele>
        <time>2025-05-19T08:56:13Z</time>
      </trkpt>
      <trkpt lat="43.967822017148137" lon="7.73617803119123">
        <ele>1121.52</ele>
        <time>2025-05-19T08:56:14Z</time>
      </trkpt>
      <trkpt lat="43.967822017148137" lon="7.73617803119123">
        <ele>1121.52</ele>
        <time>2025-05-19T08:56:15Z</time>
      </trkpt>
      <trkpt lat="43.967903992161155" lon="7.736173002049327">
        <ele>1121.52</ele>
        <time>2025-05-19T08:56:16Z</time>
      </trkpt>
      <trkpt lat="43.967987978830934" lon="7.736167972907424">
        <ele>1121.03</ele>
        <time>2025-05-19T08:56:17Z</time>
      </trkpt>
      <trkpt lat="43.968078000470996" lon="7.736163027584553">
        <ele>1121.03</ele>
        <time>2025-05-19T08:56:18Z</time>
      </trkpt>
      <trkpt lat="43.968223007395864" lon="7.736169984564185">
        <ele>1120.55</ele>
        <time>2025-05-19T08:56:19Z</time>
      </trkpt>
      <trkpt lat="43.968318980187178" lon="7.736205020919442">
        <ele>1120.0699999999999</ele>
        <time>2025-05-19T08:56:20Z</time>
      </trkpt>
      <trkpt lat="43.968358961865306" lon="7.736220024526119">
        <ele>1119.5899999999999</ele>
        <time>2025-05-19T08:56:22Z</time>
      </trkpt>
      <trkpt lat="43.968444038182497" lon="7.736564017832279">
        <ele>1119.5899999999999</ele>
        <time>2025-05-19T08:56:23Z</time>
      </trkpt>
      <trkpt lat="43.968439009040594" lon="7.736543985083699">
        <ele>1119.5899999999999</ele>
        <time>2025-05-19T08:56:24Z</time>
      </trkpt>
      <trkpt lat="43.968493994325399" lon="7.736639035865665">
        <ele>1120.0699999999999</ele>
        <time>2025-05-19T08:56:25Z</time>
      </trkpt>
      <trkpt lat="43.968530036509037" lon="7.736693015322089">
        <ele>1120.55</ele>
        <time>2025-05-19T08:56:26Z</time>
      </trkpt>
      <trkpt lat="43.968620980158448" lon="7.736749006435275">
        <ele>1120.55</ele>
        <time>2025-05-19T08:56:27Z</time>
      </trkpt>
      <trkpt lat="43.968698009848595" lon="7.736795023083687">
        <ele>1121.03</ele>
        <time>2025-05-19T08:56:28Z</time>
      </trkpt>
      <trkpt lat="43.968779984861612" lon="7.73684598505497">
        <ele>1121.52</ele>
        <time>2025-05-19T08:56:29Z</time>
      </trkpt>
      <trkpt lat="43.968863971531391" lon="7.736882027238607">
        <ele>1121.52</ele>
        <time>2025-05-19T08:56:30Z</time>
      </trkpt>
      <trkpt lat="43.968966985121369" lon="7.736916979774833">
        <ele>1121.52</ele>
        <time>2025-05-19T08:56:31Z</time>
      </trkpt>
      <trkpt lat="43.969048960134387" lon="7.73697598837316">
        <ele>1122</ele>
        <time>2025-05-19T08:56:32Z</time>
      </trkpt>
      <trkpt lat="43.969126995652914" lon="7.737054023891687">
        <ele>1122</ele>
        <time>2025-05-19T08:56:33Z</time>
      </trkpt>
      <trkpt lat="43.969237972050905" lon="7.737165000289679">
        <ele>1122.48</ele>
        <time>2025-05-19T08:56:34Z</time>
      </trkpt>
      <trkpt lat="43.969710040837526" lon="7.737529026344419">
        <ele>1123.9200000000001</ele>
        <time>2025-05-19T08:56:40Z</time>
      </trkpt>
      <trkpt lat="43.969710040837526" lon="7.737529026344419">
        <ele>1124.4000000000001</ele>
        <time>2025-05-19T08:56:41Z</time>
      </trkpt>
      <trkpt lat="43.96978497505188" lon="7.737764976918697">
        <ele>1125.3599999999999</ele>
        <time>2025-05-19T08:56:42Z</time>
      </trkpt>
      <trkpt lat="43.969824034720659" lon="7.737885005772114">
        <ele>1126.8</ele>
        <time>2025-05-19T08:56:43Z</time>
      </trkpt>
      <trkpt lat="43.969864016398787" lon="7.738010985776782">
        <ele>1128.24</ele>
        <time>2025-05-19T08:56:44Z</time>
      </trkpt>
      <trkpt lat="43.969907015562057" lon="7.738147024065256">
        <ele>1128.73</ele>
        <time>2025-05-19T08:56:45Z</time>
      </trkpt>
      <trkpt lat="43.969946997240186" lon="7.738274009898305">
        <ele>1129.21</ele>
        <time>2025-05-19T08:56:46Z</time>
      </trkpt>
      <trkpt lat="43.970011034980416" lon="7.738474002107978">
        <ele>1130.1700000000001</ele>
        <time>2025-05-19T08:56:47Z</time>
      </trkpt>
      <trkpt lat="43.970011034980416" lon="7.738474002107978">
        <ele>1131.1300000000001</ele>
        <time>2025-05-19T08:56:48Z</time>
      </trkpt>
      <trkpt lat="43.969989996403456" lon="7.738503003492951">
        <ele>1131.6099999999999</ele>
        <time>2025-05-19T08:56:49Z</time>
      </trkpt>
      <trkpt lat="43.96993400529027" lon="7.738581039011478">
        <ele>1131.6099999999999</ele>
        <time>2025-05-19T08:56:50Z</time>
      </trkpt>
      <trkpt lat="43.969835015013814" lon="7.738619009032846">
        <ele>1132.0899999999999</ele>
        <time>2025-05-19T08:56:51Z</time>
      </trkpt>
      <trkpt lat="43.969735018908978" lon="7.738612974062562">
        <ele>1131.6099999999999</ele>
        <time>2025-05-19T08:56:52Z</time>
      </trkpt>
      <trkpt lat="43.969609960913658" lon="7.738604005426168">
        <ele>1130.6500000000001</ele>
        <time>2025-05-19T08:56:53Z</time>
      </trkpt>
      <trkpt lat="43.969303015619516" lon="7.738558994606137">
        <ele>1127.28</ele>
        <time>2025-05-19T08:56:55Z</time>
      </trkpt>
      <trkpt lat="43.969024987891316" lon="7.738575004041195">
        <ele>1124.8800000000001</ele>
        <time>2025-05-19T08:56:57Z</time>
      </trkpt>
      <trkpt lat="43.968750983476639" lon="7.738591013476253">
        <ele>1122.96</ele>
        <time>2025-05-19T08:56:59Z</time>
      </trkpt>
      <trkpt lat="43.968618968501687" lon="7.738597970455885">
        <ele>1122</ele>
        <time>2025-05-19T08:57:00Z</time>
      </trkpt>
      <trkpt lat="43.968477984890342" lon="7.738641975447536">
        <ele>1121.03</ele>
        <time>2025-05-19T08:57:01Z</time>
      </trkpt>
      <trkpt lat="43.968363991007209" lon="7.738705007359386">
        <ele>1120.0699999999999</ele>
        <time>2025-05-19T08:57:02Z</time>
      </trkpt>
      <trkpt lat="43.968244967982173" lon="7.738789999857545">
        <ele>1119.1099999999999</ele>
        <time>2025-05-19T08:57:03Z</time>
      </trkpt>
      <trkpt lat="43.968132985755801" lon="7.738883038982749">
        <ele>1118.1500000000001</ele>
        <time>2025-05-19T08:57:04Z</time>
      </trkpt>
      <trkpt lat="43.968025026842952" lon="7.738992003723979">
        <ele>1117.1900000000001</ele>
        <time>2025-05-19T08:57:05Z</time>
      </trkpt>
      <trkpt lat="43.967937016859651" lon="7.739117983728647">
        <ele>1115.75</ele>
        <time>2025-05-19T08:57:06Z</time>
      </trkpt>
      <trkpt lat="43.967652032151818" lon="7.739481003955007">
        <ele>1113.3399999999999</ele>
        <time>2025-05-19T08:57:09Z</time>
      </trkpt>
      <trkpt lat="43.967466037720442" lon="7.739666998386383">
        <ele>1111.4200000000001</ele>
        <time>2025-05-19T08:57:11Z</time>
      </trkpt>
      <trkpt lat="43.967425972223282" lon="7.739794990047813">
        <ele>1110.46</ele>
        <time>2025-05-19T08:57:12Z</time>
      </trkpt>
      <trkpt lat="43.967392025515437" lon="7.739929016679525">
        <ele>1109.02</ele>
        <time>2025-05-19T08:57:13Z</time>
      </trkpt>
      <trkpt lat="43.967322958633304" lon="7.740193968638778">
        <ele>1106.6099999999999</ele>
        <time>2025-05-19T08:57:15Z</time>
      </trkpt>
      <trkpt lat="43.967292029410601" lon="7.740313997492194">
        <ele>1105.6500000000001</ele>
        <time>2025-05-19T08:57:16Z</time>
      </trkpt>
      <trkpt lat="43.967240983620286" lon="7.740383986383677">
        <ele>1104.6900000000001</ele>
        <time>2025-05-19T08:57:17Z</time>
      </trkpt>
      <trkpt lat="43.967185998335481" lon="7.740439977496862">
        <ele>1103.73</ele>
        <time>2025-05-19T08:57:18Z</time>
      </trkpt>
      <trkpt lat="43.967178035527468" lon="7.740448024123907">
        <ele>1102.29</ele>
        <time>2025-05-19T08:57:19Z</time>
      </trkpt>
      <trkpt lat="43.967060018330812" lon="7.740473002195358">
        <ele>1101.3299999999999</ele>
        <time>2025-05-19T08:57:20Z</time>
      </trkpt>
      <trkpt lat="43.966973014175892" lon="7.740491023287177">
        <ele>1100.3699999999999</ele>
        <time>2025-05-19T08:57:21Z</time>
      </trkpt>
      <trkpt lat="43.966850973665714" lon="7.740551959723234">
        <ele>1099.4000000000001</ele>
        <time>2025-05-19T08:57:22Z</time>
      </trkpt>
      <trkpt lat="43.966804035007954" lon="7.740623038262129">
        <ele>1097.96</ele>
        <time>2025-05-19T08:57:23Z</time>
      </trkpt>
      <trkpt lat="43.966804035007954" lon="7.740757986903191">
        <ele>1097.48</ele>
        <time>2025-05-19T08:57:24Z</time>
      </trkpt>
      <trkpt lat="43.966801017522812" lon="7.741154031828046">
        <ele>1095.0799999999999</ele>
        <time>2025-05-19T08:57:28Z</time>
      </trkpt>
      <trkpt lat="43.966757012531161" lon="7.741258973255754">
        <ele>1094.5999999999999</ele>
        <time>2025-05-19T08:57:29Z</time>
      </trkpt>
      <trkpt lat="43.966708984225988" lon="7.741374978795648">
        <ele>1093.6400000000001</ele>
        <time>2025-05-19T08:57:30Z</time>
      </trkpt>
      <trkpt lat="43.966692974790931" lon="7.741506993770599">
        <ele>1092.6800000000001</ele>
        <time>2025-05-19T08:57:31Z</time>
      </trkpt>
      <trkpt lat="43.966708984225988" lon="7.741633979603648">
        <ele>1092.2</ele>
        <time>2025-05-19T08:57:32Z</time>
      </trkpt>
      <trkpt lat="43.966724993661046" lon="7.741764988750219">
        <ele>1091.23</ele>
        <time>2025-05-19T08:57:33Z</time>
      </trkpt>
      <trkpt lat="43.966748965904117" lon="7.742062965407968">
        <ele>1089.79</ele>
        <time>2025-05-19T08:57:35Z</time>
      </trkpt>
      <trkpt lat="43.966748965904117" lon="7.742200009524822">
        <ele>1088.8299999999999</ele>
        <time>2025-05-19T08:57:36Z</time>
      </trkpt>
      <trkpt lat="43.966748965904117" lon="7.74232498370111">
        <ele>1087.8699999999999</ele>
        <time>2025-05-19T08:57:37Z</time>
      </trkpt>
      <trkpt lat="43.966748965904117" lon="7.742438977584243">
        <ele>1087.3900000000001</ele>
        <time>2025-05-19T08:57:38Z</time>
      </trkpt>
      <trkpt lat="43.966748965904117" lon="7.742550037801266">
        <ele>1086.4300000000001</ele>
        <time>2025-05-19T08:57:39Z</time>
      </trkpt>
      <trkpt lat="43.966771010309458" lon="7.74260401725769">
        <ele>1085.47</ele>
        <time>2025-05-19T08:57:40Z</time>
      </trkpt>
      <trkpt lat="43.966825995594263" lon="7.742665959522128">
        <ele>1084.5</ele>
        <time>2025-05-19T08:57:41Z</time>
      </trkpt>
      <trkpt lat="43.966933032497764" lon="7.742653973400593">
        <ele>1084.02</ele>
        <time>2025-05-19T08:57:42Z</time>
      </trkpt>
      <trkpt lat="43.967031016945839" lon="7.742608962580562">
        <ele>1083.0599999999999</ele>
        <time>2025-05-19T08:57:43Z</time>
      </trkpt>
      <trkpt lat="43.96714098751545" lon="7.742558000609279">
        <ele>1082.0999999999999</ele>
        <time>2025-05-19T08:57:44Z</time>
      </trkpt>
      <trkpt lat="43.967259004712105" lon="7.742507038637996">
        <ele>1081.1400000000001</ele>
        <time>2025-05-19T08:57:45Z</time>
      </trkpt>
      <trkpt lat="43.967388002201915" lon="7.742450963705778">
        <ele>1079.7</ele>
        <time>2025-05-19T08:57:46Z</time>
      </trkpt>
      <trkpt lat="43.967456985265017" lon="7.742421962320805">
        <ele>1078.74</ele>
        <time>2025-05-19T08:57:47Z</time>
      </trkpt>
      <trkpt lat="43.967456985265017" lon="7.742421962320805">
        <ele>1077.29</ele>
        <time>2025-05-19T08:57:48Z</time>
      </trkpt>
      <trkpt lat="43.967653959989548" lon="7.742499997839332">
        <ele>1076.3299999999999</ele>
        <time>2025-05-19T08:57:49Z</time>
      </trkpt>
      <trkpt lat="43.967671981081367" lon="7.742507960647345">
        <ele>1074.8900000000001</ele>
        <time>2025-05-19T08:57:50Z</time>
      </trkpt>
      <trkpt lat="43.967671981081367" lon="7.742507960647345">
        <ele>1073.45</ele>
        <time>2025-05-19T08:57:51Z</time>
      </trkpt>
      <trkpt lat="43.967671981081367" lon="7.742507960647345">
        <ele>1072.49</ele>
        <time>2025-05-19T08:57:52Z</time>
      </trkpt>
      <trkpt lat="43.967677010223269" lon="7.742550959810615">
        <ele>1071.05</ele>
        <time>2025-05-19T08:57:53Z</time>
      </trkpt>
      <trkpt lat="43.967682039365172" lon="7.742597982287407">
        <ele>1070.0799999999999</ele>
        <time>2025-05-19T08:57:54Z</time>
      </trkpt>
      <trkpt lat="43.967688996344805" lon="7.742661014199257">
        <ele>1068.6400000000001</ele>
        <time>2025-05-19T08:57:55Z</time>
      </trkpt>
      <trkpt lat="43.967693019658327" lon="7.742700995877385">
        <ele>1067.2</ele>
        <time>2025-05-19T08:57:56Z</time>
      </trkpt>
      <trkpt lat="43.967693019658327" lon="7.742700995877385">
        <ele>1066.24</ele>
        <time>2025-05-19T08:57:57Z</time>
      </trkpt>
      <trkpt lat="43.967611966654658" lon="7.743545975536108">
        <ele>1060.95</ele>
        <time>2025-05-19T08:58:03Z</time>
      </trkpt>
      <trkpt lat="43.967684973031282" lon="7.743855016306043">
        <ele>1058.0699999999999</ele>
        <time>2025-05-19T08:58:07Z</time>
      </trkpt>
      <trkpt lat="43.967703999951482" lon="7.743931962177157">
        <ele>1057.1099999999999</ele>
        <time>2025-05-19T08:58:08Z</time>
      </trkpt>
      <trkpt lat="43.967726966366172" lon="7.744031036272645">
        <ele>1055.6700000000001</ele>
        <time>2025-05-19T08:58:09Z</time>
      </trkpt>
      <trkpt lat="43.967922013252974" lon="7.744206972420216">
        <ele>1054.7</ele>
        <time>2025-05-19T08:58:10Z</time>
      </trkpt>
      <trkpt lat="43.967911032959819" lon="7.744203032925725">
        <ele>1052.78</ele>
        <time>2025-05-19T08:58:11Z</time>
      </trkpt>
      <trkpt lat="43.968057967722416" lon="7.744246032088995">
        <ele>1051.8199999999999</ele>
        <time>2025-05-19T08:58:12Z</time>
      </trkpt>
      <trkpt lat="43.968128962442279" lon="7.744201021268964">
        <ele>1050.3800000000001</ele>
        <time>2025-05-19T08:58:13Z</time>
      </trkpt>
      <trkpt lat="43.96821697242558" lon="7.744147041812539">
        <ele>1049.4200000000001</ele>
        <time>2025-05-19T08:58:14Z</time>
      </trkpt>
      <trkpt lat="43.968401039019227" lon="7.744031036272645">
        <ele>1047.97</ele>
        <time>2025-05-19T08:58:15Z</time>
      </trkpt>
      <trkpt lat="43.968508997932076" lon="7.744031036272645">
        <ele>1047.49</ele>
        <time>2025-05-19T08:58:16Z</time>
      </trkpt>
      <trkpt lat="43.968508997932076" lon="7.744031036272645">
        <ele>1047.01</ele>
        <time>2025-05-19T08:58:17Z</time>
      </trkpt>
      <trkpt lat="43.968626009300351" lon="7.744225999340415">
        <ele>1046.05</ele>
        <time>2025-05-19T08:58:18Z</time>
      </trkpt>
      <trkpt lat="43.968657022342086" lon="7.74436597712338">
        <ele>1045.5699999999999</ele>
        <time>2025-05-19T08:58:19Z</time>
      </trkpt>
      <trkpt lat="43.96868702955544" lon="7.744500003755093">
        <ele>1044.6099999999999</ele>
        <time>2025-05-19T08:58:20Z</time>
      </trkpt>
      <trkpt lat="43.968712007626891" lon="7.744613997638226">
        <ele>1044.1300000000001</ele>
        <time>2025-05-19T08:58:21Z</time>
      </trkpt>
      <trkpt lat="43.968745032325387" lon="7.744761016219854">
        <ele>1043.1700000000001</ele>
        <time>2025-05-19T08:58:22Z</time>
      </trkpt>
      <trkpt lat="43.968745032325387" lon="7.744761016219854">
        <ele>1042.21</ele>
        <time>2025-05-19T08:58:23Z</time>
      </trkpt>
      <trkpt lat="43.968874029815197" lon="7.744846008718014">
        <ele>1041.73</ele>
        <time>2025-05-19T08:58:24Z</time>
      </trkpt>
      <trkpt lat="43.968874029815197" lon="7.744846008718014">
        <ele>1040.76</ele>
        <time>2025-05-19T08:58:25Z</time>
      </trkpt>
      <trkpt lat="43.969409968703985" lon="7.744761016219854">
        <ele>1038.3599999999999</ele>
        <time>2025-05-19T08:58:29Z</time>
      </trkpt>
      <trkpt lat="43.969748010858893" lon="7.744608968496323">
        <ele>1036.4400000000001</ele>
        <time>2025-05-19T08:58:32Z</time>
      </trkpt>
      <trkpt lat="43.969839038327336" lon="7.744566975161433">
        <ele>1036.4400000000001</ele>
        <time>2025-05-19T08:58:33Z</time>
      </trkpt>
      <trkpt lat="43.969929981976748" lon="7.744631012901664">
        <ele>1035.96</ele>
        <time>2025-05-19T08:58:34Z</time>
      </trkpt>
      <trkpt lat="43.970044981688261" lon="7.74470997042954">
        <ele>1035.48</ele>
        <time>2025-05-19T08:58:35Z</time>
      </trkpt>
      <trkpt lat="43.970164004713297" lon="7.74479303508997">
        <ele>1035.48</ele>
        <time>2025-05-19T08:58:36Z</time>
      </trkpt>
      <trkpt lat="43.970272969454527" lon="7.744868975132704">
        <ele>1035</ele>
        <time>2025-05-19T08:58:37Z</time>
      </trkpt>
      <trkpt lat="43.970398027449846" lon="7.744910968467593">
        <ele>1034.04</ele>
        <time>2025-05-19T08:58:38Z</time>
      </trkpt>
      <trkpt lat="43.970515038818121" lon="7.744910968467593">
        <ele>1033.55</ele>
        <time>2025-05-19T08:58:39Z</time>
      </trkpt>
      <trkpt lat="43.970619980245829" lon="7.744910968467593">
        <ele>1032.5899999999999</ele>
        <time>2025-05-19T08:58:40Z</time>
      </trkpt>
      <trkpt lat="43.970761969685555" lon="7.744910968467593">
        <ele>1031.1500000000001</ele>
        <time>2025-05-19T08:58:41Z</time>
      </trkpt>
      <trkpt lat="43.970798011869192" lon="7.74488003924489">
        <ele>1030.1900000000001</ele>
        <time>2025-05-19T08:58:42Z</time>
      </trkpt>
      <trkpt lat="43.970893984660506" lon="7.74479697458446">
        <ele>1029.23</ele>
        <time>2025-05-19T08:58:43Z</time>
      </trkpt>
      <trkpt lat="43.970953999087214" lon="7.744681974872947">
        <ele>1028.27</ele>
        <time>2025-05-19T08:58:44Z</time>
      </trkpt>
      <trkpt lat="43.971020970493555" lon="7.744552977383137">
        <ele>1027.3099999999999</ele>
        <time>2025-05-19T08:58:45Z</time>
      </trkpt>
      <trkpt lat="43.971088025718927" lon="7.744422974064946">
        <ele>1026.3399999999999</ele>
        <time>2025-05-19T08:58:46Z</time>
      </trkpt>
      <trkpt lat="43.971157008782029" lon="7.744290037080646">
        <ele>1025.3800000000001</ele>
        <time>2025-05-19T08:58:47Z</time>
      </trkpt>
      <trkpt lat="43.971191961318254" lon="7.744223987683654">
        <ele>1024.4200000000001</ele>
        <time>2025-05-19T08:58:48Z</time>
      </trkpt>
      <trkpt lat="43.971363035961986" lon="7.744074035435915">
        <ele>1022.98</ele>
        <time>2025-05-19T08:58:49Z</time>
      </trkpt>
      <trkpt lat="43.971365969628096" lon="7.744073029607534">
        <ele>1022.02</ele>
        <time>2025-05-19T08:58:50Z</time>
      </trkpt>
      <trkpt lat="43.971493961289525" lon="7.744035981595516">
        <ele>1021.0599999999999</ele>
        <time>2025-05-19T08:58:51Z</time>
      </trkpt>
      <trkpt lat="43.971616001799703" lon="7.74406498298049">
        <ele>1020.1</ele>
        <time>2025-05-19T08:58:52Z</time>
      </trkpt>
      <trkpt lat="43.971752962097526" lon="7.744123991578817">
        <ele>1019.13</ele>
        <time>2025-05-19T08:58:53Z</time>
      </trkpt>
      <trkpt lat="43.971891012042761" lon="7.744207978248596">
        <ele>1018.17</ele>
        <time>2025-05-19T08:58:54Z</time>
      </trkpt>
      <trkpt lat="43.972023027017713" lon="7.744288025423884">
        <ele>1017.21</ele>
        <time>2025-05-19T08:58:55Z</time>
      </trkpt>
      <trkpt lat="43.972198963165283" lon="7.744395984336734">
        <ele>1016.25</ele>
        <time>2025-05-19T08:58:56Z</time>
      </trkpt>
      <trkpt lat="43.972281021997333" lon="7.744405036792159">
        <ele>1015.29</ele>
        <time>2025-05-19T08:58:57Z</time>
      </trkpt>
      <trkpt lat="43.972409013658762" lon="7.744407970458269">
        <ele>1013.85</ele>
        <time>2025-05-19T08:58:58Z</time>
      </trkpt>
      <trkpt lat="43.972543040290475" lon="7.744331024587154">
        <ele>1012.89</ele>
        <time>2025-05-19T08:58:59Z</time>
      </trkpt>
      <trkpt lat="43.97257698699832" lon="7.74425701238215">
        <ele>1011.9299999999999</ele>
        <time>2025-05-19T08:59:00Z</time>
      </trkpt>
      <trkpt lat="43.972617974504828" lon="7.74417101405561">
        <ele>1010.96</ele>
        <time>2025-05-19T08:59:01Z</time>
      </trkpt>
      <trkpt lat="43.972658962011337" lon="7.744081998243928">
        <ele>1009.04</ele>
        <time>2025-05-19T08:59:02Z</time>
      </trkpt>
      <trkpt lat="43.972692992538214" lon="7.744009997695684">
        <ele>1007.6</ele>
        <time>2025-05-19T08:59:03Z</time>
      </trkpt>
      <trkpt lat="43.972692992538214" lon="7.744009997695684">
        <ele>1002.3099999999999</ele>
        <time>2025-05-19T08:59:08Z</time>
      </trkpt>
      <trkpt lat="43.972692992538214" lon="7.744009997695684">
        <ele>1002.3099999999999</ele>
        <time>2025-05-19T08:59:09Z</time>
      </trkpt>
      <trkpt lat="43.972692992538214" lon="7.744009997695684">
        <ele>1001.83</ele>
        <time>2025-05-19T08:59:10Z</time>
      </trkpt>
      <trkpt lat="43.972800029441714" lon="7.743966998532414">
        <ele>1001.83</ele>
        <time>2025-05-19T08:59:13Z</time>
      </trkpt>
      <trkpt lat="43.973650960251689" lon="7.743000984191895">
        <ele>1004.72</ele>
        <time>2025-05-19T08:59:18Z</time>
      </trkpt>
      <trkpt lat="43.97399595938623" lon="7.742459010332823">
        <ele>1004.23</ele>
        <time>2025-05-19T08:59:23Z</time>
      </trkpt>
      <trkpt lat="43.9742979593575" lon="7.74195802398026">
        <ele>1002.79</ele>
        <time>2025-05-19T08:59:27Z</time>
      </trkpt>
      <trkpt lat="43.974495017901063" lon="7.741791978478432">
        <ele>999.90999999999997</ele>
        <time>2025-05-19T08:59:30Z</time>
      </trkpt>
      <trkpt lat="43.974913023412228" lon="7.741799019277096">
        <ele>996.53999999999996</ele>
        <time>2025-05-19T08:59:34Z</time>
      </trkpt>
      <trkpt lat="43.975461032241583" lon="7.742871986702085">
        <ele>985.00999999999999</ele>
        <time>2025-05-19T08:59:37Z</time>
      </trkpt>
      <trkpt lat="43.975461032241583" lon="7.742871986702085">
        <ele>983.57000000000005</ele>
        <time>2025-05-19T08:59:41Z</time>
      </trkpt>
      <trkpt lat="43.975567985326052" lon="7.743086982518435">
        <ele>984.04999999999995</ele>
        <time>2025-05-19T08:59:46Z</time>
      </trkpt>
      <trkpt lat="43.975567985326052" lon="7.743086982518435">
        <ele>984.04999999999995</ele>
        <time>2025-05-19T08:59:48Z</time>
      </trkpt>
      <trkpt lat="43.975462038069963" lon="7.74348403327167">
        <ele>981.15999999999997</ele>
        <time>2025-05-19T08:59:49Z</time>
      </trkpt>
      <trkpt lat="43.975430019199848" lon="7.743603978306055">
        <ele>981.15999999999997</ele>
        <time>2025-05-19T08:59:50Z</time>
      </trkpt>
      <trkpt lat="43.975396994501352" lon="7.743730964139104">
        <ele>980.67999999999995</ele>
        <time>2025-05-19T08:59:51Z</time>
      </trkpt>
      <trkpt lat="43.975446028634906" lon="7.744094990193844">
        <ele>980.20000000000005</ele>
        <time>2025-05-19T08:59:52Z</time>
      </trkpt>
      <trkpt lat="43.975477963685989" lon="7.744332030415535">
        <ele>980.20000000000005</ele>
        <time>2025-05-19T08:59:54Z</time>
      </trkpt>
      <trkpt lat="43.975494978949428" lon="7.744454992935062">
        <ele>980.20000000000005</ele>
        <time>2025-05-19T08:59:55Z</time>
      </trkpt>
      <trkpt lat="43.975504031404853" lon="7.744524981826544">
        <ele>980.67999999999995</ele>
        <time>2025-05-19T08:59:56Z</time>
      </trkpt>
      <trkpt lat="43.975504031404853" lon="7.744524981826544">
        <ele>981.63999999999999</ele>
        <time>2025-05-19T08:59:58Z</time>
      </trkpt>
      <trkpt lat="43.975504031404853" lon="7.744524981826544">
        <ele>981.63999999999999</ele>
        <time>2025-05-19T08:59:59Z</time>
      </trkpt>
      <trkpt lat="43.975526997819543" lon="7.745341965928674">
        <ele>981.63999999999999</ele>
        <time>2025-05-19T09:00:00Z</time>
      </trkpt>
      <trkpt lat="43.975617019459605" lon="7.745398040860891">
        <ele>981.63999999999999</ele>
        <time>2025-05-19T09:00:01Z</time>
      </trkpt>
      <trkpt lat="43.975727995857596" lon="7.745466018095613">
        <ele>981.63999999999999</ele>
        <time>2025-05-19T09:00:02Z</time>
      </trkpt>
      <trkpt lat="43.976028990000486" lon="7.745652012526989">
        <ele>981.63999999999999</ele>
        <time>2025-05-19T09:00:05Z</time>
      </trkpt>
      <trkpt lat="43.976648999378085" lon="7.746144030243158">
        <ele>983.09000000000003</ele>
        <time>2025-05-19T09:00:12Z</time>
      </trkpt>
      <trkpt lat="43.976790988817811" lon="7.746370006352663">
        <ele>983.57000000000005</ele>
        <time>2025-05-19T09:00:14Z</time>
      </trkpt>
      <trkpt lat="43.976857038214803" lon="7.746425997465849">
        <ele>983.57000000000005</ele>
        <time>2025-05-19T09:00:15Z</time>
      </trkpt>
      <trkpt lat="43.97695804014802" lon="7.746497998014092">
        <ele>984.04999999999995</ele>
        <time>2025-05-19T09:00:16Z</time>
      </trkpt>
      <trkpt lat="43.977042026817799" lon="7.746494980528951">
        <ele>984.04999999999995</ele>
        <time>2025-05-19T09:00:17Z</time>
      </trkpt>
      <trkpt lat="43.97713397629559" lon="7.746491963043809">
        <ele>984.04999999999995</ele>
        <time>2025-05-19T09:00:18Z</time>
      </trkpt>
      <trkpt lat="43.977229027077556" lon="7.746488023549318">
        <ele>984.04999999999995</ele>
        <time>2025-05-19T09:00:19Z</time>
      </trkpt>
      <trkpt lat="43.977317959070206" lon="7.746485006064177">
        <ele>984.52999999999997</ele>
        <time>2025-05-19T09:00:20Z</time>
      </trkpt>
      <trkpt lat="43.977399012073874" lon="7.746481988579035">
        <ele>984.52999999999997</ele>
        <time>2025-05-19T09:00:21Z</time>
      </trkpt>
      <trkpt lat="43.97790402173996" lon="7.746592964977026">
        <ele>984.52999999999997</ele>
        <time>2025-05-19T09:00:27Z</time>
      </trkpt>
      <trkpt lat="43.978079035878181" lon="7.746649039909244">
        <ele>984.04999999999995</ele>
        <time>2025-05-19T09:00:28Z</time>
      </trkpt>
      <trkpt lat="43.978105019778013" lon="7.746637975797057">
        <ele>983.57000000000005</ele>
        <time>2025-05-19T09:00:29Z</time>
      </trkpt>
      <trkpt lat="43.978293025866151" lon="7.746563041582704">
        <ele>983.57000000000005</ele>
        <time>2025-05-19T09:00:30Z</time>
      </trkpt>
      <trkpt lat="43.97831398062408" lon="7.74653404019773">
        <ele>982.60000000000002</ele>
        <time>2025-05-19T09:00:31Z</time>
      </trkpt>
      <trkpt lat="43.978359997272491" lon="7.746466984972358">
        <ele>981.63999999999999</ele>
        <time>2025-05-19T09:00:32Z</time>
      </trkpt>
      <trkpt lat="43.97839997895062" lon="7.746409988030791">
        <ele>980.67999999999995</ele>
        <time>2025-05-19T09:00:33Z</time>
      </trkpt>
      <trkpt lat="43.97848698310554" lon="7.746284008026123">
        <ele>980.20000000000005</ele>
        <time>2025-05-19T09:00:34Z</time>
      </trkpt>
      <trkpt lat="43.97848698310554" lon="7.746284008026123">
        <ele>979.24000000000001</ele>
        <time>2025-05-19T09:00:35Z</time>
      </trkpt>
      <trkpt lat="43.978551020845771" lon="7.746241008862853">
        <ele>978.75999999999999</ele>
        <time>2025-05-19T09:00:36Z</time>
      </trkpt>
      <trkpt lat="43.978558983653784" lon="7.746243020519614">
        <ele>978.27999999999997</ele>
        <time>2025-05-19T09:00:37Z</time>
      </trkpt>
      <trkpt lat="43.978661997243762" lon="7.746274033561349">
        <ele>977.79999999999995</ele>
        <time>2025-05-19T09:00:38Z</time>
      </trkpt>
      <trkpt lat="43.978922003880143" lon="7.746349973604083">
        <ele>976.36000000000001</ele>
        <time>2025-05-19T09:00:40Z</time>
      </trkpt>
      <trkpt lat="43.979028034955263" lon="7.746380986645818">
        <ele>975.38999999999999</ele>
        <time>2025-05-19T09:00:41Z</time>
      </trkpt>
      <trkpt lat="43.97928100079298" lon="7.746456004679203">
        <ele>974.90999999999997</ele>
        <time>2025-05-19T09:00:42Z</time>
      </trkpt>
      <trkpt lat="43.97928100079298" lon="7.746456004679203">
        <ele>973.47000000000003</ele>
        <time>2025-05-19T09:00:43Z</time>
      </trkpt>
      <trkpt lat="43.979490967467427" lon="7.746387021616101">
        <ele>972.50999999999999</ele>
        <time>2025-05-19T09:00:44Z</time>
      </trkpt>
      <trkpt lat="43.979570008814335" lon="7.746269004419446">
        <ele>971.07000000000005</ele>
        <time>2025-05-19T09:00:45Z</time>
      </trkpt>
      <trkpt lat="43.979791039600968" lon="7.745936997234821">
        <ele>967.70000000000005</ele>
        <time>2025-05-19T09:00:48Z</time>
      </trkpt>
      <trkpt lat="43.9799689874053" lon="7.745695011690259">
        <ele>964.34000000000003</ele>
        <time>2025-05-19T09:00:51Z</time>
      </trkpt>
      <trkpt lat="43.98007401265204" lon="7.745575988665223">
        <ele>963.38</ele>
        <time>2025-05-19T09:00:52Z</time>
      </trkpt>
      <trkpt lat="43.980083987116814" lon="7.745573977008462">
        <ele>959.04999999999995</ele>
        <time>2025-05-19T09:00:53Z</time>
      </trkpt>
      <trkpt lat="43.980168979614973" lon="7.745556961745024">
        <ele>955.69000000000005</ele>
        <time>2025-05-19T09:00:54Z</time>
      </trkpt>
      <trkpt lat="43.980181971564889" lon="7.745555033907294">
        <ele>952.79999999999995</ele>
        <time>2025-05-19T09:00:55Z</time>
      </trkpt>
      <trkpt lat="43.98024600930512" lon="7.745683025568724">
        <ele>950.39999999999998</ele>
        <time>2025-05-19T09:00:56Z</time>
      </trkpt>
      <trkpt lat="43.98024600930512" lon="7.745683025568724">
        <ele>948.96000000000004</ele>
        <time>2025-05-19T09:00:57Z</time>
      </trkpt>
      <trkpt lat="43.98024600930512" lon="7.745683025568724">
        <ele>947.51999999999998</ele>
        <time>2025-05-19T09:00:58Z</time>
      </trkpt>
      <trkpt lat="43.980223964899778" lon="7.745979996398091">
        <ele>946.55999999999995</ele>
        <time>2025-05-19T09:00:59Z</time>
      </trkpt>
      <trkpt lat="43.980212984606624" lon="7.74629800580442">
        <ele>946.07000000000005</ele>
        <time>2025-05-19T09:01:00Z</time>
      </trkpt>
      <trkpt lat="43.980367965996265" lon="7.746739983558655">
        <ele>940.78999999999996</ele>
        <time>2025-05-19T09:01:02Z</time>
      </trkpt>
      <trkpt lat="43.980736015364528" lon="7.747320011258125">
        <ele>932.62</ele>
        <time>2025-05-19T09:01:06Z</time>
      </trkpt>
      <trkpt lat="43.981017982587218" lon="7.747762994840741">
        <ele>927.80999999999995</ele>
        <time>2025-05-19T09:01:09Z</time>
      </trkpt>
      <trkpt lat="43.981135999783874" lon="7.747882017865777">
        <ele>927.33000000000004</ele>
        <time>2025-05-19T09:01:10Z</time>
      </trkpt>
      <trkpt lat="43.981243036687374" lon="7.747988970950246">
        <ele>926.37</ele>
        <time>2025-05-19T09:01:11Z</time>
      </trkpt>
      <trkpt lat="43.98134496062994" lon="7.748088967055082">
        <ele>925.40999999999997</ele>
        <time>2025-05-19T09:01:12Z</time>
      </trkpt>
      <trkpt lat="43.981455015018582" lon="7.748148981481791">
        <ele>924.45000000000005</ele>
        <time>2025-05-19T09:01:13Z</time>
      </trkpt>
      <trkpt lat="43.981575965881348" lon="7.748215030878782">
        <ele>923.48000000000002</ele>
        <time>2025-05-19T09:01:14Z</time>
      </trkpt>
      <trkpt lat="43.981575965881348" lon="7.748215030878782">
        <ele>922.51999999999998</ele>
        <time>2025-05-19T09:01:15Z</time>
      </trkpt>
      <trkpt lat="43.981589963659644" lon="7.748212013393641">
        <ele>920.60000000000002</ele>
        <time>2025-05-19T09:01:16Z</time>
      </trkpt>
      <trkpt lat="43.98166598752141" lon="7.748196003958583">
        <ele>919.15999999999997</ele>
        <time>2025-05-19T09:01:17Z</time>
      </trkpt>
      <trkpt lat="43.981833960860968" lon="7.748159039765596">
        <ele>917.24000000000001</ele>
        <time>2025-05-19T09:01:19Z</time>
      </trkpt>
      <trkpt lat="43.98190101608634" lon="7.748144958168268">
        <ele>916.75</ele>
        <time>2025-05-19T09:01:20Z</time>
      </trkpt>
      <trkpt lat="43.982069995254278" lon="7.748107993975282">
        <ele>915.78999999999996</ele>
        <time>2025-05-19T09:01:21Z</time>
      </trkpt>
      <trkpt lat="43.982091033831239" lon="7.748129032552242">
        <ele>914.35000000000002</ele>
        <time>2025-05-19T09:01:22Z</time>
      </trkpt>
      <trkpt lat="43.982151970267296" lon="7.748189968988299">
        <ele>912.90999999999997</ele>
        <time>2025-05-19T09:01:23Z</time>
      </trkpt>
      <trkpt lat="43.982264958322048" lon="7.748307986184955">
        <ele>911.47000000000003</ele>
        <time>2025-05-19T09:01:24Z</time>
      </trkpt>
      <trkpt lat="43.982292031869292" lon="7.748430026695132">
        <ele>909.53999999999996</ele>
        <time>2025-05-19T09:01:25Z</time>
      </trkpt>
      <trkpt lat="43.982347017154098" lon="7.748705036938191">
        <ele>907.13999999999999</ele>
        <time>2025-05-19T09:01:26Z</time>
      </trkpt>
      <trkpt lat="43.982332013547421" lon="7.748887008056045">
        <ele>905.22000000000003</ele>
        <time>2025-05-19T09:01:27Z</time>
      </trkpt>
      <trkpt lat="43.982278034090996" lon="7.749525038525462">
        <ele>898.00999999999999</ele>
        <time>2025-05-19T09:01:30Z</time>
      </trkpt>
      <trkpt lat="43.982234029099345" lon="7.749794013798237">
        <ele>895.12</ele>
        <time>2025-05-19T09:01:31Z</time>
      </trkpt>
      <trkpt lat="43.982162028551102" lon="7.750032981857657">
        <ele>892.24000000000001</ele>
        <time>2025-05-19T09:01:32Z</time>
      </trkpt>
      <trkpt lat="43.982063960283995" lon="7.750277984887362">
        <ele>890.79999999999995</ele>
        <time>2025-05-19T09:01:33Z</time>
      </trkpt>
      <trkpt lat="43.981969999149442" lon="7.750483006238937">
        <ele>888.39999999999998</ele>
        <time>2025-05-19T09:01:34Z</time>
      </trkpt>
      <trkpt lat="43.981876960024238" lon="7.750686015933752">
        <ele>886.47000000000003</ele>
        <time>2025-05-19T09:01:35Z</time>
      </trkpt>
      <trkpt lat="43.981789033859968" lon="7.750877039507031">
        <ele>884.54999999999995</ele>
        <time>2025-05-19T09:01:36Z</time>
      </trkpt>
      <trkpt lat="43.981704041361809" lon="7.751062028110027">
        <ele>882.14999999999998</ele>
        <time>2025-05-19T09:01:37Z</time>
      </trkpt>
      <trkpt lat="43.981628017500043" lon="7.751226983964443">
        <ele>880.22000000000003</ele>
        <time>2025-05-19T09:01:38Z</time>
      </trkpt>
      <trkpt lat="43.981517041102052" lon="7.75152001529932">
        <ele>876.38</ele>
        <time>2025-05-19T09:01:40Z</time>
      </trkpt>
      <trkpt lat="43.981412015855312" lon="7.752068024128676">
        <ele>871.09000000000003</ele>
        <time>2025-05-19T09:01:43Z</time>
      </trkpt>
      <trkpt lat="43.980975989252329" lon="7.75332204066217">
        <ele>861.48000000000002</ele>
        <time>2025-05-19T09:01:50Z</time>
      </trkpt>
      <trkpt lat="43.98061104118824" lon="7.754009021446109">
        <ele>860.03999999999996</ele>
        <time>2025-05-19T09:01:55Z</time>
      </trkpt>
      <trkpt lat="43.98061104118824" lon="7.754115974530578">
        <ele>859.08000000000004</ele>
        <time>2025-05-19T09:01:58Z</time>
      </trkpt>
      <trkpt lat="43.980641970410943" lon="7.754115974530578">
        <ele>856.19000000000005</ele>
        <time>2025-05-19T09:02:00Z</time>
      </trkpt>
      <trkpt lat="43.98069703951478" lon="7.754115974530578">
        <ele>856.19000000000005</ele>
        <time>2025-05-19T09:02:01Z</time>
      </trkpt>
      <trkpt lat="43.980716988444328" lon="7.75407699868083">
        <ele>855.71000000000004</ele>
        <time>2025-05-19T09:02:02Z</time>
      </trkpt>
      <trkpt lat="43.980757975950837" lon="7.753998041152954">
        <ele>855.71000000000004</ele>
        <time>2025-05-19T09:02:03Z</time>
      </trkpt>
      <trkpt lat="43.980809021741152" lon="7.753900978714228">
        <ele>855.23000000000002</ele>
        <time>2025-05-19T09:02:04Z</time>
      </trkpt>
      <trkpt lat="43.98086903616786" lon="7.753785979002714">
        <ele>854.26999999999998</ele>
        <time>2025-05-19T09:02:05Z</time>
      </trkpt>
      <trkpt lat="43.980954028666019" lon="7.753623034805059">
        <ele>853.30999999999995</ele>
        <time>2025-05-19T09:02:06Z</time>
      </trkpt>
      <trkpt lat="43.981037009507418" lon="7.75358104147017">
        <ele>851.87</ele>
        <time>2025-05-19T09:02:07Z</time>
      </trkpt>
      <trkpt lat="43.981142034754157" lon="7.753528989851475">
        <ele>850.41999999999996</ele>
        <time>2025-05-19T09:02:08Z</time>
      </trkpt>
      <trkpt lat="43.981245970353484" lon="7.753477022051811">
        <ele>849.94000000000005</ele>
        <time>2025-05-19T09:02:09Z</time>
      </trkpt>
      <trkpt lat="43.98134496062994" lon="7.753426982089877">
        <ele>848.01999999999998</ele>
        <time>2025-05-19T09:02:10Z</time>
      </trkpt>
      <trkpt lat="43.981429031118751" lon="7.753359004855156">
        <ele>846.58000000000004</ele>
        <time>2025-05-19T09:02:11Z</time>
      </trkpt>
      <trkpt lat="43.981517963111401" lon="7.753263032063842">
        <ele>844.65999999999997</ele>
        <time>2025-05-19T09:02:12Z</time>
      </trkpt>
      <trkpt lat="43.981605973094702" lon="7.753167981281877">
        <ele>843.21000000000004</ele>
        <time>2025-05-19T09:02:13Z</time>
      </trkpt>
      <trkpt lat="43.981685014441609" lon="7.753068991005421">
        <ele>841.28999999999996</ele>
        <time>2025-05-19T09:02:14Z</time>
      </trkpt>
      <trkpt lat="43.981758020818233" lon="7.752948040142655">
        <ele>839.37</ele>
        <time>2025-05-19T09:02:15Z</time>
      </trkpt>
      <trkpt lat="43.981818035244942" lon="7.752805966883898">
        <ele>837.45000000000005</ele>
        <time>2025-05-19T09:02:16Z</time>
      </trkpt>
      <trkpt lat="43.981864973902702" lon="7.752649979665875">
        <ele>836</ele>
        <time>2025-05-19T09:02:17Z</time>
      </trkpt>
      <trkpt lat="43.981910990551114" lon="7.752500027418137">
        <ele>833.60000000000002</ele>
        <time>2025-05-19T09:02:18Z</time>
      </trkpt>
      <trkpt lat="43.982019033282995" lon="7.75214496999979">
        <ele>828.78999999999996</ele>
        <time>2025-05-19T09:02:21Z</time>
      </trkpt>
      <trkpt lat="43.982079969719052" lon="7.752068024128676">
        <ele>826.87</ele>
        <time>2025-05-19T09:02:22Z</time>
      </trkpt>
      <trkpt lat="43.982134032994509" lon="7.75201303884387">
        <ele>824.95000000000005</ele>
        <time>2025-05-19T09:02:23Z</time>
      </trkpt>
      <trkpt lat="43.982221959158778" lon="7.751990994438529">
        <ele>823.02999999999997</ele>
        <time>2025-05-19T09:02:24Z</time>
      </trkpt>
      <trkpt lat="43.982324972748756" lon="7.751966016367078">
        <ele>821.10000000000002</ele>
        <time>2025-05-19T09:02:25Z</time>
      </trkpt>
      <trkpt lat="43.982478026300669" lon="7.75192704051733">
        <ele>818.70000000000005</ele>
        <time>2025-05-19T09:02:26Z</time>
      </trkpt>
      <trkpt lat="43.982569975778461" lon="7.751856967806816">
        <ele>816.29999999999995</ele>
        <time>2025-05-19T09:02:27Z</time>
      </trkpt>
      <trkpt lat="43.9826750010252" lon="7.75177700445056">
        <ele>813.88999999999999</ele>
        <time>2025-05-19T09:02:28Z</time>
      </trkpt>
      <trkpt lat="43.982772985473275" lon="7.751702992245555">
        <ele>811.49000000000001</ele>
        <time>2025-05-19T09:02:29Z</time>
      </trkpt>
      <trkpt lat="43.982855966314673" lon="7.751639038324356">
        <ele>809.09000000000003</ele>
        <time>2025-05-19T09:02:30Z</time>
      </trkpt>
      <trkpt lat="43.982964009046555" lon="7.751505011692643">
        <ele>806.20000000000005</ele>
        <time>2025-05-19T09:02:31Z</time>
      </trkpt>
      <trkpt lat="43.983036009594798" lon="7.75134801864624">
        <ele>803.79999999999995</ele>
        <time>2025-05-19T09:02:32Z</time>
      </trkpt>
      <trkpt lat="43.983073979616165" lon="7.751196976751089">
        <ele>801.39999999999998</ele>
        <time>2025-05-19T09:02:33Z</time>
      </trkpt>
      <trkpt lat="43.983114967122674" lon="7.751039983704686">
        <ele>798.99000000000001</ele>
        <time>2025-05-19T09:02:34Z</time>
      </trkpt>
      <trkpt lat="43.983153020963073" lon="7.750891037285328">
        <ele>796.59000000000003</ele>
        <time>2025-05-19T09:02:35Z</time>
      </trkpt>
      <trkpt lat="43.98319099098444" lon="7.75074502453208">
        <ele>794.19000000000005</ele>
        <time>2025-05-19T09:02:36Z</time>
      </trkpt>
      <trkpt lat="43.983228038996458" lon="7.750598005950451">
        <ele>791.77999999999997</ele>
        <time>2025-05-19T09:02:37Z</time>
      </trkpt>
      <trkpt lat="43.983295010402799" lon="7.750503960996866">
        <ele>789.38</ele>
        <time>2025-05-19T09:02:38Z</time>
      </trkpt>
      <trkpt lat="43.983364999294281" lon="7.75040396489203">
        <ele>786.98000000000002</ele>
        <time>2025-05-19T09:02:39Z</time>
      </trkpt>
      <trkpt lat="43.983444962650537" lon="7.750290976837277">
        <ele>784.57000000000005</ele>
        <time>2025-05-19T09:02:40Z</time>
      </trkpt>
      <trkpt lat="43.983871014788747" lon="7.749911025166512">
        <ele>770.63</ele>
        <time>2025-05-19T09:02:45Z</time>
      </trkpt>
      <trkpt lat="43.984001018106937" lon="7.74980298243463">
        <ele>768.23000000000002</ele>
        <time>2025-05-19T09:02:46Z</time>
      </trkpt>
      <trkpt lat="43.984024990350008" lon="7.74980298243463">
        <ele>765.83000000000004</ele>
        <time>2025-05-19T09:02:47Z</time>
      </trkpt>
      <trkpt lat="43.984173014760017" lon="7.74980298243463">
        <ele>763.89999999999998</ele>
        <time>2025-05-19T09:02:48Z</time>
      </trkpt>
      <trkpt lat="43.984215008094907" lon="7.749829972162843">
        <ele>762.46000000000004</ele>
        <time>2025-05-19T09:02:49Z</time>
      </trkpt>
      <trkpt lat="43.984345011413097" lon="7.749911025166512">
        <ele>761.98000000000002</ele>
        <time>2025-05-19T09:02:50Z</time>
      </trkpt>
      <trkpt lat="43.98439203388989" lon="7.750020995736122">
        <ele>761.5</ele>
        <time>2025-05-19T09:02:51Z</time>
      </trkpt>
      <trkpt lat="43.984440984204412" lon="7.750134989619255">
        <ele>761.5</ele>
        <time>2025-05-19T09:02:52Z</time>
      </trkpt>
      <trkpt lat="43.984468979761004" lon="7.750289971008897">
        <ele>761.5</ele>
        <time>2025-05-19T09:02:53Z</time>
      </trkpt>
      <trkpt lat="43.984461016952991" lon="7.750415029004216">
        <ele>761.01999999999998</ele>
        <time>2025-05-19T09:02:54Z</time>
      </trkpt>
      <trkpt lat="43.984451964497566" lon="7.75057596154511">
        <ele>760.53999999999996</ele>
        <time>2025-05-19T09:02:55Z</time>
      </trkpt>
      <trkpt lat="43.984411982819438" lon="7.750663971528411">
        <ele>760.53999999999996</ele>
        <time>2025-05-19T09:02:56Z</time>
      </trkpt>
      <trkpt lat="43.984359009191394" lon="7.750785006210208">
        <ele>760.05999999999995</ele>
        <time>2025-05-19T09:02:57Z</time>
      </trkpt>
      <trkpt lat="43.984301006421447" lon="7.750916015356779">
        <ele>759.58000000000004</ele>
        <time>2025-05-19T09:02:58Z</time>
      </trkpt>
      <trkpt lat="43.983850982040167" lon="7.75192704051733">
        <ele>754.76999999999998</ele>
        <time>2025-05-19T09:03:05Z</time>
      </trkpt>
      <trkpt lat="43.983837990090251" lon="7.752038016915321">
        <ele>753.80999999999995</ele>
        <time>2025-05-19T09:03:06Z</time>
      </trkpt>
      <trkpt lat="43.983820974826813" lon="7.752192998304963">
        <ele>752.37</ele>
        <time>2025-05-19T09:03:07Z</time>
      </trkpt>
      <trkpt lat="43.983802031725645" lon="7.752353008836508">
        <ele>751.40999999999997</ele>
        <time>2025-05-19T09:03:08Z</time>
      </trkpt>
      <trkpt lat="43.983785016462207" lon="7.75250799022615">
        <ele>749.97000000000003</ele>
        <time>2025-05-19T09:03:09Z</time>
      </trkpt>
      <trkpt lat="43.983757020905614" lon="7.752692978829145">
        <ele>748.03999999999996</ele>
        <time>2025-05-19T09:03:10Z</time>
      </trkpt>
      <trkpt lat="43.983462983742356" lon="7.753230007365346">
        <ele>742.27999999999997</ele>
        <time>2025-05-19T09:03:14Z</time>
      </trkpt>
      <trkpt lat="43.983400035649538" lon="7.75334601290524">
        <ele>741.30999999999995</ele>
        <time>2025-05-19T09:03:15Z</time>
      </trkpt>
      <trkpt lat="43.983361981809139" lon="7.753484984859824">
        <ele>740.35000000000002</ele>
        <time>2025-05-19T09:03:16Z</time>
      </trkpt>
      <trkpt lat="43.983258968219161" lon="7.754789041355252">
        <ele>730.74000000000001</ele>
        <time>2025-05-19T09:03:23Z</time>
      </trkpt>
      <trkpt lat="43.983036009594798" lon="7.756087984889746">
        <ele>722.09000000000003</ele>
        <time>2025-05-19T09:03:29Z</time>
      </trkpt>
      <trkpt lat="43.983036009594798" lon="7.756284037604928">
        <ele>720.64999999999998</ele>
        <time>2025-05-19T09:03:30Z</time>
      </trkpt>
      <trkpt lat="43.983056964352727" lon="7.757690018042922">
        <ele>710.07000000000005</ele>
        <time>2025-05-19T09:03:38Z</time>
      </trkpt>
      <trkpt lat="43.983041038736701" lon="7.757778028026223">
        <ele>709.11000000000001</ele>
        <time>2025-05-19T09:03:39Z</time>
      </trkpt>
      <trkpt lat="43.983080014586449" lon="7.757925968617201">
        <ele>708.63</ele>
        <time>2025-05-19T09:03:40Z</time>
      </trkpt>
      <trkpt lat="43.983099963515997" lon="7.757979026064277">
        <ele>708.14999999999998</ele>
        <time>2025-05-19T09:03:41Z</time>
      </trkpt>
      <trkpt lat="43.983172969892621" lon="7.75800802744925">
        <ele>707.66999999999996</ele>
        <time>2025-05-19T09:03:42Z</time>
      </trkpt>
      <trkpt lat="43.983207000419497" lon="7.758021019399166">
        <ele>707.19000000000005</ele>
        <time>2025-05-19T09:03:43Z</time>
      </trkpt>
      <trkpt lat="43.983207000419497" lon="7.758021019399166">
        <ele>706.71000000000004</ele>
        <time>2025-05-19T09:03:44Z</time>
      </trkpt>
      <trkpt lat="43.98329702205956" lon="7.757950024679303">
        <ele>705.75</ele>
        <time>2025-05-19T09:03:45Z</time>
      </trkpt>
      <trkpt lat="43.9833639934659" lon="7.757837036624551">
        <ele>704.77999999999997</ele>
        <time>2025-05-19T09:03:46Z</time>
      </trkpt>
      <trkpt lat="43.98342995904386" lon="7.757704015821219">
        <ele>703.34000000000003</ele>
        <time>2025-05-19T09:03:47Z</time>
      </trkpt>
      <trkpt lat="43.983507994562387" lon="7.757549034431577">
        <ele>702.38</ele>
        <time>2025-05-19T09:03:48Z</time>
      </trkpt>
      <trkpt lat="43.983551999554038" lon="7.757390029728413">
        <ele>701.41999999999996</ele>
        <time>2025-05-19T09:03:49Z</time>
      </trkpt>
      <trkpt lat="43.983597010374069" lon="7.757229013368487">
        <ele>700.46000000000004</ele>
        <time>2025-05-19T09:03:50Z</time>
      </trkpt>
      <trkpt lat="43.983628023415804" lon="7.75706397369504">
        <ele>699.98000000000002</ele>
        <time>2025-05-19T09:03:51Z</time>
      </trkpt>
      <trkpt lat="43.983647972345352" lon="7.756917960941792">
        <ele>699.01999999999998</ele>
        <time>2025-05-19T09:03:52Z</time>
      </trkpt>
      <trkpt lat="43.98366398178041" lon="7.756804972887039">
        <ele>698.04999999999995</ele>
        <time>2025-05-19T09:03:53Z</time>
      </trkpt>
      <trkpt lat="43.983678985387087" lon="7.756690979003906">
        <ele>697.09000000000003</ele>
        <time>2025-05-19T09:03:54Z</time>
      </trkpt>
      <trkpt lat="43.983709998428822" lon="7.756673041731119">
        <ele>696.13</ele>
        <time>2025-05-19T09:03:55Z</time>
      </trkpt>
      <trkpt lat="43.983817035332322" lon="7.756657032296062">
        <ele>695.16999999999996</ele>
        <time>2025-05-19T09:03:56Z</time>
      </trkpt>
      <trkpt lat="43.983850982040167" lon="7.756690979003906">
        <ele>694.21000000000004</ele>
        <time>2025-05-19T09:03:57Z</time>
      </trkpt>
      <trkpt lat="43.983850982040167" lon="7.756690979003906">
        <ele>693.25</ele>
        <time>2025-05-19T09:03:58Z</time>
      </trkpt>
      <trkpt lat="43.983850982040167" lon="7.756862975656986">
        <ele>692.28999999999996</ele>
        <time>2025-05-19T09:03:59Z</time>
      </trkpt>
      <trkpt lat="43.983819968998432" lon="7.756994990631938">
        <ele>691.33000000000004</ele>
        <time>2025-05-19T09:04:00Z</time>
      </trkpt>
      <trkpt lat="43.983780993148685" lon="7.757163969799876">
        <ele>690.36000000000001</ele>
        <time>2025-05-19T09:04:01Z</time>
      </trkpt>
      <trkpt lat="43.983740005642176" lon="7.757338983938098">
        <ele>689.39999999999998</ele>
        <time>2025-05-19T09:04:02Z</time>
      </trkpt>
      <trkpt lat="43.983698012307286" lon="7.757521960884333">
        <ele>688.91999999999996</ele>
        <time>2025-05-19T09:04:03Z</time>
      </trkpt>
      <trkpt lat="43.983608996495605" lon="7.758009033277631">
        <ele>687</ele>
        <time>2025-05-19T09:04:06Z</time>
      </trkpt>
      <trkpt lat="43.983572032302618" lon="7.758214976638556">
        <ele>687</ele>
        <time>2025-05-19T09:04:07Z</time>
      </trkpt>
      <trkpt lat="43.983464995399117" lon="7.758494010195136">
        <ele>686.51999999999998</ele>
        <time>2025-05-19T09:04:08Z</time>
      </trkpt>
      <trkpt lat="43.983464995399117" lon="7.758494010195136">
        <ele>686.03999999999996</ele>
        <time>2025-05-19T09:04:09Z</time>
      </trkpt>
      <trkpt lat="43.983412021771073" lon="7.758552012965083">
        <ele>685.55999999999995</ele>
        <time>2025-05-19T09:04:10Z</time>
      </trkpt>
      <trkpt lat="43.983292998746037" lon="7.758686961606145">
        <ele>684.60000000000002</ele>
        <time>2025-05-19T09:04:11Z</time>
      </trkpt>
      <trkpt lat="43.98323399014771" lon="7.758726021274924">
        <ele>683.63</ele>
        <time>2025-05-19T09:04:12Z</time>
      </trkpt>
      <trkpt lat="43.982649017125368" lon="7.759116031229496">
        <ele>681.23000000000002</ele>
        <time>2025-05-19T09:04:17Z</time>
      </trkpt>
      <trkpt lat="43.98256603628397" lon="7.759216027334333">
        <ele>680.75</ele>
        <time>2025-05-19T09:04:18Z</time>
      </trkpt>
      <trkpt lat="43.982462016865611" lon="7.75933999568224">
        <ele>679.78999999999996</ele>
        <time>2025-05-19T09:04:19Z</time>
      </trkpt>
      <trkpt lat="43.982366966083646" lon="7.759454995393753">
        <ele>678.35000000000002</ele>
        <time>2025-05-19T09:04:20Z</time>
      </trkpt>
      <trkpt lat="43.982177032157779" lon="7.759694969281554">
        <ele>676.90999999999997</ele>
        <time>2025-05-19T09:04:21Z</time>
      </trkpt>
      <trkpt lat="43.982177032157779" lon="7.759694969281554">
        <ele>675.46000000000004</ele>
        <time>2025-05-19T09:04:22Z</time>
      </trkpt>
      <trkpt lat="43.98200998082757" lon="7.759810974821448">
        <ele>673.53999999999996</ele>
        <time>2025-05-19T09:04:24Z</time>
      </trkpt>
      <trkpt lat="43.981897998601198" lon="7.759888004511595">
        <ele>673.05999999999995</ele>
        <time>2025-05-19T09:04:25Z</time>
      </trkpt>
      <trkpt lat="43.981896992772818" lon="7.759894961491227">
        <ele>672.10000000000002</ele>
        <time>2025-05-19T09:04:26Z</time>
      </trkpt>
      <trkpt lat="43.981983996927738" lon="7.760060001164675">
        <ele>672.10000000000002</ele>
        <time>2025-05-19T09:04:27Z</time>
      </trkpt>
      <trkpt lat="43.98207301273942" lon="7.760018007829785">
        <ele>671.13999999999999</ele>
        <time>2025-05-19T09:04:28Z</time>
      </trkpt>
      <trkpt lat="43.982149036601186" lon="7.759981965646148">
        <ele>670.65999999999997</ele>
        <time>2025-05-19T09:04:29Z</time>
      </trkpt>
      <trkpt lat="43.982247021049261" lon="7.759935026988387">
        <ele>670.17999999999995</ele>
        <time>2025-05-19T09:04:30Z</time>
      </trkpt>
      <trkpt lat="43.982582967728376" lon="7.759875012561679">
        <ele>667.76999999999998</ele>
        <time>2025-05-19T09:04:33Z</time>
      </trkpt>
      <trkpt lat="43.982693022117019" lon="7.759896973147988">
        <ele>666.80999999999995</ele>
        <time>2025-05-19T09:04:34Z</time>
      </trkpt>
      <trkpt lat="43.982756976038218" lon="7.759909965097904">
        <ele>665.85000000000002</ele>
        <time>2025-05-19T09:04:35Z</time>
      </trkpt>
      <trkpt lat="43.98325502872467" lon="7.760315984487534">
        <ele>662.49000000000001</ele>
        <time>2025-05-19T09:04:40Z</time>
      </trkpt>
      <trkpt lat="43.983335997909307" lon="7.760382033884525">
        <ele>662.00999999999999</ele>
        <time>2025-05-19T09:04:41Z</time>
      </trkpt>
      <trkpt lat="43.983443034812808" lon="7.760382033884525">
        <ele>661.51999999999998</ele>
        <time>2025-05-19T09:04:42Z</time>
      </trkpt>
      <trkpt lat="43.983521992340684" lon="7.760319001972675">
        <ele>661.03999999999996</ele>
        <time>2025-05-19T09:04:43Z</time>
      </trkpt>
      <trkpt lat="43.983567003160715" lon="7.760267034173012">
        <ele>660.55999999999995</ele>
        <time>2025-05-19T09:04:44Z</time>
      </trkpt>
      <trkpt lat="43.98362098261714" lon="7.760175000876188">
        <ele>659.60000000000002</ele>
        <time>2025-05-19T09:04:45Z</time>
      </trkpt>
      <trkpt lat="43.983686026185751" lon="7.760062012821436">
        <ele>657.67999999999995</ele>
        <time>2025-05-19T09:04:46Z</time>
      </trkpt>
      <trkpt lat="43.983752997592092" lon="7.759946007281542">
        <ele>655.75999999999999</ele>
        <time>2025-05-19T09:04:47Z</time>
      </trkpt>
      <trkpt lat="43.98387998342514" lon="7.759724976494908">
        <ele>651.42999999999995</ele>
        <time>2025-05-19T09:04:49Z</time>
      </trkpt>
      <trkpt lat="43.983928011730313" lon="7.75964199565351">
        <ele>649.50999999999999</ele>
        <time>2025-05-19T09:04:50Z</time>
      </trkpt>
      <trkpt lat="43.984195981174707" lon="7.759174033999443">
        <ele>639.88999999999999</ele>
        <time>2025-05-19T09:04:56Z</time>
      </trkpt>
      <trkpt lat="43.984462022781372" lon="7.758254958316684">
        <ele>634.13</ele>
        <time>2025-05-19T09:05:02Z</time>
      </trkpt>
      <trkpt lat="43.984535029157996" lon="7.757854973897338">
        <ele>630.27999999999997</ele>
        <time>2025-05-19T09:05:04Z</time>
      </trkpt>
      <trkpt lat="43.984559001401067" lon="7.757721031084657">
        <ele>627.88</ele>
        <time>2025-05-19T09:05:05Z</time>
      </trkpt>
      <trkpt lat="43.98463100194931" lon="7.757542999461293">
        <ele>625.47000000000003</ele>
        <time>2025-05-19T09:05:06Z</time>
      </trkpt>
      <trkpt lat="43.984684981405735" lon="7.757409978657961">
        <ele>623.54999999999995</ele>
        <time>2025-05-19T09:05:07Z</time>
      </trkpt>
      <trkpt lat="43.98473896086216" lon="7.75727603584528">
        <ele>621.14999999999998</ele>
        <time>2025-05-19T09:05:08Z</time>
      </trkpt>
      <trkpt lat="43.984793024137616" lon="7.757143015041947">
        <ele>619.23000000000002</ele>
        <time>2025-05-19T09:05:09Z</time>
      </trkpt>
      <trkpt lat="43.984840968623757" lon="7.757022986188531">
        <ele>617.29999999999995</ele>
        <time>2025-05-19T09:05:10Z</time>
      </trkpt>
      <trkpt lat="43.984890002757311" lon="7.756902035325766">
        <ele>615.38</ele>
        <time>2025-05-19T09:05:11Z</time>
      </trkpt>
      <trkpt lat="43.984938031062484" lon="7.756785023957491">
        <ele>612.98000000000002</ele>
        <time>2025-05-19T09:05:12Z</time>
      </trkpt>
      <trkpt lat="43.984967032447457" lon="7.756713023409247">
        <ele>611.05999999999995</ele>
        <time>2025-05-19T09:05:13Z</time>
      </trkpt>
      <trkpt lat="43.985028974711895" lon="7.756644962355495">
        <ele>608.16999999999996</ele>
        <time>2025-05-19T09:05:14Z</time>
      </trkpt>
      <trkpt lat="43.98508102633059" lon="7.756589977070689">
        <ele>606.25</ele>
        <time>2025-05-19T09:05:15Z</time>
      </trkpt>
      <trkpt lat="43.985118996351957" lon="7.75654898956418">
        <ele>603.85000000000002</ele>
        <time>2025-05-19T09:05:16Z</time>
      </trkpt>
      <trkpt lat="43.985159983858466" lon="7.756503978744149">
        <ele>601.91999999999996</ele>
        <time>2025-05-19T09:05:17Z</time>
      </trkpt>
      <trkpt lat="43.985245982185006" lon="7.756412029266357">
        <ele>600</ele>
        <time>2025-05-19T09:05:18Z</time>
      </trkpt>
      <trkpt lat="43.985246988013387" lon="7.756379004567862">
        <ele>598.08000000000004</ele>
        <time>2025-05-19T09:05:19Z</time>
      </trkpt>
      <trkpt lat="43.985248999670148" lon="7.756339022889733">
        <ele>596.63999999999999</ele>
        <time>2025-05-19T09:05:20Z</time>
      </trkpt>
      <trkpt lat="43.98525201715529" lon="7.756284037604928">
        <ele>595.19000000000005</ele>
        <time>2025-05-19T09:05:21Z</time>
      </trkpt>
      <trkpt lat="43.985256040468812" lon="7.756212037056685">
        <ele>593.26999999999998</ele>
        <time>2025-05-19T09:05:22Z</time>
      </trkpt>
      <trkpt lat="43.985259979963303" lon="7.756127966567874">
        <ele>591.83000000000004</ele>
        <time>2025-05-19T09:05:23Z</time>
      </trkpt>
      <trkpt lat="43.985265009105206" lon="7.756017995998263">
        <ele>590.38999999999999</ele>
        <time>2025-05-19T09:05:24Z</time>
      </trkpt>
      <trkpt lat="43.985284036025405" lon="7.755910959094763">
        <ele>588.95000000000005</ele>
        <time>2025-05-19T09:05:25Z</time>
      </trkpt>
      <trkpt lat="43.985315971076488" lon="7.755781039595604">
        <ele>587.5</ele>
        <time>2025-05-19T09:05:26Z</time>
      </trkpt>
      <trkpt lat="43.985344972461462" lon="7.755658999085426">
        <ele>586.05999999999995</ele>
        <time>2025-05-19T09:05:27Z</time>
      </trkpt>
      <trkpt lat="43.985389983281493" lon="7.755471998825669">
        <ele>583.65999999999997</ele>
        <time>2025-05-19T09:05:29Z</time>
      </trkpt>
      <trkpt lat="43.985396018251777" lon="7.755447020754218">
        <ele>582.70000000000005</ele>
        <time>2025-05-19T09:05:30Z</time>
      </trkpt>
      <trkpt lat="43.985416973009706" lon="7.755189025774598">
        <ele>584.62</ele>
        <time>2025-05-19T09:05:31Z</time>
      </trkpt>
      <trkpt lat="43.985562985762954" lon="7.755202017724514">
        <ele>584.13999999999999</ele>
        <time>2025-05-19T09:05:32Z</time>
      </trkpt>
      <trkpt lat="43.985584024339914" lon="7.755241999402642">
        <ele>582.70000000000005</ele>
        <time>2025-05-19T09:05:33Z</time>
      </trkpt>
      <trkpt lat="43.985547982156277" lon="7.755404021590948">
        <ele>581.73000000000002</ele>
        <time>2025-05-19T09:05:34Z</time>
      </trkpt>
      <trkpt lat="43.985521998256445" lon="7.755501000210643">
        <ele>580.28999999999996</ele>
        <time>2025-05-19T09:05:35Z</time>
      </trkpt>
      <trkpt lat="43.98548997938633" lon="7.75562304072082">
        <ele>578.85000000000002</ele>
        <time>2025-05-19T09:05:36Z</time>
      </trkpt>
      <trkpt lat="43.985455026850104" lon="7.75575103238225">
        <ele>577.40999999999997</ele>
        <time>2025-05-19T09:05:37Z</time>
      </trkpt>
      <trkpt lat="43.985433988273144" lon="7.755890004336834">
        <ele>576.45000000000005</ele>
        <time>2025-05-19T09:05:38Z</time>
      </trkpt>
      <trkpt lat="43.98542501963675" lon="7.756025958806276">
        <ele>575.00999999999999</ele>
        <time>2025-05-19T09:05:39Z</time>
      </trkpt>
      <trkpt lat="43.985417978838086" lon="7.756155962124467">
        <ele>573.55999999999995</ele>
        <time>2025-05-19T09:05:40Z</time>
      </trkpt>
      <trkpt lat="43.985457960516214" lon="7.756282025948167">
        <ele>573.08000000000004</ele>
        <time>2025-05-19T09:05:41Z</time>
      </trkpt>
      <trkpt lat="43.985492996871471" lon="7.756390990689397">
        <ele>571.15999999999997</ele>
        <time>2025-05-19T09:05:42Z</time>
      </trkpt>
      <trkpt lat="43.985519986599684" lon="7.756477994844317">
        <ele>569.72000000000003</ele>
        <time>2025-05-19T09:05:43Z</time>
      </trkpt>
      <trkpt lat="43.985568014904857" lon="7.756627025082707">
        <ele>568.75999999999999</ele>
        <time>2025-05-19T09:05:44Z</time>
      </trkpt>
      <trkpt lat="43.985515963286161" lon="7.756716040894389">
        <ele>567.32000000000005</ele>
        <time>2025-05-19T09:05:45Z</time>
      </trkpt>
      <trkpt lat="43.98544798605144" lon="7.756832968443632">
        <ele>565.87</ele>
        <time>2025-05-19T09:05:46Z</time>
      </trkpt>
      <trkpt lat="43.985384032130241" lon="7.756944028660655">
        <ele>564.42999999999995</ele>
        <time>2025-05-19T09:05:47Z</time>
      </trkpt>
      <trkpt lat="43.985328963026404" lon="7.757045030593872">
        <ele>563.95000000000005</ele>
        <time>2025-05-19T09:05:48Z</time>
      </trkpt>
      <trkpt lat="43.985198959708214" lon="7.757567977532744">
        <ele>560.11000000000001</ele>
        <time>2025-05-19T09:05:51Z</time>
      </trkpt>
      <trkpt lat="43.985085971653461" lon="7.757874000817537">
        <ele>558.17999999999995</ele>
        <time>2025-05-19T09:05:53Z</time>
      </trkpt>
      <trkpt lat="43.985030986368656" lon="7.758021019399166">
        <ele>558.17999999999995</ele>
        <time>2025-05-19T09:05:54Z</time>
      </trkpt>
      <trkpt lat="43.985043978318572" lon="7.758165020495653">
        <ele>556.74000000000001</ele>
        <time>2025-05-19T09:05:55Z</time>
      </trkpt>
      <trkpt lat="43.985058981925249" lon="7.758326036855578">
        <ele>556.25999999999999</ele>
        <time>2025-05-19T09:05:56Z</time>
      </trkpt>
      <trkpt lat="43.985072979703546" lon="7.75848001241684">
        <ele>555.29999999999995</ele>
        <time>2025-05-19T09:05:57Z</time>
      </trkpt>
      <trkpt lat="43.985096029937267" lon="7.758729960769415">
        <ele>554.34000000000003</ele>
        <time>2025-05-19T09:05:58Z</time>
      </trkpt>
      <trkpt lat="43.984983041882515" lon="7.75985699146986">
        <ele>546.64999999999998</ele>
        <time>2025-05-19T09:06:05Z</time>
      </trkpt>
      <trkpt lat="43.984959991648793" lon="7.760034017264843">
        <ele>545.69000000000005</ele>
        <time>2025-05-19T09:06:06Z</time>
      </trkpt>
      <trkpt lat="43.984896037727594" lon="7.760204002261162">
        <ele>544.24000000000001</ele>
        <time>2025-05-19T09:06:07Z</time>
      </trkpt>
      <trkpt lat="43.984446013346314" lon="7.761457012966275">
        <ele>535.59000000000003</ele>
        <time>2025-05-19T09:06:14Z</time>
      </trkpt>
      <trkpt lat="43.984407959505916" lon="7.761636972427368">
        <ele>534.63</ele>
        <time>2025-05-19T09:06:15Z</time>
      </trkpt>
      <trkpt lat="43.984302012249827" lon="7.762140976265073">
        <ele>530.29999999999995</ele>
        <time>2025-05-19T09:06:18Z</time>
      </trkpt>
      <trkpt lat="43.984273010864854" lon="7.762186992913485">
        <ele>529.34000000000003</ele>
        <time>2025-05-19T09:06:19Z</time>
      </trkpt>
      <trkpt lat="43.984214002266526" lon="7.762279026210308">
        <ele>528.38</ele>
        <time>2025-05-19T09:06:20Z</time>
      </trkpt>
      <trkpt lat="43.984161028638482" lon="7.762362007051706">
        <ele>527.41999999999996</ele>
        <time>2025-05-19T09:06:21Z</time>
      </trkpt>
      <trkpt lat="43.984122974798083" lon="7.762420009821653">
        <ele>526.94000000000005</ele>
        <time>2025-05-19T09:06:22Z</time>
      </trkpt>
      <trkpt lat="43.984022978693247" lon="7.762570967897773">
        <ele>528.38</ele>
        <time>2025-05-19T09:06:23Z</time>
      </trkpt>
      <trkpt lat="43.984057009220123" lon="7.762627964839339">
        <ele>529.34000000000003</ele>
        <time>2025-05-19T09:06:24Z</time>
      </trkpt>
      <trkpt lat="43.984173014760017" lon="7.762635005638003">
        <ele>529.82000000000005</ele>
        <time>2025-05-19T09:06:25Z</time>
      </trkpt>
      <trkpt lat="43.98428700864315" lon="7.762483041733503">
        <ele>530.29999999999995</ele>
        <time>2025-05-19T09:06:26Z</time>
      </trkpt>
      <trkpt lat="43.984354985877872" lon="7.76239201426506">
        <ele>530.78999999999996</ele>
        <time>2025-05-19T09:06:27Z</time>
      </trkpt>
      <trkpt lat="43.98443796671927" lon="7.762279026210308">
        <ele>530.29999999999995</ele>
        <time>2025-05-19T09:06:28Z</time>
      </trkpt>
      <trkpt lat="43.984599988907576" lon="7.762017007917166">
        <ele>530.78999999999996</ele>
        <time>2025-05-19T09:06:30Z</time>
      </trkpt>
      <trkpt lat="43.984678024426103" lon="7.761889016255736">
        <ele>530.78999999999996</ele>
        <time>2025-05-19T09:06:31Z</time>
      </trkpt>
      <trkpt lat="43.984847003594041" lon="7.76166002266109">
        <ele>529.82000000000005</ele>
        <time>2025-05-19T09:06:33Z</time>
      </trkpt>
      <trkpt lat="43.984935013577342" lon="7.761573018506169">
        <ele>529.34000000000003</ele>
        <time>2025-05-19T09:06:34Z</time>
      </trkpt>
      <trkpt lat="43.985073985531926" lon="7.761365985497832">
        <ele>528.86000000000001</ele>
        <time>2025-05-19T09:06:36Z</time>
      </trkpt>
      <trkpt lat="43.985127964988351" lon="7.761256014928222">
        <ele>528.86000000000001</ele>
        <time>2025-05-19T09:06:37Z</time>
      </trkpt>
      <trkpt lat="43.98525302298367" lon="7.761001037433744">
        <ele>528.38</ele>
        <time>2025-05-19T09:06:39Z</time>
      </trkpt>
      <trkpt lat="43.98546701297164" lon="7.760564005002379">
        <ele>528.86000000000001</ele>
        <time>2025-05-19T09:06:42Z</time>
      </trkpt>
      <trkpt lat="43.985543036833405" lon="7.76041598059237">
        <ele>528.38</ele>
        <time>2025-05-19T09:06:43Z</time>
      </trkpt>
      <trkpt lat="43.985623000189662" lon="7.760283965617418">
        <ele>527.89999999999998</ele>
        <time>2025-05-19T09:06:44Z</time>
      </trkpt>
      <trkpt lat="43.985774964094162" lon="7.760035023093224">
        <ele>526.46000000000004</ele>
        <time>2025-05-19T09:06:46Z</time>
      </trkpt>
      <trkpt lat="43.985829027369618" lon="7.759934021160007">
        <ele>525.98000000000002</ele>
        <time>2025-05-19T09:06:47Z</time>
      </trkpt>
      <trkpt lat="43.985868003219366" lon="7.759760012850165">
        <ele>525.5</ele>
        <time>2025-05-19T09:06:48Z</time>
      </trkpt>
      <trkpt lat="43.985860962420702" lon="7.759719025343657">
        <ele>525.01999999999998</ele>
        <time>2025-05-19T09:06:49Z</time>
      </trkpt>
      <trkpt lat="43.985840007662773" lon="7.759589022025466">
        <ele>524.05999999999995</ele>
        <time>2025-05-19T09:06:50Z</time>
      </trkpt>
      <trkpt lat="43.985817963257432" lon="7.759461030364037">
        <ele>523.58000000000004</ele>
        <time>2025-05-19T09:06:51Z</time>
      </trkpt>
      <trkpt lat="43.985815029591322" lon="7.759308982640505">
        <ele>522.61000000000001</ele>
        <time>2025-05-19T09:06:52Z</time>
      </trkpt>
      <trkpt lat="43.985842019319534" lon="7.759152995422483">
        <ele>521.16999999999996</ele>
        <time>2025-05-19T09:06:53Z</time>
      </trkpt>
      <trkpt lat="43.985873032361269" lon="7.75897697545588">
        <ele>520.21000000000004</ele>
        <time>2025-05-19T09:06:54Z</time>
      </trkpt>
      <trkpt lat="43.98594100959599" lon="7.758586965501308">
        <ele>517.80999999999995</ele>
        <time>2025-05-19T09:06:56Z</time>
      </trkpt>
      <trkpt lat="43.986060032621026" lon="7.758259987458587">
        <ele>514.91999999999996</ele>
        <time>2025-05-19T09:06:58Z</time>
      </trkpt>
      <trkpt lat="43.986137984320521" lon="7.758139036595821">
        <ele>513.48000000000002</ele>
        <time>2025-05-19T09:06:59Z</time>
      </trkpt>
      <trkpt lat="43.98621903732419" lon="7.758012972772121">
        <ele>512.03999999999996</ele>
        <time>2025-05-19T09:07:00Z</time>
      </trkpt>
      <trkpt lat="43.98656303063035" lon="7.75749396532774">
        <ele>504.82999999999998</ele>
        <time>2025-05-19T09:07:05Z</time>
      </trkpt>
      <trkpt lat="43.986639976501465" lon="7.757377959787846">
        <ele>506.26999999999998</ele>
        <time>2025-05-19T09:07:06Z</time>
      </trkpt>
      <trkpt lat="43.98673402145505" lon="7.75738500058651">
        <ele>506.26999999999998</ele>
        <time>2025-05-19T09:07:07Z</time>
      </trkpt>
      <trkpt lat="43.986748019233346" lon="7.757527995854616">
        <ele>505.31</ele>
        <time>2025-05-19T09:07:08Z</time>
      </trkpt>
      <trkpt lat="43.986682975664735" lon="7.757646013051271">
        <ele>503.87</ele>
        <time>2025-05-19T09:07:09Z</time>
      </trkpt>
      <trkpt lat="43.986622039228678" lon="7.757759001106024">
        <ele>502.91000000000003</ele>
        <time>2025-05-19T09:07:10Z</time>
      </trkpt>
      <trkpt lat="43.986552972346544" lon="7.757884981110692">
        <ele>501.94999999999999</ele>
        <time>2025-05-19T09:07:11Z</time>
      </trkpt>
      <trkpt lat="43.986490024253726" lon="7.757999980822206">
        <ele>500.98000000000002</ele>
        <time>2025-05-19T09:07:12Z</time>
      </trkpt>
      <trkpt lat="43.986232029274106" lon="7.758485963568091">
        <ele>496.66000000000003</ele>
        <time>2025-05-19T09:07:16Z</time>
      </trkpt>
      <trkpt lat="43.986215014010668" lon="7.758599035441876">
        <ele>495.69999999999999</ele>
        <time>2025-05-19T09:07:17Z</time>
      </trkpt>
      <trkpt lat="43.986238986253738" lon="7.75871504098177">
        <ele>494.25999999999999</ele>
        <time>2025-05-19T09:07:18Z</time>
      </trkpt>
      <trkpt lat="43.986276034265757" lon="7.758836997672916">
        <ele>492.81</ele>
        <time>2025-05-19T09:07:19Z</time>
      </trkpt>
      <trkpt lat="43.986315010115504" lon="7.758967000991106">
        <ele>491.37</ele>
        <time>2025-05-19T09:07:20Z</time>
      </trkpt>
      <trkpt lat="43.986339988186955" lon="7.759050987660885">
        <ele>489.44999999999999</ele>
        <time>2025-05-19T09:07:21Z</time>
      </trkpt>
      <trkpt lat="43.986339988186955" lon="7.759050987660885">
        <ele>487.52999999999997</ele>
        <time>2025-05-19T09:07:22Z</time>
      </trkpt>
      <trkpt lat="43.986322972923517" lon="7.759214015677571">
        <ele>485.60000000000002</ele>
        <time>2025-05-19T09:07:23Z</time>
      </trkpt>
      <trkpt lat="43.986309980973601" lon="7.759336978197098">
        <ele>483.68000000000001</ele>
        <time>2025-05-19T09:07:24Z</time>
      </trkpt>
      <trkpt lat="43.986354991793633" lon="7.759582987055183">
        <ele>482.24000000000001</ele>
        <time>2025-05-19T09:07:25Z</time>
      </trkpt>
      <trkpt lat="43.986404025927186" lon="7.759688012301922">
        <ele>479.83999999999997</ele>
        <time>2025-05-19T09:07:26Z</time>
      </trkpt>
      <trkpt lat="43.986447025090456" lon="7.759780967608094">
        <ele>477.43000000000001</ele>
        <time>2025-05-19T09:07:27Z</time>
      </trkpt>
      <trkpt lat="43.986484995111823" lon="7.759931003674865">
        <ele>476.47000000000003</ele>
        <time>2025-05-19T09:07:28Z</time>
      </trkpt>
      <trkpt lat="43.986511984840035" lon="7.760038040578365">
        <ele>475.02999999999997</ele>
        <time>2025-05-19T09:07:29Z</time>
      </trkpt>
      <trkpt lat="43.986496981233358" lon="7.760171983391047">
        <ele>473.58999999999997</ele>
        <time>2025-05-19T09:07:30Z</time>
      </trkpt>
      <trkpt lat="43.98647896014154" lon="7.760336017236114">
        <ele>472.63</ele>
        <time>2025-05-19T09:07:31Z</time>
      </trkpt>
      <trkpt lat="43.986459011211991" lon="7.760516982525587">
        <ele>471.66000000000003</ele>
        <time>2025-05-19T09:07:32Z</time>
      </trkpt>
      <trkpt lat="43.986438978463411" lon="7.760697025805712">
        <ele>470.22000000000003</ele>
        <time>2025-05-19T09:07:33Z</time>
      </trkpt>
      <trkpt lat="43.98645699955523" lon="7.761068008840084">
        <ele>466.86000000000001</ele>
        <time>2025-05-19T09:07:35Z</time>
      </trkpt>
      <trkpt lat="43.98647896014154" lon="7.761247968301177">
        <ele>465.42000000000002</ele>
        <time>2025-05-19T09:07:36Z</time>
      </trkpt>
      <trkpt lat="43.986529000103474" lon="7.761650970205665">
        <ele>462.52999999999997</ele>
        <time>2025-05-19T09:07:38Z</time>
      </trkpt>
      <trkpt lat="43.986554984003305" lon="7.761862026527524">
        <ele>461.08999999999997</ele>
        <time>2025-05-19T09:07:39Z</time>
      </trkpt>
      <trkpt lat="43.98660896345973" lon="7.762452028691769">
        <ele>458.69</ele>
        <time>2025-05-19T09:07:42Z</time>
      </trkpt>
      <trkpt lat="43.986623967066407" lon="7.762613967061043">
        <ele>457.72000000000003</ele>
        <time>2025-05-19T09:07:43Z</time>
      </trkpt>
      <trkpt lat="43.986639976501465" lon="7.762785041704774">
        <ele>456.75999999999999</ele>
        <time>2025-05-19T09:07:44Z</time>
      </trkpt>
      <trkpt lat="43.986593959853053" lon="7.762941028922796">
        <ele>455.80000000000001</ele>
        <time>2025-05-19T09:07:45Z</time>
      </trkpt>
      <trkpt lat="43.986535035073757" lon="7.763138003647327">
        <ele>455.31999999999999</ele>
        <time>2025-05-19T09:07:46Z</time>
      </trkpt>
      <trkpt lat="43.986482983455062" lon="7.763307988643646">
        <ele>454.36000000000001</ele>
        <time>2025-05-19T09:07:47Z</time>
      </trkpt>
      <trkpt lat="43.986235968768597" lon="7.763970997184515">
        <ele>450.02999999999997</ele>
        <time>2025-05-19T09:07:51Z</time>
      </trkpt>
      <trkpt lat="43.986146030947566" lon="7.764093959704042">
        <ele>449.06999999999999</ele>
        <time>2025-05-19T09:07:52Z</time>
      </trkpt>
      <trkpt lat="43.98585501126945" lon="7.764547001570463">
        <ele>446.19</ele>
        <time>2025-05-19T09:07:55Z</time>
      </trkpt>
      <trkpt lat="43.985773036256433" lon="7.764739030972123">
        <ele>445.23000000000002</ele>
        <time>2025-05-19T09:07:56Z</time>
      </trkpt>
      <trkpt lat="43.985692989081144" lon="7.7649250254035">
        <ele>444.75</ele>
        <time>2025-05-19T09:07:57Z</time>
      </trkpt>
      <trkpt lat="43.985543036833405" lon="7.765273964032531">
        <ele>442.81999999999999</ele>
        <time>2025-05-19T09:07:59Z</time>
      </trkpt>
      <trkpt lat="43.985430970788002" lon="7.765416959300637">
        <ele>441.86000000000001</ele>
        <time>2025-05-19T09:08:00Z</time>
      </trkpt>
      <trkpt lat="43.985326029360294" lon="7.76552801951766">
        <ele>440.89999999999998</ele>
        <time>2025-05-19T09:08:01Z</time>
      </trkpt>
      <trkpt lat="43.985213041305542" lon="7.765647964552045">
        <ele>439.94</ele>
        <time>2025-05-19T09:08:02Z</time>
      </trkpt>
      <trkpt lat="43.985114973038435" lon="7.765790959820151">
        <ele>438.98000000000002</ele>
        <time>2025-05-19T09:08:03Z</time>
      </trkpt>
      <trkpt lat="43.985019000247121" lon="7.765948036685586">
        <ele>438.01999999999998</ele>
        <time>2025-05-19T09:08:04Z</time>
      </trkpt>
      <trkpt lat="43.984919004142284" lon="7.766111986711621">
        <ele>436.57999999999998</ele>
        <time>2025-05-19T09:08:05Z</time>
      </trkpt>
      <trkpt lat="43.984741978347301" lon="7.766400994732976">
        <ele>434.64999999999998</ele>
        <time>2025-05-19T09:08:07Z</time>
      </trkpt>
      <trkpt lat="43.984686993062496" lon="7.766524963080883">
        <ele>434.64999999999998</ele>
        <time>2025-05-19T09:08:08Z</time>
      </trkpt>
      <trkpt lat="43.984643993899226" lon="7.766662007197738">
        <ele>434.17000000000002</ele>
        <time>2025-05-19T09:08:09Z</time>
      </trkpt>
      <trkpt lat="43.984599988907576" lon="7.766799973323941">
        <ele>433.69</ele>
        <time>2025-05-19T09:08:10Z</time>
      </trkpt>
      <trkpt lat="43.984585991129279" lon="7.766940034925938">
        <ele>433.20999999999998</ele>
        <time>2025-05-19T09:08:11Z</time>
      </trkpt>
      <trkpt lat="43.984595965594053" lon="7.767098033800721">
        <ele>433.20999999999998</ele>
        <time>2025-05-19T09:08:12Z</time>
      </trkpt>
      <trkpt lat="43.98460702970624" lon="7.767262989655137">
        <ele>432.73000000000002</ele>
        <time>2025-05-19T09:08:13Z</time>
      </trkpt>
      <trkpt lat="43.984644999727607" lon="7.767848968505859">
        <ele>432.25</ele>
        <time>2025-05-19T09:08:16Z</time>
      </trkpt>
      <trkpt lat="43.984666038304567" lon="7.768004033714533">
        <ele>432.25</ele>
        <time>2025-05-19T09:08:17Z</time>
      </trkpt>
      <trkpt lat="43.984734015539289" lon="7.768509965389967">
        <ele>433.69</ele>
        <time>2025-05-19T09:08:20Z</time>
      </trkpt>
      <trkpt lat="43.984776008874178" lon="7.768821017816663">
        <ele>434.64999999999998</ele>
        <time>2025-05-19T09:08:22Z</time>
      </trkpt>
      <trkpt lat="43.984796963632107" lon="7.768968958407641">
        <ele>435.13</ele>
        <time>2025-05-19T09:08:23Z</time>
      </trkpt>
      <trkpt lat="43.984863013029099" lon="7.769109020009637">
        <ele>435.61000000000001</ele>
        <time>2025-05-19T09:08:24Z</time>
      </trkpt>
      <trkpt lat="43.984934007748961" lon="7.769258972257376">
        <ele>435.61000000000001</ele>
        <time>2025-05-19T09:08:25Z</time>
      </trkpt>
      <trkpt lat="43.985008019953966" lon="7.76939501054585">
        <ele>435.61000000000001</ele>
        <time>2025-05-19T09:08:26Z</time>
      </trkpt>
      <trkpt lat="43.985092006623745" lon="7.769526019692421">
        <ele>435.61000000000001</ele>
        <time>2025-05-19T09:08:27Z</time>
      </trkpt>
      <trkpt lat="43.985185967758298" lon="7.769674966111779">
        <ele>435.61000000000001</ele>
        <time>2025-05-19T09:08:28Z</time>
      </trkpt>
      <trkpt lat="43.985288981348276" lon="7.769836988300085">
        <ele>435.61000000000001</ele>
        <time>2025-05-19T09:08:29Z</time>
      </trkpt>
      <trkpt lat="43.985394006595016" lon="7.770001022145152">
        <ele>435.61000000000001</ele>
        <time>2025-05-19T09:08:30Z</time>
      </trkpt>
      <trkpt lat="43.985874960198998" lon="7.771105002611876">
        <ele>435.13</ele>
        <time>2025-05-19T09:08:36Z</time>
      </trkpt>
      <trkpt lat="43.986018039286137" lon="7.771450001746416">
        <ele>435.61000000000001</ele>
        <time>2025-05-19T09:08:38Z</time>
      </trkpt>
      <trkpt lat="43.986148964613676" lon="7.771812016144395">
        <ele>435.61000000000001</ele>
        <time>2025-05-19T09:08:40Z</time>
      </trkpt>
      <trkpt lat="43.986211996525526" lon="7.771986024454236">
        <ele>435.61000000000001</ele>
        <time>2025-05-19T09:08:41Z</time>
      </trkpt>
      <trkpt lat="43.986275028437376" lon="7.772159026935697">
        <ele>435.61000000000001</ele>
        <time>2025-05-19T09:08:42Z</time>
      </trkpt>
      <trkpt lat="43.986466974020004" lon="7.772691026329994">
        <ele>435.61000000000001</ele>
        <time>2025-05-19T09:08:45Z</time>
      </trkpt>
      <trkpt lat="43.986532017588615" lon="7.772870985791087">
        <ele>436.10000000000002</ele>
        <time>2025-05-19T09:08:46Z</time>
      </trkpt>
      <trkpt lat="43.986589014530182" lon="7.773206010460854">
        <ele>436.10000000000002</ele>
        <time>2025-05-19T09:08:48Z</time>
      </trkpt>
      <trkpt lat="43.986610975116491" lon="7.773387981578708">
        <ele>436.57999999999998</ele>
        <time>2025-05-19T09:08:49Z</time>
      </trkpt>
      <trkpt lat="43.986655985936522" lon="7.773746978491545">
        <ele>438.01999999999998</ele>
        <time>2025-05-19T09:08:51Z</time>
      </trkpt>
      <trkpt lat="43.986659003421664" lon="7.774275960400701">
        <ele>439.94</ele>
        <time>2025-05-19T09:08:54Z</time>
      </trkpt>
      <trkpt lat="43.986642993986607" lon="7.774474024772644">
        <ele>439.94</ele>
        <time>2025-05-19T09:08:55Z</time>
      </trkpt>
      <trkpt lat="43.986612986773252" lon="7.774654990062118">
        <ele>440.42000000000002</ele>
        <time>2025-05-19T09:08:56Z</time>
      </trkpt>
      <trkpt lat="43.986406037583947" lon="7.775595020502806">
        <ele>439.94</ele>
        <time>2025-05-19T09:09:01Z</time>
      </trkpt>
      <trkpt lat="43.986334959045053" lon="7.775761988013983">
        <ele>439.94</ele>
        <time>2025-05-19T09:09:02Z</time>
      </trkpt>
      <trkpt lat="43.986096996814013" lon="7.776326006278396">
        <ele>439.45999999999998</ele>
        <time>2025-05-19T09:09:06Z</time>
      </trkpt>
      <trkpt lat="43.986039999872446" lon="7.776518035680056">
        <ele>438.98000000000002</ele>
        <time>2025-05-19T09:09:07Z</time>
      </trkpt>
      <trkpt lat="43.986168997362256" lon="7.776496997103095">
        <ele>438.98000000000002</ele>
        <time>2025-05-19T09:09:08Z</time>
      </trkpt>
      <trkpt lat="43.986210990697145" lon="7.776624988764525">
        <ele>438.98000000000002</ele>
        <time>2025-05-19T09:09:09Z</time>
      </trkpt>
      <trkpt lat="43.986239992082119" lon="7.776671005412936">
        <ele>438.98000000000002</ele>
        <time>2025-05-19T09:09:10Z</time>
      </trkpt>
      <trkpt lat="43.986301012337208" lon="7.77676597237587">
        <ele>439.45999999999998</ele>
        <time>2025-05-19T09:09:11Z</time>
      </trkpt>
      <trkpt lat="43.986440990120173" lon="7.776939980685711">
        <ele>441.38</ele>
        <time>2025-05-19T09:09:13Z</time>
      </trkpt>
      <trkpt lat="43.986556995660067" lon="7.777166962623596">
        <ele>443.31</ele>
        <time>2025-05-19T09:09:15Z</time>
      </trkpt>
      <trkpt lat="43.986576022580266" lon="7.777205016463995">
        <ele>444.26999999999998</ele>
        <time>2025-05-19T09:09:16Z</time>
      </trkpt>
      <trkpt lat="43.986576022580266" lon="7.777334013953805">
        <ele>444.75</ele>
        <time>2025-05-19T09:09:17Z</time>
      </trkpt>
      <trkpt lat="43.986576022580266" lon="7.777376007288694">
        <ele>445.70999999999998</ele>
        <time>2025-05-19T09:09:18Z</time>
      </trkpt>
      <trkpt lat="43.986505027860403" lon="7.777485977858305">
        <ele>446.67000000000002</ele>
        <time>2025-05-19T09:09:19Z</time>
      </trkpt>
      <trkpt lat="43.986444007605314" lon="7.77758102864027">
        <ele>448.11000000000001</ele>
        <time>2025-05-19T09:09:20Z</time>
      </trkpt>
      <trkpt lat="43.986382987350225" lon="7.777712037786841">
        <ele>449.06999999999999</ele>
        <time>2025-05-19T09:09:21Z</time>
      </trkpt>
      <trkpt lat="43.986382987350225" lon="7.777784038335085">
        <ele>449.55000000000001</ele>
        <time>2025-05-19T09:09:22Z</time>
      </trkpt>
      <trkpt lat="43.986448030918837" lon="7.777848998084664">
        <ele>450.51999999999998</ele>
        <time>2025-05-19T09:09:23Z</time>
      </trkpt>
      <trkpt lat="43.986468985676765" lon="7.777870036661625">
        <ele>451</ele>
        <time>2025-05-19T09:09:24Z</time>
      </trkpt>
      <trkpt lat="43.986525982618332" lon="7.77781798504293">
        <ele>451.95999999999998</ele>
        <time>2025-05-19T09:09:25Z</time>
      </trkpt>
      <trkpt lat="43.986593959853053" lon="7.777755036950111">
        <ele>451.95999999999998</ele>
        <time>2025-05-19T09:09:26Z</time>
      </trkpt>
      <trkpt lat="43.986679958179593" lon="7.777675995603204">
        <ele>452.44</ele>
        <time>2025-05-19T09:09:27Z</time>
      </trkpt>
      <trkpt lat="43.986770985648036" lon="7.777588991448283">
        <ele>452.44</ele>
        <time>2025-05-19T09:09:28Z</time>
      </trkpt>
      <trkpt lat="43.986861007288098" lon="7.777498969808221">
        <ele>452.44</ele>
        <time>2025-05-19T09:09:29Z</time>
      </trkpt>
      <trkpt lat="43.987137023359537" lon="7.77723602950573">
        <ele>453.88</ele>
        <time>2025-05-19T09:09:33Z</time>
      </trkpt>
      <trkpt lat="43.987280018627644" lon="7.777116000652313">
        <ele>454.36000000000001</ele>
        <time>2025-05-19T09:09:36Z</time>
      </trkpt>
      <trkpt lat="43.987313965335488" lon="7.77708699926734">
        <ele>454.83999999999997</ele>
        <time>2025-05-19T09:09:37Z</time>
      </trkpt>
      <trkpt lat="43.987327041104436" lon="7.777076018974185">
        <ele>454.83999999999997</ele>
        <time>2025-05-19T09:09:38Z</time>
      </trkpt>
      <trkpt lat="43.987327041104436" lon="7.777076018974185">
        <ele>454.83999999999997</ele>
        <time>2025-05-19T09:09:39Z</time>
      </trkpt>
      <trkpt lat="43.987428965047002" lon="7.777138967067003">
        <ele>456.27999999999997</ele>
        <time>2025-05-19T09:09:50Z</time>
      </trkpt>
      <trkpt lat="43.987392000854015" lon="7.777162017300725">
        <ele>457.24000000000001</ele>
        <time>2025-05-19T09:09:53Z</time>
      </trkpt>
      <trkpt lat="43.987392000854015" lon="7.777162017300725">
        <ele>457.72000000000003</ele>
        <time>2025-05-19T09:09:54Z</time>
      </trkpt>
      <trkpt lat="43.987490991130471" lon="7.777224965393543">
        <ele>457.72000000000003</ele>
        <time>2025-05-19T09:09:55Z</time>
      </trkpt>
      <trkpt lat="43.987458972260356" lon="7.777278022840619">
        <ele>457.72000000000003</ele>
        <time>2025-05-19T09:09:56Z</time>
      </trkpt>
      <trkpt lat="43.987421002238989" lon="7.777341976761818">
        <ele>457.72000000000003</ele>
        <time>2025-05-19T09:09:57Z</time>
      </trkpt>
      <trkpt lat="43.987374985590577" lon="7.777397967875004">
        <ele>457.72000000000003</ele>
        <time>2025-05-19T09:09:58Z</time>
      </trkpt>
      <trkpt lat="43.987117996439338" lon="7.777686975896359">
        <ele>458.20999999999998</ele>
        <time>2025-05-19T09:10:02Z</time>
      </trkpt>
      <trkpt lat="43.98645699955523" lon="7.778315031901002">
        <ele>464.93000000000001</ele>
        <time>2025-05-19T09:10:09Z</time>
      </trkpt>
      <trkpt lat="43.986389022320509" lon="7.77844101190567">
        <ele>466.38</ele>
        <time>2025-05-19T09:10:10Z</time>
      </trkpt>
      <trkpt lat="43.986338982358575" lon="7.778576966375113">
        <ele>467.81999999999999</ele>
        <time>2025-05-19T09:10:11Z</time>
      </trkpt>
      <trkpt lat="43.986295983195305" lon="7.778734965249896">
        <ele>469.25999999999999</ele>
        <time>2025-05-19T09:10:12Z</time>
      </trkpt>
      <trkpt lat="43.986250972375274" lon="7.778902016580105">
        <ele>470.22000000000003</ele>
        <time>2025-05-19T09:10:13Z</time>
      </trkpt>
      <trkpt lat="43.986205039545894" lon="7.779073007404804">
        <ele>471.66000000000003</ele>
        <time>2025-05-19T09:10:14Z</time>
      </trkpt>
      <trkpt lat="43.986079981550574" lon="7.779536023736">
        <ele>475.02999999999997</ele>
        <time>2025-05-19T09:10:17Z</time>
      </trkpt>
      <trkpt lat="43.986072018742561" lon="7.779679019004107">
        <ele>475.99000000000001</ele>
        <time>2025-05-19T09:10:18Z</time>
      </trkpt>
      <trkpt lat="43.986094985157251" lon="7.779828971251845">
        <ele>476.94999999999999</ele>
        <time>2025-05-19T09:10:19Z</time>
      </trkpt>
      <trkpt lat="43.98613303899765" lon="7.780336998403072">
        <ele>479.83999999999997</ele>
        <time>2025-05-19T09:10:22Z</time>
      </trkpt>
      <trkpt lat="43.986118035390973" lon="7.780513018369675">
        <ele>480.80000000000001</ele>
        <time>2025-05-19T09:10:23Z</time>
      </trkpt>
      <trkpt lat="43.986104959622025" lon="7.780694989487529">
        <ele>481.75999999999999</ele>
        <time>2025-05-19T09:10:24Z</time>
      </trkpt>
      <trkpt lat="43.986118035390973" lon="7.780878972262144">
        <ele>482.72000000000003</ele>
        <time>2025-05-19T09:10:25Z</time>
      </trkpt>
      <trkpt lat="43.986131027340889" lon="7.78106396086514">
        <ele>483.68000000000001</ele>
        <time>2025-05-19T09:10:26Z</time>
      </trkpt>
      <trkpt lat="43.986147036775947" lon="7.781281974166632">
        <ele>484.63999999999999</ele>
        <time>2025-05-19T09:10:27Z</time>
      </trkpt>
      <trkpt lat="43.986104959622025" lon="7.781404014676809">
        <ele>485.60000000000002</ele>
        <time>2025-05-19T09:10:28Z</time>
      </trkpt>
      <trkpt lat="43.986051985993981" lon="7.781555978581309">
        <ele>486.56</ele>
        <time>2025-05-19T09:10:29Z</time>
      </trkpt>
      <trkpt lat="43.985856017097831" lon="7.781996028497815">
        <ele>489.93000000000001</ele>
        <time>2025-05-19T09:10:32Z</time>
      </trkpt>
      <trkpt lat="43.985611014068127" lon="7.782427025958896">
        <ele>493.76999999999998</ele>
        <time>2025-05-19T09:10:35Z</time>
      </trkpt>
      <trkpt lat="43.985562985762954" lon="7.782594999298453">
        <ele>495.22000000000003</ele>
        <time>2025-05-19T09:10:36Z</time>
      </trkpt>
      <trkpt lat="43.985517974942923" lon="7.782754004001617">
        <ele>496.66000000000003</ele>
        <time>2025-05-19T09:10:37Z</time>
      </trkpt>
      <trkpt lat="43.985342038795352" lon="7.783369990065694">
        <ele>503.38999999999999</ele>
        <time>2025-05-19T09:10:41Z</time>
      </trkpt>
      <trkpt lat="43.985331980511546" lon="7.78351197950542">
        <ele>505.31</ele>
        <time>2025-05-19T09:10:42Z</time>
      </trkpt>
      <trkpt lat="43.98533801548183" lon="7.783650029450655">
        <ele>507.23000000000002</ele>
        <time>2025-05-19T09:10:43Z</time>
      </trkpt>
      <trkpt lat="43.985368022695184" lon="7.783794030547142">
        <ele>508.67000000000002</ele>
        <time>2025-05-19T09:10:44Z</time>
      </trkpt>
      <trkpt lat="43.985400041565299" lon="7.783943982794881">
        <ele>510.60000000000002</ele>
        <time>2025-05-19T09:10:45Z</time>
      </trkpt>
      <trkpt lat="43.985463995486498" lon="7.784251011908054">
        <ele>513.48000000000002</ele>
        <time>2025-05-19T09:10:47Z</time>
      </trkpt>
      <trkpt lat="43.985496014356613" lon="7.784400964155793">
        <ele>514.91999999999996</ele>
        <time>2025-05-19T09:10:48Z</time>
      </trkpt>
      <trkpt lat="43.985558962449431" lon="7.784512024372816">
        <ele>516.37</ele>
        <time>2025-05-19T09:10:49Z</time>
      </trkpt>
      <trkpt lat="43.985643032938242" lon="7.784624006599188">
        <ele>517.80999999999995</ele>
        <time>2025-05-19T09:10:50Z</time>
      </trkpt>
      <trkpt lat="43.985730959102511" lon="7.784743029624224">
        <ele>519.25</ele>
        <time>2025-05-19T09:10:51Z</time>
      </trkpt>
      <trkpt lat="43.985823998227715" lon="7.784870015457273">
        <ele>520.69000000000005</ele>
        <time>2025-05-19T09:10:52Z</time>
      </trkpt>
      <trkpt lat="43.985918965190649" lon="7.784998007118702">
        <ele>522.13</ele>
        <time>2025-05-19T09:10:53Z</time>
      </trkpt>
      <trkpt lat="43.986106971278787" lon="7.78525298461318">
        <ele>525.5</ele>
        <time>2025-05-19T09:10:55Z</time>
      </trkpt>
      <trkpt lat="43.986191963776946" lon="7.785366978496313">
        <ele>526.94000000000005</ele>
        <time>2025-05-19T09:10:56Z</time>
      </trkpt>
      <trkpt lat="43.986249966546893" lon="7.785522965714335">
        <ele>528.38</ele>
        <time>2025-05-19T09:10:57Z</time>
      </trkpt>
      <trkpt lat="43.986274022608995" lon="7.785665960982442">
        <ele>529.82000000000005</ele>
        <time>2025-05-19T09:10:58Z</time>
      </trkpt>
      <trkpt lat="43.986297994852066" lon="7.785805016756058">
        <ele>531.26999999999998</ele>
        <time>2025-05-19T09:10:59Z</time>
      </trkpt>
      <trkpt lat="43.986322972923517" lon="7.785947006195784">
        <ele>532.71000000000004</ele>
        <time>2025-05-19T09:11:00Z</time>
      </trkpt>
      <trkpt lat="43.986346023157239" lon="7.786083966493607">
        <ele>534.63</ele>
        <time>2025-05-19T09:11:01Z</time>
      </trkpt>
      <trkpt lat="43.986354991793633" lon="7.786212963983417">
        <ele>536.07000000000005</ele>
        <time>2025-05-19T09:11:02Z</time>
      </trkpt>
      <trkpt lat="43.986337976530194" lon="7.786315977573395">
        <ele>537.50999999999999</ele>
        <time>2025-05-19T09:11:03Z</time>
      </trkpt>
      <trkpt lat="43.986320039257407" lon="7.786425026133657">
        <ele>538.96000000000004</ele>
        <time>2025-05-19T09:11:04Z</time>
      </trkpt>
      <trkpt lat="43.986299000680447" lon="7.786548994481564">
        <ele>539.91999999999996</ele>
        <time>2025-05-19T09:11:05Z</time>
      </trkpt>
      <trkpt lat="43.986277962103486" lon="7.786674974486232">
        <ele>541.36000000000001</ele>
        <time>2025-05-19T09:11:06Z</time>
      </trkpt>
      <trkpt lat="43.98630796931684" lon="7.786764996126294">
        <ele>542.32000000000005</ele>
        <time>2025-05-19T09:11:07Z</time>
      </trkpt>
      <trkpt lat="43.986353985965252" lon="7.786857029423118">
        <ele>543.27999999999997</ele>
        <time>2025-05-19T09:11:08Z</time>
      </trkpt>
      <trkpt lat="43.986420035362244" lon="7.786939004436135">
        <ele>544.24000000000001</ele>
        <time>2025-05-19T09:11:09Z</time>
      </trkpt>
      <trkpt lat="43.986473008990288" lon="7.787004970014095">
        <ele>544.72000000000003</ele>
        <time>2025-05-19T09:11:10Z</time>
      </trkpt>
      <trkpt lat="43.986511984840035" lon="7.787124998867512">
        <ele>545.69000000000005</ele>
        <time>2025-05-19T09:11:11Z</time>
      </trkpt>
      <trkpt lat="43.986503016203642" lon="7.787213008850813">
        <ele>546.16999999999996</ele>
        <time>2025-05-19T09:11:12Z</time>
      </trkpt>
      <trkpt lat="43.986441995948553" lon="7.787337983027101">
        <ele>547.13</ele>
        <time>2025-05-19T09:11:13Z</time>
      </trkpt>
      <trkpt lat="43.98637100122869" lon="7.787408977746964">
        <ele>547.61000000000001</ele>
        <time>2025-05-19T09:11:14Z</time>
      </trkpt>
      <trkpt lat="43.986293971538544" lon="7.78748600743711">
        <ele>548.09000000000003</ele>
        <time>2025-05-19T09:11:15Z</time>
      </trkpt>
      <trkpt lat="43.986227000132203" lon="7.787568988278508">
        <ele>549.04999999999995</ele>
        <time>2025-05-19T09:11:16Z</time>
      </trkpt>
      <trkpt lat="43.986189030110836" lon="7.787728998810053">
        <ele>550.00999999999999</ele>
        <time>2025-05-19T09:11:17Z</time>
      </trkpt>
      <trkpt lat="43.986128009855747" lon="7.78858202509582">
        <ele>553.38</ele>
        <time>2025-05-19T09:11:22Z</time>
      </trkpt>
      <trkpt lat="43.986115017905831" lon="7.788771959021688">
        <ele>553.86000000000001</ele>
        <time>2025-05-19T09:11:23Z</time>
      </trkpt>
      <trkpt lat="43.98609196767211" lon="7.788958037272096">
        <ele>554.82000000000005</ele>
        <time>2025-05-19T09:11:24Z</time>
      </trkpt>
      <trkpt lat="43.986037988215685" lon="7.789128022268415">
        <ele>555.29999999999995</ele>
        <time>2025-05-19T09:11:25Z</time>
      </trkpt>
      <trkpt lat="43.985987026244402" lon="7.789288032799959">
        <ele>556.25999999999999</ele>
        <time>2025-05-19T09:11:26Z</time>
      </trkpt>
      <trkpt lat="43.985943021252751" lon="7.789423987269402">
        <ele>556.74000000000001</ele>
        <time>2025-05-19T09:11:27Z</time>
      </trkpt>
      <trkpt lat="43.985929023474455" lon="7.789567988365889">
        <ele>557.70000000000005</ele>
        <time>2025-05-19T09:11:28Z</time>
      </trkpt>
      <trkpt lat="43.985923994332552" lon="7.789706960320473">
        <ele>558.17999999999995</ele>
        <time>2025-05-19T09:11:29Z</time>
      </trkpt>
      <trkpt lat="43.985912008211017" lon="7.790050031617284">
        <ele>559.62</ele>
        <time>2025-05-19T09:11:31Z</time>
      </trkpt>
      <trkpt lat="43.985882000997663" lon="7.79021599330008">
        <ele>560.11000000000001</ele>
        <time>2025-05-19T09:11:32Z</time>
      </trkpt>
      <trkpt lat="43.985846964642406" lon="7.790396036580205">
        <ele>560.59000000000003</ele>
        <time>2025-05-19T09:11:33Z</time>
      </trkpt>
      <trkpt lat="43.985846964642406" lon="7.790571972727776">
        <ele>561.07000000000005</ele>
        <time>2025-05-19T09:11:34Z</time>
      </trkpt>
      <trkpt lat="43.985846964642406" lon="7.7907520160079">
        <ele>561.54999999999995</ele>
        <time>2025-05-19T09:11:35Z</time>
      </trkpt>
      <trkpt lat="43.985846964642406" lon="7.791066002100706">
        <ele>562.50999999999999</ele>
        <time>2025-05-19T09:11:37Z</time>
      </trkpt>
      <trkpt lat="43.985777981579304" lon="7.791226012632251">
        <ele>562.99000000000001</ele>
        <time>2025-05-19T09:11:38Z</time>
      </trkpt>
      <trkpt lat="43.985722996294498" lon="7.791355010122061">
        <ele>563.95000000000005</ele>
        <time>2025-05-19T09:11:39Z</time>
      </trkpt>
      <trkpt lat="43.985669016838074" lon="7.791480990126729">
        <ele>564.90999999999997</ele>
        <time>2025-05-19T09:11:40Z</time>
      </trkpt>
      <trkpt lat="43.985620988532901" lon="7.79159196652472">
        <ele>565.38999999999999</ele>
        <time>2025-05-19T09:11:41Z</time>
      </trkpt>
      <trkpt lat="43.985588969662786" lon="7.791666984558106">
        <ele>565.87</ele>
        <time>2025-05-19T09:11:42Z</time>
      </trkpt>
      <trkpt lat="43.985615037381649" lon="7.79180302284658">
        <ele>566.35000000000002</ele>
        <time>2025-05-19T09:11:43Z</time>
      </trkpt>
      <trkpt lat="43.985630040988326" lon="7.791886003687978">
        <ele>567.32000000000005</ele>
        <time>2025-05-19T09:11:44Z</time>
      </trkpt>
      <trkpt lat="43.985641021281481" lon="7.791947023943067">
        <ele>567.32000000000005</ele>
        <time>2025-05-19T09:11:45Z</time>
      </trkpt>
      <trkpt lat="43.985687037929893" lon="7.791993962600827">
        <ele>567.79999999999995</ele>
        <time>2025-05-19T09:11:46Z</time>
      </trkpt>
      <trkpt lat="43.985734982416034" lon="7.791969990357757">
        <ele>567.79999999999995</ele>
        <time>2025-05-19T09:11:47Z</time>
      </trkpt>
      <trkpt lat="43.985771024599671" lon="7.791877035051584">
        <ele>567.79999999999995</ele>
        <time>2025-05-19T09:11:48Z</time>
      </trkpt>
      <trkpt lat="43.985804971307516" lon="7.791779972612858">
        <ele>568.27999999999997</ele>
        <time>2025-05-19T09:11:49Z</time>
      </trkpt>
      <trkpt lat="43.985847970470786" lon="7.791658015921712">
        <ele>568.27999999999997</ele>
        <time>2025-05-19T09:11:50Z</time>
      </trkpt>
      <trkpt lat="43.985912008211017" lon="7.791529018431902">
        <ele>568.27999999999997</ele>
        <time>2025-05-19T09:11:51Z</time>
      </trkpt>
      <trkpt lat="43.985988032072783" lon="7.791401026770473">
        <ele>568.75999999999999</ele>
        <time>2025-05-19T09:11:52Z</time>
      </trkpt>
      <trkpt lat="43.986571999266744" lon="7.790196966379881">
        <ele>577.40999999999997</ele>
        <time>2025-05-19T09:12:01Z</time>
      </trkpt>
      <trkpt lat="43.986630002036691" lon="7.790055982768536">
        <ele>578.85000000000002</ele>
        <time>2025-05-19T09:12:02Z</time>
      </trkpt>
      <trkpt lat="43.986686998978257" lon="7.789917010813952">
        <ele>579.80999999999995</ele>
        <time>2025-05-19T09:12:03Z</time>
      </trkpt>
      <trkpt lat="43.986731003969908" lon="7.789778038859367">
        <ele>580.76999999999998</ele>
        <time>2025-05-19T09:12:04Z</time>
      </trkpt>
      <trkpt lat="43.986749025061727" lon="7.789620961993933">
        <ele>581.25</ele>
        <time>2025-05-19T09:12:05Z</time>
      </trkpt>
      <trkpt lat="43.986766962334514" lon="7.789462963119149">
        <ele>581.73000000000002</ele>
        <time>2025-05-19T09:12:06Z</time>
      </trkpt>
      <trkpt lat="43.986782971769571" lon="7.789323991164565">
        <ele>582.22000000000003</ele>
        <time>2025-05-19T09:12:07Z</time>
      </trkpt>
      <trkpt lat="43.986795963719487" lon="7.789213014766574">
        <ele>583.17999999999995</ele>
        <time>2025-05-19T09:12:08Z</time>
      </trkpt>
      <trkpt lat="43.986807027831674" lon="7.789117963984609">
        <ele>583.65999999999997</ele>
        <time>2025-05-19T09:12:09Z</time>
      </trkpt>
      <trkpt lat="43.986847009509802" lon="7.789029031991959">
        <ele>584.13999999999999</ele>
        <time>2025-05-19T09:12:10Z</time>
      </trkpt>
      <trkpt lat="43.98688598535955" lon="7.788982009515166">
        <ele>584.62</ele>
        <time>2025-05-19T09:12:11Z</time>
      </trkpt>
      <trkpt lat="43.986947005614638" lon="7.788942027837038">
        <ele>585.10000000000002</ele>
        <time>2025-05-19T09:12:12Z</time>
      </trkpt>
      <trkpt lat="43.986962009221315" lon="7.788942027837038">
        <ele>585.58000000000004</ele>
        <time>2025-05-19T09:12:13Z</time>
      </trkpt>
      <trkpt lat="43.986962009221315" lon="7.788942027837038">
        <ele>586.05999999999995</ele>
        <time>2025-05-19T09:12:14Z</time>
      </trkpt>
      <trkpt lat="43.986962009221315" lon="7.788942027837038">
        <ele>586.05999999999995</ele>
        <time>2025-05-19T09:12:15Z</time>
      </trkpt>
      <trkpt lat="43.987048007547855" lon="7.789134979248047">
        <ele>586.05999999999995</ele>
        <time>2025-05-19T09:12:16Z</time>
      </trkpt>
      <trkpt lat="43.987048007547855" lon="7.789134979248047">
        <ele>586.05999999999995</ele>
        <time>2025-05-19T09:12:17Z</time>
      </trkpt>
      <trkpt lat="43.987078014761209" lon="7.789308987557888">
        <ele>585.10000000000002</ele>
        <time>2025-05-19T09:12:18Z</time>
      </trkpt>
      <trkpt lat="43.987111039459705" lon="7.789502022787929">
        <ele>583.65999999999997</ele>
        <time>2025-05-19T09:12:19Z</time>
      </trkpt>
      <trkpt lat="43.987226039171219" lon="7.790546994656324">
        <ele>582.22000000000003</ele>
        <time>2025-05-19T09:12:24Z</time>
      </trkpt>
      <trkpt lat="43.987004002556205" lon="7.79182699508965">
        <ele>583.65999999999997</ele>
        <time>2025-05-19T09:12:31Z</time>
      </trkpt>
      <trkpt lat="43.986924961209297" lon="7.792051965370774">
        <ele>585.10000000000002</ele>
        <time>2025-05-19T09:12:33Z</time>
      </trkpt>
      <trkpt lat="43.986898977309465" lon="7.79212698340416">
        <ele>585.58000000000004</ele>
        <time>2025-05-19T09:12:34Z</time>
      </trkpt>
      <trkpt lat="43.986811973154545" lon="7.792375003919005">
        <ele>585.58000000000004</ele>
        <time>2025-05-19T09:12:35Z</time>
      </trkpt>
      <trkpt lat="43.986812978982925" lon="7.792378021404147">
        <ele>585.58000000000004</ele>
        <time>2025-05-19T09:12:36Z</time>
      </trkpt>
      <trkpt lat="43.986825970932841" lon="7.792430995032191">
        <ele>585.58000000000004</ele>
        <time>2025-05-19T09:12:37Z</time>
      </trkpt>
      <trkpt lat="43.986940970644355" lon="7.792525039985776">
        <ele>586.05999999999995</ele>
        <time>2025-05-19T09:12:38Z</time>
      </trkpt>
      <trkpt lat="43.986940970644355" lon="7.792525039985776">
        <ele>586.05999999999995</ele>
        <time>2025-05-19T09:12:39Z</time>
      </trkpt>
      <trkpt lat="43.986988998949528" lon="7.792356982827187">
        <ele>586.53999999999996</ele>
        <time>2025-05-19T09:12:40Z</time>
      </trkpt>
      <trkpt lat="43.987055970355868" lon="7.792123965919018">
        <ele>586.05999999999995</ele>
        <time>2025-05-19T09:12:42Z</time>
      </trkpt>
      <trkpt lat="43.987197037786245" lon="7.791801011189818">
        <ele>585.58000000000004</ele>
        <time>2025-05-19T09:12:44Z</time>
      </trkpt>
      <trkpt lat="43.987482022494078" lon="7.791385017335415">
        <ele>586.53999999999996</ele>
        <time>2025-05-19T09:12:47Z</time>
      </trkpt>
      <trkpt lat="43.987670028582215" lon="7.791109001263976">
        <ele>587.98000000000002</ele>
        <time>2025-05-19T09:12:49Z</time>
      </trkpt>
      <trkpt lat="43.987719984725118" lon="7.790970029309392">
        <ele>588.95000000000005</ele>
        <time>2025-05-19T09:12:50Z</time>
      </trkpt>
      <trkpt lat="43.987778993323445" lon="7.790791997686029">
        <ele>589.90999999999997</ele>
        <time>2025-05-19T09:12:51Z</time>
      </trkpt>
      <trkpt lat="43.987819980829954" lon="7.79034398496151">
        <ele>593.75</ele>
        <time>2025-05-19T09:12:55Z</time>
      </trkpt>
      <trkpt lat="43.987825009971857" lon="7.790286988019943">
        <ele>594.23000000000002</ele>
        <time>2025-05-19T09:12:56Z</time>
      </trkpt>
      <trkpt lat="43.987842025235295" lon="7.790100993588567">
        <ele>594.71000000000004</ele>
        <time>2025-05-19T09:12:57Z</time>
      </trkpt>
      <trkpt lat="43.987842025235295" lon="7.790100993588567">
        <ele>595.19000000000005</ele>
        <time>2025-05-19T09:12:58Z</time>
      </trkpt>
      <trkpt lat="43.987842025235295" lon="7.790100993588567">
        <ele>595.66999999999996</ele>
        <time>2025-05-19T09:12:59Z</time>
      </trkpt>
      <trkpt lat="43.987885024398565" lon="7.790014995262027">
        <ele>598.55999999999995</ele>
        <time>2025-05-19T09:13:01Z</time>
      </trkpt>
      <trkpt lat="43.987949984148145" lon="7.790296040475369">
        <ele>600</ele>
        <time>2025-05-19T09:13:03Z</time>
      </trkpt>
      <trkpt lat="43.98791897110641" lon="7.79062301851809">
        <ele>600.96000000000004</ele>
        <time>2025-05-19T09:13:05Z</time>
      </trkpt>
      <trkpt lat="43.987908996641636" lon="7.790732989087701">
        <ele>601.44000000000005</ele>
        <time>2025-05-19T09:13:06Z</time>
      </trkpt>
      <trkpt lat="43.987902961671352" lon="7.790793003514409">
        <ele>601.91999999999996</ele>
        <time>2025-05-19T09:13:07Z</time>
      </trkpt>
      <trkpt lat="43.987902961671352" lon="7.790793003514409">
        <ele>603.36000000000001</ele>
        <time>2025-05-19T09:13:15Z</time>
      </trkpt>
      <trkpt lat="43.987902961671352" lon="7.790793003514409">
        <ele>612.01999999999998</ele>
        <time>2025-05-19T09:13:46Z</time>
      </trkpt>
      <trkpt lat="43.987879995256662" lon="7.791039012372494">
        <ele>614.89999999999998</ele>
        <time>2025-05-19T09:14:07Z</time>
      </trkpt>
      <trkpt lat="43.987861974164844" lon="7.791221989318728">
        <ele>624.02999999999997</ele>
        <time>2025-05-19T09:14:10Z</time>
      </trkpt>
      <trkpt lat="43.987854011356831" lon="7.791305975988507">
        <ele>626.44000000000005</ele>
        <time>2025-05-19T09:14:11Z</time>
      </trkpt>
      <trkpt lat="43.987842025235295" lon="7.791431033983827">
        <ele>627.39999999999998</ele>
        <time>2025-05-19T09:14:12Z</time>
      </trkpt>
      <trkpt lat="43.987807994708419" lon="7.791500017046928">
        <ele>627.88</ele>
        <time>2025-05-19T09:14:13Z</time>
      </trkpt>
      <trkpt lat="43.98776700720191" lon="7.791580986231566">
        <ele>628.36000000000001</ele>
        <time>2025-05-19T09:14:14Z</time>
      </trkpt>
      <trkpt lat="43.987530972808599" lon="7.792097982019186">
        <ele>631.72000000000003</ele>
        <time>2025-05-19T09:14:19Z</time>
      </trkpt>
      <trkpt lat="43.987366016954184" lon="7.792646996676922">
        <ele>636.52999999999997</ele>
        <time>2025-05-19T09:14:24Z</time>
      </trkpt>
      <trkpt lat="43.987324023619294" lon="7.792787980288267">
        <ele>638.45000000000005</ele>
        <time>2025-05-19T09:14:26Z</time>
      </trkpt>
      <trkpt lat="43.987306002527475" lon="7.792846988886595">
        <ele>639.40999999999997</ele>
        <time>2025-05-19T09:14:27Z</time>
      </trkpt>
      <trkpt lat="43.987321006134152" lon="7.792893005535007">
        <ele>640.86000000000001</ele>
        <time>2025-05-19T09:14:28Z</time>
      </trkpt>
      <trkpt lat="43.987349001690745" lon="7.792975986376405">
        <ele>641.82000000000005</ele>
        <time>2025-05-19T09:14:29Z</time>
      </trkpt>
      <trkpt lat="43.987349001690745" lon="7.792975986376405">
        <ele>642.77999999999997</ele>
        <time>2025-05-19T09:14:30Z</time>
      </trkpt>
      <trkpt lat="43.987367022782564" lon="7.792983027175069">
        <ele>643.74000000000001</ele>
        <time>2025-05-19T09:14:31Z</time>
      </trkpt>
      <trkpt lat="43.987367022782564" lon="7.792983027175069">
        <ele>645.65999999999997</ele>
        <time>2025-05-19T09:14:38Z</time>
      </trkpt>
      <trkpt lat="43.987456038594246" lon="7.793018985539675">
        <ele>647.10000000000002</ele>
        <time>2025-05-19T09:14:39Z</time>
      </trkpt>
      <trkpt lat="43.987464001402259" lon="7.793001970276237">
        <ele>648.07000000000005</ele>
        <time>2025-05-19T09:14:40Z</time>
      </trkpt>
      <trkpt lat="43.987493002787232" lon="7.79294497333467">
        <ele>649.02999999999997</ele>
        <time>2025-05-19T09:14:41Z</time>
      </trkpt>
      <trkpt lat="43.987519992515445" lon="7.792852018028498">
        <ele>649.50999999999999</ele>
        <time>2025-05-19T09:14:42Z</time>
      </trkpt>
      <trkpt lat="43.987519992515445" lon="7.792810024693608">
        <ele>650.47000000000003</ele>
        <time>2025-05-19T09:14:43Z</time>
      </trkpt>
      <trkpt lat="43.987519992515445" lon="7.792810024693608">
        <ele>651.42999999999995</ele>
        <time>2025-05-19T09:14:44Z</time>
      </trkpt>
      <trkpt lat="43.987480010837317" lon="7.792788986116648">
        <ele>653.83000000000004</ele>
        <time>2025-05-19T09:19:33Z</time>
      </trkpt>
      <trkpt lat="43.987508006393909" lon="7.792822010815144">
        <ele>661.51999999999998</ele>
        <time>2025-05-19T09:20:01Z</time>
      </trkpt>
      <trkpt lat="43.987519992515445" lon="7.792785968631506">
        <ele>661.03999999999996</ele>
        <time>2025-05-19T09:20:04Z</time>
      </trkpt>
      <trkpt lat="43.987519992515445" lon="7.792747998610139">
        <ele>661.03999999999996</ele>
        <time>2025-05-19T09:20:05Z</time>
      </trkpt>
      <trkpt lat="43.987519992515445" lon="7.792692007496953">
        <ele>661.03999999999996</ele>
        <time>2025-05-19T09:20:06Z</time>
      </trkpt>
      <trkpt lat="43.987610014155507" lon="7.792430995032191">
        <ele>661.03999999999996</ele>
        <time>2025-05-19T09:20:09Z</time>
      </trkpt>
      <trkpt lat="43.987651001662016" lon="7.792350025847554">
        <ele>661.51999999999998</ele>
        <time>2025-05-19T09:20:10Z</time>
      </trkpt>
      <trkpt lat="43.98774404078722" lon="7.792202001437545">
        <ele>662.97000000000003</ele>
        <time>2025-05-19T09:20:12Z</time>
      </trkpt>
      <trkpt lat="43.987802965566516" lon="7.792159002274275">
        <ele>663.92999999999995</ele>
        <time>2025-05-19T09:20:13Z</time>
      </trkpt>
      <trkpt lat="43.987933974713087" lon="7.79206202365458">
        <ele>665.37</ele>
        <time>2025-05-19T09:20:15Z</time>
      </trkpt>
      <trkpt lat="43.988081999123096" lon="7.791953980922699">
        <ele>666.80999999999995</ele>
        <time>2025-05-19T09:20:17Z</time>
      </trkpt>
      <trkpt lat="43.988204039633274" lon="7.791767986491323">
        <ele>668.25</ele>
        <time>2025-05-19T09:20:19Z</time>
      </trkpt>
      <trkpt lat="43.988263970240951" lon="7.791652986779809">
        <ele>668.73000000000002</ele>
        <time>2025-05-19T09:20:20Z</time>
      </trkpt>
      <trkpt lat="43.988388022407889" lon="7.791417958214879">
        <ele>670.65999999999997</ele>
        <time>2025-05-19T09:20:22Z</time>
      </trkpt>
      <trkpt lat="43.988448036834598" lon="7.791303964331746">
        <ele>671.62</ele>
        <time>2025-05-19T09:20:23Z</time>
      </trkpt>
      <trkpt lat="43.98873302154243" lon="7.790889982134104">
        <ele>676.41999999999996</ele>
        <time>2025-05-19T09:20:28Z</time>
      </trkpt>
      <trkpt lat="43.98875598795712" lon="7.79085997492075">
        <ele>677.38999999999999</ele>
        <time>2025-05-19T09:20:29Z</time>
      </trkpt>
      <trkpt lat="43.988767974078655" lon="7.790844971314073">
        <ele>678.35000000000002</ele>
        <time>2025-05-19T09:20:30Z</time>
      </trkpt>
      <trkpt lat="43.988790018483996" lon="7.790815969929099">
        <ele>684.60000000000002</ele>
        <time>2025-05-19T09:20:37Z</time>
      </trkpt>
      <trkpt lat="43.988808961585164" lon="7.790791997686029">
        <ele>685.08000000000004</ele>
        <time>2025-05-19T09:20:38Z</time>
      </trkpt>
      <trkpt lat="43.988895965740085" lon="7.790680015459657">
        <ele>688.44000000000005</ele>
        <time>2025-05-19T09:20:44Z</time>
      </trkpt>
      <trkpt lat="43.988895965740085" lon="7.790680015459657">
        <ele>687.48000000000002</ele>
        <time>2025-05-19T09:21:23Z</time>
      </trkpt>
      <trkpt lat="43.989052036777139" lon="7.790480023249984">
        <ele>687.96000000000004</ele>
        <time>2025-05-19T09:21:34Z</time>
      </trkpt>
      <trkpt lat="43.989231996238232" lon="7.790248012170196">
        <ele>688.91999999999996</ele>
        <time>2025-05-19T09:21:37Z</time>
      </trkpt>
      <trkpt lat="43.989291004836559" lon="7.790155978873372">
        <ele>689.88</ele>
        <time>2025-05-19T09:21:38Z</time>
      </trkpt>
      <trkpt lat="43.989370968192816" lon="7.78993796557188">
        <ele>690.84000000000003</ele>
        <time>2025-05-19T09:21:40Z</time>
      </trkpt>
      <trkpt lat="43.989412961527705" lon="7.789822965860367">
        <ele>691.33000000000004</ele>
        <time>2025-05-19T09:21:41Z</time>
      </trkpt>
      <trkpt lat="43.989453027024865" lon="7.789714001119137">
        <ele>692.28999999999996</ele>
        <time>2025-05-19T09:21:42Z</time>
      </trkpt>
      <trkpt lat="43.989713033661246" lon="7.789003970101476">
        <ele>696.61000000000001</ele>
        <time>2025-05-19T09:21:50Z</time>
      </trkpt>
      <trkpt lat="43.989733988419175" lon="7.788946973159909">
        <ele>697.57000000000005</ele>
        <time>2025-05-19T09:21:51Z</time>
      </trkpt>
      <trkpt lat="43.989748992025852" lon="7.78890497982502">
        <ele>698.04999999999995</ele>
        <time>2025-05-19T09:21:52Z</time>
      </trkpt>
      <trkpt lat="43.989773970097303" lon="7.788838008418679">
        <ele>700.46000000000004</ele>
        <time>2025-05-19T09:22:00Z</time>
      </trkpt>
      <trkpt lat="43.989972034469247" lon="7.788296034559608">
        <ele>702.38</ele>
        <time>2025-05-19T09:22:06Z</time>
      </trkpt>
      <trkpt lat="43.990116035565734" lon="7.787954974919558">
        <ele>703.34000000000003</ele>
        <time>2025-05-19T09:22:09Z</time>
      </trkpt>
      <trkpt lat="43.990247966721654" lon="7.787753976881504">
        <ele>704.29999999999995</ele>
        <time>2025-05-19T09:22:11Z</time>
      </trkpt>
      <trkpt lat="43.990318039432168" lon="7.787649035453796">
        <ele>705.25999999999999</ele>
        <time>2025-05-19T09:22:12Z</time>
      </trkpt>
      <trkpt lat="43.990697991102934" lon="7.786975968629122">
        <ele>710.54999999999995</ele>
        <time>2025-05-19T09:22:18Z</time>
      </trkpt>
      <trkpt lat="43.990781977772713" lon="7.786453021690249">
        <ele>714.88</ele>
        <time>2025-05-19T09:22:23Z</time>
      </trkpt>
      <trkpt lat="43.990834029391408" lon="7.786400970071554">
        <ele>715.84000000000003</ele>
        <time>2025-05-19T09:22:24Z</time>
      </trkpt>
      <trkpt lat="43.990859007462859" lon="7.786374986171722">
        <ele>716.32000000000005</ele>
        <time>2025-05-19T09:22:25Z</time>
      </trkpt>
      <trkpt lat="43.990876022726297" lon="7.786358976736665">
        <ele>717.27999999999997</ele>
        <time>2025-05-19T09:22:26Z</time>
      </trkpt>
      <trkpt lat="43.990924973040819" lon="7.786410022526979">
        <ele>717.75999999999999</ele>
        <time>2025-05-19T09:22:27Z</time>
      </trkpt>
      <trkpt lat="43.990932013839483" lon="7.786453021690249">
        <ele>718.24000000000001</ele>
        <time>2025-05-19T09:22:28Z</time>
      </trkpt>
      <trkpt lat="43.990874011069536" lon="7.786672962829471">
        <ele>720.15999999999997</ele>
        <time>2025-05-19T09:22:30Z</time>
      </trkpt>
      <trkpt lat="43.990803016349673" lon="7.787011004984379">
        <ele>721.61000000000001</ele>
        <time>2025-05-19T09:22:33Z</time>
      </trkpt>
      <trkpt lat="43.990781977772713" lon="7.787155006080866">
        <ele>722.09000000000003</ele>
        <time>2025-05-19T09:22:34Z</time>
      </trkpt>
      <trkpt lat="43.990761023014784" lon="7.787295989692211">
        <ele>722.57000000000005</ele>
        <time>2025-05-19T09:22:35Z</time>
      </trkpt>
      <trkpt lat="43.990740990266204" lon="7.787432027980685">
        <ele>723.52999999999997</ele>
        <time>2025-05-19T09:22:36Z</time>
      </trkpt>
      <trkpt lat="43.990720035508275" lon="7.787573011592031">
        <ele>724.00999999999999</ele>
        <time>2025-05-19T09:22:37Z</time>
      </trkpt>
      <trkpt lat="43.990700002759695" lon="7.787716006860137">
        <ele>724.97000000000003</ele>
        <time>2025-05-19T09:22:38Z</time>
      </trkpt>
      <trkpt lat="43.990714000537992" lon="7.787886997684836">
        <ele>726.40999999999997</ele>
        <time>2025-05-19T09:22:39Z</time>
      </trkpt>
      <trkpt lat="43.990733027458191" lon="7.788034016266465">
        <ele>727.37</ele>
        <time>2025-05-19T09:22:40Z</time>
      </trkpt>
      <trkpt lat="43.990750964730978" lon="7.788180029019713">
        <ele>728.34000000000003</ele>
        <time>2025-05-19T09:22:41Z</time>
      </trkpt>
      <trkpt lat="43.990768985822797" lon="7.78832302428782">
        <ele>729.29999999999995</ele>
        <time>2025-05-19T09:22:42Z</time>
      </trkpt>
      <trkpt lat="43.990762028843164" lon="7.788470964878798">
        <ele>730.25999999999999</ele>
        <time>2025-05-19T09:22:43Z</time>
      </trkpt>
      <trkpt lat="43.990708971396089" lon="7.788591999560595">
        <ele>731.22000000000003</ele>
        <time>2025-05-19T09:22:44Z</time>
      </trkpt>
      <trkpt lat="43.990655997768044" lon="7.78871102258563">
        <ele>732.17999999999995</ele>
        <time>2025-05-19T09:22:45Z</time>
      </trkpt>
      <trkpt lat="43.990604029968381" lon="7.788828033953905">
        <ele>733.62</ele>
        <time>2025-05-19T09:22:46Z</time>
      </trkpt>
      <trkpt lat="43.990554995834827" lon="7.788936998695135">
        <ele>734.58000000000004</ele>
        <time>2025-05-19T09:22:47Z</time>
      </trkpt>
      <trkpt lat="43.990523982793093" lon="7.789039006456733">
        <ele>735.07000000000005</ele>
        <time>2025-05-19T09:22:48Z</time>
      </trkpt>
      <trkpt lat="43.99051995947957" lon="7.789161968976259">
        <ele>736.02999999999997</ele>
        <time>2025-05-19T09:22:49Z</time>
      </trkpt>
      <trkpt lat="43.99051702581346" lon="7.789295995607972">
        <ele>736.99000000000001</ele>
        <time>2025-05-19T09:22:50Z</time>
      </trkpt>
      <trkpt lat="43.990513002499938" lon="7.789431028068066">
        <ele>737.47000000000003</ele>
        <time>2025-05-19T09:22:51Z</time>
      </trkpt>
      <trkpt lat="43.990505961701274" lon="7.789716012775898">
        <ele>738.90999999999997</ele>
        <time>2025-05-19T09:22:53Z</time>
      </trkpt>
      <trkpt lat="43.9904959872365" lon="7.789865965023637">
        <ele>739.87</ele>
        <time>2025-05-19T09:22:54Z</time>
      </trkpt>
      <trkpt lat="43.990451982244849" lon="7.790009966120124">
        <ele>740.35000000000002</ele>
        <time>2025-05-19T09:22:55Z</time>
      </trkpt>
      <trkpt lat="43.990404037758708" lon="7.790166037157178">
        <ele>741.30999999999995</ele>
        <time>2025-05-19T09:22:56Z</time>
      </trkpt>
      <trkpt lat="43.990353997796774" lon="7.790330993011594">
        <ele>741.78999999999996</ele>
        <time>2025-05-19T09:22:57Z</time>
      </trkpt>
      <trkpt lat="43.989881007000804" lon="7.791442014276981">
        <ele>750.92999999999995</ele>
        <time>2025-05-19T09:23:05Z</time>
      </trkpt>
      <trkpt lat="43.989844964817166" lon="7.791518960148096">
        <ele>751.88999999999999</ele>
        <time>2025-05-19T09:23:06Z</time>
      </trkpt>
      <trkpt lat="43.989821998402476" lon="7.791603030636907">
        <ele>753.80999999999995</ele>
        <time>2025-05-19T09:23:07Z</time>
      </trkpt>
      <trkpt lat="43.989837002009153" lon="7.791664972901344">
        <ele>755.25</ele>
        <time>2025-05-19T09:23:08Z</time>
      </trkpt>
      <trkpt lat="43.989906990900636" lon="7.791752982884646">
        <ele>756.69000000000005</ele>
        <time>2025-05-19T09:23:09Z</time>
      </trkpt>
      <trkpt lat="43.989977985620499" lon="7.791752982884646">
        <ele>758.13999999999999</ele>
        <time>2025-05-19T09:23:10Z</time>
      </trkpt>
      <trkpt lat="43.99006700143218" lon="7.791752982884646">
        <ele>759.10000000000002</ele>
        <time>2025-05-19T09:23:11Z</time>
      </trkpt>
      <trkpt lat="43.990137996152043" lon="7.791752982884646">
        <ele>760.05999999999995</ele>
        <time>2025-05-19T09:23:12Z</time>
      </trkpt>
      <trkpt lat="43.990248972550035" lon="7.791662039235234">
        <ele>761.5</ele>
        <time>2025-05-19T09:23:13Z</time>
      </trkpt>
      <trkpt lat="43.990332959219813" lon="7.79159196652472">
        <ele>762.46000000000004</ele>
        <time>2025-05-19T09:23:14Z</time>
      </trkpt>
      <trkpt lat="43.990420969203115" lon="7.791519965976477">
        <ele>763.89999999999998</ele>
        <time>2025-05-19T09:23:15Z</time>
      </trkpt>
      <trkpt lat="43.990503028035164" lon="7.791451988741756">
        <ele>765.83000000000004</ele>
        <time>2025-05-19T09:23:16Z</time>
      </trkpt>
      <trkpt lat="43.990578968077898" lon="7.791434973478317">
        <ele>767.26999999999998</ele>
        <time>2025-05-19T09:23:17Z</time>
      </trkpt>
      <trkpt lat="43.990684999153018" lon="7.791411001235247">
        <ele>769.19000000000005</ele>
        <time>2025-05-19T09:23:18Z</time>
      </trkpt>
      <trkpt lat="43.990782983601093" lon="7.791388034820557">
        <ele>770.63</ele>
        <time>2025-05-19T09:23:19Z</time>
      </trkpt>
      <trkpt lat="43.990893037989736" lon="7.791388034820557">
        <ele>772.55999999999995</ele>
        <time>2025-05-19T09:23:20Z</time>
      </trkpt>
      <trkpt lat="43.991009965538979" lon="7.791388034820557">
        <ele>774</ele>
        <time>2025-05-19T09:23:21Z</time>
      </trkpt>
      <trkpt lat="43.991132006049156" lon="7.791388034820557">
        <ele>775.44000000000005</ele>
        <time>2025-05-19T09:23:22Z</time>
      </trkpt>
      <trkpt lat="43.991250023245811" lon="7.791388034820557">
        <ele>777.36000000000001</ele>
        <time>2025-05-19T09:23:23Z</time>
      </trkpt>
      <trkpt lat="43.991894004866481" lon="7.791434973478317">
        <ele>785.04999999999995</ele>
        <time>2025-05-19T09:23:29Z</time>
      </trkpt>
      <trkpt lat="43.991961982101202" lon="7.791474033147097">
        <ele>786.01999999999998</ele>
        <time>2025-05-19T09:23:30Z</time>
      </trkpt>
      <trkpt lat="43.992012022063136" lon="7.791604036465287">
        <ele>786.98000000000002</ele>
        <time>2025-05-19T09:23:31Z</time>
      </trkpt>
      <trkpt lat="43.992058038711548" lon="7.791723981499672">
        <ele>787.94000000000005</ele>
        <time>2025-05-19T09:23:32Z</time>
      </trkpt>
      <trkpt lat="43.99210698902607" lon="7.791852978989482">
        <ele>788.89999999999998</ele>
        <time>2025-05-19T09:23:33Z</time>
      </trkpt>
      <trkpt lat="43.992158034816384" lon="7.791987005621195">
        <ele>789.86000000000001</ele>
        <time>2025-05-19T09:23:34Z</time>
      </trkpt>
      <trkpt lat="43.992207990959287" lon="7.792116003111005">
        <ele>790.82000000000005</ele>
        <time>2025-05-19T09:23:35Z</time>
      </trkpt>
      <trkpt lat="43.992243027314544" lon="7.792245000600815">
        <ele>792.25999999999999</ele>
        <time>2025-05-19T09:23:36Z</time>
      </trkpt>
      <trkpt lat="43.992251995950937" lon="7.792389001697302">
        <ele>793.71000000000004</ele>
        <time>2025-05-19T09:23:37Z</time>
      </trkpt>
      <trkpt lat="43.99225995875895" lon="7.792528979480267">
        <ele>794.66999999999996</ele>
        <time>2025-05-19T09:23:38Z</time>
      </trkpt>
      <trkpt lat="43.992242021486163" lon="7.792646996676922">
        <ele>795.63</ele>
        <time>2025-05-19T09:23:39Z</time>
      </trkpt>
      <trkpt lat="43.992211008444428" lon="7.792761996388435">
        <ele>797.07000000000005</ele>
        <time>2025-05-19T09:23:40Z</time>
      </trkpt>
      <trkpt lat="43.992176977917552" lon="7.79296400025487">
        <ele>798.50999999999999</ele>
        <time>2025-05-19T09:23:42Z</time>
      </trkpt>
      <trkpt lat="43.992176977917552" lon="7.793104983866215">
        <ele>798.99000000000001</ele>
        <time>2025-05-19T09:23:43Z</time>
      </trkpt>
      <trkpt lat="43.992206985130906" lon="7.793152006343007">
        <ele>798.99000000000001</ele>
        <time>2025-05-19T09:23:44Z</time>
      </trkpt>
      <trkpt lat="43.992264987900853" lon="7.793241022154689">
        <ele>798.99000000000001</ele>
        <time>2025-05-19T09:23:45Z</time>
      </trkpt>
      <trkpt lat="43.992332965135574" lon="7.793345041573048">
        <ele>798.99000000000001</ele>
        <time>2025-05-19T09:23:46Z</time>
      </trkpt>
      <trkpt lat="43.992467997595668" lon="7.793554002419114">
        <ele>798.99000000000001</ele>
        <time>2025-05-19T09:23:48Z</time>
      </trkpt>
      <trkpt lat="43.992541003972292" lon="7.793665984645486">
        <ele>799.47000000000003</ele>
        <time>2025-05-19T09:23:49Z</time>
      </trkpt>
      <trkpt lat="43.992734039202332" lon="7.793963039293885">
        <ele>800.44000000000005</ele>
        <time>2025-05-19T09:23:52Z</time>
      </trkpt>
      <trkpt lat="43.992820037528872" lon="7.794029004871845">
        <ele>800.91999999999996</ele>
        <time>2025-05-19T09:23:53Z</time>
      </trkpt>
      <trkpt lat="43.992907963693142" lon="7.794095976278186">
        <ele>800.91999999999996</ele>
        <time>2025-05-19T09:23:54Z</time>
      </trkpt>
      <trkpt lat="43.993012988939881" lon="7.794178035110235">
        <ele>800.91999999999996</ele>
        <time>2025-05-19T09:23:55Z</time>
      </trkpt>
      <trkpt lat="43.993090018630028" lon="7.794198989868164">
        <ele>801.39999999999998</ele>
        <time>2025-05-19T09:23:56Z</time>
      </trkpt>
      <trkpt lat="43.993193032220006" lon="7.794228997081518">
        <ele>801.39999999999998</ele>
        <time>2025-05-19T09:23:57Z</time>
      </trkpt>
      <trkpt lat="43.993307026103139" lon="7.794261015951634">
        <ele>801.39999999999998</ele>
        <time>2025-05-19T09:23:58Z</time>
      </trkpt>
      <trkpt lat="43.993421019986272" lon="7.794294040650129">
        <ele>801.88</ele>
        <time>2025-05-19T09:23:59Z</time>
      </trkpt>
      <trkpt lat="43.993516992777586" lon="7.794321030378342">
        <ele>801.88</ele>
        <time>2025-05-19T09:24:00Z</time>
      </trkpt>
      <trkpt lat="43.993595028296113" lon="7.794343996793032">
        <ele>802.36000000000001</ele>
        <time>2025-05-19T09:24:01Z</time>
      </trkpt>
      <trkpt lat="43.993619000539184" lon="7.794362017884851">
        <ele>802.36000000000001</ele>
        <time>2025-05-19T09:24:02Z</time>
      </trkpt>
      <trkpt lat="43.993650013580918" lon="7.794452961534262">
        <ele>802.84000000000003</ele>
        <time>2025-05-19T09:24:03Z</time>
      </trkpt>
      <trkpt lat="43.993684966117144" lon="7.79455304145813">
        <ele>802.84000000000003</ele>
        <time>2025-05-19T09:24:04Z</time>
      </trkpt>
      <trkpt lat="43.993720002472401" lon="7.794656977057457">
        <ele>803.32000000000005</ele>
        <time>2025-05-19T09:24:05Z</time>
      </trkpt>
      <trkpt lat="43.993795020505786" lon="7.794873984530568">
        <ele>804.27999999999997</ele>
        <time>2025-05-19T09:24:07Z</time>
      </trkpt>
      <trkpt lat="43.993835002183914" lon="7.794982027262449">
        <ele>804.75999999999999</ele>
        <time>2025-05-19T09:24:08Z</time>
      </trkpt>
      <trkpt lat="43.993884036317468" lon="7.795059978961945">
        <ele>805.24000000000001</ele>
        <time>2025-05-19T09:24:09Z</time>
      </trkpt>
      <trkpt lat="43.993942039087415" lon="7.795142959803343">
        <ele>805.72000000000003</ele>
        <time>2025-05-19T09:24:10Z</time>
      </trkpt>
      <trkpt lat="43.994014039635658" lon="7.795146983116865">
        <ele>806.20000000000005</ele>
        <time>2025-05-19T09:24:11Z</time>
      </trkpt>
      <trkpt lat="43.994095008820295" lon="7.795151006430388">
        <ele>806.67999999999995</ele>
        <time>2025-05-19T09:24:12Z</time>
      </trkpt>
      <trkpt lat="43.994465991854668" lon="7.795181013643742">
        <ele>808.13</ele>
        <time>2025-05-19T09:24:16Z</time>
      </trkpt>
      <trkpt lat="43.994566993787885" lon="7.795201968401671">
        <ele>808.61000000000001</ele>
        <time>2025-05-19T09:24:17Z</time>
      </trkpt>
      <trkpt lat="43.994792969897389" lon="7.795248990878463">
        <ele>809.57000000000005</ele>
        <time>2025-05-19T09:24:19Z</time>
      </trkpt>
      <trkpt lat="43.994902018457651" lon="7.795272041112185">
        <ele>810.04999999999995</ele>
        <time>2025-05-19T09:24:20Z</time>
      </trkpt>
      <trkpt lat="43.995000002905726" lon="7.795358039438725">
        <ele>810.52999999999997</ele>
        <time>2025-05-19T09:24:21Z</time>
      </trkpt>
      <trkpt lat="43.99517803452909" lon="7.795514026656747">
        <ele>811.49000000000001</ele>
        <time>2025-05-19T09:24:23Z</time>
      </trkpt>
      <trkpt lat="43.995242994278669" lon="7.795570017769933">
        <ele>811.49000000000001</ele>
        <time>2025-05-19T09:24:24Z</time>
      </trkpt>
      <trkpt lat="43.995299991220236" lon="7.795590972527862">
        <ele>811.49000000000001</ele>
        <time>2025-05-19T09:24:25Z</time>
      </trkpt>
      <trkpt lat="43.995377020910382" lon="7.795614022761583">
        <ele>811.97000000000003</ele>
        <time>2025-05-19T09:24:26Z</time>
      </trkpt>
      <trkpt lat="43.995503000915051" lon="7.795550990849733">
        <ele>811.97000000000003</ele>
        <time>2025-05-19T09:24:27Z</time>
      </trkpt>
      <trkpt lat="43.995549017563462" lon="7.795496005564928">
        <ele>811.97000000000003</ele>
        <time>2025-05-19T09:24:28Z</time>
      </trkpt>
      <trkpt lat="43.99563199840486" lon="7.795398021116853">
        <ele>811.97000000000003</ele>
        <time>2025-05-19T09:24:29Z</time>
      </trkpt>
      <trkpt lat="43.995739035308361" lon="7.795272041112185">
        <ele>811.97000000000003</ele>
        <time>2025-05-19T09:24:30Z</time>
      </trkpt>
      <trkpt lat="43.995826961472631" lon="7.795219989493489">
        <ele>811.97000000000003</ele>
        <time>2025-05-19T09:24:31Z</time>
      </trkpt>
      <trkpt lat="43.995935004204512" lon="7.795157041400671">
        <ele>812.45000000000005</ele>
        <time>2025-05-19T09:24:32Z</time>
      </trkpt>
      <trkpt lat="43.996596001088619" lon="7.794768959283829">
        <ele>812.92999999999995</ele>
        <time>2025-05-19T09:24:38Z</time>
      </trkpt>
      <trkpt lat="43.997029010206461" lon="7.794653037562966">
        <ele>813.40999999999997</ele>
        <time>2025-05-19T09:24:42Z</time>
      </trkpt>
      <trkpt lat="43.997364034876227" lon="7.794567961245775">
        <ele>813.40999999999997</ele>
        <time>2025-05-19T09:24:45Z</time>
      </trkpt>
      <trkpt lat="43.997532008215785" lon="7.794521022588015">
        <ele>813.40999999999997</ele>
        <time>2025-05-19T09:24:47Z</time>
      </trkpt>
      <trkpt lat="43.997617000713944" lon="7.794521022588015">
        <ele>813.40999999999997</ele>
        <time>2025-05-19T09:24:48Z</time>
      </trkpt>
      <trkpt lat="43.997699981555343" lon="7.794521022588015">
        <ele>813.40999999999997</ele>
        <time>2025-05-19T09:24:49Z</time>
      </trkpt>
      <trkpt lat="43.997781034559011" lon="7.794521022588015">
        <ele>812.92999999999995</ele>
        <time>2025-05-19T09:24:50Z</time>
      </trkpt>
      <trkpt lat="43.997860997915268" lon="7.794509958475828">
        <ele>812.92999999999995</ele>
        <time>2025-05-19T09:24:51Z</time>
      </trkpt>
      <trkpt lat="43.997939033433795" lon="7.794468970969319">
        <ele>812.45000000000005</ele>
        <time>2025-05-19T09:24:52Z</time>
      </trkpt>
      <trkpt lat="43.998025031760335" lon="7.794422032311559">
        <ele>812.45000000000005</ele>
        <time>2025-05-19T09:24:53Z</time>
      </trkpt>
      <trkpt lat="43.998119998723269" lon="7.794370986521244">
        <ele>811.97000000000003</ele>
        <time>2025-05-19T09:24:54Z</time>
      </trkpt>
      <trkpt lat="43.998217983171344" lon="7.794380038976669">
        <ele>811.97000000000003</ele>
        <time>2025-05-19T09:24:55Z</time>
      </trkpt>
      <trkpt lat="43.998328037559986" lon="7.794390013441443">
        <ele>811.49000000000001</ele>
        <time>2025-05-19T09:24:56Z</time>
      </trkpt>
      <trkpt lat="43.998430967330933" lon="7.794398982077837">
        <ele>811.00999999999999</ele>
        <time>2025-05-19T09:24:57Z</time>
      </trkpt>
      <trkpt lat="43.998519983142614" lon="7.794407028704882">
        <ele>810.52999999999997</ele>
        <time>2025-05-19T09:24:58Z</time>
      </trkpt>
      <trkpt lat="43.998624002560973" lon="7.794394958764315">
        <ele>810.52999999999997</ele>
        <time>2025-05-19T09:24:59Z</time>
      </trkpt>
      <trkpt lat="43.998705977573991" lon="7.794349025934935">
        <ele>810.52999999999997</ele>
        <time>2025-05-19T09:25:00Z</time>
      </trkpt>
      <trkpt lat="43.998964978381991" lon="7.794241989031434">
        <ele>810.52999999999997</ele>
        <time>2025-05-19T09:25:03Z</time>
      </trkpt>
      <trkpt lat="43.999021975323558" lon="7.794241989031434">
        <ele>810.52999999999997</ele>
        <time>2025-05-19T09:25:04Z</time>
      </trkpt>
      <trkpt lat="43.999397987499833" lon="7.794454973191023">
        <ele>811.00999999999999</ele>
        <time>2025-05-19T09:25:08Z</time>
      </trkpt>
      <trkpt lat="43.999426988884807" lon="7.794478023424745">
        <ele>811.00999999999999</ele>
        <time>2025-05-19T09:25:09Z</time>
      </trkpt>
      <trkpt lat="43.99949898943305" lon="7.794556980952621">
        <ele>812.45000000000005</ele>
        <time>2025-05-19T09:25:10Z</time>
      </trkpt>
      <trkpt lat="43.999671991914511" lon="7.794711962342262">
        <ele>813.40999999999997</ele>
        <time>2025-05-19T09:25:12Z</time>
      </trkpt>
      <trkpt lat="43.999757990241051" lon="7.794744987040758">
        <ele>814.37</ele>
        <time>2025-05-19T09:25:13Z</time>
      </trkpt>
      <trkpt lat="43.999850023537874" lon="7.794780023396015">
        <ele>815.34000000000003</ele>
        <time>2025-05-19T09:25:14Z</time>
      </trkpt>
      <trkpt lat="43.999962005764246" lon="7.794799972325563">
        <ele>815.82000000000005</ele>
        <time>2025-05-19T09:25:15Z</time>
      </trkpt>
      <trkpt lat="44.00005797855556" lon="7.794799972325563">
        <ele>816.77999999999997</ele>
        <time>2025-05-19T09:25:16Z</time>
      </trkpt>
      <trkpt lat="44.000150011852384" lon="7.794799972325563">
        <ele>818.22000000000003</ele>
        <time>2025-05-19T09:25:17Z</time>
      </trkpt>
      <trkpt lat="44.00022896938026" lon="7.794816987589002">
        <ele>819.17999999999995</ele>
        <time>2025-05-19T09:25:18Z</time>
      </trkpt>
      <trkpt lat="44.000316979363561" lon="7.794850012287498">
        <ele>820.13999999999999</ele>
        <time>2025-05-19T09:25:19Z</time>
      </trkpt>
      <trkpt lat="44.000480007380247" lon="7.794949002563953">
        <ele>822.05999999999995</ele>
        <time>2025-05-19T09:25:21Z</time>
      </trkpt>
      <trkpt lat="44.000564999878407" lon="7.795033995062113">
        <ele>823.50999999999999</ele>
        <time>2025-05-19T09:25:22Z</time>
      </trkpt>
      <trkpt lat="44.000746970996261" lon="7.795215966179967">
        <ele>826.38999999999999</ele>
        <time>2025-05-19T09:25:24Z</time>
      </trkpt>
      <trkpt lat="44.000886026769876" lon="7.795388968661428">
        <ele>828.30999999999995</ele>
        <time>2025-05-19T09:25:26Z</time>
      </trkpt>
      <trkpt lat="44.000946963205934" lon="7.795502040535212">
        <ele>830.24000000000001</ele>
        <time>2025-05-19T09:25:27Z</time>
      </trkpt>
      <trkpt lat="44.001062968745828" lon="7.795713013038039">
        <ele>833.60000000000002</ele>
        <time>2025-05-19T09:25:29Z</time>
      </trkpt>
      <trkpt lat="44.001138992607594" lon="7.795814014971256">
        <ele>835.03999999999996</ele>
        <time>2025-05-19T09:25:30Z</time>
      </trkpt>
      <trkpt lat="44.001189032569528" lon="7.795850979164243">
        <ele>835.51999999999998</ele>
        <time>2025-05-19T09:25:31Z</time>
      </trkpt>
      <trkpt lat="44.001315012574196" lon="7.795960027724505">
        <ele>836</ele>
        <time>2025-05-19T09:25:32Z</time>
      </trkpt>
      <trkpt lat="44.001415008679032" lon="7.796047031879425">
        <ele>836.96000000000004</ele>
        <time>2025-05-19T09:25:33Z</time>
      </trkpt>
      <trkpt lat="44.001510981470346" lon="7.796130012720823">
        <ele>837.45000000000005</ele>
        <time>2025-05-19T09:25:34Z</time>
      </trkpt>
      <trkpt lat="44.001587005332112" lon="7.796264039352536">
        <ele>838.40999999999997</ele>
        <time>2025-05-19T09:25:35Z</time>
      </trkpt>
      <trkpt lat="44.001664035022259" lon="7.796397982165217">
        <ele>839.37</ele>
        <time>2025-05-19T09:25:36Z</time>
      </trkpt>
      <trkpt lat="44.001739975064993" lon="7.79653200879693">
        <ele>840.33000000000004</ele>
        <time>2025-05-19T09:25:37Z</time>
      </trkpt>
      <trkpt lat="44.001802001148462" lon="7.796665029600263">
        <ele>841.76999999999998</ele>
        <time>2025-05-19T09:25:38Z</time>
      </trkpt>
      <trkpt lat="44.001853968948126" lon="7.796796960756183">
        <ele>842.73000000000002</ele>
        <time>2025-05-19T09:25:39Z</time>
      </trkpt>
      <trkpt lat="44.001903003081679" lon="7.79691799543798">
        <ele>843.69000000000005</ele>
        <time>2025-05-19T09:25:40Z</time>
      </trkpt>
      <trkpt lat="44.001942984759808" lon="7.797036012634635">
        <ele>845.13999999999999</ele>
        <time>2025-05-19T09:25:41Z</time>
      </trkpt>
      <trkpt lat="44.001962011680007" lon="7.797185964882374">
        <ele>847.05999999999995</ele>
        <time>2025-05-19T09:25:42Z</time>
      </trkpt>
      <trkpt lat="44.001981038600206" lon="7.797337006777525">
        <ele>848.98000000000002</ele>
        <time>2025-05-19T09:25:43Z</time>
      </trkpt>
      <trkpt lat="44.001997970044613" lon="7.797473967075348">
        <ele>850.89999999999998</ele>
        <time>2025-05-19T09:25:44Z</time>
      </trkpt>
      <trkpt lat="44.002011967822909" lon="7.797589972615242">
        <ele>852.83000000000004</ele>
        <time>2025-05-19T09:25:45Z</time>
      </trkpt>
      <trkpt lat="44.002024959772825" lon="7.797690974548459">
        <ele>854.26999999999998</ele>
        <time>2025-05-19T09:25:46Z</time>
      </trkpt>
      <trkpt lat="44.002025965601206" lon="7.797697009518743">
        <ele>855.71000000000004</ele>
        <time>2025-05-19T09:25:47Z</time>
      </trkpt>
      <trkpt lat="44.002078017219901" lon="7.797775967046619">
        <ele>856.66999999999996</ele>
        <time>2025-05-19T09:25:48Z</time>
      </trkpt>
      <trkpt lat="44.002105006948113" lon="7.797815026715398">
        <ele>857.14999999999998</ele>
        <time>2025-05-19T09:25:49Z</time>
      </trkpt>
      <trkpt lat="44.002130990847945" lon="7.797854002565146">
        <ele>857.63</ele>
        <time>2025-05-19T09:25:50Z</time>
      </trkpt>
      <trkpt lat="44.002154041081667" lon="7.797889960929751">
        <ele>858.11000000000001</ele>
        <time>2025-05-19T09:25:51Z</time>
      </trkpt>
      <trkpt lat="44.002160998061299" lon="7.797894990071654">
        <ele>858.11000000000001</ele>
        <time>2025-05-19T09:25:52Z</time>
      </trkpt>
      <trkpt lat="44.002185976132751" lon="7.797917034476996">
        <ele>858.11000000000001</ele>
        <time>2025-05-19T09:25:53Z</time>
      </trkpt>
      <trkpt lat="44.002202991396189" lon="7.797932038083673">
        <ele>858.11000000000001</ele>
        <time>2025-05-19T09:25:54Z</time>
      </trkpt>
      <trkpt lat="44.002202991396189" lon="7.797932038083673">
        <ele>858.11000000000001</ele>
        <time>2025-05-19T09:26:10Z</time>
      </trkpt>
      <trkpt lat="44.002240961417556" lon="7.797963973134756">
        <ele>858.59000000000003</ele>
        <time>2025-05-19T09:26:11Z</time>
      </trkpt>
      <trkpt lat="44.002281026914716" lon="7.797998003661633">
        <ele>858.59000000000003</ele>
        <time>2025-05-19T09:26:12Z</time>
      </trkpt>
      <trkpt lat="44.002329977229238" lon="7.798039996996522">
        <ele>858.59000000000003</ele>
        <time>2025-05-19T09:26:13Z</time>
      </trkpt>
      <trkpt lat="44.002455035224557" lon="7.798147033900023">
        <ele>858.59000000000003</ele>
        <time>2025-05-19T09:26:14Z</time>
      </trkpt>
      <trkpt lat="44.002478001639247" lon="7.798226997256279">
        <ele>858.59000000000003</ele>
        <time>2025-05-19T09:26:15Z</time>
      </trkpt>
      <trkpt lat="44.002514965832233" lon="7.798360018059611">
        <ele>858.11000000000001</ele>
        <time>2025-05-19T09:26:16Z</time>
      </trkpt>
      <trkpt lat="44.002558970823884" lon="7.79848599806428">
        <ele>858.11000000000001</ele>
        <time>2025-05-19T09:26:17Z</time>
      </trkpt>
      <trkpt lat="44.002623008564115" lon="7.798621030524373">
        <ele>858.59000000000003</ele>
        <time>2025-05-19T09:26:18Z</time>
      </trkpt>
      <trkpt lat="44.002734990790486" lon="7.798861004412174">
        <ele>860.03999999999996</ele>
        <time>2025-05-19T09:26:20Z</time>
      </trkpt>
      <trkpt lat="44.002756029367447" lon="7.798967035487294">
        <ele>860.51999999999998</ele>
        <time>2025-05-19T09:26:21Z</time>
      </trkpt>
      <trkpt lat="44.002773966640234" lon="7.799055967479944">
        <ele>860.51999999999998</ele>
        <time>2025-05-19T09:26:22Z</time>
      </trkpt>
      <trkpt lat="44.002788970246911" lon="7.799129979684949">
        <ele>860.51999999999998</ele>
        <time>2025-05-19T09:26:23Z</time>
      </trkpt>
      <trkpt lat="44.002811014652252" lon="7.799177002161741">
        <ele>860.51999999999998</ele>
        <time>2025-05-19T09:26:24Z</time>
      </trkpt>
      <trkpt lat="44.002842027693987" lon="7.799177002161741">
        <ele>861.48000000000002</ele>
        <time>2025-05-19T09:26:25Z</time>
      </trkpt>
      <trkpt lat="44.00289399549365" lon="7.799156969413161">
        <ele>861.48000000000002</ele>
        <time>2025-05-19T09:26:26Z</time>
      </trkpt>
      <trkpt lat="44.002915034070611" lon="7.799054039642215">
        <ele>860.51999999999998</ele>
        <time>2025-05-19T09:26:27Z</time>
      </trkpt>
      <trkpt lat="44.002898018807173" lon="7.798997964709997">
        <ele>860.03999999999996</ele>
        <time>2025-05-19T09:26:28Z</time>
      </trkpt>
      <trkpt lat="44.002875974401832" lon="7.798928981646895">
        <ele>859.55999999999995</ele>
        <time>2025-05-19T09:26:29Z</time>
      </trkpt>
      <trkpt lat="44.002852002158761" lon="7.798852035775781">
        <ele>859.08000000000004</ele>
        <time>2025-05-19T09:26:30Z</time>
      </trkpt>
      <trkpt lat="44.002708001062274" lon="7.798523968085647">
        <ele>857.14999999999998</ele>
        <time>2025-05-19T09:26:33Z</time>
      </trkpt>
      <trkpt lat="44.002584032714367" lon="7.798276031389833">
        <ele>854.26999999999998</ele>
        <time>2025-05-19T09:26:36Z</time>
      </trkpt>
      <trkpt lat="44.002531981095672" lon="7.797987023368478">
        <ele>853.78999999999996</ele>
        <time>2025-05-19T09:26:37Z</time>
      </trkpt>
      <trkpt lat="44.002460986375809" lon="7.797894990071654">
        <ele>853.78999999999996</ele>
        <time>2025-05-19T09:26:38Z</time>
      </trkpt>
      <trkpt lat="44.002393009141088" lon="7.797807985916734">
        <ele>854.26999999999998</ele>
        <time>2025-05-19T09:26:39Z</time>
      </trkpt>
      <trkpt lat="44.002327965572476" lon="7.797725005075336">
        <ele>854.26999999999998</ele>
        <time>2025-05-19T09:26:40Z</time>
      </trkpt>
      <trkpt lat="44.00226904079318" lon="7.79764998704195">
        <ele>853.78999999999996</ele>
        <time>2025-05-19T09:26:41Z</time>
      </trkpt>
      <trkpt lat="44.002154041081667" lon="7.797503974288702">
        <ele>853.78999999999996</ele>
        <time>2025-05-19T09:26:42Z</time>
      </trkpt>
      <trkpt lat="44.002154041081667" lon="7.797440020367503">
        <ele>853.30999999999995</ele>
        <time>2025-05-19T09:26:43Z</time>
      </trkpt>
      <trkpt lat="44.002154041081667" lon="7.797317979857326">
        <ele>855.23000000000002</ele>
        <time>2025-05-19T09:26:44Z</time>
      </trkpt>
      <trkpt lat="44.002096960321069" lon="7.796888994053006">
        <ele>859.08000000000004</ele>
        <time>2025-05-19T09:26:47Z</time>
      </trkpt>
      <trkpt lat="44.002070976421237" lon="7.796784974634647">
        <ele>860.51999999999998</ele>
        <time>2025-05-19T09:26:48Z</time>
      </trkpt>
      <trkpt lat="44.002039963379502" lon="7.796658994629979">
        <ele>863.39999999999998</ele>
        <time>2025-05-19T09:26:50Z</time>
      </trkpt>
      <trkpt lat="44.002028983086348" lon="7.796615995466709">
        <ele>865.32000000000005</ele>
        <time>2025-05-19T09:26:51Z</time>
      </trkpt>
      <trkpt lat="44.002000987529755" lon="7.796503007411957">
        <ele>866.28999999999996</ele>
        <time>2025-05-19T09:26:53Z</time>
      </trkpt>
      <trkpt lat="44.00201003998518" lon="7.796396976336837">
        <ele>867.73000000000002</ele>
        <time>2025-05-19T09:26:55Z</time>
      </trkpt>
      <trkpt lat="44.001998975872993" lon="7.796409968286753">
        <ele>868.69000000000005</ele>
        <time>2025-05-19T09:26:56Z</time>
      </trkpt>
      <trkpt lat="44.002013979479671" lon="7.79655396938324">
        <ele>870.61000000000001</ele>
        <time>2025-05-19T09:26:57Z</time>
      </trkpt>
      <trkpt lat="44.002047004178166" lon="7.796687996014953">
        <ele>872.52999999999997</ele>
        <time>2025-05-19T09:26:58Z</time>
      </trkpt>
      <trkpt lat="44.002154041081667" lon="7.79726299457252">
        <ele>876.86000000000001</ele>
        <time>2025-05-19T09:27:02Z</time>
      </trkpt>
      <trkpt lat="44.002154041081667" lon="7.797503974288702">
        <ele>877.82000000000005</ele>
        <time>2025-05-19T09:27:03Z</time>
      </trkpt>
      <trkpt lat="44.002200979739428" lon="7.79756298288703">
        <ele>878.77999999999997</ele>
        <time>2025-05-19T09:27:04Z</time>
      </trkpt>
      <trkpt lat="44.002255965024233" lon="7.797633977606893">
        <ele>879.74000000000001</ele>
        <time>2025-05-19T09:27:05Z</time>
      </trkpt>
      <trkpt lat="44.002315979450941" lon="7.797710001468658">
        <ele>880.71000000000004</ele>
        <time>2025-05-19T09:27:06Z</time>
      </trkpt>
      <trkpt lat="44.002385968342423" lon="7.797800023108721">
        <ele>881.66999999999996</ele>
        <time>2025-05-19T09:27:07Z</time>
      </trkpt>
      <trkpt lat="44.002461992204189" lon="7.797895995900035">
        <ele>882.63</ele>
        <time>2025-05-19T09:27:08Z</time>
      </trkpt>
      <trkpt lat="44.00252996943891" lon="7.797984005883336">
        <ele>883.11000000000001</ele>
        <time>2025-05-19T09:27:09Z</time>
      </trkpt>
      <trkpt lat="44.002541033551097" lon="7.797996997833252">
        <ele>884.07000000000005</ele>
        <time>2025-05-19T09:27:10Z</time>
      </trkpt>
      <trkpt lat="44.002558970823884" lon="7.79811903834343">
        <ele>884.54999999999995</ele>
        <time>2025-05-19T09:27:11Z</time>
      </trkpt>
      <trkpt lat="44.00261202827096" lon="7.798332022503018">
        <ele>885.02999999999997</ele>
        <time>2025-05-19T09:27:12Z</time>
      </trkpt>
      <trkpt lat="44.002675982192159" lon="7.798461019992828">
        <ele>885.99000000000001</ele>
        <time>2025-05-19T09:27:13Z</time>
      </trkpt>
      <trkpt lat="44.002927020192146" lon="7.799091003835201">
        <ele>889.84000000000003</ele>
        <time>2025-05-19T09:27:18Z</time>
      </trkpt>
      <trkpt lat="44.002927020192146" lon="7.799091003835201">
        <ele>890.79999999999995</ele>
        <time>2025-05-19T09:27:19Z</time>
      </trkpt>
      <trkpt lat="44.003442004323006" lon="7.799112964421511">
        <ele>894.15999999999997</ele>
        <time>2025-05-19T09:27:21Z</time>
      </trkpt>
      <trkpt lat="44.003442004323006" lon="7.799241961911321">
        <ele>896.09000000000003</ele>
        <time>2025-05-19T09:27:22Z</time>
      </trkpt>
      <trkpt lat="44.003393976017833" lon="7.799365008249879">
        <ele>897.04999999999995</ele>
        <time>2025-05-19T09:27:23Z</time>
      </trkpt>
      <trkpt lat="44.003334967419505" lon="7.799520995467901">
        <ele>898.97000000000003</ele>
        <time>2025-05-19T09:27:24Z</time>
      </trkpt>
      <trkpt lat="44.003272019326687" lon="7.79958100989461">
        <ele>900.40999999999997</ele>
        <time>2025-05-19T09:27:25Z</time>
      </trkpt>
      <trkpt lat="44.003174034878612" lon="7.799673965200782">
        <ele>901.37</ele>
        <time>2025-05-19T09:27:26Z</time>
      </trkpt>
      <trkpt lat="44.003088036552072" lon="7.799756024032831">
        <ele>902.33000000000004</ele>
        <time>2025-05-19T09:27:27Z</time>
      </trkpt>
      <trkpt lat="44.003015030175447" lon="7.799827018752694">
        <ele>903.77999999999997</ele>
        <time>2025-05-19T09:27:28Z</time>
      </trkpt>
      <trkpt lat="44.00295602157712" lon="7.79988300986588">
        <ele>904.74000000000001</ele>
        <time>2025-05-19T09:27:29Z</time>
      </trkpt>
      <trkpt lat="44.002836998552084" lon="7.800047965720296">
        <ele>906.17999999999995</ele>
        <time>2025-05-19T09:27:30Z</time>
      </trkpt>
      <trkpt lat="44.0028309635818" lon="7.800304032862186">
        <ele>907.62</ele>
        <time>2025-05-19T09:27:31Z</time>
      </trkpt>
      <trkpt lat="44.002877986058593" lon="7.800432024523616">
        <ele>908.58000000000004</ele>
        <time>2025-05-19T09:27:32Z</time>
      </trkpt>
      <trkpt lat="44.002982005476952" lon="7.800603015348315">
        <ele>910.02999999999997</ele>
        <time>2025-05-19T09:27:33Z</time>
      </trkpt>
      <trkpt lat="44.003068003803492" lon="7.800710974261165">
        <ele>910.50999999999999</ele>
        <time>2025-05-19T09:27:34Z</time>
      </trkpt>
      <trkpt lat="44.003155007958412" lon="7.800819016993046">
        <ele>910.99000000000001</ele>
        <time>2025-05-19T09:27:35Z</time>
      </trkpt>
      <trkpt lat="44.003230025991797" lon="7.800912978127599">
        <ele>911.47000000000003</ele>
        <time>2025-05-19T09:27:36Z</time>
      </trkpt>
      <trkpt lat="44.003248969092965" lon="7.800937034189701">
        <ele>911.95000000000005</ele>
        <time>2025-05-19T09:27:37Z</time>
      </trkpt>
      <trkpt lat="44.003261961042881" lon="7.801036024466157">
        <ele>912.90999999999997</ele>
        <time>2025-05-19T09:27:38Z</time>
      </trkpt>
      <trkpt lat="44.003275036811829" lon="7.801130991429091">
        <ele>913.38999999999999</ele>
        <time>2025-05-19T09:27:39Z</time>
      </trkpt>
      <trkpt lat="44.003328010439873" lon="7.801318997517228">
        <ele>914.35000000000002</ele>
        <time>2025-05-19T09:27:40Z</time>
      </trkpt>
      <trkpt lat="44.003390036523342" lon="7.801419999450445">
        <ele>914.83000000000004</ele>
        <time>2025-05-19T09:27:41Z</time>
      </trkpt>
      <trkpt lat="44.003457007929683" lon="7.801528964191675">
        <ele>915.30999999999995</ele>
        <time>2025-05-19T09:27:42Z</time>
      </trkpt>
      <trkpt lat="44.003528002649546" lon="7.801644969731569">
        <ele>916.26999999999998</ele>
        <time>2025-05-19T09:27:43Z</time>
      </trkpt>
      <trkpt lat="44.003543006256223" lon="7.801739014685154">
        <ele>917.24000000000001</ele>
        <time>2025-05-19T09:27:44Z</time>
      </trkpt>
      <trkpt lat="44.003591034561396" lon="7.802021987736225">
        <ele>918.67999999999995</ele>
        <time>2025-05-19T09:27:46Z</time>
      </trkpt>
      <trkpt lat="44.003592040389776" lon="7.80203104019165">
        <ele>919.15999999999997</ele>
        <time>2025-05-19T09:27:47Z</time>
      </trkpt>
      <trkpt lat="44.00353797711432" lon="7.802104968577623">
        <ele>919.15999999999997</ele>
        <time>2025-05-19T09:27:48Z</time>
      </trkpt>
      <trkpt lat="44.003177974373102" lon="7.802405040711165">
        <ele>928.76999999999998</ele>
        <time>2025-05-19T09:27:52Z</time>
      </trkpt>
      <trkpt lat="44.003013018518686" lon="7.802500007674098">
        <ele>933.10000000000002</ele>
        <time>2025-05-19T09:27:54Z</time>
      </trkpt>
      <trkpt lat="44.002942023798823" lon="7.802539989352226">
        <ele>934.05999999999995</ele>
        <time>2025-05-19T09:27:55Z</time>
      </trkpt>
      <trkpt lat="44.002809002995491" lon="7.802678039297462">
        <ele>936.94000000000005</ele>
        <time>2025-05-19T09:27:56Z</time>
      </trkpt>
      <trkpt lat="44.002792993560433" lon="7.802785998210311">
        <ele>938.38</ele>
        <time>2025-05-19T09:27:57Z</time>
      </trkpt>
      <trkpt lat="44.002775978296995" lon="7.802897980436683">
        <ele>939.83000000000004</ele>
        <time>2025-05-19T09:27:58Z</time>
      </trkpt>
      <trkpt lat="44.002762986347079" lon="7.802991019561887">
        <ele>941.26999999999998</ele>
        <time>2025-05-19T09:27:59Z</time>
      </trkpt>
      <trkpt lat="44.002755023539066" lon="7.803039969876409">
        <ele>943.19000000000005</ele>
        <time>2025-05-19T09:28:00Z</time>
      </trkpt>
      <trkpt lat="44.002714036032557" lon="7.803060002624989">
        <ele>944.63</ele>
        <time>2025-05-19T09:28:01Z</time>
      </trkpt>
      <trkpt lat="44.00263600051403" lon="7.803098978474736">
        <ele>946.07000000000005</ele>
        <time>2025-05-19T09:28:03Z</time>
      </trkpt>
      <trkpt lat="44.002619991078973" lon="7.803095038980246">
        <ele>947.51999999999998</ele>
        <time>2025-05-19T09:28:04Z</time>
      </trkpt>
      <trkpt lat="44.002580009400845" lon="7.803037958219647">
        <ele>948</ele>
        <time>2025-05-19T09:28:05Z</time>
      </trkpt>
      <trkpt lat="44.002475989982486" lon="7.802889011800289">
        <ele>948.96000000000004</ele>
        <time>2025-05-19T09:28:06Z</time>
      </trkpt>
      <trkpt lat="44.002368031069636" lon="7.802884988486767">
        <ele>950.39999999999998</ele>
        <time>2025-05-19T09:28:07Z</time>
      </trkpt>
      <trkpt lat="44.002412036061287" lon="7.802867973223329">
        <ele>951.84000000000003</ele>
        <time>2025-05-19T09:28:08Z</time>
      </trkpt>
      <trkpt lat="44.002253031358123" lon="7.80293301679194">
        <ele>953.27999999999997</ele>
        <time>2025-05-19T09:28:09Z</time>
      </trkpt>
      <trkpt lat="44.002186981961131" lon="7.802959000691772">
        <ele>954.73000000000002</ele>
        <time>2025-05-19T09:28:10Z</time>
      </trkpt>
      <trkpt lat="44.002063013613224" lon="7.803009962663055">
        <ele>957.61000000000001</ele>
        <time>2025-05-19T09:28:12Z</time>
      </trkpt>
      <trkpt lat="44.001964023336768" lon="7.803050028160214">
        <ele>959.52999999999997</ele>
        <time>2025-05-19T09:28:14Z</time>
      </trkpt>
      <trkpt lat="44.001920018345118" lon="7.803067965433002">
        <ele>960.98000000000002</ele>
        <time>2025-05-19T09:28:15Z</time>
      </trkpt>
      <trkpt lat="44.001875007525086" lon="7.80308598652482">
        <ele>961.94000000000005</ele>
        <time>2025-05-19T09:28:16Z</time>
      </trkpt>
      <trkpt lat="44.001833014190197" lon="7.803104007616639">
        <ele>962.89999999999998</ele>
        <time>2025-05-19T09:28:18Z</time>
      </trkpt>
      <trkpt lat="44.001833014190197" lon="7.803104007616639">
        <ele>964.34000000000003</ele>
        <time>2025-05-19T09:28:21Z</time>
      </trkpt>
      <trkpt lat="44.001833014190197" lon="7.803104007616639">
        <ele>964.34000000000003</ele>
        <time>2025-05-19T09:28:22Z</time>
      </trkpt>
      <trkpt lat="44.001833014190197" lon="7.803104007616639">
        <ele>964.82000000000005</ele>
        <time>2025-05-19T09:28:23Z</time>
      </trkpt>
      <trkpt lat="44.001795966178179" lon="7.803064025938511">
        <ele>964.82000000000005</ele>
        <time>2025-05-19T09:28:24Z</time>
      </trkpt>
      <trkpt lat="44.001661017537117" lon="7.802916001528502">
        <ele>967.22000000000003</ele>
        <time>2025-05-19T09:28:27Z</time>
      </trkpt>
      <trkpt lat="44.001612989231944" lon="7.802865039557219">
        <ele>968.66999999999996</ele>
        <time>2025-05-19T09:28:28Z</time>
      </trkpt>
      <trkpt lat="44.001538977026939" lon="7.802813993766904">
        <ele>970.11000000000001</ele>
        <time>2025-05-19T09:28:30Z</time>
      </trkpt>
      <trkpt lat="44.001513998955488" lon="7.802799995988607">
        <ele>970.59000000000003</ele>
        <time>2025-05-19T09:28:31Z</time>
      </trkpt>
      <trkpt lat="44.001480974256992" lon="7.802779963240027">
        <ele>972.02999999999997</ele>
        <time>2025-05-19T09:28:32Z</time>
      </trkpt>
      <trkpt lat="44.001409979537129" lon="7.802794966846705">
        <ele>973.95000000000005</ele>
        <time>2025-05-19T09:28:33Z</time>
      </trkpt>
      <trkpt lat="44.001363962888718" lon="7.802837966009975">
        <ele>975.88</ele>
        <time>2025-05-19T09:28:34Z</time>
      </trkpt>
      <trkpt lat="44.001305960118771" lon="7.802892029285431">
        <ele>976.84000000000003</ele>
        <time>2025-05-19T09:28:35Z</time>
      </trkpt>
      <trkpt lat="44.001237982884049" lon="7.80295598320663">
        <ele>978.75999999999999</ele>
        <time>2025-05-19T09:28:36Z</time>
      </trkpt>
      <trkpt lat="44.001165982335806" lon="7.803023038432002">
        <ele>980.67999999999995</ele>
        <time>2025-05-19T09:28:37Z</time>
      </trkpt>
      <trkpt lat="44.00108702480793" lon="7.803096966817975">
        <ele>982.12</ele>
        <time>2025-05-19T09:28:38Z</time>
      </trkpt>
      <trkpt lat="44.000741019845009" lon="7.803421011194587">
        <ele>986.92999999999995</ele>
        <time>2025-05-19T09:28:42Z</time>
      </trkpt>
      <trkpt lat="44.000661978498101" lon="7.803495023399591">
        <ele>988.37</ele>
        <time>2025-05-19T09:28:43Z</time>
      </trkpt>
      <trkpt lat="44.000462992116809" lon="7.803681017830968">
        <ele>991.25999999999999</ele>
        <time>2025-05-19T09:28:46Z</time>
      </trkpt>
      <trkpt lat="44.000425022095442" lon="7.803698033094406">
        <ele>992.22000000000003</ele>
        <time>2025-05-19T09:28:47Z</time>
      </trkpt>
      <trkpt lat="44.000333994626999" lon="7.803653022274375">
        <ele>992.70000000000005</ele>
        <time>2025-05-19T09:28:48Z</time>
      </trkpt>
      <trkpt lat="44.000247996300459" lon="7.803559983149171">
        <ele>993.65999999999997</ele>
        <time>2025-05-19T09:28:49Z</time>
      </trkpt>
      <trkpt lat="44.000151017680764" lon="7.803431991487742">
        <ele>994.62</ele>
        <time>2025-05-19T09:28:50Z</time>
      </trkpt>
      <trkpt lat="43.999751033261418" lon="7.802953971549869">
        <ele>997.99000000000001</ele>
        <time>2025-05-19T09:28:55Z</time>
      </trkpt>
      <trkpt lat="43.999662017449737" lon="7.802921030670404">
        <ele>998.95000000000005</ele>
        <time>2025-05-19T09:28:56Z</time>
      </trkpt>
      <trkpt lat="43.999600997194648" lon="7.802910972386599">
        <ele>999.90999999999997</ele>
        <time>2025-05-19T09:28:57Z</time>
      </trkpt>
      <trkpt lat="43.999508963897824" lon="7.802965035662055">
        <ele>1002.79</ele>
        <time>2025-05-19T09:28:58Z</time>
      </trkpt>
      <trkpt lat="43.999379966408014" lon="7.803038964048028">
        <ele>1008.08</ele>
        <time>2025-05-19T09:29:00Z</time>
      </trkpt>
      <trkpt lat="43.999343002215028" lon="7.803061008453369">
        <ele>1010</ele>
        <time>2025-05-19T09:29:01Z</time>
      </trkpt>
      <trkpt lat="43.999338978901505" lon="7.803069977089763">
        <ele>1011.9299999999999</ele>
        <time>2025-05-19T09:29:02Z</time>
      </trkpt>
      <trkpt lat="43.999319029971957" lon="7.803110964596272">
        <ele>1013.37</ele>
        <time>2025-05-19T09:29:03Z</time>
      </trkpt>
      <trkpt lat="43.999302014708519" lon="7.80314801260829">
        <ele>1014.8099999999999</ele>
        <time>2025-05-19T09:29:04Z</time>
      </trkpt>
      <trkpt lat="43.999339984729886" lon="7.803172990679741">
        <ele>1015.77</ele>
        <time>2025-05-19T09:29:05Z</time>
      </trkpt>
      <trkpt lat="43.999395975843072" lon="7.803172990679741">
        <ele>1016.73</ele>
        <time>2025-05-19T09:29:06Z</time>
      </trkpt>
      <trkpt lat="43.999452972784638" lon="7.803141977638006">
        <ele>1017.6900000000001</ele>
        <time>2025-05-19T09:29:07Z</time>
      </trkpt>
      <trkpt lat="43.999516004696488" lon="7.803107025101781">
        <ele>1018.17</ele>
        <time>2025-05-19T09:29:08Z</time>
      </trkpt>
      <trkpt lat="43.999582976102829" lon="7.803070982918143">
        <ele>1018.17</ele>
        <time>2025-05-19T09:29:09Z</time>
      </trkpt>
      <trkpt lat="43.999641984701157" lon="7.803095960989595">
        <ele>1018.65</ele>
        <time>2025-05-19T09:29:10Z</time>
      </trkpt>
      <trkpt lat="43.999693030491471" lon="7.803139965981245">
        <ele>1019.13</ele>
        <time>2025-05-19T09:29:11Z</time>
      </trkpt>
      <trkpt lat="43.999751033261418" lon="7.803190005943179">
        <ele>1019.13</ele>
        <time>2025-05-19T09:29:12Z</time>
      </trkpt>
      <trkpt lat="43.999793026596308" lon="7.803261000663042">
        <ele>1019.62</ele>
        <time>2025-05-19T09:29:13Z</time>
      </trkpt>
      <trkpt lat="43.999852035194635" lon="7.80336300842464">
        <ele>1019.62</ele>
        <time>2025-05-19T09:29:14Z</time>
      </trkpt>
      <trkpt lat="43.999909032136202" lon="7.803629972040653">
        <ele>1020.1</ele>
        <time>2025-05-19T09:29:16Z</time>
      </trkpt>
      <trkpt lat="43.999968040734529" lon="7.803712030872703">
        <ele>1020.58</ele>
        <time>2025-05-19T09:29:17Z</time>
      </trkpt>
      <trkpt lat="44.000023026019335" lon="7.803788976743817">
        <ele>1020.58</ele>
        <time>2025-05-19T09:29:18Z</time>
      </trkpt>
      <trkpt lat="44.000284960493445" lon="7.804001038894057">
        <ele>1022.98</ele>
        <time>2025-05-19T09:29:25Z</time>
      </trkpt>
      <trkpt lat="44.000287977978587" lon="7.804004978388548">
        <ele>1023.9400000000001</ele>
        <time>2025-05-19T09:29:27Z</time>
      </trkpt>
      <trkpt lat="44.000287977978587" lon="7.804004978388548">
        <ele>1024.4200000000001</ele>
        <time>2025-05-19T09:29:28Z</time>
      </trkpt>
      <trkpt lat="44.000203991308808" lon="7.803885033354163">
        <ele>1024.9000000000001</ele>
        <time>2025-05-19T09:29:29Z</time>
      </trkpt>
      <trkpt lat="44.000126039609313" lon="7.80377296730876">
        <ele>1025.8599999999999</ele>
        <time>2025-05-19T09:29:30Z</time>
      </trkpt>
      <trkpt lat="43.999978015199304" lon="7.803726028650999">
        <ele>1027.3099999999999</ele>
        <time>2025-05-19T09:29:31Z</time>
      </trkpt>
      <trkpt lat="43.999896040186286" lon="7.803611028939486">
        <ele>1027.79</ele>
        <time>2025-05-19T09:29:32Z</time>
      </trkpt>
      <trkpt lat="43.999828984960914" lon="7.80351497232914">
        <ele>1028.75</ele>
        <time>2025-05-19T09:29:33Z</time>
      </trkpt>
      <trkpt lat="43.999708034098148" lon="7.803339958190918">
        <ele>1030.1900000000001</ele>
        <time>2025-05-19T09:29:34Z</time>
      </trkpt>
      <trkpt lat="43.999636033549905" lon="7.803339958190918">
        <ele>1031.1500000000001</ele>
        <time>2025-05-19T09:29:35Z</time>
      </trkpt>
      <trkpt lat="43.999444004148245" lon="7.803408019244671">
        <ele>1032.1099999999999</ele>
        <time>2025-05-19T09:29:36Z</time>
      </trkpt>
      <trkpt lat="43.999375021085143" lon="7.803500974550843">
        <ele>1034.04</ele>
        <time>2025-05-19T09:29:37Z</time>
      </trkpt>
      <trkpt lat="43.99930696003139" lon="7.803594013676047">
        <ele>1035.48</ele>
        <time>2025-05-19T09:29:38Z</time>
      </trkpt>
      <trkpt lat="43.999238982796669" lon="7.80368696898222">
        <ele>1036.9200000000001</ele>
        <time>2025-05-19T09:29:39Z</time>
      </trkpt>
      <trkpt lat="43.999169999733567" lon="7.803781013935804">
        <ele>1038.3599999999999</ele>
        <time>2025-05-19T09:29:40Z</time>
      </trkpt>
      <trkpt lat="43.999105961993337" lon="7.803869023919106">
        <ele>1039.8</ele>
        <time>2025-05-19T09:29:41Z</time>
      </trkpt>
      <trkpt lat="43.999051982536912" lon="7.80394303612411">
        <ele>1041.25</ele>
        <time>2025-05-19T09:29:42Z</time>
      </trkpt>
      <trkpt lat="43.999015018343925" lon="7.804040014743805">
        <ele>1043.1700000000001</ele>
        <time>2025-05-19T09:29:43Z</time>
      </trkpt>
      <trkpt lat="43.99900303222239" lon="7.804134981706739">
        <ele>1044.1300000000001</ele>
        <time>2025-05-19T09:29:44Z</time>
      </trkpt>
      <trkpt lat="43.998991968110204" lon="7.80422399751842">
        <ele>1045.5699999999999</ele>
        <time>2025-05-19T09:29:45Z</time>
      </trkpt>
      <trkpt lat="43.998965984210372" lon="7.804426001384854">
        <ele>1048.45</ele>
        <time>2025-05-19T09:29:47Z</time>
      </trkpt>
      <trkpt lat="43.998932037502527" lon="7.804543012753129">
        <ele>1049.4200000000001</ele>
        <time>2025-05-19T09:29:48Z</time>
      </trkpt>
      <trkpt lat="43.998884009197354" lon="7.804628005251288">
        <ele>1050.3800000000001</ele>
        <time>2025-05-19T09:29:49Z</time>
      </trkpt>
      <trkpt lat="43.998807985335588" lon="7.80469598248601">
        <ele>1051.8199999999999</ele>
        <time>2025-05-19T09:29:50Z</time>
      </trkpt>
      <trkpt lat="43.998734978958964" lon="7.804750967770815">
        <ele>1053.26</ele>
        <time>2025-05-19T09:29:51Z</time>
      </trkpt>
      <trkpt lat="43.998665995895863" lon="7.80480301938951">
        <ele>1055.1800000000001</ele>
        <time>2025-05-19T09:29:52Z</time>
      </trkpt>
      <trkpt lat="43.998606987297535" lon="7.804852975532413">
        <ele>1056.1500000000001</ele>
        <time>2025-05-19T09:29:53Z</time>
      </trkpt>
      <trkpt lat="43.99855200201273" lon="7.804942997172475">
        <ele>1058.0699999999999</ele>
        <time>2025-05-19T09:29:54Z</time>
      </trkpt>
      <trkpt lat="43.998493999242783" lon="7.805036036297679">
        <ele>1059.51</ele>
        <time>2025-05-19T09:29:55Z</time>
      </trkpt>
      <trkpt lat="43.998442031443119" lon="7.805121028795838">
        <ele>1060.47</ele>
        <time>2025-05-19T09:29:56Z</time>
      </trkpt>
      <trkpt lat="43.998348992317915" lon="7.805188000202179">
        <ele>1061.4300000000001</ele>
        <time>2025-05-19T09:29:57Z</time>
      </trkpt>
      <trkpt lat="43.998280009254813" lon="7.805237034335733">
        <ele>1062.3900000000001</ele>
        <time>2025-05-19T09:29:58Z</time>
      </trkpt>
      <trkpt lat="43.99820901453495" lon="7.805286990478635">
        <ele>1063.8399999999999</ele>
        <time>2025-05-19T09:29:59Z</time>
      </trkpt>
      <trkpt lat="43.998141959309578" lon="7.805336024612188">
        <ele>1064.8</ele>
        <time>2025-05-19T09:30:00Z</time>
      </trkpt>
      <trkpt lat="43.998114969581366" lon="7.80540400184691">
        <ele>1066.24</ele>
        <time>2025-05-19T09:30:01Z</time>
      </trkpt>
      <trkpt lat="43.998069036751986" lon="7.805517995730043">
        <ele>1067.2</ele>
        <time>2025-05-19T09:30:02Z</time>
      </trkpt>
      <trkpt lat="43.998022014275193" lon="7.805636012926698">
        <ele>1068.1600000000001</ele>
        <time>2025-05-19T09:30:03Z</time>
      </trkpt>
      <trkpt lat="43.997977003455162" lon="7.80574799515307">
        <ele>1068.6400000000001</ele>
        <time>2025-05-19T09:30:04Z</time>
      </trkpt>
      <trkpt lat="43.997911037877202" lon="7.805842040106654">
        <ele>1069.1199999999999</ele>
        <time>2025-05-19T09:30:05Z</time>
      </trkpt>
      <trkpt lat="43.997851023450494" lon="7.805918985977769">
        <ele>1069.5999999999999</ele>
        <time>2025-05-19T09:30:06Z</time>
      </trkpt>
      <trkpt lat="43.997791009023786" lon="7.805998027324677">
        <ele>1070.0799999999999</ele>
        <time>2025-05-19T09:30:07Z</time>
      </trkpt>
      <trkpt lat="43.9977159909904" lon="7.80606902204454">
        <ele>1070.5699999999999</ele>
        <time>2025-05-19T09:30:08Z</time>
      </trkpt>
      <trkpt lat="43.997639967128634" lon="7.8061159607023">
        <ele>1071.05</ele>
        <time>2025-05-19T09:30:09Z</time>
      </trkpt>
      <trkpt lat="43.997550029307604" lon="7.80615602619946">
        <ele>1072.01</ele>
        <time>2025-05-19T09:30:10Z</time>
      </trkpt>
      <trkpt lat="43.997461013495922" lon="7.806168012320995">
        <ele>1072.49</ele>
        <time>2025-05-19T09:30:11Z</time>
      </trkpt>
      <trkpt lat="43.997192038223147" lon="7.806245964020491">
        <ele>1074.4100000000001</ele>
        <time>2025-05-19T09:30:14Z</time>
      </trkpt>
      <trkpt lat="43.99713302962482" lon="7.806279994547367">
        <ele>1074.8900000000001</ele>
        <time>2025-05-19T09:30:15Z</time>
      </trkpt>
      <trkpt lat="43.997094975784421" lon="7.806363981217146">
        <ele>1075.3699999999999</ele>
        <time>2025-05-19T09:30:16Z</time>
      </trkpt>
      <trkpt lat="43.997046025469899" lon="7.806472023949027">
        <ele>1075.8499999999999</ele>
        <time>2025-05-19T09:30:17Z</time>
      </trkpt>
      <trkpt lat="43.996992968022823" lon="7.806589035317302">
        <ele>1076.3299999999999</ele>
        <time>2025-05-19T09:30:18Z</time>
      </trkpt>
      <trkpt lat="43.996753999963403" lon="7.807048028334975">
        <ele>1077.29</ele>
        <time>2025-05-19T09:30:22Z</time>
      </trkpt>
      <trkpt lat="43.996686022728682" lon="7.807121034711599">
        <ele>1077.78</ele>
        <time>2025-05-19T09:30:23Z</time>
      </trkpt>
      <trkpt lat="43.996546966955066" lon="7.807267969474196">
        <ele>1077.78</ele>
        <time>2025-05-19T09:30:25Z</time>
      </trkpt>
      <trkpt lat="43.996474966406822" lon="7.807343993335962">
        <ele>1078.26</ele>
        <time>2025-05-19T09:30:26Z</time>
      </trkpt>
      <trkpt lat="43.996422998607159" lon="7.807436026632786">
        <ele>1078.26</ele>
        <time>2025-05-19T09:30:27Z</time>
      </trkpt>
      <trkpt lat="43.996375976130366" lon="7.80755496583879">
        <ele>1078.26</ele>
        <time>2025-05-19T09:30:28Z</time>
      </trkpt>
      <trkpt lat="43.996329037472606" lon="7.807674994692206">
        <ele>1078.26</ele>
        <time>2025-05-19T09:30:29Z</time>
      </trkpt>
      <trkpt lat="43.996143965050578" lon="7.807995015755296">
        <ele>1078.74</ele>
        <time>2025-05-19T09:30:32Z</time>
      </trkpt>
      <trkpt lat="43.996070958673954" lon="7.808079002425075">
        <ele>1078.74</ele>
        <time>2025-05-19T09:30:33Z</time>
      </trkpt>
      <trkpt lat="43.995942967012525" lon="7.808228032663465">
        <ele>1079.22</ele>
        <time>2025-05-19T09:30:35Z</time>
      </trkpt>
      <trkpt lat="43.995880018919706" lon="7.808301039040089">
        <ele>1079.22</ele>
        <time>2025-05-19T09:30:36Z</time>
      </trkpt>
      <trkpt lat="43.995812041684985" lon="7.808381002396345">
        <ele>1079.22</ele>
        <time>2025-05-19T09:30:37Z</time>
      </trkpt>
      <trkpt lat="43.995741968974471" lon="7.808460965752602">
        <ele>1079.7</ele>
        <time>2025-05-19T09:30:38Z</time>
      </trkpt>
      <trkpt lat="43.995686983689666" lon="7.808525003492832">
        <ele>1079.7</ele>
        <time>2025-05-19T09:30:39Z</time>
      </trkpt>
      <trkpt lat="43.995648007839918" lon="7.808571020141244">
        <ele>1079.7</ele>
        <time>2025-05-19T09:30:40Z</time>
      </trkpt>
      <trkpt lat="43.995615988969803" lon="7.80860798433423">
        <ele>1079.7</ele>
        <time>2025-05-19T09:30:41Z</time>
      </trkpt>
      <trkpt lat="43.995590005069971" lon="7.808636985719204">
        <ele>1079.7</ele>
        <time>2025-05-19T09:30:42Z</time>
      </trkpt>
      <trkpt lat="43.99558799341321" lon="7.808640003204346">
        <ele>1080.1800000000001</ele>
        <time>2025-05-19T09:30:43Z</time>
      </trkpt>
      <trkpt lat="43.99558799341321" lon="7.808640003204346">
        <ele>1080.6600000000001</ele>
        <time>2025-05-19T09:30:44Z</time>
      </trkpt>
      <trkpt lat="43.995591010898352" lon="7.8086700104177">
        <ele>1081.1400000000001</ele>
        <time>2025-05-19T09:30:45Z</time>
      </trkpt>
      <trkpt lat="43.995594028383493" lon="7.80871300958097">
        <ele>1081.1400000000001</ele>
        <time>2025-05-19T09:30:46Z</time>
      </trkpt>
      <trkpt lat="43.995598973706365" lon="7.808775035664439">
        <ele>1081.1400000000001</ele>
        <time>2025-05-19T09:30:47Z</time>
      </trkpt>
      <trkpt lat="43.995604002848268" lon="7.808848964050412">
        <ele>1081.1400000000001</ele>
        <time>2025-05-19T09:30:48Z</time>
      </trkpt>
      <trkpt lat="43.995611965656281" lon="7.808943009003997">
        <ele>1081.1400000000001</ele>
        <time>2025-05-19T09:30:49Z</time>
      </trkpt>
      <trkpt lat="43.995620012283325" lon="7.809050967916846">
        <ele>1081.1400000000001</ele>
        <time>2025-05-19T09:30:50Z</time>
      </trkpt>
      <trkpt lat="43.995628980919719" lon="7.809168985113502">
        <ele>1081.6199999999999</ele>
        <time>2025-05-19T09:30:51Z</time>
      </trkpt>
      <trkpt lat="43.995700981467962" lon="7.809394961223006">
        <ele>1081.6199999999999</ele>
        <time>2025-05-19T09:30:53Z</time>
      </trkpt>
      <trkpt lat="43.9957370236516" lon="7.809497974812985">
        <ele>1081.6199999999999</ele>
        <time>2025-05-19T09:30:54Z</time>
      </trkpt>
      <trkpt lat="43.995785973966122" lon="7.809586990624666">
        <ele>1081.6199999999999</ele>
        <time>2025-05-19T09:30:55Z</time>
      </trkpt>
      <trkpt lat="43.99586702696979" lon="7.809665026143193">
        <ele>1081.6199999999999</ele>
        <time>2025-05-19T09:30:56Z</time>
      </trkpt>
      <trkpt lat="43.995957970619202" lon="7.809750018641353">
        <ele>1081.6199999999999</ele>
        <time>2025-05-19T09:30:57Z</time>
      </trkpt>
      <trkpt lat="43.996156034991145" lon="7.809939030557871">
        <ele>1081.6199999999999</ele>
        <time>2025-05-19T09:30:59Z</time>
      </trkpt>
      <trkpt lat="43.996247984468937" lon="7.810074985027313">
        <ele>1081.6199999999999</ele>
        <time>2025-05-19T09:31:00Z</time>
      </trkpt>
      <trkpt lat="43.996329959481955" lon="7.810219991952181">
        <ele>1082.0999999999999</ele>
        <time>2025-05-19T09:31:01Z</time>
      </trkpt>
      <trkpt lat="43.996401960030198" lon="7.81034697778523">
        <ele>1082.0999999999999</ele>
        <time>2025-05-19T09:31:02Z</time>
      </trkpt>
      <trkpt lat="43.996470021083951" lon="7.810464994981885">
        <ele>1082.0999999999999</ele>
        <time>2025-05-19T09:31:03Z</time>
      </trkpt>
      <trkpt lat="43.996570017188787" lon="7.810530960559845">
        <ele>1082.5799999999999</ele>
        <time>2025-05-19T09:31:04Z</time>
      </trkpt>
      <trkpt lat="43.996677976101637" lon="7.81060203909874">
        <ele>1082.5799999999999</ele>
        <time>2025-05-19T09:31:05Z</time>
      </trkpt>
      <trkpt lat="43.997256997972727" lon="7.811007974669337">
        <ele>1085.47</ele>
        <time>2025-05-19T09:31:10Z</time>
      </trkpt>
      <trkpt lat="43.99735095910728" lon="7.811131021007896">
        <ele>1085.95</ele>
        <time>2025-05-19T09:31:11Z</time>
      </trkpt>
      <trkpt lat="43.998186970129609" lon="7.812233995646238">
        <ele>1096.04</ele>
        <time>2025-05-19T09:31:19Z</time>
      </trkpt>
      <trkpt lat="43.998250002041459" lon="7.812355030328035">
        <ele>1097.48</ele>
        <time>2025-05-19T09:31:20Z</time>
      </trkpt>
      <trkpt lat="43.998291995376348" lon="7.812487967312336">
        <ele>1098.9200000000001</ele>
        <time>2025-05-19T09:31:21Z</time>
      </trkpt>
      <trkpt lat="43.998301969841123" lon="7.812652001157403">
        <ele>1100.8499999999999</ele>
        <time>2025-05-19T09:31:22Z</time>
      </trkpt>
      <trkpt lat="43.998313033953309" lon="7.812831038609147">
        <ele>1101.8099999999999</ele>
        <time>2025-05-19T09:31:23Z</time>
      </trkpt>
      <trkpt lat="43.998325020074844" lon="7.813018038868904">
        <ele>1103.73</ele>
        <time>2025-05-19T09:31:24Z</time>
      </trkpt>
      <trkpt lat="43.998333988711238" lon="7.813216019421816">
        <ele>1104.6900000000001</ele>
        <time>2025-05-19T09:31:25Z</time>
      </trkpt>
      <trkpt lat="43.998328037559986" lon="7.813411988317967">
        <ele>1106.1300000000001</ele>
        <time>2025-05-19T09:31:26Z</time>
      </trkpt>
      <trkpt lat="43.99831797927618" lon="7.813754975795746">
        <ele>1109.02</ele>
        <time>2025-05-19T09:31:28Z</time>
      </trkpt>
      <trkpt lat="43.998314961791039" lon="7.813924038782716">
        <ele>1109.98</ele>
        <time>2025-05-19T09:31:29Z</time>
      </trkpt>
      <trkpt lat="43.998355027288198" lon="7.814082959666848">
        <ele>1111.4200000000001</ele>
        <time>2025-05-19T09:31:30Z</time>
      </trkpt>
      <trkpt lat="43.998647974804044" lon="7.815362038090825">
        <ele>1121.03</ele>
        <time>2025-05-19T09:31:37Z</time>
      </trkpt>
      <trkpt lat="43.998672030866146" lon="7.815704019740224">
        <ele>1123.4400000000001</ele>
        <time>2025-05-19T09:31:39Z</time>
      </trkpt>
      <trkpt lat="43.998684016987681" lon="7.81588900834322">
        <ele>1124.8800000000001</ele>
        <time>2025-05-19T09:31:40Z</time>
      </trkpt>
      <trkpt lat="43.998885015025735" lon="7.817678963765502">
        <ele>1137.8599999999999</ele>
        <time>2025-05-19T09:31:49Z</time>
      </trkpt>
      <trkpt lat="43.998901024460793" lon="7.817819025367498">
        <ele>1138.8199999999999</ele>
        <time>2025-05-19T09:31:50Z</time>
      </trkpt>
      <trkpt lat="43.998914016410708" lon="7.81793100759387">
        <ele>1140.26</ele>
        <time>2025-05-19T09:31:51Z</time>
      </trkpt>
      <trkpt lat="43.998964978381991" lon="7.817980963736773">
        <ele>1141.22</ele>
        <time>2025-05-19T09:31:52Z</time>
      </trkpt>
      <trkpt lat="43.999021975323558" lon="7.81803896650672">
        <ele>1142.1800000000001</ele>
        <time>2025-05-19T09:31:53Z</time>
      </trkpt>
      <trkpt lat="43.999085007235408" lon="7.81803896650672">
        <ele>1143.1400000000001</ele>
        <time>2025-05-19T09:31:54Z</time>
      </trkpt>
      <trkpt lat="43.999172011390328" lon="7.818028992041946">
        <ele>1144.1099999999999</ele>
        <time>2025-05-19T09:31:55Z</time>
      </trkpt>
      <trkpt lat="43.999269995838404" lon="7.817983981221914">
        <ele>1145.0699999999999</ele>
        <time>2025-05-19T09:31:56Z</time>
      </trkpt>
      <trkpt lat="44.000194016844034" lon="7.817585002630949">
        <ele>1154.6800000000001</ele>
        <time>2025-05-19T09:32:05Z</time>
      </trkpt>
      <trkpt lat="44.000241961330175" lon="7.817567987367511">
        <ele>1155.6400000000001</ele>
        <time>2025-05-19T09:32:06Z</time>
      </trkpt>
      <trkpt lat="44.000244978815317" lon="7.81756597571075">
        <ele>1156.5999999999999</ele>
        <time>2025-05-19T09:32:07Z</time>
      </trkpt>
      <trkpt lat="44.000284960493445" lon="7.817634036764503">
        <ele>1157.5599999999999</ele>
        <time>2025-05-19T09:32:08Z</time>
      </trkpt>
      <trkpt lat="44.000309016555548" lon="7.817674018442631">
        <ele>1158.53</ele>
        <time>2025-05-19T09:32:09Z</time>
      </trkpt>
      <trkpt lat="44.000307004898787" lon="7.817684998735786">
        <ele>1159.49</ele>
        <time>2025-05-19T09:32:10Z</time>
      </trkpt>
      <trkpt lat="44.000295018777251" lon="7.817745013162494">
        <ele>1160.45</ele>
        <time>2025-05-19T09:32:11Z</time>
      </trkpt>
      <trkpt lat="44.000282026827335" lon="7.817809972912073">
        <ele>1161.4100000000001</ele>
        <time>2025-05-19T09:32:12Z</time>
      </trkpt>
      <trkpt lat="44.000267023220658" lon="7.817884990945458">
        <ele>1162.8499999999999</ele>
        <time>2025-05-19T09:32:13Z</time>
      </trkpt>
      <trkpt lat="44.000226035714149" lon="7.818090012297034">
        <ele>1164.29</ele>
        <time>2025-05-19T09:32:15Z</time>
      </trkpt>
      <trkpt lat="44.000200973823667" lon="7.818215992301703">
        <ele>1165.26</ele>
        <time>2025-05-19T09:32:16Z</time>
      </trkpt>
      <trkpt lat="44.000183958560228" lon="7.818570965901017">
        <ele>1167.6600000000001</ele>
        <time>2025-05-19T09:32:19Z</time>
      </trkpt>
      <trkpt lat="44.000171972438693" lon="7.818647995591164">
        <ele>1168.6199999999999</ele>
        <time>2025-05-19T09:32:20Z</time>
      </trkpt>
      <trkpt lat="44.000132996588945" lon="7.818694012239575">
        <ele>1169.5799999999999</ele>
        <time>2025-05-19T09:32:21Z</time>
      </trkpt>
      <trkpt lat="44.000091003254056" lon="7.818742962554097">
        <ele>1170.54</ele>
        <time>2025-05-19T09:32:22Z</time>
      </trkpt>
      <trkpt lat="44.000041969120502" lon="7.818799037486315">
        <ele>1171.5</ele>
        <time>2025-05-19T09:32:23Z</time>
      </trkpt>
      <trkpt lat="43.999986983835697" lon="7.818862991407514">
        <ele>1172.47</ele>
        <time>2025-05-19T09:32:24Z</time>
      </trkpt>
      <trkpt lat="43.999926969408989" lon="7.818931974470615">
        <ele>1173.4300000000001</ele>
        <time>2025-05-19T09:32:25Z</time>
      </trkpt>
      <trkpt lat="43.99988598190248" lon="7.819042028859258">
        <ele>1174.8699999999999</ele>
        <time>2025-05-19T09:32:26Z</time>
      </trkpt>
      <trkpt lat="43.999866032972932" lon="7.819144958630204">
        <ele>1175.8299999999999</ele>
        <time>2025-05-19T09:32:27Z</time>
      </trkpt>
      <trkpt lat="43.999848011881113" lon="7.819243026897311">
        <ele>1176.79</ele>
        <time>2025-05-19T09:32:28Z</time>
      </trkpt>
      <trkpt lat="43.999830996617675" lon="7.819330031052232">
        <ele>1177.75</ele>
        <time>2025-05-19T09:32:29Z</time>
      </trkpt>
      <trkpt lat="43.999815993010998" lon="7.819411000236869">
        <ele>1178.23</ele>
        <time>2025-05-19T09:32:30Z</time>
      </trkpt>
      <trkpt lat="43.999826973304152" lon="7.819485012441874">
        <ele>1179.1900000000001</ele>
        <time>2025-05-19T09:32:31Z</time>
      </trkpt>
      <trkpt lat="43.999838037416339" lon="7.819552989676595">
        <ele>1179.6700000000001</ele>
        <time>2025-05-19T09:32:32Z</time>
      </trkpt>
      <trkpt lat="43.999850023537874" lon="7.819629013538361">
        <ele>1180.6400000000001</ele>
        <time>2025-05-19T09:32:33Z</time>
      </trkpt>
      <trkpt lat="43.999900985509157" lon="7.819948028773069">
        <ele>1183.52</ele>
        <time>2025-05-19T09:32:37Z</time>
      </trkpt>
      <trkpt lat="43.999900985509157" lon="7.820031009614468">
        <ele>1184</ele>
        <time>2025-05-19T09:32:38Z</time>
      </trkpt>
      <trkpt lat="43.999900985509157" lon="7.820034027099609">
        <ele>1184.96</ele>
        <time>2025-05-19T09:32:39Z</time>
      </trkpt>
      <trkpt lat="43.99986200965941" lon="7.820076020434499">
        <ele>1185.4400000000001</ele>
        <time>2025-05-19T09:32:40Z</time>
      </trkpt>
      <trkpt lat="43.999822027981281" lon="7.820119019597769">
        <ele>1186.4000000000001</ele>
        <time>2025-05-19T09:32:41Z</time>
      </trkpt>
      <trkpt lat="43.999773999676108" lon="7.820170987397432">
        <ele>1186.4000000000001</ele>
        <time>2025-05-19T09:32:42Z</time>
      </trkpt>
      <trkpt lat="43.999719014391303" lon="7.82022999599576">
        <ele>1186.4000000000001</ele>
        <time>2025-05-19T09:32:43Z</time>
      </trkpt>
      <trkpt lat="43.999656988307834" lon="7.82029596157372">
        <ele>1186.8800000000001</ele>
        <time>2025-05-19T09:32:44Z</time>
      </trkpt>
      <trkpt lat="43.999597979709506" lon="7.820377014577389">
        <ele>1187.3699999999999</ele>
        <time>2025-05-19T09:32:45Z</time>
      </trkpt>
      <trkpt lat="43.999581970274448" lon="7.820499977096915">
        <ele>1187.8499999999999</ele>
        <time>2025-05-19T09:32:46Z</time>
      </trkpt>
      <trkpt lat="43.999581970274448" lon="7.820499977096915">
        <ele>1188.3299999999999</ele>
        <time>2025-05-19T09:32:47Z</time>
      </trkpt>
      <trkpt lat="43.999548023566604" lon="7.82076601870358">
        <ele>1189.29</ele>
        <time>2025-05-19T09:32:48Z</time>
      </trkpt>
      <trkpt lat="43.999530002474785" lon="7.820908008143306">
        <ele>1190.25</ele>
        <time>2025-05-19T09:32:49Z</time>
      </trkpt>
      <trkpt lat="43.999470993876457" lon="7.821171032264829">
        <ele>1191.6900000000001</ele>
        <time>2025-05-19T09:32:51Z</time>
      </trkpt>
      <trkpt lat="43.999436041340232" lon="7.821287037804723">
        <ele>1192.1700000000001</ele>
        <time>2025-05-19T09:32:52Z</time>
      </trkpt>
      <trkpt lat="43.999352976679802" lon="7.821570010855794">
        <ele>1194.5799999999999</ele>
        <time>2025-05-19T09:32:55Z</time>
      </trkpt>
      <trkpt lat="43.999343002215028" lon="7.821645028889179">
        <ele>1195.0599999999999</ele>
        <time>2025-05-19T09:32:56Z</time>
      </trkpt>
      <trkpt lat="43.999343002215028" lon="7.8217320330441">
        <ele>1195.54</ele>
        <time>2025-05-19T09:32:57Z</time>
      </trkpt>
      <trkpt lat="43.999352976679802" lon="7.821830017492175">
        <ele>1196.5</ele>
        <time>2025-05-19T09:32:58Z</time>
      </trkpt>
      <trkpt lat="43.999381978064775" lon="7.821931019425392">
        <ele>1196.98</ele>
        <time>2025-05-19T09:32:59Z</time>
      </trkpt>
      <trkpt lat="43.99941299110651" lon="7.822040989995003">
        <ele>1197.46</ele>
        <time>2025-05-19T09:33:00Z</time>
      </trkpt>
      <trkpt lat="43.999701999127865" lon="7.82308897934854">
        <ele>1204.1900000000001</ele>
        <time>2025-05-19T09:33:09Z</time>
      </trkpt>
      <trkpt lat="43.999721026048064" lon="7.823176989331842">
        <ele>1205.1500000000001</ele>
        <time>2025-05-19T09:33:10Z</time>
      </trkpt>
      <trkpt lat="43.999737035483122" lon="7.823253013193607">
        <ele>1206.1099999999999</ele>
        <time>2025-05-19T09:33:11Z</time>
      </trkpt>
      <trkpt lat="43.999708034098148" lon="7.823359966278076">
        <ele>1207.55</ele>
        <time>2025-05-19T09:33:12Z</time>
      </trkpt>
      <trkpt lat="43.999653970822692" lon="7.823414029553533">
        <ele>1208.51</ele>
        <time>2025-05-19T09:33:13Z</time>
      </trkpt>
      <trkpt lat="43.999591022729874" lon="7.823435990139842">
        <ele>1209</ele>
        <time>2025-05-19T09:33:14Z</time>
      </trkpt>
      <trkpt lat="43.999503012746572" lon="7.823454011231661">
        <ele>1209.96</ele>
        <time>2025-05-19T09:33:15Z</time>
      </trkpt>
      <trkpt lat="43.999401004984975" lon="7.82347597181797">
        <ele>1210.9200000000001</ele>
        <time>2025-05-19T09:33:16Z</time>
      </trkpt>
      <trkpt lat="43.998743025586009" lon="7.823617961257696">
        <ele>1217.1700000000001</ele>
        <time>2025-05-19T09:33:23Z</time>
      </trkpt>
      <trkpt lat="43.998743025586009" lon="7.823617961257696">
        <ele>1218.1300000000001</ele>
        <time>2025-05-19T09:33:24Z</time>
      </trkpt>
      <trkpt lat="43.998706983402371" lon="7.823706977069378">
        <ele>1218.6099999999999</ele>
        <time>2025-05-19T09:33:25Z</time>
      </trkpt>
      <trkpt lat="43.99868099950254" lon="7.82377302646637">
        <ele>1219.0899999999999</ele>
        <time>2025-05-19T09:33:26Z</time>
      </trkpt>
      <trkpt lat="43.998657027259469" lon="7.823832035064697">
        <ele>1219.5699999999999</ele>
        <time>2025-05-19T09:33:27Z</time>
      </trkpt>
      <trkpt lat="43.998665995895863" lon="7.823934964835644">
        <ele>1220.53</ele>
        <time>2025-05-19T09:33:28Z</time>
      </trkpt>
      <trkpt lat="43.998676976189017" lon="7.824068991467357">
        <ele>1221.01</ele>
        <time>2025-05-19T09:33:29Z</time>
      </trkpt>
      <trkpt lat="43.998688962310553" lon="7.824215004220605">
        <ele>1221.97</ele>
        <time>2025-05-19T09:33:30Z</time>
      </trkpt>
      <trkpt lat="43.998743025586009" lon="7.825238015502691">
        <ele>1227.26</ele>
        <time>2025-05-19T09:33:38Z</time>
      </trkpt>
      <trkpt lat="43.998758029192686" lon="7.825349997729063">
        <ele>1228.22</ele>
        <time>2025-05-19T09:33:39Z</time>
      </trkpt>
      <trkpt lat="43.998802034184337" lon="7.825454017147422">
        <ele>1229.1800000000001</ele>
        <time>2025-05-19T09:33:40Z</time>
      </trkpt>
      <trkpt lat="43.999180980026722" lon="7.826455989852548">
        <ele>1236.3900000000001</ele>
        <time>2025-05-19T09:33:49Z</time>
      </trkpt>
      <trkpt lat="43.999188020825386" lon="7.826536959037185">
        <ele>1237.3499999999999</ele>
        <time>2025-05-19T09:33:50Z</time>
      </trkpt>
      <trkpt lat="43.999185003340244" lon="7.82661197707057">
        <ele>1238.8</ele>
        <time>2025-05-19T09:33:51Z</time>
      </trkpt>
      <trkpt lat="43.999137980863452" lon="7.82667500898242">
        <ele>1239.28</ele>
        <time>2025-05-19T09:33:52Z</time>
      </trkpt>
      <trkpt lat="43.999082995578647" lon="7.826752038672566">
        <ele>1240.24</ele>
        <time>2025-05-19T09:33:53Z</time>
      </trkpt>
      <trkpt lat="43.999017030000687" lon="7.826838959008455">
        <ele>1241.2</ele>
        <time>2025-05-19T09:33:54Z</time>
      </trkpt>
      <trkpt lat="43.998931031674147" lon="7.826896039769054">
        <ele>1241.6800000000001</ele>
        <time>2025-05-19T09:33:55Z</time>
      </trkpt>
      <trkpt lat="43.998841010034084" lon="7.826954964548349">
        <ele>1242.1600000000001</ele>
        <time>2025-05-19T09:33:56Z</time>
      </trkpt>
      <trkpt lat="43.998755011707544" lon="7.827011039480567">
        <ele>1243.1199999999999</ele>
        <time>2025-05-19T09:33:57Z</time>
      </trkpt>
      <trkpt lat="43.998334994539618" lon="7.827286971732974">
        <ele>1247.9300000000001</ele>
        <time>2025-05-19T09:34:03Z</time>
      </trkpt>
      <trkpt lat="43.998291995376348" lon="7.827358972281218">
        <ele>1248.4100000000001</ele>
        <time>2025-05-19T09:34:04Z</time>
      </trkpt>
      <trkpt lat="43.998205997049809" lon="7.827500961720944">
        <ele>1249.8499999999999</ele>
        <time>2025-05-19T09:34:06Z</time>
      </trkpt>
      <trkpt lat="43.998194010928273" lon="7.82757799141109">
        <ele>1250.3299999999999</ele>
        <time>2025-05-19T09:34:07Z</time>
      </trkpt>
      <trkpt lat="43.998178001493216" lon="7.827678993344307">
        <ele>1250.8099999999999</ele>
        <time>2025-05-19T09:34:08Z</time>
      </trkpt>
      <trkpt lat="43.998160986229777" lon="7.827789969742298">
        <ele>1251.29</ele>
        <time>2025-05-19T09:34:09Z</time>
      </trkpt>
      <trkpt lat="43.998141959309578" lon="7.827908992767334">
        <ele>1251.77</ele>
        <time>2025-05-19T09:34:10Z</time>
      </trkpt>
      <trkpt lat="43.99812201038003" lon="7.828123988583684">
        <ele>1253.22</ele>
        <time>2025-05-19T09:34:12Z</time>
      </trkpt>
      <trkpt lat="43.998081022873521" lon="7.828214010223746">
        <ele>1253.7</ele>
        <time>2025-05-19T09:34:13Z</time>
      </trkpt>
      <trkpt lat="43.998039029538631" lon="7.828288022428751">
        <ele>1253.7</ele>
        <time>2025-05-19T09:34:14Z</time>
      </trkpt>
      <trkpt lat="43.997984966263175" lon="7.828307971358299">
        <ele>1254.1800000000001</ele>
        <time>2025-05-19T09:34:15Z</time>
      </trkpt>
      <trkpt lat="43.997913971543312" lon="7.828326998278499">
        <ele>1254.6600000000001</ele>
        <time>2025-05-19T09:34:16Z</time>
      </trkpt>
      <trkpt lat="43.997829984873533" lon="7.828349964693189">
        <ele>1254.6600000000001</ele>
        <time>2025-05-19T09:34:17Z</time>
      </trkpt>
      <trkpt lat="43.997739963233471" lon="7.828374020755291">
        <ele>1254.6600000000001</ele>
        <time>2025-05-19T09:34:18Z</time>
      </trkpt>
      <trkpt lat="43.99764901958406" lon="7.828419031575322">
        <ele>1255.1400000000001</ele>
        <time>2025-05-19T09:34:19Z</time>
      </trkpt>
      <trkpt lat="43.99756302125752" lon="7.828470999374986">
        <ele>1255.1400000000001</ele>
        <time>2025-05-19T09:34:20Z</time>
      </trkpt>
      <trkpt lat="43.997485991567373" lon="7.828517016023397">
        <ele>1255.6199999999999</ele>
        <time>2025-05-19T09:34:21Z</time>
      </trkpt>
      <trkpt lat="43.99739102460444" lon="7.828574012964964">
        <ele>1256.0999999999999</ele>
        <time>2025-05-19T09:34:23Z</time>
      </trkpt>
      <trkpt lat="43.997342996299267" lon="7.828529002144933">
        <ele>1256.5799999999999</ele>
        <time>2025-05-19T09:34:24Z</time>
      </trkpt>
      <trkpt lat="43.997315000742674" lon="7.82850201241672">
        <ele>1256.5799999999999</ele>
        <time>2025-05-19T09:34:25Z</time>
      </trkpt>
      <trkpt lat="43.997280970215797" lon="7.828469993546605">
        <ele>1257.0599999999999</ele>
        <time>2025-05-19T09:34:26Z</time>
      </trkpt>
      <trkpt lat="43.997239982709289" lon="7.828431017696858">
        <ele>1257.0599999999999</ele>
        <time>2025-05-19T09:34:27Z</time>
      </trkpt>
      <trkpt lat="43.997197989374399" lon="7.828391036018729">
        <ele>1257.54</ele>
        <time>2025-05-19T09:34:28Z</time>
      </trkpt>
      <trkpt lat="43.99715700186789" lon="7.82835197634995">
        <ele>1257.54</ele>
        <time>2025-05-19T09:34:29Z</time>
      </trkpt>
      <trkpt lat="43.99711299687624" lon="7.82830998301506">
        <ele>1258.02</ele>
        <time>2025-05-19T09:34:30Z</time>
      </trkpt>
      <trkpt lat="43.997067986056209" lon="7.82826698385179">
        <ele>1258.5</ele>
        <time>2025-05-19T09:34:31Z</time>
      </trkpt>
      <trkpt lat="43.997018029913306" lon="7.828219961374998">
        <ele>1258.98</ele>
        <time>2025-05-19T09:34:32Z</time>
      </trkpt>
      <trkpt lat="43.99696203880012" lon="7.828166987746954">
        <ele>1259.46</ele>
        <time>2025-05-19T09:34:33Z</time>
      </trkpt>
      <trkpt lat="43.996907975524664" lon="7.82811501994729">
        <ele>1259.9400000000001</ele>
        <time>2025-05-19T09:34:34Z</time>
      </trkpt>
      <trkpt lat="43.996647968888283" lon="7.827868005260825">
        <ele>1261.8699999999999</ele>
        <time>2025-05-19T09:34:38Z</time>
      </trkpt>
      <trkpt lat="43.996589966118336" lon="7.827812014147639">
        <ele>1261.8699999999999</ele>
        <time>2025-05-19T09:34:39Z</time>
      </trkpt>
      <trkpt lat="43.99644797667861" lon="7.827775971964002">
        <ele>1262.3499999999999</ele>
        <time>2025-05-19T09:34:40Z</time>
      </trkpt>
      <trkpt lat="43.996370024979115" lon="7.827824000269175">
        <ele>1262.8299999999999</ele>
        <time>2025-05-19T09:34:41Z</time>
      </trkpt>
      <trkpt lat="43.996286038309336" lon="7.827875968068838">
        <ele>1263.79</ele>
        <time>2025-05-19T09:34:42Z</time>
      </trkpt>
      <trkpt lat="43.996182018890977" lon="7.827973030507565">
        <ele>1264.75</ele>
        <time>2025-05-19T09:34:43Z</time>
      </trkpt>
      <trkpt lat="43.996032988652587" lon="7.828166987746954">
        <ele>1266.1900000000001</ele>
        <time>2025-05-19T09:34:45Z</time>
      </trkpt>
      <trkpt lat="43.995959982275963" lon="7.828261032700539">
        <ele>1266.6700000000001</ele>
        <time>2025-05-19T09:34:46Z</time>
      </trkpt>
      <trkpt lat="43.99586702696979" lon="7.828383995220065">
        <ele>1267.6400000000001</ele>
        <time>2025-05-19T09:34:47Z</time>
      </trkpt>
      <trkpt lat="43.99584699422121" lon="7.828518021851778">
        <ele>1268.1199999999999</ele>
        <time>2025-05-19T09:34:48Z</time>
      </trkpt>
      <trkpt lat="43.995826961472631" lon="7.828654982149601">
        <ele>1268.5999999999999</ele>
        <time>2025-05-19T09:34:49Z</time>
      </trkpt>
      <trkpt lat="43.995600985363126" lon="7.829525023698807">
        <ele>1275.3299999999999</ele>
        <time>2025-05-19T09:34:56Z</time>
      </trkpt>
      <trkpt lat="43.99554499424994" lon="7.829669024795294">
        <ele>1276.29</ele>
        <time>2025-05-19T09:34:57Z</time>
      </trkpt>
      <trkpt lat="43.995490008965135" lon="7.830072026699781">
        <ele>1280.1300000000001</ele>
        <time>2025-05-19T09:35:00Z</time>
      </trkpt>
      <trkpt lat="43.995031015947461" lon="7.831449005752802">
        <ele>1294.0699999999999</ele>
        <time>2025-05-19T09:35:09Z</time>
      </trkpt>
      <trkpt lat="43.994644023478031" lon="7.832307983189821">
        <ele>1303.6900000000001</ele>
        <time>2025-05-19T09:35:15Z</time>
      </trkpt>
      <trkpt lat="43.994473032653332" lon="7.832478974014521">
        <ele>1306.5699999999999</ele>
        <time>2025-05-19T09:35:17Z</time>
      </trkpt>
      <trkpt lat="43.994215037673712" lon="7.832736968994141">
        <ele>1310.9000000000001</ele>
        <time>2025-05-19T09:35:20Z</time>
      </trkpt>
      <trkpt lat="43.994125016033649" lon="7.832826990634203">
        <ele>1312.3399999999999</ele>
        <time>2025-05-19T09:35:21Z</time>
      </trkpt>
      <trkpt lat="43.993133017793298" lon="7.833871962502599">
        <ele>1326.28</ele>
        <time>2025-05-19T09:35:31Z</time>
      </trkpt>
      <trkpt lat="43.993016006425023" lon="7.833943963050842">
        <ele>1327.72</ele>
        <time>2025-05-19T09:35:32Z</time>
      </trkpt>
      <trkpt lat="43.992685005068779" lon="7.834132974967361">
        <ele>1332.04</ele>
        <time>2025-05-19T09:35:35Z</time>
      </trkpt>
      <trkpt lat="43.992589032277465" lon="7.834139009937644">
        <ele>1333.01</ele>
        <time>2025-05-19T09:35:36Z</time>
      </trkpt>
      <trkpt lat="43.992489036172628" lon="7.834144961088896">
        <ele>1333.97</ele>
        <time>2025-05-19T09:35:37Z</time>
      </trkpt>
      <trkpt lat="43.992130039259791" lon="7.834184020757675">
        <ele>1337.8099999999999</ele>
        <time>2025-05-19T09:35:41Z</time>
      </trkpt>
      <trkpt lat="43.992054015398026" lon="7.83419500105083">
        <ele>1338.77</ele>
        <time>2025-05-19T09:35:42Z</time>
      </trkpt>
      <trkpt lat="43.992002969607711" lon="7.834245041012764">
        <ele>1339.73</ele>
        <time>2025-05-19T09:35:43Z</time>
      </trkpt>
      <trkpt lat="43.991930969059467" lon="7.834322992712259">
        <ele>1340.22</ele>
        <time>2025-05-19T09:35:44Z</time>
      </trkpt>
      <trkpt lat="43.991930969059467" lon="7.834322992712259">
        <ele>1341.1800000000001</ele>
        <time>2025-05-19T09:35:45Z</time>
      </trkpt>
      <trkpt lat="43.991753021255136" lon="7.834486020728946">
        <ele>1342.1400000000001</ele>
        <time>2025-05-19T09:35:46Z</time>
      </trkpt>
      <trkpt lat="43.99165503680706" lon="7.83454000018537">
        <ele>1343.0999999999999</ele>
        <time>2025-05-19T09:35:47Z</time>
      </trkpt>
      <trkpt lat="43.991468958556652" lon="7.834642007946968">
        <ele>1345.5</ele>
        <time>2025-05-19T09:35:49Z</time>
      </trkpt>
      <trkpt lat="43.991381032392383" lon="7.83469095826149">
        <ele>1346.46</ele>
        <time>2025-05-19T09:35:50Z</time>
      </trkpt>
      <trkpt lat="43.99105497635901" lon="7.834995975717902">
        <ele>1350.79</ele>
        <time>2025-05-19T09:35:54Z</time>
      </trkpt>
      <trkpt lat="43.990965960547328" lon="7.835007961839438">
        <ele>1351.27</ele>
        <time>2025-05-19T09:35:55Z</time>
      </trkpt>
      <trkpt lat="43.99088398553431" lon="7.835004022344947">
        <ele>1351.75</ele>
        <time>2025-05-19T09:35:56Z</time>
      </trkpt>
      <trkpt lat="43.990807039663196" lon="7.834999999031425">
        <ele>1352.71</ele>
        <time>2025-05-19T09:35:57Z</time>
      </trkpt>
      <trkpt lat="43.990737972781062" lon="7.834995975717902">
        <ele>1353.1900000000001</ele>
        <time>2025-05-19T09:35:58Z</time>
      </trkpt>
      <trkpt lat="43.990677036345005" lon="7.83499295823276">
        <ele>1354.1500000000001</ele>
        <time>2025-05-19T09:35:59Z</time>
      </trkpt>
      <trkpt lat="43.990626996383071" lon="7.834991030395031">
        <ele>1354.6300000000001</ele>
        <time>2025-05-19T09:36:00Z</time>
      </trkpt>
      <trkpt lat="43.990609981119633" lon="7.83499002456665">
        <ele>1355.5999999999999</ele>
        <time>2025-05-19T09:36:01Z</time>
      </trkpt>
      <trkpt lat="43.990634037181735" lon="7.835061019286513">
        <ele>1356.0799999999999</ele>
        <time>2025-05-19T09:36:02Z</time>
      </trkpt>
      <trkpt lat="43.990652980282903" lon="7.83511902205646">
        <ele>1356.5599999999999</ele>
        <time>2025-05-19T09:36:03Z</time>
      </trkpt>
      <trkpt lat="43.990712994709611" lon="7.835122961550951">
        <ele>1357.04</ele>
        <time>2025-05-19T09:36:04Z</time>
      </trkpt>
      <trkpt lat="43.990780971944332" lon="7.835127990692854">
        <ele>1358</ele>
        <time>2025-05-19T09:36:05Z</time>
      </trkpt>
      <trkpt lat="43.990862024948001" lon="7.835134025663137">
        <ele>1358.48</ele>
        <time>2025-05-19T09:36:06Z</time>
      </trkpt>
      <trkpt lat="43.991109961643815" lon="7.835070993751288">
        <ele>1359.9200000000001</ele>
        <time>2025-05-19T09:36:09Z</time>
      </trkpt>
      <trkpt lat="43.991969022899866" lon="7.834692969918251">
        <ele>1365.21</ele>
        <time>2025-05-19T09:36:18Z</time>
      </trkpt>
      <trkpt lat="43.99225702509284" lon="7.834575958549976">
        <ele>1367.6099999999999</ele>
        <time>2025-05-19T09:36:21Z</time>
      </trkpt>
      <trkpt lat="43.992346962913871" lon="7.83455902710557">
        <ele>1368.5699999999999</ele>
        <time>2025-05-19T09:36:22Z</time>
      </trkpt>
      <trkpt lat="43.992456011474133" lon="7.83454000018537">
        <ele>1369.05</ele>
        <time>2025-05-19T09:36:23Z</time>
      </trkpt>
      <trkpt lat="43.992533963173628" lon="7.834573024883866">
        <ele>1369.54</ele>
        <time>2025-05-19T09:36:24Z</time>
      </trkpt>
      <trkpt lat="43.992627002298832" lon="7.834613006561995">
        <ele>1370.02</ele>
        <time>2025-05-19T09:36:25Z</time>
      </trkpt>
      <trkpt lat="43.992720963433385" lon="7.834652988240123">
        <ele>1370.98</ele>
        <time>2025-05-19T09:36:26Z</time>
      </trkpt>
      <trkpt lat="43.992819031700492" lon="7.834658017382026">
        <ele>1371.46</ele>
        <time>2025-05-19T09:36:27Z</time>
      </trkpt>
      <trkpt lat="43.992908969521523" lon="7.834634967148304">
        <ele>1371.9400000000001</ele>
        <time>2025-05-19T09:36:28Z</time>
      </trkpt>
      <trkpt lat="43.992995973676443" lon="7.834590040147305">
        <ele>1372.9000000000001</ele>
        <time>2025-05-19T09:36:29Z</time>
      </trkpt>
      <trkpt lat="43.993088006973267" lon="7.834544023498893">
        <ele>1373.3800000000001</ele>
        <time>2025-05-19T09:36:30Z</time>
      </trkpt>
      <trkpt lat="43.993484973907471" lon="7.834343025460839">
        <ele>1375.78</ele>
        <time>2025-05-19T09:36:34Z</time>
      </trkpt>
      <trkpt lat="43.993592010810971" lon="7.834288962185383">
        <ele>1376.75</ele>
        <time>2025-05-19T09:36:35Z</time>
      </trkpt>
      <trkpt lat="43.993698041886091" lon="7.834234982728958">
        <ele>1377.23</ele>
        <time>2025-05-19T09:36:36Z</time>
      </trkpt>
      <trkpt lat="43.994558025151491" lon="7.833813037723303">
        <ele>1383.96</ele>
        <time>2025-05-19T09:36:44Z</time>
      </trkpt>
      <trkpt lat="43.994650980457664" lon="7.833785964176059">
        <ele>1384.9200000000001</ele>
        <time>2025-05-19T09:36:45Z</time>
      </trkpt>
      <trkpt lat="43.994920961558819" lon="7.833707006648183">
        <ele>1386.8399999999999</ele>
        <time>2025-05-19T09:36:48Z</time>
      </trkpt>
      <trkpt lat="43.99522396735847" lon="7.833552025258541">
        <ele>1388.76</ele>
        <time>2025-05-19T09:36:53Z</time>
      </trkpt>
      <trkpt lat="43.995318012312055" lon="7.833609022200108">
        <ele>1388.76</ele>
        <time>2025-05-19T09:36:54Z</time>
      </trkpt>
      <trkpt lat="43.995331004261971" lon="7.833616985008121">
        <ele>1389.24</ele>
        <time>2025-05-19T09:36:55Z</time>
      </trkpt>
      <trkpt lat="43.995326980948448" lon="7.833645986393094">
        <ele>1389.24</ele>
        <time>2025-05-19T09:36:56Z</time>
      </trkpt>
      <trkpt lat="43.995318012312055" lon="7.833718992769718">
        <ele>1389.72</ele>
        <time>2025-05-19T09:36:57Z</time>
      </trkpt>
      <trkpt lat="43.995308959856629" lon="7.83378797583282">
        <ele>1390.2</ele>
        <time>2025-05-19T09:36:58Z</time>
      </trkpt>
      <trkpt lat="43.995273001492023" lon="7.833842961117625">
        <ele>1390.6800000000001</ele>
        <time>2025-05-19T09:36:59Z</time>
      </trkpt>
      <trkpt lat="43.995238970965147" lon="7.833895012736321">
        <ele>1391.1700000000001</ele>
        <time>2025-05-19T09:37:00Z</time>
      </trkpt>
      <trkpt lat="43.995208963751793" lon="7.833940023556352">
        <ele>1391.1700000000001</ele>
        <time>2025-05-19T09:37:01Z</time>
      </trkpt>
      <trkpt lat="43.995182979851961" lon="7.83398000523448">
        <ele>1391.6500000000001</ele>
        <time>2025-05-19T09:37:02Z</time>
      </trkpt>
      <trkpt lat="43.995160013437271" lon="7.834015041589737">
        <ele>1392.1300000000001</ele>
        <time>2025-05-19T09:37:03Z</time>
      </trkpt>
      <trkpt lat="43.995132017880678" lon="7.834057034924626">
        <ele>1392.1300000000001</ele>
        <time>2025-05-19T09:37:04Z</time>
      </trkpt>
      <trkpt lat="43.994918027892709" lon="7.834380995482206">
        <ele>1393.5699999999999</ele>
        <time>2025-05-19T09:37:09Z</time>
      </trkpt>
      <trkpt lat="43.994801016524434" lon="7.83455902710557">
        <ele>1393.0899999999999</ele>
        <time>2025-05-19T09:37:11Z</time>
      </trkpt>
      <trkpt lat="43.994738990440965" lon="7.834652988240123">
        <ele>1393.0899999999999</ele>
        <time>2025-05-19T09:37:12Z</time>
      </trkpt>
      <trkpt lat="43.994674030691385" lon="7.834749966859818">
        <ele>1392.6099999999999</ele>
        <time>2025-05-19T09:37:13Z</time>
      </trkpt>
      <trkpt lat="43.994613010436296" lon="7.834843005985022">
        <ele>1392.1300000000001</ele>
        <time>2025-05-19T09:37:14Z</time>
      </trkpt>
      <trkpt lat="43.994558025151491" lon="7.83492598682642">
        <ele>1392.1300000000001</ele>
        <time>2025-05-19T09:37:15Z</time>
      </trkpt>
      <trkpt lat="43.994418969377875" lon="7.835080968216062">
        <ele>1391.6500000000001</ele>
        <time>2025-05-19T09:37:17Z</time>
      </trkpt>
      <trkpt lat="43.994236998260021" lon="7.835284983739257">
        <ele>1390.6800000000001</ele>
        <time>2025-05-19T09:37:20Z</time>
      </trkpt>
      <trkpt lat="43.994127027690411" lon="7.835408030077815">
        <ele>1390.6800000000001</ele>
        <time>2025-05-19T09:37:22Z</time>
      </trkpt>
      <trkpt lat="43.994009010493755" lon="7.835539039224386">
        <ele>1390.6800000000001</ele>
        <time>2025-05-19T09:37:24Z</time>
      </trkpt>
      <trkpt lat="43.993951007723808" lon="7.835605004802346">
        <ele>1390.6800000000001</ele>
        <time>2025-05-19T09:37:25Z</time>
      </trkpt>
      <trkpt lat="43.993895016610622" lon="7.835668036714196">
        <ele>1390.2</ele>
        <time>2025-05-19T09:37:26Z</time>
      </trkpt>
      <trkpt lat="43.993828967213631" lon="7.835740959271789">
        <ele>1390.2</ele>
        <time>2025-05-19T09:37:27Z</time>
      </trkpt>
      <trkpt lat="43.993809018284082" lon="7.8357869759202">
        <ele>1389.72</ele>
        <time>2025-05-19T09:37:28Z</time>
      </trkpt>
      <trkpt lat="43.993783034384251" lon="7.835847996175289">
        <ele>1389.72</ele>
        <time>2025-05-19T09:37:29Z</time>
      </trkpt>
      <trkpt lat="43.993682032451034" lon="7.83608696423471">
        <ele>1387.3199999999999</ele>
        <time>2025-05-19T09:37:32Z</time>
      </trkpt>
      <trkpt lat="43.993641966953874" lon="7.836180003359914">
        <ele>1386.8399999999999</ele>
        <time>2025-05-19T09:37:33Z</time>
      </trkpt>
      <trkpt lat="43.993600979447365" lon="7.836276981979609">
        <ele>1386.3599999999999</ele>
        <time>2025-05-19T09:37:34Z</time>
      </trkpt>
      <trkpt lat="43.993568038567901" lon="7.836357029154897">
        <ele>1386.3599999999999</ele>
        <time>2025-05-19T09:37:35Z</time>
      </trkpt>
      <trkpt lat="43.99352696724236" lon="7.83645099028945">
        <ele>1385.8800000000001</ele>
        <time>2025-05-19T09:37:36Z</time>
      </trkpt>
      <trkpt lat="43.993315994739532" lon="7.836689036339521">
        <ele>1384.9200000000001</ele>
        <time>2025-05-19T09:37:39Z</time>
      </trkpt>
      <trkpt lat="43.99324600584805" lon="7.836767993867397">
        <ele>1384.4400000000001</ele>
        <time>2025-05-19T09:37:40Z</time>
      </trkpt>
      <trkpt lat="43.993183979764581" lon="7.83683798275888">
        <ele>1384.4400000000001</ele>
        <time>2025-05-19T09:37:41Z</time>
      </trkpt>
      <trkpt lat="43.993127988651395" lon="7.83690101467073">
        <ele>1384.4400000000001</ele>
        <time>2025-05-19T09:37:42Z</time>
      </trkpt>
      <trkpt lat="43.993065962567925" lon="7.836971003562212">
        <ele>1384.4400000000001</ele>
        <time>2025-05-19T09:37:43Z</time>
      </trkpt>
      <trkpt lat="43.99301097728312" lon="7.837034035474062">
        <ele>1384.4400000000001</ele>
        <time>2025-05-19T09:37:44Z</time>
      </trkpt>
      <trkpt lat="43.992961021140218" lon="7.837089020758867">
        <ele>1384.9200000000001</ele>
        <time>2025-05-19T09:37:45Z</time>
      </trkpt>
      <trkpt lat="43.992919027805328" lon="7.837137971073389">
        <ele>1384.4400000000001</ele>
        <time>2025-05-19T09:37:46Z</time>
      </trkpt>
      <trkpt lat="43.992863036692142" lon="7.837277026847005">
        <ele>1384.4400000000001</ele>
        <time>2025-05-19T09:37:48Z</time>
      </trkpt>
      <trkpt lat="43.992863036692142" lon="7.837330000475049">
        <ele>1384.4400000000001</ele>
        <time>2025-05-19T09:37:49Z</time>
      </trkpt>
      <trkpt lat="43.992913998663425" lon="7.837683968245983">
        <ele>1382.51</ele>
        <time>2025-05-19T09:37:54Z</time>
      </trkpt>
      <trkpt lat="43.992997985333204" lon="7.83801899291575">
        <ele>1381.55</ele>
        <time>2025-05-19T09:37:59Z</time>
      </trkpt>
      <trkpt lat="43.993032015860081" lon="7.838189983740449">
        <ele>1380.5899999999999</ele>
        <time>2025-05-19T09:38:01Z</time>
      </trkpt>
      <trkpt lat="43.993164030835032" lon="7.838831031695008">
        <ele>1379.6300000000001</ele>
        <time>2025-05-19T09:38:07Z</time>
      </trkpt>
      <trkpt lat="43.993162019178271" lon="7.838966986164451">
        <ele>1378.6700000000001</ele>
        <time>2025-05-19T09:38:08Z</time>
      </trkpt>
      <trkpt lat="43.99316000752151" lon="7.839086009189487">
        <ele>1378.1900000000001</ele>
        <time>2025-05-19T09:38:09Z</time>
      </trkpt>
      <trkpt lat="43.993157995864749" lon="7.839206038042903">
        <ele>1377.23</ele>
        <time>2025-05-19T09:38:10Z</time>
      </trkpt>
      <trkpt lat="43.993155984207988" lon="7.839312991127372">
        <ele>1376.75</ele>
        <time>2025-05-19T09:38:11Z</time>
      </trkpt>
      <trkpt lat="43.993154978379607" lon="7.839418016374111">
        <ele>1376.26</ele>
        <time>2025-05-19T09:38:12Z</time>
      </trkpt>
      <trkpt lat="43.993152966722846" lon="7.839523041620851">
        <ele>1375.3</ele>
        <time>2025-05-19T09:38:13Z</time>
      </trkpt>
      <trkpt lat="43.993150033056736" lon="7.839747006073594">
        <ele>1374.3399999999999</ele>
        <time>2025-05-19T09:38:15Z</time>
      </trkpt>
      <trkpt lat="43.993148021399975" lon="7.839860999956727">
        <ele>1374.3399999999999</ele>
        <time>2025-05-19T09:38:16Z</time>
      </trkpt>
      <trkpt lat="43.993142992258072" lon="7.84016702324152">
        <ele>1372.4200000000001</ele>
        <time>2025-05-19T09:38:20Z</time>
      </trkpt>
      <trkpt lat="43.993148021399975" lon="7.840264001861215">
        <ele>1372.4200000000001</ele>
        <time>2025-05-19T09:38:21Z</time>
      </trkpt>
      <trkpt lat="43.993168976157904" lon="7.840330973267555">
        <ele>1372.4200000000001</ele>
        <time>2025-05-19T09:38:22Z</time>
      </trkpt>
      <trkpt lat="43.993335021659732" lon="7.840847969055176">
        <ele>1371.46</ele>
        <time>2025-05-19T09:38:31Z</time>
      </trkpt>
      <trkpt lat="43.993348013609648" lon="7.840934973210096">
        <ele>1370.98</ele>
        <time>2025-05-19T09:38:32Z</time>
      </trkpt>
      <trkpt lat="43.993361005559564" lon="7.841024994850159">
        <ele>1370.5</ele>
        <time>2025-05-19T09:38:33Z</time>
      </trkpt>
      <trkpt lat="43.99354599416256" lon="7.842067033052445">
        <ele>1367.1300000000001</ele>
        <time>2025-05-19T09:38:42Z</time>
      </trkpt>
      <trkpt lat="43.993591004982591" lon="7.84220902249217">
        <ele>1367.1300000000001</ele>
        <time>2025-05-19T09:38:43Z</time>
      </trkpt>
      <trkpt lat="43.993635009974241" lon="7.842344976961613">
        <ele>1367.1300000000001</ele>
        <time>2025-05-19T09:38:44Z</time>
      </trkpt>
      <trkpt lat="43.993664011359215" lon="7.8424889780581">
        <ele>1366.6500000000001</ele>
        <time>2025-05-19T09:38:45Z</time>
      </trkpt>
      <trkpt lat="43.993678009137511" lon="7.842645971104503">
        <ele>1366.1700000000001</ele>
        <time>2025-05-19T09:38:46Z</time>
      </trkpt>
      <trkpt lat="43.993693012744188" lon="7.842824002727866">
        <ele>1364.73</ele>
        <time>2025-05-19T09:38:47Z</time>
      </trkpt>
      <trkpt lat="43.993708016350865" lon="7.842994993552566">
        <ele>1362.8099999999999</ele>
        <time>2025-05-19T09:38:48Z</time>
      </trkpt>
      <trkpt lat="43.993715979158878" lon="7.84317503683269">
        <ele>1361.3599999999999</ele>
        <time>2025-05-19T09:38:49Z</time>
      </trkpt>
      <trkpt lat="43.993693012744188" lon="7.843314008787274">
        <ele>1360.4000000000001</ele>
        <time>2025-05-19T09:38:50Z</time>
      </trkpt>
      <trkpt lat="43.993646996095777" lon="7.843472007662058">
        <ele>1359.9200000000001</ele>
        <time>2025-05-19T09:38:51Z</time>
      </trkpt>
      <trkpt lat="43.993593016639352" lon="7.843591030687094">
        <ele>1358.96</ele>
        <time>2025-05-19T09:38:52Z</time>
      </trkpt>
      <trkpt lat="43.993538031354547" lon="7.843710975721479">
        <ele>1358</ele>
        <time>2025-05-19T09:38:53Z</time>
      </trkpt>
      <trkpt lat="43.993464019149542" lon="7.843874003738165">
        <ele>1357.52</ele>
        <time>2025-05-19T09:38:54Z</time>
      </trkpt>
      <trkpt lat="43.993437029421329" lon="7.843946004286408">
        <ele>1356.5599999999999</ele>
        <time>2025-05-19T09:38:55Z</time>
      </trkpt>
      <trkpt lat="43.993386989459395" lon="7.844079025089741">
        <ele>1355.5999999999999</ele>
        <time>2025-05-19T09:38:56Z</time>
      </trkpt>
      <trkpt lat="43.992979964241385" lon="7.845126008614898">
        <ele>1341.1800000000001</ele>
        <time>2025-05-19T09:39:03Z</time>
      </trkpt>
      <trkpt lat="43.992911987006664" lon="7.845228016376495">
        <ele>1338.77</ele>
        <time>2025-05-19T09:39:04Z</time>
      </trkpt>
      <trkpt lat="43.992719035595655" lon="7.845232961699367">
        <ele>1333.49</ele>
        <time>2025-05-19T09:39:07Z</time>
      </trkpt>
      <trkpt lat="43.992668995633721" lon="7.845221981406212">
        <ele>1332.04</ele>
        <time>2025-05-19T09:39:08Z</time>
      </trkpt>
      <trkpt lat="43.992601018399" lon="7.845207983627915">
        <ele>1330.1199999999999</ele>
        <time>2025-05-19T09:39:09Z</time>
      </trkpt>
      <trkpt lat="43.992584003135562" lon="7.845203960314393">
        <ele>1328.2</ele>
        <time>2025-05-19T09:39:10Z</time>
      </trkpt>
      <trkpt lat="43.99245198816061" lon="7.845150986686349">
        <ele>1326.76</ele>
        <time>2025-05-19T09:39:11Z</time>
      </trkpt>
      <trkpt lat="43.992356015369296" lon="7.845113016664982">
        <ele>1324.8299999999999</ele>
        <time>2025-05-19T09:39:12Z</time>
      </trkpt>
      <trkpt lat="43.992261970415711" lon="7.845074962824583">
        <ele>1322.9100000000001</ele>
        <time>2025-05-19T09:39:13Z</time>
      </trkpt>
      <trkpt lat="43.992218971252441" lon="7.845030035823584">
        <ele>1320.99</ele>
        <time>2025-05-19T09:39:14Z</time>
      </trkpt>
      <trkpt lat="43.992143031209707" lon="7.844949988648295">
        <ele>1319.0699999999999</ele>
        <time>2025-05-19T09:39:15Z</time>
      </trkpt>
      <trkpt lat="43.992060972377658" lon="7.844863990321755">
        <ele>1317.6199999999999</ele>
        <time>2025-05-19T09:39:16Z</time>
      </trkpt>
      <trkpt lat="43.991900039836764" lon="7.844695011153817">
        <ele>1313.78</ele>
        <time>2025-05-19T09:39:18Z</time>
      </trkpt>
      <trkpt lat="43.991804989054799" lon="7.844602977856994">
        <ele>1312.3399999999999</ele>
        <time>2025-05-19T09:39:19Z</time>
      </trkpt>
      <trkpt lat="43.991733994334936" lon="7.844602977856994">
        <ele>1310.4100000000001</ele>
        <time>2025-05-19T09:39:20Z</time>
      </trkpt>
      <trkpt lat="43.991661993786693" lon="7.844602977856994">
        <ele>1308.49</ele>
        <time>2025-05-19T09:39:21Z</time>
      </trkpt>
      <trkpt lat="43.991606002673507" lon="7.844733987003565">
        <ele>1306.5699999999999</ele>
        <time>2025-05-19T09:39:22Z</time>
      </trkpt>
      <trkpt lat="43.991565015166998" lon="7.844829959794879">
        <ele>1304.6500000000001</ele>
        <time>2025-05-19T09:39:23Z</time>
      </trkpt>
      <trkpt lat="43.99152503348887" lon="7.844925010576844">
        <ele>1302.24</ele>
        <time>2025-05-19T09:39:24Z</time>
      </trkpt>
      <trkpt lat="43.99148496799171" lon="7.845018971711397">
        <ele>1300.3199999999999</ele>
        <time>2025-05-19T09:39:25Z</time>
      </trkpt>
      <trkpt lat="43.991443980485201" lon="7.845116034150124">
        <ele>1298.4000000000001</ele>
        <time>2025-05-19T09:39:26Z</time>
      </trkpt>
      <trkpt lat="43.991402992978692" lon="7.845212006941438">
        <ele>1296.48</ele>
        <time>2025-05-19T09:39:27Z</time>
      </trkpt>
      <trkpt lat="43.991365022957325" lon="7.845303034409881">
        <ele>1295.03</ele>
        <time>2025-05-19T09:39:28Z</time>
      </trkpt>
      <trkpt lat="43.991265026852489" lon="7.845339998602867">
        <ele>1294.0699999999999</ele>
        <time>2025-05-19T09:39:29Z</time>
      </trkpt>
      <trkpt lat="43.991200989112258" lon="7.845359025523067">
        <ele>1292.6300000000001</ele>
        <time>2025-05-19T09:39:30Z</time>
      </trkpt>
      <trkpt lat="43.991132006049156" lon="7.845379980280995">
        <ele>1291.6700000000001</ele>
        <time>2025-05-19T09:39:31Z</time>
      </trkpt>
      <trkpt lat="43.991060005500913" lon="7.845402024686337">
        <ele>1290.23</ele>
        <time>2025-05-19T09:39:32Z</time>
      </trkpt>
      <trkpt lat="43.990932013839483" lon="7.845439994707704">
        <ele>1287.3399999999999</ele>
        <time>2025-05-19T09:39:34Z</time>
      </trkpt>
      <trkpt lat="43.990901000797749" lon="7.845503026619554">
        <ele>1285.4200000000001</ele>
        <time>2025-05-19T09:39:35Z</time>
      </trkpt>
      <trkpt lat="43.990873005241156" lon="7.845557006075978">
        <ele>1283.5</ele>
        <time>2025-05-19T09:39:36Z</time>
      </trkpt>
      <trkpt lat="43.990864036604762" lon="7.845592964440584">
        <ele>1281.5699999999999</ele>
        <time>2025-05-19T09:39:37Z</time>
      </trkpt>
      <trkpt lat="43.990851966664195" lon="7.845663959160447">
        <ele>1279.6500000000001</ele>
        <time>2025-05-19T09:39:38Z</time>
      </trkpt>
      <trkpt lat="43.99083998054266" lon="7.845738977193832">
        <ele>1277.73</ele>
        <time>2025-05-19T09:39:39Z</time>
      </trkpt>
      <trkpt lat="43.990827994421124" lon="7.845819024369121">
        <ele>1276.29</ele>
        <time>2025-05-19T09:39:40Z</time>
      </trkpt>
      <trkpt lat="43.990813996642828" lon="7.845902005210519">
        <ele>1275.3299999999999</ele>
        <time>2025-05-19T09:39:41Z</time>
      </trkpt>
      <trkpt lat="43.990470003336668" lon="7.846889980137348">
        <ele>1263.3099999999999</ele>
        <time>2025-05-19T09:39:51Z</time>
      </trkpt>
      <trkpt lat="43.990353997796774" lon="7.847185023128986">
        <ele>1260.4300000000001</ele>
        <time>2025-05-19T09:39:54Z</time>
      </trkpt>
      <trkpt lat="43.990320973098278" lon="7.847268003970385">
        <ele>1259.9400000000001</ele>
        <time>2025-05-19T09:39:55Z</time>
      </trkpt>
      <trkpt lat="43.990275040268898" lon="7.847362970933318">
        <ele>1258.98</ele>
        <time>2025-05-19T09:39:56Z</time>
      </trkpt>
      <trkpt lat="43.990227011963725" lon="7.847410999238491">
        <ele>1258.02</ele>
        <time>2025-05-19T09:39:57Z</time>
      </trkpt>
      <trkpt lat="43.990180995315313" lon="7.847457015886903">
        <ele>1257.54</ele>
        <time>2025-05-19T09:39:58Z</time>
      </trkpt>
      <trkpt lat="43.990103965625167" lon="7.847510995343328">
        <ele>1257.0599999999999</ele>
        <time>2025-05-19T09:39:59Z</time>
      </trkpt>
      <trkpt lat="43.99004403501749" lon="7.847531028091908">
        <ele>1256.5799999999999</ele>
        <time>2025-05-19T09:40:00Z</time>
      </trkpt>
      <trkpt lat="43.989944960922003" lon="7.847563968971372">
        <ele>1256.0999999999999</ele>
        <time>2025-05-19T09:40:01Z</time>
      </trkpt>
      <trkpt lat="43.989939009770751" lon="7.84758098423481">
        <ele>1255.1400000000001</ele>
        <time>2025-05-19T09:40:02Z</time>
      </trkpt>
      <trkpt lat="43.989909002557397" lon="7.847673017531633">
        <ele>1254.6600000000001</ele>
        <time>2025-05-19T09:40:03Z</time>
      </trkpt>
      <trkpt lat="43.989858962595463" lon="7.847821963950992">
        <ele>1254.1800000000001</ele>
        <time>2025-05-19T09:40:04Z</time>
      </trkpt>
      <trkpt lat="43.989803977310658" lon="7.847877033054829">
        <ele>1253.22</ele>
        <time>2025-05-19T09:40:05Z</time>
      </trkpt>
      <trkpt lat="43.989747986197472" lon="7.847933024168015">
        <ele>1252.74</ele>
        <time>2025-05-19T09:40:06Z</time>
      </trkpt>
      <trkpt lat="43.989709010347724" lon="7.847972000017762">
        <ele>1251.29</ele>
        <time>2025-05-19T09:40:07Z</time>
      </trkpt>
      <trkpt lat="43.989714961498976" lon="7.848034026101232">
        <ele>1250.3299999999999</ele>
        <time>2025-05-19T09:40:08Z</time>
      </trkpt>
      <trkpt lat="43.989729965105653" lon="7.848208034411073">
        <ele>1249.3699999999999</ele>
        <time>2025-05-19T09:40:09Z</time>
      </trkpt>
      <trkpt lat="43.989734994247556" lon="7.848221026360989">
        <ele>1248.4100000000001</ele>
        <time>2025-05-19T09:40:10Z</time>
      </trkpt>
      <trkpt lat="43.989770030602813" lon="7.848321022465825">
        <ele>1246.97</ele>
        <time>2025-05-19T09:40:11Z</time>
      </trkpt>
      <trkpt lat="43.98980900645256" lon="7.848430993035436">
        <ele>1246.01</ele>
        <time>2025-05-19T09:40:12Z</time>
      </trkpt>
      <trkpt lat="43.989849993959069" lon="7.84854699857533">
        <ele>1244.5599999999999</ele>
        <time>2025-05-19T09:40:13Z</time>
      </trkpt>
      <trkpt lat="43.989867009222507" lon="7.848658980801702">
        <ele>1243.5999999999999</ele>
        <time>2025-05-19T09:40:14Z</time>
      </trkpt>
      <trkpt lat="43.989881007000804" lon="7.848809016868472">
        <ele>1242.1600000000001</ele>
        <time>2025-05-19T09:40:15Z</time>
      </trkpt>
      <trkpt lat="43.989860974252224" lon="7.848899038508534">
        <ele>1241.2</ele>
        <time>2025-05-19T09:40:16Z</time>
      </trkpt>
      <trkpt lat="43.989838007837534" lon="7.849001968279481">
        <ele>1240.24</ele>
        <time>2025-05-19T09:40:17Z</time>
      </trkpt>
      <trkpt lat="43.989786962047219" lon="7.849112022668123">
        <ele>1238.8</ele>
        <time>2025-05-19T09:40:18Z</time>
      </trkpt>
      <trkpt lat="43.989751003682613" lon="7.849188968539238">
        <ele>1237.8299999999999</ele>
        <time>2025-05-19T09:40:19Z</time>
      </trkpt>
      <trkpt lat="43.989733988419175" lon="7.849329030141234">
        <ele>1236.8699999999999</ele>
        <time>2025-05-19T09:40:20Z</time>
      </trkpt>
      <trkpt lat="43.989775981754065" lon="7.849412010982633">
        <ele>1235.9100000000001</ele>
        <time>2025-05-19T09:40:21Z</time>
      </trkpt>
      <trkpt lat="43.989823004230857" lon="7.849502032622695">
        <ele>1234.95</ele>
        <time>2025-05-19T09:40:22Z</time>
      </trkpt>
      <trkpt lat="43.98987203836441" lon="7.849596999585629">
        <ele>1233.99</ele>
        <time>2025-05-19T09:40:23Z</time>
      </trkpt>
      <trkpt lat="43.989920988678932" lon="7.849691966548562">
        <ele>1233.03</ele>
        <time>2025-05-19T09:40:24Z</time>
      </trkpt>
      <trkpt lat="43.990016039460897" lon="7.849875027313829">
        <ele>1230.6199999999999</ele>
        <time>2025-05-19T09:40:26Z</time>
      </trkpt>
      <trkpt lat="43.99004302918911" lon="7.849964965134859">
        <ele>1229.6600000000001</ele>
        <time>2025-05-19T09:40:27Z</time>
      </trkpt>
      <trkpt lat="43.99004302918911" lon="7.850043000653386">
        <ele>1228.7</ele>
        <time>2025-05-19T09:40:28Z</time>
      </trkpt>
      <trkpt lat="43.990008998662233" lon="7.850161017850041">
        <ele>1228.22</ele>
        <time>2025-05-19T09:40:29Z</time>
      </trkpt>
      <trkpt lat="43.98993699811399" lon="7.850212985649705">
        <ele>1227.26</ele>
        <time>2025-05-19T09:40:30Z</time>
      </trkpt>
      <trkpt lat="43.989855023100972" lon="7.850273000076413">
        <ele>1226.78</ele>
        <time>2025-05-19T09:40:31Z</time>
      </trkpt>
      <trkpt lat="43.989770030602813" lon="7.850336031988263">
        <ele>1226.3</ele>
        <time>2025-05-19T09:40:32Z</time>
      </trkpt>
      <trkpt lat="43.98961597122252" lon="7.850448014214635">
        <ele>1224.8599999999999</ele>
        <time>2025-05-19T09:40:34Z</time>
      </trkpt>
      <trkpt lat="43.98948697373271" lon="7.850541975349188">
        <ele>1222.9300000000001</ele>
        <time>2025-05-19T09:40:36Z</time>
      </trkpt>
      <trkpt lat="43.989451015368104" lon="7.85056795924902">
        <ele>1221.97</ele>
        <time>2025-05-19T09:40:37Z</time>
      </trkpt>
      <trkpt lat="43.989451015368104" lon="7.85056795924902">
        <ele>1221.01</ele>
        <time>2025-05-19T09:40:38Z</time>
      </trkpt>
      <trkpt lat="43.989451015368104" lon="7.850689999759197">
        <ele>1220.53</ele>
        <time>2025-05-19T09:40:39Z</time>
      </trkpt>
      <trkpt lat="43.989451015368104" lon="7.850697040557861">
        <ele>1220.05</ele>
        <time>2025-05-19T09:40:40Z</time>
      </trkpt>
      <trkpt lat="43.989496026188135" lon="7.850804999470711">
        <ele>1219.0899999999999</ele>
        <time>2025-05-19T09:40:41Z</time>
      </trkpt>
      <trkpt lat="43.989531984552741" lon="7.850893009454012">
        <ele>1218.6099999999999</ele>
        <time>2025-05-19T09:40:42Z</time>
      </trkpt>
      <trkpt lat="43.989644972607493" lon="7.851169025525451">
        <ele>1216.6900000000001</ele>
        <time>2025-05-19T09:40:44Z</time>
      </trkpt>
      <trkpt lat="43.989660982042551" lon="7.851388966664672">
        <ele>1214.76</ele>
        <time>2025-05-19T09:40:46Z</time>
      </trkpt>
      <trkpt lat="43.989686965942383" lon="7.85174896940589">
        <ele>1209.48</ele>
        <time>2025-05-19T09:40:52Z</time>
      </trkpt>
      <trkpt lat="43.989697024226189" lon="7.851758021861315">
        <ele>1208.03</ele>
        <time>2025-05-19T09:40:53Z</time>
      </trkpt>
      <trkpt lat="43.989772964268923" lon="7.851833961904049">
        <ele>1207.0699999999999</ele>
        <time>2025-05-19T09:40:54Z</time>
      </trkpt>
      <trkpt lat="43.989772964268923" lon="7.851833961904049">
        <ele>1205.6300000000001</ele>
        <time>2025-05-19T09:40:55Z</time>
      </trkpt>
      <trkpt lat="43.989838007837534" lon="7.851833961904049">
        <ele>1204.6700000000001</ele>
        <time>2025-05-19T09:40:56Z</time>
      </trkpt>
      <trkpt lat="43.989838007837534" lon="7.851833961904049">
        <ele>1204.1900000000001</ele>
        <time>2025-05-19T09:40:57Z</time>
      </trkpt>
      <trkpt lat="43.989870026707649" lon="7.851820969954133">
        <ele>1203.23</ele>
        <time>2025-05-19T09:40:58Z</time>
      </trkpt>
      <trkpt lat="43.989918977022171" lon="7.851801021024585">
        <ele>1202.27</ele>
        <time>2025-05-19T09:40:59Z</time>
      </trkpt>
      <trkpt lat="43.989974968135357" lon="7.851777970790863">
        <ele>1200.8199999999999</ele>
        <time>2025-05-19T09:41:00Z</time>
      </trkpt>
      <trkpt lat="43.990031965076923" lon="7.851753998547792">
        <ele>1199.3800000000001</ele>
        <time>2025-05-19T09:41:01Z</time>
      </trkpt>
      <trkpt lat="43.99008602835238" lon="7.851732037961483">
        <ele>1198.4200000000001</ele>
        <time>2025-05-19T09:41:02Z</time>
      </trkpt>
      <trkpt lat="43.990135984495282" lon="7.851712005212903">
        <ele>1196.98</ele>
        <time>2025-05-19T09:41:03Z</time>
      </trkpt>
      <trkpt lat="43.990227011963725" lon="7.851688032969832">
        <ele>1196.02</ele>
        <time>2025-05-19T09:41:04Z</time>
      </trkpt>
      <trkpt lat="43.990480983629823" lon="7.85172700881958">
        <ele>1193.6099999999999</ele>
        <time>2025-05-19T09:41:06Z</time>
      </trkpt>
      <trkpt lat="43.990569999441504" lon="7.851847037672997">
        <ele>1192.1700000000001</ele>
        <time>2025-05-19T09:41:07Z</time>
      </trkpt>
      <trkpt lat="43.990589026361704" lon="7.85194200463593">
        <ele>1191.21</ele>
        <time>2025-05-19T09:41:08Z</time>
      </trkpt>
      <trkpt lat="43.990577040240169" lon="7.852095980197191">
        <ele>1190.25</ele>
        <time>2025-05-19T09:41:09Z</time>
      </trkpt>
      <trkpt lat="43.990589026361704" lon="7.85194200463593">
        <ele>1189.77</ele>
        <time>2025-05-19T09:41:10Z</time>
      </trkpt>
      <trkpt lat="43.990546027198434" lon="7.852499987930059">
        <ele>1189.29</ele>
        <time>2025-05-19T09:41:11Z</time>
      </trkpt>
      <trkpt lat="43.990546027198434" lon="7.852499987930059">
        <ele>1189.29</ele>
        <time>2025-05-19T09:41:12Z</time>
      </trkpt>
      <trkpt lat="43.990591960027814" lon="7.852561008185148">
        <ele>1188.8099999999999</ele>
        <time>2025-05-19T09:41:13Z</time>
      </trkpt>
      <trkpt lat="43.990695979446173" lon="7.852699980139732">
        <ele>1188.8099999999999</ele>
        <time>2025-05-19T09:41:15Z</time>
      </trkpt>
      <trkpt lat="43.990867976099253" lon="7.852928973734379">
        <ele>1188.8099999999999</ele>
        <time>2025-05-19T09:41:20Z</time>
      </trkpt>
      <trkpt lat="43.991148015484214" lon="7.85348997451365">
        <ele>1187.8499999999999</ele>
        <time>2025-05-19T09:41:24Z</time>
      </trkpt>
      <trkpt lat="43.991286987438798" lon="7.853792980313301">
        <ele>1186.4000000000001</ele>
        <time>2025-05-19T09:41:27Z</time>
      </trkpt>
      <trkpt lat="43.991329986602068" lon="7.853913009166718">
        <ele>1185.9200000000001</ele>
        <time>2025-05-19T09:41:28Z</time>
      </trkpt>
      <trkpt lat="43.991371979936957" lon="7.854031026363373">
        <ele>1184.96</ele>
        <time>2025-05-19T09:41:29Z</time>
      </trkpt>
      <trkpt lat="43.991599967703223" lon="7.854397986084223">
        <ele>1182.5599999999999</ele>
        <time>2025-05-19T09:41:33Z</time>
      </trkpt>
      <trkpt lat="43.991638021543622" lon="7.854425981640816">
        <ele>1182.0799999999999</ele>
        <time>2025-05-19T09:41:34Z</time>
      </trkpt>
      <trkpt lat="43.991682026535273" lon="7.854459006339312">
        <ele>1181.5999999999999</ele>
        <time>2025-05-19T09:41:35Z</time>
      </trkpt>
      <trkpt lat="43.991735000163317" lon="7.854496976360679">
        <ele>1180.6400000000001</ele>
        <time>2025-05-19T09:41:36Z</time>
      </trkpt>
      <trkpt lat="43.991818986833096" lon="7.854526983574033">
        <ele>1179.6700000000001</ele>
        <time>2025-05-19T09:41:37Z</time>
      </trkpt>
      <trkpt lat="43.991853017359972" lon="7.854512985795736">
        <ele>1178.71</ele>
        <time>2025-05-19T09:41:38Z</time>
      </trkpt>
      <trkpt lat="43.991887969896197" lon="7.85449898801744">
        <ele>1178.23</ele>
        <time>2025-05-19T09:41:39Z</time>
      </trkpt>
      <trkpt lat="43.991898028180003" lon="7.854494964703918">
        <ele>1177.27</ele>
        <time>2025-05-19T09:41:40Z</time>
      </trkpt>
      <trkpt lat="43.991900961846113" lon="7.854483984410763">
        <ele>1176.79</ele>
        <time>2025-05-19T09:41:41Z</time>
      </trkpt>
      <trkpt lat="43.991905990988016" lon="7.854468980804086">
        <ele>1176.3099999999999</ele>
        <time>2025-05-19T09:41:42Z</time>
      </trkpt>
      <trkpt lat="43.991842959076166" lon="7.854318022727966">
        <ele>1175.3499999999999</ele>
        <time>2025-05-19T09:41:43Z</time>
      </trkpt>
      <trkpt lat="43.991757966578007" lon="7.854275023564696">
        <ele>1172.95</ele>
        <time>2025-05-19T09:41:44Z</time>
      </trkpt>
      <trkpt lat="43.991689989343286" lon="7.85424099303782">
        <ele>1172.47</ele>
        <time>2025-05-19T09:41:45Z</time>
      </trkpt>
      <trkpt lat="43.991640033200383" lon="7.854216014966369">
        <ele>1171.98</ele>
        <time>2025-05-19T09:41:46Z</time>
      </trkpt>
      <trkpt lat="43.991640033200383" lon="7.854216014966369">
        <ele>1171.02</ele>
        <time>2025-05-19T09:41:48Z</time>
      </trkpt>
      <trkpt lat="43.991586975753307" lon="7.854126999154687">
        <ele>1170.0599999999999</ele>
        <time>2025-05-19T09:41:49Z</time>
      </trkpt>
      <trkpt lat="43.991554034873843" lon="7.854072013869882">
        <ele>1169.0999999999999</ele>
        <time>2025-05-19T09:41:50Z</time>
      </trkpt>
      <trkpt lat="43.991512963548303" lon="7.85400403663516">
        <ele>1168.1400000000001</ele>
        <time>2025-05-19T09:41:51Z</time>
      </trkpt>
      <trkpt lat="43.991511035710573" lon="7.854002024978399">
        <ele>1167.1800000000001</ele>
        <time>2025-05-19T09:41:52Z</time>
      </trkpt>
      <trkpt lat="43.991486979648471" lon="7.853898005560041">
        <ele>1166.7</ele>
        <time>2025-05-19T09:41:53Z</time>
      </trkpt>
      <trkpt lat="43.991460995748639" lon="7.853786023333669">
        <ele>1165.74</ele>
        <time>2025-05-19T09:41:54Z</time>
      </trkpt>
      <trkpt lat="43.991416990756989" lon="7.85361603833735">
        <ele>1164.77</ele>
        <time>2025-05-19T09:41:55Z</time>
      </trkpt>
      <trkpt lat="43.991275001317263" lon="7.853294005617499">
        <ele>1158.53</ele>
        <time>2025-05-19T09:41:59Z</time>
      </trkpt>
      <trkpt lat="43.99126997217536" lon="7.853222005069256">
        <ele>1157.0799999999999</ele>
        <time>2025-05-19T09:42:00Z</time>
      </trkpt>
      <trkpt lat="43.991255974397063" lon="7.853021007031202">
        <ele>1154.2</ele>
        <time>2025-05-19T09:42:02Z</time>
      </trkpt>
      <trkpt lat="43.991239964962006" lon="7.852796036750078">
        <ele>1150.8399999999999</ele>
        <time>2025-05-19T09:42:04Z</time>
      </trkpt>
      <trkpt lat="43.991172993555665" lon="7.852585986256599">
        <ele>1149.3900000000001</ele>
        <time>2025-05-19T09:42:05Z</time>
      </trkpt>
      <trkpt lat="43.991139968857169" lon="7.852525971829891">
        <ele>1147.95</ele>
        <time>2025-05-19T09:42:06Z</time>
      </trkpt>
      <trkpt lat="43.991113984957337" lon="7.852480039000511">
        <ele>1146.51</ele>
        <time>2025-05-19T09:42:07Z</time>
      </trkpt>
      <trkpt lat="43.991085989400744" lon="7.852428993210197">
        <ele>1144.5899999999999</ele>
        <time>2025-05-19T09:42:08Z</time>
      </trkpt>
      <trkpt lat="43.991051958873868" lon="7.852367972955108">
        <ele>1143.6300000000001</ele>
        <time>2025-05-19T09:42:09Z</time>
      </trkpt>
      <trkpt lat="43.991018012166023" lon="7.85230603069067">
        <ele>1142.1800000000001</ele>
        <time>2025-05-19T09:42:10Z</time>
      </trkpt>
      <trkpt lat="43.991018012166023" lon="7.85230603069067">
        <ele>1141.22</ele>
        <time>2025-05-19T09:42:11Z</time>
      </trkpt>
      <trkpt lat="43.991019017994404" lon="7.852302007377148">
        <ele>1141.22</ele>
        <time>2025-05-19T09:42:12Z</time>
      </trkpt>
      <trkpt lat="43.9910330157727" lon="7.852209974080324">
        <ele>1141.22</ele>
        <time>2025-05-19T09:42:13Z</time>
      </trkpt>
      <trkpt lat="43.991048019379377" lon="7.852122969925404">
        <ele>1141.22</ele>
        <time>2025-05-19T09:42:14Z</time>
      </trkpt>
      <trkpt lat="43.991064028814435" lon="7.852024985477328">
        <ele>1141.22</ele>
        <time>2025-05-19T09:42:15Z</time>
      </trkpt>
      <trkpt lat="43.99109797552228" lon="7.851810995489359">
        <ele>1141.22</ele>
        <time>2025-05-19T09:42:17Z</time>
      </trkpt>
      <trkpt lat="43.991113984957337" lon="7.851713011041284">
        <ele>1141.22</ele>
        <time>2025-05-19T09:42:18Z</time>
      </trkpt>
      <trkpt lat="43.991126976907253" lon="7.851632963865995">
        <ele>1141.22</ele>
        <time>2025-05-19T09:42:19Z</time>
      </trkpt>
      <trkpt lat="43.991066962480545" lon="7.851473037153482">
        <ele>1140.74</ele>
        <time>2025-05-19T09:42:20Z</time>
      </trkpt>
      <trkpt lat="43.991048019379377" lon="7.851462978869677">
        <ele>1141.22</ele>
        <time>2025-05-19T09:42:21Z</time>
      </trkpt>
      <trkpt lat="43.991029998287559" lon="7.851454010233283">
        <ele>1142.1800000000001</ele>
        <time>2025-05-19T09:42:22Z</time>
      </trkpt>
      <trkpt lat="43.991000996902585" lon="7.851440012454987">
        <ele>1142.6600000000001</ele>
        <time>2025-05-19T09:42:23Z</time>
      </trkpt>
      <trkpt lat="43.990959003567696" lon="7.851418973878026">
        <ele>1143.1400000000001</ele>
        <time>2025-05-19T09:42:24Z</time>
      </trkpt>
      <trkpt lat="43.990908963605762" lon="7.851393995806575">
        <ele>1143.1400000000001</ele>
        <time>2025-05-19T09:42:25Z</time>
      </trkpt>
      <trkpt lat="43.990856995806098" lon="7.851368011906743">
        <ele>1143.1400000000001</ele>
        <time>2025-05-19T09:42:26Z</time>
      </trkpt>
      <trkpt lat="43.990803016349673" lon="7.851341022178531">
        <ele>1143.1400000000001</ele>
        <time>2025-05-19T09:42:27Z</time>
      </trkpt>
      <trkpt lat="43.990706959739327" lon="7.851244965568185">
        <ele>1143.1400000000001</ele>
        <time>2025-05-19T09:42:29Z</time>
      </trkpt>
      <trkpt lat="43.990676030516624" lon="7.851213030517101">
        <ele>1143.1400000000001</ele>
        <time>2025-05-19T09:42:30Z</time>
      </trkpt>
      <trkpt lat="43.990648034960032" lon="7.851186040788889">
        <ele>1142.6600000000001</ele>
        <time>2025-05-19T09:42:31Z</time>
      </trkpt>
      <trkpt lat="43.990616016089916" lon="7.851154021918774">
        <ele>1142.6600000000001</ele>
        <time>2025-05-19T09:42:32Z</time>
      </trkpt>
      <trkpt lat="43.990569999441504" lon="7.851106999441981">
        <ele>1142.1800000000001</ele>
        <time>2025-05-19T09:42:33Z</time>
      </trkpt>
      <trkpt lat="43.990503028035164" lon="7.851040028035641">
        <ele>1141.7</ele>
        <time>2025-05-19T09:42:34Z</time>
      </trkpt>
      <trkpt lat="43.990509985014796" lon="7.850859984755516">
        <ele>1141.22</ele>
        <time>2025-05-19T09:42:35Z</time>
      </trkpt>
      <trkpt lat="43.990575028583407" lon="7.850788990035653">
        <ele>1140.74</ele>
        <time>2025-05-19T09:42:36Z</time>
      </trkpt>
      <trkpt lat="43.990659015253186" lon="7.85069796256721">
        <ele>1140.26</ele>
        <time>2025-05-19T09:42:37Z</time>
      </trkpt>
      <trkpt lat="43.99075398221612" lon="7.850594026967883">
        <ele>1140.26</ele>
        <time>2025-05-19T09:42:38Z</time>
      </trkpt>
      <trkpt lat="43.990975013002753" lon="7.85035396926105">
        <ele>1139.3</ele>
        <time>2025-05-19T09:42:41Z</time>
      </trkpt>
      <trkpt lat="43.991040978580713" lon="7.850155988708139">
        <ele>1138.8199999999999</ele>
        <time>2025-05-19T09:42:42Z</time>
      </trkpt>
      <trkpt lat="43.991081966087222" lon="7.850033026188612">
        <ele>1138.3399999999999</ele>
        <time>2025-05-19T09:42:43Z</time>
      </trkpt>
      <trkpt lat="43.991122031584382" lon="7.849912997335196">
        <ele>1137.3800000000001</ele>
        <time>2025-05-19T09:42:44Z</time>
      </trkpt>
      <trkpt lat="43.991156984120607" lon="7.849808977916837">
        <ele>1136.9000000000001</ele>
        <time>2025-05-19T09:42:45Z</time>
      </trkpt>
      <trkpt lat="43.991185985505581" lon="7.849721973761916">
        <ele>1135.9400000000001</ele>
        <time>2025-05-19T09:42:46Z</time>
      </trkpt>
      <trkpt lat="43.991210963577032" lon="7.849644022062421">
        <ele>1134.97</ele>
        <time>2025-05-19T09:42:47Z</time>
      </trkpt>
      <trkpt lat="43.991229990497231" lon="7.849589036777616">
        <ele>1134.49</ele>
        <time>2025-05-19T09:42:48Z</time>
      </trkpt>
      <trkpt lat="43.991277012974024" lon="7.849566992372274">
        <ele>1134.49</ele>
        <time>2025-05-19T09:42:49Z</time>
      </trkpt>
      <trkpt lat="43.991296961903572" lon="7.849560035392642">
        <ele>1133.53</ele>
        <time>2025-05-19T09:42:50Z</time>
      </trkpt>
      <trkpt lat="43.991323029622436" lon="7.849606974050403">
        <ele>1134.01</ele>
        <time>2025-05-19T09:42:51Z</time>
      </trkpt>
      <trkpt lat="43.991358987987041" lon="7.849673023447394">
        <ele>1134.01</ele>
        <time>2025-05-19T09:42:52Z</time>
      </trkpt>
      <trkpt lat="43.991405004635453" lon="7.849757010117173">
        <ele>1133.53</ele>
        <time>2025-05-19T09:42:53Z</time>
      </trkpt>
      <trkpt lat="43.991453032940626" lon="7.849845020100474">
        <ele>1133.05</ele>
        <time>2025-05-19T09:42:54Z</time>
      </trkpt>
      <trkpt lat="43.99150600656867" lon="7.849940992891789">
        <ele>1132.5699999999999</ele>
        <time>2025-05-19T09:42:55Z</time>
      </trkpt>
      <trkpt lat="43.991555040702224" lon="7.850031014531851">
        <ele>1132.0899999999999</ele>
        <time>2025-05-19T09:42:56Z</time>
      </trkpt>
      <trkpt lat="43.991598039865494" lon="7.850109972059727">
        <ele>1131.6099999999999</ele>
        <time>2025-05-19T09:42:57Z</time>
      </trkpt>
      <trkpt lat="43.991670962423086" lon="7.850230000913143">
        <ele>1130.6500000000001</ele>
        <time>2025-05-19T09:42:58Z</time>
      </trkpt>
      <trkpt lat="43.991738017648458" lon="7.85026696510613">
        <ele>1130.1700000000001</ele>
        <time>2025-05-19T09:42:59Z</time>
      </trkpt>
      <trkpt lat="43.991818986833096" lon="7.850311975926161">
        <ele>1129.21</ele>
        <time>2025-05-19T09:43:00Z</time>
      </trkpt>
      <trkpt lat="43.99191596545279" lon="7.850366039201617">
        <ele>1128.24</ele>
        <time>2025-05-19T09:43:01Z</time>
      </trkpt>
      <trkpt lat="43.992016967386007" lon="7.850423036143184">
        <ele>1126.8</ele>
        <time>2025-05-19T09:43:02Z</time>
      </trkpt>
      <trkpt lat="43.992113023996353" lon="7.850476009771228">
        <ele>1125.3599999999999</ele>
        <time>2025-05-19T09:43:03Z</time>
      </trkpt>
      <trkpt lat="43.992194999009371" lon="7.850521020591259">
        <ele>1123.9200000000001</ele>
        <time>2025-05-19T09:43:04Z</time>
      </trkpt>
      <trkpt lat="43.992274040356278" lon="7.850547004491091">
        <ele>1123.4400000000001</ele>
        <time>2025-05-19T09:43:05Z</time>
      </trkpt>
      <trkpt lat="43.992327013984323" lon="7.850547004491091">
        <ele>1122.48</ele>
        <time>2025-05-19T09:43:06Z</time>
      </trkpt>
      <trkpt lat="43.992351992055774" lon="7.850470980629325">
        <ele>1122</ele>
        <time>2025-05-19T09:43:07Z</time>
      </trkpt>
      <trkpt lat="43.992373030632734" lon="7.850409038364887">
        <ele>1121.03</ele>
        <time>2025-05-19T09:43:08Z</time>
      </trkpt>
      <trkpt lat="43.992401026189327" lon="7.850323962047696">
        <ele>1120.0699999999999</ele>
        <time>2025-05-19T09:43:09Z</time>
      </trkpt>
      <trkpt lat="43.992404965683818" lon="7.850235030055046">
        <ele>1119.5899999999999</ele>
        <time>2025-05-19T09:43:10Z</time>
      </trkpt>
      <trkpt lat="43.992389040067792" lon="7.850108966231346">
        <ele>1118.6300000000001</ele>
        <time>2025-05-19T09:43:11Z</time>
      </trkpt>
      <trkpt lat="43.992371018975973" lon="7.849977035075426">
        <ele>1117.6700000000001</ele>
        <time>2025-05-19T09:43:12Z</time>
      </trkpt>
      <trkpt lat="43.992352997884154" lon="7.849844014272094">
        <ele>1116.71</ele>
        <time>2025-05-19T09:43:13Z</time>
      </trkpt>
      <trkpt lat="43.992336988449097" lon="7.849722979590297">
        <ele>1115.75</ele>
        <time>2025-05-19T09:43:14Z</time>
      </trkpt>
      <trkpt lat="43.992327013984323" lon="7.849646033719182">
        <ele>1114.3099999999999</ele>
        <time>2025-05-19T09:43:15Z</time>
      </trkpt>
      <trkpt lat="43.992348974570632" lon="7.84951401874423">
        <ele>1112.8599999999999</ele>
        <time>2025-05-19T09:43:16Z</time>
      </trkpt>
      <trkpt lat="43.992360960692167" lon="7.849442018195987">
        <ele>1111.4200000000001</ele>
        <time>2025-05-19T09:43:17Z</time>
      </trkpt>
      <trkpt lat="43.992372024804354" lon="7.849376974627376">
        <ele>1109.98</ele>
        <time>2025-05-19T09:43:18Z</time>
      </trkpt>
      <trkpt lat="43.992390967905521" lon="7.849259041249752">
        <ele>1108.54</ele>
        <time>2025-05-19T09:43:19Z</time>
      </trkpt>
      <trkpt lat="43.992387028411031" lon="7.849209001287818">
        <ele>1106.6099999999999</ele>
        <time>2025-05-19T09:43:20Z</time>
      </trkpt>
      <trkpt lat="43.992380993440747" lon="7.849128032103181">
        <ele>1105.1700000000001</ele>
        <time>2025-05-19T09:43:21Z</time>
      </trkpt>
      <trkpt lat="43.992374036461115" lon="7.849042033776641">
        <ele>1103.73</ele>
        <time>2025-05-19T09:43:22Z</time>
      </trkpt>
      <trkpt lat="43.99236598983407" lon="7.848948994651437">
        <ele>1101.8099999999999</ele>
        <time>2025-05-19T09:43:23Z</time>
      </trkpt>
      <trkpt lat="43.992350986227393" lon="7.84876300022006">
        <ele>1098.4400000000001</ele>
        <time>2025-05-19T09:43:25Z</time>
      </trkpt>
      <trkpt lat="43.992347968742251" lon="7.848723018541932">
        <ele>1096.52</ele>
        <time>2025-05-19T09:43:26Z</time>
      </trkpt>
      <trkpt lat="43.992347968742251" lon="7.848723018541932">
        <ele>1094.5999999999999</ele>
        <time>2025-05-19T09:43:27Z</time>
      </trkpt>
      <trkpt lat="43.992347968742251" lon="7.848723018541932">
        <ele>1093.1600000000001</ele>
        <time>2025-05-19T09:43:28Z</time>
      </trkpt>
      <trkpt lat="43.99236598983407" lon="7.848678007721901">
        <ele>1091.71</ele>
        <time>2025-05-19T09:43:29Z</time>
      </trkpt>
      <trkpt lat="43.992390967905521" lon="7.848615981638432">
        <ele>1089.79</ele>
        <time>2025-05-19T09:43:30Z</time>
      </trkpt>
      <trkpt lat="43.992415023967624" lon="7.848618999123573">
        <ele>1088.3499999999999</ele>
        <time>2025-05-19T09:43:31Z</time>
      </trkpt>
      <trkpt lat="43.993094963952899" lon="7.848950000479817">
        <ele>1078.74</ele>
        <time>2025-05-19T09:43:38Z</time>
      </trkpt>
      <trkpt lat="43.993295039981604" lon="7.849067011848092">
        <ele>1076.3299999999999</ele>
        <time>2025-05-19T09:43:40Z</time>
      </trkpt>
      <trkpt lat="43.993497965857387" lon="7.849186034873128">
        <ele>1074.8900000000001</ele>
        <time>2025-05-19T09:43:42Z</time>
      </trkpt>
      <trkpt lat="43.99365303106606" lon="7.84934202209115">
        <ele>1072.97</ele>
        <time>2025-05-19T09:43:44Z</time>
      </trkpt>
      <trkpt lat="43.993850005790591" lon="7.849581995978952">
        <ele>1070.0799999999999</ele>
        <time>2025-05-19T09:43:47Z</time>
      </trkpt>
      <trkpt lat="43.993893004953861" lon="7.849633963778615">
        <ele>1069.5999999999999</ele>
        <time>2025-05-19T09:43:48Z</time>
      </trkpt>
      <trkpt lat="43.994146976619959" lon="7.849868992343545">
        <ele>1065.76</ele>
        <time>2025-05-19T09:43:52Z</time>
      </trkpt>
      <trkpt lat="43.994221994653344" lon="7.849906962364912">
        <ele>1064.3199999999999</ele>
        <time>2025-05-19T09:43:53Z</time>
      </trkpt>
      <trkpt lat="43.994291983544827" lon="7.849941998720169">
        <ele>1063.8399999999999</ele>
        <time>2025-05-19T09:43:54Z</time>
      </trkpt>
      <trkpt lat="43.994364989921451" lon="7.849978040903807">
        <ele>1063.3599999999999</ele>
        <time>2025-05-19T09:43:55Z</time>
      </trkpt>
      <trkpt lat="43.994422992691398" lon="7.850020034238696">
        <ele>1062.8699999999999</ele>
        <time>2025-05-19T09:43:56Z</time>
      </trkpt>
      <trkpt lat="43.994536986574531" lon="7.850118018686771">
        <ele>1062.3900000000001</ele>
        <time>2025-05-19T09:43:57Z</time>
      </trkpt>
      <trkpt lat="43.994571017101407" lon="7.850176021456718">
        <ele>1061.9100000000001</ele>
        <time>2025-05-19T09:43:58Z</time>
      </trkpt>
      <trkpt lat="43.994646035134792" lon="7.850303007289767">
        <ele>1061.4300000000001</ele>
        <time>2025-05-19T09:43:59Z</time>
      </trkpt>
      <trkpt lat="43.994795987382531" lon="7.850558990612626">
        <ele>1059.99</ele>
        <time>2025-05-19T09:44:01Z</time>
      </trkpt>
      <trkpt lat="43.994934037327766" lon="7.850793013349176">
        <ele>1059.03</ele>
        <time>2025-05-19T09:44:03Z</time>
      </trkpt>
      <trkpt lat="43.995036967098713" lon="7.850875994190574">
        <ele>1058.0699999999999</ele>
        <time>2025-05-19T09:44:04Z</time>
      </trkpt>
      <trkpt lat="43.995073009282351" lon="7.85088999196887">
        <ele>1057.1099999999999</ele>
        <time>2025-05-19T09:44:05Z</time>
      </trkpt>
      <trkpt lat="43.995177028700709" lon="7.850827965885401">
        <ele>1056.6300000000001</ele>
        <time>2025-05-19T09:44:06Z</time>
      </trkpt>
      <trkpt lat="43.995219022035599" lon="7.85080298781395">
        <ele>1056.1500000000001</ele>
        <time>2025-05-19T09:44:07Z</time>
      </trkpt>
      <trkpt lat="43.995288005098701" lon="7.850762000307441">
        <ele>1056.6300000000001</ele>
        <time>2025-05-19T09:44:08Z</time>
      </trkpt>
      <trkpt lat="43.995288005098701" lon="7.850762000307441">
        <ele>1055.6700000000001</ele>
        <time>2025-05-19T09:44:09Z</time>
      </trkpt>
      <trkpt lat="43.995363023132086" lon="7.850656975060701">
        <ele>1055.1800000000001</ele>
        <time>2025-05-19T09:44:10Z</time>
      </trkpt>
      <trkpt lat="43.995417002588511" lon="7.850582040846348">
        <ele>1054.22</ele>
        <time>2025-05-19T09:44:11Z</time>
      </trkpt>
      <trkpt lat="43.995469976216555" lon="7.850508028641343">
        <ele>1053.26</ele>
        <time>2025-05-19T09:44:12Z</time>
      </trkpt>
      <trkpt lat="43.995641972869635" lon="7.85026797093451">
        <ele>1050.3800000000001</ele>
        <time>2025-05-19T09:44:15Z</time>
      </trkpt>
      <trkpt lat="43.995822016149759" lon="7.849935041740537">
        <ele>1046.53</ele>
        <time>2025-05-19T09:44:18Z</time>
      </trkpt>
      <trkpt lat="43.995855040848255" lon="7.849820964038372">
        <ele>1045.5699999999999</ele>
        <time>2025-05-19T09:44:19Z</time>
      </trkpt>
      <trkpt lat="43.995885970070958" lon="7.849714010953903">
        <ele>1044.6099999999999</ele>
        <time>2025-05-19T09:44:20Z</time>
      </trkpt>
      <trkpt lat="43.995912037789822" lon="7.849624995142222">
        <ele>1043.1700000000001</ele>
        <time>2025-05-19T09:44:21Z</time>
      </trkpt>
      <trkpt lat="43.995938021689653" lon="7.84953698515892">
        <ele>1042.21</ele>
        <time>2025-05-19T09:44:22Z</time>
      </trkpt>
      <trkpt lat="43.99595201946795" lon="7.849486023187637">
        <ele>1040.76</ele>
        <time>2025-05-19T09:44:23Z</time>
      </trkpt>
      <trkpt lat="43.99597498588264" lon="7.849409999325872">
        <ele>1037.8800000000001</ele>
        <time>2025-05-19T09:44:25Z</time>
      </trkpt>
      <trkpt lat="43.996080011129379" lon="7.849357025697827">
        <ele>1033.0699999999999</ele>
        <time>2025-05-19T09:44:29Z</time>
      </trkpt>
      <trkpt lat="43.996155029162765" lon="7.849319977685809">
        <ele>1031.6300000000001</ele>
        <time>2025-05-19T09:44:30Z</time>
      </trkpt>
      <trkpt lat="43.996239015832543" lon="7.84927798435092">
        <ele>1030.1900000000001</ele>
        <time>2025-05-19T09:44:31Z</time>
      </trkpt>
      <trkpt lat="43.996310010552406" lon="7.849242025986314">
        <ele>1028.75</ele>
        <time>2025-05-19T09:44:32Z</time>
      </trkpt>
      <trkpt lat="43.996369019150734" lon="7.84921302460134">
        <ele>1027.79</ele>
        <time>2025-05-19T09:44:33Z</time>
      </trkpt>
      <trkpt lat="43.996430039405823" lon="7.849182011559606">
        <ele>1026.3399999999999</ele>
        <time>2025-05-19T09:44:34Z</time>
      </trkpt>
      <trkpt lat="43.996574962511659" lon="7.849109005182982">
        <ele>1025.3800000000001</ele>
        <time>2025-05-19T09:44:35Z</time>
      </trkpt>
      <trkpt lat="43.996574962511659" lon="7.849109005182982">
        <ele>1024.4200000000001</ele>
        <time>2025-05-19T09:44:36Z</time>
      </trkpt>
      <trkpt lat="43.996617961674929" lon="7.849114034324884">
        <ele>1023.46</ele>
        <time>2025-05-19T09:44:37Z</time>
      </trkpt>
      <trkpt lat="43.996674036607146" lon="7.849120991304517">
        <ele>1022.02</ele>
        <time>2025-05-19T09:44:38Z</time>
      </trkpt>
      <trkpt lat="43.996729021891952" lon="7.849128032103181">
        <ele>1020.58</ele>
        <time>2025-05-19T09:44:39Z</time>
      </trkpt>
      <trkpt lat="43.996785013005137" lon="7.849134989082813">
        <ele>1019.62</ele>
        <time>2025-05-19T09:44:40Z</time>
      </trkpt>
      <trkpt lat="43.996847039088607" lon="7.849143035709858">
        <ele>1018.65</ele>
        <time>2025-05-19T09:44:41Z</time>
      </trkpt>
      <trkpt lat="43.99709003046155" lon="7.849173964932561">
        <ele>1016.25</ele>
        <time>2025-05-19T09:44:43Z</time>
      </trkpt>
      <trkpt lat="43.99711400270462" lon="7.849153010174632">
        <ele>1015.29</ele>
        <time>2025-05-19T09:44:44Z</time>
      </trkpt>
      <trkpt lat="43.997187009081244" lon="7.849088972434402">
        <ele>1014.33</ele>
        <time>2025-05-19T09:44:45Z</time>
      </trkpt>
      <trkpt lat="43.997323969379067" lon="7.848970033228397">
        <ele>1012.41</ele>
        <time>2025-05-19T09:44:47Z</time>
      </trkpt>
      <trkpt lat="43.99747802875936" lon="7.848836006596685">
        <ele>1009.52</ele>
        <time>2025-05-19T09:44:50Z</time>
      </trkpt>
      <trkpt lat="43.997654970735312" lon="7.848635008558631">
        <ele>1006.64</ele>
        <time>2025-05-19T09:44:53Z</time>
      </trkpt>
      <trkpt lat="43.997722025960684" lon="7.848529983311892">
        <ele>1005.6799999999999</ele>
        <time>2025-05-19T09:44:55Z</time>
      </trkpt>
      <trkpt lat="43.997820010408759" lon="7.848380031064153">
        <ele>1006.64</ele>
        <time>2025-05-19T09:44:56Z</time>
      </trkpt>
      <trkpt lat="43.997820010408759" lon="7.848380031064153">
        <ele>1006.64</ele>
        <time>2025-05-19T09:44:57Z</time>
      </trkpt>
      <trkpt lat="43.997854040935636" lon="7.84837500192225">
        <ele>1006.16</ele>
        <time>2025-05-19T09:44:58Z</time>
      </trkpt>
      <trkpt lat="43.997983038425446" lon="7.848382964730263">
        <ele>1005.6799999999999</ele>
        <time>2025-05-19T09:44:59Z</time>
      </trkpt>
      <trkpt lat="43.998013967648149" lon="7.848486984148622">
        <ele>1005.6799999999999</ele>
        <time>2025-05-19T09:45:00Z</time>
      </trkpt>
      <trkpt lat="43.99801597930491" lon="7.848544986918569">
        <ele>1005.6799999999999</ele>
        <time>2025-05-19T09:45:01Z</time>
      </trkpt>
      <trkpt lat="43.998018996790051" lon="7.848615981638432">
        <ele>1005.6799999999999</ele>
        <time>2025-05-19T09:45:02Z</time>
      </trkpt>
      <trkpt lat="43.998030982911587" lon="7.848991993814707">
        <ele>1005.6799999999999</ele>
        <time>2025-05-19T09:45:06Z</time>
      </trkpt>
      <trkpt lat="43.998041041195393" lon="7.849118979647756">
        <ele>1006.16</ele>
        <time>2025-05-19T09:45:07Z</time>
      </trkpt>
      <trkpt lat="43.998090997338295" lon="7.84919299185276">
        <ele>1006.16</ele>
        <time>2025-05-19T09:45:08Z</time>
      </trkpt>
      <trkpt lat="43.998119998723269" lon="7.849238002672792">
        <ele>1005.6799999999999</ele>
        <time>2025-05-19T09:45:09Z</time>
      </trkpt>
      <trkpt lat="43.99822804145515" lon="7.849281001836062">
        <ele>1004.72</ele>
        <time>2025-05-19T09:45:10Z</time>
      </trkpt>
      <trkpt lat="43.99822804145515" lon="7.849281001836062">
        <ele>1002.79</ele>
        <time>2025-05-19T09:45:11Z</time>
      </trkpt>
      <trkpt lat="43.998313033953309" lon="7.849238002672792">
        <ele>1000.87</ele>
        <time>2025-05-19T09:45:12Z</time>
      </trkpt>
      <trkpt lat="43.998320996761322" lon="7.849218975752592">
        <ele>999.42999999999995</ele>
        <time>2025-05-19T09:45:13Z</time>
      </trkpt>
      <trkpt lat="43.998347986489534" lon="7.849150998517871">
        <ele>997.50999999999999</ele>
        <time>2025-05-19T09:45:14Z</time>
      </trkpt>
      <trkpt lat="43.998399032279849" lon="7.849023006856442">
        <ele>996.05999999999995</ele>
        <time>2025-05-19T09:45:15Z</time>
      </trkpt>
      <trkpt lat="43.998399032279849" lon="7.849023006856442">
        <ele>995.10000000000002</ele>
        <time>2025-05-19T09:45:16Z</time>
      </trkpt>
      <trkpt lat="43.998417975381017" lon="7.848773980513215">
        <ele>989.80999999999995</ele>
        <time>2025-05-19T09:45:19Z</time>
      </trkpt>
      <trkpt lat="43.998425016179681" lon="7.848680019378662">
        <ele>987.88999999999999</ele>
        <time>2025-05-19T09:45:20Z</time>
      </trkpt>
      <trkpt lat="43.998440019786358" lon="7.848479021340609">
        <ele>984.04999999999995</ele>
        <time>2025-05-19T09:45:22Z</time>
      </trkpt>
      <trkpt lat="43.99844697676599" lon="7.848384976387024">
        <ele>982.12</ele>
        <time>2025-05-19T09:45:23Z</time>
      </trkpt>
      <trkpt lat="43.998454017564654" lon="7.848292021080852">
        <ele>980.67999999999995</ele>
        <time>2025-05-19T09:45:24Z</time>
      </trkpt>
      <trkpt lat="43.998493999242783" lon="7.848135028034449">
        <ele>974.42999999999995</ele>
        <time>2025-05-19T09:45:27Z</time>
      </trkpt>
      <trkpt lat="43.998512020334601" lon="7.84811700694263">
        <ele>972.99000000000001</ele>
        <time>2025-05-19T09:45:28Z</time>
      </trkpt>
      <trkpt lat="43.99876800365746" lon="7.84880599938333">
        <ele>965.77999999999997</ele>
        <time>2025-05-19T09:45:34Z</time>
      </trkpt>
      <trkpt lat="43.998865988105536" lon="7.849297011271119">
        <ele>960.98000000000002</ele>
        <time>2025-05-19T09:45:38Z</time>
      </trkpt>
      <trkpt lat="43.998910998925567" lon="7.849477976560593">
        <ele>958.57000000000005</ele>
        <time>2025-05-19T09:45:40Z</time>
      </trkpt>
      <trkpt lat="43.998935976997018" lon="7.849544025957584">
        <ele>958.57000000000005</ele>
        <time>2025-05-19T09:45:41Z</time>
      </trkpt>
      <trkpt lat="43.99896003305912" lon="7.849606974050403">
        <ele>957.61000000000001</ele>
        <time>2025-05-19T09:45:42Z</time>
      </trkpt>
      <trkpt lat="43.999000014737248" lon="7.849709987640381">
        <ele>956.64999999999998</ele>
        <time>2025-05-19T09:45:43Z</time>
      </trkpt>
      <trkpt lat="43.999000014737248" lon="7.849709987640381">
        <ele>957.61000000000001</ele>
        <time>2025-05-19T09:45:44Z</time>
      </trkpt>
      <trkpt lat="43.999021975323558" lon="7.849580990150571">
        <ele>957.61000000000001</ele>
        <time>2025-05-19T09:45:45Z</time>
      </trkpt>
      <trkpt lat="43.999016024172306" lon="7.849545031785965">
        <ele>957.13</ele>
        <time>2025-05-19T09:45:46Z</time>
      </trkpt>
      <trkpt lat="43.999000014737248" lon="7.849452998489142">
        <ele>956.64999999999998</ele>
        <time>2025-05-19T09:45:47Z</time>
      </trkpt>
      <trkpt lat="43.998977970331907" lon="7.849402958527207">
        <ele>956.16999999999996</ele>
        <time>2025-05-19T09:45:48Z</time>
      </trkpt>
      <trkpt lat="43.998935976997018" lon="7.849307991564274">
        <ele>955.69000000000005</ele>
        <time>2025-05-19T09:45:49Z</time>
      </trkpt>
      <trkpt lat="43.998914016410708" lon="7.849259041249752">
        <ele>955.21000000000004</ele>
        <time>2025-05-19T09:45:50Z</time>
      </trkpt>
      <trkpt lat="43.998849978670478" lon="7.848958969116211">
        <ele>952.79999999999995</ele>
        <time>2025-05-19T09:45:53Z</time>
      </trkpt>
      <trkpt lat="43.998856013640761" lon="7.848769035190344">
        <ele>951.84000000000003</ele>
        <time>2025-05-19T09:45:54Z</time>
      </trkpt>
      <trkpt lat="43.998866993933916" lon="7.848434010520577">
        <ele>948.96000000000004</ele>
        <time>2025-05-19T09:45:57Z</time>
      </trkpt>
      <trkpt lat="43.998870011419058" lon="7.848337031900883">
        <ele>947.51999999999998</ele>
        <time>2025-05-19T09:45:58Z</time>
      </trkpt>
      <trkpt lat="43.998871017247438" lon="7.848294032737613">
        <ele>947.03999999999996</ele>
        <time>2025-05-19T09:45:59Z</time>
      </trkpt>
      <trkpt lat="43.998908987268806" lon="7.848218008875847">
        <ele>947.03999999999996</ele>
        <time>2025-05-19T09:46:00Z</time>
      </trkpt>
      <trkpt lat="43.998957015573978" lon="7.848122036084533">
        <ele>947.03999999999996</ele>
        <time>2025-05-19T09:46:01Z</time>
      </trkpt>
      <trkpt lat="43.998998003080487" lon="7.848080964758992">
        <ele>947.03999999999996</ele>
        <time>2025-05-19T09:46:02Z</time>
      </trkpt>
      <trkpt lat="43.99904795922339" lon="7.84803100861609">
        <ele>947.03999999999996</ele>
        <time>2025-05-19T09:46:03Z</time>
      </trkpt>
      <trkpt lat="43.999086013063788" lon="7.847993960604072">
        <ele>947.51999999999998</ele>
        <time>2025-05-19T09:46:04Z</time>
      </trkpt>
      <trkpt lat="43.999136975035071" lon="7.847912991419435">
        <ele>947.51999999999998</ele>
        <time>2025-05-19T09:46:05Z</time>
      </trkpt>
      <trkpt lat="43.999148039147258" lon="7.84786001779139">
        <ele>947.51999999999998</ele>
        <time>2025-05-19T09:46:06Z</time>
      </trkpt>
      <trkpt lat="43.999162036925554" lon="7.847798997536302">
        <ele>947.51999999999998</ele>
        <time>2025-05-19T09:46:07Z</time>
      </trkpt>
      <trkpt lat="43.999212998896837" lon="7.847563968971372">
        <ele>948.48000000000002</ele>
        <time>2025-05-19T09:46:10Z</time>
      </trkpt>
      <trkpt lat="43.9992839936167" lon="7.847355008125305">
        <ele>948.96000000000004</ele>
        <time>2025-05-19T09:46:12Z</time>
      </trkpt>
      <trkpt lat="43.99954198859632" lon="7.846750002354384">
        <ele>951.36000000000001</ele>
        <time>2025-05-19T09:46:17Z</time>
      </trkpt>
      <trkpt lat="43.999554980546236" lon="7.846609018743038">
        <ele>951.84000000000003</ele>
        <time>2025-05-19T09:46:18Z</time>
      </trkpt>
      <trkpt lat="43.999579036608338" lon="7.846340965479612">
        <ele>952.32000000000005</ele>
        <time>2025-05-19T09:46:20Z</time>
      </trkpt>
      <trkpt lat="43.999542994424701" lon="7.846213979646564">
        <ele>952.79999999999995</ele>
        <time>2025-05-19T09:46:21Z</time>
      </trkpt>
      <trkpt lat="43.999508963897824" lon="7.846095962449908">
        <ele>952.79999999999995</ele>
        <time>2025-05-19T09:46:22Z</time>
      </trkpt>
      <trkpt lat="43.999466970562935" lon="7.845986997708678">
        <ele>953.27999999999997</ele>
        <time>2025-05-19T09:46:23Z</time>
      </trkpt>
      <trkpt lat="43.999407961964607" lon="7.845869986340404">
        <ele>953.76999999999998</ele>
        <time>2025-05-19T09:46:24Z</time>
      </trkpt>
      <trkpt lat="43.99934601970017" lon="7.845745012164116">
        <ele>954.25</ele>
        <time>2025-05-19T09:46:25Z</time>
      </trkpt>
      <trkpt lat="43.999290028586984" lon="7.845634035766125">
        <ele>954.25</ele>
        <time>2025-05-19T09:46:26Z</time>
      </trkpt>
      <trkpt lat="43.999208975583315" lon="7.845421973615885">
        <ele>953.76999999999998</ele>
        <time>2025-05-19T09:46:28Z</time>
      </trkpt>
      <trkpt lat="43.999172011390328" lon="7.845309991389513">
        <ele>953.27999999999997</ele>
        <time>2025-05-19T09:46:29Z</time>
      </trkpt>
      <trkpt lat="43.999172011390328" lon="7.845186023041606">
        <ele>952.79999999999995</ele>
        <time>2025-05-19T09:46:30Z</time>
      </trkpt>
      <trkpt lat="43.999190032482147" lon="7.844915958121419">
        <ele>951.84000000000003</ele>
        <time>2025-05-19T09:46:32Z</time>
      </trkpt>
      <trkpt lat="43.999206963926554" lon="7.844767011702061">
        <ele>951.36000000000001</ele>
        <time>2025-05-19T09:46:33Z</time>
      </trkpt>
      <trkpt lat="43.99924099445343" lon="7.844463000074029">
        <ele>949.91999999999996</ele>
        <time>2025-05-19T09:46:35Z</time>
      </trkpt>
      <trkpt lat="43.999288016930223" lon="7.844048012048006">
        <ele>949.91999999999996</ele>
        <time>2025-05-19T09:46:38Z</time>
      </trkpt>
      <trkpt lat="43.999298997223377" lon="7.84394801594317">
        <ele>949.91999999999996</ele>
        <time>2025-05-19T09:46:39Z</time>
      </trkpt>
      <trkpt lat="43.999264966696501" lon="7.843880038708448">
        <ele>950.39999999999998</ele>
        <time>2025-05-19T09:46:40Z</time>
      </trkpt>
      <trkpt lat="43.999235965311527" lon="7.843831004574895">
        <ele>950.88</ele>
        <time>2025-05-19T09:46:41Z</time>
      </trkpt>
      <trkpt lat="43.999179974198341" lon="7.843771995976567">
        <ele>951.36000000000001</ele>
        <time>2025-05-19T09:46:42Z</time>
      </trkpt>
      <trkpt lat="43.99913102388382" lon="7.843720028176904">
        <ele>951.84000000000003</ele>
        <time>2025-05-19T09:46:43Z</time>
      </trkpt>
      <trkpt lat="43.999087018892169" lon="7.843673005700111">
        <ele>951.84000000000003</ele>
        <time>2025-05-19T09:46:44Z</time>
      </trkpt>
      <trkpt lat="43.999038990586996" lon="7.843621959909797">
        <ele>951.84000000000003</ele>
        <time>2025-05-19T09:46:45Z</time>
      </trkpt>
      <trkpt lat="43.998942011967301" lon="7.843520035967231">
        <ele>951.84000000000003</ele>
        <time>2025-05-19T09:46:47Z</time>
      </trkpt>
      <trkpt lat="43.998871017247438" lon="7.843444012105465">
        <ele>951.84000000000003</ele>
        <time>2025-05-19T09:46:48Z</time>
      </trkpt>
      <trkpt lat="43.998862970620394" lon="7.843418028205633">
        <ele>951.84000000000003</ele>
        <time>2025-05-19T09:46:49Z</time>
      </trkpt>
      <trkpt lat="43.998841010034084" lon="7.843344016000629">
        <ele>951.36000000000001</ele>
        <time>2025-05-19T09:46:50Z</time>
      </trkpt>
      <trkpt lat="43.998806979507208" lon="7.843230022117496">
        <ele>951.36000000000001</ele>
        <time>2025-05-19T09:46:51Z</time>
      </trkpt>
      <trkpt lat="43.99883002974093" lon="7.843161039054394">
        <ele>950.88</ele>
        <time>2025-05-19T09:46:52Z</time>
      </trkpt>
      <trkpt lat="43.998861964792013" lon="7.843093983829022">
        <ele>950.88</ele>
        <time>2025-05-19T09:46:53Z</time>
      </trkpt>
      <trkpt lat="43.998905969783664" lon="7.843066994100809">
        <ele>950.39999999999998</ele>
        <time>2025-05-19T09:46:54Z</time>
      </trkpt>
      <trkpt lat="43.998957015573978" lon="7.843036986887455">
        <ele>950.39999999999998</ele>
        <time>2025-05-19T09:46:55Z</time>
      </trkpt>
      <trkpt lat="43.99900496006012" lon="7.843032963573933">
        <ele>950.39999999999998</ele>
        <time>2025-05-19T09:46:56Z</time>
      </trkpt>
      <trkpt lat="43.999062962830067" lon="7.843028018251061">
        <ele>950.39999999999998</ele>
        <time>2025-05-19T09:46:57Z</time>
      </trkpt>
      <trkpt lat="43.999129012227058" lon="7.843021983280778">
        <ele>950.39999999999998</ele>
        <time>2025-05-19T09:46:58Z</time>
      </trkpt>
      <trkpt lat="43.999345013871789" lon="7.84300304017961">
        <ele>951.84000000000003</ele>
        <time>2025-05-19T09:47:01Z</time>
      </trkpt>
      <trkpt lat="43.999453978613019" lon="7.842989964410663">
        <ele>952.32000000000005</ele>
        <time>2025-05-19T09:47:02Z</time>
      </trkpt>
      <trkpt lat="43.999514998868108" lon="7.842925004661083">
        <ele>953.27999999999997</ele>
        <time>2025-05-19T09:47:03Z</time>
      </trkpt>
      <trkpt lat="43.999579036608338" lon="7.842857027426362">
        <ele>953.76999999999998</ele>
        <time>2025-05-19T09:47:04Z</time>
      </trkpt>
      <trkpt lat="43.999643996357918" lon="7.842787960544229">
        <ele>955.21000000000004</ele>
        <time>2025-05-19T09:47:05Z</time>
      </trkpt>
      <trkpt lat="43.999772993847728" lon="7.842649994418025">
        <ele>955.21000000000004</ele>
        <time>2025-05-19T09:47:07Z</time>
      </trkpt>
      <trkpt lat="43.999824039638042" lon="7.842557961121202">
        <ele>955.21000000000004</ele>
        <time>2025-05-19T09:47:08Z</time>
      </trkpt>
      <trkpt lat="43.999880030751228" lon="7.842415971681476">
        <ele>955.69000000000005</ele>
        <time>2025-05-19T09:47:09Z</time>
      </trkpt>
      <trkpt lat="43.999880030751228" lon="7.842300971969962">
        <ele>955.69000000000005</ele>
        <time>2025-05-19T09:47:10Z</time>
      </trkpt>
      <trkpt lat="43.99986200965941" lon="7.842139033600688">
        <ele>955.69000000000005</ele>
        <time>2025-05-19T09:47:11Z</time>
      </trkpt>
      <trkpt lat="43.999804006889462" lon="7.842013975605369">
        <ele>955.69000000000005</ele>
        <time>2025-05-19T09:47:12Z</time>
      </trkpt>
      <trkpt lat="43.999750027433038" lon="7.841896964237094">
        <ele>955.21000000000004</ele>
        <time>2025-05-19T09:47:13Z</time>
      </trkpt>
      <trkpt lat="43.999707028269768" lon="7.841804008930922">
        <ele>954.73000000000002</ele>
        <time>2025-05-19T09:47:14Z</time>
      </trkpt>
      <trkpt lat="43.999667968600988" lon="7.841720022261143">
        <ele>954.25</ele>
        <time>2025-05-19T09:47:15Z</time>
      </trkpt>
      <trkpt lat="43.999635027721524" lon="7.841647015884519">
        <ele>954.25</ele>
        <time>2025-05-19T09:47:16Z</time>
      </trkpt>
      <trkpt lat="43.999622035771608" lon="7.841621031984687">
        <ele>953.76999999999998</ele>
        <time>2025-05-19T09:47:17Z</time>
      </trkpt>
      <trkpt lat="43.999721026048064" lon="7.841463033109903">
        <ele>954.25</ele>
        <time>2025-05-19T09:47:24Z</time>
      </trkpt>
      <trkpt lat="43.999729994684458" lon="7.841449035331607">
        <ele>954.25</ele>
        <time>2025-05-19T09:47:25Z</time>
      </trkpt>
      <trkpt lat="43.999738963320851" lon="7.841448029503226">
        <ele>954.25</ele>
        <time>2025-05-19T09:47:26Z</time>
      </trkpt>
      <trkpt lat="43.999729994684458" lon="7.841449035331607">
        <ele>953.27999999999997</ele>
        <time>2025-05-19T09:47:27Z</time>
      </trkpt>
      <trkpt lat="43.999729994684458" lon="7.841449035331607">
        <ele>952.79999999999995</ele>
        <time>2025-05-19T09:47:28Z</time>
      </trkpt>
      <trkpt lat="43.999729994684458" lon="7.841449035331607">
        <ele>952.32000000000005</ele>
        <time>2025-05-19T09:47:29Z</time>
      </trkpt>
      <trkpt lat="43.999965023249388" lon="7.840265007689595">
        <ele>951.36000000000001</ele>
        <time>2025-05-19T09:47:34Z</time>
      </trkpt>
      <trkpt lat="43.999938033521175" lon="7.839627983048558">
        <ele>950.88</ele>
        <time>2025-05-19T09:47:38Z</time>
      </trkpt>
      <trkpt lat="43.999941973015666" lon="7.839208971709013">
        <ele>951.84000000000003</ele>
        <time>2025-05-19T09:47:43Z</time>
      </trkpt>
      <trkpt lat="44.000318991020322" lon="7.838891968131065">
        <ele>950.39999999999998</ele>
        <time>2025-05-19T09:47:47Z</time>
      </trkpt>
      <trkpt lat="44.000952998176217" lon="7.838616035878658">
        <ele>949.44000000000005</ele>
        <time>2025-05-19T09:47:51Z</time>
      </trkpt>
      <trkpt lat="44.001011000946164" lon="7.838504975661635">
        <ele>949.44000000000005</ele>
        <time>2025-05-19T09:47:52Z</time>
      </trkpt>
      <trkpt lat="44.001061040908098" lon="7.838409002870321">
        <ele>949.91999999999996</ele>
        <time>2025-05-19T09:47:53Z</time>
      </trkpt>
      <trkpt lat="44.001189032569528" lon="7.838166011497378">
        <ele>949.44000000000005</ele>
        <time>2025-05-19T09:47:54Z</time>
      </trkpt>
      <trkpt lat="44.001189032569528" lon="7.838166011497378">
        <ele>948.96000000000004</ele>
        <time>2025-05-19T09:47:55Z</time>
      </trkpt>
      <trkpt lat="44.001360023394227" lon="7.838015975430608">
        <ele>948.96000000000004</ele>
        <time>2025-05-19T09:47:56Z</time>
      </trkpt>
      <trkpt lat="44.001452978700399" lon="7.838002983480692">
        <ele>948.96000000000004</ele>
        <time>2025-05-19T09:47:57Z</time>
      </trkpt>
      <trkpt lat="44.001604020595551" lon="7.837983034551144">
        <ele>948.96000000000004</ele>
        <time>2025-05-19T09:47:58Z</time>
      </trkpt>
      <trkpt lat="44.001761013641953" lon="7.837960990145803">
        <ele>948.96000000000004</ele>
        <time>2025-05-19T09:47:59Z</time>
      </trkpt>
      <trkpt lat="44.001935021951795" lon="7.837978005409241">
        <ele>948.48000000000002</ele>
        <time>2025-05-19T09:48:00Z</time>
      </trkpt>
      <trkpt lat="44.002081034705043" lon="7.838015975430608">
        <ele>948</ele>
        <time>2025-05-19T09:48:01Z</time>
      </trkpt>
      <trkpt lat="44.002243978902698" lon="7.838057968765497">
        <ele>948.96000000000004</ele>
        <time>2025-05-19T09:48:02Z</time>
      </trkpt>
      <trkpt lat="44.002407006919384" lon="7.838099962100387">
        <ele>950.88</ele>
        <time>2025-05-19T09:48:03Z</time>
      </trkpt>
      <trkpt lat="44.002412036061287" lon="7.838100967928767">
        <ele>951.84000000000003</ele>
        <time>2025-05-19T09:48:04Z</time>
      </trkpt>
      <trkpt lat="44.002759968861938" lon="7.838060986250639">
        <ele>953.76999999999998</ele>
        <time>2025-05-19T09:48:05Z</time>
      </trkpt>
      <trkpt lat="44.002905981615186" lon="7.838112032040954">
        <ele>953.76999999999998</ele>
        <time>2025-05-19T09:48:06Z</time>
      </trkpt>
      <trkpt lat="44.003017041832209" lon="7.838151007890701">
        <ele>952.79999999999995</ele>
        <time>2025-05-19T09:48:07Z</time>
      </trkpt>
      <trkpt lat="44.003118965774775" lon="7.838186966255307">
        <ele>952.32000000000005</ele>
        <time>2025-05-19T09:48:08Z</time>
      </trkpt>
      <trkpt lat="44.003119971603155" lon="7.838186966255307">
        <ele>951.84000000000003</ele>
        <time>2025-05-19T09:48:09Z</time>
      </trkpt>
      <trkpt lat="44.00315199047327" lon="7.838159976527095">
        <ele>951.36000000000001</ele>
        <time>2025-05-19T09:48:10Z</time>
      </trkpt>
      <trkpt lat="44.003241006284952" lon="7.838081018999219">
        <ele>950.39999999999998</ele>
        <time>2025-05-19T09:48:11Z</time>
      </trkpt>
      <trkpt lat="44.003332033753395" lon="7.838000971823931">
        <ele>949.44000000000005</ele>
        <time>2025-05-19T09:48:12Z</time>
      </trkpt>
      <trkpt lat="44.003425994887948" lon="7.837920002639294">
        <ele>948.48000000000002</ele>
        <time>2025-05-19T09:48:13Z</time>
      </trkpt>
      <trkpt lat="44.00351501069963" lon="7.837840961292386">
        <ele>947.51999999999998</ele>
        <time>2025-05-19T09:48:14Z</time>
      </trkpt>
      <trkpt lat="44.003566978499293" lon="7.837796034291387">
        <ele>946.07000000000005</ele>
        <time>2025-05-19T09:48:15Z</time>
      </trkpt>
      <trkpt lat="44.003610983490944" lon="7.837756974622607">
        <ele>944.63</ele>
        <time>2025-05-19T09:48:16Z</time>
      </trkpt>
      <trkpt lat="44.003635039553046" lon="7.837737025693059">
        <ele>943.19000000000005</ele>
        <time>2025-05-19T09:48:17Z</time>
      </trkpt>
      <trkpt lat="44.003635039553046" lon="7.837737025693059">
        <ele>943.66999999999996</ele>
        <time>2025-05-19T09:48:18Z</time>
      </trkpt>
      <trkpt lat="44.003784991800785" lon="7.838423000648618">
        <ele>942.23000000000002</ele>
        <time>2025-05-19T09:48:20Z</time>
      </trkpt>
      <trkpt lat="44.003870990127325" lon="7.838573958724737">
        <ele>941.26999999999998</ele>
        <time>2025-05-19T09:48:21Z</time>
      </trkpt>
      <trkpt lat="44.003870990127325" lon="7.838573958724737">
        <ele>941.26999999999998</ele>
        <time>2025-05-19T09:48:22Z</time>
      </trkpt>
      <trkpt lat="44.003870990127325" lon="7.83868401311338">
        <ele>940.78999999999996</ele>
        <time>2025-05-19T09:48:23Z</time>
      </trkpt>
      <trkpt lat="44.003870990127325" lon="7.839010991156101">
        <ele>941.26999999999998</ele>
        <time>2025-05-19T09:48:25Z</time>
      </trkpt>
      <trkpt lat="44.003870990127325" lon="7.839165972545743">
        <ele>941.75</ele>
        <time>2025-05-19T09:48:26Z</time>
      </trkpt>
      <trkpt lat="44.003870990127325" lon="7.839305028319359">
        <ele>941.26999999999998</ele>
        <time>2025-05-19T09:48:27Z</time>
      </trkpt>
      <trkpt lat="44.003900997340679" lon="7.839540978893638">
        <ele>941.26999999999998</ele>
        <time>2025-05-19T09:48:28Z</time>
      </trkpt>
      <trkpt lat="44.003999987617135" lon="7.839689003303647">
        <ele>940.78999999999996</ele>
        <time>2025-05-19T09:48:29Z</time>
      </trkpt>
      <trkpt lat="44.004057990387082" lon="7.839750023558736">
        <ele>940.78999999999996</ele>
        <time>2025-05-19T09:48:30Z</time>
      </trkpt>
      <trkpt lat="44.004135020077229" lon="7.839829986914992">
        <ele>940.78999999999996</ele>
        <time>2025-05-19T09:48:31Z</time>
      </trkpt>
      <trkpt lat="44.004206014797091" lon="7.839903999119997">
        <ele>940.30999999999995</ele>
        <time>2025-05-19T09:48:32Z</time>
      </trkpt>
      <trkpt lat="44.00426996871829" lon="7.839970970526338">
        <ele>940.30999999999995</ele>
        <time>2025-05-19T09:48:33Z</time>
      </trkpt>
      <trkpt lat="44.004329983144999" lon="7.840032996609807">
        <ele>939.83000000000004</ele>
        <time>2025-05-19T09:48:34Z</time>
      </trkpt>
      <trkpt lat="44.004393015056849" lon="7.840098962187767">
        <ele>939.83000000000004</ele>
        <time>2025-05-19T09:48:35Z</time>
      </trkpt>
      <trkpt lat="44.004514971747994" lon="7.840226031839848">
        <ele>939.35000000000002</ele>
        <time>2025-05-19T09:48:36Z</time>
      </trkpt>
      <trkpt lat="44.00459099560976" lon="7.840261990204454">
        <ele>939.35000000000002</ele>
        <time>2025-05-19T09:48:37Z</time>
      </trkpt>
      <trkpt lat="44.004689985886216" lon="7.840308006852865">
        <ele>939.35000000000002</ele>
        <time>2025-05-19T09:48:38Z</time>
      </trkpt>
      <trkpt lat="44.004790987819433" lon="7.840356035158038">
        <ele>939.35000000000002</ele>
        <time>2025-05-19T09:48:39Z</time>
      </trkpt>
      <trkpt lat="44.004880003631115" lon="7.840397022664547">
        <ele>938.86000000000001</ele>
        <time>2025-05-19T09:48:40Z</time>
      </trkpt>
      <trkpt lat="44.004939012229443" lon="7.840470029041171">
        <ele>938.38</ele>
        <time>2025-05-19T09:48:41Z</time>
      </trkpt>
      <trkpt lat="44.005028028041124" lon="7.84057698212564">
        <ele>938.38</ele>
        <time>2025-05-19T09:48:42Z</time>
      </trkpt>
      <trkpt lat="44.005287028849125" lon="7.840890968218446">
        <ele>937.89999999999998</ele>
        <time>2025-05-19T09:48:45Z</time>
      </trkpt>
      <trkpt lat="44.005346037447453" lon="7.84102700650692">
        <ele>937.89999999999998</ele>
        <time>2025-05-19T09:48:46Z</time>
      </trkpt>
      <trkpt lat="44.005548041313887" lon="7.841493040323257">
        <ele>936.94000000000005</ele>
        <time>2025-05-19T09:48:49Z</time>
      </trkpt>
      <trkpt lat="44.005631022155285" lon="7.841684985905886">
        <ele>936.94000000000005</ele>
        <time>2025-05-19T09:48:50Z</time>
      </trkpt>
      <trkpt lat="44.00570897385478" lon="7.841792022809386">
        <ele>936.46000000000004</ele>
        <time>2025-05-19T09:48:51Z</time>
      </trkpt>
      <trkpt lat="44.005950037389994" lon="7.842160994186997">
        <ele>935.5</ele>
        <time>2025-05-19T09:48:54Z</time>
      </trkpt>
      <trkpt lat="44.005991024896502" lon="7.842303989455104">
        <ele>935.5</ele>
        <time>2025-05-19T09:48:55Z</time>
      </trkpt>
      <trkpt lat="44.006069982424378" lon="7.842580005526543">
        <ele>935.01999999999998</ele>
        <time>2025-05-19T09:48:57Z</time>
      </trkpt>
      <trkpt lat="44.006120022386312" lon="7.842717971652746">
        <ele>935.01999999999998</ele>
        <time>2025-05-19T09:48:58Z</time>
      </trkpt>
      <trkpt lat="44.006192022934556" lon="7.842816961929202">
        <ele>934.53999999999996</ele>
        <time>2025-05-19T09:48:59Z</time>
      </trkpt>
      <trkpt lat="44.006344992667437" lon="7.8430260065943">
        <ele>933.58000000000004</ele>
        <time>2025-05-19T09:49:01Z</time>
      </trkpt>
      <trkpt lat="44.006424034014344" lon="7.84313497133553">
        <ele>933.10000000000002</ele>
        <time>2025-05-19T09:49:02Z</time>
      </trkpt>
      <trkpt lat="44.006474995985627" lon="7.843268997967243">
        <ele>933.10000000000002</ele>
        <time>2025-05-19T09:49:03Z</time>
      </trkpt>
      <trkpt lat="44.006700972095132" lon="7.844067960977554">
        <ele>930.69000000000005</ele>
        <time>2025-05-19T09:49:08Z</time>
      </trkpt>
      <trkpt lat="44.006749000400305" lon="7.844177009537816">
        <ele>929.73000000000002</ele>
        <time>2025-05-19T09:49:09Z</time>
      </trkpt>
      <trkpt lat="44.006804991513491" lon="7.844233000651002">
        <ele>928.76999999999998</ele>
        <time>2025-05-19T09:49:10Z</time>
      </trkpt>
      <trkpt lat="44.006905993446708" lon="7.844259990379214">
        <ele>927.33000000000004</ele>
        <time>2025-05-19T09:49:11Z</time>
      </trkpt>
      <trkpt lat="44.007009007036686" lon="7.844257978722453">
        <ele>926.37</ele>
        <time>2025-05-19T09:49:12Z</time>
      </trkpt>
      <trkpt lat="44.007124006748199" lon="7.844252027571201">
        <ele>925.40999999999997</ele>
        <time>2025-05-19T09:49:13Z</time>
      </trkpt>
      <trkpt lat="44.007239006459713" lon="7.844244986772537">
        <ele>924.45000000000005</ele>
        <time>2025-05-19T09:49:14Z</time>
      </trkpt>
      <trkpt lat="44.007369009777904" lon="7.844238029792905">
        <ele>923.48000000000002</ele>
        <time>2025-05-19T09:49:15Z</time>
      </trkpt>
      <trkpt lat="44.007468000054359" lon="7.844176003709436">
        <ele>922.03999999999996</ele>
        <time>2025-05-19T09:49:16Z</time>
      </trkpt>
      <trkpt lat="44.007561039179564" lon="7.844116995111108">
        <ele>921.08000000000004</ele>
        <time>2025-05-19T09:49:17Z</time>
      </trkpt>
      <trkpt lat="44.007771005854011" lon="7.843984980136156">
        <ele>918.20000000000005</ele>
        <time>2025-05-19T09:49:19Z</time>
      </trkpt>
      <trkpt lat="44.007998993620276" lon="7.84384198486805">
        <ele>915.30999999999995</ele>
        <time>2025-05-19T09:49:21Z</time>
      </trkpt>
      <trkpt lat="44.008293030783534" lon="7.843654984608293">
        <ele>911.47000000000003</ele>
        <time>2025-05-19T09:49:24Z</time>
      </trkpt>
      <trkpt lat="44.00832898914814" lon="7.84356496296823">
        <ele>910.99000000000001</ele>
        <time>2025-05-19T09:49:25Z</time>
      </trkpt>
      <trkpt lat="44.008378023281693" lon="7.843437977135181">
        <ele>910.50999999999999</ele>
        <time>2025-05-19T09:49:26Z</time>
      </trkpt>
      <trkpt lat="44.008410964161158" lon="7.843293976038694">
        <ele>909.05999999999995</ele>
        <time>2025-05-19T09:49:27Z</time>
      </trkpt>
      <trkpt lat="44.008463015779853" lon="7.843058025464416">
        <ele>907.62</ele>
        <time>2025-05-19T09:49:28Z</time>
      </trkpt>
      <trkpt lat="44.008475001901388" lon="7.842958029359579">
        <ele>906.17999999999995</ele>
        <time>2025-05-19T09:49:29Z</time>
      </trkpt>
      <trkpt lat="44.008494028821588" lon="7.842797012999654">
        <ele>904.74000000000001</ele>
        <time>2025-05-19T09:49:30Z</time>
      </trkpt>
      <trkpt lat="44.008524036034942" lon="7.842540023848414">
        <ele>900.88999999999999</ele>
        <time>2025-05-19T09:49:32Z</time>
      </trkpt>
      <trkpt lat="44.008536022156477" lon="7.842438016086817">
        <ele>898.97000000000003</ele>
        <time>2025-05-19T09:49:33Z</time>
      </trkpt>
      <trkpt lat="44.008549014106393" lon="7.842328967526555">
        <ele>897.04999999999995</ele>
        <time>2025-05-19T09:49:34Z</time>
      </trkpt>
      <trkpt lat="44.008555971086025" lon="7.842318993061781">
        <ele>895.61000000000001</ele>
        <time>2025-05-19T09:49:35Z</time>
      </trkpt>
      <trkpt lat="44.008614979684353" lon="7.842236012220383">
        <ele>893.67999999999995</ele>
        <time>2025-05-19T09:49:36Z</time>
      </trkpt>
      <trkpt lat="44.008836010470986" lon="7.841925965622068">
        <ele>887.90999999999997</ele>
        <time>2025-05-19T09:49:39Z</time>
      </trkpt>
      <trkpt lat="44.009028039872646" lon="7.841741982847452">
        <ele>884.07000000000005</ele>
        <time>2025-05-19T09:49:41Z</time>
      </trkpt>
      <trkpt lat="44.009122001007199" lon="7.841659002006054">
        <ele>882.63</ele>
        <time>2025-05-19T09:49:42Z</time>
      </trkpt>
      <trkpt lat="44.009203976020217" lon="7.841588007286191">
        <ele>880.71000000000004</ele>
        <time>2025-05-19T09:49:43Z</time>
      </trkpt>
      <trkpt lat="44.009282011538744" lon="7.84152003005147">
        <ele>878.77999999999997</ele>
        <time>2025-05-19T09:49:44Z</time>
      </trkpt>
      <trkpt lat="44.009363986551762" lon="7.841449035331607">
        <ele>876.86000000000001</ele>
        <time>2025-05-19T09:49:45Z</time>
      </trkpt>
      <trkpt lat="44.009471023455262" lon="7.841384997591376">
        <ele>874.94000000000005</ele>
        <time>2025-05-19T09:49:46Z</time>
      </trkpt>
      <trkpt lat="44.009835971519351" lon="7.841406036168337">
        <ele>869.16999999999996</ele>
        <time>2025-05-19T09:49:49Z</time>
      </trkpt>
      <trkpt lat="44.009850975126028" lon="7.841397989541292">
        <ele>866.76999999999998</ele>
        <time>2025-05-19T09:49:50Z</time>
      </trkpt>
      <trkpt lat="44.009932028129697" lon="7.841358007863164">
        <ele>865.79999999999995</ele>
        <time>2025-05-19T09:49:51Z</time>
      </trkpt>
      <trkpt lat="44.009835971519351" lon="7.841406036168337">
        <ele>863.88</ele>
        <time>2025-05-19T09:49:52Z</time>
      </trkpt>
      <trkpt lat="44.010179964825511" lon="7.841234039515257">
        <ele>862.44000000000005</ele>
        <time>2025-05-19T09:49:53Z</time>
      </trkpt>
      <trkpt lat="44.010179964825511" lon="7.841234039515257">
        <ele>861</ele>
        <time>2025-05-19T09:49:54Z</time>
      </trkpt>
      <trkpt lat="44.010279960930347" lon="7.841292964294553">
        <ele>860.03999999999996</ele>
        <time>2025-05-19T09:49:55Z</time>
      </trkpt>
      <trkpt lat="44.010386997833848" lon="7.841355996206403">
        <ele>858.59000000000003</ele>
        <time>2025-05-19T09:49:56Z</time>
      </trkpt>
      <trkpt lat="44.010543990880251" lon="7.841449035331607">
        <ele>856.66999999999996</ele>
        <time>2025-05-19T09:49:57Z</time>
      </trkpt>
      <trkpt lat="44.010662008076906" lon="7.841423973441124">
        <ele>854.75</ele>
        <time>2025-05-19T09:49:58Z</time>
      </trkpt>
      <trkpt lat="44.01092603802681" lon="7.841366976499558">
        <ele>850.41999999999996</ele>
        <time>2025-05-19T09:50:00Z</time>
      </trkpt>
      <trkpt lat="44.01103600859642" lon="7.841344010084868">
        <ele>848.5</ele>
        <time>2025-05-19T09:50:01Z</time>
      </trkpt>
      <trkpt lat="44.011179003864527" lon="7.841276032850146">
        <ele>846.10000000000002</ele>
        <time>2025-05-19T09:50:02Z</time>
      </trkpt>
      <trkpt lat="44.011225020512938" lon="7.841216018423438">
        <ele>843.69000000000005</ele>
        <time>2025-05-19T09:50:03Z</time>
      </trkpt>
      <trkpt lat="44.011284029111266" lon="7.841138988733292">
        <ele>841.76999999999998</ele>
        <time>2025-05-19T09:50:04Z</time>
      </trkpt>
      <trkpt lat="44.011879982426763" lon="7.840561978518963">
        <ele>828.78999999999996</ele>
        <time>2025-05-19T09:50:10Z</time>
      </trkpt>
      <trkpt lat="44.012046027928591" lon="7.840418983250856">
        <ele>826.87</ele>
        <time>2025-05-19T09:50:11Z</time>
      </trkpt>
      <trkpt lat="44.012476019561291" lon="7.839953033253551">
        <ele>814.85000000000002</ele>
        <time>2025-05-19T09:50:16Z</time>
      </trkpt>
      <trkpt lat="44.012577021494508" lon="7.839833004400134">
        <ele>811.97000000000003</ele>
        <time>2025-05-19T09:50:17Z</time>
      </trkpt>
      <trkpt lat="44.012674000114202" lon="7.839658996090293">
        <ele>806.20000000000005</ele>
        <time>2025-05-19T09:50:19Z</time>
      </trkpt>
      <trkpt lat="44.012709958478808" lon="7.839593030512333">
        <ele>804.75999999999999</ele>
        <time>2025-05-19T09:50:20Z</time>
      </trkpt>
      <trkpt lat="44.0127760078758" lon="7.839475013315678">
        <ele>804.75999999999999</ele>
        <time>2025-05-19T09:50:21Z</time>
      </trkpt>
      <trkpt lat="44.0127760078758" lon="7.839475013315678">
        <ele>805.72000000000003</ele>
        <time>2025-05-19T09:50:22Z</time>
      </trkpt>
      <trkpt lat="44.012848008424044" lon="7.839592024683952">
        <ele>806.67999999999995</ele>
        <time>2025-05-19T09:50:23Z</time>
      </trkpt>
      <trkpt lat="44.012839961796999" lon="7.839646004140377">
        <ele>806.20000000000005</ele>
        <time>2025-05-19T09:50:24Z</time>
      </trkpt>
      <trkpt lat="44.012783970683813" lon="7.839722028002143">
        <ele>806.67999999999995</ele>
        <time>2025-05-19T09:50:25Z</time>
      </trkpt>
      <trkpt lat="44.012737032026052" lon="7.839783970266581">
        <ele>807.15999999999997</ele>
        <time>2025-05-19T09:50:26Z</time>
      </trkpt>
      <trkpt lat="44.012427991256118" lon="7.840196024626494">
        <ele>809.09000000000003</ele>
        <time>2025-05-19T09:50:30Z</time>
      </trkpt>
      <trkpt lat="44.012234034016728" lon="7.840486960485578">
        <ele>811.00999999999999</ele>
        <time>2025-05-19T09:50:32Z</time>
      </trkpt>
      <trkpt lat="44.012124985456467" lon="7.840687958523631">
        <ele>811.97000000000003</ele>
        <time>2025-05-19T09:50:33Z</time>
      </trkpt>
      <trkpt lat="44.01185198687017" lon="7.841340992599726">
        <ele>814.37</ele>
        <time>2025-05-19T09:50:37Z</time>
      </trkpt>
      <trkpt lat="44.011770011857152" lon="7.841482982039452">
        <ele>814.85000000000002</ele>
        <time>2025-05-19T09:50:38Z</time>
      </trkpt>
      <trkpt lat="44.011256033554673" lon="7.842370960861445">
        <ele>815.82000000000005</ele>
        <time>2025-05-19T09:50:44Z</time>
      </trkpt>
      <trkpt lat="44.011183027178049" lon="7.842524014413357">
        <ele>815.82000000000005</ele>
        <time>2025-05-19T09:50:45Z</time>
      </trkpt>
      <trkpt lat="44.011117983609438" lon="7.842671032994986">
        <ele>815.82000000000005</ele>
        <time>2025-05-19T09:50:46Z</time>
      </trkpt>
      <trkpt lat="44.01092897169292" lon="7.843032041564584">
        <ele>816.77999999999997</ele>
        <time>2025-05-19T09:50:49Z</time>
      </trkpt>
      <trkpt lat="44.01095001026988" lon="7.843274027109146">
        <ele>817.25999999999999</ele>
        <time>2025-05-19T09:50:50Z</time>
      </trkpt>
      <trkpt lat="44.010869963094592" lon="7.843331024050713">
        <ele>816.77999999999997</ele>
        <time>2025-05-19T09:50:51Z</time>
      </trkpt>
      <trkpt lat="44.010765021666884" lon="7.843379974365234">
        <ele>816.77999999999997</ele>
        <time>2025-05-19T09:50:52Z</time>
      </trkpt>
      <trkpt lat="44.010676005855203" lon="7.843379974365234">
        <ele>816.29999999999995</ele>
        <time>2025-05-19T09:50:53Z</time>
      </trkpt>
      <trkpt lat="44.010618003085256" lon="7.843379974365234">
        <ele>816.77999999999997</ele>
        <time>2025-05-19T09:50:54Z</time>
      </trkpt>
      <trkpt lat="44.010801985859871" lon="7.843379974365234">
        <ele>817.25999999999999</ele>
        <time>2025-05-19T09:50:55Z</time>
      </trkpt>
      <trkpt lat="44.010637030005455" lon="7.84319800324738">
        <ele>819.17999999999995</ele>
        <time>2025-05-19T09:50:57Z</time>
      </trkpt>
      <trkpt lat="44.010658990591764" lon="7.843196997419">
        <ele>819.17999999999995</ele>
        <time>2025-05-19T09:50:58Z</time>
      </trkpt>
      <trkpt lat="44.010693021118641" lon="7.843193979933858">
        <ele>818.70000000000005</ele>
        <time>2025-05-19T09:50:59Z</time>
      </trkpt>
      <trkpt lat="44.010749012231827" lon="7.843190040439367">
        <ele>818.70000000000005</ele>
        <time>2025-05-19T09:51:00Z</time>
      </trkpt>
      <trkpt lat="44.010801985859871" lon="7.843187022954226">
        <ele>817.74000000000001</ele>
        <time>2025-05-19T09:51:01Z</time>
      </trkpt>
      <trkpt lat="44.01090600527823" lon="7.843060037121177">
        <ele>817.74000000000001</ele>
        <time>2025-05-19T09:51:02Z</time>
      </trkpt>
      <trkpt lat="44.010995021089911" lon="7.842950988560915">
        <ele>817.25999999999999</ele>
        <time>2025-05-19T09:51:03Z</time>
      </trkpt>
      <trkpt lat="44.011056963354349" lon="7.84281101077795">
        <ele>816.77999999999997</ele>
        <time>2025-05-19T09:51:04Z</time>
      </trkpt>
      <trkpt lat="44.011117983609438" lon="7.842671032994986">
        <ele>816.29999999999995</ele>
        <time>2025-05-19T09:51:05Z</time>
      </trkpt>
      <trkpt lat="44.011563984677196" lon="7.841838039457798">
        <ele>812.45000000000005</ele>
        <time>2025-05-19T09:51:11Z</time>
      </trkpt>
      <trkpt lat="44.011838994920254" lon="7.841363959014416">
        <ele>811.49000000000001</ele>
        <time>2025-05-19T09:51:15Z</time>
      </trkpt>
      <trkpt lat="44.01193899102509" lon="7.841191040351987">
        <ele>811.49000000000001</ele>
        <time>2025-05-19T09:51:16Z</time>
      </trkpt>
      <trkpt lat="44.01193899102509" lon="7.841191040351987">
        <ele>811.00999999999999</ele>
        <time>2025-05-19T09:51:17Z</time>
      </trkpt>
      <trkpt lat="44.011995987966657" lon="7.841036980971694">
        <ele>810.52999999999997</ele>
        <time>2025-05-19T09:51:19Z</time>
      </trkpt>
      <trkpt lat="44.012018032371998" lon="7.840978978201747">
        <ele>810.04999999999995</ele>
        <time>2025-05-19T09:51:20Z</time>
      </trkpt>
      <trkpt lat="44.01256101205945" lon="7.841535033658147">
        <ele>810.04999999999995</ele>
        <time>2025-05-19T09:51:23Z</time>
      </trkpt>
      <trkpt lat="44.01256101205945" lon="7.841535033658147">
        <ele>809.57000000000005</ele>
        <time>2025-05-19T09:51:24Z</time>
      </trkpt>
      <trkpt lat="44.01253997348249" lon="7.841684985905886">
        <ele>809.09000000000003</ele>
        <time>2025-05-19T09:51:25Z</time>
      </trkpt>
      <trkpt lat="44.01249697431922" lon="7.841771990060806">
        <ele>809.57000000000005</ele>
        <time>2025-05-19T09:51:26Z</time>
      </trkpt>
      <trkpt lat="44.012426985427737" lon="7.841915991157293">
        <ele>810.04999999999995</ele>
        <time>2025-05-19T09:51:27Z</time>
      </trkpt>
      <trkpt lat="44.012192962691188" lon="7.842394011095166">
        <ele>810.04999999999995</ele>
        <time>2025-05-19T09:51:30Z</time>
      </trkpt>
      <trkpt lat="44.01198098435998" lon="7.842877982184291">
        <ele>809.09000000000003</ele>
        <time>2025-05-19T09:51:33Z</time>
      </trkpt>
      <trkpt lat="44.011921975761652" lon="7.843044027686119">
        <ele>808.61000000000001</ele>
        <time>2025-05-19T09:51:34Z</time>
      </trkpt>
      <trkpt lat="44.011870007961988" lon="7.843190962448716">
        <ele>808.13</ele>
        <time>2025-05-19T09:51:35Z</time>
      </trkpt>
      <trkpt lat="44.011774035170674" lon="7.843462033197284">
        <ele>807.63999999999999</ele>
        <time>2025-05-19T09:51:37Z</time>
      </trkpt>
      <trkpt lat="44.011729024350643" lon="7.843589019030333">
        <ele>806.67999999999995</ele>
        <time>2025-05-19T09:51:38Z</time>
      </trkpt>
      <trkpt lat="44.011682001873851" lon="7.843722961843014">
        <ele>806.20000000000005</ele>
        <time>2025-05-19T09:51:39Z</time>
      </trkpt>
      <trkpt lat="44.01161695830524" lon="7.843840979039669">
        <ele>805.24000000000001</ele>
        <time>2025-05-19T09:51:40Z</time>
      </trkpt>
      <trkpt lat="44.011545041576028" lon="7.843969976529479">
        <ele>804.27999999999997</ele>
        <time>2025-05-19T09:51:41Z</time>
      </trkpt>
      <trkpt lat="44.011463988572359" lon="7.844075001776218">
        <ele>803.79999999999995</ele>
        <time>2025-05-19T09:51:42Z</time>
      </trkpt>
      <trkpt lat="44.011301966384053" lon="7.844284968450666">
        <ele>802.36000000000001</ele>
        <time>2025-05-19T09:51:44Z</time>
      </trkpt>
      <trkpt lat="44.011219991371036" lon="7.844392005354166">
        <ele>801.88</ele>
        <time>2025-05-19T09:51:45Z</time>
      </trkpt>
      <trkpt lat="44.011124018579721" lon="7.844516979530454">
        <ele>800.91999999999996</ele>
        <time>2025-05-19T09:51:46Z</time>
      </trkpt>
      <trkpt lat="44.011054029688239" lon="7.84457003697753">
        <ele>800.44000000000005</ele>
        <time>2025-05-19T09:51:47Z</time>
      </trkpt>
      <trkpt lat="44.010935006663203" lon="7.844645977020264">
        <ele>799.95000000000005</ele>
        <time>2025-05-19T09:51:48Z</time>
      </trkpt>
      <trkpt lat="44.010853031650186" lon="7.844645977020264">
        <ele>798.99000000000001</ele>
        <time>2025-05-19T09:51:49Z</time>
      </trkpt>
      <trkpt lat="44.01067198254168" lon="7.844612030312419">
        <ele>798.02999999999997</ele>
        <time>2025-05-19T09:51:50Z</time>
      </trkpt>
      <trkpt lat="44.010587995871902" lon="7.844545980915427">
        <ele>797.07000000000005</ele>
        <time>2025-05-19T09:51:51Z</time>
      </trkpt>
      <trkpt lat="44.010523036122322" lon="7.844494013115764">
        <ele>796.11000000000001</ele>
        <time>2025-05-19T09:51:52Z</time>
      </trkpt>
      <trkpt lat="44.010415999218822" lon="7.844410026445985">
        <ele>796.11000000000001</ele>
        <time>2025-05-19T09:51:53Z</time>
      </trkpt>
      <trkpt lat="44.010415999218822" lon="7.844410026445985">
        <ele>797.07000000000005</ele>
        <time>2025-05-19T09:51:54Z</time>
      </trkpt>
      <trkpt lat="44.010415999218822" lon="7.844410026445985">
        <ele>798.50999999999999</ele>
        <time>2025-05-19T09:51:55Z</time>
      </trkpt>
      <trkpt lat="44.010405018925667" lon="7.844611024484038">
        <ele>799.95000000000005</ele>
        <time>2025-05-19T09:51:56Z</time>
      </trkpt>
      <trkpt lat="44.010522030293941" lon="7.844673972576857">
        <ele>800.91999999999996</ele>
        <time>2025-05-19T09:51:57Z</time>
      </trkpt>
      <trkpt lat="44.010577015578747" lon="7.84470004029572">
        <ele>800.91999999999996</ele>
        <time>2025-05-19T09:51:58Z</time>
      </trkpt>
      <trkpt lat="44.010712970048189" lon="7.844763994216919">
        <ele>799.95000000000005</ele>
        <time>2025-05-19T09:52:00Z</time>
      </trkpt>
      <trkpt lat="44.010780025273561" lon="7.844796013087034">
        <ele>798.99000000000001</ele>
        <time>2025-05-19T09:52:01Z</time>
      </trkpt>
      <trkpt lat="44.010914973914623" lon="7.844781009480357">
        <ele>798.50999999999999</ele>
        <time>2025-05-19T09:52:02Z</time>
      </trkpt>
      <trkpt lat="44.011008013039827" lon="7.844770029187203">
        <ele>798.02999999999997</ele>
        <time>2025-05-19T09:52:03Z</time>
      </trkpt>
      <trkpt lat="44.011110020801425" lon="7.844758965075016">
        <ele>797.54999999999995</ele>
        <time>2025-05-19T09:52:04Z</time>
      </trkpt>
      <trkpt lat="44.011209011077881" lon="7.844746978953481">
        <ele>796.59000000000003</ele>
        <time>2025-05-19T09:52:05Z</time>
      </trkpt>
      <trkpt lat="44.011304983869195" lon="7.844735998660326">
        <ele>796.11000000000001</ele>
        <time>2025-05-19T09:52:06Z</time>
      </trkpt>
      <trkpt lat="44.011404979974031" lon="7.844725018367171">
        <ele>795.63</ele>
        <time>2025-05-19T09:52:07Z</time>
      </trkpt>
      <trkpt lat="44.011498019099236" lon="7.844714038074017">
        <ele>794.66999999999996</ele>
        <time>2025-05-19T09:52:08Z</time>
      </trkpt>
      <trkpt lat="44.01157395914197" lon="7.844657963141799">
        <ele>793.71000000000004</ele>
        <time>2025-05-19T09:52:09Z</time>
      </trkpt>
      <trkpt lat="44.0116379968822" lon="7.844580011442304">
        <ele>792.25999999999999</ele>
        <time>2025-05-19T09:52:10Z</time>
      </trkpt>
      <trkpt lat="44.011726006865501" lon="7.844471968710423">
        <ele>790.34000000000003</ele>
        <time>2025-05-19T09:52:11Z</time>
      </trkpt>
      <trkpt lat="44.0118089877069" lon="7.844352023676038">
        <ele>788.41999999999996</ele>
        <time>2025-05-19T09:52:12Z</time>
      </trkpt>
      <trkpt lat="44.012265969067812" lon="7.843493968248367">
        <ele>777.36000000000001</ele>
        <time>2025-05-19T09:52:18Z</time>
      </trkpt>
      <trkpt lat="44.012399995699525" lon="7.843214012682438">
        <ele>773.51999999999998</ele>
        <time>2025-05-19T09:52:20Z</time>
      </trkpt>
      <trkpt lat="44.01269000954926" lon="7.842608001083136">
        <ele>764.38999999999999</ele>
        <time>2025-05-19T09:52:25Z</time>
      </trkpt>
      <trkpt lat="44.012749018147588" lon="7.842548992484808">
        <ele>764.38999999999999</ele>
        <time>2025-05-19T09:52:26Z</time>
      </trkpt>
      <trkpt lat="44.012848008424044" lon="7.842485960572958">
        <ele>763.89999999999998</ele>
        <time>2025-05-19T09:52:28Z</time>
      </trkpt>
      <trkpt lat="44.01294800452888" lon="7.842456959187985">
        <ele>764.38999999999999</ele>
        <time>2025-05-19T09:52:29Z</time>
      </trkpt>
      <trkpt lat="44.013028973713517" lon="7.842515967786312">
        <ele>764.87</ele>
        <time>2025-05-19T09:52:30Z</time>
      </trkpt>
      <trkpt lat="44.01337799616158" lon="7.84274403937161">
        <ele>765.83000000000004</ele>
        <time>2025-05-19T09:52:33Z</time>
      </trkpt>
      <trkpt lat="44.01346399448812" lon="7.842758037149906">
        <ele>766.30999999999995</ele>
        <time>2025-05-19T09:52:34Z</time>
      </trkpt>
      <trkpt lat="44.013544963672757" lon="7.842771029099822">
        <ele>767.26999999999998</ele>
        <time>2025-05-19T09:52:35Z</time>
      </trkpt>
      <trkpt lat="44.013590980321169" lon="7.842778991907835">
        <ele>767.26999999999998</ele>
        <time>2025-05-19T09:52:36Z</time>
      </trkpt>
      <trkpt lat="44.013590980321169" lon="7.842778991907835">
        <ele>767.75</ele>
        <time>2025-05-19T09:52:37Z</time>
      </trkpt>
      <trkpt lat="44.013628028333187" lon="7.842872031033039">
        <ele>768.71000000000004</ele>
        <time>2025-05-19T09:52:38Z</time>
      </trkpt>
      <trkpt lat="44.013633979484439" lon="7.842887034639716">
        <ele>768.23000000000002</ele>
        <time>2025-05-19T09:52:39Z</time>
      </trkpt>
      <trkpt lat="44.013633979484439" lon="7.842887034639716">
        <ele>767.75</ele>
        <time>2025-05-19T09:52:40Z</time>
      </trkpt>
      <trkpt lat="44.013607995584607" lon="7.842926010489464">
        <ele>767.75</ele>
        <time>2025-05-19T09:52:41Z</time>
      </trkpt>
      <trkpt lat="44.013504981994629" lon="7.842950988560915">
        <ele>768.23000000000002</ele>
        <time>2025-05-19T09:52:42Z</time>
      </trkpt>
      <trkpt lat="44.013372967019677" lon="7.842894997447729">
        <ele>768.23000000000002</ele>
        <time>2025-05-19T09:52:43Z</time>
      </trkpt>
      <trkpt lat="44.013276994228363" lon="7.842855015769601">
        <ele>768.23000000000002</ele>
        <time>2025-05-19T09:52:44Z</time>
      </trkpt>
      <trkpt lat="44.013098040595651" lon="7.842778991907835">
        <ele>768.23000000000002</ele>
        <time>2025-05-19T09:52:45Z</time>
      </trkpt>
      <trkpt lat="44.013098040595651" lon="7.842778991907835">
        <ele>768.71000000000004</ele>
        <time>2025-05-19T09:52:46Z</time>
      </trkpt>
      <trkpt lat="44.012945992872119" lon="7.842900026589632">
        <ele>768.71000000000004</ele>
        <time>2025-05-19T09:52:47Z</time>
      </trkpt>
      <trkpt lat="44.012942975386977" lon="7.842994993552566">
        <ele>769.19000000000005</ele>
        <time>2025-05-19T09:52:48Z</time>
      </trkpt>
      <trkpt lat="44.012939035892487" lon="7.84311099909246">
        <ele>769.66999999999996</ele>
        <time>2025-05-19T09:52:49Z</time>
      </trkpt>
      <trkpt lat="44.012934006750584" lon="7.843242008239031">
        <ele>770.14999999999998</ele>
        <time>2025-05-19T09:52:50Z</time>
      </trkpt>
      <trkpt lat="44.012925960123539" lon="7.843487011268735">
        <ele>772.08000000000004</ele>
        <time>2025-05-19T09:52:52Z</time>
      </trkpt>
      <trkpt lat="44.012814983725548" lon="7.843814995139837">
        <ele>772.55999999999995</ele>
        <time>2025-05-19T09:52:54Z</time>
      </trkpt>
      <trkpt lat="44.012708030641079" lon="7.844127975404263">
        <ele>773.03999999999996</ele>
        <time>2025-05-19T09:52:56Z</time>
      </trkpt>
      <trkpt lat="44.012654973194003" lon="7.844283962622285">
        <ele>773.03999999999996</ele>
        <time>2025-05-19T09:52:57Z</time>
      </trkpt>
      <trkpt lat="44.01260300539434" lon="7.844438022002578">
        <ele>773.03999999999996</ele>
        <time>2025-05-19T09:52:58Z</time>
      </trkpt>
      <trkpt lat="44.012551037594676" lon="7.844614963978529">
        <ele>772.55999999999995</ele>
        <time>2025-05-19T09:52:59Z</time>
      </trkpt>
      <trkpt lat="44.012521030381322" lon="7.844774974510074">
        <ele>772.55999999999995</ele>
        <time>2025-05-19T09:53:00Z</time>
      </trkpt>
      <trkpt lat="44.012492028996348" lon="7.844932973384857">
        <ele>772.55999999999995</ele>
        <time>2025-05-19T09:53:01Z</time>
      </trkpt>
      <trkpt lat="44.012433020398021" lon="7.845252994447947">
        <ele>773.03999999999996</ele>
        <time>2025-05-19T09:53:03Z</time>
      </trkpt>
      <trkpt lat="44.012402007356286" lon="7.845418034121394">
        <ele>773.03999999999996</ele>
        <time>2025-05-19T09:53:04Z</time>
      </trkpt>
      <trkpt lat="44.012390021234751" lon="7.845482993870974">
        <ele>773.03999999999996</ele>
        <time>2025-05-19T09:53:05Z</time>
      </trkpt>
      <trkpt lat="44.012319026514888" lon="7.845683991909027">
        <ele>773.03999999999996</ele>
        <time>2025-05-19T09:53:06Z</time>
      </trkpt>
      <trkpt lat="44.012278961017728" lon="7.845794968307018">
        <ele>773.03999999999996</ele>
        <time>2025-05-19T09:53:07Z</time>
      </trkpt>
      <trkpt lat="44.012279966846108" lon="7.845940981060267">
        <ele>773.51999999999998</ele>
        <time>2025-05-19T09:53:08Z</time>
      </trkpt>
      <trkpt lat="44.01228197850287" lon="7.845954978838563">
        <ele>774</ele>
        <time>2025-05-19T09:53:09Z</time>
      </trkpt>
      <trkpt lat="44.012307040393353" lon="7.845954978838563">
        <ele>774.96000000000004</ele>
        <time>2025-05-19T09:53:10Z</time>
      </trkpt>
      <trkpt lat="44.012344004586339" lon="7.845954978838563">
        <ele>775.91999999999996</ele>
        <time>2025-05-19T09:53:11Z</time>
      </trkpt>
      <trkpt lat="44.01236797682941" lon="7.845954978838563">
        <ele>776.39999999999998</ele>
        <time>2025-05-19T09:53:12Z</time>
      </trkpt>
      <trkpt lat="44.012397984042764" lon="7.845909968018532">
        <ele>776.39999999999998</ele>
        <time>2025-05-19T09:53:13Z</time>
      </trkpt>
      <trkpt lat="44.012430002912879" lon="7.845836961641908">
        <ele>776.88</ele>
        <time>2025-05-19T09:53:14Z</time>
      </trkpt>
      <trkpt lat="44.012467972934246" lon="7.845724979415536">
        <ele>776.88</ele>
        <time>2025-05-19T09:53:15Z</time>
      </trkpt>
      <trkpt lat="44.012507032603025" lon="7.845610985532403">
        <ele>776.88</ele>
        <time>2025-05-19T09:53:16Z</time>
      </trkpt>
      <trkpt lat="44.012546008452773" lon="7.845497997477651">
        <ele>776.88</ele>
        <time>2025-05-19T09:53:17Z</time>
      </trkpt>
      <trkpt lat="44.012629995122552" lon="7.845252994447947">
        <ele>776.39999999999998</ele>
        <time>2025-05-19T09:53:19Z</time>
      </trkpt>
      <trkpt lat="44.0126689709723" lon="7.845140006393194">
        <ele>775.91999999999996</ele>
        <time>2025-05-19T09:53:20Z</time>
      </trkpt>
      <trkpt lat="44.012743989005685" lon="7.845014026388526">
        <ele>775.91999999999996</ele>
        <time>2025-05-19T09:53:21Z</time>
      </trkpt>
      <trkpt lat="44.012972982600331" lon="7.844612030312419">
        <ele>774</ele>
        <time>2025-05-19T09:53:24Z</time>
      </trkpt>
      <trkpt lat="44.013027967885137" lon="7.844497030600905">
        <ele>773.51999999999998</ele>
        <time>2025-05-19T09:53:25Z</time>
      </trkpt>
      <trkpt lat="44.013079013675451" lon="7.844389993697405">
        <ele>773.03999999999996</ele>
        <time>2025-05-19T09:53:26Z</time>
      </trkpt>
      <trkpt lat="44.013141039758921" lon="7.844259990379214">
        <ele>772.55999999999995</ele>
        <time>2025-05-19T09:53:27Z</time>
      </trkpt>
      <trkpt lat="44.013151014223695" lon="7.844254039227963">
        <ele>771.60000000000002</ele>
        <time>2025-05-19T09:53:28Z</time>
      </trkpt>
      <trkpt lat="44.013141039758921" lon="7.844259990379214">
        <ele>769.66999999999996</ele>
        <time>2025-05-19T09:53:29Z</time>
      </trkpt>
      <trkpt lat="44.013141039758921" lon="7.844259990379214">
        <ele>768.71000000000004</ele>
        <time>2025-05-19T09:53:30Z</time>
      </trkpt>
      <trkpt lat="44.013299960643053" lon="7.8441640175879">
        <ele>767.26999999999998</ele>
        <time>2025-05-19T09:53:31Z</time>
      </trkpt>
      <trkpt lat="44.01335502974689" lon="7.844130992889404">
        <ele>766.78999999999996</ele>
        <time>2025-05-19T09:53:32Z</time>
      </trkpt>
      <trkpt lat="44.013504981994629" lon="7.843938041478396">
        <ele>765.35000000000002</ele>
        <time>2025-05-19T09:53:33Z</time>
      </trkpt>
      <trkpt lat="44.013562984764576" lon="7.843923959881067">
        <ele>764.38999999999999</ele>
        <time>2025-05-19T09:53:34Z</time>
      </trkpt>
      <trkpt lat="44.013701034709811" lon="7.843900993466377">
        <ele>763.41999999999996</ele>
        <time>2025-05-19T09:53:35Z</time>
      </trkpt>
      <trkpt lat="44.013819973915815" lon="7.843932006508112">
        <ele>762.94000000000005</ele>
        <time>2025-05-19T09:53:36Z</time>
      </trkpt>
      <trkpt lat="44.013951988890767" lon="7.843966959044337">
        <ele>761.98000000000002</ele>
        <time>2025-05-19T09:53:37Z</time>
      </trkpt>
      <trkpt lat="44.014056008309126" lon="7.843994032591581">
        <ele>760.53999999999996</ele>
        <time>2025-05-19T09:53:38Z</time>
      </trkpt>
      <trkpt lat="44.014171008020639" lon="7.844024039804936">
        <ele>759.10000000000002</ele>
        <time>2025-05-19T09:53:39Z</time>
      </trkpt>
      <trkpt lat="44.014267986640334" lon="7.843972994014621">
        <ele>758.13999999999999</ele>
        <time>2025-05-19T09:53:40Z</time>
      </trkpt>
      <trkpt lat="44.014360019937158" lon="7.843923959881067">
        <ele>757.17999999999995</ele>
        <time>2025-05-19T09:53:41Z</time>
      </trkpt>
      <trkpt lat="44.014578033238649" lon="7.843808960169554">
        <ele>752.37</ele>
        <time>2025-05-19T09:53:43Z</time>
      </trkpt>
      <trkpt lat="44.01457903906703" lon="7.843806026503444">
        <ele>749.97000000000003</ele>
        <time>2025-05-19T09:53:44Z</time>
      </trkpt>
      <trkpt lat="44.014591025188565" lon="7.843736037611961">
        <ele>748.03999999999996</ele>
        <time>2025-05-19T09:53:45Z</time>
      </trkpt>
      <trkpt lat="44.014620026573539" lon="7.843547025695443">
        <ele>746.12</ele>
        <time>2025-05-19T09:53:46Z</time>
      </trkpt>
      <trkpt lat="44.014591025188565" lon="7.843437977135181">
        <ele>744.20000000000005</ele>
        <time>2025-05-19T09:53:47Z</time>
      </trkpt>
      <trkpt lat="44.014554983004928" lon="7.84330302849412">
        <ele>742.27999999999997</ele>
        <time>2025-05-19T09:53:48Z</time>
      </trkpt>
      <trkpt lat="44.014515001326799" lon="7.843151986598969">
        <ele>740.35000000000002</ele>
        <time>2025-05-19T09:53:49Z</time>
      </trkpt>
      <trkpt lat="44.014349039644003" lon="7.842524014413357">
        <ele>730.74000000000001</ele>
        <time>2025-05-19T09:53:54Z</time>
      </trkpt>
      <trkpt lat="44.014341998845339" lon="7.842499958351255">
        <ele>730.74000000000001</ele>
        <time>2025-05-19T09:53:55Z</time>
      </trkpt>
      <trkpt lat="44.014406958594918" lon="7.842350006103516">
        <ele>730.25999999999999</ele>
        <time>2025-05-19T09:53:59Z</time>
      </trkpt>
      <trkpt lat="44.014406958594918" lon="7.842350006103516">
        <ele>729.77999999999997</ele>
        <time>2025-05-19T09:54:00Z</time>
      </trkpt>
      <trkpt lat="44.014444006606936" lon="7.842339025810361">
        <ele>729.77999999999997</ele>
        <time>2025-05-19T09:54:01Z</time>
      </trkpt>
      <trkpt lat="44.014530004933476" lon="7.842312958091497">
        <ele>729.29999999999995</ele>
        <time>2025-05-19T09:54:02Z</time>
      </trkpt>
      <trkpt lat="44.0146220382303" lon="7.842284962534905">
        <ele>729.29999999999995</ele>
        <time>2025-05-19T09:54:03Z</time>
      </trkpt>
      <trkpt lat="44.014699989929795" lon="7.842261996120215">
        <ele>729.77999999999997</ele>
        <time>2025-05-19T09:54:04Z</time>
      </trkpt>
      <trkpt lat="44.014787999913096" lon="7.842236012220383">
        <ele>728.82000000000005</ele>
        <time>2025-05-19T09:54:05Z</time>
      </trkpt>
      <trkpt lat="44.014836028218269" lon="7.842221008613706">
        <ele>727.86000000000001</ele>
        <time>2025-05-19T09:54:06Z</time>
      </trkpt>
      <trkpt lat="44.014836028218269" lon="7.842221008613706">
        <ele>727.37</ele>
        <time>2025-05-19T09:54:07Z</time>
      </trkpt>
      <trkpt lat="44.015157977119088" lon="7.842328967526555">
        <ele>727.37</ele>
        <time>2025-05-19T09:54:08Z</time>
      </trkpt>
      <trkpt lat="44.015187984332442" lon="7.842284962534905">
        <ele>727.86000000000001</ele>
        <time>2025-05-19T09:54:09Z</time>
      </trkpt>
      <trkpt lat="44.015245987102389" lon="7.842199970036745">
        <ele>728.34000000000003</ele>
        <time>2025-05-19T09:54:10Z</time>
      </trkpt>
      <trkpt lat="44.015361992642283" lon="7.842031996697187">
        <ele>728.34000000000003</ele>
        <time>2025-05-19T09:54:12Z</time>
      </trkpt>
      <trkpt lat="44.015394011512399" lon="7.841984974220395">
        <ele>728.82000000000005</ele>
        <time>2025-05-19T09:54:13Z</time>
      </trkpt>
      <trkpt lat="44.015473974868655" lon="7.841932000592351">
        <ele>728.82000000000005</ele>
        <time>2025-05-19T09:54:14Z</time>
      </trkpt>
      <trkpt lat="44.015549998730421" lon="7.841881038621068">
        <ele>728.82000000000005</ele>
        <time>2025-05-19T09:54:15Z</time>
      </trkpt>
      <trkpt lat="44.015625016763806" lon="7.841830998659134">
        <ele>729.29999999999995</ele>
        <time>2025-05-19T09:54:16Z</time>
      </trkpt>
      <trkpt lat="44.015718977898359" lon="7.841766960918903">
        <ele>729.29999999999995</ele>
        <time>2025-05-19T09:54:17Z</time>
      </trkpt>
      <trkpt lat="44.015777986496687" lon="7.841703006997705">
        <ele>729.29999999999995</ele>
        <time>2025-05-19T09:54:18Z</time>
      </trkpt>
      <trkpt lat="44.015858033671975" lon="7.841613991186023">
        <ele>729.29999999999995</ele>
        <time>2025-05-19T09:54:19Z</time>
      </trkpt>
      <trkpt lat="44.015930034220219" lon="7.841535033658147">
        <ele>729.29999999999995</ele>
        <time>2025-05-19T09:54:20Z</time>
      </trkpt>
      <trkpt lat="44.016025001183152" lon="7.84149999730289">
        <ele>729.29999999999995</ele>
        <time>2025-05-19T09:54:21Z</time>
      </trkpt>
      <trkpt lat="44.016144024208188" lon="7.84145699813962">
        <ele>728.82000000000005</ele>
        <time>2025-05-19T09:54:22Z</time>
      </trkpt>
      <trkpt lat="44.016463039442897" lon="7.841176958754659">
        <ele>729.29999999999995</ele>
        <time>2025-05-19T09:54:25Z</time>
      </trkpt>
      <trkpt lat="44.01666303165257" lon="7.841099007055163">
        <ele>724.97000000000003</ele>
        <time>2025-05-19T09:54:27Z</time>
      </trkpt>
      <trkpt lat="44.016981963068247" lon="7.841127002611756">
        <ele>724.49000000000001</ele>
        <time>2025-05-19T09:54:28Z</time>
      </trkpt>
      <trkpt lat="44.016981963068247" lon="7.841127002611756">
        <ele>724.00999999999999</ele>
        <time>2025-05-19T09:54:29Z</time>
      </trkpt>
      <trkpt lat="44.017131999135017" lon="7.840718971565366">
        <ele>723.52999999999997</ele>
        <time>2025-05-19T09:54:31Z</time>
      </trkpt>
      <trkpt lat="44.017131999135017" lon="7.840718971565366">
        <ele>723.04999999999995</ele>
        <time>2025-05-19T09:54:32Z</time>
      </trkpt>
      <trkpt lat="44.017128981649876" lon="7.840584022924304">
        <ele>723.04999999999995</ele>
        <time>2025-05-19T09:54:33Z</time>
      </trkpt>
      <trkpt lat="44.017096040770411" lon="7.840513028204441">
        <ele>723.04999999999995</ele>
        <time>2025-05-19T09:54:34Z</time>
      </trkpt>
      <trkpt lat="44.017056981101632" lon="7.840429041534662">
        <ele>723.04999999999995</ele>
        <time>2025-05-19T09:54:35Z</time>
      </trkpt>
      <trkpt lat="44.017024962231517" lon="7.84036198630929">
        <ele>723.52999999999997</ele>
        <time>2025-05-19T09:54:36Z</time>
      </trkpt>
      <trkpt lat="44.016981963068247" lon="7.840269031003118">
        <ele>723.52999999999997</ele>
        <time>2025-05-19T09:54:37Z</time>
      </trkpt>
      <trkpt lat="44.016981963068247" lon="7.840269031003118">
        <ele>723.52999999999997</ele>
        <time>2025-05-19T09:54:38Z</time>
      </trkpt>
      <trkpt lat="44.016981963068247" lon="7.840269031003118">
        <ele>724.00999999999999</ele>
        <time>2025-05-19T09:54:39Z</time>
      </trkpt>
      <trkpt lat="44.016981963068247" lon="7.839839039370418">
        <ele>724.00999999999999</ele>
        <time>2025-05-19T09:54:42Z</time>
      </trkpt>
      <trkpt lat="44.016981963068247" lon="7.839558999985457">
        <ele>725.45000000000005</ele>
        <time>2025-05-19T09:54:45Z</time>
      </trkpt>
      <trkpt lat="44.016981963068247" lon="7.839452968910337">
        <ele>725.92999999999995</ele>
        <time>2025-05-19T09:54:46Z</time>
      </trkpt>
      <trkpt lat="44.017046000808477" lon="7.839346015825868">
        <ele>726.88999999999999</ele>
        <time>2025-05-19T09:54:48Z</time>
      </trkpt>
      <trkpt lat="44.017046000808477" lon="7.839346015825868">
        <ele>726.88999999999999</ele>
        <time>2025-05-19T09:54:49Z</time>
      </trkpt>
      <trkpt lat="44.017216991633177" lon="7.839261023327708">
        <ele>727.37</ele>
        <time>2025-05-19T09:54:50Z</time>
      </trkpt>
      <trkpt lat="44.017497031018138" lon="7.838851986452937">
        <ele>727.37</ele>
        <time>2025-05-19T09:54:53Z</time>
      </trkpt>
      <trkpt lat="44.017582023516297" lon="7.838816028088331">
        <ele>726.88999999999999</ele>
        <time>2025-05-19T09:54:54Z</time>
      </trkpt>
      <trkpt lat="44.017856027930975" lon="7.838769005611539">
        <ele>725.92999999999995</ele>
        <time>2025-05-19T09:54:56Z</time>
      </trkpt>
      <trkpt lat="44.017797019332647" lon="7.838723994791508">
        <ele>726.88999999999999</ele>
        <time>2025-05-19T09:54:57Z</time>
      </trkpt>
      <trkpt lat="44.018075969070196" lon="7.838937984779477">
        <ele>726.40999999999997</ele>
        <time>2025-05-19T09:54:58Z</time>
      </trkpt>
      <trkpt lat="44.018075969070196" lon="7.838937984779477">
        <ele>725.45000000000005</ele>
        <time>2025-05-19T09:54:59Z</time>
      </trkpt>
      <trkpt lat="44.018140006810427" lon="7.838934967294335">
        <ele>724.97000000000003</ele>
        <time>2025-05-19T09:55:00Z</time>
      </trkpt>
      <trkpt lat="44.018217036500573" lon="7.838930021971464">
        <ele>724.97000000000003</ele>
        <time>2025-05-19T09:55:01Z</time>
      </trkpt>
      <trkpt lat="44.018441000953317" lon="7.838917030021548">
        <ele>723.52999999999997</ele>
        <time>2025-05-19T09:55:04Z</time>
      </trkpt>
      <trkpt lat="44.019125970080495" lon="7.838874030858278">
        <ele>722.57000000000005</ele>
        <time>2025-05-19T09:55:09Z</time>
      </trkpt>
      <trkpt lat="44.019191013649106" lon="7.838821979239583">
        <ele>722.57000000000005</ele>
        <time>2025-05-19T09:55:10Z</time>
      </trkpt>
      <trkpt lat="44.019276006147265" lon="7.838752996176481">
        <ele>722.57000000000005</ele>
        <time>2025-05-19T09:55:11Z</time>
      </trkpt>
      <trkpt lat="44.019359992817044" lon="7.83868401311338">
        <ele>722.57000000000005</ele>
        <time>2025-05-19T09:55:12Z</time>
      </trkpt>
      <trkpt lat="44.019363010302186" lon="7.838680995628238">
        <ele>722.09000000000003</ele>
        <time>2025-05-19T09:55:13Z</time>
      </trkpt>
      <trkpt lat="44.019422018900514" lon="7.83853598870337">
        <ele>722.09000000000003</ele>
        <time>2025-05-19T09:55:14Z</time>
      </trkpt>
      <trkpt lat="44.019469963386655" lon="7.838415037840605">
        <ele>721.61000000000001</ele>
        <time>2025-05-19T09:55:15Z</time>
      </trkpt>
      <trkpt lat="44.019508017227054" lon="7.83832099288702">
        <ele>721.61000000000001</ele>
        <time>2025-05-19T09:55:16Z</time>
      </trkpt>
      <trkpt lat="44.019679008051753" lon="7.838013963773847">
        <ele>720.15999999999997</ele>
        <time>2025-05-19T09:55:18Z</time>
      </trkpt>
      <trkpt lat="44.019849998876452" lon="7.838074984028935">
        <ele>719.20000000000005</ele>
        <time>2025-05-19T09:55:19Z</time>
      </trkpt>
      <trkpt lat="44.019917976111174" lon="7.838121000677347">
        <ele>718.24000000000001</ele>
        <time>2025-05-19T09:55:20Z</time>
      </trkpt>
      <trkpt lat="44.019920993596315" lon="7.838123012334108">
        <ele>717.75999999999999</ele>
        <time>2025-05-19T09:55:21Z</time>
      </trkpt>
      <trkpt lat="44.019956029951572" lon="7.838295008987188">
        <ele>717.75999999999999</ele>
        <time>2025-05-19T09:55:22Z</time>
      </trkpt>
      <trkpt lat="44.019963992759585" lon="7.838338008150458">
        <ele>719.67999999999995</ele>
        <time>2025-05-19T09:55:23Z</time>
      </trkpt>
      <trkpt lat="44.019963992759585" lon="7.838338008150458">
        <ele>720.64999999999998</ele>
        <time>2025-05-19T09:55:24Z</time>
      </trkpt>
      <trkpt lat="44.019963992759585" lon="7.838338008150458">
        <ele>721.61000000000001</ele>
        <time>2025-05-19T09:55:25Z</time>
      </trkpt>
      <trkpt lat="44.019905989989638" lon="7.838593991473317">
        <ele>722.09000000000003</ele>
        <time>2025-05-19T09:55:27Z</time>
      </trkpt>
      <trkpt lat="44.01986600831151" lon="7.838774034753442">
        <ele>722.09000000000003</ele>
        <time>2025-05-19T09:55:28Z</time>
      </trkpt>
      <trkpt lat="44.019443979486823" lon="7.839564029127359">
        <ele>719.67999999999995</ele>
        <time>2025-05-19T09:55:33Z</time>
      </trkpt>
      <trkpt lat="44.019317999482155" lon="7.839648015797138">
        <ele>718.24000000000001</ele>
        <time>2025-05-19T09:55:34Z</time>
      </trkpt>
      <trkpt lat="44.019058998674154" lon="7.839796040207148">
        <ele>715.36000000000001</ele>
        <time>2025-05-19T09:55:36Z</time>
      </trkpt>
      <trkpt lat="44.018926983699203" lon="7.839837027713656">
        <ele>713.91999999999996</ele>
        <time>2025-05-19T09:55:37Z</time>
      </trkpt>
      <trkpt lat="44.018783988431096" lon="7.839882038533688">
        <ele>712.95000000000005</ele>
        <time>2025-05-19T09:55:38Z</time>
      </trkpt>
      <trkpt lat="44.018668988719583" lon="7.83988899551332">
        <ele>711.99000000000001</ele>
        <time>2025-05-19T09:55:39Z</time>
      </trkpt>
      <trkpt lat="44.018566980957985" lon="7.839895030483604">
        <ele>711.02999999999997</ele>
        <time>2025-05-19T09:55:40Z</time>
      </trkpt>
      <trkpt lat="44.018419040367007" lon="7.839903999119997">
        <ele>710.54999999999995</ele>
        <time>2025-05-19T09:55:41Z</time>
      </trkpt>
      <trkpt lat="44.018272021785378" lon="7.840067027136684">
        <ele>710.54999999999995</ele>
        <time>2025-05-19T09:55:42Z</time>
      </trkpt>
      <trkpt lat="44.018280990421772" lon="7.840147996321321">
        <ele>710.07000000000005</ele>
        <time>2025-05-19T09:55:43Z</time>
      </trkpt>
      <trkpt lat="44.018316026777029" lon="7.840319992974401">
        <ele>710.07000000000005</ele>
        <time>2025-05-19T09:55:44Z</time>
      </trkpt>
      <trkpt lat="44.01836003176868" lon="7.840443961322308">
        <ele>709.59000000000003</ele>
        <time>2025-05-19T09:55:45Z</time>
      </trkpt>
      <trkpt lat="44.018501015380025" lon="7.840772029012442">
        <ele>709.59000000000003</ele>
        <time>2025-05-19T09:55:47Z</time>
      </trkpt>
      <trkpt lat="44.018587013706565" lon="7.840906977653503">
        <ele>709.59000000000003</ele>
        <time>2025-05-19T09:55:48Z</time>
      </trkpt>
      <trkpt lat="44.018977023661137" lon="7.841621031984687">
        <ele>709.59000000000003</ele>
        <time>2025-05-19T09:55:54Z</time>
      </trkpt>
      <trkpt lat="44.018991021439433" lon="7.841804008930922">
        <ele>709.11000000000001</ele>
        <time>2025-05-19T09:55:55Z</time>
      </trkpt>
      <trkpt lat="44.019000995904207" lon="7.841927977278829">
        <ele>709.11000000000001</ele>
        <time>2025-05-19T09:55:56Z</time>
      </trkpt>
      <trkpt lat="44.019010970368981" lon="7.842062003910542">
        <ele>708.63</ele>
        <time>2025-05-19T09:55:57Z</time>
      </trkpt>
      <trkpt lat="44.019020022824407" lon="7.842178009450436">
        <ele>708.14999999999998</ele>
        <time>2025-05-19T09:55:58Z</time>
      </trkpt>
      <trkpt lat="44.018988003954291" lon="7.842288985848427">
        <ele>707.66999999999996</ele>
        <time>2025-05-19T09:55:59Z</time>
      </trkpt>
      <trkpt lat="44.018943998962641" lon="7.842438016086817">
        <ele>707.19000000000005</ele>
        <time>2025-05-19T09:56:00Z</time>
      </trkpt>
      <trkpt lat="44.018708970397711" lon="7.843065988272429">
        <ele>705.25999999999999</ele>
        <time>2025-05-19T09:56:05Z</time>
      </trkpt>
      <trkpt lat="44.018643004819751" lon="7.843126002699137">
        <ele>705.25999999999999</ele>
        <time>2025-05-19T09:56:06Z</time>
      </trkpt>
      <trkpt lat="44.018567986786366" lon="7.843193979933858">
        <ele>705.25999999999999</ele>
        <time>2025-05-19T09:56:07Z</time>
      </trkpt>
      <trkpt lat="44.018494980409741" lon="7.843273021280766">
        <ele>704.77999999999997</ele>
        <time>2025-05-19T09:56:08Z</time>
      </trkpt>
      <trkpt lat="44.018441000953317" lon="7.84339296631515">
        <ele>704.77999999999997</ele>
        <time>2025-05-19T09:56:09Z</time>
      </trkpt>
      <trkpt lat="44.018378974869847" lon="7.843529004603624">
        <ele>704.29999999999995</ele>
        <time>2025-05-19T09:56:10Z</time>
      </trkpt>
      <trkpt lat="44.018310997635126" lon="7.843678034842014">
        <ele>704.29999999999995</ele>
        <time>2025-05-19T09:56:11Z</time>
      </trkpt>
      <trkpt lat="44.018230028450489" lon="7.843814995139837">
        <ele>704.29999999999995</ele>
        <time>2025-05-19T09:56:12Z</time>
      </trkpt>
      <trkpt lat="44.018152998760343" lon="7.84392898902297">
        <ele>704.29999999999995</ele>
        <time>2025-05-19T09:56:13Z</time>
      </trkpt>
      <trkpt lat="44.017955018207431" lon="7.844090005382896">
        <ele>704.29999999999995</ele>
        <time>2025-05-19T09:56:15Z</time>
      </trkpt>
      <trkpt lat="44.017860973253846" lon="7.844153037294745">
        <ele>704.77999999999997</ele>
        <time>2025-05-19T09:56:16Z</time>
      </trkpt>
      <trkpt lat="44.017740022391081" lon="7.844188995659351">
        <ele>704.77999999999997</ele>
        <time>2025-05-19T09:56:17Z</time>
      </trkpt>
      <trkpt lat="44.017527038231492" lon="7.844254039227963">
        <ele>704.29999999999995</ele>
        <time>2025-05-19T09:56:19Z</time>
      </trkpt>
      <trkpt lat="44.017431987449527" lon="7.844283040612936">
        <ele>703.82000000000005</ele>
        <time>2025-05-19T09:56:20Z</time>
      </trkpt>
      <trkpt lat="44.017280023545027" lon="7.844408014789224">
        <ele>704.29999999999995</ele>
        <time>2025-05-19T09:56:22Z</time>
      </trkpt>
      <trkpt lat="44.017260996624827" lon="7.844430981203914">
        <ele>703.82000000000005</ele>
        <time>2025-05-19T09:56:23Z</time>
      </trkpt>
      <trkpt lat="44.017280023545027" lon="7.844479009509087">
        <ele>703.82000000000005</ele>
        <time>2025-05-19T09:56:24Z</time>
      </trkpt>
      <trkpt lat="44.017303995788097" lon="7.844539023935795">
        <ele>703.82000000000005</ele>
        <time>2025-05-19T09:56:25Z</time>
      </trkpt>
      <trkpt lat="44.017343977466226" lon="7.844584034755826">
        <ele>703.34000000000003</ele>
        <time>2025-05-19T09:56:26Z</time>
      </trkpt>
      <trkpt lat="44.017421007156372" lon="7.844670033082366">
        <ele>702.38</ele>
        <time>2025-05-19T09:56:27Z</time>
      </trkpt>
      <trkpt lat="44.017860973253846" lon="7.845160961151123">
        <ele>700.46000000000004</ele>
        <time>2025-05-19T09:56:31Z</time>
      </trkpt>
      <trkpt lat="44.017905984073877" lon="7.845272021368146">
        <ele>699.98000000000002</ele>
        <time>2025-05-19T09:56:32Z</time>
      </trkpt>
      <trkpt lat="44.017970021814108" lon="7.845432031899691">
        <ele>699.98000000000002</ele>
        <time>2025-05-19T09:56:33Z</time>
      </trkpt>
      <trkpt lat="44.018030958250165" lon="7.845583995804191">
        <ele>699.5</ele>
        <time>2025-05-19T09:56:34Z</time>
      </trkpt>
      <trkpt lat="44.018084015697241" lon="7.845717016607523">
        <ele>699.01999999999998</ele>
        <time>2025-05-19T09:56:35Z</time>
      </trkpt>
      <trkpt lat="44.018129026517272" lon="7.845828998833895">
        <ele>699.01999999999998</ele>
        <time>2025-05-19T09:56:36Z</time>
      </trkpt>
      <trkpt lat="44.018171019852161" lon="7.845917008817196">
        <ele>699.01999999999998</ele>
        <time>2025-05-19T09:56:37Z</time>
      </trkpt>
      <trkpt lat="44.018265986815095" lon="7.845965959131718">
        <ele>698.52999999999997</ele>
        <time>2025-05-19T09:56:38Z</time>
      </trkpt>
      <trkpt lat="44.018372017890215" lon="7.846021028235555">
        <ele>698.04999999999995</ele>
        <time>2025-05-19T09:56:39Z</time>
      </trkpt>
      <trkpt lat="44.018586007878184" lon="7.846133010461927">
        <ele>697.57000000000005</ele>
        <time>2025-05-19T09:56:41Z</time>
      </trkpt>
      <trkpt lat="44.01866203173995" lon="7.846175003796816">
        <ele>697.09000000000003</ele>
        <time>2025-05-19T09:56:42Z</time>
      </trkpt>
      <trkpt lat="44.018721962347627" lon="7.846221020445228">
        <ele>697.09000000000003</ele>
        <time>2025-05-19T09:56:43Z</time>
      </trkpt>
      <trkpt lat="44.018767978996038" lon="7.846256978809834">
        <ele>696.61000000000001</ele>
        <time>2025-05-19T09:56:44Z</time>
      </trkpt>
      <trkpt lat="44.018848026171327" lon="7.846324034035206">
        <ele>696.61000000000001</ele>
        <time>2025-05-19T09:56:45Z</time>
      </trkpt>
      <trkpt lat="44.018841991201043" lon="7.846373990178108">
        <ele>696.13</ele>
        <time>2025-05-19T09:56:46Z</time>
      </trkpt>
      <trkpt lat="44.018741995096207" lon="7.846527965739369">
        <ele>695.64999999999998</ele>
        <time>2025-05-19T09:56:47Z</time>
      </trkpt>
      <trkpt lat="44.018669994547963" lon="7.846558978781104">
        <ele>695.16999999999996</ele>
        <time>2025-05-19T09:56:48Z</time>
      </trkpt>
      <trkpt lat="44.01857603341341" lon="7.846598960459232">
        <ele>694.21000000000004</ele>
        <time>2025-05-19T09:56:49Z</time>
      </trkpt>
      <trkpt lat="44.018467990681529" lon="7.846644977107644">
        <ele>693.73000000000002</ele>
        <time>2025-05-19T09:56:50Z</time>
      </trkpt>
      <trkpt lat="44.018117962405086" lon="7.846756037324667">
        <ele>691.80999999999995</ele>
        <time>2025-05-19T09:56:53Z</time>
      </trkpt>
      <trkpt lat="44.018010003492236" lon="7.846762994304299">
        <ele>690.84000000000003</ele>
        <time>2025-05-19T09:56:54Z</time>
      </trkpt>
      <trkpt lat="44.017904978245497" lon="7.846770035102963">
        <ele>690.36000000000001</ele>
        <time>2025-05-19T09:56:55Z</time>
      </trkpt>
      <trkpt lat="44.017801964655519" lon="7.846727035939694">
        <ele>689.88</ele>
        <time>2025-05-19T09:56:56Z</time>
      </trkpt>
      <trkpt lat="44.017700040712953" lon="7.846684036776424">
        <ele>688.91999999999996</ele>
        <time>2025-05-19T09:56:57Z</time>
      </trkpt>
      <trkpt lat="44.017595015466213" lon="7.846640031784773">
        <ele>688.44000000000005</ele>
        <time>2025-05-19T09:56:58Z</time>
      </trkpt>
      <trkpt lat="44.017498958855867" lon="7.846599966287613">
        <ele>687.96000000000004</ele>
        <time>2025-05-19T09:56:59Z</time>
      </trkpt>
      <trkpt lat="44.017420001327991" lon="7.846617987379432">
        <ele>687.48000000000002</ele>
        <time>2025-05-19T09:57:00Z</time>
      </trkpt>
      <trkpt lat="44.017397034913301" lon="7.846676995977759">
        <ele>686.51999999999998</ele>
        <time>2025-05-19T09:57:01Z</time>
      </trkpt>
      <trkpt lat="44.017345989122987" lon="7.846878999844194">
        <ele>685.55999999999995</ele>
        <time>2025-05-19T09:57:03Z</time>
      </trkpt>
      <trkpt lat="44.017110038548708" lon="7.847520969808102">
        <ele>683.63</ele>
        <time>2025-05-19T09:57:07Z</time>
      </trkpt>
      <trkpt lat="44.017011970281601" lon="7.847619038075209">
        <ele>683.14999999999998</ele>
        <time>2025-05-19T09:57:08Z</time>
      </trkpt>
      <trkpt lat="44.016920020803809" lon="7.847675029188395">
        <ele>682.66999999999996</ele>
        <time>2025-05-19T09:57:09Z</time>
      </trkpt>
      <trkpt lat="44.01683796197176" lon="7.847720040008426">
        <ele>682.19000000000005</ele>
        <time>2025-05-19T09:57:10Z</time>
      </trkpt>
      <trkpt lat="44.016809966415167" lon="7.847735965624452">
        <ele>681.71000000000004</ele>
        <time>2025-05-19T09:57:11Z</time>
      </trkpt>
      <trkpt lat="44.016761016100645" lon="7.847846020013094">
        <ele>681.71000000000004</ele>
        <time>2025-05-19T09:57:12Z</time>
      </trkpt>
      <trkpt lat="44.016723968088627" lon="7.847929000854492">
        <ele>681.23000000000002</ele>
        <time>2025-05-19T09:57:13Z</time>
      </trkpt>
      <trkpt lat="44.016727991402149" lon="7.848027991130948">
        <ele>681.23000000000002</ele>
        <time>2025-05-19T09:57:14Z</time>
      </trkpt>
      <trkpt lat="44.016733020544052" lon="7.848166963085532">
        <ele>681.23000000000002</ele>
        <time>2025-05-19T09:57:15Z</time>
      </trkpt>
      <trkpt lat="44.016739977523685" lon="7.848328985273838">
        <ele>680.75</ele>
        <time>2025-05-19T09:57:16Z</time>
      </trkpt>
      <trkpt lat="44.016766967251897" lon="7.849023006856442">
        <ele>679.78999999999996</ele>
        <time>2025-05-19T09:57:20Z</time>
      </trkpt>
      <trkpt lat="44.016812983900309" lon="7.849156027659774">
        <ele>679.78999999999996</ele>
        <time>2025-05-19T09:57:21Z</time>
      </trkpt>
      <trkpt lat="44.01685799472034" lon="7.849286030977964">
        <ele>679.30999999999995</ele>
        <time>2025-05-19T09:57:22Z</time>
      </trkpt>
      <trkpt lat="44.016947010532022" lon="7.849544025957584">
        <ele>679.30999999999995</ele>
        <time>2025-05-19T09:57:24Z</time>
      </trkpt>
      <trkpt lat="44.016974000260234" lon="7.849661037325859">
        <ele>678.83000000000004</ele>
        <time>2025-05-19T09:57:25Z</time>
      </trkpt>
      <trkpt lat="44.016962014138699" lon="7.849749969318509">
        <ele>677.87</ele>
        <time>2025-05-19T09:57:26Z</time>
      </trkpt>
      <trkpt lat="44.016925971955061" lon="7.849820964038372">
        <ele>677.38999999999999</ele>
        <time>2025-05-19T09:57:27Z</time>
      </trkpt>
      <trkpt lat="44.016890013590455" lon="7.849839990958571">
        <ele>676.90999999999997</ele>
        <time>2025-05-19T09:57:28Z</time>
      </trkpt>
      <trkpt lat="44.016821030527353" lon="7.849844014272094">
        <ele>676.90999999999997</ele>
        <time>2025-05-19T09:57:29Z</time>
      </trkpt>
      <trkpt lat="44.016736960038543" lon="7.849848037585616">
        <ele>675.94000000000005</ele>
        <time>2025-05-19T09:57:30Z</time>
      </trkpt>
      <trkpt lat="44.016645010560751" lon="7.849852982908487">
        <ele>675.46000000000004</ele>
        <time>2025-05-19T09:57:31Z</time>
      </trkpt>
      <trkpt lat="44.016552977263927" lon="7.84985801205039">
        <ele>674.98000000000002</ele>
        <time>2025-05-19T09:57:32Z</time>
      </trkpt>
      <trkpt lat="44.016459016129375" lon="7.849886007606983">
        <ele>674.5</ele>
        <time>2025-05-19T09:57:33Z</time>
      </trkpt>
      <trkpt lat="44.016371006146073" lon="7.849963959306479">
        <ele>674.01999999999998</ele>
        <time>2025-05-19T09:57:34Z</time>
      </trkpt>
      <trkpt lat="44.016349967569113" lon="7.850047023966909">
        <ele>673.53999999999996</ele>
        <time>2025-05-19T09:57:35Z</time>
      </trkpt>
      <trkpt lat="44.0163229778409" lon="7.850154982879758">
        <ele>673.05999999999995</ele>
        <time>2025-05-19T09:57:36Z</time>
      </trkpt>
      <trkpt lat="44.016288025304675" lon="7.850294960662723">
        <ele>672.10000000000002</ele>
        <time>2025-05-19T09:57:37Z</time>
      </trkpt>
      <trkpt lat="44.016251983121037" lon="7.85043996758759">
        <ele>671.62</ele>
        <time>2025-05-19T09:57:38Z</time>
      </trkpt>
      <trkpt lat="44.01617000810802" lon="7.850627973675728">
        <ele>671.13999999999999</ele>
        <time>2025-05-19T09:57:39Z</time>
      </trkpt>
      <trkpt lat="44.016097001731396" lon="7.850789995864034">
        <ele>670.17999999999995</ele>
        <time>2025-05-19T09:57:40Z</time>
      </trkpt>
      <trkpt lat="44.016008991748095" lon="7.850922010838985">
        <ele>669.70000000000005</ele>
        <time>2025-05-19T09:57:41Z</time>
      </trkpt>
      <trkpt lat="44.015859961509705" lon="7.851145975291729">
        <ele>669.22000000000003</ele>
        <time>2025-05-19T09:57:43Z</time>
      </trkpt>
      <trkpt lat="44.015815034508705" lon="7.851286958903074">
        <ele>668.73000000000002</ele>
        <time>2025-05-19T09:57:44Z</time>
      </trkpt>
      <trkpt lat="44.015742028132081" lon="7.851736983284354">
        <ele>667.28999999999996</ele>
        <time>2025-05-19T09:57:47Z</time>
      </trkpt>
      <trkpt lat="44.015744961798191" lon="7.851890958845615">
        <ele>666.80999999999995</ele>
        <time>2025-05-19T09:57:48Z</time>
      </trkpt>
      <trkpt lat="44.015755020081997" lon="7.852044012397528">
        <ele>666.33000000000004</ele>
        <time>2025-05-19T09:57:49Z</time>
      </trkpt>
      <trkpt lat="44.015774969011545" lon="7.852340983226895">
        <ele>665.37</ele>
        <time>2025-05-19T09:57:51Z</time>
      </trkpt>
      <trkpt lat="44.015755020081997" lon="7.852459000423551">
        <ele>664.88999999999999</ele>
        <time>2025-05-19T09:57:52Z</time>
      </trkpt>
      <trkpt lat="44.015710009261966" lon="7.852539969608188">
        <ele>664.40999999999997</ele>
        <time>2025-05-19T09:57:53Z</time>
      </trkpt>
      <trkpt lat="44.015672961249948" lon="7.85260702483356">
        <ele>663.92999999999995</ele>
        <time>2025-05-19T09:57:54Z</time>
      </trkpt>
      <trkpt lat="44.015574976801872" lon="7.852640971541405">
        <ele>663.45000000000005</ele>
        <time>2025-05-19T09:57:55Z</time>
      </trkpt>
      <trkpt lat="44.015485960990191" lon="7.852671984583139">
        <ele>662.49000000000001</ele>
        <time>2025-05-19T09:57:56Z</time>
      </trkpt>
      <trkpt lat="44.015399962663651" lon="7.852702997624874">
        <ele>661.51999999999998</ele>
        <time>2025-05-19T09:57:57Z</time>
      </trkpt>
      <trkpt lat="44.015288986265659" lon="7.852755971252918">
        <ele>661.03999999999996</ele>
        <time>2025-05-19T09:57:58Z</time>
      </trkpt>
      <trkpt lat="44.015050018206239" lon="7.853014972060919">
        <ele>656.72000000000003</ele>
        <time>2025-05-19T09:58:02Z</time>
      </trkpt>
      <trkpt lat="44.014932001009583" lon="7.852998040616512">
        <ele>655.75999999999999</ele>
        <time>2025-05-19T09:58:03Z</time>
      </trkpt>
      <trkpt lat="44.014835022389889" lon="7.852983959019184">
        <ele>654.79999999999995</ele>
        <time>2025-05-19T09:58:04Z</time>
      </trkpt>
      <trkpt lat="44.014591025188565" lon="7.853009020909667">
        <ele>653.83000000000004</ele>
        <time>2025-05-19T09:58:06Z</time>
      </trkpt>
      <trkpt lat="44.014481976628304" lon="7.853035004809499">
        <ele>653.35000000000002</ele>
        <time>2025-05-19T09:58:07Z</time>
      </trkpt>
      <trkpt lat="44.014388015493751" lon="7.853057971224189">
        <ele>652.38999999999999</ele>
        <time>2025-05-19T09:58:08Z</time>
      </trkpt>
      <trkpt lat="44.014317020773888" lon="7.853074986487627">
        <ele>651.42999999999995</ele>
        <time>2025-05-19T09:58:09Z</time>
      </trkpt>
      <trkpt lat="44.014272009953856" lon="7.853041961789131">
        <ele>650.47000000000003</ele>
        <time>2025-05-19T09:58:10Z</time>
      </trkpt>
      <trkpt lat="44.014234039932489" lon="7.852992005646229">
        <ele>649.50999999999999</ele>
        <time>2025-05-19T09:58:11Z</time>
      </trkpt>
      <trkpt lat="44.01419498026371" lon="7.852940037846565">
        <ele>648.07000000000005</ele>
        <time>2025-05-19T09:58:12Z</time>
      </trkpt>
      <trkpt lat="44.01415198110044" lon="7.852883040904999">
        <ele>647.10000000000002</ele>
        <time>2025-05-19T09:58:13Z</time>
      </trkpt>
      <trkpt lat="44.014088027179241" lon="7.852824032306671">
        <ele>645.65999999999997</ele>
        <time>2025-05-19T09:58:14Z</time>
      </trkpt>
      <trkpt lat="44.013977972790599" lon="7.852842975407839">
        <ele>644.70000000000005</ele>
        <time>2025-05-19T09:58:15Z</time>
      </trkpt>
      <trkpt lat="44.013922987505794" lon="7.852923022583127">
        <ele>644.22000000000003</ele>
        <time>2025-05-19T09:58:16Z</time>
      </trkpt>
      <trkpt lat="44.013846963644028" lon="7.853031987324357">
        <ele>643.25999999999999</ele>
        <time>2025-05-19T09:58:17Z</time>
      </trkpt>
      <trkpt lat="44.013780998066068" lon="7.853127960115671">
        <ele>642.77999999999997</ele>
        <time>2025-05-19T09:58:18Z</time>
      </trkpt>
      <trkpt lat="44.013740010559559" lon="7.853239020332694">
        <ele>641.82000000000005</ele>
        <time>2025-05-19T09:58:19Z</time>
      </trkpt>
      <trkpt lat="44.013735987246037" lon="7.85333801060915">
        <ele>640.86000000000001</ele>
        <time>2025-05-19T09:58:20Z</time>
      </trkpt>
      <trkpt lat="44.013727018609643" lon="7.853569015860558">
        <ele>638.45000000000005</ele>
        <time>2025-05-19T09:58:22Z</time>
      </trkpt>
      <trkpt lat="44.013719977810979" lon="7.853744029998779">
        <ele>637.49000000000001</ele>
        <time>2025-05-19T09:58:23Z</time>
      </trkpt>
      <trkpt lat="44.013675972819328" lon="7.85378803499043">
        <ele>636.52999999999997</ele>
        <time>2025-05-19T09:58:24Z</time>
      </trkpt>
      <trkpt lat="44.013526020571589" lon="7.853937987238169">
        <ele>634.61000000000001</ele>
        <time>2025-05-19T09:58:26Z</time>
      </trkpt>
      <trkpt lat="44.01344102807343" lon="7.854022979736328">
        <ele>634.13</ele>
        <time>2025-05-19T09:58:27Z</time>
      </trkpt>
      <trkpt lat="44.013402974233031" lon="7.854126999154687">
        <ele>633.16999999999996</ele>
        <time>2025-05-19T09:58:28Z</time>
      </trkpt>
      <trkpt lat="44.01335502974689" lon="7.854259014129639">
        <ele>632.67999999999995</ele>
        <time>2025-05-19T09:58:29Z</time>
      </trkpt>
      <trkpt lat="44.013360980898142" lon="7.854335037991405">
        <ele>632.67999999999995</ele>
        <time>2025-05-19T09:58:30Z</time>
      </trkpt>
      <trkpt lat="44.013373972848058" lon="7.854493958875537">
        <ele>632.20000000000005</ele>
        <time>2025-05-19T09:58:31Z</time>
      </trkpt>
      <trkpt lat="44.013433987274766" lon="7.855242965742946">
        <ele>630.75999999999999</ele>
        <time>2025-05-19T09:58:35Z</time>
      </trkpt>
      <trkpt lat="44.013428958132863" lon="7.855436000972986">
        <ele>629.79999999999995</ele>
        <time>2025-05-19T09:58:36Z</time>
      </trkpt>
      <trkpt lat="44.013409009203315" lon="7.855604980140925">
        <ele>628.84000000000003</ele>
        <time>2025-05-19T09:58:37Z</time>
      </trkpt>
      <trkpt lat="44.013385036960244" lon="7.855764990672469">
        <ele>628.36000000000001</ele>
        <time>2025-05-19T09:58:38Z</time>
      </trkpt>
      <trkpt lat="44.013357963413" lon="7.855900023132563">
        <ele>627.88</ele>
        <time>2025-05-19T09:58:39Z</time>
      </trkpt>
      <trkpt lat="44.013332985341549" lon="7.856021979823709">
        <ele>627.39999999999998</ele>
        <time>2025-05-19T09:58:40Z</time>
      </trkpt>
      <trkpt lat="44.01331496424973" lon="7.856147959828377">
        <ele>626.91999999999996</ele>
        <time>2025-05-19T09:58:41Z</time>
      </trkpt>
      <trkpt lat="44.013330973684788" lon="7.856287015601993">
        <ele>626.44000000000005</ele>
        <time>2025-05-19T09:58:42Z</time>
      </trkpt>
      <trkpt lat="44.013363998383284" lon="7.856579041108489">
        <ele>624.99000000000001</ele>
        <time>2025-05-19T09:58:44Z</time>
      </trkpt>
      <trkpt lat="44.013381013646722" lon="7.856722958385944">
        <ele>624.50999999999999</ele>
        <time>2025-05-19T09:58:45Z</time>
      </trkpt>
      <trkpt lat="44.013395011425018" lon="7.856892021372914">
        <ele>624.02999999999997</ele>
        <time>2025-05-19T09:58:46Z</time>
      </trkpt>
      <trkpt lat="44.013362992554903" lon="7.857041973620653">
        <ele>623.07000000000005</ele>
        <time>2025-05-19T09:58:47Z</time>
      </trkpt>
      <trkpt lat="44.013329967856407" lon="7.857196033000946">
        <ele>622.59000000000003</ele>
        <time>2025-05-19T09:58:48Z</time>
      </trkpt>
      <trkpt lat="44.013296021148562" lon="7.85735503770411">
        <ele>622.11000000000001</ele>
        <time>2025-05-19T09:58:49Z</time>
      </trkpt>
      <trkpt lat="44.013261990621686" lon="7.857512030750513">
        <ele>621.14999999999998</ele>
        <time>2025-05-19T09:58:50Z</time>
      </trkpt>
      <trkpt lat="44.013194013386965" lon="7.857809001579881">
        <ele>620.19000000000005</ele>
        <time>2025-05-19T09:58:52Z</time>
      </trkpt>
      <trkpt lat="44.013109020888805" lon="7.858048975467682">
        <ele>618.75</ele>
        <time>2025-05-19T09:58:54Z</time>
      </trkpt>
      <trkpt lat="44.013082031160593" lon="7.858163975179195">
        <ele>617.77999999999997</ele>
        <time>2025-05-19T09:58:55Z</time>
      </trkpt>
      <trkpt lat="44.013112038373947" lon="7.858281992375851">
        <ele>616.82000000000005</ele>
        <time>2025-05-19T09:58:56Z</time>
      </trkpt>
      <trkpt lat="44.013180015608668" lon="7.858541999012232">
        <ele>614.41999999999996</ele>
        <time>2025-05-19T09:58:58Z</time>
      </trkpt>
      <trkpt lat="44.013208011165261" lon="7.858650963753462">
        <ele>613.46000000000004</ele>
        <time>2025-05-19T09:58:59Z</time>
      </trkpt>
      <trkpt lat="44.013262996450067" lon="7.858771998435259">
        <ele>612.98000000000002</ele>
        <time>2025-05-19T09:59:00Z</time>
      </trkpt>
      <trkpt lat="44.013317981734872" lon="7.858847016468644">
        <ele>612.01999999999998</ele>
        <time>2025-05-19T09:59:01Z</time>
      </trkpt>
      <trkpt lat="44.013369027525187" lon="7.858917005360127">
        <ele>611.05999999999995</ele>
        <time>2025-05-19T09:59:02Z</time>
      </trkpt>
      <trkpt lat="44.013417977839708" lon="7.858983976766467">
        <ele>610.09000000000003</ele>
        <time>2025-05-19T09:59:03Z</time>
      </trkpt>
      <trkpt lat="44.013462988659739" lon="7.859043991193175">
        <ele>609.13</ele>
        <time>2025-05-19T09:59:04Z</time>
      </trkpt>
      <trkpt lat="44.013467011973262" lon="7.859178017824888">
        <ele>608.64999999999998</ele>
        <time>2025-05-19T09:59:05Z</time>
      </trkpt>
      <trkpt lat="44.013476986438036" lon="7.85948202945292">
        <ele>606.73000000000002</ele>
        <time>2025-05-19T09:59:07Z</time>
      </trkpt>
      <trkpt lat="44.0134840272367" lon="7.859687972813845">
        <ele>605.76999999999998</ele>
        <time>2025-05-19T09:59:08Z</time>
      </trkpt>
      <trkpt lat="44.013467011973262" lon="7.859767014160752">
        <ele>605.28999999999996</ele>
        <time>2025-05-19T09:59:09Z</time>
      </trkpt>
      <trkpt lat="44.013442033901811" lon="7.859877990558744">
        <ele>604.33000000000004</ele>
        <time>2025-05-19T09:59:10Z</time>
      </trkpt>
      <trkpt lat="44.013419989496469" lon="7.85997798666358">
        <ele>603.36000000000001</ele>
        <time>2025-05-19T09:59:11Z</time>
      </trkpt>
      <trkpt lat="44.013428036123514" lon="7.860119976103306">
        <ele>602.88</ele>
        <time>2025-05-19T09:59:12Z</time>
      </trkpt>
      <trkpt lat="44.013492995873094" lon="7.860222989693284">
        <ele>602.39999999999998</ele>
        <time>2025-05-19T09:59:13Z</time>
      </trkpt>
      <trkpt lat="44.013566002249718" lon="7.860337989404798">
        <ele>601.91999999999996</ele>
        <time>2025-05-19T09:59:14Z</time>
      </trkpt>
      <trkpt lat="44.01372198946774" lon="7.860582992434502">
        <ele>600.48000000000002</ele>
        <time>2025-05-19T09:59:16Z</time>
      </trkpt>
      <trkpt lat="44.013801030814648" lon="7.860707966610789">
        <ele>599.51999999999998</ele>
        <time>2025-05-19T09:59:17Z</time>
      </trkpt>
      <trkpt lat="44.013865990564227" lon="7.860839981585741">
        <ele>598.08000000000004</ele>
        <time>2025-05-19T09:59:18Z</time>
      </trkpt>
      <trkpt lat="44.013913013041019" lon="7.860996974632144">
        <ele>596.14999999999998</ele>
        <time>2025-05-19T09:59:19Z</time>
      </trkpt>
      <trkpt lat="44.013940002769232" lon="7.861172994598746">
        <ele>594.23000000000002</ele>
        <time>2025-05-19T09:59:20Z</time>
      </trkpt>
      <trkpt lat="44.013965986669064" lon="7.861349014565349">
        <ele>592.78999999999996</ele>
        <time>2025-05-19T09:59:21Z</time>
      </trkpt>
      <trkpt lat="44.013980990275741" lon="7.861516987904906">
        <ele>590.87</ele>
        <time>2025-05-19T09:59:22Z</time>
      </trkpt>
      <trkpt lat="44.013988031074405" lon="7.861680015921593">
        <ele>589.42999999999995</ele>
        <time>2025-05-19T09:59:23Z</time>
      </trkpt>
      <trkpt lat="44.013994988054037" lon="7.861842038109899">
        <ele>587.98000000000002</ele>
        <time>2025-05-19T09:59:24Z</time>
      </trkpt>
      <trkpt lat="44.013983001932502" lon="7.862017974257469">
        <ele>587.01999999999998</ele>
        <time>2025-05-19T09:59:25Z</time>
      </trkpt>
      <trkpt lat="44.013952994719148" lon="7.862160969525576">
        <ele>585.58000000000004</ele>
        <time>2025-05-19T09:59:26Z</time>
      </trkpt>
      <trkpt lat="44.013928016647696" lon="7.862284015864134">
        <ele>584.13999999999999</ele>
        <time>2025-05-19T09:59:27Z</time>
      </trkpt>
      <trkpt lat="44.013891974464059" lon="7.862456012517214">
        <ele>583.17999999999995</ele>
        <time>2025-05-19T09:59:28Z</time>
      </trkpt>
      <trkpt lat="44.013897003605962" lon="7.862508986145258">
        <ele>582.22000000000003</ele>
        <time>2025-05-19T09:59:29Z</time>
      </trkpt>
      <trkpt lat="44.013909995555878" lon="7.862624991685152">
        <ele>581.25</ele>
        <time>2025-05-19T09:59:30Z</time>
      </trkpt>
      <trkpt lat="44.013921981677413" lon="7.862739991396666">
        <ele>580.28999999999996</ele>
        <time>2025-05-19T09:59:31Z</time>
      </trkpt>
      <trkpt lat="44.013934973627329" lon="7.862863959744573">
        <ele>579.33000000000004</ele>
        <time>2025-05-19T09:59:32Z</time>
      </trkpt>
      <trkpt lat="44.013918964192271" lon="7.862983988597989">
        <ele>578.85000000000002</ele>
        <time>2025-05-19T09:59:33Z</time>
      </trkpt>
      <trkpt lat="44.013891974464059" lon="7.863184986636043">
        <ele>578.37</ele>
        <time>2025-05-19T09:59:34Z</time>
      </trkpt>
      <trkpt lat="44.013899015262723" lon="7.86324399523437">
        <ele>578.37</ele>
        <time>2025-05-19T09:59:35Z</time>
      </trkpt>
      <trkpt lat="44.013929022476077" lon="7.863378021866083">
        <ele>577.88999999999999</ele>
        <time>2025-05-19T09:59:36Z</time>
      </trkpt>
      <trkpt lat="44.013981996104121" lon="7.863449016585946">
        <ele>577.40999999999997</ele>
        <time>2025-05-19T09:59:37Z</time>
      </trkpt>
      <trkpt lat="44.014033041894436" lon="7.863516993820667">
        <ele>577.40999999999997</ele>
        <time>2025-05-19T09:59:38Z</time>
      </trkpt>
      <trkpt lat="44.014105964452028" lon="7.863614978268743">
        <ele>576.45000000000005</ele>
        <time>2025-05-19T09:59:39Z</time>
      </trkpt>
      <trkpt lat="44.014106970280409" lon="7.863619001582265">
        <ele>575.97000000000003</ele>
        <time>2025-05-19T09:59:40Z</time>
      </trkpt>
      <trkpt lat="44.014128008857369" lon="7.863742969930172">
        <ele>575.00999999999999</ele>
        <time>2025-05-19T09:59:41Z</time>
      </trkpt>
      <trkpt lat="44.014110993593931" lon="7.863830979913473">
        <ele>574.03999999999996</ele>
        <time>2025-05-19T09:59:42Z</time>
      </trkpt>
      <trkpt lat="44.014085009694099" lon="7.863969029858708">
        <ele>573.55999999999995</ele>
        <time>2025-05-19T09:59:43Z</time>
      </trkpt>
      <trkpt lat="44.014058019965887" lon="7.864105990156531">
        <ele>572.60000000000002</ele>
        <time>2025-05-19T09:59:44Z</time>
      </trkpt>
      <trkpt lat="44.014019966125488" lon="7.864301037043333">
        <ele>571.63999999999999</ele>
        <time>2025-05-19T09:59:45Z</time>
      </trkpt>
      <trkpt lat="44.013845035806298" lon="7.864605970680714">
        <ele>568.27999999999997</ele>
        <time>2025-05-19T09:59:48Z</time>
      </trkpt>
      <trkpt lat="44.013787033036351" lon="7.86470596678555">
        <ele>567.32000000000005</ele>
        <time>2025-05-19T09:59:49Z</time>
      </trkpt>
      <trkpt lat="44.013735987246037" lon="7.864793976768851">
        <ele>566.35000000000002</ele>
        <time>2025-05-19T09:59:50Z</time>
      </trkpt>
      <trkpt lat="44.013696005567908" lon="7.864881986752152">
        <ele>565.38999999999999</ele>
        <time>2025-05-19T09:59:51Z</time>
      </trkpt>
      <trkpt lat="44.013677984476089" lon="7.865032022818923">
        <ele>564.90999999999997</ele>
        <time>2025-05-19T09:59:52Z</time>
      </trkpt>
      <trkpt lat="44.013722995296121" lon="7.865134030580521">
        <ele>564.42999999999995</ele>
        <time>2025-05-19T09:59:53Z</time>
      </trkpt>
      <trkpt lat="44.013774963095784" lon="7.865250036120415">
        <ele>563.95000000000005</ele>
        <time>2025-05-19T09:59:54Z</time>
      </trkpt>
      <trkpt lat="44.013831038028002" lon="7.865377021953464">
        <ele>563.95000000000005</ele>
        <time>2025-05-19T09:59:55Z</time>
      </trkpt>
      <trkpt lat="44.013889040797949" lon="7.865507025271654">
        <ele>563.47000000000003</ele>
        <time>2025-05-19T09:59:56Z</time>
      </trkpt>
      <trkpt lat="44.013935979455709" lon="7.865630993619561">
        <ele>562.50999999999999</ele>
        <time>2025-05-19T09:59:57Z</time>
      </trkpt>
      <trkpt lat="44.013949977234006" lon="7.865782035514712">
        <ele>561.54999999999995</ele>
        <time>2025-05-19T09:59:58Z</time>
      </trkpt>
      <trkpt lat="44.013951988890767" lon="7.865931987762451">
        <ele>560.59000000000003</ele>
        <time>2025-05-19T09:59:59Z</time>
      </trkpt>
      <trkpt lat="44.013944026082754" lon="7.866084035485983">
        <ele>560.11000000000001</ele>
        <time>2025-05-19T10:00:00Z</time>
      </trkpt>
      <trkpt lat="44.013934973627329" lon="7.866274975240231">
        <ele>560.11000000000001</ele>
        <time>2025-05-19T10:00:01Z</time>
      </trkpt>
      <trkpt lat="44.013952994719148" lon="7.866369020193815">
        <ele>559.62</ele>
        <time>2025-05-19T10:00:02Z</time>
      </trkpt>
      <trkpt lat="44.013992976397276" lon="7.866528024896979">
        <ele>559.13999999999999</ele>
        <time>2025-05-19T10:00:03Z</time>
      </trkpt>
      <trkpt lat="44.014047961682081" lon="7.866659034043551">
        <ele>558.65999999999997</ele>
        <time>2025-05-19T10:00:04Z</time>
      </trkpt>
      <trkpt lat="44.014122979715466" lon="7.866798005998135">
        <ele>558.65999999999997</ele>
        <time>2025-05-19T10:00:05Z</time>
      </trkpt>
      <trkpt lat="44.014203026890755" lon="7.866904959082604">
        <ele>557.70000000000005</ele>
        <time>2025-05-19T10:00:06Z</time>
      </trkpt>
      <trkpt lat="44.014276033267379" lon="7.86700202152133">
        <ele>557.22000000000003</ele>
        <time>2025-05-19T10:00:07Z</time>
      </trkpt>
      <trkpt lat="44.014347027987242" lon="7.867111992090941">
        <ele>557.22000000000003</ele>
        <time>2025-05-19T10:00:08Z</time>
      </trkpt>
      <trkpt lat="44.014384998008609" lon="7.867270996794105">
        <ele>557.22000000000003</ele>
        <time>2025-05-19T10:00:09Z</time>
      </trkpt>
      <trkpt lat="44.014424979686737" lon="7.867438970133662">
        <ele>557.22000000000003</ele>
        <time>2025-05-19T10:00:10Z</time>
      </trkpt>
      <trkpt lat="44.014502009376884" lon="7.867762008681893">
        <ele>556.74000000000001</ele>
        <time>2025-05-19T10:00:12Z</time>
      </trkpt>
      <trkpt lat="44.014535034075379" lon="7.867900980636478">
        <ele>556.74000000000001</ele>
        <time>2025-05-19T10:00:13Z</time>
      </trkpt>
      <trkpt lat="44.014589013531804" lon="7.868036013096571">
        <ele>556.25999999999999</ele>
        <time>2025-05-19T10:00:14Z</time>
      </trkpt>
      <trkpt lat="44.014675011858344" lon="7.868155036121607">
        <ele>556.25999999999999</ele>
        <time>2025-05-19T10:00:15Z</time>
      </trkpt>
      <trkpt lat="44.014763021841645" lon="7.868276992812753">
        <ele>555.77999999999997</ele>
        <time>2025-05-19T10:00:16Z</time>
      </trkpt>
      <trkpt lat="44.015039959922433" lon="7.86865996196866">
        <ele>554.82000000000005</ele>
        <time>2025-05-19T10:00:19Z</time>
      </trkpt>
      <trkpt lat="44.015126964077353" lon="7.868801029399037">
        <ele>553.86000000000001</ele>
        <time>2025-05-19T10:00:20Z</time>
      </trkpt>
      <trkpt lat="44.01518396101892" lon="7.868967996910214">
        <ele>553.38</ele>
        <time>2025-05-19T10:00:21Z</time>
      </trkpt>
      <trkpt lat="44.015510017052293" lon="7.869877014309168">
        <ele>552.89999999999998</ele>
        <time>2025-05-19T10:00:27Z</time>
      </trkpt>
      <trkpt lat="44.015549998730421" lon="7.869978016242385">
        <ele>552.40999999999997</ele>
        <time>2025-05-19T10:00:28Z</time>
      </trkpt>
      <trkpt lat="44.015586962923408" lon="7.870072983205319">
        <ele>551.92999999999995</ele>
        <time>2025-05-19T10:00:29Z</time>
      </trkpt>
      <trkpt lat="44.015773041173816" lon="7.87018496543169">
        <ele>550.49000000000001</ele>
        <time>2025-05-19T10:00:31Z</time>
      </trkpt>
      <trkpt lat="44.015887035056949" lon="7.870253026485443">
        <ele>550.00999999999999</ele>
        <time>2025-05-19T10:00:32Z</time>
      </trkpt>
      <trkpt lat="44.015997005626559" lon="7.870350005105138">
        <ele>549.52999999999997</ele>
        <time>2025-05-19T10:00:33Z</time>
      </trkpt>
      <trkpt lat="44.016212001442909" lon="7.870552008971572">
        <ele>548.57000000000005</ele>
        <time>2025-05-19T10:00:35Z</time>
      </trkpt>
      <trkpt lat="44.01632197201252" lon="7.870635995641351">
        <ele>548.09000000000003</ele>
        <time>2025-05-19T10:00:36Z</time>
      </trkpt>
      <trkpt lat="44.016425991430879" lon="7.870692992582917">
        <ele>547.61000000000001</ele>
        <time>2025-05-19T10:00:37Z</time>
      </trkpt>
      <trkpt lat="44.016518024727702" lon="7.870752001181245">
        <ele>547.13</ele>
        <time>2025-05-19T10:00:38Z</time>
      </trkpt>
      <trkpt lat="44.016581978648901" lon="7.870850991457701">
        <ele>546.64999999999998</ele>
        <time>2025-05-19T10:00:39Z</time>
      </trkpt>
      <trkpt lat="44.016646016389132" lon="7.870949981734157">
        <ele>546.16999999999996</ele>
        <time>2025-05-19T10:00:40Z</time>
      </trkpt>
      <trkpt lat="44.016703013330698" lon="7.871038997545838">
        <ele>545.69000000000005</ele>
        <time>2025-05-19T10:00:41Z</time>
      </trkpt>
      <trkpt lat="44.016783982515335" lon="7.871079985052347">
        <ele>545.20000000000005</ele>
        <time>2025-05-19T10:00:42Z</time>
      </trkpt>
      <trkpt lat="44.016870986670256" lon="7.871122984215617">
        <ele>544.72000000000003</ele>
        <time>2025-05-19T10:00:43Z</time>
      </trkpt>
      <trkpt lat="44.016962014138699" lon="7.871167995035648">
        <ele>544.24000000000001</ele>
        <time>2025-05-19T10:00:44Z</time>
      </trkpt>
      <trkpt lat="44.017052035778761" lon="7.871216023340821">
        <ele>543.75999999999999</ele>
        <time>2025-05-19T10:00:45Z</time>
      </trkpt>
      <trkpt lat="44.017128981649876" lon="7.871282994747162">
        <ele>543.27999999999997</ele>
        <time>2025-05-19T10:00:46Z</time>
      </trkpt>
      <trkpt lat="44.017217997461557" lon="7.871361030265689">
        <ele>543.27999999999997</ele>
        <time>2025-05-19T10:00:47Z</time>
      </trkpt>
      <trkpt lat="44.017272982746363" lon="7.871368993073702">
        <ele>542.32000000000005</ele>
        <time>2025-05-19T10:00:48Z</time>
      </trkpt>
      <trkpt lat="44.017370967194438" lon="7.871380979195237">
        <ele>541.84000000000003</ele>
        <time>2025-05-19T10:00:49Z</time>
      </trkpt>
      <trkpt lat="44.017457971349359" lon="7.871347032487392">
        <ele>541.36000000000001</ele>
        <time>2025-05-19T10:00:50Z</time>
      </trkpt>
      <trkpt lat="44.017647989094257" lon="7.871273020282388">
        <ele>540.39999999999998</ele>
        <time>2025-05-19T10:00:52Z</time>
      </trkpt>
      <trkpt lat="44.017754020169377" lon="7.871232032775879">
        <ele>539.91999999999996</ele>
        <time>2025-05-19T10:00:53Z</time>
      </trkpt>
      <trkpt lat="44.017816968262196" lon="7.871243013069034">
        <ele>539.44000000000005</ele>
        <time>2025-05-19T10:00:54Z</time>
      </trkpt>
      <trkpt lat="44.017902966588736" lon="7.87125701084733">
        <ele>538.96000000000004</ele>
        <time>2025-05-19T10:00:55Z</time>
      </trkpt>
      <trkpt lat="44.018012015148997" lon="7.871275031939149">
        <ele>538.48000000000002</ele>
        <time>2025-05-19T10:00:56Z</time>
      </trkpt>
      <trkpt lat="44.018072029575706" lon="7.871239995583892">
        <ele>537.99000000000001</ele>
        <time>2025-05-19T10:00:57Z</time>
      </trkpt>
      <trkpt lat="44.018146963790059" lon="7.871196996420622">
        <ele>537.50999999999999</ele>
        <time>2025-05-19T10:00:58Z</time>
      </trkpt>
      <trkpt lat="44.018227010965347" lon="7.87117000669241">
        <ele>537.02999999999997</ele>
        <time>2025-05-19T10:00:59Z</time>
      </trkpt>
      <trkpt lat="44.018321977928281" lon="7.871141005307436">
        <ele>536.54999999999995</ele>
        <time>2025-05-19T10:01:00Z</time>
      </trkpt>
      <trkpt lat="44.018419962376356" lon="7.871112003922463">
        <ele>536.07000000000005</ele>
        <time>2025-05-19T10:01:01Z</time>
      </trkpt>
      <trkpt lat="44.018591037020087" lon="7.871060036122799">
        <ele>535.11000000000001</ele>
        <time>2025-05-19T10:01:03Z</time>
      </trkpt>
      <trkpt lat="44.018706036731601" lon="7.871086020022631">
        <ele>534.14999999999998</ele>
        <time>2025-05-19T10:01:05Z</time>
      </trkpt>
      <trkpt lat="44.01879396289587" lon="7.871132036671042">
        <ele>533.19000000000005</ele>
        <time>2025-05-19T10:01:06Z</time>
      </trkpt>
      <trkpt lat="44.018827993422747" lon="7.871247958391905">
        <ele>533.66999999999996</ele>
        <time>2025-05-19T10:01:07Z</time>
      </trkpt>
      <trkpt lat="44.018831010907888" lon="7.871348960325122">
        <ele>533.19000000000005</ele>
        <time>2025-05-19T10:01:08Z</time>
      </trkpt>
      <trkpt lat="44.018835034221411" lon="7.87145096808672">
        <ele>533.19000000000005</ele>
        <time>2025-05-19T10:01:09Z</time>
      </trkpt>
      <trkpt lat="44.018848026171327" lon="7.871810970827937">
        <ele>532.23000000000002</ele>
        <time>2025-05-19T10:01:13Z</time>
      </trkpt>
      <trkpt lat="44.01887996122241" lon="7.87185899913311">
        <ele>532.23000000000002</ele>
        <time>2025-05-19T10:01:14Z</time>
      </trkpt>
      <trkpt lat="44.018914997577667" lon="7.871910966932774">
        <ele>531.75</ele>
        <time>2025-05-19T10:01:15Z</time>
      </trkpt>
      <trkpt lat="44.018977023661137" lon="7.872005011886358">
        <ele>531.75</ele>
        <time>2025-05-19T10:01:16Z</time>
      </trkpt>
      <trkpt lat="44.019007030874491" lon="7.872011968865991">
        <ele>531.26999999999998</ele>
        <time>2025-05-19T10:01:17Z</time>
      </trkpt>
      <trkpt lat="44.019084982573986" lon="7.872032001614571">
        <ele>531.26999999999998</ele>
        <time>2025-05-19T10:01:18Z</time>
      </trkpt>
      <trkpt lat="44.019165029749274" lon="7.872054968029261">
        <ele>530.78999999999996</ele>
        <time>2025-05-19T10:01:19Z</time>
      </trkpt>
      <trkpt lat="44.019232001155615" lon="7.872109031304717">
        <ele>530.29999999999995</ele>
        <time>2025-05-19T10:01:20Z</time>
      </trkpt>
      <trkpt lat="44.019297966733575" lon="7.872174996882677">
        <ele>530.29999999999995</ele>
        <time>2025-05-19T10:01:21Z</time>
      </trkpt>
      <trkpt lat="44.019365021958947" lon="7.872241968289018">
        <ele>529.82000000000005</ele>
        <time>2025-05-19T10:01:22Z</time>
      </trkpt>
      <trkpt lat="44.019429981708527" lon="7.87228899076581">
        <ele>529.34000000000003</ele>
        <time>2025-05-19T10:01:23Z</time>
      </trkpt>
      <trkpt lat="44.01950198225677" lon="7.872307011857629">
        <ele>528.86000000000001</ele>
        <time>2025-05-19T10:01:24Z</time>
      </trkpt>
      <trkpt lat="44.019579011946917" lon="7.872326038777828">
        <ele>528.38</ele>
        <time>2025-05-19T10:01:25Z</time>
      </trkpt>
      <trkpt lat="44.019640032202005" lon="7.872280022129417">
        <ele>527.89999999999998</ele>
        <time>2025-05-19T10:01:26Z</time>
      </trkpt>
      <trkpt lat="44.019703986123204" lon="7.872231993824244">
        <ele>527.89999999999998</ele>
        <time>2025-05-19T10:01:27Z</time>
      </trkpt>
      <trkpt lat="44.020010009407997" lon="7.872018003836274">
        <ele>526.46000000000004</ele>
        <time>2025-05-19T10:01:32Z</time>
      </trkpt>
      <trkpt lat="44.020072035491467" lon="7.871982967481017">
        <ele>526.46000000000004</ele>
        <time>2025-05-19T10:01:33Z</time>
      </trkpt>
      <trkpt lat="44.020125009119511" lon="7.871982967481017">
        <ele>526.46000000000004</ele>
        <time>2025-05-19T10:01:34Z</time>
      </trkpt>
      <trkpt lat="44.020186029374599" lon="7.871982967481017">
        <ele>525.98000000000002</ele>
        <time>2025-05-19T10:01:35Z</time>
      </trkpt>
      <trkpt lat="44.020237997174263" lon="7.871982967481017">
        <ele>525.5</ele>
        <time>2025-05-19T10:01:36Z</time>
      </trkpt>
      <trkpt lat="44.020345034077764" lon="7.871982967481017">
        <ele>525.01999999999998</ele>
        <time>2025-05-19T10:01:38Z</time>
      </trkpt>
      <trkpt lat="44.020412005484104" lon="7.871982967481017">
        <ele>524.53999999999996</ele>
        <time>2025-05-19T10:01:39Z</time>
      </trkpt>
      <trkpt lat="44.020478976890445" lon="7.871982967481017">
        <ele>524.53999999999996</ele>
        <time>2025-05-19T10:01:40Z</time>
      </trkpt>
      <trkpt lat="44.020564975216985" lon="7.871982967481017">
        <ele>524.05999999999995</ele>
        <time>2025-05-19T10:01:41Z</time>
      </trkpt>
      <trkpt lat="44.020614009350538" lon="7.871956983581185">
        <ele>523.58000000000004</ele>
        <time>2025-05-19T10:01:42Z</time>
      </trkpt>
      <trkpt lat="44.020665977150202" lon="7.871929993852973">
        <ele>523.09000000000003</ele>
        <time>2025-05-19T10:01:43Z</time>
      </trkpt>
      <trkpt lat="44.020984992384911" lon="7.871776018291712">
        <ele>522.61000000000001</ele>
        <time>2025-05-19T10:01:49Z</time>
      </trkpt>
      <trkpt lat="44.021051963791251" lon="7.87175196222961">
        <ele>522.61000000000001</ele>
        <time>2025-05-19T10:01:50Z</time>
      </trkpt>
      <trkpt lat="44.021145002916455" lon="7.871748022735119">
        <ele>522.61000000000001</ele>
        <time>2025-05-19T10:01:51Z</time>
      </trkpt>
      <trkpt lat="44.021209962666035" lon="7.871811976656318">
        <ele>522.13</ele>
        <time>2025-05-19T10:01:52Z</time>
      </trkpt>
      <trkpt lat="44.021278023719788" lon="7.871894035488367">
        <ele>521.64999999999998</ele>
        <time>2025-05-19T10:01:53Z</time>
      </trkpt>
      <trkpt lat="44.021303001791239" lon="7.87198799662292">
        <ele>521.16999999999996</ele>
        <time>2025-05-19T10:01:54Z</time>
      </trkpt>
      <trkpt lat="44.02132797986269" lon="7.872084975242615">
        <ele>521.64999999999998</ele>
        <time>2025-05-19T10:01:55Z</time>
      </trkpt>
      <trkpt lat="44.021380031481385" lon="7.872282033786178">
        <ele>521.64999999999998</ele>
        <time>2025-05-19T10:01:57Z</time>
      </trkpt>
      <trkpt lat="44.021433005109429" lon="7.872345987707377">
        <ele>520.69000000000005</ele>
        <time>2025-05-19T10:01:58Z</time>
      </trkpt>
      <trkpt lat="44.021487990394235" lon="7.872412037104368">
        <ele>519.73000000000002</ele>
        <time>2025-05-19T10:01:59Z</time>
      </trkpt>
      <trkpt lat="44.021539036184549" lon="7.872470961883664">
        <ele>518.76999999999998</ele>
        <time>2025-05-19T10:02:00Z</time>
      </trkpt>
      <trkpt lat="44.021589998155832" lon="7.872528964653611">
        <ele>517.33000000000004</ele>
        <time>2025-05-19T10:02:01Z</time>
      </trkpt>
      <trkpt lat="44.021638026461005" lon="7.872584033757448">
        <ele>516.37</ele>
        <time>2025-05-19T10:02:02Z</time>
      </trkpt>
      <trkpt lat="44.021667027845979" lon="7.87265301682055">
        <ele>514.91999999999996</ele>
        <time>2025-05-19T10:02:03Z</time>
      </trkpt>
      <trkpt lat="44.021700974553823" lon="7.872733986005187">
        <ele>513.48000000000002</ele>
        <time>2025-05-19T10:02:04Z</time>
      </trkpt>
      <trkpt lat="44.021737016737461" lon="7.872817972674966">
        <ele>513</ele>
        <time>2025-05-19T10:02:05Z</time>
      </trkpt>
      <trkpt lat="44.021810023114085" lon="7.872991980984807">
        <ele>512.03999999999996</ele>
        <time>2025-05-19T10:02:07Z</time>
      </trkpt>
      <trkpt lat="44.021816980093718" lon="7.873089965432882">
        <ele>512.03999999999996</ele>
        <time>2025-05-19T10:02:08Z</time>
      </trkpt>
      <trkpt lat="44.021848998963833" lon="7.87362196482718">
        <ele>510.60000000000002</ele>
        <time>2025-05-19T10:02:13Z</time>
      </trkpt>
      <trkpt lat="44.02184103615582" lon="7.873737970367074">
        <ele>510.12</ele>
        <time>2025-05-19T10:02:14Z</time>
      </trkpt>
      <trkpt lat="44.021833995357156" lon="7.873854981735349">
        <ele>510.12</ele>
        <time>2025-05-19T10:02:15Z</time>
      </trkpt>
      <trkpt lat="44.021794013679028" lon="7.874452024698257">
        <ele>509.16000000000003</ele>
        <time>2025-05-19T10:02:20Z</time>
      </trkpt>
      <trkpt lat="44.021787978708744" lon="7.874537017196417">
        <ele>509.16000000000003</ele>
        <time>2025-05-19T10:02:21Z</time>
      </trkpt>
      <trkpt lat="44.021802982315421" lon="7.874672971665859">
        <ele>509.16000000000003</ele>
        <time>2025-05-19T10:02:22Z</time>
      </trkpt>
      <trkpt lat="44.021814968436956" lon="7.874779002740979">
        <ele>509.16000000000003</ele>
        <time>2025-05-19T10:02:23Z</time>
      </trkpt>
      <trkpt lat="44.021830977872014" lon="7.874923003837466">
        <ele>510.12</ele>
        <time>2025-05-19T10:02:24Z</time>
      </trkpt>
      <trkpt lat="44.021870959550142" lon="7.874991986900568">
        <ele>510.60000000000002</ele>
        <time>2025-05-19T10:02:25Z</time>
      </trkpt>
      <trkpt lat="44.021928962320089" lon="7.87508100271225">
        <ele>511.07999999999998</ele>
        <time>2025-05-19T10:02:26Z</time>
      </trkpt>
      <trkpt lat="44.022000040858984" lon="7.875128025189042">
        <ele>511.56</ele>
        <time>2025-05-19T10:02:27Z</time>
      </trkpt>
      <trkpt lat="44.022083021700382" lon="7.87514696829021">
        <ele>512.03999999999996</ele>
        <time>2025-05-19T10:02:28Z</time>
      </trkpt>
      <trkpt lat="44.022158039733768" lon="7.875120984390378">
        <ele>512.03999999999996</ele>
        <time>2025-05-19T10:02:29Z</time>
      </trkpt>
      <trkpt lat="44.022230040282011" lon="7.875057030469179">
        <ele>512.03999999999996</ele>
        <time>2025-05-19T10:02:30Z</time>
      </trkpt>
      <trkpt lat="44.022356020286679" lon="7.874923003837466">
        <ele>512.03999999999996</ele>
        <time>2025-05-19T10:02:32Z</time>
      </trkpt>
      <trkpt lat="44.0224239975214" lon="7.874852009117603">
        <ele>512.03999999999996</ele>
        <time>2025-05-19T10:02:33Z</time>
      </trkpt>
      <trkpt lat="44.022639999166131" lon="7.874657968059182">
        <ele>511.56</ele>
        <time>2025-05-19T10:02:36Z</time>
      </trkpt>
      <trkpt lat="44.022731026634574" lon="7.874612035229802">
        <ele>511.07999999999998</ele>
        <time>2025-05-19T10:02:37Z</time>
      </trkpt>
      <trkpt lat="44.022825993597507" lon="7.87456501275301">
        <ele>511.07999999999998</ele>
        <time>2025-05-19T10:02:38Z</time>
      </trkpt>
      <trkpt lat="44.022934958338737" lon="7.874510027468205">
        <ele>510.60000000000002</ele>
        <time>2025-05-19T10:02:39Z</time>
      </trkpt>
      <trkpt lat="44.023051969707012" lon="7.874452024698257">
        <ele>510.60000000000002</ele>
        <time>2025-05-19T10:02:40Z</time>
      </trkpt>
      <trkpt lat="44.023162024095654" lon="7.874397039413452">
        <ele>510.60000000000002</ele>
        <time>2025-05-19T10:02:41Z</time>
      </trkpt>
      <trkpt lat="44.023597966879606" lon="7.87424499168992">
        <ele>508.67000000000002</ele>
        <time>2025-05-19T10:02:45Z</time>
      </trkpt>
      <trkpt lat="44.023697962984443" lon="7.874236023053527">
        <ele>508.19</ele>
        <time>2025-05-19T10:02:46Z</time>
      </trkpt>
      <trkpt lat="44.024586025625467" lon="7.874578004702926">
        <ele>503.87</ele>
        <time>2025-05-19T10:02:54Z</time>
      </trkpt>
      <trkpt lat="44.024703959003091" lon="7.874593008309603">
        <ele>502.91000000000003</ele>
        <time>2025-05-19T10:02:55Z</time>
      </trkpt>
      <trkpt lat="44.024814013391733" lon="7.874596025794745">
        <ele>502.43000000000001</ele>
        <time>2025-05-19T10:02:56Z</time>
      </trkpt>
      <trkpt lat="44.024942005053163" lon="7.874580016359687">
        <ele>501.45999999999998</ele>
        <time>2025-05-19T10:02:57Z</time>
      </trkpt>
      <trkpt lat="44.025019034743309" lon="7.874541040509939">
        <ele>500.98000000000002</ele>
        <time>2025-05-19T10:02:58Z</time>
      </trkpt>
      <trkpt lat="44.025110984221101" lon="7.874464010819793">
        <ele>500.01999999999998</ele>
        <time>2025-05-19T10:02:59Z</time>
      </trkpt>
      <trkpt lat="44.025182984769344" lon="7.874371977522969">
        <ele>499.06</ele>
        <time>2025-05-19T10:03:00Z</time>
      </trkpt>
      <trkpt lat="44.025266971439123" lon="7.874247003346682">
        <ele>498.10000000000002</ele>
        <time>2025-05-19T10:03:01Z</time>
      </trkpt>
      <trkpt lat="44.025513986125588" lon="7.873847018927336">
        <ele>495.22000000000003</ele>
        <time>2025-05-19T10:03:04Z</time>
      </trkpt>
      <trkpt lat="44.025565031915903" lon="7.873764038085938">
        <ele>494.25999999999999</ele>
        <time>2025-05-19T10:03:05Z</time>
      </trkpt>
      <trkpt lat="44.025637032464147" lon="7.873774012550712">
        <ele>493.29000000000002</ele>
        <time>2025-05-19T10:03:06Z</time>
      </trkpt>
      <trkpt lat="44.025714984163642" lon="7.873785998672247">
        <ele>492.81</ele>
        <time>2025-05-19T10:03:07Z</time>
      </trkpt>
      <trkpt lat="44.025755971670151" lon="7.873867973685265">
        <ele>491.85000000000002</ele>
        <time>2025-05-19T10:03:08Z</time>
      </trkpt>
      <trkpt lat="44.025800982490182" lon="7.873956989496946">
        <ele>490.88999999999999</ele>
        <time>2025-05-19T10:03:09Z</time>
      </trkpt>
      <trkpt lat="44.025800982490182" lon="7.873956989496946">
        <ele>489.93000000000001</ele>
        <time>2025-05-19T10:03:10Z</time>
      </trkpt>
      <trkpt lat="44.025744991376996" lon="7.874213978648186">
        <ele>488.97000000000003</ele>
        <time>2025-05-19T10:03:11Z</time>
      </trkpt>
      <trkpt lat="44.0257119666785" lon="7.874360997229815">
        <ele>487.52999999999997</ele>
        <time>2025-05-19T10:03:12Z</time>
      </trkpt>
      <trkpt lat="44.025678019970655" lon="7.874517990276218">
        <ele>486.56</ele>
        <time>2025-05-19T10:03:13Z</time>
      </trkpt>
      <trkpt lat="44.025649018585682" lon="7.874646987766028">
        <ele>485.12</ele>
        <time>2025-05-19T10:03:14Z</time>
      </trkpt>
      <trkpt lat="44.025565031915903" lon="7.87482300773263">
        <ele>483.19999999999999</ele>
        <time>2025-05-19T10:03:15Z</time>
      </trkpt>
      <trkpt lat="44.025400998070836" lon="7.875163983553648">
        <ele>480.31999999999999</ele>
        <time>2025-05-19T10:03:17Z</time>
      </trkpt>
      <trkpt lat="44.025322962552309" lon="7.875344026833773">
        <ele>478.87</ele>
        <time>2025-05-19T10:03:18Z</time>
      </trkpt>
      <trkpt lat="44.025250039994717" lon="7.875513006001711">
        <ele>477.91000000000003</ele>
        <time>2025-05-19T10:03:19Z</time>
      </trkpt>
      <trkpt lat="44.025178039446473" lon="7.875656001269817">
        <ele>476.47000000000003</ele>
        <time>2025-05-19T10:03:20Z</time>
      </trkpt>
      <trkpt lat="44.025074020028114" lon="7.875773012638092">
        <ele>475.02999999999997</ele>
        <time>2025-05-19T10:03:21Z</time>
      </trkpt>
      <trkpt lat="44.02498098090291" lon="7.875878037884831">
        <ele>473.11000000000001</ele>
        <time>2025-05-19T10:03:22Z</time>
      </trkpt>
      <trkpt lat="44.024818036705256" lon="7.876063026487827">
        <ele>470.69999999999999</ele>
        <time>2025-05-19T10:03:24Z</time>
      </trkpt>
      <trkpt lat="44.024705970659852" lon="7.876189006492496">
        <ele>469.74000000000001</ele>
        <time>2025-05-19T10:03:25Z</time>
      </trkpt>
      <trkpt lat="44.024688033387065" lon="7.876312974840403">
        <ele>468.30000000000001</ele>
        <time>2025-05-19T10:03:26Z</time>
      </trkpt>
      <trkpt lat="44.024663977324963" lon="7.876470973715186">
        <ele>466.86000000000001</ele>
        <time>2025-05-19T10:03:27Z</time>
      </trkpt>
      <trkpt lat="44.024638999253511" lon="7.876640036702156">
        <ele>465.89999999999998</ele>
        <time>2025-05-19T10:03:28Z</time>
      </trkpt>
      <trkpt lat="44.024533974006772" lon="7.877196008339524">
        <ele>462.05000000000001</ele>
        <time>2025-05-19T10:03:31Z</time>
      </trkpt>
      <trkpt lat="44.024379998445511" lon="7.877718033269048">
        <ele>458.69</ele>
        <time>2025-05-19T10:03:34Z</time>
      </trkpt>
      <trkpt lat="44.024170031771064" lon="7.878249026834965">
        <ele>455.31999999999999</ele>
        <time>2025-05-19T10:03:37Z</time>
      </trkpt>
      <trkpt lat="44.024026030674577" lon="7.879088977351785">
        <ele>449.55000000000001</ele>
        <time>2025-05-19T10:03:42Z</time>
      </trkpt>
      <trkpt lat="44.024026030674577" lon="7.879256028681994">
        <ele>449.06999999999999</ele>
        <time>2025-05-19T10:03:43Z</time>
      </trkpt>
      <trkpt lat="44.024041034281254" lon="7.879535984247923">
        <ele>448.58999999999997</ele>
        <time>2025-05-19T10:03:44Z</time>
      </trkpt>
      <trkpt lat="44.024083027616143" lon="7.879626005887985">
        <ele>448.58999999999997</ele>
        <time>2025-05-19T10:03:45Z</time>
      </trkpt>
      <trkpt lat="44.024156033992767" lon="7.879781993106008">
        <ele>449.55000000000001</ele>
        <time>2025-05-19T10:03:46Z</time>
      </trkpt>
      <trkpt lat="44.024458033964038" lon="7.880429998040199">
        <ele>450.02999999999997</ele>
        <time>2025-05-19T10:03:50Z</time>
      </trkpt>
      <trkpt lat="44.024551995098591" lon="7.880534017458558">
        <ele>449.55000000000001</ele>
        <time>2025-05-19T10:03:51Z</time>
      </trkpt>
      <trkpt lat="44.024655008688569" lon="7.880590008571744">
        <ele>449.06999999999999</ele>
        <time>2025-05-19T10:03:52Z</time>
      </trkpt>
      <trkpt lat="44.024777971208096" lon="7.880653040483594">
        <ele>448.58999999999997</ele>
        <time>2025-05-19T10:03:53Z</time>
      </trkpt>
      <trkpt lat="44.024908980354667" lon="7.880677012726665">
        <ele>448.11000000000001</ele>
        <time>2025-05-19T10:03:54Z</time>
      </trkpt>
      <trkpt lat="44.025053987279534" lon="7.880701990798116">
        <ele>447.63</ele>
        <time>2025-05-19T10:03:55Z</time>
      </trkpt>
      <trkpt lat="44.025218021124601" lon="7.88073199801147">
        <ele>447.14999999999998</ele>
        <time>2025-05-19T10:03:56Z</time>
      </trkpt>
      <trkpt lat="44.025649018585682" lon="7.880808021873236">
        <ele>445.23000000000002</ele>
        <time>2025-05-19T10:03:59Z</time>
      </trkpt>
      <trkpt lat="44.025745997205377" lon="7.880834005773068">
        <ele>444.26999999999998</ele>
        <time>2025-05-19T10:04:00Z</time>
      </trkpt>
      <trkpt lat="44.025841969996691" lon="7.880940958857536">
        <ele>444.26999999999998</ele>
        <time>2025-05-19T10:04:01Z</time>
      </trkpt>
      <trkpt lat="44.025928974151611" lon="7.881038021296263">
        <ele>443.79000000000002</ele>
        <time>2025-05-19T10:04:02Z</time>
      </trkpt>
      <trkpt lat="44.025965016335249" lon="7.88118202239275">
        <ele>443.79000000000002</ele>
        <time>2025-05-19T10:04:03Z</time>
      </trkpt>
      <trkpt lat="44.025998041033745" lon="7.881345972418785">
        <ele>443.31</ele>
        <time>2025-05-19T10:04:04Z</time>
      </trkpt>
      <trkpt lat="44.02601296082139" lon="7.881536995992065">
        <ele>443.31</ele>
        <time>2025-05-19T10:04:05Z</time>
      </trkpt>
      <trkpt lat="44.026029976084828" lon="7.881740005686879">
        <ele>442.81999999999999</ele>
        <time>2025-05-19T10:04:06Z</time>
      </trkpt>
      <trkpt lat="44.026156961917877" lon="7.883538007736206">
        <ele>437.54000000000002</ele>
        <time>2025-05-19T10:04:14Z</time>
      </trkpt>
      <trkpt lat="44.026136007159948" lon="7.883944027125835">
        <ele>435.13</ele>
        <time>2025-05-19T10:04:16Z</time>
      </trkpt>
      <trkpt lat="44.02609602548182" lon="7.884133039042354">
        <ele>433.69</ele>
        <time>2025-05-19T10:04:17Z</time>
      </trkpt>
      <trkpt lat="44.026056965813041" lon="7.884312998503447">
        <ele>432.25</ele>
        <time>2025-05-19T10:04:18Z</time>
      </trkpt>
      <trkpt lat="44.0260090213269" lon="7.884483989328146">
        <ele>430.81</ele>
        <time>2025-05-19T10:04:19Z</time>
      </trkpt>
      <trkpt lat="44.025954036042094" lon="7.884635031223297">
        <ele>429.37</ele>
        <time>2025-05-19T10:04:20Z</time>
      </trkpt>
      <trkpt lat="44.025905001908541" lon="7.884768974035978">
        <ele>427.92000000000002</ele>
        <time>2025-05-19T10:04:21Z</time>
      </trkpt>
      <trkpt lat="44.025868959724903" lon="7.884895037859678">
        <ele>426.95999999999998</ele>
        <time>2025-05-19T10:04:22Z</time>
      </trkpt>
      <trkpt lat="44.025908019393682" lon="7.885051025077701">
        <ele>425.51999999999998</ele>
        <time>2025-05-19T10:04:23Z</time>
      </trkpt>
      <trkpt lat="44.025959987193346" lon="7.885123025625944">
        <ele>424.07999999999998</ele>
        <time>2025-05-19T10:04:24Z</time>
      </trkpt>
      <trkpt lat="44.02603198774159" lon="7.885221010074019">
        <ele>423.12</ele>
        <time>2025-05-19T10:04:25Z</time>
      </trkpt>
      <trkpt lat="44.026085967198014" lon="7.885324023663998">
        <ele>422.16000000000003</ele>
        <time>2025-05-19T10:04:26Z</time>
      </trkpt>
      <trkpt lat="44.026099964976311" lon="7.885423013940454">
        <ele>420.70999999999998</ele>
        <time>2025-05-19T10:04:27Z</time>
      </trkpt>
      <trkpt lat="44.026078004390001" lon="7.885568020865321">
        <ele>419.26999999999998</ele>
        <time>2025-05-19T10:04:28Z</time>
      </trkpt>
      <trkpt lat="44.026007009670138" lon="7.885653013363481">
        <ele>418.31</ele>
        <time>2025-05-19T10:04:29Z</time>
      </trkpt>
      <trkpt lat="44.025920005515218" lon="7.88575803861022">
        <ele>417.35000000000002</ele>
        <time>2025-05-19T10:04:30Z</time>
      </trkpt>
      <trkpt lat="44.025844987481833" lon="7.885872032493353">
        <ele>416.38999999999999</ele>
        <time>2025-05-19T10:04:31Z</time>
      </trkpt>
      <trkpt lat="44.025781033560634" lon="7.886028019711375">
        <ele>414.94999999999999</ele>
        <time>2025-05-19T10:04:32Z</time>
      </trkpt>
      <trkpt lat="44.025714984163642" lon="7.88618803024292">
        <ele>414.47000000000003</ele>
        <time>2025-05-19T10:04:33Z</time>
      </trkpt>
      <trkpt lat="44.025714984163642" lon="7.886334965005517">
        <ele>413.5</ele>
        <time>2025-05-19T10:04:34Z</time>
      </trkpt>
      <trkpt lat="44.025737028568983" lon="7.886522971093655">
        <ele>412.54000000000002</ele>
        <time>2025-05-19T10:04:35Z</time>
      </trkpt>
      <trkpt lat="44.025779021903872" lon="7.886717012152076">
        <ele>411.57999999999998</ele>
        <time>2025-05-19T10:04:36Z</time>
      </trkpt>
      <trkpt lat="44.02596702799201" lon="7.887858962640166">
        <ele>406.76999999999998</ele>
        <time>2025-05-19T10:04:42Z</time>
      </trkpt>
      <trkpt lat="44.025974990800023" lon="7.888045040890575">
        <ele>406.29000000000002</ele>
        <time>2025-05-19T10:04:43Z</time>
      </trkpt>
      <trkpt lat="44.025983037427068" lon="7.888238998129964">
        <ele>405.32999999999998</ele>
        <time>2025-05-19T10:04:44Z</time>
      </trkpt>
      <trkpt lat="44.026017989963293" lon="7.888579973950982">
        <ele>404.37</ele>
        <time>2025-05-19T10:04:46Z</time>
      </trkpt>
      <trkpt lat="44.02605595998466" lon="7.888733027502894">
        <ele>403.41000000000003</ele>
        <time>2025-05-19T10:04:47Z</time>
      </trkpt>
      <trkpt lat="44.026116980239749" lon="7.888893960043788">
        <ele>402.93000000000001</ele>
        <time>2025-05-19T10:04:48Z</time>
      </trkpt>
      <trkpt lat="44.026275984942913" lon="7.889182968065143">
        <ele>401.97000000000003</ele>
        <time>2025-05-19T10:04:50Z</time>
      </trkpt>
      <trkpt lat="44.026318984106183" lon="7.889356976374984">
        <ele>401.00999999999999</ele>
        <time>2025-05-19T10:04:51Z</time>
      </trkpt>
      <trkpt lat="44.026344968006015" lon="7.889545988291502">
        <ele>400.52999999999997</ele>
        <time>2025-05-19T10:04:52Z</time>
      </trkpt>
      <trkpt lat="44.026402970775962" lon="7.890355009585619">
        <ele>397.16000000000003</ele>
        <time>2025-05-19T10:04:56Z</time>
      </trkpt>
      <trkpt lat="44.026552001014352" lon="7.890983987599611">
        <ele>394.75999999999999</ele>
        <time>2025-05-19T10:04:59Z</time>
      </trkpt>
      <trkpt lat="44.026558035984635" lon="7.891200995072722">
        <ele>393.31999999999999</ele>
        <time>2025-05-19T10:05:00Z</time>
      </trkpt>
      <trkpt lat="44.026563987135887" lon="7.891402998939157">
        <ele>391.87</ele>
        <time>2025-05-19T10:05:01Z</time>
      </trkpt>
      <trkpt lat="44.026584019884467" lon="7.891739029437304">
        <ele>389.47000000000003</ele>
        <time>2025-05-19T10:05:03Z</time>
      </trkpt>
      <trkpt lat="44.026658032089472" lon="7.891841037198901">
        <ele>388.02999999999997</ele>
        <time>2025-05-19T10:05:04Z</time>
      </trkpt>
      <trkpt lat="44.026745036244392" lon="7.891959976404905">
        <ele>386.58999999999997</ele>
        <time>2025-05-19T10:05:05Z</time>
      </trkpt>
      <trkpt lat="44.027269994840026" lon="7.89246398024261">
        <ele>381.77999999999997</ele>
        <time>2025-05-19T10:05:10Z</time>
      </trkpt>
      <trkpt lat="44.027346018701792" lon="7.892604041844606">
        <ele>380.81999999999999</ele>
        <time>2025-05-19T10:05:11Z</time>
      </trkpt>
      <trkpt lat="44.027380971238017" lon="7.892731027677655">
        <ele>380.33999999999997</ele>
        <time>2025-05-19T10:05:12Z</time>
      </trkpt>
      <trkpt lat="44.027424976229668" lon="7.892888020724058">
        <ele>379.38</ele>
        <time>2025-05-19T10:05:13Z</time>
      </trkpt>
      <trkpt lat="44.027450960129499" lon="7.893024981021881">
        <ele>378.42000000000002</ele>
        <time>2025-05-19T10:05:14Z</time>
      </trkpt>
      <trkpt lat="44.027444003149867" lon="7.893187003210187">
        <ele>377.94</ele>
        <time>2025-05-19T10:05:15Z</time>
      </trkpt>
      <trkpt lat="44.027435034513474" lon="7.893376015126705">
        <ele>376.49000000000001</ele>
        <time>2025-05-19T10:05:16Z</time>
      </trkpt>
      <trkpt lat="44.027441991493106" lon="7.893597967922688">
        <ele>375.52999999999997</ele>
        <time>2025-05-19T10:05:17Z</time>
      </trkpt>
      <trkpt lat="44.027473004534841" lon="7.894047992303968">
        <ele>373.61000000000001</ele>
        <time>2025-05-19T10:05:19Z</time>
      </trkpt>
      <trkpt lat="44.027475016191602" lon="7.894474966451526">
        <ele>370.73000000000002</ele>
        <time>2025-05-19T10:05:21Z</time>
      </trkpt>
      <trkpt lat="44.027432017028332" lon="7.894662972539663">
        <ele>369.75999999999999</ele>
        <time>2025-05-19T10:05:22Z</time>
      </trkpt>
      <trkpt lat="44.027392035350204" lon="7.894837986677885">
        <ele>368.31999999999999</ele>
        <time>2025-05-19T10:05:23Z</time>
      </trkpt>
      <trkpt lat="44.027353981509805" lon="7.895005038008094">
        <ele>367.36000000000001</ele>
        <time>2025-05-19T10:05:24Z</time>
      </trkpt>
      <trkpt lat="44.02732003480196" lon="7.895174017176032">
        <ele>365.92000000000002</ele>
        <time>2025-05-19T10:05:25Z</time>
      </trkpt>
      <trkpt lat="44.02730000205338" lon="7.89536202326417">
        <ele>364.95999999999998</ele>
        <time>2025-05-19T10:05:26Z</time>
      </trkpt>
      <trkpt lat="44.0272799693048" lon="7.895553968846798">
        <ele>363.51999999999998</ele>
        <time>2025-05-19T10:05:27Z</time>
      </trkpt>
      <trkpt lat="44.027261026203632" lon="7.895741974934936">
        <ele>362.55000000000001</ele>
        <time>2025-05-19T10:05:28Z</time>
      </trkpt>
      <trkpt lat="44.027241999283433" lon="7.895914977416396">
        <ele>361.58999999999997</ele>
        <time>2025-05-19T10:05:29Z</time>
      </trkpt>
      <trkpt lat="44.027255997061729" lon="7.896083034574986">
        <ele>360.63</ele>
        <time>2025-05-19T10:05:30Z</time>
      </trkpt>
      <trkpt lat="44.027276029810309" lon="7.896231980994344">
        <ele>359.67000000000002</ele>
        <time>2025-05-19T10:05:31Z</time>
      </trkpt>
      <trkpt lat="44.027349036186934" lon="7.896355027332902">
        <ele>358.70999999999998</ele>
        <time>2025-05-19T10:05:32Z</time>
      </trkpt>
      <trkpt lat="44.027424976229668" lon="7.896415963768959">
        <ele>358.70999999999998</ele>
        <time>2025-05-19T10:05:33Z</time>
      </trkpt>
      <trkpt lat="44.027498988434672" lon="7.896445970982313">
        <ele>359.67000000000002</ele>
        <time>2025-05-19T10:05:34Z</time>
      </trkpt>
      <trkpt lat="44.02758096344769" lon="7.896478995680809">
        <ele>360.14999999999998</ele>
        <time>2025-05-19T10:05:35Z</time>
      </trkpt>
      <trkpt lat="44.027663022279739" lon="7.896511014550924">
        <ele>361.11000000000001</ele>
        <time>2025-05-19T10:05:36Z</time>
      </trkpt>
      <trkpt lat="44.0277099609375" lon="7.896530963480473">
        <ele>362.06999999999999</ele>
        <time>2025-05-19T10:05:37Z</time>
      </trkpt>
      <trkpt lat="44.027715995907784" lon="7.896643029525876">
        <ele>362.06999999999999</ele>
        <time>2025-05-19T10:05:38Z</time>
      </trkpt>
      <trkpt lat="44.027723036706448" lon="7.896787030622363">
        <ele>362.55000000000001</ele>
        <time>2025-05-19T10:05:39Z</time>
      </trkpt>
      <trkpt lat="44.027761006727815" lon="7.897052988409996">
        <ele>362.55000000000001</ele>
        <time>2025-05-19T10:05:41Z</time>
      </trkpt>
      <trkpt lat="44.027805011719465" lon="7.897159019485116">
        <ele>363.04000000000002</ele>
        <time>2025-05-19T10:05:42Z</time>
      </trkpt>
      <trkpt lat="44.027847005054355" lon="7.897261027246714">
        <ele>363.04000000000002</ele>
        <time>2025-05-19T10:05:43Z</time>
      </trkpt>
      <trkpt lat="44.027880029752851" lon="7.897370997816324">
        <ele>362.55000000000001</ele>
        <time>2025-05-19T10:05:44Z</time>
      </trkpt>
      <trkpt lat="44.027868965640664" lon="7.897501001134515">
        <ele>362.55000000000001</ele>
        <time>2025-05-19T10:05:45Z</time>
      </trkpt>
      <trkpt lat="44.027856979519129" lon="7.897651037201285">
        <ele>362.55000000000001</ele>
        <time>2025-05-19T10:05:46Z</time>
      </trkpt>
      <trkpt lat="44.027842981740832" lon="7.897818004712462">
        <ele>362.55000000000001</ele>
        <time>2025-05-19T10:05:47Z</time>
      </trkpt>
      <trkpt lat="44.027787996456027" lon="7.898204997181892">
        <ele>362.06999999999999</ele>
        <time>2025-05-19T10:05:49Z</time>
      </trkpt>
      <trkpt lat="44.027594039216638" lon="7.898853002116084">
        <ele>361.11000000000001</ele>
        <time>2025-05-19T10:05:53Z</time>
      </trkpt>
      <trkpt lat="44.027560008689761" lon="7.899041008204222">
        <ele>361.11000000000001</ele>
        <time>2025-05-19T10:05:54Z</time>
      </trkpt>
      <trkpt lat="44.027565959841013" lon="7.899204036220908">
        <ele>360.63</ele>
        <time>2025-05-19T10:05:55Z</time>
      </trkpt>
      <trkpt lat="44.027622034773231" lon="7.899727988988161">
        <ele>359.19</ele>
        <time>2025-05-19T10:05:58Z</time>
      </trkpt>
      <trkpt lat="44.027684982866049" lon="7.899828990921378">
        <ele>358.70999999999998</ele>
        <time>2025-05-19T10:05:59Z</time>
      </trkpt>
      <trkpt lat="44.027777016162872" lon="7.899915995076299">
        <ele>358.23000000000002</ele>
        <time>2025-05-19T10:06:00Z</time>
      </trkpt>
      <trkpt lat="44.028093013912439" lon="7.900250013917685">
        <ele>356.31</ele>
        <time>2025-05-19T10:06:03Z</time>
      </trkpt>
      <trkpt lat="44.028187980875373" lon="7.900398038327694">
        <ele>355.33999999999997</ele>
        <time>2025-05-19T10:06:04Z</time>
      </trkpt>
      <trkpt lat="44.028278002515435" lon="7.900561988353729">
        <ele>354.38</ele>
        <time>2025-05-19T10:06:05Z</time>
      </trkpt>
      <trkpt lat="44.028319995850325" lon="7.900743037462235">
        <ele>353.89999999999998</ele>
        <time>2025-05-19T10:06:06Z</time>
      </trkpt>
      <trkpt lat="44.028360983356833" lon="7.900920985266566">
        <ele>352.94</ele>
        <time>2025-05-19T10:06:07Z</time>
      </trkpt>
      <trkpt lat="44.028399959206581" lon="7.901090970262885">
        <ele>352.45999999999998</ele>
        <time>2025-05-19T10:06:08Z</time>
      </trkpt>
      <trkpt lat="44.02854697778821" lon="7.901722965762019">
        <ele>349.57999999999998</ele>
        <time>2025-05-19T10:06:12Z</time>
      </trkpt>
      <trkpt lat="44.028530968353152" lon="7.901927987113595">
        <ele>348.62</ele>
        <time>2025-05-19T10:06:13Z</time>
      </trkpt>
      <trkpt lat="44.028516970574856" lon="7.902096966281533">
        <ele>348.13</ele>
        <time>2025-05-19T10:06:14Z</time>
      </trkpt>
      <trkpt lat="44.02852401137352" lon="7.902427967637777">
        <ele>347.17000000000002</ele>
        <time>2025-05-19T10:06:16Z</time>
      </trkpt>
      <trkpt lat="44.028542032465339" lon="7.90258496068418">
        <ele>346.69</ele>
        <time>2025-05-19T10:06:17Z</time>
      </trkpt>
      <trkpt lat="44.028558963909745" lon="7.90273399092257">
        <ele>346.20999999999998</ele>
        <time>2025-05-19T10:06:18Z</time>
      </trkpt>
      <trkpt lat="44.028574973344803" lon="7.902873968705535">
        <ele>345.73000000000002</ele>
        <time>2025-05-19T10:06:19Z</time>
      </trkpt>
      <trkpt lat="44.028588971123099" lon="7.903003972023726">
        <ele>345.25</ele>
        <time>2025-05-19T10:06:20Z</time>
      </trkpt>
      <trkpt lat="44.028542032465339" lon="7.9031400103122">
        <ele>344.76999999999998</ele>
        <time>2025-05-19T10:06:21Z</time>
      </trkpt>
      <trkpt lat="44.028484029695392" lon="7.903237994760275">
        <ele>344.29000000000002</ele>
        <time>2025-05-19T10:06:22Z</time>
      </trkpt>
      <trkpt lat="44.028416974470019" lon="7.903328016400337">
        <ele>344.29000000000002</ele>
        <time>2025-05-19T10:06:23Z</time>
      </trkpt>
      <trkpt lat="44.028347991406918" lon="7.903418960049748">
        <ele>343.81</ele>
        <time>2025-05-19T10:06:24Z</time>
      </trkpt>
      <trkpt lat="44.028284037485719" lon="7.903504958376288">
        <ele>343.81</ele>
        <time>2025-05-19T10:06:25Z</time>
      </trkpt>
      <trkpt lat="44.028250006958842" lon="7.903605960309506">
        <ele>343.32999999999998</ele>
        <time>2025-05-19T10:06:26Z</time>
      </trkpt>
      <trkpt lat="44.028218993917108" lon="7.903735041618347">
        <ele>342.85000000000002</ele>
        <time>2025-05-19T10:06:27Z</time>
      </trkpt>
      <trkpt lat="44.028186975046992" lon="7.903869990259409">
        <ele>342.85000000000002</ele>
        <time>2025-05-19T10:06:28Z</time>
      </trkpt>
      <trkpt lat="44.028199966996908" lon="7.903982978314161">
        <ele>342.37</ele>
        <time>2025-05-19T10:06:29Z</time>
      </trkpt>
      <trkpt lat="44.028227962553501" lon="7.904123039916158">
        <ele>341.88999999999999</ele>
        <time>2025-05-19T10:06:30Z</time>
      </trkpt>
      <trkpt lat="44.028256963938475" lon="7.904273997992277">
        <ele>341.41000000000003</ele>
        <time>2025-05-19T10:06:31Z</time>
      </trkpt>
      <trkpt lat="44.028287976980209" lon="7.904435014352202">
        <ele>340.92000000000002</ele>
        <time>2025-05-19T10:06:32Z</time>
      </trkpt>
      <trkpt lat="44.028332987800241" lon="7.904779007658362">
        <ele>339.48000000000002</ele>
        <time>2025-05-19T10:06:34Z</time>
      </trkpt>
      <trkpt lat="44.028332987800241" lon="7.904943041503429">
        <ele>339.48000000000002</ele>
        <time>2025-05-19T10:06:35Z</time>
      </trkpt>
      <trkpt lat="44.028324019163847" lon="7.905105985701084">
        <ele>339.48000000000002</ele>
        <time>2025-05-19T10:06:36Z</time>
      </trkpt>
      <trkpt lat="44.028285965323448" lon="7.905249986797571">
        <ele>339</ele>
        <time>2025-05-19T10:06:37Z</time>
      </trkpt>
      <trkpt lat="44.028249001130462" lon="7.905388958752155">
        <ele>338.51999999999998</ele>
        <time>2025-05-19T10:06:38Z</time>
      </trkpt>
      <trkpt lat="44.02820298448205" lon="7.905694982036948">
        <ele>338.04000000000002</ele>
        <time>2025-05-19T10:06:40Z</time>
      </trkpt>
      <trkpt lat="44.027921017259359" lon="7.90720397606492">
        <ele>336.12</ele>
        <time>2025-05-19T10:06:49Z</time>
      </trkpt>
      <trkpt lat="44.027777016162872" lon="7.907519973814488">
        <ele>334.68000000000001</ele>
        <time>2025-05-19T10:06:51Z</time>
      </trkpt>
      <trkpt lat="44.027706021443009" lon="7.90767696686089">
        <ele>334.19999999999999</ele>
        <time>2025-05-19T10:06:52Z</time>
      </trkpt>
      <trkpt lat="44.027588004246354" lon="7.908003022894263">
        <ele>333.23000000000002</ele>
        <time>2025-05-19T10:06:54Z</time>
      </trkpt>
      <trkpt lat="44.027534024789929" lon="7.908172002062202">
        <ele>332.75</ele>
        <time>2025-05-19T10:06:55Z</time>
      </trkpt>
      <trkpt lat="44.027495970949531" lon="7.908364031463862">
        <ele>331.79000000000002</ele>
        <time>2025-05-19T10:06:56Z</time>
      </trkpt>
      <trkpt lat="44.027323974296451" lon="7.909593991935253">
        <ele>328.43000000000001</ele>
        <time>2025-05-19T10:07:02Z</time>
      </trkpt>
      <trkpt lat="44.027323974296451" lon="7.90978099219501">
        <ele>327.94999999999999</ele>
        <time>2025-05-19T10:07:03Z</time>
      </trkpt>
      <trkpt lat="44.027335038408637" lon="7.909948965534568">
        <ele>327.47000000000003</ele>
        <time>2025-05-19T10:07:04Z</time>
      </trkpt>
      <trkpt lat="44.027362028136849" lon="7.910125991329551">
        <ele>326.99000000000001</ele>
        <time>2025-05-19T10:07:05Z</time>
      </trkpt>
      <trkpt lat="44.027391029521823" lon="7.91031701490283">
        <ele>326.5</ele>
        <time>2025-05-19T10:07:06Z</time>
      </trkpt>
      <trkpt lat="44.027575012296438" lon="7.911529038101435">
        <ele>322.66000000000003</ele>
        <time>2025-05-19T10:07:12Z</time>
      </trkpt>
      <trkpt lat="44.027647012844682" lon="7.911675972864032">
        <ele>321.69999999999999</ele>
        <time>2025-05-19T10:07:13Z</time>
      </trkpt>
      <trkpt lat="44.027737034484744" lon="7.911820979788899">
        <ele>321.22000000000003</ele>
        <time>2025-05-19T10:07:14Z</time>
      </trkpt>
      <trkpt lat="44.027833007276058" lon="7.911974033340812">
        <ele>320.25999999999999</ele>
        <time>2025-05-19T10:07:15Z</time>
      </trkpt>
      <trkpt lat="44.027933003380895" lon="7.912133960053325">
        <ele>319.30000000000001</ele>
        <time>2025-05-19T10:07:16Z</time>
      </trkpt>
      <trkpt lat="44.028187980875373" lon="7.912613991647959">
        <ele>317.85000000000002</ele>
        <time>2025-05-19T10:07:19Z</time>
      </trkpt>
      <trkpt lat="44.028462991118431" lon="7.913385964930058">
        <ele>314.97000000000003</ele>
        <time>2025-05-19T10:07:23Z</time>
      </trkpt>
      <trkpt lat="44.028569022193551" lon="7.913749990984798">
        <ele>313.52999999999997</ele>
        <time>2025-05-19T10:07:25Z</time>
      </trkpt>
      <trkpt lat="44.028620989993215" lon="7.913928022608161">
        <ele>313.05000000000001</ele>
        <time>2025-05-19T10:07:26Z</time>
      </trkpt>
      <trkpt lat="44.02867304161191" lon="7.914106976240873">
        <ele>313.05000000000001</ele>
        <time>2025-05-19T10:07:27Z</time>
      </trkpt>
      <trkpt lat="44.028710005804896" lon="7.914297999814153">
        <ele>312.56999999999999</ele>
        <time>2025-05-19T10:07:28Z</time>
      </trkpt>
      <trkpt lat="44.028732972219586" lon="7.914494974538684">
        <ele>312.56999999999999</ele>
        <time>2025-05-19T10:07:29Z</time>
      </trkpt>
      <trkpt lat="44.028754010796547" lon="7.914681974798441">
        <ele>312.08999999999997</ele>
        <time>2025-05-19T10:07:30Z</time>
      </trkpt>
      <trkpt lat="44.028743030503392" lon="7.914860006421804">
        <ele>311.60000000000002</ele>
        <time>2025-05-19T10:07:31Z</time>
      </trkpt>
      <trkpt lat="44.028708999976516" lon="7.915037032216787">
        <ele>311.60000000000002</ele>
        <time>2025-05-19T10:07:32Z</time>
      </trkpt>
      <trkpt lat="44.028647979721427" lon="7.915220009163022">
        <ele>311.12</ele>
        <time>2025-05-19T10:07:33Z</time>
      </trkpt>
      <trkpt lat="44.028483023867011" lon="7.915714038535953">
        <ele>309.19999999999999</ele>
        <time>2025-05-19T10:07:36Z</time>
      </trkpt>
      <trkpt lat="44.028499033302069" lon="7.915896009653807">
        <ele>308.72000000000003</ele>
        <time>2025-05-19T10:07:37Z</time>
      </trkpt>
      <trkpt lat="44.028513031080365" lon="7.916056020185351">
        <ele>308.24000000000001</ele>
        <time>2025-05-19T10:07:38Z</time>
      </trkpt>
      <trkpt lat="44.028526023030281" lon="7.916206978261471">
        <ele>308.24000000000001</ele>
        <time>2025-05-19T10:07:39Z</time>
      </trkpt>
      <trkpt lat="44.028602968901396" lon="7.916295994073153">
        <ele>307.75999999999999</ele>
        <time>2025-05-19T10:07:40Z</time>
      </trkpt>
      <trkpt lat="44.02867304161191" lon="7.91637503542006">
        <ele>307.75999999999999</ele>
        <time>2025-05-19T10:07:41Z</time>
      </trkpt>
      <trkpt lat="44.028735989704728" lon="7.916378974914551">
        <ele>307.27999999999997</ele>
        <time>2025-05-19T10:07:42Z</time>
      </trkpt>
      <trkpt lat="44.02882601134479" lon="7.916378974914551">
        <ele>306.80000000000001</ele>
        <time>2025-05-19T10:07:43Z</time>
      </trkpt>
      <trkpt lat="44.028906980529428" lon="7.916329018771648">
        <ele>306.80000000000001</ele>
        <time>2025-05-19T10:07:44Z</time>
      </trkpt>
      <trkpt lat="44.029009994119406" lon="7.916260035708547">
        <ele>306.80000000000001</ele>
        <time>2025-05-19T10:07:45Z</time>
      </trkpt>
      <trkpt lat="44.029120970517397" lon="7.916154004633427">
        <ele>306.31999999999999</ele>
        <time>2025-05-19T10:07:46Z</time>
      </trkpt>
      <trkpt lat="44.029237981885672" lon="7.916040010750294">
        <ele>306.31999999999999</ele>
        <time>2025-05-19T10:07:47Z</time>
      </trkpt>
      <trkpt lat="44.029363039880991" lon="7.915919981896877">
        <ele>305.83999999999997</ele>
        <time>2025-05-19T10:07:48Z</time>
      </trkpt>
      <trkpt lat="44.029617011547089" lon="7.91568897664547">
        <ele>304.88</ele>
        <time>2025-05-19T10:07:50Z</time>
      </trkpt>
      <trkpt lat="44.029752966016531" lon="7.915661986917257">
        <ele>304.38999999999999</ele>
        <time>2025-05-19T10:07:51Z</time>
      </trkpt>
      <trkpt lat="44.029896967113018" lon="7.915632985532284">
        <ele>303.91000000000003</ele>
        <time>2025-05-19T10:07:52Z</time>
      </trkpt>
      <trkpt lat="44.03005002066493" lon="7.915612030774355">
        <ele>303.43000000000001</ele>
        <time>2025-05-19T10:07:53Z</time>
      </trkpt>
      <trkpt lat="44.030196033418179" lon="7.915648994967341">
        <ele>302.94999999999999</ele>
        <time>2025-05-19T10:07:54Z</time>
      </trkpt>
      <trkpt lat="44.030338022857904" lon="7.915684031322599">
        <ele>302.47000000000003</ele>
        <time>2025-05-19T10:07:55Z</time>
      </trkpt>
      <trkpt lat="44.030600963160396" lon="7.91583901271224">
        <ele>301.99000000000001</ele>
        <time>2025-05-19T10:07:57Z</time>
      </trkpt>
      <trkpt lat="44.030711017549038" lon="7.91596801020205">
        <ele>301.50999999999999</ele>
        <time>2025-05-19T10:07:58Z</time>
      </trkpt>
      <trkpt lat="44.031031960621476" lon="7.916345028206706">
        <ele>300.55000000000001</ele>
        <time>2025-05-19T10:08:01Z</time>
      </trkpt>
      <trkpt lat="44.031116031110287" lon="7.916501015424728">
        <ele>300.06999999999999</ele>
        <time>2025-05-19T10:08:02Z</time>
      </trkpt>
      <trkpt lat="44.031173028051853" lon="7.916659014299512">
        <ele>299.58999999999997</ele>
        <time>2025-05-19T10:08:03Z</time>
      </trkpt>
      <trkpt lat="44.031232036650181" lon="7.916820030659437">
        <ele>299.11000000000001</ele>
        <time>2025-05-19T10:08:04Z</time>
      </trkpt>
      <trkpt lat="44.031250979751348" lon="7.917022034525871">
        <ele>298.63</ele>
        <time>2025-05-19T10:08:05Z</time>
      </trkpt>
      <trkpt lat="44.031250979751348" lon="7.917222026735544">
        <ele>298.14999999999998</ele>
        <time>2025-05-19T10:08:06Z</time>
      </trkpt>
      <trkpt lat="44.031242011114955" lon="7.917413972318173">
        <ele>297.67000000000002</ele>
        <time>2025-05-19T10:08:07Z</time>
      </trkpt>
      <trkpt lat="44.031232036650181" lon="7.917602984234691">
        <ele>297.18000000000001</ele>
        <time>2025-05-19T10:08:08Z</time>
      </trkpt>
      <trkpt lat="44.031208986416459" lon="7.917795013636351">
        <ele>296.22000000000003</ele>
        <time>2025-05-19T10:08:09Z</time>
      </trkpt>
      <trkpt lat="44.031184008345008" lon="7.917986959218979">
        <ele>295.25999999999999</ele>
        <time>2025-05-19T10:08:10Z</time>
      </trkpt>
      <trkpt lat="44.031090969219804" lon="7.918806038796902">
        <ele>290.45999999999998</ele>
        <time>2025-05-19T10:08:15Z</time>
      </trkpt>
      <trkpt lat="44.031117958948016" lon="7.918916009366512">
        <ele>289.49000000000001</ele>
        <time>2025-05-19T10:08:16Z</time>
      </trkpt>
      <trkpt lat="44.031201023608446" lon="7.918984992429614">
        <ele>289.00999999999999</ele>
        <time>2025-05-19T10:08:17Z</time>
      </trkpt>
      <trkpt lat="44.031315017491579" lon="7.91906101629138">
        <ele>288.52999999999997</ele>
        <time>2025-05-19T10:08:18Z</time>
      </trkpt>
      <trkpt lat="44.03140596114099" lon="7.919113989919424">
        <ele>288.05000000000001</ele>
        <time>2025-05-19T10:08:19Z</time>
      </trkpt>
      <trkpt lat="44.031522972509265" lon="7.919181967154145">
        <ele>287.08999999999997</ele>
        <time>2025-05-19T10:08:20Z</time>
      </trkpt>
      <trkpt lat="44.031722964718938" lon="7.919296966865659">
        <ele>286.13</ele>
        <time>2025-05-19T10:08:22Z</time>
      </trkpt>
      <trkpt lat="44.031836036592722" lon="7.919249022379518">
        <ele>285.64999999999998</ele>
        <time>2025-05-19T10:08:23Z</time>
      </trkpt>
      <trkpt lat="44.03191801160574" lon="7.919213986024261">
        <ele>285.64999999999998</ele>
        <time>2025-05-19T10:08:24Z</time>
      </trkpt>
      <trkpt lat="44.031996969133615" lon="7.919180039316416">
        <ele>285.17000000000002</ele>
        <time>2025-05-19T10:08:25Z</time>
      </trkpt>
      <trkpt lat="44.032077016308904" lon="7.919207029044628">
        <ele>284.69</ele>
        <time>2025-05-19T10:08:26Z</time>
      </trkpt>
      <trkpt lat="44.032147005200386" lon="7.919256985187531">
        <ele>284.69</ele>
        <time>2025-05-19T10:08:27Z</time>
      </trkpt>
      <trkpt lat="44.032184975221753" lon="7.919354969635606">
        <ele>284.69</ele>
        <time>2025-05-19T10:08:28Z</time>
      </trkpt>
      <trkpt lat="44.032206013798714" lon="7.919505005702376">
        <ele>284.20999999999998</ele>
        <time>2025-05-19T10:08:29Z</time>
      </trkpt>
      <trkpt lat="44.032227974385023" lon="7.919666022062302">
        <ele>284.20999999999998</ele>
        <time>2025-05-19T10:08:30Z</time>
      </trkpt>
      <trkpt lat="44.032271979376674" lon="7.919985959306359">
        <ele>283.73000000000002</ele>
        <time>2025-05-19T10:08:32Z</time>
      </trkpt>
      <trkpt lat="44.032395025715232" lon="7.920177988708019">
        <ele>282.76999999999998</ele>
        <time>2025-05-19T10:08:34Z</time>
      </trkpt>
      <trkpt lat="44.032682022079825" lon="7.920534973964095">
        <ele>281.31999999999999</ele>
        <time>2025-05-19T10:08:37Z</time>
      </trkpt>
      <trkpt lat="44.032782018184662" lon="7.920677969232202">
        <ele>280.36000000000001</ele>
        <time>2025-05-19T10:08:38Z</time>
      </trkpt>
      <trkpt lat="44.032882014289498" lon="7.920820964500308">
        <ele>279.88</ele>
        <time>2025-05-19T10:08:39Z</time>
      </trkpt>
      <trkpt lat="44.032948985695839" lon="7.920992961153388">
        <ele>278.92000000000002</ele>
        <time>2025-05-19T10:08:40Z</time>
      </trkpt>
      <trkpt lat="44.033012017607689" lon="7.921153977513313">
        <ele>277.95999999999998</ele>
        <time>2025-05-19T10:08:41Z</time>
      </trkpt>
      <trkpt lat="44.033232964575291" lon="7.921900972723961">
        <ele>272.19</ele>
        <time>2025-05-19T10:08:46Z</time>
      </trkpt>
      <trkpt lat="44.033242017030716" lon="7.922056037932634">
        <ele>270.75</ele>
        <time>2025-05-19T10:08:47Z</time>
      </trkpt>
      <trkpt lat="44.03323195874691" lon="7.922208001837134">
        <ele>269.31</ele>
        <time>2025-05-19T10:08:48Z</time>
      </trkpt>
      <trkpt lat="44.032988967373967" lon="7.923481967300177">
        <ele>261.13999999999999</ele>
        <time>2025-05-19T10:08:55Z</time>
      </trkpt>
      <trkpt lat="44.032933982089162" lon="7.923620017245412">
        <ele>259.69</ele>
        <time>2025-05-19T10:08:56Z</time>
      </trkpt>
      <trkpt lat="44.032813031226397" lon="7.923922017216682">
        <ele>257.76999999999998</ele>
        <time>2025-05-19T10:08:58Z</time>
      </trkpt>
      <trkpt lat="44.032754022628069" lon="7.924070041626692">
        <ele>256.81</ele>
        <time>2025-05-19T10:08:59Z</time>
      </trkpt>
      <trkpt lat="44.032731978222728" lon="7.924240026623011">
        <ele>256.32999999999998</ele>
        <time>2025-05-19T10:09:00Z</time>
      </trkpt>
      <trkpt lat="44.032749999314547" lon="7.924391990527511">
        <ele>255.37</ele>
        <time>2025-05-19T10:09:01Z</time>
      </trkpt>
      <trkpt lat="44.032784029841423" lon="7.924528028815985">
        <ele>254.41</ele>
        <time>2025-05-19T10:09:02Z</time>
      </trkpt>
      <trkpt lat="44.03284203261137" lon="7.92464897967875">
        <ele>253.44</ele>
        <time>2025-05-19T10:09:03Z</time>
      </trkpt>
      <trkpt lat="44.032927025109529" lon="7.924766996875405">
        <ele>252.47999999999999</ele>
        <time>2025-05-19T10:09:04Z</time>
      </trkpt>
      <trkpt lat="44.033038001507521" lon="7.92486104182899">
        <ele>251.52000000000001</ele>
        <time>2025-05-19T10:09:05Z</time>
      </trkpt>
      <trkpt lat="44.033622974529862" lon="7.925297990441322">
        <ele>245.75</ele>
        <time>2025-05-19T10:09:10Z</time>
      </trkpt>
      <trkpt lat="44.033718025311828" lon="7.925318023189902">
        <ele>244.31</ele>
        <time>2025-05-19T10:09:11Z</time>
      </trkpt>
      <trkpt lat="44.033808968961239" lon="7.925278963521123">
        <ele>242.87</ele>
        <time>2025-05-19T10:09:12Z</time>
      </trkpt>
      <trkpt lat="44.033894967287779" lon="7.925192965194583">
        <ele>241.91</ele>
        <time>2025-05-19T10:09:13Z</time>
      </trkpt>
      <trkpt lat="44.033987000584602" lon="7.925074025988579">
        <ele>240.47</ele>
        <time>2025-05-19T10:09:14Z</time>
      </trkpt>
      <trkpt lat="44.034066963940859" lon="7.924926001578569">
        <ele>239.02000000000001</ele>
        <time>2025-05-19T10:09:15Z</time>
      </trkpt>
      <trkpt lat="44.03415497392416" lon="7.924763979390264">
        <ele>237.58000000000001</ele>
        <time>2025-05-19T10:09:16Z</time>
      </trkpt>
      <trkpt lat="44.034595023840666" lon="7.924021007493138">
        <ele>235.18000000000001</ele>
        <time>2025-05-19T10:09:21Z</time>
      </trkpt>
      <trkpt lat="44.03469099663198" lon="7.923925034701824">
        <ele>234.69999999999999</ele>
        <time>2025-05-19T10:09:22Z</time>
      </trkpt>
      <trkpt lat="44.034794010221958" lon="7.923843981698155">
        <ele>234.69999999999999</ele>
        <time>2025-05-19T10:09:23Z</time>
      </trkpt>
      <trkpt lat="44.03492602519691" lon="7.923772986978293">
        <ele>234.22</ele>
        <time>2025-05-19T10:09:24Z</time>
      </trkpt>
      <trkpt lat="44.035070026293397" lon="7.923696041107178">
        <ele>233.74000000000001</ele>
        <time>2025-05-19T10:09:25Z</time>
      </trkpt>
      <trkpt lat="44.035214027389884" lon="7.923675002530217">
        <ele>233.25999999999999</ele>
        <time>2025-05-19T10:09:26Z</time>
      </trkpt>
      <trkpt lat="44.03535702265799" lon="7.923653963953257">
        <ele>232.78</ele>
        <time>2025-05-19T10:09:27Z</time>
      </trkpt>
      <trkpt lat="44.036038974300027" lon="7.923590010032058">
        <ele>229.41</ele>
        <time>2025-05-19T10:09:32Z</time>
      </trkpt>
      <trkpt lat="44.036122038960457" lon="7.923609958961606">
        <ele>228.44999999999999</ele>
        <time>2025-05-19T10:09:33Z</time>
      </trkpt>
      <trkpt lat="44.036209965124726" lon="7.923729987815023">
        <ele>227.97</ele>
        <time>2025-05-19T10:09:34Z</time>
      </trkpt>
      <trkpt lat="44.036290012300014" lon="7.923839958384633">
        <ele>227.00999999999999</ele>
        <time>2025-05-19T10:09:35Z</time>
      </trkpt>
      <trkpt lat="44.036364024505019" lon="7.923954036086798">
        <ele>226.53</ele>
        <time>2025-05-19T10:09:36Z</time>
      </trkpt>
      <trkpt lat="44.036414986476302" lon="7.924122009426355">
        <ele>225.56999999999999</ele>
        <time>2025-05-19T10:09:37Z</time>
      </trkpt>
      <trkpt lat="44.036520011723042" lon="7.9246049746871">
        <ele>224.61000000000001</ele>
        <time>2025-05-19T10:09:40Z</time>
      </trkpt>
      <trkpt lat="44.036549013108015" lon="7.924771020188928">
        <ele>224.61000000000001</ele>
        <time>2025-05-19T10:09:41Z</time>
      </trkpt>
      <trkpt lat="44.03653702698648" lon="7.924945028498769">
        <ele>224.12</ele>
        <time>2025-05-19T10:09:42Z</time>
      </trkpt>
      <trkpt lat="44.036525962874293" lon="7.925111996009946">
        <ele>224.12</ele>
        <time>2025-05-19T10:09:43Z</time>
      </trkpt>
      <trkpt lat="44.036514982581139" lon="7.925277035683394">
        <ele>223.63999999999999</ele>
        <time>2025-05-19T10:09:44Z</time>
      </trkpt>
      <trkpt lat="44.036493021994829" lon="7.92559496127069">
        <ele>222.68000000000001</ele>
        <time>2025-05-19T10:09:46Z</time>
      </trkpt>
      <trkpt lat="44.036482041701674" lon="7.925744997337461">
        <ele>222.19999999999999</ele>
        <time>2025-05-19T10:09:47Z</time>
      </trkpt>
      <trkpt lat="44.036471983417869" lon="7.925886986777186">
        <ele>221.72</ele>
        <time>2025-05-19T10:09:48Z</time>
      </trkpt>
      <trkpt lat="44.036435019224882" lon="7.926215976476669">
        <ele>220.75999999999999</ele>
        <time>2025-05-19T10:09:51Z</time>
      </trkpt>
      <trkpt lat="44.036416998133063" lon="7.926346985623241">
        <ele>220.28</ele>
        <time>2025-05-19T10:09:54Z</time>
      </trkpt>
      <trkpt lat="44.03640802949667" lon="7.926481012254953">
        <ele>220.28</ele>
        <time>2025-05-19T10:09:56Z</time>
      </trkpt>
      <trkpt lat="44.036444993689656" lon="7.926564998924732">
        <ele>220.75999999999999</ele>
        <time>2025-05-19T10:09:57Z</time>
      </trkpt>
      <trkpt lat="44.036485981196165" lon="7.926660971716046">
        <ele>221.24000000000001</ele>
        <time>2025-05-19T10:09:58Z</time>
      </trkpt>
      <trkpt lat="44.036535015329719" lon="7.92677303776145">
        <ele>221.24000000000001</ele>
        <time>2025-05-19T10:09:59Z</time>
      </trkpt>
      <trkpt lat="44.036588994786143" lon="7.926899017766118">
        <ele>222.19999999999999</ele>
        <time>2025-05-19T10:10:00Z</time>
      </trkpt>
      <trkpt lat="44.036648003384471" lon="7.92703396640718">
        <ele>222.68000000000001</ele>
        <time>2025-05-19T10:10:01Z</time>
      </trkpt>
      <trkpt lat="44.036725033074617" lon="7.927159024402499">
        <ele>222.68000000000001</ele>
        <time>2025-05-19T10:10:02Z</time>
      </trkpt>
      <trkpt lat="44.036827040836215" lon="7.927275029942393">
        <ele>223.63999999999999</ele>
        <time>2025-05-19T10:10:03Z</time>
      </trkpt>
      <trkpt lat="44.036931982263923" lon="7.927393969148397">
        <ele>224.61000000000001</ele>
        <time>2025-05-19T10:10:04Z</time>
      </trkpt>
      <trkpt lat="44.0370540227741" lon="7.927518021315336">
        <ele>225.56999999999999</ele>
        <time>2025-05-19T10:10:05Z</time>
      </trkpt>
      <trkpt lat="44.037184026092291" lon="7.927628997713327">
        <ele>226.53</ele>
        <time>2025-05-19T10:10:06Z</time>
      </trkpt>
      <trkpt lat="44.037287961691618" lon="7.927718013525009">
        <ele>227.49000000000001</ele>
        <time>2025-05-19T10:10:07Z</time>
      </trkpt>
      <trkpt lat="44.037372032180429" lon="7.927694963291287">
        <ele>228.44999999999999</ele>
        <time>2025-05-19T10:10:08Z</time>
      </trkpt>
      <trkpt lat="44.037456018850207" lon="7.927652969956398">
        <ele>229.41</ele>
        <time>2025-05-19T10:10:09Z</time>
      </trkpt>
      <trkpt lat="44.037488959729671" lon="7.927597984671593">
        <ele>229.88999999999999</ele>
        <time>2025-05-19T10:10:10Z</time>
      </trkpt>
      <trkpt lat="44.037537993863225" lon="7.927450966089964">
        <ele>229.88999999999999</ele>
        <time>2025-05-19T10:10:11Z</time>
      </trkpt>
      <trkpt lat="44.03754897415638" lon="7.927330015227199">
        <ele>229.88999999999999</ele>
        <time>2025-05-19T10:10:12Z</time>
      </trkpt>
      <trkpt lat="44.037619968876243" lon="7.926505990326405">
        <ele>228.93000000000001</ele>
        <time>2025-05-19T10:10:16Z</time>
      </trkpt>
      <trkpt lat="44.037716025486588" lon="7.926097959280014">
        <ele>227.97</ele>
        <time>2025-05-19T10:10:18Z</time>
      </trkpt>
      <trkpt lat="44.03827702626586" lon="7.924904963001609">
        <ele>225.56999999999999</ele>
        <time>2025-05-19T10:10:26Z</time>
      </trkpt>
      <trkpt lat="44.038346009328961" lon="7.924779988825321">
        <ele>225.56999999999999</ele>
        <time>2025-05-19T10:10:27Z</time>
      </trkpt>
      <trkpt lat="44.038414992392063" lon="7.924665994942188">
        <ele>225.09</ele>
        <time>2025-05-19T10:10:28Z</time>
      </trkpt>
      <trkpt lat="44.038490010425448" lon="7.924554012715817">
        <ele>225.09</ele>
        <time>2025-05-19T10:10:29Z</time>
      </trkpt>
      <trkpt lat="44.038592018187046" lon="7.924483017995954">
        <ele>225.56999999999999</ele>
        <time>2025-05-19T10:10:30Z</time>
      </trkpt>
      <trkpt lat="44.038667036220431" lon="7.924380004405975">
        <ele>225.56999999999999</ele>
        <time>2025-05-19T10:10:31Z</time>
      </trkpt>
      <trkpt lat="44.038654966279864" lon="7.924257041886449">
        <ele>225.56999999999999</ele>
        <time>2025-05-19T10:10:32Z</time>
      </trkpt>
      <trkpt lat="44.038631999865174" lon="7.924168026074767">
        <ele>226.05000000000001</ele>
        <time>2025-05-19T10:10:33Z</time>
      </trkpt>
      <trkpt lat="44.038524962961674" lon="7.924092002213001">
        <ele>226.05000000000001</ele>
        <time>2025-05-19T10:10:34Z</time>
      </trkpt>
      <trkpt lat="44.038609033450484" lon="7.923839036375284">
        <ele>227.00999999999999</ele>
        <time>2025-05-19T10:10:40Z</time>
      </trkpt>
      <trkpt lat="44.038655972108245" lon="7.923768041655421">
        <ele>227.00999999999999</ele>
        <time>2025-05-19T10:10:41Z</time>
      </trkpt>
      <trkpt lat="44.038872979581356" lon="7.923420025035739">
        <ele>227.00999999999999</ele>
        <time>2025-05-19T10:10:44Z</time>
      </trkpt>
      <trkpt lat="44.038943974301219" lon="7.923253979533911">
        <ele>227.00999999999999</ele>
        <time>2025-05-19T10:10:45Z</time>
      </trkpt>
      <trkpt lat="44.039019998162985" lon="7.923077959567308">
        <ele>227.00999999999999</ele>
        <time>2025-05-19T10:10:46Z</time>
      </trkpt>
      <trkpt lat="44.039163999259472" lon="7.922501033172011">
        <ele>227.97</ele>
        <time>2025-05-19T10:10:49Z</time>
      </trkpt>
      <trkpt lat="44.039208004251122" lon="7.922295005992055">
        <ele>228.44999999999999</ele>
        <time>2025-05-19T10:10:50Z</time>
      </trkpt>
      <trkpt lat="44.040953032672405" lon="7.916059037670493">
        <ele>228.44999999999999</ele>
        <time>2025-05-19T10:11:21Z</time>
      </trkpt>
      <trkpt lat="44.046937962993979" lon="7.905906038358808">
        <ele>297.18000000000001</ele>
        <time>2025-05-19T10:12:20Z</time>
      </trkpt>
      <trkpt lat="44.049452031031251" lon="7.904458986595273">
        <ele>294.30000000000001</ele>
        <time>2025-05-19T10:12:22Z</time>
      </trkpt>
      <trkpt lat="44.050387032330036" lon="7.903824979439378">
        <ele>296.22000000000003</ele>
        <time>2025-05-19T10:12:30Z</time>
      </trkpt>
      <trkpt lat="44.050433970987797" lon="7.90376203134656">
        <ele>297.18000000000001</ele>
        <time>2025-05-19T10:12:31Z</time>
      </trkpt>
      <trkpt lat="44.050519969314337" lon="7.903525996953249">
        <ele>298.14999999999998</ele>
        <time>2025-05-19T10:12:32Z</time>
      </trkpt>
      <trkpt lat="44.050540002062917" lon="7.903418960049748">
        <ele>299.11000000000001</ele>
        <time>2025-05-19T10:12:33Z</time>
      </trkpt>
      <trkpt lat="44.050570009276271" lon="7.903257021680474">
        <ele>300.06999999999999</ele>
        <time>2025-05-19T10:12:34Z</time>
      </trkpt>
      <trkpt lat="44.050602028146386" lon="7.903087036684156">
        <ele>301.02999999999997</ele>
        <time>2025-05-19T10:12:35Z</time>
      </trkpt>
      <trkpt lat="44.05063396319747" lon="7.902913028374314">
        <ele>301.99000000000001</ele>
        <time>2025-05-19T10:12:36Z</time>
      </trkpt>
      <trkpt lat="44.050805037841201" lon="7.902352027595043">
        <ele>305.36000000000001</ele>
        <time>2025-05-19T10:12:39Z</time>
      </trkpt>
      <trkpt lat="44.051464023068547" lon="7.900930037721992">
        <ele>313.05000000000001</ele>
        <time>2025-05-19T10:12:47Z</time>
      </trkpt>
      <trkpt lat="44.051773985847831" lon="7.89927301928401">
        <ele>320.74000000000001</ele>
        <time>2025-05-19T10:12:55Z</time>
      </trkpt>
      <trkpt lat="44.051803993061185" lon="7.899066992104054">
        <ele>321.69999999999999</ele>
        <time>2025-05-19T10:12:56Z</time>
      </trkpt>
      <trkpt lat="44.051887979730964" lon="7.898874040693045">
        <ele>322.66000000000003</ele>
        <time>2025-05-19T10:12:57Z</time>
      </trkpt>
      <trkpt lat="44.052056036889553" lon="7.898524012416601">
        <ele>324.57999999999998</ele>
        <time>2025-05-19T10:12:59Z</time>
      </trkpt>
      <trkpt lat="44.052640004083514" lon="7.897165976464748">
        <ele>332.75</ele>
        <time>2025-05-19T10:13:06Z</time>
      </trkpt>
      <trkpt lat="44.052699012681842" lon="7.896946035325527">
        <ele>333.70999999999998</ele>
        <time>2025-05-19T10:13:07Z</time>
      </trkpt>
      <trkpt lat="44.052735976874828" lon="7.89671503007412">
        <ele>334.68000000000001</ele>
        <time>2025-05-19T10:13:08Z</time>
      </trkpt>
      <trkpt lat="44.052947033196688" lon="7.89553401991725">
        <ele>343.32999999999998</ele>
        <time>2025-05-19T10:13:14Z</time>
      </trkpt>
      <trkpt lat="44.053018027916551" lon="7.895433017984033">
        <ele>344.76999999999998</ele>
        <time>2025-05-19T10:13:15Z</time>
      </trkpt>
      <trkpt lat="44.053094973787665" lon="7.895400999113917">
        <ele>346.20999999999998</ele>
        <time>2025-05-19T10:13:16Z</time>
      </trkpt>
      <trkpt lat="44.053529994562268" lon="7.895307959988713">
        <ele>350.54000000000002</ele>
        <time>2025-05-19T10:13:20Z</time>
      </trkpt>
      <trkpt lat="44.053623033687472" lon="7.895288011059165">
        <ele>351.5</ele>
        <time>2025-05-19T10:13:21Z</time>
      </trkpt>
      <trkpt lat="44.053713977336884" lon="7.895259009674192">
        <ele>351.98000000000002</ele>
        <time>2025-05-19T10:13:22Z</time>
      </trkpt>
      <trkpt lat="44.053802993148565" lon="7.895149039104581">
        <ele>353.42000000000002</ele>
        <time>2025-05-19T10:13:23Z</time>
      </trkpt>
      <trkpt lat="44.053844986483455" lon="7.895057005807757">
        <ele>353.89999999999998</ele>
        <time>2025-05-19T10:13:24Z</time>
      </trkpt>
      <trkpt lat="44.053819002583623" lon="7.894875034689903">
        <ele>354.86000000000001</ele>
        <time>2025-05-19T10:13:25Z</time>
      </trkpt>
      <trkpt lat="44.053782960399985" lon="7.894775038585067">
        <ele>355.82999999999998</ele>
        <time>2025-05-19T10:13:26Z</time>
      </trkpt>
      <trkpt lat="44.053653040900826" lon="7.894749976694584">
        <ele>356.31</ele>
        <time>2025-05-19T10:13:27Z</time>
      </trkpt>
      <trkpt lat="44.053577017039061" lon="7.894661966711283">
        <ele>356.31</ele>
        <time>2025-05-19T10:13:28Z</time>
      </trkpt>
      <trkpt lat="44.053492024540901" lon="7.894563982263207">
        <ele>356.79000000000002</ele>
        <time>2025-05-19T10:13:29Z</time>
      </trkpt>
      <trkpt lat="44.053410971537232" lon="7.894471026957035">
        <ele>357.26999999999998</ele>
        <time>2025-05-19T10:13:30Z</time>
      </trkpt>
      <trkpt lat="44.053346011787653" lon="7.894324008375406">
        <ele>357.75</ele>
        <time>2025-05-19T10:13:31Z</time>
      </trkpt>
      <trkpt lat="44.053304018452764" lon="7.8941619861871">
        <ele>358.23000000000002</ele>
        <time>2025-05-19T10:13:32Z</time>
      </trkpt>
      <trkpt lat="44.053253978490829" lon="7.893984960392118">
        <ele>358.70999999999998</ele>
        <time>2025-05-19T10:13:33Z</time>
      </trkpt>
      <trkpt lat="44.053004030138254" lon="7.893271995708346">
        <ele>361.58999999999997</ele>
        <time>2025-05-19T10:13:37Z</time>
      </trkpt>
      <trkpt lat="44.053001012653112" lon="7.893118020147085">
        <ele>362.06999999999999</ele>
        <time>2025-05-19T10:13:38Z</time>
      </trkpt>
      <trkpt lat="44.053033031523228" lon="7.893027998507023">
        <ele>363.04000000000002</ele>
        <time>2025-05-19T10:13:39Z</time>
      </trkpt>
      <trkpt lat="44.053100002929568" lon="7.892954992130399">
        <ele>364.48000000000002</ele>
        <time>2025-05-19T10:13:40Z</time>
      </trkpt>
      <trkpt lat="44.053167980164289" lon="7.892879974097014">
        <ele>365.92000000000002</ele>
        <time>2025-05-19T10:13:41Z</time>
      </trkpt>
      <trkpt lat="44.053236041218042" lon="7.892781989648938">
        <ele>367.36000000000001</ele>
        <time>2025-05-19T10:13:42Z</time>
      </trkpt>
      <trkpt lat="44.053266970440745" lon="7.892690040171146">
        <ele>368.80000000000001</ele>
        <time>2025-05-19T10:13:43Z</time>
      </trkpt>
      <trkpt lat="44.053208967670798" lon="7.892521983012557">
        <ele>370.24000000000001</ele>
        <time>2025-05-19T10:13:44Z</time>
      </trkpt>
      <trkpt lat="44.053156999871135" lon="7.892373036593199">
        <ele>371.69</ele>
        <time>2025-05-19T10:13:45Z</time>
      </trkpt>
      <trkpt lat="44.053104026243091" lon="7.892218977212906">
        <ele>373.13</ele>
        <time>2025-05-19T10:13:46Z</time>
      </trkpt>
      <trkpt lat="44.053055997937918" lon="7.892077993601561">
        <ele>374.08999999999997</ele>
        <time>2025-05-19T10:13:47Z</time>
      </trkpt>
      <trkpt lat="44.053077036514878" lon="7.891932986676693">
        <ele>375.05000000000001</ele>
        <time>2025-05-19T10:13:48Z</time>
      </trkpt>
      <trkpt lat="44.053105032071471" lon="7.891783034428954">
        <ele>376.00999999999999</ele>
        <time>2025-05-19T10:13:49Z</time>
      </trkpt>
      <trkpt lat="44.053153982385993" lon="7.891639033332467">
        <ele>376.49000000000001</ele>
        <time>2025-05-19T10:13:50Z</time>
      </trkpt>
      <trkpt lat="44.053222965449095" lon="7.891499977558851">
        <ele>377.44999999999999</ele>
        <time>2025-05-19T10:13:51Z</time>
      </trkpt>
      <trkpt lat="44.053311981260777" lon="7.89136603474617">
        <ele>378.42000000000002</ele>
        <time>2025-05-19T10:13:52Z</time>
      </trkpt>
      <trkpt lat="44.053410971537232" lon="7.891234019771218">
        <ele>378.89999999999998</ele>
        <time>2025-05-19T10:13:53Z</time>
      </trkpt>
      <trkpt lat="44.053930984809995" lon="7.890557013452053">
        <ele>384.66000000000003</ele>
        <time>2025-05-19T10:14:00Z</time>
      </trkpt>
      <trkpt lat="44.054017988964915" lon="7.89039901457727">
        <ele>386.11000000000001</ele>
        <time>2025-05-19T10:14:02Z</time>
      </trkpt>
      <trkpt lat="44.054088983684778" lon="7.890231041237712">
        <ele>387.06999999999999</ele>
        <time>2025-05-19T10:14:04Z</time>
      </trkpt>
      <trkpt lat="44.054124020040035" lon="7.890146970748901">
        <ele>387.55000000000001</ele>
        <time>2025-05-19T10:14:05Z</time>
      </trkpt>
      <trkpt lat="44.054227033630013" lon="7.889902973547578">
        <ele>389.94999999999999</ele>
        <time>2025-05-19T10:14:08Z</time>
      </trkpt>
      <trkpt lat="44.054259974509478" lon="7.889823010191321">
        <ele>390.43000000000001</ele>
        <time>2025-05-19T10:14:09Z</time>
      </trkpt>
      <trkpt lat="44.054295010864735" lon="7.889739023521543">
        <ele>390.91000000000003</ele>
        <time>2025-05-19T10:14:10Z</time>
      </trkpt>
      <trkpt lat="44.05432996340096" lon="7.889653025195003">
        <ele>391.38999999999999</ele>
        <time>2025-05-19T10:14:11Z</time>
      </trkpt>
      <trkpt lat="44.054360976442695" lon="7.889578007161617">
        <ele>391.87</ele>
        <time>2025-05-19T10:14:12Z</time>
      </trkpt>
      <trkpt lat="44.054409004747868" lon="7.889507012441754">
        <ele>392.83999999999997</ele>
        <time>2025-05-19T10:14:13Z</time>
      </trkpt>
      <trkpt lat="44.054452003911138" lon="7.889441968873143">
        <ele>393.31999999999999</ele>
        <time>2025-05-19T10:14:14Z</time>
      </trkpt>
      <trkpt lat="44.054497014731169" lon="7.889373991638422">
        <ele>393.80000000000001</ele>
        <time>2025-05-19T10:14:15Z</time>
      </trkpt>
      <trkpt lat="44.054605979472399" lon="7.889259997755289">
        <ele>395.24000000000001</ele>
        <time>2025-05-19T10:14:17Z</time>
      </trkpt>
      <trkpt lat="44.054665993899107" lon="7.889210041612387">
        <ele>396.19999999999999</ele>
        <time>2025-05-19T10:14:18Z</time>
      </trkpt>
      <trkpt lat="44.054786022752523" lon="7.889109961688519">
        <ele>397.63999999999999</ele>
        <time>2025-05-19T10:14:20Z</time>
      </trkpt>
      <trkpt lat="44.054960031062365" lon="7.888936959207058">
        <ele>399.56999999999999</ele>
        <time>2025-05-19T10:14:23Z</time>
      </trkpt>
      <trkpt lat="44.055011998862028" lon="7.888881973922253">
        <ele>400.05000000000001</ele>
        <time>2025-05-19T10:14:24Z</time>
      </trkpt>
      <trkpt lat="44.0551239810884" lon="7.888760017231107">
        <ele>400.05000000000001</ele>
        <time>2025-05-19T10:14:26Z</time>
      </trkpt>
      <trkpt lat="44.055594960227609" lon="7.888247966766357">
        <ele>402.44999999999999</ele>
        <time>2025-05-19T10:14:33Z</time>
      </trkpt>
      <trkpt lat="44.056168030947447" lon="7.887624017894268">
        <ele>407.74000000000001</ele>
        <time>2025-05-19T10:14:41Z</time>
      </trkpt>
      <trkpt lat="44.056227961555123" lon="7.887532990425825">
        <ele>408.22000000000003</ele>
        <time>2025-05-19T10:14:42Z</time>
      </trkpt>
      <trkpt lat="44.056270960718393" lon="7.887432994320989">
        <ele>408.69999999999999</ele>
        <time>2025-05-19T10:14:43Z</time>
      </trkpt>
      <trkpt lat="44.056308008730412" lon="7.887334004044533">
        <ele>410.13999999999999</ele>
        <time>2025-05-19T10:14:44Z</time>
      </trkpt>
      <trkpt lat="44.056334998458624" lon="7.887225961312652">
        <ele>411.10000000000002</ele>
        <time>2025-05-19T10:14:45Z</time>
      </trkpt>
      <trkpt lat="44.056334998458624" lon="7.887122025713325">
        <ele>412.06</ele>
        <time>2025-05-19T10:14:46Z</time>
      </trkpt>
      <trkpt lat="44.056334998458624" lon="7.887017000466585">
        <ele>413.01999999999998</ele>
        <time>2025-05-19T10:14:47Z</time>
      </trkpt>
      <trkpt lat="44.056346984580159" lon="7.886915998533368">
        <ele>414.47000000000003</ele>
        <time>2025-05-19T10:14:48Z</time>
      </trkpt>
      <trkpt lat="44.056360982358456" lon="7.886822037398815">
        <ele>415.43000000000001</ele>
        <time>2025-05-19T10:14:49Z</time>
      </trkpt>
      <trkpt lat="44.056374980136752" lon="7.886721035465598">
        <ele>416.87</ele>
        <time>2025-05-19T10:14:50Z</time>
      </trkpt>
      <trkpt lat="44.056422002613544" lon="7.886622967198491">
        <ele>417.82999999999998</ele>
        <time>2025-05-19T10:14:51Z</time>
      </trkpt>
      <trkpt lat="44.05647698789835" lon="7.886523976922035">
        <ele>419.26999999999998</ele>
        <time>2025-05-19T10:14:52Z</time>
      </trkpt>
      <trkpt lat="44.056532979011536" lon="7.886422974988818">
        <ele>420.70999999999998</ele>
        <time>2025-05-19T10:14:53Z</time>
      </trkpt>
      <trkpt lat="44.056590981781483" lon="7.886319039389491">
        <ele>421.68000000000001</ele>
        <time>2025-05-19T10:14:54Z</time>
      </trkpt>
      <trkpt lat="44.056961964815855" lon="7.885821992531419">
        <ele>426</ele>
        <time>2025-05-19T10:14:59Z</time>
      </trkpt>
      <trkpt lat="44.057040000334382" lon="7.885796008631587">
        <ele>426.95999999999998</ele>
        <time>2025-05-19T10:15:00Z</time>
      </trkpt>
      <trkpt lat="44.057374019175768" lon="7.885730965062976">
        <ele>429.85000000000002</ele>
        <time>2025-05-19T10:15:04Z</time>
      </trkpt>
      <trkpt lat="44.057448031380773" lon="7.885707998648286">
        <ele>430.32999999999998</ele>
        <time>2025-05-19T10:15:05Z</time>
      </trkpt>
      <trkpt lat="44.057516008615494" lon="7.885686038061976">
        <ele>431.29000000000002</ele>
        <time>2025-05-19T10:15:06Z</time>
      </trkpt>
      <trkpt lat="44.057567976415157" lon="7.885664999485016">
        <ele>431.76999999999998</ele>
        <time>2025-05-19T10:15:07Z</time>
      </trkpt>
      <trkpt lat="44.05761499889195" lon="7.885629963129759">
        <ele>432.25</ele>
        <time>2025-05-19T10:15:08Z</time>
      </trkpt>
      <trkpt lat="44.057664033025503" lon="7.885594004765153">
        <ele>432.73000000000002</ele>
        <time>2025-05-19T10:15:09Z</time>
      </trkpt>
      <trkpt lat="44.057729998603463" lon="7.885543964803219">
        <ele>433.20999999999998</ele>
        <time>2025-05-19T10:15:10Z</time>
      </trkpt>
      <trkpt lat="44.057741984724998" lon="7.885499959811568">
        <ele>434.17000000000002</ele>
        <time>2025-05-19T10:15:11Z</time>
      </trkpt>
      <trkpt lat="44.057772997766733" lon="7.88539401255548">
        <ele>434.64999999999998</ele>
        <time>2025-05-19T10:15:12Z</time>
      </trkpt>
      <trkpt lat="44.057761011645198" lon="7.885290998965502">
        <ele>435.61000000000001</ele>
        <time>2025-05-19T10:15:13Z</time>
      </trkpt>
      <trkpt lat="44.057741984724998" lon="7.885180022567511">
        <ele>436.10000000000002</ele>
        <time>2025-05-19T10:15:14Z</time>
      </trkpt>
      <trkpt lat="44.057703008875251" lon="7.885088995099068">
        <ele>436.57999999999998</ele>
        <time>2025-05-19T10:15:15Z</time>
      </trkpt>
      <trkpt lat="44.057559007778764" lon="7.884707031771541">
        <ele>438.98000000000002</ele>
        <time>2025-05-19T10:15:19Z</time>
      </trkpt>
      <trkpt lat="44.057524977251887" lon="7.884614998474717">
        <ele>439.45999999999998</ele>
        <time>2025-05-19T10:15:20Z</time>
      </trkpt>
      <trkpt lat="44.057472003623843" lon="7.884358009323478">
        <ele>440.89999999999998</ele>
        <time>2025-05-19T10:15:23Z</time>
      </trkpt>
      <trkpt lat="44.057472003623843" lon="7.884289026260376">
        <ele>441.38</ele>
        <time>2025-05-19T10:15:24Z</time>
      </trkpt>
      <trkpt lat="44.057492958381772" lon="7.884244015440345">
        <ele>441.38</ele>
        <time>2025-05-19T10:15:25Z</time>
      </trkpt>
      <trkpt lat="44.057536963373423" lon="7.884171009063721">
        <ele>441.86000000000001</ele>
        <time>2025-05-19T10:15:26Z</time>
      </trkpt>
      <trkpt lat="44.05759597197175" lon="7.884121974930167">
        <ele>442.81999999999999</ele>
        <time>2025-05-19T10:15:27Z</time>
      </trkpt>
      <trkpt lat="44.057661015540361" lon="7.884067995473743">
        <ele>443.31</ele>
        <time>2025-05-19T10:15:28Z</time>
      </trkpt>
      <trkpt lat="44.057723041623831" lon="7.884016027674079">
        <ele>444.26999999999998</ele>
        <time>2025-05-19T10:15:29Z</time>
      </trkpt>
      <trkpt lat="44.057780960574746" lon="7.883966993540525">
        <ele>445.23000000000002</ele>
        <time>2025-05-19T10:15:30Z</time>
      </trkpt>
      <trkpt lat="44.057822031900287" lon="7.883864985778928">
        <ele>446.19</ele>
        <time>2025-05-19T10:15:31Z</time>
      </trkpt>
      <trkpt lat="44.057863019406796" lon="7.883733976632357">
        <ele>447.63</ele>
        <time>2025-05-19T10:15:32Z</time>
      </trkpt>
      <trkpt lat="44.057886991649866" lon="7.883538007736206">
        <ele>448.58999999999997</ele>
        <time>2025-05-19T10:15:33Z</time>
      </trkpt>
      <trkpt lat="44.057897971943021" lon="7.883339021354914">
        <ele>450.02999999999997</ele>
        <time>2025-05-19T10:15:34Z</time>
      </trkpt>
      <trkpt lat="44.057864025235176" lon="7.883184039965272">
        <ele>451</ele>
        <time>2025-05-19T10:15:35Z</time>
      </trkpt>
      <trkpt lat="44.057805016636848" lon="7.88305101916194">
        <ele>452.44</ele>
        <time>2025-05-19T10:15:36Z</time>
      </trkpt>
      <trkpt lat="44.057751037180424" lon="7.882926966995001">
        <ele>453.39999999999998</ele>
        <time>2025-05-19T10:15:37Z</time>
      </trkpt>
      <trkpt lat="44.057708038017154" lon="7.882752036675811">
        <ele>454.36000000000001</ele>
        <time>2025-05-19T10:15:38Z</time>
      </trkpt>
      <trkpt lat="44.057695968076587" lon="7.882590014487505">
        <ele>455.31999999999999</ele>
        <time>2025-05-19T10:15:39Z</time>
      </trkpt>
      <trkpt lat="44.057735027745366" lon="7.882427992299199">
        <ele>455.80000000000001</ele>
        <time>2025-05-19T10:15:40Z</time>
      </trkpt>
      <trkpt lat="44.057826977223158" lon="7.882263036444783">
        <ele>456.75999999999999</ele>
        <time>2025-05-19T10:15:41Z</time>
      </trkpt>
      <trkpt lat="44.057921022176743" lon="7.882092967629433">
        <ele>457.24000000000001</ele>
        <time>2025-05-19T10:15:42Z</time>
      </trkpt>
      <trkpt lat="44.058031998574734" lon="7.882005041465163">
        <ele>457.72000000000003</ele>
        <time>2025-05-19T10:15:43Z</time>
      </trkpt>
      <trkpt lat="44.058125959709287" lon="7.881941003724933">
        <ele>458.20999999999998</ele>
        <time>2025-05-19T10:15:44Z</time>
      </trkpt>
      <trkpt lat="44.058266021311283" lon="7.881961036473513">
        <ele>459.17000000000002</ele>
        <time>2025-05-19T10:15:45Z</time>
      </trkpt>
      <trkpt lat="44.058368029072881" lon="7.882047034800053">
        <ele>459.64999999999998</ele>
        <time>2025-05-19T10:15:46Z</time>
      </trkpt>
      <trkpt lat="44.058509012684226" lon="7.882164968177676">
        <ele>460.13</ele>
        <time>2025-05-19T10:15:47Z</time>
      </trkpt>
      <trkpt lat="44.058673968538642" lon="7.882304023951292">
        <ele>461.08999999999997</ele>
        <time>2025-05-19T10:15:48Z</time>
      </trkpt>
      <trkpt lat="44.058841019868851" lon="7.88236697204411">
        <ele>461.56999999999999</ele>
        <time>2025-05-19T10:15:49Z</time>
      </trkpt>
      <trkpt lat="44.059029025956988" lon="7.882402008399367">
        <ele>462.52999999999997</ele>
        <time>2025-05-19T10:15:50Z</time>
      </trkpt>
      <trkpt lat="44.059217032045126" lon="7.882382981479168">
        <ele>463.49000000000001</ele>
        <time>2025-05-19T10:15:51Z</time>
      </trkpt>
      <trkpt lat="44.059396991506219" lon="7.882345011457801">
        <ele>464.44999999999999</ele>
        <time>2025-05-19T10:15:52Z</time>
      </trkpt>
      <trkpt lat="44.059569993987679" lon="7.882306035608053">
        <ele>465.89999999999998</ele>
        <time>2025-05-19T10:15:53Z</time>
      </trkpt>
      <trkpt lat="44.059736039489508" lon="7.882263958454132">
        <ele>466.86000000000001</ele>
        <time>2025-05-19T10:15:54Z</time>
      </trkpt>
      <trkpt lat="44.059893032535911" lon="7.882294971495867">
        <ele>467.81999999999999</ele>
        <time>2025-05-19T10:15:55Z</time>
      </trkpt>
      <trkpt lat="44.060025969520211" lon="7.882325984537602">
        <ele>469.25999999999999</ele>
        <time>2025-05-19T10:15:56Z</time>
      </trkpt>
      <trkpt lat="44.060178017243743" lon="7.88243000395596">
        <ele>470.69999999999999</ele>
        <time>2025-05-19T10:15:57Z</time>
      </trkpt>
      <trkpt lat="44.060315983369946" lon="7.882523965090513">
        <ele>471.66000000000003</ele>
        <time>2025-05-19T10:15:58Z</time>
      </trkpt>
      <trkpt lat="44.060450010001659" lon="7.882615998387337">
        <ele>473.11000000000001</ele>
        <time>2025-05-19T10:15:59Z</time>
      </trkpt>
      <trkpt lat="44.060792997479439" lon="7.882851026952267">
        <ele>477.43000000000001</ele>
        <time>2025-05-19T10:16:02Z</time>
      </trkpt>
      <trkpt lat="44.06092400662601" lon="7.882883967831731">
        <ele>478.87</ele>
        <time>2025-05-19T10:16:03Z</time>
      </trkpt>
      <trkpt lat="44.061055015772581" lon="7.882840968668461">
        <ele>480.31999999999999</ele>
        <time>2025-05-19T10:16:04Z</time>
      </trkpt>
      <trkpt lat="44.061156017705798" lon="7.882735021412373">
        <ele>482.24000000000001</ele>
        <time>2025-05-19T10:16:05Z</time>
      </trkpt>
      <trkpt lat="44.061205973848701" lon="7.882648017257452">
        <ele>483.68000000000001</ele>
        <time>2025-05-19T10:16:06Z</time>
      </trkpt>
      <trkpt lat="44.061190970242023" lon="7.882459005340934">
        <ele>485.12</ele>
        <time>2025-05-19T10:16:07Z</time>
      </trkpt>
      <trkpt lat="44.061168003827333" lon="7.882307963445783">
        <ele>486.07999999999998</ele>
        <time>2025-05-19T10:16:08Z</time>
      </trkpt>
      <trkpt lat="44.06111704185605" lon="7.882120963186026">
        <ele>487.05000000000001</ele>
        <time>2025-05-19T10:16:09Z</time>
      </trkpt>
      <trkpt lat="44.060674980282784" lon="7.880079969763756">
        <ele>495.69999999999999</ele>
        <time>2025-05-19T10:16:18Z</time>
      </trkpt>
      <trkpt lat="44.060609014704823" lon="7.879849970340729">
        <ele>496.66000000000003</ele>
        <time>2025-05-19T10:16:19Z</time>
      </trkpt>
      <trkpt lat="44.060516981408" lon="7.879631035029888">
        <ele>498.10000000000002</ele>
        <time>2025-05-19T10:16:20Z</time>
      </trkpt>
      <trkpt lat="44.060255968943238" lon="7.878984035924077">
        <ele>501.45999999999998</ele>
        <time>2025-05-19T10:16:23Z</time>
      </trkpt>
      <trkpt lat="44.060247000306845" lon="7.878780020400882">
        <ele>502.91000000000003</ele>
        <time>2025-05-19T10:16:24Z</time>
      </trkpt>
      <trkpt lat="44.060259992256761" lon="7.878594025969505">
        <ele>504.35000000000002</ele>
        <time>2025-05-19T10:16:25Z</time>
      </trkpt>
      <trkpt lat="44.060330986976624" lon="7.878465028479695">
        <ele>505.79000000000002</ele>
        <time>2025-05-19T10:16:26Z</time>
      </trkpt>
      <trkpt lat="44.060426959767938" lon="7.878317004069686">
        <ele>507.23000000000002</ele>
        <time>2025-05-19T10:16:27Z</time>
      </trkpt>
      <trkpt lat="44.060528967529535" lon="7.878161016851664">
        <ele>508.67000000000002</ele>
        <time>2025-05-19T10:16:28Z</time>
      </trkpt>
      <trkpt lat="44.060631981119514" lon="7.878047022968531">
        <ele>510.12</ele>
        <time>2025-05-19T10:16:29Z</time>
      </trkpt>
      <trkpt lat="44.060749998316169" lon="7.877972004935145">
        <ele>511.07999999999998</ele>
        <time>2025-05-19T10:16:30Z</time>
      </trkpt>
      <trkpt lat="44.060819987207651" lon="7.877926994115114">
        <ele>512.51999999999998</ele>
        <time>2025-05-19T10:16:31Z</time>
      </trkpt>
      <trkpt lat="44.060995001345873" lon="7.877920037135482">
        <ele>513.48000000000002</ele>
        <time>2025-05-19T10:16:32Z</time>
      </trkpt>
      <trkpt lat="44.061151994392276" lon="7.877914002165198">
        <ele>514.91999999999996</ele>
        <time>2025-05-19T10:16:33Z</time>
      </trkpt>
      <trkpt lat="44.062408022582531" lon="7.877690959721804">
        <ele>524.53999999999996</ele>
        <time>2025-05-19T10:16:40Z</time>
      </trkpt>
      <trkpt lat="44.062703987583518" lon="7.877622982487083">
        <ele>527.41999999999996</ele>
        <time>2025-05-19T10:16:42Z</time>
      </trkpt>
      <trkpt lat="44.062838014215231" lon="7.877592975273728">
        <ele>528.86000000000001</ele>
        <time>2025-05-19T10:16:43Z</time>
      </trkpt>
      <trkpt lat="44.062971035018563" lon="7.877601021900773">
        <ele>530.29999999999995</ele>
        <time>2025-05-19T10:16:44Z</time>
      </trkpt>
      <trkpt lat="44.063124004751444" lon="7.877630023285747">
        <ele>531.75</ele>
        <time>2025-05-19T10:16:45Z</time>
      </trkpt>
      <trkpt lat="44.063280997797847" lon="7.877660030499101">
        <ele>533.66999999999996</ele>
        <time>2025-05-19T10:16:46Z</time>
      </trkpt>
      <trkpt lat="44.063465986400843" lon="7.877592975273728">
        <ele>535.11000000000001</ele>
        <time>2025-05-19T10:16:47Z</time>
      </trkpt>
      <trkpt lat="44.06360998749733" lon="7.877512006089091">
        <ele>537.02999999999997</ele>
        <time>2025-05-19T10:16:48Z</time>
      </trkpt>
      <trkpt lat="44.063761029392481" lon="7.877408992499113">
        <ele>538.48000000000002</ele>
        <time>2025-05-19T10:16:49Z</time>
      </trkpt>
      <trkpt lat="44.064765013754368" lon="7.876519002020359">
        <ele>550.00999999999999</ele>
        <time>2025-05-19T10:16:57Z</time>
      </trkpt>
      <trkpt lat="44.065384017303586" lon="7.875841995701194">
        <ele>555.77999999999997</ele>
        <time>2025-05-19T10:17:02Z</time>
      </trkpt>
      <trkpt lat="44.065463980659842" lon="7.875735964626074">
        <ele>556.74000000000001</ele>
        <time>2025-05-19T10:17:03Z</time>
      </trkpt>
      <trkpt lat="44.06552298925817" lon="7.875589029863477">
        <ele>558.17999999999995</ele>
        <time>2025-05-19T10:17:04Z</time>
      </trkpt>
      <trkpt lat="44.065540004521608" lon="7.875431030988693">
        <ele>559.13999999999999</ele>
        <time>2025-05-19T10:17:05Z</time>
      </trkpt>
      <trkpt lat="44.065520977601409" lon="7.875244030728936">
        <ele>560.11000000000001</ele>
        <time>2025-05-19T10:17:06Z</time>
      </trkpt>
      <trkpt lat="44.065461969003081" lon="7.875044038519263">
        <ele>561.54999999999995</ele>
        <time>2025-05-19T10:17:07Z</time>
      </trkpt>
      <trkpt lat="44.065357027575374" lon="7.874407013878226">
        <ele>565.38999999999999</ele>
        <time>2025-05-19T10:17:10Z</time>
      </trkpt>
      <trkpt lat="44.065378988161683" lon="7.874247003346682">
        <ele>566.83000000000004</ele>
        <time>2025-05-19T10:17:11Z</time>
      </trkpt>
      <trkpt lat="44.065440008416772" lon="7.874109959229827">
        <ele>568.27999999999997</ele>
        <time>2025-05-19T10:17:12Z</time>
      </trkpt>
      <trkpt lat="44.065561965107918" lon="7.873956989496946">
        <ele>569.72000000000003</ele>
        <time>2025-05-19T10:17:13Z</time>
      </trkpt>
      <trkpt lat="44.065678976476192" lon="7.873897980898619">
        <ele>570.67999999999995</ele>
        <time>2025-05-19T10:17:14Z</time>
      </trkpt>
      <trkpt lat="44.065837981179357" lon="7.873819023370743">
        <ele>572.12</ele>
        <time>2025-05-19T10:17:15Z</time>
      </trkpt>
      <trkpt lat="44.066195972263813" lon="7.873660018667579">
        <ele>575.00999999999999</ele>
        <time>2025-05-19T10:17:17Z</time>
      </trkpt>
      <trkpt lat="44.066547006368637" lon="7.873532027006149">
        <ele>578.37</ele>
        <time>2025-05-19T10:17:19Z</time>
      </trkpt>
      <trkpt lat="44.066678015515208" lon="7.873413003981113">
        <ele>579.80999999999995</ele>
        <time>2025-05-19T10:17:20Z</time>
      </trkpt>
      <trkpt lat="44.066801983863115" lon="7.873300015926361">
        <ele>580.76999999999998</ele>
        <time>2025-05-19T10:17:21Z</time>
      </trkpt>
      <trkpt lat="44.066910026594996" lon="7.873202031478286">
        <ele>582.22000000000003</ele>
        <time>2025-05-19T10:17:22Z</time>
      </trkpt>
      <trkpt lat="44.067015973851085" lon="7.873125001788139">
        <ele>583.65999999999997</ele>
        <time>2025-05-19T10:17:23Z</time>
      </trkpt>
      <trkpt lat="44.067116975784302" lon="7.873150985687971">
        <ele>585.10000000000002</ele>
        <time>2025-05-19T10:17:24Z</time>
      </trkpt>
      <trkpt lat="44.067237004637718" lon="7.873183004558086">
        <ele>586.53999999999996</ele>
        <time>2025-05-19T10:17:25Z</time>
      </trkpt>
      <trkpt lat="44.067506985738873" lon="7.873218962922692">
        <ele>589.42999999999995</ele>
        <time>2025-05-19T10:17:27Z</time>
      </trkpt>
      <trkpt lat="44.067642018198967" lon="7.873207982629538">
        <ele>590.38999999999999</ele>
        <time>2025-05-19T10:17:28Z</time>
      </trkpt>
      <trkpt lat="44.06775701791048" lon="7.873155009001494">
        <ele>591.83000000000004</ele>
        <time>2025-05-19T10:17:29Z</time>
      </trkpt>
      <trkpt lat="44.06788601540029" lon="7.873089965432882">
        <ele>592.30999999999995</ele>
        <time>2025-05-19T10:17:30Z</time>
      </trkpt>
      <trkpt lat="44.068016018718481" lon="7.873049983754754">
        <ele>593.75</ele>
        <time>2025-05-19T10:17:31Z</time>
      </trkpt>
      <trkpt lat="44.068157002329826" lon="7.873017964884639">
        <ele>595.66999999999996</ele>
        <time>2025-05-19T10:17:32Z</time>
      </trkpt>
      <trkpt lat="44.068291028961539" lon="7.873053001239896">
        <ele>597.60000000000002</ele>
        <time>2025-05-19T10:17:33Z</time>
      </trkpt>
      <trkpt lat="44.068561010062695" lon="7.873121984302998">
        <ele>600.96000000000004</ele>
        <time>2025-05-19T10:17:35Z</time>
      </trkpt>
      <trkpt lat="44.068792015314102" lon="7.873181998729706">
        <ele>603.85000000000002</ele>
        <time>2025-05-19T10:17:37Z</time>
      </trkpt>
      <trkpt lat="44.0688940230757" lon="7.873138999566436">
        <ele>605.28999999999996</ele>
        <time>2025-05-19T10:17:38Z</time>
      </trkpt>
      <trkpt lat="44.068986978381872" lon="7.873053001239896">
        <ele>606.73000000000002</ele>
        <time>2025-05-19T10:17:39Z</time>
      </trkpt>
      <trkpt lat="44.069144977256656" lon="7.872862983494997">
        <ele>608.64999999999998</ele>
        <time>2025-05-19T10:17:41Z</time>
      </trkpt>
      <trkpt lat="44.06928202137351" lon="7.872812021523714">
        <ele>609.61000000000001</ele>
        <time>2025-05-19T10:17:42Z</time>
      </trkpt>
      <trkpt lat="44.069400038570166" lon="7.872805986553431">
        <ele>610.57000000000005</ele>
        <time>2025-05-19T10:17:43Z</time>
      </trkpt>
      <trkpt lat="44.069553008303046" lon="7.872819984331727">
        <ele>611.53999999999996</ele>
        <time>2025-05-19T10:17:44Z</time>
      </trkpt>
      <trkpt lat="44.069693991914392" lon="7.872844040393829">
        <ele>612.5</ele>
        <time>2025-05-19T10:17:45Z</time>
      </trkpt>
      <trkpt lat="44.070068998262286" lon="7.872907994315028">
        <ele>615.38</ele>
        <time>2025-05-19T10:17:48Z</time>
      </trkpt>
      <trkpt lat="44.070225991308689" lon="7.872934984043241">
        <ele>616.82000000000005</ele>
        <time>2025-05-19T10:17:50Z</time>
      </trkpt>
      <trkpt lat="44.070304026827216" lon="7.872948981821537">
        <ele>617.29999999999995</ele>
        <time>2025-05-19T10:17:51Z</time>
      </trkpt>
      <trkpt lat="44.070327999070287" lon="7.872892990708351">
        <ele>617.77999999999997</ele>
        <time>2025-05-19T10:17:52Z</time>
      </trkpt>
      <trkpt lat="44.070363035425544" lon="7.872764999046922">
        <ele>618.25999999999999</ele>
        <time>2025-05-19T10:17:53Z</time>
      </trkpt>
      <trkpt lat="44.070338979363441" lon="7.872625021263957">
        <ele>619.23000000000002</ele>
        <time>2025-05-19T10:17:54Z</time>
      </trkpt>
      <trkpt lat="44.070308972150087" lon="7.872486971318722">
        <ele>619.71000000000004</ele>
        <time>2025-05-19T10:17:55Z</time>
      </trkpt>
      <trkpt lat="44.070275025442243" lon="7.872371971607208">
        <ele>620.19000000000005</ele>
        <time>2025-05-19T10:17:56Z</time>
      </trkpt>
      <trkpt lat="44.070224985480309" lon="7.872272981330752">
        <ele>620.66999999999996</ele>
        <time>2025-05-19T10:17:57Z</time>
      </trkpt>
      <trkpt lat="44.070186009630561" lon="7.872174996882677">
        <ele>621.14999999999998</ele>
        <time>2025-05-19T10:17:58Z</time>
      </trkpt>
      <trkpt lat="44.070135969668627" lon="7.871966036036611">
        <ele>622.11000000000001</ele>
        <time>2025-05-19T10:18:00Z</time>
      </trkpt>
      <trkpt lat="44.07011903822422" lon="7.871850030496717">
        <ele>622.59000000000003</ele>
        <time>2025-05-19T10:18:01Z</time>
      </trkpt>
      <trkpt lat="44.07007503323257" lon="7.87153696641326">
        <ele>624.99000000000001</ele>
        <time>2025-05-19T10:18:04Z</time>
      </trkpt>
      <trkpt lat="44.06999297440052" lon="7.87039702758193">
        <ele>630.75999999999999</ele>
        <time>2025-05-19T10:18:13Z</time>
      </trkpt>
      <trkpt lat="44.069978976622224" lon="7.870264006778598">
        <ele>631.24000000000001</ele>
        <time>2025-05-19T10:18:14Z</time>
      </trkpt>
      <trkpt lat="44.069875041022897" lon="7.86930100992322">
        <ele>635.57000000000005</ele>
        <time>2025-05-19T10:18:22Z</time>
      </trkpt>
      <trkpt lat="44.069768004119396" lon="7.869064975529909">
        <ele>636.52999999999997</ele>
        <time>2025-05-19T10:18:24Z</time>
      </trkpt>
      <trkpt lat="44.069736991077662" lon="7.869024993851781">
        <ele>637.00999999999999</ele>
        <time>2025-05-19T10:18:25Z</time>
      </trkpt>
      <trkpt lat="44.069550996646285" lon="7.868780996650457">
        <ele>636.52999999999997</ele>
        <time>2025-05-19T10:18:28Z</time>
      </trkpt>
      <trkpt lat="44.069488970562816" lon="7.86870002746582">
        <ele>636.52999999999997</ele>
        <time>2025-05-19T10:18:29Z</time>
      </trkpt>
      <trkpt lat="44.069480001926422" lon="7.868590978905559">
        <ele>637.49000000000001</ele>
        <time>2025-05-19T10:18:30Z</time>
      </trkpt>
      <trkpt lat="44.069470027461648" lon="7.868457958102226">
        <ele>637.97000000000003</ele>
        <time>2025-05-19T10:18:31Z</time>
      </trkpt>
      <trkpt lat="44.069486958906054" lon="7.868340024724603">
        <ele>638.92999999999995</ele>
        <time>2025-05-19T10:18:32Z</time>
      </trkpt>
      <trkpt lat="44.069524006918073" lon="7.868193006142974">
        <ele>639.40999999999997</ele>
        <time>2025-05-19T10:18:33Z</time>
      </trkpt>
      <trkpt lat="44.06958200968802" lon="7.868080018088222">
        <ele>639.88999999999999</ele>
        <time>2025-05-19T10:18:34Z</time>
      </trkpt>
      <trkpt lat="44.069651998579502" lon="7.867963006719947">
        <ele>639.88999999999999</ele>
        <time>2025-05-19T10:18:35Z</time>
      </trkpt>
      <trkpt lat="44.06973103992641" lon="7.867868039757013">
        <ele>640.38</ele>
        <time>2025-05-19T10:18:36Z</time>
      </trkpt>
      <trkpt lat="44.069814020767808" lon="7.867773994803429">
        <ele>640.86000000000001</ele>
        <time>2025-05-19T10:18:37Z</time>
      </trkpt>
      <trkpt lat="44.069898007437587" lon="7.867678022012115">
        <ele>641.34000000000003</ele>
        <time>2025-05-19T10:18:38Z</time>
      </trkpt>
      <trkpt lat="44.070498989894986" lon="7.86644303239882">
        <ele>648.54999999999995</ele>
        <time>2025-05-19T10:18:47Z</time>
      </trkpt>
      <trkpt lat="44.070569984614849" lon="7.866387041285634">
        <ele>649.02999999999997</ele>
        <time>2025-05-19T10:18:48Z</time>
      </trkpt>
      <trkpt lat="44.070647014304996" lon="7.866360973566771">
        <ele>649.99000000000001</ele>
        <time>2025-05-19T10:18:49Z</time>
      </trkpt>
      <trkpt lat="44.070754973217845" lon="7.866383017972112">
        <ele>650.95000000000005</ele>
        <time>2025-05-19T10:18:50Z</time>
      </trkpt>
      <trkpt lat="44.070804007351398" lon="7.866440014913678">
        <ele>651.90999999999997</ele>
        <time>2025-05-19T10:18:51Z</time>
      </trkpt>
      <trkpt lat="44.070895034819841" lon="7.866545040160418">
        <ele>652.87</ele>
        <time>2025-05-19T10:18:52Z</time>
      </trkpt>
      <trkpt lat="44.070988995954394" lon="7.866652999073267">
        <ele>653.83000000000004</ele>
        <time>2025-05-19T10:18:53Z</time>
      </trkpt>
      <trkpt lat="44.071117993444204" lon="7.86672399379313">
        <ele>654.79999999999995</ele>
        <time>2025-05-19T10:18:54Z</time>
      </trkpt>
      <trkpt lat="44.071240033954382" lon="7.866752995178103">
        <ele>655.75999999999999</ele>
        <time>2025-05-19T10:18:55Z</time>
      </trkpt>
      <trkpt lat="44.071356961503625" lon="7.866779984906316">
        <ele>656.72000000000003</ele>
        <time>2025-05-19T10:18:56Z</time>
      </trkpt>
      <trkpt lat="44.071461986750364" lon="7.866824995726347">
        <ele>657.67999999999995</ele>
        <time>2025-05-19T10:18:57Z</time>
      </trkpt>
      <trkpt lat="44.071590984240174" lon="7.866898002102971">
        <ele>658.15999999999997</ele>
        <time>2025-05-19T10:18:58Z</time>
      </trkpt>
      <trkpt lat="44.071700032800436" lon="7.866965979337692">
        <ele>659.12</ele>
        <time>2025-05-19T10:18:59Z</time>
      </trkpt>
      <trkpt lat="44.071830958127975" lon="7.867047032341361">
        <ele>660.08000000000004</ele>
        <time>2025-05-19T10:19:00Z</time>
      </trkpt>
      <trkpt lat="44.071989040821791" lon="7.867107968777418">
        <ele>661.03999999999996</ele>
        <time>2025-05-19T10:19:01Z</time>
      </trkpt>
      <trkpt lat="44.072134969756007" lon="7.867097994312644">
        <ele>662.00999999999999</ele>
        <time>2025-05-19T10:19:02Z</time>
      </trkpt>
      <trkpt lat="44.07226899638772" lon="7.867094976827502">
        <ele>663.45000000000005</ele>
        <time>2025-05-19T10:19:03Z</time>
      </trkpt>
      <trkpt lat="44.072398999705911" lon="7.86711098626256">
        <ele>664.88999999999999</ele>
        <time>2025-05-19T10:19:04Z</time>
      </trkpt>
      <trkpt lat="44.07250402495265" lon="7.867167983204126">
        <ele>666.33000000000004</ele>
        <time>2025-05-19T10:19:05Z</time>
      </trkpt>
      <trkpt lat="44.072808036580682" lon="7.867264039814472">
        <ele>669.22000000000003</ele>
        <time>2025-05-19T10:19:07Z</time>
      </trkpt>
      <trkpt lat="44.073236016556621" lon="7.867112997919321">
        <ele>673.05999999999995</ele>
        <time>2025-05-19T10:19:10Z</time>
      </trkpt>
      <trkpt lat="44.073369037359953" lon="7.867274014279246">
        <ele>674.98000000000002</ele>
        <time>2025-05-19T10:19:11Z</time>
      </trkpt>
      <trkpt lat="44.073540028184652" lon="7.867321958765388">
        <ele>676.41999999999996</ele>
        <time>2025-05-19T10:19:12Z</time>
      </trkpt>
      <trkpt lat="44.073726022616029" lon="7.867317013442516">
        <ele>678.35000000000002</ele>
        <time>2025-05-19T10:19:13Z</time>
      </trkpt>
      <trkpt lat="44.073898019269109" lon="7.867306033149362">
        <ele>679.78999999999996</ele>
        <time>2025-05-19T10:19:14Z</time>
      </trkpt>
      <trkpt lat="44.074071021750569" lon="7.867284994572401">
        <ele>681.23000000000002</ele>
        <time>2025-05-19T10:19:15Z</time>
      </trkpt>
      <trkpt lat="44.074238995090127" lon="7.867264039814472">
        <ele>682.66999999999996</ele>
        <time>2025-05-19T10:19:16Z</time>
      </trkpt>
      <trkpt lat="44.074514005333185" lon="7.867355989292264">
        <ele>686.03999999999996</ele>
        <time>2025-05-19T10:19:18Z</time>
      </trkpt>
      <trkpt lat="44.074643002822995" lon="7.867418015375733">
        <ele>687.96000000000004</ele>
        <time>2025-05-19T10:19:19Z</time>
      </trkpt>
      <trkpt lat="44.075153963640332" lon="7.867588000372052">
        <ele>692.28999999999996</ele>
        <time>2025-05-19T10:19:22Z</time>
      </trkpt>
      <trkpt lat="44.075837004929781" lon="7.867783969268203">
        <ele>698.04999999999995</ele>
        <time>2025-05-19T10:19:26Z</time>
      </trkpt>
      <trkpt lat="44.076201030984521" lon="7.867895029485226">
        <ele>701.89999999999998</ele>
        <time>2025-05-19T10:19:29Z</time>
      </trkpt>
      <trkpt lat="44.076318964362144" lon="7.867867033928633">
        <ele>702.86000000000001</ele>
        <time>2025-05-19T10:19:30Z</time>
      </trkpt>
      <trkpt lat="44.076364981010556" lon="7.867801990360022">
        <ele>703.82000000000005</ele>
        <time>2025-05-19T10:19:31Z</time>
      </trkpt>
      <trkpt lat="44.076383002102375" lon="7.867685984820128">
        <ele>705.25999999999999</ele>
        <time>2025-05-19T10:19:32Z</time>
      </trkpt>
      <trkpt lat="44.076361041516066" lon="7.867589006200433">
        <ele>706.23000000000002</ele>
        <time>2025-05-19T10:19:33Z</time>
      </trkpt>
      <trkpt lat="44.076311001554132" lon="7.867465037852526">
        <ele>707.66999999999996</ele>
        <time>2025-05-19T10:19:34Z</time>
      </trkpt>
      <trkpt lat="44.07624302431941" lon="7.867317013442516">
        <ele>708.63</ele>
        <time>2025-05-19T10:19:35Z</time>
      </trkpt>
      <trkpt lat="44.076172029599547" lon="7.867161026224494">
        <ele>709.59000000000003</ele>
        <time>2025-05-19T10:19:36Z</time>
      </trkpt>
      <trkpt lat="44.076116038486362" lon="7.866992969065905">
        <ele>710.54999999999995</ele>
        <time>2025-05-19T10:19:37Z</time>
      </trkpt>
      <trkpt lat="44.07607002183795" lon="7.866806974634528">
        <ele>711.99000000000001</ele>
        <time>2025-05-19T10:19:38Z</time>
      </trkpt>
      <trkpt lat="44.076032973825932" lon="7.866619974374771">
        <ele>713.44000000000005</ele>
        <time>2025-05-19T10:19:39Z</time>
      </trkpt>
      <trkpt lat="44.076012019068003" lon="7.866489971056581">
        <ele>714.88</ele>
        <time>2025-05-19T10:19:40Z</time>
      </trkpt>
      <trkpt lat="44.076009001582861" lon="7.866282016038895">
        <ele>716.32000000000005</ele>
        <time>2025-05-19T10:19:41Z</time>
      </trkpt>
      <trkpt lat="44.076001960784197" lon="7.866117982193828">
        <ele>717.27999999999997</ele>
        <time>2025-05-19T10:19:42Z</time>
      </trkpt>
      <trkpt lat="44.075996009632945" lon="7.865957971662283">
        <ele>718.24000000000001</ele>
        <time>2025-05-19T10:19:43Z</time>
      </trkpt>
      <trkpt lat="44.0759879630059" lon="7.865180969238281">
        <ele>722.09000000000003</ele>
        <time>2025-05-19T10:19:48Z</time>
      </trkpt>
      <trkpt lat="44.075969019904733" lon="7.865008972585201">
        <ele>723.04999999999995</ele>
        <time>2025-05-19T10:19:49Z</time>
      </trkpt>
      <trkpt lat="44.075914034619927" lon="7.864872012287378">
        <ele>724.00999999999999</ele>
        <time>2025-05-19T10:19:50Z</time>
      </trkpt>
      <trkpt lat="44.075860977172852" lon="7.86472599953413">
        <ele>724.49000000000001</ele>
        <time>2025-05-19T10:19:51Z</time>
      </trkpt>
      <trkpt lat="44.07581303268671" lon="7.864572023972869">
        <ele>725.45000000000005</ele>
        <time>2025-05-19T10:19:52Z</time>
      </trkpt>
      <trkpt lat="44.075754024088383" lon="7.864387035369873">
        <ele>726.40999999999997</ele>
        <time>2025-05-19T10:19:53Z</time>
      </trkpt>
      <trkpt lat="44.075767016038299" lon="7.864269018173218">
        <ele>726.88999999999999</ele>
        <time>2025-05-19T10:19:54Z</time>
      </trkpt>
      <trkpt lat="44.075784031301737" lon="7.86410003900528">
        <ele>727.37</ele>
        <time>2025-05-19T10:19:55Z</time>
      </trkpt>
      <trkpt lat="44.075806997716427" lon="7.863929970189929">
        <ele>727.86000000000001</ele>
        <time>2025-05-19T10:19:56Z</time>
      </trkpt>
      <trkpt lat="44.075866006314754" lon="7.863632999360561">
        <ele>729.29999999999995</ele>
        <time>2025-05-19T10:19:58Z</time>
      </trkpt>
      <trkpt lat="44.075926020741463" lon="7.86350199021399">
        <ele>730.25999999999999</ele>
        <time>2025-05-19T10:19:59Z</time>
      </trkpt>
      <trkpt lat="44.075996009632945" lon="7.863424960523844">
        <ele>730.74000000000001</ele>
        <time>2025-05-19T10:20:00Z</time>
      </trkpt>
      <trkpt lat="44.076068010181189" lon="7.863344997167587">
        <ele>731.22000000000003</ele>
        <time>2025-05-19T10:20:01Z</time>
      </trkpt>
      <trkpt lat="44.076151996850967" lon="7.863269979134202">
        <ele>731.22000000000003</ele>
        <time>2025-05-19T10:20:02Z</time>
      </trkpt>
      <trkpt lat="44.076231038197875" lon="7.86319999024272">
        <ele>731.22000000000003</ele>
        <time>2025-05-19T10:20:03Z</time>
      </trkpt>
      <trkpt lat="44.076298009604216" lon="7.863117009401321">
        <ele>730.74000000000001</ele>
        <time>2025-05-19T10:20:04Z</time>
      </trkpt>
      <trkpt lat="44.076363975182176" lon="7.863025981932879">
        <ele>730.74000000000001</ele>
        <time>2025-05-19T10:20:05Z</time>
      </trkpt>
      <trkpt lat="44.076419966295362" lon="7.862948030233383">
        <ele>731.22000000000003</ele>
        <time>2025-05-19T10:20:06Z</time>
      </trkpt>
      <trkpt lat="44.076453996822238" lon="7.862834958359599">
        <ele>731.70000000000005</ele>
        <time>2025-05-19T10:20:07Z</time>
      </trkpt>
      <trkpt lat="44.076486015692353" lon="7.862720964476466">
        <ele>732.17999999999995</ele>
        <time>2025-05-19T10:20:08Z</time>
      </trkpt>
      <trkpt lat="44.076504958793521" lon="7.862600013613701">
        <ele>732.65999999999997</ele>
        <time>2025-05-19T10:20:09Z</time>
      </trkpt>
      <trkpt lat="44.076538989320397" lon="7.862387029454112">
        <ele>733.13999999999999</ele>
        <time>2025-05-19T10:20:11Z</time>
      </trkpt>
      <trkpt lat="44.076579976826906" lon="7.86227798089385">
        <ele>732.65999999999997</ele>
        <time>2025-05-19T10:20:12Z</time>
      </trkpt>
      <trkpt lat="44.076643008738756" lon="7.862177984789014">
        <ele>732.65999999999997</ele>
        <time>2025-05-19T10:20:13Z</time>
      </trkpt>
      <trkpt lat="44.076705034822226" lon="7.86208301782608">
        <ele>732.65999999999997</ele>
        <time>2025-05-19T10:20:14Z</time>
      </trkpt>
      <trkpt lat="44.076763037592173" lon="7.861990984529257">
        <ele>732.65999999999997</ele>
        <time>2025-05-19T10:20:15Z</time>
      </trkpt>
      <trkpt lat="44.076822968199849" lon="7.861898029223084">
        <ele>732.65999999999997</ele>
        <time>2025-05-19T10:20:16Z</time>
      </trkpt>
      <trkpt lat="44.076883988454938" lon="7.861802978441119">
        <ele>733.62</ele>
        <time>2025-05-19T10:20:17Z</time>
      </trkpt>
      <trkpt lat="44.076968980953097" lon="7.861743969842792">
        <ele>734.58000000000004</ele>
        <time>2025-05-19T10:20:18Z</time>
      </trkpt>
      <trkpt lat="44.077063025906682" lon="7.861723015084863">
        <ele>735.07000000000005</ele>
        <time>2025-05-19T10:20:19Z</time>
      </trkpt>
      <trkpt lat="44.077150030061603" lon="7.86171798594296">
        <ele>736.02999999999997</ele>
        <time>2025-05-19T10:20:20Z</time>
      </trkpt>
      <trkpt lat="44.077229993417859" lon="7.861713962629437">
        <ele>736.50999999999999</ele>
        <time>2025-05-19T10:20:21Z</time>
      </trkpt>
      <trkpt lat="44.077304005622864" lon="7.861710023134947">
        <ele>737.47000000000003</ele>
        <time>2025-05-19T10:20:22Z</time>
      </trkpt>
      <trkpt lat="44.077384974807501" lon="7.861704993993044">
        <ele>738.42999999999995</ele>
        <time>2025-05-19T10:20:23Z</time>
      </trkpt>
      <trkpt lat="44.077459992840886" lon="7.861723015084863">
        <ele>739.38999999999999</ele>
        <time>2025-05-19T10:20:24Z</time>
      </trkpt>
      <trkpt lat="44.077538028359413" lon="7.861780012026429">
        <ele>740.35000000000002</ele>
        <time>2025-05-19T10:20:25Z</time>
      </trkpt>
      <trkpt lat="44.077602988108993" lon="7.861831979826093">
        <ele>741.30999999999995</ele>
        <time>2025-05-19T10:20:26Z</time>
      </trkpt>
      <trkpt lat="44.077659985050559" lon="7.861876990646124">
        <ele>742.27999999999997</ele>
        <time>2025-05-19T10:20:27Z</time>
      </trkpt>
      <trkpt lat="44.07768496312201" lon="7.861898029223084">
        <ele>743.24000000000001</ele>
        <time>2025-05-19T10:20:28Z</time>
      </trkpt>
      <trkpt lat="44.077752018347383" lon="7.861898029223084">
        <ele>743.72000000000003</ele>
        <time>2025-05-19T10:20:29Z</time>
      </trkpt>
      <trkpt lat="44.07781002111733" lon="7.861898029223084">
        <ele>744.67999999999995</ele>
        <time>2025-05-19T10:20:30Z</time>
      </trkpt>
      <trkpt lat="44.077879004180431" lon="7.861898029223084">
        <ele>744.67999999999995</ele>
        <time>2025-05-19T10:20:31Z</time>
      </trkpt>
      <trkpt lat="44.077914040535688" lon="7.861826028674841">
        <ele>745.15999999999997</ele>
        <time>2025-05-19T10:20:32Z</time>
      </trkpt>
      <trkpt lat="44.077958967536688" lon="7.861736007034779">
        <ele>745.63999999999999</ele>
        <time>2025-05-19T10:20:33Z</time>
      </trkpt>
      <trkpt lat="44.078006995841861" lon="7.861641040071845">
        <ele>746.12</ele>
        <time>2025-05-19T10:20:34Z</time>
      </trkpt>
      <trkpt lat="44.078243030235171" lon="7.861150028184056">
        <ele>748.03999999999996</ele>
        <time>2025-05-19T10:20:39Z</time>
      </trkpt>
      <trkpt lat="44.07830698415637" lon="7.861062018200755">
        <ele>749</ele>
        <time>2025-05-19T10:20:40Z</time>
      </trkpt>
      <trkpt lat="44.078379990532994" lon="7.860983982682228">
        <ele>749.49000000000001</ele>
        <time>2025-05-19T10:20:41Z</time>
      </trkpt>
      <trkpt lat="44.078548969700933" lon="7.860803017392755">
        <ele>750.92999999999995</ele>
        <time>2025-05-19T10:20:43Z</time>
      </trkpt>
      <trkpt lat="44.078719038516283" lon="7.860556002706289">
        <ele>752.85000000000002</ele>
        <time>2025-05-19T10:20:45Z</time>
      </trkpt>
      <trkpt lat="44.078995976597071" lon="7.860012017190456">
        <ele>756.69000000000005</ele>
        <time>2025-05-19T10:20:49Z</time>
      </trkpt>
      <trkpt lat="44.079038975760341" lon="7.859863992780447">
        <ele>757.65999999999997</ele>
        <time>2025-05-19T10:20:50Z</time>
      </trkpt>
      <trkpt lat="44.079044004902244" lon="7.859703982248902">
        <ele>758.62</ele>
        <time>2025-05-19T10:20:51Z</time>
      </trkpt>
      <trkpt lat="44.079160010442138" lon="7.858915999531746">
        <ele>762.94000000000005</ele>
        <time>2025-05-19T10:20:57Z</time>
      </trkpt>
      <trkpt lat="44.079219019040465" lon="7.858814997598529">
        <ele>763.89999999999998</ele>
        <time>2025-05-19T10:20:58Z</time>
      </trkpt>
      <trkpt lat="44.079288002103567" lon="7.85870997235179">
        <ele>764.38999999999999</ele>
        <time>2025-05-19T10:20:59Z</time>
      </trkpt>
      <trkpt lat="44.07946796156466" lon="7.858560020104051">
        <ele>765.83000000000004</ele>
        <time>2025-05-19T10:21:01Z</time>
      </trkpt>
      <trkpt lat="44.079545997083187" lon="7.858503023162484">
        <ele>766.30999999999995</ele>
        <time>2025-05-19T10:21:02Z</time>
      </trkpt>
      <trkpt lat="44.079619003459811" lon="7.858482990413904">
        <ele>767.75</ele>
        <time>2025-05-19T10:21:03Z</time>
      </trkpt>
      <trkpt lat="44.079695027321577" lon="7.858461029827595">
        <ele>769.19000000000005</ele>
        <time>2025-05-19T10:21:04Z</time>
      </trkpt>
      <trkpt lat="44.079774990677834" lon="7.858437979593873">
        <ele>770.14999999999998</ele>
        <time>2025-05-19T10:21:05Z</time>
      </trkpt>
      <trkpt lat="44.07985202036798" lon="7.858392968773842">
        <ele>771.11000000000001</ele>
        <time>2025-05-19T10:21:06Z</time>
      </trkpt>
      <trkpt lat="44.079913040623069" lon="7.858309987932444">
        <ele>772.55999999999995</ele>
        <time>2025-05-19T10:21:07Z</time>
      </trkpt>
      <trkpt lat="44.080002978444099" lon="7.858186019584537">
        <ele>773.51999999999998</ele>
        <time>2025-05-19T10:21:08Z</time>
      </trkpt>
      <trkpt lat="44.08002401702106" lon="7.858077976852655">
        <ele>774.96000000000004</ele>
        <time>2025-05-19T10:21:09Z</time>
      </trkpt>
      <trkpt lat="44.080051006749272" lon="7.857945039868355">
        <ele>776.39999999999998</ele>
        <time>2025-05-19T10:21:10Z</time>
      </trkpt>
      <trkpt lat="44.080076990649104" lon="7.857815958559513">
        <ele>777.36000000000001</ele>
        <time>2025-05-19T10:21:11Z</time>
      </trkpt>
      <trkpt lat="44.080080008134246" lon="7.857673969119787">
        <ele>778.80999999999995</ele>
        <time>2025-05-19T10:21:12Z</time>
      </trkpt>
      <trkpt lat="44.080068022012711" lon="7.857553018257022">
        <ele>780.25</ele>
        <time>2025-05-19T10:21:13Z</time>
      </trkpt>
      <trkpt lat="44.079999960958958" lon="7.857447993010283">
        <ele>781.21000000000004</ele>
        <time>2025-05-19T10:21:14Z</time>
      </trkpt>
      <trkpt lat="44.07993801869452" lon="7.857363000512123">
        <ele>782.16999999999996</ele>
        <time>2025-05-19T10:21:15Z</time>
      </trkpt>
      <trkpt lat="44.079872975125909" lon="7.857272978872061">
        <ele>783.13</ele>
        <time>2025-05-19T10:21:16Z</time>
      </trkpt>
      <trkpt lat="44.079806003719568" lon="7.857179017737508">
        <ele>784.09000000000003</ele>
        <time>2025-05-19T10:21:17Z</time>
      </trkpt>
      <trkpt lat="44.079740038141608" lon="7.857086984440684">
        <ele>785.04999999999995</ele>
        <time>2025-05-19T10:21:18Z</time>
      </trkpt>
      <trkpt lat="44.079681029543281" lon="7.857006015256047">
        <ele>786.01999999999998</ele>
        <time>2025-05-19T10:21:19Z</time>
      </trkpt>
      <trkpt lat="44.079644987359643" lon="7.85688397474587">
        <ele>786.5</ele>
        <time>2025-05-19T10:21:20Z</time>
      </trkpt>
      <trkpt lat="44.07961699180305" lon="7.856774004176259">
        <ele>786.5</ele>
        <time>2025-05-19T10:21:21Z</time>
      </trkpt>
      <trkpt lat="44.07961699180305" lon="7.85664601251483">
        <ele>787.46000000000004</ele>
        <time>2025-05-19T10:21:22Z</time>
      </trkpt>
      <trkpt lat="44.07961699180305" lon="7.856511985883117">
        <ele>787.94000000000005</ele>
        <time>2025-05-19T10:21:23Z</time>
      </trkpt>
      <trkpt lat="44.079644987359643" lon="7.856441996991634">
        <ele>788.89999999999998</ele>
        <time>2025-05-19T10:21:24Z</time>
      </trkpt>
      <trkpt lat="44.079683963209391" lon="7.856344012543559">
        <ele>788.89999999999998</ele>
        <time>2025-05-19T10:21:25Z</time>
      </trkpt>
      <trkpt lat="44.079742971807718" lon="7.856270000338554">
        <ele>788.89999999999998</ele>
        <time>2025-05-19T10:21:26Z</time>
      </trkpt>
      <trkpt lat="44.079817989841104" lon="7.856220966205001">
        <ele>789.38</ele>
        <time>2025-05-19T10:21:27Z</time>
      </trkpt>
      <trkpt lat="44.079896025359631" lon="7.856168998405337">
        <ele>789.38</ele>
        <time>2025-05-19T10:21:28Z</time>
      </trkpt>
      <trkpt lat="44.079974982887506" lon="7.856116024777293">
        <ele>789.38</ele>
        <time>2025-05-19T10:21:29Z</time>
      </trkpt>
      <trkpt lat="44.080055030062795" lon="7.856062967330217">
        <ele>789.38</ele>
        <time>2025-05-19T10:21:30Z</time>
      </trkpt>
      <trkpt lat="44.08013298176229" lon="7.856010999530554">
        <ele>789.86000000000001</ele>
        <time>2025-05-19T10:21:31Z</time>
      </trkpt>
      <trkpt lat="44.080201964825392" lon="7.855942016467452">
        <ele>789.86000000000001</ele>
        <time>2025-05-19T10:21:32Z</time>
      </trkpt>
      <trkpt lat="44.080345965921879" lon="7.855783011764288">
        <ele>791.29999999999995</ele>
        <time>2025-05-19T10:21:34Z</time>
      </trkpt>
      <trkpt lat="44.080378990620375" lon="7.855685027316213">
        <ele>791.77999999999997</ele>
        <time>2025-05-19T10:21:35Z</time>
      </trkpt>
      <trkpt lat="44.080444034188986" lon="7.85548897460103">
        <ele>792.74000000000001</ele>
        <time>2025-05-19T10:21:37Z</time>
      </trkpt>
      <trkpt lat="44.080465994775295" lon="7.855396019294858">
        <ele>793.22000000000003</ele>
        <time>2025-05-19T10:21:38Z</time>
      </trkpt>
      <trkpt lat="44.080485021695495" lon="7.855302980169654">
        <ele>793.71000000000004</ele>
        <time>2025-05-19T10:21:39Z</time>
      </trkpt>
      <trkpt lat="44.080502958968282" lon="7.855213964357972">
        <ele>793.71000000000004</ele>
        <time>2025-05-19T10:21:40Z</time>
      </trkpt>
      <trkpt lat="44.080522991716862" lon="7.855130983516574">
        <ele>794.19000000000005</ele>
        <time>2025-05-19T10:21:41Z</time>
      </trkpt>
      <trkpt lat="44.080563979223371" lon="7.855072980746627">
        <ele>794.19000000000005</ele>
        <time>2025-05-19T10:21:42Z</time>
      </trkpt>
      <trkpt lat="44.08060303889215" lon="7.855053031817079">
        <ele>794.66999999999996</ele>
        <time>2025-05-19T10:21:43Z</time>
      </trkpt>
      <trkpt lat="44.080666992813349" lon="7.855056971311569">
        <ele>794.66999999999996</ele>
        <time>2025-05-19T10:21:44Z</time>
      </trkpt>
      <trkpt lat="44.080702029168606" lon="7.85510097630322">
        <ele>795.14999999999998</ele>
        <time>2025-05-19T10:21:45Z</time>
      </trkpt>
      <trkpt lat="44.080720972269773" lon="7.855185968801379">
        <ele>795.63</ele>
        <time>2025-05-19T10:21:46Z</time>
      </trkpt>
      <trkpt lat="44.080702029168606" lon="7.855265010148287">
        <ele>796.11000000000001</ele>
        <time>2025-05-19T10:21:47Z</time>
      </trkpt>
      <trkpt lat="44.080677973106503" lon="7.855366012081504">
        <ele>796.59000000000003</ele>
        <time>2025-05-19T10:21:48Z</time>
      </trkpt>
      <trkpt lat="44.080652995035052" lon="7.855473970994353">
        <ele>796.59000000000003</ele>
        <time>2025-05-19T10:21:49Z</time>
      </trkpt>
      <trkpt lat="44.080586023628712" lon="7.855705982074142">
        <ele>797.07000000000005</ele>
        <time>2025-05-19T10:21:51Z</time>
      </trkpt>
      <trkpt lat="44.080546963959932" lon="7.855823999270797">
        <ele>797.07000000000005</ele>
        <time>2025-05-19T10:21:52Z</time>
      </trkpt>
      <trkpt lat="44.080473035573959" lon="7.855923995375633">
        <ele>797.54999999999995</ele>
        <time>2025-05-19T10:21:53Z</time>
      </trkpt>
      <trkpt lat="44.080397011712193" lon="7.856013011187315">
        <ele>797.54999999999995</ele>
        <time>2025-05-19T10:21:54Z</time>
      </trkpt>
      <trkpt lat="44.080329034477472" lon="7.856091968715191">
        <ele>797.54999999999995</ele>
        <time>2025-05-19T10:21:55Z</time>
      </trkpt>
      <trkpt lat="44.080272037535906" lon="7.856158018112183">
        <ele>798.02999999999997</ele>
        <time>2025-05-19T10:21:56Z</time>
      </trkpt>
      <trkpt lat="44.080217974260449" lon="7.856220966205001">
        <ele>798.02999999999997</ele>
        <time>2025-05-19T10:21:57Z</time>
      </trkpt>
      <trkpt lat="44.080152008682489" lon="7.856307970359922">
        <ele>798.02999999999997</ele>
        <time>2025-05-19T10:21:58Z</time>
      </trkpt>
      <trkpt lat="44.080144967883825" lon="7.856425987556577">
        <ele>798.02999999999997</ele>
        <time>2025-05-19T10:21:59Z</time>
      </trkpt>
      <trkpt lat="44.080137005075812" lon="7.856549033895135">
        <ele>798.02999999999997</ele>
        <time>2025-05-19T10:22:00Z</time>
      </trkpt>
      <trkpt lat="44.080142034217715" lon="7.856680965051055">
        <ele>798.02999999999997</ele>
        <time>2025-05-19T10:22:01Z</time>
      </trkpt>
      <trkpt lat="44.080169023945928" lon="7.856790013611317">
        <ele>798.99000000000001</ele>
        <time>2025-05-19T10:22:02Z</time>
      </trkpt>
      <trkpt lat="44.080216968432069" lon="7.856919011101127">
        <ele>799.47000000000003</ele>
        <time>2025-05-19T10:22:03Z</time>
      </trkpt>
      <trkpt lat="44.080286035314202" lon="7.856987994164228">
        <ele>799.95000000000005</ele>
        <time>2025-05-19T10:22:04Z</time>
      </trkpt>
      <trkpt lat="44.080353006720543" lon="7.857054965570569">
        <ele>800.44000000000005</ele>
        <time>2025-05-19T10:22:05Z</time>
      </trkpt>
      <trkpt lat="44.080414026975632" lon="7.857116991654038">
        <ele>800.44000000000005</ele>
        <time>2025-05-19T10:22:06Z</time>
      </trkpt>
      <trkpt lat="44.080459037795663" lon="7.85716200247407">
        <ele>801.39999999999998</ele>
        <time>2025-05-19T10:22:10Z</time>
      </trkpt>
      <trkpt lat="44.080501031130552" lon="7.857203995808959">
        <ele>801.88</ele>
        <time>2025-05-19T10:22:12Z</time>
      </trkpt>
      <trkpt lat="44.080546963959932" lon="7.85724900662899">
        <ele>802.36000000000001</ele>
        <time>2025-05-19T10:22:13Z</time>
      </trkpt>
      <trkpt lat="44.080597003921866" lon="7.857298962771893">
        <ele>802.84000000000003</ele>
        <time>2025-05-19T10:22:14Z</time>
      </trkpt>
      <trkpt lat="44.080607984215021" lon="7.857353026047349">
        <ele>803.32000000000005</ele>
        <time>2025-05-19T10:22:15Z</time>
      </trkpt>
      <trkpt lat="44.080616030842066" lon="7.857432989403606">
        <ele>803.79999999999995</ele>
        <time>2025-05-19T10:22:16Z</time>
      </trkpt>
      <trkpt lat="44.080623993650079" lon="7.85752703435719">
        <ele>804.27999999999997</ele>
        <time>2025-05-19T10:22:17Z</time>
      </trkpt>
      <trkpt lat="44.080601027235389" lon="7.85763499327004">
        <ele>804.75999999999999</ele>
        <time>2025-05-19T10:22:18Z</time>
      </trkpt>
      <trkpt lat="44.080576971173286" lon="7.857743036001921">
        <ele>804.75999999999999</ele>
        <time>2025-05-19T10:22:19Z</time>
      </trkpt>
      <trkpt lat="44.080569008365273" lon="7.857876978814602">
        <ele>805.24000000000001</ele>
        <time>2025-05-19T10:22:20Z</time>
      </trkpt>
      <trkpt lat="44.080586023628712" lon="7.857997007668018">
        <ele>806.20000000000005</ele>
        <time>2025-05-19T10:22:21Z</time>
      </trkpt>
      <trkpt lat="44.080613013356924" lon="7.858141008764505">
        <ele>807.15999999999997</ele>
        <time>2025-05-19T10:22:22Z</time>
      </trkpt>
      <trkpt lat="44.08066900447011" lon="7.858251985162497">
        <ele>807.63999999999999</ele>
        <time>2025-05-19T10:22:23Z</time>
      </trkpt>
      <trkpt lat="44.080758020281792" lon="7.858382994309068">
        <ele>808.13</ele>
        <time>2025-05-19T10:22:24Z</time>
      </trkpt>
      <trkpt lat="44.080871008336544" lon="7.858482990413904">
        <ele>809.09000000000003</ele>
        <time>2025-05-19T10:22:25Z</time>
      </trkpt>
      <trkpt lat="44.080964969471097" lon="7.858553985133767">
        <ele>809.57000000000005</ele>
        <time>2025-05-19T10:22:26Z</time>
      </trkpt>
      <trkpt lat="44.08099003136158" lon="7.858572006225586">
        <ele>810.52999999999997</ele>
        <time>2025-05-19T10:22:27Z</time>
      </trkpt>
      <trkpt lat="44.081004029139876" lon="7.858640989288688">
        <ele>811.49000000000001</ele>
        <time>2025-05-19T10:22:28Z</time>
      </trkpt>
      <trkpt lat="44.081010986119509" lon="7.858678959310055">
        <ele>811.97000000000003</ele>
        <time>2025-05-19T10:22:29Z</time>
      </trkpt>
      <trkpt lat="44.080989025533199" lon="7.858758000656962">
        <ele>811.97000000000003</ele>
        <time>2025-05-19T10:22:30Z</time>
      </trkpt>
      <trkpt lat="44.08092699944973" lon="7.858864031732082">
        <ele>812.92999999999995</ele>
        <time>2025-05-19T10:22:31Z</time>
      </trkpt>
      <trkpt lat="44.080802025273442" lon="7.858963022008538">
        <ele>813.40999999999997</ele>
        <time>2025-05-19T10:22:32Z</time>
      </trkpt>
      <trkpt lat="44.080666992813349" lon="7.859056983143091">
        <ele>813.88999999999999</ele>
        <time>2025-05-19T10:22:33Z</time>
      </trkpt>
      <trkpt lat="44.080527015030384" lon="7.859153961762786">
        <ele>814.85000000000002</ele>
        <time>2025-05-19T10:22:34Z</time>
      </trkpt>
      <trkpt lat="44.080391982570291" lon="7.859248006716371">
        <ele>815.82000000000005</ele>
        <time>2025-05-19T10:22:35Z</time>
      </trkpt>
      <trkpt lat="44.080295003950596" lon="7.859399970620871">
        <ele>816.77999999999997</ele>
        <time>2025-05-19T10:22:36Z</time>
      </trkpt>
      <trkpt lat="44.080216968432069" lon="7.859583031386137">
        <ele>816.77999999999997</ele>
        <time>2025-05-19T10:22:37Z</time>
      </trkpt>
      <trkpt lat="44.080203976482153" lon="7.859791992232204">
        <ele>817.25999999999999</ele>
        <time>2025-05-19T10:22:38Z</time>
      </trkpt>
      <trkpt lat="44.080209005624056" lon="7.860007993876934">
        <ele>818.22000000000003</ele>
        <time>2025-05-19T10:22:39Z</time>
      </trkpt>
      <trkpt lat="44.080242030322552" lon="7.860229024663568">
        <ele>819.17999999999995</ele>
        <time>2025-05-19T10:22:40Z</time>
      </trkpt>
      <trkpt lat="44.080641008913517" lon="7.862124005332589">
        <ele>829.75999999999999</ele>
        <time>2025-05-19T10:22:48Z</time>
      </trkpt>
      <trkpt lat="44.080743016675115" lon="7.862607976421714">
        <ele>832.63999999999999</ele>
        <time>2025-05-19T10:22:50Z</time>
      </trkpt>
      <trkpt lat="44.080782998353243" lon="7.862830013036728">
        <ele>834.08000000000004</ele>
        <time>2025-05-19T10:22:51Z</time>
      </trkpt>
      <trkpt lat="44.080756008625031" lon="7.863039979711175">
        <ele>835.51999999999998</ele>
        <time>2025-05-19T10:22:52Z</time>
      </trkpt>
      <trkpt lat="44.080692976713181" lon="7.863215999677777">
        <ele>836.96000000000004</ele>
        <time>2025-05-19T10:22:53Z</time>
      </trkpt>
      <trkpt lat="44.080601027235389" lon="7.863377016037703">
        <ele>837.92999999999995</ele>
        <time>2025-05-19T10:22:54Z</time>
      </trkpt>
      <trkpt lat="44.080502958968282" lon="7.863549012690783">
        <ele>839.37</ele>
        <time>2025-05-19T10:22:55Z</time>
      </trkpt>
      <trkpt lat="44.080339008942246" lon="7.863922007381916">
        <ele>841.76999999999998</ele>
        <time>2025-05-19T10:22:57Z</time>
      </trkpt>
      <trkpt lat="44.080273965373635" lon="7.864111019298434">
        <ele>843.21000000000004</ele>
        <time>2025-05-19T10:22:58Z</time>
      </trkpt>
      <trkpt lat="44.08019601367414" lon="7.864559032022953">
        <ele>846.58000000000004</ele>
        <time>2025-05-19T10:23:01Z</time>
      </trkpt>
      <trkpt lat="44.080232977867126" lon="7.864694986492395">
        <ele>848.01999999999998</ele>
        <time>2025-05-19T10:23:02Z</time>
      </trkpt>
      <trkpt lat="44.080259967595339" lon="7.864794982597232">
        <ele>848.98000000000002</ele>
        <time>2025-05-19T10:23:03Z</time>
      </trkpt>
      <trkpt lat="44.080367004498839" lon="7.864839993417263">
        <ele>849.46000000000004</ele>
        <time>2025-05-19T10:23:04Z</time>
      </trkpt>
      <trkpt lat="44.080492984503508" lon="7.864893972873688">
        <ele>850.41999999999996</ele>
        <time>2025-05-19T10:23:05Z</time>
      </trkpt>
      <trkpt lat="44.080611001700163" lon="7.864959016442299">
        <ele>850.89999999999998</ele>
        <time>2025-05-19T10:23:06Z</time>
      </trkpt>
      <trkpt lat="44.080707980319858" lon="7.86502699367702">
        <ele>851.38</ele>
        <time>2025-05-19T10:23:07Z</time>
      </trkpt>
      <trkpt lat="44.080786015838385" lon="7.865105029195547">
        <ele>852.35000000000002</ele>
        <time>2025-05-19T10:23:08Z</time>
      </trkpt>
      <trkpt lat="44.080839995294809" lon="7.865266967564821">
        <ele>852.83000000000004</ele>
        <time>2025-05-19T10:23:09Z</time>
      </trkpt>
      <trkpt lat="44.080854998901486" lon="7.865405017510057">
        <ele>853.78999999999996</ele>
        <time>2025-05-19T10:23:10Z</time>
      </trkpt>
      <trkpt lat="44.080839995294809" lon="7.865610038861632">
        <ele>855.23000000000002</ele>
        <time>2025-05-19T10:23:11Z</time>
      </trkpt>
      <trkpt lat="44.080816023051739" lon="7.865817993879318">
        <ele>856.66999999999996</ele>
        <time>2025-05-19T10:23:12Z</time>
      </trkpt>
      <trkpt lat="44.080785010010004" lon="7.866622991859913">
        <ele>862.44000000000005</ele>
        <time>2025-05-19T10:23:16Z</time>
      </trkpt>
      <trkpt lat="44.080776963382959" lon="7.866823989897966">
        <ele>863.88</ele>
        <time>2025-05-19T10:23:17Z</time>
      </trkpt>
      <trkpt lat="44.080714015290141" lon="7.867019036784768">
        <ele>864.84000000000003</ele>
        <time>2025-05-19T10:23:18Z</time>
      </trkpt>
      <trkpt lat="44.080634973943233" lon="7.867200002074242">
        <ele>866.28999999999996</ele>
        <time>2025-05-19T10:23:19Z</time>
      </trkpt>
      <trkpt lat="44.080558028072119" lon="7.867379039525986">
        <ele>867.73000000000002</ele>
        <time>2025-05-19T10:23:20Z</time>
      </trkpt>
      <trkpt lat="44.080355018377304" lon="7.867911960929632">
        <ele>872.52999999999997</ele>
        <time>2025-05-19T10:23:23Z</time>
      </trkpt>
      <trkpt lat="44.080329034477472" lon="7.868107007816434">
        <ele>873.98000000000002</ele>
        <time>2025-05-19T10:23:24Z</time>
      </trkpt>
      <trkpt lat="44.0802619792521" lon="7.868515038862824">
        <ele>875.89999999999998</ele>
        <time>2025-05-19T10:23:26Z</time>
      </trkpt>
      <trkpt lat="44.080197019502521" lon="7.868684018030763">
        <ele>877.34000000000003</ele>
        <time>2025-05-19T10:23:27Z</time>
      </trkpt>
      <trkpt lat="44.0801100153476" lon="7.868820978328586">
        <ele>878.77999999999997</ele>
        <time>2025-05-19T10:23:28Z</time>
      </trkpt>
      <trkpt lat="44.079706007614732" lon="7.869337974116206">
        <ele>884.07000000000005</ele>
        <time>2025-05-19T10:23:32Z</time>
      </trkpt>
      <trkpt lat="44.079636018723249" lon="7.869470994919539">
        <ele>885.02999999999997</ele>
        <time>2025-05-19T10:23:33Z</time>
      </trkpt>
      <trkpt lat="44.079621015116572" lon="7.86962203681469">
        <ele>885.99000000000001</ele>
        <time>2025-05-19T10:23:34Z</time>
      </trkpt>
      <trkpt lat="44.079651022329926" lon="7.86975396797061">
        <ele>886.95000000000005</ele>
        <time>2025-05-19T10:23:35Z</time>
      </trkpt>
      <trkpt lat="44.07970299012959" lon="7.869891012087464">
        <ele>887.42999999999995</ele>
        <time>2025-05-19T10:23:36Z</time>
      </trkpt>
      <trkpt lat="44.079768033698201" lon="7.87003300152719">
        <ele>888.39999999999998</ele>
        <time>2025-05-19T10:23:37Z</time>
      </trkpt>
      <trkpt lat="44.079899964854121" lon="7.870342964306474">
        <ele>889.84000000000003</ele>
        <time>2025-05-19T10:23:39Z</time>
      </trkpt>
      <trkpt lat="44.079959979280829" lon="7.870567012578249">
        <ele>890.79999999999995</ele>
        <time>2025-05-19T10:23:40Z</time>
      </trkpt>
      <trkpt lat="44.079959979280829" lon="7.870743032544851">
        <ele>891.75999999999999</ele>
        <time>2025-05-19T10:23:41Z</time>
      </trkpt>
      <trkpt lat="44.080004990100861" lon="7.871132958680391">
        <ele>893.67999999999995</ele>
        <time>2025-05-19T10:23:43Z</time>
      </trkpt>
      <trkpt lat="44.080051006749272" lon="7.8713190369308">
        <ele>894.63999999999999</ele>
        <time>2025-05-19T10:23:44Z</time>
      </trkpt>
      <trkpt lat="44.080097023397684" lon="7.871501008048654">
        <ele>895.61000000000001</ele>
        <time>2025-05-19T10:23:45Z</time>
      </trkpt>
      <trkpt lat="44.080176986753941" lon="7.871646014973521">
        <ele>896.57000000000005</ele>
        <time>2025-05-19T10:23:46Z</time>
      </trkpt>
      <trkpt lat="44.08028201200068" lon="7.871790016070008">
        <ele>897.52999999999997</ele>
        <time>2025-05-19T10:23:47Z</time>
      </trkpt>
      <trkpt lat="44.08041100949049" lon="7.871853969991207">
        <ele>898.97000000000003</ele>
        <time>2025-05-19T10:23:48Z</time>
      </trkpt>
      <trkpt lat="44.080539001151919" lon="7.871912978589535">
        <ele>899.92999999999995</ele>
        <time>2025-05-19T10:23:49Z</time>
      </trkpt>
      <trkpt lat="44.081935007125139" lon="7.872568024322391">
        <ele>910.02999999999997</ele>
        <time>2025-05-19T10:23:57Z</time>
      </trkpt>
      <trkpt lat="44.082722989842296" lon="7.872889973223209">
        <ele>917.24000000000001</ele>
        <time>2025-05-19T10:24:02Z</time>
      </trkpt>
      <trkpt lat="44.082849975675344" lon="7.872902965173125">
        <ele>918.67999999999995</ele>
        <time>2025-05-19T10:24:03Z</time>
      </trkpt>
      <trkpt lat="44.082980984821916" lon="7.872891984879971">
        <ele>920.12</ele>
        <time>2025-05-19T10:24:04Z</time>
      </trkpt>
      <trkpt lat="44.083524970337749" lon="7.872755024582148">
        <ele>923.96000000000004</ele>
        <time>2025-05-19T10:24:08Z</time>
      </trkpt>
      <trkpt lat="44.083665031939745" lon="7.872714959084988">
        <ele>924.92999999999995</ele>
        <time>2025-05-19T10:24:09Z</time>
      </trkpt>
      <trkpt lat="44.083808027207851" lon="7.872700961306691">
        <ele>925.40999999999997</ele>
        <time>2025-05-19T10:24:10Z</time>
      </trkpt>
      <trkpt lat="44.083954961970448" lon="7.87269601598382">
        <ele>925.88999999999999</ele>
        <time>2025-05-19T10:24:11Z</time>
      </trkpt>
      <trkpt lat="44.084094017744064" lon="7.872725017368794">
        <ele>926.37</ele>
        <time>2025-05-19T10:24:12Z</time>
      </trkpt>
      <trkpt lat="44.084233995527029" lon="7.872754018753767">
        <ele>926.85000000000002</ele>
        <time>2025-05-19T10:24:13Z</time>
      </trkpt>
      <trkpt lat="44.084374979138374" lon="7.872783020138741">
        <ele>927.33000000000004</ele>
        <time>2025-05-19T10:24:14Z</time>
      </trkpt>
      <trkpt lat="44.085224987939" lon="7.872875975444913">
        <ele>930.21000000000004</ele>
        <time>2025-05-19T10:24:20Z</time>
      </trkpt>
      <trkpt lat="44.085360020399094" lon="7.872873041778803">
        <ele>930.21000000000004</ele>
        <time>2025-05-19T10:24:21Z</time>
      </trkpt>
      <trkpt lat="44.086375990882516" lon="7.872819984331727">
        <ele>932.13999999999999</ele>
        <time>2025-05-19T10:24:28Z</time>
      </trkpt>
      <trkpt lat="44.086517980322242" lon="7.872820990160108">
        <ele>932.62</ele>
        <time>2025-05-19T10:24:29Z</time>
      </trkpt>
      <trkpt lat="44.086664998903871" lon="7.872831970453262">
        <ele>932.13999999999999</ele>
        <time>2025-05-19T10:24:30Z</time>
      </trkpt>
      <trkpt lat="44.08681302331388" lon="7.872848985716701">
        <ele>931.64999999999998</ele>
        <time>2025-05-19T10:24:31Z</time>
      </trkpt>
      <trkpt lat="44.086959036067128" lon="7.872888967394829">
        <ele>931.16999999999996</ele>
        <time>2025-05-19T10:24:32Z</time>
      </trkpt>
      <trkpt lat="44.087105970829725" lon="7.872929032891989">
        <ele>930.69000000000005</ele>
        <time>2025-05-19T10:24:33Z</time>
      </trkpt>
      <trkpt lat="44.087247960269451" lon="7.872968008741736">
        <ele>930.21000000000004</ele>
        <time>2025-05-19T10:24:34Z</time>
      </trkpt>
      <trkpt lat="44.087387016043067" lon="7.873005978763104">
        <ele>929.25</ele>
        <time>2025-05-19T10:24:35Z</time>
      </trkpt>
      <trkpt lat="44.087527999654412" lon="7.873044032603502">
        <ele>928.28999999999996</ele>
        <time>2025-05-19T10:24:36Z</time>
      </trkpt>
      <trkpt lat="44.087665965780616" lon="7.873077979311347">
        <ele>927.33000000000004</ele>
        <time>2025-05-19T10:24:37Z</time>
      </trkpt>
      <trkpt lat="44.08808397129178" lon="7.873128019273281">
        <ele>924.45000000000005</ele>
        <time>2025-05-19T10:24:40Z</time>
      </trkpt>
      <trkpt lat="44.08823199570179" lon="7.873158026486635">
        <ele>923.48000000000002</ele>
        <time>2025-05-19T10:24:41Z</time>
      </trkpt>
      <trkpt lat="44.088371973484755" lon="7.873228015378118">
        <ele>923</ele>
        <time>2025-05-19T10:24:42Z</time>
      </trkpt>
      <trkpt lat="44.088509017601609" lon="7.873295992612839">
        <ele>922.51999999999998</ele>
        <time>2025-05-19T10:24:43Z</time>
      </trkpt>
      <trkpt lat="44.088650001212955" lon="7.873399006202817">
        <ele>921.55999999999995</ele>
        <time>2025-05-19T10:24:44Z</time>
      </trkpt>
      <trkpt lat="44.089106982573867" lon="7.873667981475592">
        <ele>920.12</ele>
        <time>2025-05-19T10:24:48Z</time>
      </trkpt>
      <trkpt lat="44.089231034740806" lon="7.873682985082269">
        <ele>919.63999999999999</ele>
        <time>2025-05-19T10:24:49Z</time>
      </trkpt>
      <trkpt lat="44.089361960068345" lon="7.873688014224172">
        <ele>919.15999999999997</ele>
        <time>2025-05-19T10:24:50Z</time>
      </trkpt>
      <trkpt lat="44.089495986700058" lon="7.873692959547043">
        <ele>918.20000000000005</ele>
        <time>2025-05-19T10:24:51Z</time>
      </trkpt>
      <trkpt lat="44.089659014716744" lon="7.873700000345707">
        <ele>917.72000000000003</ele>
        <time>2025-05-19T10:24:52Z</time>
      </trkpt>
      <trkpt lat="44.090769030153751" lon="7.873551975935698">
        <ele>910.50999999999999</ele>
        <time>2025-05-19T10:25:01Z</time>
      </trkpt>
      <trkpt lat="44.091525999829173" lon="7.873418033123016">
        <ele>904.25999999999999</ele>
        <time>2025-05-19T10:25:07Z</time>
      </trkpt>
      <trkpt lat="44.09164602868259" lon="7.873349972069264">
        <ele>903.29999999999995</ele>
        <time>2025-05-19T10:25:08Z</time>
      </trkpt>
      <trkpt lat="44.092093035578728" lon="7.873118966817856">
        <ele>901.37</ele>
        <time>2025-05-19T10:25:12Z</time>
      </trkpt>
      <trkpt lat="44.092212980613112" lon="7.87310597486794">
        <ele>900.88999999999999</ele>
        <time>2025-05-19T10:25:13Z</time>
      </trkpt>
      <trkpt lat="44.092330997809768" lon="7.873107986524701">
        <ele>900.40999999999997</ele>
        <time>2025-05-19T10:25:14Z</time>
      </trkpt>
      <trkpt lat="44.092886969447136" lon="7.873141011223197">
        <ele>898.00999999999999</ele>
        <time>2025-05-19T10:25:19Z</time>
      </trkpt>
      <trkpt lat="44.092997023835778" lon="7.873127013444901">
        <ele>897.52999999999997</ele>
        <time>2025-05-19T10:25:20Z</time>
      </trkpt>
      <trkpt lat="44.093106994405389" lon="7.873087031766772">
        <ele>897.04999999999995</ele>
        <time>2025-05-19T10:25:21Z</time>
      </trkpt>
      <trkpt lat="44.093214031308889" lon="7.873026011511684">
        <ele>897.04999999999995</ele>
        <time>2025-05-19T10:25:22Z</time>
      </trkpt>
      <trkpt lat="44.0933240018785" lon="7.872961973771453">
        <ele>896.57000000000005</ele>
        <time>2025-05-19T10:25:23Z</time>
      </trkpt>
      <trkpt lat="44.094039984047413" lon="7.872605994343758">
        <ele>894.63999999999999</ele>
        <time>2025-05-19T10:25:29Z</time>
      </trkpt>
      <trkpt lat="44.094409961253405" lon="7.872486971318722">
        <ele>893.20000000000005</ele>
        <time>2025-05-19T10:25:32Z</time>
      </trkpt>
      <trkpt lat="44.094538036733866" lon="7.872446989640594">
        <ele>892.72000000000003</ele>
        <time>2025-05-19T10:25:33Z</time>
      </trkpt>
      <trkpt lat="44.096363028511405" lon="7.871907027438283">
        <ele>886.47000000000003</ele>
        <time>2025-05-19T10:25:48Z</time>
      </trkpt>
      <trkpt lat="44.096983037889004" lon="7.871722960844636">
        <ele>887.42999999999995</ele>
        <time>2025-05-19T10:25:53Z</time>
      </trkpt>
      <trkpt lat="44.09710499458015" lon="7.871682979166508">
        <ele>887.90999999999997</ele>
        <time>2025-05-19T10:25:54Z</time>
      </trkpt>
      <trkpt lat="44.098209980875254" lon="7.871325993910432">
        <ele>890.32000000000005</ele>
        <time>2025-05-19T10:26:03Z</time>
      </trkpt>
      <trkpt lat="44.098826972767711" lon="7.871116027235985">
        <ele>889.84000000000003</ele>
        <time>2025-05-19T10:26:08Z</time>
      </trkpt>
      <trkpt lat="44.09910399466753" lon="7.871065987274051">
        <ele>889.36000000000001</ele>
        <time>2025-05-19T10:26:10Z</time>
      </trkpt>
      <trkpt lat="44.099251013249159" lon="7.87108501419425">
        <ele>889.36000000000001</ele>
        <time>2025-05-19T10:26:11Z</time>
      </trkpt>
      <trkpt lat="44.099715035408735" lon="7.871207976713777">
        <ele>887.90999999999997</ele>
        <time>2025-05-19T10:26:14Z</time>
      </trkpt>
      <trkpt lat="44.099878985434771" lon="7.871178975328803">
        <ele>887.42999999999995</ele>
        <time>2025-05-19T10:26:15Z</time>
      </trkpt>
      <trkpt lat="44.100044025108218" lon="7.871148968115449">
        <ele>887.42999999999995</ele>
        <time>2025-05-19T10:26:16Z</time>
      </trkpt>
      <trkpt lat="44.101396026089787" lon="7.870851997286081">
        <ele>885.02999999999997</ele>
        <time>2025-05-19T10:26:24Z</time>
      </trkpt>
      <trkpt lat="44.101542038843036" lon="7.870816960930824">
        <ele>884.07000000000005</ele>
        <time>2025-05-19T10:26:25Z</time>
      </trkpt>
      <trkpt lat="44.102703016251326" lon="7.870494006201625">
        <ele>880.22000000000003</ele>
        <time>2025-05-19T10:26:33Z</time>
      </trkpt>
      <trkpt lat="44.102840982377529" lon="7.870481014251709">
        <ele>879.74000000000001</ele>
        <time>2025-05-19T10:26:34Z</time>
      </trkpt>
      <trkpt lat="44.102980038151145" lon="7.870481014251709">
        <ele>879.74000000000001</ele>
        <time>2025-05-19T10:26:35Z</time>
      </trkpt>
      <trkpt lat="44.103123033419251" lon="7.870502974838018">
        <ele>879.25999999999999</ele>
        <time>2025-05-19T10:26:36Z</time>
      </trkpt>
      <trkpt lat="44.103268962353468" lon="7.870544968172908">
        <ele>879.25999999999999</ele>
        <time>2025-05-19T10:26:37Z</time>
      </trkpt>
      <trkpt lat="44.10443396307528" lon="7.870875969529152">
        <ele>877.34000000000003</ele>
        <time>2025-05-19T10:26:45Z</time>
      </trkpt>
      <trkpt lat="44.10556904040277" lon="7.870971020311117">
        <ele>873.98000000000002</ele>
        <time>2025-05-19T10:26:51Z</time>
      </trkpt>
      <trkpt lat="44.105766015127301" lon="7.870988035574555">
        <ele>873.00999999999999</ele>
        <time>2025-05-19T10:26:52Z</time>
      </trkpt>
      <trkpt lat="44.105957960709929" lon="7.871028017252684">
        <ele>872.04999999999995</ele>
        <time>2025-05-19T10:26:53Z</time>
      </trkpt>
      <trkpt lat="44.106148984283209" lon="7.871089959517121">
        <ele>871.09000000000003</ele>
        <time>2025-05-19T10:26:54Z</time>
      </trkpt>
      <trkpt lat="44.106865972280502" lon="7.871292969211936">
        <ele>867.25</ele>
        <time>2025-05-19T10:26:58Z</time>
      </trkpt>
      <trkpt lat="44.107022965326905" lon="7.871258016675711">
        <ele>866.76999999999998</ele>
        <time>2025-05-19T10:26:59Z</time>
      </trkpt>
      <trkpt lat="44.107190016657114" lon="7.871210994198918">
        <ele>865.79999999999995</ele>
        <time>2025-05-19T10:27:00Z</time>
      </trkpt>
      <trkpt lat="44.107339968904853" lon="7.871146034449339">
        <ele>864.84000000000003</ele>
        <time>2025-05-19T10:27:01Z</time>
      </trkpt>
      <trkpt lat="44.107479024678469" lon="7.871075039729476">
        <ele>863.88</ele>
        <time>2025-05-19T10:27:02Z</time>
      </trkpt>
      <trkpt lat="44.107646998018026" lon="7.871037991717458">
        <ele>863.39999999999998</ele>
        <time>2025-05-19T10:27:03Z</time>
      </trkpt>
      <trkpt lat="44.107821006327868" lon="7.87099901586771">
        <ele>862.44000000000005</ele>
        <time>2025-05-19T10:27:04Z</time>
      </trkpt>
      <trkpt lat="44.107994008809328" lon="7.870960040017963">
        <ele>861.48000000000002</ele>
        <time>2025-05-19T10:27:05Z</time>
      </trkpt>
      <trkpt lat="44.108157958835363" lon="7.870906982570887">
        <ele>861</ele>
        <time>2025-05-19T10:27:06Z</time>
      </trkpt>
      <trkpt lat="44.108317969366908" lon="7.870829030871391">
        <ele>860.51999999999998</ele>
        <time>2025-05-19T10:27:07Z</time>
      </trkpt>
      <trkpt lat="44.108474962413311" lon="7.870717970654368">
        <ele>860.03999999999996</ele>
        <time>2025-05-19T10:27:08Z</time>
      </trkpt>
      <trkpt lat="44.108606977388263" lon="7.870558965951204">
        <ele>860.03999999999996</ele>
        <time>2025-05-19T10:27:09Z</time>
      </trkpt>
      <trkpt lat="44.108743015676737" lon="7.870391998440027">
        <ele>859.55999999999995</ele>
        <time>2025-05-19T10:27:10Z</time>
      </trkpt>
      <trkpt lat="44.108877964317799" lon="7.870221007615328">
        <ele>859.08000000000004</ele>
        <time>2025-05-19T10:27:11Z</time>
      </trkpt>
      <trkpt lat="44.108997993171215" lon="7.870029984042049">
        <ele>858.59000000000003</ele>
        <time>2025-05-19T10:27:12Z</time>
      </trkpt>
      <trkpt lat="44.10935296677053" lon="7.869532015174627">
        <ele>857.14999999999998</ele>
        <time>2025-05-19T10:27:15Z</time>
      </trkpt>
      <trkpt lat="44.109480958431959" lon="7.869426989927888">
        <ele>856.19000000000005</ele>
        <time>2025-05-19T10:27:16Z</time>
      </trkpt>
      <trkpt lat="44.109636023640633" lon="7.869364963844419">
        <ele>855.71000000000004</ele>
        <time>2025-05-19T10:27:17Z</time>
      </trkpt>
      <trkpt lat="44.109765021130443" lon="7.869370998814702">
        <ele>855.23000000000002</ele>
        <time>2025-05-19T10:27:18Z</time>
      </trkpt>
      <trkpt lat="44.109923020005226" lon="7.869378961622715">
        <ele>854.75</ele>
        <time>2025-05-19T10:27:19Z</time>
      </trkpt>
      <trkpt lat="44.110085964202881" lon="7.86938700824976">
        <ele>854.26999999999998</ele>
        <time>2025-05-19T10:27:20Z</time>
      </trkpt>
      <trkpt lat="44.11025402136147" lon="7.869326993823052">
        <ele>853.30999999999995</ele>
        <time>2025-05-19T10:27:21Z</time>
      </trkpt>
      <trkpt lat="44.110430041328073" lon="7.869264967739582">
        <ele>852.35000000000002</ele>
        <time>2025-05-19T10:27:22Z</time>
      </trkpt>
      <trkpt lat="44.111137976869941" lon="7.869064975529909">
        <ele>848.5</ele>
        <time>2025-05-19T10:27:26Z</time>
      </trkpt>
      <trkpt lat="44.111317014321685" lon="7.869096994400024">
        <ele>847.53999999999996</ele>
        <time>2025-05-19T10:27:27Z</time>
      </trkpt>
      <trkpt lat="44.111502002924681" lon="7.86913001909852">
        <ele>846.58000000000004</ele>
        <time>2025-05-19T10:27:28Z</time>
      </trkpt>
      <trkpt lat="44.112002989277244" lon="7.869208976626396">
        <ele>843.21000000000004</ele>
        <time>2025-05-19T10:27:31Z</time>
      </trkpt>
      <trkpt lat="44.11216601729393" lon="7.869176035746932">
        <ele>842.25</ele>
        <time>2025-05-19T10:27:32Z</time>
      </trkpt>
      <trkpt lat="44.112679995596409" lon="7.869052989408374">
        <ele>839.37</ele>
        <time>2025-05-19T10:27:35Z</time>
      </trkpt>
      <trkpt lat="44.112855009734631" lon="7.868967996910214">
        <ele>838.40999999999997</ele>
        <time>2025-05-19T10:27:36Z</time>
      </trkpt>
      <trkpt lat="44.113017031922936" lon="7.868846040219069">
        <ele>837.45000000000005</ele>
        <time>2025-05-19T10:27:37Z</time>
      </trkpt>
      <trkpt lat="44.113513994961977" lon="7.868512021377683">
        <ele>834.55999999999995</ele>
        <time>2025-05-19T10:27:40Z</time>
      </trkpt>
      <trkpt lat="44.113693032413721" lon="7.86844496615231">
        <ele>833.60000000000002</ele>
        <time>2025-05-19T10:27:41Z</time>
      </trkpt>
      <trkpt lat="44.113873997703195" lon="7.868414958938956">
        <ele>832.15999999999997</ele>
        <time>2025-05-19T10:27:42Z</time>
      </trkpt>
      <trkpt lat="44.114360986277461" lon="7.868345975875855">
        <ele>828.30999999999995</ele>
        <time>2025-05-19T10:27:45Z</time>
      </trkpt>
      <trkpt lat="44.114504987373948" lon="7.868252014741302">
        <ele>826.38999999999999</ele>
        <time>2025-05-19T10:27:46Z</time>
      </trkpt>
      <trkpt lat="44.114806987345219" lon="7.868012962862849">
        <ele>823.50999999999999</ele>
        <time>2025-05-19T10:27:48Z</time>
      </trkpt>
      <trkpt lat="44.114985018968582" lon="7.867917995899916">
        <ele>822.54999999999995</ele>
        <time>2025-05-19T10:27:49Z</time>
      </trkpt>
      <trkpt lat="44.115165984258056" lon="7.867822023108602">
        <ele>821.10000000000002</ele>
        <time>2025-05-19T10:27:50Z</time>
      </trkpt>
      <trkpt lat="44.115339992567897" lon="7.867727978155017">
        <ele>819.65999999999997</ele>
        <time>2025-05-19T10:27:51Z</time>
      </trkpt>
      <trkpt lat="44.115520035848022" lon="7.867671987041831">
        <ele>818.70000000000005</ele>
        <time>2025-05-19T10:27:52Z</time>
      </trkpt>
      <trkpt lat="44.11620601080358" lon="7.867551958188415">
        <ele>814.85000000000002</ele>
        <time>2025-05-19T10:27:56Z</time>
      </trkpt>
      <trkpt lat="44.116374989971519" lon="7.86754097789526">
        <ele>813.88999999999999</ele>
        <time>2025-05-19T10:27:57Z</time>
      </trkpt>
      <trkpt lat="44.117356007918715" lon="7.867511976510286">
        <ele>808.13</ele>
        <time>2025-05-19T10:28:04Z</time>
      </trkpt>
      <trkpt lat="44.117457009851933" lon="7.867494039237499">
        <ele>807.63999999999999</ele>
        <time>2025-05-19T10:28:05Z</time>
      </trkpt>
      <trkpt lat="44.117543008178473" lon="7.867479035630822">
        <ele>807.15999999999997</ele>
        <time>2025-05-19T10:28:06Z</time>
      </trkpt>
      <trkpt lat="44.117614002898335" lon="7.867512982338667">
        <ele>807.15999999999997</ele>
        <time>2025-05-19T10:28:07Z</time>
      </trkpt>
      <trkpt lat="44.117676028981805" lon="7.867553969845176">
        <ele>807.15999999999997</ele>
        <time>2025-05-19T10:28:08Z</time>
      </trkpt>
      <trkpt lat="44.117737971246243" lon="7.867603003978729">
        <ele>807.15999999999997</ele>
        <time>2025-05-19T10:28:09Z</time>
      </trkpt>
      <trkpt lat="44.117804020643234" lon="7.867654971778393">
        <ele>807.63999999999999</ele>
        <time>2025-05-19T10:28:10Z</time>
      </trkpt>
      <trkpt lat="44.118196964263916" lon="7.868098961189389">
        <ele>808.13</ele>
        <time>2025-05-19T10:28:17Z</time>
      </trkpt>
      <trkpt lat="44.11818296648562" lon="7.8681830316782">
        <ele>808.13</ele>
        <time>2025-05-19T10:28:18Z</time>
      </trkpt>
      <trkpt lat="44.11816100589931" lon="7.86831202916801">
        <ele>807.63999999999999</ele>
        <time>2025-05-19T10:28:19Z</time>
      </trkpt>
      <trkpt lat="44.118135021999478" lon="7.86846399307251">
        <ele>807.63999999999999</ele>
        <time>2025-05-19T10:28:20Z</time>
      </trkpt>
      <trkpt lat="44.118107026442885" lon="7.868621991947293">
        <ele>807.63999999999999</ele>
        <time>2025-05-19T10:28:21Z</time>
      </trkpt>
      <trkpt lat="44.118079030886292" lon="7.868780996650457">
        <ele>807.63999999999999</ele>
        <time>2025-05-19T10:28:22Z</time>
      </trkpt>
      <trkpt lat="44.118047012016177" lon="7.868944024667144">
        <ele>807.15999999999997</ele>
        <time>2025-05-19T10:28:23Z</time>
      </trkpt>
      <trkpt lat="44.118015998974442" lon="7.869102023541927">
        <ele>806.67999999999995</ele>
        <time>2025-05-19T10:28:24Z</time>
      </trkpt>
      <trkpt lat="44.117908040061593" lon="7.869884977117181">
        <ele>804.75999999999999</ele>
        <time>2025-05-19T10:28:29Z</time>
      </trkpt>
      <trkpt lat="44.117919020354748" lon="7.87005202844739">
        <ele>804.75999999999999</ele>
        <time>2025-05-19T10:28:30Z</time>
      </trkpt>
      <trkpt lat="44.117965959012508" lon="7.870206004008651">
        <ele>804.75999999999999</ele>
        <time>2025-05-19T10:28:31Z</time>
      </trkpt>
      <trkpt lat="44.11811700090766" lon="7.870703972876072">
        <ele>803.79999999999995</ele>
        <time>2025-05-19T10:28:34Z</time>
      </trkpt>
      <trkpt lat="44.118325039744377" lon="7.871670993044972">
        <ele>801.39999999999998</ele>
        <time>2025-05-19T10:28:40Z</time>
      </trkpt>
      <trkpt lat="44.118309030309319" lon="7.87183896638453">
        <ele>800.91999999999996</ele>
        <time>2025-05-19T10:28:41Z</time>
      </trkpt>
      <trkpt lat="44.118241975083947" lon="7.872665002942085">
        <ele>798.99000000000001</ele>
        <time>2025-05-19T10:28:46Z</time>
      </trkpt>
      <trkpt lat="44.118291009217501" lon="7.873673010617495">
        <ele>797.07000000000005</ele>
        <time>2025-05-19T10:28:51Z</time>
      </trkpt>
      <trkpt lat="44.118334008380771" lon="7.87389999255538">
        <ele>796.59000000000003</ele>
        <time>2025-05-19T10:28:52Z</time>
      </trkpt>
      <trkpt lat="44.11848396062851" lon="7.874382035806775">
        <ele>794.66999999999996</ele>
        <time>2025-05-19T10:28:54Z</time>
      </trkpt>
      <trkpt lat="44.118567025288939" lon="7.874655034393072">
        <ele>794.19000000000005</ele>
        <time>2025-05-19T10:28:55Z</time>
      </trkpt>
      <trkpt lat="44.118901966139674" lon="7.875765971839428">
        <ele>793.22000000000003</ele>
        <time>2025-05-19T10:28:59Z</time>
      </trkpt>
      <trkpt lat="44.118958963081241" lon="7.875995971262455">
        <ele>792.74000000000001</ele>
        <time>2025-05-19T10:29:00Z</time>
      </trkpt>
      <trkpt lat="44.118958041071892" lon="7.876235023140907">
        <ele>792.25999999999999</ele>
        <time>2025-05-19T10:29:01Z</time>
      </trkpt>
      <trkpt lat="44.118925016373396" lon="7.87645697593689">
        <ele>791.77999999999997</ele>
        <time>2025-05-19T10:29:02Z</time>
      </trkpt>
      <trkpt lat="44.118858966976404" lon="7.876665014773607">
        <ele>791.29999999999995</ele>
        <time>2025-05-19T10:29:03Z</time>
      </trkpt>
      <trkpt lat="44.118793001398444" lon="7.876876993104816">
        <ele>790.82000000000005</ele>
        <time>2025-05-19T10:29:04Z</time>
      </trkpt>
      <trkpt lat="44.118728963658214" lon="7.877082014456391">
        <ele>790.82000000000005</ele>
        <time>2025-05-19T10:29:05Z</time>
      </trkpt>
      <trkpt lat="44.11869996227324" lon="7.877292986959219">
        <ele>790.82000000000005</ele>
        <time>2025-05-19T10:29:06Z</time>
      </trkpt>
      <trkpt lat="44.118712032213807" lon="7.87750999443233">
        <ele>790.82000000000005</ele>
        <time>2025-05-19T10:29:07Z</time>
      </trkpt>
      <trkpt lat="44.11876299418509" lon="7.877746028825641">
        <ele>790.82000000000005</ele>
        <time>2025-05-19T10:29:08Z</time>
      </trkpt>
      <trkpt lat="44.118816973641515" lon="7.877993965521455">
        <ele>790.34000000000003</ele>
        <time>2025-05-19T10:29:09Z</time>
      </trkpt>
      <trkpt lat="44.119060970842838" lon="7.879029968753457">
        <ele>788.41999999999996</ele>
        <time>2025-05-19T10:29:13Z</time>
      </trkpt>
      <trkpt lat="44.119356013834476" lon="7.880229000002146">
        <ele>785.52999999999997</ele>
        <time>2025-05-19T10:29:19Z</time>
      </trkpt>
      <trkpt lat="44.119786005467176" lon="7.881618971005082">
        <ele>781.69000000000005</ele>
        <time>2025-05-19T10:29:28Z</time>
      </trkpt>
      <trkpt lat="44.119997983798385" lon="7.882044017314911">
        <ele>780.25</ele>
        <time>2025-05-19T10:29:31Z</time>
      </trkpt>
      <trkpt lat="44.120082976296544" lon="7.882177960127592">
        <ele>780.25</ele>
        <time>2025-05-19T10:29:32Z</time>
      </trkpt>
      <trkpt lat="44.120177021250129" lon="7.882315004244447">
        <ele>779.76999999999998</ele>
        <time>2025-05-19T10:29:33Z</time>
      </trkpt>
      <trkpt lat="44.120276011526585" lon="7.88245196454227">
        <ele>779.76999999999998</ele>
        <time>2025-05-19T10:29:34Z</time>
      </trkpt>
      <trkpt lat="44.120372990146279" lon="7.882584985345602">
        <ele>779.28999999999996</ele>
        <time>2025-05-19T10:29:35Z</time>
      </trkpt>
      <trkpt lat="44.120473992079496" lon="7.882723035290837">
        <ele>779.28999999999996</ele>
        <time>2025-05-19T10:29:36Z</time>
      </trkpt>
      <trkpt lat="44.120574994012713" lon="7.88285999558866">
        <ele>779.76999999999998</ele>
        <time>2025-05-19T10:29:37Z</time>
      </trkpt>
      <trkpt lat="44.120671972632408" lon="7.882992010563612">
        <ele>779.76999999999998</ele>
        <time>2025-05-19T10:29:38Z</time>
      </trkpt>
      <trkpt lat="44.120723018422723" lon="7.883146991953254">
        <ele>779.76999999999998</ele>
        <time>2025-05-19T10:29:39Z</time>
      </trkpt>
      <trkpt lat="44.120768029242754" lon="7.883307002484798">
        <ele>780.25</ele>
        <time>2025-05-19T10:29:40Z</time>
      </trkpt>
      <trkpt lat="44.120805999264121" lon="7.883447986096144">
        <ele>780.73000000000002</ele>
        <time>2025-05-19T10:29:41Z</time>
      </trkpt>
      <trkpt lat="44.120909012854099" lon="7.883820980787277">
        <ele>782.64999999999998</ele>
        <time>2025-05-19T10:29:46Z</time>
      </trkpt>
      <trkpt lat="44.120919993147254" lon="7.883859034627676">
        <ele>783.13</ele>
        <time>2025-05-19T10:29:47Z</time>
      </trkpt>
      <trkpt lat="44.120926028117537" lon="7.88388904184103">
        <ele>783.13</ele>
        <time>2025-05-19T10:29:48Z</time>
      </trkpt>
      <trkpt lat="44.120928961783648" lon="7.88391100242734">
        <ele>783.61000000000001</ele>
        <time>2025-05-19T10:29:49Z</time>
      </trkpt>
      <trkpt lat="44.120928961783648" lon="7.88391100242734">
        <ele>784.09000000000003</ele>
        <time>2025-05-19T10:30:01Z</time>
      </trkpt>
      <trkpt lat="44.120928961783648" lon="7.88391100242734">
        <ele>785.04999999999995</ele>
        <time>2025-05-19T10:30:49Z</time>
      </trkpt>
      <trkpt lat="44.120946982875466" lon="7.884023990482092">
        <ele>787.46000000000004</ele>
        <time>2025-05-19T10:30:53Z</time>
      </trkpt>
      <trkpt lat="44.120963998138905" lon="7.88412700407207">
        <ele>789.38</ele>
        <time>2025-05-19T10:30:54Z</time>
      </trkpt>
      <trkpt lat="44.120982019230723" lon="7.884238986298442">
        <ele>790.34000000000003</ele>
        <time>2025-05-19T10:30:55Z</time>
      </trkpt>
      <trkpt lat="44.120999034494162" lon="7.884347029030323">
        <ele>790.82000000000005</ele>
        <time>2025-05-19T10:30:56Z</time>
      </trkpt>
      <trkpt lat="44.121017977595329" lon="7.884464040398598">
        <ele>791.29999999999995</ele>
        <time>2025-05-19T10:30:57Z</time>
      </trkpt>
      <trkpt lat="44.121138006448746" lon="7.885011965408921">
        <ele>792.74000000000001</ele>
        <time>2025-05-19T10:31:01Z</time>
      </trkpt>
      <trkpt lat="44.121359959244728" lon="7.885988960042596">
        <ele>794.66999999999996</ele>
        <time>2025-05-19T10:31:08Z</time>
      </trkpt>
      <trkpt lat="44.121459033340216" lon="7.886435966938734">
        <ele>796.11000000000001</ele>
        <time>2025-05-19T10:31:11Z</time>
      </trkpt>
      <trkpt lat="44.121463978663087" lon="7.886593965813518">
        <ele>796.59000000000003</ele>
        <time>2025-05-19T10:31:12Z</time>
      </trkpt>
      <trkpt lat="44.121468001976609" lon="7.886750958859921">
        <ele>797.07000000000005</ele>
        <time>2025-05-19T10:31:13Z</time>
      </trkpt>
      <trkpt lat="44.121473031118512" lon="7.886918010190129">
        <ele>797.07000000000005</ele>
        <time>2025-05-19T10:31:14Z</time>
      </trkpt>
      <trkpt lat="44.121477976441383" lon="7.887085983529687">
        <ele>797.07000000000005</ele>
        <time>2025-05-19T10:31:15Z</time>
      </trkpt>
      <trkpt lat="44.121473031118512" lon="7.887260997667909">
        <ele>797.07000000000005</ele>
        <time>2025-05-19T10:31:16Z</time>
      </trkpt>
      <trkpt lat="44.121458027511835" lon="7.887432994320989">
        <ele>797.07000000000005</ele>
        <time>2025-05-19T10:31:17Z</time>
      </trkpt>
      <trkpt lat="44.121443023905158" lon="7.887605996802449">
        <ele>796.59000000000003</ele>
        <time>2025-05-19T10:31:18Z</time>
      </trkpt>
      <trkpt lat="44.121316038072109" lon="7.889267960563302">
        <ele>793.71000000000004</ele>
        <time>2025-05-19T10:31:27Z</time>
      </trkpt>
      <trkpt lat="44.121349984779954" lon="7.88973500020802">
        <ele>792.74000000000001</ele>
        <time>2025-05-19T10:31:30Z</time>
      </trkpt>
      <trkpt lat="44.121367000043392" lon="7.89018401876092">
        <ele>791.77999999999997</ele>
        <time>2025-05-19T10:31:33Z</time>
      </trkpt>
      <trkpt lat="44.121359037235379" lon="7.890356015414">
        <ele>791.29999999999995</ele>
        <time>2025-05-19T10:31:34Z</time>
      </trkpt>
      <trkpt lat="44.121350990608335" lon="7.890533041208983">
        <ele>790.82000000000005</ele>
        <time>2025-05-19T10:31:35Z</time>
      </trkpt>
      <trkpt lat="44.121330035850406" lon="7.890994967892766">
        <ele>789.86000000000001</ele>
        <time>2025-05-19T10:31:38Z</time>
      </trkpt>
      <trkpt lat="44.121358031406999" lon="7.891120025888085">
        <ele>789.38</ele>
        <time>2025-05-19T10:31:39Z</time>
      </trkpt>
      <trkpt lat="44.121388038620353" lon="7.891231002286077">
        <ele>788.89999999999998</ele>
        <time>2025-05-19T10:31:40Z</time>
      </trkpt>
      <trkpt lat="44.1214270144701" lon="7.891337033361197">
        <ele>788.41999999999996</ele>
        <time>2025-05-19T10:31:41Z</time>
      </trkpt>
      <trkpt lat="44.121485017240047" lon="7.891437029466033">
        <ele>787.94000000000005</ele>
        <time>2025-05-19T10:31:42Z</time>
      </trkpt>
      <trkpt lat="44.121546037495136" lon="7.89153803139925">
        <ele>787.46000000000004</ele>
        <time>2025-05-19T10:31:43Z</time>
      </trkpt>
      <trkpt lat="44.121802020817995" lon="7.891959976404905">
        <ele>785.52999999999997</ele>
        <time>2025-05-19T10:31:47Z</time>
      </trkpt>
      <trkpt lat="44.121880978345871" lon="7.892186036333442">
        <ele>785.04999999999995</ele>
        <time>2025-05-19T10:31:49Z</time>
      </trkpt>
      <trkpt lat="44.121905034407973" lon="7.892256025224924">
        <ele>784.57000000000005</ele>
        <time>2025-05-19T10:31:50Z</time>
      </trkpt>
      <trkpt lat="44.121931018307805" lon="7.892329031601548">
        <ele>782.64999999999998</ele>
        <time>2025-05-19T10:31:58Z</time>
      </trkpt>
      <trkpt lat="44.121931018307805" lon="7.892329031601548">
        <ele>783.13</ele>
        <time>2025-05-19T10:32:35Z</time>
      </trkpt>
      <trkpt lat="44.121931018307805" lon="7.892329031601548">
        <ele>783.13</ele>
        <time>2025-05-19T10:33:26Z</time>
      </trkpt>
      <trkpt lat="44.121931018307805" lon="7.892329031601548">
        <ele>783.61000000000001</ele>
        <time>2025-05-19T10:34:21Z</time>
      </trkpt>
      <trkpt lat="44.121931018307805" lon="7.892329031601548">
        <ele>784.09000000000003</ele>
        <time>2025-05-19T10:35:04Z</time>
      </trkpt>
      <trkpt lat="44.121931018307805" lon="7.892329031601548">
        <ele>784.09000000000003</ele>
        <time>2025-05-19T10:35:55Z</time>
      </trkpt>
      <trkpt lat="44.121931018307805" lon="7.892329031601548">
        <ele>784.09000000000003</ele>
        <time>2025-05-19T10:36:51Z</time>
      </trkpt>
      <trkpt lat="44.121931018307805" lon="7.892329031601548">
        <ele>784.09000000000003</ele>
        <time>2025-05-19T10:37:41Z</time>
      </trkpt>
      <trkpt lat="44.121979968622327" lon="7.892473032698035">
        <ele>785.04999999999995</ele>
        <time>2025-05-19T10:37:50Z</time>
      </trkpt>
      <trkpt lat="44.122003018856049" lon="7.892546039074659">
        <ele>785.52999999999997</ele>
        <time>2025-05-19T10:37:51Z</time>
      </trkpt>
      <trkpt lat="44.122052974998951" lon="7.892703032121062">
        <ele>785.52999999999997</ele>
        <time>2025-05-19T10:37:53Z</time>
      </trkpt>
      <trkpt lat="44.122184989973903" lon="7.893121037632227">
        <ele>785.04999999999995</ele>
        <time>2025-05-19T10:37:57Z</time>
      </trkpt>
      <trkpt lat="44.12222002632916" lon="7.893233019858599">
        <ele>784.57000000000005</ele>
        <time>2025-05-19T10:37:58Z</time>
      </trkpt>
      <trkpt lat="44.122284986078739" lon="7.893318012356758">
        <ele>784.09000000000003</ele>
        <time>2025-05-19T10:37:59Z</time>
      </trkpt>
      <trkpt lat="44.122365033254027" lon="7.893393030390143">
        <ele>784.57000000000005</ele>
        <time>2025-05-19T10:38:00Z</time>
      </trkpt>
      <trkpt lat="44.122446002438664" lon="7.893468970432878">
        <ele>785.04999999999995</ele>
        <time>2025-05-19T10:38:01Z</time>
      </trkpt>
      <trkpt lat="44.122771974653006" lon="7.893655970692635">
        <ele>784.57000000000005</ele>
        <time>2025-05-19T10:38:04Z</time>
      </trkpt>
      <trkpt lat="44.123894982039928" lon="7.894222000613809">
        <ele>785.04999999999995</ele>
        <time>2025-05-19T10:38:12Z</time>
      </trkpt>
      <trkpt lat="44.124036971479654" lon="7.894298024475575">
        <ele>784.09000000000003</ele>
        <time>2025-05-19T10:38:13Z</time>
      </trkpt>
      <trkpt lat="44.124159011989832" lon="7.894362984225154">
        <ele>783.13</ele>
        <time>2025-05-19T10:38:14Z</time>
      </trkpt>
      <trkpt lat="44.124288009479642" lon="7.894431967288256">
        <ele>782.16999999999996</ele>
        <time>2025-05-19T10:38:15Z</time>
      </trkpt>
      <trkpt lat="44.124446008354425" lon="7.894516037777066">
        <ele>781.69000000000005</ele>
        <time>2025-05-19T10:38:16Z</time>
      </trkpt>
      <trkpt lat="44.124607024714351" lon="7.894602036103606">
        <ele>780.73000000000002</ele>
        <time>2025-05-19T10:38:17Z</time>
      </trkpt>
      <trkpt lat="44.125698013231158" lon="7.895472999662161">
        <ele>775.44000000000005</ele>
        <time>2025-05-19T10:38:25Z</time>
      </trkpt>
      <trkpt lat="44.126409972086549" lon="7.896097032353282">
        <ele>773.51999999999998</ele>
        <time>2025-05-19T10:38:31Z</time>
      </trkpt>
      <trkpt lat="44.126643994823098" lon="7.896285960450769">
        <ele>773.51999999999998</ele>
        <time>2025-05-19T10:38:33Z</time>
      </trkpt>
      <trkpt lat="44.12765602581203" lon="7.896773032844067">
        <ele>769.19000000000005</ele>
        <time>2025-05-19T10:38:41Z</time>
      </trkpt>
      <trkpt lat="44.127932041883469" lon="7.896816032007337">
        <ele>768.23000000000002</ele>
        <time>2025-05-19T10:38:43Z</time>
      </trkpt>
      <trkpt lat="44.129067035391927" lon="7.896831035614014">
        <ele>763.41999999999996</ele>
        <time>2025-05-19T10:38:51Z</time>
      </trkpt>
      <trkpt lat="44.129517981782556" lon="7.896877974271774">
        <ele>760.53999999999996</ele>
        <time>2025-05-19T10:38:54Z</time>
      </trkpt>
      <trkpt lat="44.129672963172197" lon="7.896923990920186">
        <ele>759.58000000000004</ele>
        <time>2025-05-19T10:38:55Z</time>
      </trkpt>
      <trkpt lat="44.129832973703742" lon="7.896970007568598">
        <ele>758.62</ele>
        <time>2025-05-19T10:38:56Z</time>
      </trkpt>
      <trkpt lat="44.129991978406906" lon="7.897089030593634">
        <ele>758.13999999999999</ele>
        <time>2025-05-19T10:38:57Z</time>
      </trkpt>
      <trkpt lat="44.130124999210238" lon="7.897252980619669">
        <ele>757.65999999999997</ele>
        <time>2025-05-19T10:38:58Z</time>
      </trkpt>
      <trkpt lat="44.130243016406894" lon="7.897448027506471">
        <ele>757.65999999999997</ele>
        <time>2025-05-19T10:38:59Z</time>
      </trkpt>
      <trkpt lat="44.130361033603549" lon="7.897642990574241">
        <ele>757.17999999999995</ele>
        <time>2025-05-19T10:39:00Z</time>
      </trkpt>
      <trkpt lat="44.130618022754788" lon="7.898003999143839">
        <ele>757.17999999999995</ele>
        <time>2025-05-19T10:39:02Z</time>
      </trkpt>
      <trkpt lat="44.130740985274315" lon="7.898166021332145">
        <ele>757.17999999999995</ele>
        <time>2025-05-19T10:39:03Z</time>
      </trkpt>
      <trkpt lat="44.130869982764125" lon="7.898310022428632">
        <ele>756.69000000000005</ele>
        <time>2025-05-19T10:39:04Z</time>
      </trkpt>
      <trkpt lat="44.131011972203851" lon="7.898394009098411">
        <ele>756.69000000000005</ele>
        <time>2025-05-19T10:39:05Z</time>
      </trkpt>
      <trkpt lat="44.131153961643577" lon="7.898477995768189">
        <ele>757.17999999999995</ele>
        <time>2025-05-19T10:39:06Z</time>
      </trkpt>
      <trkpt lat="44.131297040730715" lon="7.898562988266349">
        <ele>756.69000000000005</ele>
        <time>2025-05-19T10:39:07Z</time>
      </trkpt>
      <trkpt lat="44.132060967385769" lon="7.899014018476009">
        <ele>754.76999999999998</ele>
        <time>2025-05-19T10:39:12Z</time>
      </trkpt>
      <trkpt lat="44.1329659614712" lon="7.899440992623568">
        <ele>753.33000000000004</ele>
        <time>2025-05-19T10:39:18Z</time>
      </trkpt>
      <trkpt lat="44.134063990786672" lon="7.89989504031837">
        <ele>750.92999999999995</ele>
        <time>2025-05-19T10:39:25Z</time>
      </trkpt>
      <trkpt lat="44.134763041511178" lon="7.900237021967769">
        <ele>749.49000000000001</ele>
        <time>2025-05-19T10:39:30Z</time>
      </trkpt>
      <trkpt lat="44.134896984323859" lon="7.900256970897317">
        <ele>749.49000000000001</ele>
        <time>2025-05-19T10:39:31Z</time>
      </trkpt>
      <trkpt lat="44.1355009842664" lon="7.900393009185791">
        <ele>750.45000000000005</ele>
        <time>2025-05-19T10:39:36Z</time>
      </trkpt>
      <trkpt lat="44.136173967272043" lon="7.900767009705305">
        <ele>752.85000000000002</ele>
        <time>2025-05-19T10:39:42Z</time>
      </trkpt>
      <trkpt lat="44.136500023305416" lon="7.900956021621823">
        <ele>754.28999999999996</ele>
        <time>2025-05-19T10:39:45Z</time>
      </trkpt>
      <trkpt lat="44.136603958904743" lon="7.901003966107965">
        <ele>754.28999999999996</ele>
        <time>2025-05-19T10:39:46Z</time>
      </trkpt>
      <trkpt lat="44.136736979708076" lon="7.90103699080646">
        <ele>754.76999999999998</ele>
        <time>2025-05-19T10:39:47Z</time>
      </trkpt>
      <trkpt lat="44.136848039925098" lon="7.901023998856545">
        <ele>754.76999999999998</ele>
        <time>2025-05-19T10:39:48Z</time>
      </trkpt>
      <trkpt lat="44.136978965252638" lon="7.901007989421487">
        <ele>754.76999999999998</ele>
        <time>2025-05-19T10:39:49Z</time>
      </trkpt>
      <trkpt lat="44.137501996010542" lon="7.901060041040182">
        <ele>754.28999999999996</ele>
        <time>2025-05-19T10:39:53Z</time>
      </trkpt>
      <trkpt lat="44.137766025960445" lon="7.901060963049531">
        <ele>753.33000000000004</ele>
        <time>2025-05-19T10:39:55Z</time>
      </trkpt>
      <trkpt lat="44.137886976823211" lon="7.901045959442854">
        <ele>752.85000000000002</ele>
        <time>2025-05-19T10:39:56Z</time>
      </trkpt>
      <trkpt lat="44.138002982363105" lon="7.901031961664558">
        <ele>752.37</ele>
        <time>2025-05-19T10:39:57Z</time>
      </trkpt>
      <trkpt lat="44.138548979535699" lon="7.900969013571739">
        <ele>750.45000000000005</ele>
        <time>2025-05-19T10:40:02Z</time>
      </trkpt>
      <trkpt lat="44.138660039752722" lon="7.900916961953044">
        <ele>750.45000000000005</ele>
        <time>2025-05-19T10:40:03Z</time>
      </trkpt>
      <trkpt lat="44.138861037790775" lon="7.90082199499011">
        <ele>749.97000000000003</ele>
        <time>2025-05-19T10:40:05Z</time>
      </trkpt>
      <trkpt lat="44.139002021402121" lon="7.90082199499011">
        <ele>749.49000000000001</ele>
        <time>2025-05-19T10:40:06Z</time>
      </trkpt>
      <trkpt lat="44.139117021113634" lon="7.90082199499011">
        <ele>749.49000000000001</ele>
        <time>2025-05-19T10:40:07Z</time>
      </trkpt>
      <trkpt lat="44.139234032481909" lon="7.90086499415338">
        <ele>749.49000000000001</ele>
        <time>2025-05-19T10:40:08Z</time>
      </trkpt>
      <trkpt lat="44.1393450088799" lon="7.900930037721992">
        <ele>749.49000000000001</ele>
        <time>2025-05-19T10:40:09Z</time>
      </trkpt>
      <trkpt lat="44.139566039666533" lon="7.901046965271235">
        <ele>749</ele>
        <time>2025-05-19T10:40:11Z</time>
      </trkpt>
      <trkpt lat="44.139798972755671" lon="7.901106979697943">
        <ele>749</ele>
        <time>2025-05-19T10:40:13Z</time>
      </trkpt>
      <trkpt lat="44.139916989952326" lon="7.901136986911297">
        <ele>749.49000000000001</ele>
        <time>2025-05-19T10:40:14Z</time>
      </trkpt>
      <trkpt lat="44.140152018517256" lon="7.901198007166386">
        <ele>749.49000000000001</ele>
        <time>2025-05-19T10:40:16Z</time>
      </trkpt>
      <trkpt lat="44.140468016266823" lon="7.901374027132988">
        <ele>749.49000000000001</ele>
        <time>2025-05-19T10:40:19Z</time>
      </trkpt>
      <trkpt lat="44.14056901820004" lon="7.901459019631147">
        <ele>749.49000000000001</ele>
        <time>2025-05-19T10:40:20Z</time>
      </trkpt>
      <trkpt lat="44.141346020624042" lon="7.902262005954981">
        <ele>748.51999999999998</ele>
        <time>2025-05-19T10:40:28Z</time>
      </trkpt>
      <trkpt lat="44.142527030780911" lon="7.903607971966267">
        <ele>743.72000000000003</ele>
        <time>2025-05-19T10:40:41Z</time>
      </trkpt>
      <trkpt lat="44.142615040764213" lon="7.903702016919851">
        <ele>743.24000000000001</ele>
        <time>2025-05-19T10:40:42Z</time>
      </trkpt>
      <trkpt lat="44.143609972670674" lon="7.904779007658362">
        <ele>738.90999999999997</ele>
        <time>2025-05-19T10:40:53Z</time>
      </trkpt>
      <trkpt lat="44.143693037331104" lon="7.904880009591579">
        <ele>738.42999999999995</ele>
        <time>2025-05-19T10:40:54Z</time>
      </trkpt>
      <trkpt lat="44.14377199485898" lon="7.904976988211274">
        <ele>737.95000000000005</ele>
        <time>2025-05-19T10:40:55Z</time>
      </trkpt>
      <trkpt lat="44.143861010670662" lon="7.905078995972872">
        <ele>737.47000000000003</ele>
        <time>2025-05-19T10:40:56Z</time>
      </trkpt>
      <trkpt lat="44.144699033349752" lon="7.906081974506378">
        <ele>737.95000000000005</ele>
        <time>2025-05-19T10:41:06Z</time>
      </trkpt>
      <trkpt lat="44.145460026338696" lon="7.907702028751373">
        <ele>736.99000000000001</ele>
        <time>2025-05-19T10:41:17Z</time>
      </trkpt>
      <trkpt lat="44.146011974662542" lon="7.90885797701776">
        <ele>736.50999999999999</ele>
        <time>2025-05-19T10:41:24Z</time>
      </trkpt>
      <trkpt lat="44.146085986867547" lon="7.908997032791376">
        <ele>736.02999999999997</ele>
        <time>2025-05-19T10:41:25Z</time>
      </trkpt>
      <trkpt lat="44.146166034042835" lon="7.909108009189367">
        <ele>736.02999999999997</ele>
        <time>2025-05-19T10:41:26Z</time>
      </trkpt>
      <trkpt lat="44.146245997399092" lon="7.909219991415739">
        <ele>736.02999999999997</ele>
        <time>2025-05-19T10:41:27Z</time>
      </trkpt>
      <trkpt lat="44.146329984068871" lon="7.909335996955633">
        <ele>736.02999999999997</ele>
        <time>2025-05-19T10:41:28Z</time>
      </trkpt>
      <trkpt lat="44.146412964910269" lon="7.909450996667147">
        <ele>736.02999999999997</ele>
        <time>2025-05-19T10:41:29Z</time>
      </trkpt>
      <trkpt lat="44.146514972671866" lon="7.90954596363008">
        <ele>736.02999999999997</ele>
        <time>2025-05-19T10:41:30Z</time>
      </trkpt>
      <trkpt lat="44.146621003746986" lon="7.909605978056788">
        <ele>736.99000000000001</ele>
        <time>2025-05-19T10:41:31Z</time>
      </trkpt>
      <trkpt lat="44.146731980144978" lon="7.909669009968638">
        <ele>737.47000000000003</ele>
        <time>2025-05-19T10:41:32Z</time>
      </trkpt>
      <trkpt lat="44.14684496819973" lon="7.909703040495515">
        <ele>737.95000000000005</ele>
        <time>2025-05-19T10:41:33Z</time>
      </trkpt>
      <trkpt lat="44.146963991224766" lon="7.909730030223727">
        <ele>738.90999999999997</ele>
        <time>2025-05-19T10:41:34Z</time>
      </trkpt>
      <trkpt lat="44.147082008421421" lon="7.909756014123559">
        <ele>739.38999999999999</ele>
        <time>2025-05-19T10:41:35Z</time>
      </trkpt>
      <trkpt lat="44.147197008132935" lon="7.909774035215378">
        <ele>739.38999999999999</ele>
        <time>2025-05-19T10:41:36Z</time>
      </trkpt>
      <trkpt lat="44.147300021722913" lon="7.909781998023391">
        <ele>739.38999999999999</ele>
        <time>2025-05-19T10:41:37Z</time>
      </trkpt>
      <trkpt lat="44.147386020049453" lon="7.909789038822055">
        <ele>739.38999999999999</ele>
        <time>2025-05-19T10:41:38Z</time>
      </trkpt>
      <trkpt lat="44.147463971748948" lon="7.909794989973307">
        <ele>739.38999999999999</ele>
        <time>2025-05-19T10:41:39Z</time>
      </trkpt>
      <trkpt lat="44.147544018924236" lon="7.90980102494359">
        <ele>739.38999999999999</ele>
        <time>2025-05-19T10:41:40Z</time>
      </trkpt>
      <trkpt lat="44.14770201779902" lon="7.909813011065126">
        <ele>739.38999999999999</ele>
        <time>2025-05-19T10:41:42Z</time>
      </trkpt>
      <trkpt lat="44.147791033610702" lon="7.90986699052155">
        <ele>739.38999999999999</ele>
        <time>2025-05-19T10:41:43Z</time>
      </trkpt>
      <trkpt lat="44.147859010845423" lon="7.909936979413033">
        <ele>739.38999999999999</ele>
        <time>2025-05-19T10:41:44Z</time>
      </trkpt>
      <trkpt lat="44.147927993908525" lon="7.910019960254431">
        <ele>739.38999999999999</ele>
        <time>2025-05-19T10:41:45Z</time>
      </trkpt>
      <trkpt lat="44.148001000285149" lon="7.910106964409351">
        <ele>738.90999999999997</ele>
        <time>2025-05-19T10:41:46Z</time>
      </trkpt>
      <trkpt lat="44.148074006661773" lon="7.910195980221033">
        <ele>738.90999999999997</ele>
        <time>2025-05-19T10:41:47Z</time>
      </trkpt>
      <trkpt lat="44.148180959746242" lon="7.910384992137551">
        <ele>739.38999999999999</ele>
        <time>2025-05-19T10:41:49Z</time>
      </trkpt>
      <trkpt lat="44.148223958909512" lon="7.910486999899149">
        <ele>739.38999999999999</ele>
        <time>2025-05-19T10:41:50Z</time>
      </trkpt>
      <trkpt lat="44.148257989436388" lon="7.910581966862083">
        <ele>739.38999999999999</ele>
        <time>2025-05-19T10:41:51Z</time>
      </trkpt>
      <trkpt lat="44.148250026628375" lon="7.910681962966919">
        <ele>739.38999999999999</ele>
        <time>2025-05-19T10:41:52Z</time>
      </trkpt>
      <trkpt lat="44.14823804050684" lon="7.910799980163574">
        <ele>739.38999999999999</ele>
        <time>2025-05-19T10:41:53Z</time>
      </trkpt>
      <trkpt lat="44.148208033293486" lon="7.910921014845371">
        <ele>739.38999999999999</ele>
        <time>2025-05-19T10:41:54Z</time>
      </trkpt>
      <trkpt lat="44.14817500859499" lon="7.911054035648704">
        <ele>739.38999999999999</ele>
        <time>2025-05-19T10:41:55Z</time>
      </trkpt>
      <trkpt lat="44.148067971691489" lon="7.911566002294421">
        <ele>739.38999999999999</ele>
        <time>2025-05-19T10:41:59Z</time>
      </trkpt>
      <trkpt lat="44.148053973913193" lon="7.911689970642328">
        <ele>739.38999999999999</ele>
        <time>2025-05-19T10:42:00Z</time>
      </trkpt>
      <trkpt lat="44.148008041083813" lon="7.912075035274029">
        <ele>738.90999999999997</ele>
        <time>2025-05-19T10:42:03Z</time>
      </trkpt>
      <trkpt lat="44.147892035543919" lon="7.912928983569145">
        <ele>739.38999999999999</ele>
        <time>2025-05-19T10:42:09Z</time>
      </trkpt>
      <trkpt lat="44.147852975875139" lon="7.913074996322393">
        <ele>740.35000000000002</ele>
        <time>2025-05-19T10:42:10Z</time>
      </trkpt>
      <trkpt lat="44.147760020568967" lon="7.913355035707355">
        <ele>740.83000000000004</ele>
        <time>2025-05-19T10:42:12Z</time>
      </trkpt>
      <trkpt lat="44.147720038890839" lon="7.913490990176797">
        <ele>740.83000000000004</ele>
        <time>2025-05-19T10:42:13Z</time>
      </trkpt>
      <trkpt lat="44.147679973393679" lon="7.91362602263689">
        <ele>740.35000000000002</ele>
        <time>2025-05-19T10:42:14Z</time>
      </trkpt>
      <trkpt lat="44.14763898588717" lon="7.913768012076616">
        <ele>740.83000000000004</ele>
        <time>2025-05-19T10:42:15Z</time>
      </trkpt>
      <trkpt lat="44.147620964795351" lon="7.913916958495975">
        <ele>740.35000000000002</ele>
        <time>2025-05-19T10:42:16Z</time>
      </trkpt>
      <trkpt lat="44.147634962573647" lon="7.914097001776099">
        <ele>739.38999999999999</ele>
        <time>2025-05-19T10:42:17Z</time>
      </trkpt>
      <trkpt lat="44.147693971171975" lon="7.914237985387445">
        <ele>738.42999999999995</ele>
        <time>2025-05-19T10:42:18Z</time>
      </trkpt>
      <trkpt lat="44.147763038054109" lon="7.914351979270577">
        <ele>737.47000000000003</ele>
        <time>2025-05-19T10:42:19Z</time>
      </trkpt>
      <trkpt lat="44.147851970046759" lon="7.914393972605467">
        <ele>736.50999999999999</ele>
        <time>2025-05-19T10:42:20Z</time>
      </trkpt>
      <trkpt lat="44.147946015000343" lon="7.914418028667569">
        <ele>735.54999999999995</ele>
        <time>2025-05-19T10:42:21Z</time>
      </trkpt>
      <trkpt lat="44.148040981963277" lon="7.914440995082259">
        <ele>734.58000000000004</ele>
        <time>2025-05-19T10:42:22Z</time>
      </trkpt>
      <trkpt lat="44.148143995553255" lon="7.914466978982091">
        <ele>734.10000000000002</ele>
        <time>2025-05-19T10:42:23Z</time>
      </trkpt>
      <trkpt lat="44.14847700856626" lon="7.914431020617485">
        <ele>732.65999999999997</ele>
        <time>2025-05-19T10:42:26Z</time>
      </trkpt>
      <trkpt lat="44.149512005969882" lon="7.914179982617497">
        <ele>731.22000000000003</ele>
        <time>2025-05-19T10:42:35Z</time>
      </trkpt>
      <trkpt lat="44.149962030351162" lon="7.913989964872599">
        <ele>731.22000000000003</ele>
        <time>2025-05-19T10:42:39Z</time>
      </trkpt>
      <trkpt lat="44.150208961218596" lon="7.913743034005165">
        <ele>730.25999999999999</ele>
        <time>2025-05-19T10:42:42Z</time>
      </trkpt>
      <trkpt lat="44.150274004787207" lon="7.913655024021864">
        <ele>729.77999999999997</ele>
        <time>2025-05-19T10:42:43Z</time>
      </trkpt>
      <trkpt lat="44.150380035862327" lon="7.913416977971792">
        <ele>729.77999999999997</ele>
        <time>2025-05-19T10:42:45Z</time>
      </trkpt>
      <trkpt lat="44.150567036122084" lon="7.913065021857619">
        <ele>730.25999999999999</ele>
        <time>2025-05-19T10:42:48Z</time>
      </trkpt>
      <trkpt lat="44.150634007528424" lon="7.912962008267641">
        <ele>730.74000000000001</ele>
        <time>2025-05-19T10:42:49Z</time>
      </trkpt>
      <trkpt lat="44.151237001642585" lon="7.912292964756489">
        <ele>733.13999999999999</ele>
        <time>2025-05-19T10:42:56Z</time>
      </trkpt>
      <trkpt lat="44.151339009404182" lon="7.912235967814922">
        <ele>733.62</ele>
        <time>2025-05-19T10:42:57Z</time>
      </trkpt>
      <trkpt lat="44.15146297775209" lon="7.912228005006909">
        <ele>733.13999999999999</ele>
        <time>2025-05-19T10:42:58Z</time>
      </trkpt>
      <trkpt lat="44.152706013992429" lon="7.912141000851989">
        <ele>730.74000000000001</ele>
        <time>2025-05-19T10:43:07Z</time>
      </trkpt>
      <trkpt lat="44.153126031160355" lon="7.912173019722104">
        <ele>730.74000000000001</ele>
        <time>2025-05-19T10:43:10Z</time>
      </trkpt>
      <trkpt lat="44.153258968144655" lon="7.912189029157162">
        <ele>730.25999999999999</ele>
        <time>2025-05-19T10:43:11Z</time>
      </trkpt>
      <trkpt lat="44.153407998383045" lon="7.912258012220264">
        <ele>730.25999999999999</ele>
        <time>2025-05-19T10:43:12Z</time>
      </trkpt>
      <trkpt lat="44.153516963124275" lon="7.912323977798224">
        <ele>730.25999999999999</ele>
        <time>2025-05-19T10:43:13Z</time>
      </trkpt>
      <trkpt lat="44.153651995584369" lon="7.912483988329768">
        <ele>729.77999999999997</ele>
        <time>2025-05-19T10:43:14Z</time>
      </trkpt>
      <trkpt lat="44.15376003831625" lon="7.912612985819578">
        <ele>728.82000000000005</ele>
        <time>2025-05-19T10:43:15Z</time>
      </trkpt>
      <trkpt lat="44.15386900305748" lon="7.912742989137769">
        <ele>728.34000000000003</ele>
        <time>2025-05-19T10:43:16Z</time>
      </trkpt>
      <trkpt lat="44.153976961970329" lon="7.912879027426243">
        <ele>727.37</ele>
        <time>2025-05-19T10:43:17Z</time>
      </trkpt>
      <trkpt lat="44.154062960296869" lon="7.913040965795517">
        <ele>726.40999999999997</ele>
        <time>2025-05-19T10:43:18Z</time>
      </trkpt>
      <trkpt lat="44.154146024957299" lon="7.91319795884192">
        <ele>725.45000000000005</ele>
        <time>2025-05-19T10:43:19Z</time>
      </trkpt>
      <trkpt lat="44.154220037162304" lon="7.91336702182889">
        <ele>724.49000000000001</ele>
        <time>2025-05-19T10:43:20Z</time>
      </trkpt>
      <trkpt lat="44.154730997979641" lon="7.914968971163034">
        <ele>717.75999999999999</ele>
        <time>2025-05-19T10:43:29Z</time>
      </trkpt>
      <trkpt lat="44.155074991285801" lon="7.916405964642763">
        <ele>715.84000000000003</ele>
        <time>2025-05-19T10:43:37Z</time>
      </trkpt>
      <trkpt lat="44.155098963528872" lon="7.916577961295843">
        <ele>715.36000000000001</ele>
        <time>2025-05-19T10:43:38Z</time>
      </trkpt>
      <trkpt lat="44.155080020427704" lon="7.91674098931253">
        <ele>714.88</ele>
        <time>2025-05-19T10:43:39Z</time>
      </trkpt>
      <trkpt lat="44.15505001321435" lon="7.916896976530552">
        <ele>714.88</ele>
        <time>2025-05-19T10:43:40Z</time>
      </trkpt>
      <trkpt lat="44.155022017657757" lon="7.91706302203238">
        <ele>714.39999999999998</ele>
        <time>2025-05-19T10:43:41Z</time>
      </trkpt>
      <trkpt lat="44.154991004616022" lon="7.917240969836712">
        <ele>713.91999999999996</ele>
        <time>2025-05-19T10:43:42Z</time>
      </trkpt>
      <trkpt lat="44.154959991574287" lon="7.917425958439708">
        <ele>713.91999999999996</ele>
        <time>2025-05-19T10:43:43Z</time>
      </trkpt>
      <trkpt lat="44.154655979946256" lon="7.919704997912049">
        <ele>709.59000000000003</ele>
        <time>2025-05-19T10:43:55Z</time>
      </trkpt>
      <trkpt lat="44.154711971059442" lon="7.92176803573966">
        <ele>708.14999999999998</ele>
        <time>2025-05-19T10:44:05Z</time>
      </trkpt>
      <trkpt lat="44.155091000720859" lon="7.92426198720932">
        <ele>705.75</ele>
        <time>2025-05-19T10:44:16Z</time>
      </trkpt>
      <trkpt lat="44.155542030930519" lon="7.927018962800503">
        <ele>701.89999999999998</ele>
        <time>2025-05-19T10:44:28Z</time>
      </trkpt>
      <trkpt lat="44.155946960672736" lon="7.929486008360982">
        <ele>698.52999999999997</ele>
        <time>2025-05-19T10:44:38Z</time>
      </trkpt>
      <trkpt lat="44.156375024467707" lon="7.932092025876045">
        <ele>696.13</ele>
        <time>2025-05-19T10:44:49Z</time>
      </trkpt>
      <trkpt lat="44.156901994720101" lon="7.935244962573052">
        <ele>693.73000000000002</ele>
        <time>2025-05-19T10:45:02Z</time>
      </trkpt>
      <trkpt lat="44.157103998586535" lon="7.937500029802322">
        <ele>692.76999999999998</ele>
        <time>2025-05-19T10:45:09Z</time>
      </trkpt>
      <trkpt lat="44.157366016879678" lon="7.939819972962141">
        <ele>691.33000000000004</ele>
        <time>2025-05-19T10:45:17Z</time>
      </trkpt>
      <trkpt lat="44.157720990478992" lon="7.942400006577373">
        <ele>687</ele>
        <time>2025-05-19T10:45:27Z</time>
      </trkpt>
      <trkpt lat="44.157954007387161" lon="7.944317031651735">
        <ele>683.14999999999998</ele>
        <time>2025-05-19T10:45:36Z</time>
      </trkpt>
      <trkpt lat="44.157987032085657" lon="7.944502020254731">
        <ele>682.66999999999996</ele>
        <time>2025-05-19T10:45:37Z</time>
      </trkpt>
      <trkpt lat="44.158018967136741" lon="7.944678962230682">
        <ele>682.19000000000005</ele>
        <time>2025-05-19T10:45:38Z</time>
      </trkpt>
      <trkpt lat="44.158084010705352" lon="7.944808965548873">
        <ele>681.71000000000004</ele>
        <time>2025-05-19T10:45:39Z</time>
      </trkpt>
      <trkpt lat="44.158271010965109" lon="7.945227976888418">
        <ele>679.78999999999996</ele>
        <time>2025-05-19T10:45:42Z</time>
      </trkpt>
      <trkpt lat="44.158287020400167" lon="7.945382036268711">
        <ele>679.78999999999996</ele>
        <time>2025-05-19T10:45:43Z</time>
      </trkpt>
      <trkpt lat="44.158388022333384" lon="7.947147013619542">
        <ele>682.19000000000005</ele>
        <time>2025-05-19T10:45:52Z</time>
      </trkpt>
      <trkpt lat="44.158306969329715" lon="7.949813967570663">
        <ele>682.66999999999996</ele>
        <time>2025-05-19T10:46:03Z</time>
      </trkpt>
      <trkpt lat="44.158232035115361" lon="7.952361982315779">
        <ele>681.71000000000004</ele>
        <time>2025-05-19T10:46:13Z</time>
      </trkpt>
      <trkpt lat="44.158263970166445" lon="7.954217987135053">
        <ele>679.30999999999995</ele>
        <time>2025-05-19T10:46:21Z</time>
      </trkpt>
      <trkpt lat="44.15829598903656" lon="7.955314004793763">
        <ele>675.94000000000005</ele>
        <time>2025-05-19T10:46:26Z</time>
      </trkpt>
      <trkpt lat="44.158324990421534" lon="7.955530006438494">
        <ele>675.46000000000004</ele>
        <time>2025-05-19T10:46:27Z</time>
      </trkpt>
      <trkpt lat="44.158376958221197" lon="7.955743996426463">
        <ele>674.98000000000002</ele>
        <time>2025-05-19T10:46:28Z</time>
      </trkpt>
      <trkpt lat="44.158428004011512" lon="7.955955974757671">
        <ele>674.5</ele>
        <time>2025-05-19T10:46:29Z</time>
      </trkpt>
      <trkpt lat="44.158506039530039" lon="7.956146998330951">
        <ele>674.01999999999998</ele>
        <time>2025-05-19T10:46:30Z</time>
      </trkpt>
      <trkpt lat="44.158583991229534" lon="7.956331986933947">
        <ele>673.53999999999996</ele>
        <time>2025-05-19T10:46:31Z</time>
      </trkpt>
      <trkpt lat="44.158679964020848" lon="7.956493003293872">
        <ele>673.53999999999996</ele>
        <time>2025-05-19T10:46:32Z</time>
      </trkpt>
      <trkpt lat="44.158785995095968" lon="7.956645973026753">
        <ele>673.05999999999995</ele>
        <time>2025-05-19T10:46:33Z</time>
      </trkpt>
      <trkpt lat="44.15973499417305" lon="7.957972995936871">
        <ele>670.65999999999997</ele>
        <time>2025-05-19T10:46:42Z</time>
      </trkpt>
      <trkpt lat="44.16009902022779" lon="7.958704987540841">
        <ele>669.22000000000003</ele>
        <time>2025-05-19T10:46:46Z</time>
      </trkpt>
      <trkpt lat="44.160429015755653" lon="7.959850961342454">
        <ele>667.28999999999996</ele>
        <time>2025-05-19T10:46:51Z</time>
      </trkpt>
      <trkpt lat="44.160447958856821" lon="7.960104010999203">
        <ele>666.80999999999995</ele>
        <time>2025-05-19T10:46:52Z</time>
      </trkpt>
      <trkpt lat="44.160447958856821" lon="7.960370974615216">
        <ele>666.33000000000004</ele>
        <time>2025-05-19T10:46:53Z</time>
      </trkpt>
      <trkpt lat="44.160330025479198" lon="7.962669963017106">
        <ele>664.88999999999999</ele>
        <time>2025-05-19T10:47:01Z</time>
      </trkpt>
      <trkpt lat="44.160361038520932" lon="7.962980009615421">
        <ele>664.88999999999999</ele>
        <time>2025-05-19T10:47:02Z</time>
      </trkpt>
      <trkpt lat="44.160406971350312" lon="7.963292989879847">
        <ele>664.40999999999997</ele>
        <time>2025-05-19T10:47:03Z</time>
      </trkpt>
      <trkpt lat="44.160484001040459" lon="7.963589960709214">
        <ele>663.45000000000005</ele>
        <time>2025-05-19T10:47:04Z</time>
      </trkpt>
      <trkpt lat="44.160560024902225" lon="7.963887015357614">
        <ele>662.97000000000003</ele>
        <time>2025-05-19T10:47:05Z</time>
      </trkpt>
      <trkpt lat="44.160649040713906" lon="7.964173005893827">
        <ele>662.49000000000001</ele>
        <time>2025-05-19T10:47:06Z</time>
      </trkpt>
      <trkpt lat="44.160737972706556" lon="7.964449021965265">
        <ele>662.00999999999999</ele>
        <time>2025-05-19T10:47:07Z</time>
      </trkpt>
      <trkpt lat="44.161124965175986" lon="7.965636989101768">
        <ele>660.55999999999995</ele>
        <time>2025-05-19T10:47:12Z</time>
      </trkpt>
      <trkpt lat="44.161222027614713" lon="7.965836981311441">
        <ele>660.55999999999995</ele>
        <time>2025-05-19T10:47:13Z</time>
      </trkpt>
      <trkpt lat="44.161341972649097" lon="7.96602800488472">
        <ele>660.08000000000004</ele>
        <time>2025-05-19T10:47:14Z</time>
      </trkpt>
      <trkpt lat="44.161462001502514" lon="7.966219028457999">
        <ele>660.08000000000004</ele>
        <time>2025-05-19T10:47:15Z</time>
      </trkpt>
      <trkpt lat="44.16158395819366" lon="7.966411979869008">
        <ele>659.60000000000002</ele>
        <time>2025-05-19T10:47:16Z</time>
      </trkpt>
      <trkpt lat="44.161658976227045" lon="7.96665002591908">
        <ele>659.60000000000002</ele>
        <time>2025-05-19T10:47:17Z</time>
      </trkpt>
      <trkpt lat="44.161708010360599" lon="7.96691196039319">
        <ele>659.60000000000002</ele>
        <time>2025-05-19T10:47:18Z</time>
      </trkpt>
      <trkpt lat="44.161757966503501" lon="7.967179007828236">
        <ele>659.12</ele>
        <time>2025-05-19T10:47:19Z</time>
      </trkpt>
      <trkpt lat="44.161791997030377" lon="7.967453012242913">
        <ele>658.63999999999999</ele>
        <time>2025-05-19T10:47:20Z</time>
      </trkpt>
      <trkpt lat="44.161935998126864" lon="7.968528997153044">
        <ele>657.20000000000005</ele>
        <time>2025-05-19T10:47:24Z</time>
      </trkpt>
      <trkpt lat="44.162001041695476" lon="7.968781040981412">
        <ele>656.72000000000003</ele>
        <time>2025-05-19T10:47:25Z</time>
      </trkpt>
      <trkpt lat="44.16250797919929" lon="7.97025902196765">
        <ele>656.24000000000001</ele>
        <time>2025-05-19T10:47:31Z</time>
      </trkpt>
      <trkpt lat="44.16263597086072" lon="7.970447028055787">
        <ele>656.72000000000003</ele>
        <time>2025-05-19T10:47:32Z</time>
      </trkpt>
      <trkpt lat="44.162766980007291" lon="7.970639979466796">
        <ele>656.72000000000003</ele>
        <time>2025-05-19T10:47:33Z</time>
      </trkpt>
      <trkpt lat="44.162921039387584" lon="7.970809964463115">
        <ele>656.24000000000001</ele>
        <time>2025-05-19T10:47:34Z</time>
      </trkpt>
      <trkpt lat="44.163097981363535" lon="7.970964023843408">
        <ele>656.24000000000001</ele>
        <time>2025-05-19T10:47:35Z</time>
      </trkpt>
      <trkpt lat="44.163270983844995" lon="7.971129985526204">
        <ele>655.75999999999999</ele>
        <time>2025-05-19T10:47:36Z</time>
      </trkpt>
      <trkpt lat="44.163439963012934" lon="7.971295025199652">
        <ele>655.27999999999997</ele>
        <time>2025-05-19T10:47:37Z</time>
      </trkpt>
      <trkpt lat="44.164073970168829" lon="7.971846973523498">
        <ele>654.30999999999995</ele>
        <time>2025-05-19T10:47:41Z</time>
      </trkpt>
      <trkpt lat="44.164350992068648" lon="7.971977982670069">
        <ele>653.83000000000004</ele>
        <time>2025-05-19T10:47:43Z</time>
      </trkpt>
      <trkpt lat="44.164482001215219" lon="7.972040008753538">
        <ele>653.35000000000002</ele>
        <time>2025-05-19T10:47:44Z</time>
      </trkpt>
      <trkpt lat="44.165703998878598" lon="7.972376039251685">
        <ele>651.90999999999997</ele>
        <time>2025-05-19T10:47:54Z</time>
      </trkpt>
      <trkpt lat="44.166851984336972" lon="7.972782980650663">
        <ele>653.35000000000002</ele>
        <time>2025-05-19T10:48:02Z</time>
      </trkpt>
      <trkpt lat="44.166995985433459" lon="7.972885994240642">
        <ele>653.83000000000004</ele>
        <time>2025-05-19T10:48:03Z</time>
      </trkpt>
      <trkpt lat="44.167132023721933" lon="7.973017003387213">
        <ele>654.30999999999995</ele>
        <time>2025-05-19T10:48:04Z</time>
      </trkpt>
      <trkpt lat="44.167258003726602" lon="7.973166033625603">
        <ele>654.79999999999995</ele>
        <time>2025-05-19T10:48:05Z</time>
      </trkpt>
      <trkpt lat="44.167368980124593" lon="7.973326966166496">
        <ele>655.27999999999997</ele>
        <time>2025-05-19T10:48:06Z</time>
      </trkpt>
      <trkpt lat="44.167478028684855" lon="7.973491000011563">
        <ele>655.75999999999999</ele>
        <time>2025-05-19T10:48:07Z</time>
      </trkpt>
      <trkpt lat="44.16783400811255" lon="7.973982011899352">
        <ele>655.75999999999999</ele>
        <time>2025-05-19T10:48:10Z</time>
      </trkpt>
      <trkpt lat="44.16798303835094" lon="7.974134981632233">
        <ele>655.75999999999999</ele>
        <time>2025-05-19T10:48:11Z</time>
      </trkpt>
      <trkpt lat="44.169125994667411" lon="7.975145000964403">
        <ele>651.42999999999995</ele>
        <time>2025-05-19T10:48:17Z</time>
      </trkpt>
      <trkpt lat="44.170341035351157" lon="7.976138005033135">
        <ele>643.74000000000001</ele>
        <time>2025-05-19T10:48:24Z</time>
      </trkpt>
      <trkpt lat="44.171264972537756" lon="7.976583000272512">
        <ele>637.97000000000003</ele>
        <time>2025-05-19T10:48:31Z</time>
      </trkpt>
      <trkpt lat="44.172312961891294" lon="7.976918024942279">
        <ele>633.64999999999998</ele>
        <time>2025-05-19T10:48:39Z</time>
      </trkpt>
      <trkpt lat="44.173355000093579" lon="7.977511966601014">
        <ele>633.16999999999996</ele>
        <time>2025-05-19T10:48:44Z</time>
      </trkpt>
      <trkpt lat="44.174458980560303" lon="7.978413021191955">
        <ele>634.13</ele>
        <time>2025-05-19T10:48:50Z</time>
      </trkpt>
      <trkpt lat="44.175367997959256" lon="7.979610040783882">
        <ele>636.04999999999995</ele>
        <time>2025-05-19T10:48:57Z</time>
      </trkpt>
      <trkpt lat="44.175822967663407" lon="7.980386037379503">
        <ele>638.45000000000005</ele>
        <time>2025-05-19T10:49:03Z</time>
      </trkpt>
      <trkpt lat="44.175942996516824" lon="7.980590974912047">
        <ele>638.92999999999995</ele>
        <time>2025-05-19T10:49:05Z</time>
      </trkpt>
      <trkpt lat="44.176030000671744" lon="7.980672027915716">
        <ele>639.40999999999997</ele>
        <time>2025-05-19T10:49:06Z</time>
      </trkpt>
      <trkpt lat="44.176124967634678" lon="7.980740005150437">
        <ele>639.88999999999999</ele>
        <time>2025-05-19T10:49:07Z</time>
      </trkpt>
      <trkpt lat="44.176224041730165" lon="7.9808109998703">
        <ele>639.88999999999999</ele>
        <time>2025-05-19T10:49:08Z</time>
      </trkpt>
      <trkpt lat="44.176338035613298" lon="7.980845030397177">
        <ele>639.88999999999999</ele>
        <time>2025-05-19T10:49:09Z</time>
      </trkpt>
      <trkpt lat="44.176454963162541" lon="7.980855004861951">
        <ele>639.88999999999999</ele>
        <time>2025-05-19T10:49:10Z</time>
      </trkpt>
      <trkpt lat="44.176571974530816" lon="7.980865985155106">
        <ele>639.88999999999999</ele>
        <time>2025-05-19T10:49:11Z</time>
      </trkpt>
      <trkpt lat="44.176689991727471" lon="7.98087696544826">
        <ele>639.40999999999997</ele>
        <time>2025-05-19T10:49:12Z</time>
      </trkpt>
      <trkpt lat="44.177776034921408" lon="7.981030019000173">
        <ele>637.00999999999999</ele>
        <time>2025-05-19T10:49:21Z</time>
      </trkpt>
      <trkpt lat="44.179432969540358" lon="7.981658997014165">
        <ele>633.16999999999996</ele>
        <time>2025-05-19T10:49:33Z</time>
      </trkpt>
      <trkpt lat="44.180772984400392" lon="7.982513029128313">
        <ele>630.27999999999997</ele>
        <time>2025-05-19T10:49:43Z</time>
      </trkpt>
      <trkpt lat="44.181694993749261" lon="7.983779031783342">
        <ele>626.91999999999996</ele>
        <time>2025-05-19T10:49:50Z</time>
      </trkpt>
      <trkpt lat="44.182797968387604" lon="7.985577033832669">
        <ele>622.59000000000003</ele>
        <time>2025-05-19T10:49:58Z</time>
      </trkpt>
      <trkpt lat="44.183444967493415" lon="7.987356008961797">
        <ele>619.71000000000004</ele>
        <time>2025-05-19T10:50:05Z</time>
      </trkpt>
      <trkpt lat="44.183631967753172" lon="7.989012021571398">
        <ele>618.75</ele>
        <time>2025-05-19T10:50:12Z</time>
      </trkpt>
      <trkpt lat="44.183699022978544" lon="7.98987502232194">
        <ele>617.77999999999997</ele>
        <time>2025-05-19T10:50:16Z</time>
      </trkpt>
      <trkpt lat="44.183742022141814" lon="7.990082977339625">
        <ele>617.29999999999995</ele>
        <time>2025-05-19T10:50:17Z</time>
      </trkpt>
      <trkpt lat="44.183791978284717" lon="7.990296967327595">
        <ele>616.82000000000005</ele>
        <time>2025-05-19T10:50:18Z</time>
      </trkpt>
      <trkpt lat="44.18384101241827" lon="7.990509029477835">
        <ele>616.82000000000005</ele>
        <time>2025-05-19T10:50:19Z</time>
      </trkpt>
      <trkpt lat="44.183904966339469" lon="7.990712961181998">
        <ele>616.34000000000003</ele>
        <time>2025-05-19T10:50:20Z</time>
      </trkpt>
      <trkpt lat="44.184325989335775" lon="7.991895982995629">
        <ele>614.41999999999996</ele>
        <time>2025-05-19T10:50:26Z</time>
      </trkpt>
      <trkpt lat="44.184464961290359" lon="7.992263026535511">
        <ele>613.94000000000005</ele>
        <time>2025-05-19T10:50:28Z</time>
      </trkpt>
      <trkpt lat="44.184801997616887" lon="7.992918994277716">
        <ele>613.46000000000004</ele>
        <time>2025-05-19T10:50:32Z</time>
      </trkpt>
      <trkpt lat="44.184923032298684" lon="7.993043968454003">
        <ele>612.98000000000002</ele>
        <time>2025-05-19T10:50:33Z</time>
      </trkpt>
      <trkpt lat="44.185052029788494" lon="7.993177995085716">
        <ele>612.98000000000002</ele>
        <time>2025-05-19T10:50:34Z</time>
      </trkpt>
      <trkpt lat="44.185970015823841" lon="7.994144009426236">
        <ele>612.98000000000002</ele>
        <time>2025-05-19T10:50:42Z</time>
      </trkpt>
      <trkpt lat="44.186925971880555" lon="7.995450999587774">
        <ele>610.09000000000003</ele>
        <time>2025-05-19T10:50:53Z</time>
      </trkpt>
      <trkpt lat="44.186981962993741" lon="7.995616039261222">
        <ele>609.61000000000001</ele>
        <time>2025-05-19T10:50:54Z</time>
      </trkpt>
      <trkpt lat="44.187038959935308" lon="7.995789963752031">
        <ele>609.61000000000001</ele>
        <time>2025-05-19T10:50:55Z</time>
      </trkpt>
      <trkpt lat="44.187604989856482" lon="7.997831963002682">
        <ele>604.33000000000004</ele>
        <time>2025-05-19T10:51:06Z</time>
      </trkpt>
      <trkpt lat="44.187882011756301" lon="7.998714996501803">
        <ele>602.39999999999998</ele>
        <time>2025-05-19T10:51:11Z</time>
      </trkpt>
      <trkpt lat="44.187961975112557" lon="7.998874001204968">
        <ele>601.91999999999996</ele>
        <time>2025-05-19T10:51:12Z</time>
      </trkpt>
      <trkpt lat="44.188811983913183" lon="8.000491037964821">
        <ele>600</ele>
        <time>2025-05-19T10:51:22Z</time>
      </trkpt>
      <trkpt lat="44.189138961955905" lon="8.00231502391398">
        <ele>599.51999999999998</ele>
        <time>2025-05-19T10:51:30Z</time>
      </trkpt>
      <trkpt lat="44.189569037407637" lon="8.004457019269466">
        <ele>599.51999999999998</ele>
        <time>2025-05-19T10:51:39Z</time>
      </trkpt>
      <trkpt lat="44.190197009593248" lon="8.006953988224268">
        <ele>597.12</ele>
        <time>2025-05-19T10:51:48Z</time>
      </trkpt>
      <trkpt lat="44.190461039543152" lon="8.008028967306018">
        <ele>595.66999999999996</ele>
        <time>2025-05-19T10:51:52Z</time>
      </trkpt>
      <trkpt lat="44.190570004284382" lon="8.008272964507341">
        <ele>595.19000000000005</ele>
        <time>2025-05-19T10:51:53Z</time>
      </trkpt>
      <trkpt lat="44.190701013430953" lon="8.008510004729033">
        <ele>594.71000000000004</ele>
        <time>2025-05-19T10:51:54Z</time>
      </trkpt>
      <trkpt lat="44.190861023962498" lon="8.008728018030524">
        <ele>594.71000000000004</ele>
        <time>2025-05-19T10:51:55Z</time>
      </trkpt>
      <trkpt lat="44.191045006737113" lon="8.008923986926675">
        <ele>594.23000000000002</ele>
        <time>2025-05-19T10:51:56Z</time>
      </trkpt>
      <trkpt lat="44.191236030310392" lon="8.009116016328335">
        <ele>594.23000000000002</ele>
        <time>2025-05-19T10:51:57Z</time>
      </trkpt>
      <trkpt lat="44.191444991156459" lon="8.009281978011131">
        <ele>594.23000000000002</ele>
        <time>2025-05-19T10:51:58Z</time>
      </trkpt>
      <trkpt lat="44.191665016114712" lon="8.009416004642844">
        <ele>594.23000000000002</ele>
        <time>2025-05-19T10:51:59Z</time>
      </trkpt>
      <trkpt lat="44.191887974739075" lon="8.009518012404442">
        <ele>594.23000000000002</ele>
        <time>2025-05-19T10:52:00Z</time>
      </trkpt>
      <trkpt lat="44.192105988040566" lon="8.009619014337659">
        <ele>594.23000000000002</ele>
        <time>2025-05-19T10:52:01Z</time>
      </trkpt>
      <trkpt lat="44.194399025291204" lon="8.010638002306223">
        <ele>593.26999999999998</ele>
        <time>2025-05-19T10:52:12Z</time>
      </trkpt>
      <trkpt lat="44.196497015655041" lon="8.011393966153264">
        <ele>591.83000000000004</ele>
        <time>2025-05-19T10:52:22Z</time>
      </trkpt>
      <trkpt lat="44.198008021339774" lon="8.011796968057752">
        <ele>589.90999999999997</ele>
        <time>2025-05-19T10:52:30Z</time>
      </trkpt>
      <trkpt lat="44.198941010981798" lon="8.012183038517833">
        <ele>589.42999999999995</ele>
        <time>2025-05-19T10:52:38Z</time>
      </trkpt>
      <trkpt lat="44.199970979243517" lon="8.012599032372236">
        <ele>588.95000000000005</ele>
        <time>2025-05-19T10:52:48Z</time>
      </trkpt>
      <trkpt lat="44.20137302018702" lon="8.013160033151507">
        <ele>589.42999999999995</ele>
        <time>2025-05-19T10:53:00Z</time>
      </trkpt>
      <trkpt lat="44.202761985361576" lon="8.013732014223933">
        <ele>589.90999999999997</ele>
        <time>2025-05-19T10:53:12Z</time>
      </trkpt>
      <trkpt lat="44.203812992200255" lon="8.014172986149788">
        <ele>588.46000000000004</ele>
        <time>2025-05-19T10:53:21Z</time>
      </trkpt>
      <trkpt lat="44.204037040472031" lon="8.014254039153457">
        <ele>588.46000000000004</ele>
        <time>2025-05-19T10:53:23Z</time>
      </trkpt>
      <trkpt lat="44.204135024920106" lon="8.014289997518063">
        <ele>587.98000000000002</ele>
        <time>2025-05-19T10:53:24Z</time>
      </trkpt>
      <trkpt lat="44.204225968569517" lon="8.014324028044939">
        <ele>587.98000000000002</ele>
        <time>2025-05-19T10:53:25Z</time>
      </trkpt>
      <trkpt lat="44.204471977427602" lon="8.014416983351111">
        <ele>587.98000000000002</ele>
        <time>2025-05-19T10:53:28Z</time>
      </trkpt>
      <trkpt lat="44.204553030431271" lon="8.014447996392846">
        <ele>587.98000000000002</ele>
        <time>2025-05-19T10:53:29Z</time>
      </trkpt>
      <trkpt lat="44.204626036807895" lon="8.014475991949439">
        <ele>588.46000000000004</ele>
        <time>2025-05-19T10:53:30Z</time>
      </trkpt>
      <trkpt lat="44.204926025122404" lon="8.014588980004191">
        <ele>588.95000000000005</ele>
        <time>2025-05-19T10:53:34Z</time>
      </trkpt>
      <trkpt lat="44.205093998461962" lon="8.014611024409533">
        <ele>589.90999999999997</ele>
        <time>2025-05-19T10:53:36Z</time>
      </trkpt>
      <trkpt lat="44.205181002616882" lon="8.014622004702687">
        <ele>590.38999999999999</ele>
        <time>2025-05-19T10:53:37Z</time>
      </trkpt>
      <trkpt lat="44.205539999529719" lon="8.014660980552435">
        <ele>591.35000000000002</ele>
        <time>2025-05-19T10:53:41Z</time>
      </trkpt>
      <trkpt lat="44.205625997856259" lon="8.014666009694338">
        <ele>591.83000000000004</ele>
        <time>2025-05-19T10:53:42Z</time>
      </trkpt>
      <trkpt lat="44.20571300201118" lon="8.01467196084559">
        <ele>591.83000000000004</ele>
        <time>2025-05-19T10:53:43Z</time>
      </trkpt>
      <trkpt lat="44.205797994509339" lon="8.014676989987493">
        <ele>591.83000000000004</ele>
        <time>2025-05-19T10:53:44Z</time>
      </trkpt>
      <trkpt lat="44.20588600449264" lon="8.014683024957776">
        <ele>592.30999999999995</ele>
        <time>2025-05-19T10:53:45Z</time>
      </trkpt>
      <trkpt lat="44.206913961097598" lon="8.014749996364117">
        <ele>590.87</ele>
        <time>2025-05-19T10:53:55Z</time>
      </trkpt>
      <trkpt lat="44.208266967907548" lon="8.014852004125714">
        <ele>587.01999999999998</ele>
        <time>2025-05-19T10:54:06Z</time>
      </trkpt>
      <trkpt lat="44.209608994424343" lon="8.014893997460604">
        <ele>583.65999999999997</ele>
        <time>2025-05-19T10:54:17Z</time>
      </trkpt>
      <trkpt lat="44.209736986085773" lon="8.014882011339068">
        <ele>583.17999999999995</ele>
        <time>2025-05-19T10:54:18Z</time>
      </trkpt>
      <trkpt lat="44.21134103089571" lon="8.01437197253108">
        <ele>579.80999999999995</ele>
        <time>2025-05-19T10:54:29Z</time>
      </trkpt>
      <trkpt lat="44.212838038802147" lon="8.01437197253108">
        <ele>576.92999999999995</ele>
        <time>2025-05-19T10:54:38Z</time>
      </trkpt>
      <trkpt lat="44.215268036350608" lon="8.01456400193274">
        <ele>573.55999999999995</ele>
        <time>2025-05-19T10:54:53Z</time>
      </trkpt>
      <trkpt lat="44.217265024781227" lon="8.014698028564453">
        <ele>570.67999999999995</ele>
        <time>2025-05-19T10:55:03Z</time>
      </trkpt>
      <trkpt lat="44.220305979251862" lon="8.014910006895661">
        <ele>568.75999999999999</ele>
        <time>2025-05-19T10:55:16Z</time>
      </trkpt>
      <trkpt lat="44.223448019474745" lon="8.015133971348405">
        <ele>567.32000000000005</ele>
        <time>2025-05-19T10:55:29Z</time>
      </trkpt>
      <trkpt lat="44.225913975387812" lon="8.015536973252893">
        <ele>563.47000000000003</ele>
        <time>2025-05-19T10:55:40Z</time>
      </trkpt>
      <trkpt lat="44.227560013532639" lon="8.016335014253855">
        <ele>563.95000000000005</ele>
        <time>2025-05-19T10:55:48Z</time>
      </trkpt>
      <trkpt lat="44.229621039703488" lon="8.017394989728928">
        <ele>563.47000000000003</ele>
        <time>2025-05-19T10:55:58Z</time>
      </trkpt>
      <trkpt lat="44.229851039126515" lon="8.017417034134269">
        <ele>563.47000000000003</ele>
        <time>2025-05-19T10:55:59Z</time>
      </trkpt>
      <trkpt lat="44.230084978044033" lon="8.017398007214069">
        <ele>562.99000000000001</ele>
        <time>2025-05-19T10:56:00Z</time>
      </trkpt>
      <trkpt lat="44.230322018265724" lon="8.01737898029387">
        <ele>562.99000000000001</ele>
        <time>2025-05-19T10:56:01Z</time>
      </trkpt>
      <trkpt lat="44.230570960789919" lon="8.017359031364322">
        <ele>562.99000000000001</ele>
        <time>2025-05-19T10:56:02Z</time>
      </trkpt>
      <trkpt lat="44.230788974091411" lon="8.01724998280406">
        <ele>562.50999999999999</ele>
        <time>2025-05-19T10:56:03Z</time>
      </trkpt>
      <trkpt lat="44.231012016534805" lon="8.017139006406069">
        <ele>562.50999999999999</ele>
        <time>2025-05-19T10:56:04Z</time>
      </trkpt>
      <trkpt lat="44.231232963502407" lon="8.017028030008078">
        <ele>561.54999999999995</ele>
        <time>2025-05-19T10:56:05Z</time>
      </trkpt>
      <trkpt lat="44.233274962753057" lon="8.015625989064574">
        <ele>554.82000000000005</ele>
        <time>2025-05-19T10:56:15Z</time>
      </trkpt>
      <trkpt lat="44.233886003494263" lon="8.015313008800149">
        <ele>552.89999999999998</ele>
        <time>2025-05-19T10:56:18Z</time>
      </trkpt>
      <trkpt lat="44.234091024845839" lon="8.015221981331706">
        <ele>551.92999999999995</ele>
        <time>2025-05-19T10:56:19Z</time>
      </trkpt>
      <trkpt lat="44.234306020662189" lon="8.015195997431874">
        <ele>551.45000000000005</ele>
        <time>2025-05-19T10:56:20Z</time>
      </trkpt>
      <trkpt lat="44.23452596180141" lon="8.015176970511675">
        <ele>550.49000000000001</ele>
        <time>2025-05-19T10:56:21Z</time>
      </trkpt>
      <trkpt lat="44.234747998416424" lon="8.015157021582127">
        <ele>549.52999999999997</ele>
        <time>2025-05-19T10:56:22Z</time>
      </trkpt>
      <trkpt lat="44.234970035031438" lon="8.015151992440224">
        <ele>549.04999999999995</ele>
        <time>2025-05-19T10:56:23Z</time>
      </trkpt>
      <trkpt lat="44.237150000408292" lon="8.015258023515344">
        <ele>548.57000000000005</ele>
        <time>2025-05-19T10:56:33Z</time>
      </trkpt>
      <trkpt lat="44.237575968727469" lon="8.015394983813167">
        <ele>549.04999999999995</ele>
        <time>2025-05-19T10:56:35Z</time>
      </trkpt>
      <trkpt lat="44.237776966765523" lon="8.015504032373428">
        <ele>549.52999999999997</ele>
        <time>2025-05-19T10:56:36Z</time>
      </trkpt>
      <trkpt lat="44.237976958975196" lon="8.015620037913322">
        <ele>549.52999999999997</ele>
        <time>2025-05-19T10:56:37Z</time>
      </trkpt>
      <trkpt lat="44.238161025568843" lon="8.015782982110977">
        <ele>549.52999999999997</ele>
        <time>2025-05-19T10:56:38Z</time>
      </trkpt>
      <trkpt lat="44.238344002515078" lon="8.015945004299283">
        <ele>550.00999999999999</ele>
        <time>2025-05-19T10:56:39Z</time>
      </trkpt>
      <trkpt lat="44.238524967804551" lon="8.016112977638841">
        <ele>550.00999999999999</ele>
        <time>2025-05-19T10:56:40Z</time>
      </trkpt>
      <trkpt lat="44.238673998042941" lon="8.016331996768713">
        <ele>549.52999999999997</ele>
        <time>2025-05-19T10:56:41Z</time>
      </trkpt>
      <trkpt lat="44.238819004967809" lon="8.016545986756682">
        <ele>550.00999999999999</ele>
        <time>2025-05-19T10:56:42Z</time>
      </trkpt>
      <trkpt lat="44.238928975537419" lon="8.01677699200809">
        <ele>550.00999999999999</ele>
        <time>2025-05-19T10:56:43Z</time>
      </trkpt>
      <trkpt lat="44.239035006612539" lon="8.017011014744639">
        <ele>550.00999999999999</ele>
        <time>2025-05-19T10:56:44Z</time>
      </trkpt>
      <trkpt lat="44.239138020202518" lon="8.017236990854144">
        <ele>550.00999999999999</ele>
        <time>2025-05-19T10:56:45Z</time>
      </trkpt>
      <trkpt lat="44.239626014605165" lon="8.018862996250391">
        <ele>550.97000000000003</ele>
        <time>2025-05-19T10:56:52Z</time>
      </trkpt>
      <trkpt lat="44.240469988435507" lon="8.02070701494813">
        <ele>552.40999999999997</ele>
        <time>2025-05-19T10:57:00Z</time>
      </trkpt>
      <trkpt lat="44.240608960390091" lon="8.020887980237603">
        <ele>552.40999999999997</ele>
        <time>2025-05-19T10:57:01Z</time>
      </trkpt>
      <trkpt lat="44.240750027820468" lon="8.021041033789516">
        <ele>552.40999999999997</ele>
        <time>2025-05-19T10:57:02Z</time>
      </trkpt>
      <trkpt lat="44.240912972018123" lon="8.021153016015887">
        <ele>552.89999999999998</ele>
        <time>2025-05-19T10:57:03Z</time>
      </trkpt>
      <trkpt lat="44.241080023348331" lon="8.021259969100356">
        <ele>552.89999999999998</ele>
        <time>2025-05-19T10:57:04Z</time>
      </trkpt>
      <trkpt lat="44.241258976981044" lon="8.021343033760786">
        <ele>553.38</ele>
        <time>2025-05-19T10:57:05Z</time>
      </trkpt>
      <trkpt lat="44.242110997438431" lon="8.02167596295476">
        <ele>553.86000000000001</ele>
        <time>2025-05-19T10:57:11Z</time>
      </trkpt>
      <trkpt lat="44.243166027590632" lon="8.021701024845243">
        <ele>552.40999999999997</ele>
        <time>2025-05-19T10:57:21Z</time>
      </trkpt>
      <trkpt lat="44.244213011115789" lon="8.02167403511703">
        <ele>550.97000000000003</ele>
        <time>2025-05-19T10:57:30Z</time>
      </trkpt>
      <trkpt lat="44.244327004998922" lon="8.021671017631888">
        <ele>550.97000000000003</ele>
        <time>2025-05-19T10:57:31Z</time>
      </trkpt>
      <trkpt lat="44.245511032640934" lon="8.021649979054928">
        <ele>550.49000000000001</ele>
        <time>2025-05-19T10:57:41Z</time>
      </trkpt>
      <trkpt lat="44.246864961460233" lon="8.021606979891658">
        <ele>545.20000000000005</ele>
        <time>2025-05-19T10:57:51Z</time>
      </trkpt>
      <trkpt lat="44.249022966250777" lon="8.021531961858273">
        <ele>538.48000000000002</ele>
        <time>2025-05-19T10:58:04Z</time>
      </trkpt>
      <trkpt lat="44.250709991902113" lon="8.021471025422216">
        <ele>538.48000000000002</ele>
        <time>2025-05-19T10:58:14Z</time>
      </trkpt>
      <trkpt lat="44.251032024621964" lon="8.0214390065521">
        <ele>538.48000000000002</ele>
        <time>2025-05-19T10:58:16Z</time>
      </trkpt>
      <trkpt lat="44.251191029325128" lon="8.021386032924056">
        <ele>538.48000000000002</ele>
        <time>2025-05-19T10:58:17Z</time>
      </trkpt>
      <trkpt lat="44.251364031806588" lon="8.02132903598249">
        <ele>538.96000000000004</ele>
        <time>2025-05-19T10:58:18Z</time>
      </trkpt>
      <trkpt lat="44.251495962962508" lon="8.021242031827569">
        <ele>538.96000000000004</ele>
        <time>2025-05-19T10:58:19Z</time>
      </trkpt>
      <trkpt lat="44.251640969887376" lon="8.021147986873984">
        <ele>539.44000000000005</ele>
        <time>2025-05-19T10:58:20Z</time>
      </trkpt>
      <trkpt lat="44.252914013341069" lon="8.020442984998226">
        <ele>539.91999999999996</ele>
        <time>2025-05-19T10:58:28Z</time>
      </trkpt>
      <trkpt lat="44.25431203097105" lon="8.020138973370194">
        <ele>541.36000000000001</ele>
        <time>2025-05-19T10:58:36Z</time>
      </trkpt>
      <trkpt lat="44.255517013370991" lon="8.020137967541814">
        <ele>540.88</ele>
        <time>2025-05-19T10:58:43Z</time>
      </trkpt>
      <trkpt lat="44.255660008639097" lon="8.020185995846987">
        <ele>540.39999999999998</ele>
        <time>2025-05-19T10:58:44Z</time>
      </trkpt>
      <trkpt lat="44.255806021392345" lon="8.02023402415216">
        <ele>539.91999999999996</ele>
        <time>2025-05-19T10:58:45Z</time>
      </trkpt>
      <trkpt lat="44.2573850043118" lon="8.021272039040923">
        <ele>537.50999999999999</ele>
        <time>2025-05-19T10:58:57Z</time>
      </trkpt>
      <trkpt lat="44.257972994819283" lon="8.021715022623539">
        <ele>537.50999999999999</ele>
        <time>2025-05-19T10:59:03Z</time>
      </trkpt>
      <trkpt lat="44.258866002783179" lon="8.022869965061545">
        <ele>534.63</ele>
        <time>2025-05-19T10:59:15Z</time>
      </trkpt>
      <trkpt lat="44.259236985817552" lon="8.02328696474433">
        <ele>532.71000000000004</ele>
        <time>2025-05-19T10:59:22Z</time>
      </trkpt>
      <trkpt lat="44.259294988587499" lon="8.023339016363025">
        <ele>532.23000000000002</ele>
        <time>2025-05-19T10:59:23Z</time>
      </trkpt>
      <trkpt lat="44.25934100523591" lon="8.023381009697914">
        <ele>532.23000000000002</ele>
        <time>2025-05-19T10:59:24Z</time>
      </trkpt>
      <trkpt lat="44.259389033541083" lon="8.023424008861184">
        <ele>531.26999999999998</ele>
        <time>2025-05-19T10:59:30Z</time>
      </trkpt>
      <trkpt lat="44.25944996997714" lon="8.02347999997437">
        <ele>529.34000000000003</ele>
        <time>2025-05-19T10:59:46Z</time>
      </trkpt>
      <trkpt lat="44.259500009939075" lon="8.023524004966021">
        <ele>528.86000000000001</ele>
        <time>2025-05-19T10:59:47Z</time>
      </trkpt>
      <trkpt lat="44.259538985788822" lon="8.023559963330627">
        <ele>528.86000000000001</ele>
        <time>2025-05-19T10:59:48Z</time>
      </trkpt>
      <trkpt lat="44.259585002437234" lon="8.02358603104949">
        <ele>528.38</ele>
        <time>2025-05-19T10:59:49Z</time>
      </trkpt>
      <trkpt lat="44.259585002437234" lon="8.02358603104949">
        <ele>528.38</ele>
        <time>2025-05-19T10:59:57Z</time>
      </trkpt>
      <trkpt lat="44.259585002437234" lon="8.02358603104949">
        <ele>527.89999999999998</ele>
        <time>2025-05-19T11:00:46Z</time>
      </trkpt>
      <trkpt lat="44.259764961898327" lon="8.023688960820437">
        <ele>526.94000000000005</ele>
        <time>2025-05-19T11:01:13Z</time>
      </trkpt>
      <trkpt lat="44.260681020095944" lon="8.024282986298204">
        <ele>526.46000000000004</ele>
        <time>2025-05-19T11:01:22Z</time>
      </trkpt>
      <trkpt lat="44.261841997504234" lon="8.025013972073793">
        <ele>526.94000000000005</ele>
        <time>2025-05-19T11:01:32Z</time>
      </trkpt>
      <trkpt lat="44.262708015739918" lon="8.025558041408658">
        <ele>527.41999999999996</ele>
        <time>2025-05-19T11:01:43Z</time>
      </trkpt>
      <trkpt lat="44.263576967641711" lon="8.026103032752872">
        <ele>527.41999999999996</ele>
        <time>2025-05-19T11:01:52Z</time>
      </trkpt>
      <trkpt lat="44.264681031927466" lon="8.026801999658346">
        <ele>526.46000000000004</ele>
        <time>2025-05-19T11:01:59Z</time>
      </trkpt>
      <trkpt lat="44.266677014529705" lon="8.028046041727066">
        <ele>522.61000000000001</ele>
        <time>2025-05-19T11:02:09Z</time>
      </trkpt>
      <trkpt lat="44.269316978752613" lon="8.029668023809791">
        <ele>518.28999999999996</ele>
        <time>2025-05-19T11:02:21Z</time>
      </trkpt>
      <trkpt lat="44.270921023562551" lon="8.030192982405424">
        <ele>517.80999999999995</ele>
        <time>2025-05-19T11:02:28Z</time>
      </trkpt>
      <trkpt lat="44.272693963721395" lon="8.030682988464832">
        <ele>517.33000000000004</ele>
        <time>2025-05-19T11:02:36Z</time>
      </trkpt>
      <trkpt lat="44.27358697168529" lon="8.0309799592942">
        <ele>517.80999999999995</ele>
        <time>2025-05-19T11:02:41Z</time>
      </trkpt>
      <trkpt lat="44.273732984438539" lon="8.031080961227417">
        <ele>517.80999999999995</ele>
        <time>2025-05-19T11:02:42Z</time>
      </trkpt>
      <trkpt lat="44.273872962221503" lon="8.031220017001033">
        <ele>517.80999999999995</ele>
        <time>2025-05-19T11:02:43Z</time>
      </trkpt>
      <trkpt lat="44.273975975811481" lon="8.031409028917551">
        <ele>517.80999999999995</ele>
        <time>2025-05-19T11:02:44Z</time>
      </trkpt>
      <trkpt lat="44.274081001058221" lon="8.031624024733901">
        <ele>517.80999999999995</ele>
        <time>2025-05-19T11:02:45Z</time>
      </trkpt>
      <trkpt lat="44.274190971627831" lon="8.031848995015025">
        <ele>517.80999999999995</ele>
        <time>2025-05-19T11:02:46Z</time>
      </trkpt>
      <trkpt lat="44.274304965510964" lon="8.032083017751575">
        <ele>517.33000000000004</ele>
        <time>2025-05-19T11:02:47Z</time>
      </trkpt>
      <trkpt lat="44.274851968511939" lon="8.033171994611621">
        <ele>515.88</ele>
        <time>2025-05-19T11:02:52Z</time>
      </trkpt>
      <trkpt lat="44.274980966001749" lon="8.033323958516121">
        <ele>515.39999999999998</ele>
        <time>2025-05-19T11:02:53Z</time>
      </trkpt>
      <trkpt lat="44.275911021977663" lon="8.034169021993876">
        <ele>514.44000000000005</ele>
        <time>2025-05-19T11:02:59Z</time>
      </trkpt>
      <trkpt lat="44.276066003367305" lon="8.034252002835274">
        <ele>514.44000000000005</ele>
        <time>2025-05-19T11:03:00Z</time>
      </trkpt>
      <trkpt lat="44.276255015283823" lon="8.034310005605221">
        <ele>513.96000000000004</ele>
        <time>2025-05-19T11:03:01Z</time>
      </trkpt>
      <trkpt lat="44.276426006108522" lon="8.034321991726756">
        <ele>513.96000000000004</ele>
        <time>2025-05-19T11:03:02Z</time>
      </trkpt>
      <trkpt lat="44.276623986661434" lon="8.034334983676672">
        <ele>513.48000000000002</ele>
        <time>2025-05-19T11:03:03Z</time>
      </trkpt>
      <trkpt lat="44.278490971773863" lon="8.03445702418685">
        <ele>510.60000000000002</ele>
        <time>2025-05-19T11:03:12Z</time>
      </trkpt>
      <trkpt lat="44.278652993962169" lon="8.034488037228584">
        <ele>511.07999999999998</ele>
        <time>2025-05-19T11:03:13Z</time>
      </trkpt>
      <trkpt lat="44.278792971745133" lon="8.034514021128416">
        <ele>511.07999999999998</ele>
        <time>2025-05-19T11:03:14Z</time>
      </trkpt>
      <trkpt lat="44.278905037790537" lon="8.034572023898363">
        <ele>511.56</ele>
        <time>2025-05-19T11:03:15Z</time>
      </trkpt>
      <trkpt lat="44.279009979218245" lon="8.034661961719394">
        <ele>511.56</ele>
        <time>2025-05-19T11:03:16Z</time>
      </trkpt>
      <trkpt lat="44.279120033606887" lon="8.034756006672978">
        <ele>512.03999999999996</ele>
        <time>2025-05-19T11:03:17Z</time>
      </trkpt>
      <trkpt lat="44.279233021661639" lon="8.034863965585828">
        <ele>512.03999999999996</ele>
        <time>2025-05-19T11:03:18Z</time>
      </trkpt>
      <trkpt lat="44.279348021373153" lon="8.034978965297341">
        <ele>512.51999999999998</ele>
        <time>2025-05-19T11:03:19Z</time>
      </trkpt>
      <trkpt lat="44.279466038569808" lon="8.035088013857603">
        <ele>512.51999999999998</ele>
        <time>2025-05-19T11:03:20Z</time>
      </trkpt>
      <trkpt lat="44.279610039666295" lon="8.035144004970789">
        <ele>512.03999999999996</ele>
        <time>2025-05-19T11:03:21Z</time>
      </trkpt>
      <trkpt lat="44.279757980257273" lon="8.035190021619201">
        <ele>511.56</ele>
        <time>2025-05-19T11:03:22Z</time>
      </trkpt>
      <trkpt lat="44.279917990788817" lon="8.035190021619201">
        <ele>511.07999999999998</ele>
        <time>2025-05-19T11:03:23Z</time>
      </trkpt>
      <trkpt lat="44.280072972178459" lon="8.035151967778802">
        <ele>511.07999999999998</ele>
        <time>2025-05-19T11:03:24Z</time>
      </trkpt>
      <trkpt lat="44.280237006023526" lon="8.035053983330727">
        <ele>510.60000000000002</ele>
        <time>2025-05-19T11:03:25Z</time>
      </trkpt>
      <trkpt lat="44.280404979363084" lon="8.034937977790833">
        <ele>509.63999999999999</ele>
        <time>2025-05-19T11:03:26Z</time>
      </trkpt>
      <trkpt lat="44.280573958531022" lon="8.03480101749301">
        <ele>509.16000000000003</ele>
        <time>2025-05-19T11:03:27Z</time>
      </trkpt>
      <trkpt lat="44.281692020595074" lon="8.033859981223941">
        <ele>503.87</ele>
        <time>2025-05-19T11:03:33Z</time>
      </trkpt>
      <trkpt lat="44.282907983288169" lon="8.03291299380362">
        <ele>498.57999999999998</ele>
        <time>2025-05-19T11:03:40Z</time>
      </trkpt>
      <trkpt lat="44.283099006861448" lon="8.032835964113474">
        <ele>497.62</ele>
        <time>2025-05-19T11:03:41Z</time>
      </trkpt>
      <trkpt lat="44.28329698741436" lon="8.032779973000288">
        <ele>496.66000000000003</ele>
        <time>2025-05-19T11:03:42Z</time>
      </trkpt>
      <trkpt lat="44.283496979624033" lon="8.032721970230341">
        <ele>496.18000000000001</ele>
        <time>2025-05-19T11:03:43Z</time>
      </trkpt>
      <trkpt lat="44.283695966005325" lon="8.032701015472412">
        <ele>495.69999999999999</ele>
        <time>2025-05-19T11:03:44Z</time>
      </trkpt>
      <trkpt lat="44.283897969871759" lon="8.032710989937186">
        <ele>495.69999999999999</ele>
        <time>2025-05-19T11:03:45Z</time>
      </trkpt>
      <trkpt lat="44.284098967909813" lon="8.03274099715054">
        <ele>495.69999999999999</ele>
        <time>2025-05-19T11:03:46Z</time>
      </trkpt>
      <trkpt lat="44.284494007006288" lon="8.032777039334178">
        <ele>495.22000000000003</ele>
        <time>2025-05-19T11:03:48Z</time>
      </trkpt>
      <trkpt lat="44.284685030579567" lon="8.032754994928837">
        <ele>495.22000000000003</ele>
        <time>2025-05-19T11:03:49Z</time>
      </trkpt>
      <trkpt lat="44.285261034965515" lon="8.03274099715054">
        <ele>494.74000000000001</ele>
        <time>2025-05-19T11:03:52Z</time>
      </trkpt>
      <trkpt lat="44.285454992204905" lon="8.032787013798952">
        <ele>494.25999999999999</ele>
        <time>2025-05-19T11:03:53Z</time>
      </trkpt>
      <trkpt lat="44.287417028099298" lon="8.033357989042997">
        <ele>492.32999999999998</ele>
        <time>2025-05-19T11:04:02Z</time>
      </trkpt>
      <trkpt lat="44.288935996592045" lon="8.03403097204864">
        <ele>491.37</ele>
        <time>2025-05-19T11:04:09Z</time>
      </trkpt>
      <trkpt lat="44.290855033323169" lon="8.034825995564461">
        <ele>493.76999999999998</ele>
        <time>2025-05-19T11:04:18Z</time>
      </trkpt>
      <trkpt lat="44.292841041460633" lon="8.035631999373436">
        <ele>496.18000000000001</ele>
        <time>2025-05-19T11:04:27Z</time>
      </trkpt>
      <trkpt lat="44.293572027236223" lon="8.035994013771415">
        <ele>496.18000000000001</ele>
        <time>2025-05-19T11:04:31Z</time>
      </trkpt>
      <trkpt lat="44.293728014454246" lon="8.036130974069238">
        <ele>496.18000000000001</ele>
        <time>2025-05-19T11:04:32Z</time>
      </trkpt>
      <trkpt lat="44.293877966701984" lon="8.036302970722318">
        <ele>496.18000000000001</ele>
        <time>2025-05-19T11:04:33Z</time>
      </trkpt>
      <trkpt lat="44.294015010818839" lon="8.036515032872558">
        <ele>495.69999999999999</ele>
        <time>2025-05-19T11:04:34Z</time>
      </trkpt>
      <trkpt lat="44.294141996651888" lon="8.036746960133314">
        <ele>495.69999999999999</ele>
        <time>2025-05-19T11:04:35Z</time>
      </trkpt>
      <trkpt lat="44.295616038143635" lon="8.039434030652046">
        <ele>492.81</ele>
        <time>2025-05-19T11:04:46Z</time>
      </trkpt>
      <trkpt lat="44.296220960095525" lon="8.040758036077023">
        <ele>491.37</ele>
        <time>2025-05-19T11:04:53Z</time>
      </trkpt>
      <trkpt lat="44.29668297059834" lon="8.041853969916701">
        <ele>490.41000000000003</ele>
        <time>2025-05-19T11:05:00Z</time>
      </trkpt>
      <trkpt lat="44.296786990016699" lon="8.041971987113357">
        <ele>490.41000000000003</ele>
        <time>2025-05-19T11:05:01Z</time>
      </trkpt>
      <trkpt lat="44.297506995499134" lon="8.042577998712659">
        <ele>491.85000000000002</ele>
        <time>2025-05-19T11:05:08Z</time>
      </trkpt>
      <trkpt lat="44.297602968290448" lon="8.042640024796128">
        <ele>492.81</ele>
        <time>2025-05-19T11:05:09Z</time>
      </trkpt>
      <trkpt lat="44.297701036557555" lon="8.042702972888947">
        <ele>493.29000000000002</ele>
        <time>2025-05-19T11:05:10Z</time>
      </trkpt>
      <trkpt lat="44.297804972156882" lon="8.042771033942699">
        <ele>493.76999999999998</ele>
        <time>2025-05-19T11:05:11Z</time>
      </trkpt>
      <trkpt lat="44.297908991575241" lon="8.04283800534904">
        <ele>494.25999999999999</ele>
        <time>2025-05-19T11:05:12Z</time>
      </trkpt>
      <trkpt lat="44.298012005165219" lon="8.042914029210806">
        <ele>494.25999999999999</ele>
        <time>2025-05-19T11:05:13Z</time>
      </trkpt>
      <trkpt lat="44.298106972128153" lon="8.043008996173739">
        <ele>494.25999999999999</ele>
        <time>2025-05-19T11:05:14Z</time>
      </trkpt>
      <trkpt lat="44.298555990681052" lon="8.043528003618121">
        <ele>493.76999999999998</ele>
        <time>2025-05-19T11:05:19Z</time>
      </trkpt>
      <trkpt lat="44.298642994835973" lon="8.043647026643157">
        <ele>493.76999999999998</ele>
        <time>2025-05-19T11:05:20Z</time>
      </trkpt>
      <trkpt lat="44.299273984506726" lon="8.044841028749943">
        <ele>489.93000000000001</ele>
        <time>2025-05-19T11:05:29Z</time>
      </trkpt>
      <trkpt lat="44.299378003925085" lon="8.04494496434927">
        <ele>489.93000000000001</ele>
        <time>2025-05-19T11:05:30Z</time>
      </trkpt>
      <trkpt lat="44.29949602112174" lon="8.045002967119217">
        <ele>489.93000000000001</ele>
        <time>2025-05-19T11:05:31Z</time>
      </trkpt>
      <trkpt lat="44.299622001126409" lon="8.045060969889164">
        <ele>489.93000000000001</ele>
        <time>2025-05-19T11:05:32Z</time>
      </trkpt>
      <trkpt lat="44.299756027758121" lon="8.045060969889164">
        <ele>489.93000000000001</ele>
        <time>2025-05-19T11:05:33Z</time>
      </trkpt>
      <trkpt lat="44.299887958914042" lon="8.045060969889164">
        <ele>490.41000000000003</ele>
        <time>2025-05-19T11:05:34Z</time>
      </trkpt>
      <trkpt lat="44.300007987767458" lon="8.045060969889164">
        <ele>490.41000000000003</ele>
        <time>2025-05-19T11:05:35Z</time>
      </trkpt>
      <trkpt lat="44.300114018842578" lon="8.045004978775978">
        <ele>490.41000000000003</ele>
        <time>2025-05-19T11:05:36Z</time>
      </trkpt>
      <trkpt lat="44.300224995240569" lon="8.044946976006031">
        <ele>490.88999999999999</ele>
        <time>2025-05-19T11:05:37Z</time>
      </trkpt>
      <trkpt lat="44.30033597163856" lon="8.044887967407703">
        <ele>490.88999999999999</ele>
        <time>2025-05-19T11:05:38Z</time>
      </trkpt>
      <trkpt lat="44.301188997924328" lon="8.044438026845455">
        <ele>493.76999999999998</ele>
        <time>2025-05-19T11:05:46Z</time>
      </trkpt>
      <trkpt lat="44.301658971235156" lon="8.044281033799052">
        <ele>493.29000000000002</ele>
        <time>2025-05-19T11:05:50Z</time>
      </trkpt>
      <trkpt lat="44.301786040887237" lon="8.044273993000388">
        <ele>492.81</ele>
        <time>2025-05-19T11:05:51Z</time>
      </trkpt>
      <trkpt lat="44.301917972043157" lon="8.044267036020756">
        <ele>492.32999999999998</ele>
        <time>2025-05-19T11:05:52Z</time>
      </trkpt>
      <trkpt lat="44.302030960097909" lon="8.044311963021755">
        <ele>491.85000000000002</ele>
        <time>2025-05-19T11:05:53Z</time>
      </trkpt>
      <trkpt lat="44.302153000608087" lon="8.044360997155309">
        <ele>491.37</ele>
        <time>2025-05-19T11:05:54Z</time>
      </trkpt>
      <trkpt lat="44.302939977496862" lon="8.044670037925243">
        <ele>488.97000000000003</ele>
        <time>2025-05-19T11:06:01Z</time>
      </trkpt>
      <trkpt lat="44.303045002743602" lon="8.044708007946611">
        <ele>488.49000000000001</ele>
        <time>2025-05-19T11:06:02Z</time>
      </trkpt>
      <trkpt lat="44.303693007677794" lon="8.044943958520889">
        <ele>488.00999999999999</ele>
        <time>2025-05-19T11:06:08Z</time>
      </trkpt>
      <trkpt lat="44.304800005629659" lon="8.045367999002338">
        <ele>482.72000000000003</ele>
        <time>2025-05-19T11:06:18Z</time>
      </trkpt>
      <trkpt lat="44.305351031944156" lon="8.04556698538363">
        <ele>479.83999999999997</ele>
        <time>2025-05-19T11:06:23Z</time>
      </trkpt>
      <trkpt lat="44.305461002513766" lon="8.0456099845469">
        <ele>479.35000000000002</ele>
        <time>2025-05-19T11:06:24Z</time>
      </trkpt>
      <trkpt lat="44.305568039417267" lon="8.045651977881789">
        <ele>478.87</ele>
        <time>2025-05-19T11:06:25Z</time>
      </trkpt>
      <trkpt lat="44.305681027472019" lon="8.04569598287344">
        <ele>478.38999999999999</ele>
        <time>2025-05-19T11:06:26Z</time>
      </trkpt>
      <trkpt lat="44.305797033011913" lon="8.045741999521852">
        <ele>478.38999999999999</ele>
        <time>2025-05-19T11:06:27Z</time>
      </trkpt>
      <trkpt lat="44.306305982172489" lon="8.045944003388286">
        <ele>479.35000000000002</ele>
        <time>2025-05-19T11:06:31Z</time>
      </trkpt>
      <trkpt lat="44.306446965783834" lon="8.045994965359569">
        <ele>479.83999999999997</ele>
        <time>2025-05-19T11:06:32Z</time>
      </trkpt>
      <trkpt lat="44.307141993194818" lon="8.046263018622994">
        <ele>480.31999999999999</ele>
        <time>2025-05-19T11:06:38Z</time>
      </trkpt>
      <trkpt lat="44.308066014200449" lon="8.046605000272393">
        <ele>481.27999999999997</ele>
        <time>2025-05-19T11:06:46Z</time>
      </trkpt>
      <trkpt lat="44.309374010190368" lon="8.047106992453337">
        <ele>481.27999999999997</ele>
        <time>2025-05-19T11:06:57Z</time>
      </trkpt>
      <trkpt lat="44.310592990368605" lon="8.047576965764165">
        <ele>481.27999999999997</ele>
        <time>2025-05-19T11:07:06Z</time>
      </trkpt>
      <trkpt lat="44.312549997121096" lon="8.048327984288335">
        <ele>479.83999999999997</ele>
        <time>2025-05-19T11:07:17Z</time>
      </trkpt>
      <trkpt lat="44.31408598087728" lon="8.048899965360761">
        <ele>478.38999999999999</ele>
        <time>2025-05-19T11:07:27Z</time>
      </trkpt>
      <trkpt lat="44.315510988235474" lon="8.049443028867245">
        <ele>479.83999999999997</ele>
        <time>2025-05-19T11:07:35Z</time>
      </trkpt>
      <trkpt lat="44.317983984947205" lon="8.050386998802424">
        <ele>479.35000000000002</ele>
        <time>2025-05-19T11:07:48Z</time>
      </trkpt>
      <trkpt lat="44.320193035528064" lon="8.051008014008403">
        <ele>476.47000000000003</ele>
        <time>2025-05-19T11:07:59Z</time>
      </trkpt>
      <trkpt lat="44.323493996635079" lon="8.051760038360953">
        <ele>470.69999999999999</ele>
        <time>2025-05-19T11:08:15Z</time>
      </trkpt>
      <trkpt lat="44.327077008783817" lon="8.052567970007658">
        <ele>465.42000000000002</ele>
        <time>2025-05-19T11:08:31Z</time>
      </trkpt>
      <trkpt lat="44.330242015421391" lon="8.0532790068537">
        <ele>463.49000000000001</ele>
        <time>2025-05-19T11:08:45Z</time>
      </trkpt>
      <trkpt lat="44.333153972402215" lon="8.053922988474369">
        <ele>463.49000000000001</ele>
        <time>2025-05-19T11:08:59Z</time>
      </trkpt>
      <trkpt lat="44.333952013403177" lon="8.054200010374188">
        <ele>465.89999999999998</ele>
        <time>2025-05-19T11:09:03Z</time>
      </trkpt>
      <trkpt lat="44.334149993956089" lon="8.054306041449308">
        <ele>466.38</ele>
        <time>2025-05-19T11:09:04Z</time>
      </trkpt>
      <trkpt lat="44.334332970902324" lon="8.054465968161821">
        <ele>466.86000000000001</ele>
        <time>2025-05-19T11:09:05Z</time>
      </trkpt>
      <trkpt lat="44.335923017933965" lon="8.055915031582117">
        <ele>465.89999999999998</ele>
        <time>2025-05-19T11:09:14Z</time>
      </trkpt>
      <trkpt lat="44.337794026359916" lon="8.057652013376355">
        <ele>463.97000000000003</ele>
        <time>2025-05-19T11:09:26Z</time>
      </trkpt>
      <trkpt lat="44.338521994650364" lon="8.058342011645436">
        <ele>463.00999999999999</ele>
        <time>2025-05-19T11:09:33Z</time>
      </trkpt>
      <trkpt lat="44.338611010462046" lon="8.058425998315215">
        <ele>462.52999999999997</ele>
        <time>2025-05-19T11:09:34Z</time>
      </trkpt>
      <trkpt lat="44.338702037930489" lon="8.058513002470136">
        <ele>462.05000000000001</ele>
        <time>2025-05-19T11:09:35Z</time>
      </trkpt>
      <trkpt lat="44.339763019233942" lon="8.059429982677102">
        <ele>459.64999999999998</ele>
        <time>2025-05-19T11:09:46Z</time>
      </trkpt>
      <trkpt lat="44.339862009510398" lon="8.059498965740204">
        <ele>459.64999999999998</ele>
        <time>2025-05-19T11:09:47Z</time>
      </trkpt>
      <trkpt lat="44.339958988130093" lon="8.059567026793957">
        <ele>459.17000000000002</ele>
        <time>2025-05-19T11:09:48Z</time>
      </trkpt>
      <trkpt lat="44.340156968683004" lon="8.05970499292016">
        <ele>459.17000000000002</ele>
        <time>2025-05-19T11:09:50Z</time>
      </trkpt>
      <trkpt lat="44.341147039085627" lon="8.06037001311779">
        <ele>458.20999999999998</ele>
        <time>2025-05-19T11:10:00Z</time>
      </trkpt>
      <trkpt lat="44.341450966894627" lon="8.060576040297747">
        <ele>458.20999999999998</ele>
        <time>2025-05-19T11:10:03Z</time>
      </trkpt>
      <trkpt lat="44.341554986312985" lon="8.060646029189229">
        <ele>457.72000000000003</ele>
        <time>2025-05-19T11:10:04Z</time>
      </trkpt>
      <trkpt lat="44.342745970934629" lon="8.06159402243793">
        <ele>456.75999999999999</ele>
        <time>2025-05-19T11:10:16Z</time>
      </trkpt>
      <trkpt lat="44.343436975032091" lon="8.062161980196834">
        <ele>455.80000000000001</ele>
        <time>2025-05-19T11:10:23Z</time>
      </trkpt>
      <trkpt lat="44.34354099445045" lon="8.062244039028883">
        <ele>455.31999999999999</ele>
        <time>2025-05-19T11:10:24Z</time>
      </trkpt>
      <trkpt lat="44.343664962798357" lon="8.062264993786812">
        <ele>455.31999999999999</ele>
        <time>2025-05-19T11:10:25Z</time>
      </trkpt>
      <trkpt lat="44.343782979995012" lon="8.06228200905025">
        <ele>455.31999999999999</ele>
        <time>2025-05-19T11:10:26Z</time>
      </trkpt>
      <trkpt lat="44.343902003020048" lon="8.062273040413857">
        <ele>455.31999999999999</ele>
        <time>2025-05-19T11:10:27Z</time>
      </trkpt>
      <trkpt lat="44.344017002731562" lon="8.062214031815529">
        <ele>455.31999999999999</ele>
        <time>2025-05-19T11:10:28Z</time>
      </trkpt>
      <trkpt lat="44.34412102214992" lon="8.06212903931737">
        <ele>455.31999999999999</ele>
        <time>2025-05-19T11:10:29Z</time>
      </trkpt>
      <trkpt lat="44.344224035739899" lon="8.062028959393501">
        <ele>455.31999999999999</ele>
        <time>2025-05-19T11:10:30Z</time>
      </trkpt>
      <trkpt lat="44.344305004924536" lon="8.061867021024227">
        <ele>455.31999999999999</ele>
        <time>2025-05-19T11:10:31Z</time>
      </trkpt>
      <trkpt lat="44.344395026564598" lon="8.061687983572483">
        <ele>455.31999999999999</ele>
        <time>2025-05-19T11:10:32Z</time>
      </trkpt>
      <trkpt lat="44.344488987699151" lon="8.061498971655965">
        <ele>455.31999999999999</ele>
        <time>2025-05-19T11:10:33Z</time>
      </trkpt>
      <trkpt lat="44.345222990959883" lon="8.060067007318139">
        <ele>454.36000000000001</ele>
        <time>2025-05-19T11:10:40Z</time>
      </trkpt>
      <trkpt lat="44.345357017591596" lon="8.05996298789978">
        <ele>453.88</ele>
        <time>2025-05-19T11:10:41Z</time>
      </trkpt>
      <trkpt lat="44.345504958182573" lon="8.059867015108466">
        <ele>453.88</ele>
        <time>2025-05-19T11:10:42Z</time>
      </trkpt>
      <trkpt lat="44.346190011128783" lon="8.059472981840372">
        <ele>453.88</ele>
        <time>2025-05-19T11:10:46Z</time>
      </trkpt>
      <trkpt lat="44.346364019438624" lon="8.059347001835704">
        <ele>453.88</ele>
        <time>2025-05-19T11:10:47Z</time>
      </trkpt>
      <trkpt lat="44.347814004868269" lon="8.057884024456143">
        <ele>451.95999999999998</ele>
        <time>2025-05-19T11:10:56Z</time>
      </trkpt>
      <trkpt lat="44.348269980400801" lon="8.057357976213098">
        <ele>452.44</ele>
        <time>2025-05-19T11:10:59Z</time>
      </trkpt>
      <trkpt lat="44.348395960405469" lon="8.057148009538651">
        <ele>452.92000000000002</ele>
        <time>2025-05-19T11:11:00Z</time>
      </trkpt>
      <trkpt lat="44.348630988970399" lon="8.056754982098937">
        <ele>454.36000000000001</ele>
        <time>2025-05-19T11:11:02Z</time>
      </trkpt>
      <trkpt lat="44.34873903170228" lon="8.056625984609127">
        <ele>454.83999999999997</ele>
        <time>2025-05-19T11:11:03Z</time>
      </trkpt>
      <trkpt lat="44.348900970071554" lon="8.056518025696278">
        <ele>455.31999999999999</ele>
        <time>2025-05-19T11:11:04Z</time>
      </trkpt>
      <trkpt lat="44.349056035280228" lon="8.056451976299286">
        <ele>455.80000000000001</ele>
        <time>2025-05-19T11:11:05Z</time>
      </trkpt>
      <trkpt lat="44.349237000569701" lon="8.056444013491273">
        <ele>456.27999999999997</ele>
        <time>2025-05-19T11:11:06Z</time>
      </trkpt>
      <trkpt lat="44.349432969465852" lon="8.056434961035848">
        <ele>456.75999999999999</ele>
        <time>2025-05-19T11:11:07Z</time>
      </trkpt>
      <trkpt lat="44.349644025787711" lon="8.056424986571074">
        <ele>457.24000000000001</ele>
        <time>2025-05-19T11:11:08Z</time>
      </trkpt>
      <trkpt lat="44.349874025210738" lon="8.056415012106299">
        <ele>458.20999999999998</ele>
        <time>2025-05-19T11:11:09Z</time>
      </trkpt>
      <trkpt lat="44.351722989231348" lon="8.055999018251896">
        <ele>462.05000000000001</ele>
        <time>2025-05-19T11:11:16Z</time>
      </trkpt>
      <trkpt lat="44.353405991569161" lon="8.055539019405842">
        <ele>466.38</ele>
        <time>2025-05-19T11:11:23Z</time>
      </trkpt>
      <trkpt lat="44.353577988222241" lon="8.055473975837231">
        <ele>467.33999999999997</ele>
        <time>2025-05-19T11:11:24Z</time>
      </trkpt>
      <trkpt lat="44.353713020682335" lon="8.055370040237904">
        <ele>467.81999999999999</ele>
        <time>2025-05-19T11:11:25Z</time>
      </trkpt>
      <trkpt lat="44.353828020393848" lon="8.055225033313036">
        <ele>468.30000000000001</ele>
        <time>2025-05-19T11:11:26Z</time>
      </trkpt>
      <trkpt lat="44.353944025933743" lon="8.055080026388168">
        <ele>469.25999999999999</ele>
        <time>2025-05-19T11:11:27Z</time>
      </trkpt>
      <trkpt lat="44.354055002331734" lon="8.054938958957791">
        <ele>469.74000000000001</ele>
        <time>2025-05-19T11:11:28Z</time>
      </trkpt>
      <trkpt lat="44.354162961244583" lon="8.054803004488349">
        <ele>470.69999999999999</ele>
        <time>2025-05-19T11:11:29Z</time>
      </trkpt>
      <trkpt lat="44.354290030896664" lon="8.054688004776835">
        <ele>471.18000000000001</ele>
        <time>2025-05-19T11:11:30Z</time>
      </trkpt>
      <trkpt lat="44.354585995897651" lon="8.054542997851968">
        <ele>473.58999999999997</ele>
        <time>2025-05-19T11:11:33Z</time>
      </trkpt>
      <trkpt lat="44.354789005592465" lon="8.054443001747131">
        <ele>476.47000000000003</ele>
        <time>2025-05-19T11:11:38Z</time>
      </trkpt>
      <trkpt lat="44.35479898005724" lon="8.054437972605228">
        <ele>476.47000000000003</ele>
        <time>2025-05-19T11:11:39Z</time>
      </trkpt>
      <trkpt lat="44.35479898005724" lon="8.054437972605228">
        <ele>476.47000000000003</ele>
        <time>2025-05-19T11:11:53Z</time>
      </trkpt>
      <trkpt lat="44.354801997542381" lon="8.054436966776848">
        <ele>476.47000000000003</ele>
        <time>2025-05-19T11:12:01Z</time>
      </trkpt>
      <trkpt lat="44.354834016412497" lon="8.054421041160822">
        <ele>476.47000000000003</ele>
        <time>2025-05-19T11:12:02Z</time>
      </trkpt>
      <trkpt lat="44.355413038283587" lon="8.054136978462338">
        <ele>476.94999999999999</ele>
        <time>2025-05-19T11:12:08Z</time>
      </trkpt>
      <trkpt lat="44.356100019067526" lon="8.053673040121794">
        <ele>475.99000000000001</ele>
        <time>2025-05-19T11:12:13Z</time>
      </trkpt>
      <trkpt lat="44.356330018490553" lon="8.053456032648683">
        <ele>475.50999999999999</ele>
        <time>2025-05-19T11:12:15Z</time>
      </trkpt>
      <trkpt lat="44.356449041515589" lon="8.053330974653363">
        <ele>475.02999999999997</ele>
        <time>2025-05-19T11:12:16Z</time>
      </trkpt>
      <trkpt lat="44.356564963236451" lon="8.053198959678412">
        <ele>475.02999999999997</ele>
        <time>2025-05-19T11:12:17Z</time>
      </trkpt>
      <trkpt lat="44.356678035110235" lon="8.053071973845363">
        <ele>475.02999999999997</ele>
        <time>2025-05-19T11:12:18Z</time>
      </trkpt>
      <trkpt lat="44.356793034821749" lon="8.052977006882429">
        <ele>475.02999999999997</ele>
        <time>2025-05-19T11:12:19Z</time>
      </trkpt>
      <trkpt lat="44.356938041746616" lon="8.052910035476089">
        <ele>475.02999999999997</ele>
        <time>2025-05-19T11:12:20Z</time>
      </trkpt>
      <trkpt lat="44.3570770137012" lon="8.052870975807309">
        <ele>475.02999999999997</ele>
        <time>2025-05-19T11:12:21Z</time>
      </trkpt>
      <trkpt lat="44.357220008969307" lon="8.052895031869412">
        <ele>474.55000000000001</ele>
        <time>2025-05-19T11:12:22Z</time>
      </trkpt>
      <trkpt lat="44.357383036985993" lon="8.052977006882429">
        <ele>473.58999999999997</ele>
        <time>2025-05-19T11:12:23Z</time>
      </trkpt>
      <trkpt lat="44.357523014768958" lon="8.053114973008633">
        <ele>472.63</ele>
        <time>2025-05-19T11:12:24Z</time>
      </trkpt>
      <trkpt lat="44.357672967016697" lon="8.053297027945519">
        <ele>471.66000000000003</ele>
        <time>2025-05-19T11:12:25Z</time>
      </trkpt>
      <trkpt lat="44.35911700129509" lon="8.05491297505796">
        <ele>457.24000000000001</ele>
        <time>2025-05-19T11:12:33Z</time>
      </trkpt>
      <trkpt lat="44.360337993130088" lon="8.055990971624851">
        <ele>449.55000000000001</ele>
        <time>2025-05-19T11:12:39Z</time>
      </trkpt>
      <trkpt lat="44.360997984185815" lon="8.056536968797445">
        <ele>447.14999999999998</ele>
        <time>2025-05-19T11:12:43Z</time>
      </trkpt>
      <trkpt lat="44.361142991110682" lon="8.056660015136004">
        <ele>447.14999999999998</ele>
        <time>2025-05-19T11:12:44Z</time>
      </trkpt>
      <trkpt lat="44.361554961651564" lon="8.057009959593415">
        <ele>445.70999999999998</ele>
        <time>2025-05-19T11:12:47Z</time>
      </trkpt>
      <trkpt lat="44.36169502325356" lon="8.057127976790071">
        <ele>446.19</ele>
        <time>2025-05-19T11:12:48Z</time>
      </trkpt>
      <trkpt lat="44.361825026571751" lon="8.057238031178713">
        <ele>446.19</ele>
        <time>2025-05-19T11:12:49Z</time>
      </trkpt>
      <trkpt lat="44.362063994631171" lon="8.057441040873528">
        <ele>446.19</ele>
        <time>2025-05-19T11:12:51Z</time>
      </trkpt>
      <trkpt lat="44.362180000171065" lon="8.057539025321603">
        <ele>446.19</ele>
        <time>2025-05-19T11:12:52Z</time>
      </trkpt>
      <trkpt lat="44.362764973193407" lon="8.058033976703882">
        <ele>445.23000000000002</ele>
        <time>2025-05-19T11:12:59Z</time>
      </trkpt>
      <trkpt lat="44.362819036468863" lon="8.058079993352294">
        <ele>445.23000000000002</ele>
        <time>2025-05-19T11:13:00Z</time>
      </trkpt>
      <trkpt lat="44.362901011481881" lon="8.058149982243776">
        <ele>445.23000000000002</ele>
        <time>2025-05-19T11:13:01Z</time>
      </trkpt>
      <trkpt lat="44.362901011481881" lon="8.058149982243776">
        <ele>445.23000000000002</ele>
        <time>2025-05-19T11:13:02Z</time>
      </trkpt>
      <trkpt lat="44.362937975674868" lon="8.058165991678834">
        <ele>445.23000000000002</ele>
        <time>2025-05-19T11:13:03Z</time>
      </trkpt>
      <trkpt lat="44.362937975674868" lon="8.058165991678834">
        <ele>445.23000000000002</ele>
        <time>2025-05-19T11:13:11Z</time>
      </trkpt>
      <trkpt lat="44.362937975674868" lon="8.058165991678834">
        <ele>445.70999999999998</ele>
        <time>2025-05-19T11:13:58Z</time>
      </trkpt>
      <trkpt lat="44.362937975674868" lon="8.058165991678834">
        <ele>445.70999999999998</ele>
        <time>2025-05-19T11:14:37Z</time>
      </trkpt>
      <trkpt lat="44.363243998959661" lon="8.058300018310547">
        <ele>445.23000000000002</ele>
        <time>2025-05-19T11:14:49Z</time>
      </trkpt>
      <trkpt lat="44.363245004788041" lon="8.058300018310547">
        <ele>444.75</ele>
        <time>2025-05-19T11:14:51Z</time>
      </trkpt>
      <trkpt lat="44.363335026428103" lon="8.058289038017392">
        <ele>444.75</ele>
        <time>2025-05-19T11:14:52Z</time>
      </trkpt>
      <trkpt lat="44.36358698643744" lon="8.058257019147277">
        <ele>443.79000000000002</ele>
        <time>2025-05-19T11:14:54Z</time>
      </trkpt>
      <trkpt lat="44.364148993045092" lon="8.05805099196732">
        <ele>443.31</ele>
        <time>2025-05-19T11:14:58Z</time>
      </trkpt>
      <trkpt lat="44.364484017714858" lon="8.057889975607395">
        <ele>443.79000000000002</ele>
        <time>2025-05-19T11:15:00Z</time>
      </trkpt>
      <trkpt lat="44.365120036527514" lon="8.057463001459837">
        <ele>443.79000000000002</ele>
        <time>2025-05-19T11:15:04Z</time>
      </trkpt>
      <trkpt lat="44.365236964076757" lon="8.057295028120279">
        <ele>444.26999999999998</ele>
        <time>2025-05-19T11:15:05Z</time>
      </trkpt>
      <trkpt lat="44.365353975445032" lon="8.057127976790071">
        <ele>444.75</ele>
        <time>2025-05-19T11:15:06Z</time>
      </trkpt>
      <trkpt lat="44.365437962114811" lon="8.056926978752017">
        <ele>445.70999999999998</ele>
        <time>2025-05-19T11:15:07Z</time>
      </trkpt>
      <trkpt lat="44.365508034825325" lon="8.056706031784415">
        <ele>446.19</ele>
        <time>2025-05-19T11:15:08Z</time>
      </trkpt>
      <trkpt lat="44.366117985919118" lon="8.054689010605216">
        <ele>449.06999999999999</ele>
        <time>2025-05-19T11:15:16Z</time>
      </trkpt>
      <trkpt lat="44.366503972560167" lon="8.052896959707141">
        <ele>449.55000000000001</ele>
        <time>2025-05-19T11:15:22Z</time>
      </trkpt>
      <trkpt lat="44.366656020283699" lon="8.051380002871156">
        <ele>450.02999999999997</ele>
        <time>2025-05-19T11:15:27Z</time>
      </trkpt>
      <trkpt lat="44.366656020283699" lon="8.051069034263492">
        <ele>450.02999999999997</ele>
        <time>2025-05-19T11:15:28Z</time>
      </trkpt>
      <trkpt lat="44.366600029170513" lon="8.049504971131682">
        <ele>449.55000000000001</ele>
        <time>2025-05-19T11:15:33Z</time>
      </trkpt>
      <trkpt lat="44.366697007790208" lon="8.047549976035953">
        <ele>449.55000000000001</ele>
        <time>2025-05-19T11:15:39Z</time>
      </trkpt>
      <trkpt lat="44.366692984476686" lon="8.047218974679709">
        <ele>449.55000000000001</ele>
        <time>2025-05-19T11:15:40Z</time>
      </trkpt>
      <trkpt lat="44.366533979773521" lon="8.044800963252783">
        <ele>452.92000000000002</ele>
        <time>2025-05-19T11:15:48Z</time>
      </trkpt>
      <trkpt lat="44.366556024178863" lon="8.044582027941942">
        <ele>452.92000000000002</ele>
        <time>2025-05-19T11:15:49Z</time>
      </trkpt>
      <trkpt lat="44.366596005856991" lon="8.044360997155309">
        <ele>453.39999999999998</ele>
        <time>2025-05-19T11:15:50Z</time>
      </trkpt>
      <trkpt lat="44.366675969213247" lon="8.04417097941041">
        <ele>453.39999999999998</ele>
        <time>2025-05-19T11:15:51Z</time>
      </trkpt>
      <trkpt lat="44.366801027208567" lon="8.043984984979034">
        <ele>452.92000000000002</ele>
        <time>2025-05-19T11:15:52Z</time>
      </trkpt>
      <trkpt lat="44.366929018869996" lon="8.043807959184051">
        <ele>452.92000000000002</ele>
        <time>2025-05-19T11:15:53Z</time>
      </trkpt>
      <trkpt lat="44.367113001644611" lon="8.043705029413104">
        <ele>452.92000000000002</ele>
        <time>2025-05-19T11:15:54Z</time>
      </trkpt>
      <trkpt lat="44.367310982197523" lon="8.043594975024462">
        <ele>453.39999999999998</ele>
        <time>2025-05-19T11:15:55Z</time>
      </trkpt>
      <trkpt lat="44.367522960528731" lon="8.043477963656187">
        <ele>453.88</ele>
        <time>2025-05-19T11:15:56Z</time>
      </trkpt>
      <trkpt lat="44.367734016850591" lon="8.043343015015125">
        <ele>454.36000000000001</ele>
        <time>2025-05-19T11:15:57Z</time>
      </trkpt>
      <trkpt lat="44.367922022938728" lon="8.043172024190426">
        <ele>454.83999999999997</ele>
        <time>2025-05-19T11:15:58Z</time>
      </trkpt>
      <trkpt lat="44.368112040683627" lon="8.042969014495611">
        <ele>455.31999999999999</ele>
        <time>2025-05-19T11:15:59Z</time>
      </trkpt>
      <trkpt lat="44.368481012061238" lon="8.042572969570756">
        <ele>455.80000000000001</ele>
        <time>2025-05-19T11:16:01Z</time>
      </trkpt>
      <trkpt lat="44.368641022592783" lon="8.042336013168097">
        <ele>456.27999999999997</ele>
        <time>2025-05-19T11:16:02Z</time>
      </trkpt>
      <trkpt lat="44.369674008339643" lon="8.040684023872018">
        <ele>456.75999999999999</ele>
        <time>2025-05-19T11:16:09Z</time>
      </trkpt>
      <trkpt lat="44.369815997779369" lon="8.040479002520442">
        <ele>457.24000000000001</ele>
        <time>2025-05-19T11:16:10Z</time>
      </trkpt>
      <trkpt lat="44.369963016360998" lon="8.040267024189234">
        <ele>457.72000000000003</ele>
        <time>2025-05-19T11:16:11Z</time>
      </trkpt>
      <trkpt lat="44.370408011600375" lon="8.03972102701664">
        <ele>457.72000000000003</ele>
        <time>2025-05-19T11:16:14Z</time>
      </trkpt>
      <trkpt lat="44.370558969676495" lon="8.039621030911803">
        <ele>457.24000000000001</ele>
        <time>2025-05-19T11:16:15Z</time>
      </trkpt>
      <trkpt lat="44.370730966329575" lon="8.039554981514812">
        <ele>457.24000000000001</ele>
        <time>2025-05-19T11:16:16Z</time>
      </trkpt>
      <trkpt lat="44.37091201543808" lon="8.039562022313476">
        <ele>456.75999999999999</ele>
        <time>2025-05-19T11:16:17Z</time>
      </trkpt>
      <trkpt lat="44.37112701125443" lon="8.039582977071405">
        <ele>456.27999999999997</ele>
        <time>2025-05-19T11:16:18Z</time>
      </trkpt>
      <trkpt lat="44.371345024555922" lon="8.039624970406294">
        <ele>454.83999999999997</ele>
        <time>2025-05-19T11:16:19Z</time>
      </trkpt>
      <trkpt lat="44.373401021584868" lon="8.040136015042663">
        <ele>448.11000000000001</ele>
        <time>2025-05-19T11:16:29Z</time>
      </trkpt>
      <trkpt lat="44.374569961801171" lon="8.040428962558508">
        <ele>443.31</ele>
        <time>2025-05-19T11:16:37Z</time>
      </trkpt>
      <trkpt lat="44.37478001229465" lon="8.040471039712429">
        <ele>442.81999999999999</ele>
        <time>2025-05-19T11:16:42Z</time>
      </trkpt>
      <trkpt lat="44.374813036993146" lon="8.040477996692061">
        <ele>442.81999999999999</ele>
        <time>2025-05-19T11:16:43Z</time>
      </trkpt>
      <trkpt lat="44.374873973429203" lon="8.040489982813597">
        <ele>442.81999999999999</ele>
        <time>2025-05-19T11:16:44Z</time>
      </trkpt>
      <trkpt lat="44.374903980642557" lon="8.040429968386889">
        <ele>442.81999999999999</ele>
        <time>2025-05-19T11:16:45Z</time>
      </trkpt>
      <trkpt lat="44.374951003119349" lon="8.040336007252336">
        <ele>442.33999999999997</ele>
        <time>2025-05-19T11:16:46Z</time>
      </trkpt>
      <trkpt lat="44.374968018382788" lon="8.040224025025964">
        <ele>441.86000000000001</ele>
        <time>2025-05-19T11:16:47Z</time>
      </trkpt>
      <trkpt lat="44.374978998675942" lon="8.040091004222632">
        <ele>441.38</ele>
        <time>2025-05-19T11:16:48Z</time>
      </trkpt>
      <trkpt lat="44.374928958714008" lon="8.039977010339499">
        <ele>440.89999999999998</ele>
        <time>2025-05-19T11:16:49Z</time>
      </trkpt>
      <trkpt lat="44.374861987307668" lon="8.039867961779237">
        <ele>440.42000000000002</ele>
        <time>2025-05-19T11:16:50Z</time>
      </trkpt>
      <trkpt lat="44.374795015901327" lon="8.039758997038007">
        <ele>439.45999999999998</ele>
        <time>2025-05-19T11:16:51Z</time>
      </trkpt>
      <trkpt lat="44.374730978161097" lon="8.039656989276409">
        <ele>439.45999999999998</ele>
        <time>2025-05-19T11:16:52Z</time>
      </trkpt>
      <trkpt lat="44.374682027846575" lon="8.03959303535521">
        <ele>438.98000000000002</ele>
        <time>2025-05-19T11:16:53Z</time>
      </trkpt>
      <trkpt lat="44.374613966792822" lon="8.039533020928502">
        <ele>438.98000000000002</ele>
        <time>2025-05-19T11:16:54Z</time>
      </trkpt>
      <trkpt lat="44.374553030356765" lon="8.039479963481426">
        <ele>438.98000000000002</ele>
        <time>2025-05-19T11:16:55Z</time>
      </trkpt>
      <trkpt lat="44.374502990394831" lon="8.03944299928844">
        <ele>438.5</ele>
        <time>2025-05-19T11:16:56Z</time>
      </trkpt>
      <trkpt lat="44.374123960733414" lon="8.039206964895129">
        <ele>436.10000000000002</ele>
        <time>2025-05-19T11:17:04Z</time>
      </trkpt>
      <trkpt lat="44.37409101985395" lon="8.039188021793962">
        <ele>436.10000000000002</ele>
        <time>2025-05-19T11:17:05Z</time>
      </trkpt>
      <trkpt lat="44.374064030125737" lon="8.039172012358904">
        <ele>436.10000000000002</ele>
        <time>2025-05-19T11:17:06Z</time>
      </trkpt>
      <trkpt lat="44.374034022912383" lon="8.039154997095466">
        <ele>436.10000000000002</ele>
        <time>2025-05-19T11:17:07Z</time>
      </trkpt>
      <trkpt lat="44.374008039012551" lon="8.039139993488789">
        <ele>435.61000000000001</ele>
        <time>2025-05-19T11:17:08Z</time>
      </trkpt>
      <trkpt lat="44.373990017920732" lon="8.039130019024015">
        <ele>435.61000000000001</ele>
        <time>2025-05-19T11:17:09Z</time>
      </trkpt>
      <trkpt lat="44.373990017920732" lon="8.039130019024015">
        <ele>435.13</ele>
        <time>2025-05-19T11:17:23Z</time>
      </trkpt>
      <trkpt lat="44.37394198961556" lon="8.039102023467422">
        <ele>434.64999999999998</ele>
        <time>2025-05-19T11:17:38Z</time>
      </trkpt>
      <trkpt lat="44.373879041522741" lon="8.039063969627023">
        <ele>433.69</ele>
        <time>2025-05-19T11:17:39Z</time>
      </trkpt>
      <trkpt lat="44.37340303324163" lon="8.038579998537898">
        <ele>430.32999999999998</ele>
        <time>2025-05-19T11:17:45Z</time>
      </trkpt>
      <trkpt lat="44.373220978304744" lon="8.038366008549929">
        <ele>429.85000000000002</ele>
        <time>2025-05-19T11:17:47Z</time>
      </trkpt>
      <trkpt lat="44.373110001906753" lon="8.038295013830066">
        <ele>430.32999999999998</ele>
        <time>2025-05-19T11:17:48Z</time>
      </trkpt>
      <trkpt lat="44.372970024123788" lon="8.038214966654778">
        <ele>430.32999999999998</ele>
        <time>2025-05-19T11:17:49Z</time>
      </trkpt>
      <trkpt lat="44.372842032462358" lon="8.038207003846765">
        <ele>430.32999999999998</ele>
        <time>2025-05-19T11:17:50Z</time>
      </trkpt>
      <trkpt lat="44.37271798029542" lon="8.038199041038752">
        <ele>430.81</ele>
        <time>2025-05-19T11:17:51Z</time>
      </trkpt>
      <trkpt lat="44.372582025825977" lon="8.038212032988668">
        <ele>431.29000000000002</ele>
        <time>2025-05-19T11:17:52Z</time>
      </trkpt>
      <trkpt lat="44.3724599853158" lon="8.038246985524893">
        <ele>431.76999999999998</ele>
        <time>2025-05-19T11:17:53Z</time>
      </trkpt>
      <trkpt lat="44.372339034453034" lon="8.03828302770853">
        <ele>431.76999999999998</ele>
        <time>2025-05-19T11:17:54Z</time>
      </trkpt>
      <trkpt lat="44.372221017256379" lon="8.038316974416375">
        <ele>431.76999999999998</ele>
        <time>2025-05-19T11:17:55Z</time>
      </trkpt>
      <trkpt lat="44.372118003666401" lon="8.038339018821716">
        <ele>431.76999999999998</ele>
        <time>2025-05-19T11:17:56Z</time>
      </trkpt>
      <trkpt lat="44.37200803309679" lon="8.038277998566628">
        <ele>431.29000000000002</ele>
        <time>2025-05-19T11:17:57Z</time>
      </trkpt>
      <trkpt lat="44.371905019506812" lon="8.038204992190003">
        <ele>430.81</ele>
        <time>2025-05-19T11:17:58Z</time>
      </trkpt>
      <trkpt lat="44.371803011745214" lon="8.038094015792012">
        <ele>430.81</ele>
        <time>2025-05-19T11:17:59Z</time>
      </trkpt>
      <trkpt lat="44.371693041175604" lon="8.037972981110215">
        <ele>430.81</ele>
        <time>2025-05-19T11:18:00Z</time>
      </trkpt>
      <trkpt lat="44.370782012119889" lon="8.036547973752022">
        <ele>431.76999999999998</ele>
        <time>2025-05-19T11:18:08Z</time>
      </trkpt>
      <trkpt lat="44.370035016909242" lon="8.034815015271306">
        <ele>432.73000000000002</ele>
        <time>2025-05-19T11:18:15Z</time>
      </trkpt>
      <trkpt lat="44.36973100528121" lon="8.032620968297124">
        <ele>432.73000000000002</ele>
        <time>2025-05-19T11:18:22Z</time>
      </trkpt>
      <trkpt lat="44.369990006089211" lon="8.030620040372014">
        <ele>432.73000000000002</ele>
        <time>2025-05-19T11:18:28Z</time>
      </trkpt>
      <trkpt lat="44.370745969936252" lon="8.028718018904328">
        <ele>431.76999999999998</ele>
        <time>2025-05-19T11:18:34Z</time>
      </trkpt>
      <trkpt lat="44.37284798361361" lon="8.025163002312183">
        <ele>426</ele>
        <time>2025-05-19T11:18:46Z</time>
      </trkpt>
      <trkpt lat="44.374696025624871" lon="8.022036971524358">
        <ele>425.04000000000002</ele>
        <time>2025-05-19T11:18:57Z</time>
      </trkpt>
      <trkpt lat="44.375386023893952" lon="8.020941959694028">
        <ele>423.60000000000002</ele>
        <time>2025-05-19T11:19:01Z</time>
      </trkpt>
      <trkpt lat="44.377305982634425" lon="8.018693011254072">
        <ele>419.26999999999998</ele>
        <time>2025-05-19T11:19:10Z</time>
      </trkpt>
      <trkpt lat="44.380304021760821" lon="8.015628000721335">
        <ele>418.31</ele>
        <time>2025-05-19T11:19:23Z</time>
      </trkpt>
      <trkpt lat="44.382949015125632" lon="8.012862978503108">
        <ele>421.68000000000001</ele>
        <time>2025-05-19T11:19:35Z</time>
      </trkpt>
      <trkpt lat="44.385125041007996" lon="8.010588968172669">
        <ele>429.37</ele>
        <time>2025-05-19T11:19:45Z</time>
      </trkpt>
      <trkpt lat="44.387171985581517" lon="8.008385030552745">
        <ele>437.06</ele>
        <time>2025-05-19T11:19:55Z</time>
      </trkpt>
      <trkpt lat="44.388113021850586" lon="8.006637990474701">
        <ele>438.98000000000002</ele>
        <time>2025-05-19T11:20:01Z</time>
      </trkpt>
      <trkpt lat="44.389294032007456" lon="8.003124967217445">
        <ele>435.13</ele>
        <time>2025-05-19T11:20:11Z</time>
      </trkpt>
      <trkpt lat="44.390598004683852" lon="7.999231992289424">
        <ele>428.88999999999999</ele>
        <time>2025-05-19T11:20:22Z</time>
      </trkpt>
      <trkpt lat="44.39179502427578" lon="7.995603969320655">
        <ele>426</ele>
        <time>2025-05-19T11:20:33Z</time>
      </trkpt>
      <trkpt lat="44.393144007772207" lon="7.991478983312845">
        <ele>423.12</ele>
        <time>2025-05-19T11:20:45Z</time>
      </trkpt>
      <trkpt lat="44.394419984892011" lon="7.987646022811532">
        <ele>424.07999999999998</ele>
        <time>2025-05-19T11:20:56Z</time>
      </trkpt>
      <trkpt lat="44.395777015015483" lon="7.983524976298213">
        <ele>427.44</ele>
        <time>2025-05-19T11:21:08Z</time>
      </trkpt>
      <trkpt lat="44.397446019575" lon="7.978460965678096">
        <ele>432.25</ele>
        <time>2025-05-19T11:21:23Z</time>
      </trkpt>
      <trkpt lat="44.398244982585311" lon="7.976999999955297">
        <ele>433.69</ele>
        <time>2025-05-19T11:21:28Z</time>
      </trkpt>
      <trkpt lat="44.39886499196291" lon="7.976301033049822">
        <ele>433.69</ele>
        <time>2025-05-19T11:21:31Z</time>
      </trkpt>
      <trkpt lat="44.400950996205211" lon="7.974562039598823">
        <ele>430.81</ele>
        <time>2025-05-19T11:21:40Z</time>
      </trkpt>
      <trkpt lat="44.403207991272211" lon="7.972741993144155">
        <ele>422.16000000000003</ele>
        <time>2025-05-19T11:21:50Z</time>
      </trkpt>
      <trkpt lat="44.40679301507771" lon="7.969870017841458">
        <ele>408.69999999999999</ele>
        <time>2025-05-19T11:22:05Z</time>
      </trkpt>
      <trkpt lat="44.409330971539021" lon="7.967546973377466">
        <ele>401.49000000000001</ele>
        <time>2025-05-19T11:22:16Z</time>
      </trkpt>
      <trkpt lat="44.410589011386037" lon="7.965459963306785">
        <ele>397.16000000000003</ele>
        <time>2025-05-19T11:22:23Z</time>
      </trkpt>
      <trkpt lat="44.411418987438083" lon="7.962981015443802">
        <ele>391.38999999999999</ele>
        <time>2025-05-19T11:22:30Z</time>
      </trkpt>
      <trkpt lat="44.411738002672791" lon="7.960381032899022">
        <ele>386.58999999999997</ele>
        <time>2025-05-19T11:22:37Z</time>
      </trkpt>
      <trkpt lat="44.41154102794826" lon="7.957797981798649">
        <ele>385.14999999999998</ele>
        <time>2025-05-19T11:22:44Z</time>
      </trkpt>
      <trkpt lat="44.41085496917367" lon="7.95509397983551">
        <ele>387.06999999999999</ele>
        <time>2025-05-19T11:22:52Z</time>
      </trkpt>
      <trkpt lat="44.409733973443508" lon="7.951429998502135">
        <ele>389.94999999999999</ele>
        <time>2025-05-19T11:23:03Z</time>
      </trkpt>
      <trkpt lat="44.408580958843231" lon="7.947666021063924">
        <ele>399.56999999999999</ele>
        <time>2025-05-19T11:23:16Z</time>
      </trkpt>
      <trkpt lat="44.407543027773499" lon="7.944235978648067">
        <ele>409.66000000000003</ele>
        <time>2025-05-19T11:23:28Z</time>
      </trkpt>
      <trkpt lat="44.406714979559183" lon="7.941552009433508">
        <ele>416.87</ele>
        <time>2025-05-19T11:23:38Z</time>
      </trkpt>
      <trkpt lat="44.405802022665739" lon="7.938564028590918">
        <ele>424.07999999999998</ele>
        <time>2025-05-19T11:23:48Z</time>
      </trkpt>
      <trkpt lat="44.40458295866847" lon="7.934559993445873">
        <ele>430.81</ele>
        <time>2025-05-19T11:24:02Z</time>
      </trkpt>
      <trkpt lat="44.403662038967013" lon="7.930973963811994">
        <ele>431.76999999999998</ele>
        <time>2025-05-19T11:24:14Z</time>
      </trkpt>
      <trkpt lat="44.403518037870526" lon="7.928155967965722">
        <ele>430.32999999999998</ele>
        <time>2025-05-19T11:24:22Z</time>
      </trkpt>
      <trkpt lat="44.403887009248137" lon="7.925364961847663">
        <ele>426.48000000000002</ele>
        <time>2025-05-19T11:24:30Z</time>
      </trkpt>
      <trkpt lat="44.404632998630404" lon="7.92303797788918">
        <ele>425.04000000000002</ele>
        <time>2025-05-19T11:24:37Z</time>
      </trkpt>
      <trkpt lat="44.406014000996947" lon="7.920356020331383">
        <ele>423.12</ele>
        <time>2025-05-19T11:24:46Z</time>
      </trkpt>
      <trkpt lat="44.408288011327386" lon="7.916300017386675">
        <ele>420.70999999999998</ele>
        <time>2025-05-19T11:25:00Z</time>
      </trkpt>
      <trkpt lat="44.410762013867497" lon="7.912005968391895">
        <ele>421.19</ele>
        <time>2025-05-19T11:25:15Z</time>
      </trkpt>
      <trkpt lat="44.411658961325884" lon="7.910484988242388">
        <ele>420.70999999999998</ele>
        <time>2025-05-19T11:25:22Z</time>
      </trkpt>
      <trkpt lat="44.412411991506815" lon="7.909193001687527">
        <ele>421.19</ele>
        <time>2025-05-19T11:25:30Z</time>
      </trkpt>
      <trkpt lat="44.413351016119123" lon="7.907321993261576">
        <ele>421.68000000000001</ele>
        <time>2025-05-19T11:25:40Z</time>
      </trkpt>
      <trkpt lat="44.413782013580203" lon="7.905303966253996">
        <ele>421.68000000000001</ele>
        <time>2025-05-19T11:25:48Z</time>
      </trkpt>
      <trkpt lat="44.414046965539455" lon="7.902222024276853">
        <ele>421.68000000000001</ele>
        <time>2025-05-19T11:26:00Z</time>
      </trkpt>
      <trkpt lat="44.414583994075656" lon="7.900595013052225">
        <ele>420.70999999999998</ele>
        <time>2025-05-19T11:26:07Z</time>
      </trkpt>
      <trkpt lat="44.415603987872601" lon="7.898175995796919">
        <ele>418.79000000000002</ele>
        <time>2025-05-19T11:26:18Z</time>
      </trkpt>
      <trkpt lat="44.416578970849514" lon="7.89587801322341">
        <ele>419.26999999999998</ele>
        <time>2025-05-19T11:26:29Z</time>
      </trkpt>
      <trkpt lat="44.417456975206733" lon="7.893970962613821">
        <ele>419.26999999999998</ele>
        <time>2025-05-19T11:26:39Z</time>
      </trkpt>
      <trkpt lat="44.418851975351572" lon="7.891856040805578">
        <ele>419.26999999999998</ele>
        <time>2025-05-19T11:26:51Z</time>
      </trkpt>
      <trkpt lat="44.420243036001921" lon="7.890301030129194">
        <ele>420.23000000000002</ele>
        <time>2025-05-19T11:27:02Z</time>
      </trkpt>
      <trkpt lat="44.421824030578136" lon="7.8884909581393">
        <ele>421.68000000000001</ele>
        <time>2025-05-19T11:27:14Z</time>
      </trkpt>
      <trkpt lat="44.422880988568068" lon="7.887003002688289">
        <ele>421.68000000000001</ele>
        <time>2025-05-19T11:27:22Z</time>
      </trkpt>
      <trkpt lat="44.423640975728631" lon="7.885018000379205">
        <ele>420.70999999999998</ele>
        <time>2025-05-19T11:27:29Z</time>
      </trkpt>
      <trkpt lat="44.423784976825118" lon="7.883237013593316">
        <ele>419.75</ele>
        <time>2025-05-19T11:27:34Z</time>
      </trkpt>
      <trkpt lat="44.42342396825552" lon="7.88103399798274">
        <ele>420.70999999999998</ele>
        <time>2025-05-19T11:27:40Z</time>
      </trkpt>
      <trkpt lat="44.422616036608815" lon="7.879063999280334">
        <ele>418.79000000000002</ele>
        <time>2025-05-19T11:27:46Z</time>
      </trkpt>
      <trkpt lat="44.42234898917377" lon="7.878512972965837">
        <ele>417.82999999999998</ele>
        <time>2025-05-19T11:27:48Z</time>
      </trkpt>
      <trkpt lat="44.422212028875947" lon="7.878229999914765">
        <ele>417.35000000000002</ele>
        <time>2025-05-19T11:27:49Z</time>
      </trkpt>
      <trkpt lat="44.418894974514842" lon="7.871332028880715">
        <ele>410.62</ele>
        <time>2025-05-19T11:28:11Z</time>
      </trkpt>
      <trkpt lat="44.417871041223407" lon="7.868642024695873">
        <ele>403.88999999999999</ele>
        <time>2025-05-19T11:28:19Z</time>
      </trkpt>
      <trkpt lat="44.417264023795724" lon="7.864171033725143">
        <ele>391.38999999999999</ele>
        <time>2025-05-19T11:28:31Z</time>
      </trkpt>
      <trkpt lat="44.417617991566658" lon="7.861955026164651">
        <ele>389.47000000000003</ele>
        <time>2025-05-19T11:28:37Z</time>
      </trkpt>
      <trkpt lat="44.418516028672457" lon="7.860045963898301">
        <ele>388.02999999999997</ele>
        <time>2025-05-19T11:28:43Z</time>
      </trkpt>
      <trkpt lat="44.41983399912715" lon="7.858718018978834">
        <ele>385.14999999999998</ele>
        <time>2025-05-19T11:28:49Z</time>
      </trkpt>
      <trkpt lat="44.423017026856542" lon="7.856535958126187">
        <ele>386.58999999999997</ele>
        <time>2025-05-19T11:29:02Z</time>
      </trkpt>
      <trkpt lat="44.426034009084105" lon="7.854740973562002">
        <ele>389.47000000000003</ele>
        <time>2025-05-19T11:29:14Z</time>
      </trkpt>
      <trkpt lat="44.429224999621511" lon="7.852771980687976">
        <ele>390.43000000000001</ele>
        <time>2025-05-19T11:29:27Z</time>
      </trkpt>
      <trkpt lat="44.432905996218324" lon="7.850572988390923">
        <ele>392.83999999999997</ele>
        <time>2025-05-19T11:29:42Z</time>
      </trkpt>
      <trkpt lat="44.433845020830631" lon="7.85017803311348">
        <ele>394.27999999999997</ele>
        <time>2025-05-19T11:29:47Z</time>
      </trkpt>
      <trkpt lat="44.433921966701746" lon="7.850156994536519">
        <ele>394.27999999999997</ele>
        <time>2025-05-19T11:29:48Z</time>
      </trkpt>
      <trkpt lat="44.434419013559818" lon="7.849946022033691">
        <ele>395.72000000000003</ele>
        <time>2025-05-19T11:29:57Z</time>
      </trkpt>
      <trkpt lat="44.434440974146128" lon="7.850023973733187">
        <ele>395.72000000000003</ele>
        <time>2025-05-19T11:29:58Z</time>
      </trkpt>
      <trkpt lat="44.434451032429934" lon="7.850059010088444">
        <ele>395.72000000000003</ele>
        <time>2025-05-19T11:29:59Z</time>
      </trkpt>
      <trkpt lat="44.434461006894708" lon="7.850093962624669">
        <ele>395.24000000000001</ele>
        <time>2025-05-19T11:30:00Z</time>
      </trkpt>
      <trkpt lat="44.434462012723088" lon="7.85009597428143">
        <ele>395.24000000000001</ele>
        <time>2025-05-19T11:30:01Z</time>
      </trkpt>
      <trkpt lat="44.434462012723088" lon="7.85009597428143">
        <ele>395.72000000000003</ele>
        <time>2025-05-19T11:30:02Z</time>
      </trkpt>
      <trkpt lat="44.434462012723088" lon="7.85009597428143">
        <ele>395.24000000000001</ele>
        <time>2025-05-19T11:30:03Z</time>
      </trkpt>
      <trkpt lat="44.434462012723088" lon="7.85009597428143">
        <ele>395.72000000000003</ele>
        <time>2025-05-19T11:30:04Z</time>
      </trkpt>
      <trkpt lat="44.434462012723088" lon="7.85009597428143">
        <ele>395.72000000000003</ele>
        <time>2025-05-19T11:30:05Z</time>
      </trkpt>
      <trkpt lat="44.434462012723088" lon="7.85009597428143">
        <ele>395.72000000000003</ele>
        <time>2025-05-19T11:30:06Z</time>
      </trkpt>
      <trkpt lat="44.434462012723088" lon="7.85009597428143">
        <ele>395.24000000000001</ele>
        <time>2025-05-19T11:30:07Z</time>
      </trkpt>
      <trkpt lat="44.434462012723088" lon="7.85009597428143">
        <ele>395.24000000000001</ele>
        <time>2025-05-19T11:30:08Z</time>
      </trkpt>
      <trkpt lat="44.434462012723088" lon="7.85009597428143">
        <ele>395.24000000000001</ele>
        <time>2025-05-19T11:30:24Z</time>
      </trkpt>
      <trkpt lat="44.434470981359482" lon="7.850429993122816">
        <ele>384.66000000000003</ele>
        <time>2025-05-19T12:04:44Z</time>
      </trkpt>
      <trkpt lat="44.434490008279681" lon="7.850412977859378">
        <ele>395.24000000000001</ele>
        <time>2025-05-19T12:05:28Z</time>
      </trkpt>
      <trkpt lat="44.434507023543119" lon="7.850407026708126">
        <ele>396.19999999999999</ele>
        <time>2025-05-19T12:06:17Z</time>
      </trkpt>
      <trkpt lat="44.434504006057978" lon="7.850420018658042">
        <ele>396.19999999999999</ele>
        <time>2025-05-19T12:07:05Z</time>
      </trkpt>
      <trkpt lat="44.434500988572836" lon="7.850420018658042">
        <ele>396.19999999999999</ele>
        <time>2025-05-19T12:07:47Z</time>
      </trkpt>
      <trkpt lat="44.434494031593204" lon="7.8504170011729">
        <ele>396.19999999999999</ele>
        <time>2025-05-19T12:08:13Z</time>
      </trkpt>
      <trkpt lat="44.434494031593204" lon="7.850409038364887">
        <ele>396.68000000000001</ele>
        <time>2025-05-19T12:09:07Z</time>
      </trkpt>
      <trkpt lat="44.434493025764823" lon="7.85039596259594">
        <ele>397.63999999999999</ele>
        <time>2025-05-19T12:09:53Z</time>
      </trkpt>
      <trkpt lat="44.434494031593204" lon="7.850390011444688">
        <ele>397.63999999999999</ele>
        <time>2025-05-19T12:10:37Z</time>
      </trkpt>
      <trkpt lat="44.434495037421584" lon="7.850387999787927">
        <ele>397.16000000000003</ele>
        <time>2025-05-19T12:11:21Z</time>
      </trkpt>
      <trkpt lat="44.434495037421584" lon="7.850387999787927">
        <ele>397.16000000000003</ele>
        <time>2025-05-19T12:11:31Z</time>
      </trkpt>
      <trkpt lat="44.434482967481017" lon="7.850084993988276">
        <ele>397.63999999999999</ele>
        <time>2025-05-19T12:11:34Z</time>
      </trkpt>
      <trkpt lat="44.434654964134097" lon="7.849989021196961">
        <ele>396.68000000000001</ele>
        <time>2025-05-19T12:11:36Z</time>
      </trkpt>
      <trkpt lat="44.434654964134097" lon="7.849989021196961">
        <ele>396.68000000000001</ele>
        <time>2025-05-19T12:11:37Z</time>
      </trkpt>
      <trkpt lat="44.434654964134097" lon="7.849989021196961">
        <ele>396.19999999999999</ele>
        <time>2025-05-19T12:11:38Z</time>
      </trkpt>
      <trkpt lat="44.434654964134097" lon="7.849989021196961">
        <ele>396.19999999999999</ele>
        <time>2025-05-19T12:11:39Z</time>
      </trkpt>
      <trkpt lat="44.434602996334434" lon="7.849826999008656">
        <ele>396.19999999999999</ele>
        <time>2025-05-19T12:11:40Z</time>
      </trkpt>
      <trkpt lat="44.434644989669323" lon="7.849799003452063">
        <ele>396.19999999999999</ele>
        <time>2025-05-19T12:11:41Z</time>
      </trkpt>
      <trkpt lat="44.434698969125748" lon="7.849763967096806">
        <ele>395.72000000000003</ele>
        <time>2025-05-19T12:11:42Z</time>
      </trkpt>
      <trkpt lat="44.434912037104368" lon="7.849603034555912">
        <ele>395.72000000000003</ele>
        <time>2025-05-19T12:11:45Z</time>
      </trkpt>
      <trkpt lat="44.435722986236215" lon="7.848860984668136">
        <ele>397.16000000000003</ele>
        <time>2025-05-19T12:11:52Z</time>
      </trkpt>
      <trkpt lat="44.436440980061889" lon="7.848452031612396">
        <ele>398.12</ele>
        <time>2025-05-19T12:11:56Z</time>
      </trkpt>
      <trkpt lat="44.438575012609363" lon="7.847174964845181">
        <ele>398.60000000000002</ele>
        <time>2025-05-19T12:12:06Z</time>
      </trkpt>
      <trkpt lat="44.440636038780212" lon="7.845933018252254">
        <ele>396.68000000000001</ele>
        <time>2025-05-19T12:12:14Z</time>
      </trkpt>
      <trkpt lat="44.444228019565344" lon="7.843768978491426">
        <ele>396.19999999999999</ele>
        <time>2025-05-19T12:12:27Z</time>
      </trkpt>
      <trkpt lat="44.447498973459005" lon="7.84180199727416">
        <ele>393.31999999999999</ele>
        <time>2025-05-19T12:12:40Z</time>
      </trkpt>
      <trkpt lat="44.449813971295953" lon="7.840416971594095">
        <ele>387.06999999999999</ele>
        <time>2025-05-19T12:12:49Z</time>
      </trkpt>
      <trkpt lat="44.452372966334224" lon="7.839044015854597">
        <ele>376.97000000000003</ele>
        <time>2025-05-19T12:12:59Z</time>
      </trkpt>
      <trkpt lat="44.454547986388206" lon="7.837937017902732">
        <ele>368.31999999999999</ele>
        <time>2025-05-19T12:13:08Z</time>
      </trkpt>
      <trkpt lat="44.45715500973165" lon="7.836603038012981">
        <ele>361.58999999999997</ele>
        <time>2025-05-19T12:13:19Z</time>
      </trkpt>
      <trkpt lat="44.459268003702164" lon="7.835516994819045">
        <ele>364.48000000000002</ele>
        <time>2025-05-19T12:13:28Z</time>
      </trkpt>
      <trkpt lat="44.462049035355449" lon="7.834115959703922">
        <ele>372.64999999999998</ele>
        <time>2025-05-19T12:13:40Z</time>
      </trkpt>
      <trkpt lat="44.464836018159986" lon="7.832666980102658">
        <ele>383.22000000000003</ele>
        <time>2025-05-19T12:13:52Z</time>
      </trkpt>
      <trkpt lat="44.468085011467338" lon="7.831023037433624">
        <ele>394.75999999999999</ele>
        <time>2025-05-19T12:14:06Z</time>
      </trkpt>
      <trkpt lat="44.471867009997368" lon="7.829095032066107">
        <ele>409.66000000000003</ele>
        <time>2025-05-19T12:14:22Z</time>
      </trkpt>
      <trkpt lat="44.474919028580189" lon="7.827465003356338">
        <ele>417.35000000000002</ele>
        <time>2025-05-19T12:14:35Z</time>
      </trkpt>
      <trkpt lat="44.477911032736301" lon="7.825416969135404">
        <ele>418.31</ele>
        <time>2025-05-19T12:14:48Z</time>
      </trkpt>
      <trkpt lat="44.480811003595591" lon="7.823361977934837">
        <ele>417.35000000000002</ele>
        <time>2025-05-19T12:15:00Z</time>
      </trkpt>
      <trkpt lat="44.484168039634824" lon="7.82100398093462">
        <ele>418.31</ele>
        <time>2025-05-19T12:15:14Z</time>
      </trkpt>
      <trkpt lat="44.487309996038675" lon="7.818797025829554">
        <ele>418.31</ele>
        <time>2025-05-19T12:15:27Z</time>
      </trkpt>
      <trkpt lat="44.489987008273602" lon="7.816900033503771">
        <ele>418.79000000000002</ele>
        <time>2025-05-19T12:15:38Z</time>
      </trkpt>
      <trkpt lat="44.491632962599397" lon="7.81574098393321">
        <ele>418.79000000000002</ele>
        <time>2025-05-19T12:15:45Z</time>
      </trkpt>
      <trkpt lat="44.49533499777317" lon="7.813159022480249">
        <ele>418.79000000000002</ele>
        <time>2025-05-19T12:16:00Z</time>
      </trkpt>
      <trkpt lat="44.498483994975686" lon="7.811100007966161">
        <ele>417.82999999999998</ele>
        <time>2025-05-19T12:16:13Z</time>
      </trkpt>
      <trkpt lat="44.50147801078856" lon="7.809352967888117">
        <ele>416.38999999999999</ele>
        <time>2025-05-19T12:16:25Z</time>
      </trkpt>
      <trkpt lat="44.504527011886239" lon="7.807607017457485">
        <ele>410.62</ele>
        <time>2025-05-19T12:16:37Z</time>
      </trkpt>
      <trkpt lat="44.507561009377241" lon="7.805864000692964">
        <ele>401.00999999999999</ele>
        <time>2025-05-19T12:16:49Z</time>
      </trkpt>
      <trkpt lat="44.510089997202158" lon="7.804417032748461">
        <ele>392.83999999999997</ele>
        <time>2025-05-19T12:16:59Z</time>
      </trkpt>
      <trkpt lat="44.512824006378651" lon="7.802853975445032">
        <ele>382.25999999999999</ele>
        <time>2025-05-19T12:17:10Z</time>
      </trkpt>
      <trkpt lat="44.516565017402172" lon="7.800700999796391">
        <ele>374.08999999999997</ele>
        <time>2025-05-19T12:17:25Z</time>
      </trkpt>
      <trkpt lat="44.519027033820748" lon="7.799282027408481">
        <ele>374.08999999999997</ele>
        <time>2025-05-19T12:17:35Z</time>
      </trkpt>
      <trkpt lat="44.522754969075322" lon="7.79713299125433">
        <ele>376.00999999999999</ele>
        <time>2025-05-19T12:17:50Z</time>
      </trkpt>
      <trkpt lat="44.526458010077477" lon="7.794997030869126">
        <ele>389.94999999999999</ele>
        <time>2025-05-19T12:18:05Z</time>
      </trkpt>
      <trkpt lat="44.530432038009167" lon="7.79270701110363">
        <ele>403.88999999999999</ele>
        <time>2025-05-19T12:18:21Z</time>
      </trkpt>
      <trkpt lat="44.534074980765581" lon="7.790573984384537">
        <ele>413.01999999999998</ele>
        <time>2025-05-19T12:18:36Z</time>
      </trkpt>
      <trkpt lat="44.537334032356739" lon="7.788766007870436">
        <ele>413.5</ele>
        <time>2025-05-19T12:18:50Z</time>
      </trkpt>
      <trkpt lat="44.540500966832042" lon="7.787352986633778">
        <ele>411.57999999999998</ele>
        <time>2025-05-19T12:19:01Z</time>
      </trkpt>
      <trkpt lat="44.543162975460291" lon="7.786502977833152">
        <ele>409.18000000000001</ele>
        <time>2025-05-19T12:19:11Z</time>
      </trkpt>
      <trkpt lat="44.546918990090489" lon="7.785721030086279">
        <ele>407.25999999999999</ele>
        <time>2025-05-19T12:19:25Z</time>
      </trkpt>
      <trkpt lat="44.550723033025861" lon="7.784962970763445">
        <ele>406.29000000000002</ele>
        <time>2025-05-19T12:19:39Z</time>
      </trkpt>
      <trkpt lat="44.553925003856421" lon="7.784362994134426">
        <ele>405.81</ele>
        <time>2025-05-19T12:19:51Z</time>
      </trkpt>
      <trkpt lat="44.557938007637858" lon="7.783571993932128">
        <ele>404.85000000000002</ele>
        <time>2025-05-19T12:20:06Z</time>
      </trkpt>
      <trkpt lat="44.561356985941529" lon="7.782571027055383">
        <ele>398.12</ele>
        <time>2025-05-19T12:20:19Z</time>
      </trkpt>
      <trkpt lat="44.564156960695982" lon="7.781160017475486">
        <ele>391.87</ele>
        <time>2025-05-19T12:20:30Z</time>
      </trkpt>
      <trkpt lat="44.567053997889161" lon="7.779211979359388">
        <ele>382.25999999999999</ele>
        <time>2025-05-19T12:20:42Z</time>
      </trkpt>
      <trkpt lat="44.570253035053611" lon="7.776994965970516">
        <ele>370.73000000000002</ele>
        <time>2025-05-19T12:20:55Z</time>
      </trkpt>
      <trkpt lat="44.573449976742268" lon="7.774756997823715">
        <ele>359.19</ele>
        <time>2025-05-19T12:21:08Z</time>
      </trkpt>
      <trkpt lat="44.576844982802868" lon="7.772377040237188">
        <ele>346.20999999999998</ele>
        <time>2025-05-19T12:21:22Z</time>
      </trkpt>
      <trkpt lat="44.58071700297296" lon="7.769743027165532">
        <ele>330.82999999999998</ele>
        <time>2025-05-19T12:21:38Z</time>
      </trkpt>
      <trkpt lat="44.584334967657924" lon="7.767253015190363">
        <ele>321.69999999999999</ele>
        <time>2025-05-19T12:21:53Z</time>
      </trkpt>
      <trkpt lat="44.586417032405734" lon="7.765813004225493">
        <ele>326.01999999999998</ele>
        <time>2025-05-19T12:22:01Z</time>
      </trkpt>
      <trkpt lat="44.587660990655422" lon="7.764953020960093">
        <ele>329.38999999999999</ele>
        <time>2025-05-19T12:22:07Z</time>
      </trkpt>
      <trkpt lat="44.588049994781613" lon="7.764698965474963">
        <ele>329.87</ele>
        <time>2025-05-19T12:22:11Z</time>
      </trkpt>
      <trkpt lat="44.58808503113687" lon="7.764675999060273">
        <ele>330.35000000000002</ele>
        <time>2025-05-19T12:22:17Z</time>
      </trkpt>
      <trkpt lat="44.58808503113687" lon="7.764675999060273">
        <ele>330.82999999999998</ele>
        <time>2025-05-19T12:22:55Z</time>
      </trkpt>
      <trkpt lat="44.58808503113687" lon="7.764675999060273">
        <ele>331.31</ele>
        <time>2025-05-19T12:23:43Z</time>
      </trkpt>
      <trkpt lat="44.588285023346543" lon="7.764542978256941">
        <ele>332.26999999999998</ele>
        <time>2025-05-19T12:23:58Z</time>
      </trkpt>
      <trkpt lat="44.588939985260367" lon="7.764106029644609">
        <ele>333.23000000000002</ele>
        <time>2025-05-19T12:24:03Z</time>
      </trkpt>
      <trkpt lat="44.590378990396857" lon="7.763288039714098">
        <ele>336.12</ele>
        <time>2025-05-19T12:24:10Z</time>
      </trkpt>
      <trkpt lat="44.592466000467539" lon="7.762324959039688">
        <ele>338.04000000000002</ele>
        <time>2025-05-19T12:24:18Z</time>
      </trkpt>
      <trkpt lat="44.595041004940867" lon="7.761513004079461">
        <ele>338.04000000000002</ele>
        <time>2025-05-19T12:24:27Z</time>
      </trkpt>
      <trkpt lat="44.598157983273268" lon="7.760997014120221">
        <ele>335.16000000000003</ele>
        <time>2025-05-19T12:24:37Z</time>
      </trkpt>
      <trkpt lat="44.600690994411707" lon="7.760918978601694">
        <ele>334.19999999999999</ele>
        <time>2025-05-19T12:24:45Z</time>
      </trkpt>
      <trkpt lat="44.603518964722753" lon="7.761276969686151">
        <ele>332.75</ele>
        <time>2025-05-19T12:24:54Z</time>
      </trkpt>
      <trkpt lat="44.606628986075521" lon="7.762127984315157">
        <ele>331.79000000000002</ele>
        <time>2025-05-19T12:25:04Z</time>
      </trkpt>
      <trkpt lat="44.609322007745504" lon="7.763330033048987">
        <ele>327.94999999999999</ele>
        <time>2025-05-19T12:25:13Z</time>
      </trkpt>
      <trkpt lat="44.612176967784762" lon="7.765046982094646">
        <ele>319.77999999999997</ele>
        <time>2025-05-19T12:25:23Z</time>
      </trkpt>
      <trkpt lat="44.614823972806334" lon="7.766742976382375">
        <ele>321.22000000000003</ele>
        <time>2025-05-19T12:25:32Z</time>
      </trkpt>
      <trkpt lat="44.618040025234222" lon="7.768830992281437">
        <ele>329.38999999999999</ele>
        <time>2025-05-19T12:25:43Z</time>
      </trkpt>
      <trkpt lat="44.621759997680783" lon="7.771241962909699">
        <ele>328.43000000000001</ele>
        <time>2025-05-19T12:25:56Z</time>
      </trkpt>
      <trkpt lat="44.625494973734021" lon="7.773640025407076">
        <ele>325.06</ele>
        <time>2025-05-19T12:26:09Z</time>
      </trkpt>
      <trkpt lat="44.628995005041361" lon="7.77560499496758">
        <ele>321.22000000000003</ele>
        <time>2025-05-19T12:26:21Z</time>
      </trkpt>
      <trkpt lat="44.632609030231833" lon="7.777182972058654">
        <ele>318.81</ele>
        <time>2025-05-19T12:26:33Z</time>
      </trkpt>
      <trkpt lat="44.636320034042001" lon="7.778294999152422">
        <ele>316.41000000000003</ele>
        <time>2025-05-19T12:26:45Z</time>
      </trkpt>
      <trkpt lat="44.640075964853168" lon="7.779007963836193">
        <ele>312.56999999999999</ele>
        <time>2025-05-19T12:26:57Z</time>
      </trkpt>
      <trkpt lat="44.644203968346119" lon="7.779219020158052">
        <ele>312.56999999999999</ele>
        <time>2025-05-19T12:27:10Z</time>
      </trkpt>
      <trkpt lat="44.648012034595013" lon="7.778978040441871">
        <ele>316.88999999999999</ele>
        <time>2025-05-19T12:27:22Z</time>
      </trkpt>
      <trkpt lat="44.652087986469269" lon="7.778195003047586">
        <ele>315.44999999999999</ele>
        <time>2025-05-19T12:27:35Z</time>
      </trkpt>
      <trkpt lat="44.657361963763833" lon="7.776715010404587">
        <ele>311.60000000000002</ele>
        <time>2025-05-19T12:27:52Z</time>
      </trkpt>
      <trkpt lat="44.662308963015676" lon="7.775284973904491">
        <ele>305.83999999999997</ele>
        <time>2025-05-19T12:28:08Z</time>
      </trkpt>
      <trkpt lat="44.665100974962115" lon="7.77448701672256">
        <ele>301.99000000000001</ele>
        <time>2025-05-19T12:28:17Z</time>
      </trkpt>
      <trkpt lat="44.671326968818903" lon="7.772701000794768">
        <ele>301.50999999999999</ele>
        <time>2025-05-19T12:28:37Z</time>
      </trkpt>
      <trkpt lat="44.676623996347189" lon="7.771184965968132">
        <ele>301.50999999999999</ele>
        <time>2025-05-19T12:28:54Z</time>
      </trkpt>
      <trkpt lat="44.681648025289178" lon="7.769728023558855">
        <ele>296.69999999999999</ele>
        <time>2025-05-19T12:29:10Z</time>
      </trkpt>
      <trkpt lat="44.687607977539301" lon="7.768009984865785">
        <ele>294.77999999999997</ele>
        <time>2025-05-19T12:29:29Z</time>
      </trkpt>
      <trkpt lat="44.693253021687269" lon="7.766380961984396">
        <ele>291.89999999999998</ele>
        <time>2025-05-19T12:29:47Z</time>
      </trkpt>
      <trkpt lat="44.697655029594898" lon="7.765116970986128">
        <ele>294.30000000000001</ele>
        <time>2025-05-19T12:30:01Z</time>
      </trkpt>
      <trkpt lat="44.702688027173281" lon="7.763687018305063">
        <ele>287.56999999999999</ele>
        <time>2025-05-19T12:30:17Z</time>
      </trkpt>
      <trkpt lat="44.706759033724666" lon="7.762515982612968">
        <ele>286.13</ele>
        <time>2025-05-19T12:30:30Z</time>
      </trkpt>
      <trkpt lat="44.712402988225222" lon="7.760874973610044">
        <ele>284.20999999999998</ele>
        <time>2025-05-19T12:30:48Z</time>
      </trkpt>
      <trkpt lat="44.716798039153218" lon="7.759592961519957">
        <ele>281.80000000000001</ele>
        <time>2025-05-19T12:31:02Z</time>
      </trkpt>
      <trkpt lat="44.721499029546976" lon="7.75822201743722">
        <ele>280.36000000000001</ele>
        <time>2025-05-19T12:31:17Z</time>
      </trkpt>
      <trkpt lat="44.724955977872014" lon="7.757230019196868">
        <ele>279.39999999999998</ele>
        <time>2025-05-19T12:31:28Z</time>
      </trkpt>
      <trkpt lat="44.728407980874181" lon="7.756272973492742">
        <ele>277.48000000000002</ele>
        <time>2025-05-19T12:31:39Z</time>
      </trkpt>
      <trkpt lat="44.73405403085053" lon="7.754680998623371">
        <ele>277</ele>
        <time>2025-05-19T12:31:57Z</time>
      </trkpt>
      <trkpt lat="44.737510979175568" lon="7.753682965412736">
        <ele>276.51999999999998</ele>
        <time>2025-05-19T12:32:08Z</time>
      </trkpt>
      <trkpt lat="44.742846982553601" lon="7.752156034111977">
        <ele>273.63</ele>
        <time>2025-05-19T12:32:25Z</time>
      </trkpt>
      <trkpt lat="44.743159040808678" lon="7.752070035785437">
        <ele>273.63</ele>
        <time>2025-05-19T12:32:26Z</time>
      </trkpt>
      <trkpt lat="44.74630300886929" lon="7.751212986186147">
        <ele>273.63</ele>
        <time>2025-05-19T12:32:36Z</time>
      </trkpt>
      <trkpt lat="44.750425983220339" lon="7.750442018732429">
        <ele>271.70999999999998</ele>
        <time>2025-05-19T12:32:49Z</time>
      </trkpt>
      <trkpt lat="44.753631977364421" lon="7.750227022916079">
        <ele>272.19</ele>
        <time>2025-05-19T12:32:59Z</time>
      </trkpt>
      <trkpt lat="44.757147012278438" lon="7.75035903789103">
        <ele>269.79000000000002</ele>
        <time>2025-05-19T12:33:10Z</time>
      </trkpt>
      <trkpt lat="44.761932995170355" lon="7.750819036737084">
        <ele>267.86000000000001</ele>
        <time>2025-05-19T12:33:25Z</time>
      </trkpt>
      <trkpt lat="44.767048973590136" lon="7.751339972019196">
        <ele>265.45999999999998</ele>
        <time>2025-05-19T12:33:41Z</time>
      </trkpt>
      <trkpt lat="44.770560991019011" lon="7.751687988638878">
        <ele>264.01999999999998</ele>
        <time>2025-05-19T12:33:52Z</time>
      </trkpt>
      <trkpt lat="44.77345802821219" lon="7.75197297334671">
        <ele>265.45999999999998</ele>
        <time>2025-05-19T12:34:01Z</time>
      </trkpt>
      <trkpt lat="44.776958981528878" lon="7.752332976087928">
        <ele>264.98000000000002</ele>
        <time>2025-05-19T12:34:12Z</time>
      </trkpt>
      <trkpt lat="44.780459012836218" lon="7.752692978829145">
        <ele>267.38</ele>
        <time>2025-05-19T12:34:23Z</time>
      </trkpt>
      <trkpt lat="44.784950036555529" lon="7.753135040402412">
        <ele>268.35000000000002</ele>
        <time>2025-05-19T12:34:37Z</time>
      </trkpt>
      <trkpt lat="44.78768102824688" lon="7.753275018185377">
        <ele>264.98000000000002</ele>
        <time>2025-05-19T12:34:46Z</time>
      </trkpt>
      <trkpt lat="44.789742976427078" lon="7.753245010972023">
        <ele>264.5</ele>
        <time>2025-05-19T12:34:54Z</time>
      </trkpt>
      <trkpt lat="44.792745038866997" lon="7.753055999055505">
        <ele>264.5</ele>
        <time>2025-05-19T12:35:04Z</time>
      </trkpt>
      <trkpt lat="44.796898020431399" lon="7.752769002690911">
        <ele>264.98000000000002</ele>
        <time>2025-05-19T12:35:17Z</time>
      </trkpt>
      <trkpt lat="44.802657980471849" lon="7.752372035756707">
        <ele>264.01999999999998</ele>
        <time>2025-05-19T12:35:35Z</time>
      </trkpt>
      <trkpt lat="44.805845031514764" lon="7.752152010798454">
        <ele>265.45999999999998</ele>
        <time>2025-05-19T12:35:45Z</time>
      </trkpt>
      <trkpt lat="44.810327002778649" lon="7.751826960593462">
        <ele>268.82999999999998</ele>
        <time>2025-05-19T12:35:59Z</time>
      </trkpt>
      <trkpt lat="44.812424993142486" lon="7.751674996688962">
        <ele>265.45999999999998</ele>
        <time>2025-05-19T12:36:06Z</time>
      </trkpt>
      <trkpt lat="44.813927030190825" lon="7.751573994755745">
        <ele>263.54000000000002</ele>
        <time>2025-05-19T12:36:13Z</time>
      </trkpt>
      <trkpt lat="44.815134024247527" lon="7.751492019742727">
        <ele>264.5</ele>
        <time>2025-05-19T12:36:21Z</time>
      </trkpt>
      <trkpt lat="44.815333010628819" lon="7.751479027792811">
        <ele>264.01999999999998</ele>
        <time>2025-05-19T12:36:26Z</time>
      </trkpt>
      <trkpt lat="44.815333010628819" lon="7.751479027792811">
        <ele>264.01999999999998</ele>
        <time>2025-05-19T12:36:43Z</time>
      </trkpt>
      <trkpt lat="44.815346002578735" lon="7.751478021964431">
        <ele>264.01999999999998</ele>
        <time>2025-05-19T12:37:25Z</time>
      </trkpt>
      <trkpt lat="44.815380033105612" lon="7.751432005316019">
        <ele>286.13</ele>
        <time>2025-05-19T12:46:14Z</time>
      </trkpt>
      <trkpt lat="44.815320018678904" lon="7.751508029177785">
        <ele>258.25</ele>
        <time>2025-05-19T12:46:36Z</time>
      </trkpt>
      <trkpt lat="44.815342985093594" lon="7.751548010855913">
        <ele>259.20999999999998</ele>
        <time>2025-05-19T12:47:18Z</time>
      </trkpt>
      <trkpt lat="44.815437030047178" lon="7.751472992822528">
        <ele>260.64999999999998</ele>
        <time>2025-05-19T12:47:24Z</time>
      </trkpt>
      <trkpt lat="44.816334983333945" lon="7.751414990052581">
        <ele>261.13999999999999</ele>
        <time>2025-05-19T12:47:30Z</time>
      </trkpt>
      <trkpt lat="44.817793015390635" lon="7.75130501948297">
        <ele>262.10000000000002</ele>
        <time>2025-05-19T12:47:37Z</time>
      </trkpt>
      <trkpt lat="44.819994019344449" lon="7.751150038093329">
        <ele>260.17000000000002</ele>
        <time>2025-05-19T12:47:45Z</time>
      </trkpt>
      <trkpt lat="44.823732012882829" lon="7.750889025628567">
        <ele>256.81</ele>
        <time>2025-05-19T12:47:57Z</time>
      </trkpt>
      <trkpt lat="44.828543979674578" lon="7.750555006787181">
        <ele>254.41</ele>
        <time>2025-05-19T12:48:12Z</time>
      </trkpt>
      <trkpt lat="44.8326510284096" lon="7.750255018472672">
        <ele>254.41</ele>
        <time>2025-05-19T12:48:25Z</time>
      </trkpt>
      <trkpt lat="44.836127003654838" lon="7.750009009614587">
        <ele>255.37</ele>
        <time>2025-05-19T12:48:36Z</time>
      </trkpt>
      <trkpt lat="44.840556001290679" lon="7.749698963016272">
        <ele>255.37</ele>
        <time>2025-05-19T12:48:50Z</time>
      </trkpt>
      <trkpt lat="44.843392018228769" lon="7.749525038525462">
        <ele>255.37</ele>
        <time>2025-05-19T12:48:59Z</time>
      </trkpt>
      <trkpt lat="44.846244966611266" lon="7.749319011345506">
        <ele>254.88999999999999</ele>
        <time>2025-05-19T12:49:08Z</time>
      </trkpt>
      <trkpt lat="44.849250968545675" lon="7.749108038842678">
        <ele>255.37</ele>
        <time>2025-05-19T12:49:18Z</time>
      </trkpt>
      <trkpt lat="44.850944029167295" lon="7.748993039131165">
        <ele>255.37</ele>
        <time>2025-05-19T12:49:26Z</time>
      </trkpt>
      <trkpt lat="44.85230902209878" lon="7.74885599501431">
        <ele>255.84999999999999</ele>
        <time>2025-05-19T12:49:33Z</time>
      </trkpt>
      <trkpt lat="44.8532750364393" lon="7.748777037486434">
        <ele>256.32999999999998</ele>
        <time>2025-05-19T12:49:39Z</time>
      </trkpt>
      <trkpt lat="44.853790020570159" lon="7.748738983646035">
        <ele>255.84999999999999</ele>
        <time>2025-05-19T12:49:46Z</time>
      </trkpt>
      <trkpt lat="44.853888005018234" lon="7.748730015009642">
        <ele>255.84999999999999</ele>
        <time>2025-05-19T12:49:48Z</time>
      </trkpt>
      <trkpt lat="44.853933015838265" lon="7.748730015009642">
        <ele>255.84999999999999</ele>
        <time>2025-05-19T12:49:49Z</time>
      </trkpt>
      <trkpt lat="44.853974003344774" lon="7.748730015009642">
        <ele>255.84999999999999</ele>
        <time>2025-05-19T12:49:50Z</time>
      </trkpt>
      <trkpt lat="44.854141976684332" lon="7.748729009181261">
        <ele>255.37</ele>
        <time>2025-05-19T12:49:58Z</time>
      </trkpt>
      <trkpt lat="44.854141976684332" lon="7.748729009181261">
        <ele>255.37</ele>
        <time>2025-05-19T12:50:53Z</time>
      </trkpt>
      <trkpt lat="44.854141976684332" lon="7.748729009181261">
        <ele>255.37</ele>
        <time>2025-05-19T12:51:29Z</time>
      </trkpt>
      <trkpt lat="44.854141976684332" lon="7.748729009181261">
        <ele>254.88999999999999</ele>
        <time>2025-05-19T12:52:26Z</time>
      </trkpt>
      <trkpt lat="44.854195034131408" lon="7.748722974210978">
        <ele>254.88999999999999</ele>
        <time>2025-05-19T12:53:03Z</time>
      </trkpt>
      <trkpt lat="44.854253036901355" lon="7.748717023059726">
        <ele>254.88999999999999</ele>
        <time>2025-05-19T12:53:04Z</time>
      </trkpt>
      <trkpt lat="44.854958960786462" lon="7.748685004189611">
        <ele>254.41</ele>
        <time>2025-05-19T12:53:11Z</time>
      </trkpt>
      <trkpt lat="44.856309033930302" lon="7.748581990599632">
        <ele>253.93000000000001</ele>
        <time>2025-05-19T12:53:19Z</time>
      </trkpt>
      <trkpt lat="44.858430996537209" lon="7.748424997553229">
        <ele>252</ele>
        <time>2025-05-19T12:53:29Z</time>
      </trkpt>
      <trkpt lat="44.861113037914038" lon="7.748235985636711">
        <ele>251.03999999999999</ele>
        <time>2025-05-19T12:53:40Z</time>
      </trkpt>
      <trkpt lat="44.86348302103579" lon="7.748050997033715">
        <ele>251.03999999999999</ele>
        <time>2025-05-19T12:53:48Z</time>
      </trkpt>
      <trkpt lat="44.867597026750445" lon="7.747777998447418">
        <ele>251.52000000000001</ele>
        <time>2025-05-19T12:54:01Z</time>
      </trkpt>
      <trkpt lat="44.871693011373281" lon="7.747466024011374">
        <ele>250.56</ele>
        <time>2025-05-19T12:54:14Z</time>
      </trkpt>
      <trkpt lat="44.875802993774414" lon="7.747180033475161">
        <ele>250.56</ele>
        <time>2025-05-19T12:54:27Z</time>
      </trkpt>
      <trkpt lat="44.880539020523429" lon="7.74679203517735">
        <ele>246.72</ele>
        <time>2025-05-19T12:54:42Z</time>
      </trkpt>
      <trkpt lat="44.884966006502509" lon="7.746425997465849">
        <ele>245.27000000000001</ele>
        <time>2025-05-19T12:54:56Z</time>
      </trkpt>
      <trkpt lat="44.890008978545666" lon="7.74601997807622">
        <ele>246.22999999999999</ele>
        <time>2025-05-19T12:55:12Z</time>
      </trkpt>
      <trkpt lat="44.894750034436584" lon="7.745647989213467">
        <ele>247.19999999999999</ele>
        <time>2025-05-19T12:55:27Z</time>
      </trkpt>
      <trkpt lat="44.900088971480727" lon="7.745082965120673">
        <ele>250.56</ele>
        <time>2025-05-19T12:55:44Z</time>
      </trkpt>
      <trkpt lat="44.903816990554333" lon="7.743975967168808">
        <ele>252</ele>
        <time>2025-05-19T12:55:56Z</time>
      </trkpt>
      <trkpt lat="44.907100014388561" lon="7.742306040599942">
        <ele>250.56</ele>
        <time>2025-05-19T12:56:07Z</time>
      </trkpt>
      <trkpt lat="44.911376964300871" lon="7.739404980093241">
        <ele>244.31</ele>
        <time>2025-05-19T12:56:22Z</time>
      </trkpt>
      <trkpt lat="44.916491014882922" lon="7.73587997071445">
        <ele>238.53999999999999</ele>
        <time>2025-05-19T12:56:40Z</time>
      </trkpt>
      <trkpt lat="44.921629959717393" lon="7.732351021841168">
        <ele>237.58000000000001</ele>
        <time>2025-05-19T12:56:58Z</time>
      </trkpt>
      <trkpt lat="44.926230031996965" lon="7.729192972183228">
        <ele>235.66</ele>
        <time>2025-05-19T12:57:14Z</time>
      </trkpt>
      <trkpt lat="44.930287040770054" lon="7.726415963843465">
        <ele>235.66</ele>
        <time>2025-05-19T12:57:28Z</time>
      </trkpt>
      <trkpt lat="44.935217024758458" lon="7.723021963611245">
        <ele>234.69999999999999</ele>
        <time>2025-05-19T12:57:45Z</time>
      </trkpt>
      <trkpt lat="44.940732987597585" lon="7.719224961474538">
        <ele>235.66</ele>
        <time>2025-05-19T12:58:04Z</time>
      </trkpt>
      <trkpt lat="44.943918026983738" lon="7.717043990269303">
        <ele>235.66</ele>
        <time>2025-05-19T12:58:15Z</time>
      </trkpt>
      <trkpt lat="44.94742501527071" lon="7.714755982160568">
        <ele>234.69999999999999</ele>
        <time>2025-05-19T12:58:27Z</time>
      </trkpt>
      <trkpt lat="44.949909998103976" lon="7.713757026940584">
        <ele>237.58000000000001</ele>
        <time>2025-05-19T12:58:35Z</time>
      </trkpt>
      <trkpt lat="44.954280992969871" lon="7.712155999615789">
        <ele>237.09999999999999</ele>
        <time>2025-05-19T12:58:49Z</time>
      </trkpt>
      <trkpt lat="44.956588027998805" lon="7.710539968684316">
        <ele>235.66</ele>
        <time>2025-05-19T12:58:57Z</time>
      </trkpt>
      <trkpt lat="44.958646036684513" lon="7.708346005529165">
        <ele>234.69999999999999</ele>
        <time>2025-05-19T12:59:05Z</time>
      </trkpt>
      <trkpt lat="44.961256999522448" lon="7.705703023821116">
        <ele>234.69999999999999</ele>
        <time>2025-05-19T12:59:15Z</time>
      </trkpt>
      <trkpt lat="44.963357001543045" lon="7.704587979242206">
        <ele>235.18000000000001</ele>
        <time>2025-05-19T12:59:22Z</time>
      </trkpt>
      <trkpt lat="44.965102029964328" lon="7.704100990667939">
        <ele>234.22</ele>
        <time>2025-05-19T12:59:28Z</time>
      </trkpt>
      <trkpt lat="44.967208988964558" lon="7.703551976010203">
        <ele>233.74000000000001</ele>
        <time>2025-05-19T12:59:37Z</time>
      </trkpt>
      <trkpt lat="44.969804026186466" lon="7.702857032418251">
        <ele>238.53999999999999</ele>
        <time>2025-05-19T12:59:48Z</time>
      </trkpt>
      <trkpt lat="44.972019027918577" lon="7.702262001112104">
        <ele>239.99000000000001</ele>
        <time>2025-05-19T12:59:59Z</time>
      </trkpt>
      <trkpt lat="44.972355980426073" lon="7.702332995831966">
        <ele>239.99000000000001</ele>
        <time>2025-05-19T13:00:01Z</time>
      </trkpt>
      <trkpt lat="44.972502999007702" lon="7.702369038015604">
        <ele>239.50999999999999</ele>
        <time>2025-05-19T13:00:03Z</time>
      </trkpt>
      <trkpt lat="44.972731992602348" lon="7.702548997476697">
        <ele>239.02000000000001</ele>
        <time>2025-05-19T13:00:04Z</time>
      </trkpt>
      <trkpt lat="44.972828971222043" lon="7.70268302410841">
        <ele>239.02000000000001</ele>
        <time>2025-05-19T13:00:05Z</time>
      </trkpt>
      <trkpt lat="44.972921004518867" lon="7.702811015769839">
        <ele>238.53999999999999</ele>
        <time>2025-05-19T13:00:06Z</time>
      </trkpt>
      <trkpt lat="44.972956962883472" lon="7.702969014644623">
        <ele>238.06</ele>
        <time>2025-05-19T13:00:07Z</time>
      </trkpt>
      <trkpt lat="44.972987975925207" lon="7.703134976327419">
        <ele>237.09999999999999</ele>
        <time>2025-05-19T13:00:08Z</time>
      </trkpt>
      <trkpt lat="44.972999040037394" lon="7.703306972980499">
        <ele>236.62</ele>
        <time>2025-05-19T13:00:09Z</time>
      </trkpt>
      <trkpt lat="44.972995016723871" lon="7.703493973240256">
        <ele>236.13999999999999</ele>
        <time>2025-05-19T13:00:10Z</time>
      </trkpt>
      <trkpt lat="44.972961992025375" lon="7.703675022348762">
        <ele>235.66</ele>
        <time>2025-05-19T13:00:11Z</time>
      </trkpt>
      <trkpt lat="44.972913963720202" lon="7.703862022608519">
        <ele>234.69999999999999</ele>
        <time>2025-05-19T13:00:12Z</time>
      </trkpt>
      <trkpt lat="44.972850009799004" lon="7.704054974019527">
        <ele>234.22</ele>
        <time>2025-05-19T13:00:13Z</time>
      </trkpt>
      <trkpt lat="44.972770968452096" lon="7.704291008412838">
        <ele>233.25999999999999</ele>
        <time>2025-05-19T13:00:14Z</time>
      </trkpt>
      <trkpt lat="44.972674995660782" lon="7.70444699563086">
        <ele>233.25999999999999</ele>
        <time>2025-05-19T13:00:15Z</time>
      </trkpt>
      <trkpt lat="44.972549015656114" lon="7.704615974798799">
        <ele>232.78</ele>
        <time>2025-05-19T13:00:16Z</time>
      </trkpt>
      <trkpt lat="44.972407026216388" lon="7.704742960631847">
        <ele>232.30000000000001</ele>
        <time>2025-05-19T13:00:17Z</time>
      </trkpt>
      <trkpt lat="44.97224198654294" lon="7.704830970615149">
        <ele>231.81</ele>
        <time>2025-05-19T13:00:18Z</time>
      </trkpt>
      <trkpt lat="44.972077030688524" lon="7.704908000305295">
        <ele>231.81</ele>
        <time>2025-05-19T13:00:19Z</time>
      </trkpt>
      <trkpt lat="44.971902016550303" lon="7.704934990033507">
        <ele>231.33000000000001</ele>
        <time>2025-05-19T13:00:20Z</time>
      </trkpt>
      <trkpt lat="44.971729014068842" lon="7.704934990033507">
        <ele>231.33000000000001</ele>
        <time>2025-05-19T13:00:21Z</time>
      </trkpt>
      <trkpt lat="44.971555005759001" lon="7.704900959506631">
        <ele>230.84999999999999</ele>
        <time>2025-05-19T13:00:22Z</time>
      </trkpt>
      <trkpt lat="44.971415027976036" lon="7.704816972836852">
        <ele>230.84999999999999</ele>
        <time>2025-05-19T13:00:23Z</time>
      </trkpt>
      <trkpt lat="44.971303967759013" lon="7.704658973962069">
        <ele>230.84999999999999</ele>
        <time>2025-05-19T13:00:24Z</time>
      </trkpt>
      <trkpt lat="44.971226016059518" lon="7.704495023936033">
        <ele>230.84999999999999</ele>
        <time>2025-05-19T13:00:25Z</time>
      </trkpt>
      <trkpt lat="44.971177987754345" lon="7.704328978434205">
        <ele>230.84999999999999</ele>
        <time>2025-05-19T13:00:26Z</time>
      </trkpt>
      <trkpt lat="44.971160972490907" lon="7.704138960689306">
        <ele>230.84999999999999</ele>
        <time>2025-05-19T13:00:27Z</time>
      </trkpt>
      <trkpt lat="44.971160972490907" lon="7.70395003259182">
        <ele>230.84999999999999</ele>
        <time>2025-05-19T13:00:28Z</time>
      </trkpt>
      <trkpt lat="44.971160972490907" lon="7.703750962391496">
        <ele>231.33000000000001</ele>
        <time>2025-05-19T13:00:29Z</time>
      </trkpt>
      <trkpt lat="44.971160972490907" lon="7.703542001545429">
        <ele>231.33000000000001</ele>
        <time>2025-05-19T13:00:30Z</time>
      </trkpt>
      <trkpt lat="44.971219981089234" lon="7.701710974797607">
        <ele>233.74000000000001</ele>
        <time>2025-05-19T13:00:37Z</time>
      </trkpt>
      <trkpt lat="44.971269015222788" lon="7.69845200702548">
        <ele>235.18000000000001</ele>
        <time>2025-05-19T13:00:47Z</time>
      </trkpt>
      <trkpt lat="44.971010014414787" lon="7.694333977997303">
        <ele>237.09999999999999</ele>
        <time>2025-05-19T13:00:58Z</time>
      </trkpt>
      <trkpt lat="44.970542974770069" lon="7.689012978225946">
        <ele>235.18000000000001</ele>
        <time>2025-05-19T13:01:11Z</time>
      </trkpt>
      <trkpt lat="44.970143996179104" lon="7.684608036652207">
        <ele>232.30000000000001</ele>
        <time>2025-05-19T13:01:22Z</time>
      </trkpt>
      <trkpt lat="44.96996596455574" lon="7.681559035554528">
        <ele>233.25999999999999</ele>
        <time>2025-05-19T13:01:30Z</time>
      </trkpt>
      <trkpt lat="44.970193030312657" lon="7.678166963160038">
        <ele>232.30000000000001</ele>
        <time>2025-05-19T13:01:39Z</time>
      </trkpt>
      <trkpt lat="44.970949999988079" lon="7.674505999311805">
        <ele>232.78</ele>
        <time>2025-05-19T13:01:49Z</time>
      </trkpt>
      <trkpt lat="44.972009975463152" lon="7.66996200196445">
        <ele>235.18000000000001</ele>
        <time>2025-05-19T13:02:02Z</time>
      </trkpt>
      <trkpt lat="44.972697962075472" lon="7.667033029720187">
        <ele>231.81</ele>
        <time>2025-05-19T13:02:10Z</time>
      </trkpt>
      <trkpt lat="44.973773024976254" lon="7.662642002105713">
        <ele>231.81</ele>
        <time>2025-05-19T13:02:22Z</time>
      </trkpt>
      <trkpt lat="44.975055959075689" lon="7.658555991947651">
        <ele>232.30000000000001</ele>
        <time>2025-05-19T13:02:34Z</time>
      </trkpt>
      <trkpt lat="44.976590014994144" lon="7.654736023396254">
        <ele>234.22</ele>
        <time>2025-05-19T13:02:46Z</time>
      </trkpt>
      <trkpt lat="44.978065984323621" lon="7.65174301341176">
        <ele>230.37</ele>
        <time>2025-05-19T13:02:56Z</time>
      </trkpt>
      <trkpt lat="44.98032096773386" lon="7.647898988798261">
        <ele>225.09</ele>
        <time>2025-05-19T13:03:09Z</time>
      </trkpt>
      <trkpt lat="44.982353998348117" lon="7.644551005214453">
        <ele>224.12</ele>
        <time>2025-05-19T13:03:20Z</time>
      </trkpt>
      <trkpt lat="44.984735967591405" lon="7.640757020562887">
        <ele>229.88999999999999</ele>
        <time>2025-05-19T13:03:33Z</time>
      </trkpt>
      <trkpt lat="44.987314995378256" lon="7.636859016492963">
        <ele>238.06</ele>
        <time>2025-05-19T13:03:47Z</time>
      </trkpt>
      <trkpt lat="44.990069959312677" lon="7.632723972201347">
        <ele>235.66</ele>
        <time>2025-05-19T13:04:02Z</time>
      </trkpt>
      <trkpt lat="44.992037024348974" lon="7.629878986626864">
        <ele>235.18000000000001</ele>
        <time>2025-05-19T13:04:13Z</time>
      </trkpt>
      <trkpt lat="44.99404801055789" lon="7.627654010429978">
        <ele>236.13999999999999</ele>
        <time>2025-05-19T13:04:23Z</time>
      </trkpt>
      <trkpt lat="44.996407013386488" lon="7.625742014497519">
        <ele>238.53999999999999</ele>
        <time>2025-05-19T13:04:33Z</time>
      </trkpt>
      <trkpt lat="44.999059969559312" lon="7.624289011582732">
        <ele>239.99000000000001</ele>
        <time>2025-05-19T13:04:43Z</time>
      </trkpt>
      <trkpt lat="45.002337964251637" lon="7.62275998480618">
        <ele>241.43000000000001</ele>
        <time>2025-05-19T13:04:55Z</time>
      </trkpt>
      <trkpt lat="45.00485697761178" lon="7.621576962992549">
        <ele>239.50999999999999</ele>
        <time>2025-05-19T13:05:05Z</time>
      </trkpt>
      <trkpt lat="45.007209023460746" lon="7.620166037231684">
        <ele>240.47</ele>
        <time>2025-05-19T13:05:15Z</time>
      </trkpt>
      <trkpt lat="45.008370000869036" lon="7.618733989074826">
        <ele>238.06</ele>
        <time>2025-05-19T13:05:21Z</time>
      </trkpt>
      <trkpt lat="45.009322017431259" lon="7.616461990401149">
        <ele>239.50999999999999</ele>
        <time>2025-05-19T13:05:28Z</time>
      </trkpt>
      <trkpt lat="45.009675985202193" lon="7.614302979782224">
        <ele>243.83000000000001</ele>
        <time>2025-05-19T13:05:34Z</time>
      </trkpt>
      <trkpt lat="45.01016004011035" lon="7.610002979636192">
        <ele>246.72</ele>
        <time>2025-05-19T13:05:45Z</time>
      </trkpt>
      <trkpt lat="45.010853977873921" lon="7.607472985982895">
        <ele>248.16</ele>
        <time>2025-05-19T13:05:52Z</time>
      </trkpt>
      <trkpt lat="45.012000035494566" lon="7.605252033099532">
        <ele>250.08000000000001</ele>
        <time>2025-05-19T13:05:59Z</time>
      </trkpt>
      <trkpt lat="45.013513974845409" lon="7.603503987193108">
        <ele>251.52000000000001</ele>
        <time>2025-05-19T13:06:06Z</time>
      </trkpt>
      <trkpt lat="45.015308959409595" lon="7.602361030876637">
        <ele>254.41</ele>
        <time>2025-05-19T13:06:13Z</time>
      </trkpt>
      <trkpt lat="45.018603969365358" lon="7.600748017430306">
        <ele>257.29000000000002</ele>
        <time>2025-05-19T13:06:25Z</time>
      </trkpt>
      <trkpt lat="45.018846038728952" lon="7.600590018555522">
        <ele>256.32999999999998</ele>
        <time>2025-05-19T13:06:26Z</time>
      </trkpt>
      <trkpt lat="45.020964983850718" lon="7.599117988720536">
        <ele>256.81</ele>
        <time>2025-05-19T13:06:35Z</time>
      </trkpt>
      <trkpt lat="45.023672003298998" lon="7.596811959519982">
        <ele>265.45999999999998</ele>
        <time>2025-05-19T13:06:47Z</time>
      </trkpt>
      <trkpt lat="45.026930971071124" lon="7.594005027785897">
        <ele>277</ele>
        <time>2025-05-19T13:07:01Z</time>
      </trkpt>
      <trkpt lat="45.029997993260622" lon="7.591318041086197">
        <ele>274.58999999999997</ele>
        <time>2025-05-19T13:07:14Z</time>
      </trkpt>
      <trkpt lat="45.031425012275577" lon="7.589567983523011">
        <ele>275.06999999999999</ele>
        <time>2025-05-19T13:07:21Z</time>
      </trkpt>
      <trkpt lat="45.032685985788703" lon="7.587106972932816">
        <ele>276.04000000000002</ele>
        <time>2025-05-19T13:07:29Z</time>
      </trkpt>
      <trkpt lat="45.033654011785984" lon="7.583955964073539">
        <ele>276.51999999999998</ele>
        <time>2025-05-19T13:07:38Z</time>
      </trkpt>
      <trkpt lat="45.035097962245345" lon="7.57865197956562">
        <ele>277</ele>
        <time>2025-05-19T13:07:53Z</time>
      </trkpt>
      <trkpt lat="45.035597020760179" lon="7.576871998608112">
        <ele>275.56</ele>
        <time>2025-05-19T13:07:58Z</time>
      </trkpt>
      <trkpt lat="45.035692993551493" lon="7.576515013352037">
        <ele>275.06999999999999</ele>
        <time>2025-05-19T13:07:59Z</time>
      </trkpt>
      <trkpt lat="45.036579966545105" lon="7.573271971195936">
        <ele>277.48000000000002</ele>
        <time>2025-05-19T13:08:08Z</time>
      </trkpt>
      <trkpt lat="45.037644971162081" lon="7.569421995431185">
        <ele>283.73000000000002</ele>
        <time>2025-05-19T13:08:19Z</time>
      </trkpt>
      <trkpt lat="45.039194030687213" lon="7.563751973211765">
        <ele>292.86000000000001</ele>
        <time>2025-05-19T13:08:35Z</time>
      </trkpt>
      <trkpt lat="45.040285019204021" lon="7.559776017442346">
        <ele>296.22000000000003</ele>
        <time>2025-05-19T13:08:47Z</time>
      </trkpt>
      <trkpt lat="45.041012987494469" lon="7.557039996609092">
        <ele>295.74000000000001</ele>
        <time>2025-05-19T13:08:55Z</time>
      </trkpt>
      <trkpt lat="45.042278990149498" lon="7.553281970322132">
        <ele>298.63</ele>
        <time>2025-05-19T13:09:06Z</time>
      </trkpt>
      <trkpt lat="45.043695028871298" lon="7.550918022170663">
        <ele>301.99000000000001</ele>
        <time>2025-05-19T13:09:14Z</time>
      </trkpt>
      <trkpt lat="45.045404015108943" lon="7.549173999577761">
        <ele>304.88</ele>
        <time>2025-05-19T13:09:22Z</time>
      </trkpt>
      <trkpt lat="45.047381976619363" lon="7.547987038269639">
        <ele>307.27999999999997</ele>
        <time>2025-05-19T13:09:30Z</time>
      </trkpt>
      <trkpt lat="45.050602974370122" lon="7.546856990084052">
        <ele>309.68000000000001</ele>
        <time>2025-05-19T13:09:42Z</time>
      </trkpt>
      <trkpt lat="45.053192982450128" lon="7.545984014868736">
        <ele>314.00999999999999</ele>
        <time>2025-05-19T13:09:52Z</time>
      </trkpt>
      <trkpt lat="45.053420970216393" lon="7.545903967693448">
        <ele>314.49000000000001</ele>
        <time>2025-05-19T13:09:53Z</time>
      </trkpt>
      <trkpt lat="45.056386990472674" lon="7.544872993603349">
        <ele>317.37</ele>
        <time>2025-05-19T13:10:05Z</time>
      </trkpt>
      <trkpt lat="45.060224980115891" lon="7.543586036190391">
        <ele>321.22000000000003</ele>
        <time>2025-05-19T13:10:19Z</time>
      </trkpt>
      <trkpt lat="45.06228600628674" lon="7.54349903203547">
        <ele>322.66000000000003</ele>
        <time>2025-05-19T13:10:26Z</time>
      </trkpt>
      <trkpt lat="45.064523974433541" lon="7.54410102032125">
        <ele>326.5</ele>
        <time>2025-05-19T13:10:34Z</time>
      </trkpt>
      <trkpt lat="45.067584039643407" lon="7.545034009963274">
        <ele>335.16000000000003</ele>
        <time>2025-05-19T13:10:46Z</time>
      </trkpt>
      <trkpt lat="45.070946021005511" lon="7.546109994873405">
        <ele>339</ele>
        <time>2025-05-19T13:10:59Z</time>
      </trkpt>
      <trkpt lat="45.073186000809073" lon="7.54676403477788">
        <ele>338.04000000000002</ele>
        <time>2025-05-19T13:11:08Z</time>
      </trkpt>
      <trkpt lat="45.076260985806584" lon="7.547725019976497">
        <ele>338.04000000000002</ele>
        <time>2025-05-19T13:11:22Z</time>
      </trkpt>
      <trkpt lat="45.078725013881922" lon="7.54850696772337">
        <ele>335.16000000000003</ele>
        <time>2025-05-19T13:11:32Z</time>
      </trkpt>
      <trkpt lat="45.079604024067521" lon="7.548865964636207">
        <ele>333.70999999999998</ele>
        <time>2025-05-19T13:11:36Z</time>
      </trkpt>
      <trkpt lat="45.079808039590716" lon="7.5490009970963">
        <ele>333.23000000000002</ele>
        <time>2025-05-19T13:11:37Z</time>
      </trkpt>
      <trkpt lat="45.080003002658486" lon="7.549166958779097">
        <ele>333.23000000000002</ele>
        <time>2025-05-19T13:11:38Z</time>
      </trkpt>
      <trkpt lat="45.080193020403385" lon="7.549329986795783">
        <ele>332.75</ele>
        <time>2025-05-19T13:11:39Z</time>
      </trkpt>
      <trkpt lat="45.080367028713226" lon="7.549535008147359">
        <ele>332.26999999999998</ele>
        <time>2025-05-19T13:11:40Z</time>
      </trkpt>
      <trkpt lat="45.080539025366306" lon="7.549737012013793">
        <ele>331.79000000000002</ele>
        <time>2025-05-19T13:11:41Z</time>
      </trkpt>
      <trkpt lat="45.080704987049103" lon="7.549942033365369">
        <ele>331.31</ele>
        <time>2025-05-19T13:11:42Z</time>
      </trkpt>
      <trkpt lat="45.0808260217309" lon="7.550205979496241">
        <ele>331.31</ele>
        <time>2025-05-19T13:11:44Z</time>
      </trkpt>
      <trkpt lat="45.081506967544556" lon="7.552518965676427">
        <ele>330.82999999999998</ele>
        <time>2025-05-19T13:11:51Z</time>
      </trkpt>
      <trkpt lat="45.082439035177231" lon="7.555001014843583">
        <ele>330.82999999999998</ele>
        <time>2025-05-19T13:12:00Z</time>
      </trkpt>
      <trkpt lat="45.08370696566999" lon="7.557104034349322">
        <ele>326.99000000000001</ele>
        <time>2025-05-19T13:12:08Z</time>
      </trkpt>
      <trkpt lat="45.085418969392776" lon="7.559283999726176">
        <ele>319.30000000000001</ele>
        <time>2025-05-19T13:12:17Z</time>
      </trkpt>
      <trkpt lat="45.087286038324237" lon="7.561662029474974">
        <ele>312.08999999999997</ele>
        <time>2025-05-19T13:12:27Z</time>
      </trkpt>
      <trkpt lat="45.08952802978456" lon="7.564485976472497">
        <ele>302.94999999999999</ele>
        <time>2025-05-19T13:12:39Z</time>
      </trkpt>
      <trkpt lat="45.091377999633551" lon="7.566815977916122">
        <ele>300.06999999999999</ele>
        <time>2025-05-19T13:12:49Z</time>
      </trkpt>
      <trkpt lat="45.093751000240445" lon="7.569792978465557">
        <ele>301.02999999999997</ele>
        <time>2025-05-19T13:13:02Z</time>
      </trkpt>
      <trkpt lat="45.096114026382565" lon="7.57280602119863">
        <ele>298.63</ele>
        <time>2025-05-19T13:13:15Z</time>
      </trkpt>
      <trkpt lat="45.097421016544104" lon="7.574951034039259">
        <ele>301.99000000000001</ele>
        <time>2025-05-19T13:13:23Z</time>
      </trkpt>
      <trkpt lat="45.098481997847557" lon="7.577616982161999">
        <ele>307.27999999999997</ele>
        <time>2025-05-19T13:13:32Z</time>
      </trkpt>
      <trkpt lat="45.099465027451515" lon="7.5810999982059">
        <ele>302.47000000000003</ele>
        <time>2025-05-19T13:13:43Z</time>
      </trkpt>
      <trkpt lat="45.10009903460741" lon="7.583466963842511">
        <ele>299.58999999999997</ele>
        <time>2025-05-19T13:13:52Z</time>
      </trkpt>
      <trkpt lat="45.100761959329247" lon="7.585799982771277">
        <ele>297.18000000000001</ele>
        <time>2025-05-19T13:13:59Z</time>
      </trkpt>
      <trkpt lat="45.101734008640051" lon="7.589314011856914">
        <ele>295.74000000000001</ele>
        <time>2025-05-19T13:14:09Z</time>
      </trkpt>
      <trkpt lat="45.102628022432327" lon="7.592565016821027">
        <ele>295.25999999999999</ele>
        <time>2025-05-19T13:14:18Z</time>
      </trkpt>
      <trkpt lat="45.103315003216267" lon="7.595111019909382">
        <ele>292.86000000000001</ele>
        <time>2025-05-19T13:14:25Z</time>
      </trkpt>
      <trkpt lat="45.104777980595827" lon="7.600335963070393">
        <ele>289.00999999999999</ele>
        <time>2025-05-19T13:14:40Z</time>
      </trkpt>
      <trkpt lat="45.105837034061551" lon="7.603883016854525">
        <ele>287.56999999999999</ele>
        <time>2025-05-19T13:14:50Z</time>
      </trkpt>
      <trkpt lat="45.107265980914235" lon="7.607577005401254">
        <ele>285.64999999999998</ele>
        <time>2025-05-19T13:15:01Z</time>
      </trkpt>
      <trkpt lat="45.108769023790956" lon="7.610848965123296">
        <ele>283.73000000000002</ele>
        <time>2025-05-19T13:15:11Z</time>
      </trkpt>
      <trkpt lat="45.110997017472982" lon="7.615536041557789">
        <ele>284.69</ele>
        <time>2025-05-19T13:15:26Z</time>
      </trkpt>
      <trkpt lat="45.112682031467557" lon="7.619108995422721">
        <ele>281.80000000000001</ele>
        <time>2025-05-19T13:15:37Z</time>
      </trkpt>
      <trkpt lat="45.113861029967666" lon="7.621605964377523">
        <ele>280.83999999999997</ele>
        <time>2025-05-19T13:15:45Z</time>
      </trkpt>
      <trkpt lat="45.11400100775063" lon="7.62192003428936">
        <ele>280.83999999999997</ele>
        <time>2025-05-19T13:15:46Z</time>
      </trkpt>
      <trkpt lat="45.115831028670073" lon="7.626277031376958">
        <ele>278.44</ele>
        <time>2025-05-19T13:15:59Z</time>
      </trkpt>
      <trkpt lat="45.11713600717485" lon="7.630309984087944">
        <ele>273.63</ele>
        <time>2025-05-19T13:16:11Z</time>
      </trkpt>
      <trkpt lat="45.118493959307671" lon="7.634546030312777">
        <ele>269.31</ele>
        <time>2025-05-19T13:16:23Z</time>
      </trkpt>
      <trkpt lat="45.120175033807755" lon="7.639823025092483">
        <ele>262.10000000000002</ele>
        <time>2025-05-19T13:16:38Z</time>
      </trkpt>
      <trkpt lat="45.121398037299514" lon="7.643668977543712">
        <ele>260.64999999999998</ele>
        <time>2025-05-19T13:16:49Z</time>
      </trkpt>
      <trkpt lat="45.122543005272746" lon="7.647174960002303">
        <ele>257.76999999999998</ele>
        <time>2025-05-19T13:16:59Z</time>
      </trkpt>
      <trkpt lat="45.123674981296062" lon="7.650736011564732">
        <ele>255.84999999999999</ele>
        <time>2025-05-19T13:17:09Z</time>
      </trkpt>
      <trkpt lat="45.124703021720052" lon="7.653961032629013">
        <ele>254.88999999999999</ele>
        <time>2025-05-19T13:17:18Z</time>
      </trkpt>
      <trkpt lat="45.126176979392767" lon="7.658866960555315">
        <ele>249.59999999999999</ele>
        <time>2025-05-19T13:17:32Z</time>
      </trkpt>
      <trkpt lat="45.126621974632144" lon="7.66145302914083">
        <ele>242.87</ele>
        <time>2025-05-19T13:17:39Z</time>
      </trkpt>
      <trkpt lat="45.12697895988822" lon="7.665349021553993">
        <ele>240.47</ele>
        <time>2025-05-19T13:17:49Z</time>
      </trkpt>
      <trkpt lat="45.127290012314916" lon="7.669118028134108">
        <ele>239.02000000000001</ele>
        <time>2025-05-19T13:17:59Z</time>
      </trkpt>
      <trkpt lat="45.127723021432757" lon="7.67434598878026">
        <ele>238.53999999999999</ele>
        <time>2025-05-19T13:18:13Z</time>
      </trkpt>
      <trkpt lat="45.128196012228727" lon="7.680040989071131">
        <ele>237.09999999999999</ele>
        <time>2025-05-19T13:18:28Z</time>
      </trkpt>
      <trkpt lat="45.128694986924529" lon="7.686132034286857">
        <ele>235.18000000000001</ele>
        <time>2025-05-19T13:18:44Z</time>
      </trkpt>
      <trkpt lat="45.128928003832698" lon="7.688961010426283">
        <ele>235.66</ele>
        <time>2025-05-19T13:18:52Z</time>
      </trkpt>
      <trkpt lat="45.129316002130508" lon="7.69318800419569">
        <ele>234.69999999999999</ele>
        <time>2025-05-19T13:19:05Z</time>
      </trkpt>
      <trkpt lat="45.129866022616625" lon="7.696943012997508">
        <ele>233.74000000000001</ele>
        <time>2025-05-19T13:19:15Z</time>
      </trkpt>
      <trkpt lat="45.130646964535117" lon="7.70025696605444">
        <ele>231.81</ele>
        <time>2025-05-19T13:19:26Z</time>
      </trkpt>
      <trkpt lat="45.131457997485995" lon="7.702970020473003">
        <ele>226.53</ele>
        <time>2025-05-19T13:19:36Z</time>
      </trkpt>
      <trkpt lat="45.131978010758758" lon="7.704523019492626">
        <ele>227.00999999999999</ele>
        <time>2025-05-19T13:19:43Z</time>
      </trkpt>
      <trkpt lat="45.132823996245861" lon="7.707081008702517">
        <ele>229.88999999999999</ele>
        <time>2025-05-19T13:19:53Z</time>
      </trkpt>
      <trkpt lat="45.133551964536309" lon="7.709230966866016">
        <ele>229.88999999999999</ele>
        <time>2025-05-19T13:20:03Z</time>
      </trkpt>
      <trkpt lat="45.133561016991735" lon="7.70964402705431">
        <ele>229.88999999999999</ele>
        <time>2025-05-19T13:20:05Z</time>
      </trkpt>
      <trkpt lat="45.133598987013102" lon="7.709827004000545">
        <ele>228.93000000000001</ele>
        <time>2025-05-19T13:20:07Z</time>
      </trkpt>
      <trkpt lat="45.133598987013102" lon="7.710201004520059">
        <ele>228.44999999999999</ele>
        <time>2025-05-19T13:20:08Z</time>
      </trkpt>
      <trkpt lat="45.133585995063186" lon="7.71039898507297">
        <ele>227.49000000000001</ele>
        <time>2025-05-19T13:20:09Z</time>
      </trkpt>
      <trkpt lat="45.133569985628128" lon="7.710607023909688">
        <ele>227.49000000000001</ele>
        <time>2025-05-19T13:20:10Z</time>
      </trkpt>
      <trkpt lat="45.133276032283902" lon="7.71247903816402">
        <ele>227.49000000000001</ele>
        <time>2025-05-19T13:20:19Z</time>
      </trkpt>
      <trkpt lat="45.13329598121345" lon="7.712916992604733">
        <ele>227.97</ele>
        <time>2025-05-19T13:20:21Z</time>
      </trkpt>
      <trkpt lat="45.133347027003765" lon="7.713138023391366">
        <ele>227.97</ele>
        <time>2025-05-19T13:20:22Z</time>
      </trkpt>
      <trkpt lat="45.133397988975048" lon="7.713355030864477">
        <ele>227.97</ele>
        <time>2025-05-19T13:20:23Z</time>
      </trkpt>
      <trkpt lat="45.133446017280221" lon="7.713560974225402">
        <ele>227.97</ele>
        <time>2025-05-19T13:20:24Z</time>
      </trkpt>
      <trkpt lat="45.133515000343323" lon="7.713759960606694">
        <ele>227.97</ele>
        <time>2025-05-19T13:20:25Z</time>
      </trkpt>
      <trkpt lat="45.134085975587368" lon="7.714976007118821">
        <ele>227.00999999999999</ele>
        <time>2025-05-19T13:20:33Z</time>
      </trkpt>
      <trkpt lat="45.134373977780342" lon="7.715718979015946">
        <ele>227.49000000000001</ele>
        <time>2025-05-19T13:20:39Z</time>
      </trkpt>
      <trkpt lat="45.134413037449121" lon="7.71581101231277">
        <ele>227.49000000000001</ele>
        <time>2025-05-19T13:20:40Z</time>
      </trkpt>
      <trkpt lat="45.134600037708879" lon="7.716223988682032">
        <ele>227.97</ele>
        <time>2025-05-19T13:20:48Z</time>
      </trkpt>
      <trkpt lat="45.134600037708879" lon="7.716223988682032">
        <ele>227.49000000000001</ele>
        <time>2025-05-19T13:21:04Z</time>
      </trkpt>
      <trkpt lat="45.134609006345272" lon="7.716246033087373">
        <ele>227.00999999999999</ele>
        <time>2025-05-19T13:21:19Z</time>
      </trkpt>
      <trkpt lat="45.134609006345272" lon="7.716246033087373">
        <ele>227.00999999999999</ele>
        <time>2025-05-19T13:21:47Z</time>
      </trkpt>
      <trkpt lat="45.134609006345272" lon="7.716246033087373">
        <ele>226.53</ele>
        <time>2025-05-19T13:22:15Z</time>
      </trkpt>
      <trkpt lat="45.134609006345272" lon="7.716246033087373">
        <ele>226.05000000000001</ele>
        <time>2025-05-19T13:23:06Z</time>
      </trkpt>
      <trkpt lat="45.134661979973316" lon="7.716358015313745">
        <ele>225.56999999999999</ele>
        <time>2025-05-19T13:23:30Z</time>
      </trkpt>
      <trkpt lat="45.134739009663463" lon="7.716510985046625">
        <ele>226.53</ele>
        <time>2025-05-19T13:23:35Z</time>
      </trkpt>
      <trkpt lat="45.134779997169971" lon="7.716593965888023">
        <ele>226.53</ele>
        <time>2025-05-19T13:23:36Z</time>
      </trkpt>
      <trkpt lat="45.135144023224711" lon="7.717061005532742">
        <ele>224.61000000000001</ele>
        <time>2025-05-19T13:23:41Z</time>
      </trkpt>
      <trkpt lat="45.135663030669093" lon="7.717689983546734">
        <ele>223.63999999999999</ele>
        <time>2025-05-19T13:23:46Z</time>
      </trkpt>
      <trkpt lat="45.13576696626842" lon="7.717857034876943">
        <ele>223.63999999999999</ele>
        <time>2025-05-19T13:23:47Z</time>
      </trkpt>
      <trkpt lat="45.135870985686779" lon="7.71802400238812">
        <ele>224.12</ele>
        <time>2025-05-19T13:23:48Z</time>
      </trkpt>
      <trkpt lat="45.135960001498461" lon="7.718235980719328">
        <ele>224.12</ele>
        <time>2025-05-19T13:23:49Z</time>
      </trkpt>
      <trkpt lat="45.136053040623665" lon="7.718456005677581">
        <ele>224.12</ele>
        <time>2025-05-19T13:23:50Z</time>
      </trkpt>
      <trkpt lat="45.13666701503098" lon="7.720071030780673">
        <ele>224.61000000000001</ele>
        <time>2025-05-19T13:23:58Z</time>
      </trkpt>
      <trkpt lat="45.137141011655331" lon="7.721596034243703">
        <ele>225.56999999999999</ele>
        <time>2025-05-19T13:24:06Z</time>
      </trkpt>
      <trkpt lat="45.137284006923437" lon="7.723327986896038">
        <ele>226.53</ele>
        <time>2025-05-19T13:24:13Z</time>
      </trkpt>
      <trkpt lat="45.137258023023605" lon="7.723593022674322">
        <ele>226.53</ele>
        <time>2025-05-19T13:24:14Z</time>
      </trkpt>
      <trkpt lat="45.137214018031955" lon="7.723860992118716">
        <ele>226.53</ele>
        <time>2025-05-19T13:24:15Z</time>
      </trkpt>
      <trkpt lat="45.137155009433627" lon="7.724119992926717">
        <ele>226.05000000000001</ele>
        <time>2025-05-19T13:24:16Z</time>
      </trkpt>
      <trkpt lat="45.136921992525458" lon="7.724858019500971">
        <ele>225.09</ele>
        <time>2025-05-19T13:24:19Z</time>
      </trkpt>
      <trkpt lat="45.136806992813945" lon="7.725069997832179">
        <ele>225.09</ele>
        <time>2025-05-19T13:24:20Z</time>
      </trkpt>
      <trkpt lat="45.13668998144567" lon="7.72526596672833">
        <ele>224.61000000000001</ele>
        <time>2025-05-19T13:24:21Z</time>
      </trkpt>
      <trkpt lat="45.136353028938174" lon="7.725533014163375">
        <ele>224.12</ele>
        <time>2025-05-19T13:24:24Z</time>
      </trkpt>
      <trkpt lat="45.134952999651432" lon="7.726449994370341">
        <ele>223.63999999999999</ele>
        <time>2025-05-19T13:24:31Z</time>
      </trkpt>
      <trkpt lat="45.133625976741314" lon="7.726394003257155">
        <ele>224.12</ele>
        <time>2025-05-19T13:24:37Z</time>
      </trkpt>
      <trkpt lat="45.131901986896992" lon="7.725724959746003">
        <ele>227.97</ele>
        <time>2025-05-19T13:24:45Z</time>
      </trkpt>
      <trkpt lat="45.131699983030558" lon="7.725724959746003">
        <ele>228.44999999999999</ele>
        <time>2025-05-19T13:24:46Z</time>
      </trkpt>
      <trkpt lat="45.131503008306026" lon="7.725755972787738">
        <ele>228.93000000000001</ele>
        <time>2025-05-19T13:24:47Z</time>
      </trkpt>
      <trkpt lat="45.131278960034251" lon="7.725792014971376">
        <ele>229.41</ele>
        <time>2025-05-19T13:24:48Z</time>
      </trkpt>
      <trkpt lat="45.131120961159468" lon="7.725878013297916">
        <ele>229.88999999999999</ele>
        <time>2025-05-19T13:24:49Z</time>
      </trkpt>
      <trkpt lat="45.130948964506388" lon="7.726035006344318">
        <ele>230.37</ele>
        <time>2025-05-19T13:24:50Z</time>
      </trkpt>
      <trkpt lat="45.130806975066662" lon="7.726221000775695">
        <ele>230.84999999999999</ele>
        <time>2025-05-19T13:24:51Z</time>
      </trkpt>
      <trkpt lat="45.13067496009171" lon="7.726417975500226">
        <ele>231.33000000000001</ele>
        <time>2025-05-19T13:24:52Z</time>
      </trkpt>
      <trkpt lat="45.130554009228945" lon="7.726649986580014">
        <ele>231.81</ele>
        <time>2025-05-19T13:24:53Z</time>
      </trkpt>
      <trkpt lat="45.130473962053657" lon="7.726915022358298">
        <ele>231.81</ele>
        <time>2025-05-19T13:24:54Z</time>
      </trkpt>
      <trkpt lat="45.130434986203909" lon="7.727185003459454">
        <ele>231.33000000000001</ele>
        <time>2025-05-19T13:24:55Z</time>
      </trkpt>
      <trkpt lat="45.130395004525781" lon="7.727453978732228">
        <ele>231.33000000000001</ele>
        <time>2025-05-19T13:24:56Z</time>
      </trkpt>
      <trkpt lat="45.130397016182542" lon="7.727756984531879">
        <ele>230.37</ele>
        <time>2025-05-19T13:24:57Z</time>
      </trkpt>
      <trkpt lat="45.13043599203229" lon="7.728046998381615">
        <ele>229.88999999999999</ele>
        <time>2025-05-19T13:24:58Z</time>
      </trkpt>
      <trkpt lat="45.130501035600901" lon="7.728317985311151">
        <ele>229.41</ele>
        <time>2025-05-19T13:24:59Z</time>
      </trkpt>
      <trkpt lat="45.130600025877357" lon="7.728576986119151">
        <ele>228.93000000000001</ele>
        <time>2025-05-19T13:25:00Z</time>
      </trkpt>
      <trkpt lat="45.130717037245631" lon="7.728811008855701">
        <ele>228.44999999999999</ele>
        <time>2025-05-19T13:25:01Z</time>
      </trkpt>
      <trkpt lat="45.130873024463654" lon="7.729013012722135">
        <ele>227.97</ele>
        <time>2025-05-19T13:25:02Z</time>
      </trkpt>
      <trkpt lat="45.13103898614645" lon="7.729191966354847">
        <ele>227.00999999999999</ele>
        <time>2025-05-19T13:25:03Z</time>
      </trkpt>
      <trkpt lat="45.131220035254955" lon="7.729334961622953">
        <ele>226.53</ele>
        <time>2025-05-19T13:25:04Z</time>
      </trkpt>
      <trkpt lat="45.131413992494345" lon="7.729487009346485">
        <ele>225.56999999999999</ele>
        <time>2025-05-19T13:25:05Z</time>
      </trkpt>
      <trkpt lat="45.131633011624217" lon="7.729617012664676">
        <ele>225.09</ele>
        <time>2025-05-19T13:25:06Z</time>
      </trkpt>
      <trkpt lat="45.13260698877275" lon="7.73031497374177">
        <ele>223.16</ele>
        <time>2025-05-19T13:25:11Z</time>
      </trkpt>
      <trkpt lat="45.132741015404463" lon="7.730515971779823">
        <ele>222.68000000000001</ele>
        <time>2025-05-19T13:25:12Z</time>
      </trkpt>
      <trkpt lat="45.132876969873905" lon="7.730730967596173">
        <ele>222.19999999999999</ele>
        <time>2025-05-19T13:25:13Z</time>
      </trkpt>
      <trkpt lat="45.133151980116963" lon="7.731168000027537">
        <ele>221.24000000000001</ele>
        <time>2025-05-19T13:25:15Z</time>
      </trkpt>
      <trkpt lat="45.133285000920296" lon="7.731400011107326">
        <ele>219.80000000000001</ele>
        <time>2025-05-19T13:25:17Z</time>
      </trkpt>
      <trkpt lat="45.134600037708879" lon="7.734034024178982">
        <ele>217.88</ele>
        <time>2025-05-19T13:25:25Z</time>
      </trkpt>
      <trkpt lat="45.135621037334204" lon="7.736085997894406">
        <ele>216.91</ele>
        <time>2025-05-19T13:25:32Z</time>
      </trkpt>
      <trkpt lat="45.136404996737838" lon="7.737658023834229">
        <ele>214.99000000000001</ele>
        <time>2025-05-19T13:25:38Z</time>
      </trkpt>
      <trkpt lat="45.136535000056028" lon="7.737925993278623">
        <ele>214.50999999999999</ele>
        <time>2025-05-19T13:25:39Z</time>
      </trkpt>
      <trkpt lat="45.137443011626601" lon="7.739816028624773">
        <ele>213.55000000000001</ele>
        <time>2025-05-19T13:25:47Z</time>
      </trkpt>
      <trkpt lat="45.137611990794539" lon="7.740155998617411">
        <ele>214.03</ele>
        <time>2025-05-19T13:25:49Z</time>
      </trkpt>
      <trkpt lat="45.137682985514402" lon="7.740299999713898">
        <ele>213.55000000000001</ele>
        <time>2025-05-19T13:25:50Z</time>
      </trkpt>
      <trkpt lat="45.137742999941111" lon="7.740423968061805">
        <ele>213.55000000000001</ele>
        <time>2025-05-19T13:25:51Z</time>
      </trkpt>
      <trkpt lat="45.137686002999544" lon="7.740773996338248">
        <ele>213.06999999999999</ele>
        <time>2025-05-19T13:25:53Z</time>
      </trkpt>
      <trkpt lat="45.137748029083014" lon="7.740919003263116">
        <ele>213.55000000000001</ele>
        <time>2025-05-19T13:25:54Z</time>
      </trkpt>
      <trkpt lat="45.137808965519071" lon="7.741040959954262">
        <ele>214.03</ele>
        <time>2025-05-19T13:25:55Z</time>
      </trkpt>
      <trkpt lat="45.138019016012549" lon="7.741460977122188">
        <ele>215.47</ele>
        <time>2025-05-19T13:25:59Z</time>
      </trkpt>
      <trkpt lat="45.138049023225904" lon="7.741521997377276">
        <ele>215.47</ele>
        <time>2025-05-19T13:26:00Z</time>
      </trkpt>
      <trkpt lat="45.138047011569142" lon="7.741595003753901">
        <ele>215.94999999999999</ele>
        <time>2025-05-19T13:26:01Z</time>
      </trkpt>
      <trkpt lat="45.138034019619226" lon="7.741649989038706">
        <ele>216.43000000000001</ele>
        <time>2025-05-19T13:26:02Z</time>
      </trkpt>
      <trkpt lat="45.138023961335421" lon="7.741696005687118">
        <ele>216.91</ele>
        <time>2025-05-19T13:26:03Z</time>
      </trkpt>
      <trkpt lat="45.138013986870646" lon="7.741737999022007">
        <ele>216.91</ele>
        <time>2025-05-19T13:26:04Z</time>
      </trkpt>
      <trkpt lat="45.138006024062634" lon="7.741774041205645">
        <ele>217.40000000000001</ele>
        <time>2025-05-19T13:26:05Z</time>
      </trkpt>
      <trkpt lat="45.138014992699027" lon="7.741860039532185">
        <ele>218.84</ele>
        <time>2025-05-19T13:26:08Z</time>
      </trkpt>
      <trkpt lat="45.138023961335421" lon="7.741879988461733">
        <ele>219.31999999999999</ele>
        <time>2025-05-19T13:26:09Z</time>
      </trkpt>
      <trkpt lat="45.138038964942098" lon="7.741909995675087">
        <ele>219.80000000000001</ele>
        <time>2025-05-19T13:26:10Z</time>
      </trkpt>
      <trkpt lat="45.138057991862297" lon="7.741947965696454">
        <ele>219.80000000000001</ele>
        <time>2025-05-19T13:26:11Z</time>
      </trkpt>
      <trkpt lat="45.138071989640594" lon="7.741975961253047">
        <ele>220.28</ele>
        <time>2025-05-19T13:26:12Z</time>
      </trkpt>
      <trkpt lat="45.138082969933748" lon="7.741998005658388">
        <ele>220.28</ele>
        <time>2025-05-19T13:26:13Z</time>
      </trkpt>
      <trkpt lat="45.138082969933748" lon="7.741998005658388">
        <ele>220.28</ele>
        <time>2025-05-19T13:26:28Z</time>
      </trkpt>
      <trkpt lat="45.138082969933748" lon="7.741998005658388">
        <ele>220.28</ele>
        <time>2025-05-19T13:26:49Z</time>
      </trkpt>
      <trkpt lat="45.138082969933748" lon="7.741998005658388">
        <ele>220.28</ele>
        <time>2025-05-19T13:27:11Z</time>
      </trkpt>
      <trkpt lat="45.138124041259289" lon="7.742077969014645">
        <ele>220.75999999999999</ele>
        <time>2025-05-19T13:27:38Z</time>
      </trkpt>
      <trkpt lat="45.138290002942085" lon="7.742234962061048">
        <ele>221.72</ele>
        <time>2025-05-19T13:40:39Z</time>
      </trkpt>
      <trkpt lat="45.138280028477311" lon="7.742267986759543">
        <ele>222.68000000000001</ele>
        <time>2025-05-19T13:41:10Z</time>
      </trkpt>
      <trkpt lat="45.138327972963452" lon="7.74215298704803">
        <ele>223.16</ele>
        <time>2025-05-19T13:41:12Z</time>
      </trkpt>
      <trkpt lat="45.138359991833568" lon="7.742163967341185">
        <ele>223.16</ele>
        <time>2025-05-19T13:41:13Z</time>
      </trkpt>
      <trkpt lat="45.138398967683315" lon="7.742250971496105">
        <ele>222.68000000000001</ele>
        <time>2025-05-19T13:41:14Z</time>
      </trkpt>
      <trkpt lat="45.138435009866953" lon="7.742329007014632">
        <ele>222.68000000000001</ele>
        <time>2025-05-19T13:41:15Z</time>
      </trkpt>
      <trkpt lat="45.138467028737068" lon="7.742400001734495">
        <ele>222.19999999999999</ele>
        <time>2025-05-19T13:41:16Z</time>
      </trkpt>
      <trkpt lat="45.138613963499665" lon="7.742547020316124">
        <ele>221.72</ele>
        <time>2025-05-19T13:41:18Z</time>
      </trkpt>
      <trkpt lat="45.138788977637887" lon="7.742722034454346">
        <ele>220.28</ele>
        <time>2025-05-19T13:41:20Z</time>
      </trkpt>
      <trkpt lat="45.138872964307666" lon="7.742853965610266">
        <ele>220.28</ele>
        <time>2025-05-19T13:41:21Z</time>
      </trkpt>
      <trkpt lat="45.139480987563729" lon="7.743945959955454">
        <ele>219.80000000000001</ele>
        <time>2025-05-19T13:41:27Z</time>
      </trkpt>
      <trkpt lat="45.14042504131794" lon="7.745834989473224">
        <ele>219.80000000000001</ele>
        <time>2025-05-19T13:41:34Z</time>
      </trkpt>
      <trkpt lat="45.141764972358942" lon="7.748539997264743">
        <ele>218.84</ele>
        <time>2025-05-19T13:41:42Z</time>
      </trkpt>
      <trkpt lat="45.143676968291402" lon="7.752403970807791">
        <ele>219.80000000000001</ele>
        <time>2025-05-19T13:41:53Z</time>
      </trkpt>
      <trkpt lat="45.145552000030875" lon="7.75618202984333">
        <ele>219.80000000000001</ele>
        <time>2025-05-19T13:42:04Z</time>
      </trkpt>
      <trkpt lat="45.147451004013419" lon="7.760043991729617">
        <ele>219.80000000000001</ele>
        <time>2025-05-19T13:42:15Z</time>
      </trkpt>
      <trkpt lat="45.149971023201942" lon="7.765125017613173">
        <ele>219.31999999999999</ele>
        <time>2025-05-19T13:42:29Z</time>
      </trkpt>
      <trkpt lat="45.153077021241188" lon="7.771382024511695">
        <ele>223.16</ele>
        <time>2025-05-19T13:42:46Z</time>
      </trkpt>
      <trkpt lat="45.156019991263747" lon="7.777291014790535">
        <ele>218.36000000000001</ele>
        <time>2025-05-19T13:43:02Z</time>
      </trkpt>
      <trkpt lat="45.158816026523709" lon="7.782771019265056">
        <ele>211.63</ele>
        <time>2025-05-19T13:43:17Z</time>
      </trkpt>
      <trkpt lat="45.16159001737833" lon="7.788284970447421">
        <ele>210.66999999999999</ele>
        <time>2025-05-19T13:43:32Z</time>
      </trkpt>
      <trkpt lat="45.163774006068707" lon="7.792746992781758">
        <ele>211.15000000000001</ele>
        <time>2025-05-19T13:43:44Z</time>
      </trkpt>
      <trkpt lat="45.166494017466903" lon="7.798323975875974">
        <ele>210.66999999999999</ele>
        <time>2025-05-19T13:43:59Z</time>
      </trkpt>
      <trkpt lat="45.169425001367927" lon="7.804230032488704">
        <ele>213.06999999999999</ele>
        <time>2025-05-19T13:44:15Z</time>
      </trkpt>
      <trkpt lat="45.172365959733725" lon="7.810146985575557">
        <ele>214.50999999999999</ele>
        <time>2025-05-19T13:44:31Z</time>
      </trkpt>
      <trkpt lat="45.17529996111989" lon="7.816044995561242">
        <ele>205.86000000000001</ele>
        <time>2025-05-19T13:44:47Z</time>
      </trkpt>
      <trkpt lat="45.17660703510046" lon="7.818674985319376">
        <ele>204.90000000000001</ele>
        <time>2025-05-19T13:44:54Z</time>
      </trkpt>
      <trkpt lat="45.178136983886361" lon="7.821731027215719">
        <ele>205.38</ele>
        <time>2025-05-19T13:45:02Z</time>
      </trkpt>
      <trkpt lat="45.180546026676893" lon="7.826580964028835">
        <ele>203.94</ele>
        <time>2025-05-19T13:45:15Z</time>
      </trkpt>
      <trkpt lat="45.182803021743894" lon="7.831118004396558">
        <ele>201.05000000000001</ele>
        <time>2025-05-19T13:45:27Z</time>
      </trkpt>
      <trkpt lat="45.184649974107742" lon="7.83482096157968">
        <ele>198.16999999999999</ele>
        <time>2025-05-19T13:45:37Z</time>
      </trkpt>
      <trkpt lat="45.18578102812171" lon="7.837075022980571">
        <ele>200.09</ele>
        <time>2025-05-19T13:45:45Z</time>
      </trkpt>
      <trkpt lat="45.186989028006792" lon="7.839401001110673">
        <ele>199.13</ele>
        <time>2025-05-19T13:45:53Z</time>
      </trkpt>
      <trkpt lat="45.188756017014384" lon="7.842862978577614">
        <ele>198.16999999999999</ele>
        <time>2025-05-19T13:46:05Z</time>
      </trkpt>
      <trkpt lat="45.190352015197277" lon="7.846113983541727">
        <ele>199.61000000000001</ele>
        <time>2025-05-19T13:46:16Z</time>
      </trkpt>
      <trkpt lat="45.191375026479363" lon="7.848295038565993">
        <ele>198.16999999999999</ele>
        <time>2025-05-19T13:46:23Z</time>
      </trkpt>
      <trkpt lat="45.193148972466588" lon="7.852188013494015">
        <ele>198.16999999999999</ele>
        <time>2025-05-19T13:46:34Z</time>
      </trkpt>
      <trkpt lat="45.195496995002031" lon="7.857360988855362">
        <ele>200.09</ele>
        <time>2025-05-19T13:46:48Z</time>
      </trkpt>
      <trkpt lat="45.197956999763846" lon="7.863173000514507">
        <ele>197.21000000000001</ele>
        <time>2025-05-19T13:47:03Z</time>
      </trkpt>
      <trkpt lat="45.200772983953357" lon="7.869738964363933">
        <ele>195.28</ele>
        <time>2025-05-19T13:47:20Z</time>
      </trkpt>
      <trkpt lat="45.20350799895823" lon="7.875844007357955">
        <ele>205.38</ele>
        <time>2025-05-19T13:47:36Z</time>
      </trkpt>
      <trkpt lat="45.205848980695009" lon="7.881242036819458">
        <ele>204.90000000000001</ele>
        <time>2025-05-19T13:47:50Z</time>
      </trkpt>
      <trkpt lat="45.208682985976338" lon="7.887770030647516">
        <ele>204.41999999999999</ele>
        <time>2025-05-19T13:48:07Z</time>
      </trkpt>
      <trkpt lat="45.211021034047008" lon="7.893154984340072">
        <ele>203.94</ele>
        <time>2025-05-19T13:48:21Z</time>
      </trkpt>
      <trkpt lat="45.213334020227194" lon="7.898576986044645">
        <ele>204.41999999999999</ele>
        <time>2025-05-19T13:48:35Z</time>
      </trkpt>
      <trkpt lat="45.215419018641114" lon="7.903645019978285">
        <ele>203.94</ele>
        <time>2025-05-19T13:48:48Z</time>
      </trkpt>
      <trkpt lat="45.21734400652349" lon="7.908337963744998">
        <ele>205.86000000000001</ele>
        <time>2025-05-19T13:49:00Z</time>
      </trkpt>
      <trkpt lat="45.220061000436544" lon="7.914991015568376">
        <ele>204.90000000000001</ele>
        <time>2025-05-19T13:49:17Z</time>
      </trkpt>
      <trkpt lat="45.222317995503545" lon="7.920489041134715">
        <ele>209.22</ele>
        <time>2025-05-19T13:49:31Z</time>
      </trkpt>
      <trkpt lat="45.224081967025995" lon="7.924795998260379">
        <ele>210.66999999999999</ele>
        <time>2025-05-19T13:49:42Z</time>
      </trkpt>
      <trkpt lat="45.226318007335067" lon="7.930260999128223">
        <ele>210.66999999999999</ele>
        <time>2025-05-19T13:49:56Z</time>
      </trkpt>
      <trkpt lat="45.228240983560681" lon="7.934951009228826">
        <ele>209.22</ele>
        <time>2025-05-19T13:50:08Z</time>
      </trkpt>
      <trkpt lat="45.230327993631363" lon="7.940016025677323">
        <ele>208.74000000000001</ele>
        <time>2025-05-19T13:50:21Z</time>
      </trkpt>
      <trkpt lat="45.232723038643599" lon="7.945889979600906">
        <ele>208.25999999999999</ele>
        <time>2025-05-19T13:50:36Z</time>
      </trkpt>
      <trkpt lat="45.234863022342324" lon="7.951313992962241">
        <ele>208.74000000000001</ele>
        <time>2025-05-19T13:50:50Z</time>
      </trkpt>
      <trkpt lat="45.235879998654127" lon="7.95404196716845">
        <ele>208.25999999999999</ele>
        <time>2025-05-19T13:50:59Z</time>
      </trkpt>
      <trkpt lat="45.237069977447391" lon="7.957528000697494">
        <ele>207.30000000000001</ele>
        <time>2025-05-19T13:51:11Z</time>
      </trkpt>
      <trkpt lat="45.238033980131149" lon="7.960653025656939">
        <ele>209.22</ele>
        <time>2025-05-19T13:51:22Z</time>
      </trkpt>
      <trkpt lat="45.238738982006907" lon="7.962884036824107">
        <ele>210.19</ele>
        <time>2025-05-19T13:51:31Z</time>
      </trkpt>
      <trkpt lat="45.239018015563488" lon="7.963788025081158">
        <ele>210.19</ele>
        <time>2025-05-19T13:51:37Z</time>
      </trkpt>
      <trkpt lat="45.239095967262983" lon="7.964054988697171">
        <ele>210.19</ele>
        <time>2025-05-19T13:51:42Z</time>
      </trkpt>
      <trkpt lat="45.239095967262983" lon="7.964054988697171">
        <ele>210.19</ele>
        <time>2025-05-19T13:51:57Z</time>
      </trkpt>
      <trkpt lat="45.239095967262983" lon="7.964054988697171">
        <ele>210.19</ele>
        <time>2025-05-19T13:52:09Z</time>
      </trkpt>
      <trkpt lat="45.239123040810227" lon="7.964142998680472">
        <ele>210.19</ele>
        <time>2025-05-19T13:52:10Z</time>
      </trkpt>
      <trkpt lat="45.239147013053298" lon="7.964219022542238">
        <ele>210.19</ele>
        <time>2025-05-19T13:52:11Z</time>
      </trkpt>
      <trkpt lat="45.239180959761143" lon="7.964325975626707">
        <ele>210.66999999999999</ele>
        <time>2025-05-19T13:52:12Z</time>
      </trkpt>
      <trkpt lat="45.239219013601542" lon="7.964446004480124">
        <ele>210.66999999999999</ele>
        <time>2025-05-19T13:52:13Z</time>
      </trkpt>
      <trkpt lat="45.239262012764812" lon="7.964580031111836">
        <ele>210.66999999999999</ele>
        <time>2025-05-19T13:52:14Z</time>
      </trkpt>
      <trkpt lat="45.239599971100688" lon="7.96559801325202">
        <ele>210.66999999999999</ele>
        <time>2025-05-19T13:52:19Z</time>
      </trkpt>
      <trkpt lat="45.240346966311336" lon="7.967660967260599">
        <ele>207.78</ele>
        <time>2025-05-19T13:52:27Z</time>
      </trkpt>
      <trkpt lat="45.241190018132329" lon="7.970041008666158">
        <ele>204.41999999999999</ele>
        <time>2025-05-19T13:52:34Z</time>
      </trkpt>
      <trkpt lat="45.242506982758641" lon="7.974016964435577">
        <ele>198.16999999999999</ele>
        <time>2025-05-19T13:52:44Z</time>
      </trkpt>
      <trkpt lat="45.244764983654022" lon="7.980517968535423">
        <ele>194.80000000000001</ele>
        <time>2025-05-19T13:53:00Z</time>
      </trkpt>
      <trkpt lat="45.247220965102315" lon="7.986363004893065">
        <ele>194.31999999999999</ele>
        <time>2025-05-19T13:53:15Z</time>
      </trkpt>
      <trkpt lat="45.250017000362277" lon="7.991864969953895">
        <ele>192.40000000000001</ele>
        <time>2025-05-19T13:53:30Z</time>
      </trkpt>
      <trkpt lat="45.252661993727088" lon="7.996370997279882">
        <ele>203.46000000000001</ele>
        <time>2025-05-19T13:53:43Z</time>
      </trkpt>
      <trkpt lat="45.255042035132647" lon="8.000022992491722">
        <ele>211.15000000000001</ele>
        <time>2025-05-19T13:53:54Z</time>
      </trkpt>
      <trkpt lat="45.258090030401945" lon="8.004024010151625">
        <ele>211.63</ele>
        <time>2025-05-19T13:54:07Z</time>
      </trkpt>
      <trkpt lat="45.260820016264915" lon="8.007155992090702">
        <ele>212.11000000000001</ele>
        <time>2025-05-19T13:54:18Z</time>
      </trkpt>
      <trkpt lat="45.264114020392299" lon="8.010747972875834">
        <ele>213.55000000000001</ele>
        <time>2025-05-19T13:54:31Z</time>
      </trkpt>
      <trkpt lat="45.265876986086369" lon="8.012666003778577">
        <ele>213.06999999999999</ele>
        <time>2025-05-19T13:54:38Z</time>
      </trkpt>
      <trkpt lat="45.269683040678501" lon="8.01679702475667">
        <ele>214.50999999999999</ele>
        <time>2025-05-19T13:54:53Z</time>
      </trkpt>
      <trkpt lat="45.273989997804165" lon="8.021474964916706">
        <ele>214.99000000000001</ele>
        <time>2025-05-19T13:55:10Z</time>
      </trkpt>
      <trkpt lat="45.27677396312356" lon="8.024497982114554">
        <ele>215.47</ele>
        <time>2025-05-19T13:55:21Z</time>
      </trkpt>
      <trkpt lat="45.279046967625618" lon="8.026967039331794">
        <ele>215.94999999999999</ele>
        <time>2025-05-19T13:55:30Z</time>
      </trkpt>
      <trkpt lat="45.281581990420818" lon="8.029719991609454">
        <ele>215.94999999999999</ele>
        <time>2025-05-19T13:55:40Z</time>
      </trkpt>
      <trkpt lat="45.28538997285068" lon="8.033841960132122">
        <ele>214.99000000000001</ele>
        <time>2025-05-19T13:55:55Z</time>
      </trkpt>
      <trkpt lat="45.289195021614432" lon="8.037978010252118">
        <ele>214.50999999999999</ele>
        <time>2025-05-19T13:56:10Z</time>
      </trkpt>
      <trkpt lat="45.29273796826601" lon="8.041841983795166">
        <ele>212.11000000000001</ele>
        <time>2025-05-19T13:56:24Z</time>
      </trkpt>
      <trkpt lat="45.296288961544633" lon="8.04569598287344">
        <ele>212.11000000000001</ele>
        <time>2025-05-19T13:56:38Z</time>
      </trkpt>
      <trkpt lat="45.30059801414609" lon="8.05037803016603">
        <ele>212.11000000000001</ele>
        <time>2025-05-19T13:56:55Z</time>
      </trkpt>
      <trkpt lat="45.303896963596344" lon="8.053951989859343">
        <ele>213.06999999999999</ele>
        <time>2025-05-19T13:57:08Z</time>
      </trkpt>
      <trkpt lat="45.306676989421248" lon="8.056963020935655">
        <ele>213.06999999999999</ele>
        <time>2025-05-19T13:57:19Z</time>
      </trkpt>
      <trkpt lat="45.309162978082895" lon="8.059656964614987">
        <ele>211.15000000000001</ele>
        <time>2025-05-19T13:57:29Z</time>
      </trkpt>
      <trkpt lat="45.314131015911698" lon="8.065048959106207">
        <ele>209.22</ele>
        <time>2025-05-19T13:57:49Z</time>
      </trkpt>
      <trkpt lat="45.318361027166247" lon="8.069622041657567">
        <ele>207.78</ele>
        <time>2025-05-19T13:58:06Z</time>
      </trkpt>
      <trkpt lat="45.322080999612808" lon="8.073658011853695">
        <ele>206.81999999999999</ele>
        <time>2025-05-19T13:58:21Z</time>
      </trkpt>
      <trkpt lat="45.324820037931204" lon="8.076646998524666">
        <ele>208.25999999999999</ele>
        <time>2025-05-19T13:58:32Z</time>
      </trkpt>
      <trkpt lat="45.328301964327693" lon="8.08039203286171">
        <ele>209.69999999999999</ele>
        <time>2025-05-19T13:58:46Z</time>
      </trkpt>
      <trkpt lat="45.332285966724157" lon="8.084722962230444">
        <ele>210.66999999999999</ele>
        <time>2025-05-19T13:59:02Z</time>
      </trkpt>
      <trkpt lat="45.335819022729993" lon="8.088542008772492">
        <ele>209.69999999999999</ele>
        <time>2025-05-19T13:59:16Z</time>
      </trkpt>
      <trkpt lat="45.339350989088416" lon="8.092376980930567">
        <ele>210.19</ele>
        <time>2025-05-19T13:59:30Z</time>
      </trkpt>
      <trkpt lat="45.341396005824208" lon="8.0945960059762">
        <ele>209.22</ele>
        <time>2025-05-19T13:59:39Z</time>
      </trkpt>
      <trkpt lat="45.343844024464488" lon="8.097253991290927">
        <ele>209.69999999999999</ele>
        <time>2025-05-19T13:59:51Z</time>
      </trkpt>
      <trkpt lat="45.346328001469374" lon="8.099940977990627">
        <ele>208.25999999999999</ele>
        <time>2025-05-19T14:00:03Z</time>
      </trkpt>
      <trkpt lat="45.34883301705122" lon="8.102644979953766">
        <ele>209.22</ele>
        <time>2025-05-19T14:00:15Z</time>
      </trkpt>
      <trkpt lat="45.351726030930877" lon="8.105786014348269">
        <ele>210.66999999999999</ele>
        <time>2025-05-19T14:00:29Z</time>
      </trkpt>
      <trkpt lat="45.355449020862579" lon="8.109843023121357">
        <ele>207.30000000000001</ele>
        <time>2025-05-19T14:00:45Z</time>
      </trkpt>
      <trkpt lat="45.358744030818343" lon="8.113418994471431">
        <ele>202.97999999999999</ele>
        <time>2025-05-19T14:00:59Z</time>
      </trkpt>
      <trkpt lat="45.361093981191516" lon="8.115955023095012">
        <ele>201.05000000000001</ele>
        <time>2025-05-19T14:01:10Z</time>
      </trkpt>
      <trkpt lat="45.362086985260248" lon="8.117018016055226">
        <ele>201.53</ele>
        <time>2025-05-19T14:01:16Z</time>
      </trkpt>
      <trkpt lat="45.362559976056218" lon="8.117536017671228">
        <ele>202.97999999999999</ele>
        <time>2025-05-19T14:01:21Z</time>
      </trkpt>
      <trkpt lat="45.362988039851189" lon="8.118002973496914">
        <ele>204.90000000000001</ele>
        <time>2025-05-19T14:01:32Z</time>
      </trkpt>
      <trkpt lat="45.363068003207445" lon="8.118089977651835">
        <ele>204.90000000000001</ele>
        <time>2025-05-19T14:01:37Z</time>
      </trkpt>
      <trkpt lat="45.363364974036813" lon="8.118414022028446">
        <ele>206.81999999999999</ele>
        <time>2025-05-19T14:01:47Z</time>
      </trkpt>
      <trkpt lat="45.364296035841107" lon="8.119429992511869">
        <ele>207.78</ele>
        <time>2025-05-19T14:01:57Z</time>
      </trkpt>
      <trkpt lat="45.365188959985971" lon="8.120401035994291">
        <ele>206.81999999999999</ele>
        <time>2025-05-19T14:02:05Z</time>
      </trkpt>
      <trkpt lat="45.365275964140892" lon="8.120496002957225">
        <ele>206.81999999999999</ele>
        <time>2025-05-19T14:02:06Z</time>
      </trkpt>
      <trkpt lat="45.365680977702141" lon="8.120938986539841">
        <ele>206.81999999999999</ele>
        <time>2025-05-19T14:02:14Z</time>
      </trkpt>
      <trkpt lat="45.366210965439677" lon="8.121518008410931">
        <ele>206.81999999999999</ele>
        <time>2025-05-19T14:02:24Z</time>
      </trkpt>
      <trkpt lat="45.366986040025949" lon="8.122366005554795">
        <ele>206.81999999999999</ele>
        <time>2025-05-19T14:02:30Z</time>
      </trkpt>
      <trkpt lat="45.368462009355426" lon="8.123940965160728">
        <ele>206.34</ele>
        <time>2025-05-19T14:02:38Z</time>
      </trkpt>
      <trkpt lat="45.370281971991062" lon="8.125914987176657">
        <ele>206.81999999999999</ele>
        <time>2025-05-19T14:02:46Z</time>
      </trkpt>
      <trkpt lat="45.373081024736166" lon="8.12895099632442">
        <ele>208.25999999999999</ele>
        <time>2025-05-19T14:02:57Z</time>
      </trkpt>
      <trkpt lat="45.376372011378407" lon="8.132531996816397">
        <ele>213.06999999999999</ele>
        <time>2025-05-19T14:03:10Z</time>
      </trkpt>
      <trkpt lat="45.380662959069014" lon="8.137190993875265">
        <ele>214.99000000000001</ele>
        <time>2025-05-19T14:03:27Z</time>
      </trkpt>
      <trkpt lat="45.383935002610087" lon="8.140735030174255">
        <ele>207.78</ele>
        <time>2025-05-19T14:03:40Z</time>
      </trkpt>
      <trkpt lat="45.387462023645639" lon="8.144576037302613">
        <ele>205.86000000000001</ele>
        <time>2025-05-19T14:03:54Z</time>
      </trkpt>
      <trkpt lat="45.39049400947988" lon="8.147874986752868">
        <ele>203.94</ele>
        <time>2025-05-19T14:04:06Z</time>
      </trkpt>
      <trkpt lat="45.395034989342093" lon="8.152814023196697">
        <ele>199.13</ele>
        <time>2025-05-19T14:04:24Z</time>
      </trkpt>
      <trkpt lat="45.398564022034407" lon="8.156632985919714">
        <ele>206.81999999999999</ele>
        <time>2025-05-19T14:04:38Z</time>
      </trkpt>
      <trkpt lat="45.402363035827875" lon="8.160758977755904">
        <ele>210.19</ele>
        <time>2025-05-19T14:04:53Z</time>
      </trkpt>
      <trkpt lat="45.40564295835793" lon="8.164322040975094">
        <ele>207.30000000000001</ele>
        <time>2025-05-19T14:05:06Z</time>
      </trkpt>
      <trkpt lat="45.408661030232906" lon="8.167626019567251">
        <ele>206.81999999999999</ele>
        <time>2025-05-19T14:05:18Z</time>
      </trkpt>
      <trkpt lat="45.410663969814777" lon="8.16986097022891">
        <ele>203.94</ele>
        <time>2025-05-19T14:05:26Z</time>
      </trkpt>
      <trkpt lat="45.412820968776941" lon="8.172471011057496">
        <ele>203.94</ele>
        <time>2025-05-19T14:05:35Z</time>
      </trkpt>
      <trkpt lat="45.415422040969133" lon="8.175918990746141">
        <ele>205.86000000000001</ele>
        <time>2025-05-19T14:05:46Z</time>
      </trkpt>
      <trkpt lat="45.417898977175355" lon="8.179442994296551">
        <ele>200.56999999999999</ele>
        <time>2025-05-19T14:05:57Z</time>
      </trkpt>
      <trkpt lat="45.420751003548503" lon="8.18367401137948">
        <ele>190.47999999999999</ele>
        <time>2025-05-19T14:06:10Z</time>
      </trkpt>
      <trkpt lat="45.423642005771399" lon="8.188478015363216">
        <ele>192.40000000000001</ele>
        <time>2025-05-19T14:06:24Z</time>
      </trkpt>
      <trkpt lat="45.425907969474792" lon="8.192840041592717">
        <ele>193.36000000000001</ele>
        <time>2025-05-19T14:06:36Z</time>
      </trkpt>
      <trkpt lat="45.427459962666035" lon="8.196248039603233">
        <ele>194.31999999999999</ele>
        <time>2025-05-19T14:06:45Z</time>
      </trkpt>
      <trkpt lat="45.428906008601189" lon="8.199762990698218">
        <ele>194.80000000000001</ele>
        <time>2025-05-19T14:06:54Z</time>
      </trkpt>
      <trkpt lat="45.429646968841553" lon="8.20172100327909">
        <ele>195.77000000000001</ele>
        <time>2025-05-19T14:07:00Z</time>
      </trkpt>
      <trkpt lat="45.431394008919597" lon="8.206601031124592">
        <ele>194.31999999999999</ele>
        <time>2025-05-19T14:07:15Z</time>
      </trkpt>
      <trkpt lat="45.432584993541241" lon="8.21007901802659">
        <ele>193.84</ele>
        <time>2025-05-19T14:07:26Z</time>
      </trkpt>
      <trkpt lat="45.433867005631328" lon="8.214205009862781">
        <ele>192.40000000000001</ele>
        <time>2025-05-19T14:07:40Z</time>
      </trkpt>
      <trkpt lat="45.434790020808578" lon="8.217506976798177">
        <ele>191.44</ele>
        <time>2025-05-19T14:07:50Z</time>
      </trkpt>
      <trkpt lat="45.436025010421872" lon="8.222363032400608">
        <ele>187.59</ele>
        <time>2025-05-19T14:08:03Z</time>
      </trkpt>
      <trkpt lat="45.437148017808795" lon="8.227525027468801">
        <ele>186.15000000000001</ele>
        <time>2025-05-19T14:08:15Z</time>
      </trkpt>
      <trkpt lat="45.438378984108567" lon="8.234556019306183">
        <ele>185.19</ele>
        <time>2025-05-19T14:08:31Z</time>
      </trkpt>
      <trkpt lat="45.43932898901403" lon="8.240251019597054">
        <ele>188.08000000000001</ele>
        <time>2025-05-19T14:08:44Z</time>
      </trkpt>
      <trkpt lat="45.440344037488103" lon="8.246441977098584">
        <ele>188.56</ele>
        <time>2025-05-19T14:08:58Z</time>
      </trkpt>
      <trkpt lat="45.44106999412179" lon="8.250825963914394">
        <ele>178.94</ele>
        <time>2025-05-19T14:09:08Z</time>
      </trkpt>
      <trkpt lat="45.442314958199859" lon="8.258346039801836">
        <ele>177.5</ele>
        <time>2025-05-19T14:09:25Z</time>
      </trkpt>
      <trkpt lat="45.443280972540379" lon="8.263638960197568">
        <ele>174.62</ele>
        <time>2025-05-19T14:09:37Z</time>
      </trkpt>
      <trkpt lat="45.444759959354997" lon="8.272025976330042">
        <ele>169.33000000000001</ele>
        <time>2025-05-19T14:09:56Z</time>
      </trkpt>
      <trkpt lat="45.445933006703854" lon="8.280048966407776">
        <ele>162.59999999999999</ele>
        <time>2025-05-19T14:10:14Z</time>
      </trkpt>
      <trkpt lat="45.446951994672418" lon="8.286240007728338">
        <ele>162.12</ele>
        <time>2025-05-19T14:10:28Z</time>
      </trkpt>
      <trkpt lat="45.447871992364526" lon="8.292014971375465">
        <ele>162.12</ele>
        <time>2025-05-19T14:10:41Z</time>
      </trkpt>
      <trkpt lat="45.448994999751449" lon="8.29868596047163">
        <ele>162.59999999999999</ele>
        <time>2025-05-19T14:10:56Z</time>
      </trkpt>
      <trkpt lat="45.449520964175463" lon="8.301791958510876">
        <ele>159.24000000000001</ele>
        <time>2025-05-19T14:11:03Z</time>
      </trkpt>
      <trkpt lat="45.450241975486279" lon="8.306190026924014">
        <ele>161.63999999999999</ele>
        <time>2025-05-19T14:11:13Z</time>
      </trkpt>
      <trkpt lat="45.451269010081887" lon="8.312388025224209">
        <ele>168.37</ele>
        <time>2025-05-19T14:11:27Z</time>
      </trkpt>
      <trkpt lat="45.452368967235088" lon="8.319057002663612">
        <ele>172.21000000000001</ele>
        <time>2025-05-19T14:11:42Z</time>
      </trkpt>
      <trkpt lat="45.453465990722179" lon="8.325706031173468">
        <ele>174.62</ele>
        <time>2025-05-19T14:11:57Z</time>
      </trkpt>
      <trkpt lat="45.454720007255673" lon="8.333244966343045">
        <ele>168.37</ele>
        <time>2025-05-19T14:12:14Z</time>
      </trkpt>
      <trkpt lat="45.455891964957118" lon="8.340333960950375">
        <ele>167.41</ele>
        <time>2025-05-19T14:12:30Z</time>
      </trkpt>
      <trkpt lat="45.457125026732683" lon="8.347889995202422">
        <ele>174.62</ele>
        <time>2025-05-19T14:12:47Z</time>
      </trkpt>
      <trkpt lat="45.458216015249491" lon="8.354525025933981">
        <ele>172.21000000000001</ele>
        <time>2025-05-19T14:13:02Z</time>
      </trkpt>
      <trkpt lat="45.459034005180001" lon="8.359404969960451">
        <ele>170.77000000000001</ele>
        <time>2025-05-19T14:13:13Z</time>
      </trkpt>
      <trkpt lat="45.460065985098481" lon="8.366080988198519">
        <ele>167.88999999999999</ele>
        <time>2025-05-19T14:13:28Z</time>
      </trkpt>
      <trkpt lat="45.460784984752536" lon="8.372379988431931">
        <ele>169.33000000000001</ele>
        <time>2025-05-19T14:13:42Z</time>
      </trkpt>
      <trkpt lat="45.461257975548506" lon="8.3782650064677">
        <ele>169.33000000000001</ele>
        <time>2025-05-19T14:13:55Z</time>
      </trkpt>
      <trkpt lat="45.461584031581879" lon="8.384185982868075">
        <ele>168.37</ele>
        <time>2025-05-19T14:14:08Z</time>
      </trkpt>
      <trkpt lat="45.462031960487366" lon="8.391896998509765">
        <ele>166.93000000000001</ele>
        <time>2025-05-19T14:14:25Z</time>
      </trkpt>
      <trkpt lat="45.462476033717394" lon="8.397771958261728">
        <ele>170.28999999999999</ele>
        <time>2025-05-19T14:14:38Z</time>
      </trkpt>
      <trkpt lat="45.462814997881651" lon="8.404590971767902">
        <ele>170.28999999999999</ele>
        <time>2025-05-19T14:14:53Z</time>
      </trkpt>
      <trkpt lat="45.463040973991156" lon="8.410959960892797">
        <ele>168.84999999999999</ele>
        <time>2025-05-19T14:15:07Z</time>
      </trkpt>
      <trkpt lat="45.463397037237883" lon="8.417789032682777">
        <ele>167.88999999999999</ele>
        <time>2025-05-19T14:15:22Z</time>
      </trkpt>
      <trkpt lat="45.463638016954064" lon="8.422335041686893">
        <ele>167.88999999999999</ele>
        <time>2025-05-19T14:15:32Z</time>
      </trkpt>
      <trkpt lat="45.463830968365073" lon="8.425955018028617">
        <ele>165</ele>
        <time>2025-05-19T14:15:40Z</time>
      </trkpt>
      <trkpt lat="45.46414696611464" lon="8.431853028014302">
        <ele>164.52000000000001</ele>
        <time>2025-05-19T14:15:53Z</time>
      </trkpt>
      <trkpt lat="45.464308988302946" lon="8.435178967192769">
        <ele>165</ele>
        <time>2025-05-19T14:16:01Z</time>
      </trkpt>
      <trkpt lat="45.464362967759371" lon="8.438868010416627">
        <ele>164.52000000000001</ele>
        <time>2025-05-19T14:16:11Z</time>
      </trkpt>
      <trkpt lat="45.464511997997761" lon="8.442066041752696">
        <ele>168.37</ele>
        <time>2025-05-19T14:16:21Z</time>
      </trkpt>
      <trkpt lat="45.464367996901274" lon="8.444022964686155">
        <ele>172.21000000000001</ele>
        <time>2025-05-19T14:16:28Z</time>
      </trkpt>
      <trkpt lat="45.464161969721317" lon="8.445334983989596">
        <ele>172.21000000000001</ele>
        <time>2025-05-19T14:16:33Z</time>
      </trkpt>
      <trkpt lat="45.464160963892937" lon="8.445593984797597">
        <ele>171.72999999999999</ele>
        <time>2025-05-19T14:16:34Z</time>
      </trkpt>
      <trkpt lat="45.464183008298278" lon="8.445843011140823">
        <ele>171.25</ele>
        <time>2025-05-19T14:16:35Z</time>
      </trkpt>
      <trkpt lat="45.46423296444118" lon="8.446075022220612">
        <ele>170.77000000000001</ele>
        <time>2025-05-19T14:16:36Z</time>
      </trkpt>
      <trkpt lat="45.46431502327323" lon="8.446284988895059">
        <ele>170.28999999999999</ele>
        <time>2025-05-19T14:16:37Z</time>
      </trkpt>
      <trkpt lat="45.464387023821473" lon="8.446468971669674">
        <ele>169.81</ele>
        <time>2025-05-19T14:16:38Z</time>
      </trkpt>
      <trkpt lat="45.464537981897593" lon="8.446637028828263">
        <ele>169.33000000000001</ele>
        <time>2025-05-19T14:16:39Z</time>
      </trkpt>
      <trkpt lat="45.464675026014447" lon="8.446788992732763">
        <ele>169.81</ele>
        <time>2025-05-19T14:16:40Z</time>
      </trkpt>
      <trkpt lat="45.464817015454173" lon="8.446946991607547">
        <ele>169.81</ele>
        <time>2025-05-19T14:16:41Z</time>
      </trkpt>
      <trkpt lat="45.466339001432061" lon="8.448507031425834">
        <ele>168.84999999999999</ele>
        <time>2025-05-19T14:16:50Z</time>
      </trkpt>
      <trkpt lat="45.468002976849675" lon="8.450042009353638">
        <ele>163.56</ele>
        <time>2025-05-19T14:16:59Z</time>
      </trkpt>
      <trkpt lat="45.468180002644658" lon="8.450148040428758">
        <ele>163.08000000000001</ele>
        <time>2025-05-19T14:17:00Z</time>
      </trkpt>
      <trkpt lat="45.46837898902595" lon="8.450266979634762">
        <ele>163.08000000000001</ele>
        <time>2025-05-19T14:17:01Z</time>
      </trkpt>
      <trkpt lat="45.468552997335792" lon="8.450266979634762">
        <ele>163.08000000000001</ele>
        <time>2025-05-19T14:17:02Z</time>
      </trkpt>
      <trkpt lat="45.468747960403562" lon="8.450266979634762">
        <ele>163.08000000000001</ele>
        <time>2025-05-19T14:17:03Z</time>
      </trkpt>
      <trkpt lat="45.468948958441615" lon="8.450243007391691">
        <ele>163.56</ele>
        <time>2025-05-19T14:17:04Z</time>
      </trkpt>
      <trkpt lat="45.469144005328417" lon="8.450157009065151">
        <ele>164.03999999999999</ele>
        <time>2025-05-19T14:17:05Z</time>
      </trkpt>
      <trkpt lat="45.469339974224567" lon="8.450071010738611">
        <ele>164.52000000000001</ele>
        <time>2025-05-19T14:17:06Z</time>
      </trkpt>
      <trkpt lat="45.46953602693975" lon="8.449958022683859">
        <ele>165.47999999999999</ele>
        <time>2025-05-19T14:17:07Z</time>
      </trkpt>
      <trkpt lat="45.469725960865617" lon="8.449826007708907">
        <ele>165.47999999999999</ele>
        <time>2025-05-19T14:17:08Z</time>
      </trkpt>
      <trkpt lat="45.471816994249821" lon="8.448450034484267">
        <ele>169.81</ele>
        <time>2025-05-19T14:17:18Z</time>
      </trkpt>
      <trkpt lat="45.474086981266737" lon="8.447455018758774">
        <ele>171.72999999999999</ele>
        <time>2025-05-19T14:17:27Z</time>
      </trkpt>
      <trkpt lat="45.476869018748403" lon="8.44648296944797">
        <ele>172.69</ele>
        <time>2025-05-19T14:17:36Z</time>
      </trkpt>
      <trkpt lat="45.483056958764791" lon="8.444264028221369">
        <ele>171.72999999999999</ele>
        <time>2025-05-19T14:17:56Z</time>
      </trkpt>
      <trkpt lat="45.488336971029639" lon="8.442390002310276">
        <ele>175.58000000000001</ele>
        <time>2025-05-19T14:18:13Z</time>
      </trkpt>
      <trkpt lat="45.492329020053148" lon="8.440970024093986">
        <ele>177.5</ele>
        <time>2025-05-19T14:18:26Z</time>
      </trkpt>
      <trkpt lat="45.496595995500684" lon="8.43937000259757">
        <ele>180.38</ele>
        <time>2025-05-19T14:18:40Z</time>
      </trkpt>
      <trkpt lat="45.501094982028008" lon="8.437311993911862">
        <ele>183.75</ele>
        <time>2025-05-19T14:18:55Z</time>
      </trkpt>
      <trkpt lat="45.506159998476505" lon="8.434823993593454">
        <ele>187.11000000000001</ele>
        <time>2025-05-19T14:19:12Z</time>
      </trkpt>
      <trkpt lat="45.508862994611263" lon="8.433640971779823">
        <ele>189.52000000000001</ele>
        <time>2025-05-19T14:19:21Z</time>
      </trkpt>
      <trkpt lat="45.512578021734953" lon="8.432649979367852">
        <ele>191.44</ele>
        <time>2025-05-19T14:19:33Z</time>
      </trkpt>
      <trkpt lat="45.516333030536771" lon="8.43236499466002">
        <ele>192.40000000000001</ele>
        <time>2025-05-19T14:19:45Z</time>
      </trkpt>
      <trkpt lat="45.519788973033428" lon="8.432206995785236">
        <ele>195.77000000000001</ele>
        <time>2025-05-19T14:19:56Z</time>
      </trkpt>
      <trkpt lat="45.524514019489288" lon="8.43202100135386">
        <ele>198.65000000000001</ele>
        <time>2025-05-19T14:20:11Z</time>
      </trkpt>
      <trkpt lat="45.52892298437655" lon="8.431838024407625">
        <ele>205.38</ele>
        <time>2025-05-19T14:20:25Z</time>
      </trkpt>
      <trkpt lat="45.53300597704947" lon="8.431351035833359">
        <ele>202.49000000000001</ele>
        <time>2025-05-19T14:20:38Z</time>
      </trkpt>
      <trkpt lat="45.536104012280703" lon="8.430416034534574">
        <ele>207.78</ele>
        <time>2025-05-19T14:20:48Z</time>
      </trkpt>
      <trkpt lat="45.539694987237453" lon="8.428679974749684">
        <ele>213.55000000000001</ele>
        <time>2025-05-19T14:21:00Z</time>
      </trkpt>
      <trkpt lat="45.545319998636842" lon="8.425612030550838">
        <ele>214.03</ele>
        <time>2025-05-19T14:21:19Z</time>
      </trkpt>
      <trkpt lat="45.548573015257716" lon="8.423833977431059">
        <ele>213.55000000000001</ele>
        <time>2025-05-19T14:21:30Z</time>
      </trkpt>
      <trkpt lat="45.551815973594785" lon="8.422045027837157">
        <ele>214.50999999999999</ele>
        <time>2025-05-19T14:21:41Z</time>
      </trkpt>
      <trkpt lat="45.555676007643342" lon="8.41994502581656">
        <ele>216.43000000000001</ele>
        <time>2025-05-19T14:21:54Z</time>
      </trkpt>
      <trkpt lat="45.559235969558358" lon="8.418007967993617">
        <ele>220.28</ele>
        <time>2025-05-19T14:22:06Z</time>
      </trkpt>
      <trkpt lat="45.564876990392804" lon="8.414930971339345">
        <ele>223.63999999999999</ele>
        <time>2025-05-19T14:22:25Z</time>
      </trkpt>
      <trkpt lat="45.569026032462716" lon="8.412669030949473">
        <ele>227.49000000000001</ele>
        <time>2025-05-19T14:22:39Z</time>
      </trkpt>
      <trkpt lat="45.570638962090015" lon="8.411788009107113">
        <ele>227.49000000000001</ele>
        <time>2025-05-19T14:22:45Z</time>
      </trkpt>
      <trkpt lat="45.573484031483531" lon="8.410220006480813">
        <ele>228.44999999999999</ele>
        <time>2025-05-19T14:22:57Z</time>
      </trkpt>
      <trkpt lat="45.576731013134122" lon="8.408442037180066">
        <ele>229.41</ele>
        <time>2025-05-19T14:23:12Z</time>
      </trkpt>
      <trkpt lat="45.579497963190079" lon="8.407047037035227">
        <ele>230.84999999999999</ele>
        <time>2025-05-19T14:23:25Z</time>
      </trkpt>
      <trkpt lat="45.582670010626316" lon="8.405761001631618">
        <ele>233.25999999999999</ele>
        <time>2025-05-19T14:23:39Z</time>
      </trkpt>
      <trkpt lat="45.585280973464251" lon="8.404980981722474">
        <ele>236.13999999999999</ele>
        <time>2025-05-19T14:23:50Z</time>
      </trkpt>
      <trkpt lat="45.58753302320838" lon="8.404324008151889">
        <ele>237.09999999999999</ele>
        <time>2025-05-19T14:24:01Z</time>
      </trkpt>
      <trkpt lat="45.590000990778208" lon="8.40361699461937">
        <ele>238.06</ele>
        <time>2025-05-19T14:24:14Z</time>
      </trkpt>
      <trkpt lat="45.592293022200465" lon="8.402990028262138">
        <ele>239.99000000000001</ele>
        <time>2025-05-19T14:24:26Z</time>
      </trkpt>
      <trkpt lat="45.594950001686811" lon="8.40230799280107">
        <ele>241.43000000000001</ele>
        <time>2025-05-19T14:24:39Z</time>
      </trkpt>
      <trkpt lat="45.597535986453295" lon="8.402095008641481">
        <ele>241.91</ele>
        <time>2025-05-19T14:24:50Z</time>
      </trkpt>
      <trkpt lat="45.599806979298592" lon="8.402359960600734">
        <ele>244.78999999999999</ele>
        <time>2025-05-19T14:24:58Z</time>
      </trkpt>
      <trkpt lat="45.602899985387921" lon="8.40342303737998">
        <ele>252.47999999999999</ele>
        <time>2025-05-19T14:25:08Z</time>
      </trkpt>
      <trkpt lat="45.605555959045887" lon="8.404986010864377">
        <ele>256.81</ele>
        <time>2025-05-19T14:25:17Z</time>
      </trkpt>
      <trkpt lat="45.608230037614703" lon="8.407454984262586">
        <ele>258.25</ele>
        <time>2025-05-19T14:25:27Z</time>
      </trkpt>
      <trkpt lat="45.610343031585217" lon="8.410183964297175">
        <ele>257.76999999999998</ele>
        <time>2025-05-19T14:25:36Z</time>
      </trkpt>
      <trkpt lat="45.612130975350738" lon="8.413395993411541">
        <ele>260.17000000000002</ele>
        <time>2025-05-19T14:25:45Z</time>
      </trkpt>
      <trkpt lat="45.613162033259869" lon="8.415904026478529">
        <ele>261.62</ele>
        <time>2025-05-19T14:25:52Z</time>
      </trkpt>
      <trkpt lat="45.616721995174885" lon="8.426921032369137">
        <ele>277.48000000000002</ele>
        <time>2025-05-19T14:26:25Z</time>
      </trkpt>
      <trkpt lat="45.618191007524729" lon="8.431568965315819">
        <ele>291.89999999999998</ele>
        <time>2025-05-19T14:26:38Z</time>
      </trkpt>
      <trkpt lat="45.619775019586086" lon="8.43620901927352">
        <ele>299.11000000000001</ele>
        <time>2025-05-19T14:26:50Z</time>
      </trkpt>
      <trkpt lat="45.621365988627076" lon="8.439609976485372">
        <ele>301.99000000000001</ele>
        <time>2025-05-19T14:26:59Z</time>
      </trkpt>
      <trkpt lat="45.62313599511981" lon="8.442361000925303">
        <ele>303.91000000000003</ele>
        <time>2025-05-19T14:27:07Z</time>
      </trkpt>
      <trkpt lat="45.625210013240576" lon="8.444740958511829">
        <ele>305.36000000000001</ele>
        <time>2025-05-19T14:27:16Z</time>
      </trkpt>
      <trkpt lat="45.627426020801067" lon="8.446789998561144">
        <ele>308.24000000000001</ele>
        <time>2025-05-19T14:27:26Z</time>
      </trkpt>
      <trkpt lat="45.629502972587943" lon="8.448677016422153">
        <ele>311.12</ele>
        <time>2025-05-19T14:27:34Z</time>
      </trkpt>
      <trkpt lat="45.632716007530689" lon="8.451598025858402">
        <ele>313.52999999999997</ele>
        <time>2025-05-19T14:27:46Z</time>
      </trkpt>
      <trkpt lat="45.636195000261068" lon="8.454759009182453">
        <ele>315.93000000000001</ele>
        <time>2025-05-19T14:27:59Z</time>
      </trkpt>
      <trkpt lat="45.639674998819828" lon="8.457911023870111">
        <ele>316.88999999999999</ele>
        <time>2025-05-19T14:28:12Z</time>
      </trkpt>
      <trkpt lat="45.643438976258039" lon="8.461325978860259">
        <ele>318.32999999999998</ele>
        <time>2025-05-19T14:28:26Z</time>
      </trkpt>
      <trkpt lat="45.645572002977133" lon="8.463301006704569">
        <ele>314.49000000000001</ele>
        <time>2025-05-19T14:28:34Z</time>
      </trkpt>
      <trkpt lat="45.646322015672922" lon="8.463985975831747">
        <ele>310.63999999999999</ele>
        <time>2025-05-19T14:28:37Z</time>
      </trkpt>
      <trkpt lat="45.649945009499788" lon="8.46770603209734">
        <ele>299.11000000000001</ele>
        <time>2025-05-19T14:28:51Z</time>
      </trkpt>
      <trkpt lat="45.651656007394195" lon="8.470454961061478">
        <ele>291.89999999999998</ele>
        <time>2025-05-19T14:28:59Z</time>
      </trkpt>
      <trkpt lat="45.652917986735702" lon="8.473621979355812">
        <ele>284.69</ele>
        <time>2025-05-19T14:29:07Z</time>
      </trkpt>
      <trkpt lat="45.654838029295206" lon="8.479867000132799">
        <ele>273.63</ele>
        <time>2025-05-19T14:29:22Z</time>
      </trkpt>
      <trkpt lat="45.656219031661749" lon="8.484403034672141">
        <ele>269.79000000000002</ele>
        <time>2025-05-19T14:29:33Z</time>
      </trkpt>
      <trkpt lat="45.657227961346507" lon="8.487744983285666">
        <ele>272.67000000000002</ele>
        <time>2025-05-19T14:29:41Z</time>
      </trkpt>
      <trkpt lat="45.659512029960752" lon="8.495265981182456">
        <ele>283.73000000000002</ele>
        <time>2025-05-19T14:29:59Z</time>
      </trkpt>
      <trkpt lat="45.660828994587064" lon="8.500394029542804">
        <ele>279.88</ele>
        <time>2025-05-19T14:30:11Z</time>
      </trkpt>
      <trkpt lat="45.661328975111246" lon="8.502820003777742">
        <ele>279.88</ele>
        <time>2025-05-19T14:30:17Z</time>
      </trkpt>
      <trkpt lat="45.661965999752283" lon="8.505832962691784">
        <ele>283.25</ele>
        <time>2025-05-19T14:30:27Z</time>
      </trkpt>
      <trkpt lat="45.662810979411006" lon="8.509266022592783">
        <ele>289.49000000000001</ele>
        <time>2025-05-19T14:30:39Z</time>
      </trkpt>
      <trkpt lat="45.663844970986247" lon="8.512452989816666">
        <ele>298.63</ele>
        <time>2025-05-19T14:30:50Z</time>
      </trkpt>
      <trkpt lat="45.665033021941781" lon="8.515395959839225">
        <ele>306.80000000000001</ele>
        <time>2025-05-19T14:31:00Z</time>
      </trkpt>
      <trkpt lat="45.666489964351058" lon="8.518354017287493">
        <ele>315.44999999999999</ele>
        <time>2025-05-19T14:31:11Z</time>
      </trkpt>
      <trkpt lat="45.667788991704583" lon="8.520534988492727">
        <ele>322.66000000000003</ele>
        <time>2025-05-19T14:31:18Z</time>
      </trkpt>
      <trkpt lat="45.669560004025698" lon="8.523121979087591">
        <ele>334.19999999999999</ele>
        <time>2025-05-19T14:31:26Z</time>
      </trkpt>
      <trkpt lat="45.671228002756834" lon="8.525286018848419">
        <ele>336.12</ele>
        <time>2025-05-19T14:31:33Z</time>
      </trkpt>
      <trkpt lat="45.673992019146681" lon="8.528975984081626">
        <ele>332.75</ele>
        <time>2025-05-19T14:31:45Z</time>
      </trkpt>
      <trkpt lat="45.674364008009434" lon="8.529604962095618">
        <ele>332.75</ele>
        <time>2025-05-19T14:31:47Z</time>
      </trkpt>
      <trkpt lat="45.675056017935276" lon="8.530933996662498">
        <ele>334.19999999999999</ele>
        <time>2025-05-19T14:31:51Z</time>
      </trkpt>
      <trkpt lat="45.676707001402974" lon="8.535179011523724">
        <ele>328.91000000000003</ele>
        <time>2025-05-19T14:32:01Z</time>
      </trkpt>
      <trkpt lat="45.678162015974522" lon="8.538123993203044">
        <ele>321.22000000000003</ele>
        <time>2025-05-19T14:32:09Z</time>
      </trkpt>
      <trkpt lat="45.679791960865259" lon="8.540227012708783">
        <ele>318.32999999999998</ele>
        <time>2025-05-19T14:32:16Z</time>
      </trkpt>
      <trkpt lat="45.681718038395047" lon="8.541762996464968">
        <ele>318.81</ele>
        <time>2025-05-19T14:32:23Z</time>
      </trkpt>
      <trkpt lat="45.683826003223658" lon="8.542709983885288">
        <ele>322.66000000000003</ele>
        <time>2025-05-19T14:32:30Z</time>
      </trkpt>
      <trkpt lat="45.686038993299007" lon="8.543018018826842">
        <ele>327.94999999999999</ele>
        <time>2025-05-19T14:32:37Z</time>
      </trkpt>
      <trkpt lat="45.688244020566344" lon="8.542666984722018">
        <ele>329.38999999999999</ele>
        <time>2025-05-19T14:32:44Z</time>
      </trkpt>
      <trkpt lat="45.691362004727125" lon="8.541610026732087">
        <ele>329.38999999999999</ele>
        <time>2025-05-19T14:32:54Z</time>
      </trkpt>
      <trkpt lat="45.694432966411114" lon="8.540665972977877">
        <ele>326.01999999999998</ele>
        <time>2025-05-19T14:33:04Z</time>
      </trkpt>
      <trkpt lat="45.696229040622711" lon="8.540868982672691">
        <ele>322.18000000000001</ele>
        <time>2025-05-19T14:33:11Z</time>
      </trkpt>
      <trkpt lat="45.698573961853981" lon="8.541696025058627">
        <ele>316.41000000000003</ele>
        <time>2025-05-19T14:33:20Z</time>
      </trkpt>
      <trkpt lat="45.700962971895933" lon="8.542646029964089">
        <ele>312.56999999999999</ele>
        <time>2025-05-19T14:33:29Z</time>
      </trkpt>
      <trkpt lat="45.702011967077851" lon="8.542890027165413">
        <ele>310.63999999999999</ele>
        <time>2025-05-19T14:33:33Z</time>
      </trkpt>
      <trkpt lat="45.70417701266706" lon="8.542964039370418">
        <ele>308.72000000000003</ele>
        <time>2025-05-19T14:33:42Z</time>
      </trkpt>
      <trkpt lat="45.706695020198822" lon="8.542828001081944">
        <ele>307.75999999999999</ele>
        <time>2025-05-19T14:33:52Z</time>
      </trkpt>
      <trkpt lat="45.711901020258665" lon="8.541299980133772">
        <ele>307.75999999999999</ele>
        <time>2025-05-19T14:34:11Z</time>
      </trkpt>
      <trkpt lat="45.711771016940475" lon="8.541390001773834">
        <ele>303.91000000000003</ele>
        <time>2025-05-19T14:34:13Z</time>
      </trkpt>
      <trkpt lat="45.711852991953492" lon="8.541335016489029">
        <ele>302.47000000000003</ele>
        <time>2025-05-19T14:34:14Z</time>
      </trkpt>
      <trkpt lat="45.713525013998151" lon="8.539728038012981">
        <ele>297.18000000000001</ele>
        <time>2025-05-19T14:34:22Z</time>
      </trkpt>
      <trkpt lat="45.714990003034472" lon="8.537520999088883">
        <ele>295.74000000000001</ele>
        <time>2025-05-19T14:34:30Z</time>
      </trkpt>
      <trkpt lat="45.716020977124572" lon="8.534974996000528">
        <ele>294.30000000000001</ele>
        <time>2025-05-19T14:34:38Z</time>
      </trkpt>
      <trkpt lat="45.717363003641367" lon="8.530792007222772">
        <ele>297.67000000000002</ele>
        <time>2025-05-19T14:34:51Z</time>
      </trkpt>
      <trkpt lat="45.718033974990249" lon="8.529264992102981">
        <ele>301.50999999999999</ele>
        <time>2025-05-19T14:34:56Z</time>
      </trkpt>
      <trkpt lat="45.720617026090622" lon="8.525279983878136">
        <ele>302.94999999999999</ele>
        <time>2025-05-19T14:35:13Z</time>
      </trkpt>
      <trkpt lat="45.722137000411749" lon="8.523480976000428">
        <ele>313.52999999999997</ele>
        <time>2025-05-19T14:35:21Z</time>
      </trkpt>
      <trkpt lat="45.723825031891465" lon="8.521609967574477">
        <ele>328.91000000000003</ele>
        <time>2025-05-19T14:35:30Z</time>
      </trkpt>
      <trkpt lat="45.725429998710752" lon="8.519696965813637">
        <ele>340.44</ele>
        <time>2025-05-19T14:35:38Z</time>
      </trkpt>
      <trkpt lat="45.727108977735043" lon="8.517318014055491">
        <ele>350.06</ele>
        <time>2025-05-19T14:35:48Z</time>
      </trkpt>
      <trkpt lat="45.728494003415108" lon="8.515112986788154">
        <ele>355.82999999999998</ele>
        <time>2025-05-19T14:35:57Z</time>
      </trkpt>
      <trkpt lat="45.729081993922591" lon="8.514427011832595">
        <ele>357.75</ele>
        <time>2025-05-19T14:36:01Z</time>
      </trkpt>
      <trkpt lat="45.729227000847459" lon="8.514269012957811">
        <ele>358.23000000000002</ele>
        <time>2025-05-19T14:36:02Z</time>
      </trkpt>
      <trkpt lat="45.729832006618381" lon="8.513735001906753">
        <ele>359.67000000000002</ele>
        <time>2025-05-19T14:36:06Z</time>
      </trkpt>
      <trkpt lat="45.729996962472796" lon="8.513639029115439">
        <ele>359.67000000000002</ele>
        <time>2025-05-19T14:36:07Z</time>
      </trkpt>
      <trkpt lat="45.730162002146244" lon="8.513588989153504">
        <ele>359.67000000000002</ele>
        <time>2025-05-19T14:36:08Z</time>
      </trkpt>
      <trkpt lat="45.730356965214014" lon="8.513570968061686">
        <ele>359.67000000000002</ele>
        <time>2025-05-19T14:36:09Z</time>
      </trkpt>
      <trkpt lat="45.730543965473771" lon="8.513554036617279">
        <ele>359.19</ele>
        <time>2025-05-19T14:36:10Z</time>
      </trkpt>
      <trkpt lat="45.731451977044344" lon="8.513426966965199">
        <ele>357.75</ele>
        <time>2025-05-19T14:36:15Z</time>
      </trkpt>
      <trkpt lat="45.731606036424637" lon="8.51332001388073">
        <ele>357.75</ele>
        <time>2025-05-19T14:36:16Z</time>
      </trkpt>
      <trkpt lat="45.731738973408937" lon="8.513172995299101">
        <ele>357.75</ele>
        <time>2025-05-19T14:36:17Z</time>
      </trkpt>
      <trkpt lat="45.731847016140819" lon="8.512991024181247">
        <ele>357.75</ele>
        <time>2025-05-19T14:36:18Z</time>
      </trkpt>
      <trkpt lat="45.731941983103752" lon="8.512803018093109">
        <ele>357.75</ele>
        <time>2025-05-19T14:36:19Z</time>
      </trkpt>
      <trkpt lat="45.732009960338473" lon="8.512591039761901">
        <ele>357.75</ele>
        <time>2025-05-19T14:36:20Z</time>
      </trkpt>
      <trkpt lat="45.732027981430292" lon="8.512357017025352">
        <ele>357.75</ele>
        <time>2025-05-19T14:36:21Z</time>
      </trkpt>
      <trkpt lat="45.731995962560177" lon="8.512125005945563">
        <ele>357.75</ele>
        <time>2025-05-19T14:36:22Z</time>
      </trkpt>
      <trkpt lat="45.731954975053668" lon="8.511884026229382">
        <ele>357.75</ele>
        <time>2025-05-19T14:36:23Z</time>
      </trkpt>
      <trkpt lat="45.731884986162186" lon="8.511642040684819">
        <ele>357.75</ele>
        <time>2025-05-19T14:36:24Z</time>
      </trkpt>
      <trkpt lat="45.731489025056362" lon="8.510308982804418">
        <ele>359.19</ele>
        <time>2025-05-19T14:36:29Z</time>
      </trkpt>
      <trkpt lat="45.731401015073061" lon="8.510016035288572">
        <ele>359.67000000000002</ele>
        <time>2025-05-19T14:36:30Z</time>
      </trkpt>
      <trkpt lat="45.731325997039676" lon="8.509760973975062">
        <ele>360.14999999999998</ele>
        <time>2025-05-19T14:36:31Z</time>
      </trkpt>
      <trkpt lat="45.731020979583263" lon="8.508653976023197">
        <ele>360.63</ele>
        <time>2025-05-19T14:36:37Z</time>
      </trkpt>
      <trkpt lat="45.730997007340193" lon="8.50846303626895">
        <ele>360.63</ele>
        <time>2025-05-19T14:36:38Z</time>
      </trkpt>
      <trkpt lat="45.730977980419993" lon="8.508309982717037">
        <ele>360.63</ele>
        <time>2025-05-19T14:36:39Z</time>
      </trkpt>
      <trkpt lat="45.730990972369909" lon="8.508117031306028">
        <ele>360.63</ele>
        <time>2025-05-19T14:36:40Z</time>
      </trkpt>
      <trkpt lat="45.731020979583263" lon="8.507956014946103">
        <ele>360.63</ele>
        <time>2025-05-19T14:36:41Z</time>
      </trkpt>
      <trkpt lat="45.731086023151875" lon="8.507800027728081">
        <ele>360.63</ele>
        <time>2025-05-19T14:36:42Z</time>
      </trkpt>
      <trkpt lat="45.731148971244693" lon="8.507644962519407">
        <ele>360.63</ele>
        <time>2025-05-19T14:36:43Z</time>
      </trkpt>
      <trkpt lat="45.731245027855039" lon="8.507538009434938">
        <ele>360.63</ele>
        <time>2025-05-19T14:36:44Z</time>
      </trkpt>
      <trkpt lat="45.731346029788256" lon="8.507430972531438">
        <ele>361.11000000000001</ele>
        <time>2025-05-19T14:36:45Z</time>
      </trkpt>
      <trkpt lat="45.731452982872725" lon="8.507341034710407">
        <ele>361.11000000000001</ele>
        <time>2025-05-19T14:36:46Z</time>
      </trkpt>
      <trkpt lat="45.731557002291083" lon="8.507254030555487">
        <ele>361.58999999999997</ele>
        <time>2025-05-19T14:36:47Z</time>
      </trkpt>
      <trkpt lat="45.731655992567539" lon="8.507169960066676">
        <ele>361.58999999999997</ele>
        <time>2025-05-19T14:36:48Z</time>
      </trkpt>
      <trkpt lat="45.731756994500756" lon="8.507086979225278">
        <ele>361.58999999999997</ele>
        <time>2025-05-19T14:36:49Z</time>
      </trkpt>
      <trkpt lat="45.732316989451647" lon="8.506651958450675">
        <ele>360.63</ele>
        <time>2025-05-19T14:36:57Z</time>
      </trkpt>
      <trkpt lat="45.732354959473014" lon="8.506626980379224">
        <ele>360.63</ele>
        <time>2025-05-19T14:36:58Z</time>
      </trkpt>
      <trkpt lat="45.732384966686368" lon="8.506607031449676">
        <ele>360.63</ele>
        <time>2025-05-19T14:36:59Z</time>
      </trkpt>
      <trkpt lat="45.732410028576851" lon="8.506590016186237">
        <ele>360.14999999999998</ele>
        <time>2025-05-19T14:37:00Z</time>
      </trkpt>
      <trkpt lat="45.732427965849638" lon="8.506578030064702">
        <ele>360.14999999999998</ele>
        <time>2025-05-19T14:37:01Z</time>
      </trkpt>
      <trkpt lat="45.732443975284696" lon="8.506568977609277">
        <ele>360.14999999999998</ele>
        <time>2025-05-19T14:37:02Z</time>
      </trkpt>
      <trkpt lat="45.732443975284696" lon="8.506568977609277">
        <ele>359.67000000000002</ele>
        <time>2025-05-19T14:37:03Z</time>
      </trkpt>
      <trkpt lat="45.732443975284696" lon="8.506568977609277">
        <ele>359.67000000000002</ele>
        <time>2025-05-19T14:37:21Z</time>
      </trkpt>
      <trkpt lat="45.732443975284696" lon="8.506568977609277">
        <ele>359.67000000000002</ele>
        <time>2025-05-19T14:37:53Z</time>
      </trkpt>
      <trkpt lat="45.732443975284696" lon="8.506568977609277">
        <ele>359.67000000000002</ele>
        <time>2025-05-19T14:38:34Z</time>
      </trkpt>
      <trkpt lat="45.732502983883023" lon="8.506538970395923">
        <ele>358.70999999999998</ele>
        <time>2025-05-19T14:38:46Z</time>
      </trkpt>
      <trkpt lat="45.732562998309731" lon="8.506508963182569">
        <ele>357.75</ele>
        <time>2025-05-19T14:38:47Z</time>
      </trkpt>
      <trkpt lat="45.732651008293033" lon="8.506464958190918">
        <ele>357.26999999999998</ele>
        <time>2025-05-19T14:38:48Z</time>
      </trkpt>
      <trkpt lat="45.732737006619573" lon="8.506421959027648">
        <ele>357.26999999999998</ele>
        <time>2025-05-19T14:38:49Z</time>
      </trkpt>
      <trkpt lat="45.732847983017564" lon="8.506348030641675">
        <ele>356.79000000000002</ele>
        <time>2025-05-19T14:38:50Z</time>
      </trkpt>
      <trkpt lat="45.732935993000865" lon="8.506289022043347">
        <ele>355.82999999999998</ele>
        <time>2025-05-19T14:38:51Z</time>
      </trkpt>
      <trkpt lat="45.733000030741096" lon="8.506247028708458">
        <ele>355.33999999999997</ele>
        <time>2025-05-19T14:38:52Z</time>
      </trkpt>
      <trkpt lat="45.733041018247604" lon="8.506220038980246">
        <ele>354.86000000000001</ele>
        <time>2025-05-19T14:38:53Z</time>
      </trkpt>
      <trkpt lat="45.733065996319056" lon="8.506203023716807">
        <ele>354.38</ele>
        <time>2025-05-19T14:38:54Z</time>
      </trkpt>
      <trkpt lat="45.733065996319056" lon="8.506203023716807">
        <ele>354.38</ele>
        <time>2025-05-19T14:39:05Z</time>
      </trkpt>
      <trkpt lat="45.733065996319056" lon="8.506203023716807">
        <ele>352.94</ele>
        <time>2025-05-19T14:39:53Z</time>
      </trkpt>
      <trkpt lat="45.733065996319056" lon="8.506203023716807">
        <ele>353.42000000000002</ele>
        <time>2025-05-19T14:40:39Z</time>
      </trkpt>
      <trkpt lat="45.733065996319056" lon="8.506203023716807">
        <ele>353.89999999999998</ele>
        <time>2025-05-19T14:41:33Z</time>
      </trkpt>
      <trkpt lat="45.733065996319056" lon="8.506203023716807">
        <ele>354.38</ele>
        <time>2025-05-19T14:42:21Z</time>
      </trkpt>
      <trkpt lat="45.733065996319056" lon="8.506203023716807">
        <ele>354.38</ele>
        <time>2025-05-19T14:43:15Z</time>
      </trkpt>
      <trkpt lat="45.733065996319056" lon="8.506203023716807">
        <ele>355.33999999999997</ele>
        <time>2025-05-19T14:43:40Z</time>
      </trkpt>
      <trkpt lat="45.733065996319056" lon="8.506203023716807">
        <ele>355.82999999999998</ele>
        <time>2025-05-19T14:44:34Z</time>
      </trkpt>
      <trkpt lat="45.733065996319056" lon="8.506203023716807">
        <ele>355.82999999999998</ele>
        <time>2025-05-19T14:45:21Z</time>
      </trkpt>
      <trkpt lat="45.733218966051936" lon="8.50610101595521">
        <ele>357.75</ele>
        <time>2025-05-19T14:45:54Z</time>
      </trkpt>
      <trkpt lat="45.733272023499012" lon="8.506064973771572">
        <ele>358.23000000000002</ele>
        <time>2025-05-19T14:45:55Z</time>
      </trkpt>
      <trkpt lat="45.733885997906327" lon="8.505469020456076">
        <ele>358.23000000000002</ele>
        <time>2025-05-19T14:46:04Z</time>
      </trkpt>
      <trkpt lat="45.73395699262619" lon="8.505357960239053">
        <ele>358.23000000000002</ele>
        <time>2025-05-19T14:46:05Z</time>
      </trkpt>
      <trkpt lat="45.734253963455558" lon="8.504927968606353">
        <ele>357.75</ele>
        <time>2025-05-19T14:46:09Z</time>
      </trkpt>
      <trkpt lat="45.734326969832182" lon="8.504839958623052">
        <ele>357.75</ele>
        <time>2025-05-19T14:46:10Z</time>
      </trkpt>
      <trkpt lat="45.734379021450877" lon="8.50479100830853">
        <ele>357.75</ele>
        <time>2025-05-19T14:46:11Z</time>
      </trkpt>
      <trkpt lat="45.73447197675705" lon="8.504782961681485">
        <ele>357.75</ele>
        <time>2025-05-19T14:46:12Z</time>
      </trkpt>
      <trkpt lat="45.734569961205125" lon="8.504774998873472">
        <ele>357.75</ele>
        <time>2025-05-19T14:46:13Z</time>
      </trkpt>
      <trkpt lat="45.734650008380413" lon="8.504783967509866">
        <ele>357.75</ele>
        <time>2025-05-19T14:46:14Z</time>
      </trkpt>
      <trkpt lat="45.734752016142011" lon="8.504839958623052">
        <ele>357.75</ele>
        <time>2025-05-19T14:46:15Z</time>
      </trkpt>
      <trkpt lat="45.73485896922648" lon="8.50489997304976">
        <ele>357.75</ele>
        <time>2025-05-19T14:46:16Z</time>
      </trkpt>
      <trkpt lat="45.735012022778392" lon="8.504983959719539">
        <ele>357.75</ele>
        <time>2025-05-19T14:46:17Z</time>
      </trkpt>
      <trkpt lat="45.735088968649507" lon="8.505108011886478">
        <ele>357.75</ele>
        <time>2025-05-19T14:46:18Z</time>
      </trkpt>
      <trkpt lat="45.735184019431472" lon="8.505259975790978">
        <ele>357.26999999999998</ele>
        <time>2025-05-19T14:46:19Z</time>
      </trkpt>
      <trkpt lat="45.735646029934287" lon="8.505959026515484">
        <ele>356.79000000000002</ele>
        <time>2025-05-19T14:46:23Z</time>
      </trkpt>
      <trkpt lat="45.735763041302562" lon="8.506121970713139">
        <ele>356.79000000000002</ele>
        <time>2025-05-19T14:46:24Z</time>
      </trkpt>
      <trkpt lat="45.737097021192312" lon="8.508176039904356">
        <ele>354.86000000000001</ele>
        <time>2025-05-19T14:46:33Z</time>
      </trkpt>
      <trkpt lat="45.738255986943841" lon="8.509861975908279">
        <ele>344.29000000000002</ele>
        <time>2025-05-19T14:46:43Z</time>
      </trkpt>
      <trkpt lat="45.738999964669347" lon="8.51091499440372">
        <ele>338.04000000000002</ele>
        <time>2025-05-19T14:46:52Z</time>
      </trkpt>
      <trkpt lat="45.739809991791844" lon="8.511782018467784">
        <ele>333.70999999999998</ele>
        <time>2025-05-19T14:46:59Z</time>
      </trkpt>
      <trkpt lat="45.741098960861564" lon="8.512644013389945">
        <ele>325.06</ele>
        <time>2025-05-19T14:47:08Z</time>
      </trkpt>
      <trkpt lat="45.741486959159374" lon="8.513092026114464">
        <ele>321.69999999999999</ele>
        <time>2025-05-19T14:47:11Z</time>
      </trkpt>
      <trkpt lat="45.742177963256836" lon="8.514507981017232">
        <ele>314.00999999999999</ele>
        <time>2025-05-19T14:47:19Z</time>
      </trkpt>
      <trkpt lat="45.742956977337599" lon="8.516674032434821">
        <ele>301.02999999999997</ele>
        <time>2025-05-19T14:47:31Z</time>
      </trkpt>
      <trkpt lat="45.743660973384976" lon="8.518314035609365">
        <ele>295.25999999999999</ele>
        <time>2025-05-19T14:47:42Z</time>
      </trkpt>
      <trkpt lat="45.744085013866425" lon="8.519182987511158">
        <ele>294.77999999999997</ele>
        <time>2025-05-19T14:47:49Z</time>
      </trkpt>
      <trkpt lat="45.744147961959243" lon="8.519305028021336">
        <ele>295.25999999999999</ele>
        <time>2025-05-19T14:47:50Z</time>
      </trkpt>
      <trkpt lat="45.744211999699473" lon="8.519425978884101">
        <ele>296.22000000000003</ele>
        <time>2025-05-19T14:47:51Z</time>
      </trkpt>
      <trkpt lat="45.744761014357209" lon="8.520485032349825">
        <ele>303.43000000000001</ele>
        <time>2025-05-19T14:48:01Z</time>
      </trkpt>
      <trkpt lat="45.745454030111432" lon="8.521843990311027">
        <ele>302.47000000000003</ele>
        <time>2025-05-19T14:48:12Z</time>
      </trkpt>
      <trkpt lat="45.746100023388863" lon="8.523143017664552">
        <ele>301.99000000000001</ele>
        <time>2025-05-19T14:48:22Z</time>
      </trkpt>
      <trkpt lat="45.746801001951098" lon="8.524507004767656">
        <ele>301.02999999999997</ele>
        <time>2025-05-19T14:48:34Z</time>
      </trkpt>
      <trkpt lat="45.746837966144085" lon="8.524574982002378">
        <ele>301.02999999999997</ele>
        <time>2025-05-19T14:48:35Z</time>
      </trkpt>
      <trkpt lat="45.746895968914032" lon="8.524675983935595">
        <ele>300.55000000000001</ele>
        <time>2025-05-19T14:48:38Z</time>
      </trkpt>
      <trkpt lat="45.746898986399174" lon="8.524683024734259">
        <ele>300.55000000000001</ele>
        <time>2025-05-19T14:48:39Z</time>
      </trkpt>
      <trkpt lat="45.74691298417747" lon="8.524727029725909">
        <ele>300.55000000000001</ele>
        <time>2025-05-19T14:48:40Z</time>
      </trkpt>
      <trkpt lat="45.746923964470625" lon="8.524763993918896">
        <ele>300.55000000000001</ele>
        <time>2025-05-19T14:48:41Z</time>
      </trkpt>
      <trkpt lat="45.746936034411192" lon="8.524805987253785">
        <ele>300.55000000000001</ele>
        <time>2025-05-19T14:48:42Z</time>
      </trkpt>
      <trkpt lat="45.746964029967785" lon="8.524897014722228">
        <ele>299.58999999999997</ele>
        <time>2025-05-19T14:48:47Z</time>
      </trkpt>
      <trkpt lat="45.746964029967785" lon="8.524897014722228">
        <ele>299.11000000000001</ele>
        <time>2025-05-19T14:48:48Z</time>
      </trkpt>
      <trkpt lat="45.746957994997501" lon="8.525079991668463">
        <ele>299.11000000000001</ele>
        <time>2025-05-19T14:48:49Z</time>
      </trkpt>
      <trkpt lat="45.747049022465944" lon="8.525089966133237">
        <ele>298.63</ele>
        <time>2025-05-19T14:48:50Z</time>
      </trkpt>
      <trkpt lat="45.747100990265608" lon="8.52515903301537">
        <ele>298.63</ele>
        <time>2025-05-19T14:48:51Z</time>
      </trkpt>
      <trkpt lat="45.747159998863935" lon="8.525236984714866">
        <ele>298.14999999999998</ele>
        <time>2025-05-19T14:48:52Z</time>
      </trkpt>
      <trkpt lat="45.747242979705334" lon="8.525347961112857">
        <ele>297.67000000000002</ele>
        <time>2025-05-19T14:48:53Z</time>
      </trkpt>
      <trkpt lat="45.747279021888971" lon="8.52541702799499">
        <ele>297.18000000000001</ele>
        <time>2025-05-19T14:48:54Z</time>
      </trkpt>
      <trkpt lat="45.74732000939548" lon="8.525496991351247">
        <ele>296.69999999999999</ele>
        <time>2025-05-19T14:48:55Z</time>
      </trkpt>
      <trkpt lat="45.747352028265595" lon="8.525558011606336">
        <ele>296.69999999999999</ele>
        <time>2025-05-19T14:48:56Z</time>
      </trkpt>
      <trkpt lat="45.747373988851905" lon="8.525598999112845">
        <ele>295.74000000000001</ele>
        <time>2025-05-19T14:49:02Z</time>
      </trkpt>
      <trkpt lat="45.747530981898308" lon="8.525903010740876">
        <ele>295.25999999999999</ele>
        <time>2025-05-19T14:49:07Z</time>
      </trkpt>
      <trkpt lat="45.748052000999451" lon="8.526935996487737">
        <ele>292.86000000000001</ele>
        <time>2025-05-19T14:49:19Z</time>
      </trkpt>
      <trkpt lat="45.748301027342677" lon="8.527403958141804">
        <ele>292.38</ele>
        <time>2025-05-19T14:49:31Z</time>
      </trkpt>
      <trkpt lat="45.748349977657199" lon="8.527498003095388">
        <ele>292.38</ele>
        <time>2025-05-19T14:49:33Z</time>
      </trkpt>
      <trkpt lat="45.748552987352014" lon="8.527905028313398">
        <ele>291.89999999999998</ele>
        <time>2025-05-19T14:49:44Z</time>
      </trkpt>
      <trkpt lat="45.748578971251845" lon="8.527956996113062">
        <ele>291.89999999999998</ele>
        <time>2025-05-19T14:49:45Z</time>
      </trkpt>
      <trkpt lat="45.748608978465199" lon="8.528014998883009">
        <ele>291.89999999999998</ele>
        <time>2025-05-19T14:49:46Z</time>
      </trkpt>
      <trkpt lat="45.748749040067196" lon="8.528282968327403">
        <ele>291.89999999999998</ele>
        <time>2025-05-19T14:49:51Z</time>
      </trkpt>
      <trkpt lat="45.748772006481886" lon="8.528326973319054">
        <ele>291.42000000000002</ele>
        <time>2025-05-19T14:49:52Z</time>
      </trkpt>
      <trkpt lat="45.748791033402085" lon="8.528364021331072">
        <ele>291.42000000000002</ele>
        <time>2025-05-19T14:49:53Z</time>
      </trkpt>
      <trkpt lat="45.748809976503253" lon="8.528400985524058">
        <ele>290.45999999999998</ele>
        <time>2025-05-19T14:50:02Z</time>
      </trkpt>
      <trkpt lat="45.748859010636806" lon="8.528493018820882">
        <ele>290.94</ele>
        <time>2025-05-19T14:50:13Z</time>
      </trkpt>
      <trkpt lat="45.748960012570024" lon="8.528709020465612">
        <ele>289.97000000000003</ele>
        <time>2025-05-19T14:50:24Z</time>
      </trkpt>
      <trkpt lat="45.748987002298236" lon="8.528776997700334">
        <ele>289.97000000000003</ele>
        <time>2025-05-19T14:50:33Z</time>
      </trkpt>
      <trkpt lat="45.749008962884545" lon="8.528761994093657">
        <ele>289.97000000000003</ele>
        <time>2025-05-19T14:50:34Z</time>
      </trkpt>
      <trkpt lat="45.749051962047815" lon="8.528732992708683">
        <ele>289.49000000000001</ele>
        <time>2025-05-19T14:50:35Z</time>
      </trkpt>
      <trkpt lat="45.749112982302904" lon="8.528692005202174">
        <ele>289.00999999999999</ele>
        <time>2025-05-19T14:50:36Z</time>
      </trkpt>
      <trkpt lat="45.749178025871515" lon="8.52863802574575">
        <ele>289.00999999999999</ele>
        <time>2025-05-19T14:50:37Z</time>
      </trkpt>
      <trkpt lat="45.749885961413383" lon="8.528048023581505">
        <ele>286.61000000000001</ele>
        <time>2025-05-19T14:50:45Z</time>
      </trkpt>
      <trkpt lat="45.750157032161951" lon="8.527830010280013">
        <ele>286.61000000000001</ele>
        <time>2025-05-19T14:50:48Z</time>
      </trkpt>
      <trkpt lat="45.750230960547924" lon="8.527765972539783">
        <ele>286.61000000000001</ele>
        <time>2025-05-19T14:50:49Z</time>
      </trkpt>
      <trkpt lat="45.750298015773296" lon="8.527700006961823">
        <ele>286.61000000000001</ele>
        <time>2025-05-19T14:50:50Z</time>
      </trkpt>
      <trkpt lat="45.750373033806682" lon="8.527640998363495">
        <ele>287.08999999999997</ele>
        <time>2025-05-19T14:50:51Z</time>
      </trkpt>
      <trkpt lat="45.75045702047646" lon="8.52758701890707">
        <ele>287.08999999999997</ele>
        <time>2025-05-19T14:50:52Z</time>
      </trkpt>
      <trkpt lat="45.751276016235352" lon="8.526931973174214">
        <ele>289.00999999999999</ele>
        <time>2025-05-19T14:51:02Z</time>
      </trkpt>
      <trkpt lat="45.752440011128783" lon="8.526163017377257">
        <ele>293.81999999999999</ele>
        <time>2025-05-19T14:51:16Z</time>
      </trkpt>
      <trkpt lat="45.753172002732754" lon="8.525635041296482">
        <ele>296.69999999999999</ele>
        <time>2025-05-19T14:51:24Z</time>
      </trkpt>
      <trkpt lat="45.753404013812542" lon="8.525366988033056">
        <ele>298.14999999999998</ele>
        <time>2025-05-19T14:51:27Z</time>
      </trkpt>
      <trkpt lat="45.753482971340418" lon="8.525273026898503">
        <ele>298.63</ele>
        <time>2025-05-19T14:51:28Z</time>
      </trkpt>
      <trkpt lat="45.753806009888649" lon="8.524872958660126">
        <ele>301.02999999999997</ele>
        <time>2025-05-19T14:51:32Z</time>
      </trkpt>
      <trkpt lat="45.753886979073286" lon="8.524769023060799">
        <ele>301.99000000000001</ele>
        <time>2025-05-19T14:51:33Z</time>
      </trkpt>
      <trkpt lat="45.754415960982442" lon="8.524039965122938">
        <ele>304.38999999999999</ele>
        <time>2025-05-19T14:51:40Z</time>
      </trkpt>
      <trkpt lat="45.754460971802473" lon="8.523915996775031">
        <ele>304.88</ele>
        <time>2025-05-19T14:51:41Z</time>
      </trkpt>
      <trkpt lat="45.754501037299633" lon="8.52378498762846">
        <ele>305.36000000000001</ele>
        <time>2025-05-19T14:51:42Z</time>
      </trkpt>
      <trkpt lat="45.754878977313638" lon="8.522309018298984">
        <ele>306.80000000000001</ele>
        <time>2025-05-19T14:51:51Z</time>
      </trkpt>
      <trkpt lat="45.755095984786749" lon="8.521429002285004">
        <ele>308.72000000000003</ele>
        <time>2025-05-19T14:51:55Z</time>
      </trkpt>
      <trkpt lat="45.755178965628147" lon="8.521277960389853">
        <ele>308.72000000000003</ele>
        <time>2025-05-19T14:51:56Z</time>
      </trkpt>
      <trkpt lat="45.755293965339661" lon="8.521172013133764">
        <ele>309.19999999999999</ele>
        <time>2025-05-19T14:51:57Z</time>
      </trkpt>
      <trkpt lat="45.755406031385064" lon="8.521092971786857">
        <ele>309.19999999999999</ele>
        <time>2025-05-19T14:51:58Z</time>
      </trkpt>
      <trkpt lat="45.755545003339648" lon="8.521064976230264">
        <ele>309.68000000000001</ele>
        <time>2025-05-19T14:51:59Z</time>
      </trkpt>
      <trkpt lat="45.75569998472929" lon="8.521033963188529">
        <ele>309.68000000000001</ele>
        <time>2025-05-19T14:52:00Z</time>
      </trkpt>
      <trkpt lat="45.755868041887879" lon="8.521001022309065">
        <ele>310.16000000000003</ele>
        <time>2025-05-19T14:52:01Z</time>
      </trkpt>
      <trkpt lat="45.756952995434403" lon="8.520682007074356">
        <ele>311.12</ele>
        <time>2025-05-19T14:52:07Z</time>
      </trkpt>
      <trkpt lat="45.757100014016032" lon="8.520552003756166">
        <ele>311.12</ele>
        <time>2025-05-19T14:52:08Z</time>
      </trkpt>
      <trkpt lat="45.757238985970616" lon="8.520429041236639">
        <ele>311.60000000000002</ele>
        <time>2025-05-19T14:52:09Z</time>
      </trkpt>
      <trkpt lat="45.757360020652413" lon="8.520284034311771">
        <ele>311.12</ele>
        <time>2025-05-19T14:52:10Z</time>
      </trkpt>
      <trkpt lat="45.75746001675725" lon="8.520124023780227">
        <ele>311.60000000000002</ele>
        <time>2025-05-19T14:52:11Z</time>
      </trkpt>
      <trkpt lat="45.757559007033706" lon="8.519972981885076">
        <ele>311.60000000000002</ele>
        <time>2025-05-19T14:52:12Z</time>
      </trkpt>
      <trkpt lat="45.757656991481781" lon="8.519839039072394">
        <ele>311.60000000000002</ele>
        <time>2025-05-19T14:52:13Z</time>
      </trkpt>
      <trkpt lat="45.757763022556901" lon="8.519736025482416">
        <ele>311.60000000000002</ele>
        <time>2025-05-19T14:52:14Z</time>
      </trkpt>
      <trkpt lat="45.757881961762905" lon="8.519643992185593">
        <ele>311.60000000000002</ele>
        <time>2025-05-19T14:52:15Z</time>
      </trkpt>
      <trkpt lat="45.758002996444702" lon="8.519549025222659">
        <ele>311.60000000000002</ele>
        <time>2025-05-19T14:52:16Z</time>
      </trkpt>
      <trkpt lat="45.758099975064397" lon="8.51946797221899">
        <ele>312.08999999999997</ele>
        <time>2025-05-19T14:52:17Z</time>
      </trkpt>
      <trkpt lat="45.758239030838013" lon="8.519387003034353">
        <ele>312.56999999999999</ele>
        <time>2025-05-19T14:52:18Z</time>
      </trkpt>
      <trkpt lat="45.758488979190588" lon="8.519284995272756">
        <ele>313.52999999999997</ele>
        <time>2025-05-19T14:52:20Z</time>
      </trkpt>
      <trkpt lat="45.75860096141696" lon="8.519256999716163">
        <ele>314.00999999999999</ele>
        <time>2025-05-19T14:52:21Z</time>
      </trkpt>
      <trkpt lat="45.758705986663699" lon="8.519297987222672">
        <ele>314.49000000000001</ele>
        <time>2025-05-19T14:52:22Z</time>
      </trkpt>
      <trkpt lat="45.758802965283394" lon="8.519345009699464">
        <ele>314.97000000000003</ele>
        <time>2025-05-19T14:52:23Z</time>
      </trkpt>
      <trkpt lat="45.75890296138823" lon="8.519393960013986">
        <ele>315.44999999999999</ele>
        <time>2025-05-19T14:52:24Z</time>
      </trkpt>
      <trkpt lat="45.759325996041298" lon="8.519598981365562">
        <ele>317.85000000000002</ele>
        <time>2025-05-19T14:52:28Z</time>
      </trkpt>
      <trkpt lat="45.759563036262989" lon="8.519644998013973">
        <ele>318.32999999999998</ele>
        <time>2025-05-19T14:52:30Z</time>
      </trkpt>
      <trkpt lat="45.759675018489361" lon="8.51965899579227">
        <ele>318.81</ele>
        <time>2025-05-19T14:52:31Z</time>
      </trkpt>
      <trkpt lat="45.760278012603521" lon="8.519711969420314">
        <ele>320.74000000000001</ele>
        <time>2025-05-19T14:52:36Z</time>
      </trkpt>
      <trkpt lat="45.760785033926368" lon="8.519626976922154">
        <ele>321.69999999999999</ele>
        <time>2025-05-19T14:52:40Z</time>
      </trkpt>
      <trkpt lat="45.760906990617514" lon="8.519561011344194">
        <ele>322.18000000000001</ele>
        <time>2025-05-19T14:52:41Z</time>
      </trkpt>
      <trkpt lat="45.761853978037834" lon="8.518850980326533">
        <ele>325.54000000000002</ele>
        <time>2025-05-19T14:52:50Z</time>
      </trkpt>
      <trkpt lat="45.761959003284574" lon="8.518808986991644">
        <ele>326.5</ele>
        <time>2025-05-19T14:52:51Z</time>
      </trkpt>
      <trkpt lat="45.762064028531313" lon="8.518777973949909">
        <ele>326.99000000000001</ele>
        <time>2025-05-19T14:52:52Z</time>
      </trkpt>
      <trkpt lat="45.763087039813399" lon="8.518661968410015">
        <ele>331.79000000000002</ele>
        <time>2025-05-19T14:53:00Z</time>
      </trkpt>
      <trkpt lat="45.76332600787282" lon="8.518715025857091">
        <ele>332.75</ele>
        <time>2025-05-19T14:53:02Z</time>
      </trkpt>
      <trkpt lat="45.764177022501826" lon="8.518963968381286">
        <ele>335.16000000000003</ele>
        <time>2025-05-19T14:53:09Z</time>
      </trkpt>
      <trkpt lat="45.764282969757915" lon="8.518917029723525">
        <ele>335.63999999999999</ele>
        <time>2025-05-19T14:53:10Z</time>
      </trkpt>
      <trkpt lat="45.764396041631699" lon="8.518866989761591">
        <ele>335.63999999999999</ele>
        <time>2025-05-19T14:53:11Z</time>
      </trkpt>
      <trkpt lat="45.765028037130833" lon="8.518631039187312">
        <ele>336.60000000000002</ele>
        <time>2025-05-19T14:53:16Z</time>
      </trkpt>
      <trkpt lat="45.765143958851695" lon="8.518630033358932">
        <ele>336.60000000000002</ele>
        <time>2025-05-19T14:53:17Z</time>
      </trkpt>
      <trkpt lat="45.76526197604835" lon="8.518678983673453">
        <ele>336.60000000000002</ele>
        <time>2025-05-19T14:53:18Z</time>
      </trkpt>
      <trkpt lat="45.765353003516793" lon="8.518717037513852">
        <ele>336.12</ele>
        <time>2025-05-19T14:53:19Z</time>
      </trkpt>
      <trkpt lat="45.765461968258023" lon="8.518818961456418">
        <ele>336.12</ele>
        <time>2025-05-19T14:53:20Z</time>
      </trkpt>
      <trkpt lat="45.765564981848001" lon="8.518916023895145">
        <ele>336.12</ele>
        <time>2025-05-19T14:53:21Z</time>
      </trkpt>
      <trkpt lat="45.766798965632915" lon="8.520171968266368">
        <ele>340.92000000000002</ele>
        <time>2025-05-19T14:53:33Z</time>
      </trkpt>
      <trkpt lat="45.767211019992828" lon="8.52056197822094">
        <ele>344.29000000000002</ele>
        <time>2025-05-19T14:53:37Z</time>
      </trkpt>
      <trkpt lat="45.767301041632891" lon="8.520661974325776">
        <ele>345.25</ele>
        <time>2025-05-19T14:53:38Z</time>
      </trkpt>
      <trkpt lat="45.767370024695992" lon="8.520799018442631">
        <ele>346.20999999999998</ele>
        <time>2025-05-19T14:53:39Z</time>
      </trkpt>
      <trkpt lat="45.767430039122701" lon="8.520919969305396">
        <ele>347.64999999999998</ele>
        <time>2025-05-19T14:53:40Z</time>
      </trkpt>
      <trkpt lat="45.767488963901997" lon="8.521036980673671">
        <ele>349.10000000000002</ele>
        <time>2025-05-19T14:53:41Z</time>
      </trkpt>
      <trkpt lat="45.767545960843563" lon="8.521151980385184">
        <ele>350.54000000000002</ele>
        <time>2025-05-19T14:53:42Z</time>
      </trkpt>
      <trkpt lat="45.767620978876948" lon="8.521258011460304">
        <ele>351.5</ele>
        <time>2025-05-19T14:53:43Z</time>
      </trkpt>
      <trkpt lat="45.767712006345391" lon="8.521331017836928">
        <ele>352.45999999999998</ele>
        <time>2025-05-19T14:53:44Z</time>
      </trkpt>
      <trkpt lat="45.767803033813834" lon="8.521405030041933">
        <ele>353.89999999999998</ele>
        <time>2025-05-19T14:53:45Z</time>
      </trkpt>
      <trkpt lat="45.767892971634865" lon="8.521478958427906">
        <ele>354.86000000000001</ele>
        <time>2025-05-19T14:53:46Z</time>
      </trkpt>
      <trkpt lat="45.768500994890928" lon="8.521900987252593">
        <ele>364</ele>
        <time>2025-05-19T14:53:52Z</time>
      </trkpt>
      <trkpt lat="45.768613982945681" lon="8.521956978365779">
        <ele>365.44</ele>
        <time>2025-05-19T14:53:53Z</time>
      </trkpt>
      <trkpt lat="45.768666034564376" lon="8.521963013336062">
        <ele>367.36000000000001</ele>
        <time>2025-05-19T14:53:54Z</time>
      </trkpt>
      <trkpt lat="45.768869966268539" lon="8.521985979750752">
        <ele>375.52999999999997</ele>
        <time>2025-05-19T14:53:59Z</time>
      </trkpt>
      <trkpt lat="45.768898967653513" lon="8.521988997235894">
        <ele>376.49000000000001</ele>
        <time>2025-05-19T14:54:00Z</time>
      </trkpt>
      <trkpt lat="45.769000975415111" lon="8.52182898670435">
        <ele>378.42000000000002</ele>
        <time>2025-05-19T14:54:01Z</time>
      </trkpt>
      <trkpt lat="45.769000975415111" lon="8.52182898670435">
        <ele>379.86000000000001</ele>
        <time>2025-05-19T14:54:02Z</time>
      </trkpt>
      <trkpt lat="45.769014973193407" lon="8.521755980327725">
        <ele>381.77999999999997</ele>
        <time>2025-05-19T14:54:03Z</time>
      </trkpt>
      <trkpt lat="45.769032994285226" lon="8.521665958687663">
        <ele>382.74000000000001</ele>
        <time>2025-05-19T14:54:04Z</time>
      </trkpt>
      <trkpt lat="45.76925796456635" lon="8.52073397487402">
        <ele>390.91000000000003</ele>
        <time>2025-05-19T14:54:11Z</time>
      </trkpt>
      <trkpt lat="45.7693209964782" lon="8.520579999312758">
        <ele>391.38999999999999</ele>
        <time>2025-05-19T14:54:12Z</time>
      </trkpt>
      <trkpt lat="45.769385034218431" lon="8.520426023751497">
        <ele>392.36000000000001</ele>
        <time>2025-05-19T14:54:13Z</time>
      </trkpt>
      <trkpt lat="45.769447982311249" lon="8.520270958542824">
        <ele>392.83999999999997</ele>
        <time>2025-05-19T14:54:14Z</time>
      </trkpt>
      <trkpt lat="45.769512020051479" lon="8.520116982981563">
        <ele>393.80000000000001</ele>
        <time>2025-05-19T14:54:15Z</time>
      </trkpt>
      <trkpt lat="45.769639005884528" lon="8.519806014373899">
        <ele>395.72000000000003</ele>
        <time>2025-05-19T14:54:17Z</time>
      </trkpt>
      <trkpt lat="45.769703965634108" lon="8.519648015499115">
        <ele>396.68000000000001</ele>
        <time>2025-05-19T14:54:18Z</time>
      </trkpt>
      <trkpt lat="45.769762974232435" lon="8.519484987482429">
        <ele>398.12</ele>
        <time>2025-05-19T14:54:19Z</time>
      </trkpt>
      <trkpt lat="45.770128006115556" lon="8.517999965697527">
        <ele>406.29000000000002</ele>
        <time>2025-05-19T14:54:28Z</time>
      </trkpt>
      <trkpt lat="45.77056503854692" lon="8.516525002196431">
        <ele>412.06</ele>
        <time>2025-05-19T14:54:37Z</time>
      </trkpt>
      <trkpt lat="45.770781962200999" lon="8.515669964253902">
        <ele>415.91000000000003</ele>
        <time>2025-05-19T14:54:42Z</time>
      </trkpt>
      <trkpt lat="45.770947001874447" lon="8.515182975679636">
        <ele>417.35000000000002</ele>
        <time>2025-05-19T14:54:45Z</time>
      </trkpt>
      <trkpt lat="45.770994024351239" lon="8.515019025653601">
        <ele>417.35000000000002</ele>
        <time>2025-05-19T14:54:46Z</time>
      </trkpt>
      <trkpt lat="45.77103903517127" lon="8.514854991808534">
        <ele>417.82999999999998</ele>
        <time>2025-05-19T14:54:47Z</time>
      </trkpt>
      <trkpt lat="45.77112503349781" lon="8.514474034309387">
        <ele>418.31</ele>
        <time>2025-05-19T14:54:50Z</time>
      </trkpt>
      <trkpt lat="45.771183958277106" lon="8.51424696855247">
        <ele>419.75</ele>
        <time>2025-05-19T14:54:52Z</time>
      </trkpt>
      <trkpt lat="45.771215977147222" lon="8.51413699798286">
        <ele>420.23000000000002</ele>
        <time>2025-05-19T14:54:53Z</time>
      </trkpt>
      <trkpt lat="45.771370958536863" lon="8.513813959434629">
        <ele>421.19</ele>
        <time>2025-05-19T14:54:57Z</time>
      </trkpt>
      <trkpt lat="45.77140599489212" lon="8.513718992471695">
        <ele>421.68000000000001</ele>
        <time>2025-05-19T14:54:58Z</time>
      </trkpt>
      <trkpt lat="45.77146902680397" lon="8.513511037454009">
        <ele>422.63999999999999</ele>
        <time>2025-05-19T14:55:00Z</time>
      </trkpt>
      <trkpt lat="45.77151495963335" lon="8.51330098696053">
        <ele>423.60000000000002</ele>
        <time>2025-05-19T14:55:02Z</time>
      </trkpt>
      <trkpt lat="45.771541027352214" lon="8.513208031654358">
        <ele>424.07999999999998</ele>
        <time>2025-05-19T14:55:03Z</time>
      </trkpt>
      <trkpt lat="45.771574974060059" lon="8.513138964772224">
        <ele>424.56</ele>
        <time>2025-05-19T14:55:04Z</time>
      </trkpt>
      <trkpt lat="45.771617973223329" lon="8.513052966445684">
        <ele>425.04000000000002</ele>
        <time>2025-05-19T14:55:05Z</time>
      </trkpt>
      <trkpt lat="45.771713024005294" lon="8.513035029172897">
        <ele>425.51999999999998</ele>
        <time>2025-05-19T14:55:06Z</time>
      </trkpt>
      <trkpt lat="45.77177002094686" lon="8.513082973659039">
        <ele>426</ele>
        <time>2025-05-19T14:55:07Z</time>
      </trkpt>
      <trkpt lat="45.77183498069644" lon="8.513137958943844">
        <ele>426</ele>
        <time>2025-05-19T14:55:08Z</time>
      </trkpt>
      <trkpt lat="45.771905975416303" lon="8.513198979198933">
        <ele>426.48000000000002</ele>
        <time>2025-05-19T14:55:09Z</time>
      </trkpt>
      <trkpt lat="45.77196498401463" lon="8.513247007504106">
        <ele>426.48000000000002</ele>
        <time>2025-05-19T14:55:10Z</time>
      </trkpt>
      <trkpt lat="45.772048970684409" lon="8.513268968090415">
        <ele>427.44</ele>
        <time>2025-05-19T14:55:11Z</time>
      </trkpt>
      <trkpt lat="45.772133963182569" lon="8.513293024152517">
        <ele>427.92000000000002</ele>
        <time>2025-05-19T14:55:12Z</time>
      </trkpt>
      <trkpt lat="45.772218033671379" lon="8.513307021930814">
        <ele>428.39999999999998</ele>
        <time>2025-05-19T14:55:13Z</time>
      </trkpt>
      <trkpt lat="45.772325992584229" lon="8.513291012495756">
        <ele>428.88999999999999</ele>
        <time>2025-05-19T14:55:14Z</time>
      </trkpt>
      <trkpt lat="45.772546017542481" lon="8.51325798779726">
        <ele>428.88999999999999</ele>
        <time>2025-05-19T14:55:16Z</time>
      </trkpt>
      <trkpt lat="45.772665962576866" lon="8.513263016939163">
        <ele>428.88999999999999</ele>
        <time>2025-05-19T14:55:17Z</time>
      </trkpt>
      <trkpt lat="45.772766964510083" lon="8.513310039415956">
        <ele>429.37</ele>
        <time>2025-05-19T14:55:18Z</time>
      </trkpt>
      <trkpt lat="45.773315979167819" lon="8.513559987768531">
        <ele>429.37</ele>
        <time>2025-05-19T14:55:23Z</time>
      </trkpt>
      <trkpt lat="45.773409018293023" lon="8.513585971668363">
        <ele>429.37</ele>
        <time>2025-05-19T14:55:24Z</time>
      </trkpt>
      <trkpt lat="45.773524018004537" lon="8.513572979718447">
        <ele>429.37</ele>
        <time>2025-05-19T14:55:25Z</time>
      </trkpt>
      <trkpt lat="45.773625019937754" lon="8.513513971120119">
        <ele>429.37</ele>
        <time>2025-05-19T14:55:26Z</time>
      </trkpt>
      <trkpt lat="45.773728033527732" lon="8.513410035520792">
        <ele>429.37</ele>
        <time>2025-05-19T14:55:27Z</time>
      </trkpt>
      <trkpt lat="45.773831969127059" lon="8.513306016102433">
        <ele>429.85000000000002</ele>
        <time>2025-05-19T14:55:28Z</time>
      </trkpt>
      <trkpt lat="45.773930959403515" lon="8.513208031654358">
        <ele>430.32999999999998</ele>
        <time>2025-05-19T14:55:29Z</time>
      </trkpt>
      <trkpt lat="45.774117959663272" lon="8.513045003637672">
        <ele>430.81</ele>
        <time>2025-05-19T14:55:31Z</time>
      </trkpt>
      <trkpt lat="45.774217033758759" lon="8.512993035838008">
        <ele>430.81</ele>
        <time>2025-05-19T14:55:32Z</time>
      </trkpt>
      <trkpt lat="45.774317029863596" lon="8.512939978390932">
        <ele>431.29000000000002</ele>
        <time>2025-05-19T14:55:33Z</time>
      </trkpt>
      <trkpt lat="45.77441199682653" lon="8.512893039733172">
        <ele>431.76999999999998</ele>
        <time>2025-05-19T14:55:34Z</time>
      </trkpt>
      <trkpt lat="45.774502018466592" lon="8.512858003377914">
        <ele>432.25</ele>
        <time>2025-05-19T14:55:35Z</time>
      </trkpt>
      <trkpt lat="45.774664962664247" lon="8.512794971466065">
        <ele>432.73000000000002</ele>
        <time>2025-05-19T14:55:37Z</time>
      </trkpt>
      <trkpt lat="45.775364013388753" lon="8.512305971235037">
        <ele>435.61000000000001</ele>
        <time>2025-05-19T14:55:44Z</time>
      </trkpt>
      <trkpt lat="45.775466021150351" lon="8.512227013707161">
        <ele>436.10000000000002</ele>
        <time>2025-05-19T14:55:45Z</time>
      </trkpt>
      <trkpt lat="45.775618990883231" lon="8.511958960443735">
        <ele>436.57999999999998</ele>
        <time>2025-05-19T14:55:47Z</time>
      </trkpt>
      <trkpt lat="45.775679005309939" lon="8.511814959347248">
        <ele>436.57999999999998</ele>
        <time>2025-05-19T14:55:48Z</time>
      </trkpt>
      <trkpt lat="45.775737008079886" lon="8.51166601292789">
        <ele>437.06</ele>
        <time>2025-05-19T14:55:49Z</time>
      </trkpt>
      <trkpt lat="45.775947980582714" lon="8.511243984103203">
        <ele>437.54000000000002</ele>
        <time>2025-05-19T14:55:52Z</time>
      </trkpt>
      <trkpt lat="45.776040013879538" lon="8.511138958856463">
        <ele>438.01999999999998</ele>
        <time>2025-05-19T14:55:53Z</time>
      </trkpt>
      <trkpt lat="45.77613296918571" lon="8.511032005771995">
        <ele>438.01999999999998</ele>
        <time>2025-05-19T14:55:54Z</time>
      </trkpt>
      <trkpt lat="45.776222990825772" lon="8.510962016880512">
        <ele>438.5</ele>
        <time>2025-05-19T14:55:55Z</time>
      </trkpt>
      <trkpt lat="45.776340002194047" lon="8.51089496165514">
        <ele>438.5</ele>
        <time>2025-05-19T14:55:56Z</time>
      </trkpt>
      <trkpt lat="45.776461036875844" lon="8.510826984420419">
        <ele>438.5</ele>
        <time>2025-05-19T14:55:57Z</time>
      </trkpt>
      <trkpt lat="45.776587016880512" lon="8.510756995528936">
        <ele>438.01999999999998</ele>
        <time>2025-05-19T14:55:58Z</time>
      </trkpt>
      <trkpt lat="45.776853980496526" lon="8.510606037452817">
        <ele>437.54000000000002</ele>
        <time>2025-05-19T14:56:00Z</time>
      </trkpt>
      <trkpt lat="45.777774984017015" lon="8.509645974263549">
        <ele>434.17000000000002</ele>
        <time>2025-05-19T14:56:09Z</time>
      </trkpt>
      <trkpt lat="45.777779007330537" lon="8.509536003693938">
        <ele>433.20999999999998</ele>
        <time>2025-05-19T14:56:10Z</time>
      </trkpt>
      <trkpt lat="45.777783030644059" lon="8.509393008425832">
        <ele>432.73000000000002</ele>
        <time>2025-05-19T14:56:11Z</time>
      </trkpt>
      <trkpt lat="45.77778697013855" lon="8.509235009551048">
        <ele>432.25</ele>
        <time>2025-05-19T14:56:12Z</time>
      </trkpt>
      <trkpt lat="45.777790993452072" lon="8.509070975705981">
        <ele>431.76999999999998</ele>
        <time>2025-05-19T14:56:13Z</time>
      </trkpt>
      <trkpt lat="45.777798034250736" lon="8.508761012926698">
        <ele>430.81</ele>
        <time>2025-05-19T14:56:15Z</time>
      </trkpt>
      <trkpt lat="45.777778001502156" lon="8.508578035980463">
        <ele>430.32999999999998</ele>
        <time>2025-05-19T14:56:16Z</time>
      </trkpt>
      <trkpt lat="45.777755035087466" lon="8.508375026285648">
        <ele>429.37</ele>
        <time>2025-05-19T14:56:17Z</time>
      </trkpt>
      <trkpt lat="45.777710024267435" lon="8.508258014917374">
        <ele>428.88999999999999</ele>
        <time>2025-05-19T14:56:18Z</time>
      </trkpt>
      <trkpt lat="45.777646992355585" lon="8.508095992729068">
        <ele>428.39999999999998</ele>
        <time>2025-05-19T14:56:19Z</time>
      </trkpt>
      <trkpt lat="45.777579015120864" lon="8.507938999682665">
        <ele>427.44</ele>
        <time>2025-05-19T14:56:20Z</time>
      </trkpt>
      <trkpt lat="45.777238039299846" lon="8.507271967828274">
        <ele>421.19</ele>
        <time>2025-05-19T14:56:25Z</time>
      </trkpt>
      <trkpt lat="45.777174001559615" lon="8.50713400170207">
        <ele>420.70999999999998</ele>
        <time>2025-05-19T14:56:26Z</time>
      </trkpt>
      <trkpt lat="45.77716302126646" lon="8.506998969241977">
        <ele>419.75</ele>
        <time>2025-05-19T14:56:27Z</time>
      </trkpt>
      <trkpt lat="45.777133014053106" lon="8.506657993420959">
        <ele>417.35000000000002</ele>
        <time>2025-05-19T14:56:30Z</time>
      </trkpt>
      <trkpt lat="45.777112981304526" lon="8.506550034508109">
        <ele>416.38999999999999</ele>
        <time>2025-05-19T14:56:31Z</time>
      </trkpt>
      <trkpt lat="45.776736969128251" lon="8.505717040970922">
        <ele>410.62</ele>
        <time>2025-05-19T14:56:37Z</time>
      </trkpt>
      <trkpt lat="45.776654994115233" lon="8.50558603182435">
        <ele>409.66000000000003</ele>
        <time>2025-05-19T14:56:38Z</time>
      </trkpt>
      <trkpt lat="45.776577964425087" lon="8.505471032112837">
        <ele>408.69999999999999</ele>
        <time>2025-05-19T14:56:39Z</time>
      </trkpt>
      <trkpt lat="45.776461958885193" lon="8.505297023802996">
        <ele>407.74000000000001</ele>
        <time>2025-05-19T14:56:41Z</time>
      </trkpt>
      <trkpt lat="45.776419965550303" lon="8.505234997719526">
        <ele>407.74000000000001</ele>
        <time>2025-05-19T14:56:42Z</time>
      </trkpt>
      <trkpt lat="45.776398004963994" lon="8.505165008828044">
        <ele>407.25999999999999</ele>
        <time>2025-05-19T14:56:43Z</time>
      </trkpt>
      <trkpt lat="45.776443015784025" lon="8.505128966644406">
        <ele>406.76999999999998</ele>
        <time>2025-05-19T14:56:44Z</time>
      </trkpt>
      <trkpt lat="45.776485009118915" lon="8.505095019936562">
        <ele>406.29000000000002</ele>
        <time>2025-05-19T14:56:45Z</time>
      </trkpt>
      <trkpt lat="45.776563966646791" lon="8.505166014656425">
        <ele>405.81</ele>
        <time>2025-05-19T14:56:46Z</time>
      </trkpt>
      <trkpt lat="45.77662699855864" lon="8.505240026861429">
        <ele>405.32999999999998</ele>
        <time>2025-05-19T14:56:47Z</time>
      </trkpt>
      <trkpt lat="45.776864038780332" lon="8.505520988255739">
        <ele>402.93000000000001</ele>
        <time>2025-05-19T14:56:50Z</time>
      </trkpt>
      <trkpt lat="45.776957999914885" lon="8.50563196465373">
        <ele>402.44999999999999</ele>
        <time>2025-05-19T14:56:51Z</time>
      </trkpt>
      <trkpt lat="45.777152040973306" lon="8.505862969905138">
        <ele>401.00999999999999</ele>
        <time>2025-05-19T14:56:53Z</time>
      </trkpt>
      <trkpt lat="45.777246002107859" lon="8.505974030122161">
        <ele>400.05000000000001</ele>
        <time>2025-05-19T14:56:54Z</time>
      </trkpt>
      <trkpt lat="45.777408024296165" lon="8.506233030930162">
        <ele>399.07999999999998</ele>
        <time>2025-05-19T14:56:56Z</time>
      </trkpt>
      <trkpt lat="45.777488993480802" lon="8.506364040076733">
        <ele>398.12</ele>
        <time>2025-05-19T14:56:57Z</time>
      </trkpt>
      <trkpt lat="45.778105985373259" lon="8.50749702192843">
        <ele>391.38999999999999</ele>
        <time>2025-05-19T14:57:06Z</time>
      </trkpt>
      <trkpt lat="45.778168011456728" lon="8.50760699249804">
        <ele>390.43000000000001</ele>
        <time>2025-05-19T14:57:07Z</time>
      </trkpt>
      <trkpt lat="45.778311006724834" lon="8.507749987766147">
        <ele>389.94999999999999</ele>
        <time>2025-05-19T14:57:09Z</time>
      </trkpt>
      <trkpt lat="45.778377978131175" lon="8.507816959172487">
        <ele>389.47000000000003</ele>
        <time>2025-05-19T14:57:10Z</time>
      </trkpt>
      <trkpt lat="45.778444027528167" lon="8.507800027728081">
        <ele>389.47000000000003</ele>
        <time>2025-05-19T14:57:11Z</time>
      </trkpt>
      <trkpt lat="45.778500018641353" lon="8.507759040221572">
        <ele>389.47000000000003</ele>
        <time>2025-05-19T14:57:12Z</time>
      </trkpt>
      <trkpt lat="45.778549974784255" lon="8.507707994431257">
        <ele>388.99000000000001</ele>
        <time>2025-05-19T14:57:13Z</time>
      </trkpt>
      <trkpt lat="45.778653994202614" lon="8.507528034970164">
        <ele>387.55000000000001</ele>
        <time>2025-05-19T14:57:20Z</time>
      </trkpt>
      <trkpt lat="45.778978038579226" lon="8.506937026977539">
        <ele>384.18000000000001</ele>
        <time>2025-05-19T14:57:31Z</time>
      </trkpt>
      <trkpt lat="45.779507020488381" lon="8.505878979340196">
        <ele>379.38</ele>
        <time>2025-05-19T14:57:43Z</time>
      </trkpt>
      <trkpt lat="45.779538033530116" lon="8.505812007933855">
        <ele>378.42000000000002</ele>
        <time>2025-05-19T14:57:44Z</time>
      </trkpt>
      <trkpt lat="45.779563011601567" lon="8.505760040134192">
        <ele>377.94</ele>
        <time>2025-05-19T14:57:45Z</time>
      </trkpt>
      <trkpt lat="45.779579021036625" lon="8.505726009607315">
        <ele>377.94</ele>
        <time>2025-05-19T14:57:46Z</time>
      </trkpt>
      <trkpt lat="45.779579021036625" lon="8.505726009607315">
        <ele>376.97000000000003</ele>
        <time>2025-05-19T14:57:55Z</time>
      </trkpt>
      <trkpt lat="45.779579021036625" lon="8.505726009607315">
        <ele>376.49000000000001</ele>
        <time>2025-05-19T14:58:39Z</time>
      </trkpt>
      <trkpt lat="45.779579021036625" lon="8.505726009607315">
        <ele>376.49000000000001</ele>
        <time>2025-05-19T14:59:37Z</time>
      </trkpt>
      <trkpt lat="45.779596036300063" lon="8.505688039585948">
        <ele>376.49000000000001</ele>
        <time>2025-05-19T15:00:12Z</time>
      </trkpt>
      <trkpt lat="45.779603999108076" lon="8.50567203015089">
        <ele>376.97000000000003</ele>
        <time>2025-05-19T15:00:13Z</time>
      </trkpt>
      <trkpt lat="45.77965303324163" lon="8.505568010732532">
        <ele>377.94</ele>
        <time>2025-05-19T15:00:17Z</time>
      </trkpt>
      <trkpt lat="45.779683040454984" lon="8.505512019619346">
        <ele>377.44999999999999</ele>
        <time>2025-05-19T15:00:18Z</time>
      </trkpt>
      <trkpt lat="45.779896024614573" lon="8.505152016878128">
        <ele>377.94</ele>
        <time>2025-05-19T15:00:22Z</time>
      </trkpt>
      <trkpt lat="45.780264995992184" lon="8.504621023312211">
        <ele>378.42000000000002</ele>
        <time>2025-05-19T15:00:27Z</time>
      </trkpt>
      <trkpt lat="45.780332973226905" lon="8.504532007500529">
        <ele>378.89999999999998</ele>
        <time>2025-05-19T15:00:28Z</time>
      </trkpt>
      <trkpt lat="45.780388964340091" lon="8.504459001123905">
        <ele>379.38</ele>
        <time>2025-05-19T15:00:29Z</time>
      </trkpt>
      <trkpt lat="45.780437998473644" lon="8.504395969212055">
        <ele>379.86000000000001</ele>
        <time>2025-05-19T15:00:30Z</time>
      </trkpt>
      <trkpt lat="45.780588034540415" lon="8.504448020830751">
        <ele>379.86000000000001</ele>
        <time>2025-05-19T15:00:31Z</time>
      </trkpt>
      <trkpt lat="45.780739998444915" lon="8.504354981705546">
        <ele>380.33999999999997</ele>
        <time>2025-05-19T15:00:33Z</time>
      </trkpt>
      <trkpt lat="45.780856003984809" lon="8.504392029717565">
        <ele>380.33999999999997</ele>
        <time>2025-05-19T15:00:34Z</time>
      </trkpt>
      <trkpt lat="45.781112993136048" lon="8.504474004730582">
        <ele>380.81999999999999</ele>
        <time>2025-05-19T15:00:36Z</time>
      </trkpt>
      <trkpt lat="45.781379034742713" lon="8.504472998902202">
        <ele>380.33999999999997</ele>
        <time>2025-05-19T15:00:38Z</time>
      </trkpt>
      <trkpt lat="45.781518006697297" lon="8.504436034709215">
        <ele>379.86000000000001</ele>
        <time>2025-05-19T15:00:39Z</time>
      </trkpt>
      <trkpt lat="45.782027039676905" lon="8.504178961738944">
        <ele>378.42000000000002</ele>
        <time>2025-05-19T15:00:43Z</time>
      </trkpt>
      <trkpt lat="45.782132986932993" lon="8.504148032516241">
        <ele>377.94</ele>
        <time>2025-05-19T15:00:44Z</time>
      </trkpt>
      <trkpt lat="45.782255027443171" lon="8.504157001152635">
        <ele>377.94</ele>
        <time>2025-05-19T15:00:45Z</time>
      </trkpt>
      <trkpt lat="45.782376984134316" lon="8.504165969789028">
        <ele>377.94</ele>
        <time>2025-05-19T15:00:46Z</time>
      </trkpt>
      <trkpt lat="45.782501036301255" lon="8.504176028072834">
        <ele>377.94</ele>
        <time>2025-05-19T15:00:47Z</time>
      </trkpt>
      <trkpt lat="45.783538967370987" lon="8.504307037219405">
        <ele>378.89999999999998</ele>
        <time>2025-05-19T15:00:55Z</time>
      </trkpt>
      <trkpt lat="45.783666959032416" lon="8.504322962835431">
        <ele>378.89999999999998</ele>
        <time>2025-05-19T15:00:56Z</time>
      </trkpt>
      <trkpt lat="45.784267019480467" lon="8.504393035545945">
        <ele>382.25999999999999</ele>
        <time>2025-05-19T15:01:01Z</time>
      </trkpt>
      <trkpt lat="45.785614997148514" lon="8.504587998613715">
        <ele>387.55000000000001</ele>
        <time>2025-05-19T15:01:12Z</time>
      </trkpt>
      <trkpt lat="45.786482021212578" lon="8.504698975011706">
        <ele>389.47000000000003</ele>
        <time>2025-05-19T15:01:19Z</time>
      </trkpt>
      <trkpt lat="45.787536967545748" lon="8.505396014079452">
        <ele>388.50999999999999</ele>
        <time>2025-05-19T15:01:29Z</time>
      </trkpt>
      <trkpt lat="45.788254039362073" lon="8.505899012088776">
        <ele>388.50999999999999</ele>
        <time>2025-05-19T15:01:39Z</time>
      </trkpt>
      <trkpt lat="45.789262969046831" lon="8.506404021754861">
        <ele>388.99000000000001</ele>
        <time>2025-05-19T15:01:49Z</time>
      </trkpt>
      <trkpt lat="45.790437022224069" lon="8.506813980638981">
        <ele>394.27999999999997</ele>
        <time>2025-05-19T15:01:58Z</time>
      </trkpt>
      <trkpt lat="45.791476964950562" lon="8.50719996728003">
        <ele>402.93000000000001</ele>
        <time>2025-05-19T15:02:06Z</time>
      </trkpt>
      <trkpt lat="45.792568037286401" lon="8.508233958855271">
        <ele>408.69999999999999</ele>
        <time>2025-05-19T15:02:15Z</time>
      </trkpt>
      <trkpt lat="45.793880978599191" lon="8.509997008368373">
        <ele>414.94999999999999</ele>
        <time>2025-05-19T15:02:28Z</time>
      </trkpt>
      <trkpt lat="45.795083027333021" lon="8.511549001559615">
        <ele>423.12</ele>
        <time>2025-05-19T15:02:39Z</time>
      </trkpt>
      <trkpt lat="45.796728981658816" lon="8.513109963387251">
        <ele>432.25</ele>
        <time>2025-05-19T15:02:52Z</time>
      </trkpt>
      <trkpt lat="45.798137979581952" lon="8.514043036848307">
        <ele>439.94</ele>
        <time>2025-05-19T15:03:03Z</time>
      </trkpt>
      <trkpt lat="45.799297029152513" lon="8.514866977930069">
        <ele>447.14999999999998</ele>
        <time>2025-05-19T15:03:12Z</time>
      </trkpt>
      <trkpt lat="45.799814024940133" lon="8.515349021181464">
        <ele>451</ele>
        <time>2025-05-19T15:03:16Z</time>
      </trkpt>
      <trkpt lat="45.800725976005197" lon="8.516506981104612">
        <ele>456.27999999999997</ele>
        <time>2025-05-19T15:03:25Z</time>
      </trkpt>
      <trkpt lat="45.800831001251936" lon="8.516643019393086">
        <ele>455.80000000000001</ele>
        <time>2025-05-19T15:03:26Z</time>
      </trkpt>
      <trkpt lat="45.801443969830871" lon="8.517494034022093">
        <ele>451.95999999999998</ele>
        <time>2025-05-19T15:03:32Z</time>
      </trkpt>
      <trkpt lat="45.801832973957062" lon="8.518185038119555">
        <ele>447.63</ele>
        <time>2025-05-19T15:03:37Z</time>
      </trkpt>
      <trkpt lat="45.801930958405137" lon="8.518295008689165">
        <ele>446.67000000000002</ele>
        <time>2025-05-19T15:03:38Z</time>
      </trkpt>
      <trkpt lat="45.802031960338354" lon="8.518402967602015">
        <ele>445.70999999999998</ele>
        <time>2025-05-19T15:03:39Z</time>
      </trkpt>
      <trkpt lat="45.802136985585093" lon="8.518508998677135">
        <ele>444.75</ele>
        <time>2025-05-19T15:03:40Z</time>
      </trkpt>
      <trkpt lat="45.802262965589762" lon="8.518568007275462">
        <ele>443.79000000000002</ele>
        <time>2025-05-19T15:03:41Z</time>
      </trkpt>
      <trkpt lat="45.802396992221475" lon="8.518621986731887">
        <ele>443.31</ele>
        <time>2025-05-19T15:03:42Z</time>
      </trkpt>
      <trkpt lat="45.802534958347678" lon="8.51867001503706">
        <ele>442.33999999999997</ele>
        <time>2025-05-19T15:03:43Z</time>
      </trkpt>
      <trkpt lat="45.802675019949675" lon="8.518708990886807">
        <ele>441.38</ele>
        <time>2025-05-19T15:03:44Z</time>
      </trkpt>
      <trkpt lat="45.803067963570356" lon="8.518923986703157">
        <ele>438.98000000000002</ele>
        <time>2025-05-19T15:03:47Z</time>
      </trkpt>
      <trkpt lat="45.803191009908915" lon="8.519020965322852">
        <ele>438.01999999999998</ele>
        <time>2025-05-19T15:03:48Z</time>
      </trkpt>
      <trkpt lat="45.803295029327273" lon="8.519129008054733">
        <ele>437.06</ele>
        <time>2025-05-19T15:03:49Z</time>
      </trkpt>
      <trkpt lat="45.803383961319923" lon="8.519281977787614">
        <ele>435.61000000000001</ele>
        <time>2025-05-19T15:03:50Z</time>
      </trkpt>
      <trkpt lat="45.803473982959986" lon="8.519437965005636">
        <ele>434.64999999999998</ele>
        <time>2025-05-19T15:03:51Z</time>
      </trkpt>
      <trkpt lat="45.803562998771667" lon="8.519592024385929">
        <ele>433.20999999999998</ele>
        <time>2025-05-19T15:03:52Z</time>
      </trkpt>
      <trkpt lat="45.804375037550926" lon="8.520996998995543">
        <ele>431.76999999999998</ele>
        <time>2025-05-19T15:04:02Z</time>
      </trkpt>
      <trkpt lat="45.805368963629007" lon="8.52255997247994">
        <ele>436.57999999999998</ele>
        <time>2025-05-19T15:04:14Z</time>
      </trkpt>
      <trkpt lat="45.806112019345164" lon="8.523451974615455">
        <ele>438.01999999999998</ele>
        <time>2025-05-19T15:04:22Z</time>
      </trkpt>
      <trkpt lat="45.806218972429633" lon="8.523530010133982">
        <ele>438.5</ele>
        <time>2025-05-19T15:04:23Z</time>
      </trkpt>
      <trkpt lat="45.806322991847992" lon="8.523605028167367">
        <ele>439.45999999999998</ele>
        <time>2025-05-19T15:04:24Z</time>
      </trkpt>
      <trkpt lat="45.806782990694046" lon="8.523732014000416">
        <ele>442.33999999999997</ele>
        <time>2025-05-19T15:04:28Z</time>
      </trkpt>
      <trkpt lat="45.806886004284024" lon="8.523777024820447">
        <ele>443.31</ele>
        <time>2025-05-19T15:04:29Z</time>
      </trkpt>
      <trkpt lat="45.807256987318397" lon="8.523992020636797">
        <ele>445.70999999999998</ele>
        <time>2025-05-19T15:04:33Z</time>
      </trkpt>
      <trkpt lat="45.807343991473317" lon="8.524071983993053">
        <ele>446.19</ele>
        <time>2025-05-19T15:04:34Z</time>
      </trkpt>
      <trkpt lat="45.807428983971477" lon="8.524151025339961">
        <ele>446.67000000000002</ele>
        <time>2025-05-19T15:04:35Z</time>
      </trkpt>
      <trkpt lat="45.8075210172683" lon="8.524241968989372">
        <ele>446.67000000000002</ele>
        <time>2025-05-19T15:04:36Z</time>
      </trkpt>
      <trkpt lat="45.807563010603189" lon="8.524354035034776">
        <ele>447.14999999999998</ele>
        <time>2025-05-19T15:04:37Z</time>
      </trkpt>
      <trkpt lat="45.807645991444588" lon="8.524574982002378">
        <ele>447.14999999999998</ele>
        <time>2025-05-19T15:04:39Z</time>
      </trkpt>
      <trkpt lat="45.807675998657942" lon="8.524699034169316">
        <ele>447.14999999999998</ele>
        <time>2025-05-19T15:04:40Z</time>
      </trkpt>
      <trkpt lat="45.807773983106017" lon="8.525107987225056">
        <ele>445.23000000000002</ele>
        <time>2025-05-19T15:04:43Z</time>
      </trkpt>
      <trkpt lat="45.807806001976132" lon="8.525222986936569">
        <ele>444.26999999999998</ele>
        <time>2025-05-19T15:04:44Z</time>
      </trkpt>
      <trkpt lat="45.807851012796164" lon="8.525334969162941">
        <ele>443.79000000000002</ele>
        <time>2025-05-19T15:04:45Z</time>
      </trkpt>
      <trkpt lat="45.808045975863934" lon="8.525722967460752">
        <ele>439.94</ele>
        <time>2025-05-19T15:04:50Z</time>
      </trkpt>
      <trkpt lat="45.8081029728055" lon="8.52578298188746">
        <ele>438.98000000000002</ele>
        <time>2025-05-19T15:04:52Z</time>
      </trkpt>
      <trkpt lat="45.808126023039222" lon="8.525807037949562">
        <ele>438.5</ele>
        <time>2025-05-19T15:04:53Z</time>
      </trkpt>
      <trkpt lat="45.808142032474279" lon="8.525822041556239">
        <ele>438.01999999999998</ele>
        <time>2025-05-19T15:04:54Z</time>
      </trkpt>
      <trkpt lat="45.808142032474279" lon="8.525822041556239">
        <ele>436.57999999999998</ele>
        <time>2025-05-19T15:05:08Z</time>
      </trkpt>
      <trkpt lat="45.808356022462249" lon="8.525994038209319">
        <ele>434.64999999999998</ele>
        <time>2025-05-19T15:05:22Z</time>
      </trkpt>
      <trkpt lat="45.808613011613488" lon="8.526089005172253">
        <ele>435.13</ele>
        <time>2025-05-19T15:05:25Z</time>
      </trkpt>
      <trkpt lat="45.80926202237606" lon="8.52621397934854">
        <ele>437.06</ele>
        <time>2025-05-19T15:05:31Z</time>
      </trkpt>
      <trkpt lat="45.809354977682233" lon="8.526239041239023">
        <ele>437.54000000000002</ele>
        <time>2025-05-19T15:05:32Z</time>
      </trkpt>
      <trkpt lat="45.809442987665534" lon="8.526314981281757">
        <ele>437.54000000000002</ele>
        <time>2025-05-19T15:05:33Z</time>
      </trkpt>
      <trkpt lat="45.809522029012442" lon="8.526408020406961">
        <ele>437.54000000000002</ele>
        <time>2025-05-19T15:05:34Z</time>
      </trkpt>
      <trkpt lat="45.809586988762021" lon="8.526528971269727">
        <ele>437.54000000000002</ele>
        <time>2025-05-19T15:05:35Z</time>
      </trkpt>
      <trkpt lat="45.809647003188729" lon="8.526653023436666">
        <ele>437.54000000000002</ele>
        <time>2025-05-19T15:05:36Z</time>
      </trkpt>
      <trkpt lat="45.809709029272199" lon="8.526779003441334">
        <ele>437.54000000000002</ele>
        <time>2025-05-19T15:05:37Z</time>
      </trkpt>
      <trkpt lat="45.810339013114572" lon="8.528248015791178">
        <ele>441.86000000000001</ele>
        <time>2025-05-19T15:05:48Z</time>
      </trkpt>
      <trkpt lat="45.810939995571971" lon="8.529762960970402">
        <ele>439.94</ele>
        <time>2025-05-19T15:05:57Z</time>
      </trkpt>
      <trkpt lat="45.811278037726879" lon="8.530449019744992">
        <ele>439.45999999999998</ele>
        <time>2025-05-19T15:06:01Z</time>
      </trkpt>
      <trkpt lat="45.811383984982967" lon="8.530604001134634">
        <ele>439.94</ele>
        <time>2025-05-19T15:06:02Z</time>
      </trkpt>
      <trkpt lat="45.812690975144506" lon="8.532107966020703">
        <ele>446.19</ele>
        <time>2025-05-19T15:06:13Z</time>
      </trkpt>
      <trkpt lat="45.813075033947825" lon="8.53267902508378">
        <ele>448.11000000000001</ele>
        <time>2025-05-19T15:06:17Z</time>
      </trkpt>
      <trkpt lat="45.813167989253998" lon="8.532815985381603">
        <ele>448.11000000000001</ele>
        <time>2025-05-19T15:06:18Z</time>
      </trkpt>
      <trkpt lat="45.814580004662275" lon="8.535026041790843">
        <ele>450.02999999999997</ele>
        <time>2025-05-19T15:06:33Z</time>
      </trkpt>
      <trkpt lat="45.814698021858931" lon="8.535163002088666">
        <ele>449.55000000000001</ele>
        <time>2025-05-19T15:06:34Z</time>
      </trkpt>
      <trkpt lat="45.814825007691979" lon="8.53527800180018">
        <ele>449.55000000000001</ele>
        <time>2025-05-19T15:06:35Z</time>
      </trkpt>
      <trkpt lat="45.814961967989802" lon="8.535358970984817">
        <ele>449.06999999999999</ele>
        <time>2025-05-19T15:06:36Z</time>
      </trkpt>
      <trkpt lat="45.815101023763418" lon="8.535414040088654">
        <ele>449.06999999999999</ele>
        <time>2025-05-19T15:06:37Z</time>
      </trkpt>
      <trkpt lat="45.815241001546383" lon="8.535470031201839">
        <ele>448.58999999999997</ele>
        <time>2025-05-19T15:06:38Z</time>
      </trkpt>
      <trkpt lat="45.816902965307236" lon="8.536058021709323">
        <ele>452.92000000000002</ele>
        <time>2025-05-19T15:06:50Z</time>
      </trkpt>
      <trkpt lat="45.817306973040104" lon="8.536192970350385">
        <ele>454.36000000000001</ele>
        <time>2025-05-19T15:06:53Z</time>
      </trkpt>
      <trkpt lat="45.818728040903807" lon="8.536650035530329">
        <ele>463.00999999999999</ele>
        <time>2025-05-19T15:07:04Z</time>
      </trkpt>
      <trkpt lat="45.81931795924902" lon="8.536838041618466">
        <ele>470.69999999999999</ele>
        <time>2025-05-19T15:07:11Z</time>
      </trkpt>
      <trkpt lat="45.819395994767547" lon="8.53686997666955">
        <ele>471.66000000000003</ele>
        <time>2025-05-19T15:07:12Z</time>
      </trkpt>
      <trkpt lat="45.820129998028278" lon="8.537081032991409">
        <ele>476.94999999999999</ele>
        <time>2025-05-19T15:07:20Z</time>
      </trkpt>
      <trkpt lat="45.820222031325102" lon="8.537119003012776">
        <ele>477.43000000000001</ele>
        <time>2025-05-19T15:07:21Z</time>
      </trkpt>
      <trkpt lat="45.8206279668957" lon="8.537364006042481">
        <ele>476.47000000000003</ele>
        <time>2025-05-19T15:07:25Z</time>
      </trkpt>
      <trkpt lat="45.820642970502377" lon="8.53738403879106">
        <ele>475.50999999999999</ele>
        <time>2025-05-19T15:07:26Z</time>
      </trkpt>
      <trkpt lat="45.820742966607213" lon="8.537602974101901">
        <ele>474.55000000000001</ele>
        <time>2025-05-19T15:07:28Z</time>
      </trkpt>
      <trkpt lat="45.820746989920735" lon="8.537732977420092">
        <ele>474.06999999999999</ele>
        <time>2025-05-19T15:07:29Z</time>
      </trkpt>
      <trkpt lat="45.820732992142439" lon="8.537826016545296">
        <ele>474.06999999999999</ele>
        <time>2025-05-19T15:07:30Z</time>
      </trkpt>
      <trkpt lat="45.820720000192523" lon="8.537919977679849">
        <ele>474.06999999999999</ele>
        <time>2025-05-19T15:07:31Z</time>
      </trkpt>
      <trkpt lat="45.820707008242607" lon="8.538014022633433">
        <ele>474.06999999999999</ele>
        <time>2025-05-19T15:07:32Z</time>
      </trkpt>
      <trkpt lat="45.820693010464311" lon="8.538105972111225">
        <ele>473.58999999999997</ele>
        <time>2025-05-19T15:07:33Z</time>
      </trkpt>
      <trkpt lat="45.820680018514395" lon="8.538199011236429">
        <ele>473.58999999999997</ele>
        <time>2025-05-19T15:07:34Z</time>
      </trkpt>
      <trkpt lat="45.820670966058969" lon="8.538264976814389">
        <ele>473.58999999999997</ele>
        <time>2025-05-19T15:07:35Z</time>
      </trkpt>
      <trkpt lat="45.820694016292691" lon="8.538300013169646">
        <ele>473.11000000000001</ele>
        <time>2025-05-19T15:07:36Z</time>
      </trkpt>
      <trkpt lat="45.820742966607213" lon="8.538374025374651">
        <ele>473.11000000000001</ele>
        <time>2025-05-19T15:07:37Z</time>
      </trkpt>
      <trkpt lat="45.821276977658272" lon="8.538933014497161">
        <ele>468.77999999999997</ele>
        <time>2025-05-19T15:07:46Z</time>
      </trkpt>
      <trkpt lat="45.821559028699994" lon="8.539073998108506">
        <ele>463.97000000000003</ele>
        <time>2025-05-19T15:07:50Z</time>
      </trkpt>
      <trkpt lat="45.821628011763096" lon="8.539066035300493">
        <ele>462.05000000000001</ele>
        <time>2025-05-19T15:07:51Z</time>
      </trkpt>
      <trkpt lat="45.821823980659246" lon="8.539012977853417">
        <ele>457.24000000000001</ele>
        <time>2025-05-19T15:07:54Z</time>
      </trkpt>
      <trkpt lat="45.821867985650897" lon="8.539003003388643">
        <ele>455.80000000000001</ele>
        <time>2025-05-19T15:07:55Z</time>
      </trkpt>
      <trkpt lat="45.821906039491296" lon="8.53899403475225">
        <ele>454.83999999999997</ele>
        <time>2025-05-19T15:07:56Z</time>
      </trkpt>
      <trkpt lat="45.821939986199141" lon="8.538985988125205">
        <ele>453.39999999999998</ele>
        <time>2025-05-19T15:07:57Z</time>
      </trkpt>
      <trkpt lat="45.821964964270592" lon="8.538980036973953">
        <ele>451.95999999999998</ele>
        <time>2025-05-19T15:07:58Z</time>
      </trkpt>
      <trkpt lat="45.822087004780769" lon="8.53895204141736">
        <ele>451</ele>
        <time>2025-05-19T15:07:59Z</time>
      </trkpt>
      <trkpt lat="45.822093039751053" lon="8.538980958983302">
        <ele>449.55000000000001</ele>
        <time>2025-05-19T15:08:00Z</time>
      </trkpt>
      <trkpt lat="45.822104020044208" lon="8.539030998945236">
        <ele>448.11000000000001</ele>
        <time>2025-05-19T15:08:01Z</time>
      </trkpt>
      <trkpt lat="45.822115000337362" lon="8.539084978401661">
        <ele>447.14999999999998</ele>
        <time>2025-05-19T15:08:02Z</time>
      </trkpt>
      <trkpt lat="45.822135033085942" lon="8.539178017526865">
        <ele>445.23000000000002</ele>
        <time>2025-05-19T15:08:04Z</time>
      </trkpt>
      <trkpt lat="45.822148025035858" lon="8.539237026125193">
        <ele>444.26999999999998</ele>
        <time>2025-05-19T15:08:05Z</time>
      </trkpt>
      <trkpt lat="45.822161016985774" lon="8.539301985874772">
        <ele>443.31</ele>
        <time>2025-05-19T15:08:06Z</time>
      </trkpt>
      <trkpt lat="45.822173003107309" lon="8.539359988644719">
        <ele>441.86000000000001</ele>
        <time>2025-05-19T15:08:07Z</time>
      </trkpt>
      <trkpt lat="45.82219404168427" lon="8.53942402638495">
        <ele>441.38</ele>
        <time>2025-05-19T15:08:08Z</time>
      </trkpt>
      <trkpt lat="45.822230000048876" lon="8.539502983912826">
        <ele>440.89999999999998</ele>
        <time>2025-05-19T15:08:09Z</time>
      </trkpt>
      <trkpt lat="45.822265036404133" lon="8.539579007774591">
        <ele>440.42000000000002</ele>
        <time>2025-05-19T15:08:10Z</time>
      </trkpt>
      <trkpt lat="45.822304012253881" lon="8.53966198861599">
        <ele>439.94</ele>
        <time>2025-05-19T15:08:11Z</time>
      </trkpt>
      <trkpt lat="45.822438038885593" lon="8.539757039397955">
        <ele>438.5</ele>
        <time>2025-05-19T15:08:13Z</time>
      </trkpt>
      <trkpt lat="45.822553960606456" lon="8.539829039946199">
        <ele>438.01999999999998</ele>
        <time>2025-05-19T15:08:15Z</time>
      </trkpt>
      <trkpt lat="45.82262403331697" lon="8.539844965562224">
        <ele>437.06</ele>
        <time>2025-05-19T15:08:16Z</time>
      </trkpt>
      <trkpt lat="45.822676001116633" lon="8.539853012189269">
        <ele>436.57999999999998</ele>
        <time>2025-05-19T15:08:17Z</time>
      </trkpt>
      <trkpt lat="45.822737021371722" lon="8.539853012189269">
        <ele>436.10000000000002</ele>
        <time>2025-05-19T15:08:18Z</time>
      </trkpt>
      <trkpt lat="45.82279703579843" lon="8.539853012189269">
        <ele>435.13</ele>
        <time>2025-05-19T15:08:19Z</time>
      </trkpt>
      <trkpt lat="45.822854032739997" lon="8.539853012189269">
        <ele>434.64999999999998</ele>
        <time>2025-05-19T15:08:20Z</time>
      </trkpt>
      <trkpt lat="45.822913963347673" lon="8.539853012189269">
        <ele>433.69</ele>
        <time>2025-05-19T15:08:21Z</time>
      </trkpt>
      <trkpt lat="45.823116973042488" lon="8.539767013862729">
        <ele>431.76999999999998</ele>
        <time>2025-05-19T15:08:23Z</time>
      </trkpt>
      <trkpt lat="45.823224009945989" lon="8.539785034954548">
        <ele>432.25</ele>
        <time>2025-05-19T15:08:25Z</time>
      </trkpt>
      <trkpt lat="45.82331302575767" lon="8.539800038561225">
        <ele>432.25</ele>
        <time>2025-05-19T15:08:26Z</time>
      </trkpt>
      <trkpt lat="45.823393994942307" lon="8.539819987490773">
        <ele>432.25</ele>
        <time>2025-05-19T15:08:27Z</time>
      </trkpt>
      <trkpt lat="45.823542019352317" lon="8.539878996089101">
        <ele>432.73000000000002</ele>
        <time>2025-05-19T15:08:29Z</time>
      </trkpt>
      <trkpt lat="45.823621982708573" lon="8.539887964725494">
        <ele>433.20999999999998</ele>
        <time>2025-05-19T15:08:30Z</time>
      </trkpt>
      <trkpt lat="45.82372197881341" lon="8.539887964725494">
        <ele>433.20999999999998</ele>
        <time>2025-05-19T15:08:31Z</time>
      </trkpt>
      <trkpt lat="45.823800014331937" lon="8.539864998310804">
        <ele>433.69</ele>
        <time>2025-05-19T15:08:32Z</time>
      </trkpt>
      <trkpt lat="45.823910990729928" lon="8.539831973612309">
        <ele>434.17000000000002</ele>
        <time>2025-05-19T15:08:33Z</time>
      </trkpt>
      <trkpt lat="45.823919037356973" lon="8.53983398526907">
        <ele>435.13</ele>
        <time>2025-05-19T15:08:34Z</time>
      </trkpt>
      <trkpt lat="45.823991037905216" lon="8.53985401801765">
        <ele>435.61000000000001</ele>
        <time>2025-05-19T15:08:35Z</time>
      </trkpt>
      <trkpt lat="45.824075024574995" lon="8.539875978603959">
        <ele>436.10000000000002</ele>
        <time>2025-05-19T15:08:36Z</time>
      </trkpt>
      <trkpt lat="45.824614986777306" lon="8.540030037984252">
        <ele>442.81999999999999</ele>
        <time>2025-05-19T15:08:42Z</time>
      </trkpt>
      <trkpt lat="45.824698973447084" lon="8.540038000792265">
        <ele>442.81999999999999</ele>
        <time>2025-05-19T15:08:43Z</time>
      </trkpt>
      <trkpt lat="45.824964009225368" lon="8.540061973035336">
        <ele>443.79000000000002</ele>
        <time>2025-05-19T15:08:46Z</time>
      </trkpt>
      <trkpt lat="45.82505595870316" lon="8.540068008005619">
        <ele>444.26999999999998</ele>
        <time>2025-05-19T15:08:47Z</time>
      </trkpt>
      <trkpt lat="45.825371034443378" lon="8.540068008005619">
        <ele>445.70999999999998</ele>
        <time>2025-05-19T15:08:52Z</time>
      </trkpt>
      <trkpt lat="45.825431970879436" lon="8.540068008005619">
        <ele>446.19</ele>
        <time>2025-05-19T15:08:53Z</time>
      </trkpt>
      <trkpt lat="45.825746040791273" lon="8.540068008005619">
        <ele>446.67000000000002</ele>
        <time>2025-05-19T15:08:59Z</time>
      </trkpt>
      <trkpt lat="45.82582700997591" lon="8.540053004398942">
        <ele>447.14999999999998</ele>
        <time>2025-05-19T15:09:00Z</time>
      </trkpt>
      <trkpt lat="45.825901022180915" lon="8.540030037984252">
        <ele>448.58999999999997</ele>
        <time>2025-05-19T15:09:01Z</time>
      </trkpt>
      <trkpt lat="45.826115012168884" lon="8.539943033829331">
        <ele>451</ele>
        <time>2025-05-19T15:09:04Z</time>
      </trkpt>
      <trkpt lat="45.826290026307106" lon="8.539827028289437">
        <ele>452.44</ele>
        <time>2025-05-19T15:09:08Z</time>
      </trkpt>
      <trkpt lat="45.826323973014951" lon="8.53981101885438">
        <ele>452.92000000000002</ele>
        <time>2025-05-19T15:09:09Z</time>
      </trkpt>
      <trkpt lat="45.826390022411942" lon="8.539818981662393">
        <ele>453.39999999999998</ele>
        <time>2025-05-19T15:09:10Z</time>
      </trkpt>
      <trkpt lat="45.826467974111438" lon="8.539829039946199">
        <ele>454.36000000000001</ele>
        <time>2025-05-19T15:09:11Z</time>
      </trkpt>
      <trkpt lat="45.826551960781217" lon="8.539839014410973">
        <ele>454.83999999999997</ele>
        <time>2025-05-19T15:09:12Z</time>
      </trkpt>
      <trkpt lat="45.827279007062316" lon="8.539859969168901">
        <ele>457.72000000000003</ele>
        <time>2025-05-19T15:09:20Z</time>
      </trkpt>
      <trkpt lat="45.828477032482624" lon="8.539744969457388">
        <ele>459.17000000000002</ele>
        <time>2025-05-19T15:09:30Z</time>
      </trkpt>
      <trkpt lat="45.82975803874433" lon="8.539611026644707">
        <ele>462.52999999999997</ele>
        <time>2025-05-19T15:09:41Z</time>
      </trkpt>
      <trkpt lat="45.830633025616407" lon="8.539502983912826">
        <ele>468.77999999999997</ele>
        <time>2025-05-19T15:09:48Z</time>
      </trkpt>
      <trkpt lat="45.831517986953259" lon="8.539359988644719">
        <ele>473.58999999999997</ele>
        <time>2025-05-19T15:09:55Z</time>
      </trkpt>
      <trkpt lat="45.832748031243682" lon="8.538848021999002">
        <ele>475.02999999999997</ele>
        <time>2025-05-19T15:10:05Z</time>
      </trkpt>
      <trkpt lat="45.833438029512763" lon="8.538479972630739">
        <ele>472.13999999999999</ele>
        <time>2025-05-19T15:10:10Z</time>
      </trkpt>
      <trkpt lat="45.833558980375528" lon="8.53837201371789">
        <ele>472.13999999999999</ele>
        <time>2025-05-19T15:10:11Z</time>
      </trkpt>
      <trkpt lat="45.833813035860658" lon="8.538144025951624">
        <ele>470.69999999999999</ele>
        <time>2025-05-19T15:10:13Z</time>
      </trkpt>
      <trkpt lat="45.833968017250299" lon="8.538054004311562">
        <ele>470.22000000000003</ele>
        <time>2025-05-19T15:10:14Z</time>
      </trkpt>
      <trkpt lat="45.834672013297677" lon="8.537675980478525">
        <ele>467.81999999999999</ele>
        <time>2025-05-19T15:10:18Z</time>
      </trkpt>
      <trkpt lat="45.836343029513955" lon="8.536491030827165">
        <ele>460.13</ele>
        <time>2025-05-19T15:10:27Z</time>
      </trkpt>
      <trkpt lat="45.8384820073843" lon="8.534724041819572">
        <ele>444.75</ele>
        <time>2025-05-19T15:10:39Z</time>
      </trkpt>
      <trkpt lat="45.838647969067097" lon="8.534602001309395">
        <ele>442.81999999999999</ele>
        <time>2025-05-19T15:10:40Z</time>
      </trkpt>
      <trkpt lat="45.838818037882447" lon="8.534533018246293">
        <ele>441.38</ele>
        <time>2025-05-19T15:10:41Z</time>
      </trkpt>
      <trkpt lat="45.839249035343528" lon="8.534321039915085">
        <ele>437.06</ele>
        <time>2025-05-19T15:10:44Z</time>
      </trkpt>
      <trkpt lat="45.839365962892771" lon="8.534205034375191">
        <ele>436.10000000000002</ele>
        <time>2025-05-19T15:10:45Z</time>
      </trkpt>
      <trkpt lat="45.839742980897427" lon="8.53385902941227">
        <ele>432.73000000000002</ele>
        <time>2025-05-19T15:10:48Z</time>
      </trkpt>
      <trkpt lat="45.839872984215617" lon="8.533769007772207">
        <ele>431.29000000000002</ele>
        <time>2025-05-19T15:10:49Z</time>
      </trkpt>
      <trkpt lat="45.839987983927131" lon="8.533714022487402">
        <ele>430.32999999999998</ele>
        <time>2025-05-19T15:10:50Z</time>
      </trkpt>
      <trkpt lat="45.840111030265689" lon="8.533673034980893">
        <ele>429.37</ele>
        <time>2025-05-19T15:10:51Z</time>
      </trkpt>
      <trkpt lat="45.840250002220273" lon="8.533648978918791">
        <ele>428.39999999999998</ele>
        <time>2025-05-19T15:10:52Z</time>
      </trkpt>
      <trkpt lat="45.840934971347451" lon="8.533486034721136">
        <ele>426.95999999999998</ele>
        <time>2025-05-19T15:10:57Z</time>
      </trkpt>
      <trkpt lat="45.84131701849401" lon="8.533285036683083">
        <ele>426.95999999999998</ele>
        <time>2025-05-19T15:11:00Z</time>
      </trkpt>
      <trkpt lat="45.841450039297342" lon="8.533218987286091">
        <ele>427.44</ele>
        <time>2025-05-19T15:11:01Z</time>
      </trkpt>
      <trkpt lat="45.84245796315372" lon="8.533051013946533">
        <ele>430.81</ele>
        <time>2025-05-19T15:11:09Z</time>
      </trkpt>
      <trkpt lat="45.843449039384723" lon="8.532972978428006">
        <ele>428.39999999999998</ele>
        <time>2025-05-19T15:11:17Z</time>
      </trkpt>
      <trkpt lat="45.844671037048101" lon="8.532776003703475">
        <ele>424.56</ele>
        <time>2025-05-19T15:11:27Z</time>
      </trkpt>
      <trkpt lat="45.846135020256042" lon="8.532428992912173">
        <ele>424.07999999999998</ele>
        <time>2025-05-19T15:11:39Z</time>
      </trkpt>
      <trkpt lat="45.847942996770144" lon="8.531828010454774">
        <ele>425.04000000000002</ele>
        <time>2025-05-19T15:11:54Z</time>
      </trkpt>
      <trkpt lat="45.848057996481657" lon="8.531828010454774">
        <ele>425.04000000000002</ele>
        <time>2025-05-19T15:11:55Z</time>
      </trkpt>
      <trkpt lat="45.849141022190452" lon="8.532140990719199">
        <ele>424.56</ele>
        <time>2025-05-19T15:12:03Z</time>
      </trkpt>
      <trkpt lat="45.850841961801052" lon="8.532819002866745">
        <ele>424.56</ele>
        <time>2025-05-19T15:12:15Z</time>
      </trkpt>
      <trkpt lat="45.85216797888279" lon="8.533340021967888">
        <ele>426.95999999999998</ele>
        <time>2025-05-19T15:12:24Z</time>
      </trkpt>
      <trkpt lat="45.853439010679722" lon="8.533837990835309">
        <ele>431.29000000000002</ele>
        <time>2025-05-19T15:12:32Z</time>
      </trkpt>
      <trkpt lat="45.854064971208572" lon="8.534049969166517">
        <ele>434.17000000000002</ele>
        <time>2025-05-19T15:12:36Z</time>
      </trkpt>
      <trkpt lat="45.854235962033272" lon="8.534043012186885">
        <ele>435.13</ele>
        <time>2025-05-19T15:12:37Z</time>
      </trkpt>
      <trkpt lat="45.854408964514732" lon="8.534020967781544">
        <ele>436.10000000000002</ele>
        <time>2025-05-19T15:12:38Z</time>
      </trkpt>
      <trkpt lat="45.854584984481335" lon="8.533949973061681">
        <ele>437.06</ele>
        <time>2025-05-19T15:12:39Z</time>
      </trkpt>
      <trkpt lat="45.854763016104698" lon="8.533864980563521">
        <ele>438.01999999999998</ele>
        <time>2025-05-19T15:12:40Z</time>
      </trkpt>
      <trkpt lat="45.854944987222552" lon="8.53377403691411">
        <ele>438.98000000000002</ele>
        <time>2025-05-19T15:12:41Z</time>
      </trkpt>
      <trkpt lat="45.855100974440575" lon="8.533617965877056">
        <ele>439.94</ele>
        <time>2025-05-19T15:12:42Z</time>
      </trkpt>
      <trkpt lat="45.855255033820868" lon="8.533446975052357">
        <ele>441.38</ele>
        <time>2025-05-19T15:12:43Z</time>
      </trkpt>
      <trkpt lat="45.855399034917355" lon="8.533261986449361">
        <ele>442.33999999999997</ele>
        <time>2025-05-19T15:12:44Z</time>
      </trkpt>
      <trkpt lat="45.855796001851559" lon="8.532752031460404">
        <ele>444.26999999999998</ele>
        <time>2025-05-19T15:12:47Z</time>
      </trkpt>
      <trkpt lat="45.855931034311652" lon="8.532690005376935">
        <ele>444.26999999999998</ele>
        <time>2025-05-19T15:12:48Z</time>
      </trkpt>
      <trkpt lat="45.856032958254218" lon="8.532642982900143">
        <ele>444.75</ele>
        <time>2025-05-19T15:12:49Z</time>
      </trkpt>
      <trkpt lat="45.856195986270905" lon="8.532673995941877">
        <ele>445.23000000000002</ele>
        <time>2025-05-19T15:12:50Z</time>
      </trkpt>
      <trkpt lat="45.856349961832166" lon="8.532702997326851">
        <ele>445.70999999999998</ele>
        <time>2025-05-19T15:12:51Z</time>
      </trkpt>
      <trkpt lat="45.857571959495544" lon="8.533230973407626">
        <ele>449.06999999999999</ele>
        <time>2025-05-19T15:13:00Z</time>
      </trkpt>
      <trkpt lat="45.858776019886136" lon="8.53403496555984">
        <ele>455.80000000000001</ele>
        <time>2025-05-19T15:13:11Z</time>
      </trkpt>
      <trkpt lat="45.858872998505831" lon="8.534109983593226">
        <ele>456.27999999999997</ele>
        <time>2025-05-19T15:13:12Z</time>
      </trkpt>
      <trkpt lat="45.859164018183947" lon="8.534433022141457">
        <ele>457.72000000000003</ele>
        <time>2025-05-19T15:13:16Z</time>
      </trkpt>
      <trkpt lat="45.859283041208982" lon="8.534647012129426">
        <ele>458.69</ele>
        <time>2025-05-19T15:13:18Z</time>
      </trkpt>
      <trkpt lat="45.859548998996615" lon="8.535182029008865">
        <ele>462.05000000000001</ele>
        <time>2025-05-19T15:13:25Z</time>
      </trkpt>
      <trkpt lat="45.859654024243355" lon="8.535380009561777">
        <ele>463.00999999999999</ele>
        <time>2025-05-19T15:13:27Z</time>
      </trkpt>
      <trkpt lat="45.859703980386257" lon="8.535478999838233">
        <ele>462.52999999999997</ele>
        <time>2025-05-19T15:13:28Z</time>
      </trkpt>
      <trkpt lat="45.859749997034669" lon="8.535572038963437">
        <ele>462.05000000000001</ele>
        <time>2025-05-19T15:13:29Z</time>
      </trkpt>
      <trkpt lat="45.859801964834332" lon="8.535674968734384">
        <ele>461.56999999999999</ele>
        <time>2025-05-19T15:13:30Z</time>
      </trkpt>
      <trkpt lat="45.859855022281408" lon="8.535782005637884">
        <ele>461.08999999999997</ele>
        <time>2025-05-19T15:13:31Z</time>
      </trkpt>
      <trkpt lat="45.860005980357528" lon="8.53609599173069">
        <ele>459.17000000000002</ele>
        <time>2025-05-19T15:13:34Z</time>
      </trkpt>
      <trkpt lat="45.86005300283432" lon="8.536187019199133">
        <ele>459.17000000000002</ele>
        <time>2025-05-19T15:13:35Z</time>
      </trkpt>
      <trkpt lat="45.860105976462364" lon="8.536272011697292">
        <ele>459.17000000000002</ele>
        <time>2025-05-19T15:13:36Z</time>
      </trkpt>
      <trkpt lat="45.860205972567201" lon="8.536432022228837">
        <ele>459.17000000000002</ele>
        <time>2025-05-19T15:13:38Z</time>
      </trkpt>
      <trkpt lat="45.860300017520785" lon="8.536581974476576">
        <ele>459.64999999999998</ele>
        <time>2025-05-19T15:13:40Z</time>
      </trkpt>
      <trkpt lat="45.860361037775874" lon="8.536662021651864">
        <ele>459.64999999999998</ele>
        <time>2025-05-19T15:13:41Z</time>
      </trkpt>
      <trkpt lat="45.860529011115432" lon="8.536732010543346">
        <ele>459.17000000000002</ele>
        <time>2025-05-19T15:13:43Z</time>
      </trkpt>
      <trkpt lat="45.860630013048649" lon="8.536774003878236">
        <ele>458.69</ele>
        <time>2025-05-19T15:13:44Z</time>
      </trkpt>
      <trkpt lat="45.860737971961498" lon="8.536819014698267">
        <ele>458.69</ele>
        <time>2025-05-19T15:13:45Z</time>
      </trkpt>
      <trkpt lat="45.861886041238904" lon="8.536990005522966">
        <ele>455.31999999999999</ele>
        <time>2025-05-19T15:13:54Z</time>
      </trkpt>
      <trkpt lat="45.863327980041504" lon="8.537327963858843">
        <ele>456.75999999999999</ele>
        <time>2025-05-19T15:14:05Z</time>
      </trkpt>
      <trkpt lat="45.863424958661199" lon="8.537392001599073">
        <ele>456.75999999999999</ele>
        <time>2025-05-19T15:14:06Z</time>
      </trkpt>
      <trkpt lat="45.863542975857854" lon="8.537470959126949">
        <ele>457.24000000000001</ele>
        <time>2025-05-19T15:14:07Z</time>
      </trkpt>
      <trkpt lat="45.863571977242827" lon="8.537550000473857">
        <ele>457.72000000000003</ele>
        <time>2025-05-19T15:14:08Z</time>
      </trkpt>
      <trkpt lat="45.863617993891239" lon="8.537674974650145">
        <ele>458.20999999999998</ele>
        <time>2025-05-19T15:14:09Z</time>
      </trkpt>
      <trkpt lat="45.863664010539651" lon="8.537798020988703">
        <ele>458.69</ele>
        <time>2025-05-19T15:14:10Z</time>
      </trkpt>
      <trkpt lat="45.863713966682553" lon="8.537932969629765">
        <ele>459.17000000000002</ele>
        <time>2025-05-19T15:14:11Z</time>
      </trkpt>
      <trkpt lat="45.863765012472868" lon="8.53807202540338">
        <ele>459.64999999999998</ele>
        <time>2025-05-19T15:14:12Z</time>
      </trkpt>
      <trkpt lat="45.863822009414434" lon="8.538221977651119">
        <ele>459.64999999999998</ele>
        <time>2025-05-19T15:14:13Z</time>
      </trkpt>
      <trkpt lat="45.863888980820775" lon="8.53826698847115">
        <ele>460.13</ele>
        <time>2025-05-19T15:14:14Z</time>
      </trkpt>
      <trkpt lat="45.863971961662173" lon="8.538304958492518">
        <ele>460.61000000000001</ele>
        <time>2025-05-19T15:14:15Z</time>
      </trkpt>
      <trkpt lat="45.864063994958997" lon="8.538290960714221">
        <ele>461.08999999999997</ele>
        <time>2025-05-19T15:14:16Z</time>
      </trkpt>
      <trkpt lat="45.864157034084201" lon="8.538276040926576">
        <ele>461.56999999999999</ele>
        <time>2025-05-19T15:14:17Z</time>
      </trkpt>
      <trkpt lat="45.864248983561993" lon="8.538247039541602">
        <ele>461.56999999999999</ele>
        <time>2025-05-19T15:14:18Z</time>
      </trkpt>
      <trkpt lat="45.864326013252139" lon="8.538176966831088">
        <ele>462.05000000000001</ele>
        <time>2025-05-19T15:14:19Z</time>
      </trkpt>
      <trkpt lat="45.864403964951634" lon="8.538104966282845">
        <ele>462.52999999999997</ele>
        <time>2025-05-19T15:14:20Z</time>
      </trkpt>
      <trkpt lat="45.864614015445113" lon="8.537859041243792">
        <ele>463.97000000000003</ele>
        <time>2025-05-19T15:14:23Z</time>
      </trkpt>
      <trkpt lat="45.864691967144608" lon="8.537776982411742">
        <ele>464.44999999999999</ele>
        <time>2025-05-19T15:14:24Z</time>
      </trkpt>
      <trkpt lat="45.865107038989663" lon="8.537321006879211">
        <ele>467.33999999999997</ele>
        <time>2025-05-19T15:14:29Z</time>
      </trkpt>
      <trkpt lat="45.865217009559274" lon="8.537235008552671">
        <ele>467.81999999999999</ele>
        <time>2025-05-19T15:14:30Z</time>
      </trkpt>
      <trkpt lat="45.865350030362606" lon="8.537174994125962">
        <ele>468.30000000000001</ele>
        <time>2025-05-19T15:14:31Z</time>
      </trkpt>
      <trkpt lat="45.865486990660429" lon="8.537116991356015">
        <ele>468.77999999999997</ele>
        <time>2025-05-19T15:14:32Z</time>
      </trkpt>
      <trkpt lat="45.865635015070438" lon="8.537067035213113">
        <ele>469.74000000000001</ele>
        <time>2025-05-19T15:14:33Z</time>
      </trkpt>
      <trkpt lat="45.866718962788582" lon="8.536851033568382">
        <ele>474.06999999999999</ele>
        <time>2025-05-19T15:14:39Z</time>
      </trkpt>
      <trkpt lat="45.868078004568815" lon="8.536678031086922">
        <ele>477.91000000000003</ele>
        <time>2025-05-19T15:14:46Z</time>
      </trkpt>
      <trkpt lat="45.86823801510036" lon="8.536580968648195">
        <ele>478.38999999999999</ele>
        <time>2025-05-19T15:14:47Z</time>
      </trkpt>
      <trkpt lat="45.868395008146763" lon="8.536487007513642">
        <ele>479.35000000000002</ele>
        <time>2025-05-19T15:14:48Z</time>
      </trkpt>
      <trkpt lat="45.868530962616205" lon="8.536366978660226">
        <ele>480.31999999999999</ele>
        <time>2025-05-19T15:14:49Z</time>
      </trkpt>
      <trkpt lat="45.868667000904679" lon="8.536232030019164">
        <ele>480.80000000000001</ele>
        <time>2025-05-19T15:14:50Z</time>
      </trkpt>
      <trkpt lat="45.868801027536392" lon="8.536098003387451">
        <ele>481.75999999999999</ele>
        <time>2025-05-19T15:14:51Z</time>
      </trkpt>
      <trkpt lat="45.868934970349073" lon="8.535962970927358">
        <ele>482.24000000000001</ele>
        <time>2025-05-19T15:14:52Z</time>
      </trkpt>
      <trkpt lat="45.869522960856557" lon="8.535447986796498">
        <ele>482.72000000000003</ele>
        <time>2025-05-19T15:14:57Z</time>
      </trkpt>
      <trkpt lat="45.869607031345367" lon="8.53542803786695">
        <ele>482.72000000000003</ele>
        <time>2025-05-19T15:14:58Z</time>
      </trkpt>
      <trkpt lat="45.86967702023685" lon="8.535412028431892">
        <ele>483.19999999999999</ele>
        <time>2025-05-19T15:14:59Z</time>
      </trkpt>
      <trkpt lat="45.869680037721992" lon="8.535411022603512">
        <ele>483.68000000000001</ele>
        <time>2025-05-19T15:15:00Z</time>
      </trkpt>
      <trkpt lat="45.869749020785093" lon="8.535333992913365">
        <ele>483.68000000000001</ele>
        <time>2025-05-19T15:15:01Z</time>
      </trkpt>
      <trkpt lat="45.869791014119983" lon="8.535287976264954">
        <ele>483.68000000000001</ele>
        <time>2025-05-19T15:15:02Z</time>
      </trkpt>
      <trkpt lat="45.86982898414135" lon="8.535244977101684">
        <ele>483.68000000000001</ele>
        <time>2025-05-19T15:15:03Z</time>
      </trkpt>
      <trkpt lat="45.869866032153368" lon="8.535203989595175">
        <ele>484.16000000000003</ele>
        <time>2025-05-19T15:15:04Z</time>
      </trkpt>
      <trkpt lat="45.869971979409456" lon="8.53521597571671">
        <ele>484.16000000000003</ele>
        <time>2025-05-19T15:15:06Z</time>
      </trkpt>
      <trkpt lat="45.870030988007784" lon="8.535227961838245">
        <ele>484.16000000000003</ele>
        <time>2025-05-19T15:15:07Z</time>
      </trkpt>
      <trkpt lat="45.870099971070886" lon="8.535241037607193">
        <ele>484.16000000000003</ele>
        <time>2025-05-19T15:15:08Z</time>
      </trkpt>
      <trkpt lat="45.870174989104271" lon="8.535252017900348">
        <ele>484.16000000000003</ele>
        <time>2025-05-19T15:15:09Z</time>
      </trkpt>
      <trkpt lat="45.870268028229475" lon="8.535265009850264">
        <ele>483.68000000000001</ele>
        <time>2025-05-19T15:15:10Z</time>
      </trkpt>
      <trkpt lat="45.871371002867818" lon="8.535431977361441">
        <ele>477.43000000000001</ele>
        <time>2025-05-19T15:15:18Z</time>
      </trkpt>
      <trkpt lat="45.872653014957905" lon="8.535833973437548">
        <ele>469.25999999999999</ele>
        <time>2025-05-19T15:15:26Z</time>
      </trkpt>
      <trkpt lat="45.873292973265052" lon="8.536491030827165">
        <ele>462.05000000000001</ele>
        <time>2025-05-19T15:15:31Z</time>
      </trkpt>
      <trkpt lat="45.874175000935793" lon="8.53802802041173">
        <ele>451</ele>
        <time>2025-05-19T15:15:39Z</time>
      </trkpt>
      <trkpt lat="45.874449005350471" lon="8.538531018421054">
        <ele>447.14999999999998</ele>
        <time>2025-05-19T15:15:42Z</time>
      </trkpt>
      <trkpt lat="45.874528968706727" lon="8.53871600702405">
        <ele>446.19</ele>
        <time>2025-05-19T15:15:43Z</time>
      </trkpt>
      <trkpt lat="45.874566016718745" lon="8.538894038647413">
        <ele>444.75</ele>
        <time>2025-05-19T15:15:44Z</time>
      </trkpt>
      <trkpt lat="45.874787969514728" lon="8.540019979700446">
        <ele>438.01999999999998</ele>
        <time>2025-05-19T15:15:50Z</time>
      </trkpt>
      <trkpt lat="45.874789981171489" lon="8.5402209777385">
        <ele>437.06</ele>
        <time>2025-05-19T15:15:51Z</time>
      </trkpt>
      <trkpt lat="45.874818982556462" lon="8.541885036975145">
        <ele>425.51999999999998</ele>
        <time>2025-05-19T15:15:59Z</time>
      </trkpt>
      <trkpt lat="45.874843038618565" lon="8.542633960023522">
        <ele>420.70999999999998</ele>
        <time>2025-05-19T15:16:03Z</time>
      </trkpt>
      <trkpt lat="45.874835997819901" lon="8.542817020788789">
        <ele>419.26999999999998</ele>
        <time>2025-05-19T15:16:04Z</time>
      </trkpt>
      <trkpt lat="45.874816970899701" lon="8.543020030483604">
        <ele>417.82999999999998</ele>
        <time>2025-05-19T15:16:05Z</time>
      </trkpt>
      <trkpt lat="45.874772965908051" lon="8.54320602491498">
        <ele>416.87</ele>
        <time>2025-05-19T15:16:06Z</time>
      </trkpt>
      <trkpt lat="45.874727033078671" lon="8.543395958840847">
        <ele>415.43000000000001</ele>
        <time>2025-05-19T15:16:07Z</time>
      </trkpt>
      <trkpt lat="45.874282037839293" lon="8.545263027772307">
        <ele>403.88999999999999</ele>
        <time>2025-05-19T15:16:16Z</time>
      </trkpt>
      <trkpt lat="45.874093025922775" lon="8.545888988301158">
        <ele>399.56999999999999</ele>
        <time>2025-05-19T15:16:20Z</time>
      </trkpt>
      <trkpt lat="45.87404097430408" lon="8.546005999669433">
        <ele>398.60000000000002</ele>
        <time>2025-05-19T15:16:21Z</time>
      </trkpt>
      <trkpt lat="45.873992023989558" lon="8.546112030744553">
        <ele>397.63999999999999</ele>
        <time>2025-05-19T15:16:22Z</time>
      </trkpt>
      <trkpt lat="45.873950030654669" lon="8.546204986050725">
        <ele>396.68000000000001</ele>
        <time>2025-05-19T15:16:23Z</time>
      </trkpt>
      <trkpt lat="45.873950030654669" lon="8.54628000408411">
        <ele>396.19999999999999</ele>
        <time>2025-05-19T15:16:24Z</time>
      </trkpt>
      <trkpt lat="45.873950030654669" lon="8.546332977712154">
        <ele>395.24000000000001</ele>
        <time>2025-05-19T15:16:25Z</time>
      </trkpt>
      <trkpt lat="45.873972997069359" lon="8.546353010460734">
        <ele>394.75999999999999</ele>
        <time>2025-05-19T15:16:26Z</time>
      </trkpt>
      <trkpt lat="45.87401800788939" lon="8.546389974653721">
        <ele>393.80000000000001</ele>
        <time>2025-05-19T15:16:27Z</time>
      </trkpt>
      <trkpt lat="45.874079028144479" lon="8.546441020444036">
        <ele>392.83999999999997</ele>
        <time>2025-05-19T15:16:28Z</time>
      </trkpt>
      <trkpt lat="45.87410400621593" lon="8.546415958553553">
        <ele>392.36000000000001</ele>
        <time>2025-05-19T15:16:29Z</time>
      </trkpt>
      <trkpt lat="45.874151028692722" lon="8.546369019895792">
        <ele>391.87</ele>
        <time>2025-05-19T15:16:30Z</time>
      </trkpt>
      <trkpt lat="45.874228980392218" lon="8.546289978548884">
        <ele>391.38999999999999</ele>
        <time>2025-05-19T15:16:31Z</time>
      </trkpt>
      <trkpt lat="45.874258987605572" lon="8.546240022405982">
        <ele>390.91000000000003</ele>
        <time>2025-05-19T15:16:32Z</time>
      </trkpt>
      <trkpt lat="45.874805990606546" lon="8.545303009450436">
        <ele>384.66000000000003</ele>
        <time>2025-05-19T15:16:41Z</time>
      </trkpt>
      <trkpt lat="45.875165993347764" lon="8.54466900229454">
        <ele>380.33999999999997</ele>
        <time>2025-05-19T15:16:47Z</time>
      </trkpt>
      <trkpt lat="45.875369003042579" lon="8.544135997071862">
        <ele>376.97000000000003</ele>
        <time>2025-05-19T15:16:52Z</time>
      </trkpt>
      <trkpt lat="45.875423988327384" lon="8.544067014008761">
        <ele>376.00999999999999</ele>
        <time>2025-05-19T15:16:53Z</time>
      </trkpt>
      <trkpt lat="45.875482996925712" lon="8.54406600818038">
        <ele>375.05000000000001</ele>
        <time>2025-05-19T15:16:54Z</time>
      </trkpt>
      <trkpt lat="45.875549968332052" lon="8.544075982645154">
        <ele>374.08999999999997</ele>
        <time>2025-05-19T15:16:55Z</time>
      </trkpt>
      <trkpt lat="45.875596990808845" lon="8.544145971536636">
        <ele>373.13</ele>
        <time>2025-05-19T15:16:56Z</time>
      </trkpt>
      <trkpt lat="45.875621968880296" lon="8.544244039803743">
        <ele>372.64999999999998</ele>
        <time>2025-05-19T15:16:57Z</time>
      </trkpt>
      <trkpt lat="45.875636972486973" lon="8.544369013980031">
        <ele>372.17000000000002</ele>
        <time>2025-05-19T15:16:58Z</time>
      </trkpt>
      <trkpt lat="45.87560897693038" lon="8.5444759670645">
        <ele>371.69</ele>
        <time>2025-05-19T15:16:59Z</time>
      </trkpt>
      <trkpt lat="45.875290967524052" lon="8.545773988589644">
        <ele>369.27999999999997</ele>
        <time>2025-05-19T15:17:10Z</time>
      </trkpt>
      <trkpt lat="45.875219972804189" lon="8.546074982732534">
        <ele>370.24000000000001</ele>
        <time>2025-05-19T15:17:13Z</time>
      </trkpt>
      <trkpt lat="45.875205975025892" lon="8.546132985502482">
        <ele>370.24000000000001</ele>
        <time>2025-05-19T15:17:14Z</time>
      </trkpt>
      <trkpt lat="45.875194994732738" lon="8.546183025464416">
        <ele>370.73000000000002</ele>
        <time>2025-05-19T15:17:15Z</time>
      </trkpt>
      <trkpt lat="45.875196000561118" lon="8.546196017414331">
        <ele>370.73000000000002</ele>
        <time>2025-05-19T15:17:16Z</time>
      </trkpt>
      <trkpt lat="45.87520002387464" lon="8.546243961900473">
        <ele>371.20999999999998</ele>
        <time>2025-05-19T15:17:17Z</time>
      </trkpt>
      <trkpt lat="45.875204969197512" lon="8.546298025175929">
        <ele>371.20999999999998</ele>
        <time>2025-05-19T15:17:18Z</time>
      </trkpt>
      <trkpt lat="45.875208992511034" lon="8.54634203016758">
        <ele>371.20999999999998</ele>
        <time>2025-05-19T15:17:19Z</time>
      </trkpt>
      <trkpt lat="45.875273030251265" lon="8.546442026272416">
        <ele>371.20999999999998</ele>
        <time>2025-05-19T15:17:23Z</time>
      </trkpt>
      <trkpt lat="45.875322986394167" lon="8.546461975201964">
        <ele>371.20999999999998</ele>
        <time>2025-05-19T15:17:24Z</time>
      </trkpt>
      <trkpt lat="45.875362968072295" lon="8.54645099490881">
        <ele>370.73000000000002</ele>
        <time>2025-05-19T15:17:25Z</time>
      </trkpt>
      <trkpt lat="45.875433040782809" lon="8.546430040150881">
        <ele>370.24000000000001</ele>
        <time>2025-05-19T15:17:26Z</time>
      </trkpt>
      <trkpt lat="45.875506969168782" lon="8.54640799574554">
        <ele>369.75999999999999</ele>
        <time>2025-05-19T15:17:27Z</time>
      </trkpt>
      <trkpt lat="45.87558701634407" lon="8.54638502933085">
        <ele>369.27999999999997</ele>
        <time>2025-05-19T15:17:28Z</time>
      </trkpt>
      <trkpt lat="45.875763036310673" lon="8.546316968277097">
        <ele>367.83999999999997</ele>
        <time>2025-05-19T15:17:30Z</time>
      </trkpt>
      <trkpt lat="45.875847022980452" lon="8.546275980770588">
        <ele>366.88</ele>
        <time>2025-05-19T15:17:31Z</time>
      </trkpt>
      <trkpt lat="45.876094037666917" lon="8.546140026301146">
        <ele>363.51999999999998</ele>
        <time>2025-05-19T15:17:34Z</time>
      </trkpt>
      <trkpt lat="45.876169977709651" lon="8.546057967469096">
        <ele>362.55000000000001</ele>
        <time>2025-05-19T15:17:35Z</time>
      </trkpt>
      <trkpt lat="45.876401988789439" lon="8.54574297554791">
        <ele>358.70999999999998</ele>
        <time>2025-05-19T15:17:38Z</time>
      </trkpt>
      <trkpt lat="45.876468038186431" lon="8.545610960572958">
        <ele>357.26999999999998</ele>
        <time>2025-05-19T15:17:39Z</time>
      </trkpt>
      <trkpt lat="45.876526040956378" lon="8.545465031638742">
        <ele>356.31</ele>
        <time>2025-05-19T15:17:40Z</time>
      </trkpt>
      <trkpt lat="45.87661799043417" lon="8.545153979212046">
        <ele>354.38</ele>
        <time>2025-05-19T15:17:42Z</time>
      </trkpt>
      <trkpt lat="45.876771965995431" lon="8.544573029503226">
        <ele>351.5</ele>
        <time>2025-05-19T15:17:46Z</time>
      </trkpt>
      <trkpt lat="45.876778000965714" lon="8.544462975114584">
        <ele>351.01999999999998</ele>
        <time>2025-05-19T15:17:47Z</time>
      </trkpt>
      <trkpt lat="45.87677096016705" lon="8.544345963746309">
        <ele>350.54000000000002</ele>
        <time>2025-05-19T15:17:48Z</time>
      </trkpt>
      <trkpt lat="45.876762997359037" lon="8.544216966256499">
        <ele>349.57999999999998</ele>
        <time>2025-05-19T15:17:49Z</time>
      </trkpt>
      <trkpt lat="45.876739025115967" lon="8.544098027050495">
        <ele>348.62</ele>
        <time>2025-05-19T15:17:50Z</time>
      </trkpt>
      <trkpt lat="45.876709017902613" lon="8.543971963226795">
        <ele>347.64999999999998</ele>
        <time>2025-05-19T15:17:51Z</time>
      </trkpt>
      <trkpt lat="45.876676999032497" lon="8.543839026242495">
        <ele>346.69</ele>
        <time>2025-05-19T15:17:52Z</time>
      </trkpt>
      <trkpt lat="45.876645985990763" lon="8.543710028752685">
        <ele>345.73000000000002</ele>
        <time>2025-05-19T15:17:53Z</time>
      </trkpt>
      <trkpt lat="45.876616984605789" lon="8.543591005727649">
        <ele>345.25</ele>
        <time>2025-05-19T15:17:54Z</time>
      </trkpt>
      <trkpt lat="45.876643974334002" lon="8.543510958552361">
        <ele>344.29000000000002</ele>
        <time>2025-05-19T15:17:55Z</time>
      </trkpt>
      <trkpt lat="45.876674987375736" lon="8.543457984924316">
        <ele>342.85000000000002</ele>
        <time>2025-05-19T15:17:56Z</time>
      </trkpt>
      <trkpt lat="45.876692002639174" lon="8.543454967439175">
        <ele>341.88999999999999</ele>
        <time>2025-05-19T15:17:57Z</time>
      </trkpt>
      <trkpt lat="45.876752017065883" lon="8.543442981317639">
        <ele>340.44</ele>
        <time>2025-05-19T15:17:58Z</time>
      </trkpt>
      <trkpt lat="45.876797027885914" lon="8.543463014066219">
        <ele>339</ele>
        <time>2025-05-19T15:17:59Z</time>
      </trkpt>
      <trkpt lat="45.876841032877564" lon="8.543539959937334">
        <ele>338.04000000000002</ele>
        <time>2025-05-19T15:18:00Z</time>
      </trkpt>
      <trkpt lat="45.876899035647511" lon="8.543640961870551">
        <ele>337.07999999999998</ele>
        <time>2025-05-19T15:18:01Z</time>
      </trkpt>
      <trkpt lat="45.876959972083569" lon="8.543754033744335">
        <ele>336.60000000000002</ele>
        <time>2025-05-19T15:18:02Z</time>
      </trkpt>
      <trkpt lat="45.877085030078888" lon="8.544158963486552">
        <ele>334.19999999999999</ele>
        <time>2025-05-19T15:18:05Z</time>
      </trkpt>
      <trkpt lat="45.877125011757016" lon="8.544287960976362">
        <ele>333.23000000000002</ele>
        <time>2025-05-19T15:18:06Z</time>
      </trkpt>
      <trkpt lat="45.877144960686564" lon="8.544445959851146">
        <ele>332.75</ele>
        <time>2025-05-19T15:18:07Z</time>
      </trkpt>
      <trkpt lat="45.877141021192074" lon="8.544594990089536">
        <ele>331.79000000000002</ele>
        <time>2025-05-19T15:18:08Z</time>
      </trkpt>
      <trkpt lat="45.877136997878551" lon="8.5447539947927">
        <ele>330.82999999999998</ele>
        <time>2025-05-19T15:18:09Z</time>
      </trkpt>
      <trkpt lat="45.877132974565029" lon="8.54492599144578">
        <ele>329.87</ele>
        <time>2025-05-19T15:18:10Z</time>
      </trkpt>
      <trkpt lat="45.877032978460193" lon="8.5464290343225">
        <ele>319.30000000000001</ele>
        <time>2025-05-19T15:18:20Z</time>
      </trkpt>
      <trkpt lat="45.877013029530644" lon="8.546735979616642">
        <ele>317.85000000000002</ele>
        <time>2025-05-19T15:18:22Z</time>
      </trkpt>
      <trkpt lat="45.876997020095587" lon="8.546976959332824">
        <ele>316.41000000000003</ele>
        <time>2025-05-19T15:18:24Z</time>
      </trkpt>
      <trkpt lat="45.87702602148056" lon="8.547091959044337">
        <ele>315.44999999999999</ele>
        <time>2025-05-19T15:18:25Z</time>
      </trkpt>
      <trkpt lat="45.87704898789525" lon="8.547151973471046">
        <ele>314.49000000000001</ele>
        <time>2025-05-19T15:18:26Z</time>
      </trkpt>
      <trkpt lat="45.8771120198071" lon="8.547173012048006">
        <ele>314.00999999999999</ele>
        <time>2025-05-19T15:18:27Z</time>
      </trkpt>
      <trkpt lat="45.877168010920286" lon="8.547191033139825">
        <ele>313.52999999999997</ele>
        <time>2025-05-19T15:18:28Z</time>
      </trkpt>
      <trkpt lat="45.877185026183724" lon="8.547169994562864">
        <ele>313.52999999999997</ele>
        <time>2025-05-19T15:18:29Z</time>
      </trkpt>
      <trkpt lat="45.877232970669866" lon="8.547106040641666">
        <ele>313.05000000000001</ele>
        <time>2025-05-19T15:18:30Z</time>
      </trkpt>
      <trkpt lat="45.877259038388729" lon="8.547042002901435">
        <ele>312.56999999999999</ele>
        <time>2025-05-19T15:18:31Z</time>
      </trkpt>
      <trkpt lat="45.877296002581716" lon="8.546948041766882">
        <ele>312.08999999999997</ele>
        <time>2025-05-19T15:18:32Z</time>
      </trkpt>
      <trkpt lat="45.877335984259844" lon="8.546848967671394">
        <ele>311.60000000000002</ele>
        <time>2025-05-19T15:18:33Z</time>
      </trkpt>
      <trkpt lat="45.877375965937972" lon="8.546744026243687">
        <ele>311.12</ele>
        <time>2025-05-19T15:18:34Z</time>
      </trkpt>
      <trkpt lat="45.877415025606751" lon="8.546633971855044">
        <ele>310.63999999999999</ele>
        <time>2025-05-19T15:18:35Z</time>
      </trkpt>
      <trkpt lat="45.877661034464836" lon="8.54580701328814">
        <ele>306.31999999999999</ele>
        <time>2025-05-19T15:18:42Z</time>
      </trkpt>
      <trkpt lat="45.877866977825761" lon="8.545117015019059">
        <ele>302.47000000000003</ele>
        <time>2025-05-19T15:18:47Z</time>
      </trkpt>
      <trkpt lat="45.877910982817411" lon="8.54496899060905">
        <ele>301.50999999999999</ele>
        <time>2025-05-19T15:18:48Z</time>
      </trkpt>
      <trkpt lat="45.877967979758978" lon="8.544829012826085">
        <ele>301.02999999999997</ele>
        <time>2025-05-19T15:18:49Z</time>
      </trkpt>
      <trkpt lat="45.878155985847116" lon="8.544402038678527">
        <ele>299.11000000000001</ele>
        <time>2025-05-19T15:18:52Z</time>
      </trkpt>
      <trkpt lat="45.878784041851759" lon="8.543361006304622">
        <ele>293.33999999999997</ele>
        <time>2025-05-19T15:19:01Z</time>
      </trkpt>
      <trkpt lat="45.878892000764608" lon="8.543118014931679">
        <ele>292.38</ele>
        <time>2025-05-19T15:19:03Z</time>
      </trkpt>
      <trkpt lat="45.878914967179298" lon="8.542978959158063">
        <ele>291.89999999999998</ele>
        <time>2025-05-19T15:19:04Z</time>
      </trkpt>
      <trkpt lat="45.87893801741302" lon="8.542835963889957">
        <ele>291.89999999999998</ele>
        <time>2025-05-19T15:19:05Z</time>
      </trkpt>
      <trkpt lat="45.879071038216352" lon="8.542029038071632">
        <ele>289.00999999999999</ele>
        <time>2025-05-19T15:19:13Z</time>
      </trkpt>
      <trkpt lat="45.879081012681127" lon="8.541967011988163">
        <ele>288.52999999999997</ele>
        <time>2025-05-19T15:19:14Z</time>
      </trkpt>
      <trkpt lat="45.87908998131752" lon="8.541913032531738">
        <ele>288.05000000000001</ele>
        <time>2025-05-19T15:19:15Z</time>
      </trkpt>
      <trkpt lat="45.879097022116184" lon="8.541871039196849">
        <ele>287.56999999999999</ele>
        <time>2025-05-19T15:19:16Z</time>
      </trkpt>
      <trkpt lat="45.879101967439055" lon="8.541839020326734">
        <ele>287.08999999999997</ele>
        <time>2025-05-19T15:19:17Z</time>
      </trkpt>
      <trkpt lat="45.879105990752578" lon="8.541812030598521">
        <ele>285.17000000000002</ele>
        <time>2025-05-19T15:19:27Z</time>
      </trkpt>
      <trkpt lat="45.879105990752578" lon="8.541812030598521">
        <ele>285.17000000000002</ele>
        <time>2025-05-19T15:20:03Z</time>
      </trkpt>
      <trkpt lat="45.879105990752578" lon="8.541812030598521">
        <ele>285.64999999999998</ele>
        <time>2025-05-19T15:20:50Z</time>
      </trkpt>
      <trkpt lat="45.879105990752578" lon="8.541812030598521">
        <ele>285.17000000000002</ele>
        <time>2025-05-19T15:21:35Z</time>
      </trkpt>
      <trkpt lat="45.879105990752578" lon="8.541812030598521">
        <ele>285.17000000000002</ele>
        <time>2025-05-19T15:22:18Z</time>
      </trkpt>
      <trkpt lat="45.879105990752578" lon="8.541812030598521">
        <ele>286.13</ele>
        <time>2025-05-19T15:22:49Z</time>
      </trkpt>
      <trkpt lat="45.879105990752578" lon="8.541812030598521">
        <ele>286.61000000000001</ele>
        <time>2025-05-19T15:22:50Z</time>
      </trkpt>
      <trkpt lat="45.879126023501158" lon="8.541693007573485">
        <ele>288.05000000000001</ele>
        <time>2025-05-19T15:22:53Z</time>
      </trkpt>
      <trkpt lat="45.87921897880733" lon="8.541440041735768">
        <ele>285.64999999999998</ele>
        <time>2025-05-19T15:22:59Z</time>
      </trkpt>
      <trkpt lat="45.879229037091136" lon="8.541420008987188">
        <ele>284.69</ele>
        <time>2025-05-19T15:23:00Z</time>
      </trkpt>
      <trkpt lat="45.879259966313839" lon="8.541429983451963">
        <ele>283.73000000000002</ele>
        <time>2025-05-19T15:23:01Z</time>
      </trkpt>
      <trkpt lat="45.879292991012335" lon="8.541543977335095">
        <ele>283.25</ele>
        <time>2025-05-19T15:23:02Z</time>
      </trkpt>
      <trkpt lat="45.879286034032702" lon="8.541646990925074">
        <ele>282.27999999999997</ele>
        <time>2025-05-19T15:23:03Z</time>
      </trkpt>
      <trkpt lat="45.879272036254406" lon="8.541752016171813">
        <ele>281.31999999999999</ele>
        <time>2025-05-19T15:23:04Z</time>
      </trkpt>
      <trkpt lat="45.879186037927866" lon="8.542406978085637">
        <ele>276.51999999999998</ele>
        <time>2025-05-19T15:23:10Z</time>
      </trkpt>
      <trkpt lat="45.879199029877782" lon="8.542503034695983">
        <ele>276.04000000000002</ele>
        <time>2025-05-19T15:23:11Z</time>
      </trkpt>
      <trkpt lat="45.879213027656078" lon="8.542559025809169">
        <ele>275.06999999999999</ele>
        <time>2025-05-19T15:23:12Z</time>
      </trkpt>
      <trkpt lat="45.879268012940884" lon="8.542576963081956">
        <ele>274.58999999999997</ele>
        <time>2025-05-19T15:23:13Z</time>
      </trkpt>
      <trkpt lat="45.879305982962251" lon="8.542533041909337">
        <ele>274.11000000000001</ele>
        <time>2025-05-19T15:23:14Z</time>
      </trkpt>
      <trkpt lat="45.879339007660747" lon="8.542472021654248">
        <ele>273.63</ele>
        <time>2025-05-19T15:23:15Z</time>
      </trkpt>
      <trkpt lat="45.879353005439043" lon="8.542387029156089">
        <ele>273.14999999999998</ele>
        <time>2025-05-19T15:23:16Z</time>
      </trkpt>
      <trkpt lat="45.879370020702481" lon="8.542287033051252">
        <ele>272.67000000000002</ele>
        <time>2025-05-19T15:23:17Z</time>
      </trkpt>
      <trkpt lat="45.879388963803649" lon="8.542172033339739">
        <ele>272.19</ele>
        <time>2025-05-19T15:23:18Z</time>
      </trkpt>
      <trkpt lat="45.879435986280441" lon="8.541922001168132">
        <ele>271.23000000000002</ele>
        <time>2025-05-19T15:23:20Z</time>
      </trkpt>
      <trkpt lat="45.879469010978937" lon="8.5417889803648">
        <ele>270.75</ele>
        <time>2025-05-19T15:23:21Z</time>
      </trkpt>
      <trkpt lat="45.879503041505814" lon="8.541653025895357">
        <ele>270.26999999999998</ele>
        <time>2025-05-19T15:23:22Z</time>
      </trkpt>
      <trkpt lat="45.879573030397296" lon="8.541370974853635">
        <ele>269.31</ele>
        <time>2025-05-19T15:23:24Z</time>
      </trkpt>
      <trkpt lat="45.879615023732185" lon="8.541205013170838">
        <ele>268.82999999999998</ele>
        <time>2025-05-19T15:23:25Z</time>
      </trkpt>
      <trkpt lat="45.879680989310145" lon="8.540578968822956">
        <ele>266.42000000000002</ele>
        <time>2025-05-19T15:23:29Z</time>
      </trkpt>
      <trkpt lat="45.879730023443699" lon="8.540432034060359">
        <ele>265.45999999999998</ele>
        <time>2025-05-19T15:23:30Z</time>
      </trkpt>
      <trkpt lat="45.879787020385265" lon="8.540137996897101">
        <ele>263.54000000000002</ele>
        <time>2025-05-19T15:23:32Z</time>
      </trkpt>
      <trkpt lat="45.879804035648704" lon="8.539986032992601">
        <ele>262.57999999999998</ele>
        <time>2025-05-19T15:23:33Z</time>
      </trkpt>
      <trkpt lat="45.879819961264729" lon="8.539842031896114">
        <ele>261.62</ele>
        <time>2025-05-19T15:23:34Z</time>
      </trkpt>
      <trkpt lat="45.879836976528168" lon="8.539699958637357">
        <ele>260.64999999999998</ele>
        <time>2025-05-19T15:23:35Z</time>
      </trkpt>
      <trkpt lat="45.879850974306464" lon="8.539573978632689">
        <ele>259.69</ele>
        <time>2025-05-19T15:23:36Z</time>
      </trkpt>
      <trkpt lat="45.879905959591269" lon="8.539444981142879">
        <ele>258.73000000000002</ele>
        <time>2025-05-19T15:23:37Z</time>
      </trkpt>
      <trkpt lat="45.879959017038345" lon="8.539322018623352">
        <ele>257.76999999999998</ele>
        <time>2025-05-19T15:23:38Z</time>
      </trkpt>
      <trkpt lat="45.88001299649477" lon="8.539194026961923">
        <ele>256.81</ele>
        <time>2025-05-19T15:23:39Z</time>
      </trkpt>
      <trkpt lat="45.880068987607956" lon="8.53906100615859">
        <ele>255.84999999999999</ele>
        <time>2025-05-19T15:23:40Z</time>
      </trkpt>
      <trkpt lat="45.880087008699775" lon="8.538918010890484">
        <ele>254.88999999999999</ele>
        <time>2025-05-19T15:23:41Z</time>
      </trkpt>
      <trkpt lat="45.880087008699775" lon="8.538788007572293">
        <ele>253.93000000000001</ele>
        <time>2025-05-19T15:23:42Z</time>
      </trkpt>
      <trkpt lat="45.880087008699775" lon="8.538685999810696">
        <ele>252.96000000000001</ele>
        <time>2025-05-19T15:23:43Z</time>
      </trkpt>
      <trkpt lat="45.88005599565804" lon="8.538625985383987">
        <ele>252</ele>
        <time>2025-05-19T15:23:44Z</time>
      </trkpt>
      <trkpt lat="45.880003022029996" lon="8.538547027856112">
        <ele>251.03999999999999</ele>
        <time>2025-05-19T15:23:45Z</time>
      </trkpt>
      <trkpt lat="45.879938984289765" lon="8.538449965417385">
        <ele>250.08000000000001</ele>
        <time>2025-05-19T15:23:46Z</time>
      </trkpt>
      <trkpt lat="45.879793977364898" lon="8.538233041763306">
        <ele>248.63999999999999</ele>
        <time>2025-05-19T15:23:48Z</time>
      </trkpt>
      <trkpt lat="45.879744021221995" lon="8.538098009303212">
        <ele>247.68000000000001</ele>
        <time>2025-05-19T15:23:49Z</time>
      </trkpt>
      <trkpt lat="45.879768999293447" lon="8.537990972399712">
        <ele>246.72</ele>
        <time>2025-05-19T15:23:50Z</time>
      </trkpt>
      <trkpt lat="45.879817027598619" lon="8.537918971851468">
        <ele>245.75</ele>
        <time>2025-05-19T15:23:51Z</time>
      </trkpt>
      <trkpt lat="45.879875030368567" lon="8.537901034578681">
        <ele>244.78999999999999</ele>
        <time>2025-05-19T15:23:52Z</time>
      </trkpt>
      <trkpt lat="45.879959017038345" lon="8.537901034578681">
        <ele>243.83000000000001</ele>
        <time>2025-05-19T15:23:53Z</time>
      </trkpt>
      <trkpt lat="45.880039986222982" lon="8.537931963801384">
        <ele>242.87</ele>
        <time>2025-05-19T15:23:54Z</time>
      </trkpt>
      <trkpt lat="45.880130007863045" lon="8.538016034290195">
        <ele>241.91</ele>
        <time>2025-05-19T15:23:55Z</time>
      </trkpt>
      <trkpt lat="45.880216006189585" lon="8.538132961839438">
        <ele>240.94999999999999</ele>
        <time>2025-05-19T15:23:56Z</time>
      </trkpt>
      <trkpt lat="45.880298987030983" lon="8.538246033713222">
        <ele>239.99000000000001</ele>
        <time>2025-05-19T15:23:57Z</time>
      </trkpt>
      <trkpt lat="45.880369981750846" lon="8.53837201371789">
        <ele>239.50999999999999</ele>
        <time>2025-05-19T15:23:58Z</time>
      </trkpt>
      <trkpt lat="45.880427984520793" lon="8.538518026471138">
        <ele>239.02000000000001</ele>
        <time>2025-05-19T15:23:59Z</time>
      </trkpt>
      <trkpt lat="45.880484981462359" lon="8.538689017295837">
        <ele>238.53999999999999</ele>
        <time>2025-05-19T15:24:00Z</time>
      </trkpt>
      <trkpt lat="45.880513982847333" lon="8.538892026990652">
        <ele>238.53999999999999</ele>
        <time>2025-05-19T15:24:01Z</time>
      </trkpt>
      <trkpt lat="45.88050602003932" lon="8.539086990058422">
        <ele>238.06</ele>
        <time>2025-05-19T15:24:02Z</time>
      </trkpt>
      <trkpt lat="45.880498979240656" lon="8.539272984489799">
        <ele>237.58000000000001</ele>
        <time>2025-05-19T15:24:03Z</time>
      </trkpt>
      <trkpt lat="45.880498979240656" lon="8.539441963657737">
        <ele>236.62</ele>
        <time>2025-05-19T15:24:04Z</time>
      </trkpt>
      <trkpt lat="45.880509959533811" lon="8.539608009159565">
        <ele>235.66</ele>
        <time>2025-05-19T15:24:05Z</time>
      </trkpt>
      <trkpt lat="45.880522029474378" lon="8.5397719591856">
        <ele>235.18000000000001</ele>
        <time>2025-05-19T15:24:06Z</time>
      </trkpt>
      <trkpt lat="45.880533009767532" lon="8.539930963888764">
        <ele>234.22</ele>
        <time>2025-05-19T15:24:07Z</time>
      </trkpt>
      <trkpt lat="45.880546001717448" lon="8.540088040754199">
        <ele>233.25999999999999</ele>
        <time>2025-05-19T15:24:08Z</time>
      </trkpt>
      <trkpt lat="45.880564022809267" lon="8.540255008265376">
        <ele>232.30000000000001</ele>
        <time>2025-05-19T15:24:09Z</time>
      </trkpt>
      <trkpt lat="45.880654966458678" lon="8.540960010141134">
        <ele>227.97</ele>
        <time>2025-05-19T15:24:13Z</time>
      </trkpt>
      <trkpt lat="45.880688996985555" lon="8.541109040379524">
        <ele>227.00999999999999</ele>
        <time>2025-05-19T15:24:14Z</time>
      </trkpt>
      <trkpt lat="45.88074398227036" lon="8.541339039802551">
        <ele>225.09</ele>
        <time>2025-05-19T15:24:16Z</time>
      </trkpt>
      <trkpt lat="45.880776001140475" lon="8.54146501980722">
        <ele>224.12</ele>
        <time>2025-05-19T15:24:17Z</time>
      </trkpt>
      <trkpt lat="45.880834003910422" lon="8.541535008698702">
        <ele>223.63999999999999</ele>
        <time>2025-05-19T15:24:18Z</time>
      </trkpt>
      <trkpt lat="45.880926959216595" lon="8.541599968448281">
        <ele>222.68000000000001</ele>
        <time>2025-05-19T15:24:19Z</time>
      </trkpt>
      <trkpt lat="45.880987979471684" lon="8.541612960398197">
        <ele>222.19999999999999</ele>
        <time>2025-05-19T15:24:20Z</time>
      </trkpt>
      <trkpt lat="45.881089987233281" lon="8.541523022577167">
        <ele>221.72</ele>
        <time>2025-05-19T15:24:21Z</time>
      </trkpt>
      <trkpt lat="45.881150001659989" lon="8.54146895930171">
        <ele>221.24000000000001</ele>
        <time>2025-05-19T15:24:22Z</time>
      </trkpt>
      <trkpt lat="45.881197024136782" lon="8.54140299372375">
        <ele>220.75999999999999</ele>
        <time>2025-05-19T15:24:23Z</time>
      </trkpt>
      <trkpt lat="45.881240023300052" lon="8.541305009275675">
        <ele>219.80000000000001</ele>
        <time>2025-05-19T15:24:24Z</time>
      </trkpt>
      <trkpt lat="45.881284028291702" lon="8.541200989857316">
        <ele>218.84</ele>
        <time>2025-05-19T15:24:25Z</time>
      </trkpt>
      <trkpt lat="45.881324009969831" lon="8.54107903316617">
        <ele>218.36000000000001</ele>
        <time>2025-05-19T15:24:26Z</time>
      </trkpt>
      <trkpt lat="45.881354017183185" lon="8.540938971564174">
        <ele>217.88</ele>
        <time>2025-05-19T15:24:27Z</time>
      </trkpt>
      <trkpt lat="45.88140900246799" lon="8.540643006563187">
        <ele>216.43000000000001</ele>
        <time>2025-05-19T15:24:29Z</time>
      </trkpt>
      <trkpt lat="45.881435992196202" lon="8.54050001129508">
        <ele>216.43000000000001</ele>
        <time>2025-05-19T15:24:30Z</time>
      </trkpt>
      <trkpt lat="45.881461976096034" lon="8.540346035733819">
        <ele>215.94999999999999</ele>
        <time>2025-05-19T15:24:31Z</time>
      </trkpt>
      <trkpt lat="45.881475973874331" lon="8.540174039080739">
        <ele>215.47</ele>
        <time>2025-05-19T15:24:32Z</time>
      </trkpt>
      <trkpt lat="45.881488965824246" lon="8.540001958608627">
        <ele>215.47</ele>
        <time>2025-05-19T15:24:33Z</time>
      </trkpt>
      <trkpt lat="45.881502963602543" lon="8.539830967783928">
        <ele>214.99000000000001</ele>
        <time>2025-05-19T15:24:34Z</time>
      </trkpt>
      <trkpt lat="45.88151603937149" lon="8.539666011929512">
        <ele>214.50999999999999</ele>
        <time>2025-05-19T15:24:35Z</time>
      </trkpt>
      <trkpt lat="45.881540011614561" lon="8.53936200030148">
        <ele>214.03</ele>
        <time>2025-05-19T15:24:37Z</time>
      </trkpt>
      <trkpt lat="45.881562978029251" lon="8.539068968966603">
        <ele>214.03</ele>
        <time>2025-05-19T15:24:39Z</time>
      </trkpt>
      <trkpt lat="45.881568007171154" lon="8.539015995338559">
        <ele>213.55000000000001</ele>
        <time>2025-05-19T15:24:40Z</time>
      </trkpt>
      <trkpt lat="45.881640007719398" lon="8.538820026442409">
        <ele>213.06999999999999</ele>
        <time>2025-05-19T15:24:41Z</time>
      </trkpt>
      <trkpt lat="45.881682001054287" lon="8.538704020902515">
        <ele>212.59</ele>
        <time>2025-05-19T15:24:42Z</time>
      </trkpt>
      <trkpt lat="45.881722988560796" lon="8.538591032847762">
        <ele>212.11000000000001</ele>
        <time>2025-05-19T15:24:43Z</time>
      </trkpt>
      <trkpt lat="45.881758024916053" lon="8.538479972630739">
        <ele>211.63</ele>
        <time>2025-05-19T15:24:44Z</time>
      </trkpt>
      <trkpt lat="45.881789037957788" lon="8.538379976525903">
        <ele>211.15000000000001</ele>
        <time>2025-05-19T15:24:45Z</time>
      </trkpt>
      <trkpt lat="45.881824996322393" lon="8.538264976814389">
        <ele>211.15000000000001</ele>
        <time>2025-05-19T15:24:46Z</time>
      </trkpt>
      <trkpt lat="45.881842011585832" lon="8.538175961002708">
        <ele>211.15000000000001</ele>
        <time>2025-05-19T15:24:47Z</time>
      </trkpt>
      <trkpt lat="45.88186196051538" lon="8.538069007918239">
        <ele>210.66999999999999</ele>
        <time>2025-05-19T15:24:48Z</time>
      </trkpt>
      <trkpt lat="45.881884004920721" lon="8.537953002378345">
        <ele>210.66999999999999</ele>
        <time>2025-05-19T15:24:49Z</time>
      </trkpt>
      <trkpt lat="45.88190596550703" lon="8.537840014323592">
        <ele>210.19</ele>
        <time>2025-05-19T15:24:50Z</time>
      </trkpt>
      <trkpt lat="45.881910994648933" lon="8.537611020728946">
        <ele>208.25999999999999</ele>
        <time>2025-05-19T15:24:52Z</time>
      </trkpt>
      <trkpt lat="45.881910994648933" lon="8.537450004369021">
        <ele>208.25999999999999</ele>
        <time>2025-05-19T15:24:53Z</time>
      </trkpt>
      <trkpt lat="45.881895991042256" lon="8.537270966917276">
        <ele>207.78</ele>
        <time>2025-05-19T15:24:55Z</time>
      </trkpt>
      <trkpt lat="45.881896996870637" lon="8.537173988297582">
        <ele>207.30000000000001</ele>
        <time>2025-05-19T15:24:56Z</time>
      </trkpt>
      <trkpt lat="45.881987018510699" lon="8.536951029673219">
        <ele>206.34</ele>
        <time>2025-05-19T15:24:58Z</time>
      </trkpt>
      <trkpt lat="45.882035968825221" lon="8.536832006648183">
        <ele>205.86000000000001</ele>
        <time>2025-05-19T15:24:59Z</time>
      </trkpt>
      <trkpt lat="45.882085002958775" lon="8.536709966138005">
        <ele>205.38</ele>
        <time>2025-05-19T15:25:00Z</time>
      </trkpt>
      <trkpt lat="45.882339980453253" lon="8.536098003387451">
        <ele>204.90000000000001</ele>
        <time>2025-05-19T15:25:05Z</time>
      </trkpt>
      <trkpt lat="45.882455985993147" lon="8.535807989537716">
        <ele>205.38</ele>
        <time>2025-05-19T15:25:08Z</time>
      </trkpt>
      <trkpt lat="45.882489010691643" lon="8.535725008696318">
        <ele>205.38</ele>
        <time>2025-05-19T15:25:09Z</time>
      </trkpt>
      <trkpt lat="45.882517006248236" lon="8.535655019804835">
        <ele>205.38</ele>
        <time>2025-05-19T15:25:10Z</time>
      </trkpt>
      <trkpt lat="45.882539972662926" lon="8.535599028691649">
        <ele>205.86000000000001</ele>
        <time>2025-05-19T15:25:11Z</time>
      </trkpt>
      <trkpt lat="45.882554976269603" lon="8.535561980679631">
        <ele>205.86000000000001</ele>
        <time>2025-05-19T15:25:12Z</time>
      </trkpt>
      <trkpt lat="45.882619014009833" lon="8.535411022603512">
        <ele>205.86000000000001</ele>
        <time>2025-05-19T15:25:13Z</time>
      </trkpt>
      <trkpt lat="45.882631000131369" lon="8.535358970984817">
        <ele>205.86000000000001</ele>
        <time>2025-05-19T15:25:14Z</time>
      </trkpt>
      <trkpt lat="45.882662013173103" lon="8.535217987373471">
        <ele>206.34</ele>
        <time>2025-05-19T15:25:15Z</time>
      </trkpt>
      <trkpt lat="45.883133998140693" lon="8.534103026613593">
        <ele>207.30000000000001</ele>
        <time>2025-05-19T15:25:24Z</time>
      </trkpt>
      <trkpt lat="45.88357899338007" lon="8.533348990604281">
        <ele>208.25999999999999</ele>
        <time>2025-05-19T15:25:31Z</time>
      </trkpt>
      <trkpt lat="45.883669015020132" lon="8.533197026699781">
        <ele>208.74000000000001</ele>
        <time>2025-05-19T15:25:33Z</time>
      </trkpt>
      <trkpt lat="45.88392298668623" lon="8.53287398815155">
        <ele>209.69999999999999</ele>
        <time>2025-05-19T15:25:37Z</time>
      </trkpt>
      <trkpt lat="45.884315008297563" lon="8.532393034547567">
        <ele>214.50999999999999</ele>
        <time>2025-05-19T15:25:42Z</time>
      </trkpt>
      <trkpt lat="45.884392037987709" lon="8.532298989593983">
        <ele>215.47</ele>
        <time>2025-05-19T15:25:43Z</time>
      </trkpt>
      <trkpt lat="45.884464960545301" lon="8.532203016802669">
        <ele>215.94999999999999</ele>
        <time>2025-05-19T15:25:44Z</time>
      </trkpt>
      <trkpt lat="45.884527992457151" lon="8.532109977677465">
        <ele>216.43000000000001</ele>
        <time>2025-05-19T15:25:45Z</time>
      </trkpt>
      <trkpt lat="45.88458800688386" lon="8.532020961865783">
        <ele>217.40000000000001</ele>
        <time>2025-05-19T15:25:46Z</time>
      </trkpt>
      <trkpt lat="45.884648021310568" lon="8.531933035701513">
        <ele>217.88</ele>
        <time>2025-05-19T15:25:47Z</time>
      </trkpt>
      <trkpt lat="45.884944992139935" lon="8.531492985785008">
        <ele>219.31999999999999</ele>
        <time>2025-05-19T15:25:52Z</time>
      </trkpt>
      <trkpt lat="45.885007018223405" lon="8.531401036307216">
        <ele>219.31999999999999</ele>
        <time>2025-05-19T15:25:53Z</time>
      </trkpt>
      <trkpt lat="45.885072983801365" lon="8.531301962211728">
        <ele>219.31999999999999</ele>
        <time>2025-05-19T15:25:54Z</time>
      </trkpt>
      <trkpt lat="45.885437009856105" lon="8.530596038326621">
        <ele>220.75999999999999</ele>
        <time>2025-05-19T15:26:00Z</time>
      </trkpt>
      <trkpt lat="45.885483026504517" lon="8.530452959239483">
        <ele>220.28</ele>
        <time>2025-05-19T15:26:01Z</time>
      </trkpt>
      <trkpt lat="45.885580005124211" lon="8.530183983966708">
        <ele>219.80000000000001</ele>
        <time>2025-05-19T15:26:03Z</time>
      </trkpt>
      <trkpt lat="45.886224992573261" lon="8.528979001566768">
        <ele>219.80000000000001</ele>
        <time>2025-05-19T15:26:13Z</time>
      </trkpt>
      <trkpt lat="45.886289030313492" lon="8.5288530215621">
        <ele>219.80000000000001</ele>
        <time>2025-05-19T15:26:14Z</time>
      </trkpt>
      <trkpt lat="45.886589018628001" lon="8.528266036882997">
        <ele>219.80000000000001</ele>
        <time>2025-05-19T15:26:19Z</time>
      </trkpt>
      <trkpt lat="45.886619025841355" lon="8.528147013857961">
        <ele>219.31999999999999</ele>
        <time>2025-05-19T15:26:20Z</time>
      </trkpt>
      <trkpt lat="45.88665003888309" lon="8.528026985004544">
        <ele>219.31999999999999</ele>
        <time>2025-05-19T15:26:21Z</time>
      </trkpt>
      <trkpt lat="45.886741988360882" lon="8.52767201140523">
        <ele>218.36000000000001</ele>
        <time>2025-05-19T15:26:24Z</time>
      </trkpt>
      <trkpt lat="45.8867790363729" lon="8.527558017522097">
        <ele>218.36000000000001</ele>
        <time>2025-05-19T15:26:25Z</time>
      </trkpt>
      <trkpt lat="45.886827986687422" lon="8.527447041124106">
        <ele>218.36000000000001</ele>
        <time>2025-05-19T15:26:26Z</time>
      </trkpt>
      <trkpt lat="45.887283040210605" lon="8.526153964921832">
        <ele>218.36000000000001</ele>
        <time>2025-05-19T15:26:37Z</time>
      </trkpt>
      <trkpt lat="45.887310029938817" lon="8.526076013222337">
        <ele>217.88</ele>
        <time>2025-05-19T15:26:38Z</time>
      </trkpt>
      <trkpt lat="45.887330984696746" lon="8.526017004624009">
        <ele>217.88</ele>
        <time>2025-05-19T15:26:39Z</time>
      </trkpt>
      <trkpt lat="45.887340037152171" lon="8.525992026552558">
        <ele>217.88</ele>
        <time>2025-05-19T15:26:40Z</time>
      </trkpt>
      <trkpt lat="45.887386975809932" lon="8.5259760171175">
        <ele>217.40000000000001</ele>
        <time>2025-05-19T15:26:41Z</time>
      </trkpt>
      <trkpt lat="45.887440033257008" lon="8.525957996025682">
        <ele>216.91</ele>
        <time>2025-05-19T15:26:42Z</time>
      </trkpt>
      <trkpt lat="45.887490995228291" lon="8.525940980762243">
        <ele>216.91</ele>
        <time>2025-05-19T15:26:43Z</time>
      </trkpt>
      <trkpt lat="45.887540029361844" lon="8.525924971327186">
        <ele>216.43000000000001</ele>
        <time>2025-05-19T15:26:44Z</time>
      </trkpt>
      <trkpt lat="45.887735998257995" lon="8.525865962728858">
        <ele>215.47</ele>
        <time>2025-05-19T15:26:50Z</time>
      </trkpt>
      <trkpt lat="45.887735998257995" lon="8.525865962728858">
        <ele>214.50999999999999</ele>
        <time>2025-05-19T15:27:00Z</time>
      </trkpt>
      <trkpt lat="45.887735998257995" lon="8.525865962728858">
        <ele>214.03</ele>
        <time>2025-05-19T15:27:40Z</time>
      </trkpt>
      <trkpt lat="45.887877987697721" lon="8.525834027677774">
        <ele>213.06999999999999</ele>
        <time>2025-05-19T15:27:46Z</time>
      </trkpt>
      <trkpt lat="45.887930961325765" lon="8.525824975222349">
        <ele>212.59</ele>
        <time>2025-05-19T15:27:47Z</time>
      </trkpt>
      <trkpt lat="45.88798301294446" lon="8.525816006585956">
        <ele>212.11000000000001</ele>
        <time>2025-05-19T15:27:48Z</time>
      </trkpt>
      <trkpt lat="45.888163978233933" lon="8.525785999372602">
        <ele>209.69999999999999</ele>
        <time>2025-05-19T15:27:52Z</time>
      </trkpt>
      <trkpt lat="45.88821804150939" lon="8.525751968845725">
        <ele>210.19</ele>
        <time>2025-05-19T15:27:53Z</time>
      </trkpt>
      <trkpt lat="45.888214018195868" lon="8.525684997439385">
        <ele>210.66999999999999</ele>
        <time>2025-05-19T15:27:54Z</time>
      </trkpt>
      <trkpt lat="45.888209994882345" lon="8.525601010769606">
        <ele>210.66999999999999</ele>
        <time>2025-05-19T15:27:55Z</time>
      </trkpt>
      <trkpt lat="45.888204965740442" lon="8.525509983301163">
        <ele>210.66999999999999</ele>
        <time>2025-05-19T15:27:56Z</time>
      </trkpt>
      <trkpt lat="45.888215024024248" lon="8.525271015241742">
        <ele>210.19</ele>
        <time>2025-05-19T15:27:58Z</time>
      </trkpt>
      <trkpt lat="45.888252994045615" lon="8.525002961978316">
        <ele>209.69999999999999</ele>
        <time>2025-05-19T15:28:00Z</time>
      </trkpt>
      <trkpt lat="45.888303034007549" lon="8.524845968931913">
        <ele>209.22</ele>
        <time>2025-05-19T15:28:01Z</time>
      </trkpt>
      <trkpt lat="45.888840984553099" lon="8.523631012067199">
        <ele>206.81999999999999</ele>
        <time>2025-05-19T15:28:10Z</time>
      </trkpt>
      <trkpt lat="45.888876020908356" lon="8.523540990427136">
        <ele>206.81999999999999</ele>
        <time>2025-05-19T15:28:11Z</time>
      </trkpt>
      <trkpt lat="45.8889099676162" lon="8.523451974615455">
        <ele>206.81999999999999</ele>
        <time>2025-05-19T15:28:12Z</time>
      </trkpt>
      <trkpt lat="45.889325961470604" lon="8.522532982751727">
        <ele>206.81999999999999</ele>
        <time>2025-05-19T15:28:21Z</time>
      </trkpt>
      <trkpt lat="45.889440039172769" lon="8.522284962236881">
        <ele>207.30000000000001</ele>
        <time>2025-05-19T15:28:23Z</time>
      </trkpt>
      <trkpt lat="45.889497958123684" lon="8.522157976403832">
        <ele>207.30000000000001</ele>
        <time>2025-05-19T15:28:24Z</time>
      </trkpt>
      <trkpt lat="45.889557972550392" lon="8.522023027762771">
        <ele>206.81999999999999</ele>
        <time>2025-05-19T15:28:25Z</time>
      </trkpt>
      <trkpt lat="45.889618992805481" lon="8.521876009181142">
        <ele>206.81999999999999</ele>
        <time>2025-05-19T15:28:26Z</time>
      </trkpt>
      <trkpt lat="45.88968101888895" lon="8.52172396145761">
        <ele>206.81999999999999</ele>
        <time>2025-05-19T15:28:27Z</time>
      </trkpt>
      <trkpt lat="45.889820996671915" lon="8.521416010335088">
        <ele>206.81999999999999</ele>
        <time>2025-05-19T15:28:29Z</time>
      </trkpt>
      <trkpt lat="45.889892997220159" lon="8.521260023117065">
        <ele>206.81999999999999</ele>
        <time>2025-05-19T15:28:30Z</time>
      </trkpt>
      <trkpt lat="45.889966003596783" lon="8.521102024242282">
        <ele>206.81999999999999</ele>
        <time>2025-05-19T15:28:31Z</time>
      </trkpt>
      <trkpt lat="45.890635969117284" lon="8.519641980528832">
        <ele>204.90000000000001</ele>
        <time>2025-05-19T15:28:40Z</time>
      </trkpt>
      <trkpt lat="45.89073303155601" lon="8.519525974988937">
        <ele>204.41999999999999</ele>
        <time>2025-05-19T15:28:41Z</time>
      </trkpt>
      <trkpt lat="45.890831016004086" lon="8.519409969449043">
        <ele>204.41999999999999</ele>
        <time>2025-05-19T15:28:42Z</time>
      </trkpt>
      <trkpt lat="45.890924977138638" lon="8.519297987222672">
        <ele>203.94</ele>
        <time>2025-05-19T15:28:43Z</time>
      </trkpt>
      <trkpt lat="45.891032014042139" lon="8.519215006381273">
        <ele>203.46000000000001</ele>
        <time>2025-05-19T15:28:44Z</time>
      </trkpt>
      <trkpt lat="45.89114299044013" lon="8.519136970862746">
        <ele>203.46000000000001</ele>
        <time>2025-05-19T15:28:45Z</time>
      </trkpt>
      <trkpt lat="45.892289970070124" lon="8.51837002672255">
        <ele>201.53</ele>
        <time>2025-05-19T15:28:55Z</time>
      </trkpt>
      <trkpt lat="45.892821969464421" lon="8.517950009554625">
        <ele>201.53</ele>
        <time>2025-05-19T15:29:00Z</time>
      </trkpt>
      <trkpt lat="45.892897993326187" lon="8.517845990136266">
        <ele>201.53</ele>
        <time>2025-05-19T15:29:01Z</time>
      </trkpt>
      <trkpt lat="45.892973011359572" lon="8.517742976546288">
        <ele>201.05000000000001</ele>
        <time>2025-05-19T15:29:02Z</time>
      </trkpt>
      <trkpt lat="45.893017016351223" lon="8.517615990713239">
        <ele>200.56999999999999</ele>
        <time>2025-05-19T15:29:03Z</time>
      </trkpt>
      <trkpt lat="45.893059009686112" lon="8.517475007101893">
        <ele>200.56999999999999</ele>
        <time>2025-05-19T15:29:04Z</time>
      </trkpt>
      <trkpt lat="45.893592014908791" lon="8.51622199639678">
        <ele>199.61000000000001</ele>
        <time>2025-05-19T15:29:13Z</time>
      </trkpt>
      <trkpt lat="45.893676001578569" lon="8.51611596532166">
        <ele>199.13</ele>
        <time>2025-05-19T15:29:14Z</time>
      </trkpt>
      <trkpt lat="45.895028002560139" lon="8.51516897790134">
        <ele>197.21000000000001</ele>
        <time>2025-05-19T15:29:26Z</time>
      </trkpt>
      <trkpt lat="45.896094013005495" lon="8.514555003494024">
        <ele>197.21000000000001</ele>
        <time>2025-05-19T15:29:35Z</time>
      </trkpt>
      <trkpt lat="45.897275023162365" lon="8.513440964743495">
        <ele>198.65000000000001</ele>
        <time>2025-05-19T15:29:47Z</time>
      </trkpt>
      <trkpt lat="45.898398030549288" lon="8.512344025075436">
        <ele>199.61000000000001</ele>
        <time>2025-05-19T15:29:58Z</time>
      </trkpt>
      <trkpt lat="45.899174027144909" lon="8.511481024324894">
        <ele>201.05000000000001</ele>
        <time>2025-05-19T15:30:06Z</time>
      </trkpt>
      <trkpt lat="45.900014983490109" lon="8.510193983092904">
        <ele>202.97999999999999</ele>
        <time>2025-05-19T15:30:16Z</time>
      </trkpt>
      <trkpt lat="45.900113973766565" lon="8.510087030008435">
        <ele>202.97999999999999</ele>
        <time>2025-05-19T15:30:17Z</time>
      </trkpt>
      <trkpt lat="45.900211958214641" lon="8.509979993104935">
        <ele>203.46000000000001</ele>
        <time>2025-05-19T15:30:18Z</time>
      </trkpt>
      <trkpt lat="45.900310026481748" lon="8.509873962029815">
        <ele>203.46000000000001</ele>
        <time>2025-05-19T15:30:19Z</time>
      </trkpt>
      <trkpt lat="45.900408010929823" lon="8.509772960096598">
        <ele>203.46000000000001</ele>
        <time>2025-05-19T15:30:20Z</time>
      </trkpt>
      <trkpt lat="45.900514964014292" lon="8.509684028103948">
        <ele>203.94</ele>
        <time>2025-05-19T15:30:21Z</time>
      </trkpt>
      <trkpt lat="45.900731971487403" lon="8.509504990652204">
        <ele>204.41999999999999</ele>
        <time>2025-05-19T15:30:23Z</time>
      </trkpt>
      <trkpt lat="45.900841020047665" lon="8.509414969012141">
        <ele>204.41999999999999</ele>
        <time>2025-05-19T15:30:24Z</time>
      </trkpt>
      <trkpt lat="45.902073998004198" lon="8.508605025708675">
        <ele>206.81999999999999</ele>
        <time>2025-05-19T15:30:35Z</time>
      </trkpt>
      <trkpt lat="45.9032619651407" lon="8.508093981072307">
        <ele>205.86000000000001</ele>
        <time>2025-05-19T15:30:45Z</time>
      </trkpt>
      <trkpt lat="45.903616016730666" lon="8.507929025217891">
        <ele>204.90000000000001</ele>
        <time>2025-05-19T15:30:48Z</time>
      </trkpt>
      <trkpt lat="45.903838975355029" lon="8.50779801607132">
        <ele>204.90000000000001</ele>
        <time>2025-05-19T15:30:50Z</time>
      </trkpt>
      <trkpt lat="45.903939977288246" lon="8.507739007472992">
        <ele>204.90000000000001</ele>
        <time>2025-05-19T15:30:51Z</time>
      </trkpt>
      <trkpt lat="45.904022958129644" lon="8.507655020803213">
        <ele>205.38</ele>
        <time>2025-05-19T15:30:52Z</time>
      </trkpt>
      <trkpt lat="45.904089007526636" lon="8.507546978071332">
        <ele>204.90000000000001</ele>
        <time>2025-05-19T15:30:53Z</time>
      </trkpt>
      <trkpt lat="45.904154973104596" lon="8.50743499584496">
        <ele>205.38</ele>
        <time>2025-05-19T15:30:54Z</time>
      </trkpt>
      <trkpt lat="45.9042480122298" lon="8.507280014455319">
        <ele>205.38</ele>
        <time>2025-05-19T15:30:55Z</time>
      </trkpt>
      <trkpt lat="45.904754027724266" lon="8.506041001528502">
        <ele>207.78</ele>
        <time>2025-05-19T15:31:04Z</time>
      </trkpt>
      <trkpt lat="45.904830973595381" lon="8.505899012088776">
        <ele>208.25999999999999</ele>
        <time>2025-05-19T15:31:05Z</time>
      </trkpt>
      <trkpt lat="45.904929041862488" lon="8.50578099489212">
        <ele>208.74000000000001</ele>
        <time>2025-05-19T15:31:06Z</time>
      </trkpt>
      <trkpt lat="45.905037000775337" lon="8.505664989352226">
        <ele>208.74000000000001</ele>
        <time>2025-05-19T15:31:07Z</time>
      </trkpt>
      <trkpt lat="45.905158035457134" lon="8.505616039037705">
        <ele>208.74000000000001</ele>
        <time>2025-05-19T15:31:08Z</time>
      </trkpt>
      <trkpt lat="45.905277980491519" lon="8.505568010732532">
        <ele>208.74000000000001</ele>
        <time>2025-05-19T15:31:09Z</time>
      </trkpt>
      <trkpt lat="45.905401026830077" lon="8.5055420268327">
        <ele>208.74000000000001</ele>
        <time>2025-05-19T15:31:10Z</time>
      </trkpt>
      <trkpt lat="45.905997985973954" lon="8.505529034882784">
        <ele>208.74000000000001</ele>
        <time>2025-05-19T15:31:15Z</time>
      </trkpt>
      <trkpt lat="45.906993001699448" lon="8.505460973829031">
        <ele>207.78</ele>
        <time>2025-05-19T15:31:24Z</time>
      </trkpt>
      <trkpt lat="45.907516032457352" lon="8.505447981879115">
        <ele>205.86000000000001</ele>
        <time>2025-05-19T15:31:29Z</time>
      </trkpt>
      <trkpt lat="45.907617034390569" lon="8.505454016849399">
        <ele>205.86000000000001</ele>
        <time>2025-05-19T15:31:30Z</time>
      </trkpt>
      <trkpt lat="45.907718036323786" lon="8.50545996800065">
        <ele>205.38</ele>
        <time>2025-05-19T15:31:31Z</time>
      </trkpt>
      <trkpt lat="45.90867499820888" lon="8.505538003519177">
        <ele>203.46000000000001</ele>
        <time>2025-05-19T15:31:41Z</time>
      </trkpt>
      <trkpt lat="45.908976998180151" lon="8.505602041259408">
        <ele>202.49000000000001</ele>
        <time>2025-05-19T15:31:45Z</time>
      </trkpt>
      <trkpt lat="45.909513020887971" lon="8.505633976310492">
        <ele>201.53</ele>
        <time>2025-05-19T15:31:51Z</time>
      </trkpt>
      <trkpt lat="45.909689040854573" lon="8.505597012117505">
        <ele>201.53</ele>
        <time>2025-05-19T15:31:53Z</time>
      </trkpt>
      <trkpt lat="45.909789958968759" lon="8.505528029054403">
        <ele>201.05000000000001</ele>
        <time>2025-05-19T15:31:54Z</time>
      </trkpt>
      <trkpt lat="45.909861037507653" lon="8.505445970222354">
        <ele>200.56999999999999</ele>
        <time>2025-05-19T15:31:55Z</time>
      </trkpt>
      <trkpt lat="45.909933960065246" lon="8.505360977724195">
        <ele>200.56999999999999</ele>
        <time>2025-05-19T15:31:56Z</time>
      </trkpt>
      <trkpt lat="45.91000403277576" lon="8.505277996882796">
        <ele>200.56999999999999</ele>
        <time>2025-05-19T15:31:57Z</time>
      </trkpt>
      <trkpt lat="45.910100005567074" lon="8.50515503436327">
        <ele>201.05000000000001</ele>
        <time>2025-05-19T15:31:59Z</time>
      </trkpt>
      <trkpt lat="45.910205030813813" lon="8.505022013559938">
        <ele>201.53</ele>
        <time>2025-05-19T15:32:03Z</time>
      </trkpt>
      <trkpt lat="45.9102419950068" lon="8.504975996911526">
        <ele>202.00999999999999</ele>
        <time>2025-05-19T15:32:04Z</time>
      </trkpt>
      <trkpt lat="45.910281976684928" lon="8.50492000579834">
        <ele>202.00999999999999</ele>
        <time>2025-05-19T15:32:05Z</time>
      </trkpt>
      <trkpt lat="45.910332016646862" lon="8.504850016906858">
        <ele>202.49000000000001</ele>
        <time>2025-05-19T15:32:06Z</time>
      </trkpt>
      <trkpt lat="45.910388007760048" lon="8.504772987216711">
        <ele>202.49000000000001</ele>
        <time>2025-05-19T15:32:07Z</time>
      </trkpt>
      <trkpt lat="45.910449028015137" lon="8.504689000546932">
        <ele>202.97999999999999</ele>
        <time>2025-05-19T15:32:08Z</time>
      </trkpt>
      <trkpt lat="45.910512981936336" lon="8.504600990563631">
        <ele>203.46000000000001</ele>
        <time>2025-05-19T15:32:09Z</time>
      </trkpt>
      <trkpt lat="45.910578025504947" lon="8.504509963095188">
        <ele>204.41999999999999</ele>
        <time>2025-05-19T15:32:10Z</time>
      </trkpt>
      <trkpt lat="45.910790003836155" lon="8.504234030842781">
        <ele>206.81999999999999</ele>
        <time>2025-05-19T15:32:13Z</time>
      </trkpt>
      <trkpt lat="45.911236004903913" lon="8.503670012578368">
        <ele>211.63</ele>
        <time>2025-05-19T15:32:19Z</time>
      </trkpt>
      <trkpt lat="45.91187696903944" lon="8.502909019589424">
        <ele>214.03</ele>
        <time>2025-05-19T15:32:28Z</time>
      </trkpt>
      <trkpt lat="45.911943018436432" lon="8.502830984070897">
        <ele>214.03</ele>
        <time>2025-05-19T15:32:29Z</time>
      </trkpt>
      <trkpt lat="45.912178969010711" lon="8.502607019618154">
        <ele>214.50999999999999</ele>
        <time>2025-05-19T15:32:33Z</time>
      </trkpt>
      <trkpt lat="45.912359012290835" lon="8.502452038228512">
        <ele>214.03</ele>
        <time>2025-05-19T15:32:37Z</time>
      </trkpt>
      <trkpt lat="45.913103995844722" lon="8.501857006922364">
        <ele>214.99000000000001</ele>
        <time>2025-05-19T15:32:48Z</time>
      </trkpt>
      <trkpt lat="45.913187982514501" lon="8.501818031072617">
        <ele>214.99000000000001</ele>
        <time>2025-05-19T15:32:49Z</time>
      </trkpt>
      <trkpt lat="45.913270963355899" lon="8.501780983060598">
        <ele>214.99000000000001</ele>
        <time>2025-05-19T15:32:50Z</time>
      </trkpt>
      <trkpt lat="45.913356961682439" lon="8.501744018867612">
        <ele>214.50999999999999</ele>
        <time>2025-05-19T15:32:51Z</time>
      </trkpt>
      <trkpt lat="45.913454024121165" lon="8.501701019704342">
        <ele>214.50999999999999</ele>
        <time>2025-05-19T15:32:52Z</time>
      </trkpt>
      <trkpt lat="45.913544967770576" lon="8.501701019704342">
        <ele>214.50999999999999</ele>
        <time>2025-05-19T15:32:53Z</time>
      </trkpt>
      <trkpt lat="45.913920979946852" lon="8.501727003604174">
        <ele>213.55000000000001</ele>
        <time>2025-05-19T15:32:57Z</time>
      </trkpt>
      <trkpt lat="45.914009995758533" lon="8.501733038574457">
        <ele>213.55000000000001</ele>
        <time>2025-05-19T15:32:58Z</time>
      </trkpt>
      <trkpt lat="45.914107980206609" lon="8.50173999555409">
        <ele>213.06999999999999</ele>
        <time>2025-05-19T15:32:59Z</time>
      </trkpt>
      <trkpt lat="45.914206970483065" lon="8.501746030524373">
        <ele>213.06999999999999</ele>
        <time>2025-05-19T15:33:00Z</time>
      </trkpt>
      <trkpt lat="45.914292968809605" lon="8.501748964190483">
        <ele>212.59</ele>
        <time>2025-05-19T15:33:01Z</time>
      </trkpt>
      <trkpt lat="45.914382990449667" lon="8.501751981675625">
        <ele>212.11000000000001</ele>
        <time>2025-05-19T15:33:02Z</time>
      </trkpt>
      <trkpt lat="45.914923958480358" lon="8.501772014424205">
        <ele>210.19</ele>
        <time>2025-05-19T15:33:07Z</time>
      </trkpt>
      <trkpt lat="45.915370965376496" lon="8.501781988888979">
        <ele>208.25999999999999</ele>
        <time>2025-05-19T15:33:11Z</time>
      </trkpt>
      <trkpt lat="45.91572099365294" lon="8.5016980022192">
        <ele>207.78</ele>
        <time>2025-05-19T15:33:14Z</time>
      </trkpt>
      <trkpt lat="45.915829036384821" lon="8.501619966700673">
        <ele>207.30000000000001</ele>
        <time>2025-05-19T15:33:15Z</time>
      </trkpt>
      <trkpt lat="45.915938001126051" lon="8.501542015001178">
        <ele>207.30000000000001</ele>
        <time>2025-05-19T15:33:16Z</time>
      </trkpt>
      <trkpt lat="45.916035985574126" lon="8.501430032774806">
        <ele>206.81999999999999</ele>
        <time>2025-05-19T15:33:17Z</time>
      </trkpt>
      <trkpt lat="45.916117960587144" lon="8.501302041113377">
        <ele>206.81999999999999</ele>
        <time>2025-05-19T15:33:18Z</time>
      </trkpt>
      <trkpt lat="45.916439993306994" lon="8.500771969556809">
        <ele>205.86000000000001</ele>
        <time>2025-05-19T15:33:22Z</time>
      </trkpt>
      <trkpt lat="45.916510988026857" lon="8.500628974288702">
        <ele>205.86000000000001</ele>
        <time>2025-05-19T15:33:23Z</time>
      </trkpt>
      <trkpt lat="45.916577959433198" lon="8.500481033697724">
        <ele>206.34</ele>
        <time>2025-05-19T15:33:24Z</time>
      </trkpt>
      <trkpt lat="45.917200986295938" lon="8.498569959774613">
        <ele>205.86000000000001</ele>
        <time>2025-05-19T15:33:36Z</time>
      </trkpt>
      <trkpt lat="45.917897019535303" lon="8.497467990964651">
        <ele>205.38</ele>
        <time>2025-05-19T15:33:44Z</time>
      </trkpt>
      <trkpt lat="45.918639991432428" lon="8.496298966929317">
        <ele>204.90000000000001</ele>
        <time>2025-05-19T15:33:54Z</time>
      </trkpt>
      <trkpt lat="45.918861022219062" lon="8.495951034128666">
        <ele>204.90000000000001</ele>
        <time>2025-05-19T15:33:58Z</time>
      </trkpt>
      <trkpt lat="45.918967975303531" lon="8.495779037475586">
        <ele>204.90000000000001</ele>
        <time>2025-05-19T15:33:59Z</time>
      </trkpt>
      <trkpt lat="45.918993959203362" lon="8.495749030262232">
        <ele>204.90000000000001</ele>
        <time>2025-05-19T15:34:00Z</time>
      </trkpt>
      <trkpt lat="45.919141983613372" lon="8.495568986982107">
        <ele>204.41999999999999</ele>
        <time>2025-05-19T15:34:02Z</time>
      </trkpt>
      <trkpt lat="45.919219013303518" lon="8.495464967563748">
        <ele>204.41999999999999</ele>
        <time>2025-05-19T15:34:03Z</time>
      </trkpt>
      <trkpt lat="45.920157032087445" lon="8.494241964071989">
        <ele>203.46000000000001</ele>
        <time>2025-05-19T15:34:14Z</time>
      </trkpt>
      <trkpt lat="45.920423995703459" lon="8.493880033493042">
        <ele>203.46000000000001</ele>
        <time>2025-05-19T15:34:17Z</time>
      </trkpt>
      <trkpt lat="45.920517034828663" lon="8.493766039609909">
        <ele>203.46000000000001</ele>
        <time>2025-05-19T15:34:18Z</time>
      </trkpt>
      <trkpt lat="45.920608984306455" lon="8.493651039898396">
        <ele>203.46000000000001</ele>
        <time>2025-05-19T15:34:19Z</time>
      </trkpt>
      <trkpt lat="45.920702023431659" lon="8.493536040186882">
        <ele>203.46000000000001</ele>
        <time>2025-05-19T15:34:20Z</time>
      </trkpt>
      <trkpt lat="45.920797996222973" lon="8.493416011333466">
        <ele>203.46000000000001</ele>
        <time>2025-05-19T15:34:21Z</time>
      </trkpt>
      <trkpt lat="45.921404007822275" lon="8.492649989202619">
        <ele>204.90000000000001</ele>
        <time>2025-05-19T15:34:27Z</time>
      </trkpt>
      <trkpt lat="45.921514984220266" lon="8.492513028904796">
        <ele>204.41999999999999</ele>
        <time>2025-05-19T15:34:28Z</time>
      </trkpt>
      <trkpt lat="45.9224440343678" lon="8.491336964070797">
        <ele>204.41999999999999</ele>
        <time>2025-05-19T15:34:37Z</time>
      </trkpt>
      <trkpt lat="45.923638036474586" lon="8.489728979766369">
        <ele>202.49000000000001</ele>
        <time>2025-05-19T15:34:49Z</time>
      </trkpt>
      <trkpt lat="45.924502965062857" lon="8.488270025700331">
        <ele>200.56999999999999</ele>
        <time>2025-05-19T15:34:59Z</time>
      </trkpt>
      <trkpt lat="45.925115011632442" lon="8.487161016091704">
        <ele>202.00999999999999</ele>
        <time>2025-05-19T15:35:07Z</time>
      </trkpt>
      <trkpt lat="45.925187012180686" lon="8.487022966146469">
        <ele>202.00999999999999</ele>
        <time>2025-05-19T15:35:08Z</time>
      </trkpt>
      <trkpt lat="45.925806015729904" lon="8.485521012917161">
        <ele>202.49000000000001</ele>
        <time>2025-05-19T15:35:18Z</time>
      </trkpt>
      <trkpt lat="45.926224021241069" lon="8.484439998865128">
        <ele>203.46000000000001</ele>
        <time>2025-05-19T15:35:25Z</time>
      </trkpt>
      <trkpt lat="45.926289986819029" lon="8.484292980283499">
        <ele>203.46000000000001</ele>
        <time>2025-05-19T15:35:26Z</time>
      </trkpt>
      <trkpt lat="45.926372967660427" lon="8.484167000278831">
        <ele>203.46000000000001</ele>
        <time>2025-05-19T15:35:27Z</time>
      </trkpt>
      <trkpt lat="45.927292965352535" lon="8.482528002932668">
        <ele>202.00999999999999</ele>
        <time>2025-05-19T15:35:39Z</time>
      </trkpt>
      <trkpt lat="45.928103998303413" lon="8.480545012280345">
        <ele>204.90000000000001</ele>
        <time>2025-05-19T15:35:52Z</time>
      </trkpt>
      <trkpt lat="45.928187984973192" lon="8.480416014790535">
        <ele>204.90000000000001</ele>
        <time>2025-05-19T15:35:53Z</time>
      </trkpt>
      <trkpt lat="45.928284041583538" lon="8.480310989543796">
        <ele>204.90000000000001</ele>
        <time>2025-05-19T15:35:54Z</time>
      </trkpt>
      <trkpt lat="45.928381020203233" lon="8.480203030630946">
        <ele>205.38</ele>
        <time>2025-05-19T15:35:55Z</time>
      </trkpt>
      <trkpt lat="45.928481016308069" lon="8.480092976242304">
        <ele>205.38</ele>
        <time>2025-05-19T15:35:56Z</time>
      </trkpt>
      <trkpt lat="45.928732976317406" lon="8.479815032333136">
        <ele>205.86000000000001</ele>
        <time>2025-05-19T15:35:59Z</time>
      </trkpt>
      <trkpt lat="45.928807994350791" lon="8.479753006249666">
        <ele>206.34</ele>
        <time>2025-05-19T15:36:00Z</time>
      </trkpt>
      <trkpt lat="45.928940009325743" lon="8.479657033458352">
        <ele>207.30000000000001</ele>
        <time>2025-05-19T15:36:02Z</time>
      </trkpt>
      <trkpt lat="45.929157016798854" lon="8.479446982964873">
        <ele>209.69999999999999</ele>
        <time>2025-05-19T15:36:08Z</time>
      </trkpt>
      <trkpt lat="45.929270004853606" lon="8.479356039315462">
        <ele>210.66999999999999</ele>
        <time>2025-05-19T15:36:11Z</time>
      </trkpt>
      <trkpt lat="45.929327001795173" lon="8.479330977424979">
        <ele>211.15000000000001</ele>
        <time>2025-05-19T15:36:12Z</time>
      </trkpt>
      <trkpt lat="45.929389027878642" lon="8.479302981868386">
        <ele>211.63</ele>
        <time>2025-05-19T15:36:13Z</time>
      </trkpt>
      <trkpt lat="45.929458010941744" lon="8.4792660176754">
        <ele>212.11000000000001</ele>
        <time>2025-05-19T15:36:14Z</time>
      </trkpt>
      <trkpt lat="45.929529005661607" lon="8.479226035997272">
        <ele>212.59</ele>
        <time>2025-05-19T15:36:15Z</time>
      </trkpt>
      <trkpt lat="45.929681975394487" lon="8.479183036834002">
        <ele>214.03</ele>
        <time>2025-05-19T15:36:17Z</time>
      </trkpt>
      <trkpt lat="45.92977199703455" lon="8.479172978550196">
        <ele>214.99000000000001</ele>
        <time>2025-05-19T15:36:18Z</time>
      </trkpt>
      <trkpt lat="45.929863024502993" lon="8.479164009913802">
        <ele>215.47</ele>
        <time>2025-05-19T15:36:19Z</time>
      </trkpt>
      <trkpt lat="45.929956985637546" lon="8.479154035449028">
        <ele>215.47</ele>
        <time>2025-05-19T15:36:20Z</time>
      </trkpt>
      <trkpt lat="45.930055975914001" lon="8.479169961065054">
        <ele>215.47</ele>
        <time>2025-05-19T15:36:21Z</time>
      </trkpt>
      <trkpt lat="45.930488985031843" lon="8.479324020445347">
        <ele>215.94999999999999</ele>
        <time>2025-05-19T15:36:25Z</time>
      </trkpt>
      <trkpt lat="45.930919982492924" lon="8.479492999613285">
        <ele>216.43000000000001</ele>
        <time>2025-05-19T15:36:29Z</time>
      </trkpt>
      <trkpt lat="45.93103900551796" lon="8.479562988504767">
        <ele>216.91</ele>
        <time>2025-05-19T15:36:30Z</time>
      </trkpt>
      <trkpt lat="45.931378975510597" lon="8.479764992371202">
        <ele>215.47</ele>
        <time>2025-05-19T15:36:33Z</time>
      </trkpt>
      <trkpt lat="45.931809972971678" lon="8.480015024542809">
        <ele>214.03</ele>
        <time>2025-05-19T15:36:37Z</time>
      </trkpt>
      <trkpt lat="45.931921033188701" lon="8.48008300177753">
        <ele>213.06999999999999</ele>
        <time>2025-05-19T15:36:38Z</time>
      </trkpt>
      <trkpt lat="45.933191981166601" lon="8.480866039171815">
        <ele>207.78</ele>
        <time>2025-05-19T15:36:49Z</time>
      </trkpt>
      <trkpt lat="45.934661999344826" lon="8.48175703547895">
        <ele>206.81999999999999</ele>
        <time>2025-05-19T15:37:02Z</time>
      </trkpt>
      <trkpt lat="45.936021041125059" lon="8.482592962682247">
        <ele>206.34</ele>
        <time>2025-05-19T15:37:14Z</time>
      </trkpt>
      <trkpt lat="45.937845027074218" lon="8.483694009482861">
        <ele>206.34</ele>
        <time>2025-05-19T15:37:30Z</time>
      </trkpt>
      <trkpt lat="45.939072975888848" lon="8.484412003308535">
        <ele>207.78</ele>
        <time>2025-05-19T15:37:41Z</time>
      </trkpt>
      <trkpt lat="45.939293000847101" lon="8.484537983313203">
        <ele>208.74000000000001</ele>
        <time>2025-05-19T15:37:43Z</time>
      </trkpt>
      <trkpt lat="45.939401965588331" lon="8.484600009396672">
        <ele>209.22</ele>
        <time>2025-05-19T15:37:44Z</time>
      </trkpt>
      <trkpt lat="45.940555986016989" lon="8.485309034585953">
        <ele>211.15000000000001</ele>
        <time>2025-05-19T15:37:54Z</time>
      </trkpt>
      <trkpt lat="45.94214603304863" lon="8.486332967877388">
        <ele>209.22</ele>
        <time>2025-05-19T15:38:08Z</time>
      </trkpt>
      <trkpt lat="45.943595012649894" lon="8.487342987209559">
        <ele>205.86000000000001</ele>
        <time>2025-05-19T15:38:21Z</time>
      </trkpt>
      <trkpt lat="45.944478968158364" lon="8.488027034327388">
        <ele>204.90000000000001</ele>
        <time>2025-05-19T15:38:30Z</time>
      </trkpt>
      <trkpt lat="45.944951036944985" lon="8.488444034010172">
        <ele>205.86000000000001</ele>
        <time>2025-05-19T15:38:39Z</time>
      </trkpt>
      <trkpt lat="45.945337023586035" lon="8.488747961819172">
        <ele>206.34</ele>
        <time>2025-05-19T15:38:49Z</time>
      </trkpt>
      <trkpt lat="45.945360995829105" lon="8.488761959597468">
        <ele>206.34</ele>
        <time>2025-05-19T15:38:52Z</time>
      </trkpt>
      <trkpt lat="45.945582026615739" lon="8.489003023132682">
        <ele>206.34</ele>
        <time>2025-05-19T15:38:56Z</time>
      </trkpt>
      <trkpt lat="45.945575991645455" lon="8.48899899981916">
        <ele>206.34</ele>
        <time>2025-05-19T15:38:57Z</time>
      </trkpt>
      <trkpt lat="45.945782018825412" lon="8.489400995895267">
        <ele>205.86000000000001</ele>
        <time>2025-05-19T15:39:00Z</time>
      </trkpt>
      <trkpt lat="45.945795010775328" lon="8.489507026970387">
        <ele>205.86000000000001</ele>
        <time>2025-05-19T15:39:01Z</time>
      </trkpt>
      <trkpt lat="45.94582200050354" lon="8.489745995029807">
        <ele>206.34</ele>
        <time>2025-05-19T15:39:03Z</time>
      </trkpt>
      <trkpt lat="45.945832980796695" lon="8.489986974745989">
        <ele>206.81999999999999</ele>
        <time>2025-05-19T15:39:05Z</time>
      </trkpt>
      <trkpt lat="45.945832980796695" lon="8.490087976679206">
        <ele>206.81999999999999</ele>
        <time>2025-05-19T15:39:06Z</time>
      </trkpt>
      <trkpt lat="45.945830969139934" lon="8.490195013582707">
        <ele>206.34</ele>
        <time>2025-05-19T15:39:07Z</time>
      </trkpt>
      <trkpt lat="45.945823006331921" lon="8.490313030779362">
        <ele>206.34</ele>
        <time>2025-05-19T15:39:08Z</time>
      </trkpt>
      <trkpt lat="45.945814037695527" lon="8.490440016612411">
        <ele>205.86000000000001</ele>
        <time>2025-05-19T15:39:09Z</time>
      </trkpt>
      <trkpt lat="45.945769026875496" lon="8.491666959598661">
        <ele>202.49000000000001</ele>
        <time>2025-05-19T15:39:18Z</time>
      </trkpt>
      <trkpt lat="45.945792999118567" lon="8.493015021085739">
        <ele>202.00999999999999</ele>
        <time>2025-05-19T15:39:27Z</time>
      </trkpt>
      <trkpt lat="45.945746982470155" lon="8.494513034820557">
        <ele>199.61000000000001</ele>
        <time>2025-05-19T15:39:37Z</time>
      </trkpt>
      <trkpt lat="45.945648998022079" lon="8.49538098089397">
        <ele>200.09</ele>
        <time>2025-05-19T15:39:43Z</time>
      </trkpt>
      <trkpt lat="45.945600969716907" lon="8.495521964505315">
        <ele>200.09</ele>
        <time>2025-05-19T15:39:44Z</time>
      </trkpt>
      <trkpt lat="45.945552019402385" lon="8.495656996965408">
        <ele>200.09</ele>
        <time>2025-05-19T15:39:45Z</time>
      </trkpt>
      <trkpt lat="45.945503991097212" lon="8.495792029425502">
        <ele>200.56999999999999</ele>
        <time>2025-05-19T15:39:46Z</time>
      </trkpt>
      <trkpt lat="45.9454579744488" lon="8.495919015258551">
        <ele>201.05000000000001</ele>
        <time>2025-05-19T15:39:47Z</time>
      </trkpt>
      <trkpt lat="45.945412963628769" lon="8.496029991656542">
        <ele>201.53</ele>
        <time>2025-05-19T15:39:48Z</time>
      </trkpt>
      <trkpt lat="45.945282038301229" lon="8.496335009112954">
        <ele>202.49000000000001</ele>
        <time>2025-05-19T15:39:51Z</time>
      </trkpt>
      <trkpt lat="45.94524297863245" lon="8.496435005217791">
        <ele>202.97999999999999</ele>
        <time>2025-05-19T15:39:52Z</time>
      </trkpt>
      <trkpt lat="45.944923963397741" lon="8.497251989319921">
        <ele>206.34</ele>
        <time>2025-05-19T15:39:59Z</time>
      </trkpt>
      <trkpt lat="45.944877024739981" lon="8.497382998466492">
        <ele>206.34</ele>
        <time>2025-05-19T15:40:00Z</time>
      </trkpt>
      <trkpt lat="45.944179985672235" lon="8.498871959745884">
        <ele>208.74000000000001</ele>
        <time>2025-05-19T15:40:11Z</time>
      </trkpt>
      <trkpt lat="45.944095999002457" lon="8.498986959457398">
        <ele>208.74000000000001</ele>
        <time>2025-05-19T15:40:12Z</time>
      </trkpt>
      <trkpt lat="45.944008994847536" lon="8.499105982482433">
        <ele>208.74000000000001</ele>
        <time>2025-05-19T15:40:13Z</time>
      </trkpt>
      <trkpt lat="45.943814031779766" lon="8.499282002449036">
        <ele>208.74000000000001</ele>
        <time>2025-05-19T15:40:15Z</time>
      </trkpt>
      <trkpt lat="45.94371403567493" lon="8.499369006603956">
        <ele>208.74000000000001</ele>
        <time>2025-05-19T15:40:16Z</time>
      </trkpt>
      <trkpt lat="45.943337017670274" lon="8.499729009345174">
        <ele>208.25999999999999</ele>
        <time>2025-05-19T15:40:20Z</time>
      </trkpt>
      <trkpt lat="45.943258982151747" lon="8.499854989349842">
        <ele>208.74000000000001</ele>
        <time>2025-05-19T15:40:21Z</time>
      </trkpt>
      <trkpt lat="45.943180024623871" lon="8.49998096935451">
        <ele>208.74000000000001</ele>
        <time>2025-05-19T15:40:22Z</time>
      </trkpt>
      <trkpt lat="45.942746009677649" lon="8.501114035025239">
        <ele>210.19</ele>
        <time>2025-05-19T15:40:31Z</time>
      </trkpt>
      <trkpt lat="45.942550040781498" lon="8.501636981964111">
        <ele>210.66999999999999</ele>
        <time>2025-05-19T15:40:34Z</time>
      </trkpt>
      <trkpt lat="45.942550040781498" lon="8.501636981964111">
        <ele>210.66999999999999</ele>
        <time>2025-05-19T15:40:35Z</time>
      </trkpt>
      <trkpt lat="45.942463958635926" lon="8.501830017194152">
        <ele>210.66999999999999</ele>
        <time>2025-05-19T15:40:36Z</time>
      </trkpt>
      <trkpt lat="45.942400004714727" lon="8.502002013847232">
        <ele>210.66999999999999</ele>
        <time>2025-05-19T15:40:37Z</time>
      </trkpt>
      <trkpt lat="45.942386006936431" lon="8.502025986090303">
        <ele>211.15000000000001</ele>
        <time>2025-05-19T15:40:38Z</time>
      </trkpt>
      <trkpt lat="45.942314006388187" lon="8.502149032428861">
        <ele>210.66999999999999</ele>
        <time>2025-05-19T15:40:39Z</time>
      </trkpt>
      <trkpt lat="45.942233959212899" lon="8.502283981069922">
        <ele>210.66999999999999</ele>
        <time>2025-05-19T15:40:40Z</time>
      </trkpt>
      <trkpt lat="45.942138992249966" lon="8.502413984388113">
        <ele>210.66999999999999</ele>
        <time>2025-05-19T15:40:41Z</time>
      </trkpt>
      <trkpt lat="45.941571034491062" lon="8.503176989033818">
        <ele>210.66999999999999</ele>
        <time>2025-05-19T15:40:47Z</time>
      </trkpt>
      <trkpt lat="45.941511020064354" lon="8.503344040364027">
        <ele>210.66999999999999</ele>
        <time>2025-05-19T15:40:48Z</time>
      </trkpt>
      <trkpt lat="45.941447988152504" lon="8.503517964854837">
        <ele>210.66999999999999</ele>
        <time>2025-05-19T15:40:49Z</time>
      </trkpt>
      <trkpt lat="45.941389985382557" lon="8.503684010356665">
        <ele>210.19</ele>
        <time>2025-05-19T15:40:50Z</time>
      </trkpt>
      <trkpt lat="45.941354027017951" lon="8.503871010616422">
        <ele>210.19</ele>
        <time>2025-05-19T15:40:51Z</time>
      </trkpt>
      <trkpt lat="45.941318990662694" lon="8.504059016704559">
        <ele>209.22</ele>
        <time>2025-05-19T15:40:52Z</time>
      </trkpt>
      <trkpt lat="45.941295018419623" lon="8.504248028621078">
        <ele>209.22</ele>
        <time>2025-05-19T15:40:53Z</time>
      </trkpt>
      <trkpt lat="45.941278003156185" lon="8.504431005567312">
        <ele>208.74000000000001</ele>
        <time>2025-05-19T15:40:54Z</time>
      </trkpt>
      <trkpt lat="45.941260987892747" lon="8.504609037190676">
        <ele>208.25999999999999</ele>
        <time>2025-05-19T15:40:55Z</time>
      </trkpt>
      <trkpt lat="45.940905008465052" lon="8.506799982860684">
        <ele>206.34</ele>
        <time>2025-05-19T15:41:07Z</time>
      </trkpt>
      <trkpt lat="45.940589010715485" lon="8.508991012349725">
        <ele>203.46000000000001</ele>
        <time>2025-05-19T15:41:18Z</time>
      </trkpt>
      <trkpt lat="45.940444003790617" lon="8.510180991142988">
        <ele>202.49000000000001</ele>
        <time>2025-05-19T15:41:24Z</time>
      </trkpt>
      <trkpt lat="45.940433023497462" lon="8.51035600528121">
        <ele>202.00999999999999</ele>
        <time>2025-05-19T15:41:25Z</time>
      </trkpt>
      <trkpt lat="45.940148960798979" lon="8.511915961280465">
        <ele>201.05000000000001</ele>
        <time>2025-05-19T15:41:34Z</time>
      </trkpt>
      <trkpt lat="45.939597012475133" lon="8.513982016593218">
        <ele>202.49000000000001</ele>
        <time>2025-05-19T15:41:45Z</time>
      </trkpt>
      <trkpt lat="45.939345974475145" lon="8.514697998762131">
        <ele>202.97999999999999</ele>
        <time>2025-05-19T15:41:49Z</time>
      </trkpt>
      <trkpt lat="45.939266011118889" lon="8.514857003465295">
        <ele>202.97999999999999</ele>
        <time>2025-05-19T15:41:50Z</time>
      </trkpt>
      <trkpt lat="45.939079010859132" lon="8.515145005658269">
        <ele>202.97999999999999</ele>
        <time>2025-05-19T15:41:52Z</time>
      </trkpt>
      <trkpt lat="45.938975997269154" lon="8.515270985662937">
        <ele>203.46000000000001</ele>
        <time>2025-05-19T15:41:53Z</time>
      </trkpt>
      <trkpt lat="45.938858985900879" lon="8.515377016738057">
        <ele>203.46000000000001</ele>
        <time>2025-05-19T15:41:54Z</time>
      </trkpt>
      <trkpt lat="45.938396975398064" lon="8.515768032521009">
        <ele>204.41999999999999</ele>
        <time>2025-05-19T15:41:58Z</time>
      </trkpt>
      <trkpt lat="45.938294967636466" lon="8.515887977555394">
        <ele>204.41999999999999</ele>
        <time>2025-05-19T15:41:59Z</time>
      </trkpt>
      <trkpt lat="45.938209975138307" lon="8.51602703332901">
        <ele>204.41999999999999</ele>
        <time>2025-05-19T15:42:00Z</time>
      </trkpt>
      <trkpt lat="45.937935970723629" lon="8.516630027443171">
        <ele>204.90000000000001</ele>
        <time>2025-05-19T15:42:04Z</time>
      </trkpt>
      <trkpt lat="45.937890037894249" lon="8.516788026317954">
        <ele>205.38</ele>
        <time>2025-05-19T15:42:05Z</time>
      </trkpt>
      <trkpt lat="45.937846032902598" lon="8.516942001879215">
        <ele>205.86000000000001</ele>
        <time>2025-05-19T15:42:06Z</time>
      </trkpt>
      <trkpt lat="45.937816025689244" lon="8.517093965783715">
        <ele>205.38</ele>
        <time>2025-05-19T15:42:07Z</time>
      </trkpt>
      <trkpt lat="45.937793981283903" lon="8.517242996022105">
        <ele>204.90000000000001</ele>
        <time>2025-05-19T15:42:08Z</time>
      </trkpt>
      <trkpt lat="45.937655009329319" lon="8.518128041177988">
        <ele>203.94</ele>
        <time>2025-05-19T15:42:14Z</time>
      </trkpt>
      <trkpt lat="45.937611004337668" lon="8.51828302256763">
        <ele>203.94</ele>
        <time>2025-05-19T15:42:15Z</time>
      </trkpt>
      <trkpt lat="45.93757001683116" lon="8.518447978422046">
        <ele>204.41999999999999</ele>
        <time>2025-05-19T15:42:16Z</time>
      </trkpt>
      <trkpt lat="45.936794020235538" lon="8.520296020433307">
        <ele>206.81999999999999</ele>
        <time>2025-05-19T15:42:27Z</time>
      </trkpt>
      <trkpt lat="45.936415996402502" lon="8.521366976201534">
        <ele>207.78</ele>
        <time>2025-05-19T15:42:33Z</time>
      </trkpt>
      <trkpt lat="45.936401998624206" lon="8.521573003381491">
        <ele>208.25999999999999</ele>
        <time>2025-05-19T15:42:34Z</time>
      </trkpt>
      <trkpt lat="45.93639001250267" lon="8.52176696062088">
        <ele>208.25999999999999</ele>
        <time>2025-05-19T15:42:35Z</time>
      </trkpt>
      <trkpt lat="45.936284987255931" lon="8.522618981078267">
        <ele>207.30000000000001</ele>
        <time>2025-05-19T15:42:40Z</time>
      </trkpt>
      <trkpt lat="45.936254980042577" lon="8.522782009094954">
        <ele>207.30000000000001</ele>
        <time>2025-05-19T15:42:41Z</time>
      </trkpt>
      <trkpt lat="45.936209969222546" lon="8.52294503711164">
        <ele>206.81999999999999</ele>
        <time>2025-05-19T15:42:42Z</time>
      </trkpt>
      <trkpt lat="45.935836974531412" lon="8.524111965671182">
        <ele>207.30000000000001</ele>
        <time>2025-05-19T15:42:49Z</time>
      </trkpt>
      <trkpt lat="45.935770003125072" lon="8.524274993687868">
        <ele>207.78</ele>
        <time>2025-05-19T15:42:50Z</time>
      </trkpt>
      <trkpt lat="45.935232974588871" lon="8.525157021358609">
        <ele>208.74000000000001</ele>
        <time>2025-05-19T15:42:57Z</time>
      </trkpt>
      <trkpt lat="45.935169020667672" lon="8.525289036333561">
        <ele>208.74000000000001</ele>
        <time>2025-05-19T15:42:58Z</time>
      </trkpt>
      <trkpt lat="45.934911025688052" lon="8.526186989620328">
        <ele>207.78</ele>
        <time>2025-05-19T15:43:04Z</time>
      </trkpt>
      <trkpt lat="45.934660993516445" lon="8.527723979204893">
        <ele>205.38</ele>
        <time>2025-05-19T15:43:14Z</time>
      </trkpt>
      <trkpt lat="45.934634003788233" lon="8.527863034978509">
        <ele>205.38</ele>
        <time>2025-05-19T15:43:15Z</time>
      </trkpt>
      <trkpt lat="45.934485979378223" lon="8.528672978281975">
        <ele>203.94</ele>
        <time>2025-05-19T15:43:22Z</time>
      </trkpt>
      <trkpt lat="45.934458989650011" lon="8.52881102822721">
        <ele>203.46000000000001</ele>
        <time>2025-05-19T15:43:24Z</time>
      </trkpt>
      <trkpt lat="45.934373997151852" lon="8.529215035960078">
        <ele>202.97999999999999</ele>
        <time>2025-05-19T15:43:34Z</time>
      </trkpt>
      <trkpt lat="45.934255979955196" lon="8.529772013425827">
        <ele>201.53</ele>
        <time>2025-05-19T15:43:43Z</time>
      </trkpt>
      <trkpt lat="45.934051964432001" lon="8.531010020524263">
        <ele>203.46000000000001</ele>
        <time>2025-05-19T15:43:53Z</time>
      </trkpt>
      <trkpt lat="45.933599006384611" lon="8.532558996230364">
        <ele>211.15000000000001</ele>
        <time>2025-05-19T15:44:02Z</time>
      </trkpt>
      <trkpt lat="45.933303041383624" lon="8.534309975802898">
        <ele>215.94999999999999</ele>
        <time>2025-05-19T15:44:11Z</time>
      </trkpt>
      <trkpt lat="45.932892998680472" lon="8.536814991384745">
        <ele>223.16</ele>
        <time>2025-05-19T15:44:24Z</time>
      </trkpt>
      <trkpt lat="45.932750003412366" lon="8.538766968995333">
        <ele>226.05000000000001</ele>
        <time>2025-05-19T15:44:34Z</time>
      </trkpt>
      <trkpt lat="45.932228984311223" lon="8.541541965678334">
        <ele>223.16</ele>
        <time>2025-05-19T15:44:49Z</time>
      </trkpt>
      <trkpt lat="45.931714000180364" lon="8.543167971074581">
        <ele>218.84</ele>
        <time>2025-05-19T15:44:58Z</time>
      </trkpt>
      <trkpt lat="45.930835995823145" lon="8.545084996148944">
        <ele>210.19</ele>
        <time>2025-05-19T15:45:11Z</time>
      </trkpt>
      <trkpt lat="45.929760010913014" lon="8.547416003420949">
        <ele>210.66999999999999</ele>
        <time>2025-05-19T15:45:27Z</time>
      </trkpt>
      <trkpt lat="45.929696979001164" lon="8.547542989253998">
        <ele>210.66999999999999</ele>
        <time>2025-05-19T15:45:28Z</time>
      </trkpt>
      <trkpt lat="45.929676024243236" lon="8.547578025609255">
        <ele>210.66999999999999</ele>
        <time>2025-05-19T15:45:29Z</time>
      </trkpt>
      <trkpt lat="45.929567981511354" lon="8.547714985907078">
        <ele>211.15000000000001</ele>
        <time>2025-05-19T15:45:30Z</time>
      </trkpt>
      <trkpt lat="45.929586002603173" lon="8.547830991446972">
        <ele>212.11000000000001</ele>
        <time>2025-05-19T15:45:31Z</time>
      </trkpt>
      <trkpt lat="45.929561024531722" lon="8.547936016693711">
        <ele>212.11000000000001</ele>
        <time>2025-05-19T15:45:32Z</time>
      </trkpt>
      <trkpt lat="45.929533028975129" lon="8.548054033890367">
        <ele>212.59</ele>
        <time>2025-05-19T15:45:33Z</time>
      </trkpt>
      <trkpt lat="45.929218037053943" lon="8.549768971279264">
        <ele>214.99000000000001</ele>
        <time>2025-05-19T15:45:46Z</time>
      </trkpt>
      <trkpt lat="45.92917101457715" lon="8.550055967643857">
        <ele>215.94999999999999</ele>
        <time>2025-05-19T15:45:48Z</time>
      </trkpt>
      <trkpt lat="45.929132960736752" lon="8.550292002037168">
        <ele>216.43000000000001</ele>
        <time>2025-05-19T15:45:50Z</time>
      </trkpt>
      <trkpt lat="45.928982002660632" lon="8.551251981407404">
        <ele>216.43000000000001</ele>
        <time>2025-05-19T15:45:59Z</time>
      </trkpt>
      <trkpt lat="45.928744040429592" lon="8.552242973819375">
        <ele>217.40000000000001</ele>
        <time>2025-05-19T15:46:09Z</time>
      </trkpt>
      <trkpt lat="45.928731970489025" lon="8.552298964932561">
        <ele>217.88</ele>
        <time>2025-05-19T15:46:10Z</time>
      </trkpt>
      <trkpt lat="45.92872099019587" lon="8.55233701877296">
        <ele>217.88</ele>
        <time>2025-05-19T15:46:11Z</time>
      </trkpt>
      <trkpt lat="45.928712021559477" lon="8.552369037643075">
        <ele>218.36000000000001</ele>
        <time>2025-05-19T15:46:12Z</time>
      </trkpt>
      <trkpt lat="45.928702969104052" lon="8.552401978522539">
        <ele>218.36000000000001</ele>
        <time>2025-05-19T15:46:13Z</time>
      </trkpt>
      <trkpt lat="45.928694000467658" lon="8.552437014877796">
        <ele>218.84</ele>
        <time>2025-05-19T15:46:14Z</time>
      </trkpt>
      <trkpt lat="45.928678996860981" lon="8.552492000162602">
        <ele>218.84</ele>
        <time>2025-05-19T15:46:15Z</time>
      </trkpt>
      <trkpt lat="45.928581012412906" lon="8.552556037902832">
        <ele>218.84</ele>
        <time>2025-05-19T15:46:16Z</time>
      </trkpt>
      <trkpt lat="45.928558968007565" lon="8.552594007924199">
        <ele>219.31999999999999</ele>
        <time>2025-05-19T15:46:17Z</time>
      </trkpt>
      <trkpt lat="45.928514041006565" lon="8.552683023735881">
        <ele>219.31999999999999</ele>
        <time>2025-05-19T15:46:18Z</time>
      </trkpt>
      <trkpt lat="45.928497025743127" lon="8.552782014012337">
        <ele>219.80000000000001</ele>
        <time>2025-05-19T15:46:19Z</time>
      </trkpt>
      <trkpt lat="45.928495014086366" lon="8.552791988477111">
        <ele>220.28</ele>
        <time>2025-05-19T15:46:20Z</time>
      </trkpt>
      <trkpt lat="45.928566008806229" lon="8.552993992343545">
        <ele>220.28</ele>
        <time>2025-05-19T15:46:21Z</time>
      </trkpt>
      <trkpt lat="45.928531978279352" lon="8.553150985389948">
        <ele>220.75999999999999</ele>
        <time>2025-05-19T15:46:23Z</time>
      </trkpt>
      <trkpt lat="45.928514041006565" lon="8.553237989544869">
        <ele>221.24000000000001</ele>
        <time>2025-05-19T15:46:24Z</time>
      </trkpt>
      <trkpt lat="45.928495014086366" lon="8.553330022841692">
        <ele>221.72</ele>
        <time>2025-05-19T15:46:25Z</time>
      </trkpt>
      <trkpt lat="45.928444974124432" lon="8.553581982851028">
        <ele>222.68000000000001</ele>
        <time>2025-05-19T15:46:28Z</time>
      </trkpt>
      <trkpt lat="45.928428964689374" lon="8.553668987005949">
        <ele>222.68000000000001</ele>
        <time>2025-05-19T15:46:29Z</time>
      </trkpt>
      <trkpt lat="45.9284189902246" lon="8.553762026131153">
        <ele>223.16</ele>
        <time>2025-05-19T15:46:30Z</time>
      </trkpt>
      <trkpt lat="45.928302984684706" lon="8.555032974109054">
        <ele>223.63999999999999</ele>
        <time>2025-05-19T15:46:42Z</time>
      </trkpt>
      <trkpt lat="45.928301978856325" lon="8.555243024602532">
        <ele>223.16</ele>
        <time>2025-05-19T15:46:44Z</time>
      </trkpt>
      <trkpt lat="45.928063010796905" lon="8.556626038625836">
        <ele>221.72</ele>
        <time>2025-05-19T15:46:55Z</time>
      </trkpt>
      <trkpt lat="45.927950022742152" lon="8.558293031528592">
        <ele>220.28</ele>
        <time>2025-05-19T15:47:06Z</time>
      </trkpt>
      <trkpt lat="45.927872993052006" lon="8.559487033635378">
        <ele>219.80000000000001</ele>
        <time>2025-05-19T15:47:15Z</time>
      </trkpt>
      <trkpt lat="45.927728991955519" lon="8.560494035482407">
        <ele>219.31999999999999</ele>
        <time>2025-05-19T15:47:23Z</time>
      </trkpt>
      <trkpt lat="45.927705019712448" lon="8.560627978295088">
        <ele>218.84</ele>
        <time>2025-05-19T15:47:24Z</time>
      </trkpt>
      <trkpt lat="45.927542997524142" lon="8.561989031732082">
        <ele>217.88</ele>
        <time>2025-05-19T15:47:34Z</time>
      </trkpt>
      <trkpt lat="45.927358008921146" lon="8.563477993011475">
        <ele>214.99000000000001</ele>
        <time>2025-05-19T15:47:43Z</time>
      </trkpt>
      <trkpt lat="45.927214007824659" lon="8.564935019239783">
        <ele>212.11000000000001</ele>
        <time>2025-05-19T15:47:51Z</time>
      </trkpt>
      <trkpt lat="45.927226999774575" lon="8.565108021721244">
        <ele>211.63</ele>
        <time>2025-05-19T15:47:52Z</time>
      </trkpt>
      <trkpt lat="45.927239991724491" lon="8.565282030031085">
        <ele>211.15000000000001</ele>
        <time>2025-05-19T15:47:53Z</time>
      </trkpt>
      <trkpt lat="45.927250972017646" lon="8.565430976450443">
        <ele>210.66999999999999</ele>
        <time>2025-05-19T15:47:54Z</time>
      </trkpt>
      <trkpt lat="45.927315009757876" lon="8.565589981153607">
        <ele>210.19</ele>
        <time>2025-05-19T15:47:55Z</time>
      </trkpt>
      <trkpt lat="45.927380975335836" lon="8.565738005563617">
        <ele>209.69999999999999</ele>
        <time>2025-05-19T15:47:56Z</time>
      </trkpt>
      <trkpt lat="45.927451970055699" lon="8.565888041630387">
        <ele>209.22</ele>
        <time>2025-05-19T15:47:57Z</time>
      </trkpt>
      <trkpt lat="45.927596976980567" lon="8.566186018288136">
        <ele>208.74000000000001</ele>
        <time>2025-05-19T15:47:59Z</time>
      </trkpt>
      <trkpt lat="45.927670989185572" lon="8.5663259960711">
        <ele>208.25999999999999</ele>
        <time>2025-05-19T15:48:00Z</time>
      </trkpt>
      <trkpt lat="45.928703974932432" lon="8.56746300123632">
        <ele>205.38</ele>
        <time>2025-05-19T15:48:10Z</time>
      </trkpt>
      <trkpt lat="45.929920021444559" lon="8.568635964766145">
        <ele>204.90000000000001</ele>
        <time>2025-05-19T15:48:22Z</time>
      </trkpt>
      <trkpt lat="45.931116035208106" lon="8.569811023771763">
        <ele>205.86000000000001</ele>
        <time>2025-05-19T15:48:34Z</time>
      </trkpt>
      <trkpt lat="45.93273701146245" lon="8.571430994197726">
        <ele>208.25999999999999</ele>
        <time>2025-05-19T15:48:50Z</time>
      </trkpt>
      <trkpt lat="45.933860018849373" lon="8.57255500741303">
        <ele>203.46000000000001</ele>
        <time>2025-05-19T15:49:02Z</time>
      </trkpt>
      <trkpt lat="45.934019023552537" lon="8.57274703681469">
        <ele>200.56999999999999</ele>
        <time>2025-05-19T15:49:09Z</time>
      </trkpt>
      <trkpt lat="45.934070991352201" lon="8.57304803095758">
        <ele>199.61000000000001</ele>
        <time>2025-05-19T15:49:14Z</time>
      </trkpt>
      <trkpt lat="45.934106027707458" lon="8.573090024292469">
        <ele>200.09</ele>
        <time>2025-05-19T15:49:15Z</time>
      </trkpt>
      <trkpt lat="45.934137962758541" lon="8.573129000142217">
        <ele>199.61000000000001</ele>
        <time>2025-05-19T15:49:16Z</time>
      </trkpt>
      <trkpt lat="45.934160007163882" lon="8.573155989870429">
        <ele>199.61000000000001</ele>
        <time>2025-05-19T15:49:17Z</time>
      </trkpt>
      <trkpt lat="45.934207029640675" lon="8.57313796877861">
        <ele>199.61000000000001</ele>
        <time>2025-05-19T15:49:18Z</time>
      </trkpt>
      <trkpt lat="45.934396963566542" lon="8.573148027062416">
        <ele>199.61000000000001</ele>
        <time>2025-05-19T15:49:22Z</time>
      </trkpt>
      <trkpt lat="45.934442980214953" lon="8.573187002912164">
        <ele>199.61000000000001</ele>
        <time>2025-05-19T15:49:23Z</time>
      </trkpt>
      <trkpt lat="45.934640038758516" lon="8.573357993736863">
        <ele>199.13</ele>
        <time>2025-05-19T15:49:31Z</time>
      </trkpt>
      <trkpt lat="45.934717990458012" lon="8.573434017598629">
        <ele>199.13</ele>
        <time>2025-05-19T15:49:45Z</time>
      </trkpt>
      <trkpt lat="45.935033988207579" lon="8.573757978156209">
        <ele>199.13</ele>
        <time>2025-05-19T15:49:55Z</time>
      </trkpt>
      <trkpt lat="45.935070030391216" lon="8.573797959834337">
        <ele>199.13</ele>
        <time>2025-05-19T15:49:56Z</time>
      </trkpt>
      <trkpt lat="45.935249989852309" lon="8.574047992005944">
        <ele>199.61000000000001</ele>
        <time>2025-05-19T15:50:00Z</time>
      </trkpt>
      <trkpt lat="45.935287037864327" lon="8.574114041402936">
        <ele>199.61000000000001</ele>
        <time>2025-05-19T15:50:01Z</time>
      </trkpt>
      <trkpt lat="45.935359038412571" lon="8.574239015579224">
        <ele>200.56999999999999</ele>
        <time>2025-05-19T15:50:03Z</time>
      </trkpt>
      <trkpt lat="45.935392985120416" lon="8.574298024177551">
        <ele>200.56999999999999</ele>
        <time>2025-05-19T15:50:04Z</time>
      </trkpt>
      <trkpt lat="45.93555198982358" lon="8.574617961421609">
        <ele>201.05000000000001</ele>
        <time>2025-05-19T15:50:09Z</time>
      </trkpt>
      <trkpt lat="45.935588032007217" lon="8.574692979454994">
        <ele>201.53</ele>
        <time>2025-05-19T15:50:10Z</time>
      </trkpt>
      <trkpt lat="45.935650980100036" lon="8.574826000258327">
        <ele>202.00999999999999</ele>
        <time>2025-05-19T15:50:12Z</time>
      </trkpt>
      <trkpt lat="45.935679981485009" lon="8.574887020513415">
        <ele>202.00999999999999</ele>
        <time>2025-05-19T15:50:13Z</time>
      </trkpt>
      <trkpt lat="45.935710994526744" lon="8.57496103271842">
        <ele>202.49000000000001</ele>
        <time>2025-05-19T15:50:14Z</time>
      </trkpt>
      <trkpt lat="45.935742007568479" lon="8.575033033266664">
        <ele>202.97999999999999</ele>
        <time>2025-05-19T15:50:15Z</time>
      </trkpt>
      <trkpt lat="45.935773020610213" lon="8.575101010501385">
        <ele>202.97999999999999</ele>
        <time>2025-05-19T15:50:16Z</time>
      </trkpt>
      <trkpt lat="45.935902018100023" lon="8.575379960238934">
        <ele>205.86000000000001</ele>
        <time>2025-05-19T15:50:24Z</time>
      </trkpt>
      <trkpt lat="45.936141991987824" lon="8.575943978503346">
        <ele>204.90000000000001</ele>
        <time>2025-05-19T15:50:34Z</time>
      </trkpt>
      <trkpt lat="45.936169987544417" lon="8.576012039557099">
        <ele>204.41999999999999</ele>
        <time>2025-05-19T15:50:35Z</time>
      </trkpt>
      <trkpt lat="45.936198988929391" lon="8.576080016791821">
        <ele>203.94</ele>
        <time>2025-05-19T15:50:36Z</time>
      </trkpt>
      <trkpt lat="45.936230001971126" lon="8.576148999854922">
        <ele>203.46000000000001</ele>
        <time>2025-05-19T15:50:37Z</time>
      </trkpt>
      <trkpt lat="45.93626000918448" lon="8.576217982918024">
        <ele>202.97999999999999</ele>
        <time>2025-05-19T15:50:38Z</time>
      </trkpt>
      <trkpt lat="45.936294039711356" lon="8.576289983466268">
        <ele>202.00999999999999</ele>
        <time>2025-05-19T15:50:39Z</time>
      </trkpt>
      <trkpt lat="45.936408033594489" lon="8.576534986495972">
        <ele>200.56999999999999</ele>
        <time>2025-05-19T15:50:42Z</time>
      </trkpt>
      <trkpt lat="45.936482967808843" lon="8.576696002855897">
        <ele>199.13</ele>
        <time>2025-05-19T15:50:44Z</time>
      </trkpt>
      <trkpt lat="45.936524039134383" lon="8.576782001182437">
        <ele>198.16999999999999</ele>
        <time>2025-05-19T15:50:45Z</time>
      </trkpt>
      <trkpt lat="45.93656200915575" lon="8.576864982023835">
        <ele>196.25</ele>
        <time>2025-05-19T15:50:46Z</time>
      </trkpt>
      <trkpt lat="45.936769964173436" lon="8.577309977263212">
        <ele>191.91999999999999</ele>
        <time>2025-05-19T15:50:51Z</time>
      </trkpt>
      <trkpt lat="45.937108006328344" lon="8.578112041577697">
        <ele>190.96000000000001</ele>
        <time>2025-05-19T15:51:00Z</time>
      </trkpt>
      <trkpt lat="45.937585020437837" lon="8.579167993739247">
        <ele>190.47999999999999</ele>
        <time>2025-05-19T15:51:09Z</time>
      </trkpt>
      <trkpt lat="45.938211986795068" lon="8.580144988372922">
        <ele>192.88</ele>
        <time>2025-05-19T15:51:19Z</time>
      </trkpt>
      <trkpt lat="45.938354982063174" lon="8.58035696670413">
        <ele>192.40000000000001</ele>
        <time>2025-05-19T15:51:26Z</time>
      </trkpt>
      <trkpt lat="45.938499988988042" lon="8.580572968348861">
        <ele>191.91999999999999</ele>
        <time>2025-05-19T15:51:29Z</time>
      </trkpt>
      <trkpt lat="45.939056966453791" lon="8.581480979919434">
        <ele>190.96000000000001</ele>
        <time>2025-05-19T15:51:37Z</time>
      </trkpt>
      <trkpt lat="45.939124021679163" lon="8.581605032086372">
        <ele>190.96000000000001</ele>
        <time>2025-05-19T15:51:38Z</time>
      </trkpt>
      <trkpt lat="45.939171966165304" lon="8.581749033182859">
        <ele>190.96000000000001</ele>
        <time>2025-05-19T15:51:39Z</time>
      </trkpt>
      <trkpt lat="45.939213959500194" lon="8.581894040107727">
        <ele>190.96000000000001</ele>
        <time>2025-05-19T15:51:40Z</time>
      </trkpt>
      <trkpt lat="45.939256036654115" lon="8.582042986527085">
        <ele>191.44</ele>
        <time>2025-05-19T15:51:41Z</time>
      </trkpt>
      <trkpt lat="45.939261987805367" lon="8.582226969301701">
        <ele>190.96000000000001</ele>
        <time>2025-05-19T15:51:42Z</time>
      </trkpt>
      <trkpt lat="45.939256036654115" lon="8.582403995096684">
        <ele>190.96000000000001</ele>
        <time>2025-05-19T15:51:43Z</time>
      </trkpt>
      <trkpt lat="45.939250001683831" lon="8.582584960386157">
        <ele>191.44</ele>
        <time>2025-05-19T15:51:44Z</time>
      </trkpt>
      <trkpt lat="45.939181018620729" lon="8.584112981334329">
        <ele>193.84</ele>
        <time>2025-05-19T15:51:52Z</time>
      </trkpt>
      <trkpt lat="45.939181018620729" lon="8.584315991029143">
        <ele>194.31999999999999</ele>
        <time>2025-05-19T15:51:53Z</time>
      </trkpt>
      <trkpt lat="45.939183030277491" lon="8.584515983238816">
        <ele>194.31999999999999</ele>
        <time>2025-05-19T15:51:54Z</time>
      </trkpt>
      <trkpt lat="45.939269028604031" lon="8.584901969879866">
        <ele>194.80000000000001</ele>
        <time>2025-05-19T15:51:56Z</time>
      </trkpt>
      <trkpt lat="45.939314039424062" lon="8.585101962089539">
        <ele>195.28</ele>
        <time>2025-05-19T15:51:57Z</time>
      </trkpt>
      <trkpt lat="45.939501961693168" lon="8.586124973371625">
        <ele>196.72999999999999</ele>
        <time>2025-05-19T15:52:02Z</time>
      </trkpt>
      <trkpt lat="45.939540015533566" lon="8.586556976661086">
        <ele>196.72999999999999</ele>
        <time>2025-05-19T15:52:04Z</time>
      </trkpt>
      <trkpt lat="45.939559964463115" lon="8.58677800744772">
        <ele>196.72999999999999</ele>
        <time>2025-05-19T15:52:05Z</time>
      </trkpt>
      <trkpt lat="45.939835980534554" lon="8.588092038407922">
        <ele>197.69</ele>
        <time>2025-05-19T15:52:11Z</time>
      </trkpt>
      <trkpt lat="45.939881997182965" lon="8.588313991203904">
        <ele>197.69</ele>
        <time>2025-05-19T15:52:12Z</time>
      </trkpt>
      <trkpt lat="45.940073020756245" lon="8.589320993050933">
        <ele>198.16999999999999</ele>
        <time>2025-05-19T15:52:17Z</time>
      </trkpt>
      <trkpt lat="45.940110990777612" lon="8.589497013017535">
        <ele>198.16999999999999</ele>
        <time>2025-05-19T15:52:18Z</time>
      </trkpt>
      <trkpt lat="45.94019397161901" lon="8.589643025770783">
        <ele>197.69</ele>
        <time>2025-05-19T15:52:19Z</time>
      </trkpt>
      <trkpt lat="45.94027996994555" lon="8.589789038524032">
        <ele>198.16999999999999</ele>
        <time>2025-05-19T15:52:20Z</time>
      </trkpt>
      <trkpt lat="45.940395975485444" lon="8.589886017143726">
        <ele>198.65000000000001</ele>
        <time>2025-05-19T15:52:21Z</time>
      </trkpt>
      <trkpt lat="45.940522039309144" lon="8.589962041005492">
        <ele>199.13</ele>
        <time>2025-05-19T15:52:22Z</time>
      </trkpt>
      <trkpt lat="45.940647013485432" lon="8.590035969391465">
        <ele>199.13</ele>
        <time>2025-05-19T15:52:23Z</time>
      </trkpt>
      <trkpt lat="45.941571034491062" lon="8.590585989877582">
        <ele>199.61000000000001</ele>
        <time>2025-05-19T15:52:30Z</time>
      </trkpt>
      <trkpt lat="45.94191201031208" lon="8.5908820386976">
        <ele>199.13</ele>
        <time>2025-05-19T15:52:33Z</time>
      </trkpt>
      <trkpt lat="45.942564960569143" lon="8.591922987252474">
        <ele>200.09</ele>
        <time>2025-05-19T15:52:41Z</time>
      </trkpt>
      <trkpt lat="45.94281398691237" lon="8.592467978596687">
        <ele>200.56999999999999</ele>
        <time>2025-05-19T15:52:45Z</time>
      </trkpt>
      <trkpt lat="45.943383034318686" lon="8.593979990109801">
        <ele>201.53</ele>
        <time>2025-05-19T15:52:54Z</time>
      </trkpt>
      <trkpt lat="45.943848984315991" lon="8.59533098526299">
        <ele>201.05000000000001</ele>
        <time>2025-05-19T15:53:02Z</time>
      </trkpt>
      <trkpt lat="45.9438899718225" lon="8.595526032149792">
        <ele>200.56999999999999</ele>
        <time>2025-05-19T15:53:03Z</time>
      </trkpt>
      <trkpt lat="45.944048976525664" lon="8.596087032929063">
        <ele>200.09</ele>
        <time>2025-05-19T15:53:06Z</time>
      </trkpt>
      <trkpt lat="45.944115025922656" lon="8.596272021532059">
        <ele>200.09</ele>
        <time>2025-05-19T15:53:07Z</time>
      </trkpt>
      <trkpt lat="45.944179985672235" lon="8.596454998478293">
        <ele>200.09</ele>
        <time>2025-05-19T15:53:08Z</time>
      </trkpt>
      <trkpt lat="45.945009039714932" lon="8.598177982494235">
        <ele>198.65000000000001</ele>
        <time>2025-05-19T15:53:18Z</time>
      </trkpt>
      <trkpt lat="45.945911016315222" lon="8.599952012300491">
        <ele>197.21000000000001</ele>
        <time>2025-05-19T15:53:29Z</time>
      </trkpt>
      <trkpt lat="45.946663962677121" lon="8.601218014955521">
        <ele>197.21000000000001</ele>
        <time>2025-05-19T15:53:37Z</time>
      </trkpt>
      <trkpt lat="45.947909010574222" lon="8.602758022025228">
        <ele>200.56999999999999</ele>
        <time>2025-05-19T15:53:47Z</time>
      </trkpt>
      <trkpt lat="45.949101001024246" lon="8.604256035760045">
        <ele>200.09</ele>
        <time>2025-05-19T15:53:57Z</time>
      </trkpt>
      <trkpt lat="45.95001102425158" lon="8.605680037289858">
        <ele>199.61000000000001</ele>
        <time>2025-05-19T15:54:06Z</time>
      </trkpt>
      <trkpt lat="45.95101903192699" lon="8.607179978862405">
        <ele>200.09</ele>
        <time>2025-05-19T15:54:16Z</time>
      </trkpt>
      <trkpt lat="45.951754041016102" lon="8.608405999839306">
        <ele>200.09</ele>
        <time>2025-05-19T15:54:24Z</time>
      </trkpt>
      <trkpt lat="45.952168023213744" lon="8.609197000041604">
        <ele>200.56999999999999</ele>
        <time>2025-05-19T15:54:29Z</time>
      </trkpt>
      <trkpt lat="45.95306396484375" lon="8.610964994877577">
        <ele>206.34</ele>
        <time>2025-05-19T15:54:40Z</time>
      </trkpt>
      <trkpt lat="45.954145984724164" lon="8.613088969141245">
        <ele>206.81999999999999</ele>
        <time>2025-05-19T15:54:53Z</time>
      </trkpt>
      <trkpt lat="45.954924998804927" lon="8.614514982327819">
        <ele>205.86000000000001</ele>
        <time>2025-05-19T15:55:02Z</time>
      </trkpt>
      <trkpt lat="45.95501602627337" lon="8.614667030051351">
        <ele>205.86000000000001</ele>
        <time>2025-05-19T15:55:03Z</time>
      </trkpt>
      <trkpt lat="45.955106969922781" lon="8.61481798812747">
        <ele>205.38</ele>
        <time>2025-05-19T15:55:04Z</time>
      </trkpt>
      <trkpt lat="45.955199003219604" lon="8.614972969517112">
        <ele>204.90000000000001</ele>
        <time>2025-05-19T15:55:05Z</time>
      </trkpt>
      <trkpt lat="45.955291958525777" lon="8.615127028897405">
        <ele>204.41999999999999</ele>
        <time>2025-05-19T15:55:06Z</time>
      </trkpt>
      <trkpt lat="45.9553839918226" lon="8.615273963660002">
        <ele>204.41999999999999</ele>
        <time>2025-05-19T15:55:07Z</time>
      </trkpt>
      <trkpt lat="45.956276999786496" lon="8.616738030686975">
        <ele>203.94</ele>
        <time>2025-05-19T15:55:18Z</time>
      </trkpt>
      <trkpt lat="45.956356963142753" lon="8.616866022348404">
        <ele>203.46000000000001</ele>
        <time>2025-05-19T15:55:19Z</time>
      </trkpt>
      <trkpt lat="45.957120973616838" lon="8.618117021396756">
        <ele>202.49000000000001</ele>
        <time>2025-05-19T15:55:29Z</time>
      </trkpt>
      <trkpt lat="45.958193019032478" lon="8.61984696239233">
        <ele>202.00999999999999</ele>
        <time>2025-05-19T15:55:43Z</time>
      </trkpt>
      <trkpt lat="45.959247965365648" lon="8.621052028611302">
        <ele>200.56999999999999</ele>
        <time>2025-05-19T15:55:54Z</time>
      </trkpt>
      <trkpt lat="45.959661025553942" lon="8.621440026909113">
        <ele>200.56999999999999</ele>
        <time>2025-05-19T15:55:58Z</time>
      </trkpt>
      <trkpt lat="45.959767978638411" lon="8.621516972780228">
        <ele>200.09</ele>
        <time>2025-05-19T15:55:59Z</time>
      </trkpt>
      <trkpt lat="45.959877027198672" lon="8.621585033833981">
        <ele>199.61000000000001</ele>
        <time>2025-05-19T15:56:00Z</time>
      </trkpt>
      <trkpt lat="45.959994038566947" lon="8.621642030775547">
        <ele>199.13</ele>
        <time>2025-05-19T15:56:01Z</time>
      </trkpt>
      <trkpt lat="45.960117001086473" lon="8.621673965826631">
        <ele>199.13</ele>
        <time>2025-05-19T15:56:02Z</time>
      </trkpt>
      <trkpt lat="45.961572015658021" lon="8.621929027140141">
        <ele>200.56999999999999</ele>
        <time>2025-05-19T15:56:14Z</time>
      </trkpt>
      <trkpt lat="45.962269976735115" lon="8.62210001796484">
        <ele>201.05000000000001</ele>
        <time>2025-05-19T15:56:19Z</time>
      </trkpt>
      <trkpt lat="45.962286991998553" lon="8.622106974944472">
        <ele>201.53</ele>
        <time>2025-05-19T15:56:20Z</time>
      </trkpt>
      <trkpt lat="45.963724991306663" lon="8.622693037614226">
        <ele>201.05000000000001</ele>
        <time>2025-05-19T15:56:32Z</time>
      </trkpt>
      <trkpt lat="45.965136000886559" lon="8.623320003971458">
        <ele>201.53</ele>
        <time>2025-05-19T15:56:42Z</time>
      </trkpt>
      <trkpt lat="45.966294966638088" lon="8.62412097863853">
        <ele>202.97999999999999</ele>
        <time>2025-05-19T15:56:50Z</time>
      </trkpt>
      <trkpt lat="45.967311020940542" lon="8.62504499964416">
        <ele>204.41999999999999</ele>
        <time>2025-05-19T15:56:58Z</time>
      </trkpt>
      <trkpt lat="45.967961037531495" lon="8.625900037586689">
        <ele>202.97999999999999</ele>
        <time>2025-05-19T15:57:04Z</time>
      </trkpt>
      <trkpt lat="45.968066984787583" lon="8.626039009541273">
        <ele>202.49000000000001</ele>
        <time>2025-05-19T15:57:05Z</time>
      </trkpt>
      <trkpt lat="45.968192964792252" lon="8.626144034788013">
        <ele>202.00999999999999</ele>
        <time>2025-05-19T15:57:06Z</time>
      </trkpt>
      <trkpt lat="45.968326991423965" lon="8.626223998144269">
        <ele>202.00999999999999</ele>
        <time>2025-05-19T15:57:07Z</time>
      </trkpt>
      <trkpt lat="45.968464035540819" lon="8.626305973157287">
        <ele>201.53</ele>
        <time>2025-05-19T15:57:08Z</time>
      </trkpt>
      <trkpt lat="45.968605019152164" lon="8.626375962048769">
        <ele>201.53</ele>
        <time>2025-05-19T15:57:09Z</time>
      </trkpt>
      <trkpt lat="45.969960959628224" lon="8.626906033605337">
        <ele>200.09</ele>
        <time>2025-05-19T15:57:18Z</time>
      </trkpt>
      <trkpt lat="45.970877017825842" lon="8.627338036894798">
        <ele>201.05000000000001</ele>
        <time>2025-05-19T15:57:24Z</time>
      </trkpt>
      <trkpt lat="45.972018968313932" lon="8.628265997394919">
        <ele>203.94</ele>
        <time>2025-05-19T15:57:32Z</time>
      </trkpt>
      <trkpt lat="45.972731010988355" lon="8.629279034212232">
        <ele>204.90000000000001</ele>
        <time>2025-05-19T15:57:39Z</time>
      </trkpt>
      <trkpt lat="45.972845004871488" lon="8.629393028095365">
        <ele>204.90000000000001</ele>
        <time>2025-05-19T15:57:40Z</time>
      </trkpt>
      <trkpt lat="45.972963022068143" lon="8.629510961472988">
        <ele>204.90000000000001</ele>
        <time>2025-05-19T15:57:41Z</time>
      </trkpt>
      <trkpt lat="45.973330987617373" lon="8.629837017506361">
        <ele>204.90000000000001</ele>
        <time>2025-05-19T15:57:44Z</time>
      </trkpt>
      <trkpt lat="45.974321980029345" lon="8.631031019613147">
        <ele>204.41999999999999</ele>
        <time>2025-05-19T15:57:52Z</time>
      </trkpt>
      <trkpt lat="45.975931975990534" lon="8.632870009168983">
        <ele>202.49000000000001</ele>
        <time>2025-05-19T15:58:05Z</time>
      </trkpt>
      <trkpt lat="45.976828001439571" lon="8.634250005707145">
        <ele>200.56999999999999</ele>
        <time>2025-05-19T15:58:14Z</time>
      </trkpt>
      <trkpt lat="45.977096976712346" lon="8.634623000398278">
        <ele>199.61000000000001</ele>
        <time>2025-05-19T15:58:17Z</time>
      </trkpt>
      <trkpt lat="45.977198984473944" lon="8.634731965139508">
        <ele>199.13</ele>
        <time>2025-05-19T15:58:18Z</time>
      </trkpt>
      <trkpt lat="45.977309038862586" lon="8.634830033406615">
        <ele>199.13</ele>
        <time>2025-05-19T15:58:19Z</time>
      </trkpt>
      <trkpt lat="45.9775569755584" lon="8.634984008967876">
        <ele>199.13</ele>
        <time>2025-05-19T15:58:21Z</time>
      </trkpt>
      <trkpt lat="45.978969996795058" lon="8.635894032195211">
        <ele>199.61000000000001</ele>
        <time>2025-05-19T15:58:32Z</time>
      </trkpt>
      <trkpt lat="45.97978999838233" lon="8.636718979105353">
        <ele>202.97999999999999</ele>
        <time>2025-05-19T15:58:40Z</time>
      </trkpt>
      <trkpt lat="45.981087014079094" lon="8.638084977865219">
        <ele>204.90000000000001</ele>
        <time>2025-05-19T15:58:52Z</time>
      </trkpt>
      <trkpt lat="45.982072977349162" lon="8.639231035485864">
        <ele>204.41999999999999</ele>
        <time>2025-05-19T15:59:01Z</time>
      </trkpt>
      <trkpt lat="45.98307503387332" lon="8.64046803675592">
        <ele>203.46000000000001</ele>
        <time>2025-05-19T15:59:11Z</time>
      </trkpt>
      <trkpt lat="45.983182992786169" lon="8.640527967363596">
        <ele>203.46000000000001</ele>
        <time>2025-05-19T15:59:12Z</time>
      </trkpt>
      <trkpt lat="45.983301009982824" lon="8.640532996505499">
        <ele>202.97999999999999</ele>
        <time>2025-05-19T15:59:13Z</time>
      </trkpt>
      <trkpt lat="45.983550036326051" lon="8.640532996505499">
        <ele>202.97999999999999</ele>
        <time>2025-05-19T15:59:15Z</time>
      </trkpt>
      <trkpt lat="45.983676016330719" lon="8.640532996505499">
        <ele>202.97999999999999</ele>
        <time>2025-05-19T15:59:16Z</time>
      </trkpt>
      <trkpt lat="45.983800990507007" lon="8.640532996505499">
        <ele>202.97999999999999</ele>
        <time>2025-05-19T15:59:17Z</time>
      </trkpt>
      <trkpt lat="45.984518984332681" lon="8.640568032860756">
        <ele>201.53</ele>
        <time>2025-05-19T15:59:23Z</time>
      </trkpt>
      <trkpt lat="45.984637001529336" lon="8.640601979568601">
        <ele>201.53</ele>
        <time>2025-05-19T15:59:24Z</time>
      </trkpt>
      <trkpt lat="45.984761975705624" lon="8.640673980116844">
        <ele>201.53</ele>
        <time>2025-05-19T15:59:25Z</time>
      </trkpt>
      <trkpt lat="45.985972993075848" lon="8.641547961160541">
        <ele>202.00999999999999</ele>
        <time>2025-05-19T15:59:35Z</time>
      </trkpt>
      <trkpt lat="45.986994998529553" lon="8.642468964681029">
        <ele>202.49000000000001</ele>
        <time>2025-05-19T15:59:44Z</time>
      </trkpt>
      <trkpt lat="45.987965036183596" lon="8.643475966528058">
        <ele>202.49000000000001</ele>
        <time>2025-05-19T15:59:53Z</time>
      </trkpt>
      <trkpt lat="45.988069977611303" lon="8.643587026745081">
        <ele>202.49000000000001</ele>
        <time>2025-05-19T15:59:54Z</time>
      </trkpt>
      <trkpt lat="45.988802975043654" lon="8.644481962546706">
        <ele>201.53</ele>
        <time>2025-05-19T16:00:01Z</time>
      </trkpt>
      <trkpt lat="45.98890196532011" lon="8.644610038027167">
        <ele>201.05000000000001</ele>
        <time>2025-05-19T16:00:02Z</time>
      </trkpt>
      <trkpt lat="45.989833027124405" lon="8.645850978791714">
        <ele>199.13</ele>
        <time>2025-05-19T16:00:13Z</time>
      </trkpt>
      <trkpt lat="45.990503998473287" lon="8.646876001730561">
        <ele>197.21000000000001</ele>
        <time>2025-05-19T16:00:23Z</time>
      </trkpt>
      <trkpt lat="45.991102969273925" lon="8.648339984938502">
        <ele>195.77000000000001</ele>
        <time>2025-05-19T16:00:33Z</time>
      </trkpt>
      <trkpt lat="45.991754997521639" lon="8.649843027815223">
        <ele>196.25</ele>
        <time>2025-05-19T16:00:43Z</time>
      </trkpt>
      <trkpt lat="45.991832027211785" lon="8.649974958971143">
        <ele>195.77000000000001</ele>
        <time>2025-05-19T16:00:44Z</time>
      </trkpt>
      <trkpt lat="45.991917019709945" lon="8.650103034451604">
        <ele>195.77000000000001</ele>
        <time>2025-05-19T16:00:45Z</time>
      </trkpt>
      <trkpt lat="45.992810027673841" lon="8.651095032691956">
        <ele>195.77000000000001</ele>
        <time>2025-05-19T16:00:54Z</time>
      </trkpt>
      <trkpt lat="45.993601027876139" lon="8.65192299708724">
        <ele>195.28</ele>
        <time>2025-05-19T16:01:02Z</time>
      </trkpt>
      <trkpt lat="45.993892969563603" lon="8.65224402397871">
        <ele>194.80000000000001</ele>
        <time>2025-05-19T16:01:05Z</time>
      </trkpt>
      <trkpt lat="45.99399296566844" lon="8.65235298871994">
        <ele>194.80000000000001</ele>
        <time>2025-05-19T16:01:06Z</time>
      </trkpt>
      <trkpt lat="45.995271038264036" lon="8.653738014400005">
        <ele>196.72999999999999</ele>
        <time>2025-05-19T16:01:19Z</time>
      </trkpt>
      <trkpt lat="45.996221965178847" lon="8.65452297963202">
        <ele>195.77000000000001</ele>
        <time>2025-05-19T16:01:28Z</time>
      </trkpt>
      <trkpt lat="45.997577989473939" lon="8.655584966763854">
        <ele>194.31999999999999</ele>
        <time>2025-05-19T16:01:39Z</time>
      </trkpt>
      <trkpt lat="45.998755982145667" lon="8.656075978651643">
        <ele>194.80000000000001</ele>
        <time>2025-05-19T16:01:48Z</time>
      </trkpt>
      <trkpt lat="46.000060038641095" lon="8.656474035233259">
        <ele>195.28</ele>
        <time>2025-05-19T16:01:58Z</time>
      </trkpt>
      <trkpt lat="46.001265021041036" lon="8.657093960791826">
        <ele>196.72999999999999</ele>
        <time>2025-05-19T16:02:07Z</time>
      </trkpt>
      <trkpt lat="46.002480983734131" lon="8.657896025106311">
        <ele>197.21000000000001</ele>
        <time>2025-05-19T16:02:17Z</time>
      </trkpt>
      <trkpt lat="46.00303603336215" lon="8.658229038119316">
        <ele>197.69</ele>
        <time>2025-05-19T16:02:22Z</time>
      </trkpt>
      <trkpt lat="46.004220983013511" lon="8.658723989501596">
        <ele>200.09</ele>
        <time>2025-05-19T16:02:32Z</time>
      </trkpt>
      <trkpt lat="46.004334976896644" lon="8.658764977008104">
        <ele>200.56999999999999</ele>
        <time>2025-05-19T16:02:33Z</time>
      </trkpt>
      <trkpt lat="46.005452033132315" lon="8.659524964168668">
        <ele>202.00999999999999</ele>
        <time>2025-05-19T16:02:43Z</time>
      </trkpt>
      <trkpt lat="46.00668802857399" lon="8.660701029002667">
        <ele>201.53</ele>
        <time>2025-05-19T16:02:55Z</time>
      </trkpt>
      <trkpt lat="46.007608026266098" lon="8.661555983126164">
        <ele>201.05000000000001</ele>
        <time>2025-05-19T16:03:04Z</time>
      </trkpt>
      <trkpt lat="46.007695030421019" lon="8.661681963130832">
        <ele>201.05000000000001</ele>
        <time>2025-05-19T16:03:05Z</time>
      </trkpt>
      <trkpt lat="46.007772982120514" lon="8.661825964227319">
        <ele>201.53</ele>
        <time>2025-05-19T16:03:06Z</time>
      </trkpt>
      <trkpt lat="46.00784900598228" lon="8.661968959495425">
        <ele>202.00999999999999</ele>
        <time>2025-05-19T16:03:07Z</time>
      </trkpt>
      <trkpt lat="46.007925029844046" lon="8.662109021097422">
        <ele>202.49000000000001</ele>
        <time>2025-05-19T16:03:08Z</time>
      </trkpt>
      <trkpt lat="46.008232980966568" lon="8.662720983847976">
        <ele>202.97999999999999</ele>
        <time>2025-05-19T16:03:12Z</time>
      </trkpt>
      <trkpt lat="46.008331971243024" lon="8.662866996601224">
        <ele>203.46000000000001</ele>
        <time>2025-05-19T16:03:13Z</time>
      </trkpt>
      <trkpt lat="46.008455017581582" lon="8.662999011576176">
        <ele>203.46000000000001</ele>
        <time>2025-05-19T16:03:14Z</time>
      </trkpt>
      <trkpt lat="46.009008977562189" lon="8.663474014028907">
        <ele>204.90000000000001</ele>
        <time>2025-05-19T16:03:18Z</time>
      </trkpt>
      <trkpt lat="46.009141998365521" lon="8.663580967113376">
        <ele>205.86000000000001</ele>
        <time>2025-05-19T16:03:19Z</time>
      </trkpt>
      <trkpt lat="46.00991397164762" lon="8.664239030331373">
        <ele>209.69999999999999</ele>
        <time>2025-05-19T16:03:26Z</time>
      </trkpt>
      <trkpt lat="46.009989995509386" lon="8.664397029206157">
        <ele>210.19</ele>
        <time>2025-05-19T16:03:27Z</time>
      </trkpt>
      <trkpt lat="46.010070964694023" lon="8.664563996717334">
        <ele>210.66999999999999</ele>
        <time>2025-05-19T16:03:28Z</time>
      </trkpt>
      <trkpt lat="46.010411018505692" lon="8.665266986936331">
        <ele>212.59</ele>
        <time>2025-05-19T16:03:32Z</time>
      </trkpt>
      <trkpt lat="46.010696003213525" lon="8.665739977732301">
        <ele>213.55000000000001</ele>
        <time>2025-05-19T16:03:35Z</time>
      </trkpt>
      <trkpt lat="46.010802034288645" lon="8.665885990485549">
        <ele>213.55000000000001</ele>
        <time>2025-05-19T16:03:36Z</time>
      </trkpt>
      <trkpt lat="46.011761007830501" lon="8.667021989822388">
        <ele>215.47</ele>
        <time>2025-05-19T16:03:45Z</time>
      </trkpt>
      <trkpt lat="46.012242967262864" lon="8.667623978108168">
        <ele>213.55000000000001</ele>
        <time>2025-05-19T16:03:50Z</time>
      </trkpt>
      <trkpt lat="46.012309016659856" lon="8.667773008346558">
        <ele>213.55000000000001</ele>
        <time>2025-05-19T16:03:51Z</time>
      </trkpt>
      <trkpt lat="46.012428961694241" lon="8.668115995824337">
        <ele>213.06999999999999</ele>
        <time>2025-05-19T16:03:53Z</time>
      </trkpt>
      <trkpt lat="46.012494005262852" lon="8.668255973607302">
        <ele>213.06999999999999</ele>
        <time>2025-05-19T16:03:54Z</time>
      </trkpt>
      <trkpt lat="46.012595007196069" lon="8.668382959440351">
        <ele>212.59</ele>
        <time>2025-05-19T16:03:55Z</time>
      </trkpt>
      <trkpt lat="46.012716963887215" lon="8.668535007163882">
        <ele>212.59</ele>
        <time>2025-05-19T16:03:56Z</time>
      </trkpt>
      <trkpt lat="46.012819977477193" lon="8.668612036854029">
        <ele>212.59</ele>
        <time>2025-05-19T16:03:57Z</time>
      </trkpt>
      <trkpt lat="46.013066992163658" lon="8.668819991871715">
        <ele>212.59</ele>
        <time>2025-05-19T16:03:59Z</time>
      </trkpt>
      <trkpt lat="46.013187021017075" lon="8.668941026553512">
        <ele>213.06999999999999</ele>
        <time>2025-05-19T16:04:00Z</time>
      </trkpt>
      <trkpt lat="46.013432024046779" lon="8.669186029583216">
        <ele>213.06999999999999</ele>
        <time>2025-05-19T16:04:02Z</time>
      </trkpt>
      <trkpt lat="46.014032000675797" lon="8.669806038960815">
        <ele>214.03</ele>
        <time>2025-05-19T16:04:07Z</time>
      </trkpt>
      <trkpt lat="46.01414498873055" lon="8.669908968731761">
        <ele>214.50999999999999</ele>
        <time>2025-05-19T16:04:08Z</time>
      </trkpt>
      <trkpt lat="46.014282032847404" lon="8.670007959008217">
        <ele>214.99000000000001</ele>
        <time>2025-05-19T16:04:09Z</time>
      </trkpt>
      <trkpt lat="46.014421004801989" lon="8.67005598731339">
        <ele>215.47</ele>
        <time>2025-05-19T16:04:10Z</time>
      </trkpt>
      <trkpt lat="46.014556037262082" lon="8.670102003961802">
        <ele>215.94999999999999</ele>
        <time>2025-05-19T16:04:11Z</time>
      </trkpt>
      <trkpt lat="46.014942023903131" lon="8.670235024765134">
        <ele>217.40000000000001</ele>
        <time>2025-05-19T16:04:14Z</time>
      </trkpt>
      <trkpt lat="46.015062974765897" lon="8.670295039191842">
        <ele>217.40000000000001</ele>
        <time>2025-05-19T16:04:15Z</time>
      </trkpt>
      <trkpt lat="46.016067964956164" lon="8.670939020812511">
        <ele>219.80000000000001</ele>
        <time>2025-05-19T16:04:23Z</time>
      </trkpt>
      <trkpt lat="46.016641035676003" lon="8.67140999995172">
        <ele>219.31999999999999</ele>
        <time>2025-05-19T16:04:28Z</time>
      </trkpt>
      <trkpt lat="46.016748994588852" lon="8.671446964144707">
        <ele>219.31999999999999</ele>
        <time>2025-05-19T16:04:29Z</time>
      </trkpt>
      <trkpt lat="46.017557010054588" lon="8.67170998826623">
        <ele>220.28</ele>
        <time>2025-05-19T16:04:36Z</time>
      </trkpt>
      <trkpt lat="46.017675027251244" lon="8.671745024621487">
        <ele>220.75999999999999</ele>
        <time>2025-05-19T16:04:37Z</time>
      </trkpt>
      <trkpt lat="46.018027989193797" lon="8.671850971877575">
        <ele>220.75999999999999</ele>
        <time>2025-05-19T16:04:40Z</time>
      </trkpt>
      <trkpt lat="46.018149023875594" lon="8.671893971040845">
        <ele>220.75999999999999</ele>
        <time>2025-05-19T16:04:41Z</time>
      </trkpt>
      <trkpt lat="46.018376005813479" lon="8.672000002115965">
        <ele>221.24000000000001</ele>
        <time>2025-05-19T16:04:43Z</time>
      </trkpt>
      <trkpt lat="46.018496034666896" lon="8.672079965472221">
        <ele>221.24000000000001</ele>
        <time>2025-05-19T16:04:44Z</time>
      </trkpt>
      <trkpt lat="46.018609022721648" lon="8.672179039567709">
        <ele>221.72</ele>
        <time>2025-05-19T16:04:45Z</time>
      </trkpt>
      <trkpt lat="46.019427012652159" lon="8.673088978976011">
        <ele>223.63999999999999</ele>
        <time>2025-05-19T16:04:53Z</time>
      </trkpt>
      <trkpt lat="46.01951502263546" lon="8.673243038356304">
        <ele>223.63999999999999</ele>
        <time>2025-05-19T16:04:54Z</time>
      </trkpt>
      <trkpt lat="46.020500985905528" lon="8.674885975196958">
        <ele>226.05000000000001</ele>
        <time>2025-05-19T16:05:04Z</time>
      </trkpt>
      <trkpt lat="46.021494995802641" lon="8.67673602886498">
        <ele>231.81</ele>
        <time>2025-05-19T16:05:15Z</time>
      </trkpt>
      <trkpt lat="46.021930016577244" lon="8.677657032385469">
        <ele>234.22</ele>
        <time>2025-05-19T16:05:22Z</time>
      </trkpt>
      <trkpt lat="46.022207960486412" lon="8.678432023152709">
        <ele>236.13999999999999</ele>
        <time>2025-05-19T16:05:28Z</time>
      </trkpt>
      <trkpt lat="46.022258000448346" lon="8.678568983450532">
        <ele>236.62</ele>
        <time>2025-05-19T16:05:29Z</time>
      </trkpt>
      <trkpt lat="46.02230996824801" lon="8.678707033395767">
        <ele>236.62</ele>
        <time>2025-05-19T16:05:30Z</time>
      </trkpt>
      <trkpt lat="46.022504009306431" lon="8.679267028346658">
        <ele>237.09999999999999</ele>
        <time>2025-05-19T16:05:34Z</time>
      </trkpt>
      <trkpt lat="46.022765021771193" lon="8.680503023788333">
        <ele>237.09999999999999</ele>
        <time>2025-05-19T16:05:43Z</time>
      </trkpt>
      <trkpt lat="46.022852025926113" lon="8.680950030684471">
        <ele>236.62</ele>
        <time>2025-05-19T16:05:47Z</time>
      </trkpt>
      <trkpt lat="46.022872980684042" lon="8.681054972112179">
        <ele>237.09999999999999</ele>
        <time>2025-05-19T16:05:48Z</time>
      </trkpt>
      <trkpt lat="46.022923020645976" lon="8.681312967091799">
        <ele>237.09999999999999</ele>
        <time>2025-05-19T16:05:52Z</time>
      </trkpt>
      <trkpt lat="46.022938024252653" lon="8.681393014267087">
        <ele>237.09999999999999</ele>
        <time>2025-05-19T16:05:53Z</time>
      </trkpt>
      <trkpt lat="46.022955039516091" lon="8.681484963744879">
        <ele>237.09999999999999</ele>
        <time>2025-05-19T16:05:54Z</time>
      </trkpt>
      <trkpt lat="46.022973982617259" lon="8.681583032011986">
        <ele>237.09999999999999</ele>
        <time>2025-05-19T16:05:55Z</time>
      </trkpt>
      <trkpt lat="46.02299502119422" lon="8.681694008409977">
        <ele>237.09999999999999</ele>
        <time>2025-05-19T16:05:56Z</time>
      </trkpt>
      <trkpt lat="46.02301899343729" lon="8.681824011728168">
        <ele>237.09999999999999</ele>
        <time>2025-05-19T16:05:57Z</time>
      </trkpt>
      <trkpt lat="46.023045983165503" lon="8.681970024481416">
        <ele>237.09999999999999</ele>
        <time>2025-05-19T16:05:58Z</time>
      </trkpt>
      <trkpt lat="46.023141033947468" lon="8.682622974738479">
        <ele>236.62</ele>
        <time>2025-05-19T16:06:02Z</time>
      </trkpt>
      <trkpt lat="46.023133993148804" lon="8.682794971391559">
        <ele>236.62</ele>
        <time>2025-05-19T16:06:03Z</time>
      </trkpt>
      <trkpt lat="46.023126030340791" lon="8.682977026328445">
        <ele>237.09999999999999</ele>
        <time>2025-05-19T16:06:04Z</time>
      </trkpt>
      <trkpt lat="46.023220997303724" lon="8.684544023126364">
        <ele>236.62</ele>
        <time>2025-05-19T16:06:14Z</time>
      </trkpt>
      <trkpt lat="46.023186966776848" lon="8.685584971681237">
        <ele>235.18000000000001</ele>
        <time>2025-05-19T16:06:23Z</time>
      </trkpt>
      <trkpt lat="46.023173974826932" lon="8.686959017068148">
        <ele>231.81</ele>
        <time>2025-05-19T16:06:34Z</time>
      </trkpt>
      <trkpt lat="46.023337002843618" lon="8.6882100161165">
        <ele>228.93000000000001</ele>
        <time>2025-05-19T16:06:44Z</time>
      </trkpt>
      <trkpt lat="46.023381007835269" lon="8.688532970845699">
        <ele>228.44999999999999</ele>
        <time>2025-05-19T16:06:47Z</time>
      </trkpt>
      <trkpt lat="46.023402968421578" lon="8.689567968249321">
        <ele>224.61000000000001</ele>
        <time>2025-05-19T16:06:57Z</time>
      </trkpt>
      <trkpt lat="46.02342501282692" lon="8.689924031496048">
        <ele>223.63999999999999</ele>
        <time>2025-05-19T16:07:00Z</time>
      </trkpt>
      <trkpt lat="46.023435993120074" lon="8.690044982358813">
        <ele>223.16</ele>
        <time>2025-05-19T16:07:01Z</time>
      </trkpt>
      <trkpt lat="46.023446973413229" lon="8.690172974020243">
        <ele>223.16</ele>
        <time>2025-05-19T16:07:02Z</time>
      </trkpt>
      <trkpt lat="46.023458037525415" lon="8.690298032015562">
        <ele>223.16</ele>
        <time>2025-05-19T16:07:03Z</time>
      </trkpt>
      <trkpt lat="46.02346901781857" lon="8.690426023676992">
        <ele>223.16</ele>
        <time>2025-05-19T16:07:04Z</time>
      </trkpt>
      <trkpt lat="46.023482009768486" lon="8.690563989803195">
        <ele>223.16</ele>
        <time>2025-05-19T16:07:05Z</time>
      </trkpt>
      <trkpt lat="46.023495001718402" lon="8.690708996728063">
        <ele>223.16</ele>
        <time>2025-05-19T16:07:06Z</time>
      </trkpt>
      <trkpt lat="46.023508999496698" lon="8.690858026966453">
        <ele>223.16</ele>
        <time>2025-05-19T16:07:07Z</time>
      </trkpt>
      <trkpt lat="46.023521991446614" lon="8.691008985042572">
        <ele>223.16</ele>
        <time>2025-05-19T16:07:08Z</time>
      </trkpt>
      <trkpt lat="46.023569013923407" lon="8.691521035507321">
        <ele>224.12</ele>
        <time>2025-05-19T16:07:12Z</time>
      </trkpt>
      <trkpt lat="46.023821979761124" lon="8.692707996815443">
        <ele>224.61000000000001</ele>
        <time>2025-05-19T16:07:22Z</time>
      </trkpt>
      <trkpt lat="46.023872019723058" lon="8.693093983456492">
        <ele>224.61000000000001</ele>
        <time>2025-05-19T16:07:25Z</time>
      </trkpt>
      <trkpt lat="46.023887023329735" lon="8.693214012309909">
        <ele>224.12</ele>
        <time>2025-05-19T16:07:26Z</time>
      </trkpt>
      <trkpt lat="46.023901021108031" lon="8.693332029506564">
        <ele>223.63999999999999</ele>
        <time>2025-05-19T16:07:27Z</time>
      </trkpt>
      <trkpt lat="46.023916024714708" lon="8.693460021167994">
        <ele>223.16</ele>
        <time>2025-05-19T16:07:28Z</time>
      </trkpt>
      <trkpt lat="46.023931028321385" lon="8.693586001172662">
        <ele>222.19999999999999</ele>
        <time>2025-05-19T16:07:29Z</time>
      </trkpt>
      <trkpt lat="46.023945026099682" lon="8.693699995055795">
        <ele>221.72</ele>
        <time>2025-05-19T16:07:30Z</time>
      </trkpt>
      <trkpt lat="46.023959023877978" lon="8.693809965625405">
        <ele>221.24000000000001</ele>
        <time>2025-05-19T16:07:31Z</time>
      </trkpt>
      <trkpt lat="46.023972015827894" lon="8.693924965336919">
        <ele>220.75999999999999</ele>
        <time>2025-05-19T16:07:32Z</time>
      </trkpt>
      <trkpt lat="46.023994982242584" lon="8.694042982533574">
        <ele>220.28</ele>
        <time>2025-05-19T16:07:33Z</time>
      </trkpt>
      <trkpt lat="46.024030018597841" lon="8.694148007780314">
        <ele>220.28</ele>
        <time>2025-05-19T16:07:34Z</time>
      </trkpt>
      <trkpt lat="46.024062959477305" lon="8.694246998056769">
        <ele>219.31999999999999</ele>
        <time>2025-05-19T16:07:35Z</time>
      </trkpt>
      <trkpt lat="46.02409397251904" lon="8.694340959191322">
        <ele>218.84</ele>
        <time>2025-05-19T16:07:36Z</time>
      </trkpt>
      <trkpt lat="46.024129008874297" lon="8.694445984438062">
        <ele>218.36000000000001</ele>
        <time>2025-05-19T16:07:37Z</time>
      </trkpt>
      <trkpt lat="46.024166978895664" lon="8.694557966664434">
        <ele>217.88</ele>
        <time>2025-05-19T16:07:38Z</time>
      </trkpt>
      <trkpt lat="46.024204026907682" lon="8.694671960547566">
        <ele>217.40000000000001</ele>
        <time>2025-05-19T16:07:39Z</time>
      </trkpt>
      <trkpt lat="46.024267980828881" lon="8.694904977455735">
        <ele>216.43000000000001</ele>
        <time>2025-05-19T16:07:41Z</time>
      </trkpt>
      <trkpt lat="46.024290025234222" lon="8.695002961903811">
        <ele>215.94999999999999</ele>
        <time>2025-05-19T16:07:42Z</time>
      </trkpt>
      <trkpt lat="46.024369988590479" lon="8.695419039577246">
        <ele>214.03</ele>
        <time>2025-05-19T16:07:50Z</time>
      </trkpt>
      <trkpt lat="46.024393038824201" lon="8.695563040673733">
        <ele>213.55000000000001</ele>
        <time>2025-05-19T16:07:52Z</time>
      </trkpt>
      <trkpt lat="46.024567969143391" lon="8.696493012830615">
        <ele>211.63</ele>
        <time>2025-05-19T16:07:59Z</time>
      </trkpt>
      <trkpt lat="46.024967031553388" lon="8.697907961905003">
        <ele>209.69999999999999</ele>
        <time>2025-05-19T16:08:08Z</time>
      </trkpt>
      <trkpt lat="46.025382019579411" lon="8.698832988739014">
        <ele>207.78</ele>
        <time>2025-05-19T16:08:14Z</time>
      </trkpt>
      <trkpt lat="46.025406997650862" lon="8.699019988998771">
        <ele>207.78</ele>
        <time>2025-05-19T16:08:15Z</time>
      </trkpt>
      <trkpt lat="46.025430969893932" lon="8.699209000915289">
        <ele>207.30000000000001</ele>
        <time>2025-05-19T16:08:16Z</time>
      </trkpt>
      <trkpt lat="46.025434993207455" lon="8.699409998953342">
        <ele>207.30000000000001</ele>
        <time>2025-05-19T16:08:17Z</time>
      </trkpt>
      <trkpt lat="46.0254240129143" lon="8.69961803779006">
        <ele>207.30000000000001</ele>
        <time>2025-05-19T16:08:18Z</time>
      </trkpt>
      <trkpt lat="46.025398029014468" lon="8.700608024373651">
        <ele>206.81999999999999</ele>
        <time>2025-05-19T16:08:23Z</time>
      </trkpt>
      <trkpt lat="46.025400962680578" lon="8.700750013813376">
        <ele>206.81999999999999</ele>
        <time>2025-05-19T16:08:24Z</time>
      </trkpt>
      <trkpt lat="46.025439016520977" lon="8.700874987989664">
        <ele>206.81999999999999</ele>
        <time>2025-05-19T16:08:25Z</time>
      </trkpt>
      <trkpt lat="46.025484027341008" lon="8.701022006571293">
        <ele>206.81999999999999</ele>
        <time>2025-05-19T16:08:26Z</time>
      </trkpt>
      <trkpt lat="46.025544963777065" lon="8.701128037646413">
        <ele>206.34</ele>
        <time>2025-05-19T16:08:27Z</time>
      </trkpt>
      <trkpt lat="46.025615036487579" lon="8.701251000165939">
        <ele>206.34</ele>
        <time>2025-05-19T16:08:28Z</time>
      </trkpt>
      <trkpt lat="46.025887029245496" lon="8.701749974861741">
        <ele>205.86000000000001</ele>
        <time>2025-05-19T16:08:34Z</time>
      </trkpt>
      <trkpt lat="46.025909995660186" lon="8.701792974025011">
        <ele>205.38</ele>
        <time>2025-05-19T16:08:42Z</time>
      </trkpt>
      <trkpt lat="46.025909995660186" lon="8.701792974025011">
        <ele>205.38</ele>
        <time>2025-05-19T16:09:06Z</time>
      </trkpt>
      <trkpt lat="46.025909995660186" lon="8.701792974025011">
        <ele>204.90000000000001</ele>
        <time>2025-05-19T16:09:56Z</time>
      </trkpt>
      <trkpt lat="46.025909995660186" lon="8.701792974025011">
        <ele>204.90000000000001</ele>
        <time>2025-05-19T16:10:54Z</time>
      </trkpt>
      <trkpt lat="46.025878982618451" lon="8.701956002041698">
        <ele>222.19999999999999</ele>
        <time>2025-05-19T16:12:03Z</time>
      </trkpt>
      <trkpt lat="46.025846963748336" lon="8.701937980949879">
        <ele>211.63</ele>
        <time>2025-05-19T16:12:27Z</time>
      </trkpt>
      <trkpt lat="46.025966992601752" lon="8.701894981786609">
        <ele>213.55000000000001</ele>
        <time>2025-05-19T16:12:39Z</time>
      </trkpt>
      <trkpt lat="46.025988031178713" lon="8.701933035627008">
        <ele>213.55000000000001</ele>
        <time>2025-05-19T16:12:40Z</time>
      </trkpt>
      <trkpt lat="46.026148963719606" lon="8.702140990644693">
        <ele>212.59</ele>
        <time>2025-05-19T16:12:43Z</time>
      </trkpt>
      <trkpt lat="46.026225993409753" lon="8.702221037819982">
        <ele>212.59</ele>
        <time>2025-05-19T16:12:44Z</time>
      </trkpt>
      <trkpt lat="46.026558000594378" lon="8.702565031126142">
        <ele>211.15000000000001</ele>
        <time>2025-05-19T16:12:48Z</time>
      </trkpt>
      <trkpt lat="46.026621032506227" lon="8.702630996704102">
        <ele>211.15000000000001</ele>
        <time>2025-05-19T16:12:49Z</time>
      </trkpt>
      <trkpt lat="46.026668976992369" lon="8.702739039435983">
        <ele>210.66999999999999</ele>
        <time>2025-05-19T16:12:50Z</time>
      </trkpt>
      <trkpt lat="46.026711976155639" lon="8.702871976420283">
        <ele>210.66999999999999</ele>
        <time>2025-05-19T16:12:51Z</time>
      </trkpt>
      <trkpt lat="46.026725973933935" lon="8.703020000830293">
        <ele>210.19</ele>
        <time>2025-05-19T16:12:52Z</time>
      </trkpt>
      <trkpt lat="46.026771990582347" lon="8.703879984095693">
        <ele>209.22</ele>
        <time>2025-05-19T16:12:57Z</time>
      </trkpt>
      <trkpt lat="46.02679998613894" lon="8.70402499102056">
        <ele>208.74000000000001</ele>
        <time>2025-05-19T16:12:58Z</time>
      </trkpt>
      <trkpt lat="46.026847008615732" lon="8.704163962975144">
        <ele>208.74000000000001</ele>
        <time>2025-05-19T16:12:59Z</time>
      </trkpt>
      <trkpt lat="46.026911968365312" lon="8.704295977950096">
        <ele>208.25999999999999</ele>
        <time>2025-05-19T16:13:00Z</time>
      </trkpt>
      <trkpt lat="46.027012970298529" lon="8.704402009025216">
        <ele>207.78</ele>
        <time>2025-05-19T16:13:01Z</time>
      </trkpt>
      <trkpt lat="46.02712101303041" lon="8.704516002908349">
        <ele>207.30000000000001</ele>
        <time>2025-05-19T16:13:02Z</time>
      </trkpt>
      <trkpt lat="46.027907989919186" lon="8.705374980345368">
        <ele>204.90000000000001</ele>
        <time>2025-05-19T16:13:09Z</time>
      </trkpt>
      <trkpt lat="46.028007986024022" lon="8.705519987270236">
        <ele>204.41999999999999</ele>
        <time>2025-05-19T16:13:10Z</time>
      </trkpt>
      <trkpt lat="46.028105970472097" lon="8.705674968659878">
        <ele>204.41999999999999</ele>
        <time>2025-05-19T16:13:11Z</time>
      </trkpt>
      <trkpt lat="46.028204960748553" lon="8.705831039696932">
        <ele>204.41999999999999</ele>
        <time>2025-05-19T16:13:12Z</time>
      </trkpt>
      <trkpt lat="46.028305040672421" lon="8.705988032743335">
        <ele>203.94</ele>
        <time>2025-05-19T16:13:13Z</time>
      </trkpt>
      <trkpt lat="46.028405036777258" lon="8.706144019961357">
        <ele>203.94</ele>
        <time>2025-05-19T16:13:14Z</time>
      </trkpt>
      <trkpt lat="46.029212968423963" lon="8.707355037331581">
        <ele>202.49000000000001</ele>
        <time>2025-05-19T16:13:22Z</time>
      </trkpt>
      <trkpt lat="46.02948596701026" lon="8.707819981500506">
        <ele>201.05000000000001</ele>
        <time>2025-05-19T16:13:25Z</time>
      </trkpt>
      <trkpt lat="46.029560985043645" lon="8.707953002303839">
        <ele>200.09</ele>
        <time>2025-05-19T16:13:26Z</time>
      </trkpt>
      <trkpt lat="46.029610019177198" lon="8.708160035312176">
        <ele>199.61000000000001</ele>
        <time>2025-05-19T16:13:27Z</time>
      </trkpt>
      <trkpt lat="46.029647989198565" lon="8.708336977288127">
        <ele>199.61000000000001</ele>
        <time>2025-05-19T16:13:28Z</time>
      </trkpt>
      <trkpt lat="46.02965502999723" lon="8.708520038053393">
        <ele>199.13</ele>
        <time>2025-05-19T16:13:29Z</time>
      </trkpt>
      <trkpt lat="46.029661986976862" lon="8.708705026656389">
        <ele>198.65000000000001</ele>
        <time>2025-05-19T16:13:30Z</time>
      </trkpt>
      <trkpt lat="46.029673973098397" lon="8.708882974460721">
        <ele>198.65000000000001</ele>
        <time>2025-05-19T16:13:31Z</time>
      </trkpt>
      <trkpt lat="46.029711021110415" lon="8.709090007469058">
        <ele>198.16999999999999</ele>
        <time>2025-05-19T16:13:32Z</time>
      </trkpt>
      <trkpt lat="46.030003968626261" lon="8.709740024060011">
        <ele>197.69</ele>
        <time>2025-05-19T16:13:36Z</time>
      </trkpt>
      <trkpt lat="46.03008896112442" lon="8.709909003227949">
        <ele>197.69</ele>
        <time>2025-05-19T16:13:37Z</time>
      </trkpt>
      <trkpt lat="46.030170014128089" lon="8.710072031244636">
        <ele>198.16999999999999</ele>
        <time>2025-05-19T16:13:38Z</time>
      </trkpt>
      <trkpt lat="46.030289959162474" lon="8.710203040391207">
        <ele>198.16999999999999</ele>
        <time>2025-05-19T16:13:39Z</time>
      </trkpt>
      <trkpt lat="46.030407976359129" lon="8.710288032889366">
        <ele>198.65000000000001</ele>
        <time>2025-05-19T16:13:40Z</time>
      </trkpt>
      <trkpt lat="46.030528005212545" lon="8.710375037044287">
        <ele>199.13</ele>
        <time>2025-05-19T16:13:41Z</time>
      </trkpt>
      <trkpt lat="46.030658008530736" lon="8.710438990965486">
        <ele>199.61000000000001</ele>
        <time>2025-05-19T16:13:42Z</time>
      </trkpt>
      <trkpt lat="46.030798992142081" lon="8.710479978471994">
        <ele>200.09</ele>
        <time>2025-05-19T16:13:43Z</time>
      </trkpt>
      <trkpt lat="46.032662037760019" lon="8.710892032831907">
        <ele>200.09</ele>
        <time>2025-05-19T16:13:55Z</time>
      </trkpt>
      <trkpt lat="46.032788017764688" lon="8.710925979539752">
        <ele>200.09</ele>
        <time>2025-05-19T16:13:56Z</time>
      </trkpt>
      <trkpt lat="46.032917015254498" lon="8.710928997024894">
        <ele>200.09</ele>
        <time>2025-05-19T16:13:57Z</time>
      </trkpt>
      <trkpt lat="46.034068018198013" lon="8.710810979828239">
        <ele>201.05000000000001</ele>
        <time>2025-05-19T16:14:05Z</time>
      </trkpt>
      <trkpt lat="46.035009976476431" lon="8.710467992350459">
        <ele>203.46000000000001</ele>
        <time>2025-05-19T16:14:13Z</time>
      </trkpt>
      <trkpt lat="46.03513796813786" lon="8.710442008450627">
        <ele>202.97999999999999</ele>
        <time>2025-05-19T16:14:14Z</time>
      </trkpt>
      <trkpt lat="46.035268977284431" lon="8.710442008450627">
        <ele>202.49000000000001</ele>
        <time>2025-05-19T16:14:15Z</time>
      </trkpt>
      <trkpt lat="46.035913964733481" lon="8.710724981501699">
        <ele>202.00999999999999</ele>
        <time>2025-05-19T16:14:20Z</time>
      </trkpt>
      <trkpt lat="46.036031981930137" lon="8.710780972614884">
        <ele>202.00999999999999</ele>
        <time>2025-05-19T16:14:21Z</time>
      </trkpt>
      <trkpt lat="46.036152010783553" lon="8.710820032283664">
        <ele>202.00999999999999</ele>
        <time>2025-05-19T16:14:22Z</time>
      </trkpt>
      <trkpt lat="46.036299029365182" lon="8.710849033668637">
        <ele>202.00999999999999</ele>
        <time>2025-05-19T16:14:23Z</time>
      </trkpt>
      <trkpt lat="46.036399025470018" lon="8.710805028676987">
        <ele>201.53</ele>
        <time>2025-05-19T16:14:24Z</time>
      </trkpt>
      <trkpt lat="46.036515031009912" lon="8.71072799898684">
        <ele>202.00999999999999</ele>
        <time>2025-05-19T16:14:25Z</time>
      </trkpt>
      <trkpt lat="46.036591976881027" lon="8.710605958476663">
        <ele>202.00999999999999</ele>
        <time>2025-05-19T16:14:26Z</time>
      </trkpt>
      <trkpt lat="46.0366590321064" lon="8.710473021492362">
        <ele>202.49000000000001</ele>
        <time>2025-05-19T16:14:27Z</time>
      </trkpt>
      <trkpt lat="46.03670597076416" lon="8.710324997082353">
        <ele>202.49000000000001</ele>
        <time>2025-05-19T16:14:28Z</time>
      </trkpt>
      <trkpt lat="46.036752993240952" lon="8.710176972672343">
        <ele>202.49000000000001</ele>
        <time>2025-05-19T16:14:29Z</time>
      </trkpt>
      <trkpt lat="46.036801021546125" lon="8.710024002939463">
        <ele>202.49000000000001</ele>
        <time>2025-05-19T16:14:30Z</time>
      </trkpt>
      <trkpt lat="46.036856006830931" lon="8.709852006286383">
        <ele>202.00999999999999</ele>
        <time>2025-05-19T16:14:31Z</time>
      </trkpt>
      <trkpt lat="46.036910992115736" lon="8.709681015461683">
        <ele>202.00999999999999</ele>
        <time>2025-05-19T16:14:32Z</time>
      </trkpt>
      <trkpt lat="46.036989027634263" lon="8.709549000486732">
        <ele>202.00999999999999</ele>
        <time>2025-05-19T16:14:33Z</time>
      </trkpt>
      <trkpt lat="46.037085000425577" lon="8.709410028532147">
        <ele>202.00999999999999</ele>
        <time>2025-05-19T16:14:34Z</time>
      </trkpt>
      <trkpt lat="46.037181979045272" lon="8.709264015778899">
        <ele>202.00999999999999</ele>
        <time>2025-05-19T16:14:35Z</time>
      </trkpt>
      <trkpt lat="46.037272000685334" lon="8.709120014682412">
        <ele>202.00999999999999</ele>
        <time>2025-05-19T16:14:36Z</time>
      </trkpt>
      <trkpt lat="46.037371996790171" lon="8.708961009979248">
        <ele>202.00999999999999</ele>
        <time>2025-05-19T16:14:37Z</time>
      </trkpt>
      <trkpt lat="46.03741399012506" lon="8.708806028589606">
        <ele>202.00999999999999</ele>
        <time>2025-05-19T16:14:38Z</time>
      </trkpt>
      <trkpt lat="46.037461012601852" lon="8.708635959774256">
        <ele>202.00999999999999</ele>
        <time>2025-05-19T16:14:39Z</time>
      </trkpt>
      <trkpt lat="46.037672990933061" lon="8.707839008420706">
        <ele>202.49000000000001</ele>
        <time>2025-05-19T16:14:44Z</time>
      </trkpt>
      <trkpt lat="46.037720013409853" lon="8.707709005102515">
        <ele>202.49000000000001</ele>
        <time>2025-05-19T16:14:45Z</time>
      </trkpt>
      <trkpt lat="46.037780027836561" lon="8.707596017047763">
        <ele>202.49000000000001</ele>
        <time>2025-05-19T16:14:46Z</time>
      </trkpt>
      <trkpt lat="46.037840964272618" lon="8.707480011507869">
        <ele>202.97999999999999</ele>
        <time>2025-05-19T16:14:47Z</time>
      </trkpt>
      <trkpt lat="46.037920005619526" lon="8.707364005967975">
        <ele>202.97999999999999</ele>
        <time>2025-05-19T16:14:48Z</time>
      </trkpt>
      <trkpt lat="46.038011033087969" lon="8.707279013469815">
        <ele>203.46000000000001</ele>
        <time>2025-05-19T16:14:49Z</time>
      </trkpt>
      <trkpt lat="46.038100970908999" lon="8.707196032628417">
        <ele>203.94</ele>
        <time>2025-05-19T16:14:50Z</time>
      </trkpt>
      <trkpt lat="46.038195015862584" lon="8.707111040130258">
        <ele>204.41999999999999</ele>
        <time>2025-05-19T16:14:51Z</time>
      </trkpt>
      <trkpt lat="46.038295011967421" lon="8.707050019875169">
        <ele>204.41999999999999</ele>
        <time>2025-05-19T16:14:52Z</time>
      </trkpt>
      <trkpt lat="46.038398025557399" lon="8.706987993791699">
        <ele>204.90000000000001</ele>
        <time>2025-05-19T16:14:53Z</time>
      </trkpt>
      <trkpt lat="46.038499027490616" lon="8.70692596770823">
        <ele>204.90000000000001</ele>
        <time>2025-05-19T16:14:54Z</time>
      </trkpt>
      <trkpt lat="46.038598017767072" lon="8.706866037100554">
        <ele>205.38</ele>
        <time>2025-05-19T16:14:55Z</time>
      </trkpt>
      <trkpt lat="46.038719974458218" lon="8.706819014623761">
        <ele>205.38</ele>
        <time>2025-05-19T16:14:56Z</time>
      </trkpt>
      <trkpt lat="46.03896196000278" lon="8.706862013787031">
        <ele>205.38</ele>
        <time>2025-05-19T16:14:57Z</time>
      </trkpt>
      <trkpt lat="46.039073020219803" lon="8.706924039870501">
        <ele>205.38</ele>
        <time>2025-05-19T16:14:58Z</time>
      </trkpt>
      <trkpt lat="46.039073020219803" lon="8.706924039870501">
        <ele>205.86000000000001</ele>
        <time>2025-05-19T16:14:59Z</time>
      </trkpt>
      <trkpt lat="46.03941198438406" lon="8.707085978239775">
        <ele>206.81999999999999</ele>
        <time>2025-05-19T16:15:02Z</time>
      </trkpt>
      <trkpt lat="46.039523966610432" lon="8.707121014595032">
        <ele>207.30000000000001</ele>
        <time>2025-05-19T16:15:03Z</time>
      </trkpt>
      <trkpt lat="46.039634020999074" lon="8.707155967131257">
        <ele>207.78</ele>
        <time>2025-05-19T16:15:04Z</time>
      </trkpt>
      <trkpt lat="46.040966995060444" lon="8.706852039322257">
        <ele>206.81999999999999</ele>
        <time>2025-05-19T16:15:15Z</time>
      </trkpt>
      <trkpt lat="46.041088029742241" lon="8.706844998523593">
        <ele>206.34</ele>
        <time>2025-05-19T16:15:16Z</time>
      </trkpt>
      <trkpt lat="46.041325991973281" lon="8.706847010180354">
        <ele>205.86000000000001</ele>
        <time>2025-05-19T16:15:18Z</time>
      </trkpt>
      <trkpt lat="46.041449038311839" lon="8.706857990473509">
        <ele>205.86000000000001</ele>
        <time>2025-05-19T16:15:19Z</time>
      </trkpt>
      <trkpt lat="46.041681971400976" lon="8.706803005188704">
        <ele>204.41999999999999</ele>
        <time>2025-05-19T16:15:21Z</time>
      </trkpt>
      <trkpt lat="46.041807029396296" lon="8.706778027117252">
        <ele>203.94</ele>
        <time>2025-05-19T16:15:22Z</time>
      </trkpt>
      <trkpt lat="46.042761979624629" lon="8.706771992146969">
        <ele>204.41999999999999</ele>
        <time>2025-05-19T16:15:29Z</time>
      </trkpt>
      <trkpt lat="46.042895000427961" lon="8.706714995205402">
        <ele>204.41999999999999</ele>
        <time>2025-05-19T16:15:30Z</time>
      </trkpt>
      <trkpt lat="46.043144026771188" lon="8.706590021029115">
        <ele>205.38</ele>
        <time>2025-05-19T16:15:32Z</time>
      </trkpt>
      <trkpt lat="46.043260032311082" lon="8.706563031300902">
        <ele>205.38</ele>
        <time>2025-05-19T16:15:33Z</time>
      </trkpt>
      <trkpt lat="46.043384000658989" lon="8.706540986895561">
        <ele>205.38</ele>
        <time>2025-05-19T16:15:34Z</time>
      </trkpt>
      <trkpt lat="46.043530013412237" lon="8.706515002995729">
        <ele>205.86000000000001</ele>
        <time>2025-05-19T16:15:35Z</time>
      </trkpt>
      <trkpt lat="46.04362397454679" lon="8.706502011045814">
        <ele>206.34</ele>
        <time>2025-05-19T16:15:36Z</time>
      </trkpt>
      <trkpt lat="46.043741991743445" lon="8.706487007439137">
        <ele>206.81999999999999</ele>
        <time>2025-05-19T16:15:37Z</time>
      </trkpt>
      <trkpt lat="46.043867971748114" lon="8.706463035196066">
        <ele>206.81999999999999</ele>
        <time>2025-05-19T16:15:38Z</time>
      </trkpt>
      <trkpt lat="46.043985988944769" lon="8.706396985799074">
        <ele>206.81999999999999</ele>
        <time>2025-05-19T16:15:39Z</time>
      </trkpt>
      <trkpt lat="46.045099021866918" lon="8.705774964764714">
        <ele>204.41999999999999</ele>
        <time>2025-05-19T16:15:48Z</time>
      </trkpt>
      <trkpt lat="46.045346958562732" lon="8.705618977546692">
        <ele>204.41999999999999</ele>
        <time>2025-05-19T16:15:50Z</time>
      </trkpt>
      <trkpt lat="46.045583998784423" lon="8.705442035570741">
        <ele>203.94</ele>
        <time>2025-05-19T16:15:52Z</time>
      </trkpt>
      <trkpt lat="46.045697992667556" lon="8.705356037244201">
        <ele>203.46000000000001</ele>
        <time>2025-05-19T16:15:53Z</time>
      </trkpt>
      <trkpt lat="46.046649003401399" lon="8.705157972872257">
        <ele>203.94</ele>
        <time>2025-05-19T16:16:00Z</time>
      </trkpt>
      <trkpt lat="46.046779006719589" lon="8.705102987587452">
        <ele>203.94</ele>
        <time>2025-05-19T16:16:01Z</time>
      </trkpt>
      <trkpt lat="46.046899035573006" lon="8.70501397177577">
        <ele>203.46000000000001</ele>
        <time>2025-05-19T16:16:02Z</time>
      </trkpt>
      <trkpt lat="46.047135991975665" lon="8.70483904145658">
        <ele>203.46000000000001</ele>
        <time>2025-05-19T16:16:04Z</time>
      </trkpt>
      <trkpt lat="46.047220984473825" lon="8.704777015373111">
        <ele>203.46000000000001</ele>
        <time>2025-05-19T16:16:05Z</time>
      </trkpt>
      <trkpt lat="46.047500018030405" lon="8.70466997846961">
        <ele>203.46000000000001</ele>
        <time>2025-05-19T16:16:07Z</time>
      </trkpt>
      <trkpt lat="46.047629015520215" lon="8.70468900538981">
        <ele>203.46000000000001</ele>
        <time>2025-05-19T16:16:08Z</time>
      </trkpt>
      <trkpt lat="46.047763964161277" lon="8.704709960147739">
        <ele>202.97999999999999</ele>
        <time>2025-05-19T16:16:09Z</time>
      </trkpt>
      <trkpt lat="46.047892039641738" lon="8.704777015373111">
        <ele>202.97999999999999</ele>
        <time>2025-05-19T16:16:10Z</time>
      </trkpt>
      <trkpt lat="46.048035034909844" lon="8.704834012314677">
        <ele>202.97999999999999</ele>
        <time>2025-05-19T16:16:11Z</time>
      </trkpt>
      <trkpt lat="46.048180041834712" lon="8.70488204061985">
        <ele>202.49000000000001</ele>
        <time>2025-05-19T16:16:12Z</time>
      </trkpt>
      <trkpt lat="46.048334017395973" lon="8.704872988164425">
        <ele>202.00999999999999</ele>
        <time>2025-05-19T16:16:13Z</time>
      </trkpt>
      <trkpt lat="46.048493022099137" lon="8.70486100204289">
        <ele>202.00999999999999</ele>
        <time>2025-05-19T16:16:14Z</time>
      </trkpt>
      <trkpt lat="46.0489940084517" lon="8.704824037849903">
        <ele>202.00999999999999</ele>
        <time>2025-05-19T16:16:17Z</time>
      </trkpt>
      <trkpt lat="46.049162987619638" lon="8.704837029799819">
        <ele>202.00999999999999</ele>
        <time>2025-05-19T16:16:18Z</time>
      </trkpt>
      <trkpt lat="46.049331966787577" lon="8.70486100204289">
        <ele>202.00999999999999</ele>
        <time>2025-05-19T16:16:19Z</time>
      </trkpt>
      <trkpt lat="46.049500023946166" lon="8.704887991771102">
        <ele>201.53</ele>
        <time>2025-05-19T16:16:20Z</time>
      </trkpt>
      <trkpt lat="46.049646958708763" lon="8.705002991482616">
        <ele>202.00999999999999</ele>
        <time>2025-05-19T16:16:21Z</time>
      </trkpt>
      <trkpt lat="46.049802023917437" lon="8.705128971487284">
        <ele>202.49000000000001</ele>
        <time>2025-05-19T16:16:22Z</time>
      </trkpt>
      <trkpt lat="46.050193961709738" lon="8.705644961446524">
        <ele>202.00999999999999</ele>
        <time>2025-05-19T16:16:25Z</time>
      </trkpt>
      <trkpt lat="46.050328994169831" lon="8.705773036926985">
        <ele>201.53</ele>
        <time>2025-05-19T16:16:26Z</time>
      </trkpt>
      <trkpt lat="46.050653960555792" lon="8.70593598112464">
        <ele>201.53</ele>
        <time>2025-05-19T16:16:27Z</time>
      </trkpt>
      <trkpt lat="46.050653960555792" lon="8.70593598112464">
        <ele>202.00999999999999</ele>
        <time>2025-05-19T16:16:28Z</time>
      </trkpt>
      <trkpt lat="46.050809025764465" lon="8.705958025529981">
        <ele>202.00999999999999</ele>
        <time>2025-05-19T16:16:29Z</time>
      </trkpt>
      <trkpt lat="46.052128002047539" lon="8.7059570197016">
        <ele>203.94</ele>
        <time>2025-05-19T16:16:37Z</time>
      </trkpt>
      <trkpt lat="46.052263034507632" lon="8.7059570197016">
        <ele>203.94</ele>
        <time>2025-05-19T16:16:38Z</time>
      </trkpt>
      <trkpt lat="46.052445005625486" lon="8.706034971401095">
        <ele>203.94</ele>
        <time>2025-05-19T16:16:39Z</time>
      </trkpt>
      <trkpt lat="46.052601998671889" lon="8.706101020798087">
        <ele>204.41999999999999</ele>
        <time>2025-05-19T16:16:40Z</time>
      </trkpt>
      <trkpt lat="46.052763015031815" lon="8.706168998032808">
        <ele>204.41999999999999</ele>
        <time>2025-05-19T16:16:41Z</time>
      </trkpt>
      <trkpt lat="46.053386963903904" lon="8.706337977200747">
        <ele>204.41999999999999</ele>
        <time>2025-05-19T16:16:45Z</time>
      </trkpt>
      <trkpt lat="46.05352601967752" lon="8.706330014392734">
        <ele>204.41999999999999</ele>
        <time>2025-05-19T16:16:46Z</time>
      </trkpt>
      <trkpt lat="46.053653005510569" lon="8.706302018836141">
        <ele>204.41999999999999</ele>
        <time>2025-05-19T16:16:47Z</time>
      </trkpt>
      <trkpt lat="46.053737998008728" lon="8.706205040216446">
        <ele>204.41999999999999</ele>
        <time>2025-05-19T16:16:48Z</time>
      </trkpt>
      <trkpt lat="46.053829025477171" lon="8.706098003312945">
        <ele>204.90000000000001</ele>
        <time>2025-05-19T16:16:49Z</time>
      </trkpt>
      <trkpt lat="46.054119961336255" lon="8.705730037763715">
        <ele>204.90000000000001</ele>
        <time>2025-05-19T16:16:52Z</time>
      </trkpt>
      <trkpt lat="46.054346021264791" lon="8.70548402890563">
        <ele>205.38</ele>
        <time>2025-05-19T16:16:54Z</time>
      </trkpt>
      <trkpt lat="46.054464038461447" lon="8.705368023365736">
        <ele>204.90000000000001</ele>
        <time>2025-05-19T16:16:55Z</time>
      </trkpt>
      <trkpt lat="46.055795000866055" lon="8.704283991828561">
        <ele>205.86000000000001</ele>
        <time>2025-05-19T16:17:05Z</time>
      </trkpt>
      <trkpt lat="46.056194985285401" lon="8.703992972150445">
        <ele>206.34</ele>
        <time>2025-05-19T16:17:08Z</time>
      </trkpt>
      <trkpt lat="46.05631903745234" lon="8.70391895994544">
        <ele>206.34</ele>
        <time>2025-05-19T16:17:09Z</time>
      </trkpt>
      <trkpt lat="46.056468989700079" lon="8.703913008794189">
        <ele>206.81999999999999</ele>
        <time>2025-05-19T16:17:10Z</time>
      </trkpt>
      <trkpt lat="46.057442966848612" lon="8.703876966610551">
        <ele>207.78</ele>
        <time>2025-05-19T16:17:17Z</time>
      </trkpt>
      <trkpt lat="46.057572970166802" lon="8.703863974660635">
        <ele>208.25999999999999</ele>
        <time>2025-05-19T16:17:18Z</time>
      </trkpt>
      <trkpt lat="46.057694004848599" lon="8.703822987154126">
        <ele>208.74000000000001</ele>
        <time>2025-05-19T16:17:19Z</time>
      </trkpt>
      <trkpt lat="46.0578010417521" lon="8.703747969120741">
        <ele>208.74000000000001</ele>
        <time>2025-05-19T16:17:20Z</time>
      </trkpt>
      <trkpt lat="46.057906989008188" lon="8.703647973015904">
        <ele>209.22</ele>
        <time>2025-05-19T16:17:21Z</time>
      </trkpt>
      <trkpt lat="46.058014025911689" lon="8.703511012718082">
        <ele>209.22</ele>
        <time>2025-05-19T16:17:22Z</time>
      </trkpt>
      <trkpt lat="46.058090971782804" lon="8.70338000357151">
        <ele>209.69999999999999</ele>
        <time>2025-05-19T16:17:23Z</time>
      </trkpt>
      <trkpt lat="46.058540996164083" lon="8.702581040561199">
        <ele>209.22</ele>
        <time>2025-05-19T16:17:28Z</time>
      </trkpt>
      <trkpt lat="46.058612996712327" lon="8.702405020594597">
        <ele>209.22</ele>
        <time>2025-05-19T16:17:29Z</time>
      </trkpt>
      <trkpt lat="46.058679968118668" lon="8.70224098674953">
        <ele>209.22</ele>
        <time>2025-05-19T16:17:30Z</time>
      </trkpt>
      <trkpt lat="46.058736965060234" lon="8.702062033116818">
        <ele>209.69999999999999</ele>
        <time>2025-05-19T16:17:31Z</time>
      </trkpt>
      <trkpt lat="46.058774013072252" lon="8.701876038685441">
        <ele>209.69999999999999</ele>
        <time>2025-05-19T16:17:32Z</time>
      </trkpt>
      <trkpt lat="46.058871997520328" lon="8.700688993558288">
        <ele>209.22</ele>
        <time>2025-05-19T16:17:38Z</time>
      </trkpt>
      <trkpt lat="46.058896975591779" lon="8.700513979420066">
        <ele>209.22</ele>
        <time>2025-05-19T16:17:39Z</time>
      </trkpt>
      <trkpt lat="46.058940980583429" lon="8.700339971110225">
        <ele>209.22</ele>
        <time>2025-05-19T16:17:40Z</time>
      </trkpt>
      <trkpt lat="46.059272987768054" lon="8.699240013957024">
        <ele>210.19</ele>
        <time>2025-05-19T16:17:47Z</time>
      </trkpt>
      <trkpt lat="46.059471974149346" lon="8.698761994019151">
        <ele>211.15000000000001</ele>
        <time>2025-05-19T16:17:50Z</time>
      </trkpt>
      <trkpt lat="46.059570964425802" lon="8.698626961559057">
        <ele>211.63</ele>
        <time>2025-05-19T16:17:51Z</time>
      </trkpt>
      <trkpt lat="46.059671966359019" lon="8.698488995432854">
        <ele>212.59</ele>
        <time>2025-05-19T16:17:52Z</time>
      </trkpt>
      <trkpt lat="46.059791995212436" lon="8.698383970186114">
        <ele>213.06999999999999</ele>
        <time>2025-05-19T16:17:53Z</time>
      </trkpt>
      <trkpt lat="46.059912024065852" lon="8.698285985738039">
        <ele>213.55000000000001</ele>
        <time>2025-05-19T16:17:54Z</time>
      </trkpt>
      <trkpt lat="46.060159038752317" lon="8.698119018226862">
        <ele>214.99000000000001</ele>
        <time>2025-05-19T16:17:56Z</time>
      </trkpt>
      <trkpt lat="46.060286024585366" lon="8.698055986315012">
        <ele>215.47</ele>
        <time>2025-05-19T16:17:57Z</time>
      </trkpt>
      <trkpt lat="46.061020027846098" lon="8.697909973561764">
        <ele>221.72</ele>
        <time>2025-05-19T16:18:03Z</time>
      </trkpt>
      <trkpt lat="46.061404002830386" lon="8.697824981063604">
        <ele>228.44999999999999</ele>
        <time>2025-05-19T16:18:10Z</time>
      </trkpt>
      <trkpt lat="46.061430992558599" lon="8.697818024083972">
        <ele>229.41</ele>
        <time>2025-05-19T16:18:11Z</time>
      </trkpt>
      <trkpt lat="46.061483966186643" lon="8.697805032134056">
        <ele>229.88999999999999</ele>
        <time>2025-05-19T16:18:12Z</time>
      </trkpt>
      <trkpt lat="46.061575999483466" lon="8.697781981900334">
        <ele>230.84999999999999</ele>
        <time>2025-05-19T16:18:13Z</time>
      </trkpt>
      <trkpt lat="46.061612963676453" lon="8.697777958586812">
        <ele>231.81</ele>
        <time>2025-05-19T16:18:14Z</time>
      </trkpt>
      <trkpt lat="46.061696028336883" lon="8.69777100160718">
        <ele>231.81</ele>
        <time>2025-05-19T16:18:15Z</time>
      </trkpt>
      <trkpt lat="46.06218502856791" lon="8.697677040472627">
        <ele>232.30000000000001</ele>
        <time>2025-05-19T16:18:21Z</time>
      </trkpt>
      <trkpt lat="46.062259962782264" lon="8.697661031037569">
        <ele>232.30000000000001</ele>
        <time>2025-05-19T16:18:22Z</time>
      </trkpt>
      <trkpt lat="46.063078036531806" lon="8.697362970560789">
        <ele>231.81</ele>
        <time>2025-05-19T16:18:34Z</time>
      </trkpt>
      <trkpt lat="46.063150959089398" lon="8.697327012196183">
        <ele>230.84999999999999</ele>
        <time>2025-05-19T16:18:35Z</time>
      </trkpt>
      <trkpt lat="46.063221031799912" lon="8.697286024689674">
        <ele>229.88999999999999</ele>
        <time>2025-05-19T16:18:36Z</time>
      </trkpt>
      <trkpt lat="46.064115967601538" lon="8.696833988651633">
        <ele>224.12</ele>
        <time>2025-05-19T16:18:46Z</time>
      </trkpt>
      <trkpt lat="46.065097991377115" lon="8.696351023390889">
        <ele>222.19999999999999</ele>
        <time>2025-05-19T16:18:56Z</time>
      </trkpt>
      <trkpt lat="46.066607991233468" lon="8.695608973503113">
        <ele>215.94999999999999</ele>
        <time>2025-05-19T16:19:10Z</time>
      </trkpt>
      <trkpt lat="46.066842013970017" lon="8.695491962134838">
        <ele>214.99000000000001</ele>
        <time>2025-05-19T16:19:12Z</time>
      </trkpt>
      <trkpt lat="46.068217987194657" lon="8.694805987179279">
        <ele>213.06999999999999</ele>
        <time>2025-05-19T16:19:23Z</time>
      </trkpt>
      <trkpt lat="46.068344973027706" lon="8.694734992459416">
        <ele>212.59</ele>
        <time>2025-05-19T16:19:24Z</time>
      </trkpt>
      <trkpt lat="46.068472964689136" lon="8.694666009396315">
        <ele>212.11000000000001</ele>
        <time>2025-05-19T16:19:25Z</time>
      </trkpt>
      <trkpt lat="46.068601962178946" lon="8.694600965827704">
        <ele>211.63</ele>
        <time>2025-05-19T16:19:26Z</time>
      </trkpt>
      <trkpt lat="46.070081032812595" lon="8.693891018629074">
        <ele>204.41999999999999</ele>
        <time>2025-05-19T16:19:37Z</time>
      </trkpt>
      <trkpt lat="46.071504028514028" lon="8.693192973732948">
        <ele>203.94</ele>
        <time>2025-05-19T16:19:48Z</time>
      </trkpt>
      <trkpt lat="46.072171982377768" lon="8.6928949970752">
        <ele>203.94</ele>
        <time>2025-05-19T16:19:53Z</time>
      </trkpt>
      <trkpt lat="46.0723050031811" lon="8.692868007346988">
        <ele>203.94</ele>
        <time>2025-05-19T16:19:54Z</time>
      </trkpt>
      <trkpt lat="46.072451015934348" lon="8.692868007346988">
        <ele>203.94</ele>
        <time>2025-05-19T16:19:55Z</time>
      </trkpt>
      <trkpt lat="46.072596022859216" lon="8.692868007346988">
        <ele>203.94</ele>
        <time>2025-05-19T16:19:56Z</time>
      </trkpt>
      <trkpt lat="46.072741029784083" lon="8.692880999296904">
        <ele>203.94</ele>
        <time>2025-05-19T16:19:57Z</time>
      </trkpt>
      <trkpt lat="46.072886036708951" lon="8.6929140239954">
        <ele>203.94</ele>
        <time>2025-05-19T16:19:58Z</time>
      </trkpt>
      <trkpt lat="46.073030959814787" lon="8.692969009280205">
        <ele>203.94</ele>
        <time>2025-05-19T16:19:59Z</time>
      </trkpt>
      <trkpt lat="46.073614004999399" lon="8.693225998431444">
        <ele>203.94</ele>
        <time>2025-05-19T16:20:03Z</time>
      </trkpt>
      <trkpt lat="46.073757000267506" lon="8.693309985101223">
        <ele>203.46000000000001</ele>
        <time>2025-05-19T16:20:04Z</time>
      </trkpt>
      <trkpt lat="46.074780011549592" lon="8.694318998605013">
        <ele>203.46000000000001</ele>
        <time>2025-05-19T16:20:12Z</time>
      </trkpt>
      <trkpt lat="46.074900040403008" lon="8.694447996094823">
        <ele>203.46000000000001</ele>
        <time>2025-05-19T16:20:13Z</time>
      </trkpt>
      <trkpt lat="46.075029037892818" lon="8.694555032998323">
        <ele>203.46000000000001</ele>
        <time>2025-05-19T16:20:14Z</time>
      </trkpt>
      <trkpt lat="46.076092030853033" lon="8.695164984092116">
        <ele>205.38</ele>
        <time>2025-05-19T16:20:22Z</time>
      </trkpt>
      <trkpt lat="46.076205018907785" lon="8.695206977427006">
        <ele>205.38</ele>
        <time>2025-05-19T16:20:23Z</time>
      </trkpt>
      <trkpt lat="46.076308032497764" lon="8.695206977427006">
        <ele>205.86000000000001</ele>
        <time>2025-05-19T16:20:24Z</time>
      </trkpt>
      <trkpt lat="46.076402999460697" lon="8.695143023505807">
        <ele>206.34</ele>
        <time>2025-05-19T16:20:25Z</time>
      </trkpt>
      <trkpt lat="46.076456978917122" lon="8.695032969117165">
        <ele>206.34</ele>
        <time>2025-05-19T16:20:26Z</time>
      </trkpt>
      <trkpt lat="46.076498972252011" lon="8.694915035739541">
        <ele>206.34</ele>
        <time>2025-05-19T16:20:27Z</time>
      </trkpt>
      <trkpt lat="46.076551023870707" lon="8.694790983572602">
        <ele>206.34</ele>
        <time>2025-05-19T16:20:28Z</time>
      </trkpt>
      <trkpt lat="46.076606009155512" lon="8.694661986082792">
        <ele>206.81999999999999</ele>
        <time>2025-05-19T16:20:29Z</time>
      </trkpt>
      <trkpt lat="46.076670968905091" lon="8.694533994421363">
        <ele>206.81999999999999</ele>
        <time>2025-05-19T16:20:30Z</time>
      </trkpt>
      <trkpt lat="46.077212020754814" lon="8.693769983947277">
        <ele>207.30000000000001</ele>
        <time>2025-05-19T16:20:36Z</time>
      </trkpt>
      <trkpt lat="46.077278992161155" lon="8.693703012540937">
        <ele>206.81999999999999</ele>
        <time>2025-05-19T16:20:37Z</time>
      </trkpt>
      <trkpt lat="46.077350992709398" lon="8.693693038076162">
        <ele>207.30000000000001</ele>
        <time>2025-05-19T16:20:38Z</time>
      </trkpt>
      <trkpt lat="46.077432967722416" lon="8.693682979792357">
        <ele>207.30000000000001</ele>
        <time>2025-05-19T16:20:39Z</time>
      </trkpt>
      <trkpt lat="46.077501028776169" lon="8.693682979792357">
        <ele>207.30000000000001</ele>
        <time>2025-05-19T16:20:40Z</time>
      </trkpt>
      <trkpt lat="46.077577974647284" lon="8.693676022812724">
        <ele>207.30000000000001</ele>
        <time>2025-05-19T16:20:41Z</time>
      </trkpt>
      <trkpt lat="46.077659027650952" lon="8.693637968972325">
        <ele>206.81999999999999</ele>
        <time>2025-05-19T16:20:42Z</time>
      </trkpt>
      <trkpt lat="46.077744020149112" lon="8.693598993122578">
        <ele>206.81999999999999</ele>
        <time>2025-05-19T16:20:43Z</time>
      </trkpt>
      <trkpt lat="46.077842004597187" lon="8.693554988130927">
        <ele>207.30000000000001</ele>
        <time>2025-05-19T16:20:44Z</time>
      </trkpt>
      <trkpt lat="46.077936971560121" lon="8.693587007001042">
        <ele>207.30000000000001</ele>
        <time>2025-05-19T16:20:45Z</time>
      </trkpt>
      <trkpt lat="46.078038979321718" lon="8.693640986457467">
        <ele>207.78</ele>
        <time>2025-05-19T16:20:46Z</time>
      </trkpt>
      <trkpt lat="46.078133024275303" lon="8.693699995055795">
        <ele>207.78</ele>
        <time>2025-05-19T16:20:47Z</time>
      </trkpt>
      <trkpt lat="46.078222040086985" lon="8.693705024197698">
        <ele>207.78</ele>
        <time>2025-05-19T16:20:48Z</time>
      </trkpt>
      <trkpt lat="46.078310972079635" lon="8.693705024197698">
        <ele>207.78</ele>
        <time>2025-05-19T16:20:49Z</time>
      </trkpt>
      <trkpt lat="46.078366041183472" lon="8.693622965365648">
        <ele>207.78</ele>
        <time>2025-05-19T16:20:50Z</time>
      </trkpt>
      <trkpt lat="46.078426977619529" lon="8.693529004231095">
        <ele>207.78</ele>
        <time>2025-05-19T16:20:51Z</time>
      </trkpt>
      <trkpt lat="46.078493027016521" lon="8.693428002297878">
        <ele>208.25999999999999</ele>
        <time>2025-05-19T16:20:52Z</time>
      </trkpt>
      <trkpt lat="46.078561004251242" lon="8.693321971222758">
        <ele>208.25999999999999</ele>
        <time>2025-05-19T16:20:53Z</time>
      </trkpt>
      <trkpt lat="46.078640967607498" lon="8.693233039230108">
        <ele>208.25999999999999</ele>
        <time>2025-05-19T16:20:54Z</time>
      </trkpt>
      <trkpt lat="46.078741969540715" lon="8.693147040903568">
        <ele>208.74000000000001</ele>
        <time>2025-05-19T16:20:55Z</time>
      </trkpt>
      <trkpt lat="46.078826962038875" lon="8.693113010376692">
        <ele>208.74000000000001</ele>
        <time>2025-05-19T16:20:56Z</time>
      </trkpt>
      <trkpt lat="46.079904958605766" lon="8.692798018455505">
        <ele>210.66999999999999</ele>
        <time>2025-05-19T16:21:06Z</time>
      </trkpt>
      <trkpt lat="46.080015012994409" lon="8.692775974050164">
        <ele>210.66999999999999</ele>
        <time>2025-05-19T16:21:07Z</time>
      </trkpt>
      <trkpt lat="46.08012699522078" lon="8.692763987928629">
        <ele>210.66999999999999</ele>
        <time>2025-05-19T16:21:08Z</time>
      </trkpt>
      <trkpt lat="46.080241994932294" lon="8.692782009020448">
        <ele>210.66999999999999</ele>
        <time>2025-05-19T16:21:09Z</time>
      </trkpt>
      <trkpt lat="46.080712974071503" lon="8.692888962104917">
        <ele>210.66999999999999</ele>
        <time>2025-05-19T16:21:13Z</time>
      </trkpt>
      <trkpt lat="46.081204991787672" lon="8.692827019840479">
        <ele>210.66999999999999</ele>
        <time>2025-05-19T16:21:17Z</time>
      </trkpt>
      <trkpt lat="46.081344969570637" lon="8.692804975435138">
        <ele>210.66999999999999</ele>
        <time>2025-05-19T16:21:18Z</time>
      </trkpt>
      <trkpt lat="46.081486959010363" lon="8.692815033718944">
        <ele>210.66999999999999</ele>
        <time>2025-05-19T16:21:19Z</time>
      </trkpt>
      <trkpt lat="46.08221098780632" lon="8.693009996786714">
        <ele>210.66999999999999</ele>
        <time>2025-05-19T16:21:24Z</time>
      </trkpt>
      <trkpt lat="46.082341996952891" lon="8.6930469609797">
        <ele>210.66999999999999</ele>
        <time>2025-05-19T16:21:25Z</time>
      </trkpt>
      <trkpt lat="46.082465965300798" lon="8.693030029535294">
        <ele>210.66999999999999</ele>
        <time>2025-05-19T16:21:26Z</time>
      </trkpt>
      <trkpt lat="46.082593034952879" lon="8.69297998957336">
        <ele>210.66999999999999</ele>
        <time>2025-05-19T16:21:27Z</time>
      </trkpt>
      <trkpt lat="46.082721026614308" lon="8.692929027602077">
        <ele>210.66999999999999</ele>
        <time>2025-05-19T16:21:28Z</time>
      </trkpt>
      <trkpt lat="46.08429498039186" lon="8.692129980772734">
        <ele>209.22</ele>
        <time>2025-05-19T16:21:39Z</time>
      </trkpt>
      <trkpt lat="46.084730001166463" lon="8.691893024370074">
        <ele>209.69999999999999</ele>
        <time>2025-05-19T16:21:42Z</time>
      </trkpt>
      <trkpt lat="46.084854975342751" lon="8.691791016608477">
        <ele>210.19</ele>
        <time>2025-05-19T16:21:43Z</time>
      </trkpt>
      <trkpt lat="46.084975004196167" lon="8.691688003018498">
        <ele>210.19</ele>
        <time>2025-05-19T16:21:44Z</time>
      </trkpt>
      <trkpt lat="46.085093021392822" lon="8.691587001085281">
        <ele>209.69999999999999</ele>
        <time>2025-05-19T16:21:45Z</time>
      </trkpt>
      <trkpt lat="46.085210032761097" lon="8.691490022465587">
        <ele>209.69999999999999</ele>
        <time>2025-05-19T16:21:46Z</time>
      </trkpt>
      <trkpt lat="46.085334001109004" lon="8.691420033574104">
        <ele>209.22</ele>
        <time>2025-05-19T16:21:47Z</time>
      </trkpt>
      <trkpt lat="46.085456963628531" lon="8.691350966691971">
        <ele>209.22</ele>
        <time>2025-05-19T16:21:48Z</time>
      </trkpt>
      <trkpt lat="46.085580009967089" lon="8.691273014992476">
        <ele>209.22</ele>
        <time>2025-05-19T16:21:49Z</time>
      </trkpt>
      <trkpt lat="46.085700038820505" lon="8.69117695838213">
        <ele>209.22</ele>
        <time>2025-05-19T16:21:50Z</time>
      </trkpt>
      <trkpt lat="46.085818978026509" lon="8.691080985590816">
        <ele>209.22</ele>
        <time>2025-05-19T16:21:51Z</time>
      </trkpt>
      <trkpt lat="46.085935989394784" lon="8.690988030284643">
        <ele>209.22</ele>
        <time>2025-05-19T16:21:52Z</time>
      </trkpt>
      <trkpt lat="46.086065992712975" lon="8.690948970615864">
        <ele>209.22</ele>
        <time>2025-05-19T16:21:53Z</time>
      </trkpt>
      <trkpt lat="46.086197001859546" lon="8.69093899615109">
        <ele>209.69999999999999</ele>
        <time>2025-05-19T16:21:54Z</time>
      </trkpt>
      <trkpt lat="46.086332034319639" lon="8.690970009192824">
        <ele>209.22</ele>
        <time>2025-05-19T16:21:55Z</time>
      </trkpt>
      <trkpt lat="46.086470000445843" lon="8.69100202806294">
        <ele>209.22</ele>
        <time>2025-05-19T16:21:56Z</time>
      </trkpt>
      <trkpt lat="46.086741993203759" lon="8.691121973097324">
        <ele>209.22</ele>
        <time>2025-05-19T16:21:58Z</time>
      </trkpt>
      <trkpt lat="46.087296037003398" lon="8.691366976127029">
        <ele>209.22</ele>
        <time>2025-05-19T16:22:02Z</time>
      </trkpt>
      <trkpt lat="46.087440038099885" lon="8.691408969461918">
        <ele>209.22</ele>
        <time>2025-05-19T16:22:03Z</time>
      </trkpt>
      <trkpt lat="46.087889978662133" lon="8.691408969461918">
        <ele>209.22</ele>
        <time>2025-05-19T16:22:06Z</time>
      </trkpt>
      <trkpt lat="46.088043032214046" lon="8.691370999440551">
        <ele>209.69999999999999</ele>
        <time>2025-05-19T16:22:07Z</time>
      </trkpt>
      <trkpt lat="46.089284978806973" lon="8.691179975867271">
        <ele>208.74000000000001</ele>
        <time>2025-05-19T16:22:15Z</time>
      </trkpt>
      <trkpt lat="46.089875986799598" lon="8.691251976415515">
        <ele>209.69999999999999</ele>
        <time>2025-05-19T16:22:19Z</time>
      </trkpt>
      <trkpt lat="46.090878965333104" lon="8.691535033285618">
        <ele>211.63</ele>
        <time>2025-05-19T16:22:27Z</time>
      </trkpt>
      <trkpt lat="46.090979967266321" lon="8.691530004143715">
        <ele>211.63</ele>
        <time>2025-05-19T16:22:28Z</time>
      </trkpt>
      <trkpt lat="46.091072000563145" lon="8.691522041335702">
        <ele>211.63</ele>
        <time>2025-05-19T16:22:29Z</time>
      </trkpt>
      <trkpt lat="46.091145006939769" lon="8.691516006365418">
        <ele>211.63</ele>
        <time>2025-05-19T16:22:30Z</time>
      </trkpt>
      <trkpt lat="46.091222036629915" lon="8.691427996382117">
        <ele>211.63</ele>
        <time>2025-05-19T16:22:31Z</time>
      </trkpt>
      <trkpt lat="46.091294959187508" lon="8.691344009712338">
        <ele>211.63</ele>
        <time>2025-05-19T16:22:32Z</time>
      </trkpt>
      <trkpt lat="46.091411970555782" lon="8.691099006682634">
        <ele>211.63</ele>
        <time>2025-05-19T16:22:34Z</time>
      </trkpt>
      <trkpt lat="46.091472990810871" lon="8.690971015021205">
        <ele>211.63</ele>
        <time>2025-05-19T16:22:35Z</time>
      </trkpt>
      <trkpt lat="46.091535016894341" lon="8.690847968682647">
        <ele>212.11000000000001</ele>
        <time>2025-05-19T16:22:36Z</time>
      </trkpt>
      <trkpt lat="46.091622021049261" lon="8.690774962306023">
        <ele>212.11000000000001</ele>
        <time>2025-05-19T16:22:37Z</time>
      </trkpt>
      <trkpt lat="46.091718999668956" lon="8.690727017819881">
        <ele>212.11000000000001</ele>
        <time>2025-05-19T16:22:38Z</time>
      </trkpt>
      <trkpt lat="46.091828970238566" lon="8.690707990899682">
        <ele>212.11000000000001</ele>
        <time>2025-05-19T16:22:39Z</time>
      </trkpt>
      <trkpt lat="46.091933995485306" lon="8.69074696674943">
        <ele>212.11000000000001</ele>
        <time>2025-05-19T16:22:40Z</time>
      </trkpt>
      <trkpt lat="46.092042038217187" lon="8.69078803807497">
        <ele>212.11000000000001</ele>
        <time>2025-05-19T16:22:41Z</time>
      </trkpt>
      <trkpt lat="46.092148991301656" lon="8.690828019753099">
        <ele>212.59</ele>
        <time>2025-05-19T16:22:42Z</time>
      </trkpt>
      <trkpt lat="46.09226600266993" lon="8.690829025581479">
        <ele>212.59</ele>
        <time>2025-05-19T16:22:43Z</time>
      </trkpt>
      <trkpt lat="46.092619970440865" lon="8.690829025581479">
        <ele>213.06999999999999</ele>
        <time>2025-05-19T16:22:46Z</time>
      </trkpt>
      <trkpt lat="46.092730024829507" lon="8.690834976732731">
        <ele>212.59</ele>
        <time>2025-05-19T16:22:47Z</time>
      </trkpt>
      <trkpt lat="46.092834966257215" lon="8.690864983946085">
        <ele>212.59</ele>
        <time>2025-05-19T16:22:48Z</time>
      </trkpt>
      <trkpt lat="46.092919958755374" lon="8.69096003472805">
        <ele>212.59</ele>
        <time>2025-05-19T16:22:49Z</time>
      </trkpt>
      <trkpt lat="46.093003023415804" lon="8.691085008904338">
        <ele>212.11000000000001</ele>
        <time>2025-05-19T16:22:50Z</time>
      </trkpt>
      <trkpt lat="46.093634013086557" lon="8.692200975492597">
        <ele>211.63</ele>
        <time>2025-05-19T16:22:58Z</time>
      </trkpt>
      <trkpt lat="46.093714982271194" lon="8.692328967154026">
        <ele>211.63</ele>
        <time>2025-05-19T16:22:59Z</time>
      </trkpt>
      <trkpt lat="46.093797041103244" lon="8.692447990179062">
        <ele>211.15000000000001</ele>
        <time>2025-05-19T16:23:00Z</time>
      </trkpt>
      <trkpt lat="46.093906005844474" lon="8.69252703152597">
        <ele>210.66999999999999</ele>
        <time>2025-05-19T16:23:01Z</time>
      </trkpt>
      <trkpt lat="46.094019999727607" lon="8.692610012367368">
        <ele>210.66999999999999</ele>
        <time>2025-05-19T16:23:02Z</time>
      </trkpt>
      <trkpt lat="46.094141034409404" lon="8.692669020965695">
        <ele>210.66999999999999</ele>
        <time>2025-05-19T16:23:03Z</time>
      </trkpt>
      <trkpt lat="46.095318021252751" lon="8.693114016205072">
        <ele>211.63</ele>
        <time>2025-05-19T16:23:12Z</time>
      </trkpt>
      <trkpt lat="46.09572202898562" lon="8.693232033401728">
        <ele>212.11000000000001</ele>
        <time>2025-05-19T16:23:15Z</time>
      </trkpt>
      <trkpt lat="46.09585203230381" lon="8.693274026736617">
        <ele>212.11000000000001</ele>
        <time>2025-05-19T16:23:16Z</time>
      </trkpt>
      <trkpt lat="46.095969965681434" lon="8.693321971222758">
        <ele>212.11000000000001</ele>
        <time>2025-05-19T16:23:17Z</time>
      </trkpt>
      <trkpt lat="46.096080020070076" lon="8.693420039489865">
        <ele>212.11000000000001</ele>
        <time>2025-05-19T16:23:18Z</time>
      </trkpt>
      <trkpt lat="46.096171969547868" lon="8.693535961210728">
        <ele>212.11000000000001</ele>
        <time>2025-05-19T16:23:19Z</time>
      </trkpt>
      <trkpt lat="46.096267020329833" lon="8.693653978407383">
        <ele>211.63</ele>
        <time>2025-05-19T16:23:20Z</time>
      </trkpt>
      <trkpt lat="46.096358969807625" lon="8.693768978118897">
        <ele>211.63</ele>
        <time>2025-05-19T16:23:21Z</time>
      </trkpt>
      <trkpt lat="46.096457038074732" lon="8.693838967010379">
        <ele>211.63</ele>
        <time>2025-05-19T16:23:22Z</time>
      </trkpt>
      <trkpt lat="46.09656298533082" lon="8.693872997537255">
        <ele>211.63</ele>
        <time>2025-05-19T16:23:23Z</time>
      </trkpt>
      <trkpt lat="46.096689971163869" lon="8.693864028900862">
        <ele>211.15000000000001</ele>
        <time>2025-05-19T16:23:24Z</time>
      </trkpt>
      <trkpt lat="46.096817962825298" lon="8.693855982273817">
        <ele>211.15000000000001</ele>
        <time>2025-05-19T16:23:25Z</time>
      </trkpt>
      <trkpt lat="46.096943020820618" lon="8.693864028900862">
        <ele>210.66999999999999</ele>
        <time>2025-05-19T16:23:26Z</time>
      </trkpt>
      <trkpt lat="46.097088027745485" lon="8.693876015022397">
        <ele>210.66999999999999</ele>
        <time>2025-05-19T16:23:27Z</time>
      </trkpt>
      <trkpt lat="46.097290031611919" lon="8.694014986976981">
        <ele>210.66999999999999</ele>
        <time>2025-05-19T16:23:29Z</time>
      </trkpt>
      <trkpt lat="46.097391033545136" lon="8.694084975868464">
        <ele>210.66999999999999</ele>
        <time>2025-05-19T16:23:30Z</time>
      </trkpt>
      <trkpt lat="46.097497986629605" lon="8.69411900639534">
        <ele>210.66999999999999</ele>
        <time>2025-05-19T16:23:31Z</time>
      </trkpt>
      <trkpt lat="46.097612986341119" lon="8.694129986688495">
        <ele>210.66999999999999</ele>
        <time>2025-05-19T16:23:32Z</time>
      </trkpt>
      <trkpt lat="46.097737960517406" lon="8.694095034152269">
        <ele>210.66999999999999</ele>
        <time>2025-05-19T16:23:33Z</time>
      </trkpt>
      <trkpt lat="46.097861006855965" lon="8.694041976705194">
        <ele>210.19</ele>
        <time>2025-05-19T16:23:34Z</time>
      </trkpt>
      <trkpt lat="46.097988998517394" lon="8.693968970328569">
        <ele>210.19</ele>
        <time>2025-05-19T16:23:35Z</time>
      </trkpt>
      <trkpt lat="46.098103998228908" lon="8.693867968395352">
        <ele>209.69999999999999</ele>
        <time>2025-05-19T16:23:36Z</time>
      </trkpt>
      <trkpt lat="46.09832402318716" lon="8.693675016984344">
        <ele>209.22</ele>
        <time>2025-05-19T16:23:38Z</time>
      </trkpt>
      <trkpt lat="46.098430976271629" lon="8.693581977859139">
        <ele>208.74000000000001</ele>
        <time>2025-05-19T16:23:39Z</time>
      </trkpt>
      <trkpt lat="46.09853901900351" lon="8.693535039201379">
        <ele>208.74000000000001</ele>
        <time>2025-05-19T16:23:40Z</time>
      </trkpt>
      <trkpt lat="46.098659969866276" lon="8.693505031988025">
        <ele>208.25999999999999</ele>
        <time>2025-05-19T16:23:41Z</time>
      </trkpt>
      <trkpt lat="46.098771030083299" lon="8.693509977310896">
        <ele>207.78</ele>
        <time>2025-05-19T16:23:42Z</time>
      </trkpt>
      <trkpt lat="46.098886029794812" lon="8.693553982302547">
        <ele>207.78</ele>
        <time>2025-05-19T16:23:43Z</time>
      </trkpt>
      <trkpt lat="46.098998012021184" lon="8.693596981465817">
        <ele>207.78</ele>
        <time>2025-05-19T16:23:44Z</time>
      </trkpt>
      <trkpt lat="46.099094990640879" lon="8.693704018369317">
        <ele>207.78</ele>
        <time>2025-05-19T16:23:45Z</time>
      </trkpt>
      <trkpt lat="46.099192975088954" lon="8.693814994767308">
        <ele>208.25999999999999</ele>
        <time>2025-05-19T16:23:46Z</time>
      </trkpt>
      <trkpt lat="46.099433032795787" lon="8.694244986400008">
        <ele>209.22</ele>
        <time>2025-05-19T16:23:49Z</time>
      </trkpt>
      <trkpt lat="46.099492041394114" lon="8.694347999989986">
        <ele>209.22</ele>
        <time>2025-05-19T16:23:50Z</time>
      </trkpt>
      <trkpt lat="46.099596982821822" lon="8.69444296695292">
        <ele>209.69999999999999</ele>
        <time>2025-05-19T16:23:51Z</time>
      </trkpt>
      <trkpt lat="46.09967602416873" lon="8.694513961672783">
        <ele>210.19</ele>
        <time>2025-05-19T16:23:52Z</time>
      </trkpt>
      <trkpt lat="46.099755987524986" lon="8.694557966664434">
        <ele>210.19</ele>
        <time>2025-05-19T16:23:53Z</time>
      </trkpt>
      <trkpt lat="46.100089000537992" lon="8.694689981639385">
        <ele>210.19</ele>
        <time>2025-05-19T16:23:57Z</time>
      </trkpt>
      <trkpt lat="46.100174998864532" lon="8.694728035479784">
        <ele>210.19</ele>
        <time>2025-05-19T16:23:58Z</time>
      </trkpt>
      <trkpt lat="46.100285975262523" lon="8.694777991622686">
        <ele>210.19</ele>
        <time>2025-05-19T16:23:59Z</time>
      </trkpt>
      <trkpt lat="46.100340038537979" lon="8.694831971079111">
        <ele>210.19</ele>
        <time>2025-05-19T16:24:00Z</time>
      </trkpt>
      <trkpt lat="46.100414972752333" lon="8.694906989112496">
        <ele>210.19</ele>
        <time>2025-05-19T16:24:01Z</time>
      </trkpt>
      <trkpt lat="46.100486973300576" lon="8.694986030459404">
        <ele>210.19</ele>
        <time>2025-05-19T16:24:02Z</time>
      </trkpt>
      <trkpt lat="46.100540030747652" lon="8.695087032392621">
        <ele>209.69999999999999</ele>
        <time>2025-05-19T16:24:03Z</time>
      </trkpt>
      <trkpt lat="46.100593004375696" lon="8.695187028497458">
        <ele>209.69999999999999</ele>
        <time>2025-05-19T16:24:04Z</time>
      </trkpt>
      <trkpt lat="46.100821997970343" lon="8.695715004578233">
        <ele>208.74000000000001</ele>
        <time>2025-05-19T16:24:09Z</time>
      </trkpt>
      <trkpt lat="46.10137403011322" lon="8.696640031412244">
        <ele>209.22</ele>
        <time>2025-05-19T16:24:20Z</time>
      </trkpt>
      <trkpt lat="46.101444019004703" lon="8.696729969233275">
        <ele>209.22</ele>
        <time>2025-05-19T16:24:22Z</time>
      </trkpt>
      <trkpt lat="46.101507972925901" lon="8.696757964789867">
        <ele>209.69999999999999</ele>
        <time>2025-05-19T16:24:23Z</time>
      </trkpt>
      <trkpt lat="46.101557007059455" lon="8.696780009195209">
        <ele>209.69999999999999</ele>
        <time>2025-05-19T16:24:24Z</time>
      </trkpt>
      <trkpt lat="46.101636970415711" lon="8.696815967559815">
        <ele>209.69999999999999</ele>
        <time>2025-05-19T16:24:25Z</time>
      </trkpt>
      <trkpt lat="46.101663038134575" lon="8.69680498726666">
        <ele>209.69999999999999</ele>
        <time>2025-05-19T16:24:26Z</time>
      </trkpt>
      <trkpt lat="46.10184601508081" lon="8.69671898894012">
        <ele>208.25999999999999</ele>
        <time>2025-05-19T16:24:31Z</time>
      </trkpt>
      <trkpt lat="46.101870993152261" lon="8.696700967848301">
        <ele>208.25999999999999</ele>
        <time>2025-05-19T16:24:32Z</time>
      </trkpt>
      <trkpt lat="46.101901000365615" lon="8.696680013090372">
        <ele>208.25999999999999</ele>
        <time>2025-05-19T16:24:33Z</time>
      </trkpt>
      <trkpt lat="46.101951962336898" lon="8.696642965078354">
        <ele>208.25999999999999</ele>
        <time>2025-05-19T16:24:34Z</time>
      </trkpt>
      <trkpt lat="46.102005019783974" lon="8.696618992835283">
        <ele>208.74000000000001</ele>
        <time>2025-05-19T16:24:35Z</time>
      </trkpt>
      <trkpt lat="46.102058999240398" lon="8.69661002419889">
        <ele>208.74000000000001</ele>
        <time>2025-05-19T16:24:36Z</time>
      </trkpt>
      <trkpt lat="46.102109039202332" lon="8.696600971743465">
        <ele>208.74000000000001</ele>
        <time>2025-05-19T16:24:37Z</time>
      </trkpt>
      <trkpt lat="46.102238958701491" lon="8.696640031412244">
        <ele>208.74000000000001</ele>
        <time>2025-05-19T16:24:39Z</time>
      </trkpt>
      <trkpt lat="46.102282963693142" lon="8.69665302336216">
        <ele>208.25999999999999</ele>
        <time>2025-05-19T16:24:40Z</time>
      </trkpt>
      <trkpt lat="46.102365022525191" lon="8.696707002818584">
        <ele>208.25999999999999</ele>
        <time>2025-05-19T16:24:42Z</time>
      </trkpt>
      <trkpt lat="46.102540958672762" lon="8.696882016956806">
        <ele>207.78</ele>
        <time>2025-05-19T16:24:45Z</time>
      </trkpt>
      <trkpt lat="46.102612959221005" lon="8.69695502333343">
        <ele>207.30000000000001</ele>
        <time>2025-05-19T16:24:46Z</time>
      </trkpt>
      <trkpt lat="46.102699041366577" lon="8.697032975032926">
        <ele>207.30000000000001</ele>
        <time>2025-05-19T16:24:47Z</time>
      </trkpt>
      <trkpt lat="46.102788979187608" lon="8.697061976417899">
        <ele>207.30000000000001</ele>
        <time>2025-05-19T16:24:48Z</time>
      </trkpt>
      <trkpt lat="46.102882018312812" lon="8.697089971974492">
        <ele>207.30000000000001</ele>
        <time>2025-05-19T16:24:49Z</time>
      </trkpt>
      <trkpt lat="46.102978996932507" lon="8.697116039693356">
        <ele>207.30000000000001</ele>
        <time>2025-05-19T16:24:50Z</time>
      </trkpt>
      <trkpt lat="46.103077987208962" lon="8.697116039693356">
        <ele>207.30000000000001</ele>
        <time>2025-05-19T16:24:51Z</time>
      </trkpt>
      <trkpt lat="46.103176977485418" lon="8.697116039693356">
        <ele>207.30000000000001</ele>
        <time>2025-05-19T16:24:52Z</time>
      </trkpt>
      <trkpt lat="46.103678969666362" lon="8.697157027199864">
        <ele>207.78</ele>
        <time>2025-05-19T16:24:57Z</time>
      </trkpt>
      <trkpt lat="46.103777959942818" lon="8.697200026363134">
        <ele>207.78</ele>
        <time>2025-05-19T16:24:58Z</time>
      </trkpt>
      <trkpt lat="46.103883991017938" lon="8.69725501164794">
        <ele>207.78</ele>
        <time>2025-05-19T16:24:59Z</time>
      </trkpt>
      <trkpt lat="46.104605002328753" lon="8.697623983025551">
        <ele>208.25999999999999</ele>
        <time>2025-05-19T16:25:05Z</time>
      </trkpt>
      <trkpt lat="46.104716984555125" lon="8.697753986343741">
        <ele>208.25999999999999</ele>
        <time>2025-05-19T16:25:06Z</time>
      </trkpt>
      <trkpt lat="46.104823015630245" lon="8.697888012975454">
        <ele>208.25999999999999</ele>
        <time>2025-05-19T16:25:07Z</time>
      </trkpt>
      <trkpt lat="46.104929968714714" lon="8.698022961616516">
        <ele>208.25999999999999</ele>
        <time>2025-05-19T16:25:08Z</time>
      </trkpt>
      <trkpt lat="46.105043040588498" lon="8.698156988248229">
        <ele>208.25999999999999</ele>
        <time>2025-05-19T16:25:09Z</time>
      </trkpt>
      <trkpt lat="46.105180000886321" lon="8.698252961039543">
        <ele>208.25999999999999</ele>
        <time>2025-05-19T16:25:10Z</time>
      </trkpt>
      <trkpt lat="46.105320984497666" lon="8.69835002347827">
        <ele>208.25999999999999</ele>
        <time>2025-05-19T16:25:11Z</time>
      </trkpt>
      <trkpt lat="46.105460962280631" lon="8.698448007926345">
        <ele>208.25999999999999</ele>
        <time>2025-05-19T16:25:12Z</time>
      </trkpt>
      <trkpt lat="46.105590965598822" lon="8.698591003194451">
        <ele>207.78</ele>
        <time>2025-05-19T16:25:13Z</time>
      </trkpt>
      <trkpt lat="46.105702025815845" lon="8.698752019554377">
        <ele>207.78</ele>
        <time>2025-05-19T16:25:14Z</time>
      </trkpt>
      <trkpt lat="46.105917021632195" lon="8.699064999818802">
        <ele>207.78</ele>
        <time>2025-05-19T16:25:16Z</time>
      </trkpt>
      <trkpt lat="46.106030009686947" lon="8.699203971773386">
        <ele>207.78</ele>
        <time>2025-05-19T16:25:17Z</time>
      </trkpt>
      <trkpt lat="46.106423959136009" lon="8.699503038078547">
        <ele>207.30000000000001</ele>
        <time>2025-05-19T16:25:20Z</time>
      </trkpt>
      <trkpt lat="46.10655102878809" lon="8.699599010869861">
        <ele>207.30000000000001</ele>
        <time>2025-05-19T16:25:21Z</time>
      </trkpt>
      <trkpt lat="46.107023013755679" lon="8.699957001954317">
        <ele>207.78</ele>
        <time>2025-05-19T16:25:25Z</time>
      </trkpt>
      <trkpt lat="46.107138013467193" lon="8.700044006109238">
        <ele>207.78</ele>
        <time>2025-05-19T16:25:26Z</time>
      </trkpt>
      <trkpt lat="46.107255024835467" lon="8.700126986950636">
        <ele>208.25999999999999</ele>
        <time>2025-05-19T16:25:27Z</time>
      </trkpt>
      <trkpt lat="46.10788500867784" lon="8.700398979708552">
        <ele>209.22</ele>
        <time>2025-05-19T16:25:32Z</time>
      </trkpt>
      <trkpt lat="46.109039029106498" lon="8.701359964907169">
        <ele>212.11000000000001</ele>
        <time>2025-05-19T16:25:43Z</time>
      </trkpt>
      <trkpt lat="46.110130017623305" lon="8.702226988971233">
        <ele>212.59</ele>
        <time>2025-05-19T16:25:54Z</time>
      </trkpt>
      <trkpt lat="46.111383028328419" lon="8.703406993299723">
        <ele>213.55000000000001</ele>
        <time>2025-05-19T16:26:07Z</time>
      </trkpt>
      <trkpt lat="46.111663989722729" lon="8.703688960522413">
        <ele>214.03</ele>
        <time>2025-05-19T16:26:10Z</time>
      </trkpt>
      <trkpt lat="46.111749988049269" lon="8.703774036839604">
        <ele>214.03</ele>
        <time>2025-05-19T16:26:11Z</time>
      </trkpt>
      <trkpt lat="46.111821988597512" lon="8.703878978267312">
        <ele>214.03</ele>
        <time>2025-05-19T16:26:12Z</time>
      </trkpt>
      <trkpt lat="46.111877979710698" lon="8.703987020999193">
        <ele>214.50999999999999</ele>
        <time>2025-05-19T16:26:13Z</time>
      </trkpt>
      <trkpt lat="46.111932964995503" lon="8.704093974083662">
        <ele>214.03</ele>
        <time>2025-05-19T16:26:14Z</time>
      </trkpt>
      <trkpt lat="46.112404027953744" lon="8.705106005072594">
        <ele>215.47</ele>
        <time>2025-05-19T16:26:22Z</time>
      </trkpt>
      <trkpt lat="46.11302001401782" lon="8.705961965024471">
        <ele>216.91</ele>
        <time>2025-05-19T16:26:30Z</time>
      </trkpt>
      <trkpt lat="46.113126967102289" lon="8.706015022471547">
        <ele>216.91</ele>
        <time>2025-05-19T16:26:31Z</time>
      </trkpt>
      <trkpt lat="46.113231992349029" lon="8.706067996099591">
        <ele>216.91</ele>
        <time>2025-05-19T16:26:32Z</time>
      </trkpt>
      <trkpt lat="46.113353027030826" lon="8.70612901635468">
        <ele>216.91</ele>
        <time>2025-05-19T16:26:33Z</time>
      </trkpt>
      <trkpt lat="46.113447993993759" lon="8.706144019961357">
        <ele>217.40000000000001</ele>
        <time>2025-05-19T16:26:34Z</time>
      </trkpt>
      <trkpt lat="46.114271013066173" lon="8.706191964447498">
        <ele>217.40000000000001</ele>
        <time>2025-05-19T16:26:41Z</time>
      </trkpt>
      <trkpt lat="46.114385006949306" lon="8.706238986924291">
        <ele>217.40000000000001</ele>
        <time>2025-05-19T16:26:42Z</time>
      </trkpt>
      <trkpt lat="46.1145010124892" lon="8.706287015229464">
        <ele>216.91</ele>
        <time>2025-05-19T16:26:43Z</time>
      </trkpt>
      <trkpt lat="46.114606959745288" lon="8.706374019384384">
        <ele>216.91</ele>
        <time>2025-05-19T16:26:44Z</time>
      </trkpt>
      <trkpt lat="46.114706033840775" lon="8.70647300966084">
        <ele>216.91</ele>
        <time>2025-05-19T16:26:45Z</time>
      </trkpt>
      <trkpt lat="46.115294024348259" lon="8.707061000168324">
        <ele>216.43000000000001</ele>
        <time>2025-05-19T16:26:51Z</time>
      </trkpt>
      <trkpt lat="46.116169011220336" lon="8.707581013441086">
        <ele>217.88</ele>
        <time>2025-05-19T16:26:59Z</time>
      </trkpt>
      <trkpt lat="46.117109963670373" lon="8.708309987559915">
        <ele>217.88</ele>
        <time>2025-05-19T16:27:09Z</time>
      </trkpt>
      <trkpt lat="46.117996014654636" lon="8.709023036062717">
        <ele>215.94999999999999</ele>
        <time>2025-05-19T16:27:19Z</time>
      </trkpt>
      <trkpt lat="46.118251997977495" lon="8.709267033264041">
        <ele>215.47</ele>
        <time>2025-05-19T16:27:22Z</time>
      </trkpt>
      <trkpt lat="46.118332967162132" lon="8.709358982741833">
        <ele>215.94999999999999</ele>
        <time>2025-05-19T16:27:23Z</time>
      </trkpt>
      <trkpt lat="46.118652988225222" lon="8.709743041545153">
        <ele>214.99000000000001</ele>
        <time>2025-05-19T16:27:27Z</time>
      </trkpt>
      <trkpt lat="46.119329994544387" lon="8.71070402674377">
        <ele>219.80000000000001</ele>
        <time>2025-05-19T16:27:37Z</time>
      </trkpt>
      <trkpt lat="46.119410041719675" lon="8.710792036727071">
        <ele>219.80000000000001</ele>
        <time>2025-05-19T16:27:38Z</time>
      </trkpt>
      <trkpt lat="46.119490005075932" lon="8.710880968719721">
        <ele>220.28</ele>
        <time>2025-05-19T16:27:39Z</time>
      </trkpt>
      <trkpt lat="46.119660995900631" lon="8.711045002564788">
        <ele>221.24000000000001</ele>
        <time>2025-05-19T16:27:41Z</time>
      </trkpt>
      <trkpt lat="46.119833998382092" lon="8.711170982569456">
        <ele>221.72</ele>
        <time>2025-05-19T16:27:43Z</time>
      </trkpt>
      <trkpt lat="46.119942963123322" lon="8.711205013096333">
        <ele>222.19999999999999</ele>
        <time>2025-05-19T16:27:44Z</time>
      </trkpt>
      <trkpt lat="46.120565989986062" lon="8.711267039179802">
        <ele>222.19999999999999</ele>
        <time>2025-05-19T16:27:50Z</time>
      </trkpt>
      <trkpt lat="46.120671015232801" lon="8.711275001987815">
        <ele>222.19999999999999</ele>
        <time>2025-05-19T16:27:51Z</time>
      </trkpt>
      <trkpt lat="46.120776040479541" lon="8.711320012807846">
        <ele>221.72</ele>
        <time>2025-05-19T16:27:52Z</time>
      </trkpt>
      <trkpt lat="46.120872013270855" lon="8.711383966729045">
        <ele>221.24000000000001</ele>
        <time>2025-05-19T16:27:53Z</time>
      </trkpt>
      <trkpt lat="46.120971003547311" lon="8.711450016126037">
        <ele>220.28</ele>
        <time>2025-05-19T16:27:54Z</time>
      </trkpt>
      <trkpt lat="46.121716992929578" lon="8.712159041315317">
        <ele>216.91</ele>
        <time>2025-05-19T16:28:03Z</time>
      </trkpt>
      <trkpt lat="46.121975993737578" lon="8.712355010211468">
        <ele>215.94999999999999</ele>
        <time>2025-05-19T16:28:06Z</time>
      </trkpt>
      <trkpt lat="46.122158970683813" lon="8.712451988831163">
        <ele>216.43000000000001</ele>
        <time>2025-05-19T16:28:08Z</time>
      </trkpt>
      <trkpt lat="46.122255027294159" lon="8.71250999160111">
        <ele>215.94999999999999</ele>
        <time>2025-05-19T16:28:09Z</time>
      </trkpt>
      <trkpt lat="46.122351000085473" lon="8.712567994371057">
        <ele>215.94999999999999</ele>
        <time>2025-05-19T16:28:10Z</time>
      </trkpt>
      <trkpt lat="46.12245099619031" lon="8.712630020454526">
        <ele>215.47</ele>
        <time>2025-05-19T16:28:11Z</time>
      </trkpt>
      <trkpt lat="46.122526014223695" lon="8.712705038487911">
        <ele>215.47</ele>
        <time>2025-05-19T16:28:12Z</time>
      </trkpt>
      <trkpt lat="46.122606983408332" lon="8.712786007672548">
        <ele>215.47</ele>
        <time>2025-05-19T16:28:13Z</time>
      </trkpt>
      <trkpt lat="46.123444000259042" lon="8.714096015319228">
        <ele>208.74000000000001</ele>
        <time>2025-05-19T16:28:24Z</time>
      </trkpt>
      <trkpt lat="46.123584983870387" lon="8.714355016127229">
        <ele>207.78</ele>
        <time>2025-05-19T16:28:26Z</time>
      </trkpt>
      <trkpt lat="46.123654972761869" lon="8.714483007788658">
        <ele>207.78</ele>
        <time>2025-05-19T16:28:27Z</time>
      </trkpt>
      <trkpt lat="46.123734014108777" lon="8.714598007500172">
        <ele>207.30000000000001</ele>
        <time>2025-05-19T16:28:28Z</time>
      </trkpt>
      <trkpt lat="46.123819006606936" lon="8.714703032746911">
        <ele>207.30000000000001</ele>
        <time>2025-05-19T16:28:29Z</time>
      </trkpt>
      <trkpt lat="46.123915985226631" lon="8.714784001931548">
        <ele>206.81999999999999</ele>
        <time>2025-05-19T16:28:30Z</time>
      </trkpt>
      <trkpt lat="46.125363958999515" lon="8.715439969673753">
        <ele>208.25999999999999</ele>
        <time>2025-05-19T16:28:43Z</time>
      </trkpt>
      <trkpt lat="46.126156970858574" lon="8.715683966875076">
        <ele>208.25999999999999</ele>
        <time>2025-05-19T16:28:50Z</time>
      </trkpt>
      <trkpt lat="46.126974038779736" lon="8.715600986033678">
        <ele>206.81999999999999</ele>
        <time>2025-05-19T16:28:57Z</time>
      </trkpt>
      <trkpt lat="46.127205966040492" lon="8.715618001297116">
        <ele>206.81999999999999</ele>
        <time>2025-05-19T16:28:59Z</time>
      </trkpt>
      <trkpt lat="46.127644004300237" lon="8.715827967971563">
        <ele>206.81999999999999</ele>
        <time>2025-05-19T16:29:03Z</time>
      </trkpt>
      <trkpt lat="46.127761015668511" lon="8.71584196574986">
        <ele>207.30000000000001</ele>
        <time>2025-05-19T16:29:04Z</time>
      </trkpt>
      <trkpt lat="46.128104003146291" lon="8.71588496491313">
        <ele>207.78</ele>
        <time>2025-05-19T16:29:07Z</time>
      </trkpt>
      <trkpt lat="46.128217997029424" lon="8.715898962691426">
        <ele>208.25999999999999</ele>
        <time>2025-05-19T16:29:08Z</time>
      </trkpt>
      <trkpt lat="46.12833802588284" lon="8.715918995440006">
        <ele>208.25999999999999</ele>
        <time>2025-05-19T16:29:09Z</time>
      </trkpt>
      <trkpt lat="46.129151992499828" lon="8.716568006202579">
        <ele>209.69999999999999</ele>
        <time>2025-05-19T16:29:17Z</time>
      </trkpt>
      <trkpt lat="46.129261963069439" lon="8.716612011194229">
        <ele>209.69999999999999</ele>
        <time>2025-05-19T16:29:18Z</time>
      </trkpt>
      <trkpt lat="46.12994902767241" lon="8.716789036989212">
        <ele>208.25999999999999</ele>
        <time>2025-05-19T16:29:24Z</time>
      </trkpt>
      <trkpt lat="46.130064027383924" lon="8.716827007010579">
        <ele>207.78</ele>
        <time>2025-05-19T16:29:25Z</time>
      </trkpt>
      <trkpt lat="46.130172992125154" lon="8.716900013387203">
        <ele>207.30000000000001</ele>
        <time>2025-05-19T16:29:26Z</time>
      </trkpt>
      <trkpt lat="46.130572976544499" lon="8.717213999480009">
        <ele>206.34</ele>
        <time>2025-05-19T16:29:30Z</time>
      </trkpt>
      <trkpt lat="46.130684958770871" lon="8.717246018350124">
        <ele>206.34</ele>
        <time>2025-05-19T16:29:31Z</time>
      </trkpt>
      <trkpt lat="46.130911018699408" lon="8.717297986149788">
        <ele>206.81999999999999</ele>
        <time>2025-05-19T16:29:33Z</time>
      </trkpt>
      <trkpt lat="46.131026018410921" lon="8.71732397004962">
        <ele>207.30000000000001</ele>
        <time>2025-05-19T16:29:34Z</time>
      </trkpt>
      <trkpt lat="46.131144035607576" lon="8.717352971434593">
        <ele>207.30000000000001</ele>
        <time>2025-05-19T16:29:35Z</time>
      </trkpt>
      <trkpt lat="46.131246965378523" lon="8.717432012781501">
        <ele>207.78</ele>
        <time>2025-05-19T16:29:36Z</time>
      </trkpt>
      <trkpt lat="46.131348973140121" lon="8.717510970309377">
        <ele>207.78</ele>
        <time>2025-05-19T16:29:37Z</time>
      </trkpt>
      <trkpt lat="46.131450980901718" lon="8.717589005827904">
        <ele>208.25999999999999</ele>
        <time>2025-05-19T16:29:38Z</time>
      </trkpt>
      <trkpt lat="46.132601983845234" lon="8.718387968838215">
        <ele>206.81999999999999</ele>
        <time>2025-05-19T16:29:49Z</time>
      </trkpt>
      <trkpt lat="46.133566992357373" lon="8.719304027035832">
        <ele>205.86000000000001</ele>
        <time>2025-05-19T16:29:59Z</time>
      </trkpt>
      <trkpt lat="46.133661037310958" lon="8.719397988170385">
        <ele>205.86000000000001</ele>
        <time>2025-05-19T16:30:00Z</time>
      </trkpt>
      <trkpt lat="46.133757010102272" lon="8.7194939609617">
        <ele>205.86000000000001</ele>
        <time>2025-05-19T16:30:01Z</time>
      </trkpt>
      <trkpt lat="46.13385901786387" lon="8.719570990651846">
        <ele>205.86000000000001</ele>
        <time>2025-05-19T16:30:02Z</time>
      </trkpt>
      <trkpt lat="46.133971000090241" lon="8.719602003693581">
        <ele>206.34</ele>
        <time>2025-05-19T16:30:03Z</time>
      </trkpt>
      <trkpt lat="46.134552033618093" lon="8.719681967049837">
        <ele>206.81999999999999</ele>
        <time>2025-05-19T16:30:08Z</time>
      </trkpt>
      <trkpt lat="46.134665021672845" lon="8.719720020890236">
        <ele>206.81999999999999</ele>
        <time>2025-05-19T16:30:09Z</time>
      </trkpt>
      <trkpt lat="46.134774992242455" lon="8.719756985083222">
        <ele>206.81999999999999</ele>
        <time>2025-05-19T16:30:10Z</time>
      </trkpt>
      <trkpt lat="46.134884962812066" lon="8.719811970368028">
        <ele>206.81999999999999</ele>
        <time>2025-05-19T16:30:11Z</time>
      </trkpt>
      <trkpt lat="46.134990993887186" lon="8.719885982573032">
        <ele>206.81999999999999</ele>
        <time>2025-05-19T16:30:12Z</time>
      </trkpt>
      <trkpt lat="46.136127999052405" lon="8.72104000300169">
        <ele>207.30000000000001</ele>
        <time>2025-05-19T16:30:24Z</time>
      </trkpt>
      <trkpt lat="46.136289015412331" lon="8.721274025738239">
        <ele>206.81999999999999</ele>
        <time>2025-05-19T16:30:26Z</time>
      </trkpt>
      <trkpt lat="46.137335998937488" lon="8.722610017284751">
        <ele>205.86000000000001</ele>
        <time>2025-05-19T16:30:38Z</time>
      </trkpt>
      <trkpt lat="46.138689005747437" lon="8.724186988547444">
        <ele>203.94</ele>
        <time>2025-05-19T16:30:53Z</time>
      </trkpt>
      <trkpt lat="46.139886025339365" lon="8.725786004215479">
        <ele>207.30000000000001</ele>
        <time>2025-05-19T16:31:07Z</time>
      </trkpt>
      <trkpt lat="46.139968000352383" lon="8.725902009755373">
        <ele>207.78</ele>
        <time>2025-05-19T16:31:08Z</time>
      </trkpt>
      <trkpt lat="46.140142008662224" lon="8.726103007793427">
        <ele>208.25999999999999</ele>
        <time>2025-05-19T16:31:10Z</time>
      </trkpt>
      <trkpt lat="46.140438979491591" lon="8.726350022479892">
        <ele>208.74000000000001</ele>
        <time>2025-05-19T16:31:13Z</time>
      </trkpt>
      <trkpt lat="46.140536963939667" lon="8.726431997492909">
        <ele>209.22</ele>
        <time>2025-05-19T16:31:14Z</time>
      </trkpt>
      <trkpt lat="46.140635032206774" lon="8.726512966677547">
        <ele>209.22</ele>
        <time>2025-05-19T16:31:15Z</time>
      </trkpt>
      <trkpt lat="46.14073402248323" lon="8.726621009409428">
        <ele>209.69999999999999</ele>
        <time>2025-05-19T16:31:16Z</time>
      </trkpt>
      <trkpt lat="46.140801999717951" lon="8.72675403021276">
        <ele>209.69999999999999</ele>
        <time>2025-05-19T16:31:17Z</time>
      </trkpt>
      <trkpt lat="46.141440030187368" lon="8.727955995127559">
        <ele>213.06999999999999</ele>
        <time>2025-05-19T16:31:26Z</time>
      </trkpt>
      <trkpt lat="46.141514964401722" lon="8.728080969303846">
        <ele>213.55000000000001</ele>
        <time>2025-05-19T16:31:27Z</time>
      </trkpt>
      <trkpt lat="46.141591994091868" lon="8.728208960965276">
        <ele>214.03</ele>
        <time>2025-05-19T16:31:28Z</time>
      </trkpt>
      <trkpt lat="46.141686039045453" lon="8.72830300591886">
        <ele>214.03</ele>
        <time>2025-05-19T16:31:29Z</time>
      </trkpt>
      <trkpt lat="46.141785029321909" lon="8.728391015902162">
        <ele>214.50999999999999</ele>
        <time>2025-05-19T16:31:30Z</time>
      </trkpt>
      <trkpt lat="46.143054971471429" lon="8.729254016652703">
        <ele>214.99000000000001</ele>
        <time>2025-05-19T16:31:42Z</time>
      </trkpt>
      <trkpt lat="46.144313011318445" lon="8.730140989646316">
        <ele>213.06999999999999</ele>
        <time>2025-05-19T16:31:54Z</time>
      </trkpt>
      <trkpt lat="46.144959004595876" lon="8.730824030935764">
        <ele>213.55000000000001</ele>
        <time>2025-05-19T16:32:01Z</time>
      </trkpt>
      <trkpt lat="46.145057994872332" lon="8.730874992907047">
        <ele>214.03</ele>
        <time>2025-05-19T16:32:02Z</time>
      </trkpt>
      <trkpt lat="46.145166037604213" lon="8.730913968756795">
        <ele>214.03</ele>
        <time>2025-05-19T16:32:03Z</time>
      </trkpt>
      <trkpt lat="46.14550500176847" lon="8.731035003438592">
        <ele>214.99000000000001</ele>
        <time>2025-05-19T16:32:06Z</time>
      </trkpt>
      <trkpt lat="46.145831979811192" lon="8.731228038668633">
        <ele>214.99000000000001</ele>
        <time>2025-05-19T16:32:09Z</time>
      </trkpt>
      <trkpt lat="46.145938010886312" lon="8.731319988146424">
        <ele>214.99000000000001</ele>
        <time>2025-05-19T16:32:10Z</time>
      </trkpt>
      <trkpt lat="46.146023003384471" lon="8.731431970372796">
        <ele>214.50999999999999</ele>
        <time>2025-05-19T16:32:11Z</time>
      </trkpt>
      <trkpt lat="46.146109001711011" lon="8.7315440364182">
        <ele>214.50999999999999</ele>
        <time>2025-05-19T16:32:12Z</time>
      </trkpt>
      <trkpt lat="46.146195000037551" lon="8.731664987280965">
        <ele>214.50999999999999</ele>
        <time>2025-05-19T16:32:13Z</time>
      </trkpt>
      <trkpt lat="46.146541005000472" lon="8.732392033562064">
        <ele>214.50999999999999</ele>
        <time>2025-05-19T16:32:18Z</time>
      </trkpt>
      <trkpt lat="46.146619962528348" lon="8.73255698941648">
        <ele>214.50999999999999</ele>
        <time>2025-05-19T16:32:19Z</time>
      </trkpt>
      <trkpt lat="46.147908009588718" lon="8.734245020896196">
        <ele>213.55000000000001</ele>
        <time>2025-05-19T16:32:32Z</time>
      </trkpt>
      <trkpt lat="46.147986967116594" lon="8.734372006729245">
        <ele>213.55000000000001</ele>
        <time>2025-05-19T16:32:33Z</time>
      </trkpt>
      <trkpt lat="46.148057961836457" lon="8.734494969248772">
        <ele>213.06999999999999</ele>
        <time>2025-05-19T16:32:34Z</time>
      </trkpt>
      <trkpt lat="46.148108001798391" lon="8.734636036679149">
        <ele>213.06999999999999</ele>
        <time>2025-05-19T16:32:35Z</time>
      </trkpt>
      <trkpt lat="46.148159969598055" lon="8.734781965613365">
        <ele>213.06999999999999</ele>
        <time>2025-05-19T16:32:36Z</time>
      </trkpt>
      <trkpt lat="46.148213027045131" lon="8.734932001680136">
        <ele>213.06999999999999</ele>
        <time>2025-05-19T16:32:37Z</time>
      </trkpt>
      <trkpt lat="46.148643018677831" lon="8.736506961286068">
        <ele>213.55000000000001</ele>
        <time>2025-05-19T16:32:47Z</time>
      </trkpt>
      <trkpt lat="46.148952981457114" lon="8.738317033275962">
        <ele>213.55000000000001</ele>
        <time>2025-05-19T16:32:58Z</time>
      </trkpt>
      <trkpt lat="46.149034034460783" lon="8.738810978829861">
        <ele>214.03</ele>
        <time>2025-05-19T16:33:01Z</time>
      </trkpt>
      <trkpt lat="46.149043003097177" lon="8.738980041816831">
        <ele>214.03</ele>
        <time>2025-05-19T16:33:02Z</time>
      </trkpt>
      <trkpt lat="46.149049960076809" lon="8.739144997671247">
        <ele>214.03</ele>
        <time>2025-05-19T16:33:03Z</time>
      </trkpt>
      <trkpt lat="46.149041997268796" lon="8.739483961835504">
        <ele>214.50999999999999</ele>
        <time>2025-05-19T16:33:05Z</time>
      </trkpt>
      <trkpt lat="46.149016013368964" lon="8.73966702260077">
        <ele>214.99000000000001</ele>
        <time>2025-05-19T16:33:06Z</time>
      </trkpt>
      <trkpt lat="46.149035962298512" lon="8.739814963191748">
        <ele>214.50999999999999</ele>
        <time>2025-05-19T16:33:07Z</time>
      </trkpt>
      <trkpt lat="46.149057000875473" lon="8.739974973723292">
        <ele>214.50999999999999</ele>
        <time>2025-05-19T16:33:08Z</time>
      </trkpt>
      <trkpt lat="46.149122966453433" lon="8.740113023668528">
        <ele>214.50999999999999</ele>
        <time>2025-05-19T16:33:09Z</time>
      </trkpt>
      <trkpt lat="46.149191027507186" lon="8.740244032815099">
        <ele>214.99000000000001</ele>
        <time>2025-05-19T16:33:10Z</time>
      </trkpt>
      <trkpt lat="46.149260010570288" lon="8.740376969799399">
        <ele>214.99000000000001</ele>
        <time>2025-05-19T16:33:11Z</time>
      </trkpt>
      <trkpt lat="46.149328993633389" lon="8.740510996431112">
        <ele>214.99000000000001</ele>
        <time>2025-05-19T16:33:12Z</time>
      </trkpt>
      <trkpt lat="46.14939303137362" lon="8.740647034719586">
        <ele>215.47</ele>
        <time>2025-05-19T16:33:13Z</time>
      </trkpt>
      <trkpt lat="46.149441981688142" lon="8.740792963653803">
        <ele>215.47</ele>
        <time>2025-05-19T16:33:14Z</time>
      </trkpt>
      <trkpt lat="46.149475006386638" lon="8.740945011377335">
        <ele>215.94999999999999</ele>
        <time>2025-05-19T16:33:15Z</time>
      </trkpt>
      <trkpt lat="46.149492021650076" lon="8.741108039394021">
        <ele>215.94999999999999</ele>
        <time>2025-05-19T16:33:16Z</time>
      </trkpt>
      <trkpt lat="46.149528985843062" lon="8.741444991901517">
        <ele>216.43000000000001</ele>
        <time>2025-05-19T16:33:18Z</time>
      </trkpt>
      <trkpt lat="46.149546001106501" lon="8.741606008261442">
        <ele>216.91</ele>
        <time>2025-05-19T16:33:19Z</time>
      </trkpt>
      <trkpt lat="46.149593023583293" lon="8.741770964115858">
        <ele>216.91</ele>
        <time>2025-05-19T16:33:20Z</time>
      </trkpt>
      <trkpt lat="46.15008101798594" lon="8.742680987343192">
        <ele>217.40000000000001</ele>
        <time>2025-05-19T16:33:27Z</time>
      </trkpt>
      <trkpt lat="46.150137009099126" lon="8.742828005924821">
        <ele>217.40000000000001</ele>
        <time>2025-05-19T16:33:28Z</time>
      </trkpt>
      <trkpt lat="46.150170033797622" lon="8.742994973435998">
        <ele>217.40000000000001</ele>
        <time>2025-05-19T16:33:29Z</time>
      </trkpt>
      <trkpt lat="46.150263994932175" lon="8.74347098171711">
        <ele>216.91</ele>
        <time>2025-05-19T16:33:32Z</time>
      </trkpt>
      <trkpt lat="46.150295007973909" lon="8.743629986420274">
        <ele>216.43000000000001</ele>
        <time>2025-05-19T16:33:33Z</time>
      </trkpt>
      <trkpt lat="46.150354016572237" lon="8.743925029411912">
        <ele>216.91</ele>
        <time>2025-05-19T16:33:35Z</time>
      </trkpt>
      <trkpt lat="46.150413025170565" lon="8.744224011898041">
        <ele>216.91</ele>
        <time>2025-05-19T16:33:37Z</time>
      </trkpt>
      <trkpt lat="46.150448983535171" lon="8.74454302713275">
        <ele>216.91</ele>
        <time>2025-05-19T16:33:39Z</time>
      </trkpt>
      <trkpt lat="46.150462981313467" lon="8.744718041270971">
        <ele>216.91</ele>
        <time>2025-05-19T16:33:40Z</time>
      </trkpt>
      <trkpt lat="46.150475973263383" lon="8.744889032095671">
        <ele>217.40000000000001</ele>
        <time>2025-05-19T16:33:41Z</time>
      </trkpt>
      <trkpt lat="46.150488965213299" lon="8.745061028748751">
        <ele>217.40000000000001</ele>
        <time>2025-05-19T16:33:42Z</time>
      </trkpt>
      <trkpt lat="46.150530036538839" lon="8.745235037058592">
        <ele>216.91</ele>
        <time>2025-05-19T16:33:43Z</time>
      </trkpt>
      <trkpt lat="46.150594996288419" lon="8.745376020669937">
        <ele>216.91</ele>
        <time>2025-05-19T16:33:44Z</time>
      </trkpt>
      <trkpt lat="46.150915017351508" lon="8.746082028374076">
        <ele>216.43000000000001</ele>
        <time>2025-05-19T16:33:49Z</time>
      </trkpt>
      <trkpt lat="46.150979977101088" lon="8.746223011985421">
        <ele>216.43000000000001</ele>
        <time>2025-05-19T16:33:50Z</time>
      </trkpt>
      <trkpt lat="46.151039991527796" lon="8.746367013081908">
        <ele>215.94999999999999</ele>
        <time>2025-05-19T16:33:51Z</time>
      </trkpt>
      <trkpt lat="46.151079973205924" lon="8.746523000299931">
        <ele>215.47</ele>
        <time>2025-05-19T16:33:52Z</time>
      </trkpt>
      <trkpt lat="46.151119032874703" lon="8.746673036366701">
        <ele>214.99000000000001</ele>
        <time>2025-05-19T16:33:53Z</time>
      </trkpt>
      <trkpt lat="46.151159014552832" lon="8.746826006099582">
        <ele>214.50999999999999</ele>
        <time>2025-05-19T16:33:54Z</time>
      </trkpt>
      <trkpt lat="46.151443999260664" lon="8.747923029586673">
        <ele>212.59</ele>
        <time>2025-05-19T16:34:01Z</time>
      </trkpt>
      <trkpt lat="46.151475012302399" lon="8.748087985441089">
        <ele>212.59</ele>
        <time>2025-05-19T16:34:02Z</time>
      </trkpt>
      <trkpt lat="46.151496972888708" lon="8.748256964609027">
        <ele>212.59</ele>
        <time>2025-05-19T16:34:03Z</time>
      </trkpt>
      <trkpt lat="46.151489010080695" lon="8.748432984575629">
        <ele>212.59</ele>
        <time>2025-05-19T16:34:04Z</time>
      </trkpt>
      <trkpt lat="46.151462020352483" lon="8.748635994270444">
        <ele>213.06999999999999</ele>
        <time>2025-05-19T16:34:05Z</time>
      </trkpt>
      <trkpt lat="46.151398988440633" lon="8.74875602312386">
        <ele>213.06999999999999</ele>
        <time>2025-05-19T16:34:06Z</time>
      </trkpt>
      <trkpt lat="46.151324976235628" lon="8.748897006735206">
        <ele>213.55000000000001</ele>
        <time>2025-05-19T16:34:07Z</time>
      </trkpt>
      <trkpt lat="46.151250964030623" lon="8.749037990346551">
        <ele>214.03</ele>
        <time>2025-05-19T16:34:08Z</time>
      </trkpt>
      <trkpt lat="46.151206037029624" lon="8.749194983392954">
        <ele>214.50999999999999</ele>
        <time>2025-05-19T16:34:09Z</time>
      </trkpt>
      <trkpt lat="46.151161026209593" lon="8.749354993924499">
        <ele>214.99000000000001</ele>
        <time>2025-05-19T16:34:10Z</time>
      </trkpt>
      <trkpt lat="46.151122972369194" lon="8.74950997531414">
        <ele>214.99000000000001</ele>
        <time>2025-05-19T16:34:11Z</time>
      </trkpt>
      <trkpt lat="46.15109103731811" lon="8.749662023037672">
        <ele>215.47</ele>
        <time>2025-05-19T16:34:12Z</time>
      </trkpt>
      <trkpt lat="46.151080979034305" lon="8.749820021912456">
        <ele>215.94999999999999</ele>
        <time>2025-05-19T16:34:13Z</time>
      </trkpt>
      <trkpt lat="46.151089025661349" lon="8.749989001080394">
        <ele>215.94999999999999</ele>
        <time>2025-05-19T16:34:14Z</time>
      </trkpt>
      <trkpt lat="46.151101011782885" lon="8.750156974419951">
        <ele>215.94999999999999</ele>
        <time>2025-05-19T16:34:15Z</time>
      </trkpt>
      <trkpt lat="46.151450034230947" lon="8.751774011179805">
        <ele>215.47</ele>
        <time>2025-05-19T16:34:25Z</time>
      </trkpt>
      <trkpt lat="46.151764020323753" lon="8.753027021884918">
        <ele>214.99000000000001</ele>
        <time>2025-05-19T16:34:33Z</time>
      </trkpt>
      <trkpt lat="46.151804002001882" lon="8.753184014931321">
        <ele>214.99000000000001</ele>
        <time>2025-05-19T16:34:34Z</time>
      </trkpt>
      <trkpt lat="46.151859993115067" lon="8.753316029906273">
        <ele>214.50999999999999</ele>
        <time>2025-05-19T16:34:35Z</time>
      </trkpt>
      <trkpt lat="46.151941968128085" lon="8.753424994647503">
        <ele>214.50999999999999</ele>
        <time>2025-05-19T16:34:36Z</time>
      </trkpt>
      <trkpt lat="46.152026038616896" lon="8.753535971045494">
        <ele>214.50999999999999</ele>
        <time>2025-05-19T16:34:37Z</time>
      </trkpt>
      <trkpt lat="46.152358967810869" lon="8.753994964063168">
        <ele>213.55000000000001</ele>
        <time>2025-05-19T16:34:41Z</time>
      </trkpt>
      <trkpt lat="46.152420993894339" lon="8.754131002351642">
        <ele>213.06999999999999</ele>
        <time>2025-05-19T16:34:42Z</time>
      </trkpt>
      <trkpt lat="46.15293899551034" lon="8.755633039399982">
        <ele>211.63</ele>
        <time>2025-05-19T16:34:52Z</time>
      </trkpt>
      <trkpt lat="46.153280977159739" lon="8.756501991301775">
        <ele>212.11000000000001</ele>
        <time>2025-05-19T16:34:58Z</time>
      </trkpt>
      <trkpt lat="46.153330011293292" lon="8.756654039025307">
        <ele>211.63</ele>
        <time>2025-05-19T16:34:59Z</time>
      </trkpt>
      <trkpt lat="46.153378961607814" lon="8.756807008758187">
        <ele>211.63</ele>
        <time>2025-05-19T16:35:00Z</time>
      </trkpt>
      <trkpt lat="46.153461020439863" lon="8.757820967584848">
        <ele>210.19</ele>
        <time>2025-05-19T16:35:06Z</time>
      </trkpt>
      <trkpt lat="46.153478035703301" lon="8.757983995601535">
        <ele>210.19</ele>
        <time>2025-05-19T16:35:07Z</time>
      </trkpt>
      <trkpt lat="46.153493961319327" lon="8.758141994476318">
        <ele>210.19</ele>
        <time>2025-05-19T16:35:08Z</time>
      </trkpt>
      <trkpt lat="46.153539977967739" lon="8.758291024714708">
        <ele>210.66999999999999</ele>
        <time>2025-05-19T16:35:09Z</time>
      </trkpt>
      <trkpt lat="46.153598986566067" lon="8.758418010547757">
        <ele>210.66999999999999</ele>
        <time>2025-05-19T16:35:10Z</time>
      </trkpt>
      <trkpt lat="46.15435897372663" lon="8.760073017328978">
        <ele>213.55000000000001</ele>
        <time>2025-05-19T16:35:22Z</time>
      </trkpt>
      <trkpt lat="46.154630966484547" lon="8.760578026995063">
        <ele>214.50999999999999</ele>
        <time>2025-05-19T16:35:26Z</time>
      </trkpt>
      <trkpt lat="46.154779996722937" lon="8.760800985619426">
        <ele>214.99000000000001</ele>
        <time>2025-05-19T16:35:27Z</time>
      </trkpt>
      <trkpt lat="46.154877981171012" lon="8.760933000594378">
        <ele>214.99000000000001</ele>
        <time>2025-05-19T16:35:28Z</time>
      </trkpt>
      <trkpt lat="46.157805025577545" lon="8.764516012743115">
        <ele>214.99000000000001</ele>
        <time>2025-05-19T16:36:00Z</time>
      </trkpt>
      <trkpt lat="46.160607011988759" lon="8.76787799410522">
        <ele>220.75999999999999</ele>
        <time>2025-05-19T16:36:29Z</time>
      </trkpt>
      <trkpt lat="46.162237962707877" lon="8.772591976448894">
        <ele>218.36000000000001</ele>
        <time>2025-05-19T16:36:36Z</time>
      </trkpt>
      <trkpt lat="46.162211978808045" lon="8.77266900613904">
        <ele>217.88</ele>
        <time>2025-05-19T16:36:37Z</time>
      </trkpt>
      <trkpt lat="46.161937974393368" lon="8.773305024951696">
        <ele>216.43000000000001</ele>
        <time>2025-05-19T16:36:41Z</time>
      </trkpt>
      <trkpt lat="46.161633040755987" lon="8.774426020681858">
        <ele>214.99000000000001</ele>
        <time>2025-05-19T16:36:49Z</time>
      </trkpt>
      <trkpt lat="46.161579983308911" lon="8.774620983749628">
        <ele>214.99000000000001</ele>
        <time>2025-05-19T16:36:50Z</time>
      </trkpt>
      <trkpt lat="46.161579983308911" lon="8.774620983749628">
        <ele>214.99000000000001</ele>
        <time>2025-05-19T16:36:51Z</time>
      </trkpt>
      <trkpt lat="46.161558022722602" lon="8.774703964591026">
        <ele>214.99000000000001</ele>
        <time>2025-05-19T16:36:52Z</time>
      </trkpt>
      <trkpt lat="46.161537989974022" lon="8.77477596513927">
        <ele>214.99000000000001</ele>
        <time>2025-05-19T16:36:53Z</time>
      </trkpt>
      <trkpt lat="46.161520974710584" lon="8.77483899705112">
        <ele>214.99000000000001</ele>
        <time>2025-05-19T16:36:54Z</time>
      </trkpt>
      <trkpt lat="46.161506976932287" lon="8.774891970679164">
        <ele>214.99000000000001</ele>
        <time>2025-05-19T16:36:55Z</time>
      </trkpt>
      <trkpt lat="46.161494990810752" lon="8.774937987327576">
        <ele>214.99000000000001</ele>
        <time>2025-05-19T16:36:56Z</time>
      </trkpt>
      <trkpt lat="46.161484010517597" lon="8.774981992319226">
        <ele>214.99000000000001</ele>
        <time>2025-05-19T16:36:57Z</time>
      </trkpt>
      <trkpt lat="46.161408992484212" lon="8.77507503144443">
        <ele>214.99000000000001</ele>
        <time>2025-05-19T16:36:58Z</time>
      </trkpt>
      <trkpt lat="46.161359958350658" lon="8.77507695928216">
        <ele>214.99000000000001</ele>
        <time>2025-05-19T16:36:59Z</time>
      </trkpt>
      <trkpt lat="46.161154014989734" lon="8.775087017565966">
        <ele>214.99000000000001</ele>
        <time>2025-05-19T16:37:02Z</time>
      </trkpt>
      <trkpt lat="46.161074973642826" lon="8.775090035051107">
        <ele>214.99000000000001</ele>
        <time>2025-05-19T16:37:03Z</time>
      </trkpt>
      <trkpt lat="46.160925021395087" lon="8.774943016469479">
        <ele>214.99000000000001</ele>
        <time>2025-05-19T16:37:05Z</time>
      </trkpt>
      <trkpt lat="46.160807004198432" lon="8.775049969553947">
        <ele>214.99000000000001</ele>
        <time>2025-05-19T16:37:07Z</time>
      </trkpt>
      <trkpt lat="46.160786971449852" lon="8.7751180306077">
        <ele>215.47</ele>
        <time>2025-05-19T16:37:08Z</time>
      </trkpt>
      <trkpt lat="46.160785965621471" lon="8.775173015892506">
        <ele>215.47</ele>
        <time>2025-05-19T16:37:09Z</time>
      </trkpt>
      <trkpt lat="46.160826031118631" lon="8.77522699534893">
        <ele>215.47</ele>
        <time>2025-05-19T16:37:10Z</time>
      </trkpt>
      <trkpt lat="46.160871963948011" lon="8.775237975642085">
        <ele>215.47</ele>
        <time>2025-05-19T16:37:11Z</time>
      </trkpt>
      <trkpt lat="46.160936001688242" lon="8.775228001177311">
        <ele>214.99000000000001</ele>
        <time>2025-05-19T16:37:12Z</time>
      </trkpt>
      <trkpt lat="46.160936001688242" lon="8.775228001177311">
        <ele>214.99000000000001</ele>
        <time>2025-05-19T16:37:13Z</time>
      </trkpt>
      <trkpt lat="46.160968020558357" lon="8.775221966207027">
        <ele>214.99000000000001</ele>
        <time>2025-05-19T16:37:14Z</time>
      </trkpt>
      <trkpt lat="46.16187795996666" lon="8.774944022297859">
        <ele>215.47</ele>
        <time>2025-05-19T16:37:24Z</time>
      </trkpt>
      <trkpt lat="46.163044972345233" lon="8.77436600625515">
        <ele>214.03</ele>
        <time>2025-05-19T16:37:36Z</time>
      </trkpt>
      <trkpt lat="46.163128037005663" lon="8.774325018748641">
        <ele>214.03</ele>
        <time>2025-05-19T16:37:38Z</time>
      </trkpt>
      <trkpt lat="46.163376979529858" lon="8.774201972410083">
        <ele>214.50999999999999</ele>
        <time>2025-05-19T16:37:41Z</time>
      </trkpt>
      <trkpt lat="46.163772018626332" lon="8.774025030434132">
        <ele>214.50999999999999</ele>
        <time>2025-05-19T16:37:45Z</time>
      </trkpt>
      <trkpt lat="46.164386998862028" lon="8.773738034069538">
        <ele>213.55000000000001</ele>
        <time>2025-05-19T16:37:54Z</time>
      </trkpt>
      <trkpt lat="46.165404981002212" lon="8.773301001638174">
        <ele>216.43000000000001</ele>
        <time>2025-05-19T16:38:05Z</time>
      </trkpt>
      <trkpt lat="46.165517969056964" lon="8.773316005244851">
        <ele>217.40000000000001</ele>
        <time>2025-05-19T16:38:07Z</time>
      </trkpt>
      <trkpt lat="46.165576977655292" lon="8.773325979709625">
        <ele>217.40000000000001</ele>
        <time>2025-05-19T16:38:08Z</time>
      </trkpt>
      <trkpt lat="46.165708992630243" lon="8.773384988307953">
        <ele>218.36000000000001</ele>
        <time>2025-05-19T16:38:10Z</time>
      </trkpt>
      <trkpt lat="46.166387004777789" lon="8.774074986577034">
        <ele>219.80000000000001</ele>
        <time>2025-05-19T16:38:19Z</time>
      </trkpt>
      <trkpt lat="46.167602967470884" lon="8.775557996705174">
        <ele>224.61000000000001</ele>
        <time>2025-05-19T16:38:35Z</time>
      </trkpt>
      <trkpt lat="46.167891975492239" lon="8.775897966697812">
        <ele>224.12</ele>
        <time>2025-05-19T16:38:39Z</time>
      </trkpt>
      <trkpt lat="46.168039999902248" lon="8.77634203992784">
        <ele>222.68000000000001</ele>
        <time>2025-05-19T16:38:43Z</time>
      </trkpt>
      <trkpt lat="46.168067995458841" lon="8.776437006890774">
        <ele>222.68000000000001</ele>
        <time>2025-05-19T16:38:44Z</time>
      </trkpt>
      <trkpt lat="46.168067995458841" lon="8.776437006890774">
        <ele>222.19999999999999</ele>
        <time>2025-05-19T16:38:45Z</time>
      </trkpt>
      <trkpt lat="46.167879989370704" lon="8.777673002332449">
        <ele>222.68000000000001</ele>
        <time>2025-05-19T16:38:55Z</time>
      </trkpt>
      <trkpt lat="46.167712016031146" lon="8.778669023886323">
        <ele>225.09</ele>
        <time>2025-05-19T16:39:02Z</time>
      </trkpt>
      <trkpt lat="46.167689971625805" lon="8.77881595864892">
        <ele>226.05000000000001</ele>
        <time>2025-05-19T16:39:03Z</time>
      </trkpt>
      <trkpt lat="46.167531972751021" lon="8.779798988252878">
        <ele>231.81</ele>
        <time>2025-05-19T16:39:10Z</time>
      </trkpt>
      <trkpt lat="46.167336003854871" lon="8.780900035053492">
        <ele>235.18000000000001</ele>
        <time>2025-05-19T16:39:18Z</time>
      </trkpt>
      <trkpt lat="46.167281018570065" lon="8.782506007701159">
        <ele>236.62</ele>
        <time>2025-05-19T16:39:29Z</time>
      </trkpt>
      <trkpt lat="46.167241958901286" lon="8.784107035025954">
        <ele>235.18000000000001</ele>
        <time>2025-05-19T16:39:39Z</time>
      </trkpt>
      <trkpt lat="46.167251011356711" lon="8.785356022417545">
        <ele>234.22</ele>
        <time>2025-05-19T16:39:47Z</time>
      </trkpt>
      <trkpt lat="46.167254028841853" lon="8.785515027120709">
        <ele>234.22</ele>
        <time>2025-05-19T16:39:48Z</time>
      </trkpt>
      <trkpt lat="46.16727096028626" lon="8.785670008510351">
        <ele>233.74000000000001</ele>
        <time>2025-05-19T16:39:49Z</time>
      </trkpt>
      <trkpt lat="46.167315971106291" lon="8.785975025966764">
        <ele>233.25999999999999</ele>
        <time>2025-05-19T16:39:51Z</time>
      </trkpt>
      <trkpt lat="46.167487967759371" lon="8.787091998383403">
        <ele>228.44999999999999</ele>
        <time>2025-05-19T16:39:58Z</time>
      </trkpt>
      <trkpt lat="46.167546976357698" lon="8.787378994747996">
        <ele>226.53</ele>
        <time>2025-05-19T16:40:00Z</time>
      </trkpt>
      <trkpt lat="46.167600033804774" lon="8.787637995555997">
        <ele>224.61000000000001</ele>
        <time>2025-05-19T16:40:02Z</time>
      </trkpt>
      <trkpt lat="46.167624006047845" lon="8.787758024409413">
        <ele>223.16</ele>
        <time>2025-05-19T16:40:03Z</time>
      </trkpt>
      <trkpt lat="46.167644038796425" lon="8.787870006635785">
        <ele>222.68000000000001</ele>
        <time>2025-05-19T16:40:04Z</time>
      </trkpt>
      <trkpt lat="46.167662981897593" lon="8.787976959720254">
        <ele>222.19999999999999</ele>
        <time>2025-05-19T16:40:05Z</time>
      </trkpt>
      <trkpt lat="46.167679997161031" lon="8.788075027987361">
        <ele>221.72</ele>
        <time>2025-05-19T16:40:06Z</time>
      </trkpt>
      <trkpt lat="46.167733976617455" lon="8.788385996595025">
        <ele>219.31999999999999</ele>
        <time>2025-05-19T16:40:13Z</time>
      </trkpt>
      <trkpt lat="46.167745040729642" lon="8.788447016850114">
        <ele>219.80000000000001</ele>
        <time>2025-05-19T16:40:32Z</time>
      </trkpt>
      <trkpt lat="46.167756021022797" lon="8.788509964942932">
        <ele>219.80000000000001</ele>
        <time>2025-05-19T16:40:33Z</time>
      </trkpt>
      <trkpt lat="46.167796002700925" lon="8.788821017369628">
        <ele>219.31999999999999</ele>
        <time>2025-05-19T16:40:37Z</time>
      </trkpt>
      <trkpt lat="46.167813017964363" lon="8.78897700458765">
        <ele>218.36000000000001</ele>
        <time>2025-05-19T16:40:39Z</time>
      </trkpt>
      <trkpt lat="46.167808994650841" lon="8.789034001529217">
        <ele>218.36000000000001</ele>
        <time>2025-05-19T16:40:40Z</time>
      </trkpt>
      <trkpt lat="46.167804971337318" lon="8.789107007905841">
        <ele>217.88</ele>
        <time>2025-05-19T16:40:41Z</time>
      </trkpt>
      <trkpt lat="46.167598022148013" lon="8.78942702896893">
        <ele>216.91</ele>
        <time>2025-05-19T16:40:44Z</time>
      </trkpt>
      <trkpt lat="46.167568014934659" lon="8.789453012868762">
        <ele>216.91</ele>
        <time>2025-05-19T16:40:45Z</time>
      </trkpt>
      <trkpt lat="46.167568014934659" lon="8.789453012868762">
        <ele>216.43000000000001</ele>
        <time>2025-05-19T16:40:46Z</time>
      </trkpt>
      <trkpt lat="46.167502971366048" lon="8.789507998153567">
        <ele>216.43000000000001</ele>
        <time>2025-05-19T16:40:47Z</time>
      </trkpt>
      <trkpt lat="46.167438011616468" lon="8.789562983438373">
        <ele>215.94999999999999</ele>
        <time>2025-05-19T16:40:48Z</time>
      </trkpt>
      <trkpt lat="46.167372968047857" lon="8.789617968723178">
        <ele>215.94999999999999</ele>
        <time>2025-05-19T16:40:49Z</time>
      </trkpt>
      <trkpt lat="46.16726802662015" lon="8.789760963991284">
        <ele>215.94999999999999</ele>
        <time>2025-05-19T16:40:51Z</time>
      </trkpt>
      <trkpt lat="46.167221004143357" lon="8.789851991459727">
        <ele>215.94999999999999</ele>
        <time>2025-05-19T16:40:52Z</time>
      </trkpt>
      <trkpt lat="46.167172975838184" lon="8.78994301892817">
        <ele>215.94999999999999</ele>
        <time>2025-05-19T16:40:53Z</time>
      </trkpt>
      <trkpt lat="46.16684197448194" lon="8.790939040482044">
        <ele>216.91</ele>
        <time>2025-05-19T16:41:02Z</time>
      </trkpt>
      <trkpt lat="46.16681800223887" lon="8.791199969127774">
        <ele>216.91</ele>
        <time>2025-05-19T16:41:04Z</time>
      </trkpt>
      <trkpt lat="46.166804004460573" lon="8.79133801907301">
        <ele>216.91</ele>
        <time>2025-05-19T16:41:05Z</time>
      </trkpt>
      <trkpt lat="46.166823031380773" lon="8.791471039876342">
        <ele>216.91</ele>
        <time>2025-05-19T16:41:06Z</time>
      </trkpt>
      <trkpt lat="46.166826970875263" lon="8.791620992124081">
        <ele>216.43000000000001</ele>
        <time>2025-05-19T16:41:07Z</time>
      </trkpt>
      <trkpt lat="46.166855972260237" lon="8.791744038462639">
        <ele>216.43000000000001</ele>
        <time>2025-05-19T16:41:08Z</time>
      </trkpt>
      <trkpt lat="46.166894026100636" lon="8.791891979053617">
        <ele>215.94999999999999</ele>
        <time>2025-05-19T16:41:09Z</time>
      </trkpt>
      <trkpt lat="46.166943982243538" lon="8.792013013735414">
        <ele>215.47</ele>
        <time>2025-05-19T16:41:10Z</time>
      </trkpt>
      <trkpt lat="46.167042972519994" lon="8.792252987623215">
        <ele>215.47</ele>
        <time>2025-05-19T16:41:11Z</time>
      </trkpt>
      <trkpt lat="46.167088989168406" lon="8.792362958192825">
        <ele>214.99000000000001</ele>
        <time>2025-05-19T16:41:12Z</time>
      </trkpt>
      <trkpt lat="46.167125031352043" lon="8.792450968176127">
        <ele>214.50999999999999</ele>
        <time>2025-05-19T16:41:13Z</time>
      </trkpt>
      <trkpt lat="46.167109021916986" lon="8.792505031451583">
        <ele>214.03</ele>
        <time>2025-05-19T16:41:14Z</time>
      </trkpt>
      <trkpt lat="46.167109021916986" lon="8.792505031451583">
        <ele>213.55000000000001</ele>
        <time>2025-05-19T16:41:15Z</time>
      </trkpt>
      <trkpt lat="46.167093012481928" lon="8.792553981766105">
        <ele>213.06999999999999</ele>
        <time>2025-05-19T16:41:16Z</time>
      </trkpt>
      <trkpt lat="46.167083038017154" lon="8.792580971494317">
        <ele>212.59</ele>
        <time>2025-05-19T16:41:17Z</time>
      </trkpt>
      <trkpt lat="46.167083038017154" lon="8.792580971494317">
        <ele>212.59</ele>
        <time>2025-05-19T16:41:18Z</time>
      </trkpt>
      <trkpt lat="46.167071973904967" lon="8.792617013677955">
        <ele>212.11000000000001</ele>
        <time>2025-05-19T16:41:19Z</time>
      </trkpt>
      <trkpt lat="46.167061999440193" lon="8.792646015062928">
        <ele>211.63</ele>
        <time>2025-05-19T16:41:20Z</time>
      </trkpt>
      <trkpt lat="46.167040038853884" lon="8.792639980092645">
        <ele>211.63</ele>
        <time>2025-05-19T16:41:21Z</time>
      </trkpt>
      <trkpt lat="46.166982958093286" lon="8.792623970657587">
        <ele>211.15000000000001</ele>
        <time>2025-05-19T16:41:22Z</time>
      </trkpt>
      <trkpt lat="46.166912969201803" lon="8.792604021728039">
        <ele>210.66999999999999</ele>
        <time>2025-05-19T16:41:23Z</time>
      </trkpt>
      <trkpt lat="46.16683803498745" lon="8.792581977322698">
        <ele>210.66999999999999</ele>
        <time>2025-05-19T16:41:24Z</time>
      </trkpt>
      <trkpt lat="46.166734015569091" lon="8.792576026171446">
        <ele>210.19</ele>
        <time>2025-05-19T16:41:25Z</time>
      </trkpt>
      <trkpt lat="46.166657991707325" lon="8.792621959000826">
        <ele>210.19</ele>
        <time>2025-05-19T16:41:26Z</time>
      </trkpt>
      <trkpt lat="46.166578028351068" lon="8.792669987305999">
        <ele>210.19</ele>
        <time>2025-05-19T16:41:27Z</time>
      </trkpt>
      <trkpt lat="46.166499992832541" lon="8.792717009782791">
        <ele>209.69999999999999</ele>
        <time>2025-05-19T16:41:28Z</time>
      </trkpt>
      <trkpt lat="46.16641198284924" lon="8.792808037251234">
        <ele>209.22</ele>
        <time>2025-05-19T16:41:29Z</time>
      </trkpt>
      <trkpt lat="46.166366972029209" lon="8.792910967022181">
        <ele>209.22</ele>
        <time>2025-05-19T16:41:30Z</time>
      </trkpt>
      <trkpt lat="46.166323972865939" lon="8.793012974783778">
        <ele>208.74000000000001</ele>
        <time>2025-05-19T16:41:31Z</time>
      </trkpt>
      <trkpt lat="46.166289020329714" lon="8.793096961453557">
        <ele>208.74000000000001</ele>
        <time>2025-05-19T16:41:32Z</time>
      </trkpt>
      <trkpt lat="46.166289020329714" lon="8.793263006955385">
        <ele>208.74000000000001</ele>
        <time>2025-05-19T16:41:33Z</time>
      </trkpt>
      <trkpt lat="46.166289020329714" lon="8.793400973081589">
        <ele>208.74000000000001</ele>
        <time>2025-05-19T16:41:34Z</time>
      </trkpt>
      <trkpt lat="46.166289020329714" lon="8.793541034683585">
        <ele>208.74000000000001</ele>
        <time>2025-05-19T16:41:35Z</time>
      </trkpt>
      <trkpt lat="46.166327996179461" lon="8.793658968061209">
        <ele>208.74000000000001</ele>
        <time>2025-05-19T16:41:36Z</time>
      </trkpt>
      <trkpt lat="46.166369989514351" lon="8.793780002743006">
        <ele>208.74000000000001</ele>
        <time>2025-05-19T16:41:37Z</time>
      </trkpt>
      <trkpt lat="46.166461016982794" lon="8.794041015207768">
        <ele>208.74000000000001</ele>
        <time>2025-05-19T16:41:38Z</time>
      </trkpt>
      <trkpt lat="46.166461016982794" lon="8.794041015207768">
        <ele>208.74000000000001</ele>
        <time>2025-05-19T16:41:39Z</time>
      </trkpt>
      <trkpt lat="46.166536035016179" lon="8.794131958857179">
        <ele>208.74000000000001</ele>
        <time>2025-05-19T16:41:40Z</time>
      </trkpt>
      <trkpt lat="46.166632007807493" lon="8.79417504183948">
        <ele>208.74000000000001</ele>
        <time>2025-05-19T16:41:41Z</time>
      </trkpt>
      <trkpt lat="46.166725968942046" lon="8.794201025739312">
        <ele>208.74000000000001</ele>
        <time>2025-05-19T16:41:42Z</time>
      </trkpt>
      <trkpt lat="46.166815990582108" lon="8.794224997982383">
        <ele>208.74000000000001</ele>
        <time>2025-05-19T16:41:43Z</time>
      </trkpt>
      <trkpt lat="46.166892014443874" lon="8.794292975217104">
        <ele>208.25999999999999</ele>
        <time>2025-05-19T16:41:44Z</time>
      </trkpt>
      <trkpt lat="46.166954040527344" lon="8.794376039877534">
        <ele>208.25999999999999</ele>
        <time>2025-05-19T16:41:45Z</time>
      </trkpt>
      <trkpt lat="46.167009025812149" lon="8.794449968263507">
        <ele>208.25999999999999</ele>
        <time>2025-05-19T16:41:46Z</time>
      </trkpt>
      <trkpt lat="46.167052024975419" lon="8.794548036530614">
        <ele>208.25999999999999</ele>
        <time>2025-05-19T16:41:47Z</time>
      </trkpt>
      <trkpt lat="46.167073985561728" lon="8.794658007100225">
        <ele>208.25999999999999</ele>
        <time>2025-05-19T16:41:48Z</time>
      </trkpt>
      <trkpt lat="46.167116984724998" lon="8.794873002916575">
        <ele>208.25999999999999</ele>
        <time>2025-05-19T16:41:50Z</time>
      </trkpt>
      <trkpt lat="46.167253023013473" lon="8.79552997648716">
        <ele>209.22</ele>
        <time>2025-05-19T16:41:58Z</time>
      </trkpt>
      <trkpt lat="46.167396018281579" lon="8.796188039705157">
        <ele>209.69999999999999</ele>
        <time>2025-05-19T16:42:04Z</time>
      </trkpt>
      <trkpt lat="46.167418984696269" lon="8.79630396142602">
        <ele>209.69999999999999</ele>
        <time>2025-05-19T16:42:05Z</time>
      </trkpt>
      <trkpt lat="46.167556028813124" lon="8.7970320135355">
        <ele>211.15000000000001</ele>
        <time>2025-05-19T16:42:11Z</time>
      </trkpt>
      <trkpt lat="46.167580001056194" lon="8.797160005196929">
        <ele>211.63</ele>
        <time>2025-05-19T16:42:12Z</time>
      </trkpt>
      <trkpt lat="46.167876971885562" lon="8.798761032521725">
        <ele>214.99000000000001</ele>
        <time>2025-05-19T16:42:24Z</time>
      </trkpt>
      <trkpt lat="46.168027007952332" lon="8.799540968611836">
        <ele>214.03</ele>
        <time>2025-05-19T16:42:31Z</time>
      </trkpt>
      <trkpt lat="46.168037988245487" lon="8.799598971381784">
        <ele>214.03</ele>
        <time>2025-05-19T16:42:32Z</time>
      </trkpt>
      <trkpt lat="46.168046034872532" lon="8.799639958888292">
        <ele>214.03</ele>
        <time>2025-05-19T16:42:33Z</time>
      </trkpt>
      <trkpt lat="46.168046034872532" lon="8.799639958888292">
        <ele>214.03</ele>
        <time>2025-05-19T16:42:42Z</time>
      </trkpt>
      <trkpt lat="46.168087022379041" lon="8.799854032695293">
        <ele>216.91</ele>
        <time>2025-05-19T16:43:02Z</time>
      </trkpt>
      <trkpt lat="46.168105965480208" lon="8.799951011314988">
        <ele>217.40000000000001</ele>
        <time>2025-05-19T16:43:03Z</time>
      </trkpt>
      <trkpt lat="46.168147036805749" lon="8.800168018788099">
        <ele>217.40000000000001</ele>
        <time>2025-05-19T16:43:05Z</time>
      </trkpt>
      <trkpt lat="46.168168997392058" lon="8.800286035984755">
        <ele>217.88</ele>
        <time>2025-05-19T16:43:06Z</time>
      </trkpt>
      <trkpt lat="46.16821501404047" lon="8.800530033186078">
        <ele>217.88</ele>
        <time>2025-05-19T16:43:08Z</time>
      </trkpt>
      <trkpt lat="46.168287014588714" lon="8.80090101622045">
        <ele>217.88</ele>
        <time>2025-05-19T16:43:11Z</time>
      </trkpt>
      <trkpt lat="46.168374018743634" lon="8.801349028944969">
        <ele>217.40000000000001</ele>
        <time>2025-05-19T16:43:15Z</time>
      </trkpt>
      <trkpt lat="46.168392039835453" lon="8.80143997259438">
        <ele>217.40000000000001</ele>
        <time>2025-05-19T16:43:16Z</time>
      </trkpt>
      <trkpt lat="46.168406959623098" lon="8.801517002284527">
        <ele>216.91</ele>
        <time>2025-05-19T16:43:17Z</time>
      </trkpt>
      <trkpt lat="46.168482983484864" lon="8.801495963707566">
        <ele>216.91</ele>
        <time>2025-05-19T16:43:18Z</time>
      </trkpt>
      <trkpt lat="46.168540986254811" lon="8.801450030878186">
        <ele>216.43000000000001</ele>
        <time>2025-05-19T16:43:19Z</time>
      </trkpt>
      <trkpt lat="46.168603012338281" lon="8.801400996744633">
        <ele>216.43000000000001</ele>
        <time>2025-05-19T16:43:20Z</time>
      </trkpt>
      <trkpt lat="46.169312037527561" lon="8.800958013162017">
        <ele>213.06999999999999</ele>
        <time>2025-05-19T16:43:30Z</time>
      </trkpt>
      <trkpt lat="46.169807994738221" lon="8.800735976547003">
        <ele>212.11000000000001</ele>
        <time>2025-05-19T16:43:39Z</time>
      </trkpt>
      <trkpt lat="46.16982601583004" lon="8.80072901956737">
        <ele>211.63</ele>
        <time>2025-05-19T16:43:51Z</time>
      </trkpt>
      <trkpt lat="46.170046962797642" lon="8.80064201541245">
        <ele>210.66999999999999</ele>
        <time>2025-05-19T16:43:59Z</time>
      </trkpt>
      <trkpt lat="46.170530011877418" lon="8.800402963533998">
        <ele>208.25999999999999</ele>
        <time>2025-05-19T16:44:11Z</time>
      </trkpt>
      <trkpt lat="46.170876016840339" lon="8.800075985491276">
        <ele>207.30000000000001</ele>
        <time>2025-05-19T16:44:21Z</time>
      </trkpt>
      <trkpt lat="46.17092203348875" lon="8.800029968842864">
        <ele>206.81999999999999</ele>
        <time>2025-05-19T16:44:22Z</time>
      </trkpt>
      <trkpt lat="46.17096696048975" lon="8.799985041841865">
        <ele>206.81999999999999</ele>
        <time>2025-05-19T16:44:23Z</time>
      </trkpt>
      <trkpt lat="46.171017000451684" lon="8.799959979951382">
        <ele>206.34</ele>
        <time>2025-05-19T16:44:24Z</time>
      </trkpt>
      <trkpt lat="46.171118002384901" lon="8.799919998273253">
        <ele>206.34</ele>
        <time>2025-05-19T16:44:25Z</time>
      </trkpt>
      <trkpt lat="46.171119008213282" lon="8.799919998273253">
        <ele>206.34</ele>
        <time>2025-05-19T16:44:26Z</time>
      </trkpt>
      <trkpt lat="46.171171981841326" lon="8.799919998273253">
        <ele>205.86000000000001</ele>
        <time>2025-05-19T16:44:27Z</time>
      </trkpt>
      <trkpt lat="46.171278012916446" lon="8.799947993829846">
        <ele>205.38</ele>
        <time>2025-05-19T16:44:29Z</time>
      </trkpt>
      <trkpt lat="46.171332998201251" lon="8.799975989386439">
        <ele>205.38</ele>
        <time>2025-05-19T16:44:30Z</time>
      </trkpt>
      <trkpt lat="46.171881007030606" lon="8.800249993801117">
        <ele>207.78</ele>
        <time>2025-05-19T16:44:38Z</time>
      </trkpt>
      <trkpt lat="46.172387022525072" lon="8.800436994060874">
        <ele>212.11000000000001</ele>
        <time>2025-05-19T16:44:45Z</time>
      </trkpt>
      <trkpt lat="46.172452988103032" lon="8.80047001875937">
        <ele>212.59</ele>
        <time>2025-05-19T16:44:46Z</time>
      </trkpt>
      <trkpt lat="46.172519959509373" lon="8.800503965467215">
        <ele>213.06999999999999</ele>
        <time>2025-05-19T16:44:47Z</time>
      </trkpt>
      <trkpt lat="46.17257603444159" lon="8.800563979893923">
        <ele>213.55000000000001</ele>
        <time>2025-05-19T16:44:48Z</time>
      </trkpt>
      <trkpt lat="46.172630013898015" lon="8.800691971555352">
        <ele>213.55000000000001</ele>
        <time>2025-05-19T16:44:49Z</time>
      </trkpt>
      <trkpt lat="46.172671001404524" lon="8.800790961831808">
        <ele>214.03</ele>
        <time>2025-05-19T16:44:50Z</time>
      </trkpt>
      <trkpt lat="46.172897983342409" lon="8.801336036995053">
        <ele>218.36000000000001</ele>
        <time>2025-05-19T16:44:58Z</time>
      </trkpt>
      <trkpt lat="46.172897983342409" lon="8.801336036995053">
        <ele>218.84</ele>
        <time>2025-05-19T16:45:03Z</time>
      </trkpt>
      <trkpt lat="46.173201994970441" lon="8.801523959264159">
        <ele>219.31999999999999</ele>
        <time>2025-05-19T16:45:10Z</time>
      </trkpt>
      <trkpt lat="46.173201994970441" lon="8.801523959264159">
        <ele>219.31999999999999</ele>
        <time>2025-05-19T16:45:33Z</time>
      </trkpt>
      <trkpt lat="46.173205012455583" lon="8.801523959264159">
        <ele>219.31999999999999</ele>
        <time>2025-05-19T16:46:13Z</time>
      </trkpt>
      <trkpt lat="46.17313401773572" lon="8.801680030301213">
        <ele>221.24000000000001</ele>
        <time>2025-05-19T16:46:26Z</time>
      </trkpt>
      <trkpt lat="46.17313401773572" lon="8.801680030301213">
        <ele>220.75999999999999</ele>
        <time>2025-05-19T16:46:27Z</time>
      </trkpt>
      <trkpt lat="46.17313401773572" lon="8.801680030301213">
        <ele>220.28</ele>
        <time>2025-05-19T16:46:28Z</time>
      </trkpt>
      <trkpt lat="46.173454960808158" lon="8.801865018904209">
        <ele>218.36000000000001</ele>
        <time>2025-05-19T16:46:35Z</time>
      </trkpt>
      <trkpt lat="46.17356400936842" lon="8.801806010305882">
        <ele>217.40000000000001</ele>
        <time>2025-05-19T16:46:39Z</time>
      </trkpt>
      <trkpt lat="46.173556968569756" lon="8.801747001707554">
        <ele>217.40000000000001</ele>
        <time>2025-05-19T16:46:40Z</time>
      </trkpt>
      <trkpt lat="46.17354397661984" lon="8.801637031137943">
        <ele>216.91</ele>
        <time>2025-05-19T16:46:41Z</time>
      </trkpt>
      <trkpt lat="46.17354397661984" lon="8.801637031137943">
        <ele>216.91</ele>
        <time>2025-05-19T16:46:42Z</time>
      </trkpt>
      <trkpt lat="46.173537019640207" lon="8.801576010882855">
        <ele>216.43000000000001</ele>
        <time>2025-05-19T16:46:43Z</time>
      </trkpt>
      <trkpt lat="46.173536013811827" lon="8.801576010882855">
        <ele>216.43000000000001</ele>
        <time>2025-05-19T16:46:44Z</time>
      </trkpt>
      <trkpt lat="46.173339039087296" lon="8.801755970343947">
        <ele>215.47</ele>
        <time>2025-05-19T16:46:57Z</time>
      </trkpt>
      <trkpt lat="46.173446998000145" lon="8.801633007824421">
        <ele>220.75999999999999</ele>
        <time>2025-05-20T07:31:11Z</time>
      </trkpt>
      <trkpt lat="46.17343601770699" lon="8.801709031686187">
        <ele>214.99000000000001</ele>
        <time>2025-05-20T07:32:00Z</time>
      </trkpt>
      <trkpt lat="46.173440963029861" lon="8.801708025857806">
        <ele>214.99000000000001</ele>
        <time>2025-05-20T07:32:01Z</time>
      </trkpt>
      <trkpt lat="46.173468958586454" lon="8.801636025309563">
        <ele>214.03</ele>
        <time>2025-05-20T07:32:16Z</time>
      </trkpt>
      <trkpt lat="46.173542970791459" lon="8.801443995907903">
        <ele>213.55000000000001</ele>
        <time>2025-05-20T07:32:23Z</time>
      </trkpt>
      <trkpt lat="46.173541964963078" lon="8.801619010046125">
        <ele>213.55000000000001</ele>
        <time>2025-05-20T07:32:24Z</time>
      </trkpt>
      <trkpt lat="46.17354498244822" lon="8.80165102891624">
        <ele>213.55000000000001</ele>
        <time>2025-05-20T07:32:25Z</time>
      </trkpt>
      <trkpt lat="46.173549005761743" lon="8.801682963967323">
        <ele>213.06999999999999</ele>
        <time>2025-05-20T07:32:26Z</time>
      </trkpt>
      <trkpt lat="46.173553029075265" lon="8.801710037514567">
        <ele>213.06999999999999</ele>
        <time>2025-05-20T07:32:27Z</time>
      </trkpt>
      <trkpt lat="46.173555040732026" lon="8.801729986444116">
        <ele>212.59</ele>
        <time>2025-05-20T07:32:28Z</time>
      </trkpt>
      <trkpt lat="46.173556968569756" lon="8.801743984222412">
        <ele>212.59</ele>
        <time>2025-05-20T07:32:29Z</time>
      </trkpt>
      <trkpt lat="46.173556968569756" lon="8.801743984222412">
        <ele>212.59</ele>
        <time>2025-05-20T07:32:45Z</time>
      </trkpt>
      <trkpt lat="46.173321017995477" lon="8.80173996090889">
        <ele>210.19</ele>
        <time>2025-05-20T07:32:54Z</time>
      </trkpt>
      <trkpt lat="46.173063023015857" lon="8.801500992849469">
        <ele>208.25999999999999</ele>
        <time>2025-05-20T07:33:03Z</time>
      </trkpt>
      <trkpt lat="46.173018012195826" lon="8.801455982029438">
        <ele>207.78</ele>
        <time>2025-05-20T07:33:04Z</time>
      </trkpt>
      <trkpt lat="46.172970989719033" lon="8.801408959552646">
        <ele>207.78</ele>
        <time>2025-05-20T07:33:05Z</time>
      </trkpt>
      <trkpt lat="46.172923967242241" lon="8.801362020894885">
        <ele>207.78</ele>
        <time>2025-05-20T07:33:06Z</time>
      </trkpt>
      <trkpt lat="46.172871999442577" lon="8.801255989819765">
        <ele>208.25999999999999</ele>
        <time>2025-05-20T07:33:07Z</time>
      </trkpt>
      <trkpt lat="46.172846015542746" lon="8.801178960129619">
        <ele>208.74000000000001</ele>
        <time>2025-05-20T07:33:08Z</time>
      </trkpt>
      <trkpt lat="46.172693967819214" lon="8.800775958225131">
        <ele>208.74000000000001</ele>
        <time>2025-05-20T07:33:13Z</time>
      </trkpt>
      <trkpt lat="46.172666978091002" lon="8.800705969333649">
        <ele>208.74000000000001</ele>
        <time>2025-05-20T07:33:14Z</time>
      </trkpt>
      <trkpt lat="46.17264200001955" lon="8.80064302124083">
        <ele>209.22</ele>
        <time>2025-05-20T07:33:15Z</time>
      </trkpt>
      <trkpt lat="46.17268399335444" lon="8.800457026809454">
        <ele>209.69999999999999</ele>
        <time>2025-05-20T07:33:16Z</time>
      </trkpt>
      <trkpt lat="46.17268399335444" lon="8.800457026809454">
        <ele>209.69999999999999</ele>
        <time>2025-05-20T07:33:17Z</time>
      </trkpt>
      <trkpt lat="46.172676030546427" lon="8.800430959090591">
        <ele>210.19</ele>
        <time>2025-05-20T07:33:18Z</time>
      </trkpt>
      <trkpt lat="46.172616016119719" lon="8.800583006814122">
        <ele>210.66999999999999</ele>
        <time>2025-05-20T07:33:19Z</time>
      </trkpt>
      <trkpt lat="46.172677036374807" lon="8.80047001875937">
        <ele>211.15000000000001</ele>
        <time>2025-05-20T07:33:20Z</time>
      </trkpt>
      <trkpt lat="46.172677036374807" lon="8.80047001875937">
        <ele>211.15000000000001</ele>
        <time>2025-05-20T07:33:21Z</time>
      </trkpt>
      <trkpt lat="46.172564970329404" lon="8.800561968237162">
        <ele>213.06999999999999</ele>
        <time>2025-05-20T07:33:30Z</time>
      </trkpt>
      <trkpt lat="46.1725789681077" lon="8.80062298849225">
        <ele>213.06999999999999</ele>
        <time>2025-05-20T07:33:31Z</time>
      </trkpt>
      <trkpt lat="46.172623978927732" lon="8.800677973777056">
        <ele>213.55000000000001</ele>
        <time>2025-05-20T07:33:32Z</time>
      </trkpt>
      <trkpt lat="46.17268499918282" lon="8.800823986530304">
        <ele>214.03</ele>
        <time>2025-05-20T07:33:34Z</time>
      </trkpt>
      <trkpt lat="46.172951040789485" lon="8.801697967574">
        <ele>214.99000000000001</ele>
        <time>2025-05-20T07:33:42Z</time>
      </trkpt>
      <trkpt lat="46.172970989719033" lon="8.801964009180665">
        <ele>215.47</ele>
        <time>2025-05-20T07:33:44Z</time>
      </trkpt>
      <trkpt lat="46.172978030517697" lon="8.802246982231736">
        <ele>215.47</ele>
        <time>2025-05-20T07:33:46Z</time>
      </trkpt>
      <trkpt lat="46.172906029969454" lon="8.803931996226311">
        <ele>216.43000000000001</ele>
        <time>2025-05-20T07:33:57Z</time>
      </trkpt>
      <trkpt lat="46.172910975292325" lon="8.804405992850661">
        <ele>217.40000000000001</ele>
        <time>2025-05-20T07:34:00Z</time>
      </trkpt>
      <trkpt lat="46.17296302691102" lon="8.805157011374831">
        <ele>217.88</ele>
        <time>2025-05-20T07:34:05Z</time>
      </trkpt>
      <trkpt lat="46.17296302691102" lon="8.805311992764473">
        <ele>217.88</ele>
        <time>2025-05-20T07:34:06Z</time>
      </trkpt>
      <trkpt lat="46.172955986112356" lon="8.806569026783109">
        <ele>221.24000000000001</ele>
        <time>2025-05-20T07:34:15Z</time>
      </trkpt>
      <trkpt lat="46.172971995547414" lon="8.806701041758061">
        <ele>221.24000000000001</ele>
        <time>2025-05-20T07:34:16Z</time>
      </trkpt>
      <trkpt lat="46.172994039952755" lon="8.806830961257219">
        <ele>221.72</ele>
        <time>2025-05-20T07:34:17Z</time>
      </trkpt>
      <trkpt lat="46.173038966953754" lon="8.806940009817481">
        <ele>221.72</ele>
        <time>2025-05-20T07:34:18Z</time>
      </trkpt>
      <trkpt lat="46.173080960288644" lon="8.807043023407459">
        <ele>221.72</ele>
        <time>2025-05-20T07:34:19Z</time>
      </trkpt>
      <trkpt lat="46.173120019957423" lon="8.807137990370393">
        <ele>221.72</ele>
        <time>2025-05-20T07:34:20Z</time>
      </trkpt>
      <trkpt lat="46.173158995807171" lon="8.807205967605114">
        <ele>222.19999999999999</ele>
        <time>2025-05-20T07:34:21Z</time>
      </trkpt>
      <trkpt lat="46.173196965828538" lon="8.807256007567048">
        <ele>222.19999999999999</ele>
        <time>2025-05-20T07:34:22Z</time>
      </trkpt>
      <trkpt lat="46.173245999962091" lon="8.807234968990088">
        <ele>222.19999999999999</ele>
        <time>2025-05-20T07:34:23Z</time>
      </trkpt>
      <trkpt lat="46.173294028267264" lon="8.807210996747017">
        <ele>222.19999999999999</ele>
        <time>2025-05-20T07:34:24Z</time>
      </trkpt>
      <trkpt lat="46.173342978581786" lon="8.807172020897269">
        <ele>221.72</ele>
        <time>2025-05-20T07:34:25Z</time>
      </trkpt>
      <trkpt lat="46.17339301854372" lon="8.807095997035503">
        <ele>221.72</ele>
        <time>2025-05-20T07:34:26Z</time>
      </trkpt>
      <trkpt lat="46.173442974686623" lon="8.807020979002118">
        <ele>221.24000000000001</ele>
        <time>2025-05-20T07:34:27Z</time>
      </trkpt>
      <trkpt lat="46.173493014648557" lon="8.806945960968733">
        <ele>221.24000000000001</ele>
        <time>2025-05-20T07:34:28Z</time>
      </trkpt>
      <trkpt lat="46.173546994104981" lon="8.806864991784096">
        <ele>221.24000000000001</ele>
        <time>2025-05-20T07:34:29Z</time>
      </trkpt>
      <trkpt lat="46.173603991046548" lon="8.806779999285936">
        <ele>221.24000000000001</ele>
        <time>2025-05-20T07:34:30Z</time>
      </trkpt>
      <trkpt lat="46.17367004044354" lon="8.806719984859228">
        <ele>221.24000000000001</ele>
        <time>2025-05-20T07:34:31Z</time>
      </trkpt>
      <trkpt lat="46.173740029335022" lon="8.806681009009481">
        <ele>221.72</ele>
        <time>2025-05-20T07:34:32Z</time>
      </trkpt>
      <trkpt lat="46.173911020159721" lon="8.806584030389786">
        <ele>222.19999999999999</ele>
        <time>2025-05-20T07:34:35Z</time>
      </trkpt>
      <trkpt lat="46.173956030979753" lon="8.806558968499303">
        <ele>222.68000000000001</ele>
        <time>2025-05-20T07:34:36Z</time>
      </trkpt>
      <trkpt lat="46.173990983515978" lon="8.806538013741374">
        <ele>223.16</ele>
        <time>2025-05-20T07:34:37Z</time>
      </trkpt>
      <trkpt lat="46.174019984900951" lon="8.806518986821175">
        <ele>223.63999999999999</ele>
        <time>2025-05-20T07:34:38Z</time>
      </trkpt>
      <trkpt lat="46.174019984900951" lon="8.806518986821175">
        <ele>224.61000000000001</ele>
        <time>2025-05-20T07:34:46Z</time>
      </trkpt>
      <trkpt lat="46.174083016812801" lon="8.806479005143046">
        <ele>227.49000000000001</ele>
        <time>2025-05-20T07:35:26Z</time>
      </trkpt>
      <trkpt lat="46.174303041771054" lon="8.806296028196812">
        <ele>235.18000000000001</ele>
        <time>2025-05-20T07:35:32Z</time>
      </trkpt>
      <trkpt lat="46.17431502789259" lon="8.806271972134709">
        <ele>236.13999999999999</ele>
        <time>2025-05-20T07:35:33Z</time>
      </trkpt>
      <trkpt lat="46.174303041771054" lon="8.806193014606834">
        <ele>236.13999999999999</ele>
        <time>2025-05-20T07:35:34Z</time>
      </trkpt>
      <trkpt lat="46.174370013177395" lon="8.805611981078982">
        <ele>235.66</ele>
        <time>2025-05-20T07:35:40Z</time>
      </trkpt>
      <trkpt lat="46.174391973763704" lon="8.805527994409204">
        <ele>235.66</ele>
        <time>2025-05-20T07:35:41Z</time>
      </trkpt>
      <trkpt lat="46.174414018169045" lon="8.805444007739425">
        <ele>235.18000000000001</ele>
        <time>2025-05-20T07:35:42Z</time>
      </trkpt>
      <trkpt lat="46.174459028989077" lon="8.805371001362801">
        <ele>235.18000000000001</ele>
        <time>2025-05-20T07:35:43Z</time>
      </trkpt>
      <trkpt lat="46.174501022323966" lon="8.805322973057628">
        <ele>234.69999999999999</ele>
        <time>2025-05-20T07:35:44Z</time>
      </trkpt>
      <trkpt lat="46.174547038972378" lon="8.805269999429584">
        <ele>234.69999999999999</ele>
        <time>2025-05-20T07:35:45Z</time>
      </trkpt>
      <trkpt lat="46.174605041742325" lon="8.805225994437933">
        <ele>234.22</ele>
        <time>2025-05-20T07:35:46Z</time>
      </trkpt>
      <trkpt lat="46.174665978178382" lon="8.805209985002875">
        <ele>234.22</ele>
        <time>2025-05-20T07:35:47Z</time>
      </trkpt>
      <trkpt lat="46.17472599260509" lon="8.80519799888134">
        <ele>233.74000000000001</ele>
        <time>2025-05-20T07:35:48Z</time>
      </trkpt>
      <trkpt lat="46.174781983718276" lon="8.805187018588185">
        <ele>233.74000000000001</ele>
        <time>2025-05-20T07:35:49Z</time>
      </trkpt>
      <trkpt lat="46.174843003973365" lon="8.805186012759805">
        <ele>233.25999999999999</ele>
        <time>2025-05-20T07:35:50Z</time>
      </trkpt>
      <trkpt lat="46.174906035885215" lon="8.805225994437933">
        <ele>233.25999999999999</ele>
        <time>2025-05-20T07:35:51Z</time>
      </trkpt>
      <trkpt lat="46.175108039751649" lon="8.805355997756124">
        <ele>232.78</ele>
        <time>2025-05-20T07:35:54Z</time>
      </trkpt>
      <trkpt lat="46.175169982016087" lon="8.80536999553442">
        <ele>232.78</ele>
        <time>2025-05-20T07:35:55Z</time>
      </trkpt>
      <trkpt lat="46.175236031413078" lon="8.80536999553442">
        <ele>233.25999999999999</ele>
        <time>2025-05-20T07:35:56Z</time>
      </trkpt>
      <trkpt lat="46.175309037789702" lon="8.805366978049278">
        <ele>233.74000000000001</ele>
        <time>2025-05-20T07:35:57Z</time>
      </trkpt>
      <trkpt lat="46.175379026681185" lon="8.805328002199531">
        <ele>233.74000000000001</ele>
        <time>2025-05-20T07:35:58Z</time>
      </trkpt>
      <trkpt lat="46.175453038886189" lon="8.805287014693022">
        <ele>234.22</ele>
        <time>2025-05-20T07:35:59Z</time>
      </trkpt>
      <trkpt lat="46.175525961443782" lon="8.805246027186513">
        <ele>234.69999999999999</ele>
        <time>2025-05-20T07:36:00Z</time>
      </trkpt>
      <trkpt lat="46.175595028325915" lon="8.805207973346114">
        <ele>235.18000000000001</ele>
        <time>2025-05-20T07:36:01Z</time>
      </trkpt>
      <trkpt lat="46.175687983632088" lon="8.805156005546451">
        <ele>236.13999999999999</ele>
        <time>2025-05-20T07:36:03Z</time>
      </trkpt>
      <trkpt lat="46.175738023594022" lon="8.805038994178176">
        <ele>237.09999999999999</ele>
        <time>2025-05-20T07:36:04Z</time>
      </trkpt>
      <trkpt lat="46.175752021372318" lon="8.80498199723661">
        <ele>238.53999999999999</ele>
        <time>2025-05-20T07:36:05Z</time>
      </trkpt>
      <trkpt lat="46.175752021372318" lon="8.804901028051972">
        <ele>239.99000000000001</ele>
        <time>2025-05-20T07:36:06Z</time>
      </trkpt>
      <trkpt lat="46.175752021372318" lon="8.804820980876684">
        <ele>240.47</ele>
        <time>2025-05-20T07:36:07Z</time>
      </trkpt>
      <trkpt lat="46.175752021372318" lon="8.804765995591879">
        <ele>241.91</ele>
        <time>2025-05-20T07:36:08Z</time>
      </trkpt>
      <trkpt lat="46.175752021372318" lon="8.80474797450006">
        <ele>242.87</ele>
        <time>2025-05-20T07:36:09Z</time>
      </trkpt>
      <trkpt lat="46.175752021372318" lon="8.80474797450006">
        <ele>243.83000000000001</ele>
        <time>2025-05-20T07:36:10Z</time>
      </trkpt>
      <trkpt lat="46.175786973908544" lon="8.804688965901732">
        <ele>247.19999999999999</ele>
        <time>2025-05-20T07:36:17Z</time>
      </trkpt>
      <trkpt lat="46.175789991393685" lon="8.804686032235622">
        <ele>248.16</ele>
        <time>2025-05-20T07:36:18Z</time>
      </trkpt>
      <trkpt lat="46.175833996385336" lon="8.804726013913751">
        <ele>248.63999999999999</ele>
        <time>2025-05-20T07:36:19Z</time>
      </trkpt>
      <trkpt lat="46.175838019698858" lon="8.80474797450006">
        <ele>249.59999999999999</ele>
        <time>2025-05-20T07:36:20Z</time>
      </trkpt>
      <trkpt lat="46.175848999992013" lon="8.804835984483361">
        <ele>250.56</ele>
        <time>2025-05-20T07:36:21Z</time>
      </trkpt>
      <trkpt lat="46.175858974456787" lon="8.804915025830269">
        <ele>251.03999999999999</ele>
        <time>2025-05-20T07:36:22Z</time>
      </trkpt>
      <trkpt lat="46.175880013033748" lon="8.805086016654968">
        <ele>252.47999999999999</ele>
        <time>2025-05-20T07:36:24Z</time>
      </trkpt>
      <trkpt lat="46.175913037732244" lon="8.805138990283012">
        <ele>253.44</ele>
        <time>2025-05-20T07:36:25Z</time>
      </trkpt>
      <trkpt lat="46.175967017188668" lon="8.80521995946765">
        <ele>254.41</ele>
        <time>2025-05-20T07:36:26Z</time>
      </trkpt>
      <trkpt lat="46.176140019670129" lon="8.805351974442601">
        <ele>256.32999999999998</ele>
        <time>2025-05-20T07:36:29Z</time>
      </trkpt>
      <trkpt lat="46.176368007436395" lon="8.805552972480655">
        <ele>259.20999999999998</ele>
        <time>2025-05-20T07:36:32Z</time>
      </trkpt>
      <trkpt lat="46.176431961357594" lon="8.805650034919381">
        <ele>260.64999999999998</ele>
        <time>2025-05-20T07:36:33Z</time>
      </trkpt>
      <trkpt lat="46.176476972177625" lon="8.805767968297005">
        <ele>261.62</ele>
        <time>2025-05-20T07:36:34Z</time>
      </trkpt>
      <trkpt lat="46.176503039896488" lon="8.805890008807182">
        <ele>263.06</ele>
        <time>2025-05-20T07:36:35Z</time>
      </trkpt>
      <trkpt lat="46.176523994654417" lon="8.806009031832218">
        <ele>264.01999999999998</ele>
        <time>2025-05-20T07:36:36Z</time>
      </trkpt>
      <trkpt lat="46.176519971340895" lon="8.806126965209842">
        <ele>265.45999999999998</ele>
        <time>2025-05-20T07:36:37Z</time>
      </trkpt>
      <trkpt lat="46.176504967734218" lon="8.806596016511321">
        <ele>270.26999999999998</ele>
        <time>2025-05-20T07:36:41Z</time>
      </trkpt>
      <trkpt lat="46.176512008532882" lon="8.806704981252551">
        <ele>271.70999999999998</ele>
        <time>2025-05-20T07:36:42Z</time>
      </trkpt>
      <trkpt lat="46.176527012139559" lon="8.806795002892613">
        <ele>273.14999999999998</ele>
        <time>2025-05-20T07:36:43Z</time>
      </trkpt>
      <trkpt lat="46.176542015746236" lon="8.806876977905631">
        <ele>274.11000000000001</ele>
        <time>2025-05-20T07:36:44Z</time>
      </trkpt>
      <trkpt lat="46.176556013524532" lon="8.806955013424158">
        <ele>275.06999999999999</ele>
        <time>2025-05-20T07:36:45Z</time>
      </trkpt>
      <trkpt lat="46.176567999646068" lon="8.807022990658879">
        <ele>276.04000000000002</ele>
        <time>2025-05-20T07:36:46Z</time>
      </trkpt>
      <trkpt lat="46.176505973562598" lon="8.807161040604115">
        <ele>277</ele>
        <time>2025-05-20T07:36:47Z</time>
      </trkpt>
      <trkpt lat="46.176532963290811" lon="8.8072619587183">
        <ele>277.48000000000002</ele>
        <time>2025-05-20T07:36:48Z</time>
      </trkpt>
      <trkpt lat="46.176567999646068" lon="8.807387016713619">
        <ele>278.44</ele>
        <time>2025-05-20T07:36:49Z</time>
      </trkpt>
      <trkpt lat="46.176579985767603" lon="8.807491036131978">
        <ele>279.39999999999998</ele>
        <time>2025-05-20T07:36:50Z</time>
      </trkpt>
      <trkpt lat="46.176595995202661" lon="8.807612992823124">
        <ele>279.88</ele>
        <time>2025-05-20T07:36:51Z</time>
      </trkpt>
      <trkpt lat="46.176644023507833" lon="8.808370968326926">
        <ele>280.83999999999997</ele>
        <time>2025-05-20T07:36:57Z</time>
      </trkpt>
      <trkpt lat="46.176667995750904" lon="8.80904596298933">
        <ele>278.44</ele>
        <time>2025-05-20T07:37:03Z</time>
      </trkpt>
      <trkpt lat="46.176671013236046" lon="8.809144031256437">
        <ele>277.48000000000002</ele>
        <time>2025-05-20T07:37:04Z</time>
      </trkpt>
      <trkpt lat="46.176674030721188" lon="8.809232963249087">
        <ele>277</ele>
        <time>2025-05-20T07:37:05Z</time>
      </trkpt>
      <trkpt lat="46.176689034327865" lon="8.809511996805668">
        <ele>275.06999999999999</ele>
        <time>2025-05-20T07:37:08Z</time>
      </trkpt>
      <trkpt lat="46.176719041541219" lon="8.809914998710156">
        <ele>273.14999999999998</ele>
        <time>2025-05-20T07:37:12Z</time>
      </trkpt>
      <trkpt lat="46.176700014621019" lon="8.809974007308483">
        <ele>272.19</ele>
        <time>2025-05-20T07:37:13Z</time>
      </trkpt>
      <trkpt lat="46.176682999357581" lon="8.810024969279766">
        <ele>271.70999999999998</ele>
        <time>2025-05-20T07:37:14Z</time>
      </trkpt>
      <trkpt lat="46.176666989922523" lon="8.810072997584939">
        <ele>271.23000000000002</ele>
        <time>2025-05-20T07:37:15Z</time>
      </trkpt>
      <trkpt lat="46.176632959395647" lon="8.810129994526506">
        <ele>270.75</ele>
        <time>2025-05-20T07:37:16Z</time>
      </trkpt>
      <trkpt lat="46.176585014909506" lon="8.810171987861395">
        <ele>269.79000000000002</ele>
        <time>2025-05-20T07:37:17Z</time>
      </trkpt>
      <trkpt lat="46.176521982997656" lon="8.8102269731462">
        <ele>269.31</ele>
        <time>2025-05-20T07:37:18Z</time>
      </trkpt>
      <trkpt lat="46.176460962742567" lon="8.810293022543192">
        <ele>268.35000000000002</ele>
        <time>2025-05-20T07:37:19Z</time>
      </trkpt>
      <trkpt lat="46.176398014649749" lon="8.810382960364223">
        <ele>267.38</ele>
        <time>2025-05-20T07:37:20Z</time>
      </trkpt>
      <trkpt lat="46.17633699439466" lon="8.810468958690763">
        <ele>267.38</ele>
        <time>2025-05-20T07:37:21Z</time>
      </trkpt>
      <trkpt lat="46.176312016323209" lon="8.810561997815967">
        <ele>266.89999999999998</ele>
        <time>2025-05-20T07:37:22Z</time>
      </trkpt>
      <trkpt lat="46.176287960261106" lon="8.810670962557197">
        <ele>266.42000000000002</ele>
        <time>2025-05-20T07:37:23Z</time>
      </trkpt>
      <trkpt lat="46.176190981641412" lon="8.81123598664999">
        <ele>263.06</ele>
        <time>2025-05-20T07:37:28Z</time>
      </trkpt>
      <trkpt lat="46.176181007176638" lon="8.811314022168517">
        <ele>262.57999999999998</ele>
        <time>2025-05-20T07:37:29Z</time>
      </trkpt>
      <trkpt lat="46.176216965541244" lon="8.811420975252986">
        <ele>262.10000000000002</ele>
        <time>2025-05-20T07:37:30Z</time>
      </trkpt>
      <trkpt lat="46.176254013553262" lon="8.811532035470009">
        <ele>261.62</ele>
        <time>2025-05-20T07:37:31Z</time>
      </trkpt>
      <trkpt lat="46.176290977746248" lon="8.811641000211239">
        <ele>261.62</ele>
        <time>2025-05-20T07:37:32Z</time>
      </trkpt>
      <trkpt lat="46.176333976909518" lon="8.811735967174172">
        <ele>261.62</ele>
        <time>2025-05-20T07:37:33Z</time>
      </trkpt>
      <trkpt lat="46.176704959943891" lon="8.812551023438573">
        <ele>261.62</ele>
        <time>2025-05-20T07:37:42Z</time>
      </trkpt>
      <trkpt lat="46.176718035712838" lon="8.812623023986816">
        <ele>262.10000000000002</ele>
        <time>2025-05-20T07:37:43Z</time>
      </trkpt>
      <trkpt lat="46.176718035712838" lon="8.812700975686312">
        <ele>262.10000000000002</ele>
        <time>2025-05-20T07:37:44Z</time>
      </trkpt>
      <trkpt lat="46.176694985479116" lon="8.812756966799498">
        <ele>262.10000000000002</ele>
        <time>2025-05-20T07:37:45Z</time>
      </trkpt>
      <trkpt lat="46.176650980487466" lon="8.812808012589812">
        <ele>261.62</ele>
        <time>2025-05-20T07:37:46Z</time>
      </trkpt>
      <trkpt lat="46.176610998809338" lon="8.812855035066605">
        <ele>261.62</ele>
        <time>2025-05-20T07:37:47Z</time>
      </trkpt>
      <trkpt lat="46.176576968282461" lon="8.812895016744733">
        <ele>262.10000000000002</ele>
        <time>2025-05-20T07:37:48Z</time>
      </trkpt>
      <trkpt lat="46.176543021574616" lon="8.812934998422861">
        <ele>262.10000000000002</ele>
        <time>2025-05-20T07:37:49Z</time>
      </trkpt>
      <trkpt lat="46.176521982997656" lon="8.812957964837551">
        <ele>262.10000000000002</ele>
        <time>2025-05-20T07:37:50Z</time>
      </trkpt>
      <trkpt lat="46.176506979390979" lon="8.81297598592937">
        <ele>261.62</ele>
        <time>2025-05-20T07:37:51Z</time>
      </trkpt>
      <trkpt lat="46.176484012976289" lon="8.813002975657582">
        <ele>261.62</ele>
        <time>2025-05-20T07:38:04Z</time>
      </trkpt>
      <trkpt lat="46.176484012976289" lon="8.813070030882955">
        <ele>262.10000000000002</ele>
        <time>2025-05-20T07:38:05Z</time>
      </trkpt>
      <trkpt lat="46.176511002704501" lon="8.813115041702986">
        <ele>262.10000000000002</ele>
        <time>2025-05-20T07:38:06Z</time>
      </trkpt>
      <trkpt lat="46.176544027402997" lon="8.813170026987791">
        <ele>262.10000000000002</ele>
        <time>2025-05-20T07:38:07Z</time>
      </trkpt>
      <trkpt lat="46.176589038223028" lon="8.813244961202145">
        <ele>262.10000000000002</ele>
        <time>2025-05-20T07:38:08Z</time>
      </trkpt>
      <trkpt lat="46.177082983776927" lon="8.814033027738333">
        <ele>259.20999999999998</ele>
        <time>2025-05-20T07:38:17Z</time>
      </trkpt>
      <trkpt lat="46.177214998751879" lon="8.814260009676218">
        <ele>258.73000000000002</ele>
        <time>2025-05-20T07:38:19Z</time>
      </trkpt>
      <trkpt lat="46.177286999300122" lon="8.814366962760687">
        <ele>258.73000000000002</ele>
        <time>2025-05-20T07:38:20Z</time>
      </trkpt>
      <trkpt lat="46.177785973995924" lon="8.81510297767818">
        <ele>259.20999999999998</ele>
        <time>2025-05-20T07:38:28Z</time>
      </trkpt>
      <trkpt lat="46.177939027547836" lon="8.815407995134592">
        <ele>259.20999999999998</ele>
        <time>2025-05-20T07:38:35Z</time>
      </trkpt>
      <trkpt lat="46.177984038367867" lon="8.815498016774654">
        <ele>259.20999999999998</ele>
        <time>2025-05-20T07:38:36Z</time>
      </trkpt>
      <trkpt lat="46.178030977025628" lon="8.815687028691173">
        <ele>258.73000000000002</ele>
        <time>2025-05-20T07:38:38Z</time>
      </trkpt>
      <trkpt lat="46.17805503308773" lon="8.815795993432403">
        <ele>258.25</ele>
        <time>2025-05-20T07:38:39Z</time>
      </trkpt>
      <trkpt lat="46.178072970360518" lon="8.815905964002013">
        <ele>257.76999999999998</ele>
        <time>2025-05-20T07:38:40Z</time>
      </trkpt>
      <trkpt lat="46.178099038079381" lon="8.816136969253421">
        <ele>256.81</ele>
        <time>2025-05-20T07:38:42Z</time>
      </trkpt>
      <trkpt lat="46.178220994770527" lon="8.817535992711783">
        <ele>250.56</ele>
        <time>2025-05-20T07:38:53Z</time>
      </trkpt>
      <trkpt lat="46.178301963955164" lon="8.818527990952134">
        <ele>247.19999999999999</ele>
        <time>2025-05-20T07:39:02Z</time>
      </trkpt>
      <trkpt lat="46.178419981151819" lon="8.820195989683271">
        <ele>243.83000000000001</ele>
        <time>2025-05-20T07:39:15Z</time>
      </trkpt>
      <trkpt lat="46.178446970880032" lon="8.820463959127665">
        <ele>243.83000000000001</ele>
        <time>2025-05-20T07:39:17Z</time>
      </trkpt>
      <trkpt lat="46.178461974486709" lon="8.8206020090729">
        <ele>243.34999999999999</ele>
        <time>2025-05-20T07:39:18Z</time>
      </trkpt>
      <trkpt lat="46.178472032770514" lon="8.820737041532993">
        <ele>243.34999999999999</ele>
        <time>2025-05-20T07:39:19Z</time>
      </trkpt>
      <trkpt lat="46.178482007235289" lon="8.820872996002436">
        <ele>242.87</ele>
        <time>2025-05-20T07:39:20Z</time>
      </trkpt>
      <trkpt lat="46.178491981700063" lon="8.82100903429091">
        <ele>242.38999999999999</ele>
        <time>2025-05-20T07:39:21Z</time>
      </trkpt>
      <trkpt lat="46.178616033867002" lon="8.822461031377316">
        <ele>243.34999999999999</ele>
        <time>2025-05-20T07:39:33Z</time>
      </trkpt>
      <trkpt lat="46.17863598279655" lon="8.822735035791993">
        <ele>243.34999999999999</ele>
        <time>2025-05-20T07:39:39Z</time>
      </trkpt>
      <trkpt lat="46.178670013323426" lon="8.8230299949646">
        <ele>243.34999999999999</ele>
        <time>2025-05-20T07:39:48Z</time>
      </trkpt>
      <trkpt lat="46.178753999993205" lon="8.824284011498094">
        <ele>245.27000000000001</ele>
        <time>2025-05-20T07:39:59Z</time>
      </trkpt>
      <trkpt lat="46.178835975006223" lon="8.825362008064985">
        <ele>244.31</ele>
        <time>2025-05-20T07:40:09Z</time>
      </trkpt>
      <trkpt lat="46.178968995809555" lon="8.826575959101319">
        <ele>242.87</ele>
        <time>2025-05-20T07:40:21Z</time>
      </trkpt>
      <trkpt lat="46.17900101467967" lon="8.826664974913001">
        <ele>242.38999999999999</ele>
        <time>2025-05-20T07:40:22Z</time>
      </trkpt>
      <trkpt lat="46.179039990529418" lon="8.826760025694966">
        <ele>241.91</ele>
        <time>2025-05-20T07:40:23Z</time>
      </trkpt>
      <trkpt lat="46.179079972207546" lon="8.826857004314661">
        <ele>241.43000000000001</ele>
        <time>2025-05-20T07:40:24Z</time>
      </trkpt>
      <trkpt lat="46.179120959714055" lon="8.826957000419498">
        <ele>241.43000000000001</ele>
        <time>2025-05-20T07:40:25Z</time>
      </trkpt>
      <trkpt lat="46.179634016007185" lon="8.827985962852836">
        <ele>238.53999999999999</ele>
        <time>2025-05-20T07:40:37Z</time>
      </trkpt>
      <trkpt lat="46.180142965167761" lon="8.828908978030086">
        <ele>237.58000000000001</ele>
        <time>2025-05-20T07:40:47Z</time>
      </trkpt>
      <trkpt lat="46.180347986519337" lon="8.829308962449431">
        <ele>236.13999999999999</ele>
        <time>2025-05-20T07:40:51Z</time>
      </trkpt>
      <trkpt lat="46.180383022874594" lon="8.829421028494835">
        <ele>235.66</ele>
        <time>2025-05-20T07:40:52Z</time>
      </trkpt>
      <trkpt lat="46.18041998706758" lon="8.82953803986311">
        <ele>235.18000000000001</ele>
        <time>2025-05-20T07:40:53Z</time>
      </trkpt>
      <trkpt lat="46.180456029251218" lon="8.829787988215685">
        <ele>234.22</ele>
        <time>2025-05-20T07:40:55Z</time>
      </trkpt>
      <trkpt lat="46.180468015372753" lon="8.830151008442044">
        <ele>232.78</ele>
        <time>2025-05-20T07:40:58Z</time>
      </trkpt>
      <trkpt lat="46.180472038686275" lon="8.83027195930481">
        <ele>231.81</ele>
        <time>2025-05-20T07:40:59Z</time>
      </trkpt>
      <trkpt lat="46.180472038686275" lon="8.830392993986607">
        <ele>231.33000000000001</ele>
        <time>2025-05-20T07:41:00Z</time>
      </trkpt>
      <trkpt lat="46.180457035079598" lon="8.832059986889362">
        <ele>222.19999999999999</ele>
        <time>2025-05-20T07:41:12Z</time>
      </trkpt>
      <trkpt lat="46.180386040359735" lon="8.833734020590782">
        <ele>217.40000000000001</ele>
        <time>2025-05-20T07:41:23Z</time>
      </trkpt>
      <trkpt lat="46.180291995406151" lon="8.834235006943345">
        <ele>215.47</ele>
        <time>2025-05-20T07:41:26Z</time>
      </trkpt>
      <trkpt lat="46.1802479904145" lon="8.834403986111283">
        <ele>214.50999999999999</ele>
        <time>2025-05-20T07:41:27Z</time>
      </trkpt>
      <trkpt lat="46.17958297021687" lon="8.836025968194008">
        <ele>206.81999999999999</ele>
        <time>2025-05-20T07:41:37Z</time>
      </trkpt>
      <trkpt lat="46.179412985220551" lon="8.836719989776611">
        <ele>205.38</ele>
        <time>2025-05-20T07:41:41Z</time>
      </trkpt>
      <trkpt lat="46.17925900965929" lon="8.838467029854655">
        <ele>203.46000000000001</ele>
        <time>2025-05-20T07:41:51Z</time>
      </trkpt>
      <trkpt lat="46.179205030202866" lon="8.839635970070958">
        <ele>203.94</ele>
        <time>2025-05-20T07:41:58Z</time>
      </trkpt>
      <trkpt lat="46.17919497191906" lon="8.839804027229548">
        <ele>203.94</ele>
        <time>2025-05-20T07:41:59Z</time>
      </trkpt>
      <trkpt lat="46.179183991625905" lon="8.839964959770441">
        <ele>203.94</ele>
        <time>2025-05-20T07:42:00Z</time>
      </trkpt>
      <trkpt lat="46.179138980805874" lon="8.840108960866928">
        <ele>203.46000000000001</ele>
        <time>2025-05-20T07:42:01Z</time>
      </trkpt>
      <trkpt lat="46.179097993299365" lon="8.84024097584188">
        <ele>202.97999999999999</ele>
        <time>2025-05-20T07:42:02Z</time>
      </trkpt>
      <trkpt lat="46.17906304076314" lon="8.840353963896632">
        <ele>202.49000000000001</ele>
        <time>2025-05-20T07:42:03Z</time>
      </trkpt>
      <trkpt lat="46.179035967215896" lon="8.840442979708314">
        <ele>202.00999999999999</ele>
        <time>2025-05-20T07:42:04Z</time>
      </trkpt>
      <trkpt lat="46.179010989144444" lon="8.840521015226841">
        <ele>201.53</ele>
        <time>2025-05-20T07:42:05Z</time>
      </trkpt>
      <trkpt lat="46.178928008303046" lon="8.840603996068239">
        <ele>201.05000000000001</ele>
        <time>2025-05-20T07:42:06Z</time>
      </trkpt>
      <trkpt lat="46.17891401052475" lon="8.840638026595116">
        <ele>200.56999999999999</ele>
        <time>2025-05-20T07:42:07Z</time>
      </trkpt>
      <trkpt lat="46.178971007466316" lon="8.840818991884589">
        <ele>200.09</ele>
        <time>2025-05-20T07:42:08Z</time>
      </trkpt>
      <trkpt lat="46.178971007466316" lon="8.840831983834505">
        <ele>200.09</ele>
        <time>2025-05-20T07:42:09Z</time>
      </trkpt>
      <trkpt lat="46.178971007466316" lon="8.841049997135997">
        <ele>199.61000000000001</ele>
        <time>2025-05-20T07:42:11Z</time>
      </trkpt>
      <trkpt lat="46.17900000885129" lon="8.841484012082219">
        <ele>200.09</ele>
        <time>2025-05-20T07:42:15Z</time>
      </trkpt>
      <trkpt lat="46.179231014102697" lon="8.842112990096211">
        <ele>201.05000000000001</ele>
        <time>2025-05-20T07:42:22Z</time>
      </trkpt>
      <trkpt lat="46.179270995780826" lon="8.842235030606389">
        <ele>201.53</ele>
        <time>2025-05-20T07:42:23Z</time>
      </trkpt>
      <trkpt lat="46.179399993270636" lon="8.842641972005367">
        <ele>202.49000000000001</ele>
        <time>2025-05-20T07:42:24Z</time>
      </trkpt>
      <trkpt lat="46.179464031010866" lon="8.844466041773558">
        <ele>213.06999999999999</ele>
        <time>2025-05-20T07:42:34Z</time>
      </trkpt>
      <trkpt lat="46.179549023509026" lon="8.84657702408731">
        <ele>227.00999999999999</ele>
        <time>2025-05-20T07:42:47Z</time>
      </trkpt>
      <trkpt lat="46.179600991308689" lon="8.846896961331368">
        <ele>228.44999999999999</ele>
        <time>2025-05-20T07:42:49Z</time>
      </trkpt>
      <trkpt lat="46.179632004350424" lon="8.847025958821178">
        <ele>228.44999999999999</ele>
        <time>2025-05-20T07:42:50Z</time>
      </trkpt>
      <trkpt lat="46.179670980200171" lon="8.847135007381439">
        <ele>229.41</ele>
        <time>2025-05-20T07:42:51Z</time>
      </trkpt>
      <trkpt lat="46.180020002648234" lon="8.847962971776724">
        <ele>231.81</ele>
        <time>2025-05-20T07:43:01Z</time>
      </trkpt>
      <trkpt lat="46.180250002071261" lon="8.848475022241473">
        <ele>231.81</ele>
        <time>2025-05-20T07:43:10Z</time>
      </trkpt>
      <trkpt lat="46.18043901398778" lon="8.848865032196045">
        <ele>232.30000000000001</ele>
        <time>2025-05-20T07:43:20Z</time>
      </trkpt>
      <trkpt lat="46.180451000109315" lon="8.848886992782354">
        <ele>232.30000000000001</ele>
        <time>2025-05-20T07:43:21Z</time>
      </trkpt>
      <trkpt lat="46.180515959858894" lon="8.849100982770324">
        <ele>232.30000000000001</ele>
        <time>2025-05-20T07:43:22Z</time>
      </trkpt>
      <trkpt lat="46.180518977344036" lon="8.849107017740607">
        <ele>232.30000000000001</ele>
        <time>2025-05-20T07:43:23Z</time>
      </trkpt>
      <trkpt lat="46.180564993992448" lon="8.849182035773993">
        <ele>232.30000000000001</ele>
        <time>2025-05-20T07:43:24Z</time>
      </trkpt>
      <trkpt lat="46.181008983403444" lon="8.850121982395649">
        <ele>229.88999999999999</ele>
        <time>2025-05-20T07:43:33Z</time>
      </trkpt>
      <trkpt lat="46.18106103502214" lon="8.850233964622021">
        <ele>230.37</ele>
        <time>2025-05-20T07:43:34Z</time>
      </trkpt>
      <trkpt lat="46.181117026135325" lon="8.850351981818676">
        <ele>231.33000000000001</ele>
        <time>2025-05-20T07:43:35Z</time>
      </trkpt>
      <trkpt lat="46.181646008044481" lon="8.851446993649006">
        <ele>236.62</ele>
        <time>2025-05-20T07:43:45Z</time>
      </trkpt>
      <trkpt lat="46.181700993329287" lon="8.851560987532139">
        <ele>237.09999999999999</ele>
        <time>2025-05-20T07:43:46Z</time>
      </trkpt>
      <trkpt lat="46.182103995233774" lon="8.852384006604552">
        <ele>239.50999999999999</ele>
        <time>2025-05-20T07:43:53Z</time>
      </trkpt>
      <trkpt lat="46.182196028530598" lon="8.852653987705708">
        <ele>240.47</ele>
        <time>2025-05-20T07:43:55Z</time>
      </trkpt>
      <trkpt lat="46.182211032137275" lon="8.852792037650943">
        <ele>240.94999999999999</ele>
        <time>2025-05-20T07:43:56Z</time>
      </trkpt>
      <trkpt lat="46.182220000773668" lon="8.852888010442257">
        <ele>241.43000000000001</ele>
        <time>2025-05-20T07:43:57Z</time>
      </trkpt>
      <trkpt lat="46.182284960523248" lon="8.85360399261117">
        <ele>242.38999999999999</ele>
        <time>2025-05-20T07:44:03Z</time>
      </trkpt>
      <trkpt lat="46.182294012978673" lon="8.853729972615838">
        <ele>241.91</ele>
        <time>2025-05-20T07:44:04Z</time>
      </trkpt>
      <trkpt lat="46.18233198300004" lon="8.855256987735629">
        <ele>240.94999999999999</ele>
        <time>2025-05-20T07:44:15Z</time>
      </trkpt>
      <trkpt lat="46.182300969958305" lon="8.855403000488877">
        <ele>240.94999999999999</ele>
        <time>2025-05-20T07:44:16Z</time>
      </trkpt>
      <trkpt lat="46.182141965255141" lon="8.856258960440755">
        <ele>241.43000000000001</ele>
        <time>2025-05-20T07:44:22Z</time>
      </trkpt>
      <trkpt lat="46.182120004668832" lon="8.856401033699513">
        <ele>241.43000000000001</ele>
        <time>2025-05-20T07:44:23Z</time>
      </trkpt>
      <trkpt lat="46.182082034647465" lon="8.856789031997323">
        <ele>241.43000000000001</ele>
        <time>2025-05-20T07:44:26Z</time>
      </trkpt>
      <trkpt lat="46.18205102160573" lon="8.857192033901811">
        <ele>240.94999999999999</ele>
        <time>2025-05-20T07:44:29Z</time>
      </trkpt>
      <trkpt lat="46.182002993300557" lon="8.857455980032682">
        <ele>240.47</ele>
        <time>2025-05-20T07:44:31Z</time>
      </trkpt>
      <trkpt lat="46.181966029107571" lon="8.857577014714479">
        <ele>239.99000000000001</ele>
        <time>2025-05-20T07:44:32Z</time>
      </trkpt>
      <trkpt lat="46.181925963610411" lon="8.857698971405625">
        <ele>239.50999999999999</ele>
        <time>2025-05-20T07:44:33Z</time>
      </trkpt>
      <trkpt lat="46.181881036609411" lon="8.8578159827739">
        <ele>239.02000000000001</ele>
        <time>2025-05-20T07:44:34Z</time>
      </trkpt>
      <trkpt lat="46.18183602578938" lon="8.857931988313794">
        <ele>238.53999999999999</ele>
        <time>2025-05-20T07:44:35Z</time>
      </trkpt>
      <trkpt lat="46.181701999157667" lon="8.858274975791574">
        <ele>236.62</ele>
        <time>2025-05-20T07:44:38Z</time>
      </trkpt>
      <trkpt lat="46.181658999994397" lon="8.858386036008596">
        <ele>236.13999999999999</ele>
        <time>2025-05-20T07:44:39Z</time>
      </trkpt>
      <trkpt lat="46.181608038023114" lon="8.85850396938622">
        <ele>235.66</ele>
        <time>2025-05-20T07:44:40Z</time>
      </trkpt>
      <trkpt lat="46.181357000023127" lon="8.858984000980854">
        <ele>233.25999999999999</ele>
        <time>2025-05-20T07:44:45Z</time>
      </trkpt>
      <trkpt lat="46.181312995031476" lon="8.859080979600549">
        <ele>233.25999999999999</ele>
        <time>2025-05-20T07:44:46Z</time>
      </trkpt>
      <trkpt lat="46.18116999976337" lon="8.859393037855625">
        <ele>232.78</ele>
        <time>2025-05-20T07:44:49Z</time>
      </trkpt>
      <trkpt lat="46.181030021980405" lon="8.859714986756444">
        <ele>232.78</ele>
        <time>2025-05-20T07:44:52Z</time>
      </trkpt>
      <trkpt lat="46.180992973968387" lon="8.859848007559776">
        <ele>233.25999999999999</ele>
        <time>2025-05-20T07:44:53Z</time>
      </trkpt>
      <trkpt lat="46.180965984240174" lon="8.85998697951436">
        <ele>232.78</ele>
        <time>2025-05-20T07:44:54Z</time>
      </trkpt>
      <trkpt lat="46.180903036147356" lon="8.860827013850212">
        <ele>230.84999999999999</ele>
        <time>2025-05-20T07:45:01Z</time>
      </trkpt>
      <trkpt lat="46.180880991742015" lon="8.861159021034837">
        <ele>230.37</ele>
        <time>2025-05-20T07:45:04Z</time>
      </trkpt>
      <trkpt lat="46.180776972323656" lon="8.862290997058153">
        <ele>229.41</ele>
        <time>2025-05-20T07:45:14Z</time>
      </trkpt>
      <trkpt lat="46.180769009515643" lon="8.862409014254808">
        <ele>229.88999999999999</ele>
        <time>2025-05-20T07:45:15Z</time>
      </trkpt>
      <trkpt lat="46.180751994252205" lon="8.862861972302198">
        <ele>230.84999999999999</ele>
        <time>2025-05-20T07:45:19Z</time>
      </trkpt>
      <trkpt lat="46.180751994252205" lon="8.862960962578654">
        <ele>230.84999999999999</ele>
        <time>2025-05-20T07:45:20Z</time>
      </trkpt>
      <trkpt lat="46.180751994252205" lon="8.863196996971965">
        <ele>232.30000000000001</ele>
        <time>2025-05-20T07:45:23Z</time>
      </trkpt>
      <trkpt lat="46.180751994252205" lon="8.863286012783647">
        <ele>232.78</ele>
        <time>2025-05-20T07:45:24Z</time>
      </trkpt>
      <trkpt lat="46.180751994252205" lon="8.863374022766948">
        <ele>232.78</ele>
        <time>2025-05-20T07:45:25Z</time>
      </trkpt>
      <trkpt lat="46.180712012574077" lon="8.864301983267069">
        <ele>231.33000000000001</ele>
        <time>2025-05-20T07:45:33Z</time>
      </trkpt>
      <trkpt lat="46.180686028674245" lon="8.865478970110416">
        <ele>226.53</ele>
        <time>2025-05-20T07:45:42Z</time>
      </trkpt>
      <trkpt lat="46.180682005360723" lon="8.865620959550142">
        <ele>226.05000000000001</ele>
        <time>2025-05-20T07:45:43Z</time>
      </trkpt>
      <trkpt lat="46.180661972612143" lon="8.866181960329413">
        <ele>222.19999999999999</ele>
        <time>2025-05-20T07:45:47Z</time>
      </trkpt>
      <trkpt lat="46.180625008419156" lon="8.866443978622556">
        <ele>219.80000000000001</ele>
        <time>2025-05-20T07:45:49Z</time>
      </trkpt>
      <trkpt lat="46.18059097789228" lon="8.86656098999083">
        <ele>218.84</ele>
        <time>2025-05-20T07:45:50Z</time>
      </trkpt>
      <trkpt lat="46.180371958762407" lon="8.867070022970438">
        <ele>213.55000000000001</ele>
        <time>2025-05-20T07:45:57Z</time>
      </trkpt>
      <trkpt lat="46.180341029539704" lon="8.867134982720017">
        <ele>210.66999999999999</ele>
        <time>2025-05-20T07:46:06Z</time>
      </trkpt>
      <trkpt lat="46.180223012343049" lon="8.867383003234863">
        <ele>209.69999999999999</ele>
        <time>2025-05-20T07:46:27Z</time>
      </trkpt>
      <trkpt lat="46.17979696020484" lon="8.868272993713617">
        <ele>210.19</ele>
        <time>2025-05-20T07:46:37Z</time>
      </trkpt>
      <trkpt lat="46.179186003282666" lon="8.869604961946607">
        <ele>209.69999999999999</ele>
        <time>2025-05-20T07:46:46Z</time>
      </trkpt>
      <trkpt lat="46.179116014391184" lon="8.869763966649771">
        <ele>209.69999999999999</ele>
        <time>2025-05-20T07:46:47Z</time>
      </trkpt>
      <trkpt lat="46.179048959165812" lon="8.869918026030064">
        <ele>209.69999999999999</ele>
        <time>2025-05-20T07:46:48Z</time>
      </trkpt>
      <trkpt lat="46.17827002890408" lon="8.871928006410599">
        <ele>208.25999999999999</ele>
        <time>2025-05-20T07:47:01Z</time>
      </trkpt>
      <trkpt lat="46.177739035338163" lon="8.873834973201156">
        <ele>207.30000000000001</ele>
        <time>2025-05-20T07:47:13Z</time>
      </trkpt>
      <trkpt lat="46.177381966263056" lon="8.875715034082532">
        <ele>205.86000000000001</ele>
        <time>2025-05-20T07:47:23Z</time>
      </trkpt>
      <trkpt lat="46.176990028470755" lon="8.878420041874051">
        <ele>205.38</ele>
        <time>2025-05-20T07:47:37Z</time>
      </trkpt>
      <trkpt lat="46.176758017390966" lon="8.880270011723042">
        <ele>205.86000000000001</ele>
        <time>2025-05-20T07:47:48Z</time>
      </trkpt>
      <trkpt lat="46.176477978006005" lon="8.882552990689874">
        <ele>205.86000000000001</ele>
        <time>2025-05-20T07:48:01Z</time>
      </trkpt>
      <trkpt lat="46.17620799690485" lon="8.884616028517485">
        <ele>205.86000000000001</ele>
        <time>2025-05-20T07:48:14Z</time>
      </trkpt>
      <trkpt lat="46.176126021891832" lon="8.885210976004601">
        <ele>205.86000000000001</ele>
        <time>2025-05-20T07:48:19Z</time>
      </trkpt>
      <trkpt lat="46.176026025786996" lon="8.885606015101075">
        <ele>206.81999999999999</ele>
        <time>2025-05-20T07:48:26Z</time>
      </trkpt>
      <trkpt lat="46.175924018025398" lon="8.885665023699403">
        <ele>206.81999999999999</ele>
        <time>2025-05-20T07:48:27Z</time>
      </trkpt>
      <trkpt lat="46.175913959741592" lon="8.885688995942473">
        <ele>206.34</ele>
        <time>2025-05-20T07:48:28Z</time>
      </trkpt>
      <trkpt lat="46.175887975841761" lon="8.885754961520433">
        <ele>206.34</ele>
        <time>2025-05-20T07:48:29Z</time>
      </trkpt>
      <trkpt lat="46.175881018862128" lon="8.885838026180863">
        <ele>206.34</ele>
        <time>2025-05-20T07:48:30Z</time>
      </trkpt>
      <trkpt lat="46.175881018862128" lon="8.885857975110412">
        <ele>206.81999999999999</ele>
        <time>2025-05-20T07:48:31Z</time>
      </trkpt>
      <trkpt lat="46.175967017188668" lon="8.886022008955479">
        <ele>206.81999999999999</ele>
        <time>2025-05-20T07:48:32Z</time>
      </trkpt>
      <trkpt lat="46.175967017188668" lon="8.886124016717076">
        <ele>206.81999999999999</ele>
        <time>2025-05-20T07:48:33Z</time>
      </trkpt>
      <trkpt lat="46.175967017188668" lon="8.886235998943448">
        <ele>206.34</ele>
        <time>2025-05-20T07:48:34Z</time>
      </trkpt>
      <trkpt lat="46.175967017188668" lon="8.886329960078001">
        <ele>206.34</ele>
        <time>2025-05-20T07:48:35Z</time>
      </trkpt>
      <trkpt lat="46.17595000192523" lon="8.886483013629913">
        <ele>206.34</ele>
        <time>2025-05-20T07:48:36Z</time>
      </trkpt>
      <trkpt lat="46.175785968080163" lon="8.887835014611483">
        <ele>205.86000000000001</ele>
        <time>2025-05-20T07:48:47Z</time>
      </trkpt>
      <trkpt lat="46.175769958645105" lon="8.887956971302629">
        <ele>205.86000000000001</ele>
        <time>2025-05-20T07:48:48Z</time>
      </trkpt>
      <trkpt lat="46.17575503885746" lon="8.888082029297948">
        <ele>205.86000000000001</ele>
        <time>2025-05-20T07:48:49Z</time>
      </trkpt>
      <trkpt lat="46.175598967820406" lon="8.889310983940959">
        <ele>207.78</ele>
        <time>2025-05-20T07:48:59Z</time>
      </trkpt>
      <trkpt lat="46.175524033606052" lon="8.889887994155288">
        <ele>208.25999999999999</ele>
        <time>2025-05-20T07:49:08Z</time>
      </trkpt>
      <trkpt lat="46.175393024459481" lon="8.89092399738729">
        <ele>210.66999999999999</ele>
        <time>2025-05-20T07:49:17Z</time>
      </trkpt>
      <trkpt lat="46.175181968137622" lon="8.892597025260329">
        <ele>209.69999999999999</ele>
        <time>2025-05-20T07:49:30Z</time>
      </trkpt>
      <trkpt lat="46.174973007291555" lon="8.894250020384789">
        <ele>210.19</ele>
        <time>2025-05-20T07:49:41Z</time>
      </trkpt>
      <trkpt lat="46.174736972898245" lon="8.896113988012075">
        <ele>212.11000000000001</ele>
        <time>2025-05-20T07:49:54Z</time>
      </trkpt>
      <trkpt lat="46.174498004838824" lon="8.897982984781265">
        <ele>213.06999999999999</ele>
        <time>2025-05-20T07:50:07Z</time>
      </trkpt>
      <trkpt lat="46.174280997365713" lon="8.899781992658973">
        <ele>216.91</ele>
        <time>2025-05-20T07:50:18Z</time>
      </trkpt>
      <trkpt lat="46.173938009887934" lon="8.902500998228788">
        <ele>213.06999999999999</ele>
        <time>2025-05-20T07:50:33Z</time>
      </trkpt>
      <trkpt lat="46.17371303960681" lon="8.904314003884792">
        <ele>212.59</ele>
        <time>2025-05-20T07:50:44Z</time>
      </trkpt>
      <trkpt lat="46.173536013811827" lon="8.906058026477695">
        <ele>212.59</ele>
        <time>2025-05-20T07:50:55Z</time>
      </trkpt>
      <trkpt lat="46.1735650151968" lon="8.907668022438884">
        <ele>213.55000000000001</ele>
        <time>2025-05-20T07:51:05Z</time>
      </trkpt>
      <trkpt lat="46.173976985737681" lon="8.909879000857472">
        <ele>216.43000000000001</ele>
        <time>2025-05-20T07:51:20Z</time>
      </trkpt>
      <trkpt lat="46.174288038164377" lon="8.911401992663741">
        <ele>221.72</ele>
        <time>2025-05-20T07:51:32Z</time>
      </trkpt>
      <trkpt lat="46.174308992922306" lon="8.911498971283436">
        <ele>222.19999999999999</ele>
        <time>2025-05-20T07:51:33Z</time>
      </trkpt>
      <trkpt lat="46.174334976822138" lon="8.911603996530175">
        <ele>222.19999999999999</ele>
        <time>2025-05-20T07:51:34Z</time>
      </trkpt>
      <trkpt lat="46.174649968743324" lon="8.913046019151807">
        <ele>224.61000000000001</ele>
        <time>2025-05-20T07:51:45Z</time>
      </trkpt>
      <trkpt lat="46.175050036981702" lon="8.915014006197453">
        <ele>231.81</ele>
        <time>2025-05-20T07:51:58Z</time>
      </trkpt>
      <trkpt lat="46.175301996991038" lon="8.916789041832089">
        <ele>237.09999999999999</ele>
        <time>2025-05-20T07:52:10Z</time>
      </trkpt>
      <trkpt lat="46.175278024747968" lon="8.917568977922201">
        <ele>237.09999999999999</ele>
        <time>2025-05-20T07:52:15Z</time>
      </trkpt>
      <trkpt lat="46.175269978120923" lon="8.917737035080791">
        <ele>237.09999999999999</ele>
        <time>2025-05-20T07:52:16Z</time>
      </trkpt>
      <trkpt lat="46.175261009484529" lon="8.917904002591968">
        <ele>237.09999999999999</ele>
        <time>2025-05-20T07:52:17Z</time>
      </trkpt>
      <trkpt lat="46.175237037241459" lon="8.918520994484425">
        <ele>236.13999999999999</ele>
        <time>2025-05-20T07:52:21Z</time>
      </trkpt>
      <trkpt lat="46.175247011706233" lon="8.918667007237673">
        <ele>236.13999999999999</ele>
        <time>2025-05-20T07:52:22Z</time>
      </trkpt>
      <trkpt lat="46.175526967272162" lon="8.9204459823668">
        <ele>231.81</ele>
        <time>2025-05-20T07:52:33Z</time>
      </trkpt>
      <trkpt lat="46.175721008330584" lon="8.92162699252367">
        <ele>229.41</ele>
        <time>2025-05-20T07:52:42Z</time>
      </trkpt>
      <trkpt lat="46.175749003887177" lon="8.922685962170363">
        <ele>228.93000000000001</ele>
        <time>2025-05-20T07:52:52Z</time>
      </trkpt>
      <trkpt lat="46.175571978092194" lon="8.924675993621349">
        <ele>225.09</ele>
        <time>2025-05-20T07:53:05Z</time>
      </trkpt>
      <trkpt lat="46.175373997539282" lon="8.926629982888699">
        <ele>227.00999999999999</ele>
        <time>2025-05-20T07:53:17Z</time>
      </trkpt>
      <trkpt lat="46.17485398426652" lon="8.92837199382484">
        <ele>223.16</ele>
        <time>2025-05-20T07:53:28Z</time>
      </trkpt>
      <trkpt lat="46.174561958760023" lon="8.92927497625351">
        <ele>223.16</ele>
        <time>2025-05-20T07:53:34Z</time>
      </trkpt>
      <trkpt lat="46.174518959596753" lon="8.929436998441815">
        <ele>223.16</ele>
        <time>2025-05-20T07:53:35Z</time>
      </trkpt>
      <trkpt lat="46.174321984872222" lon="8.930437965318561">
        <ele>220.28</ele>
        <time>2025-05-20T07:53:41Z</time>
      </trkpt>
      <trkpt lat="46.174203967675567" lon="8.932896964251995">
        <ele>218.36000000000001</ele>
        <time>2025-05-20T07:53:54Z</time>
      </trkpt>
      <trkpt lat="46.174104977399111" lon="8.936442006379366">
        <ele>225.56999999999999</ele>
        <time>2025-05-20T07:54:12Z</time>
      </trkpt>
      <trkpt lat="46.174035994336009" lon="8.938907040283084">
        <ele>236.13999999999999</ele>
        <time>2025-05-20T07:54:25Z</time>
      </trkpt>
      <trkpt lat="46.174035994336009" lon="8.939238041639328">
        <ele>238.06</ele>
        <time>2025-05-20T07:54:27Z</time>
      </trkpt>
      <trkpt lat="46.174035994336009" lon="8.939404003322125">
        <ele>239.02000000000001</ele>
        <time>2025-05-20T07:54:28Z</time>
      </trkpt>
      <trkpt lat="46.174095002934337" lon="8.941006036475301">
        <ele>246.72</ele>
        <time>2025-05-20T07:54:38Z</time>
      </trkpt>
      <trkpt lat="46.174194999039173" lon="8.94283002242446">
        <ele>241.91</ele>
        <time>2025-05-20T07:54:48Z</time>
      </trkpt>
      <trkpt lat="46.174276974052191" lon="8.944964976981282">
        <ele>230.37</ele>
        <time>2025-05-20T07:55:00Z</time>
      </trkpt>
      <trkpt lat="46.174297006800771" lon="8.946991972625256">
        <ele>224.12</ele>
        <time>2025-05-20T07:55:11Z</time>
      </trkpt>
      <trkpt lat="46.174260964617133" lon="8.948544971644878">
        <ele>222.19999999999999</ele>
        <time>2025-05-20T07:55:19Z</time>
      </trkpt>
      <trkpt lat="46.174263982102275" lon="8.949879035353661">
        <ele>222.19999999999999</ele>
        <time>2025-05-20T07:55:27Z</time>
      </trkpt>
      <trkpt lat="46.174623984843493" lon="8.95200896076858">
        <ele>223.16</ele>
        <time>2025-05-20T07:55:38Z</time>
      </trkpt>
      <trkpt lat="46.175164030864835" lon="8.954194039106369">
        <ele>223.63999999999999</ele>
        <time>2025-05-20T07:55:50Z</time>
      </trkpt>
      <trkpt lat="46.175867021083832" lon="8.956946991384029">
        <ele>223.63999999999999</ele>
        <time>2025-05-20T07:56:05Z</time>
      </trkpt>
      <trkpt lat="46.176642011851072" lon="8.959760963916779">
        <ele>227.00999999999999</ele>
        <time>2025-05-20T07:56:20Z</time>
      </trkpt>
      <trkpt lat="46.176998997107148" lon="8.961563995108008">
        <ele>227.49000000000001</ele>
        <time>2025-05-20T07:56:29Z</time>
      </trkpt>
      <trkpt lat="46.177140986546874" lon="8.963447995483875">
        <ele>231.81</ele>
        <time>2025-05-20T07:56:39Z</time>
      </trkpt>
      <trkpt lat="46.177121037617326" lon="8.963814033195376">
        <ele>232.30000000000001</ele>
        <time>2025-05-20T07:56:41Z</time>
      </trkpt>
      <trkpt lat="46.177092958241701" lon="8.96416699513793">
        <ele>232.30000000000001</ele>
        <time>2025-05-20T07:56:43Z</time>
      </trkpt>
      <trkpt lat="46.177035961300135" lon="8.964332034811378">
        <ele>232.30000000000001</ele>
        <time>2025-05-20T07:56:44Z</time>
      </trkpt>
      <trkpt lat="46.176776960492134" lon="8.96513401530683">
        <ele>233.25999999999999</ele>
        <time>2025-05-20T07:56:49Z</time>
      </trkpt>
      <trkpt lat="46.17676698602736" lon="8.965310035273433">
        <ele>233.74000000000001</ele>
        <time>2025-05-20T07:56:50Z</time>
      </trkpt>
      <trkpt lat="46.176764974370599" lon="8.965492006391287">
        <ele>234.22</ele>
        <time>2025-05-20T07:56:51Z</time>
      </trkpt>
      <trkpt lat="46.176878968253732" lon="8.967244997620583">
        <ele>238.06</ele>
        <time>2025-05-20T07:57:00Z</time>
      </trkpt>
      <trkpt lat="46.177440974861383" lon="8.969170991331339">
        <ele>239.02000000000001</ele>
        <time>2025-05-20T07:57:10Z</time>
      </trkpt>
      <trkpt lat="46.17794799618423" lon="8.970461972057819">
        <ele>237.09999999999999</ele>
        <time>2025-05-20T07:57:18Z</time>
      </trkpt>
      <trkpt lat="46.178273968398571" lon="8.971388004720211">
        <ele>235.66</ele>
        <time>2025-05-20T07:57:26Z</time>
      </trkpt>
      <trkpt lat="46.178717035800219" lon="8.972863974049687">
        <ele>233.25999999999999</ele>
        <time>2025-05-20T07:57:33Z</time>
      </trkpt>
      <trkpt lat="46.17941097356379" lon="8.9751479588449">
        <ele>231.33000000000001</ele>
        <time>2025-05-20T07:57:44Z</time>
      </trkpt>
      <trkpt lat="46.180023020133376" lon="8.97679902613163">
        <ele>227.97</ele>
        <time>2025-05-20T07:57:53Z</time>
      </trkpt>
      <trkpt lat="46.180112035945058" lon="8.976935986429453">
        <ele>227.00999999999999</ele>
        <time>2025-05-20T07:57:54Z</time>
      </trkpt>
      <trkpt lat="46.180194010958076" lon="8.977062972262502">
        <ele>226.53</ele>
        <time>2025-05-20T07:57:55Z</time>
      </trkpt>
      <trkpt lat="46.180919967591763" lon="8.978182962164283">
        <ele>224.12</ele>
        <time>2025-05-20T07:58:05Z</time>
      </trkpt>
      <trkpt lat="46.181510975584388" lon="8.979630013927817">
        <ele>224.12</ele>
        <time>2025-05-20T07:58:15Z</time>
      </trkpt>
      <trkpt lat="46.182143976911902" lon="8.980958964675665">
        <ele>227.97</ele>
        <time>2025-05-20T07:58:24Z</time>
      </trkpt>
      <trkpt lat="46.182832969352603" lon="8.982021035626531">
        <ele>228.93000000000001</ele>
        <time>2025-05-20T07:58:32Z</time>
      </trkpt>
      <trkpt lat="46.182906981557608" lon="8.98219102062285">
        <ele>228.93000000000001</ele>
        <time>2025-05-20T07:58:33Z</time>
      </trkpt>
      <trkpt lat="46.182962972670794" lon="8.982367962598801">
        <ele>228.93000000000001</ele>
        <time>2025-05-20T07:58:34Z</time>
      </trkpt>
      <trkpt lat="46.183560015633702" lon="8.984304014593363">
        <ele>230.84999999999999</ele>
        <time>2025-05-20T07:58:46Z</time>
      </trkpt>
      <trkpt lat="46.183980032801628" lon="8.98563195951283">
        <ele>235.66</ele>
        <time>2025-05-20T07:58:56Z</time>
      </trkpt>
      <trkpt lat="46.184022026136518" lon="8.985767997801304">
        <ele>236.13999999999999</ele>
        <time>2025-05-20T07:58:57Z</time>
      </trkpt>
      <trkpt lat="46.184065025299788" lon="8.985905963927507">
        <ele>236.62</ele>
        <time>2025-05-20T07:58:58Z</time>
      </trkpt>
      <trkpt lat="46.18445998057723" lon="8.987218989059329">
        <ele>241.43000000000001</ele>
        <time>2025-05-20T07:59:08Z</time>
      </trkpt>
      <trkpt lat="46.184922996908426" lon="8.98872303776443">
        <ele>249.59999999999999</ele>
        <time>2025-05-20T07:59:19Z</time>
      </trkpt>
      <trkpt lat="46.185249974951148" lon="8.989759040996432">
        <ele>254.41</ele>
        <time>2025-05-20T07:59:28Z</time>
      </trkpt>
      <trkpt lat="46.185477040708065" lon="8.990516010671854">
        <ele>256.81</ele>
        <time>2025-05-20T07:59:34Z</time>
      </trkpt>
      <trkpt lat="46.185520039871335" lon="8.990661017596722">
        <ele>257.29000000000002</ele>
        <time>2025-05-20T07:59:35Z</time>
      </trkpt>
      <trkpt lat="46.185821034014225" lon="8.991683023050427">
        <ele>259.69</ele>
        <time>2025-05-20T07:59:42Z</time>
      </trkpt>
      <trkpt lat="46.185865039005876" lon="8.991821995005012">
        <ele>260.17000000000002</ele>
        <time>2025-05-20T07:59:43Z</time>
      </trkpt>
      <trkpt lat="46.186444982886314" lon="8.993292013183236">
        <ele>265.45999999999998</ele>
        <time>2025-05-20T07:59:54Z</time>
      </trkpt>
      <trkpt lat="46.187148978933692" lon="8.994550975039601">
        <ele>261.62</ele>
        <time>2025-05-20T08:00:05Z</time>
      </trkpt>
      <trkpt lat="46.187305971980095" lon="8.994836965575814">
        <ele>260.64999999999998</ele>
        <time>2025-05-20T08:00:08Z</time>
      </trkpt>
      <trkpt lat="46.187768988311291" lon="8.995679011568427">
        <ele>257.76999999999998</ele>
        <time>2025-05-20T08:00:16Z</time>
      </trkpt>
      <trkpt lat="46.187818022444844" lon="8.995766015723348">
        <ele>257.29000000000002</ele>
        <time>2025-05-20T08:00:17Z</time>
      </trkpt>
      <trkpt lat="46.188180036842823" lon="8.996428018435836">
        <ele>255.37</ele>
        <time>2025-05-20T08:00:24Z</time>
      </trkpt>
      <trkpt lat="46.188210966065526" lon="8.996487027034164">
        <ele>255.37</ele>
        <time>2025-05-20T08:00:25Z</time>
      </trkpt>
      <trkpt lat="46.188300987705588" lon="8.99665298871696">
        <ele>254.88999999999999</ele>
        <time>2025-05-20T08:00:30Z</time>
      </trkpt>
      <trkpt lat="46.188626037910581" lon="8.997277021408081">
        <ele>252.47999999999999</ele>
        <time>2025-05-20T08:00:37Z</time>
      </trkpt>
      <trkpt lat="46.189170023426414" lon="8.998642014339566">
        <ele>249.12</ele>
        <time>2025-05-20T08:00:47Z</time>
      </trkpt>
      <trkpt lat="46.189221991226077" lon="8.998792972415686">
        <ele>248.63999999999999</ele>
        <time>2025-05-20T08:00:48Z</time>
      </trkpt>
      <trkpt lat="46.189326010644436" lon="8.999088015407324">
        <ele>247.68000000000001</ele>
        <time>2025-05-20T08:00:50Z</time>
      </trkpt>
      <trkpt lat="46.189376972615719" lon="8.999233022332192">
        <ele>247.19999999999999</ele>
        <time>2025-05-20T08:00:51Z</time>
      </trkpt>
      <trkpt lat="46.190013997256756" lon="9.001001017168164">
        <ele>239.99000000000001</ele>
        <time>2025-05-20T08:01:03Z</time>
      </trkpt>
      <trkpt lat="46.190269980579615" lon="9.001738037914038">
        <ele>237.09999999999999</ele>
        <time>2025-05-20T08:01:08Z</time>
      </trkpt>
      <trkpt lat="46.190321026369929" lon="9.001883966848254">
        <ele>236.13999999999999</ele>
        <time>2025-05-20T08:01:09Z</time>
      </trkpt>
      <trkpt lat="46.190371988341212" lon="9.002031991258264">
        <ele>235.66</ele>
        <time>2025-05-20T08:01:10Z</time>
      </trkpt>
      <trkpt lat="46.191089982166886" lon="9.003736032173038">
        <ele>232.78</ele>
        <time>2025-05-20T08:01:22Z</time>
      </trkpt>
      <trkpt lat="46.191616030409932" lon="9.005001028999686">
        <ele>235.66</ele>
        <time>2025-05-20T08:01:32Z</time>
      </trkpt>
      <trkpt lat="46.191659029573202" lon="9.005219964310527">
        <ele>237.09999999999999</ele>
        <time>2025-05-20T08:01:39Z</time>
      </trkpt>
      <trkpt lat="46.191674033179879" lon="9.00529196485877">
        <ele>237.58000000000001</ele>
        <time>2025-05-20T08:01:53Z</time>
      </trkpt>
      <trkpt lat="46.191674033179879" lon="9.00529196485877">
        <ele>237.58000000000001</ele>
        <time>2025-05-20T08:01:54Z</time>
      </trkpt>
      <trkpt lat="46.191802024841309" lon="9.005555994808674">
        <ele>237.58000000000001</ele>
        <time>2025-05-20T08:01:55Z</time>
      </trkpt>
      <trkpt lat="46.191864972934127" lon="9.005549037829042">
        <ele>237.09999999999999</ele>
        <time>2025-05-20T08:01:56Z</time>
      </trkpt>
      <trkpt lat="46.19193403981626" lon="9.005541997030377">
        <ele>237.09999999999999</ele>
        <time>2025-05-20T08:01:57Z</time>
      </trkpt>
      <trkpt lat="46.192060019820929" lon="9.005527999252081">
        <ele>237.09999999999999</ele>
        <time>2025-05-20T08:01:58Z</time>
      </trkpt>
      <trkpt lat="46.19210796430707" lon="9.005594970658422">
        <ele>236.62</ele>
        <time>2025-05-20T08:01:59Z</time>
      </trkpt>
      <trkpt lat="46.192183988168836" lon="9.005701001733542">
        <ele>236.62</ele>
        <time>2025-05-20T08:02:00Z</time>
      </trkpt>
      <trkpt lat="46.192275015637279" lon="9.00582798756659">
        <ele>236.62</ele>
        <time>2025-05-20T08:02:01Z</time>
      </trkpt>
      <trkpt lat="46.192330000922084" lon="9.005981041118503">
        <ele>236.62</ele>
        <time>2025-05-20T08:02:02Z</time>
      </trkpt>
      <trkpt lat="46.19264398701489" lon="9.006855022162199">
        <ele>235.18000000000001</ele>
        <time>2025-05-20T08:02:07Z</time>
      </trkpt>
      <trkpt lat="46.192738031968474" lon="9.007014026865363">
        <ele>235.18000000000001</ele>
        <time>2025-05-20T08:02:08Z</time>
      </trkpt>
      <trkpt lat="46.192842973396182" lon="9.007166996598244">
        <ele>235.18000000000001</ele>
        <time>2025-05-20T08:02:09Z</time>
      </trkpt>
      <trkpt lat="46.192954033613205" lon="9.007318960502744">
        <ele>235.18000000000001</ele>
        <time>2025-05-20T08:02:10Z</time>
      </trkpt>
      <trkpt lat="46.193091999739408" lon="9.007419962435961">
        <ele>234.69999999999999</ele>
        <time>2025-05-20T08:02:11Z</time>
      </trkpt>
      <trkpt lat="46.193231977522373" lon="9.007522976025939">
        <ele>235.18000000000001</ele>
        <time>2025-05-20T08:02:12Z</time>
      </trkpt>
      <trkpt lat="46.193373966962099" lon="9.007626995444298">
        <ele>235.18000000000001</ele>
        <time>2025-05-20T08:02:13Z</time>
      </trkpt>
      <trkpt lat="46.194269992411137" lon="9.008187996223569">
        <ele>237.09999999999999</ele>
        <time>2025-05-20T08:02:19Z</time>
      </trkpt>
      <trkpt lat="46.194420028477907" lon="9.008248010650277">
        <ele>237.58000000000001</ele>
        <time>2025-05-20T08:02:20Z</time>
      </trkpt>
      <trkpt lat="46.195808993652463" lon="9.008687976747751">
        <ele>241.43000000000001</ele>
        <time>2025-05-20T08:02:30Z</time>
      </trkpt>
      <trkpt lat="46.195937991142273" lon="9.008707003667951">
        <ele>241.43000000000001</ele>
        <time>2025-05-20T08:02:31Z</time>
      </trkpt>
      <trkpt lat="46.196186011657119" lon="9.008743967860937">
        <ele>241.91</ele>
        <time>2025-05-20T08:02:33Z</time>
      </trkpt>
      <trkpt lat="46.196297993883491" lon="9.008795013651252">
        <ele>241.91</ele>
        <time>2025-05-20T08:02:34Z</time>
      </trkpt>
      <trkpt lat="46.197442961856723" lon="9.009288037195802">
        <ele>241.43000000000001</ele>
        <time>2025-05-20T08:02:43Z</time>
      </trkpt>
      <trkpt lat="46.199450008571148" lon="9.010094041004777">
        <ele>242.87</ele>
        <time>2025-05-20T08:02:58Z</time>
      </trkpt>
      <trkpt lat="46.200267998501658" lon="9.010661998763681">
        <ele>244.31</ele>
        <time>2025-05-20T08:03:06Z</time>
      </trkpt>
      <trkpt lat="46.20035600848496" lon="9.010770041495562">
        <ele>244.78999999999999</ele>
        <time>2025-05-20T08:03:07Z</time>
      </trkpt>
      <trkpt lat="46.200432032346725" lon="9.010893004015088">
        <ele>245.27000000000001</ele>
        <time>2025-05-20T08:03:08Z</time>
      </trkpt>
      <trkpt lat="46.201213980093598" lon="9.012355981394649">
        <ele>249.59999999999999</ele>
        <time>2025-05-20T08:03:19Z</time>
      </trkpt>
      <trkpt lat="46.201939014717937" lon="9.013680992648006">
        <ele>251.52000000000001</ele>
        <time>2025-05-20T08:03:29Z</time>
      </trkpt>
      <trkpt lat="46.202013026922941" lon="9.013815019279718">
        <ele>251.52000000000001</ele>
        <time>2025-05-20T08:03:30Z</time>
      </trkpt>
      <trkpt lat="46.202081004157662" lon="9.013938987627626">
        <ele>252</ele>
        <time>2025-05-20T08:03:31Z</time>
      </trkpt>
      <trkpt lat="46.202261969447136" lon="9.01414199732244">
        <ele>251.52000000000001</ele>
        <time>2025-05-20T08:03:33Z</time>
      </trkpt>
      <trkpt lat="46.202354002743959" lon="9.014245010912418">
        <ele>251.03999999999999</ele>
        <time>2025-05-20T08:03:34Z</time>
      </trkpt>
      <trkpt lat="46.202792041003704" lon="9.014756977558136">
        <ele>248.63999999999999</ele>
        <time>2025-05-20T08:03:40Z</time>
      </trkpt>
      <trkpt lat="46.202838979661465" lon="9.01480701752007">
        <ele>248.16</ele>
        <time>2025-05-20T08:03:41Z</time>
      </trkpt>
      <trkpt lat="46.202877033501863" lon="9.014856973662973">
        <ele>248.16</ele>
        <time>2025-05-20T08:03:42Z</time>
      </trkpt>
      <trkpt lat="46.202878039330244" lon="9.015042968094349">
        <ele>247.68000000000001</ele>
        <time>2025-05-20T08:03:44Z</time>
      </trkpt>
      <trkpt lat="46.202939981594682" lon="9.015109017491341">
        <ele>247.68000000000001</ele>
        <time>2025-05-20T08:03:45Z</time>
      </trkpt>
      <trkpt lat="46.202981974929571" lon="9.015118991956115">
        <ele>247.68000000000001</ele>
        <time>2025-05-20T08:03:46Z</time>
      </trkpt>
      <trkpt lat="46.202981974929571" lon="9.015118991956115">
        <ele>247.19999999999999</ele>
        <time>2025-05-20T08:03:47Z</time>
      </trkpt>
      <trkpt lat="46.203110972419381" lon="9.015055038034916">
        <ele>247.19999999999999</ele>
        <time>2025-05-20T08:03:48Z</time>
      </trkpt>
      <trkpt lat="46.203182972967625" lon="9.015125026926398">
        <ele>246.72</ele>
        <time>2025-05-20T08:03:49Z</time>
      </trkpt>
      <trkpt lat="46.203243993222713" lon="9.015185041353107">
        <ele>246.22999999999999</ele>
        <time>2025-05-20T08:03:50Z</time>
      </trkpt>
      <trkpt lat="46.203800970688462" lon="9.015726009383798">
        <ele>242.38999999999999</ele>
        <time>2025-05-20T08:03:57Z</time>
      </trkpt>
      <trkpt lat="46.203888980671763" lon="9.015809996053577">
        <ele>241.91</ele>
        <time>2025-05-20T08:03:58Z</time>
      </trkpt>
      <trkpt lat="46.204405976459384" lon="9.016247028484941">
        <ele>239.99000000000001</ele>
        <time>2025-05-20T08:04:04Z</time>
      </trkpt>
      <trkpt lat="46.204484011977911" lon="9.016321040689945">
        <ele>239.50999999999999</ele>
        <time>2025-05-20T08:04:05Z</time>
      </trkpt>
      <trkpt lat="46.204552995041013" lon="9.016417013481259">
        <ele>239.50999999999999</ele>
        <time>2025-05-20T08:04:06Z</time>
      </trkpt>
      <trkpt lat="46.204678975045681" lon="9.016594039276242">
        <ele>239.02000000000001</ele>
        <time>2025-05-20T08:04:08Z</time>
      </trkpt>
      <trkpt lat="46.204742006957531" lon="9.016680959612131">
        <ele>238.53999999999999</ele>
        <time>2025-05-20T08:04:09Z</time>
      </trkpt>
      <trkpt lat="46.20484602637589" lon="9.016906013712287">
        <ele>239.02000000000001</ele>
        <time>2025-05-20T08:04:11Z</time>
      </trkpt>
      <trkpt lat="46.20488902553916" lon="9.017054960131645">
        <ele>239.02000000000001</ele>
        <time>2025-05-20T08:04:12Z</time>
      </trkpt>
      <trkpt lat="46.20493495836854" lon="9.017209019511938">
        <ele>239.02000000000001</ele>
        <time>2025-05-20T08:04:13Z</time>
      </trkpt>
      <trkpt lat="46.205206029117107" lon="9.018134968355298">
        <ele>239.99000000000001</ele>
        <time>2025-05-20T08:04:19Z</time>
      </trkpt>
      <trkpt lat="46.205253973603249" lon="9.018260026350617">
        <ele>240.47</ele>
        <time>2025-05-20T08:04:20Z</time>
      </trkpt>
      <trkpt lat="46.20532002300024" lon="9.018363961949945">
        <ele>240.94999999999999</ele>
        <time>2025-05-20T08:04:21Z</time>
      </trkpt>
      <trkpt lat="46.205383976921439" lon="9.018464041873813">
        <ele>241.43000000000001</ele>
        <time>2025-05-20T08:04:22Z</time>
      </trkpt>
      <trkpt lat="46.205461006611586" lon="9.018535958603025">
        <ele>241.91</ele>
        <time>2025-05-20T08:04:23Z</time>
      </trkpt>
      <trkpt lat="46.205541975796223" lon="9.018609970808029">
        <ele>242.87</ele>
        <time>2025-05-20T08:04:24Z</time>
      </trkpt>
      <trkpt lat="46.205778010189533" lon="9.018824966624379">
        <ele>245.75</ele>
        <time>2025-05-20T08:04:27Z</time>
      </trkpt>
      <trkpt lat="46.20587901212275" lon="9.018916999921203">
        <ele>246.22999999999999</ele>
        <time>2025-05-20T08:04:28Z</time>
      </trkpt>
      <trkpt lat="46.205931985750794" lon="9.018999980762601">
        <ele>247.19999999999999</ele>
        <time>2025-05-20T08:04:29Z</time>
      </trkpt>
      <trkpt lat="46.206304980441928" lon="9.019551007077098">
        <ele>250.56</ele>
        <time>2025-05-20T08:04:34Z</time>
      </trkpt>
      <trkpt lat="46.206385027617216" lon="9.019665000960231">
        <ele>251.03999999999999</ele>
        <time>2025-05-20T08:04:35Z</time>
      </trkpt>
      <trkpt lat="46.206461973488331" lon="9.019774971529841">
        <ele>251.03999999999999</ele>
        <time>2025-05-20T08:04:36Z</time>
      </trkpt>
      <trkpt lat="46.207120958715677" lon="9.02116603218019">
        <ele>248.16</ele>
        <time>2025-05-20T08:04:46Z</time>
      </trkpt>
      <trkpt lat="46.207233024761081" lon="9.021451016888022">
        <ele>247.68000000000001</ele>
        <time>2025-05-20T08:04:48Z</time>
      </trkpt>
      <trkpt lat="46.207534018903971" lon="9.02303502894938">
        <ele>247.68000000000001</ele>
        <time>2025-05-20T08:04:58Z</time>
      </trkpt>
      <trkpt lat="46.207892009988427" lon="9.02445500716567">
        <ele>250.08000000000001</ele>
        <time>2025-05-20T08:05:06Z</time>
      </trkpt>
      <trkpt lat="46.208060989156365" lon="9.024820039048791">
        <ele>250.56</ele>
        <time>2025-05-20T08:05:08Z</time>
      </trkpt>
      <trkpt lat="46.208992972970009" lon="9.025832992047072">
        <ele>252</ele>
        <time>2025-05-20T08:05:15Z</time>
      </trkpt>
      <trkpt lat="46.209966028109193" lon="9.026526007801294">
        <ele>253.44</ele>
        <time>2025-05-20T08:05:22Z</time>
      </trkpt>
      <trkpt lat="46.21030599810183" lon="9.026935966685414">
        <ele>257.29000000000002</ele>
        <time>2025-05-20T08:05:26Z</time>
      </trkpt>
      <trkpt lat="46.210379004478455" lon="9.027043003588915">
        <ele>257.76999999999998</ele>
        <time>2025-05-20T08:05:27Z</time>
      </trkpt>
      <trkpt lat="46.210449999198318" lon="9.027148028835654">
        <ele>258.25</ele>
        <time>2025-05-20T08:05:28Z</time>
      </trkpt>
      <trkpt lat="46.210793992504478" lon="9.028444038704038">
        <ele>263.06</ele>
        <time>2025-05-20T08:05:37Z</time>
      </trkpt>
      <trkpt lat="46.210916033014655" lon="9.029642986133695">
        <ele>267.86000000000001</ele>
        <time>2025-05-20T08:05:46Z</time>
      </trkpt>
      <trkpt lat="46.210960038006306" lon="9.030120000243187">
        <ele>268.82999999999998</ele>
        <time>2025-05-20T08:05:50Z</time>
      </trkpt>
      <trkpt lat="46.210989039391279" lon="9.030207004398108">
        <ele>268.82999999999998</ele>
        <time>2025-05-20T08:05:51Z</time>
      </trkpt>
      <trkpt lat="46.211037989705801" lon="9.03029702603817">
        <ele>269.31</ele>
        <time>2025-05-20T08:05:52Z</time>
      </trkpt>
      <trkpt lat="46.211092974990606" lon="9.030397022143006">
        <ele>269.31</ele>
        <time>2025-05-20T08:05:53Z</time>
      </trkpt>
      <trkpt lat="46.211157012730837" lon="9.030451001599431">
        <ele>269.31</ele>
        <time>2025-05-20T08:05:54Z</time>
      </trkpt>
      <trkpt lat="46.211232030764222" lon="9.030514033511281">
        <ele>269.79000000000002</ele>
        <time>2025-05-20T08:05:55Z</time>
      </trkpt>
      <trkpt lat="46.211310988292098" lon="9.030579999089241">
        <ele>270.26999999999998</ele>
        <time>2025-05-20T08:05:56Z</time>
      </trkpt>
      <trkpt lat="46.211392963305116" lon="9.030649987980723">
        <ele>270.26999999999998</ele>
        <time>2025-05-20T08:05:57Z</time>
      </trkpt>
      <trkpt lat="46.211472004652023" lon="9.030716037377715">
        <ele>270.75</ele>
        <time>2025-05-20T08:05:58Z</time>
      </trkpt>
      <trkpt lat="46.211536964401603" lon="9.030802035704255">
        <ele>271.23000000000002</ele>
        <time>2025-05-20T08:05:59Z</time>
      </trkpt>
      <trkpt lat="46.211593961343169" lon="9.03090002015233">
        <ele>271.70999999999998</ele>
        <time>2025-05-20T08:06:00Z</time>
      </trkpt>
      <trkpt lat="46.211651964113116" lon="9.030996998772025">
        <ele>271.70999999999998</ele>
        <time>2025-05-20T08:06:01Z</time>
      </trkpt>
      <trkpt lat="46.2118099629879" lon="9.031280977651477">
        <ele>273.14999999999998</ele>
        <time>2025-05-20T08:06:04Z</time>
      </trkpt>
      <trkpt lat="46.212557964026928" lon="9.032327961176634">
        <ele>277.95999999999998</ele>
        <time>2025-05-20T08:06:15Z</time>
      </trkpt>
      <trkpt lat="46.213288027793169" lon="9.03300697915256">
        <ele>281.31999999999999</ele>
        <time>2025-05-20T08:06:24Z</time>
      </trkpt>
      <trkpt lat="46.213371008634567" lon="9.033084008842707">
        <ele>281.80000000000001</ele>
        <time>2025-05-20T08:06:25Z</time>
      </trkpt>
      <trkpt lat="46.214373987168074" lon="9.033771995455027">
        <ele>284.69</ele>
        <time>2025-05-20T08:06:36Z</time>
      </trkpt>
      <trkpt lat="46.214639022946358" lon="9.033867968246341">
        <ele>285.17000000000002</ele>
        <time>2025-05-20T08:06:39Z</time>
      </trkpt>
      <trkpt lat="46.214720997959375" lon="9.03386696241796">
        <ele>285.64999999999998</ele>
        <time>2025-05-20T08:06:40Z</time>
      </trkpt>
      <trkpt lat="46.214812025427818" lon="9.033857993781567">
        <ele>285.64999999999998</ele>
        <time>2025-05-20T08:06:41Z</time>
      </trkpt>
      <trkpt lat="46.214901963248849" lon="9.033832009881735">
        <ele>285.64999999999998</ele>
        <time>2025-05-20T08:06:42Z</time>
      </trkpt>
      <trkpt lat="46.214990979060531" lon="9.033776018768549">
        <ele>285.64999999999998</ele>
        <time>2025-05-20T08:06:43Z</time>
      </trkpt>
      <trkpt lat="46.215079994872212" lon="9.033706029877067">
        <ele>286.13</ele>
        <time>2025-05-20T08:06:44Z</time>
      </trkpt>
      <trkpt lat="46.215252997353673" lon="9.033532021567226">
        <ele>286.13</ele>
        <time>2025-05-20T08:06:46Z</time>
      </trkpt>
      <trkpt lat="46.215319968760014" lon="9.03343697078526">
        <ele>286.13</ele>
        <time>2025-05-20T08:06:47Z</time>
      </trkpt>
      <trkpt lat="46.215530019253492" lon="9.033180987462401">
        <ele>285.17000000000002</ele>
        <time>2025-05-20T08:06:50Z</time>
      </trkpt>
      <trkpt lat="46.215605037286878" lon="9.0331120043993">
        <ele>284.20999999999998</ele>
        <time>2025-05-20T08:06:51Z</time>
      </trkpt>
      <trkpt lat="46.215688018128276" lon="9.033051989972591">
        <ele>283.73000000000002</ele>
        <time>2025-05-20T08:06:52Z</time>
      </trkpt>
      <trkpt lat="46.215775022283196" lon="9.033032963052392">
        <ele>282.76999999999998</ele>
        <time>2025-05-20T08:06:53Z</time>
      </trkpt>
      <trkpt lat="46.215867977589369" lon="9.033013014122844">
        <ele>282.27999999999997</ele>
        <time>2025-05-20T08:06:54Z</time>
      </trkpt>
      <trkpt lat="46.216315990313888" lon="9.032950988039374">
        <ele>280.83999999999997</ele>
        <time>2025-05-20T08:06:59Z</time>
      </trkpt>
      <trkpt lat="46.216386985033751" lon="9.032950988039374">
        <ele>280.83999999999997</ele>
        <time>2025-05-20T08:07:00Z</time>
      </trkpt>
      <trkpt lat="46.216454040259123" lon="9.032979989424348">
        <ele>280.36000000000001</ele>
        <time>2025-05-20T08:07:01Z</time>
      </trkpt>
      <trkpt lat="46.216499973088503" lon="9.033015025779605">
        <ele>280.36000000000001</ele>
        <time>2025-05-20T08:07:02Z</time>
      </trkpt>
      <trkpt lat="46.216543978080153" lon="9.03313203714788">
        <ele>279.88</ele>
        <time>2025-05-20T08:07:03Z</time>
      </trkpt>
      <trkpt lat="46.216574991121888" lon="9.033233039081097">
        <ele>279.88</ele>
        <time>2025-05-20T08:07:04Z</time>
      </trkpt>
      <trkpt lat="46.216598963364959" lon="9.033344015479088">
        <ele>279.39999999999998</ele>
        <time>2025-05-20T08:07:05Z</time>
      </trkpt>
      <trkpt lat="46.216624025255442" lon="9.033459015190601">
        <ele>279.88</ele>
        <time>2025-05-20T08:07:06Z</time>
      </trkpt>
      <trkpt lat="46.216671969741583" lon="9.033716004341841">
        <ele>279.88</ele>
        <time>2025-05-20T08:07:08Z</time>
      </trkpt>
      <trkpt lat="46.216671969741583" lon="9.033847013488412">
        <ele>280.36000000000001</ele>
        <time>2025-05-20T08:07:09Z</time>
      </trkpt>
      <trkpt lat="46.216670963913202" lon="9.034111965447664">
        <ele>280.83999999999997</ele>
        <time>2025-05-20T08:07:11Z</time>
      </trkpt>
      <trkpt lat="46.216647997498512" lon="9.034217996522784">
        <ele>280.83999999999997</ele>
        <time>2025-05-20T08:07:12Z</time>
      </trkpt>
      <trkpt lat="46.216626036912203" lon="9.034314975142479">
        <ele>280.83999999999997</ele>
        <time>2025-05-20T08:07:13Z</time>
      </trkpt>
      <trkpt lat="46.216499973088503" lon="9.034495018422604">
        <ele>280.36000000000001</ele>
        <time>2025-05-20T08:07:14Z</time>
      </trkpt>
      <trkpt lat="46.216472983360291" lon="9.034516979008913">
        <ele>280.36000000000001</ele>
        <time>2025-05-20T08:07:15Z</time>
      </trkpt>
      <trkpt lat="46.216334011405706" lon="9.034677995368838">
        <ele>279.39999999999998</ele>
        <time>2025-05-20T08:07:17Z</time>
      </trkpt>
      <trkpt lat="46.216262010857463" lon="9.034794000908732">
        <ele>278.92000000000002</ele>
        <time>2025-05-20T08:07:18Z</time>
      </trkpt>
      <trkpt lat="46.215746020898223" lon="9.035632023587823">
        <ele>275.06999999999999</ele>
        <time>2025-05-20T08:07:24Z</time>
      </trkpt>
      <trkpt lat="46.215649964287877" lon="9.035787004977465">
        <ele>274.11000000000001</ele>
        <time>2025-05-20T08:07:25Z</time>
      </trkpt>
      <trkpt lat="46.21541996486485" lon="9.036240968853235">
        <ele>271.70999999999998</ele>
        <time>2025-05-20T08:07:28Z</time>
      </trkpt>
      <trkpt lat="46.215377971529961" lon="9.036408020183444">
        <ele>271.23000000000002</ele>
        <time>2025-05-20T08:07:29Z</time>
      </trkpt>
      <trkpt lat="46.215337989851832" lon="9.036570964381099">
        <ele>270.26999999999998</ele>
        <time>2025-05-20T08:07:30Z</time>
      </trkpt>
      <trkpt lat="46.215315023437142" lon="9.036721000447869">
        <ele>269.79000000000002</ele>
        <time>2025-05-20T08:07:31Z</time>
      </trkpt>
      <trkpt lat="46.215302031487226" lon="9.036896014586091">
        <ele>268.82999999999998</ele>
        <time>2025-05-20T08:07:32Z</time>
      </trkpt>
      <trkpt lat="46.215299014002085" lon="9.037070022895932">
        <ele>268.35000000000002</ele>
        <time>2025-05-20T08:07:33Z</time>
      </trkpt>
      <trkpt lat="46.215319968760014" lon="9.037391971796751">
        <ele>267.86000000000001</ele>
        <time>2025-05-20T08:07:34Z</time>
      </trkpt>
      <trkpt lat="46.215299014002085" lon="9.038815973326564">
        <ele>264.98000000000002</ele>
        <time>2025-05-20T08:07:43Z</time>
      </trkpt>
      <trkpt lat="46.215291973203421" lon="9.038947988301516">
        <ele>264.5</ele>
        <time>2025-05-20T08:07:44Z</time>
      </trkpt>
      <trkpt lat="46.215276969596744" lon="9.039066005498171">
        <ele>264.01999999999998</ele>
        <time>2025-05-20T08:07:45Z</time>
      </trkpt>
      <trkpt lat="46.215276969596744" lon="9.039113027974963">
        <ele>263.06</ele>
        <time>2025-05-20T08:07:46Z</time>
      </trkpt>
      <trkpt lat="46.215276969596744" lon="9.039162984117866">
        <ele>262.57999999999998</ele>
        <time>2025-05-20T08:07:47Z</time>
      </trkpt>
      <trkpt lat="46.215276969596744" lon="9.039191985502839">
        <ele>261.62</ele>
        <time>2025-05-20T08:07:48Z</time>
      </trkpt>
      <trkpt lat="46.215276969596744" lon="9.03921402990818">
        <ele>261.13999999999999</ele>
        <time>2025-05-20T08:07:49Z</time>
      </trkpt>
      <trkpt lat="46.215190971270204" lon="9.039281001314521">
        <ele>260.17000000000002</ele>
        <time>2025-05-20T08:07:50Z</time>
      </trkpt>
      <trkpt lat="46.215190971270204" lon="9.039281001314521">
        <ele>259.69</ele>
        <time>2025-05-20T08:07:51Z</time>
      </trkpt>
      <trkpt lat="46.215188037604094" lon="9.039288964122534">
        <ele>258.73000000000002</ele>
        <time>2025-05-20T08:07:52Z</time>
      </trkpt>
      <trkpt lat="46.215154007077217" lon="9.039393989369273">
        <ele>257.29000000000002</ele>
        <time>2025-05-20T08:07:54Z</time>
      </trkpt>
      <trkpt lat="46.215148977935314" lon="9.03940899297595">
        <ele>256.81</ele>
        <time>2025-05-20T08:07:55Z</time>
      </trkpt>
      <trkpt lat="46.215170016512275" lon="9.039517035707831">
        <ele>255.84999999999999</ele>
        <time>2025-05-20T08:07:56Z</time>
      </trkpt>
      <trkpt lat="46.215188037604094" lon="9.039518963545561">
        <ele>254.88999999999999</ele>
        <time>2025-05-20T08:07:57Z</time>
      </trkpt>
      <trkpt lat="46.215238999575377" lon="9.039526004344225">
        <ele>253.93000000000001</ele>
        <time>2025-05-20T08:07:58Z</time>
      </trkpt>
      <trkpt lat="46.215302031487226" lon="9.039534972980619">
        <ele>252.96000000000001</ele>
        <time>2025-05-20T08:07:59Z</time>
      </trkpt>
      <trkpt lat="46.215453995391726" lon="9.039552994072437">
        <ele>252</ele>
        <time>2025-05-20T08:08:01Z</time>
      </trkpt>
      <trkpt lat="46.216190010309219" lon="9.040178032591939">
        <ele>252.47999999999999</ele>
        <time>2025-05-20T08:08:09Z</time>
      </trkpt>
      <trkpt lat="46.216273996978998" lon="9.040283979848027">
        <ele>252.96000000000001</ele>
        <time>2025-05-20T08:08:10Z</time>
      </trkpt>
      <trkpt lat="46.216353038325906" lon="9.040403002873063">
        <ele>253.93000000000001</ele>
        <time>2025-05-20T08:08:11Z</time>
      </trkpt>
      <trkpt lat="46.216896018013358" lon="9.041649978607893">
        <ele>259.20999999999998</ele>
        <time>2025-05-20T08:08:22Z</time>
      </trkpt>
      <trkpt lat="46.216920996084809" lon="9.041716028004885">
        <ele>259.69</ele>
        <time>2025-05-20T08:08:23Z</time>
      </trkpt>
      <trkpt lat="46.216941028833389" lon="9.041770007461309">
        <ele>259.69</ele>
        <time>2025-05-20T08:08:24Z</time>
      </trkpt>
      <trkpt lat="46.216957038268447" lon="9.041813006624579">
        <ele>259.69</ele>
        <time>2025-05-20T08:08:25Z</time>
      </trkpt>
      <trkpt lat="46.216972041875124" lon="9.041854999959469">
        <ele>260.17000000000002</ele>
        <time>2025-05-20T08:08:26Z</time>
      </trkpt>
      <trkpt lat="46.21698503382504" lon="9.041897999122739">
        <ele>260.17000000000002</ele>
        <time>2025-05-20T08:08:27Z</time>
      </trkpt>
      <trkpt lat="46.217001965269446" lon="9.041959019377828">
        <ele>260.64999999999998</ele>
        <time>2025-05-20T08:08:28Z</time>
      </trkpt>
      <trkpt lat="46.216928958892822" lon="9.042134033516049">
        <ele>260.64999999999998</ele>
        <time>2025-05-20T08:08:29Z</time>
      </trkpt>
      <trkpt lat="46.216933988034725" lon="9.042163034901023">
        <ele>261.13999999999999</ele>
        <time>2025-05-20T08:08:30Z</time>
      </trkpt>
      <trkpt lat="46.21694496832788" lon="9.042246015742421">
        <ele>261.62</ele>
        <time>2025-05-20T08:08:31Z</time>
      </trkpt>
      <trkpt lat="46.216951003298163" lon="9.042284991592169">
        <ele>261.62</ele>
        <time>2025-05-20T08:08:32Z</time>
      </trkpt>
      <trkpt lat="46.217037001624703" lon="9.042349029332399">
        <ele>262.10000000000002</ele>
        <time>2025-05-20T08:08:33Z</time>
      </trkpt>
      <trkpt lat="46.217090981081128" lon="9.042411977425218">
        <ele>262.10000000000002</ele>
        <time>2025-05-20T08:08:34Z</time>
      </trkpt>
      <trkpt lat="46.217150995507836" lon="9.0424819663167">
        <ele>262.10000000000002</ele>
        <time>2025-05-20T08:08:35Z</time>
      </trkpt>
      <trkpt lat="46.21788801625371" lon="9.043377991765738">
        <ele>259.20999999999998</ele>
        <time>2025-05-20T08:08:45Z</time>
      </trkpt>
      <trkpt lat="46.218809019774199" lon="9.044244010001421">
        <ele>255.37</ele>
        <time>2025-05-20T08:08:54Z</time>
      </trkpt>
      <trkpt lat="46.21933096088469" lon="9.044493036344647">
        <ele>253.93000000000001</ele>
        <time>2025-05-20T08:08:58Z</time>
      </trkpt>
      <trkpt lat="46.220088014379144" lon="9.044780032709241">
        <ele>251.03999999999999</ele>
        <time>2025-05-20T08:09:04Z</time>
      </trkpt>
      <trkpt lat="46.220201002433896" lon="9.044848009943962">
        <ele>250.56</ele>
        <time>2025-05-20T08:09:05Z</time>
      </trkpt>
      <trkpt lat="46.220305021852255" lon="9.044952029362321">
        <ele>249.59999999999999</ele>
        <time>2025-05-20T08:09:06Z</time>
      </trkpt>
      <trkpt lat="46.220404012128711" lon="9.045066023245454">
        <ele>249.12</ele>
        <time>2025-05-20T08:09:07Z</time>
      </trkpt>
      <trkpt lat="46.220486992970109" lon="9.045213041827083">
        <ele>248.63999999999999</ele>
        <time>2025-05-20T08:09:08Z</time>
      </trkpt>
      <trkpt lat="46.22057500295341" lon="9.045368023216724">
        <ele>247.68000000000001</ele>
        <time>2025-05-20T08:09:09Z</time>
      </trkpt>
      <trkpt lat="46.220664018765092" lon="9.045528033748269">
        <ele>247.19999999999999</ele>
        <time>2025-05-20T08:09:10Z</time>
      </trkpt>
      <trkpt lat="46.220734007656574" lon="9.045717967674136">
        <ele>246.72</ele>
        <time>2025-05-20T08:09:11Z</time>
      </trkpt>
      <trkpt lat="46.221095016226172" lon="9.046645006164908">
        <ele>245.75</ele>
        <time>2025-05-20T08:09:16Z</time>
      </trkpt>
      <trkpt lat="46.22117598541081" lon="9.046808034181595">
        <ele>246.22999999999999</ele>
        <time>2025-05-20T08:09:17Z</time>
      </trkpt>
      <trkpt lat="46.221275981515646" lon="9.046942982822657">
        <ele>246.22999999999999</ele>
        <time>2025-05-20T08:09:18Z</time>
      </trkpt>
      <trkpt lat="46.221375977620482" lon="9.047073991969228">
        <ele>246.22999999999999</ele>
        <time>2025-05-20T08:09:19Z</time>
      </trkpt>
      <trkpt lat="46.221482008695602" lon="9.047166025266051">
        <ele>246.22999999999999</ele>
        <time>2025-05-20T08:09:20Z</time>
      </trkpt>
      <trkpt lat="46.221543028950691" lon="9.047220004722476">
        <ele>245.75</ele>
        <time>2025-05-20T08:09:21Z</time>
      </trkpt>
      <trkpt lat="46.221672026440501" lon="9.047263003885746">
        <ele>245.75</ele>
        <time>2025-05-20T08:09:22Z</time>
      </trkpt>
      <trkpt lat="46.221805969253182" lon="9.047323018312454">
        <ele>245.27000000000001</ele>
        <time>2025-05-20T08:09:23Z</time>
      </trkpt>
      <trkpt lat="46.221908982843161" lon="9.047341961413622">
        <ele>244.78999999999999</ele>
        <time>2025-05-20T08:09:24Z</time>
      </trkpt>
      <trkpt lat="46.222003027796745" lon="9.047359982505441">
        <ele>244.78999999999999</ele>
        <time>2025-05-20T08:09:25Z</time>
      </trkpt>
      <trkpt lat="46.222058013081551" lon="9.047370040789247">
        <ele>244.31</ele>
        <time>2025-05-20T08:09:26Z</time>
      </trkpt>
      <trkpt lat="46.222158009186387" lon="9.047370040789247">
        <ele>244.31</ele>
        <time>2025-05-20T08:09:27Z</time>
      </trkpt>
      <trkpt lat="46.22235800139606" lon="9.047519993036985">
        <ele>243.34999999999999</ele>
        <time>2025-05-20T08:09:29Z</time>
      </trkpt>
      <trkpt lat="46.222354983910918" lon="9.047514041885734">
        <ele>243.34999999999999</ele>
        <time>2025-05-20T08:09:30Z</time>
      </trkpt>
      <trkpt lat="46.222563022747636" lon="9.047735994681716">
        <ele>243.34999999999999</ele>
        <time>2025-05-20T08:09:33Z</time>
      </trkpt>
      <trkpt lat="46.222618008032441" lon="9.047848982736468">
        <ele>243.34999999999999</ele>
        <time>2025-05-20T08:09:34Z</time>
      </trkpt>
      <trkpt lat="46.222675004974008" lon="9.047964988276362">
        <ele>242.87</ele>
        <time>2025-05-20T08:09:35Z</time>
      </trkpt>
      <trkpt lat="46.222734013572335" lon="9.04808702878654">
        <ele>242.87</ele>
        <time>2025-05-20T08:09:36Z</time>
      </trkpt>
      <trkpt lat="46.222796039655805" lon="9.048213008791208">
        <ele>242.87</ele>
        <time>2025-05-20T08:09:37Z</time>
      </trkpt>
      <trkpt lat="46.223489977419376" lon="9.049628041684628">
        <ele>244.78999999999999</ele>
        <time>2025-05-20T08:09:48Z</time>
      </trkpt>
      <trkpt lat="46.22373104095459" lon="9.050102960318327">
        <ele>246.72</ele>
        <time>2025-05-20T08:09:53Z</time>
      </trkpt>
      <trkpt lat="46.224160026758909" lon="9.050973001867533">
        <ele>246.72</ele>
        <time>2025-05-20T08:10:01Z</time>
      </trkpt>
      <trkpt lat="46.225057980045676" lon="9.052779972553253">
        <ele>248.16</ele>
        <time>2025-05-20T08:10:13Z</time>
      </trkpt>
      <trkpt lat="46.225765999406576" lon="9.054206991568208">
        <ele>251.03999999999999</ele>
        <time>2025-05-20T08:10:22Z</time>
      </trkpt>
      <trkpt lat="46.226491034030914" lon="9.055682038888335">
        <ele>252</ele>
        <time>2025-05-20T08:10:30Z</time>
      </trkpt>
      <trkpt lat="46.227668020874262" lon="9.058053027838469">
        <ele>250.56</ele>
        <time>2025-05-20T08:10:41Z</time>
      </trkpt>
      <trkpt lat="46.227769022807479" lon="9.058255031704903">
        <ele>250.08000000000001</ele>
        <time>2025-05-20T08:10:42Z</time>
      </trkpt>
      <trkpt lat="46.228809971362352" lon="9.060374982655048">
        <ele>250.56</ele>
        <time>2025-05-20T08:10:53Z</time>
      </trkpt>
      <trkpt lat="46.229575993493199" lon="9.061906021088362">
        <ele>258.73000000000002</ele>
        <time>2025-05-20T08:11:02Z</time>
      </trkpt>
      <trkpt lat="46.230299016460776" lon="9.063382996246219">
        <ele>268.35000000000002</ele>
        <time>2025-05-20T08:11:13Z</time>
      </trkpt>
      <trkpt lat="46.230610990896821" lon="9.064019015058875">
        <ele>273.63</ele>
        <time>2025-05-20T08:11:18Z</time>
      </trkpt>
      <trkpt lat="46.230663964524865" lon="9.064121022820473">
        <ele>274.58999999999997</ele>
        <time>2025-05-20T08:11:19Z</time>
      </trkpt>
      <trkpt lat="46.230805031955242" lon="9.06439402140677">
        <ele>277.95999999999998</ele>
        <time>2025-05-20T08:11:22Z</time>
      </trkpt>
      <trkpt lat="46.230834033340216" lon="9.064574986696243">
        <ele>280.36000000000001</ele>
        <time>2025-05-20T08:11:24Z</time>
      </trkpt>
      <trkpt lat="46.230834033340216" lon="9.064800040796399">
        <ele>282.27999999999997</ele>
        <time>2025-05-20T08:11:26Z</time>
      </trkpt>
      <trkpt lat="46.230742000043392" lon="9.065258027985692">
        <ele>283.25</ele>
        <time>2025-05-20T08:11:30Z</time>
      </trkpt>
      <trkpt lat="46.230686008930206" lon="9.065476041287184">
        <ele>282.76999999999998</ele>
        <time>2025-05-20T08:11:32Z</time>
      </trkpt>
      <trkpt lat="46.230660025030375" lon="9.06557796522975">
        <ele>282.76999999999998</ele>
        <time>2025-05-20T08:11:33Z</time>
      </trkpt>
      <trkpt lat="46.230633035302162" lon="9.065680978819728">
        <ele>283.25</ele>
        <time>2025-05-20T08:11:34Z</time>
      </trkpt>
      <trkpt lat="46.230597998946905" lon="9.065802013501525">
        <ele>283.25</ele>
        <time>2025-05-20T08:11:35Z</time>
      </trkpt>
      <trkpt lat="46.230580983683467" lon="9.065880971029401">
        <ele>283.25</ele>
        <time>2025-05-20T08:11:36Z</time>
      </trkpt>
      <trkpt lat="46.230558017268777" lon="9.065980967134237">
        <ele>283.25</ele>
        <time>2025-05-20T08:11:37Z</time>
      </trkpt>
      <trkpt lat="46.230532033368945" lon="9.066084986552596">
        <ele>283.25</ele>
        <time>2025-05-20T08:11:38Z</time>
      </trkpt>
      <trkpt lat="46.23050102032721" lon="9.06620099209249">
        <ele>283.25</ele>
        <time>2025-05-20T08:11:39Z</time>
      </trkpt>
      <trkpt lat="46.230190973728895" lon="9.067153008654714">
        <ele>284.20999999999998</ele>
        <time>2025-05-20T08:11:46Z</time>
      </trkpt>
      <trkpt lat="46.230122996494174" lon="9.067288041114807">
        <ele>284.69</ele>
        <time>2025-05-20T08:11:47Z</time>
      </trkpt>
      <trkpt lat="46.229555960744619" lon="9.068667031824589">
        <ele>284.69</ele>
        <time>2025-05-20T08:11:56Z</time>
      </trkpt>
      <trkpt lat="46.229440039023757" lon="9.068962996825576">
        <ele>284.69</ele>
        <time>2025-05-20T08:11:58Z</time>
      </trkpt>
      <trkpt lat="46.229342976585031" lon="9.069211017340422">
        <ele>284.69</ele>
        <time>2025-05-20T08:12:00Z</time>
      </trkpt>
      <trkpt lat="46.229307018220425" lon="9.069342026486993">
        <ele>284.69</ele>
        <time>2025-05-20T08:12:01Z</time>
      </trkpt>
      <trkpt lat="46.229288997128606" lon="9.069461971521378">
        <ele>284.69</ele>
        <time>2025-05-20T08:12:02Z</time>
      </trkpt>
      <trkpt lat="46.229288997128606" lon="9.069619970396161">
        <ele>284.69</ele>
        <time>2025-05-20T08:12:03Z</time>
      </trkpt>
      <trkpt lat="46.229293020442128" lon="9.069772018119693">
        <ele>284.69</ele>
        <time>2025-05-20T08:12:04Z</time>
      </trkpt>
      <trkpt lat="46.22931900434196" lon="9.069937979802489">
        <ele>284.69</ele>
        <time>2025-05-20T08:12:05Z</time>
      </trkpt>
      <trkpt lat="46.229346999898553" lon="9.07011098228395">
        <ele>285.17000000000002</ele>
        <time>2025-05-20T08:12:06Z</time>
      </trkpt>
      <trkpt lat="46.229572976008058" lon="9.071244969964027">
        <ele>286.13</ele>
        <time>2025-05-20T08:12:12Z</time>
      </trkpt>
      <trkpt lat="46.22961999848485" lon="9.071423001587391">
        <ele>286.13</ele>
        <time>2025-05-20T08:12:13Z</time>
      </trkpt>
      <trkpt lat="46.229697028174996" lon="9.07159298658371">
        <ele>285.64999999999998</ele>
        <time>2025-05-20T08:12:14Z</time>
      </trkpt>
      <trkpt lat="46.230547036975622" lon="9.073422001674771">
        <ele>279.88</ele>
        <time>2025-05-20T08:12:24Z</time>
      </trkpt>
      <trkpt lat="46.231516990810633" lon="9.075282029807568">
        <ele>275.06999999999999</ele>
        <time>2025-05-20T08:12:35Z</time>
      </trkpt>
      <trkpt lat="46.23164095915854" lon="9.075368028134108">
        <ele>274.58999999999997</ele>
        <time>2025-05-20T08:12:36Z</time>
      </trkpt>
      <trkpt lat="46.231775991618633" lon="9.075459977611899">
        <ele>274.58999999999997</ele>
        <time>2025-05-20T08:12:37Z</time>
      </trkpt>
      <trkpt lat="46.23191898688674" lon="9.075557040050626">
        <ele>274.11000000000001</ele>
        <time>2025-05-20T08:12:38Z</time>
      </trkpt>
      <trkpt lat="46.232062987983227" lon="9.075655024498701">
        <ele>273.63</ele>
        <time>2025-05-20T08:12:39Z</time>
      </trkpt>
      <trkpt lat="46.232209000736475" lon="9.075755020603538">
        <ele>273.14999999999998</ele>
        <time>2025-05-20T08:12:40Z</time>
      </trkpt>
      <trkpt lat="46.232632035389543" lon="9.076066995039582">
        <ele>272.67000000000002</ele>
        <time>2025-05-20T08:12:43Z</time>
      </trkpt>
      <trkpt lat="46.232739994302392" lon="9.076210996136069">
        <ele>272.19</ele>
        <time>2025-05-20T08:12:44Z</time>
      </trkpt>
      <trkpt lat="46.23284200206399" lon="9.076347034424543">
        <ele>271.70999999999998</ele>
        <time>2025-05-20T08:12:45Z</time>
      </trkpt>
      <trkpt lat="46.232902016490698" lon="9.076511990278959">
        <ele>271.70999999999998</ele>
        <time>2025-05-20T08:12:46Z</time>
      </trkpt>
      <trkpt lat="46.232960019260645" lon="9.0766859985888">
        <ele>271.70999999999998</ele>
        <time>2025-05-20T08:12:47Z</time>
      </trkpt>
      <trkpt lat="46.232990026473999" lon="9.076859001070261">
        <ele>271.23000000000002</ele>
        <time>2025-05-20T08:12:48Z</time>
      </trkpt>
      <trkpt lat="46.233007041737437" lon="9.07705002464354">
        <ele>271.23000000000002</ele>
        <time>2025-05-20T08:12:49Z</time>
      </trkpt>
      <trkpt lat="46.233023973181844" lon="9.07724498771131">
        <ele>271.23000000000002</ele>
        <time>2025-05-20T08:12:50Z</time>
      </trkpt>
      <trkpt lat="46.233041994273663" lon="9.077443974092603">
        <ele>270.75</ele>
        <time>2025-05-20T08:12:51Z</time>
      </trkpt>
      <trkpt lat="46.233216002583504" lon="9.079424031078816">
        <ele>274.58999999999997</ele>
        <time>2025-05-20T08:13:00Z</time>
      </trkpt>
      <trkpt lat="46.233384981751442" lon="9.081070991232991">
        <ele>280.83999999999997</ele>
        <time>2025-05-20T08:13:07Z</time>
      </trkpt>
      <trkpt lat="46.233406020328403" lon="9.081291016191244">
        <ele>281.80000000000001</ele>
        <time>2025-05-20T08:13:08Z</time>
      </trkpt>
      <trkpt lat="46.233463017269969" lon="9.081477010622621">
        <ele>281.80000000000001</ele>
        <time>2025-05-20T08:13:09Z</time>
      </trkpt>
      <trkpt lat="46.234202971681952" lon="9.083654964342713">
        <ele>282.76999999999998</ele>
        <time>2025-05-20T08:13:20Z</time>
      </trkpt>
      <trkpt lat="46.235411977395415" lon="9.086901023983955">
        <ele>277</ele>
        <time>2025-05-20T08:13:36Z</time>
      </trkpt>
      <trkpt lat="46.236491985619068" lon="9.089852962642908">
        <ele>278.92000000000002</ele>
        <time>2025-05-20T08:13:50Z</time>
      </trkpt>
      <trkpt lat="46.237235041335225" lon="9.091865960508585">
        <ele>278.92000000000002</ele>
        <time>2025-05-20T08:14:00Z</time>
      </trkpt>
      <trkpt lat="46.238005002960563" lon="9.09417299553752">
        <ele>281.31999999999999</ele>
        <time>2025-05-20T08:14:12Z</time>
      </trkpt>
      <trkpt lat="46.238034004345536" lon="9.094378016889095">
        <ele>281.80000000000001</ele>
        <time>2025-05-20T08:14:13Z</time>
      </trkpt>
      <trkpt lat="46.23806401155889" lon="9.094586977735162">
        <ele>281.80000000000001</ele>
        <time>2025-05-20T08:14:14Z</time>
      </trkpt>
      <trkpt lat="46.238050013780594" lon="9.094799961894751">
        <ele>282.27999999999997</ele>
        <time>2025-05-20T08:14:15Z</time>
      </trkpt>
      <trkpt lat="46.238032998517156" lon="9.095015041530132">
        <ele>282.27999999999997</ele>
        <time>2025-05-20T08:14:16Z</time>
      </trkpt>
      <trkpt lat="46.238015983253717" lon="9.095230037346482">
        <ele>282.76999999999998</ele>
        <time>2025-05-20T08:14:17Z</time>
      </trkpt>
      <trkpt lat="46.237797969952226" lon="9.098093966022134">
        <ele>289.49000000000001</ele>
        <time>2025-05-20T08:14:30Z</time>
      </trkpt>
      <trkpt lat="46.237761005759239" lon="9.098696960136294">
        <ele>290.94</ele>
        <time>2025-05-20T08:14:33Z</time>
      </trkpt>
      <trkpt lat="46.237727981060743" lon="9.099251003935933">
        <ele>291.89999999999998</ele>
        <time>2025-05-20T08:14:36Z</time>
      </trkpt>
      <trkpt lat="46.237724041566253" lon="9.099429035559297">
        <ele>291.89999999999998</ele>
        <time>2025-05-20T08:14:37Z</time>
      </trkpt>
      <trkpt lat="46.237822026014328" lon="9.101323010399938">
        <ele>293.81999999999999</ele>
        <time>2025-05-20T08:14:47Z</time>
      </trkpt>
      <trkpt lat="46.237910035997629" lon="9.101870013400912">
        <ele>294.77999999999997</ele>
        <time>2025-05-20T08:14:50Z</time>
      </trkpt>
      <trkpt lat="46.238022018224001" lon="9.103202987462282">
        <ele>292.38</ele>
        <time>2025-05-20T08:14:58Z</time>
      </trkpt>
      <trkpt lat="46.238074991852045" lon="9.10334900021553">
        <ele>292.38</ele>
        <time>2025-05-20T08:14:59Z</time>
      </trkpt>
      <trkpt lat="46.23812897130847" lon="9.10349803045392">
        <ele>291.89999999999998</ele>
        <time>2025-05-20T08:15:00Z</time>
      </trkpt>
      <trkpt lat="46.238184040412307" lon="9.103653011843562">
        <ele>291.89999999999998</ele>
        <time>2025-05-20T08:15:01Z</time>
      </trkpt>
      <trkpt lat="46.238239025697112" lon="9.103806987404823">
        <ele>292.38</ele>
        <time>2025-05-20T08:15:02Z</time>
      </trkpt>
      <trkpt lat="46.238483022898436" lon="9.104351978749037">
        <ele>292.38</ele>
        <time>2025-05-20T08:15:06Z</time>
      </trkpt>
      <trkpt lat="46.238611014559865" lon="9.104577032849193">
        <ele>291.89999999999998</ele>
        <time>2025-05-20T08:15:08Z</time>
      </trkpt>
      <trkpt lat="46.23866599984467" lon="9.104673005640507">
        <ele>291.89999999999998</ele>
        <time>2025-05-20T08:15:09Z</time>
      </trkpt>
      <trkpt lat="46.238718973472714" lon="9.104783982038498">
        <ele>291.42000000000002</ele>
        <time>2025-05-20T08:15:10Z</time>
      </trkpt>
      <trkpt lat="46.238746969029307" lon="9.104880960658193">
        <ele>290.94</ele>
        <time>2025-05-20T08:15:11Z</time>
      </trkpt>
      <trkpt lat="46.2387749645859" lon="9.104978023096919">
        <ele>289.97000000000003</ele>
        <time>2025-05-20T08:15:12Z</time>
      </trkpt>
      <trkpt lat="46.23888099566102" lon="9.105671038851142">
        <ele>285.17000000000002</ele>
        <time>2025-05-20T08:15:18Z</time>
      </trkpt>
      <trkpt lat="46.23888099566102" lon="9.105766005814076">
        <ele>284.69</ele>
        <time>2025-05-20T08:15:19Z</time>
      </trkpt>
      <trkpt lat="46.238873032853007" lon="9.105885028839111">
        <ele>284.20999999999998</ele>
        <time>2025-05-20T08:15:20Z</time>
      </trkpt>
      <trkpt lat="46.238784017041326" lon="9.106404036283493">
        <ele>284.69</ele>
        <time>2025-05-20T08:15:27Z</time>
      </trkpt>
      <trkpt lat="46.2387749645859" lon="9.106446029618383">
        <ele>284.20999999999998</ele>
        <time>2025-05-20T08:15:29Z</time>
      </trkpt>
      <trkpt lat="46.238770019263029" lon="9.106466984376311">
        <ele>284.20999999999998</ele>
        <time>2025-05-20T08:15:30Z</time>
      </trkpt>
      <trkpt lat="46.238765995949507" lon="9.10648500546813">
        <ele>284.20999999999998</ele>
        <time>2025-05-20T08:15:31Z</time>
      </trkpt>
      <trkpt lat="46.238765995949507" lon="9.10648500546813">
        <ele>283.73000000000002</ele>
        <time>2025-05-20T08:16:11Z</time>
      </trkpt>
      <trkpt lat="46.238765995949507" lon="9.10648500546813">
        <ele>286.13</ele>
        <time>2025-05-20T08:16:29Z</time>
      </trkpt>
      <trkpt lat="46.238765995949507" lon="9.10648500546813">
        <ele>286.13</ele>
        <time>2025-05-20T08:16:48Z</time>
      </trkpt>
      <trkpt lat="46.238753003999591" lon="9.106545019894838">
        <ele>287.08999999999997</ele>
        <time>2025-05-20T08:16:57Z</time>
      </trkpt>
      <trkpt lat="46.238746969029307" lon="9.106572009623051">
        <ele>287.08999999999997</ele>
        <time>2025-05-20T08:16:58Z</time>
      </trkpt>
      <trkpt lat="46.238736994564533" lon="9.106616014614701">
        <ele>287.56999999999999</ele>
        <time>2025-05-20T08:16:59Z</time>
      </trkpt>
      <trkpt lat="46.238662982359529" lon="9.106951039284468">
        <ele>288.52999999999997</ele>
        <time>2025-05-20T08:17:03Z</time>
      </trkpt>
      <trkpt lat="46.238576984032989" lon="9.107334008440375">
        <ele>289.97000000000003</ele>
        <time>2025-05-20T08:17:06Z</time>
      </trkpt>
      <trkpt lat="46.238539014011621" lon="9.107448002323508">
        <ele>290.45999999999998</ele>
        <time>2025-05-20T08:17:07Z</time>
      </trkpt>
      <trkpt lat="46.238457961007953" lon="9.107664003968239">
        <ele>290.94</ele>
        <time>2025-05-20T08:17:09Z</time>
      </trkpt>
      <trkpt lat="46.238142969086766" lon="9.108624989166856">
        <ele>292.38</ele>
        <time>2025-05-20T08:17:16Z</time>
      </trkpt>
      <trkpt lat="46.238061999902129" lon="9.108909973874688">
        <ele>292.86000000000001</ele>
        <time>2025-05-20T08:17:18Z</time>
      </trkpt>
      <trkpt lat="46.238032998517156" lon="9.109039977192879">
        <ele>292.86000000000001</ele>
        <time>2025-05-20T08:17:19Z</time>
      </trkpt>
      <trkpt lat="46.238009026274085" lon="9.109186995774508">
        <ele>292.86000000000001</ele>
        <time>2025-05-20T08:17:20Z</time>
      </trkpt>
      <trkpt lat="46.23795404098928" lon="9.10934298299253">
        <ele>292.86000000000001</ele>
        <time>2025-05-20T08:17:21Z</time>
      </trkpt>
      <trkpt lat="46.23789201490581" lon="9.109488995745778">
        <ele>292.86000000000001</ele>
        <time>2025-05-20T08:17:22Z</time>
      </trkpt>
      <trkpt lat="46.237832000479102" lon="9.109629979357123">
        <ele>292.86000000000001</ele>
        <time>2025-05-20T08:17:23Z</time>
      </trkpt>
      <trkpt lat="46.237636031582952" lon="9.110090984031558">
        <ele>292.38</ele>
        <time>2025-05-20T08:17:26Z</time>
      </trkpt>
      <trkpt lat="46.237567970529199" lon="9.110199026763439">
        <ele>291.89999999999998</ele>
        <time>2025-05-20T08:17:27Z</time>
      </trkpt>
      <trkpt lat="46.237245015799999" lon="9.11071702837944">
        <ele>291.89999999999998</ele>
        <time>2025-05-20T08:17:31Z</time>
      </trkpt>
      <trkpt lat="46.23718298971653" lon="9.110871003940702">
        <ele>291.89999999999998</ele>
        <time>2025-05-20T08:17:32Z</time>
      </trkpt>
      <trkpt lat="46.237133033573627" lon="9.1110610216856">
        <ele>291.89999999999998</ele>
        <time>2025-05-20T08:17:33Z</time>
      </trkpt>
      <trkpt lat="46.237085005268455" lon="9.111249027773738">
        <ele>291.89999999999998</ele>
        <time>2025-05-20T08:17:34Z</time>
      </trkpt>
      <trkpt lat="46.237062038853765" lon="9.111430998891592">
        <ele>291.89999999999998</ele>
        <time>2025-05-20T08:17:35Z</time>
      </trkpt>
      <trkpt lat="46.2370740249753" lon="9.111626967787743">
        <ele>292.38</ele>
        <time>2025-05-20T08:17:36Z</time>
      </trkpt>
      <trkpt lat="46.237087016925216" lon="9.111826037988067">
        <ele>292.86000000000001</ele>
        <time>2025-05-20T08:17:37Z</time>
      </trkpt>
      <trkpt lat="46.237389016896486" lon="9.113827971741557">
        <ele>292.38</ele>
        <time>2025-05-20T08:17:47Z</time>
      </trkpt>
      <trkpt lat="46.237668972462416" lon="9.115309976041317">
        <ele>292.38</ele>
        <time>2025-05-20T08:17:56Z</time>
      </trkpt>
      <trkpt lat="46.237756982445717" lon="9.115580040961504">
        <ele>293.81999999999999</ele>
        <time>2025-05-20T08:17:58Z</time>
      </trkpt>
      <trkpt lat="46.237804004922509" lon="9.115858990699053">
        <ele>295.25999999999999</ele>
        <time>2025-05-20T08:18:00Z</time>
      </trkpt>
      <trkpt lat="46.237796964123845" lon="9.11598103120923">
        <ele>295.74000000000001</ele>
        <time>2025-05-20T08:18:01Z</time>
      </trkpt>
      <trkpt lat="46.237791012972593" lon="9.116083960980177">
        <ele>296.69999999999999</ele>
        <time>2025-05-20T08:18:02Z</time>
      </trkpt>
      <trkpt lat="46.23778598383069" lon="9.116163002327085">
        <ele>297.67000000000002</ele>
        <time>2025-05-20T08:18:03Z</time>
      </trkpt>
      <trkpt lat="46.237710965797305" lon="9.116212958469987">
        <ele>298.14999999999998</ele>
        <time>2025-05-20T08:18:04Z</time>
      </trkpt>
      <trkpt lat="46.237657992169261" lon="9.1163279581815">
        <ele>299.11000000000001</ele>
        <time>2025-05-20T08:18:05Z</time>
      </trkpt>
      <trkpt lat="46.237657992169261" lon="9.116404987871647">
        <ele>300.06999999999999</ele>
        <time>2025-05-20T08:18:06Z</time>
      </trkpt>
      <trkpt lat="46.237683976069093" lon="9.116473970934749">
        <ele>300.55000000000001</ele>
        <time>2025-05-20T08:18:07Z</time>
      </trkpt>
      <trkpt lat="46.237724041566253" lon="9.116506995633245">
        <ele>301.02999999999997</ele>
        <time>2025-05-20T08:18:08Z</time>
      </trkpt>
      <trkpt lat="46.237782966345549" lon="9.116506995633245">
        <ele>301.99000000000001</ele>
        <time>2025-05-20T08:18:09Z</time>
      </trkpt>
      <trkpt lat="46.23782898299396" lon="9.116506995633245">
        <ele>301.99000000000001</ele>
        <time>2025-05-20T08:18:10Z</time>
      </trkpt>
      <trkpt lat="46.237952029332519" lon="9.116458967328072">
        <ele>302.47000000000003</ele>
        <time>2025-05-20T08:18:11Z</time>
      </trkpt>
      <trkpt lat="46.238013971596956" lon="9.116505989804864">
        <ele>302.94999999999999</ele>
        <time>2025-05-20T08:18:12Z</time>
      </trkpt>
      <trkpt lat="46.238067029044032" lon="9.116631969809532">
        <ele>303.43000000000001</ele>
        <time>2025-05-20T08:18:13Z</time>
      </trkpt>
      <trkpt lat="46.23808697797358" lon="9.116720985621214">
        <ele>303.43000000000001</ele>
        <time>2025-05-20T08:18:14Z</time>
      </trkpt>
      <trkpt lat="46.23808697797358" lon="9.116869010031223">
        <ele>303.91000000000003</ele>
        <time>2025-05-20T08:18:15Z</time>
      </trkpt>
      <trkpt lat="46.23808697797358" lon="9.117015022784472">
        <ele>304.38999999999999</ele>
        <time>2025-05-20T08:18:16Z</time>
      </trkpt>
      <trkpt lat="46.23808697797358" lon="9.117172015830874">
        <ele>304.38999999999999</ele>
        <time>2025-05-20T08:18:17Z</time>
      </trkpt>
      <trkpt lat="46.238093012943864" lon="9.1173330321908">
        <ele>304.38999999999999</ele>
        <time>2025-05-20T08:18:18Z</time>
      </trkpt>
      <trkpt lat="46.238125031813979" lon="9.117491031065583">
        <ele>304.38999999999999</ele>
        <time>2025-05-20T08:18:19Z</time>
      </trkpt>
      <trkpt lat="46.238161996006966" lon="9.117649029940367">
        <ele>303.91000000000003</ele>
        <time>2025-05-20T08:18:20Z</time>
      </trkpt>
      <trkpt lat="46.238226033747196" lon="9.117804011330009">
        <ele>303.91000000000003</ele>
        <time>2025-05-20T08:18:21Z</time>
      </trkpt>
      <trkpt lat="46.238291999325156" lon="9.117966033518314">
        <ele>303.43000000000001</ele>
        <time>2025-05-20T08:18:22Z</time>
      </trkpt>
      <trkpt lat="46.23868502676487" lon="9.119646018370986">
        <ele>301.50999999999999</ele>
        <time>2025-05-20T08:18:31Z</time>
      </trkpt>
      <trkpt lat="46.238843025639653" lon="9.120630975812674">
        <ele>301.02999999999997</ele>
        <time>2025-05-20T08:18:36Z</time>
      </trkpt>
      <trkpt lat="46.238859035074711" lon="9.120856029912829">
        <ele>300.55000000000001</ele>
        <time>2025-05-20T08:18:37Z</time>
      </trkpt>
      <trkpt lat="46.238652002066374" lon="9.122842038050294">
        <ele>299.58999999999997</ele>
        <time>2025-05-20T08:18:46Z</time>
      </trkpt>
      <trkpt lat="46.23860296793282" lon="9.124899040907621">
        <ele>301.02999999999997</ele>
        <time>2025-05-20T08:18:56Z</time>
      </trkpt>
      <trkpt lat="46.2386420276016" lon="9.126434018835425">
        <ele>297.18000000000001</ele>
        <time>2025-05-20T08:19:04Z</time>
      </trkpt>
      <trkpt lat="46.238519987091422" lon="9.128763014450669">
        <ele>294.30000000000001</ele>
        <time>2025-05-20T08:19:16Z</time>
      </trkpt>
      <trkpt lat="46.238395012915134" lon="9.130495972931385">
        <ele>298.14999999999998</ele>
        <time>2025-05-20T08:19:27Z</time>
      </trkpt>
      <trkpt lat="46.238066023215652" lon="9.131566006690264">
        <ele>298.63</ele>
        <time>2025-05-20T08:19:36Z</time>
      </trkpt>
      <trkpt lat="46.238071974366903" lon="9.131683018058538">
        <ele>298.63</ele>
        <time>2025-05-20T08:19:37Z</time>
      </trkpt>
      <trkpt lat="46.238083960488439" lon="9.132762020453811">
        <ele>298.14999999999998</ele>
        <time>2025-05-20T08:19:45Z</time>
      </trkpt>
      <trkpt lat="46.238094018772244" lon="9.132898980751634">
        <ele>298.63</ele>
        <time>2025-05-20T08:19:46Z</time>
      </trkpt>
      <trkpt lat="46.238103993237019" lon="9.133035019040108">
        <ele>298.63</ele>
        <time>2025-05-20T08:19:47Z</time>
      </trkpt>
      <trkpt lat="46.238101981580257" lon="9.133180025964975">
        <ele>299.11000000000001</ele>
        <time>2025-05-20T08:19:48Z</time>
      </trkpt>
      <trkpt lat="46.238091001287103" lon="9.133314974606037">
        <ele>299.58999999999997</ele>
        <time>2025-05-20T08:19:49Z</time>
      </trkpt>
      <trkpt lat="46.238081026822329" lon="9.133446989580989">
        <ele>300.06999999999999</ele>
        <time>2025-05-20T08:19:50Z</time>
      </trkpt>
      <trkpt lat="46.238054959103465" lon="9.133790982887149">
        <ele>301.02999999999997</ele>
        <time>2025-05-20T08:19:53Z</time>
      </trkpt>
      <trkpt lat="46.238048002123833" lon="9.133872035890818">
        <ele>301.50999999999999</ele>
        <time>2025-05-20T08:19:54Z</time>
      </trkpt>
      <trkpt lat="46.237937025725842" lon="9.133994998410344">
        <ele>301.99000000000001</ele>
        <time>2025-05-20T08:19:55Z</time>
      </trkpt>
      <trkpt lat="46.237937025725842" lon="9.133994998410344">
        <ele>301.99000000000001</ele>
        <time>2025-05-20T08:19:56Z</time>
      </trkpt>
      <trkpt lat="46.237921016290784" lon="9.134058030322194">
        <ele>302.47000000000003</ele>
        <time>2025-05-20T08:19:57Z</time>
      </trkpt>
      <trkpt lat="46.237939959391952" lon="9.134168000891805">
        <ele>302.47000000000003</ele>
        <time>2025-05-20T08:19:58Z</time>
      </trkpt>
      <trkpt lat="46.23795798048377" lon="9.134231032803655">
        <ele>302.94999999999999</ele>
        <time>2025-05-20T08:19:59Z</time>
      </trkpt>
      <trkpt lat="46.23802000656724" lon="9.13435198366642">
        <ele>302.94999999999999</ele>
        <time>2025-05-20T08:20:00Z</time>
      </trkpt>
      <trkpt lat="46.238015983253717" lon="9.134453991428018">
        <ele>303.43000000000001</ele>
        <time>2025-05-20T08:20:01Z</time>
      </trkpt>
      <trkpt lat="46.23802101239562" lon="9.13499697111547">
        <ele>304.88</ele>
        <time>2025-05-20T08:20:06Z</time>
      </trkpt>
      <trkpt lat="46.23836500570178" lon="9.135989975184202">
        <ele>307.27999999999997</ele>
        <time>2025-05-20T08:20:17Z</time>
      </trkpt>
      <trkpt lat="46.238426025956869" lon="9.136100029572845">
        <ele>307.75999999999999</ele>
        <time>2025-05-20T08:20:19Z</time>
      </trkpt>
      <trkpt lat="46.238483022898436" lon="9.136404041200876">
        <ele>308.72000000000003</ele>
        <time>2025-05-20T08:20:24Z</time>
      </trkpt>
      <trkpt lat="46.238526022061706" lon="9.136429019272327">
        <ele>308.72000000000003</ele>
        <time>2025-05-20T08:20:25Z</time>
      </trkpt>
      <trkpt lat="46.238576984032989" lon="9.136460032314062">
        <ele>309.19999999999999</ele>
        <time>2025-05-20T08:20:26Z</time>
      </trkpt>
      <trkpt lat="46.23858000151813" lon="9.136461960151792">
        <ele>309.19999999999999</ele>
        <time>2025-05-20T08:20:27Z</time>
      </trkpt>
      <trkpt lat="46.23870899900794" lon="9.136532032862306">
        <ele>309.19999999999999</ele>
        <time>2025-05-20T08:20:28Z</time>
      </trkpt>
      <trkpt lat="46.238764990121126" lon="9.136613002046943">
        <ele>309.68000000000001</ele>
        <time>2025-05-20T08:20:29Z</time>
      </trkpt>
      <trkpt lat="46.238828022032976" lon="9.136702017858625">
        <ele>309.68000000000001</ele>
        <time>2025-05-20T08:20:30Z</time>
      </trkpt>
      <trkpt lat="46.239472003653646" lon="9.13746896199882">
        <ele>312.56999999999999</ele>
        <time>2025-05-20T08:20:40Z</time>
      </trkpt>
      <trkpt lat="46.240008026361465" lon="9.138015964999795">
        <ele>314.97000000000003</ele>
        <time>2025-05-20T08:20:49Z</time>
      </trkpt>
      <trkpt lat="46.240182034671307" lon="9.138313019648194">
        <ele>316.41000000000003</ele>
        <time>2025-05-20T08:20:56Z</time>
      </trkpt>
      <trkpt lat="46.240208018571138" lon="9.138397006317973">
        <ele>316.41000000000003</ele>
        <time>2025-05-20T08:20:57Z</time>
      </trkpt>
      <trkpt lat="46.240251017734408" lon="9.138403963297606">
        <ele>316.88999999999999</ele>
        <time>2025-05-20T08:20:58Z</time>
      </trkpt>
      <trkpt lat="46.240293011069298" lon="9.13841100409627">
        <ele>316.88999999999999</ele>
        <time>2025-05-20T08:20:59Z</time>
      </trkpt>
      <trkpt lat="46.240332992747426" lon="9.138361969962716">
        <ele>317.37</ele>
        <time>2025-05-20T08:21:00Z</time>
      </trkpt>
      <trkpt lat="46.240347996354103" lon="9.138311007991433">
        <ele>317.37</ele>
        <time>2025-05-20T08:21:01Z</time>
      </trkpt>
      <trkpt lat="46.240360988304019" lon="9.138264991343021">
        <ele>317.85000000000002</ele>
        <time>2025-05-20T08:21:02Z</time>
      </trkpt>
      <trkpt lat="46.240360988304019" lon="9.138264991343021">
        <ele>317.85000000000002</ele>
        <time>2025-05-20T08:21:03Z</time>
      </trkpt>
      <trkpt lat="46.240370962768793" lon="9.13804798386991">
        <ele>318.32999999999998</ele>
        <time>2025-05-20T08:21:04Z</time>
      </trkpt>
      <trkpt lat="46.240413039922714" lon="9.137977994978428">
        <ele>318.32999999999998</ele>
        <time>2025-05-20T08:21:05Z</time>
      </trkpt>
      <trkpt lat="46.240446986630559" lon="9.137920998036861">
        <ele>318.32999999999998</ele>
        <time>2025-05-20T08:21:06Z</time>
      </trkpt>
      <trkpt lat="46.240547988563776" lon="9.137871041893959">
        <ele>318.81</ele>
        <time>2025-05-20T08:21:07Z</time>
      </trkpt>
      <trkpt lat="46.240624012425542" lon="9.13783298805356">
        <ele>319.30000000000001</ele>
        <time>2025-05-20T08:21:08Z</time>
      </trkpt>
      <trkpt lat="46.240715961903334" lon="9.137826031073928">
        <ele>319.77999999999997</ele>
        <time>2025-05-20T08:21:09Z</time>
      </trkpt>
      <trkpt lat="46.240801960229874" lon="9.137844974175096">
        <ele>319.77999999999997</ele>
        <time>2025-05-20T08:21:10Z</time>
      </trkpt>
      <trkpt lat="46.240896005183458" lon="9.137886967509985">
        <ele>320.25999999999999</ele>
        <time>2025-05-20T08:21:11Z</time>
      </trkpt>
      <trkpt lat="46.240982003509998" lon="9.137949999421835">
        <ele>320.25999999999999</ele>
        <time>2025-05-20T08:21:12Z</time>
      </trkpt>
      <trkpt lat="46.242012977600098" lon="9.138577971607447">
        <ele>320.74000000000001</ele>
        <time>2025-05-20T08:21:22Z</time>
      </trkpt>
      <trkpt lat="46.242225039750338" lon="9.13871300406754">
        <ele>321.69999999999999</ele>
        <time>2025-05-20T08:21:26Z</time>
      </trkpt>
      <trkpt lat="46.242329981178045" lon="9.138779975473881">
        <ele>322.66000000000003</ele>
        <time>2025-05-20T08:21:29Z</time>
      </trkpt>
      <trkpt lat="46.242373986169696" lon="9.138807971030474">
        <ele>323.13999999999999</ele>
        <time>2025-05-20T08:21:30Z</time>
      </trkpt>
      <trkpt lat="46.242432994768023" lon="9.138846024870873">
        <ele>323.13999999999999</ele>
        <time>2025-05-20T08:21:31Z</time>
      </trkpt>
      <trkpt lat="46.243137996643782" lon="9.139261012896895">
        <ele>325.54000000000002</ele>
        <time>2025-05-20T08:21:38Z</time>
      </trkpt>
      <trkpt lat="46.244306014850736" lon="9.139972971752286">
        <ele>332.26999999999998</ele>
        <time>2025-05-20T08:21:48Z</time>
      </trkpt>
      <trkpt lat="46.245491970330477" lon="9.140900010243058">
        <ele>338.51999999999998</ele>
        <time>2025-05-20T08:21:57Z</time>
      </trkpt>
      <trkpt lat="46.246157996356487" lon="9.141727974638343">
        <ele>341.88999999999999</ele>
        <time>2025-05-20T08:22:03Z</time>
      </trkpt>
      <trkpt lat="46.246221028268337" lon="9.141879016533494">
        <ele>342.37</ele>
        <time>2025-05-20T08:22:04Z</time>
      </trkpt>
      <trkpt lat="46.246261009946465" lon="9.142036009579897">
        <ele>342.85000000000002</ele>
        <time>2025-05-20T08:22:05Z</time>
      </trkpt>
      <trkpt lat="46.246300991624594" lon="9.142195014283061">
        <ele>343.32999999999998</ele>
        <time>2025-05-20T08:22:06Z</time>
      </trkpt>
      <trkpt lat="46.246337033808231" lon="9.142358964309096">
        <ele>343.81</ele>
        <time>2025-05-20T08:22:07Z</time>
      </trkpt>
      <trkpt lat="46.246367963030934" lon="9.142525009810925">
        <ele>343.81</ele>
        <time>2025-05-20T08:22:08Z</time>
      </trkpt>
      <trkpt lat="46.246457984670997" lon="9.142833966761828">
        <ele>344.29000000000002</ele>
        <time>2025-05-20T08:22:10Z</time>
      </trkpt>
      <trkpt lat="46.246505007147789" lon="9.142991965636611">
        <ele>344.29000000000002</ele>
        <time>2025-05-20T08:22:11Z</time>
      </trkpt>
      <trkpt lat="46.246552029624581" lon="9.143140995875001">
        <ele>344.76999999999998</ele>
        <time>2025-05-20T08:22:12Z</time>
      </trkpt>
      <trkpt lat="46.24708796851337" lon="9.144400963559747">
        <ele>347.17000000000002</ele>
        <time>2025-05-20T08:22:21Z</time>
      </trkpt>
      <trkpt lat="46.247143959626555" lon="9.14451302960515">
        <ele>347.17000000000002</ele>
        <time>2025-05-20T08:22:22Z</time>
      </trkpt>
      <trkpt lat="46.247196011245251" lon="9.144615959376097">
        <ele>347.64999999999998</ele>
        <time>2025-05-20T08:22:23Z</time>
      </trkpt>
      <trkpt lat="46.247248984873295" lon="9.144724002107978">
        <ele>348.13</ele>
        <time>2025-05-20T08:22:24Z</time>
      </trkpt>
      <trkpt lat="46.247273040935397" lon="9.144794996827841">
        <ele>348.13</ele>
        <time>2025-05-20T08:22:25Z</time>
      </trkpt>
      <trkpt lat="46.247298019006848" lon="9.144875966012478">
        <ele>348.62</ele>
        <time>2025-05-20T08:22:26Z</time>
      </trkpt>
      <trkpt lat="46.247320985421538" lon="9.144959030672908">
        <ele>348.62</ele>
        <time>2025-05-20T08:22:27Z</time>
      </trkpt>
      <trkpt lat="46.24734696932137" lon="9.145052991807461">
        <ele>348.62</ele>
        <time>2025-05-20T08:22:28Z</time>
      </trkpt>
      <trkpt lat="46.247373959049582" lon="9.145130021497607">
        <ele>349.10000000000002</ele>
        <time>2025-05-20T08:22:29Z</time>
      </trkpt>
      <trkpt lat="46.247483007609844" lon="9.145381981506944">
        <ele>349.57999999999998</ele>
        <time>2025-05-20T08:22:32Z</time>
      </trkpt>
      <trkpt lat="46.247548973187804" lon="9.145536962896586">
        <ele>349.57999999999998</ele>
        <time>2025-05-20T08:22:34Z</time>
      </trkpt>
      <trkpt lat="46.24758099205792" lon="9.145611980929971">
        <ele>349.57999999999998</ele>
        <time>2025-05-20T08:22:35Z</time>
      </trkpt>
      <trkpt lat="46.247655004262924" lon="9.145784983411431">
        <ele>350.06</ele>
        <time>2025-05-20T08:22:38Z</time>
      </trkpt>
      <trkpt lat="46.247700015082955" lon="9.146183039993048">
        <ele>351.01999999999998</ele>
        <time>2025-05-20T08:22:42Z</time>
      </trkpt>
      <trkpt lat="46.247720969840884" lon="9.14623299613595">
        <ele>351.5</ele>
        <time>2025-05-20T08:22:43Z</time>
      </trkpt>
      <trkpt lat="46.247805040329695" lon="9.146429970860481">
        <ele>351.5</ele>
        <time>2025-05-20T08:22:45Z</time>
      </trkpt>
      <trkpt lat="46.248308960348368" lon="9.14756597019732">
        <ele>348.62</ele>
        <time>2025-05-20T08:22:55Z</time>
      </trkpt>
      <trkpt lat="46.248625963926315" lon="9.148302990943193">
        <ele>346.69</ele>
        <time>2025-05-20T08:23:01Z</time>
      </trkpt>
      <trkpt lat="46.248683966696262" lon="9.148426037281752">
        <ele>346.20999999999998</ele>
        <time>2025-05-20T08:23:02Z</time>
      </trkpt>
      <trkpt lat="46.24923599883914" lon="9.149721963331103">
        <ele>344.76999999999998</ele>
        <time>2025-05-20T08:23:12Z</time>
      </trkpt>
      <trkpt lat="46.249681999906898" lon="9.150857040658593">
        <ele>341.88999999999999</ele>
        <time>2025-05-20T08:23:20Z</time>
      </trkpt>
      <trkpt lat="46.250033034011722" lon="9.151722975075245">
        <ele>339.95999999999998</ele>
        <time>2025-05-20T08:23:26Z</time>
      </trkpt>
      <trkpt lat="46.250083995983005" lon="9.151873011142016">
        <ele>339.48000000000002</ele>
        <time>2025-05-20T08:23:27Z</time>
      </trkpt>
      <trkpt lat="46.250886982306838" lon="9.153695991262794">
        <ele>333.23000000000002</ele>
        <time>2025-05-20T08:23:40Z</time>
      </trkpt>
      <trkpt lat="46.25112796202302" lon="9.154273001477122">
        <ele>331.79000000000002</ele>
        <time>2025-05-20T08:23:44Z</time>
      </trkpt>
      <trkpt lat="46.251199040561914" lon="9.154405016452074">
        <ele>331.79000000000002</ele>
        <time>2025-05-20T08:23:45Z</time>
      </trkpt>
      <trkpt lat="46.252196989953518" lon="9.155789958313108">
        <ele>327.94999999999999</ele>
        <time>2025-05-20T08:23:57Z</time>
      </trkpt>
      <trkpt lat="46.253201980143785" lon="9.156812969595194">
        <ele>326.99000000000001</ele>
        <time>2025-05-20T08:24:07Z</time>
      </trkpt>
      <trkpt lat="46.254449961706996" lon="9.157600030303001">
        <ele>327.94999999999999</ele>
        <time>2025-05-20T08:24:15Z</time>
      </trkpt>
      <trkpt lat="46.255795005708933" lon="9.158389018848538">
        <ele>329.38999999999999</ele>
        <time>2025-05-20T08:24:23Z</time>
      </trkpt>
      <trkpt lat="46.257189000025392" lon="9.159700032323599">
        <ele>329.87</ele>
        <time>2025-05-20T08:24:32Z</time>
      </trkpt>
      <trkpt lat="46.258740993216634" lon="9.161093020811677">
        <ele>333.23000000000002</ele>
        <time>2025-05-20T08:24:42Z</time>
      </trkpt>
      <trkpt lat="46.258892035111785" lon="9.16120701469481">
        <ele>333.70999999999998</ele>
        <time>2025-05-20T08:24:43Z</time>
      </trkpt>
      <trkpt lat="46.259047016501427" lon="9.161317991092801">
        <ele>333.70999999999998</ele>
        <time>2025-05-20T08:24:44Z</time>
      </trkpt>
      <trkpt lat="46.260570008307695" lon="9.162071021273732">
        <ele>336.12</ele>
        <time>2025-05-20T08:24:53Z</time>
      </trkpt>
      <trkpt lat="46.260986002162099" lon="9.162450972944498">
        <ele>337.07999999999998</ele>
        <time>2025-05-20T08:24:56Z</time>
      </trkpt>
      <trkpt lat="46.261110976338387" lon="9.162576030939817">
        <ele>337.07999999999998</ele>
        <time>2025-05-20T08:24:57Z</time>
      </trkpt>
      <trkpt lat="46.261732997372746" lon="9.163369964808226">
        <ele>339</ele>
        <time>2025-05-20T08:25:04Z</time>
      </trkpt>
      <trkpt lat="46.262861033901572" lon="9.164229026064277">
        <ele>342.37</ele>
        <time>2025-05-20T08:25:15Z</time>
      </trkpt>
      <trkpt lat="46.2639129627496" lon="9.164971997961402">
        <ele>346.69</ele>
        <time>2025-05-20T08:25:25Z</time>
      </trkpt>
      <trkpt lat="46.264230972155929" lon="9.165198979899287">
        <ele>347.17000000000002</ele>
        <time>2025-05-20T08:25:28Z</time>
      </trkpt>
      <trkpt lat="46.264334991574287" lon="9.165273997932673">
        <ele>347.17000000000002</ele>
        <time>2025-05-20T08:25:29Z</time>
      </trkpt>
      <trkpt lat="46.264438005164266" lon="9.165348010137677">
        <ele>347.64999999999998</ele>
        <time>2025-05-20T08:25:30Z</time>
      </trkpt>
      <trkpt lat="46.264542024582624" lon="9.165422022342682">
        <ele>347.64999999999998</ele>
        <time>2025-05-20T08:25:31Z</time>
      </trkpt>
      <trkpt lat="46.264643026515841" lon="9.165494022890925">
        <ele>347.64999999999998</ele>
        <time>2025-05-20T08:25:32Z</time>
      </trkpt>
      <trkpt lat="46.264750985428691" lon="9.16554699651897">
        <ele>347.64999999999998</ele>
        <time>2025-05-20T08:25:33Z</time>
      </trkpt>
      <trkpt lat="46.264887023717165" lon="9.165601981803775">
        <ele>348.13</ele>
        <time>2025-05-20T08:25:34Z</time>
      </trkpt>
      <trkpt lat="46.265355991199613" lon="9.165712958201766">
        <ele>349.57999999999998</ele>
        <time>2025-05-20T08:25:38Z</time>
      </trkpt>
      <trkpt lat="46.265485994517803" lon="9.165770960971713">
        <ele>350.06</ele>
        <time>2025-05-20T08:25:39Z</time>
      </trkpt>
      <trkpt lat="46.266655018553138" lon="9.16642801836133">
        <ele>349.10000000000002</ele>
        <time>2025-05-20T08:25:47Z</time>
      </trkpt>
      <trkpt lat="46.266914019361138" lon="9.166656006127596">
        <ele>348.62</ele>
        <time>2025-05-20T08:25:49Z</time>
      </trkpt>
      <trkpt lat="46.268053036183119" lon="9.167700977995992">
        <ele>346.69</ele>
        <time>2025-05-20T08:25:57Z</time>
      </trkpt>
      <trkpt lat="46.269208984449506" lon="9.168477980419993">
        <ele>345.73000000000002</ele>
        <time>2025-05-20T08:26:05Z</time>
      </trkpt>
      <trkpt lat="46.26999001018703" lon="9.168891962617636">
        <ele>346.20999999999998</ele>
        <time>2025-05-20T08:26:13Z</time>
      </trkpt>
      <trkpt lat="46.270082965493202" lon="9.168928004801273">
        <ele>346.69</ele>
        <time>2025-05-20T08:26:14Z</time>
      </trkpt>
      <trkpt lat="46.27018203958869" lon="9.168959017843008">
        <ele>346.69</ele>
        <time>2025-05-20T08:26:15Z</time>
      </trkpt>
      <trkpt lat="46.271076975390315" lon="9.169152975082398">
        <ele>350.54000000000002</ele>
        <time>2025-05-20T08:26:23Z</time>
      </trkpt>
      <trkpt lat="46.271630013361573" lon="9.169239979237318">
        <ele>352.94</ele>
        <time>2025-05-20T08:26:28Z</time>
      </trkpt>
      <trkpt lat="46.271850038319826" lon="9.169337963685393">
        <ele>354.38</ele>
        <time>2025-05-20T08:26:30Z</time>
      </trkpt>
      <trkpt lat="46.271964032202959" lon="9.169389009475708">
        <ele>355.33999999999997</ele>
        <time>2025-05-20T08:26:31Z</time>
      </trkpt>
      <trkpt lat="46.272080037742853" lon="9.169440977275372">
        <ele>355.82999999999998</ele>
        <time>2025-05-20T08:26:32Z</time>
      </trkpt>
      <trkpt lat="46.272532995790243" lon="9.16967399418354">
        <ele>357.75</ele>
        <time>2025-05-20T08:26:36Z</time>
      </trkpt>
      <trkpt lat="46.272748997434974" lon="9.169838028028607">
        <ele>358.70999999999998</ele>
        <time>2025-05-20T08:26:38Z</time>
      </trkpt>
      <trkpt lat="46.272856034338474" lon="9.169918997213244">
        <ele>359.67000000000002</ele>
        <time>2025-05-20T08:26:39Z</time>
      </trkpt>
      <trkpt lat="46.273350985720754" lon="9.170727012678981">
        <ele>361.58999999999997</ele>
        <time>2025-05-20T08:26:45Z</time>
      </trkpt>
      <trkpt lat="46.274344995617867" lon="9.171819007024169">
        <ele>361.58999999999997</ele>
        <time>2025-05-20T08:26:55Z</time>
      </trkpt>
      <trkpt lat="46.275628013536334" lon="9.172762976959348">
        <ele>361.11000000000001</ele>
        <time>2025-05-20T08:27:05Z</time>
      </trkpt>
      <trkpt lat="46.276796031743288" lon="9.173192968592048">
        <ele>363.51999999999998</ele>
        <time>2025-05-20T08:27:12Z</time>
      </trkpt>
      <trkpt lat="46.277286037802696" lon="9.173326995223761">
        <ele>365.44</ele>
        <time>2025-05-20T08:27:15Z</time>
      </trkpt>
      <trkpt lat="46.277454011142254" lon="9.173326995223761">
        <ele>366.39999999999998</ele>
        <time>2025-05-20T08:27:16Z</time>
      </trkpt>
      <trkpt lat="46.278152978047729" lon="9.173149969428778">
        <ele>368.31999999999999</ele>
        <time>2025-05-20T08:27:20Z</time>
      </trkpt>
      <trkpt lat="46.279807984828949" lon="9.173355996608734">
        <ele>369.75999999999999</ele>
        <time>2025-05-20T08:27:29Z</time>
      </trkpt>
      <trkpt lat="46.280833007767797" lon="9.173396984115243">
        <ele>370.73000000000002</ele>
        <time>2025-05-20T08:27:36Z</time>
      </trkpt>
      <trkpt lat="46.282117031514645" lon="9.173464039340615">
        <ele>370.73000000000002</ele>
        <time>2025-05-20T08:27:46Z</time>
      </trkpt>
      <trkpt lat="46.282260026782751" lon="9.173470996320248">
        <ele>370.73000000000002</ele>
        <time>2025-05-20T08:27:47Z</time>
      </trkpt>
      <trkpt lat="46.28296603448689" lon="9.173460016027093">
        <ele>370.73000000000002</ele>
        <time>2025-05-20T08:27:52Z</time>
      </trkpt>
      <trkpt lat="46.283112969249487" lon="9.173451969400048">
        <ele>371.20999999999998</ele>
        <time>2025-05-20T08:27:53Z</time>
      </trkpt>
      <trkpt lat="46.284109996631742" lon="9.173090038821101">
        <ele>374.08999999999997</ele>
        <time>2025-05-20T08:28:00Z</time>
      </trkpt>
      <trkpt lat="46.284266989678144" lon="9.173071011900902">
        <ele>374.56999999999999</ele>
        <time>2025-05-20T08:28:01Z</time>
      </trkpt>
      <trkpt lat="46.284425994381309" lon="9.173079980537295">
        <ele>375.05000000000001</ele>
        <time>2025-05-20T08:28:02Z</time>
      </trkpt>
      <trkpt lat="46.284578964114189" lon="9.173089032992721">
        <ele>375.52999999999997</ele>
        <time>2025-05-20T08:28:03Z</time>
      </trkpt>
      <trkpt lat="46.284727994352579" lon="9.173133037984371">
        <ele>376.00999999999999</ele>
        <time>2025-05-20T08:28:04Z</time>
      </trkpt>
      <trkpt lat="46.28595401532948" lon="9.173439983278513">
        <ele>382.74000000000001</ele>
        <time>2025-05-20T08:28:12Z</time>
      </trkpt>
      <trkpt lat="46.286293985322118" lon="9.173398995772004">
        <ele>384.66000000000003</ele>
        <time>2025-05-20T08:28:14Z</time>
      </trkpt>
      <trkpt lat="46.286450978368521" lon="9.173379968851805">
        <ele>385.63</ele>
        <time>2025-05-20T08:28:15Z</time>
      </trkpt>
      <trkpt lat="46.286594979465008" lon="9.173384997993708">
        <ele>386.58999999999997</ele>
        <time>2025-05-20T08:28:16Z</time>
      </trkpt>
      <trkpt lat="46.286729006096721" lon="9.173420034348965">
        <ele>387.55000000000001</ele>
        <time>2025-05-20T08:28:17Z</time>
      </trkpt>
      <trkpt lat="46.286847023293376" lon="9.173451969400048">
        <ele>388.02999999999997</ele>
        <time>2025-05-20T08:28:18Z</time>
      </trkpt>
      <trkpt lat="46.286930004134774" lon="9.173550959676504">
        <ele>388.99000000000001</ele>
        <time>2025-05-20T08:28:19Z</time>
      </trkpt>
      <trkpt lat="46.28700896166265" lon="9.173660008236766">
        <ele>389.47000000000003</ele>
        <time>2025-05-20T08:28:20Z</time>
      </trkpt>
      <trkpt lat="46.287064030766487" lon="9.173795040696859">
        <ele>389.94999999999999</ele>
        <time>2025-05-20T08:28:21Z</time>
      </trkpt>
      <trkpt lat="46.287112981081009" lon="9.173955973237753">
        <ele>390.43000000000001</ele>
        <time>2025-05-20T08:28:22Z</time>
      </trkpt>
      <trkpt lat="46.287140976637602" lon="9.1741400398314">
        <ele>390.43000000000001</ele>
        <time>2025-05-20T08:28:23Z</time>
      </trkpt>
      <trkpt lat="46.287166960537434" lon="9.174338020384312">
        <ele>390.91000000000003</ele>
        <time>2025-05-20T08:28:24Z</time>
      </trkpt>
      <trkpt lat="46.287195039913058" lon="9.174544969573617">
        <ele>390.91000000000003</ele>
        <time>2025-05-20T08:28:25Z</time>
      </trkpt>
      <trkpt lat="46.287358989939094" lon="9.175405958667398">
        <ele>391.38999999999999</ele>
        <time>2025-05-20T08:28:29Z</time>
      </trkpt>
      <trkpt lat="46.287434007972479" lon="9.17560201138258">
        <ele>391.38999999999999</ele>
        <time>2025-05-20T08:28:30Z</time>
      </trkpt>
      <trkpt lat="46.287520006299019" lon="9.175783982500434">
        <ele>391.38999999999999</ele>
        <time>2025-05-20T08:28:31Z</time>
      </trkpt>
      <trkpt lat="46.287632994353771" lon="9.17594701051712">
        <ele>391.87</ele>
        <time>2025-05-20T08:28:32Z</time>
      </trkpt>
      <trkpt lat="46.287747994065285" lon="9.176111966371536">
        <ele>391.87</ele>
        <time>2025-05-20T08:28:33Z</time>
      </trkpt>
      <trkpt lat="46.289171995595098" lon="9.178271982818842">
        <ele>399.56999999999999</ele>
        <time>2025-05-20T08:28:45Z</time>
      </trkpt>
      <trkpt lat="46.28969301469624" lon="9.179206984117627">
        <ele>402.44999999999999</ele>
        <time>2025-05-20T08:28:50Z</time>
      </trkpt>
      <trkpt lat="46.289808014407754" lon="9.179364982992411">
        <ele>403.41000000000003</ele>
        <time>2025-05-20T08:28:51Z</time>
      </trkpt>
      <trkpt lat="46.289936006069183" lon="9.17949004098773">
        <ele>403.88999999999999</ele>
        <time>2025-05-20T08:28:52Z</time>
      </trkpt>
      <trkpt lat="46.29023096524179" lon="9.179667988792062">
        <ele>404.85000000000002</ele>
        <time>2025-05-20T08:28:54Z</time>
      </trkpt>
      <trkpt lat="46.290386030450463" lon="9.17970696464181">
        <ele>405.32999999999998</ele>
        <time>2025-05-20T08:28:55Z</time>
      </trkpt>
      <trkpt lat="46.290541011840105" lon="9.179712999612093">
        <ele>405.32999999999998</ele>
        <time>2025-05-20T08:28:56Z</time>
      </trkpt>
      <trkpt lat="46.290706973522902" lon="9.179699001833797">
        <ele>406.29000000000002</ele>
        <time>2025-05-20T08:28:57Z</time>
      </trkpt>
      <trkpt lat="46.29087695851922" lon="9.179683998227119">
        <ele>406.29000000000002</ele>
        <time>2025-05-20T08:28:58Z</time>
      </trkpt>
      <trkpt lat="46.291697965934873" lon="9.179615015164018">
        <ele>407.25999999999999</ele>
        <time>2025-05-20T08:29:03Z</time>
      </trkpt>
      <trkpt lat="46.291856970638037" lon="9.179668994620442">
        <ele>407.25999999999999</ele>
        <time>2025-05-20T08:29:04Z</time>
      </trkpt>
      <trkpt lat="46.292008012533188" lon="9.179712999612093">
        <ele>407.25999999999999</ele>
        <time>2025-05-20T08:29:05Z</time>
      </trkpt>
      <trkpt lat="46.292589968070388" lon="9.17985700070858">
        <ele>407.74000000000001</ele>
        <time>2025-05-20T08:29:10Z</time>
      </trkpt>
      <trkpt lat="46.29269901663065" lon="9.179862029850483">
        <ele>407.74000000000001</ele>
        <time>2025-05-20T08:29:11Z</time>
      </trkpt>
      <trkpt lat="46.292816027998924" lon="9.179866975173354">
        <ele>408.22000000000003</ele>
        <time>2025-05-20T08:29:12Z</time>
      </trkpt>
      <trkpt lat="46.294194012880325" lon="9.179787011817098">
        <ele>408.22000000000003</ele>
        <time>2025-05-20T08:29:22Z</time>
      </trkpt>
      <trkpt lat="46.295156003907323" lon="9.179780976846814">
        <ele>408.69999999999999</ele>
        <time>2025-05-20T08:29:28Z</time>
      </trkpt>
      <trkpt lat="46.29532003775239" lon="9.17981400154531">
        <ele>408.69999999999999</ele>
        <time>2025-05-20T08:29:29Z</time>
      </trkpt>
      <trkpt lat="46.295467978343368" lon="9.179898994043469">
        <ele>408.69999999999999</ele>
        <time>2025-05-20T08:29:30Z</time>
      </trkpt>
      <trkpt lat="46.295618014410138" lon="9.17998599819839">
        <ele>408.22000000000003</ele>
        <time>2025-05-20T08:29:31Z</time>
      </trkpt>
      <trkpt lat="46.295760003849864" lon="9.180116001516581">
        <ele>408.22000000000003</ele>
        <time>2025-05-20T08:29:32Z</time>
      </trkpt>
      <trkpt lat="46.295886989682913" lon="9.180266037583351">
        <ele>408.22000000000003</ele>
        <time>2025-05-20T08:29:33Z</time>
      </trkpt>
      <trkpt lat="46.296016993001103" lon="9.180419007316232">
        <ele>408.22000000000003</ele>
        <time>2025-05-20T08:29:34Z</time>
      </trkpt>
      <trkpt lat="46.297803008928895" lon="9.18254398740828">
        <ele>411.10000000000002</ele>
        <time>2025-05-20T08:29:47Z</time>
      </trkpt>
      <trkpt lat="46.299970988184214" lon="9.185156961902976">
        <ele>413.98000000000002</ele>
        <time>2025-05-20T08:30:01Z</time>
      </trkpt>
      <trkpt lat="46.302470974624157" lon="9.188168998807669">
        <ele>419.26999999999998</ele>
        <time>2025-05-20T08:30:17Z</time>
      </trkpt>
      <trkpt lat="46.304147019982338" lon="9.189756028354168">
        <ele>422.16000000000003</ele>
        <time>2025-05-20T08:30:27Z</time>
      </trkpt>
      <trkpt lat="46.305170031264424" lon="9.190489025786519">
        <ele>424.56</ele>
        <time>2025-05-20T08:30:34Z</time>
      </trkpt>
      <trkpt lat="46.306699980050325" lon="9.191600969061256">
        <ele>423.60000000000002</ele>
        <time>2025-05-20T08:30:44Z</time>
      </trkpt>
      <trkpt lat="46.308838035911322" lon="9.193154973909259">
        <ele>425.04000000000002</ele>
        <time>2025-05-20T08:30:57Z</time>
      </trkpt>
      <trkpt lat="46.310328003019094" lon="9.194236993789673">
        <ele>426.48000000000002</ele>
        <time>2025-05-20T08:31:07Z</time>
      </trkpt>
      <trkpt lat="46.310690017417073" lon="9.194503035396338">
        <ele>426.95999999999998</ele>
        <time>2025-05-20T08:31:11Z</time>
      </trkpt>
      <trkpt lat="46.311504989862442" lon="9.195104017853737">
        <ele>426.48000000000002</ele>
        <time>2025-05-20T08:31:19Z</time>
      </trkpt>
      <trkpt lat="46.312025003135204" lon="9.195472989231348">
        <ele>427.44</ele>
        <time>2025-05-20T08:31:24Z</time>
      </trkpt>
      <trkpt lat="46.312130028381944" lon="9.195551024749875">
        <ele>427.44</ele>
        <time>2025-05-20T08:31:25Z</time>
      </trkpt>
      <trkpt lat="46.312339995056391" lon="9.195702988654375">
        <ele>427.44</ele>
        <time>2025-05-20T08:31:27Z</time>
      </trkpt>
      <trkpt lat="46.312447031959891" lon="9.195761997252703">
        <ele>427.44</ele>
        <time>2025-05-20T08:31:28Z</time>
      </trkpt>
      <trkpt lat="46.313364012166858" lon="9.196091992780566">
        <ele>427.92000000000002</ele>
        <time>2025-05-20T08:31:36Z</time>
      </trkpt>
      <trkpt lat="46.314261965453625" lon="9.196415031328797">
        <ele>428.88999999999999</ele>
        <time>2025-05-20T08:31:44Z</time>
      </trkpt>
      <trkpt lat="46.314360033720732" lon="9.19644302688539">
        <ele>428.88999999999999</ele>
        <time>2025-05-20T08:31:45Z</time>
      </trkpt>
      <trkpt lat="46.314806034788489" lon="9.196646958589554">
        <ele>429.85000000000002</ele>
        <time>2025-05-20T08:31:49Z</time>
      </trkpt>
      <trkpt lat="46.314911982044578" lon="9.196710996329784">
        <ele>430.32999999999998</ele>
        <time>2025-05-20T08:31:50Z</time>
      </trkpt>
      <trkpt lat="46.316179996356368" lon="9.197704000398517">
        <ele>433.20999999999998</ele>
        <time>2025-05-20T08:32:02Z</time>
      </trkpt>
      <trkpt lat="46.317200995981693" lon="9.198539005592465">
        <ele>434.17000000000002</ele>
        <time>2025-05-20T08:32:11Z</time>
      </trkpt>
      <trkpt lat="46.318061985075474" lon="9.199275020509958">
        <ele>432.73000000000002</ele>
        <time>2025-05-20T08:32:18Z</time>
      </trkpt>
      <trkpt lat="46.319192033261061" lon="9.200745960697532">
        <ele>433.69</ele>
        <time>2025-05-20T08:32:27Z</time>
      </trkpt>
      <trkpt lat="46.319325976073742" lon="9.200921980664134">
        <ele>434.17000000000002</ele>
        <time>2025-05-20T08:32:28Z</time>
      </trkpt>
      <trkpt lat="46.321152979508042" lon="9.20336396433413">
        <ele>438.5</ele>
        <time>2025-05-20T08:32:41Z</time>
      </trkpt>
      <trkpt lat="46.321449028328061" lon="9.203648027032614">
        <ele>439.94</ele>
        <time>2025-05-20T08:32:43Z</time>
      </trkpt>
      <trkpt lat="46.321595963090658" lon="9.203785993158817">
        <ele>439.94</ele>
        <time>2025-05-20T08:32:44Z</time>
      </trkpt>
      <trkpt lat="46.321741975843906" lon="9.203922031447291">
        <ele>440.42000000000002</ele>
        <time>2025-05-20T08:32:45Z</time>
      </trkpt>
      <trkpt lat="46.321907015517354" lon="9.20400601811707">
        <ele>440.42000000000002</ele>
        <time>2025-05-20T08:32:46Z</time>
      </trkpt>
      <trkpt lat="46.322082029655576" lon="9.204037031158805">
        <ele>440.89999999999998</ele>
        <time>2025-05-20T08:32:47Z</time>
      </trkpt>
      <trkpt lat="46.322257965803146" lon="9.204068966209889">
        <ele>441.38</ele>
        <time>2025-05-20T08:32:48Z</time>
      </trkpt>
      <trkpt lat="46.32243599742651" lon="9.204090004786849">
        <ele>441.86000000000001</ele>
        <time>2025-05-20T08:32:49Z</time>
      </trkpt>
      <trkpt lat="46.322610005736351" lon="9.204029990360141">
        <ele>442.33999999999997</ele>
        <time>2025-05-20T08:32:50Z</time>
      </trkpt>
      <trkpt lat="46.322789965197444" lon="9.203967964276671">
        <ele>442.81999999999999</ele>
        <time>2025-05-20T08:32:51Z</time>
      </trkpt>
      <trkpt lat="46.32297202013433" lon="9.203906022012234">
        <ele>443.31</ele>
        <time>2025-05-20T08:32:52Z</time>
      </trkpt>
      <trkpt lat="46.324429968371987" lon="9.203396989032626">
        <ele>449.06999999999999</ele>
        <time>2025-05-20T08:33:01Z</time>
      </trkpt>
      <trkpt lat="46.325409980490804" lon="9.20327503234148">
        <ele>452.92000000000002</ele>
        <time>2025-05-20T08:33:09Z</time>
      </trkpt>
      <trkpt lat="46.326580010354519" lon="9.20327696017921">
        <ele>452.92000000000002</ele>
        <time>2025-05-20T08:33:17Z</time>
      </trkpt>
      <trkpt lat="46.327040009200573" lon="9.203399000689387">
        <ele>452.92000000000002</ele>
        <time>2025-05-20T08:33:20Z</time>
      </trkpt>
      <trkpt lat="46.328588984906673" lon="9.204331990331411">
        <ele>454.36000000000001</ele>
        <time>2025-05-20T08:33:32Z</time>
      </trkpt>
      <trkpt lat="46.330142989754677" lon="9.205203037708998">
        <ele>455.80000000000001</ele>
        <time>2025-05-20T08:33:44Z</time>
      </trkpt>
      <trkpt lat="46.330286990851164" lon="9.205256011337042">
        <ele>456.27999999999997</ele>
        <time>2025-05-20T08:33:45Z</time>
      </trkpt>
      <trkpt lat="46.331864967942238" lon="9.205842996016145">
        <ele>459.64999999999998</ele>
        <time>2025-05-20T08:33:55Z</time>
      </trkpt>
      <trkpt lat="46.332048028707504" lon="9.205873003229499">
        <ele>460.13</ele>
        <time>2025-05-20T08:33:56Z</time>
      </trkpt>
      <trkpt lat="46.332229999825358" lon="9.205865962430835">
        <ele>461.08999999999997</ele>
        <time>2025-05-20T08:33:57Z</time>
      </trkpt>
      <trkpt lat="46.332414988428354" lon="9.205840984359384">
        <ele>461.56999999999999</ele>
        <time>2025-05-20T08:33:58Z</time>
      </trkpt>
      <trkpt lat="46.332604000344872" lon="9.205807959660888">
        <ele>462.05000000000001</ele>
        <time>2025-05-20T08:33:59Z</time>
      </trkpt>
      <trkpt lat="46.334135960787535" lon="9.205604027956724">
        <ele>464.93000000000001</ele>
        <time>2025-05-20T08:34:07Z</time>
      </trkpt>
      <trkpt lat="46.334498981013894" lon="9.2056829854846">
        <ele>465.42000000000002</ele>
        <time>2025-05-20T08:34:09Z</time>
      </trkpt>
      <trkpt lat="46.334670977666974" lon="9.205760015174747">
        <ele>465.42000000000002</ele>
        <time>2025-05-20T08:34:10Z</time>
      </trkpt>
      <trkpt lat="46.334840040653944" lon="9.205863028764725">
        <ele>465.42000000000002</ele>
        <time>2025-05-20T08:34:11Z</time>
      </trkpt>
      <trkpt lat="46.336537040770054" lon="9.207047978416085">
        <ele>468.30000000000001</ele>
        <time>2025-05-20T08:34:21Z</time>
      </trkpt>
      <trkpt lat="46.337083959951997" lon="9.207491967827082">
        <ele>470.22000000000003</ele>
        <time>2025-05-20T08:34:25Z</time>
      </trkpt>
      <trkpt lat="46.337179010733962" lon="9.207621971145272">
        <ele>470.69999999999999</ele>
        <time>2025-05-20T08:34:26Z</time>
      </trkpt>
      <trkpt lat="46.337244976311922" lon="9.207775024697185">
        <ele>471.66000000000003</ele>
        <time>2025-05-20T08:34:27Z</time>
      </trkpt>
      <trkpt lat="46.337309014052153" lon="9.207925982773304">
        <ele>472.63</ele>
        <time>2025-05-20T08:34:28Z</time>
      </trkpt>
      <trkpt lat="46.337350001558661" lon="9.2081109713763">
        <ele>473.58999999999997</ele>
        <time>2025-05-20T08:34:29Z</time>
      </trkpt>
      <trkpt lat="46.337391994893551" lon="9.208305012434721">
        <ele>474.55000000000001</ele>
        <time>2025-05-20T08:34:30Z</time>
      </trkpt>
      <trkpt lat="46.337613025680184" lon="9.209075979888439">
        <ele>478.38999999999999</ele>
        <time>2025-05-20T08:34:34Z</time>
      </trkpt>
      <trkpt lat="46.33769198320806" lon="9.209255017340183">
        <ele>478.87</ele>
        <time>2025-05-20T08:34:35Z</time>
      </trkpt>
      <trkpt lat="46.338858995586634" lon="9.211651990190148">
        <ele>486.56</ele>
        <time>2025-05-20T08:34:49Z</time>
      </trkpt>
      <trkpt lat="46.339718978852034" lon="9.213098036125302">
        <ele>487.05000000000001</ele>
        <time>2025-05-20T08:34:58Z</time>
      </trkpt>
      <trkpt lat="46.339817969128489" lon="9.213215969502926">
        <ele>487.05000000000001</ele>
        <time>2025-05-20T08:34:59Z</time>
      </trkpt>
      <trkpt lat="46.339956019073725" lon="9.213317977264524">
        <ele>487.05000000000001</ele>
        <time>2025-05-20T08:35:00Z</time>
      </trkpt>
      <trkpt lat="46.340083004906774" lon="9.213411016389728">
        <ele>487.05000000000001</ele>
        <time>2025-05-20T08:35:01Z</time>
      </trkpt>
      <trkpt lat="46.340217031538486" lon="9.213476981967688">
        <ele>486.56</ele>
        <time>2025-05-20T08:35:02Z</time>
      </trkpt>
      <trkpt lat="46.340362038463354" lon="9.213522998616099">
        <ele>486.56</ele>
        <time>2025-05-20T08:35:03Z</time>
      </trkpt>
      <trkpt lat="46.340512996539474" lon="9.213570021092892">
        <ele>486.56</ele>
        <time>2025-05-20T08:35:04Z</time>
      </trkpt>
      <trkpt lat="46.340672001242638" lon="9.213597010821104">
        <ele>486.56</ele>
        <time>2025-05-20T08:35:05Z</time>
      </trkpt>
      <trkpt lat="46.342840986326337" lon="9.213846959173679">
        <ele>487.05000000000001</ele>
        <time>2025-05-20T08:35:18Z</time>
      </trkpt>
      <trkpt lat="46.343004014343023" lon="9.213819969445467">
        <ele>487.05000000000001</ele>
        <time>2025-05-20T08:35:19Z</time>
      </trkpt>
      <trkpt lat="46.34316997602582" lon="9.213788034394383">
        <ele>487.05000000000001</ele>
        <time>2025-05-20T08:35:20Z</time>
      </trkpt>
      <trkpt lat="46.344892038032413" lon="9.213487962260842">
        <ele>489.44999999999999</ele>
        <time>2025-05-20T08:35:31Z</time>
      </trkpt>
      <trkpt lat="46.345496037974954" lon="9.213435994461179">
        <ele>490.88999999999999</ele>
        <time>2025-05-20T08:35:35Z</time>
      </trkpt>
      <trkpt lat="46.345642972737551" lon="9.213492991402745">
        <ele>491.37</ele>
        <time>2025-05-20T08:35:36Z</time>
      </trkpt>
      <trkpt lat="46.345788985490799" lon="9.213549988344312">
        <ele>491.85000000000002</ele>
        <time>2025-05-20T08:35:37Z</time>
      </trkpt>
      <trkpt lat="46.345936004072428" lon="9.213629029691219">
        <ele>492.32999999999998</ele>
        <time>2025-05-20T08:35:38Z</time>
      </trkpt>
      <trkpt lat="46.346095008775592" lon="9.213742017745972">
        <ele>493.29000000000002</ele>
        <time>2025-05-20T08:35:39Z</time>
      </trkpt>
      <trkpt lat="46.347086001187563" lon="9.214476021006703">
        <ele>496.66000000000003</ele>
        <time>2025-05-20T08:35:44Z</time>
      </trkpt>
      <trkpt lat="46.348043968901038" lon="9.215129977092147">
        <ele>500.01999999999998</ele>
        <time>2025-05-20T08:35:50Z</time>
      </trkpt>
      <trkpt lat="46.348201967775822" lon="9.215185968205333">
        <ele>500.5</ele>
        <time>2025-05-20T08:35:51Z</time>
      </trkpt>
      <trkpt lat="46.348359966650605" lon="9.215241959318519">
        <ele>501.45999999999998</ele>
        <time>2025-05-20T08:35:52Z</time>
      </trkpt>
      <trkpt lat="46.350227035582066" lon="9.215920977294445">
        <ele>504.82999999999998</ele>
        <time>2025-05-20T08:36:03Z</time>
      </trkpt>
      <trkpt lat="46.351365968585014" lon="9.216890009120107">
        <ele>506.26999999999998</ele>
        <time>2025-05-20T08:36:10Z</time>
      </trkpt>
      <trkpt lat="46.353236977010965" lon="9.218492964282632">
        <ele>511.56</ele>
        <time>2025-05-20T08:36:21Z</time>
      </trkpt>
      <trkpt lat="46.355017963796854" lon="9.219762990251184">
        <ele>523.09000000000003</ele>
        <time>2025-05-20T08:36:31Z</time>
      </trkpt>
      <trkpt lat="46.355205969884992" lon="9.219852006062865">
        <ele>524.53999999999996</ele>
        <time>2025-05-20T08:36:32Z</time>
      </trkpt>
      <trkpt lat="46.355413002893329" lon="9.219910008832812">
        <ele>526.46000000000004</ele>
        <time>2025-05-20T08:36:33Z</time>
      </trkpt>
      <trkpt lat="46.355804018676281" lon="9.219901040196419">
        <ele>530.78999999999996</ele>
        <time>2025-05-20T08:36:35Z</time>
      </trkpt>
      <trkpt lat="46.357550974935293" lon="9.219915959984064">
        <ele>545.20000000000005</ele>
        <time>2025-05-20T08:36:44Z</time>
      </trkpt>
      <trkpt lat="46.357726994901896" lon="9.219970023259521">
        <ele>546.64999999999998</ele>
        <time>2025-05-20T08:36:45Z</time>
      </trkpt>
      <trkpt lat="46.359812999144197" lon="9.22091499902308">
        <ele>556.25999999999999</ele>
        <time>2025-05-20T08:36:56Z</time>
      </trkpt>
      <trkpt lat="46.361546963453293" lon="9.221699964255095">
        <ele>562.02999999999997</ele>
        <time>2025-05-20T08:37:05Z</time>
      </trkpt>
      <trkpt lat="46.36171099729836" lon="9.221829967573285">
        <ele>562.02999999999997</ele>
        <time>2025-05-20T08:37:06Z</time>
      </trkpt>
      <trkpt lat="46.36186396703124" lon="9.221960976719856">
        <ele>562.50999999999999</ele>
        <time>2025-05-20T08:37:07Z</time>
      </trkpt>
      <trkpt lat="46.361994976177812" lon="9.222130039706826">
        <ele>562.50999999999999</ele>
        <time>2025-05-20T08:37:08Z</time>
      </trkpt>
      <trkpt lat="46.362123973667622" lon="9.222302036359906">
        <ele>562.99000000000001</ele>
        <time>2025-05-20T08:37:09Z</time>
      </trkpt>
      <trkpt lat="46.362236961722374" lon="9.222501022741199">
        <ele>562.99000000000001</ele>
        <time>2025-05-20T08:37:10Z</time>
      </trkpt>
      <trkpt lat="46.362325977534056" lon="9.222731022164226">
        <ele>562.99000000000001</ele>
        <time>2025-05-20T08:37:11Z</time>
      </trkpt>
      <trkpt lat="46.362417005002499" lon="9.222966972738504">
        <ele>563.47000000000003</ele>
        <time>2025-05-20T08:37:12Z</time>
      </trkpt>
      <trkpt lat="46.36250602081418" lon="9.223195966333151">
        <ele>562.99000000000001</ele>
        <time>2025-05-20T08:37:13Z</time>
      </trkpt>
      <trkpt lat="46.362753035500646" lon="9.223797032609582">
        <ele>562.99000000000001</ele>
        <time>2025-05-20T08:37:16Z</time>
      </trkpt>
      <trkpt lat="46.362857976928353" lon="9.223959976807237">
        <ele>562.99000000000001</ele>
        <time>2025-05-20T08:37:17Z</time>
      </trkpt>
      <trkpt lat="46.362990997731686" lon="9.224083023145795">
        <ele>563.47000000000003</ele>
        <time>2025-05-20T08:37:18Z</time>
      </trkpt>
      <trkpt lat="46.363126030191779" lon="9.224205985665321">
        <ele>563.95000000000005</ele>
        <time>2025-05-20T08:37:19Z</time>
      </trkpt>
      <trkpt lat="46.363281011581421" lon="9.224296007305384">
        <ele>564.42999999999995</ele>
        <time>2025-05-20T08:37:20Z</time>
      </trkpt>
      <trkpt lat="46.363928010687232" lon="9.224560037255287">
        <ele>566.83000000000004</ele>
        <time>2025-05-20T08:37:24Z</time>
      </trkpt>
      <trkpt lat="46.364078968763351" lon="9.224572023376823">
        <ele>567.79999999999995</ele>
        <time>2025-05-20T08:37:25Z</time>
      </trkpt>
      <trkpt lat="46.364232022315264" lon="9.224526006728411">
        <ele>568.27999999999997</ele>
        <time>2025-05-20T08:37:26Z</time>
      </trkpt>
      <trkpt lat="46.364385997876525" lon="9.224479990079999">
        <ele>569.24000000000001</ele>
        <time>2025-05-20T08:37:27Z</time>
      </trkpt>
      <trkpt lat="46.364536033943295" lon="9.224434979259968">
        <ele>569.72000000000003</ele>
        <time>2025-05-20T08:37:28Z</time>
      </trkpt>
      <trkpt lat="46.364810960367322" lon="9.22435199841857">
        <ele>571.15999999999997</ele>
        <time>2025-05-20T08:37:30Z</time>
      </trkpt>
      <trkpt lat="46.36495697312057" lon="9.224330959841609">
        <ele>571.63999999999999</ele>
        <time>2025-05-20T08:37:31Z</time>
      </trkpt>
      <trkpt lat="46.36510600335896" lon="9.224364990368486">
        <ele>572.12</ele>
        <time>2025-05-20T08:37:32Z</time>
      </trkpt>
      <trkpt lat="46.365247992798686" lon="9.224405977874994">
        <ele>573.08000000000004</ele>
        <time>2025-05-20T08:37:33Z</time>
      </trkpt>
      <trkpt lat="46.365390988066792" lon="9.224531035870314">
        <ele>574.03999999999996</ele>
        <time>2025-05-20T08:37:34Z</time>
      </trkpt>
      <trkpt lat="46.365501964464784" lon="9.22465299256146">
        <ele>574.52999999999997</ele>
        <time>2025-05-20T08:37:35Z</time>
      </trkpt>
      <trkpt lat="46.365603972226381" lon="9.224836975336075">
        <ele>575.49000000000001</ele>
        <time>2025-05-20T08:37:36Z</time>
      </trkpt>
      <trkpt lat="46.365700028836727" lon="9.225009977817535">
        <ele>576.45000000000005</ele>
        <time>2025-05-20T08:37:37Z</time>
      </trkpt>
      <trkpt lat="46.365937991067767" lon="9.22527501359582">
        <ele>578.37</ele>
        <time>2025-05-20T08:37:39Z</time>
      </trkpt>
      <trkpt lat="46.366038993000984" lon="9.225382972508669">
        <ele>579.33000000000004</ele>
        <time>2025-05-20T08:37:40Z</time>
      </trkpt>
      <trkpt lat="46.366210989654064" lon="9.225432006642222">
        <ele>580.28999999999996</ele>
        <time>2025-05-20T08:37:41Z</time>
      </trkpt>
      <trkpt lat="46.366517012938857" lon="9.225519010797143">
        <ele>582.22000000000003</ele>
        <time>2025-05-20T08:37:43Z</time>
      </trkpt>
      <trkpt lat="46.366996038705111" lon="9.225565027445555">
        <ele>585.58000000000004</ele>
        <time>2025-05-20T08:37:46Z</time>
      </trkpt>
      <trkpt lat="46.367138028144836" lon="9.225542983040214">
        <ele>587.01999999999998</ele>
        <time>2025-05-20T08:37:47Z</time>
      </trkpt>
      <trkpt lat="46.367274988442659" lon="9.225492021068931">
        <ele>587.98000000000002</ele>
        <time>2025-05-20T08:37:48Z</time>
      </trkpt>
      <trkpt lat="46.367418989539146" lon="9.225414991378784">
        <ele>588.95000000000005</ele>
        <time>2025-05-20T08:37:49Z</time>
      </trkpt>
      <trkpt lat="46.367566008120775" lon="9.225321030244231">
        <ele>589.42999999999995</ele>
        <time>2025-05-20T08:37:50Z</time>
      </trkpt>
      <trkpt lat="46.367706991732121" lon="9.225199995562434">
        <ele>590.38999999999999</ele>
        <time>2025-05-20T08:37:51Z</time>
      </trkpt>
      <trkpt lat="46.368670994415879" lon="9.224402038380504">
        <ele>595.66999999999996</ele>
        <time>2025-05-20T08:37:58Z</time>
      </trkpt>
      <trkpt lat="46.368822958320379" lon="9.224359961226583">
        <ele>596.14999999999998</ele>
        <time>2025-05-20T08:37:59Z</time>
      </trkpt>
      <trkpt lat="46.36897400021553" lon="9.224334983155131">
        <ele>596.63999999999999</ele>
        <time>2025-05-20T08:38:00Z</time>
      </trkpt>
      <trkpt lat="46.369133004918694" lon="9.224347975105047">
        <ele>597.12</ele>
        <time>2025-05-20T08:38:01Z</time>
      </trkpt>
      <trkpt lat="46.369280023500323" lon="9.224401032552123">
        <ele>597.60000000000002</ele>
        <time>2025-05-20T08:38:02Z</time>
      </trkpt>
      <trkpt lat="46.36942695826292" lon="9.22448200173676">
        <ele>598.08000000000004</ele>
        <time>2025-05-20T08:38:03Z</time>
      </trkpt>
      <trkpt lat="46.369571965187788" lon="9.224561965093017">
        <ele>598.08000000000004</ele>
        <time>2025-05-20T08:38:04Z</time>
      </trkpt>
      <trkpt lat="46.369711020961404" lon="9.224638994783163">
        <ele>598.55999999999995</ele>
        <time>2025-05-20T08:38:05Z</time>
      </trkpt>
      <trkpt lat="46.369845969602466" lon="9.224704960361123">
        <ele>598.55999999999995</ele>
        <time>2025-05-20T08:38:06Z</time>
      </trkpt>
      <trkpt lat="46.369967004284263" lon="9.224741002544761">
        <ele>598.55999999999995</ele>
        <time>2025-05-20T08:38:07Z</time>
      </trkpt>
      <trkpt lat="46.37008803896606" lon="9.224757011979818">
        <ele>598.55999999999995</ele>
        <time>2025-05-20T08:38:08Z</time>
      </trkpt>
      <trkpt lat="46.370213013142347" lon="9.224748965352774">
        <ele>599.03999999999996</ele>
        <time>2025-05-20T08:38:09Z</time>
      </trkpt>
      <trkpt lat="46.370351985096931" lon="9.224738990888">
        <ele>599.03999999999996</ele>
        <time>2025-05-20T08:38:10Z</time>
      </trkpt>
      <trkpt lat="46.37049799785018" lon="9.224702026695013">
        <ele>599.03999999999996</ele>
        <time>2025-05-20T08:38:11Z</time>
      </trkpt>
      <trkpt lat="46.371128987520933" lon="9.2245680000633">
        <ele>599.51999999999998</ele>
        <time>2025-05-20T08:38:15Z</time>
      </trkpt>
      <trkpt lat="46.371295033022761" lon="9.2245680000633">
        <ele>599.51999999999998</ele>
        <time>2025-05-20T08:38:16Z</time>
      </trkpt>
      <trkpt lat="46.371434004977345" lon="9.224634971469641">
        <ele>599.51999999999998</ele>
        <time>2025-05-20T08:38:17Z</time>
      </trkpt>
      <trkpt lat="46.371582029387355" lon="9.2247199639678">
        <ele>599.51999999999998</ele>
        <time>2025-05-20T08:38:18Z</time>
      </trkpt>
      <trkpt lat="46.371731981635094" lon="9.224806968122721">
        <ele>599.51999999999998</ele>
        <time>2025-05-20T08:38:19Z</time>
      </trkpt>
      <trkpt lat="46.3718749769032" lon="9.22488902695477">
        <ele>599.51999999999998</ele>
        <time>2025-05-20T08:38:20Z</time>
      </trkpt>
      <trkpt lat="46.371986037120223" lon="9.225005032494664">
        <ele>599.03999999999996</ele>
        <time>2025-05-20T08:38:21Z</time>
      </trkpt>
      <trkpt lat="46.372092990204692" lon="9.225117014721036">
        <ele>599.03999999999996</ele>
        <time>2025-05-20T08:38:22Z</time>
      </trkpt>
      <trkpt lat="46.372326007112861" lon="9.22536101192236">
        <ele>598.55999999999995</ele>
        <time>2025-05-20T08:38:25Z</time>
      </trkpt>
      <trkpt lat="46.372965965420008" lon="9.226224012672901">
        <ele>600.48000000000002</ele>
        <time>2025-05-20T08:38:31Z</time>
      </trkpt>
      <trkpt lat="46.373755037784576" lon="9.227157002314925">
        <ele>605.76999999999998</ele>
        <time>2025-05-20T08:38:37Z</time>
      </trkpt>
      <trkpt lat="46.374499015510082" lon="9.227634016424418">
        <ele>612.01999999999998</ele>
        <time>2025-05-20T08:38:42Z</time>
      </trkpt>
      <trkpt lat="46.374650979414582" lon="9.227671986445785">
        <ele>613.46000000000004</ele>
        <time>2025-05-20T08:38:43Z</time>
      </trkpt>
      <trkpt lat="46.374800009652972" lon="9.227692019194365">
        <ele>614.89999999999998</ele>
        <time>2025-05-20T08:38:44Z</time>
      </trkpt>
      <trkpt lat="46.374951973557472" lon="9.227711968123913">
        <ele>616.34000000000003</ele>
        <time>2025-05-20T08:38:45Z</time>
      </trkpt>
      <trkpt lat="46.375107038766146" lon="9.227732000872493">
        <ele>617.77999999999997</ele>
        <time>2025-05-20T08:38:46Z</time>
      </trkpt>
      <trkpt lat="46.375723024830222" lon="9.227935010567308">
        <ele>624.02999999999997</ele>
        <time>2025-05-20T08:38:50Z</time>
      </trkpt>
      <trkpt lat="46.375869959592819" lon="9.228043975308538">
        <ele>626.44000000000005</ele>
        <time>2025-05-20T08:38:51Z</time>
      </trkpt>
      <trkpt lat="46.376017984002829" lon="9.228153023868799">
        <ele>628.36000000000001</ele>
        <time>2025-05-20T08:38:52Z</time>
      </trkpt>
      <trkpt lat="46.376152010634542" lon="9.228274980559945">
        <ele>629.79999999999995</ele>
        <time>2025-05-20T08:38:53Z</time>
      </trkpt>
      <trkpt lat="46.376284025609493" lon="9.228431973606348">
        <ele>631.72000000000003</ele>
        <time>2025-05-20T08:38:54Z</time>
      </trkpt>
      <trkpt lat="46.376416962593794" lon="9.228590978309512">
        <ele>633.64999999999998</ele>
        <time>2025-05-20T08:38:55Z</time>
      </trkpt>
      <trkpt lat="46.37733000330627" lon="9.229539977386594">
        <ele>644.70000000000005</ele>
        <time>2025-05-20T08:39:02Z</time>
      </trkpt>
      <trkpt lat="46.3776979688555" lon="9.229691019281745">
        <ele>649.50999999999999</ele>
        <time>2025-05-20T08:39:05Z</time>
      </trkpt>
      <trkpt lat="46.377842975780368" lon="9.229742987081409">
        <ele>651.42999999999995</ele>
        <time>2025-05-20T08:39:06Z</time>
      </trkpt>
      <trkpt lat="46.378016984090209" lon="9.229807024821639">
        <ele>652.87</ele>
        <time>2025-05-20T08:39:07Z</time>
      </trkpt>
      <trkpt lat="46.378756016492844" lon="9.230355033650994">
        <ele>662.00999999999999</ele>
        <time>2025-05-20T08:39:12Z</time>
      </trkpt>
      <trkpt lat="46.380451004952192" lon="9.231194984167814">
        <ele>684.12</ele>
        <time>2025-05-20T08:39:22Z</time>
      </trkpt>
      <trkpt lat="46.380778988823295" lon="9.23139899969101">
        <ele>688.44000000000005</ele>
        <time>2025-05-20T08:39:24Z</time>
      </trkpt>
      <trkpt lat="46.380946962162852" lon="9.231481980532408">
        <ele>690.36000000000001</ele>
        <time>2025-05-20T08:39:25Z</time>
      </trkpt>
      <trkpt lat="46.381114013493061" lon="9.231563033536077">
        <ele>692.28999999999996</ele>
        <time>2025-05-20T08:39:26Z</time>
      </trkpt>
      <trkpt lat="46.381276035681367" lon="9.231640985235572">
        <ele>694.21000000000004</ele>
        <time>2025-05-20T08:39:27Z</time>
      </trkpt>
      <trkpt lat="46.381440991535783" lon="9.231708962470293">
        <ele>696.13</ele>
        <time>2025-05-20T08:39:28Z</time>
      </trkpt>
      <trkpt lat="46.3825090136379" lon="9.232193017378449">
        <ele>711.50999999999999</ele>
        <time>2025-05-20T08:39:35Z</time>
      </trkpt>
      <trkpt lat="46.383336978033185" lon="9.232672965154052">
        <ele>721.13</ele>
        <time>2025-05-20T08:39:41Z</time>
      </trkpt>
      <trkpt lat="46.383479973301291" lon="9.232730967923999">
        <ele>722.09000000000003</ele>
        <time>2025-05-20T08:39:42Z</time>
      </trkpt>
      <trkpt lat="46.383989006280899" lon="9.232829036191106">
        <ele>725.92999999999995</ele>
        <time>2025-05-20T08:39:46Z</time>
      </trkpt>
      <trkpt lat="46.384095959365368" lon="9.232795005664229">
        <ele>726.88999999999999</ele>
        <time>2025-05-20T08:39:47Z</time>
      </trkpt>
      <trkpt lat="46.384197967126966" lon="9.232729962095618">
        <ele>727.37</ele>
        <time>2025-05-20T08:39:48Z</time>
      </trkpt>
      <trkpt lat="46.384297041222453" lon="9.2326670140028">
        <ele>728.34000000000003</ele>
        <time>2025-05-20T08:39:49Z</time>
      </trkpt>
      <trkpt lat="46.384388990700245" lon="9.232609011232853">
        <ele>728.82000000000005</ele>
        <time>2025-05-20T08:39:50Z</time>
      </trkpt>
      <trkpt lat="46.38448303565383" lon="9.232585038989782">
        <ele>729.29999999999995</ele>
        <time>2025-05-20T08:39:51Z</time>
      </trkpt>
      <trkpt lat="46.38456903398037" lon="9.232628960162401">
        <ele>729.77999999999997</ele>
        <time>2025-05-20T08:39:52Z</time>
      </trkpt>
      <trkpt lat="46.384645979851484" lon="9.232717975974083">
        <ele>730.25999999999999</ele>
        <time>2025-05-20T08:39:53Z</time>
      </trkpt>
      <trkpt lat="46.384725021198392" lon="9.232811015099287">
        <ele>731.22000000000003</ele>
        <time>2025-05-20T08:39:54Z</time>
      </trkpt>
      <trkpt lat="46.384805990383029" lon="9.23290497623384">
        <ele>731.70000000000005</ele>
        <time>2025-05-20T08:39:55Z</time>
      </trkpt>
      <trkpt lat="46.384909003973007" lon="9.232971025630832">
        <ele>732.65999999999997</ele>
        <time>2025-05-20T08:39:56Z</time>
      </trkpt>
      <trkpt lat="46.386065036058426" lon="9.233301021158695">
        <ele>742.75999999999999</ele>
        <time>2025-05-20T08:40:06Z</time>
      </trkpt>
      <trkpt lat="46.387130962684751" lon="9.233578965067864">
        <ele>753.80999999999995</ele>
        <time>2025-05-20T08:40:15Z</time>
      </trkpt>
      <trkpt lat="46.387469004839659" lon="9.233740987256169">
        <ele>758.13999999999999</ele>
        <time>2025-05-20T08:40:18Z</time>
      </trkpt>
      <trkpt lat="46.387573024258018" lon="9.233794966712594">
        <ele>759.58000000000004</ele>
        <time>2025-05-20T08:40:19Z</time>
      </trkpt>
      <trkpt lat="46.387671008706093" lon="9.233847018331289">
        <ele>760.53999999999996</ele>
        <time>2025-05-20T08:40:20Z</time>
      </trkpt>
      <trkpt lat="46.38785800896585" lon="9.233942991122603">
        <ele>762.94000000000005</ele>
        <time>2025-05-20T08:40:22Z</time>
      </trkpt>
      <trkpt lat="46.38796697370708" lon="9.233906026929617">
        <ele>763.89999999999998</ele>
        <time>2025-05-20T08:40:23Z</time>
      </trkpt>
      <trkpt lat="46.388056995347142" lon="9.233873002231121">
        <ele>764.87</ele>
        <time>2025-05-20T08:40:24Z</time>
      </trkpt>
      <trkpt lat="46.388152968138456" lon="9.233836960047483">
        <ele>765.35000000000002</ele>
        <time>2025-05-20T08:40:25Z</time>
      </trkpt>
      <trkpt lat="46.38826897367835" lon="9.233793960884213">
        <ele>765.83000000000004</ele>
        <time>2025-05-20T08:40:26Z</time>
      </trkpt>
      <trkpt lat="46.388372993096709" lon="9.233726989477873">
        <ele>766.30999999999995</ele>
        <time>2025-05-20T08:40:27Z</time>
      </trkpt>
      <trkpt lat="46.388484975323081" lon="9.233653983101249">
        <ele>767.26999999999998</ele>
        <time>2025-05-20T08:40:28Z</time>
      </trkpt>
      <trkpt lat="46.38899702578783" lon="9.233321975916624">
        <ele>769.66999999999996</ele>
        <time>2025-05-20T08:40:33Z</time>
      </trkpt>
      <trkpt lat="46.38940597884357" lon="9.233168000355363">
        <ele>771.60000000000002</ele>
        <time>2025-05-20T08:40:38Z</time>
      </trkpt>
      <trkpt lat="46.389503041282296" lon="9.233150985091925">
        <ele>772.08000000000004</ele>
        <time>2025-05-20T08:40:39Z</time>
      </trkpt>
      <trkpt lat="46.38962097465992" lon="9.233129024505615">
        <ele>773.03999999999996</ele>
        <time>2025-05-20T08:40:40Z</time>
      </trkpt>
      <trkpt lat="46.3899000082165" lon="9.233150985091925">
        <ele>774.96000000000004</ele>
        <time>2025-05-20T08:40:43Z</time>
      </trkpt>
      <trkpt lat="46.389982989057899" lon="9.233159031718969">
        <ele>775.44000000000005</ele>
        <time>2025-05-20T08:40:44Z</time>
      </trkpt>
      <trkpt lat="46.390063958242536" lon="9.233168000355363">
        <ele>775.91999999999996</ele>
        <time>2025-05-20T08:40:45Z</time>
      </trkpt>
      <trkpt lat="46.39022002927959" lon="9.233184009790421">
        <ele>777.84000000000003</ele>
        <time>2025-05-20T08:40:47Z</time>
      </trkpt>
      <trkpt lat="46.39030703343451" lon="9.233193984255195">
        <ele>778.80999999999995</ele>
        <time>2025-05-20T08:40:48Z</time>
      </trkpt>
      <trkpt lat="46.390423960983753" lon="9.233179986476898">
        <ele>780.73000000000002</ele>
        <time>2025-05-20T08:40:50Z</time>
      </trkpt>
      <trkpt lat="46.390558993443847" lon="9.233163977041841">
        <ele>782.64999999999998</ele>
        <time>2025-05-20T08:40:52Z</time>
      </trkpt>
      <trkpt lat="46.390615990385413" lon="9.233157020062208">
        <ele>784.09000000000003</ele>
        <time>2025-05-20T08:40:53Z</time>
      </trkpt>
      <trkpt lat="46.39067399315536" lon="9.233149979263544">
        <ele>785.04999999999995</ele>
        <time>2025-05-20T08:40:54Z</time>
      </trkpt>
      <trkpt lat="46.390725960955024" lon="9.233136987313628">
        <ele>786.01999999999998</ele>
        <time>2025-05-20T08:40:55Z</time>
      </trkpt>
      <trkpt lat="46.390783963724971" lon="9.233122989535332">
        <ele>787.46000000000004</ele>
        <time>2025-05-20T08:40:56Z</time>
      </trkpt>
      <trkpt lat="46.390978004783392" lon="9.233086025342345">
        <ele>790.82000000000005</ele>
        <time>2025-05-20T08:40:59Z</time>
      </trkpt>
      <trkpt lat="46.391194006428123" lon="9.233086025342345">
        <ele>794.66999999999996</ele>
        <time>2025-05-20T08:41:02Z</time>
      </trkpt>
      <trkpt lat="46.391277993097901" lon="9.233086025342345">
        <ele>795.63</ele>
        <time>2025-05-20T08:41:03Z</time>
      </trkpt>
      <trkpt lat="46.391359968110919" lon="9.233065992593765">
        <ele>796.59000000000003</ele>
        <time>2025-05-20T08:41:04Z</time>
      </trkpt>
      <trkpt lat="46.391443032771349" lon="9.233027016744018">
        <ele>797.54999999999995</ele>
        <time>2025-05-20T08:41:05Z</time>
      </trkpt>
      <trkpt lat="46.391525007784367" lon="9.23298804089427">
        <ele>798.50999999999999</ele>
        <time>2025-05-20T08:41:06Z</time>
      </trkpt>
      <trkpt lat="46.39193999581039" lon="9.232793999835849">
        <ele>800.91999999999996</ele>
        <time>2025-05-20T08:41:11Z</time>
      </trkpt>
      <trkpt lat="46.392459003254771" lon="9.232595013454557">
        <ele>804.27999999999997</ele>
        <time>2025-05-20T08:41:17Z</time>
      </trkpt>
      <trkpt lat="46.392541984096169" lon="9.232566012069583">
        <ele>805.24000000000001</ele>
        <time>2025-05-20T08:41:18Z</time>
      </trkpt>
      <trkpt lat="46.393241034820676" lon="9.232308017089963">
        <ele>815.34000000000003</ele>
        <time>2025-05-20T08:41:26Z</time>
      </trkpt>
      <trkpt lat="46.394245019182563" lon="9.231934016570449">
        <ele>829.26999999999998</ele>
        <time>2025-05-20T08:41:37Z</time>
      </trkpt>
      <trkpt lat="46.394330011680722" lon="9.231900991871953">
        <ele>828.78999999999996</ele>
        <time>2025-05-20T08:41:38Z</time>
      </trkpt>
      <trkpt lat="46.394421039149165" lon="9.231866961345077">
        <ele>828.30999999999995</ele>
        <time>2025-05-20T08:41:39Z</time>
      </trkpt>
      <trkpt lat="46.39546500518918" lon="9.231469994410873">
        <ele>830.24000000000001</ele>
        <time>2025-05-20T08:41:49Z</time>
      </trkpt>
      <trkpt lat="46.395824002102017" lon="9.231251981109381">
        <ele>834.08000000000004</ele>
        <time>2025-05-20T08:41:52Z</time>
      </trkpt>
      <trkpt lat="46.395943025127053" lon="9.231143016368151">
        <ele>835.51999999999998</ele>
        <time>2025-05-20T08:41:53Z</time>
      </trkpt>
      <trkpt lat="46.396813988685608" lon="9.230422005057335">
        <ele>841.28999999999996</ele>
        <time>2025-05-20T08:42:00Z</time>
      </trkpt>
      <trkpt lat="46.396950026974082" lon="9.230356961488724">
        <ele>842.25</ele>
        <time>2025-05-20T08:42:01Z</time>
      </trkpt>
      <trkpt lat="46.39709796756506" lon="9.230338018387556">
        <ele>843.21000000000004</ele>
        <time>2025-05-20T08:42:02Z</time>
      </trkpt>
      <trkpt lat="46.397860972210765" lon="9.230340030044317">
        <ele>848.98000000000002</ele>
        <time>2025-05-20T08:42:07Z</time>
      </trkpt>
      <trkpt lat="46.398002961650491" lon="9.230292001739144">
        <ele>850.41999999999996</ele>
        <time>2025-05-20T08:42:08Z</time>
      </trkpt>
      <trkpt lat="46.398119973018765" lon="9.23021798953414">
        <ele>851.38</ele>
        <time>2025-05-20T08:42:09Z</time>
      </trkpt>
      <trkpt lat="46.398228015750647" lon="9.230124028399587">
        <ele>852.35000000000002</ele>
        <time>2025-05-20T08:42:10Z</time>
      </trkpt>
      <trkpt lat="46.398328011855483" lon="9.230038030073047">
        <ele>853.78999999999996</ele>
        <time>2025-05-20T08:42:11Z</time>
      </trkpt>
      <trkpt lat="46.398417027667165" lon="9.229967035353184">
        <ele>854.75</ele>
        <time>2025-05-20T08:42:12Z</time>
      </trkpt>
      <trkpt lat="46.398502020165324" lon="9.229906015098095">
        <ele>855.71000000000004</ele>
        <time>2025-05-20T08:42:13Z</time>
      </trkpt>
      <trkpt lat="46.39857997186482" lon="9.229880031198263">
        <ele>856.66999999999996</ele>
        <time>2025-05-20T08:42:14Z</time>
      </trkpt>
      <trkpt lat="46.398664964362979" lon="9.229880031198263">
        <ele>858.11000000000001</ele>
        <time>2025-05-20T08:42:15Z</time>
      </trkpt>
      <trkpt lat="46.398729002103209" lon="9.229956977069378">
        <ele>859.08000000000004</ele>
        <time>2025-05-20T08:42:16Z</time>
      </trkpt>
      <trkpt lat="46.39877300709486" lon="9.230096032842994">
        <ele>860.51999999999998</ele>
        <time>2025-05-20T08:42:17Z</time>
      </trkpt>
      <trkpt lat="46.398788010701537" lon="9.230224024504423">
        <ele>861.48000000000002</ele>
        <time>2025-05-20T08:42:18Z</time>
      </trkpt>
      <trkpt lat="46.398803014308214" lon="9.230356961488724">
        <ele>862.44000000000005</ele>
        <time>2025-05-20T08:42:19Z</time>
      </trkpt>
      <trkpt lat="46.398818017914891" lon="9.230482019484043">
        <ele>862.91999999999996</ele>
        <time>2025-05-20T08:42:20Z</time>
      </trkpt>
      <trkpt lat="46.398844001814723" lon="9.230585033074021">
        <ele>863.88</ele>
        <time>2025-05-20T08:42:21Z</time>
      </trkpt>
      <trkpt lat="46.398895969614387" lon="9.230680000036955">
        <ele>864.84000000000003</ele>
        <time>2025-05-20T08:42:22Z</time>
      </trkpt>
      <trkpt lat="46.398953972384334" lon="9.230761975049973">
        <ele>865.79999999999995</ele>
        <time>2025-05-20T08:42:23Z</time>
      </trkpt>
      <trkpt lat="46.39903100207448" lon="9.2308209836483">
        <ele>867.25</ele>
        <time>2025-05-20T08:42:24Z</time>
      </trkpt>
      <trkpt lat="46.399112977087498" lon="9.230874041095376">
        <ele>868.21000000000004</ele>
        <time>2025-05-20T08:42:25Z</time>
      </trkpt>
      <trkpt lat="46.399197969585657" lon="9.230854008346796">
        <ele>869.16999999999996</ele>
        <time>2025-05-20T08:42:26Z</time>
      </trkpt>
      <trkpt lat="46.399286985397339" lon="9.230832969769836">
        <ele>870.13</ele>
        <time>2025-05-20T08:42:27Z</time>
      </trkpt>
      <trkpt lat="46.399382036179304" lon="9.230811009183526">
        <ele>871.09000000000003</ele>
        <time>2025-05-20T08:42:28Z</time>
      </trkpt>
      <trkpt lat="46.39948396012187" lon="9.230782007798553">
        <ele>872.04999999999995</ele>
        <time>2025-05-20T08:42:29Z</time>
      </trkpt>
      <trkpt lat="46.399774979799986" lon="9.230600036680698">
        <ele>875.89999999999998</ele>
        <time>2025-05-20T08:42:32Z</time>
      </trkpt>
      <trkpt lat="46.399860978126526" lon="9.230509009212256">
        <ele>876.86000000000001</ele>
        <time>2025-05-20T08:42:33Z</time>
      </trkpt>
      <trkpt lat="46.399930967018008" lon="9.230384035035968">
        <ele>878.29999999999995</ele>
        <time>2025-05-20T08:42:34Z</time>
      </trkpt>
      <trkpt lat="46.399966003373265" lon="9.23024196177721">
        <ele>879.25999999999999</ele>
        <time>2025-05-20T08:42:35Z</time>
      </trkpt>
      <trkpt lat="46.400001039728522" lon="9.230102989822626">
        <ele>880.71000000000004</ele>
        <time>2025-05-20T08:42:36Z</time>
      </trkpt>
      <trkpt lat="46.400015037506819" lon="9.229954965412617">
        <ele>881.66999999999996</ele>
        <time>2025-05-20T08:42:37Z</time>
      </trkpt>
      <trkpt lat="46.400026017799973" lon="9.2298090364784">
        <ele>882.63</ele>
        <time>2025-05-20T08:42:38Z</time>
      </trkpt>
      <trkpt lat="46.400005985051394" lon="9.229661012068391">
        <ele>883.11000000000001</ele>
        <time>2025-05-20T08:42:39Z</time>
      </trkpt>
      <trkpt lat="46.399978995323181" lon="9.229514999315143">
        <ele>884.07000000000005</ele>
        <time>2025-05-20T08:42:40Z</time>
      </trkpt>
      <trkpt lat="46.399948988109827" lon="9.229366974905133">
        <ele>885.02999999999997</ele>
        <time>2025-05-20T08:42:41Z</time>
      </trkpt>
      <trkpt lat="46.399937001988292" lon="9.229199001565576">
        <ele>885.99000000000001</ele>
        <time>2025-05-20T08:42:42Z</time>
      </trkpt>
      <trkpt lat="46.399931972846389" lon="9.229029016569257">
        <ele>886.47000000000003</ele>
        <time>2025-05-20T08:42:43Z</time>
      </trkpt>
      <trkpt lat="46.399926021695137" lon="9.228860959410667">
        <ele>887.42999999999995</ele>
        <time>2025-05-20T08:42:44Z</time>
      </trkpt>
      <trkpt lat="46.399926021695137" lon="9.228685023263097">
        <ele>888.39999999999998</ele>
        <time>2025-05-20T08:42:45Z</time>
      </trkpt>
      <trkpt lat="46.399967009201646" lon="9.228523001074791">
        <ele>889.36000000000001</ele>
        <time>2025-05-20T08:42:46Z</time>
      </trkpt>
      <trkpt lat="46.400007996708155" lon="9.228360978886485">
        <ele>890.32000000000005</ele>
        <time>2025-05-20T08:42:47Z</time>
      </trkpt>
      <trkpt lat="46.40027797780931" lon="9.227437963709235">
        <ele>896.57000000000005</ele>
        <time>2025-05-20T08:42:54Z</time>
      </trkpt>
      <trkpt lat="46.400328017771244" lon="9.227356994524598">
        <ele>897.52999999999997</ele>
        <time>2025-05-20T08:42:55Z</time>
      </trkpt>
      <trkpt lat="46.400392977520823" lon="9.227320030331612">
        <ele>898.00999999999999</ele>
        <time>2025-05-20T08:42:56Z</time>
      </trkpt>
      <trkpt lat="46.400461038574576" lon="9.227280970662832">
        <ele>898.49000000000001</ele>
        <time>2025-05-20T08:42:57Z</time>
      </trkpt>
      <trkpt lat="46.400530021637678" lon="9.227292034775019">
        <ele>898.97000000000003</ele>
        <time>2025-05-20T08:42:58Z</time>
      </trkpt>
      <trkpt lat="46.400586012750864" lon="9.227313995361328">
        <ele>899.45000000000005</ele>
        <time>2025-05-20T08:42:59Z</time>
      </trkpt>
      <trkpt lat="46.400656001642346" lon="9.227395970374346">
        <ele>899.92999999999995</ele>
        <time>2025-05-20T08:43:00Z</time>
      </trkpt>
      <trkpt lat="46.400715010240674" lon="9.227465959265828">
        <ele>900.40999999999997</ele>
        <time>2025-05-20T08:43:01Z</time>
      </trkpt>
      <trkpt lat="46.400743005797267" lon="9.227583976462483">
        <ele>900.88999999999999</ele>
        <time>2025-05-20T08:43:02Z</time>
      </trkpt>
      <trkpt lat="46.40077200718224" lon="9.22770501114428">
        <ele>901.37</ele>
        <time>2025-05-20T08:43:03Z</time>
      </trkpt>
      <trkpt lat="46.400800002738833" lon="9.227819005027413">
        <ele>902.33000000000004</ele>
        <time>2025-05-20T08:43:04Z</time>
      </trkpt>
      <trkpt lat="46.400825986638665" lon="9.227926963940263">
        <ele>903.29999999999995</ele>
        <time>2025-05-20T08:43:05Z</time>
      </trkpt>
      <trkpt lat="46.400851970538497" lon="9.228034000843763">
        <ele>903.77999999999997</ele>
        <time>2025-05-20T08:43:06Z</time>
      </trkpt>
      <trkpt lat="46.400897987186909" lon="9.2281339969486">
        <ele>904.25999999999999</ele>
        <time>2025-05-20T08:43:07Z</time>
      </trkpt>
      <trkpt lat="46.400960013270378" lon="9.228223012760282">
        <ele>904.74000000000001</ele>
        <time>2025-05-20T08:43:08Z</time>
      </trkpt>
      <trkpt lat="46.401022039353848" lon="9.228313034400344">
        <ele>905.70000000000005</ele>
        <time>2025-05-20T08:43:09Z</time>
      </trkpt>
      <trkpt lat="46.401086999103427" lon="9.228405989706516">
        <ele>906.17999999999995</ele>
        <time>2025-05-20T08:43:10Z</time>
      </trkpt>
      <trkpt lat="46.401153970509768" lon="9.228502968326211">
        <ele>907.13999999999999</ele>
        <time>2025-05-20T08:43:11Z</time>
      </trkpt>
      <trkpt lat="46.40122102573514" lon="9.228599024936557">
        <ele>908.10000000000002</ele>
        <time>2025-05-20T08:43:12Z</time>
      </trkpt>
      <trkpt lat="46.401283973827958" lon="9.228689968585968">
        <ele>909.05999999999995</ele>
        <time>2025-05-20T08:43:13Z</time>
      </trkpt>
      <trkpt lat="46.401339964941144" lon="9.228771021589637">
        <ele>910.02999999999997</ele>
        <time>2025-05-20T08:43:14Z</time>
      </trkpt>
      <trkpt lat="46.401386987417936" lon="9.228838998824358">
        <ele>910.99000000000001</ele>
        <time>2025-05-20T08:43:15Z</time>
      </trkpt>
      <trkpt lat="46.401433004066348" lon="9.228875041007996">
        <ele>911.95000000000005</ele>
        <time>2025-05-20T08:43:16Z</time>
      </trkpt>
      <trkpt lat="46.401443984359503" lon="9.228880992159247">
        <ele>912.42999999999995</ele>
        <time>2025-05-20T08:43:17Z</time>
      </trkpt>
      <trkpt lat="46.40148002654314" lon="9.228808991611004">
        <ele>913.38999999999999</ele>
        <time>2025-05-20T08:43:18Z</time>
      </trkpt>
      <trkpt lat="46.401506010442972" lon="9.22875601798296">
        <ele>913.87</ele>
        <time>2025-05-20T08:43:19Z</time>
      </trkpt>
      <trkpt lat="46.401517996564507" lon="9.228688040748239">
        <ele>914.35000000000002</ele>
        <time>2025-05-20T08:43:20Z</time>
      </trkpt>
      <trkpt lat="46.401468040421605" lon="9.228601958602667">
        <ele>915.30999999999995</ele>
        <time>2025-05-20T08:43:21Z</time>
      </trkpt>
      <trkpt lat="46.401410037651658" lon="9.228501040488482">
        <ele>915.78999999999996</ele>
        <time>2025-05-20T08:43:22Z</time>
      </trkpt>
      <trkpt lat="46.401229994371533" lon="9.228187976405025">
        <ele>917.24000000000001</ele>
        <time>2025-05-20T08:43:25Z</time>
      </trkpt>
      <trkpt lat="46.401208033785224" lon="9.228094015270472">
        <ele>917.72000000000003</ele>
        <time>2025-05-20T08:43:26Z</time>
      </trkpt>
      <trkpt lat="46.401208033785224" lon="9.228022014722228">
        <ele>917.72000000000003</ele>
        <time>2025-05-20T08:43:27Z</time>
      </trkpt>
      <trkpt lat="46.401236029341817" lon="9.228009022772312">
        <ele>918.20000000000005</ele>
        <time>2025-05-20T08:43:28Z</time>
      </trkpt>
      <trkpt lat="46.401270981878042" lon="9.227991001680493">
        <ele>918.67999999999995</ele>
        <time>2025-05-20T08:43:29Z</time>
      </trkpt>
      <trkpt lat="46.401297971606255" lon="9.2279820330441">
        <ele>918.67999999999995</ele>
        <time>2025-05-20T08:43:30Z</time>
      </trkpt>
      <trkpt lat="46.401347005739808" lon="9.228014973923564">
        <ele>919.15999999999997</ele>
        <time>2025-05-20T08:43:31Z</time>
      </trkpt>
      <trkpt lat="46.401390004903078" lon="9.228085968643427">
        <ele>919.63999999999999</ele>
        <time>2025-05-20T08:43:32Z</time>
      </trkpt>
      <trkpt lat="46.401443984359503" lon="9.228193005546928">
        <ele>920.12</ele>
        <time>2025-05-20T08:43:33Z</time>
      </trkpt>
      <trkpt lat="46.40150198712945" lon="9.228310016915202">
        <ele>920.60000000000002</ele>
        <time>2025-05-20T08:43:34Z</time>
      </trkpt>
      <trkpt lat="46.401623021811247" lon="9.228552002459765">
        <ele>921.55999999999995</ele>
        <time>2025-05-20T08:43:36Z</time>
      </trkpt>
      <trkpt lat="46.401693010702729" lon="9.22864998690784">
        <ele>922.03999999999996</ele>
        <time>2025-05-20T08:43:37Z</time>
      </trkpt>
      <trkpt lat="46.401779009029269" lon="9.22871695831418">
        <ele>923</ele>
        <time>2025-05-20T08:43:38Z</time>
      </trkpt>
      <trkpt lat="46.401865007355809" lon="9.228770015761256">
        <ele>923.96000000000004</ele>
        <time>2025-05-20T08:43:39Z</time>
      </trkpt>
      <trkpt lat="46.401959974318743" lon="9.228748977184296">
        <ele>924.92999999999995</ele>
        <time>2025-05-20T08:43:40Z</time>
      </trkpt>
      <trkpt lat="46.402063993737102" lon="9.228726010769606">
        <ele>925.40999999999997</ele>
        <time>2025-05-20T08:43:41Z</time>
      </trkpt>
      <trkpt lat="46.402173964306712" lon="9.228702038526535">
        <ele>926.37</ele>
        <time>2025-05-20T08:43:42Z</time>
      </trkpt>
      <trkpt lat="46.402408992871642" lon="9.228648981079459">
        <ele>927.80999999999995</ele>
        <time>2025-05-20T08:43:44Z</time>
      </trkpt>
      <trkpt lat="46.40253497287631" lon="9.228656021878123">
        <ele>928.28999999999996</ele>
        <time>2025-05-20T08:43:45Z</time>
      </trkpt>
      <trkpt lat="46.403009975329041" lon="9.228708995506167">
        <ele>931.64999999999998</ele>
        <time>2025-05-20T08:43:49Z</time>
      </trkpt>
      <trkpt lat="46.403067978098989" lon="9.228741014376283">
        <ele>932.62</ele>
        <time>2025-05-20T08:43:50Z</time>
      </trkpt>
      <trkpt lat="46.403184989467263" lon="9.228805974125862">
        <ele>934.53999999999996</ele>
        <time>2025-05-20T08:43:52Z</time>
      </trkpt>
      <trkpt lat="46.403230000287294" lon="9.228788958862424">
        <ele>935.01999999999998</ele>
        <time>2025-05-20T08:43:53Z</time>
      </trkpt>
      <trkpt lat="46.403272999450564" lon="9.228746965527535">
        <ele>935.98000000000002</ele>
        <time>2025-05-20T08:43:54Z</time>
      </trkpt>
      <trkpt lat="46.4032849855721" lon="9.228721987456083">
        <ele>936.94000000000005</ele>
        <time>2025-05-20T08:43:55Z</time>
      </trkpt>
      <trkpt lat="46.403260007500648" lon="9.228672031313181">
        <ele>937.89999999999998</ele>
        <time>2025-05-20T08:43:56Z</time>
      </trkpt>
      <trkpt lat="46.403217008337379" lon="9.228598019108176">
        <ele>938.86000000000001</ele>
        <time>2025-05-20T08:43:57Z</time>
      </trkpt>
      <trkpt lat="46.403144001960754" lon="9.2285639885813">
        <ele>939.83000000000004</ele>
        <time>2025-05-20T08:43:58Z</time>
      </trkpt>
      <trkpt lat="46.403054986149073" lon="9.228523001074791">
        <ele>940.78999999999996</ele>
        <time>2025-05-20T08:43:59Z</time>
      </trkpt>
      <trkpt lat="46.402946021407843" lon="9.228472039103508">
        <ele>941.26999999999998</ele>
        <time>2025-05-20T08:44:00Z</time>
      </trkpt>
      <trkpt lat="46.402822975069284" lon="9.22841495834291">
        <ele>942.23000000000002</ele>
        <time>2025-05-20T08:44:01Z</time>
      </trkpt>
      <trkpt lat="46.402267003431916" lon="9.228184958919883">
        <ele>946.07000000000005</ele>
        <time>2025-05-20T08:44:05Z</time>
      </trkpt>
      <trkpt lat="46.402140017598867" lon="9.228170961141586">
        <ele>947.51999999999998</ele>
        <time>2025-05-20T08:44:06Z</time>
      </trkpt>
      <trkpt lat="46.40203800983727" lon="9.228159980848432">
        <ele>948</ele>
        <time>2025-05-20T08:44:07Z</time>
      </trkpt>
      <trkpt lat="46.401962991803885" lon="9.228151012212038">
        <ele>948.96000000000004</ele>
        <time>2025-05-20T08:44:08Z</time>
      </trkpt>
      <trkpt lat="46.401943964883685" lon="9.22811203636229">
        <ele>949.91999999999996</ele>
        <time>2025-05-20T08:44:09Z</time>
      </trkpt>
      <trkpt lat="46.401926027610898" lon="9.22806803137064">
        <ele>950.39999999999998</ele>
        <time>2025-05-20T08:44:10Z</time>
      </trkpt>
      <trkpt lat="46.401915969327092" lon="9.228043975308538">
        <ele>951.36000000000001</ele>
        <time>2025-05-20T08:44:11Z</time>
      </trkpt>
      <trkpt lat="46.401928039267659" lon="9.228037018328905">
        <ele>951.84000000000003</ele>
        <time>2025-05-20T08:44:12Z</time>
      </trkpt>
      <trkpt lat="46.401970032602549" lon="9.228011034429073">
        <ele>952.32000000000005</ele>
        <time>2025-05-20T08:44:13Z</time>
      </trkpt>
      <trkpt lat="46.402023006230593" lon="9.227979015558958">
        <ele>953.27999999999997</ele>
        <time>2025-05-20T08:44:14Z</time>
      </trkpt>
      <trkpt lat="46.402083020657301" lon="9.22798597253859">
        <ele>953.76999999999998</ele>
        <time>2025-05-20T08:44:15Z</time>
      </trkpt>
      <trkpt lat="46.402166001498699" lon="9.227995024994016">
        <ele>954.73000000000002</ele>
        <time>2025-05-20T08:44:16Z</time>
      </trkpt>
      <trkpt lat="46.403073007240891" lon="9.228270035237074">
        <ele>960.49000000000001</ele>
        <time>2025-05-20T08:44:24Z</time>
      </trkpt>
      <trkpt lat="46.403804998844862" lon="9.228643029928207">
        <ele>964.82000000000005</ele>
        <time>2025-05-20T08:44:30Z</time>
      </trkpt>
      <trkpt lat="46.403924021869898" lon="9.228703966364265">
        <ele>965.77999999999997</ele>
        <time>2025-05-20T08:44:31Z</time>
      </trkpt>
      <trkpt lat="46.404052013531327" lon="9.228677982464433">
        <ele>966.25999999999999</ele>
        <time>2025-05-20T08:44:32Z</time>
      </trkpt>
      <trkpt lat="46.404173970222473" lon="9.228645963594317">
        <ele>967.22000000000003</ele>
        <time>2025-05-20T08:44:33Z</time>
      </trkpt>
      <trkpt lat="46.404300034046173" lon="9.228613022714853">
        <ele>968.17999999999995</ele>
        <time>2025-05-20T08:44:34Z</time>
      </trkpt>
      <trkpt lat="46.404427019879222" lon="9.228579998016357">
        <ele>968.66999999999996</ele>
        <time>2025-05-20T08:44:35Z</time>
      </trkpt>
      <trkpt lat="46.404561968520284" lon="9.22860698774457">
        <ele>969.63</ele>
        <time>2025-05-20T08:44:36Z</time>
      </trkpt>
      <trkpt lat="46.404679985716939" lon="9.228657027706504">
        <ele>970.11000000000001</ele>
        <time>2025-05-20T08:44:37Z</time>
      </trkpt>
      <trkpt lat="46.40479096211493" lon="9.228755012154579">
        <ele>970.59000000000003</ele>
        <time>2025-05-20T08:44:38Z</time>
      </trkpt>
      <trkpt lat="46.404902022331953" lon="9.228854002431035">
        <ele>971.54999999999995</ele>
        <time>2025-05-20T08:44:39Z</time>
      </trkpt>
      <trkpt lat="46.405015010386705" lon="9.228953998535872">
        <ele>972.02999999999997</ele>
        <time>2025-05-20T08:44:40Z</time>
      </trkpt>
      <trkpt lat="46.405480038374662" lon="9.229364041239023">
        <ele>974.90999999999997</ele>
        <time>2025-05-20T08:44:44Z</time>
      </trkpt>
      <trkpt lat="46.405613981187344" lon="9.229465965181589">
        <ele>975.88</ele>
        <time>2025-05-20T08:44:45Z</time>
      </trkpt>
      <trkpt lat="46.406167019158602" lon="9.22976897098124">
        <ele>979.24000000000001</ele>
        <time>2025-05-20T08:44:49Z</time>
      </trkpt>
      <trkpt lat="46.406318983063102" lon="9.229823034256697">
        <ele>980.20000000000005</ele>
        <time>2025-05-20T08:44:50Z</time>
      </trkpt>
      <trkpt lat="46.406472036615014" lon="9.229849018156529">
        <ele>981.15999999999997</ele>
        <time>2025-05-20T08:44:51Z</time>
      </trkpt>
      <trkpt lat="46.406909991055727" lon="9.229853041470051">
        <ele>984.04999999999995</ele>
        <time>2025-05-20T08:44:54Z</time>
      </trkpt>
      <trkpt lat="46.407043011859059" lon="9.229820016771555">
        <ele>985.00999999999999</ele>
        <time>2025-05-20T08:44:55Z</time>
      </trkpt>
      <trkpt lat="46.407180977985263" lon="9.229748016223311">
        <ele>985.97000000000003</ele>
        <time>2025-05-20T08:44:56Z</time>
      </trkpt>
      <trkpt lat="46.40797097235918" lon="9.229170000180602">
        <ele>994.13999999999999</ele>
        <time>2025-05-20T08:45:02Z</time>
      </trkpt>
      <trkpt lat="46.409113006666303" lon="9.228485031053424">
        <ele>1005.6799999999999</ele>
        <time>2025-05-20T08:45:09Z</time>
      </trkpt>
      <trkpt lat="46.409271005541086" lon="9.228438008576632">
        <ele>1007.12</ele>
        <time>2025-05-20T08:45:10Z</time>
      </trkpt>
      <trkpt lat="46.409421041607857" lon="9.228417975828052">
        <ele>1008.08</ele>
        <time>2025-05-20T08:45:11Z</time>
      </trkpt>
      <trkpt lat="46.409563031047583" lon="9.228410013020039">
        <ele>1009.52</ele>
        <time>2025-05-20T08:45:12Z</time>
      </trkpt>
      <trkpt lat="46.410485040396452" lon="9.228429039940238">
        <ele>1018.17</ele>
        <time>2025-05-20T08:45:19Z</time>
      </trkpt>
      <trkpt lat="46.410577995702624" lon="9.228464998304844">
        <ele>1019.13</ele>
        <time>2025-05-20T08:45:20Z</time>
      </trkpt>
      <trkpt lat="46.410644967108965" lon="9.228532975539565">
        <ele>1020.1</ele>
        <time>2025-05-20T08:45:21Z</time>
      </trkpt>
      <trkpt lat="46.410703975707293" lon="9.228615034371615">
        <ele>1021.0599999999999</ele>
        <time>2025-05-20T08:45:22Z</time>
      </trkpt>
      <trkpt lat="46.410741023719311" lon="9.228727016597986">
        <ele>1022.02</ele>
        <time>2025-05-20T08:45:23Z</time>
      </trkpt>
      <trkpt lat="46.410778993740678" lon="9.2288420163095">
        <ele>1023.46</ele>
        <time>2025-05-20T08:45:24Z</time>
      </trkpt>
      <trkpt lat="46.410813024267554" lon="9.228943018242717">
        <ele>1024.4200000000001</ele>
        <time>2025-05-20T08:45:25Z</time>
      </trkpt>
      <trkpt lat="46.410860968753695" lon="9.228986017405987">
        <ele>1024.4200000000001</ele>
        <time>2025-05-20T08:45:26Z</time>
      </trkpt>
      <trkpt lat="46.410905979573727" lon="9.229008983820677">
        <ele>1024.9000000000001</ele>
        <time>2025-05-20T08:45:27Z</time>
      </trkpt>
      <trkpt lat="46.410906985402107" lon="9.229008983820677">
        <ele>1025.8599999999999</ele>
        <time>2025-05-20T08:45:28Z</time>
      </trkpt>
      <trkpt lat="46.410918971523643" lon="9.228973025456071">
        <ele>1026.3399999999999</ele>
        <time>2025-05-20T08:45:29Z</time>
      </trkpt>
      <trkpt lat="46.410940010100603" lon="9.228910999372602">
        <ele>1026.3399999999999</ele>
        <time>2025-05-20T08:45:30Z</time>
      </trkpt>
      <trkpt lat="46.410943027585745" lon="9.228835981339216">
        <ele>1026.3399999999999</ele>
        <time>2025-05-20T08:45:31Z</time>
      </trkpt>
      <trkpt lat="46.410924000665545" lon="9.228717964142561">
        <ele>1026.8299999999999</ele>
        <time>2025-05-20T08:45:32Z</time>
      </trkpt>
      <trkpt lat="46.410902040079236" lon="9.228576980531216">
        <ele>1026.8299999999999</ele>
        <time>2025-05-20T08:45:33Z</time>
      </trkpt>
      <trkpt lat="46.410873960703611" lon="9.228431973606348">
        <ele>1027.3099999999999</ele>
        <time>2025-05-20T08:45:34Z</time>
      </trkpt>
      <trkpt lat="46.410733982920647" lon="9.228018997237086">
        <ele>1029.23</ele>
        <time>2025-05-20T08:45:37Z</time>
      </trkpt>
      <trkpt lat="46.410681009292603" lon="9.22789603471756">
        <ele>1029.71</ele>
        <time>2025-05-20T08:45:38Z</time>
      </trkpt>
      <trkpt lat="46.410580007359385" lon="9.227816993370652">
        <ele>1030.1900000000001</ele>
        <time>2025-05-20T08:45:39Z</time>
      </trkpt>
      <trkpt lat="46.410489985719323" lon="9.227761002257466">
        <ele>1031.1500000000001</ele>
        <time>2025-05-20T08:45:40Z</time>
      </trkpt>
      <trkpt lat="46.410388983786106" lon="9.227699982002378">
        <ele>1031.1500000000001</ele>
        <time>2025-05-20T08:45:41Z</time>
      </trkpt>
      <trkpt lat="46.410298962146044" lon="9.227706016972661">
        <ele>1031.6300000000001</ele>
        <time>2025-05-20T08:45:42Z</time>
      </trkpt>
      <trkpt lat="46.410069968551397" lon="9.227722026407719">
        <ele>1033.0699999999999</ele>
        <time>2025-05-20T08:45:46Z</time>
      </trkpt>
      <trkpt lat="46.410062005743384" lon="9.227668968960643">
        <ele>1033.0699999999999</ele>
        <time>2025-05-20T08:45:47Z</time>
      </trkpt>
      <trkpt lat="46.41005496494472" lon="9.22761901281774">
        <ele>1033.0699999999999</ele>
        <time>2025-05-20T08:45:48Z</time>
      </trkpt>
      <trkpt lat="46.410049013793468" lon="9.227571990340948">
        <ele>1033.0699999999999</ele>
        <time>2025-05-20T08:45:49Z</time>
      </trkpt>
      <trkpt lat="46.410049013793468" lon="9.227571990340948">
        <ele>1033.55</ele>
        <time>2025-05-20T08:45:50Z</time>
      </trkpt>
      <trkpt lat="46.410049013793468" lon="9.227571990340948">
        <ele>1034.04</ele>
        <time>2025-05-20T08:45:51Z</time>
      </trkpt>
      <trkpt lat="46.410049013793468" lon="9.227571990340948">
        <ele>1034.52</ele>
        <time>2025-05-20T08:45:52Z</time>
      </trkpt>
      <trkpt lat="46.410123025998473" lon="9.227565033361316">
        <ele>1035.48</ele>
        <time>2025-05-20T08:45:53Z</time>
      </trkpt>
      <trkpt lat="46.410210030153394" lon="9.227557992562652">
        <ele>1036.4400000000001</ele>
        <time>2025-05-20T08:45:54Z</time>
      </trkpt>
      <trkpt lat="46.410322012379766" lon="9.227549023926258">
        <ele>1036.9200000000001</ele>
        <time>2025-05-20T08:45:55Z</time>
      </trkpt>
      <trkpt lat="46.410447992384434" lon="9.227537959814072">
        <ele>1036.9200000000001</ele>
        <time>2025-05-20T08:45:56Z</time>
      </trkpt>
      <trkpt lat="46.410563997924328" lon="9.227528991177678">
        <ele>1036.4400000000001</ele>
        <time>2025-05-20T08:45:57Z</time>
      </trkpt>
      <trkpt lat="46.410666005685925" lon="9.227577019482851">
        <ele>1036.4400000000001</ele>
        <time>2025-05-20T08:45:58Z</time>
      </trkpt>
      <trkpt lat="46.410792991518974" lon="9.227637033909559">
        <ele>1036.4400000000001</ele>
        <time>2025-05-20T08:45:59Z</time>
      </trkpt>
      <trkpt lat="46.410943027585745" lon="9.227700987830758">
        <ele>1036.4400000000001</ele>
        <time>2025-05-20T08:46:00Z</time>
      </trkpt>
      <trkpt lat="46.411073030903935" lon="9.227711968123913">
        <ele>1036.4400000000001</ele>
        <time>2025-05-20T08:46:01Z</time>
      </trkpt>
      <trkpt lat="46.411464968696237" lon="9.227742981165648">
        <ele>1036.9200000000001</ele>
        <time>2025-05-20T08:46:04Z</time>
      </trkpt>
      <trkpt lat="46.411500005051494" lon="9.227754967287183">
        <ele>1037.4000000000001</ele>
        <time>2025-05-20T08:46:05Z</time>
      </trkpt>
      <trkpt lat="46.411604024469852" lon="9.22779000364244">
        <ele>1038.8399999999999</ele>
        <time>2025-05-20T08:46:07Z</time>
      </trkpt>
      <trkpt lat="46.411668984219432" lon="9.227792015299201">
        <ele>1039.3199999999999</ele>
        <time>2025-05-20T08:46:08Z</time>
      </trkpt>
      <trkpt lat="46.41168599948287" lon="9.22776997089386">
        <ele>1039.8</ele>
        <time>2025-05-20T08:46:09Z</time>
      </trkpt>
      <trkpt lat="46.411678958684206" lon="9.227614989504218">
        <ele>1039.8</ele>
        <time>2025-05-20T08:46:10Z</time>
      </trkpt>
      <trkpt lat="46.411575023084879" lon="9.227563021704555">
        <ele>1040.28</ele>
        <time>2025-05-20T08:46:11Z</time>
      </trkpt>
      <trkpt lat="46.411495981737971" lon="9.227523040026426">
        <ele>1040.28</ele>
        <time>2025-05-20T08:46:12Z</time>
      </trkpt>
      <trkpt lat="46.41140797175467" lon="9.227479035034776">
        <ele>1040.76</ele>
        <time>2025-05-20T08:46:13Z</time>
      </trkpt>
      <trkpt lat="46.411314010620117" lon="9.227432012557983">
        <ele>1041.25</ele>
        <time>2025-05-20T08:46:14Z</time>
      </trkpt>
      <trkpt lat="46.411221977323294" lon="9.227385995909572">
        <ele>1041.73</ele>
        <time>2025-05-20T08:46:15Z</time>
      </trkpt>
      <trkpt lat="46.411035982891917" lon="9.227293040603399">
        <ele>1042.21</ele>
        <time>2025-05-20T08:46:18Z</time>
      </trkpt>
      <trkpt lat="46.411035982891917" lon="9.227293040603399">
        <ele>1042.21</ele>
        <time>2025-05-20T08:46:19Z</time>
      </trkpt>
      <trkpt lat="46.411025002598763" lon="9.227229002863169">
        <ele>1042.21</ele>
        <time>2025-05-20T08:46:20Z</time>
      </trkpt>
      <trkpt lat="46.41101703979075" lon="9.227179968729615">
        <ele>1042.6900000000001</ele>
        <time>2025-05-20T08:46:21Z</time>
      </trkpt>
      <trkpt lat="46.411014022305608" lon="9.227163959294558">
        <ele>1042.6900000000001</ele>
        <time>2025-05-20T08:46:22Z</time>
      </trkpt>
      <trkpt lat="46.411014022305608" lon="9.227163959294558">
        <ele>1043.1700000000001</ele>
        <time>2025-05-20T08:46:23Z</time>
      </trkpt>
      <trkpt lat="46.411014022305608" lon="9.227163959294558">
        <ele>1044.1300000000001</ele>
        <time>2025-05-20T08:46:24Z</time>
      </trkpt>
      <trkpt lat="46.411046963185072" lon="9.227147027850151">
        <ele>1044.1300000000001</ele>
        <time>2025-05-20T08:46:25Z</time>
      </trkpt>
      <trkpt lat="46.411100020632148" lon="9.227120960131288">
        <ele>1043.6500000000001</ele>
        <time>2025-05-20T08:46:26Z</time>
      </trkpt>
      <trkpt lat="46.411100020632148" lon="9.227120960131288">
        <ele>1043.6500000000001</ele>
        <time>2025-05-20T08:46:27Z</time>
      </trkpt>
      <trkpt lat="46.411350974813104" lon="9.227247023954988">
        <ele>1043.6500000000001</ele>
        <time>2025-05-20T08:46:30Z</time>
      </trkpt>
      <trkpt lat="46.411436973139644" lon="9.227227997034788">
        <ele>1044.1300000000001</ele>
        <time>2025-05-20T08:46:31Z</time>
      </trkpt>
      <trkpt lat="46.411532023921609" lon="9.227207964286208">
        <ele>1044.1300000000001</ele>
        <time>2025-05-20T08:46:32Z</time>
      </trkpt>
      <trkpt lat="46.411650041118264" lon="9.227182986214757">
        <ele>1043.6500000000001</ele>
        <time>2025-05-20T08:46:33Z</time>
      </trkpt>
      <trkpt lat="46.411762023344636" lon="9.227159013971686">
        <ele>1043.6500000000001</ele>
        <time>2025-05-20T08:46:34Z</time>
      </trkpt>
      <trkpt lat="46.411937037482858" lon="9.227120960131288">
        <ele>1043.6500000000001</ele>
        <time>2025-05-20T08:46:35Z</time>
      </trkpt>
      <trkpt lat="46.411999985575676" lon="9.227114003151655">
        <ele>1043.6500000000001</ele>
        <time>2025-05-20T08:46:36Z</time>
      </trkpt>
      <trkpt lat="46.412129988893867" lon="9.227100005373359">
        <ele>1043.6500000000001</ele>
        <time>2025-05-20T08:46:37Z</time>
      </trkpt>
      <trkpt lat="46.412299973890185" lon="9.227135963737965">
        <ele>1042.6900000000001</ele>
        <time>2025-05-20T08:46:38Z</time>
      </trkpt>
      <trkpt lat="46.412453027442098" lon="9.227169994264841">
        <ele>1041.73</ele>
        <time>2025-05-20T08:46:39Z</time>
      </trkpt>
      <trkpt lat="46.412642961367965" lon="9.227195978164673">
        <ele>1040.76</ele>
        <time>2025-05-20T08:46:40Z</time>
      </trkpt>
      <trkpt lat="46.413744008168578" lon="9.226582003757358">
        <ele>1043.1700000000001</ele>
        <time>2025-05-20T08:46:48Z</time>
      </trkpt>
      <trkpt lat="46.413932014256716" lon="9.226476978510618">
        <ele>1043.1700000000001</ele>
        <time>2025-05-20T08:46:49Z</time>
      </trkpt>
      <trkpt lat="46.414025975391269" lon="9.226492987945676">
        <ele>1043.1700000000001</ele>
        <time>2025-05-20T08:46:50Z</time>
      </trkpt>
      <trkpt lat="46.414144998416305" lon="9.226513020694256">
        <ele>1043.6500000000001</ele>
        <time>2025-05-20T08:46:51Z</time>
      </trkpt>
      <trkpt lat="46.414293022826314" lon="9.226602958515286">
        <ele>1043.6500000000001</ele>
        <time>2025-05-20T08:46:52Z</time>
      </trkpt>
      <trkpt lat="46.414383966475725" lon="9.226675964891911">
        <ele>1044.1300000000001</ele>
        <time>2025-05-20T08:46:53Z</time>
      </trkpt>
      <trkpt lat="46.414462001994252" lon="9.226736985146999">
        <ele>1044.1300000000001</ele>
        <time>2025-05-20T08:46:54Z</time>
      </trkpt>
      <trkpt lat="46.414511958137155" lon="9.226777972653508">
        <ele>1044.1300000000001</ele>
        <time>2025-05-20T08:46:55Z</time>
      </trkpt>
      <trkpt lat="46.414557974785566" lon="9.226777972653508">
        <ele>1044.6099999999999</ele>
        <time>2025-05-20T08:46:56Z</time>
      </trkpt>
      <trkpt lat="46.414640033617616" lon="9.226777972653508">
        <ele>1044.6099999999999</ele>
        <time>2025-05-20T08:46:57Z</time>
      </trkpt>
      <trkpt lat="46.414640033617616" lon="9.226777972653508">
        <ele>1044.6099999999999</ele>
        <time>2025-05-20T08:46:58Z</time>
      </trkpt>
      <trkpt lat="46.414726031944156" lon="9.226648975163698">
        <ele>1045.0899999999999</ele>
        <time>2025-05-20T08:46:59Z</time>
      </trkpt>
      <trkpt lat="46.414726031944156" lon="9.226604970172048">
        <ele>1045.0899999999999</ele>
        <time>2025-05-20T08:47:00Z</time>
      </trkpt>
      <trkpt lat="46.414624024182558" lon="9.226405983790755">
        <ele>1045.0899999999999</ele>
        <time>2025-05-20T08:47:01Z</time>
      </trkpt>
      <trkpt lat="46.414549006149173" lon="9.226323002949357">
        <ele>1045.0899999999999</ele>
        <time>2025-05-20T08:47:02Z</time>
      </trkpt>
      <trkpt lat="46.414450015872717" lon="9.226254019886255">
        <ele>1045.0899999999999</ele>
        <time>2025-05-20T08:47:03Z</time>
      </trkpt>
      <trkpt lat="46.414259998127818" lon="9.226134996861219">
        <ele>1045.0899999999999</ele>
        <time>2025-05-20T08:47:05Z</time>
      </trkpt>
      <trkpt lat="46.414190009236336" lon="9.226090991869569">
        <ele>1045.0899999999999</ele>
        <time>2025-05-20T08:47:06Z</time>
      </trkpt>
      <trkpt lat="46.414056988433003" lon="9.226090991869569">
        <ele>1045.0899999999999</ele>
        <time>2025-05-20T08:47:07Z</time>
      </trkpt>
      <trkpt lat="46.413968978449702" lon="9.226090991869569">
        <ele>1045.0899999999999</ele>
        <time>2025-05-20T08:47:08Z</time>
      </trkpt>
      <trkpt lat="46.413883985951543" lon="9.226090991869569">
        <ele>1045.0899999999999</ele>
        <time>2025-05-20T08:47:09Z</time>
      </trkpt>
      <trkpt lat="46.413754988461733" lon="9.226090991869569">
        <ele>1045.0899999999999</ele>
        <time>2025-05-20T08:47:11Z</time>
      </trkpt>
      <trkpt lat="46.413658009842038" lon="9.226090991869569">
        <ele>1045.0899999999999</ele>
        <time>2025-05-20T08:47:13Z</time>
      </trkpt>
      <trkpt lat="46.413607969880104" lon="9.226088980212808">
        <ele>1045.0899999999999</ele>
        <time>2025-05-20T08:47:14Z</time>
      </trkpt>
      <trkpt lat="46.413610987365246" lon="9.226090991869569">
        <ele>1045.5699999999999</ele>
        <time>2025-05-20T08:47:17Z</time>
      </trkpt>
      <trkpt lat="46.413546027615666" lon="9.22602703794837">
        <ele>1045.5699999999999</ele>
        <time>2025-05-20T08:47:19Z</time>
      </trkpt>
      <trkpt lat="46.413546027615666" lon="9.22602703794837">
        <ele>1045.0899999999999</ele>
        <time>2025-05-20T08:47:20Z</time>
      </trkpt>
      <trkpt lat="46.413604030385613" lon="9.226084034889936">
        <ele>1045.0899999999999</ele>
        <time>2025-05-20T08:47:21Z</time>
      </trkpt>
      <trkpt lat="46.414164025336504" lon="9.226090991869569">
        <ele>1044.6099999999999</ele>
        <time>2025-05-20T08:47:26Z</time>
      </trkpt>
      <trkpt lat="46.414532996714115" lon="9.226305987685919">
        <ele>1044.1300000000001</ele>
        <time>2025-05-20T08:47:29Z</time>
      </trkpt>
      <trkpt lat="46.415330031886697" lon="9.225635016337037">
        <ele>1043.1700000000001</ele>
        <time>2025-05-20T08:47:34Z</time>
      </trkpt>
      <trkpt lat="46.415370013564825" lon="9.225619006901979">
        <ele>1043.1700000000001</ele>
        <time>2025-05-20T08:47:35Z</time>
      </trkpt>
      <trkpt lat="46.415469003841281" lon="9.225551029667258">
        <ele>1043.1700000000001</ele>
        <time>2025-05-20T08:47:36Z</time>
      </trkpt>
      <trkpt lat="46.415535975247622" lon="9.225505013018847">
        <ele>1043.1700000000001</ele>
        <time>2025-05-20T08:47:37Z</time>
      </trkpt>
      <trkpt lat="46.415590960532427" lon="9.225467965006828">
        <ele>1043.1700000000001</ele>
        <time>2025-05-20T08:47:38Z</time>
      </trkpt>
      <trkpt lat="46.415687017142773" lon="9.225621018558741">
        <ele>1043.1700000000001</ele>
        <time>2025-05-20T08:47:39Z</time>
      </trkpt>
      <trkpt lat="46.416099993512034" lon="9.225768959149718">
        <ele>1043.6500000000001</ele>
        <time>2025-05-20T08:47:42Z</time>
      </trkpt>
      <trkpt lat="46.416099993512034" lon="9.225768959149718">
        <ele>1044.1300000000001</ele>
        <time>2025-05-20T08:47:43Z</time>
      </trkpt>
      <trkpt lat="46.416533002629876" lon="9.225970963016152">
        <ele>1045.0899999999999</ele>
        <time>2025-05-20T08:47:48Z</time>
      </trkpt>
      <trkpt lat="46.416644984856248" lon="9.226023014634848">
        <ele>1045.0899999999999</ele>
        <time>2025-05-20T08:47:49Z</time>
      </trkpt>
      <trkpt lat="46.416874984279275" lon="9.226060984656215">
        <ele>1046.05</ele>
        <time>2025-05-20T08:47:51Z</time>
      </trkpt>
      <trkpt lat="46.418139981105924" lon="9.226202974095941">
        <ele>1054.7</ele>
        <time>2025-05-20T08:48:01Z</time>
      </trkpt>
      <trkpt lat="46.418364029377699" lon="9.226229963824153">
        <ele>1056.6300000000001</ele>
        <time>2025-05-20T08:48:03Z</time>
      </trkpt>
      <trkpt lat="46.418448016047478" lon="9.22620196826756">
        <ele>1057.5899999999999</ele>
        <time>2025-05-20T08:48:04Z</time>
      </trkpt>
      <trkpt lat="46.418541977182031" lon="9.226171039044857">
        <ele>1058.55</ele>
        <time>2025-05-20T08:48:05Z</time>
      </trkpt>
      <trkpt lat="46.418638033792377" lon="9.226105995476246">
        <ele>1059.03</ele>
        <time>2025-05-20T08:48:06Z</time>
      </trkpt>
      <trkpt lat="46.418713973835111" lon="9.22602997161448">
        <ele>1059.51</ele>
        <time>2025-05-20T08:48:07Z</time>
      </trkpt>
      <trkpt lat="46.418793015182018" lon="9.225951014086604">
        <ele>1059.99</ele>
        <time>2025-05-20T08:48:08Z</time>
      </trkpt>
      <trkpt lat="46.418875996023417" lon="9.225871972739697">
        <ele>1060.47</ele>
        <time>2025-05-20T08:48:09Z</time>
      </trkpt>
      <trkpt lat="46.418961994349957" lon="9.225793015211821">
        <ele>1060.95</ele>
        <time>2025-05-20T08:48:10Z</time>
      </trkpt>
      <trkpt lat="46.419052015990019" lon="9.225709028542042">
        <ele>1061.4300000000001</ele>
        <time>2025-05-20T08:48:11Z</time>
      </trkpt>
      <trkpt lat="46.419176990166306" lon="9.225645996630192">
        <ele>1061.9100000000001</ele>
        <time>2025-05-20T08:48:12Z</time>
      </trkpt>
      <trkpt lat="46.419300036504865" lon="9.22562001273036">
        <ele>1062.3900000000001</ele>
        <time>2025-05-20T08:48:13Z</time>
      </trkpt>
      <trkpt lat="46.419428028166294" lon="9.225592017173767">
        <ele>1062.3900000000001</ele>
        <time>2025-05-20T08:48:14Z</time>
      </trkpt>
      <trkpt lat="46.42098999582231" lon="9.2254470102489">
        <ele>1068.6400000000001</ele>
        <time>2025-05-20T08:48:24Z</time>
      </trkpt>
      <trkpt lat="46.422359012067318" lon="9.225057000294328">
        <ele>1074.4100000000001</ele>
        <time>2025-05-20T08:48:33Z</time>
      </trkpt>
      <trkpt lat="46.423505991697311" lon="9.224517960101366">
        <ele>1082.0999999999999</ele>
        <time>2025-05-20T08:48:41Z</time>
      </trkpt>
      <trkpt lat="46.425136020407081" lon="9.224133985117078">
        <ele>1095.5599999999999</ele>
        <time>2025-05-20T08:48:52Z</time>
      </trkpt>
      <trkpt lat="46.426377967000008" lon="9.223881019279361">
        <ele>1105.6500000000001</ele>
        <time>2025-05-20T08:49:00Z</time>
      </trkpt>
      <trkpt lat="46.426497995853424" lon="9.223806001245976">
        <ele>1108.54</ele>
        <time>2025-05-20T08:49:01Z</time>
      </trkpt>
      <trkpt lat="46.426604026928544" lon="9.223697958514094">
        <ele>1109.5</ele>
        <time>2025-05-20T08:49:02Z</time>
      </trkpt>
      <trkpt lat="46.426699999719858" lon="9.223567033186555">
        <ele>1111.4200000000001</ele>
        <time>2025-05-20T08:49:03Z</time>
      </trkpt>
      <trkpt lat="46.426778035238385" lon="9.223412973806262">
        <ele>1114.79</ele>
        <time>2025-05-20T08:49:04Z</time>
      </trkpt>
      <trkpt lat="46.4268549811095" lon="9.223246006295085">
        <ele>1116.71</ele>
        <time>2025-05-20T08:49:05Z</time>
      </trkpt>
      <trkpt lat="46.427268963307142" lon="9.222068013623357">
        <ele>1125.3599999999999</ele>
        <time>2025-05-20T08:49:12Z</time>
      </trkpt>
      <trkpt lat="46.427324032410979" lon="9.221832985058427">
        <ele>1128.73</ele>
        <time>2025-05-20T08:49:14Z</time>
      </trkpt>
      <trkpt lat="46.427418999373913" lon="9.22143098898232">
        <ele>1135.45</ele>
        <time>2025-05-20T08:49:18Z</time>
      </trkpt>
      <trkpt lat="46.427469039335847" lon="9.221219010651112">
        <ele>1141.7</ele>
        <time>2025-05-20T08:49:25Z</time>
      </trkpt>
      <trkpt lat="46.427482031285763" lon="9.221161007881165">
        <ele>1145.55</ele>
        <time>2025-05-20T08:49:56Z</time>
      </trkpt>
      <trkpt lat="46.42762703821063" lon="9.22054803930223">
        <ele>1154.6800000000001</ele>
        <time>2025-05-20T08:50:02Z</time>
      </trkpt>
      <trkpt lat="46.427727034315467" lon="9.219898022711277">
        <ele>1159.49</ele>
        <time>2025-05-20T08:50:08Z</time>
      </trkpt>
      <trkpt lat="46.427766010165215" lon="9.219599962234497">
        <ele>1161.8900000000001</ele>
        <time>2025-05-20T08:50:11Z</time>
      </trkpt>
      <trkpt lat="46.427806997671723" lon="9.219487980008125">
        <ele>1162.3699999999999</ele>
        <time>2025-05-20T08:50:12Z</time>
      </trkpt>
      <trkpt lat="46.428376967087388" lon="9.218507967889309">
        <ele>1168.6199999999999</ele>
        <time>2025-05-20T08:50:21Z</time>
      </trkpt>
      <trkpt lat="46.429048022255301" lon="9.217022024095058">
        <ele>1177.75</ele>
        <time>2025-05-20T08:50:31Z</time>
      </trkpt>
      <trkpt lat="46.429854026064277" lon="9.215490985661745">
        <ele>1186.8800000000001</ele>
        <time>2025-05-20T08:50:40Z</time>
      </trkpt>
      <trkpt lat="46.431073006242514" lon="9.214363032951951">
        <ele>1196.98</ele>
        <time>2025-05-20T08:50:49Z</time>
      </trkpt>
      <trkpt lat="46.431486988440156" lon="9.214015016332269">
        <ele>1201.3</ele>
        <time>2025-05-20T08:50:52Z</time>
      </trkpt>
      <trkpt lat="46.431596959009767" lon="9.213921977207065">
        <ele>1202.75</ele>
        <time>2025-05-20T08:50:53Z</time>
      </trkpt>
      <trkpt lat="46.431746995076537" lon="9.213795997202396">
        <ele>1205.6300000000001</ele>
        <time>2025-05-20T08:50:55Z</time>
      </trkpt>
      <trkpt lat="46.431788988411427" lon="9.213760960847139">
        <ele>1207.0699999999999</ele>
        <time>2025-05-20T08:50:56Z</time>
      </trkpt>
      <trkpt lat="46.431883033365011" lon="9.213744029402733">
        <ele>1208.03</ele>
        <time>2025-05-20T08:50:57Z</time>
      </trkpt>
      <trkpt lat="46.431913962587714" lon="9.213774036616087">
        <ele>1209.48</ele>
        <time>2025-05-20T08:50:58Z</time>
      </trkpt>
      <trkpt lat="46.431913962587714" lon="9.213881995528936">
        <ele>1210.4400000000001</ele>
        <time>2025-05-20T08:50:59Z</time>
      </trkpt>
      <trkpt lat="46.431913962587714" lon="9.213924994692206">
        <ele>1211.8800000000001</ele>
        <time>2025-05-20T08:51:00Z</time>
      </trkpt>
      <trkpt lat="46.431899964809418" lon="9.213973022997379">
        <ele>1215.72</ele>
        <time>2025-05-20T08:51:01Z</time>
      </trkpt>
      <trkpt lat="46.431869035586715" lon="9.214076036587358">
        <ele>1217.1700000000001</ele>
        <time>2025-05-20T08:51:02Z</time>
      </trkpt>
      <trkpt lat="46.431833999231458" lon="9.214194975793362">
        <ele>1219.5699999999999</ele>
        <time>2025-05-20T08:51:03Z</time>
      </trkpt>
      <trkpt lat="46.431605005636811" lon="9.21502998098731">
        <ele>1228.22</ele>
        <time>2025-05-20T08:51:10Z</time>
      </trkpt>
      <trkpt lat="46.431549014523625" lon="9.215255035087466">
        <ele>1229.1800000000001</ele>
        <time>2025-05-20T08:51:11Z</time>
      </trkpt>
      <trkpt lat="46.431562006473541" lon="9.215268027037382">
        <ele>1230.1400000000001</ele>
        <time>2025-05-20T08:51:12Z</time>
      </trkpt>
      <trkpt lat="46.431702990084887" lon="9.215232990682125">
        <ele>1230.6199999999999</ele>
        <time>2025-05-20T08:51:13Z</time>
      </trkpt>
      <trkpt lat="46.431729979813099" lon="9.215187979862094">
        <ele>1231.1099999999999</ele>
        <time>2025-05-20T08:51:14Z</time>
      </trkpt>
      <trkpt lat="46.431769039481878" lon="9.215126959607005">
        <ele>1232.0699999999999</ele>
        <time>2025-05-20T08:51:15Z</time>
      </trkpt>
      <trkpt lat="46.431893007829785" lon="9.214955968782306">
        <ele>1233.99</ele>
        <time>2025-05-20T08:51:17Z</time>
      </trkpt>
      <trkpt lat="46.431994009763002" lon="9.214858990162611">
        <ele>1234.95</ele>
        <time>2025-05-20T08:51:18Z</time>
      </trkpt>
      <trkpt lat="46.432445961982012" lon="9.214481972157955">
        <ele>1239.28</ele>
        <time>2025-05-20T08:51:24Z</time>
      </trkpt>
      <trkpt lat="46.432472029700875" lon="9.214481972157955">
        <ele>1239.76</ele>
        <time>2025-05-20T08:51:25Z</time>
      </trkpt>
      <trkpt lat="46.432472029700875" lon="9.214481972157955">
        <ele>1239.76</ele>
        <time>2025-05-20T08:51:26Z</time>
      </trkpt>
      <trkpt lat="46.432474963366985" lon="9.214488007128239">
        <ele>1240.24</ele>
        <time>2025-05-20T08:51:27Z</time>
      </trkpt>
      <trkpt lat="46.432326016947627" lon="9.215202983468771">
        <ele>1242.6400000000001</ele>
        <time>2025-05-20T08:51:32Z</time>
      </trkpt>
      <trkpt lat="46.432184027507901" lon="9.215682009235025">
        <ele>1243.1199999999999</ele>
        <time>2025-05-20T08:51:35Z</time>
      </trkpt>
      <trkpt lat="46.432120995596051" lon="9.215891975909472">
        <ele>1244.0799999999999</ele>
        <time>2025-05-20T08:51:37Z</time>
      </trkpt>
      <trkpt lat="46.432095011696219" lon="9.215977974236012">
        <ele>1244.5599999999999</ele>
        <time>2025-05-20T08:51:38Z</time>
      </trkpt>
      <trkpt lat="46.432042960077524" lon="9.216156005859375">
        <ele>1245.04</ele>
        <time>2025-05-20T08:51:39Z</time>
      </trkpt>
      <trkpt lat="46.432063998654485" lon="9.216262958943844">
        <ele>1245.53</ele>
        <time>2025-05-20T08:51:40Z</time>
      </trkpt>
      <trkpt lat="46.432171035557985" lon="9.216242004185915">
        <ele>1245.53</ele>
        <time>2025-05-20T08:51:41Z</time>
      </trkpt>
      <trkpt lat="46.432203976437449" lon="9.21618701890111">
        <ele>1246.97</ele>
        <time>2025-05-20T08:51:42Z</time>
      </trkpt>
      <trkpt lat="46.432239012792706" lon="9.216129016131163">
        <ele>1248.4100000000001</ele>
        <time>2025-05-20T08:51:43Z</time>
      </trkpt>
      <trkpt lat="46.432296009734273" lon="9.216034971177578">
        <ele>1248.8900000000001</ele>
        <time>2025-05-20T08:51:44Z</time>
      </trkpt>
      <trkpt lat="46.432360969483852" lon="9.215926006436348">
        <ele>1248.8900000000001</ele>
        <time>2025-05-20T08:51:45Z</time>
      </trkpt>
      <trkpt lat="46.432449985295534" lon="9.215851994231343">
        <ele>1248.4100000000001</ele>
        <time>2025-05-20T08:51:46Z</time>
      </trkpt>
      <trkpt lat="46.432554004713893" lon="9.215785022825003">
        <ele>1248.8900000000001</ele>
        <time>2025-05-20T08:51:47Z</time>
      </trkpt>
      <trkpt lat="46.433569975197315" lon="9.215184040367603">
        <ele>1252.25</ele>
        <time>2025-05-20T08:51:55Z</time>
      </trkpt>
      <trkpt lat="46.433682041242719" lon="9.21506904065609">
        <ele>1253.22</ele>
        <time>2025-05-20T08:51:56Z</time>
      </trkpt>
      <trkpt lat="46.433766027912498" lon="9.214939959347248">
        <ele>1254.1800000000001</ele>
        <time>2025-05-20T08:51:57Z</time>
      </trkpt>
      <trkpt lat="46.433840040117502" lon="9.214825965464115">
        <ele>1255.1400000000001</ele>
        <time>2025-05-20T08:51:58Z</time>
      </trkpt>
      <trkpt lat="46.433911034837365" lon="9.214718006551266">
        <ele>1256.0999999999999</ele>
        <time>2025-05-20T08:51:59Z</time>
      </trkpt>
      <trkpt lat="46.433998961001635" lon="9.21461901627481">
        <ele>1257.0599999999999</ele>
        <time>2025-05-20T08:52:00Z</time>
      </trkpt>
      <trkpt lat="46.434098035097122" lon="9.214545004069805">
        <ele>1258.02</ele>
        <time>2025-05-20T08:52:01Z</time>
      </trkpt>
      <trkpt lat="46.434214962646365" lon="9.214520025998354">
        <ele>1258.5</ele>
        <time>2025-05-20T08:52:02Z</time>
      </trkpt>
      <trkpt lat="46.434339014813304" lon="9.21451298519969">
        <ele>1259.46</ele>
        <time>2025-05-20T08:52:03Z</time>
      </trkpt>
      <trkpt lat="46.434469018131495" lon="9.214506028220058">
        <ele>1260.9100000000001</ele>
        <time>2025-05-20T08:52:04Z</time>
      </trkpt>
      <trkpt lat="46.434789039194584" lon="9.214487001299858">
        <ele>1263.79</ele>
        <time>2025-05-20T08:52:07Z</time>
      </trkpt>
      <trkpt lat="46.434865985065699" lon="9.214482977986336">
        <ele>1264.75</ele>
        <time>2025-05-20T08:52:08Z</time>
      </trkpt>
      <trkpt lat="46.434918958693743" lon="9.214569982141256">
        <ele>1266.6700000000001</ele>
        <time>2025-05-20T08:52:10Z</time>
      </trkpt>
      <trkpt lat="46.434946032240987" lon="9.214623961597681">
        <ele>1267.6400000000001</ele>
        <time>2025-05-20T08:52:11Z</time>
      </trkpt>
      <trkpt lat="46.434961035847664" lon="9.214653968811035">
        <ele>1268.1199999999999</ele>
        <time>2025-05-20T08:52:12Z</time>
      </trkpt>
      <trkpt lat="46.434956006705761" lon="9.214670984074473">
        <ele>1268.5999999999999</ele>
        <time>2025-05-20T08:52:13Z</time>
      </trkpt>
      <trkpt lat="46.434929016977549" lon="9.214768968522549">
        <ele>1268.5999999999999</ele>
        <time>2025-05-20T08:52:14Z</time>
      </trkpt>
      <trkpt lat="46.434864979237318" lon="9.214970972388983">
        <ele>1269.0799999999999</ele>
        <time>2025-05-20T08:52:15Z</time>
      </trkpt>
      <trkpt lat="46.434712009504437" lon="9.215328963473439">
        <ele>1270.04</ele>
        <time>2025-05-20T08:52:17Z</time>
      </trkpt>
      <trkpt lat="46.434635985642672" lon="9.215444969013333">
        <ele>1271.48</ele>
        <time>2025-05-20T08:52:18Z</time>
      </trkpt>
      <trkpt lat="46.434575971215963" lon="9.215538008138537">
        <ele>1271.96</ele>
        <time>2025-05-20T08:52:19Z</time>
      </trkpt>
      <trkpt lat="46.434534983709455" lon="9.215600034222007">
        <ele>1271.96</ele>
        <time>2025-05-20T08:52:20Z</time>
      </trkpt>
      <trkpt lat="46.434424007311463" lon="9.215770019218326">
        <ele>1272.4400000000001</ele>
        <time>2025-05-20T08:52:21Z</time>
      </trkpt>
      <trkpt lat="46.434531966224313" lon="9.215919971466065">
        <ele>1272.4400000000001</ele>
        <time>2025-05-20T08:52:22Z</time>
      </trkpt>
      <trkpt lat="46.43465400673449" lon="9.215832967311144">
        <ele>1272.9200000000001</ele>
        <time>2025-05-20T08:52:23Z</time>
      </trkpt>
      <trkpt lat="46.434709997847676" lon="9.215792985633016">
        <ele>1272.9200000000001</ele>
        <time>2025-05-20T08:52:24Z</time>
      </trkpt>
      <trkpt lat="46.434763977304101" lon="9.215754009783268">
        <ele>1274.3599999999999</ele>
        <time>2025-05-20T08:52:25Z</time>
      </trkpt>
      <trkpt lat="46.434832038357854" lon="9.215705981478095">
        <ele>1274.8499999999999</ele>
        <time>2025-05-20T08:52:26Z</time>
      </trkpt>
      <trkpt lat="46.434930022805929" lon="9.215721990913153">
        <ele>1275.3299999999999</ele>
        <time>2025-05-20T08:52:27Z</time>
      </trkpt>
      <trkpt lat="46.435047034174204" lon="9.215741017833352">
        <ele>1275.3299999999999</ele>
        <time>2025-05-20T08:52:28Z</time>
      </trkpt>
      <trkpt lat="46.435625972226262" lon="9.215770019218326">
        <ele>1276.77</ele>
        <time>2025-05-20T08:52:33Z</time>
      </trkpt>
      <trkpt lat="46.435679029673338" lon="9.21562903560698">
        <ele>1277.25</ele>
        <time>2025-05-20T08:52:34Z</time>
      </trkpt>
      <trkpt lat="46.435690009966493" lon="9.215598022565246">
        <ele>1278.6900000000001</ele>
        <time>2025-05-20T08:52:35Z</time>
      </trkpt>
      <trkpt lat="46.435681963339448" lon="9.215488974004984">
        <ele>1279.1700000000001</ele>
        <time>2025-05-20T08:52:36Z</time>
      </trkpt>
      <trkpt lat="46.435671988874674" lon="9.215357964858413">
        <ele>1279.6500000000001</ele>
        <time>2025-05-20T08:52:37Z</time>
      </trkpt>
      <trkpt lat="46.435658996924758" lon="9.215194014832377">
        <ele>1280.6099999999999</ele>
        <time>2025-05-20T08:52:38Z</time>
      </trkpt>
      <trkpt lat="46.435651034116745" lon="9.215002991259098">
        <ele>1281.0899999999999</ele>
        <time>2025-05-20T08:52:39Z</time>
      </trkpt>
      <trkpt lat="46.435668971389532" lon="9.21481397934258">
        <ele>1281.0899999999999</ele>
        <time>2025-05-20T08:52:40Z</time>
      </trkpt>
      <trkpt lat="46.435699984431267" lon="9.214218026027083">
        <ele>1282.54</ele>
        <time>2025-05-20T08:52:43Z</time>
      </trkpt>
      <trkpt lat="46.435683974996209" lon="9.214006969705224">
        <ele>1283.02</ele>
        <time>2025-05-20T08:52:44Z</time>
      </trkpt>
      <trkpt lat="46.435665031895041" lon="9.213799014687538">
        <ele>1283.5</ele>
        <time>2025-05-20T08:52:45Z</time>
      </trkpt>
      <trkpt lat="46.435624966397882" lon="9.213607991114259">
        <ele>1283.98</ele>
        <time>2025-05-20T08:52:46Z</time>
      </trkpt>
      <trkpt lat="46.435591019690037" lon="9.213440017774701">
        <ele>1284.46</ele>
        <time>2025-05-20T08:52:47Z</time>
      </trkpt>
      <trkpt lat="46.435562018305063" lon="9.213301967829466">
        <ele>1285.4200000000001</ele>
        <time>2025-05-20T08:52:48Z</time>
      </trkpt>
      <trkpt lat="46.435505021363497" lon="9.213188979774714">
        <ele>1286.3800000000001</ele>
        <time>2025-05-20T08:52:49Z</time>
      </trkpt>
      <trkpt lat="46.435453975573182" lon="9.213087977841497">
        <ele>1287.8199999999999</ele>
        <time>2025-05-20T08:52:50Z</time>
      </trkpt>
      <trkpt lat="46.435348028317094" lon="9.21309401281178">
        <ele>1289.27</ele>
        <time>2025-05-20T08:52:51Z</time>
      </trkpt>
      <trkpt lat="46.435234034433961" lon="9.213100969791412">
        <ele>1290.71</ele>
        <time>2025-05-20T08:52:52Z</time>
      </trkpt>
      <trkpt lat="46.435119034722447" lon="9.213109016418457">
        <ele>1292.1500000000001</ele>
        <time>2025-05-20T08:52:53Z</time>
      </trkpt>
      <trkpt lat="46.435010991990566" lon="9.213150003924966">
        <ele>1293.1099999999999</ele>
        <time>2025-05-20T08:52:54Z</time>
      </trkpt>
      <trkpt lat="46.43491200171411" lon="9.213190991431475">
        <ele>1294.0699999999999</ele>
        <time>2025-05-20T08:52:55Z</time>
      </trkpt>
      <trkpt lat="46.434829020872712" lon="9.213225021958351">
        <ele>1295.51</ele>
        <time>2025-05-20T08:52:56Z</time>
      </trkpt>
      <trkpt lat="46.434746040031314" lon="9.213258968666196">
        <ele>1297.4400000000001</ele>
        <time>2025-05-20T08:52:59Z</time>
      </trkpt>
      <trkpt lat="46.434686025604606" lon="9.213179005309939">
        <ele>1296.96</ele>
        <time>2025-05-20T08:53:00Z</time>
      </trkpt>
      <trkpt lat="46.434682002291083" lon="9.213172970339656">
        <ele>1296.96</ele>
        <time>2025-05-20T08:53:01Z</time>
      </trkpt>
      <trkpt lat="46.434682002291083" lon="9.213172970339656">
        <ele>1296.96</ele>
        <time>2025-05-20T08:53:02Z</time>
      </trkpt>
      <trkpt lat="46.434687031432986" lon="9.213161990046501">
        <ele>1296.96</ele>
        <time>2025-05-20T08:53:03Z</time>
      </trkpt>
      <trkpt lat="46.434706980362535" lon="9.213115973398089">
        <ele>1296.48</ele>
        <time>2025-05-20T08:53:04Z</time>
      </trkpt>
      <trkpt lat="46.434746040031314" lon="9.213023018091917">
        <ele>1295.99</ele>
        <time>2025-05-20T08:53:05Z</time>
      </trkpt>
      <trkpt lat="46.434771018102765" lon="9.213015977293253">
        <ele>1295.51</ele>
        <time>2025-05-20T08:53:06Z</time>
      </trkpt>
      <trkpt lat="46.434883000329137" lon="9.212984964251518">
        <ele>1294.55</ele>
        <time>2025-05-20T08:53:07Z</time>
      </trkpt>
      <trkpt lat="46.435436038300395" lon="9.212828977033496">
        <ele>1293.5899999999999</ele>
        <time>2025-05-20T08:53:11Z</time>
      </trkpt>
      <trkpt lat="46.435608034953475" lon="9.21279301866889">
        <ele>1293.5899999999999</ele>
        <time>2025-05-20T08:53:12Z</time>
      </trkpt>
      <trkpt lat="46.43574901856482" lon="9.212824031710625">
        <ele>1293.5899999999999</ele>
        <time>2025-05-20T08:53:13Z</time>
      </trkpt>
      <trkpt lat="46.435894025489688" lon="9.212855966761708">
        <ele>1293.1099999999999</ele>
        <time>2025-05-20T08:53:14Z</time>
      </trkpt>
      <trkpt lat="46.436020005494356" lon="9.212865019217134">
        <ele>1293.1099999999999</ele>
        <time>2025-05-20T08:53:15Z</time>
      </trkpt>
      <trkpt lat="46.436163000762463" lon="9.212840963155031">
        <ele>1293.1099999999999</ele>
        <time>2025-05-20T08:53:16Z</time>
      </trkpt>
      <trkpt lat="46.436301972717047" lon="9.212811961770058">
        <ele>1293.1099999999999</ele>
        <time>2025-05-20T08:53:17Z</time>
      </trkpt>
      <trkpt lat="46.436445973813534" lon="9.212774997577071">
        <ele>1293.1099999999999</ele>
        <time>2025-05-20T08:53:18Z</time>
      </trkpt>
      <trkpt lat="46.436584023758769" lon="9.212740967050195">
        <ele>1293.1099999999999</ele>
        <time>2025-05-20T08:53:19Z</time>
      </trkpt>
      <trkpt lat="46.437412993982434" lon="9.212198993191123">
        <ele>1294.0699999999999</ele>
        <time>2025-05-20T08:53:27Z</time>
      </trkpt>
      <trkpt lat="46.437493041157722" lon="9.212164962664247">
        <ele>1294.0699999999999</ele>
        <time>2025-05-20T08:53:28Z</time>
      </trkpt>
      <trkpt lat="46.437465967610478" lon="9.211991038173437">
        <ele>1294.55</ele>
        <time>2025-05-20T08:53:29Z</time>
      </trkpt>
      <trkpt lat="46.437430009245872" lon="9.211973017081618">
        <ele>1295.03</ele>
        <time>2025-05-20T08:53:30Z</time>
      </trkpt>
      <trkpt lat="46.437326995655894" lon="9.212026996538043">
        <ele>1295.03</ele>
        <time>2025-05-20T08:53:31Z</time>
      </trkpt>
      <trkpt lat="46.437262035906315" lon="9.212063038721681">
        <ele>1295.51</ele>
        <time>2025-05-20T08:53:32Z</time>
      </trkpt>
      <trkpt lat="46.43718802370131" lon="9.212103020399809">
        <ele>1295.51</ele>
        <time>2025-05-20T08:53:33Z</time>
      </trkpt>
      <trkpt lat="46.43652300350368" lon="9.21234198845923">
        <ele>1295.03</ele>
        <time>2025-05-20T08:53:39Z</time>
      </trkpt>
      <trkpt lat="46.436462989076972" lon="9.212336959317327">
        <ele>1295.03</ele>
        <time>2025-05-20T08:53:40Z</time>
      </trkpt>
      <trkpt lat="46.43630700185895" lon="9.212266970425844">
        <ele>1295.03</ele>
        <time>2025-05-20T08:53:41Z</time>
      </trkpt>
      <trkpt lat="46.436270037665963" lon="9.212250960990787">
        <ele>1295.03</ele>
        <time>2025-05-20T08:53:42Z</time>
      </trkpt>
      <trkpt lat="46.436149002984166" lon="9.212130010128021">
        <ele>1295.51</ele>
        <time>2025-05-20T08:53:43Z</time>
      </trkpt>
      <trkpt lat="46.436060993000865" lon="9.21204200014472">
        <ele>1295.99</ele>
        <time>2025-05-20T08:53:44Z</time>
      </trkpt>
      <trkpt lat="46.435903999954462" lon="9.211985003203154">
        <ele>1296.96</ele>
        <time>2025-05-20T08:53:45Z</time>
      </trkpt>
      <trkpt lat="46.435824958607554" lon="9.211996989324689">
        <ele>1297.9200000000001</ele>
        <time>2025-05-20T08:53:46Z</time>
      </trkpt>
      <trkpt lat="46.435768967494369" lon="9.212006041780114">
        <ele>1298.8800000000001</ele>
        <time>2025-05-20T08:53:47Z</time>
      </trkpt>
      <trkpt lat="46.435711970552802" lon="9.212015010416508">
        <ele>1300.3199999999999</ele>
        <time>2025-05-20T08:53:49Z</time>
      </trkpt>
      <trkpt lat="46.435709958896041" lon="9.212003024294972">
        <ele>1300.3199999999999</ele>
        <time>2025-05-20T08:53:50Z</time>
      </trkpt>
      <trkpt lat="46.435701996088028" lon="9.211963964626193">
        <ele>1300.3199999999999</ele>
        <time>2025-05-20T08:53:51Z</time>
      </trkpt>
      <trkpt lat="46.435691015794873" lon="9.211907973513007">
        <ele>1300.8</ele>
        <time>2025-05-20T08:53:52Z</time>
      </trkpt>
      <trkpt lat="46.435690009966493" lon="9.211906967684627">
        <ele>1300.8</ele>
        <time>2025-05-20T08:53:53Z</time>
      </trkpt>
      <trkpt lat="46.435754969716072" lon="9.211800014600158">
        <ele>1300.8</ele>
        <time>2025-05-20T08:53:54Z</time>
      </trkpt>
      <trkpt lat="46.435780031606555" lon="9.211795991286635">
        <ele>1300.8</ele>
        <time>2025-05-20T08:53:55Z</time>
      </trkpt>
      <trkpt lat="46.435874998569489" lon="9.211777970194817">
        <ele>1300.8</ele>
        <time>2025-05-20T08:53:56Z</time>
      </trkpt>
      <trkpt lat="46.435991004109383" lon="9.211756009608507">
        <ele>1300.8</ele>
        <time>2025-05-20T08:53:57Z</time>
      </trkpt>
      <trkpt lat="46.436160989105701" lon="9.211773024871945">
        <ele>1300.8</ele>
        <time>2025-05-20T08:53:58Z</time>
      </trkpt>
      <trkpt lat="46.436278000473976" lon="9.211842007935047">
        <ele>1300.8</ele>
        <time>2025-05-20T08:53:59Z</time>
      </trkpt>
      <trkpt lat="46.436389982700348" lon="9.211907973513007">
        <ele>1300.8</ele>
        <time>2025-05-20T08:54:00Z</time>
      </trkpt>
      <trkpt lat="46.436494002118707" lon="9.211968993768096">
        <ele>1300.8</ele>
        <time>2025-05-20T08:54:01Z</time>
      </trkpt>
      <trkpt lat="46.436581006273627" lon="9.212015010416508">
        <ele>1301.28</ele>
        <time>2025-05-20T08:54:02Z</time>
      </trkpt>
      <trkpt lat="46.436742022633553" lon="9.212015010416508">
        <ele>1301.76</ele>
        <time>2025-05-20T08:54:03Z</time>
      </trkpt>
      <trkpt lat="46.436792984604836" lon="9.211964970454574">
        <ele>1302.24</ele>
        <time>2025-05-20T08:54:04Z</time>
      </trkpt>
      <trkpt lat="46.436891974881291" lon="9.21187000349164">
        <ele>1303.2</ele>
        <time>2025-05-20T08:54:05Z</time>
      </trkpt>
      <trkpt lat="46.43699498847127" lon="9.211770007386804">
        <ele>1304.1700000000001</ele>
        <time>2025-05-20T08:54:06Z</time>
      </trkpt>
      <trkpt lat="46.437336970120668" lon="9.21143900603056">
        <ele>1305.6099999999999</ele>
        <time>2025-05-20T08:54:09Z</time>
      </trkpt>
      <trkpt lat="46.437447024509311" lon="9.211343033239245">
        <ele>1306.5699999999999</ele>
        <time>2025-05-20T08:54:10Z</time>
      </trkpt>
      <trkpt lat="46.43770401366055" lon="9.211162989959121">
        <ele>1308.49</ele>
        <time>2025-05-20T08:54:13Z</time>
      </trkpt>
      <trkpt lat="46.437761010602117" lon="9.211124014109373">
        <ele>1309.9300000000001</ele>
        <time>2025-05-20T08:54:14Z</time>
      </trkpt>
      <trkpt lat="46.437836028635502" lon="9.211071040481329">
        <ele>1311.3800000000001</ele>
        <time>2025-05-20T08:54:15Z</time>
      </trkpt>
      <trkpt lat="46.437774002552032" lon="9.210899965837598">
        <ele>1313.3</ele>
        <time>2025-05-20T08:54:16Z</time>
      </trkpt>
      <trkpt lat="46.437771990895271" lon="9.210898960009217">
        <ele>1314.74</ele>
        <time>2025-05-20T08:54:17Z</time>
      </trkpt>
      <trkpt lat="46.437684986740351" lon="9.210960986092687">
        <ele>1315.7</ele>
        <time>2025-05-20T08:54:18Z</time>
      </trkpt>
      <trkpt lat="46.437628995627165" lon="9.211000967770815">
        <ele>1316.6600000000001</ele>
        <time>2025-05-20T08:54:19Z</time>
      </trkpt>
      <trkpt lat="46.437556995078921" lon="9.21105201356113">
        <ele>1317.6199999999999</ele>
        <time>2025-05-20T08:54:20Z</time>
      </trkpt>
      <trkpt lat="46.437020972371101" lon="9.211434982717037">
        <ele>1319.0699999999999</ele>
        <time>2025-05-20T08:54:26Z</time>
      </trkpt>
      <trkpt lat="46.436934974044561" lon="9.211457027122378">
        <ele>1319.0699999999999</ele>
        <time>2025-05-20T08:54:27Z</time>
      </trkpt>
      <trkpt lat="46.436934974044561" lon="9.211457027122378">
        <ele>1319.0699999999999</ele>
        <time>2025-05-20T08:54:28Z</time>
      </trkpt>
      <trkpt lat="46.436848975718021" lon="9.211371028795838">
        <ele>1319.55</ele>
        <time>2025-05-20T08:54:29Z</time>
      </trkpt>
      <trkpt lat="46.436848975718021" lon="9.211371028795838">
        <ele>1320.03</ele>
        <time>2025-05-20T08:54:30Z</time>
      </trkpt>
      <trkpt lat="46.436848975718021" lon="9.21133297495544">
        <ele>1320.99</ele>
        <time>2025-05-20T08:54:31Z</time>
      </trkpt>
      <trkpt lat="46.436848975718021" lon="9.211243037134409">
        <ele>1321.47</ele>
        <time>2025-05-20T08:54:32Z</time>
      </trkpt>
      <trkpt lat="46.436848975718021" lon="9.211071040481329">
        <ele>1321.95</ele>
        <time>2025-05-20T08:54:33Z</time>
      </trkpt>
      <trkpt lat="46.436880994588137" lon="9.210998034104705">
        <ele>1321.95</ele>
        <time>2025-05-20T08:54:34Z</time>
      </trkpt>
      <trkpt lat="46.436935979872942" lon="9.210872976109386">
        <ele>1321.95</ele>
        <time>2025-05-20T08:54:35Z</time>
      </trkpt>
      <trkpt lat="46.436999011784792" lon="9.210726963356137">
        <ele>1321.95</ele>
        <time>2025-05-20T08:54:36Z</time>
      </trkpt>
      <trkpt lat="46.437077969312668" lon="9.210648005828261">
        <ele>1321.95</ele>
        <time>2025-05-20T08:54:37Z</time>
      </trkpt>
      <trkpt lat="46.437148964032531" lon="9.210578016936779">
        <ele>1321.95</ele>
        <time>2025-05-20T08:54:38Z</time>
      </trkpt>
      <trkpt lat="46.437215013429523" lon="9.210510961711407">
        <ele>1321.95</ele>
        <time>2025-05-20T08:54:39Z</time>
      </trkpt>
      <trkpt lat="46.437275027856231" lon="9.21045103110373">
        <ele>1321.95</ele>
        <time>2025-05-20T08:54:40Z</time>
      </trkpt>
      <trkpt lat="46.437331018969417" lon="9.210395961999893">
        <ele>1321.95</ele>
        <time>2025-05-20T08:54:41Z</time>
      </trkpt>
      <trkpt lat="46.437386004254222" lon="9.210340976715088">
        <ele>1322.9100000000001</ele>
        <time>2025-05-20T08:54:42Z</time>
      </trkpt>
      <trkpt lat="46.437421040609479" lon="9.210217008367181">
        <ele>1323.3900000000001</ele>
        <time>2025-05-20T08:54:43Z</time>
      </trkpt>
      <trkpt lat="46.437458004802465" lon="9.210088010877371">
        <ele>1324.3499999999999</ele>
        <time>2025-05-20T08:54:44Z</time>
      </trkpt>
      <trkpt lat="46.437518019229174" lon="9.209783999249339">
        <ele>1324.8299999999999</ele>
        <time>2025-05-20T08:54:46Z</time>
      </trkpt>
      <trkpt lat="46.437548026442528" lon="9.209620971232653">
        <ele>1325.3099999999999</ele>
        <time>2025-05-20T08:54:47Z</time>
      </trkpt>
      <trkpt lat="46.437565041705966" lon="9.209449980407953">
        <ele>1325.3099999999999</ele>
        <time>2025-05-20T08:54:48Z</time>
      </trkpt>
      <trkpt lat="46.437577027827501" lon="9.209268009290099">
        <ele>1326.28</ele>
        <time>2025-05-20T08:54:49Z</time>
      </trkpt>
      <trkpt lat="46.437588008120656" lon="9.209089977666736">
        <ele>1327.24</ele>
        <time>2025-05-20T08:54:50Z</time>
      </trkpt>
      <trkpt lat="46.437528999522328" lon="9.207804026082158">
        <ele>1333.97</ele>
        <time>2025-05-20T08:54:57Z</time>
      </trkpt>
      <trkpt lat="46.437522964552045" lon="9.207706041634083">
        <ele>1334.9300000000001</ele>
        <time>2025-05-20T08:54:58Z</time>
      </trkpt>
      <trkpt lat="46.437513995915651" lon="9.207573020830751">
        <ele>1335.8900000000001</ele>
        <time>2025-05-20T08:54:59Z</time>
      </trkpt>
      <trkpt lat="46.437387010082603" lon="9.207358025014401">
        <ele>1336.8499999999999</ele>
        <time>2025-05-20T08:55:00Z</time>
      </trkpt>
      <trkpt lat="46.437343005090952" lon="9.20746598392725">
        <ele>1337.3299999999999</ele>
        <time>2025-05-20T08:55:01Z</time>
      </trkpt>
      <trkpt lat="46.437343005090952" lon="9.207732025533915">
        <ele>1337.8099999999999</ele>
        <time>2025-05-20T08:55:02Z</time>
      </trkpt>
      <trkpt lat="46.437343005090952" lon="9.207829004153609">
        <ele>1338.29</ele>
        <time>2025-05-20T08:55:03Z</time>
      </trkpt>
      <trkpt lat="46.437343005090952" lon="9.207951966673136">
        <ele>1338.77</ele>
        <time>2025-05-20T08:55:04Z</time>
      </trkpt>
      <trkpt lat="46.437343005090952" lon="9.20830300077796">
        <ele>1339.73</ele>
        <time>2025-05-20T08:55:06Z</time>
      </trkpt>
      <trkpt lat="46.437335964292288" lon="9.208499975502491">
        <ele>1340.22</ele>
        <time>2025-05-20T08:55:07Z</time>
      </trkpt>
      <trkpt lat="46.437192969024181" lon="9.209460960701108">
        <ele>1342.1400000000001</ele>
        <time>2025-05-20T08:55:13Z</time>
      </trkpt>
      <trkpt lat="46.437192969024181" lon="9.209460960701108">
        <ele>1342.6199999999999</ele>
        <time>2025-05-20T08:55:14Z</time>
      </trkpt>
      <trkpt lat="46.437192969024181" lon="9.209460960701108">
        <ele>1342.6199999999999</ele>
        <time>2025-05-20T08:55:15Z</time>
      </trkpt>
      <trkpt lat="46.437192969024181" lon="9.209460960701108">
        <ele>1343.0999999999999</ele>
        <time>2025-05-20T08:55:16Z</time>
      </trkpt>
      <trkpt lat="46.437085010111332" lon="9.210191024467349">
        <ele>1343.5799999999999</ele>
        <time>2025-05-20T08:55:18Z</time>
      </trkpt>
      <trkpt lat="46.437071012333035" lon="9.210196975618601">
        <ele>1345.02</ele>
        <time>2025-05-20T08:55:19Z</time>
      </trkpt>
      <trkpt lat="46.43703798763454" lon="9.209910985082388">
        <ele>1346.46</ele>
        <time>2025-05-20T08:55:20Z</time>
      </trkpt>
      <trkpt lat="46.437120968475938" lon="9.209150997921825">
        <ele>1349.3499999999999</ele>
        <time>2025-05-20T08:55:25Z</time>
      </trkpt>
      <trkpt lat="46.437131026759744" lon="9.209014037624002">
        <ele>1349.3499999999999</ele>
        <time>2025-05-20T08:55:26Z</time>
      </trkpt>
      <trkpt lat="46.436884012073278" lon="9.208823014050722">
        <ele>1351.27</ele>
        <time>2025-05-20T08:55:28Z</time>
      </trkpt>
      <trkpt lat="46.436490984633565" lon="9.208310963585973">
        <ele>1352.71</ele>
        <time>2025-05-20T08:55:35Z</time>
      </trkpt>
      <trkpt lat="46.436654012650251" lon="9.207795979455113">
        <ele>1356.0799999999999</ele>
        <time>2025-05-20T08:55:39Z</time>
      </trkpt>
      <trkpt lat="46.436677984893322" lon="9.20783101581037">
        <ele>1357.04</ele>
        <time>2025-05-20T08:55:40Z</time>
      </trkpt>
      <trkpt lat="46.436426024883986" lon="9.207971999421716">
        <ele>1358</ele>
        <time>2025-05-20T08:55:41Z</time>
      </trkpt>
      <trkpt lat="46.436322005465627" lon="9.208062021061778">
        <ele>1358</ele>
        <time>2025-05-20T08:55:43Z</time>
      </trkpt>
      <trkpt lat="46.435930989682674" lon="9.208116000518203">
        <ele>1357.52</ele>
        <time>2025-05-20T08:55:46Z</time>
      </trkpt>
      <trkpt lat="46.435905005782843" lon="9.20817400328815">
        <ele>1358</ele>
        <time>2025-05-20T08:55:47Z</time>
      </trkpt>
      <trkpt lat="46.435905005782843" lon="9.20817400328815">
        <ele>1358</ele>
        <time>2025-05-20T08:55:48Z</time>
      </trkpt>
      <trkpt lat="46.435905005782843" lon="9.20817400328815">
        <ele>1358.48</ele>
        <time>2025-05-20T08:55:49Z</time>
      </trkpt>
      <trkpt lat="46.435754969716072" lon="9.20813100412488">
        <ele>1366.1700000000001</ele>
        <time>2025-05-20T08:55:54Z</time>
      </trkpt>
      <trkpt lat="46.435754969716072" lon="9.20813100412488">
        <ele>1368.5699999999999</ele>
        <time>2025-05-20T08:55:55Z</time>
      </trkpt>
      <trkpt lat="46.435564029961824" lon="9.207792039960623">
        <ele>1373.8599999999999</ele>
        <time>2025-05-20T08:55:58Z</time>
      </trkpt>
      <trkpt lat="46.435489011928439" lon="9.207643009722233">
        <ele>1374.3399999999999</ele>
        <time>2025-05-20T08:55:59Z</time>
      </trkpt>
      <trkpt lat="46.435417011380196" lon="9.207498002797365">
        <ele>1375.78</ele>
        <time>2025-05-20T08:56:00Z</time>
      </trkpt>
      <trkpt lat="46.435294970870018" lon="9.207206983119249">
        <ele>1378.1900000000001</ele>
        <time>2025-05-20T08:56:02Z</time>
      </trkpt>
      <trkpt lat="46.435270998626947" lon="9.207038003951311">
        <ele>1379.6300000000001</ele>
        <time>2025-05-20T08:56:03Z</time>
      </trkpt>
      <trkpt lat="46.435239985585213" lon="9.206822002306581">
        <ele>1381.0699999999999</ele>
        <time>2025-05-20T08:56:04Z</time>
      </trkpt>
      <trkpt lat="46.435153987258673" lon="9.206522013992071">
        <ele>1383.96</ele>
        <time>2025-05-20T08:56:05Z</time>
      </trkpt>
      <trkpt lat="46.435105036944151" lon="9.206451019272208">
        <ele>1387.8</ele>
        <time>2025-05-20T08:56:06Z</time>
      </trkpt>
      <trkpt lat="46.434774035587907" lon="9.205974005162716">
        <ele>1400.78</ele>
        <time>2025-05-20T08:56:10Z</time>
      </trkpt>
      <trkpt lat="46.434708992019296" lon="9.205880966037512">
        <ele>1404.6199999999999</ele>
        <time>2025-05-20T08:56:11Z</time>
      </trkpt>
      <trkpt lat="46.434598015621305" lon="9.205736964941025">
        <ele>1407.51</ele>
        <time>2025-05-20T08:56:12Z</time>
      </trkpt>
      <trkpt lat="46.434535989537835" lon="9.205697989091277">
        <ele>1411.3499999999999</ele>
        <time>2025-05-20T08:56:13Z</time>
      </trkpt>
      <trkpt lat="46.434491984546185" lon="9.205670999363065">
        <ele>1413.28</ele>
        <time>2025-05-20T08:56:14Z</time>
      </trkpt>
      <trkpt lat="46.434455020353198" lon="9.205647027119994">
        <ele>1415.2</ele>
        <time>2025-05-20T08:56:15Z</time>
      </trkpt>
      <trkpt lat="46.434273971244693" lon="9.205534961074591">
        <ele>1417.5999999999999</ele>
        <time>2025-05-20T08:56:16Z</time>
      </trkpt>
      <trkpt lat="46.434273971244693" lon="9.205534961074591">
        <ele>1418.5599999999999</ele>
        <time>2025-05-20T08:56:17Z</time>
      </trkpt>
      <trkpt lat="46.434368016198277" lon="9.205392971634865">
        <ele>1419.04</ele>
        <time>2025-05-20T08:56:18Z</time>
      </trkpt>
      <trkpt lat="46.4345240034163" lon="9.205456003546715">
        <ele>1421.45</ele>
        <time>2025-05-20T08:56:19Z</time>
      </trkpt>
      <trkpt lat="46.43456800840795" lon="9.205476958304644">
        <ele>1429.6199999999999</ele>
        <time>2025-05-20T08:56:20Z</time>
      </trkpt>
      <trkpt lat="46.43465400673449" lon="9.205520041286945">
        <ele>1430.5799999999999</ele>
        <time>2025-05-20T08:56:21Z</time>
      </trkpt>
      <trkpt lat="46.434873025864363" lon="9.205594975501299">
        <ele>1438.27</ele>
        <time>2025-05-20T08:56:23Z</time>
      </trkpt>
      <trkpt lat="46.435000011697412" lon="9.205586006864905">
        <ele>1443.0799999999999</ele>
        <time>2025-05-20T08:56:24Z</time>
      </trkpt>
      <trkpt lat="46.435137977823615" lon="9.205576032400131">
        <ele>1445</ele>
        <time>2025-05-20T08:56:25Z</time>
      </trkpt>
      <trkpt lat="46.435282984748483" lon="9.205566979944706">
        <ele>1447.4000000000001</ele>
        <time>2025-05-20T08:56:26Z</time>
      </trkpt>
      <trkpt lat="46.435444001108408" lon="9.205551976338029">
        <ele>1449.3199999999999</ele>
        <time>2025-05-20T08:56:27Z</time>
      </trkpt>
      <trkpt lat="46.435612980276346" lon="9.205491961911321">
        <ele>1454.6099999999999</ele>
        <time>2025-05-20T08:56:28Z</time>
      </trkpt>
      <trkpt lat="46.436098041012883" lon="9.205213012173772">
        <ele>1470.47</ele>
        <time>2025-05-20T08:56:33Z</time>
      </trkpt>
      <trkpt lat="46.436098041012883" lon="9.205213012173772">
        <ele>1473.8399999999999</ele>
        <time>2025-05-20T08:56:34Z</time>
      </trkpt>
      <trkpt lat="46.436078008264303" lon="9.205152997747064">
        <ele>1479.6099999999999</ele>
        <time>2025-05-20T08:56:35Z</time>
      </trkpt>
      <trkpt lat="46.436077002435923" lon="9.205147968605161">
        <ele>1483.45</ele>
        <time>2025-05-20T08:56:36Z</time>
      </trkpt>
      <trkpt lat="46.436063004657626" lon="9.20514302328229">
        <ele>1486.3399999999999</ele>
        <time>2025-05-20T08:56:37Z</time>
      </trkpt>
      <trkpt lat="46.435976000502706" lon="9.205109998583794">
        <ele>1489.7</ele>
        <time>2025-05-20T08:56:38Z</time>
      </trkpt>
      <trkpt lat="46.43587701022625" lon="9.205072028562427">
        <ele>1491.1400000000001</ele>
        <time>2025-05-20T08:56:39Z</time>
      </trkpt>
      <trkpt lat="46.435186006128788" lon="9.204960968345404">
        <ele>1499.3099999999999</ele>
        <time>2025-05-20T08:56:45Z</time>
      </trkpt>
      <trkpt lat="46.435120040550828" lon="9.204959040507674">
        <ele>1500.76</ele>
        <time>2025-05-20T08:56:46Z</time>
      </trkpt>
      <trkpt lat="46.435004035010934" lon="9.204955017194152">
        <ele>1501.72</ele>
        <time>2025-05-20T08:56:47Z</time>
      </trkpt>
      <trkpt lat="46.434990959241986" lon="9.204932972788811">
        <ele>1502.6800000000001</ele>
        <time>2025-05-20T08:56:48Z</time>
      </trkpt>
      <trkpt lat="46.434981990605593" lon="9.204761981964111">
        <ele>1503.1600000000001</ele>
        <time>2025-05-20T08:56:49Z</time>
      </trkpt>
      <trkpt lat="46.434981990605593" lon="9.204761981964111">
        <ele>1505.0799999999999</ele>
        <time>2025-05-20T08:56:50Z</time>
      </trkpt>
      <trkpt lat="46.435093972831964" lon="9.204725017771125">
        <ele>1507.48</ele>
        <time>2025-05-20T08:56:51Z</time>
      </trkpt>
      <trkpt lat="46.43516999669373" lon="9.204699033871293">
        <ele>1509.4100000000001</ele>
        <time>2025-05-20T08:56:52Z</time>
      </trkpt>
      <trkpt lat="46.435303017497063" lon="9.204622004181147">
        <ele>1510.3699999999999</ele>
        <time>2025-05-20T08:56:53Z</time>
      </trkpt>
      <trkpt lat="46.436066022142768" lon="9.204081958159804">
        <ele>1516.6199999999999</ele>
        <time>2025-05-20T08:56:59Z</time>
      </trkpt>
      <trkpt lat="46.437243008986115" lon="9.203850030899048">
        <ele>1523.3499999999999</ele>
        <time>2025-05-20T08:57:06Z</time>
      </trkpt>
      <trkpt lat="46.437395978718996" lon="9.203840978443623">
        <ele>1524.3099999999999</ele>
        <time>2025-05-20T08:57:07Z</time>
      </trkpt>
      <trkpt lat="46.437556995078921" lon="9.203775012865663">
        <ele>1525.27</ele>
        <time>2025-05-20T08:57:08Z</time>
      </trkpt>
      <trkpt lat="46.43768004141748" lon="9.203713992610574">
        <ele>1526.71</ele>
        <time>2025-05-20T08:57:09Z</time>
      </trkpt>
      <trkpt lat="46.437785988673568" lon="9.203582983464003">
        <ele>1527.6700000000001</ele>
        <time>2025-05-20T08:57:10Z</time>
      </trkpt>
      <trkpt lat="46.437872992828488" lon="9.203473012894392">
        <ele>1529.5899999999999</ele>
        <time>2025-05-20T08:57:11Z</time>
      </trkpt>
      <trkpt lat="46.437922026962042" lon="9.203409980982542">
        <ele>1531.04</ele>
        <time>2025-05-20T08:57:12Z</time>
      </trkpt>
      <trkpt lat="46.438060998916626" lon="9.203313002362847">
        <ele>1532.96</ele>
        <time>2025-05-20T08:57:13Z</time>
      </trkpt>
      <trkpt lat="46.438137022778392" lon="9.203260028734803">
        <ele>1534.4000000000001</ele>
        <time>2025-05-20T08:57:14Z</time>
      </trkpt>
      <trkpt lat="46.438234001398087" lon="9.203273020684719">
        <ele>1535.8399999999999</ele>
        <time>2025-05-20T08:57:15Z</time>
      </trkpt>
      <trkpt lat="46.438357969745994" lon="9.203288024291396">
        <ele>1536.8</ele>
        <time>2025-05-20T08:57:16Z</time>
      </trkpt>
      <trkpt lat="46.438496019691229" lon="9.203305961564183">
        <ele>1538.25</ele>
        <time>2025-05-20T08:57:17Z</time>
      </trkpt>
      <trkpt lat="46.439572004601359" lon="9.203471001237631">
        <ele>1547.3800000000001</ele>
        <time>2025-05-20T08:57:24Z</time>
      </trkpt>
      <trkpt lat="46.439736038446426" lon="9.203448034822941">
        <ele>1549.3</ele>
        <time>2025-05-20T08:57:25Z</time>
      </trkpt>
      <trkpt lat="46.440676990896463" lon="9.203073028475046">
        <ele>1560.8399999999999</ele>
        <time>2025-05-20T08:57:31Z</time>
      </trkpt>
      <trkpt lat="46.440828032791615" lon="9.203079985454679">
        <ele>1562.76</ele>
        <time>2025-05-20T08:57:32Z</time>
      </trkpt>
      <trkpt lat="46.441131038591266" lon="9.203064981848002">
        <ele>1567.0899999999999</ele>
        <time>2025-05-20T08:57:34Z</time>
      </trkpt>
      <trkpt lat="46.441285014152527" lon="9.20303899794817">
        <ele>1568.53</ele>
        <time>2025-05-20T08:57:35Z</time>
      </trkpt>
      <trkpt lat="46.441438989713788" lon="9.203002033755183">
        <ele>1570.45</ele>
        <time>2025-05-20T08:57:36Z</time>
      </trkpt>
      <trkpt lat="46.442561997100711" lon="9.202557960525155">
        <ele>1582.47</ele>
        <time>2025-05-20T08:57:43Z</time>
      </trkpt>
      <trkpt lat="46.442718990147114" lon="9.202456036582589">
        <ele>1584.3900000000001</ele>
        <time>2025-05-20T08:57:44Z</time>
      </trkpt>
      <trkpt lat="46.443221988156438" lon="9.202209021896124">
        <ele>1590.6400000000001</ele>
        <time>2025-05-20T08:57:47Z</time>
      </trkpt>
      <trkpt lat="46.445013033226132" lon="9.201538972556591">
        <ele>1613.71</ele>
        <time>2025-05-20T08:57:57Z</time>
      </trkpt>
      <trkpt lat="46.446478022262454" lon="9.201151980087161">
        <ele>1633.9000000000001</ele>
        <time>2025-05-20T08:58:06Z</time>
      </trkpt>
      <trkpt lat="46.446711961179972" lon="9.201074028387666">
        <ele>1637.26</ele>
        <time>2025-05-20T08:58:08Z</time>
      </trkpt>
      <trkpt lat="46.446789996698499" lon="9.200985012575984">
        <ele>1638.7</ele>
        <time>2025-05-20T08:58:09Z</time>
      </trkpt>
      <trkpt lat="46.446874989196658" lon="9.200880993157625">
        <ele>1640.1500000000001</ele>
        <time>2025-05-20T08:58:10Z</time>
      </trkpt>
      <trkpt lat="46.446953024715185" lon="9.200784014537931">
        <ele>1641.5899999999999</ele>
        <time>2025-05-20T08:58:11Z</time>
      </trkpt>
      <trkpt lat="46.447039023041725" lon="9.200691981241107">
        <ele>1643.03</ele>
        <time>2025-05-20T08:58:12Z</time>
      </trkpt>
      <trkpt lat="46.447122003883123" lon="9.200617969036102">
        <ele>1643.99</ele>
        <time>2025-05-20T08:58:13Z</time>
      </trkpt>
      <trkpt lat="46.447191992774606" lon="9.200556026771665">
        <ele>1644.95</ele>
        <time>2025-05-20T08:58:14Z</time>
      </trkpt>
      <trkpt lat="46.447305986657739" lon="9.200572958216071">
        <ele>1645.9100000000001</ele>
        <time>2025-05-20T08:58:15Z</time>
      </trkpt>
      <trkpt lat="46.447342028841376" lon="9.200577987357974">
        <ele>1646.8800000000001</ele>
        <time>2025-05-20T08:58:16Z</time>
      </trkpt>
      <trkpt lat="46.44743699580431" lon="9.200673038139939">
        <ele>1647.8399999999999</ele>
        <time>2025-05-20T08:58:17Z</time>
      </trkpt>
      <trkpt lat="46.447478989139199" lon="9.200730035081506">
        <ele>1648.8</ele>
        <time>2025-05-20T08:58:18Z</time>
      </trkpt>
      <trkpt lat="46.447521988302469" lon="9.200842017307878">
        <ele>1649.76</ele>
        <time>2025-05-20T08:58:19Z</time>
      </trkpt>
      <trkpt lat="46.447564987465739" lon="9.200957017019391">
        <ele>1651.2</ele>
        <time>2025-05-20T08:58:20Z</time>
      </trkpt>
      <trkpt lat="46.447605974972248" lon="9.201066987589002">
        <ele>1651.6800000000001</ele>
        <time>2025-05-20T08:58:21Z</time>
      </trkpt>
      <trkpt lat="46.447644028812647" lon="9.20117000117898">
        <ele>1652.6400000000001</ele>
        <time>2025-05-20T08:58:22Z</time>
      </trkpt>
      <trkpt lat="46.447663977742195" lon="9.201221968978643">
        <ele>1654.0899999999999</ele>
        <time>2025-05-20T08:58:23Z</time>
      </trkpt>
      <trkpt lat="46.447771014645696" lon="9.201238984242082">
        <ele>1655.05</ele>
        <time>2025-05-20T08:58:24Z</time>
      </trkpt>
      <trkpt lat="46.447792975232005" lon="9.201243007555604">
        <ele>1656.01</ele>
        <time>2025-05-20T08:58:25Z</time>
      </trkpt>
      <trkpt lat="46.447839997708797" lon="9.201194979250431">
        <ele>1656.97</ele>
        <time>2025-05-20T08:58:26Z</time>
      </trkpt>
      <trkpt lat="46.447889031842351" lon="9.20114703476429">
        <ele>1657.45</ele>
        <time>2025-05-20T08:58:27Z</time>
      </trkpt>
      <trkpt lat="46.447944017127156" lon="9.201090959832072">
        <ele>1658.4100000000001</ele>
        <time>2025-05-20T08:58:28Z</time>
      </trkpt>
      <trkpt lat="46.448005037382245" lon="9.201028011739254">
        <ele>1658.8900000000001</ele>
        <time>2025-05-20T08:58:29Z</time>
      </trkpt>
      <trkpt lat="46.448655975982547" lon="9.200460975989699">
        <ele>1660.8099999999999</ele>
        <time>2025-05-20T08:58:36Z</time>
      </trkpt>
      <trkpt lat="46.44879000261426" lon="9.200411019846797">
        <ele>1660.3299999999999</ele>
        <time>2025-05-20T08:58:37Z</time>
      </trkpt>
      <trkpt lat="46.448929980397224" lon="9.200358968228102">
        <ele>1659.3699999999999</ele>
        <time>2025-05-20T08:58:38Z</time>
      </trkpt>
      <trkpt lat="46.450518015772104" lon="9.199772989377379">
        <ele>1651.6800000000001</ele>
        <time>2025-05-20T08:58:48Z</time>
      </trkpt>
      <trkpt lat="46.452222978696227" lon="9.199162032455206">
        <ele>1645.4300000000001</ele>
        <time>2025-05-20T08:58:59Z</time>
      </trkpt>
      <trkpt lat="46.45377597771585" lon="9.198614023625851">
        <ele>1640.6300000000001</ele>
        <time>2025-05-20T08:59:09Z</time>
      </trkpt>
      <trkpt lat="46.455297041684389" lon="9.197877002879977">
        <ele>1638.22</ele>
        <time>2025-05-20T08:59:20Z</time>
      </trkpt>
      <trkpt lat="46.456636972725391" lon="9.196453001350164">
        <ele>1632.46</ele>
        <time>2025-05-20T08:59:31Z</time>
      </trkpt>
      <trkpt lat="46.457795016467571" lon="9.195021959021688">
        <ele>1629.5699999999999</ele>
        <time>2025-05-20T08:59:42Z</time>
      </trkpt>
      <trkpt lat="46.458678971976042" lon="9.193638022989035">
        <ele>1624.28</ele>
        <time>2025-05-20T08:59:52Z</time>
      </trkpt>
      <trkpt lat="46.458782991394401" lon="9.193552024662495">
        <ele>1623.8</ele>
        <time>2025-05-20T08:59:53Z</time>
      </trkpt>
      <trkpt lat="46.45931800827384" lon="9.193168971687555">
        <ele>1621.8800000000001</ele>
        <time>2025-05-20T08:59:58Z</time>
      </trkpt>
      <trkpt lat="46.459419010207057" lon="9.193153968080878">
        <ele>1621.4000000000001</ele>
        <time>2025-05-20T08:59:59Z</time>
      </trkpt>
      <trkpt lat="46.459519006311893" lon="9.193139970302582">
        <ele>1620.9200000000001</ele>
        <time>2025-05-20T09:00:00Z</time>
      </trkpt>
      <trkpt lat="46.459614979103208" lon="9.193143993616104">
        <ele>1620.4400000000001</ele>
        <time>2025-05-20T09:00:01Z</time>
      </trkpt>
      <trkpt lat="46.459714975208044" lon="9.193172995001078">
        <ele>1619.48</ele>
        <time>2025-05-20T09:00:02Z</time>
      </trkpt>
      <trkpt lat="46.459925025701523" lon="9.193233009427786">
        <ele>1618.04</ele>
        <time>2025-05-20T09:00:04Z</time>
      </trkpt>
      <trkpt lat="46.460042037069798" lon="9.193253964185715">
        <ele>1617.5599999999999</ele>
        <time>2025-05-20T09:00:05Z</time>
      </trkpt>
      <trkpt lat="46.460152007639408" lon="9.193210965022445">
        <ele>1616.5899999999999</ele>
        <time>2025-05-20T09:00:06Z</time>
      </trkpt>
      <trkpt lat="46.460267007350922" lon="9.193166960030794">
        <ele>1616.1099999999999</ele>
        <time>2025-05-20T09:00:07Z</time>
      </trkpt>
      <trkpt lat="46.460381001234055" lon="9.193123038858175">
        <ele>1615.1500000000001</ele>
        <time>2025-05-20T09:00:08Z</time>
      </trkpt>
      <trkpt lat="46.460491977632046" lon="9.193080961704254">
        <ele>1614.6700000000001</ele>
        <time>2025-05-20T09:00:09Z</time>
      </trkpt>
      <trkpt lat="46.460597002878785" lon="9.193039974197745">
        <ele>1613.71</ele>
        <time>2025-05-20T09:00:10Z</time>
      </trkpt>
      <trkpt lat="46.461662007495761" lon="9.192461036145687">
        <ele>1604.5799999999999</ele>
        <time>2025-05-20T09:00:21Z</time>
      </trkpt>
      <trkpt lat="46.462386958301067" lon="9.192041018977761">
        <ele>1602.6600000000001</ele>
        <time>2025-05-20T09:00:30Z</time>
      </trkpt>
      <trkpt lat="46.462465999647975" lon="9.192009000107646">
        <ele>1602.6600000000001</ele>
        <time>2025-05-20T09:00:31Z</time>
      </trkpt>
      <trkpt lat="46.462544035166502" lon="9.191977987065911">
        <ele>1602.6600000000001</ele>
        <time>2025-05-20T09:00:32Z</time>
      </trkpt>
      <trkpt lat="46.462687030434608" lon="9.191874973475933">
        <ele>1602.1700000000001</ele>
        <time>2025-05-20T09:00:34Z</time>
      </trkpt>
      <trkpt lat="46.46275601349771" lon="9.19182300567627">
        <ele>1602.1700000000001</ele>
        <time>2025-05-20T09:00:35Z</time>
      </trkpt>
      <trkpt lat="46.462824996560812" lon="9.1917609795928">
        <ele>1602.1700000000001</ele>
        <time>2025-05-20T09:00:36Z</time>
      </trkpt>
      <trkpt lat="46.462876964360476" lon="9.191672969609499">
        <ele>1602.1700000000001</ele>
        <time>2025-05-20T09:00:37Z</time>
      </trkpt>
      <trkpt lat="46.462924992665648" lon="9.191589988768101">
        <ele>1602.1700000000001</ele>
        <time>2025-05-20T09:00:38Z</time>
      </trkpt>
      <trkpt lat="46.463068993762136" lon="9.191310033202171">
        <ele>1602.1700000000001</ele>
        <time>2025-05-20T09:00:41Z</time>
      </trkpt>
      <trkpt lat="46.463101012632251" lon="9.191210037097335">
        <ele>1602.6600000000001</ele>
        <time>2025-05-20T09:00:42Z</time>
      </trkpt>
      <trkpt lat="46.46311903372407" lon="9.191100988537073">
        <ele>1603.1400000000001</ele>
        <time>2025-05-20T09:00:43Z</time>
      </trkpt>
      <trkpt lat="46.463137976825237" lon="9.190991017967463">
        <ele>1603.6199999999999</ele>
        <time>2025-05-20T09:00:44Z</time>
      </trkpt>
      <trkpt lat="46.463153986260295" lon="9.190867971628904">
        <ele>1603.6199999999999</ele>
        <time>2025-05-20T09:00:45Z</time>
      </trkpt>
      <trkpt lat="46.46311903372407" lon="9.190753977745771">
        <ele>1604.0999999999999</ele>
        <time>2025-05-20T09:00:46Z</time>
      </trkpt>
      <trkpt lat="46.463080979883671" lon="9.190652975812554">
        <ele>1604.5799999999999</ele>
        <time>2025-05-20T09:00:47Z</time>
      </trkpt>
      <trkpt lat="46.463047033175826" lon="9.190550968050957">
        <ele>1605.0599999999999</ele>
        <time>2025-05-20T09:00:48Z</time>
      </trkpt>
      <trkpt lat="46.463004034012556" lon="9.190445020794869">
        <ele>1606.5</ele>
        <time>2025-05-20T09:00:49Z</time>
      </trkpt>
      <trkpt lat="46.462951982393861" lon="9.19034100137651">
        <ele>1607.46</ele>
        <time>2025-05-20T09:00:50Z</time>
      </trkpt>
      <trkpt lat="46.462901020422578" lon="9.190238993614912">
        <ele>1608.4200000000001</ele>
        <time>2025-05-20T09:00:51Z</time>
      </trkpt>
      <trkpt lat="46.462833965197206" lon="9.19010597281158">
        <ele>1609.3800000000001</ele>
        <time>2025-05-20T09:00:52Z</time>
      </trkpt>
      <trkpt lat="46.462808987125754" lon="9.190004970878363">
        <ele>1610.3499999999999</ele>
        <time>2025-05-20T09:00:53Z</time>
      </trkpt>
      <trkpt lat="46.462788032367826" lon="9.189863987267017">
        <ele>1611.3099999999999</ele>
        <time>2025-05-20T09:00:54Z</time>
      </trkpt>
      <trkpt lat="46.46273598074913" lon="9.18901096098125">
        <ele>1617.0699999999999</ele>
        <time>2025-05-20T09:01:00Z</time>
      </trkpt>
      <trkpt lat="46.462760036811233" lon="9.188698986545205">
        <ele>1619</ele>
        <time>2025-05-20T09:01:02Z</time>
      </trkpt>
      <trkpt lat="46.462791971862316" lon="9.188562026247382">
        <ele>1619.48</ele>
        <time>2025-05-20T09:01:03Z</time>
      </trkpt>
      <trkpt lat="46.46286497823894" lon="9.188421964645386">
        <ele>1620.9200000000001</ele>
        <time>2025-05-20T09:01:04Z</time>
      </trkpt>
      <trkpt lat="46.462931027635932" lon="9.188295984640718">
        <ele>1621.4000000000001</ele>
        <time>2025-05-20T09:01:05Z</time>
      </trkpt>
      <trkpt lat="46.462996993213892" lon="9.188170004636049">
        <ele>1622.3599999999999</ele>
        <time>2025-05-20T09:01:06Z</time>
      </trkpt>
      <trkpt lat="46.46307896822691" lon="9.188075037673116">
        <ele>1623.3199999999999</ele>
        <time>2025-05-20T09:01:07Z</time>
      </trkpt>
      <trkpt lat="46.463168989866972" lon="9.188012005761266">
        <ele>1624.28</ele>
        <time>2025-05-20T09:01:08Z</time>
      </trkpt>
      <trkpt lat="46.463260017335415" lon="9.187947968021035">
        <ele>1625.25</ele>
        <time>2025-05-20T09:01:09Z</time>
      </trkpt>
      <trkpt lat="46.463353978469968" lon="9.187883008271456">
        <ele>1626.21</ele>
        <time>2025-05-20T09:01:10Z</time>
      </trkpt>
      <trkpt lat="46.463456992059946" lon="9.187811007723212">
        <ele>1627.1700000000001</ele>
        <time>2025-05-20T09:01:11Z</time>
      </trkpt>
      <trkpt lat="46.463548019528389" lon="9.187791980803013">
        <ele>1627.6500000000001</ele>
        <time>2025-05-20T09:01:12Z</time>
      </trkpt>
      <trkpt lat="46.463653966784477" lon="9.187771026045084">
        <ele>1628.6099999999999</ele>
        <time>2025-05-20T09:01:13Z</time>
      </trkpt>
      <trkpt lat="46.46376402117312" lon="9.187762979418039">
        <ele>1629.0899999999999</ele>
        <time>2025-05-20T09:01:14Z</time>
      </trkpt>
      <trkpt lat="46.463874997571111" lon="9.187758034095168">
        <ele>1630.05</ele>
        <time>2025-05-20T09:01:15Z</time>
      </trkpt>
      <trkpt lat="46.464145984500647" lon="9.187704976648092">
        <ele>1632.46</ele>
        <time>2025-05-20T09:01:18Z</time>
      </trkpt>
      <trkpt lat="46.464262995868921" lon="9.187598023563623">
        <ele>1634.8599999999999</ele>
        <time>2025-05-20T09:01:20Z</time>
      </trkpt>
      <trkpt lat="46.464379001408815" lon="9.187463996931911">
        <ele>1636.78</ele>
        <time>2025-05-20T09:01:22Z</time>
      </trkpt>
      <trkpt lat="46.464438010007143" lon="9.187368024140596">
        <ele>1637.74</ele>
        <time>2025-05-20T09:01:23Z</time>
      </trkpt>
      <trkpt lat="46.464574970304966" lon="9.187149005010724">
        <ele>1640.1500000000001</ele>
        <time>2025-05-20T09:01:25Z</time>
      </trkpt>
      <trkpt lat="46.465233033522964" lon="9.185932036489248">
        <ele>1650.24</ele>
        <time>2025-05-20T09:01:34Z</time>
      </trkpt>
      <trkpt lat="46.465307967737317" lon="9.185698013752699">
        <ele>1652.1600000000001</ele>
        <time>2025-05-20T09:01:36Z</time>
      </trkpt>
      <trkpt lat="46.465373011305928" lon="9.185495004057884">
        <ele>1654.0899999999999</ele>
        <time>2025-05-20T09:01:38Z</time>
      </trkpt>
      <trkpt lat="46.465436965227127" lon="9.185440018773079">
        <ele>1655.05</ele>
        <time>2025-05-20T09:01:39Z</time>
      </trkpt>
      <trkpt lat="46.465494967997074" lon="9.185429038479924">
        <ele>1655.53</ele>
        <time>2025-05-20T09:01:40Z</time>
      </trkpt>
      <trkpt lat="46.465533021837473" lon="9.185446975752711">
        <ele>1656.49</ele>
        <time>2025-05-20T09:01:41Z</time>
      </trkpt>
      <trkpt lat="46.465537967160344" lon="9.185449993237853">
        <ele>1656.97</ele>
        <time>2025-05-20T09:01:42Z</time>
      </trkpt>
      <trkpt lat="46.465547019615769" lon="9.185487041249871">
        <ele>1656.97</ele>
        <time>2025-05-20T09:01:43Z</time>
      </trkpt>
      <trkpt lat="46.465566968545318" lon="9.185565998777747">
        <ele>1657.45</ele>
        <time>2025-05-20T09:01:44Z</time>
      </trkpt>
      <trkpt lat="46.465571997687221" lon="9.185653002932668">
        <ele>1657.9300000000001</ele>
        <time>2025-05-20T09:01:45Z</time>
      </trkpt>
      <trkpt lat="46.465534027665854" lon="9.185788035392761">
        <ele>1658.4100000000001</ele>
        <time>2025-05-20T09:01:46Z</time>
      </trkpt>
      <trkpt lat="46.465422967448831" lon="9.186296984553337">
        <ele>1660.3299999999999</ele>
        <time>2025-05-20T09:01:49Z</time>
      </trkpt>
      <trkpt lat="46.465412992984056" lon="9.186461018398404">
        <ele>1660.8099999999999</ele>
        <time>2025-05-20T09:01:50Z</time>
      </trkpt>
      <trkpt lat="46.465435959398746" lon="9.186645001173019">
        <ele>1661.78</ele>
        <time>2025-05-20T09:01:51Z</time>
      </trkpt>
      <trkpt lat="46.465479964390397" lon="9.186830995604396">
        <ele>1661.78</ele>
        <time>2025-05-20T09:01:52Z</time>
      </trkpt>
      <trkpt lat="46.465545007959008" lon="9.18690400198102">
        <ele>1662.26</ele>
        <time>2025-05-20T09:01:53Z</time>
      </trkpt>
      <trkpt lat="46.465612985193729" lon="9.186980025842786">
        <ele>1662.26</ele>
        <time>2025-05-20T09:01:54Z</time>
      </trkpt>
      <trkpt lat="46.465814989060163" lon="9.187100976705551">
        <ele>1663.22</ele>
        <time>2025-05-20T09:01:56Z</time>
      </trkpt>
      <trkpt lat="46.465910039842129" lon="9.187149005010724">
        <ele>1663.7</ele>
        <time>2025-05-20T09:01:57Z</time>
      </trkpt>
      <trkpt lat="46.466073989868164" lon="9.187212958931923">
        <ele>1665.1400000000001</ele>
        <time>2025-05-20T09:01:59Z</time>
      </trkpt>
      <trkpt lat="46.466137021780014" lon="9.187231985852122">
        <ele>1665.6199999999999</ele>
        <time>2025-05-20T09:02:00Z</time>
      </trkpt>
      <trkpt lat="46.466194018721581" lon="9.18724799528718">
        <ele>1665.6199999999999</ele>
        <time>2025-05-20T09:02:01Z</time>
      </trkpt>
      <trkpt lat="46.46632301621139" lon="9.187285965308547">
        <ele>1666.0999999999999</ele>
        <time>2025-05-20T09:02:04Z</time>
      </trkpt>
      <trkpt lat="46.466349000111222" lon="9.187293006107211">
        <ele>1666.0999999999999</ele>
        <time>2025-05-20T09:02:05Z</time>
      </trkpt>
      <trkpt lat="46.466385964304209" lon="9.187303986400366">
        <ele>1667.0599999999999</ele>
        <time>2025-05-20T09:02:14Z</time>
      </trkpt>
      <trkpt lat="46.466398034244776" lon="9.187307003885508">
        <ele>1667.54</ele>
        <time>2025-05-20T09:03:03Z</time>
      </trkpt>
      <trkpt lat="46.466418989002705" lon="9.18731396086514">
        <ele>1668.51</ele>
        <time>2025-05-20T09:03:04Z</time>
      </trkpt>
      <trkpt lat="46.466503981500864" lon="9.187338016927242">
        <ele>1669.47</ele>
        <time>2025-05-20T09:03:05Z</time>
      </trkpt>
      <trkpt lat="46.466503981500864" lon="9.187338016927242">
        <ele>1670.9100000000001</ele>
        <time>2025-05-20T09:03:06Z</time>
      </trkpt>
      <trkpt lat="46.466503981500864" lon="9.187338016927242">
        <ele>1672.3499999999999</ele>
        <time>2025-05-20T09:03:07Z</time>
      </trkpt>
      <trkpt lat="46.466434998437762" lon="9.187317984178662">
        <ele>1673.3099999999999</ele>
        <time>2025-05-20T09:03:08Z</time>
      </trkpt>
      <trkpt lat="46.466395016759634" lon="9.187307003885508">
        <ele>1673.79</ele>
        <time>2025-05-20T09:03:09Z</time>
      </trkpt>
      <trkpt lat="46.466343970969319" lon="9.187292000278831">
        <ele>1674.27</ele>
        <time>2025-05-20T09:03:10Z</time>
      </trkpt>
      <trkpt lat="46.466281022876501" lon="9.187273979187012">
        <ele>1674.75</ele>
        <time>2025-05-20T09:03:11Z</time>
      </trkpt>
      <trkpt lat="46.466057980433106" lon="9.187208013609052">
        <ele>1673.79</ele>
        <time>2025-05-20T09:03:14Z</time>
      </trkpt>
      <trkpt lat="46.465967958793044" lon="9.187178006395698">
        <ele>1673.79</ele>
        <time>2025-05-20T09:03:15Z</time>
      </trkpt>
      <trkpt lat="46.465883972123265" lon="9.187136013060808">
        <ele>1673.3099999999999</ele>
        <time>2025-05-20T09:03:16Z</time>
      </trkpt>
      <trkpt lat="46.465795040130615" lon="9.187091002240777">
        <ele>1673.3099999999999</ele>
        <time>2025-05-20T09:03:17Z</time>
      </trkpt>
      <trkpt lat="46.465704012662172" lon="9.187045991420746">
        <ele>1672.8299999999999</ele>
        <time>2025-05-20T09:03:18Z</time>
      </trkpt>
      <trkpt lat="46.465645004063845" lon="9.187016990035772">
        <ele>1672.3499999999999</ele>
        <time>2025-05-20T09:03:19Z</time>
      </trkpt>
      <trkpt lat="46.465478958562016" lon="9.186829989776015">
        <ele>1671.3900000000001</ele>
        <time>2025-05-20T09:03:21Z</time>
      </trkpt>
      <trkpt lat="46.465474013239145" lon="9.186823032796383">
        <ele>1671.3900000000001</ele>
        <time>2025-05-20T09:03:22Z</time>
      </trkpt>
      <trkpt lat="46.465408969670534" lon="9.186522960662842">
        <ele>1670.9100000000001</ele>
        <time>2025-05-20T09:03:23Z</time>
      </trkpt>
      <trkpt lat="46.465408969670534" lon="9.186522960662842">
        <ele>1670.9100000000001</ele>
        <time>2025-05-20T09:03:24Z</time>
      </trkpt>
      <trkpt lat="46.465415004640818" lon="9.186420030891895">
        <ele>1670.9100000000001</ele>
        <time>2025-05-20T09:03:25Z</time>
      </trkpt>
      <trkpt lat="46.465423973277211" lon="9.186276029795408">
        <ele>1670.4300000000001</ele>
        <time>2025-05-20T09:03:26Z</time>
      </trkpt>
      <trkpt lat="46.465431014075875" lon="9.186158012598753">
        <ele>1670.4300000000001</ele>
        <time>2025-05-20T09:03:27Z</time>
      </trkpt>
      <trkpt lat="46.465475019067526" lon="9.18600001372397">
        <ele>1670.4300000000001</ele>
        <time>2025-05-20T09:03:28Z</time>
      </trkpt>
      <trkpt lat="46.465510977432132" lon="9.18587202206254">
        <ele>1669.95</ele>
        <time>2025-05-20T09:03:29Z</time>
      </trkpt>
      <trkpt lat="46.465541990473866" lon="9.185761967673898">
        <ele>1669.47</ele>
        <time>2025-05-20T09:03:30Z</time>
      </trkpt>
      <trkpt lat="46.465569986030459" lon="9.185661971569061">
        <ele>1668.99</ele>
        <time>2025-05-20T09:03:31Z</time>
      </trkpt>
      <trkpt lat="46.465557999908924" lon="9.185530040413141">
        <ele>1668.51</ele>
        <time>2025-05-20T09:03:32Z</time>
      </trkpt>
      <trkpt lat="46.465537967160344" lon="9.185449993237853">
        <ele>1667.54</ele>
        <time>2025-05-20T09:03:33Z</time>
      </trkpt>
      <trkpt lat="46.465494967997074" lon="9.185429038479924">
        <ele>1667.0599999999999</ele>
        <time>2025-05-20T09:03:34Z</time>
      </trkpt>
      <trkpt lat="46.465425984933972" lon="9.18544203042984">
        <ele>1666.5799999999999</ele>
        <time>2025-05-20T09:03:35Z</time>
      </trkpt>
      <trkpt lat="46.465388014912605" lon="9.185449993237853">
        <ele>1666.0999999999999</ele>
        <time>2025-05-20T09:03:36Z</time>
      </trkpt>
      <trkpt lat="46.465372005477548" lon="9.185500033199787">
        <ele>1665.6199999999999</ele>
        <time>2025-05-20T09:03:37Z</time>
      </trkpt>
      <trkpt lat="46.465345015749335" lon="9.185583014041185">
        <ele>1665.1400000000001</ele>
        <time>2025-05-20T09:03:38Z</time>
      </trkpt>
      <trkpt lat="46.465314002707601" lon="9.1856789868325">
        <ele>1664.6600000000001</ele>
        <time>2025-05-20T09:03:39Z</time>
      </trkpt>
      <trkpt lat="46.465279972180724" lon="9.18578501790762">
        <ele>1663.7</ele>
        <time>2025-05-20T09:03:40Z</time>
      </trkpt>
      <trkpt lat="46.465242002159357" lon="9.185903035104275">
        <ele>1663.22</ele>
        <time>2025-05-20T09:03:41Z</time>
      </trkpt>
      <trkpt lat="46.46520403213799" lon="9.18602298013866">
        <ele>1662.26</ele>
        <time>2025-05-20T09:03:42Z</time>
      </trkpt>
      <trkpt lat="46.465142006054521" lon="9.186145020648837">
        <ele>1660.8099999999999</ele>
        <time>2025-05-20T09:03:43Z</time>
      </trkpt>
      <trkpt lat="46.465079979971051" lon="9.186258008703589">
        <ele>1660.3299999999999</ele>
        <time>2025-05-20T09:03:44Z</time>
      </trkpt>
      <trkpt lat="46.464658034965396" lon="9.187017995864153">
        <ele>1653.1199999999999</ele>
        <time>2025-05-20T09:03:51Z</time>
      </trkpt>
      <trkpt lat="46.464601960033178" lon="9.187107011675835">
        <ele>1652.1600000000001</ele>
        <time>2025-05-20T09:03:52Z</time>
      </trkpt>
      <trkpt lat="46.464368021115661" lon="9.187482018023729">
        <ele>1649.28</ele>
        <time>2025-05-20T09:03:56Z</time>
      </trkpt>
      <trkpt lat="46.464305995032191" lon="9.187559969723225">
        <ele>1647.8399999999999</ele>
        <time>2025-05-20T09:03:57Z</time>
      </trkpt>
      <trkpt lat="46.464236006140709" lon="9.187623001635075">
        <ele>1646.8800000000001</ele>
        <time>2025-05-20T09:03:58Z</time>
      </trkpt>
      <trkpt lat="46.464169034734368" lon="9.187683016061783">
        <ele>1645.9100000000001</ele>
        <time>2025-05-20T09:03:59Z</time>
      </trkpt>
      <trkpt lat="46.464107008650899" lon="9.187740013003349">
        <ele>1645.4300000000001</ele>
        <time>2025-05-20T09:04:00Z</time>
      </trkpt>
      <trkpt lat="46.464027967303991" lon="9.187749987468123">
        <ele>1644.47</ele>
        <time>2025-05-20T09:04:01Z</time>
      </trkpt>
      <trkpt lat="46.463946998119354" lon="9.187754010781646">
        <ele>1643.99</ele>
        <time>2025-05-20T09:04:02Z</time>
      </trkpt>
      <trkpt lat="46.463868962600827" lon="9.187758034095168">
        <ele>1643.51</ele>
        <time>2025-05-20T09:04:03Z</time>
      </trkpt>
      <trkpt lat="46.463588001206517" lon="9.187784017995">
        <ele>1641.1099999999999</ele>
        <time>2025-05-20T09:04:07Z</time>
      </trkpt>
      <trkpt lat="46.463535027578473" lon="9.187794998288155">
        <ele>1641.1099999999999</ele>
        <time>2025-05-20T09:04:08Z</time>
      </trkpt>
      <trkpt lat="46.46342296153307" lon="9.187693996354938">
        <ele>1640.6300000000001</ele>
        <time>2025-05-20T09:04:09Z</time>
      </trkpt>
      <trkpt lat="46.463398989289999" lon="9.187610009685159">
        <ele>1639.6700000000001</ele>
        <time>2025-05-20T09:04:10Z</time>
      </trkpt>
      <trkpt lat="46.463369987905025" lon="9.187508001923561">
        <ele>1639.1900000000001</ele>
        <time>2025-05-20T09:04:11Z</time>
      </trkpt>
      <trkpt lat="46.46333402954042" lon="9.18739995919168">
        <ele>1638.7</ele>
        <time>2025-05-20T09:04:12Z</time>
      </trkpt>
      <trkpt lat="46.463302010670304" lon="9.187288982793689">
        <ele>1638.22</ele>
        <time>2025-05-20T09:04:13Z</time>
      </trkpt>
      <trkpt lat="46.463292958214879" lon="9.187174988910556">
        <ele>1637.74</ele>
        <time>2025-05-20T09:04:14Z</time>
      </trkpt>
      <trkpt lat="46.463284995406866" lon="9.187081027776003">
        <ele>1637.26</ele>
        <time>2025-05-20T09:04:15Z</time>
      </trkpt>
      <trkpt lat="46.463327994570136" lon="9.186952030286193">
        <ele>1636.78</ele>
        <time>2025-05-20T09:04:16Z</time>
      </trkpt>
      <trkpt lat="46.463370993733406" lon="9.186823032796383">
        <ele>1636.3</ele>
        <time>2025-05-20T09:04:17Z</time>
      </trkpt>
      <trkpt lat="46.463428996503353" lon="9.186753965914249">
        <ele>1635.8199999999999</ele>
        <time>2025-05-20T09:04:18Z</time>
      </trkpt>
      <trkpt lat="46.4635060261935" lon="9.186663022264838">
        <ele>1635.8199999999999</ele>
        <time>2025-05-20T09:04:19Z</time>
      </trkpt>
      <trkpt lat="46.463583977892995" lon="9.186569983139634">
        <ele>1635.8199999999999</ele>
        <time>2025-05-20T09:04:20Z</time>
      </trkpt>
      <trkpt lat="46.463665030896664" lon="9.18647401034832">
        <ele>1635.3399999999999</ele>
        <time>2025-05-20T09:04:21Z</time>
      </trkpt>
      <trkpt lat="46.464207004755735" lon="9.186041001230478">
        <ele>1634.8599999999999</ele>
        <time>2025-05-20T09:04:26Z</time>
      </trkpt>
      <trkpt lat="46.464820979163051" lon="9.185569016262889">
        <ele>1634.8599999999999</ele>
        <time>2025-05-20T09:04:31Z</time>
      </trkpt>
      <trkpt lat="46.464932039380074" lon="9.18548502959311">
        <ele>1634.8599999999999</ele>
        <time>2025-05-20T09:04:32Z</time>
      </trkpt>
      <trkpt lat="46.465031029656529" lon="9.185409005731344">
        <ele>1634.8599999999999</ele>
        <time>2025-05-20T09:04:33Z</time>
      </trkpt>
      <trkpt lat="46.46887899376452" lon="9.184330003336072">
        <ele>1634.8599999999999</ele>
        <time>2025-05-20T09:05:03Z</time>
      </trkpt>
      <trkpt lat="46.484452988952398" lon="9.181221993640065">
        <ele>1634.8599999999999</ele>
        <time>2025-05-20T09:07:02Z</time>
      </trkpt>
      <trkpt lat="46.496735997498035" lon="9.181333975866437">
        <ele>1634.8599999999999</ele>
        <time>2025-05-20T09:08:35Z</time>
      </trkpt>
      <trkpt lat="46.503473035991192" lon="9.181450987234712">
        <ele>1634.8599999999999</ele>
        <time>2025-05-20T09:09:26Z</time>
      </trkpt>
      <trkpt lat="46.508307969197631" lon="9.182452037930489">
        <ele>1634.8599999999999</ele>
        <time>2025-05-20T09:10:03Z</time>
      </trkpt>
      <trkpt lat="46.510401014238596" lon="9.182942965999246">
        <ele>1612.75</ele>
        <time>2025-05-20T09:10:18Z</time>
      </trkpt>
      <trkpt lat="46.529008001089096" lon="9.191528968513012">
        <ele>1619</ele>
        <time>2025-05-20T09:10:29Z</time>
      </trkpt>
      <trkpt lat="46.529947025701404" lon="9.193649003282189">
        <ele>1622.8399999999999</ele>
        <time>2025-05-20T09:10:41Z</time>
      </trkpt>
      <trkpt lat="46.530319014564157" lon="9.1957569681108">
        <ele>1624.28</ele>
        <time>2025-05-20T09:10:50Z</time>
      </trkpt>
      <trkpt lat="46.530211977660656" lon="9.198589967563748">
        <ele>1621.8800000000001</ele>
        <time>2025-05-20T09:11:02Z</time>
      </trkpt>
      <trkpt lat="46.530376011505723" lon="9.201358007267118">
        <ele>1619</ele>
        <time>2025-05-20T09:11:12Z</time>
      </trkpt>
      <trkpt lat="46.530627971515059" lon="9.203564962372184">
        <ele>1614.6700000000001</ele>
        <time>2025-05-20T09:11:20Z</time>
      </trkpt>
      <trkpt lat="46.530915973708034" lon="9.2045640014112">
        <ele>1612.75</ele>
        <time>2025-05-20T09:11:24Z</time>
      </trkpt>
      <trkpt lat="46.531561966985464" lon="9.206152958795428">
        <ele>1606.5</ele>
        <time>2025-05-20T09:11:31Z</time>
      </trkpt>
      <trkpt lat="46.531593985855579" lon="9.206364015117288">
        <ele>1605.54</ele>
        <time>2025-05-20T09:11:32Z</time>
      </trkpt>
      <trkpt lat="46.531631033867598" lon="9.206607006490231">
        <ele>1604.5799999999999</ele>
        <time>2025-05-20T09:11:33Z</time>
      </trkpt>
      <trkpt lat="46.531667998060584" lon="9.206856032833457">
        <ele>1603.6199999999999</ele>
        <time>2025-05-20T09:11:34Z</time>
      </trkpt>
      <trkpt lat="46.531689036637545" lon="9.207082008942962">
        <ele>1602.6600000000001</ele>
        <time>2025-05-20T09:11:35Z</time>
      </trkpt>
      <trkpt lat="46.531675038859248" lon="9.207347966730595">
        <ele>1601.21</ele>
        <time>2025-05-20T09:11:36Z</time>
      </trkpt>
      <trkpt lat="46.531652994453907" lon="9.207616019994021">
        <ele>1600.25</ele>
        <time>2025-05-20T09:11:37Z</time>
      </trkpt>
      <trkpt lat="46.531627010554075" lon="9.207878038287163">
        <ele>1598.8099999999999</ele>
        <time>2025-05-20T09:11:38Z</time>
      </trkpt>
      <trkpt lat="46.531563978642225" lon="9.208141984418035">
        <ele>1597.3699999999999</ele>
        <time>2025-05-20T09:11:39Z</time>
      </trkpt>
      <trkpt lat="46.531500024721026" lon="9.20840903185308">
        <ele>1595.9300000000001</ele>
        <time>2025-05-20T09:11:40Z</time>
      </trkpt>
      <trkpt lat="46.531281005591154" lon="9.209476970136166">
        <ele>1591.1199999999999</ele>
        <time>2025-05-20T09:11:44Z</time>
      </trkpt>
      <trkpt lat="46.531274970620871" lon="9.209760027006269">
        <ele>1589.6800000000001</ele>
        <time>2025-05-20T09:11:45Z</time>
      </trkpt>
      <trkpt lat="46.531268013641238" lon="9.210049035027623">
        <ele>1588.72</ele>
        <time>2025-05-20T09:11:46Z</time>
      </trkpt>
      <trkpt lat="46.53127103112638" lon="9.210334019735456">
        <ele>1587.27</ele>
        <time>2025-05-20T09:11:47Z</time>
      </trkpt>
      <trkpt lat="46.531330961734056" lon="9.210611041635275">
        <ele>1586.3099999999999</ele>
        <time>2025-05-20T09:11:48Z</time>
      </trkpt>
      <trkpt lat="46.531392987817526" lon="9.210893008857966">
        <ele>1584.8699999999999</ele>
        <time>2025-05-20T09:11:49Z</time>
      </trkpt>
      <trkpt lat="46.531476974487305" lon="9.211162989959121">
        <ele>1583.9100000000001</ele>
        <time>2025-05-20T09:11:50Z</time>
      </trkpt>
      <trkpt lat="46.53157495893538" lon="9.211434982717037">
        <ele>1582.95</ele>
        <time>2025-05-20T09:11:51Z</time>
      </trkpt>
      <trkpt lat="46.53230301104486" lon="9.213628023862839">
        <ele>1575.26</ele>
        <time>2025-05-20T09:11:59Z</time>
      </trkpt>
      <trkpt lat="46.538540991023183" lon="9.229269996285439">
        <ele>1568.05</ele>
        <time>2025-05-20T09:12:49Z</time>
      </trkpt>
      <trkpt lat="46.538693038746715" lon="9.230043981224299">
        <ele>1568.05</ele>
        <time>2025-05-20T09:12:51Z</time>
      </trkpt>
      <trkpt lat="46.538730002939701" lon="9.23084101639688">
        <ele>1568.05</ele>
        <time>2025-05-20T09:12:53Z</time>
      </trkpt>
      <trkpt lat="46.538676023483276" lon="9.231641991063952">
        <ele>1568.05</ele>
        <time>2025-05-20T09:12:55Z</time>
      </trkpt>
      <trkpt lat="46.53862003237009" lon="9.232038035988808">
        <ele>1568.05</ele>
        <time>2025-05-20T09:12:56Z</time>
      </trkpt>
      <trkpt lat="46.53801703825593" lon="9.235563967376947">
        <ele>1568.05</ele>
        <time>2025-05-20T09:13:05Z</time>
      </trkpt>
      <trkpt lat="46.537961969152093" lon="9.23677196726203">
        <ele>1568.05</ele>
        <time>2025-05-20T09:13:08Z</time>
      </trkpt>
      <trkpt lat="46.538027012720704" lon="9.238787982612848">
        <ele>1568.05</ele>
        <time>2025-05-20T09:13:13Z</time>
      </trkpt>
      <trkpt lat="46.538621038198471" lon="9.232029989361763">
        <ele>1575.26</ele>
        <time>2025-05-20T09:13:14Z</time>
      </trkpt>
      <trkpt lat="46.538130026310682" lon="9.234726028516889">
        <ele>1571.8900000000001</ele>
        <time>2025-05-20T09:13:25Z</time>
      </trkpt>
      <trkpt lat="46.537969009950757" lon="9.237407986074686">
        <ele>1569.01</ele>
        <time>2025-05-20T09:13:35Z</time>
      </trkpt>
      <trkpt lat="46.538187023252249" lon="9.240125985816121">
        <ele>1563.72</ele>
        <time>2025-05-20T09:13:45Z</time>
      </trkpt>
      <trkpt lat="46.538407970219851" lon="9.242080980911851">
        <ele>1557.47</ele>
        <time>2025-05-20T09:13:53Z</time>
      </trkpt>
      <trkpt lat="46.538376035168767" lon="9.243360981345177">
        <ele>1561.8</ele>
        <time>2025-05-20T09:14:00Z</time>
      </trkpt>
      <trkpt lat="46.538370000198483" lon="9.243534989655018">
        <ele>1563.24</ele>
        <time>2025-05-20T09:14:03Z</time>
      </trkpt>
      <trkpt lat="46.538368994370103" lon="9.243562985211611">
        <ele>1564.2</ele>
        <time>2025-05-20T09:14:04Z</time>
      </trkpt>
      <trkpt lat="46.538307974115014" lon="9.243642026558518">
        <ele>1565.1600000000001</ele>
        <time>2025-05-20T09:14:05Z</time>
      </trkpt>
      <trkpt lat="46.538258017972112" lon="9.243621993809938">
        <ele>1568.53</ele>
        <time>2025-05-20T09:14:10Z</time>
      </trkpt>
      <trkpt lat="46.538258017972112" lon="9.243621993809938">
        <ele>1569.01</ele>
        <time>2025-05-20T09:14:11Z</time>
      </trkpt>
      <trkpt lat="46.538258017972112" lon="9.243621993809938">
        <ele>1569.49</ele>
        <time>2025-05-20T09:14:12Z</time>
      </trkpt>
      <trkpt lat="46.538293976336718" lon="9.243635991588235">
        <ele>1569.97</ele>
        <time>2025-05-20T09:14:13Z</time>
      </trkpt>
      <trkpt lat="46.538293976336718" lon="9.243635991588235">
        <ele>1571.8900000000001</ele>
        <time>2025-05-20T09:14:27Z</time>
      </trkpt>
      <trkpt lat="46.538293976336718" lon="9.243635991588235">
        <ele>1568.53</ele>
        <time>2025-05-20T09:15:15Z</time>
      </trkpt>
      <trkpt lat="46.538293976336718" lon="9.243635991588235">
        <ele>1568.53</ele>
        <time>2025-05-20T09:15:16Z</time>
      </trkpt>
      <trkpt lat="46.538293976336718" lon="9.243635991588235">
        <ele>1568.05</ele>
        <time>2025-05-20T09:16:04Z</time>
      </trkpt>
      <trkpt lat="46.538364971056581" lon="9.243664992973208">
        <ele>1568.05</ele>
        <time>2025-05-20T09:16:06Z</time>
      </trkpt>
      <trkpt lat="46.538364971056581" lon="9.243664992973208">
        <ele>1567.5699999999999</ele>
        <time>2025-05-20T09:16:07Z</time>
      </trkpt>
      <trkpt lat="46.538364971056581" lon="9.243664992973208">
        <ele>1567.5699999999999</ele>
        <time>2025-05-20T09:16:08Z</time>
      </trkpt>
      <trkpt lat="46.538381986320019" lon="9.24366700462997">
        <ele>1567.0899999999999</ele>
        <time>2025-05-20T09:16:10Z</time>
      </trkpt>
      <trkpt lat="46.538420040160418" lon="9.243673961609602">
        <ele>1567.0899999999999</ele>
        <time>2025-05-20T09:16:11Z</time>
      </trkpt>
      <trkpt lat="46.538468990474939" lon="9.243682008236647">
        <ele>1566.6099999999999</ele>
        <time>2025-05-20T09:16:12Z</time>
      </trkpt>
      <trkpt lat="46.539104003459215" lon="9.243546975776553">
        <ele>1565.6400000000001</ele>
        <time>2025-05-20T09:16:21Z</time>
      </trkpt>
      <trkpt lat="46.539185978472233" lon="9.243547981604934">
        <ele>1565.6400000000001</ele>
        <time>2025-05-20T09:16:22Z</time>
      </trkpt>
      <trkpt lat="46.539263008162379" lon="9.243567008525133">
        <ele>1566.1199999999999</ele>
        <time>2025-05-20T09:16:23Z</time>
      </trkpt>
      <trkpt lat="46.539332997053862" lon="9.243585029616952">
        <ele>1566.6099999999999</ele>
        <time>2025-05-20T09:16:24Z</time>
      </trkpt>
      <trkpt lat="46.539387982338667" lon="9.243599027395248">
        <ele>1567.0899999999999</ele>
        <time>2025-05-20T09:16:25Z</time>
      </trkpt>
      <trkpt lat="46.539429975673556" lon="9.243609001860023">
        <ele>1567.5699999999999</ele>
        <time>2025-05-20T09:16:26Z</time>
      </trkpt>
      <trkpt lat="46.539481021463871" lon="9.243621993809938">
        <ele>1568.53</ele>
        <time>2025-05-20T09:16:27Z</time>
      </trkpt>
      <trkpt lat="46.539481021463871" lon="9.24364797770977">
        <ele>1569.01</ele>
        <time>2025-05-20T09:16:28Z</time>
      </trkpt>
      <trkpt lat="46.539481021463871" lon="9.243716960772872">
        <ele>1569.97</ele>
        <time>2025-05-20T09:16:29Z</time>
      </trkpt>
      <trkpt lat="46.539481021463871" lon="9.24379700794816">
        <ele>1570.45</ele>
        <time>2025-05-20T09:16:30Z</time>
      </trkpt>
      <trkpt lat="46.539475992321968" lon="9.243894992396236">
        <ele>1570.9300000000001</ele>
        <time>2025-05-20T09:16:31Z</time>
      </trkpt>
      <trkpt lat="46.539339032024145" lon="9.244872992858291">
        <ele>1573.3299999999999</ele>
        <time>2025-05-20T09:16:40Z</time>
      </trkpt>
      <trkpt lat="46.539326962083578" lon="9.244955973699689">
        <ele>1573.3299999999999</ele>
        <time>2025-05-20T09:16:41Z</time>
      </trkpt>
      <trkpt lat="46.539315981790423" lon="9.245036020874977">
        <ele>1573.3299999999999</ele>
        <time>2025-05-20T09:16:42Z</time>
      </trkpt>
      <trkpt lat="46.539294021204114" lon="9.245653012767434">
        <ele>1573.3299999999999</ele>
        <time>2025-05-20T09:16:50Z</time>
      </trkpt>
      <trkpt lat="46.539318999275565" lon="9.246463961899281">
        <ele>1572.3699999999999</ele>
        <time>2025-05-20T09:16:58Z</time>
      </trkpt>
      <trkpt lat="46.539303995668888" lon="9.247119007632136">
        <ele>1570.45</ele>
        <time>2025-05-20T09:17:04Z</time>
      </trkpt>
      <trkpt lat="46.539253033697605" lon="9.247569032013416">
        <ele>1570.9300000000001</ele>
        <time>2025-05-20T09:17:08Z</time>
      </trkpt>
      <trkpt lat="46.53913602232933" lon="9.248247966170311">
        <ele>1572.3699999999999</ele>
        <time>2025-05-20T09:17:14Z</time>
      </trkpt>
      <trkpt lat="46.539090005680919" lon="9.248484000563622">
        <ele>1572.8499999999999</ele>
        <time>2025-05-20T09:17:16Z</time>
      </trkpt>
      <trkpt lat="46.538884984329343" lon="9.249782022088766">
        <ele>1566.1199999999999</ele>
        <time>2025-05-20T09:17:28Z</time>
      </trkpt>
      <trkpt lat="46.538874004036188" lon="9.249865002930164">
        <ele>1565.6400000000001</ele>
        <time>2025-05-20T09:17:29Z</time>
      </trkpt>
      <trkpt lat="46.538863023743033" lon="9.24994396045804">
        <ele>1565.1600000000001</ele>
        <time>2025-05-20T09:17:30Z</time>
      </trkpt>
      <trkpt lat="46.538852965459228" lon="9.250014033168554">
        <ele>1564.6800000000001</ele>
        <time>2025-05-20T09:17:31Z</time>
      </trkpt>
      <trkpt lat="46.538845002651215" lon="9.250077987089753">
        <ele>1564.6800000000001</ele>
        <time>2025-05-20T09:17:32Z</time>
      </trkpt>
      <trkpt lat="46.538837961852551" lon="9.250127021223307">
        <ele>1564.2</ele>
        <time>2025-05-20T09:17:33Z</time>
      </trkpt>
      <trkpt lat="46.53883402235806" lon="9.2501550167799">
        <ele>1563.72</ele>
        <time>2025-05-20T09:17:34Z</time>
      </trkpt>
      <trkpt lat="46.53883402235806" lon="9.2501550167799">
        <ele>1563.24</ele>
        <time>2025-05-20T09:17:47Z</time>
      </trkpt>
      <trkpt lat="46.53883402235806" lon="9.2501550167799">
        <ele>1563.24</ele>
        <time>2025-05-20T09:18:27Z</time>
      </trkpt>
      <trkpt lat="46.538831004872918" lon="9.250181000679731">
        <ele>1562.28</ele>
        <time>2025-05-20T09:19:08Z</time>
      </trkpt>
      <trkpt lat="46.538816001266241" lon="9.250286025926471">
        <ele>1561.3199999999999</ele>
        <time>2025-05-20T09:19:10Z</time>
      </trkpt>
      <trkpt lat="46.538908034563065" lon="9.251202000305057">
        <ele>1556.99</ele>
        <time>2025-05-20T09:19:16Z</time>
      </trkpt>
      <trkpt lat="46.539352023974061" lon="9.252483006566763">
        <ele>1553.1500000000001</ele>
        <time>2025-05-20T09:19:21Z</time>
      </trkpt>
      <trkpt lat="46.539697023108602" lon="9.253577012568712">
        <ele>1550.26</ele>
        <time>2025-05-20T09:19:25Z</time>
      </trkpt>
      <trkpt lat="46.539749996736646" lon="9.253857973963022">
        <ele>1549.78</ele>
        <time>2025-05-20T09:19:26Z</time>
      </trkpt>
      <trkpt lat="46.53980297036469" lon="9.254136001691222">
        <ele>1549.3</ele>
        <time>2025-05-20T09:19:27Z</time>
      </trkpt>
      <trkpt lat="46.539813028648496" lon="9.25443297252059">
        <ele>1548.8199999999999</ele>
        <time>2025-05-20T09:19:28Z</time>
      </trkpt>
      <trkpt lat="46.53982400894165" lon="9.25473103299737">
        <ele>1548.3399999999999</ele>
        <time>2025-05-20T09:19:29Z</time>
      </trkpt>
      <trkpt lat="46.539794001728296" lon="9.255028003826737">
        <ele>1547.8599999999999</ele>
        <time>2025-05-20T09:19:30Z</time>
      </trkpt>
      <trkpt lat="46.539758965373039" lon="9.255337966606021">
        <ele>1547.3800000000001</ele>
        <time>2025-05-20T09:19:31Z</time>
      </trkpt>
      <trkpt lat="46.539659975096583" lon="9.257403016090393">
        <ele>1541.6099999999999</ele>
        <time>2025-05-20T09:19:38Z</time>
      </trkpt>
      <trkpt lat="46.539699034765363" lon="9.257658999413252">
        <ele>1540.6500000000001</ele>
        <time>2025-05-20T09:19:39Z</time>
      </trkpt>
      <trkpt lat="46.539765000343323" lon="9.257902996614575">
        <ele>1538.73</ele>
        <time>2025-05-20T09:19:40Z</time>
      </trkpt>
      <trkpt lat="46.540436977520585" lon="9.260330982506275">
        <ele>1528.6300000000001</ele>
        <time>2025-05-20T09:19:49Z</time>
      </trkpt>
      <trkpt lat="46.541173998266459" lon="9.26360503770411">
        <ele>1523.3499999999999</ele>
        <time>2025-05-20T09:20:00Z</time>
      </trkpt>
      <trkpt lat="46.541351024061441" lon="9.264630982652307">
        <ele>1522.8699999999999</ele>
        <time>2025-05-20T09:20:04Z</time>
      </trkpt>
      <trkpt lat="46.541358986869454" lon="9.264904987066984">
        <ele>1522.8699999999999</ele>
        <time>2025-05-20T09:20:05Z</time>
      </trkpt>
      <trkpt lat="46.541369967162609" lon="9.267163993790746">
        <ele>1519.98</ele>
        <time>2025-05-20T09:20:12Z</time>
      </trkpt>
      <trkpt lat="46.54128598049283" lon="9.270500997081399">
        <ele>1514.6900000000001</ele>
        <time>2025-05-20T09:20:22Z</time>
      </trkpt>
      <trkpt lat="46.541317999362946" lon="9.273242969065905">
        <ele>1513.25</ele>
        <time>2025-05-20T09:20:31Z</time>
      </trkpt>
      <trkpt lat="46.541794007644057" lon="9.275669027119875">
        <ele>1509.8900000000001</ele>
        <time>2025-05-20T09:20:39Z</time>
      </trkpt>
      <trkpt lat="46.542544020339847" lon="9.278446035459638">
        <ele>1505.5599999999999</ele>
        <time>2025-05-20T09:20:49Z</time>
      </trkpt>
      <trkpt lat="46.543751014396548" lon="9.281345000490546">
        <ele>1501.24</ele>
        <time>2025-05-20T09:21:00Z</time>
      </trkpt>
      <trkpt lat="46.544415028765798" lon="9.283252973109484">
        <ele>1501.24</ele>
        <time>2025-05-20T09:21:07Z</time>
      </trkpt>
      <trkpt lat="46.545075019821525" lon="9.286116985604167">
        <ele>1498.8299999999999</ele>
        <time>2025-05-20T09:21:17Z</time>
      </trkpt>
      <trkpt lat="46.545327985659242" lon="9.287547022104263">
        <ele>1498.8299999999999</ele>
        <time>2025-05-20T09:21:24Z</time>
      </trkpt>
      <trkpt lat="46.545342989265919" lon="9.287656992673874">
        <ele>1498.3499999999999</ele>
        <time>2025-05-20T09:21:25Z</time>
      </trkpt>
      <trkpt lat="46.545354975387454" lon="9.287745002657175">
        <ele>1498.3499999999999</ele>
        <time>2025-05-20T09:21:26Z</time>
      </trkpt>
      <trkpt lat="46.545380037277937" lon="9.288015989586711">
        <ele>1496.9100000000001</ele>
        <time>2025-05-20T09:21:33Z</time>
      </trkpt>
      <trkpt lat="46.545380037277937" lon="9.288015989586711">
        <ele>1496.4300000000001</ele>
        <time>2025-05-20T09:21:46Z</time>
      </trkpt>
      <trkpt lat="46.545380037277937" lon="9.288015989586711">
        <ele>1496.4300000000001</ele>
        <time>2025-05-20T09:22:40Z</time>
      </trkpt>
      <trkpt lat="46.545380037277937" lon="9.288015989586711">
        <ele>1495.95</ele>
        <time>2025-05-20T09:23:33Z</time>
      </trkpt>
      <trkpt lat="46.545448014512658" lon="9.288084972649813">
        <ele>1467.1099999999999</ele>
        <time>2025-05-20T09:25:14Z</time>
      </trkpt>
      <trkpt lat="46.545370984822512" lon="9.288068963214755">
        <ele>1514.21</ele>
        <time>2025-05-20T09:25:39Z</time>
      </trkpt>
      <trkpt lat="46.545371990650892" lon="9.288091007620096">
        <ele>1512.77</ele>
        <time>2025-05-20T09:25:47Z</time>
      </trkpt>
      <trkpt lat="46.545374002307653" lon="9.28816300816834">
        <ele>1512.77</ele>
        <time>2025-05-20T09:25:49Z</time>
      </trkpt>
      <trkpt lat="46.545369978994131" lon="9.288263004273176">
        <ele>1512.77</ele>
        <time>2025-05-20T09:25:50Z</time>
      </trkpt>
      <trkpt lat="46.545237964019179" lon="9.289598995819688">
        <ele>1508.9300000000001</ele>
        <time>2025-05-20T09:25:59Z</time>
      </trkpt>
      <trkpt lat="46.544748963788152" lon="9.291906030848622">
        <ele>1505.5599999999999</ele>
        <time>2025-05-20T09:26:11Z</time>
      </trkpt>
      <trkpt lat="46.54461401514709" lon="9.292711028829217">
        <ele>1506.04</ele>
        <time>2025-05-20T09:26:15Z</time>
      </trkpt>
      <trkpt lat="46.544524999335408" lon="9.294841960072517">
        <ele>1504.1199999999999</ele>
        <time>2025-05-20T09:26:25Z</time>
      </trkpt>
      <trkpt lat="46.544554000720382" lon="9.295042036101222">
        <ele>1503.1600000000001</ele>
        <time>2025-05-20T09:26:26Z</time>
      </trkpt>
      <trkpt lat="46.544584007933736" lon="9.295241022482514">
        <ele>1502.2</ele>
        <time>2025-05-20T09:26:27Z</time>
      </trkpt>
      <trkpt lat="46.544632958248258" lon="9.295422993600369">
        <ele>1501.72</ele>
        <time>2025-05-20T09:26:28Z</time>
      </trkpt>
      <trkpt lat="46.544687021523714" lon="9.295609993860126">
        <ele>1501.24</ele>
        <time>2025-05-20T09:26:29Z</time>
      </trkpt>
      <trkpt lat="46.544874021783471" lon="9.29641398601234">
        <ele>1502.6800000000001</ele>
        <time>2025-05-20T09:26:33Z</time>
      </trkpt>
      <trkpt lat="46.545305019244552" lon="9.298362024128437">
        <ele>1498.3499999999999</ele>
        <time>2025-05-20T09:26:41Z</time>
      </trkpt>
      <trkpt lat="46.546487035229802" lon="9.301401972770691">
        <ele>1491.1400000000001</ele>
        <time>2025-05-20T09:26:53Z</time>
      </trkpt>
      <trkpt lat="46.54712799936533" lon="9.303565006703138">
        <ele>1485.8499999999999</ele>
        <time>2025-05-20T09:27:01Z</time>
      </trkpt>
      <trkpt lat="46.547252973541617" lon="9.305967008695006">
        <ele>1480.5699999999999</ele>
        <time>2025-05-20T09:27:09Z</time>
      </trkpt>
      <trkpt lat="46.547305025160313" lon="9.307022960856557">
        <ele>1477.6800000000001</ele>
        <time>2025-05-20T09:27:13Z</time>
      </trkpt>
      <trkpt lat="46.547373002395034" lon="9.307267963886261">
        <ele>1476.72</ele>
        <time>2025-05-20T09:27:14Z</time>
      </trkpt>
      <trkpt lat="46.54745003208518" lon="9.307515984401107">
        <ele>1476.24</ele>
        <time>2025-05-20T09:27:15Z</time>
      </trkpt>
      <trkpt lat="46.547544999048114" lon="9.307770039886236">
        <ele>1475.28</ele>
        <time>2025-05-20T09:27:16Z</time>
      </trkpt>
      <trkpt lat="46.54764499515295" lon="9.308035997673869">
        <ele>1474.8</ele>
        <time>2025-05-20T09:27:17Z</time>
      </trkpt>
      <trkpt lat="46.548947039991617" lon="9.311381969600916">
        <ele>1467.1099999999999</ele>
        <time>2025-05-20T09:27:29Z</time>
      </trkpt>
      <trkpt lat="46.549910036846995" lon="9.313825964927673">
        <ele>1463.74</ele>
        <time>2025-05-20T09:27:39Z</time>
      </trkpt>
      <trkpt lat="46.550517976284027" lon="9.31536303833127">
        <ele>1461.3399999999999</ele>
        <time>2025-05-20T09:27:48Z</time>
      </trkpt>
      <trkpt lat="46.550578996539116" lon="9.315508967265487">
        <ele>1461.3399999999999</ele>
        <time>2025-05-20T09:27:49Z</time>
      </trkpt>
      <trkpt lat="46.551265977323055" lon="9.317252989858389">
        <ele>1458.46</ele>
        <time>2025-05-20T09:28:02Z</time>
      </trkpt>
      <trkpt lat="46.551843993365765" lon="9.318752009421587">
        <ele>1456.05</ele>
        <time>2025-05-20T09:28:15Z</time>
      </trkpt>
      <trkpt lat="46.552284965291619" lon="9.319864036515355">
        <ele>1455.5699999999999</ele>
        <time>2025-05-20T09:28:26Z</time>
      </trkpt>
      <trkpt lat="46.552643040195107" lon="9.321239003911614">
        <ele>1454.6099999999999</ele>
        <time>2025-05-20T09:28:39Z</time>
      </trkpt>
      <trkpt lat="46.552753010764718" lon="9.321849038824439">
        <ele>1454.6099999999999</ele>
        <time>2025-05-20T09:28:45Z</time>
      </trkpt>
      <trkpt lat="46.552772037684917" lon="9.321955991908908">
        <ele>1454.6099999999999</ele>
        <time>2025-05-20T09:28:46Z</time>
      </trkpt>
      <trkpt lat="46.552786035463214" lon="9.322053976356983">
        <ele>1454.6099999999999</ele>
        <time>2025-05-20T09:28:47Z</time>
      </trkpt>
      <trkpt lat="46.552788969129324" lon="9.322152966633439">
        <ele>1454.6099999999999</ele>
        <time>2025-05-20T09:28:48Z</time>
      </trkpt>
      <trkpt lat="46.552792992442846" lon="9.32226000353694">
        <ele>1454.6099999999999</ele>
        <time>2025-05-20T09:28:49Z</time>
      </trkpt>
      <trkpt lat="46.552815958857536" lon="9.322961987927556">
        <ele>1454.1300000000001</ele>
        <time>2025-05-20T09:28:56Z</time>
      </trkpt>
      <trkpt lat="46.552817970514297" lon="9.323028037324548">
        <ele>1454.1300000000001</ele>
        <time>2025-05-20T09:28:57Z</time>
      </trkpt>
      <trkpt lat="46.552819982171059" lon="9.323086962103844">
        <ele>1453.6500000000001</ele>
        <time>2025-05-20T09:28:58Z</time>
      </trkpt>
      <trkpt lat="46.552820987999439" lon="9.323138007894158">
        <ele>1453.1700000000001</ele>
        <time>2025-05-20T09:28:59Z</time>
      </trkpt>
      <trkpt lat="46.55282199382782" lon="9.323177989572287">
        <ele>1452.6900000000001</ele>
        <time>2025-05-20T09:29:00Z</time>
      </trkpt>
      <trkpt lat="46.552824005484581" lon="9.323239009827375">
        <ele>1452.21</ele>
        <time>2025-05-20T09:29:05Z</time>
      </trkpt>
      <trkpt lat="46.552828028798103" lon="9.323359038680792">
        <ele>1451.73</ele>
        <time>2025-05-20T09:29:06Z</time>
      </trkpt>
      <trkpt lat="46.552841020748019" lon="9.323367001488805">
        <ele>1451.25</ele>
        <time>2025-05-20T09:29:07Z</time>
      </trkpt>
      <trkpt lat="46.552879996597767" lon="9.323392985388637">
        <ele>1450.77</ele>
        <time>2025-05-20T09:29:08Z</time>
      </trkpt>
      <trkpt lat="46.552919978275895" lon="9.323419975116849">
        <ele>1450.29</ele>
        <time>2025-05-20T09:29:09Z</time>
      </trkpt>
      <trkpt lat="46.552960965782404" lon="9.323446964845061">
        <ele>1449.8099999999999</ele>
        <time>2025-05-20T09:29:10Z</time>
      </trkpt>
      <trkpt lat="46.553002037107944" lon="9.323474038392305">
        <ele>1449.3199999999999</ele>
        <time>2025-05-20T09:29:11Z</time>
      </trkpt>
      <trkpt lat="46.553045036271214" lon="9.323503039777279">
        <ele>1448.8399999999999</ele>
        <time>2025-05-20T09:29:12Z</time>
      </trkpt>
      <trkpt lat="46.553085017949343" lon="9.323530029505491">
        <ele>1448.8399999999999</ele>
        <time>2025-05-20T09:29:13Z</time>
      </trkpt>
      <trkpt lat="46.553114019334316" lon="9.323595995083451">
        <ele>1448.3599999999999</ele>
        <time>2025-05-20T09:29:14Z</time>
      </trkpt>
      <trkpt lat="46.553175961598754" lon="9.323734967038035">
        <ele>1448.3599999999999</ele>
        <time>2025-05-20T09:29:16Z</time>
      </trkpt>
      <trkpt lat="46.553206974640489" lon="9.32380503974855">
        <ele>1448.3599999999999</ele>
        <time>2025-05-20T09:29:17Z</time>
      </trkpt>
      <trkpt lat="46.553237987682223" lon="9.323874022811651">
        <ele>1447.8800000000001</ele>
        <time>2025-05-20T09:29:18Z</time>
      </trkpt>
      <trkpt lat="46.553269000723958" lon="9.323948035016656">
        <ele>1447.4000000000001</ele>
        <time>2025-05-20T09:29:19Z</time>
      </trkpt>
      <trkpt lat="46.553301019594073" lon="9.324033027514815">
        <ele>1446.9200000000001</ele>
        <time>2025-05-20T09:29:20Z</time>
      </trkpt>
      <trkpt lat="46.553320968523622" lon="9.324088012799621">
        <ele>1446.4400000000001</ele>
        <time>2025-05-20T09:29:21Z</time>
      </trkpt>
      <trkpt lat="46.553360028192401" lon="9.324198989197612">
        <ele>1445.96</ele>
        <time>2025-05-20T09:29:22Z</time>
      </trkpt>
      <trkpt lat="46.553388023748994" lon="9.324279958382249">
        <ele>1445.48</ele>
        <time>2025-05-20T09:29:23Z</time>
      </trkpt>
      <trkpt lat="46.553417025133967" lon="9.324364028871059">
        <ele>1445</ele>
        <time>2025-05-20T09:29:24Z</time>
      </trkpt>
      <trkpt lat="46.553525989875197" lon="9.324692012742162">
        <ele>1444.04</ele>
        <time>2025-05-20T09:29:28Z</time>
      </trkpt>
      <trkpt lat="46.553549040108919" lon="9.324782034382224">
        <ele>1443.5599999999999</ele>
        <time>2025-05-20T09:29:29Z</time>
      </trkpt>
      <trkpt lat="46.553571000695229" lon="9.324871972203255">
        <ele>1443.0799999999999</ele>
        <time>2025-05-20T09:29:30Z</time>
      </trkpt>
      <trkpt lat="46.553593967109919" lon="9.324965011328459">
        <ele>1443.0799999999999</ele>
        <time>2025-05-20T09:29:31Z</time>
      </trkpt>
      <trkpt lat="46.553618023172021" lon="9.325057966634631">
        <ele>1443.0799999999999</ele>
        <time>2025-05-20T09:29:32Z</time>
      </trkpt>
      <trkpt lat="46.553640989586711" lon="9.325149999931455">
        <ele>1443.5599999999999</ele>
        <time>2025-05-20T09:29:33Z</time>
      </trkpt>
      <trkpt lat="46.553953969851136" lon="9.326466964557767">
        <ele>1442.1099999999999</ele>
        <time>2025-05-20T09:29:44Z</time>
      </trkpt>
      <trkpt lat="46.554374992847443" lon="9.328277036547661">
        <ele>1442.1099999999999</ele>
        <time>2025-05-20T09:29:54Z</time>
      </trkpt>
      <trkpt lat="46.554894000291824" lon="9.330371003597975">
        <ele>1440.6700000000001</ele>
        <time>2025-05-20T09:30:03Z</time>
      </trkpt>
      <trkpt lat="46.55522801913321" lon="9.331614961847663">
        <ele>1439.71</ele>
        <time>2025-05-20T09:30:11Z</time>
      </trkpt>
      <trkpt lat="46.555634960532188" lon="9.333311961963773">
        <ele>1438.75</ele>
        <time>2025-05-20T09:30:22Z</time>
      </trkpt>
      <trkpt lat="46.555688017979264" lon="9.333572974428535">
        <ele>1438.75</ele>
        <time>2025-05-20T09:30:24Z</time>
      </trkpt>
      <trkpt lat="46.555729005485773" lon="9.333771038800478">
        <ele>1438.27</ele>
        <time>2025-05-20T09:30:26Z</time>
      </trkpt>
      <trkpt lat="46.55574400909245" lon="9.333848990499973">
        <ele>1438.27</ele>
        <time>2025-05-20T09:30:27Z</time>
      </trkpt>
      <trkpt lat="46.555758006870747" lon="9.333915039896965">
        <ele>1437.79</ele>
        <time>2025-05-20T09:30:28Z</time>
      </trkpt>
      <trkpt lat="46.555777033790946" lon="9.334010006859899">
        <ele>1436.8299999999999</ele>
        <time>2025-05-20T09:30:36Z</time>
      </trkpt>
      <trkpt lat="46.555792037397623" lon="9.334085024893284">
        <ele>1436.3499999999999</ele>
        <time>2025-05-20T09:30:49Z</time>
      </trkpt>
      <trkpt lat="46.555833024904132" lon="9.334285017102957">
        <ele>1436.3499999999999</ele>
        <time>2025-05-20T09:30:53Z</time>
      </trkpt>
      <trkpt lat="46.555994041264057" lon="9.335078028962016">
        <ele>1436.3499999999999</ele>
        <time>2025-05-20T09:31:00Z</time>
      </trkpt>
      <trkpt lat="46.556429984048009" lon="9.336608983576298">
        <ele>1438.75</ele>
        <time>2025-05-20T09:31:08Z</time>
      </trkpt>
      <trkpt lat="46.557093998417258" lon="9.338020998984575">
        <ele>1444.04</ele>
        <time>2025-05-20T09:31:16Z</time>
      </trkpt>
      <trkpt lat="46.557177985087037" lon="9.338156031444669">
        <ele>1444.52</ele>
        <time>2025-05-20T09:31:17Z</time>
      </trkpt>
      <trkpt lat="46.557476967573166" lon="9.338464988395572">
        <ele>1444.04</ele>
        <time>2025-05-20T09:31:20Z</time>
      </trkpt>
      <trkpt lat="46.557619962841272" lon="9.338531959801912">
        <ele>1444.04</ele>
        <time>2025-05-20T09:31:21Z</time>
      </trkpt>
      <trkpt lat="46.557772010564804" lon="9.338539000600576">
        <ele>1443.0799999999999</ele>
        <time>2025-05-20T09:31:22Z</time>
      </trkpt>
      <trkpt lat="46.558465026319027" lon="9.338707979768515">
        <ele>1437.79</ele>
        <time>2025-05-20T09:31:26Z</time>
      </trkpt>
      <trkpt lat="46.558640962466598" lon="9.33880596421659">
        <ele>1436.8299999999999</ele>
        <time>2025-05-20T09:31:27Z</time>
      </trkpt>
      <trkpt lat="46.558793010190129" lon="9.338958011940122">
        <ele>1435.8699999999999</ele>
        <time>2025-05-20T09:31:28Z</time>
      </trkpt>
      <trkpt lat="46.558942962437868" lon="9.339108970016241">
        <ele>1434.9100000000001</ele>
        <time>2025-05-20T09:31:29Z</time>
      </trkpt>
      <trkpt lat="46.559057040140033" lon="9.339287001639605">
        <ele>1434.9100000000001</ele>
        <time>2025-05-20T09:31:30Z</time>
      </trkpt>
      <trkpt lat="46.559155024588108" lon="9.339517001062632">
        <ele>1434.9100000000001</ele>
        <time>2025-05-20T09:31:31Z</time>
      </trkpt>
      <trkpt lat="46.559239011257887" lon="9.339754041284323">
        <ele>1434.9100000000001</ele>
        <time>2025-05-20T09:31:32Z</time>
      </trkpt>
      <trkpt lat="46.559322997927666" lon="9.339992003515363">
        <ele>1434.9100000000001</ele>
        <time>2025-05-20T09:31:33Z</time>
      </trkpt>
      <trkpt lat="46.55967503786087" lon="9.340986013412476">
        <ele>1434.4200000000001</ele>
        <time>2025-05-20T09:31:38Z</time>
      </trkpt>
      <trkpt lat="46.559693980962038" lon="9.341147029772401">
        <ele>1434.4200000000001</ele>
        <time>2025-05-20T09:31:39Z</time>
      </trkpt>
      <trkpt lat="46.559660034254193" lon="9.341302011162043">
        <ele>1434.4200000000001</ele>
        <time>2025-05-20T09:31:40Z</time>
      </trkpt>
      <trkpt lat="46.559593984857202" lon="9.34159797616303">
        <ele>1434.4200000000001</ele>
        <time>2025-05-20T09:31:42Z</time>
      </trkpt>
      <trkpt lat="46.559565989300609" lon="9.341725967824459">
        <ele>1434.4200000000001</ele>
        <time>2025-05-20T09:31:43Z</time>
      </trkpt>
      <trkpt lat="46.559598008170724" lon="9.341873992234469">
        <ele>1434.9100000000001</ele>
        <time>2025-05-20T09:31:44Z</time>
      </trkpt>
      <trkpt lat="46.559657016769052" lon="9.342034002766013">
        <ele>1435.3900000000001</ele>
        <time>2025-05-20T09:31:45Z</time>
      </trkpt>
      <trkpt lat="46.559725999832153" lon="9.342198958620429">
        <ele>1435.8699999999999</ele>
        <time>2025-05-20T09:31:46Z</time>
      </trkpt>
      <trkpt lat="46.559914005920291" lon="9.342741016298533">
        <ele>1436.8299999999999</ele>
        <time>2025-05-20T09:31:49Z</time>
      </trkpt>
      <trkpt lat="46.560002015903592" lon="9.343238985165954">
        <ele>1437.3099999999999</ele>
        <time>2025-05-20T09:31:52Z</time>
      </trkpt>
      <trkpt lat="46.56002196483314" lon="9.343353984877467">
        <ele>1437.3099999999999</ele>
        <time>2025-05-20T09:31:53Z</time>
      </trkpt>
      <trkpt lat="46.560030011460185" lon="9.343464961275458">
        <ele>1437.3099999999999</ele>
        <time>2025-05-20T09:31:54Z</time>
      </trkpt>
      <trkpt lat="46.559921968728304" lon="9.343752963468432">
        <ele>1436.8299999999999</ele>
        <time>2025-05-20T09:31:57Z</time>
      </trkpt>
      <trkpt lat="46.559865977615118" lon="9.343894030898809">
        <ele>1436.8299999999999</ele>
        <time>2025-05-20T09:31:58Z</time>
      </trkpt>
      <trkpt lat="46.559874024242163" lon="9.344020010903478">
        <ele>1436.8299999999999</ele>
        <time>2025-05-20T09:31:59Z</time>
      </trkpt>
      <trkpt lat="46.559901013970375" lon="9.344151020050049">
        <ele>1437.3099999999999</ele>
        <time>2025-05-20T09:32:00Z</time>
      </trkpt>
      <trkpt lat="46.55993303284049" lon="9.344306001439691">
        <ele>1437.79</ele>
        <time>2025-05-20T09:32:01Z</time>
      </trkpt>
      <trkpt lat="46.560334023088217" lon="9.346013981848955">
        <ele>1442.1099999999999</ele>
        <time>2025-05-20T09:32:10Z</time>
      </trkpt>
      <trkpt lat="46.560823023319244" lon="9.347937041893601">
        <ele>1442.1099999999999</ele>
        <time>2025-05-20T09:32:19Z</time>
      </trkpt>
      <trkpt lat="46.560894018039107" lon="9.348105015233159">
        <ele>1441.6300000000001</ele>
        <time>2025-05-20T09:32:20Z</time>
      </trkpt>
      <trkpt lat="46.560960989445448" lon="9.348265025764704">
        <ele>1441.1500000000001</ele>
        <time>2025-05-20T09:32:21Z</time>
      </trkpt>
      <trkpt lat="46.561041958630085" lon="9.348409026861191">
        <ele>1440.1900000000001</ele>
        <time>2025-05-20T09:32:22Z</time>
      </trkpt>
      <trkpt lat="46.56111697666347" lon="9.348526038229466">
        <ele>1439.23</ele>
        <time>2025-05-20T09:32:23Z</time>
      </trkpt>
      <trkpt lat="46.561185959726572" lon="9.348633997142315">
        <ele>1438.75</ele>
        <time>2025-05-20T09:32:24Z</time>
      </trkpt>
      <trkpt lat="46.561257038265467" lon="9.348745979368687">
        <ele>1437.79</ele>
        <time>2025-05-20T09:32:25Z</time>
      </trkpt>
      <trkpt lat="46.56133197247982" lon="9.348863996565342">
        <ele>1437.3099999999999</ele>
        <time>2025-05-20T09:32:26Z</time>
      </trkpt>
      <trkpt lat="46.561431968584657" lon="9.349021995440126">
        <ele>1436.8299999999999</ele>
        <time>2025-05-20T09:32:27Z</time>
      </trkpt>
      <trkpt lat="46.561475973576307" lon="9.349194997921586">
        <ele>1436.3499999999999</ele>
        <time>2025-05-20T09:32:28Z</time>
      </trkpt>
      <trkpt lat="46.561664985492826" lon="9.350095968693495">
        <ele>1432.5</ele>
        <time>2025-05-20T09:32:32Z</time>
      </trkpt>
      <trkpt lat="46.561755007132888" lon="9.35085603967309">
        <ele>1428.1800000000001</ele>
        <time>2025-05-20T09:32:35Z</time>
      </trkpt>
      <trkpt lat="46.561904959380627" lon="9.351504966616631">
        <ele>1423.3699999999999</ele>
        <time>2025-05-20T09:32:38Z</time>
      </trkpt>
      <trkpt lat="46.561967991292477" lon="9.351708982139826">
        <ele>1421.9300000000001</ele>
        <time>2025-05-20T09:32:39Z</time>
      </trkpt>
      <trkpt lat="46.562030017375946" lon="9.351909980177879">
        <ele>1420</ele>
        <time>2025-05-20T09:32:40Z</time>
      </trkpt>
      <trkpt lat="46.562091037631035" lon="9.352107960730791">
        <ele>1418.5599999999999</ele>
        <time>2025-05-20T09:32:41Z</time>
      </trkpt>
      <trkpt lat="46.562177035957575" lon="9.352299990132451">
        <ele>1417.1199999999999</ele>
        <time>2025-05-20T09:32:42Z</time>
      </trkpt>
      <trkpt lat="46.562282983213663" lon="9.352483972907066">
        <ele>1415.6800000000001</ele>
        <time>2025-05-20T09:32:43Z</time>
      </trkpt>
      <trkpt lat="46.562391025945544" lon="9.352665022015572">
        <ele>1414.24</ele>
        <time>2025-05-20T09:32:44Z</time>
      </trkpt>
      <trkpt lat="46.562614990398288" lon="9.352912958711386">
        <ele>1410.8699999999999</ele>
        <time>2025-05-20T09:32:46Z</time>
      </trkpt>
      <trkpt lat="46.562701994553208" lon="9.353010021150112">
        <ele>1409.4300000000001</ele>
        <time>2025-05-20T09:32:47Z</time>
      </trkpt>
      <trkpt lat="46.562788998708129" lon="9.353077998384833">
        <ele>1408.47</ele>
        <time>2025-05-20T09:32:48Z</time>
      </trkpt>
      <trkpt lat="46.562895029783249" lon="9.35307296924293">
        <ele>1407.51</ele>
        <time>2025-05-20T09:32:49Z</time>
      </trkpt>
      <trkpt lat="46.562954960390925" lon="9.353000968694687">
        <ele>1406.0699999999999</ele>
        <time>2025-05-20T09:32:50Z</time>
      </trkpt>
      <trkpt lat="46.563016986474395" lon="9.35287800617516">
        <ele>1405.0999999999999</ele>
        <time>2025-05-20T09:32:51Z</time>
      </trkpt>
      <trkpt lat="46.563052022829652" lon="9.352745991200209">
        <ele>1403.6600000000001</ele>
        <time>2025-05-20T09:32:52Z</time>
      </trkpt>
      <trkpt lat="46.563086975365877" lon="9.352610036730766">
        <ele>1402.22</ele>
        <time>2025-05-20T09:32:53Z</time>
      </trkpt>
      <trkpt lat="46.563125029206276" lon="9.352466035634279">
        <ele>1401.26</ele>
        <time>2025-05-20T09:32:54Z</time>
      </trkpt>
      <trkpt lat="46.563203986734152" lon="9.352369979023933">
        <ele>1399.8199999999999</ele>
        <time>2025-05-20T09:32:55Z</time>
      </trkpt>
      <trkpt lat="46.563299037516117" lon="9.352265037596226">
        <ele>1398.3699999999999</ele>
        <time>2025-05-20T09:32:56Z</time>
      </trkpt>
      <trkpt lat="46.563404984772205" lon="9.352200999855995">
        <ele>1397.4100000000001</ele>
        <time>2025-05-20T09:32:57Z</time>
      </trkpt>
      <trkpt lat="46.563528031110764" lon="9.352142997086048">
        <ele>1396.45</ele>
        <time>2025-05-20T09:32:58Z</time>
      </trkpt>
      <trkpt lat="46.563645964488387" lon="9.352088011801243">
        <ele>1395.01</ele>
        <time>2025-05-20T09:32:59Z</time>
      </trkpt>
      <trkpt lat="46.563742021098733" lon="9.352084994316101">
        <ele>1394.53</ele>
        <time>2025-05-20T09:33:00Z</time>
      </trkpt>
      <trkpt lat="46.563835982233286" lon="9.352111984044313">
        <ele>1394.05</ele>
        <time>2025-05-20T09:33:01Z</time>
      </trkpt>
      <trkpt lat="46.563943019136786" lon="9.352240981534123">
        <ele>1393.0899999999999</ele>
        <time>2025-05-20T09:33:02Z</time>
      </trkpt>
      <trkpt lat="46.563998004421592" lon="9.352343995124102">
        <ele>1392.1300000000001</ele>
        <time>2025-05-20T09:33:03Z</time>
      </trkpt>
      <trkpt lat="46.564079979434609" lon="9.352499982342124">
        <ele>1392.1300000000001</ele>
        <time>2025-05-20T09:33:04Z</time>
      </trkpt>
      <trkpt lat="46.564887994900346" lon="9.353765984997153">
        <ele>1387.3199999999999</ele>
        <time>2025-05-20T09:33:12Z</time>
      </trkpt>
      <trkpt lat="46.564980028197169" lon="9.353961031883955">
        <ele>1386.3599999999999</ele>
        <time>2025-05-20T09:33:13Z</time>
      </trkpt>
      <trkpt lat="46.565076000988483" lon="9.35416404157877">
        <ele>1384.9200000000001</ele>
        <time>2025-05-20T09:33:14Z</time>
      </trkpt>
      <trkpt lat="46.565139032900333" lon="9.354394963011146">
        <ele>1384.4400000000001</ele>
        <time>2025-05-20T09:33:15Z</time>
      </trkpt>
      <trkpt lat="46.565203992649913" lon="9.354641977697611">
        <ele>1383.96</ele>
        <time>2025-05-20T09:33:16Z</time>
      </trkpt>
      <trkpt lat="46.565267024561763" lon="9.354882035404444">
        <ele>1383.96</ele>
        <time>2025-05-20T09:33:17Z</time>
      </trkpt>
      <trkpt lat="46.56532502733171" lon="9.355102982372046">
        <ele>1383.47</ele>
        <time>2025-05-20T09:33:18Z</time>
      </trkpt>
      <trkpt lat="46.565381018444896" lon="9.355315966531634">
        <ele>1383.47</ele>
        <time>2025-05-20T09:33:19Z</time>
      </trkpt>
      <trkpt lat="46.565483026206493" lon="9.355527022853494">
        <ele>1382.99</ele>
        <time>2025-05-20T09:33:20Z</time>
      </trkpt>
      <trkpt lat="46.565699027851224" lon="9.355878978967667">
        <ele>1381.0699999999999</ele>
        <time>2025-05-20T09:33:22Z</time>
      </trkpt>
      <trkpt lat="46.565796006470919" lon="9.35603697784245">
        <ele>1380.5899999999999</ele>
        <time>2025-05-20T09:33:23Z</time>
      </trkpt>
      <trkpt lat="46.565825007855892" lon="9.356245016679168">
        <ele>1379.6300000000001</ele>
        <time>2025-05-20T09:33:24Z</time>
      </trkpt>
      <trkpt lat="46.565830959007144" lon="9.356462024152279">
        <ele>1379.1500000000001</ele>
        <time>2025-05-20T09:33:25Z</time>
      </trkpt>
      <trkpt lat="46.565830959007144" lon="9.356706021353602">
        <ele>1379.6300000000001</ele>
        <time>2025-05-20T09:33:26Z</time>
      </trkpt>
      <trkpt lat="46.565830959007144" lon="9.356978014111519">
        <ele>1379.6300000000001</ele>
        <time>2025-05-20T09:33:27Z</time>
      </trkpt>
      <trkpt lat="46.565867001190782" lon="9.357270961627364">
        <ele>1380.1099999999999</ele>
        <time>2025-05-20T09:33:28Z</time>
      </trkpt>
      <trkpt lat="46.565914023667574" lon="9.357567010447383">
        <ele>1380.1099999999999</ele>
        <time>2025-05-20T09:33:29Z</time>
      </trkpt>
      <trkpt lat="46.565960962325335" lon="9.357864987105131">
        <ele>1380.1099999999999</ele>
        <time>2025-05-20T09:33:30Z</time>
      </trkpt>
      <trkpt lat="46.566033968701959" lon="9.358160030096769">
        <ele>1379.6300000000001</ele>
        <time>2025-05-20T09:33:31Z</time>
      </trkpt>
      <trkpt lat="46.56612298451364" lon="9.358449038118124">
        <ele>1379.1500000000001</ele>
        <time>2025-05-20T09:33:32Z</time>
      </trkpt>
      <trkpt lat="46.566213006153703" lon="9.358739973977208">
        <ele>1379.1500000000001</ele>
        <time>2025-05-20T09:33:33Z</time>
      </trkpt>
      <trkpt lat="46.566316019743681" lon="9.359026970341802">
        <ele>1378.6700000000001</ele>
        <time>2025-05-20T09:33:34Z</time>
      </trkpt>
      <trkpt lat="46.566432025283575" lon="9.359303992241621">
        <ele>1378.6700000000001</ele>
        <time>2025-05-20T09:33:35Z</time>
      </trkpt>
      <trkpt lat="46.56723802909255" lon="9.361550007015467">
        <ele>1380.5899999999999</ele>
        <time>2025-05-20T09:33:43Z</time>
      </trkpt>
      <trkpt lat="46.567685035988688" lon="9.364545028656721">
        <ele>1382.51</ele>
        <time>2025-05-20T09:33:53Z</time>
      </trkpt>
      <trkpt lat="46.567898020148277" lon="9.36566099524498">
        <ele>1383.47</ele>
        <time>2025-05-20T09:33:57Z</time>
      </trkpt>
      <trkpt lat="46.567976977676153" lon="9.365913039073348">
        <ele>1383.47</ele>
        <time>2025-05-20T09:33:58Z</time>
      </trkpt>
      <trkpt lat="46.56805501319468" lon="9.366159969940782">
        <ele>1383.96</ele>
        <time>2025-05-20T09:33:59Z</time>
      </trkpt>
      <trkpt lat="46.568152997642756" lon="9.366377983242273">
        <ele>1384.4400000000001</ele>
        <time>2025-05-20T09:34:00Z</time>
      </trkpt>
      <trkpt lat="46.568261040374637" lon="9.366574035957456">
        <ele>1384.9200000000001</ele>
        <time>2025-05-20T09:34:01Z</time>
      </trkpt>
      <trkpt lat="46.568926982581615" lon="9.36757399700582">
        <ele>1391.1700000000001</ele>
        <time>2025-05-20T09:34:08Z</time>
      </trkpt>
      <trkpt lat="46.568985991179943" lon="9.367647003382444">
        <ele>1392.1300000000001</ele>
        <time>2025-05-20T09:34:09Z</time>
      </trkpt>
      <trkpt lat="46.569014992564917" lon="9.367734007537365">
        <ele>1392.6099999999999</ele>
        <time>2025-05-20T09:34:10Z</time>
      </trkpt>
      <trkpt lat="46.56904399394989" lon="9.367869962006807">
        <ele>1393.0899999999999</ele>
        <time>2025-05-20T09:34:11Z</time>
      </trkpt>
      <trkpt lat="46.569019015878439" lon="9.367993008345366">
        <ele>1393.5699999999999</ele>
        <time>2025-05-20T09:34:12Z</time>
      </trkpt>
      <trkpt lat="46.568995965644717" lon="9.368118988350034">
        <ele>1394.05</ele>
        <time>2025-05-20T09:34:13Z</time>
      </trkpt>
      <trkpt lat="46.568976016715169" lon="9.368241028860211">
        <ele>1394.53</ele>
        <time>2025-05-20T09:34:14Z</time>
      </trkpt>
      <trkpt lat="46.569004012271762" lon="9.368363991379738">
        <ele>1394.53</ele>
        <time>2025-05-20T09:34:15Z</time>
      </trkpt>
      <trkpt lat="46.569078024476767" lon="9.368457030504942">
        <ele>1395.01</ele>
        <time>2025-05-20T09:34:16Z</time>
      </trkpt>
      <trkpt lat="46.569159999489784" lon="9.368560966104269">
        <ele>1395.01</ele>
        <time>2025-05-20T09:34:17Z</time>
      </trkpt>
      <trkpt lat="46.569249015301466" lon="9.368674037978053">
        <ele>1394.53</ele>
        <time>2025-05-20T09:34:18Z</time>
      </trkpt>
      <trkpt lat="46.569346999749541" lon="9.36879800632596">
        <ele>1394.53</ele>
        <time>2025-05-20T09:34:19Z</time>
      </trkpt>
      <trkpt lat="46.569454036653042" lon="9.368933960795403">
        <ele>1394.05</ele>
        <time>2025-05-20T09:34:20Z</time>
      </trkpt>
      <trkpt lat="46.569942031055689" lon="9.369534021243453">
        <ele>1392.6099999999999</ele>
        <time>2025-05-20T09:34:24Z</time>
      </trkpt>
      <trkpt lat="46.570101035758853" lon="9.369728984311223">
        <ele>1392.1300000000001</ele>
        <time>2025-05-20T09:34:25Z</time>
      </trkpt>
      <trkpt lat="46.570184016600251" lon="9.369948003441095">
        <ele>1392.1300000000001</ele>
        <time>2025-05-20T09:34:26Z</time>
      </trkpt>
      <trkpt lat="46.570769995450974" lon="9.371967958286405">
        <ele>1391.1700000000001</ele>
        <time>2025-05-20T09:34:33Z</time>
      </trkpt>
      <trkpt lat="46.571214990690351" lon="9.375494979321957">
        <ele>1392.6099999999999</ele>
        <time>2025-05-20T09:34:44Z</time>
      </trkpt>
      <trkpt lat="46.571221025660634" lon="9.378108959645033">
        <ele>1393.5699999999999</ele>
        <time>2025-05-20T09:34:52Z</time>
      </trkpt>
      <trkpt lat="46.570820035412908" lon="9.38033795915544">
        <ele>1394.53</ele>
        <time>2025-05-20T09:34:59Z</time>
      </trkpt>
      <trkpt lat="46.570737976580858" lon="9.380622021853924">
        <ele>1394.53</ele>
        <time>2025-05-20T09:35:00Z</time>
      </trkpt>
      <trkpt lat="46.570618031546474" lon="9.380860989913344">
        <ele>1394.53</ele>
        <time>2025-05-20T09:35:01Z</time>
      </trkpt>
      <trkpt lat="46.570501020178199" lon="9.381096018478274">
        <ele>1394.53</ele>
        <time>2025-05-20T09:35:02Z</time>
      </trkpt>
      <trkpt lat="46.570362970232964" lon="9.381310008466244">
        <ele>1394.05</ele>
        <time>2025-05-20T09:35:03Z</time>
      </trkpt>
      <trkpt lat="46.570213017985225" lon="9.381498014554381">
        <ele>1393.5699999999999</ele>
        <time>2025-05-20T09:35:04Z</time>
      </trkpt>
      <trkpt lat="46.57003004103899" lon="9.381640003994107">
        <ele>1393.5699999999999</ele>
        <time>2025-05-20T09:35:05Z</time>
      </trkpt>
      <trkpt lat="46.569847986102104" lon="9.381766989827156">
        <ele>1393.0899999999999</ele>
        <time>2025-05-20T09:35:06Z</time>
      </trkpt>
      <trkpt lat="46.569641958922148" lon="9.381862040609121">
        <ele>1392.6099999999999</ele>
        <time>2025-05-20T09:35:07Z</time>
      </trkpt>
      <trkpt lat="46.569437021389604" lon="9.381917025893927">
        <ele>1392.1300000000001</ele>
        <time>2025-05-20T09:35:08Z</time>
      </trkpt>
      <trkpt lat="46.569230994209647" lon="9.381972011178732">
        <ele>1391.1700000000001</ele>
        <time>2025-05-20T09:35:09Z</time>
      </trkpt>
      <trkpt lat="46.56700300052762" lon="9.382560001686215">
        <ele>1377.71</ele>
        <time>2025-05-20T09:35:20Z</time>
      </trkpt>
      <trkpt lat="46.566622965037823" lon="9.382728980854154">
        <ele>1375.78</ele>
        <time>2025-05-20T09:35:22Z</time>
      </trkpt>
      <trkpt lat="46.566440993919969" lon="9.382854038849473">
        <ele>1374.8199999999999</ele>
        <time>2025-05-20T09:35:23Z</time>
      </trkpt>
      <trkpt lat="46.566279977560043" lon="9.383026035502553">
        <ele>1373.3800000000001</ele>
        <time>2025-05-20T09:35:24Z</time>
      </trkpt>
      <trkpt lat="46.566133964806795" lon="9.383228039368987">
        <ele>1371.9400000000001</ele>
        <time>2025-05-20T09:35:25Z</time>
      </trkpt>
      <trkpt lat="46.565980995073915" lon="9.383440017700195">
        <ele>1370.98</ele>
        <time>2025-05-20T09:35:26Z</time>
      </trkpt>
      <trkpt lat="46.565870018675923" lon="9.383714022114873">
        <ele>1369.05</ele>
        <time>2025-05-20T09:35:27Z</time>
      </trkpt>
      <trkpt lat="46.565762981772423" lon="9.383976040408015">
        <ele>1367.6099999999999</ele>
        <time>2025-05-20T09:35:28Z</time>
      </trkpt>
      <trkpt lat="46.565693998709321" lon="9.384275022894144">
        <ele>1366.1700000000001</ele>
        <time>2025-05-20T09:35:29Z</time>
      </trkpt>
      <trkpt lat="46.565668014809489" lon="9.384585991501808">
        <ele>1364.73</ele>
        <time>2025-05-20T09:35:30Z</time>
      </trkpt>
      <trkpt lat="46.565652005374432" lon="9.384893020614982">
        <ele>1363.77</ele>
        <time>2025-05-20T09:35:31Z</time>
      </trkpt>
      <trkpt lat="46.565643036738038" lon="9.385207006707788">
        <ele>1362.3299999999999</ele>
        <time>2025-05-20T09:35:32Z</time>
      </trkpt>
      <trkpt lat="46.565674971789122" lon="9.385508000850678">
        <ele>1360.4000000000001</ele>
        <time>2025-05-20T09:35:33Z</time>
      </trkpt>
      <trkpt lat="46.565754013136029" lon="9.385791979730129">
        <ele>1358.96</ele>
        <time>2025-05-20T09:35:34Z</time>
      </trkpt>
      <trkpt lat="46.565840011462569" lon="9.386058021336794">
        <ele>1357.04</ele>
        <time>2025-05-20T09:35:35Z</time>
      </trkpt>
      <trkpt lat="46.56594998203218" lon="9.386294977739453">
        <ele>1355.5999999999999</ele>
        <time>2025-05-20T09:35:36Z</time>
      </trkpt>
      <trkpt lat="46.566076967865229" lon="9.386511985212565">
        <ele>1353.6700000000001</ele>
        <time>2025-05-20T09:35:37Z</time>
      </trkpt>
      <trkpt lat="46.566209988668561" lon="9.386720024049282">
        <ele>1352.23</ele>
        <time>2025-05-20T09:35:38Z</time>
      </trkpt>
      <trkpt lat="46.566366981714964" lon="9.386895960196853">
        <ele>1350.3099999999999</ele>
        <time>2025-05-20T09:35:39Z</time>
      </trkpt>
      <trkpt lat="46.566526992246509" lon="9.387074997648597">
        <ele>1348.8699999999999</ele>
        <time>2025-05-20T09:35:40Z</time>
      </trkpt>
      <trkpt lat="46.567143984138966" lon="9.387809000909329">
        <ele>1342.6199999999999</ele>
        <time>2025-05-20T09:35:44Z</time>
      </trkpt>
      <trkpt lat="46.567272981628776" lon="9.388014022260904">
        <ele>1341.1800000000001</ele>
        <time>2025-05-20T09:35:45Z</time>
      </trkpt>
      <trkpt lat="46.567406002432108" lon="9.388224994763732">
        <ele>1339.25</ele>
        <time>2025-05-20T09:35:46Z</time>
      </trkpt>
      <trkpt lat="46.567541034892201" lon="9.38843697309494">
        <ele>1337.3299999999999</ele>
        <time>2025-05-20T09:35:47Z</time>
      </trkpt>
      <trkpt lat="46.567642036825418" lon="9.388711983337998">
        <ele>1335.8900000000001</ele>
        <time>2025-05-20T09:35:48Z</time>
      </trkpt>
      <trkpt lat="46.567727029323578" lon="9.388980958610773">
        <ele>1334.45</ele>
        <time>2025-05-20T09:35:49Z</time>
      </trkpt>
      <trkpt lat="46.567812021821737" lon="9.38925001770258">
        <ele>1333.01</ele>
        <time>2025-05-20T09:35:50Z</time>
      </trkpt>
      <trkpt lat="46.567853009328246" lon="9.389555035158992">
        <ele>1331.5599999999999</ele>
        <time>2025-05-20T09:35:51Z</time>
      </trkpt>
      <trkpt lat="46.56788201071322" lon="9.389855023473501">
        <ele>1329.6400000000001</ele>
        <time>2025-05-20T09:35:52Z</time>
      </trkpt>
      <trkpt lat="46.567913023754954" lon="9.390161968767643">
        <ele>1328.2</ele>
        <time>2025-05-20T09:35:53Z</time>
      </trkpt>
      <trkpt lat="46.567913023754954" lon="9.390468997880817">
        <ele>1326.76</ele>
        <time>2025-05-20T09:35:54Z</time>
      </trkpt>
      <trkpt lat="46.567879999056458" lon="9.390773009508848">
        <ele>1325.3099999999999</ele>
        <time>2025-05-20T09:35:55Z</time>
      </trkpt>
      <trkpt lat="46.567834988236427" lon="9.391070986166596">
        <ele>1323.3900000000001</ele>
        <time>2025-05-20T09:35:56Z</time>
      </trkpt>
      <trkpt lat="46.567788971588016" lon="9.391370974481106">
        <ele>1322.4300000000001</ele>
        <time>2025-05-20T09:35:57Z</time>
      </trkpt>
      <trkpt lat="46.56771001406014" lon="9.391649002209306">
        <ele>1320.99</ele>
        <time>2025-05-20T09:35:58Z</time>
      </trkpt>
      <trkpt lat="46.567628961056471" lon="9.391922000795603">
        <ele>1319.55</ele>
        <time>2025-05-20T09:35:59Z</time>
      </trkpt>
      <trkpt lat="46.567547991871834" lon="9.3921949993819">
        <ele>1318.0999999999999</ele>
        <time>2025-05-20T09:36:00Z</time>
      </trkpt>
      <trkpt lat="46.56745201908052" lon="9.392459029331803">
        <ele>1317.1400000000001</ele>
        <time>2025-05-20T09:36:01Z</time>
      </trkpt>
      <trkpt lat="46.566327000036836" lon="9.395563015714288">
        <ele>1301.76</ele>
        <time>2025-05-20T09:36:13Z</time>
      </trkpt>
      <trkpt lat="46.566123990342021" lon="9.397550029680133">
        <ele>1293.5899999999999</ele>
        <time>2025-05-20T09:36:20Z</time>
      </trkpt>
      <trkpt lat="46.56588401645422" lon="9.398901024833322">
        <ele>1287.8199999999999</ele>
        <time>2025-05-20T09:36:25Z</time>
      </trkpt>
      <trkpt lat="46.565855015069246" lon="9.399145022034645">
        <ele>1286.3800000000001</ele>
        <time>2025-05-20T09:36:26Z</time>
      </trkpt>
      <trkpt lat="46.565840011462569" lon="9.399398993700743">
        <ele>1285.4200000000001</ele>
        <time>2025-05-20T09:36:27Z</time>
      </trkpt>
      <trkpt lat="46.565826013684273" lon="9.39964902587235">
        <ele>1284.46</ele>
        <time>2025-05-20T09:36:28Z</time>
      </trkpt>
      <trkpt lat="46.56661500222981" lon="9.404069976881146">
        <ele>1284.46</ele>
        <time>2025-05-20T09:36:47Z</time>
      </trkpt>
      <trkpt lat="46.566777024418116" lon="9.404215989634395">
        <ele>1285.4200000000001</ele>
        <time>2025-05-20T09:36:48Z</time>
      </trkpt>
      <trkpt lat="46.56738898716867" lon="9.404739020392299">
        <ele>1285.9000000000001</ele>
        <time>2025-05-20T09:36:50Z</time>
      </trkpt>
      <trkpt lat="46.568056019023061" lon="9.405312007293105">
        <ele>1285.4200000000001</ele>
        <time>2025-05-20T09:36:54Z</time>
      </trkpt>
      <trkpt lat="46.568218963220716" lon="9.405438993126154">
        <ele>1284.9400000000001</ele>
        <time>2025-05-20T09:36:55Z</time>
      </trkpt>
      <trkpt lat="46.571353040635586" lon="9.412956973537803">
        <ele>1284.9400000000001</ele>
        <time>2025-05-20T09:37:27Z</time>
      </trkpt>
      <trkpt lat="46.571971960365772" lon="9.41471197642386">
        <ele>1284.9400000000001</ele>
        <time>2025-05-20T09:37:34Z</time>
      </trkpt>
      <trkpt lat="46.572221992537379" lon="9.415143979713321">
        <ele>1284.9400000000001</ele>
        <time>2025-05-20T09:37:36Z</time>
      </trkpt>
      <trkpt lat="46.572521980851889" lon="9.415502976626158">
        <ele>1284.9400000000001</ele>
        <time>2025-05-20T09:37:38Z</time>
      </trkpt>
      <trkpt lat="46.573021961376071" lon="9.415932968258858">
        <ele>1284.9400000000001</ele>
        <time>2025-05-20T09:37:41Z</time>
      </trkpt>
      <trkpt lat="46.573946988210082" lon="9.416243014857173">
        <ele>1284.9400000000001</ele>
        <time>2025-05-20T09:37:46Z</time>
      </trkpt>
      <trkpt lat="46.575132021680474" lon="9.416305040940642">
        <ele>1233.51</ele>
        <time>2025-05-20T09:37:54Z</time>
      </trkpt>
      <trkpt lat="46.575326984748244" lon="9.416396990418434">
        <ele>1227.74</ele>
        <time>2025-05-20T09:37:55Z</time>
      </trkpt>
      <trkpt lat="46.57550903968513" lon="9.416506038978696">
        <ele>1224.3800000000001</ele>
        <time>2025-05-20T09:37:56Z</time>
      </trkpt>
      <trkpt lat="46.575690004974604" lon="9.416615003719926">
        <ele>1221.01</ele>
        <time>2025-05-20T09:37:57Z</time>
      </trkpt>
      <trkpt lat="46.575864013284445" lon="9.416732015088201">
        <ele>1219.0899999999999</ele>
        <time>2025-05-20T09:37:58Z</time>
      </trkpt>
      <trkpt lat="46.576026035472751" lon="9.416888002306223">
        <ele>1216.21</ele>
        <time>2025-05-20T09:37:59Z</time>
      </trkpt>
      <trkpt lat="46.576709998771548" lon="9.417471969500184">
        <ele>1211.4000000000001</ele>
        <time>2025-05-20T09:38:03Z</time>
      </trkpt>
      <trkpt lat="46.576855005696416" lon="9.417540030553937">
        <ele>1210.9200000000001</ele>
        <time>2025-05-20T09:38:04Z</time>
      </trkpt>
      <trkpt lat="46.577118029817939" lon="9.417665004730225">
        <ele>1209.96</ele>
        <time>2025-05-20T09:38:05Z</time>
      </trkpt>
      <trkpt lat="46.577221965417266" lon="9.417694006115198">
        <ele>1209</ele>
        <time>2025-05-20T09:38:06Z</time>
      </trkpt>
      <trkpt lat="46.577396979555488" lon="9.417742034420371">
        <ele>1208.03</ele>
        <time>2025-05-20T09:38:07Z</time>
      </trkpt>
      <trkpt lat="46.577599989250302" lon="9.417797019705176">
        <ele>1207.0699999999999</ele>
        <time>2025-05-20T09:38:08Z</time>
      </trkpt>
      <trkpt lat="46.578284036368132" lon="9.418156016618013">
        <ele>1205.6300000000001</ele>
        <time>2025-05-20T09:38:11Z</time>
      </trkpt>
      <trkpt lat="46.580033004283905" lon="9.420835040509701">
        <ele>1203.23</ele>
        <time>2025-05-20T09:38:26Z</time>
      </trkpt>
      <trkpt lat="46.579810967668891" lon="9.421928962692618">
        <ele>1202.27</ele>
        <time>2025-05-20T09:38:29Z</time>
      </trkpt>
      <trkpt lat="46.579842986539006" lon="9.422474959865212">
        <ele>1202.27</ele>
        <time>2025-05-20T09:38:31Z</time>
      </trkpt>
      <trkpt lat="46.579810967668891" lon="9.422729015350342">
        <ele>1202.27</ele>
        <time>2025-05-20T09:38:32Z</time>
      </trkpt>
      <trkpt lat="46.579736033454537" lon="9.423286998644471">
        <ele>1202.27</ele>
        <time>2025-05-20T09:38:34Z</time>
      </trkpt>
      <trkpt lat="46.579650035127997" lon="9.423566032201052">
        <ele>1202.27</ele>
        <time>2025-05-20T09:38:35Z</time>
      </trkpt>
      <trkpt lat="46.579402014613152" lon="9.424129966646433">
        <ele>1202.27</ele>
        <time>2025-05-20T09:38:38Z</time>
      </trkpt>
      <trkpt lat="46.578586036339402" lon="9.425635021179915">
        <ele>1199.8599999999999</ele>
        <time>2025-05-20T09:38:45Z</time>
      </trkpt>
      <trkpt lat="46.578513029962778" lon="9.4258620031178">
        <ele>1199.3800000000001</ele>
        <time>2025-05-20T09:38:46Z</time>
      </trkpt>
      <trkpt lat="46.578478999435902" lon="9.426117986440659">
        <ele>1199.3800000000001</ele>
        <time>2025-05-20T09:38:47Z</time>
      </trkpt>
      <trkpt lat="46.578445974737406" lon="9.426362989470363">
        <ele>1199.3800000000001</ele>
        <time>2025-05-20T09:38:48Z</time>
      </trkpt>
      <trkpt lat="46.578439017757773" lon="9.426611009985209">
        <ele>1198.4200000000001</ele>
        <time>2025-05-20T09:38:49Z</time>
      </trkpt>
      <trkpt lat="46.578467013314366" lon="9.426855007186532">
        <ele>1197.9400000000001</ele>
        <time>2025-05-20T09:38:50Z</time>
      </trkpt>
      <trkpt lat="46.578490985557437" lon="9.427063968032599">
        <ele>1197.46</ele>
        <time>2025-05-20T09:38:51Z</time>
      </trkpt>
      <trkpt lat="46.578593999147415" lon="9.427303019911051">
        <ele>1197.46</ele>
        <time>2025-05-20T09:38:52Z</time>
      </trkpt>
      <trkpt lat="46.578686032444239" lon="9.42751700989902">
        <ele>1196.98</ele>
        <time>2025-05-20T09:38:53Z</time>
      </trkpt>
      <trkpt lat="46.578791979700327" lon="9.427698981016874">
        <ele>1196.98</ele>
        <time>2025-05-20T09:38:54Z</time>
      </trkpt>
      <trkpt lat="46.578940004110336" lon="9.427819009870291">
        <ele>1196.98</ele>
        <time>2025-05-20T09:38:55Z</time>
      </trkpt>
      <trkpt lat="46.579087022691965" lon="9.427938032895327">
        <ele>1196.98</ele>
        <time>2025-05-20T09:38:56Z</time>
      </trkpt>
      <trkpt lat="46.57922800630331" lon="9.428035011515021">
        <ele>1196.98</ele>
        <time>2025-05-20T09:38:57Z</time>
      </trkpt>
      <trkpt lat="46.579387011006474" lon="9.428068036213517">
        <ele>1196.98</ele>
        <time>2025-05-20T09:38:58Z</time>
      </trkpt>
      <trkpt lat="46.579544004052877" lon="9.428100977092981">
        <ele>1196.98</ele>
        <time>2025-05-20T09:38:59Z</time>
      </trkpt>
      <trkpt lat="46.57970099709928" lon="9.428134001791477">
        <ele>1196.98</ele>
        <time>2025-05-20T09:39:00Z</time>
      </trkpt>
      <trkpt lat="46.583821037784219" lon="9.427185002714396">
        <ele>1197.46</ele>
        <time>2025-05-20T09:39:34Z</time>
      </trkpt>
      <trkpt lat="46.58938997425139" lon="9.426558036357164">
        <ele>1196.98</ele>
        <time>2025-05-20T09:39:52Z</time>
      </trkpt>
      <trkpt lat="46.589568005874753" lon="9.42670002579689">
        <ele>1196.98</ele>
        <time>2025-05-20T09:39:53Z</time>
      </trkpt>
      <trkpt lat="46.589788030833006" lon="9.426910998299718">
        <ele>1144.1099999999999</ele>
        <time>2025-05-20T09:39:54Z</time>
      </trkpt>
      <trkpt lat="46.590563021600246" lon="9.427593033760786">
        <ele>1084.5</ele>
        <time>2025-05-20T09:39:59Z</time>
      </trkpt>
      <trkpt lat="46.590909026563168" lon="9.427789002656937">
        <ele>1074.8900000000001</ele>
        <time>2025-05-20T09:40:01Z</time>
      </trkpt>
      <trkpt lat="46.591106001287699" lon="9.427852034568787">
        <ele>1072.49</ele>
        <time>2025-05-20T09:40:02Z</time>
      </trkpt>
      <trkpt lat="46.591305993497372" lon="9.427915988489986">
        <ele>1071.53</ele>
        <time>2025-05-20T09:40:03Z</time>
      </trkpt>
      <trkpt lat="46.591510009020567" lon="9.427900984883308">
        <ele>1070.0799999999999</ele>
        <time>2025-05-20T09:40:04Z</time>
      </trkpt>
      <trkpt lat="46.591719975695014" lon="9.427878018468618">
        <ele>1069.1199999999999</ele>
        <time>2025-05-20T09:40:05Z</time>
      </trkpt>
      <trkpt lat="46.591923991218209" lon="9.427850022912026">
        <ele>1066.72</ele>
        <time>2025-05-20T09:40:06Z</time>
      </trkpt>
      <trkpt lat="46.592125995084643" lon="9.427778022363782">
        <ele>1065.28</ele>
        <time>2025-05-20T09:40:07Z</time>
      </trkpt>
      <trkpt lat="46.592321963980794" lon="9.427670985460281">
        <ele>1062.3900000000001</ele>
        <time>2025-05-20T09:40:08Z</time>
      </trkpt>
      <trkpt lat="46.592511981725693" lon="9.427543999627233">
        <ele>1060.47</ele>
        <time>2025-05-20T09:40:09Z</time>
      </trkpt>
      <trkpt lat="46.592705016955733" lon="9.427415002137423">
        <ele>1058.55</ele>
        <time>2025-05-20T09:40:10Z</time>
      </trkpt>
      <trkpt lat="46.593288984149694" lon="9.427106967195869">
        <ele>1053.26</ele>
        <time>2025-05-20T09:40:13Z</time>
      </trkpt>
      <trkpt lat="46.593485958874226" lon="9.427018035203219">
        <ele>1051.8199999999999</ele>
        <time>2025-05-20T09:40:14Z</time>
      </trkpt>
      <trkpt lat="46.59368603490293" lon="9.426986016333103">
        <ele>1049.9000000000001</ele>
        <time>2025-05-20T09:40:15Z</time>
      </trkpt>
      <trkpt lat="46.593882003799081" lon="9.42700101993978">
        <ele>1048.45</ele>
        <time>2025-05-20T09:40:16Z</time>
      </trkpt>
      <trkpt lat="46.594078978523612" lon="9.427016023546457">
        <ele>1047.49</ele>
        <time>2025-05-20T09:40:17Z</time>
      </trkpt>
      <trkpt lat="46.594276959076524" lon="9.427103027701378">
        <ele>1047.01</ele>
        <time>2025-05-20T09:40:18Z</time>
      </trkpt>
      <trkpt lat="46.594475023448467" lon="9.427217021584511">
        <ele>1045.5699999999999</ele>
        <time>2025-05-20T09:40:19Z</time>
      </trkpt>
      <trkpt lat="46.594692030921578" lon="9.427343001589179">
        <ele>1044.1300000000001</ele>
        <time>2025-05-20T09:40:20Z</time>
      </trkpt>
      <trkpt lat="46.59486897289753" lon="9.427483985200524">
        <ele>1042.6900000000001</ele>
        <time>2025-05-20T09:40:21Z</time>
      </trkpt>
      <trkpt lat="46.595052033662796" lon="9.42766604013741">
        <ele>1041.25</ele>
        <time>2025-05-20T09:40:22Z</time>
      </trkpt>
      <trkpt lat="46.597279021516442" lon="9.429775010794401">
        <ele>1017.6900000000001</ele>
        <time>2025-05-20T09:40:34Z</time>
      </trkpt>
      <trkpt lat="46.599239967763424" lon="9.431020980700851">
        <ele>1002.79</ele>
        <time>2025-05-20T09:40:44Z</time>
      </trkpt>
      <trkpt lat="46.600397005677223" lon="9.43108300678432">
        <ele>1000.87</ele>
        <time>2025-05-20T09:40:49Z</time>
      </trkpt>
      <trkpt lat="46.601845985278487" lon="9.430545978248119">
        <ele>1002.3099999999999</ele>
        <time>2025-05-20T09:40:55Z</time>
      </trkpt>
      <trkpt lat="46.602084031328559" lon="9.430452017113566">
        <ele>1002.79</ele>
        <time>2025-05-20T09:40:56Z</time>
      </trkpt>
      <trkpt lat="46.603867029771209" lon="9.430257976055145">
        <ele>1003.27</ele>
        <time>2025-05-20T09:41:03Z</time>
      </trkpt>
      <trkpt lat="46.605583978816867" lon="9.430917967110872">
        <ele>1000.87</ele>
        <time>2025-05-20T09:41:10Z</time>
      </trkpt>
      <trkpt lat="46.60687998868525" lon="9.432018008083105">
        <ele>1000.39</ele>
        <time>2025-05-20T09:41:16Z</time>
      </trkpt>
      <trkpt lat="46.608528038486838" lon="9.433527002111077">
        <ele>997.01999999999998</ele>
        <time>2025-05-20T09:41:24Z</time>
      </trkpt>
      <trkpt lat="46.609952962026" lon="9.43400502204895">
        <ele>996.05999999999995</ele>
        <time>2025-05-20T09:41:30Z</time>
      </trkpt>
      <trkpt lat="46.61141199991107" lon="9.433761024847627">
        <ele>996.53999999999996</ele>
        <time>2025-05-20T09:41:36Z</time>
      </trkpt>
      <trkpt lat="46.61373102106154" lon="9.432941023260355">
        <ele>992.70000000000005</ele>
        <time>2025-05-20T09:41:46Z</time>
      </trkpt>
      <trkpt lat="46.615172037854791" lon="9.432956026867032">
        <ele>987.40999999999997</ele>
        <time>2025-05-20T09:41:52Z</time>
      </trkpt>
      <trkpt lat="46.617284025996923" lon="9.433280993252993">
        <ele>977.32000000000005</ele>
        <time>2025-05-20T09:42:01Z</time>
      </trkpt>
      <trkpt lat="46.61942501552403" lon="9.432955021038652">
        <ele>969.63</ele>
        <time>2025-05-20T09:42:10Z</time>
      </trkpt>
      <trkpt lat="46.620815992355347" lon="9.433375960215926">
        <ele>961.94000000000005</ele>
        <time>2025-05-20T09:42:16Z</time>
      </trkpt>
      <trkpt lat="46.622376032173634" lon="9.43426301702857">
        <ele>953.76999999999998</ele>
        <time>2025-05-20T09:42:23Z</time>
      </trkpt>
      <trkpt lat="46.624253997579217" lon="9.434698959812522">
        <ele>945.11000000000001</ele>
        <time>2025-05-20T09:42:31Z</time>
      </trkpt>
      <trkpt lat="46.625771960243583" lon="9.435684001073241">
        <ele>938.86000000000001</ele>
        <time>2025-05-20T09:42:38Z</time>
      </trkpt>
      <trkpt lat="46.628744015470147" lon="9.437942001968622">
        <ele>935.01999999999998</ele>
        <time>2025-05-20T09:42:52Z</time>
      </trkpt>
      <trkpt lat="46.630594991147518" lon="9.438592018559575">
        <ele>934.53999999999996</ele>
        <time>2025-05-20T09:43:00Z</time>
      </trkpt>
      <trkpt lat="46.632243962958455" lon="9.438480958342552">
        <ele>934.05999999999995</ele>
        <time>2025-05-20T09:43:07Z</time>
      </trkpt>
      <trkpt lat="46.634145984426141" lon="9.438242996111512">
        <ele>935.01999999999998</ele>
        <time>2025-05-20T09:43:15Z</time>
      </trkpt>
      <trkpt lat="46.635528998449445" lon="9.438772983849049">
        <ele>933.58000000000004</ele>
        <time>2025-05-20T09:43:21Z</time>
      </trkpt>
      <trkpt lat="46.637176964432001" lon="9.440154992043972">
        <ele>928.76999999999998</ele>
        <time>2025-05-20T09:43:29Z</time>
      </trkpt>
      <trkpt lat="46.638543969020247" lon="9.440681962296367">
        <ele>923.96000000000004</ele>
        <time>2025-05-20T09:43:35Z</time>
      </trkpt>
      <trkpt lat="46.64043802767992" lon="9.441039031371474">
        <ele>917.72000000000003</ele>
        <time>2025-05-20T09:43:43Z</time>
      </trkpt>
      <trkpt lat="46.641674023121595" lon="9.442029017955065">
        <ele>914.83000000000004</ele>
        <time>2025-05-20T09:43:49Z</time>
      </trkpt>
      <trkpt lat="46.642160005867481" lon="9.442779030650854">
        <ele>913.38999999999999</ele>
        <time>2025-05-20T09:43:52Z</time>
      </trkpt>
      <trkpt lat="46.64230995811522" lon="9.443051023408771">
        <ele>912.90999999999997</ele>
        <time>2025-05-20T09:43:53Z</time>
      </trkpt>
      <trkpt lat="46.643503038212657" lon="9.44565100595355">
        <ele>908.10000000000002</ele>
        <time>2025-05-20T09:44:02Z</time>
      </trkpt>
      <trkpt lat="46.644745990633965" lon="9.447265025228262">
        <ele>906.17999999999995</ele>
        <time>2025-05-20T09:44:09Z</time>
      </trkpt>
      <trkpt lat="46.64536097086966" lon="9.447724018245935">
        <ele>906.65999999999997</ele>
        <time>2025-05-20T09:44:12Z</time>
      </trkpt>
      <trkpt lat="46.649861969053745" lon="9.449272993952036">
        <ele>909.53999999999996</ele>
        <time>2025-05-20T09:44:36Z</time>
      </trkpt>
      <trkpt lat="46.651170970872045" lon="9.450393989682198">
        <ele>910.50999999999999</ele>
        <time>2025-05-20T09:44:45Z</time>
      </trkpt>
      <trkpt lat="46.652199011296034" lon="9.451182978227735">
        <ele>911.95000000000005</ele>
        <time>2025-05-20T09:44:52Z</time>
      </trkpt>
      <trkpt lat="46.653681015595794" lon="9.451771974563599">
        <ele>909.53999999999996</ele>
        <time>2025-05-20T09:45:01Z</time>
      </trkpt>
      <trkpt lat="46.654031965881586" lon="9.451915975660086">
        <ele>909.05999999999995</ele>
        <time>2025-05-20T09:45:03Z</time>
      </trkpt>
      <trkpt lat="46.654198011383414" lon="9.451980013400316">
        <ele>909.05999999999995</ele>
        <time>2025-05-20T09:45:04Z</time>
      </trkpt>
      <trkpt lat="46.6572190169245" lon="9.449588991701603">
        <ele>930.21000000000004</ele>
        <time>2025-05-20T09:45:29Z</time>
      </trkpt>
      <trkpt lat="46.657300991937518" lon="9.449367038905621">
        <ele>931.64999999999998</ele>
        <time>2025-05-20T09:45:30Z</time>
      </trkpt>
      <trkpt lat="46.657395036891103" lon="9.449141984805465">
        <ele>930.21000000000004</ele>
        <time>2025-05-20T09:45:31Z</time>
      </trkpt>
      <trkpt lat="46.657510958611965" lon="9.448942998424172">
        <ele>928.76999999999998</ele>
        <time>2025-05-20T09:45:32Z</time>
      </trkpt>
      <trkpt lat="46.657634004950523" lon="9.448782987892628">
        <ele>926.85000000000002</ele>
        <time>2025-05-20T09:45:33Z</time>
      </trkpt>
      <trkpt lat="46.657773982733488" lon="9.44865700788796">
        <ele>925.40999999999997</ele>
        <time>2025-05-20T09:45:34Z</time>
      </trkpt>
      <trkpt lat="46.657924018800259" lon="9.448542008176446">
        <ele>924.45000000000005</ele>
        <time>2025-05-20T09:45:35Z</time>
      </trkpt>
      <trkpt lat="46.65812099352479" lon="9.448392977938056">
        <ele>923</ele>
        <time>2025-05-20T09:45:36Z</time>
      </trkpt>
      <trkpt lat="46.658258037641644" lon="9.448363976553083">
        <ele>921.55999999999995</ele>
        <time>2025-05-20T09:45:37Z</time>
      </trkpt>
      <trkpt lat="46.658417964354157" lon="9.448330029845238">
        <ele>920.12</ele>
        <time>2025-05-20T09:45:38Z</time>
      </trkpt>
      <trkpt lat="46.658581998199224" lon="9.448295999318361">
        <ele>918.20000000000005</ele>
        <time>2025-05-20T09:45:39Z</time>
      </trkpt>
      <trkpt lat="46.659756973385811" lon="9.447980001568794">
        <ele>911.47000000000003</ele>
        <time>2025-05-20T09:45:46Z</time>
      </trkpt>
      <trkpt lat="46.659964006394148" lon="9.447855027392507">
        <ele>910.99000000000001</ele>
        <time>2025-05-20T09:45:47Z</time>
      </trkpt>
      <trkpt lat="46.660138014703989" lon="9.447748996317387">
        <ele>910.02999999999997</ele>
        <time>2025-05-20T09:45:48Z</time>
      </trkpt>
      <trkpt lat="46.666913023218513" lon="9.449268970638514">
        <ele>909.05999999999995</ele>
        <time>2025-05-20T09:46:20Z</time>
      </trkpt>
      <trkpt lat="46.668043993413448" lon="9.450041027739644">
        <ele>909.05999999999995</ele>
        <time>2025-05-20T09:46:25Z</time>
      </trkpt>
      <trkpt lat="46.668286984786391" lon="9.450091989710927">
        <ele>909.05999999999995</ele>
        <time>2025-05-20T09:46:26Z</time>
      </trkpt>
      <trkpt lat="46.669541001319885" lon="9.450085032731295">
        <ele>909.05999999999995</ele>
        <time>2025-05-20T09:46:31Z</time>
      </trkpt>
      <trkpt lat="46.6702810395509" lon="9.449894009158015">
        <ele>909.05999999999995</ele>
        <time>2025-05-20T09:46:34Z</time>
      </trkpt>
      <trkpt lat="46.671008002012968" lon="9.449606006965041">
        <ele>909.05999999999995</ele>
        <time>2025-05-20T09:46:37Z</time>
      </trkpt>
      <trkpt lat="46.673575965687633" lon="9.448136994615197">
        <ele>909.05999999999995</ele>
        <time>2025-05-20T09:46:48Z</time>
      </trkpt>
      <trkpt lat="46.674058008939028" lon="9.447937002405524">
        <ele>859.55999999999995</ele>
        <time>2025-05-20T09:46:50Z</time>
      </trkpt>
      <trkpt lat="46.668932978063822" lon="9.450116967782378">
        <ele>859.55999999999995</ele>
        <time>2025-05-20T09:46:53Z</time>
      </trkpt>
      <trkpt lat="46.670365026220679" lon="9.449865007773042">
        <ele>869.16999999999996</ele>
        <time>2025-05-20T09:47:02Z</time>
      </trkpt>
      <trkpt lat="46.670525958761573" lon="9.449810022488236">
        <ele>869.16999999999996</ele>
        <time>2025-05-20T09:47:03Z</time>
      </trkpt>
      <trkpt lat="46.671652989462018" lon="9.449275005608797">
        <ele>869.64999999999998</ele>
        <time>2025-05-20T09:47:10Z</time>
      </trkpt>
      <trkpt lat="46.673312019556761" lon="9.448279989883304">
        <ele>869.16999999999996</ele>
        <time>2025-05-20T09:47:20Z</time>
      </trkpt>
      <trkpt lat="46.67367503978312" lon="9.448085026815534">
        <ele>866.76999999999998</ele>
        <time>2025-05-20T09:47:22Z</time>
      </trkpt>
      <trkpt lat="46.676613986492157" lon="9.448474030941725">
        <ele>859.08000000000004</ele>
        <time>2025-05-20T09:47:36Z</time>
      </trkpt>
      <trkpt lat="46.682145036756992" lon="9.442822029814124">
        <ele>857.14999999999998</ele>
        <time>2025-05-20T09:48:09Z</time>
      </trkpt>
      <trkpt lat="46.682654991745949" lon="9.441398028284311">
        <ele>857.14999999999998</ele>
        <time>2025-05-20T09:48:14Z</time>
      </trkpt>
      <trkpt lat="46.683298973366618" lon="9.440100006759167">
        <ele>857.14999999999998</ele>
        <time>2025-05-20T09:48:19Z</time>
      </trkpt>
      <trkpt lat="46.683933986350894" lon="9.439206998795271">
        <ele>857.14999999999998</ele>
        <time>2025-05-20T09:48:23Z</time>
      </trkpt>
      <trkpt lat="46.68428803794086" lon="9.438824029639363">
        <ele>857.14999999999998</ele>
        <time>2025-05-20T09:48:25Z</time>
      </trkpt>
      <trkpt lat="46.685050958767533" lon="9.438181975856423">
        <ele>857.14999999999998</ele>
        <time>2025-05-20T09:48:29Z</time>
      </trkpt>
      <trkpt lat="46.685669040307403" lon="9.437844017520547">
        <ele>857.14999999999998</ele>
        <time>2025-05-20T09:48:32Z</time>
      </trkpt>
      <trkpt lat="46.686744019389153" lon="9.437499018386006">
        <ele>857.14999999999998</ele>
        <time>2025-05-20T09:48:37Z</time>
      </trkpt>
      <trkpt lat="46.68740401044488" lon="9.437437998130918">
        <ele>857.14999999999998</ele>
        <time>2025-05-20T09:48:40Z</time>
      </trkpt>
      <trkpt lat="46.688282014802098" lon="9.43755098618567">
        <ele>857.14999999999998</ele>
        <time>2025-05-20T09:48:44Z</time>
      </trkpt>
      <trkpt lat="46.689135041087866" lon="9.437876036390662">
        <ele>857.14999999999998</ele>
        <time>2025-05-20T09:48:48Z</time>
      </trkpt>
      <trkpt lat="46.689744992181659" lon="9.438248025253415">
        <ele>857.14999999999998</ele>
        <time>2025-05-20T09:48:51Z</time>
      </trkpt>
      <trkpt lat="46.690320996567607" lon="9.438721016049385">
        <ele>857.14999999999998</ele>
        <time>2025-05-20T09:48:54Z</time>
      </trkpt>
      <trkpt lat="46.690858025103807" lon="9.439285034313798">
        <ele>857.14999999999998</ele>
        <time>2025-05-20T09:48:57Z</time>
      </trkpt>
      <trkpt lat="46.691898973658681" lon="9.440675005316734">
        <ele>723.52999999999997</ele>
        <time>2025-05-20T09:49:15Z</time>
      </trkpt>
      <trkpt lat="46.693323981016874" lon="9.442653972655535">
        <ele>705.25999999999999</ele>
        <time>2025-05-20T09:49:27Z</time>
      </trkpt>
      <trkpt lat="46.694644968956709" lon="9.444348961114883">
        <ele>697.09000000000003</ele>
        <time>2025-05-20T09:49:37Z</time>
      </trkpt>
      <trkpt lat="46.696287989616394" lon="9.445677995681763">
        <ele>685.08000000000004</ele>
        <time>2025-05-20T09:49:47Z</time>
      </trkpt>
      <trkpt lat="46.696958960965276" lon="9.446054007858038">
        <ele>681.23000000000002</ele>
        <time>2025-05-20T09:49:51Z</time>
      </trkpt>
      <trkpt lat="46.697146967053413" lon="9.446111004799604">
        <ele>680.75</ele>
        <time>2025-05-20T09:49:52Z</time>
      </trkpt>
      <trkpt lat="46.698440965265036" lon="9.446516018360853">
        <ele>675.46000000000004</ele>
        <time>2025-05-20T09:49:59Z</time>
      </trkpt>
      <trkpt lat="46.700217006728053" lon="9.447138039395213">
        <ele>672.10000000000002</ele>
        <time>2025-05-20T09:50:09Z</time>
      </trkpt>
      <trkpt lat="46.702388003468513" lon="9.447836000472307">
        <ele>672.58000000000004</ele>
        <time>2025-05-20T09:50:21Z</time>
      </trkpt>
      <trkpt lat="46.704072011634707" lon="9.448360037058592">
        <ele>671.13999999999999</ele>
        <time>2025-05-20T09:50:29Z</time>
      </trkpt>
      <trkpt lat="46.706624971702695" lon="9.448933023959398">
        <ele>668.25</ele>
        <time>2025-05-20T09:50:40Z</time>
      </trkpt>
      <trkpt lat="46.708836033940315" lon="9.448767984285951">
        <ele>665.85000000000002</ele>
        <time>2025-05-20T09:50:49Z</time>
      </trkpt>
      <trkpt lat="46.710722967982292" lon="9.448088966310024">
        <ele>661.51999999999998</ele>
        <time>2025-05-20T09:50:57Z</time>
      </trkpt>
      <trkpt lat="46.712646028026938" lon="9.446807038038969">
        <ele>656.72000000000003</ele>
        <time>2025-05-20T09:51:06Z</time>
      </trkpt>
      <trkpt lat="46.714484011754394" lon="9.445192012935877">
        <ele>653.35000000000002</ele>
        <time>2025-05-20T09:51:15Z</time>
      </trkpt>
      <trkpt lat="46.717539969831705" lon="9.442467978224158">
        <ele>650.95000000000005</ele>
        <time>2025-05-20T09:51:30Z</time>
      </trkpt>
      <trkpt lat="46.719708032906055" lon="9.441046994179487">
        <ele>650.47000000000003</ele>
        <time>2025-05-20T09:51:40Z</time>
      </trkpt>
      <trkpt lat="46.722268033772707" lon="9.440146023407579">
        <ele>647.10000000000002</ele>
        <time>2025-05-20T09:51:51Z</time>
      </trkpt>
      <trkpt lat="46.724656959995627" lon="9.440030017867684">
        <ele>645.17999999999995</ele>
        <time>2025-05-20T09:52:01Z</time>
      </trkpt>
      <trkpt lat="46.727272029966116" lon="9.440360013395548">
        <ele>644.70000000000005</ele>
        <time>2025-05-20T09:52:12Z</time>
      </trkpt>
      <trkpt lat="46.729659028351307" lon="9.44053896702826">
        <ele>645.17999999999995</ele>
        <time>2025-05-20T09:52:22Z</time>
      </trkpt>
      <trkpt lat="46.732022976502776" lon="9.440095983445644">
        <ele>643.74000000000001</ele>
        <time>2025-05-20T09:52:32Z</time>
      </trkpt>
      <trkpt lat="46.734274020418525" lon="9.438945986330509">
        <ele>641.34000000000003</ele>
        <time>2025-05-20T09:52:42Z</time>
      </trkpt>
      <trkpt lat="46.736551970243454" lon="9.437002977356315">
        <ele>637.00999999999999</ele>
        <time>2025-05-20T09:52:53Z</time>
      </trkpt>
      <trkpt lat="46.73757397569716" lon="9.436106029897928">
        <ele>633.64999999999998</ele>
        <time>2025-05-20T09:52:58Z</time>
      </trkpt>
      <trkpt lat="46.73778897151351" lon="9.435945013538003">
        <ele>633.16999999999996</ele>
        <time>2025-05-20T09:52:59Z</time>
      </trkpt>
      <trkpt lat="46.73995602875948" lon="9.434507014229894">
        <ele>628.84000000000003</ele>
        <time>2025-05-20T09:53:09Z</time>
      </trkpt>
      <trkpt lat="46.742426007986069" lon="9.433244029060006">
        <ele>627.88</ele>
        <time>2025-05-20T09:53:20Z</time>
      </trkpt>
      <trkpt lat="46.744906967505813" lon="9.431977020576596">
        <ele>626.91999999999996</ele>
        <time>2025-05-20T09:53:31Z</time>
      </trkpt>
      <trkpt lat="46.74760602414608" lon="9.430568022653461">
        <ele>623.07000000000005</ele>
        <time>2025-05-20T09:53:43Z</time>
      </trkpt>
      <trkpt lat="46.750522004440427" lon="9.42904100753367">
        <ele>622.11000000000001</ele>
        <time>2025-05-20T09:53:56Z</time>
      </trkpt>
      <trkpt lat="46.753684999421239" lon="9.427396981045604">
        <ele>619.71000000000004</ele>
        <time>2025-05-20T09:54:10Z</time>
      </trkpt>
      <trkpt lat="46.75706097856164" lon="9.425634015351534">
        <ele>617.29999999999995</ele>
        <time>2025-05-20T09:54:25Z</time>
      </trkpt>
      <trkpt lat="46.759996991604567" lon="9.424126027151942">
        <ele>615.38</ele>
        <time>2025-05-20T09:54:38Z</time>
      </trkpt>
      <trkpt lat="46.761799016967416" lon="9.423339972272515">
        <ele>612.01999999999998</ele>
        <time>2025-05-20T09:54:46Z</time>
      </trkpt>
      <trkpt lat="46.765327965840697" lon="9.422224005684257">
        <ele>606.73000000000002</ele>
        <time>2025-05-20T09:55:01Z</time>
      </trkpt>
      <trkpt lat="46.768887005746365" lon="9.421536019071937">
        <ele>602.39999999999998</ele>
        <time>2025-05-20T09:55:16Z</time>
      </trkpt>
      <trkpt lat="46.771612968295813" lon="9.420888014137745">
        <ele>600.96000000000004</ele>
        <time>2025-05-20T09:55:28Z</time>
      </trkpt>
      <trkpt lat="46.773313991725445" lon="9.420249983668327">
        <ele>600.96000000000004</ele>
        <time>2025-05-20T09:55:36Z</time>
      </trkpt>
      <trkpt lat="46.775796040892601" lon="9.418930001556873">
        <ele>602.39999999999998</ele>
        <time>2025-05-20T09:55:47Z</time>
      </trkpt>
      <trkpt lat="46.778799025341868" lon="9.416870987042785">
        <ele>604.80999999999995</ele>
        <time>2025-05-20T09:56:01Z</time>
      </trkpt>
      <trkpt lat="46.781040010973811" lon="9.415743034332991">
        <ele>610.57000000000005</ele>
        <time>2025-05-20T09:56:11Z</time>
      </trkpt>
      <trkpt lat="46.782811023294926" lon="9.415428964421153">
        <ele>616.34000000000003</ele>
        <time>2025-05-20T09:56:19Z</time>
      </trkpt>
      <trkpt lat="46.783964037895203" lon="9.415516974404454">
        <ele>621.14999999999998</ele>
        <time>2025-05-20T09:56:26Z</time>
      </trkpt>
      <trkpt lat="46.784588992595673" lon="9.415632979944348">
        <ele>623.54999999999995</ele>
        <time>2025-05-20T09:56:31Z</time>
      </trkpt>
      <trkpt lat="46.784709021449089" lon="9.415672961622477">
        <ele>624.02999999999997</ele>
        <time>2025-05-20T09:56:32Z</time>
      </trkpt>
      <trkpt lat="46.784832989796996" lon="9.415715038776398">
        <ele>624.50999999999999</ele>
        <time>2025-05-20T09:56:33Z</time>
      </trkpt>
      <trkpt lat="46.788848005235195" lon="9.417284969240427">
        <ele>624.50999999999999</ele>
        <time>2025-05-20T09:57:04Z</time>
      </trkpt>
      <trkpt lat="46.791606992483139" lon="9.418061971664429">
        <ele>624.50999999999999</ele>
        <time>2025-05-20T09:57:25Z</time>
      </trkpt>
      <trkpt lat="46.794943995773792" lon="9.418411999940872">
        <ele>624.50999999999999</ele>
        <time>2025-05-20T09:57:50Z</time>
      </trkpt>
      <trkpt lat="46.798810986801982" lon="9.417917970567942">
        <ele>624.50999999999999</ele>
        <time>2025-05-20T09:58:19Z</time>
      </trkpt>
      <trkpt lat="46.799205020070076" lon="9.41780598834157">
        <ele>624.50999999999999</ele>
        <time>2025-05-20T09:58:22Z</time>
      </trkpt>
      <trkpt lat="46.803439976647496" lon="9.415982002392411">
        <ele>624.50999999999999</ele>
        <time>2025-05-20T09:58:55Z</time>
      </trkpt>
      <trkpt lat="46.806880999356508" lon="9.413502970710397">
        <ele>599.03999999999996</ele>
        <time>2025-05-20T09:59:12Z</time>
      </trkpt>
      <trkpt lat="46.809014026075602" lon="9.411804964765906">
        <ele>600.48000000000002</ele>
        <time>2025-05-20T09:59:26Z</time>
      </trkpt>
      <trkpt lat="46.809750963002443" lon="9.411187972873449">
        <ele>598.55999999999995</ele>
        <time>2025-05-20T09:59:31Z</time>
      </trkpt>
      <trkpt lat="46.810007030144334" lon="9.41097398288548">
        <ele>597.60000000000002</ele>
        <time>2025-05-20T09:59:33Z</time>
      </trkpt>
      <trkpt lat="46.813528016209602" lon="9.408142995089293">
        <ele>599.03999999999996</ele>
        <time>2025-05-20T09:59:56Z</time>
      </trkpt>
      <trkpt lat="46.81558602489531" lon="9.40671899355948">
        <ele>599.03999999999996</ele>
        <time>2025-05-20T10:00:09Z</time>
      </trkpt>
      <trkpt lat="46.81734899058938" lon="9.405888011679053">
        <ele>596.63999999999999</ele>
        <time>2025-05-20T10:00:19Z</time>
      </trkpt>
      <trkpt lat="46.819099970161915" lon="9.405734958127141">
        <ele>594.71000000000004</ele>
        <time>2025-05-20T10:00:29Z</time>
      </trkpt>
      <trkpt lat="46.820659004151821" lon="9.406282966956496">
        <ele>594.71000000000004</ele>
        <time>2025-05-20T10:00:38Z</time>
      </trkpt>
      <trkpt lat="46.822148971259594" lon="9.407631028443575">
        <ele>596.14999999999998</ele>
        <time>2025-05-20T10:00:47Z</time>
      </trkpt>
      <trkpt lat="46.823108028620481" lon="9.409311013296247">
        <ele>594.71000000000004</ele>
        <time>2025-05-20T10:00:55Z</time>
      </trkpt>
      <trkpt lat="46.823614966124296" lon="9.410723028704524">
        <ele>589.42999999999995</ele>
        <time>2025-05-20T10:01:01Z</time>
      </trkpt>
      <trkpt lat="46.824663039296865" lon="9.41346600651741">
        <ele>584.62</ele>
        <time>2025-05-20T10:01:12Z</time>
      </trkpt>
      <trkpt lat="46.825214987620711" lon="9.414188023656607">
        <ele>585.10000000000002</ele>
        <time>2025-05-20T10:01:16Z</time>
      </trkpt>
      <trkpt lat="46.826763963326812" lon="9.41540096886456">
        <ele>590.38999999999999</ele>
        <time>2025-05-20T10:01:26Z</time>
      </trkpt>
      <trkpt lat="46.827884959056973" lon="9.416417023167014">
        <ele>595.19000000000005</ele>
        <time>2025-05-20T10:01:34Z</time>
      </trkpt>
      <trkpt lat="46.828377982601523" lon="9.417105009779334">
        <ele>596.63999999999999</ele>
        <time>2025-05-20T10:01:38Z</time>
      </trkpt>
      <trkpt lat="46.829322036355734" lon="9.419123036786914">
        <ele>600.48000000000002</ele>
        <time>2025-05-20T10:01:47Z</time>
      </trkpt>
      <trkpt lat="46.830231975764036" lon="9.421708015725017">
        <ele>604.80999999999995</ele>
        <time>2025-05-20T10:01:56Z</time>
      </trkpt>
      <trkpt lat="46.831100005656481" lon="9.425335032865405">
        <ele>604.80999999999995</ele>
        <time>2025-05-20T10:02:07Z</time>
      </trkpt>
      <trkpt lat="46.832026038318872" lon="9.430042980238795">
        <ele>600.48000000000002</ele>
        <time>2025-05-20T10:02:21Z</time>
      </trkpt>
      <trkpt lat="46.833050977438688" lon="9.433938972651959">
        <ele>597.12</ele>
        <time>2025-05-20T10:02:33Z</time>
      </trkpt>
      <trkpt lat="46.834372971206903" lon="9.436835004016757">
        <ele>593.75</ele>
        <time>2025-05-20T10:02:43Z</time>
      </trkpt>
      <trkpt lat="46.835630005225539" lon="9.440173013135791">
        <ele>590.38999999999999</ele>
        <time>2025-05-20T10:02:54Z</time>
      </trkpt>
      <trkpt lat="46.83627700433135" lon="9.443160993978381">
        <ele>588.46000000000004</ele>
        <time>2025-05-20T10:03:03Z</time>
      </trkpt>
      <trkpt lat="46.836960967630148" lon="9.446502020582557">
        <ele>583.65999999999997</ele>
        <time>2025-05-20T10:03:13Z</time>
      </trkpt>
      <trkpt lat="46.837792033329606" lon="9.449761994183064">
        <ele>580.76999999999998</ele>
        <time>2025-05-20T10:03:23Z</time>
      </trkpt>
      <trkpt lat="46.837826985865831" lon="9.450102970004082">
        <ele>580.28999999999996</ele>
        <time>2025-05-20T10:03:24Z</time>
      </trkpt>
      <trkpt lat="46.837814999744296" lon="9.452531039714813">
        <ele>579.80999999999995</ele>
        <time>2025-05-20T10:03:31Z</time>
      </trkpt>
      <trkpt lat="46.837449967861176" lon="9.45667396299541">
        <ele>581.73000000000002</ele>
        <time>2025-05-20T10:03:43Z</time>
      </trkpt>
      <trkpt lat="46.837683990597725" lon="9.459086023271084">
        <ele>582.22000000000003</ele>
        <time>2025-05-20T10:03:50Z</time>
      </trkpt>
      <trkpt lat="46.838448001071811" lon="9.461634960025549">
        <ele>580.28999999999996</ele>
        <time>2025-05-20T10:03:58Z</time>
      </trkpt>
      <trkpt lat="46.839995970949531" lon="9.465965973213315">
        <ele>577.88999999999999</ele>
        <time>2025-05-20T10:04:12Z</time>
      </trkpt>
      <trkpt lat="46.841727001592517" lon="9.470924036577344">
        <ele>575.97000000000003</ele>
        <time>2025-05-20T10:04:28Z</time>
      </trkpt>
      <trkpt lat="46.842455975711346" lon="9.474232038483024">
        <ele>575.49000000000001</ele>
        <time>2025-05-20T10:04:38Z</time>
      </trkpt>
      <trkpt lat="46.843157038092613" lon="9.479372994974256">
        <ele>574.52999999999997</ele>
        <time>2025-05-20T10:04:53Z</time>
      </trkpt>
      <trkpt lat="46.844116011634469" lon="9.484441028907895">
        <ele>570.20000000000005</ele>
        <time>2025-05-20T10:05:08Z</time>
      </trkpt>
      <trkpt lat="46.845596004277468" lon="9.491412006318569">
        <ele>567.32000000000005</ele>
        <time>2025-05-20T10:05:29Z</time>
      </trkpt>
      <trkpt lat="46.845978973433375" lon="9.494838025420904">
        <ele>567.79999999999995</ele>
        <time>2025-05-20T10:05:39Z</time>
      </trkpt>
      <trkpt lat="46.84594402089715" lon="9.49865598231554">
        <ele>569.72000000000003</ele>
        <time>2025-05-20T10:05:50Z</time>
      </trkpt>
      <trkpt lat="46.846198998391628" lon="9.501739013940096">
        <ele>570.67999999999995</ele>
        <time>2025-05-20T10:05:59Z</time>
      </trkpt>
      <trkpt lat="46.847023023292422" lon="9.503844967111945">
        <ele>570.67999999999995</ele>
        <time>2025-05-20T10:06:06Z</time>
      </trkpt>
      <trkpt lat="46.847367016598582" lon="9.504340002313256">
        <ele>570.20000000000005</ele>
        <time>2025-05-20T10:06:08Z</time>
      </trkpt>
      <trkpt lat="46.847537001594901" lon="9.504577964544296">
        <ele>570.20000000000005</ele>
        <time>2025-05-20T10:06:09Z</time>
      </trkpt>
      <trkpt lat="46.84873997233808" lon="9.505651015788317">
        <ele>569.24000000000001</ele>
        <time>2025-05-20T10:06:15Z</time>
      </trkpt>
      <trkpt lat="46.850594971328974" lon="9.506335984915495">
        <ele>568.75999999999999</ele>
        <time>2025-05-20T10:06:23Z</time>
      </trkpt>
      <trkpt lat="46.853933986276388" lon="9.506811993196607">
        <ele>564.90999999999997</ele>
        <time>2025-05-20T10:06:37Z</time>
      </trkpt>
      <trkpt lat="46.857259003445506" lon="9.507275009527803">
        <ele>562.02999999999997</ele>
        <time>2025-05-20T10:06:51Z</time>
      </trkpt>
      <trkpt lat="46.859846999868751" lon="9.507900970056653">
        <ele>562.99000000000001</ele>
        <time>2025-05-20T10:07:02Z</time>
      </trkpt>
      <trkpt lat="46.861588004976511" lon="9.509037975221872">
        <ele>561.54999999999995</ele>
        <time>2025-05-20T10:07:10Z</time>
      </trkpt>
      <trkpt lat="46.863092975690961" lon="9.51075199060142">
        <ele>559.13999999999999</ele>
        <time>2025-05-20T10:07:18Z</time>
      </trkpt>
      <trkpt lat="46.864415975287557" lon="9.513210989534855">
        <ele>558.17999999999995</ele>
        <time>2025-05-20T10:07:27Z</time>
      </trkpt>
      <trkpt lat="46.866696020588279" lon="9.518543975427747">
        <ele>557.22000000000003</ele>
        <time>2025-05-20T10:07:45Z</time>
      </trkpt>
      <trkpt lat="46.868840027600527" lon="9.523574961349368">
        <ele>556.25999999999999</ele>
        <time>2025-05-20T10:08:02Z</time>
      </trkpt>
      <trkpt lat="46.871070032939315" lon="9.528521960601211">
        <ele>555.77999999999997</ele>
        <time>2025-05-20T10:08:19Z</time>
      </trkpt>
      <trkpt lat="46.872060019522905" lon="9.530090969055891">
        <ele>556.25999999999999</ele>
        <time>2025-05-20T10:08:26Z</time>
      </trkpt>
      <trkpt lat="46.872898964211345" lon="9.531393013894558">
        <ele>555.77999999999997</ele>
        <time>2025-05-20T10:08:34Z</time>
      </trkpt>
      <trkpt lat="46.873173974454403" lon="9.531886959448457">
        <ele>556.74000000000001</ele>
        <time>2025-05-20T10:08:38Z</time>
      </trkpt>
      <trkpt lat="46.873266007751226" lon="9.53219298273325">
        <ele>558.17999999999995</ele>
        <time>2025-05-20T10:08:43Z</time>
      </trkpt>
      <trkpt lat="46.873269025236368" lon="9.532232964411378">
        <ele>558.17999999999995</ele>
        <time>2025-05-20T10:08:44Z</time>
      </trkpt>
      <trkpt lat="46.873127035796642" lon="9.532303959131241">
        <ele>558.65999999999997</ele>
        <time>2025-05-20T10:08:46Z</time>
      </trkpt>
      <trkpt lat="46.873053023591638" lon="9.53229901380837">
        <ele>558.65999999999997</ele>
        <time>2025-05-20T10:08:47Z</time>
      </trkpt>
      <trkpt lat="46.872955039143562" lon="9.532291973009706">
        <ele>558.17999999999995</ele>
        <time>2025-05-20T10:08:48Z</time>
      </trkpt>
      <trkpt lat="46.872883038595319" lon="9.532266994938254">
        <ele>557.70000000000005</ele>
        <time>2025-05-20T10:08:49Z</time>
      </trkpt>
      <trkpt lat="46.872803997248411" lon="9.532238999381661">
        <ele>556.74000000000001</ele>
        <time>2025-05-20T10:08:50Z</time>
      </trkpt>
      <trkpt lat="46.872725961729884" lon="9.532212009653449">
        <ele>556.25999999999999</ele>
        <time>2025-05-20T10:08:51Z</time>
      </trkpt>
      <trkpt lat="46.872563017532229" lon="9.532155012711883">
        <ele>555.77999999999997</ele>
        <time>2025-05-20T10:08:53Z</time>
      </trkpt>
      <trkpt lat="46.872221035882831" lon="9.531944962218404">
        <ele>555.29999999999995</ele>
        <time>2025-05-20T10:08:57Z</time>
      </trkpt>
      <trkpt lat="46.872029006481171" lon="9.531820993870497">
        <ele>555.77999999999997</ele>
        <time>2025-05-20T10:08:59Z</time>
      </trkpt>
      <trkpt lat="46.871936973184347" lon="9.531760979443789">
        <ele>555.77999999999997</ele>
        <time>2025-05-20T10:09:00Z</time>
      </trkpt>
      <trkpt lat="46.871242029592395" lon="9.53131296671927">
        <ele>558.17999999999995</ele>
        <time>2025-05-20T10:09:08Z</time>
      </trkpt>
      <trkpt lat="46.870825029909611" lon="9.531046003103256">
        <ele>558.17999999999995</ele>
        <time>2025-05-20T10:09:17Z</time>
      </trkpt>
      <trkpt lat="46.870830981060863" lon="9.531047008931637">
        <ele>558.17999999999995</ele>
        <time>2025-05-20T10:09:18Z</time>
      </trkpt>
      <trkpt lat="46.870699971914291" lon="9.531004009768367">
        <ele>558.65999999999997</ele>
        <time>2025-05-20T10:09:22Z</time>
      </trkpt>
      <trkpt lat="46.870678011327982" lon="9.530995041131973">
        <ele>558.65999999999997</ele>
        <time>2025-05-20T10:09:23Z</time>
      </trkpt>
      <trkpt lat="46.870830981060863" lon="9.531047008931637">
        <ele>558.65999999999997</ele>
        <time>2025-05-20T10:09:24Z</time>
      </trkpt>
      <trkpt lat="46.870830981060863" lon="9.531047008931637">
        <ele>558.65999999999997</ele>
        <time>2025-05-20T10:09:25Z</time>
      </trkpt>
      <trkpt lat="46.870701983571053" lon="9.531005015596747">
        <ele>559.13999999999999</ele>
        <time>2025-05-20T10:09:26Z</time>
      </trkpt>
      <trkpt lat="46.870778007432818" lon="9.531029993668199">
        <ele>559.13999999999999</ele>
        <time>2025-05-20T10:09:27Z</time>
      </trkpt>
      <trkpt lat="46.871415032073855" lon="9.531425032764673">
        <ele>559.13999999999999</ele>
        <time>2025-05-20T10:09:34Z</time>
      </trkpt>
      <trkpt lat="46.872002016752958" lon="9.531802972778678">
        <ele>560.11000000000001</ele>
        <time>2025-05-20T10:09:39Z</time>
      </trkpt>
      <trkpt lat="46.872115004807711" lon="9.531876984983683">
        <ele>560.11000000000001</ele>
        <time>2025-05-20T10:09:40Z</time>
      </trkpt>
      <trkpt lat="46.872654967010021" lon="9.532187031581998">
        <ele>559.62</ele>
        <time>2025-05-20T10:09:45Z</time>
      </trkpt>
      <trkpt lat="46.872751023620367" lon="9.532220978289843">
        <ele>559.62</ele>
        <time>2025-05-20T10:09:46Z</time>
      </trkpt>
      <trkpt lat="46.872967025265098" lon="9.532292978838086">
        <ele>558.65999999999997</ele>
        <time>2025-05-20T10:09:49Z</time>
      </trkpt>
      <trkpt lat="46.873665992170572" lon="9.532346958294511">
        <ele>556.74000000000001</ele>
        <time>2025-05-20T10:09:56Z</time>
      </trkpt>
      <trkpt lat="46.873761964961886" lon="9.532355004921556">
        <ele>556.25999999999999</ele>
        <time>2025-05-20T10:09:57Z</time>
      </trkpt>
      <trkpt lat="46.873837988823652" lon="9.532399009913206">
        <ele>556.25999999999999</ele>
        <time>2025-05-20T10:09:58Z</time>
      </trkpt>
      <trkpt lat="46.87389699742198" lon="9.532436979934573">
        <ele>555.77999999999997</ele>
        <time>2025-05-20T10:09:59Z</time>
      </trkpt>
      <trkpt lat="46.873944019898772" lon="9.532466987147927">
        <ele>555.77999999999997</ele>
        <time>2025-05-20T10:10:00Z</time>
      </trkpt>
      <trkpt lat="46.873985007405281" lon="9.532571006566286">
        <ele>556.25999999999999</ele>
        <time>2025-05-20T10:10:01Z</time>
      </trkpt>
      <trkpt lat="46.873985007405281" lon="9.532571006566286">
        <ele>555.77999999999997</ele>
        <time>2025-05-20T10:10:02Z</time>
      </trkpt>
      <trkpt lat="46.873920969665051" lon="9.532764041796327">
        <ele>556.25999999999999</ele>
        <time>2025-05-20T10:10:03Z</time>
      </trkpt>
      <trkpt lat="46.873894985765219" lon="9.532798994332552">
        <ele>556.25999999999999</ele>
        <time>2025-05-20T10:10:04Z</time>
      </trkpt>
      <trkpt lat="46.873819967731833" lon="9.532898990437388">
        <ele>556.25999999999999</ele>
        <time>2025-05-20T10:10:05Z</time>
      </trkpt>
      <trkpt lat="46.873711002990603" lon="9.532976020127535">
        <ele>555.29999999999995</ele>
        <time>2025-05-20T10:10:06Z</time>
      </trkpt>
      <trkpt lat="46.873617963865399" lon="9.533022036775947">
        <ele>554.34000000000003</ele>
        <time>2025-05-20T10:10:07Z</time>
      </trkpt>
      <trkpt lat="46.873519979417324" lon="9.533071992918849">
        <ele>553.86000000000001</ele>
        <time>2025-05-20T10:10:08Z</time>
      </trkpt>
      <trkpt lat="46.873415037989616" lon="9.53309303149581">
        <ele>553.38</ele>
        <time>2025-05-20T10:10:09Z</time>
      </trkpt>
      <trkpt lat="46.873306995257735" lon="9.533103005960584">
        <ele>553.86000000000001</ele>
        <time>2025-05-20T10:10:10Z</time>
      </trkpt>
      <trkpt lat="46.873197024688125" lon="9.533092025667429">
        <ele>553.86000000000001</ele>
        <time>2025-05-20T10:10:11Z</time>
      </trkpt>
      <trkpt lat="46.873088981956244" lon="9.533064030110836">
        <ele>553.86000000000001</ele>
        <time>2025-05-20T10:10:12Z</time>
      </trkpt>
      <trkpt lat="46.872971970587969" lon="9.533033017069101">
        <ele>554.34000000000003</ele>
        <time>2025-05-20T10:10:13Z</time>
      </trkpt>
      <trkpt lat="46.872295970097184" lon="9.532931009307504">
        <ele>560.11000000000001</ele>
        <time>2025-05-20T10:10:19Z</time>
      </trkpt>
      <trkpt lat="46.872198991477489" lon="9.532952969893813">
        <ele>561.54999999999995</ele>
        <time>2025-05-20T10:10:20Z</time>
      </trkpt>
      <trkpt lat="46.872135959565639" lon="9.53300996683538">
        <ele>562.99000000000001</ele>
        <time>2025-05-20T10:10:21Z</time>
      </trkpt>
      <trkpt lat="46.872064964845777" lon="9.533089008182287">
        <ele>563.95000000000005</ele>
        <time>2025-05-20T10:10:22Z</time>
      </trkpt>
      <trkpt lat="46.8720050342381" lon="9.533169977366924">
        <ele>565.38999999999999</ele>
        <time>2025-05-20T10:10:23Z</time>
      </trkpt>
      <trkpt lat="46.87196496874094" lon="9.533297969028354">
        <ele>566.35000000000002</ele>
        <time>2025-05-20T10:10:24Z</time>
      </trkpt>
      <trkpt lat="46.871924987062812" lon="9.533428978174925">
        <ele>566.83000000000004</ele>
        <time>2025-05-20T10:10:25Z</time>
      </trkpt>
      <trkpt lat="46.871924987062812" lon="9.533559987321496">
        <ele>567.32000000000005</ele>
        <time>2025-05-20T10:10:26Z</time>
      </trkpt>
      <trkpt lat="46.871924987062812" lon="9.533676998689771">
        <ele>567.79999999999995</ele>
        <time>2025-05-20T10:10:27Z</time>
      </trkpt>
      <trkpt lat="46.871924987062812" lon="9.533773977309465">
        <ele>568.27999999999997</ele>
        <time>2025-05-20T10:10:28Z</time>
      </trkpt>
      <trkpt lat="46.871924987062812" lon="9.533850001171231">
        <ele>568.75999999999999</ele>
        <time>2025-05-20T10:10:29Z</time>
      </trkpt>
      <trkpt lat="46.871838988736272" lon="9.534136997535825">
        <ele>570.67999999999995</ele>
        <time>2025-05-20T10:10:34Z</time>
      </trkpt>
      <trkpt lat="46.87183303758502" lon="9.534159963950515">
        <ele>571.15999999999997</ele>
        <time>2025-05-20T10:10:35Z</time>
      </trkpt>
      <trkpt lat="46.871847035363317" lon="9.534274041652679">
        <ele>571.15999999999997</ele>
        <time>2025-05-20T10:10:36Z</time>
      </trkpt>
      <trkpt lat="46.871876958757639" lon="9.534326009452343">
        <ele>571.63999999999999</ele>
        <time>2025-05-20T10:10:37Z</time>
      </trkpt>
      <trkpt lat="46.871910989284515" lon="9.534389041364193">
        <ele>572.12</ele>
        <time>2025-05-20T10:10:38Z</time>
      </trkpt>
      <trkpt lat="46.871950970962644" lon="9.534467998892069">
        <ele>572.60000000000002</ele>
        <time>2025-05-20T10:10:39Z</time>
      </trkpt>
      <trkpt lat="46.872003022581339" lon="9.534550979733467">
        <ele>572.60000000000002</ele>
        <time>2025-05-20T10:10:40Z</time>
      </trkpt>
      <trkpt lat="46.872078962624073" lon="9.534584004431963">
        <ele>573.08000000000004</ele>
        <time>2025-05-20T10:10:41Z</time>
      </trkpt>
      <trkpt lat="46.872162027284503" lon="9.534614011645317">
        <ele>573.55999999999995</ele>
        <time>2025-05-20T10:10:42Z</time>
      </trkpt>
      <trkpt lat="46.872251965105534" lon="9.534631026908755">
        <ele>573.55999999999995</ele>
        <time>2025-05-20T10:10:43Z</time>
      </trkpt>
      <trkpt lat="46.872343998402357" lon="9.534648964181542">
        <ele>573.55999999999995</ele>
        <time>2025-05-20T10:10:44Z</time>
      </trkpt>
      <trkpt lat="46.872438965365291" lon="9.534667991101742">
        <ele>574.03999999999996</ele>
        <time>2025-05-20T10:10:45Z</time>
      </trkpt>
      <trkpt lat="46.873041037470102" lon="9.534790031611919">
        <ele>576.92999999999995</ele>
        <time>2025-05-20T10:10:51Z</time>
      </trkpt>
      <trkpt lat="46.874074023216963" lon="9.535290012136102">
        <ele>580.28999999999996</ele>
        <time>2025-05-20T10:11:00Z</time>
      </trkpt>
      <trkpt lat="46.875900020822883" lon="9.536049999296665">
        <ele>584.13999999999999</ele>
        <time>2025-05-20T10:11:15Z</time>
      </trkpt>
      <trkpt lat="46.877165017649531" lon="9.536535982042551">
        <ele>585.10000000000002</ele>
        <time>2025-05-20T10:11:26Z</time>
      </trkpt>
      <trkpt lat="46.878333035856485" lon="9.536992041394115">
        <ele>587.5</ele>
        <time>2025-05-20T10:11:33Z</time>
      </trkpt>
      <trkpt lat="46.880894964560866" lon="9.538147989660502">
        <ele>591.35000000000002</ele>
        <time>2025-05-20T10:11:46Z</time>
      </trkpt>
      <trkpt lat="46.883215997368097" lon="9.539208970963955">
        <ele>588.46000000000004</ele>
        <time>2025-05-20T10:11:59Z</time>
      </trkpt>
      <trkpt lat="46.885291021317244" lon="9.540198035538197">
        <ele>585.10000000000002</ele>
        <time>2025-05-20T10:12:11Z</time>
      </trkpt>
      <trkpt lat="46.887258002534509" lon="9.541420033201575">
        <ele>581.73000000000002</ele>
        <time>2025-05-20T10:12:23Z</time>
      </trkpt>
      <trkpt lat="46.889605019241571" lon="9.542901031672955">
        <ele>581.73000000000002</ele>
        <time>2025-05-20T10:12:37Z</time>
      </trkpt>
      <trkpt lat="46.8919019959867" lon="9.544340036809444">
        <ele>581.73000000000002</ele>
        <time>2025-05-20T10:12:51Z</time>
      </trkpt>
      <trkpt lat="46.893296996131539" lon="9.545102035626769">
        <ele>575.97000000000003</ele>
        <time>2025-05-20T10:13:00Z</time>
      </trkpt>
      <trkpt lat="46.893646018579602" lon="9.545247964560986">
        <ele>574.03999999999996</ele>
        <time>2025-05-20T10:13:04Z</time>
      </trkpt>
      <trkpt lat="46.893687006086111" lon="9.545304039493203">
        <ele>573.55999999999995</ele>
        <time>2025-05-20T10:13:05Z</time>
      </trkpt>
      <trkpt lat="46.893716007471085" lon="9.545361958444119">
        <ele>573.08000000000004</ele>
        <time>2025-05-20T10:13:06Z</time>
      </trkpt>
      <trkpt lat="46.893736040219665" lon="9.545457009226084">
        <ele>572.60000000000002</ele>
        <time>2025-05-20T10:13:07Z</time>
      </trkpt>
      <trkpt lat="46.893720030784607" lon="9.545506965368986">
        <ele>572.12</ele>
        <time>2025-05-20T10:13:08Z</time>
      </trkpt>
      <trkpt lat="46.89362003467977" lon="9.545583995059133">
        <ele>571.15999999999997</ele>
        <time>2025-05-20T10:13:09Z</time>
      </trkpt>
      <trkpt lat="46.893586004152894" lon="9.545565973967314">
        <ele>570.67999999999995</ele>
        <time>2025-05-20T10:13:10Z</time>
      </trkpt>
      <trkpt lat="46.893551973626018" lon="9.545548958703876">
        <ele>570.20000000000005</ele>
        <time>2025-05-20T10:13:11Z</time>
      </trkpt>
      <trkpt lat="46.893518026918173" lon="9.545531021431088">
        <ele>569.72000000000003</ele>
        <time>2025-05-20T10:13:12Z</time>
      </trkpt>
      <trkpt lat="46.893482990562916" lon="9.54551300033927">
        <ele>569.72000000000003</ele>
        <time>2025-05-20T10:13:13Z</time>
      </trkpt>
      <trkpt lat="46.893375031650066" lon="9.545456003397703">
        <ele>568.75999999999999</ele>
        <time>2025-05-20T10:13:16Z</time>
      </trkpt>
      <trkpt lat="46.893333960324526" lon="9.545433958992362">
        <ele>568.75999999999999</ele>
        <time>2025-05-20T10:13:17Z</time>
      </trkpt>
      <trkpt lat="46.893294984474778" lon="9.545414010062814">
        <ele>568.75999999999999</ele>
        <time>2025-05-20T10:13:18Z</time>
      </trkpt>
      <trkpt lat="46.893259026110172" lon="9.545394983142614">
        <ele>568.75999999999999</ele>
        <time>2025-05-20T10:13:19Z</time>
      </trkpt>
      <trkpt lat="46.89323203638196" lon="9.545380985364318">
        <ele>568.27999999999997</ele>
        <time>2025-05-20T10:13:20Z</time>
      </trkpt>
      <trkpt lat="46.893243016675115" lon="9.545333962887526">
        <ele>568.27999999999997</ele>
        <time>2025-05-20T10:13:21Z</time>
      </trkpt>
      <trkpt lat="46.893235975876451" lon="9.54536397010088">
        <ele>567.79999999999995</ele>
        <time>2025-05-20T10:13:22Z</time>
      </trkpt>
      <trkpt lat="46.893270006403327" lon="9.545401018112898">
        <ele>567.79999999999995</ele>
        <time>2025-05-20T10:13:23Z</time>
      </trkpt>
      <trkpt lat="46.89331904053688" lon="9.54542700201273">
        <ele>567.32000000000005</ele>
        <time>2025-05-20T10:13:24Z</time>
      </trkpt>
      <trkpt lat="46.893362961709499" lon="9.54544996842742">
        <ele>567.32000000000005</ele>
        <time>2025-05-20T10:13:25Z</time>
      </trkpt>
      <trkpt lat="46.893397998064756" lon="9.545467989519239">
        <ele>567.32000000000005</ele>
        <time>2025-05-20T10:13:26Z</time>
      </trkpt>
      <trkpt lat="46.893397998064756" lon="9.545467989519239">
        <ele>566.83000000000004</ele>
        <time>2025-05-20T10:13:34Z</time>
      </trkpt>
      <trkpt lat="46.893397998064756" lon="9.545467989519239">
        <ele>566.35000000000002</ele>
        <time>2025-05-20T10:14:26Z</time>
      </trkpt>
      <trkpt lat="46.893397998064756" lon="9.545467989519239">
        <ele>566.35000000000002</ele>
        <time>2025-05-20T10:15:26Z</time>
      </trkpt>
      <trkpt lat="46.893397998064756" lon="9.545467989519239">
        <ele>565.87</ele>
        <time>2025-05-20T10:16:21Z</time>
      </trkpt>
      <trkpt lat="46.893397998064756" lon="9.545467989519239">
        <ele>566.35000000000002</ele>
        <time>2025-05-20T10:17:24Z</time>
      </trkpt>
      <trkpt lat="46.893435968086123" lon="9.545479975640774">
        <ele>574.52999999999997</ele>
        <time>2025-05-20T10:27:08Z</time>
      </trkpt>
      <trkpt lat="46.893419958651066" lon="9.545466983690858">
        <ele>568.27999999999997</ele>
        <time>2025-05-20T10:27:55Z</time>
      </trkpt>
      <trkpt lat="46.893413001671433" lon="9.545468995347619">
        <ele>569.24000000000001</ele>
        <time>2025-05-20T10:28:43Z</time>
      </trkpt>
      <trkpt lat="46.893418030813336" lon="9.545463966205716">
        <ele>568.75999999999999</ele>
        <time>2025-05-20T10:29:31Z</time>
      </trkpt>
      <trkpt lat="46.893418030813336" lon="9.545465977862477">
        <ele>568.75999999999999</ele>
        <time>2025-05-20T10:30:04Z</time>
      </trkpt>
      <trkpt lat="46.893523978069425" lon="9.54553403891623">
        <ele>569.72000000000003</ele>
        <time>2025-05-20T10:30:33Z</time>
      </trkpt>
      <trkpt lat="46.893656998872757" lon="9.545604027807713">
        <ele>569.72000000000003</ele>
        <time>2025-05-20T10:30:44Z</time>
      </trkpt>
      <trkpt lat="46.893703015521169" lon="9.54555599950254">
        <ele>569.72000000000003</ele>
        <time>2025-05-20T10:30:45Z</time>
      </trkpt>
      <trkpt lat="46.893723970279098" lon="9.545495985075831">
        <ele>569.72000000000003</ele>
        <time>2025-05-20T10:30:46Z</time>
      </trkpt>
      <trkpt lat="46.893747020512819" lon="9.545423984527588">
        <ele>569.72000000000003</ele>
        <time>2025-05-20T10:30:47Z</time>
      </trkpt>
      <trkpt lat="46.89383402466774" lon="9.545401018112898">
        <ele>569.24000000000001</ele>
        <time>2025-05-20T10:30:48Z</time>
      </trkpt>
      <trkpt lat="46.893833018839359" lon="9.545403029769659">
        <ele>569.24000000000001</ele>
        <time>2025-05-20T10:30:49Z</time>
      </trkpt>
      <trkpt lat="46.89396402798593" lon="9.545351983979344">
        <ele>568.75999999999999</ele>
        <time>2025-05-20T10:30:50Z</time>
      </trkpt>
      <trkpt lat="46.894046002998948" lon="9.545421972870827">
        <ele>568.75999999999999</ele>
        <time>2025-05-20T10:30:51Z</time>
      </trkpt>
      <trkpt lat="46.894138036295772" lon="9.545501014217734">
        <ele>568.75999999999999</ele>
        <time>2025-05-20T10:30:52Z</time>
      </trkpt>
      <trkpt lat="46.894237026572227" lon="9.545586006715894">
        <ele>568.27999999999997</ele>
        <time>2025-05-20T10:30:53Z</time>
      </trkpt>
      <trkpt lat="46.895284010097384" lon="9.546424029394984">
        <ele>562.99000000000001</ele>
        <time>2025-05-20T10:31:01Z</time>
      </trkpt>
      <trkpt lat="46.896666018292308" lon="9.547868985682726">
        <ele>558.65999999999997</ele>
        <time>2025-05-20T10:31:11Z</time>
      </trkpt>
      <trkpt lat="46.896773977205157" lon="9.548051962628961">
        <ele>558.65999999999997</ele>
        <time>2025-05-20T10:31:12Z</time>
      </trkpt>
      <trkpt lat="46.897481996566057" lon="9.549441011622548">
        <ele>557.70000000000005</ele>
        <time>2025-05-20T10:31:19Z</time>
      </trkpt>
      <trkpt lat="46.898866016417742" lon="9.551238007843494">
        <ele>556.74000000000001</ele>
        <time>2025-05-20T10:31:29Z</time>
      </trkpt>
      <trkpt lat="46.899806968867779" lon="9.552544998005033">
        <ele>557.70000000000005</ele>
        <time>2025-05-20T10:31:37Z</time>
      </trkpt>
      <trkpt lat="46.901068026199937" lon="9.553783005103469">
        <ele>562.99000000000001</ele>
        <time>2025-05-20T10:31:47Z</time>
      </trkpt>
      <trkpt lat="46.90206597559154" lon="9.554556990042329">
        <ele>570.67999999999995</ele>
        <time>2025-05-20T10:31:56Z</time>
      </trkpt>
      <trkpt lat="46.903488971292973" lon="9.555705981329083">
        <ele>567.32000000000005</ele>
        <time>2025-05-20T10:32:09Z</time>
      </trkpt>
      <trkpt lat="46.904760003089905" lon="9.556736033409834">
        <ele>562.02999999999997</ele>
        <time>2025-05-20T10:32:21Z</time>
      </trkpt>
      <trkpt lat="46.906252987682819" lon="9.557864991948009">
        <ele>556.25999999999999</ele>
        <time>2025-05-20T10:32:35Z</time>
      </trkpt>
      <trkpt lat="46.906367987394333" lon="9.557896004989743">
        <ele>556.25999999999999</ele>
        <time>2025-05-20T10:32:36Z</time>
      </trkpt>
      <trkpt lat="46.907427962869406" lon="9.558101026341319">
        <ele>557.22000000000003</ele>
        <time>2025-05-20T10:32:45Z</time>
      </trkpt>
      <trkpt lat="46.907557966187596" lon="9.55812499858439">
        <ele>557.22000000000003</ele>
        <time>2025-05-20T10:32:46Z</time>
      </trkpt>
      <trkpt lat="46.907684030011296" lon="9.55814897082746">
        <ele>556.74000000000001</ele>
        <time>2025-05-20T10:32:47Z</time>
      </trkpt>
      <trkpt lat="46.907810010015965" lon="9.558173026889563">
        <ele>556.74000000000001</ele>
        <time>2025-05-20T10:32:48Z</time>
      </trkpt>
      <trkpt lat="46.907939007505774" lon="9.558196999132633">
        <ele>556.74000000000001</ele>
        <time>2025-05-20T10:32:49Z</time>
      </trkpt>
      <trkpt lat="46.909507010132074" lon="9.558486007153988">
        <ele>551.45000000000005</ele>
        <time>2025-05-20T10:33:02Z</time>
      </trkpt>
      <trkpt lat="46.911061014980078" lon="9.558861013501883">
        <ele>548.57000000000005</ele>
        <time>2025-05-20T10:33:15Z</time>
      </trkpt>
      <trkpt lat="46.912305979058146" lon="9.559356970712543">
        <ele>548.09000000000003</ele>
        <time>2025-05-20T10:33:23Z</time>
      </trkpt>
      <trkpt lat="46.914177993312478" lon="9.56038199365139">
        <ele>544.72000000000003</ele>
        <time>2025-05-20T10:33:34Z</time>
      </trkpt>
      <trkpt lat="46.916368016973138" lon="9.561356976628304">
        <ele>542.32000000000005</ele>
        <time>2025-05-20T10:33:46Z</time>
      </trkpt>
      <trkpt lat="46.918448992073536" lon="9.561919989064336">
        <ele>540.39999999999998</ele>
        <time>2025-05-20T10:33:58Z</time>
      </trkpt>
      <trkpt lat="46.919555990025401" lon="9.562388034537435">
        <ele>538.96000000000004</ele>
        <time>2025-05-20T10:34:07Z</time>
      </trkpt>
      <trkpt lat="46.92015303298831" lon="9.562911987304688">
        <ele>540.39999999999998</ele>
        <time>2025-05-20T10:34:15Z</time>
      </trkpt>
      <trkpt lat="46.920226039364934" lon="9.562976025044918">
        <ele>540.39999999999998</ele>
        <time>2025-05-20T10:34:16Z</time>
      </trkpt>
      <trkpt lat="46.920255040749907" lon="9.562980970367789">
        <ele>540.88</ele>
        <time>2025-05-20T10:34:17Z</time>
      </trkpt>
      <trkpt lat="46.920318994671106" lon="9.562990022823215">
        <ele>540.88</ele>
        <time>2025-05-20T10:34:18Z</time>
      </trkpt>
      <trkpt lat="46.920527033507824" lon="9.563019024208188">
        <ele>541.84000000000003</ele>
        <time>2025-05-20T10:34:21Z</time>
      </trkpt>
      <trkpt lat="46.920527033507824" lon="9.563019024208188">
        <ele>541.36000000000001</ele>
        <time>2025-05-20T10:34:22Z</time>
      </trkpt>
      <trkpt lat="46.920784022659063" lon="9.563105022534728">
        <ele>541.84000000000003</ele>
        <time>2025-05-20T10:34:23Z</time>
      </trkpt>
      <trkpt lat="46.920805983245373" lon="9.56311097368598">
        <ele>541.84000000000003</ele>
        <time>2025-05-20T10:34:24Z</time>
      </trkpt>
      <trkpt lat="46.920886030420661" lon="9.56313100643456">
        <ele>541.84000000000003</ele>
        <time>2025-05-20T10:34:25Z</time>
      </trkpt>
      <trkpt lat="46.921033971011639" lon="9.563166964799166">
        <ele>542.32000000000005</ele>
        <time>2025-05-20T10:34:27Z</time>
      </trkpt>
      <trkpt lat="46.921042017638683" lon="9.563169982284308">
        <ele>542.79999999999995</ele>
        <time>2025-05-20T10:34:28Z</time>
      </trkpt>
      <trkpt lat="46.921146959066391" lon="9.563098987564445">
        <ele>543.27999999999997</ele>
        <time>2025-05-20T10:34:29Z</time>
      </trkpt>
      <trkpt lat="46.921394979581237" lon="9.563118014484644">
        <ele>544.24000000000001</ele>
        <time>2025-05-20T10:34:32Z</time>
      </trkpt>
      <trkpt lat="46.921428004279733" lon="9.563105022534728">
        <ele>544.24000000000001</ele>
        <time>2025-05-20T10:34:33Z</time>
      </trkpt>
      <trkpt lat="46.921623973175883" lon="9.562878040596843">
        <ele>545.20000000000005</ele>
        <time>2025-05-20T10:34:35Z</time>
      </trkpt>
      <trkpt lat="46.922569032758474" lon="9.562699003145099">
        <ele>549.04999999999995</ele>
        <time>2025-05-20T10:34:43Z</time>
      </trkpt>
      <trkpt lat="46.924253962934017" lon="9.562559025362134">
        <ele>553.86000000000001</ele>
        <time>2025-05-20T10:34:53Z</time>
      </trkpt>
      <trkpt lat="46.926915971562266" lon="9.56233698874712">
        <ele>554.82000000000005</ele>
        <time>2025-05-20T10:35:08Z</time>
      </trkpt>
      <trkpt lat="46.927761035040021" lon="9.562438996508718">
        <ele>554.82000000000005</ele>
        <time>2025-05-20T10:35:16Z</time>
      </trkpt>
      <trkpt lat="46.929195011034608" lon="9.562633037567139">
        <ele>561.07000000000005</ele>
        <time>2025-05-20T10:35:28Z</time>
      </trkpt>
      <trkpt lat="46.930111991241574" lon="9.562706965953112">
        <ele>562.02999999999997</ele>
        <time>2025-05-20T10:35:37Z</time>
      </trkpt>
      <trkpt lat="46.93113399669528" lon="9.562767986208201">
        <ele>564.42999999999995</ele>
        <time>2025-05-20T10:35:50Z</time>
      </trkpt>
      <trkpt lat="46.931806979700923" lon="9.562849039211869">
        <ele>564.42999999999995</ele>
        <time>2025-05-20T10:35:58Z</time>
      </trkpt>
      <trkpt lat="46.931898007169366" lon="9.562869993969798">
        <ele>564.42999999999995</ele>
        <time>2025-05-20T10:35:59Z</time>
      </trkpt>
      <trkpt lat="46.931982999667525" lon="9.562891032546759">
        <ele>564.42999999999995</ele>
        <time>2025-05-20T10:36:00Z</time>
      </trkpt>
      <trkpt lat="46.932150973007083" lon="9.562927996739745">
        <ele>563.95000000000005</ele>
        <time>2025-05-20T10:36:02Z</time>
      </trkpt>
      <trkpt lat="46.932234959676862" lon="9.562945012003183">
        <ele>563.47000000000003</ele>
        <time>2025-05-20T10:36:03Z</time>
      </trkpt>
      <trkpt lat="46.932792020961642" lon="9.563060011714697">
        <ele>560.11000000000001</ele>
        <time>2025-05-20T10:36:10Z</time>
      </trkpt>
      <trkpt lat="46.932866033166647" lon="9.563090018928051">
        <ele>559.62</ele>
        <time>2025-05-20T10:36:11Z</time>
      </trkpt>
      <trkpt lat="46.932942979037762" lon="9.563122037798166">
        <ele>559.13999999999999</ele>
        <time>2025-05-20T10:36:12Z</time>
      </trkpt>
      <trkpt lat="46.933013973757625" lon="9.56315103918314">
        <ele>558.65999999999997</ele>
        <time>2025-05-20T10:36:13Z</time>
      </trkpt>
      <trkpt lat="46.933082034811378" lon="9.563186997547746">
        <ele>558.17999999999995</ele>
        <time>2025-05-20T10:36:14Z</time>
      </trkpt>
      <trkpt lat="46.933137020096183" lon="9.563226979225874">
        <ele>557.22000000000003</ele>
        <time>2025-05-20T10:36:15Z</time>
      </trkpt>
      <trkpt lat="46.933185970410705" lon="9.563263021409512">
        <ele>556.25999999999999</ele>
        <time>2025-05-20T10:36:16Z</time>
      </trkpt>
      <trkpt lat="46.933254031464458" lon="9.563311971724033">
        <ele>555.29999999999995</ele>
        <time>2025-05-20T10:36:17Z</time>
      </trkpt>
      <trkpt lat="46.933329971507192" lon="9.56336704082787">
        <ele>554.34000000000003</ele>
        <time>2025-05-20T10:36:18Z</time>
      </trkpt>
      <trkpt lat="46.933400966227055" lon="9.563419008627534">
        <ele>552.89999999999998</ele>
        <time>2025-05-20T10:36:19Z</time>
      </trkpt>
      <trkpt lat="46.933460980653763" lon="9.563463013619185">
        <ele>551.92999999999995</ele>
        <time>2025-05-20T10:36:20Z</time>
      </trkpt>
      <trkpt lat="46.933522000908852" lon="9.563507018610835">
        <ele>550.49000000000001</ele>
        <time>2025-05-20T10:36:21Z</time>
      </trkpt>
      <trkpt lat="46.933575980365276" lon="9.563558986410499">
        <ele>549.52999999999997</ele>
        <time>2025-05-20T10:36:22Z</time>
      </trkpt>
      <trkpt lat="46.933631971478462" lon="9.563609026372433">
        <ele>548.09000000000003</ele>
        <time>2025-05-20T10:36:23Z</time>
      </trkpt>
      <trkpt lat="46.933686034753919" lon="9.5636469963938">
        <ele>547.13</ele>
        <time>2025-05-20T10:36:24Z</time>
      </trkpt>
      <trkpt lat="46.934283999726176" lon="9.5640579611063">
        <ele>543.27999999999997</ele>
        <time>2025-05-20T10:36:33Z</time>
      </trkpt>
      <trkpt lat="46.934345019981265" lon="9.564091991633177">
        <ele>543.27999999999997</ele>
        <time>2025-05-20T10:36:34Z</time>
      </trkpt>
      <trkpt lat="46.934418026357889" lon="9.564144965261221">
        <ele>543.27999999999997</ele>
        <time>2025-05-20T10:36:35Z</time>
      </trkpt>
      <trkpt lat="46.934924963861704" lon="9.564514020457864">
        <ele>544.72000000000003</ele>
        <time>2025-05-20T10:36:43Z</time>
      </trkpt>
      <trkpt lat="46.934987995773554" lon="9.564559031277895">
        <ele>545.20000000000005</ele>
        <time>2025-05-20T10:36:44Z</time>
      </trkpt>
      <trkpt lat="46.9352360162884" lon="9.564739996567369">
        <ele>547.13</ele>
        <time>2025-05-20T10:36:48Z</time>
      </trkpt>
      <trkpt lat="46.935288989916444" lon="9.564778972417116">
        <ele>547.61000000000001</ele>
        <time>2025-05-20T10:36:49Z</time>
      </trkpt>
      <trkpt lat="46.935423016548157" lon="9.564887015148997">
        <ele>548.09000000000003</ele>
        <time>2025-05-20T10:36:51Z</time>
      </trkpt>
      <trkpt lat="46.935486970469356" lon="9.564928002655506">
        <ele>548.57000000000005</ele>
        <time>2025-05-20T10:36:52Z</time>
      </trkpt>
      <trkpt lat="46.935859965160489" lon="9.565176023170352">
        <ele>551.45000000000005</ele>
        <time>2025-05-20T10:36:58Z</time>
      </trkpt>
      <trkpt lat="46.935922997072339" lon="9.565219022333622">
        <ele>551.92999999999995</ele>
        <time>2025-05-20T10:36:59Z</time>
      </trkpt>
      <trkpt lat="46.935972031205893" lon="9.565251963213086">
        <ele>552.89999999999998</ele>
        <time>2025-05-20T10:37:00Z</time>
      </trkpt>
      <trkpt lat="46.936021987348795" lon="9.565285993739963">
        <ele>553.38</ele>
        <time>2025-05-20T10:37:01Z</time>
      </trkpt>
      <trkpt lat="46.936082001775503" lon="9.565325975418091">
        <ele>553.86000000000001</ele>
        <time>2025-05-20T10:37:02Z</time>
      </trkpt>
      <trkpt lat="46.936273025348783" lon="9.565455978736281">
        <ele>557.22000000000003</ele>
        <time>2025-05-20T10:37:09Z</time>
      </trkpt>
      <trkpt lat="46.936540994793177" lon="9.56562202423811">
        <ele>559.13999999999999</ele>
        <time>2025-05-20T10:37:17Z</time>
      </trkpt>
      <trkpt lat="46.936966963112354" lon="9.565866021439433">
        <ele>560.11000000000001</ele>
        <time>2025-05-20T10:37:24Z</time>
      </trkpt>
      <trkpt lat="46.937040975317359" lon="9.565909020602703">
        <ele>560.11000000000001</ele>
        <time>2025-05-20T10:37:25Z</time>
      </trkpt>
      <trkpt lat="46.937857959419489" lon="9.566421993076801">
        <ele>562.99000000000001</ele>
        <time>2025-05-20T10:37:37Z</time>
      </trkpt>
      <trkpt lat="46.937928032130003" lon="9.56645904108882">
        <ele>562.99000000000001</ele>
        <time>2025-05-20T10:37:38Z</time>
      </trkpt>
      <trkpt lat="46.938605038449168" lon="9.566816026344895">
        <ele>566.35000000000002</ele>
        <time>2025-05-20T10:37:48Z</time>
      </trkpt>
      <trkpt lat="46.939587984234095" lon="9.567160019651055">
        <ele>568.75999999999999</ele>
        <time>2025-05-20T10:38:01Z</time>
      </trkpt>
      <trkpt lat="46.939745983108878" lon="9.567220034077764">
        <ele>568.75999999999999</ele>
        <time>2025-05-20T10:38:03Z</time>
      </trkpt>
      <trkpt lat="46.939825024455786" lon="9.567250963300467">
        <ele>568.75999999999999</ele>
        <time>2025-05-20T10:38:04Z</time>
      </trkpt>
      <trkpt lat="46.939903981983662" lon="9.567280970513821">
        <ele>568.75999999999999</ele>
        <time>2025-05-20T10:38:05Z</time>
      </trkpt>
      <trkpt lat="46.940788021311164" lon="9.567624963819981">
        <ele>571.15999999999997</ele>
        <time>2025-05-20T10:38:16Z</time>
      </trkpt>
      <trkpt lat="46.941031012684107" lon="9.567716997116804">
        <ele>571.63999999999999</ele>
        <time>2025-05-20T10:38:19Z</time>
      </trkpt>
      <trkpt lat="46.941815977916121" lon="9.568156041204929">
        <ele>574.52999999999997</ele>
        <time>2025-05-20T10:38:28Z</time>
      </trkpt>
      <trkpt lat="46.942803030833602" lon="9.568576980382204">
        <ele>572.60000000000002</ele>
        <time>2025-05-20T10:38:39Z</time>
      </trkpt>
      <trkpt lat="46.943858982995152" lon="9.568740008398891">
        <ele>564.90999999999997</ele>
        <time>2025-05-20T10:38:48Z</time>
      </trkpt>
      <trkpt lat="46.944222003221512" lon="9.568717963993549">
        <ele>562.02999999999997</ele>
        <time>2025-05-20T10:38:51Z</time>
      </trkpt>
      <trkpt lat="46.944338008761406" lon="9.568705977872014">
        <ele>561.07000000000005</ele>
        <time>2025-05-20T10:38:52Z</time>
      </trkpt>
      <trkpt lat="46.945144012570381" lon="9.568451000377536">
        <ele>554.34000000000003</ele>
        <time>2025-05-20T10:38:59Z</time>
      </trkpt>
      <trkpt lat="46.945255994796753" lon="9.568480001762509">
        <ele>553.86000000000001</ele>
        <time>2025-05-20T10:39:00Z</time>
      </trkpt>
      <trkpt lat="46.945369988679886" lon="9.568510008975864">
        <ele>553.38</ele>
        <time>2025-05-20T10:39:01Z</time>
      </trkpt>
      <trkpt lat="46.945488005876541" lon="9.568550996482372">
        <ele>552.89999999999998</ele>
        <time>2025-05-20T10:39:02Z</time>
      </trkpt>
      <trkpt lat="46.945604011416435" lon="9.568626014515758">
        <ele>552.89999999999998</ele>
        <time>2025-05-20T10:39:03Z</time>
      </trkpt>
      <trkpt lat="46.945720016956329" lon="9.568701032549143">
        <ele>552.89999999999998</ele>
        <time>2025-05-20T10:39:04Z</time>
      </trkpt>
      <trkpt lat="46.945822024717927" lon="9.568788036704063">
        <ele>552.40999999999997</ele>
        <time>2025-05-20T10:39:05Z</time>
      </trkpt>
      <trkpt lat="46.946290992200375" lon="9.568978976458311">
        <ele>551.45000000000005</ele>
        <time>2025-05-20T10:39:09Z</time>
      </trkpt>
      <trkpt lat="46.946405991911888" lon="9.568961961194873">
        <ele>550.97000000000003</ele>
        <time>2025-05-20T10:39:10Z</time>
      </trkpt>
      <trkpt lat="46.946524009108543" lon="9.568945029750466">
        <ele>550.49000000000001</ele>
        <time>2025-05-20T10:39:11Z</time>
      </trkpt>
      <trkpt lat="46.947815995663404" lon="9.568596007302404">
        <ele>545.20000000000005</ele>
        <time>2025-05-20T10:39:22Z</time>
      </trkpt>
      <trkpt lat="46.948890974745154" lon="9.567972980439663">
        <ele>545.69000000000005</ele>
        <time>2025-05-20T10:39:32Z</time>
      </trkpt>
      <trkpt lat="46.94980300962925" lon="9.567479034885764">
        <ele>543.27999999999997</ele>
        <time>2025-05-20T10:39:40Z</time>
      </trkpt>
      <trkpt lat="46.949919015169144" lon="9.567421032115817">
        <ele>542.79999999999995</ele>
        <time>2025-05-20T10:39:41Z</time>
      </trkpt>
      <trkpt lat="46.950036026537418" lon="9.567362023517489">
        <ele>541.84000000000003</ele>
        <time>2025-05-20T10:39:42Z</time>
      </trkpt>
      <trkpt lat="46.950150020420551" lon="9.567305026575923">
        <ele>541.36000000000001</ele>
        <time>2025-05-20T10:39:43Z</time>
      </trkpt>
      <trkpt lat="46.951056020334363" lon="9.56688903272152">
        <ele>537.99000000000001</ele>
        <time>2025-05-20T10:39:51Z</time>
      </trkpt>
      <trkpt lat="46.952612036839128" lon="9.566441019997001">
        <ele>534.63</ele>
        <time>2025-05-20T10:40:04Z</time>
      </trkpt>
      <trkpt lat="46.953577967360616" lon="9.566194005310535">
        <ele>531.75</ele>
        <time>2025-05-20T10:40:12Z</time>
      </trkpt>
      <trkpt lat="46.954837013036013" lon="9.565894016996026">
        <ele>532.23000000000002</ele>
        <time>2025-05-20T10:40:23Z</time>
      </trkpt>
      <trkpt lat="46.955480994656682" lon="9.565744986757636">
        <ele>533.66999999999996</ele>
        <time>2025-05-20T10:40:31Z</time>
      </trkpt>
      <trkpt lat="46.955590965226293" lon="9.565744986757636">
        <ele>534.63</ele>
        <time>2025-05-20T10:40:32Z</time>
      </trkpt>
      <trkpt lat="46.955676041543484" lon="9.565744986757636">
        <ele>535.11000000000001</ele>
        <time>2025-05-20T10:40:33Z</time>
      </trkpt>
      <trkpt lat="46.956358999013901" lon="9.565826039761305">
        <ele>537.02999999999997</ele>
        <time>2025-05-20T10:40:42Z</time>
      </trkpt>
      <trkpt lat="46.956424964591861" lon="9.565958976745606">
        <ele>537.02999999999997</ele>
        <time>2025-05-20T10:40:43Z</time>
      </trkpt>
      <trkpt lat="46.956490008160472" lon="9.565981021150947">
        <ele>537.02999999999997</ele>
        <time>2025-05-20T10:40:45Z</time>
      </trkpt>
      <trkpt lat="46.956568965688348" lon="9.565900973975658">
        <ele>537.50999999999999</ele>
        <time>2025-05-20T10:40:46Z</time>
      </trkpt>
      <trkpt lat="46.956682959571481" lon="9.565895022824407">
        <ele>537.50999999999999</ele>
        <time>2025-05-20T10:40:47Z</time>
      </trkpt>
      <trkpt lat="46.956739034503698" lon="9.565898962318897">
        <ele>537.50999999999999</ele>
        <time>2025-05-20T10:40:48Z</time>
      </trkpt>
      <trkpt lat="46.956826960667968" lon="9.565907008945942">
        <ele>537.02999999999997</ele>
        <time>2025-05-20T10:40:49Z</time>
      </trkpt>
      <trkpt lat="46.957775959745049" lon="9.566042963415384">
        <ele>535.11000000000001</ele>
        <time>2025-05-20T10:40:57Z</time>
      </trkpt>
      <trkpt lat="46.958925034850836" lon="9.565782034769654">
        <ele>534.63</ele>
        <time>2025-05-20T10:41:04Z</time>
      </trkpt>
      <trkpt lat="46.961698019877076" lon="9.564819037914276">
        <ele>536.07000000000005</ele>
        <time>2025-05-20T10:41:20Z</time>
      </trkpt>
      <trkpt lat="46.964008994400501" lon="9.563984032720327">
        <ele>535.59000000000003</ele>
        <time>2025-05-20T10:41:34Z</time>
      </trkpt>
      <trkpt lat="46.965806996449828" lon="9.563270984217525">
        <ele>533.66999999999996</ele>
        <time>2025-05-20T10:41:46Z</time>
      </trkpt>
      <trkpt lat="46.966209998354316" lon="9.563169982284308">
        <ele>534.14999999999998</ele>
        <time>2025-05-20T10:41:51Z</time>
      </trkpt>
      <trkpt lat="46.966836964711547" lon="9.562798999249935">
        <ele>534.63</ele>
        <time>2025-05-20T10:41:58Z</time>
      </trkpt>
      <trkpt lat="46.967773977667093" lon="9.562676036730409">
        <ele>535.59000000000003</ele>
        <time>2025-05-20T10:42:08Z</time>
      </trkpt>
      <trkpt lat="46.968225007876754" lon="9.562780978158116">
        <ele>535.11000000000001</ele>
        <time>2025-05-20T10:42:13Z</time>
      </trkpt>
      <trkpt lat="46.968290973454714" lon="9.562739990651608">
        <ele>535.11000000000001</ele>
        <time>2025-05-20T10:42:14Z</time>
      </trkpt>
      <trkpt lat="46.968450983986259" lon="9.562596995383501">
        <ele>535.59000000000003</ele>
        <time>2025-05-20T10:42:16Z</time>
      </trkpt>
      <trkpt lat="46.968541005626321" lon="9.562576040625572">
        <ele>535.59000000000003</ele>
        <time>2025-05-20T10:42:17Z</time>
      </trkpt>
      <trkpt lat="46.968633038923144" lon="9.562556007876992">
        <ele>535.59000000000003</ele>
        <time>2025-05-20T10:42:18Z</time>
      </trkpt>
      <trkpt lat="46.968721970915794" lon="9.562534969300032">
        <ele>536.07000000000005</ele>
        <time>2025-05-20T10:42:19Z</time>
      </trkpt>
      <trkpt lat="46.968814004212618" lon="9.562526000663638">
        <ele>536.07000000000005</ele>
        <time>2025-05-20T10:42:20Z</time>
      </trkpt>
      <trkpt lat="46.968906037509441" lon="9.562516026198864">
        <ele>536.07000000000005</ele>
        <time>2025-05-20T10:42:21Z</time>
      </trkpt>
      <trkpt lat="46.969280038028955" lon="9.562448970973492">
        <ele>536.54999999999995</ele>
        <time>2025-05-20T10:42:25Z</time>
      </trkpt>
      <trkpt lat="46.969371987506747" lon="9.562418963760138">
        <ele>536.07000000000005</ele>
        <time>2025-05-20T10:42:26Z</time>
      </trkpt>
      <trkpt lat="46.96969703771174" lon="9.562413012608886">
        <ele>534.14999999999998</ele>
        <time>2025-05-20T10:42:30Z</time>
      </trkpt>
      <trkpt lat="46.969771971926093" lon="9.562268005684018">
        <ele>534.14999999999998</ele>
        <time>2025-05-20T10:42:31Z</time>
      </trkpt>
      <trkpt lat="46.96980600245297" lon="9.562215032055974">
        <ele>533.66999999999996</ele>
        <time>2025-05-20T10:42:32Z</time>
      </trkpt>
      <trkpt lat="46.970090987160802" lon="9.561756961047649">
        <ele>532.23000000000002</ele>
        <time>2025-05-20T10:42:37Z</time>
      </trkpt>
      <trkpt lat="46.970140021294355" lon="9.561652019619942">
        <ele>532.23000000000002</ele>
        <time>2025-05-20T10:42:38Z</time>
      </trkpt>
      <trkpt lat="46.970186959952116" lon="9.561552023515105">
        <ele>531.75</ele>
        <time>2025-05-20T10:42:39Z</time>
      </trkpt>
      <trkpt lat="46.970289973542094" lon="9.561425037682056">
        <ele>531.75</ele>
        <time>2025-05-20T10:42:40Z</time>
      </trkpt>
      <trkpt lat="46.970373960211873" lon="9.561411961913109">
        <ele>531.26999999999998</ele>
        <time>2025-05-20T10:42:41Z</time>
      </trkpt>
      <trkpt lat="46.970522990450263" lon="9.561388995498419">
        <ele>530.78999999999996</ele>
        <time>2025-05-20T10:42:42Z</time>
      </trkpt>
      <trkpt lat="46.970551991835237" lon="9.561355970799923">
        <ele>530.78999999999996</ele>
        <time>2025-05-20T10:42:43Z</time>
      </trkpt>
      <trkpt lat="46.970635978505015" lon="9.561263015493751">
        <ele>530.29999999999995</ele>
        <time>2025-05-20T10:42:44Z</time>
      </trkpt>
      <trkpt lat="46.970906965434551" lon="9.560960009694099">
        <ele>529.82000000000005</ele>
        <time>2025-05-20T10:42:47Z</time>
      </trkpt>
      <trkpt lat="46.971001010388136" lon="9.560855990275741">
        <ele>529.82000000000005</ele>
        <time>2025-05-20T10:42:48Z</time>
      </trkpt>
      <trkpt lat="46.971998959779739" lon="9.559810012578964">
        <ele>530.29999999999995</ele>
        <time>2025-05-20T10:42:57Z</time>
      </trkpt>
      <trkpt lat="46.973099000751972" lon="9.558302024379373">
        <ele>528.38</ele>
        <time>2025-05-20T10:43:06Z</time>
      </trkpt>
      <trkpt lat="46.974270958453417" lon="9.556464962661266">
        <ele>530.29999999999995</ele>
        <time>2025-05-20T10:43:16Z</time>
      </trkpt>
      <trkpt lat="46.975557999685407" lon="9.554474009200931">
        <ele>526.46000000000004</ele>
        <time>2025-05-20T10:43:26Z</time>
      </trkpt>
      <trkpt lat="46.977407969534397" lon="9.552362021058798">
        <ele>523.58000000000004</ele>
        <time>2025-05-20T10:43:38Z</time>
      </trkpt>
      <trkpt lat="46.979423984885216" lon="9.550850009545684">
        <ele>521.64999999999998</ele>
        <time>2025-05-20T10:43:50Z</time>
      </trkpt>
      <trkpt lat="46.981587018817663" lon="9.549206988885999">
        <ele>519.25</ele>
        <time>2025-05-20T10:44:03Z</time>
      </trkpt>
      <trkpt lat="46.983615020290017" lon="9.547706041485071">
        <ele>515.39999999999998</ele>
        <time>2025-05-20T10:44:15Z</time>
      </trkpt>
      <trkpt lat="46.985338004305959" lon="9.54671798273921">
        <ele>512.03999999999996</ele>
        <time>2025-05-20T10:44:25Z</time>
      </trkpt>
      <trkpt lat="46.987335998564959" lon="9.545626994222403">
        <ele>510.60000000000002</ele>
        <time>2025-05-20T10:44:37Z</time>
      </trkpt>
      <trkpt lat="46.989073986187577" lon="9.544667014852166">
        <ele>511.56</ele>
        <time>2025-05-20T10:44:47Z</time>
      </trkpt>
      <trkpt lat="46.990488013252616" lon="9.543897975236177">
        <ele>513.96000000000004</ele>
        <time>2025-05-20T10:44:55Z</time>
      </trkpt>
      <trkpt lat="46.992239998653531" lon="9.542917963117361">
        <ele>513.96000000000004</ele>
        <time>2025-05-20T10:45:05Z</time>
      </trkpt>
      <trkpt lat="46.99329100549221" lon="9.541806019842625">
        <ele>512.51999999999998</ele>
        <time>2025-05-20T10:45:12Z</time>
      </trkpt>
      <trkpt lat="46.994818020612001" lon="9.540123017504811">
        <ele>512.03999999999996</ele>
        <time>2025-05-20T10:45:22Z</time>
      </trkpt>
      <trkpt lat="46.996499011293054" lon="9.53827103599906">
        <ele>509.63999999999999</ele>
        <time>2025-05-20T10:45:33Z</time>
      </trkpt>
      <trkpt lat="46.997381960973144" lon="9.537296975031495">
        <ele>507.70999999999998</ele>
        <time>2025-05-20T10:45:39Z</time>
      </trkpt>
      <trkpt lat="46.998310005292296" lon="9.535999037325382">
        <ele>505.31</ele>
        <time>2025-05-20T10:45:46Z</time>
      </trkpt>
      <trkpt lat="46.998586021363735" lon="9.535640962421894">
        <ele>504.82999999999998</ele>
        <time>2025-05-20T10:45:48Z</time>
      </trkpt>
      <trkpt lat="47.000195011496544" lon="9.534013029187918">
        <ele>503.38999999999999</ele>
        <time>2025-05-20T10:45:59Z</time>
      </trkpt>
      <trkpt lat="47.001322964206338" lon="9.532891027629376">
        <ele>504.35000000000002</ele>
        <time>2025-05-20T10:46:08Z</time>
      </trkpt>
      <trkpt lat="47.002430967986584" lon="9.531733989715576">
        <ele>503.38999999999999</ele>
        <time>2025-05-20T10:46:19Z</time>
      </trkpt>
      <trkpt lat="47.003247030079365" lon="9.530937960371375">
        <ele>504.82999999999998</ele>
        <time>2025-05-20T10:46:27Z</time>
      </trkpt>
      <trkpt lat="47.003352977335453" lon="9.530856991186738">
        <ele>505.31</ele>
        <time>2025-05-20T10:46:28Z</time>
      </trkpt>
      <trkpt lat="47.003460014238954" lon="9.530779039487243">
        <ele>505.31</ele>
        <time>2025-05-20T10:46:29Z</time>
      </trkpt>
      <trkpt lat="47.004345981404185" lon="9.530315017327666">
        <ele>505.31</ele>
        <time>2025-05-20T10:46:38Z</time>
      </trkpt>
      <trkpt lat="47.004902958869934" lon="9.530029026791453">
        <ele>503.38999999999999</ele>
        <time>2025-05-20T10:46:44Z</time>
      </trkpt>
      <trkpt lat="47.004989963024855" lon="9.529984015971422">
        <ele>502.43000000000001</ele>
        <time>2025-05-20T10:46:45Z</time>
      </trkpt>
      <trkpt lat="47.005047965794802" lon="9.529953002929688">
        <ele>501.94999999999999</ele>
        <time>2025-05-20T10:46:46Z</time>
      </trkpt>
      <trkpt lat="47.005126001313329" lon="9.530050987377763">
        <ele>501.45999999999998</ele>
        <time>2025-05-20T10:46:47Z</time>
      </trkpt>
      <trkpt lat="47.005267990753055" lon="9.530228013172746">
        <ele>501.45999999999998</ele>
        <time>2025-05-20T10:46:49Z</time>
      </trkpt>
      <trkpt lat="47.005852041766047" lon="9.530999986454845">
        <ele>501.94999999999999</ele>
        <time>2025-05-20T10:46:57Z</time>
      </trkpt>
      <trkpt lat="47.005910966545343" lon="9.531107023358345">
        <ele>501.94999999999999</ele>
        <time>2025-05-20T10:46:58Z</time>
      </trkpt>
      <trkpt lat="47.006192011758685" lon="9.531607003882527">
        <ele>504.82999999999998</ele>
        <time>2025-05-20T10:47:03Z</time>
      </trkpt>
      <trkpt lat="47.006242973729968" lon="9.531648997217417">
        <ele>506.26999999999998</ele>
        <time>2025-05-20T10:47:04Z</time>
      </trkpt>
      <trkpt lat="47.006301982328296" lon="9.531689984723926">
        <ele>507.23000000000002</ele>
        <time>2025-05-20T10:47:05Z</time>
      </trkpt>
      <trkpt lat="47.006335007026792" lon="9.531685961410403">
        <ele>508.19</ele>
        <time>2025-05-20T10:47:06Z</time>
      </trkpt>
      <trkpt lat="47.006365014240146" lon="9.531682021915913">
        <ele>509.16000000000003</ele>
        <time>2025-05-20T10:47:07Z</time>
      </trkpt>
      <trkpt lat="47.006401978433132" lon="9.53167799860239">
        <ele>510.12</ele>
        <time>2025-05-20T10:47:08Z</time>
      </trkpt>
      <trkpt lat="47.006465010344982" lon="9.531670035794377">
        <ele>511.07999999999998</ele>
        <time>2025-05-20T10:47:09Z</time>
      </trkpt>
      <trkpt lat="47.006509015336633" lon="9.531662994995713">
        <ele>512.03999999999996</ele>
        <time>2025-05-20T10:47:10Z</time>
      </trkpt>
      <trkpt lat="47.006569029763341" lon="9.531652014702559">
        <ele>512.51999999999998</ele>
        <time>2025-05-20T10:47:11Z</time>
      </trkpt>
      <trkpt lat="47.006638012826443" lon="9.531641034409404">
        <ele>513.48000000000002</ele>
        <time>2025-05-20T10:47:12Z</time>
      </trkpt>
      <trkpt lat="47.00671898201108" lon="9.531627036631107">
        <ele>514.44000000000005</ele>
        <time>2025-05-20T10:47:13Z</time>
      </trkpt>
      <trkpt lat="47.006806991994381" lon="9.531613038852811">
        <ele>514.44000000000005</ele>
        <time>2025-05-20T10:47:14Z</time>
      </trkpt>
      <trkpt lat="47.006902964785695" lon="9.531584037467837">
        <ele>513.96000000000004</ele>
        <time>2025-05-20T10:47:15Z</time>
      </trkpt>
      <trkpt lat="47.006989968940616" lon="9.531584037467837">
        <ele>513.96000000000004</ele>
        <time>2025-05-20T10:47:16Z</time>
      </trkpt>
      <trkpt lat="47.007136987522244" lon="9.531544977799058">
        <ele>513</ele>
        <time>2025-05-20T10:47:18Z</time>
      </trkpt>
      <trkpt lat="47.007203958928585" lon="9.53152603469789">
        <ele>513.48000000000002</ele>
        <time>2025-05-20T10:47:19Z</time>
      </trkpt>
      <trkpt lat="47.007323987782001" lon="9.531466020271182">
        <ele>513.96000000000004</ele>
        <time>2025-05-20T10:47:21Z</time>
      </trkpt>
      <trkpt lat="47.007375033572316" lon="9.531393013894558">
        <ele>513.96000000000004</ele>
        <time>2025-05-20T10:47:22Z</time>
      </trkpt>
      <trkpt lat="47.007423983886838" lon="9.531322019174695">
        <ele>514.44000000000005</ele>
        <time>2025-05-20T10:47:23Z</time>
      </trkpt>
      <trkpt lat="47.007451979443431" lon="9.531282959505916">
        <ele>514.91999999999996</ele>
        <time>2025-05-20T10:47:24Z</time>
      </trkpt>
      <trkpt lat="47.007451979443431" lon="9.531282959505916">
        <ele>514.91999999999996</ele>
        <time>2025-05-20T10:47:25Z</time>
      </trkpt>
      <trkpt lat="47.007560022175312" lon="9.531208025291562">
        <ele>515.39999999999998</ele>
        <time>2025-05-20T10:47:26Z</time>
      </trkpt>
      <trkpt lat="47.007610984146595" lon="9.531171983107925">
        <ele>515.39999999999998</ele>
        <time>2025-05-20T10:47:27Z</time>
      </trkpt>
      <trkpt lat="47.007669992744923" lon="9.531129989773035">
        <ele>515.88</ele>
        <time>2025-05-20T10:47:28Z</time>
      </trkpt>
      <trkpt lat="47.007732018828392" lon="9.531081039458513">
        <ele>515.88</ele>
        <time>2025-05-20T10:47:29Z</time>
      </trkpt>
      <trkpt lat="47.0077920332551" lon="9.53103200532496">
        <ele>516.37</ele>
        <time>2025-05-20T10:47:30Z</time>
      </trkpt>
      <trkpt lat="47.007848024368286" lon="9.530988000333309">
        <ele>516.85000000000002</ele>
        <time>2025-05-20T10:47:31Z</time>
      </trkpt>
      <trkpt lat="47.007954977452755" lon="9.530937038362026">
        <ele>517.33000000000004</ele>
        <time>2025-05-20T10:47:33Z</time>
      </trkpt>
      <trkpt lat="47.008022032678127" lon="9.530913988128305">
        <ele>517.33000000000004</ele>
        <time>2025-05-20T10:47:34Z</time>
      </trkpt>
      <trkpt lat="47.008192017674446" lon="9.530806029215455">
        <ele>517.80999999999995</ele>
        <time>2025-05-20T10:47:37Z</time>
      </trkpt>
      <trkpt lat="47.008248008787632" lon="9.530763030052185">
        <ele>518.28999999999996</ele>
        <time>2025-05-20T10:47:38Z</time>
      </trkpt>
      <trkpt lat="47.008305005729198" lon="9.530720030888915">
        <ele>518.28999999999996</ele>
        <time>2025-05-20T10:47:39Z</time>
      </trkpt>
      <trkpt lat="47.008370971307158" lon="9.530648030340672">
        <ele>518.76999999999998</ele>
        <time>2025-05-20T10:47:40Z</time>
      </trkpt>
      <trkpt lat="47.008412964642048" lon="9.530565971508622">
        <ele>519.25</ele>
        <time>2025-05-20T10:47:41Z</time>
      </trkpt>
      <trkpt lat="47.008463004603982" lon="9.530469998717308">
        <ele>519.73000000000002</ele>
        <time>2025-05-20T10:47:42Z</time>
      </trkpt>
      <trkpt lat="47.008513966575265" lon="9.530372014269233">
        <ele>520.21000000000004</ele>
        <time>2025-05-20T10:47:43Z</time>
      </trkpt>
      <trkpt lat="47.008868018165231" lon="9.529687967151403">
        <ele>525.01999999999998</ele>
        <time>2025-05-20T10:47:51Z</time>
      </trkpt>
      <trkpt lat="47.008947981521487" lon="9.529534997418523">
        <ele>525.98000000000002</ele>
        <time>2025-05-20T10:47:53Z</time>
      </trkpt>
      <trkpt lat="47.008954016491771" lon="9.529524017125368">
        <ele>525.98000000000002</ele>
        <time>2025-05-20T10:47:54Z</time>
      </trkpt>
      <trkpt lat="47.009015958756208" lon="9.529482023790479">
        <ele>526.46000000000004</ele>
        <time>2025-05-20T10:47:55Z</time>
      </trkpt>
      <trkpt lat="47.0090820081532" lon="9.529438018798828">
        <ele>526.94000000000005</ele>
        <time>2025-05-20T10:47:56Z</time>
      </trkpt>
      <trkpt lat="47.009135987609625" lon="9.52946400269866">
        <ele>526.94000000000005</ele>
        <time>2025-05-20T10:47:57Z</time>
      </trkpt>
      <trkpt lat="47.009207988157868" lon="9.529498033225536">
        <ele>527.41999999999996</ele>
        <time>2025-05-20T10:47:58Z</time>
      </trkpt>
      <trkpt lat="47.009270014241338" lon="9.529528040438891">
        <ele>528.38</ele>
        <time>2025-05-20T10:47:59Z</time>
      </trkpt>
      <trkpt lat="47.009328017011285" lon="9.529556035995483">
        <ele>528.86000000000001</ele>
        <time>2025-05-20T10:48:00Z</time>
      </trkpt>
      <trkpt lat="47.009399011731148" lon="9.529589982703328">
        <ele>529.82000000000005</ele>
        <time>2025-05-20T10:48:01Z</time>
      </trkpt>
      <trkpt lat="47.00948903337121" lon="9.529632981866598">
        <ele>530.29999999999995</ele>
        <time>2025-05-20T10:48:02Z</time>
      </trkpt>
      <trkpt lat="47.009619036689401" lon="9.529696013778448">
        <ele>530.78999999999996</ele>
        <time>2025-05-20T10:48:03Z</time>
      </trkpt>
      <trkpt lat="47.009676033630967" lon="9.52970003709197">
        <ele>531.26999999999998</ele>
        <time>2025-05-20T10:48:04Z</time>
      </trkpt>
      <trkpt lat="47.009767983108759" lon="9.529706994071603">
        <ele>531.26999999999998</ele>
        <time>2025-05-20T10:48:05Z</time>
      </trkpt>
      <trkpt lat="47.009864039719105" lon="9.529715040698648">
        <ele>531.26999999999998</ele>
        <time>2025-05-20T10:48:06Z</time>
      </trkpt>
      <trkpt lat="47.009951965883374" lon="9.52972199767828">
        <ele>530.78999999999996</ele>
        <time>2025-05-20T10:48:07Z</time>
      </trkpt>
      <trkpt lat="47.010163022205234" lon="9.529725015163422">
        <ele>532.23000000000002</ele>
        <time>2025-05-20T10:48:10Z</time>
      </trkpt>
      <trkpt lat="47.010209038853645" lon="9.529643962159753">
        <ele>533.19000000000005</ele>
        <time>2025-05-20T10:48:11Z</time>
      </trkpt>
      <trkpt lat="47.010261006653309" lon="9.529554024338722">
        <ele>533.66999999999996</ele>
        <time>2025-05-20T10:48:12Z</time>
      </trkpt>
      <trkpt lat="47.010313980281353" lon="9.529459979385138">
        <ele>534.14999999999998</ele>
        <time>2025-05-20T10:48:13Z</time>
      </trkpt>
      <trkpt lat="47.010366031900048" lon="9.529370041564107">
        <ele>535.11000000000001</ele>
        <time>2025-05-20T10:48:14Z</time>
      </trkpt>
      <trkpt lat="47.010412970557809" lon="9.529287982732058">
        <ele>536.07000000000005</ele>
        <time>2025-05-20T10:48:15Z</time>
      </trkpt>
      <trkpt lat="47.010485976934433" lon="9.529214976355434">
        <ele>537.02999999999997</ele>
        <time>2025-05-20T10:48:16Z</time>
      </trkpt>
      <trkpt lat="47.010554037988186" lon="9.529145993292332">
        <ele>537.99000000000001</ele>
        <time>2025-05-20T10:48:17Z</time>
      </trkpt>
      <trkpt lat="47.010628972202539" lon="9.529068963602185">
        <ele>538.96000000000004</ele>
        <time>2025-05-20T10:48:18Z</time>
      </trkpt>
      <trkpt lat="47.010669959709048" lon="9.528958993032575">
        <ele>539.91999999999996</ele>
        <time>2025-05-20T10:48:19Z</time>
      </trkpt>
      <trkpt lat="47.010713964700699" lon="9.528842987492681">
        <ele>540.88</ele>
        <time>2025-05-20T10:48:20Z</time>
      </trkpt>
      <trkpt lat="47.010757969692349" lon="9.528724970296025">
        <ele>542.32000000000005</ele>
        <time>2025-05-20T10:48:21Z</time>
      </trkpt>
      <trkpt lat="47.010977994650602" lon="9.528251979500055">
        <ele>544.72000000000003</ele>
        <time>2025-05-20T10:48:25Z</time>
      </trkpt>
      <trkpt lat="47.011047983542085" lon="9.528150977566838">
        <ele>545.69000000000005</ele>
        <time>2025-05-20T10:48:26Z</time>
      </trkpt>
      <trkpt lat="47.011129958555102" lon="9.528074031695724">
        <ele>545.69000000000005</ele>
        <time>2025-05-20T10:48:27Z</time>
      </trkpt>
      <trkpt lat="47.011221991851926" lon="9.528015023097396">
        <ele>546.64999999999998</ele>
        <time>2025-05-20T10:48:28Z</time>
      </trkpt>
      <trkpt lat="47.011314025148749" lon="9.527956014499068">
        <ele>547.13</ele>
        <time>2025-05-20T10:48:29Z</time>
      </trkpt>
      <trkpt lat="47.011412009596825" lon="9.527915026992559">
        <ele>547.61000000000001</ele>
        <time>2025-05-20T10:48:30Z</time>
      </trkpt>
      <trkpt lat="47.011515023186803" lon="9.527915026992559">
        <ele>548.57000000000005</ele>
        <time>2025-05-20T10:48:31Z</time>
      </trkpt>
      <trkpt lat="47.011621976271272" lon="9.527915026992559">
        <ele>549.52999999999997</ele>
        <time>2025-05-20T10:48:32Z</time>
      </trkpt>
      <trkpt lat="47.011725995689631" lon="9.527915026992559">
        <ele>550.49000000000001</ele>
        <time>2025-05-20T10:48:33Z</time>
      </trkpt>
      <trkpt lat="47.011820040643215" lon="9.527915026992559">
        <ele>550.97000000000003</ele>
        <time>2025-05-20T10:48:34Z</time>
      </trkpt>
      <trkpt lat="47.011894974857569" lon="9.527848977595568">
        <ele>551.92999999999995</ele>
        <time>2025-05-20T10:48:35Z</time>
      </trkpt>
      <trkpt lat="47.012001005932689" lon="9.527743030339479">
        <ele>552.40999999999997</ele>
        <time>2025-05-20T10:48:36Z</time>
      </trkpt>
      <trkpt lat="47.012059008702636" lon="9.527648985385895">
        <ele>552.89999999999998</ele>
        <time>2025-05-20T10:48:37Z</time>
      </trkpt>
      <trkpt lat="47.012136038392782" lon="9.527524011209607">
        <ele>553.38</ele>
        <time>2025-05-20T10:48:38Z</time>
      </trkpt>
      <trkpt lat="47.0122180134058" lon="9.527393002063036">
        <ele>553.86000000000001</ele>
        <time>2025-05-20T10:48:39Z</time>
      </trkpt>
      <trkpt lat="47.012308035045862" lon="9.527257969602943">
        <ele>553.86000000000001</ele>
        <time>2025-05-20T10:48:40Z</time>
      </trkpt>
      <trkpt lat="47.012634007260203" lon="9.526887992396951">
        <ele>554.34000000000003</ele>
        <time>2025-05-20T10:48:43Z</time>
      </trkpt>
      <trkpt lat="47.012775996699929" lon="9.526809034869075">
        <ele>554.82000000000005</ele>
        <time>2025-05-20T10:48:44Z</time>
      </trkpt>
      <trkpt lat="47.012931983917952" lon="9.526766035705805">
        <ele>555.29999999999995</ele>
        <time>2025-05-20T10:48:45Z</time>
      </trkpt>
      <trkpt lat="47.01374402269721" lon="9.526537964120507">
        <ele>560.11000000000001</ele>
        <time>2025-05-20T10:48:50Z</time>
      </trkpt>
      <trkpt lat="47.013905961066484" lon="9.526466969400644">
        <ele>561.07000000000005</ele>
        <time>2025-05-20T10:48:51Z</time>
      </trkpt>
      <trkpt lat="47.014057002961636" lon="9.52636999078095">
        <ele>562.99000000000001</ele>
        <time>2025-05-20T10:48:52Z</time>
      </trkpt>
      <trkpt lat="47.01494699344039" lon="9.525758028030396">
        <ele>570.67999999999995</ele>
        <time>2025-05-20T10:48:58Z</time>
      </trkpt>
      <trkpt lat="47.015093006193638" lon="9.52570203691721">
        <ele>572.12</ele>
        <time>2025-05-20T10:48:59Z</time>
      </trkpt>
      <trkpt lat="47.015242958441377" lon="9.525649985298514">
        <ele>573.55999999999995</ele>
        <time>2025-05-20T10:49:00Z</time>
      </trkpt>
      <trkpt lat="47.015394000336528" lon="9.525598017498851">
        <ele>574.52999999999997</ele>
        <time>2025-05-20T10:49:01Z</time>
      </trkpt>
      <trkpt lat="47.015547975897789" lon="9.525540014728904">
        <ele>575.49000000000001</ele>
        <time>2025-05-20T10:49:02Z</time>
      </trkpt>
      <trkpt lat="47.015701029449701" lon="9.525460973381996">
        <ele>576.45000000000005</ele>
        <time>2025-05-20T10:49:03Z</time>
      </trkpt>
      <trkpt lat="47.016428997740149" lon="9.52514598146081">
        <ele>583.65999999999997</ele>
        <time>2025-05-20T10:49:08Z</time>
      </trkpt>
      <trkpt lat="47.016549026593566" lon="9.525180011987686">
        <ele>585.58000000000004</ele>
        <time>2025-05-20T10:49:09Z</time>
      </trkpt>
      <trkpt lat="47.016663020476699" lon="9.525216976180673">
        <ele>587.01999999999998</ele>
        <time>2025-05-20T10:49:10Z</time>
      </trkpt>
      <trkpt lat="47.016770979389548" lon="9.525324013084173">
        <ele>588.46000000000004</ele>
        <time>2025-05-20T10:49:11Z</time>
      </trkpt>
      <trkpt lat="47.01688002794981" lon="9.525442030280829">
        <ele>590.38999999999999</ele>
        <time>2025-05-20T10:49:12Z</time>
      </trkpt>
      <trkpt lat="47.016987986862659" lon="9.525581002235413">
        <ele>592.30999999999995</ele>
        <time>2025-05-20T10:49:13Z</time>
      </trkpt>
      <trkpt lat="47.018147958442569" lon="9.527074992656708">
        <ele>610.57000000000005</ele>
        <time>2025-05-20T10:49:23Z</time>
      </trkpt>
      <trkpt lat="47.018740978091955" lon="9.527788041159511">
        <ele>617.77999999999997</ele>
        <time>2025-05-20T10:49:29Z</time>
      </trkpt>
      <trkpt lat="47.018842985853553" lon="9.527865992859006">
        <ele>618.75</ele>
        <time>2025-05-20T10:49:30Z</time>
      </trkpt>
      <trkpt lat="47.019380014389753" lon="9.528218032792211">
        <ele>624.99000000000001</ele>
        <time>2025-05-20T10:49:34Z</time>
      </trkpt>
      <trkpt lat="47.019541030749679" lon="9.528293972834945">
        <ele>626.91999999999996</ele>
        <time>2025-05-20T10:49:35Z</time>
      </trkpt>
      <trkpt lat="47.019699029624462" lon="9.528353987261653">
        <ele>629.32000000000005</ele>
        <time>2025-05-20T10:49:36Z</time>
      </trkpt>
      <trkpt lat="47.019855016842484" lon="9.528412995859981">
        <ele>631.72000000000003</ele>
        <time>2025-05-20T10:49:37Z</time>
      </trkpt>
      <trkpt lat="47.020009998232126" lon="9.528472004458308">
        <ele>633.64999999999998</ele>
        <time>2025-05-20T10:49:38Z</time>
      </trkpt>
      <trkpt lat="47.02016799710691" lon="9.528531013056636">
        <ele>635.57000000000005</ele>
        <time>2025-05-20T10:49:39Z</time>
      </trkpt>
      <trkpt lat="47.02032096683979" lon="9.528590021654964">
        <ele>637.97000000000003</ele>
        <time>2025-05-20T10:49:40Z</time>
      </trkpt>
      <trkpt lat="47.020892025902867" lon="9.528751960024238">
        <ele>646.62</ele>
        <time>2025-05-20T10:49:44Z</time>
      </trkpt>
      <trkpt lat="47.021319000050426" lon="9.528775010257959">
        <ele>652.87</ele>
        <time>2025-05-20T10:49:47Z</time>
      </trkpt>
      <trkpt lat="47.021464006975293" lon="9.528717007488012">
        <ele>655.27999999999997</ele>
        <time>2025-05-20T10:49:48Z</time>
      </trkpt>
      <trkpt lat="47.021763995289803" lon="9.528596978634596">
        <ele>659.60000000000002</ele>
        <time>2025-05-20T10:49:50Z</time>
      </trkpt>
      <trkpt lat="47.021919982507825" lon="9.528593961149454">
        <ele>662.00999999999999</ele>
        <time>2025-05-20T10:49:51Z</time>
      </trkpt>
      <trkpt lat="47.021977985277772" lon="9.528601001948118">
        <ele>664.40999999999997</ele>
        <time>2025-05-20T10:49:52Z</time>
      </trkpt>
      <trkpt lat="47.022217037156224" lon="9.528789008036256">
        <ele>666.80999999999995</ele>
        <time>2025-05-20T10:49:53Z</time>
      </trkpt>
      <trkpt lat="47.022369001060724" lon="9.528909036889672">
        <ele>668.73000000000002</ele>
        <time>2025-05-20T10:49:54Z</time>
      </trkpt>
      <trkpt lat="47.022836962714791" lon="9.529298041015863">
        <ele>674.5</ele>
        <time>2025-05-20T10:49:57Z</time>
      </trkpt>
      <trkpt lat="47.022992027923465" lon="9.529442964121699">
        <ele>676.41999999999996</ele>
        <time>2025-05-20T10:49:58Z</time>
      </trkpt>
      <trkpt lat="47.023152038455009" lon="9.529590988531709">
        <ele>678.35000000000002</ele>
        <time>2025-05-20T10:49:59Z</time>
      </trkpt>
      <trkpt lat="47.023716978728771" lon="9.530060039833188">
        <ele>687.48000000000002</ele>
        <time>2025-05-20T10:50:03Z</time>
      </trkpt>
      <trkpt lat="47.023867014795542" lon="9.530082000419498">
        <ele>690.36000000000001</ele>
        <time>2025-05-20T10:50:04Z</time>
      </trkpt>
      <trkpt lat="47.024006992578506" lon="9.530035983771086">
        <ele>692.28999999999996</ele>
        <time>2025-05-20T10:50:05Z</time>
      </trkpt>
      <trkpt lat="47.024878961965442" lon="9.529876979067922">
        <ele>699.98000000000002</ele>
        <time>2025-05-20T10:50:10Z</time>
      </trkpt>
      <trkpt lat="47.025063028559089" lon="9.529898017644882">
        <ele>700.94000000000005</ele>
        <time>2025-05-20T10:50:11Z</time>
      </trkpt>
      <trkpt lat="47.026445958763361" lon="9.529863987118006">
        <ele>705.25999999999999</ele>
        <time>2025-05-20T10:50:18Z</time>
      </trkpt>
      <trkpt lat="47.027901979163289" lon="9.529627030715346">
        <ele>714.88</ele>
        <time>2025-05-20T10:50:26Z</time>
      </trkpt>
      <trkpt lat="47.028248989954591" lon="9.529489986598492">
        <ele>718.24000000000001</ele>
        <time>2025-05-20T10:50:28Z</time>
      </trkpt>
      <trkpt lat="47.028553001582623" lon="9.529257975518704">
        <ele>721.13</ele>
        <time>2025-05-20T10:50:30Z</time>
      </trkpt>
      <trkpt lat="47.02867696993053" lon="9.529125960543752">
        <ele>722.57000000000005</ele>
        <time>2025-05-20T10:50:31Z</time>
      </trkpt>
      <trkpt lat="47.029241994023323" lon="9.528440991416574">
        <ele>724.97000000000003</ele>
        <time>2025-05-20T10:50:36Z</time>
      </trkpt>
      <trkpt lat="47.029350036755204" lon="9.528345018625259">
        <ele>724.97000000000003</ele>
        <time>2025-05-20T10:50:37Z</time>
      </trkpt>
      <trkpt lat="47.029423965141177" lon="9.528278969228268">
        <ele>724.97000000000003</ele>
        <time>2025-05-20T10:50:38Z</time>
      </trkpt>
      <trkpt lat="47.029568972066045" lon="9.528219038620591">
        <ele>724.97000000000003</ele>
        <time>2025-05-20T10:50:39Z</time>
      </trkpt>
      <trkpt lat="47.029683971777558" lon="9.528171010315418">
        <ele>724.97000000000003</ele>
        <time>2025-05-20T10:50:40Z</time>
      </trkpt>
      <trkpt lat="47.029796959832311" lon="9.528123987838626">
        <ele>724.97000000000003</ele>
        <time>2025-05-20T10:50:41Z</time>
      </trkpt>
      <trkpt lat="47.031032033264637" lon="9.527785023674369">
        <ele>723.04999999999995</ele>
        <time>2025-05-20T10:50:50Z</time>
      </trkpt>
      <trkpt lat="47.032295018434525" lon="9.527275990694761">
        <ele>718.72000000000003</ele>
        <time>2025-05-20T10:50:58Z</time>
      </trkpt>
      <trkpt lat="47.03245896846056" lon="9.527287976816297">
        <ele>718.24000000000001</ele>
        <time>2025-05-20T10:50:59Z</time>
      </trkpt>
      <trkpt lat="47.032625013962388" lon="9.527301974594593">
        <ele>718.24000000000001</ele>
        <time>2025-05-20T10:51:00Z</time>
      </trkpt>
      <trkpt lat="47.032793993130326" lon="9.527314966544509">
        <ele>717.75999999999999</ele>
        <time>2025-05-20T10:51:01Z</time>
      </trkpt>
      <trkpt lat="47.032963978126645" lon="9.527327958494425">
        <ele>717.27999999999997</ele>
        <time>2025-05-20T10:51:02Z</time>
      </trkpt>
      <trkpt lat="47.033139998093247" lon="9.52731597237289">
        <ele>716.79999999999995</ele>
        <time>2025-05-20T10:51:03Z</time>
      </trkpt>
      <trkpt lat="47.033320041373372" lon="9.527276996523142">
        <ele>716.32000000000005</ele>
        <time>2025-05-20T10:51:04Z</time>
      </trkpt>
      <trkpt lat="47.033502012491226" lon="9.527238020673394">
        <ele>716.32000000000005</ele>
        <time>2025-05-20T10:51:05Z</time>
      </trkpt>
      <trkpt lat="47.034533992409706" lon="9.527098964899778">
        <ele>713.91999999999996</ele>
        <time>2025-05-20T10:51:11Z</time>
      </trkpt>
      <trkpt lat="47.034704983234406" lon="9.527098964899778">
        <ele>713.91999999999996</ele>
        <time>2025-05-20T10:51:12Z</time>
      </trkpt>
      <trkpt lat="47.035450972616673" lon="9.527243971824646">
        <ele>711.02999999999997</ele>
        <time>2025-05-20T10:51:17Z</time>
      </trkpt>
      <trkpt lat="47.035563038662076" lon="9.527267022058368">
        <ele>710.07000000000005</ele>
        <time>2025-05-20T10:51:18Z</time>
      </trkpt>
      <trkpt lat="47.035710979253054" lon="9.527420997619629">
        <ele>709.11000000000001</ele>
        <time>2025-05-20T10:51:20Z</time>
      </trkpt>
      <trkpt lat="47.035819021984935" lon="9.527270961552858">
        <ele>708.63</ele>
        <time>2025-05-20T10:51:21Z</time>
      </trkpt>
      <trkpt lat="47.035904014483094" lon="9.527270961552858">
        <ele>708.14999999999998</ele>
        <time>2025-05-20T10:51:22Z</time>
      </trkpt>
      <trkpt lat="47.036011973395944" lon="9.527284959331155">
        <ele>707.19000000000005</ele>
        <time>2025-05-20T10:51:23Z</time>
      </trkpt>
      <trkpt lat="47.036124961450696" lon="9.527299962937832">
        <ele>706.71000000000004</ele>
        <time>2025-05-20T10:51:24Z</time>
      </trkpt>
      <trkpt lat="47.036241972818971" lon="9.52731597237289">
        <ele>705.75</ele>
        <time>2025-05-20T10:51:25Z</time>
      </trkpt>
      <trkpt lat="47.037278981879354" lon="9.527434995397925">
        <ele>697.57000000000005</ele>
        <time>2025-05-20T10:51:35Z</time>
      </trkpt>
      <trkpt lat="47.037620963528752" lon="9.527516970410943">
        <ele>695.16999999999996</ele>
        <time>2025-05-20T10:51:39Z</time>
      </trkpt>
      <trkpt lat="47.037663962692022" lon="9.52752803452313">
        <ele>695.16999999999996</ele>
        <time>2025-05-20T10:51:40Z</time>
      </trkpt>
      <trkpt lat="47.037763958796859" lon="9.527628030627966">
        <ele>695.16999999999996</ele>
        <time>2025-05-20T10:51:41Z</time>
      </trkpt>
      <trkpt lat="47.037823973223567" lon="9.527687961235642">
        <ele>695.16999999999996</ele>
        <time>2025-05-20T10:51:42Z</time>
      </trkpt>
      <trkpt lat="47.037878036499023" lon="9.527718974277377">
        <ele>695.16999999999996</ele>
        <time>2025-05-20T10:51:43Z</time>
      </trkpt>
      <trkpt lat="47.037934027612209" lon="9.527711011469364">
        <ele>695.64999999999998</ele>
        <time>2025-05-20T10:51:44Z</time>
      </trkpt>
      <trkpt lat="47.038007033988833" lon="9.527700031176209">
        <ele>695.64999999999998</ele>
        <time>2025-05-20T10:51:45Z</time>
      </trkpt>
      <trkpt lat="47.038032012060285" lon="9.52765996567905">
        <ele>695.16999999999996</ele>
        <time>2025-05-20T10:51:46Z</time>
      </trkpt>
      <trkpt lat="47.038076017051935" lon="9.527589976787567">
        <ele>695.16999999999996</ele>
        <time>2025-05-20T10:51:47Z</time>
      </trkpt>
      <trkpt lat="47.038124967366457" lon="9.527511019259691">
        <ele>695.16999999999996</ele>
        <time>2025-05-20T10:51:48Z</time>
      </trkpt>
      <trkpt lat="47.038180036470294" lon="9.527418985962868">
        <ele>694.69000000000005</ele>
        <time>2025-05-20T10:51:49Z</time>
      </trkpt>
      <trkpt lat="47.038243990391493" lon="9.527312032878399">
        <ele>694.21000000000004</ele>
        <time>2025-05-20T10:51:50Z</time>
      </trkpt>
      <trkpt lat="47.038911022245884" lon="9.52628399245441">
        <ele>686.03999999999996</ele>
        <time>2025-05-20T10:51:57Z</time>
      </trkpt>
      <trkpt lat="47.039002971723676" lon="9.526077965274453">
        <ele>685.08000000000004</ele>
        <time>2025-05-20T10:51:58Z</time>
      </trkpt>
      <trkpt lat="47.039092993363738" lon="9.52587503939867">
        <ele>683.63</ele>
        <time>2025-05-20T10:51:59Z</time>
      </trkpt>
      <trkpt lat="47.039148984476924" lon="9.525665994733572">
        <ele>682.19000000000005</ele>
        <time>2025-05-20T10:52:00Z</time>
      </trkpt>
      <trkpt lat="47.039203969761729" lon="9.525445969775319">
        <ele>680.26999999999998</ele>
        <time>2025-05-20T10:52:01Z</time>
      </trkpt>
      <trkpt lat="47.039259038865566" lon="9.525227034464479">
        <ele>678.35000000000002</ele>
        <time>2025-05-20T10:52:02Z</time>
      </trkpt>
      <trkpt lat="47.039587022736669" lon="9.523913003504276">
        <ele>668.25</ele>
        <time>2025-05-20T10:52:08Z</time>
      </trkpt>
      <trkpt lat="47.03967897221446" lon="9.523765984922648">
        <ele>667.28999999999996</ele>
        <time>2025-05-20T10:52:09Z</time>
      </trkpt>
      <trkpt lat="47.039777040481567" lon="9.523631958290935">
        <ele>665.85000000000002</ele>
        <time>2025-05-20T10:52:10Z</time>
      </trkpt>
      <trkpt lat="47.039882987737656" lon="9.523487035185099">
        <ele>664.88999999999999</ele>
        <time>2025-05-20T10:52:11Z</time>
      </trkpt>
      <trkpt lat="47.039996981620789" lon="9.523331969976425">
        <ele>663.45000000000005</ele>
        <time>2025-05-20T10:52:12Z</time>
      </trkpt>
      <trkpt lat="47.040341980755329" lon="9.522839030250907">
        <ele>660.08000000000004</ele>
        <time>2025-05-20T10:52:15Z</time>
      </trkpt>
      <trkpt lat="47.04094598069787" lon="9.521917020902038">
        <ele>653.35000000000002</ele>
        <time>2025-05-20T10:52:20Z</time>
      </trkpt>
      <trkpt lat="47.041085958480835" lon="9.521733960136771">
        <ele>651.90999999999997</ele>
        <time>2025-05-20T10:52:21Z</time>
      </trkpt>
      <trkpt lat="47.041231971234083" lon="9.521542014554143">
        <ele>650.47000000000003</ele>
        <time>2025-05-20T10:52:22Z</time>
      </trkpt>
      <trkpt lat="47.041664980351925" lon="9.521046979352832">
        <ele>645.65999999999997</ele>
        <time>2025-05-20T10:52:25Z</time>
      </trkpt>
      <trkpt lat="47.041833037510514" lon="9.520915970206261">
        <ele>643.74000000000001</ele>
        <time>2025-05-20T10:52:26Z</time>
      </trkpt>
      <trkpt lat="47.042167978361249" lon="9.520726958289743">
        <ele>640.86000000000001</ele>
        <time>2025-05-20T10:52:28Z</time>
      </trkpt>
      <trkpt lat="47.042351039126515" lon="9.520683037117124">
        <ele>638.92999999999995</ele>
        <time>2025-05-20T10:52:29Z</time>
      </trkpt>
      <trkpt lat="47.042548013851047" lon="9.520683037117124">
        <ele>637.49000000000001</ele>
        <time>2025-05-20T10:52:30Z</time>
      </trkpt>
      <trkpt lat="47.043142039328814" lon="9.520683037117124">
        <ele>632.67999999999995</ele>
        <time>2025-05-20T10:52:33Z</time>
      </trkpt>
      <trkpt lat="47.044459003955126" lon="9.52065596356988">
        <ele>621.63</ele>
        <time>2025-05-20T10:52:40Z</time>
      </trkpt>
      <trkpt lat="47.045309012755752" lon="9.520621011033654">
        <ele>614.89999999999998</ele>
        <time>2025-05-20T10:52:45Z</time>
      </trkpt>
      <trkpt lat="47.045448990538716" lon="9.52065596356988">
        <ele>613.46000000000004</ele>
        <time>2025-05-20T10:52:46Z</time>
      </trkpt>
      <trkpt lat="47.045662980526686" lon="9.520717989653349">
        <ele>609.61000000000001</ele>
        <time>2025-05-20T10:52:48Z</time>
      </trkpt>
      <trkpt lat="47.045731963589787" lon="9.520683037117124">
        <ele>608.16999999999996</ele>
        <time>2025-05-20T10:52:49Z</time>
      </trkpt>
      <trkpt lat="47.045771023258567" lon="9.520580023527145">
        <ele>606.73000000000002</ele>
        <time>2025-05-20T10:52:50Z</time>
      </trkpt>
      <trkpt lat="47.045788038522005" lon="9.52048203907907">
        <ele>605.28999999999996</ele>
        <time>2025-05-20T10:52:51Z</time>
      </trkpt>
      <trkpt lat="47.045750990509987" lon="9.520363016054034">
        <ele>603.36000000000001</ele>
        <time>2025-05-20T10:52:52Z</time>
      </trkpt>
      <trkpt lat="47.045706985518336" lon="9.520219014957547">
        <ele>601.91999999999996</ele>
        <time>2025-05-20T10:52:53Z</time>
      </trkpt>
      <trkpt lat="47.045658035203815" lon="9.52005498111248">
        <ele>600</ele>
        <time>2025-05-20T10:52:54Z</time>
      </trkpt>
      <trkpt lat="47.045558961108327" lon="9.519426003098488">
        <ele>595.19000000000005</ele>
        <time>2025-05-20T10:52:57Z</time>
      </trkpt>
      <trkpt lat="47.045531971380115" lon="9.519208995625377">
        <ele>593.26999999999998</ele>
        <time>2025-05-20T10:52:58Z</time>
      </trkpt>
      <trkpt lat="47.045523002743721" lon="9.518783027306199">
        <ele>589.42999999999995</ele>
        <time>2025-05-20T10:53:00Z</time>
      </trkpt>
      <trkpt lat="47.045559966936707" lon="9.518581023439765">
        <ele>587.98000000000002</ele>
        <time>2025-05-20T10:53:01Z</time>
      </trkpt>
      <trkpt lat="47.045633979141712" lon="9.518379019573331">
        <ele>586.05999999999995</ele>
        <time>2025-05-20T10:53:02Z</time>
      </trkpt>
      <trkpt lat="47.045740010216832" lon="9.51820601709187">
        <ele>584.62</ele>
        <time>2025-05-20T10:53:03Z</time>
      </trkpt>
      <trkpt lat="47.045858027413487" lon="9.518032008782029">
        <ele>582.70000000000005</ele>
        <time>2025-05-20T10:53:04Z</time>
      </trkpt>
      <trkpt lat="47.045980989933014" lon="9.517850959673524">
        <ele>580.76999999999998</ele>
        <time>2025-05-20T10:53:05Z</time>
      </trkpt>
      <trkpt lat="47.047527031973004" lon="9.516225038096309">
        <ele>562.99000000000001</ele>
        <time>2025-05-20T10:53:15Z</time>
      </trkpt>
      <trkpt lat="47.048644004389644" lon="9.515127008780837">
        <ele>553.38</ele>
        <time>2025-05-20T10:53:22Z</time>
      </trkpt>
      <trkpt lat="47.048790017142892" lon="9.514948977157474">
        <ele>551.92999999999995</ele>
        <time>2025-05-20T10:53:23Z</time>
      </trkpt>
      <trkpt lat="47.048941981047392" lon="9.514763988554478">
        <ele>550.49000000000001</ele>
        <time>2025-05-20T10:53:24Z</time>
      </trkpt>
      <trkpt lat="47.049094028770924" lon="9.514578999951482">
        <ele>549.04999999999995</ele>
        <time>2025-05-20T10:53:25Z</time>
      </trkpt>
      <trkpt lat="47.049241969361901" lon="9.514399962499738">
        <ele>548.09000000000003</ele>
        <time>2025-05-20T10:53:26Z</time>
      </trkpt>
      <trkpt lat="47.049680007621646" lon="9.51395102776587">
        <ele>545.20000000000005</ele>
        <time>2025-05-20T10:53:29Z</time>
      </trkpt>
      <trkpt lat="47.049827026203275" lon="9.51384399086237">
        <ele>544.72000000000003</ele>
        <time>2025-05-20T10:53:30Z</time>
      </trkpt>
      <trkpt lat="47.050625989213586" lon="9.513401007279754">
        <ele>542.79999999999995</ele>
        <time>2025-05-20T10:53:35Z</time>
      </trkpt>
      <trkpt lat="47.050792034715414" lon="9.513254994526506">
        <ele>541.84000000000003</ele>
        <time>2025-05-20T10:53:36Z</time>
      </trkpt>
      <trkpt lat="47.05220203846693" lon="9.511691015213728">
        <ele>531.26999999999998</ele>
        <time>2025-05-20T10:53:45Z</time>
      </trkpt>
      <trkpt lat="47.052510995417833" lon="9.511350961402059">
        <ele>529.34000000000003</ele>
        <time>2025-05-20T10:53:47Z</time>
      </trkpt>
      <trkpt lat="47.052967976778746" lon="9.510956006124616">
        <ele>525.5</ele>
        <time>2025-05-20T10:53:50Z</time>
      </trkpt>
      <trkpt lat="47.053128993138671" lon="9.510910995304585">
        <ele>524.05999999999995</ele>
        <time>2025-05-20T10:53:51Z</time>
      </trkpt>
      <trkpt lat="47.053282968699932" lon="9.510867996141315">
        <ele>523.09000000000003</ele>
        <time>2025-05-20T10:53:52Z</time>
      </trkpt>
      <trkpt lat="47.053434010595083" lon="9.510861961171031">
        <ele>522.13</ele>
        <time>2025-05-20T10:53:53Z</time>
      </trkpt>
      <trkpt lat="47.053587986156344" lon="9.510872019454837">
        <ele>521.16999999999996</ele>
        <time>2025-05-20T10:53:54Z</time>
      </trkpt>
      <trkpt lat="47.053742967545986" lon="9.510904960334301">
        <ele>520.21000000000004</ele>
        <time>2025-05-20T10:53:55Z</time>
      </trkpt>
      <trkpt lat="47.05390197224915" lon="9.510967992246151">
        <ele>519.25</ele>
        <time>2025-05-20T10:53:56Z</time>
      </trkpt>
      <trkpt lat="47.054062988609076" lon="9.511031024158001">
        <ele>518.76999999999998</ele>
        <time>2025-05-20T10:53:57Z</time>
      </trkpt>
      <trkpt lat="47.055965010076761" lon="9.511701995506883">
        <ele>507.23000000000002</ele>
        <time>2025-05-20T10:54:09Z</time>
      </trkpt>
      <trkpt lat="47.056582001969218" lon="9.511905005201697">
        <ele>501.45999999999998</ele>
        <time>2025-05-20T10:54:16Z</time>
      </trkpt>
      <trkpt lat="47.056818958371878" lon="9.51197499409318">
        <ele>496.18000000000001</ele>
        <time>2025-05-20T10:54:24Z</time>
      </trkpt>
      <trkpt lat="47.056818958371878" lon="9.51197499409318">
        <ele>496.18000000000001</ele>
        <time>2025-05-20T10:54:44Z</time>
      </trkpt>
      <trkpt lat="47.056818958371878" lon="9.51197499409318">
        <ele>494.74000000000001</ele>
        <time>2025-05-20T10:55:40Z</time>
      </trkpt>
      <trkpt lat="47.056662971153855" lon="9.512197030708194">
        <ele>566.83000000000004</ele>
        <time>2025-05-20T10:57:45Z</time>
      </trkpt>
      <trkpt lat="47.056849971413612" lon="9.511979017406702">
        <ele>508.19</ele>
        <time>2025-05-20T10:57:52Z</time>
      </trkpt>
      <trkpt lat="47.057507028803229" lon="9.512048000469804">
        <ele>495.22000000000003</ele>
        <time>2025-05-20T10:57:59Z</time>
      </trkpt>
      <trkpt lat="47.058644033968449" lon="9.511858988553286">
        <ele>488.49000000000001</ele>
        <time>2025-05-20T10:58:08Z</time>
      </trkpt>
      <trkpt lat="47.059169998392463" lon="9.511624965816736">
        <ele>486.07999999999998</ele>
        <time>2025-05-20T10:58:12Z</time>
      </trkpt>
      <trkpt lat="47.059295978397131" lon="9.511554976925254">
        <ele>485.60000000000002</ele>
        <time>2025-05-20T10:58:13Z</time>
      </trkpt>
      <trkpt lat="47.059553973376751" lon="9.511410975828767">
        <ele>484.16000000000003</ele>
        <time>2025-05-20T10:58:15Z</time>
      </trkpt>
      <trkpt lat="47.05967903137207" lon="9.511329000815749">
        <ele>484.16000000000003</ele>
        <time>2025-05-20T10:58:16Z</time>
      </trkpt>
      <trkpt lat="47.05991699360311" lon="9.511173013597727">
        <ele>483.68000000000001</ele>
        <time>2025-05-20T10:58:18Z</time>
      </trkpt>
      <trkpt lat="47.06047598272562" lon="9.510799013078213">
        <ele>484.16000000000003</ele>
        <time>2025-05-20T10:58:23Z</time>
      </trkpt>
      <trkpt lat="47.060584025457501" lon="9.510723995044828">
        <ele>484.16000000000003</ele>
        <time>2025-05-20T10:58:24Z</time>
      </trkpt>
      <trkpt lat="47.06193401478231" lon="9.509831992909312">
        <ele>483.19999999999999</ele>
        <time>2025-05-20T10:58:36Z</time>
      </trkpt>
      <trkpt lat="47.063171016052365" lon="9.509037975221872">
        <ele>483.68000000000001</ele>
        <time>2025-05-20T10:58:47Z</time>
      </trkpt>
      <trkpt lat="47.064314978197217" lon="9.508261978626251">
        <ele>483.19999999999999</ele>
        <time>2025-05-20T10:58:57Z</time>
      </trkpt>
      <trkpt lat="47.065100027248263" lon="9.507770966738462">
        <ele>482.72000000000003</ele>
        <time>2025-05-20T10:59:04Z</time>
      </trkpt>
      <trkpt lat="47.065408984199166" lon="9.507572986185551">
        <ele>482.24000000000001</ele>
        <time>2025-05-20T10:59:07Z</time>
      </trkpt>
      <trkpt lat="47.065571006387472" lon="9.507514983415604">
        <ele>482.24000000000001</ele>
        <time>2025-05-20T10:59:09Z</time>
      </trkpt>
      <trkpt lat="47.065740991383791" lon="9.507545996457338">
        <ele>481.75999999999999</ele>
        <time>2025-05-20T10:59:11Z</time>
      </trkpt>
      <trkpt lat="47.06582497805357" lon="9.507562005892396">
        <ele>481.75999999999999</ele>
        <time>2025-05-20T10:59:12Z</time>
      </trkpt>
      <trkpt lat="47.06591198220849" lon="9.507581032812595">
        <ele>481.27999999999997</ele>
        <time>2025-05-20T10:59:13Z</time>
      </trkpt>
      <trkpt lat="47.065998986363411" lon="9.507598970085383">
        <ele>481.27999999999997</ele>
        <time>2025-05-20T10:59:14Z</time>
      </trkpt>
      <trkpt lat="47.066074004396796" lon="9.507615985348821">
        <ele>480.80000000000001</ele>
        <time>2025-05-20T10:59:15Z</time>
      </trkpt>
      <trkpt lat="47.066174000501633" lon="9.507593018934131">
        <ele>480.80000000000001</ele>
        <time>2025-05-20T10:59:16Z</time>
      </trkpt>
      <trkpt lat="47.066259998828173" lon="9.507572986185551">
        <ele>480.80000000000001</ele>
        <time>2025-05-20T10:59:17Z</time>
      </trkpt>
      <trkpt lat="47.066353037953377" lon="9.507551025599241">
        <ele>480.80000000000001</ele>
        <time>2025-05-20T10:59:18Z</time>
      </trkpt>
      <trkpt lat="47.066434007138014" lon="9.507510038092732">
        <ele>481.27999999999997</ele>
        <time>2025-05-20T10:59:19Z</time>
      </trkpt>
      <trkpt lat="47.066517993807793" lon="9.507470978423953">
        <ele>481.27999999999997</ele>
        <time>2025-05-20T10:59:20Z</time>
      </trkpt>
      <trkpt lat="47.066689990460873" lon="9.507396966218948">
        <ele>480.80000000000001</ele>
        <time>2025-05-20T10:59:22Z</time>
      </trkpt>
      <trkpt lat="47.0674570184201" lon="9.507327983155847">
        <ele>479.83999999999997</ele>
        <time>2025-05-20T10:59:30Z</time>
      </trkpt>
      <trkpt lat="47.067561959847808" lon="9.507310967892408">
        <ele>479.83999999999997</ele>
        <time>2025-05-20T10:59:31Z</time>
      </trkpt>
      <trkpt lat="47.067670002579689" lon="9.507292024791241">
        <ele>479.83999999999997</ele>
        <time>2025-05-20T10:59:32Z</time>
      </trkpt>
      <trkpt lat="47.067768992856145" lon="9.507276015356183">
        <ele>479.83999999999997</ele>
        <time>2025-05-20T10:59:33Z</time>
      </trkpt>
      <trkpt lat="47.067864965647459" lon="9.507260005921125">
        <ele>479.83999999999997</ele>
        <time>2025-05-20T10:59:34Z</time>
      </trkpt>
      <trkpt lat="47.067965967580676" lon="9.507242990657687">
        <ele>479.83999999999997</ele>
        <time>2025-05-20T10:59:35Z</time>
      </trkpt>
      <trkpt lat="47.069201963022351" lon="9.506959011778235">
        <ele>478.87</ele>
        <time>2025-05-20T10:59:47Z</time>
      </trkpt>
      <trkpt lat="47.069307994097471" lon="9.50694995932281">
        <ele>478.87</ele>
        <time>2025-05-20T10:59:48Z</time>
      </trkpt>
      <trkpt lat="47.069415031000972" lon="9.50694995932281">
        <ele>478.87</ele>
        <time>2025-05-20T10:59:49Z</time>
      </trkpt>
      <trkpt lat="47.069729017093778" lon="9.507024977356195">
        <ele>478.87</ele>
        <time>2025-05-20T10:59:52Z</time>
      </trkpt>
      <trkpt lat="47.069823984056711" lon="9.507065964862704">
        <ele>478.87</ele>
        <time>2025-05-20T10:59:53Z</time>
      </trkpt>
      <trkpt lat="47.069915011525154" lon="9.507122961804271">
        <ele>478.38999999999999</ele>
        <time>2025-05-20T10:59:54Z</time>
      </trkpt>
      <trkpt lat="47.069998998194933" lon="9.507209965959191">
        <ele>478.87</ele>
        <time>2025-05-20T10:59:55Z</time>
      </trkpt>
      <trkpt lat="47.070083990693092" lon="9.507298981770873">
        <ele>478.87</ele>
        <time>2025-05-20T10:59:56Z</time>
      </trkpt>
      <trkpt lat="47.070169989019632" lon="9.507386991754174">
        <ele>479.83999999999997</ele>
        <time>2025-05-20T10:59:57Z</time>
      </trkpt>
      <trkpt lat="47.070259004831314" lon="9.507480030879378">
        <ele>479.83999999999997</ele>
        <time>2025-05-20T10:59:58Z</time>
      </trkpt>
      <trkpt lat="47.070524040609598" lon="9.507735008373857">
        <ele>481.27999999999997</ele>
        <time>2025-05-20T11:00:01Z</time>
      </trkpt>
      <trkpt lat="47.070619007572532" lon="9.507796028628945">
        <ele>481.75999999999999</ele>
        <time>2025-05-20T11:00:02Z</time>
      </trkpt>
      <trkpt lat="47.070713974535465" lon="9.507856965065002">
        <ele>482.24000000000001</ele>
        <time>2025-05-20T11:00:03Z</time>
      </trkpt>
      <trkpt lat="47.07194996997714" lon="9.508583005517721">
        <ele>484.63999999999999</ele>
        <time>2025-05-20T11:00:15Z</time>
      </trkpt>
      <trkpt lat="47.073015980422497" lon="9.509591013193131">
        <ele>485.60000000000002</ele>
        <time>2025-05-20T11:00:27Z</time>
      </trkpt>
      <trkpt lat="47.073995992541313" lon="9.510616958141327">
        <ele>486.07999999999998</ele>
        <time>2025-05-20T11:00:38Z</time>
      </trkpt>
      <trkpt lat="47.074534026905894" lon="9.511099001392722">
        <ele>485.60000000000002</ele>
        <time>2025-05-20T11:00:44Z</time>
      </trkpt>
      <trkpt lat="47.07532100379467" lon="9.511656984686852">
        <ele>486.07999999999998</ele>
        <time>2025-05-20T11:00:53Z</time>
      </trkpt>
      <trkpt lat="47.075410019606352" lon="9.511706018820405">
        <ele>485.60000000000002</ele>
        <time>2025-05-20T11:00:54Z</time>
      </trkpt>
      <trkpt lat="47.075598025694489" lon="9.511810960248113">
        <ele>485.60000000000002</ele>
        <time>2025-05-20T11:00:56Z</time>
      </trkpt>
      <trkpt lat="47.075691986829042" lon="9.51186996884644">
        <ele>485.60000000000002</ele>
        <time>2025-05-20T11:00:57Z</time>
      </trkpt>
      <trkpt lat="47.076837960630655" lon="9.512589974328876">
        <ele>483.68000000000001</ele>
        <time>2025-05-20T11:01:09Z</time>
      </trkpt>
      <trkpt lat="47.077843034639955" lon="9.513224987313151">
        <ele>481.75999999999999</ele>
        <time>2025-05-20T11:01:20Z</time>
      </trkpt>
      <trkpt lat="47.07920903339982" lon="9.514051023870707">
        <ele>479.35000000000002</ele>
        <time>2025-05-20T11:01:32Z</time>
      </trkpt>
      <trkpt lat="47.080404963344336" lon="9.514787038788199">
        <ele>477.91000000000003</ele>
        <time>2025-05-20T11:01:40Z</time>
      </trkpt>
      <trkpt lat="47.080559022724628" lon="9.514882005751133">
        <ele>477.91000000000003</ele>
        <time>2025-05-20T11:01:41Z</time>
      </trkpt>
      <trkpt lat="47.08185201510787" lon="9.515676023438573">
        <ele>481.27999999999997</ele>
        <time>2025-05-20T11:01:49Z</time>
      </trkpt>
      <trkpt lat="47.083222959190607" lon="9.516538018360734">
        <ele>486.56</ele>
        <time>2025-05-20T11:01:57Z</time>
      </trkpt>
      <trkpt lat="47.085279962047935" lon="9.517844002693892">
        <ele>487.05000000000001</ele>
        <time>2025-05-20T11:02:09Z</time>
      </trkpt>
      <trkpt lat="47.087128004059196" lon="9.519058959558606">
        <ele>485.60000000000002</ele>
        <time>2025-05-20T11:02:20Z</time>
      </trkpt>
      <trkpt lat="47.088299039751291" lon="9.519857000559568">
        <ele>485.12</ele>
        <time>2025-05-20T11:02:28Z</time>
      </trkpt>
      <trkpt lat="47.08991096355021" lon="9.520965004339814">
        <ele>483.19999999999999</ele>
        <time>2025-05-20T11:02:39Z</time>
      </trkpt>
      <trkpt lat="47.091387016698718" lon="9.522461006417871">
        <ele>480.80000000000001</ele>
        <time>2025-05-20T11:02:49Z</time>
      </trkpt>
      <trkpt lat="47.092957030981779" lon="9.52422003261745">
        <ele>481.27999999999997</ele>
        <time>2025-05-20T11:03:00Z</time>
      </trkpt>
      <trkpt lat="47.09311000071466" lon="9.524367973208427">
        <ele>481.75999999999999</ele>
        <time>2025-05-20T11:03:01Z</time>
      </trkpt>
      <trkpt lat="47.094312971457839" lon="9.524955963715911">
        <ele>482.72000000000003</ele>
        <time>2025-05-20T11:03:08Z</time>
      </trkpt>
      <trkpt lat="47.0944859739393" lon="9.524993011727929">
        <ele>482.24000000000001</ele>
        <time>2025-05-20T11:03:09Z</time>
      </trkpt>
      <trkpt lat="47.096099993214011" lon="9.525020001456142">
        <ele>480.31999999999999</ele>
        <time>2025-05-20T11:03:18Z</time>
      </trkpt>
      <trkpt lat="47.098218016326427" lon="9.524764018133283">
        <ele>477.43000000000001</ele>
        <time>2025-05-20T11:03:30Z</time>
      </trkpt>
      <trkpt lat="47.099035000428557" lon="9.524741973727942">
        <ele>475.99000000000001</ele>
        <time>2025-05-20T11:03:37Z</time>
      </trkpt>
      <trkpt lat="47.100165970623493" lon="9.524898966774344">
        <ele>472.63</ele>
        <time>2025-05-20T11:03:47Z</time>
      </trkpt>
      <trkpt lat="47.101190993562341" lon="9.524920005351305">
        <ele>471.66000000000003</ele>
        <time>2025-05-20T11:03:56Z</time>
      </trkpt>
      <trkpt lat="47.101523000746965" lon="9.524885974824429">
        <ele>471.66000000000003</ele>
        <time>2025-05-20T11:03:59Z</time>
      </trkpt>
      <trkpt lat="47.102773999795318" lon="9.524782039225102">
        <ele>470.69999999999999</ele>
        <time>2025-05-20T11:04:10Z</time>
      </trkpt>
      <trkpt lat="47.102887993678451" lon="9.524782039225102">
        <ele>470.69999999999999</ele>
        <time>2025-05-20T11:04:11Z</time>
      </trkpt>
      <trkpt lat="47.103718975558877" lon="9.524852028116584">
        <ele>469.74000000000001</ele>
        <time>2025-05-20T11:04:19Z</time>
      </trkpt>
      <trkpt lat="47.104525985196233" lon="9.524978008121252">
        <ele>468.30000000000001</ele>
        <time>2025-05-20T11:04:27Z</time>
      </trkpt>
      <trkpt lat="47.104632016271353" lon="9.524984965100884">
        <ele>468.30000000000001</ele>
        <time>2025-05-20T11:04:28Z</time>
      </trkpt>
      <trkpt lat="47.104740981012583" lon="9.524993011727929">
        <ele>468.30000000000001</ele>
        <time>2025-05-20T11:04:29Z</time>
      </trkpt>
      <trkpt lat="47.104846006259322" lon="9.524999968707562">
        <ele>468.77999999999997</ele>
        <time>2025-05-20T11:04:30Z</time>
      </trkpt>
      <trkpt lat="47.105654021725059" lon="9.525050008669496">
        <ele>471.66000000000003</ele>
        <time>2025-05-20T11:04:39Z</time>
      </trkpt>
      <trkpt lat="47.10636698640883" lon="9.52506098896265">
        <ele>473.11000000000001</ele>
        <time>2025-05-20T11:04:47Z</time>
      </trkpt>
      <trkpt lat="47.106448961421847" lon="9.525061994791031">
        <ele>473.11000000000001</ele>
        <time>2025-05-20T11:04:48Z</time>
      </trkpt>
      <trkpt lat="47.107192017138004" lon="9.525072975084186">
        <ele>472.63</ele>
        <time>2025-05-20T11:04:56Z</time>
      </trkpt>
      <trkpt lat="47.107392009347677" lon="9.525075992569327">
        <ele>472.63</ele>
        <time>2025-05-20T11:04:58Z</time>
      </trkpt>
      <trkpt lat="47.107497034594417" lon="9.525078004226089">
        <ele>472.63</ele>
        <time>2025-05-20T11:04:59Z</time>
      </trkpt>
      <trkpt lat="47.107603987678885" lon="9.525079010054469">
        <ele>472.63</ele>
        <time>2025-05-20T11:05:00Z</time>
      </trkpt>
      <trkpt lat="47.108516022562981" lon="9.525113962590694">
        <ele>472.13999999999999</ele>
        <time>2025-05-20T11:05:09Z</time>
      </trkpt>
      <trkpt lat="47.10911700502038" lon="9.525090996176004">
        <ele>473.58999999999997</ele>
        <time>2025-05-20T11:05:15Z</time>
      </trkpt>
      <trkpt lat="47.109695021063089" lon="9.524897960945964">
        <ele>475.50999999999999</ele>
        <time>2025-05-20T11:05:22Z</time>
      </trkpt>
      <trkpt lat="47.10971899330616" lon="9.52488899230957">
        <ele>475.99000000000001</ele>
        <time>2025-05-20T11:05:23Z</time>
      </trkpt>
      <trkpt lat="47.109809014946222" lon="9.524940960109234">
        <ele>475.99000000000001</ele>
        <time>2025-05-20T11:05:24Z</time>
      </trkpt>
      <trkpt lat="47.109865006059408" lon="9.524912964552641">
        <ele>476.47000000000003</ele>
        <time>2025-05-20T11:05:25Z</time>
      </trkpt>
      <trkpt lat="47.109899958595634" lon="9.524755971506238">
        <ele>476.47000000000003</ele>
        <time>2025-05-20T11:05:26Z</time>
      </trkpt>
      <trkpt lat="47.109967013821006" lon="9.524724958464503">
        <ele>476.94999999999999</ele>
        <time>2025-05-20T11:05:27Z</time>
      </trkpt>
      <trkpt lat="47.110043037682772" lon="9.524691011756659">
        <ele>476.94999999999999</ele>
        <time>2025-05-20T11:05:28Z</time>
      </trkpt>
      <trkpt lat="47.110127024352551" lon="9.524652035906911">
        <ele>476.94999999999999</ele>
        <time>2025-05-20T11:05:29Z</time>
      </trkpt>
      <trkpt lat="47.11021201685071" lon="9.524612976238132">
        <ele>476.94999999999999</ele>
        <time>2025-05-20T11:05:30Z</time>
      </trkpt>
      <trkpt lat="47.110296003520489" lon="9.524574000388384">
        <ele>476.47000000000003</ele>
        <time>2025-05-20T11:05:31Z</time>
      </trkpt>
      <trkpt lat="47.110380996018648" lon="9.524536030367017">
        <ele>476.47000000000003</ele>
        <time>2025-05-20T11:05:32Z</time>
      </trkpt>
      <trkpt lat="47.11135002784431" lon="9.524245010688901">
        <ele>475.99000000000001</ele>
        <time>2025-05-20T11:05:42Z</time>
      </trkpt>
      <trkpt lat="47.111547002568841" lon="9.524188013747335">
        <ele>475.50999999999999</ele>
        <time>2025-05-20T11:05:44Z</time>
      </trkpt>
      <trkpt lat="47.1116510219872" lon="9.524155994877219">
        <ele>475.50999999999999</ele>
        <time>2025-05-20T11:05:45Z</time>
      </trkpt>
      <trkpt lat="47.112707979977131" lon="9.523953991010785">
        <ele>474.55000000000001</ele>
        <time>2025-05-20T11:05:55Z</time>
      </trkpt>
      <trkpt lat="47.113809026777744" lon="9.523681998252869">
        <ele>475.02999999999997</ele>
        <time>2025-05-20T11:06:05Z</time>
      </trkpt>
      <trkpt lat="47.115292036905885" lon="9.52366397716105">
        <ele>475.50999999999999</ele>
        <time>2025-05-20T11:06:18Z</time>
      </trkpt>
      <trkpt lat="47.115405024960637" lon="9.523679986596108">
        <ele>475.50999999999999</ele>
        <time>2025-05-20T11:06:19Z</time>
      </trkpt>
      <trkpt lat="47.115517007187009" lon="9.523695996031165">
        <ele>475.50999999999999</ele>
        <time>2025-05-20T11:06:20Z</time>
      </trkpt>
      <trkpt lat="47.116644959896803" lon="9.523809989914298">
        <ele>475.50999999999999</ele>
        <time>2025-05-20T11:06:30Z</time>
      </trkpt>
      <trkpt lat="47.117545008659363" lon="9.523889031261206">
        <ele>476.47000000000003</ele>
        <time>2025-05-20T11:06:39Z</time>
      </trkpt>
      <trkpt lat="47.118553016334772" lon="9.523970000445843">
        <ele>475.02999999999997</ele>
        <time>2025-05-20T11:06:49Z</time>
      </trkpt>
      <trkpt lat="47.119395984336734" lon="9.523956002667546">
        <ele>473.11000000000001</ele>
        <time>2025-05-20T11:06:59Z</time>
      </trkpt>
      <trkpt lat="47.119461027905345" lon="9.523945022374392">
        <ele>473.11000000000001</ele>
        <time>2025-05-20T11:07:00Z</time>
      </trkpt>
      <trkpt lat="47.119632018730044" lon="9.523988021537662">
        <ele>472.63</ele>
        <time>2025-05-20T11:07:02Z</time>
      </trkpt>
      <trkpt lat="47.119720028713346" lon="9.523989027366042">
        <ele>472.13999999999999</ele>
        <time>2025-05-20T11:07:03Z</time>
      </trkpt>
      <trkpt lat="47.120853010565042" lon="9.5240050368011">
        <ele>465.89999999999998</ele>
        <time>2025-05-20T11:07:14Z</time>
      </trkpt>
      <trkpt lat="47.121522976085544" lon="9.524000007659197">
        <ele>463.00999999999999</ele>
        <time>2025-05-20T11:07:22Z</time>
      </trkpt>
      <trkpt lat="47.121586007997394" lon="9.523994978517294">
        <ele>463.00999999999999</ele>
        <time>2025-05-20T11:07:23Z</time>
      </trkpt>
      <trkpt lat="47.122410032898188" lon="9.52396497130394">
        <ele>462.52999999999997</ele>
        <time>2025-05-20T11:07:33Z</time>
      </trkpt>
      <trkpt lat="47.123204972594976" lon="9.523939993232489">
        <ele>463.49000000000001</ele>
        <time>2025-05-20T11:07:41Z</time>
      </trkpt>
      <trkpt lat="47.1241569891572" lon="9.523866986855865">
        <ele>466.38</ele>
        <time>2025-05-20T11:07:51Z</time>
      </trkpt>
      <trkpt lat="47.125142030417919" lon="9.523763973265886">
        <ele>468.77999999999997</ele>
        <time>2025-05-20T11:08:01Z</time>
      </trkpt>
      <trkpt lat="47.12621801532805" lon="9.523607986047864">
        <ele>469.25999999999999</ele>
        <time>2025-05-20T11:08:13Z</time>
      </trkpt>
      <trkpt lat="47.127176988869905" lon="9.523439006879926">
        <ele>469.74000000000001</ele>
        <time>2025-05-20T11:08:24Z</time>
      </trkpt>
      <trkpt lat="47.127358037978411" lon="9.52340598218143">
        <ele>469.74000000000001</ele>
        <time>2025-05-20T11:08:30Z</time>
      </trkpt>
      <trkpt lat="47.127413023263216" lon="9.523397013545036">
        <ele>470.22000000000003</ele>
        <time>2025-05-20T11:08:41Z</time>
      </trkpt>
      <trkpt lat="47.127453004941344" lon="9.523389972746372">
        <ele>470.22000000000003</ele>
        <time>2025-05-20T11:08:42Z</time>
      </trkpt>
      <trkpt lat="47.128143003210425" lon="9.523258041590452">
        <ele>470.69999999999999</ele>
        <time>2025-05-20T11:08:52Z</time>
      </trkpt>
      <trkpt lat="47.129052020609379" lon="9.523065006360412">
        <ele>470.69999999999999</ele>
        <time>2025-05-20T11:09:01Z</time>
      </trkpt>
      <trkpt lat="47.129787029698491" lon="9.522857973352075">
        <ele>469.74000000000001</ele>
        <time>2025-05-20T11:09:11Z</time>
      </trkpt>
      <trkpt lat="47.130190031602979" lon="9.522765018045902">
        <ele>468.77999999999997</ele>
        <time>2025-05-20T11:09:16Z</time>
      </trkpt>
      <trkpt lat="47.130637038499117" lon="9.522637026384473">
        <ele>469.74000000000001</ele>
        <time>2025-05-20T11:09:24Z</time>
      </trkpt>
      <trkpt lat="47.130747009068727" lon="9.522606013342738">
        <ele>469.74000000000001</ele>
        <time>2025-05-20T11:09:26Z</time>
      </trkpt>
      <trkpt lat="47.131417980417609" lon="9.522451031953096">
        <ele>468.77999999999997</ele>
        <time>2025-05-20T11:09:36Z</time>
      </trkpt>
      <trkpt lat="47.131480006501079" lon="9.522436028346419">
        <ele>468.30000000000001</ele>
        <time>2025-05-20T11:09:42Z</time>
      </trkpt>
      <trkpt lat="47.131557036191225" lon="9.522419013082981">
        <ele>468.30000000000001</ele>
        <time>2025-05-20T11:09:47Z</time>
      </trkpt>
      <trkpt lat="47.131613027304411" lon="9.522406021133065">
        <ele>468.30000000000001</ele>
        <time>2025-05-20T11:09:48Z</time>
      </trkpt>
      <trkpt lat="47.131791980937123" lon="9.522364027798176">
        <ele>467.33999999999997</ele>
        <time>2025-05-20T11:09:51Z</time>
      </trkpt>
      <trkpt lat="47.131826011464" lon="9.522355981171131">
        <ele>467.33999999999997</ele>
        <time>2025-05-20T11:09:52Z</time>
      </trkpt>
      <trkpt lat="47.131856018677354" lon="9.522350030019879">
        <ele>467.33999999999997</ele>
        <time>2025-05-20T11:09:53Z</time>
      </trkpt>
      <trkpt lat="47.131883008405566" lon="9.522343995049596">
        <ele>466.86000000000001</ele>
        <time>2025-05-20T11:09:54Z</time>
      </trkpt>
      <trkpt lat="47.13191200979054" lon="9.522337960079312">
        <ele>466.86000000000001</ele>
        <time>2025-05-20T11:09:55Z</time>
      </trkpt>
      <trkpt lat="47.131946040317416" lon="9.52233100309968">
        <ele>466.86000000000001</ele>
        <time>2025-05-20T11:09:56Z</time>
      </trkpt>
      <trkpt lat="47.1319779753685" lon="9.522323962301016">
        <ele>466.38</ele>
        <time>2025-05-20T11:09:57Z</time>
      </trkpt>
      <trkpt lat="47.1319779753685" lon="9.522323962301016">
        <ele>466.38</ele>
        <time>2025-05-20T11:09:58Z</time>
      </trkpt>
      <trkpt lat="47.132178973406553" lon="9.522281968966126">
        <ele>466.38</ele>
        <time>2025-05-20T11:10:06Z</time>
      </trkpt>
      <trkpt lat="47.132347030565143" lon="9.522247016429901">
        <ele>465.89999999999998</ele>
        <time>2025-05-20T11:10:09Z</time>
      </trkpt>
      <trkpt lat="47.132391035556793" lon="9.522238969802856">
        <ele>465.89999999999998</ele>
        <time>2025-05-20T11:10:10Z</time>
      </trkpt>
      <trkpt lat="47.132511986419559" lon="9.522214997559786">
        <ele>465.42000000000002</ele>
        <time>2025-05-20T11:10:14Z</time>
      </trkpt>
      <trkpt lat="47.132532019168139" lon="9.522210974246264">
        <ele>465.42000000000002</ele>
        <time>2025-05-20T11:10:15Z</time>
      </trkpt>
      <trkpt lat="47.132550040259957" lon="9.522207034751773">
        <ele>465.42000000000002</ele>
        <time>2025-05-20T11:10:16Z</time>
      </trkpt>
      <trkpt lat="47.132721031084657" lon="9.522142997011542">
        <ele>465.42000000000002</ele>
        <time>2025-05-20T11:10:18Z</time>
      </trkpt>
      <trkpt lat="47.132764030247927" lon="9.522139979526401">
        <ele>465.89999999999998</ele>
        <time>2025-05-20T11:10:19Z</time>
      </trkpt>
      <trkpt lat="47.13283896446228" lon="9.52213604003191">
        <ele>465.89999999999998</ele>
        <time>2025-05-20T11:10:20Z</time>
      </trkpt>
      <trkpt lat="47.132918005809188" lon="9.522131010890007">
        <ele>465.89999999999998</ele>
        <time>2025-05-20T11:10:21Z</time>
      </trkpt>
      <trkpt lat="47.132999980822206" lon="9.522125981748104">
        <ele>466.38</ele>
        <time>2025-05-20T11:10:22Z</time>
      </trkpt>
      <trkpt lat="47.133965995162725" lon="9.522078037261963">
        <ele>468.77999999999997</ele>
        <time>2025-05-20T11:10:32Z</time>
      </trkpt>
      <trkpt lat="47.135073998942971" lon="9.522027997300029">
        <ele>469.74000000000001</ele>
        <time>2025-05-20T11:10:43Z</time>
      </trkpt>
      <trkpt lat="47.135167038068175" lon="9.522031014785171">
        <ele>469.74000000000001</ele>
        <time>2025-05-20T11:10:44Z</time>
      </trkpt>
      <trkpt lat="47.135856030508876" lon="9.522151965647936">
        <ele>470.22000000000003</ele>
        <time>2025-05-20T11:10:51Z</time>
      </trkpt>
      <trkpt lat="47.135950997471809" lon="9.522177027538419">
        <ele>470.22000000000003</ele>
        <time>2025-05-20T11:10:52Z</time>
      </trkpt>
      <trkpt lat="47.13612399995327" lon="9.52222203835845">
        <ele>470.22000000000003</ele>
        <time>2025-05-20T11:10:54Z</time>
      </trkpt>
      <trkpt lat="47.136191977187991" lon="9.522239975631237">
        <ele>469.74000000000001</ele>
        <time>2025-05-20T11:10:55Z</time>
      </trkpt>
      <trkpt lat="47.136357016861439" lon="9.522282974794507">
        <ele>468.30000000000001</ele>
        <time>2025-05-20T11:11:00Z</time>
      </trkpt>
      <trkpt lat="47.136375959962606" lon="9.52228800393641">
        <ele>468.30000000000001</ele>
        <time>2025-05-20T11:11:01Z</time>
      </trkpt>
      <trkpt lat="47.136392975226045" lon="9.522292027249932">
        <ele>467.81999999999999</ele>
        <time>2025-05-20T11:11:02Z</time>
      </trkpt>
      <trkpt lat="47.136409990489483" lon="9.522295966744423">
        <ele>467.81999999999999</ele>
        <time>2025-05-20T11:11:03Z</time>
      </trkpt>
      <trkpt lat="47.136423988267779" lon="9.522299990057945">
        <ele>467.33999999999997</ele>
        <time>2025-05-20T11:11:04Z</time>
      </trkpt>
      <trkpt lat="47.136423988267779" lon="9.522299990057945">
        <ele>467.33999999999997</ele>
        <time>2025-05-20T11:11:05Z</time>
      </trkpt>
      <trkpt lat="47.136476961895823" lon="9.522313987836242">
        <ele>465.89999999999998</ele>
        <time>2025-05-20T11:11:17Z</time>
      </trkpt>
      <trkpt lat="47.136783991008997" lon="9.522314993664622">
        <ele>463.49000000000001</ele>
        <time>2025-05-20T11:11:28Z</time>
      </trkpt>
      <trkpt lat="47.136906031519175" lon="9.522399986162782">
        <ele>463.97000000000003</ele>
        <time>2025-05-20T11:11:39Z</time>
      </trkpt>
      <trkpt lat="47.136807963252068" lon="9.522447008639574">
        <ele>490.41000000000003</ele>
        <time>2025-05-20T11:13:51Z</time>
      </trkpt>
      <trkpt lat="47.136893039569259" lon="9.522554967552424">
        <ele>477.91000000000003</ele>
        <time>2025-05-20T11:14:27Z</time>
      </trkpt>
      <trkpt lat="47.136931009590626" lon="9.522510040551424">
        <ele>476.47000000000003</ele>
        <time>2025-05-20T11:14:49Z</time>
      </trkpt>
      <trkpt lat="47.136863032355905" lon="9.522336032241583">
        <ele>475.99000000000001</ele>
        <time>2025-05-20T11:14:51Z</time>
      </trkpt>
      <trkpt lat="47.136863032355905" lon="9.522336032241583">
        <ele>475.50999999999999</ele>
        <time>2025-05-20T11:14:52Z</time>
      </trkpt>
      <trkpt lat="47.136879963800311" lon="9.522291021421552">
        <ele>475.02999999999997</ele>
        <time>2025-05-20T11:14:53Z</time>
      </trkpt>
      <trkpt lat="47.136903014034033" lon="9.522227989509702">
        <ele>474.06999999999999</ele>
        <time>2025-05-20T11:14:54Z</time>
      </trkpt>
      <trkpt lat="47.136926986277103" lon="9.522164035588503">
        <ele>473.58999999999997</ele>
        <time>2025-05-20T11:14:55Z</time>
      </trkpt>
      <trkpt lat="47.137013990432024" lon="9.522126987576485">
        <ele>472.13999999999999</ele>
        <time>2025-05-20T11:14:56Z</time>
      </trkpt>
      <trkpt lat="47.137059001252055" lon="9.522107038646936">
        <ele>471.18000000000001</ele>
        <time>2025-05-20T11:14:57Z</time>
      </trkpt>
      <trkpt lat="47.137077022343874" lon="9.522099997848272">
        <ele>470.22000000000003</ele>
        <time>2025-05-20T11:14:58Z</time>
      </trkpt>
      <trkpt lat="47.137137036770582" lon="9.522081976756454">
        <ele>469.25999999999999</ele>
        <time>2025-05-20T11:14:59Z</time>
      </trkpt>
      <trkpt lat="47.137374999001622" lon="9.52200997620821">
        <ele>462.52999999999997</ele>
        <time>2025-05-20T11:15:10Z</time>
      </trkpt>
      <trkpt lat="47.137374999001622" lon="9.52200997620821">
        <ele>461.56999999999999</ele>
        <time>2025-05-20T11:15:26Z</time>
      </trkpt>
      <trkpt lat="47.137604998424649" lon="9.521939987316728">
        <ele>462.05000000000001</ele>
        <time>2025-05-20T11:15:35Z</time>
      </trkpt>
      <trkpt lat="47.137871040031314" lon="9.521860023960471">
        <ele>461.56999999999999</ele>
        <time>2025-05-20T11:15:39Z</time>
      </trkpt>
      <trkpt lat="47.137911021709442" lon="9.521848037838936">
        <ele>461.56999999999999</ele>
        <time>2025-05-20T11:15:40Z</time>
      </trkpt>
      <trkpt lat="47.137938011437654" lon="9.521838985383511">
        <ele>461.56999999999999</ele>
        <time>2025-05-20T11:15:41Z</time>
      </trkpt>
      <trkpt lat="47.137961983680725" lon="9.521832028403878">
        <ele>462.05000000000001</ele>
        <time>2025-05-20T11:15:42Z</time>
      </trkpt>
      <trkpt lat="47.137982016429305" lon="9.521825993433595">
        <ele>462.05000000000001</ele>
        <time>2025-05-20T11:15:43Z</time>
      </trkpt>
      <trkpt lat="47.138321986421943" lon="9.521756004542112">
        <ele>462.05000000000001</ele>
        <time>2025-05-20T11:15:52Z</time>
      </trkpt>
      <trkpt lat="47.138321986421943" lon="9.521756004542112">
        <ele>462.52999999999997</ele>
        <time>2025-05-20T11:16:04Z</time>
      </trkpt>
      <trkpt lat="47.138321986421943" lon="9.521756004542112">
        <ele>462.52999999999997</ele>
        <time>2025-05-20T11:16:41Z</time>
      </trkpt>
      <trkpt lat="47.138321986421943" lon="9.521756004542112">
        <ele>462.52999999999997</ele>
        <time>2025-05-20T11:17:31Z</time>
      </trkpt>
      <trkpt lat="47.138332966715097" lon="9.521753992885351">
        <ele>463.00999999999999</ele>
        <time>2025-05-20T11:17:58Z</time>
      </trkpt>
      <trkpt lat="47.138364985585213" lon="9.521745024248958">
        <ele>463.97000000000003</ele>
        <time>2025-05-20T11:17:59Z</time>
      </trkpt>
      <trkpt lat="47.138477973639965" lon="9.521717028692365">
        <ele>466.86000000000001</ele>
        <time>2025-05-20T11:18:08Z</time>
      </trkpt>
      <trkpt lat="47.138614011928439" lon="9.521682998165488">
        <ele>468.77999999999997</ele>
        <time>2025-05-20T11:18:17Z</time>
      </trkpt>
      <trkpt lat="47.138705039396882" lon="9.521660031750798">
        <ele>469.25999999999999</ele>
        <time>2025-05-20T11:19:00Z</time>
      </trkpt>
      <trkpt lat="47.138750972226262" lon="9.521648967638612">
        <ele>469.25999999999999</ele>
        <time>2025-05-20T11:19:01Z</time>
      </trkpt>
      <trkpt lat="47.138952976092696" lon="9.521618960425258">
        <ele>469.74000000000001</ele>
        <time>2025-05-20T11:19:04Z</time>
      </trkpt>
      <trkpt lat="47.138995975255966" lon="9.521616026759148">
        <ele>469.74000000000001</ele>
        <time>2025-05-20T11:19:05Z</time>
      </trkpt>
      <trkpt lat="47.139152968302369" lon="9.521602028980851">
        <ele>470.22000000000003</ele>
        <time>2025-05-20T11:19:11Z</time>
      </trkpt>
      <trkpt lat="47.139178030192852" lon="9.52160001732409">
        <ele>470.22000000000003</ele>
        <time>2025-05-20T11:19:12Z</time>
      </trkpt>
      <trkpt lat="47.139330999925733" lon="9.521587025374174">
        <ele>471.66000000000003</ele>
        <time>2025-05-20T11:19:24Z</time>
      </trkpt>
      <trkpt lat="47.139593018218875" lon="9.521577972918749">
        <ele>473.58999999999997</ele>
        <time>2025-05-20T11:19:43Z</time>
      </trkpt>
      <trkpt lat="47.139771971851587" lon="9.521547965705395">
        <ele>472.13999999999999</ele>
        <time>2025-05-20T11:19:46Z</time>
      </trkpt>
      <trkpt lat="47.139821005985141" lon="9.521537991240621">
        <ele>472.13999999999999</ele>
        <time>2025-05-20T11:19:47Z</time>
      </trkpt>
      <trkpt lat="47.13986299932003" lon="9.521530028432608">
        <ele>471.66000000000003</ele>
        <time>2025-05-20T11:19:48Z</time>
      </trkpt>
      <trkpt lat="47.139955032616854" lon="9.521511001512408">
        <ele>470.22000000000003</ele>
        <time>2025-05-20T11:19:50Z</time>
      </trkpt>
      <trkpt lat="47.140016974881291" lon="9.521499015390873">
        <ele>470.22000000000003</ele>
        <time>2025-05-20T11:19:51Z</time>
      </trkpt>
      <trkpt lat="47.140022004023194" lon="9.521495997905731">
        <ele>469.74000000000001</ele>
        <time>2025-05-20T11:19:52Z</time>
      </trkpt>
      <trkpt lat="47.140223002061248" lon="9.521354008466005">
        <ele>467.33999999999997</ele>
        <time>2025-05-20T11:19:59Z</time>
      </trkpt>
      <trkpt lat="47.140325009822845" lon="9.521282007917762">
        <ele>465.89999999999998</ele>
        <time>2025-05-20T11:20:01Z</time>
      </trkpt>
      <trkpt lat="47.14037798345089" lon="9.521244037896395">
        <ele>464.93000000000001</ele>
        <time>2025-05-20T11:20:02Z</time>
      </trkpt>
      <trkpt lat="47.140501029789448" lon="9.521139012649655">
        <ele>461.56999999999999</ele>
        <time>2025-05-20T11:20:10Z</time>
      </trkpt>
      <trkpt lat="47.140595996752381" lon="9.521057959645987">
        <ele>461.08999999999997</ele>
        <time>2025-05-20T11:20:29Z</time>
      </trkpt>
      <trkpt lat="47.140747960656881" lon="9.520961986854672">
        <ele>462.05000000000001</ele>
        <time>2025-05-20T11:20:49Z</time>
      </trkpt>
      <trkpt lat="47.140856003388762" lon="9.520926028490067">
        <ele>462.52999999999997</ele>
        <time>2025-05-20T11:20:56Z</time>
      </trkpt>
      <trkpt lat="47.140899002552032" lon="9.52091203071177">
        <ele>463.00999999999999</ele>
        <time>2025-05-20T11:20:57Z</time>
      </trkpt>
      <trkpt lat="47.140961028635502" lon="9.521027030423284">
        <ele>463.00999999999999</ele>
        <time>2025-05-20T11:20:58Z</time>
      </trkpt>
      <trkpt lat="47.141033029183745" lon="9.521080004051328">
        <ele>463.49000000000001</ele>
        <time>2025-05-20T11:21:00Z</time>
      </trkpt>
      <trkpt lat="47.141133025288582" lon="9.520941032096744">
        <ele>463.97000000000003</ele>
        <time>2025-05-20T11:21:01Z</time>
      </trkpt>
      <trkpt lat="47.141165966168046" lon="9.520929967984557">
        <ele>464.44999999999999</ele>
        <time>2025-05-20T11:21:02Z</time>
      </trkpt>
      <trkpt lat="47.141262022778392" lon="9.520898032933474">
        <ele>464.44999999999999</ele>
        <time>2025-05-20T11:21:03Z</time>
      </trkpt>
      <trkpt lat="47.141262022778392" lon="9.520898032933474">
        <ele>464.93000000000001</ele>
        <time>2025-05-20T11:21:04Z</time>
      </trkpt>
      <trkpt lat="47.141328994184732" lon="9.520821003243327">
        <ele>464.93000000000001</ele>
        <time>2025-05-20T11:21:07Z</time>
      </trkpt>
      <trkpt lat="47.14136503636837" lon="9.520779009908438">
        <ele>464.93000000000001</ele>
        <time>2025-05-20T11:21:08Z</time>
      </trkpt>
      <trkpt lat="47.14140996336937" lon="9.520727964118123">
        <ele>464.93000000000001</ele>
        <time>2025-05-20T11:21:09Z</time>
      </trkpt>
      <trkpt lat="47.141457991674542" lon="9.520671973004937">
        <ele>464.93000000000001</ele>
        <time>2025-05-20T11:21:10Z</time>
      </trkpt>
      <trkpt lat="47.141505014151335" lon="9.520617993548513">
        <ele>464.93000000000001</ele>
        <time>2025-05-20T11:21:11Z</time>
      </trkpt>
      <trkpt lat="47.141634011641145" lon="9.520469969138503">
        <ele>465.89999999999998</ele>
        <time>2025-05-20T11:21:14Z</time>
      </trkpt>
      <trkpt lat="47.142039025202394" lon="9.519975017756224">
        <ele>468.77999999999997</ele>
        <time>2025-05-20T11:21:23Z</time>
      </trkpt>
      <trkpt lat="47.142469016835093" lon="9.519399013370276">
        <ele>473.58999999999997</ele>
        <time>2025-05-20T11:21:31Z</time>
      </trkpt>
      <trkpt lat="47.142636990174651" lon="9.519173037260771">
        <ele>474.55000000000001</ele>
        <time>2025-05-20T11:21:34Z</time>
      </trkpt>
      <trkpt lat="47.143264962360263" lon="9.518257984891534">
        <ele>479.83999999999997</ele>
        <time>2025-05-20T11:21:45Z</time>
      </trkpt>
      <trkpt lat="47.144083036109805" lon="9.516871031373739">
        <ele>483.19999999999999</ele>
        <time>2025-05-20T11:21:56Z</time>
      </trkpt>
      <trkpt lat="47.144529037177563" lon="9.516044994816184">
        <ele>485.60000000000002</ele>
        <time>2025-05-20T11:22:04Z</time>
      </trkpt>
      <trkpt lat="47.144773034378886" lon="9.515636041760445">
        <ele>486.07999999999998</ele>
        <time>2025-05-20T11:22:09Z</time>
      </trkpt>
      <trkpt lat="47.144837994128466" lon="9.515535961836577">
        <ele>486.07999999999998</ele>
        <time>2025-05-20T11:22:10Z</time>
      </trkpt>
      <trkpt lat="47.145639974623919" lon="9.514422006905079">
        <ele>486.56</ele>
        <time>2025-05-20T11:22:21Z</time>
      </trkpt>
      <trkpt lat="47.146666003391147" lon="9.513528998941183">
        <ele>484.63999999999999</ele>
        <time>2025-05-20T11:22:33Z</time>
      </trkpt>
      <trkpt lat="47.146838000044227" lon="9.513401007279754">
        <ele>484.63999999999999</ele>
        <time>2025-05-20T11:22:36Z</time>
      </trkpt>
      <trkpt lat="47.146863983944058" lon="9.513380974531174">
        <ele>484.16000000000003</ele>
        <time>2025-05-20T11:22:37Z</time>
      </trkpt>
      <trkpt lat="47.147055007517338" lon="9.513237979263067">
        <ele>484.16000000000003</ele>
        <time>2025-05-20T11:22:47Z</time>
      </trkpt>
      <trkpt lat="47.147202026098967" lon="9.513128008693457">
        <ele>485.60000000000002</ele>
        <time>2025-05-20T11:22:55Z</time>
      </trkpt>
      <trkpt lat="47.147736959159374" lon="9.512777980417013">
        <ele>485.12</ele>
        <time>2025-05-20T11:23:03Z</time>
      </trkpt>
      <trkpt lat="47.148408014327288" lon="9.512481009587646">
        <ele>485.60000000000002</ele>
        <time>2025-05-20T11:23:11Z</time>
      </trkpt>
      <trkpt lat="47.148464005440474" lon="9.512456031516194">
        <ele>485.60000000000002</ele>
        <time>2025-05-20T11:23:12Z</time>
      </trkpt>
      <trkpt lat="47.148582022637129" lon="9.512403979897499">
        <ele>485.60000000000002</ele>
        <time>2025-05-20T11:23:14Z</time>
      </trkpt>
      <trkpt lat="47.148644970729947" lon="9.512375984340906">
        <ele>485.60000000000002</ele>
        <time>2025-05-20T11:23:15Z</time>
      </trkpt>
      <trkpt lat="47.149591958150268" lon="9.511984968557954">
        <ele>486.07999999999998</ele>
        <time>2025-05-20T11:23:26Z</time>
      </trkpt>
      <trkpt lat="47.150554032996297" lon="9.511538967490196">
        <ele>484.63999999999999</ele>
        <time>2025-05-20T11:23:37Z</time>
      </trkpt>
      <trkpt lat="47.151020988821983" lon="9.511350961402059">
        <ele>483.19999999999999</ele>
        <time>2025-05-20T11:23:42Z</time>
      </trkpt>
      <trkpt lat="47.151115033775568" lon="9.511322965845466">
        <ele>483.19999999999999</ele>
        <time>2025-05-20T11:23:43Z</time>
      </trkpt>
      <trkpt lat="47.151215029880404" lon="9.511293964460492">
        <ele>483.68000000000001</ele>
        <time>2025-05-20T11:23:44Z</time>
      </trkpt>
      <trkpt lat="47.151703024283051" lon="9.511183993890882">
        <ele>485.12</ele>
        <time>2025-05-20T11:23:49Z</time>
      </trkpt>
      <trkpt lat="47.15180603787303" lon="9.511163039132953">
        <ele>485.60000000000002</ele>
        <time>2025-05-20T11:23:50Z</time>
      </trkpt>
      <trkpt lat="47.151913996785879" lon="9.511140994727612">
        <ele>486.07999999999998</ele>
        <time>2025-05-20T11:23:51Z</time>
      </trkpt>
      <trkpt lat="47.15202203951776" lon="9.511120039969683">
        <ele>486.56</ele>
        <time>2025-05-20T11:23:52Z</time>
      </trkpt>
      <trkpt lat="47.15212999843061" lon="9.511097995564342">
        <ele>486.56</ele>
        <time>2025-05-20T11:23:53Z</time>
      </trkpt>
      <trkpt lat="47.152247009798884" lon="9.511075029149652">
        <ele>487.05000000000001</ele>
        <time>2025-05-20T11:23:54Z</time>
      </trkpt>
      <trkpt lat="47.152369972318411" lon="9.511036975309253">
        <ele>487.05000000000001</ele>
        <time>2025-05-20T11:23:55Z</time>
      </trkpt>
      <trkpt lat="47.153686014935374" lon="9.510706979781389">
        <ele>490.88999999999999</ele>
        <time>2025-05-20T11:24:06Z</time>
      </trkpt>
      <trkpt lat="47.154282974079251" lon="9.510570019483566">
        <ele>490.41000000000003</ele>
        <time>2025-05-20T11:24:12Z</time>
      </trkpt>
      <trkpt lat="47.154949000105262" lon="9.510445967316628">
        <ele>487.52999999999997</ele>
        <time>2025-05-20T11:24:21Z</time>
      </trkpt>
      <trkpt lat="47.155890958383679" lon="9.510108008980751">
        <ele>482.72000000000003</ele>
        <time>2025-05-20T11:24:33Z</time>
      </trkpt>
      <trkpt lat="47.155994977802038" lon="9.510055035352707">
        <ele>482.72000000000003</ele>
        <time>2025-05-20T11:24:34Z</time>
      </trkpt>
      <trkpt lat="47.156753959134221" lon="9.509653961285949">
        <ele>482.24000000000001</ele>
        <time>2025-05-20T11:24:41Z</time>
      </trkpt>
      <trkpt lat="47.156828977167606" lon="9.509651027619839">
        <ele>482.72000000000003</ele>
        <time>2025-05-20T11:24:42Z</time>
      </trkpt>
      <trkpt lat="47.15694397687912" lon="9.509647004306316">
        <ele>482.72000000000003</ele>
        <time>2025-05-20T11:24:43Z</time>
      </trkpt>
      <trkpt lat="47.157055959105492" lon="9.509642980992794">
        <ele>482.72000000000003</ele>
        <time>2025-05-20T11:24:44Z</time>
      </trkpt>
      <trkpt lat="47.157170036807656" lon="9.509639041498303">
        <ele>482.72000000000003</ele>
        <time>2025-05-20T11:24:45Z</time>
      </trkpt>
      <trkpt lat="47.158240992575884" lon="9.509562011808157">
        <ele>482.24000000000001</ele>
        <time>2025-05-20T11:24:55Z</time>
      </trkpt>
      <trkpt lat="47.158960998058319" lon="9.509364031255245">
        <ele>480.80000000000001</ele>
        <time>2025-05-20T11:25:03Z</time>
      </trkpt>
      <trkpt lat="47.159314965829253" lon="9.509259006008506">
        <ele>479.35000000000002</ele>
        <time>2025-05-20T11:25:07Z</time>
      </trkpt>
      <trkpt lat="47.159403981640935" lon="9.509232016280294">
        <ele>478.87</ele>
        <time>2025-05-20T11:25:08Z</time>
      </trkpt>
      <trkpt lat="47.1594990324229" lon="9.509204020723701">
        <ele>478.38999999999999</ele>
        <time>2025-05-20T11:25:09Z</time>
      </trkpt>
      <trkpt lat="47.16087500564754" lon="9.508854998275638">
        <ele>474.55000000000001</ele>
        <time>2025-05-20T11:25:22Z</time>
      </trkpt>
      <trkpt lat="47.161945961415768" lon="9.508672021329403">
        <ele>474.55000000000001</ele>
        <time>2025-05-20T11:25:32Z</time>
      </trkpt>
      <trkpt lat="47.162263970822096" lon="9.508636984974146">
        <ele>473.11000000000001</ele>
        <time>2025-05-20T11:25:35Z</time>
      </trkpt>
      <trkpt lat="47.162370001897216" lon="9.508624998852611">
        <ele>472.63</ele>
        <time>2025-05-20T11:25:36Z</time>
      </trkpt>
      <trkpt lat="47.163437018170953" lon="9.508565990254283">
        <ele>467.81999999999999</ele>
        <time>2025-05-20T11:25:46Z</time>
      </trkpt>
      <trkpt lat="47.16354195959866" lon="9.508575964719057">
        <ele>467.33999999999997</ele>
        <time>2025-05-20T11:25:47Z</time>
      </trkpt>
      <trkpt lat="47.163644973188639" lon="9.508585017174482">
        <ele>467.81999999999999</ele>
        <time>2025-05-20T11:25:48Z</time>
      </trkpt>
      <trkpt lat="47.16375301592052" lon="9.508594991639257">
        <ele>468.77999999999997</ele>
        <time>2025-05-20T11:25:49Z</time>
      </trkpt>
      <trkpt lat="47.164195999503136" lon="9.508670009672642">
        <ele>469.74000000000001</ele>
        <time>2025-05-20T11:25:53Z</time>
      </trkpt>
      <trkpt lat="47.164305970072746" lon="9.508690964430571">
        <ele>469.74000000000001</ele>
        <time>2025-05-20T11:25:54Z</time>
      </trkpt>
      <trkpt lat="47.16517299413681" lon="9.508852986618877">
        <ele>469.25999999999999</ele>
        <time>2025-05-20T11:26:02Z</time>
      </trkpt>
      <trkpt lat="47.165692001581192" lon="9.509036969393492">
        <ele>471.18000000000001</ele>
        <time>2025-05-20T11:26:07Z</time>
      </trkpt>
      <trkpt lat="47.16579501517117" lon="9.509075023233891">
        <ele>471.66000000000003</ele>
        <time>2025-05-20T11:26:08Z</time>
      </trkpt>
      <trkpt lat="47.166560031473637" lon="9.50959000736475">
        <ele>472.63</ele>
        <time>2025-05-20T11:26:17Z</time>
      </trkpt>
      <trkpt lat="47.167090019211173" lon="9.510017987340689">
        <ele>472.63</ele>
        <time>2025-05-20T11:26:26Z</time>
      </trkpt>
      <trkpt lat="47.167150033637881" lon="9.510080013424158">
        <ele>472.63</ele>
        <time>2025-05-20T11:26:27Z</time>
      </trkpt>
      <trkpt lat="47.167250029742718" lon="9.510205993428826">
        <ele>472.63</ele>
        <time>2025-05-20T11:26:29Z</time>
      </trkpt>
      <trkpt lat="47.167296968400478" lon="9.510266007855535">
        <ele>472.13999999999999</ele>
        <time>2025-05-20T11:26:30Z</time>
      </trkpt>
      <trkpt lat="47.167350025847554" lon="9.510332979261875">
        <ele>472.13999999999999</ele>
        <time>2025-05-20T11:26:31Z</time>
      </trkpt>
      <trkpt lat="47.167416997253895" lon="9.510416965931654">
        <ele>471.66000000000003</ele>
        <time>2025-05-20T11:26:32Z</time>
      </trkpt>
      <trkpt lat="47.167495032772422" lon="9.510516040027142">
        <ele>471.66000000000003</ele>
        <time>2025-05-20T11:26:33Z</time>
      </trkpt>
      <trkpt lat="47.167565021663904" lon="9.510625004768372">
        <ele>471.66000000000003</ele>
        <time>2025-05-20T11:26:34Z</time>
      </trkpt>
      <trkpt lat="47.167638028040528" lon="9.510756013914943">
        <ele>472.13999999999999</ele>
        <time>2025-05-20T11:26:35Z</time>
      </trkpt>
      <trkpt lat="47.167956959456205" lon="9.511399995535612">
        <ele>472.63</ele>
        <time>2025-05-20T11:26:40Z</time>
      </trkpt>
      <trkpt lat="47.168012028560042" lon="9.511529998853803">
        <ele>473.11000000000001</ele>
        <time>2025-05-20T11:26:41Z</time>
      </trkpt>
      <trkpt lat="47.168389968574047" lon="9.512520991265774">
        <ele>473.11000000000001</ele>
        <time>2025-05-20T11:26:48Z</time>
      </trkpt>
      <trkpt lat="47.169196978211403" lon="9.514108020812273">
        <ele>472.63</ele>
        <time>2025-05-20T11:27:00Z</time>
      </trkpt>
      <trkpt lat="47.17011597007513" lon="9.515567980706692">
        <ele>470.69999999999999</ele>
        <time>2025-05-20T11:27:12Z</time>
      </trkpt>
      <trkpt lat="47.170599019154906" lon="9.516648994758725">
        <ele>471.18000000000001</ele>
        <time>2025-05-20T11:27:20Z</time>
      </trkpt>
      <trkpt lat="47.170648975297809" lon="9.516785033047199">
        <ele>471.18000000000001</ele>
        <time>2025-05-20T11:27:21Z</time>
      </trkpt>
      <trkpt lat="47.170701026916504" lon="9.516927022486925">
        <ele>471.66000000000003</ele>
        <time>2025-05-20T11:27:22Z</time>
      </trkpt>
      <trkpt lat="47.170899007469416" lon="9.517330024391413">
        <ele>470.69999999999999</ele>
        <time>2025-05-20T11:27:25Z</time>
      </trkpt>
      <trkpt lat="47.171040996909142" lon="9.517587013542652">
        <ele>470.69999999999999</ele>
        <time>2025-05-20T11:27:27Z</time>
      </trkpt>
      <trkpt lat="47.172340024262667" lon="9.519228022545576">
        <ele>473.11000000000001</ele>
        <time>2025-05-20T11:27:42Z</time>
      </trkpt>
      <trkpt lat="47.173425983637571" lon="9.520119018852711">
        <ele>474.06999999999999</ele>
        <time>2025-05-20T11:27:53Z</time>
      </trkpt>
      <trkpt lat="47.174701960757375" lon="9.520659986883402">
        <ele>474.06999999999999</ele>
        <time>2025-05-20T11:28:03Z</time>
      </trkpt>
      <trkpt lat="47.176490994170308" lon="9.521399019286037">
        <ele>473.11000000000001</ele>
        <time>2025-05-20T11:28:16Z</time>
      </trkpt>
      <trkpt lat="47.177421972155571" lon="9.521822975948453">
        <ele>474.55000000000001</ele>
        <time>2025-05-20T11:28:23Z</time>
      </trkpt>
      <trkpt lat="47.17838304117322" lon="9.522227989509702">
        <ele>475.02999999999997</ele>
        <time>2025-05-20T11:28:31Z</time>
      </trkpt>
      <trkpt lat="47.17859803698957" lon="9.522227989509702">
        <ele>474.55000000000001</ele>
        <time>2025-05-20T11:28:33Z</time>
      </trkpt>
      <trkpt lat="47.178775984793901" lon="9.522377019748092">
        <ele>474.55000000000001</ele>
        <time>2025-05-20T11:28:35Z</time>
      </trkpt>
      <trkpt lat="47.178885033354163" lon="9.522455977275968">
        <ele>474.55000000000001</ele>
        <time>2025-05-20T11:28:36Z</time>
      </trkpt>
      <trkpt lat="47.179000033065677" lon="9.522538036108017">
        <ele>474.06999999999999</ele>
        <time>2025-05-20T11:28:37Z</time>
      </trkpt>
      <trkpt lat="47.18023200519383" lon="9.523266004398465">
        <ele>472.63</ele>
        <time>2025-05-20T11:28:47Z</time>
      </trkpt>
      <trkpt lat="47.180347004905343" lon="9.523338004946709">
        <ele>472.13999999999999</ele>
        <time>2025-05-20T11:28:48Z</time>
      </trkpt>
      <trkpt lat="47.180457981303334" lon="9.523430038243532">
        <ele>472.13999999999999</ele>
        <time>2025-05-20T11:28:49Z</time>
      </trkpt>
      <trkpt lat="47.181388037279248" lon="9.52426697127521">
        <ele>468.30000000000001</ele>
        <time>2025-05-20T11:28:58Z</time>
      </trkpt>
      <trkpt lat="47.182506015524268" lon="9.525714023038745">
        <ele>467.33999999999997</ele>
        <time>2025-05-20T11:29:10Z</time>
      </trkpt>
      <trkpt lat="47.183491978794336" lon="9.527496015653014">
        <ele>465.89999999999998</ele>
        <time>2025-05-20T11:29:22Z</time>
      </trkpt>
      <trkpt lat="47.184083992615342" lon="9.529033005237579">
        <ele>467.33999999999997</ele>
        <time>2025-05-20T11:29:31Z</time>
      </trkpt>
      <trkpt lat="47.184581961482763" lon="9.530992023646832">
        <ele>466.86000000000001</ele>
        <time>2025-05-20T11:29:40Z</time>
      </trkpt>
      <trkpt lat="47.185134999454021" lon="9.533318001776934">
        <ele>463.97000000000003</ele>
        <time>2025-05-20T11:29:49Z</time>
      </trkpt>
      <trkpt lat="47.18611802905798" lon="9.535874985158444">
        <ele>461.08999999999997</ele>
        <time>2025-05-20T11:29:59Z</time>
      </trkpt>
      <trkpt lat="47.187657030299306" lon="9.538072971627116">
        <ele>460.61000000000001</ele>
        <time>2025-05-20T11:30:10Z</time>
      </trkpt>
      <trkpt lat="47.189146997407079" lon="9.539657989516854">
        <ele>461.08999999999997</ele>
        <time>2025-05-20T11:30:20Z</time>
      </trkpt>
      <trkpt lat="47.189316982403398" lon="9.539739964529872">
        <ele>461.08999999999997</ele>
        <time>2025-05-20T11:30:21Z</time>
      </trkpt>
      <trkpt lat="47.190746013075113" lon="9.54003400169313">
        <ele>462.05000000000001</ele>
        <time>2025-05-20T11:30:29Z</time>
      </trkpt>
      <trkpt lat="47.192683992907405" lon="9.539852030575275">
        <ele>465.42000000000002</ele>
        <time>2025-05-20T11:30:40Z</time>
      </trkpt>
      <trkpt lat="47.192827994003892" lon="9.539839960634708">
        <ele>465.42000000000002</ele>
        <time>2025-05-20T11:30:41Z</time>
      </trkpt>
      <trkpt lat="47.192965960130095" lon="9.539827974513173">
        <ele>464.93000000000001</ele>
        <time>2025-05-20T11:30:42Z</time>
      </trkpt>
      <trkpt lat="47.193709015846252" lon="9.539911039173603">
        <ele>464.93000000000001</ele>
        <time>2025-05-20T11:30:49Z</time>
      </trkpt>
      <trkpt lat="47.194486018270254" lon="9.540112959221005">
        <ele>467.33999999999997</ele>
        <time>2025-05-20T11:30:56Z</time>
      </trkpt>
      <trkpt lat="47.195047019049525" lon="9.540388975292444">
        <ele>469.25999999999999</ele>
        <time>2025-05-20T11:31:02Z</time>
      </trkpt>
      <trkpt lat="47.19512396492064" lon="9.540429962798953">
        <ele>469.74000000000001</ele>
        <time>2025-05-20T11:31:03Z</time>
      </trkpt>
      <trkpt lat="47.195203006267548" lon="9.540472039952874">
        <ele>469.74000000000001</ele>
        <time>2025-05-20T11:31:04Z</time>
      </trkpt>
      <trkpt lat="47.195841958746314" lon="9.540961962193251">
        <ele>472.13999999999999</ele>
        <time>2025-05-20T11:31:12Z</time>
      </trkpt>
      <trkpt lat="47.195921000093222" lon="9.541024994105101">
        <ele>471.66000000000003</ele>
        <time>2025-05-20T11:31:13Z</time>
      </trkpt>
      <trkpt lat="47.19701299443841" lon="9.541722033172846">
        <ele>470.22000000000003</ele>
        <time>2025-05-20T11:31:25Z</time>
      </trkpt>
      <trkpt lat="47.198112029582262" lon="9.542647982016206">
        <ele>473.11000000000001</ele>
        <time>2025-05-20T11:31:37Z</time>
      </trkpt>
      <trkpt lat="47.198828011751175" lon="9.543305961415172">
        <ele>470.22000000000003</ele>
        <time>2025-05-20T11:31:45Z</time>
      </trkpt>
      <trkpt lat="47.199749015271664" lon="9.544176002964377">
        <ele>466.38</ele>
        <time>2025-05-20T11:31:56Z</time>
      </trkpt>
      <trkpt lat="47.19982503913343" lon="9.544244986027479">
        <ele>465.42000000000002</ele>
        <time>2025-05-20T11:31:57Z</time>
      </trkpt>
      <trkpt lat="47.200026037171483" lon="9.544427962973714">
        <ele>463.97000000000003</ele>
        <time>2025-05-20T11:32:00Z</time>
      </trkpt>
      <trkpt lat="47.200378999114037" lon="9.544732980430126">
        <ele>461.56999999999999</ele>
        <time>2025-05-20T11:32:09Z</time>
      </trkpt>
      <trkpt lat="47.200378999114037" lon="9.544732980430126">
        <ele>461.56999999999999</ele>
        <time>2025-05-20T11:32:22Z</time>
      </trkpt>
      <trkpt lat="47.20053699798882" lon="9.544857032597065">
        <ele>464.44999999999999</ele>
        <time>2025-05-20T11:32:45Z</time>
      </trkpt>
      <trkpt lat="47.201312994584441" lon="9.545284006744623">
        <ele>464.93000000000001</ele>
        <time>2025-05-20T11:32:54Z</time>
      </trkpt>
      <trkpt lat="47.201501000672579" lon="9.545353995636106">
        <ele>464.93000000000001</ele>
        <time>2025-05-20T11:32:56Z</time>
      </trkpt>
      <trkpt lat="47.201596973463893" lon="9.545390959829092">
        <ele>464.93000000000001</ele>
        <time>2025-05-20T11:32:57Z</time>
      </trkpt>
      <trkpt lat="47.201685989275575" lon="9.545423984527588">
        <ele>465.42000000000002</ele>
        <time>2025-05-20T11:32:58Z</time>
      </trkpt>
      <trkpt lat="47.20290002413094" lon="9.545912984758616">
        <ele>465.42000000000002</ele>
        <time>2025-05-20T11:33:10Z</time>
      </trkpt>
      <trkpt lat="47.204235009849072" lon="9.546699039638042">
        <ele>464.44999999999999</ele>
        <time>2025-05-20T11:33:21Z</time>
      </trkpt>
      <trkpt lat="47.204671958461404" lon="9.547035992145538">
        <ele>465.42000000000002</ele>
        <time>2025-05-20T11:33:25Z</time>
      </trkpt>
      <trkpt lat="47.204763991758227" lon="9.547132970765233">
        <ele>464.44999999999999</ele>
        <time>2025-05-20T11:33:26Z</time>
      </trkpt>
      <trkpt lat="47.205918012186885" lon="9.548307023942471">
        <ele>461.08999999999997</ele>
        <time>2025-05-20T11:33:38Z</time>
      </trkpt>
      <trkpt lat="47.207041019573808" lon="9.549529021605849">
        <ele>460.13</ele>
        <time>2025-05-20T11:33:49Z</time>
      </trkpt>
      <trkpt lat="47.208088003098965" lon="9.551257034763694">
        <ele>462.05000000000001</ele>
        <time>2025-05-20T11:34:01Z</time>
      </trkpt>
      <trkpt lat="47.208616985008121" lon="9.552998961880803">
        <ele>463.49000000000001</ele>
        <time>2025-05-20T11:34:11Z</time>
      </trkpt>
      <trkpt lat="47.20883097499609" lon="9.554169997572899">
        <ele>464.44999999999999</ele>
        <time>2025-05-20T11:34:18Z</time>
      </trkpt>
      <trkpt lat="47.209113026037812" lon="9.556102026253939">
        <ele>465.89999999999998</ele>
        <time>2025-05-20T11:34:30Z</time>
      </trkpt>
      <trkpt lat="47.209466993808746" lon="9.557927018031478">
        <ele>464.44999999999999</ele>
        <time>2025-05-20T11:34:41Z</time>
      </trkpt>
      <trkpt lat="47.209948031231761" lon="9.55937197431922">
        <ele>461.56999999999999</ele>
        <time>2025-05-20T11:34:50Z</time>
      </trkpt>
      <trkpt lat="47.210544990375638" lon="9.561014994978905">
        <ele>461.56999999999999</ele>
        <time>2025-05-20T11:35:02Z</time>
      </trkpt>
      <trkpt lat="47.210784964263439" lon="9.561508018523455">
        <ele>461.08999999999997</ele>
        <time>2025-05-20T11:35:06Z</time>
      </trkpt>
      <trkpt lat="47.210860988125205" lon="9.561617989093065">
        <ele>461.08999999999997</ele>
        <time>2025-05-20T11:35:07Z</time>
      </trkpt>
      <trkpt lat="47.210943968966603" lon="9.561721002683044">
        <ele>461.08999999999997</ele>
        <time>2025-05-20T11:35:08Z</time>
      </trkpt>
      <trkpt lat="47.211028039455414" lon="9.561825022101402">
        <ele>461.08999999999997</ele>
        <time>2025-05-20T11:35:09Z</time>
      </trkpt>
      <trkpt lat="47.211115965619683" lon="9.561932981014252">
        <ele>461.08999999999997</ele>
        <time>2025-05-20T11:35:10Z</time>
      </trkpt>
      <trkpt lat="47.212250037118793" lon="9.562983987852931">
        <ele>463.00999999999999</ele>
        <time>2025-05-20T11:35:21Z</time>
      </trkpt>
      <trkpt lat="47.213602960109711" lon="9.563965005800128">
        <ele>467.33999999999997</ele>
        <time>2025-05-20T11:35:33Z</time>
      </trkpt>
      <trkpt lat="47.214411981403828" lon="9.564682999625802">
        <ele>471.66000000000003</ele>
        <time>2025-05-20T11:35:40Z</time>
      </trkpt>
      <trkpt lat="47.215548986569047" lon="9.565803995355964">
        <ele>473.58999999999997</ele>
        <time>2025-05-20T11:35:51Z</time>
      </trkpt>
      <trkpt lat="47.21663000062108" lon="9.567196983844042">
        <ele>472.13999999999999</ele>
        <time>2025-05-20T11:36:04Z</time>
      </trkpt>
      <trkpt lat="47.217371966689825" lon="9.568584021180868">
        <ele>472.63</ele>
        <time>2025-05-20T11:36:16Z</time>
      </trkpt>
      <trkpt lat="47.217592997476459" lon="9.569158013910055">
        <ele>472.13999999999999</ele>
        <time>2025-05-20T11:36:22Z</time>
      </trkpt>
      <trkpt lat="47.217750996351242" lon="9.569509970024228">
        <ele>472.63</ele>
        <time>2025-05-20T11:36:27Z</time>
      </trkpt>
      <trkpt lat="47.21787697635591" lon="9.569800989702344">
        <ele>472.63</ele>
        <time>2025-05-20T11:36:33Z</time>
      </trkpt>
      <trkpt lat="47.217902038246393" lon="9.569849018007517">
        <ele>472.13999999999999</ele>
        <time>2025-05-20T11:36:34Z</time>
      </trkpt>
      <trkpt lat="47.217932967469096" lon="9.569904003292322">
        <ele>472.13999999999999</ele>
        <time>2025-05-20T11:36:35Z</time>
      </trkpt>
      <trkpt lat="47.218083003535867" lon="9.570174990221858">
        <ele>471.66000000000003</ele>
        <time>2025-05-20T11:36:39Z</time>
      </trkpt>
      <trkpt lat="47.21828400157392" lon="9.570513032376766">
        <ele>470.69999999999999</ele>
        <time>2025-05-20T11:36:45Z</time>
      </trkpt>
      <trkpt lat="47.218310991302133" lon="9.570554019883275">
        <ele>470.69999999999999</ele>
        <time>2025-05-20T11:36:46Z</time>
      </trkpt>
      <trkpt lat="47.218367988243699" lon="9.570639012381434">
        <ele>470.69999999999999</ele>
        <time>2025-05-20T11:36:48Z</time>
      </trkpt>
      <trkpt lat="47.218505032360554" lon="9.570997003465891">
        <ele>468.77999999999997</ele>
        <time>2025-05-20T11:36:57Z</time>
      </trkpt>
      <trkpt lat="47.218890013173223" lon="9.571911972016096">
        <ele>467.81999999999999</ele>
        <time>2025-05-20T11:37:08Z</time>
      </trkpt>
      <trkpt lat="47.219537012279034" lon="9.572810009121895">
        <ele>467.33999999999997</ele>
        <time>2025-05-20T11:37:19Z</time>
      </trkpt>
      <trkpt lat="47.22032499499619" lon="9.573730006814003">
        <ele>469.25999999999999</ele>
        <time>2025-05-20T11:37:30Z</time>
      </trkpt>
      <trkpt lat="47.221296038478613" lon="9.575062980875373">
        <ele>473.58999999999997</ele>
        <time>2025-05-20T11:37:41Z</time>
      </trkpt>
      <trkpt lat="47.22249498590827" lon="9.577227020636201">
        <ele>483.19999999999999</ele>
        <time>2025-05-20T11:37:56Z</time>
      </trkpt>
      <trkpt lat="47.223485978320241" lon="9.578962996602058">
        <ele>488.00999999999999</ele>
        <time>2025-05-20T11:38:08Z</time>
      </trkpt>
      <trkpt lat="47.224048990756273" lon="9.579949965700507">
        <ele>490.88999999999999</ele>
        <time>2025-05-20T11:38:15Z</time>
      </trkpt>
      <trkpt lat="47.224744018167257" lon="9.581157965585589">
        <ele>493.29000000000002</ele>
        <time>2025-05-20T11:38:24Z</time>
      </trkpt>
      <trkpt lat="47.225570976734161" lon="9.582220036536455">
        <ele>494.74000000000001</ele>
        <time>2025-05-20T11:38:33Z</time>
      </trkpt>
      <trkpt lat="47.22700797021389" lon="9.583600033074617">
        <ele>497.13999999999999</ele>
        <time>2025-05-20T11:38:47Z</time>
      </trkpt>
      <trkpt lat="47.227955963462591" lon="9.58440100774169">
        <ele>495.69999999999999</ele>
        <time>2025-05-20T11:38:56Z</time>
      </trkpt>
      <trkpt lat="47.229322968050838" lon="9.585523009300232">
        <ele>490.88999999999999</ele>
        <time>2025-05-20T11:39:09Z</time>
      </trkpt>
      <trkpt lat="47.230406999588013" lon="9.586352985352278">
        <ele>488.49000000000001</ele>
        <time>2025-05-20T11:39:20Z</time>
      </trkpt>
      <trkpt lat="47.230523005127907" lon="9.586435966193676">
        <ele>488.00999999999999</ele>
        <time>2025-05-20T11:39:22Z</time>
      </trkpt>
      <trkpt lat="47.230564998462796" lon="9.586466979235411">
        <ele>488.00999999999999</ele>
        <time>2025-05-20T11:39:23Z</time>
      </trkpt>
      <trkpt lat="47.230632975697517" lon="9.586516013368964">
        <ele>488.00999999999999</ele>
        <time>2025-05-20T11:39:24Z</time>
      </trkpt>
      <trkpt lat="47.230813018977642" lon="9.586606035009027">
        <ele>484.63999999999999</ele>
        <time>2025-05-20T11:39:33Z</time>
      </trkpt>
      <trkpt lat="47.230827016755939" lon="9.586612991988659">
        <ele>483.19999999999999</ele>
        <time>2025-05-20T11:39:47Z</time>
      </trkpt>
      <trkpt lat="47.230993984267116" lon="9.586695972830057">
        <ele>481.27999999999997</ele>
        <time>2025-05-20T11:39:59Z</time>
      </trkpt>
      <trkpt lat="47.231051987037063" lon="9.586724974215031">
        <ele>480.31999999999999</ele>
        <time>2025-05-20T11:40:07Z</time>
      </trkpt>
      <trkpt lat="47.231104960665107" lon="9.586751963943243">
        <ele>480.31999999999999</ele>
        <time>2025-05-20T11:40:08Z</time>
      </trkpt>
      <trkpt lat="47.231171010062099" lon="9.586779959499836">
        <ele>479.83999999999997</ele>
        <time>2025-05-20T11:40:09Z</time>
      </trkpt>
      <trkpt lat="47.231521960347891" lon="9.586939970031381">
        <ele>478.38999999999999</ele>
        <time>2025-05-20T11:40:13Z</time>
      </trkpt>
      <trkpt lat="47.232212964445353" lon="9.58740902133286">
        <ele>474.06999999999999</ele>
        <time>2025-05-20T11:40:19Z</time>
      </trkpt>
      <trkpt lat="47.232525022700429" lon="9.587815962731838">
        <ele>472.63</ele>
        <time>2025-05-20T11:40:25Z</time>
      </trkpt>
      <trkpt lat="47.232525022700429" lon="9.587815962731838">
        <ele>472.63</ele>
        <time>2025-05-20T11:40:34Z</time>
      </trkpt>
      <trkpt lat="47.23261496052146" lon="9.587945966050029">
        <ele>473.11000000000001</ele>
        <time>2025-05-20T11:41:05Z</time>
      </trkpt>
      <trkpt lat="47.23310898989439" lon="9.58874199539423">
        <ele>472.63</ele>
        <time>2025-05-20T11:41:13Z</time>
      </trkpt>
      <trkpt lat="47.234067963436246" lon="9.589618993923068">
        <ele>471.18000000000001</ele>
        <time>2025-05-20T11:41:22Z</time>
      </trkpt>
      <trkpt lat="47.234175000339746" lon="9.589702980592847">
        <ele>470.69999999999999</ele>
        <time>2025-05-20T11:41:23Z</time>
      </trkpt>
      <trkpt lat="47.234823005273938" lon="9.590277979150415">
        <ele>467.33999999999997</ele>
        <time>2025-05-20T11:41:29Z</time>
      </trkpt>
      <trkpt lat="47.235102960839868" lon="9.590640999376774">
        <ele>466.38</ele>
        <time>2025-05-20T11:41:32Z</time>
      </trkpt>
      <trkpt lat="47.235971996560693" lon="9.59187800064683">
        <ele>463.49000000000001</ele>
        <time>2025-05-20T11:41:42Z</time>
      </trkpt>
      <trkpt lat="47.236242983490229" lon="9.592247977852821">
        <ele>461.08999999999997</ele>
        <time>2025-05-20T11:41:46Z</time>
      </trkpt>
      <trkpt lat="47.23635203205049" lon="9.592407988384366">
        <ele>458.20999999999998</ele>
        <time>2025-05-20T11:41:53Z</time>
      </trkpt>
      <trkpt lat="47.236492009833455" lon="9.592601023614407">
        <ele>455.31999999999999</ele>
        <time>2025-05-20T11:42:08Z</time>
      </trkpt>
      <trkpt lat="47.236542971804738" lon="9.592666989192367">
        <ele>454.36000000000001</ele>
        <time>2025-05-20T11:42:09Z</time>
      </trkpt>
      <trkpt lat="47.236598040908575" lon="9.59273798391223">
        <ele>453.88</ele>
        <time>2025-05-20T11:42:10Z</time>
      </trkpt>
      <trkpt lat="47.237293990328908" lon="9.593471987172961">
        <ele>451.95999999999998</ele>
        <time>2025-05-20T11:42:22Z</time>
      </trkpt>
      <trkpt lat="47.237414019182324" lon="9.593582963570952">
        <ele>451.95999999999998</ele>
        <time>2025-05-20T11:42:24Z</time>
      </trkpt>
      <trkpt lat="47.237588027492166" lon="9.593758983537555">
        <ele>451.95999999999998</ele>
        <time>2025-05-20T11:42:27Z</time>
      </trkpt>
      <trkpt lat="47.237647036090493" lon="9.593826038762927">
        <ele>451.95999999999998</ele>
        <time>2025-05-20T11:42:28Z</time>
      </trkpt>
      <trkpt lat="47.237709984183311" lon="9.593893010169268">
        <ele>451.95999999999998</ele>
        <time>2025-05-20T11:42:29Z</time>
      </trkpt>
      <trkpt lat="47.237768992781639" lon="9.593952018767595">
        <ele>451.95999999999998</ele>
        <time>2025-05-20T11:42:30Z</time>
      </trkpt>
      <trkpt lat="47.237825989723206" lon="9.594013039022684">
        <ele>451.95999999999998</ele>
        <time>2025-05-20T11:42:31Z</time>
      </trkpt>
      <trkpt lat="47.237873012199998" lon="9.594096019864082">
        <ele>451.95999999999998</ele>
        <time>2025-05-20T11:42:32Z</time>
      </trkpt>
      <trkpt lat="47.23792003467679" lon="9.594180006533861">
        <ele>451.95999999999998</ele>
        <time>2025-05-20T11:42:33Z</time>
      </trkpt>
      <trkpt lat="47.237966973334551" lon="9.594262987375259">
        <ele>451.95999999999998</ele>
        <time>2025-05-20T11:42:34Z</time>
      </trkpt>
      <trkpt lat="47.238013995811343" lon="9.594345968216658">
        <ele>451.95999999999998</ele>
        <time>2025-05-20T11:42:35Z</time>
      </trkpt>
      <trkpt lat="47.238033022731543" lon="9.594442024827004">
        <ele>451.95999999999998</ele>
        <time>2025-05-20T11:42:36Z</time>
      </trkpt>
      <trkpt lat="47.238254975527525" lon="9.595670979470015">
        <ele>448.58999999999997</ele>
        <time>2025-05-20T11:42:46Z</time>
      </trkpt>
      <trkpt lat="47.238353965803981" lon="9.596128966659308">
        <ele>449.06999999999999</ele>
        <time>2025-05-20T11:42:49Z</time>
      </trkpt>
      <trkpt lat="47.23839201964438" lon="9.596267016604543">
        <ele>449.55000000000001</ele>
        <time>2025-05-20T11:42:50Z</time>
      </trkpt>
      <trkpt lat="47.238442981615663" lon="9.596397019922733">
        <ele>449.55000000000001</ele>
        <time>2025-05-20T11:42:51Z</time>
      </trkpt>
      <trkpt lat="47.238488998264074" lon="9.596501039341092">
        <ele>449.55000000000001</ele>
        <time>2025-05-20T11:42:52Z</time>
      </trkpt>
      <trkpt lat="47.238531997427344" lon="9.596600029617548">
        <ele>449.55000000000001</ele>
        <time>2025-05-20T11:42:53Z</time>
      </trkpt>
      <trkpt lat="47.238597040995955" lon="9.596749981865287">
        <ele>450.02999999999997</ele>
        <time>2025-05-20T11:42:55Z</time>
      </trkpt>
      <trkpt lat="47.238625958561897" lon="9.596816031262279">
        <ele>450.51999999999998</ele>
        <time>2025-05-20T11:42:56Z</time>
      </trkpt>
      <trkpt lat="47.238655965775251" lon="9.596884008497">
        <ele>450.51999999999998</ele>
        <time>2025-05-20T11:42:57Z</time>
      </trkpt>
      <trkpt lat="47.238683961331844" lon="9.596947962418199">
        <ele>450.51999999999998</ele>
        <time>2025-05-20T11:42:58Z</time>
      </trkpt>
      <trkpt lat="47.238704999908805" lon="9.596994984894991">
        <ele>450.51999999999998</ele>
        <time>2025-05-20T11:42:59Z</time>
      </trkpt>
      <trkpt lat="47.238731989637017" lon="9.597052987664938">
        <ele>450.02999999999997</ele>
        <time>2025-05-20T11:43:07Z</time>
      </trkpt>
      <trkpt lat="47.238731989637017" lon="9.597052987664938">
        <ele>450.02999999999997</ele>
        <time>2025-05-20T11:43:40Z</time>
      </trkpt>
      <trkpt lat="47.238749004900455" lon="9.597091041505337">
        <ele>450.02999999999997</ele>
        <time>2025-05-20T11:43:41Z</time>
      </trkpt>
      <trkpt lat="47.238947991281748" lon="9.597475016489625">
        <ele>451</ele>
        <time>2025-05-20T11:43:50Z</time>
      </trkpt>
      <trkpt lat="47.238970035687089" lon="9.597680037841201">
        <ele>451</ele>
        <time>2025-05-20T11:43:51Z</time>
      </trkpt>
      <trkpt lat="47.238953020423651" lon="9.598009027540684">
        <ele>451.48000000000002</ele>
        <time>2025-05-20T11:43:54Z</time>
      </trkpt>
      <trkpt lat="47.238977998495102" lon="9.598127966746688">
        <ele>451.48000000000002</ele>
        <time>2025-05-20T11:43:55Z</time>
      </trkpt>
      <trkpt lat="47.239023009315133" lon="9.598236009478569">
        <ele>452.44</ele>
        <time>2025-05-20T11:43:56Z</time>
      </trkpt>
      <trkpt lat="47.239070031791925" lon="9.598343968391419">
        <ele>452.44</ele>
        <time>2025-05-20T11:43:57Z</time>
      </trkpt>
      <trkpt lat="47.239128034561872" lon="9.59843197837472">
        <ele>452.44</ele>
        <time>2025-05-20T11:43:58Z</time>
      </trkpt>
      <trkpt lat="47.23918603733182" lon="9.598519988358021">
        <ele>452.44</ele>
        <time>2025-05-20T11:43:59Z</time>
      </trkpt>
      <trkpt lat="47.240005033090711" lon="9.599887998774648">
        <ele>458.20999999999998</ele>
        <time>2025-05-20T11:44:12Z</time>
      </trkpt>
      <trkpt lat="47.240700982511044" lon="9.600951997563243">
        <ele>459.17000000000002</ele>
        <time>2025-05-20T11:44:22Z</time>
      </trkpt>
      <trkpt lat="47.240851018577814" lon="9.601162970066071">
        <ele>458.69</ele>
        <time>2025-05-20T11:44:24Z</time>
      </trkpt>
      <trkpt lat="47.240918995812535" lon="9.601258020848036">
        <ele>458.20999999999998</ele>
        <time>2025-05-20T11:44:25Z</time>
      </trkpt>
      <trkpt lat="47.240983033552766" lon="9.60135399363935">
        <ele>457.24000000000001</ele>
        <time>2025-05-20T11:44:26Z</time>
      </trkpt>
      <trkpt lat="47.241456024348736" lon="9.602018008008599">
        <ele>451.95999999999998</ele>
        <time>2025-05-20T11:44:33Z</time>
      </trkpt>
      <trkpt lat="47.241530036553741" lon="9.602110963314772">
        <ele>451.48000000000002</ele>
        <time>2025-05-20T11:44:34Z</time>
      </trkpt>
      <trkpt lat="47.242103023454547" lon="9.602849995717406">
        <ele>450.51999999999998</ele>
        <time>2025-05-20T11:44:43Z</time>
      </trkpt>
      <trkpt lat="47.242151973769069" lon="9.602914033457637">
        <ele>450.51999999999998</ele>
        <time>2025-05-20T11:44:44Z</time>
      </trkpt>
      <trkpt lat="47.2421969845891" lon="9.602972958236933">
        <ele>450.51999999999998</ele>
        <time>2025-05-20T11:44:45Z</time>
      </trkpt>
      <trkpt lat="47.242229003459215" lon="9.603016041219235">
        <ele>450.51999999999998</ele>
        <time>2025-05-20T11:44:46Z</time>
      </trkpt>
      <trkpt lat="47.242247024551034" lon="9.603040013462305">
        <ele>450.02999999999997</ele>
        <time>2025-05-20T11:44:47Z</time>
      </trkpt>
      <trkpt lat="47.242247024551034" lon="9.603040013462305">
        <ele>450.02999999999997</ele>
        <time>2025-05-20T11:45:02Z</time>
      </trkpt>
      <trkpt lat="47.242451040074229" lon="9.603318041190505">
        <ele>451</ele>
        <time>2025-05-20T11:45:17Z</time>
      </trkpt>
      <trkpt lat="47.242983961477876" lon="9.604098983108997">
        <ele>453.88</ele>
        <time>2025-05-20T11:45:27Z</time>
      </trkpt>
      <trkpt lat="47.243083035573363" lon="9.604238960891962">
        <ele>456.27999999999997</ele>
        <time>2025-05-20T11:45:38Z</time>
      </trkpt>
      <trkpt lat="47.243472961708903" lon="9.604856036603451">
        <ele>458.69</ele>
        <time>2025-05-20T11:45:45Z</time>
      </trkpt>
      <trkpt lat="47.244160026311874" lon="9.605924980714917">
        <ele>462.05000000000001</ele>
        <time>2025-05-20T11:45:54Z</time>
      </trkpt>
      <trkpt lat="47.244493961334229" lon="9.606456980109215">
        <ele>462.05000000000001</ele>
        <time>2025-05-20T11:45:58Z</time>
      </trkpt>
      <trkpt lat="47.245336007326841" lon="9.607759024947882">
        <ele>463.49000000000001</ele>
        <time>2025-05-20T11:46:08Z</time>
      </trkpt>
      <trkpt lat="47.24636496976018" lon="9.60902301594615">
        <ele>464.44999999999999</ele>
        <time>2025-05-20T11:46:19Z</time>
      </trkpt>
      <trkpt lat="47.247240040451288" lon="9.6099460311234">
        <ele>468.30000000000001</ele>
        <time>2025-05-20T11:46:30Z</time>
      </trkpt>
      <trkpt lat="47.247354034334421" lon="9.610060025006533">
        <ele>469.25999999999999</ele>
        <time>2025-05-20T11:46:32Z</time>
      </trkpt>
      <trkpt lat="47.247399967163801" lon="9.610106041654944">
        <ele>470.22000000000003</ele>
        <time>2025-05-20T11:46:33Z</time>
      </trkpt>
      <trkpt lat="47.247489988803864" lon="9.610198996961117">
        <ele>468.30000000000001</ele>
        <time>2025-05-20T11:46:35Z</time>
      </trkpt>
      <trkpt lat="47.247532987967134" lon="9.610246019437909">
        <ele>467.81999999999999</ele>
        <time>2025-05-20T11:46:36Z</time>
      </trkpt>
      <trkpt lat="47.247560983523726" lon="9.610276026651263">
        <ele>467.33999999999997</ele>
        <time>2025-05-20T11:46:37Z</time>
      </trkpt>
      <trkpt lat="47.247584033757448" lon="9.610301004722714">
        <ele>467.33999999999997</ele>
        <time>2025-05-20T11:46:48Z</time>
      </trkpt>
      <trkpt lat="47.247702972963452" lon="9.609587034210563">
        <ele>89.060000000000002</ele>
        <time>2025-05-20T11:51:19Z</time>
      </trkpt>
      <trkpt lat="47.247525025159121" lon="9.610220035538077">
        <ele>201.53</ele>
        <time>2025-05-20T11:51:51Z</time>
      </trkpt>
      <trkpt lat="47.247540028765798" lon="9.610309973359108">
        <ele>193.84</ele>
        <time>2025-05-20T11:52:24Z</time>
      </trkpt>
      <trkpt lat="47.24767598323524" lon="9.610620019957423">
        <ele>222.19999999999999</ele>
        <time>2025-05-20T11:52:37Z</time>
      </trkpt>
      <trkpt lat="47.247925009578466" lon="9.610652960836887">
        <ele>244.31</ele>
        <time>2025-05-20T11:52:46Z</time>
      </trkpt>
      <trkpt lat="47.248262967914343" lon="9.610946998000145">
        <ele>258.73000000000002</ele>
        <time>2025-05-20T11:52:51Z</time>
      </trkpt>
      <trkpt lat="47.248588018119335" lon="9.611240029335022">
        <ele>268.35000000000002</ele>
        <time>2025-05-20T11:52:55Z</time>
      </trkpt>
      <trkpt lat="47.249487983062863" lon="9.612015020102263">
        <ele>280.36000000000001</ele>
        <time>2025-05-20T11:53:05Z</time>
      </trkpt>
      <trkpt lat="47.250314019620419" lon="9.612660007551312">
        <ele>283.73000000000002</ele>
        <time>2025-05-20T11:53:13Z</time>
      </trkpt>
      <trkpt lat="47.250528009608388" lon="9.612818006426096">
        <ele>282.76999999999998</ele>
        <time>2025-05-20T11:53:15Z</time>
      </trkpt>
      <trkpt lat="47.251301994547248" lon="9.613356040790677">
        <ele>283.73000000000002</ele>
        <time>2025-05-20T11:53:23Z</time>
      </trkpt>
      <trkpt lat="47.252184022217989" lon="9.614002034068108">
        <ele>291.89999999999998</ele>
        <time>2025-05-20T11:53:32Z</time>
      </trkpt>
      <trkpt lat="47.252507982775569" lon="9.614219963550568">
        <ele>294.30000000000001</ele>
        <time>2025-05-20T11:53:35Z</time>
      </trkpt>
      <trkpt lat="47.252617031335831" lon="9.614290036261082">
        <ele>294.30000000000001</ele>
        <time>2025-05-20T11:53:36Z</time>
      </trkpt>
      <trkpt lat="47.252905033528805" lon="9.614508971571922">
        <ele>296.69999999999999</ele>
        <time>2025-05-20T11:53:39Z</time>
      </trkpt>
      <trkpt lat="47.253012992441654" lon="9.614587007090449">
        <ele>297.18000000000001</ele>
        <time>2025-05-20T11:53:40Z</time>
      </trkpt>
      <trkpt lat="47.253507021814585" lon="9.614861011505127">
        <ele>302.94999999999999</ele>
        <time>2025-05-20T11:53:46Z</time>
      </trkpt>
      <trkpt lat="47.253609029576182" lon="9.614877020940185">
        <ele>304.88</ele>
        <time>2025-05-20T11:53:47Z</time>
      </trkpt>
      <trkpt lat="47.253581034019589" lon="9.615225959569216">
        <ele>307.27999999999997</ele>
        <time>2025-05-20T11:53:48Z</time>
      </trkpt>
      <trkpt lat="47.253636019304395" lon="9.61527599953115">
        <ele>309.68000000000001</ele>
        <time>2025-05-20T11:53:49Z</time>
      </trkpt>
      <trkpt lat="47.253699973225594" lon="9.615332996472716">
        <ele>311.60000000000002</ele>
        <time>2025-05-20T11:53:50Z</time>
      </trkpt>
      <trkpt lat="47.253789994865656" lon="9.615413965657353">
        <ele>313.52999999999997</ele>
        <time>2025-05-20T11:53:51Z</time>
      </trkpt>
      <trkpt lat="47.253858977928758" lon="9.615476997569203">
        <ele>315.44999999999999</ele>
        <time>2025-05-20T11:53:52Z</time>
      </trkpt>
      <trkpt lat="47.254192996770144" lon="9.615676989778876">
        <ele>323.62</ele>
        <time>2025-05-20T11:53:56Z</time>
      </trkpt>
      <trkpt lat="47.254304978996515" lon="9.615636002272368">
        <ele>326.5</ele>
        <time>2025-05-20T11:53:57Z</time>
      </trkpt>
      <trkpt lat="47.2543990239501" lon="9.61560096591711">
        <ele>327.94999999999999</ele>
        <time>2025-05-20T11:53:58Z</time>
      </trkpt>
      <trkpt lat="47.254491979256272" lon="9.615567019209266">
        <ele>334.68000000000001</ele>
        <time>2025-05-20T11:53:59Z</time>
      </trkpt>
      <trkpt lat="47.254587030038238" lon="9.615531982854009">
        <ele>339.95999999999998</ele>
        <time>2025-05-20T11:54:00Z</time>
      </trkpt>
      <trkpt lat="47.254675962030888" lon="9.615499963983893">
        <ele>341.41000000000003</ele>
        <time>2025-05-20T11:54:01Z</time>
      </trkpt>
      <trkpt lat="47.254760032519698" lon="9.61546903476119">
        <ele>342.85000000000002</ele>
        <time>2025-05-20T11:54:02Z</time>
      </trkpt>
      <trkpt lat="47.254836978390813" lon="9.615440033376217">
        <ele>343.81</ele>
        <time>2025-05-20T11:54:03Z</time>
      </trkpt>
      <trkpt lat="47.254962958395481" lon="9.615428969264031">
        <ele>344.76999999999998</ele>
        <time>2025-05-20T11:54:04Z</time>
      </trkpt>
      <trkpt lat="47.255069995298982" lon="9.615418994799256">
        <ele>348.62</ele>
        <time>2025-05-20T11:54:05Z</time>
      </trkpt>
      <trkpt lat="47.25534500554204" lon="9.615461993962526">
        <ele>364.48000000000002</ele>
        <time>2025-05-20T11:54:08Z</time>
      </trkpt>
      <trkpt lat="47.255805004388094" lon="9.61553399451077">
        <ele>404.37</ele>
        <time>2025-05-20T11:54:16Z</time>
      </trkpt>
      <trkpt lat="47.255852026864886" lon="9.615542041137815">
        <ele>414.94999999999999</ele>
        <time>2025-05-20T11:54:24Z</time>
      </trkpt>
      <trkpt lat="47.255852026864886" lon="9.615542041137815">
        <ele>416.87</ele>
        <time>2025-05-20T11:55:09Z</time>
      </trkpt>
      <trkpt lat="47.255852026864886" lon="9.615542041137815">
        <ele>419.75</ele>
        <time>2025-05-20T11:55:57Z</time>
      </trkpt>
      <trkpt lat="47.255852026864886" lon="9.615542041137815">
        <ele>422.63999999999999</ele>
        <time>2025-05-20T11:56:49Z</time>
      </trkpt>
      <trkpt lat="47.255852026864886" lon="9.615542041137815">
        <ele>425.04000000000002</ele>
        <time>2025-05-20T11:57:23Z</time>
      </trkpt>
      <trkpt lat="47.255852026864886" lon="9.615542041137815">
        <ele>427.92000000000002</ele>
        <time>2025-05-20T11:58:09Z</time>
      </trkpt>
      <trkpt lat="47.255888991057873" lon="9.615547992289066">
        <ele>430.81</ele>
        <time>2025-05-20T11:58:57Z</time>
      </trkpt>
      <trkpt lat="47.256275983527303" lon="9.615590991452336">
        <ele>434.64999999999998</ele>
        <time>2025-05-20T11:59:03Z</time>
      </trkpt>
      <trkpt lat="47.256866991519928" lon="9.615677995607257">
        <ele>437.06</ele>
        <time>2025-05-20T11:59:09Z</time>
      </trkpt>
      <trkpt lat="47.256963970139623" lon="9.615716971457005">
        <ele>437.54000000000002</ele>
        <time>2025-05-20T11:59:10Z</time>
      </trkpt>
      <trkpt lat="47.257059020921588" lon="9.615756031125784">
        <ele>438.01999999999998</ele>
        <time>2025-05-20T11:59:11Z</time>
      </trkpt>
      <trkpt lat="47.25796896032989" lon="9.616279983893037">
        <ele>444.26999999999998</ele>
        <time>2025-05-20T11:59:21Z</time>
      </trkpt>
      <trkpt lat="47.258571032434702" lon="9.616663958877325">
        <ele>446.67000000000002</ele>
        <time>2025-05-20T11:59:28Z</time>
      </trkpt>
      <trkpt lat="47.258657030761242" lon="9.61671500466764">
        <ele>447.14999999999998</ele>
        <time>2025-05-20T11:59:29Z</time>
      </trkpt>
      <trkpt lat="47.258913014084101" lon="9.616893958300352">
        <ele>447.63</ele>
        <time>2025-05-20T11:59:32Z</time>
      </trkpt>
      <trkpt lat="47.258994989097118" lon="9.616946009919047">
        <ele>447.63</ele>
        <time>2025-05-20T11:59:33Z</time>
      </trkpt>
      <trkpt lat="47.259078975766897" lon="9.616998983547092">
        <ele>447.63</ele>
        <time>2025-05-20T11:59:34Z</time>
      </trkpt>
      <trkpt lat="47.259163968265057" lon="9.617052963003516">
        <ele>447.14999999999998</ele>
        <time>2025-05-20T11:59:35Z</time>
      </trkpt>
      <trkpt lat="47.259252984076738" lon="9.617110965773463">
        <ele>447.14999999999998</ele>
        <time>2025-05-20T11:59:36Z</time>
      </trkpt>
      <trkpt lat="47.259623967111111" lon="9.617337025702">
        <ele>446.19</ele>
        <time>2025-05-20T11:59:40Z</time>
      </trkpt>
      <trkpt lat="47.259703008458018" lon="9.61738396435976">
        <ele>445.23000000000002</ele>
        <time>2025-05-20T11:59:41Z</time>
      </trkpt>
      <trkpt lat="47.259967038407922" lon="9.617541041225195">
        <ele>443.31</ele>
        <time>2025-05-20T11:59:44Z</time>
      </trkpt>
      <trkpt lat="47.260049013420939" lon="9.617589991539717">
        <ele>442.33999999999997</ele>
        <time>2025-05-20T11:59:45Z</time>
      </trkpt>
      <trkpt lat="47.260135011747479" lon="9.617641037330031">
        <ele>441.86000000000001</ele>
        <time>2025-05-20T11:59:46Z</time>
      </trkpt>
      <trkpt lat="47.260213969275355" lon="9.617687975987792">
        <ele>441.38</ele>
        <time>2025-05-20T11:59:47Z</time>
      </trkpt>
      <trkpt lat="47.260283036157489" lon="9.617737010121346">
        <ele>440.89999999999998</ele>
        <time>2025-05-20T11:59:48Z</time>
      </trkpt>
      <trkpt lat="47.260338021442294" lon="9.617776991799474">
        <ele>440.89999999999998</ele>
        <time>2025-05-20T11:59:49Z</time>
      </trkpt>
      <trkpt lat="47.260382026433945" lon="9.617809010669589">
        <ele>440.42000000000002</ele>
        <time>2025-05-20T11:59:50Z</time>
      </trkpt>
      <trkpt lat="47.26041697897017" lon="9.61783398874104">
        <ele>440.42000000000002</ele>
        <time>2025-05-20T11:59:51Z</time>
      </trkpt>
      <trkpt lat="47.260458972305059" lon="9.617865001782775">
        <ele>439.94</ele>
        <time>2025-05-20T11:59:52Z</time>
      </trkpt>
      <trkpt lat="47.260458972305059" lon="9.617865001782775">
        <ele>439.94</ele>
        <time>2025-05-20T12:00:07Z</time>
      </trkpt>
      <trkpt lat="47.260443968698382" lon="9.61785402148962">
        <ele>439.94</ele>
        <time>2025-05-20T12:00:09Z</time>
      </trkpt>
      <trkpt lat="47.260638009756804" lon="9.617998022586107">
        <ele>439.45999999999998</ele>
        <time>2025-05-20T12:00:16Z</time>
      </trkpt>
      <trkpt lat="47.260651001706719" lon="9.618081003427506">
        <ele>439.45999999999998</ele>
        <time>2025-05-20T12:00:17Z</time>
      </trkpt>
      <trkpt lat="47.261043023318052" lon="9.618990020826459">
        <ele>438.98000000000002</ele>
        <time>2025-05-20T12:00:25Z</time>
      </trkpt>
      <trkpt lat="47.261164980009198" lon="9.619233012199402">
        <ele>438.98000000000002</ele>
        <time>2025-05-20T12:00:27Z</time>
      </trkpt>
      <trkpt lat="47.261232035234571" lon="9.619356980547309">
        <ele>438.98000000000002</ele>
        <time>2025-05-20T12:00:28Z</time>
      </trkpt>
      <trkpt lat="47.261440996080637" lon="9.619737016037107">
        <ele>438.98000000000002</ele>
        <time>2025-05-20T12:00:31Z</time>
      </trkpt>
      <trkpt lat="47.261519031599164" lon="9.619865007698536">
        <ele>438.98000000000002</ele>
        <time>2025-05-20T12:00:32Z</time>
      </trkpt>
      <trkpt lat="47.261884985491633" lon="9.620536984875798">
        <ele>441.86000000000001</ele>
        <time>2025-05-20T12:00:37Z</time>
      </trkpt>
      <trkpt lat="47.261952962726355" lon="9.620678974315524">
        <ele>441.86000000000001</ele>
        <time>2025-05-20T12:00:38Z</time>
      </trkpt>
      <trkpt lat="47.262011971324682" lon="9.620822975412011">
        <ele>441.86000000000001</ele>
        <time>2025-05-20T12:00:39Z</time>
      </trkpt>
      <trkpt lat="47.262395024299622" lon="9.622317971661687">
        <ele>441.86000000000001</ele>
        <time>2025-05-20T12:00:48Z</time>
      </trkpt>
      <trkpt lat="47.262399969622493" lon="9.622497009113431">
        <ele>442.33999999999997</ele>
        <time>2025-05-20T12:00:49Z</time>
      </trkpt>
      <trkpt lat="47.262410027906299" lon="9.622853994369507">
        <ele>442.81999999999999</ele>
        <time>2025-05-20T12:00:51Z</time>
      </trkpt>
      <trkpt lat="47.262425031512976" lon="9.623040994629264">
        <ele>443.31</ele>
        <time>2025-05-20T12:00:52Z</time>
      </trkpt>
      <trkpt lat="47.262473981827497" lon="9.62322698906064">
        <ele>443.79000000000002</ele>
        <time>2025-05-20T12:00:53Z</time>
      </trkpt>
      <trkpt lat="47.262530978769064" lon="9.623369984328747">
        <ele>443.79000000000002</ele>
        <time>2025-05-20T12:00:54Z</time>
      </trkpt>
      <trkpt lat="47.262585964053869" lon="9.623510967940092">
        <ele>444.26999999999998</ele>
        <time>2025-05-20T12:00:55Z</time>
      </trkpt>
      <trkpt lat="47.262642960995436" lon="9.62365597486496">
        <ele>444.26999999999998</ele>
        <time>2025-05-20T12:00:56Z</time>
      </trkpt>
      <trkpt lat="47.26271303370595" lon="9.623796036466956">
        <ele>444.26999999999998</ele>
        <time>2025-05-20T12:00:57Z</time>
      </trkpt>
      <trkpt lat="47.262792997062206" lon="9.623928973451257">
        <ele>444.75</ele>
        <time>2025-05-20T12:00:58Z</time>
      </trkpt>
      <trkpt lat="47.262872038409114" lon="9.624061994254589">
        <ele>445.23000000000002</ele>
        <time>2025-05-20T12:00:59Z</time>
      </trkpt>
      <trkpt lat="47.263394985347986" lon="9.624988026916981">
        <ele>447.14999999999998</ele>
        <time>2025-05-20T12:01:06Z</time>
      </trkpt>
      <trkpt lat="47.263527000322938" lon="9.62531098164618">
        <ele>448.11000000000001</ele>
        <time>2025-05-20T12:01:08Z</time>
      </trkpt>
      <trkpt lat="47.264234013855457" lon="9.627147959545255">
        <ele>447.14999999999998</ele>
        <time>2025-05-20T12:01:20Z</time>
      </trkpt>
      <trkpt lat="47.26471203379333" lon="9.628584031015635">
        <ele>445.23000000000002</ele>
        <time>2025-05-20T12:01:29Z</time>
      </trkpt>
      <trkpt lat="47.265435978770256" lon="9.630434000864625">
        <ele>451</ele>
        <time>2025-05-20T12:01:41Z</time>
      </trkpt>
      <trkpt lat="47.266372991725802" lon="9.631779966875911">
        <ele>453.39999999999998</ele>
        <time>2025-05-20T12:01:52Z</time>
      </trkpt>
      <trkpt lat="47.266922006383538" lon="9.633153006434441">
        <ele>454.36000000000001</ele>
        <time>2025-05-20T12:02:01Z</time>
      </trkpt>
      <trkpt lat="47.267077993601561" lon="9.633664973080158">
        <ele>455.80000000000001</ele>
        <time>2025-05-20T12:02:04Z</time>
      </trkpt>
      <trkpt lat="47.267138008028269" lon="9.633829006925225">
        <ele>456.75999999999999</ele>
        <time>2025-05-20T12:02:05Z</time>
      </trkpt>
      <trkpt lat="47.267196010798216" lon="9.63398901745677">
        <ele>457.24000000000001</ele>
        <time>2025-05-20T12:02:06Z</time>
      </trkpt>
      <trkpt lat="47.26724898442626" lon="9.634143998846412">
        <ele>458.20999999999998</ele>
        <time>2025-05-20T12:02:07Z</time>
      </trkpt>
      <trkpt lat="47.267305981367826" lon="9.634311972185969">
        <ele>458.69</ele>
        <time>2025-05-20T12:02:08Z</time>
      </trkpt>
      <trkpt lat="47.267628014087677" lon="9.636044008657336">
        <ele>463.00999999999999</ele>
        <time>2025-05-20T12:02:18Z</time>
      </trkpt>
      <trkpt lat="47.267696997150779" lon="9.637478990480304">
        <ele>467.33999999999997</ele>
        <time>2025-05-20T12:02:26Z</time>
      </trkpt>
      <trkpt lat="47.267972007393837" lon="9.638507030904293">
        <ele>470.69999999999999</ele>
        <time>2025-05-20T12:02:32Z</time>
      </trkpt>
      <trkpt lat="47.268033027648926" lon="9.63865396566689">
        <ele>471.66000000000003</ele>
        <time>2025-05-20T12:02:33Z</time>
      </trkpt>
      <trkpt lat="47.268341984599829" lon="9.639180013909936">
        <ele>473.58999999999997</ele>
        <time>2025-05-20T12:02:39Z</time>
      </trkpt>
      <trkpt lat="47.268892005085945" lon="9.639902031049132">
        <ele>474.55000000000001</ele>
        <time>2025-05-20T12:02:49Z</time>
      </trkpt>
      <trkpt lat="47.268951013684273" lon="9.639996998012066">
        <ele>474.55000000000001</ele>
        <time>2025-05-20T12:02:50Z</time>
      </trkpt>
      <trkpt lat="47.268998958170414" lon="9.640074027702212">
        <ele>474.55000000000001</ele>
        <time>2025-05-20T12:02:51Z</time>
      </trkpt>
      <trkpt lat="47.269018990918994" lon="9.640335040166974">
        <ele>474.55000000000001</ele>
        <time>2025-05-20T12:02:53Z</time>
      </trkpt>
      <trkpt lat="47.269017985090613" lon="9.640423972159624">
        <ele>474.55000000000001</ele>
        <time>2025-05-20T12:02:54Z</time>
      </trkpt>
      <trkpt lat="47.269013961777091" lon="9.640575014054775">
        <ele>474.06999999999999</ele>
        <time>2025-05-20T12:02:56Z</time>
      </trkpt>
      <trkpt lat="47.269011028110981" lon="9.640650032088161">
        <ele>473.58999999999997</ele>
        <time>2025-05-20T12:02:57Z</time>
      </trkpt>
      <trkpt lat="47.268962999805808" lon="9.641697015613318">
        <ele>472.63</ele>
        <time>2025-05-20T12:03:07Z</time>
      </trkpt>
      <trkpt lat="47.268955959007144" lon="9.641816038638353">
        <ele>472.63</ele>
        <time>2025-05-20T12:03:08Z</time>
      </trkpt>
      <trkpt lat="47.268990995362401" lon="9.64245499111712">
        <ele>472.13999999999999</ele>
        <time>2025-05-20T12:03:14Z</time>
      </trkpt>
      <trkpt lat="47.269065007567406" lon="9.642818011343479">
        <ele>472.63</ele>
        <time>2025-05-20T12:03:18Z</time>
      </trkpt>
      <trkpt lat="47.269085040315986" lon="9.64288498274982">
        <ele>472.63</ele>
        <time>2025-05-20T12:03:19Z</time>
      </trkpt>
      <trkpt lat="47.269125021994114" lon="9.642924964427948">
        <ele>472.63</ele>
        <time>2025-05-20T12:03:20Z</time>
      </trkpt>
      <trkpt lat="47.269142959266901" lon="9.642942985519767">
        <ele>472.63</ele>
        <time>2025-05-20T12:03:21Z</time>
      </trkpt>
      <trkpt lat="47.269159974530339" lon="9.642960000783205">
        <ele>472.63</ele>
        <time>2025-05-20T12:03:22Z</time>
      </trkpt>
      <trkpt lat="47.2691810131073" lon="9.642981039360166">
        <ele>472.63</ele>
        <time>2025-05-20T12:03:23Z</time>
      </trkpt>
      <trkpt lat="47.269213031977415" lon="9.643012974411249">
        <ele>472.63</ele>
        <time>2025-05-20T12:03:24Z</time>
      </trkpt>
      <trkpt lat="47.269269023090601" lon="9.642994031310082">
        <ele>473.11000000000001</ele>
        <time>2025-05-20T12:03:25Z</time>
      </trkpt>
      <trkpt lat="47.269334988668561" lon="9.642969975247979">
        <ele>473.11000000000001</ele>
        <time>2025-05-20T12:03:26Z</time>
      </trkpt>
      <trkpt lat="47.26941897533834" lon="9.642939968034625">
        <ele>472.63</ele>
        <time>2025-05-20T12:03:27Z</time>
      </trkpt>
      <trkpt lat="47.269512014463544" lon="9.642907027155161">
        <ele>472.13999999999999</ele>
        <time>2025-05-20T12:03:28Z</time>
      </trkpt>
      <trkpt lat="47.269711000844836" lon="9.642898980528116">
        <ele>470.69999999999999</ele>
        <time>2025-05-20T12:03:30Z</time>
      </trkpt>
      <trkpt lat="47.269809991121292" lon="9.642895041033626">
        <ele>469.74000000000001</ele>
        <time>2025-05-20T12:03:31Z</time>
      </trkpt>
      <trkpt lat="47.270050970837474" lon="9.64288498274982">
        <ele>466.86000000000001</ele>
        <time>2025-05-20T12:03:34Z</time>
      </trkpt>
      <trkpt lat="47.270092964172363" lon="9.642896968871355">
        <ele>465.89999999999998</ele>
        <time>2025-05-20T12:03:35Z</time>
      </trkpt>
      <trkpt lat="47.270118026062846" lon="9.642904009670019">
        <ele>464.93000000000001</ele>
        <time>2025-05-20T12:03:36Z</time>
      </trkpt>
      <trkpt lat="47.270133029669523" lon="9.642908032983542">
        <ele>464.44999999999999</ele>
        <time>2025-05-20T12:03:37Z</time>
      </trkpt>
      <trkpt lat="47.270221039652824" lon="9.642933011054993">
        <ele>460.13</ele>
        <time>2025-05-20T12:03:45Z</time>
      </trkpt>
      <trkpt lat="47.270607026293874" lon="9.643097966909409">
        <ele>457.24000000000001</ele>
        <time>2025-05-20T12:03:53Z</time>
      </trkpt>
      <trkpt lat="47.27066301740706" lon="9.643156975507736">
        <ele>457.24000000000001</ele>
        <time>2025-05-20T12:03:54Z</time>
      </trkpt>
      <trkpt lat="47.270893016830087" lon="9.64346400462091">
        <ele>458.69</ele>
        <time>2025-05-20T12:03:58Z</time>
      </trkpt>
      <trkpt lat="47.270985972136259" lon="9.643587972968817">
        <ele>459.17000000000002</ele>
        <time>2025-05-20T12:04:00Z</time>
      </trkpt>
      <trkpt lat="47.271234998479486" lon="9.643899025395513">
        <ele>461.08999999999997</ele>
        <time>2025-05-20T12:04:05Z</time>
      </trkpt>
      <trkpt lat="47.27128503844142" lon="9.643961973488331">
        <ele>461.08999999999997</ele>
        <time>2025-05-20T12:04:06Z</time>
      </trkpt>
      <trkpt lat="47.271787030622363" lon="9.64460302144289">
        <ele>465.42000000000002</ele>
        <time>2025-05-20T12:04:14Z</time>
      </trkpt>
      <trkpt lat="47.271856013685465" lon="9.644701005890966">
        <ele>465.89999999999998</ele>
        <time>2025-05-20T12:04:15Z</time>
      </trkpt>
      <trkpt lat="47.271908987313509" lon="9.644967969506979">
        <ele>466.38</ele>
        <time>2025-05-20T12:04:17Z</time>
      </trkpt>
      <trkpt lat="47.27193396538496" lon="9.645125968381763">
        <ele>466.86000000000001</ele>
        <time>2025-05-20T12:04:18Z</time>
      </trkpt>
      <trkpt lat="47.271960033103824" lon="9.645296037197113">
        <ele>466.86000000000001</ele>
        <time>2025-05-20T12:04:19Z</time>
      </trkpt>
      <trkpt lat="47.271975036710501" lon="9.64548303745687">
        <ele>466.86000000000001</ele>
        <time>2025-05-20T12:04:20Z</time>
      </trkpt>
      <trkpt lat="47.271950980648398" lon="9.64565696194768">
        <ele>466.86000000000001</ele>
        <time>2025-05-20T12:04:21Z</time>
      </trkpt>
      <trkpt lat="47.271926002576947" lon="9.64582602493465">
        <ele>466.86000000000001</ele>
        <time>2025-05-20T12:04:22Z</time>
      </trkpt>
      <trkpt lat="47.271905969828367" lon="9.645975977182388">
        <ele>466.38</ele>
        <time>2025-05-20T12:04:23Z</time>
      </trkpt>
      <trkpt lat="47.27189096622169" lon="9.646097011864185">
        <ele>465.89999999999998</ele>
        <time>2025-05-20T12:04:24Z</time>
      </trkpt>
      <trkpt lat="47.271877974271774" lon="9.646196002140641">
        <ele>465.42000000000002</ele>
        <time>2025-05-20T12:04:25Z</time>
      </trkpt>
      <trkpt lat="47.271864982321858" lon="9.646293986588717">
        <ele>464.93000000000001</ele>
        <time>2025-05-20T12:04:26Z</time>
      </trkpt>
      <trkpt lat="47.271851990371943" lon="9.646402029320598">
        <ele>464.44999999999999</ele>
        <time>2025-05-20T12:04:27Z</time>
      </trkpt>
      <trkpt lat="47.271837992593646" lon="9.646509988233447">
        <ele>464.44999999999999</ele>
        <time>2025-05-20T12:04:28Z</time>
      </trkpt>
      <trkpt lat="47.271822988986969" lon="9.64662398211658">
        <ele>464.44999999999999</ele>
        <time>2025-05-20T12:04:29Z</time>
      </trkpt>
      <trkpt lat="47.27182399481535" lon="9.646766977384687">
        <ele>464.44999999999999</ele>
        <time>2025-05-20T12:04:30Z</time>
      </trkpt>
      <trkpt lat="47.271864982321858" lon="9.646884994581342">
        <ele>464.44999999999999</ele>
        <time>2025-05-20T12:04:31Z</time>
      </trkpt>
      <trkpt lat="47.27190999314189" lon="9.647014997899532">
        <ele>465.42000000000002</ele>
        <time>2025-05-20T12:04:32Z</time>
      </trkpt>
      <trkpt lat="47.271956009790301" lon="9.647149024531245">
        <ele>466.38</ele>
        <time>2025-05-20T12:04:33Z</time>
      </trkpt>
      <trkpt lat="47.272006971761584" lon="9.64728900231421">
        <ele>467.33999999999997</ele>
        <time>2025-05-20T12:04:34Z</time>
      </trkpt>
      <trkpt lat="47.272078972309828" lon="9.647383969277144">
        <ele>468.30000000000001</ele>
        <time>2025-05-20T12:04:35Z</time>
      </trkpt>
      <trkpt lat="47.272150972858071" lon="9.647480025887489">
        <ele>469.74000000000001</ele>
        <time>2025-05-20T12:04:36Z</time>
      </trkpt>
      <trkpt lat="47.272216016426682" lon="9.647568035870791">
        <ele>470.22000000000003</ele>
        <time>2025-05-20T12:04:37Z</time>
      </trkpt>
      <trkpt lat="47.272311989217997" lon="9.647640958428383">
        <ele>471.18000000000001</ele>
        <time>2025-05-20T12:04:38Z</time>
      </trkpt>
      <trkpt lat="47.272406034171581" lon="9.647668031975627">
        <ele>471.18000000000001</ele>
        <time>2025-05-20T12:04:39Z</time>
      </trkpt>
      <trkpt lat="47.27251298725605" lon="9.647679012268782">
        <ele>471.66000000000003</ele>
        <time>2025-05-20T12:04:40Z</time>
      </trkpt>
      <trkpt lat="47.272621029987931" lon="9.647687980905175">
        <ele>472.13999999999999</ele>
        <time>2025-05-20T12:04:41Z</time>
      </trkpt>
      <trkpt lat="47.272733012214303" lon="9.647698039188981">
        <ele>472.13999999999999</ele>
        <time>2025-05-20T12:04:42Z</time>
      </trkpt>
      <trkpt lat="47.272849017754197" lon="9.647708013653755">
        <ele>472.13999999999999</ele>
        <time>2025-05-20T12:04:43Z</time>
      </trkpt>
      <trkpt lat="47.273712018504739" lon="9.647756963968277">
        <ele>474.55000000000001</ele>
        <time>2025-05-20T12:04:50Z</time>
      </trkpt>
      <trkpt lat="47.274817004799843" lon="9.647838016971946">
        <ele>478.38999999999999</ele>
        <time>2025-05-20T12:04:59Z</time>
      </trkpt>
      <trkpt lat="47.276135981082916" lon="9.648189973086119">
        <ele>482.24000000000001</ele>
        <time>2025-05-20T12:05:10Z</time>
      </trkpt>
      <trkpt lat="47.277126973494887" lon="9.648308996111155">
        <ele>483.68000000000001</ele>
        <time>2025-05-20T12:05:18Z</time>
      </trkpt>
      <trkpt lat="47.278071027249098" lon="9.648618036881089">
        <ele>483.68000000000001</ele>
        <time>2025-05-20T12:05:26Z</time>
      </trkpt>
      <trkpt lat="47.278177980333567" lon="9.648701017722487">
        <ele>483.19999999999999</ele>
        <time>2025-05-20T12:05:27Z</time>
      </trkpt>
      <trkpt lat="47.278266996145248" lon="9.648806964978576">
        <ele>483.19999999999999</ele>
        <time>2025-05-20T12:05:28Z</time>
      </trkpt>
      <trkpt lat="47.278737975284457" lon="9.649398978799582">
        <ele>483.19999999999999</ele>
        <time>2025-05-20T12:05:33Z</time>
      </trkpt>
      <trkpt lat="47.27884903550148" lon="9.649498974904418">
        <ele>483.19999999999999</ele>
        <time>2025-05-20T12:05:34Z</time>
      </trkpt>
      <trkpt lat="47.280006995424628" lon="9.650158965960145">
        <ele>482.72000000000003</ele>
        <time>2025-05-20T12:05:44Z</time>
      </trkpt>
      <trkpt lat="47.281518001109362" lon="9.650838989764452">
        <ele>484.63999999999999</ele>
        <time>2025-05-20T12:05:57Z</time>
      </trkpt>
      <trkpt lat="47.282635979354382" lon="9.650952983647585">
        <ele>486.07999999999998</ele>
        <time>2025-05-20T12:06:06Z</time>
      </trkpt>
      <trkpt lat="47.283719005063176" lon="9.650931023061276">
        <ele>487.52999999999997</ele>
        <time>2025-05-20T12:06:15Z</time>
      </trkpt>
      <trkpt lat="47.284317975863814" lon="9.651075024157763">
        <ele>488.00999999999999</ele>
        <time>2025-05-20T12:06:20Z</time>
      </trkpt>
      <trkpt lat="47.284666998311877" lon="9.651277028024197">
        <ele>489.44999999999999</ele>
        <time>2025-05-20T12:06:23Z</time>
      </trkpt>
      <trkpt lat="47.285181982442737" lon="9.651667959988117">
        <ele>489.93000000000001</ele>
        <time>2025-05-20T12:06:29Z</time>
      </trkpt>
      <trkpt lat="47.285369988530874" lon="9.651815984398127">
        <ele>489.44999999999999</ele>
        <time>2025-05-20T12:06:32Z</time>
      </trkpt>
      <trkpt lat="47.286165012046695" lon="9.652112033218145">
        <ele>487.52999999999997</ele>
        <time>2025-05-20T12:06:40Z</time>
      </trkpt>
      <trkpt lat="47.287171008065343" lon="9.651999967172742">
        <ele>488.97000000000003</ele>
        <time>2025-05-20T12:06:49Z</time>
      </trkpt>
      <trkpt lat="47.287291036918759" lon="9.651961997151375">
        <ele>489.44999999999999</ele>
        <time>2025-05-20T12:06:50Z</time>
      </trkpt>
      <trkpt lat="47.287854971364141" lon="9.651771979406476">
        <ele>488.49000000000001</ele>
        <time>2025-05-20T12:06:55Z</time>
      </trkpt>
      <trkpt lat="47.28795999661088" lon="9.651733003556728">
        <ele>488.00999999999999</ele>
        <time>2025-05-20T12:06:56Z</time>
      </trkpt>
      <trkpt lat="47.288074996322393" lon="9.651690004393458">
        <ele>487.05000000000001</ele>
        <time>2025-05-20T12:06:57Z</time>
      </trkpt>
      <trkpt lat="47.2881989646703" lon="9.651644993573427">
        <ele>486.56</ele>
        <time>2025-05-20T12:06:58Z</time>
      </trkpt>
      <trkpt lat="47.288322011008859" lon="9.651598976925015">
        <ele>486.07999999999998</ele>
        <time>2025-05-20T12:06:59Z</time>
      </trkpt>
      <trkpt lat="47.288936991244555" lon="9.651408959180117">
        <ele>484.16000000000003</ele>
        <time>2025-05-20T12:07:04Z</time>
      </trkpt>
      <trkpt lat="47.289060959592462" lon="9.651433015242219">
        <ele>484.16000000000003</ele>
        <time>2025-05-20T12:07:05Z</time>
      </trkpt>
      <trkpt lat="47.289186017587781" lon="9.651467967778444">
        <ele>483.68000000000001</ele>
        <time>2025-05-20T12:07:06Z</time>
      </trkpt>
      <trkpt lat="47.289305962622166" lon="9.65150099247694">
        <ele>483.68000000000001</ele>
        <time>2025-05-20T12:07:07Z</time>
      </trkpt>
      <trkpt lat="47.289408976212144" lon="9.651560001075268">
        <ele>483.68000000000001</ele>
        <time>2025-05-20T12:07:08Z</time>
      </trkpt>
      <trkpt lat="47.289875010028481" lon="9.651880022138357">
        <ele>484.63999999999999</ele>
        <time>2025-05-20T12:07:12Z</time>
      </trkpt>
      <trkpt lat="47.289996966719627" lon="9.651932995766401">
        <ele>485.12</ele>
        <time>2025-05-20T12:07:13Z</time>
      </trkpt>
      <trkpt lat="47.290118001401424" lon="9.651984041556716">
        <ele>484.63999999999999</ele>
        <time>2025-05-20T12:07:14Z</time>
      </trkpt>
      <trkpt lat="47.290238030254841" lon="9.652004996314645">
        <ele>484.63999999999999</ele>
        <time>2025-05-20T12:07:15Z</time>
      </trkpt>
      <trkpt lat="47.290359986945987" lon="9.652026034891605">
        <ele>484.63999999999999</ele>
        <time>2025-05-20T12:07:16Z</time>
      </trkpt>
      <trkpt lat="47.290484039112926" lon="9.652017988264561">
        <ele>484.16000000000003</ele>
        <time>2025-05-20T12:07:17Z</time>
      </trkpt>
      <trkpt lat="47.291094996035099" lon="9.651911035180092">
        <ele>481.75999999999999</ele>
        <time>2025-05-20T12:07:24Z</time>
      </trkpt>
      <trkpt lat="47.291357014328241" lon="9.651999967172742">
        <ele>480.31999999999999</ele>
        <time>2025-05-20T12:07:30Z</time>
      </trkpt>
      <trkpt lat="47.291421974077821" lon="9.651875998824835">
        <ele>479.83999999999997</ele>
        <time>2025-05-20T12:07:31Z</time>
      </trkpt>
      <trkpt lat="47.291489029303193" lon="9.651875998824835">
        <ele>479.83999999999997</ele>
        <time>2025-05-20T12:07:32Z</time>
      </trkpt>
      <trkpt lat="47.291550971567631" lon="9.651875998824835">
        <ele>479.83999999999997</ele>
        <time>2025-05-20T12:07:33Z</time>
      </trkpt>
      <trkpt lat="47.291663037613034" lon="9.651894019916654">
        <ele>479.83999999999997</ele>
        <time>2025-05-20T12:07:34Z</time>
      </trkpt>
      <trkpt lat="47.291758004575968" lon="9.651910029351711">
        <ele>480.31999999999999</ele>
        <time>2025-05-20T12:07:35Z</time>
      </trkpt>
      <trkpt lat="47.291853977367282" lon="9.651926038786769">
        <ele>480.80000000000001</ele>
        <time>2025-05-20T12:07:36Z</time>
      </trkpt>
      <trkpt lat="47.292324034497142" lon="9.652003990486264">
        <ele>481.75999999999999</ele>
        <time>2025-05-20T12:07:41Z</time>
      </trkpt>
      <trkpt lat="47.292443979531527" lon="9.651990998536348">
        <ele>481.75999999999999</ele>
        <time>2025-05-20T12:07:42Z</time>
      </trkpt>
      <trkpt lat="47.292547998949885" lon="9.651965014636517">
        <ele>481.75999999999999</ele>
        <time>2025-05-20T12:07:43Z</time>
      </trkpt>
      <trkpt lat="47.292652018368244" lon="9.65190801769495">
        <ele>480.80000000000001</ele>
        <time>2025-05-20T12:07:44Z</time>
      </trkpt>
      <trkpt lat="47.292753020301461" lon="9.651852026581764">
        <ele>480.80000000000001</ele>
        <time>2025-05-20T12:07:45Z</time>
      </trkpt>
      <trkpt lat="47.293418040499091" lon="9.651489006355405">
        <ele>479.83999999999997</ele>
        <time>2025-05-20T12:07:51Z</time>
      </trkpt>
      <trkpt lat="47.293529016897082" lon="9.651446007192135">
        <ele>479.83999999999997</ele>
        <time>2025-05-20T12:07:52Z</time>
      </trkpt>
      <trkpt lat="47.29444800876081" lon="9.651381969451904">
        <ele>479.83999999999997</ele>
        <time>2025-05-20T12:08:00Z</time>
      </trkpt>
      <trkpt lat="47.295176982879639" lon="9.65152001939714">
        <ele>483.68000000000001</ele>
        <time>2025-05-20T12:08:08Z</time>
      </trkpt>
      <trkpt lat="47.296241987496614" lon="9.651604006066918">
        <ele>480.80000000000001</ele>
        <time>2025-05-20T12:08:17Z</time>
      </trkpt>
      <trkpt lat="47.297587031498551" lon="9.651250038295984">
        <ele>475.02999999999997</ele>
        <time>2025-05-20T12:08:28Z</time>
      </trkpt>
      <trkpt lat="47.298191031441092" lon="9.651124980300665">
        <ele>472.13999999999999</ele>
        <time>2025-05-20T12:08:33Z</time>
      </trkpt>
      <trkpt lat="47.298285998404026" lon="9.651139983907342">
        <ele>471.66000000000003</ele>
        <time>2025-05-20T12:08:34Z</time>
      </trkpt>
      <trkpt lat="47.298432011157274" lon="9.65117602609098">
        <ele>471.18000000000001</ele>
        <time>2025-05-20T12:08:39Z</time>
      </trkpt>
      <trkpt lat="47.298537036404014" lon="9.651203015819192">
        <ele>471.66000000000003</ele>
        <time>2025-05-20T12:08:44Z</time>
      </trkpt>
      <trkpt lat="47.298605013638735" lon="9.65122003108263">
        <ele>471.66000000000003</ele>
        <time>2025-05-20T12:08:45Z</time>
      </trkpt>
      <trkpt lat="47.298761000856757" lon="9.651275016367436">
        <ele>472.13999999999999</ele>
        <time>2025-05-20T12:08:47Z</time>
      </trkpt>
      <trkpt lat="47.29885496199131" lon="9.651301000267267">
        <ele>472.13999999999999</ele>
        <time>2025-05-20T12:08:48Z</time>
      </trkpt>
      <trkpt lat="47.299701031297445" lon="9.651592019945383">
        <ele>474.06999999999999</ele>
        <time>2025-05-20T12:08:56Z</time>
      </trkpt>
      <trkpt lat="47.301029982045293" lon="9.652075991034508">
        <ele>479.83999999999997</ele>
        <time>2025-05-20T12:09:07Z</time>
      </trkpt>
      <trkpt lat="47.301147999241948" lon="9.652136005461216">
        <ele>480.80000000000001</ele>
        <time>2025-05-20T12:09:08Z</time>
      </trkpt>
      <trkpt lat="47.30220403522253" lon="9.652584018185735">
        <ele>487.05000000000001</ele>
        <time>2025-05-20T12:09:17Z</time>
      </trkpt>
      <trkpt lat="47.30340700596571" lon="9.652841007336974">
        <ele>491.85000000000002</ele>
        <time>2025-05-20T12:09:27Z</time>
      </trkpt>
      <trkpt lat="47.303525023162365" lon="9.652841007336974">
        <ele>492.32999999999998</ele>
        <time>2025-05-20T12:09:28Z</time>
      </trkpt>
      <trkpt lat="47.303614960983396" lon="9.652773030102253">
        <ele>492.32999999999998</ele>
        <time>2025-05-20T12:09:29Z</time>
      </trkpt>
      <trkpt lat="47.303674975410104" lon="9.652712009847164">
        <ele>492.81</ele>
        <time>2025-05-20T12:09:30Z</time>
      </trkpt>
      <trkpt lat="47.303758040070534" lon="9.652534984052181">
        <ele>492.81</ele>
        <time>2025-05-20T12:09:31Z</time>
      </trkpt>
      <trkpt lat="47.303825011476874" lon="9.652390982955694">
        <ele>492.81</ele>
        <time>2025-05-20T12:09:32Z</time>
      </trkpt>
      <trkpt lat="47.303863987326622" lon="9.652236001566052">
        <ele>492.32999999999998</ele>
        <time>2025-05-20T12:09:33Z</time>
      </trkpt>
      <trkpt lat="47.303869016468525" lon="9.652084959670901">
        <ele>492.32999999999998</ele>
        <time>2025-05-20T12:09:34Z</time>
      </trkpt>
      <trkpt lat="47.303871028125286" lon="9.651897959411144">
        <ele>491.85000000000002</ele>
        <time>2025-05-20T12:09:35Z</time>
      </trkpt>
      <trkpt lat="47.303875973448157" lon="9.651530999690294">
        <ele>490.41000000000003</ele>
        <time>2025-05-20T12:09:37Z</time>
      </trkpt>
      <trkpt lat="47.303941017016768" lon="9.649898959323764">
        <ele>487.52999999999997</ele>
        <time>2025-05-20T12:09:46Z</time>
      </trkpt>
      <trkpt lat="47.30398703366518" lon="9.649712964892387">
        <ele>487.05000000000001</ele>
        <time>2025-05-20T12:09:47Z</time>
      </trkpt>
      <trkpt lat="47.304050987586379" lon="9.649558989331126">
        <ele>486.56</ele>
        <time>2025-05-20T12:09:48Z</time>
      </trkpt>
      <trkpt lat="47.304120976477861" lon="9.649404007941485">
        <ele>486.07999999999998</ele>
        <time>2025-05-20T12:09:49Z</time>
      </trkpt>
      <trkpt lat="47.304209992289543" lon="9.649277022108436">
        <ele>485.60000000000002</ele>
        <time>2025-05-20T12:09:50Z</time>
      </trkpt>
      <trkpt lat="47.304296996444464" lon="9.649171996861696">
        <ele>485.12</ele>
        <time>2025-05-20T12:09:51Z</time>
      </trkpt>
      <trkpt lat="47.304413001984358" lon="9.649070994928479">
        <ele>484.63999999999999</ele>
        <time>2025-05-20T12:09:52Z</time>
      </trkpt>
      <trkpt lat="47.304516015574336" lon="9.648979967460036">
        <ele>484.63999999999999</ele>
        <time>2025-05-20T12:09:53Z</time>
      </trkpt>
      <trkpt lat="47.304621040821075" lon="9.648889023810625">
        <ele>484.63999999999999</ele>
        <time>2025-05-20T12:09:54Z</time>
      </trkpt>
      <trkpt lat="47.305500973016024" lon="9.648225009441376">
        <ele>485.12</ele>
        <time>2025-05-20T12:10:02Z</time>
      </trkpt>
      <trkpt lat="47.305614966899157" lon="9.648181004449725">
        <ele>485.60000000000002</ele>
        <time>2025-05-20T12:10:03Z</time>
      </trkpt>
      <trkpt lat="47.305738013237715" lon="9.648171029984951">
        <ele>485.60000000000002</ele>
        <time>2025-05-20T12:10:04Z</time>
      </trkpt>
      <trkpt lat="47.305842032656074" lon="9.648162983357906">
        <ele>485.60000000000002</ele>
        <time>2025-05-20T12:10:05Z</time>
      </trkpt>
      <trkpt lat="47.305974969640374" lon="9.648216040804982">
        <ele>485.60000000000002</ele>
        <time>2025-05-20T12:10:06Z</time>
      </trkpt>
      <trkpt lat="47.306100027635694" lon="9.648267002776265">
        <ele>485.60000000000002</ele>
        <time>2025-05-20T12:10:07Z</time>
      </trkpt>
      <trkpt lat="47.306461036205292" lon="9.648414021357894">
        <ele>483.68000000000001</ele>
        <time>2025-05-20T12:10:10Z</time>
      </trkpt>
      <trkpt lat="47.307311967015266" lon="9.648502031341195">
        <ele>480.80000000000001</ele>
        <time>2025-05-20T12:10:17Z</time>
      </trkpt>
      <trkpt lat="47.307434007525444" lon="9.648523991927505">
        <ele>480.31999999999999</ele>
        <time>2025-05-20T12:10:18Z</time>
      </trkpt>
      <trkpt lat="47.30755303055048" lon="9.648565985262394">
        <ele>479.83999999999997</ele>
        <time>2025-05-20T12:10:19Z</time>
      </trkpt>
      <trkpt lat="47.307672975584865" lon="9.648608984425664">
        <ele>479.35000000000002</ele>
        <time>2025-05-20T12:10:20Z</time>
      </trkpt>
      <trkpt lat="47.307788981124759" lon="9.64866204187274">
        <ele>478.87</ele>
        <time>2025-05-20T12:10:21Z</time>
      </trkpt>
      <trkpt lat="47.307904986664653" lon="9.648718032985926">
        <ele>478.38999999999999</ele>
        <time>2025-05-20T12:10:22Z</time>
      </trkpt>
      <trkpt lat="47.308020992204547" lon="9.648773018270731">
        <ele>478.38999999999999</ele>
        <time>2025-05-20T12:10:23Z</time>
      </trkpt>
      <trkpt lat="47.308141021057963" lon="9.648829009383917">
        <ele>478.38999999999999</ele>
        <time>2025-05-20T12:10:24Z</time>
      </trkpt>
      <trkpt lat="47.308262977749109" lon="9.648833032697439">
        <ele>478.38999999999999</ele>
        <time>2025-05-20T12:10:25Z</time>
      </trkpt>
      <trkpt lat="47.308389041572809" lon="9.64883697219193">
        <ele>478.38999999999999</ele>
        <time>2025-05-20T12:10:26Z</time>
      </trkpt>
      <trkpt lat="47.308516027405858" lon="9.648840995505452">
        <ele>478.38999999999999</ele>
        <time>2025-05-20T12:10:27Z</time>
      </trkpt>
      <trkpt lat="47.308879969641566" lon="9.648849964141846">
        <ele>478.38999999999999</ele>
        <time>2025-05-20T12:10:30Z</time>
      </trkpt>
      <trkpt lat="47.308998992666602" lon="9.64888097718358">
        <ele>478.38999999999999</ele>
        <time>2025-05-20T12:10:31Z</time>
      </trkpt>
      <trkpt lat="47.30946796014905" lon="9.64909303933382">
        <ele>480.31999999999999</ele>
        <time>2025-05-20T12:10:35Z</time>
      </trkpt>
      <trkpt lat="47.3102199845016" lon="9.649578016251326">
        <ele>486.56</ele>
        <time>2025-05-20T12:10:43Z</time>
      </trkpt>
      <trkpt lat="47.310422994196415" lon="9.649670971557498">
        <ele>488.97000000000003</ele>
        <time>2025-05-20T12:10:45Z</time>
      </trkpt>
      <trkpt lat="47.310534976422787" lon="9.649682035669684">
        <ele>490.41000000000003</ele>
        <time>2025-05-20T12:10:46Z</time>
      </trkpt>
      <trkpt lat="47.310638995841146" lon="9.649664014577866">
        <ele>491.85000000000002</ele>
        <time>2025-05-20T12:10:47Z</time>
      </trkpt>
      <trkpt lat="47.310746032744646" lon="9.649620009586215">
        <ele>493.29000000000002</ele>
        <time>2025-05-20T12:10:48Z</time>
      </trkpt>
      <trkpt lat="47.310856003314257" lon="9.649574998766184">
        <ele>494.25999999999999</ele>
        <time>2025-05-20T12:10:49Z</time>
      </trkpt>
      <trkpt lat="47.310948958620429" lon="9.649537028744817">
        <ele>495.69999999999999</ele>
        <time>2025-05-20T12:10:50Z</time>
      </trkpt>
      <trkpt lat="47.311027999967337" lon="9.649424962699413">
        <ele>496.66000000000003</ele>
        <time>2025-05-20T12:10:51Z</time>
      </trkpt>
      <trkpt lat="47.311105029657483" lon="9.649315997958183">
        <ele>497.62</ele>
        <time>2025-05-20T12:10:52Z</time>
      </trkpt>
      <trkpt lat="47.31118499301374" lon="9.649204015731812">
        <ele>498.57999999999998</ele>
        <time>2025-05-20T12:10:53Z</time>
      </trkpt>
      <trkpt lat="47.311263028532267" lon="9.649093961343169">
        <ele>499.54000000000002</ele>
        <time>2025-05-20T12:10:54Z</time>
      </trkpt>
      <trkpt lat="47.311360007151961" lon="9.64898600243032">
        <ele>500.98000000000002</ele>
        <time>2025-05-20T12:10:55Z</time>
      </trkpt>
      <trkpt lat="47.311462014913559" lon="9.648906961083412">
        <ele>501.94999999999999</ele>
        <time>2025-05-20T12:10:56Z</time>
      </trkpt>
      <trkpt lat="47.311714980751276" lon="9.648680984973908">
        <ele>504.35000000000002</ele>
        <time>2025-05-20T12:10:59Z</time>
      </trkpt>
      <trkpt lat="47.311762003228068" lon="9.648560034111142">
        <ele>505.31</ele>
        <time>2025-05-20T12:11:00Z</time>
      </trkpt>
      <trkpt lat="47.311806008219719" lon="9.648445034399629">
        <ele>505.79000000000002</ele>
        <time>2025-05-20T12:11:01Z</time>
      </trkpt>
      <trkpt lat="47.311797961592674" lon="9.648336991667748">
        <ele>506.75</ele>
        <time>2025-05-20T12:11:02Z</time>
      </trkpt>
      <trkpt lat="47.31178698129952" lon="9.648207994177938">
        <ele>507.70999999999998</ele>
        <time>2025-05-20T12:11:03Z</time>
      </trkpt>
      <trkpt lat="47.311776001006365" lon="9.648082014173269">
        <ele>508.19</ele>
        <time>2025-05-20T12:11:04Z</time>
      </trkpt>
      <trkpt lat="47.31176401488483" lon="9.647949999198318">
        <ele>509.16000000000003</ele>
        <time>2025-05-20T12:11:05Z</time>
      </trkpt>
      <trkpt lat="47.311774995177984" lon="9.647809015586972">
        <ele>509.63999999999999</ele>
        <time>2025-05-20T12:11:06Z</time>
      </trkpt>
      <trkpt lat="47.311793016269803" lon="9.647655040025711">
        <ele>510.12</ele>
        <time>2025-05-20T12:11:07Z</time>
      </trkpt>
      <trkpt lat="47.31185101903975" lon="9.647538028657436">
        <ele>510.60000000000002</ele>
        <time>2025-05-20T12:11:08Z</time>
      </trkpt>
      <trkpt lat="47.311933999881148" lon="9.647445995360613">
        <ele>512.03999999999996</ele>
        <time>2025-05-20T12:11:09Z</time>
      </trkpt>
      <trkpt lat="47.31202301569283" lon="9.647387992590666">
        <ele>513</ele>
        <time>2025-05-20T12:11:10Z</time>
      </trkpt>
      <trkpt lat="47.312151007354259" lon="9.647368965670466">
        <ele>513.96000000000004</ele>
        <time>2025-05-20T12:11:11Z</time>
      </trkpt>
      <trkpt lat="47.312227031216025" lon="9.647385980933905">
        <ele>514.91999999999996</ele>
        <time>2025-05-20T12:11:12Z</time>
      </trkpt>
      <trkpt lat="47.312329960986972" lon="9.647409031167626">
        <ele>515.39999999999998</ele>
        <time>2025-05-20T12:11:13Z</time>
      </trkpt>
      <trkpt lat="47.31243004091084" lon="9.647411964833736">
        <ele>516.37</ele>
        <time>2025-05-20T12:11:14Z</time>
      </trkpt>
      <trkpt lat="47.312532970681787" lon="9.647367037832737">
        <ele>517.33000000000004</ele>
        <time>2025-05-20T12:11:15Z</time>
      </trkpt>
      <trkpt lat="47.312642019242048" lon="9.647319009527564">
        <ele>518.28999999999996</ele>
        <time>2025-05-20T12:11:16Z</time>
      </trkpt>
      <trkpt lat="47.312875036150217" lon="9.647237034514546">
        <ele>519.73000000000002</ele>
        <time>2025-05-20T12:11:18Z</time>
      </trkpt>
      <trkpt lat="47.312995987012982" lon="9.647206021472812">
        <ele>520.69000000000005</ele>
        <time>2025-05-20T12:11:19Z</time>
      </trkpt>
      <trkpt lat="47.313134036958218" lon="9.647179031744599">
        <ele>521.64999999999998</ele>
        <time>2025-05-20T12:11:20Z</time>
      </trkpt>
      <trkpt lat="47.313265968114138" lon="9.647201998159289">
        <ele>522.61000000000001</ele>
        <time>2025-05-20T12:11:21Z</time>
      </trkpt>
      <trkpt lat="47.31339898891747" lon="9.64722597040236">
        <ele>523.09000000000003</ele>
        <time>2025-05-20T12:11:22Z</time>
      </trkpt>
      <trkpt lat="47.313537038862705" lon="9.647250026464462">
        <ele>524.05999999999995</ele>
        <time>2025-05-20T12:11:23Z</time>
      </trkpt>
      <trkpt lat="47.314241034910083" lon="9.647267041727901">
        <ele>527.41999999999996</ele>
        <time>2025-05-20T12:11:28Z</time>
      </trkpt>
      <trkpt lat="47.314390987157822" lon="9.647238040342927">
        <ele>528.38</ele>
        <time>2025-05-20T12:11:29Z</time>
      </trkpt>
      <trkpt lat="47.314526019617915" lon="9.647201998159289">
        <ele>528.86000000000001</ele>
        <time>2025-05-20T12:11:30Z</time>
      </trkpt>
      <trkpt lat="47.314670020714402" lon="9.647134020924568">
        <ele>529.82000000000005</ele>
        <time>2025-05-20T12:11:31Z</time>
      </trkpt>
      <trkpt lat="47.314811004325747" lon="9.647067971527576">
        <ele>530.29999999999995</ele>
        <time>2025-05-20T12:11:32Z</time>
      </trkpt>
      <trkpt lat="47.315196990966797" lon="9.646762032061815">
        <ele>531.26999999999998</ele>
        <time>2025-05-20T12:11:35Z</time>
      </trkpt>
      <trkpt lat="47.31642896309495" lon="9.645532993599773">
        <ele>525.01999999999998</ele>
        <time>2025-05-20T12:11:45Z</time>
      </trkpt>
      <trkpt lat="47.317603016272187" lon="9.645056985318661">
        <ele>520.69000000000005</ele>
        <time>2025-05-20T12:11:53Z</time>
      </trkpt>
      <trkpt lat="47.317755986005068" lon="9.645014991983771">
        <ele>520.21000000000004</ele>
        <time>2025-05-20T12:11:54Z</time>
      </trkpt>
      <trkpt lat="47.3179080337286" lon="9.644972998648882">
        <ele>519.25</ele>
        <time>2025-05-20T12:11:55Z</time>
      </trkpt>
      <trkpt lat="47.318057985976338" lon="9.644912984222174">
        <ele>518.76999999999998</ele>
        <time>2025-05-20T12:11:56Z</time>
      </trkpt>
      <trkpt lat="47.318340037018061" lon="9.644730007275939">
        <ele>517.80999999999995</ele>
        <time>2025-05-20T12:11:58Z</time>
      </trkpt>
      <trkpt lat="47.318475991487503" lon="9.644609978422523">
        <ele>517.33000000000004</ele>
        <time>2025-05-20T12:11:59Z</time>
      </trkpt>
      <trkpt lat="47.318603983148932" lon="9.644486010074616">
        <ele>517.33000000000004</ele>
        <time>2025-05-20T12:12:00Z</time>
      </trkpt>
      <trkpt lat="47.319275038316846" lon="9.643993992358446">
        <ele>515.39999999999998</ele>
        <time>2025-05-20T12:12:05Z</time>
      </trkpt>
      <trkpt lat="47.319421973079443" lon="9.643933977931738">
        <ele>514.91999999999996</ele>
        <time>2025-05-20T12:12:06Z</time>
      </trkpt>
      <trkpt lat="47.320762993767858" lon="9.643519995734096">
        <ele>511.56</ele>
        <time>2025-05-20T12:12:15Z</time>
      </trkpt>
      <trkpt lat="47.32091898098588" lon="9.643523013219237">
        <ele>511.07999999999998</ele>
        <time>2025-05-20T12:12:16Z</time>
      </trkpt>
      <trkpt lat="47.321087038144469" lon="9.643545979633927">
        <ele>510.60000000000002</ele>
        <time>2025-05-20T12:12:17Z</time>
      </trkpt>
      <trkpt lat="47.321247970685363" lon="9.643618986010552">
        <ele>510.12</ele>
        <time>2025-05-20T12:12:18Z</time>
      </trkpt>
      <trkpt lat="47.321420973166823" lon="9.643711019307375">
        <ele>509.63999999999999</ele>
        <time>2025-05-20T12:12:19Z</time>
      </trkpt>
      <trkpt lat="47.321587018668652" lon="9.643800035119057">
        <ele>509.16000000000003</ele>
        <time>2025-05-20T12:12:20Z</time>
      </trkpt>
      <trkpt lat="47.321743005886674" lon="9.643879998475313">
        <ele>508.67000000000002</ele>
        <time>2025-05-20T12:12:21Z</time>
      </trkpt>
      <trkpt lat="47.32190603390336" lon="9.64393699541688">
        <ele>508.19</ele>
        <time>2025-05-20T12:12:22Z</time>
      </trkpt>
      <trkpt lat="47.32207702472806" lon="9.643998015671969">
        <ele>507.23000000000002</ele>
        <time>2025-05-20T12:12:23Z</time>
      </trkpt>
      <trkpt lat="47.322243992239237" lon="9.643969014286995">
        <ele>506.75</ele>
        <time>2025-05-20T12:12:24Z</time>
      </trkpt>
      <trkpt lat="47.322408026084304" lon="9.643935989588499">
        <ele>505.79000000000002</ele>
        <time>2025-05-20T12:12:25Z</time>
      </trkpt>
      <trkpt lat="47.322568036615849" lon="9.643903970718384">
        <ele>504.82999999999998</ele>
        <time>2025-05-20T12:12:26Z</time>
      </trkpt>
      <trkpt lat="47.322713965550065" lon="9.643838005140424">
        <ele>503.38999999999999</ele>
        <time>2025-05-20T12:12:27Z</time>
      </trkpt>
      <trkpt lat="47.322860984131694" lon="9.643748989328742">
        <ele>502.43000000000001</ele>
        <time>2025-05-20T12:12:28Z</time>
      </trkpt>
      <trkpt lat="47.323009008541703" lon="9.64365896768868">
        <ele>501.45999999999998</ele>
        <time>2025-05-20T12:12:29Z</time>
      </trkpt>
      <trkpt lat="47.323887012898922" lon="9.643244985491037">
        <ele>495.22000000000003</ele>
        <time>2025-05-20T12:12:36Z</time>
      </trkpt>
      <trkpt lat="47.324294960126281" lon="9.643234005197883">
        <ele>492.81</ele>
        <time>2025-05-20T12:12:40Z</time>
      </trkpt>
      <trkpt lat="47.324401997029781" lon="9.643262000754476">
        <ele>492.81</ele>
        <time>2025-05-20T12:12:41Z</time>
      </trkpt>
      <trkpt lat="47.325090989470482" lon="9.643618986010552">
        <ele>493.29000000000002</ele>
        <time>2025-05-20T12:12:47Z</time>
      </trkpt>
      <trkpt lat="47.325714016333222" lon="9.64421602897346">
        <ele>495.69999999999999</ele>
        <time>2025-05-20T12:12:53Z</time>
      </trkpt>
      <trkpt lat="47.325821975246072" lon="9.644298003986478">
        <ele>496.18000000000001</ele>
        <time>2025-05-20T12:12:54Z</time>
      </trkpt>
      <trkpt lat="47.325920965522528" lon="9.644348965957761">
        <ele>496.18000000000001</ele>
        <time>2025-05-20T12:12:55Z</time>
      </trkpt>
      <trkpt lat="47.326035965234041" lon="9.644364975392819">
        <ele>496.18000000000001</ele>
        <time>2025-05-20T12:12:56Z</time>
      </trkpt>
      <trkpt lat="47.326154988259077" lon="9.644380984827876">
        <ele>496.18000000000001</ele>
        <time>2025-05-20T12:12:57Z</time>
      </trkpt>
      <trkpt lat="47.326278034597635" lon="9.644398000091314">
        <ele>496.18000000000001</ele>
        <time>2025-05-20T12:12:58Z</time>
      </trkpt>
      <trkpt lat="47.326529994606972" lon="9.644446028396487">
        <ele>496.18000000000001</ele>
        <time>2025-05-20T12:13:00Z</time>
      </trkpt>
      <trkpt lat="47.326648011803627" lon="9.644489027559757">
        <ele>495.69999999999999</ele>
        <time>2025-05-20T12:13:01Z</time>
      </trkpt>
      <trkpt lat="47.327687032520771" lon="9.645015997812152">
        <ele>494.25999999999999</ele>
        <time>2025-05-20T12:13:09Z</time>
      </trkpt>
      <trkpt lat="47.328079976141453" lon="9.645337024703622">
        <ele>493.76999999999998</ele>
        <time>2025-05-20T12:13:12Z</time>
      </trkpt>
      <trkpt lat="47.328198999166489" lon="9.645468033850193">
        <ele>493.29000000000002</ele>
        <time>2025-05-20T12:13:13Z</time>
      </trkpt>
      <trkpt lat="47.32830997556448" lon="9.64559099636972">
        <ele>493.29000000000002</ele>
        <time>2025-05-20T12:13:14Z</time>
      </trkpt>
      <trkpt lat="47.328415000811219" lon="9.645707001909614">
        <ele>492.81</ele>
        <time>2025-05-20T12:13:15Z</time>
      </trkpt>
      <trkpt lat="47.328522959724069" lon="9.645818984135985">
        <ele>492.81</ele>
        <time>2025-05-20T12:13:16Z</time>
      </trkpt>
      <trkpt lat="47.328650029376149" lon="9.645914034917951">
        <ele>492.81</ele>
        <time>2025-05-20T12:13:17Z</time>
      </trkpt>
      <trkpt lat="47.328778021037579" lon="9.646011013537645">
        <ele>492.32999999999998</ele>
        <time>2025-05-20T12:13:18Z</time>
      </trkpt>
      <trkpt lat="47.330164974555373" lon="9.647168973460794">
        <ele>480.80000000000001</ele>
        <time>2025-05-20T12:13:28Z</time>
      </trkpt>
      <trkpt lat="47.330953041091561" lon="9.648232972249389">
        <ele>472.13999999999999</ele>
        <time>2025-05-20T12:13:36Z</time>
      </trkpt>
      <trkpt lat="47.331064017489552" lon="9.648302961140871">
        <ele>471.18000000000001</ele>
        <time>2025-05-20T12:13:37Z</time>
      </trkpt>
      <trkpt lat="47.331170970574021" lon="9.648331040516496">
        <ele>471.18000000000001</ele>
        <time>2025-05-20T12:13:38Z</time>
      </trkpt>
      <trkpt lat="47.331283958628774" lon="9.648319976404309">
        <ele>471.18000000000001</ele>
        <time>2025-05-20T12:13:39Z</time>
      </trkpt>
      <trkpt lat="47.331398036330938" lon="9.648289969190955">
        <ele>470.69999999999999</ele>
        <time>2025-05-20T12:13:40Z</time>
      </trkpt>
      <trkpt lat="47.331517981365323" lon="9.648225009441376">
        <ele>470.22000000000003</ele>
        <time>2025-05-20T12:13:41Z</time>
      </trkpt>
      <trkpt lat="47.331637004390359" lon="9.64817002415657">
        <ele>470.69999999999999</ele>
        <time>2025-05-20T12:13:42Z</time>
      </trkpt>
      <trkpt lat="47.331758961081505" lon="9.648129036650062">
        <ele>470.69999999999999</ele>
        <time>2025-05-20T12:13:43Z</time>
      </trkpt>
      <trkpt lat="47.331881001591682" lon="9.648089976981282">
        <ele>471.18000000000001</ele>
        <time>2025-05-20T12:13:44Z</time>
      </trkpt>
      <trkpt lat="47.332682982087135" lon="9.647872969508171">
        <ele>476.47000000000003</ele>
        <time>2025-05-20T12:13:51Z</time>
      </trkpt>
      <trkpt lat="47.332788007333875" lon="9.647899037227035">
        <ele>476.94999999999999</ele>
        <time>2025-05-20T12:13:52Z</time>
      </trkpt>
      <trkpt lat="47.332894960418344" lon="9.647926026955247">
        <ele>476.94999999999999</ele>
        <time>2025-05-20T12:13:53Z</time>
      </trkpt>
      <trkpt lat="47.333366023376584" lon="9.648023005574942">
        <ele>477.91000000000003</ele>
        <time>2025-05-20T12:13:58Z</time>
      </trkpt>
      <trkpt lat="47.333450010046363" lon="9.647957962006331">
        <ele>478.38999999999999</ele>
        <time>2025-05-20T12:13:59Z</time>
      </trkpt>
      <trkpt lat="47.333602979779243" lon="9.647855032235384">
        <ele>478.38999999999999</ele>
        <time>2025-05-20T12:14:01Z</time>
      </trkpt>
      <trkpt lat="47.333673974499106" lon="9.647856960073113">
        <ele>478.87</ele>
        <time>2025-05-20T12:14:02Z</time>
      </trkpt>
      <trkpt lat="47.333757961168885" lon="9.647886967286468">
        <ele>478.38999999999999</ele>
        <time>2025-05-20T12:14:03Z</time>
      </trkpt>
      <trkpt lat="47.334116036072373" lon="9.647987969219685">
        <ele>477.91000000000003</ele>
        <time>2025-05-20T12:14:07Z</time>
      </trkpt>
      <trkpt lat="47.33421603217721" lon="9.648001966997981">
        <ele>477.43000000000001</ele>
        <time>2025-05-20T12:14:08Z</time>
      </trkpt>
      <trkpt lat="47.334314016625285" lon="9.648016970604658">
        <ele>476.47000000000003</ele>
        <time>2025-05-20T12:14:09Z</time>
      </trkpt>
      <trkpt lat="47.334406971931458" lon="9.648029962554574">
        <ele>475.99000000000001</ele>
        <time>2025-05-20T12:14:10Z</time>
      </trkpt>
      <trkpt lat="47.334501016885042" lon="9.648043960332871">
        <ele>475.50999999999999</ele>
        <time>2025-05-20T12:14:11Z</time>
      </trkpt>
      <trkpt lat="47.334607969969511" lon="9.648058963939548">
        <ele>475.02999999999997</ele>
        <time>2025-05-20T12:14:12Z</time>
      </trkpt>
      <trkpt lat="47.33471198938787" lon="9.648073967546225">
        <ele>475.02999999999997</ele>
        <time>2025-05-20T12:14:13Z</time>
      </trkpt>
      <trkpt lat="47.334896977990866" lon="9.648101041093469">
        <ele>475.02999999999997</ele>
        <time>2025-05-20T12:14:15Z</time>
      </trkpt>
      <trkpt lat="47.334982976317406" lon="9.648114033043385">
        <ele>474.55000000000001</ele>
        <time>2025-05-20T12:14:16Z</time>
      </trkpt>
      <trkpt lat="47.335064029321074" lon="9.64812601916492">
        <ele>474.06999999999999</ele>
        <time>2025-05-20T12:14:17Z</time>
      </trkpt>
      <trkpt lat="47.335132006555796" lon="9.648135993629694">
        <ele>474.06999999999999</ele>
        <time>2025-05-20T12:14:18Z</time>
      </trkpt>
      <trkpt lat="47.335175005719066" lon="9.648142028599978">
        <ele>473.58999999999997</ele>
        <time>2025-05-20T12:14:19Z</time>
      </trkpt>
      <trkpt lat="47.335197972133756" lon="9.648142028599978">
        <ele>473.58999999999997</ele>
        <time>2025-05-20T12:14:20Z</time>
      </trkpt>
      <trkpt lat="47.335197972133756" lon="9.648142028599978">
        <ele>473.11000000000001</ele>
        <time>2025-05-20T12:14:21Z</time>
      </trkpt>
      <trkpt lat="47.335197972133756" lon="9.648142028599978">
        <ele>473.11000000000001</ele>
        <time>2025-05-20T12:14:23Z</time>
      </trkpt>
      <trkpt lat="47.335240971297026" lon="9.648142028599978">
        <ele>472.63</ele>
        <time>2025-05-20T12:14:24Z</time>
      </trkpt>
      <trkpt lat="47.335266033187509" lon="9.648142028599978">
        <ele>472.13999999999999</ele>
        <time>2025-05-20T12:14:25Z</time>
      </trkpt>
      <trkpt lat="47.335368040949106" lon="9.648248981684446">
        <ele>471.66000000000003</ele>
        <time>2025-05-20T12:14:26Z</time>
      </trkpt>
      <trkpt lat="47.335394024848938" lon="9.648292986676097">
        <ele>471.18000000000001</ele>
        <time>2025-05-20T12:14:27Z</time>
      </trkpt>
      <trkpt lat="47.335438029840589" lon="9.64836498722434">
        <ele>470.69999999999999</ele>
        <time>2025-05-20T12:14:28Z</time>
      </trkpt>
      <trkpt lat="47.335711028426886" lon="9.648736976087093">
        <ele>468.30000000000001</ele>
        <time>2025-05-20T12:14:33Z</time>
      </trkpt>
      <trkpt lat="47.335770037025213" lon="9.64881501160562">
        <ele>467.81999999999999</ele>
        <time>2025-05-20T12:14:34Z</time>
      </trkpt>
      <trkpt lat="47.33583097346127" lon="9.648894974961877">
        <ele>467.33999999999997</ele>
        <time>2025-05-20T12:14:35Z</time>
      </trkpt>
      <trkpt lat="47.335887970402837" lon="9.648988014087081">
        <ele>466.86000000000001</ele>
        <time>2025-05-20T12:14:36Z</time>
      </trkpt>
      <trkpt lat="47.335939016193151" lon="9.649085998535156">
        <ele>466.38</ele>
        <time>2025-05-20T12:14:37Z</time>
      </trkpt>
      <trkpt lat="47.335994001477957" lon="9.649173002690077">
        <ele>465.89999999999998</ele>
        <time>2025-05-20T12:14:38Z</time>
      </trkpt>
      <trkpt lat="47.336183013394475" lon="9.649471985176206">
        <ele>459.64999999999998</ele>
        <time>2025-05-20T12:14:45Z</time>
      </trkpt>
      <trkpt lat="47.336183013394475" lon="9.649471985176206">
        <ele>459.17000000000002</ele>
        <time>2025-05-20T12:14:46Z</time>
      </trkpt>
      <trkpt lat="47.336204973980784" lon="9.64950299821794">
        <ele>457.72000000000003</ele>
        <time>2025-05-20T12:14:54Z</time>
      </trkpt>
      <trkpt lat="47.336435979232192" lon="9.64980298653245">
        <ele>453.39999999999998</ele>
        <time>2025-05-20T12:15:01Z</time>
      </trkpt>
      <trkpt lat="47.336484007537365" lon="9.649858977645636">
        <ele>452.92000000000002</ele>
        <time>2025-05-20T12:15:02Z</time>
      </trkpt>
      <trkpt lat="47.336533963680267" lon="9.649916980415583">
        <ele>451.95999999999998</ele>
        <time>2025-05-20T12:15:03Z</time>
      </trkpt>
      <trkpt lat="47.336578974500299" lon="9.649969032034278">
        <ele>451</ele>
        <time>2025-05-20T12:15:04Z</time>
      </trkpt>
      <trkpt lat="47.336620967835188" lon="9.6500179823488">
        <ele>450.51999999999998</ele>
        <time>2025-05-20T12:15:05Z</time>
      </trkpt>
      <trkpt lat="47.336676958948374" lon="9.650072967633605">
        <ele>450.02999999999997</ele>
        <time>2025-05-20T12:15:06Z</time>
      </trkpt>
      <trkpt lat="47.336705038323998" lon="9.650120995938778">
        <ele>449.06999999999999</ele>
        <time>2025-05-20T12:15:07Z</time>
      </trkpt>
      <trkpt lat="47.336740996688604" lon="9.650180004537106">
        <ele>448.58999999999997</ele>
        <time>2025-05-20T12:15:08Z</time>
      </trkpt>
      <trkpt lat="47.33694601804018" lon="9.650364993140101">
        <ele>446.19</ele>
        <time>2025-05-20T12:15:13Z</time>
      </trkpt>
      <trkpt lat="47.337382966652513" lon="9.650704963132739">
        <ele>442.33999999999997</ele>
        <time>2025-05-20T12:15:24Z</time>
      </trkpt>
      <trkpt lat="47.33741900883615" lon="9.650730025023222">
        <ele>441.86000000000001</ele>
        <time>2025-05-20T12:15:25Z</time>
      </trkpt>
      <trkpt lat="47.337459996342659" lon="9.650759026408196">
        <ele>441.86000000000001</ele>
        <time>2025-05-20T12:15:26Z</time>
      </trkpt>
      <trkpt lat="47.337873978540301" lon="9.650996988639236">
        <ele>440.42000000000002</ele>
        <time>2025-05-20T12:15:36Z</time>
      </trkpt>
      <trkpt lat="47.337917983531952" lon="9.651023978367448">
        <ele>440.42000000000002</ele>
        <time>2025-05-20T12:15:37Z</time>
      </trkpt>
      <trkpt lat="47.338085034862161" lon="9.651109976693988">
        <ele>439.45999999999998</ele>
        <time>2025-05-20T12:15:40Z</time>
      </trkpt>
      <trkpt lat="47.338892966508865" lon="9.65154399164021">
        <ele>441.38</ele>
        <time>2025-05-20T12:15:52Z</time>
      </trkpt>
      <trkpt lat="47.339002015069127" lon="9.651615992188454">
        <ele>441.38</ele>
        <time>2025-05-20T12:15:54Z</time>
      </trkpt>
      <trkpt lat="47.339036967605352" lon="9.651639964431524">
        <ele>441.86000000000001</ele>
        <time>2025-05-20T12:15:55Z</time>
      </trkpt>
      <trkpt lat="47.339090025052428" lon="9.651670977473259">
        <ele>441.86000000000001</ele>
        <time>2025-05-20T12:15:56Z</time>
      </trkpt>
      <trkpt lat="47.339192032814026" lon="9.651733003556728">
        <ele>441.38</ele>
        <time>2025-05-20T12:15:58Z</time>
      </trkpt>
      <trkpt lat="47.339655971154571" lon="9.652006002143025">
        <ele>440.42000000000002</ele>
        <time>2025-05-20T12:16:11Z</time>
      </trkpt>
      <trkpt lat="47.339821010828018" lon="9.652105998247862">
        <ele>440.89999999999998</ele>
        <time>2025-05-20T12:16:21Z</time>
      </trkpt>
      <trkpt lat="47.339916983619332" lon="9.652389977127314">
        <ele>440.42000000000002</ele>
        <time>2025-05-20T12:16:30Z</time>
      </trkpt>
      <trkpt lat="47.340045981109142" lon="9.652283024042845">
        <ele>440.42000000000002</ele>
        <time>2025-05-20T12:16:31Z</time>
      </trkpt>
      <trkpt lat="47.340054027736187" lon="9.652288975194097">
        <ele>439.94</ele>
        <time>2025-05-20T12:16:32Z</time>
      </trkpt>
      <trkpt lat="47.340108007192612" lon="9.652321999892592">
        <ele>439.94</ele>
        <time>2025-05-20T12:16:33Z</time>
      </trkpt>
      <trkpt lat="47.340172966942191" lon="9.652362987399101">
        <ele>439.45999999999998</ele>
        <time>2025-05-20T12:16:34Z</time>
      </trkpt>
      <trkpt lat="47.340242033824325" lon="9.652410009875894">
        <ele>438.98000000000002</ele>
        <time>2025-05-20T12:16:35Z</time>
      </trkpt>
      <trkpt lat="47.340314034372568" lon="9.65246600098908">
        <ele>438.98000000000002</ele>
        <time>2025-05-20T12:16:36Z</time>
      </trkpt>
      <trkpt lat="47.341202013194561" lon="9.653075030073524">
        <ele>434.64999999999998</ele>
        <time>2025-05-20T12:16:46Z</time>
      </trkpt>
      <trkpt lat="47.342376988381147" lon="9.653792018070817">
        <ele>427.92000000000002</ele>
        <time>2025-05-20T12:16:57Z</time>
      </trkpt>
      <trkpt lat="47.343372004106641" lon="9.654600033536553">
        <ele>424.07999999999998</ele>
        <time>2025-05-20T12:17:06Z</time>
      </trkpt>
      <trkpt lat="47.343798978254199" lon="9.655203027650714">
        <ele>421.68000000000001</ele>
        <time>2025-05-20T12:17:11Z</time>
      </trkpt>
      <trkpt lat="47.343865027651191" lon="9.655308974906802">
        <ele>421.19</ele>
        <time>2025-05-20T12:17:12Z</time>
      </trkpt>
      <trkpt lat="47.343982961028814" lon="9.655573004856706">
        <ele>419.75</ele>
        <time>2025-05-20T12:17:14Z</time>
      </trkpt>
      <trkpt lat="47.344037024304271" lon="9.655694039538503">
        <ele>419.26999999999998</ele>
        <time>2025-05-20T12:17:15Z</time>
      </trkpt>
      <trkpt lat="47.344087986275554" lon="9.655807027593255">
        <ele>418.79000000000002</ele>
        <time>2025-05-20T12:17:16Z</time>
      </trkpt>
      <trkpt lat="47.34410097822547" lon="9.655973995104432">
        <ele>418.79000000000002</ele>
        <time>2025-05-20T12:17:17Z</time>
      </trkpt>
      <trkpt lat="47.34410097822547" lon="9.656072985380888">
        <ele>418.31</ele>
        <time>2025-05-20T12:17:18Z</time>
      </trkpt>
      <trkpt lat="47.34410097822547" lon="9.656167030334473">
        <ele>418.31</ele>
        <time>2025-05-20T12:17:19Z</time>
      </trkpt>
      <trkpt lat="47.344163004308939" lon="9.656213968992233">
        <ele>417.82999999999998</ele>
        <time>2025-05-20T12:17:20Z</time>
      </trkpt>
      <trkpt lat="47.344202985987067" lon="9.656215980648994">
        <ele>417.82999999999998</ele>
        <time>2025-05-20T12:17:21Z</time>
      </trkpt>
      <trkpt lat="47.34425101429224" lon="9.656167030334473">
        <ele>417.35000000000002</ele>
        <time>2025-05-20T12:17:22Z</time>
      </trkpt>
      <trkpt lat="47.34425101429224" lon="9.656167030334473">
        <ele>416.87</ele>
        <time>2025-05-20T12:17:23Z</time>
      </trkpt>
      <trkpt lat="47.34438001178205" lon="9.655998973175883">
        <ele>416.87</ele>
        <time>2025-05-20T12:17:24Z</time>
      </trkpt>
      <trkpt lat="47.344475984573364" lon="9.656020011752844">
        <ele>416.38999999999999</ele>
        <time>2025-05-20T12:17:25Z</time>
      </trkpt>
      <trkpt lat="47.344559971243143" lon="9.65605597011745">
        <ele>415.91000000000003</ele>
        <time>2025-05-20T12:17:26Z</time>
      </trkpt>
      <trkpt lat="47.344643035903573" lon="9.656106010079384">
        <ele>415.91000000000003</ele>
        <time>2025-05-20T12:17:27Z</time>
      </trkpt>
      <trkpt lat="47.344744959846139" lon="9.656167030334473">
        <ele>415.43000000000001</ele>
        <time>2025-05-20T12:17:28Z</time>
      </trkpt>
      <trkpt lat="47.345702005550265" lon="9.656749991700053">
        <ele>414.94999999999999</ele>
        <time>2025-05-20T12:17:37Z</time>
      </trkpt>
      <trkpt lat="47.347146961838007" lon="9.657586002722383">
        <ele>413.5</ele>
        <time>2025-05-20T12:17:47Z</time>
      </trkpt>
      <trkpt lat="47.34925601631403" lon="9.658755026757717">
        <ele>413.01999999999998</ele>
        <time>2025-05-20T12:18:02Z</time>
      </trkpt>
      <trkpt lat="47.351052006706595" lon="9.659754987806082">
        <ele>409.18000000000001</ele>
        <time>2025-05-20T12:18:15Z</time>
      </trkpt>
      <trkpt lat="47.351321987807751" lon="9.659925978630781">
        <ele>407.25999999999999</ele>
        <time>2025-05-20T12:18:17Z</time>
      </trkpt>
      <trkpt lat="47.351436987519264" lon="9.660014994442463">
        <ele>406.76999999999998</ele>
        <time>2025-05-20T12:18:18Z</time>
      </trkpt>
      <trkpt lat="47.351934034377337" lon="9.660408021882176">
        <ele>403.88999999999999</ele>
        <time>2025-05-20T12:18:22Z</time>
      </trkpt>
      <trkpt lat="47.35314697958529" lon="9.661361966282129">
        <ele>401.97000000000003</ele>
        <time>2025-05-20T12:18:34Z</time>
      </trkpt>
      <trkpt lat="47.35439202748239" lon="9.662162018939853">
        <ele>405.32999999999998</ele>
        <time>2025-05-20T12:18:45Z</time>
      </trkpt>
      <trkpt lat="47.355427024886012" lon="9.662761995568872">
        <ele>407.74000000000001</ele>
        <time>2025-05-20T12:18:54Z</time>
      </trkpt>
      <trkpt lat="47.356941970065236" lon="9.66351100243628">
        <ele>408.22000000000003</ele>
        <time>2025-05-20T12:19:07Z</time>
      </trkpt>
      <trkpt lat="47.357948971912265" lon="9.664221033453941">
        <ele>407.25999999999999</ele>
        <time>2025-05-20T12:19:16Z</time>
      </trkpt>
      <trkpt lat="47.359149008989334" lon="9.66505503281951">
        <ele>409.66000000000003</ele>
        <time>2025-05-20T12:19:27Z</time>
      </trkpt>
      <trkpt lat="47.359721995890141" lon="9.665535986423492">
        <ele>410.62</ele>
        <time>2025-05-20T12:19:33Z</time>
      </trkpt>
      <trkpt lat="47.36017101444304" lon="9.665990034118295">
        <ele>411.57999999999998</ele>
        <time>2025-05-20T12:19:39Z</time>
      </trkpt>
      <trkpt lat="47.36019398085773" lon="9.666016018018127">
        <ele>411.57999999999998</ele>
        <time>2025-05-20T12:19:40Z</time>
      </trkpt>
      <trkpt lat="47.360161039978266" lon="9.666182985529304">
        <ele>411.57999999999998</ele>
        <time>2025-05-20T12:19:41Z</time>
      </trkpt>
      <trkpt lat="47.360173026099801" lon="9.66634601354599">
        <ele>411.10000000000002</ele>
        <time>2025-05-20T12:19:42Z</time>
      </trkpt>
      <trkpt lat="47.360195992514491" lon="9.666465958580375">
        <ele>411.10000000000002</ele>
        <time>2025-05-20T12:19:43Z</time>
      </trkpt>
      <trkpt lat="47.36021501943469" lon="9.666564026847482">
        <ele>410.62</ele>
        <time>2025-05-20T12:19:44Z</time>
      </trkpt>
      <trkpt lat="47.360225999727845" lon="9.666622029617429">
        <ele>410.13999999999999</ele>
        <time>2025-05-20T12:19:45Z</time>
      </trkpt>
      <trkpt lat="47.360233040526509" lon="9.666657987982035">
        <ele>409.18000000000001</ele>
        <time>2025-05-20T12:19:53Z</time>
      </trkpt>
      <trkpt lat="47.360294982790947" lon="9.666872983798385">
        <ele>407.74000000000001</ele>
        <time>2025-05-20T12:20:10Z</time>
      </trkpt>
      <trkpt lat="47.36036597751081" lon="9.667111029848456">
        <ele>408.22000000000003</ele>
        <time>2025-05-20T12:20:18Z</time>
      </trkpt>
      <trkpt lat="47.360543003305793" lon="9.667740007862449">
        <ele>408.22000000000003</ele>
        <time>2025-05-20T12:20:26Z</time>
      </trkpt>
      <trkpt lat="47.360898982733488" lon="9.66900902800262">
        <ele>408.22000000000003</ele>
        <time>2025-05-20T12:20:35Z</time>
      </trkpt>
      <trkpt lat="47.361358981579542" lon="9.670684989541769">
        <ele>412.06</ele>
        <time>2025-05-20T12:20:45Z</time>
      </trkpt>
      <trkpt lat="47.361845970153809" lon="9.672346031293273">
        <ele>411.57999999999998</ele>
        <time>2025-05-20T12:20:55Z</time>
      </trkpt>
      <trkpt lat="47.362583996728063" lon="9.674002965912223">
        <ele>412.06</ele>
        <time>2025-05-20T12:21:06Z</time>
      </trkpt>
      <trkpt lat="47.363362004980445" lon="9.675831981003285">
        <ele>412.54000000000002</ele>
        <time>2025-05-20T12:21:18Z</time>
      </trkpt>
      <trkpt lat="47.363397963345051" lon="9.676005989313126">
        <ele>412.54000000000002</ele>
        <time>2025-05-20T12:21:19Z</time>
      </trkpt>
      <trkpt lat="47.363420007750392" lon="9.67618603259325">
        <ele>413.01999999999998</ele>
        <time>2025-05-20T12:21:20Z</time>
      </trkpt>
      <trkpt lat="47.363408021628857" lon="9.67726000584662">
        <ele>413.98000000000002</ele>
        <time>2025-05-20T12:21:26Z</time>
      </trkpt>
      <trkpt lat="47.363146003335714" lon="9.678875030949712">
        <ele>413.98000000000002</ele>
        <time>2025-05-20T12:21:35Z</time>
      </trkpt>
      <trkpt lat="47.363134017214179" lon="9.678977038711309">
        <ele>413.5</ele>
        <time>2025-05-20T12:21:36Z</time>
      </trkpt>
      <trkpt lat="47.363134017214179" lon="9.679169990122318">
        <ele>413.01999999999998</ele>
        <time>2025-05-20T12:21:37Z</time>
      </trkpt>
      <trkpt lat="47.363142985850573" lon="9.679394960403442">
        <ele>412.06</ele>
        <time>2025-05-20T12:21:38Z</time>
      </trkpt>
      <trkpt lat="47.363155977800488" lon="9.679563017562032">
        <ele>411.10000000000002</ele>
        <time>2025-05-20T12:21:39Z</time>
      </trkpt>
      <trkpt lat="47.363239964470267" lon="9.68063497915864">
        <ele>413.5</ele>
        <time>2025-05-20T12:21:45Z</time>
      </trkpt>
      <trkpt lat="47.36331095919013" lon="9.680789038538933">
        <ele>414.47000000000003</ele>
        <time>2025-05-20T12:21:46Z</time>
      </trkpt>
      <trkpt lat="47.363383965566754" lon="9.680895991623402">
        <ele>414.47000000000003</ele>
        <time>2025-05-20T12:21:47Z</time>
      </trkpt>
      <trkpt lat="47.363465018570423" lon="9.680964974686503">
        <ele>414.94999999999999</ele>
        <time>2025-05-20T12:21:48Z</time>
      </trkpt>
      <trkpt lat="47.36354598775506" lon="9.681027000769973">
        <ele>415.43000000000001</ele>
        <time>2025-05-20T12:21:49Z</time>
      </trkpt>
      <trkpt lat="47.3636319860816" lon="9.681088021025062">
        <ele>415.91000000000003</ele>
        <time>2025-05-20T12:21:50Z</time>
      </trkpt>
      <trkpt lat="47.364528011530638" lon="9.681634018197656">
        <ele>420.70999999999998</ele>
        <time>2025-05-20T12:21:59Z</time>
      </trkpt>
      <trkpt lat="47.365001002326608" lon="9.682001983746886">
        <ele>423.12</ele>
        <time>2025-05-20T12:22:05Z</time>
      </trkpt>
      <trkpt lat="47.365294033661485" lon="9.682365003973246">
        <ele>424.07999999999998</ele>
        <time>2025-05-20T12:22:09Z</time>
      </trkpt>
      <trkpt lat="47.366044968366623" lon="9.683229010552168">
        <ele>424.56</ele>
        <time>2025-05-20T12:22:18Z</time>
      </trkpt>
      <trkpt lat="47.366112023591995" lon="9.683308973908424">
        <ele>424.07999999999998</ele>
        <time>2025-05-20T12:22:19Z</time>
      </trkpt>
      <trkpt lat="47.366172038018703" lon="9.683379968628287">
        <ele>424.07999999999998</ele>
        <time>2025-05-20T12:22:20Z</time>
      </trkpt>
      <trkpt lat="47.366271028295159" lon="9.683497985824943">
        <ele>423.12</ele>
        <time>2025-05-20T12:22:22Z</time>
      </trkpt>
      <trkpt lat="47.366830017417669" lon="9.684143979102373">
        <ele>422.63999999999999</ele>
        <time>2025-05-20T12:22:30Z</time>
      </trkpt>
      <trkpt lat="47.366971001029015" lon="9.684294015169144">
        <ele>423.12</ele>
        <time>2025-05-20T12:22:32Z</time>
      </trkpt>
      <trkpt lat="47.367374002933502" lon="9.684783015400171">
        <ele>425.51999999999998</ele>
        <time>2025-05-20T12:22:39Z</time>
      </trkpt>
      <trkpt lat="47.367425970733166" lon="9.684850992634893">
        <ele>425.51999999999998</ele>
        <time>2025-05-20T12:22:40Z</time>
      </trkpt>
      <trkpt lat="47.367815980687737" lon="9.685535961762071">
        <ele>425.51999999999998</ele>
        <time>2025-05-20T12:22:48Z</time>
      </trkpt>
      <trkpt lat="47.367845987901092" lon="9.685642998665571">
        <ele>425.04000000000002</ele>
        <time>2025-05-20T12:22:49Z</time>
      </trkpt>
      <trkpt lat="47.367967022582889" lon="9.686131998896599">
        <ele>422.63999999999999</ele>
        <time>2025-05-20T12:22:53Z</time>
      </trkpt>
      <trkpt lat="47.367976997047663" lon="9.686258984729648">
        <ele>421.68000000000001</ele>
        <time>2025-05-20T12:22:54Z</time>
      </trkpt>
      <trkpt lat="47.36799200065434" lon="9.686461994424462">
        <ele>420.23000000000002</ele>
        <time>2025-05-20T12:22:56Z</time>
      </trkpt>
      <trkpt lat="47.368038017302752" lon="9.687033975496888">
        <ele>414.94999999999999</ele>
        <time>2025-05-20T12:23:04Z</time>
      </trkpt>
      <trkpt lat="47.36801203340292" lon="9.687068006023765">
        <ele>414.47000000000003</ele>
        <time>2025-05-20T12:23:05Z</time>
      </trkpt>
      <trkpt lat="47.367984959855676" lon="9.68710295855999">
        <ele>413.5</ele>
        <time>2025-05-20T12:23:06Z</time>
      </trkpt>
      <trkpt lat="47.367619005963206" lon="9.687580978497863">
        <ele>407.74000000000001</ele>
        <time>2025-05-20T12:23:19Z</time>
      </trkpt>
      <trkpt lat="47.367578018456697" lon="9.687657002359629">
        <ele>407.74000000000001</ele>
        <time>2025-05-20T12:23:22Z</time>
      </trkpt>
      <trkpt lat="47.367551028728485" lon="9.687706036493182">
        <ele>407.74000000000001</ele>
        <time>2025-05-20T12:23:23Z</time>
      </trkpt>
      <trkpt lat="47.367524961009622" lon="9.687755992636085">
        <ele>407.74000000000001</ele>
        <time>2025-05-20T12:23:24Z</time>
      </trkpt>
      <trkpt lat="47.367495959624648" lon="9.687808966264129">
        <ele>407.74000000000001</ele>
        <time>2025-05-20T12:23:25Z</time>
      </trkpt>
      <trkpt lat="47.367466958239675" lon="9.687863029539585">
        <ele>407.74000000000001</ele>
        <time>2025-05-20T12:23:26Z</time>
      </trkpt>
      <trkpt lat="47.367441980168223" lon="9.687928995117545">
        <ele>408.22000000000003</ele>
        <time>2025-05-20T12:23:27Z</time>
      </trkpt>
      <trkpt lat="47.367419013753533" lon="9.687989009544253">
        <ele>408.22000000000003</ele>
        <time>2025-05-20T12:23:28Z</time>
      </trkpt>
      <trkpt lat="47.367395963519812" lon="9.688049023970962">
        <ele>408.22000000000003</ele>
        <time>2025-05-20T12:23:29Z</time>
      </trkpt>
      <trkpt lat="47.367361010983586" lon="9.688228983432055">
        <ele>407.74000000000001</ele>
        <time>2025-05-20T12:23:31Z</time>
      </trkpt>
      <trkpt lat="47.367361010983586" lon="9.688313975930214">
        <ele>407.74000000000001</ele>
        <time>2025-05-20T12:23:32Z</time>
      </trkpt>
      <trkpt lat="47.367361010983586" lon="9.688398968428373">
        <ele>407.74000000000001</ele>
        <time>2025-05-20T12:23:33Z</time>
      </trkpt>
      <trkpt lat="47.367361010983586" lon="9.688481027260423">
        <ele>407.74000000000001</ele>
        <time>2025-05-20T12:23:34Z</time>
      </trkpt>
      <trkpt lat="47.367361010983586" lon="9.688557973131537">
        <ele>407.74000000000001</ele>
        <time>2025-05-20T12:23:35Z</time>
      </trkpt>
      <trkpt lat="47.367361010983586" lon="9.6886289678514">
        <ele>407.74000000000001</ele>
        <time>2025-05-20T12:23:36Z</time>
      </trkpt>
      <trkpt lat="47.367361010983586" lon="9.688695017248392">
        <ele>407.74000000000001</ele>
        <time>2025-05-20T12:23:37Z</time>
      </trkpt>
      <trkpt lat="47.367361010983586" lon="9.68875402584672">
        <ele>408.22000000000003</ele>
        <time>2025-05-20T12:23:38Z</time>
      </trkpt>
      <trkpt lat="47.367361010983586" lon="9.688880005851388">
        <ele>408.69999999999999</ele>
        <time>2025-05-20T12:23:40Z</time>
      </trkpt>
      <trkpt lat="47.367620011791587" lon="9.689489034935832">
        <ele>407.74000000000001</ele>
        <time>2025-05-20T12:23:46Z</time>
      </trkpt>
      <trkpt lat="47.367703998461366" lon="9.689533961936832">
        <ele>407.74000000000001</ele>
        <time>2025-05-20T12:23:47Z</time>
      </trkpt>
      <trkpt lat="47.367703998461366" lon="9.689533961936832">
        <ele>407.25999999999999</ele>
        <time>2025-05-20T12:23:49Z</time>
      </trkpt>
      <trkpt lat="47.36773400567472" lon="9.68955097720027">
        <ele>407.25999999999999</ele>
        <time>2025-05-20T12:23:50Z</time>
      </trkpt>
      <trkpt lat="47.36777801066637" lon="9.689576039090753">
        <ele>407.25999999999999</ele>
        <time>2025-05-20T12:23:51Z</time>
      </trkpt>
      <trkpt lat="47.36784003674984" lon="9.689610991626978">
        <ele>407.25999999999999</ele>
        <time>2025-05-20T12:23:52Z</time>
      </trkpt>
      <trkpt lat="47.367912959307432" lon="9.689648961648345">
        <ele>407.25999999999999</ele>
        <time>2025-05-20T12:23:53Z</time>
      </trkpt>
      <trkpt lat="47.367994012311101" lon="9.689689027145505">
        <ele>407.25999999999999</ele>
        <time>2025-05-20T12:23:54Z</time>
      </trkpt>
      <trkpt lat="47.368987016379833" lon="9.69017400406301">
        <ele>402.93000000000001</ele>
        <time>2025-05-20T12:24:05Z</time>
      </trkpt>
      <trkpt lat="47.369784973561764" lon="9.690573988482356">
        <ele>400.52999999999997</ele>
        <time>2025-05-20T12:24:13Z</time>
      </trkpt>
      <trkpt lat="47.369891004636884" lon="9.6906269621104">
        <ele>401.00999999999999</ele>
        <time>2025-05-20T12:24:14Z</time>
      </trkpt>
      <trkpt lat="47.370755011215806" lon="9.691133983433247">
        <ele>403.88999999999999</ele>
        <time>2025-05-20T12:24:23Z</time>
      </trkpt>
      <trkpt lat="47.371034966781735" lon="9.691361971199513">
        <ele>404.85000000000002</ele>
        <time>2025-05-20T12:24:26Z</time>
      </trkpt>
      <trkpt lat="47.371863014996052" lon="9.692322034388781">
        <ele>404.37</ele>
        <time>2025-05-20T12:24:36Z</time>
      </trkpt>
      <trkpt lat="47.372670024633408" lon="9.693537997081876">
        <ele>404.37</ele>
        <time>2025-05-20T12:24:47Z</time>
      </trkpt>
      <trkpt lat="47.373527996242046" lon="9.69481498003006">
        <ele>405.32999999999998</ele>
        <time>2025-05-20T12:24:58Z</time>
      </trkpt>
      <trkpt lat="47.374366018921137" lon="9.696061033755541">
        <ele>406.76999999999998</ele>
        <time>2025-05-20T12:25:09Z</time>
      </trkpt>
      <trkpt lat="47.374667013064027" lon="9.696520026773214">
        <ele>407.25999999999999</ele>
        <time>2025-05-20T12:25:15Z</time>
      </trkpt>
      <trkpt lat="47.374700037762523" lon="9.696568977087736">
        <ele>406.76999999999998</ele>
        <time>2025-05-20T12:25:16Z</time>
      </trkpt>
      <trkpt lat="47.374735996127129" lon="9.696622034534812">
        <ele>406.76999999999998</ele>
        <time>2025-05-20T12:25:17Z</time>
      </trkpt>
      <trkpt lat="47.374772960320115" lon="9.696677019819617">
        <ele>406.76999999999998</ele>
        <time>2025-05-20T12:25:18Z</time>
      </trkpt>
      <trkpt lat="47.374811014160514" lon="9.696733010932803">
        <ele>406.76999999999998</ele>
        <time>2025-05-20T12:25:19Z</time>
      </trkpt>
      <trkpt lat="47.374849990010262" lon="9.69679101370275">
        <ele>406.76999999999998</ele>
        <time>2025-05-20T12:25:20Z</time>
      </trkpt>
      <trkpt lat="47.374896006658673" lon="9.696858990937471">
        <ele>406.76999999999998</ele>
        <time>2025-05-20T12:25:21Z</time>
      </trkpt>
      <trkpt lat="47.374943029135466" lon="9.696928979828954">
        <ele>406.76999999999998</ele>
        <time>2025-05-20T12:25:22Z</time>
      </trkpt>
      <trkpt lat="47.375054005533457" lon="9.697093013674021">
        <ele>406.76999999999998</ele>
        <time>2025-05-20T12:25:24Z</time>
      </trkpt>
      <trkpt lat="47.375114019960165" lon="9.697183035314083">
        <ele>406.76999999999998</ele>
        <time>2025-05-20T12:25:25Z</time>
      </trkpt>
      <trkpt lat="47.375946007668972" lon="9.698421964421868">
        <ele>407.74000000000001</ele>
        <time>2025-05-20T12:25:37Z</time>
      </trkpt>
      <trkpt lat="47.376914033666253" lon="9.699887959286571">
        <ele>409.66000000000003</ele>
        <time>2025-05-20T12:25:50Z</time>
      </trkpt>
      <trkpt lat="47.377786003053188" lon="9.701179023832083">
        <ele>412.54000000000002</ele>
        <time>2025-05-20T12:26:01Z</time>
      </trkpt>
      <trkpt lat="47.37849997356534" lon="9.702271018177271">
        <ele>413.5</ele>
        <time>2025-05-20T12:26:10Z</time>
      </trkpt>
      <trkpt lat="47.379245040938258" lon="9.703385978937149">
        <ele>413.98000000000002</ele>
        <time>2025-05-20T12:26:20Z</time>
      </trkpt>
      <trkpt lat="47.379636978730559" lon="9.703968018293381">
        <ele>414.47000000000003</ele>
        <time>2025-05-20T12:26:25Z</time>
      </trkpt>
      <trkpt lat="47.380425967276096" lon="9.705157997086644">
        <ele>414.94999999999999</ele>
        <time>2025-05-20T12:26:34Z</time>
      </trkpt>
      <trkpt lat="47.381070032715797" lon="9.706125017255545">
        <ele>414.47000000000003</ele>
        <time>2025-05-20T12:26:39Z</time>
      </trkpt>
      <trkpt lat="47.381665986031294" lon="9.707006039097905">
        <ele>413.5</ele>
        <time>2025-05-20T12:26:43Z</time>
      </trkpt>
      <trkpt lat="47.382949003949761" lon="9.708914011716843">
        <ele>413.01999999999998</ele>
        <time>2025-05-20T12:26:54Z</time>
      </trkpt>
      <trkpt lat="47.383876964449883" lon="9.710298031568527">
        <ele>413.01999999999998</ele>
        <time>2025-05-20T12:27:02Z</time>
      </trkpt>
      <trkpt lat="47.385400040075183" lon="9.712581010535359">
        <ele>413.01999999999998</ele>
        <time>2025-05-20T12:27:15Z</time>
      </trkpt>
      <trkpt lat="47.386411987245083" lon="9.714484037831426">
        <ele>414.94999999999999</ele>
        <time>2025-05-20T12:27:25Z</time>
      </trkpt>
      <trkpt lat="47.387034008279443" lon="9.716477002948523">
        <ele>414.94999999999999</ele>
        <time>2025-05-20T12:27:34Z</time>
      </trkpt>
      <trkpt lat="47.387735992670059" lon="9.718525037169457">
        <ele>414.47000000000003</ele>
        <time>2025-05-20T12:27:44Z</time>
      </trkpt>
      <trkpt lat="47.38844501785934" lon="9.720616992563009">
        <ele>413.01999999999998</ele>
        <time>2025-05-20T12:27:55Z</time>
      </trkpt>
      <trkpt lat="47.388943992555141" lon="9.722074018791318">
        <ele>414.94999999999999</ele>
        <time>2025-05-20T12:28:03Z</time>
      </trkpt>
      <trkpt lat="47.388995038345456" lon="9.722226988524199">
        <ele>414.94999999999999</ele>
        <time>2025-05-20T12:28:04Z</time>
      </trkpt>
      <trkpt lat="47.389318998903036" lon="9.723168024793267">
        <ele>415.91000000000003</ele>
        <time>2025-05-20T12:28:12Z</time>
      </trkpt>
      <trkpt lat="47.389432992786169" lon="9.723487962037325">
        <ele>415.43000000000001</ele>
        <time>2025-05-20T12:28:20Z</time>
      </trkpt>
      <trkpt lat="47.389439027756453" lon="9.723503971472383">
        <ele>415.43000000000001</ele>
        <time>2025-05-20T12:28:23Z</time>
      </trkpt>
      <trkpt lat="47.389633990824223" lon="9.724063966423273">
        <ele>416.87</ele>
        <time>2025-05-20T12:28:29Z</time>
      </trkpt>
      <trkpt lat="47.390148974955082" lon="9.725501965731382">
        <ele>418.79000000000002</ele>
        <time>2025-05-20T12:28:38Z</time>
      </trkpt>
      <trkpt lat="47.390965037047863" lon="9.727068040519953">
        <ele>423.12</ele>
        <time>2025-05-20T12:28:49Z</time>
      </trkpt>
      <trkpt lat="47.392202038317919" lon="9.728251984342933">
        <ele>426.95999999999998</ele>
        <time>2025-05-20T12:29:01Z</time>
      </trkpt>
      <trkpt lat="47.393534006550908" lon="9.729204000905156">
        <ele>432.25</ele>
        <time>2025-05-20T12:29:13Z</time>
      </trkpt>
      <trkpt lat="47.394857006147504" lon="9.730139002203941">
        <ele>432.25</ele>
        <time>2025-05-20T12:29:25Z</time>
      </trkpt>
      <trkpt lat="47.395383976399899" lon="9.730513002723455">
        <ele>432.73000000000002</ele>
        <time>2025-05-20T12:29:32Z</time>
      </trkpt>
      <trkpt lat="47.395426975563169" lon="9.730548961088061">
        <ele>432.73000000000002</ele>
        <time>2025-05-20T12:29:35Z</time>
      </trkpt>
      <trkpt lat="47.395610958337784" lon="9.730677958577871">
        <ele>432.73000000000002</ele>
        <time>2025-05-20T12:29:43Z</time>
      </trkpt>
      <trkpt lat="47.39585998468101" lon="9.730850039049983">
        <ele>433.20999999999998</ele>
        <time>2025-05-20T12:29:48Z</time>
      </trkpt>
      <trkpt lat="47.396315038204193" lon="9.731163019314408">
        <ele>433.20999999999998</ele>
        <time>2025-05-20T12:29:56Z</time>
      </trkpt>
      <trkpt lat="47.397033032029867" lon="9.731613965705037">
        <ele>434.64999999999998</ele>
        <time>2025-05-20T12:30:05Z</time>
      </trkpt>
      <trkpt lat="47.397785978391767" lon="9.732533041387796">
        <ele>434.17000000000002</ele>
        <time>2025-05-20T12:30:14Z</time>
      </trkpt>
      <trkpt lat="47.398474970832467" lon="9.734051004052162">
        <ele>435.61000000000001</ele>
        <time>2025-05-20T12:30:24Z</time>
      </trkpt>
      <trkpt lat="47.398800021037459" lon="9.734792970120907">
        <ele>436.57999999999998</ele>
        <time>2025-05-20T12:30:31Z</time>
      </trkpt>
      <trkpt lat="47.399503011256456" lon="9.735708022490144">
        <ele>441.38</ele>
        <time>2025-05-20T12:30:43Z</time>
      </trkpt>
      <trkpt lat="47.39987701177597" lon="9.736016979441047">
        <ele>444.26999999999998</ele>
        <time>2025-05-20T12:30:49Z</time>
      </trkpt>
      <trkpt lat="47.400583019480109" lon="9.736532969400287">
        <ele>449.06999999999999</ele>
        <time>2025-05-20T12:30:59Z</time>
      </trkpt>
      <trkpt lat="47.401041006669402" lon="9.73688199184835">
        <ele>449.55000000000001</ele>
        <time>2025-05-20T12:31:05Z</time>
      </trkpt>
      <trkpt lat="47.401091968640685" lon="9.73692599684">
        <ele>448.58999999999997</ele>
        <time>2025-05-20T12:31:06Z</time>
      </trkpt>
      <trkpt lat="47.401393968611956" lon="9.73718298599124">
        <ele>441.38</ele>
        <time>2025-05-20T12:31:14Z</time>
      </trkpt>
      <trkpt lat="47.401778027415276" lon="9.737554974853993">
        <ele>436.10000000000002</ele>
        <time>2025-05-20T12:31:23Z</time>
      </trkpt>
      <trkpt lat="47.40183100104332" lon="9.737607026472688">
        <ele>434.64999999999998</ele>
        <time>2025-05-20T12:31:40Z</time>
      </trkpt>
      <trkpt lat="47.402100982144475" lon="9.737878013402224">
        <ele>432.25</ele>
        <time>2025-05-20T12:31:44Z</time>
      </trkpt>
      <trkpt lat="47.40223802626133" lon="9.738011034205556">
        <ele>431.76999999999998</ele>
        <time>2025-05-20T12:31:46Z</time>
      </trkpt>
      <trkpt lat="47.40230499766767" lon="9.738068031147122">
        <ele>431.76999999999998</ele>
        <time>2025-05-20T12:31:47Z</time>
      </trkpt>
      <trkpt lat="47.402873039245605" lon="9.738486036658287">
        <ele>434.64999999999998</ele>
        <time>2025-05-20T12:31:56Z</time>
      </trkpt>
      <trkpt lat="47.402965994551778" lon="9.738549990579486">
        <ele>435.13</ele>
        <time>2025-05-20T12:31:58Z</time>
      </trkpt>
      <trkpt lat="47.402998013421893" lon="9.738572034984827">
        <ele>435.61000000000001</ele>
        <time>2025-05-20T12:31:59Z</time>
      </trkpt>
      <trkpt lat="47.403018968179822" lon="9.738586032763124">
        <ele>435.61000000000001</ele>
        <time>2025-05-20T12:32:00Z</time>
      </trkpt>
      <trkpt lat="47.40303598344326" lon="9.738598018884659">
        <ele>436.10000000000002</ele>
        <time>2025-05-20T12:32:01Z</time>
      </trkpt>
      <trkpt lat="47.40305501036346" lon="9.738612016662955">
        <ele>436.57999999999998</ele>
        <time>2025-05-20T12:32:02Z</time>
      </trkpt>
      <trkpt lat="47.403075965121388" lon="9.738626014441252">
        <ele>436.57999999999998</ele>
        <time>2025-05-20T12:32:03Z</time>
      </trkpt>
      <trkpt lat="47.403095997869968" lon="9.738640012219548">
        <ele>437.06</ele>
        <time>2025-05-20T12:32:04Z</time>
      </trkpt>
      <trkpt lat="47.403116030618548" lon="9.738653004169464">
        <ele>437.54000000000002</ele>
        <time>2025-05-20T12:32:05Z</time>
      </trkpt>
      <trkpt lat="47.403133967891335" lon="9.73866599611938">
        <ele>438.01999999999998</ele>
        <time>2025-05-20T12:32:06Z</time>
      </trkpt>
      <trkpt lat="47.403155006468296" lon="9.738679993897677">
        <ele>438.01999999999998</ele>
        <time>2025-05-20T12:32:07Z</time>
      </trkpt>
      <trkpt lat="47.403176967054605" lon="9.738694997504354">
        <ele>438.01999999999998</ele>
        <time>2025-05-20T12:32:08Z</time>
      </trkpt>
      <trkpt lat="47.403201023116708" lon="9.738712012767792">
        <ele>438.5</ele>
        <time>2025-05-20T12:32:09Z</time>
      </trkpt>
      <trkpt lat="47.403576029464602" lon="9.73898702301085">
        <ele>439.45999999999998</ele>
        <time>2025-05-20T12:32:17Z</time>
      </trkpt>
      <trkpt lat="47.403702009469271" lon="9.739066986367106">
        <ele>441.38</ele>
        <time>2025-05-20T12:32:19Z</time>
      </trkpt>
      <trkpt lat="47.40376302972436" lon="9.739107973873615">
        <ele>444.26999999999998</ele>
        <time>2025-05-20T12:32:20Z</time>
      </trkpt>
      <trkpt lat="47.404283965006471" lon="9.73956897854805">
        <ele>472.63</ele>
        <time>2025-05-20T12:32:29Z</time>
      </trkpt>
      <trkpt lat="47.404610021039844" lon="9.740073988214135">
        <ele>477.91000000000003</ele>
        <time>2025-05-20T12:32:35Z</time>
      </trkpt>
      <trkpt lat="47.404654026031494" lon="9.740140959620476">
        <ele>476.47000000000003</ele>
        <time>2025-05-20T12:32:36Z</time>
      </trkpt>
      <trkpt lat="47.404697025194764" lon="9.740223018452525">
        <ele>474.55000000000001</ele>
        <time>2025-05-20T12:32:37Z</time>
      </trkpt>
      <trkpt lat="47.404762990772724" lon="9.740372970700264">
        <ele>471.18000000000001</ele>
        <time>2025-05-20T12:32:39Z</time>
      </trkpt>
      <trkpt lat="47.404791992157698" lon="9.740440025925636">
        <ele>469.74000000000001</ele>
        <time>2025-05-20T12:32:40Z</time>
      </trkpt>
      <trkpt lat="47.404821999371052" lon="9.740509008988738">
        <ele>467.81999999999999</ele>
        <time>2025-05-20T12:32:41Z</time>
      </trkpt>
      <trkpt lat="47.405092986300588" lon="9.741107979789376">
        <ele>456.27999999999997</ele>
        <time>2025-05-20T12:32:49Z</time>
      </trkpt>
      <trkpt lat="47.405092986300588" lon="9.741107979789376">
        <ele>455.31999999999999</ele>
        <time>2025-05-20T12:33:08Z</time>
      </trkpt>
      <trkpt lat="47.405172027647495" lon="9.741276036947966">
        <ele>451.48000000000002</ele>
        <time>2025-05-20T12:33:45Z</time>
      </trkpt>
      <trkpt lat="47.405378976836801" lon="9.741641990840435">
        <ele>447.63</ele>
        <time>2025-05-20T12:33:49Z</time>
      </trkpt>
      <trkpt lat="47.40544100292027" lon="9.741714997217059">
        <ele>447.14999999999998</ele>
        <time>2025-05-20T12:33:50Z</time>
      </trkpt>
      <trkpt lat="47.405510991811752" lon="9.741797978058457">
        <ele>446.19</ele>
        <time>2025-05-20T12:33:51Z</time>
      </trkpt>
      <trkpt lat="47.406672975048423" lon="9.742804979905486">
        <ele>440.89999999999998</ele>
        <time>2025-05-20T12:34:04Z</time>
      </trkpt>
      <trkpt lat="47.407541004940867" lon="9.743178980425">
        <ele>435.13</ele>
        <time>2025-05-20T12:34:13Z</time>
      </trkpt>
      <trkpt lat="47.407672014087439" lon="9.743203958496451">
        <ele>435.61000000000001</ele>
        <time>2025-05-20T12:34:15Z</time>
      </trkpt>
      <trkpt lat="47.40774099715054" lon="9.743209993466735">
        <ele>435.61000000000001</ele>
        <time>2025-05-20T12:34:16Z</time>
      </trkpt>
      <trkpt lat="47.407809980213642" lon="9.743216028437018">
        <ele>436.10000000000002</ele>
        <time>2025-05-20T12:34:17Z</time>
      </trkpt>
      <trkpt lat="47.407876029610634" lon="9.74322097375989">
        <ele>436.57999999999998</ele>
        <time>2025-05-20T12:34:18Z</time>
      </trkpt>
      <trkpt lat="47.407944006845355" lon="9.743228014558554">
        <ele>437.06</ele>
        <time>2025-05-20T12:34:19Z</time>
      </trkpt>
      <trkpt lat="47.408013995736837" lon="9.743235977366567">
        <ele>437.54000000000002</ele>
        <time>2025-05-20T12:34:20Z</time>
      </trkpt>
      <trkpt lat="47.40862000733614" lon="9.743291968479753">
        <ele>442.33999999999997</ele>
        <time>2025-05-20T12:34:30Z</time>
      </trkpt>
      <trkpt lat="47.408672980964184" lon="9.743302026763558">
        <ele>442.81999999999999</ele>
        <time>2025-05-20T12:34:31Z</time>
      </trkpt>
      <trkpt lat="47.408717991784215" lon="9.743309989571571">
        <ele>443.31</ele>
        <time>2025-05-20T12:34:32Z</time>
      </trkpt>
      <trkpt lat="47.408933993428946" lon="9.743344020098448">
        <ele>447.14999999999998</ele>
        <time>2025-05-20T12:34:41Z</time>
      </trkpt>
      <trkpt lat="47.409015968441963" lon="9.743355000391603">
        <ele>451.48000000000002</ele>
        <time>2025-05-20T12:35:03Z</time>
      </trkpt>
      <trkpt lat="47.409684006124735" lon="9.743401017040014">
        <ele>451.48000000000002</ele>
        <time>2025-05-20T12:35:12Z</time>
      </trkpt>
      <trkpt lat="47.410499984398484" lon="9.743462037295103">
        <ele>449.55000000000001</ele>
        <time>2025-05-20T12:35:21Z</time>
      </trkpt>
      <trkpt lat="47.410709029063582" lon="9.74347896873951">
        <ele>449.55000000000001</ele>
        <time>2025-05-20T12:35:26Z</time>
      </trkpt>
      <trkpt lat="47.410793015733361" lon="9.743486009538174">
        <ele>449.06999999999999</ele>
        <time>2025-05-20T12:35:29Z</time>
      </trkpt>
      <trkpt lat="47.410809025168419" lon="9.743487015366554">
        <ele>449.06999999999999</ele>
        <time>2025-05-20T12:35:30Z</time>
      </trkpt>
      <trkpt lat="47.41083400323987" lon="9.743490032851696">
        <ele>449.55000000000001</ele>
        <time>2025-05-20T12:35:42Z</time>
      </trkpt>
      <trkpt lat="47.411093004047871" lon="9.743510987609625">
        <ele>450.02999999999997</ele>
        <time>2025-05-20T12:35:52Z</time>
      </trkpt>
      <trkpt lat="47.411844022572041" lon="9.743523979559541">
        <ele>451.48000000000002</ele>
        <time>2025-05-20T12:36:01Z</time>
      </trkpt>
      <trkpt lat="47.411930020898581" lon="9.743526997044683">
        <ele>451.48000000000002</ele>
        <time>2025-05-20T12:36:02Z</time>
      </trkpt>
      <trkpt lat="47.412526980042458" lon="9.74356597289443">
        <ele>454.36000000000001</ele>
        <time>2025-05-20T12:36:11Z</time>
      </trkpt>
      <trkpt lat="47.412597974762321" lon="9.743578964844346">
        <ele>455.31999999999999</ele>
        <time>2025-05-20T12:36:12Z</time>
      </trkpt>
      <trkpt lat="47.4130670260638" lon="9.743729000911117">
        <ele>458.69</ele>
        <time>2025-05-20T12:36:18Z</time>
      </trkpt>
      <trkpt lat="47.413152018561959" lon="9.74375699646771">
        <ele>458.69</ele>
        <time>2025-05-20T12:36:19Z</time>
      </trkpt>
      <trkpt lat="47.413617968559265" lon="9.744006022810936">
        <ele>457.24000000000001</ele>
        <time>2025-05-20T12:36:27Z</time>
      </trkpt>
      <trkpt lat="47.413953999057412" lon="9.744141977280378">
        <ele>455.80000000000001</ele>
        <time>2025-05-20T12:36:31Z</time>
      </trkpt>
      <trkpt lat="47.414034968242049" lon="9.744167039170861">
        <ele>455.80000000000001</ele>
        <time>2025-05-20T12:36:32Z</time>
      </trkpt>
      <trkpt lat="47.414107974618673" lon="9.74418698810041">
        <ele>455.80000000000001</ele>
        <time>2025-05-20T12:36:33Z</time>
      </trkpt>
      <trkpt lat="47.414815993979573" lon="9.744128985330463">
        <ele>453.88</ele>
        <time>2025-05-20T12:36:41Z</time>
      </trkpt>
      <trkpt lat="47.415461987257004" lon="9.743967968970537">
        <ele>451.48000000000002</ele>
        <time>2025-05-20T12:36:49Z</time>
      </trkpt>
      <trkpt lat="47.415544968098402" lon="9.743947014212608">
        <ele>452.44</ele>
        <time>2025-05-20T12:36:50Z</time>
      </trkpt>
      <trkpt lat="47.416474018245935" lon="9.743751967325807">
        <ele>456.75999999999999</ele>
        <time>2025-05-20T12:36:58Z</time>
      </trkpt>
      <trkpt lat="47.416735030710697" lon="9.74371399730444">
        <ele>456.27999999999997</ele>
        <time>2025-05-20T12:37:00Z</time>
      </trkpt>
      <trkpt lat="47.416838966310024" lon="9.743698993697763">
        <ele>456.27999999999997</ele>
        <time>2025-05-20T12:37:01Z</time>
      </trkpt>
      <trkpt lat="47.418209994211793" lon="9.743402022868395">
        <ele>450.51999999999998</ele>
        <time>2025-05-20T12:37:12Z</time>
      </trkpt>
      <trkpt lat="47.419666014611721" lon="9.743079990148544">
        <ele>440.89999999999998</ele>
        <time>2025-05-20T12:37:24Z</time>
      </trkpt>
      <trkpt lat="47.420876026153564" lon="9.742798022925854">
        <ele>440.89999999999998</ele>
        <time>2025-05-20T12:37:34Z</time>
      </trkpt>
      <trkpt lat="47.422195002436638" lon="9.742332994937897">
        <ele>435.61000000000001</ele>
        <time>2025-05-20T12:37:45Z</time>
      </trkpt>
      <trkpt lat="47.423863001167774" lon="9.741730000823736">
        <ele>429.37</ele>
        <time>2025-05-20T12:37:59Z</time>
      </trkpt>
      <trkpt lat="47.42518600076437" lon="9.741261033341289">
        <ele>425.51999999999998</ele>
        <time>2025-05-20T12:38:11Z</time>
      </trkpt>
      <trkpt lat="47.425943976268172" lon="9.740990968421102">
        <ele>422.63999999999999</ele>
        <time>2025-05-20T12:38:21Z</time>
      </trkpt>
      <trkpt lat="47.425994016230106" lon="9.740973031148315">
        <ele>422.16000000000003</ele>
        <time>2025-05-20T12:38:22Z</time>
      </trkpt>
      <trkpt lat="47.426123013719916" lon="9.740923997014761">
        <ele>421.68000000000001</ele>
        <time>2025-05-20T12:38:25Z</time>
      </trkpt>
      <trkpt lat="47.426384026184678" lon="9.740817965939641">
        <ele>419.75</ele>
        <time>2025-05-20T12:38:32Z</time>
      </trkpt>
      <trkpt lat="47.426445968449116" lon="9.740791982039809">
        <ele>419.26999999999998</ele>
        <time>2025-05-20T12:39:01Z</time>
      </trkpt>
      <trkpt lat="47.427043011412024" lon="9.740592995658517">
        <ele>418.31</ele>
        <time>2025-05-20T12:39:08Z</time>
      </trkpt>
      <trkpt lat="47.42806501686573" lon="9.740230981260538">
        <ele>418.79000000000002</ele>
        <time>2025-05-20T12:39:16Z</time>
      </trkpt>
      <trkpt lat="47.428985014557838" lon="9.7399100381881">
        <ele>418.31</ele>
        <time>2025-05-20T12:39:24Z</time>
      </trkpt>
      <trkpt lat="47.429235968738794" lon="9.73982697352767">
        <ele>416.87</ele>
        <time>2025-05-20T12:39:31Z</time>
      </trkpt>
      <trkpt lat="47.429235968738794" lon="9.73982697352767">
        <ele>416.87</ele>
        <time>2025-05-20T12:39:46Z</time>
      </trkpt>
      <trkpt lat="47.429299000650644" lon="9.739806018769741">
        <ele>417.35000000000002</ele>
        <time>2025-05-20T12:39:52Z</time>
      </trkpt>
      <trkpt lat="47.429991010576487" lon="9.739551963284612">
        <ele>414.94999999999999</ele>
        <time>2025-05-20T12:39:59Z</time>
      </trkpt>
      <trkpt lat="47.431319961324334" lon="9.739080984145403">
        <ele>411.57999999999998</ele>
        <time>2025-05-20T12:40:10Z</time>
      </trkpt>
      <trkpt lat="47.432465013116598" lon="9.738657027482987">
        <ele>413.01999999999998</ele>
        <time>2025-05-20T12:40:20Z</time>
      </trkpt>
      <trkpt lat="47.433454999700189" lon="9.738309010863304">
        <ele>411.10000000000002</ele>
        <time>2025-05-20T12:40:31Z</time>
      </trkpt>
      <trkpt lat="47.433908963575959" lon="9.738151011988521">
        <ele>408.69999999999999</ele>
        <time>2025-05-20T12:40:37Z</time>
      </trkpt>
      <trkpt lat="47.434131000190973" lon="9.738080017268658">
        <ele>406.76999999999998</ele>
        <time>2025-05-20T12:40:43Z</time>
      </trkpt>
      <trkpt lat="47.434181962162256" lon="9.738068031147122">
        <ele>406.29000000000002</ele>
        <time>2025-05-20T12:40:44Z</time>
      </trkpt>
      <trkpt lat="47.434266032651067" lon="9.738050010055304">
        <ele>406.29000000000002</ele>
        <time>2025-05-20T12:40:45Z</time>
      </trkpt>
      <trkpt lat="47.434978997334838" lon="9.737779023125768">
        <ele>406.29000000000002</ele>
        <time>2025-05-20T12:40:54Z</time>
      </trkpt>
      <trkpt lat="47.436105022206903" lon="9.737361017614603">
        <ele>407.25999999999999</ele>
        <time>2025-05-20T12:41:03Z</time>
      </trkpt>
      <trkpt lat="47.438216004520655" lon="9.736599018797278">
        <ele>406.29000000000002</ele>
        <time>2025-05-20T12:41:19Z</time>
      </trkpt>
      <trkpt lat="47.439815020188689" lon="9.736027959734201">
        <ele>404.37</ele>
        <time>2025-05-20T12:41:32Z</time>
      </trkpt>
      <trkpt lat="47.441486036404967" lon="9.73546402528882">
        <ele>403.88999999999999</ele>
        <time>2025-05-20T12:41:46Z</time>
      </trkpt>
      <trkpt lat="47.442570989951491" lon="9.73507602699101">
        <ele>403.41000000000003</ele>
        <time>2025-05-20T12:41:57Z</time>
      </trkpt>
      <trkpt lat="47.443101983517408" lon="9.734865976497531">
        <ele>402.44999999999999</ele>
        <time>2025-05-20T12:42:07Z</time>
      </trkpt>
      <trkpt lat="47.443295018747449" lon="9.734835969284177">
        <ele>401.97000000000003</ele>
        <time>2025-05-20T12:42:12Z</time>
      </trkpt>
      <trkpt lat="47.443342041224241" lon="9.734831023961306">
        <ele>402.44999999999999</ele>
        <time>2025-05-20T12:42:13Z</time>
      </trkpt>
      <trkpt lat="47.443524012342095" lon="9.734935965389013">
        <ele>402.44999999999999</ele>
        <time>2025-05-20T12:42:16Z</time>
      </trkpt>
      <trkpt lat="47.443578997626901" lon="9.734894977882505">
        <ele>402.93000000000001</ele>
        <time>2025-05-20T12:42:17Z</time>
      </trkpt>
      <trkpt lat="47.443638006225228" lon="9.734850972890854">
        <ele>402.93000000000001</ele>
        <time>2025-05-20T12:42:18Z</time>
      </trkpt>
      <trkpt lat="47.443742025643587" lon="9.734660033136606">
        <ele>403.41000000000003</ele>
        <time>2025-05-20T12:42:20Z</time>
      </trkpt>
      <trkpt lat="47.443825006484985" lon="9.734630025923252">
        <ele>403.41000000000003</ele>
        <time>2025-05-20T12:42:21Z</time>
      </trkpt>
      <trkpt lat="47.443922990933061" lon="9.734594989567995">
        <ele>403.88999999999999</ele>
        <time>2025-05-20T12:42:22Z</time>
      </trkpt>
      <trkpt lat="47.444035978987813" lon="9.734557019546628">
        <ele>404.37</ele>
        <time>2025-05-20T12:42:23Z</time>
      </trkpt>
      <trkpt lat="47.444156007841229" lon="9.7345170378685">
        <ele>404.37</ele>
        <time>2025-05-20T12:42:24Z</time>
      </trkpt>
      <trkpt lat="47.44570598937571" lon="9.733985038474202">
        <ele>403.88999999999999</ele>
        <time>2025-05-20T12:42:35Z</time>
      </trkpt>
      <trkpt lat="47.447699960321188" lon="9.733224967494607">
        <ele>402.93000000000001</ele>
        <time>2025-05-20T12:42:47Z</time>
      </trkpt>
      <trkpt lat="47.449388997629285" lon="9.732632031664252">
        <ele>405.32999999999998</ele>
        <time>2025-05-20T12:42:59Z</time>
      </trkpt>
      <trkpt lat="47.450610995292664" lon="9.732202040031552">
        <ele>405.81</ele>
        <time>2025-05-20T12:43:10Z</time>
      </trkpt>
      <trkpt lat="47.451329994946718" lon="9.731944967061281">
        <ele>404.85000000000002</ele>
        <time>2025-05-20T12:43:18Z</time>
      </trkpt>
      <trkpt lat="47.451329994946718" lon="9.731944967061281">
        <ele>404.37</ele>
        <time>2025-05-20T12:43:27Z</time>
      </trkpt>
      <trkpt lat="47.451596036553383" lon="9.731848994269967">
        <ele>404.37</ele>
        <time>2025-05-20T12:43:44Z</time>
      </trkpt>
      <trkpt lat="47.452441016212106" lon="9.731543976813555">
        <ele>404.37</ele>
        <time>2025-05-20T12:43:51Z</time>
      </trkpt>
      <trkpt lat="47.453087009489536" lon="9.731312971562147">
        <ele>404.85000000000002</ele>
        <time>2025-05-20T12:43:55Z</time>
      </trkpt>
      <trkpt lat="47.454631039872766" lon="9.730769991874695">
        <ele>406.29000000000002</ele>
        <time>2025-05-20T12:44:06Z</time>
      </trkpt>
      <trkpt lat="47.456192001700401" lon="9.730204967781901">
        <ele>407.74000000000001</ele>
        <time>2025-05-20T12:44:17Z</time>
      </trkpt>
      <trkpt lat="47.45807901956141" lon="9.729546988382936">
        <ele>406.29000000000002</ele>
        <time>2025-05-20T12:44:29Z</time>
      </trkpt>
      <trkpt lat="47.45988599024713" lon="9.728872999548912">
        <ele>404.85000000000002</ele>
        <time>2025-05-20T12:44:41Z</time>
      </trkpt>
      <trkpt lat="47.460771035403013" lon="9.728467985987663">
        <ele>402.44999999999999</ele>
        <time>2025-05-20T12:44:49Z</time>
      </trkpt>
      <trkpt lat="47.460826020687819" lon="9.728445019572973">
        <ele>402.44999999999999</ele>
        <time>2025-05-20T12:44:50Z</time>
      </trkpt>
      <trkpt lat="47.46091696433723" lon="9.728564964607358">
        <ele>401.97000000000003</ele>
        <time>2025-05-20T12:44:51Z</time>
      </trkpt>
      <trkpt lat="47.461039004847407" lon="9.728625984862447">
        <ele>401.00999999999999</ele>
        <time>2025-05-20T12:44:53Z</time>
      </trkpt>
      <trkpt lat="47.461097007617354" lon="9.728601006790996">
        <ele>401.00999999999999</ele>
        <time>2025-05-20T12:44:54Z</time>
      </trkpt>
      <trkpt lat="47.461131038144231" lon="9.728587009012699">
        <ele>400.52999999999997</ele>
        <time>2025-05-20T12:44:55Z</time>
      </trkpt>
      <trkpt lat="47.461185017600656" lon="9.728480977937579">
        <ele>400.52999999999997</ele>
        <time>2025-05-20T12:44:56Z</time>
      </trkpt>
      <trkpt lat="47.461244026198983" lon="9.728444013744593">
        <ele>400.52999999999997</ele>
        <time>2025-05-20T12:44:57Z</time>
      </trkpt>
      <trkpt lat="47.461317032575607" lon="9.728400008752942">
        <ele>400.52999999999997</ele>
        <time>2025-05-20T12:44:58Z</time>
      </trkpt>
      <trkpt lat="47.461399007588625" lon="9.728348962962627">
        <ele>400.52999999999997</ele>
        <time>2025-05-20T12:44:59Z</time>
      </trkpt>
      <trkpt lat="47.461490035057068" lon="9.728314010426402">
        <ele>400.05000000000001</ele>
        <time>2025-05-20T12:45:00Z</time>
      </trkpt>
      <trkpt lat="47.462491001933813" lon="9.728057021275163">
        <ele>399.56999999999999</ele>
        <time>2025-05-20T12:45:08Z</time>
      </trkpt>
      <trkpt lat="47.46261203661561" lon="9.728049980476499">
        <ele>398.12</ele>
        <time>2025-05-20T12:45:09Z</time>
      </trkpt>
      <trkpt lat="47.463829005137086" lon="9.728012010455132">
        <ele>394.75999999999999</ele>
        <time>2025-05-20T12:45:18Z</time>
      </trkpt>
      <trkpt lat="47.464448008686304" lon="9.728040006011725">
        <ele>393.31999999999999</ele>
        <time>2025-05-20T12:45:23Z</time>
      </trkpt>
      <trkpt lat="47.464671973139048" lon="9.728049980476499">
        <ele>393.31999999999999</ele>
        <time>2025-05-20T12:45:24Z</time>
      </trkpt>
      <trkpt lat="47.464721007272601" lon="9.728055009618402">
        <ele>392.83999999999997</ele>
        <time>2025-05-20T12:45:25Z</time>
      </trkpt>
      <trkpt lat="47.464844975620508" lon="9.728065989911556">
        <ele>392.83999999999997</ele>
        <time>2025-05-20T12:45:26Z</time>
      </trkpt>
      <trkpt lat="47.464971039444208" lon="9.728076970204711">
        <ele>392.83999999999997</ele>
        <time>2025-05-20T12:45:27Z</time>
      </trkpt>
      <trkpt lat="47.465095007792115" lon="9.728088034316897">
        <ele>392.83999999999997</ele>
        <time>2025-05-20T12:45:28Z</time>
      </trkpt>
      <trkpt lat="47.466951012611389" lon="9.728264976292849">
        <ele>399.07999999999998</ele>
        <time>2025-05-20T12:45:43Z</time>
      </trkpt>
      <trkpt lat="47.468291027471423" lon="9.728397997096181">
        <ele>401.97000000000003</ele>
        <time>2025-05-20T12:45:54Z</time>
      </trkpt>
      <trkpt lat="47.469332981854677" lon="9.728537974879146">
        <ele>405.81</ele>
        <time>2025-05-20T12:46:03Z</time>
      </trkpt>
      <trkpt lat="47.470561014488339" lon="9.728694967925549">
        <ele>406.29000000000002</ele>
        <time>2025-05-20T12:46:14Z</time>
      </trkpt>
      <trkpt lat="47.470669979229569" lon="9.728707037866116">
        <ele>405.81</ele>
        <time>2025-05-20T12:46:15Z</time>
      </trkpt>
      <trkpt lat="47.471984010189772" lon="9.728983975946903">
        <ele>407.74000000000001</ele>
        <time>2025-05-20T12:46:27Z</time>
      </trkpt>
      <trkpt lat="47.472650036215782" lon="9.729211963713169">
        <ele>409.66000000000003</ele>
        <time>2025-05-20T12:46:35Z</time>
      </trkpt>
      <trkpt lat="47.472691023722291" lon="9.729238031432033">
        <ele>410.13999999999999</ele>
        <time>2025-05-20T12:46:36Z</time>
      </trkpt>
      <trkpt lat="47.472727987915277" lon="9.729260997846723">
        <ele>410.13999999999999</ele>
        <time>2025-05-20T12:46:37Z</time>
      </trkpt>
      <trkpt lat="47.472782973200083" lon="9.729295028373599">
        <ele>410.13999999999999</ele>
        <time>2025-05-20T12:46:38Z</time>
      </trkpt>
      <trkpt lat="47.472792025655508" lon="9.729302991181612">
        <ele>410.13999999999999</ele>
        <time>2025-05-20T12:46:39Z</time>
      </trkpt>
      <trkpt lat="47.472815997898579" lon="9.729321012273431">
        <ele>410.13999999999999</ele>
        <time>2025-05-20T12:46:40Z</time>
      </trkpt>
      <trkpt lat="47.472834018990397" lon="9.729336015880108">
        <ele>410.13999999999999</ele>
        <time>2025-05-20T12:46:41Z</time>
      </trkpt>
      <trkpt lat="47.472834018990397" lon="9.729336015880108">
        <ele>410.62</ele>
        <time>2025-05-20T12:46:52Z</time>
      </trkpt>
      <trkpt lat="47.472954969853163" lon="9.729438023641706">
        <ele>413.5</ele>
        <time>2025-05-20T12:47:02Z</time>
      </trkpt>
      <trkpt lat="47.473084973171353" lon="9.729561991989613">
        <ele>413.5</ele>
        <time>2025-05-20T12:47:04Z</time>
      </trkpt>
      <trkpt lat="47.473703976720572" lon="9.73045801743865">
        <ele>414.47000000000003</ele>
        <time>2025-05-20T12:47:12Z</time>
      </trkpt>
      <trkpt lat="47.473800033330917" lon="9.730563964694738">
        <ele>414.47000000000003</ele>
        <time>2025-05-20T12:47:13Z</time>
      </trkpt>
      <trkpt lat="47.47389399446547" lon="9.73064904101193">
        <ele>414.47000000000003</ele>
        <time>2025-05-20T12:47:14Z</time>
      </trkpt>
      <trkpt lat="47.473997008055449" lon="9.730711989104748">
        <ele>413.5</ele>
        <time>2025-05-20T12:47:15Z</time>
      </trkpt>
      <trkpt lat="47.474099015817046" lon="9.730774015188217">
        <ele>413.01999999999998</ele>
        <time>2025-05-20T12:47:16Z</time>
      </trkpt>
      <trkpt lat="47.474400009959936" lon="9.730873005464673">
        <ele>411.10000000000002</ele>
        <time>2025-05-20T12:47:19Z</time>
      </trkpt>
      <trkpt lat="47.474594973027706" lon="9.730882979929447">
        <ele>410.13999999999999</ele>
        <time>2025-05-20T12:47:21Z</time>
      </trkpt>
      <trkpt lat="47.47526602819562" lon="9.730861019343138">
        <ele>411.57999999999998</ele>
        <time>2025-05-20T12:47:27Z</time>
      </trkpt>
      <trkpt lat="47.475380022078753" lon="9.730876022949815">
        <ele>412.06</ele>
        <time>2025-05-20T12:47:28Z</time>
      </trkpt>
      <trkpt lat="47.476007994264364" lon="9.731027986854315">
        <ele>415.43000000000001</ele>
        <time>2025-05-20T12:47:36Z</time>
      </trkpt>
      <trkpt lat="47.476142020896077" lon="9.731072997674346">
        <ele>419.26999999999998</ele>
        <time>2025-05-20T12:47:44Z</time>
      </trkpt>
      <trkpt lat="47.476308988407254" lon="9.731127982959151">
        <ele>421.68000000000001</ele>
        <time>2025-05-20T12:47:57Z</time>
      </trkpt>
      <trkpt lat="47.476735962554812" lon="9.731285981833935">
        <ele>423.60000000000002</ele>
        <time>2025-05-20T12:48:05Z</time>
      </trkpt>
      <trkpt lat="47.476847022771835" lon="9.731325963512063">
        <ele>423.60000000000002</ele>
        <time>2025-05-20T12:48:07Z</time>
      </trkpt>
      <trkpt lat="47.477551018819213" lon="9.731569960713387">
        <ele>424.07999999999998</ele>
        <time>2025-05-20T12:48:15Z</time>
      </trkpt>
      <trkpt lat="47.478489959612489" lon="9.731771964579821">
        <ele>424.07999999999998</ele>
        <time>2025-05-20T12:48:23Z</time>
      </trkpt>
      <trkpt lat="47.479726038873196" lon="9.731794008985162">
        <ele>424.56</ele>
        <time>2025-05-20T12:48:33Z</time>
      </trkpt>
      <trkpt lat="47.479850007221103" lon="9.731786968186498">
        <ele>424.56</ele>
        <time>2025-05-20T12:48:34Z</time>
      </trkpt>
      <trkpt lat="47.481072004884481" lon="9.731804989278317">
        <ele>421.68000000000001</ele>
        <time>2025-05-20T12:48:44Z</time>
      </trkpt>
      <trkpt lat="47.482060985639691" lon="9.731804989278317">
        <ele>419.75</ele>
        <time>2025-05-20T12:48:52Z</time>
      </trkpt>
      <trkpt lat="47.48278995975852" lon="9.731804989278317">
        <ele>418.31</ele>
        <time>2025-05-20T12:48:58Z</time>
      </trkpt>
      <trkpt lat="47.482912000268698" lon="9.731804989278317">
        <ele>417.82999999999998</ele>
        <time>2025-05-20T12:48:59Z</time>
      </trkpt>
      <trkpt lat="47.484498023986816" lon="9.731823010370135">
        <ele>414.94999999999999</ele>
        <time>2025-05-20T12:49:12Z</time>
      </trkpt>
      <trkpt lat="47.485691020265222" lon="9.73232701420784">
        <ele>416.38999999999999</ele>
        <time>2025-05-20T12:49:22Z</time>
      </trkpt>
      <trkpt lat="47.486693998798728" lon="9.732767986133695">
        <ele>414.94999999999999</ele>
        <time>2025-05-20T12:49:32Z</time>
      </trkpt>
      <trkpt lat="47.486786032095551" lon="9.732801010832191">
        <ele>414.94999999999999</ele>
        <time>2025-05-20T12:49:33Z</time>
      </trkpt>
      <trkpt lat="47.487548030912876" lon="9.732918022200465">
        <ele>417.82999999999998</ele>
        <time>2025-05-20T12:49:41Z</time>
      </trkpt>
      <trkpt lat="47.488982006907463" lon="9.733048025518656">
        <ele>423.12</ele>
        <time>2025-05-20T12:49:54Z</time>
      </trkpt>
      <trkpt lat="47.489968976005912" lon="9.733162019401789">
        <ele>425.04000000000002</ele>
        <time>2025-05-20T12:50:04Z</time>
      </trkpt>
      <trkpt lat="47.490839017555118" lon="9.733260003849864">
        <ele>428.39999999999998</ele>
        <time>2025-05-20T12:50:14Z</time>
      </trkpt>
      <trkpt lat="47.491090977564454" lon="9.73329596221447">
        <ele>429.37</ele>
        <time>2025-05-20T12:50:17Z</time>
      </trkpt>
      <trkpt lat="47.491158032789826" lon="9.733305014669895">
        <ele>429.85000000000002</ele>
        <time>2025-05-20T12:50:18Z</time>
      </trkpt>
      <trkpt lat="47.491920031607151" lon="9.733381038531661">
        <ele>431.76999999999998</ele>
        <time>2025-05-20T12:50:28Z</time>
      </trkpt>
      <trkpt lat="47.492208033800125" lon="9.733419008553028">
        <ele>433.20999999999998</ele>
        <time>2025-05-20T12:50:31Z</time>
      </trkpt>
      <trkpt lat="47.492310041561723" lon="9.733436023816466">
        <ele>433.69</ele>
        <time>2025-05-20T12:50:32Z</time>
      </trkpt>
      <trkpt lat="47.49241397716105" lon="9.733453961089253">
        <ele>434.64999999999998</ele>
        <time>2025-05-20T12:50:33Z</time>
      </trkpt>
      <trkpt lat="47.493361970409751" lon="9.733576001599431">
        <ele>439.45999999999998</ele>
        <time>2025-05-20T12:50:42Z</time>
      </trkpt>
      <trkpt lat="47.493474036455154" lon="9.733589999377728">
        <ele>439.94</ele>
        <time>2025-05-20T12:50:43Z</time>
      </trkpt>
      <trkpt lat="47.493780981749296" lon="9.733636016026139">
        <ele>440.89999999999998</ele>
        <time>2025-05-20T12:50:46Z</time>
      </trkpt>
      <trkpt lat="47.493859017267823" lon="9.733646996319294">
        <ele>441.38</ele>
        <time>2025-05-20T12:50:47Z</time>
      </trkpt>
      <trkpt lat="47.49428297393024" lon="9.733714973554015">
        <ele>441.38</ele>
        <time>2025-05-20T12:50:52Z</time>
      </trkpt>
      <trkpt lat="47.494339970871806" lon="9.733716985210776">
        <ele>441.38</ele>
        <time>2025-05-20T12:50:53Z</time>
      </trkpt>
      <trkpt lat="47.495525004342198" lon="9.733866015449166">
        <ele>442.81999999999999</ele>
        <time>2025-05-20T12:51:04Z</time>
      </trkpt>
      <trkpt lat="47.496215002611279" lon="9.734014961868525">
        <ele>440.42000000000002</ele>
        <time>2025-05-20T12:51:12Z</time>
      </trkpt>
      <trkpt lat="47.49625900760293" lon="9.734028959646821">
        <ele>440.42000000000002</ele>
        <time>2025-05-20T12:51:13Z</time>
      </trkpt>
      <trkpt lat="47.496298989281058" lon="9.734041029587388">
        <ele>439.94</ele>
        <time>2025-05-20T12:51:14Z</time>
      </trkpt>
      <trkpt lat="47.496458999812603" lon="9.73409098573029">
        <ele>438.98000000000002</ele>
        <time>2025-05-20T12:51:18Z</time>
      </trkpt>
      <trkpt lat="47.497090995311737" lon="9.734414024278522">
        <ele>438.01999999999998</ele>
        <time>2025-05-20T12:51:26Z</time>
      </trkpt>
      <trkpt lat="47.497842013835907" lon="9.734981982037425">
        <ele>437.06</ele>
        <time>2025-05-20T12:51:34Z</time>
      </trkpt>
      <trkpt lat="47.498893020674586" lon="9.736315961927176">
        <ele>436.57999999999998</ele>
        <time>2025-05-20T12:51:45Z</time>
      </trkpt>
      <trkpt lat="47.499543959274888" lon="9.737735018134117">
        <ele>430.81</ele>
        <time>2025-05-20T12:51:55Z</time>
      </trkpt>
      <trkpt lat="47.499669017270207" lon="9.738070964813232">
        <ele>428.88999999999999</ele>
        <time>2025-05-20T12:51:58Z</time>
      </trkpt>
      <trkpt lat="47.499822992831469" lon="9.738636994734407">
        <ele>427.44</ele>
        <time>2025-05-20T12:52:02Z</time>
      </trkpt>
      <trkpt lat="47.499860040843487" lon="9.73877496086061">
        <ele>427.44</ele>
        <time>2025-05-20T12:52:03Z</time>
      </trkpt>
      <trkpt lat="47.499937992542982" lon="9.739060029387474">
        <ele>427.44</ele>
        <time>2025-05-20T12:52:05Z</time>
      </trkpt>
      <trkpt lat="47.50012599863112" lon="9.739768970757723">
        <ele>426</ele>
        <time>2025-05-20T12:52:10Z</time>
      </trkpt>
      <trkpt lat="47.500162962824106" lon="9.739916995167732">
        <ele>426</ele>
        <time>2025-05-20T12:52:11Z</time>
      </trkpt>
      <trkpt lat="47.500200010836124" lon="9.740064013749361">
        <ele>425.51999999999998</ele>
        <time>2025-05-20T12:52:12Z</time>
      </trkpt>
      <trkpt lat="47.50038399361074" lon="9.740802040323615">
        <ele>422.63999999999999</ele>
        <time>2025-05-20T12:52:17Z</time>
      </trkpt>
      <trkpt lat="47.500456999987364" lon="9.741092976182699">
        <ele>420.70999999999998</ele>
        <time>2025-05-20T12:52:19Z</time>
      </trkpt>
      <trkpt lat="47.50049396418035" lon="9.741239994764328">
        <ele>420.23000000000002</ele>
        <time>2025-05-20T12:52:20Z</time>
      </trkpt>
      <trkpt lat="47.50066596083343" lon="9.741928987205029">
        <ele>418.31</ele>
        <time>2025-05-20T12:52:25Z</time>
      </trkpt>
      <trkpt lat="47.500698985531926" lon="9.74206100217998">
        <ele>417.82999999999998</ele>
        <time>2025-05-20T12:52:26Z</time>
      </trkpt>
      <trkpt lat="47.500734021887183" lon="9.742200979962945">
        <ele>417.35000000000002</ele>
        <time>2025-05-20T12:52:27Z</time>
      </trkpt>
      <trkpt lat="47.500767968595028" lon="9.7423380240798">
        <ele>416.87</ele>
        <time>2025-05-20T12:52:28Z</time>
      </trkpt>
      <trkpt lat="47.500804010778666" lon="9.742471966892481">
        <ele>416.38999999999999</ele>
        <time>2025-05-20T12:52:29Z</time>
      </trkpt>
      <trkpt lat="47.501130988821387" lon="9.743558010086417">
        <ele>410.62</ele>
        <time>2025-05-20T12:52:37Z</time>
      </trkpt>
      <trkpt lat="47.50122201628983" lon="9.743849029764533">
        <ele>409.66000000000003</ele>
        <time>2025-05-20T12:52:40Z</time>
      </trkpt>
      <trkpt lat="47.501427959650755" lon="9.744461998343468">
        <ele>403.88999999999999</ele>
        <time>2025-05-20T12:52:50Z</time>
      </trkpt>
      <trkpt lat="47.501511024311185" lon="9.744713958352804">
        <ele>400.52999999999997</ele>
        <time>2025-05-20T12:53:00Z</time>
      </trkpt>
      <trkpt lat="47.501654019579291" lon="9.745097011327744">
        <ele>398.12</ele>
        <time>2025-05-20T12:53:08Z</time>
      </trkpt>
      <trkpt lat="47.501668017357588" lon="9.745140010491014">
        <ele>397.63999999999999</ele>
        <time>2025-05-20T12:53:29Z</time>
      </trkpt>
      <trkpt lat="47.501703975722194" lon="9.745246963575482">
        <ele>397.16000000000003</ele>
        <time>2025-05-20T12:53:31Z</time>
      </trkpt>
      <trkpt lat="47.501729037612677" lon="9.745321981608868">
        <ele>397.16000000000003</ele>
        <time>2025-05-20T12:53:32Z</time>
      </trkpt>
      <trkpt lat="47.501792991533875" lon="9.74534603767097">
        <ele>397.16000000000003</ele>
        <time>2025-05-20T12:53:33Z</time>
      </trkpt>
      <trkpt lat="47.501842025667429" lon="9.745298009365797">
        <ele>397.63999999999999</ele>
        <time>2025-05-20T12:53:34Z</time>
      </trkpt>
      <trkpt lat="47.50188896432519" lon="9.745259033516049">
        <ele>397.63999999999999</ele>
        <time>2025-05-20T12:53:35Z</time>
      </trkpt>
      <trkpt lat="47.501944033429027" lon="9.745214022696018">
        <ele>398.12</ele>
        <time>2025-05-20T12:53:36Z</time>
      </trkpt>
      <trkpt lat="47.502006981521845" lon="9.745162976905704">
        <ele>398.12</ele>
        <time>2025-05-20T12:53:37Z</time>
      </trkpt>
      <trkpt lat="47.50231996178627" lon="9.744905987754464">
        <ele>396.68000000000001</ele>
        <time>2025-05-20T12:53:42Z</time>
      </trkpt>
      <trkpt lat="47.502376958727837" lon="9.744857037439942">
        <ele>396.19999999999999</ele>
        <time>2025-05-20T12:53:43Z</time>
      </trkpt>
      <trkpt lat="47.502688011154532" lon="9.744585966691375">
        <ele>393.31999999999999</ele>
        <time>2025-05-20T12:53:49Z</time>
      </trkpt>
      <trkpt lat="47.502731010317802" lon="9.744549002498388">
        <ele>392.83999999999997</ele>
        <time>2025-05-20T12:53:50Z</time>
      </trkpt>
      <trkpt lat="47.502765040844679" lon="9.744518995285034">
        <ele>392.83999999999997</ele>
        <time>2025-05-20T12:53:51Z</time>
      </trkpt>
      <trkpt lat="47.502861013635993" lon="9.744432996958494">
        <ele>391.87</ele>
        <time>2025-05-20T12:54:01Z</time>
      </trkpt>
      <trkpt lat="47.503110961988568" lon="9.744224958121777">
        <ele>392.36000000000001</ele>
        <time>2025-05-20T12:54:09Z</time>
      </trkpt>
      <trkpt lat="47.503337021917105" lon="9.744032006710768">
        <ele>392.83999999999997</ele>
        <time>2025-05-20T12:54:13Z</time>
      </trkpt>
      <trkpt lat="47.503466019406915" lon="9.743927987292409">
        <ele>393.31999999999999</ele>
        <time>2025-05-20T12:54:16Z</time>
      </trkpt>
      <trkpt lat="47.503513041883707" lon="9.743891023099423">
        <ele>393.31999999999999</ele>
        <time>2025-05-20T12:54:17Z</time>
      </trkpt>
      <trkpt lat="47.50356400385499" lon="9.743851963430643">
        <ele>393.31999999999999</ele>
        <time>2025-05-20T12:54:18Z</time>
      </trkpt>
      <trkpt lat="47.503687972202897" lon="9.743754984810948">
        <ele>393.31999999999999</ele>
        <time>2025-05-20T12:54:21Z</time>
      </trkpt>
      <trkpt lat="47.503716973587871" lon="9.743733024224639">
        <ele>393.80000000000001</ele>
        <time>2025-05-20T12:54:22Z</time>
      </trkpt>
      <trkpt lat="47.503891987726092" lon="9.743819022551179">
        <ele>394.27999999999997</ele>
        <time>2025-05-20T12:54:23Z</time>
      </trkpt>
      <trkpt lat="47.503929035738111" lon="9.743921030312777">
        <ele>394.27999999999997</ele>
        <time>2025-05-20T12:54:24Z</time>
      </trkpt>
      <trkpt lat="47.503965999931097" lon="9.744025971740484">
        <ele>394.75999999999999</ele>
        <time>2025-05-20T12:54:25Z</time>
      </trkpt>
      <trkpt lat="47.504951963201165" lon="9.747097017243505">
        <ele>402.44999999999999</ele>
        <time>2025-05-20T13:34:29Z</time>
      </trkpt>
      <trkpt lat="47.505009965971112" lon="9.746997021138668">
        <ele>400.05000000000001</ele>
        <time>2025-05-20T13:34:56Z</time>
      </trkpt>
      <trkpt lat="47.505011977627873" lon="9.747033985331655">
        <ele>401.97000000000003</ele>
        <time>2025-05-20T13:35:44Z</time>
      </trkpt>
      <trkpt lat="47.505011977627873" lon="9.747097017243505">
        <ele>409.66000000000003</ele>
        <time>2025-05-20T13:36:36Z</time>
      </trkpt>
      <trkpt lat="47.505011977627873" lon="9.747097017243505">
        <ele>409.66000000000003</ele>
        <time>2025-05-20T13:36:37Z</time>
      </trkpt>
      <trkpt lat="47.505143992602825" lon="9.747010013088584">
        <ele>409.18000000000001</ele>
        <time>2025-05-20T13:36:39Z</time>
      </trkpt>
      <trkpt lat="47.505178023129702" lon="9.747082013636828">
        <ele>408.69999999999999</ele>
        <time>2025-05-20T13:36:40Z</time>
      </trkpt>
      <trkpt lat="47.50539000146091" lon="9.747871002182365">
        <ele>404.37</ele>
        <time>2025-05-20T13:36:49Z</time>
      </trkpt>
      <trkpt lat="47.505421014502645" lon="9.747927999123931">
        <ele>403.88999999999999</ele>
        <time>2025-05-20T13:36:50Z</time>
      </trkpt>
      <trkpt lat="47.505451021715999" lon="9.747984996065497">
        <ele>402.93000000000001</ele>
        <time>2025-05-20T13:36:51Z</time>
      </trkpt>
      <trkpt lat="47.505853017792106" lon="9.748680023476481">
        <ele>397.16000000000003</ele>
        <time>2025-05-20T13:37:02Z</time>
      </trkpt>
      <trkpt lat="47.505866009742022" lon="9.74876300431788">
        <ele>396.68000000000001</ele>
        <time>2025-05-20T13:37:03Z</time>
      </trkpt>
      <trkpt lat="47.505877995863557" lon="9.748841961845756">
        <ele>396.19999999999999</ele>
        <time>2025-05-20T13:37:04Z</time>
      </trkpt>
      <trkpt lat="47.505891993641853" lon="9.748928966000676">
        <ele>395.72000000000003</ele>
        <time>2025-05-20T13:37:05Z</time>
      </trkpt>
      <trkpt lat="47.505891993641853" lon="9.748985040932894">
        <ele>395.72000000000003</ele>
        <time>2025-05-20T13:37:06Z</time>
      </trkpt>
      <trkpt lat="47.505891993641853" lon="9.74904103204608">
        <ele>395.24000000000001</ele>
        <time>2025-05-20T13:37:07Z</time>
      </trkpt>
      <trkpt lat="47.505838014185429" lon="9.749186038970947">
        <ele>395.72000000000003</ele>
        <time>2025-05-20T13:37:08Z</time>
      </trkpt>
      <trkpt lat="47.505785040557384" lon="9.749207999557257">
        <ele>396.19999999999999</ele>
        <time>2025-05-20T13:37:09Z</time>
      </trkpt>
      <trkpt lat="47.505779005587101" lon="9.749246975407004">
        <ele>396.68000000000001</ele>
        <time>2025-05-20T13:37:11Z</time>
      </trkpt>
      <trkpt lat="47.505774982273579" lon="9.749275976791978">
        <ele>397.16000000000003</ele>
        <time>2025-05-20T13:37:12Z</time>
      </trkpt>
      <trkpt lat="47.505768025293946" lon="9.749327022582293">
        <ele>398.12</ele>
        <time>2025-05-20T13:37:18Z</time>
      </trkpt>
      <trkpt lat="47.505784034729004" lon="9.749392988160253">
        <ele>399.07999999999998</ele>
        <time>2025-05-20T13:37:21Z</time>
      </trkpt>
      <trkpt lat="47.505804989486933" lon="9.74942802451551">
        <ele>399.07999999999998</ele>
        <time>2025-05-20T13:37:22Z</time>
      </trkpt>
      <trkpt lat="47.505828039720654" lon="9.749464988708496">
        <ele>399.07999999999998</ele>
        <time>2025-05-20T13:37:23Z</time>
      </trkpt>
      <trkpt lat="47.505975980311632" lon="9.749526008963585">
        <ele>398.60000000000002</ele>
        <time>2025-05-20T13:37:25Z</time>
      </trkpt>
      <trkpt lat="47.506452994421124" lon="9.750133026391268">
        <ele>397.63999999999999</ele>
        <time>2025-05-20T13:37:34Z</time>
      </trkpt>
      <trkpt lat="47.506709983572364" lon="9.75033100694418">
        <ele>397.16000000000003</ele>
        <time>2025-05-20T13:37:38Z</time>
      </trkpt>
      <trkpt lat="47.506777960807085" lon="9.750379035249353">
        <ele>397.16000000000003</ele>
        <time>2025-05-20T13:37:39Z</time>
      </trkpt>
      <trkpt lat="47.50684903934598" lon="9.750426979735494">
        <ele>396.68000000000001</ele>
        <time>2025-05-20T13:37:40Z</time>
      </trkpt>
      <trkpt lat="47.507317001000047" lon="9.750748006626964">
        <ele>397.16000000000003</ele>
        <time>2025-05-20T13:37:46Z</time>
      </trkpt>
      <trkpt lat="47.507398976013064" lon="9.75080500356853">
        <ele>397.63999999999999</ele>
        <time>2025-05-20T13:37:47Z</time>
      </trkpt>
      <trkpt lat="47.507485980167985" lon="9.750865017995238">
        <ele>398.12</ele>
        <time>2025-05-20T13:37:48Z</time>
      </trkpt>
      <trkpt lat="47.507577007636428" lon="9.750927966088057">
        <ele>398.12</ele>
        <time>2025-05-20T13:37:49Z</time>
      </trkpt>
      <trkpt lat="47.507673986256123" lon="9.750995021313429">
        <ele>398.12</ele>
        <time>2025-05-20T13:37:50Z</time>
      </trkpt>
      <trkpt lat="47.50874200835824" lon="9.751729024574161">
        <ele>399.07999999999998</ele>
        <time>2025-05-20T13:38:01Z</time>
      </trkpt>
      <trkpt lat="47.510096020996571" lon="9.752418017014861">
        <ele>398.12</ele>
        <time>2025-05-20T13:38:14Z</time>
      </trkpt>
      <trkpt lat="47.511420026421547" lon="9.752945993095636">
        <ele>397.63999999999999</ele>
        <time>2025-05-20T13:38:26Z</time>
      </trkpt>
      <trkpt lat="47.512323008850217" lon="9.75329602137208">
        <ele>398.12</ele>
        <time>2025-05-20T13:38:35Z</time>
      </trkpt>
      <trkpt lat="47.513306960463524" lon="9.75366298109293">
        <ele>399.07999999999998</ele>
        <time>2025-05-20T13:38:45Z</time>
      </trkpt>
      <trkpt lat="47.514515966176987" lon="9.754067994654179">
        <ele>399.07999999999998</ele>
        <time>2025-05-20T13:38:55Z</time>
      </trkpt>
      <trkpt lat="47.515718014910817" lon="9.754186011850834">
        <ele>399.56999999999999</ele>
        <time>2025-05-20T13:39:04Z</time>
      </trkpt>
      <trkpt lat="47.517031962051988" lon="9.753814022988081">
        <ele>401.00999999999999</ele>
        <time>2025-05-20T13:39:13Z</time>
      </trkpt>
      <trkpt lat="47.518707001581788" lon="9.752999972552061">
        <ele>401.00999999999999</ele>
        <time>2025-05-20T13:39:25Z</time>
      </trkpt>
      <trkpt lat="47.520025977864861" lon="9.752470990642905">
        <ele>399.07999999999998</ele>
        <time>2025-05-20T13:39:34Z</time>
      </trkpt>
      <trkpt lat="47.521191984415054" lon="9.752021972090006">
        <ele>400.05000000000001</ele>
        <time>2025-05-20T13:39:43Z</time>
      </trkpt>
      <trkpt lat="47.521836971864104" lon="9.751626010984182">
        <ele>399.07999999999998</ele>
        <time>2025-05-20T13:39:51Z</time>
      </trkpt>
      <trkpt lat="47.522639958187938" lon="9.751337002962828">
        <ele>400.52999999999997</ele>
        <time>2025-05-20T13:39:59Z</time>
      </trkpt>
      <trkpt lat="47.523964969441295" lon="9.751088982447982">
        <ele>401.00999999999999</ele>
        <time>2025-05-20T13:40:09Z</time>
      </trkpt>
      <trkpt lat="47.525420989841223" lon="9.750810032710433">
        <ele>402.93000000000001</ele>
        <time>2025-05-20T13:40:21Z</time>
      </trkpt>
      <trkpt lat="47.525640008971095" lon="9.750814978033304">
        <ele>402.93000000000001</ele>
        <time>2025-05-20T13:40:23Z</time>
      </trkpt>
      <trkpt lat="47.525731036439538" lon="9.75082796998322">
        <ele>402.93000000000001</ele>
        <time>2025-05-20T13:40:24Z</time>
      </trkpt>
      <trkpt lat="47.525834972038865" lon="9.750877004116774">
        <ele>402.93000000000001</ele>
        <time>2025-05-20T13:40:25Z</time>
      </trkpt>
      <trkpt lat="47.525914013385773" lon="9.750979011878371">
        <ele>402.93000000000001</ele>
        <time>2025-05-20T13:40:26Z</time>
      </trkpt>
      <trkpt lat="47.525990037247539" lon="9.751076996326447">
        <ele>402.93000000000001</ele>
        <time>2025-05-20T13:40:27Z</time>
      </trkpt>
      <trkpt lat="47.526062959805131" lon="9.75117196328938">
        <ele>402.93000000000001</ele>
        <time>2025-05-20T13:40:28Z</time>
      </trkpt>
      <trkpt lat="47.526132026687264" lon="9.751261984929442">
        <ele>402.93000000000001</ele>
        <time>2025-05-20T13:40:29Z</time>
      </trkpt>
      <trkpt lat="47.526215007528663" lon="9.751312024891377">
        <ele>402.44999999999999</ele>
        <time>2025-05-20T13:40:30Z</time>
      </trkpt>
      <trkpt lat="47.526300000026822" lon="9.75134395994246">
        <ele>402.44999999999999</ele>
        <time>2025-05-20T13:40:31Z</time>
      </trkpt>
      <trkpt lat="47.526380969211459" lon="9.751364998519421">
        <ele>401.97000000000003</ele>
        <time>2025-05-20T13:40:32Z</time>
      </trkpt>
      <trkpt lat="47.526463028043509" lon="9.75138695910573">
        <ele>401.49000000000001</ele>
        <time>2025-05-20T13:40:33Z</time>
      </trkpt>
      <trkpt lat="47.526698978617787" lon="9.751445967704058">
        <ele>401.00999999999999</ele>
        <time>2025-05-20T13:40:36Z</time>
      </trkpt>
      <trkpt lat="47.526862006634474" lon="9.751485027372837">
        <ele>400.52999999999997</ele>
        <time>2025-05-20T13:40:38Z</time>
      </trkpt>
      <trkpt lat="47.52694196999073" lon="9.751503970474005">
        <ele>400.52999999999997</ele>
        <time>2025-05-20T13:40:39Z</time>
      </trkpt>
      <trkpt lat="47.527179010212421" lon="9.751567002385855">
        <ele>401.00999999999999</ele>
        <time>2025-05-20T13:40:42Z</time>
      </trkpt>
      <trkpt lat="47.527241036295891" lon="9.751583011820912">
        <ele>401.00999999999999</ele>
        <time>2025-05-20T13:40:43Z</time>
      </trkpt>
      <trkpt lat="47.527295015752316" lon="9.751592986285687">
        <ele>401.00999999999999</ele>
        <time>2025-05-20T13:40:44Z</time>
      </trkpt>
      <trkpt lat="47.527330974116921" lon="9.751597009599209">
        <ele>401.00999999999999</ele>
        <time>2025-05-20T13:40:45Z</time>
      </trkpt>
      <trkpt lat="47.527342960238457" lon="9.751574965193868">
        <ele>403.41000000000003</ele>
        <time>2025-05-20T13:40:53Z</time>
      </trkpt>
      <trkpt lat="47.527342960238457" lon="9.751574965193868">
        <ele>403.41000000000003</ele>
        <time>2025-05-20T13:40:56Z</time>
      </trkpt>
      <trkpt lat="47.527404986321926" lon="9.751604972407222">
        <ele>404.85000000000002</ele>
        <time>2025-05-20T13:40:59Z</time>
      </trkpt>
      <trkpt lat="47.527463994920254" lon="9.751611007377505">
        <ele>405.32999999999998</ele>
        <time>2025-05-20T13:41:00Z</time>
      </trkpt>
      <trkpt lat="47.528213001787663" lon="9.751654006540775">
        <ele>407.74000000000001</ele>
        <time>2025-05-20T13:41:08Z</time>
      </trkpt>
      <trkpt lat="47.528416011482477" lon="9.751654006540775">
        <ele>407.74000000000001</ele>
        <time>2025-05-20T13:41:10Z</time>
      </trkpt>
      <trkpt lat="47.528746007010341" lon="9.751639002934098">
        <ele>409.66000000000003</ele>
        <time>2025-05-20T13:41:14Z</time>
      </trkpt>
      <trkpt lat="47.528884978964925" lon="9.751623999327421">
        <ele>411.57999999999998</ele>
        <time>2025-05-20T13:41:16Z</time>
      </trkpt>
      <trkpt lat="47.528966031968594" lon="9.751615030691028">
        <ele>412.06</ele>
        <time>2025-05-20T13:41:17Z</time>
      </trkpt>
      <trkpt lat="47.529053036123514" lon="9.751604972407222">
        <ele>413.01999999999998</ele>
        <time>2025-05-20T13:41:18Z</time>
      </trkpt>
      <trkpt lat="47.529816040769219" lon="9.751503970474005">
        <ele>417.35000000000002</ele>
        <time>2025-05-20T13:41:26Z</time>
      </trkpt>
      <trkpt lat="47.530164979398251" lon="9.751488966867328">
        <ele>416.38999999999999</ele>
        <time>2025-05-20T13:41:31Z</time>
      </trkpt>
      <trkpt lat="47.530434038490057" lon="9.751473963260651">
        <ele>414.94999999999999</ele>
        <time>2025-05-20T13:41:35Z</time>
      </trkpt>
      <trkpt lat="47.530511990189552" lon="9.75147002376616">
        <ele>414.47000000000003</ele>
        <time>2025-05-20T13:41:36Z</time>
      </trkpt>
      <trkpt lat="47.530583990737796" lon="9.751466000452638">
        <ele>413.98000000000002</ele>
        <time>2025-05-20T13:41:37Z</time>
      </trkpt>
      <trkpt lat="47.530648028478026" lon="9.751461977139115">
        <ele>413.98000000000002</ele>
        <time>2025-05-20T13:41:38Z</time>
      </trkpt>
      <trkpt lat="47.530713994055986" lon="9.751468012109399">
        <ele>413.98000000000002</ele>
        <time>2025-05-20T13:41:39Z</time>
      </trkpt>
      <trkpt lat="47.530947010964155" lon="9.751525009050965">
        <ele>413.01999999999998</ele>
        <time>2025-05-20T13:41:42Z</time>
      </trkpt>
      <trkpt lat="47.531033009290695" lon="9.751557027921081">
        <ele>412.54000000000002</ele>
        <time>2025-05-20T13:41:43Z</time>
      </trkpt>
      <trkpt lat="47.531126970425248" lon="9.751628022640944">
        <ele>413.01999999999998</ele>
        <time>2025-05-20T13:41:44Z</time>
      </trkpt>
      <trkpt lat="47.531209029257298" lon="9.751703962683678">
        <ele>413.5</ele>
        <time>2025-05-20T13:41:45Z</time>
      </trkpt>
      <trkpt lat="47.531292010098696" lon="9.751780992373824">
        <ele>413.98000000000002</ele>
        <time>2025-05-20T13:41:46Z</time>
      </trkpt>
      <trkpt lat="47.53173298202455" lon="9.752146024256945">
        <ele>417.82999999999998</ele>
        <time>2025-05-20T13:41:51Z</time>
      </trkpt>
      <trkpt lat="47.531813029199839" lon="9.752190029248595">
        <ele>419.26999999999998</ele>
        <time>2025-05-20T13:41:52Z</time>
      </trkpt>
      <trkpt lat="47.531906990334392" lon="9.752195980399847">
        <ele>420.23000000000002</ele>
        <time>2025-05-20T13:41:53Z</time>
      </trkpt>
      <trkpt lat="47.532356008887291" lon="9.752211989834905">
        <ele>424.56</ele>
        <time>2025-05-20T13:41:58Z</time>
      </trkpt>
      <trkpt lat="47.532528005540371" lon="9.752211989834905">
        <ele>425.51999999999998</ele>
        <time>2025-05-20T13:42:00Z</time>
      </trkpt>
      <trkpt lat="47.532614003866911" lon="9.752211989834905">
        <ele>426</ele>
        <time>2025-05-20T13:42:01Z</time>
      </trkpt>
      <trkpt lat="47.532715005800128" lon="9.752211989834905">
        <ele>426</ele>
        <time>2025-05-20T13:42:02Z</time>
      </trkpt>
      <trkpt lat="47.533817980438471" lon="9.752211989834905">
        <ele>427.44</ele>
        <time>2025-05-20T13:42:12Z</time>
      </trkpt>
      <trkpt lat="47.534033982083201" lon="9.752211989834905">
        <ele>427.44</ele>
        <time>2025-05-20T13:42:14Z</time>
      </trkpt>
      <trkpt lat="47.534140013158321" lon="9.752211989834905">
        <ele>427.92000000000002</ele>
        <time>2025-05-20T13:42:15Z</time>
      </trkpt>
      <trkpt lat="47.535092029720545" lon="9.752211989834905">
        <ele>426</ele>
        <time>2025-05-20T13:42:24Z</time>
      </trkpt>
      <trkpt lat="47.536445036530495" lon="9.752211989834905">
        <ele>420.23000000000002</ele>
        <time>2025-05-20T13:42:36Z</time>
      </trkpt>
      <trkpt lat="47.53757600672543" lon="9.752290025353432">
        <ele>420.70999999999998</ele>
        <time>2025-05-20T13:42:45Z</time>
      </trkpt>
      <trkpt lat="47.537978002801538" lon="9.752237973734736">
        <ele>420.70999999999998</ele>
        <time>2025-05-20T13:42:48Z</time>
      </trkpt>
      <trkpt lat="47.538850978016853" lon="9.751634979620576">
        <ele>422.16000000000003</ele>
        <time>2025-05-20T13:42:56Z</time>
      </trkpt>
      <trkpt lat="47.539779022336006" lon="9.750639041885734">
        <ele>424.56</ele>
        <time>2025-05-20T13:43:07Z</time>
      </trkpt>
      <trkpt lat="47.53995998762548" lon="9.750452963635325">
        <ele>425.51999999999998</ele>
        <time>2025-05-20T13:43:11Z</time>
      </trkpt>
      <trkpt lat="47.54030398093164" lon="9.750207960605621">
        <ele>425.51999999999998</ele>
        <time>2025-05-20T13:43:18Z</time>
      </trkpt>
      <trkpt lat="47.540545966476202" lon="9.750088015571237">
        <ele>425.51999999999998</ele>
        <time>2025-05-20T13:43:23Z</time>
      </trkpt>
      <trkpt lat="47.540596006438136" lon="9.750063037499785">
        <ele>425.51999999999998</ele>
        <time>2025-05-20T13:43:24Z</time>
      </trkpt>
      <trkpt lat="47.540803961455822" lon="9.750005034729838">
        <ele>425.04000000000002</ele>
        <time>2025-05-20T13:43:27Z</time>
      </trkpt>
      <trkpt lat="47.54099196754396" lon="9.749976033344865">
        <ele>425.04000000000002</ele>
        <time>2025-05-20T13:43:29Z</time>
      </trkpt>
      <trkpt lat="47.541117025539279" lon="9.749969998374581">
        <ele>425.04000000000002</ele>
        <time>2025-05-20T13:43:30Z</time>
      </trkpt>
      <trkpt lat="47.541244011372328" lon="9.749963963404298">
        <ele>425.04000000000002</ele>
        <time>2025-05-20T13:43:31Z</time>
      </trkpt>
      <trkpt lat="47.541703004390001" lon="9.750055996701121">
        <ele>425.04000000000002</ele>
        <time>2025-05-20T13:43:36Z</time>
      </trkpt>
      <trkpt lat="47.541748015210032" lon="9.750038981437683">
        <ele>425.51999999999998</ele>
        <time>2025-05-20T13:43:37Z</time>
      </trkpt>
      <trkpt lat="47.541811969131231" lon="9.749959018081427">
        <ele>425.51999999999998</ele>
        <time>2025-05-20T13:43:38Z</time>
      </trkpt>
      <trkpt lat="47.541827978566289" lon="9.749905038625002">
        <ele>426</ele>
        <time>2025-05-20T13:43:39Z</time>
      </trkpt>
      <trkpt lat="47.541864020749927" lon="9.749786015599966">
        <ele>426.48000000000002</ele>
        <time>2025-05-20T13:43:40Z</time>
      </trkpt>
      <trkpt lat="47.542211031541228" lon="9.748624032363296">
        <ele>426.95999999999998</ele>
        <time>2025-05-20T13:43:46Z</time>
      </trkpt>
      <trkpt lat="47.54286197014153" lon="9.746063025668263">
        <ele>416.87</ele>
        <time>2025-05-20T13:43:57Z</time>
      </trkpt>
      <trkpt lat="47.543404027819633" lon="9.744000993669033">
        <ele>409.66000000000003</ele>
        <time>2025-05-20T13:44:05Z</time>
      </trkpt>
      <trkpt lat="47.544009033590555" lon="9.742057984694839">
        <ele>410.62</ele>
        <time>2025-05-20T13:44:12Z</time>
      </trkpt>
      <trkpt lat="47.545055011287332" lon="9.739122977480292">
        <ele>410.62</ele>
        <time>2025-05-20T13:44:23Z</time>
      </trkpt>
      <trkpt lat="47.546257982030511" lon="9.737202012911439">
        <ele>410.13999999999999</ele>
        <time>2025-05-20T13:44:32Z</time>
      </trkpt>
      <trkpt lat="47.54812203347683" lon="9.735280964523554">
        <ele>410.13999999999999</ele>
        <time>2025-05-20T13:44:43Z</time>
      </trkpt>
      <trkpt lat="47.549528013914824" lon="9.734392985701561">
        <ele>409.66000000000003</ele>
        <time>2025-05-20T13:44:50Z</time>
      </trkpt>
      <trkpt lat="47.551231971010566" lon="9.73385302349925">
        <ele>411.57999999999998</ele>
        <time>2025-05-20T13:44:58Z</time>
      </trkpt>
      <trkpt lat="47.553244968876243" lon="9.733764007687569">
        <ele>416.38999999999999</ele>
        <time>2025-05-20T13:45:07Z</time>
      </trkpt>
      <trkpt lat="47.555345976725221" lon="9.734413018450141">
        <ele>421.68000000000001</ele>
        <time>2025-05-20T13:45:16Z</time>
      </trkpt>
      <trkpt lat="47.557289991527796" lon="9.73544399254024">
        <ele>428.39999999999998</ele>
        <time>2025-05-20T13:45:24Z</time>
      </trkpt>
      <trkpt lat="47.560012014582753" lon="9.736876962706447">
        <ele>438.98000000000002</ele>
        <time>2025-05-20T13:45:37Z</time>
      </trkpt>
      <trkpt lat="47.561474991962314" lon="9.737385995686054">
        <ele>443.79000000000002</ele>
        <time>2025-05-20T13:45:44Z</time>
      </trkpt>
      <trkpt lat="47.56376601755619" lon="9.737669974565506">
        <ele>453.39999999999998</ele>
        <time>2025-05-20T13:45:54Z</time>
      </trkpt>
      <trkpt lat="47.566161984577775" lon="9.737408040091395">
        <ele>463.00999999999999</ele>
        <time>2025-05-20T13:46:03Z</time>
      </trkpt>
      <trkpt lat="47.569218026474118" lon="9.736372958868742">
        <ele>474.55000000000001</ele>
        <time>2025-05-20T13:46:14Z</time>
      </trkpt>
      <trkpt lat="47.570617971941829" lon="9.735871972516179">
        <ele>482.24000000000001</ele>
        <time>2025-05-20T13:46:20Z</time>
      </trkpt>
      <trkpt lat="47.572341039776802" lon="9.735362017527223">
        <ele>487.52999999999997</ele>
        <time>2025-05-20T13:46:28Z</time>
      </trkpt>
      <trkpt lat="47.574027981609106" lon="9.735023975372315">
        <ele>491.85000000000002</ele>
        <time>2025-05-20T13:46:36Z</time>
      </trkpt>
      <trkpt lat="47.575845010578632" lon="9.734877962619066">
        <ele>494.74000000000001</ele>
        <time>2025-05-20T13:46:46Z</time>
      </trkpt>
      <trkpt lat="47.577317962422967" lon="9.734914004802704">
        <ele>497.62</ele>
        <time>2025-05-20T13:46:56Z</time>
      </trkpt>
      <trkpt lat="47.578994007781148" lon="9.735164036974311">
        <ele>499.06</ele>
        <time>2025-05-20T13:47:06Z</time>
      </trkpt>
      <trkpt lat="47.57921302691102" lon="9.735195972025394">
        <ele>499.54000000000002</ele>
        <time>2025-05-20T13:47:07Z</time>
      </trkpt>
      <trkpt lat="47.579416036605835" lon="9.735230002552271">
        <ele>500.01999999999998</ele>
        <time>2025-05-20T13:47:08Z</time>
      </trkpt>
      <trkpt lat="47.581320991739631" lon="9.735677009448409">
        <ele>501.94999999999999</ele>
        <time>2025-05-20T13:47:16Z</time>
      </trkpt>
      <trkpt lat="47.583601959049702" lon="9.73615100607276">
        <ele>502.91000000000003</ele>
        <time>2025-05-20T13:47:24Z</time>
      </trkpt>
      <trkpt lat="47.585690980777144" lon="9.736340017989278">
        <ele>502.43000000000001</ele>
        <time>2025-05-20T13:47:31Z</time>
      </trkpt>
      <trkpt lat="47.588654989376664" lon="9.736146982759237">
        <ele>502.91000000000003</ele>
        <time>2025-05-20T13:47:41Z</time>
      </trkpt>
      <trkpt lat="47.591810021549463" lon="9.735289011150599">
        <ele>506.26999999999998</ele>
        <time>2025-05-20T13:47:52Z</time>
      </trkpt>
      <trkpt lat="47.59492096491158" lon="9.733888981863856">
        <ele>508.19</ele>
        <time>2025-05-20T13:48:03Z</time>
      </trkpt>
      <trkpt lat="47.597480965778232" lon="9.732844009995461">
        <ele>508.19</ele>
        <time>2025-05-20T13:48:12Z</time>
      </trkpt>
      <trkpt lat="47.600108021870255" lon="9.732344029471278">
        <ele>509.16000000000003</ele>
        <time>2025-05-20T13:48:21Z</time>
      </trkpt>
      <trkpt lat="47.603335976600647" lon="9.732417035847902">
        <ele>513.48000000000002</ele>
        <time>2025-05-20T13:48:32Z</time>
      </trkpt>
      <trkpt lat="47.606266960501671" lon="9.732935037463903">
        <ele>519.25</ele>
        <time>2025-05-20T13:48:42Z</time>
      </trkpt>
      <trkpt lat="47.609769003465772" lon="9.733776999637485">
        <ele>528.86000000000001</ele>
        <time>2025-05-20T13:48:54Z</time>
      </trkpt>
      <trkpt lat="47.612952031195164" lon="9.734743013978005">
        <ele>533.19000000000005</ele>
        <time>2025-05-20T13:49:05Z</time>
      </trkpt>
      <trkpt lat="47.61610496789217" lon="9.735882030799985">
        <ele>536.07000000000005</ele>
        <time>2025-05-20T13:49:16Z</time>
      </trkpt>
      <trkpt lat="47.618393981829286" lon="9.736822983250022">
        <ele>537.02999999999997</ele>
        <time>2025-05-20T13:49:24Z</time>
      </trkpt>
      <trkpt lat="47.62123997323215" lon="9.738139025866985">
        <ele>535.59000000000003</ele>
        <time>2025-05-20T13:49:34Z</time>
      </trkpt>
      <trkpt lat="47.625244008377194" lon="9.739780034869909">
        <ele>534.14999999999998</ele>
        <time>2025-05-20T13:49:48Z</time>
      </trkpt>
      <trkpt lat="47.628158982843161" lon="9.74034103564918">
        <ele>539.44000000000005</ele>
        <time>2025-05-20T13:49:58Z</time>
      </trkpt>
      <trkpt lat="47.63200200162828" lon="9.740563994273543">
        <ele>545.20000000000005</ele>
        <time>2025-05-20T13:50:11Z</time>
      </trkpt>
      <trkpt lat="47.634611036628485" lon="9.741205964237452">
        <ele>547.61000000000001</ele>
        <time>2025-05-20T13:50:20Z</time>
      </trkpt>
      <trkpt lat="47.637147987261415" lon="9.742384040728211">
        <ele>549.52999999999997</ele>
        <time>2025-05-20T13:50:29Z</time>
      </trkpt>
      <trkpt lat="47.640366973355412" lon="9.744636006653309">
        <ele>550.00999999999999</ele>
        <time>2025-05-20T13:50:41Z</time>
      </trkpt>
      <trkpt lat="47.642375025898218" lon="9.746468039229512">
        <ele>547.13</ele>
        <time>2025-05-20T13:50:49Z</time>
      </trkpt>
      <trkpt lat="47.644962016493082" lon="9.749373039230704">
        <ele>542.32000000000005</ele>
        <time>2025-05-20T13:51:00Z</time>
      </trkpt>
      <trkpt lat="47.647483041509986" lon="9.753049006685615">
        <ele>541.36000000000001</ele>
        <time>2025-05-20T13:51:12Z</time>
      </trkpt>
      <trkpt lat="47.649737019091845" lon="9.757098974660039">
        <ele>545.20000000000005</ele>
        <time>2025-05-20T13:51:24Z</time>
      </trkpt>
      <trkpt lat="47.652128962799907" lon="9.761531995609403">
        <ele>549.52999999999997</ele>
        <time>2025-05-20T13:51:37Z</time>
      </trkpt>
      <trkpt lat="47.654846962541342" lon="9.76616601459682">
        <ele>553.86000000000001</ele>
        <time>2025-05-20T13:51:51Z</time>
      </trkpt>
      <trkpt lat="47.657589018344879" lon="9.770133001729846">
        <ele>557.70000000000005</ele>
        <time>2025-05-20T13:52:04Z</time>
      </trkpt>
      <trkpt lat="47.660550009459257" lon="9.773720959201455">
        <ele>556.25999999999999</ele>
        <time>2025-05-20T13:52:17Z</time>
      </trkpt>
      <trkpt lat="47.6632019598037" lon="9.776466032490134">
        <ele>551.45000000000005</ele>
        <time>2025-05-20T13:52:28Z</time>
      </trkpt>
      <trkpt lat="47.665715022012591" lon="9.778662007302046">
        <ele>546.64999999999998</ele>
        <time>2025-05-20T13:52:38Z</time>
      </trkpt>
      <trkpt lat="47.669112039729953" lon="9.781212033703923">
        <ele>547.13</ele>
        <time>2025-05-20T13:52:51Z</time>
      </trkpt>
      <trkpt lat="47.672122986987233" lon="9.782901993021369">
        <ele>552.89999999999998</ele>
        <time>2025-05-20T13:53:02Z</time>
      </trkpt>
      <trkpt lat="47.674691034480929" lon="9.783824002370238">
        <ele>559.62</ele>
        <time>2025-05-20T13:53:11Z</time>
      </trkpt>
      <trkpt lat="47.677872972562909" lon="9.784438982605934">
        <ele>567.32000000000005</ele>
        <time>2025-05-20T13:53:22Z</time>
      </trkpt>
      <trkpt lat="47.680785013362765" lon="9.784867968410254">
        <ele>575.97000000000003</ele>
        <time>2025-05-20T13:53:32Z</time>
      </trkpt>
      <trkpt lat="47.683970974758267" lon="9.785670032724738">
        <ele>579.33000000000004</ele>
        <time>2025-05-20T13:53:43Z</time>
      </trkpt>
      <trkpt lat="47.687068004161119" lon="9.787113983184099">
        <ele>578.85000000000002</ele>
        <time>2025-05-20T13:53:54Z</time>
      </trkpt>
      <trkpt lat="47.689204970374703" lon="9.788561034947634">
        <ele>576.45000000000005</ele>
        <time>2025-05-20T13:54:02Z</time>
      </trkpt>
      <trkpt lat="47.692801980301738" lon="9.791496964171529">
        <ele>569.24000000000001</ele>
        <time>2025-05-20T13:54:16Z</time>
      </trkpt>
      <trkpt lat="47.695481004193425" lon="9.79323897510767">
        <ele>563.47000000000003</ele>
        <time>2025-05-20T13:54:26Z</time>
      </trkpt>
      <trkpt lat="47.698516007512808" lon="9.794840002432466">
        <ele>556.25999999999999</ele>
        <time>2025-05-20T13:54:37Z</time>
      </trkpt>
      <trkpt lat="47.701156977564096" lon="9.796699024736881">
        <ele>555.77999999999997</ele>
        <time>2025-05-20T13:54:47Z</time>
      </trkpt>
      <trkpt lat="47.70335697568953" lon="9.798862980678678">
        <ele>559.13999999999999</ele>
        <time>2025-05-20T13:54:56Z</time>
      </trkpt>
      <trkpt lat="47.704909974709153" lon="9.800838008522987">
        <ele>561.54999999999995</ele>
        <time>2025-05-20T13:55:03Z</time>
      </trkpt>
      <trkpt lat="47.706911992281675" lon="9.804010977968574">
        <ele>564.42999999999995</ele>
        <time>2025-05-20T13:55:13Z</time>
      </trkpt>
      <trkpt lat="47.708570016548038" lon="9.807635983452201">
        <ele>565.87</ele>
        <time>2025-05-20T13:55:23Z</time>
      </trkpt>
      <trkpt lat="47.709846999496222" lon="9.81145896948874">
        <ele>572.60000000000002</ele>
        <time>2025-05-20T13:55:33Z</time>
      </trkpt>
      <trkpt lat="47.71065903827548" lon="9.81513200327754">
        <ele>581.73000000000002</ele>
        <time>2025-05-20T13:55:44Z</time>
      </trkpt>
      <trkpt lat="47.710881996899843" lon="9.816668992862105">
        <ele>584.62</ele>
        <time>2025-05-20T13:55:48Z</time>
      </trkpt>
      <trkpt lat="47.711488008499146" lon="9.821522030979395">
        <ele>585.10000000000002</ele>
        <time>2025-05-20T13:56:02Z</time>
      </trkpt>
      <trkpt lat="47.712027970701456" lon="9.825508967041969">
        <ele>590.38999999999999</ele>
        <time>2025-05-20T13:56:12Z</time>
      </trkpt>
      <trkpt lat="47.712276997044683" lon="9.826772036030889">
        <ele>592.30999999999995</ele>
        <time>2025-05-20T13:56:15Z</time>
      </trkpt>
      <trkpt lat="47.713348036631942" lon="9.830842036753893">
        <ele>598.08000000000004</ele>
        <time>2025-05-20T13:56:25Z</time>
      </trkpt>
      <trkpt lat="47.714252024888992" lon="9.833295000717044">
        <ele>599.51999999999998</ele>
        <time>2025-05-20T13:56:32Z</time>
      </trkpt>
      <trkpt lat="47.715055011212826" lon="9.835301963612437">
        <ele>600.48000000000002</ele>
        <time>2025-05-20T13:56:39Z</time>
      </trkpt>
      <trkpt lat="47.716517988592386" lon="9.838879024609923">
        <ele>596.63999999999999</ele>
        <time>2025-05-20T13:56:50Z</time>
      </trkpt>
      <trkpt lat="47.718131002038717" lon="9.84321397729218">
        <ele>586.53999999999996</ele>
        <time>2025-05-20T13:57:04Z</time>
      </trkpt>
      <trkpt lat="47.718923008069396" lon="9.84643598087132">
        <ele>582.22000000000003</ele>
        <time>2025-05-20T13:57:14Z</time>
      </trkpt>
      <trkpt lat="47.71918997168541" lon="9.848289974033833">
        <ele>581.25</ele>
        <time>2025-05-20T13:57:20Z</time>
      </trkpt>
      <trkpt lat="47.719330033287406" lon="9.850677978247404">
        <ele>580.28999999999996</ele>
        <time>2025-05-20T13:57:26Z</time>
      </trkpt>
      <trkpt lat="47.719420976936817" lon="9.853512989357114">
        <ele>582.70000000000005</ele>
        <time>2025-05-20T13:57:33Z</time>
      </trkpt>
      <trkpt lat="47.719722976908088" lon="9.857376962900162">
        <ele>585.58000000000004</ele>
        <time>2025-05-20T13:57:42Z</time>
      </trkpt>
      <trkpt lat="47.720551025122404" lon="9.861111016944051">
        <ele>587.01999999999998</ele>
        <time>2025-05-20T13:57:51Z</time>
      </trkpt>
      <trkpt lat="47.722051972523332" lon="9.865373969078064">
        <ele>587.5</ele>
        <time>2025-05-20T13:58:02Z</time>
      </trkpt>
      <trkpt lat="47.723985007032752" lon="9.869220005348325">
        <ele>586.05999999999995</ele>
        <time>2025-05-20T13:58:13Z</time>
      </trkpt>
      <trkpt lat="47.726071011275053" lon="9.872298007830977">
        <ele>588.95000000000005</ele>
        <time>2025-05-20T13:58:23Z</time>
      </trkpt>
      <trkpt lat="47.729003001004457" lon="9.875936005264521">
        <ele>592.78999999999996</ele>
        <time>2025-05-20T13:58:36Z</time>
      </trkpt>
      <trkpt lat="47.731806999072433" lon="9.879835015162826">
        <ele>596.63999999999999</ele>
        <time>2025-05-20T13:58:49Z</time>
      </trkpt>
      <trkpt lat="47.734150998294353" lon="9.883781969547272">
        <ele>600.48000000000002</ele>
        <time>2025-05-20T13:59:01Z</time>
      </trkpt>
      <trkpt lat="47.736247982829809" lon="9.887400018051267">
        <ele>606.25</ele>
        <time>2025-05-20T13:59:12Z</time>
      </trkpt>
      <trkpt lat="47.738216975703835" lon="9.890383975580335">
        <ele>616.34000000000003</ele>
        <time>2025-05-20T13:59:22Z</time>
      </trkpt>
      <trkpt lat="47.739637037739158" lon="9.892221037298441">
        <ele>626.44000000000005</ele>
        <time>2025-05-20T13:59:30Z</time>
      </trkpt>
      <trkpt lat="47.741096997633576" lon="9.893904039636254">
        <ele>635.09000000000003</ele>
        <time>2025-05-20T13:59:39Z</time>
      </trkpt>
      <trkpt lat="47.742999019101262" lon="9.895805977284908">
        <ele>645.17999999999995</ele>
        <time>2025-05-20T13:59:48Z</time>
      </trkpt>
      <trkpt lat="47.745901001617312" lon="9.898799993097782">
        <ele>653.35000000000002</ele>
        <time>2025-05-20T14:00:00Z</time>
      </trkpt>
      <trkpt lat="47.748098988085985" lon="9.901512041687965">
        <ele>656.72000000000003</ele>
        <time>2025-05-20T14:00:10Z</time>
      </trkpt>
      <trkpt lat="47.751070037484169" lon="9.905081978067756">
        <ele>654.79999999999995</ele>
        <time>2025-05-20T14:00:23Z</time>
      </trkpt>
      <trkpt lat="47.753219995647669" lon="9.907210981473327">
        <ele>657.67999999999995</ele>
        <time>2025-05-20T14:00:32Z</time>
      </trkpt>
      <trkpt lat="47.755871023982763" lon="9.909497983753681">
        <ele>658.63999999999999</ele>
        <time>2025-05-20T14:00:43Z</time>
      </trkpt>
      <trkpt lat="47.758487015962601" lon="9.912110958248377">
        <ele>660.08000000000004</ele>
        <time>2025-05-20T14:00:54Z</time>
      </trkpt>
      <trkpt lat="47.760558016598225" lon="9.914709012955427">
        <ele>661.51999999999998</ele>
        <time>2025-05-20T14:01:03Z</time>
      </trkpt>
      <trkpt lat="47.76284703053534" lon="9.917951971292496">
        <ele>664.88999999999999</ele>
        <time>2025-05-20T14:01:14Z</time>
      </trkpt>
      <trkpt lat="47.766029974445701" lon="9.922483982518315">
        <ele>671.13999999999999</ele>
        <time>2025-05-20T14:01:29Z</time>
      </trkpt>
      <trkpt lat="47.7681540325284" lon="9.92552300915122">
        <ele>674.01999999999998</ele>
        <time>2025-05-20T14:01:39Z</time>
      </trkpt>
      <trkpt lat="47.771651968359947" lon="9.930857000872493">
        <ele>673.05999999999995</ele>
        <time>2025-05-20T14:01:56Z</time>
      </trkpt>
      <trkpt lat="47.773894965648651" lon="9.93488802574575">
        <ele>668.73000000000002</ele>
        <time>2025-05-20T14:02:08Z</time>
      </trkpt>
      <trkpt lat="47.775424998253584" lon="9.938560975715518">
        <ele>670.17999999999995</ele>
        <time>2025-05-20T14:02:18Z</time>
      </trkpt>
      <trkpt lat="47.776270983740687" lon="9.941805023699999">
        <ele>673.05999999999995</ele>
        <time>2025-05-20T14:02:26Z</time>
      </trkpt>
      <trkpt lat="47.777468003332615" lon="9.947141027078033">
        <ele>679.30999999999995</ele>
        <time>2025-05-20T14:02:39Z</time>
      </trkpt>
      <trkpt lat="47.778753032907844" lon="9.951501041650772">
        <ele>683.63</ele>
        <time>2025-05-20T14:02:50Z</time>
      </trkpt>
      <trkpt lat="47.780088018625975" lon="9.954908033832908">
        <ele>685.08000000000004</ele>
        <time>2025-05-20T14:02:59Z</time>
      </trkpt>
      <trkpt lat="47.781919967383146" lon="9.958282001316547">
        <ele>687.96000000000004</ele>
        <time>2025-05-20T14:03:09Z</time>
      </trkpt>
      <trkpt lat="47.784089036285877" lon="9.961205022409558">
        <ele>691.80999999999995</ele>
        <time>2025-05-20T14:03:19Z</time>
      </trkpt>
      <trkpt lat="47.786280987784266" lon="9.96333796530962">
        <ele>695.16999999999996</ele>
        <time>2025-05-20T14:03:28Z</time>
      </trkpt>
      <trkpt lat="47.787614967674017" lon="9.964309008792043">
        <ele>698.04999999999995</ele>
        <time>2025-05-20T14:03:33Z</time>
      </trkpt>
      <trkpt lat="47.790596997365355" lon="9.966068034991622">
        <ele>702.38</ele>
        <time>2025-05-20T14:03:44Z</time>
      </trkpt>
      <trkpt lat="47.792695993557572" lon="9.967597983777523">
        <ele>704.77999999999997</ele>
        <time>2025-05-20T14:03:52Z</time>
      </trkpt>
      <trkpt lat="47.79455803334713" lon="9.969710977748036">
        <ele>706.71000000000004</ele>
        <time>2025-05-20T14:04:00Z</time>
      </trkpt>
      <trkpt lat="47.79625503346324" lon="9.972709016874433">
        <ele>708.63</ele>
        <time>2025-05-20T14:04:09Z</time>
      </trkpt>
      <trkpt lat="47.797728991135955" lon="9.976462014019489">
        <ele>707.66999999999996</ele>
        <time>2025-05-20T14:04:19Z</time>
      </trkpt>
      <trkpt lat="47.799313003197312" lon="9.980103028938174">
        <ele>703.34000000000003</ele>
        <time>2025-05-20T14:04:29Z</time>
      </trkpt>
      <trkpt lat="47.801276966929436" lon="9.983324026688933">
        <ele>699.01999999999998</ele>
        <time>2025-05-20T14:04:39Z</time>
      </trkpt>
      <trkpt lat="47.803807966411114" lon="9.986274959519506">
        <ele>693.73000000000002</ele>
        <time>2025-05-20T14:04:50Z</time>
      </trkpt>
      <trkpt lat="47.806394034996629" lon="9.988316036760807">
        <ele>687.96000000000004</ele>
        <time>2025-05-20T14:05:00Z</time>
      </trkpt>
      <trkpt lat="47.809441024437547" lon="9.989839028567076">
        <ele>680.75</ele>
        <time>2025-05-20T14:05:11Z</time>
      </trkpt>
      <trkpt lat="47.812042012810707" lon="9.990483010187745">
        <ele>674.98000000000002</ele>
        <time>2025-05-20T14:05:20Z</time>
      </trkpt>
      <trkpt lat="47.815533997491002" lon="9.991007968783379">
        <ele>665.85000000000002</ele>
        <time>2025-05-20T14:05:33Z</time>
      </trkpt>
      <trkpt lat="47.819012990221381" lon="9.991363026201725">
        <ele>655.75999999999999</ele>
        <time>2025-05-20T14:05:44Z</time>
      </trkpt>
      <trkpt lat="47.822228036820889" lon="9.991581961512566">
        <ele>646.13999999999999</ele>
        <time>2025-05-20T14:05:55Z</time>
      </trkpt>
      <trkpt lat="47.82631304115057" lon="9.991692015901208">
        <ele>638.92999999999995</ele>
        <time>2025-05-20T14:06:09Z</time>
      </trkpt>
      <trkpt lat="47.829842995852232" lon="9.991639964282513">
        <ele>641.34000000000003</ele>
        <time>2025-05-20T14:06:21Z</time>
      </trkpt>
      <trkpt lat="47.833916014060378" lon="9.991423962637782">
        <ele>640.38</ele>
        <time>2025-05-20T14:06:35Z</time>
      </trkpt>
      <trkpt lat="47.837127959355712" lon="9.991141995415092">
        <ele>635.09000000000003</ele>
        <time>2025-05-20T14:06:46Z</time>
      </trkpt>
      <trkpt lat="47.84066897816956" lon="9.990821974352002">
        <ele>635.57000000000005</ele>
        <time>2025-05-20T14:06:58Z</time>
      </trkpt>
      <trkpt lat="47.84479396417737" lon="9.99068601988256">
        <ele>635.57000000000005</ele>
        <time>2025-05-20T14:07:12Z</time>
      </trkpt>
      <trkpt lat="47.847098987549543" lon="9.991251965984702">
        <ele>634.13</ele>
        <time>2025-05-20T14:07:20Z</time>
      </trkpt>
      <trkpt lat="47.849026992917061" lon="9.992327028885484">
        <ele>633.16999999999996</ele>
        <time>2025-05-20T14:07:27Z</time>
      </trkpt>
      <trkpt lat="47.851010989397764" lon="9.994245981797576">
        <ele>633.64999999999998</ele>
        <time>2025-05-20T14:07:35Z</time>
      </trkpt>
      <trkpt lat="47.852679993957281" lon="9.996717972680926">
        <ele>634.61000000000001</ele>
        <time>2025-05-20T14:07:43Z</time>
      </trkpt>
      <trkpt lat="47.854514038190246" lon="10.000165030360222">
        <ele>633.64999999999998</ele>
        <time>2025-05-20T14:07:53Z</time>
      </trkpt>
      <trkpt lat="47.85671797581017" lon="10.003710994496942">
        <ele>633.16999999999996</ele>
        <time>2025-05-20T14:08:04Z</time>
      </trkpt>
      <trkpt lat="47.858406007289886" lon="10.005459962412715">
        <ele>633.16999999999996</ele>
        <time>2025-05-20T14:08:11Z</time>
      </trkpt>
      <trkpt lat="47.861918024718761" lon="10.008694035932422">
        <ele>630.75999999999999</ele>
        <time>2025-05-20T14:08:25Z</time>
      </trkpt>
      <trkpt lat="47.863673027604818" lon="10.011039962992072">
        <ele>629.32000000000005</ele>
        <time>2025-05-20T14:08:33Z</time>
      </trkpt>
      <trkpt lat="47.865284029394388" lon="10.014187032356858">
        <ele>631.72000000000003</ele>
        <time>2025-05-20T14:08:42Z</time>
      </trkpt>
      <trkpt lat="47.867138022556901" lon="10.018172040581703">
        <ele>639.88999999999999</ele>
        <time>2025-05-20T14:08:53Z</time>
      </trkpt>
      <trkpt lat="47.869142973795533" lon="10.021414998918772">
        <ele>639.88999999999999</ele>
        <time>2025-05-20T14:09:03Z</time>
      </trkpt>
      <trkpt lat="47.870333036407828" lon="10.023895958438516">
        <ele>639.88999999999999</ele>
        <time>2025-05-20T14:09:10Z</time>
      </trkpt>
      <trkpt lat="47.871369961649179" lon="10.026532988995314">
        <ele>641.34000000000003</ele>
        <time>2025-05-20T14:09:17Z</time>
      </trkpt>
      <trkpt lat="47.872803015634418" lon="10.02931703813374">
        <ele>645.17999999999995</ele>
        <time>2025-05-20T14:09:25Z</time>
      </trkpt>
      <trkpt lat="47.874735966324806" lon="10.03204501233995">
        <ele>645.65999999999997</ele>
        <time>2025-05-20T14:09:34Z</time>
      </trkpt>
      <trkpt lat="47.877853028476238" lon="10.035405987873673">
        <ele>643.25999999999999</ele>
        <time>2025-05-20T14:09:47Z</time>
      </trkpt>
      <trkpt lat="47.880677981302142" lon="10.037781000137329">
        <ele>639.88999999999999</ele>
        <time>2025-05-20T14:09:58Z</time>
      </trkpt>
      <trkpt lat="47.883876012638211" lon="10.040064984932542">
        <ele>640.38</ele>
        <time>2025-05-20T14:10:10Z</time>
      </trkpt>
      <trkpt lat="47.886825017631054" lon="10.042063985019922">
        <ele>645.17999999999995</ele>
        <time>2025-05-20T14:10:21Z</time>
      </trkpt>
      <trkpt lat="47.890570973977447" lon="10.044633038341999">
        <ele>652.87</ele>
        <time>2025-05-20T14:10:35Z</time>
      </trkpt>
      <trkpt lat="47.892892006784678" lon="10.046605970710516">
        <ele>654.30999999999995</ele>
        <time>2025-05-20T14:10:44Z</time>
      </trkpt>
      <trkpt lat="47.894490016624331" lon="10.048554008826613">
        <ele>654.30999999999995</ele>
        <time>2025-05-20T14:10:51Z</time>
      </trkpt>
      <trkpt lat="47.896021977066994" lon="10.051258010789752">
        <ele>652.38999999999999</ele>
        <time>2025-05-20T14:10:59Z</time>
      </trkpt>
      <trkpt lat="47.897516973316669" lon="10.055059036239982">
        <ele>645.65999999999997</ele>
        <time>2025-05-20T14:11:09Z</time>
      </trkpt>
      <trkpt lat="47.899113977327943" lon="10.058714970946312">
        <ele>636.52999999999997</ele>
        <time>2025-05-20T14:11:19Z</time>
      </trkpt>
      <trkpt lat="47.900884989649057" lon="10.06152399815619">
        <ele>627.88</ele>
        <time>2025-05-20T14:11:28Z</time>
      </trkpt>
      <trkpt lat="47.901130998507142" lon="10.061800014227629">
        <ele>627.39999999999998</ele>
        <time>2025-05-20T14:11:29Z</time>
      </trkpt>
      <trkpt lat="47.902379985898733" lon="10.063185961917043">
        <ele>624.50999999999999</ele>
        <time>2025-05-20T14:11:34Z</time>
      </trkpt>
      <trkpt lat="47.904556011781096" lon="10.064877010881901">
        <ele>622.59000000000003</ele>
        <time>2025-05-20T14:11:43Z</time>
      </trkpt>
      <trkpt lat="47.906699012964964" lon="10.06592801772058">
        <ele>620.19000000000005</ele>
        <time>2025-05-20T14:11:51Z</time>
      </trkpt>
      <trkpt lat="47.908478993922472" lon="10.066539980471134">
        <ele>618.25999999999999</ele>
        <time>2025-05-20T14:11:58Z</time>
      </trkpt>
      <trkpt lat="47.911113006994128" lon="10.067507000640035">
        <ele>616.34000000000003</ele>
        <time>2025-05-20T14:12:09Z</time>
      </trkpt>
      <trkpt lat="47.913448959589005" lon="10.068863024935126">
        <ele>614.89999999999998</ele>
        <time>2025-05-20T14:12:20Z</time>
      </trkpt>
      <trkpt lat="47.915373025462031" lon="10.070412000641227">
        <ele>613.94000000000005</ele>
        <time>2025-05-20T14:12:30Z</time>
      </trkpt>
      <trkpt lat="47.917617028579116" lon="10.072945011779666">
        <ele>614.89999999999998</ele>
        <time>2025-05-20T14:12:43Z</time>
      </trkpt>
      <trkpt lat="47.919653998687863" lon="10.075846994295716">
        <ele>614.89999999999998</ele>
        <time>2025-05-20T14:12:56Z</time>
      </trkpt>
      <trkpt lat="47.921454012393951" lon="10.078642023727298">
        <ele>614.41999999999996</ele>
        <time>2025-05-20T14:13:09Z</time>
      </trkpt>
      <trkpt lat="47.923543034121394" lon="10.081948013976216">
        <ele>612.5</ele>
        <time>2025-05-20T14:13:23Z</time>
      </trkpt>
      <trkpt lat="47.925121011212468" lon="10.084429979324341">
        <ele>609.13</ele>
        <time>2025-05-20T14:13:33Z</time>
      </trkpt>
      <trkpt lat="47.926739975810051" lon="10.086967013776302">
        <ele>607.21000000000004</ele>
        <time>2025-05-20T14:13:41Z</time>
      </trkpt>
      <trkpt lat="47.928980961441994" lon="10.090470984578133">
        <ele>604.80999999999995</ele>
        <time>2025-05-20T14:13:52Z</time>
      </trkpt>
      <trkpt lat="47.931354967877269" lon="10.093788038939238">
        <ele>603.85000000000002</ele>
        <time>2025-05-20T14:14:03Z</time>
      </trkpt>
      <trkpt lat="47.933792006224394" lon="10.096245026215911">
        <ele>603.36000000000001</ele>
        <time>2025-05-20T14:14:13Z</time>
      </trkpt>
      <trkpt lat="47.935643987730145" lon="10.097579006105661">
        <ele>604.33000000000004</ele>
        <time>2025-05-20T14:14:20Z</time>
      </trkpt>
      <trkpt lat="47.93844798579812" lon="10.098970988765359">
        <ele>603.85000000000002</ele>
        <time>2025-05-20T14:14:30Z</time>
      </trkpt>
      <trkpt lat="47.941016033291817" lon="10.100023001432419">
        <ele>600.48000000000002</ele>
        <time>2025-05-20T14:14:39Z</time>
      </trkpt>
      <trkpt lat="47.943513002246618" lon="10.101389000192285">
        <ele>597.60000000000002</ele>
        <time>2025-05-20T14:14:48Z</time>
      </trkpt>
      <trkpt lat="47.946487991139293" lon="10.103338966146111">
        <ele>595.19000000000005</ele>
        <time>2025-05-20T14:14:59Z</time>
      </trkpt>
      <trkpt lat="47.948700981214643" lon="10.104530034586787">
        <ele>593.26999999999998</ele>
        <time>2025-05-20T14:15:07Z</time>
      </trkpt>
      <trkpt lat="47.951836986467242" lon="10.105768041685224">
        <ele>594.23000000000002</ele>
        <time>2025-05-20T14:15:18Z</time>
      </trkpt>
      <trkpt lat="47.954737963154912" lon="10.106729026883841">
        <ele>596.63999999999999</ele>
        <time>2025-05-20T14:15:28Z</time>
      </trkpt>
      <trkpt lat="47.957555036991835" lon="10.108024030923843">
        <ele>600.48000000000002</ele>
        <time>2025-05-20T14:15:38Z</time>
      </trkpt>
      <trkpt lat="47.960791038349271" lon="10.110115986317396">
        <ele>602.39999999999998</ele>
        <time>2025-05-20T14:15:50Z</time>
      </trkpt>
      <trkpt lat="47.962310006842017" lon="10.11121703311801">
        <ele>602.88</ele>
        <time>2025-05-20T14:15:57Z</time>
      </trkpt>
      <trkpt lat="47.964726006612182" lon="10.113005982711911">
        <ele>599.51999999999998</ele>
        <time>2025-05-20T14:16:08Z</time>
      </trkpt>
      <trkpt lat="47.966734981164336" lon="10.114494021981955">
        <ele>598.08000000000004</ele>
        <time>2025-05-20T14:16:16Z</time>
      </trkpt>
      <trkpt lat="47.968850992619991" lon="10.116061018779874">
        <ele>597.12</ele>
        <time>2025-05-20T14:16:24Z</time>
      </trkpt>
      <trkpt lat="47.973360037431121" lon="10.119384024292231">
        <ele>594.71000000000004</ele>
        <time>2025-05-20T14:16:41Z</time>
      </trkpt>
      <trkpt lat="47.976777004078031" lon="10.121975960209966">
        <ele>597.12</ele>
        <time>2025-05-20T14:16:54Z</time>
      </trkpt>
      <trkpt lat="47.979607991874218" lon="10.124342003837228">
        <ele>600.96000000000004</ele>
        <time>2025-05-20T14:17:05Z</time>
      </trkpt>
      <trkpt lat="47.98233998939395" lon="10.126971993595362">
        <ele>603.85000000000002</ele>
        <time>2025-05-20T14:17:16Z</time>
      </trkpt>
      <trkpt lat="47.985178017988801" lon="10.13016801327467">
        <ele>606.25</ele>
        <time>2025-05-20T14:17:28Z</time>
      </trkpt>
      <trkpt lat="47.986975014209747" lon="10.132455015555024">
        <ele>606.73000000000002</ele>
        <time>2025-05-20T14:17:36Z</time>
      </trkpt>
      <trkpt lat="47.989059006795287" lon="10.135450037196279">
        <ele>606.73000000000002</ele>
        <time>2025-05-20T14:17:46Z</time>
      </trkpt>
      <trkpt lat="47.991136964410543" lon="10.138926012441516">
        <ele>606.73000000000002</ele>
        <time>2025-05-20T14:17:58Z</time>
      </trkpt>
      <trkpt lat="47.992967991158366" lon="10.14273701235652">
        <ele>604.80999999999995</ele>
        <time>2025-05-20T14:18:10Z</time>
      </trkpt>
      <trkpt lat="47.994400961324573" lon="10.145980976521969">
        <ele>600</ele>
        <time>2025-05-20T14:18:21Z</time>
      </trkpt>
      <trkpt lat="47.994559966027737" lon="10.14628398232162">
        <ele>599.51999999999998</ele>
        <time>2025-05-20T14:18:22Z</time>
      </trkpt>
      <trkpt lat="47.996011041104794" lon="10.14826001599431">
        <ele>598.08000000000004</ele>
        <time>2025-05-20T14:18:29Z</time>
      </trkpt>
      <trkpt lat="47.997994031757116" lon="10.14972198754549">
        <ele>594.23000000000002</ele>
        <time>2025-05-20T14:18:38Z</time>
      </trkpt>
      <trkpt lat="47.998666008934379" lon="10.149998003616929">
        <ele>591.35000000000002</ele>
        <time>2025-05-20T14:18:41Z</time>
      </trkpt>
      <trkpt lat="47.999365981668234" lon="10.150165976956487">
        <ele>589.90999999999997</ele>
        <time>2025-05-20T14:18:44Z</time>
      </trkpt>
      <trkpt lat="48.001500014215708" lon="10.149801028892398">
        <ele>588.95000000000005</ele>
        <time>2025-05-20T14:18:53Z</time>
      </trkpt>
      <trkpt lat="48.003063993528485" lon="10.148724960163236">
        <ele>590.38999999999999</ele>
        <time>2025-05-20T14:19:00Z</time>
      </trkpt>
      <trkpt lat="48.005469013005495" lon="10.146875996142626">
        <ele>588.95000000000005</ele>
        <time>2025-05-20T14:19:11Z</time>
      </trkpt>
      <trkpt lat="48.007459966465831" lon="10.145039018243551">
        <ele>586.05999999999995</ele>
        <time>2025-05-20T14:19:21Z</time>
      </trkpt>
      <trkpt lat="48.009109022095799" lon="10.143301030620933">
        <ele>583.17999999999995</ele>
        <time>2025-05-20T14:19:28Z</time>
      </trkpt>
      <trkpt lat="48.013156978413463" lon="10.138810006901622">
        <ele>574.52999999999997</ele>
        <time>2025-05-20T14:19:45Z</time>
      </trkpt>
      <trkpt lat="48.01566400565207" lon="10.136503977701068">
        <ele>571.63999999999999</ele>
        <time>2025-05-20T14:19:56Z</time>
      </trkpt>
      <trkpt lat="48.017895016819239" lon="10.134869003668427">
        <ele>570.67999999999995</ele>
        <time>2025-05-20T14:20:04Z</time>
      </trkpt>
      <trkpt lat="48.020511008799076" lon="10.133424969390035">
        <ele>571.15999999999997</ele>
        <time>2025-05-20T14:20:16Z</time>
      </trkpt>
      <trkpt lat="48.022325020283461" lon="10.132666993886232">
        <ele>572.12</ele>
        <time>2025-05-20T14:20:23Z</time>
      </trkpt>
      <trkpt lat="48.025534031912684" lon="10.131836012005806">
        <ele>571.15999999999997</ele>
        <time>2025-05-20T14:20:34Z</time>
      </trkpt>
      <trkpt lat="48.029060969129205" lon="10.131514985114336">
        <ele>568.75999999999999</ele>
        <time>2025-05-20T14:20:46Z</time>
      </trkpt>
      <trkpt lat="48.033491978421807" lon="10.131633002310991">
        <ele>563.47000000000003</ele>
        <time>2025-05-20T14:21:02Z</time>
      </trkpt>
      <trkpt lat="48.035589968785644" lon="10.131901977583766">
        <ele>560.59000000000003</ele>
        <time>2025-05-20T14:21:08Z</time>
      </trkpt>
      <trkpt lat="48.039079019799829" lon="10.132598010823131">
        <ele>559.62</ele>
        <time>2025-05-20T14:21:20Z</time>
      </trkpt>
      <trkpt lat="48.042833022773266" lon="10.133743984624743">
        <ele>559.13999999999999</ele>
        <time>2025-05-20T14:21:33Z</time>
      </trkpt>
      <trkpt lat="48.046556012704968" lon="10.135163962841034">
        <ele>562.02999999999997</ele>
        <time>2025-05-20T14:21:46Z</time>
      </trkpt>
      <trkpt lat="48.049696963280439" lon="10.136427031829953">
        <ele>562.99000000000001</ele>
        <time>2025-05-20T14:21:57Z</time>
      </trkpt>
      <trkpt lat="48.053760007023811" lon="10.137844998389482">
        <ele>565.87</ele>
        <time>2025-05-20T14:22:11Z</time>
      </trkpt>
      <trkpt lat="48.057826990261674" lon="10.138815036043525">
        <ele>565.38999999999999</ele>
        <time>2025-05-20T14:22:25Z</time>
      </trkpt>
      <trkpt lat="48.061357028782368" lon="10.139264976605773">
        <ele>562.99000000000001</ele>
        <time>2025-05-20T14:22:37Z</time>
      </trkpt>
      <trkpt lat="48.06548997759819" lon="10.139317028224468">
        <ele>558.65999999999997</ele>
        <time>2025-05-20T14:22:51Z</time>
      </trkpt>
      <trkpt lat="48.069326039403677" lon="10.139118041843176">
        <ele>557.22000000000003</ele>
        <time>2025-05-20T14:23:04Z</time>
      </trkpt>
      <trkpt lat="48.072890024632215" lon="10.138750998303294">
        <ele>558.17999999999995</ele>
        <time>2025-05-20T14:23:17Z</time>
      </trkpt>
      <trkpt lat="48.076443029567599" lon="10.138296028599143">
        <ele>558.17999999999995</ele>
        <time>2025-05-20T14:23:28Z</time>
      </trkpt>
      <trkpt lat="48.081132033839822" lon="10.137537969276309">
        <ele>551.92999999999995</ele>
        <time>2025-05-20T14:23:44Z</time>
      </trkpt>
      <trkpt lat="48.084930963814259" lon="10.136770019307733">
        <ele>550.00999999999999</ele>
        <time>2025-05-20T14:23:57Z</time>
      </trkpt>
      <trkpt lat="48.088724026456475" lon="10.135867958888412">
        <ele>550.49000000000001</ele>
        <time>2025-05-20T14:24:10Z</time>
      </trkpt>
      <trkpt lat="48.092729989439249" lon="10.134775964543223">
        <ele>549.52999999999997</ele>
        <time>2025-05-20T14:24:24Z</time>
      </trkpt>
      <trkpt lat="48.096646014600992" lon="10.133615992963314">
        <ele>547.61000000000001</ele>
        <time>2025-05-20T14:24:39Z</time>
      </trkpt>
      <trkpt lat="48.100160965695977" lon="10.132116973400116">
        <ele>546.64999999999998</ele>
        <time>2025-05-20T14:24:52Z</time>
      </trkpt>
      <trkpt lat="48.103032018989325" lon="10.130351996049285">
        <ele>545.69000000000005</ele>
        <time>2025-05-20T14:25:03Z</time>
      </trkpt>
      <trkpt lat="48.105968032032251" lon="10.127880005165935">
        <ele>545.20000000000005</ele>
        <time>2025-05-20T14:25:15Z</time>
      </trkpt>
      <trkpt lat="48.108058981597424" lon="10.125674977898598">
        <ele>543.27999999999997</ele>
        <time>2025-05-20T14:25:24Z</time>
      </trkpt>
      <trkpt lat="48.110081031918526" lon="10.123120006173849">
        <ele>542.79999999999995</ele>
        <time>2025-05-20T14:25:33Z</time>
      </trkpt>
      <trkpt lat="48.112550005316734" lon="10.119953993707895">
        <ele>541.36000000000001</ele>
        <time>2025-05-20T14:25:44Z</time>
      </trkpt>
      <trkpt lat="48.115650974214077" lon="10.116557981818914">
        <ele>540.39999999999998</ele>
        <time>2025-05-20T14:25:57Z</time>
      </trkpt>
      <trkpt lat="48.117950968444347" lon="10.114581026136875">
        <ele>538.96000000000004</ele>
        <time>2025-05-20T14:26:06Z</time>
      </trkpt>
      <trkpt lat="48.121218988671899" lon="10.112486975267529">
        <ele>538.48000000000002</ele>
        <time>2025-05-20T14:26:18Z</time>
      </trkpt>
      <trkpt lat="48.124626986682415" lon="10.111044030636549">
        <ele>537.99000000000001</ele>
        <time>2025-05-20T14:26:30Z</time>
      </trkpt>
      <trkpt lat="48.128120983019471" lon="10.110284965485334">
        <ele>537.02999999999997</ele>
        <time>2025-05-20T14:26:42Z</time>
      </trkpt>
      <trkpt lat="48.131350027397275" lon="10.110158985480666">
        <ele>540.88</ele>
        <time>2025-05-20T14:26:53Z</time>
      </trkpt>
      <trkpt lat="48.134572030976415" lon="10.110603980720043">
        <ele>540.39999999999998</ele>
        <time>2025-05-20T14:27:04Z</time>
      </trkpt>
      <trkpt lat="48.13804498873651" lon="10.111749032512307">
        <ele>535.59000000000003</ele>
        <time>2025-05-20T14:27:16Z</time>
      </trkpt>
      <trkpt lat="48.140550004318357" lon="10.113086029887199">
        <ele>533.66999999999996</ele>
        <time>2025-05-20T14:27:25Z</time>
      </trkpt>
      <trkpt lat="48.14324202015996" lon="10.114967012777925">
        <ele>535.59000000000003</ele>
        <time>2025-05-20T14:27:35Z</time>
      </trkpt>
      <trkpt lat="48.146243998780847" lon="10.1177710108459">
        <ele>537.02999999999997</ele>
        <time>2025-05-20T14:27:47Z</time>
      </trkpt>
      <trkpt lat="48.14979700371623" lon="10.121688041836023">
        <ele>549.04999999999995</ele>
        <time>2025-05-20T14:28:02Z</time>
      </trkpt>
      <trkpt lat="48.152186013758183" lon="10.124273020774126">
        <ele>560.59000000000003</ele>
        <time>2025-05-20T14:28:12Z</time>
      </trkpt>
      <trkpt lat="48.154674014076591" lon="10.126649960875511">
        <ele>572.12</ele>
        <time>2025-05-20T14:28:22Z</time>
      </trkpt>
      <trkpt lat="48.15703603439033" lon="10.128457015380263">
        <ele>580.28999999999996</ele>
        <time>2025-05-20T14:28:31Z</time>
      </trkpt>
      <trkpt lat="48.160071037709713" lon="10.130231967195868">
        <ele>585.58000000000004</ele>
        <time>2025-05-20T14:28:42Z</time>
      </trkpt>
      <trkpt lat="48.16320201382041" lon="10.131518002599478">
        <ele>585.10000000000002</ele>
        <time>2025-05-20T14:28:53Z</time>
      </trkpt>
      <trkpt lat="48.165260022506118" lon="10.132005997002125">
        <ele>583.17999999999995</ele>
        <time>2025-05-20T14:29:01Z</time>
      </trkpt>
      <trkpt lat="48.168205004185438" lon="10.132044972851872">
        <ele>581.25</ele>
        <time>2025-05-20T14:29:10Z</time>
      </trkpt>
      <trkpt lat="48.170829964801669" lon="10.131509033963084">
        <ele>577.40999999999997</ele>
        <time>2025-05-20T14:29:19Z</time>
      </trkpt>
      <trkpt lat="48.173977034166455" lon="10.130187040194869">
        <ele>573.08000000000004</ele>
        <time>2025-05-20T14:29:30Z</time>
      </trkpt>
      <trkpt lat="48.176796035841107" lon="10.128809977322817">
        <ele>569.72000000000003</ele>
        <time>2025-05-20T14:29:40Z</time>
      </trkpt>
      <trkpt lat="48.180242003872991" lon="10.127544980496168">
        <ele>559.62</ele>
        <time>2025-05-20T14:29:59Z</time>
      </trkpt>
      <trkpt lat="48.187524033710361" lon="10.125748990103602">
        <ele>551.92999999999995</ele>
        <time>2025-05-20T14:30:17Z</time>
      </trkpt>
      <trkpt lat="48.191288011148572" lon="10.124598992988467">
        <ele>547.13</ele>
        <time>2025-05-20T14:30:30Z</time>
      </trkpt>
      <trkpt lat="48.195349965244532" lon="10.12335604056716">
        <ele>541.36000000000001</ele>
        <time>2025-05-20T14:30:44Z</time>
      </trkpt>
      <trkpt lat="48.199441004544497" lon="10.122624970972538">
        <ele>537.50999999999999</ele>
        <time>2025-05-20T14:30:58Z</time>
      </trkpt>
      <trkpt lat="48.20269200950861" lon="10.122523969039321">
        <ele>534.14999999999998</ele>
        <time>2025-05-20T14:31:09Z</time>
      </trkpt>
      <trkpt lat="48.206529999151826" lon="10.122934011742473">
        <ele>532.23000000000002</ele>
        <time>2025-05-20T14:31:22Z</time>
      </trkpt>
      <trkpt lat="48.210330018773675" lon="10.123725011944771">
        <ele>531.26999999999998</ele>
        <time>2025-05-20T14:31:35Z</time>
      </trkpt>
      <trkpt lat="48.213536012917757" lon="10.124446023255587">
        <ele>529.34000000000003</ele>
        <time>2025-05-20T14:31:46Z</time>
      </trkpt>
      <trkpt lat="48.218813007697463" lon="10.125470962375402">
        <ele>524.53999999999996</ele>
        <time>2025-05-20T14:32:04Z</time>
      </trkpt>
      <trkpt lat="48.219627980142832" lon="10.125561989843845">
        <ele>523.58000000000004</ele>
        <time>2025-05-20T14:32:14Z</time>
      </trkpt>
      <trkpt lat="48.223559008911252" lon="10.125675983726978">
        <ele>522.61000000000001</ele>
        <time>2025-05-20T14:32:25Z</time>
      </trkpt>
      <trkpt lat="48.226422015577555" lon="10.125431986525655">
        <ele>520.69000000000005</ele>
        <time>2025-05-20T14:32:37Z</time>
      </trkpt>
      <trkpt lat="48.229675032198429" lon="10.124829998239875">
        <ele>519.25</ele>
        <time>2025-05-20T14:32:50Z</time>
      </trkpt>
      <trkpt lat="48.23236302472651" lon="10.124076968058944">
        <ele>520.21000000000004</ele>
        <time>2025-05-20T14:33:01Z</time>
      </trkpt>
      <trkpt lat="48.235235000029206" lon="10.122930994257331">
        <ele>521.64999999999998</ele>
        <time>2025-05-20T14:33:12Z</time>
      </trkpt>
      <trkpt lat="48.23760699480772" lon="10.121804969385266">
        <ele>523.09000000000003</ele>
        <time>2025-05-20T14:33:22Z</time>
      </trkpt>
      <trkpt lat="48.240576032549143" lon="10.120034040883183">
        <ele>526.46000000000004</ele>
        <time>2025-05-20T14:33:35Z</time>
      </trkpt>
      <trkpt lat="48.243135027587414" lon="10.118386996909976">
        <ele>528.38</ele>
        <time>2025-05-20T14:33:48Z</time>
      </trkpt>
      <trkpt lat="48.246127031743526" lon="10.116516994312406">
        <ele>531.75</ele>
        <time>2025-05-20T14:34:03Z</time>
      </trkpt>
      <trkpt lat="48.248658031225204" lon="10.115203969180584">
        <ele>533.66999999999996</ele>
        <time>2025-05-20T14:34:15Z</time>
      </trkpt>
      <trkpt lat="48.251009993255138" lon="10.114358989521861">
        <ele>537.99000000000001</ele>
        <time>2025-05-20T14:34:25Z</time>
      </trkpt>
      <trkpt lat="48.253425993025303" lon="10.113891027867794">
        <ele>542.79999999999995</ele>
        <time>2025-05-20T14:34:36Z</time>
      </trkpt>
      <trkpt lat="48.255907036364079" lon="10.113790025934577">
        <ele>544.72000000000003</ele>
        <time>2025-05-20T14:34:48Z</time>
      </trkpt>
      <trkpt lat="48.258108962327242" lon="10.114051038399339">
        <ele>543.27999999999997</ele>
        <time>2025-05-20T14:34:58Z</time>
      </trkpt>
      <trkpt lat="48.260825034230947" lon="10.114557975903153">
        <ele>537.02999999999997</ele>
        <time>2025-05-20T14:35:10Z</time>
      </trkpt>
      <trkpt lat="48.263473967090249" lon="10.114957960322499">
        <ele>532.23000000000002</ele>
        <time>2025-05-20T14:35:22Z</time>
      </trkpt>
      <trkpt lat="48.266153996810317" lon="10.115020992234349">
        <ele>529.82000000000005</ele>
        <time>2025-05-20T14:35:34Z</time>
      </trkpt>
      <trkpt lat="48.268692959100008" lon="10.114674987271428">
        <ele>531.75</ele>
        <time>2025-05-20T14:35:45Z</time>
      </trkpt>
      <trkpt lat="48.269869023934007" lon="10.114467032253742">
        <ele>536.54999999999995</ele>
        <time>2025-05-20T14:35:57Z</time>
      </trkpt>
      <trkpt lat="48.273986969143152" lon="10.113733028993011">
        <ele>542.32000000000005</ele>
        <time>2025-05-20T14:36:08Z</time>
      </trkpt>
      <trkpt lat="48.276828015223145" lon="10.113669997081161">
        <ele>547.13</ele>
        <time>2025-05-20T14:36:20Z</time>
      </trkpt>
      <trkpt lat="48.279291959479451" lon="10.113995969295502">
        <ele>550.49000000000001</ele>
        <time>2025-05-20T14:36:30Z</time>
      </trkpt>
      <trkpt lat="48.281816001981497" lon="10.114480024203658">
        <ele>548.57000000000005</ele>
        <time>2025-05-20T14:36:40Z</time>
      </trkpt>
      <trkpt lat="48.284898027777672" lon="10.114901969209313">
        <ele>546.16999999999996</ele>
        <time>2025-05-20T14:36:52Z</time>
      </trkpt>
      <trkpt lat="48.287592977285385" lon="10.114855030551553">
        <ele>545.20000000000005</ele>
        <time>2025-05-20T14:37:02Z</time>
      </trkpt>
      <trkpt lat="48.29074096865952" lon="10.114226974546909">
        <ele>541.36000000000001</ele>
        <time>2025-05-20T14:37:13Z</time>
      </trkpt>
      <trkpt lat="48.293286971747875" lon="10.113276969641447">
        <ele>538.96000000000004</ele>
        <time>2025-05-20T14:37:22Z</time>
      </trkpt>
      <trkpt lat="48.296050988137722" lon="10.111722964793444">
        <ele>536.54999999999995</ele>
        <time>2025-05-20T14:37:32Z</time>
      </trkpt>
      <trkpt lat="48.298424994572997" lon="10.109882969409227">
        <ele>535.11000000000001</ele>
        <time>2025-05-20T14:37:41Z</time>
      </trkpt>
      <trkpt lat="48.301133019849658" lon="10.107262032106519">
        <ele>534.63</ele>
        <time>2025-05-20T14:37:52Z</time>
      </trkpt>
      <trkpt lat="48.302394999191165" lon="10.105902990326285">
        <ele>535.11000000000001</ele>
        <time>2025-05-20T14:37:58Z</time>
      </trkpt>
      <trkpt lat="48.304013963788748" lon="10.10404204018414">
        <ele>537.50999999999999</ele>
        <time>2025-05-20T14:38:08Z</time>
      </trkpt>
      <trkpt lat="48.306002989411354" lon="10.101709021255374">
        <ele>539.44000000000005</ele>
        <time>2025-05-20T14:38:20Z</time>
      </trkpt>
      <trkpt lat="48.308048006147146" lon="10.099311964586377">
        <ele>540.88</ele>
        <time>2025-05-20T14:38:32Z</time>
      </trkpt>
      <trkpt lat="48.310178015381098" lon="10.097004007548094">
        <ele>539.44000000000005</ele>
        <time>2025-05-20T14:38:44Z</time>
      </trkpt>
      <trkpt lat="48.311979034915566" lon="10.095266019925475">
        <ele>537.50999999999999</ele>
        <time>2025-05-20T14:38:53Z</time>
      </trkpt>
      <trkpt lat="48.314096974208951" lon="10.093517974019051">
        <ele>532.71000000000004</ele>
        <time>2025-05-20T14:39:02Z</time>
      </trkpt>
      <trkpt lat="48.315840996801853" lon="10.092337969690561">
        <ele>530.29999999999995</ele>
        <time>2025-05-20T14:39:10Z</time>
      </trkpt>
      <trkpt lat="48.318076031282544" lon="10.091099962592125">
        <ele>530.29999999999995</ele>
        <time>2025-05-20T14:39:21Z</time>
      </trkpt>
      <trkpt lat="48.32056101411581" lon="10.090113999322057">
        <ele>531.75</ele>
        <time>2025-05-20T14:39:32Z</time>
      </trkpt>
      <trkpt lat="48.323211958631873" lon="10.08939097635448">
        <ele>534.14999999999998</ele>
        <time>2025-05-20T14:39:44Z</time>
      </trkpt>
      <trkpt lat="48.326003970578313" lon="10.088989986106753">
        <ele>534.63</ele>
        <time>2025-05-20T14:39:56Z</time>
      </trkpt>
      <trkpt lat="48.328362973406911" lon="10.088749006390572">
        <ele>533.19000000000005</ele>
        <time>2025-05-20T14:40:06Z</time>
      </trkpt>
      <trkpt lat="48.330573029816151" lon="10.08857499808073">
        <ele>529.34000000000003</ele>
        <time>2025-05-20T14:40:14Z</time>
      </trkpt>
      <trkpt lat="48.335296986624599" lon="10.088064037263393">
        <ele>522.61000000000001</ele>
        <time>2025-05-20T14:40:30Z</time>
      </trkpt>
      <trkpt lat="48.338227970525622" lon="10.087498007342219">
        <ele>518.76999999999998</ele>
        <time>2025-05-20T14:40:40Z</time>
      </trkpt>
      <trkpt lat="48.340984024107456" lon="10.086729973554611">
        <ele>516.37</ele>
        <time>2025-05-20T14:40:50Z</time>
      </trkpt>
      <trkpt lat="48.343053013086319" lon="10.086074005812407">
        <ele>516.37</ele>
        <time>2025-05-20T14:40:59Z</time>
      </trkpt>
      <trkpt lat="48.345487033948302" lon="10.085191978141665">
        <ele>516.85000000000002</ele>
        <time>2025-05-20T14:41:10Z</time>
      </trkpt>
      <trkpt lat="48.347453009337187" lon="10.084485970437527">
        <ele>515.88</ele>
        <time>2025-05-20T14:41:19Z</time>
      </trkpt>
      <trkpt lat="48.349468018859625" lon="10.083775017410517">
        <ele>516.37</ele>
        <time>2025-05-20T14:41:27Z</time>
      </trkpt>
      <trkpt lat="48.352370001375675" lon="10.082862982526422">
        <ele>517.80999999999995</ele>
        <time>2025-05-20T14:41:37Z</time>
      </trkpt>
      <trkpt lat="48.355809012427926" lon="10.082039041444659">
        <ele>517.80999999999995</ele>
        <time>2025-05-20T14:41:49Z</time>
      </trkpt>
      <trkpt lat="48.358987011015415" lon="10.081668980419636">
        <ele>519.25</ele>
        <time>2025-05-20T14:42:00Z</time>
      </trkpt>
      <trkpt lat="48.361615994945168" lon="10.081651965156198">
        <ele>517.80999999999995</ele>
        <time>2025-05-20T14:42:09Z</time>
      </trkpt>
      <trkpt lat="48.363926969468594" lon="10.081837037578225">
        <ele>514.44000000000005</ele>
        <time>2025-05-20T14:42:17Z</time>
      </trkpt>
      <trkpt lat="48.366812020540237" lon="10.082469033077359">
        <ele>512.03999999999996</ele>
        <time>2025-05-20T14:42:27Z</time>
      </trkpt>
      <trkpt lat="48.369508981704712" lon="10.083289034664631">
        <ele>509.63999999999999</ele>
        <time>2025-05-20T14:42:37Z</time>
      </trkpt>
      <trkpt lat="48.372284984216094" lon="10.084200985729694">
        <ele>504.82999999999998</ele>
        <time>2025-05-20T14:42:48Z</time>
      </trkpt>
      <trkpt lat="48.374462015926838" lon="10.084831975400448">
        <ele>500.5</ele>
        <time>2025-05-20T14:42:58Z</time>
      </trkpt>
      <trkpt lat="48.378084003925323" lon="10.085487021133304">
        <ele>496.18000000000001</ele>
        <time>2025-05-20T14:43:14Z</time>
      </trkpt>
      <trkpt lat="48.380588013678789" lon="10.085658011958003">
        <ele>493.76999999999998</ele>
        <time>2025-05-20T14:43:25Z</time>
      </trkpt>
      <trkpt lat="48.383080037310719" lon="10.085778040811419">
        <ele>490.41000000000003</ele>
        <time>2025-05-20T14:43:37Z</time>
      </trkpt>
      <trkpt lat="48.385587986558676" lon="10.085947019979358">
        <ele>488.00999999999999</ele>
        <time>2025-05-20T14:43:48Z</time>
      </trkpt>
      <trkpt lat="48.38759302161634" lon="10.086239967495203">
        <ele>484.63999999999999</ele>
        <time>2025-05-20T14:43:55Z</time>
      </trkpt>
      <trkpt lat="48.389878012239933" lon="10.086805997416377">
        <ele>482.24000000000001</ele>
        <time>2025-05-20T14:44:03Z</time>
      </trkpt>
      <trkpt lat="48.393539981916547" lon="10.088180964812636">
        <ele>476.94999999999999</ele>
        <time>2025-05-20T14:44:16Z</time>
      </trkpt>
      <trkpt lat="48.397681983187795" lon="10.090193962678313">
        <ele>472.13999999999999</ele>
        <time>2025-05-20T14:44:31Z</time>
      </trkpt>
      <trkpt lat="48.402129001915455" lon="10.092234034091234">
        <ele>467.81999999999999</ele>
        <time>2025-05-20T14:44:47Z</time>
      </trkpt>
      <trkpt lat="48.404407035559416" lon="10.092936018481851">
        <ele>466.38</ele>
        <time>2025-05-20T14:44:55Z</time>
      </trkpt>
      <trkpt lat="48.407335001975298" lon="10.093572959303856">
        <ele>465.89999999999998</ele>
        <time>2025-05-20T14:45:05Z</time>
      </trkpt>
      <trkpt lat="48.411175003275275" lon="10.093974033370614">
        <ele>469.74000000000001</ele>
        <time>2025-05-20T14:45:18Z</time>
      </trkpt>
      <trkpt lat="48.415893008932471" lon="10.094429003074765">
        <ele>471.66000000000003</ele>
        <time>2025-05-20T14:45:34Z</time>
      </trkpt>
      <trkpt lat="48.41969302855432" lon="10.095292003825307">
        <ele>472.13999999999999</ele>
        <time>2025-05-20T14:45:47Z</time>
      </trkpt>
      <trkpt lat="48.422555029392242" lon="10.096346028149128">
        <ele>469.25999999999999</ele>
        <time>2025-05-20T14:45:57Z</time>
      </trkpt>
      <trkpt lat="48.425372019410133" lon="10.097887041047215">
        <ele>472.13999999999999</ele>
        <time>2025-05-20T14:46:07Z</time>
      </trkpt>
      <trkpt lat="48.42777100391686" lon="10.099575994536281">
        <ele>470.22000000000003</ele>
        <time>2025-05-20T14:46:16Z</time>
      </trkpt>
      <trkpt lat="48.430821010842919" lon="10.102268010377884">
        <ele>464.93000000000001</ele>
        <time>2025-05-20T14:46:28Z</time>
      </trkpt>
      <trkpt lat="48.43155400827527" lon="10.103003019466996">
        <ele>465.42000000000002</ele>
        <time>2025-05-20T14:46:31Z</time>
      </trkpt>
      <trkpt lat="48.431803034618497" lon="10.103262020274997">
        <ele>466.38</ele>
        <time>2025-05-20T14:46:32Z</time>
      </trkpt>
      <trkpt lat="48.434229008853436" lon="10.105806011706591">
        <ele>469.25999999999999</ele>
        <time>2025-05-20T14:46:42Z</time>
      </trkpt>
      <trkpt lat="48.437427040189505" lon="10.10905098170042">
        <ele>474.06999999999999</ele>
        <time>2025-05-20T14:46:55Z</time>
      </trkpt>
      <trkpt lat="48.440774017944932" lon="10.111823966726661">
        <ele>473.58999999999997</ele>
        <time>2025-05-20T14:47:08Z</time>
      </trkpt>
      <trkpt lat="48.443469973281026" lon="10.113607970997691">
        <ele>469.74000000000001</ele>
        <time>2025-05-20T14:47:18Z</time>
      </trkpt>
      <trkpt lat="48.445979012176394" lon="10.11491403914988">
        <ele>465.42000000000002</ele>
        <time>2025-05-20T14:47:27Z</time>
      </trkpt>
      <trkpt lat="48.448825003579259" lon="10.116046015173197">
        <ele>463.00999999999999</ele>
        <time>2025-05-20T14:47:37Z</time>
      </trkpt>
      <trkpt lat="48.452878994867206" lon="10.116981016471982">
        <ele>461.56999999999999</ele>
        <time>2025-05-20T14:47:51Z</time>
      </trkpt>
      <trkpt lat="48.456405010074377" lon="10.117314029484987">
        <ele>461.08999999999997</ele>
        <time>2025-05-20T14:48:03Z</time>
      </trkpt>
      <trkpt lat="48.459915015846491" lon="10.117074977606535">
        <ele>460.61000000000001</ele>
        <time>2025-05-20T14:48:15Z</time>
      </trkpt>
      <trkpt lat="48.463114975020289" lon="10.116395959630609">
        <ele>460.13</ele>
        <time>2025-05-20T14:48:26Z</time>
      </trkpt>
      <trkpt lat="48.465698026120663" lon="10.115547040477395">
        <ele>457.72000000000003</ele>
        <time>2025-05-20T14:48:35Z</time>
      </trkpt>
      <trkpt lat="48.468761024996638" lon="10.114125972613692">
        <ele>462.52999999999997</ele>
        <time>2025-05-20T14:48:46Z</time>
      </trkpt>
      <trkpt lat="48.47252500243485" lon="10.111658005043864">
        <ele>470.69999999999999</ele>
        <time>2025-05-20T14:49:00Z</time>
      </trkpt>
      <trkpt lat="48.475841972976923" lon="10.108854006975889">
        <ele>473.58999999999997</ele>
        <time>2025-05-20T14:49:13Z</time>
      </trkpt>
      <trkpt lat="48.479191968217492" lon="10.105270994827151">
        <ele>475.50999999999999</ele>
        <time>2025-05-20T14:49:27Z</time>
      </trkpt>
      <trkpt lat="48.481846014037728" lon="10.101799964904785">
        <ele>476.94999999999999</ele>
        <time>2025-05-20T14:49:39Z</time>
      </trkpt>
      <trkpt lat="48.48397702910006" lon="10.098781976848841">
        <ele>478.38999999999999</ele>
        <time>2025-05-20T14:49:49Z</time>
      </trkpt>
      <trkpt lat="48.485723985359073" lon="10.096390033140779">
        <ele>481.75999999999999</ele>
        <time>2025-05-20T14:49:57Z</time>
      </trkpt>
      <trkpt lat="48.488700985908508" lon="10.092809032648802">
        <ele>484.16000000000003</ele>
        <time>2025-05-20T14:50:10Z</time>
      </trkpt>
      <trkpt lat="48.490383988246322" lon="10.091061992570758">
        <ele>484.63999999999999</ele>
        <time>2025-05-20T14:50:17Z</time>
      </trkpt>
      <trkpt lat="48.493655025959015" lon="10.088126985356212">
        <ele>483.68000000000001</ele>
        <time>2025-05-20T14:50:31Z</time>
      </trkpt>
      <trkpt lat="48.496451983228326" lon="10.086105018854141">
        <ele>483.68000000000001</ele>
        <time>2025-05-20T14:50:41Z</time>
      </trkpt>
      <trkpt lat="48.498596996068954" lon="10.084809008985758">
        <ele>484.16000000000003</ele>
        <time>2025-05-20T14:50:51Z</time>
      </trkpt>
      <trkpt lat="48.501111986115575" lon="10.083572007715702">
        <ele>484.63999999999999</ele>
        <time>2025-05-20T14:51:03Z</time>
      </trkpt>
      <trkpt lat="48.503475012257695" lon="10.082646980881691">
        <ele>488.49000000000001</ele>
        <time>2025-05-20T14:51:14Z</time>
      </trkpt>
      <trkpt lat="48.505264967679977" lon="10.082099977880716">
        <ele>489.93000000000001</ele>
        <time>2025-05-20T14:51:22Z</time>
      </trkpt>
      <trkpt lat="48.507550964131951" lon="10.081563033163548">
        <ele>497.62</ele>
        <time>2025-05-20T14:51:31Z</time>
      </trkpt>
      <trkpt lat="48.509578965604305" lon="10.081234965473413">
        <ele>505.79000000000002</ele>
        <time>2025-05-20T14:51:39Z</time>
      </trkpt>
      <trkpt lat="48.51151904091239" lon="10.081102028489113">
        <ele>511.56</ele>
        <time>2025-05-20T14:51:46Z</time>
      </trkpt>
      <trkpt lat="48.51364997215569" lon="10.081110997125506">
        <ele>519.25</ele>
        <time>2025-05-20T14:51:54Z</time>
      </trkpt>
      <trkpt lat="48.515771012753248" lon="10.081288022920489">
        <ele>526.46000000000004</ele>
        <time>2025-05-20T14:52:03Z</time>
      </trkpt>
      <trkpt lat="48.518550032749772" lon="10.081748021766543">
        <ele>530.29999999999995</ele>
        <time>2025-05-20T14:52:15Z</time>
      </trkpt>
      <trkpt lat="48.520876010879874" lon="10.08240700699389">
        <ele>531.26999999999998</ele>
        <time>2025-05-20T14:52:24Z</time>
      </trkpt>
      <trkpt lat="48.523044995963573" lon="10.083187026903033">
        <ele>530.78999999999996</ele>
        <time>2025-05-20T14:52:32Z</time>
      </trkpt>
      <trkpt lat="48.525437023490667" lon="10.084251025691628">
        <ele>529.34000000000003</ele>
        <time>2025-05-20T14:52:43Z</time>
      </trkpt>
      <trkpt lat="48.528143959119916" lon="10.085751973092556">
        <ele>526.94000000000005</ele>
        <time>2025-05-20T14:52:53Z</time>
      </trkpt>
      <trkpt lat="48.53030196391046" lon="10.087126018479466">
        <ele>522.61000000000001</ele>
        <time>2025-05-20T14:53:01Z</time>
      </trkpt>
      <trkpt lat="48.533750027418137" lon="10.089598009362817">
        <ele>516.37</ele>
        <time>2025-05-20T14:53:14Z</time>
      </trkpt>
      <trkpt lat="48.537292974069715" lon="10.092724040150642">
        <ele>512.03999999999996</ele>
        <time>2025-05-20T14:53:28Z</time>
      </trkpt>
      <trkpt lat="48.53996898047626" lon="10.095471041277051">
        <ele>508.19</ele>
        <time>2025-05-20T14:53:39Z</time>
      </trkpt>
      <trkpt lat="48.542522024363279" lon="10.098419962450862">
        <ele>504.82999999999998</ele>
        <time>2025-05-20T14:53:50Z</time>
      </trkpt>
      <trkpt lat="48.545380001887679" lon="10.102185029536486">
        <ele>504.82999999999998</ele>
        <time>2025-05-20T14:54:03Z</time>
      </trkpt>
      <trkpt lat="48.547840006649494" lon="10.105918999761343">
        <ele>510.12</ele>
        <time>2025-05-20T14:54:15Z</time>
      </trkpt>
      <trkpt lat="48.550149975344539" lon="10.109883975237608">
        <ele>517.33000000000004</ele>
        <time>2025-05-20T14:54:27Z</time>
      </trkpt>
      <trkpt lat="48.551939008757472" lon="10.113373026251793">
        <ele>524.05999999999995</ele>
        <time>2025-05-20T14:54:37Z</time>
      </trkpt>
      <trkpt lat="48.55361002497375" lon="10.117016974836588">
        <ele>526.46000000000004</ele>
        <time>2025-05-20T14:54:47Z</time>
      </trkpt>
      <trkpt lat="48.555054981261492" lon="10.120365964248776">
        <ele>524.53999999999996</ele>
        <time>2025-05-20T14:54:56Z</time>
      </trkpt>
      <trkpt lat="48.55726595968008" lon="10.125571964308619">
        <ele>518.28999999999996</ele>
        <time>2025-05-20T14:55:10Z</time>
      </trkpt>
      <trkpt lat="48.558872016146779" lon="10.129249021410942">
        <ele>521.64999999999998</ele>
        <time>2025-05-20T14:55:20Z</time>
      </trkpt>
      <trkpt lat="48.560030981898308" lon="10.131777003407478">
        <ele>525.01999999999998</ele>
        <time>2025-05-20T14:55:27Z</time>
      </trkpt>
      <trkpt lat="48.561880029737949" lon="10.135750025510788">
        <ele>533.66999999999996</ele>
        <time>2025-05-20T14:55:38Z</time>
      </trkpt>
      <trkpt lat="48.563426993787289" lon="10.138924000784755">
        <ele>540.39999999999998</ele>
        <time>2025-05-20T14:55:47Z</time>
      </trkpt>
      <trkpt lat="48.56553596444428" lon="10.143206985667348">
        <ele>545.69000000000005</ele>
        <time>2025-05-20T14:55:59Z</time>
      </trkpt>
      <trkpt lat="48.568052966147661" lon="10.148140992969275">
        <ele>544.72000000000003</ele>
        <time>2025-05-20T14:56:13Z</time>
      </trkpt>
      <trkpt lat="48.570738025009632" lon="10.153385968878865">
        <ele>542.79999999999995</ele>
        <time>2025-05-20T14:56:28Z</time>
      </trkpt>
      <trkpt lat="48.573587033897638" lon="10.15900201164186">
        <ele>541.36000000000001</ele>
        <time>2025-05-20T14:56:44Z</time>
      </trkpt>
      <trkpt lat="48.576634023338556" lon="10.164920976385474">
        <ele>537.50999999999999</ele>
        <time>2025-05-20T14:57:01Z</time>
      </trkpt>
      <trkpt lat="48.578816000372171" lon="10.169075969606638">
        <ele>538.96000000000004</ele>
        <time>2025-05-20T14:57:13Z</time>
      </trkpt>
      <trkpt lat="48.581123035401106" lon="10.173027031123638">
        <ele>540.39999999999998</ele>
        <time>2025-05-20T14:57:25Z</time>
      </trkpt>
      <trkpt lat="48.582988008856773" lon="10.175872016698122">
        <ele>544.72000000000003</ele>
        <time>2025-05-20T14:57:34Z</time>
      </trkpt>
      <trkpt lat="48.5853869933635" lon="10.179145988076925">
        <ele>543.75999999999999</ele>
        <time>2025-05-20T14:57:45Z</time>
      </trkpt>
      <trkpt lat="48.588364999741316" lon="10.18272296525538">
        <ele>538.96000000000004</ele>
        <time>2025-05-20T14:57:58Z</time>
      </trkpt>
      <trkpt lat="48.592008026316762" lon="10.186446961015463">
        <ele>534.14999999999998</ele>
        <time>2025-05-20T14:58:13Z</time>
      </trkpt>
      <trkpt lat="48.595578968524933" lon="10.189500991255045">
        <ele>529.34000000000003</ele>
        <time>2025-05-20T14:58:27Z</time>
      </trkpt>
      <trkpt lat="48.599232975393534" lon="10.192341031506658">
        <ele>528.86000000000001</ele>
        <time>2025-05-20T14:58:41Z</time>
      </trkpt>
      <trkpt lat="48.602323969826102" lon="10.194851998239756">
        <ele>523.58000000000004</ele>
        <time>2025-05-20T14:58:53Z</time>
      </trkpt>
      <trkpt lat="48.605974037200212" lon="10.19851497374475">
        <ele>521.64999999999998</ele>
        <time>2025-05-20T14:59:08Z</time>
      </trkpt>
      <trkpt lat="48.607810009270906" lon="10.200710026547313">
        <ele>523.58000000000004</ele>
        <time>2025-05-20T14:59:16Z</time>
      </trkpt>
      <trkpt lat="48.60803397372365" lon="10.2009869646281">
        <ele>524.05999999999995</ele>
        <time>2025-05-20T14:59:17Z</time>
      </trkpt>
      <trkpt lat="48.610060969367623" lon="10.203530034050345">
        <ele>526.46000000000004</ele>
        <time>2025-05-20T14:59:26Z</time>
      </trkpt>
      <trkpt lat="48.612056029960513" lon="10.206083999946713">
        <ele>528.38</ele>
        <time>2025-05-20T14:59:35Z</time>
      </trkpt>
      <trkpt lat="48.614316964522004" lon="10.2089530415833">
        <ele>525.98000000000002</ele>
        <time>2025-05-20T14:59:45Z</time>
      </trkpt>
      <trkpt lat="48.616689965128899" lon="10.211956026032567">
        <ele>519.73000000000002</ele>
        <time>2025-05-20T14:59:56Z</time>
      </trkpt>
      <trkpt lat="48.617818001657724" lon="10.213393019512296">
        <ele>513.96000000000004</ele>
        <time>2025-05-20T15:00:03Z</time>
      </trkpt>
      <trkpt lat="48.618915025144815" lon="10.214771004393697">
        <ele>508.67000000000002</ele>
        <time>2025-05-20T15:00:10Z</time>
      </trkpt>
      <trkpt lat="48.620471963658929" lon="10.216646958142519">
        <ele>507.23000000000002</ele>
        <time>2025-05-20T15:00:19Z</time>
      </trkpt>
      <trkpt lat="48.622389994561672" lon="10.218397015705705">
        <ele>500.01999999999998</ele>
        <time>2025-05-20T15:00:29Z</time>
      </trkpt>
      <trkpt lat="48.623732021078467" lon="10.219264961779118">
        <ele>496.66000000000003</ele>
        <time>2025-05-20T15:00:36Z</time>
      </trkpt>
      <trkpt lat="48.625895977020264" lon="10.220197029411793">
        <ele>498.57999999999998</ele>
        <time>2025-05-20T15:00:47Z</time>
      </trkpt>
      <trkpt lat="48.628170993179083" lon="10.220552003011107">
        <ele>501.94999999999999</ele>
        <time>2025-05-20T15:00:58Z</time>
      </trkpt>
      <trkpt lat="48.630344001576304" lon="10.220342958346009">
        <ele>505.31</ele>
        <time>2025-05-20T15:01:08Z</time>
      </trkpt>
      <trkpt lat="48.632275024428964" lon="10.219685984775424">
        <ele>508.67000000000002</ele>
        <time>2025-05-20T15:01:16Z</time>
      </trkpt>
      <trkpt lat="48.634463036432862" lon="10.218435991555452">
        <ele>510.60000000000002</ele>
        <time>2025-05-20T15:01:24Z</time>
      </trkpt>
      <trkpt lat="48.637497033923864" lon="10.216805962845683">
        <ele>516.37</ele>
        <time>2025-05-20T15:01:35Z</time>
      </trkpt>
      <trkpt lat="48.639832986518741" lon="10.216362979263067">
        <ele>519.25</ele>
        <time>2025-05-20T15:01:43Z</time>
      </trkpt>
      <trkpt lat="48.642167011275887" lon="10.216664979234338">
        <ele>520.21000000000004</ele>
        <time>2025-05-20T15:01:51Z</time>
      </trkpt>
      <trkpt lat="48.644658029079437" lon="10.217926958575845">
        <ele>520.21000000000004</ele>
        <time>2025-05-20T15:02:00Z</time>
      </trkpt>
      <trkpt lat="48.646109020337462" lon="10.219108974561095">
        <ele>519.73000000000002</ele>
        <time>2025-05-20T15:02:06Z</time>
      </trkpt>
      <trkpt lat="48.647384997457266" lon="10.220587961375713">
        <ele>521.16999999999996</ele>
        <time>2025-05-20T15:02:13Z</time>
      </trkpt>
      <trkpt lat="48.648816039785743" lon="10.222862977534533">
        <ele>524.53999999999996</ele>
        <time>2025-05-20T15:02:23Z</time>
      </trkpt>
      <trkpt lat="48.649635035544634" lon="10.224562995135784">
        <ele>527.89999999999998</ele>
        <time>2025-05-20T15:02:31Z</time>
      </trkpt>
      <trkpt lat="48.650833982974291" lon="10.227007996290922">
        <ele>533.19000000000005</ele>
        <time>2025-05-20T15:02:43Z</time>
      </trkpt>
      <trkpt lat="48.652024967595935" lon="10.228847991675138">
        <ele>535.59000000000003</ele>
        <time>2025-05-20T15:02:53Z</time>
      </trkpt>
      <trkpt lat="48.653165996074677" lon="10.230196975171566">
        <ele>537.50999999999999</ele>
        <time>2025-05-20T15:03:00Z</time>
      </trkpt>
      <trkpt lat="48.654842041432858" lon="10.231556016951799">
        <ele>541.36000000000001</ele>
        <time>2025-05-20T15:03:08Z</time>
      </trkpt>
      <trkpt lat="48.656749008223414" lon="10.232527982443571">
        <ele>544.72000000000003</ele>
        <time>2025-05-20T15:03:15Z</time>
      </trkpt>
      <trkpt lat="48.659057971090078" lon="10.232927966862917">
        <ele>553.38</ele>
        <time>2025-05-20T15:03:23Z</time>
      </trkpt>
      <trkpt lat="48.661085972562432" lon="10.232686987146735">
        <ele>562.02999999999997</ele>
        <time>2025-05-20T15:03:30Z</time>
      </trkpt>
      <trkpt lat="48.6633360106498" lon="10.231718961149454">
        <ele>571.63999999999999</ele>
        <time>2025-05-20T15:03:38Z</time>
      </trkpt>
      <trkpt lat="48.665689984336495" lon="10.229916013777256">
        <ele>581.25</ele>
        <time>2025-05-20T15:03:47Z</time>
      </trkpt>
      <trkpt lat="48.668958004564047" lon="10.226921997964382">
        <ele>588.95000000000005</ele>
        <time>2025-05-20T15:04:00Z</time>
      </trkpt>
      <trkpt lat="48.672461975365877" lon="10.223692031577229">
        <ele>593.26999999999998</ele>
        <time>2025-05-20T15:04:14Z</time>
      </trkpt>
      <trkpt lat="48.675965024158359" lon="10.220458963885903">
        <ele>595.19000000000005</ele>
        <time>2025-05-20T15:04:28Z</time>
      </trkpt>
      <trkpt lat="48.679026011377573" lon="10.217865016311407">
        <ele>599.03999999999996</ele>
        <time>2025-05-20T15:04:40Z</time>
      </trkpt>
      <trkpt lat="48.682033019140363" lon="10.21608998067677">
        <ele>601.44000000000005</ele>
        <time>2025-05-20T15:04:51Z</time>
      </trkpt>
      <trkpt lat="48.684876998886466" lon="10.215039979666471">
        <ele>599.51999999999998</ele>
        <time>2025-05-20T15:05:01Z</time>
      </trkpt>
      <trkpt lat="48.687789039686322" lon="10.214548967778683">
        <ele>591.83000000000004</ele>
        <time>2025-05-20T15:05:11Z</time>
      </trkpt>
      <trkpt lat="48.689927011728287" lon="10.214496999979019">
        <ele>583.65999999999997</ele>
        <time>2025-05-20T15:05:19Z</time>
      </trkpt>
      <trkpt lat="48.692811978980899" lon="10.214710989966989">
        <ele>573.55999999999995</ele>
        <time>2025-05-20T15:05:29Z</time>
      </trkpt>
      <trkpt lat="48.695396035909653" lon="10.21497200243175">
        <ele>569.24000000000001</ele>
        <time>2025-05-20T15:05:38Z</time>
      </trkpt>
      <trkpt lat="48.698325008153915" lon="10.21522899158299">
        <ele>569.24000000000001</ele>
        <time>2025-05-20T15:05:48Z</time>
      </trkpt>
      <trkpt lat="48.701240988448262" lon="10.215218011289835">
        <ele>576.92999999999995</ele>
        <time>2025-05-20T15:05:58Z</time>
      </trkpt>
      <trkpt lat="48.70385798625648" lon="10.214847028255463">
        <ele>583.65999999999997</ele>
        <time>2025-05-20T15:06:07Z</time>
      </trkpt>
      <trkpt lat="48.706179019063711" lon="10.214269012212753">
        <ele>588.95000000000005</ele>
        <time>2025-05-20T15:06:15Z</time>
      </trkpt>
      <trkpt lat="48.708466021344066" lon="10.213398970663548">
        <ele>593.26999999999998</ele>
        <time>2025-05-20T15:06:23Z</time>
      </trkpt>
      <trkpt lat="48.712098989635706" lon="10.211628964170814">
        <ele>595.19000000000005</ele>
        <time>2025-05-20T15:06:36Z</time>
      </trkpt>
      <trkpt lat="48.715099962428212" lon="10.209782011806965">
        <ele>594.71000000000004</ele>
        <time>2025-05-20T15:06:47Z</time>
      </trkpt>
      <trkpt lat="48.718052990734577" lon="10.207768008112907">
        <ele>594.23000000000002</ele>
        <time>2025-05-20T15:06:58Z</time>
      </trkpt>
      <trkpt lat="48.721541035920382" lon="10.205297023057938">
        <ele>599.51999999999998</ele>
        <time>2025-05-20T15:07:11Z</time>
      </trkpt>
      <trkpt lat="48.72394597157836" lon="10.203592982143164">
        <ele>605.28999999999996</ele>
        <time>2025-05-20T15:07:20Z</time>
      </trkpt>
      <trkpt lat="48.727441979572177" lon="10.201290976256132">
        <ele>613.46000000000004</ele>
        <time>2025-05-20T15:07:33Z</time>
      </trkpt>
      <trkpt lat="48.730138018727303" lon="10.19969598390162">
        <ele>614.89999999999998</ele>
        <time>2025-05-20T15:07:43Z</time>
      </trkpt>
      <trkpt lat="48.733523972332478" lon="10.198124041780829">
        <ele>615.86000000000001</ele>
        <time>2025-05-20T15:07:55Z</time>
      </trkpt>
      <trkpt lat="48.73572195880115" lon="10.197388026863337">
        <ele>615.86000000000001</ele>
        <time>2025-05-20T15:08:03Z</time>
      </trkpt>
      <trkpt lat="48.737740991637111" lon="10.196892991662025">
        <ele>616.34000000000003</ele>
        <time>2025-05-20T15:08:11Z</time>
      </trkpt>
      <trkpt lat="48.740309961140156" lon="10.196613958105445">
        <ele>614.41999999999996</ele>
        <time>2025-05-20T15:08:22Z</time>
      </trkpt>
      <trkpt lat="48.743343958631158" lon="10.196619993075728">
        <ele>610.57000000000005</ele>
        <time>2025-05-20T15:08:36Z</time>
      </trkpt>
      <trkpt lat="48.74581896699965" lon="10.197019977495074">
        <ele>609.13</ele>
        <time>2025-05-20T15:08:47Z</time>
      </trkpt>
      <trkpt lat="48.747744038701057" lon="10.197465978562832">
        <ele>609.13</ele>
        <time>2025-05-20T15:08:54Z</time>
      </trkpt>
      <trkpt lat="48.751201992854476" lon="10.198824014514685">
        <ele>611.05999999999995</ele>
        <time>2025-05-20T15:09:06Z</time>
      </trkpt>
      <trkpt lat="48.754803026095033" lon="10.200817985460162">
        <ele>614.89999999999998</ele>
        <time>2025-05-20T15:09:19Z</time>
      </trkpt>
      <trkpt lat="48.757258001714945" lon="10.202439967542887">
        <ele>617.29999999999995</ele>
        <time>2025-05-20T15:09:28Z</time>
      </trkpt>
      <trkpt lat="48.761036982759833" lon="10.205020001158118">
        <ele>620.66999999999996</ele>
        <time>2025-05-20T15:09:42Z</time>
      </trkpt>
      <trkpt lat="48.764833984896541" lon="10.207489980384707">
        <ele>623.07000000000005</ele>
        <time>2025-05-20T15:09:56Z</time>
      </trkpt>
      <trkpt lat="48.76730496995151" lon="10.208852039650083">
        <ele>623.07000000000005</ele>
        <time>2025-05-20T15:10:05Z</time>
      </trkpt>
      <trkpt lat="48.770964005962014" lon="10.210401015356183">
        <ele>624.02999999999997</ele>
        <time>2025-05-20T15:10:18Z</time>
      </trkpt>
      <trkpt lat="48.772096987813711" lon="10.210811980068684">
        <ele>624.50999999999999</ele>
        <time>2025-05-20T15:10:22Z</time>
      </trkpt>
      <trkpt lat="48.772385995835066" lon="10.210917005315423">
        <ele>624.99000000000001</ele>
        <time>2025-05-20T15:10:23Z</time>
      </trkpt>
      <trkpt lat="48.776157014071941" lon="10.211830968037248">
        <ele>624.02999999999997</ele>
        <time>2025-05-20T15:10:36Z</time>
      </trkpt>
      <trkpt lat="48.779370971024036" lon="10.212249979376793">
        <ele>618.25999999999999</ele>
        <time>2025-05-20T15:10:47Z</time>
      </trkpt>
      <trkpt lat="48.782301032915711" lon="10.212312005460262">
        <ele>612.01999999999998</ele>
        <time>2025-05-20T15:10:57Z</time>
      </trkpt>
      <trkpt lat="48.785526975989342" lon="10.212054010480642">
        <ele>603.85000000000002</ele>
        <time>2025-05-20T15:11:08Z</time>
      </trkpt>
      <trkpt lat="48.788999011740088" lon="10.211403993889689">
        <ele>595.19000000000005</ele>
        <time>2025-05-20T15:11:20Z</time>
      </trkpt>
      <trkpt lat="48.792475992813706" lon="10.210644006729126">
        <ele>587.01999999999998</ele>
        <time>2025-05-20T15:11:32Z</time>
      </trkpt>
      <trkpt lat="48.794948989525437" lon="10.210161963477731">
        <ele>582.22000000000003</ele>
        <time>2025-05-20T15:11:41Z</time>
      </trkpt>
      <trkpt lat="48.797556012868881" lon="10.209838002920151">
        <ele>580.28999999999996</ele>
        <time>2025-05-20T15:11:51Z</time>
      </trkpt>
      <trkpt lat="48.800835013389587" lon="10.209849989041686">
        <ele>577.40999999999997</ele>
        <time>2025-05-20T15:12:01Z</time>
      </trkpt>
      <trkpt lat="48.803469026461244" lon="10.210178978741169">
        <ele>578.37</ele>
        <time>2025-05-20T15:12:10Z</time>
      </trkpt>
      <trkpt lat="48.806349970400333" lon="10.2109320089221">
        <ele>580.76999999999998</ele>
        <time>2025-05-20T15:12:20Z</time>
      </trkpt>
      <trkpt lat="48.806634033098817" lon="10.211026975885034">
        <ele>581.73000000000002</ele>
        <time>2025-05-20T15:12:21Z</time>
      </trkpt>
      <trkpt lat="48.809764003381133" lon="10.212272023782134">
        <ele>587.98000000000002</ele>
        <time>2025-05-20T15:12:32Z</time>
      </trkpt>
      <trkpt lat="48.812803030014038" lon="10.213870033621788">
        <ele>593.75</ele>
        <time>2025-05-20T15:12:43Z</time>
      </trkpt>
      <trkpt lat="48.816125029698014" lon="10.215599974617362">
        <ele>601.44000000000005</ele>
        <time>2025-05-20T15:12:55Z</time>
      </trkpt>
      <trkpt lat="48.818991975858808" lon="10.21653899922967">
        <ele>611.05999999999995</ele>
        <time>2025-05-20T15:13:05Z</time>
      </trkpt>
      <trkpt lat="48.821288030594587" lon="10.216684006154537">
        <ele>616.34000000000003</ele>
        <time>2025-05-20T15:13:13Z</time>
      </trkpt>
      <trkpt lat="48.82370101287961" lon="10.216312017291784">
        <ele>623.54999999999995</ele>
        <time>2025-05-20T15:13:22Z</time>
      </trkpt>
      <trkpt lat="48.82565600797534" lon="10.215590000152588">
        <ele>626.91999999999996</ele>
        <time>2025-05-20T15:13:29Z</time>
      </trkpt>
      <trkpt lat="48.828116012737155" lon="10.214126016944647">
        <ele>629.79999999999995</ele>
        <time>2025-05-20T15:13:38Z</time>
      </trkpt>
      <trkpt lat="48.830362027511001" lon="10.212048981338739">
        <ele>632.20000000000005</ele>
        <time>2025-05-20T15:13:47Z</time>
      </trkpt>
      <trkpt lat="48.832353986799717" lon="10.209465008229017">
        <ele>635.09000000000003</ele>
        <time>2025-05-20T15:13:56Z</time>
      </trkpt>
      <trkpt lat="48.834440996870399" lon="10.20633403211832">
        <ele>638.92999999999995</ele>
        <time>2025-05-20T15:14:06Z</time>
      </trkpt>
      <trkpt lat="48.836820032447577" lon="10.203019995242357">
        <ele>643.74000000000001</ele>
        <time>2025-05-20T15:14:17Z</time>
      </trkpt>
      <trkpt lat="48.839288000017405" lon="10.200648000463843">
        <ele>646.62</ele>
        <time>2025-05-20T15:14:27Z</time>
      </trkpt>
      <trkpt lat="48.841697964817286" lon="10.199036998674273">
        <ele>648.07000000000005</ele>
        <time>2025-05-20T15:14:36Z</time>
      </trkpt>
      <trkpt lat="48.844527024775743" lon="10.197882978245616">
        <ele>649.99000000000001</ele>
        <time>2025-05-20T15:14:46Z</time>
      </trkpt>
      <trkpt lat="48.846850991249084" lon="10.197485005483031">
        <ele>652.38999999999999</ele>
        <time>2025-05-20T15:14:54Z</time>
      </trkpt>
      <trkpt lat="48.849491961300373" lon="10.197502020746469">
        <ele>652.87</ele>
        <time>2025-05-20T15:15:03Z</time>
      </trkpt>
      <trkpt lat="48.853312013670802" lon="10.197945004329085">
        <ele>656.72000000000003</ele>
        <time>2025-05-20T15:15:16Z</time>
      </trkpt>
      <trkpt lat="48.855947032570839" lon="10.197853976860642">
        <ele>659.12</ele>
        <time>2025-05-20T15:15:25Z</time>
      </trkpt>
      <trkpt lat="48.858230011537671" lon="10.197001034393907">
        <ele>657.67999999999995</ele>
        <time>2025-05-20T15:15:33Z</time>
      </trkpt>
      <trkpt lat="48.86033303104341" lon="10.195405958220363">
        <ele>655.27999999999997</ele>
        <time>2025-05-20T15:15:41Z</time>
      </trkpt>
      <trkpt lat="48.862153999507427" lon="10.193161033093929">
        <ele>646.62</ele>
        <time>2025-05-20T15:15:49Z</time>
      </trkpt>
      <trkpt lat="48.863608008250594" lon="10.190360974520445">
        <ele>637.49000000000001</ele>
        <time>2025-05-20T15:15:57Z</time>
      </trkpt>
      <trkpt lat="48.864777032285929" lon="10.186777962371707">
        <ele>624.02999999999997</ele>
        <time>2025-05-20T15:16:06Z</time>
      </trkpt>
      <trkpt lat="48.865924011915922" lon="10.182218961417675">
        <ele>607.21000000000004</ele>
        <time>2025-05-20T15:16:17Z</time>
      </trkpt>
      <trkpt lat="48.867009971290827" lon="10.17859797924757">
        <ele>592.78999999999996</ele>
        <time>2025-05-20T15:16:26Z</time>
      </trkpt>
      <trkpt lat="48.868357026949525" lon="10.175432972609997">
        <ele>582.70000000000005</ele>
        <time>2025-05-20T15:16:35Z</time>
      </trkpt>
      <trkpt lat="48.869703998789191" lon="10.173028958961368">
        <ele>576.45000000000005</ele>
        <time>2025-05-20T15:16:43Z</time>
      </trkpt>
      <trkpt lat="48.87591197155416" lon="10.166717972606421">
        <ele>550.49000000000001</ele>
        <time>2025-05-20T15:17:12Z</time>
      </trkpt>
      <trkpt lat="48.878242978826165" lon="10.165561018511653">
        <ele>542.32000000000005</ele>
        <time>2025-05-20T15:17:21Z</time>
      </trkpt>
      <trkpt lat="48.880775989964604" lon="10.16497696749866">
        <ele>534.63</ele>
        <time>2025-05-20T15:17:30Z</time>
      </trkpt>
      <trkpt lat="48.883370021358132" lon="10.164991971105337">
        <ele>525.01999999999998</ele>
        <time>2025-05-20T15:17:39Z</time>
      </trkpt>
      <trkpt lat="48.885972015559673" lon="10.165607035160065">
        <ele>516.85000000000002</ele>
        <time>2025-05-20T15:17:48Z</time>
      </trkpt>
      <trkpt lat="48.888763021677732" lon="10.166985020041466">
        <ele>507.23000000000002</ele>
        <time>2025-05-20T15:17:58Z</time>
      </trkpt>
      <trkpt lat="48.891082964837551" lon="10.168902967125177">
        <ele>500.5</ele>
        <time>2025-05-20T15:18:07Z</time>
      </trkpt>
      <trkpt lat="48.893430987372994" lon="10.171544020995498">
        <ele>495.69999999999999</ele>
        <time>2025-05-20T15:18:17Z</time>
      </trkpt>
      <trkpt lat="48.896661959588528" lon="10.176048958674073">
        <ele>485.60000000000002</ele>
        <time>2025-05-20T15:18:32Z</time>
      </trkpt>
      <trkpt lat="48.899724036455154" lon="10.180176040157676">
        <ele>476.94999999999999</ele>
        <time>2025-05-20T15:18:46Z</time>
      </trkpt>
      <trkpt lat="48.903000019490719" lon="10.183890983462334">
        <ele>474.55000000000001</ele>
        <time>2025-05-20T15:19:00Z</time>
      </trkpt>
      <trkpt lat="48.906508013606071" lon="10.187125978991389">
        <ele>479.35000000000002</ele>
        <time>2025-05-20T15:19:14Z</time>
      </trkpt>
      <trkpt lat="48.909422988072038" lon="10.189305022358894">
        <ele>481.27999999999997</ele>
        <time>2025-05-20T15:19:25Z</time>
      </trkpt>
      <trkpt lat="48.912423038855195" lon="10.191132025793195">
        <ele>478.38999999999999</ele>
        <time>2025-05-20T15:19:36Z</time>
      </trkpt>
      <trkpt lat="48.91522603109479" lon="10.192453013733029">
        <ele>473.58999999999997</ele>
        <time>2025-05-20T15:19:46Z</time>
      </trkpt>
      <trkpt lat="48.918668981641531" lon="10.193710969761014">
        <ele>468.77999999999997</ele>
        <time>2025-05-20T15:19:58Z</time>
      </trkpt>
      <trkpt lat="48.922745017334819" lon="10.194568019360304">
        <ele>467.33999999999997</ele>
        <time>2025-05-20T15:20:12Z</time>
      </trkpt>
      <trkpt lat="48.926282012835145" lon="10.194869013503194">
        <ele>470.69999999999999</ele>
        <time>2025-05-20T15:20:24Z</time>
      </trkpt>
      <trkpt lat="48.930427031591535" lon="10.194755019620061">
        <ele>475.50999999999999</ele>
        <time>2025-05-20T15:20:38Z</time>
      </trkpt>
      <trkpt lat="48.933084011077881" lon="10.194477997720242">
        <ele>478.38999999999999</ele>
        <time>2025-05-20T15:20:47Z</time>
      </trkpt>
      <trkpt lat="48.936017006635666" lon="10.193953961133957">
        <ele>481.75999999999999</ele>
        <time>2025-05-20T15:20:57Z</time>
      </trkpt>
      <trkpt lat="48.939519971609116" lon="10.193117028102279">
        <ele>486.07999999999998</ele>
        <time>2025-05-20T15:21:09Z</time>
      </trkpt>
      <trkpt lat="48.942059017717838" lon="10.1923250220716">
        <ele>491.37</ele>
        <time>2025-05-20T15:21:18Z</time>
      </trkpt>
      <trkpt lat="48.944347025826573" lon="10.191461015492678">
        <ele>497.13999999999999</ele>
        <time>2025-05-20T15:21:26Z</time>
      </trkpt>
      <trkpt lat="48.947229981422424" lon="10.1902009639889">
        <ele>501.94999999999999</ele>
        <time>2025-05-20T15:21:36Z</time>
      </trkpt>
      <trkpt lat="48.949938006699085" lon="10.188900008797646">
        <ele>504.82999999999998</ele>
        <time>2025-05-20T15:21:46Z</time>
      </trkpt>
      <trkpt lat="48.952659023925662" lon="10.187500985339284">
        <ele>507.70999999999998</ele>
        <time>2025-05-20T15:21:56Z</time>
      </trkpt>
      <trkpt lat="48.956331973895431" lon="10.185885960236192">
        <ele>512.03999999999996</ele>
        <time>2025-05-20T15:22:09Z</time>
      </trkpt>
      <trkpt lat="48.958636997267604" lon="10.185228986665606">
        <ele>513.96000000000004</ele>
        <time>2025-05-20T15:22:17Z</time>
      </trkpt>
      <trkpt lat="48.961598994210362" lon="10.184901002794504">
        <ele>514.91999999999996</ele>
        <time>2025-05-20T15:22:27Z</time>
      </trkpt>
      <trkpt lat="48.964251028373837" lon="10.185076016932726">
        <ele>514.44000000000005</ele>
        <time>2025-05-20T15:22:36Z</time>
      </trkpt>
      <trkpt lat="48.96715996786952" lon="10.185756040737033">
        <ele>511.56</ele>
        <time>2025-05-20T15:22:46Z</time>
      </trkpt>
      <trkpt lat="48.970278035849333" lon="10.187076022848487">
        <ele>508.67000000000002</ele>
        <time>2025-05-20T15:22:57Z</time>
      </trkpt>
      <trkpt lat="48.973814025521278" lon="10.189342992380261">
        <ele>511.07999999999998</ele>
        <time>2025-05-20T15:23:10Z</time>
      </trkpt>
      <trkpt lat="48.976469999179244" lon="10.191221041604877">
        <ele>517.80999999999995</ele>
        <time>2025-05-20T15:23:20Z</time>
      </trkpt>
      <trkpt lat="48.97951397113502" lon="10.193175030872226">
        <ele>525.01999999999998</ele>
        <time>2025-05-20T15:23:31Z</time>
      </trkpt>
      <trkpt lat="48.981092032045126" lon="10.193939041346312">
        <ele>528.38</ele>
        <time>2025-05-20T15:23:37Z</time>
      </trkpt>
      <trkpt lat="48.982038013637066" lon="10.194551004096866">
        <ele>531.26999999999998</ele>
        <time>2025-05-20T15:23:43Z</time>
      </trkpt>
      <trkpt lat="48.982494994997978" lon="10.194835988804698">
        <ele>532.71000000000004</ele>
        <time>2025-05-20T15:23:47Z</time>
      </trkpt>
      <trkpt lat="48.982569007202983" lon="10.194945959374309">
        <ele>533.19000000000005</ele>
        <time>2025-05-20T15:23:48Z</time>
      </trkpt>
      <trkpt lat="48.982794983312488" lon="10.195193979889154">
        <ele>533.66999999999996</ele>
        <time>2025-05-20T15:23:51Z</time>
      </trkpt>
      <trkpt lat="48.983257999643683" lon="10.195446023717523">
        <ele>534.63</ele>
        <time>2025-05-20T15:23:57Z</time>
      </trkpt>
      <trkpt lat="48.983308961614966" lon="10.195469995960593">
        <ele>534.63</ele>
        <time>2025-05-20T15:23:58Z</time>
      </trkpt>
      <trkpt lat="48.983351960778236" lon="10.195490028709173">
        <ele>534.63</ele>
        <time>2025-05-20T15:23:59Z</time>
      </trkpt>
      <trkpt lat="48.983388002961874" lon="10.19550796598196">
        <ele>534.63</ele>
        <time>2025-05-20T15:24:00Z</time>
      </trkpt>
      <trkpt lat="48.983417004346848" lon="10.195521963760257">
        <ele>534.63</ele>
        <time>2025-05-20T15:24:01Z</time>
      </trkpt>
      <trkpt lat="48.983439970761538" lon="10.195532022044063">
        <ele>534.63</ele>
        <time>2025-05-20T15:24:02Z</time>
      </trkpt>
      <trkpt lat="48.983457991853356" lon="10.195540990680456">
        <ele>534.63</ele>
        <time>2025-05-20T15:24:03Z</time>
      </trkpt>
      <trkpt lat="48.983474001288414" lon="10.195549037307501">
        <ele>534.14999999999998</ele>
        <time>2025-05-20T15:24:04Z</time>
      </trkpt>
      <trkpt lat="48.983490010723472" lon="10.195557000115514">
        <ele>534.14999999999998</ele>
        <time>2025-05-20T15:24:05Z</time>
      </trkpt>
      <trkpt lat="48.9835109654814" lon="10.195566974580288">
        <ele>533.66999999999996</ele>
        <time>2025-05-20T15:24:06Z</time>
      </trkpt>
      <trkpt lat="48.9835109654814" lon="10.195566974580288">
        <ele>533.66999999999996</ele>
        <time>2025-05-20T15:24:17Z</time>
      </trkpt>
      <trkpt lat="48.9835109654814" lon="10.195566974580288">
        <ele>533.66999999999996</ele>
        <time>2025-05-20T15:24:49Z</time>
      </trkpt>
      <trkpt lat="48.9835109654814" lon="10.195566974580288">
        <ele>533.66999999999996</ele>
        <time>2025-05-20T15:25:06Z</time>
      </trkpt>
      <trkpt lat="48.983532004058361" lon="10.195883978158236">
        <ele>550.49000000000001</ele>
        <time>2025-05-20T15:28:01Z</time>
      </trkpt>
      <trkpt lat="48.983632000163198" lon="10.195623971521854">
        <ele>542.32000000000005</ele>
        <time>2025-05-20T15:28:04Z</time>
      </trkpt>
      <trkpt lat="48.9837889932096" lon="10.19569898955524">
        <ele>539.44000000000005</ele>
        <time>2025-05-20T15:28:06Z</time>
      </trkpt>
      <trkpt lat="48.9837889932096" lon="10.19569898955524">
        <ele>538.96000000000004</ele>
        <time>2025-05-20T15:28:07Z</time>
      </trkpt>
      <trkpt lat="48.983821012079716" lon="10.19569898955524">
        <ele>537.99000000000001</ele>
        <time>2025-05-20T15:28:08Z</time>
      </trkpt>
      <trkpt lat="48.983943974599242" lon="10.19569898955524">
        <ele>537.02999999999997</ele>
        <time>2025-05-20T15:28:10Z</time>
      </trkpt>
      <trkpt lat="48.984206998720765" lon="10.195476030930877">
        <ele>533.66999999999996</ele>
        <time>2025-05-20T15:28:15Z</time>
      </trkpt>
      <trkpt lat="48.984363991767168" lon="10.195459015667439">
        <ele>533.66999999999996</ele>
        <time>2025-05-20T15:28:16Z</time>
      </trkpt>
      <trkpt lat="48.984450995922089" lon="10.195449041202664">
        <ele>533.66999999999996</ele>
        <time>2025-05-20T15:28:17Z</time>
      </trkpt>
      <trkpt lat="48.985479958355427" lon="10.195607962086797">
        <ele>532.71000000000004</ele>
        <time>2025-05-20T15:28:27Z</time>
      </trkpt>
      <trkpt lat="48.985655978322029" lon="10.195638975128531">
        <ele>532.23000000000002</ele>
        <time>2025-05-20T15:28:29Z</time>
      </trkpt>
      <trkpt lat="48.985749017447233" lon="10.195654984563589">
        <ele>531.75</ele>
        <time>2025-05-20T15:28:30Z</time>
      </trkpt>
      <trkpt lat="48.986883005127311" lon="10.195539984852076">
        <ele>530.29999999999995</ele>
        <time>2025-05-20T15:28:39Z</time>
      </trkpt>
      <trkpt lat="48.987954966723919" lon="10.195516012609005">
        <ele>529.82000000000005</ele>
        <time>2025-05-20T15:28:44Z</time>
      </trkpt>
      <trkpt lat="48.99057699367404" lon="10.195409981533885">
        <ele>525.5</ele>
        <time>2025-05-20T15:28:54Z</time>
      </trkpt>
      <trkpt lat="48.993295999243855" lon="10.194953000172973">
        <ele>519.73000000000002</ele>
        <time>2025-05-20T15:29:05Z</time>
      </trkpt>
      <trkpt lat="48.995589036494493" lon="10.194442039355636">
        <ele>514.44000000000005</ele>
        <time>2025-05-20T15:29:16Z</time>
      </trkpt>
      <trkpt lat="48.99803202599287" lon="10.193994026631117">
        <ele>511.07999999999998</ele>
        <time>2025-05-20T15:29:27Z</time>
      </trkpt>
      <trkpt lat="49.000954041257501" lon="10.19376796670258">
        <ele>507.70999999999998</ele>
        <time>2025-05-20T15:29:40Z</time>
      </trkpt>
      <trkpt lat="49.003541031852365" lon="10.193967036902905">
        <ele>510.12</ele>
        <time>2025-05-20T15:29:51Z</time>
      </trkpt>
      <trkpt lat="49.006207985803485" lon="10.194608001038432">
        <ele>513.96000000000004</ele>
        <time>2025-05-20T15:30:02Z</time>
      </trkpt>
      <trkpt lat="49.009070992469788" lon="10.195567980408669">
        <ele>518.76999999999998</ele>
        <time>2025-05-20T15:30:13Z</time>
      </trkpt>
      <trkpt lat="49.01242601685226" lon="10.196684030815959">
        <ele>526.46000000000004</ele>
        <time>2025-05-20T15:30:26Z</time>
      </trkpt>
      <trkpt lat="49.015134964138269" lon="10.197272021323442">
        <ele>531.26999999999998</ele>
        <time>2025-05-20T15:30:37Z</time>
      </trkpt>
      <trkpt lat="49.017238989472389" lon="10.197436977177858">
        <ele>534.14999999999998</ele>
        <time>2025-05-20T15:30:47Z</time>
      </trkpt>
      <trkpt lat="49.018252026289701" lon="10.197413004934788">
        <ele>536.07000000000005</ele>
        <time>2025-05-20T15:30:52Z</time>
      </trkpt>
      <trkpt lat="49.022040981799364" lon="10.19688100554049">
        <ele>538.96000000000004</ele>
        <time>2025-05-20T15:31:11Z</time>
      </trkpt>
      <trkpt lat="49.025170030072331" lon="10.19576202146709">
        <ele>532.71000000000004</ele>
        <time>2025-05-20T15:31:20Z</time>
      </trkpt>
      <trkpt lat="49.027334991842508" lon="10.194658041000366">
        <ele>528.86000000000001</ele>
        <time>2025-05-20T15:31:28Z</time>
      </trkpt>
      <trkpt lat="49.030017033219337" lon="10.192837994545698">
        <ele>522.13</ele>
        <time>2025-05-20T15:31:38Z</time>
      </trkpt>
      <trkpt lat="49.032823964953423" lon="10.19039299339056">
        <ele>516.85000000000002</ele>
        <time>2025-05-20T15:31:49Z</time>
      </trkpt>
      <trkpt lat="49.035836001858115" lon="10.187649009749293">
        <ele>513.96000000000004</ele>
        <time>2025-05-20T15:32:01Z</time>
      </trkpt>
      <trkpt lat="49.038349986076355" lon="10.185357984155416">
        <ele>511.07999999999998</ele>
        <time>2025-05-20T15:32:11Z</time>
      </trkpt>
      <trkpt lat="49.041879018768668" lon="10.182162970304489">
        <ele>507.70999999999998</ele>
        <time>2025-05-20T15:32:25Z</time>
      </trkpt>
      <trkpt lat="49.045289028435946" lon="10.179527029395103">
        <ele>505.31</ele>
        <time>2025-05-20T15:32:38Z</time>
      </trkpt>
      <trkpt lat="49.04749003238976" lon="10.178311988711357">
        <ele>502.43000000000001</ele>
        <time>2025-05-20T15:32:46Z</time>
      </trkpt>
      <trkpt lat="49.049764964729548" lon="10.177533980458975">
        <ele>497.13999999999999</ele>
        <time>2025-05-20T15:32:54Z</time>
      </trkpt>
      <trkpt lat="49.052381040528417" lon="10.177300041541457">
        <ele>490.41000000000003</ele>
        <time>2025-05-20T15:33:03Z</time>
      </trkpt>
      <trkpt lat="49.054716993123293" lon="10.17758502624929">
        <ele>484.16000000000003</ele>
        <time>2025-05-20T15:33:11Z</time>
      </trkpt>
      <trkpt lat="49.057268025353551" lon="10.178525978699327">
        <ele>478.38999999999999</ele>
        <time>2025-05-20T15:33:20Z</time>
      </trkpt>
      <trkpt lat="49.059933973476291" lon="10.180344013497233">
        <ele>475.02999999999997</ele>
        <time>2025-05-20T15:33:30Z</time>
      </trkpt>
      <trkpt lat="49.062145035713911" lon="10.182533031329513">
        <ele>477.43000000000001</ele>
        <time>2025-05-20T15:33:39Z</time>
      </trkpt>
      <trkpt lat="49.06467704102397" lon="10.185588989406824">
        <ele>479.35000000000002</ele>
        <time>2025-05-20T15:33:50Z</time>
      </trkpt>
      <trkpt lat="49.068089984357357" lon="10.189805002883077">
        <ele>485.12</ele>
        <time>2025-05-20T15:34:05Z</time>
      </trkpt>
      <trkpt lat="49.06992201693356" lon="10.192080019041896">
        <ele>490.41000000000003</ele>
        <time>2025-05-20T15:34:13Z</time>
      </trkpt>
      <trkpt lat="49.072416974231601" lon="10.195169001817703">
        <ele>496.66000000000003</ele>
        <time>2025-05-20T15:34:24Z</time>
      </trkpt>
      <trkpt lat="49.07509901560843" lon="10.198486978188157">
        <ele>502.91000000000003</ele>
        <time>2025-05-20T15:34:36Z</time>
      </trkpt>
      <trkpt lat="49.07692601904273" lon="10.200724024325609">
        <ele>507.70999999999998</ele>
        <time>2025-05-20T15:34:44Z</time>
      </trkpt>
      <trkpt lat="49.079757006838918" lon="10.203957008197904">
        <ele>515.39999999999998</ele>
        <time>2025-05-20T15:34:56Z</time>
      </trkpt>
      <trkpt lat="49.082356989383698" lon="10.206094980239868">
        <ele>520.69000000000005</ele>
        <time>2025-05-20T15:35:06Z</time>
      </trkpt>
      <trkpt lat="49.084866028279066" lon="10.207462990656495">
        <ele>523.58000000000004</ele>
        <time>2025-05-20T15:35:15Z</time>
      </trkpt>
      <trkpt lat="49.087758036330342" lon="10.208459012210369">
        <ele>525.5</ele>
        <time>2025-05-20T15:35:25Z</time>
      </trkpt>
      <trkpt lat="49.09241896122694" lon="10.20985702984035">
        <ele>519.25</ele>
        <time>2025-05-20T15:35:41Z</time>
      </trkpt>
      <trkpt lat="49.09529697149992" lon="10.210775015875697">
        <ele>513</ele>
        <time>2025-05-20T15:35:51Z</time>
      </trkpt>
      <trkpt lat="49.098117984831333" lon="10.212059961631894">
        <ele>505.79000000000002</ele>
        <time>2025-05-20T15:36:01Z</time>
      </trkpt>
      <trkpt lat="49.100519986823201" lon="10.213823011144996">
        <ele>500.01999999999998</ele>
        <time>2025-05-20T15:36:10Z</time>
      </trkpt>
      <trkpt lat="49.10251303575933" lon="10.215785969048738">
        <ele>494.25999999999999</ele>
        <time>2025-05-20T15:36:18Z</time>
      </trkpt>
      <trkpt lat="49.104731976985931" lon="10.218788031488657">
        <ele>487.52999999999997</ele>
        <time>2025-05-20T15:36:28Z</time>
      </trkpt>
      <trkpt lat="49.106569038704038" lon="10.222290996462107">
        <ele>482.24000000000001</ele>
        <time>2025-05-20T15:36:38Z</time>
      </trkpt>
      <trkpt lat="49.10904698073864" lon="10.227318964898586">
        <ele>475.50999999999999</ele>
        <time>2025-05-20T15:36:52Z</time>
      </trkpt>
      <trkpt lat="49.110788991674781" lon="10.229767989367247">
        <ele>473.58999999999997</ele>
        <time>2025-05-20T15:37:00Z</time>
      </trkpt>
      <trkpt lat="49.113027965649962" lon="10.231911996379495">
        <ele>471.18000000000001</ele>
        <time>2025-05-20T15:37:09Z</time>
      </trkpt>
      <trkpt lat="49.116034973412752" lon="10.233815023675561">
        <ele>468.30000000000001</ele>
        <time>2025-05-20T15:37:20Z</time>
      </trkpt>
      <trkpt lat="49.118676027283072" lon="10.235828021541238">
        <ele>466.86000000000001</ele>
        <time>2025-05-20T15:37:30Z</time>
      </trkpt>
      <trkpt lat="49.120406974107027" lon="10.238276040181518">
        <ele>464.93000000000001</ele>
        <time>2025-05-20T15:37:38Z</time>
      </trkpt>
      <trkpt lat="49.121534004807472" lon="10.240888008847833">
        <ele>464.44999999999999</ele>
        <time>2025-05-20T15:37:45Z</time>
      </trkpt>
      <trkpt lat="49.122255016118288" lon="10.243815975263715">
        <ele>465.42000000000002</ele>
        <time>2025-05-20T15:37:52Z</time>
      </trkpt>
      <trkpt lat="49.122744016349316" lon="10.248270034790039">
        <ele>468.30000000000001</ele>
        <time>2025-05-20T15:38:02Z</time>
      </trkpt>
      <trkpt lat="49.123297976329923" lon="10.251736035570502">
        <ele>469.25999999999999</ele>
        <time>2025-05-20T15:38:10Z</time>
      </trkpt>
      <trkpt lat="49.124161982908845" lon="10.254402989521623">
        <ele>472.63</ele>
        <time>2025-05-20T15:38:17Z</time>
      </trkpt>
      <trkpt lat="49.124775035306811" lon="10.255672009661794">
        <ele>473.58999999999997</ele>
        <time>2025-05-20T15:38:23Z</time>
      </trkpt>
      <trkpt lat="49.124862961471081" lon="10.255840988829732">
        <ele>474.06999999999999</ele>
        <time>2025-05-20T15:38:24Z</time>
      </trkpt>
      <trkpt lat="49.125463021919131" lon="10.256778001785278">
        <ele>475.99000000000001</ele>
        <time>2025-05-20T15:38:32Z</time>
      </trkpt>
      <trkpt lat="49.125949004665017" lon="10.257458025589585">
        <ele>477.43000000000001</ele>
        <time>2025-05-20T15:38:42Z</time>
      </trkpt>
      <trkpt lat="49.125986974686384" lon="10.257503036409616">
        <ele>477.43000000000001</ele>
        <time>2025-05-20T15:38:43Z</time>
      </trkpt>
      <trkpt lat="49.126066016033292" lon="10.257596997544169">
        <ele>477.43000000000001</ele>
        <time>2025-05-20T15:38:45Z</time>
      </trkpt>
      <trkpt lat="49.126174980774522" lon="10.257728006690741">
        <ele>477.43000000000001</ele>
        <time>2025-05-20T15:38:48Z</time>
      </trkpt>
      <trkpt lat="49.126229966059327" lon="10.257794978097081">
        <ele>477.43000000000001</ele>
        <time>2025-05-20T15:38:49Z</time>
      </trkpt>
      <trkpt lat="49.126297021284699" lon="10.257875025272369">
        <ele>477.43000000000001</ele>
        <time>2025-05-20T15:38:50Z</time>
      </trkpt>
      <trkpt lat="49.127023983746767" lon="10.258639035746455">
        <ele>478.38999999999999</ele>
        <time>2025-05-20T15:38:59Z</time>
      </trkpt>
      <trkpt lat="49.12760803475976" lon="10.259163994342089">
        <ele>481.27999999999997</ele>
        <time>2025-05-20T15:39:07Z</time>
      </trkpt>
      <trkpt lat="49.127865023910999" lon="10.259373039007187">
        <ele>482.24000000000001</ele>
        <time>2025-05-20T15:39:11Z</time>
      </trkpt>
      <trkpt lat="49.12838201969862" lon="10.259693982079625">
        <ele>483.19999999999999</ele>
        <time>2025-05-20T15:39:20Z</time>
      </trkpt>
      <trkpt lat="49.128571031615138" lon="10.259801018983126">
        <ele>484.16000000000003</ele>
        <time>2025-05-20T15:39:27Z</time>
      </trkpt>
      <trkpt lat="49.128676978871226" lon="10.259861033409834">
        <ele>484.63999999999999</ele>
        <time>2025-05-20T15:39:32Z</time>
      </trkpt>
      <trkpt lat="49.128702040761709" lon="10.25987402535975">
        <ele>484.63999999999999</ele>
        <time>2025-05-20T15:39:34Z</time>
      </trkpt>
      <trkpt lat="49.128724001348019" lon="10.259887017309666">
        <ele>484.63999999999999</ele>
        <time>2025-05-20T15:39:35Z</time>
      </trkpt>
      <trkpt lat="49.128747973591089" lon="10.259900009259582">
        <ele>484.63999999999999</ele>
        <time>2025-05-20T15:39:36Z</time>
      </trkpt>
      <trkpt lat="49.12876901216805" lon="10.259911995381117">
        <ele>484.63999999999999</ele>
        <time>2025-05-20T15:39:37Z</time>
      </trkpt>
      <trkpt lat="49.128788961097598" lon="10.259923981502652">
        <ele>485.12</ele>
        <time>2025-05-20T15:39:38Z</time>
      </trkpt>
      <trkpt lat="49.128807988017797" lon="10.259934039786458">
        <ele>485.12</ele>
        <time>2025-05-20T15:39:39Z</time>
      </trkpt>
      <trkpt lat="49.128826009109616" lon="10.259944014251232">
        <ele>485.12</ele>
        <time>2025-05-20T15:39:40Z</time>
      </trkpt>
      <trkpt lat="49.129187017679214" lon="10.260125985369086">
        <ele>485.12</ele>
        <time>2025-05-20T15:39:59Z</time>
      </trkpt>
      <trkpt lat="49.12973896600306" lon="10.260361013934016">
        <ele>485.12</ele>
        <time>2025-05-20T15:40:14Z</time>
      </trkpt>
      <trkpt lat="49.130097962915897" lon="10.260462015867233">
        <ele>484.16000000000003</ele>
        <time>2025-05-20T15:40:20Z</time>
      </trkpt>
      <trkpt lat="49.130387976765633" lon="10.260543990880251">
        <ele>483.68000000000001</ele>
        <time>2025-05-20T15:40:25Z</time>
      </trkpt>
      <trkpt lat="49.13046701811254" lon="10.260552959516644">
        <ele>483.19999999999999</ele>
        <time>2025-05-20T15:40:26Z</time>
      </trkpt>
      <trkpt lat="49.13053197786212" lon="10.260561006143689">
        <ele>483.19999999999999</ele>
        <time>2025-05-20T15:40:27Z</time>
      </trkpt>
      <trkpt lat="49.131565969437361" lon="10.260683968663216">
        <ele>483.19999999999999</ele>
        <time>2025-05-20T15:40:40Z</time>
      </trkpt>
      <trkpt lat="49.132570037618279" lon="10.260699978098273">
        <ele>481.75999999999999</ele>
        <time>2025-05-20T15:40:50Z</time>
      </trkpt>
      <trkpt lat="49.133507972583175" lon="10.260706013068557">
        <ele>481.75999999999999</ele>
        <time>2025-05-20T15:41:01Z</time>
      </trkpt>
      <trkpt lat="49.134377008304" lon="10.260710958391428">
        <ele>482.24000000000001</ele>
        <time>2025-05-20T15:41:13Z</time>
      </trkpt>
      <trkpt lat="49.135354002937675" lon="10.260737026110291">
        <ele>481.75999999999999</ele>
        <time>2025-05-20T15:41:26Z</time>
      </trkpt>
      <trkpt lat="49.136050036177039" lon="10.260825036093593">
        <ele>481.27999999999997</ele>
        <time>2025-05-20T15:41:38Z</time>
      </trkpt>
      <trkpt lat="49.13684899918735" lon="10.260955961421132">
        <ele>481.27999999999997</ele>
        <time>2025-05-20T15:41:48Z</time>
      </trkpt>
      <trkpt lat="49.138261014595628" lon="10.261417971923947">
        <ele>479.83999999999997</ele>
        <time>2025-05-20T15:42:01Z</time>
      </trkpt>
      <trkpt lat="49.139855001121759" lon="10.2620679885149">
        <ele>478.38999999999999</ele>
        <time>2025-05-20T15:42:15Z</time>
      </trkpt>
      <trkpt lat="49.141727015376091" lon="10.263005001470447">
        <ele>474.55000000000001</ele>
        <time>2025-05-20T15:42:30Z</time>
      </trkpt>
      <trkpt lat="49.143434995785356" lon="10.263881999999285">
        <ele>470.69999999999999</ele>
        <time>2025-05-20T15:42:43Z</time>
      </trkpt>
      <trkpt lat="49.145491998642683" lon="10.264823036268353">
        <ele>465.89999999999998</ele>
        <time>2025-05-20T15:42:56Z</time>
      </trkpt>
      <trkpt lat="49.14782602339983" lon="10.265533989295363">
        <ele>462.52999999999997</ele>
        <time>2025-05-20T15:43:10Z</time>
      </trkpt>
      <trkpt lat="49.14952696301043" lon="10.265836995095015">
        <ele>463.49000000000001</ele>
        <time>2025-05-20T15:43:20Z</time>
      </trkpt>
      <trkpt lat="49.151261011138558" lon="10.265917964279652">
        <ele>462.05000000000001</ele>
        <time>2025-05-20T15:43:32Z</time>
      </trkpt>
      <trkpt lat="49.153164960443974" lon="10.26578402146697">
        <ele>460.13</ele>
        <time>2025-05-20T15:43:45Z</time>
      </trkpt>
      <trkpt lat="49.155173012986779" lon="10.265374984592199">
        <ele>459.64999999999998</ele>
        <time>2025-05-20T15:43:58Z</time>
      </trkpt>
      <trkpt lat="49.157229010015726" lon="10.264666965231299">
        <ele>460.61000000000001</ele>
        <time>2025-05-20T15:44:10Z</time>
      </trkpt>
      <trkpt lat="49.159613996744156" lon="10.263412026688457">
        <ele>462.52999999999997</ele>
        <time>2025-05-20T15:44:23Z</time>
      </trkpt>
      <trkpt lat="49.16174802929163" lon="10.261899009346962">
        <ele>463.00999999999999</ele>
        <time>2025-05-20T15:44:36Z</time>
      </trkpt>
      <trkpt lat="49.164060009643435" lon="10.259757013991475">
        <ele>463.00999999999999</ele>
        <time>2025-05-20T15:44:50Z</time>
      </trkpt>
      <trkpt lat="49.166494030505419" lon="10.256819995120168">
        <ele>462.52999999999997</ele>
        <time>2025-05-20T15:45:06Z</time>
      </trkpt>
      <trkpt lat="49.16851700283587" lon="10.254024965688586">
        <ele>460.61000000000001</ele>
        <time>2025-05-20T15:45:20Z</time>
      </trkpt>
      <trkpt lat="49.169937986880541" lon="10.251981038600206">
        <ele>459.64999999999998</ele>
        <time>2025-05-20T15:45:29Z</time>
      </trkpt>
      <trkpt lat="49.171695001423359" lon="10.249458001926541">
        <ele>457.72000000000003</ele>
        <time>2025-05-20T15:45:38Z</time>
      </trkpt>
      <trkpt lat="49.174629002809525" lon="10.245653036981821">
        <ele>455.31999999999999</ele>
        <time>2025-05-20T15:45:51Z</time>
      </trkpt>
      <trkpt lat="49.177316995337605" lon="10.242903018370271">
        <ele>455.80000000000001</ele>
        <time>2025-05-20T15:46:02Z</time>
      </trkpt>
      <trkpt lat="49.179670969024301" lon="10.241035027429461">
        <ele>454.83999999999997</ele>
        <time>2025-05-20T15:46:11Z</time>
      </trkpt>
      <trkpt lat="49.181725038215518" lon="10.23974597454071">
        <ele>455.80000000000001</ele>
        <time>2025-05-20T15:46:19Z</time>
      </trkpt>
      <trkpt lat="49.184794994071126" lon="10.238371007144451">
        <ele>458.69</ele>
        <time>2025-05-20T15:46:32Z</time>
      </trkpt>
      <trkpt lat="49.187365975230932" lon="10.237645972520113">
        <ele>462.52999999999997</ele>
        <time>2025-05-20T15:46:43Z</time>
      </trkpt>
      <trkpt lat="49.190215989947319" lon="10.237117996439338">
        <ele>465.89999999999998</ele>
        <time>2025-05-20T15:46:57Z</time>
      </trkpt>
      <trkpt lat="49.19223896227777" lon="10.236829994246364">
        <ele>468.77999999999997</ele>
        <time>2025-05-20T15:47:08Z</time>
      </trkpt>
      <trkpt lat="49.19397896155715" lon="10.236625978723168">
        <ele>470.22000000000003</ele>
        <time>2025-05-20T15:47:18Z</time>
      </trkpt>
      <trkpt lat="49.197043972089887" lon="10.236002029851079">
        <ele>472.13999999999999</ele>
        <time>2025-05-20T15:47:33Z</time>
      </trkpt>
      <trkpt lat="49.199954001232982" lon="10.235155960544944">
        <ele>473.11000000000001</ele>
        <time>2025-05-20T15:47:47Z</time>
      </trkpt>
      <trkpt lat="49.202609974890947" lon="10.234110988676548">
        <ele>474.06999999999999</ele>
        <time>2025-05-20T15:48:00Z</time>
      </trkpt>
      <trkpt lat="49.206237997859716" lon="10.232242997735739">
        <ele>475.99000000000001</ele>
        <time>2025-05-20T15:48:18Z</time>
      </trkpt>
      <trkpt lat="49.209415996447206" lon="10.230144001543522">
        <ele>477.43000000000001</ele>
        <time>2025-05-20T15:48:34Z</time>
      </trkpt>
      <trkpt lat="49.211537959054112" lon="10.228492012247443">
        <ele>477.43000000000001</ele>
        <time>2025-05-20T15:48:45Z</time>
      </trkpt>
      <trkpt lat="49.213289022445679" lon="10.22695804014802">
        <ele>475.50999999999999</ele>
        <time>2025-05-20T15:48:53Z</time>
      </trkpt>
      <trkpt lat="49.215997969731688" lon="10.224215984344482">
        <ele>471.18000000000001</ele>
        <time>2025-05-20T15:49:04Z</time>
      </trkpt>
      <trkpt lat="49.21860096976161" lon="10.221260022372007">
        <ele>468.77999999999997</ele>
        <time>2025-05-20T15:49:15Z</time>
      </trkpt>
      <trkpt lat="49.221677966415882" lon="10.217749010771513">
        <ele>465.89999999999998</ele>
        <time>2025-05-20T15:49:28Z</time>
      </trkpt>
      <trkpt lat="49.223420983180404" lon="10.216101966798306">
        <ele>465.42000000000002</ele>
        <time>2025-05-20T15:49:35Z</time>
      </trkpt>
      <trkpt lat="49.225551998242736" lon="10.21452197805047">
        <ele>464.44999999999999</ele>
        <time>2025-05-20T15:49:43Z</time>
      </trkpt>
      <trkpt lat="49.228349039331079" lon="10.213192021474242">
        <ele>466.86000000000001</ele>
        <time>2025-05-20T15:49:53Z</time>
      </trkpt>
      <trkpt lat="49.230957990512252" lon="10.212580980733037">
        <ele>470.69999999999999</ele>
        <time>2025-05-20T15:50:02Z</time>
      </trkpt>
      <trkpt lat="49.233888974413276" lon="10.21263001486659">
        <ele>475.99000000000001</ele>
        <time>2025-05-20T15:50:12Z</time>
      </trkpt>
      <trkpt lat="49.236339004710317" lon="10.213258992880583">
        <ele>481.75999999999999</ele>
        <time>2025-05-20T15:50:21Z</time>
      </trkpt>
      <trkpt lat="49.239088017493486" lon="10.214492976665497">
        <ele>487.05000000000001</ele>
        <time>2025-05-20T15:50:31Z</time>
      </trkpt>
      <trkpt lat="49.241523966193199" lon="10.216030972078443">
        <ele>490.88999999999999</ele>
        <time>2025-05-20T15:50:40Z</time>
      </trkpt>
      <trkpt lat="49.245231030508876" lon="10.218744026497006">
        <ele>491.37</ele>
        <time>2025-05-20T15:50:54Z</time>
      </trkpt>
      <trkpt lat="49.249025015160441" lon="10.222156969830394">
        <ele>487.52999999999997</ele>
        <time>2025-05-20T15:51:09Z</time>
      </trkpt>
      <trkpt lat="49.252183986827731" lon="10.225393977016211">
        <ele>483.68000000000001</ele>
        <time>2025-05-20T15:51:22Z</time>
      </trkpt>
      <trkpt lat="49.255636995658278" lon="10.228773979470134">
        <ele>480.80000000000001</ele>
        <time>2025-05-20T15:51:36Z</time>
      </trkpt>
      <trkpt lat="49.258981961756945" lon="10.231566997244954">
        <ele>477.43000000000001</ele>
        <time>2025-05-20T15:51:49Z</time>
      </trkpt>
      <trkpt lat="49.261939013376832" lon="10.233544036746025">
        <ele>475.99000000000001</ele>
        <time>2025-05-20T15:52:00Z</time>
      </trkpt>
      <trkpt lat="49.264686014503241" lon="10.235052024945617">
        <ele>477.43000000000001</ele>
        <time>2025-05-20T15:52:10Z</time>
      </trkpt>
      <trkpt lat="49.268112033605576" lon="10.23624200373888">
        <ele>481.27999999999997</ele>
        <time>2025-05-20T15:52:22Z</time>
      </trkpt>
      <trkpt lat="49.270429965108633" lon="10.236470997333527">
        <ele>486.07999999999998</ele>
        <time>2025-05-20T15:52:30Z</time>
      </trkpt>
      <trkpt lat="49.273052997887135" lon="10.236034970730543">
        <ele>490.88999999999999</ele>
        <time>2025-05-20T15:52:39Z</time>
      </trkpt>
      <trkpt lat="49.27585699595511" lon="10.234655980020761">
        <ele>490.41000000000003</ele>
        <time>2025-05-20T15:52:49Z</time>
      </trkpt>
      <trkpt lat="49.278231002390385" lon="10.232798969373107">
        <ele>486.07999999999998</ele>
        <time>2025-05-20T15:52:58Z</time>
      </trkpt>
      <trkpt lat="49.281160980463028" lon="10.229819035157561">
        <ele>474.55000000000001</ele>
        <time>2025-05-20T15:53:10Z</time>
      </trkpt>
      <trkpt lat="49.285255037248135" lon="10.225448040291667">
        <ele>452.92000000000002</ele>
        <time>2025-05-20T15:53:27Z</time>
      </trkpt>
      <trkpt lat="49.287914028391242" lon="10.222629038617015">
        <ele>437.54000000000002</ele>
        <time>2025-05-20T15:53:38Z</time>
      </trkpt>
      <trkpt lat="49.291376005858183" lon="10.219179969280958">
        <ele>423.12</ele>
        <time>2025-05-20T15:53:52Z</time>
      </trkpt>
      <trkpt lat="49.294705968350172" lon="10.216258959844708">
        <ele>416.87</ele>
        <time>2025-05-20T15:54:05Z</time>
      </trkpt>
      <trkpt lat="49.297854965552688" lon="10.213824016973376">
        <ele>413.98000000000002</ele>
        <time>2025-05-20T15:54:17Z</time>
      </trkpt>
      <trkpt lat="49.302183967083693" lon="10.210937038064003">
        <ele>421.19</ele>
        <time>2025-05-20T15:54:33Z</time>
      </trkpt>
      <trkpt lat="49.306629979982972" lon="10.208516009151936">
        <ele>434.17000000000002</ele>
        <time>2025-05-20T15:54:49Z</time>
      </trkpt>
      <trkpt lat="49.310031021013856" lon="10.206982959061861">
        <ele>441.38</ele>
        <time>2025-05-20T15:55:01Z</time>
      </trkpt>
      <trkpt lat="49.314665962010622" lon="10.205444963648915">
        <ele>439.94</ele>
        <time>2025-05-20T15:55:17Z</time>
      </trkpt>
      <trkpt lat="49.317912021651864" lon="10.205032993108034">
        <ele>431.29000000000002</ele>
        <time>2025-05-20T15:55:28Z</time>
      </trkpt>
      <trkpt lat="49.320843005552888" lon="10.205444963648915">
        <ele>423.60000000000002</ele>
        <time>2025-05-20T15:55:38Z</time>
      </trkpt>
      <trkpt lat="49.323695031926036" lon="10.206535030156374">
        <ele>421.68000000000001</ele>
        <time>2025-05-20T15:55:48Z</time>
      </trkpt>
      <trkpt lat="49.326146990060806" lon="10.208133962005377">
        <ele>423.12</ele>
        <time>2025-05-20T15:55:57Z</time>
      </trkpt>
      <trkpt lat="49.328644964843988" lon="10.21054501645267">
        <ele>427.44</ele>
        <time>2025-05-20T15:56:07Z</time>
      </trkpt>
      <trkpt lat="49.331194991245866" lon="10.213623018935323">
        <ele>430.81</ele>
        <time>2025-05-20T15:56:18Z</time>
      </trkpt>
      <trkpt lat="49.334251033142209" lon="10.217182980850339">
        <ele>433.69</ele>
        <time>2025-05-20T15:56:31Z</time>
      </trkpt>
      <trkpt lat="49.33659503236413" lon="10.219148034229875">
        <ele>432.73000000000002</ele>
        <time>2025-05-20T15:56:40Z</time>
      </trkpt>
      <trkpt lat="49.339055959135294" lon="10.220702961087227">
        <ele>429.37</ele>
        <time>2025-05-20T15:56:49Z</time>
      </trkpt>
      <trkpt lat="49.341916032135487" lon="10.221852958202362">
        <ele>421.68000000000001</ele>
        <time>2025-05-20T15:56:59Z</time>
      </trkpt>
      <trkpt lat="49.345129989087582" lon="10.222516972571611">
        <ele>410.13999999999999</ele>
        <time>2025-05-20T15:57:10Z</time>
      </trkpt>
      <trkpt lat="49.348676959052682" lon="10.222325026988983">
        <ele>398.12</ele>
        <time>2025-05-20T15:57:22Z</time>
      </trkpt>
      <trkpt lat="49.35129202902317" lon="10.221606027334929">
        <ele>393.80000000000001</ele>
        <time>2025-05-20T15:57:31Z</time>
      </trkpt>
      <trkpt lat="49.354068031534553" lon="10.220110025256872">
        <ele>395.72000000000003</ele>
        <time>2025-05-20T15:57:41Z</time>
      </trkpt>
      <trkpt lat="49.357230020686984" lon="10.217791004106402">
        <ele>405.81</ele>
        <time>2025-05-20T15:57:53Z</time>
      </trkpt>
      <trkpt lat="49.360149018466473" lon="10.215683961287141">
        <ele>413.01999999999998</ele>
        <time>2025-05-20T15:58:04Z</time>
      </trkpt>
      <trkpt lat="49.363205982372165" lon="10.214103972539306">
        <ele>415.91000000000003</ele>
        <time>2025-05-20T15:58:15Z</time>
      </trkpt>
      <trkpt lat="49.366377023980021" lon="10.213222028687596">
        <ele>412.06</ele>
        <time>2025-05-20T15:58:26Z</time>
      </trkpt>
      <trkpt lat="49.369893986731768" lon="10.213053971529007">
        <ele>402.93000000000001</ele>
        <time>2025-05-20T15:58:38Z</time>
      </trkpt>
      <trkpt lat="49.373084977269173" lon="10.213637016713619">
        <ele>400.52999999999997</ele>
        <time>2025-05-20T15:58:49Z</time>
      </trkpt>
      <trkpt lat="49.375631986185908" lon="10.21462800912559">
        <ele>403.88999999999999</ele>
        <time>2025-05-20T15:58:58Z</time>
      </trkpt>
      <trkpt lat="49.378356020897627" lon="10.216276980936527">
        <ele>408.69999999999999</ele>
        <time>2025-05-20T15:59:08Z</time>
      </trkpt>
      <trkpt lat="49.380329037085176" lon="10.217865016311407">
        <ele>413.5</ele>
        <time>2025-05-20T15:59:16Z</time>
      </trkpt>
      <trkpt lat="49.382074987515807" lon="10.219779023900628">
        <ele>417.82999999999998</ele>
        <time>2025-05-20T15:59:26Z</time>
      </trkpt>
      <trkpt lat="49.384067030623555" lon="10.222561983391643">
        <ele>423.60000000000002</ele>
        <time>2025-05-20T15:59:38Z</time>
      </trkpt>
      <trkpt lat="49.38571197912097" lon="10.225624982267618">
        <ele>430.32999999999998</ele>
        <time>2025-05-20T15:59:49Z</time>
      </trkpt>
      <trkpt lat="49.386882008984685" lon="10.228497041389346">
        <ele>435.61000000000001</ele>
        <time>2025-05-20T15:59:59Z</time>
      </trkpt>
      <trkpt lat="49.388580014929175" lon="10.232610963284969">
        <ele>441.38</ele>
        <time>2025-05-20T16:00:14Z</time>
      </trkpt>
      <trkpt lat="49.390066964551806" lon="10.235455026850104">
        <ele>443.31</ele>
        <time>2025-05-20T16:00:25Z</time>
      </trkpt>
      <trkpt lat="49.392189010977745" lon="10.23852095939219">
        <ele>443.79000000000002</ele>
        <time>2025-05-20T16:00:38Z</time>
      </trkpt>
      <trkpt lat="49.394678017124534" lon="10.241060005500913">
        <ele>443.31</ele>
        <time>2025-05-20T16:00:51Z</time>
      </trkpt>
      <trkpt lat="49.397195018827915" lon="10.242877034470439">
        <ele>443.31</ele>
        <time>2025-05-20T16:01:03Z</time>
      </trkpt>
      <trkpt lat="49.400077974423766" lon="10.244334982708097">
        <ele>442.33999999999997</ele>
        <time>2025-05-20T16:01:16Z</time>
      </trkpt>
      <trkpt lat="49.402735959738493" lon="10.245184991508722">
        <ele>440.42000000000002</ele>
        <time>2025-05-20T16:01:28Z</time>
      </trkpt>
      <trkpt lat="49.40571203827858" lon="10.245684972032905">
        <ele>437.06</ele>
        <time>2025-05-20T16:01:41Z</time>
      </trkpt>
      <trkpt lat="49.408405981957912" lon="10.245902985334396">
        <ele>434.17000000000002</ele>
        <time>2025-05-20T16:01:53Z</time>
      </trkpt>
      <trkpt lat="49.411332020536065" lon="10.246286960318685">
        <ele>432.25</ele>
        <time>2025-05-20T16:02:06Z</time>
      </trkpt>
      <trkpt lat="49.413625979796052" lon="10.247062034904957">
        <ele>430.81</ele>
        <time>2025-05-20T16:02:16Z</time>
      </trkpt>
      <trkpt lat="49.416082967072725" lon="10.248412024229765">
        <ele>429.85000000000002</ele>
        <time>2025-05-20T16:02:28Z</time>
      </trkpt>
      <trkpt lat="49.418493015691638" lon="10.250445976853371">
        <ele>431.76999999999998</ele>
        <time>2025-05-20T16:02:40Z</time>
      </trkpt>
      <trkpt lat="49.42049402743578" lon="10.252708001062274">
        <ele>434.17000000000002</ele>
        <time>2025-05-20T16:02:51Z</time>
      </trkpt>
      <trkpt lat="49.422233020886779" lon="10.254878997802734">
        <ele>440.42000000000002</ele>
        <time>2025-05-20T16:03:01Z</time>
      </trkpt>
      <trkpt lat="49.424523040652275" lon="10.257229031994939">
        <ele>444.75</ele>
        <time>2025-05-20T16:03:13Z</time>
      </trkpt>
      <trkpt lat="49.426824962720275" lon="10.258739031851292">
        <ele>449.06999999999999</ele>
        <time>2025-05-20T16:03:24Z</time>
      </trkpt>
      <trkpt lat="49.429355962201953" lon="10.259571019560099">
        <ele>451</ele>
        <time>2025-05-20T16:03:35Z</time>
      </trkpt>
      <trkpt lat="49.431613041087985" lon="10.259717032313347">
        <ele>450.02999999999997</ele>
        <time>2025-05-20T16:03:46Z</time>
      </trkpt>
      <trkpt lat="49.433986963704228" lon="10.259301038458943">
        <ele>447.63</ele>
        <time>2025-05-20T16:03:56Z</time>
      </trkpt>
      <trkpt lat="49.436632040888071" lon="10.258354973047972">
        <ele>440.42000000000002</ele>
        <time>2025-05-20T16:04:08Z</time>
      </trkpt>
      <trkpt lat="49.439772991463542" lon="10.256685968488455">
        <ele>428.88999999999999</ele>
        <time>2025-05-20T16:04:22Z</time>
      </trkpt>
      <trkpt lat="49.446876989677548" lon="10.25110999122262">
        <ele>410.13999999999999</ele>
        <time>2025-05-20T16:04:57Z</time>
      </trkpt>
      <trkpt lat="49.449068019166589" lon="10.248965984210372">
        <ele>409.66000000000003</ele>
        <time>2025-05-20T16:05:07Z</time>
      </trkpt>
      <trkpt lat="49.451783001422882" lon="10.246342029422522">
        <ele>406.76999999999998</ele>
        <time>2025-05-20T16:05:19Z</time>
      </trkpt>
      <trkpt lat="49.455752000212669" lon="10.242518959566951">
        <ele>402.44999999999999</ele>
        <time>2025-05-20T16:05:34Z</time>
      </trkpt>
      <trkpt lat="49.460061974823475" lon="10.238709971308708">
        <ele>401.97000000000003</ele>
        <time>2025-05-20T16:05:51Z</time>
      </trkpt>
      <trkpt lat="49.464229037985206" lon="10.235455026850104">
        <ele>404.85000000000002</ele>
        <time>2025-05-20T16:06:07Z</time>
      </trkpt>
      <trkpt lat="49.467706019058824" lon="10.233058976009488">
        <ele>410.62</ele>
        <time>2025-05-20T16:06:20Z</time>
      </trkpt>
      <trkpt lat="49.472829960286617" lon="10.229765977710485">
        <ele>418.31</ele>
        <time>2025-05-20T16:06:39Z</time>
      </trkpt>
      <trkpt lat="49.475481994450092" lon="10.227854987606406">
        <ele>420.70999999999998</ele>
        <time>2025-05-20T16:06:49Z</time>
      </trkpt>
      <trkpt lat="49.477716023102403" lon="10.225690025836229">
        <ele>421.19</ele>
        <time>2025-05-20T16:06:58Z</time>
      </trkpt>
      <trkpt lat="49.479921972379088" lon="10.222717970609665">
        <ele>418.79000000000002</ele>
        <time>2025-05-20T16:07:08Z</time>
      </trkpt>
      <trkpt lat="49.482000013813376" lon="10.218937983736396">
        <ele>413.5</ele>
        <time>2025-05-20T16:07:19Z</time>
      </trkpt>
      <trkpt lat="49.484058022499084" lon="10.214553996920586">
        <ele>407.25999999999999</ele>
        <time>2025-05-20T16:07:31Z</time>
      </trkpt>
      <trkpt lat="49.486357010900974" lon="10.209888964891434">
        <ele>400.05000000000001</ele>
        <time>2025-05-20T16:07:44Z</time>
      </trkpt>
      <trkpt lat="49.488587016239762" lon="10.206315005198121">
        <ele>395.24000000000001</ele>
        <time>2025-05-20T16:07:55Z</time>
      </trkpt>
      <trkpt lat="49.491151962429285" lon="10.203312020748854">
        <ele>391.38999999999999</ele>
        <time>2025-05-20T16:08:06Z</time>
      </trkpt>
      <trkpt lat="49.493963001295924" lon="10.200883029028773">
        <ele>387.55000000000001</ele>
        <time>2025-05-20T16:08:17Z</time>
      </trkpt>
      <trkpt lat="49.496398027986288" lon="10.199346961453557">
        <ele>385.14999999999998</ele>
        <time>2025-05-20T16:08:26Z</time>
      </trkpt>
      <trkpt lat="49.499515006318688" lon="10.198097974061966">
        <ele>383.69999999999999</ele>
        <time>2025-05-20T16:08:37Z</time>
      </trkpt>
      <trkpt lat="49.502117000520229" lon="10.197601011022925">
        <ele>384.66000000000003</ele>
        <time>2025-05-20T16:08:46Z</time>
      </trkpt>
      <trkpt lat="49.505915008485317" lon="10.197387021034956">
        <ele>388.99000000000001</ele>
        <time>2025-05-20T16:08:59Z</time>
      </trkpt>
      <trkpt lat="49.509733971208334" lon="10.197385009378195">
        <ele>393.80000000000001</ele>
        <time>2025-05-20T16:09:19Z</time>
      </trkpt>
      <trkpt lat="49.515586970373988" lon="10.196813028305769">
        <ele>393.31999999999999</ele>
        <time>2025-05-20T16:09:32Z</time>
      </trkpt>
      <trkpt lat="49.519342985004187" lon="10.195782976225019">
        <ele>388.99000000000001</ele>
        <time>2025-05-20T16:09:45Z</time>
      </trkpt>
      <trkpt lat="49.522470021620393" lon="10.194571036845446">
        <ele>382.25999999999999</ele>
        <time>2025-05-20T16:09:56Z</time>
      </trkpt>
      <trkpt lat="49.525770982727408" lon="10.192704973742366">
        <ele>376.00999999999999</ele>
        <time>2025-05-20T16:10:08Z</time>
      </trkpt>
      <trkpt lat="49.528615968301892" lon="10.190381007269025">
        <ele>369.27999999999997</ele>
        <time>2025-05-20T16:10:19Z</time>
      </trkpt>
      <trkpt lat="49.530796017497778" lon="10.187945980578661">
        <ele>363.51999999999998</ele>
        <time>2025-05-20T16:10:28Z</time>
      </trkpt>
      <trkpt lat="49.532774984836578" lon="10.184892034158111">
        <ele>358.23000000000002</ele>
        <time>2025-05-20T16:10:37Z</time>
      </trkpt>
      <trkpt lat="49.534200998023152" lon="10.182002959772944">
        <ele>352.45999999999998</ele>
        <time>2025-05-20T16:10:45Z</time>
      </trkpt>
      <trkpt lat="49.536135038360953" lon="10.177481006830931">
        <ele>343.81</ele>
        <time>2025-05-20T16:10:57Z</time>
      </trkpt>
      <trkpt lat="49.538389015942812" lon="10.172773981466889">
        <ele>337.07999999999998</ele>
        <time>2025-05-20T16:11:10Z</time>
      </trkpt>
      <trkpt lat="49.540243009105325" lon="10.16993997618556">
        <ele>336.12</ele>
        <time>2025-05-20T16:11:19Z</time>
      </trkpt>
      <trkpt lat="49.542615003883839" lon="10.167315015569329">
        <ele>339.48000000000002</ele>
        <time>2025-05-20T16:11:29Z</time>
      </trkpt>
      <trkpt lat="49.545232001692057" lon="10.16527796164155">
        <ele>346.69</ele>
        <time>2025-05-20T16:11:39Z</time>
      </trkpt>
      <trkpt lat="49.547759983688593" lon="10.164098963141441">
        <ele>349.57999999999998</ele>
        <time>2025-05-20T16:11:48Z</time>
      </trkpt>
      <trkpt lat="49.550655009225011" lon="10.163403013721108">
        <ele>347.64999999999998</ele>
        <time>2025-05-20T16:11:58Z</time>
      </trkpt>
      <trkpt lat="49.553005965426564" lon="10.163420028984547">
        <ele>343.81</ele>
        <time>2025-05-20T16:12:06Z</time>
      </trkpt>
      <trkpt lat="49.555910965427756" lon="10.164031991735101">
        <ele>337.07999999999998</ele>
        <time>2025-05-20T16:12:16Z</time>
      </trkpt>
      <trkpt lat="49.558701971545815" lon="10.165400002151728">
        <ele>328.91000000000003</ele>
        <time>2025-05-20T16:12:26Z</time>
      </trkpt>
      <trkpt lat="49.561871001496911" lon="10.167764034122229">
        <ele>318.81</ele>
        <time>2025-05-20T16:12:38Z</time>
      </trkpt>
      <trkpt lat="49.565016981214285" lon="10.170129993930459">
        <ele>309.68000000000001</ele>
        <time>2025-05-20T16:12:50Z</time>
      </trkpt>
      <trkpt lat="49.568002028390765" lon="10.171805033460259">
        <ele>308.72000000000003</ele>
        <time>2025-05-20T16:13:01Z</time>
      </trkpt>
      <trkpt lat="49.569961968809366" lon="10.172409033402801">
        <ele>309.68000000000001</ele>
        <time>2025-05-20T16:13:09Z</time>
      </trkpt>
      <trkpt lat="49.572528004646301" lon="10.172711033374071">
        <ele>313.05000000000001</ele>
        <time>2025-05-20T16:13:18Z</time>
      </trkpt>
      <trkpt lat="49.5757279638201" lon="10.172381037846208">
        <ele>323.13999999999999</ele>
        <time>2025-05-20T16:13:29Z</time>
      </trkpt>
      <trkpt lat="49.580407999455929" lon="10.171744013205171">
        <ele>337.07999999999998</ele>
        <time>2025-05-20T16:13:45Z</time>
      </trkpt>
      <trkpt lat="49.583644000813365" lon="10.171858007088304">
        <ele>342.37</ele>
        <time>2025-05-20T16:13:56Z</time>
      </trkpt>
      <trkpt lat="49.587418958544731" lon="10.17266602255404">
        <ele>344.76999999999998</ele>
        <time>2025-05-20T16:14:09Z</time>
      </trkpt>
      <trkpt lat="49.590596035122871" lon="10.173571016639471">
        <ele>345.25</ele>
        <time>2025-05-20T16:14:20Z</time>
      </trkpt>
      <trkpt lat="49.595529958605766" lon="10.174641972407699">
        <ele>339.95999999999998</ele>
        <time>2025-05-20T16:14:37Z</time>
      </trkpt>
      <trkpt lat="49.598762020468712" lon="10.174783961847425">
        <ele>332.75</ele>
        <time>2025-05-20T16:14:48Z</time>
      </trkpt>
      <trkpt lat="49.602272026240826" lon="10.174285992980003">
        <ele>321.22000000000003</ele>
        <time>2025-05-20T16:15:00Z</time>
      </trkpt>
      <trkpt lat="49.605156993493438" lon="10.173590965569019">
        <ele>311.60000000000002</ele>
        <time>2025-05-20T16:15:10Z</time>
      </trkpt>
      <trkpt lat="49.608037015423179" lon="10.172868026420474">
        <ele>303.91000000000003</ele>
        <time>2025-05-20T16:15:20Z</time>
      </trkpt>
      <trkpt lat="49.61240298114717" lon="10.172191020101309">
        <ele>301.02999999999997</ele>
        <time>2025-05-20T16:15:35Z</time>
      </trkpt>
      <trkpt lat="49.615918016061187" lon="10.172341978177428">
        <ele>299.11000000000001</ele>
        <time>2025-05-20T16:15:47Z</time>
      </trkpt>
      <trkpt lat="49.618787979707122" lon="10.173115963116288">
        <ele>297.67000000000002</ele>
        <time>2025-05-20T16:15:57Z</time>
      </trkpt>
      <trkpt lat="49.622451039031148" lon="10.174741968512535">
        <ele>293.33999999999997</ele>
        <time>2025-05-20T16:16:10Z</time>
      </trkpt>
      <trkpt lat="49.625575980171561" lon="10.175966983661056">
        <ele>290.94</ele>
        <time>2025-05-20T16:16:21Z</time>
      </trkpt>
      <trkpt lat="49.628490032628179" lon="10.176475010812283">
        <ele>289.00999999999999</ele>
        <time>2025-05-20T16:16:31Z</time>
      </trkpt>
      <trkpt lat="49.631117004901171" lon="10.176323968917131">
        <ele>285.17000000000002</ele>
        <time>2025-05-20T16:16:40Z</time>
      </trkpt>
      <trkpt lat="49.633713969960809" lon="10.175557024776936">
        <ele>280.36000000000001</ele>
        <time>2025-05-20T16:16:49Z</time>
      </trkpt>
      <trkpt lat="49.636476980522275" lon="10.174059011042118">
        <ele>274.11000000000001</ele>
        <time>2025-05-20T16:16:59Z</time>
      </trkpt>
      <trkpt lat="49.639038993045688" lon="10.171854989603162">
        <ele>267.86000000000001</ele>
        <time>2025-05-20T16:17:09Z</time>
      </trkpt>
      <trkpt lat="49.641348961740732" lon="10.169080998748541">
        <ele>261.62</ele>
        <time>2025-05-20T16:17:19Z</time>
      </trkpt>
      <trkpt lat="49.6433209720999" lon="10.165763022378087">
        <ele>256.32999999999998</ele>
        <time>2025-05-20T16:17:29Z</time>
      </trkpt>
      <trkpt lat="49.644943960011005" lon="10.162013964727521">
        <ele>254.88999999999999</ele>
        <time>2025-05-20T16:17:39Z</time>
      </trkpt>
      <trkpt lat="49.646420013159513" lon="10.157810021191835">
        <ele>260.64999999999998</ele>
        <time>2025-05-20T16:17:50Z</time>
      </trkpt>
      <trkpt lat="49.647213025018573" lon="10.15522101894021">
        <ele>265.94</ele>
        <time>2025-05-20T16:17:59Z</time>
      </trkpt>
      <trkpt lat="49.648254979401827" lon="10.151618979871273">
        <ele>270.75</ele>
        <time>2025-05-20T16:18:11Z</time>
      </trkpt>
      <trkpt lat="49.649697002023458" lon="10.146955037489533">
        <ele>276.51999999999998</ele>
        <time>2025-05-20T16:18:26Z</time>
      </trkpt>
      <trkpt lat="49.651067024096847" lon="10.143163986504078">
        <ele>279.39999999999998</ele>
        <time>2025-05-20T16:18:39Z</time>
      </trkpt>
      <trkpt lat="49.652439979836345" lon="10.140194026753306">
        <ele>278.92000000000002</ele>
        <time>2025-05-20T16:18:48Z</time>
      </trkpt>
      <trkpt lat="49.654221972450614" lon="10.137200010940433">
        <ele>275.06999999999999</ele>
        <time>2025-05-20T16:19:04Z</time>
      </trkpt>
      <trkpt lat="49.656035983934999" lon="10.13491895981133">
        <ele>272.67000000000002</ele>
        <time>2025-05-20T16:19:13Z</time>
      </trkpt>
      <trkpt lat="49.66042198240757" lon="10.131335025653243">
        <ele>268.35000000000002</ele>
        <time>2025-05-20T16:19:22Z</time>
      </trkpt>
      <trkpt lat="49.662953987717628" lon="10.130229033529758">
        <ele>260.64999999999998</ele>
        <time>2025-05-20T16:19:31Z</time>
      </trkpt>
      <trkpt lat="49.667810965329409" lon="10.128518035635352">
        <ele>239.50999999999999</ele>
        <time>2025-05-20T16:19:48Z</time>
      </trkpt>
      <trkpt lat="49.672944964841008" lon="10.126734031364322">
        <ele>227.49000000000001</ele>
        <time>2025-05-20T16:20:06Z</time>
      </trkpt>
      <trkpt lat="49.675986003130674" lon="10.125504992902279">
        <ele>227.49000000000001</ele>
        <time>2025-05-20T16:20:16Z</time>
      </trkpt>
      <trkpt lat="49.679252011701465" lon="10.123773040249944">
        <ele>235.18000000000001</ele>
        <time>2025-05-20T16:20:27Z</time>
      </trkpt>
      <trkpt lat="49.682842986658216" lon="10.121363997459412">
        <ele>244.31</ele>
        <time>2025-05-20T16:20:39Z</time>
      </trkpt>
      <trkpt lat="49.685235014185309" lon="10.119470022618771">
        <ele>252.47999999999999</ele>
        <time>2025-05-20T16:20:48Z</time>
      </trkpt>
      <trkpt lat="49.688325002789497" lon="10.11678596958518">
        <ele>263.54000000000002</ele>
        <time>2025-05-20T16:21:00Z</time>
      </trkpt>
      <trkpt lat="49.691665023565292" lon="10.11386102065444">
        <ele>273.14999999999998</ele>
        <time>2025-05-20T16:21:13Z</time>
      </trkpt>
      <trkpt lat="49.695618012920022" lon="10.110756028443575">
        <ele>283.25</ele>
        <time>2025-05-20T16:21:28Z</time>
      </trkpt>
      <trkpt lat="49.699710980057716" lon="10.108142970129848">
        <ele>286.61000000000001</ele>
        <time>2025-05-20T16:21:43Z</time>
      </trkpt>
      <trkpt lat="49.703931016847491" lon="10.106025030836463">
        <ele>284.69</ele>
        <time>2025-05-20T16:21:58Z</time>
      </trkpt>
      <trkpt lat="49.706495963037014" lon="10.104982992634177">
        <ele>280.36000000000001</ele>
        <time>2025-05-20T16:22:07Z</time>
      </trkpt>
      <trkpt lat="49.709374979138374" lon="10.104014966636896">
        <ele>277.95999999999998</ele>
        <time>2025-05-20T16:22:17Z</time>
      </trkpt>
      <trkpt lat="49.713751003146172" lon="10.102983992546797">
        <ele>275.06999999999999</ele>
        <time>2025-05-20T16:22:32Z</time>
      </trkpt>
      <trkpt lat="49.716696990653872" lon="10.102635975927114">
        <ele>277</ele>
        <time>2025-05-20T16:22:42Z</time>
      </trkpt>
      <trkpt lat="49.718259964138269" lon="10.102532040327787">
        <ele>276.04000000000002</ele>
        <time>2025-05-20T16:22:48Z</time>
      </trkpt>
      <trkpt lat="49.720276985317469" lon="10.102505972608924">
        <ele>274.11000000000001</ele>
        <time>2025-05-20T16:22:56Z</time>
      </trkpt>
      <trkpt lat="49.723355993628502" lon="10.102704958990216">
        <ele>273.63</ele>
        <time>2025-05-20T16:23:07Z</time>
      </trkpt>
      <trkpt lat="49.727950030937791" lon="10.10346201248467">
        <ele>275.56</ele>
        <time>2025-05-20T16:23:23Z</time>
      </trkpt>
      <trkpt lat="49.731817021965981" lon="10.104348985478282">
        <ele>277</ele>
        <time>2025-05-20T16:23:37Z</time>
      </trkpt>
      <trkpt lat="49.735736986622214" lon="10.105385994538665">
        <ele>278.92000000000002</ele>
        <time>2025-05-20T16:23:51Z</time>
      </trkpt>
      <trkpt lat="49.73983297124505" lon="10.106353014707565">
        <ele>281.80000000000001</ele>
        <time>2025-05-20T16:24:05Z</time>
      </trkpt>
      <trkpt lat="49.743344988673925" lon="10.107063967734575">
        <ele>282.27999999999997</ele>
        <time>2025-05-20T16:24:17Z</time>
      </trkpt>
      <trkpt lat="49.747757976874709" lon="10.107551040127873">
        <ele>283.25</ele>
        <time>2025-05-20T16:24:32Z</time>
      </trkpt>
      <trkpt lat="49.75188497453928" lon="10.107406033203006">
        <ele>289.97000000000003</ele>
        <time>2025-05-20T16:24:46Z</time>
      </trkpt>
      <trkpt lat="49.755073031410575" lon="10.106888031587005">
        <ele>298.14999999999998</ele>
        <time>2025-05-20T16:24:57Z</time>
      </trkpt>
      <trkpt lat="49.758758973330259" lon="10.105889998376369">
        <ele>309.19999999999999</ele>
        <time>2025-05-20T16:25:11Z</time>
      </trkpt>
      <trkpt lat="49.760138969868422" lon="10.105379959568381">
        <ele>312.56999999999999</ele>
        <time>2025-05-20T16:25:18Z</time>
      </trkpt>
      <trkpt lat="49.760475000366569" lon="10.105488002300262">
        <ele>313.05000000000001</ele>
        <time>2025-05-20T16:25:20Z</time>
      </trkpt>
      <trkpt lat="49.760608021169901" lon="10.105543993413448">
        <ele>313.05000000000001</ele>
        <time>2025-05-20T16:25:21Z</time>
      </trkpt>
      <trkpt lat="49.760731989517808" lon="10.105634015053511">
        <ele>313.05000000000001</ele>
        <time>2025-05-20T16:25:22Z</time>
      </trkpt>
      <trkpt lat="49.760828968137503" lon="10.105766030028462">
        <ele>312.56999999999999</ele>
        <time>2025-05-20T16:25:23Z</time>
      </trkpt>
      <trkpt lat="49.760899040848017" lon="10.105936015024781">
        <ele>312.08999999999997</ele>
        <time>2025-05-20T16:25:24Z</time>
      </trkpt>
      <trkpt lat="49.760942962020636" lon="10.106113040819764">
        <ele>312.08999999999997</ele>
        <time>2025-05-20T16:25:25Z</time>
      </trkpt>
      <trkpt lat="49.760942962020636" lon="10.106309009715915">
        <ele>311.60000000000002</ele>
        <time>2025-05-20T16:25:26Z</time>
      </trkpt>
      <trkpt lat="49.760942962020636" lon="10.106542026624084">
        <ele>311.12</ele>
        <time>2025-05-20T16:25:27Z</time>
      </trkpt>
      <trkpt lat="49.76088697090745" lon="10.106680998578668">
        <ele>310.63999999999999</ele>
        <time>2025-05-20T16:25:28Z</time>
      </trkpt>
      <trkpt lat="49.760815976187587" lon="10.106859030202031">
        <ele>310.16000000000003</ele>
        <time>2025-05-20T16:25:29Z</time>
      </trkpt>
      <trkpt lat="49.760703993961215" lon="10.107014011591673">
        <ele>309.19999999999999</ele>
        <time>2025-05-20T16:25:30Z</time>
      </trkpt>
      <trkpt lat="49.760578013956547" lon="10.107186008244753">
        <ele>308.72000000000003</ele>
        <time>2025-05-20T16:25:31Z</time>
      </trkpt>
      <trkpt lat="49.76045798510313" lon="10.107265971601009">
        <ele>307.75999999999999</ele>
        <time>2025-05-20T16:25:32Z</time>
      </trkpt>
      <trkpt lat="49.760321024805307" lon="10.107358004897833">
        <ele>307.27999999999997</ele>
        <time>2025-05-20T16:25:33Z</time>
      </trkpt>
      <trkpt lat="49.760195966809988" lon="10.107377031818032">
        <ele>306.31999999999999</ele>
        <time>2025-05-20T16:25:34Z</time>
      </trkpt>
      <trkpt lat="49.760092031210661" lon="10.10739304125309">
        <ele>305.83999999999997</ele>
        <time>2025-05-20T16:25:35Z</time>
      </trkpt>
      <trkpt lat="49.759995974600315" lon="10.107390023767948">
        <ele>304.88</ele>
        <time>2025-05-20T16:25:36Z</time>
      </trkpt>
      <trkpt lat="49.759934032335877" lon="10.107376025989652">
        <ele>304.38999999999999</ele>
        <time>2025-05-20T16:25:37Z</time>
      </trkpt>
      <trkpt lat="49.759807968512177" lon="10.107082994654775">
        <ele>304.38999999999999</ele>
        <time>2025-05-20T16:25:38Z</time>
      </trkpt>
      <trkpt lat="49.759828001260757" lon="10.106964977458119">
        <ele>303.91000000000003</ele>
        <time>2025-05-20T16:25:39Z</time>
      </trkpt>
      <trkpt lat="49.759852979332209" lon="10.106797004118562">
        <ele>303.91000000000003</ele>
        <time>2025-05-20T16:25:40Z</time>
      </trkpt>
      <trkpt lat="49.759882986545563" lon="10.106595000252128">
        <ele>303.91000000000003</ele>
        <time>2025-05-20T16:25:41Z</time>
      </trkpt>
      <trkpt lat="49.759915005415678" lon="10.106372041627765">
        <ele>303.91000000000003</ele>
        <time>2025-05-20T16:25:42Z</time>
      </trkpt>
      <trkpt lat="49.760314989835024" lon="10.104270027950406">
        <ele>301.02999999999997</ele>
        <time>2025-05-20T16:25:50Z</time>
      </trkpt>
      <trkpt lat="49.761125016957521" lon="10.101127987727523">
        <ele>300.55000000000001</ele>
        <time>2025-05-20T16:26:01Z</time>
      </trkpt>
      <trkpt lat="49.762236038222909" lon="10.098117040470243">
        <ele>305.36000000000001</ele>
        <time>2025-05-20T16:26:13Z</time>
      </trkpt>
      <trkpt lat="49.762871973216534" lon="10.096634030342102">
        <ele>305.83999999999997</ele>
        <time>2025-05-20T16:26:20Z</time>
      </trkpt>
      <trkpt lat="49.762978004291654" lon="10.096420962363482">
        <ele>306.31999999999999</ele>
        <time>2025-05-20T16:26:25Z</time>
      </trkpt>
      <trkpt lat="49.763017985969782" lon="10.096345022320747">
        <ele>306.31999999999999</ele>
        <time>2025-05-20T16:26:30Z</time>
      </trkpt>
      <trkpt lat="49.76294900290668" lon="10.096302023157477">
        <ele>306.31999999999999</ele>
        <time>2025-05-20T16:26:31Z</time>
      </trkpt>
      <trkpt lat="49.762892005965114" lon="10.096227005124092">
        <ele>306.31999999999999</ele>
        <time>2025-05-20T16:26:32Z</time>
      </trkpt>
      <trkpt lat="49.76281899958849" lon="10.096132038161159">
        <ele>306.31999999999999</ele>
        <time>2025-05-20T16:26:33Z</time>
      </trkpt>
      <trkpt lat="49.762726966291666" lon="10.096001029014587">
        <ele>306.31999999999999</ele>
        <time>2025-05-20T16:26:34Z</time>
      </trkpt>
      <trkpt lat="49.762624958530068" lon="10.095855016261339">
        <ele>306.31999999999999</ele>
        <time>2025-05-20T16:26:35Z</time>
      </trkpt>
      <trkpt lat="49.762504007667303" lon="10.095704980194569">
        <ele>305.83999999999997</ele>
        <time>2025-05-20T16:26:36Z</time>
      </trkpt>
      <trkpt lat="49.762397976592183" lon="10.095503982156515">
        <ele>305.36000000000001</ele>
        <time>2025-05-20T16:26:37Z</time>
      </trkpt>
      <trkpt lat="49.762302003800869" lon="10.095269959419966">
        <ele>304.88</ele>
        <time>2025-05-20T16:26:38Z</time>
      </trkpt>
      <trkpt lat="49.762219022959471" lon="10.095007019117475">
        <ele>304.38999999999999</ele>
        <time>2025-05-20T16:26:39Z</time>
      </trkpt>
      <trkpt lat="49.762172000482678" lon="10.094726979732513">
        <ele>303.91000000000003</ele>
        <time>2025-05-20T16:26:40Z</time>
      </trkpt>
      <trkpt lat="49.762129001319408" lon="10.09443998336792">
        <ele>302.94999999999999</ele>
        <time>2025-05-20T16:26:41Z</time>
      </trkpt>
      <trkpt lat="49.762137969955802" lon="10.094135971739888">
        <ele>302.47000000000003</ele>
        <time>2025-05-20T16:26:42Z</time>
      </trkpt>
      <trkpt lat="49.76215498521924" lon="10.093817040324211">
        <ele>301.50999999999999</ele>
        <time>2025-05-20T16:26:43Z</time>
      </trkpt>
      <trkpt lat="49.762181974947453" lon="10.093489978462458">
        <ele>301.02999999999997</ele>
        <time>2025-05-20T16:26:44Z</time>
      </trkpt>
      <trkpt lat="49.76260400377214" lon="10.089982990175486">
        <ele>291.89999999999998</ele>
        <time>2025-05-20T16:26:55Z</time>
      </trkpt>
      <trkpt lat="49.763047993183136" lon="10.087778968736529">
        <ele>285.17000000000002</ele>
        <time>2025-05-20T16:27:04Z</time>
      </trkpt>
      <trkpt lat="49.763377988710999" lon="10.086298976093531">
        <ele>279.39999999999998</ele>
        <time>2025-05-20T16:27:14Z</time>
      </trkpt>
      <trkpt lat="49.763535987585783" lon="10.085465982556343">
        <ele>278.44</ele>
        <time>2025-05-20T16:27:20Z</time>
      </trkpt>
      <trkpt lat="49.763909988105297" lon="10.083790021017194">
        <ele>278.44</ele>
        <time>2025-05-20T16:27:31Z</time>
      </trkpt>
      <trkpt lat="49.763957010582089" lon="10.083668986335397">
        <ele>278.44</ele>
        <time>2025-05-20T16:27:32Z</time>
      </trkpt>
      <trkpt lat="49.764590011909604" lon="10.082524018362164">
        <ele>280.83999999999997</ele>
        <time>2025-05-20T16:27:42Z</time>
      </trkpt>
      <trkpt lat="49.765131985768676" lon="10.081252986565232">
        <ele>283.25</ele>
        <time>2025-05-20T16:27:52Z</time>
      </trkpt>
      <trkpt lat="49.765228964388371" lon="10.080985017120838">
        <ele>284.20999999999998</ele>
        <time>2025-05-20T16:27:54Z</time>
      </trkpt>
      <trkpt lat="49.765277998521924" lon="10.080849984660745">
        <ele>284.20999999999998</ele>
        <time>2025-05-20T16:27:55Z</time>
      </trkpt>
      <trkpt lat="49.765696004033089" lon="10.07970099337399">
        <ele>286.13</ele>
        <time>2025-05-20T16:28:04Z</time>
      </trkpt>
      <trkpt lat="49.766050977632403" lon="10.078723998740315">
        <ele>288.05000000000001</ele>
        <time>2025-05-20T16:28:14Z</time>
      </trkpt>
      <trkpt lat="49.766096994280815" lon="10.078337006270885">
        <ele>288.52999999999997</ele>
        <time>2025-05-20T16:28:20Z</time>
      </trkpt>
      <trkpt lat="49.76612901315093" lon="10.078215971589088">
        <ele>289.00999999999999</ele>
        <time>2025-05-20T16:28:21Z</time>
      </trkpt>
      <trkpt lat="49.76658197119832" lon="10.076792975887656">
        <ele>289.97000000000003</ele>
        <time>2025-05-20T16:28:34Z</time>
      </trkpt>
      <trkpt lat="49.766618013381958" lon="10.076680993661284">
        <ele>289.97000000000003</ele>
        <time>2025-05-20T16:28:35Z</time>
      </trkpt>
      <trkpt lat="49.766650032252073" lon="10.076582003384829">
        <ele>289.97000000000003</ele>
        <time>2025-05-20T16:28:36Z</time>
      </trkpt>
      <trkpt lat="49.766680039465427" lon="10.076487958431244">
        <ele>289.49000000000001</ele>
        <time>2025-05-20T16:28:37Z</time>
      </trkpt>
      <trkpt lat="49.76670996285975" lon="10.076395003125072">
        <ele>289.49000000000001</ele>
        <time>2025-05-20T16:28:38Z</time>
      </trkpt>
      <trkpt lat="49.766886988654733" lon="10.07615796290338">
        <ele>289.49000000000001</ele>
        <time>2025-05-20T16:28:39Z</time>
      </trkpt>
      <trkpt lat="49.766886988654733" lon="10.07615796290338">
        <ele>289.97000000000003</ele>
        <time>2025-05-20T16:28:40Z</time>
      </trkpt>
      <trkpt lat="49.766886988654733" lon="10.07615796290338">
        <ele>289.97000000000003</ele>
        <time>2025-05-20T16:28:41Z</time>
      </trkpt>
      <trkpt lat="49.766906015574932" lon="10.07607095874846">
        <ele>290.45999999999998</ele>
        <time>2025-05-20T16:28:42Z</time>
      </trkpt>
      <trkpt lat="49.766929987818003" lon="10.075965011492372">
        <ele>290.45999999999998</ele>
        <time>2025-05-20T16:28:44Z</time>
      </trkpt>
      <trkpt lat="49.766865028068423" lon="10.075943972915411">
        <ele>290.94</ele>
        <time>2025-05-20T16:28:45Z</time>
      </trkpt>
      <trkpt lat="49.766865028068423" lon="10.075943972915411">
        <ele>290.94</ele>
        <time>2025-05-20T16:28:46Z</time>
      </trkpt>
      <trkpt lat="49.766865028068423" lon="10.075943972915411">
        <ele>290.94</ele>
        <time>2025-05-20T16:28:47Z</time>
      </trkpt>
      <trkpt lat="49.766929987818003" lon="10.075965011492372">
        <ele>290.94</ele>
        <time>2025-05-20T16:28:48Z</time>
      </trkpt>
      <trkpt lat="49.766956977546215" lon="10.075879013165832">
        <ele>290.94</ele>
        <time>2025-05-20T16:28:49Z</time>
      </trkpt>
      <trkpt lat="49.76690299808979" lon="10.075665023177862">
        <ele>310.63999999999999</ele>
        <time>2025-05-20T16:31:57Z</time>
      </trkpt>
      <trkpt lat="49.766848012804985" lon="10.075687989592552">
        <ele>289.97000000000003</ele>
        <time>2025-05-20T16:32:12Z</time>
      </trkpt>
      <trkpt lat="49.766881037503481" lon="10.0756820384413">
        <ele>298.63</ele>
        <time>2025-05-20T16:33:06Z</time>
      </trkpt>
      <trkpt lat="49.766861004754901" lon="10.075695030391216">
        <ele>298.63</ele>
        <time>2025-05-20T16:33:21Z</time>
      </trkpt>
      <trkpt lat="49.766798978671432" lon="10.07546997629106">
        <ele>296.22000000000003</ele>
        <time>2025-05-20T16:33:33Z</time>
      </trkpt>
      <trkpt lat="49.766758996993303" lon="10.075429994612932">
        <ele>294.77999999999997</ele>
        <time>2025-05-20T16:34:15Z</time>
      </trkpt>
      <trkpt lat="49.766660006716847" lon="10.075768958777189">
        <ele>293.81999999999999</ele>
        <time>2025-05-20T16:34:22Z</time>
      </trkpt>
      <trkpt lat="49.766865028068423" lon="10.075943972915411">
        <ele>293.33999999999997</ele>
        <time>2025-05-20T16:34:24Z</time>
      </trkpt>
      <trkpt lat="49.766865028068423" lon="10.075943972915411">
        <ele>293.33999999999997</ele>
        <time>2025-05-20T16:34:25Z</time>
      </trkpt>
      <trkpt lat="49.766865028068423" lon="10.075943972915411">
        <ele>292.86000000000001</ele>
        <time>2025-05-20T16:34:26Z</time>
      </trkpt>
      <trkpt lat="49.766865028068423" lon="10.075943972915411">
        <ele>292.86000000000001</ele>
        <time>2025-05-20T16:34:27Z</time>
      </trkpt>
      <trkpt lat="49.766865028068423" lon="10.075943972915411">
        <ele>291.42000000000002</ele>
        <time>2025-05-20T16:34:38Z</time>
      </trkpt>
      <trkpt lat="49.766916995868087" lon="10.075960988178849">
        <ele>291.42000000000002</ele>
        <time>2025-05-20T16:34:41Z</time>
      </trkpt>
      <trkpt lat="49.766909033060074" lon="10.076057966798544">
        <ele>291.42000000000002</ele>
        <time>2025-05-20T16:34:42Z</time>
      </trkpt>
      <trkpt lat="49.766897968947887" lon="10.076109012588859">
        <ele>291.42000000000002</ele>
        <time>2025-05-20T16:34:43Z</time>
      </trkpt>
      <trkpt lat="49.766886988654733" lon="10.07615796290338">
        <ele>290.94</ele>
        <time>2025-05-20T16:34:44Z</time>
      </trkpt>
      <trkpt lat="49.766886988654733" lon="10.076281009241939">
        <ele>290.45999999999998</ele>
        <time>2025-05-20T16:34:45Z</time>
      </trkpt>
      <trkpt lat="49.766886988654733" lon="10.076366001740098">
        <ele>290.45999999999998</ele>
        <time>2025-05-20T16:34:46Z</time>
      </trkpt>
      <trkpt lat="49.766886988654733" lon="10.076416041702032">
        <ele>290.45999999999998</ele>
        <time>2025-05-20T16:34:47Z</time>
      </trkpt>
      <trkpt lat="49.766910038888454" lon="10.076476978138089">
        <ele>289.97000000000003</ele>
        <time>2025-05-20T16:34:48Z</time>
      </trkpt>
      <trkpt lat="49.76692596450448" lon="10.076519977301359">
        <ele>289.97000000000003</ele>
        <time>2025-05-20T16:34:49Z</time>
      </trkpt>
      <trkpt lat="49.766953960061073" lon="10.076587032526731">
        <ele>289.49000000000001</ele>
        <time>2025-05-20T16:34:50Z</time>
      </trkpt>
      <trkpt lat="49.766999976709485" lon="10.076572028920054">
        <ele>289.49000000000001</ele>
        <time>2025-05-20T16:34:51Z</time>
      </trkpt>
      <trkpt lat="49.767060996964574" lon="10.076553001999855">
        <ele>289.00999999999999</ele>
        <time>2025-05-20T16:34:52Z</time>
      </trkpt>
      <trkpt lat="49.767128974199295" lon="10.076531963422894">
        <ele>288.52999999999997</ele>
        <time>2025-05-20T16:34:53Z</time>
      </trkpt>
      <trkpt lat="49.767681006342173" lon="10.076416041702032">
        <ele>286.13</ele>
        <time>2025-05-20T16:35:00Z</time>
      </trkpt>
      <trkpt lat="49.767786031588912" lon="10.076416041702032">
        <ele>285.64999999999998</ele>
        <time>2025-05-20T16:35:01Z</time>
      </trkpt>
      <trkpt lat="49.768263967707753" lon="10.076268017292023">
        <ele>284.20999999999998</ele>
        <time>2025-05-20T16:35:06Z</time>
      </trkpt>
      <trkpt lat="49.768348960205913" lon="10.076192999258637">
        <ele>284.20999999999998</ele>
        <time>2025-05-20T16:35:07Z</time>
      </trkpt>
      <trkpt lat="49.76840696297586" lon="10.076104989275336">
        <ele>284.20999999999998</ele>
        <time>2025-05-20T16:35:08Z</time>
      </trkpt>
      <trkpt lat="49.768454991281033" lon="10.075958976522088">
        <ele>284.69</ele>
        <time>2025-05-20T16:35:09Z</time>
      </trkpt>
      <trkpt lat="49.768495978787541" lon="10.07583299651742">
        <ele>284.69</ele>
        <time>2025-05-20T16:35:10Z</time>
      </trkpt>
      <trkpt lat="49.768466977402568" lon="10.075679020956159">
        <ele>285.17000000000002</ele>
        <time>2025-05-20T16:35:11Z</time>
      </trkpt>
      <trkpt lat="49.768434958532453" lon="10.07551297545433">
        <ele>285.17000000000002</ele>
        <time>2025-05-20T16:35:12Z</time>
      </trkpt>
      <trkpt lat="49.76836203597486" lon="10.075417002663016">
        <ele>285.64999999999998</ele>
        <time>2025-05-20T16:35:13Z</time>
      </trkpt>
      <trkpt lat="49.768271008506417" lon="10.075316000729799">
        <ele>285.64999999999998</ele>
        <time>2025-05-20T16:35:14Z</time>
      </trkpt>
      <trkpt lat="49.768180986866355" lon="10.075246011838317">
        <ele>285.64999999999998</ele>
        <time>2025-05-20T16:35:15Z</time>
      </trkpt>
      <trkpt lat="49.768077973276377" lon="10.075214998796582">
        <ele>286.13</ele>
        <time>2025-05-20T16:35:16Z</time>
      </trkpt>
      <trkpt lat="49.767982000485063" lon="10.075187003239989">
        <ele>286.13</ele>
        <time>2025-05-20T16:35:17Z</time>
      </trkpt>
      <trkpt lat="49.767902037128806" lon="10.075162025168538">
        <ele>286.61000000000001</ele>
        <time>2025-05-20T16:35:18Z</time>
      </trkpt>
      <trkpt lat="49.767837999388576" lon="10.075142998248339">
        <ele>286.61000000000001</ele>
        <time>2025-05-20T16:35:19Z</time>
      </trkpt>
      <trkpt lat="49.767787959426641" lon="10.075049959123135">
        <ele>286.61000000000001</ele>
        <time>2025-05-20T16:35:20Z</time>
      </trkpt>
      <trkpt lat="49.767787959426641" lon="10.074934959411621">
        <ele>286.61000000000001</ele>
        <time>2025-05-20T16:35:21Z</time>
      </trkpt>
      <trkpt lat="49.767787959426641" lon="10.074762962758541">
        <ele>287.08999999999997</ele>
        <time>2025-05-20T16:35:22Z</time>
      </trkpt>
      <trkpt lat="49.767808998003602" lon="10.074591971933842">
        <ele>287.08999999999997</ele>
        <time>2025-05-20T16:35:23Z</time>
      </trkpt>
      <trkpt lat="49.76802097633481" lon="10.072863036766648">
        <ele>288.52999999999997</ele>
        <time>2025-05-20T16:35:30Z</time>
      </trkpt>
      <trkpt lat="49.768716003745794" lon="10.070502022281289">
        <ele>291.42000000000002</ele>
        <time>2025-05-20T16:35:39Z</time>
      </trkpt>
      <trkpt lat="49.769447995349765" lon="10.06848500110209">
        <ele>290.94</ele>
        <time>2025-05-20T16:35:47Z</time>
      </trkpt>
      <trkpt lat="49.769839011132717" lon="10.067572966217995">
        <ele>290.94</ele>
        <time>2025-05-20T16:35:51Z</time>
      </trkpt>
      <trkpt lat="49.769964991137385" lon="10.067457966506481">
        <ele>290.94</ele>
        <time>2025-05-20T16:35:52Z</time>
      </trkpt>
      <trkpt lat="49.770080996677279" lon="10.067371968179941">
        <ele>290.94</ele>
        <time>2025-05-20T16:35:53Z</time>
      </trkpt>
      <trkpt lat="49.770209994167089" lon="10.067340033128858">
        <ele>290.94</ele>
        <time>2025-05-20T16:35:54Z</time>
      </trkpt>
      <trkpt lat="49.770343014970422" lon="10.067333998158574">
        <ele>291.42000000000002</ele>
        <time>2025-05-20T16:35:55Z</time>
      </trkpt>
      <trkpt lat="49.770476035773754" lon="10.06738998927176">
        <ele>291.42000000000002</ele>
        <time>2025-05-20T16:35:56Z</time>
      </trkpt>
      <trkpt lat="49.770566979423165" lon="10.067514963448048">
        <ele>291.42000000000002</ele>
        <time>2025-05-20T16:35:57Z</time>
      </trkpt>
      <trkpt lat="49.770650966092944" lon="10.067673968151212">
        <ele>290.94</ele>
        <time>2025-05-20T16:35:58Z</time>
      </trkpt>
      <trkpt lat="49.770679967477918" lon="10.067859040573239">
        <ele>293.81999999999999</ele>
        <time>2025-05-20T16:36:06Z</time>
      </trkpt>
      <trkpt lat="49.770700000226498" lon="10.069642961025238">
        <ele>294.30000000000001</ele>
        <time>2025-05-20T16:36:07Z</time>
      </trkpt>
      <trkpt lat="49.770609978586435" lon="10.069782016798854">
        <ele>294.77999999999997</ele>
        <time>2025-05-20T16:36:08Z</time>
      </trkpt>
      <trkpt lat="49.770504031330347" lon="10.069898022338748">
        <ele>295.74000000000001</ele>
        <time>2025-05-20T16:36:10Z</time>
      </trkpt>
      <trkpt lat="49.77027696557343" lon="10.069957030937076">
        <ele>295.74000000000001</ele>
        <time>2025-05-20T16:36:11Z</time>
      </trkpt>
      <trkpt lat="49.770132964476943" lon="10.06983901374042">
        <ele>296.22000000000003</ele>
        <time>2025-05-20T16:36:12Z</time>
      </trkpt>
      <trkpt lat="49.7700160369277" lon="10.069734994322062">
        <ele>296.22000000000003</ele>
        <time>2025-05-20T16:36:13Z</time>
      </trkpt>
      <trkpt lat="49.769899025559425" lon="10.069599039852619">
        <ele>296.69999999999999</ele>
        <time>2025-05-20T16:36:14Z</time>
      </trkpt>
      <trkpt lat="49.769772961735725" lon="10.069454032927752">
        <ele>297.18000000000001</ele>
        <time>2025-05-20T16:36:15Z</time>
      </trkpt>
      <trkpt lat="49.768995959311724" lon="10.068166991695762">
        <ele>297.67000000000002</ele>
        <time>2025-05-20T16:36:20Z</time>
      </trkpt>
      <trkpt lat="49.767197035253048" lon="10.06517599336803">
        <ele>296.69999999999999</ele>
        <time>2025-05-20T16:36:30Z</time>
      </trkpt>
      <trkpt lat="49.765992974862456" lon="10.063648978248239">
        <ele>294.77999999999997</ele>
        <time>2025-05-20T16:36:36Z</time>
      </trkpt>
      <trkpt lat="49.765809997916222" lon="10.06337103433907">
        <ele>294.30000000000001</ele>
        <time>2025-05-20T16:36:43Z</time>
      </trkpt>
      <trkpt lat="49.761470016092062" lon="10.057336986064911">
        <ele>288.52999999999997</ele>
        <time>2025-05-20T16:37:01Z</time>
      </trkpt>
      <trkpt lat="49.759073965251446" lon="10.054139038547873">
        <ele>284.69</ele>
        <time>2025-05-20T16:37:12Z</time>
      </trkpt>
      <trkpt lat="49.756243983283639" lon="10.050170039758086">
        <ele>280.83999999999997</ele>
        <time>2025-05-20T16:37:25Z</time>
      </trkpt>
      <trkpt lat="49.753590021282434" lon="10.045894011855125">
        <ele>277.95999999999998</ele>
        <time>2025-05-20T16:37:38Z</time>
      </trkpt>
      <trkpt lat="49.751134039834142" lon="10.041342973709106">
        <ele>284.20999999999998</ele>
        <time>2025-05-20T16:37:51Z</time>
      </trkpt>
      <trkpt lat="49.748352002352476" lon="10.035442030057311">
        <ele>295.74000000000001</ele>
        <time>2025-05-20T16:38:07Z</time>
      </trkpt>
      <trkpt lat="49.746253006160259" lon="10.030458988621831">
        <ele>298.14999999999998</ele>
        <time>2025-05-20T16:38:20Z</time>
      </trkpt>
      <trkpt lat="49.744654996320605" lon="10.026080030947924">
        <ele>292.38</ele>
        <time>2025-05-20T16:38:31Z</time>
      </trkpt>
      <trkpt lat="49.742898987606168" lon="10.020287968218327">
        <ele>277</ele>
        <time>2025-05-20T16:38:45Z</time>
      </trkpt>
      <trkpt lat="49.741685958579183" lon="10.015123961493373">
        <ele>260.64999999999998</ele>
        <time>2025-05-20T16:38:57Z</time>
      </trkpt>
      <trkpt lat="49.740839973092079" lon="10.010287016630173">
        <ele>242.87</ele>
        <time>2025-05-20T16:39:08Z</time>
      </trkpt>
      <trkpt lat="49.739904971793294" lon="10.003132978454232">
        <ele>220.28</ele>
        <time>2025-05-20T16:39:24Z</time>
      </trkpt>
      <trkpt lat="49.739244980737567" lon="9.996367022395134">
        <ele>200.56999999999999</ele>
        <time>2025-05-20T16:39:39Z</time>
      </trkpt>
      <trkpt lat="49.738841978833079" lon="9.990013958886266">
        <ele>191.44</ele>
        <time>2025-05-20T16:39:53Z</time>
      </trkpt>
      <trkpt lat="49.738749023526907" lon="9.984554992988706">
        <ele>194.31999999999999</ele>
        <time>2025-05-20T16:40:05Z</time>
      </trkpt>
      <trkpt lat="49.73914397880435" lon="9.979132991284132">
        <ele>204.90000000000001</ele>
        <time>2025-05-20T16:40:17Z</time>
      </trkpt>
      <trkpt lat="49.739815033972263" lon="9.974729977548122">
        <ele>216.43000000000001</ele>
        <time>2025-05-20T16:40:27Z</time>
      </trkpt>
      <trkpt lat="49.740707958117127" lon="9.97186697088182">
        <ele>226.53</ele>
        <time>2025-05-20T16:40:34Z</time>
      </trkpt>
      <trkpt lat="49.741844041272998" lon="9.969787001609802">
        <ele>235.18000000000001</ele>
        <time>2025-05-20T16:40:40Z</time>
      </trkpt>
      <trkpt lat="49.743563001975417" lon="9.968030992895365">
        <ele>240.94999999999999</ele>
        <time>2025-05-20T16:40:47Z</time>
      </trkpt>
      <trkpt lat="49.745353041216731" lon="9.96694796718657">
        <ele>250.56</ele>
        <time>2025-05-20T16:40:54Z</time>
      </trkpt>
      <trkpt lat="49.74790801294148" lon="9.965965021401644">
        <ele>263.54000000000002</ele>
        <time>2025-05-20T16:41:04Z</time>
      </trkpt>
      <trkpt lat="49.751394968479872" lon="9.964445969089866">
        <ele>280.83999999999997</ele>
        <time>2025-05-20T16:41:18Z</time>
      </trkpt>
      <trkpt lat="49.753104960545897" lon="9.963012998923659">
        <ele>286.61000000000001</ele>
        <time>2025-05-20T16:41:26Z</time>
      </trkpt>
      <trkpt lat="49.754352020099759" lon="9.961029002442956">
        <ele>288.52999999999997</ele>
        <time>2025-05-20T16:41:34Z</time>
      </trkpt>
      <trkpt lat="49.755190964788198" lon="9.9586730170995">
        <ele>286.61000000000001</ele>
        <time>2025-05-20T16:41:42Z</time>
      </trkpt>
      <trkpt lat="49.755582986399531" lon="9.956121984869242">
        <ele>284.20999999999998</ele>
        <time>2025-05-20T16:41:50Z</time>
      </trkpt>
      <trkpt lat="49.755552979186177" lon="9.953450001776218">
        <ele>277.95999999999998</ele>
        <time>2025-05-20T16:41:58Z</time>
      </trkpt>
      <trkpt lat="49.755371008068323" lon="9.952200008556247">
        <ele>274.58999999999997</ele>
        <time>2025-05-20T16:42:02Z</time>
      </trkpt>
      <trkpt lat="49.755302025005221" lon="9.951840005815029">
        <ele>273.63</ele>
        <time>2025-05-20T16:42:03Z</time>
      </trkpt>
      <trkpt lat="49.753008987754583" lon="9.944072999060154">
        <ele>266.42000000000002</ele>
        <time>2025-05-20T16:42:28Z</time>
      </trkpt>
      <trkpt lat="49.752397025004029" lon="9.940537009388208">
        <ele>258.73000000000002</ele>
        <time>2025-05-20T16:42:38Z</time>
      </trkpt>
      <trkpt lat="49.752097958698869" lon="9.936744030565023">
        <ele>257.76999999999998</ele>
        <time>2025-05-20T16:42:48Z</time>
      </trkpt>
      <trkpt lat="49.752194015309215" lon="9.932932024821639">
        <ele>260.64999999999998</ele>
        <time>2025-05-20T16:42:58Z</time>
      </trkpt>
      <trkpt lat="49.752567010000348" lon="9.929480021819472">
        <ele>266.89999999999998</ele>
        <time>2025-05-20T16:43:08Z</time>
      </trkpt>
      <trkpt lat="49.75278896279633" lon="9.92835802026093">
        <ele>269.79000000000002</ele>
        <time>2025-05-20T16:43:12Z</time>
      </trkpt>
      <trkpt lat="49.752864986658096" lon="9.928005980327725">
        <ele>270.75</ele>
        <time>2025-05-20T16:43:13Z</time>
      </trkpt>
      <trkpt lat="49.753294978290796" lon="9.926109993830323">
        <ele>277.48000000000002</ele>
        <time>2025-05-20T16:43:21Z</time>
      </trkpt>
      <trkpt lat="49.753515003249049" lon="9.925152026116848">
        <ele>278.92000000000002</ele>
        <time>2025-05-20T16:43:29Z</time>
      </trkpt>
      <trkpt lat="49.753766963258386" lon="9.924032958224416">
        <ele>279.39999999999998</ele>
        <time>2025-05-20T16:43:39Z</time>
      </trkpt>
      <trkpt lat="49.754113974049687" lon="9.922425979748368">
        <ele>282.76999999999998</ele>
        <time>2025-05-20T16:43:53Z</time>
      </trkpt>
      <trkpt lat="49.754306003451347" lon="9.921406991779804">
        <ele>285.17000000000002</ele>
        <time>2025-05-20T16:44:02Z</time>
      </trkpt>
      <trkpt lat="49.754577996209264" lon="9.919757014140487">
        <ele>289.00999999999999</ele>
        <time>2025-05-20T16:44:12Z</time>
      </trkpt>
      <trkpt lat="49.754925007000566" lon="9.916901970282197">
        <ele>294.30000000000001</ele>
        <time>2025-05-20T16:44:26Z</time>
      </trkpt>
      <trkpt lat="49.755037995055318" lon="9.915084019303322">
        <ele>300.06999999999999</ele>
        <time>2025-05-20T16:44:35Z</time>
      </trkpt>
      <trkpt lat="49.75508501753211" lon="9.913206975907087">
        <ele>304.88</ele>
        <time>2025-05-20T16:44:44Z</time>
      </trkpt>
      <trkpt lat="49.754930036142468" lon="9.910001987591386">
        <ele>313.52999999999997</ele>
        <time>2025-05-20T16:44:56Z</time>
      </trkpt>
      <trkpt lat="49.75450599566102" lon="9.906060984358192">
        <ele>324.10000000000002</ele>
        <time>2025-05-20T16:45:10Z</time>
      </trkpt>
      <trkpt lat="49.75388003513217" lon="9.90248903632164">
        <ele>331.31</ele>
        <time>2025-05-20T16:45:23Z</time>
      </trkpt>
      <trkpt lat="49.75300395861268" lon="9.898792030289769">
        <ele>336.12</ele>
        <time>2025-05-20T16:45:36Z</time>
      </trkpt>
      <trkpt lat="49.751865025609732" lon="9.895152021199465">
        <ele>341.41000000000003</ele>
        <time>2025-05-20T16:45:48Z</time>
      </trkpt>
      <trkpt lat="49.750717962160707" lon="9.892132021486759">
        <ele>344.76999999999998</ele>
        <time>2025-05-20T16:45:58Z</time>
      </trkpt>
      <trkpt lat="49.750602040439844" lon="9.891850976273418">
        <ele>345.25</ele>
        <time>2025-05-20T16:45:59Z</time>
      </trkpt>
      <trkpt lat="49.750481005758047" lon="9.891561968252063">
        <ele>345.73000000000002</ele>
        <time>2025-05-20T16:46:00Z</time>
      </trkpt>
      <trkpt lat="49.74913596175611" lon="9.888270981609821">
        <ele>349.10000000000002</ele>
        <time>2025-05-20T16:46:11Z</time>
      </trkpt>
      <trkpt lat="49.748151004314423" lon="9.885353995487094">
        <ele>348.13</ele>
        <time>2025-05-20T16:46:20Z</time>
      </trkpt>
      <trkpt lat="49.747179960832" lon="9.881795039400458">
        <ele>347.17000000000002</ele>
        <time>2025-05-20T16:46:29Z</time>
      </trkpt>
      <trkpt lat="49.746389966458082" lon="9.877404011785984">
        <ele>347.17000000000002</ele>
        <time>2025-05-20T16:46:39Z</time>
      </trkpt>
      <trkpt lat="49.745992999523878" lon="9.873349014669657">
        <ele>348.13</ele>
        <time>2025-05-20T16:46:48Z</time>
      </trkpt>
      <trkpt lat="49.745951006188989" lon="9.868338983505964">
        <ele>350.54000000000002</ele>
        <time>2025-05-20T16:47:00Z</time>
      </trkpt>
      <trkpt lat="49.746433971449733" lon="9.862481039017439">
        <ele>357.26999999999998</ele>
        <time>2025-05-20T16:47:12Z</time>
      </trkpt>
      <trkpt lat="49.746994972229004" lon="9.858504999428988">
        <ele>362.06999999999999</ele>
        <time>2025-05-20T16:47:21Z</time>
      </trkpt>
      <trkpt lat="49.747606012970209" lon="9.854497024789453">
        <ele>364.95999999999998</ele>
        <time>2025-05-20T16:47:30Z</time>
      </trkpt>
      <trkpt lat="49.748416962102056" lon="9.849132020026445">
        <ele>365.92000000000002</ele>
        <time>2025-05-20T16:47:42Z</time>
      </trkpt>
      <trkpt lat="49.749140990898013" lon="9.842401016503573">
        <ele>360.63</ele>
        <time>2025-05-20T16:47:57Z</time>
      </trkpt>
      <trkpt lat="49.749416001141071" lon="9.836489008739591">
        <ele>347.64999999999998</ele>
        <time>2025-05-20T16:48:10Z</time>
      </trkpt>
      <trkpt lat="49.749246016144753" lon="9.830109039321542">
        <ele>330.82999999999998</ele>
        <time>2025-05-20T16:48:24Z</time>
      </trkpt>
      <trkpt lat="49.748735977336764" lon="9.824686031788588">
        <ele>316.41000000000003</ele>
        <time>2025-05-20T16:48:36Z</time>
      </trkpt>
      <trkpt lat="49.747853027656674" lon="9.818939985707402">
        <ele>300.55000000000001</ele>
        <time>2025-05-20T16:48:49Z</time>
      </trkpt>
      <trkpt lat="49.747429993003607" lon="9.815815966576338">
        <ele>293.81999999999999</ele>
        <time>2025-05-20T16:48:56Z</time>
      </trkpt>
      <trkpt lat="49.74713696166873" lon="9.810823034495115">
        <ele>285.17000000000002</ele>
        <time>2025-05-20T16:49:07Z</time>
      </trkpt>
      <trkpt lat="49.747366039082408" lon="9.806742975488305">
        <ele>278.44</ele>
        <time>2025-05-20T16:49:16Z</time>
      </trkpt>
      <trkpt lat="49.748044973239303" lon="9.802782023325563">
        <ele>272.19</ele>
        <time>2025-05-20T16:49:25Z</time>
      </trkpt>
      <trkpt lat="49.749250961467624" lon="9.79860900901258">
        <ele>267.86000000000001</ele>
        <time>2025-05-20T16:49:35Z</time>
      </trkpt>
      <trkpt lat="49.751348029822111" lon="9.793638959527016">
        <ele>264.98000000000002</ele>
        <time>2025-05-20T16:49:48Z</time>
      </trkpt>
      <trkpt lat="49.753678031265736" lon="9.789528977125883">
        <ele>260.17000000000002</ele>
        <time>2025-05-20T16:50:00Z</time>
      </trkpt>
      <trkpt lat="49.75587903521955" lon="9.786467989906669">
        <ele>258.73000000000002</ele>
        <time>2025-05-20T16:50:10Z</time>
      </trkpt>
      <trkpt lat="49.759005988016725" lon="9.78301196359098">
        <ele>256.81</ele>
        <time>2025-05-20T16:50:23Z</time>
      </trkpt>
      <trkpt lat="49.762653037905693" lon="9.779986012727022">
        <ele>255.37</ele>
        <time>2025-05-20T16:50:37Z</time>
      </trkpt>
      <trkpt lat="49.765910999849439" lon="9.776878003031015">
        <ele>258.73000000000002</ele>
        <time>2025-05-20T16:50:50Z</time>
      </trkpt>
      <trkpt lat="49.768090965226293" lon="9.773829001933336">
        <ele>268.82999999999998</ele>
        <time>2025-05-20T16:51:01Z</time>
      </trkpt>
      <trkpt lat="49.769489988684654" lon="9.77035696618259">
        <ele>278.44</ele>
        <time>2025-05-20T16:51:09Z</time>
      </trkpt>
      <trkpt lat="49.770078985020518" lon="9.767309976741672">
        <ele>287.56999999999999</ele>
        <time>2025-05-20T16:51:16Z</time>
      </trkpt>
      <trkpt lat="49.770351983606815" lon="9.763236036524177">
        <ele>299.11000000000001</ele>
        <time>2025-05-20T16:51:25Z</time>
      </trkpt>
      <trkpt lat="49.770442005246878" lon="9.758229022845626">
        <ele>314.49000000000001</ele>
        <time>2025-05-20T16:51:36Z</time>
      </trkpt>
      <trkpt lat="49.770780969411135" lon="9.752775002270937">
        <ele>327.94999999999999</ele>
        <time>2025-05-20T16:51:48Z</time>
      </trkpt>
      <trkpt lat="49.771492006257176" lon="9.7478829883039">
        <ele>336.12</ele>
        <time>2025-05-20T16:51:59Z</time>
      </trkpt>
      <trkpt lat="49.772707968950272" lon="9.742751000449061">
        <ele>341.41000000000003</ele>
        <time>2025-05-20T16:52:11Z</time>
      </trkpt>
      <trkpt lat="49.77431695908308" lon="9.737857980653644">
        <ele>341.41000000000003</ele>
        <time>2025-05-20T16:52:23Z</time>
      </trkpt>
      <trkpt lat="49.775404008105397" lon="9.734130967408419">
        <ele>340.92000000000002</ele>
        <time>2025-05-20T16:52:32Z</time>
      </trkpt>
      <trkpt lat="49.776017982512712" lon="9.730146965011954">
        <ele>342.37</ele>
        <time>2025-05-20T16:52:41Z</time>
      </trkpt>
      <trkpt lat="49.776157038286328" lon="9.726505028083921">
        <ele>348.62</ele>
        <time>2025-05-20T16:52:49Z</time>
      </trkpt>
      <trkpt lat="49.775767028331757" lon="9.722461011260748">
        <ele>360.14999999999998</ele>
        <time>2025-05-20T16:52:58Z</time>
      </trkpt>
      <trkpt lat="49.775145007297397" lon="9.719413015991449">
        <ele>365.92000000000002</ele>
        <time>2025-05-20T16:53:05Z</time>
      </trkpt>
      <trkpt lat="49.773651016876101" lon="9.713918007910252">
        <ele>377.94</ele>
        <time>2025-05-20T16:53:18Z</time>
      </trkpt>
      <trkpt lat="49.772870996966958" lon="9.710444966331124">
        <ele>383.22000000000003</ele>
        <time>2025-05-20T16:53:26Z</time>
      </trkpt>
      <trkpt lat="49.771602982655168" lon="9.703862993046641">
        <ele>376.97000000000003</ele>
        <time>2025-05-20T16:53:41Z</time>
      </trkpt>
      <trkpt lat="49.770111003890634" lon="9.697916032746434">
        <ele>364</ele>
        <time>2025-05-20T16:53:55Z</time>
      </trkpt>
      <trkpt lat="49.768731007352471" lon="9.691430032253265">
        <ele>352.45999999999998</ele>
        <time>2025-05-20T16:54:10Z</time>
      </trkpt>
      <trkpt lat="49.768061963841319" lon="9.685593964532018">
        <ele>346.20999999999998</ele>
        <time>2025-05-20T16:54:23Z</time>
      </trkpt>
      <trkpt lat="49.767882004380226" lon="9.680123012512922">
        <ele>336.60000000000002</ele>
        <time>2025-05-20T16:54:35Z</time>
      </trkpt>
      <trkpt lat="49.767899019643664" lon="9.672366986051202">
        <ele>320.74000000000001</ele>
        <time>2025-05-20T16:54:52Z</time>
      </trkpt>
      <trkpt lat="49.767716964706779" lon="9.667820977047086">
        <ele>320.74000000000001</ele>
        <time>2025-05-20T16:55:02Z</time>
      </trkpt>
      <trkpt lat="49.767145989462733" lon="9.662426970899105">
        <ele>321.69999999999999</ele>
        <time>2025-05-20T16:55:14Z</time>
      </trkpt>
      <trkpt lat="49.766252981498837" lon="9.657111000269651">
        <ele>317.37</ele>
        <time>2025-05-20T16:55:26Z</time>
      </trkpt>
      <trkpt lat="49.76488103158772" lon="9.651539968326688">
        <ele>303.43000000000001</ele>
        <time>2025-05-20T16:55:39Z</time>
      </trkpt>
      <trkpt lat="49.763165004551411" lon="9.645713958889246">
        <ele>285.17000000000002</ele>
        <time>2025-05-20T16:55:53Z</time>
      </trkpt>
      <trkpt lat="49.762391019612551" lon="9.641779996454716">
        <ele>275.56</ele>
        <time>2025-05-20T16:56:02Z</time>
      </trkpt>
      <trkpt lat="49.762065969407558" lon="9.637721981853247">
        <ele>265.45999999999998</ele>
        <time>2025-05-20T16:56:11Z</time>
      </trkpt>
      <trkpt lat="49.762118021026254" lon="9.63222898542881">
        <ele>248.63999999999999</ele>
        <time>2025-05-20T16:56:23Z</time>
      </trkpt>
      <trkpt lat="49.762637028470635" lon="9.626816958189011">
        <ele>233.74000000000001</ele>
        <time>2025-05-20T16:56:35Z</time>
      </trkpt>
      <trkpt lat="49.763529030606151" lon="9.620577972382307">
        <ele>217.40000000000001</ele>
        <time>2025-05-20T16:56:49Z</time>
      </trkpt>
      <trkpt lat="49.763876041397452" lon="9.616054007783532">
        <ele>205.86000000000001</ele>
        <time>2025-05-20T16:56:59Z</time>
      </trkpt>
      <trkpt lat="49.764139987528324" lon="9.610132025554776">
        <ele>193.84</ele>
        <time>2025-05-20T16:57:12Z</time>
      </trkpt>
      <trkpt lat="49.764552963897586" lon="9.606553036719561">
        <ele>189.52000000000001</ele>
        <time>2025-05-20T16:57:20Z</time>
      </trkpt>
      <trkpt lat="49.76542099379003" lon="9.6027070004493">
        <ele>183.27000000000001</ele>
        <time>2025-05-20T16:57:29Z</time>
      </trkpt>
      <trkpt lat="49.76724699139595" lon="9.597475016489625">
        <ele>178.46000000000001</ele>
        <time>2025-05-20T16:57:42Z</time>
      </trkpt>
      <trkpt lat="49.768337979912758" lon="9.593711961060762">
        <ele>173.66</ele>
        <time>2025-05-20T16:57:51Z</time>
      </trkpt>
      <trkpt lat="49.768863022327423" lon="9.590165996924043">
        <ele>169.33000000000001</ele>
        <time>2025-05-20T16:57:59Z</time>
      </trkpt>
      <trkpt lat="49.769622003659606" lon="9.584827981889248">
        <ele>163.56</ele>
        <time>2025-05-20T16:58:11Z</time>
      </trkpt>
      <trkpt lat="49.770746016874909" lon="9.581144973635674">
        <ele>165</ele>
        <time>2025-05-20T16:58:20Z</time>
      </trkpt>
      <trkpt lat="49.771929960697889" lon="9.578545996919274">
        <ele>170.28999999999999</ele>
        <time>2025-05-20T16:58:27Z</time>
      </trkpt>
      <trkpt lat="49.773611035197973" lon="9.5760009996593">
        <ele>175.58000000000001</ele>
        <time>2025-05-20T16:58:35Z</time>
      </trkpt>
      <trkpt lat="49.775580028072" lon="9.573954977095127">
        <ele>177.5</ele>
        <time>2025-05-20T16:58:43Z</time>
      </trkpt>
      <trkpt lat="49.777769967913628" lon="9.572551008313894">
        <ele>175.58000000000001</ele>
        <time>2025-05-20T16:58:51Z</time>
      </trkpt>
      <trkpt lat="49.780083037912846" lon="9.571813987568021">
        <ele>172.69</ele>
        <time>2025-05-20T16:58:59Z</time>
      </trkpt>
      <trkpt lat="49.782448997721076" lon="9.571743998676539">
        <ele>167.88999999999999</ele>
        <time>2025-05-20T16:59:07Z</time>
      </trkpt>
      <trkpt lat="49.785049986094236" lon="9.572518989443779">
        <ele>166.44999999999999</ele>
        <time>2025-05-20T16:59:16Z</time>
      </trkpt>
      <trkpt lat="49.787198016420007" lon="9.573932010680437">
        <ele>170.77000000000001</ele>
        <time>2025-05-20T16:59:24Z</time>
      </trkpt>
      <trkpt lat="49.789406983181834" lon="9.576184982433915">
        <ele>180.87</ele>
        <time>2025-05-20T16:59:33Z</time>
      </trkpt>
      <trkpt lat="49.791264999657869" lon="9.57913801074028">
        <ele>190.96000000000001</ele>
        <time>2025-05-20T16:59:42Z</time>
      </trkpt>
      <trkpt lat="49.793452005833387" lon="9.583459971472621">
        <ele>196.72999999999999</ele>
        <time>2025-05-20T16:59:54Z</time>
      </trkpt>
      <trkpt lat="49.795029982924461" lon="9.585486967116594">
        <ele>200.56999999999999</ele>
        <time>2025-05-20T17:00:01Z</time>
      </trkpt>
      <trkpt lat="49.796866960823536" lon="9.586897976696491">
        <ele>205.38</ele>
        <time>2025-05-20T17:00:08Z</time>
      </trkpt>
      <trkpt lat="49.799159998074174" lon="9.587718984112144">
        <ele>211.15000000000001</ele>
        <time>2025-05-20T17:00:16Z</time>
      </trkpt>
      <trkpt lat="49.800920030102134" lon="9.587713032960892">
        <ele>216.43000000000001</ele>
        <time>2025-05-20T17:00:22Z</time>
      </trkpt>
      <trkpt lat="49.802936967462301" lon="9.58702496252954">
        <ele>224.12</ele>
        <time>2025-05-20T17:00:29Z</time>
      </trkpt>
      <trkpt lat="49.804820967838168" lon="9.585728030651808">
        <ele>230.37</ele>
        <time>2025-05-20T17:00:36Z</time>
      </trkpt>
      <trkpt lat="49.807010991498828" lon="9.583368021994829">
        <ele>234.22</ele>
        <time>2025-05-20T17:00:45Z</time>
      </trkpt>
      <trkpt lat="49.809138989076018" lon="9.58016999065876">
        <ele>234.22</ele>
        <time>2025-05-20T17:00:55Z</time>
      </trkpt>
      <trkpt lat="49.811736959964037" lon="9.57522701472044">
        <ele>237.58000000000001</ele>
        <time>2025-05-20T17:01:09Z</time>
      </trkpt>
      <trkpt lat="49.813945004716516" lon="9.570355033501983">
        <ele>247.19999999999999</ele>
        <time>2025-05-20T17:01:22Z</time>
      </trkpt>
      <trkpt lat="49.815767984837294" lon="9.565674997866154">
        <ele>255.37</ele>
        <time>2025-05-20T17:01:34Z</time>
      </trkpt>
      <trkpt lat="49.817630024626851" lon="9.559973040595651">
        <ele>266.89999999999998</ele>
        <time>2025-05-20T17:01:48Z</time>
      </trkpt>
      <trkpt lat="49.818966016173363" lon="9.554911041632295">
        <ele>277</ele>
        <time>2025-05-20T17:02:00Z</time>
      </trkpt>
      <trkpt lat="49.820839958265424" lon="9.547725990414619">
        <ele>291.42000000000002</ele>
        <time>2025-05-20T17:02:17Z</time>
      </trkpt>
      <trkpt lat="49.822578029707074" lon="9.543482987210155">
        <ele>300.06999999999999</ele>
        <time>2025-05-20T17:02:28Z</time>
      </trkpt>
      <trkpt lat="49.824550962075591" lon="9.540112959221005">
        <ele>311.12</ele>
        <time>2025-05-20T17:02:38Z</time>
      </trkpt>
      <trkpt lat="49.826600002124906" lon="9.537503002211452">
        <ele>323.13999999999999</ele>
        <time>2025-05-20T17:02:47Z</time>
      </trkpt>
      <trkpt lat="49.829987967386842" lon="9.533105017617345">
        <ele>342.37</ele>
        <time>2025-05-20T17:03:02Z</time>
      </trkpt>
      <trkpt lat="49.832061985507607" lon="9.52924900688231">
        <ele>356.31</ele>
        <time>2025-05-20T17:03:13Z</time>
      </trkpt>
      <trkpt lat="49.833506019786" lon="9.525281013920903">
        <ele>368.31999999999999</ele>
        <time>2025-05-20T17:03:23Z</time>
      </trkpt>
      <trkpt lat="49.835654972121119" lon="9.518754025921226">
        <ele>381.77999999999997</ele>
        <time>2025-05-20T17:03:39Z</time>
      </trkpt>
      <trkpt lat="49.837464038282633" lon="9.514584029093385">
        <ele>385.14999999999998</ele>
        <time>2025-05-20T17:03:50Z</time>
      </trkpt>
      <trkpt lat="49.839449962601066" lon="9.511212995275855">
        <ele>388.50999999999999</ele>
        <time>2025-05-20T17:04:00Z</time>
      </trkpt>
      <trkpt lat="49.841950032860041" lon="9.508003983646631">
        <ele>389.94999999999999</ele>
        <time>2025-05-20T17:04:11Z</time>
      </trkpt>
      <trkpt lat="49.844717988744378" lon="9.505391009151936">
        <ele>388.99000000000001</ele>
        <time>2025-05-20T17:04:22Z</time>
      </trkpt>
      <trkpt lat="49.84850199893117" lon="9.502771999686956">
        <ele>385.14999999999998</ele>
        <time>2025-05-20T17:04:36Z</time>
      </trkpt>
      <trkpt lat="49.85138101503253" lon="9.500436969101429">
        <ele>383.69999999999999</ele>
        <time>2025-05-20T17:04:47Z</time>
      </trkpt>
      <trkpt lat="49.853217992931604" lon="9.498165976256132">
        <ele>387.06999999999999</ele>
        <time>2025-05-20T17:04:55Z</time>
      </trkpt>
      <trkpt lat="49.854924967512488" lon="9.495038017630577">
        <ele>394.27999999999997</ele>
        <time>2025-05-20T17:05:04Z</time>
      </trkpt>
      <trkpt lat="49.856214020401239" lon="9.491443019360304">
        <ele>401.49000000000001</ele>
        <time>2025-05-20T17:05:13Z</time>
      </trkpt>
      <trkpt lat="49.857809012755752" lon="9.487608969211578">
        <ele>408.69999999999999</ele>
        <time>2025-05-20T17:05:23Z</time>
      </trkpt>
      <trkpt lat="49.859238965436816" lon="9.485306041315198">
        <ele>413.5</ele>
        <time>2025-05-20T17:05:30Z</time>
      </trkpt>
      <trkpt lat="49.86111399717629" lon="9.483029013499618">
        <ele>415.43000000000001</ele>
        <time>2025-05-20T17:05:38Z</time>
      </trkpt>
      <trkpt lat="49.863096987828612" lon="9.480271032080054">
        <ele>413.5</ele>
        <time>2025-05-20T17:05:47Z</time>
      </trkpt>
      <trkpt lat="49.864473966881633" lon="9.477332001551986">
        <ele>413.98000000000002</ele>
        <time>2025-05-20T17:05:55Z</time>
      </trkpt>
      <trkpt lat="49.865441992878914" lon="9.474005978554487">
        <ele>421.19</ele>
        <time>2025-05-20T17:06:03Z</time>
      </trkpt>
      <trkpt lat="49.865974998101592" lon="9.470433024689555">
        <ele>427.44</ele>
        <time>2025-05-20T17:06:11Z</time>
      </trkpt>
      <trkpt lat="49.866344975307584" lon="9.465443026274443">
        <ele>432.73000000000002</ele>
        <time>2025-05-20T17:06:22Z</time>
      </trkpt>
      <trkpt lat="49.86700396053493" lon="9.460995001718402">
        <ele>438.01999999999998</ele>
        <time>2025-05-20T17:06:32Z</time>
      </trkpt>
      <trkpt lat="49.868135014548898" lon="9.456782005727291">
        <ele>444.26999999999998</ele>
        <time>2025-05-20T17:06:42Z</time>
      </trkpt>
      <trkpt lat="49.869711985811591" lon="9.452919960021973">
        <ele>449.55000000000001</ele>
        <time>2025-05-20T17:06:52Z</time>
      </trkpt>
      <trkpt lat="49.871679972857237" lon="9.449492013081908">
        <ele>451</ele>
        <time>2025-05-20T17:07:02Z</time>
      </trkpt>
      <trkpt lat="49.874798962846398" lon="9.445271976292133">
        <ele>442.81999999999999</ele>
        <time>2025-05-20T17:07:16Z</time>
      </trkpt>
      <trkpt lat="49.877338008955121" lon="9.441423006355763">
        <ele>433.69</ele>
        <time>2025-05-20T17:07:28Z</time>
      </trkpt>
      <trkpt lat="49.879052024334669" lon="9.437718037515879">
        <ele>427.92000000000002</ele>
        <time>2025-05-20T17:07:38Z</time>
      </trkpt>
      <trkpt lat="49.880251977592707" lon="9.434076016768813">
        <ele>426.95999999999998</ele>
        <time>2025-05-20T17:07:47Z</time>
      </trkpt>
      <trkpt lat="49.881457965821028" lon="9.428907986730337">
        <ele>430.81</ele>
        <time>2025-05-20T17:07:59Z</time>
      </trkpt>
      <trkpt lat="49.882670994848013" lon="9.424762967973948">
        <ele>439.94</ele>
        <time>2025-05-20T17:08:09Z</time>
      </trkpt>
      <trkpt lat="49.883987037464976" lon="9.421754032373428">
        <ele>450.02999999999997</ele>
        <time>2025-05-20T17:08:17Z</time>
      </trkpt>
      <trkpt lat="49.885817980393767" lon="9.418784994632006">
        <ele>463.00999999999999</ele>
        <time>2025-05-20T17:08:26Z</time>
      </trkpt>
      <trkpt lat="49.888370018452406" lon="9.415002996101975">
        <ele>478.87</ele>
        <time>2025-05-20T17:08:38Z</time>
      </trkpt>
      <trkpt lat="49.889650018885732" lon="9.412500998005271">
        <ele>484.16000000000003</ele>
        <time>2025-05-20T17:08:45Z</time>
      </trkpt>
      <trkpt lat="49.890760034322739" lon="9.409284023568034">
        <ele>487.05000000000001</ele>
        <time>2025-05-20T17:08:53Z</time>
      </trkpt>
      <trkpt lat="49.89136696793139" lon="9.406195962801576">
        <ele>488.97000000000003</ele>
        <time>2025-05-20T17:09:00Z</time>
      </trkpt>
      <trkpt lat="49.892194010317326" lon="9.40179998986423">
        <ele>478.87</ele>
        <time>2025-05-20T17:09:10Z</time>
      </trkpt>
      <trkpt lat="49.893398992717266" lon="9.398679994046688">
        <ele>469.74000000000001</ele>
        <time>2025-05-20T17:09:18Z</time>
      </trkpt>
      <trkpt lat="49.894857024773955" lon="9.396455017849803">
        <ele>466.38</ele>
        <time>2025-05-20T17:09:25Z</time>
      </trkpt>
      <trkpt lat="49.896542960777879" lon="9.394614016637206">
        <ele>466.86000000000001</ele>
        <time>2025-05-20T17:09:32Z</time>
      </trkpt>
      <trkpt lat="49.898351021111012" lon="9.392270017415285">
        <ele>470.69999999999999</ele>
        <time>2025-05-20T17:09:40Z</time>
      </trkpt>
      <trkpt lat="49.900038968771696" lon="9.389089001342654">
        <ele>474.06999999999999</ele>
        <time>2025-05-20T17:09:49Z</time>
      </trkpt>
      <trkpt lat="49.901561038568616" lon="9.385154033079743">
        <ele>472.13999999999999</ele>
        <time>2025-05-20T17:09:59Z</time>
      </trkpt>
      <trkpt lat="49.903443027287722" lon="9.379405975341797">
        <ele>466.86000000000001</ele>
        <time>2025-05-20T17:10:13Z</time>
      </trkpt>
      <trkpt lat="49.905054029077291" lon="9.375632023438811">
        <ele>464.93000000000001</ele>
        <time>2025-05-20T17:10:23Z</time>
      </trkpt>
      <trkpt lat="49.906695038080215" lon="9.37300999648869">
        <ele>466.86000000000001</ele>
        <time>2025-05-20T17:10:31Z</time>
      </trkpt>
      <trkpt lat="49.908851031213999" lon="9.370598020032048">
        <ele>468.77999999999997</ele>
        <time>2025-05-20T17:10:40Z</time>
      </trkpt>
      <trkpt lat="49.911564001813531" lon="9.367819000035524">
        <ele>471.66000000000003</ele>
        <time>2025-05-20T17:10:51Z</time>
      </trkpt>
      <trkpt lat="49.913413971662521" lon="9.365526968613267">
        <ele>472.63</ele>
        <time>2025-05-20T17:10:59Z</time>
      </trkpt>
      <trkpt lat="49.916161978617311" lon="9.361352026462555">
        <ele>465.89999999999998</ele>
        <time>2025-05-20T17:11:12Z</time>
      </trkpt>
      <trkpt lat="49.917950006201863" lon="9.358853967860341">
        <ele>460.13</ele>
        <time>2025-05-20T17:11:20Z</time>
      </trkpt>
      <trkpt lat="49.91994003765285" lon="9.356912970542908">
        <ele>452.44</ele>
        <time>2025-05-20T17:11:28Z</time>
      </trkpt>
      <trkpt lat="49.922387972474098" lon="9.355338010936976">
        <ele>441.86000000000001</ele>
        <time>2025-05-20T17:11:37Z</time>
      </trkpt>
      <trkpt lat="49.924678998067975" lon="9.354548016563058">
        <ele>435.13</ele>
        <time>2025-05-20T17:11:45Z</time>
      </trkpt>
      <trkpt lat="49.928459990769625" lon="9.353652996942401">
        <ele>428.39999999999998</ele>
        <time>2025-05-20T17:11:58Z</time>
      </trkpt>
      <trkpt lat="49.930701982229948" lon="9.352428987622261">
        <ele>428.88999999999999</ele>
        <time>2025-05-20T17:12:06Z</time>
      </trkpt>
      <trkpt lat="49.93272596038878" lon="9.350534006953239">
        <ele>426.95999999999998</ele>
        <time>2025-05-20T17:12:14Z</time>
      </trkpt>
      <trkpt lat="49.935473967343569" lon="9.347833022475243">
        <ele>423.12</ele>
        <time>2025-05-20T17:12:25Z</time>
      </trkpt>
      <trkpt lat="49.938411992043257" lon="9.345652973279357">
        <ele>415.91000000000003</ele>
        <time>2025-05-20T17:12:36Z</time>
      </trkpt>
      <trkpt lat="49.940388025715947" lon="9.343605022877455">
        <ele>409.18000000000001</ele>
        <time>2025-05-20T17:12:44Z</time>
      </trkpt>
      <trkpt lat="49.942317036911845" lon="9.34075802564621">
        <ele>397.16000000000003</ele>
        <time>2025-05-20T17:12:53Z</time>
      </trkpt>
      <trkpt lat="49.945141989737749" lon="9.33676203712821">
        <ele>376.97000000000003</ele>
        <time>2025-05-20T17:13:06Z</time>
      </trkpt>
      <trkpt lat="49.947590008378029" lon="9.334188038483262">
        <ele>364.95999999999998</ele>
        <time>2025-05-20T17:13:16Z</time>
      </trkpt>
      <trkpt lat="49.9496999848634" lon="9.331681011244655">
        <ele>352.45999999999998</ele>
        <time>2025-05-20T17:13:25Z</time>
      </trkpt>
      <trkpt lat="49.951801998540759" lon="9.328477028757334">
        <ele>339.48000000000002</ele>
        <time>2025-05-20T17:13:35Z</time>
      </trkpt>
      <trkpt lat="49.953950028866529" lon="9.326104028150439">
        <ele>332.26999999999998</ele>
        <time>2025-05-20T17:13:44Z</time>
      </trkpt>
      <trkpt lat="49.956725025549531" lon="9.323443025350571">
        <ele>326.99000000000001</ele>
        <time>2025-05-20T17:13:55Z</time>
      </trkpt>
      <trkpt lat="49.959047986194491" lon="9.320577001199126">
        <ele>316.88999999999999</ele>
        <time>2025-05-20T17:14:05Z</time>
      </trkpt>
      <trkpt lat="49.960536025464535" lon="9.317736038938165">
        <ele>306.31999999999999</ele>
        <time>2025-05-20T17:14:13Z</time>
      </trkpt>
      <trkpt lat="49.961413023993373" lon="9.314846964552999">
        <ele>296.69999999999999</ele>
        <time>2025-05-20T17:14:20Z</time>
      </trkpt>
      <trkpt lat="49.962050970643759" lon="9.311308963224292">
        <ele>287.08999999999997</ele>
        <time>2025-05-20T17:14:28Z</time>
      </trkpt>
      <trkpt lat="49.962940039113164" lon="9.307426968589425">
        <ele>275.56</ele>
        <time>2025-05-20T17:14:37Z</time>
      </trkpt>
      <trkpt lat="49.964291034266353" lon="9.303916040807962">
        <ele>266.89999999999998</ele>
        <time>2025-05-20T17:14:46Z</time>
      </trkpt>
      <trkpt lat="49.966075960546732" lon="9.300871985033155">
        <ele>257.29000000000002</ele>
        <time>2025-05-20T17:14:55Z</time>
      </trkpt>
      <trkpt lat="49.968134975060821" lon="9.298280971124768">
        <ele>250.56</ele>
        <time>2025-05-20T17:15:04Z</time>
      </trkpt>
      <trkpt lat="49.969858964905143" lon="9.295778973028064">
        <ele>247.68000000000001</ele>
        <time>2025-05-20T17:15:12Z</time>
      </trkpt>
      <trkpt lat="49.9711839761585" lon="9.292759979143739">
        <ele>245.75</ele>
        <time>2025-05-20T17:15:20Z</time>
      </trkpt>
      <trkpt lat="49.972115959972143" lon="9.289392968639731">
        <ele>244.31</ele>
        <time>2025-05-20T17:15:28Z</time>
      </trkpt>
      <trkpt lat="49.973294036462903" lon="9.285187013447285">
        <ele>234.22</ele>
        <time>2025-05-20T17:15:38Z</time>
      </trkpt>
      <trkpt lat="49.974765982478857" lon="9.281754959374666">
        <ele>221.72</ele>
        <time>2025-05-20T17:15:47Z</time>
      </trkpt>
      <trkpt lat="49.976503970101476" lon="9.27750701084733">
        <ele>207.78</ele>
        <time>2025-05-20T17:15:58Z</time>
      </trkpt>
      <trkpt lat="49.977999972179532" lon="9.273035014048219">
        <ele>195.28</ele>
        <time>2025-05-20T17:16:10Z</time>
      </trkpt>
      <trkpt lat="49.979619020596147" lon="9.26921303384006">
        <ele>188.56</ele>
        <time>2025-05-20T17:16:19Z</time>
      </trkpt>
      <trkpt lat="49.981698989868164" lon="9.265349982306361">
        <ele>180.87</ele>
        <time>2025-05-20T17:16:30Z</time>
      </trkpt>
      <trkpt lat="49.984966004267335" lon="9.260041974484921">
        <ele>168.84999999999999</ele>
        <time>2025-05-20T17:16:46Z</time>
      </trkpt>
      <trkpt lat="49.986927034333348" lon="9.257275024428964">
        <ele>164.03999999999999</ele>
        <time>2025-05-20T17:16:55Z</time>
      </trkpt>
      <trkpt lat="49.988907007500529" lon="9.255309971049428">
        <ele>165</ele>
        <time>2025-05-20T17:17:03Z</time>
      </trkpt>
      <trkpt lat="49.991352008655667" lon="9.253710033372045">
        <ele>169.81</ele>
        <time>2025-05-20T17:17:12Z</time>
      </trkpt>
      <trkpt lat="49.993751998990774" lon="9.251912031322718">
        <ele>171.25</ele>
        <time>2025-05-20T17:17:21Z</time>
      </trkpt>
      <trkpt lat="49.99563398770988" lon="9.249681020155549">
        <ele>168.84999999999999</ele>
        <time>2025-05-20T17:17:29Z</time>
      </trkpt>
      <trkpt lat="49.997389996424317" lon="9.246573010459542">
        <ele>165</ele>
        <time>2025-05-20T17:17:38Z</time>
      </trkpt>
      <trkpt lat="49.998913994058967" lon="9.242660002782941">
        <ele>160.68000000000001</ele>
        <time>2025-05-20T17:17:48Z</time>
      </trkpt>
      <trkpt lat="50.000534970313311" lon="9.237391976639628">
        <ele>158.75</ele>
        <time>2025-05-20T17:18:01Z</time>
      </trkpt>
      <trkpt lat="50.001607015728951" lon="9.232806991785765">
        <ele>156.83000000000001</ele>
        <time>2025-05-20T17:18:13Z</time>
      </trkpt>
      <trkpt lat="50.00235996209085" lon="9.228396015241742">
        <ele>152.50999999999999</ele>
        <time>2025-05-20T17:18:25Z</time>
      </trkpt>
      <trkpt lat="50.002876035869122" lon="9.224270023405552">
        <ele>152.03</ele>
        <time>2025-05-20T17:18:36Z</time>
      </trkpt>
      <trkpt lat="50.00302598811686" lon="9.220779966562986">
        <ele>151.53999999999999</ele>
        <time>2025-05-20T17:18:45Z</time>
      </trkpt>
      <trkpt lat="50.002842005342245" lon="9.216692028567195">
        <ele>149.13999999999999</ele>
        <time>2025-05-20T17:18:56Z</time>
      </trkpt>
      <trkpt lat="50.002374965697527" lon="9.213320994749665">
        <ele>146.25999999999999</ele>
        <time>2025-05-20T17:19:05Z</time>
      </trkpt>
      <trkpt lat="50.002181008458138" lon="9.212261019274592">
        <ele>145.30000000000001</ele>
        <time>2025-05-20T17:19:08Z</time>
      </trkpt>
      <trkpt lat="50.001578014343977" lon="9.209401030093432">
        <ele>142.88999999999999</ele>
        <time>2025-05-20T17:19:16Z</time>
      </trkpt>
      <trkpt lat="50.000636978074908" lon="9.205710981041193">
        <ele>142.41</ele>
        <time>2025-05-20T17:19:26Z</time>
      </trkpt>
      <trkpt lat="49.999558981508017" lon="9.201775006949902">
        <ele>141.44999999999999</ele>
        <time>2025-05-20T17:19:37Z</time>
      </trkpt>
      <trkpt lat="49.998740991577506" lon="9.199060024693608">
        <ele>140.97</ele>
        <time>2025-05-20T17:19:45Z</time>
      </trkpt>
      <trkpt lat="49.998029032722116" lon="9.196758018806577">
        <ele>140.49000000000001</ele>
        <time>2025-05-20T17:19:52Z</time>
      </trkpt>
      <trkpt lat="49.995086984708905" lon="9.188237981870771">
        <ele>140.00999999999999</ele>
        <time>2025-05-20T17:20:15Z</time>
      </trkpt>
      <trkpt lat="49.994657998904586" lon="9.187017995864153">
        <ele>140.00999999999999</ele>
        <time>2025-05-20T17:20:19Z</time>
      </trkpt>
      <trkpt lat="49.994458006694913" lon="9.186405027285218">
        <ele>140.00999999999999</ele>
        <time>2025-05-20T17:20:21Z</time>
      </trkpt>
      <trkpt lat="49.993375986814499" lon="9.182943971827626">
        <ele>140.00999999999999</ele>
        <time>2025-05-20T17:20:31Z</time>
      </trkpt>
      <trkpt lat="49.992637038230896" lon="9.180035032331944">
        <ele>138.09</ele>
        <time>2025-05-20T17:20:38Z</time>
      </trkpt>
      <trkpt lat="49.99172399751842" lon="9.175205966457725">
        <ele>139.05000000000001</ele>
        <time>2025-05-20T17:20:49Z</time>
      </trkpt>
      <trkpt lat="49.991219993680716" lon="9.170244969427586">
        <ele>139.53</ele>
        <time>2025-05-20T17:21:00Z</time>
      </trkpt>
      <trkpt lat="49.99114497564733" lon="9.165230998769403">
        <ele>139.05000000000001</ele>
        <time>2025-05-20T17:21:11Z</time>
      </trkpt>
      <trkpt lat="49.991429038345814" lon="9.160238988697529">
        <ele>146.74000000000001</ele>
        <time>2025-05-20T17:21:22Z</time>
      </trkpt>
      <trkpt lat="49.991965983062983" lon="9.154803995043039">
        <ele>156.34999999999999</ele>
        <time>2025-05-20T17:21:34Z</time>
      </trkpt>
      <trkpt lat="49.99286200851202" lon="9.149017967283726">
        <ele>162.59999999999999</ele>
        <time>2025-05-20T17:21:47Z</time>
      </trkpt>
      <trkpt lat="49.994076965376735" lon="9.143344005569816">
        <ele>163.08000000000001</ele>
        <time>2025-05-20T17:22:00Z</time>
      </trkpt>
      <trkpt lat="49.995053960010409" lon="9.138057036325336">
        <ele>160.19999999999999</ele>
        <time>2025-05-20T17:22:12Z</time>
      </trkpt>
      <trkpt lat="49.995528040453792" lon="9.133544974029064">
        <ele>155.87</ele>
        <time>2025-05-20T17:22:22Z</time>
      </trkpt>
      <trkpt lat="49.995704982429743" lon="9.129425017163158">
        <ele>154.43000000000001</ele>
        <time>2025-05-20T17:22:31Z</time>
      </trkpt>
      <trkpt lat="49.995496021583676" lon="9.123938977718353">
        <ele>157.31</ele>
        <time>2025-05-20T17:22:43Z</time>
      </trkpt>
      <trkpt lat="49.994837958365679" lon="9.118533991277218">
        <ele>160.19999999999999</ele>
        <time>2025-05-20T17:22:55Z</time>
      </trkpt>
      <trkpt lat="49.993842020630836" lon="9.113723030313849">
        <ele>159.24000000000001</ele>
        <time>2025-05-20T17:23:06Z</time>
      </trkpt>
      <trkpt lat="49.992679031565785" lon="9.108974011614919">
        <ele>149.62</ele>
        <time>2025-05-20T17:23:17Z</time>
      </trkpt>
      <trkpt lat="49.991694996133447" lon="9.10319996997714">
        <ele>136.16</ele>
        <time>2025-05-20T17:23:30Z</time>
      </trkpt>
      <trkpt lat="49.991261987015605" lon="9.098217012360692">
        <ele>129.43000000000001</ele>
        <time>2025-05-20T17:23:41Z</time>
      </trkpt>
      <trkpt lat="49.991117985919118" lon="9.092741031199694">
        <ele>130.40000000000001</ele>
        <time>2025-05-20T17:23:53Z</time>
      </trkpt>
      <trkpt lat="49.991281013935804" lon="9.088620990514755">
        <ele>132.31999999999999</ele>
        <time>2025-05-20T17:24:02Z</time>
      </trkpt>
      <trkpt lat="49.991673035547137" lon="9.082690961658955">
        <ele>130.88</ele>
        <time>2025-05-20T17:24:15Z</time>
      </trkpt>
      <trkpt lat="49.991714023053646" lon="9.077193019911647">
        <ele>132.80000000000001</ele>
        <time>2025-05-20T17:24:27Z</time>
      </trkpt>
      <trkpt lat="49.991447981446981" lon="9.071256034076214">
        <ele>130.40000000000001</ele>
        <time>2025-05-20T17:24:40Z</time>
      </trkpt>
      <trkpt lat="49.990868037566543" lon="9.065391970798373">
        <ele>127.51000000000001</ele>
        <time>2025-05-20T17:24:53Z</time>
      </trkpt>
      <trkpt lat="49.989894982427359" lon="9.058684017509222">
        <ele>125.11</ele>
        <time>2025-05-20T17:25:08Z</time>
      </trkpt>
      <trkpt lat="49.988752026110888" lon="9.052523989230394">
        <ele>119.34</ele>
        <time>2025-05-20T17:25:22Z</time>
      </trkpt>
      <trkpt lat="49.987948033958673" lon="9.046707032248378">
        <ele>121.73999999999999</ele>
        <time>2025-05-20T17:25:35Z</time>
      </trkpt>
      <trkpt lat="49.987701019272208" lon="9.042163034901023">
        <ele>129.43000000000001</ele>
        <time>2025-05-20T17:25:45Z</time>
      </trkpt>
      <trkpt lat="49.987707976251841" lon="9.036654029041529">
        <ele>136.63999999999999</ele>
        <time>2025-05-20T17:25:57Z</time>
      </trkpt>
      <trkpt lat="49.987965971231461" lon="9.0329600404948">
        <ele>137.61000000000001</ele>
        <time>2025-05-20T17:26:05Z</time>
      </trkpt>
      <trkpt lat="49.988528983667493" lon="9.028979977592826">
        <ele>136.16</ele>
        <time>2025-05-20T17:26:14Z</time>
      </trkpt>
      <trkpt lat="49.989408999681473" lon="9.025093037635088">
        <ele>138.56999999999999</ele>
        <time>2025-05-20T17:26:23Z</time>
      </trkpt>
      <trkpt lat="49.990846998989582" lon="9.020567983388901">
        <ele>140.00999999999999</ele>
        <time>2025-05-20T17:26:34Z</time>
      </trkpt>
      <trkpt lat="49.993543960154057" lon="9.013979975134134">
        <ele>136.16</ele>
        <time>2025-05-20T17:26:51Z</time>
      </trkpt>
      <trkpt lat="49.995688972994685" lon="9.009038005024195">
        <ele>133.75999999999999</ele>
        <time>2025-05-20T17:27:04Z</time>
      </trkpt>
      <trkpt lat="49.998010005801916" lon="9.003731003031135">
        <ele>135.19999999999999</ele>
        <time>2025-05-20T17:27:18Z</time>
      </trkpt>
      <trkpt lat="50.000492976978421" lon="8.998042959719896">
        <ele>139.53</ele>
        <time>2025-05-20T17:27:33Z</time>
      </trkpt>
      <trkpt lat="50.002482002601027" lon="8.993477001786232">
        <ele>145.30000000000001</ele>
        <time>2025-05-20T17:27:45Z</time>
      </trkpt>
      <trkpt lat="50.005295975133777" lon="8.986997958272696">
        <ele>144.34</ele>
        <time>2025-05-20T17:28:02Z</time>
      </trkpt>
      <trkpt lat="50.007927976548672" lon="8.980915965512395">
        <ele>142.41</ele>
        <time>2025-05-20T17:28:18Z</time>
      </trkpt>
      <trkpt lat="50.010409019887447" lon="8.97523001767695">
        <ele>143.84999999999999</ele>
        <time>2025-05-20T17:28:33Z</time>
      </trkpt>
      <trkpt lat="50.011889012530446" lon="8.97179402410984">
        <ele>142.41</ele>
        <time>2025-05-20T17:28:42Z</time>
      </trkpt>
      <trkpt lat="50.013547958806157" lon="8.967999033629894">
        <ele>140.49000000000001</ele>
        <time>2025-05-20T17:28:52Z</time>
      </trkpt>
      <trkpt lat="50.015531033277512" lon="8.963427962735295">
        <ele>137.61000000000001</ele>
        <time>2025-05-20T17:29:04Z</time>
      </trkpt>
      <trkpt lat="50.017361976206303" lon="8.959260983392596">
        <ele>133.28</ele>
        <time>2025-05-20T17:29:15Z</time>
      </trkpt>
      <trkpt lat="50.019188979640603" lon="8.955110013484955">
        <ele>131.84</ele>
        <time>2025-05-20T17:29:26Z</time>
      </trkpt>
      <trkpt lat="50.021370034664869" lon="8.950200984254479">
        <ele>134.72</ele>
        <time>2025-05-20T17:29:39Z</time>
      </trkpt>
      <trkpt lat="50.023442041128874" lon="8.946301974356175">
        <ele>138.56999999999999</ele>
        <time>2025-05-20T17:29:50Z</time>
      </trkpt>
      <trkpt lat="50.025629969313741" lon="8.943212991580367">
        <ele>138.09</ele>
        <time>2025-05-20T17:30:00Z</time>
      </trkpt>
      <trkpt lat="50.028130961582065" lon="8.940738989040256">
        <ele>135.68000000000001</ele>
        <time>2025-05-20T17:30:10Z</time>
      </trkpt>
      <trkpt lat="50.030301036313176" lon="8.939341977238655">
        <ele>133.75999999999999</ele>
        <time>2025-05-20T17:30:18Z</time>
      </trkpt>
      <trkpt lat="50.033411979675293" lon="8.937838012352586">
        <ele>133.75999999999999</ele>
        <time>2025-05-20T17:30:29Z</time>
      </trkpt>
      <trkpt lat="50.03738097846508" lon="8.936028024181724">
        <ele>133.75999999999999</ele>
        <time>2025-05-20T17:30:43Z</time>
      </trkpt>
      <trkpt lat="50.04124796949327" lon="8.933755019679666">
        <ele>130.40000000000001</ele>
        <time>2025-05-20T17:30:57Z</time>
      </trkpt>
      <trkpt lat="50.044107036665082" lon="8.931371038779616">
        <ele>131.36000000000001</ele>
        <time>2025-05-20T17:31:08Z</time>
      </trkpt>
      <trkpt lat="50.046701990067959" lon="8.928377022966743">
        <ele>131.36000000000001</ele>
        <time>2025-05-20T17:31:19Z</time>
      </trkpt>
      <trkpt lat="50.049053030088544" lon="8.924894006922841">
        <ele>135.68000000000001</ele>
        <time>2025-05-20T17:31:30Z</time>
      </trkpt>
      <trkpt lat="50.051300972700119" lon="8.920628959313035">
        <ele>137.61000000000001</ele>
        <time>2025-05-20T17:31:42Z</time>
      </trkpt>
      <trkpt lat="50.053092017769814" lon="8.916402971372008">
        <ele>139.05000000000001</ele>
        <time>2025-05-20T17:31:53Z</time>
      </trkpt>
      <trkpt lat="50.054590031504631" lon="8.911926029250026">
        <ele>138.09</ele>
        <time>2025-05-20T17:32:04Z</time>
      </trkpt>
      <trkpt lat="50.055958963930607" lon="8.906849026679993">
        <ele>134.72</ele>
        <time>2025-05-20T17:32:16Z</time>
      </trkpt>
      <trkpt lat="50.057121030986309" lon="8.901147991418839">
        <ele>130.40000000000001</ele>
        <time>2025-05-20T17:32:29Z</time>
      </trkpt>
      <trkpt lat="50.057916976511478" lon="8.896222030743957">
        <ele>128.47</ele>
        <time>2025-05-20T17:32:40Z</time>
      </trkpt>
      <trkpt lat="50.058588031679392" lon="8.890857025980949">
        <ele>126.55</ele>
        <time>2025-05-20T17:32:52Z</time>
      </trkpt>
      <trkpt lat="50.059182979166508" lon="8.884482001885772">
        <ele>126.55</ele>
        <time>2025-05-20T17:33:06Z</time>
      </trkpt>
      <trkpt lat="50.059569971635938" lon="8.879476999863982">
        <ele>129.43000000000001</ele>
        <time>2025-05-20T17:33:17Z</time>
      </trkpt>
      <trkpt lat="50.059885969385505" lon="8.874941971153021">
        <ele>132.31999999999999</ele>
        <time>2025-05-20T17:33:28Z</time>
      </trkpt>
      <trkpt lat="50.060417968779802" lon="8.866705996915698">
        <ele>131.36000000000001</ele>
        <time>2025-05-20T17:33:45Z</time>
      </trkpt>
      <trkpt lat="50.060773026198149" lon="8.861226998269558">
        <ele>127.98999999999999</ele>
        <time>2025-05-20T17:33:57Z</time>
      </trkpt>
      <trkpt lat="50.061077959835529" lon="8.856644025072455">
        <ele>128.47</ele>
        <time>2025-05-20T17:34:07Z</time>
      </trkpt>
      <trkpt lat="50.061569977551699" lon="8.851652015000582">
        <ele>129.43000000000001</ele>
        <time>2025-05-20T17:34:18Z</time>
      </trkpt>
      <trkpt lat="50.062197027727962" lon="8.847627025097609">
        <ele>130.88</ele>
        <time>2025-05-20T17:34:27Z</time>
      </trkpt>
      <trkpt lat="50.0632069632411" lon="8.84331101551652">
        <ele>129.91999999999999</ele>
        <time>2025-05-20T17:34:37Z</time>
      </trkpt>
      <trkpt lat="50.064571034163237" lon="8.838216997683048">
        <ele>133.28</ele>
        <time>2025-05-20T17:34:49Z</time>
      </trkpt>
      <trkpt lat="50.06548197939992" lon="8.834830038249493">
        <ele>133.75999999999999</ele>
        <time>2025-05-20T17:34:57Z</time>
      </trkpt>
      <trkpt lat="50.066848983988166" lon="8.829251965507865">
        <ele>136.16</ele>
        <time>2025-05-20T17:35:11Z</time>
      </trkpt>
      <trkpt lat="50.067708967253566" lon="8.823913028463721">
        <ele>136.16</ele>
        <time>2025-05-20T17:35:22Z</time>
      </trkpt>
      <trkpt lat="50.067948019132018" lon="8.819797011092305">
        <ele>132.31999999999999</ele>
        <time>2025-05-20T17:35:31Z</time>
      </trkpt>
      <trkpt lat="50.06795397028327" lon="8.813820965588093">
        <ele>126.55</ele>
        <time>2025-05-20T17:35:44Z</time>
      </trkpt>
      <trkpt lat="50.067894961684942" lon="8.809242015704513">
        <ele>127.98999999999999</ele>
        <time>2025-05-20T17:35:54Z</time>
      </trkpt>
      <trkpt lat="50.067818015813828" lon="8.804183034226298">
        <ele>132.31999999999999</ele>
        <time>2025-05-20T17:36:05Z</time>
      </trkpt>
      <trkpt lat="50.067724976688623" lon="8.796859011054039">
        <ele>135.19999999999999</ele>
        <time>2025-05-20T17:36:21Z</time>
      </trkpt>
      <trkpt lat="50.067649036645889" lon="8.790881037712097">
        <ele>132.80000000000001</ele>
        <time>2025-05-20T17:36:34Z</time>
      </trkpt>
      <trkpt lat="50.067577958106995" lon="8.786288006231189">
        <ele>130.88</ele>
        <time>2025-05-20T17:36:44Z</time>
      </trkpt>
      <trkpt lat="50.067474022507668" lon="8.780315984040499">
        <ele>130.40000000000001</ele>
        <time>2025-05-20T17:36:57Z</time>
      </trkpt>
      <trkpt lat="50.067387018352747" lon="8.7757190130651">
        <ele>131.84</ele>
        <time>2025-05-20T17:37:07Z</time>
      </trkpt>
      <trkpt lat="50.067135980352759" lon="8.769766017794609">
        <ele>131.84</ele>
        <time>2025-05-20T17:37:20Z</time>
      </trkpt>
      <trkpt lat="50.066843032836914" lon="8.766126008704305">
        <ele>130.88</ele>
        <time>2025-05-20T17:37:29Z</time>
      </trkpt>
      <trkpt lat="50.066215982660651" lon="8.760243002325296">
        <ele>132.80000000000001</ele>
        <time>2025-05-20T17:37:41Z</time>
      </trkpt>
      <trkpt lat="50.065537970513105" lon="8.75436301343143">
        <ele>134.24000000000001</ele>
        <time>2025-05-20T17:37:54Z</time>
      </trkpt>
      <trkpt lat="50.064829029142857" lon="8.748026965186">
        <ele>135.19999999999999</ele>
        <time>2025-05-20T17:38:08Z</time>
      </trkpt>
      <trkpt lat="50.064362995326519" lon="8.742116969078779">
        <ele>136.16</ele>
        <time>2025-05-20T17:38:21Z</time>
      </trkpt>
      <trkpt lat="50.064289988949895" lon="8.73846497386694">
        <ele>135.68000000000001</ele>
        <time>2025-05-20T17:38:29Z</time>
      </trkpt>
      <trkpt lat="50.064459973946214" lon="8.732487000524998">
        <ele>134.72</ele>
        <time>2025-05-20T17:38:42Z</time>
      </trkpt>
      <trkpt lat="50.064658038318157" lon="8.728358997032046">
        <ele>136.16</ele>
        <time>2025-05-20T17:38:51Z</time>
      </trkpt>
      <trkpt lat="50.064743030816317" lon="8.72557201422751">
        <ele>137.61000000000001</ele>
        <time>2025-05-20T17:38:57Z</time>
      </trkpt>
      <trkpt lat="50.064741019159555" lon="8.720544967800379">
        <ele>137.61000000000001</ele>
        <time>2025-05-20T17:39:08Z</time>
      </trkpt>
      <trkpt lat="50.06425897590816" lon="8.716024020686746">
        <ele>136.16</ele>
        <time>2025-05-20T17:39:18Z</time>
      </trkpt>
      <trkpt lat="50.063319029286504" lon="8.710711989551783">
        <ele>135.19999999999999</ele>
        <time>2025-05-20T17:39:30Z</time>
      </trkpt>
      <trkpt lat="50.062468014657497" lon="8.70630000717938">
        <ele>136.16</ele>
        <time>2025-05-20T17:39:40Z</time>
      </trkpt>
      <trkpt lat="50.061825038865209" lon="8.702295972034335">
        <ele>134.72</ele>
        <time>2025-05-20T17:39:49Z</time>
      </trkpt>
      <trkpt lat="50.061457995325327" lon="8.698214991018176">
        <ele>134.72</ele>
        <time>2025-05-20T17:39:58Z</time>
      </trkpt>
      <trkpt lat="50.061342995613813" lon="8.691804008558393">
        <ele>136.16</ele>
        <time>2025-05-20T17:40:12Z</time>
      </trkpt>
      <trkpt lat="50.061328997835517" lon="8.687649015337229">
        <ele>137.61000000000001</ele>
        <time>2025-05-20T17:40:21Z</time>
      </trkpt>
      <trkpt lat="50.061364034190774" lon="8.681214982643724">
        <ele>132.80000000000001</ele>
        <time>2025-05-20T17:40:35Z</time>
      </trkpt>
      <trkpt lat="50.061351964250207" lon="8.675696002319455">
        <ele>129.43000000000001</ele>
        <time>2025-05-20T17:40:47Z</time>
      </trkpt>
      <trkpt lat="50.061280969530344" lon="8.668365022167563">
        <ele>130.88</ele>
        <time>2025-05-20T17:41:03Z</time>
      </trkpt>
      <trkpt lat="50.06116596981883" lon="8.663290031254292">
        <ele>128.94999999999999</ele>
        <time>2025-05-20T17:41:15Z</time>
      </trkpt>
      <trkpt lat="50.060891965404153" lon="8.658267008140683">
        <ele>123.19</ele>
        <time>2025-05-20T17:41:25Z</time>
      </trkpt>
      <trkpt lat="50.060226023197174" lon="8.653816971927881">
        <ele>119.34</ele>
        <time>2025-05-20T17:41:35Z</time>
      </trkpt>
      <trkpt lat="50.059243999421597" lon="8.649974958971143">
        <ele>115.5</ele>
        <time>2025-05-20T17:41:44Z</time>
      </trkpt>
      <trkpt lat="50.058571016415954" lon="8.647618973627687">
        <ele>115.01000000000001</ele>
        <time>2025-05-20T17:41:50Z</time>
      </trkpt>
      <trkpt lat="50.058474037796259" lon="8.647299958392978">
        <ele>115.5</ele>
        <time>2025-05-20T17:41:51Z</time>
      </trkpt>
      <trkpt lat="50.058359960094094" lon="8.64646403118968">
        <ele>115.01000000000001</ele>
        <time>2025-05-20T17:41:54Z</time>
      </trkpt>
      <trkpt lat="50.058365995064378" lon="8.646262027323246">
        <ele>114.53</ele>
        <time>2025-05-20T17:41:55Z</time>
      </trkpt>
      <trkpt lat="50.058393990620971" lon="8.646071003749967">
        <ele>114.05</ele>
        <time>2025-05-20T17:41:56Z</time>
      </trkpt>
      <trkpt lat="50.058443024754524" lon="8.645910993218422">
        <ele>113.56999999999999</ele>
        <time>2025-05-20T17:41:57Z</time>
      </trkpt>
      <trkpt lat="50.058530028909445" lon="8.64577503874898">
        <ele>113.56999999999999</ele>
        <time>2025-05-20T17:41:58Z</time>
      </trkpt>
      <trkpt lat="50.058634970337152" lon="8.645646963268518">
        <ele>113.56999999999999</ele>
        <time>2025-05-20T17:41:59Z</time>
      </trkpt>
      <trkpt lat="50.058776037767529" lon="8.645587032660842">
        <ele>113.09</ele>
        <time>2025-05-20T17:42:00Z</time>
      </trkpt>
      <trkpt lat="50.058939987793565" lon="8.645543027669191">
        <ele>113.09</ele>
        <time>2025-05-20T17:42:01Z</time>
      </trkpt>
      <trkpt lat="50.059110978618264" lon="8.645598012953997">
        <ele>113.09</ele>
        <time>2025-05-20T17:42:03Z</time>
      </trkpt>
      <trkpt lat="50.060692979022861" lon="8.646216010674834">
        <ele>112.61</ele>
        <time>2025-05-20T17:42:10Z</time>
      </trkpt>
      <trkpt lat="50.060860030353069" lon="8.646321035921574">
        <ele>112.61</ele>
        <time>2025-05-20T17:42:11Z</time>
      </trkpt>
      <trkpt lat="50.061144009232521" lon="8.646522033959627">
        <ele>112.61</ele>
        <time>2025-05-20T17:42:13Z</time>
      </trkpt>
      <trkpt lat="50.061201006174088" lon="8.646681038662791">
        <ele>112.13</ele>
        <time>2025-05-20T17:42:14Z</time>
      </trkpt>
      <trkpt lat="50.061244005337358" lon="8.646766031160951">
        <ele>111.65000000000001</ele>
        <time>2025-05-20T17:42:16Z</time>
      </trkpt>
      <trkpt lat="50.061262026429176" lon="8.647041963413358">
        <ele>110.69</ele>
        <time>2025-05-20T17:42:17Z</time>
      </trkpt>
      <trkpt lat="50.061219027265906" lon="8.647160986438394">
        <ele>110.20999999999999</ele>
        <time>2025-05-20T17:42:18Z</time>
      </trkpt>
      <trkpt lat="50.061152977868915" lon="8.647282021120191">
        <ele>109.25</ele>
        <time>2025-05-20T17:42:19Z</time>
      </trkpt>
      <trkpt lat="50.061063962057233" lon="8.647327031940222">
        <ele>108.77</ele>
        <time>2025-05-20T17:42:20Z</time>
      </trkpt>
      <trkpt lat="50.060964971780777" lon="8.64734698086977">
        <ele>107.81</ele>
        <time>2025-05-20T17:42:21Z</time>
      </trkpt>
      <trkpt lat="50.060870004817843" lon="8.647317979484797">
        <ele>107.31999999999999</ele>
        <time>2025-05-20T17:42:22Z</time>
      </trkpt>
      <trkpt lat="50.060749975964427" lon="8.647227035835385">
        <ele>106.84</ele>
        <time>2025-05-20T17:42:23Z</time>
      </trkpt>
      <trkpt lat="50.060665989294648" lon="8.647114969789982">
        <ele>106.36</ele>
        <time>2025-05-20T17:42:24Z</time>
      </trkpt>
      <trkpt lat="50.059730987995863" lon="8.645785013213754">
        <ele>101.08</ele>
        <time>2025-05-20T17:42:32Z</time>
      </trkpt>
      <trkpt lat="50.059627974405885" lon="8.645553002133966">
        <ele>100.59999999999999</ele>
        <time>2025-05-20T17:42:33Z</time>
      </trkpt>
      <trkpt lat="50.05882197059691" lon="8.643417041748762">
        <ele>101.56</ele>
        <time>2025-05-20T17:42:40Z</time>
      </trkpt>
      <trkpt lat="50.05757600069046" lon="8.639977024868131">
        <ele>105.40000000000001</ele>
        <time>2025-05-20T17:42:49Z</time>
      </trkpt>
      <trkpt lat="50.056090978905559" lon="8.635498993098736">
        <ele>110.69</ele>
        <time>2025-05-20T17:43:00Z</time>
      </trkpt>
      <trkpt lat="50.055442973971367" lon="8.631515996530652">
        <ele>115.5</ele>
        <time>2025-05-20T17:43:09Z</time>
      </trkpt>
      <trkpt lat="50.05540500395" lon="8.628305979073048">
        <ele>116.94</ele>
        <time>2025-05-20T17:43:16Z</time>
      </trkpt>
      <trkpt lat="50.055627040565014" lon="8.624194990843535">
        <ele>117.90000000000001</ele>
        <time>2025-05-20T17:43:25Z</time>
      </trkpt>
      <trkpt lat="50.05585896782577" lon="8.620093977078795">
        <ele>118.86</ele>
        <time>2025-05-20T17:43:34Z</time>
      </trkpt>
      <trkpt lat="50.05624202080071" lon="8.615531036630273">
        <ele>120.3</ele>
        <time>2025-05-20T17:43:44Z</time>
      </trkpt>
      <trkpt lat="50.05682498216629" lon="8.610104005783796">
        <ele>120.78</ele>
        <time>2025-05-20T17:43:56Z</time>
      </trkpt>
      <trkpt lat="50.057593015953898" lon="8.603320028632879">
        <ele>116.94</ele>
        <time>2025-05-20T17:44:11Z</time>
      </trkpt>
      <trkpt lat="50.057999035343528" lon="8.598755998536944">
        <ele>111.65000000000001</ele>
        <time>2025-05-20T17:44:21Z</time>
      </trkpt>
      <trkpt lat="50.058088973164558" lon="8.595097968354821">
        <ele>111.17</ele>
        <time>2025-05-20T17:44:29Z</time>
      </trkpt>
      <trkpt lat="50.057855034247041" lon="8.591927010565996">
        <ele>115.5</ele>
        <time>2025-05-20T17:44:37Z</time>
      </trkpt>
      <trkpt lat="50.056924978271127" lon="8.587576970458031">
        <ele>121.26000000000001</ele>
        <time>2025-05-20T17:44:46Z</time>
      </trkpt>
      <trkpt lat="50.055541964247823" lon="8.581614000722766">
        <ele>117.90000000000001</ele>
        <time>2025-05-20T17:45:01Z</time>
      </trkpt>
      <trkpt lat="50.054694972932339" lon="8.577321041375399">
        <ele>115.98</ele>
        <time>2025-05-20T17:45:12Z</time>
      </trkpt>
      <trkpt lat="50.053953006863594" lon="8.572933031246066">
        <ele>116.45999999999999</ele>
        <time>2025-05-20T17:45:24Z</time>
      </trkpt>
      <trkpt lat="50.053241970017552" lon="8.568031964823604">
        <ele>115.98</ele>
        <time>2025-05-20T17:45:37Z</time>
      </trkpt>
      <trkpt lat="50.052768979221582" lon="8.56456495821476">
        <ele>115.01000000000001</ele>
        <time>2025-05-20T17:45:46Z</time>
      </trkpt>
      <trkpt lat="50.052714999765158" lon="8.564194981008768">
        <ele>115.01000000000001</ele>
        <time>2025-05-20T17:45:47Z</time>
      </trkpt>
      <trkpt lat="50.052658002823591" lon="8.563818968832493">
        <ele>115.5</ele>
        <time>2025-05-20T17:45:48Z</time>
      </trkpt>
      <trkpt lat="50.052158022299409" lon="8.560207961127162">
        <ele>116.45999999999999</ele>
        <time>2025-05-20T17:45:58Z</time>
      </trkpt>
      <trkpt lat="50.05181897431612" lon="8.558209966868162">
        <ele>116.45999999999999</ele>
        <time>2025-05-20T17:46:05Z</time>
      </trkpt>
      <trkpt lat="50.051224026829004" lon="8.555552987381816">
        <ele>116.45999999999999</ele>
        <time>2025-05-20T17:46:16Z</time>
      </trkpt>
      <trkpt lat="50.05123601295054" lon="8.55534696020186">
        <ele>115.98</ele>
        <time>2025-05-20T17:46:17Z</time>
      </trkpt>
      <trkpt lat="50.051229977980256" lon="8.55517596937716">
        <ele>115.5</ele>
        <time>2025-05-20T17:46:19Z</time>
      </trkpt>
      <trkpt lat="50.051242969930172" lon="8.554833987727761">
        <ele>115.01000000000001</ele>
        <time>2025-05-20T17:46:20Z</time>
      </trkpt>
      <trkpt lat="50.051283035427332" lon="8.554678000509739">
        <ele>114.53</ele>
        <time>2025-05-20T17:46:21Z</time>
      </trkpt>
      <trkpt lat="50.051324022933841" lon="8.554520001634955">
        <ele>114.05</ele>
        <time>2025-05-20T17:46:22Z</time>
      </trkpt>
      <trkpt lat="50.051433993503451" lon="8.554089004173875">
        <ele>113.09</ele>
        <time>2025-05-20T17:46:25Z</time>
      </trkpt>
      <trkpt lat="50.051480010151863" lon="8.553908038884401">
        <ele>113.09</ele>
        <time>2025-05-20T17:46:26Z</time>
      </trkpt>
      <trkpt lat="50.051480010151863" lon="8.553812988102436">
        <ele>113.09</ele>
        <time>2025-05-20T17:46:27Z</time>
      </trkpt>
      <trkpt lat="50.051480010151863" lon="8.55364996008575">
        <ele>113.56999999999999</ele>
        <time>2025-05-20T17:46:28Z</time>
      </trkpt>
      <trkpt lat="50.051441034302115" lon="8.553525991737843">
        <ele>114.05</ele>
        <time>2025-05-20T17:46:29Z</time>
      </trkpt>
      <trkpt lat="50.051398035138845" lon="8.55339196510613">
        <ele>114.53</ele>
        <time>2025-05-20T17:46:30Z</time>
      </trkpt>
      <trkpt lat="50.051183039322495" lon="8.552590990439057">
        <ele>115.98</ele>
        <time>2025-05-20T17:46:36Z</time>
      </trkpt>
      <trkpt lat="50.05117298103869" lon="8.552474984899163">
        <ele>115.98</ele>
        <time>2025-05-20T17:46:37Z</time>
      </trkpt>
      <trkpt lat="50.051167029887438" lon="8.552357973530889">
        <ele>115.98</ele>
        <time>2025-05-20T17:46:38Z</time>
      </trkpt>
      <trkpt lat="50.051157977432013" lon="8.552212966606021">
        <ele>115.98</ele>
        <time>2025-05-20T17:46:39Z</time>
      </trkpt>
      <trkpt lat="50.051181027665734" lon="8.552121017128229">
        <ele>115.98</ele>
        <time>2025-05-20T17:46:40Z</time>
      </trkpt>
      <trkpt lat="50.051224026829004" lon="8.552010962739587">
        <ele>115.98</ele>
        <time>2025-05-20T17:46:41Z</time>
      </trkpt>
      <trkpt lat="50.051289992406964" lon="8.551923958584666">
        <ele>115.98</ele>
        <time>2025-05-20T17:46:42Z</time>
      </trkpt>
      <trkpt lat="50.051360987126827" lon="8.551831003278494">
        <ele>115.98</ele>
        <time>2025-05-20T17:46:43Z</time>
      </trkpt>
      <trkpt lat="50.051439022645354" lon="8.551728995516896">
        <ele>115.98</ele>
        <time>2025-05-20T17:46:44Z</time>
      </trkpt>
      <trkpt lat="50.051543964073062" lon="8.551591029390693">
        <ele>115.98</ele>
        <time>2025-05-20T17:46:45Z</time>
      </trkpt>
      <trkpt lat="50.051639014855027" lon="8.55152397416532">
        <ele>115.98</ele>
        <time>2025-05-20T17:46:46Z</time>
      </trkpt>
      <trkpt lat="50.051755020394921" lon="8.551443004980683">
        <ele>115.98</ele>
        <time>2025-05-20T17:46:47Z</time>
      </trkpt>
      <trkpt lat="50.052846008911729" lon="8.550730040296912">
        <ele>115.5</ele>
        <time>2025-05-20T17:46:54Z</time>
      </trkpt>
      <trkpt lat="50.05445902235806" lon="8.549979021772742">
        <ele>115.5</ele>
        <time>2025-05-20T17:47:01Z</time>
      </trkpt>
      <trkpt lat="50.056938976049423" lon="8.549265973269939">
        <ele>113.09</ele>
        <time>2025-05-20T17:47:11Z</time>
      </trkpt>
      <trkpt lat="50.059413984417915" lon="8.549207970499992">
        <ele>112.61</ele>
        <time>2025-05-20T17:47:21Z</time>
      </trkpt>
      <trkpt lat="50.061951018869877" lon="8.549680961295962">
        <ele>110.69</ele>
        <time>2025-05-20T17:47:32Z</time>
      </trkpt>
      <trkpt lat="50.062188981100917" lon="8.549755979329348">
        <ele>110.69</ele>
        <time>2025-05-20T17:47:33Z</time>
      </trkpt>
      <trkpt lat="50.064142970368266" lon="8.550101984292269">
        <ele>109.73</ele>
        <time>2025-05-20T17:47:43Z</time>
      </trkpt>
      <trkpt lat="50.065767969936132" lon="8.549876008182764">
        <ele>109.73</ele>
        <time>2025-05-20T17:47:51Z</time>
      </trkpt>
      <trkpt lat="50.06597600877285" lon="8.549819011241198">
        <ele>109.73</ele>
        <time>2025-05-20T17:47:52Z</time>
      </trkpt>
      <trkpt lat="50.066183963790536" lon="8.549747010692954">
        <ele>109.73</ele>
        <time>2025-05-20T17:47:53Z</time>
      </trkpt>
      <trkpt lat="50.06791197694838" lon="8.548566000536084">
        <ele>108.77</ele>
        <time>2025-05-20T17:48:02Z</time>
      </trkpt>
      <trkpt lat="50.069321980699897" lon="8.546787025406957">
        <ele>106.36</ele>
        <time>2025-05-20T17:48:10Z</time>
      </trkpt>
      <trkpt lat="50.070843966677785" lon="8.544833036139607">
        <ele>102.52</ele>
        <time>2025-05-20T17:48:17Z</time>
      </trkpt>
      <trkpt lat="50.071092993021011" lon="8.544613011181355">
        <ele>101.56</ele>
        <time>2025-05-20T17:48:18Z</time>
      </trkpt>
      <trkpt lat="50.07134503684938" lon="8.544402960687876">
        <ele>101.08</ele>
        <time>2025-05-20T17:48:19Z</time>
      </trkpt>
      <trkpt lat="50.07351603358984" lon="8.543096976354718">
        <ele>98.189999999999998</ele>
        <time>2025-05-20T17:48:27Z</time>
      </trkpt>
      <trkpt lat="50.074898041784763" lon="8.541727960109711">
        <ele>95.790000000000006</ele>
        <time>2025-05-20T17:48:33Z</time>
      </trkpt>
      <trkpt lat="50.076258005574346" lon="8.539664000272751">
        <ele>95.790000000000006</ele>
        <time>2025-05-20T17:48:40Z</time>
      </trkpt>
      <trkpt lat="50.076814983040094" lon="8.537802966311574">
        <ele>98.670000000000002</ele>
        <time>2025-05-20T17:48:45Z</time>
      </trkpt>
      <trkpt lat="50.076981028541923" lon="8.53527900762856">
        <ele>96.269999999999996</ele>
        <time>2025-05-20T17:48:51Z</time>
      </trkpt>
      <trkpt lat="50.077071972191334" lon="8.532309969887137">
        <ele>95.790000000000006</ele>
        <time>2025-05-20T17:48:58Z</time>
      </trkpt>
      <trkpt lat="50.076939035207033" lon="8.528612041845918">
        <ele>98.670000000000002</ele>
        <time>2025-05-20T17:49:06Z</time>
      </trkpt>
      <trkpt lat="50.076326988637447" lon="8.525777030736208">
        <ele>102.04000000000001</ele>
        <time>2025-05-20T17:49:12Z</time>
      </trkpt>
      <trkpt lat="50.07441901601851" lon="8.519318019971252">
        <ele>104.44</ele>
        <time>2025-05-20T17:49:26Z</time>
      </trkpt>
      <trkpt lat="50.073922974988818" lon="8.516419976949692">
        <ele>102.04000000000001</ele>
        <time>2025-05-20T17:49:32Z</time>
      </trkpt>
      <trkpt lat="50.073896991088986" lon="8.513508019968867">
        <ele>99.629999999999995</ele>
        <time>2025-05-20T17:49:38Z</time>
      </trkpt>
      <trkpt lat="50.074392026290298" lon="8.510275958105922">
        <ele>98.189999999999998</ele>
        <time>2025-05-20T17:49:45Z</time>
      </trkpt>
      <trkpt lat="50.075223008170724" lon="8.507796004414558">
        <ele>95.790000000000006</ele>
        <time>2025-05-20T17:49:51Z</time>
      </trkpt>
      <trkpt lat="50.076313996687531" lon="8.50558603182435">
        <ele>92.420000000000002</ele>
        <time>2025-05-20T17:49:57Z</time>
      </trkpt>
      <trkpt lat="50.078320959582925" lon="8.502412978559732">
        <ele>90.5</ele>
        <time>2025-05-20T17:50:07Z</time>
      </trkpt>
      <trkpt lat="50.079797012731433" lon="8.50000100210309">
        <ele>91.939999999999998</ele>
        <time>2025-05-20T17:50:15Z</time>
      </trkpt>
      <trkpt lat="50.081159994006157" lon="8.497165990993381">
        <ele>97.709999999999994</ele>
        <time>2025-05-20T17:50:24Z</time>
      </trkpt>
      <trkpt lat="50.081278011202812" lon="8.496837001293898">
        <ele>98.670000000000002</ele>
        <time>2025-05-20T17:50:25Z</time>
      </trkpt>
      <trkpt lat="50.081395022571087" lon="8.496513040736318">
        <ele>99.150000000000006</ele>
        <time>2025-05-20T17:50:26Z</time>
      </trkpt>
      <trkpt lat="50.082148974761367" lon="8.493822030723095">
        <ele>105.88</ele>
        <time>2025-05-20T17:50:34Z</time>
      </trkpt>
      <trkpt lat="50.082529010251164" lon="8.491681041195989">
        <ele>111.65000000000001</ele>
        <time>2025-05-20T17:50:41Z</time>
      </trkpt>
      <trkpt lat="50.082687009125948" lon="8.488863967359066">
        <ele>117.90000000000001</ele>
        <time>2025-05-20T17:50:50Z</time>
      </trkpt>
      <trkpt lat="50.08234603330493" lon="8.486578976735473">
        <ele>117.42</ele>
        <time>2025-05-20T17:50:57Z</time>
      </trkpt>
      <trkpt lat="50.08226104080677" lon="8.486274965107441">
        <ele>116.45999999999999</ele>
        <time>2025-05-20T17:50:58Z</time>
      </trkpt>
      <trkpt lat="50.082016037777066" lon="8.485702984035015">
        <ele>115.01000000000001</ele>
        <time>2025-05-20T17:51:00Z</time>
      </trkpt>
      <trkpt lat="50.081871030852199" lon="8.485445994883776">
        <ele>114.53</ele>
        <time>2025-05-20T17:51:01Z</time>
      </trkpt>
      <trkpt lat="50.080705024302006" lon="8.484002966433764">
        <ele>112.61</ele>
        <time>2025-05-20T17:51:08Z</time>
      </trkpt>
      <trkpt lat="50.079206004738808" lon="8.482936033979058">
        <ele>113.09</ele>
        <time>2025-05-20T17:51:16Z</time>
      </trkpt>
      <trkpt lat="50.078061036765575" lon="8.481642035767436">
        <ele>113.56999999999999</ele>
        <time>2025-05-20T17:51:23Z</time>
      </trkpt>
      <trkpt lat="50.076502002775669" lon="8.479569023475051">
        <ele>113.56999999999999</ele>
        <time>2025-05-20T17:51:32Z</time>
      </trkpt>
      <trkpt lat="50.074667958542705" lon="8.477130979299545">
        <ele>113.56999999999999</ele>
        <time>2025-05-20T17:51:41Z</time>
      </trkpt>
      <trkpt lat="50.072218012064695" lon="8.473811997100711">
        <ele>115.5</ele>
        <time>2025-05-20T17:51:52Z</time>
      </trkpt>
      <trkpt lat="50.07012396119535" lon="8.470573984086514">
        <ele>116.94</ele>
        <time>2025-05-20T17:52:02Z</time>
      </trkpt>
      <trkpt lat="50.069203041493893" lon="8.468872038647533">
        <ele>118.86</ele>
        <time>2025-05-20T17:52:08Z</time>
      </trkpt>
      <trkpt lat="50.068944962695241" lon="8.468177011236548">
        <ele>120.78</ele>
        <time>2025-05-20T17:52:11Z</time>
      </trkpt>
      <trkpt lat="50.068915961310267" lon="8.46800803206861">
        <ele>121.73999999999999</ele>
        <time>2025-05-20T17:52:12Z</time>
      </trkpt>
      <trkpt lat="50.068906992673874" lon="8.467851039022207">
        <ele>122.22</ele>
        <time>2025-05-20T17:52:13Z</time>
      </trkpt>
      <trkpt lat="50.068955020979047" lon="8.467694967985153">
        <ele>123.19</ele>
        <time>2025-05-20T17:52:14Z</time>
      </trkpt>
      <trkpt lat="50.069020986557007" lon="8.467552978545427">
        <ele>123.67</ele>
        <time>2025-05-20T17:52:15Z</time>
      </trkpt>
      <trkpt lat="50.069124000146985" lon="8.467453988268971">
        <ele>124.63</ele>
        <time>2025-05-20T17:52:16Z</time>
      </trkpt>
      <trkpt lat="50.06924101151526" lon="8.467423981055617">
        <ele>125.11</ele>
        <time>2025-05-20T17:52:17Z</time>
      </trkpt>
      <trkpt lat="50.069377971813083" lon="8.467466980218887">
        <ele>126.06999999999999</ele>
        <time>2025-05-20T17:52:18Z</time>
      </trkpt>
      <trkpt lat="50.06949900649488" lon="8.467583991587162">
        <ele>127.03</ele>
        <time>2025-05-20T17:52:19Z</time>
      </trkpt>
      <trkpt lat="50.06958500482142" lon="8.467732015997171">
        <ele>127.98999999999999</ele>
        <time>2025-05-20T17:52:20Z</time>
      </trkpt>
      <trkpt lat="50.069648958742619" lon="8.467890014871955">
        <ele>128.47</ele>
        <time>2025-05-20T17:52:21Z</time>
      </trkpt>
      <trkpt lat="50.069700004532933" lon="8.468040972948074">
        <ele>128.94999999999999</ele>
        <time>2025-05-20T17:52:22Z</time>
      </trkpt>
      <trkpt lat="50.069739986211061" lon="8.468163013458252">
        <ele>129.43000000000001</ele>
        <time>2025-05-20T17:52:23Z</time>
      </trkpt>
      <trkpt lat="50.069749038666487" lon="8.468335010111332">
        <ele>129.91999999999999</ele>
        <time>2025-05-20T17:52:24Z</time>
      </trkpt>
      <trkpt lat="50.069755995646119" lon="8.468466019257903">
        <ele>130.40000000000001</ele>
        <time>2025-05-20T17:52:25Z</time>
      </trkpt>
      <trkpt lat="50.069762030616403" lon="8.468571966513991">
        <ele>130.40000000000001</ele>
        <time>2025-05-20T17:52:26Z</time>
      </trkpt>
      <trkpt lat="50.069741997867823" lon="8.468642039224505">
        <ele>130.88</ele>
        <time>2025-05-20T17:52:27Z</time>
      </trkpt>
      <trkpt lat="50.069731017574668" lon="8.468677997589111">
        <ele>131.36000000000001</ele>
        <time>2025-05-20T17:52:28Z</time>
      </trkpt>
      <trkpt lat="50.069729005917907" lon="8.468685960397124">
        <ele>131.84</ele>
        <time>2025-05-20T17:52:40Z</time>
      </trkpt>
      <trkpt lat="50.069717019796371" lon="8.468727031722665">
        <ele>132.31999999999999</ele>
        <time>2025-05-20T17:52:41Z</time>
      </trkpt>
      <trkpt lat="50.069605959579349" lon="8.468833984807134">
        <ele>132.31999999999999</ele>
        <time>2025-05-20T17:52:42Z</time>
      </trkpt>
      <trkpt lat="50.069547034800053" lon="8.468801965937018">
        <ele>132.31999999999999</ele>
        <time>2025-05-20T17:52:43Z</time>
      </trkpt>
      <trkpt lat="50.069465981796384" lon="8.468757960945368">
        <ele>132.80000000000001</ele>
        <time>2025-05-20T17:52:44Z</time>
      </trkpt>
      <trkpt lat="50.069362968206406" lon="8.468709010630846">
        <ele>132.80000000000001</ele>
        <time>2025-05-20T17:52:45Z</time>
      </trkpt>
      <trkpt lat="50.069232964888215" lon="8.468661988154054">
        <ele>132.80000000000001</ele>
        <time>2025-05-20T17:52:46Z</time>
      </trkpt>
      <trkpt lat="50.069087035953999" lon="8.468612032011151">
        <ele>132.31999999999999</ele>
        <time>2025-05-20T17:52:47Z</time>
      </trkpt>
      <trkpt lat="50.068774977698922" lon="8.468613959848881">
        <ele>131.84</ele>
        <time>2025-05-20T17:52:49Z</time>
      </trkpt>
      <trkpt lat="50.068625025451183" lon="8.468663999810815">
        <ele>131.84</ele>
        <time>2025-05-20T17:52:50Z</time>
      </trkpt>
      <trkpt lat="50.068466020748019" lon="8.468715967610478">
        <ele>131.36000000000001</ele>
        <time>2025-05-20T17:52:51Z</time>
      </trkpt>
      <trkpt lat="50.067210998386145" lon="8.469564970582724">
        <ele>127.03</ele>
        <time>2025-05-20T17:52:59Z</time>
      </trkpt>
      <trkpt lat="50.066095031797886" lon="8.470448004081845">
        <ele>121.26000000000001</ele>
        <time>2025-05-20T17:53:08Z</time>
      </trkpt>
      <trkpt lat="50.065578036010265" lon="8.470867015421391">
        <ele>116.94</ele>
        <time>2025-05-20T17:53:15Z</time>
      </trkpt>
      <trkpt lat="50.065397992730141" lon="8.470990983769298">
        <ele>115.01000000000001</ele>
        <time>2025-05-20T17:53:21Z</time>
      </trkpt>
      <trkpt lat="50.065359016880393" lon="8.47101797349751">
        <ele>115.01000000000001</ele>
        <time>2025-05-20T17:53:22Z</time>
      </trkpt>
      <trkpt lat="50.0653310213238" lon="8.471176978200674">
        <ele>114.53</ele>
        <time>2025-05-20T17:53:23Z</time>
      </trkpt>
      <trkpt lat="50.065355999395251" lon="8.471269011497498">
        <ele>114.53</ele>
        <time>2025-05-20T17:53:24Z</time>
      </trkpt>
      <trkpt lat="50.065386006608605" lon="8.471380993723869">
        <ele>114.05</ele>
        <time>2025-05-20T17:53:25Z</time>
      </trkpt>
      <trkpt lat="50.065420959144831" lon="8.471508985385299">
        <ele>114.05</ele>
        <time>2025-05-20T17:53:26Z</time>
      </trkpt>
      <trkpt lat="50.06546001881361" lon="8.471650974825025">
        <ele>113.56999999999999</ele>
        <time>2025-05-20T17:53:27Z</time>
      </trkpt>
      <trkpt lat="50.066027976572514" lon="8.473656009882689">
        <ele>113.09</ele>
        <time>2025-05-20T17:53:39Z</time>
      </trkpt>
      <trkpt lat="50.066388985142112" lon="8.474817993119359">
        <ele>112.61</ele>
        <time>2025-05-20T17:53:47Z</time>
      </trkpt>
      <trkpt lat="50.066352020949125" lon="8.474955959245563">
        <ele>112.13</ele>
        <time>2025-05-20T17:53:48Z</time>
      </trkpt>
      <trkpt lat="50.066367024555802" lon="8.475062996149063">
        <ele>112.13</ele>
        <time>2025-05-20T17:53:49Z</time>
      </trkpt>
      <trkpt lat="50.066425027325749" lon="8.475146982818842">
        <ele>112.61</ele>
        <time>2025-05-20T17:53:50Z</time>
      </trkpt>
      <trkpt lat="50.066436007618904" lon="8.475157963111997">
        <ele>112.61</ele>
        <time>2025-05-20T17:53:51Z</time>
      </trkpt>
      <trkpt lat="50.066580008715391" lon="8.475217977538705">
        <ele>112.61</ele>
        <time>2025-05-20T17:53:52Z</time>
      </trkpt>
      <trkpt lat="50.066632982343435" lon="8.475311016663909">
        <ele>113.09</ele>
        <time>2025-05-20T17:53:53Z</time>
      </trkpt>
      <trkpt lat="50.066695008426905" lon="8.475419981405139">
        <ele>113.09</ele>
        <time>2025-05-20T17:53:54Z</time>
      </trkpt>
      <trkpt lat="50.067273024469614" lon="8.476505018770695">
        <ele>114.05</ele>
        <time>2025-05-20T17:54:03Z</time>
      </trkpt>
      <trkpt lat="50.067805023863912" lon="8.47782701253891">
        <ele>113.56999999999999</ele>
        <time>2025-05-20T17:54:14Z</time>
      </trkpt>
      <trkpt lat="50.067879036068916" lon="8.478007977828383">
        <ele>113.56999999999999</ele>
        <time>2025-05-20T17:54:16Z</time>
      </trkpt>
      <trkpt lat="50.067909965291619" lon="8.478082995861769">
        <ele>113.56999999999999</ele>
        <time>2025-05-20T17:54:17Z</time>
      </trkpt>
      <trkpt lat="50.067935027182102" lon="8.478145021945238">
        <ele>113.56999999999999</ele>
        <time>2025-05-20T17:54:18Z</time>
      </trkpt>
      <trkpt lat="50.067955981940031" lon="8.478196989744902">
        <ele>113.56999999999999</ele>
        <time>2025-05-20T17:54:19Z</time>
      </trkpt>
      <trkpt lat="50.06797400303185" lon="8.478239988908172">
        <ele>113.56999999999999</ele>
        <time>2025-05-20T17:54:20Z</time>
      </trkpt>
      <trkpt lat="50.067983977496624" lon="8.478265972808003">
        <ele>113.56999999999999</ele>
        <time>2025-05-20T17:54:21Z</time>
      </trkpt>
      <trkpt lat="50.068036029115319" lon="8.478254992514849">
        <ele>113.56999999999999</ele>
        <time>2025-05-20T17:54:30Z</time>
      </trkpt>
      <trkpt lat="50.0680370349437" lon="8.478245018050075">
        <ele>113.56999999999999</ele>
        <time>2025-05-20T17:55:09Z</time>
      </trkpt>
      <trkpt lat="50.068035023286939" lon="8.478248035535216">
        <ele>113.09</ele>
        <time>2025-05-20T17:55:51Z</time>
      </trkpt>
    </trkseg>
  </trk>

</gpx>